<?xml version="1.0" encoding="UTF-8" standalone="no" ?>
<gpx xmlns="http://www.topografix.com/GPX/1/1" xmlns:xsi="http://www.w3.org/2001/XMLSchema-instance" xsi:schemaLocation="http://www.topografix.com/GPX/1/1 http://www.topografix.com/GPX/1/1/gpx.xsd" version="1.1" creator="VisuGPX - https://www.visugpx.com">
  <metadata>
    <name>POULDU 2020</name>
    <desc><![CDATA[<p>Heure de départ: 10:56 8 juil. 2020<br/>Heure d'arrivée: 15:36 8 juil. 2020<br/>Distance: 52,8 km (04:39)<br/>Temps déplacement: 03:29<br/>Vitesse moyenne: 11,31 km/h<br/>Vitesse moyenne mouv.: 15,14 km/h<br/>Vitesse Max.: 37,8 km/h<br/>Altitude minimale: 0 m<br/>Altitude maximale: 57 m<br/>Vitesse de montée: 327,7 m/h<br/>Vitesse de descente: 516,2 m/h<br/>Gain d'altitude: 922 m<br/>Perte d'altitude: 905 m<br/>Temps de montée: 02:48<br/>Temps de descente: 01:45<br/></p><hr align="center" width="480" style="height: 2px; width: 517px"/>]]></desc>
  </metadata>
  <wpt lat="47.77261" lon="-3.55107">
    <ele>35.17</ele>
    <name><![CDATA[0001685]]></name>
    <desc><![CDATA[<p><br /><h3>Nom: Segment: 1</h3><br />Heure de départ: 10:37 10 juil. 2020<br/>Heure d'arrivée: 16:00 10 juil. 2020<br/>Distance: 74,7km (05:22)<br/>Temps déplacement: 04:31<br/>Vitesse moyenne: 13,88 km/h<br/>Vitesse moyenne mouv.: 16,48 km/h<br/>Vitesse Max.: 41,23 km/h<br/>Altitude minimale: 0 m<br/>Altitude maximale: 68 m<br/>Vitesse de montée: 346,3 m/h<br/>Vitesse de descente: 434,1 m/h<br/>Gain d'altitude: 1018 m<br/>Perte d'altitude: 1044 m<br/>Temps de montée: 02:56<br/>Temps de descente: 02:24<br/></p>]]></desc>
    <cmt><![CDATA[<p><br /><h3>Nom: Segment: 1</h3><br />Heure de départ: 10:37 10 juil. 2020<br/>Heure d'arrivée: 16:00 10 juil. 2020<br/>Distance: 74,7km (05:22)<br/>Temps déplacement: 04:31<br/>Vitesse moyenne: 13,88 km/h<br/>Vitesse moyenne mouv.: 16,48 km/h<br/>Vitesse Max.: 41,23 km/h<br/>Altitude minimale: 0 m<br/>Altitude maximale: 68 m<br/>Vitesse de montée: 346,3 m/h<br/>Vitesse de descente: 434,1 m/h<br/>Gain d'altitude: 1018 m<br/>Perte d'altitude: 1044 m<br/>Temps de montée: 02:56<br/>Temps de descente: 02:24<br/></p>]]></cmt>
    <type><![CDATA[user]]></type>
  </wpt>
  <trk>
    <name><![CDATA[2020-07-08 10:56:12]]></name>
    <desc><![CDATA[<p>Heure de départ: 10:56 8 juil. 2020<br/>Heure d'arrivée: 15:36 8 juil. 2020<br/>Distance: 52,8 km (04:39)<br/>Temps déplacement: 03:29<br/>Vitesse moyenne: 11,31 km/h<br/>Vitesse moyenne mouv.: 15,14 km/h<br/>Vitesse Max.: 37,8 km/h<br/>Altitude minimale: 0 m<br/>Altitude maximale: 57 m<br/>Vitesse de montée: 327,7 m/h<br/>Vitesse de descente: 516,2 m/h<br/>Gain d'altitude: 922 m<br/>Perte d'altitude: 905 m<br/>Temps de montée: 02:48<br/>Temps de descente: 01:45<br/></p><hr align="center" width="480" style="height: 2px; width: 517px"/>]]></desc>
    <trkseg>
      <trkpt lat="47.77275" lon="-3.55105">
        <ele>35.55</ele>
        <time>2020-07-08T08:56:14Z</time>
      </trkpt>
      <trkpt lat="47.77275" lon="-3.55105">
        <ele>35.48</ele>
        <time>2020-07-08T08:56:15Z</time>
      </trkpt>
      <trkpt lat="47.77274" lon="-3.55104">
        <ele>35.44</ele>
        <time>2020-07-08T08:56:16Z</time>
      </trkpt>
      <trkpt lat="47.77274" lon="-3.55104">
        <ele>35.42</ele>
        <time>2020-07-08T08:56:17Z</time>
      </trkpt>
      <trkpt lat="47.77273" lon="-3.55104">
        <ele>35.39</ele>
        <time>2020-07-08T08:56:18Z</time>
      </trkpt>
      <trkpt lat="47.77273" lon="-3.55104">
        <ele>35.36</ele>
        <time>2020-07-08T08:56:19Z</time>
      </trkpt>
      <trkpt lat="47.77273" lon="-3.55103">
        <ele>35.33</ele>
        <time>2020-07-08T08:56:20Z</time>
      </trkpt>
      <trkpt lat="47.77273" lon="-3.55103">
        <ele>35.29</ele>
        <time>2020-07-08T08:56:20Z</time>
      </trkpt>
      <trkpt lat="47.77273" lon="-3.55101">
        <ele>35.22</ele>
        <time>2020-07-08T08:56:21Z</time>
      </trkpt>
      <trkpt lat="47.77273" lon="-3.551">
        <ele>35.14</ele>
        <time>2020-07-08T08:56:21Z</time>
      </trkpt>
      <trkpt lat="47.77273" lon="-3.55098">
        <ele>35.04</ele>
        <time>2020-07-08T08:56:23Z</time>
      </trkpt>
      <trkpt lat="47.77274" lon="-3.55098">
        <ele>35</ele>
        <time>2020-07-08T08:56:24Z</time>
      </trkpt>
      <trkpt lat="47.77275" lon="-3.55098">
        <ele>35.02</ele>
        <time>2020-07-08T08:56:25Z</time>
      </trkpt>
      <trkpt lat="47.77277" lon="-3.55092">
        <ele>34.72</ele>
        <time>2020-07-08T08:56:26Z</time>
      </trkpt>
      <trkpt lat="47.77277" lon="-3.55089">
        <ele>34.5</ele>
        <time>2020-07-08T08:56:27Z</time>
      </trkpt>
      <trkpt lat="47.77278" lon="-3.55088">
        <ele>34.38</ele>
        <time>2020-07-08T08:56:28Z</time>
      </trkpt>
      <trkpt lat="47.77278" lon="-3.55087">
        <ele>34.31</ele>
        <time>2020-07-08T08:56:29Z</time>
      </trkpt>
      <trkpt lat="47.77278" lon="-3.55085">
        <ele>34.16</ele>
        <time>2020-07-08T08:56:30Z</time>
      </trkpt>
      <trkpt lat="47.77279" lon="-3.55082">
        <ele>34</ele>
        <time>2020-07-08T08:56:31Z</time>
      </trkpt>
      <trkpt lat="47.77282" lon="-3.5508">
        <ele>33.91</ele>
        <time>2020-07-08T08:56:32Z</time>
      </trkpt>
      <trkpt lat="47.77283" lon="-3.55078">
        <ele>33.83</ele>
        <time>2020-07-08T08:56:33Z</time>
      </trkpt>
      <trkpt lat="47.77284" lon="-3.55077">
        <ele>33.75</ele>
        <time>2020-07-08T08:56:34Z</time>
      </trkpt>
      <trkpt lat="47.77284" lon="-3.55076">
        <ele>33.71</ele>
        <time>2020-07-08T08:56:35Z</time>
      </trkpt>
      <trkpt lat="47.77285" lon="-3.55075">
        <ele>33.63</ele>
        <time>2020-07-08T08:56:36Z</time>
      </trkpt>
      <trkpt lat="47.77286" lon="-3.55072">
        <ele>33.51</ele>
        <time>2020-07-08T08:56:37Z</time>
      </trkpt>
      <trkpt lat="47.77286" lon="-3.55069">
        <ele>33.38</ele>
        <time>2020-07-08T08:56:38Z</time>
      </trkpt>
      <trkpt lat="47.77287" lon="-3.55065">
        <ele>33.19</ele>
        <time>2020-07-08T08:56:39Z</time>
      </trkpt>
      <trkpt lat="47.77287" lon="-3.5506">
        <ele>32.98</ele>
        <time>2020-07-08T08:56:40Z</time>
      </trkpt>
      <trkpt lat="47.77287" lon="-3.55055">
        <ele>32.77</ele>
        <time>2020-07-08T08:56:41Z</time>
      </trkpt>
      <trkpt lat="47.77287" lon="-3.55051">
        <ele>32.51</ele>
        <time>2020-07-08T08:56:42Z</time>
      </trkpt>
      <trkpt lat="47.77287" lon="-3.55045">
        <ele>32.19</ele>
        <time>2020-07-08T08:56:43Z</time>
      </trkpt>
      <trkpt lat="47.77287" lon="-3.55039">
        <ele>31.84</ele>
        <time>2020-07-08T08:56:44Z</time>
      </trkpt>
      <trkpt lat="47.77288" lon="-3.55034">
        <ele>31.5</ele>
        <time>2020-07-08T08:56:45Z</time>
      </trkpt>
      <trkpt lat="47.77289" lon="-3.55028">
        <ele>31.17</ele>
        <time>2020-07-08T08:56:46Z</time>
      </trkpt>
      <trkpt lat="47.7729" lon="-3.55022">
        <ele>30.92</ele>
        <time>2020-07-08T08:56:47Z</time>
      </trkpt>
      <trkpt lat="47.77292" lon="-3.55017">
        <ele>30.7</ele>
        <time>2020-07-08T08:56:48Z</time>
      </trkpt>
      <trkpt lat="47.77293" lon="-3.55011">
        <ele>30.49</ele>
        <time>2020-07-08T08:56:49Z</time>
      </trkpt>
      <trkpt lat="47.77294" lon="-3.55006">
        <ele>30.29</ele>
        <time>2020-07-08T08:56:50Z</time>
      </trkpt>
      <trkpt lat="47.77296" lon="-3.55">
        <ele>30.1</ele>
        <time>2020-07-08T08:56:51Z</time>
      </trkpt>
      <trkpt lat="47.77297" lon="-3.54996">
        <ele>29.9</ele>
        <time>2020-07-08T08:56:52Z</time>
      </trkpt>
      <trkpt lat="47.77298" lon="-3.54992">
        <ele>29.72</ele>
        <time>2020-07-08T08:56:53Z</time>
      </trkpt>
      <trkpt lat="47.77298" lon="-3.54988">
        <ele>29.54</ele>
        <time>2020-07-08T08:56:54Z</time>
      </trkpt>
      <trkpt lat="47.77299" lon="-3.54984">
        <ele>29.37</ele>
        <time>2020-07-08T08:56:55Z</time>
      </trkpt>
      <trkpt lat="47.773" lon="-3.5498">
        <ele>29.22</ele>
        <time>2020-07-08T08:56:56Z</time>
      </trkpt>
      <trkpt lat="47.77302" lon="-3.54976">
        <ele>29.07</ele>
        <time>2020-07-08T08:56:57Z</time>
      </trkpt>
      <trkpt lat="47.77302" lon="-3.54972">
        <ele>28.94</ele>
        <time>2020-07-08T08:56:58Z</time>
      </trkpt>
      <trkpt lat="47.77303" lon="-3.54969">
        <ele>28.84</ele>
        <time>2020-07-08T08:56:59Z</time>
      </trkpt>
      <trkpt lat="47.77304" lon="-3.54966">
        <ele>28.76</ele>
        <time>2020-07-08T08:57:00Z</time>
      </trkpt>
      <trkpt lat="47.77306" lon="-3.54966">
        <ele>28.77</ele>
        <time>2020-07-08T08:57:01Z</time>
      </trkpt>
      <trkpt lat="47.77308" lon="-3.54966">
        <ele>28.77</ele>
        <time>2020-07-08T08:57:02Z</time>
      </trkpt>
      <trkpt lat="47.7731" lon="-3.54967">
        <ele>28.8</ele>
        <time>2020-07-08T08:57:03Z</time>
      </trkpt>
      <trkpt lat="47.77313" lon="-3.54967">
        <ele>28.81</ele>
        <time>2020-07-08T08:57:04Z</time>
      </trkpt>
      <trkpt lat="47.77315" lon="-3.54965">
        <ele>28.76</ele>
        <time>2020-07-08T08:57:05Z</time>
      </trkpt>
      <trkpt lat="47.77317" lon="-3.54962">
        <ele>28.66</ele>
        <time>2020-07-08T08:57:06Z</time>
      </trkpt>
      <trkpt lat="47.77318" lon="-3.54958">
        <ele>28.53</ele>
        <time>2020-07-08T08:57:07Z</time>
      </trkpt>
      <trkpt lat="47.7732" lon="-3.54953">
        <ele>28.38</ele>
        <time>2020-07-08T08:57:08Z</time>
      </trkpt>
      <trkpt lat="47.77321" lon="-3.54949">
        <ele>28.24</ele>
        <time>2020-07-08T08:57:09Z</time>
      </trkpt>
      <trkpt lat="47.77323" lon="-3.54946">
        <ele>28.1</ele>
        <time>2020-07-08T08:57:10Z</time>
      </trkpt>
      <trkpt lat="47.77325" lon="-3.54942">
        <ele>28.03</ele>
        <time>2020-07-08T08:57:11Z</time>
      </trkpt>
      <trkpt lat="47.77325" lon="-3.54938">
        <ele>28.01</ele>
        <time>2020-07-08T08:57:12Z</time>
      </trkpt>
      <trkpt lat="47.77325" lon="-3.54934">
        <ele>28</ele>
        <time>2020-07-08T08:57:13Z</time>
      </trkpt>
      <trkpt lat="47.77325" lon="-3.54932">
        <ele>28</ele>
        <time>2020-07-08T08:57:14Z</time>
      </trkpt>
      <trkpt lat="47.77324" lon="-3.54929">
        <ele>28</ele>
        <time>2020-07-08T08:57:15Z</time>
      </trkpt>
      <trkpt lat="47.77323" lon="-3.54926">
        <ele>28</ele>
        <time>2020-07-08T08:57:16Z</time>
      </trkpt>
      <trkpt lat="47.77321" lon="-3.54923">
        <ele>28</ele>
        <time>2020-07-08T08:57:17Z</time>
      </trkpt>
      <trkpt lat="47.7732" lon="-3.54921">
        <ele>28</ele>
        <time>2020-07-08T08:57:18Z</time>
      </trkpt>
      <trkpt lat="47.77319" lon="-3.54919">
        <ele>28</ele>
        <time>2020-07-08T08:57:19Z</time>
      </trkpt>
      <trkpt lat="47.77318" lon="-3.54916">
        <ele>28.02</ele>
        <time>2020-07-08T08:57:20Z</time>
      </trkpt>
      <trkpt lat="47.77317" lon="-3.54913">
        <ele>28.1</ele>
        <time>2020-07-08T08:57:21Z</time>
      </trkpt>
      <trkpt lat="47.77317" lon="-3.5491">
        <ele>28.2</ele>
        <time>2020-07-08T08:57:22Z</time>
      </trkpt>
      <trkpt lat="47.77319" lon="-3.54906">
        <ele>28.33</ele>
        <time>2020-07-08T08:57:23Z</time>
      </trkpt>
      <trkpt lat="47.7732" lon="-3.54903">
        <ele>28.45</ele>
        <time>2020-07-08T08:57:24Z</time>
      </trkpt>
      <trkpt lat="47.77321" lon="-3.549">
        <ele>28.55</ele>
        <time>2020-07-08T08:57:25Z</time>
      </trkpt>
      <trkpt lat="47.77323" lon="-3.54899">
        <ele>28.61</ele>
        <time>2020-07-08T08:57:26Z</time>
      </trkpt>
      <trkpt lat="47.77325" lon="-3.54897">
        <ele>28.67</ele>
        <time>2020-07-08T08:57:27Z</time>
      </trkpt>
      <trkpt lat="47.77326" lon="-3.54895">
        <ele>28.74</ele>
        <time>2020-07-08T08:57:28Z</time>
      </trkpt>
      <trkpt lat="47.77327" lon="-3.54893">
        <ele>28.81</ele>
        <time>2020-07-08T08:57:29Z</time>
      </trkpt>
      <trkpt lat="47.77327" lon="-3.54891">
        <ele>28.89</ele>
        <time>2020-07-08T08:57:30Z</time>
      </trkpt>
      <trkpt lat="47.77328" lon="-3.54888">
        <ele>28.99</ele>
        <time>2020-07-08T08:57:31Z</time>
      </trkpt>
      <trkpt lat="47.77328" lon="-3.54884">
        <ele>29.11</ele>
        <time>2020-07-08T08:57:32Z</time>
      </trkpt>
      <trkpt lat="47.77329" lon="-3.54881">
        <ele>29.23</ele>
        <time>2020-07-08T08:57:33Z</time>
      </trkpt>
      <trkpt lat="47.77329" lon="-3.54878">
        <ele>29.35</ele>
        <time>2020-07-08T08:57:34Z</time>
      </trkpt>
      <trkpt lat="47.7733" lon="-3.54875">
        <ele>29.47</ele>
        <time>2020-07-08T08:57:35Z</time>
      </trkpt>
      <trkpt lat="47.77332" lon="-3.5487">
        <ele>29.61</ele>
        <time>2020-07-08T08:57:36Z</time>
      </trkpt>
      <trkpt lat="47.77333" lon="-3.54865">
        <ele>29.77</ele>
        <time>2020-07-08T08:57:37Z</time>
      </trkpt>
      <trkpt lat="47.77333" lon="-3.54861">
        <ele>29.93</ele>
        <time>2020-07-08T08:57:38Z</time>
      </trkpt>
      <trkpt lat="47.77334" lon="-3.54858">
        <ele>29.98</ele>
        <time>2020-07-08T08:57:39Z</time>
      </trkpt>
      <trkpt lat="47.77335" lon="-3.54854">
        <ele>29.99</ele>
        <time>2020-07-08T08:57:40Z</time>
      </trkpt>
      <trkpt lat="47.77335" lon="-3.54851">
        <ele>30</ele>
        <time>2020-07-08T08:57:41Z</time>
      </trkpt>
      <trkpt lat="47.77336" lon="-3.54846">
        <ele>30</ele>
        <time>2020-07-08T08:57:42Z</time>
      </trkpt>
      <trkpt lat="47.77337" lon="-3.54842">
        <ele>30</ele>
        <time>2020-07-08T08:57:43Z</time>
      </trkpt>
      <trkpt lat="47.77339" lon="-3.54837">
        <ele>30</ele>
        <time>2020-07-08T08:57:44Z</time>
      </trkpt>
      <trkpt lat="47.7734" lon="-3.54833">
        <ele>30.01</ele>
        <time>2020-07-08T08:57:45Z</time>
      </trkpt>
      <trkpt lat="47.7734" lon="-3.54829">
        <ele>30.11</ele>
        <time>2020-07-08T08:57:46Z</time>
      </trkpt>
      <trkpt lat="47.77339" lon="-3.54826">
        <ele>30.23</ele>
        <time>2020-07-08T08:57:47Z</time>
      </trkpt>
      <trkpt lat="47.77339" lon="-3.54822">
        <ele>30.35</ele>
        <time>2020-07-08T08:57:48Z</time>
      </trkpt>
      <trkpt lat="47.77338" lon="-3.5482">
        <ele>30.45</ele>
        <time>2020-07-08T08:57:49Z</time>
      </trkpt>
      <trkpt lat="47.77336" lon="-3.54816">
        <ele>30.56</ele>
        <time>2020-07-08T08:57:50Z</time>
      </trkpt>
      <trkpt lat="47.77334" lon="-3.54813">
        <ele>30.68</ele>
        <time>2020-07-08T08:57:51Z</time>
      </trkpt>
      <trkpt lat="47.77333" lon="-3.5481">
        <ele>30.8</ele>
        <time>2020-07-08T08:57:52Z</time>
      </trkpt>
      <trkpt lat="47.77331" lon="-3.54806">
        <ele>30.94</ele>
        <time>2020-07-08T08:57:53Z</time>
      </trkpt>
      <trkpt lat="47.7733" lon="-3.54802">
        <ele>31.07</ele>
        <time>2020-07-08T08:57:54Z</time>
      </trkpt>
      <trkpt lat="47.77329" lon="-3.54799">
        <ele>31.19</ele>
        <time>2020-07-08T08:57:55Z</time>
      </trkpt>
      <trkpt lat="47.77327" lon="-3.54795">
        <ele>31.33</ele>
        <time>2020-07-08T08:57:56Z</time>
      </trkpt>
      <trkpt lat="47.77325" lon="-3.54791">
        <ele>31.47</ele>
        <time>2020-07-08T08:57:57Z</time>
      </trkpt>
      <trkpt lat="47.77322" lon="-3.54785">
        <ele>31.66</ele>
        <time>2020-07-08T08:57:58Z</time>
      </trkpt>
      <trkpt lat="47.77319" lon="-3.54781">
        <ele>31.81</ele>
        <time>2020-07-08T08:57:59Z</time>
      </trkpt>
      <trkpt lat="47.77318" lon="-3.54777">
        <ele>31.95</ele>
        <time>2020-07-08T08:58:00Z</time>
      </trkpt>
      <trkpt lat="47.77316" lon="-3.54774">
        <ele>32.08</ele>
        <time>2020-07-08T08:58:01Z</time>
      </trkpt>
      <trkpt lat="47.77315" lon="-3.54771">
        <ele>32.2</ele>
        <time>2020-07-08T08:58:02Z</time>
      </trkpt>
      <trkpt lat="47.77313" lon="-3.54769">
        <ele>32.29</ele>
        <time>2020-07-08T08:58:03Z</time>
      </trkpt>
      <trkpt lat="47.77312" lon="-3.54766">
        <ele>32.39</ele>
        <time>2020-07-08T08:58:04Z</time>
      </trkpt>
      <trkpt lat="47.77309" lon="-3.54762">
        <ele>32.51</ele>
        <time>2020-07-08T08:58:05Z</time>
      </trkpt>
      <trkpt lat="47.77308" lon="-3.5476">
        <ele>32.6</ele>
        <time>2020-07-08T08:58:06Z</time>
      </trkpt>
      <trkpt lat="47.77306" lon="-3.54757">
        <ele>32.69</ele>
        <time>2020-07-08T08:58:07Z</time>
      </trkpt>
      <trkpt lat="47.77304" lon="-3.54754">
        <ele>32.77</ele>
        <time>2020-07-08T08:58:08Z</time>
      </trkpt>
      <trkpt lat="47.77303" lon="-3.5475">
        <ele>32.85</ele>
        <time>2020-07-08T08:58:09Z</time>
      </trkpt>
      <trkpt lat="47.77301" lon="-3.54747">
        <ele>32.93</ele>
        <time>2020-07-08T08:58:10Z</time>
      </trkpt>
      <trkpt lat="47.77299" lon="-3.54743">
        <ele>33.01</ele>
        <time>2020-07-08T08:58:11Z</time>
      </trkpt>
      <trkpt lat="47.77298" lon="-3.54739">
        <ele>33.1</ele>
        <time>2020-07-08T08:58:12Z</time>
      </trkpt>
      <trkpt lat="47.77296" lon="-3.54734">
        <ele>33.19</ele>
        <time>2020-07-08T08:58:13Z</time>
      </trkpt>
      <trkpt lat="47.77294" lon="-3.5473">
        <ele>33.29</ele>
        <time>2020-07-08T08:58:14Z</time>
      </trkpt>
      <trkpt lat="47.77293" lon="-3.54725">
        <ele>33.4</ele>
        <time>2020-07-08T08:58:15Z</time>
      </trkpt>
      <trkpt lat="47.77292" lon="-3.5472">
        <ele>33.47</ele>
        <time>2020-07-08T08:58:16Z</time>
      </trkpt>
      <trkpt lat="47.77291" lon="-3.54715">
        <ele>33.47</ele>
        <time>2020-07-08T08:58:17Z</time>
      </trkpt>
      <trkpt lat="47.7729" lon="-3.5471">
        <ele>33.46</ele>
        <time>2020-07-08T08:58:18Z</time>
      </trkpt>
      <trkpt lat="47.77291" lon="-3.54705">
        <ele>33.47</ele>
        <time>2020-07-08T08:58:19Z</time>
      </trkpt>
      <trkpt lat="47.77291" lon="-3.54699">
        <ele>33.48</ele>
        <time>2020-07-08T08:58:20Z</time>
      </trkpt>
      <trkpt lat="47.77292" lon="-3.54693">
        <ele>33.53</ele>
        <time>2020-07-08T08:58:21Z</time>
      </trkpt>
      <trkpt lat="47.77292" lon="-3.54688">
        <ele>33.68</ele>
        <time>2020-07-08T08:58:22Z</time>
      </trkpt>
      <trkpt lat="47.77292" lon="-3.54682">
        <ele>33.87</ele>
        <time>2020-07-08T08:58:23Z</time>
      </trkpt>
      <trkpt lat="47.77292" lon="-3.54677">
        <ele>34.08</ele>
        <time>2020-07-08T08:58:24Z</time>
      </trkpt>
      <trkpt lat="47.77292" lon="-3.54671">
        <ele>34.27</ele>
        <time>2020-07-08T08:58:25Z</time>
      </trkpt>
      <trkpt lat="47.77293" lon="-3.54666">
        <ele>34.47</ele>
        <time>2020-07-08T08:58:26Z</time>
      </trkpt>
      <trkpt lat="47.77293" lon="-3.54661">
        <ele>34.67</ele>
        <time>2020-07-08T08:58:27Z</time>
      </trkpt>
      <trkpt lat="47.77295" lon="-3.54657">
        <ele>34.89</ele>
        <time>2020-07-08T08:58:28Z</time>
      </trkpt>
      <trkpt lat="47.77297" lon="-3.54655">
        <ele>35.06</ele>
        <time>2020-07-08T08:58:29Z</time>
      </trkpt>
      <trkpt lat="47.773" lon="-3.54652">
        <ele>35.23</ele>
        <time>2020-07-08T08:58:30Z</time>
      </trkpt>
      <trkpt lat="47.77302" lon="-3.54651">
        <ele>35.39</ele>
        <time>2020-07-08T08:58:31Z</time>
      </trkpt>
      <trkpt lat="47.77305" lon="-3.5465">
        <ele>35.52</ele>
        <time>2020-07-08T08:58:32Z</time>
      </trkpt>
      <trkpt lat="47.77308" lon="-3.5465">
        <ele>35.64</ele>
        <time>2020-07-08T08:58:33Z</time>
      </trkpt>
      <trkpt lat="47.77313" lon="-3.54651">
        <ele>35.76</ele>
        <time>2020-07-08T08:58:34Z</time>
      </trkpt>
      <trkpt lat="47.77316" lon="-3.54652">
        <ele>35.87</ele>
        <time>2020-07-08T08:58:35Z</time>
      </trkpt>
      <trkpt lat="47.7732" lon="-3.54652">
        <ele>35.99</ele>
        <time>2020-07-08T08:58:36Z</time>
      </trkpt>
      <trkpt lat="47.77324" lon="-3.54654">
        <ele>36.09</ele>
        <time>2020-07-08T08:58:37Z</time>
      </trkpt>
      <trkpt lat="47.77327" lon="-3.54654">
        <ele>36.19</ele>
        <time>2020-07-08T08:58:38Z</time>
      </trkpt>
      <trkpt lat="47.7733" lon="-3.54654">
        <ele>36.29</ele>
        <time>2020-07-08T08:58:39Z</time>
      </trkpt>
      <trkpt lat="47.77334" lon="-3.54654">
        <ele>36.4</ele>
        <time>2020-07-08T08:58:40Z</time>
      </trkpt>
      <trkpt lat="47.77337" lon="-3.54653">
        <ele>36.46</ele>
        <time>2020-07-08T08:58:41Z</time>
      </trkpt>
      <trkpt lat="47.77339" lon="-3.54652">
        <ele>36.5</ele>
        <time>2020-07-08T08:58:42Z</time>
      </trkpt>
      <trkpt lat="47.77343" lon="-3.54651">
        <ele>36.55</ele>
        <time>2020-07-08T08:58:43Z</time>
      </trkpt>
      <trkpt lat="47.77346" lon="-3.5465">
        <ele>36.59</ele>
        <time>2020-07-08T08:58:44Z</time>
      </trkpt>
      <trkpt lat="47.7735" lon="-3.54649">
        <ele>36.63</ele>
        <time>2020-07-08T08:58:45Z</time>
      </trkpt>
      <trkpt lat="47.77354" lon="-3.54648">
        <ele>36.67</ele>
        <time>2020-07-08T08:58:46Z</time>
      </trkpt>
      <trkpt lat="47.77358" lon="-3.54646">
        <ele>36.73</ele>
        <time>2020-07-08T08:58:47Z</time>
      </trkpt>
      <trkpt lat="47.77362" lon="-3.54642">
        <ele>36.84</ele>
        <time>2020-07-08T08:58:48Z</time>
      </trkpt>
      <trkpt lat="47.77366" lon="-3.54639">
        <ele>36.94</ele>
        <time>2020-07-08T08:58:49Z</time>
      </trkpt>
      <trkpt lat="47.7737" lon="-3.54635">
        <ele>37.09</ele>
        <time>2020-07-08T08:58:50Z</time>
      </trkpt>
      <trkpt lat="47.77373" lon="-3.54631">
        <ele>37.22</ele>
        <time>2020-07-08T08:58:51Z</time>
      </trkpt>
      <trkpt lat="47.77377" lon="-3.54628">
        <ele>37.34</ele>
        <time>2020-07-08T08:58:52Z</time>
      </trkpt>
      <trkpt lat="47.77381" lon="-3.54624">
        <ele>37.47</ele>
        <time>2020-07-08T08:58:53Z</time>
      </trkpt>
      <trkpt lat="47.77384" lon="-3.54621">
        <ele>37.59</ele>
        <time>2020-07-08T08:58:54Z</time>
      </trkpt>
      <trkpt lat="47.77388" lon="-3.54618">
        <ele>37.72</ele>
        <time>2020-07-08T08:58:55Z</time>
      </trkpt>
      <trkpt lat="47.77392" lon="-3.54614">
        <ele>37.85</ele>
        <time>2020-07-08T08:58:56Z</time>
      </trkpt>
      <trkpt lat="47.77396" lon="-3.5461">
        <ele>37.98</ele>
        <time>2020-07-08T08:58:57Z</time>
      </trkpt>
      <trkpt lat="47.774" lon="-3.54606">
        <ele>38.12</ele>
        <time>2020-07-08T08:58:58Z</time>
      </trkpt>
      <trkpt lat="47.77404" lon="-3.54603">
        <ele>38.25</ele>
        <time>2020-07-08T08:58:59Z</time>
      </trkpt>
      <trkpt lat="47.77408" lon="-3.54599">
        <ele>38.37</ele>
        <time>2020-07-08T08:59:00Z</time>
      </trkpt>
      <trkpt lat="47.77412" lon="-3.54596">
        <ele>38.49</ele>
        <time>2020-07-08T08:59:01Z</time>
      </trkpt>
      <trkpt lat="47.77416" lon="-3.54593">
        <ele>38.61</ele>
        <time>2020-07-08T08:59:02Z</time>
      </trkpt>
      <trkpt lat="47.7742" lon="-3.54589">
        <ele>38.73</ele>
        <time>2020-07-08T08:59:03Z</time>
      </trkpt>
      <trkpt lat="47.77424" lon="-3.54587">
        <ele>38.83</ele>
        <time>2020-07-08T08:59:04Z</time>
      </trkpt>
      <trkpt lat="47.77428" lon="-3.54584">
        <ele>38.93</ele>
        <time>2020-07-08T08:59:05Z</time>
      </trkpt>
      <trkpt lat="47.77431" lon="-3.54582">
        <ele>38.98</ele>
        <time>2020-07-08T08:59:06Z</time>
      </trkpt>
      <trkpt lat="47.77435" lon="-3.54579">
        <ele>38.99</ele>
        <time>2020-07-08T08:59:07Z</time>
      </trkpt>
      <trkpt lat="47.77437" lon="-3.54575">
        <ele>39</ele>
        <time>2020-07-08T08:59:08Z</time>
      </trkpt>
      <trkpt lat="47.77438" lon="-3.5457">
        <ele>39</ele>
        <time>2020-07-08T08:59:09Z</time>
      </trkpt>
      <trkpt lat="47.77437" lon="-3.54564">
        <ele>39</ele>
        <time>2020-07-08T08:59:10Z</time>
      </trkpt>
      <trkpt lat="47.77436" lon="-3.54558">
        <ele>39</ele>
        <time>2020-07-08T08:59:11Z</time>
      </trkpt>
      <trkpt lat="47.77435" lon="-3.54552">
        <ele>39.03</ele>
        <time>2020-07-08T08:59:12Z</time>
      </trkpt>
      <trkpt lat="47.77433" lon="-3.54547">
        <ele>39.1</ele>
        <time>2020-07-08T08:59:13Z</time>
      </trkpt>
      <trkpt lat="47.77432" lon="-3.54542">
        <ele>39.18</ele>
        <time>2020-07-08T08:59:14Z</time>
      </trkpt>
      <trkpt lat="47.77431" lon="-3.54538">
        <ele>39.27</ele>
        <time>2020-07-08T08:59:15Z</time>
      </trkpt>
      <trkpt lat="47.77429" lon="-3.54533">
        <ele>39.4</ele>
        <time>2020-07-08T08:59:16Z</time>
      </trkpt>
      <trkpt lat="47.77427" lon="-3.54528">
        <ele>39.56</ele>
        <time>2020-07-08T08:59:17Z</time>
      </trkpt>
      <trkpt lat="47.77425" lon="-3.54523">
        <ele>39.63</ele>
        <time>2020-07-08T08:59:18Z</time>
      </trkpt>
      <trkpt lat="47.77423" lon="-3.54517">
        <ele>39.68</ele>
        <time>2020-07-08T08:59:19Z</time>
      </trkpt>
      <trkpt lat="47.77421" lon="-3.54512">
        <ele>39.74</ele>
        <time>2020-07-08T08:59:20Z</time>
      </trkpt>
      <trkpt lat="47.77418" lon="-3.54506">
        <ele>39.85</ele>
        <time>2020-07-08T08:59:21Z</time>
      </trkpt>
      <trkpt lat="47.77416" lon="-3.545">
        <ele>39.95</ele>
        <time>2020-07-08T08:59:22Z</time>
      </trkpt>
      <trkpt lat="47.77413" lon="-3.54495">
        <ele>39.99</ele>
        <time>2020-07-08T08:59:23Z</time>
      </trkpt>
      <trkpt lat="47.7741" lon="-3.5449">
        <ele>40</ele>
        <time>2020-07-08T08:59:24Z</time>
      </trkpt>
      <trkpt lat="47.77408" lon="-3.54484">
        <ele>40</ele>
        <time>2020-07-08T08:59:25Z</time>
      </trkpt>
      <trkpt lat="47.77405" lon="-3.54479">
        <ele>40</ele>
        <time>2020-07-08T08:59:26Z</time>
      </trkpt>
      <trkpt lat="47.77402" lon="-3.54474">
        <ele>40</ele>
        <time>2020-07-08T08:59:27Z</time>
      </trkpt>
      <trkpt lat="47.77399" lon="-3.54468">
        <ele>39.96</ele>
        <time>2020-07-08T08:59:28Z</time>
      </trkpt>
      <trkpt lat="47.77396" lon="-3.54462">
        <ele>39.92</ele>
        <time>2020-07-08T08:59:29Z</time>
      </trkpt>
      <trkpt lat="47.77393" lon="-3.54457">
        <ele>39.92</ele>
        <time>2020-07-08T08:59:30Z</time>
      </trkpt>
      <trkpt lat="47.7739" lon="-3.54451">
        <ele>39.95</ele>
        <time>2020-07-08T08:59:31Z</time>
      </trkpt>
      <trkpt lat="47.77387" lon="-3.54445">
        <ele>40.03</ele>
        <time>2020-07-08T08:59:32Z</time>
      </trkpt>
      <trkpt lat="47.77384" lon="-3.5444">
        <ele>40.14</ele>
        <time>2020-07-08T08:59:33Z</time>
      </trkpt>
      <trkpt lat="47.7738" lon="-3.54434">
        <ele>40.27</ele>
        <time>2020-07-08T08:59:34Z</time>
      </trkpt>
      <trkpt lat="47.77376" lon="-3.54428">
        <ele>40.4</ele>
        <time>2020-07-08T08:59:35Z</time>
      </trkpt>
      <trkpt lat="47.77373" lon="-3.54424">
        <ele>40.52</ele>
        <time>2020-07-08T08:59:36Z</time>
      </trkpt>
      <trkpt lat="47.77369" lon="-3.54418">
        <ele>40.65</ele>
        <time>2020-07-08T08:59:37Z</time>
      </trkpt>
      <trkpt lat="47.77365" lon="-3.54415">
        <ele>40.79</ele>
        <time>2020-07-08T08:59:38Z</time>
      </trkpt>
      <trkpt lat="47.77361" lon="-3.5441">
        <ele>40.94</ele>
        <time>2020-07-08T08:59:39Z</time>
      </trkpt>
      <trkpt lat="47.77356" lon="-3.54406">
        <ele>40.98</ele>
        <time>2020-07-08T08:59:40Z</time>
      </trkpt>
      <trkpt lat="47.77352" lon="-3.54401">
        <ele>40.99</ele>
        <time>2020-07-08T08:59:41Z</time>
      </trkpt>
      <trkpt lat="47.77348" lon="-3.54396">
        <ele>41</ele>
        <time>2020-07-08T08:59:42Z</time>
      </trkpt>
      <trkpt lat="47.77344" lon="-3.54392">
        <ele>41</ele>
        <time>2020-07-08T08:59:43Z</time>
      </trkpt>
      <trkpt lat="47.77341" lon="-3.54387">
        <ele>40.99</ele>
        <time>2020-07-08T08:59:44Z</time>
      </trkpt>
      <trkpt lat="47.77337" lon="-3.54382">
        <ele>40.98</ele>
        <time>2020-07-08T08:59:45Z</time>
      </trkpt>
      <trkpt lat="47.77333" lon="-3.54377">
        <ele>40.99</ele>
        <time>2020-07-08T08:59:46Z</time>
      </trkpt>
      <trkpt lat="47.77328" lon="-3.54372">
        <ele>41</ele>
        <time>2020-07-08T08:59:47Z</time>
      </trkpt>
      <trkpt lat="47.77324" lon="-3.54368">
        <ele>41</ele>
        <time>2020-07-08T08:59:48Z</time>
      </trkpt>
      <trkpt lat="47.7732" lon="-3.54362">
        <ele>41</ele>
        <time>2020-07-08T08:59:49Z</time>
      </trkpt>
      <trkpt lat="47.77316" lon="-3.54357">
        <ele>41</ele>
        <time>2020-07-08T08:59:50Z</time>
      </trkpt>
      <trkpt lat="47.77313" lon="-3.54352">
        <ele>41</ele>
        <time>2020-07-08T08:59:51Z</time>
      </trkpt>
      <trkpt lat="47.77309" lon="-3.54347">
        <ele>41</ele>
        <time>2020-07-08T08:59:52Z</time>
      </trkpt>
      <trkpt lat="47.77305" lon="-3.54342">
        <ele>41</ele>
        <time>2020-07-08T08:59:53Z</time>
      </trkpt>
      <trkpt lat="47.77302" lon="-3.54337">
        <ele>41</ele>
        <time>2020-07-08T08:59:54Z</time>
      </trkpt>
      <trkpt lat="47.77298" lon="-3.54332">
        <ele>41</ele>
        <time>2020-07-08T08:59:55Z</time>
      </trkpt>
      <trkpt lat="47.77295" lon="-3.54327">
        <ele>41</ele>
        <time>2020-07-08T08:59:56Z</time>
      </trkpt>
      <trkpt lat="47.77292" lon="-3.54322">
        <ele>41</ele>
        <time>2020-07-08T08:59:57Z</time>
      </trkpt>
      <trkpt lat="47.77289" lon="-3.54316">
        <ele>41</ele>
        <time>2020-07-08T08:59:58Z</time>
      </trkpt>
      <trkpt lat="47.77286" lon="-3.5431">
        <ele>41</ele>
        <time>2020-07-08T08:59:59Z</time>
      </trkpt>
      <trkpt lat="47.77283" lon="-3.54304">
        <ele>41</ele>
        <time>2020-07-08T09:00:00Z</time>
      </trkpt>
      <trkpt lat="47.7728" lon="-3.54297">
        <ele>41</ele>
        <time>2020-07-08T09:00:01Z</time>
      </trkpt>
      <trkpt lat="47.77277" lon="-3.54291">
        <ele>40.98</ele>
        <time>2020-07-08T09:00:02Z</time>
      </trkpt>
      <trkpt lat="47.77273" lon="-3.54285">
        <ele>40.89</ele>
        <time>2020-07-08T09:00:03Z</time>
      </trkpt>
      <trkpt lat="47.7727" lon="-3.5428">
        <ele>40.77</ele>
        <time>2020-07-08T09:00:04Z</time>
      </trkpt>
      <trkpt lat="47.77267" lon="-3.54274">
        <ele>40.65</ele>
        <time>2020-07-08T09:00:05Z</time>
      </trkpt>
      <trkpt lat="47.77263" lon="-3.54268">
        <ele>40.51</ele>
        <time>2020-07-08T09:00:06Z</time>
      </trkpt>
      <trkpt lat="47.7726" lon="-3.54261">
        <ele>40.39</ele>
        <time>2020-07-08T09:00:07Z</time>
      </trkpt>
      <trkpt lat="47.77257" lon="-3.54254">
        <ele>40.29</ele>
        <time>2020-07-08T09:00:08Z</time>
      </trkpt>
      <trkpt lat="47.77253" lon="-3.54248">
        <ele>40.17</ele>
        <time>2020-07-08T09:00:09Z</time>
      </trkpt>
      <trkpt lat="47.7725" lon="-3.54241">
        <ele>40.04</ele>
        <time>2020-07-08T09:00:10Z</time>
      </trkpt>
      <trkpt lat="47.77247" lon="-3.54235">
        <ele>39.93</ele>
        <time>2020-07-08T09:00:11Z</time>
      </trkpt>
      <trkpt lat="47.77243" lon="-3.54229">
        <ele>39.81</ele>
        <time>2020-07-08T09:00:12Z</time>
      </trkpt>
      <trkpt lat="47.7724" lon="-3.54222">
        <ele>39.7</ele>
        <time>2020-07-08T09:00:13Z</time>
      </trkpt>
      <trkpt lat="47.77237" lon="-3.54216">
        <ele>39.65</ele>
        <time>2020-07-08T09:00:14Z</time>
      </trkpt>
      <trkpt lat="47.77234" lon="-3.54211">
        <ele>39.66</ele>
        <time>2020-07-08T09:00:15Z</time>
      </trkpt>
      <trkpt lat="47.77231" lon="-3.54204">
        <ele>39.73</ele>
        <time>2020-07-08T09:00:16Z</time>
      </trkpt>
      <trkpt lat="47.77229" lon="-3.54198">
        <ele>39.85</ele>
        <time>2020-07-08T09:00:17Z</time>
      </trkpt>
      <trkpt lat="47.77226" lon="-3.54192">
        <ele>39.91</ele>
        <time>2020-07-08T09:00:18Z</time>
      </trkpt>
      <trkpt lat="47.77224" lon="-3.54185">
        <ele>39.75</ele>
        <time>2020-07-08T09:00:19Z</time>
      </trkpt>
      <trkpt lat="47.77221" lon="-3.54178">
        <ele>39.49</ele>
        <time>2020-07-08T09:00:20Z</time>
      </trkpt>
      <trkpt lat="47.77219" lon="-3.54171">
        <ele>39.15</ele>
        <time>2020-07-08T09:00:21Z</time>
      </trkpt>
      <trkpt lat="47.77217" lon="-3.54163">
        <ele>38.92</ele>
        <time>2020-07-08T09:00:22Z</time>
      </trkpt>
      <trkpt lat="47.77215" lon="-3.54155">
        <ele>38.81</ele>
        <time>2020-07-08T09:00:23Z</time>
      </trkpt>
      <trkpt lat="47.77214" lon="-3.54146">
        <ele>38.73</ele>
        <time>2020-07-08T09:00:24Z</time>
      </trkpt>
      <trkpt lat="47.77212" lon="-3.54138">
        <ele>38.65</ele>
        <time>2020-07-08T09:00:25Z</time>
      </trkpt>
      <trkpt lat="47.7721" lon="-3.5413">
        <ele>38.49</ele>
        <time>2020-07-08T09:00:26Z</time>
      </trkpt>
      <trkpt lat="47.77208" lon="-3.54122">
        <ele>38.28</ele>
        <time>2020-07-08T09:00:27Z</time>
      </trkpt>
      <trkpt lat="47.77207" lon="-3.54113">
        <ele>38.02</ele>
        <time>2020-07-08T09:00:28Z</time>
      </trkpt>
      <trkpt lat="47.77204" lon="-3.54105">
        <ele>37.8</ele>
        <time>2020-07-08T09:00:29Z</time>
      </trkpt>
      <trkpt lat="47.77202" lon="-3.54098">
        <ele>37.62</ele>
        <time>2020-07-08T09:00:30Z</time>
      </trkpt>
      <trkpt lat="47.772" lon="-3.54094">
        <ele>37.48</ele>
        <time>2020-07-08T09:00:31Z</time>
      </trkpt>
      <trkpt lat="47.77199" lon="-3.54091">
        <ele>37.37</ele>
        <time>2020-07-08T09:00:32Z</time>
      </trkpt>
      <trkpt lat="47.77198" lon="-3.54089">
        <ele>37.29</ele>
        <time>2020-07-08T09:00:33Z</time>
      </trkpt>
      <trkpt lat="47.77198" lon="-3.54086">
        <ele>37.24</ele>
        <time>2020-07-08T09:00:34Z</time>
      </trkpt>
      <trkpt lat="47.77197" lon="-3.54081">
        <ele>37.2</ele>
        <time>2020-07-08T09:00:35Z</time>
      </trkpt>
      <trkpt lat="47.77196" lon="-3.54076">
        <ele>37.14</ele>
        <time>2020-07-08T09:00:36Z</time>
      </trkpt>
      <trkpt lat="47.77195" lon="-3.5407">
        <ele>37.05</ele>
        <time>2020-07-08T09:00:37Z</time>
      </trkpt>
      <trkpt lat="47.77193" lon="-3.54063">
        <ele>36.94</ele>
        <time>2020-07-08T09:00:38Z</time>
      </trkpt>
      <trkpt lat="47.77191" lon="-3.54057">
        <ele>36.8</ele>
        <time>2020-07-08T09:00:39Z</time>
      </trkpt>
      <trkpt lat="47.77187" lon="-3.54052">
        <ele>36.58</ele>
        <time>2020-07-08T09:00:40Z</time>
      </trkpt>
      <trkpt lat="47.77182" lon="-3.54049">
        <ele>36.34</ele>
        <time>2020-07-08T09:00:41Z</time>
      </trkpt>
      <trkpt lat="47.77177" lon="-3.54049">
        <ele>36.01</ele>
        <time>2020-07-08T09:00:42Z</time>
      </trkpt>
      <trkpt lat="47.77171" lon="-3.54048">
        <ele>35.68</ele>
        <time>2020-07-08T09:00:43Z</time>
      </trkpt>
      <trkpt lat="47.77165" lon="-3.54048">
        <ele>35.28</ele>
        <time>2020-07-08T09:00:44Z</time>
      </trkpt>
      <trkpt lat="47.7716" lon="-3.54048">
        <ele>34.74</ele>
        <time>2020-07-08T09:00:45Z</time>
      </trkpt>
      <trkpt lat="47.77155" lon="-3.54048">
        <ele>34.18</ele>
        <time>2020-07-08T09:00:46Z</time>
      </trkpt>
      <trkpt lat="47.77149" lon="-3.54048">
        <ele>33.59</ele>
        <time>2020-07-08T09:00:47Z</time>
      </trkpt>
      <trkpt lat="47.77143" lon="-3.54047">
        <ele>33.04</ele>
        <time>2020-07-08T09:00:48Z</time>
      </trkpt>
      <trkpt lat="47.77139" lon="-3.54046">
        <ele>32.54</ele>
        <time>2020-07-08T09:00:49Z</time>
      </trkpt>
      <trkpt lat="47.77134" lon="-3.54044">
        <ele>31.97</ele>
        <time>2020-07-08T09:00:50Z</time>
      </trkpt>
      <trkpt lat="47.77129" lon="-3.54041">
        <ele>31.35</ele>
        <time>2020-07-08T09:00:51Z</time>
      </trkpt>
      <trkpt lat="47.77124" lon="-3.54038">
        <ele>30.73</ele>
        <time>2020-07-08T09:00:52Z</time>
      </trkpt>
      <trkpt lat="47.77119" lon="-3.54035">
        <ele>30.14</ele>
        <time>2020-07-08T09:00:53Z</time>
      </trkpt>
      <trkpt lat="47.77115" lon="-3.54032">
        <ele>29.6</ele>
        <time>2020-07-08T09:00:54Z</time>
      </trkpt>
      <trkpt lat="47.7711" lon="-3.54029">
        <ele>28.98</ele>
        <time>2020-07-08T09:00:55Z</time>
      </trkpt>
      <trkpt lat="47.77105" lon="-3.54027">
        <ele>28.29</ele>
        <time>2020-07-08T09:00:56Z</time>
      </trkpt>
      <trkpt lat="47.77101" lon="-3.54027">
        <ele>27.52</ele>
        <time>2020-07-08T09:00:57Z</time>
      </trkpt>
      <trkpt lat="47.77098" lon="-3.54025">
        <ele>26.96</ele>
        <time>2020-07-08T09:00:58Z</time>
      </trkpt>
      <trkpt lat="47.77093" lon="-3.54024">
        <ele>26.23</ele>
        <time>2020-07-08T09:00:59Z</time>
      </trkpt>
      <trkpt lat="47.77087" lon="-3.54021">
        <ele>25.33</ele>
        <time>2020-07-08T09:01:00Z</time>
      </trkpt>
      <trkpt lat="47.77081" lon="-3.54021">
        <ele>24.39</ele>
        <time>2020-07-08T09:01:01Z</time>
      </trkpt>
      <trkpt lat="47.77073" lon="-3.54021">
        <ele>23.55</ele>
        <time>2020-07-08T09:01:02Z</time>
      </trkpt>
      <trkpt lat="47.77064" lon="-3.54017">
        <ele>22.71</ele>
        <time>2020-07-08T09:01:03Z</time>
      </trkpt>
      <trkpt lat="47.77056" lon="-3.54014">
        <ele>21.89</ele>
        <time>2020-07-08T09:01:04Z</time>
      </trkpt>
      <trkpt lat="47.77049" lon="-3.54011">
        <ele>21.27</ele>
        <time>2020-07-08T09:01:05Z</time>
      </trkpt>
      <trkpt lat="47.77038" lon="-3.54014">
        <ele>20.34</ele>
        <time>2020-07-08T09:01:06Z</time>
      </trkpt>
      <trkpt lat="47.77032" lon="-3.54013">
        <ele>19.69</ele>
        <time>2020-07-08T09:01:07Z</time>
      </trkpt>
      <trkpt lat="47.7703" lon="-3.54016">
        <ele>19.31</ele>
        <time>2020-07-08T09:01:08Z</time>
      </trkpt>
      <trkpt lat="47.77027" lon="-3.54019">
        <ele>19.04</ele>
        <time>2020-07-08T09:01:09Z</time>
      </trkpt>
      <trkpt lat="47.77024" lon="-3.54022">
        <ele>18.86</ele>
        <time>2020-07-08T09:01:10Z</time>
      </trkpt>
      <trkpt lat="47.77021" lon="-3.54026">
        <ele>18.75</ele>
        <time>2020-07-08T09:01:11Z</time>
      </trkpt>
      <trkpt lat="47.77018" lon="-3.54028">
        <ele>18.69</ele>
        <time>2020-07-08T09:01:12Z</time>
      </trkpt>
      <trkpt lat="47.77015" lon="-3.5403">
        <ele>18.62</ele>
        <time>2020-07-08T09:01:13Z</time>
      </trkpt>
      <trkpt lat="47.77011" lon="-3.5403">
        <ele>18.54</ele>
        <time>2020-07-08T09:01:14Z</time>
      </trkpt>
      <trkpt lat="47.77007" lon="-3.5403">
        <ele>18.41</ele>
        <time>2020-07-08T09:01:15Z</time>
      </trkpt>
      <trkpt lat="47.77003" lon="-3.54031">
        <ele>18.27</ele>
        <time>2020-07-08T09:01:16Z</time>
      </trkpt>
      <trkpt lat="47.76999" lon="-3.54031">
        <ele>18.1</ele>
        <time>2020-07-08T09:01:17Z</time>
      </trkpt>
      <trkpt lat="47.76993" lon="-3.54031">
        <ele>17.72</ele>
        <time>2020-07-08T09:01:18Z</time>
      </trkpt>
      <trkpt lat="47.76987" lon="-3.54032">
        <ele>17.3</ele>
        <time>2020-07-08T09:01:19Z</time>
      </trkpt>
      <trkpt lat="47.76981" lon="-3.54033">
        <ele>16.86</ele>
        <time>2020-07-08T09:01:20Z</time>
      </trkpt>
      <trkpt lat="47.76975" lon="-3.54034">
        <ele>16.38</ele>
        <time>2020-07-08T09:01:21Z</time>
      </trkpt>
      <trkpt lat="47.76968" lon="-3.54033">
        <ele>15.94</ele>
        <time>2020-07-08T09:01:22Z</time>
      </trkpt>
      <trkpt lat="47.76962" lon="-3.54031">
        <ele>15.48</ele>
        <time>2020-07-08T09:01:23Z</time>
      </trkpt>
      <trkpt lat="47.76956" lon="-3.54031">
        <ele>15.09</ele>
        <time>2020-07-08T09:01:24Z</time>
      </trkpt>
      <trkpt lat="47.7695" lon="-3.54032">
        <ele>14.7</ele>
        <time>2020-07-08T09:01:25Z</time>
      </trkpt>
      <trkpt lat="47.76944" lon="-3.54035">
        <ele>14.43</ele>
        <time>2020-07-08T09:01:26Z</time>
      </trkpt>
      <trkpt lat="47.76938" lon="-3.54038">
        <ele>14.67</ele>
        <time>2020-07-08T09:01:27Z</time>
      </trkpt>
      <trkpt lat="47.76932" lon="-3.54044">
        <ele>15.06</ele>
        <time>2020-07-08T09:01:28Z</time>
      </trkpt>
      <trkpt lat="47.76928" lon="-3.54049">
        <ele>15.35</ele>
        <time>2020-07-08T09:01:29Z</time>
      </trkpt>
      <trkpt lat="47.76925" lon="-3.54054">
        <ele>15.57</ele>
        <time>2020-07-08T09:01:30Z</time>
      </trkpt>
      <trkpt lat="47.76924" lon="-3.54058">
        <ele>15.75</ele>
        <time>2020-07-08T09:01:31Z</time>
      </trkpt>
      <trkpt lat="47.76923" lon="-3.54062">
        <ele>15.94</ele>
        <time>2020-07-08T09:01:32Z</time>
      </trkpt>
      <trkpt lat="47.76922" lon="-3.54067">
        <ele>16.14</ele>
        <time>2020-07-08T09:01:33Z</time>
      </trkpt>
      <trkpt lat="47.7692" lon="-3.54071">
        <ele>16.34</ele>
        <time>2020-07-08T09:01:34Z</time>
      </trkpt>
      <trkpt lat="47.76919" lon="-3.54076">
        <ele>16.58</ele>
        <time>2020-07-08T09:01:35Z</time>
      </trkpt>
      <trkpt lat="47.76917" lon="-3.5408">
        <ele>16.78</ele>
        <time>2020-07-08T09:01:36Z</time>
      </trkpt>
      <trkpt lat="47.76915" lon="-3.54085">
        <ele>17.07</ele>
        <time>2020-07-08T09:01:37Z</time>
      </trkpt>
      <trkpt lat="47.76913" lon="-3.54088">
        <ele>17.43</ele>
        <time>2020-07-08T09:01:38Z</time>
      </trkpt>
      <trkpt lat="47.7691" lon="-3.54091">
        <ele>17.81</ele>
        <time>2020-07-08T09:01:39Z</time>
      </trkpt>
      <trkpt lat="47.76907" lon="-3.54093">
        <ele>18.16</ele>
        <time>2020-07-08T09:01:40Z</time>
      </trkpt>
      <trkpt lat="47.76904" lon="-3.54095">
        <ele>18.48</ele>
        <time>2020-07-08T09:01:41Z</time>
      </trkpt>
      <trkpt lat="47.76902" lon="-3.54094">
        <ele>18.72</ele>
        <time>2020-07-08T09:01:42Z</time>
      </trkpt>
      <trkpt lat="47.76899" lon="-3.54093">
        <ele>18.96</ele>
        <time>2020-07-08T09:01:43Z</time>
      </trkpt>
      <trkpt lat="47.76897" lon="-3.54093">
        <ele>19.17</ele>
        <time>2020-07-08T09:01:44Z</time>
      </trkpt>
      <trkpt lat="47.76895" lon="-3.54093">
        <ele>19.34</ele>
        <time>2020-07-08T09:01:45Z</time>
      </trkpt>
      <trkpt lat="47.76893" lon="-3.54093">
        <ele>19.53</ele>
        <time>2020-07-08T09:01:46Z</time>
      </trkpt>
      <trkpt lat="47.76891" lon="-3.54094">
        <ele>19.73</ele>
        <time>2020-07-08T09:01:47Z</time>
      </trkpt>
      <trkpt lat="47.76889" lon="-3.54094">
        <ele>19.95</ele>
        <time>2020-07-08T09:01:48Z</time>
      </trkpt>
      <trkpt lat="47.76886" lon="-3.54095">
        <ele>20.22</ele>
        <time>2020-07-08T09:01:49Z</time>
      </trkpt>
      <trkpt lat="47.76884" lon="-3.54094">
        <ele>20.5</ele>
        <time>2020-07-08T09:01:50Z</time>
      </trkpt>
      <trkpt lat="47.76881" lon="-3.54093">
        <ele>20.8</ele>
        <time>2020-07-08T09:01:51Z</time>
      </trkpt>
      <trkpt lat="47.76879" lon="-3.54093">
        <ele>21.11</ele>
        <time>2020-07-08T09:01:52Z</time>
      </trkpt>
      <trkpt lat="47.76876" lon="-3.54093">
        <ele>21.45</ele>
        <time>2020-07-08T09:01:53Z</time>
      </trkpt>
      <trkpt lat="47.76873" lon="-3.54093">
        <ele>21.81</ele>
        <time>2020-07-08T09:01:54Z</time>
      </trkpt>
      <trkpt lat="47.7687" lon="-3.54093">
        <ele>22.16</ele>
        <time>2020-07-08T09:01:55Z</time>
      </trkpt>
      <trkpt lat="47.76866" lon="-3.54094">
        <ele>22.55</ele>
        <time>2020-07-08T09:01:56Z</time>
      </trkpt>
      <trkpt lat="47.76864" lon="-3.54094">
        <ele>22.88</ele>
        <time>2020-07-08T09:01:57Z</time>
      </trkpt>
      <trkpt lat="47.76861" lon="-3.54094">
        <ele>23.22</ele>
        <time>2020-07-08T09:01:58Z</time>
      </trkpt>
      <trkpt lat="47.76859" lon="-3.54094">
        <ele>23.45</ele>
        <time>2020-07-08T09:01:59Z</time>
      </trkpt>
      <trkpt lat="47.76855" lon="-3.54095">
        <ele>23.72</ele>
        <time>2020-07-08T09:02:00Z</time>
      </trkpt>
      <trkpt lat="47.76852" lon="-3.54095">
        <ele>23.96</ele>
        <time>2020-07-08T09:02:01Z</time>
      </trkpt>
      <trkpt lat="47.76849" lon="-3.54096">
        <ele>24.21</ele>
        <time>2020-07-08T09:02:02Z</time>
      </trkpt>
      <trkpt lat="47.76846" lon="-3.54096">
        <ele>24.44</ele>
        <time>2020-07-08T09:02:03Z</time>
      </trkpt>
      <trkpt lat="47.76844" lon="-3.54097">
        <ele>24.64</ele>
        <time>2020-07-08T09:02:04Z</time>
      </trkpt>
      <trkpt lat="47.76841" lon="-3.54096">
        <ele>24.81</ele>
        <time>2020-07-08T09:02:05Z</time>
      </trkpt>
      <trkpt lat="47.76839" lon="-3.54096">
        <ele>24.98</ele>
        <time>2020-07-08T09:02:06Z</time>
      </trkpt>
      <trkpt lat="47.76836" lon="-3.54096">
        <ele>25.19</ele>
        <time>2020-07-08T09:02:07Z</time>
      </trkpt>
      <trkpt lat="47.76833" lon="-3.54096">
        <ele>25.41</ele>
        <time>2020-07-08T09:02:08Z</time>
      </trkpt>
      <trkpt lat="47.7683" lon="-3.54097">
        <ele>25.66</ele>
        <time>2020-07-08T09:02:09Z</time>
      </trkpt>
      <trkpt lat="47.76828" lon="-3.54097">
        <ele>25.89</ele>
        <time>2020-07-08T09:02:10Z</time>
      </trkpt>
      <trkpt lat="47.76826" lon="-3.54098">
        <ele>26.12</ele>
        <time>2020-07-08T09:02:11Z</time>
      </trkpt>
      <trkpt lat="47.76822" lon="-3.54098">
        <ele>26.41</ele>
        <time>2020-07-08T09:02:12Z</time>
      </trkpt>
      <trkpt lat="47.76819" lon="-3.54098">
        <ele>26.69</ele>
        <time>2020-07-08T09:02:13Z</time>
      </trkpt>
      <trkpt lat="47.76816" lon="-3.54099">
        <ele>26.98</ele>
        <time>2020-07-08T09:02:14Z</time>
      </trkpt>
      <trkpt lat="47.76813" lon="-3.54099">
        <ele>27.24</ele>
        <time>2020-07-08T09:02:15Z</time>
      </trkpt>
      <trkpt lat="47.7681" lon="-3.541">
        <ele>27.5</ele>
        <time>2020-07-08T09:02:16Z</time>
      </trkpt>
      <trkpt lat="47.76807" lon="-3.541">
        <ele>27.73</ele>
        <time>2020-07-08T09:02:17Z</time>
      </trkpt>
      <trkpt lat="47.76805" lon="-3.541">
        <ele>27.93</ele>
        <time>2020-07-08T09:02:18Z</time>
      </trkpt>
      <trkpt lat="47.76802" lon="-3.54099">
        <ele>28.03</ele>
        <time>2020-07-08T09:02:19Z</time>
      </trkpt>
      <trkpt lat="47.768" lon="-3.54099">
        <ele>28.1</ele>
        <time>2020-07-08T09:02:20Z</time>
      </trkpt>
      <trkpt lat="47.76797" lon="-3.541">
        <ele>28.16</ele>
        <time>2020-07-08T09:02:21Z</time>
      </trkpt>
      <trkpt lat="47.76794" lon="-3.54101">
        <ele>28.24</ele>
        <time>2020-07-08T09:02:22Z</time>
      </trkpt>
      <trkpt lat="47.7679" lon="-3.54102">
        <ele>28.33</ele>
        <time>2020-07-08T09:02:23Z</time>
      </trkpt>
      <trkpt lat="47.76787" lon="-3.54103">
        <ele>28.43</ele>
        <time>2020-07-08T09:02:24Z</time>
      </trkpt>
      <trkpt lat="47.76784" lon="-3.54103">
        <ele>28.52</ele>
        <time>2020-07-08T09:02:25Z</time>
      </trkpt>
      <trkpt lat="47.76781" lon="-3.54104">
        <ele>28.62</ele>
        <time>2020-07-08T09:02:26Z</time>
      </trkpt>
      <trkpt lat="47.76778" lon="-3.54103">
        <ele>28.68</ele>
        <time>2020-07-08T09:02:27Z</time>
      </trkpt>
      <trkpt lat="47.76774" lon="-3.54103">
        <ele>28.62</ele>
        <time>2020-07-08T09:02:28Z</time>
      </trkpt>
      <trkpt lat="47.7677" lon="-3.54103">
        <ele>28.53</ele>
        <time>2020-07-08T09:02:29Z</time>
      </trkpt>
      <trkpt lat="47.76766" lon="-3.54102">
        <ele>28.43</ele>
        <time>2020-07-08T09:02:30Z</time>
      </trkpt>
      <trkpt lat="47.76762" lon="-3.54102">
        <ele>28.33</ele>
        <time>2020-07-08T09:02:31Z</time>
      </trkpt>
      <trkpt lat="47.76758" lon="-3.54101">
        <ele>28.23</ele>
        <time>2020-07-08T09:02:32Z</time>
      </trkpt>
      <trkpt lat="47.76754" lon="-3.54101">
        <ele>28.14</ele>
        <time>2020-07-08T09:02:33Z</time>
      </trkpt>
      <trkpt lat="47.7675" lon="-3.54101">
        <ele>28.04</ele>
        <time>2020-07-08T09:02:34Z</time>
      </trkpt>
      <trkpt lat="47.76745" lon="-3.54102">
        <ele>28.01</ele>
        <time>2020-07-08T09:02:35Z</time>
      </trkpt>
      <trkpt lat="47.76741" lon="-3.54104">
        <ele>28</ele>
        <time>2020-07-08T09:02:36Z</time>
      </trkpt>
      <trkpt lat="47.76737" lon="-3.54107">
        <ele>28</ele>
        <time>2020-07-08T09:02:37Z</time>
      </trkpt>
      <trkpt lat="47.76733" lon="-3.54111">
        <ele>28</ele>
        <time>2020-07-08T09:02:38Z</time>
      </trkpt>
      <trkpt lat="47.76729" lon="-3.54114">
        <ele>28.02</ele>
        <time>2020-07-08T09:02:39Z</time>
      </trkpt>
      <trkpt lat="47.76725" lon="-3.54118">
        <ele>28.02</ele>
        <time>2020-07-08T09:02:40Z</time>
      </trkpt>
      <trkpt lat="47.7672" lon="-3.54121">
        <ele>27.95</ele>
        <time>2020-07-08T09:02:41Z</time>
      </trkpt>
      <trkpt lat="47.76715" lon="-3.54123">
        <ele>27.81</ele>
        <time>2020-07-08T09:02:42Z</time>
      </trkpt>
      <trkpt lat="47.76711" lon="-3.54123">
        <ele>27.65</ele>
        <time>2020-07-08T09:02:43Z</time>
      </trkpt>
      <trkpt lat="47.76706" lon="-3.54122">
        <ele>27.48</ele>
        <time>2020-07-08T09:02:44Z</time>
      </trkpt>
      <trkpt lat="47.76701" lon="-3.5412">
        <ele>27.31</ele>
        <time>2020-07-08T09:02:45Z</time>
      </trkpt>
      <trkpt lat="47.76696" lon="-3.54119">
        <ele>27.14</ele>
        <time>2020-07-08T09:02:46Z</time>
      </trkpt>
      <trkpt lat="47.76691" lon="-3.54117">
        <ele>26.87</ele>
        <time>2020-07-08T09:02:47Z</time>
      </trkpt>
      <trkpt lat="47.76686" lon="-3.54115">
        <ele>26.54</ele>
        <time>2020-07-08T09:02:48Z</time>
      </trkpt>
      <trkpt lat="47.76681" lon="-3.54113">
        <ele>26.18</ele>
        <time>2020-07-08T09:02:49Z</time>
      </trkpt>
      <trkpt lat="47.76675" lon="-3.54112">
        <ele>25.79</ele>
        <time>2020-07-08T09:02:50Z</time>
      </trkpt>
      <trkpt lat="47.76669" lon="-3.54111">
        <ele>25.36</ele>
        <time>2020-07-08T09:02:51Z</time>
      </trkpt>
      <trkpt lat="47.76663" lon="-3.5411">
        <ele>25.05</ele>
        <time>2020-07-08T09:02:52Z</time>
      </trkpt>
      <trkpt lat="47.76657" lon="-3.54107">
        <ele>24.82</ele>
        <time>2020-07-08T09:02:53Z</time>
      </trkpt>
      <trkpt lat="47.76651" lon="-3.54105">
        <ele>24.61</ele>
        <time>2020-07-08T09:02:54Z</time>
      </trkpt>
      <trkpt lat="47.76644" lon="-3.54102">
        <ele>24.36</ele>
        <time>2020-07-08T09:02:55Z</time>
      </trkpt>
      <trkpt lat="47.76638" lon="-3.54099">
        <ele>24.06</ele>
        <time>2020-07-08T09:02:56Z</time>
      </trkpt>
      <trkpt lat="47.76632" lon="-3.54096">
        <ele>23.66</ele>
        <time>2020-07-08T09:02:57Z</time>
      </trkpt>
      <trkpt lat="47.76625" lon="-3.54093">
        <ele>23.21</ele>
        <time>2020-07-08T09:02:58Z</time>
      </trkpt>
      <trkpt lat="47.76619" lon="-3.5409">
        <ele>22.73</ele>
        <time>2020-07-08T09:02:59Z</time>
      </trkpt>
      <trkpt lat="47.76612" lon="-3.54088">
        <ele>22.25</ele>
        <time>2020-07-08T09:03:00Z</time>
      </trkpt>
      <trkpt lat="47.76605" lon="-3.54087">
        <ele>21.89</ele>
        <time>2020-07-08T09:03:01Z</time>
      </trkpt>
      <trkpt lat="47.76598" lon="-3.54084">
        <ele>21.62</ele>
        <time>2020-07-08T09:03:02Z</time>
      </trkpt>
      <trkpt lat="47.76591" lon="-3.54083">
        <ele>21.38</ele>
        <time>2020-07-08T09:03:03Z</time>
      </trkpt>
      <trkpt lat="47.76583" lon="-3.54082">
        <ele>21.14</ele>
        <time>2020-07-08T09:03:04Z</time>
      </trkpt>
      <trkpt lat="47.76575" lon="-3.54081">
        <ele>20.88</ele>
        <time>2020-07-08T09:03:05Z</time>
      </trkpt>
      <trkpt lat="47.76568" lon="-3.5408">
        <ele>20.61</ele>
        <time>2020-07-08T09:03:06Z</time>
      </trkpt>
      <trkpt lat="47.7656" lon="-3.5408">
        <ele>20.31</ele>
        <time>2020-07-08T09:03:07Z</time>
      </trkpt>
      <trkpt lat="47.76552" lon="-3.54079">
        <ele>20.02</ele>
        <time>2020-07-08T09:03:08Z</time>
      </trkpt>
      <trkpt lat="47.76545" lon="-3.54078">
        <ele>19.74</ele>
        <time>2020-07-08T09:03:09Z</time>
      </trkpt>
      <trkpt lat="47.76537" lon="-3.54077">
        <ele>19.46</ele>
        <time>2020-07-08T09:03:10Z</time>
      </trkpt>
      <trkpt lat="47.7653" lon="-3.54076">
        <ele>19.2</ele>
        <time>2020-07-08T09:03:11Z</time>
      </trkpt>
      <trkpt lat="47.76523" lon="-3.54075">
        <ele>18.98</ele>
        <time>2020-07-08T09:03:12Z</time>
      </trkpt>
      <trkpt lat="47.76516" lon="-3.54075">
        <ele>18.79</ele>
        <time>2020-07-08T09:03:13Z</time>
      </trkpt>
      <trkpt lat="47.7651" lon="-3.54075">
        <ele>18.62</ele>
        <time>2020-07-08T09:03:14Z</time>
      </trkpt>
      <trkpt lat="47.76503" lon="-3.54074">
        <ele>18.47</ele>
        <time>2020-07-08T09:03:15Z</time>
      </trkpt>
      <trkpt lat="47.76497" lon="-3.54074">
        <ele>18.35</ele>
        <time>2020-07-08T09:03:16Z</time>
      </trkpt>
      <trkpt lat="47.76491" lon="-3.54074">
        <ele>18.26</ele>
        <time>2020-07-08T09:03:17Z</time>
      </trkpt>
      <trkpt lat="47.76485" lon="-3.54074">
        <ele>18.19</ele>
        <time>2020-07-08T09:03:18Z</time>
      </trkpt>
      <trkpt lat="47.76479" lon="-3.54074">
        <ele>18.12</ele>
        <time>2020-07-08T09:03:19Z</time>
      </trkpt>
      <trkpt lat="47.76473" lon="-3.54073">
        <ele>18.04</ele>
        <time>2020-07-08T09:03:20Z</time>
      </trkpt>
      <trkpt lat="47.76467" lon="-3.54073">
        <ele>17.88</ele>
        <time>2020-07-08T09:03:21Z</time>
      </trkpt>
      <trkpt lat="47.76461" lon="-3.54073">
        <ele>17.67</ele>
        <time>2020-07-08T09:03:22Z</time>
      </trkpt>
      <trkpt lat="47.76454" lon="-3.54073">
        <ele>17.45</ele>
        <time>2020-07-08T09:03:23Z</time>
      </trkpt>
      <trkpt lat="47.76448" lon="-3.54072">
        <ele>17.23</ele>
        <time>2020-07-08T09:03:24Z</time>
      </trkpt>
      <trkpt lat="47.76442" lon="-3.54071">
        <ele>17.07</ele>
        <time>2020-07-08T09:03:25Z</time>
      </trkpt>
      <trkpt lat="47.76436" lon="-3.5407">
        <ele>17.02</ele>
        <time>2020-07-08T09:03:26Z</time>
      </trkpt>
      <trkpt lat="47.7643" lon="-3.54069">
        <ele>17.01</ele>
        <time>2020-07-08T09:03:27Z</time>
      </trkpt>
      <trkpt lat="47.76424" lon="-3.54068">
        <ele>17</ele>
        <time>2020-07-08T09:03:28Z</time>
      </trkpt>
      <trkpt lat="47.76418" lon="-3.54067">
        <ele>17</ele>
        <time>2020-07-08T09:03:29Z</time>
      </trkpt>
      <trkpt lat="47.76412" lon="-3.54066">
        <ele>16.96</ele>
        <time>2020-07-08T09:03:30Z</time>
      </trkpt>
      <trkpt lat="47.76406" lon="-3.54064">
        <ele>16.91</ele>
        <time>2020-07-08T09:03:31Z</time>
      </trkpt>
      <trkpt lat="47.76401" lon="-3.54061">
        <ele>16.89</ele>
        <time>2020-07-08T09:03:32Z</time>
      </trkpt>
      <trkpt lat="47.76396" lon="-3.54058">
        <ele>16.93</ele>
        <time>2020-07-08T09:03:33Z</time>
      </trkpt>
      <trkpt lat="47.76391" lon="-3.54054">
        <ele>16.97</ele>
        <time>2020-07-08T09:03:34Z</time>
      </trkpt>
      <trkpt lat="47.76387" lon="-3.54049">
        <ele>16.93</ele>
        <time>2020-07-08T09:03:35Z</time>
      </trkpt>
      <trkpt lat="47.76383" lon="-3.54044">
        <ele>16.8</ele>
        <time>2020-07-08T09:03:36Z</time>
      </trkpt>
      <trkpt lat="47.76378" lon="-3.54038">
        <ele>16.73</ele>
        <time>2020-07-08T09:03:37Z</time>
      </trkpt>
      <trkpt lat="47.76373" lon="-3.54033">
        <ele>16.77</ele>
        <time>2020-07-08T09:03:38Z</time>
      </trkpt>
      <trkpt lat="47.76368" lon="-3.54028">
        <ele>16.91</ele>
        <time>2020-07-08T09:03:39Z</time>
      </trkpt>
      <trkpt lat="47.76363" lon="-3.54024">
        <ele>16.97</ele>
        <time>2020-07-08T09:03:40Z</time>
      </trkpt>
      <trkpt lat="47.76358" lon="-3.54019">
        <ele>16.96</ele>
        <time>2020-07-08T09:03:41Z</time>
      </trkpt>
      <trkpt lat="47.76353" lon="-3.54015">
        <ele>16.98</ele>
        <time>2020-07-08T09:03:42Z</time>
      </trkpt>
      <trkpt lat="47.76348" lon="-3.54011">
        <ele>17.07</ele>
        <time>2020-07-08T09:03:43Z</time>
      </trkpt>
      <trkpt lat="47.76344" lon="-3.54007">
        <ele>17.24</ele>
        <time>2020-07-08T09:03:44Z</time>
      </trkpt>
      <trkpt lat="47.7634" lon="-3.54003">
        <ele>17.48</ele>
        <time>2020-07-08T09:03:45Z</time>
      </trkpt>
      <trkpt lat="47.76335" lon="-3.54">
        <ele>17.79</ele>
        <time>2020-07-08T09:03:46Z</time>
      </trkpt>
      <trkpt lat="47.76331" lon="-3.53997">
        <ele>17.5</ele>
        <time>2020-07-08T09:03:47Z</time>
      </trkpt>
      <trkpt lat="47.76325" lon="-3.53994">
        <ele>16.81</ele>
        <time>2020-07-08T09:03:48Z</time>
      </trkpt>
      <trkpt lat="47.76321" lon="-3.53991">
        <ele>16.22</ele>
        <time>2020-07-08T09:03:49Z</time>
      </trkpt>
      <trkpt lat="47.76316" lon="-3.53988">
        <ele>15.86</ele>
        <time>2020-07-08T09:03:50Z</time>
      </trkpt>
      <trkpt lat="47.76311" lon="-3.53985">
        <ele>15.79</ele>
        <time>2020-07-08T09:03:51Z</time>
      </trkpt>
      <trkpt lat="47.76308" lon="-3.53982">
        <ele>16.13</ele>
        <time>2020-07-08T09:03:52Z</time>
      </trkpt>
      <trkpt lat="47.76305" lon="-3.53979">
        <ele>16.53</ele>
        <time>2020-07-08T09:03:53Z</time>
      </trkpt>
      <trkpt lat="47.76303" lon="-3.53976">
        <ele>16.56</ele>
        <time>2020-07-08T09:03:54Z</time>
      </trkpt>
      <trkpt lat="47.76301" lon="-3.53974">
        <ele>16.7</ele>
        <time>2020-07-08T09:03:55Z</time>
      </trkpt>
      <trkpt lat="47.76299" lon="-3.5397">
        <ele>16.43</ele>
        <time>2020-07-08T09:03:56Z</time>
      </trkpt>
      <trkpt lat="47.76297" lon="-3.53965">
        <ele>15.69</ele>
        <time>2020-07-08T09:03:57Z</time>
      </trkpt>
      <trkpt lat="47.76294" lon="-3.5396">
        <ele>14.61</ele>
        <time>2020-07-08T09:03:58Z</time>
      </trkpt>
      <trkpt lat="47.76291" lon="-3.53955">
        <ele>13.28</ele>
        <time>2020-07-08T09:03:59Z</time>
      </trkpt>
      <trkpt lat="47.76288" lon="-3.5395">
        <ele>11.88</ele>
        <time>2020-07-08T09:04:00Z</time>
      </trkpt>
      <trkpt lat="47.76285" lon="-3.53944">
        <ele>10.54</ele>
        <time>2020-07-08T09:04:01Z</time>
      </trkpt>
      <trkpt lat="47.76283" lon="-3.53938">
        <ele>9.4</ele>
        <time>2020-07-08T09:04:02Z</time>
      </trkpt>
      <trkpt lat="47.76284" lon="-3.53932">
        <ele>8.86</ele>
        <time>2020-07-08T09:04:03Z</time>
      </trkpt>
      <trkpt lat="47.76285" lon="-3.53925">
        <ele>8.75</ele>
        <time>2020-07-08T09:04:04Z</time>
      </trkpt>
      <trkpt lat="47.76288" lon="-3.53918">
        <ele>8.9</ele>
        <time>2020-07-08T09:04:05Z</time>
      </trkpt>
      <trkpt lat="47.76291" lon="-3.53912">
        <ele>9.47</ele>
        <time>2020-07-08T09:04:06Z</time>
      </trkpt>
      <trkpt lat="47.76294" lon="-3.53906">
        <ele>10.24</ele>
        <time>2020-07-08T09:04:07Z</time>
      </trkpt>
      <trkpt lat="47.76296" lon="-3.539">
        <ele>10.94</ele>
        <time>2020-07-08T09:04:08Z</time>
      </trkpt>
      <trkpt lat="47.76297" lon="-3.53895">
        <ele>11.29</ele>
        <time>2020-07-08T09:04:09Z</time>
      </trkpt>
      <trkpt lat="47.76296" lon="-3.53889">
        <ele>10.88</ele>
        <time>2020-07-08T09:04:10Z</time>
      </trkpt>
      <trkpt lat="47.76294" lon="-3.53883">
        <ele>9.75</ele>
        <time>2020-07-08T09:04:11Z</time>
      </trkpt>
      <trkpt lat="47.76292" lon="-3.53875">
        <ele>8.45</ele>
        <time>2020-07-08T09:04:12Z</time>
      </trkpt>
      <trkpt lat="47.76291" lon="-3.53868">
        <ele>7.62</ele>
        <time>2020-07-08T09:04:13Z</time>
      </trkpt>
      <trkpt lat="47.76292" lon="-3.53861">
        <ele>7.31</ele>
        <time>2020-07-08T09:04:14Z</time>
      </trkpt>
      <trkpt lat="47.76294" lon="-3.53854">
        <ele>6.89</ele>
        <time>2020-07-08T09:04:15Z</time>
      </trkpt>
      <trkpt lat="47.76296" lon="-3.53847">
        <ele>6.47</ele>
        <time>2020-07-08T09:04:16Z</time>
      </trkpt>
      <trkpt lat="47.76298" lon="-3.53841">
        <ele>5.93</ele>
        <time>2020-07-08T09:04:17Z</time>
      </trkpt>
      <trkpt lat="47.763" lon="-3.53834">
        <ele>5.25</ele>
        <time>2020-07-08T09:04:18Z</time>
      </trkpt>
      <trkpt lat="47.76303" lon="-3.53828">
        <ele>4.65</ele>
        <time>2020-07-08T09:04:19Z</time>
      </trkpt>
      <trkpt lat="47.76306" lon="-3.53824">
        <ele>4.23</ele>
        <time>2020-07-08T09:04:20Z</time>
      </trkpt>
      <trkpt lat="47.7631" lon="-3.5382">
        <ele>4.56</ele>
        <time>2020-07-08T09:04:21Z</time>
      </trkpt>
      <trkpt lat="47.76314" lon="-3.53817">
        <ele>5.41</ele>
        <time>2020-07-08T09:04:22Z</time>
      </trkpt>
      <trkpt lat="47.76318" lon="-3.53814">
        <ele>6.6</ele>
        <time>2020-07-08T09:04:23Z</time>
      </trkpt>
      <trkpt lat="47.76322" lon="-3.53814">
        <ele>8.21</ele>
        <time>2020-07-08T09:04:24Z</time>
      </trkpt>
      <trkpt lat="47.76327" lon="-3.53814">
        <ele>10.03</ele>
        <time>2020-07-08T09:04:25Z</time>
      </trkpt>
      <trkpt lat="47.76332" lon="-3.53814">
        <ele>12.05</ele>
        <time>2020-07-08T09:04:26Z</time>
      </trkpt>
      <trkpt lat="47.76337" lon="-3.53814">
        <ele>12.4</ele>
        <time>2020-07-08T09:04:27Z</time>
      </trkpt>
      <trkpt lat="47.76342" lon="-3.53814">
        <ele>11.28</ele>
        <time>2020-07-08T09:04:28Z</time>
      </trkpt>
      <trkpt lat="47.76348" lon="-3.53814">
        <ele>9.83</ele>
        <time>2020-07-08T09:04:29Z</time>
      </trkpt>
      <trkpt lat="47.76353" lon="-3.53816">
        <ele>8.58</ele>
        <time>2020-07-08T09:04:30Z</time>
      </trkpt>
      <trkpt lat="47.76357" lon="-3.53821">
        <ele>8.07</ele>
        <time>2020-07-08T09:04:31Z</time>
      </trkpt>
      <trkpt lat="47.76361" lon="-3.53826">
        <ele>8.22</ele>
        <time>2020-07-08T09:04:32Z</time>
      </trkpt>
      <trkpt lat="47.76363" lon="-3.53832">
        <ele>8.69</ele>
        <time>2020-07-08T09:04:33Z</time>
      </trkpt>
      <trkpt lat="47.76365" lon="-3.53837">
        <ele>9.02</ele>
        <time>2020-07-08T09:04:34Z</time>
      </trkpt>
      <trkpt lat="47.76367" lon="-3.53841">
        <ele>9.31</ele>
        <time>2020-07-08T09:04:35Z</time>
      </trkpt>
      <trkpt lat="47.76369" lon="-3.53844">
        <ele>9.42</ele>
        <time>2020-07-08T09:04:36Z</time>
      </trkpt>
      <trkpt lat="47.76371" lon="-3.53847">
        <ele>9.42</ele>
        <time>2020-07-08T09:04:37Z</time>
      </trkpt>
      <trkpt lat="47.76373" lon="-3.5385">
        <ele>9.43</ele>
        <time>2020-07-08T09:04:38Z</time>
      </trkpt>
      <trkpt lat="47.76375" lon="-3.53854">
        <ele>9.42</ele>
        <time>2020-07-08T09:04:39Z</time>
      </trkpt>
      <trkpt lat="47.76378" lon="-3.53857">
        <ele>9.34</ele>
        <time>2020-07-08T09:04:40Z</time>
      </trkpt>
      <trkpt lat="47.76381" lon="-3.5386">
        <ele>9.03</ele>
        <time>2020-07-08T09:04:41Z</time>
      </trkpt>
      <trkpt lat="47.76385" lon="-3.53862">
        <ele>8.59</ele>
        <time>2020-07-08T09:04:42Z</time>
      </trkpt>
      <trkpt lat="47.76388" lon="-3.53864">
        <ele>7.97</ele>
        <time>2020-07-08T09:04:43Z</time>
      </trkpt>
      <trkpt lat="47.76392" lon="-3.53864">
        <ele>7.61</ele>
        <time>2020-07-08T09:04:44Z</time>
      </trkpt>
      <trkpt lat="47.76397" lon="-3.53863">
        <ele>7.11</ele>
        <time>2020-07-08T09:04:45Z</time>
      </trkpt>
      <trkpt lat="47.76401" lon="-3.53862">
        <ele>6.51</ele>
        <time>2020-07-08T09:04:46Z</time>
      </trkpt>
      <trkpt lat="47.76406" lon="-3.53862">
        <ele>6.09</ele>
        <time>2020-07-08T09:04:47Z</time>
      </trkpt>
      <trkpt lat="47.76411" lon="-3.53863">
        <ele>6.01</ele>
        <time>2020-07-08T09:04:48Z</time>
      </trkpt>
      <trkpt lat="47.76416" lon="-3.53865">
        <ele>6.14</ele>
        <time>2020-07-08T09:04:49Z</time>
      </trkpt>
      <trkpt lat="47.76421" lon="-3.53867">
        <ele>6.44</ele>
        <time>2020-07-08T09:04:50Z</time>
      </trkpt>
      <trkpt lat="47.76426" lon="-3.5387">
        <ele>6.91</ele>
        <time>2020-07-08T09:04:51Z</time>
      </trkpt>
      <trkpt lat="47.76431" lon="-3.53873">
        <ele>7.51</ele>
        <time>2020-07-08T09:04:52Z</time>
      </trkpt>
      <trkpt lat="47.76436" lon="-3.53875">
        <ele>8.08</ele>
        <time>2020-07-08T09:04:53Z</time>
      </trkpt>
      <trkpt lat="47.7644" lon="-3.53877">
        <ele>8.54</ele>
        <time>2020-07-08T09:04:54Z</time>
      </trkpt>
      <trkpt lat="47.76444" lon="-3.53877">
        <ele>8.61</ele>
        <time>2020-07-08T09:04:55Z</time>
      </trkpt>
      <trkpt lat="47.76447" lon="-3.53876">
        <ele>8.64</ele>
        <time>2020-07-08T09:04:56Z</time>
      </trkpt>
      <trkpt lat="47.7645" lon="-3.53871">
        <ele>8.29</ele>
        <time>2020-07-08T09:04:57Z</time>
      </trkpt>
      <trkpt lat="47.76453" lon="-3.53867">
        <ele>7.79</ele>
        <time>2020-07-08T09:04:58Z</time>
      </trkpt>
      <trkpt lat="47.76455" lon="-3.53862">
        <ele>7.33</ele>
        <time>2020-07-08T09:04:59Z</time>
      </trkpt>
      <trkpt lat="47.76457" lon="-3.53858">
        <ele>7.32</ele>
        <time>2020-07-08T09:05:00Z</time>
      </trkpt>
      <trkpt lat="47.7646" lon="-3.53857">
        <ele>7.7</ele>
        <time>2020-07-08T09:05:01Z</time>
      </trkpt>
      <trkpt lat="47.76464" lon="-3.53857">
        <ele>8.55</ele>
        <time>2020-07-08T09:05:02Z</time>
      </trkpt>
      <trkpt lat="47.76468" lon="-3.53859">
        <ele>9.78</ele>
        <time>2020-07-08T09:05:03Z</time>
      </trkpt>
      <trkpt lat="47.76472" lon="-3.53862">
        <ele>11.26</ele>
        <time>2020-07-08T09:05:04Z</time>
      </trkpt>
      <trkpt lat="47.76476" lon="-3.53866">
        <ele>11.64</ele>
        <time>2020-07-08T09:05:05Z</time>
      </trkpt>
      <trkpt lat="47.76481" lon="-3.53868">
        <ele>11.44</ele>
        <time>2020-07-08T09:05:06Z</time>
      </trkpt>
      <trkpt lat="47.76485" lon="-3.53868">
        <ele>10.97</ele>
        <time>2020-07-08T09:05:07Z</time>
      </trkpt>
      <trkpt lat="47.7649" lon="-3.53867">
        <ele>10.22</ele>
        <time>2020-07-08T09:05:08Z</time>
      </trkpt>
      <trkpt lat="47.76494" lon="-3.53864">
        <ele>9.04</ele>
        <time>2020-07-08T09:05:09Z</time>
      </trkpt>
      <trkpt lat="47.76498" lon="-3.5386">
        <ele>7.58</ele>
        <time>2020-07-08T09:05:10Z</time>
      </trkpt>
      <trkpt lat="47.76502" lon="-3.53855">
        <ele>6.75</ele>
        <time>2020-07-08T09:05:11Z</time>
      </trkpt>
      <trkpt lat="47.76506" lon="-3.5385">
        <ele>6.67</ele>
        <time>2020-07-08T09:05:12Z</time>
      </trkpt>
      <trkpt lat="47.7651" lon="-3.53844">
        <ele>6.88</ele>
        <time>2020-07-08T09:05:13Z</time>
      </trkpt>
      <trkpt lat="47.76513" lon="-3.53838">
        <ele>7.1</ele>
        <time>2020-07-08T09:05:14Z</time>
      </trkpt>
      <trkpt lat="47.76515" lon="-3.53832">
        <ele>7.39</ele>
        <time>2020-07-08T09:05:15Z</time>
      </trkpt>
      <trkpt lat="47.76519" lon="-3.53827">
        <ele>7.76</ele>
        <time>2020-07-08T09:05:16Z</time>
      </trkpt>
      <trkpt lat="47.76523" lon="-3.53823">
        <ele>8.3</ele>
        <time>2020-07-08T09:05:17Z</time>
      </trkpt>
      <trkpt lat="47.76527" lon="-3.53818">
        <ele>8.78</ele>
        <time>2020-07-08T09:05:18Z</time>
      </trkpt>
      <trkpt lat="47.76531" lon="-3.53812">
        <ele>8.07</ele>
        <time>2020-07-08T09:05:19Z</time>
      </trkpt>
      <trkpt lat="47.76535" lon="-3.53807">
        <ele>6.8</ele>
        <time>2020-07-08T09:05:20Z</time>
      </trkpt>
      <trkpt lat="47.76539" lon="-3.53802">
        <ele>5.75</ele>
        <time>2020-07-08T09:05:21Z</time>
      </trkpt>
      <trkpt lat="47.76543" lon="-3.53802">
        <ele>5.39</ele>
        <time>2020-07-08T09:05:22Z</time>
      </trkpt>
      <trkpt lat="47.76548" lon="-3.53805">
        <ele>5.68</ele>
        <time>2020-07-08T09:05:23Z</time>
      </trkpt>
      <trkpt lat="47.76552" lon="-3.53806">
        <ele>6.08</ele>
        <time>2020-07-08T09:05:24Z</time>
      </trkpt>
      <trkpt lat="47.76556" lon="-3.53807">
        <ele>6.41</ele>
        <time>2020-07-08T09:05:25Z</time>
      </trkpt>
      <trkpt lat="47.7656" lon="-3.53805">
        <ele>7.04</ele>
        <time>2020-07-08T09:05:26Z</time>
      </trkpt>
      <trkpt lat="47.76563" lon="-3.53801">
        <ele>7.16</ele>
        <time>2020-07-08T09:05:27Z</time>
      </trkpt>
      <trkpt lat="47.76565" lon="-3.53796">
        <ele>6.9</ele>
        <time>2020-07-08T09:05:28Z</time>
      </trkpt>
      <trkpt lat="47.76568" lon="-3.53791">
        <ele>6.43</ele>
        <time>2020-07-08T09:05:29Z</time>
      </trkpt>
      <trkpt lat="47.76571" lon="-3.53787">
        <ele>5.98</ele>
        <time>2020-07-08T09:05:30Z</time>
      </trkpt>
      <trkpt lat="47.76575" lon="-3.53783">
        <ele>5.84</ele>
        <time>2020-07-08T09:05:31Z</time>
      </trkpt>
      <trkpt lat="47.76579" lon="-3.53781">
        <ele>6.04</ele>
        <time>2020-07-08T09:05:32Z</time>
      </trkpt>
      <trkpt lat="47.76584" lon="-3.53779">
        <ele>6.44</ele>
        <time>2020-07-08T09:05:33Z</time>
      </trkpt>
      <trkpt lat="47.76588" lon="-3.53778">
        <ele>6.85</ele>
        <time>2020-07-08T09:05:34Z</time>
      </trkpt>
      <trkpt lat="47.76593" lon="-3.53776">
        <ele>7.4</ele>
        <time>2020-07-08T09:05:35Z</time>
      </trkpt>
      <trkpt lat="47.76597" lon="-3.53774">
        <ele>7.92</ele>
        <time>2020-07-08T09:05:36Z</time>
      </trkpt>
      <trkpt lat="47.76601" lon="-3.53769">
        <ele>8.19</ele>
        <time>2020-07-08T09:05:37Z</time>
      </trkpt>
      <trkpt lat="47.76605" lon="-3.53764">
        <ele>8.2</ele>
        <time>2020-07-08T09:05:38Z</time>
      </trkpt>
      <trkpt lat="47.76609" lon="-3.53758">
        <ele>7.98</ele>
        <time>2020-07-08T09:05:39Z</time>
      </trkpt>
      <trkpt lat="47.76611" lon="-3.53752">
        <ele>7.52</ele>
        <time>2020-07-08T09:05:40Z</time>
      </trkpt>
      <trkpt lat="47.76613" lon="-3.53745">
        <ele>7.37</ele>
        <time>2020-07-08T09:05:41Z</time>
      </trkpt>
      <trkpt lat="47.76613" lon="-3.53737">
        <ele>7.11</ele>
        <time>2020-07-08T09:05:42Z</time>
      </trkpt>
      <trkpt lat="47.76613" lon="-3.5373">
        <ele>6.63</ele>
        <time>2020-07-08T09:05:43Z</time>
      </trkpt>
      <trkpt lat="47.76612" lon="-3.53722">
        <ele>5.85</ele>
        <time>2020-07-08T09:05:44Z</time>
      </trkpt>
      <trkpt lat="47.76613" lon="-3.53715">
        <ele>5.4</ele>
        <time>2020-07-08T09:05:45Z</time>
      </trkpt>
      <trkpt lat="47.76614" lon="-3.53708">
        <ele>5.45</ele>
        <time>2020-07-08T09:05:46Z</time>
      </trkpt>
      <trkpt lat="47.76617" lon="-3.53701">
        <ele>5.92</ele>
        <time>2020-07-08T09:05:47Z</time>
      </trkpt>
      <trkpt lat="47.7662" lon="-3.53694">
        <ele>6.65</ele>
        <time>2020-07-08T09:05:48Z</time>
      </trkpt>
      <trkpt lat="47.76623" lon="-3.53688">
        <ele>7.32</ele>
        <time>2020-07-08T09:05:49Z</time>
      </trkpt>
      <trkpt lat="47.76626" lon="-3.53682">
        <ele>7.93</ele>
        <time>2020-07-08T09:05:50Z</time>
      </trkpt>
      <trkpt lat="47.76628" lon="-3.53676">
        <ele>8.27</ele>
        <time>2020-07-08T09:05:51Z</time>
      </trkpt>
      <trkpt lat="47.76629" lon="-3.53668">
        <ele>8.29</ele>
        <time>2020-07-08T09:05:52Z</time>
      </trkpt>
      <trkpt lat="47.76631" lon="-3.5366">
        <ele>8.33</ele>
        <time>2020-07-08T09:05:53Z</time>
      </trkpt>
      <trkpt lat="47.76632" lon="-3.53653">
        <ele>8.36</ele>
        <time>2020-07-08T09:05:54Z</time>
      </trkpt>
      <trkpt lat="47.76633" lon="-3.53645">
        <ele>8.37</ele>
        <time>2020-07-08T09:05:55Z</time>
      </trkpt>
      <trkpt lat="47.76634" lon="-3.53637">
        <ele>8.26</ele>
        <time>2020-07-08T09:05:56Z</time>
      </trkpt>
      <trkpt lat="47.76636" lon="-3.53629">
        <ele>8.25</ele>
        <time>2020-07-08T09:05:57Z</time>
      </trkpt>
      <trkpt lat="47.76637" lon="-3.5362">
        <ele>8.05</ele>
        <time>2020-07-08T09:05:58Z</time>
      </trkpt>
      <trkpt lat="47.76638" lon="-3.53612">
        <ele>7.9</ele>
        <time>2020-07-08T09:05:59Z</time>
      </trkpt>
      <trkpt lat="47.7664" lon="-3.53604">
        <ele>8.01</ele>
        <time>2020-07-08T09:06:00Z</time>
      </trkpt>
      <trkpt lat="47.76642" lon="-3.53595">
        <ele>8.33</ele>
        <time>2020-07-08T09:06:01Z</time>
      </trkpt>
      <trkpt lat="47.76643" lon="-3.53587">
        <ele>8.77</ele>
        <time>2020-07-08T09:06:02Z</time>
      </trkpt>
      <trkpt lat="47.76645" lon="-3.53578">
        <ele>9.12</ele>
        <time>2020-07-08T09:06:03Z</time>
      </trkpt>
      <trkpt lat="47.76646" lon="-3.5357">
        <ele>9.22</ele>
        <time>2020-07-08T09:06:04Z</time>
      </trkpt>
      <trkpt lat="47.76647" lon="-3.53561">
        <ele>9.2</ele>
        <time>2020-07-08T09:06:05Z</time>
      </trkpt>
      <trkpt lat="47.76647" lon="-3.53552">
        <ele>9.25</ele>
        <time>2020-07-08T09:06:06Z</time>
      </trkpt>
      <trkpt lat="47.76648" lon="-3.53543">
        <ele>9.76</ele>
        <time>2020-07-08T09:06:07Z</time>
      </trkpt>
      <trkpt lat="47.7665" lon="-3.53535">
        <ele>10.35</ele>
        <time>2020-07-08T09:06:08Z</time>
      </trkpt>
      <trkpt lat="47.76653" lon="-3.53527">
        <ele>10.7</ele>
        <time>2020-07-08T09:06:09Z</time>
      </trkpt>
      <trkpt lat="47.76656" lon="-3.53522">
        <ele>9.91</ele>
        <time>2020-07-08T09:06:10Z</time>
      </trkpt>
      <trkpt lat="47.76661" lon="-3.53519">
        <ele>9.32</ele>
        <time>2020-07-08T09:06:11Z</time>
      </trkpt>
      <trkpt lat="47.76665" lon="-3.53517">
        <ele>8.83</ele>
        <time>2020-07-08T09:06:12Z</time>
      </trkpt>
      <trkpt lat="47.76668" lon="-3.53514">
        <ele>8.57</ele>
        <time>2020-07-08T09:06:13Z</time>
      </trkpt>
      <trkpt lat="47.7667" lon="-3.53511">
        <ele>8.44</ele>
        <time>2020-07-08T09:06:14Z</time>
      </trkpt>
      <trkpt lat="47.76672" lon="-3.53507">
        <ele>8.22</ele>
        <time>2020-07-08T09:06:15Z</time>
      </trkpt>
      <trkpt lat="47.76674" lon="-3.53503">
        <ele>7.87</ele>
        <time>2020-07-08T09:06:16Z</time>
      </trkpt>
      <trkpt lat="47.76674" lon="-3.53497">
        <ele>7.47</ele>
        <time>2020-07-08T09:06:17Z</time>
      </trkpt>
      <trkpt lat="47.76675" lon="-3.53491">
        <ele>7.47</ele>
        <time>2020-07-08T09:06:18Z</time>
      </trkpt>
      <trkpt lat="47.76676" lon="-3.53485">
        <ele>7.73</ele>
        <time>2020-07-08T09:06:19Z</time>
      </trkpt>
      <trkpt lat="47.76678" lon="-3.53479">
        <ele>8.1</ele>
        <time>2020-07-08T09:06:20Z</time>
      </trkpt>
      <trkpt lat="47.7668" lon="-3.53474">
        <ele>8.62</ele>
        <time>2020-07-08T09:06:21Z</time>
      </trkpt>
      <trkpt lat="47.76683" lon="-3.53469">
        <ele>8.9</ele>
        <time>2020-07-08T09:06:22Z</time>
      </trkpt>
      <trkpt lat="47.76686" lon="-3.53465">
        <ele>8.93</ele>
        <time>2020-07-08T09:06:23Z</time>
      </trkpt>
      <trkpt lat="47.76689" lon="-3.53462">
        <ele>8.97</ele>
        <time>2020-07-08T09:06:24Z</time>
      </trkpt>
      <trkpt lat="47.76692" lon="-3.53461">
        <ele>9.39</ele>
        <time>2020-07-08T09:06:25Z</time>
      </trkpt>
      <trkpt lat="47.76695" lon="-3.53461">
        <ele>10.04</ele>
        <time>2020-07-08T09:06:26Z</time>
      </trkpt>
      <trkpt lat="47.76699" lon="-3.5346">
        <ele>10.31</ele>
        <time>2020-07-08T09:06:27Z</time>
      </trkpt>
      <trkpt lat="47.76702" lon="-3.5346">
        <ele>10.46</ele>
        <time>2020-07-08T09:06:28Z</time>
      </trkpt>
      <trkpt lat="47.76705" lon="-3.53458">
        <ele>10.36</ele>
        <time>2020-07-08T09:06:29Z</time>
      </trkpt>
      <trkpt lat="47.76708" lon="-3.53455">
        <ele>10.2</ele>
        <time>2020-07-08T09:06:30Z</time>
      </trkpt>
      <trkpt lat="47.76712" lon="-3.53451">
        <ele>10.08</ele>
        <time>2020-07-08T09:06:31Z</time>
      </trkpt>
      <trkpt lat="47.76715" lon="-3.53447">
        <ele>10</ele>
        <time>2020-07-08T09:06:32Z</time>
      </trkpt>
      <trkpt lat="47.76718" lon="-3.5344">
        <ele>10.09</ele>
        <time>2020-07-08T09:06:33Z</time>
      </trkpt>
      <trkpt lat="47.76719" lon="-3.53433">
        <ele>10.12</ele>
        <time>2020-07-08T09:06:34Z</time>
      </trkpt>
      <trkpt lat="47.76718" lon="-3.53426">
        <ele>9.85</ele>
        <time>2020-07-08T09:06:35Z</time>
      </trkpt>
      <trkpt lat="47.76716" lon="-3.53419">
        <ele>9.1</ele>
        <time>2020-07-08T09:06:36Z</time>
      </trkpt>
      <trkpt lat="47.76713" lon="-3.53412">
        <ele>7.91</ele>
        <time>2020-07-08T09:06:37Z</time>
      </trkpt>
      <trkpt lat="47.76711" lon="-3.53406">
        <ele>6.6</ele>
        <time>2020-07-08T09:06:38Z</time>
      </trkpt>
      <trkpt lat="47.7671" lon="-3.53399">
        <ele>5.58</ele>
        <time>2020-07-08T09:06:39Z</time>
      </trkpt>
      <trkpt lat="47.7671" lon="-3.53393">
        <ele>5</ele>
        <time>2020-07-08T09:06:40Z</time>
      </trkpt>
      <trkpt lat="47.76712" lon="-3.53385">
        <ele>5.1</ele>
        <time>2020-07-08T09:06:41Z</time>
      </trkpt>
      <trkpt lat="47.76715" lon="-3.53378">
        <ele>5.8</ele>
        <time>2020-07-08T09:06:42Z</time>
      </trkpt>
      <trkpt lat="47.76717" lon="-3.53372">
        <ele>6.71</ele>
        <time>2020-07-08T09:06:43Z</time>
      </trkpt>
      <trkpt lat="47.7672" lon="-3.53367">
        <ele>7.64</ele>
        <time>2020-07-08T09:06:44Z</time>
      </trkpt>
      <trkpt lat="47.76723" lon="-3.53365">
        <ele>8.56</ele>
        <time>2020-07-08T09:06:45Z</time>
      </trkpt>
      <trkpt lat="47.76726" lon="-3.53365">
        <ele>9.13</ele>
        <time>2020-07-08T09:06:46Z</time>
      </trkpt>
      <trkpt lat="47.7673" lon="-3.53366">
        <ele>9.63</ele>
        <time>2020-07-08T09:06:47Z</time>
      </trkpt>
      <trkpt lat="47.76734" lon="-3.53369">
        <ele>10.15</ele>
        <time>2020-07-08T09:06:48Z</time>
      </trkpt>
      <trkpt lat="47.76738" lon="-3.53371">
        <ele>10.71</ele>
        <time>2020-07-08T09:06:49Z</time>
      </trkpt>
      <trkpt lat="47.76741" lon="-3.53373">
        <ele>11.28</ele>
        <time>2020-07-08T09:06:50Z</time>
      </trkpt>
      <trkpt lat="47.76745" lon="-3.53375">
        <ele>11.93</ele>
        <time>2020-07-08T09:06:51Z</time>
      </trkpt>
      <trkpt lat="47.76748" lon="-3.53378">
        <ele>12.58</ele>
        <time>2020-07-08T09:06:52Z</time>
      </trkpt>
      <trkpt lat="47.76751" lon="-3.5338">
        <ele>13.17</ele>
        <time>2020-07-08T09:06:53Z</time>
      </trkpt>
      <trkpt lat="47.76755" lon="-3.53382">
        <ele>13.51</ele>
        <time>2020-07-08T09:06:54Z</time>
      </trkpt>
      <trkpt lat="47.76758" lon="-3.53382">
        <ele>13.71</ele>
        <time>2020-07-08T09:06:55Z</time>
      </trkpt>
      <trkpt lat="47.76761" lon="-3.53382">
        <ele>13.85</ele>
        <time>2020-07-08T09:06:56Z</time>
      </trkpt>
      <trkpt lat="47.76764" lon="-3.53382">
        <ele>14</ele>
        <time>2020-07-08T09:06:57Z</time>
      </trkpt>
      <trkpt lat="47.76768" lon="-3.53383">
        <ele>14.16</ele>
        <time>2020-07-08T09:06:58Z</time>
      </trkpt>
      <trkpt lat="47.76772" lon="-3.53384">
        <ele>14.37</ele>
        <time>2020-07-08T09:06:59Z</time>
      </trkpt>
      <trkpt lat="47.76776" lon="-3.53386">
        <ele>14.64</ele>
        <time>2020-07-08T09:07:00Z</time>
      </trkpt>
      <trkpt lat="47.7678" lon="-3.53389">
        <ele>14.89</ele>
        <time>2020-07-08T09:07:01Z</time>
      </trkpt>
      <trkpt lat="47.76784" lon="-3.53391">
        <ele>15.02</ele>
        <time>2020-07-08T09:07:02Z</time>
      </trkpt>
      <trkpt lat="47.76789" lon="-3.53393">
        <ele>15.12</ele>
        <time>2020-07-08T09:07:03Z</time>
      </trkpt>
      <trkpt lat="47.76793" lon="-3.53396">
        <ele>15.21</ele>
        <time>2020-07-08T09:07:04Z</time>
      </trkpt>
      <trkpt lat="47.76797" lon="-3.53398">
        <ele>15.29</ele>
        <time>2020-07-08T09:07:05Z</time>
      </trkpt>
      <trkpt lat="47.76801" lon="-3.534">
        <ele>15.38</ele>
        <time>2020-07-08T09:07:06Z</time>
      </trkpt>
      <trkpt lat="47.76805" lon="-3.53402">
        <ele>15.45</ele>
        <time>2020-07-08T09:07:07Z</time>
      </trkpt>
      <trkpt lat="47.76808" lon="-3.53404">
        <ele>15.45</ele>
        <time>2020-07-08T09:07:08Z</time>
      </trkpt>
      <trkpt lat="47.7681" lon="-3.53404">
        <ele>15.38</ele>
        <time>2020-07-08T09:07:09Z</time>
      </trkpt>
      <trkpt lat="47.76813" lon="-3.53402">
        <ele>15.26</ele>
        <time>2020-07-08T09:07:10Z</time>
      </trkpt>
      <trkpt lat="47.76815" lon="-3.53398">
        <ele>15.07</ele>
        <time>2020-07-08T09:07:11Z</time>
      </trkpt>
      <trkpt lat="47.76816" lon="-3.53394">
        <ele>14.88</ele>
        <time>2020-07-08T09:07:12Z</time>
      </trkpt>
      <trkpt lat="47.76816" lon="-3.53388">
        <ele>14.67</ele>
        <time>2020-07-08T09:07:13Z</time>
      </trkpt>
      <trkpt lat="47.76817" lon="-3.53382">
        <ele>14.3</ele>
        <time>2020-07-08T09:07:14Z</time>
      </trkpt>
      <trkpt lat="47.76817" lon="-3.53376">
        <ele>13.86</ele>
        <time>2020-07-08T09:07:15Z</time>
      </trkpt>
      <trkpt lat="47.76818" lon="-3.53369">
        <ele>13.36</ele>
        <time>2020-07-08T09:07:16Z</time>
      </trkpt>
      <trkpt lat="47.76819" lon="-3.53361">
        <ele>12.78</ele>
        <time>2020-07-08T09:07:17Z</time>
      </trkpt>
      <trkpt lat="47.7682" lon="-3.53353">
        <ele>12.17</ele>
        <time>2020-07-08T09:07:18Z</time>
      </trkpt>
      <trkpt lat="47.76822" lon="-3.53344">
        <ele>11.47</ele>
        <time>2020-07-08T09:07:19Z</time>
      </trkpt>
      <trkpt lat="47.76824" lon="-3.53336">
        <ele>10.81</ele>
        <time>2020-07-08T09:07:20Z</time>
      </trkpt>
      <trkpt lat="47.76826" lon="-3.53327">
        <ele>10.27</ele>
        <time>2020-07-08T09:07:21Z</time>
      </trkpt>
      <trkpt lat="47.76829" lon="-3.5332">
        <ele>9.87</ele>
        <time>2020-07-08T09:07:22Z</time>
      </trkpt>
      <trkpt lat="47.76831" lon="-3.53315">
        <ele>9.55</ele>
        <time>2020-07-08T09:07:23Z</time>
      </trkpt>
      <trkpt lat="47.76833" lon="-3.53308">
        <ele>9.25</ele>
        <time>2020-07-08T09:07:24Z</time>
      </trkpt>
      <trkpt lat="47.76833" lon="-3.53303">
        <ele>8.94</ele>
        <time>2020-07-08T09:07:25Z</time>
      </trkpt>
      <trkpt lat="47.76833" lon="-3.53298">
        <ele>8.58</ele>
        <time>2020-07-08T09:07:26Z</time>
      </trkpt>
      <trkpt lat="47.76833" lon="-3.53293">
        <ele>8.25</ele>
        <time>2020-07-08T09:07:27Z</time>
      </trkpt>
      <trkpt lat="47.76834" lon="-3.5329">
        <ele>7.92</ele>
        <time>2020-07-08T09:07:28Z</time>
      </trkpt>
      <trkpt lat="47.76834" lon="-3.53288">
        <ele>7.71</ele>
        <time>2020-07-08T09:07:29Z</time>
      </trkpt>
      <trkpt lat="47.76834" lon="-3.53287">
        <ele>7.63</ele>
        <time>2020-07-08T09:07:30Z</time>
      </trkpt>
      <trkpt lat="47.76834" lon="-3.53287">
        <ele>7.6</ele>
        <time>2020-07-08T09:07:31Z</time>
      </trkpt>
      <trkpt lat="47.76834" lon="-3.53287">
        <ele>7.59</ele>
        <time>2020-07-08T09:07:32Z</time>
      </trkpt>
      <trkpt lat="47.76834" lon="-3.53287">
        <ele>7.58</ele>
        <time>2020-07-08T09:07:33Z</time>
      </trkpt>
      <trkpt lat="47.76834" lon="-3.53287">
        <ele>7.58</ele>
        <time>2020-07-08T09:07:34Z</time>
      </trkpt>
      <trkpt lat="47.76834" lon="-3.53287">
        <ele>7.58</ele>
        <time>2020-07-08T09:07:35Z</time>
      </trkpt>
      <trkpt lat="47.76834" lon="-3.53287">
        <ele>7.58</ele>
        <time>2020-07-08T09:07:36Z</time>
      </trkpt>
      <trkpt lat="47.76834" lon="-3.53287">
        <ele>7.58</ele>
        <time>2020-07-08T09:07:37Z</time>
      </trkpt>
      <trkpt lat="47.76834" lon="-3.53287">
        <ele>7.58</ele>
        <time>2020-07-08T09:07:38Z</time>
      </trkpt>
      <trkpt lat="47.76834" lon="-3.53287">
        <ele>7.58</ele>
        <time>2020-07-08T09:07:39Z</time>
      </trkpt>
      <trkpt lat="47.76834" lon="-3.53287">
        <ele>7.58</ele>
        <time>2020-07-08T09:07:40Z</time>
      </trkpt>
      <trkpt lat="47.76834" lon="-3.53287">
        <ele>7.58</ele>
        <time>2020-07-08T09:07:41Z</time>
      </trkpt>
      <trkpt lat="47.76837" lon="-3.53284">
        <ele>7.3</ele>
        <time>2020-07-08T09:07:42Z</time>
      </trkpt>
      <trkpt lat="47.76837" lon="-3.53281">
        <ele>7.09</ele>
        <time>2020-07-08T09:07:43Z</time>
      </trkpt>
      <trkpt lat="47.7684" lon="-3.53279">
        <ele>6.73</ele>
        <time>2020-07-08T09:07:44Z</time>
      </trkpt>
      <trkpt lat="47.76844" lon="-3.53275">
        <ele>6.19</ele>
        <time>2020-07-08T09:07:45Z</time>
      </trkpt>
      <trkpt lat="47.76848" lon="-3.53271">
        <ele>5.54</ele>
        <time>2020-07-08T09:07:46Z</time>
      </trkpt>
      <trkpt lat="47.76853" lon="-3.53266">
        <ele>4.82</ele>
        <time>2020-07-08T09:07:47Z</time>
      </trkpt>
      <trkpt lat="47.76856" lon="-3.53261">
        <ele>4.17</ele>
        <time>2020-07-08T09:07:48Z</time>
      </trkpt>
      <trkpt lat="47.7686" lon="-3.53256">
        <ele>3.67</ele>
        <time>2020-07-08T09:07:49Z</time>
      </trkpt>
      <trkpt lat="47.76864" lon="-3.53252">
        <ele>3.37</ele>
        <time>2020-07-08T09:07:50Z</time>
      </trkpt>
      <trkpt lat="47.76869" lon="-3.53249">
        <ele>3.22</ele>
        <time>2020-07-08T09:07:51Z</time>
      </trkpt>
      <trkpt lat="47.76873" lon="-3.53245">
        <ele>3.1</ele>
        <time>2020-07-08T09:07:52Z</time>
      </trkpt>
      <trkpt lat="47.76878" lon="-3.53241">
        <ele>3</ele>
        <time>2020-07-08T09:07:53Z</time>
      </trkpt>
      <trkpt lat="47.76883" lon="-3.53237">
        <ele>2.91</ele>
        <time>2020-07-08T09:07:54Z</time>
      </trkpt>
      <trkpt lat="47.76888" lon="-3.53234">
        <ele>2.86</ele>
        <time>2020-07-08T09:07:55Z</time>
      </trkpt>
      <trkpt lat="47.76893" lon="-3.53232">
        <ele>2.82</ele>
        <time>2020-07-08T09:07:56Z</time>
      </trkpt>
      <trkpt lat="47.76899" lon="-3.5323">
        <ele>2.82</ele>
        <time>2020-07-08T09:07:57Z</time>
      </trkpt>
      <trkpt lat="47.76904" lon="-3.53228">
        <ele>2.85</ele>
        <time>2020-07-08T09:07:58Z</time>
      </trkpt>
      <trkpt lat="47.76909" lon="-3.53227">
        <ele>2.91</ele>
        <time>2020-07-08T09:07:59Z</time>
      </trkpt>
      <trkpt lat="47.76915" lon="-3.53226">
        <ele>3.01</ele>
        <time>2020-07-08T09:08:00Z</time>
      </trkpt>
      <trkpt lat="47.7692" lon="-3.53225">
        <ele>3.06</ele>
        <time>2020-07-08T09:08:01Z</time>
      </trkpt>
      <trkpt lat="47.76925" lon="-3.53224">
        <ele>3.06</ele>
        <time>2020-07-08T09:08:02Z</time>
      </trkpt>
      <trkpt lat="47.76931" lon="-3.53223">
        <ele>3.05</ele>
        <time>2020-07-08T09:08:03Z</time>
      </trkpt>
      <trkpt lat="47.76936" lon="-3.53223">
        <ele>3.03</ele>
        <time>2020-07-08T09:08:04Z</time>
      </trkpt>
      <trkpt lat="47.76942" lon="-3.53222">
        <ele>3</ele>
        <time>2020-07-08T09:08:05Z</time>
      </trkpt>
      <trkpt lat="47.76948" lon="-3.53221">
        <ele>3.06</ele>
        <time>2020-07-08T09:08:06Z</time>
      </trkpt>
      <trkpt lat="47.76953" lon="-3.53221">
        <ele>3.21</ele>
        <time>2020-07-08T09:08:07Z</time>
      </trkpt>
      <trkpt lat="47.76958" lon="-3.5322">
        <ele>3.37</ele>
        <time>2020-07-08T09:08:08Z</time>
      </trkpt>
      <trkpt lat="47.76963" lon="-3.5322">
        <ele>3.52</ele>
        <time>2020-07-08T09:08:09Z</time>
      </trkpt>
      <trkpt lat="47.76967" lon="-3.5322">
        <ele>3.66</ele>
        <time>2020-07-08T09:08:10Z</time>
      </trkpt>
      <trkpt lat="47.76971" lon="-3.5322">
        <ele>3.82</ele>
        <time>2020-07-08T09:08:11Z</time>
      </trkpt>
      <trkpt lat="47.76975" lon="-3.5322">
        <ele>3.89</ele>
        <time>2020-07-08T09:08:12Z</time>
      </trkpt>
      <trkpt lat="47.7698" lon="-3.53221">
        <ele>3.93</ele>
        <time>2020-07-08T09:08:13Z</time>
      </trkpt>
      <trkpt lat="47.76984" lon="-3.53222">
        <ele>3.98</ele>
        <time>2020-07-08T09:08:14Z</time>
      </trkpt>
      <trkpt lat="47.76988" lon="-3.53224">
        <ele>4.08</ele>
        <time>2020-07-08T09:08:15Z</time>
      </trkpt>
      <trkpt lat="47.7699" lon="-3.53227">
        <ele>4.29</ele>
        <time>2020-07-08T09:08:16Z</time>
      </trkpt>
      <trkpt lat="47.76993" lon="-3.53229">
        <ele>4.48</ele>
        <time>2020-07-08T09:08:17Z</time>
      </trkpt>
      <trkpt lat="47.76996" lon="-3.53229">
        <ele>4.63</ele>
        <time>2020-07-08T09:08:18Z</time>
      </trkpt>
      <trkpt lat="47.76999" lon="-3.5323">
        <ele>4.78</ele>
        <time>2020-07-08T09:08:19Z</time>
      </trkpt>
      <trkpt lat="47.77003" lon="-3.53232">
        <ele>5.03</ele>
        <time>2020-07-08T09:08:20Z</time>
      </trkpt>
      <trkpt lat="47.77007" lon="-3.53234">
        <ele>5.35</ele>
        <time>2020-07-08T09:08:21Z</time>
      </trkpt>
      <trkpt lat="47.77011" lon="-3.53236">
        <ele>5.68</ele>
        <time>2020-07-08T09:08:22Z</time>
      </trkpt>
      <trkpt lat="47.77014" lon="-3.53237">
        <ele>5.99</ele>
        <time>2020-07-08T09:08:23Z</time>
      </trkpt>
      <trkpt lat="47.77018" lon="-3.53238">
        <ele>6.26</ele>
        <time>2020-07-08T09:08:24Z</time>
      </trkpt>
      <trkpt lat="47.77021" lon="-3.5324">
        <ele>6.54</ele>
        <time>2020-07-08T09:08:25Z</time>
      </trkpt>
      <trkpt lat="47.77024" lon="-3.53242">
        <ele>6.86</ele>
        <time>2020-07-08T09:08:26Z</time>
      </trkpt>
      <trkpt lat="47.77027" lon="-3.53244">
        <ele>7.16</ele>
        <time>2020-07-08T09:08:27Z</time>
      </trkpt>
      <trkpt lat="47.7703" lon="-3.53245">
        <ele>7.32</ele>
        <time>2020-07-08T09:08:28Z</time>
      </trkpt>
      <trkpt lat="47.77033" lon="-3.53246">
        <ele>7.39</ele>
        <time>2020-07-08T09:08:29Z</time>
      </trkpt>
      <trkpt lat="47.77035" lon="-3.53248">
        <ele>7.45</ele>
        <time>2020-07-08T09:08:30Z</time>
      </trkpt>
      <trkpt lat="47.77038" lon="-3.5325">
        <ele>7.57</ele>
        <time>2020-07-08T09:08:31Z</time>
      </trkpt>
      <trkpt lat="47.77041" lon="-3.53253">
        <ele>7.77</ele>
        <time>2020-07-08T09:08:32Z</time>
      </trkpt>
      <trkpt lat="47.77044" lon="-3.53255">
        <ele>8.01</ele>
        <time>2020-07-08T09:08:33Z</time>
      </trkpt>
      <trkpt lat="47.77046" lon="-3.53258">
        <ele>8.24</ele>
        <time>2020-07-08T09:08:34Z</time>
      </trkpt>
      <trkpt lat="47.77049" lon="-3.5326">
        <ele>8.44</ele>
        <time>2020-07-08T09:08:35Z</time>
      </trkpt>
      <trkpt lat="47.77051" lon="-3.53263">
        <ele>8.78</ele>
        <time>2020-07-08T09:08:36Z</time>
      </trkpt>
      <trkpt lat="47.77054" lon="-3.53266">
        <ele>9.15</ele>
        <time>2020-07-08T09:08:37Z</time>
      </trkpt>
      <trkpt lat="47.77056" lon="-3.53268">
        <ele>9.49</ele>
        <time>2020-07-08T09:08:38Z</time>
      </trkpt>
      <trkpt lat="47.77059" lon="-3.5327">
        <ele>9.95</ele>
        <time>2020-07-08T09:08:39Z</time>
      </trkpt>
      <trkpt lat="47.77062" lon="-3.53272">
        <ele>10.39</ele>
        <time>2020-07-08T09:08:40Z</time>
      </trkpt>
      <trkpt lat="47.77065" lon="-3.53274">
        <ele>10.84</ele>
        <time>2020-07-08T09:08:41Z</time>
      </trkpt>
      <trkpt lat="47.77068" lon="-3.53275">
        <ele>11.27</ele>
        <time>2020-07-08T09:08:42Z</time>
      </trkpt>
      <trkpt lat="47.77072" lon="-3.53276">
        <ele>11.64</ele>
        <time>2020-07-08T09:08:43Z</time>
      </trkpt>
      <trkpt lat="47.77075" lon="-3.53276">
        <ele>12.02</ele>
        <time>2020-07-08T09:08:44Z</time>
      </trkpt>
      <trkpt lat="47.77078" lon="-3.53277">
        <ele>12.39</ele>
        <time>2020-07-08T09:08:45Z</time>
      </trkpt>
      <trkpt lat="47.77081" lon="-3.53278">
        <ele>12.74</ele>
        <time>2020-07-08T09:08:46Z</time>
      </trkpt>
      <trkpt lat="47.77084" lon="-3.53279">
        <ele>13.05</ele>
        <time>2020-07-08T09:08:47Z</time>
      </trkpt>
      <trkpt lat="47.77087" lon="-3.53281">
        <ele>13.4</ele>
        <time>2020-07-08T09:08:48Z</time>
      </trkpt>
      <trkpt lat="47.77091" lon="-3.53282">
        <ele>13.71</ele>
        <time>2020-07-08T09:08:49Z</time>
      </trkpt>
      <trkpt lat="47.77094" lon="-3.53283">
        <ele>14.01</ele>
        <time>2020-07-08T09:08:50Z</time>
      </trkpt>
      <trkpt lat="47.77097" lon="-3.53284">
        <ele>14.33</ele>
        <time>2020-07-08T09:08:51Z</time>
      </trkpt>
      <trkpt lat="47.771" lon="-3.53285">
        <ele>14.6</ele>
        <time>2020-07-08T09:08:52Z</time>
      </trkpt>
      <trkpt lat="47.77103" lon="-3.53286">
        <ele>14.9</ele>
        <time>2020-07-08T09:08:53Z</time>
      </trkpt>
      <trkpt lat="47.77106" lon="-3.53287">
        <ele>15.16</ele>
        <time>2020-07-08T09:08:54Z</time>
      </trkpt>
      <trkpt lat="47.77108" lon="-3.53287">
        <ele>15.36</ele>
        <time>2020-07-08T09:08:55Z</time>
      </trkpt>
      <trkpt lat="47.77109" lon="-3.53288">
        <ele>15.49</ele>
        <time>2020-07-08T09:08:56Z</time>
      </trkpt>
      <trkpt lat="47.77109" lon="-3.53288">
        <ele>15.54</ele>
        <time>2020-07-08T09:08:57Z</time>
      </trkpt>
      <trkpt lat="47.77109" lon="-3.53288">
        <ele>15.56</ele>
        <time>2020-07-08T09:08:58Z</time>
      </trkpt>
      <trkpt lat="47.77109" lon="-3.53288">
        <ele>15.57</ele>
        <time>2020-07-08T09:08:59Z</time>
      </trkpt>
      <trkpt lat="47.77109" lon="-3.53288">
        <ele>15.57</ele>
        <time>2020-07-08T09:09:00Z</time>
      </trkpt>
      <trkpt lat="47.77109" lon="-3.53288">
        <ele>15.57</ele>
        <time>2020-07-08T09:09:01Z</time>
      </trkpt>
      <trkpt lat="47.77109" lon="-3.53288">
        <ele>15.57</ele>
        <time>2020-07-08T09:09:02Z</time>
      </trkpt>
      <trkpt lat="47.77109" lon="-3.53288">
        <ele>15.57</ele>
        <time>2020-07-08T09:09:03Z</time>
      </trkpt>
      <trkpt lat="47.77109" lon="-3.53288">
        <ele>15.57</ele>
        <time>2020-07-08T09:09:04Z</time>
      </trkpt>
      <trkpt lat="47.77109" lon="-3.53288">
        <ele>15.57</ele>
        <time>2020-07-08T09:09:05Z</time>
      </trkpt>
      <trkpt lat="47.77109" lon="-3.53288">
        <ele>15.57</ele>
        <time>2020-07-08T09:09:06Z</time>
      </trkpt>
      <trkpt lat="47.77109" lon="-3.53288">
        <ele>15.57</ele>
        <time>2020-07-08T09:09:07Z</time>
      </trkpt>
      <trkpt lat="47.77109" lon="-3.53288">
        <ele>15.57</ele>
        <time>2020-07-08T09:09:08Z</time>
      </trkpt>
      <trkpt lat="47.77109" lon="-3.53288">
        <ele>15.57</ele>
        <time>2020-07-08T09:09:09Z</time>
      </trkpt>
      <trkpt lat="47.77109" lon="-3.53288">
        <ele>15.57</ele>
        <time>2020-07-08T09:09:10Z</time>
      </trkpt>
      <trkpt lat="47.77109" lon="-3.53288">
        <ele>15.57</ele>
        <time>2020-07-08T09:09:11Z</time>
      </trkpt>
      <trkpt lat="47.7711" lon="-3.53283">
        <ele>15.35</ele>
        <time>2020-07-08T09:09:12Z</time>
      </trkpt>
      <trkpt lat="47.77111" lon="-3.5328">
        <ele>15.22</ele>
        <time>2020-07-08T09:09:13Z</time>
      </trkpt>
      <trkpt lat="47.77112" lon="-3.53277">
        <ele>15.03</ele>
        <time>2020-07-08T09:09:14Z</time>
      </trkpt>
      <trkpt lat="47.77113" lon="-3.53274">
        <ele>14.73</ele>
        <time>2020-07-08T09:09:15Z</time>
      </trkpt>
      <trkpt lat="47.77115" lon="-3.53272">
        <ele>14.45</ele>
        <time>2020-07-08T09:09:16Z</time>
      </trkpt>
      <trkpt lat="47.77116" lon="-3.5327">
        <ele>14.2</ele>
        <time>2020-07-08T09:09:17Z</time>
      </trkpt>
      <trkpt lat="47.77118" lon="-3.53267">
        <ele>13.88</ele>
        <time>2020-07-08T09:09:18Z</time>
      </trkpt>
      <trkpt lat="47.77119" lon="-3.53263">
        <ele>13.48</ele>
        <time>2020-07-08T09:09:19Z</time>
      </trkpt>
      <trkpt lat="47.77121" lon="-3.5326">
        <ele>13.02</ele>
        <time>2020-07-08T09:09:20Z</time>
      </trkpt>
      <trkpt lat="47.77123" lon="-3.53255">
        <ele>12.44</ele>
        <time>2020-07-08T09:09:21Z</time>
      </trkpt>
      <trkpt lat="47.77125" lon="-3.53252">
        <ele>11.95</ele>
        <time>2020-07-08T09:09:22Z</time>
      </trkpt>
      <trkpt lat="47.77127" lon="-3.53251">
        <ele>11.69</ele>
        <time>2020-07-08T09:09:23Z</time>
      </trkpt>
      <trkpt lat="47.77129" lon="-3.53252">
        <ele>11.58</ele>
        <time>2020-07-08T09:09:24Z</time>
      </trkpt>
      <trkpt lat="47.77132" lon="-3.53253">
        <ele>11.62</ele>
        <time>2020-07-08T09:09:25Z</time>
      </trkpt>
      <trkpt lat="47.77133" lon="-3.53255">
        <ele>11.79</ele>
        <time>2020-07-08T09:09:26Z</time>
      </trkpt>
      <trkpt lat="47.77135" lon="-3.53258">
        <ele>12.09</ele>
        <time>2020-07-08T09:09:27Z</time>
      </trkpt>
      <trkpt lat="47.77138" lon="-3.53261">
        <ele>12.45</ele>
        <time>2020-07-08T09:09:28Z</time>
      </trkpt>
      <trkpt lat="47.7714" lon="-3.53264">
        <ele>12.59</ele>
        <time>2020-07-08T09:09:29Z</time>
      </trkpt>
      <trkpt lat="47.77143" lon="-3.53267">
        <ele>12.41</ele>
        <time>2020-07-08T09:09:30Z</time>
      </trkpt>
      <trkpt lat="47.77146" lon="-3.5327">
        <ele>11.99</ele>
        <time>2020-07-08T09:09:31Z</time>
      </trkpt>
      <trkpt lat="47.77149" lon="-3.53274">
        <ele>11.58</ele>
        <time>2020-07-08T09:09:32Z</time>
      </trkpt>
      <trkpt lat="47.77152" lon="-3.53277">
        <ele>11.23</ele>
        <time>2020-07-08T09:09:33Z</time>
      </trkpt>
      <trkpt lat="47.77155" lon="-3.5328">
        <ele>10.94</ele>
        <time>2020-07-08T09:09:34Z</time>
      </trkpt>
      <trkpt lat="47.77158" lon="-3.53284">
        <ele>10.97</ele>
        <time>2020-07-08T09:09:35Z</time>
      </trkpt>
      <trkpt lat="47.7716" lon="-3.53288">
        <ele>11.17</ele>
        <time>2020-07-08T09:09:36Z</time>
      </trkpt>
      <trkpt lat="47.77161" lon="-3.53292">
        <ele>11.58</ele>
        <time>2020-07-08T09:09:37Z</time>
      </trkpt>
      <trkpt lat="47.77162" lon="-3.53296">
        <ele>12.15</ele>
        <time>2020-07-08T09:09:38Z</time>
      </trkpt>
      <trkpt lat="47.77163" lon="-3.53299">
        <ele>12.74</ele>
        <time>2020-07-08T09:09:39Z</time>
      </trkpt>
      <trkpt lat="47.77163" lon="-3.53302">
        <ele>13.39</ele>
        <time>2020-07-08T09:09:40Z</time>
      </trkpt>
      <trkpt lat="47.77164" lon="-3.53305">
        <ele>14</ele>
        <time>2020-07-08T09:09:41Z</time>
      </trkpt>
      <trkpt lat="47.77164" lon="-3.53307">
        <ele>14.36</ele>
        <time>2020-07-08T09:09:42Z</time>
      </trkpt>
      <trkpt lat="47.77165" lon="-3.53309">
        <ele>14.54</ele>
        <time>2020-07-08T09:09:43Z</time>
      </trkpt>
      <trkpt lat="47.77165" lon="-3.5331">
        <ele>14.68</ele>
        <time>2020-07-08T09:09:44Z</time>
      </trkpt>
      <trkpt lat="47.77166" lon="-3.53312">
        <ele>14.75</ele>
        <time>2020-07-08T09:09:45Z</time>
      </trkpt>
      <trkpt lat="47.77166" lon="-3.53312">
        <ele>14.78</ele>
        <time>2020-07-08T09:09:46Z</time>
      </trkpt>
      <trkpt lat="47.77166" lon="-3.53312">
        <ele>14.79</ele>
        <time>2020-07-08T09:09:47Z</time>
      </trkpt>
      <trkpt lat="47.77171" lon="-3.53318">
        <ele>14.01</ele>
        <time>2020-07-08T09:09:48Z</time>
      </trkpt>
      <trkpt lat="47.77173" lon="-3.53322">
        <ele>13.36</ele>
        <time>2020-07-08T09:09:49Z</time>
      </trkpt>
      <trkpt lat="47.77176" lon="-3.53325">
        <ele>12.55</ele>
        <time>2020-07-08T09:09:50Z</time>
      </trkpt>
      <trkpt lat="47.7718" lon="-3.53329">
        <ele>11.49</ele>
        <time>2020-07-08T09:09:51Z</time>
      </trkpt>
      <trkpt lat="47.77186" lon="-3.53334">
        <ele>10.21</ele>
        <time>2020-07-08T09:09:52Z</time>
      </trkpt>
      <trkpt lat="47.7719" lon="-3.53337">
        <ele>9.35</ele>
        <time>2020-07-08T09:09:53Z</time>
      </trkpt>
      <trkpt lat="47.77194" lon="-3.53339">
        <ele>8.36</ele>
        <time>2020-07-08T09:09:54Z</time>
      </trkpt>
      <trkpt lat="47.77198" lon="-3.53341">
        <ele>8.02</ele>
        <time>2020-07-08T09:09:55Z</time>
      </trkpt>
      <trkpt lat="47.77202" lon="-3.53344">
        <ele>7.94</ele>
        <time>2020-07-08T09:09:56Z</time>
      </trkpt>
      <trkpt lat="47.77208" lon="-3.53348">
        <ele>8.12</ele>
        <time>2020-07-08T09:09:57Z</time>
      </trkpt>
      <trkpt lat="47.77212" lon="-3.53351">
        <ele>8.45</ele>
        <time>2020-07-08T09:09:58Z</time>
      </trkpt>
      <trkpt lat="47.77217" lon="-3.53354">
        <ele>8.52</ele>
        <time>2020-07-08T09:09:59Z</time>
      </trkpt>
      <trkpt lat="47.77221" lon="-3.53356">
        <ele>8.49</ele>
        <time>2020-07-08T09:10:00Z</time>
      </trkpt>
      <trkpt lat="47.77225" lon="-3.53358">
        <ele>8.7</ele>
        <time>2020-07-08T09:10:01Z</time>
      </trkpt>
      <trkpt lat="47.77229" lon="-3.5336">
        <ele>8.84</ele>
        <time>2020-07-08T09:10:02Z</time>
      </trkpt>
      <trkpt lat="47.77233" lon="-3.53361">
        <ele>8.81</ele>
        <time>2020-07-08T09:10:03Z</time>
      </trkpt>
      <trkpt lat="47.77237" lon="-3.53362">
        <ele>8.75</ele>
        <time>2020-07-08T09:10:04Z</time>
      </trkpt>
      <trkpt lat="47.7724" lon="-3.53364">
        <ele>8.83</ele>
        <time>2020-07-08T09:10:05Z</time>
      </trkpt>
      <trkpt lat="47.77244" lon="-3.53365">
        <ele>9.09</ele>
        <time>2020-07-08T09:10:06Z</time>
      </trkpt>
      <trkpt lat="47.77247" lon="-3.53368">
        <ele>9.57</ele>
        <time>2020-07-08T09:10:07Z</time>
      </trkpt>
      <trkpt lat="47.7725" lon="-3.53369">
        <ele>9.68</ele>
        <time>2020-07-08T09:10:08Z</time>
      </trkpt>
      <trkpt lat="47.77254" lon="-3.53371">
        <ele>10.01</ele>
        <time>2020-07-08T09:10:09Z</time>
      </trkpt>
      <trkpt lat="47.77258" lon="-3.53372">
        <ele>10.15</ele>
        <time>2020-07-08T09:10:10Z</time>
      </trkpt>
      <trkpt lat="47.77262" lon="-3.53375">
        <ele>10.58</ele>
        <time>2020-07-08T09:10:11Z</time>
      </trkpt>
      <trkpt lat="47.77265" lon="-3.53377">
        <ele>10.92</ele>
        <time>2020-07-08T09:10:12Z</time>
      </trkpt>
      <trkpt lat="47.77268" lon="-3.53378">
        <ele>11.05</ele>
        <time>2020-07-08T09:10:13Z</time>
      </trkpt>
      <trkpt lat="47.7727" lon="-3.53378">
        <ele>11.04</ele>
        <time>2020-07-08T09:10:14Z</time>
      </trkpt>
      <trkpt lat="47.7727" lon="-3.53378">
        <ele>10.9</ele>
        <time>2020-07-08T09:10:15Z</time>
      </trkpt>
      <trkpt lat="47.7727" lon="-3.53377">
        <ele>10.72</ele>
        <time>2020-07-08T09:10:16Z</time>
      </trkpt>
      <trkpt lat="47.7727" lon="-3.53377">
        <ele>10.67</ele>
        <time>2020-07-08T09:10:17Z</time>
      </trkpt>
      <trkpt lat="47.7727" lon="-3.53377">
        <ele>10.65</ele>
        <time>2020-07-08T09:10:18Z</time>
      </trkpt>
      <trkpt lat="47.7727" lon="-3.53377">
        <ele>10.65</ele>
        <time>2020-07-08T09:10:19Z</time>
      </trkpt>
      <trkpt lat="47.7727" lon="-3.53377">
        <ele>10.64</ele>
        <time>2020-07-08T09:10:20Z</time>
      </trkpt>
      <trkpt lat="47.7727" lon="-3.53377">
        <ele>10.64</ele>
        <time>2020-07-08T09:10:21Z</time>
      </trkpt>
      <trkpt lat="47.7727" lon="-3.53377">
        <ele>10.64</ele>
        <time>2020-07-08T09:10:22Z</time>
      </trkpt>
      <trkpt lat="47.7727" lon="-3.53377">
        <ele>10.64</ele>
        <time>2020-07-08T09:10:23Z</time>
      </trkpt>
      <trkpt lat="47.77278" lon="-3.53378">
        <ele>10.24</ele>
        <time>2020-07-08T09:10:24Z</time>
      </trkpt>
      <trkpt lat="47.77281" lon="-3.5338">
        <ele>10.38</ele>
        <time>2020-07-08T09:10:25Z</time>
      </trkpt>
      <trkpt lat="47.77285" lon="-3.53382">
        <ele>10.74</ele>
        <time>2020-07-08T09:10:26Z</time>
      </trkpt>
      <trkpt lat="47.77289" lon="-3.53384">
        <ele>11.13</ele>
        <time>2020-07-08T09:10:27Z</time>
      </trkpt>
      <trkpt lat="47.77293" lon="-3.53387">
        <ele>11.57</ele>
        <time>2020-07-08T09:10:28Z</time>
      </trkpt>
      <trkpt lat="47.77297" lon="-3.5339">
        <ele>11.94</ele>
        <time>2020-07-08T09:10:29Z</time>
      </trkpt>
      <trkpt lat="47.77301" lon="-3.53393">
        <ele>12.22</ele>
        <time>2020-07-08T09:10:30Z</time>
      </trkpt>
      <trkpt lat="47.77305" lon="-3.53396">
        <ele>12.42</ele>
        <time>2020-07-08T09:10:31Z</time>
      </trkpt>
      <trkpt lat="47.77309" lon="-3.53398">
        <ele>12.82</ele>
        <time>2020-07-08T09:10:32Z</time>
      </trkpt>
      <trkpt lat="47.77313" lon="-3.53401">
        <ele>13.27</ele>
        <time>2020-07-08T09:10:33Z</time>
      </trkpt>
      <trkpt lat="47.77317" lon="-3.53402">
        <ele>13.57</ele>
        <time>2020-07-08T09:10:34Z</time>
      </trkpt>
      <trkpt lat="47.7732" lon="-3.53405">
        <ele>13.99</ele>
        <time>2020-07-08T09:10:35Z</time>
      </trkpt>
      <trkpt lat="47.77323" lon="-3.53408">
        <ele>14.5</ele>
        <time>2020-07-08T09:10:36Z</time>
      </trkpt>
      <trkpt lat="47.77327" lon="-3.5341">
        <ele>14.88</ele>
        <time>2020-07-08T09:10:37Z</time>
      </trkpt>
      <trkpt lat="47.7733" lon="-3.53413">
        <ele>15.24</ele>
        <time>2020-07-08T09:10:38Z</time>
      </trkpt>
      <trkpt lat="47.77332" lon="-3.53414">
        <ele>15.48</ele>
        <time>2020-07-08T09:10:39Z</time>
      </trkpt>
      <trkpt lat="47.77335" lon="-3.53416">
        <ele>15.88</ele>
        <time>2020-07-08T09:10:40Z</time>
      </trkpt>
      <trkpt lat="47.77338" lon="-3.53417">
        <ele>16.24</ele>
        <time>2020-07-08T09:10:41Z</time>
      </trkpt>
      <trkpt lat="47.77341" lon="-3.53418">
        <ele>16.57</ele>
        <time>2020-07-08T09:10:42Z</time>
      </trkpt>
      <trkpt lat="47.77344" lon="-3.53419">
        <ele>16.87</ele>
        <time>2020-07-08T09:10:43Z</time>
      </trkpt>
      <trkpt lat="47.77347" lon="-3.53421">
        <ele>17.25</ele>
        <time>2020-07-08T09:10:44Z</time>
      </trkpt>
      <trkpt lat="47.77351" lon="-3.53424">
        <ele>17.66</ele>
        <time>2020-07-08T09:10:45Z</time>
      </trkpt>
      <trkpt lat="47.77353" lon="-3.53426">
        <ele>18.02</ele>
        <time>2020-07-08T09:10:46Z</time>
      </trkpt>
      <trkpt lat="47.77356" lon="-3.53427">
        <ele>18.32</ele>
        <time>2020-07-08T09:10:47Z</time>
      </trkpt>
      <trkpt lat="47.77359" lon="-3.5343">
        <ele>18.66</ele>
        <time>2020-07-08T09:10:48Z</time>
      </trkpt>
      <trkpt lat="47.77362" lon="-3.53432">
        <ele>18.99</ele>
        <time>2020-07-08T09:10:49Z</time>
      </trkpt>
      <trkpt lat="47.77365" lon="-3.53434">
        <ele>19.21</ele>
        <time>2020-07-08T09:10:50Z</time>
      </trkpt>
      <trkpt lat="47.77367" lon="-3.53435">
        <ele>19.41</ele>
        <time>2020-07-08T09:10:51Z</time>
      </trkpt>
      <trkpt lat="47.7737" lon="-3.53437">
        <ele>19.62</ele>
        <time>2020-07-08T09:10:52Z</time>
      </trkpt>
      <trkpt lat="47.77373" lon="-3.53439">
        <ele>19.83</ele>
        <time>2020-07-08T09:10:53Z</time>
      </trkpt>
      <trkpt lat="47.77376" lon="-3.5344">
        <ele>20.03</ele>
        <time>2020-07-08T09:10:54Z</time>
      </trkpt>
      <trkpt lat="47.77379" lon="-3.53441">
        <ele>20.22</ele>
        <time>2020-07-08T09:10:55Z</time>
      </trkpt>
      <trkpt lat="47.77381" lon="-3.53443">
        <ele>20.49</ele>
        <time>2020-07-08T09:10:56Z</time>
      </trkpt>
      <trkpt lat="47.77384" lon="-3.53446">
        <ele>20.78</ele>
        <time>2020-07-08T09:10:57Z</time>
      </trkpt>
      <trkpt lat="47.77387" lon="-3.53449">
        <ele>21.01</ele>
        <time>2020-07-08T09:10:58Z</time>
      </trkpt>
      <trkpt lat="47.7739" lon="-3.53452">
        <ele>21.19</ele>
        <time>2020-07-08T09:10:59Z</time>
      </trkpt>
      <trkpt lat="47.77392" lon="-3.53455">
        <ele>21.35</ele>
        <time>2020-07-08T09:11:00Z</time>
      </trkpt>
      <trkpt lat="47.77395" lon="-3.53457">
        <ele>21.49</ele>
        <time>2020-07-08T09:11:01Z</time>
      </trkpt>
      <trkpt lat="47.77397" lon="-3.5346">
        <ele>21.65</ele>
        <time>2020-07-08T09:11:02Z</time>
      </trkpt>
      <trkpt lat="47.774" lon="-3.53463">
        <ele>21.86</ele>
        <time>2020-07-08T09:11:03Z</time>
      </trkpt>
      <trkpt lat="47.77404" lon="-3.53466">
        <ele>22.08</ele>
        <time>2020-07-08T09:11:04Z</time>
      </trkpt>
      <trkpt lat="47.77407" lon="-3.53468">
        <ele>22.3</ele>
        <time>2020-07-08T09:11:05Z</time>
      </trkpt>
      <trkpt lat="47.77411" lon="-3.5347">
        <ele>22.58</ele>
        <time>2020-07-08T09:11:06Z</time>
      </trkpt>
      <trkpt lat="47.77415" lon="-3.53474">
        <ele>22.85</ele>
        <time>2020-07-08T09:11:07Z</time>
      </trkpt>
      <trkpt lat="47.77418" lon="-3.53478">
        <ele>22.8</ele>
        <time>2020-07-08T09:11:08Z</time>
      </trkpt>
      <trkpt lat="47.77421" lon="-3.53482">
        <ele>22.55</ele>
        <time>2020-07-08T09:11:09Z</time>
      </trkpt>
      <trkpt lat="47.77425" lon="-3.53486">
        <ele>22.22</ele>
        <time>2020-07-08T09:11:10Z</time>
      </trkpt>
      <trkpt lat="47.77428" lon="-3.53489">
        <ele>21.93</ele>
        <time>2020-07-08T09:11:11Z</time>
      </trkpt>
      <trkpt lat="47.77431" lon="-3.53493">
        <ele>21.75</ele>
        <time>2020-07-08T09:11:12Z</time>
      </trkpt>
      <trkpt lat="47.77435" lon="-3.53497">
        <ele>21.64</ele>
        <time>2020-07-08T09:11:13Z</time>
      </trkpt>
      <trkpt lat="47.77436" lon="-3.53504">
        <ele>21.69</ele>
        <time>2020-07-08T09:11:14Z</time>
      </trkpt>
      <trkpt lat="47.77437" lon="-3.53511">
        <ele>21.87</ele>
        <time>2020-07-08T09:11:15Z</time>
      </trkpt>
      <trkpt lat="47.77438" lon="-3.53517">
        <ele>22.03</ele>
        <time>2020-07-08T09:11:16Z</time>
      </trkpt>
      <trkpt lat="47.77438" lon="-3.53523">
        <ele>22.21</ele>
        <time>2020-07-08T09:11:17Z</time>
      </trkpt>
      <trkpt lat="47.77438" lon="-3.53531">
        <ele>22.31</ele>
        <time>2020-07-08T09:11:18Z</time>
      </trkpt>
      <trkpt lat="47.77438" lon="-3.53539">
        <ele>22.21</ele>
        <time>2020-07-08T09:11:19Z</time>
      </trkpt>
      <trkpt lat="47.77437" lon="-3.53547">
        <ele>22.08</ele>
        <time>2020-07-08T09:11:20Z</time>
      </trkpt>
      <trkpt lat="47.77436" lon="-3.53555">
        <ele>21.96</ele>
        <time>2020-07-08T09:11:21Z</time>
      </trkpt>
      <trkpt lat="47.77435" lon="-3.53565">
        <ele>21.88</ele>
        <time>2020-07-08T09:11:22Z</time>
      </trkpt>
      <trkpt lat="47.77434" lon="-3.53573">
        <ele>21.75</ele>
        <time>2020-07-08T09:11:23Z</time>
      </trkpt>
      <trkpt lat="47.77434" lon="-3.53583">
        <ele>21.54</ele>
        <time>2020-07-08T09:11:24Z</time>
      </trkpt>
      <trkpt lat="47.77436" lon="-3.5359">
        <ele>21.35</ele>
        <time>2020-07-08T09:11:25Z</time>
      </trkpt>
      <trkpt lat="47.77437" lon="-3.53596">
        <ele>21.1</ele>
        <time>2020-07-08T09:11:26Z</time>
      </trkpt>
      <trkpt lat="47.77439" lon="-3.53601">
        <ele>20.85</ele>
        <time>2020-07-08T09:11:27Z</time>
      </trkpt>
      <trkpt lat="47.77441" lon="-3.53606">
        <ele>20.58</ele>
        <time>2020-07-08T09:11:28Z</time>
      </trkpt>
      <trkpt lat="47.77442" lon="-3.53613">
        <ele>20.36</ele>
        <time>2020-07-08T09:11:29Z</time>
      </trkpt>
      <trkpt lat="47.77443" lon="-3.5362">
        <ele>20.06</ele>
        <time>2020-07-08T09:11:30Z</time>
      </trkpt>
      <trkpt lat="47.77442" lon="-3.5363">
        <ele>19.79</ele>
        <time>2020-07-08T09:11:31Z</time>
      </trkpt>
      <trkpt lat="47.77441" lon="-3.53637">
        <ele>19.57</ele>
        <time>2020-07-08T09:11:32Z</time>
      </trkpt>
      <trkpt lat="47.7744" lon="-3.53645">
        <ele>19.49</ele>
        <time>2020-07-08T09:11:33Z</time>
      </trkpt>
      <trkpt lat="47.77438" lon="-3.53651">
        <ele>19.46</ele>
        <time>2020-07-08T09:11:34Z</time>
      </trkpt>
      <trkpt lat="47.77438" lon="-3.53657">
        <ele>19.28</ele>
        <time>2020-07-08T09:11:35Z</time>
      </trkpt>
      <trkpt lat="47.77441" lon="-3.53662">
        <ele>18.88</ele>
        <time>2020-07-08T09:11:36Z</time>
      </trkpt>
      <trkpt lat="47.77444" lon="-3.53666">
        <ele>18.38</ele>
        <time>2020-07-08T09:11:37Z</time>
      </trkpt>
      <trkpt lat="47.77447" lon="-3.53669">
        <ele>17.44</ele>
        <time>2020-07-08T09:11:38Z</time>
      </trkpt>
      <trkpt lat="47.7745" lon="-3.53671">
        <ele>16.23</ele>
        <time>2020-07-08T09:11:39Z</time>
      </trkpt>
      <trkpt lat="47.77452" lon="-3.53673">
        <ele>15.11</ele>
        <time>2020-07-08T09:11:40Z</time>
      </trkpt>
      <trkpt lat="47.77454" lon="-3.53675">
        <ele>14.18</ele>
        <time>2020-07-08T09:11:41Z</time>
      </trkpt>
      <trkpt lat="47.77456" lon="-3.53677">
        <ele>13.22</ele>
        <time>2020-07-08T09:11:42Z</time>
      </trkpt>
      <trkpt lat="47.77458" lon="-3.5368">
        <ele>12.37</ele>
        <time>2020-07-08T09:11:43Z</time>
      </trkpt>
      <trkpt lat="47.7746" lon="-3.53683">
        <ele>11.56</ele>
        <time>2020-07-08T09:11:44Z</time>
      </trkpt>
      <trkpt lat="47.77462" lon="-3.53687">
        <ele>10.85</ele>
        <time>2020-07-08T09:11:45Z</time>
      </trkpt>
      <trkpt lat="47.77464" lon="-3.53691">
        <ele>10.15</ele>
        <time>2020-07-08T09:11:46Z</time>
      </trkpt>
      <trkpt lat="47.77466" lon="-3.53694">
        <ele>9.47</ele>
        <time>2020-07-08T09:11:47Z</time>
      </trkpt>
      <trkpt lat="47.77468" lon="-3.53698">
        <ele>9.23</ele>
        <time>2020-07-08T09:11:48Z</time>
      </trkpt>
      <trkpt lat="47.77471" lon="-3.53701">
        <ele>9.08</ele>
        <time>2020-07-08T09:11:49Z</time>
      </trkpt>
      <trkpt lat="47.77473" lon="-3.53704">
        <ele>9.07</ele>
        <time>2020-07-08T09:11:50Z</time>
      </trkpt>
      <trkpt lat="47.77475" lon="-3.53707">
        <ele>9.13</ele>
        <time>2020-07-08T09:11:51Z</time>
      </trkpt>
      <trkpt lat="47.77477" lon="-3.53709">
        <ele>9.17</ele>
        <time>2020-07-08T09:11:52Z</time>
      </trkpt>
      <trkpt lat="47.77479" lon="-3.53712">
        <ele>9.25</ele>
        <time>2020-07-08T09:11:53Z</time>
      </trkpt>
      <trkpt lat="47.77481" lon="-3.53716">
        <ele>9.36</ele>
        <time>2020-07-08T09:11:54Z</time>
      </trkpt>
      <trkpt lat="47.77484" lon="-3.53719">
        <ele>8.96</ele>
        <time>2020-07-08T09:11:55Z</time>
      </trkpt>
      <trkpt lat="47.77488" lon="-3.53724">
        <ele>8.52</ele>
        <time>2020-07-08T09:11:56Z</time>
      </trkpt>
      <trkpt lat="47.77493" lon="-3.53732">
        <ele>8.02</ele>
        <time>2020-07-08T09:11:57Z</time>
      </trkpt>
      <trkpt lat="47.77497" lon="-3.53739">
        <ele>7.51</ele>
        <time>2020-07-08T09:11:58Z</time>
      </trkpt>
      <trkpt lat="47.77502" lon="-3.53746">
        <ele>7.17</ele>
        <time>2020-07-08T09:11:59Z</time>
      </trkpt>
      <trkpt lat="47.77505" lon="-3.53753">
        <ele>7.26</ele>
        <time>2020-07-08T09:12:00Z</time>
      </trkpt>
      <trkpt lat="47.7751" lon="-3.53759">
        <ele>7.35</ele>
        <time>2020-07-08T09:12:01Z</time>
      </trkpt>
      <trkpt lat="47.77515" lon="-3.53768">
        <ele>7.09</ele>
        <time>2020-07-08T09:12:02Z</time>
      </trkpt>
      <trkpt lat="47.77518" lon="-3.53774">
        <ele>6.62</ele>
        <time>2020-07-08T09:12:03Z</time>
      </trkpt>
      <trkpt lat="47.77522" lon="-3.53781">
        <ele>5.88</ele>
        <time>2020-07-08T09:12:04Z</time>
      </trkpt>
      <trkpt lat="47.77524" lon="-3.53785">
        <ele>5.39</ele>
        <time>2020-07-08T09:12:05Z</time>
      </trkpt>
      <trkpt lat="47.77526" lon="-3.5379">
        <ele>5.32</ele>
        <time>2020-07-08T09:12:06Z</time>
      </trkpt>
      <trkpt lat="47.77528" lon="-3.53795">
        <ele>5.23</ele>
        <time>2020-07-08T09:12:07Z</time>
      </trkpt>
      <trkpt lat="47.77529" lon="-3.538">
        <ele>5.68</ele>
        <time>2020-07-08T09:12:08Z</time>
      </trkpt>
      <trkpt lat="47.7753" lon="-3.53805">
        <ele>6.22</ele>
        <time>2020-07-08T09:12:09Z</time>
      </trkpt>
      <trkpt lat="47.77532" lon="-3.53811">
        <ele>6.81</ele>
        <time>2020-07-08T09:12:10Z</time>
      </trkpt>
      <trkpt lat="47.77533" lon="-3.53817">
        <ele>7.44</ele>
        <time>2020-07-08T09:12:11Z</time>
      </trkpt>
      <trkpt lat="47.77535" lon="-3.53823">
        <ele>8.06</ele>
        <time>2020-07-08T09:12:12Z</time>
      </trkpt>
      <trkpt lat="47.77536" lon="-3.53829">
        <ele>8.66</ele>
        <time>2020-07-08T09:12:13Z</time>
      </trkpt>
      <trkpt lat="47.77537" lon="-3.53834">
        <ele>8.91</ele>
        <time>2020-07-08T09:12:14Z</time>
      </trkpt>
      <trkpt lat="47.7754" lon="-3.5384">
        <ele>8.56</ele>
        <time>2020-07-08T09:12:15Z</time>
      </trkpt>
      <trkpt lat="47.77542" lon="-3.53843">
        <ele>8.1</ele>
        <time>2020-07-08T09:12:16Z</time>
      </trkpt>
      <trkpt lat="47.77544" lon="-3.53846">
        <ele>7.52</ele>
        <time>2020-07-08T09:12:17Z</time>
      </trkpt>
      <trkpt lat="47.77547" lon="-3.53846">
        <ele>6.72</ele>
        <time>2020-07-08T09:12:18Z</time>
      </trkpt>
      <trkpt lat="47.77549" lon="-3.53847">
        <ele>5.97</ele>
        <time>2020-07-08T09:12:19Z</time>
      </trkpt>
      <trkpt lat="47.77552" lon="-3.5385">
        <ele>5.17</ele>
        <time>2020-07-08T09:12:20Z</time>
      </trkpt>
      <trkpt lat="47.77555" lon="-3.53851">
        <ele>4.19</ele>
        <time>2020-07-08T09:12:21Z</time>
      </trkpt>
      <trkpt lat="47.7756" lon="-3.53851">
        <ele>4.2</ele>
        <time>2020-07-08T09:12:22Z</time>
      </trkpt>
      <trkpt lat="47.77563" lon="-3.53854">
        <ele>4.47</ele>
        <time>2020-07-08T09:12:23Z</time>
      </trkpt>
      <trkpt lat="47.77565" lon="-3.53856">
        <ele>4.74</ele>
        <time>2020-07-08T09:12:24Z</time>
      </trkpt>
      <trkpt lat="47.77568" lon="-3.53856">
        <ele>4.99</ele>
        <time>2020-07-08T09:12:25Z</time>
      </trkpt>
      <trkpt lat="47.77569" lon="-3.53856">
        <ele>5.14</ele>
        <time>2020-07-08T09:12:26Z</time>
      </trkpt>
      <trkpt lat="47.77569" lon="-3.53856">
        <ele>5.22</ele>
        <time>2020-07-08T09:12:27Z</time>
      </trkpt>
      <trkpt lat="47.77571" lon="-3.53857">
        <ele>5.3</ele>
        <time>2020-07-08T09:12:28Z</time>
      </trkpt>
      <trkpt lat="47.77571" lon="-3.53857">
        <ele>5.33</ele>
        <time>2020-07-08T09:12:29Z</time>
      </trkpt>
      <trkpt lat="47.77571" lon="-3.53857">
        <ele>5.33</ele>
        <time>2020-07-08T09:12:30Z</time>
      </trkpt>
      <trkpt lat="47.77571" lon="-3.53857">
        <ele>5.34</ele>
        <time>2020-07-08T09:12:31Z</time>
      </trkpt>
      <trkpt lat="47.77571" lon="-3.53857">
        <ele>5.34</ele>
        <time>2020-07-08T09:12:32Z</time>
      </trkpt>
      <trkpt lat="47.77571" lon="-3.53857">
        <ele>5.34</ele>
        <time>2020-07-08T09:12:33Z</time>
      </trkpt>
      <trkpt lat="47.77569" lon="-3.5385">
        <ele>5.41</ele>
        <time>2020-07-08T09:12:34Z</time>
      </trkpt>
      <trkpt lat="47.77567" lon="-3.53846">
        <ele>5.42</ele>
        <time>2020-07-08T09:12:35Z</time>
      </trkpt>
      <trkpt lat="47.77565" lon="-3.53841">
        <ele>5.31</ele>
        <time>2020-07-08T09:12:36Z</time>
      </trkpt>
      <trkpt lat="47.77564" lon="-3.53836">
        <ele>5.09</ele>
        <time>2020-07-08T09:12:37Z</time>
      </trkpt>
      <trkpt lat="47.77562" lon="-3.53831">
        <ele>4.88</ele>
        <time>2020-07-08T09:12:38Z</time>
      </trkpt>
      <trkpt lat="47.77562" lon="-3.53827">
        <ele>4.76</ele>
        <time>2020-07-08T09:12:39Z</time>
      </trkpt>
      <trkpt lat="47.77562" lon="-3.53824">
        <ele>4.8</ele>
        <time>2020-07-08T09:12:40Z</time>
      </trkpt>
      <trkpt lat="47.77562" lon="-3.5382">
        <ele>4.85</ele>
        <time>2020-07-08T09:12:41Z</time>
      </trkpt>
      <trkpt lat="47.77562" lon="-3.53816">
        <ele>4.73</ele>
        <time>2020-07-08T09:12:42Z</time>
      </trkpt>
      <trkpt lat="47.77561" lon="-3.53812">
        <ele>4.57</ele>
        <time>2020-07-08T09:12:43Z</time>
      </trkpt>
      <trkpt lat="47.77561" lon="-3.53807">
        <ele>4.5</ele>
        <time>2020-07-08T09:12:44Z</time>
      </trkpt>
      <trkpt lat="47.7756" lon="-3.538">
        <ele>4.39</ele>
        <time>2020-07-08T09:12:45Z</time>
      </trkpt>
      <trkpt lat="47.77558" lon="-3.53796">
        <ele>4.08</ele>
        <time>2020-07-08T09:12:46Z</time>
      </trkpt>
      <trkpt lat="47.77557" lon="-3.53791">
        <ele>3.83</ele>
        <time>2020-07-08T09:12:47Z</time>
      </trkpt>
      <trkpt lat="47.77555" lon="-3.53788">
        <ele>3.41</ele>
        <time>2020-07-08T09:12:48Z</time>
      </trkpt>
      <trkpt lat="47.77554" lon="-3.53787">
        <ele>3.39</ele>
        <time>2020-07-08T09:12:49Z</time>
      </trkpt>
      <trkpt lat="47.77553" lon="-3.53783">
        <ele>3.51</ele>
        <time>2020-07-08T09:12:50Z</time>
      </trkpt>
      <trkpt lat="47.77552" lon="-3.53778">
        <ele>3.66</ele>
        <time>2020-07-08T09:12:51Z</time>
      </trkpt>
      <trkpt lat="47.77551" lon="-3.53773">
        <ele>3.75</ele>
        <time>2020-07-08T09:12:52Z</time>
      </trkpt>
      <trkpt lat="47.77549" lon="-3.53768">
        <ele>3.71</ele>
        <time>2020-07-08T09:12:53Z</time>
      </trkpt>
      <trkpt lat="47.77548" lon="-3.53763">
        <ele>3.73</ele>
        <time>2020-07-08T09:12:54Z</time>
      </trkpt>
      <trkpt lat="47.77547" lon="-3.53758">
        <ele>3.71</ele>
        <time>2020-07-08T09:12:55Z</time>
      </trkpt>
      <trkpt lat="47.77547" lon="-3.53751">
        <ele>3.72</ele>
        <time>2020-07-08T09:12:56Z</time>
      </trkpt>
      <trkpt lat="47.77547" lon="-3.53745">
        <ele>3.81</ele>
        <time>2020-07-08T09:12:57Z</time>
      </trkpt>
      <trkpt lat="47.77546" lon="-3.5374">
        <ele>3.87</ele>
        <time>2020-07-08T09:12:58Z</time>
      </trkpt>
      <trkpt lat="47.77545" lon="-3.53734">
        <ele>3.86</ele>
        <time>2020-07-08T09:12:59Z</time>
      </trkpt>
      <trkpt lat="47.77545" lon="-3.53728">
        <ele>3.89</ele>
        <time>2020-07-08T09:13:00Z</time>
      </trkpt>
      <trkpt lat="47.77543" lon="-3.53722">
        <ele>3.76</ele>
        <time>2020-07-08T09:13:01Z</time>
      </trkpt>
      <trkpt lat="47.77542" lon="-3.53716">
        <ele>3.77</ele>
        <time>2020-07-08T09:13:02Z</time>
      </trkpt>
      <trkpt lat="47.7754" lon="-3.5371">
        <ele>3.68</ele>
        <time>2020-07-08T09:13:03Z</time>
      </trkpt>
      <trkpt lat="47.77539" lon="-3.53705">
        <ele>3.57</ele>
        <time>2020-07-08T09:13:04Z</time>
      </trkpt>
      <trkpt lat="47.77537" lon="-3.53699">
        <ele>3.33</ele>
        <time>2020-07-08T09:13:05Z</time>
      </trkpt>
      <trkpt lat="47.77533" lon="-3.5369">
        <ele>2.73</ele>
        <time>2020-07-08T09:13:06Z</time>
      </trkpt>
      <trkpt lat="47.77533" lon="-3.53684">
        <ele>2.43</ele>
        <time>2020-07-08T09:13:07Z</time>
      </trkpt>
      <trkpt lat="47.77532" lon="-3.53678">
        <ele>2.2</ele>
        <time>2020-07-08T09:13:08Z</time>
      </trkpt>
      <trkpt lat="47.77532" lon="-3.5367">
        <ele>2.2</ele>
        <time>2020-07-08T09:13:09Z</time>
      </trkpt>
      <trkpt lat="47.77533" lon="-3.53664">
        <ele>2.3</ele>
        <time>2020-07-08T09:13:10Z</time>
      </trkpt>
      <trkpt lat="47.77533" lon="-3.53657">
        <ele>2.43</ele>
        <time>2020-07-08T09:13:11Z</time>
      </trkpt>
      <trkpt lat="47.77533" lon="-3.53651">
        <ele>2.5</ele>
        <time>2020-07-08T09:13:12Z</time>
      </trkpt>
      <trkpt lat="47.77535" lon="-3.53645">
        <ele>2.7</ele>
        <time>2020-07-08T09:13:13Z</time>
      </trkpt>
      <trkpt lat="47.77536" lon="-3.53638">
        <ele>2.95</ele>
        <time>2020-07-08T09:13:14Z</time>
      </trkpt>
      <trkpt lat="47.77537" lon="-3.53632">
        <ele>3.05</ele>
        <time>2020-07-08T09:13:15Z</time>
      </trkpt>
      <trkpt lat="47.77539" lon="-3.53626">
        <ele>3.06</ele>
        <time>2020-07-08T09:13:16Z</time>
      </trkpt>
      <trkpt lat="47.7754" lon="-3.53619">
        <ele>3.05</ele>
        <time>2020-07-08T09:13:17Z</time>
      </trkpt>
      <trkpt lat="47.77541" lon="-3.53612">
        <ele>2.99</ele>
        <time>2020-07-08T09:13:18Z</time>
      </trkpt>
      <trkpt lat="47.77543" lon="-3.53607">
        <ele>3.01</ele>
        <time>2020-07-08T09:13:19Z</time>
      </trkpt>
      <trkpt lat="47.77546" lon="-3.53601">
        <ele>3.05</ele>
        <time>2020-07-08T09:13:20Z</time>
      </trkpt>
      <trkpt lat="47.7755" lon="-3.53598">
        <ele>3.18</ele>
        <time>2020-07-08T09:13:21Z</time>
      </trkpt>
      <trkpt lat="47.77554" lon="-3.53594">
        <ele>3.31</ele>
        <time>2020-07-08T09:13:22Z</time>
      </trkpt>
      <trkpt lat="47.77558" lon="-3.53592">
        <ele>3.64</ele>
        <time>2020-07-08T09:13:23Z</time>
      </trkpt>
      <trkpt lat="47.77561" lon="-3.53589">
        <ele>4.13</ele>
        <time>2020-07-08T09:13:24Z</time>
      </trkpt>
      <trkpt lat="47.77564" lon="-3.53587">
        <ele>4.64</ele>
        <time>2020-07-08T09:13:25Z</time>
      </trkpt>
      <trkpt lat="47.77567" lon="-3.53582">
        <ele>4.94</ele>
        <time>2020-07-08T09:13:26Z</time>
      </trkpt>
      <trkpt lat="47.77568" lon="-3.53577">
        <ele>4.93</ele>
        <time>2020-07-08T09:13:27Z</time>
      </trkpt>
      <trkpt lat="47.77568" lon="-3.53571">
        <ele>4.58</ele>
        <time>2020-07-08T09:13:28Z</time>
      </trkpt>
      <trkpt lat="47.77569" lon="-3.53566">
        <ele>4.13</ele>
        <time>2020-07-08T09:13:29Z</time>
      </trkpt>
      <trkpt lat="47.77571" lon="-3.53561">
        <ele>3.92</ele>
        <time>2020-07-08T09:13:30Z</time>
      </trkpt>
      <trkpt lat="47.77573" lon="-3.53555">
        <ele>3.86</ele>
        <time>2020-07-08T09:13:31Z</time>
      </trkpt>
      <trkpt lat="47.77576" lon="-3.5355">
        <ele>4.14</ele>
        <time>2020-07-08T09:13:32Z</time>
      </trkpt>
      <trkpt lat="47.77577" lon="-3.53545">
        <ele>4.39</ele>
        <time>2020-07-08T09:13:33Z</time>
      </trkpt>
      <trkpt lat="47.77579" lon="-3.53537">
        <ele>4.53</ele>
        <time>2020-07-08T09:13:34Z</time>
      </trkpt>
      <trkpt lat="47.7758" lon="-3.5353">
        <ele>4.53</ele>
        <time>2020-07-08T09:13:35Z</time>
      </trkpt>
      <trkpt lat="47.77581" lon="-3.53522">
        <ele>4.46</ele>
        <time>2020-07-08T09:13:36Z</time>
      </trkpt>
      <trkpt lat="47.77581" lon="-3.53514">
        <ele>4.32</ele>
        <time>2020-07-08T09:13:37Z</time>
      </trkpt>
      <trkpt lat="47.77582" lon="-3.53507">
        <ele>4.17</ele>
        <time>2020-07-08T09:13:38Z</time>
      </trkpt>
      <trkpt lat="47.77583" lon="-3.53501">
        <ele>4.03</ele>
        <time>2020-07-08T09:13:39Z</time>
      </trkpt>
      <trkpt lat="47.77584" lon="-3.53494">
        <ele>4.2</ele>
        <time>2020-07-08T09:13:40Z</time>
      </trkpt>
      <trkpt lat="47.77586" lon="-3.53487">
        <ele>4.59</ele>
        <time>2020-07-08T09:13:41Z</time>
      </trkpt>
      <trkpt lat="47.77586" lon="-3.5348">
        <ele>4.86</ele>
        <time>2020-07-08T09:13:42Z</time>
      </trkpt>
      <trkpt lat="47.77586" lon="-3.53473">
        <ele>4.9</ele>
        <time>2020-07-08T09:13:43Z</time>
      </trkpt>
      <trkpt lat="47.77585" lon="-3.53465">
        <ele>5.03</ele>
        <time>2020-07-08T09:13:44Z</time>
      </trkpt>
      <trkpt lat="47.77584" lon="-3.53459">
        <ele>5.17</ele>
        <time>2020-07-08T09:13:45Z</time>
      </trkpt>
      <trkpt lat="47.77584" lon="-3.53453">
        <ele>5.34</ele>
        <time>2020-07-08T09:13:46Z</time>
      </trkpt>
      <trkpt lat="47.77582" lon="-3.53447">
        <ele>5.53</ele>
        <time>2020-07-08T09:13:47Z</time>
      </trkpt>
      <trkpt lat="47.77581" lon="-3.53441">
        <ele>5.64</ele>
        <time>2020-07-08T09:13:48Z</time>
      </trkpt>
      <trkpt lat="47.7758" lon="-3.53434">
        <ele>5.59</ele>
        <time>2020-07-08T09:13:49Z</time>
      </trkpt>
      <trkpt lat="47.77579" lon="-3.53428">
        <ele>5.55</ele>
        <time>2020-07-08T09:13:50Z</time>
      </trkpt>
      <trkpt lat="47.77578" lon="-3.53421">
        <ele>5.55</ele>
        <time>2020-07-08T09:13:51Z</time>
      </trkpt>
      <trkpt lat="47.77576" lon="-3.53414">
        <ele>5.26</ele>
        <time>2020-07-08T09:13:52Z</time>
      </trkpt>
      <trkpt lat="47.77576" lon="-3.53407">
        <ele>4.88</ele>
        <time>2020-07-08T09:13:53Z</time>
      </trkpt>
      <trkpt lat="47.77577" lon="-3.534">
        <ele>4.59</ele>
        <time>2020-07-08T09:13:54Z</time>
      </trkpt>
      <trkpt lat="47.77577" lon="-3.53393">
        <ele>4.26</ele>
        <time>2020-07-08T09:13:55Z</time>
      </trkpt>
      <trkpt lat="47.77578" lon="-3.53385">
        <ele>3.83</ele>
        <time>2020-07-08T09:13:56Z</time>
      </trkpt>
      <trkpt lat="47.77579" lon="-3.53377">
        <ele>3.3</ele>
        <time>2020-07-08T09:13:57Z</time>
      </trkpt>
      <trkpt lat="47.7758" lon="-3.53368">
        <ele>2.66</ele>
        <time>2020-07-08T09:13:58Z</time>
      </trkpt>
      <trkpt lat="47.77581" lon="-3.5336">
        <ele>2.03</ele>
        <time>2020-07-08T09:13:59Z</time>
      </trkpt>
      <trkpt lat="47.77584" lon="-3.53353">
        <ele>1.59</ele>
        <time>2020-07-08T09:14:00Z</time>
      </trkpt>
      <trkpt lat="47.77587" lon="-3.53347">
        <ele>1.3</ele>
        <time>2020-07-08T09:14:01Z</time>
      </trkpt>
      <trkpt lat="47.77591" lon="-3.53343">
        <ele>1.1</ele>
        <time>2020-07-08T09:14:02Z</time>
      </trkpt>
      <trkpt lat="47.77595" lon="-3.53341">
        <ele>0.97</ele>
        <time>2020-07-08T09:14:03Z</time>
      </trkpt>
      <trkpt lat="47.776" lon="-3.5334">
        <ele>0.94</ele>
        <time>2020-07-08T09:14:04Z</time>
      </trkpt>
      <trkpt lat="47.77604" lon="-3.53341">
        <ele>1.08</ele>
        <time>2020-07-08T09:14:05Z</time>
      </trkpt>
      <trkpt lat="47.77608" lon="-3.53343">
        <ele>1.49</ele>
        <time>2020-07-08T09:14:06Z</time>
      </trkpt>
      <trkpt lat="47.77611" lon="-3.53346">
        <ele>2.02</ele>
        <time>2020-07-08T09:14:07Z</time>
      </trkpt>
      <trkpt lat="47.77614" lon="-3.53349">
        <ele>2.39</ele>
        <time>2020-07-08T09:14:08Z</time>
      </trkpt>
      <trkpt lat="47.77617" lon="-3.53352">
        <ele>2.68</ele>
        <time>2020-07-08T09:14:09Z</time>
      </trkpt>
      <trkpt lat="47.7762" lon="-3.53355">
        <ele>2.88</ele>
        <time>2020-07-08T09:14:10Z</time>
      </trkpt>
      <trkpt lat="47.77624" lon="-3.53356">
        <ele>2.92</ele>
        <time>2020-07-08T09:14:11Z</time>
      </trkpt>
      <trkpt lat="47.77627" lon="-3.53358">
        <ele>2.86</ele>
        <time>2020-07-08T09:14:12Z</time>
      </trkpt>
      <trkpt lat="47.77631" lon="-3.53359">
        <ele>2.69</ele>
        <time>2020-07-08T09:14:13Z</time>
      </trkpt>
      <trkpt lat="47.77634" lon="-3.53361">
        <ele>2.49</ele>
        <time>2020-07-08T09:14:14Z</time>
      </trkpt>
      <trkpt lat="47.77638" lon="-3.53362">
        <ele>2.31</ele>
        <time>2020-07-08T09:14:15Z</time>
      </trkpt>
      <trkpt lat="47.77642" lon="-3.53362">
        <ele>2.3</ele>
        <time>2020-07-08T09:14:16Z</time>
      </trkpt>
      <trkpt lat="47.77646" lon="-3.53363">
        <ele>2.32</ele>
        <time>2020-07-08T09:14:17Z</time>
      </trkpt>
      <trkpt lat="47.7765" lon="-3.53364">
        <ele>2.49</ele>
        <time>2020-07-08T09:14:18Z</time>
      </trkpt>
      <trkpt lat="47.77654" lon="-3.53365">
        <ele>2.8</ele>
        <time>2020-07-08T09:14:19Z</time>
      </trkpt>
      <trkpt lat="47.77658" lon="-3.53366">
        <ele>3.12</ele>
        <time>2020-07-08T09:14:20Z</time>
      </trkpt>
      <trkpt lat="47.77662" lon="-3.53368">
        <ele>3.52</ele>
        <time>2020-07-08T09:14:21Z</time>
      </trkpt>
      <trkpt lat="47.77666" lon="-3.53369">
        <ele>3.91</ele>
        <time>2020-07-08T09:14:22Z</time>
      </trkpt>
      <trkpt lat="47.77669" lon="-3.5337">
        <ele>4.29</ele>
        <time>2020-07-08T09:14:23Z</time>
      </trkpt>
      <trkpt lat="47.77673" lon="-3.53372">
        <ele>4.84</ele>
        <time>2020-07-08T09:14:24Z</time>
      </trkpt>
      <trkpt lat="47.77676" lon="-3.53373">
        <ele>5.34</ele>
        <time>2020-07-08T09:14:25Z</time>
      </trkpt>
      <trkpt lat="47.77679" lon="-3.53374">
        <ele>5.62</ele>
        <time>2020-07-08T09:14:26Z</time>
      </trkpt>
      <trkpt lat="47.77683" lon="-3.53374">
        <ele>5.63</ele>
        <time>2020-07-08T09:14:27Z</time>
      </trkpt>
      <trkpt lat="47.77685" lon="-3.53373">
        <ele>5.32</ele>
        <time>2020-07-08T09:14:28Z</time>
      </trkpt>
      <trkpt lat="47.77688" lon="-3.53372">
        <ele>4.89</ele>
        <time>2020-07-08T09:14:29Z</time>
      </trkpt>
      <trkpt lat="47.77691" lon="-3.53371">
        <ele>4.35</ele>
        <time>2020-07-08T09:14:30Z</time>
      </trkpt>
      <trkpt lat="47.77694" lon="-3.53369">
        <ele>3.8</ele>
        <time>2020-07-08T09:14:31Z</time>
      </trkpt>
      <trkpt lat="47.77698" lon="-3.53367">
        <ele>3.31</ele>
        <time>2020-07-08T09:14:32Z</time>
      </trkpt>
      <trkpt lat="47.77703" lon="-3.53363">
        <ele>2.63</ele>
        <time>2020-07-08T09:14:33Z</time>
      </trkpt>
      <trkpt lat="47.77708" lon="-3.5336">
        <ele>2.1</ele>
        <time>2020-07-08T09:14:34Z</time>
      </trkpt>
      <trkpt lat="47.77712" lon="-3.53358">
        <ele>1.96</ele>
        <time>2020-07-08T09:14:35Z</time>
      </trkpt>
      <trkpt lat="47.77717" lon="-3.53356">
        <ele>1.95</ele>
        <time>2020-07-08T09:14:36Z</time>
      </trkpt>
      <trkpt lat="47.77722" lon="-3.53355">
        <ele>2.03</ele>
        <time>2020-07-08T09:14:37Z</time>
      </trkpt>
      <trkpt lat="47.77726" lon="-3.53354">
        <ele>2.26</ele>
        <time>2020-07-08T09:14:38Z</time>
      </trkpt>
      <trkpt lat="47.7773" lon="-3.53354">
        <ele>2.59</ele>
        <time>2020-07-08T09:14:39Z</time>
      </trkpt>
      <trkpt lat="47.77733" lon="-3.53353">
        <ele>2.89</ele>
        <time>2020-07-08T09:14:40Z</time>
      </trkpt>
      <trkpt lat="47.77736" lon="-3.53352">
        <ele>3.07</ele>
        <time>2020-07-08T09:14:41Z</time>
      </trkpt>
      <trkpt lat="47.7774" lon="-3.5335">
        <ele>3.14</ele>
        <time>2020-07-08T09:14:42Z</time>
      </trkpt>
      <trkpt lat="47.77744" lon="-3.53348">
        <ele>3.21</ele>
        <time>2020-07-08T09:14:43Z</time>
      </trkpt>
      <trkpt lat="47.77748" lon="-3.53347">
        <ele>3.23</ele>
        <time>2020-07-08T09:14:44Z</time>
      </trkpt>
      <trkpt lat="47.77752" lon="-3.53346">
        <ele>3.23</ele>
        <time>2020-07-08T09:14:45Z</time>
      </trkpt>
      <trkpt lat="47.77757" lon="-3.53346">
        <ele>3.39</ele>
        <time>2020-07-08T09:14:46Z</time>
      </trkpt>
      <trkpt lat="47.77762" lon="-3.53346">
        <ele>3.61</ele>
        <time>2020-07-08T09:14:47Z</time>
      </trkpt>
      <trkpt lat="47.77766" lon="-3.53347">
        <ele>3.9</ele>
        <time>2020-07-08T09:14:48Z</time>
      </trkpt>
      <trkpt lat="47.7777" lon="-3.53347">
        <ele>4.1</ele>
        <time>2020-07-08T09:14:49Z</time>
      </trkpt>
      <trkpt lat="47.77773" lon="-3.53348">
        <ele>4.42</ele>
        <time>2020-07-08T09:14:50Z</time>
      </trkpt>
      <trkpt lat="47.77776" lon="-3.53349">
        <ele>4.85</ele>
        <time>2020-07-08T09:14:51Z</time>
      </trkpt>
      <trkpt lat="47.77781" lon="-3.5335">
        <ele>5.04</ele>
        <time>2020-07-08T09:14:52Z</time>
      </trkpt>
      <trkpt lat="47.77785" lon="-3.53351">
        <ele>5.39</ele>
        <time>2020-07-08T09:14:53Z</time>
      </trkpt>
      <trkpt lat="47.77789" lon="-3.53352">
        <ele>5.7</ele>
        <time>2020-07-08T09:14:54Z</time>
      </trkpt>
      <trkpt lat="47.77793" lon="-3.53353">
        <ele>5.82</ele>
        <time>2020-07-08T09:14:55Z</time>
      </trkpt>
      <trkpt lat="47.77797" lon="-3.53353">
        <ele>5.89</ele>
        <time>2020-07-08T09:14:56Z</time>
      </trkpt>
      <trkpt lat="47.778" lon="-3.53352">
        <ele>5.85</ele>
        <time>2020-07-08T09:14:57Z</time>
      </trkpt>
      <trkpt lat="47.77804" lon="-3.53352">
        <ele>5.72</ele>
        <time>2020-07-08T09:14:58Z</time>
      </trkpt>
      <trkpt lat="47.77808" lon="-3.53351">
        <ele>5.48</ele>
        <time>2020-07-08T09:14:59Z</time>
      </trkpt>
      <trkpt lat="47.77812" lon="-3.5335">
        <ele>5.34</ele>
        <time>2020-07-08T09:15:00Z</time>
      </trkpt>
      <trkpt lat="47.77816" lon="-3.53349">
        <ele>5.31</ele>
        <time>2020-07-08T09:15:01Z</time>
      </trkpt>
      <trkpt lat="47.77821" lon="-3.53349">
        <ele>5.37</ele>
        <time>2020-07-08T09:15:02Z</time>
      </trkpt>
      <trkpt lat="47.77825" lon="-3.53349">
        <ele>5.45</ele>
        <time>2020-07-08T09:15:03Z</time>
      </trkpt>
      <trkpt lat="47.7783" lon="-3.53349">
        <ele>5.44</ele>
        <time>2020-07-08T09:15:04Z</time>
      </trkpt>
      <trkpt lat="47.77835" lon="-3.53348">
        <ele>5.32</ele>
        <time>2020-07-08T09:15:05Z</time>
      </trkpt>
      <trkpt lat="47.77839" lon="-3.53347">
        <ele>5.35</ele>
        <time>2020-07-08T09:15:06Z</time>
      </trkpt>
      <trkpt lat="47.77842" lon="-3.53347">
        <ele>5.49</ele>
        <time>2020-07-08T09:15:07Z</time>
      </trkpt>
      <trkpt lat="47.77846" lon="-3.53346">
        <ele>5.54</ele>
        <time>2020-07-08T09:15:08Z</time>
      </trkpt>
      <trkpt lat="47.7785" lon="-3.53345">
        <ele>5.63</ele>
        <time>2020-07-08T09:15:09Z</time>
      </trkpt>
      <trkpt lat="47.77852" lon="-3.53345">
        <ele>5.73</ele>
        <time>2020-07-08T09:15:10Z</time>
      </trkpt>
      <trkpt lat="47.77856" lon="-3.53344">
        <ele>5.7</ele>
        <time>2020-07-08T09:15:11Z</time>
      </trkpt>
      <trkpt lat="47.77859" lon="-3.53343">
        <ele>5.6</ele>
        <time>2020-07-08T09:15:12Z</time>
      </trkpt>
      <trkpt lat="47.77863" lon="-3.53341">
        <ele>5.52</ele>
        <time>2020-07-08T09:15:13Z</time>
      </trkpt>
      <trkpt lat="47.77867" lon="-3.53339">
        <ele>5.37</ele>
        <time>2020-07-08T09:15:14Z</time>
      </trkpt>
      <trkpt lat="47.77872" lon="-3.53335">
        <ele>4.98</ele>
        <time>2020-07-08T09:15:15Z</time>
      </trkpt>
      <trkpt lat="47.77878" lon="-3.53332">
        <ele>4.61</ele>
        <time>2020-07-08T09:15:16Z</time>
      </trkpt>
      <trkpt lat="47.77884" lon="-3.53328">
        <ele>4.32</ele>
        <time>2020-07-08T09:15:17Z</time>
      </trkpt>
      <trkpt lat="47.7789" lon="-3.53325">
        <ele>4.14</ele>
        <time>2020-07-08T09:15:18Z</time>
      </trkpt>
      <trkpt lat="47.77895" lon="-3.53322">
        <ele>3.65</ele>
        <time>2020-07-08T09:15:19Z</time>
      </trkpt>
      <trkpt lat="47.779" lon="-3.53319">
        <ele>3.2</ele>
        <time>2020-07-08T09:15:20Z</time>
      </trkpt>
      <trkpt lat="47.77905" lon="-3.53317">
        <ele>2.9</ele>
        <time>2020-07-08T09:15:21Z</time>
      </trkpt>
      <trkpt lat="47.7791" lon="-3.53315">
        <ele>2.75</ele>
        <time>2020-07-08T09:15:22Z</time>
      </trkpt>
      <trkpt lat="47.77914" lon="-3.53314">
        <ele>2.64</ele>
        <time>2020-07-08T09:15:23Z</time>
      </trkpt>
      <trkpt lat="47.77918" lon="-3.53314">
        <ele>2.66</ele>
        <time>2020-07-08T09:15:24Z</time>
      </trkpt>
      <trkpt lat="47.7792" lon="-3.53315">
        <ele>2.78</ele>
        <time>2020-07-08T09:15:25Z</time>
      </trkpt>
      <trkpt lat="47.77922" lon="-3.53317">
        <ele>2.93</ele>
        <time>2020-07-08T09:15:26Z</time>
      </trkpt>
      <trkpt lat="47.77923" lon="-3.53319">
        <ele>3.16</ele>
        <time>2020-07-08T09:15:27Z</time>
      </trkpt>
      <trkpt lat="47.77925" lon="-3.53322">
        <ele>3.4</ele>
        <time>2020-07-08T09:15:28Z</time>
      </trkpt>
      <trkpt lat="47.77928" lon="-3.53326">
        <ele>3.68</ele>
        <time>2020-07-08T09:15:29Z</time>
      </trkpt>
      <trkpt lat="47.7793" lon="-3.53329">
        <ele>3.91</ele>
        <time>2020-07-08T09:15:30Z</time>
      </trkpt>
      <trkpt lat="47.77933" lon="-3.53333">
        <ele>4.08</ele>
        <time>2020-07-08T09:15:31Z</time>
      </trkpt>
      <trkpt lat="47.77935" lon="-3.53337">
        <ele>4.34</ele>
        <time>2020-07-08T09:15:32Z</time>
      </trkpt>
      <trkpt lat="47.77938" lon="-3.5334">
        <ele>4.43</ele>
        <time>2020-07-08T09:15:33Z</time>
      </trkpt>
      <trkpt lat="47.77941" lon="-3.53343">
        <ele>4.49</ele>
        <time>2020-07-08T09:15:34Z</time>
      </trkpt>
      <trkpt lat="47.77943" lon="-3.53344">
        <ele>4.27</ele>
        <time>2020-07-08T09:15:35Z</time>
      </trkpt>
      <trkpt lat="47.77946" lon="-3.53345">
        <ele>4.15</ele>
        <time>2020-07-08T09:15:36Z</time>
      </trkpt>
      <trkpt lat="47.77948" lon="-3.53344">
        <ele>3.97</ele>
        <time>2020-07-08T09:15:37Z</time>
      </trkpt>
      <trkpt lat="47.7795" lon="-3.53342">
        <ele>3.62</ele>
        <time>2020-07-08T09:15:38Z</time>
      </trkpt>
      <trkpt lat="47.77954" lon="-3.5334">
        <ele>3.3</ele>
        <time>2020-07-08T09:15:39Z</time>
      </trkpt>
      <trkpt lat="47.77957" lon="-3.53338">
        <ele>2.98</ele>
        <time>2020-07-08T09:15:40Z</time>
      </trkpt>
      <trkpt lat="47.77961" lon="-3.53338">
        <ele>2.84</ele>
        <time>2020-07-08T09:15:41Z</time>
      </trkpt>
      <trkpt lat="47.77963" lon="-3.53337">
        <ele>2.69</ele>
        <time>2020-07-08T09:15:42Z</time>
      </trkpt>
      <trkpt lat="47.77966" lon="-3.53337">
        <ele>2.65</ele>
        <time>2020-07-08T09:15:43Z</time>
      </trkpt>
      <trkpt lat="47.7797" lon="-3.53338">
        <ele>2.74</ele>
        <time>2020-07-08T09:15:44Z</time>
      </trkpt>
      <trkpt lat="47.77973" lon="-3.53338">
        <ele>2.92</ele>
        <time>2020-07-08T09:15:45Z</time>
      </trkpt>
      <trkpt lat="47.77975" lon="-3.53338">
        <ele>3.25</ele>
        <time>2020-07-08T09:15:46Z</time>
      </trkpt>
      <trkpt lat="47.77978" lon="-3.53339">
        <ele>3.69</ele>
        <time>2020-07-08T09:15:47Z</time>
      </trkpt>
      <trkpt lat="47.77981" lon="-3.53338">
        <ele>4.03</ele>
        <time>2020-07-08T09:15:48Z</time>
      </trkpt>
      <trkpt lat="47.77985" lon="-3.53336">
        <ele>4.23</ele>
        <time>2020-07-08T09:15:49Z</time>
      </trkpt>
      <trkpt lat="47.77989" lon="-3.53332">
        <ele>4.25</ele>
        <time>2020-07-08T09:15:50Z</time>
      </trkpt>
      <trkpt lat="47.77993" lon="-3.53327">
        <ele>3.96</ele>
        <time>2020-07-08T09:15:51Z</time>
      </trkpt>
      <trkpt lat="47.77995" lon="-3.53323">
        <ele>3.51</ele>
        <time>2020-07-08T09:15:52Z</time>
      </trkpt>
      <trkpt lat="47.77998" lon="-3.53319">
        <ele>2.9</ele>
        <time>2020-07-08T09:15:53Z</time>
      </trkpt>
      <trkpt lat="47.78001" lon="-3.53314">
        <ele>2.21</ele>
        <time>2020-07-08T09:15:54Z</time>
      </trkpt>
      <trkpt lat="47.78005" lon="-3.5331">
        <ele>1.87</ele>
        <time>2020-07-08T09:15:55Z</time>
      </trkpt>
      <trkpt lat="47.78009" lon="-3.53307">
        <ele>1.68</ele>
        <time>2020-07-08T09:15:56Z</time>
      </trkpt>
      <trkpt lat="47.78013" lon="-3.53304">
        <ele>1.73</ele>
        <time>2020-07-08T09:15:57Z</time>
      </trkpt>
      <trkpt lat="47.78018" lon="-3.53302">
        <ele>2.03</ele>
        <time>2020-07-08T09:15:58Z</time>
      </trkpt>
      <trkpt lat="47.78023" lon="-3.533">
        <ele>2.46</ele>
        <time>2020-07-08T09:15:59Z</time>
      </trkpt>
      <trkpt lat="47.78027" lon="-3.533">
        <ele>2.93</ele>
        <time>2020-07-08T09:16:00Z</time>
      </trkpt>
      <trkpt lat="47.78031" lon="-3.53298">
        <ele>3.08</ele>
        <time>2020-07-08T09:16:01Z</time>
      </trkpt>
      <trkpt lat="47.78035" lon="-3.53296">
        <ele>3.03</ele>
        <time>2020-07-08T09:16:02Z</time>
      </trkpt>
      <trkpt lat="47.78039" lon="-3.53293">
        <ele>2.79</ele>
        <time>2020-07-08T09:16:03Z</time>
      </trkpt>
      <trkpt lat="47.78043" lon="-3.5329">
        <ele>2.44</ele>
        <time>2020-07-08T09:16:04Z</time>
      </trkpt>
      <trkpt lat="47.78048" lon="-3.53288">
        <ele>2.11</ele>
        <time>2020-07-08T09:16:05Z</time>
      </trkpt>
      <trkpt lat="47.78053" lon="-3.53287">
        <ele>1.98</ele>
        <time>2020-07-08T09:16:06Z</time>
      </trkpt>
      <trkpt lat="47.78057" lon="-3.53288">
        <ele>2.13</ele>
        <time>2020-07-08T09:16:07Z</time>
      </trkpt>
      <trkpt lat="47.78061" lon="-3.53288">
        <ele>2.26</ele>
        <time>2020-07-08T09:16:08Z</time>
      </trkpt>
      <trkpt lat="47.78065" lon="-3.53289">
        <ele>2.42</ele>
        <time>2020-07-08T09:16:09Z</time>
      </trkpt>
      <trkpt lat="47.78069" lon="-3.53289">
        <ele>2.59</ele>
        <time>2020-07-08T09:16:10Z</time>
      </trkpt>
      <trkpt lat="47.78073" lon="-3.5329">
        <ele>2.9</ele>
        <time>2020-07-08T09:16:11Z</time>
      </trkpt>
      <trkpt lat="47.78076" lon="-3.53292">
        <ele>3.23</ele>
        <time>2020-07-08T09:16:12Z</time>
      </trkpt>
      <trkpt lat="47.78079" lon="-3.53292">
        <ele>3.42</ele>
        <time>2020-07-08T09:16:13Z</time>
      </trkpt>
      <trkpt lat="47.78082" lon="-3.53292">
        <ele>3.43</ele>
        <time>2020-07-08T09:16:14Z</time>
      </trkpt>
      <trkpt lat="47.78084" lon="-3.53291">
        <ele>3.4</ele>
        <time>2020-07-08T09:16:15Z</time>
      </trkpt>
      <trkpt lat="47.78087" lon="-3.5329">
        <ele>3.35</ele>
        <time>2020-07-08T09:16:16Z</time>
      </trkpt>
      <trkpt lat="47.7809" lon="-3.53289">
        <ele>3.22</ele>
        <time>2020-07-08T09:16:17Z</time>
      </trkpt>
      <trkpt lat="47.78095" lon="-3.53284">
        <ele>2.64</ele>
        <time>2020-07-08T09:16:19Z</time>
      </trkpt>
      <trkpt lat="47.78098" lon="-3.53283">
        <ele>2.57</ele>
        <time>2020-07-08T09:16:20Z</time>
      </trkpt>
      <trkpt lat="47.78102" lon="-3.53283">
        <ele>2.62</ele>
        <time>2020-07-08T09:16:21Z</time>
      </trkpt>
      <trkpt lat="47.78105" lon="-3.53282">
        <ele>2.6</ele>
        <time>2020-07-08T09:16:22Z</time>
      </trkpt>
      <trkpt lat="47.78108" lon="-3.5328">
        <ele>2.44</ele>
        <time>2020-07-08T09:16:23Z</time>
      </trkpt>
      <trkpt lat="47.78112" lon="-3.53278">
        <ele>2.28</ele>
        <time>2020-07-08T09:16:24Z</time>
      </trkpt>
      <trkpt lat="47.78116" lon="-3.53275">
        <ele>2.34</ele>
        <time>2020-07-08T09:16:25Z</time>
      </trkpt>
      <trkpt lat="47.7812" lon="-3.53273">
        <ele>2.45</ele>
        <time>2020-07-08T09:16:26Z</time>
      </trkpt>
      <trkpt lat="47.78123" lon="-3.5327">
        <ele>2.51</ele>
        <time>2020-07-08T09:16:27Z</time>
      </trkpt>
      <trkpt lat="47.78126" lon="-3.53267">
        <ele>2.45</ele>
        <time>2020-07-08T09:16:28Z</time>
      </trkpt>
      <trkpt lat="47.7813" lon="-3.53264">
        <ele>2.21</ele>
        <time>2020-07-08T09:16:29Z</time>
      </trkpt>
      <trkpt lat="47.78132" lon="-3.5326">
        <ele>1.84</ele>
        <time>2020-07-08T09:16:30Z</time>
      </trkpt>
      <trkpt lat="47.78135" lon="-3.53257">
        <ele>1.38</ele>
        <time>2020-07-08T09:16:31Z</time>
      </trkpt>
      <trkpt lat="47.78138" lon="-3.53255">
        <ele>1.09</ele>
        <time>2020-07-08T09:16:32Z</time>
      </trkpt>
      <trkpt lat="47.78142" lon="-3.53253">
        <ele>0.9</ele>
        <time>2020-07-08T09:16:33Z</time>
      </trkpt>
      <trkpt lat="47.78146" lon="-3.53253">
        <ele>1.03</ele>
        <time>2020-07-08T09:16:34Z</time>
      </trkpt>
      <trkpt lat="47.7815" lon="-3.53253">
        <ele>1.36</ele>
        <time>2020-07-08T09:16:35Z</time>
      </trkpt>
      <trkpt lat="47.78153" lon="-3.53255">
        <ele>1.93</ele>
        <time>2020-07-08T09:16:36Z</time>
      </trkpt>
      <trkpt lat="47.78156" lon="-3.53257">
        <ele>2.59</ele>
        <time>2020-07-08T09:16:37Z</time>
      </trkpt>
      <trkpt lat="47.78159" lon="-3.53257">
        <ele>2.98</ele>
        <time>2020-07-08T09:16:38Z</time>
      </trkpt>
      <trkpt lat="47.78163" lon="-3.53256">
        <ele>3.16</ele>
        <time>2020-07-08T09:16:39Z</time>
      </trkpt>
      <trkpt lat="47.78167" lon="-3.53255">
        <ele>3.23</ele>
        <time>2020-07-08T09:16:40Z</time>
      </trkpt>
      <trkpt lat="47.78171" lon="-3.53254">
        <ele>3.02</ele>
        <time>2020-07-08T09:16:41Z</time>
      </trkpt>
      <trkpt lat="47.78175" lon="-3.53253">
        <ele>2.89</ele>
        <time>2020-07-08T09:16:42Z</time>
      </trkpt>
      <trkpt lat="47.78179" lon="-3.53254">
        <ele>2.91</ele>
        <time>2020-07-08T09:16:43Z</time>
      </trkpt>
      <trkpt lat="47.78184" lon="-3.53255">
        <ele>3.1</ele>
        <time>2020-07-08T09:16:44Z</time>
      </trkpt>
      <trkpt lat="47.78187" lon="-3.53256">
        <ele>3.48</ele>
        <time>2020-07-08T09:16:45Z</time>
      </trkpt>
      <trkpt lat="47.78192" lon="-3.53257">
        <ele>3.71</ele>
        <time>2020-07-08T09:16:46Z</time>
      </trkpt>
      <trkpt lat="47.78196" lon="-3.53259">
        <ele>4.03</ele>
        <time>2020-07-08T09:16:47Z</time>
      </trkpt>
      <trkpt lat="47.78199" lon="-3.53258">
        <ele>4.12</ele>
        <time>2020-07-08T09:16:48Z</time>
      </trkpt>
      <trkpt lat="47.78202" lon="-3.53258">
        <ele>4.19</ele>
        <time>2020-07-08T09:16:49Z</time>
      </trkpt>
      <trkpt lat="47.78206" lon="-3.53257">
        <ele>4.13</ele>
        <time>2020-07-08T09:16:50Z</time>
      </trkpt>
      <trkpt lat="47.78209" lon="-3.53256">
        <ele>3.86</ele>
        <time>2020-07-08T09:16:51Z</time>
      </trkpt>
      <trkpt lat="47.78214" lon="-3.53254">
        <ele>3.44</ele>
        <time>2020-07-08T09:16:52Z</time>
      </trkpt>
      <trkpt lat="47.78218" lon="-3.53252">
        <ele>2.76</ele>
        <time>2020-07-08T09:16:53Z</time>
      </trkpt>
      <trkpt lat="47.78222" lon="-3.53248">
        <ele>2.09</ele>
        <time>2020-07-08T09:16:54Z</time>
      </trkpt>
      <trkpt lat="47.78226" lon="-3.53245">
        <ele>2.07</ele>
        <time>2020-07-08T09:16:55Z</time>
      </trkpt>
      <trkpt lat="47.7823" lon="-3.53241">
        <ele>2.08</ele>
        <time>2020-07-08T09:16:56Z</time>
      </trkpt>
      <trkpt lat="47.78235" lon="-3.53237">
        <ele>2.13</ele>
        <time>2020-07-08T09:16:57Z</time>
      </trkpt>
      <trkpt lat="47.7824" lon="-3.53235">
        <ele>2.2</ele>
        <time>2020-07-08T09:16:58Z</time>
      </trkpt>
      <trkpt lat="47.78244" lon="-3.53234">
        <ele>2.34</ele>
        <time>2020-07-08T09:16:59Z</time>
      </trkpt>
      <trkpt lat="47.78248" lon="-3.53233">
        <ele>2.52</ele>
        <time>2020-07-08T09:17:00Z</time>
      </trkpt>
      <trkpt lat="47.78251" lon="-3.53232">
        <ele>2.58</ele>
        <time>2020-07-08T09:17:01Z</time>
      </trkpt>
      <trkpt lat="47.78255" lon="-3.5323">
        <ele>2.33</ele>
        <time>2020-07-08T09:17:02Z</time>
      </trkpt>
      <trkpt lat="47.78259" lon="-3.53229">
        <ele>2.18</ele>
        <time>2020-07-08T09:17:03Z</time>
      </trkpt>
      <trkpt lat="47.78264" lon="-3.53228">
        <ele>1.99</ele>
        <time>2020-07-08T09:17:04Z</time>
      </trkpt>
      <trkpt lat="47.78268" lon="-3.53227">
        <ele>1.84</ele>
        <time>2020-07-08T09:17:05Z</time>
      </trkpt>
      <trkpt lat="47.78272" lon="-3.53226">
        <ele>1.71</ele>
        <time>2020-07-08T09:17:06Z</time>
      </trkpt>
      <trkpt lat="47.78276" lon="-3.53226">
        <ele>1.78</ele>
        <time>2020-07-08T09:17:07Z</time>
      </trkpt>
      <trkpt lat="47.78281" lon="-3.53225">
        <ele>1.8</ele>
        <time>2020-07-08T09:17:08Z</time>
      </trkpt>
      <trkpt lat="47.78286" lon="-3.53225">
        <ele>1.88</ele>
        <time>2020-07-08T09:17:09Z</time>
      </trkpt>
      <trkpt lat="47.78291" lon="-3.53226">
        <ele>2.21</ele>
        <time>2020-07-08T09:17:10Z</time>
      </trkpt>
      <trkpt lat="47.78295" lon="-3.53226">
        <ele>2.43</ele>
        <time>2020-07-08T09:17:11Z</time>
      </trkpt>
      <trkpt lat="47.783" lon="-3.53227">
        <ele>2.7</ele>
        <time>2020-07-08T09:17:12Z</time>
      </trkpt>
      <trkpt lat="47.78304" lon="-3.53229">
        <ele>3.19</ele>
        <time>2020-07-08T09:17:13Z</time>
      </trkpt>
      <trkpt lat="47.78309" lon="-3.5323">
        <ele>3.5</ele>
        <time>2020-07-08T09:17:14Z</time>
      </trkpt>
      <trkpt lat="47.78313" lon="-3.53233">
        <ele>3.75</ele>
        <time>2020-07-08T09:17:15Z</time>
      </trkpt>
      <trkpt lat="47.78316" lon="-3.53234">
        <ele>3.9</ele>
        <time>2020-07-08T09:17:16Z</time>
      </trkpt>
      <trkpt lat="47.78319" lon="-3.53234">
        <ele>3.94</ele>
        <time>2020-07-08T09:17:17Z</time>
      </trkpt>
      <trkpt lat="47.7832" lon="-3.53234">
        <ele>3.9</ele>
        <time>2020-07-08T09:17:18Z</time>
      </trkpt>
      <trkpt lat="47.78322" lon="-3.53234">
        <ele>3.84</ele>
        <time>2020-07-08T09:17:19Z</time>
      </trkpt>
      <trkpt lat="47.78322" lon="-3.53235">
        <ele>3.87</ele>
        <time>2020-07-08T09:17:20Z</time>
      </trkpt>
      <trkpt lat="47.78323" lon="-3.53237">
        <ele>4.05</ele>
        <time>2020-07-08T09:17:21Z</time>
      </trkpt>
      <trkpt lat="47.78323" lon="-3.53237">
        <ele>4.11</ele>
        <time>2020-07-08T09:17:22Z</time>
      </trkpt>
      <trkpt lat="47.78323" lon="-3.53237">
        <ele>4.13</ele>
        <time>2020-07-08T09:17:23Z</time>
      </trkpt>
      <trkpt lat="47.78326" lon="-3.5324">
        <ele>4.5</ele>
        <time>2020-07-08T09:17:24Z</time>
      </trkpt>
      <trkpt lat="47.78329" lon="-3.53242">
        <ele>4.74</ele>
        <time>2020-07-08T09:17:25Z</time>
      </trkpt>
      <trkpt lat="47.78332" lon="-3.53243">
        <ele>4.81</ele>
        <time>2020-07-08T09:17:26Z</time>
      </trkpt>
      <trkpt lat="47.78333" lon="-3.53242">
        <ele>4.69</ele>
        <time>2020-07-08T09:17:27Z</time>
      </trkpt>
      <trkpt lat="47.78335" lon="-3.53243">
        <ele>4.82</ele>
        <time>2020-07-08T09:17:28Z</time>
      </trkpt>
      <trkpt lat="47.78336" lon="-3.53242">
        <ele>4.93</ele>
        <time>2020-07-08T09:17:29Z</time>
      </trkpt>
      <trkpt lat="47.78338" lon="-3.53242">
        <ele>5.09</ele>
        <time>2020-07-08T09:17:30Z</time>
      </trkpt>
      <trkpt lat="47.7834" lon="-3.53241">
        <ele>5.21</ele>
        <time>2020-07-08T09:17:31Z</time>
      </trkpt>
      <trkpt lat="47.78341" lon="-3.5324">
        <ele>5.26</ele>
        <time>2020-07-08T09:17:32Z</time>
      </trkpt>
      <trkpt lat="47.78341" lon="-3.53239">
        <ele>5.2</ele>
        <time>2020-07-08T09:17:33Z</time>
      </trkpt>
      <trkpt lat="47.78341" lon="-3.53239">
        <ele>5.15</ele>
        <time>2020-07-08T09:17:34Z</time>
      </trkpt>
      <trkpt lat="47.78341" lon="-3.53239">
        <ele>5.13</ele>
        <time>2020-07-08T09:17:35Z</time>
      </trkpt>
      <trkpt lat="47.78341" lon="-3.53239">
        <ele>5.13</ele>
        <time>2020-07-08T09:17:36Z</time>
      </trkpt>
      <trkpt lat="47.78341" lon="-3.53239">
        <ele>5.13</ele>
        <time>2020-07-08T09:17:37Z</time>
      </trkpt>
      <trkpt lat="47.78341" lon="-3.53239">
        <ele>5.13</ele>
        <time>2020-07-08T09:17:38Z</time>
      </trkpt>
      <trkpt lat="47.78341" lon="-3.53239">
        <ele>5.13</ele>
        <time>2020-07-08T09:17:39Z</time>
      </trkpt>
      <trkpt lat="47.78341" lon="-3.53239">
        <ele>5.13</ele>
        <time>2020-07-08T09:17:40Z</time>
      </trkpt>
      <trkpt lat="47.78341" lon="-3.53239">
        <ele>5.13</ele>
        <time>2020-07-08T09:17:41Z</time>
      </trkpt>
      <trkpt lat="47.78341" lon="-3.53239">
        <ele>5.13</ele>
        <time>2020-07-08T09:17:42Z</time>
      </trkpt>
      <trkpt lat="47.78341" lon="-3.53239">
        <ele>5.13</ele>
        <time>2020-07-08T09:17:43Z</time>
      </trkpt>
      <trkpt lat="47.78341" lon="-3.53239">
        <ele>5.13</ele>
        <time>2020-07-08T09:17:44Z</time>
      </trkpt>
      <trkpt lat="47.78341" lon="-3.53239">
        <ele>5.13</ele>
        <time>2020-07-08T09:17:45Z</time>
      </trkpt>
      <trkpt lat="47.78341" lon="-3.53239">
        <ele>5.13</ele>
        <time>2020-07-08T09:17:46Z</time>
      </trkpt>
      <trkpt lat="47.78348" lon="-3.53229">
        <ele>5.07</ele>
        <time>2020-07-08T09:17:47Z</time>
      </trkpt>
      <trkpt lat="47.78349" lon="-3.53228">
        <ele>5.03</ele>
        <time>2020-07-08T09:17:48Z</time>
      </trkpt>
      <trkpt lat="47.78349" lon="-3.53227">
        <ele>4.94</ele>
        <time>2020-07-08T09:17:49Z</time>
      </trkpt>
      <trkpt lat="47.78349" lon="-3.53226">
        <ele>4.86</ele>
        <time>2020-07-08T09:17:50Z</time>
      </trkpt>
      <trkpt lat="47.78349" lon="-3.53226">
        <ele>4.84</ele>
        <time>2020-07-08T09:17:51Z</time>
      </trkpt>
      <trkpt lat="47.78349" lon="-3.53226">
        <ele>4.83</ele>
        <time>2020-07-08T09:17:52Z</time>
      </trkpt>
      <trkpt lat="47.78349" lon="-3.53226">
        <ele>4.83</ele>
        <time>2020-07-08T09:17:53Z</time>
      </trkpt>
      <trkpt lat="47.78349" lon="-3.53226">
        <ele>4.83</ele>
        <time>2020-07-08T09:17:54Z</time>
      </trkpt>
      <trkpt lat="47.78349" lon="-3.53226">
        <ele>4.83</ele>
        <time>2020-07-08T09:17:55Z</time>
      </trkpt>
      <trkpt lat="47.78349" lon="-3.53226">
        <ele>4.83</ele>
        <time>2020-07-08T09:17:56Z</time>
      </trkpt>
      <trkpt lat="47.78349" lon="-3.53226">
        <ele>4.83</ele>
        <time>2020-07-08T09:17:57Z</time>
      </trkpt>
      <trkpt lat="47.78349" lon="-3.53226">
        <ele>4.83</ele>
        <time>2020-07-08T09:17:58Z</time>
      </trkpt>
      <trkpt lat="47.78349" lon="-3.53226">
        <ele>4.83</ele>
        <time>2020-07-08T09:17:59Z</time>
      </trkpt>
      <trkpt lat="47.78355" lon="-3.53214">
        <ele>4.96</ele>
        <time>2020-07-08T09:18:00Z</time>
      </trkpt>
      <trkpt lat="47.78356" lon="-3.53213">
        <ele>4.94</ele>
        <time>2020-07-08T09:18:01Z</time>
      </trkpt>
      <trkpt lat="47.78356" lon="-3.53211">
        <ele>4.87</ele>
        <time>2020-07-08T09:18:02Z</time>
      </trkpt>
      <trkpt lat="47.78356" lon="-3.5321">
        <ele>4.8</ele>
        <time>2020-07-08T09:18:03Z</time>
      </trkpt>
      <trkpt lat="47.78356" lon="-3.5321">
        <ele>4.78</ele>
        <time>2020-07-08T09:18:04Z</time>
      </trkpt>
      <trkpt lat="47.78356" lon="-3.5321">
        <ele>4.77</ele>
        <time>2020-07-08T09:18:05Z</time>
      </trkpt>
      <trkpt lat="47.78356" lon="-3.53203">
        <ele>4.29</ele>
        <time>2020-07-08T09:18:06Z</time>
      </trkpt>
      <trkpt lat="47.78357" lon="-3.53196">
        <ele>3.75</ele>
        <time>2020-07-08T09:18:07Z</time>
      </trkpt>
      <trkpt lat="47.78359" lon="-3.53193">
        <ele>3.56</ele>
        <time>2020-07-08T09:18:08Z</time>
      </trkpt>
      <trkpt lat="47.78362" lon="-3.53188">
        <ele>3.49</ele>
        <time>2020-07-08T09:18:09Z</time>
      </trkpt>
      <trkpt lat="47.78363" lon="-3.53183">
        <ele>3.36</ele>
        <time>2020-07-08T09:18:10Z</time>
      </trkpt>
      <trkpt lat="47.78365" lon="-3.53178">
        <ele>3.19</ele>
        <time>2020-07-08T09:18:11Z</time>
      </trkpt>
      <trkpt lat="47.78366" lon="-3.53174">
        <ele>2.88</ele>
        <time>2020-07-08T09:18:12Z</time>
      </trkpt>
      <trkpt lat="47.78369" lon="-3.5317">
        <ele>2.64</ele>
        <time>2020-07-08T09:18:13Z</time>
      </trkpt>
      <trkpt lat="47.78371" lon="-3.53166">
        <ele>2.49</ele>
        <time>2020-07-08T09:18:14Z</time>
      </trkpt>
      <trkpt lat="47.78374" lon="-3.53163">
        <ele>2.48</ele>
        <time>2020-07-08T09:18:15Z</time>
      </trkpt>
      <trkpt lat="47.78377" lon="-3.53161">
        <ele>2.54</ele>
        <time>2020-07-08T09:18:16Z</time>
      </trkpt>
      <trkpt lat="47.7838" lon="-3.53159">
        <ele>2.57</ele>
        <time>2020-07-08T09:18:17Z</time>
      </trkpt>
      <trkpt lat="47.78383" lon="-3.53156">
        <ele>2.5</ele>
        <time>2020-07-08T09:18:18Z</time>
      </trkpt>
      <trkpt lat="47.78386" lon="-3.53154">
        <ele>2.41</ele>
        <time>2020-07-08T09:18:19Z</time>
      </trkpt>
      <trkpt lat="47.78389" lon="-3.53151">
        <ele>2.3</ele>
        <time>2020-07-08T09:18:20Z</time>
      </trkpt>
      <trkpt lat="47.78392" lon="-3.53149">
        <ele>2.32</ele>
        <time>2020-07-08T09:18:21Z</time>
      </trkpt>
      <trkpt lat="47.78395" lon="-3.53147">
        <ele>2.27</ele>
        <time>2020-07-08T09:18:22Z</time>
      </trkpt>
      <trkpt lat="47.78397" lon="-3.53145">
        <ele>2.14</ele>
        <time>2020-07-08T09:18:23Z</time>
      </trkpt>
      <trkpt lat="47.78399" lon="-3.53143">
        <ele>2.01</ele>
        <time>2020-07-08T09:18:24Z</time>
      </trkpt>
      <trkpt lat="47.78402" lon="-3.53141">
        <ele>1.88</ele>
        <time>2020-07-08T09:18:25Z</time>
      </trkpt>
      <trkpt lat="47.78405" lon="-3.53138">
        <ele>1.78</ele>
        <time>2020-07-08T09:18:26Z</time>
      </trkpt>
      <trkpt lat="47.78409" lon="-3.53136">
        <ele>1.85</ele>
        <time>2020-07-08T09:18:27Z</time>
      </trkpt>
      <trkpt lat="47.78412" lon="-3.53135">
        <ele>2.01</ele>
        <time>2020-07-08T09:18:28Z</time>
      </trkpt>
      <trkpt lat="47.78415" lon="-3.53133">
        <ele>2.15</ele>
        <time>2020-07-08T09:18:29Z</time>
      </trkpt>
      <trkpt lat="47.78417" lon="-3.53132">
        <ele>2.38</ele>
        <time>2020-07-08T09:18:30Z</time>
      </trkpt>
      <trkpt lat="47.7842" lon="-3.53129">
        <ele>2.8</ele>
        <time>2020-07-08T09:18:31Z</time>
      </trkpt>
      <trkpt lat="47.78422" lon="-3.53127">
        <ele>3.16</ele>
        <time>2020-07-08T09:18:32Z</time>
      </trkpt>
      <trkpt lat="47.78425" lon="-3.53124">
        <ele>3.42</ele>
        <time>2020-07-08T09:18:33Z</time>
      </trkpt>
      <trkpt lat="47.78427" lon="-3.53121">
        <ele>3.5</ele>
        <time>2020-07-08T09:18:34Z</time>
      </trkpt>
      <trkpt lat="47.78429" lon="-3.53119">
        <ele>3.6</ele>
        <time>2020-07-08T09:18:35Z</time>
      </trkpt>
      <trkpt lat="47.78431" lon="-3.53115">
        <ele>3.46</ele>
        <time>2020-07-08T09:18:36Z</time>
      </trkpt>
      <trkpt lat="47.78434" lon="-3.53111">
        <ele>3.23</ele>
        <time>2020-07-08T09:18:37Z</time>
      </trkpt>
      <trkpt lat="47.78437" lon="-3.53107">
        <ele>3.29</ele>
        <time>2020-07-08T09:18:38Z</time>
      </trkpt>
      <trkpt lat="47.7844" lon="-3.53101">
        <ele>3.3</ele>
        <time>2020-07-08T09:18:39Z</time>
      </trkpt>
      <trkpt lat="47.78443" lon="-3.53095">
        <ele>3.11</ele>
        <time>2020-07-08T09:18:40Z</time>
      </trkpt>
      <trkpt lat="47.78447" lon="-3.53088">
        <ele>3.12</ele>
        <time>2020-07-08T09:18:41Z</time>
      </trkpt>
      <trkpt lat="47.7845" lon="-3.53083">
        <ele>3.35</ele>
        <time>2020-07-08T09:18:42Z</time>
      </trkpt>
      <trkpt lat="47.78453" lon="-3.53078">
        <ele>3.54</ele>
        <time>2020-07-08T09:18:43Z</time>
      </trkpt>
      <trkpt lat="47.78455" lon="-3.53073">
        <ele>3.51</ele>
        <time>2020-07-08T09:18:44Z</time>
      </trkpt>
      <trkpt lat="47.78457" lon="-3.53069">
        <ele>3.34</ele>
        <time>2020-07-08T09:18:45Z</time>
      </trkpt>
      <trkpt lat="47.78458" lon="-3.53065">
        <ele>3.17</ele>
        <time>2020-07-08T09:18:46Z</time>
      </trkpt>
      <trkpt lat="47.78459" lon="-3.53062">
        <ele>3.07</ele>
        <time>2020-07-08T09:18:47Z</time>
      </trkpt>
      <trkpt lat="47.78461" lon="-3.53058">
        <ele>2.94</ele>
        <time>2020-07-08T09:18:48Z</time>
      </trkpt>
      <trkpt lat="47.78462" lon="-3.53055">
        <ele>2.75</ele>
        <time>2020-07-08T09:18:49Z</time>
      </trkpt>
      <trkpt lat="47.78462" lon="-3.53052">
        <ele>2.59</ele>
        <time>2020-07-08T09:18:50Z</time>
      </trkpt>
      <trkpt lat="47.78463" lon="-3.53049">
        <ele>2.43</ele>
        <time>2020-07-08T09:18:51Z</time>
      </trkpt>
      <trkpt lat="47.78464" lon="-3.53046">
        <ele>2.33</ele>
        <time>2020-07-08T09:18:52Z</time>
      </trkpt>
      <trkpt lat="47.78465" lon="-3.53043">
        <ele>2.2</ele>
        <time>2020-07-08T09:18:53Z</time>
      </trkpt>
      <trkpt lat="47.78467" lon="-3.5304">
        <ele>2.05</ele>
        <time>2020-07-08T09:18:54Z</time>
      </trkpt>
      <trkpt lat="47.78468" lon="-3.53037">
        <ele>1.95</ele>
        <time>2020-07-08T09:18:55Z</time>
      </trkpt>
      <trkpt lat="47.78471" lon="-3.53033">
        <ele>1.72</ele>
        <time>2020-07-08T09:18:56Z</time>
      </trkpt>
      <trkpt lat="47.78473" lon="-3.53029">
        <ele>1.55</ele>
        <time>2020-07-08T09:18:57Z</time>
      </trkpt>
      <trkpt lat="47.78476" lon="-3.53026">
        <ele>1.69</ele>
        <time>2020-07-08T09:18:58Z</time>
      </trkpt>
      <trkpt lat="47.78478" lon="-3.53023">
        <ele>1.87</ele>
        <time>2020-07-08T09:18:59Z</time>
      </trkpt>
      <trkpt lat="47.78479" lon="-3.53021">
        <ele>2</ele>
        <time>2020-07-08T09:19:00Z</time>
      </trkpt>
      <trkpt lat="47.78481" lon="-3.53019">
        <ele>2.14</ele>
        <time>2020-07-08T09:19:01Z</time>
      </trkpt>
      <trkpt lat="47.78483" lon="-3.53015">
        <ele>2.21</ele>
        <time>2020-07-08T09:19:02Z</time>
      </trkpt>
      <trkpt lat="47.78485" lon="-3.53012">
        <ele>2.27</ele>
        <time>2020-07-08T09:19:03Z</time>
      </trkpt>
      <trkpt lat="47.78487" lon="-3.53009">
        <ele>2.32</ele>
        <time>2020-07-08T09:19:04Z</time>
      </trkpt>
      <trkpt lat="47.7849" lon="-3.53006">
        <ele>2.34</ele>
        <time>2020-07-08T09:19:05Z</time>
      </trkpt>
      <trkpt lat="47.78491" lon="-3.53003">
        <ele>2.22</ele>
        <time>2020-07-08T09:19:06Z</time>
      </trkpt>
      <trkpt lat="47.78494" lon="-3.53">
        <ele>2.2</ele>
        <time>2020-07-08T09:19:07Z</time>
      </trkpt>
      <trkpt lat="47.78497" lon="-3.52997">
        <ele>2.3</ele>
        <time>2020-07-08T09:19:08Z</time>
      </trkpt>
      <trkpt lat="47.785" lon="-3.52994">
        <ele>2.35</ele>
        <time>2020-07-08T09:19:09Z</time>
      </trkpt>
      <trkpt lat="47.78503" lon="-3.52992">
        <ele>2.61</ele>
        <time>2020-07-08T09:19:10Z</time>
      </trkpt>
      <trkpt lat="47.78505" lon="-3.5299">
        <ele>2.92</ele>
        <time>2020-07-08T09:19:11Z</time>
      </trkpt>
      <trkpt lat="47.78508" lon="-3.52987">
        <ele>3.13</ele>
        <time>2020-07-08T09:19:12Z</time>
      </trkpt>
      <trkpt lat="47.78511" lon="-3.52984">
        <ele>3.29</ele>
        <time>2020-07-08T09:19:13Z</time>
      </trkpt>
      <trkpt lat="47.78514" lon="-3.5298">
        <ele>3.31</ele>
        <time>2020-07-08T09:19:14Z</time>
      </trkpt>
      <trkpt lat="47.78517" lon="-3.52976">
        <ele>3.17</ele>
        <time>2020-07-08T09:19:15Z</time>
      </trkpt>
      <trkpt lat="47.7852" lon="-3.52972">
        <ele>2.91</ele>
        <time>2020-07-08T09:19:16Z</time>
      </trkpt>
      <trkpt lat="47.78522" lon="-3.52968">
        <ele>2.76</ele>
        <time>2020-07-08T09:19:17Z</time>
      </trkpt>
      <trkpt lat="47.78525" lon="-3.52964">
        <ele>2.56</ele>
        <time>2020-07-08T09:19:18Z</time>
      </trkpt>
      <trkpt lat="47.78528" lon="-3.52961">
        <ele>2.4</ele>
        <time>2020-07-08T09:19:19Z</time>
      </trkpt>
      <trkpt lat="47.7853" lon="-3.52958">
        <ele>2.65</ele>
        <time>2020-07-08T09:19:20Z</time>
      </trkpt>
      <trkpt lat="47.78533" lon="-3.52954">
        <ele>2.9</ele>
        <time>2020-07-08T09:19:21Z</time>
      </trkpt>
      <trkpt lat="47.78535" lon="-3.52951">
        <ele>3.23</ele>
        <time>2020-07-08T09:19:22Z</time>
      </trkpt>
      <trkpt lat="47.78537" lon="-3.52948">
        <ele>3.42</ele>
        <time>2020-07-08T09:19:23Z</time>
      </trkpt>
      <trkpt lat="47.78539" lon="-3.52943">
        <ele>3.54</ele>
        <time>2020-07-08T09:19:24Z</time>
      </trkpt>
      <trkpt lat="47.78541" lon="-3.52937">
        <ele>3.69</ele>
        <time>2020-07-08T09:19:25Z</time>
      </trkpt>
      <trkpt lat="47.78543" lon="-3.52931">
        <ele>3.81</ele>
        <time>2020-07-08T09:19:26Z</time>
      </trkpt>
      <trkpt lat="47.78544" lon="-3.52924">
        <ele>3.79</ele>
        <time>2020-07-08T09:19:27Z</time>
      </trkpt>
      <trkpt lat="47.78546" lon="-3.52918">
        <ele>3.74</ele>
        <time>2020-07-08T09:19:28Z</time>
      </trkpt>
      <trkpt lat="47.7855" lon="-3.52912">
        <ele>3.94</ele>
        <time>2020-07-08T09:19:29Z</time>
      </trkpt>
      <trkpt lat="47.78553" lon="-3.52906">
        <ele>4.05</ele>
        <time>2020-07-08T09:19:30Z</time>
      </trkpt>
      <trkpt lat="47.78557" lon="-3.52901">
        <ele>3.98</ele>
        <time>2020-07-08T09:19:31Z</time>
      </trkpt>
      <trkpt lat="47.7856" lon="-3.52895">
        <ele>3.69</ele>
        <time>2020-07-08T09:19:32Z</time>
      </trkpt>
      <trkpt lat="47.78562" lon="-3.52889">
        <ele>3.34</ele>
        <time>2020-07-08T09:19:33Z</time>
      </trkpt>
      <trkpt lat="47.78564" lon="-3.52885">
        <ele>3.23</ele>
        <time>2020-07-08T09:19:34Z</time>
      </trkpt>
      <trkpt lat="47.78567" lon="-3.52881">
        <ele>3.31</ele>
        <time>2020-07-08T09:19:35Z</time>
      </trkpt>
      <trkpt lat="47.78571" lon="-3.52877">
        <ele>3.41</ele>
        <time>2020-07-08T09:19:36Z</time>
      </trkpt>
      <trkpt lat="47.78574" lon="-3.52873">
        <ele>3.46</ele>
        <time>2020-07-08T09:19:37Z</time>
      </trkpt>
      <trkpt lat="47.78578" lon="-3.52869">
        <ele>3.47</ele>
        <time>2020-07-08T09:19:38Z</time>
      </trkpt>
      <trkpt lat="47.78582" lon="-3.52865">
        <ele>3.42</ele>
        <time>2020-07-08T09:19:39Z</time>
      </trkpt>
      <trkpt lat="47.78587" lon="-3.52861">
        <ele>3.37</ele>
        <time>2020-07-08T09:19:40Z</time>
      </trkpt>
      <trkpt lat="47.78591" lon="-3.52857">
        <ele>3.34</ele>
        <time>2020-07-08T09:19:41Z</time>
      </trkpt>
      <trkpt lat="47.78595" lon="-3.52854">
        <ele>3.25</ele>
        <time>2020-07-08T09:19:42Z</time>
      </trkpt>
      <trkpt lat="47.78598" lon="-3.52851">
        <ele>3.15</ele>
        <time>2020-07-08T09:19:43Z</time>
      </trkpt>
      <trkpt lat="47.78602" lon="-3.52847">
        <ele>2.89</ele>
        <time>2020-07-08T09:19:44Z</time>
      </trkpt>
      <trkpt lat="47.78606" lon="-3.52845">
        <ele>2.72</ele>
        <time>2020-07-08T09:19:45Z</time>
      </trkpt>
      <trkpt lat="47.7861" lon="-3.52844">
        <ele>2.75</ele>
        <time>2020-07-08T09:19:46Z</time>
      </trkpt>
      <trkpt lat="47.78613" lon="-3.52842">
        <ele>2.83</ele>
        <time>2020-07-08T09:19:47Z</time>
      </trkpt>
      <trkpt lat="47.78616" lon="-3.52841">
        <ele>3.03</ele>
        <time>2020-07-08T09:19:48Z</time>
      </trkpt>
      <trkpt lat="47.7862" lon="-3.52841">
        <ele>3.4</ele>
        <time>2020-07-08T09:19:49Z</time>
      </trkpt>
      <trkpt lat="47.78623" lon="-3.52841">
        <ele>3.81</ele>
        <time>2020-07-08T09:19:50Z</time>
      </trkpt>
      <trkpt lat="47.78626" lon="-3.52842">
        <ele>4.31</ele>
        <time>2020-07-08T09:19:51Z</time>
      </trkpt>
      <trkpt lat="47.78629" lon="-3.52842">
        <ele>4.8</ele>
        <time>2020-07-08T09:19:52Z</time>
      </trkpt>
      <trkpt lat="47.78631" lon="-3.52842">
        <ele>5.24</ele>
        <time>2020-07-08T09:19:53Z</time>
      </trkpt>
      <trkpt lat="47.78634" lon="-3.52842">
        <ele>5.57</ele>
        <time>2020-07-08T09:19:54Z</time>
      </trkpt>
      <trkpt lat="47.78636" lon="-3.52842">
        <ele>5.93</ele>
        <time>2020-07-08T09:19:55Z</time>
      </trkpt>
      <trkpt lat="47.78639" lon="-3.52842">
        <ele>6.33</ele>
        <time>2020-07-08T09:19:56Z</time>
      </trkpt>
      <trkpt lat="47.78643" lon="-3.52842">
        <ele>6.78</ele>
        <time>2020-07-08T09:19:57Z</time>
      </trkpt>
      <trkpt lat="47.78645" lon="-3.52843">
        <ele>7.2</ele>
        <time>2020-07-08T09:19:58Z</time>
      </trkpt>
      <trkpt lat="47.78648" lon="-3.52843">
        <ele>7.59</ele>
        <time>2020-07-08T09:19:59Z</time>
      </trkpt>
      <trkpt lat="47.7865" lon="-3.52843">
        <ele>7.86</ele>
        <time>2020-07-08T09:20:00Z</time>
      </trkpt>
      <trkpt lat="47.78653" lon="-3.52842">
        <ele>7.97</ele>
        <time>2020-07-08T09:20:01Z</time>
      </trkpt>
      <trkpt lat="47.78656" lon="-3.52842">
        <ele>8.21</ele>
        <time>2020-07-08T09:20:02Z</time>
      </trkpt>
      <trkpt lat="47.78659" lon="-3.52842">
        <ele>8.56</ele>
        <time>2020-07-08T09:20:03Z</time>
      </trkpt>
      <trkpt lat="47.78662" lon="-3.52842">
        <ele>8.83</ele>
        <time>2020-07-08T09:20:04Z</time>
      </trkpt>
      <trkpt lat="47.78666" lon="-3.52841">
        <ele>9.04</ele>
        <time>2020-07-08T09:20:05Z</time>
      </trkpt>
      <trkpt lat="47.7867" lon="-3.5284">
        <ele>8.96</ele>
        <time>2020-07-08T09:20:06Z</time>
      </trkpt>
      <trkpt lat="47.78672" lon="-3.52842">
        <ele>9.04</ele>
        <time>2020-07-08T09:20:07Z</time>
      </trkpt>
      <trkpt lat="47.78676" lon="-3.52842">
        <ele>9</ele>
        <time>2020-07-08T09:20:08Z</time>
      </trkpt>
      <trkpt lat="47.78678" lon="-3.52843">
        <ele>9.22</ele>
        <time>2020-07-08T09:20:09Z</time>
      </trkpt>
      <trkpt lat="47.78681" lon="-3.52844">
        <ele>9.36</ele>
        <time>2020-07-08T09:20:10Z</time>
      </trkpt>
      <trkpt lat="47.78683" lon="-3.52846">
        <ele>9.64</ele>
        <time>2020-07-08T09:20:11Z</time>
      </trkpt>
      <trkpt lat="47.78685" lon="-3.52847">
        <ele>9.91</ele>
        <time>2020-07-08T09:20:12Z</time>
      </trkpt>
      <trkpt lat="47.78687" lon="-3.52848">
        <ele>10.12</ele>
        <time>2020-07-08T09:20:13Z</time>
      </trkpt>
      <trkpt lat="47.78689" lon="-3.52849">
        <ele>10.27</ele>
        <time>2020-07-08T09:20:14Z</time>
      </trkpt>
      <trkpt lat="47.78691" lon="-3.52851">
        <ele>10.56</ele>
        <time>2020-07-08T09:20:15Z</time>
      </trkpt>
      <trkpt lat="47.78693" lon="-3.52853">
        <ele>10.97</ele>
        <time>2020-07-08T09:20:16Z</time>
      </trkpt>
      <trkpt lat="47.78695" lon="-3.52856">
        <ele>11.38</ele>
        <time>2020-07-08T09:20:17Z</time>
      </trkpt>
      <trkpt lat="47.78697" lon="-3.52858">
        <ele>11.43</ele>
        <time>2020-07-08T09:20:18Z</time>
      </trkpt>
      <trkpt lat="47.787" lon="-3.52861">
        <ele>11.2</ele>
        <time>2020-07-08T09:20:19Z</time>
      </trkpt>
      <trkpt lat="47.78705" lon="-3.52865">
        <ele>10.58</ele>
        <time>2020-07-08T09:20:20Z</time>
      </trkpt>
      <trkpt lat="47.78709" lon="-3.5287">
        <ele>10.01</ele>
        <time>2020-07-08T09:20:21Z</time>
      </trkpt>
      <trkpt lat="47.78713" lon="-3.52876">
        <ele>9.4</ele>
        <time>2020-07-08T09:20:22Z</time>
      </trkpt>
      <trkpt lat="47.78718" lon="-3.52882">
        <ele>8.89</ele>
        <time>2020-07-08T09:20:23Z</time>
      </trkpt>
      <trkpt lat="47.78721" lon="-3.52889">
        <ele>8.73</ele>
        <time>2020-07-08T09:20:24Z</time>
      </trkpt>
      <trkpt lat="47.78724" lon="-3.52896">
        <ele>8.75</ele>
        <time>2020-07-08T09:20:25Z</time>
      </trkpt>
      <trkpt lat="47.78727" lon="-3.52901">
        <ele>8.84</ele>
        <time>2020-07-08T09:20:26Z</time>
      </trkpt>
      <trkpt lat="47.7873" lon="-3.52906">
        <ele>8.79</ele>
        <time>2020-07-08T09:20:27Z</time>
      </trkpt>
      <trkpt lat="47.78733" lon="-3.52911">
        <ele>8.62</ele>
        <time>2020-07-08T09:20:28Z</time>
      </trkpt>
      <trkpt lat="47.78736" lon="-3.52916">
        <ele>8.56</ele>
        <time>2020-07-08T09:20:29Z</time>
      </trkpt>
      <trkpt lat="47.78739" lon="-3.52922">
        <ele>8.68</ele>
        <time>2020-07-08T09:20:30Z</time>
      </trkpt>
      <trkpt lat="47.78741" lon="-3.52927">
        <ele>8.94</ele>
        <time>2020-07-08T09:20:31Z</time>
      </trkpt>
      <trkpt lat="47.78743" lon="-3.52931">
        <ele>9.27</ele>
        <time>2020-07-08T09:20:32Z</time>
      </trkpt>
      <trkpt lat="47.78745" lon="-3.52934">
        <ele>9.58</ele>
        <time>2020-07-08T09:20:33Z</time>
      </trkpt>
      <trkpt lat="47.78747" lon="-3.52937">
        <ele>9.83</ele>
        <time>2020-07-08T09:20:34Z</time>
      </trkpt>
      <trkpt lat="47.7875" lon="-3.52941">
        <ele>9.95</ele>
        <time>2020-07-08T09:20:35Z</time>
      </trkpt>
      <trkpt lat="47.78754" lon="-3.52945">
        <ele>9.83</ele>
        <time>2020-07-08T09:20:36Z</time>
      </trkpt>
      <trkpt lat="47.78758" lon="-3.52949">
        <ele>9.34</ele>
        <time>2020-07-08T09:20:37Z</time>
      </trkpt>
      <trkpt lat="47.78762" lon="-3.52953">
        <ele>8.6</ele>
        <time>2020-07-08T09:20:38Z</time>
      </trkpt>
      <trkpt lat="47.78766" lon="-3.52956">
        <ele>7.72</ele>
        <time>2020-07-08T09:20:39Z</time>
      </trkpt>
      <trkpt lat="47.78771" lon="-3.5296">
        <ele>6.48</ele>
        <time>2020-07-08T09:20:40Z</time>
      </trkpt>
      <trkpt lat="47.78776" lon="-3.52962">
        <ele>5.13</ele>
        <time>2020-07-08T09:20:41Z</time>
      </trkpt>
      <trkpt lat="47.78781" lon="-3.52966">
        <ele>4.34</ele>
        <time>2020-07-08T09:20:42Z</time>
      </trkpt>
      <trkpt lat="47.78785" lon="-3.52967">
        <ele>3.91</ele>
        <time>2020-07-08T09:20:43Z</time>
      </trkpt>
      <trkpt lat="47.78789" lon="-3.52968">
        <ele>3.56</ele>
        <time>2020-07-08T09:20:44Z</time>
      </trkpt>
      <trkpt lat="47.78792" lon="-3.52969">
        <ele>3.28</ele>
        <time>2020-07-08T09:20:45Z</time>
      </trkpt>
      <trkpt lat="47.78794" lon="-3.5297">
        <ele>3.05</ele>
        <time>2020-07-08T09:20:46Z</time>
      </trkpt>
      <trkpt lat="47.78797" lon="-3.52971">
        <ele>2.89</ele>
        <time>2020-07-08T09:20:47Z</time>
      </trkpt>
      <trkpt lat="47.78799" lon="-3.52972">
        <ele>2.74</ele>
        <time>2020-07-08T09:20:48Z</time>
      </trkpt>
      <trkpt lat="47.78801" lon="-3.52974">
        <ele>2.84</ele>
        <time>2020-07-08T09:20:49Z</time>
      </trkpt>
      <trkpt lat="47.78802" lon="-3.52975">
        <ele>3.01</ele>
        <time>2020-07-08T09:20:50Z</time>
      </trkpt>
      <trkpt lat="47.78804" lon="-3.52976">
        <ele>3.14</ele>
        <time>2020-07-08T09:20:51Z</time>
      </trkpt>
      <trkpt lat="47.78806" lon="-3.52978">
        <ele>3.29</ele>
        <time>2020-07-08T09:20:52Z</time>
      </trkpt>
      <trkpt lat="47.78807" lon="-3.52977">
        <ele>3.22</ele>
        <time>2020-07-08T09:20:53Z</time>
      </trkpt>
      <trkpt lat="47.7881" lon="-3.52978">
        <ele>3.19</ele>
        <time>2020-07-08T09:20:54Z</time>
      </trkpt>
      <trkpt lat="47.78812" lon="-3.5298">
        <ele>3.38</ele>
        <time>2020-07-08T09:20:55Z</time>
      </trkpt>
      <trkpt lat="47.78814" lon="-3.52982">
        <ele>3.67</ele>
        <time>2020-07-08T09:20:56Z</time>
      </trkpt>
      <trkpt lat="47.78815" lon="-3.52983">
        <ele>3.91</ele>
        <time>2020-07-08T09:20:57Z</time>
      </trkpt>
      <trkpt lat="47.78816" lon="-3.52984">
        <ele>4.13</ele>
        <time>2020-07-08T09:20:58Z</time>
      </trkpt>
      <trkpt lat="47.78818" lon="-3.52985">
        <ele>4.25</ele>
        <time>2020-07-08T09:20:59Z</time>
      </trkpt>
      <trkpt lat="47.78819" lon="-3.52986">
        <ele>4.41</ele>
        <time>2020-07-08T09:21:00Z</time>
      </trkpt>
      <trkpt lat="47.7882" lon="-3.52987">
        <ele>4.6</ele>
        <time>2020-07-08T09:21:01Z</time>
      </trkpt>
      <trkpt lat="47.78821" lon="-3.52988">
        <ele>4.82</ele>
        <time>2020-07-08T09:21:02Z</time>
      </trkpt>
      <trkpt lat="47.78822" lon="-3.5299">
        <ele>5.12</ele>
        <time>2020-07-08T09:21:03Z</time>
      </trkpt>
      <trkpt lat="47.78822" lon="-3.52991">
        <ele>5.51</ele>
        <time>2020-07-08T09:21:04Z</time>
      </trkpt>
      <trkpt lat="47.78823" lon="-3.52993">
        <ele>5.89</ele>
        <time>2020-07-08T09:21:05Z</time>
      </trkpt>
      <trkpt lat="47.78824" lon="-3.52995">
        <ele>6.23</ele>
        <time>2020-07-08T09:21:06Z</time>
      </trkpt>
      <trkpt lat="47.78825" lon="-3.52996">
        <ele>6.51</ele>
        <time>2020-07-08T09:21:07Z</time>
      </trkpt>
      <trkpt lat="47.78826" lon="-3.52998">
        <ele>6.86</ele>
        <time>2020-07-08T09:21:08Z</time>
      </trkpt>
      <trkpt lat="47.78827" lon="-3.53">
        <ele>7.29</ele>
        <time>2020-07-08T09:21:09Z</time>
      </trkpt>
      <trkpt lat="47.78829" lon="-3.53003">
        <ele>7.85</ele>
        <time>2020-07-08T09:21:10Z</time>
      </trkpt>
      <trkpt lat="47.7883" lon="-3.53005">
        <ele>8.42</ele>
        <time>2020-07-08T09:21:11Z</time>
      </trkpt>
      <trkpt lat="47.78831" lon="-3.53007">
        <ele>8.96</ele>
        <time>2020-07-08T09:21:12Z</time>
      </trkpt>
      <trkpt lat="47.78832" lon="-3.53009">
        <ele>9.48</ele>
        <time>2020-07-08T09:21:13Z</time>
      </trkpt>
      <trkpt lat="47.78833" lon="-3.53011">
        <ele>9.96</ele>
        <time>2020-07-08T09:21:14Z</time>
      </trkpt>
      <trkpt lat="47.78834" lon="-3.53014">
        <ele>10.44</ele>
        <time>2020-07-08T09:21:15Z</time>
      </trkpt>
      <trkpt lat="47.78835" lon="-3.53016">
        <ele>10.84</ele>
        <time>2020-07-08T09:21:16Z</time>
      </trkpt>
      <trkpt lat="47.78836" lon="-3.53018">
        <ele>11.16</ele>
        <time>2020-07-08T09:21:17Z</time>
      </trkpt>
      <trkpt lat="47.78837" lon="-3.5302">
        <ele>11.44</ele>
        <time>2020-07-08T09:21:18Z</time>
      </trkpt>
      <trkpt lat="47.78837" lon="-3.53023">
        <ele>11.89</ele>
        <time>2020-07-08T09:21:19Z</time>
      </trkpt>
      <trkpt lat="47.78838" lon="-3.53026">
        <ele>12.35</ele>
        <time>2020-07-08T09:21:20Z</time>
      </trkpt>
      <trkpt lat="47.78839" lon="-3.53029">
        <ele>12.82</ele>
        <time>2020-07-08T09:21:21Z</time>
      </trkpt>
      <trkpt lat="47.78839" lon="-3.53032">
        <ele>13.17</ele>
        <time>2020-07-08T09:21:22Z</time>
      </trkpt>
      <trkpt lat="47.7884" lon="-3.53036">
        <ele>13.58</ele>
        <time>2020-07-08T09:21:23Z</time>
      </trkpt>
      <trkpt lat="47.78841" lon="-3.5304">
        <ele>13.97</ele>
        <time>2020-07-08T09:21:24Z</time>
      </trkpt>
      <trkpt lat="47.78842" lon="-3.53042">
        <ele>14.19</ele>
        <time>2020-07-08T09:21:25Z</time>
      </trkpt>
      <trkpt lat="47.78843" lon="-3.53045">
        <ele>14.33</ele>
        <time>2020-07-08T09:21:26Z</time>
      </trkpt>
      <trkpt lat="47.78844" lon="-3.53048">
        <ele>14.48</ele>
        <time>2020-07-08T09:21:27Z</time>
      </trkpt>
      <trkpt lat="47.78845" lon="-3.53052">
        <ele>14.6</ele>
        <time>2020-07-08T09:21:28Z</time>
      </trkpt>
      <trkpt lat="47.78846" lon="-3.53055">
        <ele>14.78</ele>
        <time>2020-07-08T09:21:29Z</time>
      </trkpt>
      <trkpt lat="47.78847" lon="-3.53058">
        <ele>15.03</ele>
        <time>2020-07-08T09:21:30Z</time>
      </trkpt>
      <trkpt lat="47.78848" lon="-3.53061">
        <ele>15.32</ele>
        <time>2020-07-08T09:21:31Z</time>
      </trkpt>
      <trkpt lat="47.78849" lon="-3.53064">
        <ele>15.74</ele>
        <time>2020-07-08T09:21:32Z</time>
      </trkpt>
      <trkpt lat="47.7885" lon="-3.53067">
        <ele>16.19</ele>
        <time>2020-07-08T09:21:33Z</time>
      </trkpt>
      <trkpt lat="47.7885" lon="-3.5307">
        <ele>16.59</ele>
        <time>2020-07-08T09:21:34Z</time>
      </trkpt>
      <trkpt lat="47.78852" lon="-3.53072">
        <ele>16.84</ele>
        <time>2020-07-08T09:21:35Z</time>
      </trkpt>
      <trkpt lat="47.78853" lon="-3.53074">
        <ele>17</ele>
        <time>2020-07-08T09:21:36Z</time>
      </trkpt>
      <trkpt lat="47.78854" lon="-3.53076">
        <ele>17.16</ele>
        <time>2020-07-08T09:21:37Z</time>
      </trkpt>
      <trkpt lat="47.78855" lon="-3.53077">
        <ele>17.02</ele>
        <time>2020-07-08T09:21:38Z</time>
      </trkpt>
      <trkpt lat="47.78857" lon="-3.53079">
        <ele>16.95</ele>
        <time>2020-07-08T09:21:39Z</time>
      </trkpt>
      <trkpt lat="47.78858" lon="-3.5308">
        <ele>16.93</ele>
        <time>2020-07-08T09:21:40Z</time>
      </trkpt>
      <trkpt lat="47.7886" lon="-3.53082">
        <ele>16.97</ele>
        <time>2020-07-08T09:21:41Z</time>
      </trkpt>
      <trkpt lat="47.78861" lon="-3.53084">
        <ele>17.2</ele>
        <time>2020-07-08T09:21:42Z</time>
      </trkpt>
      <trkpt lat="47.78862" lon="-3.53086">
        <ele>17.3</ele>
        <time>2020-07-08T09:21:43Z</time>
      </trkpt>
      <trkpt lat="47.78862" lon="-3.53087">
        <ele>17.51</ele>
        <time>2020-07-08T09:21:44Z</time>
      </trkpt>
      <trkpt lat="47.78862" lon="-3.53088">
        <ele>17.81</ele>
        <time>2020-07-08T09:21:45Z</time>
      </trkpt>
      <trkpt lat="47.78862" lon="-3.53088">
        <ele>18.02</ele>
        <time>2020-07-08T09:21:46Z</time>
      </trkpt>
      <trkpt lat="47.78862" lon="-3.53088">
        <ele>18.09</ele>
        <time>2020-07-08T09:21:47Z</time>
      </trkpt>
      <trkpt lat="47.78862" lon="-3.53088">
        <ele>18.11</ele>
        <time>2020-07-08T09:21:48Z</time>
      </trkpt>
      <trkpt lat="47.78862" lon="-3.53088">
        <ele>18.11</ele>
        <time>2020-07-08T09:21:49Z</time>
      </trkpt>
      <trkpt lat="47.78862" lon="-3.53088">
        <ele>18.11</ele>
        <time>2020-07-08T09:21:50Z</time>
      </trkpt>
      <trkpt lat="47.78862" lon="-3.53088">
        <ele>18.11</ele>
        <time>2020-07-08T09:21:51Z</time>
      </trkpt>
      <trkpt lat="47.78862" lon="-3.53088">
        <ele>18.11</ele>
        <time>2020-07-08T09:21:52Z</time>
      </trkpt>
      <trkpt lat="47.78862" lon="-3.53088">
        <ele>18.11</ele>
        <time>2020-07-08T09:21:53Z</time>
      </trkpt>
      <trkpt lat="47.78862" lon="-3.53088">
        <ele>18.11</ele>
        <time>2020-07-08T09:21:54Z</time>
      </trkpt>
      <trkpt lat="47.78862" lon="-3.53088">
        <ele>18.11</ele>
        <time>2020-07-08T09:21:55Z</time>
      </trkpt>
      <trkpt lat="47.78862" lon="-3.53088">
        <ele>18.11</ele>
        <time>2020-07-08T09:21:56Z</time>
      </trkpt>
      <trkpt lat="47.78862" lon="-3.53088">
        <ele>18.11</ele>
        <time>2020-07-08T09:21:57Z</time>
      </trkpt>
      <trkpt lat="47.78862" lon="-3.53088">
        <ele>18.11</ele>
        <time>2020-07-08T09:21:58Z</time>
      </trkpt>
      <trkpt lat="47.78862" lon="-3.53088">
        <ele>18.11</ele>
        <time>2020-07-08T09:21:59Z</time>
      </trkpt>
      <trkpt lat="47.78865" lon="-3.53092">
        <ele>17.94</ele>
        <time>2020-07-08T09:22:00Z</time>
      </trkpt>
      <trkpt lat="47.78866" lon="-3.53094">
        <ele>17.96</ele>
        <time>2020-07-08T09:22:01Z</time>
      </trkpt>
      <trkpt lat="47.78868" lon="-3.53096">
        <ele>17.74</ele>
        <time>2020-07-08T09:22:02Z</time>
      </trkpt>
      <trkpt lat="47.78871" lon="-3.53099">
        <ele>17.27</ele>
        <time>2020-07-08T09:22:03Z</time>
      </trkpt>
      <trkpt lat="47.78875" lon="-3.53101">
        <ele>16.41</ele>
        <time>2020-07-08T09:22:04Z</time>
      </trkpt>
      <trkpt lat="47.78878" lon="-3.53104">
        <ele>15.82</ele>
        <time>2020-07-08T09:22:05Z</time>
      </trkpt>
      <trkpt lat="47.78882" lon="-3.53107">
        <ele>15.41</ele>
        <time>2020-07-08T09:22:06Z</time>
      </trkpt>
      <trkpt lat="47.78887" lon="-3.5311">
        <ele>14.67</ele>
        <time>2020-07-08T09:22:07Z</time>
      </trkpt>
      <trkpt lat="47.78892" lon="-3.53112">
        <ele>13.84</ele>
        <time>2020-07-08T09:22:08Z</time>
      </trkpt>
      <trkpt lat="47.78897" lon="-3.53114">
        <ele>12.78</ele>
        <time>2020-07-08T09:22:09Z</time>
      </trkpt>
      <trkpt lat="47.78902" lon="-3.53117">
        <ele>12.24</ele>
        <time>2020-07-08T09:22:10Z</time>
      </trkpt>
      <trkpt lat="47.78907" lon="-3.53118">
        <ele>11.48</ele>
        <time>2020-07-08T09:22:11Z</time>
      </trkpt>
      <trkpt lat="47.78912" lon="-3.5312">
        <ele>10.46</ele>
        <time>2020-07-08T09:22:12Z</time>
      </trkpt>
      <trkpt lat="47.78918" lon="-3.53123">
        <ele>9.82</ele>
        <time>2020-07-08T09:22:13Z</time>
      </trkpt>
      <trkpt lat="47.78923" lon="-3.53126">
        <ele>9.61</ele>
        <time>2020-07-08T09:22:14Z</time>
      </trkpt>
      <trkpt lat="47.78929" lon="-3.53129">
        <ele>9.23</ele>
        <time>2020-07-08T09:22:15Z</time>
      </trkpt>
      <trkpt lat="47.78934" lon="-3.53131">
        <ele>8.55</ele>
        <time>2020-07-08T09:22:16Z</time>
      </trkpt>
      <trkpt lat="47.78939" lon="-3.53132">
        <ele>7.8</ele>
        <time>2020-07-08T09:22:17Z</time>
      </trkpt>
      <trkpt lat="47.78943" lon="-3.53132">
        <ele>6.79</ele>
        <time>2020-07-08T09:22:18Z</time>
      </trkpt>
      <trkpt lat="47.78948" lon="-3.53133">
        <ele>6.08</ele>
        <time>2020-07-08T09:22:19Z</time>
      </trkpt>
      <trkpt lat="47.78952" lon="-3.53135">
        <ele>5.84</ele>
        <time>2020-07-08T09:22:20Z</time>
      </trkpt>
      <trkpt lat="47.78955" lon="-3.53139">
        <ele>5.97</ele>
        <time>2020-07-08T09:22:21Z</time>
      </trkpt>
      <trkpt lat="47.7896" lon="-3.53143">
        <ele>6.18</ele>
        <time>2020-07-08T09:22:22Z</time>
      </trkpt>
      <trkpt lat="47.78963" lon="-3.53146">
        <ele>6.41</ele>
        <time>2020-07-08T09:22:23Z</time>
      </trkpt>
      <trkpt lat="47.78966" lon="-3.53149">
        <ele>6.64</ele>
        <time>2020-07-08T09:22:24Z</time>
      </trkpt>
      <trkpt lat="47.78968" lon="-3.53152">
        <ele>6.96</ele>
        <time>2020-07-08T09:22:25Z</time>
      </trkpt>
      <trkpt lat="47.78971" lon="-3.53155">
        <ele>7.32</ele>
        <time>2020-07-08T09:22:26Z</time>
      </trkpt>
      <trkpt lat="47.78974" lon="-3.5316">
        <ele>7.64</ele>
        <time>2020-07-08T09:22:27Z</time>
      </trkpt>
      <trkpt lat="47.78978" lon="-3.53163">
        <ele>7.6</ele>
        <time>2020-07-08T09:22:28Z</time>
      </trkpt>
      <trkpt lat="47.78983" lon="-3.53166">
        <ele>7.15</ele>
        <time>2020-07-08T09:22:29Z</time>
      </trkpt>
      <trkpt lat="47.78988" lon="-3.53169">
        <ele>6.66</ele>
        <time>2020-07-08T09:22:30Z</time>
      </trkpt>
      <trkpt lat="47.78994" lon="-3.53171">
        <ele>5.89</ele>
        <time>2020-07-08T09:22:31Z</time>
      </trkpt>
      <trkpt lat="47.78999" lon="-3.53174">
        <ele>5.12</ele>
        <time>2020-07-08T09:22:32Z</time>
      </trkpt>
      <trkpt lat="47.79005" lon="-3.53177">
        <ele>4.77</ele>
        <time>2020-07-08T09:22:33Z</time>
      </trkpt>
      <trkpt lat="47.7901" lon="-3.5318">
        <ele>4.72</ele>
        <time>2020-07-08T09:22:34Z</time>
      </trkpt>
      <trkpt lat="47.79014" lon="-3.53184">
        <ele>4.74</ele>
        <time>2020-07-08T09:22:35Z</time>
      </trkpt>
      <trkpt lat="47.79019" lon="-3.53188">
        <ele>4.7</ele>
        <time>2020-07-08T09:22:36Z</time>
      </trkpt>
      <trkpt lat="47.79024" lon="-3.53192">
        <ele>4.5</ele>
        <time>2020-07-08T09:22:37Z</time>
      </trkpt>
      <trkpt lat="47.79028" lon="-3.53196">
        <ele>4.23</ele>
        <time>2020-07-08T09:22:38Z</time>
      </trkpt>
      <trkpt lat="47.79034" lon="-3.53199">
        <ele>4.08</ele>
        <time>2020-07-08T09:22:39Z</time>
      </trkpt>
      <trkpt lat="47.7904" lon="-3.53201">
        <ele>3.85</ele>
        <time>2020-07-08T09:22:40Z</time>
      </trkpt>
      <trkpt lat="47.79045" lon="-3.53201">
        <ele>3.47</ele>
        <time>2020-07-08T09:22:41Z</time>
      </trkpt>
      <trkpt lat="47.79052" lon="-3.53199">
        <ele>2.87</ele>
        <time>2020-07-08T09:22:42Z</time>
      </trkpt>
      <trkpt lat="47.79059" lon="-3.53195">
        <ele>2.29</ele>
        <time>2020-07-08T09:22:43Z</time>
      </trkpt>
      <trkpt lat="47.79065" lon="-3.53191">
        <ele>1.96</ele>
        <time>2020-07-08T09:22:44Z</time>
      </trkpt>
      <trkpt lat="47.7907" lon="-3.53188">
        <ele>1.75</ele>
        <time>2020-07-08T09:22:45Z</time>
      </trkpt>
      <trkpt lat="47.79075" lon="-3.53185">
        <ele>1.63</ele>
        <time>2020-07-08T09:22:46Z</time>
      </trkpt>
      <trkpt lat="47.7908" lon="-3.53183">
        <ele>1.56</ele>
        <time>2020-07-08T09:22:47Z</time>
      </trkpt>
      <trkpt lat="47.79085" lon="-3.5318">
        <ele>1.5</ele>
        <time>2020-07-08T09:22:48Z</time>
      </trkpt>
      <trkpt lat="47.79089" lon="-3.53177">
        <ele>1.42</ele>
        <time>2020-07-08T09:22:49Z</time>
      </trkpt>
      <trkpt lat="47.79094" lon="-3.53175">
        <ele>1.34</ele>
        <time>2020-07-08T09:22:50Z</time>
      </trkpt>
      <trkpt lat="47.79098" lon="-3.53173">
        <ele>1.25</ele>
        <time>2020-07-08T09:22:51Z</time>
      </trkpt>
      <trkpt lat="47.79102" lon="-3.5317">
        <ele>1.16</ele>
        <time>2020-07-08T09:22:52Z</time>
      </trkpt>
      <trkpt lat="47.79106" lon="-3.53168">
        <ele>1.07</ele>
        <time>2020-07-08T09:22:53Z</time>
      </trkpt>
      <trkpt lat="47.79111" lon="-3.53165">
        <ele>0.98</ele>
        <time>2020-07-08T09:22:54Z</time>
      </trkpt>
      <trkpt lat="47.79115" lon="-3.53162">
        <ele>0.99</ele>
        <time>2020-07-08T09:22:55Z</time>
      </trkpt>
      <trkpt lat="47.79119" lon="-3.5316">
        <ele>1.04</ele>
        <time>2020-07-08T09:22:56Z</time>
      </trkpt>
      <trkpt lat="47.79124" lon="-3.53158">
        <ele>1.1</ele>
        <time>2020-07-08T09:22:57Z</time>
      </trkpt>
      <trkpt lat="47.79128" lon="-3.53155">
        <ele>1.18</ele>
        <time>2020-07-08T09:22:58Z</time>
      </trkpt>
      <trkpt lat="47.79133" lon="-3.53154">
        <ele>1.27</ele>
        <time>2020-07-08T09:22:59Z</time>
      </trkpt>
      <trkpt lat="47.79137" lon="-3.53152">
        <ele>1.36</ele>
        <time>2020-07-08T09:23:00Z</time>
      </trkpt>
      <trkpt lat="47.79141" lon="-3.53148">
        <ele>1.69</ele>
        <time>2020-07-08T09:23:01Z</time>
      </trkpt>
      <trkpt lat="47.79144" lon="-3.53145">
        <ele>2.27</ele>
        <time>2020-07-08T09:23:02Z</time>
      </trkpt>
      <trkpt lat="47.79146" lon="-3.53141">
        <ele>2.67</ele>
        <time>2020-07-08T09:23:03Z</time>
      </trkpt>
      <trkpt lat="47.79147" lon="-3.53137">
        <ele>2.98</ele>
        <time>2020-07-08T09:23:04Z</time>
      </trkpt>
      <trkpt lat="47.79147" lon="-3.53133">
        <ele>3.17</ele>
        <time>2020-07-08T09:23:05Z</time>
      </trkpt>
      <trkpt lat="47.79147" lon="-3.53129">
        <ele>3.37</ele>
        <time>2020-07-08T09:23:06Z</time>
      </trkpt>
      <trkpt lat="47.79147" lon="-3.53124">
        <ele>3.43</ele>
        <time>2020-07-08T09:23:07Z</time>
      </trkpt>
      <trkpt lat="47.79146" lon="-3.53119">
        <ele>3.48</ele>
        <time>2020-07-08T09:23:08Z</time>
      </trkpt>
      <trkpt lat="47.79145" lon="-3.53113">
        <ele>3.41</ele>
        <time>2020-07-08T09:23:09Z</time>
      </trkpt>
      <trkpt lat="47.79143" lon="-3.53107">
        <ele>3.13</ele>
        <time>2020-07-08T09:23:10Z</time>
      </trkpt>
      <trkpt lat="47.79142" lon="-3.53101">
        <ele>2.89</ele>
        <time>2020-07-08T09:23:11Z</time>
      </trkpt>
      <trkpt lat="47.7914" lon="-3.53093">
        <ele>2.5</ele>
        <time>2020-07-08T09:23:12Z</time>
      </trkpt>
      <trkpt lat="47.79138" lon="-3.53086">
        <ele>2.13</ele>
        <time>2020-07-08T09:23:13Z</time>
      </trkpt>
      <trkpt lat="47.79137" lon="-3.53079">
        <ele>1.94</ele>
        <time>2020-07-08T09:23:14Z</time>
      </trkpt>
      <trkpt lat="47.79136" lon="-3.53072">
        <ele>1.85</ele>
        <time>2020-07-08T09:23:15Z</time>
      </trkpt>
      <trkpt lat="47.79136" lon="-3.53067">
        <ele>1.82</ele>
        <time>2020-07-08T09:23:16Z</time>
      </trkpt>
      <trkpt lat="47.79137" lon="-3.53061">
        <ele>1.85</ele>
        <time>2020-07-08T09:23:17Z</time>
      </trkpt>
      <trkpt lat="47.79139" lon="-3.53056">
        <ele>1.94</ele>
        <time>2020-07-08T09:23:18Z</time>
      </trkpt>
      <trkpt lat="47.79141" lon="-3.53053">
        <ele>2</ele>
        <time>2020-07-08T09:23:19Z</time>
      </trkpt>
      <trkpt lat="47.79144" lon="-3.53048">
        <ele>2</ele>
        <time>2020-07-08T09:23:20Z</time>
      </trkpt>
      <trkpt lat="47.79148" lon="-3.53044">
        <ele>2.02</ele>
        <time>2020-07-08T09:23:21Z</time>
      </trkpt>
      <trkpt lat="47.79153" lon="-3.53041">
        <ele>2.11</ele>
        <time>2020-07-08T09:23:22Z</time>
      </trkpt>
      <trkpt lat="47.79157" lon="-3.53038">
        <ele>2.25</ele>
        <time>2020-07-08T09:23:23Z</time>
      </trkpt>
      <trkpt lat="47.79161" lon="-3.53037">
        <ele>2.43</ele>
        <time>2020-07-08T09:23:24Z</time>
      </trkpt>
      <trkpt lat="47.79165" lon="-3.53035">
        <ele>2.59</ele>
        <time>2020-07-08T09:23:25Z</time>
      </trkpt>
      <trkpt lat="47.79169" lon="-3.53034">
        <ele>2.81</ele>
        <time>2020-07-08T09:23:26Z</time>
      </trkpt>
      <trkpt lat="47.79173" lon="-3.53033">
        <ele>3.14</ele>
        <time>2020-07-08T09:23:27Z</time>
      </trkpt>
      <trkpt lat="47.79177" lon="-3.53032">
        <ele>3.44</ele>
        <time>2020-07-08T09:23:28Z</time>
      </trkpt>
      <trkpt lat="47.7918" lon="-3.53031">
        <ele>3.7</ele>
        <time>2020-07-08T09:23:29Z</time>
      </trkpt>
      <trkpt lat="47.79184" lon="-3.53029">
        <ele>3.92</ele>
        <time>2020-07-08T09:23:30Z</time>
      </trkpt>
      <trkpt lat="47.79188" lon="-3.53026">
        <ele>4.11</ele>
        <time>2020-07-08T09:23:31Z</time>
      </trkpt>
      <trkpt lat="47.7919" lon="-3.53023">
        <ele>4.19</ele>
        <time>2020-07-08T09:23:32Z</time>
      </trkpt>
      <trkpt lat="47.79192" lon="-3.53018">
        <ele>4.12</ele>
        <time>2020-07-08T09:23:33Z</time>
      </trkpt>
      <trkpt lat="47.79194" lon="-3.53013">
        <ele>3.94</ele>
        <time>2020-07-08T09:23:34Z</time>
      </trkpt>
      <trkpt lat="47.79195" lon="-3.53006">
        <ele>3.65</ele>
        <time>2020-07-08T09:23:35Z</time>
      </trkpt>
      <trkpt lat="47.79196" lon="-3.53">
        <ele>3.31</ele>
        <time>2020-07-08T09:23:36Z</time>
      </trkpt>
      <trkpt lat="47.79197" lon="-3.52994">
        <ele>2.96</ele>
        <time>2020-07-08T09:23:37Z</time>
      </trkpt>
      <trkpt lat="47.79197" lon="-3.52988">
        <ele>2.6</ele>
        <time>2020-07-08T09:23:38Z</time>
      </trkpt>
      <trkpt lat="47.79198" lon="-3.52982">
        <ele>2.28</ele>
        <time>2020-07-08T09:23:39Z</time>
      </trkpt>
      <trkpt lat="47.79199" lon="-3.52975">
        <ele>1.97</ele>
        <time>2020-07-08T09:23:40Z</time>
      </trkpt>
      <trkpt lat="47.792" lon="-3.52969">
        <ele>1.74</ele>
        <time>2020-07-08T09:23:41Z</time>
      </trkpt>
      <trkpt lat="47.79201" lon="-3.52963">
        <ele>1.67</ele>
        <time>2020-07-08T09:23:42Z</time>
      </trkpt>
      <trkpt lat="47.79202" lon="-3.52956">
        <ele>1.65</ele>
        <time>2020-07-08T09:23:43Z</time>
      </trkpt>
      <trkpt lat="47.79203" lon="-3.5295">
        <ele>1.69</ele>
        <time>2020-07-08T09:23:44Z</time>
      </trkpt>
      <trkpt lat="47.79205" lon="-3.52944">
        <ele>1.82</ele>
        <time>2020-07-08T09:23:45Z</time>
      </trkpt>
      <trkpt lat="47.79207" lon="-3.52938">
        <ele>1.92</ele>
        <time>2020-07-08T09:23:46Z</time>
      </trkpt>
      <trkpt lat="47.79209" lon="-3.52933">
        <ele>1.95</ele>
        <time>2020-07-08T09:23:47Z</time>
      </trkpt>
      <trkpt lat="47.79211" lon="-3.52928">
        <ele>1.95</ele>
        <time>2020-07-08T09:23:48Z</time>
      </trkpt>
      <trkpt lat="47.79212" lon="-3.52925">
        <ele>1.88</ele>
        <time>2020-07-08T09:23:49Z</time>
      </trkpt>
      <trkpt lat="47.79215" lon="-3.52921">
        <ele>1.82</ele>
        <time>2020-07-08T09:23:50Z</time>
      </trkpt>
      <trkpt lat="47.79218" lon="-3.52916">
        <ele>1.73</ele>
        <time>2020-07-08T09:23:51Z</time>
      </trkpt>
      <trkpt lat="47.79222" lon="-3.52912">
        <ele>1.64</ele>
        <time>2020-07-08T09:23:52Z</time>
      </trkpt>
      <trkpt lat="47.79225" lon="-3.52907">
        <ele>1.68</ele>
        <time>2020-07-08T09:23:53Z</time>
      </trkpt>
      <trkpt lat="47.79228" lon="-3.52903">
        <ele>1.79</ele>
        <time>2020-07-08T09:23:54Z</time>
      </trkpt>
      <trkpt lat="47.79231" lon="-3.52899">
        <ele>1.91</ele>
        <time>2020-07-08T09:23:55Z</time>
      </trkpt>
      <trkpt lat="47.79233" lon="-3.52894">
        <ele>1.98</ele>
        <time>2020-07-08T09:23:56Z</time>
      </trkpt>
      <trkpt lat="47.79236" lon="-3.5289">
        <ele>2.06</ele>
        <time>2020-07-08T09:23:57Z</time>
      </trkpt>
      <trkpt lat="47.7924" lon="-3.52886">
        <ele>2.27</ele>
        <time>2020-07-08T09:23:58Z</time>
      </trkpt>
      <trkpt lat="47.79243" lon="-3.52883">
        <ele>2.46</ele>
        <time>2020-07-08T09:23:59Z</time>
      </trkpt>
      <trkpt lat="47.79247" lon="-3.52879">
        <ele>2.56</ele>
        <time>2020-07-08T09:24:00Z</time>
      </trkpt>
      <trkpt lat="47.79251" lon="-3.52875">
        <ele>2.55</ele>
        <time>2020-07-08T09:24:01Z</time>
      </trkpt>
      <trkpt lat="47.79254" lon="-3.52873">
        <ele>2.58</ele>
        <time>2020-07-08T09:24:02Z</time>
      </trkpt>
      <trkpt lat="47.79258" lon="-3.52871">
        <ele>2.65</ele>
        <time>2020-07-08T09:24:03Z</time>
      </trkpt>
      <trkpt lat="47.79262" lon="-3.5287">
        <ele>2.81</ele>
        <time>2020-07-08T09:24:04Z</time>
      </trkpt>
      <trkpt lat="47.79267" lon="-3.5287">
        <ele>3.07</ele>
        <time>2020-07-08T09:24:05Z</time>
      </trkpt>
      <trkpt lat="47.79272" lon="-3.5287">
        <ele>3.38</ele>
        <time>2020-07-08T09:24:06Z</time>
      </trkpt>
      <trkpt lat="47.79276" lon="-3.52869">
        <ele>3.63</ele>
        <time>2020-07-08T09:24:07Z</time>
      </trkpt>
      <trkpt lat="47.7928" lon="-3.52868">
        <ele>3.8</ele>
        <time>2020-07-08T09:24:08Z</time>
      </trkpt>
      <trkpt lat="47.79285" lon="-3.52867">
        <ele>3.87</ele>
        <time>2020-07-08T09:24:09Z</time>
      </trkpt>
      <trkpt lat="47.79289" lon="-3.52866">
        <ele>3.88</ele>
        <time>2020-07-08T09:24:10Z</time>
      </trkpt>
      <trkpt lat="47.79293" lon="-3.52864">
        <ele>3.87</ele>
        <time>2020-07-08T09:24:11Z</time>
      </trkpt>
      <trkpt lat="47.79296" lon="-3.52861">
        <ele>3.74</ele>
        <time>2020-07-08T09:24:12Z</time>
      </trkpt>
      <trkpt lat="47.79299" lon="-3.52858">
        <ele>3.6</ele>
        <time>2020-07-08T09:24:13Z</time>
      </trkpt>
      <trkpt lat="47.79302" lon="-3.52856">
        <ele>3.51</ele>
        <time>2020-07-08T09:24:14Z</time>
      </trkpt>
      <trkpt lat="47.79305" lon="-3.52852">
        <ele>3.37</ele>
        <time>2020-07-08T09:24:15Z</time>
      </trkpt>
      <trkpt lat="47.79308" lon="-3.52847">
        <ele>3.23</ele>
        <time>2020-07-08T09:24:16Z</time>
      </trkpt>
      <trkpt lat="47.79313" lon="-3.52844">
        <ele>3.17</ele>
        <time>2020-07-08T09:24:17Z</time>
      </trkpt>
      <trkpt lat="47.79317" lon="-3.52843">
        <ele>3.2</ele>
        <time>2020-07-08T09:24:18Z</time>
      </trkpt>
      <trkpt lat="47.79322" lon="-3.52842">
        <ele>3.31</ele>
        <time>2020-07-08T09:24:19Z</time>
      </trkpt>
      <trkpt lat="47.79325" lon="-3.5284">
        <ele>3.32</ele>
        <time>2020-07-08T09:24:20Z</time>
      </trkpt>
      <trkpt lat="47.79328" lon="-3.52836">
        <ele>3.2</ele>
        <time>2020-07-08T09:24:21Z</time>
      </trkpt>
      <trkpt lat="47.79332" lon="-3.52833">
        <ele>3.01</ele>
        <time>2020-07-08T09:24:22Z</time>
      </trkpt>
      <trkpt lat="47.79336" lon="-3.52832">
        <ele>2.94</ele>
        <time>2020-07-08T09:24:23Z</time>
      </trkpt>
      <trkpt lat="47.79339" lon="-3.52832">
        <ele>3.01</ele>
        <time>2020-07-08T09:24:24Z</time>
      </trkpt>
      <trkpt lat="47.79342" lon="-3.52833">
        <ele>3.2</ele>
        <time>2020-07-08T09:24:25Z</time>
      </trkpt>
      <trkpt lat="47.79345" lon="-3.52833">
        <ele>3.34</ele>
        <time>2020-07-08T09:24:26Z</time>
      </trkpt>
      <trkpt lat="47.79348" lon="-3.52832">
        <ele>3.38</ele>
        <time>2020-07-08T09:24:27Z</time>
      </trkpt>
      <trkpt lat="47.79352" lon="-3.5283">
        <ele>3.41</ele>
        <time>2020-07-08T09:24:28Z</time>
      </trkpt>
      <trkpt lat="47.79356" lon="-3.52828">
        <ele>3.4</ele>
        <time>2020-07-08T09:24:29Z</time>
      </trkpt>
      <trkpt lat="47.7936" lon="-3.52824">
        <ele>3.28</ele>
        <time>2020-07-08T09:24:30Z</time>
      </trkpt>
      <trkpt lat="47.79362" lon="-3.52818">
        <ele>3.1</ele>
        <time>2020-07-08T09:24:31Z</time>
      </trkpt>
      <trkpt lat="47.79369" lon="-3.52807">
        <ele>3.02</ele>
        <time>2020-07-08T09:24:32Z</time>
      </trkpt>
      <trkpt lat="47.79374" lon="-3.52799">
        <ele>2.82</ele>
        <time>2020-07-08T09:24:33Z</time>
      </trkpt>
      <trkpt lat="47.79378" lon="-3.52795">
        <ele>2.63</ele>
        <time>2020-07-08T09:24:34Z</time>
      </trkpt>
      <trkpt lat="47.7938" lon="-3.52791">
        <ele>2.44</ele>
        <time>2020-07-08T09:24:35Z</time>
      </trkpt>
      <trkpt lat="47.79382" lon="-3.5279">
        <ele>2.32</ele>
        <time>2020-07-08T09:24:36Z</time>
      </trkpt>
      <trkpt lat="47.79383" lon="-3.52789">
        <ele>2.27</ele>
        <time>2020-07-08T09:24:37Z</time>
      </trkpt>
      <trkpt lat="47.79384" lon="-3.52789">
        <ele>2.27</ele>
        <time>2020-07-08T09:24:38Z</time>
      </trkpt>
      <trkpt lat="47.79385" lon="-3.52788">
        <ele>2.27</ele>
        <time>2020-07-08T09:24:39Z</time>
      </trkpt>
      <trkpt lat="47.79386" lon="-3.52788">
        <ele>2.24</ele>
        <time>2020-07-08T09:24:40Z</time>
      </trkpt>
      <trkpt lat="47.79387" lon="-3.52787">
        <ele>2.27</ele>
        <time>2020-07-08T09:24:41Z</time>
      </trkpt>
      <trkpt lat="47.79389" lon="-3.52787">
        <ele>2.34</ele>
        <time>2020-07-08T09:24:42Z</time>
      </trkpt>
      <trkpt lat="47.79391" lon="-3.52787">
        <ele>2.49</ele>
        <time>2020-07-08T09:24:43Z</time>
      </trkpt>
      <trkpt lat="47.79394" lon="-3.52785">
        <ele>2.59</ele>
        <time>2020-07-08T09:24:44Z</time>
      </trkpt>
      <trkpt lat="47.79397" lon="-3.52783">
        <ele>2.7</ele>
        <time>2020-07-08T09:24:45Z</time>
      </trkpt>
      <trkpt lat="47.794" lon="-3.52782">
        <ele>2.89</ele>
        <time>2020-07-08T09:24:46Z</time>
      </trkpt>
      <trkpt lat="47.79402" lon="-3.52781">
        <ele>3.05</ele>
        <time>2020-07-08T09:24:47Z</time>
      </trkpt>
      <trkpt lat="47.79405" lon="-3.5278">
        <ele>3.2</ele>
        <time>2020-07-08T09:24:48Z</time>
      </trkpt>
      <trkpt lat="47.79407" lon="-3.52779">
        <ele>3.26</ele>
        <time>2020-07-08T09:24:49Z</time>
      </trkpt>
      <trkpt lat="47.79409" lon="-3.52778">
        <ele>3.24</ele>
        <time>2020-07-08T09:24:50Z</time>
      </trkpt>
      <trkpt lat="47.79411" lon="-3.52777">
        <ele>3.25</ele>
        <time>2020-07-08T09:24:51Z</time>
      </trkpt>
      <trkpt lat="47.79412" lon="-3.52775">
        <ele>3.2</ele>
        <time>2020-07-08T09:24:52Z</time>
      </trkpt>
      <trkpt lat="47.79414" lon="-3.52774">
        <ele>3.22</ele>
        <time>2020-07-08T09:24:53Z</time>
      </trkpt>
      <trkpt lat="47.79415" lon="-3.52774">
        <ele>3.35</ele>
        <time>2020-07-08T09:24:54Z</time>
      </trkpt>
      <trkpt lat="47.79417" lon="-3.52775">
        <ele>3.49</ele>
        <time>2020-07-08T09:24:55Z</time>
      </trkpt>
      <trkpt lat="47.79418" lon="-3.52776">
        <ele>3.48</ele>
        <time>2020-07-08T09:24:56Z</time>
      </trkpt>
      <trkpt lat="47.7942" lon="-3.52777">
        <ele>3.47</ele>
        <time>2020-07-08T09:24:57Z</time>
      </trkpt>
      <trkpt lat="47.79421" lon="-3.52779">
        <ele>3.65</ele>
        <time>2020-07-08T09:24:58Z</time>
      </trkpt>
      <trkpt lat="47.79422" lon="-3.52781">
        <ele>3.9</ele>
        <time>2020-07-08T09:24:59Z</time>
      </trkpt>
      <trkpt lat="47.79423" lon="-3.52784">
        <ele>4.29</ele>
        <time>2020-07-08T09:25:00Z</time>
      </trkpt>
      <trkpt lat="47.79424" lon="-3.52788">
        <ele>4.86</ele>
        <time>2020-07-08T09:25:01Z</time>
      </trkpt>
      <trkpt lat="47.79424" lon="-3.52791">
        <ele>5.42</ele>
        <time>2020-07-08T09:25:02Z</time>
      </trkpt>
      <trkpt lat="47.79426" lon="-3.52796">
        <ele>6.08</ele>
        <time>2020-07-08T09:25:03Z</time>
      </trkpt>
      <trkpt lat="47.79427" lon="-3.52799">
        <ele>6.56</ele>
        <time>2020-07-08T09:25:04Z</time>
      </trkpt>
      <trkpt lat="47.79428" lon="-3.52802">
        <ele>7.09</ele>
        <time>2020-07-08T09:25:05Z</time>
      </trkpt>
      <trkpt lat="47.79429" lon="-3.52806">
        <ele>7.58</ele>
        <time>2020-07-08T09:25:06Z</time>
      </trkpt>
      <trkpt lat="47.79431" lon="-3.52809">
        <ele>7.95</ele>
        <time>2020-07-08T09:25:07Z</time>
      </trkpt>
      <trkpt lat="47.79433" lon="-3.52812">
        <ele>8.29</ele>
        <time>2020-07-08T09:25:08Z</time>
      </trkpt>
      <trkpt lat="47.79434" lon="-3.52815">
        <ele>8.68</ele>
        <time>2020-07-08T09:25:09Z</time>
      </trkpt>
      <trkpt lat="47.79436" lon="-3.52818">
        <ele>9.06</ele>
        <time>2020-07-08T09:25:10Z</time>
      </trkpt>
      <trkpt lat="47.79438" lon="-3.52819">
        <ele>9.31</ele>
        <time>2020-07-08T09:25:11Z</time>
      </trkpt>
      <trkpt lat="47.7944" lon="-3.5282">
        <ele>9.5</ele>
        <time>2020-07-08T09:25:12Z</time>
      </trkpt>
      <trkpt lat="47.79442" lon="-3.52821">
        <ele>9.52</ele>
        <time>2020-07-08T09:25:13Z</time>
      </trkpt>
      <trkpt lat="47.79443" lon="-3.52821">
        <ele>9.49</ele>
        <time>2020-07-08T09:25:14Z</time>
      </trkpt>
      <trkpt lat="47.79445" lon="-3.52821">
        <ele>9.44</ele>
        <time>2020-07-08T09:25:15Z</time>
      </trkpt>
      <trkpt lat="47.79447" lon="-3.52822">
        <ele>9.53</ele>
        <time>2020-07-08T09:25:16Z</time>
      </trkpt>
      <trkpt lat="47.79449" lon="-3.52823">
        <ele>9.71</ele>
        <time>2020-07-08T09:25:17Z</time>
      </trkpt>
      <trkpt lat="47.79451" lon="-3.52823">
        <ele>9.85</ele>
        <time>2020-07-08T09:25:18Z</time>
      </trkpt>
      <trkpt lat="47.79453" lon="-3.52824">
        <ele>10.06</ele>
        <time>2020-07-08T09:25:19Z</time>
      </trkpt>
      <trkpt lat="47.79456" lon="-3.52824">
        <ele>10.14</ele>
        <time>2020-07-08T09:25:20Z</time>
      </trkpt>
      <trkpt lat="47.79459" lon="-3.52825">
        <ele>10.39</ele>
        <time>2020-07-08T09:25:21Z</time>
      </trkpt>
      <trkpt lat="47.79462" lon="-3.52826">
        <ele>10.76</ele>
        <time>2020-07-08T09:25:22Z</time>
      </trkpt>
      <trkpt lat="47.79464" lon="-3.52828">
        <ele>11.41</ele>
        <time>2020-07-08T09:25:23Z</time>
      </trkpt>
      <trkpt lat="47.79466" lon="-3.52831">
        <ele>12.37</ele>
        <time>2020-07-08T09:25:24Z</time>
      </trkpt>
      <trkpt lat="47.79468" lon="-3.52834">
        <ele>13.46</ele>
        <time>2020-07-08T09:25:25Z</time>
      </trkpt>
      <trkpt lat="47.79471" lon="-3.52837">
        <ele>14.11</ele>
        <time>2020-07-08T09:25:26Z</time>
      </trkpt>
      <trkpt lat="47.79474" lon="-3.52841">
        <ele>14.34</ele>
        <time>2020-07-08T09:25:27Z</time>
      </trkpt>
      <trkpt lat="47.79477" lon="-3.52845">
        <ele>14.32</ele>
        <time>2020-07-08T09:25:28Z</time>
      </trkpt>
      <trkpt lat="47.7948" lon="-3.52847">
        <ele>14.14</ele>
        <time>2020-07-08T09:25:29Z</time>
      </trkpt>
      <trkpt lat="47.79483" lon="-3.52848">
        <ele>13.82</ele>
        <time>2020-07-08T09:25:30Z</time>
      </trkpt>
      <trkpt lat="47.79486" lon="-3.52849">
        <ele>13.49</ele>
        <time>2020-07-08T09:25:31Z</time>
      </trkpt>
      <trkpt lat="47.79489" lon="-3.52849">
        <ele>13.04</ele>
        <time>2020-07-08T09:25:32Z</time>
      </trkpt>
      <trkpt lat="47.79493" lon="-3.5285">
        <ele>12.62</ele>
        <time>2020-07-08T09:25:33Z</time>
      </trkpt>
      <trkpt lat="47.79497" lon="-3.5285">
        <ele>12.24</ele>
        <time>2020-07-08T09:25:34Z</time>
      </trkpt>
      <trkpt lat="47.79499" lon="-3.52852">
        <ele>12.26</ele>
        <time>2020-07-08T09:25:35Z</time>
      </trkpt>
      <trkpt lat="47.79501" lon="-3.52854">
        <ele>12.56</ele>
        <time>2020-07-08T09:25:36Z</time>
      </trkpt>
      <trkpt lat="47.79503" lon="-3.52857">
        <ele>12.91</ele>
        <time>2020-07-08T09:25:37Z</time>
      </trkpt>
      <trkpt lat="47.79505" lon="-3.52861">
        <ele>13.47</ele>
        <time>2020-07-08T09:25:38Z</time>
      </trkpt>
      <trkpt lat="47.79507" lon="-3.52864">
        <ele>13.66</ele>
        <time>2020-07-08T09:25:39Z</time>
      </trkpt>
      <trkpt lat="47.79509" lon="-3.52868">
        <ele>13.81</ele>
        <time>2020-07-08T09:25:40Z</time>
      </trkpt>
      <trkpt lat="47.79512" lon="-3.52871">
        <ele>13.88</ele>
        <time>2020-07-08T09:25:41Z</time>
      </trkpt>
      <trkpt lat="47.79516" lon="-3.52873">
        <ele>13.73</ele>
        <time>2020-07-08T09:25:42Z</time>
      </trkpt>
      <trkpt lat="47.7952" lon="-3.52875">
        <ele>13.46</ele>
        <time>2020-07-08T09:25:43Z</time>
      </trkpt>
      <trkpt lat="47.79524" lon="-3.52876">
        <ele>13.14</ele>
        <time>2020-07-08T09:25:44Z</time>
      </trkpt>
      <trkpt lat="47.79528" lon="-3.52877">
        <ele>12.66</ele>
        <time>2020-07-08T09:25:45Z</time>
      </trkpt>
      <trkpt lat="47.79533" lon="-3.52878">
        <ele>12.24</ele>
        <time>2020-07-08T09:25:46Z</time>
      </trkpt>
      <trkpt lat="47.79537" lon="-3.52879">
        <ele>11.95</ele>
        <time>2020-07-08T09:25:47Z</time>
      </trkpt>
      <trkpt lat="47.7954" lon="-3.5288">
        <ele>11.89</ele>
        <time>2020-07-08T09:25:48Z</time>
      </trkpt>
      <trkpt lat="47.79543" lon="-3.52881">
        <ele>11.75</ele>
        <time>2020-07-08T09:25:49Z</time>
      </trkpt>
      <trkpt lat="47.79545" lon="-3.52881">
        <ele>11.58</ele>
        <time>2020-07-08T09:25:50Z</time>
      </trkpt>
      <trkpt lat="47.79546" lon="-3.52882">
        <ele>11.46</ele>
        <time>2020-07-08T09:25:51Z</time>
      </trkpt>
      <trkpt lat="47.79547" lon="-3.52881">
        <ele>11.32</ele>
        <time>2020-07-08T09:25:52Z</time>
      </trkpt>
      <trkpt lat="47.79547" lon="-3.52881">
        <ele>11.16</ele>
        <time>2020-07-08T09:25:53Z</time>
      </trkpt>
      <trkpt lat="47.79547" lon="-3.52881">
        <ele>11.11</ele>
        <time>2020-07-08T09:25:54Z</time>
      </trkpt>
      <trkpt lat="47.79547" lon="-3.52881">
        <ele>11.1</ele>
        <time>2020-07-08T09:25:55Z</time>
      </trkpt>
      <trkpt lat="47.79547" lon="-3.52881">
        <ele>11.09</ele>
        <time>2020-07-08T09:25:56Z</time>
      </trkpt>
      <trkpt lat="47.79547" lon="-3.52881">
        <ele>11.09</ele>
        <time>2020-07-08T09:25:57Z</time>
      </trkpt>
      <trkpt lat="47.79547" lon="-3.52881">
        <ele>11.09</ele>
        <time>2020-07-08T09:25:58Z</time>
      </trkpt>
      <trkpt lat="47.79547" lon="-3.52881">
        <ele>11.09</ele>
        <time>2020-07-08T09:25:59Z</time>
      </trkpt>
      <trkpt lat="47.79547" lon="-3.52881">
        <ele>11.09</ele>
        <time>2020-07-08T09:26:00Z</time>
      </trkpt>
      <trkpt lat="47.79547" lon="-3.52881">
        <ele>11.09</ele>
        <time>2020-07-08T09:26:01Z</time>
      </trkpt>
      <trkpt lat="47.79547" lon="-3.52881">
        <ele>11.09</ele>
        <time>2020-07-08T09:26:02Z</time>
      </trkpt>
      <trkpt lat="47.79547" lon="-3.52881">
        <ele>11.09</ele>
        <time>2020-07-08T09:26:03Z</time>
      </trkpt>
      <trkpt lat="47.79547" lon="-3.52881">
        <ele>11.09</ele>
        <time>2020-07-08T09:26:04Z</time>
      </trkpt>
      <trkpt lat="47.79547" lon="-3.52881">
        <ele>11.09</ele>
        <time>2020-07-08T09:26:05Z</time>
      </trkpt>
      <trkpt lat="47.79547" lon="-3.52881">
        <ele>11.09</ele>
        <time>2020-07-08T09:26:06Z</time>
      </trkpt>
      <trkpt lat="47.79547" lon="-3.52881">
        <ele>11.09</ele>
        <time>2020-07-08T09:26:07Z</time>
      </trkpt>
      <trkpt lat="47.79547" lon="-3.52881">
        <ele>11.09</ele>
        <time>2020-07-08T09:26:08Z</time>
      </trkpt>
      <trkpt lat="47.79547" lon="-3.52881">
        <ele>11.09</ele>
        <time>2020-07-08T09:26:09Z</time>
      </trkpt>
      <trkpt lat="47.79547" lon="-3.52881">
        <ele>11.09</ele>
        <time>2020-07-08T09:26:10Z</time>
      </trkpt>
      <trkpt lat="47.79547" lon="-3.52881">
        <ele>11.09</ele>
        <time>2020-07-08T09:26:11Z</time>
      </trkpt>
      <trkpt lat="47.79556" lon="-3.52887">
        <ele>11.44</ele>
        <time>2020-07-08T09:26:12Z</time>
      </trkpt>
      <trkpt lat="47.79556" lon="-3.52888">
        <ele>11.78</ele>
        <time>2020-07-08T09:26:13Z</time>
      </trkpt>
      <trkpt lat="47.79557" lon="-3.52889">
        <ele>12.09</ele>
        <time>2020-07-08T09:26:14Z</time>
      </trkpt>
      <trkpt lat="47.79557" lon="-3.5289">
        <ele>12.47</ele>
        <time>2020-07-08T09:26:15Z</time>
      </trkpt>
      <trkpt lat="47.79557" lon="-3.5289">
        <ele>12.59</ele>
        <time>2020-07-08T09:26:16Z</time>
      </trkpt>
      <trkpt lat="47.79557" lon="-3.5289">
        <ele>12.62</ele>
        <time>2020-07-08T09:26:17Z</time>
      </trkpt>
      <trkpt lat="47.79557" lon="-3.5289">
        <ele>12.63</ele>
        <time>2020-07-08T09:26:18Z</time>
      </trkpt>
      <trkpt lat="47.79557" lon="-3.5289">
        <ele>12.63</ele>
        <time>2020-07-08T09:26:19Z</time>
      </trkpt>
      <trkpt lat="47.79557" lon="-3.5289">
        <ele>12.63</ele>
        <time>2020-07-08T09:26:20Z</time>
      </trkpt>
      <trkpt lat="47.79557" lon="-3.5289">
        <ele>12.63</ele>
        <time>2020-07-08T09:26:21Z</time>
      </trkpt>
      <trkpt lat="47.79557" lon="-3.5289">
        <ele>12.63</ele>
        <time>2020-07-08T09:26:22Z</time>
      </trkpt>
      <trkpt lat="47.79557" lon="-3.5289">
        <ele>12.63</ele>
        <time>2020-07-08T09:26:23Z</time>
      </trkpt>
      <trkpt lat="47.79557" lon="-3.5289">
        <ele>12.63</ele>
        <time>2020-07-08T09:26:24Z</time>
      </trkpt>
      <trkpt lat="47.79557" lon="-3.5289">
        <ele>12.63</ele>
        <time>2020-07-08T09:26:25Z</time>
      </trkpt>
      <trkpt lat="47.79557" lon="-3.5289">
        <ele>12.63</ele>
        <time>2020-07-08T09:26:26Z</time>
      </trkpt>
      <trkpt lat="47.79557" lon="-3.5289">
        <ele>12.63</ele>
        <time>2020-07-08T09:26:27Z</time>
      </trkpt>
      <trkpt lat="47.79557" lon="-3.5289">
        <ele>12.63</ele>
        <time>2020-07-08T09:26:28Z</time>
      </trkpt>
      <trkpt lat="47.79557" lon="-3.5289">
        <ele>12.63</ele>
        <time>2020-07-08T09:26:29Z</time>
      </trkpt>
      <trkpt lat="47.79557" lon="-3.5289">
        <ele>12.63</ele>
        <time>2020-07-08T09:26:30Z</time>
      </trkpt>
      <trkpt lat="47.79557" lon="-3.5289">
        <ele>12.63</ele>
        <time>2020-07-08T09:26:31Z</time>
      </trkpt>
      <trkpt lat="47.79566" lon="-3.52891">
        <ele>14.36</ele>
        <time>2020-07-08T09:26:32Z</time>
      </trkpt>
      <trkpt lat="47.79567" lon="-3.5289">
        <ele>14.81</ele>
        <time>2020-07-08T09:26:33Z</time>
      </trkpt>
      <trkpt lat="47.79567" lon="-3.5289">
        <ele>14.95</ele>
        <time>2020-07-08T09:26:34Z</time>
      </trkpt>
      <trkpt lat="47.79568" lon="-3.52889">
        <ele>14.98</ele>
        <time>2020-07-08T09:26:35Z</time>
      </trkpt>
      <trkpt lat="47.79568" lon="-3.52888">
        <ele>14.79</ele>
        <time>2020-07-08T09:26:36Z</time>
      </trkpt>
      <trkpt lat="47.79568" lon="-3.52888">
        <ele>14.73</ele>
        <time>2020-07-08T09:26:37Z</time>
      </trkpt>
      <trkpt lat="47.79569" lon="-3.52885">
        <ele>14.71</ele>
        <time>2020-07-08T09:26:38Z</time>
      </trkpt>
      <trkpt lat="47.79569" lon="-3.52883">
        <ele>14.28</ele>
        <time>2020-07-08T09:26:39Z</time>
      </trkpt>
      <trkpt lat="47.79568" lon="-3.52882">
        <ele>13.86</ele>
        <time>2020-07-08T09:26:40Z</time>
      </trkpt>
      <trkpt lat="47.79568" lon="-3.5288">
        <ele>13.51</ele>
        <time>2020-07-08T09:26:41Z</time>
      </trkpt>
      <trkpt lat="47.79568" lon="-3.52878">
        <ele>13.12</ele>
        <time>2020-07-08T09:26:42Z</time>
      </trkpt>
      <trkpt lat="47.79569" lon="-3.52876">
        <ele>12.73</ele>
        <time>2020-07-08T09:26:43Z</time>
      </trkpt>
      <trkpt lat="47.79569" lon="-3.52874">
        <ele>12.35</ele>
        <time>2020-07-08T09:26:44Z</time>
      </trkpt>
      <trkpt lat="47.79569" lon="-3.52872">
        <ele>11.97</ele>
        <time>2020-07-08T09:26:45Z</time>
      </trkpt>
      <trkpt lat="47.7957" lon="-3.52869">
        <ele>11.63</ele>
        <time>2020-07-08T09:26:46Z</time>
      </trkpt>
      <trkpt lat="47.79571" lon="-3.52866">
        <ele>11.33</ele>
        <time>2020-07-08T09:26:47Z</time>
      </trkpt>
      <trkpt lat="47.79572" lon="-3.52862">
        <ele>10.75</ele>
        <time>2020-07-08T09:26:48Z</time>
      </trkpt>
      <trkpt lat="47.79574" lon="-3.52857">
        <ele>10.15</ele>
        <time>2020-07-08T09:26:49Z</time>
      </trkpt>
      <trkpt lat="47.79575" lon="-3.52852">
        <ele>9.43</ele>
        <time>2020-07-08T09:26:50Z</time>
      </trkpt>
      <trkpt lat="47.79577" lon="-3.52846">
        <ele>8.6</ele>
        <time>2020-07-08T09:26:51Z</time>
      </trkpt>
      <trkpt lat="47.79579" lon="-3.52841">
        <ele>8.03</ele>
        <time>2020-07-08T09:26:52Z</time>
      </trkpt>
      <trkpt lat="47.79582" lon="-3.52837">
        <ele>7.74</ele>
        <time>2020-07-08T09:26:53Z</time>
      </trkpt>
      <trkpt lat="47.79585" lon="-3.52832">
        <ele>7.22</ele>
        <time>2020-07-08T09:26:54Z</time>
      </trkpt>
      <trkpt lat="47.79589" lon="-3.52826">
        <ele>6.74</ele>
        <time>2020-07-08T09:26:55Z</time>
      </trkpt>
      <trkpt lat="47.79593" lon="-3.52822">
        <ele>6.39</ele>
        <time>2020-07-08T09:26:56Z</time>
      </trkpt>
      <trkpt lat="47.79596" lon="-3.52821">
        <ele>6.45</ele>
        <time>2020-07-08T09:26:57Z</time>
      </trkpt>
      <trkpt lat="47.79599" lon="-3.5282">
        <ele>6.74</ele>
        <time>2020-07-08T09:26:58Z</time>
      </trkpt>
      <trkpt lat="47.79602" lon="-3.52819">
        <ele>7.04</ele>
        <time>2020-07-08T09:26:59Z</time>
      </trkpt>
      <trkpt lat="47.79605" lon="-3.52817">
        <ele>7.37</ele>
        <time>2020-07-08T09:27:00Z</time>
      </trkpt>
      <trkpt lat="47.79609" lon="-3.52814">
        <ele>7.54</ele>
        <time>2020-07-08T09:27:01Z</time>
      </trkpt>
      <trkpt lat="47.79614" lon="-3.5281">
        <ele>7.22</ele>
        <time>2020-07-08T09:27:02Z</time>
      </trkpt>
      <trkpt lat="47.79619" lon="-3.52805">
        <ele>6.49</ele>
        <time>2020-07-08T09:27:03Z</time>
      </trkpt>
      <trkpt lat="47.79625" lon="-3.52801">
        <ele>5.75</ele>
        <time>2020-07-08T09:27:04Z</time>
      </trkpt>
      <trkpt lat="47.79631" lon="-3.52798">
        <ele>5.1</ele>
        <time>2020-07-08T09:27:05Z</time>
      </trkpt>
      <trkpt lat="47.79636" lon="-3.52794">
        <ele>4.38</ele>
        <time>2020-07-08T09:27:06Z</time>
      </trkpt>
      <trkpt lat="47.7964" lon="-3.52792">
        <ele>4.05</ele>
        <time>2020-07-08T09:27:07Z</time>
      </trkpt>
      <trkpt lat="47.79644" lon="-3.5279">
        <ele>4.11</ele>
        <time>2020-07-08T09:27:08Z</time>
      </trkpt>
      <trkpt lat="47.79647" lon="-3.52789">
        <ele>4.29</ele>
        <time>2020-07-08T09:27:09Z</time>
      </trkpt>
      <trkpt lat="47.79651" lon="-3.52787">
        <ele>4.46</ele>
        <time>2020-07-08T09:27:10Z</time>
      </trkpt>
      <trkpt lat="47.79654" lon="-3.52785">
        <ele>4.6</ele>
        <time>2020-07-08T09:27:11Z</time>
      </trkpt>
      <trkpt lat="47.79656" lon="-3.52784">
        <ele>4.89</ele>
        <time>2020-07-08T09:27:12Z</time>
      </trkpt>
      <trkpt lat="47.79659" lon="-3.52784">
        <ele>5.31</ele>
        <time>2020-07-08T09:27:13Z</time>
      </trkpt>
      <trkpt lat="47.79661" lon="-3.52784">
        <ele>5.72</ele>
        <time>2020-07-08T09:27:14Z</time>
      </trkpt>
      <trkpt lat="47.79663" lon="-3.52785">
        <ele>6.15</ele>
        <time>2020-07-08T09:27:15Z</time>
      </trkpt>
      <trkpt lat="47.79665" lon="-3.52785">
        <ele>6.47</ele>
        <time>2020-07-08T09:27:16Z</time>
      </trkpt>
      <trkpt lat="47.79666" lon="-3.52785">
        <ele>6.81</ele>
        <time>2020-07-08T09:27:17Z</time>
      </trkpt>
      <trkpt lat="47.79668" lon="-3.52785">
        <ele>7.3</ele>
        <time>2020-07-08T09:27:18Z</time>
      </trkpt>
      <trkpt lat="47.79669" lon="-3.52784">
        <ele>7.52</ele>
        <time>2020-07-08T09:27:19Z</time>
      </trkpt>
      <trkpt lat="47.7967" lon="-3.52785">
        <ele>7.78</ele>
        <time>2020-07-08T09:27:20Z</time>
      </trkpt>
      <trkpt lat="47.79671" lon="-3.52785">
        <ele>8.1</ele>
        <time>2020-07-08T09:27:21Z</time>
      </trkpt>
      <trkpt lat="47.79672" lon="-3.52785">
        <ele>8.43</ele>
        <time>2020-07-08T09:27:22Z</time>
      </trkpt>
      <trkpt lat="47.79673" lon="-3.52784">
        <ele>8.59</ele>
        <time>2020-07-08T09:27:23Z</time>
      </trkpt>
      <trkpt lat="47.79675" lon="-3.52784">
        <ele>8.81</ele>
        <time>2020-07-08T09:27:24Z</time>
      </trkpt>
      <trkpt lat="47.79675" lon="-3.52783">
        <ele>8.98</ele>
        <time>2020-07-08T09:27:25Z</time>
      </trkpt>
      <trkpt lat="47.79676" lon="-3.52783">
        <ele>9.19</ele>
        <time>2020-07-08T09:27:26Z</time>
      </trkpt>
      <trkpt lat="47.79676" lon="-3.52783">
        <ele>9.26</ele>
        <time>2020-07-08T09:27:27Z</time>
      </trkpt>
      <trkpt lat="47.79676" lon="-3.52783">
        <ele>9.28</ele>
        <time>2020-07-08T09:27:28Z</time>
      </trkpt>
      <trkpt lat="47.79676" lon="-3.52783">
        <ele>9.29</ele>
        <time>2020-07-08T09:27:29Z</time>
      </trkpt>
      <trkpt lat="47.79676" lon="-3.52783">
        <ele>9.29</ele>
        <time>2020-07-08T09:27:30Z</time>
      </trkpt>
      <trkpt lat="47.79676" lon="-3.52783">
        <ele>9.29</ele>
        <time>2020-07-08T09:27:31Z</time>
      </trkpt>
      <trkpt lat="47.79676" lon="-3.52783">
        <ele>9.29</ele>
        <time>2020-07-08T09:27:32Z</time>
      </trkpt>
      <trkpt lat="47.79676" lon="-3.52783">
        <ele>9.29</ele>
        <time>2020-07-08T09:27:33Z</time>
      </trkpt>
      <trkpt lat="47.79676" lon="-3.52783">
        <ele>9.29</ele>
        <time>2020-07-08T09:27:34Z</time>
      </trkpt>
      <trkpt lat="47.79676" lon="-3.52783">
        <ele>9.29</ele>
        <time>2020-07-08T09:27:35Z</time>
      </trkpt>
      <trkpt lat="47.79676" lon="-3.52783">
        <ele>9.29</ele>
        <time>2020-07-08T09:27:36Z</time>
      </trkpt>
      <trkpt lat="47.79676" lon="-3.52783">
        <ele>9.29</ele>
        <time>2020-07-08T09:27:37Z</time>
      </trkpt>
      <trkpt lat="47.79676" lon="-3.52783">
        <ele>9.29</ele>
        <time>2020-07-08T09:27:38Z</time>
      </trkpt>
      <trkpt lat="47.79676" lon="-3.52783">
        <ele>9.29</ele>
        <time>2020-07-08T09:27:39Z</time>
      </trkpt>
      <trkpt lat="47.79676" lon="-3.52783">
        <ele>9.29</ele>
        <time>2020-07-08T09:27:40Z</time>
      </trkpt>
      <trkpt lat="47.79676" lon="-3.52783">
        <ele>9.29</ele>
        <time>2020-07-08T09:27:41Z</time>
      </trkpt>
      <trkpt lat="47.79676" lon="-3.52783">
        <ele>9.29</ele>
        <time>2020-07-08T09:27:42Z</time>
      </trkpt>
      <trkpt lat="47.79686" lon="-3.52779">
        <ele>10.43</ele>
        <time>2020-07-08T09:27:43Z</time>
      </trkpt>
      <trkpt lat="47.79687" lon="-3.52779">
        <ele>10.91</ele>
        <time>2020-07-08T09:27:44Z</time>
      </trkpt>
      <trkpt lat="47.79688" lon="-3.5278">
        <ele>11.39</ele>
        <time>2020-07-08T09:27:45Z</time>
      </trkpt>
      <trkpt lat="47.79689" lon="-3.5278">
        <ele>11.73</ele>
        <time>2020-07-08T09:27:46Z</time>
      </trkpt>
      <trkpt lat="47.7969" lon="-3.5278">
        <ele>12.14</ele>
        <time>2020-07-08T09:27:47Z</time>
      </trkpt>
      <trkpt lat="47.79691" lon="-3.5278">
        <ele>12.43</ele>
        <time>2020-07-08T09:27:48Z</time>
      </trkpt>
      <trkpt lat="47.79692" lon="-3.5278">
        <ele>12.68</ele>
        <time>2020-07-08T09:27:49Z</time>
      </trkpt>
      <trkpt lat="47.79692" lon="-3.5278">
        <ele>12.96</ele>
        <time>2020-07-08T09:27:50Z</time>
      </trkpt>
      <trkpt lat="47.79692" lon="-3.5278">
        <ele>13.04</ele>
        <time>2020-07-08T09:27:51Z</time>
      </trkpt>
      <trkpt lat="47.79692" lon="-3.5278">
        <ele>13.07</ele>
        <time>2020-07-08T09:27:52Z</time>
      </trkpt>
      <trkpt lat="47.79694" lon="-3.52782">
        <ele>13.85</ele>
        <time>2020-07-08T09:27:53Z</time>
      </trkpt>
      <trkpt lat="47.79695" lon="-3.52782">
        <ele>14.21</ele>
        <time>2020-07-08T09:27:54Z</time>
      </trkpt>
      <trkpt lat="47.79696" lon="-3.52782">
        <ele>14.38</ele>
        <time>2020-07-08T09:27:55Z</time>
      </trkpt>
      <trkpt lat="47.79696" lon="-3.52781">
        <ele>14.42</ele>
        <time>2020-07-08T09:27:56Z</time>
      </trkpt>
      <trkpt lat="47.79696" lon="-3.52781">
        <ele>14.44</ele>
        <time>2020-07-08T09:27:57Z</time>
      </trkpt>
      <trkpt lat="47.79696" lon="-3.52781">
        <ele>14.44</ele>
        <time>2020-07-08T09:27:58Z</time>
      </trkpt>
      <trkpt lat="47.79696" lon="-3.52781">
        <ele>14.44</ele>
        <time>2020-07-08T09:27:59Z</time>
      </trkpt>
      <trkpt lat="47.79696" lon="-3.52781">
        <ele>14.44</ele>
        <time>2020-07-08T09:28:00Z</time>
      </trkpt>
      <trkpt lat="47.797" lon="-3.52779">
        <ele>14.87</ele>
        <time>2020-07-08T09:28:01Z</time>
      </trkpt>
      <trkpt lat="47.79701" lon="-3.52779">
        <ele>15.06</ele>
        <time>2020-07-08T09:28:02Z</time>
      </trkpt>
      <trkpt lat="47.79701" lon="-3.52779">
        <ele>15.09</ele>
        <time>2020-07-08T09:28:03Z</time>
      </trkpt>
      <trkpt lat="47.797" lon="-3.52779">
        <ele>15.04</ele>
        <time>2020-07-08T09:28:04Z</time>
      </trkpt>
      <trkpt lat="47.797" lon="-3.52779">
        <ele>15.02</ele>
        <time>2020-07-08T09:28:05Z</time>
      </trkpt>
      <trkpt lat="47.797" lon="-3.52779">
        <ele>15.02</ele>
        <time>2020-07-08T09:28:06Z</time>
      </trkpt>
      <trkpt lat="47.797" lon="-3.52779">
        <ele>15.02</ele>
        <time>2020-07-08T09:28:07Z</time>
      </trkpt>
      <trkpt lat="47.797" lon="-3.52779">
        <ele>15.02</ele>
        <time>2020-07-08T09:28:08Z</time>
      </trkpt>
      <trkpt lat="47.797" lon="-3.52779">
        <ele>15.01</ele>
        <time>2020-07-08T09:28:09Z</time>
      </trkpt>
      <trkpt lat="47.79704" lon="-3.52775">
        <ele>14.74</ele>
        <time>2020-07-08T09:28:10Z</time>
      </trkpt>
      <trkpt lat="47.79706" lon="-3.52771">
        <ele>14.29</ele>
        <time>2020-07-08T09:28:11Z</time>
      </trkpt>
      <trkpt lat="47.79709" lon="-3.52767">
        <ele>13.74</ele>
        <time>2020-07-08T09:28:12Z</time>
      </trkpt>
      <trkpt lat="47.79711" lon="-3.52764">
        <ele>13.29</ele>
        <time>2020-07-08T09:28:13Z</time>
      </trkpt>
      <trkpt lat="47.79712" lon="-3.5276">
        <ele>12.8</ele>
        <time>2020-07-08T09:28:14Z</time>
      </trkpt>
      <trkpt lat="47.79714" lon="-3.52756">
        <ele>12.52</ele>
        <time>2020-07-08T09:28:15Z</time>
      </trkpt>
      <trkpt lat="47.79715" lon="-3.52753">
        <ele>12.14</ele>
        <time>2020-07-08T09:28:16Z</time>
      </trkpt>
      <trkpt lat="47.79717" lon="-3.52748">
        <ele>11.85</ele>
        <time>2020-07-08T09:28:17Z</time>
      </trkpt>
      <trkpt lat="47.79718" lon="-3.52744">
        <ele>11.83</ele>
        <time>2020-07-08T09:28:18Z</time>
      </trkpt>
      <trkpt lat="47.79719" lon="-3.5274">
        <ele>11.67</ele>
        <time>2020-07-08T09:28:19Z</time>
      </trkpt>
      <trkpt lat="47.7972" lon="-3.52737">
        <ele>11.46</ele>
        <time>2020-07-08T09:28:20Z</time>
      </trkpt>
      <trkpt lat="47.79721" lon="-3.52733">
        <ele>11.29</ele>
        <time>2020-07-08T09:28:21Z</time>
      </trkpt>
      <trkpt lat="47.79722" lon="-3.5273">
        <ele>11.18</ele>
        <time>2020-07-08T09:28:22Z</time>
      </trkpt>
      <trkpt lat="47.79723" lon="-3.52725">
        <ele>11.06</ele>
        <time>2020-07-08T09:28:23Z</time>
      </trkpt>
      <trkpt lat="47.79724" lon="-3.5272">
        <ele>10.83</ele>
        <time>2020-07-08T09:28:24Z</time>
      </trkpt>
      <trkpt lat="47.79726" lon="-3.52715">
        <ele>10.61</ele>
        <time>2020-07-08T09:28:25Z</time>
      </trkpt>
      <trkpt lat="47.79728" lon="-3.52708">
        <ele>10.2</ele>
        <time>2020-07-08T09:28:26Z</time>
      </trkpt>
      <trkpt lat="47.79729" lon="-3.527">
        <ele>9.66</ele>
        <time>2020-07-08T09:28:27Z</time>
      </trkpt>
      <trkpt lat="47.79732" lon="-3.52693">
        <ele>9.37</ele>
        <time>2020-07-08T09:28:28Z</time>
      </trkpt>
      <trkpt lat="47.79734" lon="-3.52686">
        <ele>9.36</ele>
        <time>2020-07-08T09:28:29Z</time>
      </trkpt>
      <trkpt lat="47.79736" lon="-3.5268">
        <ele>9.3</ele>
        <time>2020-07-08T09:28:30Z</time>
      </trkpt>
      <trkpt lat="47.79738" lon="-3.52675">
        <ele>9.05</ele>
        <time>2020-07-08T09:28:31Z</time>
      </trkpt>
      <trkpt lat="47.79739" lon="-3.5267">
        <ele>8.69</ele>
        <time>2020-07-08T09:28:32Z</time>
      </trkpt>
      <trkpt lat="47.7974" lon="-3.52667">
        <ele>8.46</ele>
        <time>2020-07-08T09:28:33Z</time>
      </trkpt>
      <trkpt lat="47.79741" lon="-3.52663">
        <ele>8.32</ele>
        <time>2020-07-08T09:28:34Z</time>
      </trkpt>
      <trkpt lat="47.79742" lon="-3.5266">
        <ele>8.3</ele>
        <time>2020-07-08T09:28:35Z</time>
      </trkpt>
      <trkpt lat="47.79744" lon="-3.52656">
        <ele>8.35</ele>
        <time>2020-07-08T09:28:36Z</time>
      </trkpt>
      <trkpt lat="47.79745" lon="-3.5265">
        <ele>8.36</ele>
        <time>2020-07-08T09:28:37Z</time>
      </trkpt>
      <trkpt lat="47.79749" lon="-3.52644">
        <ele>8.44</ele>
        <time>2020-07-08T09:28:38Z</time>
      </trkpt>
      <trkpt lat="47.79752" lon="-3.52638">
        <ele>8.64</ele>
        <time>2020-07-08T09:28:39Z</time>
      </trkpt>
      <trkpt lat="47.79754" lon="-3.5263">
        <ele>9.15</ele>
        <time>2020-07-08T09:28:40Z</time>
      </trkpt>
      <trkpt lat="47.79755" lon="-3.52623">
        <ele>9.48</ele>
        <time>2020-07-08T09:28:41Z</time>
      </trkpt>
      <trkpt lat="47.79758" lon="-3.52616">
        <ele>10.47</ele>
        <time>2020-07-08T09:28:42Z</time>
      </trkpt>
      <trkpt lat="47.79758" lon="-3.5261">
        <ele>10.59</ele>
        <time>2020-07-08T09:28:43Z</time>
      </trkpt>
      <trkpt lat="47.79756" lon="-3.52604">
        <ele>9.54</ele>
        <time>2020-07-08T09:28:44Z</time>
      </trkpt>
      <trkpt lat="47.79754" lon="-3.52596">
        <ele>7.81</ele>
        <time>2020-07-08T09:28:45Z</time>
      </trkpt>
      <trkpt lat="47.79753" lon="-3.52588">
        <ele>6.66</ele>
        <time>2020-07-08T09:28:46Z</time>
      </trkpt>
      <trkpt lat="47.79753" lon="-3.5258">
        <ele>5.91</ele>
        <time>2020-07-08T09:28:47Z</time>
      </trkpt>
      <trkpt lat="47.79754" lon="-3.52572">
        <ele>5.4</ele>
        <time>2020-07-08T09:28:48Z</time>
      </trkpt>
      <trkpt lat="47.79755" lon="-3.52564">
        <ele>5.23</ele>
        <time>2020-07-08T09:28:49Z</time>
      </trkpt>
      <trkpt lat="47.79756" lon="-3.52556">
        <ele>5.26</ele>
        <time>2020-07-08T09:28:50Z</time>
      </trkpt>
      <trkpt lat="47.79758" lon="-3.52548">
        <ele>5.32</ele>
        <time>2020-07-08T09:28:51Z</time>
      </trkpt>
      <trkpt lat="47.79761" lon="-3.5254">
        <ele>5.44</ele>
        <time>2020-07-08T09:28:52Z</time>
      </trkpt>
      <trkpt lat="47.79764" lon="-3.52533">
        <ele>5.55</ele>
        <time>2020-07-08T09:28:53Z</time>
      </trkpt>
      <trkpt lat="47.79766" lon="-3.52526">
        <ele>5.56</ele>
        <time>2020-07-08T09:28:54Z</time>
      </trkpt>
      <trkpt lat="47.79768" lon="-3.5252">
        <ele>5.9</ele>
        <time>2020-07-08T09:28:55Z</time>
      </trkpt>
      <trkpt lat="47.7977" lon="-3.52514">
        <ele>6.25</ele>
        <time>2020-07-08T09:28:56Z</time>
      </trkpt>
      <trkpt lat="47.79771" lon="-3.52508">
        <ele>6.52</ele>
        <time>2020-07-08T09:28:57Z</time>
      </trkpt>
      <trkpt lat="47.79773" lon="-3.52502">
        <ele>6.75</ele>
        <time>2020-07-08T09:28:58Z</time>
      </trkpt>
      <trkpt lat="47.79775" lon="-3.52496">
        <ele>6.7</ele>
        <time>2020-07-08T09:28:59Z</time>
      </trkpt>
      <trkpt lat="47.79776" lon="-3.5249">
        <ele>6.47</ele>
        <time>2020-07-08T09:29:00Z</time>
      </trkpt>
      <trkpt lat="47.79777" lon="-3.52484">
        <ele>6.28</ele>
        <time>2020-07-08T09:29:01Z</time>
      </trkpt>
      <trkpt lat="47.79779" lon="-3.52479">
        <ele>6.34</ele>
        <time>2020-07-08T09:29:02Z</time>
      </trkpt>
      <trkpt lat="47.79781" lon="-3.52474">
        <ele>6.53</ele>
        <time>2020-07-08T09:29:03Z</time>
      </trkpt>
      <trkpt lat="47.79782" lon="-3.52468">
        <ele>6.65</ele>
        <time>2020-07-08T09:29:04Z</time>
      </trkpt>
      <trkpt lat="47.79784" lon="-3.52463">
        <ele>6.72</ele>
        <time>2020-07-08T09:29:05Z</time>
      </trkpt>
      <trkpt lat="47.79785" lon="-3.52458">
        <ele>6.71</ele>
        <time>2020-07-08T09:29:06Z</time>
      </trkpt>
      <trkpt lat="47.79786" lon="-3.52453">
        <ele>6.67</ele>
        <time>2020-07-08T09:29:07Z</time>
      </trkpt>
      <trkpt lat="47.79787" lon="-3.52449">
        <ele>6.81</ele>
        <time>2020-07-08T09:29:08Z</time>
      </trkpt>
      <trkpt lat="47.79788" lon="-3.52445">
        <ele>6.91</ele>
        <time>2020-07-08T09:29:09Z</time>
      </trkpt>
      <trkpt lat="47.7979" lon="-3.52441">
        <ele>7.17</ele>
        <time>2020-07-08T09:29:10Z</time>
      </trkpt>
      <trkpt lat="47.79791" lon="-3.52437">
        <ele>7.49</ele>
        <time>2020-07-08T09:29:11Z</time>
      </trkpt>
      <trkpt lat="47.79793" lon="-3.52433">
        <ele>7.86</ele>
        <time>2020-07-08T09:29:12Z</time>
      </trkpt>
      <trkpt lat="47.79794" lon="-3.5243">
        <ele>8.14</ele>
        <time>2020-07-08T09:29:13Z</time>
      </trkpt>
      <trkpt lat="47.79795" lon="-3.52426">
        <ele>8.38</ele>
        <time>2020-07-08T09:29:14Z</time>
      </trkpt>
      <trkpt lat="47.79796" lon="-3.52422">
        <ele>8.69</ele>
        <time>2020-07-08T09:29:15Z</time>
      </trkpt>
      <trkpt lat="47.79797" lon="-3.52418">
        <ele>8.96</ele>
        <time>2020-07-08T09:29:16Z</time>
      </trkpt>
      <trkpt lat="47.79799" lon="-3.52413">
        <ele>9.33</ele>
        <time>2020-07-08T09:29:17Z</time>
      </trkpt>
      <trkpt lat="47.798" lon="-3.52409">
        <ele>9.72</ele>
        <time>2020-07-08T09:29:18Z</time>
      </trkpt>
      <trkpt lat="47.79801" lon="-3.52405">
        <ele>10.03</ele>
        <time>2020-07-08T09:29:19Z</time>
      </trkpt>
      <trkpt lat="47.79802" lon="-3.524">
        <ele>10.5</ele>
        <time>2020-07-08T09:29:20Z</time>
      </trkpt>
      <trkpt lat="47.79803" lon="-3.52397">
        <ele>10.86</ele>
        <time>2020-07-08T09:29:21Z</time>
      </trkpt>
      <trkpt lat="47.79803" lon="-3.52396">
        <ele>11.01</ele>
        <time>2020-07-08T09:29:22Z</time>
      </trkpt>
      <trkpt lat="47.79803" lon="-3.52395">
        <ele>11.1</ele>
        <time>2020-07-08T09:29:23Z</time>
      </trkpt>
      <trkpt lat="47.79804" lon="-3.52395">
        <ele>11.22</ele>
        <time>2020-07-08T09:29:24Z</time>
      </trkpt>
      <trkpt lat="47.79804" lon="-3.52395">
        <ele>11.25</ele>
        <time>2020-07-08T09:29:25Z</time>
      </trkpt>
      <trkpt lat="47.79804" lon="-3.52395">
        <ele>11.26</ele>
        <time>2020-07-08T09:29:26Z</time>
      </trkpt>
      <trkpt lat="47.79804" lon="-3.52385">
        <ele>11.4</ele>
        <time>2020-07-08T09:29:27Z</time>
      </trkpt>
      <trkpt lat="47.79805" lon="-3.52381">
        <ele>11.37</ele>
        <time>2020-07-08T09:29:28Z</time>
      </trkpt>
      <trkpt lat="47.79806" lon="-3.52376">
        <ele>11.55</ele>
        <time>2020-07-08T09:29:29Z</time>
      </trkpt>
      <trkpt lat="47.79807" lon="-3.52372">
        <ele>11.68</ele>
        <time>2020-07-08T09:29:30Z</time>
      </trkpt>
      <trkpt lat="47.79809" lon="-3.52368">
        <ele>11.85</ele>
        <time>2020-07-08T09:29:31Z</time>
      </trkpt>
      <trkpt lat="47.79811" lon="-3.52363">
        <ele>11.99</ele>
        <time>2020-07-08T09:29:32Z</time>
      </trkpt>
      <trkpt lat="47.79813" lon="-3.52358">
        <ele>12.03</ele>
        <time>2020-07-08T09:29:33Z</time>
      </trkpt>
      <trkpt lat="47.79814" lon="-3.52353">
        <ele>12.07</ele>
        <time>2020-07-08T09:29:34Z</time>
      </trkpt>
      <trkpt lat="47.79816" lon="-3.52348">
        <ele>12.12</ele>
        <time>2020-07-08T09:29:35Z</time>
      </trkpt>
      <trkpt lat="47.79818" lon="-3.52344">
        <ele>12.2</ele>
        <time>2020-07-08T09:29:36Z</time>
      </trkpt>
      <trkpt lat="47.7982" lon="-3.52339">
        <ele>12.33</ele>
        <time>2020-07-08T09:29:37Z</time>
      </trkpt>
      <trkpt lat="47.79824" lon="-3.52331">
        <ele>12.63</ele>
        <time>2020-07-08T09:29:39Z</time>
      </trkpt>
      <trkpt lat="47.79826" lon="-3.52326">
        <ele>12.72</ele>
        <time>2020-07-08T09:29:40Z</time>
      </trkpt>
      <trkpt lat="47.79828" lon="-3.52322">
        <ele>12.79</ele>
        <time>2020-07-08T09:29:41Z</time>
      </trkpt>
      <trkpt lat="47.7983" lon="-3.52317">
        <ele>12.93</ele>
        <time>2020-07-08T09:29:42Z</time>
      </trkpt>
      <trkpt lat="47.79833" lon="-3.52314">
        <ele>13.27</ele>
        <time>2020-07-08T09:29:43Z</time>
      </trkpt>
      <trkpt lat="47.79836" lon="-3.52313">
        <ele>13.57</ele>
        <time>2020-07-08T09:29:44Z</time>
      </trkpt>
      <trkpt lat="47.79838" lon="-3.52311">
        <ele>13.71</ele>
        <time>2020-07-08T09:29:45Z</time>
      </trkpt>
      <trkpt lat="47.7984" lon="-3.52307">
        <ele>13.65</ele>
        <time>2020-07-08T09:29:46Z</time>
      </trkpt>
      <trkpt lat="47.79841" lon="-3.52302">
        <ele>13.05</ele>
        <time>2020-07-08T09:29:47Z</time>
      </trkpt>
      <trkpt lat="47.7984" lon="-3.52298">
        <ele>12.29</ele>
        <time>2020-07-08T09:29:48Z</time>
      </trkpt>
      <trkpt lat="47.79837" lon="-3.52296">
        <ele>11.61</ele>
        <time>2020-07-08T09:29:49Z</time>
      </trkpt>
      <trkpt lat="47.79833" lon="-3.52297">
        <ele>11.23</ele>
        <time>2020-07-08T09:29:50Z</time>
      </trkpt>
      <trkpt lat="47.79829" lon="-3.52298">
        <ele>10.59</ele>
        <time>2020-07-08T09:29:51Z</time>
      </trkpt>
      <trkpt lat="47.79825" lon="-3.523">
        <ele>9.89</ele>
        <time>2020-07-08T09:29:52Z</time>
      </trkpt>
      <trkpt lat="47.79821" lon="-3.52302">
        <ele>9.11</ele>
        <time>2020-07-08T09:29:53Z</time>
      </trkpt>
      <trkpt lat="47.79817" lon="-3.52304">
        <ele>8.33</ele>
        <time>2020-07-08T09:29:54Z</time>
      </trkpt>
      <trkpt lat="47.79813" lon="-3.52305">
        <ele>7.54</ele>
        <time>2020-07-08T09:29:55Z</time>
      </trkpt>
      <trkpt lat="47.7981" lon="-3.52307">
        <ele>6.73</ele>
        <time>2020-07-08T09:29:56Z</time>
      </trkpt>
      <trkpt lat="47.79806" lon="-3.52308">
        <ele>5.92</ele>
        <time>2020-07-08T09:29:57Z</time>
      </trkpt>
      <trkpt lat="47.79802" lon="-3.5231">
        <ele>5.31</ele>
        <time>2020-07-08T09:29:58Z</time>
      </trkpt>
      <trkpt lat="47.79798" lon="-3.52311">
        <ele>4.74</ele>
        <time>2020-07-08T09:29:59Z</time>
      </trkpt>
      <trkpt lat="47.79793" lon="-3.52313">
        <ele>4.2</ele>
        <time>2020-07-08T09:30:00Z</time>
      </trkpt>
      <trkpt lat="47.79789" lon="-3.52315">
        <ele>3.69</ele>
        <time>2020-07-08T09:30:01Z</time>
      </trkpt>
      <trkpt lat="47.79784" lon="-3.52317">
        <ele>3.25</ele>
        <time>2020-07-08T09:30:02Z</time>
      </trkpt>
      <trkpt lat="47.7978" lon="-3.52318">
        <ele>2.8</ele>
        <time>2020-07-08T09:30:03Z</time>
      </trkpt>
      <trkpt lat="47.79775" lon="-3.5232">
        <ele>2.74</ele>
        <time>2020-07-08T09:30:04Z</time>
      </trkpt>
      <trkpt lat="47.7977" lon="-3.52322">
        <ele>3.03</ele>
        <time>2020-07-08T09:30:05Z</time>
      </trkpt>
      <trkpt lat="47.79766" lon="-3.52324">
        <ele>3.39</ele>
        <time>2020-07-08T09:30:06Z</time>
      </trkpt>
      <trkpt lat="47.79761" lon="-3.52325">
        <ele>3.78</ele>
        <time>2020-07-08T09:30:07Z</time>
      </trkpt>
      <trkpt lat="47.79757" lon="-3.52327">
        <ele>4.18</ele>
        <time>2020-07-08T09:30:08Z</time>
      </trkpt>
      <trkpt lat="47.79752" lon="-3.52328">
        <ele>4.63</ele>
        <time>2020-07-08T09:30:09Z</time>
      </trkpt>
      <trkpt lat="47.79747" lon="-3.5233">
        <ele>4.96</ele>
        <time>2020-07-08T09:30:10Z</time>
      </trkpt>
      <trkpt lat="47.79743" lon="-3.52331">
        <ele>5.04</ele>
        <time>2020-07-08T09:30:11Z</time>
      </trkpt>
      <trkpt lat="47.79738" lon="-3.52333">
        <ele>5.03</ele>
        <time>2020-07-08T09:30:12Z</time>
      </trkpt>
      <trkpt lat="47.79734" lon="-3.52334">
        <ele>4.86</ele>
        <time>2020-07-08T09:30:13Z</time>
      </trkpt>
      <trkpt lat="47.79729" lon="-3.52336">
        <ele>4.59</ele>
        <time>2020-07-08T09:30:14Z</time>
      </trkpt>
      <trkpt lat="47.79725" lon="-3.52337">
        <ele>4.36</ele>
        <time>2020-07-08T09:30:15Z</time>
      </trkpt>
      <trkpt lat="47.79721" lon="-3.52339">
        <ele>4.21</ele>
        <time>2020-07-08T09:30:16Z</time>
      </trkpt>
      <trkpt lat="47.79716" lon="-3.5234">
        <ele>4.12</ele>
        <time>2020-07-08T09:30:17Z</time>
      </trkpt>
      <trkpt lat="47.79711" lon="-3.52342">
        <ele>4.06</ele>
        <time>2020-07-08T09:30:18Z</time>
      </trkpt>
      <trkpt lat="47.79706" lon="-3.52344">
        <ele>4.02</ele>
        <time>2020-07-08T09:30:19Z</time>
      </trkpt>
      <trkpt lat="47.79702" lon="-3.52345">
        <ele>4.01</ele>
        <time>2020-07-08T09:30:20Z</time>
      </trkpt>
      <trkpt lat="47.79697" lon="-3.52347">
        <ele>4.02</ele>
        <time>2020-07-08T09:30:21Z</time>
      </trkpt>
      <trkpt lat="47.79692" lon="-3.52349">
        <ele>3.92</ele>
        <time>2020-07-08T09:30:22Z</time>
      </trkpt>
      <trkpt lat="47.79686" lon="-3.5235">
        <ele>3.66</ele>
        <time>2020-07-08T09:30:23Z</time>
      </trkpt>
      <trkpt lat="47.79682" lon="-3.52352">
        <ele>3.4</ele>
        <time>2020-07-08T09:30:24Z</time>
      </trkpt>
      <trkpt lat="47.79677" lon="-3.52354">
        <ele>3.15</ele>
        <time>2020-07-08T09:30:25Z</time>
      </trkpt>
      <trkpt lat="47.79672" lon="-3.52356">
        <ele>2.94</ele>
        <time>2020-07-08T09:30:26Z</time>
      </trkpt>
      <trkpt lat="47.79667" lon="-3.52358">
        <ele>2.73</ele>
        <time>2020-07-08T09:30:27Z</time>
      </trkpt>
      <trkpt lat="47.79662" lon="-3.5236">
        <ele>3.31</ele>
        <time>2020-07-08T09:30:28Z</time>
      </trkpt>
      <trkpt lat="47.79657" lon="-3.52361">
        <ele>4.08</ele>
        <time>2020-07-08T09:30:29Z</time>
      </trkpt>
      <trkpt lat="47.79652" lon="-3.52363">
        <ele>4.94</ele>
        <time>2020-07-08T09:30:30Z</time>
      </trkpt>
      <trkpt lat="47.79647" lon="-3.52365">
        <ele>5.89</ele>
        <time>2020-07-08T09:30:31Z</time>
      </trkpt>
      <trkpt lat="47.79641" lon="-3.52367">
        <ele>6.92</ele>
        <time>2020-07-08T09:30:32Z</time>
      </trkpt>
      <trkpt lat="47.79636" lon="-3.52368">
        <ele>8.22</ele>
        <time>2020-07-08T09:30:33Z</time>
      </trkpt>
      <trkpt lat="47.79631" lon="-3.5237">
        <ele>9.66</ele>
        <time>2020-07-08T09:30:34Z</time>
      </trkpt>
      <trkpt lat="47.79627" lon="-3.52371">
        <ele>11.04</ele>
        <time>2020-07-08T09:30:35Z</time>
      </trkpt>
      <trkpt lat="47.79623" lon="-3.52373">
        <ele>12.26</ele>
        <time>2020-07-08T09:30:36Z</time>
      </trkpt>
      <trkpt lat="47.79618" lon="-3.52376">
        <ele>13.4</ele>
        <time>2020-07-08T09:30:37Z</time>
      </trkpt>
      <trkpt lat="47.79613" lon="-3.52377">
        <ele>14.49</ele>
        <time>2020-07-08T09:30:38Z</time>
      </trkpt>
      <trkpt lat="47.79608" lon="-3.52379">
        <ele>15.41</ele>
        <time>2020-07-08T09:30:39Z</time>
      </trkpt>
      <trkpt lat="47.79603" lon="-3.52381">
        <ele>16.14</ele>
        <time>2020-07-08T09:30:40Z</time>
      </trkpt>
      <trkpt lat="47.79598" lon="-3.52383">
        <ele>16.75</ele>
        <time>2020-07-08T09:30:41Z</time>
      </trkpt>
      <trkpt lat="47.79594" lon="-3.52384">
        <ele>17.25</ele>
        <time>2020-07-08T09:30:42Z</time>
      </trkpt>
      <trkpt lat="47.7959" lon="-3.52385">
        <ele>17.63</ele>
        <time>2020-07-08T09:30:43Z</time>
      </trkpt>
      <trkpt lat="47.79586" lon="-3.52386">
        <ele>17.98</ele>
        <time>2020-07-08T09:30:44Z</time>
      </trkpt>
      <trkpt lat="47.79583" lon="-3.52387">
        <ele>18.28</ele>
        <time>2020-07-08T09:30:45Z</time>
      </trkpt>
      <trkpt lat="47.79579" lon="-3.52389">
        <ele>18.53</ele>
        <time>2020-07-08T09:30:46Z</time>
      </trkpt>
      <trkpt lat="47.79575" lon="-3.52391">
        <ele>18.84</ele>
        <time>2020-07-08T09:30:47Z</time>
      </trkpt>
      <trkpt lat="47.79571" lon="-3.52392">
        <ele>19.19</ele>
        <time>2020-07-08T09:30:48Z</time>
      </trkpt>
      <trkpt lat="47.79568" lon="-3.52393">
        <ele>19.54</ele>
        <time>2020-07-08T09:30:49Z</time>
      </trkpt>
      <trkpt lat="47.79564" lon="-3.52395">
        <ele>19.83</ele>
        <time>2020-07-08T09:30:50Z</time>
      </trkpt>
      <trkpt lat="47.7956" lon="-3.52396">
        <ele>20.1</ele>
        <time>2020-07-08T09:30:51Z</time>
      </trkpt>
      <trkpt lat="47.79556" lon="-3.52397">
        <ele>20.34</ele>
        <time>2020-07-08T09:30:52Z</time>
      </trkpt>
      <trkpt lat="47.79552" lon="-3.52398">
        <ele>20.52</ele>
        <time>2020-07-08T09:30:53Z</time>
      </trkpt>
      <trkpt lat="47.79548" lon="-3.52399">
        <ele>20.7</ele>
        <time>2020-07-08T09:30:54Z</time>
      </trkpt>
      <trkpt lat="47.79544" lon="-3.52401">
        <ele>20.82</ele>
        <time>2020-07-08T09:30:55Z</time>
      </trkpt>
      <trkpt lat="47.7954" lon="-3.52402">
        <ele>20.94</ele>
        <time>2020-07-08T09:30:56Z</time>
      </trkpt>
      <trkpt lat="47.79536" lon="-3.52403">
        <ele>21.11</ele>
        <time>2020-07-08T09:30:57Z</time>
      </trkpt>
      <trkpt lat="47.79533" lon="-3.52404">
        <ele>21.29</ele>
        <time>2020-07-08T09:30:58Z</time>
      </trkpt>
      <trkpt lat="47.79529" lon="-3.52405">
        <ele>21.46</ele>
        <time>2020-07-08T09:30:59Z</time>
      </trkpt>
      <trkpt lat="47.79526" lon="-3.52406">
        <ele>21.74</ele>
        <time>2020-07-08T09:31:00Z</time>
      </trkpt>
      <trkpt lat="47.79522" lon="-3.52406">
        <ele>22.1</ele>
        <time>2020-07-08T09:31:01Z</time>
      </trkpt>
      <trkpt lat="47.79519" lon="-3.52407">
        <ele>22.49</ele>
        <time>2020-07-08T09:31:02Z</time>
      </trkpt>
      <trkpt lat="47.79515" lon="-3.52408">
        <ele>22.91</ele>
        <time>2020-07-08T09:31:03Z</time>
      </trkpt>
      <trkpt lat="47.79511" lon="-3.52409">
        <ele>23.34</ele>
        <time>2020-07-08T09:31:04Z</time>
      </trkpt>
      <trkpt lat="47.79508" lon="-3.5241">
        <ele>23.73</ele>
        <time>2020-07-08T09:31:05Z</time>
      </trkpt>
      <trkpt lat="47.79504" lon="-3.52411">
        <ele>24.09</ele>
        <time>2020-07-08T09:31:06Z</time>
      </trkpt>
      <trkpt lat="47.795" lon="-3.52413">
        <ele>24.45</ele>
        <time>2020-07-08T09:31:07Z</time>
      </trkpt>
      <trkpt lat="47.79496" lon="-3.52414">
        <ele>24.62</ele>
        <time>2020-07-08T09:31:08Z</time>
      </trkpt>
      <trkpt lat="47.79492" lon="-3.52416">
        <ele>24.72</ele>
        <time>2020-07-08T09:31:09Z</time>
      </trkpt>
      <trkpt lat="47.79488" lon="-3.52416">
        <ele>24.82</ele>
        <time>2020-07-08T09:31:10Z</time>
      </trkpt>
      <trkpt lat="47.79485" lon="-3.52417">
        <ele>24.96</ele>
        <time>2020-07-08T09:31:11Z</time>
      </trkpt>
      <trkpt lat="47.79481" lon="-3.52419">
        <ele>25.09</ele>
        <time>2020-07-08T09:31:12Z</time>
      </trkpt>
      <trkpt lat="47.79478" lon="-3.5242">
        <ele>25.21</ele>
        <time>2020-07-08T09:31:13Z</time>
      </trkpt>
      <trkpt lat="47.79474" lon="-3.52421">
        <ele>25.34</ele>
        <time>2020-07-08T09:31:14Z</time>
      </trkpt>
      <trkpt lat="47.7947" lon="-3.52422">
        <ele>25.47</ele>
        <time>2020-07-08T09:31:15Z</time>
      </trkpt>
      <trkpt lat="47.79467" lon="-3.52423">
        <ele>25.63</ele>
        <time>2020-07-08T09:31:16Z</time>
      </trkpt>
      <trkpt lat="47.79464" lon="-3.52425">
        <ele>25.77</ele>
        <time>2020-07-08T09:31:17Z</time>
      </trkpt>
      <trkpt lat="47.7946" lon="-3.52426">
        <ele>25.96</ele>
        <time>2020-07-08T09:31:18Z</time>
      </trkpt>
      <trkpt lat="47.79457" lon="-3.52426">
        <ele>26.16</ele>
        <time>2020-07-08T09:31:19Z</time>
      </trkpt>
      <trkpt lat="47.79454" lon="-3.52427">
        <ele>26.36</ele>
        <time>2020-07-08T09:31:20Z</time>
      </trkpt>
      <trkpt lat="47.7945" lon="-3.52428">
        <ele>26.59</ele>
        <time>2020-07-08T09:31:21Z</time>
      </trkpt>
      <trkpt lat="47.79447" lon="-3.52428">
        <ele>26.82</ele>
        <time>2020-07-08T09:31:22Z</time>
      </trkpt>
      <trkpt lat="47.79444" lon="-3.52429">
        <ele>27.02</ele>
        <time>2020-07-08T09:31:23Z</time>
      </trkpt>
      <trkpt lat="47.79441" lon="-3.5243">
        <ele>27.24</ele>
        <time>2020-07-08T09:31:24Z</time>
      </trkpt>
      <trkpt lat="47.79438" lon="-3.52431">
        <ele>27.47</ele>
        <time>2020-07-08T09:31:25Z</time>
      </trkpt>
      <trkpt lat="47.79435" lon="-3.52431">
        <ele>27.71</ele>
        <time>2020-07-08T09:31:26Z</time>
      </trkpt>
      <trkpt lat="47.79432" lon="-3.52432">
        <ele>27.93</ele>
        <time>2020-07-08T09:31:27Z</time>
      </trkpt>
      <trkpt lat="47.7943" lon="-3.52432">
        <ele>28.12</ele>
        <time>2020-07-08T09:31:28Z</time>
      </trkpt>
      <trkpt lat="47.79428" lon="-3.52433">
        <ele>28.2</ele>
        <time>2020-07-08T09:31:29Z</time>
      </trkpt>
      <trkpt lat="47.79427" lon="-3.52433">
        <ele>28.25</ele>
        <time>2020-07-08T09:31:30Z</time>
      </trkpt>
      <trkpt lat="47.79427" lon="-3.52434">
        <ele>28.22</ele>
        <time>2020-07-08T09:31:31Z</time>
      </trkpt>
      <trkpt lat="47.79427" lon="-3.52435">
        <ele>28.18</ele>
        <time>2020-07-08T09:31:32Z</time>
      </trkpt>
      <trkpt lat="47.79427" lon="-3.52435">
        <ele>28.17</ele>
        <time>2020-07-08T09:31:33Z</time>
      </trkpt>
      <trkpt lat="47.79427" lon="-3.52435">
        <ele>28.17</ele>
        <time>2020-07-08T09:31:34Z</time>
      </trkpt>
      <trkpt lat="47.79427" lon="-3.52435">
        <ele>28.17</ele>
        <time>2020-07-08T09:31:35Z</time>
      </trkpt>
      <trkpt lat="47.79427" lon="-3.52435">
        <ele>28.17</ele>
        <time>2020-07-08T09:31:36Z</time>
      </trkpt>
      <trkpt lat="47.79427" lon="-3.52435">
        <ele>28.17</ele>
        <time>2020-07-08T09:31:37Z</time>
      </trkpt>
      <trkpt lat="47.79427" lon="-3.52435">
        <ele>28.17</ele>
        <time>2020-07-08T09:31:38Z</time>
      </trkpt>
      <trkpt lat="47.79427" lon="-3.52435">
        <ele>28.17</ele>
        <time>2020-07-08T09:31:39Z</time>
      </trkpt>
      <trkpt lat="47.79427" lon="-3.52435">
        <ele>28.17</ele>
        <time>2020-07-08T09:31:40Z</time>
      </trkpt>
      <trkpt lat="47.79427" lon="-3.52435">
        <ele>28.17</ele>
        <time>2020-07-08T09:31:41Z</time>
      </trkpt>
      <trkpt lat="47.79427" lon="-3.52435">
        <ele>28.17</ele>
        <time>2020-07-08T09:31:42Z</time>
      </trkpt>
      <trkpt lat="47.79427" lon="-3.52435">
        <ele>28.17</ele>
        <time>2020-07-08T09:31:43Z</time>
      </trkpt>
      <trkpt lat="47.79427" lon="-3.52435">
        <ele>28.17</ele>
        <time>2020-07-08T09:31:44Z</time>
      </trkpt>
      <trkpt lat="47.79427" lon="-3.52435">
        <ele>28.17</ele>
        <time>2020-07-08T09:31:45Z</time>
      </trkpt>
      <trkpt lat="47.79427" lon="-3.52435">
        <ele>28.17</ele>
        <time>2020-07-08T09:31:46Z</time>
      </trkpt>
      <trkpt lat="47.79427" lon="-3.52435">
        <ele>28.17</ele>
        <time>2020-07-08T09:31:47Z</time>
      </trkpt>
      <trkpt lat="47.79427" lon="-3.52435">
        <ele>28.17</ele>
        <time>2020-07-08T09:31:48Z</time>
      </trkpt>
      <trkpt lat="47.79427" lon="-3.52435">
        <ele>28.17</ele>
        <time>2020-07-08T09:31:49Z</time>
      </trkpt>
      <trkpt lat="47.79427" lon="-3.52435">
        <ele>28.17</ele>
        <time>2020-07-08T09:31:50Z</time>
      </trkpt>
      <trkpt lat="47.79421" lon="-3.52434">
        <ele>28.61</ele>
        <time>2020-07-08T09:31:51Z</time>
      </trkpt>
      <trkpt lat="47.79418" lon="-3.52434">
        <ele>28.9</ele>
        <time>2020-07-08T09:31:52Z</time>
      </trkpt>
      <trkpt lat="47.79416" lon="-3.52434">
        <ele>29.09</ele>
        <time>2020-07-08T09:31:53Z</time>
      </trkpt>
      <trkpt lat="47.79414" lon="-3.52433">
        <ele>29.23</ele>
        <time>2020-07-08T09:31:54Z</time>
      </trkpt>
      <trkpt lat="47.79411" lon="-3.52433">
        <ele>29.39</ele>
        <time>2020-07-08T09:31:55Z</time>
      </trkpt>
      <trkpt lat="47.79409" lon="-3.52432">
        <ele>29.56</ele>
        <time>2020-07-08T09:31:56Z</time>
      </trkpt>
      <trkpt lat="47.79405" lon="-3.52432">
        <ele>29.72</ele>
        <time>2020-07-08T09:31:57Z</time>
      </trkpt>
      <trkpt lat="47.79402" lon="-3.52431">
        <ele>29.89</ele>
        <time>2020-07-08T09:31:58Z</time>
      </trkpt>
      <trkpt lat="47.794" lon="-3.52429">
        <ele>30.16</ele>
        <time>2020-07-08T09:31:59Z</time>
      </trkpt>
      <trkpt lat="47.79395" lon="-3.52425">
        <ele>30.64</ele>
        <time>2020-07-08T09:32:00Z</time>
      </trkpt>
      <trkpt lat="47.79393" lon="-3.52421">
        <ele>31.18</ele>
        <time>2020-07-08T09:32:01Z</time>
      </trkpt>
      <trkpt lat="47.79394" lon="-3.52417">
        <ele>31.63</ele>
        <time>2020-07-08T09:32:02Z</time>
      </trkpt>
      <trkpt lat="47.79394" lon="-3.52413">
        <ele>32.26</ele>
        <time>2020-07-08T09:32:03Z</time>
      </trkpt>
      <trkpt lat="47.79395" lon="-3.52409">
        <ele>32.85</ele>
        <time>2020-07-08T09:32:04Z</time>
      </trkpt>
      <trkpt lat="47.79396" lon="-3.52407">
        <ele>33.32</ele>
        <time>2020-07-08T09:32:05Z</time>
      </trkpt>
      <trkpt lat="47.79397" lon="-3.52405">
        <ele>33.67</ele>
        <time>2020-07-08T09:32:06Z</time>
      </trkpt>
      <trkpt lat="47.79398" lon="-3.52403">
        <ele>33.96</ele>
        <time>2020-07-08T09:32:07Z</time>
      </trkpt>
      <trkpt lat="47.79399" lon="-3.52402">
        <ele>34.18</ele>
        <time>2020-07-08T09:32:08Z</time>
      </trkpt>
      <trkpt lat="47.794" lon="-3.52402">
        <ele>34.25</ele>
        <time>2020-07-08T09:32:09Z</time>
      </trkpt>
      <trkpt lat="47.79401" lon="-3.52401">
        <ele>34.32</ele>
        <time>2020-07-08T09:32:10Z</time>
      </trkpt>
      <trkpt lat="47.79403" lon="-3.52401">
        <ele>34.28</ele>
        <time>2020-07-08T09:32:11Z</time>
      </trkpt>
      <trkpt lat="47.79405" lon="-3.52401">
        <ele>34.23</ele>
        <time>2020-07-08T09:32:12Z</time>
      </trkpt>
      <trkpt lat="47.79407" lon="-3.52401">
        <ele>34.2</ele>
        <time>2020-07-08T09:32:13Z</time>
      </trkpt>
      <trkpt lat="47.7941" lon="-3.524">
        <ele>34.21</ele>
        <time>2020-07-08T09:32:14Z</time>
      </trkpt>
      <trkpt lat="47.79412" lon="-3.524">
        <ele>34.17</ele>
        <time>2020-07-08T09:32:15Z</time>
      </trkpt>
      <trkpt lat="47.79414" lon="-3.52399">
        <ele>34.22</ele>
        <time>2020-07-08T09:32:16Z</time>
      </trkpt>
      <trkpt lat="47.79416" lon="-3.52398">
        <ele>34.37</ele>
        <time>2020-07-08T09:32:17Z</time>
      </trkpt>
      <trkpt lat="47.79418" lon="-3.52396">
        <ele>34.57</ele>
        <time>2020-07-08T09:32:18Z</time>
      </trkpt>
      <trkpt lat="47.7942" lon="-3.52395">
        <ele>34.64</ele>
        <time>2020-07-08T09:32:19Z</time>
      </trkpt>
      <trkpt lat="47.79421" lon="-3.52393">
        <ele>34.87</ele>
        <time>2020-07-08T09:32:20Z</time>
      </trkpt>
      <trkpt lat="47.79423" lon="-3.5239">
        <ele>35.18</ele>
        <time>2020-07-08T09:32:21Z</time>
      </trkpt>
      <trkpt lat="47.79425" lon="-3.52388">
        <ele>35.41</ele>
        <time>2020-07-08T09:32:22Z</time>
      </trkpt>
      <trkpt lat="47.79429" lon="-3.52387">
        <ele>35.39</ele>
        <time>2020-07-08T09:32:23Z</time>
      </trkpt>
      <trkpt lat="47.79431" lon="-3.52386">
        <ele>35.29</ele>
        <time>2020-07-08T09:32:24Z</time>
      </trkpt>
      <trkpt lat="47.79435" lon="-3.52386">
        <ele>35.1</ele>
        <time>2020-07-08T09:32:25Z</time>
      </trkpt>
      <trkpt lat="47.79439" lon="-3.52386">
        <ele>34.86</ele>
        <time>2020-07-08T09:32:26Z</time>
      </trkpt>
      <trkpt lat="47.79442" lon="-3.52384">
        <ele>34.74</ele>
        <time>2020-07-08T09:32:27Z</time>
      </trkpt>
      <trkpt lat="47.79445" lon="-3.52383">
        <ele>34.67</ele>
        <time>2020-07-08T09:32:28Z</time>
      </trkpt>
      <trkpt lat="47.79447" lon="-3.52382">
        <ele>34.62</ele>
        <time>2020-07-08T09:32:29Z</time>
      </trkpt>
      <trkpt lat="47.79449" lon="-3.5238">
        <ele>34.6</ele>
        <time>2020-07-08T09:32:30Z</time>
      </trkpt>
      <trkpt lat="47.79452" lon="-3.52379">
        <ele>34.53</ele>
        <time>2020-07-08T09:32:31Z</time>
      </trkpt>
      <trkpt lat="47.79454" lon="-3.52379">
        <ele>34.4</ele>
        <time>2020-07-08T09:32:32Z</time>
      </trkpt>
      <trkpt lat="47.79457" lon="-3.52378">
        <ele>34.28</ele>
        <time>2020-07-08T09:32:33Z</time>
      </trkpt>
      <trkpt lat="47.7946" lon="-3.52378">
        <ele>34.16</ele>
        <time>2020-07-08T09:32:34Z</time>
      </trkpt>
      <trkpt lat="47.79462" lon="-3.52377">
        <ele>34.04</ele>
        <time>2020-07-08T09:32:35Z</time>
      </trkpt>
      <trkpt lat="47.79464" lon="-3.52378">
        <ele>33.86</ele>
        <time>2020-07-08T09:32:36Z</time>
      </trkpt>
      <trkpt lat="47.79466" lon="-3.52377">
        <ele>33.76</ele>
        <time>2020-07-08T09:32:37Z</time>
      </trkpt>
      <trkpt lat="47.79467" lon="-3.52376">
        <ele>33.79</ele>
        <time>2020-07-08T09:32:38Z</time>
      </trkpt>
      <trkpt lat="47.79469" lon="-3.52374">
        <ele>33.84</ele>
        <time>2020-07-08T09:32:39Z</time>
      </trkpt>
      <trkpt lat="47.7947" lon="-3.52373">
        <ele>33.82</ele>
        <time>2020-07-08T09:32:40Z</time>
      </trkpt>
      <trkpt lat="47.79473" lon="-3.52373">
        <ele>33.64</ele>
        <time>2020-07-08T09:32:41Z</time>
      </trkpt>
      <trkpt lat="47.79476" lon="-3.52374">
        <ele>33.32</ele>
        <time>2020-07-08T09:32:42Z</time>
      </trkpt>
      <trkpt lat="47.79478" lon="-3.52374">
        <ele>33.04</ele>
        <time>2020-07-08T09:32:43Z</time>
      </trkpt>
      <trkpt lat="47.79479" lon="-3.52373">
        <ele>32.96</ele>
        <time>2020-07-08T09:32:44Z</time>
      </trkpt>
      <trkpt lat="47.7948" lon="-3.52371">
        <ele>33</ele>
        <time>2020-07-08T09:32:45Z</time>
      </trkpt>
      <trkpt lat="47.7948" lon="-3.5237">
        <ele>33.08</ele>
        <time>2020-07-08T09:32:46Z</time>
      </trkpt>
      <trkpt lat="47.79482" lon="-3.52366">
        <ele>33.23</ele>
        <time>2020-07-08T09:32:47Z</time>
      </trkpt>
      <trkpt lat="47.79485" lon="-3.52362">
        <ele>33.41</ele>
        <time>2020-07-08T09:32:48Z</time>
      </trkpt>
      <trkpt lat="47.79488" lon="-3.52359">
        <ele>33.4</ele>
        <time>2020-07-08T09:32:49Z</time>
      </trkpt>
      <trkpt lat="47.79491" lon="-3.52357">
        <ele>33.27</ele>
        <time>2020-07-08T09:32:50Z</time>
      </trkpt>
      <trkpt lat="47.79495" lon="-3.52355">
        <ele>33.08</ele>
        <time>2020-07-08T09:32:51Z</time>
      </trkpt>
      <trkpt lat="47.79498" lon="-3.52353">
        <ele>32.86</ele>
        <time>2020-07-08T09:32:52Z</time>
      </trkpt>
      <trkpt lat="47.79501" lon="-3.52353">
        <ele>32.64</ele>
        <time>2020-07-08T09:32:53Z</time>
      </trkpt>
      <trkpt lat="47.79504" lon="-3.52351">
        <ele>32.47</ele>
        <time>2020-07-08T09:32:54Z</time>
      </trkpt>
      <trkpt lat="47.79506" lon="-3.5235">
        <ele>32.35</ele>
        <time>2020-07-08T09:32:55Z</time>
      </trkpt>
      <trkpt lat="47.79508" lon="-3.52348">
        <ele>32.26</ele>
        <time>2020-07-08T09:32:56Z</time>
      </trkpt>
      <trkpt lat="47.7951" lon="-3.52346">
        <ele>32.21</ele>
        <time>2020-07-08T09:32:57Z</time>
      </trkpt>
      <trkpt lat="47.79511" lon="-3.52343">
        <ele>32.24</ele>
        <time>2020-07-08T09:32:58Z</time>
      </trkpt>
      <trkpt lat="47.79511" lon="-3.5234">
        <ele>32.34</ele>
        <time>2020-07-08T09:32:59Z</time>
      </trkpt>
      <trkpt lat="47.79511" lon="-3.52337">
        <ele>32.49</ele>
        <time>2020-07-08T09:33:00Z</time>
      </trkpt>
      <trkpt lat="47.79511" lon="-3.52335">
        <ele>32.62</ele>
        <time>2020-07-08T09:33:01Z</time>
      </trkpt>
      <trkpt lat="47.79511" lon="-3.52333">
        <ele>32.73</ele>
        <time>2020-07-08T09:33:02Z</time>
      </trkpt>
      <trkpt lat="47.79512" lon="-3.52329">
        <ele>32.87</ele>
        <time>2020-07-08T09:33:03Z</time>
      </trkpt>
      <trkpt lat="47.79512" lon="-3.52325">
        <ele>33.03</ele>
        <time>2020-07-08T09:33:04Z</time>
      </trkpt>
      <trkpt lat="47.79513" lon="-3.52321">
        <ele>33.16</ele>
        <time>2020-07-08T09:33:05Z</time>
      </trkpt>
      <trkpt lat="47.79515" lon="-3.52317">
        <ele>33.22</ele>
        <time>2020-07-08T09:33:06Z</time>
      </trkpt>
      <trkpt lat="47.79517" lon="-3.52314">
        <ele>33.28</ele>
        <time>2020-07-08T09:33:07Z</time>
      </trkpt>
      <trkpt lat="47.79518" lon="-3.52311">
        <ele>33.32</ele>
        <time>2020-07-08T09:33:08Z</time>
      </trkpt>
      <trkpt lat="47.79521" lon="-3.52307">
        <ele>33.38</ele>
        <time>2020-07-08T09:33:09Z</time>
      </trkpt>
      <trkpt lat="47.79523" lon="-3.52304">
        <ele>33.39</ele>
        <time>2020-07-08T09:33:10Z</time>
      </trkpt>
      <trkpt lat="47.79526" lon="-3.52302">
        <ele>33.29</ele>
        <time>2020-07-08T09:33:11Z</time>
      </trkpt>
      <trkpt lat="47.7953" lon="-3.52299">
        <ele>33.14</ele>
        <time>2020-07-08T09:33:12Z</time>
      </trkpt>
      <trkpt lat="47.79533" lon="-3.52296">
        <ele>33</ele>
        <time>2020-07-08T09:33:13Z</time>
      </trkpt>
      <trkpt lat="47.79536" lon="-3.52292">
        <ele>32.81</ele>
        <time>2020-07-08T09:33:14Z</time>
      </trkpt>
      <trkpt lat="47.79539" lon="-3.52289">
        <ele>32.6</ele>
        <time>2020-07-08T09:33:15Z</time>
      </trkpt>
      <trkpt lat="47.79546" lon="-3.52286">
        <ele>32.14</ele>
        <time>2020-07-08T09:33:16Z</time>
      </trkpt>
      <trkpt lat="47.79549" lon="-3.52284">
        <ele>31.78</ele>
        <time>2020-07-08T09:33:17Z</time>
      </trkpt>
      <trkpt lat="47.79552" lon="-3.52283">
        <ele>31.46</ele>
        <time>2020-07-08T09:33:18Z</time>
      </trkpt>
      <trkpt lat="47.79555" lon="-3.52281">
        <ele>31.17</ele>
        <time>2020-07-08T09:33:19Z</time>
      </trkpt>
      <trkpt lat="47.79557" lon="-3.52278">
        <ele>30.94</ele>
        <time>2020-07-08T09:33:20Z</time>
      </trkpt>
      <trkpt lat="47.79558" lon="-3.52274">
        <ele>30.74</ele>
        <time>2020-07-08T09:33:21Z</time>
      </trkpt>
      <trkpt lat="47.79559" lon="-3.52269">
        <ele>30.5</ele>
        <time>2020-07-08T09:33:22Z</time>
      </trkpt>
      <trkpt lat="47.79563" lon="-3.52266">
        <ele>30.05</ele>
        <time>2020-07-08T09:33:23Z</time>
      </trkpt>
      <trkpt lat="47.79567" lon="-3.52263">
        <ele>29.46</ele>
        <time>2020-07-08T09:33:24Z</time>
      </trkpt>
      <trkpt lat="47.7957" lon="-3.52262">
        <ele>28.85</ele>
        <time>2020-07-08T09:33:25Z</time>
      </trkpt>
      <trkpt lat="47.79574" lon="-3.5226">
        <ele>28.19</ele>
        <time>2020-07-08T09:33:26Z</time>
      </trkpt>
      <trkpt lat="47.79577" lon="-3.52258">
        <ele>27.65</ele>
        <time>2020-07-08T09:33:27Z</time>
      </trkpt>
      <trkpt lat="47.79578" lon="-3.52254">
        <ele>27.23</ele>
        <time>2020-07-08T09:33:28Z</time>
      </trkpt>
      <trkpt lat="47.7958" lon="-3.52251">
        <ele>26.81</ele>
        <time>2020-07-08T09:33:29Z</time>
      </trkpt>
      <trkpt lat="47.79582" lon="-3.52248">
        <ele>26.43</ele>
        <time>2020-07-08T09:33:30Z</time>
      </trkpt>
      <trkpt lat="47.79583" lon="-3.52245">
        <ele>26.26</ele>
        <time>2020-07-08T09:33:31Z</time>
      </trkpt>
      <trkpt lat="47.79584" lon="-3.5224">
        <ele>26.2</ele>
        <time>2020-07-08T09:33:32Z</time>
      </trkpt>
      <trkpt lat="47.79584" lon="-3.52236">
        <ele>26.25</ele>
        <time>2020-07-08T09:33:33Z</time>
      </trkpt>
      <trkpt lat="47.79585" lon="-3.52233">
        <ele>26.28</ele>
        <time>2020-07-08T09:33:34Z</time>
      </trkpt>
      <trkpt lat="47.79585" lon="-3.52229">
        <ele>26.35</ele>
        <time>2020-07-08T09:33:35Z</time>
      </trkpt>
      <trkpt lat="47.79586" lon="-3.52224">
        <ele>26.42</ele>
        <time>2020-07-08T09:33:36Z</time>
      </trkpt>
      <trkpt lat="47.79587" lon="-3.5222">
        <ele>26.53</ele>
        <time>2020-07-08T09:33:37Z</time>
      </trkpt>
      <trkpt lat="47.79586" lon="-3.52215">
        <ele>26.85</ele>
        <time>2020-07-08T09:33:38Z</time>
      </trkpt>
      <trkpt lat="47.79586" lon="-3.5221">
        <ele>27.28</ele>
        <time>2020-07-08T09:33:39Z</time>
      </trkpt>
      <trkpt lat="47.79585" lon="-3.52205">
        <ele>27.75</ele>
        <time>2020-07-08T09:33:40Z</time>
      </trkpt>
      <trkpt lat="47.79585" lon="-3.52199">
        <ele>28.25</ele>
        <time>2020-07-08T09:33:41Z</time>
      </trkpt>
      <trkpt lat="47.79584" lon="-3.52195">
        <ele>28.7</ele>
        <time>2020-07-08T09:33:42Z</time>
      </trkpt>
      <trkpt lat="47.79584" lon="-3.5219">
        <ele>29.09</ele>
        <time>2020-07-08T09:33:43Z</time>
      </trkpt>
      <trkpt lat="47.79583" lon="-3.52186">
        <ele>29.52</ele>
        <time>2020-07-08T09:33:44Z</time>
      </trkpt>
      <trkpt lat="47.79581" lon="-3.52179">
        <ele>30.06</ele>
        <time>2020-07-08T09:33:45Z</time>
      </trkpt>
      <trkpt lat="47.7958" lon="-3.52175">
        <ele>30.46</ele>
        <time>2020-07-08T09:33:46Z</time>
      </trkpt>
      <trkpt lat="47.7958" lon="-3.5217">
        <ele>30.84</ele>
        <time>2020-07-08T09:33:47Z</time>
      </trkpt>
      <trkpt lat="47.7958" lon="-3.52167">
        <ele>31.14</ele>
        <time>2020-07-08T09:33:48Z</time>
      </trkpt>
      <trkpt lat="47.7958" lon="-3.52162">
        <ele>31.31</ele>
        <time>2020-07-08T09:33:49Z</time>
      </trkpt>
      <trkpt lat="47.79581" lon="-3.52158">
        <ele>31.44</ele>
        <time>2020-07-08T09:33:50Z</time>
      </trkpt>
      <trkpt lat="47.79583" lon="-3.52153">
        <ele>31.51</ele>
        <time>2020-07-08T09:33:51Z</time>
      </trkpt>
      <trkpt lat="47.79585" lon="-3.52149">
        <ele>31.51</ele>
        <time>2020-07-08T09:33:52Z</time>
      </trkpt>
      <trkpt lat="47.79586" lon="-3.52146">
        <ele>31.55</ele>
        <time>2020-07-08T09:33:53Z</time>
      </trkpt>
      <trkpt lat="47.79586" lon="-3.52142">
        <ele>31.63</ele>
        <time>2020-07-08T09:33:54Z</time>
      </trkpt>
      <trkpt lat="47.79587" lon="-3.52139">
        <ele>31.68</ele>
        <time>2020-07-08T09:33:55Z</time>
      </trkpt>
      <trkpt lat="47.79589" lon="-3.52135">
        <ele>31.84</ele>
        <time>2020-07-08T09:33:56Z</time>
      </trkpt>
      <trkpt lat="47.7959" lon="-3.52131">
        <ele>32.05</ele>
        <time>2020-07-08T09:33:57Z</time>
      </trkpt>
      <trkpt lat="47.79592" lon="-3.52127">
        <ele>32.26</ele>
        <time>2020-07-08T09:33:58Z</time>
      </trkpt>
      <trkpt lat="47.79594" lon="-3.52124">
        <ele>32.48</ele>
        <time>2020-07-08T09:33:59Z</time>
      </trkpt>
      <trkpt lat="47.79596" lon="-3.52119">
        <ele>32.73</ele>
        <time>2020-07-08T09:34:00Z</time>
      </trkpt>
      <trkpt lat="47.79597" lon="-3.52115">
        <ele>33.02</ele>
        <time>2020-07-08T09:34:01Z</time>
      </trkpt>
      <trkpt lat="47.79599" lon="-3.52111">
        <ele>33.33</ele>
        <time>2020-07-08T09:34:02Z</time>
      </trkpt>
      <trkpt lat="47.796" lon="-3.52107">
        <ele>33.6</ele>
        <time>2020-07-08T09:34:03Z</time>
      </trkpt>
      <trkpt lat="47.79601" lon="-3.52104">
        <ele>33.8</ele>
        <time>2020-07-08T09:34:04Z</time>
      </trkpt>
      <trkpt lat="47.79602" lon="-3.52101">
        <ele>34</ele>
        <time>2020-07-08T09:34:05Z</time>
      </trkpt>
      <trkpt lat="47.79603" lon="-3.52097">
        <ele>34.24</ele>
        <time>2020-07-08T09:34:06Z</time>
      </trkpt>
      <trkpt lat="47.79604" lon="-3.52094">
        <ele>34.44</ele>
        <time>2020-07-08T09:34:07Z</time>
      </trkpt>
      <trkpt lat="47.79605" lon="-3.52091">
        <ele>34.62</ele>
        <time>2020-07-08T09:34:08Z</time>
      </trkpt>
      <trkpt lat="47.79606" lon="-3.52086">
        <ele>34.9</ele>
        <time>2020-07-08T09:34:09Z</time>
      </trkpt>
      <trkpt lat="47.79607" lon="-3.52082">
        <ele>35.13</ele>
        <time>2020-07-08T09:34:10Z</time>
      </trkpt>
      <trkpt lat="47.79607" lon="-3.52078">
        <ele>35.4</ele>
        <time>2020-07-08T09:34:11Z</time>
      </trkpt>
      <trkpt lat="47.79608" lon="-3.52075">
        <ele>35.65</ele>
        <time>2020-07-08T09:34:12Z</time>
      </trkpt>
      <trkpt lat="47.79608" lon="-3.52069">
        <ele>36</ele>
        <time>2020-07-08T09:34:13Z</time>
      </trkpt>
      <trkpt lat="47.79609" lon="-3.52066">
        <ele>36.24</ele>
        <time>2020-07-08T09:34:14Z</time>
      </trkpt>
      <trkpt lat="47.7961" lon="-3.52063">
        <ele>36.42</ele>
        <time>2020-07-08T09:34:15Z</time>
      </trkpt>
      <trkpt lat="47.7961" lon="-3.52061">
        <ele>36.6</ele>
        <time>2020-07-08T09:34:16Z</time>
      </trkpt>
      <trkpt lat="47.79611" lon="-3.52058">
        <ele>36.78</ele>
        <time>2020-07-08T09:34:17Z</time>
      </trkpt>
      <trkpt lat="47.79612" lon="-3.52054">
        <ele>36.99</ele>
        <time>2020-07-08T09:34:18Z</time>
      </trkpt>
      <trkpt lat="47.79613" lon="-3.52052">
        <ele>37.12</ele>
        <time>2020-07-08T09:34:19Z</time>
      </trkpt>
      <trkpt lat="47.79614" lon="-3.52048">
        <ele>37.29</ele>
        <time>2020-07-08T09:34:20Z</time>
      </trkpt>
      <trkpt lat="47.79615" lon="-3.52045">
        <ele>37.49</ele>
        <time>2020-07-08T09:34:21Z</time>
      </trkpt>
      <trkpt lat="47.79617" lon="-3.52042">
        <ele>37.68</ele>
        <time>2020-07-08T09:34:22Z</time>
      </trkpt>
      <trkpt lat="47.79618" lon="-3.52039">
        <ele>37.87</ele>
        <time>2020-07-08T09:34:23Z</time>
      </trkpt>
      <trkpt lat="47.7962" lon="-3.52036">
        <ele>38.1</ele>
        <time>2020-07-08T09:34:24Z</time>
      </trkpt>
      <trkpt lat="47.79621" lon="-3.52034">
        <ele>38.28</ele>
        <time>2020-07-08T09:34:25Z</time>
      </trkpt>
      <trkpt lat="47.79624" lon="-3.5203">
        <ele>38.64</ele>
        <time>2020-07-08T09:34:26Z</time>
      </trkpt>
      <trkpt lat="47.79626" lon="-3.52025">
        <ele>39.07</ele>
        <time>2020-07-08T09:34:27Z</time>
      </trkpt>
      <trkpt lat="47.79628" lon="-3.52021">
        <ele>39.51</ele>
        <time>2020-07-08T09:34:28Z</time>
      </trkpt>
      <trkpt lat="47.7963" lon="-3.52018">
        <ele>39.88</ele>
        <time>2020-07-08T09:34:29Z</time>
      </trkpt>
      <trkpt lat="47.79633" lon="-3.52015">
        <ele>40.24</ele>
        <time>2020-07-08T09:34:30Z</time>
      </trkpt>
      <trkpt lat="47.79636" lon="-3.52011">
        <ele>40.63</ele>
        <time>2020-07-08T09:34:31Z</time>
      </trkpt>
      <trkpt lat="47.79639" lon="-3.52007">
        <ele>41.08</ele>
        <time>2020-07-08T09:34:32Z</time>
      </trkpt>
      <trkpt lat="47.7964" lon="-3.52004">
        <ele>41.28</ele>
        <time>2020-07-08T09:34:33Z</time>
      </trkpt>
      <trkpt lat="47.79642" lon="-3.52002">
        <ele>41.34</ele>
        <time>2020-07-08T09:34:34Z</time>
      </trkpt>
      <trkpt lat="47.79645" lon="-3.51999">
        <ele>41.26</ele>
        <time>2020-07-08T09:34:35Z</time>
      </trkpt>
      <trkpt lat="47.79647" lon="-3.51998">
        <ele>41.08</ele>
        <time>2020-07-08T09:34:36Z</time>
      </trkpt>
      <trkpt lat="47.7965" lon="-3.51996">
        <ele>40.91</ele>
        <time>2020-07-08T09:34:37Z</time>
      </trkpt>
      <trkpt lat="47.79652" lon="-3.51993">
        <ele>40.83</ele>
        <time>2020-07-08T09:34:38Z</time>
      </trkpt>
      <trkpt lat="47.79654" lon="-3.5199">
        <ele>40.88</ele>
        <time>2020-07-08T09:34:39Z</time>
      </trkpt>
      <trkpt lat="47.79656" lon="-3.51989">
        <ele>40.92</ele>
        <time>2020-07-08T09:34:40Z</time>
      </trkpt>
      <trkpt lat="47.79657" lon="-3.51987">
        <ele>40.92</ele>
        <time>2020-07-08T09:34:41Z</time>
      </trkpt>
      <trkpt lat="47.79659" lon="-3.51985">
        <ele>40.9</ele>
        <time>2020-07-08T09:34:42Z</time>
      </trkpt>
      <trkpt lat="47.79661" lon="-3.51984">
        <ele>40.92</ele>
        <time>2020-07-08T09:34:43Z</time>
      </trkpt>
      <trkpt lat="47.79663" lon="-3.51983">
        <ele>40.89</ele>
        <time>2020-07-08T09:34:44Z</time>
      </trkpt>
      <trkpt lat="47.79665" lon="-3.5198">
        <ele>40.98</ele>
        <time>2020-07-08T09:34:45Z</time>
      </trkpt>
      <trkpt lat="47.79666" lon="-3.51978">
        <ele>41.18</ele>
        <time>2020-07-08T09:34:46Z</time>
      </trkpt>
      <trkpt lat="47.79668" lon="-3.51974">
        <ele>41.4</ele>
        <time>2020-07-08T09:34:47Z</time>
      </trkpt>
      <trkpt lat="47.7967" lon="-3.51971">
        <ele>41.31</ele>
        <time>2020-07-08T09:34:48Z</time>
      </trkpt>
      <trkpt lat="47.79674" lon="-3.51966">
        <ele>40.99</ele>
        <time>2020-07-08T09:34:49Z</time>
      </trkpt>
      <trkpt lat="47.79676" lon="-3.51963">
        <ele>40.78</ele>
        <time>2020-07-08T09:34:50Z</time>
      </trkpt>
      <trkpt lat="47.79678" lon="-3.5196">
        <ele>40.61</ele>
        <time>2020-07-08T09:34:51Z</time>
      </trkpt>
      <trkpt lat="47.7968" lon="-3.51957">
        <ele>40.48</ele>
        <time>2020-07-08T09:34:52Z</time>
      </trkpt>
      <trkpt lat="47.79682" lon="-3.51955">
        <ele>40.38</ele>
        <time>2020-07-08T09:34:53Z</time>
      </trkpt>
      <trkpt lat="47.79684" lon="-3.51953">
        <ele>40.27</ele>
        <time>2020-07-08T09:34:54Z</time>
      </trkpt>
      <trkpt lat="47.79687" lon="-3.51952">
        <ele>40.06</ele>
        <time>2020-07-08T09:34:55Z</time>
      </trkpt>
      <trkpt lat="47.79689" lon="-3.51949">
        <ele>39.98</ele>
        <time>2020-07-08T09:34:56Z</time>
      </trkpt>
      <trkpt lat="47.79691" lon="-3.51948">
        <ele>39.92</ele>
        <time>2020-07-08T09:34:57Z</time>
      </trkpt>
      <trkpt lat="47.79694" lon="-3.51947">
        <ele>39.82</ele>
        <time>2020-07-08T09:34:58Z</time>
      </trkpt>
      <trkpt lat="47.79696" lon="-3.51945">
        <ele>39.68</ele>
        <time>2020-07-08T09:34:59Z</time>
      </trkpt>
      <trkpt lat="47.79698" lon="-3.51943">
        <ele>39.44</ele>
        <time>2020-07-08T09:35:00Z</time>
      </trkpt>
      <trkpt lat="47.79701" lon="-3.51939">
        <ele>39.19</ele>
        <time>2020-07-08T09:35:01Z</time>
      </trkpt>
      <trkpt lat="47.79704" lon="-3.51936">
        <ele>38.95</ele>
        <time>2020-07-08T09:35:02Z</time>
      </trkpt>
      <trkpt lat="47.79707" lon="-3.51933">
        <ele>38.77</ele>
        <time>2020-07-08T09:35:03Z</time>
      </trkpt>
      <trkpt lat="47.7971" lon="-3.5193">
        <ele>38.55</ele>
        <time>2020-07-08T09:35:04Z</time>
      </trkpt>
      <trkpt lat="47.79713" lon="-3.51927">
        <ele>38.48</ele>
        <time>2020-07-08T09:35:05Z</time>
      </trkpt>
      <trkpt lat="47.79719" lon="-3.51924">
        <ele>38.26</ele>
        <time>2020-07-08T09:35:06Z</time>
      </trkpt>
      <trkpt lat="47.79722" lon="-3.51921">
        <ele>38.32</ele>
        <time>2020-07-08T09:35:07Z</time>
      </trkpt>
      <trkpt lat="47.79725" lon="-3.51917">
        <ele>38.48</ele>
        <time>2020-07-08T09:35:08Z</time>
      </trkpt>
      <trkpt lat="47.79728" lon="-3.51915">
        <ele>38.41</ele>
        <time>2020-07-08T09:35:09Z</time>
      </trkpt>
      <trkpt lat="47.7973" lon="-3.51914">
        <ele>38.27</ele>
        <time>2020-07-08T09:35:10Z</time>
      </trkpt>
      <trkpt lat="47.79734" lon="-3.5191">
        <ele>38.15</ele>
        <time>2020-07-08T09:35:11Z</time>
      </trkpt>
      <trkpt lat="47.79736" lon="-3.51909">
        <ele>38.05</ele>
        <time>2020-07-08T09:35:12Z</time>
      </trkpt>
      <trkpt lat="47.79739" lon="-3.51908">
        <ele>37.79</ele>
        <time>2020-07-08T09:35:13Z</time>
      </trkpt>
      <trkpt lat="47.79744" lon="-3.51907">
        <ele>37.4</ele>
        <time>2020-07-08T09:35:14Z</time>
      </trkpt>
      <trkpt lat="47.79749" lon="-3.51905">
        <ele>37.02</ele>
        <time>2020-07-08T09:35:15Z</time>
      </trkpt>
      <trkpt lat="47.79754" lon="-3.51902">
        <ele>36.97</ele>
        <time>2020-07-08T09:35:16Z</time>
      </trkpt>
      <trkpt lat="47.79759" lon="-3.51899">
        <ele>37.17</ele>
        <time>2020-07-08T09:35:17Z</time>
      </trkpt>
      <trkpt lat="47.79762" lon="-3.51898">
        <ele>37.2</ele>
        <time>2020-07-08T09:35:18Z</time>
      </trkpt>
      <trkpt lat="47.79765" lon="-3.51898">
        <ele>37.19</ele>
        <time>2020-07-08T09:35:19Z</time>
      </trkpt>
      <trkpt lat="47.79771" lon="-3.51897">
        <ele>37.07</ele>
        <time>2020-07-08T09:35:20Z</time>
      </trkpt>
      <trkpt lat="47.79778" lon="-3.51896">
        <ele>37.04</ele>
        <time>2020-07-08T09:35:21Z</time>
      </trkpt>
      <trkpt lat="47.79783" lon="-3.51893">
        <ele>37.28</ele>
        <time>2020-07-08T09:35:22Z</time>
      </trkpt>
      <trkpt lat="47.79787" lon="-3.5189">
        <ele>37.67</ele>
        <time>2020-07-08T09:35:23Z</time>
      </trkpt>
      <trkpt lat="47.7979" lon="-3.51887">
        <ele>38</ele>
        <time>2020-07-08T09:35:24Z</time>
      </trkpt>
      <trkpt lat="47.79794" lon="-3.51884">
        <ele>38.27</ele>
        <time>2020-07-08T09:35:25Z</time>
      </trkpt>
      <trkpt lat="47.79798" lon="-3.51879">
        <ele>38.63</ele>
        <time>2020-07-08T09:35:26Z</time>
      </trkpt>
      <trkpt lat="47.79801" lon="-3.51877">
        <ele>38.85</ele>
        <time>2020-07-08T09:35:27Z</time>
      </trkpt>
      <trkpt lat="47.79805" lon="-3.51872">
        <ele>39.11</ele>
        <time>2020-07-08T09:35:28Z</time>
      </trkpt>
      <trkpt lat="47.79809" lon="-3.51868">
        <ele>39.22</ele>
        <time>2020-07-08T09:35:29Z</time>
      </trkpt>
      <trkpt lat="47.79814" lon="-3.51865">
        <ele>39.17</ele>
        <time>2020-07-08T09:35:30Z</time>
      </trkpt>
      <trkpt lat="47.79819" lon="-3.51862">
        <ele>39.01</ele>
        <time>2020-07-08T09:35:31Z</time>
      </trkpt>
      <trkpt lat="47.79825" lon="-3.51861">
        <ele>38.75</ele>
        <time>2020-07-08T09:35:32Z</time>
      </trkpt>
      <trkpt lat="47.79829" lon="-3.51858">
        <ele>38.51</ele>
        <time>2020-07-08T09:35:33Z</time>
      </trkpt>
      <trkpt lat="47.79834" lon="-3.51854">
        <ele>38.31</ele>
        <time>2020-07-08T09:35:34Z</time>
      </trkpt>
      <trkpt lat="47.79837" lon="-3.51851">
        <ele>38.22</ele>
        <time>2020-07-08T09:35:35Z</time>
      </trkpt>
      <trkpt lat="47.79839" lon="-3.51849">
        <ele>38.15</ele>
        <time>2020-07-08T09:35:36Z</time>
      </trkpt>
      <trkpt lat="47.79842" lon="-3.51846">
        <ele>38.13</ele>
        <time>2020-07-08T09:35:37Z</time>
      </trkpt>
      <trkpt lat="47.79844" lon="-3.51842">
        <ele>38.13</ele>
        <time>2020-07-08T09:35:38Z</time>
      </trkpt>
      <trkpt lat="47.79847" lon="-3.5184">
        <ele>38.12</ele>
        <time>2020-07-08T09:35:39Z</time>
      </trkpt>
      <trkpt lat="47.7985" lon="-3.51838">
        <ele>38.1</ele>
        <time>2020-07-08T09:35:40Z</time>
      </trkpt>
      <trkpt lat="47.79855" lon="-3.51835">
        <ele>38.1</ele>
        <time>2020-07-08T09:35:41Z</time>
      </trkpt>
      <trkpt lat="47.79858" lon="-3.51833">
        <ele>38.13</ele>
        <time>2020-07-08T09:35:42Z</time>
      </trkpt>
      <trkpt lat="47.79861" lon="-3.5183">
        <ele>38.2</ele>
        <time>2020-07-08T09:35:43Z</time>
      </trkpt>
      <trkpt lat="47.79864" lon="-3.51828">
        <ele>38.26</ele>
        <time>2020-07-08T09:35:44Z</time>
      </trkpt>
      <trkpt lat="47.79867" lon="-3.51826">
        <ele>38.31</ele>
        <time>2020-07-08T09:35:45Z</time>
      </trkpt>
      <trkpt lat="47.7987" lon="-3.51825">
        <ele>38.35</ele>
        <time>2020-07-08T09:35:46Z</time>
      </trkpt>
      <trkpt lat="47.79873" lon="-3.51823">
        <ele>38.45</ele>
        <time>2020-07-08T09:35:47Z</time>
      </trkpt>
      <trkpt lat="47.79877" lon="-3.51821">
        <ele>38.56</ele>
        <time>2020-07-08T09:35:48Z</time>
      </trkpt>
      <trkpt lat="47.7988" lon="-3.51818">
        <ele>38.7</ele>
        <time>2020-07-08T09:35:49Z</time>
      </trkpt>
      <trkpt lat="47.79883" lon="-3.51816">
        <ele>38.85</ele>
        <time>2020-07-08T09:35:50Z</time>
      </trkpt>
      <trkpt lat="47.79887" lon="-3.51815">
        <ele>38.97</ele>
        <time>2020-07-08T09:35:51Z</time>
      </trkpt>
      <trkpt lat="47.79892" lon="-3.51811">
        <ele>39.07</ele>
        <time>2020-07-08T09:35:52Z</time>
      </trkpt>
      <trkpt lat="47.79896" lon="-3.51811">
        <ele>38.88</ele>
        <time>2020-07-08T09:35:53Z</time>
      </trkpt>
      <trkpt lat="47.799" lon="-3.51809">
        <ele>38.79</ele>
        <time>2020-07-08T09:35:54Z</time>
      </trkpt>
      <trkpt lat="47.79903" lon="-3.51805">
        <ele>38.9</ele>
        <time>2020-07-08T09:35:55Z</time>
      </trkpt>
      <trkpt lat="47.79908" lon="-3.51805">
        <ele>38.8</ele>
        <time>2020-07-08T09:35:56Z</time>
      </trkpt>
      <trkpt lat="47.79911" lon="-3.51803">
        <ele>38.82</ele>
        <time>2020-07-08T09:35:57Z</time>
      </trkpt>
      <trkpt lat="47.79913" lon="-3.51803">
        <ele>38.67</ele>
        <time>2020-07-08T09:35:58Z</time>
      </trkpt>
      <trkpt lat="47.79916" lon="-3.51803">
        <ele>38.55</ele>
        <time>2020-07-08T09:35:59Z</time>
      </trkpt>
      <trkpt lat="47.79919" lon="-3.51803">
        <ele>38.43</ele>
        <time>2020-07-08T09:36:00Z</time>
      </trkpt>
      <trkpt lat="47.79921" lon="-3.51802">
        <ele>38.39</ele>
        <time>2020-07-08T09:36:01Z</time>
      </trkpt>
      <trkpt lat="47.79923" lon="-3.51802">
        <ele>38.29</ele>
        <time>2020-07-08T09:36:02Z</time>
      </trkpt>
      <trkpt lat="47.79927" lon="-3.51801">
        <ele>38.12</ele>
        <time>2020-07-08T09:36:03Z</time>
      </trkpt>
      <trkpt lat="47.79931" lon="-3.51802">
        <ele>37.8</ele>
        <time>2020-07-08T09:36:04Z</time>
      </trkpt>
      <trkpt lat="47.79935" lon="-3.51802">
        <ele>37.41</ele>
        <time>2020-07-08T09:36:05Z</time>
      </trkpt>
      <trkpt lat="47.7994" lon="-3.51802">
        <ele>37.15</ele>
        <time>2020-07-08T09:36:06Z</time>
      </trkpt>
      <trkpt lat="47.79945" lon="-3.51802">
        <ele>36.83</ele>
        <time>2020-07-08T09:36:07Z</time>
      </trkpt>
      <trkpt lat="47.79949" lon="-3.51801">
        <ele>36.82</ele>
        <time>2020-07-08T09:36:08Z</time>
      </trkpt>
      <trkpt lat="47.79954" lon="-3.518">
        <ele>36.99</ele>
        <time>2020-07-08T09:36:09Z</time>
      </trkpt>
      <trkpt lat="47.79959" lon="-3.51798">
        <ele>37.21</ele>
        <time>2020-07-08T09:36:10Z</time>
      </trkpt>
      <trkpt lat="47.79965" lon="-3.51797">
        <ele>37.44</ele>
        <time>2020-07-08T09:36:11Z</time>
      </trkpt>
      <trkpt lat="47.7997" lon="-3.51796">
        <ele>37.59</ele>
        <time>2020-07-08T09:36:12Z</time>
      </trkpt>
      <trkpt lat="47.79976" lon="-3.51797">
        <ele>37.49</ele>
        <time>2020-07-08T09:36:13Z</time>
      </trkpt>
      <trkpt lat="47.79983" lon="-3.51798">
        <ele>37.11</ele>
        <time>2020-07-08T09:36:14Z</time>
      </trkpt>
      <trkpt lat="47.79991" lon="-3.51801">
        <ele>36.51</ele>
        <time>2020-07-08T09:36:15Z</time>
      </trkpt>
      <trkpt lat="47.8" lon="-3.51805">
        <ele>35.49</ele>
        <time>2020-07-08T09:36:16Z</time>
      </trkpt>
      <trkpt lat="47.80008" lon="-3.51811">
        <ele>34.48</ele>
        <time>2020-07-08T09:36:17Z</time>
      </trkpt>
      <trkpt lat="47.80017" lon="-3.51816">
        <ele>33.51</ele>
        <time>2020-07-08T09:36:18Z</time>
      </trkpt>
      <trkpt lat="47.80024" lon="-3.5182">
        <ele>32.73</ele>
        <time>2020-07-08T09:36:19Z</time>
      </trkpt>
      <trkpt lat="47.8003" lon="-3.51822">
        <ele>32.28</ele>
        <time>2020-07-08T09:36:20Z</time>
      </trkpt>
      <trkpt lat="47.80035" lon="-3.51822">
        <ele>32.26</ele>
        <time>2020-07-08T09:36:21Z</time>
      </trkpt>
      <trkpt lat="47.8004" lon="-3.51822">
        <ele>32.45</ele>
        <time>2020-07-08T09:36:22Z</time>
      </trkpt>
      <trkpt lat="47.80046" lon="-3.51821">
        <ele>32.79</ele>
        <time>2020-07-08T09:36:23Z</time>
      </trkpt>
      <trkpt lat="47.80054" lon="-3.51818">
        <ele>33.45</ele>
        <time>2020-07-08T09:36:24Z</time>
      </trkpt>
      <trkpt lat="47.80061" lon="-3.51813">
        <ele>34.28</ele>
        <time>2020-07-08T09:36:25Z</time>
      </trkpt>
      <trkpt lat="47.80069" lon="-3.51808">
        <ele>35.18</ele>
        <time>2020-07-08T09:36:26Z</time>
      </trkpt>
      <trkpt lat="47.80077" lon="-3.51805">
        <ele>35.77</ele>
        <time>2020-07-08T09:36:27Z</time>
      </trkpt>
      <trkpt lat="47.80083" lon="-3.51802">
        <ele>36.19</ele>
        <time>2020-07-08T09:36:28Z</time>
      </trkpt>
      <trkpt lat="47.80087" lon="-3.51798">
        <ele>36.5</ele>
        <time>2020-07-08T09:36:29Z</time>
      </trkpt>
      <trkpt lat="47.8009" lon="-3.51795">
        <ele>36.76</ele>
        <time>2020-07-08T09:36:30Z</time>
      </trkpt>
      <trkpt lat="47.80092" lon="-3.51794">
        <ele>36.91</ele>
        <time>2020-07-08T09:36:31Z</time>
      </trkpt>
      <trkpt lat="47.80093" lon="-3.51793">
        <ele>36.97</ele>
        <time>2020-07-08T09:36:32Z</time>
      </trkpt>
      <trkpt lat="47.80094" lon="-3.51792">
        <ele>37.01</ele>
        <time>2020-07-08T09:36:33Z</time>
      </trkpt>
      <trkpt lat="47.80094" lon="-3.51791">
        <ele>37.1</ele>
        <time>2020-07-08T09:36:34Z</time>
      </trkpt>
      <trkpt lat="47.80094" lon="-3.51791">
        <ele>37.17</ele>
        <time>2020-07-08T09:36:35Z</time>
      </trkpt>
      <trkpt lat="47.80094" lon="-3.51791">
        <ele>37.2</ele>
        <time>2020-07-08T09:36:36Z</time>
      </trkpt>
      <trkpt lat="47.80094" lon="-3.51791">
        <ele>37.2</ele>
        <time>2020-07-08T09:36:37Z</time>
      </trkpt>
      <trkpt lat="47.80094" lon="-3.51791">
        <ele>37.21</ele>
        <time>2020-07-08T09:36:38Z</time>
      </trkpt>
      <trkpt lat="47.80094" lon="-3.51791">
        <ele>37.21</ele>
        <time>2020-07-08T09:36:39Z</time>
      </trkpt>
      <trkpt lat="47.80094" lon="-3.51791">
        <ele>37.21</ele>
        <time>2020-07-08T09:36:40Z</time>
      </trkpt>
      <trkpt lat="47.80094" lon="-3.51791">
        <ele>37.21</ele>
        <time>2020-07-08T09:36:41Z</time>
      </trkpt>
      <trkpt lat="47.80094" lon="-3.51791">
        <ele>37.21</ele>
        <time>2020-07-08T09:36:42Z</time>
      </trkpt>
      <trkpt lat="47.80094" lon="-3.51791">
        <ele>37.21</ele>
        <time>2020-07-08T09:36:43Z</time>
      </trkpt>
      <trkpt lat="47.80094" lon="-3.51791">
        <ele>37.21</ele>
        <time>2020-07-08T09:36:44Z</time>
      </trkpt>
      <trkpt lat="47.80094" lon="-3.51791">
        <ele>37.21</ele>
        <time>2020-07-08T09:36:45Z</time>
      </trkpt>
      <trkpt lat="47.80094" lon="-3.51791">
        <ele>37.21</ele>
        <time>2020-07-08T09:36:46Z</time>
      </trkpt>
      <trkpt lat="47.80094" lon="-3.51791">
        <ele>37.21</ele>
        <time>2020-07-08T09:36:47Z</time>
      </trkpt>
      <trkpt lat="47.80094" lon="-3.51791">
        <ele>37.21</ele>
        <time>2020-07-08T09:36:48Z</time>
      </trkpt>
      <trkpt lat="47.80094" lon="-3.51791">
        <ele>37.21</ele>
        <time>2020-07-08T09:36:49Z</time>
      </trkpt>
      <trkpt lat="47.80094" lon="-3.51785">
        <ele>37.62</ele>
        <time>2020-07-08T09:36:50Z</time>
      </trkpt>
      <trkpt lat="47.80095" lon="-3.51783">
        <ele>37.86</ele>
        <time>2020-07-08T09:36:51Z</time>
      </trkpt>
      <trkpt lat="47.80096" lon="-3.51782">
        <ele>38.02</ele>
        <time>2020-07-08T09:36:52Z</time>
      </trkpt>
      <trkpt lat="47.80098" lon="-3.5178">
        <ele>38.13</ele>
        <time>2020-07-08T09:36:53Z</time>
      </trkpt>
      <trkpt lat="47.80099" lon="-3.51778">
        <ele>38.34</ele>
        <time>2020-07-08T09:36:54Z</time>
      </trkpt>
      <trkpt lat="47.80101" lon="-3.51778">
        <ele>38.35</ele>
        <time>2020-07-08T09:36:55Z</time>
      </trkpt>
      <trkpt lat="47.80103" lon="-3.51777">
        <ele>38.32</ele>
        <time>2020-07-08T09:36:56Z</time>
      </trkpt>
      <trkpt lat="47.80105" lon="-3.51776">
        <ele>38.32</ele>
        <time>2020-07-08T09:36:57Z</time>
      </trkpt>
      <trkpt lat="47.80106" lon="-3.51773">
        <ele>38.36</ele>
        <time>2020-07-08T09:36:58Z</time>
      </trkpt>
      <trkpt lat="47.80108" lon="-3.5177">
        <ele>38.39</ele>
        <time>2020-07-08T09:36:59Z</time>
      </trkpt>
      <trkpt lat="47.80109" lon="-3.51768">
        <ele>38.41</ele>
        <time>2020-07-08T09:37:00Z</time>
      </trkpt>
      <trkpt lat="47.8011" lon="-3.51766">
        <ele>38.46</ele>
        <time>2020-07-08T09:37:01Z</time>
      </trkpt>
      <trkpt lat="47.80111" lon="-3.51764">
        <ele>38.5</ele>
        <time>2020-07-08T09:37:02Z</time>
      </trkpt>
      <trkpt lat="47.80112" lon="-3.51762">
        <ele>38.48</ele>
        <time>2020-07-08T09:37:03Z</time>
      </trkpt>
      <trkpt lat="47.80114" lon="-3.5176">
        <ele>38.36</ele>
        <time>2020-07-08T09:37:04Z</time>
      </trkpt>
      <trkpt lat="47.80115" lon="-3.51759">
        <ele>38.29</ele>
        <time>2020-07-08T09:37:05Z</time>
      </trkpt>
      <trkpt lat="47.80116" lon="-3.51757">
        <ele>38.24</ele>
        <time>2020-07-08T09:37:06Z</time>
      </trkpt>
      <trkpt lat="47.80118" lon="-3.51754">
        <ele>38.17</ele>
        <time>2020-07-08T09:37:07Z</time>
      </trkpt>
      <trkpt lat="47.80119" lon="-3.51752">
        <ele>38.1</ele>
        <time>2020-07-08T09:37:08Z</time>
      </trkpt>
      <trkpt lat="47.80119" lon="-3.51751">
        <ele>38.08</ele>
        <time>2020-07-08T09:37:09Z</time>
      </trkpt>
      <trkpt lat="47.80119" lon="-3.51751">
        <ele>38.08</ele>
        <time>2020-07-08T09:37:10Z</time>
      </trkpt>
      <trkpt lat="47.80119" lon="-3.5175">
        <ele>38.11</ele>
        <time>2020-07-08T09:37:11Z</time>
      </trkpt>
      <trkpt lat="47.80119" lon="-3.5175">
        <ele>38.11</ele>
        <time>2020-07-08T09:37:12Z</time>
      </trkpt>
      <trkpt lat="47.80119" lon="-3.5175">
        <ele>38.12</ele>
        <time>2020-07-08T09:37:13Z</time>
      </trkpt>
      <trkpt lat="47.80119" lon="-3.5175">
        <ele>38.12</ele>
        <time>2020-07-08T09:37:14Z</time>
      </trkpt>
      <trkpt lat="47.80122" lon="-3.5174">
        <ele>38.04</ele>
        <time>2020-07-08T09:37:15Z</time>
      </trkpt>
      <trkpt lat="47.80122" lon="-3.51736">
        <ele>38.01</ele>
        <time>2020-07-08T09:37:16Z</time>
      </trkpt>
      <trkpt lat="47.80124" lon="-3.51731">
        <ele>37.96</ele>
        <time>2020-07-08T09:37:17Z</time>
      </trkpt>
      <trkpt lat="47.80125" lon="-3.51726">
        <ele>37.93</ele>
        <time>2020-07-08T09:37:18Z</time>
      </trkpt>
      <trkpt lat="47.80127" lon="-3.5172">
        <ele>37.86</ele>
        <time>2020-07-08T09:37:19Z</time>
      </trkpt>
      <trkpt lat="47.80128" lon="-3.51714">
        <ele>37.73</ele>
        <time>2020-07-08T09:37:20Z</time>
      </trkpt>
      <trkpt lat="47.80128" lon="-3.51707">
        <ele>37.61</ele>
        <time>2020-07-08T09:37:21Z</time>
      </trkpt>
      <trkpt lat="47.80129" lon="-3.517">
        <ele>37.49</ele>
        <time>2020-07-08T09:37:22Z</time>
      </trkpt>
      <trkpt lat="47.80129" lon="-3.51695">
        <ele>37.39</ele>
        <time>2020-07-08T09:37:23Z</time>
      </trkpt>
      <trkpt lat="47.8013" lon="-3.51691">
        <ele>37.31</ele>
        <time>2020-07-08T09:37:24Z</time>
      </trkpt>
      <trkpt lat="47.80133" lon="-3.51688">
        <ele>37.21</ele>
        <time>2020-07-08T09:37:25Z</time>
      </trkpt>
      <trkpt lat="47.80137" lon="-3.51691">
        <ele>37.1</ele>
        <time>2020-07-08T09:37:26Z</time>
      </trkpt>
      <trkpt lat="47.80142" lon="-3.51694">
        <ele>36.96</ele>
        <time>2020-07-08T09:37:27Z</time>
      </trkpt>
      <trkpt lat="47.80146" lon="-3.51696">
        <ele>36.78</ele>
        <time>2020-07-08T09:37:28Z</time>
      </trkpt>
      <trkpt lat="47.80152" lon="-3.51698">
        <ele>36.54</ele>
        <time>2020-07-08T09:37:29Z</time>
      </trkpt>
      <trkpt lat="47.80156" lon="-3.517">
        <ele>36.26</ele>
        <time>2020-07-08T09:37:30Z</time>
      </trkpt>
      <trkpt lat="47.80161" lon="-3.51703">
        <ele>35.88</ele>
        <time>2020-07-08T09:37:31Z</time>
      </trkpt>
      <trkpt lat="47.80167" lon="-3.51704">
        <ele>35.5</ele>
        <time>2020-07-08T09:37:32Z</time>
      </trkpt>
      <trkpt lat="47.80171" lon="-3.51706">
        <ele>34.99</ele>
        <time>2020-07-08T09:37:33Z</time>
      </trkpt>
      <trkpt lat="47.80176" lon="-3.51708">
        <ele>34.41</ele>
        <time>2020-07-08T09:37:34Z</time>
      </trkpt>
      <trkpt lat="47.80181" lon="-3.5171">
        <ele>33.81</ele>
        <time>2020-07-08T09:37:35Z</time>
      </trkpt>
      <trkpt lat="47.80185" lon="-3.51713">
        <ele>33.19</ele>
        <time>2020-07-08T09:37:36Z</time>
      </trkpt>
      <trkpt lat="47.80189" lon="-3.51713">
        <ele>32.66</ele>
        <time>2020-07-08T09:37:37Z</time>
      </trkpt>
      <trkpt lat="47.80194" lon="-3.51712">
        <ele>32.3</ele>
        <time>2020-07-08T09:37:38Z</time>
      </trkpt>
      <trkpt lat="47.80199" lon="-3.5171">
        <ele>32.34</ele>
        <time>2020-07-08T09:37:39Z</time>
      </trkpt>
      <trkpt lat="47.80202" lon="-3.51708">
        <ele>32.48</ele>
        <time>2020-07-08T09:37:40Z</time>
      </trkpt>
      <trkpt lat="47.80206" lon="-3.51706">
        <ele>32.64</ele>
        <time>2020-07-08T09:37:41Z</time>
      </trkpt>
      <trkpt lat="47.80209" lon="-3.51704">
        <ele>32.88</ele>
        <time>2020-07-08T09:37:42Z</time>
      </trkpt>
      <trkpt lat="47.80211" lon="-3.51703">
        <ele>33.04</ele>
        <time>2020-07-08T09:37:43Z</time>
      </trkpt>
      <trkpt lat="47.80214" lon="-3.51701">
        <ele>33.2</ele>
        <time>2020-07-08T09:37:44Z</time>
      </trkpt>
      <trkpt lat="47.80216" lon="-3.51699">
        <ele>33.4</ele>
        <time>2020-07-08T09:37:45Z</time>
      </trkpt>
      <trkpt lat="47.80219" lon="-3.51698">
        <ele>33.55</ele>
        <time>2020-07-08T09:37:46Z</time>
      </trkpt>
      <trkpt lat="47.80221" lon="-3.51698">
        <ele>33.61</ele>
        <time>2020-07-08T09:37:47Z</time>
      </trkpt>
      <trkpt lat="47.80224" lon="-3.51698">
        <ele>33.76</ele>
        <time>2020-07-08T09:37:48Z</time>
      </trkpt>
      <trkpt lat="47.80227" lon="-3.51698">
        <ele>34.06</ele>
        <time>2020-07-08T09:37:49Z</time>
      </trkpt>
      <trkpt lat="47.80231" lon="-3.51697">
        <ele>34.44</ele>
        <time>2020-07-08T09:37:50Z</time>
      </trkpt>
      <trkpt lat="47.80233" lon="-3.51698">
        <ele>34.69</ele>
        <time>2020-07-08T09:37:51Z</time>
      </trkpt>
      <trkpt lat="47.80236" lon="-3.51697">
        <ele>35.03</ele>
        <time>2020-07-08T09:37:52Z</time>
      </trkpt>
      <trkpt lat="47.80239" lon="-3.51698">
        <ele>35.33</ele>
        <time>2020-07-08T09:37:53Z</time>
      </trkpt>
      <trkpt lat="47.80242" lon="-3.51698">
        <ele>35.6</ele>
        <time>2020-07-08T09:37:54Z</time>
      </trkpt>
      <trkpt lat="47.80244" lon="-3.51699">
        <ele>35.85</ele>
        <time>2020-07-08T09:37:55Z</time>
      </trkpt>
      <trkpt lat="47.80248" lon="-3.517">
        <ele>36.1</ele>
        <time>2020-07-08T09:37:56Z</time>
      </trkpt>
      <trkpt lat="47.80251" lon="-3.517">
        <ele>36.41</ele>
        <time>2020-07-08T09:37:57Z</time>
      </trkpt>
      <trkpt lat="47.80254" lon="-3.517">
        <ele>36.84</ele>
        <time>2020-07-08T09:37:58Z</time>
      </trkpt>
      <trkpt lat="47.80258" lon="-3.517">
        <ele>37.32</ele>
        <time>2020-07-08T09:37:59Z</time>
      </trkpt>
      <trkpt lat="47.80261" lon="-3.51701">
        <ele>37.75</ele>
        <time>2020-07-08T09:38:00Z</time>
      </trkpt>
      <trkpt lat="47.80264" lon="-3.51702">
        <ele>38.17</ele>
        <time>2020-07-08T09:38:01Z</time>
      </trkpt>
      <trkpt lat="47.80268" lon="-3.51704">
        <ele>38.67</ele>
        <time>2020-07-08T09:38:02Z</time>
      </trkpt>
      <trkpt lat="47.80272" lon="-3.51704">
        <ele>39.19</ele>
        <time>2020-07-08T09:38:03Z</time>
      </trkpt>
      <trkpt lat="47.80276" lon="-3.51706">
        <ele>39.66</ele>
        <time>2020-07-08T09:38:04Z</time>
      </trkpt>
      <trkpt lat="47.80278" lon="-3.51707">
        <ele>39.98</ele>
        <time>2020-07-08T09:38:05Z</time>
      </trkpt>
      <trkpt lat="47.80282" lon="-3.51707">
        <ele>40.02</ele>
        <time>2020-07-08T09:38:06Z</time>
      </trkpt>
      <trkpt lat="47.80285" lon="-3.51708">
        <ele>39.95</ele>
        <time>2020-07-08T09:38:07Z</time>
      </trkpt>
      <trkpt lat="47.80288" lon="-3.51708">
        <ele>39.88</ele>
        <time>2020-07-08T09:38:08Z</time>
      </trkpt>
      <trkpt lat="47.80291" lon="-3.51709">
        <ele>39.74</ele>
        <time>2020-07-08T09:38:09Z</time>
      </trkpt>
      <trkpt lat="47.80294" lon="-3.5171">
        <ele>39.61</ele>
        <time>2020-07-08T09:38:10Z</time>
      </trkpt>
      <trkpt lat="47.80299" lon="-3.5171">
        <ele>39.47</ele>
        <time>2020-07-08T09:38:11Z</time>
      </trkpt>
      <trkpt lat="47.80302" lon="-3.5171">
        <ele>39.4</ele>
        <time>2020-07-08T09:38:12Z</time>
      </trkpt>
      <trkpt lat="47.80306" lon="-3.51711">
        <ele>39.26</ele>
        <time>2020-07-08T09:38:13Z</time>
      </trkpt>
      <trkpt lat="47.8031" lon="-3.51711">
        <ele>39.24</ele>
        <time>2020-07-08T09:38:14Z</time>
      </trkpt>
      <trkpt lat="47.80314" lon="-3.51712">
        <ele>39.26</ele>
        <time>2020-07-08T09:38:15Z</time>
      </trkpt>
      <trkpt lat="47.80319" lon="-3.51712">
        <ele>39.27</ele>
        <time>2020-07-08T09:38:16Z</time>
      </trkpt>
      <trkpt lat="47.80323" lon="-3.51713">
        <ele>39.21</ele>
        <time>2020-07-08T09:38:17Z</time>
      </trkpt>
      <trkpt lat="47.80327" lon="-3.51713">
        <ele>39.19</ele>
        <time>2020-07-08T09:38:18Z</time>
      </trkpt>
      <trkpt lat="47.8033" lon="-3.51711">
        <ele>39.48</ele>
        <time>2020-07-08T09:38:19Z</time>
      </trkpt>
      <trkpt lat="47.80335" lon="-3.51706">
        <ele>40.12</ele>
        <time>2020-07-08T09:38:20Z</time>
      </trkpt>
      <trkpt lat="47.80339" lon="-3.51702">
        <ele>40.77</ele>
        <time>2020-07-08T09:38:21Z</time>
      </trkpt>
      <trkpt lat="47.80343" lon="-3.517">
        <ele>41.14</ele>
        <time>2020-07-08T09:38:22Z</time>
      </trkpt>
      <trkpt lat="47.80347" lon="-3.51697">
        <ele>41.52</ele>
        <time>2020-07-08T09:38:23Z</time>
      </trkpt>
      <trkpt lat="47.8035" lon="-3.51695">
        <ele>41.84</ele>
        <time>2020-07-08T09:38:24Z</time>
      </trkpt>
      <trkpt lat="47.80353" lon="-3.51691">
        <ele>42.13</ele>
        <time>2020-07-08T09:38:25Z</time>
      </trkpt>
      <trkpt lat="47.80356" lon="-3.51689">
        <ele>42.33</ele>
        <time>2020-07-08T09:38:26Z</time>
      </trkpt>
      <trkpt lat="47.8036" lon="-3.51687">
        <ele>42.48</ele>
        <time>2020-07-08T09:38:27Z</time>
      </trkpt>
      <trkpt lat="47.80363" lon="-3.51685">
        <ele>42.47</ele>
        <time>2020-07-08T09:38:28Z</time>
      </trkpt>
      <trkpt lat="47.80366" lon="-3.51684">
        <ele>42.28</ele>
        <time>2020-07-08T09:38:29Z</time>
      </trkpt>
      <trkpt lat="47.80369" lon="-3.51682">
        <ele>42.03</ele>
        <time>2020-07-08T09:38:30Z</time>
      </trkpt>
      <trkpt lat="47.80371" lon="-3.51682">
        <ele>41.8</ele>
        <time>2020-07-08T09:38:31Z</time>
      </trkpt>
      <trkpt lat="47.80372" lon="-3.51682">
        <ele>41.67</ele>
        <time>2020-07-08T09:38:32Z</time>
      </trkpt>
      <trkpt lat="47.80373" lon="-3.51683">
        <ele>41.48</ele>
        <time>2020-07-08T09:38:33Z</time>
      </trkpt>
      <trkpt lat="47.80375" lon="-3.51684">
        <ele>41.2</ele>
        <time>2020-07-08T09:38:34Z</time>
      </trkpt>
      <trkpt lat="47.80377" lon="-3.51687">
        <ele>40.81</ele>
        <time>2020-07-08T09:38:35Z</time>
      </trkpt>
      <trkpt lat="47.80379" lon="-3.5169">
        <ele>40.46</ele>
        <time>2020-07-08T09:38:36Z</time>
      </trkpt>
      <trkpt lat="47.8038" lon="-3.51694">
        <ele>40.12</ele>
        <time>2020-07-08T09:38:37Z</time>
      </trkpt>
      <trkpt lat="47.80381" lon="-3.51698">
        <ele>39.86</ele>
        <time>2020-07-08T09:38:38Z</time>
      </trkpt>
      <trkpt lat="47.80383" lon="-3.51702">
        <ele>39.65</ele>
        <time>2020-07-08T09:38:39Z</time>
      </trkpt>
      <trkpt lat="47.80384" lon="-3.51705">
        <ele>39.49</ele>
        <time>2020-07-08T09:38:40Z</time>
      </trkpt>
      <trkpt lat="47.80385" lon="-3.51709">
        <ele>39.36</ele>
        <time>2020-07-08T09:38:41Z</time>
      </trkpt>
      <trkpt lat="47.80385" lon="-3.51713">
        <ele>39.25</ele>
        <time>2020-07-08T09:38:42Z</time>
      </trkpt>
      <trkpt lat="47.80386" lon="-3.51717">
        <ele>39.16</ele>
        <time>2020-07-08T09:38:43Z</time>
      </trkpt>
      <trkpt lat="47.80388" lon="-3.51721">
        <ele>39.08</ele>
        <time>2020-07-08T09:38:44Z</time>
      </trkpt>
      <trkpt lat="47.8039" lon="-3.51725">
        <ele>38.77</ele>
        <time>2020-07-08T09:38:45Z</time>
      </trkpt>
      <trkpt lat="47.80392" lon="-3.51728">
        <ele>38.21</ele>
        <time>2020-07-08T09:38:46Z</time>
      </trkpt>
      <trkpt lat="47.80393" lon="-3.51731">
        <ele>37.6</ele>
        <time>2020-07-08T09:38:47Z</time>
      </trkpt>
      <trkpt lat="47.80395" lon="-3.51734">
        <ele>37.05</ele>
        <time>2020-07-08T09:38:48Z</time>
      </trkpt>
      <trkpt lat="47.80396" lon="-3.51736">
        <ele>36.65</ele>
        <time>2020-07-08T09:38:49Z</time>
      </trkpt>
      <trkpt lat="47.80396" lon="-3.5174">
        <ele>36.33</ele>
        <time>2020-07-08T09:38:50Z</time>
      </trkpt>
      <trkpt lat="47.80396" lon="-3.51743">
        <ele>36.11</ele>
        <time>2020-07-08T09:38:51Z</time>
      </trkpt>
      <trkpt lat="47.80396" lon="-3.51747">
        <ele>35.94</ele>
        <time>2020-07-08T09:38:52Z</time>
      </trkpt>
      <trkpt lat="47.80396" lon="-3.5175">
        <ele>35.74</ele>
        <time>2020-07-08T09:38:53Z</time>
      </trkpt>
      <trkpt lat="47.80396" lon="-3.51754">
        <ele>35.27</ele>
        <time>2020-07-08T09:38:54Z</time>
      </trkpt>
      <trkpt lat="47.80397" lon="-3.51757">
        <ele>34.79</ele>
        <time>2020-07-08T09:38:55Z</time>
      </trkpt>
      <trkpt lat="47.80398" lon="-3.5176">
        <ele>34.34</ele>
        <time>2020-07-08T09:38:56Z</time>
      </trkpt>
      <trkpt lat="47.80399" lon="-3.51762">
        <ele>33.98</ele>
        <time>2020-07-08T09:38:57Z</time>
      </trkpt>
      <trkpt lat="47.80398" lon="-3.51765">
        <ele>33.66</ele>
        <time>2020-07-08T09:38:58Z</time>
      </trkpt>
      <trkpt lat="47.80399" lon="-3.51767">
        <ele>33.36</ele>
        <time>2020-07-08T09:38:59Z</time>
      </trkpt>
      <trkpt lat="47.80399" lon="-3.51769">
        <ele>33.07</ele>
        <time>2020-07-08T09:39:00Z</time>
      </trkpt>
      <trkpt lat="47.80399" lon="-3.51772">
        <ele>32.79</ele>
        <time>2020-07-08T09:39:01Z</time>
      </trkpt>
      <trkpt lat="47.804" lon="-3.51774">
        <ele>32.56</ele>
        <time>2020-07-08T09:39:02Z</time>
      </trkpt>
      <trkpt lat="47.804" lon="-3.51776">
        <ele>32.29</ele>
        <time>2020-07-08T09:39:03Z</time>
      </trkpt>
      <trkpt lat="47.80401" lon="-3.51779">
        <ele>31.97</ele>
        <time>2020-07-08T09:39:04Z</time>
      </trkpt>
      <trkpt lat="47.80402" lon="-3.51781">
        <ele>31.66</ele>
        <time>2020-07-08T09:39:05Z</time>
      </trkpt>
      <trkpt lat="47.80403" lon="-3.51783">
        <ele>31.33</ele>
        <time>2020-07-08T09:39:06Z</time>
      </trkpt>
      <trkpt lat="47.80405" lon="-3.51786">
        <ele>31.07</ele>
        <time>2020-07-08T09:39:07Z</time>
      </trkpt>
      <trkpt lat="47.80405" lon="-3.51787">
        <ele>30.91</ele>
        <time>2020-07-08T09:39:08Z</time>
      </trkpt>
      <trkpt lat="47.80407" lon="-3.51787">
        <ele>30.9</ele>
        <time>2020-07-08T09:39:09Z</time>
      </trkpt>
      <trkpt lat="47.80407" lon="-3.51787">
        <ele>30.9</ele>
        <time>2020-07-08T09:39:10Z</time>
      </trkpt>
      <trkpt lat="47.80407" lon="-3.51787">
        <ele>30.9</ele>
        <time>2020-07-08T09:39:11Z</time>
      </trkpt>
      <trkpt lat="47.80407" lon="-3.51787">
        <ele>30.9</ele>
        <time>2020-07-08T09:39:12Z</time>
      </trkpt>
      <trkpt lat="47.80407" lon="-3.51787">
        <ele>30.9</ele>
        <time>2020-07-08T09:39:13Z</time>
      </trkpt>
      <trkpt lat="47.80407" lon="-3.51787">
        <ele>30.9</ele>
        <time>2020-07-08T09:39:14Z</time>
      </trkpt>
      <trkpt lat="47.80407" lon="-3.51787">
        <ele>30.9</ele>
        <time>2020-07-08T09:39:15Z</time>
      </trkpt>
      <trkpt lat="47.80407" lon="-3.51787">
        <ele>30.9</ele>
        <time>2020-07-08T09:39:16Z</time>
      </trkpt>
      <trkpt lat="47.80407" lon="-3.51787">
        <ele>30.9</ele>
        <time>2020-07-08T09:39:17Z</time>
      </trkpt>
      <trkpt lat="47.80407" lon="-3.51787">
        <ele>30.9</ele>
        <time>2020-07-08T09:39:18Z</time>
      </trkpt>
      <trkpt lat="47.80407" lon="-3.51787">
        <ele>30.9</ele>
        <time>2020-07-08T09:39:19Z</time>
      </trkpt>
      <trkpt lat="47.80407" lon="-3.51787">
        <ele>30.9</ele>
        <time>2020-07-08T09:39:20Z</time>
      </trkpt>
      <trkpt lat="47.80407" lon="-3.51787">
        <ele>30.9</ele>
        <time>2020-07-08T09:39:21Z</time>
      </trkpt>
      <trkpt lat="47.80409" lon="-3.51797">
        <ele>30.19</ele>
        <time>2020-07-08T09:39:22Z</time>
      </trkpt>
      <trkpt lat="47.80411" lon="-3.518">
        <ele>29.85</ele>
        <time>2020-07-08T09:39:23Z</time>
      </trkpt>
      <trkpt lat="47.80414" lon="-3.51804">
        <ele>29.77</ele>
        <time>2020-07-08T09:39:24Z</time>
      </trkpt>
      <trkpt lat="47.80416" lon="-3.51808">
        <ele>29.66</ele>
        <time>2020-07-08T09:39:25Z</time>
      </trkpt>
      <trkpt lat="47.80418" lon="-3.51811">
        <ele>29.23</ele>
        <time>2020-07-08T09:39:26Z</time>
      </trkpt>
      <trkpt lat="47.80421" lon="-3.51811">
        <ele>28.84</ele>
        <time>2020-07-08T09:39:27Z</time>
      </trkpt>
      <trkpt lat="47.80424" lon="-3.51808">
        <ele>28.77</ele>
        <time>2020-07-08T09:39:28Z</time>
      </trkpt>
      <trkpt lat="47.80424" lon="-3.51806">
        <ele>28.87</ele>
        <time>2020-07-08T09:39:29Z</time>
      </trkpt>
      <trkpt lat="47.80425" lon="-3.51803">
        <ele>28.88</ele>
        <time>2020-07-08T09:39:30Z</time>
      </trkpt>
      <trkpt lat="47.80426" lon="-3.51801">
        <ele>28.82</ele>
        <time>2020-07-08T09:39:31Z</time>
      </trkpt>
      <trkpt lat="47.80427" lon="-3.51798">
        <ele>28.68</ele>
        <time>2020-07-08T09:39:32Z</time>
      </trkpt>
      <trkpt lat="47.80429" lon="-3.51794">
        <ele>28.43</ele>
        <time>2020-07-08T09:39:33Z</time>
      </trkpt>
      <trkpt lat="47.80432" lon="-3.5179">
        <ele>27.96</ele>
        <time>2020-07-08T09:39:34Z</time>
      </trkpt>
      <trkpt lat="47.80435" lon="-3.51786">
        <ele>27.26</ele>
        <time>2020-07-08T09:39:35Z</time>
      </trkpt>
      <trkpt lat="47.80437" lon="-3.51783">
        <ele>26.53</ele>
        <time>2020-07-08T09:39:36Z</time>
      </trkpt>
      <trkpt lat="47.80439" lon="-3.5178">
        <ele>25.85</ele>
        <time>2020-07-08T09:39:37Z</time>
      </trkpt>
      <trkpt lat="47.80442" lon="-3.51777">
        <ele>25.04</ele>
        <time>2020-07-08T09:39:38Z</time>
      </trkpt>
      <trkpt lat="47.80443" lon="-3.51777">
        <ele>24.6</ele>
        <time>2020-07-08T09:39:39Z</time>
      </trkpt>
      <trkpt lat="47.80444" lon="-3.51777">
        <ele>24.1</ele>
        <time>2020-07-08T09:39:40Z</time>
      </trkpt>
      <trkpt lat="47.80445" lon="-3.51779">
        <ele>23.59</ele>
        <time>2020-07-08T09:39:41Z</time>
      </trkpt>
      <trkpt lat="47.80447" lon="-3.51781">
        <ele>22.75</ele>
        <time>2020-07-08T09:39:42Z</time>
      </trkpt>
      <trkpt lat="47.80448" lon="-3.51784">
        <ele>22.35</ele>
        <time>2020-07-08T09:39:43Z</time>
      </trkpt>
      <trkpt lat="47.80448" lon="-3.51787">
        <ele>22.39</ele>
        <time>2020-07-08T09:39:44Z</time>
      </trkpt>
      <trkpt lat="47.80449" lon="-3.5179">
        <ele>22.11</ele>
        <time>2020-07-08T09:39:45Z</time>
      </trkpt>
      <trkpt lat="47.80449" lon="-3.51793">
        <ele>22.1</ele>
        <time>2020-07-08T09:39:46Z</time>
      </trkpt>
      <trkpt lat="47.80448" lon="-3.51795">
        <ele>22.5</ele>
        <time>2020-07-08T09:39:47Z</time>
      </trkpt>
      <trkpt lat="47.80448" lon="-3.51795">
        <ele>22.73</ele>
        <time>2020-07-08T09:39:48Z</time>
      </trkpt>
      <trkpt lat="47.80448" lon="-3.51795">
        <ele>22.95</ele>
        <time>2020-07-08T09:39:49Z</time>
      </trkpt>
      <trkpt lat="47.80448" lon="-3.51795">
        <ele>22.82</ele>
        <time>2020-07-08T09:39:50Z</time>
      </trkpt>
      <trkpt lat="47.80448" lon="-3.51795">
        <ele>22.78</ele>
        <time>2020-07-08T09:39:51Z</time>
      </trkpt>
      <trkpt lat="47.80448" lon="-3.51795">
        <ele>22.77</ele>
        <time>2020-07-08T09:39:52Z</time>
      </trkpt>
      <trkpt lat="47.80451" lon="-3.51789">
        <ele>21.49</ele>
        <time>2020-07-08T09:39:53Z</time>
      </trkpt>
      <trkpt lat="47.80452" lon="-3.51785">
        <ele>20.4</ele>
        <time>2020-07-08T09:39:54Z</time>
      </trkpt>
      <trkpt lat="47.80454" lon="-3.51783">
        <ele>19.03</ele>
        <time>2020-07-08T09:39:55Z</time>
      </trkpt>
      <trkpt lat="47.80455" lon="-3.51773">
        <ele>17.45</ele>
        <time>2020-07-08T09:39:56Z</time>
      </trkpt>
      <trkpt lat="47.80456" lon="-3.5177">
        <ele>16.53</ele>
        <time>2020-07-08T09:39:57Z</time>
      </trkpt>
      <trkpt lat="47.80457" lon="-3.51768">
        <ele>15.58</ele>
        <time>2020-07-08T09:39:58Z</time>
      </trkpt>
      <trkpt lat="47.80458" lon="-3.51765">
        <ele>14.96</ele>
        <time>2020-07-08T09:39:59Z</time>
      </trkpt>
      <trkpt lat="47.80458" lon="-3.51763">
        <ele>14.42</ele>
        <time>2020-07-08T09:40:00Z</time>
      </trkpt>
      <trkpt lat="47.80459" lon="-3.5176">
        <ele>13.88</ele>
        <time>2020-07-08T09:40:01Z</time>
      </trkpt>
      <trkpt lat="47.8046" lon="-3.51758">
        <ele>13.32</ele>
        <time>2020-07-08T09:40:02Z</time>
      </trkpt>
      <trkpt lat="47.80461" lon="-3.51756">
        <ele>12.48</ele>
        <time>2020-07-08T09:40:03Z</time>
      </trkpt>
      <trkpt lat="47.80461" lon="-3.51753">
        <ele>12.28</ele>
        <time>2020-07-08T09:40:04Z</time>
      </trkpt>
      <trkpt lat="47.80463" lon="-3.5175">
        <ele>11.57</ele>
        <time>2020-07-08T09:40:05Z</time>
      </trkpt>
      <trkpt lat="47.80463" lon="-3.51747">
        <ele>11.03</ele>
        <time>2020-07-08T09:40:06Z</time>
      </trkpt>
      <trkpt lat="47.80465" lon="-3.51743">
        <ele>10.28</ele>
        <time>2020-07-08T09:40:07Z</time>
      </trkpt>
      <trkpt lat="47.80466" lon="-3.5174">
        <ele>9.77</ele>
        <time>2020-07-08T09:40:08Z</time>
      </trkpt>
      <trkpt lat="47.80466" lon="-3.51737">
        <ele>9.53</ele>
        <time>2020-07-08T09:40:09Z</time>
      </trkpt>
      <trkpt lat="47.80467" lon="-3.51734">
        <ele>9.38</ele>
        <time>2020-07-08T09:40:10Z</time>
      </trkpt>
      <trkpt lat="47.80468" lon="-3.51732">
        <ele>8.96</ele>
        <time>2020-07-08T09:40:11Z</time>
      </trkpt>
      <trkpt lat="47.80469" lon="-3.5173">
        <ele>8.44</ele>
        <time>2020-07-08T09:40:12Z</time>
      </trkpt>
      <trkpt lat="47.8047" lon="-3.51727">
        <ele>8.06</ele>
        <time>2020-07-08T09:40:13Z</time>
      </trkpt>
      <trkpt lat="47.80471" lon="-3.51725">
        <ele>7.73</ele>
        <time>2020-07-08T09:40:14Z</time>
      </trkpt>
      <trkpt lat="47.80471" lon="-3.51723">
        <ele>7.63</ele>
        <time>2020-07-08T09:40:15Z</time>
      </trkpt>
      <trkpt lat="47.80472" lon="-3.51716">
        <ele>7.14</ele>
        <time>2020-07-08T09:40:16Z</time>
      </trkpt>
      <trkpt lat="47.80474" lon="-3.51713">
        <ele>6.71</ele>
        <time>2020-07-08T09:40:17Z</time>
      </trkpt>
      <trkpt lat="47.80473" lon="-3.51711">
        <ele>6.58</ele>
        <time>2020-07-08T09:40:18Z</time>
      </trkpt>
      <trkpt lat="47.80472" lon="-3.51708">
        <ele>6.53</ele>
        <time>2020-07-08T09:40:19Z</time>
      </trkpt>
      <trkpt lat="47.80473" lon="-3.51705">
        <ele>6.41</ele>
        <time>2020-07-08T09:40:20Z</time>
      </trkpt>
      <trkpt lat="47.80473" lon="-3.51703">
        <ele>6.3</ele>
        <time>2020-07-08T09:40:21Z</time>
      </trkpt>
      <trkpt lat="47.80473" lon="-3.517">
        <ele>6.18</ele>
        <time>2020-07-08T09:40:22Z</time>
      </trkpt>
      <trkpt lat="47.80473" lon="-3.51698">
        <ele>6.09</ele>
        <time>2020-07-08T09:40:23Z</time>
      </trkpt>
      <trkpt lat="47.80472" lon="-3.51695">
        <ele>6.19</ele>
        <time>2020-07-08T09:40:24Z</time>
      </trkpt>
      <trkpt lat="47.80472" lon="-3.51691">
        <ele>6.2</ele>
        <time>2020-07-08T09:40:25Z</time>
      </trkpt>
      <trkpt lat="47.80471" lon="-3.51686">
        <ele>6.25</ele>
        <time>2020-07-08T09:40:26Z</time>
      </trkpt>
      <trkpt lat="47.80472" lon="-3.51682">
        <ele>6.17</ele>
        <time>2020-07-08T09:40:27Z</time>
      </trkpt>
      <trkpt lat="47.80472" lon="-3.51678">
        <ele>6.18</ele>
        <time>2020-07-08T09:40:28Z</time>
      </trkpt>
      <trkpt lat="47.8047" lon="-3.51675">
        <ele>6.59</ele>
        <time>2020-07-08T09:40:29Z</time>
      </trkpt>
      <trkpt lat="47.80471" lon="-3.51675">
        <ele>6.49</ele>
        <time>2020-07-08T09:40:30Z</time>
      </trkpt>
      <trkpt lat="47.80471" lon="-3.51674">
        <ele>6.38</ele>
        <time>2020-07-08T09:40:31Z</time>
      </trkpt>
      <trkpt lat="47.80471" lon="-3.51673">
        <ele>6.38</ele>
        <time>2020-07-08T09:40:32Z</time>
      </trkpt>
      <trkpt lat="47.80471" lon="-3.51673">
        <ele>6.38</ele>
        <time>2020-07-08T09:40:33Z</time>
      </trkpt>
      <trkpt lat="47.80471" lon="-3.51673">
        <ele>6.38</ele>
        <time>2020-07-08T09:40:34Z</time>
      </trkpt>
      <trkpt lat="47.80471" lon="-3.51673">
        <ele>6.38</ele>
        <time>2020-07-08T09:40:35Z</time>
      </trkpt>
      <trkpt lat="47.80471" lon="-3.51673">
        <ele>6.38</ele>
        <time>2020-07-08T09:40:36Z</time>
      </trkpt>
      <trkpt lat="47.80471" lon="-3.51673">
        <ele>6.38</ele>
        <time>2020-07-08T09:40:37Z</time>
      </trkpt>
      <trkpt lat="47.80471" lon="-3.51673">
        <ele>6.38</ele>
        <time>2020-07-08T09:40:38Z</time>
      </trkpt>
      <trkpt lat="47.80471" lon="-3.51673">
        <ele>6.38</ele>
        <time>2020-07-08T09:40:39Z</time>
      </trkpt>
      <trkpt lat="47.80471" lon="-3.51673">
        <ele>6.38</ele>
        <time>2020-07-08T09:40:40Z</time>
      </trkpt>
      <trkpt lat="47.80471" lon="-3.51673">
        <ele>6.38</ele>
        <time>2020-07-08T09:40:41Z</time>
      </trkpt>
      <trkpt lat="47.80461" lon="-3.51672">
        <ele>8.5</ele>
        <time>2020-07-08T09:40:42Z</time>
      </trkpt>
      <trkpt lat="47.80458" lon="-3.51672">
        <ele>9.72</ele>
        <time>2020-07-08T09:40:43Z</time>
      </trkpt>
      <trkpt lat="47.80457" lon="-3.51673">
        <ele>10.32</ele>
        <time>2020-07-08T09:40:44Z</time>
      </trkpt>
      <trkpt lat="47.80457" lon="-3.51673">
        <ele>10.74</ele>
        <time>2020-07-08T09:40:45Z</time>
      </trkpt>
      <trkpt lat="47.80457" lon="-3.51671">
        <ele>10.64</ele>
        <time>2020-07-08T09:40:46Z</time>
      </trkpt>
      <trkpt lat="47.80457" lon="-3.51671">
        <ele>10.52</ele>
        <time>2020-07-08T09:40:47Z</time>
      </trkpt>
      <trkpt lat="47.80457" lon="-3.51671">
        <ele>10.67</ele>
        <time>2020-07-08T09:40:48Z</time>
      </trkpt>
      <trkpt lat="47.80457" lon="-3.51671">
        <ele>10.71</ele>
        <time>2020-07-08T09:40:49Z</time>
      </trkpt>
      <trkpt lat="47.80457" lon="-3.51671">
        <ele>10.73</ele>
        <time>2020-07-08T09:40:50Z</time>
      </trkpt>
      <trkpt lat="47.80457" lon="-3.51671">
        <ele>10.73</ele>
        <time>2020-07-08T09:40:51Z</time>
      </trkpt>
      <trkpt lat="47.80457" lon="-3.51671">
        <ele>10.73</ele>
        <time>2020-07-08T09:40:52Z</time>
      </trkpt>
      <trkpt lat="47.80457" lon="-3.51671">
        <ele>10.73</ele>
        <time>2020-07-08T09:40:53Z</time>
      </trkpt>
      <trkpt lat="47.80457" lon="-3.51671">
        <ele>10.73</ele>
        <time>2020-07-08T09:40:54Z</time>
      </trkpt>
      <trkpt lat="47.80457" lon="-3.51671">
        <ele>10.73</ele>
        <time>2020-07-08T09:40:55Z</time>
      </trkpt>
      <trkpt lat="47.80457" lon="-3.51671">
        <ele>10.73</ele>
        <time>2020-07-08T09:40:56Z</time>
      </trkpt>
      <trkpt lat="47.80457" lon="-3.51671">
        <ele>10.73</ele>
        <time>2020-07-08T09:40:57Z</time>
      </trkpt>
      <trkpt lat="47.80457" lon="-3.51671">
        <ele>10.73</ele>
        <time>2020-07-08T09:40:58Z</time>
      </trkpt>
      <trkpt lat="47.80457" lon="-3.51671">
        <ele>10.73</ele>
        <time>2020-07-08T09:40:59Z</time>
      </trkpt>
      <trkpt lat="47.80457" lon="-3.51671">
        <ele>10.73</ele>
        <time>2020-07-08T09:41:00Z</time>
      </trkpt>
      <trkpt lat="47.80457" lon="-3.51671">
        <ele>10.73</ele>
        <time>2020-07-08T09:41:01Z</time>
      </trkpt>
      <trkpt lat="47.80457" lon="-3.51671">
        <ele>10.73</ele>
        <time>2020-07-08T09:41:02Z</time>
      </trkpt>
      <trkpt lat="47.80457" lon="-3.51671">
        <ele>10.73</ele>
        <time>2020-07-08T09:41:03Z</time>
      </trkpt>
      <trkpt lat="47.80457" lon="-3.51671">
        <ele>10.73</ele>
        <time>2020-07-08T09:41:04Z</time>
      </trkpt>
      <trkpt lat="47.80457" lon="-3.51671">
        <ele>10.73</ele>
        <time>2020-07-08T09:41:05Z</time>
      </trkpt>
      <trkpt lat="47.80457" lon="-3.51671">
        <ele>10.73</ele>
        <time>2020-07-08T09:41:06Z</time>
      </trkpt>
      <trkpt lat="47.80457" lon="-3.51671">
        <ele>10.73</ele>
        <time>2020-07-08T09:41:07Z</time>
      </trkpt>
      <trkpt lat="47.80457" lon="-3.51671">
        <ele>10.73</ele>
        <time>2020-07-08T09:41:08Z</time>
      </trkpt>
      <trkpt lat="47.80461" lon="-3.51659">
        <ele>9.6</ele>
        <time>2020-07-08T09:41:09Z</time>
      </trkpt>
      <trkpt lat="47.80463" lon="-3.51655">
        <ele>8.81</ele>
        <time>2020-07-08T09:41:10Z</time>
      </trkpt>
      <trkpt lat="47.80464" lon="-3.51651">
        <ele>8.42</ele>
        <time>2020-07-08T09:41:11Z</time>
      </trkpt>
      <trkpt lat="47.80464" lon="-3.51647">
        <ele>8.21</ele>
        <time>2020-07-08T09:41:12Z</time>
      </trkpt>
      <trkpt lat="47.80466" lon="-3.51644">
        <ele>7.76</ele>
        <time>2020-07-08T09:41:13Z</time>
      </trkpt>
      <trkpt lat="47.8047" lon="-3.51641">
        <ele>6.84</ele>
        <time>2020-07-08T09:41:14Z</time>
      </trkpt>
      <trkpt lat="47.80477" lon="-3.51642">
        <ele>6.35</ele>
        <time>2020-07-08T09:41:15Z</time>
      </trkpt>
      <trkpt lat="47.8048" lon="-3.51641">
        <ele>6.27</ele>
        <time>2020-07-08T09:41:16Z</time>
      </trkpt>
      <trkpt lat="47.80482" lon="-3.51641">
        <ele>6.28</ele>
        <time>2020-07-08T09:41:17Z</time>
      </trkpt>
      <trkpt lat="47.80484" lon="-3.5164">
        <ele>6.37</ele>
        <time>2020-07-08T09:41:18Z</time>
      </trkpt>
      <trkpt lat="47.80486" lon="-3.51638">
        <ele>6.5</ele>
        <time>2020-07-08T09:41:19Z</time>
      </trkpt>
      <trkpt lat="47.80487" lon="-3.51635">
        <ele>6.69</ele>
        <time>2020-07-08T09:41:20Z</time>
      </trkpt>
      <trkpt lat="47.80487" lon="-3.51634">
        <ele>6.82</ele>
        <time>2020-07-08T09:41:21Z</time>
      </trkpt>
      <trkpt lat="47.80486" lon="-3.51632">
        <ele>6.94</ele>
        <time>2020-07-08T09:41:22Z</time>
      </trkpt>
      <trkpt lat="47.80486" lon="-3.51632">
        <ele>6.98</ele>
        <time>2020-07-08T09:41:23Z</time>
      </trkpt>
      <trkpt lat="47.80486" lon="-3.51632">
        <ele>6.99</ele>
        <time>2020-07-08T09:41:24Z</time>
      </trkpt>
      <trkpt lat="47.80487" lon="-3.51626">
        <ele>7.33</ele>
        <time>2020-07-08T09:41:25Z</time>
      </trkpt>
      <trkpt lat="47.80487" lon="-3.51623">
        <ele>7.56</ele>
        <time>2020-07-08T09:41:26Z</time>
      </trkpt>
      <trkpt lat="47.80486" lon="-3.51622">
        <ele>7.67</ele>
        <time>2020-07-08T09:41:27Z</time>
      </trkpt>
      <trkpt lat="47.80486" lon="-3.51621">
        <ele>7.73</ele>
        <time>2020-07-08T09:41:28Z</time>
      </trkpt>
      <trkpt lat="47.80485" lon="-3.51619">
        <ele>7.82</ele>
        <time>2020-07-08T09:41:29Z</time>
      </trkpt>
      <trkpt lat="47.80485" lon="-3.51619">
        <ele>7.85</ele>
        <time>2020-07-08T09:41:30Z</time>
      </trkpt>
      <trkpt lat="47.80485" lon="-3.51619">
        <ele>7.86</ele>
        <time>2020-07-08T09:41:31Z</time>
      </trkpt>
      <trkpt lat="47.80485" lon="-3.51619">
        <ele>7.86</ele>
        <time>2020-07-08T09:41:32Z</time>
      </trkpt>
      <trkpt lat="47.80485" lon="-3.51619">
        <ele>7.86</ele>
        <time>2020-07-08T09:41:33Z</time>
      </trkpt>
      <trkpt lat="47.80485" lon="-3.51619">
        <ele>7.86</ele>
        <time>2020-07-08T09:41:34Z</time>
      </trkpt>
      <trkpt lat="47.80485" lon="-3.51619">
        <ele>7.86</ele>
        <time>2020-07-08T09:41:35Z</time>
      </trkpt>
      <trkpt lat="47.80485" lon="-3.51619">
        <ele>7.86</ele>
        <time>2020-07-08T09:41:36Z</time>
      </trkpt>
      <trkpt lat="47.80485" lon="-3.51619">
        <ele>7.86</ele>
        <time>2020-07-08T09:41:37Z</time>
      </trkpt>
      <trkpt lat="47.80485" lon="-3.51619">
        <ele>7.86</ele>
        <time>2020-07-08T09:41:38Z</time>
      </trkpt>
      <trkpt lat="47.80485" lon="-3.51619">
        <ele>7.86</ele>
        <time>2020-07-08T09:41:39Z</time>
      </trkpt>
      <trkpt lat="47.80485" lon="-3.51619">
        <ele>7.86</ele>
        <time>2020-07-08T09:41:40Z</time>
      </trkpt>
      <trkpt lat="47.80485" lon="-3.51619">
        <ele>7.86</ele>
        <time>2020-07-08T09:41:41Z</time>
      </trkpt>
      <trkpt lat="47.80485" lon="-3.51619">
        <ele>7.86</ele>
        <time>2020-07-08T09:41:42Z</time>
      </trkpt>
      <trkpt lat="47.80485" lon="-3.51619">
        <ele>7.86</ele>
        <time>2020-07-08T09:41:43Z</time>
      </trkpt>
      <trkpt lat="47.80485" lon="-3.51619">
        <ele>7.86</ele>
        <time>2020-07-08T09:41:44Z</time>
      </trkpt>
      <trkpt lat="47.80485" lon="-3.51619">
        <ele>7.86</ele>
        <time>2020-07-08T09:41:45Z</time>
      </trkpt>
      <trkpt lat="47.80485" lon="-3.51619">
        <ele>7.86</ele>
        <time>2020-07-08T09:41:46Z</time>
      </trkpt>
      <trkpt lat="47.80485" lon="-3.51619">
        <ele>7.86</ele>
        <time>2020-07-08T09:41:47Z</time>
      </trkpt>
      <trkpt lat="47.80485" lon="-3.51619">
        <ele>7.86</ele>
        <time>2020-07-08T09:41:48Z</time>
      </trkpt>
      <trkpt lat="47.80485" lon="-3.51619">
        <ele>7.86</ele>
        <time>2020-07-08T09:41:49Z</time>
      </trkpt>
      <trkpt lat="47.80485" lon="-3.51619">
        <ele>7.86</ele>
        <time>2020-07-08T09:41:50Z</time>
      </trkpt>
      <trkpt lat="47.80485" lon="-3.51619">
        <ele>7.86</ele>
        <time>2020-07-08T09:41:51Z</time>
      </trkpt>
      <trkpt lat="47.80485" lon="-3.51619">
        <ele>7.86</ele>
        <time>2020-07-08T09:41:52Z</time>
      </trkpt>
      <trkpt lat="47.80485" lon="-3.51619">
        <ele>7.86</ele>
        <time>2020-07-08T09:41:53Z</time>
      </trkpt>
      <trkpt lat="47.80485" lon="-3.51619">
        <ele>7.86</ele>
        <time>2020-07-08T09:41:54Z</time>
      </trkpt>
      <trkpt lat="47.80485" lon="-3.51619">
        <ele>7.86</ele>
        <time>2020-07-08T09:41:55Z</time>
      </trkpt>
      <trkpt lat="47.80485" lon="-3.51619">
        <ele>7.86</ele>
        <time>2020-07-08T09:41:56Z</time>
      </trkpt>
      <trkpt lat="47.80485" lon="-3.51619">
        <ele>7.86</ele>
        <time>2020-07-08T09:41:57Z</time>
      </trkpt>
      <trkpt lat="47.80485" lon="-3.51619">
        <ele>7.86</ele>
        <time>2020-07-08T09:41:58Z</time>
      </trkpt>
      <trkpt lat="47.80485" lon="-3.51619">
        <ele>7.86</ele>
        <time>2020-07-08T09:41:59Z</time>
      </trkpt>
      <trkpt lat="47.80486" lon="-3.51618">
        <ele>7.97</ele>
        <time>2020-07-08T09:42:00Z</time>
      </trkpt>
      <trkpt lat="47.80489" lon="-3.51621">
        <ele>7.93</ele>
        <time>2020-07-08T09:42:01Z</time>
      </trkpt>
      <trkpt lat="47.80491" lon="-3.51623">
        <ele>7.84</ele>
        <time>2020-07-08T09:42:02Z</time>
      </trkpt>
      <trkpt lat="47.80492" lon="-3.51625">
        <ele>7.77</ele>
        <time>2020-07-08T09:42:03Z</time>
      </trkpt>
      <trkpt lat="47.80493" lon="-3.51626">
        <ele>7.69</ele>
        <time>2020-07-08T09:42:04Z</time>
      </trkpt>
      <trkpt lat="47.80495" lon="-3.51628">
        <ele>7.61</ele>
        <time>2020-07-08T09:42:05Z</time>
      </trkpt>
      <trkpt lat="47.80496" lon="-3.51629">
        <ele>7.58</ele>
        <time>2020-07-08T09:42:06Z</time>
      </trkpt>
      <trkpt lat="47.80497" lon="-3.5163">
        <ele>7.56</ele>
        <time>2020-07-08T09:42:07Z</time>
      </trkpt>
      <trkpt lat="47.80498" lon="-3.51631">
        <ele>7.52</ele>
        <time>2020-07-08T09:42:08Z</time>
      </trkpt>
      <trkpt lat="47.805" lon="-3.51632">
        <ele>7.5</ele>
        <time>2020-07-08T09:42:09Z</time>
      </trkpt>
      <trkpt lat="47.80501" lon="-3.51633">
        <ele>7.79</ele>
        <time>2020-07-08T09:42:10Z</time>
      </trkpt>
      <trkpt lat="47.80502" lon="-3.51635">
        <ele>8.14</ele>
        <time>2020-07-08T09:42:11Z</time>
      </trkpt>
      <trkpt lat="47.80503" lon="-3.51637">
        <ele>8.52</ele>
        <time>2020-07-08T09:42:12Z</time>
      </trkpt>
      <trkpt lat="47.80504" lon="-3.51639">
        <ele>8.82</ele>
        <time>2020-07-08T09:42:13Z</time>
      </trkpt>
      <trkpt lat="47.80504" lon="-3.51641">
        <ele>8.75</ele>
        <time>2020-07-08T09:42:14Z</time>
      </trkpt>
      <trkpt lat="47.80504" lon="-3.51643">
        <ele>8.55</ele>
        <time>2020-07-08T09:42:15Z</time>
      </trkpt>
      <trkpt lat="47.80504" lon="-3.51645">
        <ele>8.23</ele>
        <time>2020-07-08T09:42:16Z</time>
      </trkpt>
      <trkpt lat="47.80503" lon="-3.51647">
        <ele>7.97</ele>
        <time>2020-07-08T09:42:17Z</time>
      </trkpt>
      <trkpt lat="47.80503" lon="-3.51651">
        <ele>7.64</ele>
        <time>2020-07-08T09:42:18Z</time>
      </trkpt>
      <trkpt lat="47.80503" lon="-3.51654">
        <ele>7.37</ele>
        <time>2020-07-08T09:42:19Z</time>
      </trkpt>
      <trkpt lat="47.80505" lon="-3.51658">
        <ele>7.49</ele>
        <time>2020-07-08T09:42:20Z</time>
      </trkpt>
      <trkpt lat="47.80506" lon="-3.51661">
        <ele>7.67</ele>
        <time>2020-07-08T09:42:21Z</time>
      </trkpt>
      <trkpt lat="47.80507" lon="-3.51665">
        <ele>7.69</ele>
        <time>2020-07-08T09:42:22Z</time>
      </trkpt>
      <trkpt lat="47.80507" lon="-3.5167">
        <ele>7.47</ele>
        <time>2020-07-08T09:42:23Z</time>
      </trkpt>
      <trkpt lat="47.80509" lon="-3.51675">
        <ele>7.52</ele>
        <time>2020-07-08T09:42:24Z</time>
      </trkpt>
      <trkpt lat="47.80509" lon="-3.51681">
        <ele>7.39</ele>
        <time>2020-07-08T09:42:25Z</time>
      </trkpt>
      <trkpt lat="47.8051" lon="-3.51687">
        <ele>7.09</ele>
        <time>2020-07-08T09:42:26Z</time>
      </trkpt>
      <trkpt lat="47.80509" lon="-3.51692">
        <ele>6.61</ele>
        <time>2020-07-08T09:42:27Z</time>
      </trkpt>
      <trkpt lat="47.80509" lon="-3.51696">
        <ele>6.34</ele>
        <time>2020-07-08T09:42:28Z</time>
      </trkpt>
      <trkpt lat="47.80509" lon="-3.517">
        <ele>6.07</ele>
        <time>2020-07-08T09:42:29Z</time>
      </trkpt>
      <trkpt lat="47.80509" lon="-3.51704">
        <ele>5.84</ele>
        <time>2020-07-08T09:42:30Z</time>
      </trkpt>
      <trkpt lat="47.80509" lon="-3.5171">
        <ele>5.47</ele>
        <time>2020-07-08T09:42:31Z</time>
      </trkpt>
      <trkpt lat="47.80509" lon="-3.51715">
        <ele>5.17</ele>
        <time>2020-07-08T09:42:32Z</time>
      </trkpt>
      <trkpt lat="47.80509" lon="-3.5172">
        <ele>4.91</ele>
        <time>2020-07-08T09:42:33Z</time>
      </trkpt>
      <trkpt lat="47.80509" lon="-3.51723">
        <ele>4.71</ele>
        <time>2020-07-08T09:42:34Z</time>
      </trkpt>
      <trkpt lat="47.8051" lon="-3.51726">
        <ele>4.63</ele>
        <time>2020-07-08T09:42:35Z</time>
      </trkpt>
      <trkpt lat="47.80513" lon="-3.5173">
        <ele>4.74</ele>
        <time>2020-07-08T09:42:36Z</time>
      </trkpt>
      <trkpt lat="47.80513" lon="-3.51736">
        <ele>4.49</ele>
        <time>2020-07-08T09:42:37Z</time>
      </trkpt>
      <trkpt lat="47.80513" lon="-3.5174">
        <ele>4.29</ele>
        <time>2020-07-08T09:42:38Z</time>
      </trkpt>
      <trkpt lat="47.80515" lon="-3.51744">
        <ele>4.13</ele>
        <time>2020-07-08T09:42:39Z</time>
      </trkpt>
      <trkpt lat="47.80515" lon="-3.51747">
        <ele>3.94</ele>
        <time>2020-07-08T09:42:40Z</time>
      </trkpt>
      <trkpt lat="47.80516" lon="-3.51751">
        <ele>3.76</ele>
        <time>2020-07-08T09:42:41Z</time>
      </trkpt>
      <trkpt lat="47.80517" lon="-3.51754">
        <ele>3.67</ele>
        <time>2020-07-08T09:42:42Z</time>
      </trkpt>
      <trkpt lat="47.80517" lon="-3.51757">
        <ele>3.52</ele>
        <time>2020-07-08T09:42:43Z</time>
      </trkpt>
      <trkpt lat="47.80518" lon="-3.51761">
        <ele>3.36</ele>
        <time>2020-07-08T09:42:44Z</time>
      </trkpt>
      <trkpt lat="47.80521" lon="-3.51765">
        <ele>3.33</ele>
        <time>2020-07-08T09:42:45Z</time>
      </trkpt>
      <trkpt lat="47.80523" lon="-3.51768">
        <ele>3.29</ele>
        <time>2020-07-08T09:42:46Z</time>
      </trkpt>
      <trkpt lat="47.80524" lon="-3.51771">
        <ele>3.2</ele>
        <time>2020-07-08T09:42:47Z</time>
      </trkpt>
      <trkpt lat="47.80526" lon="-3.51775">
        <ele>3.09</ele>
        <time>2020-07-08T09:42:48Z</time>
      </trkpt>
      <trkpt lat="47.80527" lon="-3.51776">
        <ele>3.07</ele>
        <time>2020-07-08T09:42:49Z</time>
      </trkpt>
      <trkpt lat="47.80528" lon="-3.5178">
        <ele>2.97</ele>
        <time>2020-07-08T09:42:50Z</time>
      </trkpt>
      <trkpt lat="47.80529" lon="-3.51784">
        <ele>3.03</ele>
        <time>2020-07-08T09:42:51Z</time>
      </trkpt>
      <trkpt lat="47.8053" lon="-3.51787">
        <ele>3.21</ele>
        <time>2020-07-08T09:42:52Z</time>
      </trkpt>
      <trkpt lat="47.8053" lon="-3.51789">
        <ele>3.31</ele>
        <time>2020-07-08T09:42:53Z</time>
      </trkpt>
      <trkpt lat="47.8053" lon="-3.51793">
        <ele>3.15</ele>
        <time>2020-07-08T09:42:54Z</time>
      </trkpt>
      <trkpt lat="47.80529" lon="-3.51799">
        <ele>2.81</ele>
        <time>2020-07-08T09:42:55Z</time>
      </trkpt>
      <trkpt lat="47.8053" lon="-3.51802">
        <ele>2.7</ele>
        <time>2020-07-08T09:42:56Z</time>
      </trkpt>
      <trkpt lat="47.8053" lon="-3.51806">
        <ele>2.67</ele>
        <time>2020-07-08T09:42:57Z</time>
      </trkpt>
      <trkpt lat="47.80531" lon="-3.5181">
        <ele>2.65</ele>
        <time>2020-07-08T09:42:58Z</time>
      </trkpt>
      <trkpt lat="47.80534" lon="-3.51816">
        <ele>2.96</ele>
        <time>2020-07-08T09:42:59Z</time>
      </trkpt>
      <trkpt lat="47.80535" lon="-3.51819">
        <ele>3.05</ele>
        <time>2020-07-08T09:43:00Z</time>
      </trkpt>
      <trkpt lat="47.80535" lon="-3.51821">
        <ele>3.09</ele>
        <time>2020-07-08T09:43:01Z</time>
      </trkpt>
      <trkpt lat="47.80535" lon="-3.51824">
        <ele>3</ele>
        <time>2020-07-08T09:43:02Z</time>
      </trkpt>
      <trkpt lat="47.80535" lon="-3.51828">
        <ele>2.85</ele>
        <time>2020-07-08T09:43:03Z</time>
      </trkpt>
      <trkpt lat="47.80534" lon="-3.51833">
        <ele>2.55</ele>
        <time>2020-07-08T09:43:04Z</time>
      </trkpt>
      <trkpt lat="47.80533" lon="-3.51839">
        <ele>2.33</ele>
        <time>2020-07-08T09:43:05Z</time>
      </trkpt>
      <trkpt lat="47.80534" lon="-3.51842">
        <ele>2.31</ele>
        <time>2020-07-08T09:43:06Z</time>
      </trkpt>
      <trkpt lat="47.80534" lon="-3.51846">
        <ele>2.28</ele>
        <time>2020-07-08T09:43:07Z</time>
      </trkpt>
      <trkpt lat="47.80534" lon="-3.51849">
        <ele>2.33</ele>
        <time>2020-07-08T09:43:08Z</time>
      </trkpt>
      <trkpt lat="47.80534" lon="-3.51851">
        <ele>2.34</ele>
        <time>2020-07-08T09:43:09Z</time>
      </trkpt>
      <trkpt lat="47.80533" lon="-3.51853">
        <ele>2.27</ele>
        <time>2020-07-08T09:43:10Z</time>
      </trkpt>
      <trkpt lat="47.80533" lon="-3.51855">
        <ele>2.25</ele>
        <time>2020-07-08T09:43:11Z</time>
      </trkpt>
      <trkpt lat="47.80533" lon="-3.51858">
        <ele>2.19</ele>
        <time>2020-07-08T09:43:12Z</time>
      </trkpt>
      <trkpt lat="47.80533" lon="-3.51861">
        <ele>2.12</ele>
        <time>2020-07-08T09:43:13Z</time>
      </trkpt>
      <trkpt lat="47.80532" lon="-3.51864">
        <ele>1.93</ele>
        <time>2020-07-08T09:43:14Z</time>
      </trkpt>
      <trkpt lat="47.8053" lon="-3.51867">
        <ele>1.68</ele>
        <time>2020-07-08T09:43:15Z</time>
      </trkpt>
      <trkpt lat="47.8053" lon="-3.5187">
        <ele>1.64</ele>
        <time>2020-07-08T09:43:16Z</time>
      </trkpt>
      <trkpt lat="47.8053" lon="-3.51873">
        <ele>1.63</ele>
        <time>2020-07-08T09:43:17Z</time>
      </trkpt>
      <trkpt lat="47.8053" lon="-3.51876">
        <ele>1.61</ele>
        <time>2020-07-08T09:43:18Z</time>
      </trkpt>
      <trkpt lat="47.80531" lon="-3.51881">
        <ele>1.73</ele>
        <time>2020-07-08T09:43:19Z</time>
      </trkpt>
      <trkpt lat="47.80532" lon="-3.51882">
        <ele>1.85</ele>
        <time>2020-07-08T09:43:20Z</time>
      </trkpt>
      <trkpt lat="47.80532" lon="-3.51883">
        <ele>1.95</ele>
        <time>2020-07-08T09:43:21Z</time>
      </trkpt>
      <trkpt lat="47.80532" lon="-3.51883">
        <ele>1.98</ele>
        <time>2020-07-08T09:43:22Z</time>
      </trkpt>
      <trkpt lat="47.80532" lon="-3.51883">
        <ele>1.99</ele>
        <time>2020-07-08T09:43:23Z</time>
      </trkpt>
      <trkpt lat="47.80532" lon="-3.51883">
        <ele>1.99</ele>
        <time>2020-07-08T09:43:24Z</time>
      </trkpt>
      <trkpt lat="47.80532" lon="-3.51883">
        <ele>1.99</ele>
        <time>2020-07-08T09:43:25Z</time>
      </trkpt>
      <trkpt lat="47.80532" lon="-3.51883">
        <ele>1.99</ele>
        <time>2020-07-08T09:43:26Z</time>
      </trkpt>
      <trkpt lat="47.80532" lon="-3.51883">
        <ele>1.99</ele>
        <time>2020-07-08T09:43:27Z</time>
      </trkpt>
      <trkpt lat="47.80532" lon="-3.51883">
        <ele>1.99</ele>
        <time>2020-07-08T09:43:28Z</time>
      </trkpt>
      <trkpt lat="47.80532" lon="-3.51883">
        <ele>1.99</ele>
        <time>2020-07-08T09:43:29Z</time>
      </trkpt>
      <trkpt lat="47.80532" lon="-3.51883">
        <ele>1.99</ele>
        <time>2020-07-08T09:43:30Z</time>
      </trkpt>
      <trkpt lat="47.80532" lon="-3.51883">
        <ele>1.99</ele>
        <time>2020-07-08T09:43:31Z</time>
      </trkpt>
      <trkpt lat="47.80532" lon="-3.51883">
        <ele>1.99</ele>
        <time>2020-07-08T09:43:32Z</time>
      </trkpt>
      <trkpt lat="47.80532" lon="-3.51883">
        <ele>1.99</ele>
        <time>2020-07-08T09:43:33Z</time>
      </trkpt>
      <trkpt lat="47.80532" lon="-3.51883">
        <ele>1.99</ele>
        <time>2020-07-08T09:43:34Z</time>
      </trkpt>
      <trkpt lat="47.80532" lon="-3.51883">
        <ele>1.99</ele>
        <time>2020-07-08T09:43:35Z</time>
      </trkpt>
      <trkpt lat="47.80532" lon="-3.51883">
        <ele>1.99</ele>
        <time>2020-07-08T09:43:36Z</time>
      </trkpt>
      <trkpt lat="47.80532" lon="-3.51883">
        <ele>1.99</ele>
        <time>2020-07-08T09:43:37Z</time>
      </trkpt>
      <trkpt lat="47.80532" lon="-3.51883">
        <ele>1.99</ele>
        <time>2020-07-08T09:43:38Z</time>
      </trkpt>
      <trkpt lat="47.80532" lon="-3.51883">
        <ele>1.99</ele>
        <time>2020-07-08T09:43:39Z</time>
      </trkpt>
      <trkpt lat="47.80532" lon="-3.51883">
        <ele>1.99</ele>
        <time>2020-07-08T09:43:40Z</time>
      </trkpt>
      <trkpt lat="47.80532" lon="-3.51883">
        <ele>1.99</ele>
        <time>2020-07-08T09:43:41Z</time>
      </trkpt>
      <trkpt lat="47.80532" lon="-3.51883">
        <ele>1.99</ele>
        <time>2020-07-08T09:43:42Z</time>
      </trkpt>
      <trkpt lat="47.80532" lon="-3.51883">
        <ele>1.99</ele>
        <time>2020-07-08T09:43:43Z</time>
      </trkpt>
      <trkpt lat="47.80538" lon="-3.51893">
        <ele>3.04</ele>
        <time>2020-07-08T09:43:44Z</time>
      </trkpt>
      <trkpt lat="47.80538" lon="-3.51893">
        <ele>3.42</ele>
        <time>2020-07-08T09:43:45Z</time>
      </trkpt>
      <trkpt lat="47.80538" lon="-3.51894">
        <ele>3.56</ele>
        <time>2020-07-08T09:43:46Z</time>
      </trkpt>
      <trkpt lat="47.80539" lon="-3.51895">
        <ele>3.72</ele>
        <time>2020-07-08T09:43:47Z</time>
      </trkpt>
      <trkpt lat="47.80539" lon="-3.51895">
        <ele>3.77</ele>
        <time>2020-07-08T09:43:48Z</time>
      </trkpt>
      <trkpt lat="47.80539" lon="-3.51895">
        <ele>3.78</ele>
        <time>2020-07-08T09:43:49Z</time>
      </trkpt>
      <trkpt lat="47.80539" lon="-3.51895">
        <ele>3.78</ele>
        <time>2020-07-08T09:43:50Z</time>
      </trkpt>
      <trkpt lat="47.80539" lon="-3.51895">
        <ele>3.79</ele>
        <time>2020-07-08T09:43:51Z</time>
      </trkpt>
      <trkpt lat="47.80539" lon="-3.51895">
        <ele>3.79</ele>
        <time>2020-07-08T09:43:52Z</time>
      </trkpt>
      <trkpt lat="47.80539" lon="-3.51895">
        <ele>3.79</ele>
        <time>2020-07-08T09:43:53Z</time>
      </trkpt>
      <trkpt lat="47.80539" lon="-3.51895">
        <ele>3.79</ele>
        <time>2020-07-08T09:43:54Z</time>
      </trkpt>
      <trkpt lat="47.80539" lon="-3.51895">
        <ele>3.79</ele>
        <time>2020-07-08T09:43:55Z</time>
      </trkpt>
      <trkpt lat="47.80539" lon="-3.51895">
        <ele>3.79</ele>
        <time>2020-07-08T09:43:56Z</time>
      </trkpt>
      <trkpt lat="47.80539" lon="-3.51895">
        <ele>3.79</ele>
        <time>2020-07-08T09:43:57Z</time>
      </trkpt>
      <trkpt lat="47.80539" lon="-3.51895">
        <ele>3.79</ele>
        <time>2020-07-08T09:43:58Z</time>
      </trkpt>
      <trkpt lat="47.80539" lon="-3.51895">
        <ele>3.79</ele>
        <time>2020-07-08T09:43:59Z</time>
      </trkpt>
      <trkpt lat="47.80539" lon="-3.51895">
        <ele>3.79</ele>
        <time>2020-07-08T09:44:00Z</time>
      </trkpt>
      <trkpt lat="47.80539" lon="-3.51895">
        <ele>3.79</ele>
        <time>2020-07-08T09:44:01Z</time>
      </trkpt>
      <trkpt lat="47.80539" lon="-3.51895">
        <ele>3.79</ele>
        <time>2020-07-08T09:44:02Z</time>
      </trkpt>
      <trkpt lat="47.80539" lon="-3.51895">
        <ele>3.79</ele>
        <time>2020-07-08T09:44:03Z</time>
      </trkpt>
      <trkpt lat="47.80539" lon="-3.51895">
        <ele>3.79</ele>
        <time>2020-07-08T09:44:04Z</time>
      </trkpt>
      <trkpt lat="47.80539" lon="-3.51895">
        <ele>3.79</ele>
        <time>2020-07-08T09:44:05Z</time>
      </trkpt>
      <trkpt lat="47.80539" lon="-3.51895">
        <ele>3.79</ele>
        <time>2020-07-08T09:44:06Z</time>
      </trkpt>
      <trkpt lat="47.80541" lon="-3.51908">
        <ele>4.11</ele>
        <time>2020-07-08T09:44:07Z</time>
      </trkpt>
      <trkpt lat="47.80542" lon="-3.51908">
        <ele>4.44</ele>
        <time>2020-07-08T09:44:08Z</time>
      </trkpt>
      <trkpt lat="47.80543" lon="-3.51908">
        <ele>4.75</ele>
        <time>2020-07-08T09:44:09Z</time>
      </trkpt>
      <trkpt lat="47.80543" lon="-3.51909">
        <ele>4.9</ele>
        <time>2020-07-08T09:44:10Z</time>
      </trkpt>
      <trkpt lat="47.80543" lon="-3.51909">
        <ele>4.94</ele>
        <time>2020-07-08T09:44:11Z</time>
      </trkpt>
      <trkpt lat="47.80543" lon="-3.51909">
        <ele>4.96</ele>
        <time>2020-07-08T09:44:12Z</time>
      </trkpt>
      <trkpt lat="47.80543" lon="-3.51909">
        <ele>4.96</ele>
        <time>2020-07-08T09:44:13Z</time>
      </trkpt>
      <trkpt lat="47.80543" lon="-3.51909">
        <ele>4.96</ele>
        <time>2020-07-08T09:44:14Z</time>
      </trkpt>
      <trkpt lat="47.80543" lon="-3.51909">
        <ele>4.96</ele>
        <time>2020-07-08T09:44:15Z</time>
      </trkpt>
      <trkpt lat="47.80543" lon="-3.51909">
        <ele>4.96</ele>
        <time>2020-07-08T09:44:16Z</time>
      </trkpt>
      <trkpt lat="47.80543" lon="-3.51909">
        <ele>4.96</ele>
        <time>2020-07-08T09:44:17Z</time>
      </trkpt>
      <trkpt lat="47.80543" lon="-3.51909">
        <ele>4.96</ele>
        <time>2020-07-08T09:44:18Z</time>
      </trkpt>
      <trkpt lat="47.80543" lon="-3.51909">
        <ele>4.96</ele>
        <time>2020-07-08T09:44:19Z</time>
      </trkpt>
      <trkpt lat="47.80543" lon="-3.51909">
        <ele>4.96</ele>
        <time>2020-07-08T09:44:20Z</time>
      </trkpt>
      <trkpt lat="47.80543" lon="-3.51909">
        <ele>4.96</ele>
        <time>2020-07-08T09:44:21Z</time>
      </trkpt>
      <trkpt lat="47.80543" lon="-3.51909">
        <ele>4.96</ele>
        <time>2020-07-08T09:44:22Z</time>
      </trkpt>
      <trkpt lat="47.80543" lon="-3.51909">
        <ele>4.96</ele>
        <time>2020-07-08T09:44:23Z</time>
      </trkpt>
      <trkpt lat="47.80543" lon="-3.51909">
        <ele>4.96</ele>
        <time>2020-07-08T09:44:24Z</time>
      </trkpt>
      <trkpt lat="47.80543" lon="-3.51909">
        <ele>4.96</ele>
        <time>2020-07-08T09:44:25Z</time>
      </trkpt>
      <trkpt lat="47.80543" lon="-3.51909">
        <ele>4.96</ele>
        <time>2020-07-08T09:44:26Z</time>
      </trkpt>
      <trkpt lat="47.80543" lon="-3.51909">
        <ele>4.96</ele>
        <time>2020-07-08T09:44:27Z</time>
      </trkpt>
      <trkpt lat="47.80543" lon="-3.51909">
        <ele>4.96</ele>
        <time>2020-07-08T09:44:28Z</time>
      </trkpt>
      <trkpt lat="47.80543" lon="-3.51909">
        <ele>4.96</ele>
        <time>2020-07-08T09:44:29Z</time>
      </trkpt>
      <trkpt lat="47.80543" lon="-3.51909">
        <ele>4.96</ele>
        <time>2020-07-08T09:44:30Z</time>
      </trkpt>
      <trkpt lat="47.80543" lon="-3.51909">
        <ele>4.96</ele>
        <time>2020-07-08T09:44:31Z</time>
      </trkpt>
      <trkpt lat="47.80543" lon="-3.51909">
        <ele>4.96</ele>
        <time>2020-07-08T09:44:32Z</time>
      </trkpt>
      <trkpt lat="47.80543" lon="-3.51909">
        <ele>4.96</ele>
        <time>2020-07-08T09:44:33Z</time>
      </trkpt>
      <trkpt lat="47.80543" lon="-3.51909">
        <ele>4.96</ele>
        <time>2020-07-08T09:44:34Z</time>
      </trkpt>
      <trkpt lat="47.80543" lon="-3.51909">
        <ele>4.96</ele>
        <time>2020-07-08T09:44:35Z</time>
      </trkpt>
      <trkpt lat="47.80543" lon="-3.51909">
        <ele>4.96</ele>
        <time>2020-07-08T09:44:36Z</time>
      </trkpt>
      <trkpt lat="47.80545" lon="-3.5192">
        <ele>5.03</ele>
        <time>2020-07-08T09:44:37Z</time>
      </trkpt>
      <trkpt lat="47.80546" lon="-3.51923">
        <ele>5.15</ele>
        <time>2020-07-08T09:44:38Z</time>
      </trkpt>
      <trkpt lat="47.80545" lon="-3.51926">
        <ele>4.97</ele>
        <time>2020-07-08T09:44:39Z</time>
      </trkpt>
      <trkpt lat="47.80545" lon="-3.51929">
        <ele>4.87</ele>
        <time>2020-07-08T09:44:40Z</time>
      </trkpt>
      <trkpt lat="47.80545" lon="-3.51932">
        <ele>4.77</ele>
        <time>2020-07-08T09:44:41Z</time>
      </trkpt>
      <trkpt lat="47.80546" lon="-3.51936">
        <ele>4.7</ele>
        <time>2020-07-08T09:44:42Z</time>
      </trkpt>
      <trkpt lat="47.80547" lon="-3.51938">
        <ele>4.72</ele>
        <time>2020-07-08T09:44:43Z</time>
      </trkpt>
      <trkpt lat="47.80547" lon="-3.51943">
        <ele>4.57</ele>
        <time>2020-07-08T09:44:44Z</time>
      </trkpt>
      <trkpt lat="47.80547" lon="-3.51946">
        <ele>4.48</ele>
        <time>2020-07-08T09:44:45Z</time>
      </trkpt>
      <trkpt lat="47.80549" lon="-3.51948">
        <ele>4.55</ele>
        <time>2020-07-08T09:44:46Z</time>
      </trkpt>
      <trkpt lat="47.80548" lon="-3.5195">
        <ele>4.47</ele>
        <time>2020-07-08T09:44:47Z</time>
      </trkpt>
      <trkpt lat="47.80548" lon="-3.51951">
        <ele>4.43</ele>
        <time>2020-07-08T09:44:48Z</time>
      </trkpt>
      <trkpt lat="47.80549" lon="-3.51951">
        <ele>4.55</ele>
        <time>2020-07-08T09:44:49Z</time>
      </trkpt>
      <trkpt lat="47.80549" lon="-3.51951">
        <ele>4.58</ele>
        <time>2020-07-08T09:44:50Z</time>
      </trkpt>
      <trkpt lat="47.80549" lon="-3.51957">
        <ele>4.32</ele>
        <time>2020-07-08T09:44:51Z</time>
      </trkpt>
      <trkpt lat="47.80549" lon="-3.51963">
        <ele>4.05</ele>
        <time>2020-07-08T09:44:52Z</time>
      </trkpt>
      <trkpt lat="47.80549" lon="-3.51967">
        <ele>3.85</ele>
        <time>2020-07-08T09:44:53Z</time>
      </trkpt>
      <trkpt lat="47.80549" lon="-3.5197">
        <ele>3.74</ele>
        <time>2020-07-08T09:44:54Z</time>
      </trkpt>
      <trkpt lat="47.80549" lon="-3.51973">
        <ele>3.62</ele>
        <time>2020-07-08T09:44:55Z</time>
      </trkpt>
      <trkpt lat="47.8055" lon="-3.51976">
        <ele>3.63</ele>
        <time>2020-07-08T09:44:56Z</time>
      </trkpt>
      <trkpt lat="47.80552" lon="-3.5198">
        <ele>3.73</ele>
        <time>2020-07-08T09:44:57Z</time>
      </trkpt>
      <trkpt lat="47.80553" lon="-3.51983">
        <ele>3.79</ele>
        <time>2020-07-08T09:44:58Z</time>
      </trkpt>
      <trkpt lat="47.80554" lon="-3.51986">
        <ele>3.87</ele>
        <time>2020-07-08T09:44:59Z</time>
      </trkpt>
      <trkpt lat="47.80555" lon="-3.51989">
        <ele>3.91</ele>
        <time>2020-07-08T09:45:00Z</time>
      </trkpt>
      <trkpt lat="47.80555" lon="-3.51991">
        <ele>3.92</ele>
        <time>2020-07-08T09:45:01Z</time>
      </trkpt>
      <trkpt lat="47.80555" lon="-3.51993">
        <ele>3.92</ele>
        <time>2020-07-08T09:45:02Z</time>
      </trkpt>
      <trkpt lat="47.80554" lon="-3.51997">
        <ele>3.9</ele>
        <time>2020-07-08T09:45:03Z</time>
      </trkpt>
      <trkpt lat="47.80553" lon="-3.52001">
        <ele>3.86</ele>
        <time>2020-07-08T09:45:04Z</time>
      </trkpt>
      <trkpt lat="47.80553" lon="-3.52005">
        <ele>3.82</ele>
        <time>2020-07-08T09:45:05Z</time>
      </trkpt>
      <trkpt lat="47.80552" lon="-3.52009">
        <ele>3.78</ele>
        <time>2020-07-08T09:45:06Z</time>
      </trkpt>
      <trkpt lat="47.80552" lon="-3.52016">
        <ele>3.77</ele>
        <time>2020-07-08T09:45:07Z</time>
      </trkpt>
      <trkpt lat="47.80553" lon="-3.52023">
        <ele>3.79</ele>
        <time>2020-07-08T09:45:08Z</time>
      </trkpt>
      <trkpt lat="47.80553" lon="-3.52031">
        <ele>3.8</ele>
        <time>2020-07-08T09:45:09Z</time>
      </trkpt>
      <trkpt lat="47.80553" lon="-3.52035">
        <ele>3.78</ele>
        <time>2020-07-08T09:45:10Z</time>
      </trkpt>
      <trkpt lat="47.80552" lon="-3.52039">
        <ele>3.75</ele>
        <time>2020-07-08T09:45:11Z</time>
      </trkpt>
      <trkpt lat="47.80552" lon="-3.52042">
        <ele>3.71</ele>
        <time>2020-07-08T09:45:12Z</time>
      </trkpt>
      <trkpt lat="47.80552" lon="-3.52044">
        <ele>3.68</ele>
        <time>2020-07-08T09:45:13Z</time>
      </trkpt>
      <trkpt lat="47.80551" lon="-3.52049">
        <ele>3.58</ele>
        <time>2020-07-08T09:45:14Z</time>
      </trkpt>
      <trkpt lat="47.8055" lon="-3.52053">
        <ele>3.46</ele>
        <time>2020-07-08T09:45:15Z</time>
      </trkpt>
      <trkpt lat="47.80549" lon="-3.52057">
        <ele>3.31</ele>
        <time>2020-07-08T09:45:16Z</time>
      </trkpt>
      <trkpt lat="47.80548" lon="-3.52061">
        <ele>3.17</ele>
        <time>2020-07-08T09:45:17Z</time>
      </trkpt>
      <trkpt lat="47.80547" lon="-3.52065">
        <ele>2.96</ele>
        <time>2020-07-08T09:45:18Z</time>
      </trkpt>
      <trkpt lat="47.80545" lon="-3.5207">
        <ele>2.65</ele>
        <time>2020-07-08T09:45:19Z</time>
      </trkpt>
      <trkpt lat="47.80545" lon="-3.52074">
        <ele>2.43</ele>
        <time>2020-07-08T09:45:20Z</time>
      </trkpt>
      <trkpt lat="47.80544" lon="-3.52078">
        <ele>2.23</ele>
        <time>2020-07-08T09:45:21Z</time>
      </trkpt>
      <trkpt lat="47.80543" lon="-3.52082">
        <ele>1.92</ele>
        <time>2020-07-08T09:45:22Z</time>
      </trkpt>
      <trkpt lat="47.80541" lon="-3.52085">
        <ele>1.59</ele>
        <time>2020-07-08T09:45:23Z</time>
      </trkpt>
      <trkpt lat="47.80538" lon="-3.52089">
        <ele>1.27</ele>
        <time>2020-07-08T09:45:24Z</time>
      </trkpt>
      <trkpt lat="47.80535" lon="-3.52094">
        <ele>1.01</ele>
        <time>2020-07-08T09:45:25Z</time>
      </trkpt>
      <trkpt lat="47.80532" lon="-3.52099">
        <ele>0.64</ele>
        <time>2020-07-08T09:45:26Z</time>
      </trkpt>
      <trkpt lat="47.80531" lon="-3.52102">
        <ele>0.48</ele>
        <time>2020-07-08T09:45:27Z</time>
      </trkpt>
      <trkpt lat="47.8053" lon="-3.52105">
        <ele>0.36</ele>
        <time>2020-07-08T09:45:28Z</time>
      </trkpt>
      <trkpt lat="47.80529" lon="-3.52107">
        <ele>0.22</ele>
        <time>2020-07-08T09:45:29Z</time>
      </trkpt>
      <trkpt lat="47.80527" lon="-3.5211">
        <ele>0.02</ele>
        <time>2020-07-08T09:45:30Z</time>
      </trkpt>
      <trkpt lat="47.80526" lon="-3.52111">
        <ele>-0.03</ele>
        <time>2020-07-08T09:45:31Z</time>
      </trkpt>
      <trkpt lat="47.80527" lon="-3.52113">
        <ele>0.04</ele>
        <time>2020-07-08T09:45:32Z</time>
      </trkpt>
      <trkpt lat="47.80527" lon="-3.52114">
        <ele>0.1</ele>
        <time>2020-07-08T09:45:33Z</time>
      </trkpt>
      <trkpt lat="47.80527" lon="-3.52114">
        <ele>0.16</ele>
        <time>2020-07-08T09:45:34Z</time>
      </trkpt>
      <trkpt lat="47.80527" lon="-3.52114">
        <ele>0.17</ele>
        <time>2020-07-08T09:45:35Z</time>
      </trkpt>
      <trkpt lat="47.80527" lon="-3.52114">
        <ele>0.18</ele>
        <time>2020-07-08T09:45:36Z</time>
      </trkpt>
      <trkpt lat="47.80527" lon="-3.52114">
        <ele>0.18</ele>
        <time>2020-07-08T09:45:37Z</time>
      </trkpt>
      <trkpt lat="47.80527" lon="-3.52114">
        <ele>0.18</ele>
        <time>2020-07-08T09:45:38Z</time>
      </trkpt>
      <trkpt lat="47.80527" lon="-3.52114">
        <ele>0.18</ele>
        <time>2020-07-08T09:45:39Z</time>
      </trkpt>
      <trkpt lat="47.80527" lon="-3.52114">
        <ele>0.18</ele>
        <time>2020-07-08T09:45:40Z</time>
      </trkpt>
      <trkpt lat="47.80527" lon="-3.52114">
        <ele>0.18</ele>
        <time>2020-07-08T09:45:41Z</time>
      </trkpt>
      <trkpt lat="47.80527" lon="-3.52114">
        <ele>0.18</ele>
        <time>2020-07-08T09:45:42Z</time>
      </trkpt>
      <trkpt lat="47.80527" lon="-3.52114">
        <ele>0.18</ele>
        <time>2020-07-08T09:45:43Z</time>
      </trkpt>
      <trkpt lat="47.80527" lon="-3.52114">
        <ele>0.18</ele>
        <time>2020-07-08T09:45:44Z</time>
      </trkpt>
      <trkpt lat="47.80527" lon="-3.52114">
        <ele>0.18</ele>
        <time>2020-07-08T09:45:45Z</time>
      </trkpt>
      <trkpt lat="47.80527" lon="-3.52114">
        <ele>0.18</ele>
        <time>2020-07-08T09:45:46Z</time>
      </trkpt>
      <trkpt lat="47.80527" lon="-3.52114">
        <ele>0.18</ele>
        <time>2020-07-08T09:45:47Z</time>
      </trkpt>
      <trkpt lat="47.80527" lon="-3.52114">
        <ele>0.18</ele>
        <time>2020-07-08T09:45:48Z</time>
      </trkpt>
      <trkpt lat="47.8053" lon="-3.52127">
        <ele>1.33</ele>
        <time>2020-07-08T09:45:49Z</time>
      </trkpt>
      <trkpt lat="47.8053" lon="-3.52127">
        <ele>1.6</ele>
        <time>2020-07-08T09:45:50Z</time>
      </trkpt>
      <trkpt lat="47.8053" lon="-3.52127">
        <ele>1.68</ele>
        <time>2020-07-08T09:45:51Z</time>
      </trkpt>
      <trkpt lat="47.8053" lon="-3.52127">
        <ele>1.74</ele>
        <time>2020-07-08T09:45:52Z</time>
      </trkpt>
      <trkpt lat="47.8053" lon="-3.52127">
        <ele>1.76</ele>
        <time>2020-07-08T09:45:53Z</time>
      </trkpt>
      <trkpt lat="47.8053" lon="-3.52127">
        <ele>1.77</ele>
        <time>2020-07-08T09:45:54Z</time>
      </trkpt>
      <trkpt lat="47.8053" lon="-3.52127">
        <ele>1.77</ele>
        <time>2020-07-08T09:45:55Z</time>
      </trkpt>
      <trkpt lat="47.80533" lon="-3.52133">
        <ele>2.77</ele>
        <time>2020-07-08T09:45:56Z</time>
      </trkpt>
      <trkpt lat="47.80535" lon="-3.52136">
        <ele>3.62</ele>
        <time>2020-07-08T09:45:57Z</time>
      </trkpt>
      <trkpt lat="47.80536" lon="-3.52138">
        <ele>4.29</ele>
        <time>2020-07-08T09:45:58Z</time>
      </trkpt>
      <trkpt lat="47.80537" lon="-3.5214">
        <ele>4.88</ele>
        <time>2020-07-08T09:45:59Z</time>
      </trkpt>
      <trkpt lat="47.80539" lon="-3.52142">
        <ele>5.48</ele>
        <time>2020-07-08T09:46:00Z</time>
      </trkpt>
      <trkpt lat="47.8054" lon="-3.52144">
        <ele>6.02</ele>
        <time>2020-07-08T09:46:01Z</time>
      </trkpt>
      <trkpt lat="47.80541" lon="-3.52146">
        <ele>6.56</ele>
        <time>2020-07-08T09:46:02Z</time>
      </trkpt>
      <trkpt lat="47.80542" lon="-3.52148">
        <ele>7.12</ele>
        <time>2020-07-08T09:46:03Z</time>
      </trkpt>
      <trkpt lat="47.80544" lon="-3.52149">
        <ele>7.73</ele>
        <time>2020-07-08T09:46:04Z</time>
      </trkpt>
      <trkpt lat="47.80546" lon="-3.5215">
        <ele>8.4</ele>
        <time>2020-07-08T09:46:05Z</time>
      </trkpt>
      <trkpt lat="47.80548" lon="-3.52151">
        <ele>9.03</ele>
        <time>2020-07-08T09:46:06Z</time>
      </trkpt>
      <trkpt lat="47.80549" lon="-3.52152">
        <ele>9.6</ele>
        <time>2020-07-08T09:46:07Z</time>
      </trkpt>
      <trkpt lat="47.80551" lon="-3.52152">
        <ele>10.13</ele>
        <time>2020-07-08T09:46:08Z</time>
      </trkpt>
      <trkpt lat="47.80552" lon="-3.52152">
        <ele>10.71</ele>
        <time>2020-07-08T09:46:09Z</time>
      </trkpt>
      <trkpt lat="47.80555" lon="-3.52152">
        <ele>11.36</ele>
        <time>2020-07-08T09:46:10Z</time>
      </trkpt>
      <trkpt lat="47.80556" lon="-3.52152">
        <ele>11.94</ele>
        <time>2020-07-08T09:46:11Z</time>
      </trkpt>
      <trkpt lat="47.80558" lon="-3.52153">
        <ele>12.39</ele>
        <time>2020-07-08T09:46:12Z</time>
      </trkpt>
      <trkpt lat="47.80559" lon="-3.52153">
        <ele>12.7</ele>
        <time>2020-07-08T09:46:13Z</time>
      </trkpt>
      <trkpt lat="47.80559" lon="-3.52153">
        <ele>12.86</ele>
        <time>2020-07-08T09:46:14Z</time>
      </trkpt>
      <trkpt lat="47.8056" lon="-3.52153">
        <ele>13.01</ele>
        <time>2020-07-08T09:46:15Z</time>
      </trkpt>
      <trkpt lat="47.8056" lon="-3.52153">
        <ele>13.11</ele>
        <time>2020-07-08T09:46:16Z</time>
      </trkpt>
      <trkpt lat="47.8056" lon="-3.52153">
        <ele>13.14</ele>
        <time>2020-07-08T09:46:17Z</time>
      </trkpt>
      <trkpt lat="47.8056" lon="-3.52153">
        <ele>13.15</ele>
        <time>2020-07-08T09:46:18Z</time>
      </trkpt>
      <trkpt lat="47.80561" lon="-3.52148">
        <ele>13.12</ele>
        <time>2020-07-08T09:46:19Z</time>
      </trkpt>
      <trkpt lat="47.80561" lon="-3.52146">
        <ele>13.01</ele>
        <time>2020-07-08T09:46:20Z</time>
      </trkpt>
      <trkpt lat="47.80562" lon="-3.52144">
        <ele>13.07</ele>
        <time>2020-07-08T09:46:21Z</time>
      </trkpt>
      <trkpt lat="47.80562" lon="-3.52142">
        <ele>13.08</ele>
        <time>2020-07-08T09:46:22Z</time>
      </trkpt>
      <trkpt lat="47.80563" lon="-3.52139">
        <ele>13.04</ele>
        <time>2020-07-08T09:46:23Z</time>
      </trkpt>
      <trkpt lat="47.80563" lon="-3.52137">
        <ele>12.97</ele>
        <time>2020-07-08T09:46:24Z</time>
      </trkpt>
      <trkpt lat="47.80564" lon="-3.52136">
        <ele>13.09</ele>
        <time>2020-07-08T09:46:25Z</time>
      </trkpt>
      <trkpt lat="47.80566" lon="-3.52133">
        <ele>13.25</ele>
        <time>2020-07-08T09:46:26Z</time>
      </trkpt>
      <trkpt lat="47.80567" lon="-3.5213">
        <ele>13.42</ele>
        <time>2020-07-08T09:46:27Z</time>
      </trkpt>
      <trkpt lat="47.80568" lon="-3.52127">
        <ele>13.46</ele>
        <time>2020-07-08T09:46:28Z</time>
      </trkpt>
      <trkpt lat="47.80569" lon="-3.52126">
        <ele>13.52</ele>
        <time>2020-07-08T09:46:29Z</time>
      </trkpt>
      <trkpt lat="47.80569" lon="-3.52123">
        <ele>13.59</ele>
        <time>2020-07-08T09:46:30Z</time>
      </trkpt>
      <trkpt lat="47.80571" lon="-3.52121">
        <ele>13.78</ele>
        <time>2020-07-08T09:46:31Z</time>
      </trkpt>
      <trkpt lat="47.80572" lon="-3.52118">
        <ele>14.06</ele>
        <time>2020-07-08T09:46:32Z</time>
      </trkpt>
      <trkpt lat="47.80574" lon="-3.52115">
        <ele>14.41</ele>
        <time>2020-07-08T09:46:33Z</time>
      </trkpt>
      <trkpt lat="47.80575" lon="-3.52112">
        <ele>14.64</ele>
        <time>2020-07-08T09:46:34Z</time>
      </trkpt>
      <trkpt lat="47.80576" lon="-3.5211">
        <ele>14.84</ele>
        <time>2020-07-08T09:46:35Z</time>
      </trkpt>
      <trkpt lat="47.80577" lon="-3.52107">
        <ele>15.01</ele>
        <time>2020-07-08T09:46:36Z</time>
      </trkpt>
      <trkpt lat="47.80578" lon="-3.52105">
        <ele>15.18</ele>
        <time>2020-07-08T09:46:37Z</time>
      </trkpt>
      <trkpt lat="47.80579" lon="-3.52103">
        <ele>15.3</ele>
        <time>2020-07-08T09:46:38Z</time>
      </trkpt>
      <trkpt lat="47.8058" lon="-3.521">
        <ele>15.38</ele>
        <time>2020-07-08T09:46:39Z</time>
      </trkpt>
      <trkpt lat="47.80581" lon="-3.52098">
        <ele>15.63</ele>
        <time>2020-07-08T09:46:40Z</time>
      </trkpt>
      <trkpt lat="47.80583" lon="-3.52094">
        <ele>15.87</ele>
        <time>2020-07-08T09:46:41Z</time>
      </trkpt>
      <trkpt lat="47.80584" lon="-3.52091">
        <ele>16.05</ele>
        <time>2020-07-08T09:46:42Z</time>
      </trkpt>
      <trkpt lat="47.80585" lon="-3.52087">
        <ele>16.1</ele>
        <time>2020-07-08T09:46:43Z</time>
      </trkpt>
      <trkpt lat="47.80587" lon="-3.52083">
        <ele>16.15</ele>
        <time>2020-07-08T09:46:44Z</time>
      </trkpt>
      <trkpt lat="47.80589" lon="-3.52079">
        <ele>16.51</ele>
        <time>2020-07-08T09:46:45Z</time>
      </trkpt>
      <trkpt lat="47.80591" lon="-3.52076">
        <ele>16.99</ele>
        <time>2020-07-08T09:46:46Z</time>
      </trkpt>
      <trkpt lat="47.80592" lon="-3.52072">
        <ele>17.28</ele>
        <time>2020-07-08T09:46:47Z</time>
      </trkpt>
      <trkpt lat="47.80592" lon="-3.52069">
        <ele>17.41</ele>
        <time>2020-07-08T09:46:48Z</time>
      </trkpt>
      <trkpt lat="47.80593" lon="-3.52065">
        <ele>17.46</ele>
        <time>2020-07-08T09:46:49Z</time>
      </trkpt>
      <trkpt lat="47.80593" lon="-3.52062">
        <ele>17.36</ele>
        <time>2020-07-08T09:46:50Z</time>
      </trkpt>
      <trkpt lat="47.80592" lon="-3.52058">
        <ele>17.16</ele>
        <time>2020-07-08T09:46:51Z</time>
      </trkpt>
      <trkpt lat="47.80592" lon="-3.52053">
        <ele>17</ele>
        <time>2020-07-08T09:46:52Z</time>
      </trkpt>
      <trkpt lat="47.80593" lon="-3.52049">
        <ele>17.02</ele>
        <time>2020-07-08T09:46:53Z</time>
      </trkpt>
      <trkpt lat="47.80593" lon="-3.52045">
        <ele>17.15</ele>
        <time>2020-07-08T09:46:54Z</time>
      </trkpt>
      <trkpt lat="47.80594" lon="-3.52041">
        <ele>17.33</ele>
        <time>2020-07-08T09:46:55Z</time>
      </trkpt>
      <trkpt lat="47.80594" lon="-3.52036">
        <ele>17.41</ele>
        <time>2020-07-08T09:46:56Z</time>
      </trkpt>
      <trkpt lat="47.80595" lon="-3.52031">
        <ele>17.58</ele>
        <time>2020-07-08T09:46:57Z</time>
      </trkpt>
      <trkpt lat="47.80595" lon="-3.52026">
        <ele>18.02</ele>
        <time>2020-07-08T09:46:58Z</time>
      </trkpt>
      <trkpt lat="47.80596" lon="-3.52021">
        <ele>18.5</ele>
        <time>2020-07-08T09:46:59Z</time>
      </trkpt>
      <trkpt lat="47.80596" lon="-3.52017">
        <ele>18.97</ele>
        <time>2020-07-08T09:47:00Z</time>
      </trkpt>
      <trkpt lat="47.80596" lon="-3.52014">
        <ele>19.41</ele>
        <time>2020-07-08T09:47:01Z</time>
      </trkpt>
      <trkpt lat="47.80596" lon="-3.5201">
        <ele>19.73</ele>
        <time>2020-07-08T09:47:02Z</time>
      </trkpt>
      <trkpt lat="47.80596" lon="-3.52006">
        <ele>20.04</ele>
        <time>2020-07-08T09:47:03Z</time>
      </trkpt>
      <trkpt lat="47.80597" lon="-3.52003">
        <ele>20.41</ele>
        <time>2020-07-08T09:47:04Z</time>
      </trkpt>
      <trkpt lat="47.80597" lon="-3.52">
        <ele>20.7</ele>
        <time>2020-07-08T09:47:05Z</time>
      </trkpt>
      <trkpt lat="47.80597" lon="-3.51997">
        <ele>21.1</ele>
        <time>2020-07-08T09:47:06Z</time>
      </trkpt>
      <trkpt lat="47.80598" lon="-3.51993">
        <ele>21.49</ele>
        <time>2020-07-08T09:47:07Z</time>
      </trkpt>
      <trkpt lat="47.80598" lon="-3.51988">
        <ele>21.88</ele>
        <time>2020-07-08T09:47:08Z</time>
      </trkpt>
      <trkpt lat="47.80598" lon="-3.51985">
        <ele>22.13</ele>
        <time>2020-07-08T09:47:09Z</time>
      </trkpt>
      <trkpt lat="47.80598" lon="-3.51982">
        <ele>22.46</ele>
        <time>2020-07-08T09:47:10Z</time>
      </trkpt>
      <trkpt lat="47.80598" lon="-3.51979">
        <ele>22.67</ele>
        <time>2020-07-08T09:47:11Z</time>
      </trkpt>
      <trkpt lat="47.80598" lon="-3.51975">
        <ele>23.06</ele>
        <time>2020-07-08T09:47:12Z</time>
      </trkpt>
      <trkpt lat="47.80598" lon="-3.51971">
        <ele>23.39</ele>
        <time>2020-07-08T09:47:13Z</time>
      </trkpt>
      <trkpt lat="47.80599" lon="-3.51969">
        <ele>23.68</ele>
        <time>2020-07-08T09:47:14Z</time>
      </trkpt>
      <trkpt lat="47.80599" lon="-3.51966">
        <ele>24.04</ele>
        <time>2020-07-08T09:47:15Z</time>
      </trkpt>
      <trkpt lat="47.80599" lon="-3.51962">
        <ele>24.35</ele>
        <time>2020-07-08T09:47:16Z</time>
      </trkpt>
      <trkpt lat="47.806" lon="-3.51959">
        <ele>24.73</ele>
        <time>2020-07-08T09:47:17Z</time>
      </trkpt>
      <trkpt lat="47.806" lon="-3.51955">
        <ele>25.07</ele>
        <time>2020-07-08T09:47:18Z</time>
      </trkpt>
      <trkpt lat="47.80601" lon="-3.5195">
        <ele>25.56</ele>
        <time>2020-07-08T09:47:19Z</time>
      </trkpt>
      <trkpt lat="47.80601" lon="-3.51947">
        <ele>25.87</ele>
        <time>2020-07-08T09:47:20Z</time>
      </trkpt>
      <trkpt lat="47.80601" lon="-3.51943">
        <ele>26.04</ele>
        <time>2020-07-08T09:47:21Z</time>
      </trkpt>
      <trkpt lat="47.806" lon="-3.5194">
        <ele>26.21</ele>
        <time>2020-07-08T09:47:22Z</time>
      </trkpt>
      <trkpt lat="47.806" lon="-3.51936">
        <ele>26.46</ele>
        <time>2020-07-08T09:47:23Z</time>
      </trkpt>
      <trkpt lat="47.80599" lon="-3.51934">
        <ele>26.52</ele>
        <time>2020-07-08T09:47:24Z</time>
      </trkpt>
      <trkpt lat="47.80598" lon="-3.51929">
        <ele>26.7</ele>
        <time>2020-07-08T09:47:25Z</time>
      </trkpt>
      <trkpt lat="47.80598" lon="-3.51925">
        <ele>26.87</ele>
        <time>2020-07-08T09:47:26Z</time>
      </trkpt>
      <trkpt lat="47.80597" lon="-3.51919">
        <ele>27.1</ele>
        <time>2020-07-08T09:47:27Z</time>
      </trkpt>
      <trkpt lat="47.80596" lon="-3.51914">
        <ele>27.31</ele>
        <time>2020-07-08T09:47:28Z</time>
      </trkpt>
      <trkpt lat="47.80596" lon="-3.51909">
        <ele>27.42</ele>
        <time>2020-07-08T09:47:29Z</time>
      </trkpt>
      <trkpt lat="47.80595" lon="-3.51904">
        <ele>27.5</ele>
        <time>2020-07-08T09:47:30Z</time>
      </trkpt>
      <trkpt lat="47.80594" lon="-3.51899">
        <ele>27.38</ele>
        <time>2020-07-08T09:47:31Z</time>
      </trkpt>
      <trkpt lat="47.80593" lon="-3.51893">
        <ele>27.29</ele>
        <time>2020-07-08T09:47:32Z</time>
      </trkpt>
      <trkpt lat="47.80592" lon="-3.51888">
        <ele>27.31</ele>
        <time>2020-07-08T09:47:33Z</time>
      </trkpt>
      <trkpt lat="47.80592" lon="-3.51885">
        <ele>27.23</ele>
        <time>2020-07-08T09:47:34Z</time>
      </trkpt>
      <trkpt lat="47.80591" lon="-3.51881">
        <ele>27.12</ele>
        <time>2020-07-08T09:47:35Z</time>
      </trkpt>
      <trkpt lat="47.8059" lon="-3.51876">
        <ele>27.1</ele>
        <time>2020-07-08T09:47:36Z</time>
      </trkpt>
      <trkpt lat="47.8059" lon="-3.51872">
        <ele>27.23</ele>
        <time>2020-07-08T09:47:37Z</time>
      </trkpt>
      <trkpt lat="47.8059" lon="-3.51868">
        <ele>27.36</ele>
        <time>2020-07-08T09:47:38Z</time>
      </trkpt>
      <trkpt lat="47.8059" lon="-3.51864">
        <ele>27.43</ele>
        <time>2020-07-08T09:47:39Z</time>
      </trkpt>
      <trkpt lat="47.8059" lon="-3.5186">
        <ele>27.49</ele>
        <time>2020-07-08T09:47:40Z</time>
      </trkpt>
      <trkpt lat="47.80589" lon="-3.51855">
        <ele>27.4</ele>
        <time>2020-07-08T09:47:41Z</time>
      </trkpt>
      <trkpt lat="47.80589" lon="-3.5185">
        <ele>27.35</ele>
        <time>2020-07-08T09:47:42Z</time>
      </trkpt>
      <trkpt lat="47.80589" lon="-3.51845">
        <ele>27.45</ele>
        <time>2020-07-08T09:47:43Z</time>
      </trkpt>
      <trkpt lat="47.8059" lon="-3.51841">
        <ele>27.66</ele>
        <time>2020-07-08T09:47:44Z</time>
      </trkpt>
      <trkpt lat="47.8059" lon="-3.51837">
        <ele>27.84</ele>
        <time>2020-07-08T09:47:45Z</time>
      </trkpt>
      <trkpt lat="47.80591" lon="-3.51834">
        <ele>28.07</ele>
        <time>2020-07-08T09:47:46Z</time>
      </trkpt>
      <trkpt lat="47.80592" lon="-3.5183">
        <ele>28.51</ele>
        <time>2020-07-08T09:47:47Z</time>
      </trkpt>
      <trkpt lat="47.80593" lon="-3.51826">
        <ele>28.99</ele>
        <time>2020-07-08T09:47:48Z</time>
      </trkpt>
      <trkpt lat="47.80594" lon="-3.51822">
        <ele>29.54</ele>
        <time>2020-07-08T09:47:49Z</time>
      </trkpt>
      <trkpt lat="47.80595" lon="-3.51818">
        <ele>30.01</ele>
        <time>2020-07-08T09:47:50Z</time>
      </trkpt>
      <trkpt lat="47.80595" lon="-3.51815">
        <ele>30.4</ele>
        <time>2020-07-08T09:47:51Z</time>
      </trkpt>
      <trkpt lat="47.80596" lon="-3.51811">
        <ele>30.75</ele>
        <time>2020-07-08T09:47:52Z</time>
      </trkpt>
      <trkpt lat="47.80596" lon="-3.51808">
        <ele>31.05</ele>
        <time>2020-07-08T09:47:53Z</time>
      </trkpt>
      <trkpt lat="47.80597" lon="-3.51804">
        <ele>31.36</ele>
        <time>2020-07-08T09:47:54Z</time>
      </trkpt>
      <trkpt lat="47.80598" lon="-3.51801">
        <ele>31.77</ele>
        <time>2020-07-08T09:47:55Z</time>
      </trkpt>
      <trkpt lat="47.80598" lon="-3.51797">
        <ele>32.11</ele>
        <time>2020-07-08T09:47:56Z</time>
      </trkpt>
      <trkpt lat="47.80598" lon="-3.51793">
        <ele>32.44</ele>
        <time>2020-07-08T09:47:57Z</time>
      </trkpt>
      <trkpt lat="47.80599" lon="-3.5179">
        <ele>32.85</ele>
        <time>2020-07-08T09:47:58Z</time>
      </trkpt>
      <trkpt lat="47.806" lon="-3.51786">
        <ele>33.42</ele>
        <time>2020-07-08T09:47:59Z</time>
      </trkpt>
      <trkpt lat="47.80602" lon="-3.51782">
        <ele>34.1</ele>
        <time>2020-07-08T09:48:00Z</time>
      </trkpt>
      <trkpt lat="47.80603" lon="-3.5178">
        <ele>34.8</ele>
        <time>2020-07-08T09:48:01Z</time>
      </trkpt>
      <trkpt lat="47.80606" lon="-3.51778">
        <ele>35.67</ele>
        <time>2020-07-08T09:48:02Z</time>
      </trkpt>
      <trkpt lat="47.80608" lon="-3.51777">
        <ele>36.68</ele>
        <time>2020-07-08T09:48:03Z</time>
      </trkpt>
      <trkpt lat="47.80612" lon="-3.51776">
        <ele>37.68</ele>
        <time>2020-07-08T09:48:04Z</time>
      </trkpt>
      <trkpt lat="47.80615" lon="-3.51777">
        <ele>38.22</ele>
        <time>2020-07-08T09:48:05Z</time>
      </trkpt>
      <trkpt lat="47.80618" lon="-3.51777">
        <ele>38.61</ele>
        <time>2020-07-08T09:48:06Z</time>
      </trkpt>
      <trkpt lat="47.80621" lon="-3.51777">
        <ele>38.92</ele>
        <time>2020-07-08T09:48:07Z</time>
      </trkpt>
      <trkpt lat="47.80623" lon="-3.51778">
        <ele>39.19</ele>
        <time>2020-07-08T09:48:08Z</time>
      </trkpt>
      <trkpt lat="47.80626" lon="-3.51779">
        <ele>39.48</ele>
        <time>2020-07-08T09:48:09Z</time>
      </trkpt>
      <trkpt lat="47.80629" lon="-3.5178">
        <ele>39.77</ele>
        <time>2020-07-08T09:48:10Z</time>
      </trkpt>
      <trkpt lat="47.80632" lon="-3.51781">
        <ele>40.09</ele>
        <time>2020-07-08T09:48:11Z</time>
      </trkpt>
      <trkpt lat="47.80635" lon="-3.51782">
        <ele>40.42</ele>
        <time>2020-07-08T09:48:12Z</time>
      </trkpt>
      <trkpt lat="47.80638" lon="-3.51783">
        <ele>40.78</ele>
        <time>2020-07-08T09:48:13Z</time>
      </trkpt>
      <trkpt lat="47.80641" lon="-3.51783">
        <ele>41.18</ele>
        <time>2020-07-08T09:48:14Z</time>
      </trkpt>
      <trkpt lat="47.80644" lon="-3.51785">
        <ele>41.59</ele>
        <time>2020-07-08T09:48:15Z</time>
      </trkpt>
      <trkpt lat="47.80647" lon="-3.51786">
        <ele>41.95</ele>
        <time>2020-07-08T09:48:16Z</time>
      </trkpt>
      <trkpt lat="47.8065" lon="-3.51787">
        <ele>42.31</ele>
        <time>2020-07-08T09:48:17Z</time>
      </trkpt>
      <trkpt lat="47.80653" lon="-3.51788">
        <ele>42.67</ele>
        <time>2020-07-08T09:48:18Z</time>
      </trkpt>
      <trkpt lat="47.80656" lon="-3.51788">
        <ele>43.03</ele>
        <time>2020-07-08T09:48:19Z</time>
      </trkpt>
      <trkpt lat="47.80658" lon="-3.5179">
        <ele>43.31</ele>
        <time>2020-07-08T09:48:20Z</time>
      </trkpt>
      <trkpt lat="47.8066" lon="-3.51792">
        <ele>43.57</ele>
        <time>2020-07-08T09:48:21Z</time>
      </trkpt>
      <trkpt lat="47.80663" lon="-3.51793">
        <ele>43.83</ele>
        <time>2020-07-08T09:48:22Z</time>
      </trkpt>
      <trkpt lat="47.80665" lon="-3.51794">
        <ele>44.11</ele>
        <time>2020-07-08T09:48:23Z</time>
      </trkpt>
      <trkpt lat="47.80668" lon="-3.51795">
        <ele>44.34</ele>
        <time>2020-07-08T09:48:24Z</time>
      </trkpt>
      <trkpt lat="47.80671" lon="-3.51796">
        <ele>44.52</ele>
        <time>2020-07-08T09:48:25Z</time>
      </trkpt>
      <trkpt lat="47.80674" lon="-3.51796">
        <ele>44.68</ele>
        <time>2020-07-08T09:48:26Z</time>
      </trkpt>
      <trkpt lat="47.80676" lon="-3.51797">
        <ele>44.82</ele>
        <time>2020-07-08T09:48:27Z</time>
      </trkpt>
      <trkpt lat="47.80679" lon="-3.51798">
        <ele>44.97</ele>
        <time>2020-07-08T09:48:28Z</time>
      </trkpt>
      <trkpt lat="47.80681" lon="-3.51799">
        <ele>45.1</ele>
        <time>2020-07-08T09:48:29Z</time>
      </trkpt>
      <trkpt lat="47.80684" lon="-3.518">
        <ele>45.25</ele>
        <time>2020-07-08T09:48:30Z</time>
      </trkpt>
      <trkpt lat="47.80687" lon="-3.51801">
        <ele>45.41</ele>
        <time>2020-07-08T09:48:31Z</time>
      </trkpt>
      <trkpt lat="47.80689" lon="-3.51803">
        <ele>45.56</ele>
        <time>2020-07-08T09:48:32Z</time>
      </trkpt>
      <trkpt lat="47.80691" lon="-3.51805">
        <ele>45.71</ele>
        <time>2020-07-08T09:48:33Z</time>
      </trkpt>
      <trkpt lat="47.80694" lon="-3.51806">
        <ele>45.84</ele>
        <time>2020-07-08T09:48:34Z</time>
      </trkpt>
      <trkpt lat="47.80696" lon="-3.51809">
        <ele>45.96</ele>
        <time>2020-07-08T09:48:35Z</time>
      </trkpt>
      <trkpt lat="47.80699" lon="-3.51811">
        <ele>46.08</ele>
        <time>2020-07-08T09:48:36Z</time>
      </trkpt>
      <trkpt lat="47.80701" lon="-3.51813">
        <ele>46.17</ele>
        <time>2020-07-08T09:48:37Z</time>
      </trkpt>
      <trkpt lat="47.80703" lon="-3.51815">
        <ele>46.26</ele>
        <time>2020-07-08T09:48:38Z</time>
      </trkpt>
      <trkpt lat="47.80706" lon="-3.51818">
        <ele>46.35</ele>
        <time>2020-07-08T09:48:39Z</time>
      </trkpt>
      <trkpt lat="47.80709" lon="-3.51821">
        <ele>46.45</ele>
        <time>2020-07-08T09:48:40Z</time>
      </trkpt>
      <trkpt lat="47.80711" lon="-3.51823">
        <ele>46.55</ele>
        <time>2020-07-08T09:48:41Z</time>
      </trkpt>
      <trkpt lat="47.80714" lon="-3.51825">
        <ele>46.66</ele>
        <time>2020-07-08T09:48:42Z</time>
      </trkpt>
      <trkpt lat="47.80717" lon="-3.51828">
        <ele>46.76</ele>
        <time>2020-07-08T09:48:43Z</time>
      </trkpt>
      <trkpt lat="47.8072" lon="-3.51831">
        <ele>46.85</ele>
        <time>2020-07-08T09:48:44Z</time>
      </trkpt>
      <trkpt lat="47.80723" lon="-3.51834">
        <ele>46.96</ele>
        <time>2020-07-08T09:48:45Z</time>
      </trkpt>
      <trkpt lat="47.80726" lon="-3.51838">
        <ele>47.07</ele>
        <time>2020-07-08T09:48:46Z</time>
      </trkpt>
      <trkpt lat="47.80728" lon="-3.51841">
        <ele>47.18</ele>
        <time>2020-07-08T09:48:47Z</time>
      </trkpt>
      <trkpt lat="47.80731" lon="-3.51845">
        <ele>47.28</ele>
        <time>2020-07-08T09:48:48Z</time>
      </trkpt>
      <trkpt lat="47.80734" lon="-3.51848">
        <ele>47.39</ele>
        <time>2020-07-08T09:48:49Z</time>
      </trkpt>
      <trkpt lat="47.80737" lon="-3.51851">
        <ele>47.5</ele>
        <time>2020-07-08T09:48:50Z</time>
      </trkpt>
      <trkpt lat="47.80741" lon="-3.51855">
        <ele>47.62</ele>
        <time>2020-07-08T09:48:51Z</time>
      </trkpt>
      <trkpt lat="47.80745" lon="-3.51858">
        <ele>47.75</ele>
        <time>2020-07-08T09:48:52Z</time>
      </trkpt>
      <trkpt lat="47.80748" lon="-3.51862">
        <ele>47.86</ele>
        <time>2020-07-08T09:48:53Z</time>
      </trkpt>
      <trkpt lat="47.80751" lon="-3.51865">
        <ele>47.85</ele>
        <time>2020-07-08T09:48:54Z</time>
      </trkpt>
      <trkpt lat="47.80755" lon="-3.51869">
        <ele>47.78</ele>
        <time>2020-07-08T09:48:55Z</time>
      </trkpt>
      <trkpt lat="47.80758" lon="-3.51873">
        <ele>47.72</ele>
        <time>2020-07-08T09:48:56Z</time>
      </trkpt>
      <trkpt lat="47.80761" lon="-3.51877">
        <ele>47.67</ele>
        <time>2020-07-08T09:48:57Z</time>
      </trkpt>
      <trkpt lat="47.80765" lon="-3.51881">
        <ele>47.66</ele>
        <time>2020-07-08T09:48:58Z</time>
      </trkpt>
      <trkpt lat="47.80769" lon="-3.51885">
        <ele>47.7</ele>
        <time>2020-07-08T09:48:59Z</time>
      </trkpt>
      <trkpt lat="47.80772" lon="-3.51889">
        <ele>47.75</ele>
        <time>2020-07-08T09:49:00Z</time>
      </trkpt>
      <trkpt lat="47.80776" lon="-3.51893">
        <ele>47.77</ele>
        <time>2020-07-08T09:49:01Z</time>
      </trkpt>
      <trkpt lat="47.8078" lon="-3.51897">
        <ele>47.74</ele>
        <time>2020-07-08T09:49:02Z</time>
      </trkpt>
      <trkpt lat="47.80784" lon="-3.519">
        <ele>47.63</ele>
        <time>2020-07-08T09:49:03Z</time>
      </trkpt>
      <trkpt lat="47.80788" lon="-3.51904">
        <ele>47.5</ele>
        <time>2020-07-08T09:49:04Z</time>
      </trkpt>
      <trkpt lat="47.80792" lon="-3.51908">
        <ele>47.36</ele>
        <time>2020-07-08T09:49:05Z</time>
      </trkpt>
      <trkpt lat="47.80796" lon="-3.51911">
        <ele>47.24</ele>
        <time>2020-07-08T09:49:06Z</time>
      </trkpt>
      <trkpt lat="47.80801" lon="-3.51914">
        <ele>47.15</ele>
        <time>2020-07-08T09:49:07Z</time>
      </trkpt>
      <trkpt lat="47.80805" lon="-3.51916">
        <ele>47.05</ele>
        <time>2020-07-08T09:49:08Z</time>
      </trkpt>
      <trkpt lat="47.80809" lon="-3.51918">
        <ele>47.02</ele>
        <time>2020-07-08T09:49:09Z</time>
      </trkpt>
      <trkpt lat="47.80813" lon="-3.51922">
        <ele>47</ele>
        <time>2020-07-08T09:49:10Z</time>
      </trkpt>
      <trkpt lat="47.80817" lon="-3.51926">
        <ele>47</ele>
        <time>2020-07-08T09:49:11Z</time>
      </trkpt>
      <trkpt lat="47.80822" lon="-3.51929">
        <ele>47</ele>
        <time>2020-07-08T09:49:12Z</time>
      </trkpt>
      <trkpt lat="47.80826" lon="-3.51932">
        <ele>47</ele>
        <time>2020-07-08T09:49:13Z</time>
      </trkpt>
      <trkpt lat="47.80831" lon="-3.51935">
        <ele>47</ele>
        <time>2020-07-08T09:49:14Z</time>
      </trkpt>
      <trkpt lat="47.80835" lon="-3.51939">
        <ele>47</ele>
        <time>2020-07-08T09:49:15Z</time>
      </trkpt>
      <trkpt lat="47.80839" lon="-3.51943">
        <ele>47</ele>
        <time>2020-07-08T09:49:16Z</time>
      </trkpt>
      <trkpt lat="47.80844" lon="-3.51946">
        <ele>46.99</ele>
        <time>2020-07-08T09:49:17Z</time>
      </trkpt>
      <trkpt lat="47.80848" lon="-3.51949">
        <ele>46.94</ele>
        <time>2020-07-08T09:49:18Z</time>
      </trkpt>
      <trkpt lat="47.80852" lon="-3.51952">
        <ele>46.85</ele>
        <time>2020-07-08T09:49:19Z</time>
      </trkpt>
      <trkpt lat="47.80857" lon="-3.51956">
        <ele>46.72</ele>
        <time>2020-07-08T09:49:20Z</time>
      </trkpt>
      <trkpt lat="47.80861" lon="-3.51959">
        <ele>46.53</ele>
        <time>2020-07-08T09:49:21Z</time>
      </trkpt>
      <trkpt lat="47.80866" lon="-3.51963">
        <ele>46.27</ele>
        <time>2020-07-08T09:49:22Z</time>
      </trkpt>
      <trkpt lat="47.80871" lon="-3.51966">
        <ele>45.99</ele>
        <time>2020-07-08T09:49:23Z</time>
      </trkpt>
      <trkpt lat="47.80875" lon="-3.5197">
        <ele>45.69</ele>
        <time>2020-07-08T09:49:24Z</time>
      </trkpt>
      <trkpt lat="47.8088" lon="-3.51974">
        <ele>45.43</ele>
        <time>2020-07-08T09:49:25Z</time>
      </trkpt>
      <trkpt lat="47.80884" lon="-3.51978">
        <ele>45.24</ele>
        <time>2020-07-08T09:49:26Z</time>
      </trkpt>
      <trkpt lat="47.80889" lon="-3.51982">
        <ele>45.06</ele>
        <time>2020-07-08T09:49:27Z</time>
      </trkpt>
      <trkpt lat="47.80894" lon="-3.51985">
        <ele>44.89</ele>
        <time>2020-07-08T09:49:28Z</time>
      </trkpt>
      <trkpt lat="47.80899" lon="-3.51989">
        <ele>44.7</ele>
        <time>2020-07-08T09:49:29Z</time>
      </trkpt>
      <trkpt lat="47.80904" lon="-3.51992">
        <ele>44.53</ele>
        <time>2020-07-08T09:49:30Z</time>
      </trkpt>
      <trkpt lat="47.80909" lon="-3.51996">
        <ele>44.35</ele>
        <time>2020-07-08T09:49:31Z</time>
      </trkpt>
      <trkpt lat="47.80914" lon="-3.52">
        <ele>44.17</ele>
        <time>2020-07-08T09:49:32Z</time>
      </trkpt>
      <trkpt lat="47.80919" lon="-3.52003">
        <ele>44</ele>
        <time>2020-07-08T09:49:33Z</time>
      </trkpt>
      <trkpt lat="47.80923" lon="-3.52007">
        <ele>43.83</ele>
        <time>2020-07-08T09:49:34Z</time>
      </trkpt>
      <trkpt lat="47.80928" lon="-3.52011">
        <ele>43.66</ele>
        <time>2020-07-08T09:49:35Z</time>
      </trkpt>
      <trkpt lat="47.80933" lon="-3.52014">
        <ele>43.48</ele>
        <time>2020-07-08T09:49:36Z</time>
      </trkpt>
      <trkpt lat="47.80938" lon="-3.52016">
        <ele>43.31</ele>
        <time>2020-07-08T09:49:37Z</time>
      </trkpt>
      <trkpt lat="47.80943" lon="-3.52019">
        <ele>43.13</ele>
        <time>2020-07-08T09:49:38Z</time>
      </trkpt>
      <trkpt lat="47.80948" lon="-3.52021">
        <ele>42.93</ele>
        <time>2020-07-08T09:49:39Z</time>
      </trkpt>
      <trkpt lat="47.80953" lon="-3.52024">
        <ele>42.74</ele>
        <time>2020-07-08T09:49:40Z</time>
      </trkpt>
      <trkpt lat="47.80958" lon="-3.52027">
        <ele>42.58</ele>
        <time>2020-07-08T09:49:41Z</time>
      </trkpt>
      <trkpt lat="47.80963" lon="-3.52031">
        <ele>42.36</ele>
        <time>2020-07-08T09:49:42Z</time>
      </trkpt>
      <trkpt lat="47.80967" lon="-3.52035">
        <ele>42.08</ele>
        <time>2020-07-08T09:49:43Z</time>
      </trkpt>
      <trkpt lat="47.80973" lon="-3.52038">
        <ele>41.75</ele>
        <time>2020-07-08T09:49:44Z</time>
      </trkpt>
      <trkpt lat="47.80978" lon="-3.52041">
        <ele>41.37</ele>
        <time>2020-07-08T09:49:45Z</time>
      </trkpt>
      <trkpt lat="47.80984" lon="-3.52044">
        <ele>40.99</ele>
        <time>2020-07-08T09:49:46Z</time>
      </trkpt>
      <trkpt lat="47.8099" lon="-3.52047">
        <ele>40.62</ele>
        <time>2020-07-08T09:49:47Z</time>
      </trkpt>
      <trkpt lat="47.80996" lon="-3.52051">
        <ele>40.32</ele>
        <time>2020-07-08T09:49:48Z</time>
      </trkpt>
      <trkpt lat="47.81002" lon="-3.52054">
        <ele>40.01</ele>
        <time>2020-07-08T09:49:49Z</time>
      </trkpt>
      <trkpt lat="47.81008" lon="-3.52056">
        <ele>39.6</ele>
        <time>2020-07-08T09:49:50Z</time>
      </trkpt>
      <trkpt lat="47.81014" lon="-3.5206">
        <ele>39.08</ele>
        <time>2020-07-08T09:49:51Z</time>
      </trkpt>
      <trkpt lat="47.81021" lon="-3.52064">
        <ele>38.49</ele>
        <time>2020-07-08T09:49:52Z</time>
      </trkpt>
      <trkpt lat="47.81027" lon="-3.52067">
        <ele>37.89</ele>
        <time>2020-07-08T09:49:53Z</time>
      </trkpt>
      <trkpt lat="47.81032" lon="-3.5207">
        <ele>37.37</ele>
        <time>2020-07-08T09:49:54Z</time>
      </trkpt>
      <trkpt lat="47.81037" lon="-3.52073">
        <ele>36.92</ele>
        <time>2020-07-08T09:49:55Z</time>
      </trkpt>
      <trkpt lat="47.81041" lon="-3.52076">
        <ele>36.51</ele>
        <time>2020-07-08T09:49:56Z</time>
      </trkpt>
      <trkpt lat="47.81043" lon="-3.52081">
        <ele>36.14</ele>
        <time>2020-07-08T09:49:57Z</time>
      </trkpt>
      <trkpt lat="47.81044" lon="-3.52087">
        <ele>35.89</ele>
        <time>2020-07-08T09:49:58Z</time>
      </trkpt>
      <trkpt lat="47.81042" lon="-3.52093">
        <ele>35.81</ele>
        <time>2020-07-08T09:49:59Z</time>
      </trkpt>
      <trkpt lat="47.8104" lon="-3.521">
        <ele>35.79</ele>
        <time>2020-07-08T09:50:00Z</time>
      </trkpt>
      <trkpt lat="47.81038" lon="-3.52108">
        <ele>35.72</ele>
        <time>2020-07-08T09:50:01Z</time>
      </trkpt>
      <trkpt lat="47.81037" lon="-3.52115">
        <ele>35.59</ele>
        <time>2020-07-08T09:50:02Z</time>
      </trkpt>
      <trkpt lat="47.81036" lon="-3.52123">
        <ele>35.38</ele>
        <time>2020-07-08T09:50:03Z</time>
      </trkpt>
      <trkpt lat="47.81037" lon="-3.5213">
        <ele>35.11</ele>
        <time>2020-07-08T09:50:04Z</time>
      </trkpt>
      <trkpt lat="47.81039" lon="-3.52137">
        <ele>34.8</ele>
        <time>2020-07-08T09:50:05Z</time>
      </trkpt>
      <trkpt lat="47.81042" lon="-3.52146">
        <ele>34.07</ele>
        <time>2020-07-08T09:50:06Z</time>
      </trkpt>
      <trkpt lat="47.81047" lon="-3.52154">
        <ele>33.1</ele>
        <time>2020-07-08T09:50:07Z</time>
      </trkpt>
      <trkpt lat="47.81053" lon="-3.52162">
        <ele>32.03</ele>
        <time>2020-07-08T09:50:08Z</time>
      </trkpt>
      <trkpt lat="47.81059" lon="-3.5217">
        <ele>31.13</ele>
        <time>2020-07-08T09:50:09Z</time>
      </trkpt>
      <trkpt lat="47.81066" lon="-3.52177">
        <ele>30.41</ele>
        <time>2020-07-08T09:50:10Z</time>
      </trkpt>
      <trkpt lat="47.81073" lon="-3.52185">
        <ele>29.63</ele>
        <time>2020-07-08T09:50:11Z</time>
      </trkpt>
      <trkpt lat="47.8108" lon="-3.52193">
        <ele>28.66</ele>
        <time>2020-07-08T09:50:12Z</time>
      </trkpt>
      <trkpt lat="47.81087" lon="-3.52202">
        <ele>27.84</ele>
        <time>2020-07-08T09:50:13Z</time>
      </trkpt>
      <trkpt lat="47.81094" lon="-3.52209">
        <ele>27.24</ele>
        <time>2020-07-08T09:50:14Z</time>
      </trkpt>
      <trkpt lat="47.81101" lon="-3.52216">
        <ele>26.69</ele>
        <time>2020-07-08T09:50:15Z</time>
      </trkpt>
      <trkpt lat="47.81108" lon="-3.52223">
        <ele>26.17</ele>
        <time>2020-07-08T09:50:16Z</time>
      </trkpt>
      <trkpt lat="47.81116" lon="-3.52231">
        <ele>25.83</ele>
        <time>2020-07-08T09:50:17Z</time>
      </trkpt>
      <trkpt lat="47.81122" lon="-3.52238">
        <ele>25.55</ele>
        <time>2020-07-08T09:50:18Z</time>
      </trkpt>
      <trkpt lat="47.81129" lon="-3.52245">
        <ele>25.28</ele>
        <time>2020-07-08T09:50:19Z</time>
      </trkpt>
      <trkpt lat="47.81136" lon="-3.52252">
        <ele>24.95</ele>
        <time>2020-07-08T09:50:20Z</time>
      </trkpt>
      <trkpt lat="47.81143" lon="-3.5226">
        <ele>24.47</ele>
        <time>2020-07-08T09:50:21Z</time>
      </trkpt>
      <trkpt lat="47.8115" lon="-3.52266">
        <ele>24.06</ele>
        <time>2020-07-08T09:50:22Z</time>
      </trkpt>
      <trkpt lat="47.81156" lon="-3.52273">
        <ele>23.84</ele>
        <time>2020-07-08T09:50:23Z</time>
      </trkpt>
      <trkpt lat="47.81163" lon="-3.5228">
        <ele>23.73</ele>
        <time>2020-07-08T09:50:24Z</time>
      </trkpt>
      <trkpt lat="47.8117" lon="-3.52287">
        <ele>23.27</ele>
        <time>2020-07-08T09:50:25Z</time>
      </trkpt>
      <trkpt lat="47.81176" lon="-3.52294">
        <ele>22.4</ele>
        <time>2020-07-08T09:50:26Z</time>
      </trkpt>
      <trkpt lat="47.81183" lon="-3.52301">
        <ele>21.48</ele>
        <time>2020-07-08T09:50:27Z</time>
      </trkpt>
      <trkpt lat="47.81189" lon="-3.52308">
        <ele>20.7</ele>
        <time>2020-07-08T09:50:28Z</time>
      </trkpt>
      <trkpt lat="47.81194" lon="-3.52316">
        <ele>20.24</ele>
        <time>2020-07-08T09:50:29Z</time>
      </trkpt>
      <trkpt lat="47.81198" lon="-3.52325">
        <ele>19.42</ele>
        <time>2020-07-08T09:50:30Z</time>
      </trkpt>
      <trkpt lat="47.81202" lon="-3.52335">
        <ele>18.42</ele>
        <time>2020-07-08T09:50:31Z</time>
      </trkpt>
      <trkpt lat="47.81206" lon="-3.52346">
        <ele>17.33</ele>
        <time>2020-07-08T09:50:32Z</time>
      </trkpt>
      <trkpt lat="47.8121" lon="-3.52358">
        <ele>16.41</ele>
        <time>2020-07-08T09:50:33Z</time>
      </trkpt>
      <trkpt lat="47.81214" lon="-3.52371">
        <ele>15.62</ele>
        <time>2020-07-08T09:50:34Z</time>
      </trkpt>
      <trkpt lat="47.81218" lon="-3.52386">
        <ele>15.04</ele>
        <time>2020-07-08T09:50:35Z</time>
      </trkpt>
      <trkpt lat="47.81221" lon="-3.52397">
        <ele>14.7</ele>
        <time>2020-07-08T09:50:36Z</time>
      </trkpt>
      <trkpt lat="47.81223" lon="-3.52407">
        <ele>14.57</ele>
        <time>2020-07-08T09:50:37Z</time>
      </trkpt>
      <trkpt lat="47.81225" lon="-3.5242">
        <ele>14.44</ele>
        <time>2020-07-08T09:50:38Z</time>
      </trkpt>
      <trkpt lat="47.81232" lon="-3.52435">
        <ele>13.5</ele>
        <time>2020-07-08T09:50:39Z</time>
      </trkpt>
      <trkpt lat="47.81239" lon="-3.52448">
        <ele>12.32</ele>
        <time>2020-07-08T09:50:40Z</time>
      </trkpt>
      <trkpt lat="47.81245" lon="-3.52461">
        <ele>11.14</ele>
        <time>2020-07-08T09:50:41Z</time>
      </trkpt>
      <trkpt lat="47.8125" lon="-3.52468">
        <ele>10.21</ele>
        <time>2020-07-08T09:50:42Z</time>
      </trkpt>
      <trkpt lat="47.81256" lon="-3.52475">
        <ele>9.88</ele>
        <time>2020-07-08T09:50:43Z</time>
      </trkpt>
      <trkpt lat="47.81263" lon="-3.5248">
        <ele>9.58</ele>
        <time>2020-07-08T09:50:44Z</time>
      </trkpt>
      <trkpt lat="47.8127" lon="-3.52482">
        <ele>9.06</ele>
        <time>2020-07-08T09:50:45Z</time>
      </trkpt>
      <trkpt lat="47.81277" lon="-3.52484">
        <ele>8.4</ele>
        <time>2020-07-08T09:50:46Z</time>
      </trkpt>
      <trkpt lat="47.81283" lon="-3.52486">
        <ele>8.05</ele>
        <time>2020-07-08T09:50:47Z</time>
      </trkpt>
      <trkpt lat="47.81289" lon="-3.52489">
        <ele>7.79</ele>
        <time>2020-07-08T09:50:48Z</time>
      </trkpt>
      <trkpt lat="47.81295" lon="-3.52493">
        <ele>7.41</ele>
        <time>2020-07-08T09:50:49Z</time>
      </trkpt>
      <trkpt lat="47.813" lon="-3.52499">
        <ele>6.76</ele>
        <time>2020-07-08T09:50:50Z</time>
      </trkpt>
      <trkpt lat="47.81305" lon="-3.52506">
        <ele>6.26</ele>
        <time>2020-07-08T09:50:51Z</time>
      </trkpt>
      <trkpt lat="47.81309" lon="-3.52514">
        <ele>6.41</ele>
        <time>2020-07-08T09:50:52Z</time>
      </trkpt>
      <trkpt lat="47.81312" lon="-3.52522">
        <ele>6.59</ele>
        <time>2020-07-08T09:50:53Z</time>
      </trkpt>
      <trkpt lat="47.81315" lon="-3.5253">
        <ele>6.63</ele>
        <time>2020-07-08T09:50:54Z</time>
      </trkpt>
      <trkpt lat="47.81318" lon="-3.52537">
        <ele>6.61</ele>
        <time>2020-07-08T09:50:55Z</time>
      </trkpt>
      <trkpt lat="47.81321" lon="-3.52543">
        <ele>6.56</ele>
        <time>2020-07-08T09:50:56Z</time>
      </trkpt>
      <trkpt lat="47.81323" lon="-3.52549">
        <ele>6.5</ele>
        <time>2020-07-08T09:50:57Z</time>
      </trkpt>
      <trkpt lat="47.81324" lon="-3.52554">
        <ele>6.43</ele>
        <time>2020-07-08T09:50:58Z</time>
      </trkpt>
      <trkpt lat="47.81326" lon="-3.52558">
        <ele>6.47</ele>
        <time>2020-07-08T09:50:59Z</time>
      </trkpt>
      <trkpt lat="47.81327" lon="-3.52561">
        <ele>6.61</ele>
        <time>2020-07-08T09:51:00Z</time>
      </trkpt>
      <trkpt lat="47.81328" lon="-3.52565">
        <ele>6.79</ele>
        <time>2020-07-08T09:51:01Z</time>
      </trkpt>
      <trkpt lat="47.8133" lon="-3.52568">
        <ele>6.97</ele>
        <time>2020-07-08T09:51:02Z</time>
      </trkpt>
      <trkpt lat="47.8133" lon="-3.52571">
        <ele>7.12</ele>
        <time>2020-07-08T09:51:03Z</time>
      </trkpt>
      <trkpt lat="47.81331" lon="-3.52574">
        <ele>7.31</ele>
        <time>2020-07-08T09:51:04Z</time>
      </trkpt>
      <trkpt lat="47.81332" lon="-3.52577">
        <ele>7.51</ele>
        <time>2020-07-08T09:51:05Z</time>
      </trkpt>
      <trkpt lat="47.81333" lon="-3.5258">
        <ele>7.73</ele>
        <time>2020-07-08T09:51:06Z</time>
      </trkpt>
      <trkpt lat="47.81334" lon="-3.52582">
        <ele>7.99</ele>
        <time>2020-07-08T09:51:07Z</time>
      </trkpt>
      <trkpt lat="47.81334" lon="-3.52584">
        <ele>8.05</ele>
        <time>2020-07-08T09:51:08Z</time>
      </trkpt>
      <trkpt lat="47.81334" lon="-3.52586">
        <ele>8.21</ele>
        <time>2020-07-08T09:51:09Z</time>
      </trkpt>
      <trkpt lat="47.81335" lon="-3.52587">
        <ele>8.59</ele>
        <time>2020-07-08T09:51:10Z</time>
      </trkpt>
      <trkpt lat="47.81336" lon="-3.52589">
        <ele>8.93</ele>
        <time>2020-07-08T09:51:11Z</time>
      </trkpt>
      <trkpt lat="47.81337" lon="-3.52591">
        <ele>9.29</ele>
        <time>2020-07-08T09:51:12Z</time>
      </trkpt>
      <trkpt lat="47.81338" lon="-3.52593">
        <ele>9.59</ele>
        <time>2020-07-08T09:51:13Z</time>
      </trkpt>
      <trkpt lat="47.81338" lon="-3.52596">
        <ele>9.8</ele>
        <time>2020-07-08T09:51:14Z</time>
      </trkpt>
      <trkpt lat="47.8134" lon="-3.52599">
        <ele>10.14</ele>
        <time>2020-07-08T09:51:15Z</time>
      </trkpt>
      <trkpt lat="47.81342" lon="-3.52601">
        <ele>10.75</ele>
        <time>2020-07-08T09:51:16Z</time>
      </trkpt>
      <trkpt lat="47.81344" lon="-3.52603">
        <ele>11.38</ele>
        <time>2020-07-08T09:51:17Z</time>
      </trkpt>
      <trkpt lat="47.81347" lon="-3.52606">
        <ele>12.11</ele>
        <time>2020-07-08T09:51:18Z</time>
      </trkpt>
      <trkpt lat="47.8135" lon="-3.52609">
        <ele>12.81</ele>
        <time>2020-07-08T09:51:19Z</time>
      </trkpt>
      <trkpt lat="47.81353" lon="-3.52611">
        <ele>13.52</ele>
        <time>2020-07-08T09:51:20Z</time>
      </trkpt>
      <trkpt lat="47.81356" lon="-3.52613">
        <ele>14.21</ele>
        <time>2020-07-08T09:51:21Z</time>
      </trkpt>
      <trkpt lat="47.81358" lon="-3.52617">
        <ele>14.81</ele>
        <time>2020-07-08T09:51:22Z</time>
      </trkpt>
      <trkpt lat="47.81362" lon="-3.52621">
        <ele>15.57</ele>
        <time>2020-07-08T09:51:23Z</time>
      </trkpt>
      <trkpt lat="47.81364" lon="-3.52624">
        <ele>16.06</ele>
        <time>2020-07-08T09:51:24Z</time>
      </trkpt>
      <trkpt lat="47.81366" lon="-3.52626">
        <ele>16.42</ele>
        <time>2020-07-08T09:51:25Z</time>
      </trkpt>
      <trkpt lat="47.81368" lon="-3.52629">
        <ele>16.79</ele>
        <time>2020-07-08T09:51:26Z</time>
      </trkpt>
      <trkpt lat="47.81371" lon="-3.52631">
        <ele>17.15</ele>
        <time>2020-07-08T09:51:27Z</time>
      </trkpt>
      <trkpt lat="47.81372" lon="-3.52633">
        <ele>17.37</ele>
        <time>2020-07-08T09:51:28Z</time>
      </trkpt>
      <trkpt lat="47.81374" lon="-3.52636">
        <ele>17.58</ele>
        <time>2020-07-08T09:51:29Z</time>
      </trkpt>
      <trkpt lat="47.81376" lon="-3.52637">
        <ele>17.79</ele>
        <time>2020-07-08T09:51:30Z</time>
      </trkpt>
      <trkpt lat="47.81379" lon="-3.52639">
        <ele>18.07</ele>
        <time>2020-07-08T09:51:31Z</time>
      </trkpt>
      <trkpt lat="47.8138" lon="-3.52642">
        <ele>18.53</ele>
        <time>2020-07-08T09:51:32Z</time>
      </trkpt>
      <trkpt lat="47.81382" lon="-3.52644">
        <ele>18.98</ele>
        <time>2020-07-08T09:51:33Z</time>
      </trkpt>
      <trkpt lat="47.81385" lon="-3.52645">
        <ele>19.48</ele>
        <time>2020-07-08T09:51:34Z</time>
      </trkpt>
      <trkpt lat="47.81388" lon="-3.52645">
        <ele>19.9</ele>
        <time>2020-07-08T09:51:35Z</time>
      </trkpt>
      <trkpt lat="47.8139" lon="-3.52646">
        <ele>20.31</ele>
        <time>2020-07-08T09:51:36Z</time>
      </trkpt>
      <trkpt lat="47.81394" lon="-3.52647">
        <ele>20.82</ele>
        <time>2020-07-08T09:51:37Z</time>
      </trkpt>
      <trkpt lat="47.81396" lon="-3.52649">
        <ele>21.25</ele>
        <time>2020-07-08T09:51:38Z</time>
      </trkpt>
      <trkpt lat="47.81399" lon="-3.5265">
        <ele>21.64</ele>
        <time>2020-07-08T09:51:39Z</time>
      </trkpt>
      <trkpt lat="47.81402" lon="-3.52651">
        <ele>22.03</ele>
        <time>2020-07-08T09:51:40Z</time>
      </trkpt>
      <trkpt lat="47.81405" lon="-3.52652">
        <ele>22.35</ele>
        <time>2020-07-08T09:51:41Z</time>
      </trkpt>
      <trkpt lat="47.81407" lon="-3.52652">
        <ele>22.64</ele>
        <time>2020-07-08T09:51:42Z</time>
      </trkpt>
      <trkpt lat="47.81408" lon="-3.52653">
        <ele>22.86</ele>
        <time>2020-07-08T09:51:43Z</time>
      </trkpt>
      <trkpt lat="47.8141" lon="-3.52653">
        <ele>23.09</ele>
        <time>2020-07-08T09:51:44Z</time>
      </trkpt>
      <trkpt lat="47.81412" lon="-3.52652">
        <ele>23.37</ele>
        <time>2020-07-08T09:51:45Z</time>
      </trkpt>
      <trkpt lat="47.81415" lon="-3.52652">
        <ele>23.68</ele>
        <time>2020-07-08T09:51:46Z</time>
      </trkpt>
      <trkpt lat="47.81419" lon="-3.52653">
        <ele>24.11</ele>
        <time>2020-07-08T09:51:47Z</time>
      </trkpt>
      <trkpt lat="47.81422" lon="-3.52652">
        <ele>24.61</ele>
        <time>2020-07-08T09:51:48Z</time>
      </trkpt>
      <trkpt lat="47.81425" lon="-3.52652">
        <ele>25.07</ele>
        <time>2020-07-08T09:51:49Z</time>
      </trkpt>
      <trkpt lat="47.81428" lon="-3.52652">
        <ele>25.5</ele>
        <time>2020-07-08T09:51:50Z</time>
      </trkpt>
      <trkpt lat="47.8143" lon="-3.52651">
        <ele>25.88</ele>
        <time>2020-07-08T09:51:51Z</time>
      </trkpt>
      <trkpt lat="47.81432" lon="-3.5265">
        <ele>26.23</ele>
        <time>2020-07-08T09:51:52Z</time>
      </trkpt>
      <trkpt lat="47.81435" lon="-3.52649">
        <ele>26.53</ele>
        <time>2020-07-08T09:51:53Z</time>
      </trkpt>
      <trkpt lat="47.81436" lon="-3.52648">
        <ele>26.82</ele>
        <time>2020-07-08T09:51:54Z</time>
      </trkpt>
      <trkpt lat="47.81439" lon="-3.52648">
        <ele>27.12</ele>
        <time>2020-07-08T09:51:55Z</time>
      </trkpt>
      <trkpt lat="47.8144" lon="-3.52648">
        <ele>27.36</ele>
        <time>2020-07-08T09:51:56Z</time>
      </trkpt>
      <trkpt lat="47.81442" lon="-3.52648">
        <ele>27.58</ele>
        <time>2020-07-08T09:51:57Z</time>
      </trkpt>
      <trkpt lat="47.81443" lon="-3.52648">
        <ele>27.77</ele>
        <time>2020-07-08T09:51:58Z</time>
      </trkpt>
      <trkpt lat="47.81445" lon="-3.52648">
        <ele>28</ele>
        <time>2020-07-08T09:51:59Z</time>
      </trkpt>
      <trkpt lat="47.81446" lon="-3.52647">
        <ele>28.17</ele>
        <time>2020-07-08T09:52:00Z</time>
      </trkpt>
      <trkpt lat="47.81449" lon="-3.52645">
        <ele>28.42</ele>
        <time>2020-07-08T09:52:01Z</time>
      </trkpt>
      <trkpt lat="47.81451" lon="-3.52644">
        <ele>28.64</ele>
        <time>2020-07-08T09:52:02Z</time>
      </trkpt>
      <trkpt lat="47.81453" lon="-3.52642">
        <ele>28.86</ele>
        <time>2020-07-08T09:52:03Z</time>
      </trkpt>
      <trkpt lat="47.81455" lon="-3.52641">
        <ele>29.07</ele>
        <time>2020-07-08T09:52:04Z</time>
      </trkpt>
      <trkpt lat="47.81456" lon="-3.52641">
        <ele>29.28</ele>
        <time>2020-07-08T09:52:05Z</time>
      </trkpt>
      <trkpt lat="47.81458" lon="-3.52642">
        <ele>29.5</ele>
        <time>2020-07-08T09:52:06Z</time>
      </trkpt>
      <trkpt lat="47.8146" lon="-3.52641">
        <ele>29.7</ele>
        <time>2020-07-08T09:52:07Z</time>
      </trkpt>
      <trkpt lat="47.81462" lon="-3.5264">
        <ele>29.87</ele>
        <time>2020-07-08T09:52:08Z</time>
      </trkpt>
      <trkpt lat="47.81464" lon="-3.52638">
        <ele>30.09</ele>
        <time>2020-07-08T09:52:09Z</time>
      </trkpt>
      <trkpt lat="47.81466" lon="-3.52637">
        <ele>30.32</ele>
        <time>2020-07-08T09:52:10Z</time>
      </trkpt>
      <trkpt lat="47.81467" lon="-3.52637">
        <ele>30.55</ele>
        <time>2020-07-08T09:52:11Z</time>
      </trkpt>
      <trkpt lat="47.81469" lon="-3.52635">
        <ele>30.82</ele>
        <time>2020-07-08T09:52:12Z</time>
      </trkpt>
      <trkpt lat="47.81471" lon="-3.52635">
        <ele>31.05</ele>
        <time>2020-07-08T09:52:13Z</time>
      </trkpt>
      <trkpt lat="47.81472" lon="-3.52634">
        <ele>31.25</ele>
        <time>2020-07-08T09:52:14Z</time>
      </trkpt>
      <trkpt lat="47.81474" lon="-3.52635">
        <ele>31.41</ele>
        <time>2020-07-08T09:52:15Z</time>
      </trkpt>
      <trkpt lat="47.81476" lon="-3.52633">
        <ele>31.65</ele>
        <time>2020-07-08T09:52:16Z</time>
      </trkpt>
      <trkpt lat="47.81478" lon="-3.52633">
        <ele>31.85</ele>
        <time>2020-07-08T09:52:17Z</time>
      </trkpt>
      <trkpt lat="47.81481" lon="-3.52633">
        <ele>32.12</ele>
        <time>2020-07-08T09:52:18Z</time>
      </trkpt>
      <trkpt lat="47.81483" lon="-3.52634">
        <ele>32.33</ele>
        <time>2020-07-08T09:52:19Z</time>
      </trkpt>
      <trkpt lat="47.81486" lon="-3.52634">
        <ele>32.55</ele>
        <time>2020-07-08T09:52:20Z</time>
      </trkpt>
      <trkpt lat="47.81488" lon="-3.52633">
        <ele>32.8</ele>
        <time>2020-07-08T09:52:21Z</time>
      </trkpt>
      <trkpt lat="47.81491" lon="-3.52633">
        <ele>33.05</ele>
        <time>2020-07-08T09:52:22Z</time>
      </trkpt>
      <trkpt lat="47.81494" lon="-3.52632">
        <ele>33.33</ele>
        <time>2020-07-08T09:52:23Z</time>
      </trkpt>
      <trkpt lat="47.81496" lon="-3.52632">
        <ele>33.57</ele>
        <time>2020-07-08T09:52:24Z</time>
      </trkpt>
      <trkpt lat="47.81499" lon="-3.52632">
        <ele>33.82</ele>
        <time>2020-07-08T09:52:25Z</time>
      </trkpt>
      <trkpt lat="47.81502" lon="-3.52631">
        <ele>34.05</ele>
        <time>2020-07-08T09:52:26Z</time>
      </trkpt>
      <trkpt lat="47.81505" lon="-3.5263">
        <ele>34.29</ele>
        <time>2020-07-08T09:52:27Z</time>
      </trkpt>
      <trkpt lat="47.81508" lon="-3.5263">
        <ele>34.51</ele>
        <time>2020-07-08T09:52:28Z</time>
      </trkpt>
      <trkpt lat="47.81511" lon="-3.52629">
        <ele>34.73</ele>
        <time>2020-07-08T09:52:29Z</time>
      </trkpt>
      <trkpt lat="47.81514" lon="-3.52627">
        <ele>34.94</ele>
        <time>2020-07-08T09:52:30Z</time>
      </trkpt>
      <trkpt lat="47.81517" lon="-3.52626">
        <ele>35.15</ele>
        <time>2020-07-08T09:52:31Z</time>
      </trkpt>
      <trkpt lat="47.8152" lon="-3.52625">
        <ele>35.35</ele>
        <time>2020-07-08T09:52:32Z</time>
      </trkpt>
      <trkpt lat="47.81523" lon="-3.52625">
        <ele>35.57</ele>
        <time>2020-07-08T09:52:33Z</time>
      </trkpt>
      <trkpt lat="47.81526" lon="-3.52623">
        <ele>35.78</ele>
        <time>2020-07-08T09:52:34Z</time>
      </trkpt>
      <trkpt lat="47.81529" lon="-3.52621">
        <ele>35.99</ele>
        <time>2020-07-08T09:52:35Z</time>
      </trkpt>
      <trkpt lat="47.81532" lon="-3.52619">
        <ele>36.15</ele>
        <time>2020-07-08T09:52:36Z</time>
      </trkpt>
      <trkpt lat="47.81536" lon="-3.52619">
        <ele>36.3</ele>
        <time>2020-07-08T09:52:37Z</time>
      </trkpt>
      <trkpt lat="47.81539" lon="-3.52618">
        <ele>36.44</ele>
        <time>2020-07-08T09:52:38Z</time>
      </trkpt>
      <trkpt lat="47.81542" lon="-3.52617">
        <ele>36.56</ele>
        <time>2020-07-08T09:52:39Z</time>
      </trkpt>
      <trkpt lat="47.81546" lon="-3.52616">
        <ele>36.71</ele>
        <time>2020-07-08T09:52:40Z</time>
      </trkpt>
      <trkpt lat="47.81549" lon="-3.52615">
        <ele>36.83</ele>
        <time>2020-07-08T09:52:41Z</time>
      </trkpt>
      <trkpt lat="47.81552" lon="-3.52613">
        <ele>36.92</ele>
        <time>2020-07-08T09:52:42Z</time>
      </trkpt>
      <trkpt lat="47.81555" lon="-3.52613">
        <ele>37.01</ele>
        <time>2020-07-08T09:52:43Z</time>
      </trkpt>
      <trkpt lat="47.81558" lon="-3.52612">
        <ele>37.17</ele>
        <time>2020-07-08T09:52:44Z</time>
      </trkpt>
      <trkpt lat="47.81562" lon="-3.52611">
        <ele>37.36</ele>
        <time>2020-07-08T09:52:45Z</time>
      </trkpt>
      <trkpt lat="47.81565" lon="-3.5261">
        <ele>37.58</ele>
        <time>2020-07-08T09:52:46Z</time>
      </trkpt>
      <trkpt lat="47.81568" lon="-3.52609">
        <ele>37.76</ele>
        <time>2020-07-08T09:52:47Z</time>
      </trkpt>
      <trkpt lat="47.8157" lon="-3.52608">
        <ele>37.93</ele>
        <time>2020-07-08T09:52:48Z</time>
      </trkpt>
      <trkpt lat="47.81573" lon="-3.52606">
        <ele>38.09</ele>
        <time>2020-07-08T09:52:49Z</time>
      </trkpt>
      <trkpt lat="47.81576" lon="-3.52606">
        <ele>38.26</ele>
        <time>2020-07-08T09:52:50Z</time>
      </trkpt>
      <trkpt lat="47.81579" lon="-3.52604">
        <ele>38.43</ele>
        <time>2020-07-08T09:52:51Z</time>
      </trkpt>
      <trkpt lat="47.81582" lon="-3.52603">
        <ele>38.59</ele>
        <time>2020-07-08T09:52:52Z</time>
      </trkpt>
      <trkpt lat="47.81586" lon="-3.52602">
        <ele>38.77</ele>
        <time>2020-07-08T09:52:53Z</time>
      </trkpt>
      <trkpt lat="47.81589" lon="-3.52601">
        <ele>38.96</ele>
        <time>2020-07-08T09:52:54Z</time>
      </trkpt>
      <trkpt lat="47.81593" lon="-3.526">
        <ele>39.16</ele>
        <time>2020-07-08T09:52:55Z</time>
      </trkpt>
      <trkpt lat="47.81596" lon="-3.52599">
        <ele>39.35</ele>
        <time>2020-07-08T09:52:56Z</time>
      </trkpt>
      <trkpt lat="47.81599" lon="-3.52598">
        <ele>39.55</ele>
        <time>2020-07-08T09:52:57Z</time>
      </trkpt>
      <trkpt lat="47.81602" lon="-3.52597">
        <ele>39.75</ele>
        <time>2020-07-08T09:52:58Z</time>
      </trkpt>
      <trkpt lat="47.81605" lon="-3.52596">
        <ele>39.93</ele>
        <time>2020-07-08T09:52:59Z</time>
      </trkpt>
      <trkpt lat="47.81609" lon="-3.52594">
        <ele>40.13</ele>
        <time>2020-07-08T09:53:00Z</time>
      </trkpt>
      <trkpt lat="47.81612" lon="-3.52593">
        <ele>40.3</ele>
        <time>2020-07-08T09:53:01Z</time>
      </trkpt>
      <trkpt lat="47.81615" lon="-3.52592">
        <ele>40.48</ele>
        <time>2020-07-08T09:53:02Z</time>
      </trkpt>
      <trkpt lat="47.81618" lon="-3.52593">
        <ele>40.66</ele>
        <time>2020-07-08T09:53:03Z</time>
      </trkpt>
      <trkpt lat="47.81621" lon="-3.52593">
        <ele>40.85</ele>
        <time>2020-07-08T09:53:04Z</time>
      </trkpt>
      <trkpt lat="47.81625" lon="-3.52592">
        <ele>41.04</ele>
        <time>2020-07-08T09:53:05Z</time>
      </trkpt>
      <trkpt lat="47.81628" lon="-3.52593">
        <ele>41.23</ele>
        <time>2020-07-08T09:53:06Z</time>
      </trkpt>
      <trkpt lat="47.8163" lon="-3.52593">
        <ele>41.41</ele>
        <time>2020-07-08T09:53:07Z</time>
      </trkpt>
      <trkpt lat="47.81632" lon="-3.52593">
        <ele>41.54</ele>
        <time>2020-07-08T09:53:08Z</time>
      </trkpt>
      <trkpt lat="47.81634" lon="-3.52593">
        <ele>41.64</ele>
        <time>2020-07-08T09:53:09Z</time>
      </trkpt>
      <trkpt lat="47.81635" lon="-3.52594">
        <ele>41.71</ele>
        <time>2020-07-08T09:53:10Z</time>
      </trkpt>
      <trkpt lat="47.81635" lon="-3.52597">
        <ele>41.75</ele>
        <time>2020-07-08T09:53:11Z</time>
      </trkpt>
      <trkpt lat="47.81634" lon="-3.526">
        <ele>41.75</ele>
        <time>2020-07-08T09:53:12Z</time>
      </trkpt>
      <trkpt lat="47.81633" lon="-3.52604">
        <ele>41.74</ele>
        <time>2020-07-08T09:53:13Z</time>
      </trkpt>
      <trkpt lat="47.81632" lon="-3.52609">
        <ele>41.73</ele>
        <time>2020-07-08T09:53:14Z</time>
      </trkpt>
      <trkpt lat="47.81631" lon="-3.52613">
        <ele>41.8</ele>
        <time>2020-07-08T09:53:15Z</time>
      </trkpt>
      <trkpt lat="47.8163" lon="-3.52618">
        <ele>42.01</ele>
        <time>2020-07-08T09:53:16Z</time>
      </trkpt>
      <trkpt lat="47.81629" lon="-3.52623">
        <ele>42.29</ele>
        <time>2020-07-08T09:53:17Z</time>
      </trkpt>
      <trkpt lat="47.81629" lon="-3.52629">
        <ele>42.58</ele>
        <time>2020-07-08T09:53:18Z</time>
      </trkpt>
      <trkpt lat="47.81629" lon="-3.52635">
        <ele>42.89</ele>
        <time>2020-07-08T09:53:19Z</time>
      </trkpt>
      <trkpt lat="47.81628" lon="-3.5264">
        <ele>43.1</ele>
        <time>2020-07-08T09:53:20Z</time>
      </trkpt>
      <trkpt lat="47.81627" lon="-3.52646">
        <ele>43.13</ele>
        <time>2020-07-08T09:53:21Z</time>
      </trkpt>
      <trkpt lat="47.81626" lon="-3.52652">
        <ele>43.11</ele>
        <time>2020-07-08T09:53:22Z</time>
      </trkpt>
      <trkpt lat="47.81626" lon="-3.52658">
        <ele>43.09</ele>
        <time>2020-07-08T09:53:23Z</time>
      </trkpt>
      <trkpt lat="47.81626" lon="-3.52664">
        <ele>43.06</ele>
        <time>2020-07-08T09:53:24Z</time>
      </trkpt>
      <trkpt lat="47.81625" lon="-3.52669">
        <ele>43.05</ele>
        <time>2020-07-08T09:53:25Z</time>
      </trkpt>
      <trkpt lat="47.81624" lon="-3.52675">
        <ele>43.09</ele>
        <time>2020-07-08T09:53:26Z</time>
      </trkpt>
      <trkpt lat="47.81624" lon="-3.52681">
        <ele>43.15</ele>
        <time>2020-07-08T09:53:27Z</time>
      </trkpt>
      <trkpt lat="47.81623" lon="-3.52687">
        <ele>43.18</ele>
        <time>2020-07-08T09:53:28Z</time>
      </trkpt>
      <trkpt lat="47.81623" lon="-3.52693">
        <ele>43.24</ele>
        <time>2020-07-08T09:53:29Z</time>
      </trkpt>
      <trkpt lat="47.81623" lon="-3.52699">
        <ele>43.23</ele>
        <time>2020-07-08T09:53:30Z</time>
      </trkpt>
      <trkpt lat="47.81623" lon="-3.52706">
        <ele>43.16</ele>
        <time>2020-07-08T09:53:31Z</time>
      </trkpt>
      <trkpt lat="47.81623" lon="-3.52713">
        <ele>43.06</ele>
        <time>2020-07-08T09:53:32Z</time>
      </trkpt>
      <trkpt lat="47.81623" lon="-3.5272">
        <ele>42.93</ele>
        <time>2020-07-08T09:53:33Z</time>
      </trkpt>
      <trkpt lat="47.81623" lon="-3.52728">
        <ele>42.87</ele>
        <time>2020-07-08T09:53:34Z</time>
      </trkpt>
      <trkpt lat="47.81623" lon="-3.52735">
        <ele>42.85</ele>
        <time>2020-07-08T09:53:35Z</time>
      </trkpt>
      <trkpt lat="47.81623" lon="-3.52743">
        <ele>42.85</ele>
        <time>2020-07-08T09:53:36Z</time>
      </trkpt>
      <trkpt lat="47.81623" lon="-3.52751">
        <ele>42.86</ele>
        <time>2020-07-08T09:53:37Z</time>
      </trkpt>
      <trkpt lat="47.81623" lon="-3.52759">
        <ele>42.83</ele>
        <time>2020-07-08T09:53:38Z</time>
      </trkpt>
      <trkpt lat="47.81623" lon="-3.52766">
        <ele>42.83</ele>
        <time>2020-07-08T09:53:39Z</time>
      </trkpt>
      <trkpt lat="47.81623" lon="-3.52774">
        <ele>42.85</ele>
        <time>2020-07-08T09:53:40Z</time>
      </trkpt>
      <trkpt lat="47.81623" lon="-3.52781">
        <ele>42.84</ele>
        <time>2020-07-08T09:53:41Z</time>
      </trkpt>
      <trkpt lat="47.81623" lon="-3.52788">
        <ele>42.85</ele>
        <time>2020-07-08T09:53:42Z</time>
      </trkpt>
      <trkpt lat="47.81623" lon="-3.52795">
        <ele>42.87</ele>
        <time>2020-07-08T09:53:43Z</time>
      </trkpt>
      <trkpt lat="47.81624" lon="-3.52802">
        <ele>42.9</ele>
        <time>2020-07-08T09:53:44Z</time>
      </trkpt>
      <trkpt lat="47.81624" lon="-3.52808">
        <ele>42.91</ele>
        <time>2020-07-08T09:53:45Z</time>
      </trkpt>
      <trkpt lat="47.81624" lon="-3.52814">
        <ele>42.92</ele>
        <time>2020-07-08T09:53:46Z</time>
      </trkpt>
      <trkpt lat="47.81624" lon="-3.5282">
        <ele>42.93</ele>
        <time>2020-07-08T09:53:47Z</time>
      </trkpt>
      <trkpt lat="47.81624" lon="-3.52827">
        <ele>42.95</ele>
        <time>2020-07-08T09:53:48Z</time>
      </trkpt>
      <trkpt lat="47.81625" lon="-3.52834">
        <ele>42.96</ele>
        <time>2020-07-08T09:53:49Z</time>
      </trkpt>
      <trkpt lat="47.81625" lon="-3.52841">
        <ele>42.87</ele>
        <time>2020-07-08T09:53:50Z</time>
      </trkpt>
      <trkpt lat="47.81625" lon="-3.52849">
        <ele>42.77</ele>
        <time>2020-07-08T09:53:51Z</time>
      </trkpt>
      <trkpt lat="47.81626" lon="-3.52856">
        <ele>42.68</ele>
        <time>2020-07-08T09:53:52Z</time>
      </trkpt>
      <trkpt lat="47.81626" lon="-3.52863">
        <ele>42.58</ele>
        <time>2020-07-08T09:53:53Z</time>
      </trkpt>
      <trkpt lat="47.81626" lon="-3.52871">
        <ele>42.55</ele>
        <time>2020-07-08T09:53:54Z</time>
      </trkpt>
      <trkpt lat="47.81627" lon="-3.52878">
        <ele>42.56</ele>
        <time>2020-07-08T09:53:55Z</time>
      </trkpt>
      <trkpt lat="47.81627" lon="-3.52886">
        <ele>42.57</ele>
        <time>2020-07-08T09:53:56Z</time>
      </trkpt>
      <trkpt lat="47.81628" lon="-3.52893">
        <ele>42.59</ele>
        <time>2020-07-08T09:53:57Z</time>
      </trkpt>
      <trkpt lat="47.81628" lon="-3.52901">
        <ele>42.6</ele>
        <time>2020-07-08T09:53:58Z</time>
      </trkpt>
      <trkpt lat="47.81628" lon="-3.52909">
        <ele>42.6</ele>
        <time>2020-07-08T09:53:59Z</time>
      </trkpt>
      <trkpt lat="47.81627" lon="-3.52917">
        <ele>42.58</ele>
        <time>2020-07-08T09:54:00Z</time>
      </trkpt>
      <trkpt lat="47.81627" lon="-3.52925">
        <ele>42.38</ele>
        <time>2020-07-08T09:54:01Z</time>
      </trkpt>
      <trkpt lat="47.81627" lon="-3.52932">
        <ele>42.11</ele>
        <time>2020-07-08T09:54:02Z</time>
      </trkpt>
      <trkpt lat="47.81627" lon="-3.52941">
        <ele>41.83</ele>
        <time>2020-07-08T09:54:03Z</time>
      </trkpt>
      <trkpt lat="47.81627" lon="-3.52948">
        <ele>41.65</ele>
        <time>2020-07-08T09:54:04Z</time>
      </trkpt>
      <trkpt lat="47.81627" lon="-3.52957">
        <ele>41.6</ele>
        <time>2020-07-08T09:54:05Z</time>
      </trkpt>
      <trkpt lat="47.81627" lon="-3.52964">
        <ele>41.58</ele>
        <time>2020-07-08T09:54:06Z</time>
      </trkpt>
      <trkpt lat="47.81627" lon="-3.52973">
        <ele>41.58</ele>
        <time>2020-07-08T09:54:07Z</time>
      </trkpt>
      <trkpt lat="47.81627" lon="-3.52981">
        <ele>41.49</ele>
        <time>2020-07-08T09:54:08Z</time>
      </trkpt>
      <trkpt lat="47.81628" lon="-3.52988">
        <ele>41.39</ele>
        <time>2020-07-08T09:54:09Z</time>
      </trkpt>
      <trkpt lat="47.81628" lon="-3.52996">
        <ele>41.31</ele>
        <time>2020-07-08T09:54:10Z</time>
      </trkpt>
      <trkpt lat="47.81629" lon="-3.53004">
        <ele>41.2</ele>
        <time>2020-07-08T09:54:11Z</time>
      </trkpt>
      <trkpt lat="47.81629" lon="-3.53013">
        <ele>41.07</ele>
        <time>2020-07-08T09:54:12Z</time>
      </trkpt>
      <trkpt lat="47.8163" lon="-3.5302">
        <ele>40.92</ele>
        <time>2020-07-08T09:54:13Z</time>
      </trkpt>
      <trkpt lat="47.8163" lon="-3.53029">
        <ele>40.75</ele>
        <time>2020-07-08T09:54:14Z</time>
      </trkpt>
      <trkpt lat="47.8163" lon="-3.53036">
        <ele>40.64</ele>
        <time>2020-07-08T09:54:15Z</time>
      </trkpt>
      <trkpt lat="47.8163" lon="-3.53044">
        <ele>40.53</ele>
        <time>2020-07-08T09:54:16Z</time>
      </trkpt>
      <trkpt lat="47.8163" lon="-3.53052">
        <ele>40.43</ele>
        <time>2020-07-08T09:54:17Z</time>
      </trkpt>
      <trkpt lat="47.81629" lon="-3.5306">
        <ele>40.25</ele>
        <time>2020-07-08T09:54:18Z</time>
      </trkpt>
      <trkpt lat="47.81627" lon="-3.53068">
        <ele>40.01</ele>
        <time>2020-07-08T09:54:19Z</time>
      </trkpt>
      <trkpt lat="47.81625" lon="-3.53075">
        <ele>39.75</ele>
        <time>2020-07-08T09:54:20Z</time>
      </trkpt>
      <trkpt lat="47.81622" lon="-3.53083">
        <ele>39.51</ele>
        <time>2020-07-08T09:54:21Z</time>
      </trkpt>
      <trkpt lat="47.81619" lon="-3.5309">
        <ele>39.35</ele>
        <time>2020-07-08T09:54:22Z</time>
      </trkpt>
      <trkpt lat="47.81616" lon="-3.53096">
        <ele>39.22</ele>
        <time>2020-07-08T09:54:23Z</time>
      </trkpt>
      <trkpt lat="47.81613" lon="-3.53101">
        <ele>39.1</ele>
        <time>2020-07-08T09:54:24Z</time>
      </trkpt>
      <trkpt lat="47.81609" lon="-3.53105">
        <ele>38.89</ele>
        <time>2020-07-08T09:54:25Z</time>
      </trkpt>
      <trkpt lat="47.81605" lon="-3.53107">
        <ele>38.55</ele>
        <time>2020-07-08T09:54:26Z</time>
      </trkpt>
      <trkpt lat="47.81601" lon="-3.53107">
        <ele>38.14</ele>
        <time>2020-07-08T09:54:27Z</time>
      </trkpt>
      <trkpt lat="47.81596" lon="-3.53104">
        <ele>37.73</ele>
        <time>2020-07-08T09:54:28Z</time>
      </trkpt>
      <trkpt lat="47.81592" lon="-3.53099">
        <ele>37.36</ele>
        <time>2020-07-08T09:54:29Z</time>
      </trkpt>
      <trkpt lat="47.81587" lon="-3.53094">
        <ele>37.05</ele>
        <time>2020-07-08T09:54:30Z</time>
      </trkpt>
      <trkpt lat="47.81582" lon="-3.5309">
        <ele>36.83</ele>
        <time>2020-07-08T09:54:31Z</time>
      </trkpt>
      <trkpt lat="47.81577" lon="-3.53086">
        <ele>36.74</ele>
        <time>2020-07-08T09:54:32Z</time>
      </trkpt>
      <trkpt lat="47.81572" lon="-3.53082">
        <ele>36.67</ele>
        <time>2020-07-08T09:54:33Z</time>
      </trkpt>
      <trkpt lat="47.81567" lon="-3.53078">
        <ele>36.63</ele>
        <time>2020-07-08T09:54:34Z</time>
      </trkpt>
      <trkpt lat="47.81561" lon="-3.53074">
        <ele>36.57</ele>
        <time>2020-07-08T09:54:35Z</time>
      </trkpt>
      <trkpt lat="47.81556" lon="-3.5307">
        <ele>36.53</ele>
        <time>2020-07-08T09:54:36Z</time>
      </trkpt>
      <trkpt lat="47.81551" lon="-3.53066">
        <ele>36.54</ele>
        <time>2020-07-08T09:54:37Z</time>
      </trkpt>
      <trkpt lat="47.81547" lon="-3.53062">
        <ele>36.53</ele>
        <time>2020-07-08T09:54:38Z</time>
      </trkpt>
      <trkpt lat="47.81542" lon="-3.53058">
        <ele>36.48</ele>
        <time>2020-07-08T09:54:39Z</time>
      </trkpt>
      <trkpt lat="47.81537" lon="-3.53054">
        <ele>36.39</ele>
        <time>2020-07-08T09:54:40Z</time>
      </trkpt>
      <trkpt lat="47.81533" lon="-3.5305">
        <ele>36.26</ele>
        <time>2020-07-08T09:54:41Z</time>
      </trkpt>
      <trkpt lat="47.81528" lon="-3.53046">
        <ele>36.08</ele>
        <time>2020-07-08T09:54:42Z</time>
      </trkpt>
      <trkpt lat="47.81523" lon="-3.53043">
        <ele>36.02</ele>
        <time>2020-07-08T09:54:43Z</time>
      </trkpt>
      <trkpt lat="47.81519" lon="-3.53039">
        <ele>36.01</ele>
        <time>2020-07-08T09:54:44Z</time>
      </trkpt>
      <trkpt lat="47.81514" lon="-3.53036">
        <ele>36</ele>
        <time>2020-07-08T09:54:45Z</time>
      </trkpt>
      <trkpt lat="47.8151" lon="-3.53033">
        <ele>36</ele>
        <time>2020-07-08T09:54:46Z</time>
      </trkpt>
      <trkpt lat="47.81505" lon="-3.5303">
        <ele>36</ele>
        <time>2020-07-08T09:54:47Z</time>
      </trkpt>
      <trkpt lat="47.81502" lon="-3.53027">
        <ele>36</ele>
        <time>2020-07-08T09:54:48Z</time>
      </trkpt>
      <trkpt lat="47.81499" lon="-3.53026">
        <ele>36</ele>
        <time>2020-07-08T09:54:49Z</time>
      </trkpt>
      <trkpt lat="47.81496" lon="-3.53024">
        <ele>36</ele>
        <time>2020-07-08T09:54:50Z</time>
      </trkpt>
      <trkpt lat="47.81494" lon="-3.53023">
        <ele>36</ele>
        <time>2020-07-08T09:54:51Z</time>
      </trkpt>
      <trkpt lat="47.81492" lon="-3.53019">
        <ele>36</ele>
        <time>2020-07-08T09:54:52Z</time>
      </trkpt>
      <trkpt lat="47.81489" lon="-3.53014">
        <ele>36</ele>
        <time>2020-07-08T09:54:53Z</time>
      </trkpt>
      <trkpt lat="47.81488" lon="-3.53011">
        <ele>36</ele>
        <time>2020-07-08T09:54:54Z</time>
      </trkpt>
      <trkpt lat="47.81486" lon="-3.53006">
        <ele>36</ele>
        <time>2020-07-08T09:54:55Z</time>
      </trkpt>
      <trkpt lat="47.81484" lon="-3.53">
        <ele>36</ele>
        <time>2020-07-08T09:54:56Z</time>
      </trkpt>
      <trkpt lat="47.81483" lon="-3.52994">
        <ele>36</ele>
        <time>2020-07-08T09:54:57Z</time>
      </trkpt>
      <trkpt lat="47.81481" lon="-3.52988">
        <ele>36</ele>
        <time>2020-07-08T09:54:58Z</time>
      </trkpt>
      <trkpt lat="47.81479" lon="-3.52981">
        <ele>36</ele>
        <time>2020-07-08T09:54:59Z</time>
      </trkpt>
      <trkpt lat="47.81477" lon="-3.52977">
        <ele>36</ele>
        <time>2020-07-08T09:55:00Z</time>
      </trkpt>
      <trkpt lat="47.81475" lon="-3.52976">
        <ele>36</ele>
        <time>2020-07-08T09:55:01Z</time>
      </trkpt>
      <trkpt lat="47.81471" lon="-3.52975">
        <ele>35.95</ele>
        <time>2020-07-08T09:55:02Z</time>
      </trkpt>
      <trkpt lat="47.81468" lon="-3.52974">
        <ele>35.76</ele>
        <time>2020-07-08T09:55:03Z</time>
      </trkpt>
      <trkpt lat="47.81464" lon="-3.52974">
        <ele>35.52</ele>
        <time>2020-07-08T09:55:04Z</time>
      </trkpt>
      <trkpt lat="47.81461" lon="-3.52974">
        <ele>35.25</ele>
        <time>2020-07-08T09:55:05Z</time>
      </trkpt>
      <trkpt lat="47.81457" lon="-3.52975">
        <ele>34.97</ele>
        <time>2020-07-08T09:55:06Z</time>
      </trkpt>
      <trkpt lat="47.81453" lon="-3.52976">
        <ele>34.68</ele>
        <time>2020-07-08T09:55:07Z</time>
      </trkpt>
      <trkpt lat="47.8145" lon="-3.52977">
        <ele>34.39</ele>
        <time>2020-07-08T09:55:08Z</time>
      </trkpt>
      <trkpt lat="47.81446" lon="-3.52979">
        <ele>34.06</ele>
        <time>2020-07-08T09:55:09Z</time>
      </trkpt>
      <trkpt lat="47.81443" lon="-3.52981">
        <ele>33.56</ele>
        <time>2020-07-08T09:55:10Z</time>
      </trkpt>
      <trkpt lat="47.8144" lon="-3.52983">
        <ele>32.78</ele>
        <time>2020-07-08T09:55:11Z</time>
      </trkpt>
      <trkpt lat="47.81436" lon="-3.52985">
        <ele>31.78</ele>
        <time>2020-07-08T09:55:12Z</time>
      </trkpt>
      <trkpt lat="47.81432" lon="-3.52986">
        <ele>30.76</ele>
        <time>2020-07-08T09:55:13Z</time>
      </trkpt>
      <trkpt lat="47.81428" lon="-3.52987">
        <ele>29.73</ele>
        <time>2020-07-08T09:55:14Z</time>
      </trkpt>
      <trkpt lat="47.81424" lon="-3.52988">
        <ele>28.67</ele>
        <time>2020-07-08T09:55:15Z</time>
      </trkpt>
      <trkpt lat="47.8142" lon="-3.5299">
        <ele>27.45</ele>
        <time>2020-07-08T09:55:16Z</time>
      </trkpt>
      <trkpt lat="47.81415" lon="-3.52992">
        <ele>26.21</ele>
        <time>2020-07-08T09:55:17Z</time>
      </trkpt>
      <trkpt lat="47.8141" lon="-3.52994">
        <ele>25.39</ele>
        <time>2020-07-08T09:55:18Z</time>
      </trkpt>
      <trkpt lat="47.81406" lon="-3.52997">
        <ele>24.75</ele>
        <time>2020-07-08T09:55:19Z</time>
      </trkpt>
      <trkpt lat="47.81402" lon="-3.52998">
        <ele>24.27</ele>
        <time>2020-07-08T09:55:20Z</time>
      </trkpt>
      <trkpt lat="47.81398" lon="-3.53">
        <ele>23.78</ele>
        <time>2020-07-08T09:55:21Z</time>
      </trkpt>
      <trkpt lat="47.81393" lon="-3.53002">
        <ele>23.27</ele>
        <time>2020-07-08T09:55:22Z</time>
      </trkpt>
      <trkpt lat="47.81388" lon="-3.53004">
        <ele>22.51</ele>
        <time>2020-07-08T09:55:23Z</time>
      </trkpt>
      <trkpt lat="47.81384" lon="-3.53007">
        <ele>21.52</ele>
        <time>2020-07-08T09:55:24Z</time>
      </trkpt>
      <trkpt lat="47.81382" lon="-3.53012">
        <ele>20.5</ele>
        <time>2020-07-08T09:55:25Z</time>
      </trkpt>
      <trkpt lat="47.8138" lon="-3.53016">
        <ele>19.55</ele>
        <time>2020-07-08T09:55:26Z</time>
      </trkpt>
      <trkpt lat="47.8138" lon="-3.5302">
        <ele>18.77</ele>
        <time>2020-07-08T09:55:27Z</time>
      </trkpt>
      <trkpt lat="47.81378" lon="-3.53024">
        <ele>17.9</ele>
        <time>2020-07-08T09:55:28Z</time>
      </trkpt>
      <trkpt lat="47.81375" lon="-3.53028">
        <ele>16.95</ele>
        <time>2020-07-08T09:55:29Z</time>
      </trkpt>
      <trkpt lat="47.81373" lon="-3.53031">
        <ele>16.11</ele>
        <time>2020-07-08T09:55:30Z</time>
      </trkpt>
      <trkpt lat="47.81372" lon="-3.53034">
        <ele>15.38</ele>
        <time>2020-07-08T09:55:31Z</time>
      </trkpt>
      <trkpt lat="47.81372" lon="-3.53038">
        <ele>14.78</ele>
        <time>2020-07-08T09:55:32Z</time>
      </trkpt>
      <trkpt lat="47.81373" lon="-3.53043">
        <ele>14.18</ele>
        <time>2020-07-08T09:55:33Z</time>
      </trkpt>
      <trkpt lat="47.81375" lon="-3.5305">
        <ele>13.52</ele>
        <time>2020-07-08T09:55:34Z</time>
      </trkpt>
      <trkpt lat="47.81375" lon="-3.53055">
        <ele>12.9</ele>
        <time>2020-07-08T09:55:35Z</time>
      </trkpt>
      <trkpt lat="47.81375" lon="-3.53057">
        <ele>12.45</ele>
        <time>2020-07-08T09:55:36Z</time>
      </trkpt>
      <trkpt lat="47.81374" lon="-3.53059">
        <ele>12.06</ele>
        <time>2020-07-08T09:55:37Z</time>
      </trkpt>
      <trkpt lat="47.81372" lon="-3.53059">
        <ele>11.72</ele>
        <time>2020-07-08T09:55:38Z</time>
      </trkpt>
      <trkpt lat="47.8137" lon="-3.53058">
        <ele>11.4</ele>
        <time>2020-07-08T09:55:39Z</time>
      </trkpt>
      <trkpt lat="47.81367" lon="-3.53057">
        <ele>11.04</ele>
        <time>2020-07-08T09:55:40Z</time>
      </trkpt>
      <trkpt lat="47.81365" lon="-3.53056">
        <ele>10.79</ele>
        <time>2020-07-08T09:55:41Z</time>
      </trkpt>
      <trkpt lat="47.8136" lon="-3.53054">
        <ele>10.28</ele>
        <time>2020-07-08T09:55:42Z</time>
      </trkpt>
      <trkpt lat="47.81357" lon="-3.53053">
        <ele>9.74</ele>
        <time>2020-07-08T09:55:43Z</time>
      </trkpt>
      <trkpt lat="47.81354" lon="-3.53051">
        <ele>9.33</ele>
        <time>2020-07-08T09:55:44Z</time>
      </trkpt>
      <trkpt lat="47.81352" lon="-3.53049">
        <ele>9.07</ele>
        <time>2020-07-08T09:55:45Z</time>
      </trkpt>
      <trkpt lat="47.8135" lon="-3.53048">
        <ele>8.73</ele>
        <time>2020-07-08T09:55:46Z</time>
      </trkpt>
      <trkpt lat="47.81347" lon="-3.53049">
        <ele>8.11</ele>
        <time>2020-07-08T09:55:47Z</time>
      </trkpt>
      <trkpt lat="47.81344" lon="-3.53048">
        <ele>7.61</ele>
        <time>2020-07-08T09:55:48Z</time>
      </trkpt>
      <trkpt lat="47.81341" lon="-3.53048">
        <ele>7.11</ele>
        <time>2020-07-08T09:55:49Z</time>
      </trkpt>
      <trkpt lat="47.81339" lon="-3.53047">
        <ele>6.59</ele>
        <time>2020-07-08T09:55:50Z</time>
      </trkpt>
      <trkpt lat="47.81336" lon="-3.53048">
        <ele>5.97</ele>
        <time>2020-07-08T09:55:51Z</time>
      </trkpt>
      <trkpt lat="47.81335" lon="-3.5305">
        <ele>5.33</ele>
        <time>2020-07-08T09:55:52Z</time>
      </trkpt>
      <trkpt lat="47.81334" lon="-3.53054">
        <ele>4.62</ele>
        <time>2020-07-08T09:55:53Z</time>
      </trkpt>
      <trkpt lat="47.81333" lon="-3.53058">
        <ele>4.05</ele>
        <time>2020-07-08T09:55:54Z</time>
      </trkpt>
      <trkpt lat="47.81333" lon="-3.53062">
        <ele>3.66</ele>
        <time>2020-07-08T09:55:55Z</time>
      </trkpt>
      <trkpt lat="47.81334" lon="-3.53066">
        <ele>3.47</ele>
        <time>2020-07-08T09:55:56Z</time>
      </trkpt>
      <trkpt lat="47.81335" lon="-3.5307">
        <ele>3.3</ele>
        <time>2020-07-08T09:55:57Z</time>
      </trkpt>
      <trkpt lat="47.81335" lon="-3.53075">
        <ele>3.06</ele>
        <time>2020-07-08T09:55:58Z</time>
      </trkpt>
      <trkpt lat="47.81336" lon="-3.53078">
        <ele>2.9</ele>
        <time>2020-07-08T09:55:59Z</time>
      </trkpt>
      <trkpt lat="47.81336" lon="-3.5308">
        <ele>2.75</ele>
        <time>2020-07-08T09:56:00Z</time>
      </trkpt>
      <trkpt lat="47.81335" lon="-3.5308">
        <ele>2.62</ele>
        <time>2020-07-08T09:56:01Z</time>
      </trkpt>
      <trkpt lat="47.81335" lon="-3.5308">
        <ele>2.56</ele>
        <time>2020-07-08T09:56:02Z</time>
      </trkpt>
      <trkpt lat="47.81335" lon="-3.5308">
        <ele>2.55</ele>
        <time>2020-07-08T09:56:03Z</time>
      </trkpt>
      <trkpt lat="47.81335" lon="-3.5308">
        <ele>2.55</ele>
        <time>2020-07-08T09:56:04Z</time>
      </trkpt>
      <trkpt lat="47.81335" lon="-3.5308">
        <ele>2.55</ele>
        <time>2020-07-08T09:56:05Z</time>
      </trkpt>
      <trkpt lat="47.81335" lon="-3.5308">
        <ele>2.55</ele>
        <time>2020-07-08T09:56:06Z</time>
      </trkpt>
      <trkpt lat="47.81335" lon="-3.5308">
        <ele>2.55</ele>
        <time>2020-07-08T09:56:07Z</time>
      </trkpt>
      <trkpt lat="47.81335" lon="-3.5308">
        <ele>2.55</ele>
        <time>2020-07-08T09:56:08Z</time>
      </trkpt>
      <trkpt lat="47.81335" lon="-3.5308">
        <ele>2.55</ele>
        <time>2020-07-08T09:56:09Z</time>
      </trkpt>
      <trkpt lat="47.81335" lon="-3.5308">
        <ele>2.55</ele>
        <time>2020-07-08T09:56:10Z</time>
      </trkpt>
      <trkpt lat="47.81335" lon="-3.5308">
        <ele>2.55</ele>
        <time>2020-07-08T09:56:11Z</time>
      </trkpt>
      <trkpt lat="47.81335" lon="-3.5308">
        <ele>2.55</ele>
        <time>2020-07-08T09:56:12Z</time>
      </trkpt>
      <trkpt lat="47.81335" lon="-3.5308">
        <ele>2.55</ele>
        <time>2020-07-08T09:56:13Z</time>
      </trkpt>
      <trkpt lat="47.81335" lon="-3.5308">
        <ele>2.55</ele>
        <time>2020-07-08T09:56:14Z</time>
      </trkpt>
      <trkpt lat="47.81335" lon="-3.5308">
        <ele>2.55</ele>
        <time>2020-07-08T09:56:15Z</time>
      </trkpt>
      <trkpt lat="47.81336" lon="-3.5308">
        <ele>2.65</ele>
        <time>2020-07-08T09:56:16Z</time>
      </trkpt>
      <trkpt lat="47.81336" lon="-3.53082">
        <ele>2.61</ele>
        <time>2020-07-08T09:56:17Z</time>
      </trkpt>
      <trkpt lat="47.81337" lon="-3.53085">
        <ele>2.54</ele>
        <time>2020-07-08T09:56:18Z</time>
      </trkpt>
      <trkpt lat="47.81336" lon="-3.53089">
        <ele>2.39</ele>
        <time>2020-07-08T09:56:19Z</time>
      </trkpt>
      <trkpt lat="47.81337" lon="-3.53092">
        <ele>2.26</ele>
        <time>2020-07-08T09:56:20Z</time>
      </trkpt>
      <trkpt lat="47.81337" lon="-3.53096">
        <ele>2.15</ele>
        <time>2020-07-08T09:56:21Z</time>
      </trkpt>
      <trkpt lat="47.81337" lon="-3.53099">
        <ele>2.08</ele>
        <time>2020-07-08T09:56:22Z</time>
      </trkpt>
      <trkpt lat="47.81338" lon="-3.53102">
        <ele>2.03</ele>
        <time>2020-07-08T09:56:23Z</time>
      </trkpt>
      <trkpt lat="47.81338" lon="-3.53103">
        <ele>1.99</ele>
        <time>2020-07-08T09:56:24Z</time>
      </trkpt>
      <trkpt lat="47.81338" lon="-3.53105">
        <ele>1.99</ele>
        <time>2020-07-08T09:56:25Z</time>
      </trkpt>
      <trkpt lat="47.81339" lon="-3.53106">
        <ele>2.04</ele>
        <time>2020-07-08T09:56:26Z</time>
      </trkpt>
      <trkpt lat="47.81339" lon="-3.53108">
        <ele>1.97</ele>
        <time>2020-07-08T09:56:27Z</time>
      </trkpt>
      <trkpt lat="47.81339" lon="-3.53111">
        <ele>1.84</ele>
        <time>2020-07-08T09:56:28Z</time>
      </trkpt>
      <trkpt lat="47.81339" lon="-3.53114">
        <ele>1.81</ele>
        <time>2020-07-08T09:56:29Z</time>
      </trkpt>
      <trkpt lat="47.81339" lon="-3.53116">
        <ele>1.8</ele>
        <time>2020-07-08T09:56:30Z</time>
      </trkpt>
      <trkpt lat="47.8134" lon="-3.5312">
        <ele>1.81</ele>
        <time>2020-07-08T09:56:31Z</time>
      </trkpt>
      <trkpt lat="47.8134" lon="-3.53122">
        <ele>1.86</ele>
        <time>2020-07-08T09:56:32Z</time>
      </trkpt>
      <trkpt lat="47.81341" lon="-3.53124">
        <ele>1.95</ele>
        <time>2020-07-08T09:56:33Z</time>
      </trkpt>
      <trkpt lat="47.81343" lon="-3.53126">
        <ele>2.14</ele>
        <time>2020-07-08T09:56:34Z</time>
      </trkpt>
      <trkpt lat="47.81346" lon="-3.53128">
        <ele>2.38</ele>
        <time>2020-07-08T09:56:35Z</time>
      </trkpt>
      <trkpt lat="47.81348" lon="-3.5313">
        <ele>2.66</ele>
        <time>2020-07-08T09:56:36Z</time>
      </trkpt>
      <trkpt lat="47.81351" lon="-3.53132">
        <ele>2.94</ele>
        <time>2020-07-08T09:56:37Z</time>
      </trkpt>
      <trkpt lat="47.81354" lon="-3.53134">
        <ele>3.22</ele>
        <time>2020-07-08T09:56:38Z</time>
      </trkpt>
      <trkpt lat="47.81356" lon="-3.53135">
        <ele>3.47</ele>
        <time>2020-07-08T09:56:39Z</time>
      </trkpt>
      <trkpt lat="47.81357" lon="-3.53137">
        <ele>3.61</ele>
        <time>2020-07-08T09:56:40Z</time>
      </trkpt>
      <trkpt lat="47.81359" lon="-3.53137">
        <ele>3.75</ele>
        <time>2020-07-08T09:56:41Z</time>
      </trkpt>
      <trkpt lat="47.8136" lon="-3.53139">
        <ele>3.82</ele>
        <time>2020-07-08T09:56:42Z</time>
      </trkpt>
      <trkpt lat="47.81361" lon="-3.53141">
        <ele>3.86</ele>
        <time>2020-07-08T09:56:43Z</time>
      </trkpt>
      <trkpt lat="47.81362" lon="-3.53141">
        <ele>3.94</ele>
        <time>2020-07-08T09:56:44Z</time>
      </trkpt>
      <trkpt lat="47.81363" lon="-3.53143">
        <ele>3.96</ele>
        <time>2020-07-08T09:56:45Z</time>
      </trkpt>
      <trkpt lat="47.81363" lon="-3.53145">
        <ele>3.91</ele>
        <time>2020-07-08T09:56:46Z</time>
      </trkpt>
      <trkpt lat="47.81363" lon="-3.53148">
        <ele>3.82</ele>
        <time>2020-07-08T09:56:47Z</time>
      </trkpt>
      <trkpt lat="47.81362" lon="-3.53151">
        <ele>3.69</ele>
        <time>2020-07-08T09:56:48Z</time>
      </trkpt>
      <trkpt lat="47.8136" lon="-3.53152">
        <ele>3.51</ele>
        <time>2020-07-08T09:56:49Z</time>
      </trkpt>
      <trkpt lat="47.81359" lon="-3.53154">
        <ele>3.31</ele>
        <time>2020-07-08T09:56:50Z</time>
      </trkpt>
      <trkpt lat="47.81357" lon="-3.53156">
        <ele>3.12</ele>
        <time>2020-07-08T09:56:51Z</time>
      </trkpt>
      <trkpt lat="47.81354" lon="-3.53158">
        <ele>2.88</ele>
        <time>2020-07-08T09:56:52Z</time>
      </trkpt>
      <trkpt lat="47.81353" lon="-3.53158">
        <ele>2.67</ele>
        <time>2020-07-08T09:56:53Z</time>
      </trkpt>
      <trkpt lat="47.81351" lon="-3.53161">
        <ele>2.51</ele>
        <time>2020-07-08T09:56:54Z</time>
      </trkpt>
      <trkpt lat="47.81351" lon="-3.53166">
        <ele>2.34</ele>
        <time>2020-07-08T09:56:55Z</time>
      </trkpt>
      <trkpt lat="47.8135" lon="-3.53171">
        <ele>2.23</ele>
        <time>2020-07-08T09:56:56Z</time>
      </trkpt>
      <trkpt lat="47.81351" lon="-3.53175">
        <ele>2.16</ele>
        <time>2020-07-08T09:56:57Z</time>
      </trkpt>
      <trkpt lat="47.81352" lon="-3.53179">
        <ele>2.17</ele>
        <time>2020-07-08T09:56:58Z</time>
      </trkpt>
      <trkpt lat="47.81353" lon="-3.53184">
        <ele>2.22</ele>
        <time>2020-07-08T09:56:59Z</time>
      </trkpt>
      <trkpt lat="47.81354" lon="-3.53187">
        <ele>2.25</ele>
        <time>2020-07-08T09:57:00Z</time>
      </trkpt>
      <trkpt lat="47.81354" lon="-3.53191">
        <ele>2.27</ele>
        <time>2020-07-08T09:57:01Z</time>
      </trkpt>
      <trkpt lat="47.81355" lon="-3.53194">
        <ele>2.3</ele>
        <time>2020-07-08T09:57:02Z</time>
      </trkpt>
      <trkpt lat="47.81355" lon="-3.53197">
        <ele>2.33</ele>
        <time>2020-07-08T09:57:03Z</time>
      </trkpt>
      <trkpt lat="47.81356" lon="-3.532">
        <ele>2.4</ele>
        <time>2020-07-08T09:57:04Z</time>
      </trkpt>
      <trkpt lat="47.81357" lon="-3.53204">
        <ele>2.48</ele>
        <time>2020-07-08T09:57:05Z</time>
      </trkpt>
      <trkpt lat="47.81358" lon="-3.53209">
        <ele>2.6</ele>
        <time>2020-07-08T09:57:06Z</time>
      </trkpt>
      <trkpt lat="47.81359" lon="-3.53214">
        <ele>2.71</ele>
        <time>2020-07-08T09:57:07Z</time>
      </trkpt>
      <trkpt lat="47.8136" lon="-3.53218">
        <ele>2.82</ele>
        <time>2020-07-08T09:57:08Z</time>
      </trkpt>
      <trkpt lat="47.81361" lon="-3.53221">
        <ele>2.95</ele>
        <time>2020-07-08T09:57:09Z</time>
      </trkpt>
      <trkpt lat="47.81363" lon="-3.53224">
        <ele>3.02</ele>
        <time>2020-07-08T09:57:10Z</time>
      </trkpt>
      <trkpt lat="47.81364" lon="-3.53228">
        <ele>3.06</ele>
        <time>2020-07-08T09:57:11Z</time>
      </trkpt>
      <trkpt lat="47.81365" lon="-3.53231">
        <ele>3.09</ele>
        <time>2020-07-08T09:57:12Z</time>
      </trkpt>
      <trkpt lat="47.81367" lon="-3.53235">
        <ele>3.11</ele>
        <time>2020-07-08T09:57:13Z</time>
      </trkpt>
      <trkpt lat="47.8137" lon="-3.53239">
        <ele>3.11</ele>
        <time>2020-07-08T09:57:14Z</time>
      </trkpt>
      <trkpt lat="47.81372" lon="-3.53249">
        <ele>3.04</ele>
        <time>2020-07-08T09:57:15Z</time>
      </trkpt>
      <trkpt lat="47.81374" lon="-3.53253">
        <ele>3.01</ele>
        <time>2020-07-08T09:57:16Z</time>
      </trkpt>
      <trkpt lat="47.81376" lon="-3.53256">
        <ele>3</ele>
        <time>2020-07-08T09:57:17Z</time>
      </trkpt>
      <trkpt lat="47.81377" lon="-3.53262">
        <ele>3</ele>
        <time>2020-07-08T09:57:18Z</time>
      </trkpt>
      <trkpt lat="47.81379" lon="-3.53267">
        <ele>3</ele>
        <time>2020-07-08T09:57:19Z</time>
      </trkpt>
      <trkpt lat="47.8138" lon="-3.53272">
        <ele>3</ele>
        <time>2020-07-08T09:57:20Z</time>
      </trkpt>
      <trkpt lat="47.81381" lon="-3.53277">
        <ele>3</ele>
        <time>2020-07-08T09:57:21Z</time>
      </trkpt>
      <trkpt lat="47.81381" lon="-3.53282">
        <ele>3</ele>
        <time>2020-07-08T09:57:22Z</time>
      </trkpt>
      <trkpt lat="47.81383" lon="-3.53286">
        <ele>3</ele>
        <time>2020-07-08T09:57:23Z</time>
      </trkpt>
      <trkpt lat="47.81383" lon="-3.53291">
        <ele>3</ele>
        <time>2020-07-08T09:57:24Z</time>
      </trkpt>
      <trkpt lat="47.81384" lon="-3.53295">
        <ele>3</ele>
        <time>2020-07-08T09:57:25Z</time>
      </trkpt>
      <trkpt lat="47.81385" lon="-3.53298">
        <ele>3</ele>
        <time>2020-07-08T09:57:26Z</time>
      </trkpt>
      <trkpt lat="47.81386" lon="-3.53301">
        <ele>3</ele>
        <time>2020-07-08T09:57:27Z</time>
      </trkpt>
      <trkpt lat="47.81386" lon="-3.53304">
        <ele>3</ele>
        <time>2020-07-08T09:57:28Z</time>
      </trkpt>
      <trkpt lat="47.81387" lon="-3.53309">
        <ele>3</ele>
        <time>2020-07-08T09:57:29Z</time>
      </trkpt>
      <trkpt lat="47.81387" lon="-3.53313">
        <ele>3</ele>
        <time>2020-07-08T09:57:30Z</time>
      </trkpt>
      <trkpt lat="47.81389" lon="-3.53317">
        <ele>3</ele>
        <time>2020-07-08T09:57:31Z</time>
      </trkpt>
      <trkpt lat="47.8139" lon="-3.53321">
        <ele>3.01</ele>
        <time>2020-07-08T09:57:32Z</time>
      </trkpt>
      <trkpt lat="47.81391" lon="-3.53325">
        <ele>3.02</ele>
        <time>2020-07-08T09:57:33Z</time>
      </trkpt>
      <trkpt lat="47.81393" lon="-3.53329">
        <ele>3.02</ele>
        <time>2020-07-08T09:57:34Z</time>
      </trkpt>
      <trkpt lat="47.81394" lon="-3.53334">
        <ele>3.01</ele>
        <time>2020-07-08T09:57:35Z</time>
      </trkpt>
      <trkpt lat="47.81396" lon="-3.53338">
        <ele>3</ele>
        <time>2020-07-08T09:57:36Z</time>
      </trkpt>
      <trkpt lat="47.81397" lon="-3.53342">
        <ele>3</ele>
        <time>2020-07-08T09:57:37Z</time>
      </trkpt>
      <trkpt lat="47.81399" lon="-3.53345">
        <ele>3</ele>
        <time>2020-07-08T09:57:38Z</time>
      </trkpt>
      <trkpt lat="47.814" lon="-3.53349">
        <ele>3</ele>
        <time>2020-07-08T09:57:39Z</time>
      </trkpt>
      <trkpt lat="47.81402" lon="-3.53354">
        <ele>3</ele>
        <time>2020-07-08T09:57:40Z</time>
      </trkpt>
      <trkpt lat="47.81404" lon="-3.53358">
        <ele>3</ele>
        <time>2020-07-08T09:57:41Z</time>
      </trkpt>
      <trkpt lat="47.81405" lon="-3.53362">
        <ele>2.99</ele>
        <time>2020-07-08T09:57:42Z</time>
      </trkpt>
      <trkpt lat="47.81407" lon="-3.53367">
        <ele>2.94</ele>
        <time>2020-07-08T09:57:43Z</time>
      </trkpt>
      <trkpt lat="47.81409" lon="-3.53372">
        <ele>2.91</ele>
        <time>2020-07-08T09:57:44Z</time>
      </trkpt>
      <trkpt lat="47.81411" lon="-3.53377">
        <ele>2.9</ele>
        <time>2020-07-08T09:57:45Z</time>
      </trkpt>
      <trkpt lat="47.81413" lon="-3.53381">
        <ele>2.91</ele>
        <time>2020-07-08T09:57:46Z</time>
      </trkpt>
      <trkpt lat="47.81415" lon="-3.53385">
        <ele>2.94</ele>
        <time>2020-07-08T09:57:47Z</time>
      </trkpt>
      <trkpt lat="47.81417" lon="-3.53389">
        <ele>3.02</ele>
        <time>2020-07-08T09:57:48Z</time>
      </trkpt>
      <trkpt lat="47.81419" lon="-3.53393">
        <ele>3.26</ele>
        <time>2020-07-08T09:57:49Z</time>
      </trkpt>
      <trkpt lat="47.8142" lon="-3.53396">
        <ele>3.51</ele>
        <time>2020-07-08T09:57:50Z</time>
      </trkpt>
      <trkpt lat="47.81422" lon="-3.53399">
        <ele>3.74</ele>
        <time>2020-07-08T09:57:51Z</time>
      </trkpt>
      <trkpt lat="47.81424" lon="-3.53403">
        <ele>3.95</ele>
        <time>2020-07-08T09:57:52Z</time>
      </trkpt>
      <trkpt lat="47.81426" lon="-3.53406">
        <ele>4.16</ele>
        <time>2020-07-08T09:57:53Z</time>
      </trkpt>
      <trkpt lat="47.81428" lon="-3.5341">
        <ele>4.38</ele>
        <time>2020-07-08T09:57:54Z</time>
      </trkpt>
      <trkpt lat="47.81431" lon="-3.53414">
        <ele>4.61</ele>
        <time>2020-07-08T09:57:55Z</time>
      </trkpt>
      <trkpt lat="47.81434" lon="-3.53418">
        <ele>4.78</ele>
        <time>2020-07-08T09:57:56Z</time>
      </trkpt>
      <trkpt lat="47.81438" lon="-3.53424">
        <ele>4.86</ele>
        <time>2020-07-08T09:57:57Z</time>
      </trkpt>
      <trkpt lat="47.81442" lon="-3.5343">
        <ele>4.82</ele>
        <time>2020-07-08T09:57:58Z</time>
      </trkpt>
      <trkpt lat="47.81445" lon="-3.53437">
        <ele>4.76</ele>
        <time>2020-07-08T09:57:59Z</time>
      </trkpt>
      <trkpt lat="47.81448" lon="-3.53444">
        <ele>4.98</ele>
        <time>2020-07-08T09:58:00Z</time>
      </trkpt>
      <trkpt lat="47.81451" lon="-3.53452">
        <ele>5.25</ele>
        <time>2020-07-08T09:58:01Z</time>
      </trkpt>
      <trkpt lat="47.81453" lon="-3.5346">
        <ele>5.22</ele>
        <time>2020-07-08T09:58:02Z</time>
      </trkpt>
      <trkpt lat="47.81455" lon="-3.5347">
        <ele>4.93</ele>
        <time>2020-07-08T09:58:03Z</time>
      </trkpt>
      <trkpt lat="47.81457" lon="-3.53477">
        <ele>4.7</ele>
        <time>2020-07-08T09:58:04Z</time>
      </trkpt>
      <trkpt lat="47.81459" lon="-3.53485">
        <ele>4.53</ele>
        <time>2020-07-08T09:58:05Z</time>
      </trkpt>
      <trkpt lat="47.81463" lon="-3.53489">
        <ele>4.49</ele>
        <time>2020-07-08T09:58:06Z</time>
      </trkpt>
      <trkpt lat="47.81467" lon="-3.53491">
        <ele>4.57</ele>
        <time>2020-07-08T09:58:07Z</time>
      </trkpt>
      <trkpt lat="47.81471" lon="-3.53492">
        <ele>4.72</ele>
        <time>2020-07-08T09:58:08Z</time>
      </trkpt>
      <trkpt lat="47.81475" lon="-3.53493">
        <ele>4.9</ele>
        <time>2020-07-08T09:58:09Z</time>
      </trkpt>
      <trkpt lat="47.81479" lon="-3.53495">
        <ele>5.09</ele>
        <time>2020-07-08T09:58:10Z</time>
      </trkpt>
      <trkpt lat="47.81483" lon="-3.53497">
        <ele>5.22</ele>
        <time>2020-07-08T09:58:11Z</time>
      </trkpt>
      <trkpt lat="47.81487" lon="-3.53499">
        <ele>5.25</ele>
        <time>2020-07-08T09:58:12Z</time>
      </trkpt>
      <trkpt lat="47.81491" lon="-3.53501">
        <ele>5.27</ele>
        <time>2020-07-08T09:58:13Z</time>
      </trkpt>
      <trkpt lat="47.81495" lon="-3.53504">
        <ele>5.35</ele>
        <time>2020-07-08T09:58:14Z</time>
      </trkpt>
      <trkpt lat="47.81498" lon="-3.53506">
        <ele>5.41</ele>
        <time>2020-07-08T09:58:15Z</time>
      </trkpt>
      <trkpt lat="47.81502" lon="-3.53509">
        <ele>5.56</ele>
        <time>2020-07-08T09:58:16Z</time>
      </trkpt>
      <trkpt lat="47.81505" lon="-3.53512">
        <ele>5.79</ele>
        <time>2020-07-08T09:58:17Z</time>
      </trkpt>
      <trkpt lat="47.81509" lon="-3.53515">
        <ele>5.98</ele>
        <time>2020-07-08T09:58:18Z</time>
      </trkpt>
      <trkpt lat="47.81512" lon="-3.53517">
        <ele>6.07</ele>
        <time>2020-07-08T09:58:19Z</time>
      </trkpt>
      <trkpt lat="47.81515" lon="-3.5352">
        <ele>6.06</ele>
        <time>2020-07-08T09:58:20Z</time>
      </trkpt>
      <trkpt lat="47.81518" lon="-3.53523">
        <ele>6.02</ele>
        <time>2020-07-08T09:58:21Z</time>
      </trkpt>
      <trkpt lat="47.81521" lon="-3.53525">
        <ele>6.03</ele>
        <time>2020-07-08T09:58:22Z</time>
      </trkpt>
      <trkpt lat="47.81525" lon="-3.53527">
        <ele>5.96</ele>
        <time>2020-07-08T09:58:23Z</time>
      </trkpt>
      <trkpt lat="47.81529" lon="-3.53529">
        <ele>5.95</ele>
        <time>2020-07-08T09:58:24Z</time>
      </trkpt>
      <trkpt lat="47.81532" lon="-3.53531">
        <ele>6.04</ele>
        <time>2020-07-08T09:58:25Z</time>
      </trkpt>
      <trkpt lat="47.81535" lon="-3.53536">
        <ele>5.83</ele>
        <time>2020-07-08T09:58:26Z</time>
      </trkpt>
      <trkpt lat="47.81539" lon="-3.53539">
        <ele>5.7</ele>
        <time>2020-07-08T09:58:27Z</time>
      </trkpt>
      <trkpt lat="47.81543" lon="-3.53542">
        <ele>5.64</ele>
        <time>2020-07-08T09:58:28Z</time>
      </trkpt>
      <trkpt lat="47.81546" lon="-3.53543">
        <ele>5.59</ele>
        <time>2020-07-08T09:58:29Z</time>
      </trkpt>
      <trkpt lat="47.81552" lon="-3.53545">
        <ele>5.66</ele>
        <time>2020-07-08T09:58:30Z</time>
      </trkpt>
      <trkpt lat="47.81557" lon="-3.53547">
        <ele>5.56</ele>
        <time>2020-07-08T09:58:31Z</time>
      </trkpt>
      <trkpt lat="47.81562" lon="-3.53549">
        <ele>5.38</ele>
        <time>2020-07-08T09:58:32Z</time>
      </trkpt>
      <trkpt lat="47.81567" lon="-3.53551">
        <ele>5.24</ele>
        <time>2020-07-08T09:58:33Z</time>
      </trkpt>
      <trkpt lat="47.81571" lon="-3.53553">
        <ele>5.05</ele>
        <time>2020-07-08T09:58:34Z</time>
      </trkpt>
      <trkpt lat="47.81574" lon="-3.53556">
        <ele>4.74</ele>
        <time>2020-07-08T09:58:35Z</time>
      </trkpt>
      <trkpt lat="47.81576" lon="-3.5356">
        <ele>4.53</ele>
        <time>2020-07-08T09:58:36Z</time>
      </trkpt>
      <trkpt lat="47.81578" lon="-3.53564">
        <ele>4.34</ele>
        <time>2020-07-08T09:58:37Z</time>
      </trkpt>
      <trkpt lat="47.8158" lon="-3.53567">
        <ele>4.17</ele>
        <time>2020-07-08T09:58:38Z</time>
      </trkpt>
      <trkpt lat="47.81583" lon="-3.53571">
        <ele>3.98</ele>
        <time>2020-07-08T09:58:39Z</time>
      </trkpt>
      <trkpt lat="47.81586" lon="-3.53575">
        <ele>3.72</ele>
        <time>2020-07-08T09:58:40Z</time>
      </trkpt>
      <trkpt lat="47.81589" lon="-3.53577">
        <ele>3.52</ele>
        <time>2020-07-08T09:58:41Z</time>
      </trkpt>
      <trkpt lat="47.81593" lon="-3.53578">
        <ele>3.38</ele>
        <time>2020-07-08T09:58:42Z</time>
      </trkpt>
      <trkpt lat="47.81596" lon="-3.53579">
        <ele>3.29</ele>
        <time>2020-07-08T09:58:43Z</time>
      </trkpt>
      <trkpt lat="47.81599" lon="-3.53581">
        <ele>3.18</ele>
        <time>2020-07-08T09:58:44Z</time>
      </trkpt>
      <trkpt lat="47.81603" lon="-3.53586">
        <ele>3.03</ele>
        <time>2020-07-08T09:58:45Z</time>
      </trkpt>
      <trkpt lat="47.81607" lon="-3.53588">
        <ele>2.99</ele>
        <time>2020-07-08T09:58:46Z</time>
      </trkpt>
      <trkpt lat="47.81611" lon="-3.53588">
        <ele>3</ele>
        <time>2020-07-08T09:58:47Z</time>
      </trkpt>
      <trkpt lat="47.81615" lon="-3.53589">
        <ele>3</ele>
        <time>2020-07-08T09:58:48Z</time>
      </trkpt>
      <trkpt lat="47.81618" lon="-3.5359">
        <ele>3</ele>
        <time>2020-07-08T09:58:49Z</time>
      </trkpt>
      <trkpt lat="47.81622" lon="-3.53588">
        <ele>3</ele>
        <time>2020-07-08T09:58:50Z</time>
      </trkpt>
      <trkpt lat="47.81626" lon="-3.53586">
        <ele>3</ele>
        <time>2020-07-08T09:58:51Z</time>
      </trkpt>
      <trkpt lat="47.81628" lon="-3.53584">
        <ele>3</ele>
        <time>2020-07-08T09:58:52Z</time>
      </trkpt>
      <trkpt lat="47.81631" lon="-3.53582">
        <ele>3.04</ele>
        <time>2020-07-08T09:58:53Z</time>
      </trkpt>
      <trkpt lat="47.81634" lon="-3.53581">
        <ele>3.14</ele>
        <time>2020-07-08T09:58:54Z</time>
      </trkpt>
      <trkpt lat="47.81637" lon="-3.53579">
        <ele>3.27</ele>
        <time>2020-07-08T09:58:55Z</time>
      </trkpt>
      <trkpt lat="47.8164" lon="-3.53577">
        <ele>3.41</ele>
        <time>2020-07-08T09:58:56Z</time>
      </trkpt>
      <trkpt lat="47.81642" lon="-3.53575">
        <ele>3.58</ele>
        <time>2020-07-08T09:58:57Z</time>
      </trkpt>
      <trkpt lat="47.81646" lon="-3.53574">
        <ele>3.77</ele>
        <time>2020-07-08T09:58:58Z</time>
      </trkpt>
      <trkpt lat="47.81651" lon="-3.53574">
        <ele>3.92</ele>
        <time>2020-07-08T09:58:59Z</time>
      </trkpt>
      <trkpt lat="47.81653" lon="-3.53573">
        <ele>4.01</ele>
        <time>2020-07-08T09:59:00Z</time>
      </trkpt>
      <trkpt lat="47.81656" lon="-3.53574">
        <ele>4.07</ele>
        <time>2020-07-08T09:59:01Z</time>
      </trkpt>
      <trkpt lat="47.81659" lon="-3.53573">
        <ele>4.15</ele>
        <time>2020-07-08T09:59:02Z</time>
      </trkpt>
      <trkpt lat="47.81661" lon="-3.53572">
        <ele>4.26</ele>
        <time>2020-07-08T09:59:03Z</time>
      </trkpt>
      <trkpt lat="47.81664" lon="-3.5357">
        <ele>4.37</ele>
        <time>2020-07-08T09:59:04Z</time>
      </trkpt>
      <trkpt lat="47.81666" lon="-3.53568">
        <ele>4.48</ele>
        <time>2020-07-08T09:59:05Z</time>
      </trkpt>
      <trkpt lat="47.8167" lon="-3.53567">
        <ele>4.46</ele>
        <time>2020-07-08T09:59:06Z</time>
      </trkpt>
      <trkpt lat="47.81673" lon="-3.53567">
        <ele>4.4</ele>
        <time>2020-07-08T09:59:07Z</time>
      </trkpt>
      <trkpt lat="47.81676" lon="-3.53566">
        <ele>4.32</ele>
        <time>2020-07-08T09:59:08Z</time>
      </trkpt>
      <trkpt lat="47.81681" lon="-3.53565">
        <ele>4.2</ele>
        <time>2020-07-08T09:59:09Z</time>
      </trkpt>
      <trkpt lat="47.81685" lon="-3.53564">
        <ele>4.1</ele>
        <time>2020-07-08T09:59:10Z</time>
      </trkpt>
      <trkpt lat="47.81688" lon="-3.53563">
        <ele>4.02</ele>
        <time>2020-07-08T09:59:11Z</time>
      </trkpt>
      <trkpt lat="47.81691" lon="-3.5356">
        <ele>3.98</ele>
        <time>2020-07-08T09:59:12Z</time>
      </trkpt>
      <trkpt lat="47.81694" lon="-3.53558">
        <ele>3.96</ele>
        <time>2020-07-08T09:59:13Z</time>
      </trkpt>
      <trkpt lat="47.81696" lon="-3.53556">
        <ele>3.94</ele>
        <time>2020-07-08T09:59:14Z</time>
      </trkpt>
      <trkpt lat="47.81699" lon="-3.53552">
        <ele>3.96</ele>
        <time>2020-07-08T09:59:15Z</time>
      </trkpt>
      <trkpt lat="47.81701" lon="-3.53548">
        <ele>3.99</ele>
        <time>2020-07-08T09:59:16Z</time>
      </trkpt>
      <trkpt lat="47.81703" lon="-3.53547">
        <ele>4</ele>
        <time>2020-07-08T09:59:17Z</time>
      </trkpt>
      <trkpt lat="47.81705" lon="-3.53544">
        <ele>4.03</ele>
        <time>2020-07-08T09:59:18Z</time>
      </trkpt>
      <trkpt lat="47.81706" lon="-3.53542">
        <ele>4.04</ele>
        <time>2020-07-08T09:59:19Z</time>
      </trkpt>
      <trkpt lat="47.81708" lon="-3.53542">
        <ele>4.03</ele>
        <time>2020-07-08T09:59:20Z</time>
      </trkpt>
      <trkpt lat="47.8171" lon="-3.53541">
        <ele>3.99</ele>
        <time>2020-07-08T09:59:21Z</time>
      </trkpt>
      <trkpt lat="47.81711" lon="-3.53541">
        <ele>3.94</ele>
        <time>2020-07-08T09:59:22Z</time>
      </trkpt>
      <trkpt lat="47.81712" lon="-3.53539">
        <ele>3.94</ele>
        <time>2020-07-08T09:59:23Z</time>
      </trkpt>
      <trkpt lat="47.81714" lon="-3.53538">
        <ele>3.93</ele>
        <time>2020-07-08T09:59:24Z</time>
      </trkpt>
      <trkpt lat="47.81714" lon="-3.53538">
        <ele>3.92</ele>
        <time>2020-07-08T09:59:25Z</time>
      </trkpt>
      <trkpt lat="47.81715" lon="-3.53537">
        <ele>3.92</ele>
        <time>2020-07-08T09:59:26Z</time>
      </trkpt>
      <trkpt lat="47.81715" lon="-3.53537">
        <ele>3.92</ele>
        <time>2020-07-08T09:59:27Z</time>
      </trkpt>
      <trkpt lat="47.81715" lon="-3.53537">
        <ele>3.92</ele>
        <time>2020-07-08T09:59:28Z</time>
      </trkpt>
      <trkpt lat="47.81715" lon="-3.53537">
        <ele>3.92</ele>
        <time>2020-07-08T09:59:29Z</time>
      </trkpt>
      <trkpt lat="47.81715" lon="-3.53537">
        <ele>3.92</ele>
        <time>2020-07-08T09:59:30Z</time>
      </trkpt>
      <trkpt lat="47.81715" lon="-3.53537">
        <ele>3.92</ele>
        <time>2020-07-08T09:59:31Z</time>
      </trkpt>
      <trkpt lat="47.81715" lon="-3.53537">
        <ele>3.92</ele>
        <time>2020-07-08T09:59:32Z</time>
      </trkpt>
      <trkpt lat="47.81715" lon="-3.53537">
        <ele>3.92</ele>
        <time>2020-07-08T09:59:33Z</time>
      </trkpt>
      <trkpt lat="47.81715" lon="-3.53537">
        <ele>3.92</ele>
        <time>2020-07-08T09:59:34Z</time>
      </trkpt>
      <trkpt lat="47.81715" lon="-3.53537">
        <ele>3.92</ele>
        <time>2020-07-08T09:59:35Z</time>
      </trkpt>
      <trkpt lat="47.81715" lon="-3.53537">
        <ele>3.92</ele>
        <time>2020-07-08T09:59:36Z</time>
      </trkpt>
      <trkpt lat="47.81715" lon="-3.53537">
        <ele>3.92</ele>
        <time>2020-07-08T09:59:37Z</time>
      </trkpt>
      <trkpt lat="47.81715" lon="-3.53537">
        <ele>3.92</ele>
        <time>2020-07-08T09:59:38Z</time>
      </trkpt>
      <trkpt lat="47.81715" lon="-3.53537">
        <ele>3.92</ele>
        <time>2020-07-08T09:59:39Z</time>
      </trkpt>
      <trkpt lat="47.81715" lon="-3.53537">
        <ele>3.92</ele>
        <time>2020-07-08T09:59:40Z</time>
      </trkpt>
      <trkpt lat="47.81715" lon="-3.53537">
        <ele>3.92</ele>
        <time>2020-07-08T09:59:41Z</time>
      </trkpt>
      <trkpt lat="47.81715" lon="-3.53537">
        <ele>3.92</ele>
        <time>2020-07-08T09:59:42Z</time>
      </trkpt>
      <trkpt lat="47.81715" lon="-3.53537">
        <ele>3.92</ele>
        <time>2020-07-08T09:59:43Z</time>
      </trkpt>
      <trkpt lat="47.81722" lon="-3.53532">
        <ele>3.88</ele>
        <time>2020-07-08T09:59:44Z</time>
      </trkpt>
      <trkpt lat="47.81724" lon="-3.5353">
        <ele>3.9</ele>
        <time>2020-07-08T09:59:45Z</time>
      </trkpt>
      <trkpt lat="47.81725" lon="-3.5353">
        <ele>3.91</ele>
        <time>2020-07-08T09:59:46Z</time>
      </trkpt>
      <trkpt lat="47.81727" lon="-3.53529">
        <ele>3.95</ele>
        <time>2020-07-08T09:59:47Z</time>
      </trkpt>
      <trkpt lat="47.81728" lon="-3.53528">
        <ele>3.98</ele>
        <time>2020-07-08T09:59:48Z</time>
      </trkpt>
      <trkpt lat="47.81729" lon="-3.53528">
        <ele>3.99</ele>
        <time>2020-07-08T09:59:49Z</time>
      </trkpt>
      <trkpt lat="47.81731" lon="-3.53527">
        <ele>4.05</ele>
        <time>2020-07-08T09:59:50Z</time>
      </trkpt>
      <trkpt lat="47.81733" lon="-3.53526">
        <ele>4.13</ele>
        <time>2020-07-08T09:59:51Z</time>
      </trkpt>
      <trkpt lat="47.81735" lon="-3.53525">
        <ele>4.21</ele>
        <time>2020-07-08T09:59:52Z</time>
      </trkpt>
      <trkpt lat="47.81737" lon="-3.53525">
        <ele>4.23</ele>
        <time>2020-07-08T09:59:53Z</time>
      </trkpt>
      <trkpt lat="47.81739" lon="-3.53524">
        <ele>4.22</ele>
        <time>2020-07-08T09:59:54Z</time>
      </trkpt>
      <trkpt lat="47.81743" lon="-3.53522">
        <ele>4.28</ele>
        <time>2020-07-08T09:59:55Z</time>
      </trkpt>
      <trkpt lat="47.81745" lon="-3.53521">
        <ele>4.32</ele>
        <time>2020-07-08T09:59:56Z</time>
      </trkpt>
      <trkpt lat="47.81747" lon="-3.53519">
        <ele>4.36</ele>
        <time>2020-07-08T09:59:57Z</time>
      </trkpt>
      <trkpt lat="47.81749" lon="-3.53518">
        <ele>4.39</ele>
        <time>2020-07-08T09:59:58Z</time>
      </trkpt>
      <trkpt lat="47.8175" lon="-3.53516">
        <ele>4.42</ele>
        <time>2020-07-08T09:59:59Z</time>
      </trkpt>
      <trkpt lat="47.81752" lon="-3.53514">
        <ele>4.45</ele>
        <time>2020-07-08T10:00:00Z</time>
      </trkpt>
      <trkpt lat="47.81753" lon="-3.53513">
        <ele>4.48</ele>
        <time>2020-07-08T10:00:01Z</time>
      </trkpt>
      <trkpt lat="47.81753" lon="-3.53511">
        <ele>4.52</ele>
        <time>2020-07-08T10:00:02Z</time>
      </trkpt>
      <trkpt lat="47.81754" lon="-3.5351">
        <ele>4.55</ele>
        <time>2020-07-08T10:00:03Z</time>
      </trkpt>
      <trkpt lat="47.81754" lon="-3.5351">
        <ele>4.55</ele>
        <time>2020-07-08T10:00:04Z</time>
      </trkpt>
      <trkpt lat="47.81754" lon="-3.5351">
        <ele>4.56</ele>
        <time>2020-07-08T10:00:05Z</time>
      </trkpt>
      <trkpt lat="47.81754" lon="-3.5351">
        <ele>4.56</ele>
        <time>2020-07-08T10:00:06Z</time>
      </trkpt>
      <trkpt lat="47.81754" lon="-3.5351">
        <ele>4.56</ele>
        <time>2020-07-08T10:00:07Z</time>
      </trkpt>
      <trkpt lat="47.81754" lon="-3.5351">
        <ele>4.56</ele>
        <time>2020-07-08T10:00:08Z</time>
      </trkpt>
      <trkpt lat="47.81754" lon="-3.5351">
        <ele>4.56</ele>
        <time>2020-07-08T10:00:09Z</time>
      </trkpt>
      <trkpt lat="47.81754" lon="-3.5351">
        <ele>4.56</ele>
        <time>2020-07-08T10:00:10Z</time>
      </trkpt>
      <trkpt lat="47.81754" lon="-3.5351">
        <ele>4.56</ele>
        <time>2020-07-08T10:00:11Z</time>
      </trkpt>
      <trkpt lat="47.81754" lon="-3.5351">
        <ele>4.56</ele>
        <time>2020-07-08T10:00:12Z</time>
      </trkpt>
      <trkpt lat="47.81754" lon="-3.5351">
        <ele>4.56</ele>
        <time>2020-07-08T10:00:13Z</time>
      </trkpt>
      <trkpt lat="47.81762" lon="-3.53502">
        <ele>4.52</ele>
        <time>2020-07-08T10:00:14Z</time>
      </trkpt>
      <trkpt lat="47.81764" lon="-3.53502">
        <ele>4.49</ele>
        <time>2020-07-08T10:00:15Z</time>
      </trkpt>
      <trkpt lat="47.81764" lon="-3.53502">
        <ele>4.45</ele>
        <time>2020-07-08T10:00:16Z</time>
      </trkpt>
      <trkpt lat="47.81766" lon="-3.53502">
        <ele>4.42</ele>
        <time>2020-07-08T10:00:17Z</time>
      </trkpt>
      <trkpt lat="47.81767" lon="-3.53502">
        <ele>4.39</ele>
        <time>2020-07-08T10:00:18Z</time>
      </trkpt>
      <trkpt lat="47.81768" lon="-3.53501">
        <ele>4.36</ele>
        <time>2020-07-08T10:00:19Z</time>
      </trkpt>
      <trkpt lat="47.81768" lon="-3.53501">
        <ele>4.35</ele>
        <time>2020-07-08T10:00:20Z</time>
      </trkpt>
      <trkpt lat="47.81768" lon="-3.53501">
        <ele>4.35</ele>
        <time>2020-07-08T10:00:21Z</time>
      </trkpt>
      <trkpt lat="47.81772" lon="-3.53499">
        <ele>4.32</ele>
        <time>2020-07-08T10:00:22Z</time>
      </trkpt>
      <trkpt lat="47.81774" lon="-3.53496">
        <ele>4.38</ele>
        <time>2020-07-08T10:00:23Z</time>
      </trkpt>
      <trkpt lat="47.81776" lon="-3.53495">
        <ele>4.46</ele>
        <time>2020-07-08T10:00:24Z</time>
      </trkpt>
      <trkpt lat="47.81777" lon="-3.53493">
        <ele>4.53</ele>
        <time>2020-07-08T10:00:25Z</time>
      </trkpt>
      <trkpt lat="47.81777" lon="-3.53492">
        <ele>4.58</ele>
        <time>2020-07-08T10:00:26Z</time>
      </trkpt>
      <trkpt lat="47.81777" lon="-3.53492">
        <ele>4.58</ele>
        <time>2020-07-08T10:00:27Z</time>
      </trkpt>
      <trkpt lat="47.81777" lon="-3.53493">
        <ele>4.58</ele>
        <time>2020-07-08T10:00:28Z</time>
      </trkpt>
      <trkpt lat="47.81777" lon="-3.53493">
        <ele>4.58</ele>
        <time>2020-07-08T10:00:29Z</time>
      </trkpt>
      <trkpt lat="47.81777" lon="-3.53493">
        <ele>4.58</ele>
        <time>2020-07-08T10:00:30Z</time>
      </trkpt>
      <trkpt lat="47.81777" lon="-3.53493">
        <ele>4.58</ele>
        <time>2020-07-08T10:00:31Z</time>
      </trkpt>
      <trkpt lat="47.81776" lon="-3.53485">
        <ele>5.07</ele>
        <time>2020-07-08T10:00:32Z</time>
      </trkpt>
      <trkpt lat="47.81776" lon="-3.53483">
        <ele>5.3</ele>
        <time>2020-07-08T10:00:33Z</time>
      </trkpt>
      <trkpt lat="47.81775" lon="-3.53482">
        <ele>5.48</ele>
        <time>2020-07-08T10:00:34Z</time>
      </trkpt>
      <trkpt lat="47.81774" lon="-3.53481">
        <ele>5.61</ele>
        <time>2020-07-08T10:00:35Z</time>
      </trkpt>
      <trkpt lat="47.81774" lon="-3.53481">
        <ele>5.65</ele>
        <time>2020-07-08T10:00:36Z</time>
      </trkpt>
      <trkpt lat="47.81774" lon="-3.53481">
        <ele>5.66</ele>
        <time>2020-07-08T10:00:37Z</time>
      </trkpt>
      <trkpt lat="47.81774" lon="-3.53481">
        <ele>5.66</ele>
        <time>2020-07-08T10:00:38Z</time>
      </trkpt>
      <trkpt lat="47.81775" lon="-3.53478">
        <ele>5.78</ele>
        <time>2020-07-08T10:00:39Z</time>
      </trkpt>
      <trkpt lat="47.81777" lon="-3.53476">
        <ele>5.83</ele>
        <time>2020-07-08T10:00:40Z</time>
      </trkpt>
      <trkpt lat="47.81778" lon="-3.53475">
        <ele>5.83</ele>
        <time>2020-07-08T10:00:41Z</time>
      </trkpt>
      <trkpt lat="47.8178" lon="-3.53476">
        <ele>5.72</ele>
        <time>2020-07-08T10:00:42Z</time>
      </trkpt>
      <trkpt lat="47.81782" lon="-3.53476">
        <ele>5.64</ele>
        <time>2020-07-08T10:00:43Z</time>
      </trkpt>
      <trkpt lat="47.81784" lon="-3.53476">
        <ele>5.59</ele>
        <time>2020-07-08T10:00:44Z</time>
      </trkpt>
      <trkpt lat="47.81786" lon="-3.53474">
        <ele>5.6</ele>
        <time>2020-07-08T10:00:45Z</time>
      </trkpt>
      <trkpt lat="47.81787" lon="-3.53473">
        <ele>5.63</ele>
        <time>2020-07-08T10:00:46Z</time>
      </trkpt>
      <trkpt lat="47.81787" lon="-3.53471">
        <ele>5.77</ele>
        <time>2020-07-08T10:00:47Z</time>
      </trkpt>
      <trkpt lat="47.81788" lon="-3.5347">
        <ele>5.98</ele>
        <time>2020-07-08T10:00:48Z</time>
      </trkpt>
      <trkpt lat="47.81789" lon="-3.53469">
        <ele>6.2</ele>
        <time>2020-07-08T10:00:49Z</time>
      </trkpt>
      <trkpt lat="47.81789" lon="-3.53468">
        <ele>6.33</ele>
        <time>2020-07-08T10:00:50Z</time>
      </trkpt>
      <trkpt lat="47.81789" lon="-3.53468">
        <ele>6.37</ele>
        <time>2020-07-08T10:00:51Z</time>
      </trkpt>
      <trkpt lat="47.81789" lon="-3.53468">
        <ele>6.38</ele>
        <time>2020-07-08T10:00:52Z</time>
      </trkpt>
      <trkpt lat="47.81789" lon="-3.53468">
        <ele>6.38</ele>
        <time>2020-07-08T10:00:53Z</time>
      </trkpt>
      <trkpt lat="47.81789" lon="-3.53468">
        <ele>6.39</ele>
        <time>2020-07-08T10:00:54Z</time>
      </trkpt>
      <trkpt lat="47.81789" lon="-3.53468">
        <ele>6.39</ele>
        <time>2020-07-08T10:00:55Z</time>
      </trkpt>
      <trkpt lat="47.81789" lon="-3.53468">
        <ele>6.39</ele>
        <time>2020-07-08T10:00:56Z</time>
      </trkpt>
      <trkpt lat="47.81789" lon="-3.53468">
        <ele>6.39</ele>
        <time>2020-07-08T10:00:57Z</time>
      </trkpt>
      <trkpt lat="47.81789" lon="-3.53468">
        <ele>6.39</ele>
        <time>2020-07-08T10:00:58Z</time>
      </trkpt>
      <trkpt lat="47.81789" lon="-3.53468">
        <ele>6.39</ele>
        <time>2020-07-08T10:00:59Z</time>
      </trkpt>
      <trkpt lat="47.81789" lon="-3.53468">
        <ele>6.39</ele>
        <time>2020-07-08T10:01:00Z</time>
      </trkpt>
      <trkpt lat="47.81789" lon="-3.53468">
        <ele>6.39</ele>
        <time>2020-07-08T10:01:01Z</time>
      </trkpt>
      <trkpt lat="47.81789" lon="-3.53468">
        <ele>6.39</ele>
        <time>2020-07-08T10:01:02Z</time>
      </trkpt>
      <trkpt lat="47.81789" lon="-3.53468">
        <ele>6.39</ele>
        <time>2020-07-08T10:01:03Z</time>
      </trkpt>
      <trkpt lat="47.81789" lon="-3.53468">
        <ele>6.39</ele>
        <time>2020-07-08T10:01:04Z</time>
      </trkpt>
      <trkpt lat="47.81789" lon="-3.53468">
        <ele>6.39</ele>
        <time>2020-07-08T10:01:05Z</time>
      </trkpt>
      <trkpt lat="47.81789" lon="-3.53468">
        <ele>6.39</ele>
        <time>2020-07-08T10:01:06Z</time>
      </trkpt>
      <trkpt lat="47.81789" lon="-3.53468">
        <ele>6.39</ele>
        <time>2020-07-08T10:01:07Z</time>
      </trkpt>
      <trkpt lat="47.81789" lon="-3.53468">
        <ele>6.39</ele>
        <time>2020-07-08T10:01:08Z</time>
      </trkpt>
      <trkpt lat="47.81789" lon="-3.53468">
        <ele>6.39</ele>
        <time>2020-07-08T10:01:09Z</time>
      </trkpt>
      <trkpt lat="47.81789" lon="-3.53468">
        <ele>6.39</ele>
        <time>2020-07-08T10:01:10Z</time>
      </trkpt>
      <trkpt lat="47.81789" lon="-3.53468">
        <ele>6.39</ele>
        <time>2020-07-08T10:01:11Z</time>
      </trkpt>
      <trkpt lat="47.81789" lon="-3.53468">
        <ele>6.39</ele>
        <time>2020-07-08T10:01:12Z</time>
      </trkpt>
      <trkpt lat="47.81789" lon="-3.53468">
        <ele>6.39</ele>
        <time>2020-07-08T10:01:13Z</time>
      </trkpt>
      <trkpt lat="47.81789" lon="-3.53468">
        <ele>6.39</ele>
        <time>2020-07-08T10:01:14Z</time>
      </trkpt>
      <trkpt lat="47.81789" lon="-3.53468">
        <ele>6.39</ele>
        <time>2020-07-08T10:01:15Z</time>
      </trkpt>
      <trkpt lat="47.81789" lon="-3.53468">
        <ele>6.39</ele>
        <time>2020-07-08T10:01:16Z</time>
      </trkpt>
      <trkpt lat="47.81789" lon="-3.53468">
        <ele>6.39</ele>
        <time>2020-07-08T10:01:17Z</time>
      </trkpt>
      <trkpt lat="47.81789" lon="-3.53468">
        <ele>6.39</ele>
        <time>2020-07-08T10:01:18Z</time>
      </trkpt>
      <trkpt lat="47.81789" lon="-3.53468">
        <ele>6.39</ele>
        <time>2020-07-08T10:01:19Z</time>
      </trkpt>
      <trkpt lat="47.81789" lon="-3.53468">
        <ele>6.39</ele>
        <time>2020-07-08T10:01:20Z</time>
      </trkpt>
      <trkpt lat="47.81789" lon="-3.53468">
        <ele>6.39</ele>
        <time>2020-07-08T10:01:21Z</time>
      </trkpt>
      <trkpt lat="47.81789" lon="-3.53468">
        <ele>6.39</ele>
        <time>2020-07-08T10:01:22Z</time>
      </trkpt>
      <trkpt lat="47.81789" lon="-3.53468">
        <ele>6.39</ele>
        <time>2020-07-08T10:01:23Z</time>
      </trkpt>
      <trkpt lat="47.81789" lon="-3.53457">
        <ele>7.95</ele>
        <time>2020-07-08T10:01:24Z</time>
      </trkpt>
      <trkpt lat="47.81788" lon="-3.53458">
        <ele>8.36</ele>
        <time>2020-07-08T10:01:25Z</time>
      </trkpt>
      <trkpt lat="47.81787" lon="-3.53458">
        <ele>8.54</ele>
        <time>2020-07-08T10:01:26Z</time>
      </trkpt>
      <trkpt lat="47.81787" lon="-3.53457">
        <ele>8.65</ele>
        <time>2020-07-08T10:01:27Z</time>
      </trkpt>
      <trkpt lat="47.81787" lon="-3.53457">
        <ele>8.69</ele>
        <time>2020-07-08T10:01:28Z</time>
      </trkpt>
      <trkpt lat="47.81787" lon="-3.53457">
        <ele>8.7</ele>
        <time>2020-07-08T10:01:29Z</time>
      </trkpt>
      <trkpt lat="47.81787" lon="-3.53457">
        <ele>8.7</ele>
        <time>2020-07-08T10:01:30Z</time>
      </trkpt>
      <trkpt lat="47.81787" lon="-3.53457">
        <ele>8.7</ele>
        <time>2020-07-08T10:01:31Z</time>
      </trkpt>
      <trkpt lat="47.81787" lon="-3.53457">
        <ele>8.7</ele>
        <time>2020-07-08T10:01:32Z</time>
      </trkpt>
      <trkpt lat="47.81787" lon="-3.53457">
        <ele>8.7</ele>
        <time>2020-07-08T10:01:33Z</time>
      </trkpt>
      <trkpt lat="47.81787" lon="-3.53457">
        <ele>8.7</ele>
        <time>2020-07-08T10:01:34Z</time>
      </trkpt>
      <trkpt lat="47.81787" lon="-3.53457">
        <ele>8.7</ele>
        <time>2020-07-08T10:01:35Z</time>
      </trkpt>
      <trkpt lat="47.81787" lon="-3.53457">
        <ele>8.7</ele>
        <time>2020-07-08T10:01:36Z</time>
      </trkpt>
      <trkpt lat="47.81787" lon="-3.53457">
        <ele>8.7</ele>
        <time>2020-07-08T10:01:37Z</time>
      </trkpt>
      <trkpt lat="47.81787" lon="-3.53457">
        <ele>8.7</ele>
        <time>2020-07-08T10:01:38Z</time>
      </trkpt>
      <trkpt lat="47.81787" lon="-3.53457">
        <ele>8.7</ele>
        <time>2020-07-08T10:01:39Z</time>
      </trkpt>
      <trkpt lat="47.81787" lon="-3.53457">
        <ele>8.7</ele>
        <time>2020-07-08T10:01:40Z</time>
      </trkpt>
      <trkpt lat="47.81787" lon="-3.53457">
        <ele>8.7</ele>
        <time>2020-07-08T10:01:41Z</time>
      </trkpt>
      <trkpt lat="47.81787" lon="-3.53457">
        <ele>8.7</ele>
        <time>2020-07-08T10:01:42Z</time>
      </trkpt>
      <trkpt lat="47.81787" lon="-3.53457">
        <ele>8.7</ele>
        <time>2020-07-08T10:01:43Z</time>
      </trkpt>
      <trkpt lat="47.81787" lon="-3.53457">
        <ele>8.7</ele>
        <time>2020-07-08T10:01:44Z</time>
      </trkpt>
      <trkpt lat="47.81787" lon="-3.53457">
        <ele>8.7</ele>
        <time>2020-07-08T10:01:45Z</time>
      </trkpt>
      <trkpt lat="47.81787" lon="-3.53457">
        <ele>8.7</ele>
        <time>2020-07-08T10:01:46Z</time>
      </trkpt>
      <trkpt lat="47.81787" lon="-3.53457">
        <ele>8.7</ele>
        <time>2020-07-08T10:01:47Z</time>
      </trkpt>
      <trkpt lat="47.81787" lon="-3.53457">
        <ele>8.7</ele>
        <time>2020-07-08T10:01:48Z</time>
      </trkpt>
      <trkpt lat="47.81787" lon="-3.53457">
        <ele>8.7</ele>
        <time>2020-07-08T10:01:49Z</time>
      </trkpt>
      <trkpt lat="47.81787" lon="-3.53457">
        <ele>8.7</ele>
        <time>2020-07-08T10:01:50Z</time>
      </trkpt>
      <trkpt lat="47.81787" lon="-3.53457">
        <ele>8.7</ele>
        <time>2020-07-08T10:01:51Z</time>
      </trkpt>
      <trkpt lat="47.81791" lon="-3.53446">
        <ele>10.08</ele>
        <time>2020-07-08T10:01:52Z</time>
      </trkpt>
      <trkpt lat="47.81791" lon="-3.53445">
        <ele>10.62</ele>
        <time>2020-07-08T10:01:53Z</time>
      </trkpt>
      <trkpt lat="47.81792" lon="-3.53445">
        <ele>10.85</ele>
        <time>2020-07-08T10:01:54Z</time>
      </trkpt>
      <trkpt lat="47.81792" lon="-3.53445">
        <ele>10.89</ele>
        <time>2020-07-08T10:01:55Z</time>
      </trkpt>
      <trkpt lat="47.81792" lon="-3.53445">
        <ele>10.9</ele>
        <time>2020-07-08T10:01:56Z</time>
      </trkpt>
      <trkpt lat="47.81792" lon="-3.53445">
        <ele>10.9</ele>
        <time>2020-07-08T10:01:57Z</time>
      </trkpt>
      <trkpt lat="47.81792" lon="-3.53445">
        <ele>10.9</ele>
        <time>2020-07-08T10:01:58Z</time>
      </trkpt>
      <trkpt lat="47.81792" lon="-3.53445">
        <ele>10.9</ele>
        <time>2020-07-08T10:01:59Z</time>
      </trkpt>
      <trkpt lat="47.81792" lon="-3.53445">
        <ele>10.9</ele>
        <time>2020-07-08T10:02:00Z</time>
      </trkpt>
      <trkpt lat="47.81792" lon="-3.53445">
        <ele>10.9</ele>
        <time>2020-07-08T10:02:01Z</time>
      </trkpt>
      <trkpt lat="47.81792" lon="-3.53445">
        <ele>10.9</ele>
        <time>2020-07-08T10:02:02Z</time>
      </trkpt>
      <trkpt lat="47.81792" lon="-3.53445">
        <ele>10.9</ele>
        <time>2020-07-08T10:02:03Z</time>
      </trkpt>
      <trkpt lat="47.81792" lon="-3.53445">
        <ele>10.9</ele>
        <time>2020-07-08T10:02:04Z</time>
      </trkpt>
      <trkpt lat="47.81792" lon="-3.53445">
        <ele>10.9</ele>
        <time>2020-07-08T10:02:05Z</time>
      </trkpt>
      <trkpt lat="47.81792" lon="-3.53445">
        <ele>10.9</ele>
        <time>2020-07-08T10:02:06Z</time>
      </trkpt>
      <trkpt lat="47.81792" lon="-3.53445">
        <ele>10.9</ele>
        <time>2020-07-08T10:02:07Z</time>
      </trkpt>
      <trkpt lat="47.81792" lon="-3.53445">
        <ele>10.9</ele>
        <time>2020-07-08T10:02:08Z</time>
      </trkpt>
      <trkpt lat="47.81792" lon="-3.53445">
        <ele>10.9</ele>
        <time>2020-07-08T10:02:09Z</time>
      </trkpt>
      <trkpt lat="47.81792" lon="-3.53445">
        <ele>10.9</ele>
        <time>2020-07-08T10:02:10Z</time>
      </trkpt>
      <trkpt lat="47.81792" lon="-3.53445">
        <ele>10.9</ele>
        <time>2020-07-08T10:02:11Z</time>
      </trkpt>
      <trkpt lat="47.81792" lon="-3.53445">
        <ele>10.9</ele>
        <time>2020-07-08T10:02:12Z</time>
      </trkpt>
      <trkpt lat="47.81792" lon="-3.53445">
        <ele>10.9</ele>
        <time>2020-07-08T10:02:13Z</time>
      </trkpt>
      <trkpt lat="47.81792" lon="-3.53445">
        <ele>10.9</ele>
        <time>2020-07-08T10:02:14Z</time>
      </trkpt>
      <trkpt lat="47.81792" lon="-3.53445">
        <ele>10.9</ele>
        <time>2020-07-08T10:02:15Z</time>
      </trkpt>
      <trkpt lat="47.81792" lon="-3.53445">
        <ele>10.9</ele>
        <time>2020-07-08T10:02:16Z</time>
      </trkpt>
      <trkpt lat="47.81792" lon="-3.53445">
        <ele>10.9</ele>
        <time>2020-07-08T10:02:17Z</time>
      </trkpt>
      <trkpt lat="47.81792" lon="-3.53445">
        <ele>10.9</ele>
        <time>2020-07-08T10:02:18Z</time>
      </trkpt>
      <trkpt lat="47.81792" lon="-3.53445">
        <ele>10.9</ele>
        <time>2020-07-08T10:02:19Z</time>
      </trkpt>
      <trkpt lat="47.81792" lon="-3.53445">
        <ele>10.9</ele>
        <time>2020-07-08T10:02:20Z</time>
      </trkpt>
      <trkpt lat="47.81792" lon="-3.53445">
        <ele>10.9</ele>
        <time>2020-07-08T10:02:21Z</time>
      </trkpt>
      <trkpt lat="47.81792" lon="-3.53445">
        <ele>10.9</ele>
        <time>2020-07-08T10:02:22Z</time>
      </trkpt>
      <trkpt lat="47.81792" lon="-3.53445">
        <ele>10.9</ele>
        <time>2020-07-08T10:02:23Z</time>
      </trkpt>
      <trkpt lat="47.81792" lon="-3.53445">
        <ele>10.9</ele>
        <time>2020-07-08T10:02:24Z</time>
      </trkpt>
      <trkpt lat="47.81792" lon="-3.53445">
        <ele>10.9</ele>
        <time>2020-07-08T10:02:25Z</time>
      </trkpt>
      <trkpt lat="47.81792" lon="-3.53445">
        <ele>10.9</ele>
        <time>2020-07-08T10:02:26Z</time>
      </trkpt>
      <trkpt lat="47.81795" lon="-3.5343">
        <ele>13.73</ele>
        <time>2020-07-08T10:02:27Z</time>
      </trkpt>
      <trkpt lat="47.81796" lon="-3.5343">
        <ele>14.67</ele>
        <time>2020-07-08T10:02:28Z</time>
      </trkpt>
      <trkpt lat="47.81796" lon="-3.53429">
        <ele>15.21</ele>
        <time>2020-07-08T10:02:29Z</time>
      </trkpt>
      <trkpt lat="47.81797" lon="-3.53427">
        <ele>15.78</ele>
        <time>2020-07-08T10:02:30Z</time>
      </trkpt>
      <trkpt lat="47.81798" lon="-3.53425">
        <ele>16.16</ele>
        <time>2020-07-08T10:02:31Z</time>
      </trkpt>
      <trkpt lat="47.81799" lon="-3.53423">
        <ele>16.65</ele>
        <time>2020-07-08T10:02:32Z</time>
      </trkpt>
      <trkpt lat="47.818" lon="-3.53422">
        <ele>16.96</ele>
        <time>2020-07-08T10:02:33Z</time>
      </trkpt>
      <trkpt lat="47.818" lon="-3.53422">
        <ele>17</ele>
        <time>2020-07-08T10:02:34Z</time>
      </trkpt>
      <trkpt lat="47.81802" lon="-3.53421">
        <ele>17.08</ele>
        <time>2020-07-08T10:02:35Z</time>
      </trkpt>
      <trkpt lat="47.81802" lon="-3.53421">
        <ele>17.12</ele>
        <time>2020-07-08T10:02:36Z</time>
      </trkpt>
      <trkpt lat="47.81802" lon="-3.53421">
        <ele>17.13</ele>
        <time>2020-07-08T10:02:37Z</time>
      </trkpt>
      <trkpt lat="47.81802" lon="-3.53421">
        <ele>17.13</ele>
        <time>2020-07-08T10:02:38Z</time>
      </trkpt>
      <trkpt lat="47.81802" lon="-3.53421">
        <ele>17.13</ele>
        <time>2020-07-08T10:02:39Z</time>
      </trkpt>
      <trkpt lat="47.81802" lon="-3.53421">
        <ele>17.13</ele>
        <time>2020-07-08T10:02:40Z</time>
      </trkpt>
      <trkpt lat="47.81802" lon="-3.53421">
        <ele>17.13</ele>
        <time>2020-07-08T10:02:41Z</time>
      </trkpt>
      <trkpt lat="47.81802" lon="-3.53421">
        <ele>17.13</ele>
        <time>2020-07-08T10:02:42Z</time>
      </trkpt>
      <trkpt lat="47.81802" lon="-3.53421">
        <ele>17.13</ele>
        <time>2020-07-08T10:02:43Z</time>
      </trkpt>
      <trkpt lat="47.81802" lon="-3.53421">
        <ele>17.13</ele>
        <time>2020-07-08T10:02:44Z</time>
      </trkpt>
      <trkpt lat="47.81802" lon="-3.53421">
        <ele>17.13</ele>
        <time>2020-07-08T10:02:45Z</time>
      </trkpt>
      <trkpt lat="47.81802" lon="-3.53421">
        <ele>17.13</ele>
        <time>2020-07-08T10:02:46Z</time>
      </trkpt>
      <trkpt lat="47.81805" lon="-3.53413">
        <ele>18.6</ele>
        <time>2020-07-08T10:02:47Z</time>
      </trkpt>
      <trkpt lat="47.81805" lon="-3.53412">
        <ele>19.33</ele>
        <time>2020-07-08T10:02:48Z</time>
      </trkpt>
      <trkpt lat="47.81806" lon="-3.53411">
        <ele>19.72</ele>
        <time>2020-07-08T10:02:49Z</time>
      </trkpt>
      <trkpt lat="47.81807" lon="-3.5341">
        <ele>19.88</ele>
        <time>2020-07-08T10:02:50Z</time>
      </trkpt>
      <trkpt lat="47.81808" lon="-3.53408">
        <ele>20.06</ele>
        <time>2020-07-08T10:02:51Z</time>
      </trkpt>
      <trkpt lat="47.8181" lon="-3.53407">
        <ele>20.21</ele>
        <time>2020-07-08T10:02:52Z</time>
      </trkpt>
      <trkpt lat="47.81811" lon="-3.53406">
        <ele>20.34</ele>
        <time>2020-07-08T10:02:53Z</time>
      </trkpt>
      <trkpt lat="47.81813" lon="-3.53405">
        <ele>20.33</ele>
        <time>2020-07-08T10:02:54Z</time>
      </trkpt>
      <trkpt lat="47.81814" lon="-3.53404">
        <ele>20.43</ele>
        <time>2020-07-08T10:02:55Z</time>
      </trkpt>
      <trkpt lat="47.81815" lon="-3.53402">
        <ele>20.64</ele>
        <time>2020-07-08T10:02:56Z</time>
      </trkpt>
      <trkpt lat="47.81817" lon="-3.53401">
        <ele>20.7</ele>
        <time>2020-07-08T10:02:57Z</time>
      </trkpt>
      <trkpt lat="47.81818" lon="-3.53401">
        <ele>20.61</ele>
        <time>2020-07-08T10:02:58Z</time>
      </trkpt>
      <trkpt lat="47.81819" lon="-3.534">
        <ele>20.68</ele>
        <time>2020-07-08T10:02:59Z</time>
      </trkpt>
      <trkpt lat="47.81819" lon="-3.53398">
        <ele>20.9</ele>
        <time>2020-07-08T10:03:00Z</time>
      </trkpt>
      <trkpt lat="47.81819" lon="-3.53398">
        <ele>20.97</ele>
        <time>2020-07-08T10:03:01Z</time>
      </trkpt>
      <trkpt lat="47.8182" lon="-3.53395">
        <ele>21.43</ele>
        <time>2020-07-08T10:03:02Z</time>
      </trkpt>
      <trkpt lat="47.8182" lon="-3.53394">
        <ele>21.91</ele>
        <time>2020-07-08T10:03:03Z</time>
      </trkpt>
      <trkpt lat="47.81821" lon="-3.53392">
        <ele>22.38</ele>
        <time>2020-07-08T10:03:04Z</time>
      </trkpt>
      <trkpt lat="47.81822" lon="-3.53391">
        <ele>22.81</ele>
        <time>2020-07-08T10:03:05Z</time>
      </trkpt>
      <trkpt lat="47.81823" lon="-3.53387">
        <ele>23.43</ele>
        <time>2020-07-08T10:03:06Z</time>
      </trkpt>
      <trkpt lat="47.81825" lon="-3.53386">
        <ele>23.65</ele>
        <time>2020-07-08T10:03:07Z</time>
      </trkpt>
      <trkpt lat="47.81826" lon="-3.53384">
        <ele>23.88</ele>
        <time>2020-07-08T10:03:08Z</time>
      </trkpt>
      <trkpt lat="47.81827" lon="-3.53383">
        <ele>24.03</ele>
        <time>2020-07-08T10:03:09Z</time>
      </trkpt>
      <trkpt lat="47.81829" lon="-3.53381">
        <ele>24.2</ele>
        <time>2020-07-08T10:03:10Z</time>
      </trkpt>
      <trkpt lat="47.8183" lon="-3.53381">
        <ele>24.29</ele>
        <time>2020-07-08T10:03:11Z</time>
      </trkpt>
      <trkpt lat="47.81831" lon="-3.5338">
        <ele>24.39</ele>
        <time>2020-07-08T10:03:12Z</time>
      </trkpt>
      <trkpt lat="47.81832" lon="-3.53379">
        <ele>24.52</ele>
        <time>2020-07-08T10:03:13Z</time>
      </trkpt>
      <trkpt lat="47.81832" lon="-3.53378">
        <ele>24.73</ele>
        <time>2020-07-08T10:03:14Z</time>
      </trkpt>
      <trkpt lat="47.81833" lon="-3.53377">
        <ele>25.03</ele>
        <time>2020-07-08T10:03:15Z</time>
      </trkpt>
      <trkpt lat="47.81833" lon="-3.53375">
        <ele>25.43</ele>
        <time>2020-07-08T10:03:16Z</time>
      </trkpt>
      <trkpt lat="47.81834" lon="-3.53373">
        <ele>25.75</ele>
        <time>2020-07-08T10:03:17Z</time>
      </trkpt>
      <trkpt lat="47.81834" lon="-3.53372">
        <ele>26.21</ele>
        <time>2020-07-08T10:03:18Z</time>
      </trkpt>
      <trkpt lat="47.81836" lon="-3.53368">
        <ele>26.97</ele>
        <time>2020-07-08T10:03:19Z</time>
      </trkpt>
      <trkpt lat="47.81837" lon="-3.53365">
        <ele>27.57</ele>
        <time>2020-07-08T10:03:20Z</time>
      </trkpt>
      <trkpt lat="47.81839" lon="-3.53362">
        <ele>28.26</ele>
        <time>2020-07-08T10:03:21Z</time>
      </trkpt>
      <trkpt lat="47.8184" lon="-3.53359">
        <ele>28.76</ele>
        <time>2020-07-08T10:03:22Z</time>
      </trkpt>
      <trkpt lat="47.8184" lon="-3.53357">
        <ele>29.11</ele>
        <time>2020-07-08T10:03:23Z</time>
      </trkpt>
      <trkpt lat="47.81841" lon="-3.53355">
        <ele>29.4</ele>
        <time>2020-07-08T10:03:24Z</time>
      </trkpt>
      <trkpt lat="47.81842" lon="-3.53352">
        <ele>29.67</ele>
        <time>2020-07-08T10:03:25Z</time>
      </trkpt>
      <trkpt lat="47.81842" lon="-3.53349">
        <ele>29.93</ele>
        <time>2020-07-08T10:03:26Z</time>
      </trkpt>
      <trkpt lat="47.81843" lon="-3.53347">
        <ele>30.22</ele>
        <time>2020-07-08T10:03:27Z</time>
      </trkpt>
      <trkpt lat="47.81843" lon="-3.53344">
        <ele>30.53</ele>
        <time>2020-07-08T10:03:28Z</time>
      </trkpt>
      <trkpt lat="47.81844" lon="-3.53342">
        <ele>30.77</ele>
        <time>2020-07-08T10:03:29Z</time>
      </trkpt>
      <trkpt lat="47.81844" lon="-3.5334">
        <ele>31.04</ele>
        <time>2020-07-08T10:03:30Z</time>
      </trkpt>
      <trkpt lat="47.81844" lon="-3.53338">
        <ele>31.36</ele>
        <time>2020-07-08T10:03:31Z</time>
      </trkpt>
      <trkpt lat="47.81844" lon="-3.53336">
        <ele>31.52</ele>
        <time>2020-07-08T10:03:32Z</time>
      </trkpt>
      <trkpt lat="47.81846" lon="-3.53335">
        <ele>31.52</ele>
        <time>2020-07-08T10:03:33Z</time>
      </trkpt>
      <trkpt lat="47.81847" lon="-3.53334">
        <ele>31.52</ele>
        <time>2020-07-08T10:03:34Z</time>
      </trkpt>
      <trkpt lat="47.81847" lon="-3.53332">
        <ele>31.62</ele>
        <time>2020-07-08T10:03:35Z</time>
      </trkpt>
      <trkpt lat="47.81849" lon="-3.53331">
        <ele>31.51</ele>
        <time>2020-07-08T10:03:36Z</time>
      </trkpt>
      <trkpt lat="47.81851" lon="-3.53331">
        <ele>31.26</ele>
        <time>2020-07-08T10:03:37Z</time>
      </trkpt>
      <trkpt lat="47.81852" lon="-3.5333">
        <ele>31.07</ele>
        <time>2020-07-08T10:03:38Z</time>
      </trkpt>
      <trkpt lat="47.81855" lon="-3.53328">
        <ele>30.94</ele>
        <time>2020-07-08T10:03:39Z</time>
      </trkpt>
      <trkpt lat="47.81856" lon="-3.53326">
        <ele>30.89</ele>
        <time>2020-07-08T10:03:40Z</time>
      </trkpt>
      <trkpt lat="47.81859" lon="-3.53323">
        <ele>30.86</ele>
        <time>2020-07-08T10:03:41Z</time>
      </trkpt>
      <trkpt lat="47.81862" lon="-3.53321">
        <ele>30.73</ele>
        <time>2020-07-08T10:03:42Z</time>
      </trkpt>
      <trkpt lat="47.81864" lon="-3.53318">
        <ele>30.57</ele>
        <time>2020-07-08T10:03:43Z</time>
      </trkpt>
      <trkpt lat="47.81866" lon="-3.53315">
        <ele>30.44</ele>
        <time>2020-07-08T10:03:44Z</time>
      </trkpt>
      <trkpt lat="47.81869" lon="-3.53311">
        <ele>30.36</ele>
        <time>2020-07-08T10:03:45Z</time>
      </trkpt>
      <trkpt lat="47.81872" lon="-3.53305">
        <ele>30.62</ele>
        <time>2020-07-08T10:03:46Z</time>
      </trkpt>
      <trkpt lat="47.81875" lon="-3.53298">
        <ele>30.84</ele>
        <time>2020-07-08T10:03:47Z</time>
      </trkpt>
      <trkpt lat="47.8188" lon="-3.5329">
        <ele>31.06</ele>
        <time>2020-07-08T10:03:48Z</time>
      </trkpt>
      <trkpt lat="47.81884" lon="-3.53285">
        <ele>31.11</ele>
        <time>2020-07-08T10:03:49Z</time>
      </trkpt>
      <trkpt lat="47.81888" lon="-3.53278">
        <ele>31.08</ele>
        <time>2020-07-08T10:03:50Z</time>
      </trkpt>
      <trkpt lat="47.81894" lon="-3.53273">
        <ele>30.64</ele>
        <time>2020-07-08T10:03:51Z</time>
      </trkpt>
      <trkpt lat="47.81899" lon="-3.53268">
        <ele>30.02</ele>
        <time>2020-07-08T10:03:52Z</time>
      </trkpt>
      <trkpt lat="47.81904" lon="-3.53264">
        <ele>29.44</ele>
        <time>2020-07-08T10:03:53Z</time>
      </trkpt>
      <trkpt lat="47.81908" lon="-3.53261">
        <ele>29.1</ele>
        <time>2020-07-08T10:03:54Z</time>
      </trkpt>
      <trkpt lat="47.81911" lon="-3.53258">
        <ele>28.88</ele>
        <time>2020-07-08T10:03:55Z</time>
      </trkpt>
      <trkpt lat="47.81914" lon="-3.53255">
        <ele>28.7</ele>
        <time>2020-07-08T10:03:56Z</time>
      </trkpt>
      <trkpt lat="47.81916" lon="-3.53253">
        <ele>28.62</ele>
        <time>2020-07-08T10:03:57Z</time>
      </trkpt>
      <trkpt lat="47.81918" lon="-3.53251">
        <ele>28.54</ele>
        <time>2020-07-08T10:03:58Z</time>
      </trkpt>
      <trkpt lat="47.81921" lon="-3.53249">
        <ele>28.37</ele>
        <time>2020-07-08T10:03:59Z</time>
      </trkpt>
      <trkpt lat="47.81922" lon="-3.53248">
        <ele>28.21</ele>
        <time>2020-07-08T10:04:00Z</time>
      </trkpt>
      <trkpt lat="47.81924" lon="-3.53246">
        <ele>27.95</ele>
        <time>2020-07-08T10:04:01Z</time>
      </trkpt>
      <trkpt lat="47.81928" lon="-3.53243">
        <ele>27.6</ele>
        <time>2020-07-08T10:04:02Z</time>
      </trkpt>
      <trkpt lat="47.81929" lon="-3.53241">
        <ele>27.42</ele>
        <time>2020-07-08T10:04:03Z</time>
      </trkpt>
      <trkpt lat="47.8193" lon="-3.53239">
        <ele>27.38</ele>
        <time>2020-07-08T10:04:04Z</time>
      </trkpt>
      <trkpt lat="47.81931" lon="-3.53236">
        <ele>27.37</ele>
        <time>2020-07-08T10:04:05Z</time>
      </trkpt>
      <trkpt lat="47.81932" lon="-3.53234">
        <ele>27.4</ele>
        <time>2020-07-08T10:04:06Z</time>
      </trkpt>
      <trkpt lat="47.81934" lon="-3.5323">
        <ele>27.46</ele>
        <time>2020-07-08T10:04:07Z</time>
      </trkpt>
      <trkpt lat="47.81934" lon="-3.53227">
        <ele>27.66</ele>
        <time>2020-07-08T10:04:08Z</time>
      </trkpt>
      <trkpt lat="47.81934" lon="-3.53223">
        <ele>27.92</ele>
        <time>2020-07-08T10:04:09Z</time>
      </trkpt>
      <trkpt lat="47.81935" lon="-3.5322">
        <ele>28.17</ele>
        <time>2020-07-08T10:04:10Z</time>
      </trkpt>
      <trkpt lat="47.81935" lon="-3.53216">
        <ele>28.48</ele>
        <time>2020-07-08T10:04:11Z</time>
      </trkpt>
      <trkpt lat="47.81936" lon="-3.53213">
        <ele>28.75</ele>
        <time>2020-07-08T10:04:12Z</time>
      </trkpt>
      <trkpt lat="47.81936" lon="-3.53209">
        <ele>29.02</ele>
        <time>2020-07-08T10:04:13Z</time>
      </trkpt>
      <trkpt lat="47.81937" lon="-3.53206">
        <ele>29.29</ele>
        <time>2020-07-08T10:04:14Z</time>
      </trkpt>
      <trkpt lat="47.81941" lon="-3.53199">
        <ele>29.67</ele>
        <time>2020-07-08T10:04:15Z</time>
      </trkpt>
      <trkpt lat="47.81943" lon="-3.53195">
        <ele>29.97</ele>
        <time>2020-07-08T10:04:16Z</time>
      </trkpt>
      <trkpt lat="47.81945" lon="-3.53191">
        <ele>30.01</ele>
        <time>2020-07-08T10:04:17Z</time>
      </trkpt>
      <trkpt lat="47.81948" lon="-3.53189">
        <ele>29.92</ele>
        <time>2020-07-08T10:04:18Z</time>
      </trkpt>
      <trkpt lat="47.8195" lon="-3.53187">
        <ele>29.81</ele>
        <time>2020-07-08T10:04:19Z</time>
      </trkpt>
      <trkpt lat="47.81952" lon="-3.53184">
        <ele>29.7</ele>
        <time>2020-07-08T10:04:20Z</time>
      </trkpt>
      <trkpt lat="47.81954" lon="-3.53182">
        <ele>29.61</ele>
        <time>2020-07-08T10:04:21Z</time>
      </trkpt>
      <trkpt lat="47.81957" lon="-3.5318">
        <ele>29.5</ele>
        <time>2020-07-08T10:04:22Z</time>
      </trkpt>
      <trkpt lat="47.81959" lon="-3.53178">
        <ele>29.38</ele>
        <time>2020-07-08T10:04:23Z</time>
      </trkpt>
      <trkpt lat="47.81961" lon="-3.53176">
        <ele>29.3</ele>
        <time>2020-07-08T10:04:24Z</time>
      </trkpt>
      <trkpt lat="47.81963" lon="-3.53174">
        <ele>29.23</ele>
        <time>2020-07-08T10:04:25Z</time>
      </trkpt>
      <trkpt lat="47.81966" lon="-3.53172">
        <ele>29.14</ele>
        <time>2020-07-08T10:04:26Z</time>
      </trkpt>
      <trkpt lat="47.81968" lon="-3.53174">
        <ele>28.94</ele>
        <time>2020-07-08T10:04:27Z</time>
      </trkpt>
      <trkpt lat="47.8197" lon="-3.53171">
        <ele>28.89</ele>
        <time>2020-07-08T10:04:28Z</time>
      </trkpt>
      <trkpt lat="47.81972" lon="-3.53173">
        <ele>28.66</ele>
        <time>2020-07-08T10:04:29Z</time>
      </trkpt>
      <trkpt lat="47.81975" lon="-3.53176">
        <ele>28.24</ele>
        <time>2020-07-08T10:04:30Z</time>
      </trkpt>
      <trkpt lat="47.81977" lon="-3.53179">
        <ele>27.74</ele>
        <time>2020-07-08T10:04:31Z</time>
      </trkpt>
      <trkpt lat="47.81979" lon="-3.53181">
        <ele>27.2</ele>
        <time>2020-07-08T10:04:32Z</time>
      </trkpt>
      <trkpt lat="47.81981" lon="-3.53183">
        <ele>26.68</ele>
        <time>2020-07-08T10:04:33Z</time>
      </trkpt>
      <trkpt lat="47.81982" lon="-3.53185">
        <ele>26.17</ele>
        <time>2020-07-08T10:04:34Z</time>
      </trkpt>
      <trkpt lat="47.81984" lon="-3.53187">
        <ele>25.68</ele>
        <time>2020-07-08T10:04:35Z</time>
      </trkpt>
      <trkpt lat="47.81986" lon="-3.53191">
        <ele>24.84</ele>
        <time>2020-07-08T10:04:36Z</time>
      </trkpt>
      <trkpt lat="47.81989" lon="-3.53191">
        <ele>24.21</ele>
        <time>2020-07-08T10:04:37Z</time>
      </trkpt>
      <trkpt lat="47.81991" lon="-3.53193">
        <ele>23.52</ele>
        <time>2020-07-08T10:04:38Z</time>
      </trkpt>
      <trkpt lat="47.81992" lon="-3.53194">
        <ele>22.93</ele>
        <time>2020-07-08T10:04:39Z</time>
      </trkpt>
      <trkpt lat="47.81993" lon="-3.53194">
        <ele>22.67</ele>
        <time>2020-07-08T10:04:40Z</time>
      </trkpt>
      <trkpt lat="47.81994" lon="-3.53195">
        <ele>22.41</ele>
        <time>2020-07-08T10:04:41Z</time>
      </trkpt>
      <trkpt lat="47.81993" lon="-3.53194">
        <ele>22.49</ele>
        <time>2020-07-08T10:04:42Z</time>
      </trkpt>
      <trkpt lat="47.81993" lon="-3.53194">
        <ele>22.51</ele>
        <time>2020-07-08T10:04:43Z</time>
      </trkpt>
      <trkpt lat="47.81997" lon="-3.53196">
        <ele>21.64</ele>
        <time>2020-07-08T10:04:44Z</time>
      </trkpt>
      <trkpt lat="47.82" lon="-3.53198">
        <ele>20.78</ele>
        <time>2020-07-08T10:04:45Z</time>
      </trkpt>
      <trkpt lat="47.82001" lon="-3.53201">
        <ele>20.18</ele>
        <time>2020-07-08T10:04:46Z</time>
      </trkpt>
      <trkpt lat="47.82004" lon="-3.53203">
        <ele>20.01</ele>
        <time>2020-07-08T10:04:47Z</time>
      </trkpt>
      <trkpt lat="47.82006" lon="-3.53205">
        <ele>19.79</ele>
        <time>2020-07-08T10:04:48Z</time>
      </trkpt>
      <trkpt lat="47.82008" lon="-3.53207">
        <ele>19.61</ele>
        <time>2020-07-08T10:04:49Z</time>
      </trkpt>
      <trkpt lat="47.8201" lon="-3.53209">
        <ele>19.4</ele>
        <time>2020-07-08T10:04:50Z</time>
      </trkpt>
      <trkpt lat="47.82012" lon="-3.53212">
        <ele>18.98</ele>
        <time>2020-07-08T10:04:51Z</time>
      </trkpt>
      <trkpt lat="47.82012" lon="-3.53214">
        <ele>18.49</ele>
        <time>2020-07-08T10:04:52Z</time>
      </trkpt>
      <trkpt lat="47.82014" lon="-3.53217">
        <ele>18</ele>
        <time>2020-07-08T10:04:53Z</time>
      </trkpt>
      <trkpt lat="47.82016" lon="-3.53219">
        <ele>17.56</ele>
        <time>2020-07-08T10:04:54Z</time>
      </trkpt>
      <trkpt lat="47.82017" lon="-3.5322">
        <ele>17.3</ele>
        <time>2020-07-08T10:04:55Z</time>
      </trkpt>
      <trkpt lat="47.82019" lon="-3.53223">
        <ele>16.78</ele>
        <time>2020-07-08T10:04:56Z</time>
      </trkpt>
      <trkpt lat="47.82019" lon="-3.53226">
        <ele>16.1</ele>
        <time>2020-07-08T10:04:57Z</time>
      </trkpt>
      <trkpt lat="47.82019" lon="-3.53229">
        <ele>15.29</ele>
        <time>2020-07-08T10:04:58Z</time>
      </trkpt>
      <trkpt lat="47.8202" lon="-3.53233">
        <ele>14.46</ele>
        <time>2020-07-08T10:04:59Z</time>
      </trkpt>
      <trkpt lat="47.82022" lon="-3.53237">
        <ele>13.53</ele>
        <time>2020-07-08T10:05:00Z</time>
      </trkpt>
      <trkpt lat="47.82025" lon="-3.53241">
        <ele>12.53</ele>
        <time>2020-07-08T10:05:01Z</time>
      </trkpt>
      <trkpt lat="47.8203" lon="-3.53245">
        <ele>11.79</ele>
        <time>2020-07-08T10:05:02Z</time>
      </trkpt>
      <trkpt lat="47.82034" lon="-3.53249">
        <ele>11.43</ele>
        <time>2020-07-08T10:05:03Z</time>
      </trkpt>
      <trkpt lat="47.82039" lon="-3.53252">
        <ele>11.14</ele>
        <time>2020-07-08T10:05:04Z</time>
      </trkpt>
      <trkpt lat="47.82044" lon="-3.53256">
        <ele>10.64</ele>
        <time>2020-07-08T10:05:05Z</time>
      </trkpt>
      <trkpt lat="47.82049" lon="-3.53257">
        <ele>10.53</ele>
        <time>2020-07-08T10:05:06Z</time>
      </trkpt>
      <trkpt lat="47.82053" lon="-3.53261">
        <ele>9.92</ele>
        <time>2020-07-08T10:05:07Z</time>
      </trkpt>
      <trkpt lat="47.82059" lon="-3.53266">
        <ele>9.36</ele>
        <time>2020-07-08T10:05:08Z</time>
      </trkpt>
      <trkpt lat="47.82064" lon="-3.53271">
        <ele>9.1</ele>
        <time>2020-07-08T10:05:09Z</time>
      </trkpt>
      <trkpt lat="47.82069" lon="-3.53276">
        <ele>8.81</ele>
        <time>2020-07-08T10:05:10Z</time>
      </trkpt>
      <trkpt lat="47.82075" lon="-3.53279">
        <ele>8.97</ele>
        <time>2020-07-08T10:05:11Z</time>
      </trkpt>
      <trkpt lat="47.8208" lon="-3.53285">
        <ele>8.98</ele>
        <time>2020-07-08T10:05:12Z</time>
      </trkpt>
      <trkpt lat="47.82086" lon="-3.53291">
        <ele>8.74</ele>
        <time>2020-07-08T10:05:13Z</time>
      </trkpt>
      <trkpt lat="47.82092" lon="-3.53297">
        <ele>8.54</ele>
        <time>2020-07-08T10:05:14Z</time>
      </trkpt>
      <trkpt lat="47.82099" lon="-3.53304">
        <ele>8.03</ele>
        <time>2020-07-08T10:05:15Z</time>
      </trkpt>
      <trkpt lat="47.82104" lon="-3.53311">
        <ele>7.99</ele>
        <time>2020-07-08T10:05:16Z</time>
      </trkpt>
      <trkpt lat="47.82109" lon="-3.53316">
        <ele>7.94</ele>
        <time>2020-07-08T10:05:17Z</time>
      </trkpt>
      <trkpt lat="47.82114" lon="-3.53322">
        <ele>7.87</ele>
        <time>2020-07-08T10:05:18Z</time>
      </trkpt>
      <trkpt lat="47.82119" lon="-3.53325">
        <ele>8.2</ele>
        <time>2020-07-08T10:05:19Z</time>
      </trkpt>
      <trkpt lat="47.82123" lon="-3.53328">
        <ele>8.44</ele>
        <time>2020-07-08T10:05:20Z</time>
      </trkpt>
      <trkpt lat="47.82127" lon="-3.53331">
        <ele>8.58</ele>
        <time>2020-07-08T10:05:21Z</time>
      </trkpt>
      <trkpt lat="47.8213" lon="-3.53334">
        <ele>8.66</ele>
        <time>2020-07-08T10:05:22Z</time>
      </trkpt>
      <trkpt lat="47.82133" lon="-3.53337">
        <ele>8.69</ele>
        <time>2020-07-08T10:05:23Z</time>
      </trkpt>
      <trkpt lat="47.82136" lon="-3.53342">
        <ele>8.47</ele>
        <time>2020-07-08T10:05:24Z</time>
      </trkpt>
      <trkpt lat="47.82139" lon="-3.53346">
        <ele>8.09</ele>
        <time>2020-07-08T10:05:25Z</time>
      </trkpt>
      <trkpt lat="47.82142" lon="-3.53351">
        <ele>7.82</ele>
        <time>2020-07-08T10:05:26Z</time>
      </trkpt>
      <trkpt lat="47.82145" lon="-3.53357">
        <ele>7.48</ele>
        <time>2020-07-08T10:05:27Z</time>
      </trkpt>
      <trkpt lat="47.82148" lon="-3.53364">
        <ele>7.2</ele>
        <time>2020-07-08T10:05:28Z</time>
      </trkpt>
      <trkpt lat="47.82151" lon="-3.53368">
        <ele>7.46</ele>
        <time>2020-07-08T10:05:29Z</time>
      </trkpt>
      <trkpt lat="47.82154" lon="-3.53373">
        <ele>7.7</ele>
        <time>2020-07-08T10:05:30Z</time>
      </trkpt>
      <trkpt lat="47.82158" lon="-3.53378">
        <ele>7.77</ele>
        <time>2020-07-08T10:05:31Z</time>
      </trkpt>
      <trkpt lat="47.82161" lon="-3.53384">
        <ele>7.49</ele>
        <time>2020-07-08T10:05:32Z</time>
      </trkpt>
      <trkpt lat="47.82165" lon="-3.53389">
        <ele>6.95</ele>
        <time>2020-07-08T10:05:33Z</time>
      </trkpt>
      <trkpt lat="47.82168" lon="-3.53395">
        <ele>6.89</ele>
        <time>2020-07-08T10:05:34Z</time>
      </trkpt>
      <trkpt lat="47.82171" lon="-3.534">
        <ele>6.95</ele>
        <time>2020-07-08T10:05:35Z</time>
      </trkpt>
      <trkpt lat="47.82174" lon="-3.53407">
        <ele>6.6</ele>
        <time>2020-07-08T10:05:36Z</time>
      </trkpt>
      <trkpt lat="47.82177" lon="-3.53412">
        <ele>6.18</ele>
        <time>2020-07-08T10:05:37Z</time>
      </trkpt>
      <trkpt lat="47.8218" lon="-3.53417">
        <ele>5.58</ele>
        <time>2020-07-08T10:05:38Z</time>
      </trkpt>
      <trkpt lat="47.82182" lon="-3.53422">
        <ele>5.34</ele>
        <time>2020-07-08T10:05:39Z</time>
      </trkpt>
      <trkpt lat="47.82184" lon="-3.53428">
        <ele>5.08</ele>
        <time>2020-07-08T10:05:40Z</time>
      </trkpt>
      <trkpt lat="47.82187" lon="-3.53431">
        <ele>4.96</ele>
        <time>2020-07-08T10:05:41Z</time>
      </trkpt>
      <trkpt lat="47.82191" lon="-3.53434">
        <ele>4.9</ele>
        <time>2020-07-08T10:05:42Z</time>
      </trkpt>
      <trkpt lat="47.82195" lon="-3.53436">
        <ele>4.94</ele>
        <time>2020-07-08T10:05:43Z</time>
      </trkpt>
      <trkpt lat="47.822" lon="-3.53436">
        <ele>5.1</ele>
        <time>2020-07-08T10:05:44Z</time>
      </trkpt>
      <trkpt lat="47.82204" lon="-3.53435">
        <ele>5.26</ele>
        <time>2020-07-08T10:05:45Z</time>
      </trkpt>
      <trkpt lat="47.82207" lon="-3.53434">
        <ele>5.51</ele>
        <time>2020-07-08T10:05:46Z</time>
      </trkpt>
      <trkpt lat="47.82211" lon="-3.53432">
        <ele>5.8</ele>
        <time>2020-07-08T10:05:47Z</time>
      </trkpt>
      <trkpt lat="47.82214" lon="-3.5343">
        <ele>6.09</ele>
        <time>2020-07-08T10:05:48Z</time>
      </trkpt>
      <trkpt lat="47.82217" lon="-3.53429">
        <ele>6.39</ele>
        <time>2020-07-08T10:05:49Z</time>
      </trkpt>
      <trkpt lat="47.8222" lon="-3.53426">
        <ele>6.74</ele>
        <time>2020-07-08T10:05:50Z</time>
      </trkpt>
      <trkpt lat="47.82223" lon="-3.53424">
        <ele>7.12</ele>
        <time>2020-07-08T10:05:51Z</time>
      </trkpt>
      <trkpt lat="47.82225" lon="-3.53421">
        <ele>7.51</ele>
        <time>2020-07-08T10:05:52Z</time>
      </trkpt>
      <trkpt lat="47.82228" lon="-3.53418">
        <ele>7.9</ele>
        <time>2020-07-08T10:05:53Z</time>
      </trkpt>
      <trkpt lat="47.8223" lon="-3.53416">
        <ele>8.35</ele>
        <time>2020-07-08T10:05:54Z</time>
      </trkpt>
      <trkpt lat="47.82232" lon="-3.53413">
        <ele>9.02</ele>
        <time>2020-07-08T10:05:55Z</time>
      </trkpt>
      <trkpt lat="47.82234" lon="-3.53411">
        <ele>9.6</ele>
        <time>2020-07-08T10:05:56Z</time>
      </trkpt>
      <trkpt lat="47.82236" lon="-3.53409">
        <ele>9.97</ele>
        <time>2020-07-08T10:05:57Z</time>
      </trkpt>
      <trkpt lat="47.82237" lon="-3.53408">
        <ele>10.22</ele>
        <time>2020-07-08T10:05:58Z</time>
      </trkpt>
      <trkpt lat="47.82241" lon="-3.53407">
        <ele>10.33</ele>
        <time>2020-07-08T10:05:59Z</time>
      </trkpt>
      <trkpt lat="47.82243" lon="-3.53408">
        <ele>10.24</ele>
        <time>2020-07-08T10:06:00Z</time>
      </trkpt>
      <trkpt lat="47.82246" lon="-3.53409">
        <ele>10.06</ele>
        <time>2020-07-08T10:06:01Z</time>
      </trkpt>
      <trkpt lat="47.82247" lon="-3.53411">
        <ele>9.81</ele>
        <time>2020-07-08T10:06:02Z</time>
      </trkpt>
      <trkpt lat="47.82247" lon="-3.53413">
        <ele>9.49</ele>
        <time>2020-07-08T10:06:03Z</time>
      </trkpt>
      <trkpt lat="47.82248" lon="-3.53416">
        <ele>9.12</ele>
        <time>2020-07-08T10:06:04Z</time>
      </trkpt>
      <trkpt lat="47.82247" lon="-3.5342">
        <ele>8.94</ele>
        <time>2020-07-08T10:06:05Z</time>
      </trkpt>
      <trkpt lat="47.82245" lon="-3.53421">
        <ele>8.78</ele>
        <time>2020-07-08T10:06:06Z</time>
      </trkpt>
      <trkpt lat="47.82244" lon="-3.53425">
        <ele>8.63</ele>
        <time>2020-07-08T10:06:07Z</time>
      </trkpt>
      <trkpt lat="47.82242" lon="-3.53429">
        <ele>8.43</ele>
        <time>2020-07-08T10:06:08Z</time>
      </trkpt>
      <trkpt lat="47.82241" lon="-3.53432">
        <ele>8.21</ele>
        <time>2020-07-08T10:06:09Z</time>
      </trkpt>
      <trkpt lat="47.82239" lon="-3.53436">
        <ele>7.91</ele>
        <time>2020-07-08T10:06:10Z</time>
      </trkpt>
      <trkpt lat="47.82238" lon="-3.53438">
        <ele>7.66</ele>
        <time>2020-07-08T10:06:11Z</time>
      </trkpt>
      <trkpt lat="47.82238" lon="-3.53439">
        <ele>7.55</ele>
        <time>2020-07-08T10:06:12Z</time>
      </trkpt>
      <trkpt lat="47.82238" lon="-3.53439">
        <ele>7.51</ele>
        <time>2020-07-08T10:06:13Z</time>
      </trkpt>
      <trkpt lat="47.82238" lon="-3.5344">
        <ele>7.5</ele>
        <time>2020-07-08T10:06:14Z</time>
      </trkpt>
      <trkpt lat="47.82238" lon="-3.5344">
        <ele>7.5</ele>
        <time>2020-07-08T10:06:15Z</time>
      </trkpt>
      <trkpt lat="47.82238" lon="-3.5344">
        <ele>7.5</ele>
        <time>2020-07-08T10:06:16Z</time>
      </trkpt>
      <trkpt lat="47.82238" lon="-3.5344">
        <ele>7.5</ele>
        <time>2020-07-08T10:06:17Z</time>
      </trkpt>
      <trkpt lat="47.82238" lon="-3.5344">
        <ele>7.5</ele>
        <time>2020-07-08T10:06:18Z</time>
      </trkpt>
      <trkpt lat="47.82238" lon="-3.5344">
        <ele>7.5</ele>
        <time>2020-07-08T10:06:19Z</time>
      </trkpt>
      <trkpt lat="47.82233" lon="-3.53444">
        <ele>6.91</ele>
        <time>2020-07-08T10:06:20Z</time>
      </trkpt>
      <trkpt lat="47.82231" lon="-3.53446">
        <ele>6.43</ele>
        <time>2020-07-08T10:06:21Z</time>
      </trkpt>
      <trkpt lat="47.82229" lon="-3.53448">
        <ele>6.06</ele>
        <time>2020-07-08T10:06:22Z</time>
      </trkpt>
      <trkpt lat="47.82227" lon="-3.53449">
        <ele>5.81</ele>
        <time>2020-07-08T10:06:23Z</time>
      </trkpt>
      <trkpt lat="47.82227" lon="-3.53449">
        <ele>5.66</ele>
        <time>2020-07-08T10:06:24Z</time>
      </trkpt>
      <trkpt lat="47.82226" lon="-3.5345">
        <ele>5.59</ele>
        <time>2020-07-08T10:06:25Z</time>
      </trkpt>
      <trkpt lat="47.82226" lon="-3.53451">
        <ele>5.55</ele>
        <time>2020-07-08T10:06:26Z</time>
      </trkpt>
      <trkpt lat="47.82225" lon="-3.53453">
        <ele>5.42</ele>
        <time>2020-07-08T10:06:27Z</time>
      </trkpt>
      <trkpt lat="47.82223" lon="-3.53457">
        <ele>5.2</ele>
        <time>2020-07-08T10:06:28Z</time>
      </trkpt>
      <trkpt lat="47.8222" lon="-3.53459">
        <ele>5.02</ele>
        <time>2020-07-08T10:06:29Z</time>
      </trkpt>
      <trkpt lat="47.82218" lon="-3.53463">
        <ele>4.89</ele>
        <time>2020-07-08T10:06:30Z</time>
      </trkpt>
      <trkpt lat="47.82215" lon="-3.53465">
        <ele>4.78</ele>
        <time>2020-07-08T10:06:31Z</time>
      </trkpt>
      <trkpt lat="47.82212" lon="-3.53472">
        <ele>4.67</ele>
        <time>2020-07-08T10:06:32Z</time>
      </trkpt>
      <trkpt lat="47.82211" lon="-3.53476">
        <ele>4.57</ele>
        <time>2020-07-08T10:06:33Z</time>
      </trkpt>
      <trkpt lat="47.82211" lon="-3.53481">
        <ele>4.46</ele>
        <time>2020-07-08T10:06:34Z</time>
      </trkpt>
      <trkpt lat="47.82211" lon="-3.53486">
        <ele>4.36</ele>
        <time>2020-07-08T10:06:35Z</time>
      </trkpt>
      <trkpt lat="47.82212" lon="-3.53489">
        <ele>4.28</ele>
        <time>2020-07-08T10:06:36Z</time>
      </trkpt>
      <trkpt lat="47.82214" lon="-3.53492">
        <ele>4.22</ele>
        <time>2020-07-08T10:06:37Z</time>
      </trkpt>
      <trkpt lat="47.82216" lon="-3.53496">
        <ele>4.14</ele>
        <time>2020-07-08T10:06:38Z</time>
      </trkpt>
      <trkpt lat="47.82218" lon="-3.535">
        <ele>4.04</ele>
        <time>2020-07-08T10:06:39Z</time>
      </trkpt>
      <trkpt lat="47.82221" lon="-3.53504">
        <ele>4.01</ele>
        <time>2020-07-08T10:06:40Z</time>
      </trkpt>
      <trkpt lat="47.82223" lon="-3.53509">
        <ele>4.04</ele>
        <time>2020-07-08T10:06:41Z</time>
      </trkpt>
      <trkpt lat="47.82225" lon="-3.53512">
        <ele>4.13</ele>
        <time>2020-07-08T10:06:42Z</time>
      </trkpt>
      <trkpt lat="47.82227" lon="-3.53515">
        <ele>4.23</ele>
        <time>2020-07-08T10:06:43Z</time>
      </trkpt>
      <trkpt lat="47.8223" lon="-3.53518">
        <ele>4.33</ele>
        <time>2020-07-08T10:06:44Z</time>
      </trkpt>
      <trkpt lat="47.82232" lon="-3.53522">
        <ele>4.4</ele>
        <time>2020-07-08T10:06:45Z</time>
      </trkpt>
      <trkpt lat="47.82234" lon="-3.53525">
        <ele>4.44</ele>
        <time>2020-07-08T10:06:46Z</time>
      </trkpt>
      <trkpt lat="47.82235" lon="-3.53528">
        <ele>4.45</ele>
        <time>2020-07-08T10:06:47Z</time>
      </trkpt>
      <trkpt lat="47.82236" lon="-3.53533">
        <ele>4.36</ele>
        <time>2020-07-08T10:06:48Z</time>
      </trkpt>
      <trkpt lat="47.82237" lon="-3.53537">
        <ele>4.25</ele>
        <time>2020-07-08T10:06:49Z</time>
      </trkpt>
      <trkpt lat="47.82239" lon="-3.53542">
        <ele>4.14</ele>
        <time>2020-07-08T10:06:50Z</time>
      </trkpt>
      <trkpt lat="47.8224" lon="-3.53546">
        <ele>4.02</ele>
        <time>2020-07-08T10:06:51Z</time>
      </trkpt>
      <trkpt lat="47.82241" lon="-3.53551">
        <ele>3.89</ele>
        <time>2020-07-08T10:06:52Z</time>
      </trkpt>
      <trkpt lat="47.82242" lon="-3.53556">
        <ele>3.76</ele>
        <time>2020-07-08T10:06:53Z</time>
      </trkpt>
      <trkpt lat="47.82243" lon="-3.5356">
        <ele>3.75</ele>
        <time>2020-07-08T10:06:54Z</time>
      </trkpt>
      <trkpt lat="47.82245" lon="-3.53565">
        <ele>3.8</ele>
        <time>2020-07-08T10:06:55Z</time>
      </trkpt>
      <trkpt lat="47.82246" lon="-3.53569">
        <ele>3.85</ele>
        <time>2020-07-08T10:06:56Z</time>
      </trkpt>
      <trkpt lat="47.82248" lon="-3.53573">
        <ele>3.9</ele>
        <time>2020-07-08T10:06:57Z</time>
      </trkpt>
      <trkpt lat="47.8225" lon="-3.53578">
        <ele>3.97</ele>
        <time>2020-07-08T10:06:58Z</time>
      </trkpt>
      <trkpt lat="47.82252" lon="-3.53582">
        <ele>3.99</ele>
        <time>2020-07-08T10:06:59Z</time>
      </trkpt>
      <trkpt lat="47.82253" lon="-3.53586">
        <ele>3.99</ele>
        <time>2020-07-08T10:07:00Z</time>
      </trkpt>
      <trkpt lat="47.82255" lon="-3.5359">
        <ele>3.97</ele>
        <time>2020-07-08T10:07:01Z</time>
      </trkpt>
      <trkpt lat="47.82257" lon="-3.53591">
        <ele>3.94</ele>
        <time>2020-07-08T10:07:02Z</time>
      </trkpt>
      <trkpt lat="47.8226" lon="-3.53591">
        <ele>3.91</ele>
        <time>2020-07-08T10:07:03Z</time>
      </trkpt>
      <trkpt lat="47.82262" lon="-3.53591">
        <ele>3.88</ele>
        <time>2020-07-08T10:07:04Z</time>
      </trkpt>
      <trkpt lat="47.82264" lon="-3.53591">
        <ele>3.86</ele>
        <time>2020-07-08T10:07:05Z</time>
      </trkpt>
      <trkpt lat="47.82266" lon="-3.53591">
        <ele>3.86</ele>
        <time>2020-07-08T10:07:06Z</time>
      </trkpt>
      <trkpt lat="47.82267" lon="-3.53589">
        <ele>3.87</ele>
        <time>2020-07-08T10:07:07Z</time>
      </trkpt>
      <trkpt lat="47.82269" lon="-3.53588">
        <ele>3.88</ele>
        <time>2020-07-08T10:07:08Z</time>
      </trkpt>
      <trkpt lat="47.8227" lon="-3.53586">
        <ele>3.91</ele>
        <time>2020-07-08T10:07:09Z</time>
      </trkpt>
      <trkpt lat="47.82272" lon="-3.53585">
        <ele>3.94</ele>
        <time>2020-07-08T10:07:10Z</time>
      </trkpt>
      <trkpt lat="47.82273" lon="-3.53583">
        <ele>3.98</ele>
        <time>2020-07-08T10:07:11Z</time>
      </trkpt>
      <trkpt lat="47.82275" lon="-3.53581">
        <ele>4.09</ele>
        <time>2020-07-08T10:07:12Z</time>
      </trkpt>
      <trkpt lat="47.82277" lon="-3.53579">
        <ele>4.24</ele>
        <time>2020-07-08T10:07:13Z</time>
      </trkpt>
      <trkpt lat="47.82279" lon="-3.53576">
        <ele>4.58</ele>
        <time>2020-07-08T10:07:14Z</time>
      </trkpt>
      <trkpt lat="47.8228" lon="-3.53573">
        <ele>4.9</ele>
        <time>2020-07-08T10:07:15Z</time>
      </trkpt>
      <trkpt lat="47.82281" lon="-3.53571">
        <ele>5.18</ele>
        <time>2020-07-08T10:07:16Z</time>
      </trkpt>
      <trkpt lat="47.82282" lon="-3.53569">
        <ele>5.46</ele>
        <time>2020-07-08T10:07:17Z</time>
      </trkpt>
      <trkpt lat="47.82283" lon="-3.53565">
        <ele>5.76</ele>
        <time>2020-07-08T10:07:18Z</time>
      </trkpt>
      <trkpt lat="47.82285" lon="-3.53562">
        <ele>5.99</ele>
        <time>2020-07-08T10:07:19Z</time>
      </trkpt>
      <trkpt lat="47.82285" lon="-3.53559">
        <ele>6.12</ele>
        <time>2020-07-08T10:07:20Z</time>
      </trkpt>
      <trkpt lat="47.82286" lon="-3.53557">
        <ele>6.21</ele>
        <time>2020-07-08T10:07:21Z</time>
      </trkpt>
      <trkpt lat="47.82287" lon="-3.53554">
        <ele>6.37</ele>
        <time>2020-07-08T10:07:22Z</time>
      </trkpt>
      <trkpt lat="47.82288" lon="-3.53553">
        <ele>6.52</ele>
        <time>2020-07-08T10:07:23Z</time>
      </trkpt>
      <trkpt lat="47.82289" lon="-3.5355">
        <ele>6.73</ele>
        <time>2020-07-08T10:07:24Z</time>
      </trkpt>
      <trkpt lat="47.82289" lon="-3.53548">
        <ele>6.92</ele>
        <time>2020-07-08T10:07:25Z</time>
      </trkpt>
      <trkpt lat="47.8229" lon="-3.53546">
        <ele>7.1</ele>
        <time>2020-07-08T10:07:26Z</time>
      </trkpt>
      <trkpt lat="47.82291" lon="-3.53546">
        <ele>7.21</ele>
        <time>2020-07-08T10:07:27Z</time>
      </trkpt>
      <trkpt lat="47.82292" lon="-3.53545">
        <ele>7.36</ele>
        <time>2020-07-08T10:07:28Z</time>
      </trkpt>
      <trkpt lat="47.82293" lon="-3.53545">
        <ele>7.54</ele>
        <time>2020-07-08T10:07:29Z</time>
      </trkpt>
      <trkpt lat="47.82295" lon="-3.53544">
        <ele>7.73</ele>
        <time>2020-07-08T10:07:30Z</time>
      </trkpt>
      <trkpt lat="47.82297" lon="-3.53544">
        <ele>7.85</ele>
        <time>2020-07-08T10:07:31Z</time>
      </trkpt>
      <trkpt lat="47.82299" lon="-3.53544">
        <ele>8.05</ele>
        <time>2020-07-08T10:07:32Z</time>
      </trkpt>
      <trkpt lat="47.82301" lon="-3.53543">
        <ele>8.27</ele>
        <time>2020-07-08T10:07:33Z</time>
      </trkpt>
      <trkpt lat="47.82303" lon="-3.53543">
        <ele>8.52</ele>
        <time>2020-07-08T10:07:34Z</time>
      </trkpt>
      <trkpt lat="47.82306" lon="-3.53542">
        <ele>8.88</ele>
        <time>2020-07-08T10:07:35Z</time>
      </trkpt>
      <trkpt lat="47.82308" lon="-3.53542">
        <ele>9.13</ele>
        <time>2020-07-08T10:07:36Z</time>
      </trkpt>
      <trkpt lat="47.82309" lon="-3.53542">
        <ele>9.28</ele>
        <time>2020-07-08T10:07:37Z</time>
      </trkpt>
      <trkpt lat="47.82311" lon="-3.53542">
        <ele>9.39</ele>
        <time>2020-07-08T10:07:38Z</time>
      </trkpt>
      <trkpt lat="47.82313" lon="-3.53543">
        <ele>9.55</ele>
        <time>2020-07-08T10:07:39Z</time>
      </trkpt>
      <trkpt lat="47.82315" lon="-3.53542">
        <ele>9.79</ele>
        <time>2020-07-08T10:07:40Z</time>
      </trkpt>
      <trkpt lat="47.82316" lon="-3.53543">
        <ele>9.9</ele>
        <time>2020-07-08T10:07:41Z</time>
      </trkpt>
      <trkpt lat="47.82316" lon="-3.53544">
        <ele>9.91</ele>
        <time>2020-07-08T10:07:42Z</time>
      </trkpt>
      <trkpt lat="47.82316" lon="-3.53544">
        <ele>9.82</ele>
        <time>2020-07-08T10:07:43Z</time>
      </trkpt>
      <trkpt lat="47.82315" lon="-3.53545">
        <ele>9.61</ele>
        <time>2020-07-08T10:07:44Z</time>
      </trkpt>
      <trkpt lat="47.82314" lon="-3.53548">
        <ele>9.29</ele>
        <time>2020-07-08T10:07:45Z</time>
      </trkpt>
      <trkpt lat="47.82312" lon="-3.53549">
        <ele>8.95</ele>
        <time>2020-07-08T10:07:46Z</time>
      </trkpt>
      <trkpt lat="47.82312" lon="-3.5355">
        <ele>8.75</ele>
        <time>2020-07-08T10:07:47Z</time>
      </trkpt>
      <trkpt lat="47.82312" lon="-3.53552">
        <ele>8.54</ele>
        <time>2020-07-08T10:07:48Z</time>
      </trkpt>
      <trkpt lat="47.82312" lon="-3.53553">
        <ele>8.36</ele>
        <time>2020-07-08T10:07:49Z</time>
      </trkpt>
      <trkpt lat="47.82312" lon="-3.53554">
        <ele>8.19</ele>
        <time>2020-07-08T10:07:50Z</time>
      </trkpt>
      <trkpt lat="47.82311" lon="-3.53556">
        <ele>7.93</ele>
        <time>2020-07-08T10:07:51Z</time>
      </trkpt>
      <trkpt lat="47.8231" lon="-3.53557">
        <ele>7.84</ele>
        <time>2020-07-08T10:07:52Z</time>
      </trkpt>
      <trkpt lat="47.82309" lon="-3.53559">
        <ele>7.9</ele>
        <time>2020-07-08T10:07:53Z</time>
      </trkpt>
      <trkpt lat="47.82309" lon="-3.53561">
        <ele>8.03</ele>
        <time>2020-07-08T10:07:54Z</time>
      </trkpt>
      <trkpt lat="47.82309" lon="-3.53564">
        <ele>8.23</ele>
        <time>2020-07-08T10:07:55Z</time>
      </trkpt>
      <trkpt lat="47.82307" lon="-3.53567">
        <ele>8.39</ele>
        <time>2020-07-08T10:07:56Z</time>
      </trkpt>
      <trkpt lat="47.82305" lon="-3.53571">
        <ele>8.51</ele>
        <time>2020-07-08T10:07:57Z</time>
      </trkpt>
      <trkpt lat="47.82301" lon="-3.53573">
        <ele>8.33</ele>
        <time>2020-07-08T10:07:58Z</time>
      </trkpt>
      <trkpt lat="47.82301" lon="-3.53576">
        <ele>8.35</ele>
        <time>2020-07-08T10:07:59Z</time>
      </trkpt>
      <trkpt lat="47.82296" lon="-3.5358">
        <ele>8.01</ele>
        <time>2020-07-08T10:08:00Z</time>
      </trkpt>
      <trkpt lat="47.82293" lon="-3.53583">
        <ele>7.55</ele>
        <time>2020-07-08T10:08:01Z</time>
      </trkpt>
      <trkpt lat="47.82292" lon="-3.53588">
        <ele>6.98</ele>
        <time>2020-07-08T10:08:02Z</time>
      </trkpt>
      <trkpt lat="47.8229" lon="-3.53591">
        <ele>6.54</ele>
        <time>2020-07-08T10:08:03Z</time>
      </trkpt>
      <trkpt lat="47.82289" lon="-3.53595">
        <ele>6.09</ele>
        <time>2020-07-08T10:08:04Z</time>
      </trkpt>
      <trkpt lat="47.82288" lon="-3.536">
        <ele>5.57</ele>
        <time>2020-07-08T10:08:05Z</time>
      </trkpt>
      <trkpt lat="47.82286" lon="-3.53603">
        <ele>5.02</ele>
        <time>2020-07-08T10:08:06Z</time>
      </trkpt>
      <trkpt lat="47.82283" lon="-3.53607">
        <ele>4.36</ele>
        <time>2020-07-08T10:08:07Z</time>
      </trkpt>
      <trkpt lat="47.8228" lon="-3.5361">
        <ele>3.76</ele>
        <time>2020-07-08T10:08:08Z</time>
      </trkpt>
      <trkpt lat="47.82278" lon="-3.53613">
        <ele>3.27</ele>
        <time>2020-07-08T10:08:09Z</time>
      </trkpt>
      <trkpt lat="47.82275" lon="-3.53616">
        <ele>3.28</ele>
        <time>2020-07-08T10:08:10Z</time>
      </trkpt>
      <trkpt lat="47.82272" lon="-3.53623">
        <ele>3.47</ele>
        <time>2020-07-08T10:08:11Z</time>
      </trkpt>
      <trkpt lat="47.82269" lon="-3.5363">
        <ele>3.69</ele>
        <time>2020-07-08T10:08:12Z</time>
      </trkpt>
      <trkpt lat="47.82267" lon="-3.53635">
        <ele>3.85</ele>
        <time>2020-07-08T10:08:13Z</time>
      </trkpt>
      <trkpt lat="47.82265" lon="-3.53644">
        <ele>4.02</ele>
        <time>2020-07-08T10:08:14Z</time>
      </trkpt>
      <trkpt lat="47.82264" lon="-3.5365">
        <ele>4.15</ele>
        <time>2020-07-08T10:08:15Z</time>
      </trkpt>
      <trkpt lat="47.82264" lon="-3.53657">
        <ele>4.27</ele>
        <time>2020-07-08T10:08:16Z</time>
      </trkpt>
      <trkpt lat="47.82265" lon="-3.53663">
        <ele>4.41</ele>
        <time>2020-07-08T10:08:17Z</time>
      </trkpt>
      <trkpt lat="47.82265" lon="-3.53668">
        <ele>4.5</ele>
        <time>2020-07-08T10:08:18Z</time>
      </trkpt>
      <trkpt lat="47.82267" lon="-3.53674">
        <ele>4.57</ele>
        <time>2020-07-08T10:08:19Z</time>
      </trkpt>
      <trkpt lat="47.82269" lon="-3.5368">
        <ele>4.65</ele>
        <time>2020-07-08T10:08:20Z</time>
      </trkpt>
      <trkpt lat="47.8227" lon="-3.53686">
        <ele>4.71</ele>
        <time>2020-07-08T10:08:21Z</time>
      </trkpt>
      <trkpt lat="47.82272" lon="-3.5369">
        <ele>4.78</ele>
        <time>2020-07-08T10:08:22Z</time>
      </trkpt>
      <trkpt lat="47.82274" lon="-3.53695">
        <ele>4.83</ele>
        <time>2020-07-08T10:08:23Z</time>
      </trkpt>
      <trkpt lat="47.82276" lon="-3.53699">
        <ele>4.78</ele>
        <time>2020-07-08T10:08:24Z</time>
      </trkpt>
      <trkpt lat="47.82277" lon="-3.53704">
        <ele>4.69</ele>
        <time>2020-07-08T10:08:25Z</time>
      </trkpt>
      <trkpt lat="47.82279" lon="-3.53709">
        <ele>4.59</ele>
        <time>2020-07-08T10:08:26Z</time>
      </trkpt>
      <trkpt lat="47.82279" lon="-3.53711">
        <ele>4.54</ele>
        <time>2020-07-08T10:08:27Z</time>
      </trkpt>
      <trkpt lat="47.8228" lon="-3.53713">
        <ele>4.51</ele>
        <time>2020-07-08T10:08:28Z</time>
      </trkpt>
      <trkpt lat="47.82281" lon="-3.53715">
        <ele>4.46</ele>
        <time>2020-07-08T10:08:29Z</time>
      </trkpt>
      <trkpt lat="47.82282" lon="-3.53717">
        <ele>4.44</ele>
        <time>2020-07-08T10:08:30Z</time>
      </trkpt>
      <trkpt lat="47.82284" lon="-3.53719">
        <ele>4.41</ele>
        <time>2020-07-08T10:08:31Z</time>
      </trkpt>
      <trkpt lat="47.82287" lon="-3.53722">
        <ele>4.38</ele>
        <time>2020-07-08T10:08:32Z</time>
      </trkpt>
      <trkpt lat="47.82289" lon="-3.53725">
        <ele>4.38</ele>
        <time>2020-07-08T10:08:33Z</time>
      </trkpt>
      <trkpt lat="47.82292" lon="-3.53728">
        <ele>4.4</ele>
        <time>2020-07-08T10:08:34Z</time>
      </trkpt>
      <trkpt lat="47.82295" lon="-3.5373">
        <ele>4.42</ele>
        <time>2020-07-08T10:08:35Z</time>
      </trkpt>
      <trkpt lat="47.82297" lon="-3.53733">
        <ele>4.42</ele>
        <time>2020-07-08T10:08:36Z</time>
      </trkpt>
      <trkpt lat="47.823" lon="-3.53735">
        <ele>4.42</ele>
        <time>2020-07-08T10:08:37Z</time>
      </trkpt>
      <trkpt lat="47.82302" lon="-3.53738">
        <ele>4.4</ele>
        <time>2020-07-08T10:08:38Z</time>
      </trkpt>
      <trkpt lat="47.82305" lon="-3.5374">
        <ele>4.36</ele>
        <time>2020-07-08T10:08:39Z</time>
      </trkpt>
      <trkpt lat="47.82308" lon="-3.53743">
        <ele>4.52</ele>
        <time>2020-07-08T10:08:40Z</time>
      </trkpt>
      <trkpt lat="47.8231" lon="-3.53746">
        <ele>4.68</ele>
        <time>2020-07-08T10:08:41Z</time>
      </trkpt>
      <trkpt lat="47.82312" lon="-3.53749">
        <ele>4.73</ele>
        <time>2020-07-08T10:08:42Z</time>
      </trkpt>
      <trkpt lat="47.82314" lon="-3.53753">
        <ele>4.81</ele>
        <time>2020-07-08T10:08:43Z</time>
      </trkpt>
      <trkpt lat="47.82316" lon="-3.53758">
        <ele>4.87</ele>
        <time>2020-07-08T10:08:44Z</time>
      </trkpt>
      <trkpt lat="47.82318" lon="-3.53763">
        <ele>4.91</ele>
        <time>2020-07-08T10:08:45Z</time>
      </trkpt>
      <trkpt lat="47.82319" lon="-3.53766">
        <ele>4.92</ele>
        <time>2020-07-08T10:08:46Z</time>
      </trkpt>
      <trkpt lat="47.82321" lon="-3.53768">
        <ele>4.93</ele>
        <time>2020-07-08T10:08:47Z</time>
      </trkpt>
      <trkpt lat="47.82323" lon="-3.53771">
        <ele>4.94</ele>
        <time>2020-07-08T10:08:48Z</time>
      </trkpt>
      <trkpt lat="47.82325" lon="-3.53774">
        <ele>4.91</ele>
        <time>2020-07-08T10:08:49Z</time>
      </trkpt>
      <trkpt lat="47.82326" lon="-3.53776">
        <ele>4.86</ele>
        <time>2020-07-08T10:08:50Z</time>
      </trkpt>
      <trkpt lat="47.82328" lon="-3.53778">
        <ele>4.83</ele>
        <time>2020-07-08T10:08:51Z</time>
      </trkpt>
      <trkpt lat="47.8233" lon="-3.53779">
        <ele>4.85</ele>
        <time>2020-07-08T10:08:52Z</time>
      </trkpt>
      <trkpt lat="47.82332" lon="-3.5378">
        <ele>4.87</ele>
        <time>2020-07-08T10:08:53Z</time>
      </trkpt>
      <trkpt lat="47.82335" lon="-3.53781">
        <ele>5.12</ele>
        <time>2020-07-08T10:08:54Z</time>
      </trkpt>
      <trkpt lat="47.82338" lon="-3.53782">
        <ele>5.55</ele>
        <time>2020-07-08T10:08:55Z</time>
      </trkpt>
      <trkpt lat="47.8234" lon="-3.53783">
        <ele>5.89</ele>
        <time>2020-07-08T10:08:56Z</time>
      </trkpt>
      <trkpt lat="47.82341" lon="-3.53784">
        <ele>6.16</ele>
        <time>2020-07-08T10:08:57Z</time>
      </trkpt>
      <trkpt lat="47.82343" lon="-3.53784">
        <ele>6.37</ele>
        <time>2020-07-08T10:08:58Z</time>
      </trkpt>
      <trkpt lat="47.82344" lon="-3.53786">
        <ele>6.55</ele>
        <time>2020-07-08T10:08:59Z</time>
      </trkpt>
      <trkpt lat="47.82345" lon="-3.53788">
        <ele>6.57</ele>
        <time>2020-07-08T10:09:00Z</time>
      </trkpt>
      <trkpt lat="47.82347" lon="-3.53792">
        <ele>6.5</ele>
        <time>2020-07-08T10:09:01Z</time>
      </trkpt>
      <trkpt lat="47.82349" lon="-3.53796">
        <ele>6.34</ele>
        <time>2020-07-08T10:09:02Z</time>
      </trkpt>
      <trkpt lat="47.82351" lon="-3.53801">
        <ele>6.08</ele>
        <time>2020-07-08T10:09:03Z</time>
      </trkpt>
      <trkpt lat="47.82354" lon="-3.53806">
        <ele>5.65</ele>
        <time>2020-07-08T10:09:04Z</time>
      </trkpt>
      <trkpt lat="47.82357" lon="-3.53812">
        <ele>5.4</ele>
        <time>2020-07-08T10:09:05Z</time>
      </trkpt>
      <trkpt lat="47.82361" lon="-3.53818">
        <ele>5.17</ele>
        <time>2020-07-08T10:09:06Z</time>
      </trkpt>
      <trkpt lat="47.82366" lon="-3.53825">
        <ele>5.1</ele>
        <time>2020-07-08T10:09:07Z</time>
      </trkpt>
      <trkpt lat="47.82369" lon="-3.53831">
        <ele>4.93</ele>
        <time>2020-07-08T10:09:08Z</time>
      </trkpt>
      <trkpt lat="47.82373" lon="-3.53837">
        <ele>4.83</ele>
        <time>2020-07-08T10:09:09Z</time>
      </trkpt>
      <trkpt lat="47.82377" lon="-3.53843">
        <ele>4.77</ele>
        <time>2020-07-08T10:09:10Z</time>
      </trkpt>
      <trkpt lat="47.82381" lon="-3.53849">
        <ele>4.66</ele>
        <time>2020-07-08T10:09:11Z</time>
      </trkpt>
      <trkpt lat="47.82384" lon="-3.53855">
        <ele>4.47</ele>
        <time>2020-07-08T10:09:12Z</time>
      </trkpt>
      <trkpt lat="47.82388" lon="-3.5386">
        <ele>4.21</ele>
        <time>2020-07-08T10:09:13Z</time>
      </trkpt>
      <trkpt lat="47.82394" lon="-3.53864">
        <ele>4.19</ele>
        <time>2020-07-08T10:09:14Z</time>
      </trkpt>
      <trkpt lat="47.82399" lon="-3.53867">
        <ele>4.25</ele>
        <time>2020-07-08T10:09:15Z</time>
      </trkpt>
      <trkpt lat="47.82404" lon="-3.5387">
        <ele>4.35</ele>
        <time>2020-07-08T10:09:16Z</time>
      </trkpt>
      <trkpt lat="47.82409" lon="-3.53871">
        <ele>4.43</ele>
        <time>2020-07-08T10:09:17Z</time>
      </trkpt>
      <trkpt lat="47.82413" lon="-3.53872">
        <ele>4.5</ele>
        <time>2020-07-08T10:09:18Z</time>
      </trkpt>
      <trkpt lat="47.82417" lon="-3.53874">
        <ele>4.53</ele>
        <time>2020-07-08T10:09:19Z</time>
      </trkpt>
      <trkpt lat="47.8242" lon="-3.53874">
        <ele>4.68</ele>
        <time>2020-07-08T10:09:20Z</time>
      </trkpt>
      <trkpt lat="47.82424" lon="-3.53874">
        <ele>4.87</ele>
        <time>2020-07-08T10:09:21Z</time>
      </trkpt>
      <trkpt lat="47.82427" lon="-3.53873">
        <ele>5.08</ele>
        <time>2020-07-08T10:09:22Z</time>
      </trkpt>
      <trkpt lat="47.8243" lon="-3.53874">
        <ele>5.24</ele>
        <time>2020-07-08T10:09:23Z</time>
      </trkpt>
      <trkpt lat="47.82433" lon="-3.53876">
        <ele>5.32</ele>
        <time>2020-07-08T10:09:24Z</time>
      </trkpt>
      <trkpt lat="47.82438" lon="-3.53877">
        <ele>5.33</ele>
        <time>2020-07-08T10:09:25Z</time>
      </trkpt>
      <trkpt lat="47.82443" lon="-3.53876">
        <ele>5.62</ele>
        <time>2020-07-08T10:09:26Z</time>
      </trkpt>
      <trkpt lat="47.82448" lon="-3.53876">
        <ele>5.78</ele>
        <time>2020-07-08T10:09:27Z</time>
      </trkpt>
      <trkpt lat="47.82452" lon="-3.53877">
        <ele>5.67</ele>
        <time>2020-07-08T10:09:28Z</time>
      </trkpt>
      <trkpt lat="47.82456" lon="-3.53878">
        <ele>5.58</ele>
        <time>2020-07-08T10:09:29Z</time>
      </trkpt>
      <trkpt lat="47.8246" lon="-3.53878">
        <ele>5.49</ele>
        <time>2020-07-08T10:09:30Z</time>
      </trkpt>
      <trkpt lat="47.82464" lon="-3.53879">
        <ele>5.35</ele>
        <time>2020-07-08T10:09:31Z</time>
      </trkpt>
      <trkpt lat="47.82468" lon="-3.53879">
        <ele>5.28</ele>
        <time>2020-07-08T10:09:32Z</time>
      </trkpt>
      <trkpt lat="47.82472" lon="-3.53878">
        <ele>5.3</ele>
        <time>2020-07-08T10:09:33Z</time>
      </trkpt>
      <trkpt lat="47.82475" lon="-3.53879">
        <ele>5.33</ele>
        <time>2020-07-08T10:09:34Z</time>
      </trkpt>
      <trkpt lat="47.82478" lon="-3.5388">
        <ele>5.21</ele>
        <time>2020-07-08T10:09:35Z</time>
      </trkpt>
      <trkpt lat="47.8248" lon="-3.53879">
        <ele>5.35</ele>
        <time>2020-07-08T10:09:36Z</time>
      </trkpt>
      <trkpt lat="47.82483" lon="-3.53879">
        <ele>5.54</ele>
        <time>2020-07-08T10:09:37Z</time>
      </trkpt>
      <trkpt lat="47.82485" lon="-3.53878">
        <ele>5.71</ele>
        <time>2020-07-08T10:09:38Z</time>
      </trkpt>
      <trkpt lat="47.82488" lon="-3.53878">
        <ele>5.83</ele>
        <time>2020-07-08T10:09:39Z</time>
      </trkpt>
      <trkpt lat="47.8249" lon="-3.53878">
        <ele>5.9</ele>
        <time>2020-07-08T10:09:40Z</time>
      </trkpt>
      <trkpt lat="47.82493" lon="-3.53879">
        <ele>5.92</ele>
        <time>2020-07-08T10:09:41Z</time>
      </trkpt>
      <trkpt lat="47.82499" lon="-3.53881">
        <ele>5.78</ele>
        <time>2020-07-08T10:09:42Z</time>
      </trkpt>
      <trkpt lat="47.82503" lon="-3.53881">
        <ele>5.75</ele>
        <time>2020-07-08T10:09:43Z</time>
      </trkpt>
      <trkpt lat="47.82508" lon="-3.53882">
        <ele>5.81</ele>
        <time>2020-07-08T10:09:44Z</time>
      </trkpt>
      <trkpt lat="47.82512" lon="-3.53881">
        <ele>5.95</ele>
        <time>2020-07-08T10:09:45Z</time>
      </trkpt>
      <trkpt lat="47.82515" lon="-3.53881">
        <ele>6.07</ele>
        <time>2020-07-08T10:09:46Z</time>
      </trkpt>
      <trkpt lat="47.82518" lon="-3.53881">
        <ele>6.21</ele>
        <time>2020-07-08T10:09:47Z</time>
      </trkpt>
      <trkpt lat="47.82519" lon="-3.5388">
        <ele>6.5</ele>
        <time>2020-07-08T10:09:48Z</time>
      </trkpt>
      <trkpt lat="47.82521" lon="-3.53879">
        <ele>6.83</ele>
        <time>2020-07-08T10:09:49Z</time>
      </trkpt>
      <trkpt lat="47.82523" lon="-3.53877">
        <ele>7.19</ele>
        <time>2020-07-08T10:09:50Z</time>
      </trkpt>
      <trkpt lat="47.82523" lon="-3.53876">
        <ele>7.55</ele>
        <time>2020-07-08T10:09:51Z</time>
      </trkpt>
      <trkpt lat="47.82525" lon="-3.53875">
        <ele>7.77</ele>
        <time>2020-07-08T10:09:52Z</time>
      </trkpt>
      <trkpt lat="47.82526" lon="-3.53874">
        <ele>7.99</ele>
        <time>2020-07-08T10:09:53Z</time>
      </trkpt>
      <trkpt lat="47.82528" lon="-3.53873">
        <ele>8.22</ele>
        <time>2020-07-08T10:09:54Z</time>
      </trkpt>
      <trkpt lat="47.82529" lon="-3.53871">
        <ele>8.59</ele>
        <time>2020-07-08T10:09:55Z</time>
      </trkpt>
      <trkpt lat="47.82531" lon="-3.53869">
        <ele>9</ele>
        <time>2020-07-08T10:09:56Z</time>
      </trkpt>
      <trkpt lat="47.82533" lon="-3.53867">
        <ele>9.36</ele>
        <time>2020-07-08T10:09:57Z</time>
      </trkpt>
      <trkpt lat="47.82535" lon="-3.53867">
        <ele>9.52</ele>
        <time>2020-07-08T10:09:58Z</time>
      </trkpt>
      <trkpt lat="47.82536" lon="-3.53867">
        <ele>9.52</ele>
        <time>2020-07-08T10:09:59Z</time>
      </trkpt>
      <trkpt lat="47.82537" lon="-3.53868">
        <ele>9.39</ele>
        <time>2020-07-08T10:10:00Z</time>
      </trkpt>
      <trkpt lat="47.82538" lon="-3.5387">
        <ele>9.14</ele>
        <time>2020-07-08T10:10:01Z</time>
      </trkpt>
      <trkpt lat="47.8254" lon="-3.53871">
        <ele>8.79</ele>
        <time>2020-07-08T10:10:02Z</time>
      </trkpt>
      <trkpt lat="47.82542" lon="-3.53874">
        <ele>8.41</ele>
        <time>2020-07-08T10:10:03Z</time>
      </trkpt>
      <trkpt lat="47.82542" lon="-3.53876">
        <ele>8.04</ele>
        <time>2020-07-08T10:10:04Z</time>
      </trkpt>
      <trkpt lat="47.82543" lon="-3.53877">
        <ele>7.7</ele>
        <time>2020-07-08T10:10:05Z</time>
      </trkpt>
      <trkpt lat="47.82543" lon="-3.53879">
        <ele>7.4</ele>
        <time>2020-07-08T10:10:06Z</time>
      </trkpt>
      <trkpt lat="47.82543" lon="-3.5388">
        <ele>7.2</ele>
        <time>2020-07-08T10:10:07Z</time>
      </trkpt>
      <trkpt lat="47.82544" lon="-3.53882">
        <ele>6.95</ele>
        <time>2020-07-08T10:10:08Z</time>
      </trkpt>
      <trkpt lat="47.82545" lon="-3.53885">
        <ele>6.52</ele>
        <time>2020-07-08T10:10:09Z</time>
      </trkpt>
      <trkpt lat="47.82545" lon="-3.53887">
        <ele>6.16</ele>
        <time>2020-07-08T10:10:10Z</time>
      </trkpt>
      <trkpt lat="47.82546" lon="-3.53887">
        <ele>6.06</ele>
        <time>2020-07-08T10:10:11Z</time>
      </trkpt>
      <trkpt lat="47.82545" lon="-3.53887">
        <ele>6.01</ele>
        <time>2020-07-08T10:10:12Z</time>
      </trkpt>
      <trkpt lat="47.82545" lon="-3.53887">
        <ele>5.99</ele>
        <time>2020-07-08T10:10:13Z</time>
      </trkpt>
      <trkpt lat="47.82545" lon="-3.53887">
        <ele>5.98</ele>
        <time>2020-07-08T10:10:14Z</time>
      </trkpt>
      <trkpt lat="47.82545" lon="-3.53887">
        <ele>5.98</ele>
        <time>2020-07-08T10:10:15Z</time>
      </trkpt>
      <trkpt lat="47.82545" lon="-3.53887">
        <ele>5.98</ele>
        <time>2020-07-08T10:10:16Z</time>
      </trkpt>
      <trkpt lat="47.82545" lon="-3.53887">
        <ele>5.98</ele>
        <time>2020-07-08T10:10:17Z</time>
      </trkpt>
      <trkpt lat="47.82545" lon="-3.53887">
        <ele>5.98</ele>
        <time>2020-07-08T10:10:18Z</time>
      </trkpt>
      <trkpt lat="47.82545" lon="-3.53887">
        <ele>5.98</ele>
        <time>2020-07-08T10:10:19Z</time>
      </trkpt>
      <trkpt lat="47.82545" lon="-3.53887">
        <ele>5.98</ele>
        <time>2020-07-08T10:10:20Z</time>
      </trkpt>
      <trkpt lat="47.82556" lon="-3.53886">
        <ele>6.35</ele>
        <time>2020-07-08T10:10:21Z</time>
      </trkpt>
      <trkpt lat="47.82558" lon="-3.53884">
        <ele>6.69</ele>
        <time>2020-07-08T10:10:22Z</time>
      </trkpt>
      <trkpt lat="47.82558" lon="-3.53883">
        <ele>6.97</ele>
        <time>2020-07-08T10:10:23Z</time>
      </trkpt>
      <trkpt lat="47.8256" lon="-3.53883">
        <ele>7.15</ele>
        <time>2020-07-08T10:10:24Z</time>
      </trkpt>
      <trkpt lat="47.82559" lon="-3.53883">
        <ele>7.2</ele>
        <time>2020-07-08T10:10:25Z</time>
      </trkpt>
      <trkpt lat="47.82559" lon="-3.53883">
        <ele>7.21</ele>
        <time>2020-07-08T10:10:26Z</time>
      </trkpt>
      <trkpt lat="47.82559" lon="-3.53883">
        <ele>7.21</ele>
        <time>2020-07-08T10:10:27Z</time>
      </trkpt>
      <trkpt lat="47.82559" lon="-3.53883">
        <ele>7.21</ele>
        <time>2020-07-08T10:10:28Z</time>
      </trkpt>
      <trkpt lat="47.82559" lon="-3.53883">
        <ele>7.21</ele>
        <time>2020-07-08T10:10:29Z</time>
      </trkpt>
      <trkpt lat="47.82559" lon="-3.53883">
        <ele>7.21</ele>
        <time>2020-07-08T10:10:30Z</time>
      </trkpt>
      <trkpt lat="47.82559" lon="-3.53883">
        <ele>7.21</ele>
        <time>2020-07-08T10:10:31Z</time>
      </trkpt>
      <trkpt lat="47.82559" lon="-3.53883">
        <ele>7.21</ele>
        <time>2020-07-08T10:10:32Z</time>
      </trkpt>
      <trkpt lat="47.82559" lon="-3.53883">
        <ele>7.21</ele>
        <time>2020-07-08T10:10:33Z</time>
      </trkpt>
      <trkpt lat="47.82559" lon="-3.53883">
        <ele>7.21</ele>
        <time>2020-07-08T10:10:34Z</time>
      </trkpt>
      <trkpt lat="47.82559" lon="-3.53883">
        <ele>7.21</ele>
        <time>2020-07-08T10:10:35Z</time>
      </trkpt>
      <trkpt lat="47.82559" lon="-3.53883">
        <ele>7.21</ele>
        <time>2020-07-08T10:10:36Z</time>
      </trkpt>
      <trkpt lat="47.82559" lon="-3.53883">
        <ele>7.21</ele>
        <time>2020-07-08T10:10:37Z</time>
      </trkpt>
      <trkpt lat="47.82559" lon="-3.53883">
        <ele>7.21</ele>
        <time>2020-07-08T10:10:38Z</time>
      </trkpt>
      <trkpt lat="47.82559" lon="-3.53883">
        <ele>7.21</ele>
        <time>2020-07-08T10:10:39Z</time>
      </trkpt>
      <trkpt lat="47.82559" lon="-3.53883">
        <ele>7.21</ele>
        <time>2020-07-08T10:10:40Z</time>
      </trkpt>
      <trkpt lat="47.82559" lon="-3.53883">
        <ele>7.21</ele>
        <time>2020-07-08T10:10:41Z</time>
      </trkpt>
      <trkpt lat="47.82559" lon="-3.53883">
        <ele>7.21</ele>
        <time>2020-07-08T10:10:42Z</time>
      </trkpt>
      <trkpt lat="47.82559" lon="-3.53883">
        <ele>7.21</ele>
        <time>2020-07-08T10:10:43Z</time>
      </trkpt>
      <trkpt lat="47.82559" lon="-3.53883">
        <ele>7.21</ele>
        <time>2020-07-08T10:10:44Z</time>
      </trkpt>
      <trkpt lat="47.82559" lon="-3.53883">
        <ele>7.21</ele>
        <time>2020-07-08T10:10:45Z</time>
      </trkpt>
      <trkpt lat="47.82559" lon="-3.53883">
        <ele>7.21</ele>
        <time>2020-07-08T10:10:46Z</time>
      </trkpt>
      <trkpt lat="47.82559" lon="-3.53883">
        <ele>7.21</ele>
        <time>2020-07-08T10:10:47Z</time>
      </trkpt>
      <trkpt lat="47.82559" lon="-3.53883">
        <ele>7.21</ele>
        <time>2020-07-08T10:10:48Z</time>
      </trkpt>
      <trkpt lat="47.82559" lon="-3.53883">
        <ele>7.21</ele>
        <time>2020-07-08T10:10:49Z</time>
      </trkpt>
      <trkpt lat="47.82559" lon="-3.53883">
        <ele>7.21</ele>
        <time>2020-07-08T10:10:50Z</time>
      </trkpt>
      <trkpt lat="47.82559" lon="-3.53883">
        <ele>7.21</ele>
        <time>2020-07-08T10:10:51Z</time>
      </trkpt>
      <trkpt lat="47.82559" lon="-3.53883">
        <ele>7.21</ele>
        <time>2020-07-08T10:10:52Z</time>
      </trkpt>
      <trkpt lat="47.82559" lon="-3.53883">
        <ele>7.21</ele>
        <time>2020-07-08T10:10:53Z</time>
      </trkpt>
      <trkpt lat="47.82559" lon="-3.53883">
        <ele>7.21</ele>
        <time>2020-07-08T10:10:54Z</time>
      </trkpt>
      <trkpt lat="47.82559" lon="-3.53883">
        <ele>7.21</ele>
        <time>2020-07-08T10:10:55Z</time>
      </trkpt>
      <trkpt lat="47.82559" lon="-3.53883">
        <ele>7.21</ele>
        <time>2020-07-08T10:10:56Z</time>
      </trkpt>
      <trkpt lat="47.82559" lon="-3.53883">
        <ele>7.21</ele>
        <time>2020-07-08T10:10:57Z</time>
      </trkpt>
      <trkpt lat="47.82559" lon="-3.53883">
        <ele>7.21</ele>
        <time>2020-07-08T10:10:58Z</time>
      </trkpt>
      <trkpt lat="47.82559" lon="-3.53883">
        <ele>7.21</ele>
        <time>2020-07-08T10:10:59Z</time>
      </trkpt>
      <trkpt lat="47.82559" lon="-3.53883">
        <ele>7.21</ele>
        <time>2020-07-08T10:11:00Z</time>
      </trkpt>
      <trkpt lat="47.82559" lon="-3.53883">
        <ele>7.21</ele>
        <time>2020-07-08T10:11:01Z</time>
      </trkpt>
      <trkpt lat="47.82559" lon="-3.53883">
        <ele>7.21</ele>
        <time>2020-07-08T10:11:02Z</time>
      </trkpt>
      <trkpt lat="47.82559" lon="-3.53883">
        <ele>7.21</ele>
        <time>2020-07-08T10:11:03Z</time>
      </trkpt>
      <trkpt lat="47.82559" lon="-3.53883">
        <ele>7.21</ele>
        <time>2020-07-08T10:11:04Z</time>
      </trkpt>
      <trkpt lat="47.82559" lon="-3.53883">
        <ele>7.21</ele>
        <time>2020-07-08T10:11:05Z</time>
      </trkpt>
      <trkpt lat="47.82559" lon="-3.53883">
        <ele>7.21</ele>
        <time>2020-07-08T10:11:06Z</time>
      </trkpt>
      <trkpt lat="47.82559" lon="-3.53883">
        <ele>7.21</ele>
        <time>2020-07-08T10:11:07Z</time>
      </trkpt>
      <trkpt lat="47.82559" lon="-3.53883">
        <ele>7.21</ele>
        <time>2020-07-08T10:11:08Z</time>
      </trkpt>
      <trkpt lat="47.82559" lon="-3.53883">
        <ele>7.21</ele>
        <time>2020-07-08T10:11:09Z</time>
      </trkpt>
      <trkpt lat="47.82559" lon="-3.53883">
        <ele>7.21</ele>
        <time>2020-07-08T10:11:10Z</time>
      </trkpt>
      <trkpt lat="47.82559" lon="-3.53883">
        <ele>7.21</ele>
        <time>2020-07-08T10:11:11Z</time>
      </trkpt>
      <trkpt lat="47.82559" lon="-3.53883">
        <ele>7.21</ele>
        <time>2020-07-08T10:11:12Z</time>
      </trkpt>
      <trkpt lat="47.82559" lon="-3.53883">
        <ele>7.21</ele>
        <time>2020-07-08T10:11:13Z</time>
      </trkpt>
      <trkpt lat="47.82559" lon="-3.53883">
        <ele>7.21</ele>
        <time>2020-07-08T10:11:14Z</time>
      </trkpt>
      <trkpt lat="47.82559" lon="-3.53883">
        <ele>7.21</ele>
        <time>2020-07-08T10:11:15Z</time>
      </trkpt>
      <trkpt lat="47.82559" lon="-3.53883">
        <ele>7.21</ele>
        <time>2020-07-08T10:11:16Z</time>
      </trkpt>
      <trkpt lat="47.82559" lon="-3.53883">
        <ele>7.21</ele>
        <time>2020-07-08T10:11:17Z</time>
      </trkpt>
      <trkpt lat="47.82559" lon="-3.53883">
        <ele>7.21</ele>
        <time>2020-07-08T10:11:18Z</time>
      </trkpt>
      <trkpt lat="47.82559" lon="-3.53883">
        <ele>7.21</ele>
        <time>2020-07-08T10:11:19Z</time>
      </trkpt>
      <trkpt lat="47.82559" lon="-3.53883">
        <ele>7.21</ele>
        <time>2020-07-08T10:11:20Z</time>
      </trkpt>
      <trkpt lat="47.82559" lon="-3.53883">
        <ele>7.21</ele>
        <time>2020-07-08T10:11:21Z</time>
      </trkpt>
      <trkpt lat="47.82559" lon="-3.53883">
        <ele>7.21</ele>
        <time>2020-07-08T10:11:22Z</time>
      </trkpt>
      <trkpt lat="47.82559" lon="-3.53883">
        <ele>7.21</ele>
        <time>2020-07-08T10:11:23Z</time>
      </trkpt>
      <trkpt lat="47.82559" lon="-3.53883">
        <ele>7.21</ele>
        <time>2020-07-08T10:11:24Z</time>
      </trkpt>
      <trkpt lat="47.82559" lon="-3.53883">
        <ele>7.21</ele>
        <time>2020-07-08T10:11:25Z</time>
      </trkpt>
      <trkpt lat="47.82567" lon="-3.53876">
        <ele>8.51</ele>
        <time>2020-07-08T10:11:26Z</time>
      </trkpt>
      <trkpt lat="47.82568" lon="-3.53876">
        <ele>8.98</ele>
        <time>2020-07-08T10:11:27Z</time>
      </trkpt>
      <trkpt lat="47.82568" lon="-3.53875">
        <ele>9.25</ele>
        <time>2020-07-08T10:11:28Z</time>
      </trkpt>
      <trkpt lat="47.82569" lon="-3.53874">
        <ele>9.43</ele>
        <time>2020-07-08T10:11:29Z</time>
      </trkpt>
      <trkpt lat="47.82569" lon="-3.53874">
        <ele>9.48</ele>
        <time>2020-07-08T10:11:30Z</time>
      </trkpt>
      <trkpt lat="47.82569" lon="-3.53874">
        <ele>9.5</ele>
        <time>2020-07-08T10:11:31Z</time>
      </trkpt>
      <trkpt lat="47.82569" lon="-3.53874">
        <ele>9.5</ele>
        <time>2020-07-08T10:11:32Z</time>
      </trkpt>
      <trkpt lat="47.82569" lon="-3.53874">
        <ele>9.5</ele>
        <time>2020-07-08T10:11:33Z</time>
      </trkpt>
      <trkpt lat="47.82569" lon="-3.53874">
        <ele>9.5</ele>
        <time>2020-07-08T10:11:34Z</time>
      </trkpt>
      <trkpt lat="47.82569" lon="-3.53874">
        <ele>9.5</ele>
        <time>2020-07-08T10:11:35Z</time>
      </trkpt>
      <trkpt lat="47.82569" lon="-3.53874">
        <ele>9.5</ele>
        <time>2020-07-08T10:11:36Z</time>
      </trkpt>
      <trkpt lat="47.82569" lon="-3.53874">
        <ele>9.5</ele>
        <time>2020-07-08T10:11:37Z</time>
      </trkpt>
      <trkpt lat="47.82573" lon="-3.53886">
        <ele>8.27</ele>
        <time>2020-07-08T10:11:38Z</time>
      </trkpt>
      <trkpt lat="47.82574" lon="-3.53887">
        <ele>7.83</ele>
        <time>2020-07-08T10:11:39Z</time>
      </trkpt>
      <trkpt lat="47.82575" lon="-3.53888">
        <ele>7.69</ele>
        <time>2020-07-08T10:11:40Z</time>
      </trkpt>
      <trkpt lat="47.82576" lon="-3.53888">
        <ele>7.66</ele>
        <time>2020-07-08T10:11:41Z</time>
      </trkpt>
      <trkpt lat="47.82576" lon="-3.53888">
        <ele>7.66</ele>
        <time>2020-07-08T10:11:42Z</time>
      </trkpt>
      <trkpt lat="47.82576" lon="-3.53888">
        <ele>7.66</ele>
        <time>2020-07-08T10:11:43Z</time>
      </trkpt>
      <trkpt lat="47.82576" lon="-3.53888">
        <ele>7.66</ele>
        <time>2020-07-08T10:11:44Z</time>
      </trkpt>
      <trkpt lat="47.82576" lon="-3.53888">
        <ele>7.66</ele>
        <time>2020-07-08T10:11:45Z</time>
      </trkpt>
      <trkpt lat="47.82576" lon="-3.53888">
        <ele>7.66</ele>
        <time>2020-07-08T10:11:46Z</time>
      </trkpt>
      <trkpt lat="47.82576" lon="-3.53888">
        <ele>7.66</ele>
        <time>2020-07-08T10:11:47Z</time>
      </trkpt>
      <trkpt lat="47.82576" lon="-3.53888">
        <ele>7.66</ele>
        <time>2020-07-08T10:11:48Z</time>
      </trkpt>
      <trkpt lat="47.82576" lon="-3.53888">
        <ele>7.66</ele>
        <time>2020-07-08T10:11:49Z</time>
      </trkpt>
      <trkpt lat="47.82576" lon="-3.53888">
        <ele>7.66</ele>
        <time>2020-07-08T10:11:50Z</time>
      </trkpt>
      <trkpt lat="47.82576" lon="-3.53888">
        <ele>7.66</ele>
        <time>2020-07-08T10:11:51Z</time>
      </trkpt>
      <trkpt lat="47.82576" lon="-3.53888">
        <ele>7.66</ele>
        <time>2020-07-08T10:11:52Z</time>
      </trkpt>
      <trkpt lat="47.82585" lon="-3.5389">
        <ele>7.85</ele>
        <time>2020-07-08T10:11:54Z</time>
      </trkpt>
      <trkpt lat="47.82585" lon="-3.53891">
        <ele>7.79</ele>
        <time>2020-07-08T10:11:55Z</time>
      </trkpt>
      <trkpt lat="47.82586" lon="-3.53891">
        <ele>7.66</ele>
        <time>2020-07-08T10:11:56Z</time>
      </trkpt>
      <trkpt lat="47.82586" lon="-3.53891">
        <ele>7.63</ele>
        <time>2020-07-08T10:11:57Z</time>
      </trkpt>
      <trkpt lat="47.82586" lon="-3.53891">
        <ele>7.61</ele>
        <time>2020-07-08T10:11:58Z</time>
      </trkpt>
      <trkpt lat="47.82586" lon="-3.53891">
        <ele>7.61</ele>
        <time>2020-07-08T10:11:59Z</time>
      </trkpt>
      <trkpt lat="47.82586" lon="-3.53891">
        <ele>7.61</ele>
        <time>2020-07-08T10:12:00Z</time>
      </trkpt>
      <trkpt lat="47.82586" lon="-3.53891">
        <ele>7.61</ele>
        <time>2020-07-08T10:12:01Z</time>
      </trkpt>
      <trkpt lat="47.82586" lon="-3.53891">
        <ele>7.61</ele>
        <time>2020-07-08T10:12:02Z</time>
      </trkpt>
      <trkpt lat="47.82586" lon="-3.53891">
        <ele>7.61</ele>
        <time>2020-07-08T10:12:03Z</time>
      </trkpt>
      <trkpt lat="47.82586" lon="-3.53891">
        <ele>7.61</ele>
        <time>2020-07-08T10:12:04Z</time>
      </trkpt>
      <trkpt lat="47.82586" lon="-3.53891">
        <ele>7.61</ele>
        <time>2020-07-08T10:12:05Z</time>
      </trkpt>
      <trkpt lat="47.82586" lon="-3.53891">
        <ele>7.61</ele>
        <time>2020-07-08T10:12:06Z</time>
      </trkpt>
      <trkpt lat="47.82586" lon="-3.53891">
        <ele>7.61</ele>
        <time>2020-07-08T10:12:07Z</time>
      </trkpt>
      <trkpt lat="47.82586" lon="-3.53891">
        <ele>7.61</ele>
        <time>2020-07-08T10:12:08Z</time>
      </trkpt>
      <trkpt lat="47.82586" lon="-3.53891">
        <ele>7.61</ele>
        <time>2020-07-08T10:12:09Z</time>
      </trkpt>
      <trkpt lat="47.82586" lon="-3.53891">
        <ele>7.61</ele>
        <time>2020-07-08T10:12:10Z</time>
      </trkpt>
      <trkpt lat="47.82586" lon="-3.53891">
        <ele>7.61</ele>
        <time>2020-07-08T10:12:11Z</time>
      </trkpt>
      <trkpt lat="47.82586" lon="-3.53891">
        <ele>7.61</ele>
        <time>2020-07-08T10:12:12Z</time>
      </trkpt>
      <trkpt lat="47.82586" lon="-3.53891">
        <ele>7.61</ele>
        <time>2020-07-08T10:12:13Z</time>
      </trkpt>
      <trkpt lat="47.82586" lon="-3.53891">
        <ele>7.61</ele>
        <time>2020-07-08T10:12:14Z</time>
      </trkpt>
      <trkpt lat="47.82586" lon="-3.53891">
        <ele>7.61</ele>
        <time>2020-07-08T10:12:15Z</time>
      </trkpt>
      <trkpt lat="47.82586" lon="-3.53891">
        <ele>7.61</ele>
        <time>2020-07-08T10:12:16Z</time>
      </trkpt>
      <trkpt lat="47.82586" lon="-3.53891">
        <ele>7.61</ele>
        <time>2020-07-08T10:12:17Z</time>
      </trkpt>
      <trkpt lat="47.82586" lon="-3.53891">
        <ele>7.61</ele>
        <time>2020-07-08T10:12:18Z</time>
      </trkpt>
      <trkpt lat="47.82586" lon="-3.53891">
        <ele>7.61</ele>
        <time>2020-07-08T10:12:19Z</time>
      </trkpt>
      <trkpt lat="47.82586" lon="-3.53891">
        <ele>7.61</ele>
        <time>2020-07-08T10:12:20Z</time>
      </trkpt>
      <trkpt lat="47.82592" lon="-3.5389">
        <ele>8.47</ele>
        <time>2020-07-08T10:12:21Z</time>
      </trkpt>
      <trkpt lat="47.82592" lon="-3.5389">
        <ele>8.85</ele>
        <time>2020-07-08T10:12:22Z</time>
      </trkpt>
      <trkpt lat="47.82593" lon="-3.5389">
        <ele>9</ele>
        <time>2020-07-08T10:12:23Z</time>
      </trkpt>
      <trkpt lat="47.82593" lon="-3.5389">
        <ele>9.12</ele>
        <time>2020-07-08T10:12:24Z</time>
      </trkpt>
      <trkpt lat="47.82594" lon="-3.53889">
        <ele>9.3</ele>
        <time>2020-07-08T10:12:25Z</time>
      </trkpt>
      <trkpt lat="47.82594" lon="-3.53889">
        <ele>9.35</ele>
        <time>2020-07-08T10:12:26Z</time>
      </trkpt>
      <trkpt lat="47.82594" lon="-3.53889">
        <ele>9.37</ele>
        <time>2020-07-08T10:12:27Z</time>
      </trkpt>
      <trkpt lat="47.82594" lon="-3.53889">
        <ele>9.37</ele>
        <time>2020-07-08T10:12:28Z</time>
      </trkpt>
      <trkpt lat="47.82594" lon="-3.53889">
        <ele>9.37</ele>
        <time>2020-07-08T10:12:29Z</time>
      </trkpt>
      <trkpt lat="47.82594" lon="-3.53889">
        <ele>9.37</ele>
        <time>2020-07-08T10:12:30Z</time>
      </trkpt>
      <trkpt lat="47.82594" lon="-3.53889">
        <ele>9.37</ele>
        <time>2020-07-08T10:12:31Z</time>
      </trkpt>
      <trkpt lat="47.82594" lon="-3.53889">
        <ele>9.37</ele>
        <time>2020-07-08T10:12:32Z</time>
      </trkpt>
      <trkpt lat="47.82594" lon="-3.53889">
        <ele>9.37</ele>
        <time>2020-07-08T10:12:33Z</time>
      </trkpt>
      <trkpt lat="47.82594" lon="-3.53889">
        <ele>9.37</ele>
        <time>2020-07-08T10:12:34Z</time>
      </trkpt>
      <trkpt lat="47.82594" lon="-3.53889">
        <ele>9.37</ele>
        <time>2020-07-08T10:12:35Z</time>
      </trkpt>
      <trkpt lat="47.82594" lon="-3.53889">
        <ele>9.37</ele>
        <time>2020-07-08T10:12:36Z</time>
      </trkpt>
      <trkpt lat="47.82594" lon="-3.53889">
        <ele>9.37</ele>
        <time>2020-07-08T10:12:37Z</time>
      </trkpt>
      <trkpt lat="47.82594" lon="-3.53889">
        <ele>9.37</ele>
        <time>2020-07-08T10:12:38Z</time>
      </trkpt>
      <trkpt lat="47.82594" lon="-3.53889">
        <ele>9.37</ele>
        <time>2020-07-08T10:12:39Z</time>
      </trkpt>
      <trkpt lat="47.82594" lon="-3.53889">
        <ele>9.37</ele>
        <time>2020-07-08T10:12:40Z</time>
      </trkpt>
      <trkpt lat="47.82594" lon="-3.53889">
        <ele>9.37</ele>
        <time>2020-07-08T10:12:41Z</time>
      </trkpt>
      <trkpt lat="47.82594" lon="-3.53889">
        <ele>9.37</ele>
        <time>2020-07-08T10:12:42Z</time>
      </trkpt>
      <trkpt lat="47.82594" lon="-3.53889">
        <ele>9.37</ele>
        <time>2020-07-08T10:12:43Z</time>
      </trkpt>
      <trkpt lat="47.82594" lon="-3.53889">
        <ele>9.37</ele>
        <time>2020-07-08T10:12:44Z</time>
      </trkpt>
      <trkpt lat="47.82594" lon="-3.53889">
        <ele>9.37</ele>
        <time>2020-07-08T10:12:45Z</time>
      </trkpt>
      <trkpt lat="47.82594" lon="-3.53889">
        <ele>9.37</ele>
        <time>2020-07-08T10:12:46Z</time>
      </trkpt>
      <trkpt lat="47.82594" lon="-3.53889">
        <ele>9.37</ele>
        <time>2020-07-08T10:12:47Z</time>
      </trkpt>
      <trkpt lat="47.82594" lon="-3.53889">
        <ele>9.37</ele>
        <time>2020-07-08T10:12:48Z</time>
      </trkpt>
      <trkpt lat="47.82594" lon="-3.53889">
        <ele>9.37</ele>
        <time>2020-07-08T10:12:49Z</time>
      </trkpt>
      <trkpt lat="47.82594" lon="-3.53889">
        <ele>9.37</ele>
        <time>2020-07-08T10:12:50Z</time>
      </trkpt>
      <trkpt lat="47.82594" lon="-3.53889">
        <ele>9.37</ele>
        <time>2020-07-08T10:12:51Z</time>
      </trkpt>
      <trkpt lat="47.82594" lon="-3.53889">
        <ele>9.37</ele>
        <time>2020-07-08T10:12:52Z</time>
      </trkpt>
      <trkpt lat="47.82603" lon="-3.53891">
        <ele>9.81</ele>
        <time>2020-07-08T10:12:53Z</time>
      </trkpt>
      <trkpt lat="47.82603" lon="-3.53892">
        <ele>9.85</ele>
        <time>2020-07-08T10:12:54Z</time>
      </trkpt>
      <trkpt lat="47.82604" lon="-3.53893">
        <ele>9.74</ele>
        <time>2020-07-08T10:12:55Z</time>
      </trkpt>
      <trkpt lat="47.82606" lon="-3.53893">
        <ele>9.82</ele>
        <time>2020-07-08T10:12:56Z</time>
      </trkpt>
      <trkpt lat="47.82606" lon="-3.53893">
        <ele>9.85</ele>
        <time>2020-07-08T10:12:57Z</time>
      </trkpt>
      <trkpt lat="47.82606" lon="-3.53893">
        <ele>9.86</ele>
        <time>2020-07-08T10:12:58Z</time>
      </trkpt>
      <trkpt lat="47.82606" lon="-3.53893">
        <ele>9.86</ele>
        <time>2020-07-08T10:12:59Z</time>
      </trkpt>
      <trkpt lat="47.82606" lon="-3.53893">
        <ele>9.86</ele>
        <time>2020-07-08T10:13:00Z</time>
      </trkpt>
      <trkpt lat="47.82606" lon="-3.53893">
        <ele>9.86</ele>
        <time>2020-07-08T10:13:01Z</time>
      </trkpt>
      <trkpt lat="47.82606" lon="-3.53893">
        <ele>9.86</ele>
        <time>2020-07-08T10:13:02Z</time>
      </trkpt>
      <trkpt lat="47.82606" lon="-3.53893">
        <ele>9.86</ele>
        <time>2020-07-08T10:13:03Z</time>
      </trkpt>
      <trkpt lat="47.82606" lon="-3.53893">
        <ele>9.86</ele>
        <time>2020-07-08T10:13:04Z</time>
      </trkpt>
      <trkpt lat="47.82606" lon="-3.53893">
        <ele>9.86</ele>
        <time>2020-07-08T10:13:05Z</time>
      </trkpt>
      <trkpt lat="47.82606" lon="-3.53893">
        <ele>9.86</ele>
        <time>2020-07-08T10:13:06Z</time>
      </trkpt>
      <trkpt lat="47.82606" lon="-3.53893">
        <ele>9.86</ele>
        <time>2020-07-08T10:13:07Z</time>
      </trkpt>
      <trkpt lat="47.82606" lon="-3.53893">
        <ele>9.86</ele>
        <time>2020-07-08T10:13:08Z</time>
      </trkpt>
      <trkpt lat="47.82606" lon="-3.53893">
        <ele>9.86</ele>
        <time>2020-07-08T10:13:09Z</time>
      </trkpt>
      <trkpt lat="47.82606" lon="-3.53893">
        <ele>9.86</ele>
        <time>2020-07-08T10:13:10Z</time>
      </trkpt>
      <trkpt lat="47.82606" lon="-3.53893">
        <ele>9.86</ele>
        <time>2020-07-08T10:13:11Z</time>
      </trkpt>
      <trkpt lat="47.82606" lon="-3.53893">
        <ele>9.86</ele>
        <time>2020-07-08T10:13:12Z</time>
      </trkpt>
      <trkpt lat="47.82606" lon="-3.53893">
        <ele>9.86</ele>
        <time>2020-07-08T10:13:13Z</time>
      </trkpt>
      <trkpt lat="47.82606" lon="-3.53893">
        <ele>9.86</ele>
        <time>2020-07-08T10:13:14Z</time>
      </trkpt>
      <trkpt lat="47.82606" lon="-3.53893">
        <ele>9.86</ele>
        <time>2020-07-08T10:13:15Z</time>
      </trkpt>
      <trkpt lat="47.82606" lon="-3.53893">
        <ele>9.86</ele>
        <time>2020-07-08T10:13:16Z</time>
      </trkpt>
      <trkpt lat="47.82606" lon="-3.53893">
        <ele>9.86</ele>
        <time>2020-07-08T10:13:17Z</time>
      </trkpt>
      <trkpt lat="47.82614" lon="-3.53897">
        <ele>9.59</ele>
        <time>2020-07-08T10:13:18Z</time>
      </trkpt>
      <trkpt lat="47.82615" lon="-3.53897">
        <ele>9.54</ele>
        <time>2020-07-08T10:13:19Z</time>
      </trkpt>
      <trkpt lat="47.82615" lon="-3.53897">
        <ele>9.41</ele>
        <time>2020-07-08T10:13:20Z</time>
      </trkpt>
      <trkpt lat="47.82615" lon="-3.53898">
        <ele>9.29</ele>
        <time>2020-07-08T10:13:21Z</time>
      </trkpt>
      <trkpt lat="47.82615" lon="-3.53898">
        <ele>9.25</ele>
        <time>2020-07-08T10:13:22Z</time>
      </trkpt>
      <trkpt lat="47.82615" lon="-3.53898">
        <ele>9.24</ele>
        <time>2020-07-08T10:13:23Z</time>
      </trkpt>
      <trkpt lat="47.82615" lon="-3.53898">
        <ele>9.24</ele>
        <time>2020-07-08T10:13:24Z</time>
      </trkpt>
      <trkpt lat="47.82615" lon="-3.53898">
        <ele>9.24</ele>
        <time>2020-07-08T10:13:25Z</time>
      </trkpt>
      <trkpt lat="47.82615" lon="-3.53898">
        <ele>9.24</ele>
        <time>2020-07-08T10:13:26Z</time>
      </trkpt>
      <trkpt lat="47.82615" lon="-3.53898">
        <ele>9.24</ele>
        <time>2020-07-08T10:13:27Z</time>
      </trkpt>
      <trkpt lat="47.82615" lon="-3.53898">
        <ele>9.24</ele>
        <time>2020-07-08T10:13:28Z</time>
      </trkpt>
      <trkpt lat="47.82615" lon="-3.53898">
        <ele>9.24</ele>
        <time>2020-07-08T10:13:29Z</time>
      </trkpt>
      <trkpt lat="47.82615" lon="-3.53898">
        <ele>9.24</ele>
        <time>2020-07-08T10:13:30Z</time>
      </trkpt>
      <trkpt lat="47.82615" lon="-3.53898">
        <ele>9.24</ele>
        <time>2020-07-08T10:13:31Z</time>
      </trkpt>
      <trkpt lat="47.82615" lon="-3.53898">
        <ele>9.24</ele>
        <time>2020-07-08T10:13:32Z</time>
      </trkpt>
      <trkpt lat="47.82615" lon="-3.53898">
        <ele>9.24</ele>
        <time>2020-07-08T10:13:33Z</time>
      </trkpt>
      <trkpt lat="47.82615" lon="-3.53898">
        <ele>9.24</ele>
        <time>2020-07-08T10:13:34Z</time>
      </trkpt>
      <trkpt lat="47.82615" lon="-3.53898">
        <ele>9.24</ele>
        <time>2020-07-08T10:13:35Z</time>
      </trkpt>
      <trkpt lat="47.82615" lon="-3.53898">
        <ele>9.24</ele>
        <time>2020-07-08T10:13:36Z</time>
      </trkpt>
      <trkpt lat="47.82615" lon="-3.53898">
        <ele>9.24</ele>
        <time>2020-07-08T10:13:37Z</time>
      </trkpt>
      <trkpt lat="47.82615" lon="-3.53898">
        <ele>9.24</ele>
        <time>2020-07-08T10:13:38Z</time>
      </trkpt>
      <trkpt lat="47.82615" lon="-3.53898">
        <ele>9.24</ele>
        <time>2020-07-08T10:13:39Z</time>
      </trkpt>
      <trkpt lat="47.82615" lon="-3.53898">
        <ele>9.24</ele>
        <time>2020-07-08T10:13:40Z</time>
      </trkpt>
      <trkpt lat="47.82615" lon="-3.53898">
        <ele>9.24</ele>
        <time>2020-07-08T10:13:41Z</time>
      </trkpt>
      <trkpt lat="47.82615" lon="-3.53898">
        <ele>9.24</ele>
        <time>2020-07-08T10:13:42Z</time>
      </trkpt>
      <trkpt lat="47.82615" lon="-3.53898">
        <ele>9.24</ele>
        <time>2020-07-08T10:13:43Z</time>
      </trkpt>
      <trkpt lat="47.82615" lon="-3.53898">
        <ele>9.24</ele>
        <time>2020-07-08T10:13:44Z</time>
      </trkpt>
      <trkpt lat="47.82615" lon="-3.53898">
        <ele>9.24</ele>
        <time>2020-07-08T10:13:45Z</time>
      </trkpt>
      <trkpt lat="47.82615" lon="-3.53898">
        <ele>9.24</ele>
        <time>2020-07-08T10:13:46Z</time>
      </trkpt>
      <trkpt lat="47.82615" lon="-3.53898">
        <ele>9.24</ele>
        <time>2020-07-08T10:13:47Z</time>
      </trkpt>
      <trkpt lat="47.82615" lon="-3.53898">
        <ele>9.24</ele>
        <time>2020-07-08T10:13:48Z</time>
      </trkpt>
      <trkpt lat="47.82615" lon="-3.53898">
        <ele>9.24</ele>
        <time>2020-07-08T10:13:49Z</time>
      </trkpt>
      <trkpt lat="47.82615" lon="-3.53898">
        <ele>9.24</ele>
        <time>2020-07-08T10:13:50Z</time>
      </trkpt>
      <trkpt lat="47.82615" lon="-3.53898">
        <ele>9.24</ele>
        <time>2020-07-08T10:13:51Z</time>
      </trkpt>
      <trkpt lat="47.82615" lon="-3.53898">
        <ele>9.24</ele>
        <time>2020-07-08T10:13:52Z</time>
      </trkpt>
      <trkpt lat="47.82615" lon="-3.53898">
        <ele>9.24</ele>
        <time>2020-07-08T10:13:53Z</time>
      </trkpt>
      <trkpt lat="47.82625" lon="-3.53897">
        <ele>10.69</ele>
        <time>2020-07-08T10:13:54Z</time>
      </trkpt>
      <trkpt lat="47.82626" lon="-3.53896">
        <ele>11.28</ele>
        <time>2020-07-08T10:13:55Z</time>
      </trkpt>
      <trkpt lat="47.82626" lon="-3.53896">
        <ele>11.78</ele>
        <time>2020-07-08T10:13:56Z</time>
      </trkpt>
      <trkpt lat="47.82627" lon="-3.53896">
        <ele>11.85</ele>
        <time>2020-07-08T10:13:57Z</time>
      </trkpt>
      <trkpt lat="47.82627" lon="-3.53896">
        <ele>11.87</ele>
        <time>2020-07-08T10:13:58Z</time>
      </trkpt>
      <trkpt lat="47.82627" lon="-3.53896">
        <ele>11.88</ele>
        <time>2020-07-08T10:13:59Z</time>
      </trkpt>
      <trkpt lat="47.82627" lon="-3.53896">
        <ele>11.88</ele>
        <time>2020-07-08T10:14:00Z</time>
      </trkpt>
      <trkpt lat="47.82627" lon="-3.53896">
        <ele>11.88</ele>
        <time>2020-07-08T10:14:01Z</time>
      </trkpt>
      <trkpt lat="47.82627" lon="-3.53896">
        <ele>11.88</ele>
        <time>2020-07-08T10:14:02Z</time>
      </trkpt>
      <trkpt lat="47.82627" lon="-3.53896">
        <ele>11.88</ele>
        <time>2020-07-08T10:14:03Z</time>
      </trkpt>
      <trkpt lat="47.82627" lon="-3.53896">
        <ele>11.88</ele>
        <time>2020-07-08T10:14:04Z</time>
      </trkpt>
      <trkpt lat="47.82627" lon="-3.53896">
        <ele>11.88</ele>
        <time>2020-07-08T10:14:05Z</time>
      </trkpt>
      <trkpt lat="47.82627" lon="-3.53896">
        <ele>11.88</ele>
        <time>2020-07-08T10:14:06Z</time>
      </trkpt>
      <trkpt lat="47.82627" lon="-3.53896">
        <ele>11.88</ele>
        <time>2020-07-08T10:14:07Z</time>
      </trkpt>
      <trkpt lat="47.82627" lon="-3.53896">
        <ele>11.88</ele>
        <time>2020-07-08T10:14:08Z</time>
      </trkpt>
      <trkpt lat="47.82627" lon="-3.53896">
        <ele>11.88</ele>
        <time>2020-07-08T10:14:09Z</time>
      </trkpt>
      <trkpt lat="47.82627" lon="-3.53896">
        <ele>11.88</ele>
        <time>2020-07-08T10:14:10Z</time>
      </trkpt>
      <trkpt lat="47.82635" lon="-3.53891">
        <ele>14.37</ele>
        <time>2020-07-08T10:14:11Z</time>
      </trkpt>
      <trkpt lat="47.82636" lon="-3.5389">
        <ele>15.45</ele>
        <time>2020-07-08T10:14:12Z</time>
      </trkpt>
      <trkpt lat="47.82636" lon="-3.53889">
        <ele>16.24</ele>
        <time>2020-07-08T10:14:13Z</time>
      </trkpt>
      <trkpt lat="47.82637" lon="-3.53888">
        <ele>16.72</ele>
        <time>2020-07-08T10:14:14Z</time>
      </trkpt>
      <trkpt lat="47.82637" lon="-3.53888">
        <ele>16.86</ele>
        <time>2020-07-08T10:14:15Z</time>
      </trkpt>
      <trkpt lat="47.82637" lon="-3.53888">
        <ele>16.9</ele>
        <time>2020-07-08T10:14:16Z</time>
      </trkpt>
      <trkpt lat="47.82637" lon="-3.53888">
        <ele>16.91</ele>
        <time>2020-07-08T10:14:17Z</time>
      </trkpt>
      <trkpt lat="47.82637" lon="-3.53888">
        <ele>16.92</ele>
        <time>2020-07-08T10:14:18Z</time>
      </trkpt>
      <trkpt lat="47.82637" lon="-3.53888">
        <ele>16.92</ele>
        <time>2020-07-08T10:14:19Z</time>
      </trkpt>
      <trkpt lat="47.82637" lon="-3.53888">
        <ele>16.92</ele>
        <time>2020-07-08T10:14:20Z</time>
      </trkpt>
      <trkpt lat="47.82637" lon="-3.53888">
        <ele>16.92</ele>
        <time>2020-07-08T10:14:21Z</time>
      </trkpt>
      <trkpt lat="47.82637" lon="-3.53888">
        <ele>16.92</ele>
        <time>2020-07-08T10:14:22Z</time>
      </trkpt>
      <trkpt lat="47.82637" lon="-3.53888">
        <ele>16.92</ele>
        <time>2020-07-08T10:14:23Z</time>
      </trkpt>
      <trkpt lat="47.82637" lon="-3.53888">
        <ele>16.92</ele>
        <time>2020-07-08T10:14:24Z</time>
      </trkpt>
      <trkpt lat="47.82637" lon="-3.53888">
        <ele>16.92</ele>
        <time>2020-07-08T10:14:25Z</time>
      </trkpt>
      <trkpt lat="47.82637" lon="-3.53888">
        <ele>16.92</ele>
        <time>2020-07-08T10:14:26Z</time>
      </trkpt>
      <trkpt lat="47.82637" lon="-3.53888">
        <ele>16.92</ele>
        <time>2020-07-08T10:14:27Z</time>
      </trkpt>
      <trkpt lat="47.82637" lon="-3.53888">
        <ele>16.92</ele>
        <time>2020-07-08T10:14:28Z</time>
      </trkpt>
      <trkpt lat="47.82637" lon="-3.53888">
        <ele>16.92</ele>
        <time>2020-07-08T10:14:29Z</time>
      </trkpt>
      <trkpt lat="47.82637" lon="-3.53888">
        <ele>16.92</ele>
        <time>2020-07-08T10:14:30Z</time>
      </trkpt>
      <trkpt lat="47.82637" lon="-3.53888">
        <ele>16.92</ele>
        <time>2020-07-08T10:14:31Z</time>
      </trkpt>
      <trkpt lat="47.82637" lon="-3.53888">
        <ele>16.92</ele>
        <time>2020-07-08T10:14:32Z</time>
      </trkpt>
      <trkpt lat="47.82637" lon="-3.53888">
        <ele>16.92</ele>
        <time>2020-07-08T10:14:33Z</time>
      </trkpt>
      <trkpt lat="47.82637" lon="-3.53888">
        <ele>16.92</ele>
        <time>2020-07-08T10:14:34Z</time>
      </trkpt>
      <trkpt lat="47.82637" lon="-3.53888">
        <ele>16.92</ele>
        <time>2020-07-08T10:14:35Z</time>
      </trkpt>
      <trkpt lat="47.82647" lon="-3.53883">
        <ele>18.39</ele>
        <time>2020-07-08T10:14:36Z</time>
      </trkpt>
      <trkpt lat="47.82647" lon="-3.53883">
        <ele>18.85</ele>
        <time>2020-07-08T10:14:37Z</time>
      </trkpt>
      <trkpt lat="47.82649" lon="-3.53883">
        <ele>19.04</ele>
        <time>2020-07-08T10:14:38Z</time>
      </trkpt>
      <trkpt lat="47.82651" lon="-3.53883">
        <ele>19.17</ele>
        <time>2020-07-08T10:14:39Z</time>
      </trkpt>
      <trkpt lat="47.82654" lon="-3.53885">
        <ele>18.9</ele>
        <time>2020-07-08T10:14:40Z</time>
      </trkpt>
      <trkpt lat="47.82656" lon="-3.53885">
        <ele>18.85</ele>
        <time>2020-07-08T10:14:41Z</time>
      </trkpt>
      <trkpt lat="47.82659" lon="-3.53885">
        <ele>19.01</ele>
        <time>2020-07-08T10:14:42Z</time>
      </trkpt>
      <trkpt lat="47.8266" lon="-3.53886">
        <ele>18.88</ele>
        <time>2020-07-08T10:14:43Z</time>
      </trkpt>
      <trkpt lat="47.82662" lon="-3.53886">
        <ele>18.8</ele>
        <time>2020-07-08T10:14:44Z</time>
      </trkpt>
      <trkpt lat="47.82664" lon="-3.53886">
        <ele>18.75</ele>
        <time>2020-07-08T10:14:45Z</time>
      </trkpt>
      <trkpt lat="47.82666" lon="-3.53887">
        <ele>18.68</ele>
        <time>2020-07-08T10:14:46Z</time>
      </trkpt>
      <trkpt lat="47.82668" lon="-3.53888">
        <ele>18.49</ele>
        <time>2020-07-08T10:14:47Z</time>
      </trkpt>
      <trkpt lat="47.8267" lon="-3.53889">
        <ele>18.34</ele>
        <time>2020-07-08T10:14:48Z</time>
      </trkpt>
      <trkpt lat="47.82671" lon="-3.53889">
        <ele>18.22</ele>
        <time>2020-07-08T10:14:49Z</time>
      </trkpt>
      <trkpt lat="47.82673" lon="-3.5389">
        <ele>18.15</ele>
        <time>2020-07-08T10:14:50Z</time>
      </trkpt>
      <trkpt lat="47.82673" lon="-3.5389">
        <ele>18.08</ele>
        <time>2020-07-08T10:14:51Z</time>
      </trkpt>
      <trkpt lat="47.82674" lon="-3.5389">
        <ele>18.1</ele>
        <time>2020-07-08T10:14:52Z</time>
      </trkpt>
      <trkpt lat="47.82674" lon="-3.5389">
        <ele>18.09</ele>
        <time>2020-07-08T10:14:53Z</time>
      </trkpt>
      <trkpt lat="47.82674" lon="-3.5389">
        <ele>18.09</ele>
        <time>2020-07-08T10:14:54Z</time>
      </trkpt>
      <trkpt lat="47.82674" lon="-3.5389">
        <ele>18.08</ele>
        <time>2020-07-08T10:14:55Z</time>
      </trkpt>
      <trkpt lat="47.82678" lon="-3.53893">
        <ele>17.65</ele>
        <time>2020-07-08T10:14:56Z</time>
      </trkpt>
      <trkpt lat="47.82679" lon="-3.53892">
        <ele>17.7</ele>
        <time>2020-07-08T10:14:57Z</time>
      </trkpt>
      <trkpt lat="47.82682" lon="-3.53894">
        <ele>17.42</ele>
        <time>2020-07-08T10:14:58Z</time>
      </trkpt>
      <trkpt lat="47.82683" lon="-3.53895">
        <ele>17.16</ele>
        <time>2020-07-08T10:14:59Z</time>
      </trkpt>
      <trkpt lat="47.82686" lon="-3.53897">
        <ele>16.63</ele>
        <time>2020-07-08T10:15:00Z</time>
      </trkpt>
      <trkpt lat="47.82688" lon="-3.53899">
        <ele>16.31</ele>
        <time>2020-07-08T10:15:01Z</time>
      </trkpt>
      <trkpt lat="47.82687" lon="-3.53901">
        <ele>15.68</ele>
        <time>2020-07-08T10:15:02Z</time>
      </trkpt>
      <trkpt lat="47.82688" lon="-3.53903">
        <ele>14.99</ele>
        <time>2020-07-08T10:15:03Z</time>
      </trkpt>
      <trkpt lat="47.82689" lon="-3.53905">
        <ele>14.38</ele>
        <time>2020-07-08T10:15:04Z</time>
      </trkpt>
      <trkpt lat="47.82691" lon="-3.53907">
        <ele>13.87</ele>
        <time>2020-07-08T10:15:05Z</time>
      </trkpt>
      <trkpt lat="47.82693" lon="-3.53909">
        <ele>13.41</ele>
        <time>2020-07-08T10:15:06Z</time>
      </trkpt>
      <trkpt lat="47.82694" lon="-3.53911">
        <ele>13</ele>
        <time>2020-07-08T10:15:07Z</time>
      </trkpt>
      <trkpt lat="47.82696" lon="-3.53912">
        <ele>12.71</ele>
        <time>2020-07-08T10:15:08Z</time>
      </trkpt>
      <trkpt lat="47.82697" lon="-3.53912">
        <ele>12.59</ele>
        <time>2020-07-08T10:15:09Z</time>
      </trkpt>
      <trkpt lat="47.82697" lon="-3.53912">
        <ele>12.55</ele>
        <time>2020-07-08T10:15:10Z</time>
      </trkpt>
      <trkpt lat="47.82697" lon="-3.53914">
        <ele>12.27</ele>
        <time>2020-07-08T10:15:11Z</time>
      </trkpt>
      <trkpt lat="47.82699" lon="-3.53915">
        <ele>11.99</ele>
        <time>2020-07-08T10:15:12Z</time>
      </trkpt>
      <trkpt lat="47.827" lon="-3.53916">
        <ele>11.73</ele>
        <time>2020-07-08T10:15:13Z</time>
      </trkpt>
      <trkpt lat="47.82702" lon="-3.53917">
        <ele>11.59</ele>
        <time>2020-07-08T10:15:14Z</time>
      </trkpt>
      <trkpt lat="47.82705" lon="-3.53917">
        <ele>11.58</ele>
        <time>2020-07-08T10:15:15Z</time>
      </trkpt>
      <trkpt lat="47.82708" lon="-3.53919">
        <ele>11.48</ele>
        <time>2020-07-08T10:15:16Z</time>
      </trkpt>
      <trkpt lat="47.82712" lon="-3.5392">
        <ele>11.41</ele>
        <time>2020-07-08T10:15:17Z</time>
      </trkpt>
      <trkpt lat="47.82714" lon="-3.53921">
        <ele>11.43</ele>
        <time>2020-07-08T10:15:18Z</time>
      </trkpt>
      <trkpt lat="47.82715" lon="-3.53922">
        <ele>11.39</ele>
        <time>2020-07-08T10:15:19Z</time>
      </trkpt>
      <trkpt lat="47.82717" lon="-3.53923">
        <ele>11.29</ele>
        <time>2020-07-08T10:15:20Z</time>
      </trkpt>
      <trkpt lat="47.8272" lon="-3.53924">
        <ele>11.18</ele>
        <time>2020-07-08T10:15:21Z</time>
      </trkpt>
      <trkpt lat="47.82723" lon="-3.53926">
        <ele>11.02</ele>
        <time>2020-07-08T10:15:22Z</time>
      </trkpt>
      <trkpt lat="47.82726" lon="-3.53928">
        <ele>10.94</ele>
        <time>2020-07-08T10:15:23Z</time>
      </trkpt>
      <trkpt lat="47.82728" lon="-3.53929">
        <ele>10.94</ele>
        <time>2020-07-08T10:15:24Z</time>
      </trkpt>
      <trkpt lat="47.82731" lon="-3.5393">
        <ele>10.95</ele>
        <time>2020-07-08T10:15:25Z</time>
      </trkpt>
      <trkpt lat="47.82733" lon="-3.53931">
        <ele>10.91</ele>
        <time>2020-07-08T10:15:26Z</time>
      </trkpt>
      <trkpt lat="47.82736" lon="-3.53932">
        <ele>10.97</ele>
        <time>2020-07-08T10:15:27Z</time>
      </trkpt>
      <trkpt lat="47.82738" lon="-3.53932">
        <ele>10.99</ele>
        <time>2020-07-08T10:15:28Z</time>
      </trkpt>
      <trkpt lat="47.8274" lon="-3.53934">
        <ele>10.89</ele>
        <time>2020-07-08T10:15:29Z</time>
      </trkpt>
      <trkpt lat="47.82743" lon="-3.53935">
        <ele>10.78</ele>
        <time>2020-07-08T10:15:30Z</time>
      </trkpt>
      <trkpt lat="47.82745" lon="-3.53937">
        <ele>10.61</ele>
        <time>2020-07-08T10:15:31Z</time>
      </trkpt>
      <trkpt lat="47.82748" lon="-3.53938">
        <ele>10.59</ele>
        <time>2020-07-08T10:15:32Z</time>
      </trkpt>
      <trkpt lat="47.82752" lon="-3.53938">
        <ele>10.9</ele>
        <time>2020-07-08T10:15:33Z</time>
      </trkpt>
      <trkpt lat="47.82757" lon="-3.53939">
        <ele>11.4</ele>
        <time>2020-07-08T10:15:34Z</time>
      </trkpt>
      <trkpt lat="47.82761" lon="-3.53939">
        <ele>11.98</ele>
        <time>2020-07-08T10:15:35Z</time>
      </trkpt>
      <trkpt lat="47.82764" lon="-3.53941">
        <ele>12.28</ele>
        <time>2020-07-08T10:15:36Z</time>
      </trkpt>
      <trkpt lat="47.82766" lon="-3.53941">
        <ele>12.59</ele>
        <time>2020-07-08T10:15:37Z</time>
      </trkpt>
      <trkpt lat="47.82769" lon="-3.53942">
        <ele>12.89</ele>
        <time>2020-07-08T10:15:38Z</time>
      </trkpt>
      <trkpt lat="47.82771" lon="-3.53943">
        <ele>13.1</ele>
        <time>2020-07-08T10:15:39Z</time>
      </trkpt>
      <trkpt lat="47.82774" lon="-3.53945">
        <ele>13.16</ele>
        <time>2020-07-08T10:15:40Z</time>
      </trkpt>
      <trkpt lat="47.82777" lon="-3.53947">
        <ele>13.12</ele>
        <time>2020-07-08T10:15:41Z</time>
      </trkpt>
      <trkpt lat="47.82779" lon="-3.53949">
        <ele>12.97</ele>
        <time>2020-07-08T10:15:42Z</time>
      </trkpt>
      <trkpt lat="47.82781" lon="-3.5395">
        <ele>12.82</ele>
        <time>2020-07-08T10:15:43Z</time>
      </trkpt>
      <trkpt lat="47.82783" lon="-3.5395">
        <ele>12.85</ele>
        <time>2020-07-08T10:15:44Z</time>
      </trkpt>
      <trkpt lat="47.82786" lon="-3.5395">
        <ele>12.99</ele>
        <time>2020-07-08T10:15:45Z</time>
      </trkpt>
      <trkpt lat="47.82788" lon="-3.53951">
        <ele>13.03</ele>
        <time>2020-07-08T10:15:46Z</time>
      </trkpt>
      <trkpt lat="47.82791" lon="-3.53952">
        <ele>13.21</ele>
        <time>2020-07-08T10:15:47Z</time>
      </trkpt>
      <trkpt lat="47.82794" lon="-3.53953">
        <ele>13.25</ele>
        <time>2020-07-08T10:15:48Z</time>
      </trkpt>
      <trkpt lat="47.82798" lon="-3.53953">
        <ele>13.37</ele>
        <time>2020-07-08T10:15:49Z</time>
      </trkpt>
      <trkpt lat="47.82802" lon="-3.53954">
        <ele>13.57</ele>
        <time>2020-07-08T10:15:50Z</time>
      </trkpt>
      <trkpt lat="47.82805" lon="-3.53954">
        <ele>13.84</ele>
        <time>2020-07-08T10:15:51Z</time>
      </trkpt>
      <trkpt lat="47.82808" lon="-3.53954">
        <ele>13.97</ele>
        <time>2020-07-08T10:15:52Z</time>
      </trkpt>
      <trkpt lat="47.82812" lon="-3.53955">
        <ele>14.06</ele>
        <time>2020-07-08T10:15:53Z</time>
      </trkpt>
      <trkpt lat="47.82816" lon="-3.53957">
        <ele>13.75</ele>
        <time>2020-07-08T10:15:54Z</time>
      </trkpt>
      <trkpt lat="47.82819" lon="-3.53955">
        <ele>14.11</ele>
        <time>2020-07-08T10:15:55Z</time>
      </trkpt>
      <trkpt lat="47.82822" lon="-3.53955">
        <ele>14.48</ele>
        <time>2020-07-08T10:15:56Z</time>
      </trkpt>
      <trkpt lat="47.82824" lon="-3.53954">
        <ele>14.83</ele>
        <time>2020-07-08T10:15:57Z</time>
      </trkpt>
      <trkpt lat="47.82826" lon="-3.53955">
        <ele>14.82</ele>
        <time>2020-07-08T10:15:58Z</time>
      </trkpt>
      <trkpt lat="47.82827" lon="-3.53955">
        <ele>14.84</ele>
        <time>2020-07-08T10:15:59Z</time>
      </trkpt>
      <trkpt lat="47.82831" lon="-3.53956">
        <ele>14.81</ele>
        <time>2020-07-08T10:16:00Z</time>
      </trkpt>
      <trkpt lat="47.82833" lon="-3.53956">
        <ele>14.76</ele>
        <time>2020-07-08T10:16:01Z</time>
      </trkpt>
      <trkpt lat="47.82836" lon="-3.53958">
        <ele>14.5</ele>
        <time>2020-07-08T10:16:02Z</time>
      </trkpt>
      <trkpt lat="47.82838" lon="-3.53959">
        <ele>14.03</ele>
        <time>2020-07-08T10:16:03Z</time>
      </trkpt>
      <trkpt lat="47.82842" lon="-3.53963">
        <ele>12.93</ele>
        <time>2020-07-08T10:16:04Z</time>
      </trkpt>
      <trkpt lat="47.82846" lon="-3.53963">
        <ele>12.68</ele>
        <time>2020-07-08T10:16:05Z</time>
      </trkpt>
      <trkpt lat="47.82848" lon="-3.53963">
        <ele>12.76</ele>
        <time>2020-07-08T10:16:06Z</time>
      </trkpt>
      <trkpt lat="47.82851" lon="-3.53963">
        <ele>12.94</ele>
        <time>2020-07-08T10:16:07Z</time>
      </trkpt>
      <trkpt lat="47.82853" lon="-3.53964">
        <ele>12.85</ele>
        <time>2020-07-08T10:16:08Z</time>
      </trkpt>
      <trkpt lat="47.82855" lon="-3.53964">
        <ele>12.86</ele>
        <time>2020-07-08T10:16:09Z</time>
      </trkpt>
      <trkpt lat="47.82856" lon="-3.53964">
        <ele>12.81</ele>
        <time>2020-07-08T10:16:10Z</time>
      </trkpt>
      <trkpt lat="47.82858" lon="-3.53964">
        <ele>12.79</ele>
        <time>2020-07-08T10:16:11Z</time>
      </trkpt>
      <trkpt lat="47.82859" lon="-3.53965">
        <ele>12.73</ele>
        <time>2020-07-08T10:16:12Z</time>
      </trkpt>
      <trkpt lat="47.8286" lon="-3.53964">
        <ele>12.83</ele>
        <time>2020-07-08T10:16:13Z</time>
      </trkpt>
      <trkpt lat="47.82862" lon="-3.53965">
        <ele>12.59</ele>
        <time>2020-07-08T10:16:14Z</time>
      </trkpt>
      <trkpt lat="47.82864" lon="-3.53966">
        <ele>12.46</ele>
        <time>2020-07-08T10:16:15Z</time>
      </trkpt>
      <trkpt lat="47.82867" lon="-3.53967">
        <ele>12.36</ele>
        <time>2020-07-08T10:16:16Z</time>
      </trkpt>
      <trkpt lat="47.82869" lon="-3.53967">
        <ele>12.31</ele>
        <time>2020-07-08T10:16:17Z</time>
      </trkpt>
      <trkpt lat="47.82871" lon="-3.53969">
        <ele>12.1</ele>
        <time>2020-07-08T10:16:18Z</time>
      </trkpt>
      <trkpt lat="47.82873" lon="-3.5397">
        <ele>11.85</ele>
        <time>2020-07-08T10:16:19Z</time>
      </trkpt>
      <trkpt lat="47.82876" lon="-3.5397">
        <ele>11.77</ele>
        <time>2020-07-08T10:16:20Z</time>
      </trkpt>
      <trkpt lat="47.82878" lon="-3.53971">
        <ele>11.7</ele>
        <time>2020-07-08T10:16:21Z</time>
      </trkpt>
      <trkpt lat="47.8288" lon="-3.53972">
        <ele>11.63</ele>
        <time>2020-07-08T10:16:22Z</time>
      </trkpt>
      <trkpt lat="47.82882" lon="-3.53972">
        <ele>11.57</ele>
        <time>2020-07-08T10:16:23Z</time>
      </trkpt>
      <trkpt lat="47.82885" lon="-3.53973">
        <ele>11.5</ele>
        <time>2020-07-08T10:16:24Z</time>
      </trkpt>
      <trkpt lat="47.82887" lon="-3.53973">
        <ele>11.58</ele>
        <time>2020-07-08T10:16:25Z</time>
      </trkpt>
      <trkpt lat="47.8289" lon="-3.53972">
        <ele>12.06</ele>
        <time>2020-07-08T10:16:26Z</time>
      </trkpt>
      <trkpt lat="47.82892" lon="-3.5397">
        <ele>12.52</ele>
        <time>2020-07-08T10:16:27Z</time>
      </trkpt>
      <trkpt lat="47.82894" lon="-3.53969">
        <ele>13.08</ele>
        <time>2020-07-08T10:16:28Z</time>
      </trkpt>
      <trkpt lat="47.82896" lon="-3.53969">
        <ele>13.26</ele>
        <time>2020-07-08T10:16:29Z</time>
      </trkpt>
      <trkpt lat="47.82898" lon="-3.53969">
        <ele>13.28</ele>
        <time>2020-07-08T10:16:30Z</time>
      </trkpt>
      <trkpt lat="47.829" lon="-3.53969">
        <ele>13.37</ele>
        <time>2020-07-08T10:16:31Z</time>
      </trkpt>
      <trkpt lat="47.82903" lon="-3.53969">
        <ele>13.37</ele>
        <time>2020-07-08T10:16:32Z</time>
      </trkpt>
      <trkpt lat="47.82905" lon="-3.5397">
        <ele>13.32</ele>
        <time>2020-07-08T10:16:33Z</time>
      </trkpt>
      <trkpt lat="47.82907" lon="-3.5397">
        <ele>13.28</ele>
        <time>2020-07-08T10:16:34Z</time>
      </trkpt>
      <trkpt lat="47.82909" lon="-3.5397">
        <ele>13.39</ele>
        <time>2020-07-08T10:16:35Z</time>
      </trkpt>
      <trkpt lat="47.8291" lon="-3.5397">
        <ele>13.38</ele>
        <time>2020-07-08T10:16:36Z</time>
      </trkpt>
      <trkpt lat="47.82911" lon="-3.5397">
        <ele>13.4</ele>
        <time>2020-07-08T10:16:37Z</time>
      </trkpt>
      <trkpt lat="47.82913" lon="-3.53971">
        <ele>13.29</ele>
        <time>2020-07-08T10:16:38Z</time>
      </trkpt>
      <trkpt lat="47.82916" lon="-3.53972">
        <ele>13.18</ele>
        <time>2020-07-08T10:16:39Z</time>
      </trkpt>
      <trkpt lat="47.82919" lon="-3.53972">
        <ele>13.31</ele>
        <time>2020-07-08T10:16:40Z</time>
      </trkpt>
      <trkpt lat="47.82922" lon="-3.53974">
        <ele>13.08</ele>
        <time>2020-07-08T10:16:41Z</time>
      </trkpt>
      <trkpt lat="47.82926" lon="-3.53974">
        <ele>13.16</ele>
        <time>2020-07-08T10:16:42Z</time>
      </trkpt>
      <trkpt lat="47.82929" lon="-3.53974">
        <ele>13.26</ele>
        <time>2020-07-08T10:16:43Z</time>
      </trkpt>
      <trkpt lat="47.8293" lon="-3.53974">
        <ele>13.4</ele>
        <time>2020-07-08T10:16:44Z</time>
      </trkpt>
      <trkpt lat="47.82932" lon="-3.53974">
        <ele>13.59</ele>
        <time>2020-07-08T10:16:45Z</time>
      </trkpt>
      <trkpt lat="47.82934" lon="-3.53974">
        <ele>13.77</ele>
        <time>2020-07-08T10:16:46Z</time>
      </trkpt>
      <trkpt lat="47.82936" lon="-3.53974">
        <ele>13.9</ele>
        <time>2020-07-08T10:16:47Z</time>
      </trkpt>
      <trkpt lat="47.82938" lon="-3.53973">
        <ele>14.16</ele>
        <time>2020-07-08T10:16:48Z</time>
      </trkpt>
      <trkpt lat="47.8294" lon="-3.53972">
        <ele>14.49</ele>
        <time>2020-07-08T10:16:49Z</time>
      </trkpt>
      <trkpt lat="47.82942" lon="-3.53972">
        <ele>14.84</ele>
        <time>2020-07-08T10:16:50Z</time>
      </trkpt>
      <trkpt lat="47.82944" lon="-3.53971">
        <ele>15.19</ele>
        <time>2020-07-08T10:16:51Z</time>
      </trkpt>
      <trkpt lat="47.82947" lon="-3.53972">
        <ele>15.37</ele>
        <time>2020-07-08T10:16:52Z</time>
      </trkpt>
      <trkpt lat="47.8295" lon="-3.53973">
        <ele>15.4</ele>
        <time>2020-07-08T10:16:53Z</time>
      </trkpt>
      <trkpt lat="47.82951" lon="-3.53973">
        <ele>15.4</ele>
        <time>2020-07-08T10:16:54Z</time>
      </trkpt>
      <trkpt lat="47.82951" lon="-3.53974">
        <ele>15.25</ele>
        <time>2020-07-08T10:16:55Z</time>
      </trkpt>
      <trkpt lat="47.82951" lon="-3.53975">
        <ele>15.07</ele>
        <time>2020-07-08T10:16:56Z</time>
      </trkpt>
      <trkpt lat="47.82951" lon="-3.53975">
        <ele>15.02</ele>
        <time>2020-07-08T10:16:57Z</time>
      </trkpt>
      <trkpt lat="47.82951" lon="-3.53975">
        <ele>15</ele>
        <time>2020-07-08T10:16:58Z</time>
      </trkpt>
      <trkpt lat="47.82951" lon="-3.53975">
        <ele>15</ele>
        <time>2020-07-08T10:16:59Z</time>
      </trkpt>
      <trkpt lat="47.82951" lon="-3.53975">
        <ele>15</ele>
        <time>2020-07-08T10:17:00Z</time>
      </trkpt>
      <trkpt lat="47.82951" lon="-3.53975">
        <ele>15</ele>
        <time>2020-07-08T10:17:01Z</time>
      </trkpt>
      <trkpt lat="47.82951" lon="-3.53975">
        <ele>15</ele>
        <time>2020-07-08T10:17:02Z</time>
      </trkpt>
      <trkpt lat="47.82951" lon="-3.53975">
        <ele>15</ele>
        <time>2020-07-08T10:17:03Z</time>
      </trkpt>
      <trkpt lat="47.82951" lon="-3.53975">
        <ele>15</ele>
        <time>2020-07-08T10:17:04Z</time>
      </trkpt>
      <trkpt lat="47.82961" lon="-3.53971">
        <ele>16.49</ele>
        <time>2020-07-08T10:17:05Z</time>
      </trkpt>
      <trkpt lat="47.82964" lon="-3.53971">
        <ele>17.15</ele>
        <time>2020-07-08T10:17:06Z</time>
      </trkpt>
      <trkpt lat="47.82965" lon="-3.53969">
        <ele>17.71</ele>
        <time>2020-07-08T10:17:07Z</time>
      </trkpt>
      <trkpt lat="47.82969" lon="-3.53966">
        <ele>18.57</ele>
        <time>2020-07-08T10:17:08Z</time>
      </trkpt>
      <trkpt lat="47.82972" lon="-3.53965">
        <ele>19.18</ele>
        <time>2020-07-08T10:17:09Z</time>
      </trkpt>
      <trkpt lat="47.82975" lon="-3.53966">
        <ele>19.4</ele>
        <time>2020-07-08T10:17:10Z</time>
      </trkpt>
      <trkpt lat="47.82978" lon="-3.53966">
        <ele>19.52</ele>
        <time>2020-07-08T10:17:11Z</time>
      </trkpt>
      <trkpt lat="47.82979" lon="-3.53965">
        <ele>19.6</ele>
        <time>2020-07-08T10:17:12Z</time>
      </trkpt>
      <trkpt lat="47.82981" lon="-3.53965">
        <ele>19.66</ele>
        <time>2020-07-08T10:17:13Z</time>
      </trkpt>
      <trkpt lat="47.82982" lon="-3.53966">
        <ele>19.66</ele>
        <time>2020-07-08T10:17:14Z</time>
      </trkpt>
      <trkpt lat="47.82985" lon="-3.53967">
        <ele>19.55</ele>
        <time>2020-07-08T10:17:15Z</time>
      </trkpt>
      <trkpt lat="47.82988" lon="-3.53967">
        <ele>19.53</ele>
        <time>2020-07-08T10:17:16Z</time>
      </trkpt>
      <trkpt lat="47.8299" lon="-3.53968">
        <ele>19.5</ele>
        <time>2020-07-08T10:17:17Z</time>
      </trkpt>
      <trkpt lat="47.82991" lon="-3.53968">
        <ele>19.52</ele>
        <time>2020-07-08T10:17:18Z</time>
      </trkpt>
      <trkpt lat="47.82994" lon="-3.53969">
        <ele>19.48</ele>
        <time>2020-07-08T10:17:19Z</time>
      </trkpt>
      <trkpt lat="47.82996" lon="-3.53969">
        <ele>19.52</ele>
        <time>2020-07-08T10:17:20Z</time>
      </trkpt>
      <trkpt lat="47.82998" lon="-3.53965">
        <ele>19.98</ele>
        <time>2020-07-08T10:17:21Z</time>
      </trkpt>
      <trkpt lat="47.82999" lon="-3.53965">
        <ele>20.23</ele>
        <time>2020-07-08T10:17:22Z</time>
      </trkpt>
      <trkpt lat="47.83003" lon="-3.53965">
        <ele>20.37</ele>
        <time>2020-07-08T10:17:23Z</time>
      </trkpt>
      <trkpt lat="47.83005" lon="-3.53965">
        <ele>20.57</ele>
        <time>2020-07-08T10:17:24Z</time>
      </trkpt>
      <trkpt lat="47.83005" lon="-3.53965">
        <ele>20.66</ele>
        <time>2020-07-08T10:17:25Z</time>
      </trkpt>
      <trkpt lat="47.83006" lon="-3.53965">
        <ele>20.72</ele>
        <time>2020-07-08T10:17:26Z</time>
      </trkpt>
      <trkpt lat="47.83006" lon="-3.53965">
        <ele>20.73</ele>
        <time>2020-07-08T10:17:27Z</time>
      </trkpt>
      <trkpt lat="47.83006" lon="-3.53965">
        <ele>20.74</ele>
        <time>2020-07-08T10:17:28Z</time>
      </trkpt>
      <trkpt lat="47.83006" lon="-3.53965">
        <ele>20.74</ele>
        <time>2020-07-08T10:17:29Z</time>
      </trkpt>
      <trkpt lat="47.83006" lon="-3.53965">
        <ele>20.74</ele>
        <time>2020-07-08T10:17:30Z</time>
      </trkpt>
      <trkpt lat="47.83006" lon="-3.53965">
        <ele>20.74</ele>
        <time>2020-07-08T10:17:31Z</time>
      </trkpt>
      <trkpt lat="47.83006" lon="-3.53965">
        <ele>20.74</ele>
        <time>2020-07-08T10:17:32Z</time>
      </trkpt>
      <trkpt lat="47.83006" lon="-3.53965">
        <ele>20.74</ele>
        <time>2020-07-08T10:17:33Z</time>
      </trkpt>
      <trkpt lat="47.83006" lon="-3.53965">
        <ele>20.74</ele>
        <time>2020-07-08T10:17:34Z</time>
      </trkpt>
      <trkpt lat="47.83006" lon="-3.53965">
        <ele>20.74</ele>
        <time>2020-07-08T10:17:35Z</time>
      </trkpt>
      <trkpt lat="47.83006" lon="-3.53965">
        <ele>20.74</ele>
        <time>2020-07-08T10:17:36Z</time>
      </trkpt>
      <trkpt lat="47.83006" lon="-3.53965">
        <ele>20.74</ele>
        <time>2020-07-08T10:17:37Z</time>
      </trkpt>
      <trkpt lat="47.83006" lon="-3.53965">
        <ele>20.74</ele>
        <time>2020-07-08T10:17:38Z</time>
      </trkpt>
      <trkpt lat="47.83006" lon="-3.53965">
        <ele>20.74</ele>
        <time>2020-07-08T10:17:39Z</time>
      </trkpt>
      <trkpt lat="47.83006" lon="-3.53965">
        <ele>20.74</ele>
        <time>2020-07-08T10:17:40Z</time>
      </trkpt>
      <trkpt lat="47.83006" lon="-3.53965">
        <ele>20.74</ele>
        <time>2020-07-08T10:17:41Z</time>
      </trkpt>
      <trkpt lat="47.83006" lon="-3.53965">
        <ele>20.74</ele>
        <time>2020-07-08T10:17:42Z</time>
      </trkpt>
      <trkpt lat="47.83006" lon="-3.53965">
        <ele>20.74</ele>
        <time>2020-07-08T10:17:43Z</time>
      </trkpt>
      <trkpt lat="47.83006" lon="-3.53965">
        <ele>20.74</ele>
        <time>2020-07-08T10:17:44Z</time>
      </trkpt>
      <trkpt lat="47.83006" lon="-3.53965">
        <ele>20.74</ele>
        <time>2020-07-08T10:17:45Z</time>
      </trkpt>
      <trkpt lat="47.83006" lon="-3.53965">
        <ele>20.74</ele>
        <time>2020-07-08T10:17:46Z</time>
      </trkpt>
      <trkpt lat="47.83006" lon="-3.53965">
        <ele>20.74</ele>
        <time>2020-07-08T10:17:47Z</time>
      </trkpt>
      <trkpt lat="47.83006" lon="-3.53965">
        <ele>20.74</ele>
        <time>2020-07-08T10:17:48Z</time>
      </trkpt>
      <trkpt lat="47.83006" lon="-3.53965">
        <ele>20.74</ele>
        <time>2020-07-08T10:17:49Z</time>
      </trkpt>
      <trkpt lat="47.83014" lon="-3.53969">
        <ele>20.64</ele>
        <time>2020-07-08T10:17:50Z</time>
      </trkpt>
      <trkpt lat="47.83017" lon="-3.5397">
        <ele>20.62</ele>
        <time>2020-07-08T10:17:51Z</time>
      </trkpt>
      <trkpt lat="47.8302" lon="-3.53973">
        <ele>20.31</ele>
        <time>2020-07-08T10:17:52Z</time>
      </trkpt>
      <trkpt lat="47.83024" lon="-3.53976">
        <ele>19.59</ele>
        <time>2020-07-08T10:17:53Z</time>
      </trkpt>
      <trkpt lat="47.83027" lon="-3.53979">
        <ele>18.74</ele>
        <time>2020-07-08T10:17:54Z</time>
      </trkpt>
      <trkpt lat="47.8303" lon="-3.53981">
        <ele>18.07</ele>
        <time>2020-07-08T10:17:55Z</time>
      </trkpt>
      <trkpt lat="47.83034" lon="-3.53983">
        <ele>17.54</ele>
        <time>2020-07-08T10:17:56Z</time>
      </trkpt>
      <trkpt lat="47.83039" lon="-3.53985">
        <ele>17.02</ele>
        <time>2020-07-08T10:17:57Z</time>
      </trkpt>
      <trkpt lat="47.83042" lon="-3.53985">
        <ele>16.78</ele>
        <time>2020-07-08T10:17:58Z</time>
      </trkpt>
      <trkpt lat="47.83045" lon="-3.53985">
        <ele>16.83</ele>
        <time>2020-07-08T10:17:59Z</time>
      </trkpt>
      <trkpt lat="47.83047" lon="-3.53984">
        <ele>17.14</ele>
        <time>2020-07-08T10:18:00Z</time>
      </trkpt>
      <trkpt lat="47.83047" lon="-3.53982">
        <ele>17.65</ele>
        <time>2020-07-08T10:18:01Z</time>
      </trkpt>
      <trkpt lat="47.83047" lon="-3.53981">
        <ele>18.03</ele>
        <time>2020-07-08T10:18:02Z</time>
      </trkpt>
      <trkpt lat="47.83047" lon="-3.53981">
        <ele>18.27</ele>
        <time>2020-07-08T10:18:03Z</time>
      </trkpt>
      <trkpt lat="47.83047" lon="-3.5398">
        <ele>18.53</ele>
        <time>2020-07-08T10:18:04Z</time>
      </trkpt>
      <trkpt lat="47.83047" lon="-3.5398">
        <ele>18.61</ele>
        <time>2020-07-08T10:18:05Z</time>
      </trkpt>
      <trkpt lat="47.83047" lon="-3.5398">
        <ele>18.63</ele>
        <time>2020-07-08T10:18:06Z</time>
      </trkpt>
      <trkpt lat="47.83047" lon="-3.5398">
        <ele>18.64</ele>
        <time>2020-07-08T10:18:07Z</time>
      </trkpt>
      <trkpt lat="47.83047" lon="-3.5398">
        <ele>18.64</ele>
        <time>2020-07-08T10:18:08Z</time>
      </trkpt>
      <trkpt lat="47.83047" lon="-3.5398">
        <ele>18.64</ele>
        <time>2020-07-08T10:18:09Z</time>
      </trkpt>
      <trkpt lat="47.83047" lon="-3.5398">
        <ele>18.64</ele>
        <time>2020-07-08T10:18:10Z</time>
      </trkpt>
      <trkpt lat="47.83047" lon="-3.5398">
        <ele>18.64</ele>
        <time>2020-07-08T10:18:11Z</time>
      </trkpt>
      <trkpt lat="47.83047" lon="-3.5398">
        <ele>18.64</ele>
        <time>2020-07-08T10:18:12Z</time>
      </trkpt>
      <trkpt lat="47.83047" lon="-3.5398">
        <ele>18.64</ele>
        <time>2020-07-08T10:18:13Z</time>
      </trkpt>
      <trkpt lat="47.83047" lon="-3.5398">
        <ele>18.64</ele>
        <time>2020-07-08T10:18:14Z</time>
      </trkpt>
      <trkpt lat="47.83054" lon="-3.53968">
        <ele>21.39</ele>
        <time>2020-07-08T10:18:15Z</time>
      </trkpt>
      <trkpt lat="47.83054" lon="-3.53967">
        <ele>22.31</ele>
        <time>2020-07-08T10:18:16Z</time>
      </trkpt>
      <trkpt lat="47.83053" lon="-3.53966">
        <ele>22.66</ele>
        <time>2020-07-08T10:18:17Z</time>
      </trkpt>
      <trkpt lat="47.83054" lon="-3.53966">
        <ele>22.79</ele>
        <time>2020-07-08T10:18:18Z</time>
      </trkpt>
      <trkpt lat="47.83054" lon="-3.53966">
        <ele>22.83</ele>
        <time>2020-07-08T10:18:19Z</time>
      </trkpt>
      <trkpt lat="47.83054" lon="-3.53966">
        <ele>22.84</ele>
        <time>2020-07-08T10:18:20Z</time>
      </trkpt>
      <trkpt lat="47.83054" lon="-3.53966">
        <ele>22.84</ele>
        <time>2020-07-08T10:18:21Z</time>
      </trkpt>
      <trkpt lat="47.83054" lon="-3.53966">
        <ele>22.85</ele>
        <time>2020-07-08T10:18:22Z</time>
      </trkpt>
      <trkpt lat="47.83054" lon="-3.53966">
        <ele>22.85</ele>
        <time>2020-07-08T10:18:23Z</time>
      </trkpt>
      <trkpt lat="47.83054" lon="-3.53966">
        <ele>22.85</ele>
        <time>2020-07-08T10:18:24Z</time>
      </trkpt>
      <trkpt lat="47.83054" lon="-3.53966">
        <ele>22.85</ele>
        <time>2020-07-08T10:18:25Z</time>
      </trkpt>
      <trkpt lat="47.83063" lon="-3.53971">
        <ele>22.52</ele>
        <time>2020-07-08T10:18:26Z</time>
      </trkpt>
      <trkpt lat="47.83063" lon="-3.53972">
        <ele>22.26</ele>
        <time>2020-07-08T10:18:27Z</time>
      </trkpt>
      <trkpt lat="47.83065" lon="-3.53972">
        <ele>22.28</ele>
        <time>2020-07-08T10:18:28Z</time>
      </trkpt>
      <trkpt lat="47.83066" lon="-3.53972">
        <ele>22.36</ele>
        <time>2020-07-08T10:18:29Z</time>
      </trkpt>
      <trkpt lat="47.83066" lon="-3.53972">
        <ele>22.39</ele>
        <time>2020-07-08T10:18:30Z</time>
      </trkpt>
      <trkpt lat="47.83066" lon="-3.53972">
        <ele>22.4</ele>
        <time>2020-07-08T10:18:31Z</time>
      </trkpt>
      <trkpt lat="47.83066" lon="-3.53972">
        <ele>22.4</ele>
        <time>2020-07-08T10:18:32Z</time>
      </trkpt>
      <trkpt lat="47.83066" lon="-3.53972">
        <ele>22.4</ele>
        <time>2020-07-08T10:18:33Z</time>
      </trkpt>
      <trkpt lat="47.83066" lon="-3.53972">
        <ele>22.4</ele>
        <time>2020-07-08T10:18:34Z</time>
      </trkpt>
      <trkpt lat="47.83066" lon="-3.53972">
        <ele>22.4</ele>
        <time>2020-07-08T10:18:35Z</time>
      </trkpt>
      <trkpt lat="47.83066" lon="-3.53972">
        <ele>22.4</ele>
        <time>2020-07-08T10:18:36Z</time>
      </trkpt>
      <trkpt lat="47.83066" lon="-3.53972">
        <ele>22.4</ele>
        <time>2020-07-08T10:18:37Z</time>
      </trkpt>
      <trkpt lat="47.83066" lon="-3.53972">
        <ele>22.4</ele>
        <time>2020-07-08T10:18:38Z</time>
      </trkpt>
      <trkpt lat="47.83066" lon="-3.53972">
        <ele>22.4</ele>
        <time>2020-07-08T10:18:39Z</time>
      </trkpt>
      <trkpt lat="47.83066" lon="-3.53972">
        <ele>22.4</ele>
        <time>2020-07-08T10:18:40Z</time>
      </trkpt>
      <trkpt lat="47.83066" lon="-3.53972">
        <ele>22.4</ele>
        <time>2020-07-08T10:18:41Z</time>
      </trkpt>
      <trkpt lat="47.83066" lon="-3.53972">
        <ele>22.4</ele>
        <time>2020-07-08T10:18:42Z</time>
      </trkpt>
      <trkpt lat="47.83066" lon="-3.53972">
        <ele>22.4</ele>
        <time>2020-07-08T10:18:43Z</time>
      </trkpt>
      <trkpt lat="47.83066" lon="-3.53972">
        <ele>22.4</ele>
        <time>2020-07-08T10:18:44Z</time>
      </trkpt>
      <trkpt lat="47.83066" lon="-3.53972">
        <ele>22.4</ele>
        <time>2020-07-08T10:18:45Z</time>
      </trkpt>
      <trkpt lat="47.83066" lon="-3.53972">
        <ele>22.4</ele>
        <time>2020-07-08T10:18:46Z</time>
      </trkpt>
      <trkpt lat="47.83066" lon="-3.53972">
        <ele>22.4</ele>
        <time>2020-07-08T10:18:47Z</time>
      </trkpt>
      <trkpt lat="47.83066" lon="-3.53972">
        <ele>22.4</ele>
        <time>2020-07-08T10:18:48Z</time>
      </trkpt>
      <trkpt lat="47.83066" lon="-3.53972">
        <ele>22.4</ele>
        <time>2020-07-08T10:18:49Z</time>
      </trkpt>
      <trkpt lat="47.83066" lon="-3.53972">
        <ele>22.4</ele>
        <time>2020-07-08T10:18:50Z</time>
      </trkpt>
      <trkpt lat="47.83072" lon="-3.53962">
        <ele>23.66</ele>
        <time>2020-07-08T10:18:51Z</time>
      </trkpt>
      <trkpt lat="47.83072" lon="-3.53962">
        <ele>24.17</ele>
        <time>2020-07-08T10:18:52Z</time>
      </trkpt>
      <trkpt lat="47.83072" lon="-3.5396">
        <ele>24.47</ele>
        <time>2020-07-08T10:18:53Z</time>
      </trkpt>
      <trkpt lat="47.83072" lon="-3.53959">
        <ele>24.66</ele>
        <time>2020-07-08T10:18:54Z</time>
      </trkpt>
      <trkpt lat="47.83072" lon="-3.53959">
        <ele>24.72</ele>
        <time>2020-07-08T10:18:55Z</time>
      </trkpt>
      <trkpt lat="47.83072" lon="-3.53959">
        <ele>24.73</ele>
        <time>2020-07-08T10:18:56Z</time>
      </trkpt>
      <trkpt lat="47.83072" lon="-3.53959">
        <ele>24.74</ele>
        <time>2020-07-08T10:18:57Z</time>
      </trkpt>
      <trkpt lat="47.83072" lon="-3.53959">
        <ele>24.74</ele>
        <time>2020-07-08T10:18:58Z</time>
      </trkpt>
      <trkpt lat="47.83072" lon="-3.53959">
        <ele>24.74</ele>
        <time>2020-07-08T10:18:59Z</time>
      </trkpt>
      <trkpt lat="47.83072" lon="-3.53959">
        <ele>24.74</ele>
        <time>2020-07-08T10:19:00Z</time>
      </trkpt>
      <trkpt lat="47.83072" lon="-3.53959">
        <ele>24.74</ele>
        <time>2020-07-08T10:19:01Z</time>
      </trkpt>
      <trkpt lat="47.83072" lon="-3.53959">
        <ele>24.74</ele>
        <time>2020-07-08T10:19:02Z</time>
      </trkpt>
      <trkpt lat="47.83072" lon="-3.53959">
        <ele>24.74</ele>
        <time>2020-07-08T10:19:03Z</time>
      </trkpt>
      <trkpt lat="47.83067" lon="-3.53947">
        <ele>25.9</ele>
        <time>2020-07-08T10:19:04Z</time>
      </trkpt>
      <trkpt lat="47.83067" lon="-3.53947">
        <ele>26.3</ele>
        <time>2020-07-08T10:19:05Z</time>
      </trkpt>
      <trkpt lat="47.83065" lon="-3.53945">
        <ele>26.54</ele>
        <time>2020-07-08T10:19:06Z</time>
      </trkpt>
      <trkpt lat="47.83064" lon="-3.53943">
        <ele>26.73</ele>
        <time>2020-07-08T10:19:07Z</time>
      </trkpt>
      <trkpt lat="47.83064" lon="-3.53943">
        <ele>26.79</ele>
        <time>2020-07-08T10:19:08Z</time>
      </trkpt>
      <trkpt lat="47.83064" lon="-3.53943">
        <ele>26.8</ele>
        <time>2020-07-08T10:19:09Z</time>
      </trkpt>
      <trkpt lat="47.83064" lon="-3.53943">
        <ele>26.81</ele>
        <time>2020-07-08T10:19:10Z</time>
      </trkpt>
      <trkpt lat="47.83064" lon="-3.53943">
        <ele>26.81</ele>
        <time>2020-07-08T10:19:11Z</time>
      </trkpt>
      <trkpt lat="47.83064" lon="-3.53943">
        <ele>26.81</ele>
        <time>2020-07-08T10:19:12Z</time>
      </trkpt>
      <trkpt lat="47.83058" lon="-3.53932">
        <ele>27.31</ele>
        <time>2020-07-08T10:19:13Z</time>
      </trkpt>
      <trkpt lat="47.83056" lon="-3.5393">
        <ele>27.45</ele>
        <time>2020-07-08T10:19:14Z</time>
      </trkpt>
      <trkpt lat="47.83055" lon="-3.53929">
        <ele>27.55</ele>
        <time>2020-07-08T10:19:15Z</time>
      </trkpt>
      <trkpt lat="47.83054" lon="-3.53928">
        <ele>27.65</ele>
        <time>2020-07-08T10:19:16Z</time>
      </trkpt>
      <trkpt lat="47.83053" lon="-3.53928">
        <ele>27.69</ele>
        <time>2020-07-08T10:19:17Z</time>
      </trkpt>
      <trkpt lat="47.83052" lon="-3.53926">
        <ele>27.78</ele>
        <time>2020-07-08T10:19:18Z</time>
      </trkpt>
      <trkpt lat="47.83051" lon="-3.53925">
        <ele>27.87</ele>
        <time>2020-07-08T10:19:19Z</time>
      </trkpt>
      <trkpt lat="47.83051" lon="-3.53923">
        <ele>28.04</ele>
        <time>2020-07-08T10:19:20Z</time>
      </trkpt>
      <trkpt lat="47.8305" lon="-3.53922">
        <ele>28.21</ele>
        <time>2020-07-08T10:19:21Z</time>
      </trkpt>
      <trkpt lat="47.83049" lon="-3.5392">
        <ele>28.37</ele>
        <time>2020-07-08T10:19:22Z</time>
      </trkpt>
      <trkpt lat="47.83048" lon="-3.53919">
        <ele>28.46</ele>
        <time>2020-07-08T10:19:23Z</time>
      </trkpt>
      <trkpt lat="47.83047" lon="-3.53918">
        <ele>28.54</ele>
        <time>2020-07-08T10:19:24Z</time>
      </trkpt>
      <trkpt lat="47.83047" lon="-3.53917">
        <ele>28.61</ele>
        <time>2020-07-08T10:19:25Z</time>
      </trkpt>
      <trkpt lat="47.83045" lon="-3.53916">
        <ele>28.82</ele>
        <time>2020-07-08T10:19:26Z</time>
      </trkpt>
      <trkpt lat="47.83045" lon="-3.53915">
        <ele>29.01</ele>
        <time>2020-07-08T10:19:27Z</time>
      </trkpt>
      <trkpt lat="47.83041" lon="-3.53913">
        <ele>29.29</ele>
        <time>2020-07-08T10:19:28Z</time>
      </trkpt>
      <trkpt lat="47.83038" lon="-3.53912">
        <ele>29.34</ele>
        <time>2020-07-08T10:19:29Z</time>
      </trkpt>
      <trkpt lat="47.83037" lon="-3.53912">
        <ele>29.34</ele>
        <time>2020-07-08T10:19:30Z</time>
      </trkpt>
      <trkpt lat="47.83035" lon="-3.53913">
        <ele>29.19</ele>
        <time>2020-07-08T10:19:31Z</time>
      </trkpt>
      <trkpt lat="47.83034" lon="-3.53913">
        <ele>29.06</ele>
        <time>2020-07-08T10:19:32Z</time>
      </trkpt>
      <trkpt lat="47.83033" lon="-3.53913">
        <ele>29.08</ele>
        <time>2020-07-08T10:19:33Z</time>
      </trkpt>
      <trkpt lat="47.83033" lon="-3.53913">
        <ele>29.04</ele>
        <time>2020-07-08T10:19:34Z</time>
      </trkpt>
      <trkpt lat="47.83033" lon="-3.53913">
        <ele>29.03</ele>
        <time>2020-07-08T10:19:35Z</time>
      </trkpt>
      <trkpt lat="47.83033" lon="-3.53913">
        <ele>29.02</ele>
        <time>2020-07-08T10:19:36Z</time>
      </trkpt>
      <trkpt lat="47.83033" lon="-3.53913">
        <ele>29.02</ele>
        <time>2020-07-08T10:19:37Z</time>
      </trkpt>
      <trkpt lat="47.83033" lon="-3.53913">
        <ele>29.02</ele>
        <time>2020-07-08T10:19:38Z</time>
      </trkpt>
      <trkpt lat="47.83027" lon="-3.5391">
        <ele>29.3</ele>
        <time>2020-07-08T10:19:39Z</time>
      </trkpt>
      <trkpt lat="47.83026" lon="-3.53909">
        <ele>29.4</ele>
        <time>2020-07-08T10:19:40Z</time>
      </trkpt>
      <trkpt lat="47.83024" lon="-3.53909">
        <ele>29.46</ele>
        <time>2020-07-08T10:19:41Z</time>
      </trkpt>
      <trkpt lat="47.83022" lon="-3.53908">
        <ele>29.44</ele>
        <time>2020-07-08T10:19:42Z</time>
      </trkpt>
      <trkpt lat="47.83021" lon="-3.53908">
        <ele>29.41</ele>
        <time>2020-07-08T10:19:43Z</time>
      </trkpt>
      <trkpt lat="47.8302" lon="-3.53908">
        <ele>29.28</ele>
        <time>2020-07-08T10:19:44Z</time>
      </trkpt>
      <trkpt lat="47.83018" lon="-3.53908">
        <ele>29.16</ele>
        <time>2020-07-08T10:19:45Z</time>
      </trkpt>
      <trkpt lat="47.83017" lon="-3.53907">
        <ele>29.11</ele>
        <time>2020-07-08T10:19:46Z</time>
      </trkpt>
      <trkpt lat="47.83017" lon="-3.53907">
        <ele>29.12</ele>
        <time>2020-07-08T10:19:47Z</time>
      </trkpt>
      <trkpt lat="47.83016" lon="-3.53907">
        <ele>29.14</ele>
        <time>2020-07-08T10:19:48Z</time>
      </trkpt>
      <trkpt lat="47.83016" lon="-3.53907">
        <ele>29.14</ele>
        <time>2020-07-08T10:19:49Z</time>
      </trkpt>
      <trkpt lat="47.83014" lon="-3.53905">
        <ele>29.25</ele>
        <time>2020-07-08T10:19:50Z</time>
      </trkpt>
      <trkpt lat="47.83013" lon="-3.53904">
        <ele>29.38</ele>
        <time>2020-07-08T10:19:51Z</time>
      </trkpt>
      <trkpt lat="47.83011" lon="-3.53902">
        <ele>29.62</ele>
        <time>2020-07-08T10:19:52Z</time>
      </trkpt>
      <trkpt lat="47.8301" lon="-3.53901">
        <ele>29.73</ele>
        <time>2020-07-08T10:19:53Z</time>
      </trkpt>
      <trkpt lat="47.83009" lon="-3.539">
        <ele>29.82</ele>
        <time>2020-07-08T10:19:54Z</time>
      </trkpt>
      <trkpt lat="47.83009" lon="-3.53899">
        <ele>29.9</ele>
        <time>2020-07-08T10:19:55Z</time>
      </trkpt>
      <trkpt lat="47.83008" lon="-3.53899">
        <ele>29.94</ele>
        <time>2020-07-08T10:19:56Z</time>
      </trkpt>
      <trkpt lat="47.83008" lon="-3.53899">
        <ele>29.97</ele>
        <time>2020-07-08T10:19:57Z</time>
      </trkpt>
      <trkpt lat="47.83008" lon="-3.53899">
        <ele>29.98</ele>
        <time>2020-07-08T10:19:58Z</time>
      </trkpt>
      <trkpt lat="47.83008" lon="-3.53899">
        <ele>29.99</ele>
        <time>2020-07-08T10:19:59Z</time>
      </trkpt>
      <trkpt lat="47.83008" lon="-3.53899">
        <ele>29.99</ele>
        <time>2020-07-08T10:20:00Z</time>
      </trkpt>
      <trkpt lat="47.83008" lon="-3.53899">
        <ele>29.99</ele>
        <time>2020-07-08T10:20:01Z</time>
      </trkpt>
      <trkpt lat="47.83008" lon="-3.53899">
        <ele>29.99</ele>
        <time>2020-07-08T10:20:02Z</time>
      </trkpt>
      <trkpt lat="47.83008" lon="-3.53899">
        <ele>29.99</ele>
        <time>2020-07-08T10:20:03Z</time>
      </trkpt>
      <trkpt lat="47.83008" lon="-3.53899">
        <ele>29.99</ele>
        <time>2020-07-08T10:20:04Z</time>
      </trkpt>
      <trkpt lat="47.83008" lon="-3.53899">
        <ele>29.99</ele>
        <time>2020-07-08T10:20:05Z</time>
      </trkpt>
      <trkpt lat="47.83008" lon="-3.53899">
        <ele>29.99</ele>
        <time>2020-07-08T10:20:06Z</time>
      </trkpt>
      <trkpt lat="47.83008" lon="-3.53899">
        <ele>29.99</ele>
        <time>2020-07-08T10:20:07Z</time>
      </trkpt>
      <trkpt lat="47.83008" lon="-3.53899">
        <ele>29.99</ele>
        <time>2020-07-08T10:20:08Z</time>
      </trkpt>
      <trkpt lat="47.83008" lon="-3.53899">
        <ele>29.99</ele>
        <time>2020-07-08T10:20:09Z</time>
      </trkpt>
      <trkpt lat="47.83008" lon="-3.53899">
        <ele>29.99</ele>
        <time>2020-07-08T10:20:10Z</time>
      </trkpt>
      <trkpt lat="47.83008" lon="-3.53899">
        <ele>29.99</ele>
        <time>2020-07-08T10:20:11Z</time>
      </trkpt>
      <trkpt lat="47.83008" lon="-3.53899">
        <ele>29.99</ele>
        <time>2020-07-08T10:20:12Z</time>
      </trkpt>
      <trkpt lat="47.83008" lon="-3.53899">
        <ele>29.99</ele>
        <time>2020-07-08T10:20:13Z</time>
      </trkpt>
      <trkpt lat="47.83008" lon="-3.53899">
        <ele>29.99</ele>
        <time>2020-07-08T10:20:14Z</time>
      </trkpt>
      <trkpt lat="47.83008" lon="-3.53899">
        <ele>29.99</ele>
        <time>2020-07-08T10:20:15Z</time>
      </trkpt>
      <trkpt lat="47.83008" lon="-3.53899">
        <ele>29.99</ele>
        <time>2020-07-08T10:20:16Z</time>
      </trkpt>
      <trkpt lat="47.83" lon="-3.53892">
        <ele>30.3</ele>
        <time>2020-07-08T10:20:17Z</time>
      </trkpt>
      <trkpt lat="47.83" lon="-3.53891">
        <ele>30.47</ele>
        <time>2020-07-08T10:20:18Z</time>
      </trkpt>
      <trkpt lat="47.83" lon="-3.5389">
        <ele>30.63</ele>
        <time>2020-07-08T10:20:19Z</time>
      </trkpt>
      <trkpt lat="47.82999" lon="-3.5389">
        <ele>30.77</ele>
        <time>2020-07-08T10:20:20Z</time>
      </trkpt>
      <trkpt lat="47.82999" lon="-3.5389">
        <ele>30.81</ele>
        <time>2020-07-08T10:20:21Z</time>
      </trkpt>
      <trkpt lat="47.82999" lon="-3.5389">
        <ele>30.82</ele>
        <time>2020-07-08T10:20:22Z</time>
      </trkpt>
      <trkpt lat="47.82999" lon="-3.5389">
        <ele>30.82</ele>
        <time>2020-07-08T10:20:23Z</time>
      </trkpt>
      <trkpt lat="47.82999" lon="-3.5389">
        <ele>30.82</ele>
        <time>2020-07-08T10:20:24Z</time>
      </trkpt>
      <trkpt lat="47.82999" lon="-3.5389">
        <ele>30.82</ele>
        <time>2020-07-08T10:20:25Z</time>
      </trkpt>
      <trkpt lat="47.82999" lon="-3.5389">
        <ele>30.82</ele>
        <time>2020-07-08T10:20:26Z</time>
      </trkpt>
      <trkpt lat="47.82999" lon="-3.5389">
        <ele>30.82</ele>
        <time>2020-07-08T10:20:27Z</time>
      </trkpt>
      <trkpt lat="47.82999" lon="-3.5389">
        <ele>30.83</ele>
        <time>2020-07-08T10:20:28Z</time>
      </trkpt>
      <trkpt lat="47.82999" lon="-3.5389">
        <ele>30.83</ele>
        <time>2020-07-08T10:20:29Z</time>
      </trkpt>
      <trkpt lat="47.82999" lon="-3.5389">
        <ele>30.83</ele>
        <time>2020-07-08T10:20:30Z</time>
      </trkpt>
      <trkpt lat="47.82999" lon="-3.5389">
        <ele>30.83</ele>
        <time>2020-07-08T10:20:31Z</time>
      </trkpt>
      <trkpt lat="47.82999" lon="-3.5389">
        <ele>30.83</ele>
        <time>2020-07-08T10:20:32Z</time>
      </trkpt>
      <trkpt lat="47.82999" lon="-3.5389">
        <ele>30.83</ele>
        <time>2020-07-08T10:20:33Z</time>
      </trkpt>
      <trkpt lat="47.82999" lon="-3.5389">
        <ele>30.83</ele>
        <time>2020-07-08T10:20:34Z</time>
      </trkpt>
      <trkpt lat="47.82999" lon="-3.5389">
        <ele>30.83</ele>
        <time>2020-07-08T10:20:35Z</time>
      </trkpt>
      <trkpt lat="47.82999" lon="-3.5389">
        <ele>30.83</ele>
        <time>2020-07-08T10:20:36Z</time>
      </trkpt>
      <trkpt lat="47.82999" lon="-3.5389">
        <ele>30.83</ele>
        <time>2020-07-08T10:20:37Z</time>
      </trkpt>
      <trkpt lat="47.82999" lon="-3.5389">
        <ele>30.83</ele>
        <time>2020-07-08T10:20:38Z</time>
      </trkpt>
      <trkpt lat="47.82999" lon="-3.5389">
        <ele>30.83</ele>
        <time>2020-07-08T10:20:39Z</time>
      </trkpt>
      <trkpt lat="47.82992" lon="-3.53881">
        <ele>31.79</ele>
        <time>2020-07-08T10:20:40Z</time>
      </trkpt>
      <trkpt lat="47.82992" lon="-3.53881">
        <ele>32.09</ele>
        <time>2020-07-08T10:20:41Z</time>
      </trkpt>
      <trkpt lat="47.82992" lon="-3.53881">
        <ele>32.18</ele>
        <time>2020-07-08T10:20:42Z</time>
      </trkpt>
      <trkpt lat="47.82992" lon="-3.5388">
        <ele>32.3</ele>
        <time>2020-07-08T10:20:43Z</time>
      </trkpt>
      <trkpt lat="47.82992" lon="-3.5388">
        <ele>32.33</ele>
        <time>2020-07-08T10:20:44Z</time>
      </trkpt>
      <trkpt lat="47.82992" lon="-3.5388">
        <ele>32.34</ele>
        <time>2020-07-08T10:20:45Z</time>
      </trkpt>
      <trkpt lat="47.82992" lon="-3.5388">
        <ele>32.35</ele>
        <time>2020-07-08T10:20:46Z</time>
      </trkpt>
      <trkpt lat="47.8299" lon="-3.53875">
        <ele>33.11</ele>
        <time>2020-07-08T10:20:47Z</time>
      </trkpt>
      <trkpt lat="47.82991" lon="-3.53873">
        <ele>33.62</ele>
        <time>2020-07-08T10:20:48Z</time>
      </trkpt>
      <trkpt lat="47.82991" lon="-3.53873">
        <ele>33.89</ele>
        <time>2020-07-08T10:20:49Z</time>
      </trkpt>
      <trkpt lat="47.82992" lon="-3.53873">
        <ele>34.09</ele>
        <time>2020-07-08T10:20:50Z</time>
      </trkpt>
      <trkpt lat="47.82993" lon="-3.53872">
        <ele>34.26</ele>
        <time>2020-07-08T10:20:51Z</time>
      </trkpt>
      <trkpt lat="47.82993" lon="-3.53872">
        <ele>34.31</ele>
        <time>2020-07-08T10:20:52Z</time>
      </trkpt>
      <trkpt lat="47.82993" lon="-3.53872">
        <ele>34.32</ele>
        <time>2020-07-08T10:20:53Z</time>
      </trkpt>
      <trkpt lat="47.82993" lon="-3.53872">
        <ele>34.33</ele>
        <time>2020-07-08T10:20:54Z</time>
      </trkpt>
      <trkpt lat="47.82993" lon="-3.53872">
        <ele>34.33</ele>
        <time>2020-07-08T10:20:55Z</time>
      </trkpt>
      <trkpt lat="47.82993" lon="-3.53872">
        <ele>34.33</ele>
        <time>2020-07-08T10:20:56Z</time>
      </trkpt>
      <trkpt lat="47.82999" lon="-3.53866">
        <ele>35.9</ele>
        <time>2020-07-08T10:20:57Z</time>
      </trkpt>
      <trkpt lat="47.83" lon="-3.53865">
        <ele>36.64</ele>
        <time>2020-07-08T10:20:58Z</time>
      </trkpt>
      <trkpt lat="47.83001" lon="-3.53865">
        <ele>37</ele>
        <time>2020-07-08T10:20:59Z</time>
      </trkpt>
      <trkpt lat="47.83" lon="-3.53864">
        <ele>37.15</ele>
        <time>2020-07-08T10:21:00Z</time>
      </trkpt>
      <trkpt lat="47.83" lon="-3.53864">
        <ele>37.19</ele>
        <time>2020-07-08T10:21:01Z</time>
      </trkpt>
      <trkpt lat="47.83" lon="-3.53864">
        <ele>37.21</ele>
        <time>2020-07-08T10:21:02Z</time>
      </trkpt>
      <trkpt lat="47.83" lon="-3.53864">
        <ele>37.21</ele>
        <time>2020-07-08T10:21:03Z</time>
      </trkpt>
      <trkpt lat="47.83" lon="-3.53864">
        <ele>37.21</ele>
        <time>2020-07-08T10:21:04Z</time>
      </trkpt>
      <trkpt lat="47.83" lon="-3.53864">
        <ele>37.21</ele>
        <time>2020-07-08T10:21:05Z</time>
      </trkpt>
      <trkpt lat="47.83" lon="-3.53864">
        <ele>37.21</ele>
        <time>2020-07-08T10:21:06Z</time>
      </trkpt>
      <trkpt lat="47.83" lon="-3.53864">
        <ele>37.21</ele>
        <time>2020-07-08T10:21:07Z</time>
      </trkpt>
      <trkpt lat="47.83003" lon="-3.53854">
        <ele>39.37</ele>
        <time>2020-07-08T10:21:08Z</time>
      </trkpt>
      <trkpt lat="47.83004" lon="-3.53852">
        <ele>40.45</ele>
        <time>2020-07-08T10:21:09Z</time>
      </trkpt>
      <trkpt lat="47.83005" lon="-3.5385">
        <ele>41.17</ele>
        <time>2020-07-08T10:21:10Z</time>
      </trkpt>
      <trkpt lat="47.83006" lon="-3.53847">
        <ele>41.87</ele>
        <time>2020-07-08T10:21:11Z</time>
      </trkpt>
      <trkpt lat="47.83007" lon="-3.53846">
        <ele>42.38</ele>
        <time>2020-07-08T10:21:12Z</time>
      </trkpt>
      <trkpt lat="47.83008" lon="-3.53845">
        <ele>42.82</ele>
        <time>2020-07-08T10:21:13Z</time>
      </trkpt>
      <trkpt lat="47.83009" lon="-3.53843">
        <ele>43.39</ele>
        <time>2020-07-08T10:21:14Z</time>
      </trkpt>
      <trkpt lat="47.8301" lon="-3.53841">
        <ele>44</ele>
        <time>2020-07-08T10:21:15Z</time>
      </trkpt>
      <trkpt lat="47.83011" lon="-3.5384">
        <ele>44.44</ele>
        <time>2020-07-08T10:21:16Z</time>
      </trkpt>
      <trkpt lat="47.83012" lon="-3.5384">
        <ele>44.69</ele>
        <time>2020-07-08T10:21:17Z</time>
      </trkpt>
      <trkpt lat="47.83013" lon="-3.53839">
        <ele>44.94</ele>
        <time>2020-07-08T10:21:18Z</time>
      </trkpt>
      <trkpt lat="47.83013" lon="-3.53839">
        <ele>45.02</ele>
        <time>2020-07-08T10:21:19Z</time>
      </trkpt>
      <trkpt lat="47.83013" lon="-3.53839">
        <ele>45.04</ele>
        <time>2020-07-08T10:21:20Z</time>
      </trkpt>
      <trkpt lat="47.83013" lon="-3.53839">
        <ele>45.05</ele>
        <time>2020-07-08T10:21:21Z</time>
      </trkpt>
      <trkpt lat="47.83013" lon="-3.53839">
        <ele>45.05</ele>
        <time>2020-07-08T10:21:22Z</time>
      </trkpt>
      <trkpt lat="47.83013" lon="-3.53839">
        <ele>45.05</ele>
        <time>2020-07-08T10:21:23Z</time>
      </trkpt>
      <trkpt lat="47.83018" lon="-3.53836">
        <ele>46</ele>
        <time>2020-07-08T10:21:24Z</time>
      </trkpt>
      <trkpt lat="47.83019" lon="-3.53836">
        <ele>46.34</ele>
        <time>2020-07-08T10:21:25Z</time>
      </trkpt>
      <trkpt lat="47.83021" lon="-3.53836">
        <ele>46.58</ele>
        <time>2020-07-08T10:21:26Z</time>
      </trkpt>
      <trkpt lat="47.83021" lon="-3.53835">
        <ele>46.84</ele>
        <time>2020-07-08T10:21:27Z</time>
      </trkpt>
      <trkpt lat="47.83023" lon="-3.53835">
        <ele>47.02</ele>
        <time>2020-07-08T10:21:28Z</time>
      </trkpt>
      <trkpt lat="47.83023" lon="-3.53836">
        <ele>47.01</ele>
        <time>2020-07-08T10:21:29Z</time>
      </trkpt>
      <trkpt lat="47.83024" lon="-3.53835">
        <ele>47.09</ele>
        <time>2020-07-08T10:21:30Z</time>
      </trkpt>
      <trkpt lat="47.83025" lon="-3.53835">
        <ele>47.3</ele>
        <time>2020-07-08T10:21:31Z</time>
      </trkpt>
      <trkpt lat="47.83027" lon="-3.53835">
        <ele>47.48</ele>
        <time>2020-07-08T10:21:32Z</time>
      </trkpt>
      <trkpt lat="47.83027" lon="-3.53836">
        <ele>47.47</ele>
        <time>2020-07-08T10:21:33Z</time>
      </trkpt>
      <trkpt lat="47.83029" lon="-3.53835">
        <ele>47.58</ele>
        <time>2020-07-08T10:21:34Z</time>
      </trkpt>
      <trkpt lat="47.8303" lon="-3.53835">
        <ele>47.74</ele>
        <time>2020-07-08T10:21:35Z</time>
      </trkpt>
      <trkpt lat="47.83032" lon="-3.53834">
        <ele>48.12</ele>
        <time>2020-07-08T10:21:36Z</time>
      </trkpt>
      <trkpt lat="47.83034" lon="-3.53834">
        <ele>48.34</ele>
        <time>2020-07-08T10:21:37Z</time>
      </trkpt>
      <trkpt lat="47.83035" lon="-3.53835">
        <ele>48.36</ele>
        <time>2020-07-08T10:21:38Z</time>
      </trkpt>
      <trkpt lat="47.83037" lon="-3.53836">
        <ele>48.39</ele>
        <time>2020-07-08T10:21:39Z</time>
      </trkpt>
      <trkpt lat="47.83038" lon="-3.53836">
        <ele>48.45</ele>
        <time>2020-07-08T10:21:40Z</time>
      </trkpt>
      <trkpt lat="47.8304" lon="-3.53837">
        <ele>48.52</ele>
        <time>2020-07-08T10:21:41Z</time>
      </trkpt>
      <trkpt lat="47.83041" lon="-3.53837">
        <ele>48.68</ele>
        <time>2020-07-08T10:21:42Z</time>
      </trkpt>
      <trkpt lat="47.83043" lon="-3.53837">
        <ele>48.85</ele>
        <time>2020-07-08T10:21:43Z</time>
      </trkpt>
      <trkpt lat="47.83044" lon="-3.53836">
        <ele>49.12</ele>
        <time>2020-07-08T10:21:44Z</time>
      </trkpt>
      <trkpt lat="47.83047" lon="-3.53837">
        <ele>49.3</ele>
        <time>2020-07-08T10:21:45Z</time>
      </trkpt>
      <trkpt lat="47.83048" lon="-3.53835">
        <ele>49.63</ele>
        <time>2020-07-08T10:21:46Z</time>
      </trkpt>
      <trkpt lat="47.8305" lon="-3.53834">
        <ele>50.12</ele>
        <time>2020-07-08T10:21:47Z</time>
      </trkpt>
      <trkpt lat="47.83052" lon="-3.53832">
        <ele>50.49</ele>
        <time>2020-07-08T10:21:48Z</time>
      </trkpt>
      <trkpt lat="47.83053" lon="-3.53831">
        <ele>50.73</ele>
        <time>2020-07-08T10:21:49Z</time>
      </trkpt>
      <trkpt lat="47.83054" lon="-3.53829">
        <ele>50.9</ele>
        <time>2020-07-08T10:21:50Z</time>
      </trkpt>
      <trkpt lat="47.83053" lon="-3.53828">
        <ele>50.95</ele>
        <time>2020-07-08T10:21:51Z</time>
      </trkpt>
      <trkpt lat="47.83054" lon="-3.53827">
        <ele>51.05</ele>
        <time>2020-07-08T10:21:52Z</time>
      </trkpt>
      <trkpt lat="47.83056" lon="-3.53825">
        <ele>51.23</ele>
        <time>2020-07-08T10:21:53Z</time>
      </trkpt>
      <trkpt lat="47.83057" lon="-3.53822">
        <ele>51.45</ele>
        <time>2020-07-08T10:21:54Z</time>
      </trkpt>
      <trkpt lat="47.83059" lon="-3.5382">
        <ele>51.66</ele>
        <time>2020-07-08T10:21:55Z</time>
      </trkpt>
      <trkpt lat="47.83062" lon="-3.5382">
        <ele>51.88</ele>
        <time>2020-07-08T10:21:56Z</time>
      </trkpt>
      <trkpt lat="47.83065" lon="-3.53818">
        <ele>52.1</ele>
        <time>2020-07-08T10:21:57Z</time>
      </trkpt>
      <trkpt lat="47.83066" lon="-3.53817">
        <ele>52.28</ele>
        <time>2020-07-08T10:21:58Z</time>
      </trkpt>
      <trkpt lat="47.83068" lon="-3.53817">
        <ele>52.42</ele>
        <time>2020-07-08T10:21:59Z</time>
      </trkpt>
      <trkpt lat="47.8307" lon="-3.53816">
        <ele>52.56</ele>
        <time>2020-07-08T10:22:00Z</time>
      </trkpt>
      <trkpt lat="47.83072" lon="-3.53815">
        <ele>52.77</ele>
        <time>2020-07-08T10:22:01Z</time>
      </trkpt>
      <trkpt lat="47.83074" lon="-3.53813">
        <ele>52.95</ele>
        <time>2020-07-08T10:22:02Z</time>
      </trkpt>
      <trkpt lat="47.83075" lon="-3.53812">
        <ele>53.09</ele>
        <time>2020-07-08T10:22:03Z</time>
      </trkpt>
      <trkpt lat="47.83076" lon="-3.53811">
        <ele>53.23</ele>
        <time>2020-07-08T10:22:04Z</time>
      </trkpt>
      <trkpt lat="47.83078" lon="-3.53809">
        <ele>53.43</ele>
        <time>2020-07-08T10:22:05Z</time>
      </trkpt>
      <trkpt lat="47.83081" lon="-3.53807">
        <ele>53.67</ele>
        <time>2020-07-08T10:22:06Z</time>
      </trkpt>
      <trkpt lat="47.83082" lon="-3.53806">
        <ele>53.83</ele>
        <time>2020-07-08T10:22:07Z</time>
      </trkpt>
      <trkpt lat="47.83083" lon="-3.53804">
        <ele>53.97</ele>
        <time>2020-07-08T10:22:08Z</time>
      </trkpt>
      <trkpt lat="47.83084" lon="-3.53803">
        <ele>54.06</ele>
        <time>2020-07-08T10:22:09Z</time>
      </trkpt>
      <trkpt lat="47.83085" lon="-3.53802">
        <ele>54.15</ele>
        <time>2020-07-08T10:22:10Z</time>
      </trkpt>
      <trkpt lat="47.83086" lon="-3.538">
        <ele>54.25</ele>
        <time>2020-07-08T10:22:11Z</time>
      </trkpt>
      <trkpt lat="47.83087" lon="-3.53799">
        <ele>54.33</ele>
        <time>2020-07-08T10:22:12Z</time>
      </trkpt>
      <trkpt lat="47.83087" lon="-3.53798">
        <ele>54.4</ele>
        <time>2020-07-08T10:22:13Z</time>
      </trkpt>
      <trkpt lat="47.83087" lon="-3.53796">
        <ele>54.46</ele>
        <time>2020-07-08T10:22:14Z</time>
      </trkpt>
      <trkpt lat="47.83088" lon="-3.53794">
        <ele>54.54</ele>
        <time>2020-07-08T10:22:15Z</time>
      </trkpt>
      <trkpt lat="47.83087" lon="-3.53791">
        <ele>54.62</ele>
        <time>2020-07-08T10:22:16Z</time>
      </trkpt>
      <trkpt lat="47.83087" lon="-3.53789">
        <ele>54.71</ele>
        <time>2020-07-08T10:22:17Z</time>
      </trkpt>
      <trkpt lat="47.83087" lon="-3.53787">
        <ele>54.79</ele>
        <time>2020-07-08T10:22:18Z</time>
      </trkpt>
      <trkpt lat="47.83089" lon="-3.53783">
        <ele>54.95</ele>
        <time>2020-07-08T10:22:19Z</time>
      </trkpt>
      <trkpt lat="47.8309" lon="-3.53779">
        <ele>55.11</ele>
        <time>2020-07-08T10:22:20Z</time>
      </trkpt>
      <trkpt lat="47.83091" lon="-3.53776">
        <ele>55.27</ele>
        <time>2020-07-08T10:22:21Z</time>
      </trkpt>
      <trkpt lat="47.83092" lon="-3.53773">
        <ele>55.43</ele>
        <time>2020-07-08T10:22:22Z</time>
      </trkpt>
      <trkpt lat="47.83093" lon="-3.5377">
        <ele>55.58</ele>
        <time>2020-07-08T10:22:23Z</time>
      </trkpt>
      <trkpt lat="47.83095" lon="-3.53765">
        <ele>55.81</ele>
        <time>2020-07-08T10:22:24Z</time>
      </trkpt>
      <trkpt lat="47.83098" lon="-3.5376">
        <ele>56.04</ele>
        <time>2020-07-08T10:22:25Z</time>
      </trkpt>
      <trkpt lat="47.831" lon="-3.53757">
        <ele>56.24</ele>
        <time>2020-07-08T10:22:26Z</time>
      </trkpt>
      <trkpt lat="47.831" lon="-3.53755">
        <ele>56.38</ele>
        <time>2020-07-08T10:22:27Z</time>
      </trkpt>
      <trkpt lat="47.83101" lon="-3.53754">
        <ele>56.45</ele>
        <time>2020-07-08T10:22:28Z</time>
      </trkpt>
      <trkpt lat="47.83102" lon="-3.53754">
        <ele>56.5</ele>
        <time>2020-07-08T10:22:29Z</time>
      </trkpt>
      <trkpt lat="47.83102" lon="-3.53754">
        <ele>56.51</ele>
        <time>2020-07-08T10:22:30Z</time>
      </trkpt>
      <trkpt lat="47.83102" lon="-3.53754">
        <ele>56.51</ele>
        <time>2020-07-08T10:22:31Z</time>
      </trkpt>
      <trkpt lat="47.83102" lon="-3.53754">
        <ele>56.52</ele>
        <time>2020-07-08T10:22:32Z</time>
      </trkpt>
      <trkpt lat="47.83102" lon="-3.53754">
        <ele>56.52</ele>
        <time>2020-07-08T10:22:33Z</time>
      </trkpt>
      <trkpt lat="47.83102" lon="-3.53754">
        <ele>56.52</ele>
        <time>2020-07-08T10:22:34Z</time>
      </trkpt>
      <trkpt lat="47.83102" lon="-3.53754">
        <ele>56.52</ele>
        <time>2020-07-08T10:22:35Z</time>
      </trkpt>
      <trkpt lat="47.83102" lon="-3.53754">
        <ele>56.52</ele>
        <time>2020-07-08T10:22:36Z</time>
      </trkpt>
      <trkpt lat="47.83101" lon="-3.53752">
        <ele>56.57</ele>
        <time>2020-07-08T10:22:37Z</time>
      </trkpt>
      <trkpt lat="47.83103" lon="-3.53751">
        <ele>56.62</ele>
        <time>2020-07-08T10:22:38Z</time>
      </trkpt>
      <trkpt lat="47.83102" lon="-3.53751">
        <ele>56.65</ele>
        <time>2020-07-08T10:22:39Z</time>
      </trkpt>
      <trkpt lat="47.83103" lon="-3.5375">
        <ele>56.67</ele>
        <time>2020-07-08T10:22:40Z</time>
      </trkpt>
      <trkpt lat="47.83103" lon="-3.5375">
        <ele>56.68</ele>
        <time>2020-07-08T10:22:41Z</time>
      </trkpt>
      <trkpt lat="47.83103" lon="-3.5375">
        <ele>56.68</ele>
        <time>2020-07-08T10:22:42Z</time>
      </trkpt>
      <trkpt lat="47.83103" lon="-3.5375">
        <ele>56.68</ele>
        <time>2020-07-08T10:22:43Z</time>
      </trkpt>
      <trkpt lat="47.83103" lon="-3.5375">
        <ele>56.68</ele>
        <time>2020-07-08T10:22:44Z</time>
      </trkpt>
      <trkpt lat="47.83103" lon="-3.5375">
        <ele>56.68</ele>
        <time>2020-07-08T10:22:45Z</time>
      </trkpt>
      <trkpt lat="47.83103" lon="-3.5375">
        <ele>56.68</ele>
        <time>2020-07-08T10:22:46Z</time>
      </trkpt>
      <trkpt lat="47.83111" lon="-3.53746">
        <ele>57</ele>
        <time>2020-07-08T10:22:47Z</time>
      </trkpt>
      <trkpt lat="47.83112" lon="-3.53745">
        <ele>57.12</ele>
        <time>2020-07-08T10:22:48Z</time>
      </trkpt>
      <trkpt lat="47.83112" lon="-3.53744">
        <ele>57.19</ele>
        <time>2020-07-08T10:22:49Z</time>
      </trkpt>
      <trkpt lat="47.83113" lon="-3.53744">
        <ele>57.22</ele>
        <time>2020-07-08T10:22:50Z</time>
      </trkpt>
      <trkpt lat="47.83113" lon="-3.53744">
        <ele>57.22</ele>
        <time>2020-07-08T10:22:51Z</time>
      </trkpt>
      <trkpt lat="47.83113" lon="-3.53744">
        <ele>57.23</ele>
        <time>2020-07-08T10:22:52Z</time>
      </trkpt>
      <trkpt lat="47.83113" lon="-3.53744">
        <ele>57.23</ele>
        <time>2020-07-08T10:22:53Z</time>
      </trkpt>
      <trkpt lat="47.83113" lon="-3.53744">
        <ele>57.23</ele>
        <time>2020-07-08T10:22:54Z</time>
      </trkpt>
      <trkpt lat="47.83113" lon="-3.53744">
        <ele>57.23</ele>
        <time>2020-07-08T10:22:55Z</time>
      </trkpt>
      <trkpt lat="47.83113" lon="-3.53744">
        <ele>57.23</ele>
        <time>2020-07-08T10:22:56Z</time>
      </trkpt>
      <trkpt lat="47.83113" lon="-3.53744">
        <ele>57.23</ele>
        <time>2020-07-08T10:22:57Z</time>
      </trkpt>
      <trkpt lat="47.83114" lon="-3.53745">
        <ele>57.19</ele>
        <time>2020-07-08T10:22:58Z</time>
      </trkpt>
      <trkpt lat="47.83114" lon="-3.53746">
        <ele>57.17</ele>
        <time>2020-07-08T10:22:59Z</time>
      </trkpt>
      <trkpt lat="47.83115" lon="-3.53746">
        <ele>57.14</ele>
        <time>2020-07-08T10:23:00Z</time>
      </trkpt>
      <trkpt lat="47.83116" lon="-3.53748">
        <ele>57.11</ele>
        <time>2020-07-08T10:23:01Z</time>
      </trkpt>
      <trkpt lat="47.83118" lon="-3.53748">
        <ele>57.08</ele>
        <time>2020-07-08T10:23:02Z</time>
      </trkpt>
      <trkpt lat="47.83118" lon="-3.5375">
        <ele>57.03</ele>
        <time>2020-07-08T10:23:03Z</time>
      </trkpt>
      <trkpt lat="47.83117" lon="-3.5375">
        <ele>57</ele>
        <time>2020-07-08T10:23:04Z</time>
      </trkpt>
      <trkpt lat="47.83117" lon="-3.53751">
        <ele>56.98</ele>
        <time>2020-07-08T10:23:05Z</time>
      </trkpt>
      <trkpt lat="47.83118" lon="-3.53751">
        <ele>56.96</ele>
        <time>2020-07-08T10:23:06Z</time>
      </trkpt>
      <trkpt lat="47.83118" lon="-3.53751">
        <ele>56.95</ele>
        <time>2020-07-08T10:23:07Z</time>
      </trkpt>
      <trkpt lat="47.83118" lon="-3.53751">
        <ele>56.95</ele>
        <time>2020-07-08T10:23:09Z</time>
      </trkpt>
      <trkpt lat="47.83124" lon="-3.53754">
        <ele>56.89</ele>
        <time>2020-07-08T10:23:10Z</time>
      </trkpt>
      <trkpt lat="47.83126" lon="-3.53754">
        <ele>56.88</ele>
        <time>2020-07-08T10:23:11Z</time>
      </trkpt>
      <trkpt lat="47.83128" lon="-3.53755">
        <ele>56.85</ele>
        <time>2020-07-08T10:23:12Z</time>
      </trkpt>
      <trkpt lat="47.83129" lon="-3.53754">
        <ele>56.86</ele>
        <time>2020-07-08T10:23:13Z</time>
      </trkpt>
      <trkpt lat="47.83131" lon="-3.53752">
        <ele>56.89</ele>
        <time>2020-07-08T10:23:14Z</time>
      </trkpt>
      <trkpt lat="47.83134" lon="-3.53752">
        <ele>56.92</ele>
        <time>2020-07-08T10:23:15Z</time>
      </trkpt>
      <trkpt lat="47.83136" lon="-3.53752">
        <ele>56.92</ele>
        <time>2020-07-08T10:23:16Z</time>
      </trkpt>
      <trkpt lat="47.83139" lon="-3.53751">
        <ele>56.94</ele>
        <time>2020-07-08T10:23:17Z</time>
      </trkpt>
      <trkpt lat="47.83141" lon="-3.53751">
        <ele>56.91</ele>
        <time>2020-07-08T10:23:18Z</time>
      </trkpt>
      <trkpt lat="47.83144" lon="-3.5375">
        <ele>56.86</ele>
        <time>2020-07-08T10:23:19Z</time>
      </trkpt>
      <trkpt lat="47.83146" lon="-3.53749">
        <ele>56.82</ele>
        <time>2020-07-08T10:23:20Z</time>
      </trkpt>
      <trkpt lat="47.83147" lon="-3.53748">
        <ele>56.79</ele>
        <time>2020-07-08T10:23:21Z</time>
      </trkpt>
      <trkpt lat="47.83149" lon="-3.53749">
        <ele>56.72</ele>
        <time>2020-07-08T10:23:22Z</time>
      </trkpt>
      <trkpt lat="47.83151" lon="-3.5375">
        <ele>56.62</ele>
        <time>2020-07-08T10:23:23Z</time>
      </trkpt>
      <trkpt lat="47.83153" lon="-3.53752">
        <ele>56.47</ele>
        <time>2020-07-08T10:23:24Z</time>
      </trkpt>
      <trkpt lat="47.83156" lon="-3.53754">
        <ele>56.32</ele>
        <time>2020-07-08T10:23:25Z</time>
      </trkpt>
      <trkpt lat="47.83157" lon="-3.53756">
        <ele>56.18</ele>
        <time>2020-07-08T10:23:26Z</time>
      </trkpt>
      <trkpt lat="47.83159" lon="-3.53758">
        <ele>56.04</ele>
        <time>2020-07-08T10:23:27Z</time>
      </trkpt>
      <trkpt lat="47.83161" lon="-3.53761">
        <ele>55.88</ele>
        <time>2020-07-08T10:23:28Z</time>
      </trkpt>
      <trkpt lat="47.83163" lon="-3.53763">
        <ele>55.73</ele>
        <time>2020-07-08T10:23:29Z</time>
      </trkpt>
      <trkpt lat="47.83166" lon="-3.53763">
        <ele>55.61</ele>
        <time>2020-07-08T10:23:30Z</time>
      </trkpt>
      <trkpt lat="47.83169" lon="-3.53763">
        <ele>55.52</ele>
        <time>2020-07-08T10:23:31Z</time>
      </trkpt>
      <trkpt lat="47.83173" lon="-3.53763">
        <ele>55.45</ele>
        <time>2020-07-08T10:23:32Z</time>
      </trkpt>
      <trkpt lat="47.83175" lon="-3.53762">
        <ele>55.4</ele>
        <time>2020-07-08T10:23:33Z</time>
      </trkpt>
      <trkpt lat="47.83178" lon="-3.53762">
        <ele>55.36</ele>
        <time>2020-07-08T10:23:34Z</time>
      </trkpt>
      <trkpt lat="47.83181" lon="-3.53762">
        <ele>55.3</ele>
        <time>2020-07-08T10:23:35Z</time>
      </trkpt>
      <trkpt lat="47.83185" lon="-3.53762">
        <ele>55.23</ele>
        <time>2020-07-08T10:23:36Z</time>
      </trkpt>
      <trkpt lat="47.8319" lon="-3.53762">
        <ele>55.14</ele>
        <time>2020-07-08T10:23:37Z</time>
      </trkpt>
      <trkpt lat="47.83194" lon="-3.53761">
        <ele>55.06</ele>
        <time>2020-07-08T10:23:38Z</time>
      </trkpt>
      <trkpt lat="47.83198" lon="-3.53762">
        <ele>54.94</ele>
        <time>2020-07-08T10:23:39Z</time>
      </trkpt>
      <trkpt lat="47.83202" lon="-3.53762">
        <ele>54.78</ele>
        <time>2020-07-08T10:23:40Z</time>
      </trkpt>
      <trkpt lat="47.83207" lon="-3.53762">
        <ele>54.61</ele>
        <time>2020-07-08T10:23:41Z</time>
      </trkpt>
      <trkpt lat="47.83211" lon="-3.53762">
        <ele>54.46</ele>
        <time>2020-07-08T10:23:42Z</time>
      </trkpt>
      <trkpt lat="47.83215" lon="-3.53761">
        <ele>54.31</ele>
        <time>2020-07-08T10:23:43Z</time>
      </trkpt>
      <trkpt lat="47.83219" lon="-3.5376">
        <ele>54.17</ele>
        <time>2020-07-08T10:23:44Z</time>
      </trkpt>
      <trkpt lat="47.83224" lon="-3.53758">
        <ele>54.02</ele>
        <time>2020-07-08T10:23:45Z</time>
      </trkpt>
      <trkpt lat="47.83229" lon="-3.53757">
        <ele>53.84</ele>
        <time>2020-07-08T10:23:46Z</time>
      </trkpt>
      <trkpt lat="47.83234" lon="-3.53757">
        <ele>53.65</ele>
        <time>2020-07-08T10:23:47Z</time>
      </trkpt>
      <trkpt lat="47.83238" lon="-3.53756">
        <ele>53.49</ele>
        <time>2020-07-08T10:23:48Z</time>
      </trkpt>
      <trkpt lat="47.83242" lon="-3.53755">
        <ele>53.36</ele>
        <time>2020-07-08T10:23:49Z</time>
      </trkpt>
      <trkpt lat="47.83244" lon="-3.53755">
        <ele>53.26</ele>
        <time>2020-07-08T10:23:50Z</time>
      </trkpt>
      <trkpt lat="47.83248" lon="-3.53753">
        <ele>53.13</ele>
        <time>2020-07-08T10:23:51Z</time>
      </trkpt>
      <trkpt lat="47.8325" lon="-3.53751">
        <ele>53.05</ele>
        <time>2020-07-08T10:23:52Z</time>
      </trkpt>
      <trkpt lat="47.83252" lon="-3.53747">
        <ele>52.54</ele>
        <time>2020-07-08T10:23:53Z</time>
      </trkpt>
      <trkpt lat="47.83254" lon="-3.53743">
        <ele>52.09</ele>
        <time>2020-07-08T10:23:54Z</time>
      </trkpt>
      <trkpt lat="47.83256" lon="-3.53739">
        <ele>51.58</ele>
        <time>2020-07-08T10:23:55Z</time>
      </trkpt>
      <trkpt lat="47.83257" lon="-3.53735">
        <ele>51.2</ele>
        <time>2020-07-08T10:23:56Z</time>
      </trkpt>
      <trkpt lat="47.8326" lon="-3.53731">
        <ele>50.41</ele>
        <time>2020-07-08T10:23:57Z</time>
      </trkpt>
      <trkpt lat="47.83261" lon="-3.53727">
        <ele>50.11</ele>
        <time>2020-07-08T10:23:58Z</time>
      </trkpt>
      <trkpt lat="47.8326" lon="-3.53722">
        <ele>50.18</ele>
        <time>2020-07-08T10:23:59Z</time>
      </trkpt>
      <trkpt lat="47.83259" lon="-3.53719">
        <ele>50.31</ele>
        <time>2020-07-08T10:24:00Z</time>
      </trkpt>
      <trkpt lat="47.83258" lon="-3.53716">
        <ele>50.58</ele>
        <time>2020-07-08T10:24:01Z</time>
      </trkpt>
      <trkpt lat="47.83257" lon="-3.53714">
        <ele>50.76</ele>
        <time>2020-07-08T10:24:02Z</time>
      </trkpt>
      <trkpt lat="47.83258" lon="-3.53713">
        <ele>50.65</ele>
        <time>2020-07-08T10:24:03Z</time>
      </trkpt>
      <trkpt lat="47.83258" lon="-3.53712">
        <ele>50.65</ele>
        <time>2020-07-08T10:24:04Z</time>
      </trkpt>
      <trkpt lat="47.83258" lon="-3.53712">
        <ele>50.75</ele>
        <time>2020-07-08T10:24:05Z</time>
      </trkpt>
      <trkpt lat="47.83258" lon="-3.53712">
        <ele>50.71</ele>
        <time>2020-07-08T10:24:06Z</time>
      </trkpt>
      <trkpt lat="47.83258" lon="-3.53712">
        <ele>50.7</ele>
        <time>2020-07-08T10:24:07Z</time>
      </trkpt>
      <trkpt lat="47.83258" lon="-3.53712">
        <ele>50.7</ele>
        <time>2020-07-08T10:24:08Z</time>
      </trkpt>
      <trkpt lat="47.83258" lon="-3.53712">
        <ele>50.7</ele>
        <time>2020-07-08T10:24:09Z</time>
      </trkpt>
      <trkpt lat="47.83258" lon="-3.53712">
        <ele>50.7</ele>
        <time>2020-07-08T10:24:10Z</time>
      </trkpt>
      <trkpt lat="47.83258" lon="-3.53712">
        <ele>50.7</ele>
        <time>2020-07-08T10:24:11Z</time>
      </trkpt>
      <trkpt lat="47.83258" lon="-3.53712">
        <ele>50.7</ele>
        <time>2020-07-08T10:24:12Z</time>
      </trkpt>
      <trkpt lat="47.83258" lon="-3.53712">
        <ele>50.7</ele>
        <time>2020-07-08T10:24:13Z</time>
      </trkpt>
      <trkpt lat="47.83258" lon="-3.53712">
        <ele>50.7</ele>
        <time>2020-07-08T10:24:14Z</time>
      </trkpt>
      <trkpt lat="47.83263" lon="-3.53709">
        <ele>49.69</ele>
        <time>2020-07-08T10:24:15Z</time>
      </trkpt>
      <trkpt lat="47.83264" lon="-3.53705">
        <ele>49.12</ele>
        <time>2020-07-08T10:24:16Z</time>
      </trkpt>
      <trkpt lat="47.83266" lon="-3.537">
        <ele>48.68</ele>
        <time>2020-07-08T10:24:17Z</time>
      </trkpt>
      <trkpt lat="47.83267" lon="-3.53694">
        <ele>48.24</ele>
        <time>2020-07-08T10:24:18Z</time>
      </trkpt>
      <trkpt lat="47.83268" lon="-3.53689">
        <ele>47.81</ele>
        <time>2020-07-08T10:24:19Z</time>
      </trkpt>
      <trkpt lat="47.83269" lon="-3.53684">
        <ele>47.33</ele>
        <time>2020-07-08T10:24:20Z</time>
      </trkpt>
      <trkpt lat="47.8327" lon="-3.5368">
        <ele>46.81</ele>
        <time>2020-07-08T10:24:21Z</time>
      </trkpt>
      <trkpt lat="47.83271" lon="-3.53677">
        <ele>46.41</ele>
        <time>2020-07-08T10:24:22Z</time>
      </trkpt>
      <trkpt lat="47.83271" lon="-3.53674">
        <ele>46.25</ele>
        <time>2020-07-08T10:24:23Z</time>
      </trkpt>
      <trkpt lat="47.83271" lon="-3.53672">
        <ele>46.07</ele>
        <time>2020-07-08T10:24:24Z</time>
      </trkpt>
      <trkpt lat="47.83272" lon="-3.53667">
        <ele>45.87</ele>
        <time>2020-07-08T10:24:25Z</time>
      </trkpt>
      <trkpt lat="47.83271" lon="-3.53664">
        <ele>45.68</ele>
        <time>2020-07-08T10:24:26Z</time>
      </trkpt>
      <trkpt lat="47.83271" lon="-3.5366">
        <ele>45.51</ele>
        <time>2020-07-08T10:24:27Z</time>
      </trkpt>
      <trkpt lat="47.83271" lon="-3.53656">
        <ele>45.21</ele>
        <time>2020-07-08T10:24:28Z</time>
      </trkpt>
      <trkpt lat="47.83271" lon="-3.53652">
        <ele>44.97</ele>
        <time>2020-07-08T10:24:29Z</time>
      </trkpt>
      <trkpt lat="47.8327" lon="-3.53647">
        <ele>44.79</ele>
        <time>2020-07-08T10:24:30Z</time>
      </trkpt>
      <trkpt lat="47.8327" lon="-3.53643">
        <ele>44.5</ele>
        <time>2020-07-08T10:24:31Z</time>
      </trkpt>
      <trkpt lat="47.83271" lon="-3.53638">
        <ele>44.11</ele>
        <time>2020-07-08T10:24:32Z</time>
      </trkpt>
      <trkpt lat="47.8327" lon="-3.53634">
        <ele>43.78</ele>
        <time>2020-07-08T10:24:33Z</time>
      </trkpt>
      <trkpt lat="47.8327" lon="-3.5363">
        <ele>43.55</ele>
        <time>2020-07-08T10:24:34Z</time>
      </trkpt>
      <trkpt lat="47.8327" lon="-3.53627">
        <ele>43.43</ele>
        <time>2020-07-08T10:24:35Z</time>
      </trkpt>
      <trkpt lat="47.83269" lon="-3.53625">
        <ele>43.36</ele>
        <time>2020-07-08T10:24:36Z</time>
      </trkpt>
      <trkpt lat="47.83269" lon="-3.53625">
        <ele>43.3</ele>
        <time>2020-07-08T10:24:37Z</time>
      </trkpt>
      <trkpt lat="47.8327" lon="-3.53624">
        <ele>43.09</ele>
        <time>2020-07-08T10:24:38Z</time>
      </trkpt>
      <trkpt lat="47.8327" lon="-3.53624">
        <ele>43.03</ele>
        <time>2020-07-08T10:24:39Z</time>
      </trkpt>
      <trkpt lat="47.8327" lon="-3.53624">
        <ele>43.01</ele>
        <time>2020-07-08T10:24:40Z</time>
      </trkpt>
      <trkpt lat="47.8327" lon="-3.53618">
        <ele>42.49</ele>
        <time>2020-07-08T10:24:41Z</time>
      </trkpt>
      <trkpt lat="47.8327" lon="-3.53616">
        <ele>42.33</ele>
        <time>2020-07-08T10:24:42Z</time>
      </trkpt>
      <trkpt lat="47.8327" lon="-3.53615">
        <ele>42.26</ele>
        <time>2020-07-08T10:24:43Z</time>
      </trkpt>
      <trkpt lat="47.83269" lon="-3.53612">
        <ele>42.16</ele>
        <time>2020-07-08T10:24:44Z</time>
      </trkpt>
      <trkpt lat="47.83269" lon="-3.53609">
        <ele>42.11</ele>
        <time>2020-07-08T10:24:45Z</time>
      </trkpt>
      <trkpt lat="47.83268" lon="-3.53605">
        <ele>41.88</ele>
        <time>2020-07-08T10:24:46Z</time>
      </trkpt>
      <trkpt lat="47.83268" lon="-3.53602">
        <ele>41.66</ele>
        <time>2020-07-08T10:24:47Z</time>
      </trkpt>
      <trkpt lat="47.83269" lon="-3.53594">
        <ele>40.77</ele>
        <time>2020-07-08T10:24:48Z</time>
      </trkpt>
      <trkpt lat="47.83269" lon="-3.5359">
        <ele>40.32</ele>
        <time>2020-07-08T10:24:49Z</time>
      </trkpt>
      <trkpt lat="47.83269" lon="-3.53585">
        <ele>39.96</ele>
        <time>2020-07-08T10:24:50Z</time>
      </trkpt>
      <trkpt lat="47.83268" lon="-3.53581">
        <ele>39.67</ele>
        <time>2020-07-08T10:24:51Z</time>
      </trkpt>
      <trkpt lat="47.83268" lon="-3.53578">
        <ele>39.56</ele>
        <time>2020-07-08T10:24:52Z</time>
      </trkpt>
      <trkpt lat="47.83267" lon="-3.53576">
        <ele>39.65</ele>
        <time>2020-07-08T10:24:53Z</time>
      </trkpt>
      <trkpt lat="47.83267" lon="-3.53575">
        <ele>39.54</ele>
        <time>2020-07-08T10:24:54Z</time>
      </trkpt>
      <trkpt lat="47.83267" lon="-3.53573">
        <ele>39.64</ele>
        <time>2020-07-08T10:24:55Z</time>
      </trkpt>
      <trkpt lat="47.83267" lon="-3.53573">
        <ele>39.67</ele>
        <time>2020-07-08T10:24:56Z</time>
      </trkpt>
      <trkpt lat="47.83267" lon="-3.53573">
        <ele>39.68</ele>
        <time>2020-07-08T10:24:57Z</time>
      </trkpt>
      <trkpt lat="47.83267" lon="-3.53573">
        <ele>39.68</ele>
        <time>2020-07-08T10:24:58Z</time>
      </trkpt>
      <trkpt lat="47.83267" lon="-3.53573">
        <ele>39.68</ele>
        <time>2020-07-08T10:24:59Z</time>
      </trkpt>
      <trkpt lat="47.83267" lon="-3.53573">
        <ele>39.68</ele>
        <time>2020-07-08T10:25:00Z</time>
      </trkpt>
      <trkpt lat="47.83259" lon="-3.53563">
        <ele>41.29</ele>
        <time>2020-07-08T10:25:01Z</time>
      </trkpt>
      <trkpt lat="47.83257" lon="-3.5356">
        <ele>42.13</ele>
        <time>2020-07-08T10:25:02Z</time>
      </trkpt>
      <trkpt lat="47.83254" lon="-3.53555">
        <ele>42.89</ele>
        <time>2020-07-08T10:25:03Z</time>
      </trkpt>
      <trkpt lat="47.83252" lon="-3.5355">
        <ele>43.38</ele>
        <time>2020-07-08T10:25:04Z</time>
      </trkpt>
      <trkpt lat="47.8325" lon="-3.53546">
        <ele>43.83</ele>
        <time>2020-07-08T10:25:05Z</time>
      </trkpt>
      <trkpt lat="47.83248" lon="-3.53541">
        <ele>43.95</ele>
        <time>2020-07-08T10:25:06Z</time>
      </trkpt>
      <trkpt lat="47.83246" lon="-3.53537">
        <ele>44.09</ele>
        <time>2020-07-08T10:25:07Z</time>
      </trkpt>
      <trkpt lat="47.83245" lon="-3.53535">
        <ele>44.14</ele>
        <time>2020-07-08T10:25:08Z</time>
      </trkpt>
      <trkpt lat="47.83244" lon="-3.53534">
        <ele>44.23</ele>
        <time>2020-07-08T10:25:09Z</time>
      </trkpt>
      <trkpt lat="47.83244" lon="-3.53534">
        <ele>44.32</ele>
        <time>2020-07-08T10:25:10Z</time>
      </trkpt>
      <trkpt lat="47.83244" lon="-3.53534">
        <ele>44.42</ele>
        <time>2020-07-08T10:25:11Z</time>
      </trkpt>
      <trkpt lat="47.83244" lon="-3.53534">
        <ele>44.45</ele>
        <time>2020-07-08T10:25:12Z</time>
      </trkpt>
      <trkpt lat="47.83244" lon="-3.53534">
        <ele>44.45</ele>
        <time>2020-07-08T10:25:13Z</time>
      </trkpt>
      <trkpt lat="47.83244" lon="-3.53534">
        <ele>44.46</ele>
        <time>2020-07-08T10:25:14Z</time>
      </trkpt>
      <trkpt lat="47.83244" lon="-3.53534">
        <ele>44.46</ele>
        <time>2020-07-08T10:25:15Z</time>
      </trkpt>
      <trkpt lat="47.8324" lon="-3.5353">
        <ele>44.83</ele>
        <time>2020-07-08T10:25:16Z</time>
      </trkpt>
      <trkpt lat="47.8324" lon="-3.53528">
        <ele>44.89</ele>
        <time>2020-07-08T10:25:17Z</time>
      </trkpt>
      <trkpt lat="47.83239" lon="-3.53526">
        <ele>44.91</ele>
        <time>2020-07-08T10:25:18Z</time>
      </trkpt>
      <trkpt lat="47.83238" lon="-3.53523">
        <ele>45.04</ele>
        <time>2020-07-08T10:25:19Z</time>
      </trkpt>
      <trkpt lat="47.83238" lon="-3.53518">
        <ele>44.88</ele>
        <time>2020-07-08T10:25:20Z</time>
      </trkpt>
      <trkpt lat="47.83238" lon="-3.53515">
        <ele>44.58</ele>
        <time>2020-07-08T10:25:21Z</time>
      </trkpt>
      <trkpt lat="47.83239" lon="-3.53513">
        <ele>44.32</ele>
        <time>2020-07-08T10:25:22Z</time>
      </trkpt>
      <trkpt lat="47.83238" lon="-3.53512">
        <ele>44.33</ele>
        <time>2020-07-08T10:25:23Z</time>
      </trkpt>
      <trkpt lat="47.83238" lon="-3.53511">
        <ele>44.33</ele>
        <time>2020-07-08T10:25:24Z</time>
      </trkpt>
      <trkpt lat="47.83238" lon="-3.53511">
        <ele>44.33</ele>
        <time>2020-07-08T10:25:25Z</time>
      </trkpt>
      <trkpt lat="47.83235" lon="-3.53508">
        <ele>44.6</ele>
        <time>2020-07-08T10:25:26Z</time>
      </trkpt>
      <trkpt lat="47.83235" lon="-3.53506">
        <ele>44.77</ele>
        <time>2020-07-08T10:25:27Z</time>
      </trkpt>
      <trkpt lat="47.83234" lon="-3.53505">
        <ele>44.96</ele>
        <time>2020-07-08T10:25:28Z</time>
      </trkpt>
      <trkpt lat="47.83233" lon="-3.53503">
        <ele>45.14</ele>
        <time>2020-07-08T10:25:29Z</time>
      </trkpt>
      <trkpt lat="47.83233" lon="-3.53503">
        <ele>45.2</ele>
        <time>2020-07-08T10:25:30Z</time>
      </trkpt>
      <trkpt lat="47.83233" lon="-3.53503">
        <ele>45.21</ele>
        <time>2020-07-08T10:25:31Z</time>
      </trkpt>
      <trkpt lat="47.83233" lon="-3.53503">
        <ele>45.22</ele>
        <time>2020-07-08T10:25:32Z</time>
      </trkpt>
      <trkpt lat="47.83233" lon="-3.53503">
        <ele>45.22</ele>
        <time>2020-07-08T10:25:33Z</time>
      </trkpt>
      <trkpt lat="47.83233" lon="-3.53503">
        <ele>45.22</ele>
        <time>2020-07-08T10:25:34Z</time>
      </trkpt>
      <trkpt lat="47.83228" lon="-3.53494">
        <ele>45.6</ele>
        <time>2020-07-08T10:25:35Z</time>
      </trkpt>
      <trkpt lat="47.83227" lon="-3.53492">
        <ele>45.79</ele>
        <time>2020-07-08T10:25:36Z</time>
      </trkpt>
      <trkpt lat="47.83226" lon="-3.53489">
        <ele>45.89</ele>
        <time>2020-07-08T10:25:37Z</time>
      </trkpt>
      <trkpt lat="47.83224" lon="-3.53487">
        <ele>45.97</ele>
        <time>2020-07-08T10:25:38Z</time>
      </trkpt>
      <trkpt lat="47.83224" lon="-3.53485">
        <ele>45.95</ele>
        <time>2020-07-08T10:25:39Z</time>
      </trkpt>
      <trkpt lat="47.83222" lon="-3.53482">
        <ele>45.98</ele>
        <time>2020-07-08T10:25:40Z</time>
      </trkpt>
      <trkpt lat="47.83221" lon="-3.53479">
        <ele>45.96</ele>
        <time>2020-07-08T10:25:41Z</time>
      </trkpt>
      <trkpt lat="47.83221" lon="-3.53477">
        <ele>45.82</ele>
        <time>2020-07-08T10:25:42Z</time>
      </trkpt>
      <trkpt lat="47.83219" lon="-3.53474">
        <ele>45.87</ele>
        <time>2020-07-08T10:25:43Z</time>
      </trkpt>
      <trkpt lat="47.83217" lon="-3.53471">
        <ele>45.83</ele>
        <time>2020-07-08T10:25:44Z</time>
      </trkpt>
      <trkpt lat="47.83215" lon="-3.53467">
        <ele>45.8</ele>
        <time>2020-07-08T10:25:45Z</time>
      </trkpt>
      <trkpt lat="47.83213" lon="-3.53464">
        <ele>45.88</ele>
        <time>2020-07-08T10:25:46Z</time>
      </trkpt>
      <trkpt lat="47.83211" lon="-3.53462">
        <ele>46.03</ele>
        <time>2020-07-08T10:25:47Z</time>
      </trkpt>
      <trkpt lat="47.8321" lon="-3.5346">
        <ele>46.11</ele>
        <time>2020-07-08T10:25:48Z</time>
      </trkpt>
      <trkpt lat="47.83209" lon="-3.53458">
        <ele>46.14</ele>
        <time>2020-07-08T10:25:49Z</time>
      </trkpt>
      <trkpt lat="47.83207" lon="-3.53453">
        <ele>46.08</ele>
        <time>2020-07-08T10:25:50Z</time>
      </trkpt>
      <trkpt lat="47.83205" lon="-3.5345">
        <ele>46.03</ele>
        <time>2020-07-08T10:25:51Z</time>
      </trkpt>
      <trkpt lat="47.83204" lon="-3.53446">
        <ele>45.84</ele>
        <time>2020-07-08T10:25:52Z</time>
      </trkpt>
      <trkpt lat="47.83202" lon="-3.53443">
        <ele>45.72</ele>
        <time>2020-07-08T10:25:53Z</time>
      </trkpt>
      <trkpt lat="47.83202" lon="-3.5344">
        <ele>45.53</ele>
        <time>2020-07-08T10:25:54Z</time>
      </trkpt>
      <trkpt lat="47.83202" lon="-3.5344">
        <ele>45.48</ele>
        <time>2020-07-08T10:25:55Z</time>
      </trkpt>
      <trkpt lat="47.83203" lon="-3.5344">
        <ele>45.42</ele>
        <time>2020-07-08T10:25:56Z</time>
      </trkpt>
      <trkpt lat="47.83203" lon="-3.5344">
        <ele>45.43</ele>
        <time>2020-07-08T10:25:57Z</time>
      </trkpt>
      <trkpt lat="47.83203" lon="-3.5344">
        <ele>45.43</ele>
        <time>2020-07-08T10:25:58Z</time>
      </trkpt>
      <trkpt lat="47.83203" lon="-3.5344">
        <ele>45.43</ele>
        <time>2020-07-08T10:25:59Z</time>
      </trkpt>
      <trkpt lat="47.83203" lon="-3.5344">
        <ele>45.43</ele>
        <time>2020-07-08T10:26:00Z</time>
      </trkpt>
      <trkpt lat="47.83203" lon="-3.5344">
        <ele>45.43</ele>
        <time>2020-07-08T10:26:01Z</time>
      </trkpt>
      <trkpt lat="47.83203" lon="-3.5344">
        <ele>45.43</ele>
        <time>2020-07-08T10:26:02Z</time>
      </trkpt>
      <trkpt lat="47.83203" lon="-3.5344">
        <ele>45.43</ele>
        <time>2020-07-08T10:26:03Z</time>
      </trkpt>
      <trkpt lat="47.83203" lon="-3.5344">
        <ele>45.43</ele>
        <time>2020-07-08T10:26:04Z</time>
      </trkpt>
      <trkpt lat="47.83194" lon="-3.53436">
        <ele>45.89</ele>
        <time>2020-07-08T10:26:05Z</time>
      </trkpt>
      <trkpt lat="47.83195" lon="-3.53436">
        <ele>45.94</ele>
        <time>2020-07-08T10:26:06Z</time>
      </trkpt>
      <trkpt lat="47.83195" lon="-3.53436">
        <ele>45.98</ele>
        <time>2020-07-08T10:26:07Z</time>
      </trkpt>
      <trkpt lat="47.83195" lon="-3.53436">
        <ele>45.94</ele>
        <time>2020-07-08T10:26:08Z</time>
      </trkpt>
      <trkpt lat="47.83195" lon="-3.53436">
        <ele>45.93</ele>
        <time>2020-07-08T10:26:09Z</time>
      </trkpt>
      <trkpt lat="47.83195" lon="-3.53436">
        <ele>45.93</ele>
        <time>2020-07-08T10:26:10Z</time>
      </trkpt>
      <trkpt lat="47.83195" lon="-3.53436">
        <ele>45.93</ele>
        <time>2020-07-08T10:26:11Z</time>
      </trkpt>
      <trkpt lat="47.83195" lon="-3.53436">
        <ele>45.93</ele>
        <time>2020-07-08T10:26:12Z</time>
      </trkpt>
      <trkpt lat="47.83195" lon="-3.53436">
        <ele>45.93</ele>
        <time>2020-07-08T10:26:13Z</time>
      </trkpt>
      <trkpt lat="47.83195" lon="-3.53436">
        <ele>45.93</ele>
        <time>2020-07-08T10:26:14Z</time>
      </trkpt>
      <trkpt lat="47.83195" lon="-3.53436">
        <ele>45.93</ele>
        <time>2020-07-08T10:26:15Z</time>
      </trkpt>
      <trkpt lat="47.83195" lon="-3.53437">
        <ele>46.06</ele>
        <time>2020-07-08T10:26:16Z</time>
      </trkpt>
      <trkpt lat="47.83196" lon="-3.53438">
        <ele>46.07</ele>
        <time>2020-07-08T10:26:17Z</time>
      </trkpt>
      <trkpt lat="47.83197" lon="-3.53438">
        <ele>46.03</ele>
        <time>2020-07-08T10:26:18Z</time>
      </trkpt>
      <trkpt lat="47.83198" lon="-3.53439">
        <ele>46.01</ele>
        <time>2020-07-08T10:26:19Z</time>
      </trkpt>
      <trkpt lat="47.83199" lon="-3.53438">
        <ele>45.82</ele>
        <time>2020-07-08T10:26:20Z</time>
      </trkpt>
      <trkpt lat="47.83199" lon="-3.53438">
        <ele>45.76</ele>
        <time>2020-07-08T10:26:21Z</time>
      </trkpt>
      <trkpt lat="47.83199" lon="-3.53438">
        <ele>45.74</ele>
        <time>2020-07-08T10:26:22Z</time>
      </trkpt>
      <trkpt lat="47.83199" lon="-3.53438">
        <ele>45.74</ele>
        <time>2020-07-08T10:26:23Z</time>
      </trkpt>
      <trkpt lat="47.83199" lon="-3.53438">
        <ele>45.73</ele>
        <time>2020-07-08T10:26:24Z</time>
      </trkpt>
      <trkpt lat="47.83199" lon="-3.53438">
        <ele>45.73</ele>
        <time>2020-07-08T10:26:25Z</time>
      </trkpt>
      <trkpt lat="47.83199" lon="-3.53438">
        <ele>45.73</ele>
        <time>2020-07-08T10:26:26Z</time>
      </trkpt>
      <trkpt lat="47.83199" lon="-3.53438">
        <ele>45.73</ele>
        <time>2020-07-08T10:26:27Z</time>
      </trkpt>
      <trkpt lat="47.83199" lon="-3.53438">
        <ele>45.73</ele>
        <time>2020-07-08T10:26:28Z</time>
      </trkpt>
      <trkpt lat="47.83199" lon="-3.53438">
        <ele>45.73</ele>
        <time>2020-07-08T10:26:29Z</time>
      </trkpt>
      <trkpt lat="47.83199" lon="-3.53438">
        <ele>45.73</ele>
        <time>2020-07-08T10:26:30Z</time>
      </trkpt>
      <trkpt lat="47.83199" lon="-3.53438">
        <ele>45.73</ele>
        <time>2020-07-08T10:26:31Z</time>
      </trkpt>
      <trkpt lat="47.83199" lon="-3.53438">
        <ele>45.73</ele>
        <time>2020-07-08T10:26:32Z</time>
      </trkpt>
      <trkpt lat="47.83199" lon="-3.53438">
        <ele>45.73</ele>
        <time>2020-07-08T10:26:33Z</time>
      </trkpt>
      <trkpt lat="47.83199" lon="-3.53438">
        <ele>45.73</ele>
        <time>2020-07-08T10:26:34Z</time>
      </trkpt>
      <trkpt lat="47.83199" lon="-3.53438">
        <ele>45.73</ele>
        <time>2020-07-08T10:26:35Z</time>
      </trkpt>
      <trkpt lat="47.83199" lon="-3.53438">
        <ele>45.73</ele>
        <time>2020-07-08T10:26:36Z</time>
      </trkpt>
      <trkpt lat="47.83199" lon="-3.53438">
        <ele>45.73</ele>
        <time>2020-07-08T10:26:37Z</time>
      </trkpt>
      <trkpt lat="47.83199" lon="-3.53438">
        <ele>45.73</ele>
        <time>2020-07-08T10:26:38Z</time>
      </trkpt>
      <trkpt lat="47.83199" lon="-3.53438">
        <ele>45.73</ele>
        <time>2020-07-08T10:26:39Z</time>
      </trkpt>
      <trkpt lat="47.83199" lon="-3.53438">
        <ele>45.73</ele>
        <time>2020-07-08T10:26:40Z</time>
      </trkpt>
      <trkpt lat="47.83198" lon="-3.53432">
        <ele>45.39</ele>
        <time>2020-07-08T10:26:41Z</time>
      </trkpt>
      <trkpt lat="47.83197" lon="-3.53433">
        <ele>45.4</ele>
        <time>2020-07-08T10:26:42Z</time>
      </trkpt>
      <trkpt lat="47.83197" lon="-3.53433">
        <ele>45.44</ele>
        <time>2020-07-08T10:26:43Z</time>
      </trkpt>
      <trkpt lat="47.83198" lon="-3.53433">
        <ele>45.38</ele>
        <time>2020-07-08T10:26:44Z</time>
      </trkpt>
      <trkpt lat="47.83198" lon="-3.53433">
        <ele>45.37</ele>
        <time>2020-07-08T10:26:45Z</time>
      </trkpt>
      <trkpt lat="47.83198" lon="-3.53433">
        <ele>45.36</ele>
        <time>2020-07-08T10:26:46Z</time>
      </trkpt>
      <trkpt lat="47.83198" lon="-3.53433">
        <ele>45.36</ele>
        <time>2020-07-08T10:26:47Z</time>
      </trkpt>
      <trkpt lat="47.83198" lon="-3.53433">
        <ele>45.36</ele>
        <time>2020-07-08T10:26:48Z</time>
      </trkpt>
      <trkpt lat="47.83198" lon="-3.53433">
        <ele>45.36</ele>
        <time>2020-07-08T10:26:49Z</time>
      </trkpt>
      <trkpt lat="47.83198" lon="-3.53433">
        <ele>45.36</ele>
        <time>2020-07-08T10:26:50Z</time>
      </trkpt>
      <trkpt lat="47.83198" lon="-3.53433">
        <ele>45.36</ele>
        <time>2020-07-08T10:26:51Z</time>
      </trkpt>
      <trkpt lat="47.83198" lon="-3.53433">
        <ele>45.36</ele>
        <time>2020-07-08T10:26:52Z</time>
      </trkpt>
      <trkpt lat="47.83198" lon="-3.53433">
        <ele>45.36</ele>
        <time>2020-07-08T10:26:53Z</time>
      </trkpt>
      <trkpt lat="47.83198" lon="-3.53433">
        <ele>45.36</ele>
        <time>2020-07-08T10:26:54Z</time>
      </trkpt>
      <trkpt lat="47.83198" lon="-3.53433">
        <ele>45.36</ele>
        <time>2020-07-08T10:26:55Z</time>
      </trkpt>
      <trkpt lat="47.83206" lon="-3.5344">
        <ele>45.11</ele>
        <time>2020-07-08T10:26:56Z</time>
      </trkpt>
      <trkpt lat="47.83207" lon="-3.53441">
        <ele>45</ele>
        <time>2020-07-08T10:26:57Z</time>
      </trkpt>
      <trkpt lat="47.83208" lon="-3.53443">
        <ele>44.9</ele>
        <time>2020-07-08T10:26:58Z</time>
      </trkpt>
      <trkpt lat="47.83213" lon="-3.53447">
        <ele>44.69</ele>
        <time>2020-07-08T10:26:59Z</time>
      </trkpt>
      <trkpt lat="47.83215" lon="-3.53449">
        <ele>44.51</ele>
        <time>2020-07-08T10:27:00Z</time>
      </trkpt>
      <trkpt lat="47.83218" lon="-3.53452">
        <ele>44.27</ele>
        <time>2020-07-08T10:27:01Z</time>
      </trkpt>
      <trkpt lat="47.83221" lon="-3.53454">
        <ele>43.98</ele>
        <time>2020-07-08T10:27:02Z</time>
      </trkpt>
      <trkpt lat="47.83224" lon="-3.53456">
        <ele>43.66</ele>
        <time>2020-07-08T10:27:03Z</time>
      </trkpt>
      <trkpt lat="47.83228" lon="-3.53459">
        <ele>43.22</ele>
        <time>2020-07-08T10:27:04Z</time>
      </trkpt>
      <trkpt lat="47.8323" lon="-3.53461">
        <ele>42.85</ele>
        <time>2020-07-08T10:27:05Z</time>
      </trkpt>
      <trkpt lat="47.83234" lon="-3.53463">
        <ele>42.39</ele>
        <time>2020-07-08T10:27:06Z</time>
      </trkpt>
      <trkpt lat="47.83237" lon="-3.53467">
        <ele>41.81</ele>
        <time>2020-07-08T10:27:07Z</time>
      </trkpt>
      <trkpt lat="47.83241" lon="-3.5347">
        <ele>41.14</ele>
        <time>2020-07-08T10:27:08Z</time>
      </trkpt>
      <trkpt lat="47.83244" lon="-3.53472">
        <ele>40.55</ele>
        <time>2020-07-08T10:27:09Z</time>
      </trkpt>
      <trkpt lat="47.83246" lon="-3.53474">
        <ele>40.07</ele>
        <time>2020-07-08T10:27:10Z</time>
      </trkpt>
      <trkpt lat="47.83249" lon="-3.53475">
        <ele>39.53</ele>
        <time>2020-07-08T10:27:11Z</time>
      </trkpt>
      <trkpt lat="47.83253" lon="-3.53477">
        <ele>38.72</ele>
        <time>2020-07-08T10:27:12Z</time>
      </trkpt>
      <trkpt lat="47.83257" lon="-3.5348">
        <ele>37.89</ele>
        <time>2020-07-08T10:27:13Z</time>
      </trkpt>
      <trkpt lat="47.8326" lon="-3.53483">
        <ele>37.08</ele>
        <time>2020-07-08T10:27:14Z</time>
      </trkpt>
      <trkpt lat="47.83264" lon="-3.53486">
        <ele>36.15</ele>
        <time>2020-07-08T10:27:15Z</time>
      </trkpt>
      <trkpt lat="47.83268" lon="-3.53489">
        <ele>35.15</ele>
        <time>2020-07-08T10:27:16Z</time>
      </trkpt>
      <trkpt lat="47.83271" lon="-3.53492">
        <ele>34.17</ele>
        <time>2020-07-08T10:27:17Z</time>
      </trkpt>
      <trkpt lat="47.83274" lon="-3.53495">
        <ele>33.33</ele>
        <time>2020-07-08T10:27:18Z</time>
      </trkpt>
      <trkpt lat="47.83277" lon="-3.53497">
        <ele>32.49</ele>
        <time>2020-07-08T10:27:19Z</time>
      </trkpt>
      <trkpt lat="47.8328" lon="-3.53499">
        <ele>31.89</ele>
        <time>2020-07-08T10:27:20Z</time>
      </trkpt>
      <trkpt lat="47.83282" lon="-3.53502">
        <ele>31.46</ele>
        <time>2020-07-08T10:27:21Z</time>
      </trkpt>
      <trkpt lat="47.83285" lon="-3.53505">
        <ele>31.11</ele>
        <time>2020-07-08T10:27:22Z</time>
      </trkpt>
      <trkpt lat="47.83287" lon="-3.53507">
        <ele>30.87</ele>
        <time>2020-07-08T10:27:23Z</time>
      </trkpt>
      <trkpt lat="47.83289" lon="-3.5351">
        <ele>30.63</ele>
        <time>2020-07-08T10:27:24Z</time>
      </trkpt>
      <trkpt lat="47.8329" lon="-3.53511">
        <ele>30.4</ele>
        <time>2020-07-08T10:27:25Z</time>
      </trkpt>
      <trkpt lat="47.83292" lon="-3.53512">
        <ele>30.16</ele>
        <time>2020-07-08T10:27:26Z</time>
      </trkpt>
      <trkpt lat="47.83295" lon="-3.53514">
        <ele>29.87</ele>
        <time>2020-07-08T10:27:27Z</time>
      </trkpt>
      <trkpt lat="47.83298" lon="-3.53518">
        <ele>29.57</ele>
        <time>2020-07-08T10:27:28Z</time>
      </trkpt>
      <trkpt lat="47.833" lon="-3.5352">
        <ele>29.35</ele>
        <time>2020-07-08T10:27:29Z</time>
      </trkpt>
      <trkpt lat="47.83304" lon="-3.53522">
        <ele>28.99</ele>
        <time>2020-07-08T10:27:30Z</time>
      </trkpt>
      <trkpt lat="47.83307" lon="-3.53524">
        <ele>28.65</ele>
        <time>2020-07-08T10:27:31Z</time>
      </trkpt>
      <trkpt lat="47.83309" lon="-3.53526">
        <ele>28.44</ele>
        <time>2020-07-08T10:27:32Z</time>
      </trkpt>
      <trkpt lat="47.83313" lon="-3.5353">
        <ele>28.17</ele>
        <time>2020-07-08T10:27:33Z</time>
      </trkpt>
      <trkpt lat="47.83316" lon="-3.53531">
        <ele>27.86</ele>
        <time>2020-07-08T10:27:34Z</time>
      </trkpt>
      <trkpt lat="47.83318" lon="-3.53533">
        <ele>27.66</ele>
        <time>2020-07-08T10:27:35Z</time>
      </trkpt>
      <trkpt lat="47.83319" lon="-3.53533">
        <ele>27.5</ele>
        <time>2020-07-08T10:27:36Z</time>
      </trkpt>
      <trkpt lat="47.8332" lon="-3.53533">
        <ele>27.33</ele>
        <time>2020-07-08T10:27:37Z</time>
      </trkpt>
      <trkpt lat="47.8332" lon="-3.53532">
        <ele>27.23</ele>
        <time>2020-07-08T10:27:38Z</time>
      </trkpt>
      <trkpt lat="47.83321" lon="-3.53532">
        <ele>27.17</ele>
        <time>2020-07-08T10:27:39Z</time>
      </trkpt>
      <trkpt lat="47.83321" lon="-3.53532">
        <ele>27.15</ele>
        <time>2020-07-08T10:27:40Z</time>
      </trkpt>
      <trkpt lat="47.83321" lon="-3.53532">
        <ele>27.14</ele>
        <time>2020-07-08T10:27:41Z</time>
      </trkpt>
      <trkpt lat="47.83321" lon="-3.53532">
        <ele>27.14</ele>
        <time>2020-07-08T10:27:42Z</time>
      </trkpt>
      <trkpt lat="47.83321" lon="-3.53532">
        <ele>27.14</ele>
        <time>2020-07-08T10:27:43Z</time>
      </trkpt>
      <trkpt lat="47.83321" lon="-3.53532">
        <ele>27.14</ele>
        <time>2020-07-08T10:27:44Z</time>
      </trkpt>
      <trkpt lat="47.83321" lon="-3.53532">
        <ele>27.14</ele>
        <time>2020-07-08T10:27:45Z</time>
      </trkpt>
      <trkpt lat="47.83321" lon="-3.53532">
        <ele>27.14</ele>
        <time>2020-07-08T10:27:46Z</time>
      </trkpt>
      <trkpt lat="47.83321" lon="-3.53532">
        <ele>27.14</ele>
        <time>2020-07-08T10:27:47Z</time>
      </trkpt>
      <trkpt lat="47.83321" lon="-3.53532">
        <ele>27.14</ele>
        <time>2020-07-08T10:27:48Z</time>
      </trkpt>
      <trkpt lat="47.83321" lon="-3.53532">
        <ele>27.14</ele>
        <time>2020-07-08T10:27:49Z</time>
      </trkpt>
      <trkpt lat="47.83321" lon="-3.53532">
        <ele>27.14</ele>
        <time>2020-07-08T10:27:50Z</time>
      </trkpt>
      <trkpt lat="47.83321" lon="-3.53532">
        <ele>27.14</ele>
        <time>2020-07-08T10:27:51Z</time>
      </trkpt>
      <trkpt lat="47.83321" lon="-3.53532">
        <ele>27.14</ele>
        <time>2020-07-08T10:27:52Z</time>
      </trkpt>
      <trkpt lat="47.83321" lon="-3.53532">
        <ele>27.14</ele>
        <time>2020-07-08T10:27:53Z</time>
      </trkpt>
      <trkpt lat="47.83321" lon="-3.53532">
        <ele>27.14</ele>
        <time>2020-07-08T10:27:54Z</time>
      </trkpt>
      <trkpt lat="47.83321" lon="-3.53532">
        <ele>27.14</ele>
        <time>2020-07-08T10:27:55Z</time>
      </trkpt>
      <trkpt lat="47.83321" lon="-3.53532">
        <ele>27.14</ele>
        <time>2020-07-08T10:27:56Z</time>
      </trkpt>
      <trkpt lat="47.83321" lon="-3.53532">
        <ele>27.14</ele>
        <time>2020-07-08T10:27:57Z</time>
      </trkpt>
      <trkpt lat="47.83321" lon="-3.53532">
        <ele>27.14</ele>
        <time>2020-07-08T10:27:58Z</time>
      </trkpt>
      <trkpt lat="47.83333" lon="-3.53537">
        <ele>26.38</ele>
        <time>2020-07-08T10:27:59Z</time>
      </trkpt>
      <trkpt lat="47.83335" lon="-3.53539">
        <ele>26.14</ele>
        <time>2020-07-08T10:28:00Z</time>
      </trkpt>
      <trkpt lat="47.83336" lon="-3.53541">
        <ele>26.04</ele>
        <time>2020-07-08T10:28:01Z</time>
      </trkpt>
      <trkpt lat="47.83338" lon="-3.53542">
        <ele>25.98</ele>
        <time>2020-07-08T10:28:02Z</time>
      </trkpt>
      <trkpt lat="47.8334" lon="-3.53543">
        <ele>25.85</ele>
        <time>2020-07-08T10:28:03Z</time>
      </trkpt>
      <trkpt lat="47.83343" lon="-3.53544">
        <ele>25.62</ele>
        <time>2020-07-08T10:28:04Z</time>
      </trkpt>
      <trkpt lat="47.83346" lon="-3.53545">
        <ele>25.32</ele>
        <time>2020-07-08T10:28:05Z</time>
      </trkpt>
      <trkpt lat="47.83349" lon="-3.53547">
        <ele>25.05</ele>
        <time>2020-07-08T10:28:06Z</time>
      </trkpt>
      <trkpt lat="47.8335" lon="-3.53548">
        <ele>24.93</ele>
        <time>2020-07-08T10:28:07Z</time>
      </trkpt>
      <trkpt lat="47.83352" lon="-3.53549">
        <ele>24.78</ele>
        <time>2020-07-08T10:28:08Z</time>
      </trkpt>
      <trkpt lat="47.83353" lon="-3.53549">
        <ele>24.66</ele>
        <time>2020-07-08T10:28:09Z</time>
      </trkpt>
      <trkpt lat="47.83355" lon="-3.53551">
        <ele>24.61</ele>
        <time>2020-07-08T10:28:10Z</time>
      </trkpt>
      <trkpt lat="47.83355" lon="-3.53551">
        <ele>24.59</ele>
        <time>2020-07-08T10:28:11Z</time>
      </trkpt>
      <trkpt lat="47.83359" lon="-3.53554">
        <ele>24.28</ele>
        <time>2020-07-08T10:28:12Z</time>
      </trkpt>
      <trkpt lat="47.83361" lon="-3.53555">
        <ele>24.11</ele>
        <time>2020-07-08T10:28:13Z</time>
      </trkpt>
      <trkpt lat="47.83361" lon="-3.53555">
        <ele>24.05</ele>
        <time>2020-07-08T10:28:14Z</time>
      </trkpt>
      <trkpt lat="47.83362" lon="-3.53555">
        <ele>23.98</ele>
        <time>2020-07-08T10:28:15Z</time>
      </trkpt>
      <trkpt lat="47.83362" lon="-3.53555">
        <ele>23.91</ele>
        <time>2020-07-08T10:28:16Z</time>
      </trkpt>
      <trkpt lat="47.83362" lon="-3.53555">
        <ele>23.89</ele>
        <time>2020-07-08T10:28:17Z</time>
      </trkpt>
      <trkpt lat="47.83362" lon="-3.53555">
        <ele>23.89</ele>
        <time>2020-07-08T10:28:18Z</time>
      </trkpt>
      <trkpt lat="47.83362" lon="-3.53555">
        <ele>23.88</ele>
        <time>2020-07-08T10:28:19Z</time>
      </trkpt>
      <trkpt lat="47.83368" lon="-3.53557">
        <ele>23.54</ele>
        <time>2020-07-08T10:28:20Z</time>
      </trkpt>
      <trkpt lat="47.83369" lon="-3.53557">
        <ele>23.32</ele>
        <time>2020-07-08T10:28:21Z</time>
      </trkpt>
      <trkpt lat="47.83372" lon="-3.53558">
        <ele>23.1</ele>
        <time>2020-07-08T10:28:22Z</time>
      </trkpt>
      <trkpt lat="47.83372" lon="-3.53558">
        <ele>22.97</ele>
        <time>2020-07-08T10:28:23Z</time>
      </trkpt>
      <trkpt lat="47.83373" lon="-3.53558">
        <ele>22.89</ele>
        <time>2020-07-08T10:28:24Z</time>
      </trkpt>
      <trkpt lat="47.83374" lon="-3.53557">
        <ele>22.79</ele>
        <time>2020-07-08T10:28:25Z</time>
      </trkpt>
      <trkpt lat="47.83374" lon="-3.53557">
        <ele>22.69</ele>
        <time>2020-07-08T10:28:26Z</time>
      </trkpt>
      <trkpt lat="47.83374" lon="-3.53557">
        <ele>22.66</ele>
        <time>2020-07-08T10:28:27Z</time>
      </trkpt>
      <trkpt lat="47.83374" lon="-3.53557">
        <ele>22.65</ele>
        <time>2020-07-08T10:28:28Z</time>
      </trkpt>
      <trkpt lat="47.83374" lon="-3.53557">
        <ele>22.65</ele>
        <time>2020-07-08T10:28:29Z</time>
      </trkpt>
      <trkpt lat="47.83374" lon="-3.53557">
        <ele>22.65</ele>
        <time>2020-07-08T10:28:30Z</time>
      </trkpt>
      <trkpt lat="47.83374" lon="-3.53557">
        <ele>22.65</ele>
        <time>2020-07-08T10:28:31Z</time>
      </trkpt>
      <trkpt lat="47.83374" lon="-3.53557">
        <ele>22.65</ele>
        <time>2020-07-08T10:28:32Z</time>
      </trkpt>
      <trkpt lat="47.83374" lon="-3.53557">
        <ele>22.65</ele>
        <time>2020-07-08T10:28:33Z</time>
      </trkpt>
      <trkpt lat="47.83374" lon="-3.53557">
        <ele>22.65</ele>
        <time>2020-07-08T10:28:34Z</time>
      </trkpt>
      <trkpt lat="47.83374" lon="-3.53557">
        <ele>22.65</ele>
        <time>2020-07-08T10:28:35Z</time>
      </trkpt>
      <trkpt lat="47.83374" lon="-3.53557">
        <ele>22.65</ele>
        <time>2020-07-08T10:28:36Z</time>
      </trkpt>
      <trkpt lat="47.83374" lon="-3.53557">
        <ele>22.65</ele>
        <time>2020-07-08T10:28:37Z</time>
      </trkpt>
      <trkpt lat="47.83374" lon="-3.53557">
        <ele>22.65</ele>
        <time>2020-07-08T10:28:38Z</time>
      </trkpt>
      <trkpt lat="47.83374" lon="-3.53557">
        <ele>22.65</ele>
        <time>2020-07-08T10:28:39Z</time>
      </trkpt>
      <trkpt lat="47.83374" lon="-3.53557">
        <ele>22.65</ele>
        <time>2020-07-08T10:28:40Z</time>
      </trkpt>
      <trkpt lat="47.83374" lon="-3.53557">
        <ele>22.65</ele>
        <time>2020-07-08T10:28:41Z</time>
      </trkpt>
      <trkpt lat="47.83374" lon="-3.53557">
        <ele>22.65</ele>
        <time>2020-07-08T10:28:42Z</time>
      </trkpt>
      <trkpt lat="47.83374" lon="-3.53557">
        <ele>22.65</ele>
        <time>2020-07-08T10:28:43Z</time>
      </trkpt>
      <trkpt lat="47.83374" lon="-3.53557">
        <ele>22.65</ele>
        <time>2020-07-08T10:28:44Z</time>
      </trkpt>
      <trkpt lat="47.83374" lon="-3.53557">
        <ele>22.65</ele>
        <time>2020-07-08T10:28:45Z</time>
      </trkpt>
      <trkpt lat="47.83374" lon="-3.53557">
        <ele>22.65</ele>
        <time>2020-07-08T10:28:46Z</time>
      </trkpt>
      <trkpt lat="47.83374" lon="-3.53557">
        <ele>22.65</ele>
        <time>2020-07-08T10:28:47Z</time>
      </trkpt>
      <trkpt lat="47.83374" lon="-3.53557">
        <ele>22.65</ele>
        <time>2020-07-08T10:28:48Z</time>
      </trkpt>
      <trkpt lat="47.83374" lon="-3.53557">
        <ele>22.65</ele>
        <time>2020-07-08T10:28:49Z</time>
      </trkpt>
      <trkpt lat="47.83374" lon="-3.53557">
        <ele>22.65</ele>
        <time>2020-07-08T10:28:50Z</time>
      </trkpt>
      <trkpt lat="47.83374" lon="-3.53557">
        <ele>22.65</ele>
        <time>2020-07-08T10:28:51Z</time>
      </trkpt>
      <trkpt lat="47.83383" lon="-3.53559">
        <ele>22</ele>
        <time>2020-07-08T10:28:52Z</time>
      </trkpt>
      <trkpt lat="47.83384" lon="-3.53559">
        <ele>21.79</ele>
        <time>2020-07-08T10:28:53Z</time>
      </trkpt>
      <trkpt lat="47.83383" lon="-3.53559">
        <ele>21.75</ele>
        <time>2020-07-08T10:28:54Z</time>
      </trkpt>
      <trkpt lat="47.83383" lon="-3.53559">
        <ele>21.76</ele>
        <time>2020-07-08T10:28:55Z</time>
      </trkpt>
      <trkpt lat="47.83383" lon="-3.53559">
        <ele>21.76</ele>
        <time>2020-07-08T10:28:56Z</time>
      </trkpt>
      <trkpt lat="47.83383" lon="-3.53559">
        <ele>21.76</ele>
        <time>2020-07-08T10:28:57Z</time>
      </trkpt>
      <trkpt lat="47.83383" lon="-3.53559">
        <ele>21.76</ele>
        <time>2020-07-08T10:28:58Z</time>
      </trkpt>
      <trkpt lat="47.83383" lon="-3.53559">
        <ele>21.76</ele>
        <time>2020-07-08T10:28:59Z</time>
      </trkpt>
      <trkpt lat="47.83383" lon="-3.53559">
        <ele>21.76</ele>
        <time>2020-07-08T10:29:00Z</time>
      </trkpt>
      <trkpt lat="47.83383" lon="-3.53559">
        <ele>21.76</ele>
        <time>2020-07-08T10:29:01Z</time>
      </trkpt>
      <trkpt lat="47.83383" lon="-3.53559">
        <ele>21.76</ele>
        <time>2020-07-08T10:29:02Z</time>
      </trkpt>
      <trkpt lat="47.83383" lon="-3.53559">
        <ele>21.76</ele>
        <time>2020-07-08T10:29:03Z</time>
      </trkpt>
      <trkpt lat="47.83383" lon="-3.53559">
        <ele>21.76</ele>
        <time>2020-07-08T10:29:04Z</time>
      </trkpt>
      <trkpt lat="47.83383" lon="-3.53559">
        <ele>21.76</ele>
        <time>2020-07-08T10:29:05Z</time>
      </trkpt>
      <trkpt lat="47.83383" lon="-3.53559">
        <ele>21.76</ele>
        <time>2020-07-08T10:29:06Z</time>
      </trkpt>
      <trkpt lat="47.83383" lon="-3.53559">
        <ele>21.76</ele>
        <time>2020-07-08T10:29:07Z</time>
      </trkpt>
      <trkpt lat="47.83383" lon="-3.53559">
        <ele>21.76</ele>
        <time>2020-07-08T10:29:08Z</time>
      </trkpt>
      <trkpt lat="47.83383" lon="-3.53559">
        <ele>21.76</ele>
        <time>2020-07-08T10:29:09Z</time>
      </trkpt>
      <trkpt lat="47.83383" lon="-3.53559">
        <ele>21.76</ele>
        <time>2020-07-08T10:29:10Z</time>
      </trkpt>
      <trkpt lat="47.83383" lon="-3.53559">
        <ele>21.76</ele>
        <time>2020-07-08T10:29:11Z</time>
      </trkpt>
      <trkpt lat="47.83383" lon="-3.53559">
        <ele>21.76</ele>
        <time>2020-07-08T10:29:12Z</time>
      </trkpt>
      <trkpt lat="47.83392" lon="-3.53564">
        <ele>21.26</ele>
        <time>2020-07-08T10:29:13Z</time>
      </trkpt>
      <trkpt lat="47.83392" lon="-3.53565">
        <ele>21.1</ele>
        <time>2020-07-08T10:29:14Z</time>
      </trkpt>
      <trkpt lat="47.83393" lon="-3.53565">
        <ele>21.04</ele>
        <time>2020-07-08T10:29:15Z</time>
      </trkpt>
      <trkpt lat="47.83393" lon="-3.53566">
        <ele>21.01</ele>
        <time>2020-07-08T10:29:16Z</time>
      </trkpt>
      <trkpt lat="47.83393" lon="-3.53566">
        <ele>21</ele>
        <time>2020-07-08T10:29:17Z</time>
      </trkpt>
      <trkpt lat="47.83393" lon="-3.53566">
        <ele>21</ele>
        <time>2020-07-08T10:29:18Z</time>
      </trkpt>
      <trkpt lat="47.83393" lon="-3.53566">
        <ele>21</ele>
        <time>2020-07-08T10:29:19Z</time>
      </trkpt>
      <trkpt lat="47.83393" lon="-3.53566">
        <ele>21</ele>
        <time>2020-07-08T10:29:20Z</time>
      </trkpt>
      <trkpt lat="47.83393" lon="-3.53566">
        <ele>21</ele>
        <time>2020-07-08T10:29:21Z</time>
      </trkpt>
      <trkpt lat="47.83393" lon="-3.53566">
        <ele>21</ele>
        <time>2020-07-08T10:29:22Z</time>
      </trkpt>
      <trkpt lat="47.83393" lon="-3.53566">
        <ele>21</ele>
        <time>2020-07-08T10:29:23Z</time>
      </trkpt>
      <trkpt lat="47.83393" lon="-3.53566">
        <ele>21</ele>
        <time>2020-07-08T10:29:24Z</time>
      </trkpt>
      <trkpt lat="47.83393" lon="-3.53566">
        <ele>21</ele>
        <time>2020-07-08T10:29:25Z</time>
      </trkpt>
      <trkpt lat="47.83393" lon="-3.53566">
        <ele>21</ele>
        <time>2020-07-08T10:29:26Z</time>
      </trkpt>
      <trkpt lat="47.83393" lon="-3.53566">
        <ele>21</ele>
        <time>2020-07-08T10:29:27Z</time>
      </trkpt>
      <trkpt lat="47.83393" lon="-3.53566">
        <ele>21</ele>
        <time>2020-07-08T10:29:28Z</time>
      </trkpt>
      <trkpt lat="47.83393" lon="-3.53566">
        <ele>21</ele>
        <time>2020-07-08T10:29:29Z</time>
      </trkpt>
      <trkpt lat="47.83393" lon="-3.53566">
        <ele>21</ele>
        <time>2020-07-08T10:29:30Z</time>
      </trkpt>
      <trkpt lat="47.83393" lon="-3.53566">
        <ele>21</ele>
        <time>2020-07-08T10:29:31Z</time>
      </trkpt>
      <trkpt lat="47.83393" lon="-3.53566">
        <ele>21</ele>
        <time>2020-07-08T10:29:32Z</time>
      </trkpt>
      <trkpt lat="47.83393" lon="-3.53566">
        <ele>21</ele>
        <time>2020-07-08T10:29:33Z</time>
      </trkpt>
      <trkpt lat="47.83393" lon="-3.53566">
        <ele>21</ele>
        <time>2020-07-08T10:29:34Z</time>
      </trkpt>
      <trkpt lat="47.83393" lon="-3.53566">
        <ele>21</ele>
        <time>2020-07-08T10:29:35Z</time>
      </trkpt>
      <trkpt lat="47.83393" lon="-3.53566">
        <ele>21</ele>
        <time>2020-07-08T10:29:36Z</time>
      </trkpt>
      <trkpt lat="47.83393" lon="-3.53566">
        <ele>21</ele>
        <time>2020-07-08T10:29:37Z</time>
      </trkpt>
      <trkpt lat="47.83393" lon="-3.53566">
        <ele>21</ele>
        <time>2020-07-08T10:29:38Z</time>
      </trkpt>
      <trkpt lat="47.83393" lon="-3.53566">
        <ele>21</ele>
        <time>2020-07-08T10:29:39Z</time>
      </trkpt>
      <trkpt lat="47.83393" lon="-3.53566">
        <ele>21</ele>
        <time>2020-07-08T10:29:40Z</time>
      </trkpt>
      <trkpt lat="47.83393" lon="-3.53566">
        <ele>21</ele>
        <time>2020-07-08T10:29:41Z</time>
      </trkpt>
      <trkpt lat="47.83393" lon="-3.53566">
        <ele>21</ele>
        <time>2020-07-08T10:29:42Z</time>
      </trkpt>
      <trkpt lat="47.83393" lon="-3.53566">
        <ele>21</ele>
        <time>2020-07-08T10:29:43Z</time>
      </trkpt>
      <trkpt lat="47.83393" lon="-3.53566">
        <ele>21</ele>
        <time>2020-07-08T10:29:44Z</time>
      </trkpt>
      <trkpt lat="47.83404" lon="-3.53567">
        <ele>20.38</ele>
        <time>2020-07-08T10:29:45Z</time>
      </trkpt>
      <trkpt lat="47.83404" lon="-3.53567">
        <ele>20.18</ele>
        <time>2020-07-08T10:29:46Z</time>
      </trkpt>
      <trkpt lat="47.83405" lon="-3.53566">
        <ele>20.04</ele>
        <time>2020-07-08T10:29:47Z</time>
      </trkpt>
      <trkpt lat="47.83405" lon="-3.53565">
        <ele>19.98</ele>
        <time>2020-07-08T10:29:48Z</time>
      </trkpt>
      <trkpt lat="47.83405" lon="-3.53565">
        <ele>19.96</ele>
        <time>2020-07-08T10:29:49Z</time>
      </trkpt>
      <trkpt lat="47.83405" lon="-3.53565">
        <ele>19.95</ele>
        <time>2020-07-08T10:29:50Z</time>
      </trkpt>
      <trkpt lat="47.83405" lon="-3.53565">
        <ele>19.95</ele>
        <time>2020-07-08T10:29:51Z</time>
      </trkpt>
      <trkpt lat="47.83405" lon="-3.53565">
        <ele>19.95</ele>
        <time>2020-07-08T10:29:52Z</time>
      </trkpt>
      <trkpt lat="47.83405" lon="-3.53565">
        <ele>19.95</ele>
        <time>2020-07-08T10:29:53Z</time>
      </trkpt>
      <trkpt lat="47.83405" lon="-3.53565">
        <ele>19.95</ele>
        <time>2020-07-08T10:29:54Z</time>
      </trkpt>
      <trkpt lat="47.83405" lon="-3.53565">
        <ele>19.95</ele>
        <time>2020-07-08T10:29:55Z</time>
      </trkpt>
      <trkpt lat="47.83405" lon="-3.53565">
        <ele>19.95</ele>
        <time>2020-07-08T10:29:56Z</time>
      </trkpt>
      <trkpt lat="47.83405" lon="-3.53565">
        <ele>19.95</ele>
        <time>2020-07-08T10:29:57Z</time>
      </trkpt>
      <trkpt lat="47.83405" lon="-3.53565">
        <ele>19.95</ele>
        <time>2020-07-08T10:29:58Z</time>
      </trkpt>
      <trkpt lat="47.83405" lon="-3.53565">
        <ele>19.95</ele>
        <time>2020-07-08T10:29:59Z</time>
      </trkpt>
      <trkpt lat="47.83405" lon="-3.53565">
        <ele>19.95</ele>
        <time>2020-07-08T10:30:00Z</time>
      </trkpt>
      <trkpt lat="47.83405" lon="-3.53565">
        <ele>19.95</ele>
        <time>2020-07-08T10:30:01Z</time>
      </trkpt>
      <trkpt lat="47.83405" lon="-3.53565">
        <ele>19.95</ele>
        <time>2020-07-08T10:30:02Z</time>
      </trkpt>
      <trkpt lat="47.83405" lon="-3.53565">
        <ele>19.95</ele>
        <time>2020-07-08T10:30:03Z</time>
      </trkpt>
      <trkpt lat="47.83405" lon="-3.53565">
        <ele>19.95</ele>
        <time>2020-07-08T10:30:04Z</time>
      </trkpt>
      <trkpt lat="47.83405" lon="-3.53565">
        <ele>19.95</ele>
        <time>2020-07-08T10:30:05Z</time>
      </trkpt>
      <trkpt lat="47.83405" lon="-3.53565">
        <ele>19.95</ele>
        <time>2020-07-08T10:30:06Z</time>
      </trkpt>
      <trkpt lat="47.83415" lon="-3.5357">
        <ele>19.41</ele>
        <time>2020-07-08T10:30:07Z</time>
      </trkpt>
      <trkpt lat="47.83415" lon="-3.53572">
        <ele>19.22</ele>
        <time>2020-07-08T10:30:08Z</time>
      </trkpt>
      <trkpt lat="47.83417" lon="-3.53572">
        <ele>19.07</ele>
        <time>2020-07-08T10:30:09Z</time>
      </trkpt>
      <trkpt lat="47.83418" lon="-3.53571">
        <ele>19</ele>
        <time>2020-07-08T10:30:10Z</time>
      </trkpt>
      <trkpt lat="47.83418" lon="-3.53571">
        <ele>18.98</ele>
        <time>2020-07-08T10:30:11Z</time>
      </trkpt>
      <trkpt lat="47.83418" lon="-3.53571">
        <ele>18.97</ele>
        <time>2020-07-08T10:30:12Z</time>
      </trkpt>
      <trkpt lat="47.83418" lon="-3.53571">
        <ele>18.97</ele>
        <time>2020-07-08T10:30:13Z</time>
      </trkpt>
      <trkpt lat="47.83418" lon="-3.53571">
        <ele>18.97</ele>
        <time>2020-07-08T10:30:14Z</time>
      </trkpt>
      <trkpt lat="47.83418" lon="-3.53571">
        <ele>18.97</ele>
        <time>2020-07-08T10:30:15Z</time>
      </trkpt>
      <trkpt lat="47.83418" lon="-3.53571">
        <ele>18.97</ele>
        <time>2020-07-08T10:30:16Z</time>
      </trkpt>
      <trkpt lat="47.83418" lon="-3.53571">
        <ele>18.97</ele>
        <time>2020-07-08T10:30:17Z</time>
      </trkpt>
      <trkpt lat="47.83418" lon="-3.53571">
        <ele>18.97</ele>
        <time>2020-07-08T10:30:18Z</time>
      </trkpt>
      <trkpt lat="47.83418" lon="-3.53571">
        <ele>18.97</ele>
        <time>2020-07-08T10:30:19Z</time>
      </trkpt>
      <trkpt lat="47.83418" lon="-3.53571">
        <ele>18.97</ele>
        <time>2020-07-08T10:30:20Z</time>
      </trkpt>
      <trkpt lat="47.83418" lon="-3.53571">
        <ele>18.97</ele>
        <time>2020-07-08T10:30:21Z</time>
      </trkpt>
      <trkpt lat="47.83418" lon="-3.53571">
        <ele>18.97</ele>
        <time>2020-07-08T10:30:22Z</time>
      </trkpt>
      <trkpt lat="47.83427" lon="-3.53578">
        <ele>18.78</ele>
        <time>2020-07-08T10:30:23Z</time>
      </trkpt>
      <trkpt lat="47.83428" lon="-3.53577">
        <ele>18.72</ele>
        <time>2020-07-08T10:30:24Z</time>
      </trkpt>
      <trkpt lat="47.83428" lon="-3.53577">
        <ele>18.7</ele>
        <time>2020-07-08T10:30:25Z</time>
      </trkpt>
      <trkpt lat="47.83428" lon="-3.53577">
        <ele>18.68</ele>
        <time>2020-07-08T10:30:26Z</time>
      </trkpt>
      <trkpt lat="47.83428" lon="-3.53577">
        <ele>18.68</ele>
        <time>2020-07-08T10:30:27Z</time>
      </trkpt>
      <trkpt lat="47.83428" lon="-3.53577">
        <ele>18.68</ele>
        <time>2020-07-08T10:30:28Z</time>
      </trkpt>
      <trkpt lat="47.83428" lon="-3.53577">
        <ele>18.68</ele>
        <time>2020-07-08T10:30:29Z</time>
      </trkpt>
      <trkpt lat="47.83428" lon="-3.53577">
        <ele>18.68</ele>
        <time>2020-07-08T10:30:30Z</time>
      </trkpt>
      <trkpt lat="47.83428" lon="-3.53577">
        <ele>18.68</ele>
        <time>2020-07-08T10:30:31Z</time>
      </trkpt>
      <trkpt lat="47.83428" lon="-3.53577">
        <ele>18.68</ele>
        <time>2020-07-08T10:30:32Z</time>
      </trkpt>
      <trkpt lat="47.83428" lon="-3.53577">
        <ele>18.68</ele>
        <time>2020-07-08T10:30:33Z</time>
      </trkpt>
      <trkpt lat="47.83428" lon="-3.53577">
        <ele>18.68</ele>
        <time>2020-07-08T10:30:34Z</time>
      </trkpt>
      <trkpt lat="47.83428" lon="-3.53577">
        <ele>18.68</ele>
        <time>2020-07-08T10:30:35Z</time>
      </trkpt>
      <trkpt lat="47.83428" lon="-3.53577">
        <ele>18.68</ele>
        <time>2020-07-08T10:30:36Z</time>
      </trkpt>
      <trkpt lat="47.83428" lon="-3.53577">
        <ele>18.68</ele>
        <time>2020-07-08T10:30:37Z</time>
      </trkpt>
      <trkpt lat="47.83428" lon="-3.53577">
        <ele>18.68</ele>
        <time>2020-07-08T10:30:38Z</time>
      </trkpt>
      <trkpt lat="47.83428" lon="-3.53577">
        <ele>18.68</ele>
        <time>2020-07-08T10:30:39Z</time>
      </trkpt>
      <trkpt lat="47.83428" lon="-3.53577">
        <ele>18.68</ele>
        <time>2020-07-08T10:30:40Z</time>
      </trkpt>
      <trkpt lat="47.83428" lon="-3.53577">
        <ele>18.68</ele>
        <time>2020-07-08T10:30:41Z</time>
      </trkpt>
      <trkpt lat="47.83428" lon="-3.53577">
        <ele>18.68</ele>
        <time>2020-07-08T10:30:42Z</time>
      </trkpt>
      <trkpt lat="47.83428" lon="-3.53577">
        <ele>18.68</ele>
        <time>2020-07-08T10:30:43Z</time>
      </trkpt>
      <trkpt lat="47.83428" lon="-3.53577">
        <ele>18.68</ele>
        <time>2020-07-08T10:30:44Z</time>
      </trkpt>
      <trkpt lat="47.83428" lon="-3.53577">
        <ele>18.68</ele>
        <time>2020-07-08T10:30:45Z</time>
      </trkpt>
      <trkpt lat="47.83428" lon="-3.53577">
        <ele>18.68</ele>
        <time>2020-07-08T10:30:46Z</time>
      </trkpt>
      <trkpt lat="47.83428" lon="-3.53577">
        <ele>18.68</ele>
        <time>2020-07-08T10:30:47Z</time>
      </trkpt>
      <trkpt lat="47.83428" lon="-3.53577">
        <ele>18.68</ele>
        <time>2020-07-08T10:30:48Z</time>
      </trkpt>
      <trkpt lat="47.83428" lon="-3.53577">
        <ele>18.68</ele>
        <time>2020-07-08T10:30:49Z</time>
      </trkpt>
      <trkpt lat="47.83428" lon="-3.53577">
        <ele>18.68</ele>
        <time>2020-07-08T10:30:50Z</time>
      </trkpt>
      <trkpt lat="47.83428" lon="-3.53577">
        <ele>18.68</ele>
        <time>2020-07-08T10:30:51Z</time>
      </trkpt>
      <trkpt lat="47.83428" lon="-3.53577">
        <ele>18.68</ele>
        <time>2020-07-08T10:30:52Z</time>
      </trkpt>
      <trkpt lat="47.83428" lon="-3.53577">
        <ele>18.68</ele>
        <time>2020-07-08T10:30:53Z</time>
      </trkpt>
      <trkpt lat="47.83428" lon="-3.53577">
        <ele>18.68</ele>
        <time>2020-07-08T10:30:54Z</time>
      </trkpt>
      <trkpt lat="47.83428" lon="-3.53577">
        <ele>18.68</ele>
        <time>2020-07-08T10:30:55Z</time>
      </trkpt>
      <trkpt lat="47.83428" lon="-3.53577">
        <ele>18.68</ele>
        <time>2020-07-08T10:30:56Z</time>
      </trkpt>
      <trkpt lat="47.83438" lon="-3.53574">
        <ele>18.56</ele>
        <time>2020-07-08T10:30:57Z</time>
      </trkpt>
      <trkpt lat="47.83438" lon="-3.53575">
        <ele>18.5</ele>
        <time>2020-07-08T10:30:58Z</time>
      </trkpt>
      <trkpt lat="47.83439" lon="-3.53575">
        <ele>18.45</ele>
        <time>2020-07-08T10:30:59Z</time>
      </trkpt>
      <trkpt lat="47.8344" lon="-3.53576">
        <ele>18.42</ele>
        <time>2020-07-08T10:31:00Z</time>
      </trkpt>
      <trkpt lat="47.8344" lon="-3.53576">
        <ele>18.4</ele>
        <time>2020-07-08T10:31:01Z</time>
      </trkpt>
      <trkpt lat="47.8344" lon="-3.53576">
        <ele>18.4</ele>
        <time>2020-07-08T10:31:02Z</time>
      </trkpt>
      <trkpt lat="47.8344" lon="-3.53576">
        <ele>18.4</ele>
        <time>2020-07-08T10:31:03Z</time>
      </trkpt>
      <trkpt lat="47.8344" lon="-3.53576">
        <ele>18.4</ele>
        <time>2020-07-08T10:31:04Z</time>
      </trkpt>
      <trkpt lat="47.83445" lon="-3.53582">
        <ele>18.13</ele>
        <time>2020-07-08T10:31:05Z</time>
      </trkpt>
      <trkpt lat="47.83445" lon="-3.53584">
        <ele>18.01</ele>
        <time>2020-07-08T10:31:06Z</time>
      </trkpt>
      <trkpt lat="47.83446" lon="-3.53585">
        <ele>17.93</ele>
        <time>2020-07-08T10:31:07Z</time>
      </trkpt>
      <trkpt lat="47.83447" lon="-3.53585">
        <ele>17.87</ele>
        <time>2020-07-08T10:31:08Z</time>
      </trkpt>
      <trkpt lat="47.83447" lon="-3.53585">
        <ele>17.86</ele>
        <time>2020-07-08T10:31:09Z</time>
      </trkpt>
      <trkpt lat="47.83449" lon="-3.53585">
        <ele>17.8</ele>
        <time>2020-07-08T10:31:10Z</time>
      </trkpt>
      <trkpt lat="47.8345" lon="-3.53585">
        <ele>17.77</ele>
        <time>2020-07-08T10:31:11Z</time>
      </trkpt>
      <trkpt lat="47.83451" lon="-3.53585">
        <ele>17.72</ele>
        <time>2020-07-08T10:31:12Z</time>
      </trkpt>
      <trkpt lat="47.83451" lon="-3.53586">
        <ele>17.69</ele>
        <time>2020-07-08T10:31:13Z</time>
      </trkpt>
      <trkpt lat="47.83451" lon="-3.53586">
        <ele>17.67</ele>
        <time>2020-07-08T10:31:14Z</time>
      </trkpt>
      <trkpt lat="47.83452" lon="-3.53585">
        <ele>17.65</ele>
        <time>2020-07-08T10:31:15Z</time>
      </trkpt>
      <trkpt lat="47.83453" lon="-3.53584">
        <ele>17.66</ele>
        <time>2020-07-08T10:31:16Z</time>
      </trkpt>
      <trkpt lat="47.83453" lon="-3.53584">
        <ele>17.67</ele>
        <time>2020-07-08T10:31:17Z</time>
      </trkpt>
      <trkpt lat="47.83456" lon="-3.53583">
        <ele>17.62</ele>
        <time>2020-07-08T10:31:18Z</time>
      </trkpt>
      <trkpt lat="47.83457" lon="-3.53582">
        <ele>17.57</ele>
        <time>2020-07-08T10:31:19Z</time>
      </trkpt>
      <trkpt lat="47.83458" lon="-3.53583">
        <ele>17.54</ele>
        <time>2020-07-08T10:31:20Z</time>
      </trkpt>
      <trkpt lat="47.83458" lon="-3.53582">
        <ele>17.54</ele>
        <time>2020-07-08T10:31:21Z</time>
      </trkpt>
      <trkpt lat="47.83457" lon="-3.53582">
        <ele>17.55</ele>
        <time>2020-07-08T10:31:22Z</time>
      </trkpt>
      <trkpt lat="47.83457" lon="-3.53582">
        <ele>17.55</ele>
        <time>2020-07-08T10:31:23Z</time>
      </trkpt>
      <trkpt lat="47.83457" lon="-3.53582">
        <ele>17.56</ele>
        <time>2020-07-08T10:31:24Z</time>
      </trkpt>
      <trkpt lat="47.83457" lon="-3.53582">
        <ele>17.56</ele>
        <time>2020-07-08T10:31:25Z</time>
      </trkpt>
      <trkpt lat="47.83457" lon="-3.53582">
        <ele>17.56</ele>
        <time>2020-07-08T10:31:26Z</time>
      </trkpt>
      <trkpt lat="47.83457" lon="-3.53582">
        <ele>17.56</ele>
        <time>2020-07-08T10:31:27Z</time>
      </trkpt>
      <trkpt lat="47.83457" lon="-3.53582">
        <ele>17.56</ele>
        <time>2020-07-08T10:31:28Z</time>
      </trkpt>
      <trkpt lat="47.83457" lon="-3.53582">
        <ele>17.56</ele>
        <time>2020-07-08T10:31:29Z</time>
      </trkpt>
      <trkpt lat="47.83457" lon="-3.53582">
        <ele>17.56</ele>
        <time>2020-07-08T10:31:30Z</time>
      </trkpt>
      <trkpt lat="47.83457" lon="-3.53582">
        <ele>17.56</ele>
        <time>2020-07-08T10:31:31Z</time>
      </trkpt>
      <trkpt lat="47.83457" lon="-3.53582">
        <ele>17.56</ele>
        <time>2020-07-08T10:31:32Z</time>
      </trkpt>
      <trkpt lat="47.83457" lon="-3.53582">
        <ele>17.56</ele>
        <time>2020-07-08T10:31:33Z</time>
      </trkpt>
      <trkpt lat="47.83457" lon="-3.53582">
        <ele>17.56</ele>
        <time>2020-07-08T10:31:34Z</time>
      </trkpt>
      <trkpt lat="47.83457" lon="-3.53582">
        <ele>17.56</ele>
        <time>2020-07-08T10:31:35Z</time>
      </trkpt>
      <trkpt lat="47.83457" lon="-3.53582">
        <ele>17.56</ele>
        <time>2020-07-08T10:31:36Z</time>
      </trkpt>
      <trkpt lat="47.83457" lon="-3.53582">
        <ele>17.56</ele>
        <time>2020-07-08T10:31:37Z</time>
      </trkpt>
      <trkpt lat="47.83457" lon="-3.53582">
        <ele>17.56</ele>
        <time>2020-07-08T10:31:38Z</time>
      </trkpt>
      <trkpt lat="47.83457" lon="-3.53582">
        <ele>17.56</ele>
        <time>2020-07-08T10:31:39Z</time>
      </trkpt>
      <trkpt lat="47.83457" lon="-3.53582">
        <ele>17.56</ele>
        <time>2020-07-08T10:31:40Z</time>
      </trkpt>
      <trkpt lat="47.83457" lon="-3.53582">
        <ele>17.56</ele>
        <time>2020-07-08T10:31:41Z</time>
      </trkpt>
      <trkpt lat="47.83457" lon="-3.53582">
        <ele>17.56</ele>
        <time>2020-07-08T10:31:42Z</time>
      </trkpt>
      <trkpt lat="47.83465" lon="-3.53574">
        <ele>17.4</ele>
        <time>2020-07-08T10:31:43Z</time>
      </trkpt>
      <trkpt lat="47.83467" lon="-3.53574">
        <ele>17.28</ele>
        <time>2020-07-08T10:31:44Z</time>
      </trkpt>
      <trkpt lat="47.8347" lon="-3.53573">
        <ele>17.15</ele>
        <time>2020-07-08T10:31:45Z</time>
      </trkpt>
      <trkpt lat="47.83473" lon="-3.53572">
        <ele>17.01</ele>
        <time>2020-07-08T10:31:46Z</time>
      </trkpt>
      <trkpt lat="47.83476" lon="-3.5357">
        <ele>16.87</ele>
        <time>2020-07-08T10:31:47Z</time>
      </trkpt>
      <trkpt lat="47.83478" lon="-3.53569">
        <ele>16.75</ele>
        <time>2020-07-08T10:31:48Z</time>
      </trkpt>
      <trkpt lat="47.8348" lon="-3.53567">
        <ele>16.62</ele>
        <time>2020-07-08T10:31:49Z</time>
      </trkpt>
      <trkpt lat="47.83481" lon="-3.53565">
        <ele>16.52</ele>
        <time>2020-07-08T10:31:50Z</time>
      </trkpt>
      <trkpt lat="47.83482" lon="-3.53562">
        <ele>16.42</ele>
        <time>2020-07-08T10:31:51Z</time>
      </trkpt>
      <trkpt lat="47.83483" lon="-3.53561">
        <ele>16.33</ele>
        <time>2020-07-08T10:31:52Z</time>
      </trkpt>
      <trkpt lat="47.83484" lon="-3.53558">
        <ele>16.24</ele>
        <time>2020-07-08T10:31:53Z</time>
      </trkpt>
      <trkpt lat="47.83485" lon="-3.53554">
        <ele>16.2</ele>
        <time>2020-07-08T10:31:54Z</time>
      </trkpt>
      <trkpt lat="47.83485" lon="-3.53551">
        <ele>16.29</ele>
        <time>2020-07-08T10:31:55Z</time>
      </trkpt>
      <trkpt lat="47.83486" lon="-3.53546">
        <ele>16.42</ele>
        <time>2020-07-08T10:31:56Z</time>
      </trkpt>
      <trkpt lat="47.83487" lon="-3.53541">
        <ele>16.62</ele>
        <time>2020-07-08T10:31:57Z</time>
      </trkpt>
      <trkpt lat="47.83488" lon="-3.53536">
        <ele>16.82</ele>
        <time>2020-07-08T10:31:58Z</time>
      </trkpt>
      <trkpt lat="47.83489" lon="-3.53531">
        <ele>17</ele>
        <time>2020-07-08T10:31:59Z</time>
      </trkpt>
      <trkpt lat="47.8349" lon="-3.53525">
        <ele>17.16</ele>
        <time>2020-07-08T10:32:00Z</time>
      </trkpt>
      <trkpt lat="47.8349" lon="-3.53519">
        <ele>17.29</ele>
        <time>2020-07-08T10:32:01Z</time>
      </trkpt>
      <trkpt lat="47.83491" lon="-3.53514">
        <ele>17.42</ele>
        <time>2020-07-08T10:32:02Z</time>
      </trkpt>
      <trkpt lat="47.83492" lon="-3.53508">
        <ele>17.56</ele>
        <time>2020-07-08T10:32:03Z</time>
      </trkpt>
      <trkpt lat="47.83492" lon="-3.53502">
        <ele>17.71</ele>
        <time>2020-07-08T10:32:04Z</time>
      </trkpt>
      <trkpt lat="47.83493" lon="-3.53497">
        <ele>17.85</ele>
        <time>2020-07-08T10:32:05Z</time>
      </trkpt>
      <trkpt lat="47.83493" lon="-3.53493">
        <ele>17.94</ele>
        <time>2020-07-08T10:32:06Z</time>
      </trkpt>
      <trkpt lat="47.83495" lon="-3.53487">
        <ele>18</ele>
        <time>2020-07-08T10:32:07Z</time>
      </trkpt>
      <trkpt lat="47.83496" lon="-3.53482">
        <ele>18.07</ele>
        <time>2020-07-08T10:32:08Z</time>
      </trkpt>
      <trkpt lat="47.83497" lon="-3.53477">
        <ele>18.12</ele>
        <time>2020-07-08T10:32:09Z</time>
      </trkpt>
      <trkpt lat="47.83498" lon="-3.53471">
        <ele>18.24</ele>
        <time>2020-07-08T10:32:10Z</time>
      </trkpt>
      <trkpt lat="47.83499" lon="-3.53466">
        <ele>18.5</ele>
        <time>2020-07-08T10:32:11Z</time>
      </trkpt>
      <trkpt lat="47.83499" lon="-3.5346">
        <ele>18.82</ele>
        <time>2020-07-08T10:32:12Z</time>
      </trkpt>
      <trkpt lat="47.835" lon="-3.53455">
        <ele>19.12</ele>
        <time>2020-07-08T10:32:13Z</time>
      </trkpt>
      <trkpt lat="47.83501" lon="-3.5345">
        <ele>19.43</ele>
        <time>2020-07-08T10:32:14Z</time>
      </trkpt>
      <trkpt lat="47.83501" lon="-3.53445">
        <ele>19.78</ele>
        <time>2020-07-08T10:32:15Z</time>
      </trkpt>
      <trkpt lat="47.83502" lon="-3.5344">
        <ele>20.12</ele>
        <time>2020-07-08T10:32:16Z</time>
      </trkpt>
      <trkpt lat="47.83503" lon="-3.53435">
        <ele>20.45</ele>
        <time>2020-07-08T10:32:17Z</time>
      </trkpt>
      <trkpt lat="47.83504" lon="-3.5343">
        <ele>20.78</ele>
        <time>2020-07-08T10:32:18Z</time>
      </trkpt>
      <trkpt lat="47.83506" lon="-3.53426">
        <ele>21.14</ele>
        <time>2020-07-08T10:32:19Z</time>
      </trkpt>
      <trkpt lat="47.83506" lon="-3.53421">
        <ele>21.49</ele>
        <time>2020-07-08T10:32:20Z</time>
      </trkpt>
      <trkpt lat="47.83508" lon="-3.53417">
        <ele>21.82</ele>
        <time>2020-07-08T10:32:21Z</time>
      </trkpt>
      <trkpt lat="47.83509" lon="-3.53414">
        <ele>22.14</ele>
        <time>2020-07-08T10:32:22Z</time>
      </trkpt>
      <trkpt lat="47.83511" lon="-3.53411">
        <ele>22.43</ele>
        <time>2020-07-08T10:32:23Z</time>
      </trkpt>
      <trkpt lat="47.83514" lon="-3.53407">
        <ele>22.72</ele>
        <time>2020-07-08T10:32:24Z</time>
      </trkpt>
      <trkpt lat="47.83516" lon="-3.53404">
        <ele>22.98</ele>
        <time>2020-07-08T10:32:25Z</time>
      </trkpt>
      <trkpt lat="47.83518" lon="-3.53401">
        <ele>23.24</ele>
        <time>2020-07-08T10:32:26Z</time>
      </trkpt>
      <trkpt lat="47.8352" lon="-3.53398">
        <ele>23.43</ele>
        <time>2020-07-08T10:32:27Z</time>
      </trkpt>
      <trkpt lat="47.83523" lon="-3.53396">
        <ele>23.55</ele>
        <time>2020-07-08T10:32:28Z</time>
      </trkpt>
      <trkpt lat="47.83525" lon="-3.53394">
        <ele>23.65</ele>
        <time>2020-07-08T10:32:29Z</time>
      </trkpt>
      <trkpt lat="47.83528" lon="-3.53392">
        <ele>23.74</ele>
        <time>2020-07-08T10:32:30Z</time>
      </trkpt>
      <trkpt lat="47.83531" lon="-3.5339">
        <ele>24.01</ele>
        <time>2020-07-08T10:32:31Z</time>
      </trkpt>
      <trkpt lat="47.83533" lon="-3.53388">
        <ele>24.4</ele>
        <time>2020-07-08T10:32:32Z</time>
      </trkpt>
      <trkpt lat="47.83536" lon="-3.53386">
        <ele>24.94</ele>
        <time>2020-07-08T10:32:33Z</time>
      </trkpt>
      <trkpt lat="47.83539" lon="-3.53384">
        <ele>25.52</ele>
        <time>2020-07-08T10:32:34Z</time>
      </trkpt>
      <trkpt lat="47.83542" lon="-3.53382">
        <ele>26.04</ele>
        <time>2020-07-08T10:32:35Z</time>
      </trkpt>
      <trkpt lat="47.83544" lon="-3.5338">
        <ele>26.57</ele>
        <time>2020-07-08T10:32:36Z</time>
      </trkpt>
      <trkpt lat="47.83546" lon="-3.53378">
        <ele>27.13</ele>
        <time>2020-07-08T10:32:37Z</time>
      </trkpt>
      <trkpt lat="47.83549" lon="-3.53376">
        <ele>27.67</ele>
        <time>2020-07-08T10:32:38Z</time>
      </trkpt>
      <trkpt lat="47.83552" lon="-3.53374">
        <ele>28.17</ele>
        <time>2020-07-08T10:32:39Z</time>
      </trkpt>
      <trkpt lat="47.83554" lon="-3.53373">
        <ele>28.62</ele>
        <time>2020-07-08T10:32:40Z</time>
      </trkpt>
      <trkpt lat="47.83556" lon="-3.53371">
        <ele>28.98</ele>
        <time>2020-07-08T10:32:41Z</time>
      </trkpt>
      <trkpt lat="47.83559" lon="-3.53369">
        <ele>29.37</ele>
        <time>2020-07-08T10:32:42Z</time>
      </trkpt>
      <trkpt lat="47.83563" lon="-3.53368">
        <ele>29.65</ele>
        <time>2020-07-08T10:32:43Z</time>
      </trkpt>
      <trkpt lat="47.83566" lon="-3.53368">
        <ele>29.79</ele>
        <time>2020-07-08T10:32:44Z</time>
      </trkpt>
      <trkpt lat="47.83569" lon="-3.53368">
        <ele>29.87</ele>
        <time>2020-07-08T10:32:45Z</time>
      </trkpt>
      <trkpt lat="47.83572" lon="-3.53369">
        <ele>29.76</ele>
        <time>2020-07-08T10:32:46Z</time>
      </trkpt>
      <trkpt lat="47.83574" lon="-3.53371">
        <ele>29.58</ele>
        <time>2020-07-08T10:32:47Z</time>
      </trkpt>
      <trkpt lat="47.83576" lon="-3.53373">
        <ele>29.31</ele>
        <time>2020-07-08T10:32:48Z</time>
      </trkpt>
      <trkpt lat="47.83577" lon="-3.53375">
        <ele>28.96</ele>
        <time>2020-07-08T10:32:49Z</time>
      </trkpt>
      <trkpt lat="47.83578" lon="-3.53378">
        <ele>28.56</ele>
        <time>2020-07-08T10:32:50Z</time>
      </trkpt>
      <trkpt lat="47.83578" lon="-3.53381">
        <ele>28.13</ele>
        <time>2020-07-08T10:32:51Z</time>
      </trkpt>
      <trkpt lat="47.83578" lon="-3.53384">
        <ele>27.73</ele>
        <time>2020-07-08T10:32:52Z</time>
      </trkpt>
      <trkpt lat="47.8358" lon="-3.53387">
        <ele>27.34</ele>
        <time>2020-07-08T10:32:53Z</time>
      </trkpt>
      <trkpt lat="47.83582" lon="-3.5339">
        <ele>27</ele>
        <time>2020-07-08T10:32:54Z</time>
      </trkpt>
      <trkpt lat="47.83583" lon="-3.53393">
        <ele>26.63</ele>
        <time>2020-07-08T10:32:55Z</time>
      </trkpt>
      <trkpt lat="47.83583" lon="-3.53396">
        <ele>26.14</ele>
        <time>2020-07-08T10:32:56Z</time>
      </trkpt>
      <trkpt lat="47.83586" lon="-3.534">
        <ele>25.65</ele>
        <time>2020-07-08T10:32:57Z</time>
      </trkpt>
      <trkpt lat="47.83588" lon="-3.53405">
        <ele>25.04</ele>
        <time>2020-07-08T10:32:58Z</time>
      </trkpt>
      <trkpt lat="47.83592" lon="-3.5341">
        <ele>24.55</ele>
        <time>2020-07-08T10:32:59Z</time>
      </trkpt>
      <trkpt lat="47.83596" lon="-3.53414">
        <ele>23.99</ele>
        <time>2020-07-08T10:33:00Z</time>
      </trkpt>
      <trkpt lat="47.83599" lon="-3.5342">
        <ele>23.5</ele>
        <time>2020-07-08T10:33:01Z</time>
      </trkpt>
      <trkpt lat="47.83604" lon="-3.53425">
        <ele>23.09</ele>
        <time>2020-07-08T10:33:02Z</time>
      </trkpt>
      <trkpt lat="47.83608" lon="-3.5343">
        <ele>22.68</ele>
        <time>2020-07-08T10:33:03Z</time>
      </trkpt>
      <trkpt lat="47.83612" lon="-3.53435">
        <ele>22.29</ele>
        <time>2020-07-08T10:33:04Z</time>
      </trkpt>
      <trkpt lat="47.83617" lon="-3.53439">
        <ele>21.95</ele>
        <time>2020-07-08T10:33:05Z</time>
      </trkpt>
      <trkpt lat="47.83622" lon="-3.53443">
        <ele>21.66</ele>
        <time>2020-07-08T10:33:06Z</time>
      </trkpt>
      <trkpt lat="47.83625" lon="-3.53447">
        <ele>21.51</ele>
        <time>2020-07-08T10:33:07Z</time>
      </trkpt>
      <trkpt lat="47.83629" lon="-3.5345">
        <ele>21.49</ele>
        <time>2020-07-08T10:33:08Z</time>
      </trkpt>
      <trkpt lat="47.83632" lon="-3.53452">
        <ele>21.49</ele>
        <time>2020-07-08T10:33:09Z</time>
      </trkpt>
      <trkpt lat="47.83635" lon="-3.53454">
        <ele>21.5</ele>
        <time>2020-07-08T10:33:10Z</time>
      </trkpt>
      <trkpt lat="47.83637" lon="-3.53457">
        <ele>21.48</ele>
        <time>2020-07-08T10:33:11Z</time>
      </trkpt>
      <trkpt lat="47.8364" lon="-3.53461">
        <ele>21.43</ele>
        <time>2020-07-08T10:33:12Z</time>
      </trkpt>
      <trkpt lat="47.83645" lon="-3.53464">
        <ele>21.38</ele>
        <time>2020-07-08T10:33:13Z</time>
      </trkpt>
      <trkpt lat="47.83649" lon="-3.53468">
        <ele>21.26</ele>
        <time>2020-07-08T10:33:14Z</time>
      </trkpt>
      <trkpt lat="47.83652" lon="-3.53472">
        <ele>21.1</ele>
        <time>2020-07-08T10:33:15Z</time>
      </trkpt>
      <trkpt lat="47.83656" lon="-3.53476">
        <ele>20.83</ele>
        <time>2020-07-08T10:33:16Z</time>
      </trkpt>
      <trkpt lat="47.83661" lon="-3.53479">
        <ele>20.59</ele>
        <time>2020-07-08T10:33:17Z</time>
      </trkpt>
      <trkpt lat="47.83667" lon="-3.53483">
        <ele>20.35</ele>
        <time>2020-07-08T10:33:18Z</time>
      </trkpt>
      <trkpt lat="47.83673" lon="-3.53486">
        <ele>20.03</ele>
        <time>2020-07-08T10:33:19Z</time>
      </trkpt>
      <trkpt lat="47.83678" lon="-3.5349">
        <ele>19.7</ele>
        <time>2020-07-08T10:33:20Z</time>
      </trkpt>
      <trkpt lat="47.83683" lon="-3.53495">
        <ele>19.38</ele>
        <time>2020-07-08T10:33:21Z</time>
      </trkpt>
      <trkpt lat="47.83687" lon="-3.535">
        <ele>19.12</ele>
        <time>2020-07-08T10:33:22Z</time>
      </trkpt>
      <trkpt lat="47.83691" lon="-3.53504">
        <ele>18.84</ele>
        <time>2020-07-08T10:33:23Z</time>
      </trkpt>
      <trkpt lat="47.83695" lon="-3.53507">
        <ele>18.58</ele>
        <time>2020-07-08T10:33:24Z</time>
      </trkpt>
      <trkpt lat="47.83699" lon="-3.5351">
        <ele>18.3</ele>
        <time>2020-07-08T10:33:25Z</time>
      </trkpt>
      <trkpt lat="47.83703" lon="-3.53513">
        <ele>18.03</ele>
        <time>2020-07-08T10:33:26Z</time>
      </trkpt>
      <trkpt lat="47.83708" lon="-3.53516">
        <ele>17.77</ele>
        <time>2020-07-08T10:33:27Z</time>
      </trkpt>
      <trkpt lat="47.83714" lon="-3.53519">
        <ele>17.52</ele>
        <time>2020-07-08T10:33:28Z</time>
      </trkpt>
      <trkpt lat="47.8372" lon="-3.53522">
        <ele>17.3</ele>
        <time>2020-07-08T10:33:29Z</time>
      </trkpt>
      <trkpt lat="47.83727" lon="-3.53525">
        <ele>17.06</ele>
        <time>2020-07-08T10:33:30Z</time>
      </trkpt>
      <trkpt lat="47.83733" lon="-3.53526">
        <ele>16.79</ele>
        <time>2020-07-08T10:33:31Z</time>
      </trkpt>
      <trkpt lat="47.83738" lon="-3.53528">
        <ele>16.5</ele>
        <time>2020-07-08T10:33:32Z</time>
      </trkpt>
      <trkpt lat="47.83741" lon="-3.53529">
        <ele>16.27</ele>
        <time>2020-07-08T10:33:33Z</time>
      </trkpt>
      <trkpt lat="47.83741" lon="-3.5353">
        <ele>16.11</ele>
        <time>2020-07-08T10:33:34Z</time>
      </trkpt>
      <trkpt lat="47.83742" lon="-3.53531">
        <ele>15.98</ele>
        <time>2020-07-08T10:33:35Z</time>
      </trkpt>
      <trkpt lat="47.83741" lon="-3.53531">
        <ele>15.96</ele>
        <time>2020-07-08T10:33:36Z</time>
      </trkpt>
      <trkpt lat="47.83741" lon="-3.53532">
        <ele>15.94</ele>
        <time>2020-07-08T10:33:37Z</time>
      </trkpt>
      <trkpt lat="47.83741" lon="-3.53532">
        <ele>15.94</ele>
        <time>2020-07-08T10:33:38Z</time>
      </trkpt>
      <trkpt lat="47.83741" lon="-3.53532">
        <ele>15.93</ele>
        <time>2020-07-08T10:33:39Z</time>
      </trkpt>
      <trkpt lat="47.83741" lon="-3.53532">
        <ele>15.93</ele>
        <time>2020-07-08T10:33:40Z</time>
      </trkpt>
      <trkpt lat="47.83741" lon="-3.53532">
        <ele>15.93</ele>
        <time>2020-07-08T10:33:41Z</time>
      </trkpt>
      <trkpt lat="47.83747" lon="-3.53532">
        <ele>15.78</ele>
        <time>2020-07-08T10:33:42Z</time>
      </trkpt>
      <trkpt lat="47.83749" lon="-3.53531">
        <ele>15.7</ele>
        <time>2020-07-08T10:33:43Z</time>
      </trkpt>
      <trkpt lat="47.83752" lon="-3.53531">
        <ele>15.58</ele>
        <time>2020-07-08T10:33:44Z</time>
      </trkpt>
      <trkpt lat="47.83756" lon="-3.5353">
        <ele>15.4</ele>
        <time>2020-07-08T10:33:45Z</time>
      </trkpt>
      <trkpt lat="47.83759" lon="-3.53529">
        <ele>15.25</ele>
        <time>2020-07-08T10:33:46Z</time>
      </trkpt>
      <trkpt lat="47.83763" lon="-3.53528">
        <ele>15.09</ele>
        <time>2020-07-08T10:33:47Z</time>
      </trkpt>
      <trkpt lat="47.83767" lon="-3.53527">
        <ele>14.93</ele>
        <time>2020-07-08T10:33:48Z</time>
      </trkpt>
      <trkpt lat="47.83771" lon="-3.53525">
        <ele>14.75</ele>
        <time>2020-07-08T10:33:49Z</time>
      </trkpt>
      <trkpt lat="47.83776" lon="-3.53523">
        <ele>14.56</ele>
        <time>2020-07-08T10:33:50Z</time>
      </trkpt>
      <trkpt lat="47.8378" lon="-3.53521">
        <ele>14.33</ele>
        <time>2020-07-08T10:33:51Z</time>
      </trkpt>
      <trkpt lat="47.83784" lon="-3.53517">
        <ele>14.07</ele>
        <time>2020-07-08T10:33:52Z</time>
      </trkpt>
      <trkpt lat="47.83788" lon="-3.53514">
        <ele>13.8</ele>
        <time>2020-07-08T10:33:53Z</time>
      </trkpt>
      <trkpt lat="47.83792" lon="-3.5351">
        <ele>13.56</ele>
        <time>2020-07-08T10:33:54Z</time>
      </trkpt>
      <trkpt lat="47.83795" lon="-3.53505">
        <ele>13.34</ele>
        <time>2020-07-08T10:33:55Z</time>
      </trkpt>
      <trkpt lat="47.83798" lon="-3.53501">
        <ele>13.1</ele>
        <time>2020-07-08T10:33:56Z</time>
      </trkpt>
      <trkpt lat="47.83801" lon="-3.53498">
        <ele>12.89</ele>
        <time>2020-07-08T10:33:57Z</time>
      </trkpt>
      <trkpt lat="47.83803" lon="-3.53495">
        <ele>12.73</ele>
        <time>2020-07-08T10:33:58Z</time>
      </trkpt>
      <trkpt lat="47.83806" lon="-3.53491">
        <ele>12.58</ele>
        <time>2020-07-08T10:33:59Z</time>
      </trkpt>
      <trkpt lat="47.83809" lon="-3.53487">
        <ele>12.54</ele>
        <time>2020-07-08T10:34:00Z</time>
      </trkpt>
      <trkpt lat="47.83812" lon="-3.53482">
        <ele>12.53</ele>
        <time>2020-07-08T10:34:01Z</time>
      </trkpt>
      <trkpt lat="47.83815" lon="-3.53477">
        <ele>12.61</ele>
        <time>2020-07-08T10:34:02Z</time>
      </trkpt>
      <trkpt lat="47.83818" lon="-3.53472">
        <ele>12.69</ele>
        <time>2020-07-08T10:34:03Z</time>
      </trkpt>
      <trkpt lat="47.83822" lon="-3.53466">
        <ele>12.78</ele>
        <time>2020-07-08T10:34:04Z</time>
      </trkpt>
      <trkpt lat="47.83827" lon="-3.53459">
        <ele>12.93</ele>
        <time>2020-07-08T10:34:05Z</time>
      </trkpt>
      <trkpt lat="47.83832" lon="-3.53453">
        <ele>13.12</ele>
        <time>2020-07-08T10:34:06Z</time>
      </trkpt>
      <trkpt lat="47.83837" lon="-3.53445">
        <ele>13.29</ele>
        <time>2020-07-08T10:34:07Z</time>
      </trkpt>
      <trkpt lat="47.83841" lon="-3.53438">
        <ele>13.29</ele>
        <time>2020-07-08T10:34:08Z</time>
      </trkpt>
      <trkpt lat="47.83847" lon="-3.53433">
        <ele>13.11</ele>
        <time>2020-07-08T10:34:09Z</time>
      </trkpt>
      <trkpt lat="47.83851" lon="-3.53429">
        <ele>12.89</ele>
        <time>2020-07-08T10:34:10Z</time>
      </trkpt>
      <trkpt lat="47.83856" lon="-3.53424">
        <ele>12.82</ele>
        <time>2020-07-08T10:34:11Z</time>
      </trkpt>
      <trkpt lat="47.8386" lon="-3.53417">
        <ele>13.03</ele>
        <time>2020-07-08T10:34:12Z</time>
      </trkpt>
      <trkpt lat="47.83862" lon="-3.5341">
        <ele>13.34</ele>
        <time>2020-07-08T10:34:13Z</time>
      </trkpt>
      <trkpt lat="47.83865" lon="-3.53403">
        <ele>13.39</ele>
        <time>2020-07-08T10:34:14Z</time>
      </trkpt>
      <trkpt lat="47.83868" lon="-3.53396">
        <ele>13.54</ele>
        <time>2020-07-08T10:34:15Z</time>
      </trkpt>
      <trkpt lat="47.8387" lon="-3.5339">
        <ele>13.64</ele>
        <time>2020-07-08T10:34:16Z</time>
      </trkpt>
      <trkpt lat="47.83873" lon="-3.53384">
        <ele>13.41</ele>
        <time>2020-07-08T10:34:17Z</time>
      </trkpt>
      <trkpt lat="47.83878" lon="-3.5338">
        <ele>12.85</ele>
        <time>2020-07-08T10:34:18Z</time>
      </trkpt>
      <trkpt lat="47.83882" lon="-3.53375">
        <ele>12.31</ele>
        <time>2020-07-08T10:34:19Z</time>
      </trkpt>
      <trkpt lat="47.83885" lon="-3.53372">
        <ele>11.79</ele>
        <time>2020-07-08T10:34:20Z</time>
      </trkpt>
      <trkpt lat="47.83889" lon="-3.53371">
        <ele>11.25</ele>
        <time>2020-07-08T10:34:21Z</time>
      </trkpt>
      <trkpt lat="47.8389" lon="-3.53368">
        <ele>11.12</ele>
        <time>2020-07-08T10:34:22Z</time>
      </trkpt>
      <trkpt lat="47.83891" lon="-3.53365">
        <ele>11.12</ele>
        <time>2020-07-08T10:34:23Z</time>
      </trkpt>
      <trkpt lat="47.83892" lon="-3.53364">
        <ele>11.12</ele>
        <time>2020-07-08T10:34:24Z</time>
      </trkpt>
      <trkpt lat="47.83893" lon="-3.53364">
        <ele>11.11</ele>
        <time>2020-07-08T10:34:25Z</time>
      </trkpt>
      <trkpt lat="47.83893" lon="-3.53364">
        <ele>11.1</ele>
        <time>2020-07-08T10:34:26Z</time>
      </trkpt>
      <trkpt lat="47.83893" lon="-3.53364">
        <ele>11.1</ele>
        <time>2020-07-08T10:34:27Z</time>
      </trkpt>
      <trkpt lat="47.83893" lon="-3.53364">
        <ele>11.1</ele>
        <time>2020-07-08T10:34:28Z</time>
      </trkpt>
      <trkpt lat="47.83893" lon="-3.53364">
        <ele>11.1</ele>
        <time>2020-07-08T10:34:29Z</time>
      </trkpt>
      <trkpt lat="47.83893" lon="-3.53364">
        <ele>11.1</ele>
        <time>2020-07-08T10:34:30Z</time>
      </trkpt>
      <trkpt lat="47.83893" lon="-3.53364">
        <ele>11.1</ele>
        <time>2020-07-08T10:34:31Z</time>
      </trkpt>
      <trkpt lat="47.83893" lon="-3.53364">
        <ele>11.1</ele>
        <time>2020-07-08T10:34:33Z</time>
      </trkpt>
      <trkpt lat="47.83893" lon="-3.53364">
        <ele>11.1</ele>
        <time>2020-07-08T10:34:34Z</time>
      </trkpt>
      <trkpt lat="47.83893" lon="-3.53364">
        <ele>11.1</ele>
        <time>2020-07-08T10:34:35Z</time>
      </trkpt>
      <trkpt lat="47.83893" lon="-3.53364">
        <ele>11.1</ele>
        <time>2020-07-08T10:34:36Z</time>
      </trkpt>
      <trkpt lat="47.83893" lon="-3.53364">
        <ele>11.1</ele>
        <time>2020-07-08T10:34:37Z</time>
      </trkpt>
      <trkpt lat="47.83893" lon="-3.53364">
        <ele>11.1</ele>
        <time>2020-07-08T10:34:38Z</time>
      </trkpt>
      <trkpt lat="47.83893" lon="-3.53364">
        <ele>11.1</ele>
        <time>2020-07-08T10:34:39Z</time>
      </trkpt>
      <trkpt lat="47.83893" lon="-3.53364">
        <ele>11.1</ele>
        <time>2020-07-08T10:34:40Z</time>
      </trkpt>
      <trkpt lat="47.83893" lon="-3.53364">
        <ele>11.1</ele>
        <time>2020-07-08T10:34:41Z</time>
      </trkpt>
      <trkpt lat="47.83893" lon="-3.53364">
        <ele>11.1</ele>
        <time>2020-07-08T10:34:42Z</time>
      </trkpt>
      <trkpt lat="47.83893" lon="-3.53364">
        <ele>11.1</ele>
        <time>2020-07-08T10:34:43Z</time>
      </trkpt>
      <trkpt lat="47.83893" lon="-3.53364">
        <ele>11.1</ele>
        <time>2020-07-08T10:34:44Z</time>
      </trkpt>
      <trkpt lat="47.83893" lon="-3.53364">
        <ele>11.1</ele>
        <time>2020-07-08T10:34:45Z</time>
      </trkpt>
      <trkpt lat="47.83893" lon="-3.53364">
        <ele>11.1</ele>
        <time>2020-07-08T10:34:46Z</time>
      </trkpt>
      <trkpt lat="47.83893" lon="-3.53364">
        <ele>11.1</ele>
        <time>2020-07-08T10:34:47Z</time>
      </trkpt>
      <trkpt lat="47.83893" lon="-3.53364">
        <ele>11.1</ele>
        <time>2020-07-08T10:34:48Z</time>
      </trkpt>
      <trkpt lat="47.83893" lon="-3.53364">
        <ele>11.1</ele>
        <time>2020-07-08T10:34:49Z</time>
      </trkpt>
      <trkpt lat="47.83893" lon="-3.53364">
        <ele>11.1</ele>
        <time>2020-07-08T10:34:50Z</time>
      </trkpt>
      <trkpt lat="47.83893" lon="-3.53364">
        <ele>11.1</ele>
        <time>2020-07-08T10:34:51Z</time>
      </trkpt>
      <trkpt lat="47.83893" lon="-3.53364">
        <ele>11.1</ele>
        <time>2020-07-08T10:34:52Z</time>
      </trkpt>
      <trkpt lat="47.83893" lon="-3.53364">
        <ele>11.1</ele>
        <time>2020-07-08T10:34:53Z</time>
      </trkpt>
      <trkpt lat="47.83893" lon="-3.53364">
        <ele>11.1</ele>
        <time>2020-07-08T10:34:54Z</time>
      </trkpt>
      <trkpt lat="47.83893" lon="-3.53364">
        <ele>11.1</ele>
        <time>2020-07-08T10:34:55Z</time>
      </trkpt>
      <trkpt lat="47.83893" lon="-3.53364">
        <ele>11.1</ele>
        <time>2020-07-08T10:34:56Z</time>
      </trkpt>
      <trkpt lat="47.83893" lon="-3.53364">
        <ele>11.1</ele>
        <time>2020-07-08T10:34:57Z</time>
      </trkpt>
      <trkpt lat="47.83893" lon="-3.53364">
        <ele>11.1</ele>
        <time>2020-07-08T10:34:58Z</time>
      </trkpt>
      <trkpt lat="47.83902" lon="-3.53358">
        <ele>10.25</ele>
        <time>2020-07-08T10:34:59Z</time>
      </trkpt>
      <trkpt lat="47.83902" lon="-3.53357">
        <ele>9.99</ele>
        <time>2020-07-08T10:35:00Z</time>
      </trkpt>
      <trkpt lat="47.83902" lon="-3.53357">
        <ele>9.87</ele>
        <time>2020-07-08T10:35:01Z</time>
      </trkpt>
      <trkpt lat="47.83902" lon="-3.53356">
        <ele>9.88</ele>
        <time>2020-07-08T10:35:02Z</time>
      </trkpt>
      <trkpt lat="47.83902" lon="-3.53356">
        <ele>9.89</ele>
        <time>2020-07-08T10:35:03Z</time>
      </trkpt>
      <trkpt lat="47.83902" lon="-3.53356">
        <ele>9.89</ele>
        <time>2020-07-08T10:35:04Z</time>
      </trkpt>
      <trkpt lat="47.83902" lon="-3.53356">
        <ele>9.89</ele>
        <time>2020-07-08T10:35:05Z</time>
      </trkpt>
      <trkpt lat="47.83902" lon="-3.53356">
        <ele>9.89</ele>
        <time>2020-07-08T10:35:06Z</time>
      </trkpt>
      <trkpt lat="47.83902" lon="-3.53356">
        <ele>9.89</ele>
        <time>2020-07-08T10:35:07Z</time>
      </trkpt>
      <trkpt lat="47.83902" lon="-3.53356">
        <ele>9.89</ele>
        <time>2020-07-08T10:35:08Z</time>
      </trkpt>
      <trkpt lat="47.83902" lon="-3.53356">
        <ele>9.89</ele>
        <time>2020-07-08T10:35:09Z</time>
      </trkpt>
      <trkpt lat="47.83902" lon="-3.53356">
        <ele>9.89</ele>
        <time>2020-07-08T10:35:10Z</time>
      </trkpt>
      <trkpt lat="47.83902" lon="-3.53356">
        <ele>9.89</ele>
        <time>2020-07-08T10:35:11Z</time>
      </trkpt>
      <trkpt lat="47.83902" lon="-3.53356">
        <ele>9.89</ele>
        <time>2020-07-08T10:35:12Z</time>
      </trkpt>
      <trkpt lat="47.83902" lon="-3.53356">
        <ele>9.89</ele>
        <time>2020-07-08T10:35:13Z</time>
      </trkpt>
      <trkpt lat="47.83902" lon="-3.53356">
        <ele>9.89</ele>
        <time>2020-07-08T10:35:14Z</time>
      </trkpt>
      <trkpt lat="47.83902" lon="-3.53356">
        <ele>9.89</ele>
        <time>2020-07-08T10:35:15Z</time>
      </trkpt>
      <trkpt lat="47.83902" lon="-3.53357">
        <ele>9.88</ele>
        <time>2020-07-08T10:35:16Z</time>
      </trkpt>
      <trkpt lat="47.83904" lon="-3.53359">
        <ele>9.52</ele>
        <time>2020-07-08T10:35:17Z</time>
      </trkpt>
      <trkpt lat="47.83906" lon="-3.53359">
        <ele>9.17</ele>
        <time>2020-07-08T10:35:18Z</time>
      </trkpt>
      <trkpt lat="47.83908" lon="-3.53358">
        <ele>8.82</ele>
        <time>2020-07-08T10:35:19Z</time>
      </trkpt>
      <trkpt lat="47.83911" lon="-3.53355">
        <ele>8.47</ele>
        <time>2020-07-08T10:35:20Z</time>
      </trkpt>
      <trkpt lat="47.83912" lon="-3.53352">
        <ele>8.24</ele>
        <time>2020-07-08T10:35:21Z</time>
      </trkpt>
      <trkpt lat="47.83913" lon="-3.53349">
        <ele>8.12</ele>
        <time>2020-07-08T10:35:22Z</time>
      </trkpt>
      <trkpt lat="47.83914" lon="-3.53346">
        <ele>8.08</ele>
        <time>2020-07-08T10:35:23Z</time>
      </trkpt>
      <trkpt lat="47.83915" lon="-3.53342">
        <ele>8.02</ele>
        <time>2020-07-08T10:35:24Z</time>
      </trkpt>
      <trkpt lat="47.83916" lon="-3.53339">
        <ele>8.03</ele>
        <time>2020-07-08T10:35:25Z</time>
      </trkpt>
      <trkpt lat="47.83916" lon="-3.53336">
        <ele>8.07</ele>
        <time>2020-07-08T10:35:26Z</time>
      </trkpt>
      <trkpt lat="47.83917" lon="-3.53332">
        <ele>8.09</ele>
        <time>2020-07-08T10:35:27Z</time>
      </trkpt>
      <trkpt lat="47.83917" lon="-3.53329">
        <ele>8.13</ele>
        <time>2020-07-08T10:35:28Z</time>
      </trkpt>
      <trkpt lat="47.83917" lon="-3.53326">
        <ele>8.21</ele>
        <time>2020-07-08T10:35:29Z</time>
      </trkpt>
      <trkpt lat="47.83917" lon="-3.53322">
        <ele>8.37</ele>
        <time>2020-07-08T10:35:30Z</time>
      </trkpt>
      <trkpt lat="47.83916" lon="-3.53318">
        <ele>8.56</ele>
        <time>2020-07-08T10:35:31Z</time>
      </trkpt>
      <trkpt lat="47.83916" lon="-3.53314">
        <ele>8.69</ele>
        <time>2020-07-08T10:35:32Z</time>
      </trkpt>
      <trkpt lat="47.83917" lon="-3.53312">
        <ele>8.78</ele>
        <time>2020-07-08T10:35:33Z</time>
      </trkpt>
      <trkpt lat="47.83917" lon="-3.53308">
        <ele>8.87</ele>
        <time>2020-07-08T10:35:34Z</time>
      </trkpt>
      <trkpt lat="47.83917" lon="-3.53305">
        <ele>9</ele>
        <time>2020-07-08T10:35:35Z</time>
      </trkpt>
      <trkpt lat="47.83916" lon="-3.53302">
        <ele>9.16</ele>
        <time>2020-07-08T10:35:36Z</time>
      </trkpt>
      <trkpt lat="47.83916" lon="-3.53298">
        <ele>9.31</ele>
        <time>2020-07-08T10:35:37Z</time>
      </trkpt>
      <trkpt lat="47.83916" lon="-3.53295">
        <ele>9.49</ele>
        <time>2020-07-08T10:35:38Z</time>
      </trkpt>
      <trkpt lat="47.83914" lon="-3.53289">
        <ele>9.8</ele>
        <time>2020-07-08T10:35:39Z</time>
      </trkpt>
      <trkpt lat="47.83913" lon="-3.53285">
        <ele>10.09</ele>
        <time>2020-07-08T10:35:40Z</time>
      </trkpt>
      <trkpt lat="47.83912" lon="-3.53279">
        <ele>10.32</ele>
        <time>2020-07-08T10:35:41Z</time>
      </trkpt>
      <trkpt lat="47.83912" lon="-3.53275">
        <ele>10.48</ele>
        <time>2020-07-08T10:35:42Z</time>
      </trkpt>
      <trkpt lat="47.83913" lon="-3.5327">
        <ele>10.6</ele>
        <time>2020-07-08T10:35:43Z</time>
      </trkpt>
      <trkpt lat="47.83913" lon="-3.53266">
        <ele>10.69</ele>
        <time>2020-07-08T10:35:44Z</time>
      </trkpt>
      <trkpt lat="47.83913" lon="-3.53262">
        <ele>10.79</ele>
        <time>2020-07-08T10:35:45Z</time>
      </trkpt>
      <trkpt lat="47.83911" lon="-3.53257">
        <ele>10.96</ele>
        <time>2020-07-08T10:35:46Z</time>
      </trkpt>
      <trkpt lat="47.8391" lon="-3.53254">
        <ele>11.1</ele>
        <time>2020-07-08T10:35:47Z</time>
      </trkpt>
      <trkpt lat="47.83909" lon="-3.53251">
        <ele>11.21</ele>
        <time>2020-07-08T10:35:48Z</time>
      </trkpt>
      <trkpt lat="47.83908" lon="-3.53249">
        <ele>11.34</ele>
        <time>2020-07-08T10:35:49Z</time>
      </trkpt>
      <trkpt lat="47.83907" lon="-3.53247">
        <ele>11.47</ele>
        <time>2020-07-08T10:35:50Z</time>
      </trkpt>
      <trkpt lat="47.83907" lon="-3.53245">
        <ele>11.61</ele>
        <time>2020-07-08T10:35:51Z</time>
      </trkpt>
      <trkpt lat="47.83906" lon="-3.53242">
        <ele>11.77</ele>
        <time>2020-07-08T10:35:52Z</time>
      </trkpt>
      <trkpt lat="47.83905" lon="-3.53239">
        <ele>11.96</ele>
        <time>2020-07-08T10:35:53Z</time>
      </trkpt>
      <trkpt lat="47.83906" lon="-3.53236">
        <ele>12.14</ele>
        <time>2020-07-08T10:35:54Z</time>
      </trkpt>
      <trkpt lat="47.83906" lon="-3.53233">
        <ele>12.3</ele>
        <time>2020-07-08T10:35:55Z</time>
      </trkpt>
      <trkpt lat="47.83906" lon="-3.53231">
        <ele>12.42</ele>
        <time>2020-07-08T10:35:56Z</time>
      </trkpt>
      <trkpt lat="47.83906" lon="-3.5323">
        <ele>12.5</ele>
        <time>2020-07-08T10:35:57Z</time>
      </trkpt>
      <trkpt lat="47.83907" lon="-3.53229">
        <ele>12.57</ele>
        <time>2020-07-08T10:35:58Z</time>
      </trkpt>
      <trkpt lat="47.83907" lon="-3.53227">
        <ele>12.66</ele>
        <time>2020-07-08T10:35:59Z</time>
      </trkpt>
      <trkpt lat="47.83908" lon="-3.53225">
        <ele>12.77</ele>
        <time>2020-07-08T10:36:00Z</time>
      </trkpt>
      <trkpt lat="47.83909" lon="-3.53222">
        <ele>12.94</ele>
        <time>2020-07-08T10:36:01Z</time>
      </trkpt>
      <trkpt lat="47.8391" lon="-3.53218">
        <ele>13.1</ele>
        <time>2020-07-08T10:36:02Z</time>
      </trkpt>
      <trkpt lat="47.83913" lon="-3.53216">
        <ele>13.22</ele>
        <time>2020-07-08T10:36:03Z</time>
      </trkpt>
      <trkpt lat="47.83915" lon="-3.53213">
        <ele>13.31</ele>
        <time>2020-07-08T10:36:04Z</time>
      </trkpt>
      <trkpt lat="47.83918" lon="-3.53211">
        <ele>13.31</ele>
        <time>2020-07-08T10:36:05Z</time>
      </trkpt>
      <trkpt lat="47.83921" lon="-3.53209">
        <ele>13.15</ele>
        <time>2020-07-08T10:36:06Z</time>
      </trkpt>
      <trkpt lat="47.83926" lon="-3.53207">
        <ele>12.87</ele>
        <time>2020-07-08T10:36:07Z</time>
      </trkpt>
      <trkpt lat="47.83931" lon="-3.53205">
        <ele>12.54</ele>
        <time>2020-07-08T10:36:08Z</time>
      </trkpt>
      <trkpt lat="47.83936" lon="-3.53205">
        <ele>12.12</ele>
        <time>2020-07-08T10:36:09Z</time>
      </trkpt>
      <trkpt lat="47.83941" lon="-3.53205">
        <ele>11.71</ele>
        <time>2020-07-08T10:36:10Z</time>
      </trkpt>
      <trkpt lat="47.83946" lon="-3.53207">
        <ele>11.25</ele>
        <time>2020-07-08T10:36:11Z</time>
      </trkpt>
      <trkpt lat="47.83951" lon="-3.53208">
        <ele>10.82</ele>
        <time>2020-07-08T10:36:12Z</time>
      </trkpt>
      <trkpt lat="47.83957" lon="-3.5321">
        <ele>10.41</ele>
        <time>2020-07-08T10:36:13Z</time>
      </trkpt>
      <trkpt lat="47.83961" lon="-3.53211">
        <ele>10.03</ele>
        <time>2020-07-08T10:36:14Z</time>
      </trkpt>
      <trkpt lat="47.83966" lon="-3.53213">
        <ele>9.6</ele>
        <time>2020-07-08T10:36:15Z</time>
      </trkpt>
      <trkpt lat="47.8397" lon="-3.53215">
        <ele>9.12</ele>
        <time>2020-07-08T10:36:16Z</time>
      </trkpt>
      <trkpt lat="47.83975" lon="-3.53215">
        <ele>8.69</ele>
        <time>2020-07-08T10:36:17Z</time>
      </trkpt>
      <trkpt lat="47.83979" lon="-3.53214">
        <ele>8.37</ele>
        <time>2020-07-08T10:36:18Z</time>
      </trkpt>
      <trkpt lat="47.83984" lon="-3.5321">
        <ele>8.18</ele>
        <time>2020-07-08T10:36:19Z</time>
      </trkpt>
      <trkpt lat="47.83988" lon="-3.53205">
        <ele>8.05</ele>
        <time>2020-07-08T10:36:20Z</time>
      </trkpt>
      <trkpt lat="47.83993" lon="-3.532">
        <ele>7.84</ele>
        <time>2020-07-08T10:36:21Z</time>
      </trkpt>
      <trkpt lat="47.83995" lon="-3.53195">
        <ele>7.71</ele>
        <time>2020-07-08T10:36:22Z</time>
      </trkpt>
      <trkpt lat="47.83998" lon="-3.5319">
        <ele>7.56</ele>
        <time>2020-07-08T10:36:23Z</time>
      </trkpt>
      <trkpt lat="47.84" lon="-3.53185">
        <ele>7.39</ele>
        <time>2020-07-08T10:36:24Z</time>
      </trkpt>
      <trkpt lat="47.84002" lon="-3.53181">
        <ele>7.36</ele>
        <time>2020-07-08T10:36:25Z</time>
      </trkpt>
      <trkpt lat="47.84004" lon="-3.53177">
        <ele>7.41</ele>
        <time>2020-07-08T10:36:26Z</time>
      </trkpt>
      <trkpt lat="47.84006" lon="-3.53172">
        <ele>7.5</ele>
        <time>2020-07-08T10:36:27Z</time>
      </trkpt>
      <trkpt lat="47.84009" lon="-3.53167">
        <ele>7.61</ele>
        <time>2020-07-08T10:36:28Z</time>
      </trkpt>
      <trkpt lat="47.84011" lon="-3.53162">
        <ele>7.8</ele>
        <time>2020-07-08T10:36:29Z</time>
      </trkpt>
      <trkpt lat="47.84015" lon="-3.53156">
        <ele>7.98</ele>
        <time>2020-07-08T10:36:30Z</time>
      </trkpt>
      <trkpt lat="47.84018" lon="-3.5315">
        <ele>8.12</ele>
        <time>2020-07-08T10:36:31Z</time>
      </trkpt>
      <trkpt lat="47.84019" lon="-3.53145">
        <ele>8.25</ele>
        <time>2020-07-08T10:36:32Z</time>
      </trkpt>
      <trkpt lat="47.84021" lon="-3.53139">
        <ele>8.43</ele>
        <time>2020-07-08T10:36:33Z</time>
      </trkpt>
      <trkpt lat="47.84022" lon="-3.53134">
        <ele>8.53</ele>
        <time>2020-07-08T10:36:34Z</time>
      </trkpt>
      <trkpt lat="47.84023" lon="-3.53129">
        <ele>8.62</ele>
        <time>2020-07-08T10:36:35Z</time>
      </trkpt>
      <trkpt lat="47.84025" lon="-3.53125">
        <ele>8.69</ele>
        <time>2020-07-08T10:36:36Z</time>
      </trkpt>
      <trkpt lat="47.84027" lon="-3.5312">
        <ele>8.73</ele>
        <time>2020-07-08T10:36:37Z</time>
      </trkpt>
      <trkpt lat="47.84029" lon="-3.53115">
        <ele>8.79</ele>
        <time>2020-07-08T10:36:38Z</time>
      </trkpt>
      <trkpt lat="47.84032" lon="-3.5311">
        <ele>8.9</ele>
        <time>2020-07-08T10:36:39Z</time>
      </trkpt>
      <trkpt lat="47.84035" lon="-3.53105">
        <ele>9.06</ele>
        <time>2020-07-08T10:36:40Z</time>
      </trkpt>
      <trkpt lat="47.84037" lon="-3.531">
        <ele>9.24</ele>
        <time>2020-07-08T10:36:41Z</time>
      </trkpt>
      <trkpt lat="47.8404" lon="-3.53095">
        <ele>9.39</ele>
        <time>2020-07-08T10:36:42Z</time>
      </trkpt>
      <trkpt lat="47.84043" lon="-3.53091">
        <ele>9.47</ele>
        <time>2020-07-08T10:36:43Z</time>
      </trkpt>
      <trkpt lat="47.84046" lon="-3.53089">
        <ele>9.46</ele>
        <time>2020-07-08T10:36:44Z</time>
      </trkpt>
      <trkpt lat="47.84049" lon="-3.53086">
        <ele>9.37</ele>
        <time>2020-07-08T10:36:45Z</time>
      </trkpt>
      <trkpt lat="47.84053" lon="-3.53081">
        <ele>9.3</ele>
        <time>2020-07-08T10:36:46Z</time>
      </trkpt>
      <trkpt lat="47.84056" lon="-3.53077">
        <ele>9.19</ele>
        <time>2020-07-08T10:36:47Z</time>
      </trkpt>
      <trkpt lat="47.8406" lon="-3.53073">
        <ele>9.09</ele>
        <time>2020-07-08T10:36:48Z</time>
      </trkpt>
      <trkpt lat="47.84064" lon="-3.53069">
        <ele>8.96</ele>
        <time>2020-07-08T10:36:49Z</time>
      </trkpt>
      <trkpt lat="47.84067" lon="-3.53066">
        <ele>8.86</ele>
        <time>2020-07-08T10:36:50Z</time>
      </trkpt>
      <trkpt lat="47.84071" lon="-3.53061">
        <ele>8.78</ele>
        <time>2020-07-08T10:36:51Z</time>
      </trkpt>
      <trkpt lat="47.84073" lon="-3.53056">
        <ele>8.74</ele>
        <time>2020-07-08T10:36:52Z</time>
      </trkpt>
      <trkpt lat="47.84076" lon="-3.53051">
        <ele>8.73</ele>
        <time>2020-07-08T10:36:53Z</time>
      </trkpt>
      <trkpt lat="47.84078" lon="-3.53047">
        <ele>8.73</ele>
        <time>2020-07-08T10:36:54Z</time>
      </trkpt>
      <trkpt lat="47.84081" lon="-3.53043">
        <ele>8.65</ele>
        <time>2020-07-08T10:36:55Z</time>
      </trkpt>
      <trkpt lat="47.84084" lon="-3.53039">
        <ele>8.57</ele>
        <time>2020-07-08T10:36:56Z</time>
      </trkpt>
      <trkpt lat="47.84088" lon="-3.53035">
        <ele>8.46</ele>
        <time>2020-07-08T10:36:57Z</time>
      </trkpt>
      <trkpt lat="47.84091" lon="-3.5303">
        <ele>8.36</ele>
        <time>2020-07-08T10:36:58Z</time>
      </trkpt>
      <trkpt lat="47.84095" lon="-3.53026">
        <ele>8.32</ele>
        <time>2020-07-08T10:36:59Z</time>
      </trkpt>
      <trkpt lat="47.84099" lon="-3.53023">
        <ele>8.33</ele>
        <time>2020-07-08T10:37:00Z</time>
      </trkpt>
      <trkpt lat="47.84103" lon="-3.53019">
        <ele>8.34</ele>
        <time>2020-07-08T10:37:01Z</time>
      </trkpt>
      <trkpt lat="47.84107" lon="-3.53015">
        <ele>8.33</ele>
        <time>2020-07-08T10:37:02Z</time>
      </trkpt>
      <trkpt lat="47.84111" lon="-3.53011">
        <ele>8.29</ele>
        <time>2020-07-08T10:37:03Z</time>
      </trkpt>
      <trkpt lat="47.84114" lon="-3.53006">
        <ele>8.34</ele>
        <time>2020-07-08T10:37:04Z</time>
      </trkpt>
      <trkpt lat="47.84118" lon="-3.53002">
        <ele>8.38</ele>
        <time>2020-07-08T10:37:05Z</time>
      </trkpt>
      <trkpt lat="47.84121" lon="-3.52998">
        <ele>8.46</ele>
        <time>2020-07-08T10:37:06Z</time>
      </trkpt>
      <trkpt lat="47.84125" lon="-3.52993">
        <ele>8.6</ele>
        <time>2020-07-08T10:37:07Z</time>
      </trkpt>
      <trkpt lat="47.84128" lon="-3.52988">
        <ele>8.76</ele>
        <time>2020-07-08T10:37:08Z</time>
      </trkpt>
      <trkpt lat="47.8413" lon="-3.52984">
        <ele>8.92</ele>
        <time>2020-07-08T10:37:09Z</time>
      </trkpt>
      <trkpt lat="47.84133" lon="-3.52979">
        <ele>9.04</ele>
        <time>2020-07-08T10:37:10Z</time>
      </trkpt>
      <trkpt lat="47.84136" lon="-3.52974">
        <ele>9.16</ele>
        <time>2020-07-08T10:37:11Z</time>
      </trkpt>
      <trkpt lat="47.84137" lon="-3.5297">
        <ele>9.31</ele>
        <time>2020-07-08T10:37:12Z</time>
      </trkpt>
      <trkpt lat="47.84141" lon="-3.52964">
        <ele>9.32</ele>
        <time>2020-07-08T10:37:13Z</time>
      </trkpt>
      <trkpt lat="47.84144" lon="-3.52959">
        <ele>9.21</ele>
        <time>2020-07-08T10:37:14Z</time>
      </trkpt>
      <trkpt lat="47.84147" lon="-3.52955">
        <ele>8.95</ele>
        <time>2020-07-08T10:37:15Z</time>
      </trkpt>
      <trkpt lat="47.84152" lon="-3.5295">
        <ele>8.56</ele>
        <time>2020-07-08T10:37:16Z</time>
      </trkpt>
      <trkpt lat="47.84156" lon="-3.52944">
        <ele>8.17</ele>
        <time>2020-07-08T10:37:17Z</time>
      </trkpt>
      <trkpt lat="47.84159" lon="-3.52938">
        <ele>7.86</ele>
        <time>2020-07-08T10:37:18Z</time>
      </trkpt>
      <trkpt lat="47.84163" lon="-3.52933">
        <ele>7.57</ele>
        <time>2020-07-08T10:37:19Z</time>
      </trkpt>
      <trkpt lat="47.84167" lon="-3.52929">
        <ele>7.24</ele>
        <time>2020-07-08T10:37:20Z</time>
      </trkpt>
      <trkpt lat="47.84171" lon="-3.52925">
        <ele>7.22</ele>
        <time>2020-07-08T10:37:21Z</time>
      </trkpt>
      <trkpt lat="47.84174" lon="-3.52922">
        <ele>7.31</ele>
        <time>2020-07-08T10:37:22Z</time>
      </trkpt>
      <trkpt lat="47.84178" lon="-3.52918">
        <ele>7.46</ele>
        <time>2020-07-08T10:37:23Z</time>
      </trkpt>
      <trkpt lat="47.84182" lon="-3.52914">
        <ele>7.6</ele>
        <time>2020-07-08T10:37:24Z</time>
      </trkpt>
      <trkpt lat="47.84186" lon="-3.52908">
        <ele>7.74</ele>
        <time>2020-07-08T10:37:25Z</time>
      </trkpt>
      <trkpt lat="47.84188" lon="-3.52903">
        <ele>7.91</ele>
        <time>2020-07-08T10:37:26Z</time>
      </trkpt>
      <trkpt lat="47.84189" lon="-3.52898">
        <ele>8.05</ele>
        <time>2020-07-08T10:37:27Z</time>
      </trkpt>
      <trkpt lat="47.84192" lon="-3.52892">
        <ele>8.12</ele>
        <time>2020-07-08T10:37:28Z</time>
      </trkpt>
      <trkpt lat="47.84194" lon="-3.52886">
        <ele>8.01</ele>
        <time>2020-07-08T10:37:29Z</time>
      </trkpt>
      <trkpt lat="47.84196" lon="-3.5288">
        <ele>7.6</ele>
        <time>2020-07-08T10:37:30Z</time>
      </trkpt>
      <trkpt lat="47.84199" lon="-3.52874">
        <ele>7.13</ele>
        <time>2020-07-08T10:37:31Z</time>
      </trkpt>
      <trkpt lat="47.84201" lon="-3.52869">
        <ele>6.66</ele>
        <time>2020-07-08T10:37:32Z</time>
      </trkpt>
      <trkpt lat="47.84204" lon="-3.52864">
        <ele>6.21</ele>
        <time>2020-07-08T10:37:33Z</time>
      </trkpt>
      <trkpt lat="47.84206" lon="-3.5286">
        <ele>5.93</ele>
        <time>2020-07-08T10:37:34Z</time>
      </trkpt>
      <trkpt lat="47.84207" lon="-3.52856">
        <ele>5.89</ele>
        <time>2020-07-08T10:37:35Z</time>
      </trkpt>
      <trkpt lat="47.84209" lon="-3.52852">
        <ele>5.93</ele>
        <time>2020-07-08T10:37:36Z</time>
      </trkpt>
      <trkpt lat="47.8421" lon="-3.52848">
        <ele>6</ele>
        <time>2020-07-08T10:37:37Z</time>
      </trkpt>
      <trkpt lat="47.84212" lon="-3.52845">
        <ele>6.06</ele>
        <time>2020-07-08T10:37:38Z</time>
      </trkpt>
      <trkpt lat="47.84213" lon="-3.52842">
        <ele>6.12</ele>
        <time>2020-07-08T10:37:39Z</time>
      </trkpt>
      <trkpt lat="47.84214" lon="-3.52839">
        <ele>6.19</ele>
        <time>2020-07-08T10:37:40Z</time>
      </trkpt>
      <trkpt lat="47.84215" lon="-3.52837">
        <ele>6.25</ele>
        <time>2020-07-08T10:37:41Z</time>
      </trkpt>
      <trkpt lat="47.84216" lon="-3.52835">
        <ele>6.31</ele>
        <time>2020-07-08T10:37:42Z</time>
      </trkpt>
      <trkpt lat="47.84218" lon="-3.52832">
        <ele>6.34</ele>
        <time>2020-07-08T10:37:43Z</time>
      </trkpt>
      <trkpt lat="47.8422" lon="-3.5283">
        <ele>6.4</ele>
        <time>2020-07-08T10:37:44Z</time>
      </trkpt>
      <trkpt lat="47.84221" lon="-3.52827">
        <ele>6.48</ele>
        <time>2020-07-08T10:37:45Z</time>
      </trkpt>
      <trkpt lat="47.84222" lon="-3.52825">
        <ele>6.57</ele>
        <time>2020-07-08T10:37:46Z</time>
      </trkpt>
      <trkpt lat="47.84224" lon="-3.52822">
        <ele>6.66</ele>
        <time>2020-07-08T10:37:47Z</time>
      </trkpt>
      <trkpt lat="47.84226" lon="-3.52819">
        <ele>6.76</ele>
        <time>2020-07-08T10:37:48Z</time>
      </trkpt>
      <trkpt lat="47.84226" lon="-3.52815">
        <ele>6.89</ele>
        <time>2020-07-08T10:37:49Z</time>
      </trkpt>
      <trkpt lat="47.84227" lon="-3.52812">
        <ele>7.05</ele>
        <time>2020-07-08T10:37:50Z</time>
      </trkpt>
      <trkpt lat="47.84227" lon="-3.52808">
        <ele>7.23</ele>
        <time>2020-07-08T10:37:51Z</time>
      </trkpt>
      <trkpt lat="47.84228" lon="-3.52804">
        <ele>7.38</ele>
        <time>2020-07-08T10:37:52Z</time>
      </trkpt>
      <trkpt lat="47.84228" lon="-3.528">
        <ele>7.52</ele>
        <time>2020-07-08T10:37:53Z</time>
      </trkpt>
      <trkpt lat="47.84227" lon="-3.52797">
        <ele>7.64</ele>
        <time>2020-07-08T10:37:54Z</time>
      </trkpt>
      <trkpt lat="47.84227" lon="-3.52796">
        <ele>7.73</ele>
        <time>2020-07-08T10:37:55Z</time>
      </trkpt>
      <trkpt lat="47.84227" lon="-3.52793">
        <ele>7.79</ele>
        <time>2020-07-08T10:37:56Z</time>
      </trkpt>
      <trkpt lat="47.84227" lon="-3.52791">
        <ele>7.86</ele>
        <time>2020-07-08T10:37:57Z</time>
      </trkpt>
      <trkpt lat="47.84227" lon="-3.52788">
        <ele>7.94</ele>
        <time>2020-07-08T10:37:58Z</time>
      </trkpt>
      <trkpt lat="47.84227" lon="-3.52785">
        <ele>8.05</ele>
        <time>2020-07-08T10:37:59Z</time>
      </trkpt>
      <trkpt lat="47.84227" lon="-3.52783">
        <ele>8.13</ele>
        <time>2020-07-08T10:38:00Z</time>
      </trkpt>
      <trkpt lat="47.84226" lon="-3.52781">
        <ele>8.25</ele>
        <time>2020-07-08T10:38:01Z</time>
      </trkpt>
      <trkpt lat="47.84227" lon="-3.52778">
        <ele>8.31</ele>
        <time>2020-07-08T10:38:02Z</time>
      </trkpt>
      <trkpt lat="47.84227" lon="-3.52776">
        <ele>8.35</ele>
        <time>2020-07-08T10:38:03Z</time>
      </trkpt>
      <trkpt lat="47.84228" lon="-3.52774">
        <ele>8.34</ele>
        <time>2020-07-08T10:38:04Z</time>
      </trkpt>
      <trkpt lat="47.84228" lon="-3.52773">
        <ele>8.38</ele>
        <time>2020-07-08T10:38:05Z</time>
      </trkpt>
      <trkpt lat="47.84229" lon="-3.5277">
        <ele>8.36</ele>
        <time>2020-07-08T10:38:06Z</time>
      </trkpt>
      <trkpt lat="47.84231" lon="-3.52766">
        <ele>8.26</ele>
        <time>2020-07-08T10:38:07Z</time>
      </trkpt>
      <trkpt lat="47.84233" lon="-3.52761">
        <ele>8.12</ele>
        <time>2020-07-08T10:38:08Z</time>
      </trkpt>
      <trkpt lat="47.84235" lon="-3.52755">
        <ele>8.02</ele>
        <time>2020-07-08T10:38:09Z</time>
      </trkpt>
      <trkpt lat="47.84238" lon="-3.52749">
        <ele>7.83</ele>
        <time>2020-07-08T10:38:10Z</time>
      </trkpt>
      <trkpt lat="47.84242" lon="-3.52741">
        <ele>7.55</ele>
        <time>2020-07-08T10:38:11Z</time>
      </trkpt>
      <trkpt lat="47.84245" lon="-3.52733">
        <ele>7.28</ele>
        <time>2020-07-08T10:38:12Z</time>
      </trkpt>
      <trkpt lat="47.84248" lon="-3.52726">
        <ele>7.12</ele>
        <time>2020-07-08T10:38:13Z</time>
      </trkpt>
      <trkpt lat="47.8425" lon="-3.52718">
        <ele>7.09</ele>
        <time>2020-07-08T10:38:14Z</time>
      </trkpt>
      <trkpt lat="47.84253" lon="-3.5271">
        <ele>6.86</ele>
        <time>2020-07-08T10:38:15Z</time>
      </trkpt>
      <trkpt lat="47.84255" lon="-3.52704">
        <ele>6.57</ele>
        <time>2020-07-08T10:38:16Z</time>
      </trkpt>
      <trkpt lat="47.84258" lon="-3.52698">
        <ele>6.24</ele>
        <time>2020-07-08T10:38:17Z</time>
      </trkpt>
      <trkpt lat="47.84261" lon="-3.5269">
        <ele>6</ele>
        <time>2020-07-08T10:38:18Z</time>
      </trkpt>
      <trkpt lat="47.84264" lon="-3.52683">
        <ele>5.84</ele>
        <time>2020-07-08T10:38:19Z</time>
      </trkpt>
      <trkpt lat="47.84267" lon="-3.52677">
        <ele>5.73</ele>
        <time>2020-07-08T10:38:20Z</time>
      </trkpt>
      <trkpt lat="47.8427" lon="-3.52669">
        <ele>5.6</ele>
        <time>2020-07-08T10:38:21Z</time>
      </trkpt>
      <trkpt lat="47.84274" lon="-3.52661">
        <ele>5.51</ele>
        <time>2020-07-08T10:38:22Z</time>
      </trkpt>
      <trkpt lat="47.84279" lon="-3.52652">
        <ele>5.4</ele>
        <time>2020-07-08T10:38:23Z</time>
      </trkpt>
      <trkpt lat="47.84284" lon="-3.52646">
        <ele>5.15</ele>
        <time>2020-07-08T10:38:24Z</time>
      </trkpt>
      <trkpt lat="47.8429" lon="-3.52636">
        <ele>4.75</ele>
        <time>2020-07-08T10:38:25Z</time>
      </trkpt>
      <trkpt lat="47.84294" lon="-3.52628">
        <ele>4.31</ele>
        <time>2020-07-08T10:38:26Z</time>
      </trkpt>
      <trkpt lat="47.84298" lon="-3.52621">
        <ele>3.85</ele>
        <time>2020-07-08T10:38:27Z</time>
      </trkpt>
      <trkpt lat="47.84302" lon="-3.52615">
        <ele>3.48</ele>
        <time>2020-07-08T10:38:28Z</time>
      </trkpt>
      <trkpt lat="47.84306" lon="-3.52609">
        <ele>3.24</ele>
        <time>2020-07-08T10:38:29Z</time>
      </trkpt>
      <trkpt lat="47.84308" lon="-3.52603">
        <ele>3.44</ele>
        <time>2020-07-08T10:38:30Z</time>
      </trkpt>
      <trkpt lat="47.84309" lon="-3.52598">
        <ele>3.71</ele>
        <time>2020-07-08T10:38:31Z</time>
      </trkpt>
      <trkpt lat="47.84308" lon="-3.52593">
        <ele>4.07</ele>
        <time>2020-07-08T10:38:32Z</time>
      </trkpt>
      <trkpt lat="47.84307" lon="-3.52589">
        <ele>4.4</ele>
        <time>2020-07-08T10:38:33Z</time>
      </trkpt>
      <trkpt lat="47.84307" lon="-3.52584">
        <ele>4.74</ele>
        <time>2020-07-08T10:38:34Z</time>
      </trkpt>
      <trkpt lat="47.84305" lon="-3.5258">
        <ele>4.94</ele>
        <time>2020-07-08T10:38:35Z</time>
      </trkpt>
      <trkpt lat="47.84304" lon="-3.52574">
        <ele>5.09</ele>
        <time>2020-07-08T10:38:36Z</time>
      </trkpt>
      <trkpt lat="47.84303" lon="-3.52568">
        <ele>5.25</ele>
        <time>2020-07-08T10:38:37Z</time>
      </trkpt>
      <trkpt lat="47.84302" lon="-3.52564">
        <ele>5.38</ele>
        <time>2020-07-08T10:38:38Z</time>
      </trkpt>
      <trkpt lat="47.84301" lon="-3.52558">
        <ele>5.54</ele>
        <time>2020-07-08T10:38:39Z</time>
      </trkpt>
      <trkpt lat="47.843" lon="-3.52554">
        <ele>5.73</ele>
        <time>2020-07-08T10:38:40Z</time>
      </trkpt>
      <trkpt lat="47.84298" lon="-3.5255">
        <ele>6.01</ele>
        <time>2020-07-08T10:38:41Z</time>
      </trkpt>
      <trkpt lat="47.84296" lon="-3.52546">
        <ele>6.31</ele>
        <time>2020-07-08T10:38:42Z</time>
      </trkpt>
      <trkpt lat="47.84294" lon="-3.52542">
        <ele>6.6</ele>
        <time>2020-07-08T10:38:43Z</time>
      </trkpt>
      <trkpt lat="47.84292" lon="-3.52537">
        <ele>6.83</ele>
        <time>2020-07-08T10:38:44Z</time>
      </trkpt>
      <trkpt lat="47.84291" lon="-3.52532">
        <ele>6.97</ele>
        <time>2020-07-08T10:38:45Z</time>
      </trkpt>
      <trkpt lat="47.84291" lon="-3.52528">
        <ele>7.06</ele>
        <time>2020-07-08T10:38:46Z</time>
      </trkpt>
      <trkpt lat="47.84289" lon="-3.52522">
        <ele>7.27</ele>
        <time>2020-07-08T10:38:47Z</time>
      </trkpt>
      <trkpt lat="47.84288" lon="-3.52516">
        <ele>7.49</ele>
        <time>2020-07-08T10:38:48Z</time>
      </trkpt>
      <trkpt lat="47.84287" lon="-3.52511">
        <ele>7.67</ele>
        <time>2020-07-08T10:38:49Z</time>
      </trkpt>
      <trkpt lat="47.84286" lon="-3.52506">
        <ele>7.81</ele>
        <time>2020-07-08T10:38:50Z</time>
      </trkpt>
      <trkpt lat="47.84285" lon="-3.52503">
        <ele>7.91</ele>
        <time>2020-07-08T10:38:51Z</time>
      </trkpt>
      <trkpt lat="47.84284" lon="-3.52499">
        <ele>8.02</ele>
        <time>2020-07-08T10:38:52Z</time>
      </trkpt>
      <trkpt lat="47.84282" lon="-3.52496">
        <ele>8.17</ele>
        <time>2020-07-08T10:38:53Z</time>
      </trkpt>
      <trkpt lat="47.84282" lon="-3.52492">
        <ele>8.35</ele>
        <time>2020-07-08T10:38:54Z</time>
      </trkpt>
      <trkpt lat="47.84281" lon="-3.52489">
        <ele>8.5</ele>
        <time>2020-07-08T10:38:55Z</time>
      </trkpt>
      <trkpt lat="47.8428" lon="-3.52486">
        <ele>8.61</ele>
        <time>2020-07-08T10:38:56Z</time>
      </trkpt>
      <trkpt lat="47.84279" lon="-3.52484">
        <ele>8.67</ele>
        <time>2020-07-08T10:38:57Z</time>
      </trkpt>
      <trkpt lat="47.84278" lon="-3.5248">
        <ele>8.73</ele>
        <time>2020-07-08T10:38:58Z</time>
      </trkpt>
      <trkpt lat="47.84277" lon="-3.52476">
        <ele>8.86</ele>
        <time>2020-07-08T10:38:59Z</time>
      </trkpt>
      <trkpt lat="47.84275" lon="-3.52472">
        <ele>9.01</ele>
        <time>2020-07-08T10:39:00Z</time>
      </trkpt>
      <trkpt lat="47.84274" lon="-3.52469">
        <ele>9.49</ele>
        <time>2020-07-08T10:39:01Z</time>
      </trkpt>
      <trkpt lat="47.84271" lon="-3.52467">
        <ele>9.99</ele>
        <time>2020-07-08T10:39:02Z</time>
      </trkpt>
      <trkpt lat="47.84269" lon="-3.52465">
        <ele>10.48</ele>
        <time>2020-07-08T10:39:03Z</time>
      </trkpt>
      <trkpt lat="47.84266" lon="-3.52463">
        <ele>10.84</ele>
        <time>2020-07-08T10:39:04Z</time>
      </trkpt>
      <trkpt lat="47.84264" lon="-3.52462">
        <ele>11</ele>
        <time>2020-07-08T10:39:05Z</time>
      </trkpt>
      <trkpt lat="47.84263" lon="-3.52461">
        <ele>11.2</ele>
        <time>2020-07-08T10:39:06Z</time>
      </trkpt>
      <trkpt lat="47.8426" lon="-3.52462">
        <ele>11.21</ele>
        <time>2020-07-08T10:39:07Z</time>
      </trkpt>
      <trkpt lat="47.84257" lon="-3.52462">
        <ele>11.2</ele>
        <time>2020-07-08T10:39:08Z</time>
      </trkpt>
      <trkpt lat="47.84254" lon="-3.52461">
        <ele>11.21</ele>
        <time>2020-07-08T10:39:09Z</time>
      </trkpt>
      <trkpt lat="47.84251" lon="-3.52461">
        <ele>11.26</ele>
        <time>2020-07-08T10:39:10Z</time>
      </trkpt>
      <trkpt lat="47.84248" lon="-3.52458">
        <ele>11.73</ele>
        <time>2020-07-08T10:39:11Z</time>
      </trkpt>
      <trkpt lat="47.84245" lon="-3.52456">
        <ele>12.26</ele>
        <time>2020-07-08T10:39:12Z</time>
      </trkpt>
      <trkpt lat="47.84244" lon="-3.52455">
        <ele>12.64</ele>
        <time>2020-07-08T10:39:13Z</time>
      </trkpt>
      <trkpt lat="47.84241" lon="-3.52453">
        <ele>13.03</ele>
        <time>2020-07-08T10:39:14Z</time>
      </trkpt>
      <trkpt lat="47.84239" lon="-3.52453">
        <ele>13.35</ele>
        <time>2020-07-08T10:39:15Z</time>
      </trkpt>
      <trkpt lat="47.84237" lon="-3.52453">
        <ele>13.58</ele>
        <time>2020-07-08T10:39:16Z</time>
      </trkpt>
      <trkpt lat="47.84235" lon="-3.52451">
        <ele>13.77</ele>
        <time>2020-07-08T10:39:17Z</time>
      </trkpt>
      <trkpt lat="47.84234" lon="-3.5245">
        <ele>13.88</ele>
        <time>2020-07-08T10:39:18Z</time>
      </trkpt>
      <trkpt lat="47.84232" lon="-3.52449">
        <ele>13.96</ele>
        <time>2020-07-08T10:39:19Z</time>
      </trkpt>
      <trkpt lat="47.8423" lon="-3.52448">
        <ele>14.03</ele>
        <time>2020-07-08T10:39:20Z</time>
      </trkpt>
      <trkpt lat="47.84227" lon="-3.52448">
        <ele>14.16</ele>
        <time>2020-07-08T10:39:21Z</time>
      </trkpt>
      <trkpt lat="47.84224" lon="-3.52448">
        <ele>14.36</ele>
        <time>2020-07-08T10:39:22Z</time>
      </trkpt>
      <trkpt lat="47.84223" lon="-3.52448">
        <ele>14.48</ele>
        <time>2020-07-08T10:39:23Z</time>
      </trkpt>
      <trkpt lat="47.84219" lon="-3.52447">
        <ele>14.88</ele>
        <time>2020-07-08T10:39:24Z</time>
      </trkpt>
      <trkpt lat="47.84216" lon="-3.52446">
        <ele>15.35</ele>
        <time>2020-07-08T10:39:25Z</time>
      </trkpt>
      <trkpt lat="47.84213" lon="-3.52445">
        <ele>15.66</ele>
        <time>2020-07-08T10:39:26Z</time>
      </trkpt>
      <trkpt lat="47.84211" lon="-3.52442">
        <ele>16</ele>
        <time>2020-07-08T10:39:27Z</time>
      </trkpt>
      <trkpt lat="47.84209" lon="-3.5244">
        <ele>16.38</ele>
        <time>2020-07-08T10:39:28Z</time>
      </trkpt>
      <trkpt lat="47.84207" lon="-3.52439">
        <ele>16.69</ele>
        <time>2020-07-08T10:39:29Z</time>
      </trkpt>
      <trkpt lat="47.84205" lon="-3.52437">
        <ele>17.01</ele>
        <time>2020-07-08T10:39:30Z</time>
      </trkpt>
      <trkpt lat="47.84203" lon="-3.52435">
        <ele>17.21</ele>
        <time>2020-07-08T10:39:31Z</time>
      </trkpt>
      <trkpt lat="47.842" lon="-3.52432">
        <ele>17.33</ele>
        <time>2020-07-08T10:39:32Z</time>
      </trkpt>
      <trkpt lat="47.84198" lon="-3.5243">
        <ele>17.35</ele>
        <time>2020-07-08T10:39:33Z</time>
      </trkpt>
      <trkpt lat="47.84196" lon="-3.52428">
        <ele>17.24</ele>
        <time>2020-07-08T10:39:34Z</time>
      </trkpt>
      <trkpt lat="47.84195" lon="-3.52426">
        <ele>17.04</ele>
        <time>2020-07-08T10:39:35Z</time>
      </trkpt>
      <trkpt lat="47.84192" lon="-3.52423">
        <ele>17.12</ele>
        <time>2020-07-08T10:39:36Z</time>
      </trkpt>
      <trkpt lat="47.8419" lon="-3.5242">
        <ele>17.27</ele>
        <time>2020-07-08T10:39:37Z</time>
      </trkpt>
      <trkpt lat="47.84188" lon="-3.52416">
        <ele>17.35</ele>
        <time>2020-07-08T10:39:38Z</time>
      </trkpt>
      <trkpt lat="47.84187" lon="-3.52413">
        <ele>17.75</ele>
        <time>2020-07-08T10:39:39Z</time>
      </trkpt>
      <trkpt lat="47.84185" lon="-3.52409">
        <ele>18.2</ele>
        <time>2020-07-08T10:39:40Z</time>
      </trkpt>
      <trkpt lat="47.84183" lon="-3.52406">
        <ele>18.6</ele>
        <time>2020-07-08T10:39:41Z</time>
      </trkpt>
      <trkpt lat="47.84182" lon="-3.52403">
        <ele>18.95</ele>
        <time>2020-07-08T10:39:42Z</time>
      </trkpt>
      <trkpt lat="47.8418" lon="-3.52399">
        <ele>19.23</ele>
        <time>2020-07-08T10:39:43Z</time>
      </trkpt>
      <trkpt lat="47.84178" lon="-3.52396">
        <ele>19.46</ele>
        <time>2020-07-08T10:39:44Z</time>
      </trkpt>
      <trkpt lat="47.84176" lon="-3.52393">
        <ele>19.62</ele>
        <time>2020-07-08T10:39:45Z</time>
      </trkpt>
      <trkpt lat="47.84174" lon="-3.5239">
        <ele>19.71</ele>
        <time>2020-07-08T10:39:46Z</time>
      </trkpt>
      <trkpt lat="47.84173" lon="-3.52387">
        <ele>19.83</ele>
        <time>2020-07-08T10:39:47Z</time>
      </trkpt>
      <trkpt lat="47.84172" lon="-3.52383">
        <ele>20</ele>
        <time>2020-07-08T10:39:48Z</time>
      </trkpt>
      <trkpt lat="47.8417" lon="-3.52375">
        <ele>20.19</ele>
        <time>2020-07-08T10:39:49Z</time>
      </trkpt>
      <trkpt lat="47.8417" lon="-3.52372">
        <ele>20.24</ele>
        <time>2020-07-08T10:39:50Z</time>
      </trkpt>
      <trkpt lat="47.84169" lon="-3.52369">
        <ele>20.23</ele>
        <time>2020-07-08T10:39:51Z</time>
      </trkpt>
      <trkpt lat="47.84167" lon="-3.52366">
        <ele>20.15</ele>
        <time>2020-07-08T10:39:52Z</time>
      </trkpt>
      <trkpt lat="47.84166" lon="-3.52363">
        <ele>20.08</ele>
        <time>2020-07-08T10:39:53Z</time>
      </trkpt>
      <trkpt lat="47.84166" lon="-3.5236">
        <ele>20.25</ele>
        <time>2020-07-08T10:39:54Z</time>
      </trkpt>
      <trkpt lat="47.84164" lon="-3.52358">
        <ele>20.63</ele>
        <time>2020-07-08T10:39:55Z</time>
      </trkpt>
      <trkpt lat="47.84163" lon="-3.52356">
        <ele>21.02</ele>
        <time>2020-07-08T10:39:56Z</time>
      </trkpt>
      <trkpt lat="47.84161" lon="-3.52354">
        <ele>21.48</ele>
        <time>2020-07-08T10:39:57Z</time>
      </trkpt>
      <trkpt lat="47.84159" lon="-3.5235">
        <ele>21.99</ele>
        <time>2020-07-08T10:39:58Z</time>
      </trkpt>
      <trkpt lat="47.84156" lon="-3.52346">
        <ele>22.52</ele>
        <time>2020-07-08T10:39:59Z</time>
      </trkpt>
      <trkpt lat="47.84153" lon="-3.52344">
        <ele>23.01</ele>
        <time>2020-07-08T10:40:00Z</time>
      </trkpt>
      <trkpt lat="47.84151" lon="-3.52341">
        <ele>23.41</ele>
        <time>2020-07-08T10:40:01Z</time>
      </trkpt>
      <trkpt lat="47.84149" lon="-3.52339">
        <ele>23.7</ele>
        <time>2020-07-08T10:40:02Z</time>
      </trkpt>
      <trkpt lat="47.84147" lon="-3.52337">
        <ele>23.92</ele>
        <time>2020-07-08T10:40:03Z</time>
      </trkpt>
      <trkpt lat="47.84146" lon="-3.52335">
        <ele>24.04</ele>
        <time>2020-07-08T10:40:04Z</time>
      </trkpt>
      <trkpt lat="47.84144" lon="-3.52332">
        <ele>24.13</ele>
        <time>2020-07-08T10:40:05Z</time>
      </trkpt>
      <trkpt lat="47.84142" lon="-3.52329">
        <ele>24.21</ele>
        <time>2020-07-08T10:40:06Z</time>
      </trkpt>
      <trkpt lat="47.8414" lon="-3.52328">
        <ele>24.25</ele>
        <time>2020-07-08T10:40:07Z</time>
      </trkpt>
      <trkpt lat="47.84139" lon="-3.52326">
        <ele>24.24</ele>
        <time>2020-07-08T10:40:08Z</time>
      </trkpt>
      <trkpt lat="47.84137" lon="-3.52324">
        <ele>24.29</ele>
        <time>2020-07-08T10:40:09Z</time>
      </trkpt>
      <trkpt lat="47.84136" lon="-3.52324">
        <ele>24.38</ele>
        <time>2020-07-08T10:40:10Z</time>
      </trkpt>
      <trkpt lat="47.84135" lon="-3.52323">
        <ele>24.49</ele>
        <time>2020-07-08T10:40:11Z</time>
      </trkpt>
      <trkpt lat="47.84133" lon="-3.52322">
        <ele>24.65</ele>
        <time>2020-07-08T10:40:12Z</time>
      </trkpt>
      <trkpt lat="47.84132" lon="-3.52321">
        <ele>24.76</ele>
        <time>2020-07-08T10:40:13Z</time>
      </trkpt>
      <trkpt lat="47.8413" lon="-3.52319">
        <ele>24.86</ele>
        <time>2020-07-08T10:40:14Z</time>
      </trkpt>
      <trkpt lat="47.84128" lon="-3.52318">
        <ele>25.06</ele>
        <time>2020-07-08T10:40:15Z</time>
      </trkpt>
      <trkpt lat="47.84126" lon="-3.52318">
        <ele>25.24</ele>
        <time>2020-07-08T10:40:16Z</time>
      </trkpt>
      <trkpt lat="47.84123" lon="-3.52316">
        <ele>25.49</ele>
        <time>2020-07-08T10:40:17Z</time>
      </trkpt>
      <trkpt lat="47.84121" lon="-3.52316">
        <ele>25.86</ele>
        <time>2020-07-08T10:40:18Z</time>
      </trkpt>
      <trkpt lat="47.84119" lon="-3.52314">
        <ele>26.02</ele>
        <time>2020-07-08T10:40:19Z</time>
      </trkpt>
      <trkpt lat="47.84117" lon="-3.52312">
        <ele>26</ele>
        <time>2020-07-08T10:40:20Z</time>
      </trkpt>
      <trkpt lat="47.84115" lon="-3.52309">
        <ele>25.96</ele>
        <time>2020-07-08T10:40:21Z</time>
      </trkpt>
      <trkpt lat="47.84113" lon="-3.52307">
        <ele>25.96</ele>
        <time>2020-07-08T10:40:22Z</time>
      </trkpt>
      <trkpt lat="47.84111" lon="-3.52305">
        <ele>25.98</ele>
        <time>2020-07-08T10:40:23Z</time>
      </trkpt>
      <trkpt lat="47.84109" lon="-3.52304">
        <ele>26.17</ele>
        <time>2020-07-08T10:40:24Z</time>
      </trkpt>
      <trkpt lat="47.84104" lon="-3.52301">
        <ele>26.55</ele>
        <time>2020-07-08T10:40:25Z</time>
      </trkpt>
      <trkpt lat="47.84101" lon="-3.523">
        <ele>26.8</ele>
        <time>2020-07-08T10:40:26Z</time>
      </trkpt>
      <trkpt lat="47.84099" lon="-3.52298">
        <ele>27.02</ele>
        <time>2020-07-08T10:40:27Z</time>
      </trkpt>
      <trkpt lat="47.84096" lon="-3.52296">
        <ele>27.2</ele>
        <time>2020-07-08T10:40:28Z</time>
      </trkpt>
      <trkpt lat="47.84093" lon="-3.52294">
        <ele>27.33</ele>
        <time>2020-07-08T10:40:29Z</time>
      </trkpt>
      <trkpt lat="47.84091" lon="-3.52291">
        <ele>27.41</ele>
        <time>2020-07-08T10:40:30Z</time>
      </trkpt>
      <trkpt lat="47.84088" lon="-3.5229">
        <ele>27.5</ele>
        <time>2020-07-08T10:40:31Z</time>
      </trkpt>
      <trkpt lat="47.84086" lon="-3.52288">
        <ele>27.53</ele>
        <time>2020-07-08T10:40:32Z</time>
      </trkpt>
      <trkpt lat="47.84083" lon="-3.52285">
        <ele>27.55</ele>
        <time>2020-07-08T10:40:33Z</time>
      </trkpt>
      <trkpt lat="47.84081" lon="-3.52283">
        <ele>27.56</ele>
        <time>2020-07-08T10:40:34Z</time>
      </trkpt>
      <trkpt lat="47.84078" lon="-3.5228">
        <ele>27.56</ele>
        <time>2020-07-08T10:40:35Z</time>
      </trkpt>
      <trkpt lat="47.84076" lon="-3.52277">
        <ele>27.61</ele>
        <time>2020-07-08T10:40:36Z</time>
      </trkpt>
      <trkpt lat="47.84074" lon="-3.52273">
        <ele>27.86</ele>
        <time>2020-07-08T10:40:37Z</time>
      </trkpt>
      <trkpt lat="47.84072" lon="-3.52271">
        <ele>28.07</ele>
        <time>2020-07-08T10:40:38Z</time>
      </trkpt>
      <trkpt lat="47.8407" lon="-3.52268">
        <ele>28.27</ele>
        <time>2020-07-08T10:40:39Z</time>
      </trkpt>
      <trkpt lat="47.84068" lon="-3.52264">
        <ele>28.42</ele>
        <time>2020-07-08T10:40:40Z</time>
      </trkpt>
      <trkpt lat="47.84065" lon="-3.52259">
        <ele>28.53</ele>
        <time>2020-07-08T10:40:41Z</time>
      </trkpt>
      <trkpt lat="47.84063" lon="-3.52255">
        <ele>28.53</ele>
        <time>2020-07-08T10:40:42Z</time>
      </trkpt>
      <trkpt lat="47.84061" lon="-3.52252">
        <ele>28.43</ele>
        <time>2020-07-08T10:40:43Z</time>
      </trkpt>
      <trkpt lat="47.84058" lon="-3.5225">
        <ele>28.27</ele>
        <time>2020-07-08T10:40:44Z</time>
      </trkpt>
      <trkpt lat="47.84056" lon="-3.52248">
        <ele>28.25</ele>
        <time>2020-07-08T10:40:45Z</time>
      </trkpt>
      <trkpt lat="47.84052" lon="-3.52246">
        <ele>28.46</ele>
        <time>2020-07-08T10:40:46Z</time>
      </trkpt>
      <trkpt lat="47.8405" lon="-3.52245">
        <ele>28.73</ele>
        <time>2020-07-08T10:40:47Z</time>
      </trkpt>
      <trkpt lat="47.84047" lon="-3.52242">
        <ele>29.04</ele>
        <time>2020-07-08T10:40:48Z</time>
      </trkpt>
      <trkpt lat="47.84045" lon="-3.52241">
        <ele>29.28</ele>
        <time>2020-07-08T10:40:49Z</time>
      </trkpt>
      <trkpt lat="47.84042" lon="-3.52239">
        <ele>29.49</ele>
        <time>2020-07-08T10:40:50Z</time>
      </trkpt>
      <trkpt lat="47.8404" lon="-3.52238">
        <ele>29.64</ele>
        <time>2020-07-08T10:40:51Z</time>
      </trkpt>
      <trkpt lat="47.84038" lon="-3.52238">
        <ele>29.73</ele>
        <time>2020-07-08T10:40:52Z</time>
      </trkpt>
      <trkpt lat="47.84035" lon="-3.52238">
        <ele>29.8</ele>
        <time>2020-07-08T10:40:53Z</time>
      </trkpt>
      <trkpt lat="47.84032" lon="-3.52236">
        <ele>29.88</ele>
        <time>2020-07-08T10:40:54Z</time>
      </trkpt>
      <trkpt lat="47.84029" lon="-3.52235">
        <ele>29.96</ele>
        <time>2020-07-08T10:40:55Z</time>
      </trkpt>
      <trkpt lat="47.84025" lon="-3.52233">
        <ele>30.06</ele>
        <time>2020-07-08T10:40:56Z</time>
      </trkpt>
      <trkpt lat="47.84022" lon="-3.52232">
        <ele>30.18</ele>
        <time>2020-07-08T10:40:57Z</time>
      </trkpt>
      <trkpt lat="47.84018" lon="-3.52229">
        <ele>30.3</ele>
        <time>2020-07-08T10:40:58Z</time>
      </trkpt>
      <trkpt lat="47.84015" lon="-3.52227">
        <ele>30.41</ele>
        <time>2020-07-08T10:40:59Z</time>
      </trkpt>
      <trkpt lat="47.84012" lon="-3.52224">
        <ele>30.51</ele>
        <time>2020-07-08T10:41:00Z</time>
      </trkpt>
      <trkpt lat="47.84011" lon="-3.5222">
        <ele>30.6</ele>
        <time>2020-07-08T10:41:01Z</time>
      </trkpt>
      <trkpt lat="47.8401" lon="-3.52217">
        <ele>30.68</ele>
        <time>2020-07-08T10:41:02Z</time>
      </trkpt>
      <trkpt lat="47.84009" lon="-3.52213">
        <ele>30.75</ele>
        <time>2020-07-08T10:41:03Z</time>
      </trkpt>
      <trkpt lat="47.84008" lon="-3.52209">
        <ele>30.82</ele>
        <time>2020-07-08T10:41:04Z</time>
      </trkpt>
      <trkpt lat="47.84008" lon="-3.52205">
        <ele>30.87</ele>
        <time>2020-07-08T10:41:05Z</time>
      </trkpt>
      <trkpt lat="47.84008" lon="-3.52201">
        <ele>30.91</ele>
        <time>2020-07-08T10:41:06Z</time>
      </trkpt>
      <trkpt lat="47.84009" lon="-3.52198">
        <ele>30.95</ele>
        <time>2020-07-08T10:41:07Z</time>
      </trkpt>
      <trkpt lat="47.8401" lon="-3.52195">
        <ele>30.98</ele>
        <time>2020-07-08T10:41:08Z</time>
      </trkpt>
      <trkpt lat="47.84013" lon="-3.52193">
        <ele>31.04</ele>
        <time>2020-07-08T10:41:09Z</time>
      </trkpt>
      <trkpt lat="47.84016" lon="-3.52191">
        <ele>31.1</ele>
        <time>2020-07-08T10:41:10Z</time>
      </trkpt>
      <trkpt lat="47.84019" lon="-3.52191">
        <ele>31.12</ele>
        <time>2020-07-08T10:41:11Z</time>
      </trkpt>
      <trkpt lat="47.84021" lon="-3.52191">
        <ele>31.12</ele>
        <time>2020-07-08T10:41:12Z</time>
      </trkpt>
      <trkpt lat="47.84023" lon="-3.52192">
        <ele>31.11</ele>
        <time>2020-07-08T10:41:13Z</time>
      </trkpt>
      <trkpt lat="47.84025" lon="-3.52193">
        <ele>31.08</ele>
        <time>2020-07-08T10:41:14Z</time>
      </trkpt>
      <trkpt lat="47.84028" lon="-3.52193">
        <ele>31.07</ele>
        <time>2020-07-08T10:41:15Z</time>
      </trkpt>
      <trkpt lat="47.84031" lon="-3.52195">
        <ele>31.16</ele>
        <time>2020-07-08T10:41:16Z</time>
      </trkpt>
      <trkpt lat="47.84034" lon="-3.52196">
        <ele>31.32</ele>
        <time>2020-07-08T10:41:17Z</time>
      </trkpt>
      <trkpt lat="47.84036" lon="-3.52197">
        <ele>31.44</ele>
        <time>2020-07-08T10:41:18Z</time>
      </trkpt>
      <trkpt lat="47.84039" lon="-3.52199">
        <ele>31.55</ele>
        <time>2020-07-08T10:41:19Z</time>
      </trkpt>
      <trkpt lat="47.84042" lon="-3.52201">
        <ele>31.64</ele>
        <time>2020-07-08T10:41:20Z</time>
      </trkpt>
      <trkpt lat="47.84045" lon="-3.52202">
        <ele>31.79</ele>
        <time>2020-07-08T10:41:21Z</time>
      </trkpt>
      <trkpt lat="47.84049" lon="-3.52202">
        <ele>31.96</ele>
        <time>2020-07-08T10:41:22Z</time>
      </trkpt>
      <trkpt lat="47.84052" lon="-3.52203">
        <ele>32.1</ele>
        <time>2020-07-08T10:41:23Z</time>
      </trkpt>
      <trkpt lat="47.84055" lon="-3.52205">
        <ele>32.19</ele>
        <time>2020-07-08T10:41:24Z</time>
      </trkpt>
      <trkpt lat="47.8406" lon="-3.52206">
        <ele>32.15</ele>
        <time>2020-07-08T10:41:25Z</time>
      </trkpt>
      <trkpt lat="47.84065" lon="-3.52208">
        <ele>32.07</ele>
        <time>2020-07-08T10:41:26Z</time>
      </trkpt>
      <trkpt lat="47.8407" lon="-3.52209">
        <ele>31.99</ele>
        <time>2020-07-08T10:41:27Z</time>
      </trkpt>
      <trkpt lat="47.84074" lon="-3.5221">
        <ele>31.92</ele>
        <time>2020-07-08T10:41:28Z</time>
      </trkpt>
      <trkpt lat="47.84078" lon="-3.52212">
        <ele>31.81</ele>
        <time>2020-07-08T10:41:29Z</time>
      </trkpt>
      <trkpt lat="47.84083" lon="-3.52213">
        <ele>31.69</ele>
        <time>2020-07-08T10:41:30Z</time>
      </trkpt>
      <trkpt lat="47.84087" lon="-3.52214">
        <ele>31.7</ele>
        <time>2020-07-08T10:41:31Z</time>
      </trkpt>
      <trkpt lat="47.84091" lon="-3.52216">
        <ele>31.71</ele>
        <time>2020-07-08T10:41:32Z</time>
      </trkpt>
      <trkpt lat="47.84094" lon="-3.52216">
        <ele>31.76</ele>
        <time>2020-07-08T10:41:33Z</time>
      </trkpt>
      <trkpt lat="47.84097" lon="-3.52218">
        <ele>31.81</ele>
        <time>2020-07-08T10:41:34Z</time>
      </trkpt>
      <trkpt lat="47.84101" lon="-3.52218">
        <ele>31.89</ele>
        <time>2020-07-08T10:41:35Z</time>
      </trkpt>
      <trkpt lat="47.84104" lon="-3.52219">
        <ele>31.97</ele>
        <time>2020-07-08T10:41:36Z</time>
      </trkpt>
      <trkpt lat="47.84107" lon="-3.52219">
        <ele>32.05</ele>
        <time>2020-07-08T10:41:37Z</time>
      </trkpt>
      <trkpt lat="47.84109" lon="-3.52218">
        <ele>32.17</ele>
        <time>2020-07-08T10:41:38Z</time>
      </trkpt>
      <trkpt lat="47.84113" lon="-3.52218">
        <ele>32.3</ele>
        <time>2020-07-08T10:41:39Z</time>
      </trkpt>
      <trkpt lat="47.84116" lon="-3.52218">
        <ele>32.43</ele>
        <time>2020-07-08T10:41:40Z</time>
      </trkpt>
      <trkpt lat="47.84119" lon="-3.52217">
        <ele>32.58</ele>
        <time>2020-07-08T10:41:41Z</time>
      </trkpt>
      <trkpt lat="47.84123" lon="-3.52216">
        <ele>32.77</ele>
        <time>2020-07-08T10:41:42Z</time>
      </trkpt>
      <trkpt lat="47.84127" lon="-3.52216">
        <ele>32.97</ele>
        <time>2020-07-08T10:41:43Z</time>
      </trkpt>
      <trkpt lat="47.84133" lon="-3.52215">
        <ele>33.2</ele>
        <time>2020-07-08T10:41:44Z</time>
      </trkpt>
      <trkpt lat="47.84137" lon="-3.52213">
        <ele>33.48</ele>
        <time>2020-07-08T10:41:45Z</time>
      </trkpt>
      <trkpt lat="47.84143" lon="-3.52212">
        <ele>33.75</ele>
        <time>2020-07-08T10:41:46Z</time>
      </trkpt>
      <trkpt lat="47.84148" lon="-3.52211">
        <ele>34.03</ele>
        <time>2020-07-08T10:41:47Z</time>
      </trkpt>
      <trkpt lat="47.84153" lon="-3.52209">
        <ele>34.33</ele>
        <time>2020-07-08T10:41:48Z</time>
      </trkpt>
      <trkpt lat="47.84157" lon="-3.52207">
        <ele>34.64</ele>
        <time>2020-07-08T10:41:49Z</time>
      </trkpt>
      <trkpt lat="47.84161" lon="-3.52205">
        <ele>34.9</ele>
        <time>2020-07-08T10:41:50Z</time>
      </trkpt>
      <trkpt lat="47.84163" lon="-3.52203">
        <ele>35.14</ele>
        <time>2020-07-08T10:41:51Z</time>
      </trkpt>
      <trkpt lat="47.84167" lon="-3.52202">
        <ele>35.35</ele>
        <time>2020-07-08T10:41:52Z</time>
      </trkpt>
      <trkpt lat="47.84171" lon="-3.522">
        <ele>35.6</ele>
        <time>2020-07-08T10:41:53Z</time>
      </trkpt>
      <trkpt lat="47.84174" lon="-3.52199">
        <ele>35.84</ele>
        <time>2020-07-08T10:41:54Z</time>
      </trkpt>
      <trkpt lat="47.84177" lon="-3.52197">
        <ele>36.11</ele>
        <time>2020-07-08T10:41:55Z</time>
      </trkpt>
      <trkpt lat="47.84181" lon="-3.52196">
        <ele>36.29</ele>
        <time>2020-07-08T10:41:56Z</time>
      </trkpt>
      <trkpt lat="47.84184" lon="-3.52195">
        <ele>36.52</ele>
        <time>2020-07-08T10:41:57Z</time>
      </trkpt>
      <trkpt lat="47.84188" lon="-3.52193">
        <ele>36.75</ele>
        <time>2020-07-08T10:41:58Z</time>
      </trkpt>
      <trkpt lat="47.84193" lon="-3.52193">
        <ele>36.97</ele>
        <time>2020-07-08T10:41:59Z</time>
      </trkpt>
      <trkpt lat="47.84196" lon="-3.52192">
        <ele>37.22</ele>
        <time>2020-07-08T10:42:00Z</time>
      </trkpt>
      <trkpt lat="47.842" lon="-3.52189">
        <ele>37.59</ele>
        <time>2020-07-08T10:42:01Z</time>
      </trkpt>
      <trkpt lat="47.84204" lon="-3.52187">
        <ele>37.98</ele>
        <time>2020-07-08T10:42:02Z</time>
      </trkpt>
      <trkpt lat="47.84208" lon="-3.52185">
        <ele>38.34</ele>
        <time>2020-07-08T10:42:03Z</time>
      </trkpt>
      <trkpt lat="47.84212" lon="-3.52183">
        <ele>38.68</ele>
        <time>2020-07-08T10:42:04Z</time>
      </trkpt>
      <trkpt lat="47.84217" lon="-3.52182">
        <ele>39.02</ele>
        <time>2020-07-08T10:42:05Z</time>
      </trkpt>
      <trkpt lat="47.84221" lon="-3.52181">
        <ele>39.31</ele>
        <time>2020-07-08T10:42:06Z</time>
      </trkpt>
      <trkpt lat="47.84225" lon="-3.5218">
        <ele>39.46</ele>
        <time>2020-07-08T10:42:07Z</time>
      </trkpt>
      <trkpt lat="47.84229" lon="-3.52178">
        <ele>39.55</ele>
        <time>2020-07-08T10:42:08Z</time>
      </trkpt>
      <trkpt lat="47.84233" lon="-3.52177">
        <ele>39.61</ele>
        <time>2020-07-08T10:42:09Z</time>
      </trkpt>
      <trkpt lat="47.84237" lon="-3.52175">
        <ele>39.67</ele>
        <time>2020-07-08T10:42:10Z</time>
      </trkpt>
      <trkpt lat="47.84241" lon="-3.52173">
        <ele>39.73</ele>
        <time>2020-07-08T10:42:11Z</time>
      </trkpt>
      <trkpt lat="47.84246" lon="-3.52171">
        <ele>39.81</ele>
        <time>2020-07-08T10:42:12Z</time>
      </trkpt>
      <trkpt lat="47.84251" lon="-3.52168">
        <ele>39.91</ele>
        <time>2020-07-08T10:42:13Z</time>
      </trkpt>
      <trkpt lat="47.84255" lon="-3.52165">
        <ele>40.02</ele>
        <time>2020-07-08T10:42:14Z</time>
      </trkpt>
      <trkpt lat="47.84259" lon="-3.52162">
        <ele>40.13</ele>
        <time>2020-07-08T10:42:15Z</time>
      </trkpt>
      <trkpt lat="47.84263" lon="-3.52158">
        <ele>40.25</ele>
        <time>2020-07-08T10:42:16Z</time>
      </trkpt>
      <trkpt lat="47.84267" lon="-3.52154">
        <ele>40.38</ele>
        <time>2020-07-08T10:42:17Z</time>
      </trkpt>
      <trkpt lat="47.84272" lon="-3.52151">
        <ele>40.51</ele>
        <time>2020-07-08T10:42:18Z</time>
      </trkpt>
      <trkpt lat="47.84276" lon="-3.52148">
        <ele>40.63</ele>
        <time>2020-07-08T10:42:19Z</time>
      </trkpt>
      <trkpt lat="47.8428" lon="-3.52145">
        <ele>40.68</ele>
        <time>2020-07-08T10:42:20Z</time>
      </trkpt>
      <trkpt lat="47.84285" lon="-3.52143">
        <ele>40.66</ele>
        <time>2020-07-08T10:42:21Z</time>
      </trkpt>
      <trkpt lat="47.84289" lon="-3.5214">
        <ele>40.59</ele>
        <time>2020-07-08T10:42:22Z</time>
      </trkpt>
      <trkpt lat="47.84294" lon="-3.52137">
        <ele>40.49</ele>
        <time>2020-07-08T10:42:23Z</time>
      </trkpt>
      <trkpt lat="47.84299" lon="-3.52134">
        <ele>40.42</ele>
        <time>2020-07-08T10:42:24Z</time>
      </trkpt>
      <trkpt lat="47.84303" lon="-3.52131">
        <ele>40.37</ele>
        <time>2020-07-08T10:42:25Z</time>
      </trkpt>
      <trkpt lat="47.84308" lon="-3.52128">
        <ele>40.38</ele>
        <time>2020-07-08T10:42:26Z</time>
      </trkpt>
      <trkpt lat="47.84313" lon="-3.52126">
        <ele>40.45</ele>
        <time>2020-07-08T10:42:27Z</time>
      </trkpt>
      <trkpt lat="47.84317" lon="-3.52123">
        <ele>40.54</ele>
        <time>2020-07-08T10:42:28Z</time>
      </trkpt>
      <trkpt lat="47.84322" lon="-3.5212">
        <ele>40.63</ele>
        <time>2020-07-08T10:42:29Z</time>
      </trkpt>
      <trkpt lat="47.84327" lon="-3.52117">
        <ele>40.74</ele>
        <time>2020-07-08T10:42:30Z</time>
      </trkpt>
      <trkpt lat="47.84331" lon="-3.52114">
        <ele>40.85</ele>
        <time>2020-07-08T10:42:31Z</time>
      </trkpt>
      <trkpt lat="47.84336" lon="-3.52111">
        <ele>40.88</ele>
        <time>2020-07-08T10:42:32Z</time>
      </trkpt>
      <trkpt lat="47.84341" lon="-3.52108">
        <ele>40.79</ele>
        <time>2020-07-08T10:42:33Z</time>
      </trkpt>
      <trkpt lat="47.84346" lon="-3.52105">
        <ele>40.68</ele>
        <time>2020-07-08T10:42:34Z</time>
      </trkpt>
      <trkpt lat="47.84351" lon="-3.52102">
        <ele>40.6</ele>
        <time>2020-07-08T10:42:35Z</time>
      </trkpt>
      <trkpt lat="47.84356" lon="-3.52099">
        <ele>40.55</ele>
        <time>2020-07-08T10:42:36Z</time>
      </trkpt>
      <trkpt lat="47.84361" lon="-3.52096">
        <ele>40.54</ele>
        <time>2020-07-08T10:42:37Z</time>
      </trkpt>
      <trkpt lat="47.84366" lon="-3.52093">
        <ele>40.53</ele>
        <time>2020-07-08T10:42:38Z</time>
      </trkpt>
      <trkpt lat="47.84372" lon="-3.5209">
        <ele>40.48</ele>
        <time>2020-07-08T10:42:39Z</time>
      </trkpt>
      <trkpt lat="47.84378" lon="-3.52087">
        <ele>40.39</ele>
        <time>2020-07-08T10:42:40Z</time>
      </trkpt>
      <trkpt lat="47.84383" lon="-3.52084">
        <ele>40.25</ele>
        <time>2020-07-08T10:42:41Z</time>
      </trkpt>
      <trkpt lat="47.84389" lon="-3.52081">
        <ele>40.15</ele>
        <time>2020-07-08T10:42:42Z</time>
      </trkpt>
      <trkpt lat="47.84394" lon="-3.52078">
        <ele>40.19</ele>
        <time>2020-07-08T10:42:43Z</time>
      </trkpt>
      <trkpt lat="47.844" lon="-3.52075">
        <ele>40.27</ele>
        <time>2020-07-08T10:42:44Z</time>
      </trkpt>
      <trkpt lat="47.84405" lon="-3.52072">
        <ele>40.38</ele>
        <time>2020-07-08T10:42:45Z</time>
      </trkpt>
      <trkpt lat="47.8441" lon="-3.52069">
        <ele>40.48</ele>
        <time>2020-07-08T10:42:46Z</time>
      </trkpt>
      <trkpt lat="47.84415" lon="-3.52066">
        <ele>40.58</ele>
        <time>2020-07-08T10:42:47Z</time>
      </trkpt>
      <trkpt lat="47.8442" lon="-3.52063">
        <ele>40.58</ele>
        <time>2020-07-08T10:42:48Z</time>
      </trkpt>
      <trkpt lat="47.84426" lon="-3.52061">
        <ele>40.52</ele>
        <time>2020-07-08T10:42:49Z</time>
      </trkpt>
      <trkpt lat="47.84431" lon="-3.52058">
        <ele>40.45</ele>
        <time>2020-07-08T10:42:50Z</time>
      </trkpt>
      <trkpt lat="47.84436" lon="-3.52055">
        <ele>40.38</ele>
        <time>2020-07-08T10:42:51Z</time>
      </trkpt>
      <trkpt lat="47.84441" lon="-3.52052">
        <ele>40.31</ele>
        <time>2020-07-08T10:42:52Z</time>
      </trkpt>
      <trkpt lat="47.84446" lon="-3.52048">
        <ele>40.28</ele>
        <time>2020-07-08T10:42:53Z</time>
      </trkpt>
      <trkpt lat="47.84451" lon="-3.52046">
        <ele>40.33</ele>
        <time>2020-07-08T10:42:54Z</time>
      </trkpt>
      <trkpt lat="47.84456" lon="-3.52044">
        <ele>40.4</ele>
        <time>2020-07-08T10:42:55Z</time>
      </trkpt>
      <trkpt lat="47.84461" lon="-3.52041">
        <ele>40.5</ele>
        <time>2020-07-08T10:42:56Z</time>
      </trkpt>
      <trkpt lat="47.84466" lon="-3.52038">
        <ele>40.6</ele>
        <time>2020-07-08T10:42:57Z</time>
      </trkpt>
      <trkpt lat="47.84471" lon="-3.52035">
        <ele>40.7</ele>
        <time>2020-07-08T10:42:58Z</time>
      </trkpt>
      <trkpt lat="47.84475" lon="-3.52032">
        <ele>40.88</ele>
        <time>2020-07-08T10:42:59Z</time>
      </trkpt>
      <trkpt lat="47.8448" lon="-3.52029">
        <ele>41.12</ele>
        <time>2020-07-08T10:43:00Z</time>
      </trkpt>
      <trkpt lat="47.84484" lon="-3.52027">
        <ele>41.34</ele>
        <time>2020-07-08T10:43:01Z</time>
      </trkpt>
      <trkpt lat="47.84488" lon="-3.52025">
        <ele>41.51</ele>
        <time>2020-07-08T10:43:02Z</time>
      </trkpt>
      <trkpt lat="47.84492" lon="-3.52023">
        <ele>41.66</ele>
        <time>2020-07-08T10:43:03Z</time>
      </trkpt>
      <trkpt lat="47.84496" lon="-3.5202">
        <ele>41.81</ele>
        <time>2020-07-08T10:43:04Z</time>
      </trkpt>
      <trkpt lat="47.84501" lon="-3.52018">
        <ele>41.95</ele>
        <time>2020-07-08T10:43:05Z</time>
      </trkpt>
      <trkpt lat="47.84505" lon="-3.52016">
        <ele>42.11</ele>
        <time>2020-07-08T10:43:06Z</time>
      </trkpt>
      <trkpt lat="47.84509" lon="-3.52015">
        <ele>42.26</ele>
        <time>2020-07-08T10:43:07Z</time>
      </trkpt>
      <trkpt lat="47.84513" lon="-3.52012">
        <ele>42.41</ele>
        <time>2020-07-08T10:43:08Z</time>
      </trkpt>
      <trkpt lat="47.84517" lon="-3.5201">
        <ele>42.56</ele>
        <time>2020-07-08T10:43:09Z</time>
      </trkpt>
      <trkpt lat="47.84522" lon="-3.52008">
        <ele>42.71</ele>
        <time>2020-07-08T10:43:10Z</time>
      </trkpt>
      <trkpt lat="47.84526" lon="-3.52006">
        <ele>42.87</ele>
        <time>2020-07-08T10:43:11Z</time>
      </trkpt>
      <trkpt lat="47.84531" lon="-3.52003">
        <ele>43.09</ele>
        <time>2020-07-08T10:43:12Z</time>
      </trkpt>
      <trkpt lat="47.84536" lon="-3.52001">
        <ele>43.42</ele>
        <time>2020-07-08T10:43:13Z</time>
      </trkpt>
      <trkpt lat="47.8454" lon="-3.51999">
        <ele>43.74</ele>
        <time>2020-07-08T10:43:14Z</time>
      </trkpt>
      <trkpt lat="47.84545" lon="-3.51997">
        <ele>44.07</ele>
        <time>2020-07-08T10:43:15Z</time>
      </trkpt>
      <trkpt lat="47.84549" lon="-3.51995">
        <ele>44.38</ele>
        <time>2020-07-08T10:43:16Z</time>
      </trkpt>
      <trkpt lat="47.84554" lon="-3.51992">
        <ele>44.71</ele>
        <time>2020-07-08T10:43:17Z</time>
      </trkpt>
      <trkpt lat="47.84558" lon="-3.5199">
        <ele>45.03</ele>
        <time>2020-07-08T10:43:18Z</time>
      </trkpt>
      <trkpt lat="47.84562" lon="-3.51988">
        <ele>45.35</ele>
        <time>2020-07-08T10:43:19Z</time>
      </trkpt>
      <trkpt lat="47.84567" lon="-3.51986">
        <ele>45.66</ele>
        <time>2020-07-08T10:43:20Z</time>
      </trkpt>
      <trkpt lat="47.8457" lon="-3.51984">
        <ele>45.95</ele>
        <time>2020-07-08T10:43:21Z</time>
      </trkpt>
      <trkpt lat="47.84574" lon="-3.51983">
        <ele>46.21</ele>
        <time>2020-07-08T10:43:22Z</time>
      </trkpt>
      <trkpt lat="47.84577" lon="-3.51982">
        <ele>46.47</ele>
        <time>2020-07-08T10:43:23Z</time>
      </trkpt>
      <trkpt lat="47.84581" lon="-3.5198">
        <ele>46.75</ele>
        <time>2020-07-08T10:43:24Z</time>
      </trkpt>
      <trkpt lat="47.84586" lon="-3.51978">
        <ele>47.08</ele>
        <time>2020-07-08T10:43:25Z</time>
      </trkpt>
      <trkpt lat="47.8459" lon="-3.51976">
        <ele>47.48</ele>
        <time>2020-07-08T10:43:26Z</time>
      </trkpt>
      <trkpt lat="47.84593" lon="-3.51974">
        <ele>47.89</ele>
        <time>2020-07-08T10:43:27Z</time>
      </trkpt>
      <trkpt lat="47.84597" lon="-3.51973">
        <ele>48.33</ele>
        <time>2020-07-08T10:43:28Z</time>
      </trkpt>
      <trkpt lat="47.84602" lon="-3.51972">
        <ele>48.8</ele>
        <time>2020-07-08T10:43:29Z</time>
      </trkpt>
      <trkpt lat="47.84606" lon="-3.5197">
        <ele>49.23</ele>
        <time>2020-07-08T10:43:30Z</time>
      </trkpt>
      <trkpt lat="47.8461" lon="-3.51968">
        <ele>49.65</ele>
        <time>2020-07-08T10:43:31Z</time>
      </trkpt>
      <trkpt lat="47.84613" lon="-3.51967">
        <ele>50</ele>
        <time>2020-07-08T10:43:32Z</time>
      </trkpt>
      <trkpt lat="47.84617" lon="-3.51966">
        <ele>50.32</ele>
        <time>2020-07-08T10:43:33Z</time>
      </trkpt>
      <trkpt lat="47.84621" lon="-3.51965">
        <ele>50.61</ele>
        <time>2020-07-08T10:43:34Z</time>
      </trkpt>
      <trkpt lat="47.84625" lon="-3.51964">
        <ele>50.87</ele>
        <time>2020-07-08T10:43:35Z</time>
      </trkpt>
      <trkpt lat="47.84627" lon="-3.51962">
        <ele>51.09</ele>
        <time>2020-07-08T10:43:36Z</time>
      </trkpt>
      <trkpt lat="47.8463" lon="-3.51961">
        <ele>51.29</ele>
        <time>2020-07-08T10:43:37Z</time>
      </trkpt>
      <trkpt lat="47.84633" lon="-3.5196">
        <ele>51.51</ele>
        <time>2020-07-08T10:43:38Z</time>
      </trkpt>
      <trkpt lat="47.84636" lon="-3.51959">
        <ele>51.71</ele>
        <time>2020-07-08T10:43:39Z</time>
      </trkpt>
      <trkpt lat="47.84639" lon="-3.51958">
        <ele>51.91</ele>
        <time>2020-07-08T10:43:40Z</time>
      </trkpt>
      <trkpt lat="47.84642" lon="-3.51957">
        <ele>51.97</ele>
        <time>2020-07-08T10:43:41Z</time>
      </trkpt>
      <trkpt lat="47.84644" lon="-3.51956">
        <ele>51.99</ele>
        <time>2020-07-08T10:43:42Z</time>
      </trkpt>
      <trkpt lat="47.84647" lon="-3.51955">
        <ele>52</ele>
        <time>2020-07-08T10:43:43Z</time>
      </trkpt>
      <trkpt lat="47.84649" lon="-3.51953">
        <ele>52</ele>
        <time>2020-07-08T10:43:44Z</time>
      </trkpt>
      <trkpt lat="47.84652" lon="-3.51952">
        <ele>52</ele>
        <time>2020-07-08T10:43:45Z</time>
      </trkpt>
      <trkpt lat="47.84656" lon="-3.51949">
        <ele>52</ele>
        <time>2020-07-08T10:43:46Z</time>
      </trkpt>
      <trkpt lat="47.84659" lon="-3.51946">
        <ele>52</ele>
        <time>2020-07-08T10:43:47Z</time>
      </trkpt>
      <trkpt lat="47.84663" lon="-3.51943">
        <ele>52</ele>
        <time>2020-07-08T10:43:48Z</time>
      </trkpt>
      <trkpt lat="47.84668" lon="-3.51941">
        <ele>51.98</ele>
        <time>2020-07-08T10:43:49Z</time>
      </trkpt>
      <trkpt lat="47.84672" lon="-3.51937">
        <ele>51.87</ele>
        <time>2020-07-08T10:43:50Z</time>
      </trkpt>
      <trkpt lat="47.84676" lon="-3.51933">
        <ele>51.73</ele>
        <time>2020-07-08T10:43:51Z</time>
      </trkpt>
      <trkpt lat="47.8468" lon="-3.5193">
        <ele>51.58</ele>
        <time>2020-07-08T10:43:52Z</time>
      </trkpt>
      <trkpt lat="47.84685" lon="-3.51927">
        <ele>51.42</ele>
        <time>2020-07-08T10:43:53Z</time>
      </trkpt>
      <trkpt lat="47.8469" lon="-3.51923">
        <ele>51.23</ele>
        <time>2020-07-08T10:43:54Z</time>
      </trkpt>
      <trkpt lat="47.84696" lon="-3.51918">
        <ele>51</ele>
        <time>2020-07-08T10:43:55Z</time>
      </trkpt>
      <trkpt lat="47.84702" lon="-3.51913">
        <ele>50.5</ele>
        <time>2020-07-08T10:43:56Z</time>
      </trkpt>
      <trkpt lat="47.84707" lon="-3.51909">
        <ele>49.89</ele>
        <time>2020-07-08T10:43:57Z</time>
      </trkpt>
      <trkpt lat="47.84714" lon="-3.51904">
        <ele>49.25</ele>
        <time>2020-07-08T10:43:58Z</time>
      </trkpt>
      <trkpt lat="47.84721" lon="-3.51899">
        <ele>48.67</ele>
        <time>2020-07-08T10:43:59Z</time>
      </trkpt>
      <trkpt lat="47.84728" lon="-3.51893">
        <ele>48.04</ele>
        <time>2020-07-08T10:44:00Z</time>
      </trkpt>
      <trkpt lat="47.84735" lon="-3.51888">
        <ele>47.36</ele>
        <time>2020-07-08T10:44:01Z</time>
      </trkpt>
      <trkpt lat="47.84742" lon="-3.51884">
        <ele>46.56</ele>
        <time>2020-07-08T10:44:02Z</time>
      </trkpt>
      <trkpt lat="47.84749" lon="-3.51879">
        <ele>45.73</ele>
        <time>2020-07-08T10:44:03Z</time>
      </trkpt>
      <trkpt lat="47.84757" lon="-3.51874">
        <ele>44.54</ele>
        <time>2020-07-08T10:44:04Z</time>
      </trkpt>
      <trkpt lat="47.84765" lon="-3.51869">
        <ele>43.17</ele>
        <time>2020-07-08T10:44:05Z</time>
      </trkpt>
      <trkpt lat="47.84773" lon="-3.51866">
        <ele>41.77</ele>
        <time>2020-07-08T10:44:06Z</time>
      </trkpt>
      <trkpt lat="47.84781" lon="-3.51863">
        <ele>40.45</ele>
        <time>2020-07-08T10:44:07Z</time>
      </trkpt>
      <trkpt lat="47.84788" lon="-3.51861">
        <ele>39.32</ele>
        <time>2020-07-08T10:44:08Z</time>
      </trkpt>
      <trkpt lat="47.84796" lon="-3.51858">
        <ele>38.32</ele>
        <time>2020-07-08T10:44:09Z</time>
      </trkpt>
      <trkpt lat="47.84805" lon="-3.51857">
        <ele>37.35</ele>
        <time>2020-07-08T10:44:10Z</time>
      </trkpt>
      <trkpt lat="47.84814" lon="-3.51857">
        <ele>36.33</ele>
        <time>2020-07-08T10:44:11Z</time>
      </trkpt>
      <trkpt lat="47.84823" lon="-3.5186">
        <ele>35.15</ele>
        <time>2020-07-08T10:44:12Z</time>
      </trkpt>
      <trkpt lat="47.84833" lon="-3.51864">
        <ele>33.99</ele>
        <time>2020-07-08T10:44:13Z</time>
      </trkpt>
      <trkpt lat="47.8484" lon="-3.5187">
        <ele>33.6</ele>
        <time>2020-07-08T10:44:14Z</time>
      </trkpt>
      <trkpt lat="47.84846" lon="-3.51876">
        <ele>33.5</ele>
        <time>2020-07-08T10:44:15Z</time>
      </trkpt>
      <trkpt lat="47.84851" lon="-3.51882">
        <ele>33.26</ele>
        <time>2020-07-08T10:44:16Z</time>
      </trkpt>
      <trkpt lat="47.84858" lon="-3.51888">
        <ele>32.67</ele>
        <time>2020-07-08T10:44:17Z</time>
      </trkpt>
      <trkpt lat="47.84865" lon="-3.51896">
        <ele>31.96</ele>
        <time>2020-07-08T10:44:18Z</time>
      </trkpt>
      <trkpt lat="47.8487" lon="-3.51903">
        <ele>31.19</ele>
        <time>2020-07-08T10:44:19Z</time>
      </trkpt>
      <trkpt lat="47.84874" lon="-3.51909">
        <ele>30.54</ele>
        <time>2020-07-08T10:44:20Z</time>
      </trkpt>
      <trkpt lat="47.84879" lon="-3.51915">
        <ele>29.84</ele>
        <time>2020-07-08T10:44:21Z</time>
      </trkpt>
      <trkpt lat="47.84883" lon="-3.5192">
        <ele>28.98</ele>
        <time>2020-07-08T10:44:22Z</time>
      </trkpt>
      <trkpt lat="47.84886" lon="-3.51926">
        <ele>28.31</ele>
        <time>2020-07-08T10:44:23Z</time>
      </trkpt>
      <trkpt lat="47.84889" lon="-3.5193">
        <ele>27.67</ele>
        <time>2020-07-08T10:44:24Z</time>
      </trkpt>
      <trkpt lat="47.84893" lon="-3.51933">
        <ele>26.78</ele>
        <time>2020-07-08T10:44:25Z</time>
      </trkpt>
      <trkpt lat="47.84899" lon="-3.51932">
        <ele>25.46</ele>
        <time>2020-07-08T10:44:26Z</time>
      </trkpt>
      <trkpt lat="47.84905" lon="-3.51928">
        <ele>23.75</ele>
        <time>2020-07-08T10:44:27Z</time>
      </trkpt>
      <trkpt lat="47.84911" lon="-3.51922">
        <ele>22.15</ele>
        <time>2020-07-08T10:44:28Z</time>
      </trkpt>
      <trkpt lat="47.84916" lon="-3.51914">
        <ele>20.89</ele>
        <time>2020-07-08T10:44:29Z</time>
      </trkpt>
      <trkpt lat="47.84921" lon="-3.51907">
        <ele>20.89</ele>
        <time>2020-07-08T10:44:30Z</time>
      </trkpt>
      <trkpt lat="47.84927" lon="-3.51901">
        <ele>21.04</ele>
        <time>2020-07-08T10:44:31Z</time>
      </trkpt>
      <trkpt lat="47.84933" lon="-3.51897">
        <ele>20.94</ele>
        <time>2020-07-08T10:44:32Z</time>
      </trkpt>
      <trkpt lat="47.84939" lon="-3.51895">
        <ele>20.6</ele>
        <time>2020-07-08T10:44:33Z</time>
      </trkpt>
      <trkpt lat="47.84945" lon="-3.51893">
        <ele>20.25</ele>
        <time>2020-07-08T10:44:34Z</time>
      </trkpt>
      <trkpt lat="47.84952" lon="-3.51894">
        <ele>20.6</ele>
        <time>2020-07-08T10:44:35Z</time>
      </trkpt>
      <trkpt lat="47.84958" lon="-3.51895">
        <ele>21.09</ele>
        <time>2020-07-08T10:44:36Z</time>
      </trkpt>
      <trkpt lat="47.84962" lon="-3.51897">
        <ele>21.55</ele>
        <time>2020-07-08T10:44:37Z</time>
      </trkpt>
      <trkpt lat="47.84967" lon="-3.51898">
        <ele>21.98</ele>
        <time>2020-07-08T10:44:38Z</time>
      </trkpt>
      <trkpt lat="47.84971" lon="-3.51897">
        <ele>22.39</ele>
        <time>2020-07-08T10:44:39Z</time>
      </trkpt>
      <trkpt lat="47.84975" lon="-3.51896">
        <ele>22.83</ele>
        <time>2020-07-08T10:44:40Z</time>
      </trkpt>
      <trkpt lat="47.84978" lon="-3.51895">
        <ele>23.25</ele>
        <time>2020-07-08T10:44:41Z</time>
      </trkpt>
      <trkpt lat="47.84981" lon="-3.51893">
        <ele>23.66</ele>
        <time>2020-07-08T10:44:42Z</time>
      </trkpt>
      <trkpt lat="47.84984" lon="-3.51891">
        <ele>24.07</ele>
        <time>2020-07-08T10:44:43Z</time>
      </trkpt>
      <trkpt lat="47.84988" lon="-3.51889">
        <ele>24.53</ele>
        <time>2020-07-08T10:44:44Z</time>
      </trkpt>
      <trkpt lat="47.84991" lon="-3.51887">
        <ele>25.18</ele>
        <time>2020-07-08T10:44:45Z</time>
      </trkpt>
      <trkpt lat="47.84994" lon="-3.51884">
        <ele>25.91</ele>
        <time>2020-07-08T10:44:46Z</time>
      </trkpt>
      <trkpt lat="47.84998" lon="-3.51881">
        <ele>26.71</ele>
        <time>2020-07-08T10:44:47Z</time>
      </trkpt>
      <trkpt lat="47.85" lon="-3.51879">
        <ele>27.41</ele>
        <time>2020-07-08T10:44:48Z</time>
      </trkpt>
      <trkpt lat="47.85003" lon="-3.51877">
        <ele>27.83</ele>
        <time>2020-07-08T10:44:49Z</time>
      </trkpt>
      <trkpt lat="47.85005" lon="-3.51875">
        <ele>28.15</ele>
        <time>2020-07-08T10:44:50Z</time>
      </trkpt>
      <trkpt lat="47.85008" lon="-3.51872">
        <ele>28.43</ele>
        <time>2020-07-08T10:44:51Z</time>
      </trkpt>
      <trkpt lat="47.85011" lon="-3.5187">
        <ele>28.64</ele>
        <time>2020-07-08T10:44:52Z</time>
      </trkpt>
      <trkpt lat="47.85014" lon="-3.51868">
        <ele>28.76</ele>
        <time>2020-07-08T10:44:53Z</time>
      </trkpt>
      <trkpt lat="47.85016" lon="-3.51865">
        <ele>28.89</ele>
        <time>2020-07-08T10:44:54Z</time>
      </trkpt>
      <trkpt lat="47.85018" lon="-3.51861">
        <ele>28.99</ele>
        <time>2020-07-08T10:44:55Z</time>
      </trkpt>
      <trkpt lat="47.85021" lon="-3.51858">
        <ele>29.04</ele>
        <time>2020-07-08T10:44:56Z</time>
      </trkpt>
      <trkpt lat="47.85024" lon="-3.51855">
        <ele>29.12</ele>
        <time>2020-07-08T10:44:57Z</time>
      </trkpt>
      <trkpt lat="47.85027" lon="-3.51852">
        <ele>29.32</ele>
        <time>2020-07-08T10:44:58Z</time>
      </trkpt>
      <trkpt lat="47.8503" lon="-3.51848">
        <ele>29.63</ele>
        <time>2020-07-08T10:44:59Z</time>
      </trkpt>
      <trkpt lat="47.85032" lon="-3.51845">
        <ele>29.95</ele>
        <time>2020-07-08T10:45:00Z</time>
      </trkpt>
      <trkpt lat="47.85034" lon="-3.51841">
        <ele>30.27</ele>
        <time>2020-07-08T10:45:01Z</time>
      </trkpt>
      <trkpt lat="47.85036" lon="-3.51837">
        <ele>30.6</ele>
        <time>2020-07-08T10:45:02Z</time>
      </trkpt>
      <trkpt lat="47.85038" lon="-3.51834">
        <ele>30.8</ele>
        <time>2020-07-08T10:45:03Z</time>
      </trkpt>
      <trkpt lat="47.85038" lon="-3.5183">
        <ele>31.16</ele>
        <time>2020-07-08T10:45:04Z</time>
      </trkpt>
      <trkpt lat="47.85039" lon="-3.51826">
        <ele>31.52</ele>
        <time>2020-07-08T10:45:05Z</time>
      </trkpt>
      <trkpt lat="47.8504" lon="-3.51825">
        <ele>31.75</ele>
        <time>2020-07-08T10:45:06Z</time>
      </trkpt>
      <trkpt lat="47.8504" lon="-3.51824">
        <ele>31.84</ele>
        <time>2020-07-08T10:45:07Z</time>
      </trkpt>
      <trkpt lat="47.85041" lon="-3.51823">
        <ele>31.87</ele>
        <time>2020-07-08T10:45:08Z</time>
      </trkpt>
      <trkpt lat="47.85041" lon="-3.51823">
        <ele>31.89</ele>
        <time>2020-07-08T10:45:09Z</time>
      </trkpt>
      <trkpt lat="47.85041" lon="-3.51823">
        <ele>31.9</ele>
        <time>2020-07-08T10:45:10Z</time>
      </trkpt>
      <trkpt lat="47.85041" lon="-3.51823">
        <ele>31.9</ele>
        <time>2020-07-08T10:45:11Z</time>
      </trkpt>
      <trkpt lat="47.85041" lon="-3.51823">
        <ele>31.9</ele>
        <time>2020-07-08T10:45:12Z</time>
      </trkpt>
      <trkpt lat="47.85041" lon="-3.51823">
        <ele>31.9</ele>
        <time>2020-07-08T10:45:13Z</time>
      </trkpt>
      <trkpt lat="47.85041" lon="-3.51823">
        <ele>31.9</ele>
        <time>2020-07-08T10:45:14Z</time>
      </trkpt>
      <trkpt lat="47.85041" lon="-3.51823">
        <ele>31.9</ele>
        <time>2020-07-08T10:45:15Z</time>
      </trkpt>
      <trkpt lat="47.85041" lon="-3.51823">
        <ele>31.9</ele>
        <time>2020-07-08T10:45:16Z</time>
      </trkpt>
      <trkpt lat="47.85041" lon="-3.51823">
        <ele>31.9</ele>
        <time>2020-07-08T10:45:17Z</time>
      </trkpt>
      <trkpt lat="47.85041" lon="-3.51823">
        <ele>31.9</ele>
        <time>2020-07-08T10:45:18Z</time>
      </trkpt>
      <trkpt lat="47.85041" lon="-3.51823">
        <ele>31.9</ele>
        <time>2020-07-08T10:45:19Z</time>
      </trkpt>
      <trkpt lat="47.85041" lon="-3.51823">
        <ele>31.9</ele>
        <time>2020-07-08T10:45:20Z</time>
      </trkpt>
      <trkpt lat="47.85041" lon="-3.51823">
        <ele>31.9</ele>
        <time>2020-07-08T10:45:21Z</time>
      </trkpt>
      <trkpt lat="47.85041" lon="-3.51823">
        <ele>31.9</ele>
        <time>2020-07-08T10:45:22Z</time>
      </trkpt>
      <trkpt lat="47.85041" lon="-3.51823">
        <ele>31.9</ele>
        <time>2020-07-08T10:45:23Z</time>
      </trkpt>
      <trkpt lat="47.85041" lon="-3.51823">
        <ele>31.9</ele>
        <time>2020-07-08T10:45:24Z</time>
      </trkpt>
      <trkpt lat="47.85041" lon="-3.51823">
        <ele>31.9</ele>
        <time>2020-07-08T10:45:25Z</time>
      </trkpt>
      <trkpt lat="47.85041" lon="-3.51823">
        <ele>31.9</ele>
        <time>2020-07-08T10:45:26Z</time>
      </trkpt>
      <trkpt lat="47.85041" lon="-3.51823">
        <ele>31.9</ele>
        <time>2020-07-08T10:45:27Z</time>
      </trkpt>
      <trkpt lat="47.85041" lon="-3.51823">
        <ele>31.9</ele>
        <time>2020-07-08T10:45:28Z</time>
      </trkpt>
      <trkpt lat="47.85041" lon="-3.51823">
        <ele>31.9</ele>
        <time>2020-07-08T10:45:29Z</time>
      </trkpt>
      <trkpt lat="47.85041" lon="-3.51823">
        <ele>31.9</ele>
        <time>2020-07-08T10:45:30Z</time>
      </trkpt>
      <trkpt lat="47.85041" lon="-3.51823">
        <ele>31.9</ele>
        <time>2020-07-08T10:45:31Z</time>
      </trkpt>
      <trkpt lat="47.85041" lon="-3.51823">
        <ele>31.9</ele>
        <time>2020-07-08T10:45:32Z</time>
      </trkpt>
      <trkpt lat="47.85041" lon="-3.51823">
        <ele>31.9</ele>
        <time>2020-07-08T10:45:33Z</time>
      </trkpt>
      <trkpt lat="47.85043" lon="-3.51817">
        <ele>32.26</ele>
        <time>2020-07-08T10:45:34Z</time>
      </trkpt>
      <trkpt lat="47.85045" lon="-3.51816">
        <ele>32.28</ele>
        <time>2020-07-08T10:45:35Z</time>
      </trkpt>
      <trkpt lat="47.85046" lon="-3.51816">
        <ele>32.12</ele>
        <time>2020-07-08T10:45:36Z</time>
      </trkpt>
      <trkpt lat="47.85047" lon="-3.51817">
        <ele>31.89</ele>
        <time>2020-07-08T10:45:37Z</time>
      </trkpt>
      <trkpt lat="47.85049" lon="-3.51819">
        <ele>31.47</ele>
        <time>2020-07-08T10:45:38Z</time>
      </trkpt>
      <trkpt lat="47.85051" lon="-3.51821">
        <ele>31.1</ele>
        <time>2020-07-08T10:45:39Z</time>
      </trkpt>
      <trkpt lat="47.85052" lon="-3.51823">
        <ele>30.67</ele>
        <time>2020-07-08T10:45:40Z</time>
      </trkpt>
      <trkpt lat="47.85054" lon="-3.51826">
        <ele>30.2</ele>
        <time>2020-07-08T10:45:41Z</time>
      </trkpt>
      <trkpt lat="47.85056" lon="-3.5183">
        <ele>29.63</ele>
        <time>2020-07-08T10:45:42Z</time>
      </trkpt>
      <trkpt lat="47.85057" lon="-3.51834">
        <ele>29.27</ele>
        <time>2020-07-08T10:45:43Z</time>
      </trkpt>
      <trkpt lat="47.85059" lon="-3.51837">
        <ele>29.24</ele>
        <time>2020-07-08T10:45:44Z</time>
      </trkpt>
      <trkpt lat="47.8506" lon="-3.5184">
        <ele>29.3</ele>
        <time>2020-07-08T10:45:45Z</time>
      </trkpt>
      <trkpt lat="47.85061" lon="-3.51843">
        <ele>29.36</ele>
        <time>2020-07-08T10:45:46Z</time>
      </trkpt>
      <trkpt lat="47.85063" lon="-3.51847">
        <ele>29.48</ele>
        <time>2020-07-08T10:45:47Z</time>
      </trkpt>
      <trkpt lat="47.85064" lon="-3.51849">
        <ele>29.57</ele>
        <time>2020-07-08T10:45:48Z</time>
      </trkpt>
      <trkpt lat="47.85065" lon="-3.51852">
        <ele>29.65</ele>
        <time>2020-07-08T10:45:49Z</time>
      </trkpt>
      <trkpt lat="47.85068" lon="-3.51856">
        <ele>29.82</ele>
        <time>2020-07-08T10:45:50Z</time>
      </trkpt>
      <trkpt lat="47.85069" lon="-3.51859">
        <ele>29.94</ele>
        <time>2020-07-08T10:45:51Z</time>
      </trkpt>
      <trkpt lat="47.85071" lon="-3.51861">
        <ele>30.07</ele>
        <time>2020-07-08T10:45:52Z</time>
      </trkpt>
      <trkpt lat="47.85073" lon="-3.51863">
        <ele>30.41</ele>
        <time>2020-07-08T10:45:53Z</time>
      </trkpt>
      <trkpt lat="47.85075" lon="-3.51865">
        <ele>30.77</ele>
        <time>2020-07-08T10:45:54Z</time>
      </trkpt>
      <trkpt lat="47.85077" lon="-3.51867">
        <ele>31.15</ele>
        <time>2020-07-08T10:45:55Z</time>
      </trkpt>
      <trkpt lat="47.85078" lon="-3.51869">
        <ele>31.55</ele>
        <time>2020-07-08T10:45:56Z</time>
      </trkpt>
      <trkpt lat="47.85079" lon="-3.51871">
        <ele>31.88</ele>
        <time>2020-07-08T10:45:57Z</time>
      </trkpt>
      <trkpt lat="47.85079" lon="-3.51873">
        <ele>32.17</ele>
        <time>2020-07-08T10:45:58Z</time>
      </trkpt>
      <trkpt lat="47.8508" lon="-3.51875">
        <ele>32.56</ele>
        <time>2020-07-08T10:45:59Z</time>
      </trkpt>
      <trkpt lat="47.8508" lon="-3.51877">
        <ele>32.87</ele>
        <time>2020-07-08T10:46:00Z</time>
      </trkpt>
      <trkpt lat="47.8508" lon="-3.51879">
        <ele>33.17</ele>
        <time>2020-07-08T10:46:01Z</time>
      </trkpt>
      <trkpt lat="47.85081" lon="-3.51881">
        <ele>33.49</ele>
        <time>2020-07-08T10:46:02Z</time>
      </trkpt>
      <trkpt lat="47.85081" lon="-3.51883">
        <ele>33.8</ele>
        <time>2020-07-08T10:46:03Z</time>
      </trkpt>
      <trkpt lat="47.85081" lon="-3.51886">
        <ele>34.18</ele>
        <time>2020-07-08T10:46:04Z</time>
      </trkpt>
      <trkpt lat="47.85081" lon="-3.51888">
        <ele>34.54</ele>
        <time>2020-07-08T10:46:05Z</time>
      </trkpt>
      <trkpt lat="47.85081" lon="-3.51892">
        <ele>34.91</ele>
        <time>2020-07-08T10:46:06Z</time>
      </trkpt>
      <trkpt lat="47.85081" lon="-3.51895">
        <ele>35.22</ele>
        <time>2020-07-08T10:46:07Z</time>
      </trkpt>
      <trkpt lat="47.85081" lon="-3.51897">
        <ele>35.5</ele>
        <time>2020-07-08T10:46:08Z</time>
      </trkpt>
      <trkpt lat="47.85081" lon="-3.51899">
        <ele>35.75</ele>
        <time>2020-07-08T10:46:09Z</time>
      </trkpt>
      <trkpt lat="47.85081" lon="-3.519">
        <ele>35.89</ele>
        <time>2020-07-08T10:46:10Z</time>
      </trkpt>
      <trkpt lat="47.85081" lon="-3.51902">
        <ele>36.06</ele>
        <time>2020-07-08T10:46:11Z</time>
      </trkpt>
      <trkpt lat="47.8508" lon="-3.51904">
        <ele>36.21</ele>
        <time>2020-07-08T10:46:12Z</time>
      </trkpt>
      <trkpt lat="47.85079" lon="-3.51904">
        <ele>36.21</ele>
        <time>2020-07-08T10:46:13Z</time>
      </trkpt>
      <trkpt lat="47.85078" lon="-3.51906">
        <ele>36.23</ele>
        <time>2020-07-08T10:46:14Z</time>
      </trkpt>
      <trkpt lat="47.85076" lon="-3.51907">
        <ele>36.21</ele>
        <time>2020-07-08T10:46:15Z</time>
      </trkpt>
      <trkpt lat="47.85074" lon="-3.51908">
        <ele>36.13</ele>
        <time>2020-07-08T10:46:16Z</time>
      </trkpt>
      <trkpt lat="47.85071" lon="-3.5191">
        <ele>35.99</ele>
        <time>2020-07-08T10:46:17Z</time>
      </trkpt>
      <trkpt lat="47.85069" lon="-3.51911">
        <ele>35.86</ele>
        <time>2020-07-08T10:46:18Z</time>
      </trkpt>
      <trkpt lat="47.85065" lon="-3.51914">
        <ele>35.75</ele>
        <time>2020-07-08T10:46:19Z</time>
      </trkpt>
      <trkpt lat="47.85062" lon="-3.51916">
        <ele>35.62</ele>
        <time>2020-07-08T10:46:20Z</time>
      </trkpt>
      <trkpt lat="47.85059" lon="-3.51918">
        <ele>35.48</ele>
        <time>2020-07-08T10:46:21Z</time>
      </trkpt>
      <trkpt lat="47.85055" lon="-3.51921">
        <ele>35.26</ele>
        <time>2020-07-08T10:46:22Z</time>
      </trkpt>
      <trkpt lat="47.85051" lon="-3.51925">
        <ele>34.85</ele>
        <time>2020-07-08T10:46:23Z</time>
      </trkpt>
      <trkpt lat="47.85047" lon="-3.51929">
        <ele>34.37</ele>
        <time>2020-07-08T10:46:24Z</time>
      </trkpt>
      <trkpt lat="47.85043" lon="-3.51933">
        <ele>33.85</ele>
        <time>2020-07-08T10:46:25Z</time>
      </trkpt>
      <trkpt lat="47.85038" lon="-3.51937">
        <ele>33.38</ele>
        <time>2020-07-08T10:46:26Z</time>
      </trkpt>
      <trkpt lat="47.85033" lon="-3.51941">
        <ele>32.91</ele>
        <time>2020-07-08T10:46:27Z</time>
      </trkpt>
      <trkpt lat="47.85029" lon="-3.51947">
        <ele>32.49</ele>
        <time>2020-07-08T10:46:28Z</time>
      </trkpt>
      <trkpt lat="47.85024" lon="-3.51953">
        <ele>32.14</ele>
        <time>2020-07-08T10:46:29Z</time>
      </trkpt>
      <trkpt lat="47.85021" lon="-3.51958">
        <ele>31.96</ele>
        <time>2020-07-08T10:46:30Z</time>
      </trkpt>
      <trkpt lat="47.85018" lon="-3.51966">
        <ele>31.9</ele>
        <time>2020-07-08T10:46:31Z</time>
      </trkpt>
      <trkpt lat="47.85017" lon="-3.51973">
        <ele>32.01</ele>
        <time>2020-07-08T10:46:32Z</time>
      </trkpt>
      <trkpt lat="47.85017" lon="-3.5198">
        <ele>32.1</ele>
        <time>2020-07-08T10:46:33Z</time>
      </trkpt>
      <trkpt lat="47.85016" lon="-3.51987">
        <ele>32.19</ele>
        <time>2020-07-08T10:46:34Z</time>
      </trkpt>
      <trkpt lat="47.85017" lon="-3.51995">
        <ele>32.48</ele>
        <time>2020-07-08T10:46:35Z</time>
      </trkpt>
      <trkpt lat="47.85018" lon="-3.52004">
        <ele>32.69</ele>
        <time>2020-07-08T10:46:36Z</time>
      </trkpt>
      <trkpt lat="47.8502" lon="-3.52014">
        <ele>32.91</ele>
        <time>2020-07-08T10:46:37Z</time>
      </trkpt>
      <trkpt lat="47.85023" lon="-3.52022">
        <ele>33.24</ele>
        <time>2020-07-08T10:46:38Z</time>
      </trkpt>
      <trkpt lat="47.85026" lon="-3.52029">
        <ele>33.54</ele>
        <time>2020-07-08T10:46:39Z</time>
      </trkpt>
      <trkpt lat="47.8503" lon="-3.52037">
        <ele>33.55</ele>
        <time>2020-07-08T10:46:40Z</time>
      </trkpt>
      <trkpt lat="47.85035" lon="-3.52044">
        <ele>33.59</ele>
        <time>2020-07-08T10:46:41Z</time>
      </trkpt>
      <trkpt lat="47.8504" lon="-3.52051">
        <ele>33.48</ele>
        <time>2020-07-08T10:46:42Z</time>
      </trkpt>
      <trkpt lat="47.85046" lon="-3.52057">
        <ele>33.22</ele>
        <time>2020-07-08T10:46:43Z</time>
      </trkpt>
      <trkpt lat="47.8505" lon="-3.52062">
        <ele>32.86</ele>
        <time>2020-07-08T10:46:44Z</time>
      </trkpt>
      <trkpt lat="47.85055" lon="-3.52067">
        <ele>32.51</ele>
        <time>2020-07-08T10:46:45Z</time>
      </trkpt>
      <trkpt lat="47.85058" lon="-3.52071">
        <ele>32.18</ele>
        <time>2020-07-08T10:46:46Z</time>
      </trkpt>
      <trkpt lat="47.85062" lon="-3.52075">
        <ele>32</ele>
        <time>2020-07-08T10:46:47Z</time>
      </trkpt>
      <trkpt lat="47.85065" lon="-3.52077">
        <ele>32.11</ele>
        <time>2020-07-08T10:46:48Z</time>
      </trkpt>
      <trkpt lat="47.85069" lon="-3.52079">
        <ele>32.42</ele>
        <time>2020-07-08T10:46:49Z</time>
      </trkpt>
      <trkpt lat="47.85072" lon="-3.52082">
        <ele>32.51</ele>
        <time>2020-07-08T10:46:50Z</time>
      </trkpt>
      <trkpt lat="47.85074" lon="-3.52084">
        <ele>32.57</ele>
        <time>2020-07-08T10:46:51Z</time>
      </trkpt>
      <trkpt lat="47.85076" lon="-3.52086">
        <ele>32.4</ele>
        <time>2020-07-08T10:46:52Z</time>
      </trkpt>
      <trkpt lat="47.85077" lon="-3.52088">
        <ele>32.07</ele>
        <time>2020-07-08T10:46:53Z</time>
      </trkpt>
      <trkpt lat="47.85078" lon="-3.52089">
        <ele>31.82</ele>
        <time>2020-07-08T10:46:54Z</time>
      </trkpt>
      <trkpt lat="47.85077" lon="-3.5209">
        <ele>31.53</ele>
        <time>2020-07-08T10:46:55Z</time>
      </trkpt>
      <trkpt lat="47.85076" lon="-3.52091">
        <ele>31.26</ele>
        <time>2020-07-08T10:46:56Z</time>
      </trkpt>
      <trkpt lat="47.85075" lon="-3.52091">
        <ele>31.08</ele>
        <time>2020-07-08T10:46:57Z</time>
      </trkpt>
      <trkpt lat="47.85074" lon="-3.5209">
        <ele>31.08</ele>
        <time>2020-07-08T10:46:58Z</time>
      </trkpt>
      <trkpt lat="47.85073" lon="-3.52089">
        <ele>31.13</ele>
        <time>2020-07-08T10:46:59Z</time>
      </trkpt>
      <trkpt lat="47.8507" lon="-3.52088">
        <ele>31.08</ele>
        <time>2020-07-08T10:47:00Z</time>
      </trkpt>
      <trkpt lat="47.85069" lon="-3.52088">
        <ele>30.97</ele>
        <time>2020-07-08T10:47:01Z</time>
      </trkpt>
      <trkpt lat="47.85067" lon="-3.52087">
        <ele>30.9</ele>
        <time>2020-07-08T10:47:02Z</time>
      </trkpt>
      <trkpt lat="47.85065" lon="-3.52085">
        <ele>30.91</ele>
        <time>2020-07-08T10:47:03Z</time>
      </trkpt>
      <trkpt lat="47.85062" lon="-3.52083">
        <ele>30.92</ele>
        <time>2020-07-08T10:47:04Z</time>
      </trkpt>
      <trkpt lat="47.85059" lon="-3.52081">
        <ele>30.88</ele>
        <time>2020-07-08T10:47:05Z</time>
      </trkpt>
      <trkpt lat="47.85057" lon="-3.52078">
        <ele>30.99</ele>
        <time>2020-07-08T10:47:06Z</time>
      </trkpt>
      <trkpt lat="47.85056" lon="-3.52076">
        <ele>31.05</ele>
        <time>2020-07-08T10:47:07Z</time>
      </trkpt>
      <trkpt lat="47.85054" lon="-3.52075">
        <ele>31.09</ele>
        <time>2020-07-08T10:47:08Z</time>
      </trkpt>
      <trkpt lat="47.85052" lon="-3.52074">
        <ele>31.15</ele>
        <time>2020-07-08T10:47:09Z</time>
      </trkpt>
      <trkpt lat="47.8505" lon="-3.52072">
        <ele>31.25</ele>
        <time>2020-07-08T10:47:10Z</time>
      </trkpt>
      <trkpt lat="47.85047" lon="-3.52071">
        <ele>31.36</ele>
        <time>2020-07-08T10:47:11Z</time>
      </trkpt>
      <trkpt lat="47.85045" lon="-3.52069">
        <ele>31.47</ele>
        <time>2020-07-08T10:47:12Z</time>
      </trkpt>
      <trkpt lat="47.85043" lon="-3.52066">
        <ele>31.64</ele>
        <time>2020-07-08T10:47:13Z</time>
      </trkpt>
      <trkpt lat="47.85041" lon="-3.52063">
        <ele>31.86</ele>
        <time>2020-07-08T10:47:14Z</time>
      </trkpt>
      <trkpt lat="47.85038" lon="-3.52061">
        <ele>32.03</ele>
        <time>2020-07-08T10:47:15Z</time>
      </trkpt>
      <trkpt lat="47.85036" lon="-3.52059">
        <ele>32.14</ele>
        <time>2020-07-08T10:47:16Z</time>
      </trkpt>
      <trkpt lat="47.85034" lon="-3.52057">
        <ele>32.23</ele>
        <time>2020-07-08T10:47:17Z</time>
      </trkpt>
      <trkpt lat="47.85032" lon="-3.52055">
        <ele>32.36</ele>
        <time>2020-07-08T10:47:18Z</time>
      </trkpt>
      <trkpt lat="47.8503" lon="-3.52051">
        <ele>32.47</ele>
        <time>2020-07-08T10:47:19Z</time>
      </trkpt>
      <trkpt lat="47.85028" lon="-3.52048">
        <ele>32.57</ele>
        <time>2020-07-08T10:47:20Z</time>
      </trkpt>
      <trkpt lat="47.85027" lon="-3.52044">
        <ele>32.7</ele>
        <time>2020-07-08T10:47:21Z</time>
      </trkpt>
      <trkpt lat="47.85025" lon="-3.5204">
        <ele>32.79</ele>
        <time>2020-07-08T10:47:22Z</time>
      </trkpt>
      <trkpt lat="47.85022" lon="-3.52035">
        <ele>32.82</ele>
        <time>2020-07-08T10:47:23Z</time>
      </trkpt>
      <trkpt lat="47.8502" lon="-3.5203">
        <ele>32.8</ele>
        <time>2020-07-08T10:47:24Z</time>
      </trkpt>
      <trkpt lat="47.85018" lon="-3.52025">
        <ele>32.69</ele>
        <time>2020-07-08T10:47:25Z</time>
      </trkpt>
      <trkpt lat="47.85017" lon="-3.5202">
        <ele>32.53</ele>
        <time>2020-07-08T10:47:26Z</time>
      </trkpt>
      <trkpt lat="47.85015" lon="-3.52017">
        <ele>32.29</ele>
        <time>2020-07-08T10:47:27Z</time>
      </trkpt>
      <trkpt lat="47.85014" lon="-3.52012">
        <ele>32.06</ele>
        <time>2020-07-08T10:47:28Z</time>
      </trkpt>
      <trkpt lat="47.85013" lon="-3.52008">
        <ele>31.85</ele>
        <time>2020-07-08T10:47:29Z</time>
      </trkpt>
      <trkpt lat="47.85012" lon="-3.52004">
        <ele>31.68</ele>
        <time>2020-07-08T10:47:30Z</time>
      </trkpt>
      <trkpt lat="47.85012" lon="-3.52">
        <ele>31.62</ele>
        <time>2020-07-08T10:47:31Z</time>
      </trkpt>
      <trkpt lat="47.85013" lon="-3.51996">
        <ele>31.66</ele>
        <time>2020-07-08T10:47:32Z</time>
      </trkpt>
      <trkpt lat="47.85013" lon="-3.51992">
        <ele>31.65</ele>
        <time>2020-07-08T10:47:33Z</time>
      </trkpt>
      <trkpt lat="47.85013" lon="-3.51989">
        <ele>31.65</ele>
        <time>2020-07-08T10:47:34Z</time>
      </trkpt>
      <trkpt lat="47.85013" lon="-3.51985">
        <ele>31.65</ele>
        <time>2020-07-08T10:47:35Z</time>
      </trkpt>
      <trkpt lat="47.85014" lon="-3.51981">
        <ele>31.74</ele>
        <time>2020-07-08T10:47:36Z</time>
      </trkpt>
      <trkpt lat="47.85016" lon="-3.51977">
        <ele>31.9</ele>
        <time>2020-07-08T10:47:37Z</time>
      </trkpt>
      <trkpt lat="47.85018" lon="-3.51973">
        <ele>32.15</ele>
        <time>2020-07-08T10:47:38Z</time>
      </trkpt>
      <trkpt lat="47.8502" lon="-3.51969">
        <ele>32.36</ele>
        <time>2020-07-08T10:47:39Z</time>
      </trkpt>
      <trkpt lat="47.85023" lon="-3.51967">
        <ele>32.63</ele>
        <time>2020-07-08T10:47:40Z</time>
      </trkpt>
      <trkpt lat="47.85024" lon="-3.51965">
        <ele>32.83</ele>
        <time>2020-07-08T10:47:41Z</time>
      </trkpt>
      <trkpt lat="47.85027" lon="-3.51963">
        <ele>33.05</ele>
        <time>2020-07-08T10:47:42Z</time>
      </trkpt>
      <trkpt lat="47.85029" lon="-3.5196">
        <ele>33.24</ele>
        <time>2020-07-08T10:47:43Z</time>
      </trkpt>
      <trkpt lat="47.85031" lon="-3.51959">
        <ele>33.48</ele>
        <time>2020-07-08T10:47:44Z</time>
      </trkpt>
      <trkpt lat="47.85033" lon="-3.51956">
        <ele>33.73</ele>
        <time>2020-07-08T10:47:45Z</time>
      </trkpt>
      <trkpt lat="47.85036" lon="-3.51953">
        <ele>34</ele>
        <time>2020-07-08T10:47:46Z</time>
      </trkpt>
      <trkpt lat="47.85039" lon="-3.5195">
        <ele>34.31</ele>
        <time>2020-07-08T10:47:47Z</time>
      </trkpt>
      <trkpt lat="47.85041" lon="-3.51949">
        <ele>34.63</ele>
        <time>2020-07-08T10:47:48Z</time>
      </trkpt>
      <trkpt lat="47.85043" lon="-3.51946">
        <ele>34.81</ele>
        <time>2020-07-08T10:47:49Z</time>
      </trkpt>
      <trkpt lat="47.85044" lon="-3.51943">
        <ele>34.89</ele>
        <time>2020-07-08T10:47:50Z</time>
      </trkpt>
      <trkpt lat="47.85046" lon="-3.51942">
        <ele>35.07</ele>
        <time>2020-07-08T10:47:51Z</time>
      </trkpt>
      <trkpt lat="47.85048" lon="-3.5194">
        <ele>35.28</ele>
        <time>2020-07-08T10:47:52Z</time>
      </trkpt>
      <trkpt lat="47.8505" lon="-3.51938">
        <ele>35.47</ele>
        <time>2020-07-08T10:47:53Z</time>
      </trkpt>
      <trkpt lat="47.85052" lon="-3.51936">
        <ele>35.65</ele>
        <time>2020-07-08T10:47:54Z</time>
      </trkpt>
      <trkpt lat="47.85054" lon="-3.51933">
        <ele>35.82</ele>
        <time>2020-07-08T10:47:55Z</time>
      </trkpt>
      <trkpt lat="47.85056" lon="-3.51931">
        <ele>35.99</ele>
        <time>2020-07-08T10:47:56Z</time>
      </trkpt>
      <trkpt lat="47.85058" lon="-3.51929">
        <ele>36.11</ele>
        <time>2020-07-08T10:47:57Z</time>
      </trkpt>
      <trkpt lat="47.8506" lon="-3.51927">
        <ele>36.18</ele>
        <time>2020-07-08T10:47:58Z</time>
      </trkpt>
      <trkpt lat="47.85061" lon="-3.51925">
        <ele>36.19</ele>
        <time>2020-07-08T10:47:59Z</time>
      </trkpt>
      <trkpt lat="47.85063" lon="-3.51923">
        <ele>36.26</ele>
        <time>2020-07-08T10:48:00Z</time>
      </trkpt>
      <trkpt lat="47.85066" lon="-3.51922">
        <ele>36.42</ele>
        <time>2020-07-08T10:48:01Z</time>
      </trkpt>
      <trkpt lat="47.85068" lon="-3.5192">
        <ele>36.54</ele>
        <time>2020-07-08T10:48:02Z</time>
      </trkpt>
      <trkpt lat="47.85072" lon="-3.51916">
        <ele>36.65</ele>
        <time>2020-07-08T10:48:03Z</time>
      </trkpt>
      <trkpt lat="47.85076" lon="-3.51913">
        <ele>36.78</ele>
        <time>2020-07-08T10:48:04Z</time>
      </trkpt>
      <trkpt lat="47.85079" lon="-3.51911">
        <ele>36.89</ele>
        <time>2020-07-08T10:48:05Z</time>
      </trkpt>
      <trkpt lat="47.85083" lon="-3.5191">
        <ele>37.15</ele>
        <time>2020-07-08T10:48:06Z</time>
      </trkpt>
      <trkpt lat="47.85086" lon="-3.51911">
        <ele>37.47</ele>
        <time>2020-07-08T10:48:07Z</time>
      </trkpt>
      <trkpt lat="47.85089" lon="-3.51912">
        <ele>37.82</ele>
        <time>2020-07-08T10:48:08Z</time>
      </trkpt>
      <trkpt lat="47.85092" lon="-3.51914">
        <ele>38.23</ele>
        <time>2020-07-08T10:48:09Z</time>
      </trkpt>
      <trkpt lat="47.85095" lon="-3.51916">
        <ele>38.64</ele>
        <time>2020-07-08T10:48:10Z</time>
      </trkpt>
      <trkpt lat="47.85098" lon="-3.51918">
        <ele>39</ele>
        <time>2020-07-08T10:48:11Z</time>
      </trkpt>
      <trkpt lat="47.85101" lon="-3.5192">
        <ele>39.29</ele>
        <time>2020-07-08T10:48:12Z</time>
      </trkpt>
      <trkpt lat="47.85103" lon="-3.51921">
        <ele>39.54</ele>
        <time>2020-07-08T10:48:13Z</time>
      </trkpt>
      <trkpt lat="47.85106" lon="-3.51922">
        <ele>39.75</ele>
        <time>2020-07-08T10:48:14Z</time>
      </trkpt>
      <trkpt lat="47.85108" lon="-3.51923">
        <ele>39.95</ele>
        <time>2020-07-08T10:48:15Z</time>
      </trkpt>
      <trkpt lat="47.85111" lon="-3.51923">
        <ele>40.15</ele>
        <time>2020-07-08T10:48:16Z</time>
      </trkpt>
      <trkpt lat="47.85114" lon="-3.51924">
        <ele>40.34</ele>
        <time>2020-07-08T10:48:17Z</time>
      </trkpt>
      <trkpt lat="47.85116" lon="-3.51925">
        <ele>40.51</ele>
        <time>2020-07-08T10:48:18Z</time>
      </trkpt>
      <trkpt lat="47.85118" lon="-3.51925">
        <ele>40.66</ele>
        <time>2020-07-08T10:48:19Z</time>
      </trkpt>
      <trkpt lat="47.8512" lon="-3.51926">
        <ele>40.82</ele>
        <time>2020-07-08T10:48:20Z</time>
      </trkpt>
      <trkpt lat="47.85124" lon="-3.51928">
        <ele>41.04</ele>
        <time>2020-07-08T10:48:21Z</time>
      </trkpt>
      <trkpt lat="47.85127" lon="-3.5193">
        <ele>41.26</ele>
        <time>2020-07-08T10:48:22Z</time>
      </trkpt>
      <trkpt lat="47.85131" lon="-3.51931">
        <ele>41.48</ele>
        <time>2020-07-08T10:48:23Z</time>
      </trkpt>
      <trkpt lat="47.85133" lon="-3.51932">
        <ele>41.63</ele>
        <time>2020-07-08T10:48:24Z</time>
      </trkpt>
      <trkpt lat="47.85136" lon="-3.51933">
        <ele>41.78</ele>
        <time>2020-07-08T10:48:25Z</time>
      </trkpt>
      <trkpt lat="47.85139" lon="-3.51935">
        <ele>41.96</ele>
        <time>2020-07-08T10:48:26Z</time>
      </trkpt>
      <trkpt lat="47.85142" lon="-3.51936">
        <ele>42.15</ele>
        <time>2020-07-08T10:48:27Z</time>
      </trkpt>
      <trkpt lat="47.85145" lon="-3.51936">
        <ele>42.36</ele>
        <time>2020-07-08T10:48:28Z</time>
      </trkpt>
      <trkpt lat="47.85147" lon="-3.51937">
        <ele>42.53</ele>
        <time>2020-07-08T10:48:29Z</time>
      </trkpt>
      <trkpt lat="47.8515" lon="-3.51939">
        <ele>42.7</ele>
        <time>2020-07-08T10:48:30Z</time>
      </trkpt>
      <trkpt lat="47.85151" lon="-3.51941">
        <ele>42.85</ele>
        <time>2020-07-08T10:48:31Z</time>
      </trkpt>
      <trkpt lat="47.85154" lon="-3.51943">
        <ele>42.99</ele>
        <time>2020-07-08T10:48:32Z</time>
      </trkpt>
      <trkpt lat="47.85156" lon="-3.51944">
        <ele>43.14</ele>
        <time>2020-07-08T10:48:33Z</time>
      </trkpt>
      <trkpt lat="47.85158" lon="-3.51946">
        <ele>43.29</ele>
        <time>2020-07-08T10:48:34Z</time>
      </trkpt>
      <trkpt lat="47.85159" lon="-3.51948">
        <ele>43.43</ele>
        <time>2020-07-08T10:48:35Z</time>
      </trkpt>
      <trkpt lat="47.85161" lon="-3.5195">
        <ele>43.56</ele>
        <time>2020-07-08T10:48:36Z</time>
      </trkpt>
      <trkpt lat="47.85162" lon="-3.51952">
        <ele>43.69</ele>
        <time>2020-07-08T10:48:37Z</time>
      </trkpt>
      <trkpt lat="47.85164" lon="-3.51954">
        <ele>43.8</ele>
        <time>2020-07-08T10:48:38Z</time>
      </trkpt>
      <trkpt lat="47.85167" lon="-3.51957">
        <ele>43.94</ele>
        <time>2020-07-08T10:48:39Z</time>
      </trkpt>
      <trkpt lat="47.85169" lon="-3.5196">
        <ele>44.09</ele>
        <time>2020-07-08T10:48:40Z</time>
      </trkpt>
      <trkpt lat="47.85171" lon="-3.51964">
        <ele>44.25</ele>
        <time>2020-07-08T10:48:41Z</time>
      </trkpt>
      <trkpt lat="47.85172" lon="-3.51967">
        <ele>44.37</ele>
        <time>2020-07-08T10:48:42Z</time>
      </trkpt>
      <trkpt lat="47.85174" lon="-3.5197">
        <ele>44.49</ele>
        <time>2020-07-08T10:48:43Z</time>
      </trkpt>
      <trkpt lat="47.85177" lon="-3.51973">
        <ele>44.67</ele>
        <time>2020-07-08T10:48:44Z</time>
      </trkpt>
      <trkpt lat="47.85179" lon="-3.51976">
        <ele>44.84</ele>
        <time>2020-07-08T10:48:45Z</time>
      </trkpt>
      <trkpt lat="47.85181" lon="-3.51979">
        <ele>44.98</ele>
        <time>2020-07-08T10:48:46Z</time>
      </trkpt>
      <trkpt lat="47.85185" lon="-3.51983">
        <ele>45.2</ele>
        <time>2020-07-08T10:48:47Z</time>
      </trkpt>
      <trkpt lat="47.85187" lon="-3.51987">
        <ele>45.41</ele>
        <time>2020-07-08T10:48:48Z</time>
      </trkpt>
      <trkpt lat="47.85191" lon="-3.51991">
        <ele>45.62</ele>
        <time>2020-07-08T10:48:49Z</time>
      </trkpt>
      <trkpt lat="47.85193" lon="-3.51994">
        <ele>45.82</ele>
        <time>2020-07-08T10:48:50Z</time>
      </trkpt>
      <trkpt lat="47.85196" lon="-3.51997">
        <ele>46.01</ele>
        <time>2020-07-08T10:48:51Z</time>
      </trkpt>
      <trkpt lat="47.85198" lon="-3.51999">
        <ele>46.17</ele>
        <time>2020-07-08T10:48:52Z</time>
      </trkpt>
      <trkpt lat="47.85201" lon="-3.52002">
        <ele>46.36</ele>
        <time>2020-07-08T10:48:53Z</time>
      </trkpt>
      <trkpt lat="47.85205" lon="-3.52004">
        <ele>46.6</ele>
        <time>2020-07-08T10:48:54Z</time>
      </trkpt>
      <trkpt lat="47.85208" lon="-3.52006">
        <ele>46.82</ele>
        <time>2020-07-08T10:48:55Z</time>
      </trkpt>
      <trkpt lat="47.85213" lon="-3.52009">
        <ele>47.02</ele>
        <time>2020-07-08T10:48:56Z</time>
      </trkpt>
      <trkpt lat="47.85216" lon="-3.52012">
        <ele>47.15</ele>
        <time>2020-07-08T10:48:57Z</time>
      </trkpt>
      <trkpt lat="47.85218" lon="-3.52015">
        <ele>47.22</ele>
        <time>2020-07-08T10:48:58Z</time>
      </trkpt>
      <trkpt lat="47.85221" lon="-3.52018">
        <ele>47.28</ele>
        <time>2020-07-08T10:48:59Z</time>
      </trkpt>
      <trkpt lat="47.85225" lon="-3.52021">
        <ele>47.38</ele>
        <time>2020-07-08T10:49:00Z</time>
      </trkpt>
      <trkpt lat="47.85229" lon="-3.52023">
        <ele>47.54</ele>
        <time>2020-07-08T10:49:01Z</time>
      </trkpt>
      <trkpt lat="47.85232" lon="-3.52026">
        <ele>47.7</ele>
        <time>2020-07-08T10:49:02Z</time>
      </trkpt>
      <trkpt lat="47.85236" lon="-3.52029">
        <ele>47.87</ele>
        <time>2020-07-08T10:49:03Z</time>
      </trkpt>
      <trkpt lat="47.8524" lon="-3.52032">
        <ele>48.03</ele>
        <time>2020-07-08T10:49:04Z</time>
      </trkpt>
      <trkpt lat="47.85243" lon="-3.52034">
        <ele>48.17</ele>
        <time>2020-07-08T10:49:05Z</time>
      </trkpt>
      <trkpt lat="47.85246" lon="-3.52037">
        <ele>48.3</ele>
        <time>2020-07-08T10:49:06Z</time>
      </trkpt>
      <trkpt lat="47.85248" lon="-3.52039">
        <ele>48.41</ele>
        <time>2020-07-08T10:49:07Z</time>
      </trkpt>
      <trkpt lat="47.85252" lon="-3.52042">
        <ele>48.52</ele>
        <time>2020-07-08T10:49:08Z</time>
      </trkpt>
      <trkpt lat="47.85254" lon="-3.52045">
        <ele>48.58</ele>
        <time>2020-07-08T10:49:09Z</time>
      </trkpt>
      <trkpt lat="47.85257" lon="-3.52047">
        <ele>48.7</ele>
        <time>2020-07-08T10:49:10Z</time>
      </trkpt>
      <trkpt lat="47.85261" lon="-3.52049">
        <ele>48.85</ele>
        <time>2020-07-08T10:49:11Z</time>
      </trkpt>
      <trkpt lat="47.85264" lon="-3.52052">
        <ele>49.02</ele>
        <time>2020-07-08T10:49:12Z</time>
      </trkpt>
      <trkpt lat="47.85267" lon="-3.52055">
        <ele>49.18</ele>
        <time>2020-07-08T10:49:13Z</time>
      </trkpt>
      <trkpt lat="47.8527" lon="-3.52057">
        <ele>49.38</ele>
        <time>2020-07-08T10:49:14Z</time>
      </trkpt>
      <trkpt lat="47.85274" lon="-3.52059">
        <ele>49.61</ele>
        <time>2020-07-08T10:49:15Z</time>
      </trkpt>
      <trkpt lat="47.85276" lon="-3.5206">
        <ele>49.82</ele>
        <time>2020-07-08T10:49:16Z</time>
      </trkpt>
      <trkpt lat="47.85278" lon="-3.52062">
        <ele>49.96</ele>
        <time>2020-07-08T10:49:17Z</time>
      </trkpt>
      <trkpt lat="47.8528" lon="-3.52062">
        <ele>50.04</ele>
        <time>2020-07-08T10:49:18Z</time>
      </trkpt>
      <trkpt lat="47.85284" lon="-3.52064">
        <ele>50.12</ele>
        <time>2020-07-08T10:49:19Z</time>
      </trkpt>
      <trkpt lat="47.85286" lon="-3.52065">
        <ele>50.17</ele>
        <time>2020-07-08T10:49:20Z</time>
      </trkpt>
      <trkpt lat="47.85289" lon="-3.52066">
        <ele>50.22</ele>
        <time>2020-07-08T10:49:21Z</time>
      </trkpt>
      <trkpt lat="47.85291" lon="-3.52067">
        <ele>50.27</ele>
        <time>2020-07-08T10:49:22Z</time>
      </trkpt>
      <trkpt lat="47.85294" lon="-3.52067">
        <ele>50.32</ele>
        <time>2020-07-08T10:49:23Z</time>
      </trkpt>
      <trkpt lat="47.85297" lon="-3.52067">
        <ele>50.38</ele>
        <time>2020-07-08T10:49:24Z</time>
      </trkpt>
      <trkpt lat="47.853" lon="-3.52067">
        <ele>50.43</ele>
        <time>2020-07-08T10:49:25Z</time>
      </trkpt>
      <trkpt lat="47.85304" lon="-3.52068">
        <ele>50.49</ele>
        <time>2020-07-08T10:49:26Z</time>
      </trkpt>
      <trkpt lat="47.85308" lon="-3.5207">
        <ele>50.51</ele>
        <time>2020-07-08T10:49:27Z</time>
      </trkpt>
      <trkpt lat="47.85311" lon="-3.52072">
        <ele>50.5</ele>
        <time>2020-07-08T10:49:28Z</time>
      </trkpt>
      <trkpt lat="47.85315" lon="-3.52075">
        <ele>50.52</ele>
        <time>2020-07-08T10:49:29Z</time>
      </trkpt>
      <trkpt lat="47.85317" lon="-3.52077">
        <ele>50.54</ele>
        <time>2020-07-08T10:49:30Z</time>
      </trkpt>
      <trkpt lat="47.85321" lon="-3.5208">
        <ele>50.58</ele>
        <time>2020-07-08T10:49:31Z</time>
      </trkpt>
      <trkpt lat="47.85325" lon="-3.52082">
        <ele>50.66</ele>
        <time>2020-07-08T10:49:32Z</time>
      </trkpt>
      <trkpt lat="47.85328" lon="-3.52084">
        <ele>50.78</ele>
        <time>2020-07-08T10:49:33Z</time>
      </trkpt>
      <trkpt lat="47.85332" lon="-3.52087">
        <ele>50.9</ele>
        <time>2020-07-08T10:49:34Z</time>
      </trkpt>
      <trkpt lat="47.85336" lon="-3.5209">
        <ele>50.74</ele>
        <time>2020-07-08T10:49:35Z</time>
      </trkpt>
      <trkpt lat="47.85339" lon="-3.52093">
        <ele>50.43</ele>
        <time>2020-07-08T10:49:36Z</time>
      </trkpt>
      <trkpt lat="47.85343" lon="-3.52096">
        <ele>50.16</ele>
        <time>2020-07-08T10:49:37Z</time>
      </trkpt>
      <trkpt lat="47.85347" lon="-3.52099">
        <ele>49.99</ele>
        <time>2020-07-08T10:49:38Z</time>
      </trkpt>
      <trkpt lat="47.85351" lon="-3.52102">
        <ele>49.94</ele>
        <time>2020-07-08T10:49:39Z</time>
      </trkpt>
      <trkpt lat="47.85355" lon="-3.52106">
        <ele>50.19</ele>
        <time>2020-07-08T10:49:40Z</time>
      </trkpt>
      <trkpt lat="47.85359" lon="-3.5211">
        <ele>50.61</ele>
        <time>2020-07-08T10:49:41Z</time>
      </trkpt>
      <trkpt lat="47.85363" lon="-3.52114">
        <ele>50.65</ele>
        <time>2020-07-08T10:49:42Z</time>
      </trkpt>
      <trkpt lat="47.85366" lon="-3.52117">
        <ele>50.23</ele>
        <time>2020-07-08T10:49:43Z</time>
      </trkpt>
      <trkpt lat="47.85369" lon="-3.52121">
        <ele>49.78</ele>
        <time>2020-07-08T10:49:44Z</time>
      </trkpt>
      <trkpt lat="47.85372" lon="-3.52126">
        <ele>49.44</ele>
        <time>2020-07-08T10:49:45Z</time>
      </trkpt>
      <trkpt lat="47.85375" lon="-3.5213">
        <ele>49.25</ele>
        <time>2020-07-08T10:49:46Z</time>
      </trkpt>
      <trkpt lat="47.85377" lon="-3.52134">
        <ele>49.22</ele>
        <time>2020-07-08T10:49:47Z</time>
      </trkpt>
      <trkpt lat="47.8538" lon="-3.52138">
        <ele>49.26</ele>
        <time>2020-07-08T10:49:48Z</time>
      </trkpt>
      <trkpt lat="47.85382" lon="-3.52143">
        <ele>49.17</ele>
        <time>2020-07-08T10:49:49Z</time>
      </trkpt>
      <trkpt lat="47.85385" lon="-3.52148">
        <ele>49.08</ele>
        <time>2020-07-08T10:49:50Z</time>
      </trkpt>
      <trkpt lat="47.85388" lon="-3.52153">
        <ele>49.08</ele>
        <time>2020-07-08T10:49:51Z</time>
      </trkpt>
      <trkpt lat="47.85392" lon="-3.52159">
        <ele>48.96</ele>
        <time>2020-07-08T10:49:52Z</time>
      </trkpt>
      <trkpt lat="47.85395" lon="-3.52164">
        <ele>48.79</ele>
        <time>2020-07-08T10:49:53Z</time>
      </trkpt>
      <trkpt lat="47.85398" lon="-3.52169">
        <ele>48.49</ele>
        <time>2020-07-08T10:49:54Z</time>
      </trkpt>
      <trkpt lat="47.85402" lon="-3.52173">
        <ele>48.16</ele>
        <time>2020-07-08T10:49:55Z</time>
      </trkpt>
      <trkpt lat="47.85405" lon="-3.52178">
        <ele>47.91</ele>
        <time>2020-07-08T10:49:56Z</time>
      </trkpt>
      <trkpt lat="47.85408" lon="-3.52182">
        <ele>47.77</ele>
        <time>2020-07-08T10:49:57Z</time>
      </trkpt>
      <trkpt lat="47.85411" lon="-3.52187">
        <ele>47.76</ele>
        <time>2020-07-08T10:49:58Z</time>
      </trkpt>
      <trkpt lat="47.85414" lon="-3.5219">
        <ele>47.76</ele>
        <time>2020-07-08T10:49:59Z</time>
      </trkpt>
      <trkpt lat="47.85418" lon="-3.52195">
        <ele>47.71</ele>
        <time>2020-07-08T10:50:00Z</time>
      </trkpt>
      <trkpt lat="47.85423" lon="-3.52199">
        <ele>47.05</ele>
        <time>2020-07-08T10:50:01Z</time>
      </trkpt>
      <trkpt lat="47.85427" lon="-3.52204">
        <ele>46.26</ele>
        <time>2020-07-08T10:50:02Z</time>
      </trkpt>
      <trkpt lat="47.85431" lon="-3.52209">
        <ele>45.49</ele>
        <time>2020-07-08T10:50:03Z</time>
      </trkpt>
      <trkpt lat="47.85435" lon="-3.52216">
        <ele>44.72</ele>
        <time>2020-07-08T10:50:04Z</time>
      </trkpt>
      <trkpt lat="47.8544" lon="-3.52222">
        <ele>43.98</ele>
        <time>2020-07-08T10:50:05Z</time>
      </trkpt>
      <trkpt lat="47.85443" lon="-3.52228">
        <ele>43.43</ele>
        <time>2020-07-08T10:50:06Z</time>
      </trkpt>
      <trkpt lat="47.85446" lon="-3.52233">
        <ele>43.09</ele>
        <time>2020-07-08T10:50:07Z</time>
      </trkpt>
      <trkpt lat="47.85448" lon="-3.52239">
        <ele>42.94</ele>
        <time>2020-07-08T10:50:08Z</time>
      </trkpt>
      <trkpt lat="47.8545" lon="-3.52245">
        <ele>42.86</ele>
        <time>2020-07-08T10:50:09Z</time>
      </trkpt>
      <trkpt lat="47.85451" lon="-3.52251">
        <ele>42.78</ele>
        <time>2020-07-08T10:50:10Z</time>
      </trkpt>
      <trkpt lat="47.8545" lon="-3.52256">
        <ele>42.65</ele>
        <time>2020-07-08T10:50:11Z</time>
      </trkpt>
      <trkpt lat="47.85451" lon="-3.52264">
        <ele>42.47</ele>
        <time>2020-07-08T10:50:12Z</time>
      </trkpt>
      <trkpt lat="47.85452" lon="-3.52271">
        <ele>42.27</ele>
        <time>2020-07-08T10:50:13Z</time>
      </trkpt>
      <trkpt lat="47.85454" lon="-3.52278">
        <ele>42.08</ele>
        <time>2020-07-08T10:50:14Z</time>
      </trkpt>
      <trkpt lat="47.85455" lon="-3.52285">
        <ele>41.84</ele>
        <time>2020-07-08T10:50:15Z</time>
      </trkpt>
      <trkpt lat="47.85456" lon="-3.52292">
        <ele>41.59</ele>
        <time>2020-07-08T10:50:16Z</time>
      </trkpt>
      <trkpt lat="47.85457" lon="-3.52299">
        <ele>41.35</ele>
        <time>2020-07-08T10:50:17Z</time>
      </trkpt>
      <trkpt lat="47.85457" lon="-3.52308">
        <ele>40.99</ele>
        <time>2020-07-08T10:50:18Z</time>
      </trkpt>
      <trkpt lat="47.85457" lon="-3.52316">
        <ele>40.45</ele>
        <time>2020-07-08T10:50:19Z</time>
      </trkpt>
      <trkpt lat="47.85457" lon="-3.52325">
        <ele>39.85</ele>
        <time>2020-07-08T10:50:20Z</time>
      </trkpt>
      <trkpt lat="47.85457" lon="-3.52333">
        <ele>39.26</ele>
        <time>2020-07-08T10:50:21Z</time>
      </trkpt>
      <trkpt lat="47.85456" lon="-3.5234">
        <ele>38.83</ele>
        <time>2020-07-08T10:50:22Z</time>
      </trkpt>
      <trkpt lat="47.85454" lon="-3.52347">
        <ele>38.47</ele>
        <time>2020-07-08T10:50:23Z</time>
      </trkpt>
      <trkpt lat="47.85453" lon="-3.52353">
        <ele>38.2</ele>
        <time>2020-07-08T10:50:24Z</time>
      </trkpt>
      <trkpt lat="47.85451" lon="-3.52358">
        <ele>38</ele>
        <time>2020-07-08T10:50:25Z</time>
      </trkpt>
      <trkpt lat="47.85449" lon="-3.52362">
        <ele>37.83</ele>
        <time>2020-07-08T10:50:26Z</time>
      </trkpt>
      <trkpt lat="47.85447" lon="-3.52366">
        <ele>37.66</ele>
        <time>2020-07-08T10:50:27Z</time>
      </trkpt>
      <trkpt lat="47.85446" lon="-3.5237">
        <ele>37.46</ele>
        <time>2020-07-08T10:50:28Z</time>
      </trkpt>
      <trkpt lat="47.85445" lon="-3.52374">
        <ele>37.19</ele>
        <time>2020-07-08T10:50:29Z</time>
      </trkpt>
      <trkpt lat="47.85445" lon="-3.52378">
        <ele>36.93</ele>
        <time>2020-07-08T10:50:30Z</time>
      </trkpt>
      <trkpt lat="47.85445" lon="-3.52381">
        <ele>36.7</ele>
        <time>2020-07-08T10:50:31Z</time>
      </trkpt>
      <trkpt lat="47.85446" lon="-3.52383">
        <ele>36.54</ele>
        <time>2020-07-08T10:50:32Z</time>
      </trkpt>
      <trkpt lat="47.85446" lon="-3.52386">
        <ele>36.36</ele>
        <time>2020-07-08T10:50:33Z</time>
      </trkpt>
      <trkpt lat="47.85449" lon="-3.5239">
        <ele>36.19</ele>
        <time>2020-07-08T10:50:34Z</time>
      </trkpt>
      <trkpt lat="47.8545" lon="-3.52392">
        <ele>36.12</ele>
        <time>2020-07-08T10:50:35Z</time>
      </trkpt>
      <trkpt lat="47.8545" lon="-3.52394">
        <ele>36.09</ele>
        <time>2020-07-08T10:50:36Z</time>
      </trkpt>
      <trkpt lat="47.85451" lon="-3.52395">
        <ele>36.08</ele>
        <time>2020-07-08T10:50:37Z</time>
      </trkpt>
      <trkpt lat="47.85453" lon="-3.52397">
        <ele>36.09</ele>
        <time>2020-07-08T10:50:38Z</time>
      </trkpt>
      <trkpt lat="47.85454" lon="-3.52399">
        <ele>36.1</ele>
        <time>2020-07-08T10:50:39Z</time>
      </trkpt>
      <trkpt lat="47.85455" lon="-3.52402">
        <ele>36.08</ele>
        <time>2020-07-08T10:50:40Z</time>
      </trkpt>
      <trkpt lat="47.85455" lon="-3.52406">
        <ele>36.03</ele>
        <time>2020-07-08T10:50:41Z</time>
      </trkpt>
      <trkpt lat="47.85456" lon="-3.52409">
        <ele>35.99</ele>
        <time>2020-07-08T10:50:42Z</time>
      </trkpt>
      <trkpt lat="47.85457" lon="-3.52411">
        <ele>35.99</ele>
        <time>2020-07-08T10:50:43Z</time>
      </trkpt>
      <trkpt lat="47.85458" lon="-3.52414">
        <ele>36.02</ele>
        <time>2020-07-08T10:50:44Z</time>
      </trkpt>
      <trkpt lat="47.85459" lon="-3.52417">
        <ele>36.06</ele>
        <time>2020-07-08T10:50:45Z</time>
      </trkpt>
      <trkpt lat="47.85461" lon="-3.52421">
        <ele>36.16</ele>
        <time>2020-07-08T10:50:46Z</time>
      </trkpt>
      <trkpt lat="47.85463" lon="-3.52424">
        <ele>36.28</ele>
        <time>2020-07-08T10:50:47Z</time>
      </trkpt>
      <trkpt lat="47.85465" lon="-3.52427">
        <ele>36.41</ele>
        <time>2020-07-08T10:50:48Z</time>
      </trkpt>
      <trkpt lat="47.85466" lon="-3.52432">
        <ele>36.53</ele>
        <time>2020-07-08T10:50:49Z</time>
      </trkpt>
      <trkpt lat="47.85469" lon="-3.52436">
        <ele>36.7</ele>
        <time>2020-07-08T10:50:50Z</time>
      </trkpt>
      <trkpt lat="47.85471" lon="-3.5244">
        <ele>36.84</ele>
        <time>2020-07-08T10:50:51Z</time>
      </trkpt>
      <trkpt lat="47.85472" lon="-3.52443">
        <ele>36.92</ele>
        <time>2020-07-08T10:50:52Z</time>
      </trkpt>
      <trkpt lat="47.85472" lon="-3.52446">
        <ele>36.97</ele>
        <time>2020-07-08T10:50:53Z</time>
      </trkpt>
      <trkpt lat="47.85473" lon="-3.52449">
        <ele>37.03</ele>
        <time>2020-07-08T10:50:54Z</time>
      </trkpt>
      <trkpt lat="47.85474" lon="-3.52452">
        <ele>37.17</ele>
        <time>2020-07-08T10:50:55Z</time>
      </trkpt>
      <trkpt lat="47.85475" lon="-3.52455">
        <ele>37.27</ele>
        <time>2020-07-08T10:50:56Z</time>
      </trkpt>
      <trkpt lat="47.85476" lon="-3.52457">
        <ele>37.4</ele>
        <time>2020-07-08T10:50:57Z</time>
      </trkpt>
      <trkpt lat="47.85476" lon="-3.52459">
        <ele>37.48</ele>
        <time>2020-07-08T10:50:58Z</time>
      </trkpt>
      <trkpt lat="47.85477" lon="-3.52459">
        <ele>37.57</ele>
        <time>2020-07-08T10:50:59Z</time>
      </trkpt>
      <trkpt lat="47.85478" lon="-3.52458">
        <ele>37.68</ele>
        <time>2020-07-08T10:51:00Z</time>
      </trkpt>
      <trkpt lat="47.85479" lon="-3.52458">
        <ele>37.84</ele>
        <time>2020-07-08T10:51:01Z</time>
      </trkpt>
      <trkpt lat="47.85481" lon="-3.52457">
        <ele>38</ele>
        <time>2020-07-08T10:51:02Z</time>
      </trkpt>
      <trkpt lat="47.85483" lon="-3.52457">
        <ele>38.23</ele>
        <time>2020-07-08T10:51:03Z</time>
      </trkpt>
      <trkpt lat="47.85485" lon="-3.52456">
        <ele>38.47</ele>
        <time>2020-07-08T10:51:04Z</time>
      </trkpt>
      <trkpt lat="47.85488" lon="-3.52456">
        <ele>38.78</ele>
        <time>2020-07-08T10:51:05Z</time>
      </trkpt>
      <trkpt lat="47.8549" lon="-3.52456">
        <ele>39.1</ele>
        <time>2020-07-08T10:51:06Z</time>
      </trkpt>
      <trkpt lat="47.85492" lon="-3.52458">
        <ele>39.33</ele>
        <time>2020-07-08T10:51:07Z</time>
      </trkpt>
      <trkpt lat="47.85493" lon="-3.52459">
        <ele>39.56</ele>
        <time>2020-07-08T10:51:08Z</time>
      </trkpt>
      <trkpt lat="47.85495" lon="-3.52459">
        <ele>39.8</ele>
        <time>2020-07-08T10:51:09Z</time>
      </trkpt>
      <trkpt lat="47.85497" lon="-3.52461">
        <ele>40.09</ele>
        <time>2020-07-08T10:51:10Z</time>
      </trkpt>
      <trkpt lat="47.85499" lon="-3.52462">
        <ele>40.37</ele>
        <time>2020-07-08T10:51:11Z</time>
      </trkpt>
      <trkpt lat="47.85501" lon="-3.52463">
        <ele>40.64</ele>
        <time>2020-07-08T10:51:12Z</time>
      </trkpt>
      <trkpt lat="47.85504" lon="-3.52465">
        <ele>40.95</ele>
        <time>2020-07-08T10:51:13Z</time>
      </trkpt>
      <trkpt lat="47.85506" lon="-3.52466">
        <ele>41.19</ele>
        <time>2020-07-08T10:51:14Z</time>
      </trkpt>
      <trkpt lat="47.85508" lon="-3.52466">
        <ele>41.37</ele>
        <time>2020-07-08T10:51:15Z</time>
      </trkpt>
      <trkpt lat="47.8551" lon="-3.52465">
        <ele>41.52</ele>
        <time>2020-07-08T10:51:16Z</time>
      </trkpt>
      <trkpt lat="47.85512" lon="-3.52464">
        <ele>41.67</ele>
        <time>2020-07-08T10:51:17Z</time>
      </trkpt>
      <trkpt lat="47.85514" lon="-3.52462">
        <ele>41.76</ele>
        <time>2020-07-08T10:51:18Z</time>
      </trkpt>
      <trkpt lat="47.85515" lon="-3.52461">
        <ele>41.83</ele>
        <time>2020-07-08T10:51:19Z</time>
      </trkpt>
      <trkpt lat="47.85516" lon="-3.52459">
        <ele>41.92</ele>
        <time>2020-07-08T10:51:20Z</time>
      </trkpt>
      <trkpt lat="47.85517" lon="-3.52457">
        <ele>42.01</ele>
        <time>2020-07-08T10:51:21Z</time>
      </trkpt>
      <trkpt lat="47.85519" lon="-3.52455">
        <ele>42.1</ele>
        <time>2020-07-08T10:51:22Z</time>
      </trkpt>
      <trkpt lat="47.8552" lon="-3.52452">
        <ele>42.2</ele>
        <time>2020-07-08T10:51:23Z</time>
      </trkpt>
      <trkpt lat="47.85521" lon="-3.5245">
        <ele>42.29</ele>
        <time>2020-07-08T10:51:24Z</time>
      </trkpt>
      <trkpt lat="47.85522" lon="-3.52449">
        <ele>42.4</ele>
        <time>2020-07-08T10:51:25Z</time>
      </trkpt>
      <trkpt lat="47.85523" lon="-3.52448">
        <ele>42.48</ele>
        <time>2020-07-08T10:51:26Z</time>
      </trkpt>
      <trkpt lat="47.85524" lon="-3.52448">
        <ele>42.56</ele>
        <time>2020-07-08T10:51:27Z</time>
      </trkpt>
      <trkpt lat="47.85524" lon="-3.52448">
        <ele>42.58</ele>
        <time>2020-07-08T10:51:28Z</time>
      </trkpt>
      <trkpt lat="47.85528" lon="-3.52446">
        <ele>42.85</ele>
        <time>2020-07-08T10:51:29Z</time>
      </trkpt>
      <trkpt lat="47.8553" lon="-3.52445">
        <ele>42.96</ele>
        <time>2020-07-08T10:51:30Z</time>
      </trkpt>
      <trkpt lat="47.85533" lon="-3.52443">
        <ele>42.94</ele>
        <time>2020-07-08T10:51:31Z</time>
      </trkpt>
      <trkpt lat="47.85535" lon="-3.52442">
        <ele>42.91</ele>
        <time>2020-07-08T10:51:32Z</time>
      </trkpt>
      <trkpt lat="47.85536" lon="-3.5244">
        <ele>42.87</ele>
        <time>2020-07-08T10:51:33Z</time>
      </trkpt>
      <trkpt lat="47.85539" lon="-3.52439">
        <ele>42.81</ele>
        <time>2020-07-08T10:51:34Z</time>
      </trkpt>
      <trkpt lat="47.8554" lon="-3.52436">
        <ele>42.73</ele>
        <time>2020-07-08T10:51:35Z</time>
      </trkpt>
      <trkpt lat="47.85542" lon="-3.52434">
        <ele>42.65</ele>
        <time>2020-07-08T10:51:36Z</time>
      </trkpt>
      <trkpt lat="47.85543" lon="-3.52432">
        <ele>42.57</ele>
        <time>2020-07-08T10:51:37Z</time>
      </trkpt>
      <trkpt lat="47.85545" lon="-3.5243">
        <ele>42.51</ele>
        <time>2020-07-08T10:51:38Z</time>
      </trkpt>
      <trkpt lat="47.85547" lon="-3.5243">
        <ele>42.48</ele>
        <time>2020-07-08T10:51:39Z</time>
      </trkpt>
      <trkpt lat="47.85548" lon="-3.5243">
        <ele>42.48</ele>
        <time>2020-07-08T10:51:40Z</time>
      </trkpt>
      <trkpt lat="47.85549" lon="-3.52432">
        <ele>42.52</ele>
        <time>2020-07-08T10:51:41Z</time>
      </trkpt>
      <trkpt lat="47.85551" lon="-3.52434">
        <ele>42.59</ele>
        <time>2020-07-08T10:51:42Z</time>
      </trkpt>
      <trkpt lat="47.85552" lon="-3.52437">
        <ele>42.69</ele>
        <time>2020-07-08T10:51:43Z</time>
      </trkpt>
      <trkpt lat="47.85553" lon="-3.5244">
        <ele>42.79</ele>
        <time>2020-07-08T10:51:44Z</time>
      </trkpt>
      <trkpt lat="47.85554" lon="-3.52443">
        <ele>42.9</ele>
        <time>2020-07-08T10:51:45Z</time>
      </trkpt>
      <trkpt lat="47.85555" lon="-3.52446">
        <ele>42.97</ele>
        <time>2020-07-08T10:51:46Z</time>
      </trkpt>
      <trkpt lat="47.85558" lon="-3.52449">
        <ele>42.99</ele>
        <time>2020-07-08T10:51:47Z</time>
      </trkpt>
      <trkpt lat="47.85559" lon="-3.52452">
        <ele>43</ele>
        <time>2020-07-08T10:51:48Z</time>
      </trkpt>
      <trkpt lat="47.8556" lon="-3.52455">
        <ele>43</ele>
        <time>2020-07-08T10:51:49Z</time>
      </trkpt>
      <trkpt lat="47.85561" lon="-3.52457">
        <ele>43</ele>
        <time>2020-07-08T10:51:50Z</time>
      </trkpt>
      <trkpt lat="47.85563" lon="-3.5246">
        <ele>43</ele>
        <time>2020-07-08T10:51:51Z</time>
      </trkpt>
      <trkpt lat="47.85565" lon="-3.52463">
        <ele>43</ele>
        <time>2020-07-08T10:51:52Z</time>
      </trkpt>
      <trkpt lat="47.85567" lon="-3.52465">
        <ele>43</ele>
        <time>2020-07-08T10:51:53Z</time>
      </trkpt>
      <trkpt lat="47.85568" lon="-3.52468">
        <ele>43</ele>
        <time>2020-07-08T10:51:54Z</time>
      </trkpt>
      <trkpt lat="47.8557" lon="-3.52472">
        <ele>43</ele>
        <time>2020-07-08T10:51:55Z</time>
      </trkpt>
      <trkpt lat="47.85571" lon="-3.52475">
        <ele>42.97</ele>
        <time>2020-07-08T10:51:56Z</time>
      </trkpt>
      <trkpt lat="47.85573" lon="-3.52478">
        <ele>42.94</ele>
        <time>2020-07-08T10:51:57Z</time>
      </trkpt>
      <trkpt lat="47.85574" lon="-3.5248">
        <ele>42.92</ele>
        <time>2020-07-08T10:51:58Z</time>
      </trkpt>
      <trkpt lat="47.85576" lon="-3.52482">
        <ele>42.91</ele>
        <time>2020-07-08T10:51:59Z</time>
      </trkpt>
      <trkpt lat="47.85578" lon="-3.52485">
        <ele>42.9</ele>
        <time>2020-07-08T10:52:00Z</time>
      </trkpt>
      <trkpt lat="47.85579" lon="-3.52488">
        <ele>42.91</ele>
        <time>2020-07-08T10:52:01Z</time>
      </trkpt>
      <trkpt lat="47.85581" lon="-3.52491">
        <ele>42.93</ele>
        <time>2020-07-08T10:52:02Z</time>
      </trkpt>
      <trkpt lat="47.85582" lon="-3.52495">
        <ele>42.96</ele>
        <time>2020-07-08T10:52:03Z</time>
      </trkpt>
      <trkpt lat="47.85584" lon="-3.52498">
        <ele>42.99</ele>
        <time>2020-07-08T10:52:04Z</time>
      </trkpt>
      <trkpt lat="47.85586" lon="-3.525">
        <ele>42.98</ele>
        <time>2020-07-08T10:52:05Z</time>
      </trkpt>
      <trkpt lat="47.85587" lon="-3.52503">
        <ele>42.86</ele>
        <time>2020-07-08T10:52:06Z</time>
      </trkpt>
      <trkpt lat="47.85589" lon="-3.52506">
        <ele>42.74</ele>
        <time>2020-07-08T10:52:07Z</time>
      </trkpt>
      <trkpt lat="47.85591" lon="-3.52508">
        <ele>42.61</ele>
        <time>2020-07-08T10:52:08Z</time>
      </trkpt>
      <trkpt lat="47.85593" lon="-3.52511">
        <ele>42.51</ele>
        <time>2020-07-08T10:52:09Z</time>
      </trkpt>
      <trkpt lat="47.85595" lon="-3.52514">
        <ele>42.46</ele>
        <time>2020-07-08T10:52:10Z</time>
      </trkpt>
      <trkpt lat="47.85598" lon="-3.52517">
        <ele>42.44</ele>
        <time>2020-07-08T10:52:11Z</time>
      </trkpt>
      <trkpt lat="47.856" lon="-3.52519">
        <ele>42.44</ele>
        <time>2020-07-08T10:52:12Z</time>
      </trkpt>
      <trkpt lat="47.85602" lon="-3.52522">
        <ele>42.47</ele>
        <time>2020-07-08T10:52:13Z</time>
      </trkpt>
      <trkpt lat="47.85604" lon="-3.52525">
        <ele>42.5</ele>
        <time>2020-07-08T10:52:14Z</time>
      </trkpt>
      <trkpt lat="47.85605" lon="-3.52529">
        <ele>42.5</ele>
        <time>2020-07-08T10:52:15Z</time>
      </trkpt>
      <trkpt lat="47.85605" lon="-3.52532">
        <ele>42.44</ele>
        <time>2020-07-08T10:52:16Z</time>
      </trkpt>
      <trkpt lat="47.85605" lon="-3.52535">
        <ele>42.36</ele>
        <time>2020-07-08T10:52:17Z</time>
      </trkpt>
      <trkpt lat="47.85606" lon="-3.52537">
        <ele>42.31</ele>
        <time>2020-07-08T10:52:18Z</time>
      </trkpt>
      <trkpt lat="47.85606" lon="-3.52539">
        <ele>42.26</ele>
        <time>2020-07-08T10:52:19Z</time>
      </trkpt>
      <trkpt lat="47.85605" lon="-3.5254">
        <ele>42.16</ele>
        <time>2020-07-08T10:52:20Z</time>
      </trkpt>
      <trkpt lat="47.85603" lon="-3.52541">
        <ele>42.01</ele>
        <time>2020-07-08T10:52:21Z</time>
      </trkpt>
      <trkpt lat="47.856" lon="-3.52542">
        <ele>41.78</ele>
        <time>2020-07-08T10:52:22Z</time>
      </trkpt>
      <trkpt lat="47.85597" lon="-3.52545">
        <ele>41.48</ele>
        <time>2020-07-08T10:52:23Z</time>
      </trkpt>
      <trkpt lat="47.85594" lon="-3.52547">
        <ele>41.17</ele>
        <time>2020-07-08T10:52:24Z</time>
      </trkpt>
      <trkpt lat="47.85591" lon="-3.52551">
        <ele>40.82</ele>
        <time>2020-07-08T10:52:25Z</time>
      </trkpt>
      <trkpt lat="47.85588" lon="-3.52555">
        <ele>40.5</ele>
        <time>2020-07-08T10:52:26Z</time>
      </trkpt>
      <trkpt lat="47.85586" lon="-3.52559">
        <ele>40.27</ele>
        <time>2020-07-08T10:52:27Z</time>
      </trkpt>
      <trkpt lat="47.85582" lon="-3.52565">
        <ele>40.04</ele>
        <time>2020-07-08T10:52:28Z</time>
      </trkpt>
      <trkpt lat="47.85579" lon="-3.5257">
        <ele>39.85</ele>
        <time>2020-07-08T10:52:29Z</time>
      </trkpt>
      <trkpt lat="47.85576" lon="-3.52575">
        <ele>39.65</ele>
        <time>2020-07-08T10:52:30Z</time>
      </trkpt>
      <trkpt lat="47.85574" lon="-3.5258">
        <ele>39.43</ele>
        <time>2020-07-08T10:52:31Z</time>
      </trkpt>
      <trkpt lat="47.85571" lon="-3.52587">
        <ele>39.16</ele>
        <time>2020-07-08T10:52:32Z</time>
      </trkpt>
      <trkpt lat="47.85568" lon="-3.52593">
        <ele>38.82</ele>
        <time>2020-07-08T10:52:33Z</time>
      </trkpt>
      <trkpt lat="47.85565" lon="-3.52599">
        <ele>38.44</ele>
        <time>2020-07-08T10:52:34Z</time>
      </trkpt>
      <trkpt lat="47.85562" lon="-3.52606">
        <ele>38.02</ele>
        <time>2020-07-08T10:52:35Z</time>
      </trkpt>
      <trkpt lat="47.85558" lon="-3.52613">
        <ele>37.54</ele>
        <time>2020-07-08T10:52:36Z</time>
      </trkpt>
      <trkpt lat="47.85555" lon="-3.5262">
        <ele>37.37</ele>
        <time>2020-07-08T10:52:37Z</time>
      </trkpt>
      <trkpt lat="47.85552" lon="-3.52628">
        <ele>37.38</ele>
        <time>2020-07-08T10:52:38Z</time>
      </trkpt>
      <trkpt lat="47.85549" lon="-3.52636">
        <ele>37.42</ele>
        <time>2020-07-08T10:52:39Z</time>
      </trkpt>
      <trkpt lat="47.85546" lon="-3.52644">
        <ele>37.37</ele>
        <time>2020-07-08T10:52:40Z</time>
      </trkpt>
      <trkpt lat="47.85545" lon="-3.52652">
        <ele>37.3</ele>
        <time>2020-07-08T10:52:41Z</time>
      </trkpt>
      <trkpt lat="47.85545" lon="-3.52661">
        <ele>37.24</ele>
        <time>2020-07-08T10:52:42Z</time>
      </trkpt>
      <trkpt lat="47.85545" lon="-3.52669">
        <ele>37.25</ele>
        <time>2020-07-08T10:52:43Z</time>
      </trkpt>
      <trkpt lat="47.85546" lon="-3.52675">
        <ele>37.3</ele>
        <time>2020-07-08T10:52:44Z</time>
      </trkpt>
      <trkpt lat="47.85549" lon="-3.52682">
        <ele>37.44</ele>
        <time>2020-07-08T10:52:45Z</time>
      </trkpt>
      <trkpt lat="47.85552" lon="-3.52688">
        <ele>37.64</ele>
        <time>2020-07-08T10:52:46Z</time>
      </trkpt>
      <trkpt lat="47.85555" lon="-3.52694">
        <ele>37.89</ele>
        <time>2020-07-08T10:52:47Z</time>
      </trkpt>
      <trkpt lat="47.8556" lon="-3.527">
        <ele>37.93</ele>
        <time>2020-07-08T10:52:48Z</time>
      </trkpt>
      <trkpt lat="47.85564" lon="-3.52706">
        <ele>37.89</ele>
        <time>2020-07-08T10:52:49Z</time>
      </trkpt>
      <trkpt lat="47.85568" lon="-3.52711">
        <ele>37.84</ele>
        <time>2020-07-08T10:52:50Z</time>
      </trkpt>
      <trkpt lat="47.85572" lon="-3.52717">
        <ele>37.8</ele>
        <time>2020-07-08T10:52:51Z</time>
      </trkpt>
      <trkpt lat="47.85577" lon="-3.52722">
        <ele>37.78</ele>
        <time>2020-07-08T10:52:52Z</time>
      </trkpt>
      <trkpt lat="47.85581" lon="-3.52727">
        <ele>37.76</ele>
        <time>2020-07-08T10:52:53Z</time>
      </trkpt>
      <trkpt lat="47.85586" lon="-3.52731">
        <ele>37.77</ele>
        <time>2020-07-08T10:52:54Z</time>
      </trkpt>
      <trkpt lat="47.85591" lon="-3.52736">
        <ele>37.79</ele>
        <time>2020-07-08T10:52:55Z</time>
      </trkpt>
      <trkpt lat="47.85597" lon="-3.5274">
        <ele>37.82</ele>
        <time>2020-07-08T10:52:56Z</time>
      </trkpt>
      <trkpt lat="47.85602" lon="-3.52745">
        <ele>37.84</ele>
        <time>2020-07-08T10:52:57Z</time>
      </trkpt>
      <trkpt lat="47.85607" lon="-3.52749">
        <ele>37.87</ele>
        <time>2020-07-08T10:52:58Z</time>
      </trkpt>
      <trkpt lat="47.85612" lon="-3.52753">
        <ele>37.81</ele>
        <time>2020-07-08T10:52:59Z</time>
      </trkpt>
      <trkpt lat="47.85616" lon="-3.52757">
        <ele>37.63</ele>
        <time>2020-07-08T10:53:00Z</time>
      </trkpt>
      <trkpt lat="47.8562" lon="-3.52761">
        <ele>37.45</ele>
        <time>2020-07-08T10:53:01Z</time>
      </trkpt>
      <trkpt lat="47.85625" lon="-3.52764">
        <ele>37.32</ele>
        <time>2020-07-08T10:53:02Z</time>
      </trkpt>
      <trkpt lat="47.8563" lon="-3.52767">
        <ele>37.23</ele>
        <time>2020-07-08T10:53:03Z</time>
      </trkpt>
      <trkpt lat="47.85634" lon="-3.5277">
        <ele>37.16</ele>
        <time>2020-07-08T10:53:04Z</time>
      </trkpt>
      <trkpt lat="47.85639" lon="-3.52773">
        <ele>37.16</ele>
        <time>2020-07-08T10:53:05Z</time>
      </trkpt>
      <trkpt lat="47.85644" lon="-3.52777">
        <ele>36.96</ele>
        <time>2020-07-08T10:53:06Z</time>
      </trkpt>
      <trkpt lat="47.85648" lon="-3.5278">
        <ele>36.64</ele>
        <time>2020-07-08T10:53:07Z</time>
      </trkpt>
      <trkpt lat="47.85653" lon="-3.52784">
        <ele>36.28</ele>
        <time>2020-07-08T10:53:08Z</time>
      </trkpt>
      <trkpt lat="47.85659" lon="-3.52788">
        <ele>35.95</ele>
        <time>2020-07-08T10:53:09Z</time>
      </trkpt>
      <trkpt lat="47.85664" lon="-3.52793">
        <ele>35.65</ele>
        <time>2020-07-08T10:53:10Z</time>
      </trkpt>
      <trkpt lat="47.85669" lon="-3.52796">
        <ele>35.36</ele>
        <time>2020-07-08T10:53:11Z</time>
      </trkpt>
      <trkpt lat="47.85674" lon="-3.528">
        <ele>35.05</ele>
        <time>2020-07-08T10:53:12Z</time>
      </trkpt>
      <trkpt lat="47.85679" lon="-3.52804">
        <ele>34.74</ele>
        <time>2020-07-08T10:53:13Z</time>
      </trkpt>
      <trkpt lat="47.85684" lon="-3.52808">
        <ele>34.41</ele>
        <time>2020-07-08T10:53:14Z</time>
      </trkpt>
      <trkpt lat="47.85689" lon="-3.52811">
        <ele>34.08</ele>
        <time>2020-07-08T10:53:15Z</time>
      </trkpt>
      <trkpt lat="47.85696" lon="-3.52814">
        <ele>33.77</ele>
        <time>2020-07-08T10:53:16Z</time>
      </trkpt>
      <trkpt lat="47.85701" lon="-3.52817">
        <ele>33.41</ele>
        <time>2020-07-08T10:53:17Z</time>
      </trkpt>
      <trkpt lat="47.85708" lon="-3.52818">
        <ele>33.01</ele>
        <time>2020-07-08T10:53:18Z</time>
      </trkpt>
      <trkpt lat="47.85714" lon="-3.52819">
        <ele>32.63</ele>
        <time>2020-07-08T10:53:19Z</time>
      </trkpt>
      <trkpt lat="47.8572" lon="-3.52818">
        <ele>32.32</ele>
        <time>2020-07-08T10:53:20Z</time>
      </trkpt>
      <trkpt lat="47.85726" lon="-3.52816">
        <ele>32.2</ele>
        <time>2020-07-08T10:53:21Z</time>
      </trkpt>
      <trkpt lat="47.85732" lon="-3.52814">
        <ele>32.14</ele>
        <time>2020-07-08T10:53:22Z</time>
      </trkpt>
      <trkpt lat="47.85738" lon="-3.52812">
        <ele>32.11</ele>
        <time>2020-07-08T10:53:23Z</time>
      </trkpt>
      <trkpt lat="47.85745" lon="-3.5281">
        <ele>32.03</ele>
        <time>2020-07-08T10:53:24Z</time>
      </trkpt>
      <trkpt lat="47.85751" lon="-3.52809">
        <ele>31.92</ele>
        <time>2020-07-08T10:53:25Z</time>
      </trkpt>
      <trkpt lat="47.85758" lon="-3.52809">
        <ele>31.91</ele>
        <time>2020-07-08T10:53:26Z</time>
      </trkpt>
      <trkpt lat="47.85764" lon="-3.5281">
        <ele>31.92</ele>
        <time>2020-07-08T10:53:27Z</time>
      </trkpt>
      <trkpt lat="47.8577" lon="-3.52813">
        <ele>31.93</ele>
        <time>2020-07-08T10:53:28Z</time>
      </trkpt>
      <trkpt lat="47.85776" lon="-3.52815">
        <ele>31.96</ele>
        <time>2020-07-08T10:53:29Z</time>
      </trkpt>
      <trkpt lat="47.85781" lon="-3.52819">
        <ele>32.22</ele>
        <time>2020-07-08T10:53:30Z</time>
      </trkpt>
      <trkpt lat="47.85786" lon="-3.52824">
        <ele>32.57</ele>
        <time>2020-07-08T10:53:31Z</time>
      </trkpt>
      <trkpt lat="47.85791" lon="-3.52829">
        <ele>32.87</ele>
        <time>2020-07-08T10:53:32Z</time>
      </trkpt>
      <trkpt lat="47.85795" lon="-3.52835">
        <ele>32.92</ele>
        <time>2020-07-08T10:53:33Z</time>
      </trkpt>
      <trkpt lat="47.85799" lon="-3.52841">
        <ele>32.55</ele>
        <time>2020-07-08T10:53:34Z</time>
      </trkpt>
      <trkpt lat="47.85802" lon="-3.52847">
        <ele>32.2</ele>
        <time>2020-07-08T10:53:35Z</time>
      </trkpt>
      <trkpt lat="47.85806" lon="-3.52852">
        <ele>32.05</ele>
        <time>2020-07-08T10:53:36Z</time>
      </trkpt>
      <trkpt lat="47.85809" lon="-3.52858">
        <ele>31.84</ele>
        <time>2020-07-08T10:53:37Z</time>
      </trkpt>
      <trkpt lat="47.85811" lon="-3.52865">
        <ele>31.58</ele>
        <time>2020-07-08T10:53:38Z</time>
      </trkpt>
      <trkpt lat="47.85813" lon="-3.52872">
        <ele>31.36</ele>
        <time>2020-07-08T10:53:39Z</time>
      </trkpt>
      <trkpt lat="47.85816" lon="-3.52878">
        <ele>31.32</ele>
        <time>2020-07-08T10:53:40Z</time>
      </trkpt>
      <trkpt lat="47.85818" lon="-3.52885">
        <ele>31.38</ele>
        <time>2020-07-08T10:53:41Z</time>
      </trkpt>
      <trkpt lat="47.8582" lon="-3.52891">
        <ele>31.64</ele>
        <time>2020-07-08T10:53:42Z</time>
      </trkpt>
      <trkpt lat="47.85822" lon="-3.52896">
        <ele>32.4</ele>
        <time>2020-07-08T10:53:43Z</time>
      </trkpt>
      <trkpt lat="47.85824" lon="-3.52902">
        <ele>33.19</ele>
        <time>2020-07-08T10:53:44Z</time>
      </trkpt>
      <trkpt lat="47.85826" lon="-3.52908">
        <ele>33.94</ele>
        <time>2020-07-08T10:53:45Z</time>
      </trkpt>
      <trkpt lat="47.85827" lon="-3.52914">
        <ele>34.56</ele>
        <time>2020-07-08T10:53:46Z</time>
      </trkpt>
      <trkpt lat="47.85829" lon="-3.5292">
        <ele>35.37</ele>
        <time>2020-07-08T10:53:47Z</time>
      </trkpt>
      <trkpt lat="47.85831" lon="-3.52927">
        <ele>36.28</ele>
        <time>2020-07-08T10:53:48Z</time>
      </trkpt>
      <trkpt lat="47.85832" lon="-3.52932">
        <ele>37.15</ele>
        <time>2020-07-08T10:53:49Z</time>
      </trkpt>
      <trkpt lat="47.85833" lon="-3.52938">
        <ele>37.95</ele>
        <time>2020-07-08T10:53:50Z</time>
      </trkpt>
      <trkpt lat="47.85834" lon="-3.52943">
        <ele>38.45</ele>
        <time>2020-07-08T10:53:51Z</time>
      </trkpt>
      <trkpt lat="47.85836" lon="-3.52948">
        <ele>38.65</ele>
        <time>2020-07-08T10:53:52Z</time>
      </trkpt>
      <trkpt lat="47.85837" lon="-3.52953">
        <ele>38.75</ele>
        <time>2020-07-08T10:53:53Z</time>
      </trkpt>
      <trkpt lat="47.85838" lon="-3.52958">
        <ele>38.81</ele>
        <time>2020-07-08T10:53:54Z</time>
      </trkpt>
      <trkpt lat="47.85839" lon="-3.52963">
        <ele>38.81</ele>
        <time>2020-07-08T10:53:55Z</time>
      </trkpt>
      <trkpt lat="47.85841" lon="-3.52969">
        <ele>38.77</ele>
        <time>2020-07-08T10:53:56Z</time>
      </trkpt>
      <trkpt lat="47.85843" lon="-3.52975">
        <ele>38.72</ele>
        <time>2020-07-08T10:53:57Z</time>
      </trkpt>
      <trkpt lat="47.85845" lon="-3.52981">
        <ele>38.71</ele>
        <time>2020-07-08T10:53:58Z</time>
      </trkpt>
      <trkpt lat="47.85847" lon="-3.52987">
        <ele>38.79</ele>
        <time>2020-07-08T10:53:59Z</time>
      </trkpt>
      <trkpt lat="47.85849" lon="-3.52993">
        <ele>38.94</ele>
        <time>2020-07-08T10:54:00Z</time>
      </trkpt>
      <trkpt lat="47.85851" lon="-3.52998">
        <ele>39.15</ele>
        <time>2020-07-08T10:54:01Z</time>
      </trkpt>
      <trkpt lat="47.85854" lon="-3.53004">
        <ele>39.2</ele>
        <time>2020-07-08T10:54:02Z</time>
      </trkpt>
      <trkpt lat="47.85856" lon="-3.5301">
        <ele>39.15</ele>
        <time>2020-07-08T10:54:03Z</time>
      </trkpt>
      <trkpt lat="47.85858" lon="-3.53016">
        <ele>39.08</ele>
        <time>2020-07-08T10:54:04Z</time>
      </trkpt>
      <trkpt lat="47.85861" lon="-3.53023">
        <ele>39.03</ele>
        <time>2020-07-08T10:54:05Z</time>
      </trkpt>
      <trkpt lat="47.85864" lon="-3.53029">
        <ele>38.68</ele>
        <time>2020-07-08T10:54:06Z</time>
      </trkpt>
      <trkpt lat="47.85866" lon="-3.53036">
        <ele>38.19</ele>
        <time>2020-07-08T10:54:07Z</time>
      </trkpt>
      <trkpt lat="47.85868" lon="-3.53042">
        <ele>37.67</ele>
        <time>2020-07-08T10:54:08Z</time>
      </trkpt>
      <trkpt lat="47.85871" lon="-3.53049">
        <ele>37.23</ele>
        <time>2020-07-08T10:54:09Z</time>
      </trkpt>
      <trkpt lat="47.85873" lon="-3.53056">
        <ele>36.89</ele>
        <time>2020-07-08T10:54:10Z</time>
      </trkpt>
      <trkpt lat="47.85875" lon="-3.53063">
        <ele>36.55</ele>
        <time>2020-07-08T10:54:11Z</time>
      </trkpt>
      <trkpt lat="47.85877" lon="-3.5307">
        <ele>36.27</ele>
        <time>2020-07-08T10:54:12Z</time>
      </trkpt>
      <trkpt lat="47.85879" lon="-3.53077">
        <ele>36.09</ele>
        <time>2020-07-08T10:54:13Z</time>
      </trkpt>
      <trkpt lat="47.85881" lon="-3.53086">
        <ele>36.05</ele>
        <time>2020-07-08T10:54:14Z</time>
      </trkpt>
      <trkpt lat="47.85884" lon="-3.53094">
        <ele>36.19</ele>
        <time>2020-07-08T10:54:15Z</time>
      </trkpt>
      <trkpt lat="47.85887" lon="-3.53102">
        <ele>36.47</ele>
        <time>2020-07-08T10:54:16Z</time>
      </trkpt>
      <trkpt lat="47.85889" lon="-3.53111">
        <ele>36.8</ele>
        <time>2020-07-08T10:54:17Z</time>
      </trkpt>
      <trkpt lat="47.85892" lon="-3.5312">
        <ele>36.53</ele>
        <time>2020-07-08T10:54:18Z</time>
      </trkpt>
      <trkpt lat="47.85894" lon="-3.53129">
        <ele>36.11</ele>
        <time>2020-07-08T10:54:19Z</time>
      </trkpt>
      <trkpt lat="47.85896" lon="-3.53139">
        <ele>35.65</ele>
        <time>2020-07-08T10:54:20Z</time>
      </trkpt>
      <trkpt lat="47.85899" lon="-3.53148">
        <ele>35.14</ele>
        <time>2020-07-08T10:54:21Z</time>
      </trkpt>
      <trkpt lat="47.85902" lon="-3.53158">
        <ele>34.58</ele>
        <time>2020-07-08T10:54:22Z</time>
      </trkpt>
      <trkpt lat="47.85905" lon="-3.53169">
        <ele>33.96</ele>
        <time>2020-07-08T10:54:23Z</time>
      </trkpt>
      <trkpt lat="47.85909" lon="-3.53179">
        <ele>33.27</ele>
        <time>2020-07-08T10:54:24Z</time>
      </trkpt>
      <trkpt lat="47.85913" lon="-3.5319">
        <ele>32.6</ele>
        <time>2020-07-08T10:54:25Z</time>
      </trkpt>
      <trkpt lat="47.85918" lon="-3.532">
        <ele>31.81</ele>
        <time>2020-07-08T10:54:26Z</time>
      </trkpt>
      <trkpt lat="47.85922" lon="-3.53211">
        <ele>31.07</ele>
        <time>2020-07-08T10:54:27Z</time>
      </trkpt>
      <trkpt lat="47.85925" lon="-3.53223">
        <ele>30.42</ele>
        <time>2020-07-08T10:54:28Z</time>
      </trkpt>
      <trkpt lat="47.85929" lon="-3.53236">
        <ele>29.91</ele>
        <time>2020-07-08T10:54:29Z</time>
      </trkpt>
      <trkpt lat="47.85932" lon="-3.53248">
        <ele>29.59</ele>
        <time>2020-07-08T10:54:30Z</time>
      </trkpt>
      <trkpt lat="47.85935" lon="-3.5326">
        <ele>29.36</ele>
        <time>2020-07-08T10:54:31Z</time>
      </trkpt>
      <trkpt lat="47.85937" lon="-3.53272">
        <ele>29.2</ele>
        <time>2020-07-08T10:54:32Z</time>
      </trkpt>
      <trkpt lat="47.85939" lon="-3.53283">
        <ele>29.19</ele>
        <time>2020-07-08T10:54:33Z</time>
      </trkpt>
      <trkpt lat="47.8594" lon="-3.53294">
        <ele>29.18</ele>
        <time>2020-07-08T10:54:34Z</time>
      </trkpt>
      <trkpt lat="47.85942" lon="-3.53305">
        <ele>29.24</ele>
        <time>2020-07-08T10:54:35Z</time>
      </trkpt>
      <trkpt lat="47.85944" lon="-3.53316">
        <ele>29.1</ele>
        <time>2020-07-08T10:54:36Z</time>
      </trkpt>
      <trkpt lat="47.85945" lon="-3.53327">
        <ele>28.7</ele>
        <time>2020-07-08T10:54:37Z</time>
      </trkpt>
      <trkpt lat="47.85947" lon="-3.53337">
        <ele>28.35</ele>
        <time>2020-07-08T10:54:38Z</time>
      </trkpt>
      <trkpt lat="47.85949" lon="-3.53348">
        <ele>28.33</ele>
        <time>2020-07-08T10:54:39Z</time>
      </trkpt>
      <trkpt lat="47.85951" lon="-3.53358">
        <ele>28.42</ele>
        <time>2020-07-08T10:54:40Z</time>
      </trkpt>
      <trkpt lat="47.85953" lon="-3.53368">
        <ele>28.47</ele>
        <time>2020-07-08T10:54:41Z</time>
      </trkpt>
      <trkpt lat="47.85955" lon="-3.53377">
        <ele>28.56</ele>
        <time>2020-07-08T10:54:42Z</time>
      </trkpt>
      <trkpt lat="47.85957" lon="-3.53387">
        <ele>28.74</ele>
        <time>2020-07-08T10:54:43Z</time>
      </trkpt>
      <trkpt lat="47.85959" lon="-3.53396">
        <ele>28.94</ele>
        <time>2020-07-08T10:54:44Z</time>
      </trkpt>
      <trkpt lat="47.8596" lon="-3.53405">
        <ele>29.11</ele>
        <time>2020-07-08T10:54:45Z</time>
      </trkpt>
      <trkpt lat="47.85962" lon="-3.53413">
        <ele>29.21</ele>
        <time>2020-07-08T10:54:46Z</time>
      </trkpt>
      <trkpt lat="47.85963" lon="-3.53421">
        <ele>29.35</ele>
        <time>2020-07-08T10:54:47Z</time>
      </trkpt>
      <trkpt lat="47.85965" lon="-3.53429">
        <ele>29.5</ele>
        <time>2020-07-08T10:54:48Z</time>
      </trkpt>
      <trkpt lat="47.85966" lon="-3.53437">
        <ele>29.65</ele>
        <time>2020-07-08T10:54:49Z</time>
      </trkpt>
      <trkpt lat="47.85967" lon="-3.53446">
        <ele>29.81</ele>
        <time>2020-07-08T10:54:50Z</time>
      </trkpt>
      <trkpt lat="47.85968" lon="-3.53454">
        <ele>30.11</ele>
        <time>2020-07-08T10:54:51Z</time>
      </trkpt>
      <trkpt lat="47.85968" lon="-3.53462">
        <ele>30.44</ele>
        <time>2020-07-08T10:54:52Z</time>
      </trkpt>
      <trkpt lat="47.85969" lon="-3.53469">
        <ele>30.75</ele>
        <time>2020-07-08T10:54:53Z</time>
      </trkpt>
      <trkpt lat="47.85969" lon="-3.53477">
        <ele>31.05</ele>
        <time>2020-07-08T10:54:54Z</time>
      </trkpt>
      <trkpt lat="47.85969" lon="-3.53484">
        <ele>31.35</ele>
        <time>2020-07-08T10:54:55Z</time>
      </trkpt>
      <trkpt lat="47.85969" lon="-3.53491">
        <ele>31.63</ele>
        <time>2020-07-08T10:54:56Z</time>
      </trkpt>
      <trkpt lat="47.85969" lon="-3.53497">
        <ele>31.91</ele>
        <time>2020-07-08T10:54:57Z</time>
      </trkpt>
      <trkpt lat="47.85968" lon="-3.53504">
        <ele>32.34</ele>
        <time>2020-07-08T10:54:58Z</time>
      </trkpt>
      <trkpt lat="47.85967" lon="-3.5351">
        <ele>32.88</ele>
        <time>2020-07-08T10:54:59Z</time>
      </trkpt>
      <trkpt lat="47.85967" lon="-3.53517">
        <ele>33.54</ele>
        <time>2020-07-08T10:55:00Z</time>
      </trkpt>
      <trkpt lat="47.85966" lon="-3.53524">
        <ele>34.17</ele>
        <time>2020-07-08T10:55:01Z</time>
      </trkpt>
      <trkpt lat="47.85966" lon="-3.5353">
        <ele>34.65</ele>
        <time>2020-07-08T10:55:02Z</time>
      </trkpt>
      <trkpt lat="47.85965" lon="-3.53536">
        <ele>34.93</ele>
        <time>2020-07-08T10:55:03Z</time>
      </trkpt>
      <trkpt lat="47.85965" lon="-3.53542">
        <ele>35.13</ele>
        <time>2020-07-08T10:55:04Z</time>
      </trkpt>
      <trkpt lat="47.85964" lon="-3.53547">
        <ele>35.31</ele>
        <time>2020-07-08T10:55:05Z</time>
      </trkpt>
      <trkpt lat="47.85964" lon="-3.53552">
        <ele>35.49</ele>
        <time>2020-07-08T10:55:06Z</time>
      </trkpt>
      <trkpt lat="47.85964" lon="-3.53558">
        <ele>35.67</ele>
        <time>2020-07-08T10:55:07Z</time>
      </trkpt>
      <trkpt lat="47.85965" lon="-3.53563">
        <ele>35.81</ele>
        <time>2020-07-08T10:55:08Z</time>
      </trkpt>
      <trkpt lat="47.85966" lon="-3.53567">
        <ele>35.92</ele>
        <time>2020-07-08T10:55:09Z</time>
      </trkpt>
      <trkpt lat="47.85967" lon="-3.53571">
        <ele>35.99</ele>
        <time>2020-07-08T10:55:10Z</time>
      </trkpt>
      <trkpt lat="47.85969" lon="-3.53574">
        <ele>36.03</ele>
        <time>2020-07-08T10:55:11Z</time>
      </trkpt>
      <trkpt lat="47.85969" lon="-3.53577">
        <ele>36.05</ele>
        <time>2020-07-08T10:55:12Z</time>
      </trkpt>
      <trkpt lat="47.85969" lon="-3.53579">
        <ele>36.06</ele>
        <time>2020-07-08T10:55:13Z</time>
      </trkpt>
      <trkpt lat="47.8597" lon="-3.5358">
        <ele>36.06</ele>
        <time>2020-07-08T10:55:14Z</time>
      </trkpt>
      <trkpt lat="47.8597" lon="-3.5358">
        <ele>36.06</ele>
        <time>2020-07-08T10:55:15Z</time>
      </trkpt>
      <trkpt lat="47.8597" lon="-3.5358">
        <ele>36.06</ele>
        <time>2020-07-08T10:55:16Z</time>
      </trkpt>
      <trkpt lat="47.8597" lon="-3.5358">
        <ele>36.06</ele>
        <time>2020-07-08T10:55:17Z</time>
      </trkpt>
      <trkpt lat="47.8597" lon="-3.5358">
        <ele>36.06</ele>
        <time>2020-07-08T10:55:18Z</time>
      </trkpt>
      <trkpt lat="47.8597" lon="-3.5358">
        <ele>36.06</ele>
        <time>2020-07-08T10:55:19Z</time>
      </trkpt>
      <trkpt lat="47.8597" lon="-3.5358">
        <ele>36.06</ele>
        <time>2020-07-08T10:55:20Z</time>
      </trkpt>
      <trkpt lat="47.8597" lon="-3.5358">
        <ele>36.06</ele>
        <time>2020-07-08T10:55:21Z</time>
      </trkpt>
      <trkpt lat="47.8597" lon="-3.5358">
        <ele>36.06</ele>
        <time>2020-07-08T10:55:22Z</time>
      </trkpt>
      <trkpt lat="47.8597" lon="-3.5358">
        <ele>36.06</ele>
        <time>2020-07-08T10:55:23Z</time>
      </trkpt>
      <trkpt lat="47.8597" lon="-3.5358">
        <ele>36.06</ele>
        <time>2020-07-08T10:55:24Z</time>
      </trkpt>
      <trkpt lat="47.8597" lon="-3.5358">
        <ele>36.06</ele>
        <time>2020-07-08T10:55:25Z</time>
      </trkpt>
      <trkpt lat="47.8597" lon="-3.5358">
        <ele>36.06</ele>
        <time>2020-07-08T10:55:26Z</time>
      </trkpt>
      <trkpt lat="47.8597" lon="-3.5358">
        <ele>36.06</ele>
        <time>2020-07-08T10:55:27Z</time>
      </trkpt>
      <trkpt lat="47.8597" lon="-3.5358">
        <ele>36.06</ele>
        <time>2020-07-08T10:55:28Z</time>
      </trkpt>
      <trkpt lat="47.8597" lon="-3.5358">
        <ele>36.06</ele>
        <time>2020-07-08T10:55:29Z</time>
      </trkpt>
      <trkpt lat="47.8597" lon="-3.5358">
        <ele>36.06</ele>
        <time>2020-07-08T10:55:30Z</time>
      </trkpt>
      <trkpt lat="47.8597" lon="-3.5358">
        <ele>36.06</ele>
        <time>2020-07-08T10:55:31Z</time>
      </trkpt>
      <trkpt lat="47.8597" lon="-3.5358">
        <ele>36.06</ele>
        <time>2020-07-08T10:55:32Z</time>
      </trkpt>
      <trkpt lat="47.8597" lon="-3.5358">
        <ele>36.06</ele>
        <time>2020-07-08T10:55:33Z</time>
      </trkpt>
      <trkpt lat="47.8597" lon="-3.5358">
        <ele>36.06</ele>
        <time>2020-07-08T10:55:34Z</time>
      </trkpt>
      <trkpt lat="47.8597" lon="-3.5358">
        <ele>36.06</ele>
        <time>2020-07-08T10:55:35Z</time>
      </trkpt>
      <trkpt lat="47.8597" lon="-3.5358">
        <ele>36.06</ele>
        <time>2020-07-08T10:55:36Z</time>
      </trkpt>
      <trkpt lat="47.8597" lon="-3.5358">
        <ele>36.06</ele>
        <time>2020-07-08T10:55:37Z</time>
      </trkpt>
      <trkpt lat="47.8597" lon="-3.5358">
        <ele>36.06</ele>
        <time>2020-07-08T10:55:38Z</time>
      </trkpt>
      <trkpt lat="47.8597" lon="-3.5358">
        <ele>36.06</ele>
        <time>2020-07-08T10:55:39Z</time>
      </trkpt>
      <trkpt lat="47.8597" lon="-3.5358">
        <ele>36.06</ele>
        <time>2020-07-08T10:55:40Z</time>
      </trkpt>
      <trkpt lat="47.8597" lon="-3.5358">
        <ele>36.06</ele>
        <time>2020-07-08T10:55:41Z</time>
      </trkpt>
      <trkpt lat="47.8597" lon="-3.5358">
        <ele>36.06</ele>
        <time>2020-07-08T10:55:42Z</time>
      </trkpt>
      <trkpt lat="47.8597" lon="-3.5358">
        <ele>36.06</ele>
        <time>2020-07-08T10:55:43Z</time>
      </trkpt>
      <trkpt lat="47.8597" lon="-3.5358">
        <ele>36.06</ele>
        <time>2020-07-08T10:55:44Z</time>
      </trkpt>
      <trkpt lat="47.8597" lon="-3.5358">
        <ele>36.06</ele>
        <time>2020-07-08T10:55:45Z</time>
      </trkpt>
      <trkpt lat="47.8597" lon="-3.5358">
        <ele>36.06</ele>
        <time>2020-07-08T10:55:46Z</time>
      </trkpt>
      <trkpt lat="47.8597" lon="-3.5358">
        <ele>36.06</ele>
        <time>2020-07-08T10:55:47Z</time>
      </trkpt>
      <trkpt lat="47.8597" lon="-3.5358">
        <ele>36.06</ele>
        <time>2020-07-08T10:55:48Z</time>
      </trkpt>
      <trkpt lat="47.8597" lon="-3.5358">
        <ele>36.06</ele>
        <time>2020-07-08T10:55:49Z</time>
      </trkpt>
      <trkpt lat="47.8597" lon="-3.5358">
        <ele>36.06</ele>
        <time>2020-07-08T10:55:50Z</time>
      </trkpt>
      <trkpt lat="47.8597" lon="-3.5358">
        <ele>36.06</ele>
        <time>2020-07-08T10:55:51Z</time>
      </trkpt>
      <trkpt lat="47.8597" lon="-3.5358">
        <ele>36.06</ele>
        <time>2020-07-08T10:55:52Z</time>
      </trkpt>
      <trkpt lat="47.85972" lon="-3.53577">
        <ele>36.02</ele>
        <time>2020-07-08T10:55:53Z</time>
      </trkpt>
      <trkpt lat="47.85975" lon="-3.53577">
        <ele>35.76</ele>
        <time>2020-07-08T10:55:54Z</time>
      </trkpt>
      <trkpt lat="47.85978" lon="-3.53577">
        <ele>35.33</ele>
        <time>2020-07-08T10:55:55Z</time>
      </trkpt>
      <trkpt lat="47.85981" lon="-3.53577">
        <ele>34.83</ele>
        <time>2020-07-08T10:55:56Z</time>
      </trkpt>
      <trkpt lat="47.85985" lon="-3.53577">
        <ele>34.29</ele>
        <time>2020-07-08T10:55:57Z</time>
      </trkpt>
      <trkpt lat="47.85989" lon="-3.53576">
        <ele>33.7</ele>
        <time>2020-07-08T10:55:58Z</time>
      </trkpt>
      <trkpt lat="47.85992" lon="-3.53575">
        <ele>33.16</ele>
        <time>2020-07-08T10:55:59Z</time>
      </trkpt>
      <trkpt lat="47.85996" lon="-3.53575">
        <ele>32.6</ele>
        <time>2020-07-08T10:56:00Z</time>
      </trkpt>
      <trkpt lat="47.85999" lon="-3.53573">
        <ele>32.06</ele>
        <time>2020-07-08T10:56:01Z</time>
      </trkpt>
      <trkpt lat="47.86002" lon="-3.53572">
        <ele>31.91</ele>
        <time>2020-07-08T10:56:02Z</time>
      </trkpt>
      <trkpt lat="47.86005" lon="-3.5357">
        <ele>32.21</ele>
        <time>2020-07-08T10:56:03Z</time>
      </trkpt>
      <trkpt lat="47.86009" lon="-3.53569">
        <ele>32.68</ele>
        <time>2020-07-08T10:56:04Z</time>
      </trkpt>
      <trkpt lat="47.86013" lon="-3.53567">
        <ele>33.28</ele>
        <time>2020-07-08T10:56:05Z</time>
      </trkpt>
      <trkpt lat="47.86017" lon="-3.53566">
        <ele>33.89</ele>
        <time>2020-07-08T10:56:06Z</time>
      </trkpt>
      <trkpt lat="47.86021" lon="-3.53564">
        <ele>34.5</ele>
        <time>2020-07-08T10:56:07Z</time>
      </trkpt>
      <trkpt lat="47.86025" lon="-3.53562">
        <ele>35.18</ele>
        <time>2020-07-08T10:56:08Z</time>
      </trkpt>
      <trkpt lat="47.86029" lon="-3.53561">
        <ele>35.79</ele>
        <time>2020-07-08T10:56:09Z</time>
      </trkpt>
      <trkpt lat="47.86033" lon="-3.5356">
        <ele>36.11</ele>
        <time>2020-07-08T10:56:10Z</time>
      </trkpt>
      <trkpt lat="47.86037" lon="-3.53559">
        <ele>36.32</ele>
        <time>2020-07-08T10:56:11Z</time>
      </trkpt>
      <trkpt lat="47.86041" lon="-3.53558">
        <ele>36.49</ele>
        <time>2020-07-08T10:56:12Z</time>
      </trkpt>
      <trkpt lat="47.86045" lon="-3.53559">
        <ele>36.67</ele>
        <time>2020-07-08T10:56:13Z</time>
      </trkpt>
      <trkpt lat="47.86049" lon="-3.5356">
        <ele>36.91</ele>
        <time>2020-07-08T10:56:14Z</time>
      </trkpt>
      <trkpt lat="47.86054" lon="-3.53561">
        <ele>37.2</ele>
        <time>2020-07-08T10:56:15Z</time>
      </trkpt>
      <trkpt lat="47.86058" lon="-3.53563">
        <ele>37.44</ele>
        <time>2020-07-08T10:56:16Z</time>
      </trkpt>
      <trkpt lat="47.86062" lon="-3.53565">
        <ele>37.62</ele>
        <time>2020-07-08T10:56:17Z</time>
      </trkpt>
      <trkpt lat="47.86066" lon="-3.53568">
        <ele>37.83</ele>
        <time>2020-07-08T10:56:18Z</time>
      </trkpt>
      <trkpt lat="47.8607" lon="-3.53572">
        <ele>38.07</ele>
        <time>2020-07-08T10:56:19Z</time>
      </trkpt>
      <trkpt lat="47.86073" lon="-3.53576">
        <ele>38.34</ele>
        <time>2020-07-08T10:56:20Z</time>
      </trkpt>
      <trkpt lat="47.86077" lon="-3.5358">
        <ele>38.63</ele>
        <time>2020-07-08T10:56:21Z</time>
      </trkpt>
      <trkpt lat="47.8608" lon="-3.53583">
        <ele>38.89</ele>
        <time>2020-07-08T10:56:22Z</time>
      </trkpt>
      <trkpt lat="47.86084" lon="-3.53587">
        <ele>39.07</ele>
        <time>2020-07-08T10:56:23Z</time>
      </trkpt>
      <trkpt lat="47.86088" lon="-3.53591">
        <ele>39.25</ele>
        <time>2020-07-08T10:56:24Z</time>
      </trkpt>
      <trkpt lat="47.86092" lon="-3.53594">
        <ele>39.44</ele>
        <time>2020-07-08T10:56:25Z</time>
      </trkpt>
      <trkpt lat="47.86096" lon="-3.53598">
        <ele>39.65</ele>
        <time>2020-07-08T10:56:26Z</time>
      </trkpt>
      <trkpt lat="47.861" lon="-3.53601">
        <ele>39.88</ele>
        <time>2020-07-08T10:56:27Z</time>
      </trkpt>
      <trkpt lat="47.86104" lon="-3.53603">
        <ele>40.13</ele>
        <time>2020-07-08T10:56:28Z</time>
      </trkpt>
      <trkpt lat="47.86107" lon="-3.53605">
        <ele>40.37</ele>
        <time>2020-07-08T10:56:29Z</time>
      </trkpt>
      <trkpt lat="47.86111" lon="-3.53607">
        <ele>40.56</ele>
        <time>2020-07-08T10:56:30Z</time>
      </trkpt>
      <trkpt lat="47.86116" lon="-3.53605">
        <ele>40.26</ele>
        <time>2020-07-08T10:56:31Z</time>
      </trkpt>
      <trkpt lat="47.8612" lon="-3.53603">
        <ele>39.8</ele>
        <time>2020-07-08T10:56:32Z</time>
      </trkpt>
      <trkpt lat="47.86123" lon="-3.53599">
        <ele>39.27</ele>
        <time>2020-07-08T10:56:33Z</time>
      </trkpt>
      <trkpt lat="47.86126" lon="-3.53595">
        <ele>38.73</ele>
        <time>2020-07-08T10:56:34Z</time>
      </trkpt>
      <trkpt lat="47.8613" lon="-3.53591">
        <ele>38.22</ele>
        <time>2020-07-08T10:56:35Z</time>
      </trkpt>
      <trkpt lat="47.86134" lon="-3.53588">
        <ele>37.75</ele>
        <time>2020-07-08T10:56:36Z</time>
      </trkpt>
      <trkpt lat="47.86137" lon="-3.53584">
        <ele>37.31</ele>
        <time>2020-07-08T10:56:37Z</time>
      </trkpt>
      <trkpt lat="47.86142" lon="-3.53581">
        <ele>37.6</ele>
        <time>2020-07-08T10:56:38Z</time>
      </trkpt>
      <trkpt lat="47.86146" lon="-3.53577">
        <ele>38.42</ele>
        <time>2020-07-08T10:56:39Z</time>
      </trkpt>
      <trkpt lat="47.8615" lon="-3.53574">
        <ele>39.28</ele>
        <time>2020-07-08T10:56:40Z</time>
      </trkpt>
      <trkpt lat="47.86154" lon="-3.5357">
        <ele>40.07</ele>
        <time>2020-07-08T10:56:41Z</time>
      </trkpt>
      <trkpt lat="47.86158" lon="-3.53567">
        <ele>40.75</ele>
        <time>2020-07-08T10:56:42Z</time>
      </trkpt>
      <trkpt lat="47.86162" lon="-3.53563">
        <ele>41.32</ele>
        <time>2020-07-08T10:56:43Z</time>
      </trkpt>
      <trkpt lat="47.86165" lon="-3.5356">
        <ele>41.77</ele>
        <time>2020-07-08T10:56:44Z</time>
      </trkpt>
      <trkpt lat="47.86169" lon="-3.53557">
        <ele>42.08</ele>
        <time>2020-07-08T10:56:45Z</time>
      </trkpt>
      <trkpt lat="47.86172" lon="-3.53555">
        <ele>42.33</ele>
        <time>2020-07-08T10:56:46Z</time>
      </trkpt>
      <trkpt lat="47.86176" lon="-3.53554">
        <ele>42.59</ele>
        <time>2020-07-08T10:56:47Z</time>
      </trkpt>
      <trkpt lat="47.86179" lon="-3.53553">
        <ele>42.84</ele>
        <time>2020-07-08T10:56:48Z</time>
      </trkpt>
      <trkpt lat="47.86182" lon="-3.53553">
        <ele>43.04</ele>
        <time>2020-07-08T10:56:49Z</time>
      </trkpt>
      <trkpt lat="47.86185" lon="-3.53553">
        <ele>43.26</ele>
        <time>2020-07-08T10:56:50Z</time>
      </trkpt>
      <trkpt lat="47.86188" lon="-3.53553">
        <ele>43.48</ele>
        <time>2020-07-08T10:56:51Z</time>
      </trkpt>
      <trkpt lat="47.86192" lon="-3.53552">
        <ele>43.71</ele>
        <time>2020-07-08T10:56:52Z</time>
      </trkpt>
      <trkpt lat="47.86195" lon="-3.53552">
        <ele>43.92</ele>
        <time>2020-07-08T10:56:53Z</time>
      </trkpt>
      <trkpt lat="47.86197" lon="-3.53552">
        <ele>44.05</ele>
        <time>2020-07-08T10:56:54Z</time>
      </trkpt>
      <trkpt lat="47.86201" lon="-3.5355">
        <ele>44.17</ele>
        <time>2020-07-08T10:56:55Z</time>
      </trkpt>
      <trkpt lat="47.86204" lon="-3.53549">
        <ele>44.3</ele>
        <time>2020-07-08T10:56:56Z</time>
      </trkpt>
      <trkpt lat="47.86208" lon="-3.53548">
        <ele>44.43</ele>
        <time>2020-07-08T10:56:57Z</time>
      </trkpt>
      <trkpt lat="47.86211" lon="-3.53546">
        <ele>44.55</ele>
        <time>2020-07-08T10:56:58Z</time>
      </trkpt>
      <trkpt lat="47.86215" lon="-3.53545">
        <ele>44.68</ele>
        <time>2020-07-08T10:56:59Z</time>
      </trkpt>
      <trkpt lat="47.86218" lon="-3.53543">
        <ele>44.8</ele>
        <time>2020-07-08T10:57:00Z</time>
      </trkpt>
      <trkpt lat="47.86221" lon="-3.53542">
        <ele>44.92</ele>
        <time>2020-07-08T10:57:01Z</time>
      </trkpt>
      <trkpt lat="47.86225" lon="-3.53541">
        <ele>45.06</ele>
        <time>2020-07-08T10:57:02Z</time>
      </trkpt>
      <trkpt lat="47.86229" lon="-3.5354">
        <ele>45.19</ele>
        <time>2020-07-08T10:57:03Z</time>
      </trkpt>
      <trkpt lat="47.86233" lon="-3.53538">
        <ele>45.32</ele>
        <time>2020-07-08T10:57:04Z</time>
      </trkpt>
      <trkpt lat="47.86236" lon="-3.53537">
        <ele>45.44</ele>
        <time>2020-07-08T10:57:05Z</time>
      </trkpt>
      <trkpt lat="47.8624" lon="-3.53536">
        <ele>45.57</ele>
        <time>2020-07-08T10:57:06Z</time>
      </trkpt>
      <trkpt lat="47.86244" lon="-3.53535">
        <ele>45.71</ele>
        <time>2020-07-08T10:57:07Z</time>
      </trkpt>
      <trkpt lat="47.86247" lon="-3.53535">
        <ele>45.83</ele>
        <time>2020-07-08T10:57:08Z</time>
      </trkpt>
      <trkpt lat="47.8625" lon="-3.53534">
        <ele>45.95</ele>
        <time>2020-07-08T10:57:09Z</time>
      </trkpt>
      <trkpt lat="47.86254" lon="-3.53534">
        <ele>46.09</ele>
        <time>2020-07-08T10:57:10Z</time>
      </trkpt>
      <trkpt lat="47.86258" lon="-3.53534">
        <ele>46.23</ele>
        <time>2020-07-08T10:57:11Z</time>
      </trkpt>
      <trkpt lat="47.86263" lon="-3.53534">
        <ele>46.38</ele>
        <time>2020-07-08T10:57:12Z</time>
      </trkpt>
      <trkpt lat="47.86267" lon="-3.53534">
        <ele>46.53</ele>
        <time>2020-07-08T10:57:13Z</time>
      </trkpt>
      <trkpt lat="47.86271" lon="-3.53534">
        <ele>46.7</ele>
        <time>2020-07-08T10:57:14Z</time>
      </trkpt>
      <trkpt lat="47.86277" lon="-3.53535">
        <ele>46.88</ele>
        <time>2020-07-08T10:57:15Z</time>
      </trkpt>
      <trkpt lat="47.86281" lon="-3.53535">
        <ele>46.98</ele>
        <time>2020-07-08T10:57:16Z</time>
      </trkpt>
      <trkpt lat="47.86286" lon="-3.53535">
        <ele>47.05</ele>
        <time>2020-07-08T10:57:17Z</time>
      </trkpt>
      <trkpt lat="47.8629" lon="-3.53535">
        <ele>47.1</ele>
        <time>2020-07-08T10:57:18Z</time>
      </trkpt>
      <trkpt lat="47.86295" lon="-3.53535">
        <ele>47.15</ele>
        <time>2020-07-08T10:57:19Z</time>
      </trkpt>
      <trkpt lat="47.863" lon="-3.53535">
        <ele>47.2</ele>
        <time>2020-07-08T10:57:20Z</time>
      </trkpt>
      <trkpt lat="47.86304" lon="-3.53536">
        <ele>47.25</ele>
        <time>2020-07-08T10:57:21Z</time>
      </trkpt>
      <trkpt lat="47.86308" lon="-3.53536">
        <ele>47.32</ele>
        <time>2020-07-08T10:57:22Z</time>
      </trkpt>
      <trkpt lat="47.86312" lon="-3.53537">
        <ele>47.43</ele>
        <time>2020-07-08T10:57:23Z</time>
      </trkpt>
      <trkpt lat="47.86315" lon="-3.53537">
        <ele>47.53</ele>
        <time>2020-07-08T10:57:24Z</time>
      </trkpt>
      <trkpt lat="47.86319" lon="-3.53538">
        <ele>47.64</ele>
        <time>2020-07-08T10:57:25Z</time>
      </trkpt>
      <trkpt lat="47.86323" lon="-3.53539">
        <ele>47.74</ele>
        <time>2020-07-08T10:57:26Z</time>
      </trkpt>
      <trkpt lat="47.86327" lon="-3.53539">
        <ele>47.83</ele>
        <time>2020-07-08T10:57:27Z</time>
      </trkpt>
      <trkpt lat="47.86331" lon="-3.53539">
        <ele>47.92</ele>
        <time>2020-07-08T10:57:28Z</time>
      </trkpt>
      <trkpt lat="47.86336" lon="-3.5354">
        <ele>48.03</ele>
        <time>2020-07-08T10:57:29Z</time>
      </trkpt>
      <trkpt lat="47.8634" lon="-3.5354">
        <ele>48.17</ele>
        <time>2020-07-08T10:57:30Z</time>
      </trkpt>
      <trkpt lat="47.86345" lon="-3.5354">
        <ele>48.34</ele>
        <time>2020-07-08T10:57:31Z</time>
      </trkpt>
      <trkpt lat="47.8635" lon="-3.5354">
        <ele>48.53</ele>
        <time>2020-07-08T10:57:32Z</time>
      </trkpt>
      <trkpt lat="47.86355" lon="-3.5354">
        <ele>48.7</ele>
        <time>2020-07-08T10:57:33Z</time>
      </trkpt>
      <trkpt lat="47.86359" lon="-3.5354">
        <ele>48.85</ele>
        <time>2020-07-08T10:57:34Z</time>
      </trkpt>
      <trkpt lat="47.86362" lon="-3.5354">
        <ele>48.97</ele>
        <time>2020-07-08T10:57:35Z</time>
      </trkpt>
      <trkpt lat="47.86366" lon="-3.53541">
        <ele>49.05</ele>
        <time>2020-07-08T10:57:36Z</time>
      </trkpt>
      <trkpt lat="47.8637" lon="-3.53542">
        <ele>49.13</ele>
        <time>2020-07-08T10:57:37Z</time>
      </trkpt>
      <trkpt lat="47.86375" lon="-3.53542">
        <ele>49.23</ele>
        <time>2020-07-08T10:57:38Z</time>
      </trkpt>
      <trkpt lat="47.86379" lon="-3.53543">
        <ele>49.32</ele>
        <time>2020-07-08T10:57:39Z</time>
      </trkpt>
      <trkpt lat="47.86383" lon="-3.53543">
        <ele>49.4</ele>
        <time>2020-07-08T10:57:40Z</time>
      </trkpt>
      <trkpt lat="47.86386" lon="-3.53545">
        <ele>49.51</ele>
        <time>2020-07-08T10:57:41Z</time>
      </trkpt>
      <trkpt lat="47.8639" lon="-3.53547">
        <ele>49.68</ele>
        <time>2020-07-08T10:57:42Z</time>
      </trkpt>
      <trkpt lat="47.86395" lon="-3.53549">
        <ele>49.92</ele>
        <time>2020-07-08T10:57:43Z</time>
      </trkpt>
      <trkpt lat="47.86399" lon="-3.53551">
        <ele>50.14</ele>
        <time>2020-07-08T10:57:44Z</time>
      </trkpt>
      <trkpt lat="47.86404" lon="-3.53551">
        <ele>50.36</ele>
        <time>2020-07-08T10:57:45Z</time>
      </trkpt>
      <trkpt lat="47.86408" lon="-3.53553">
        <ele>50.57</ele>
        <time>2020-07-08T10:57:46Z</time>
      </trkpt>
      <trkpt lat="47.86412" lon="-3.53555">
        <ele>50.76</ele>
        <time>2020-07-08T10:57:47Z</time>
      </trkpt>
      <trkpt lat="47.86416" lon="-3.53557">
        <ele>50.92</ele>
        <time>2020-07-08T10:57:48Z</time>
      </trkpt>
      <trkpt lat="47.8642" lon="-3.53558">
        <ele>51.06</ele>
        <time>2020-07-08T10:57:49Z</time>
      </trkpt>
      <trkpt lat="47.86424" lon="-3.5356">
        <ele>51.21</ele>
        <time>2020-07-08T10:57:50Z</time>
      </trkpt>
      <trkpt lat="47.86429" lon="-3.53561">
        <ele>51.36</ele>
        <time>2020-07-08T10:57:51Z</time>
      </trkpt>
      <trkpt lat="47.86435" lon="-3.53563">
        <ele>51.56</ele>
        <time>2020-07-08T10:57:52Z</time>
      </trkpt>
      <trkpt lat="47.86439" lon="-3.53566">
        <ele>51.74</ele>
        <time>2020-07-08T10:57:53Z</time>
      </trkpt>
      <trkpt lat="47.86444" lon="-3.53569">
        <ele>51.91</ele>
        <time>2020-07-08T10:57:54Z</time>
      </trkpt>
      <trkpt lat="47.86448" lon="-3.53571">
        <ele>51.97</ele>
        <time>2020-07-08T10:57:55Z</time>
      </trkpt>
      <trkpt lat="47.86452" lon="-3.53574">
        <ele>51.99</ele>
        <time>2020-07-08T10:57:56Z</time>
      </trkpt>
      <trkpt lat="47.86457" lon="-3.53576">
        <ele>52</ele>
        <time>2020-07-08T10:57:57Z</time>
      </trkpt>
      <trkpt lat="47.8646" lon="-3.53579">
        <ele>52</ele>
        <time>2020-07-08T10:57:58Z</time>
      </trkpt>
      <trkpt lat="47.86464" lon="-3.53582">
        <ele>52</ele>
        <time>2020-07-08T10:57:59Z</time>
      </trkpt>
      <trkpt lat="47.86468" lon="-3.53585">
        <ele>52.01</ele>
        <time>2020-07-08T10:58:00Z</time>
      </trkpt>
      <trkpt lat="47.86472" lon="-3.53587">
        <ele>52</ele>
        <time>2020-07-08T10:58:01Z</time>
      </trkpt>
      <trkpt lat="47.86476" lon="-3.53586">
        <ele>52</ele>
        <time>2020-07-08T10:58:02Z</time>
      </trkpt>
      <trkpt lat="47.86481" lon="-3.53583">
        <ele>52</ele>
        <time>2020-07-08T10:58:03Z</time>
      </trkpt>
      <trkpt lat="47.86485" lon="-3.53579">
        <ele>52</ele>
        <time>2020-07-08T10:58:04Z</time>
      </trkpt>
      <trkpt lat="47.86488" lon="-3.53575">
        <ele>52</ele>
        <time>2020-07-08T10:58:05Z</time>
      </trkpt>
      <trkpt lat="47.86491" lon="-3.5357">
        <ele>52</ele>
        <time>2020-07-08T10:58:06Z</time>
      </trkpt>
      <trkpt lat="47.86495" lon="-3.53564">
        <ele>52</ele>
        <time>2020-07-08T10:58:07Z</time>
      </trkpt>
      <trkpt lat="47.86498" lon="-3.53559">
        <ele>52</ele>
        <time>2020-07-08T10:58:08Z</time>
      </trkpt>
      <trkpt lat="47.865" lon="-3.53553">
        <ele>52</ele>
        <time>2020-07-08T10:58:09Z</time>
      </trkpt>
      <trkpt lat="47.865" lon="-3.53547">
        <ele>52</ele>
        <time>2020-07-08T10:58:10Z</time>
      </trkpt>
      <trkpt lat="47.865" lon="-3.53542">
        <ele>52</ele>
        <time>2020-07-08T10:58:11Z</time>
      </trkpt>
      <trkpt lat="47.86499" lon="-3.53536">
        <ele>52</ele>
        <time>2020-07-08T10:58:12Z</time>
      </trkpt>
      <trkpt lat="47.86497" lon="-3.53531">
        <ele>52</ele>
        <time>2020-07-08T10:58:13Z</time>
      </trkpt>
      <trkpt lat="47.86495" lon="-3.53525">
        <ele>52</ele>
        <time>2020-07-08T10:58:14Z</time>
      </trkpt>
      <trkpt lat="47.86493" lon="-3.5352">
        <ele>52</ele>
        <time>2020-07-08T10:58:15Z</time>
      </trkpt>
      <trkpt lat="47.86491" lon="-3.53514">
        <ele>52</ele>
        <time>2020-07-08T10:58:16Z</time>
      </trkpt>
      <trkpt lat="47.86489" lon="-3.53509">
        <ele>52</ele>
        <time>2020-07-08T10:58:17Z</time>
      </trkpt>
      <trkpt lat="47.86488" lon="-3.53503">
        <ele>52</ele>
        <time>2020-07-08T10:58:18Z</time>
      </trkpt>
      <trkpt lat="47.86486" lon="-3.53497">
        <ele>51.97</ele>
        <time>2020-07-08T10:58:19Z</time>
      </trkpt>
      <trkpt lat="47.86483" lon="-3.53492">
        <ele>51.86</ele>
        <time>2020-07-08T10:58:20Z</time>
      </trkpt>
      <trkpt lat="47.86481" lon="-3.53485">
        <ele>51.7</ele>
        <time>2020-07-08T10:58:21Z</time>
      </trkpt>
      <trkpt lat="47.86478" lon="-3.53479">
        <ele>51.49</ele>
        <time>2020-07-08T10:58:22Z</time>
      </trkpt>
      <trkpt lat="47.86475" lon="-3.53472">
        <ele>51.23</ele>
        <time>2020-07-08T10:58:23Z</time>
      </trkpt>
      <trkpt lat="47.86473" lon="-3.53466">
        <ele>51.08</ele>
        <time>2020-07-08T10:58:24Z</time>
      </trkpt>
      <trkpt lat="47.8647" lon="-3.53459">
        <ele>50.97</ele>
        <time>2020-07-08T10:58:25Z</time>
      </trkpt>
      <trkpt lat="47.86467" lon="-3.53452">
        <ele>50.86</ele>
        <time>2020-07-08T10:58:26Z</time>
      </trkpt>
      <trkpt lat="47.86464" lon="-3.53446">
        <ele>50.75</ele>
        <time>2020-07-08T10:58:27Z</time>
      </trkpt>
      <trkpt lat="47.86461" lon="-3.5344">
        <ele>50.53</ele>
        <time>2020-07-08T10:58:28Z</time>
      </trkpt>
      <trkpt lat="47.86457" lon="-3.53432">
        <ele>50.17</ele>
        <time>2020-07-08T10:58:29Z</time>
      </trkpt>
      <trkpt lat="47.86453" lon="-3.53424">
        <ele>49.77</ele>
        <time>2020-07-08T10:58:30Z</time>
      </trkpt>
      <trkpt lat="47.8645" lon="-3.53417">
        <ele>49.37</ele>
        <time>2020-07-08T10:58:31Z</time>
      </trkpt>
      <trkpt lat="47.86446" lon="-3.53409">
        <ele>49.15</ele>
        <time>2020-07-08T10:58:32Z</time>
      </trkpt>
      <trkpt lat="47.86443" lon="-3.53403">
        <ele>49</ele>
        <time>2020-07-08T10:58:33Z</time>
      </trkpt>
      <trkpt lat="47.86439" lon="-3.53397">
        <ele>48.88</ele>
        <time>2020-07-08T10:58:34Z</time>
      </trkpt>
      <trkpt lat="47.86436" lon="-3.5339">
        <ele>48.75</ele>
        <time>2020-07-08T10:58:35Z</time>
      </trkpt>
      <trkpt lat="47.86434" lon="-3.53382">
        <ele>48.72</ele>
        <time>2020-07-08T10:58:36Z</time>
      </trkpt>
      <trkpt lat="47.86433" lon="-3.53374">
        <ele>48.79</ele>
        <time>2020-07-08T10:58:37Z</time>
      </trkpt>
      <trkpt lat="47.86434" lon="-3.53365">
        <ele>48.9</ele>
        <time>2020-07-08T10:58:38Z</time>
      </trkpt>
      <trkpt lat="47.86435" lon="-3.53358">
        <ele>49.03</ele>
        <time>2020-07-08T10:58:39Z</time>
      </trkpt>
      <trkpt lat="47.86438" lon="-3.53351">
        <ele>49.2</ele>
        <time>2020-07-08T10:58:40Z</time>
      </trkpt>
      <trkpt lat="47.86442" lon="-3.53347">
        <ele>49.39</ele>
        <time>2020-07-08T10:58:41Z</time>
      </trkpt>
      <trkpt lat="47.86446" lon="-3.53344">
        <ele>49.57</ele>
        <time>2020-07-08T10:58:42Z</time>
      </trkpt>
      <trkpt lat="47.86451" lon="-3.53341">
        <ele>49.73</ele>
        <time>2020-07-08T10:58:43Z</time>
      </trkpt>
      <trkpt lat="47.86456" lon="-3.53338">
        <ele>49.85</ele>
        <time>2020-07-08T10:58:44Z</time>
      </trkpt>
      <trkpt lat="47.8646" lon="-3.53336">
        <ele>49.93</ele>
        <time>2020-07-08T10:58:45Z</time>
      </trkpt>
      <trkpt lat="47.86465" lon="-3.53334">
        <ele>49.98</ele>
        <time>2020-07-08T10:58:46Z</time>
      </trkpt>
      <trkpt lat="47.8647" lon="-3.53331">
        <ele>50.06</ele>
        <time>2020-07-08T10:58:47Z</time>
      </trkpt>
      <trkpt lat="47.86475" lon="-3.53328">
        <ele>50.22</ele>
        <time>2020-07-08T10:58:48Z</time>
      </trkpt>
      <trkpt lat="47.86481" lon="-3.53325">
        <ele>50.43</ele>
        <time>2020-07-08T10:58:49Z</time>
      </trkpt>
      <trkpt lat="47.86486" lon="-3.53322">
        <ele>50.62</ele>
        <time>2020-07-08T10:58:50Z</time>
      </trkpt>
      <trkpt lat="47.86491" lon="-3.5332">
        <ele>50.77</ele>
        <time>2020-07-08T10:58:51Z</time>
      </trkpt>
      <trkpt lat="47.86497" lon="-3.53318">
        <ele>50.9</ele>
        <time>2020-07-08T10:58:52Z</time>
      </trkpt>
      <trkpt lat="47.86502" lon="-3.53316">
        <ele>50.97</ele>
        <time>2020-07-08T10:58:53Z</time>
      </trkpt>
      <trkpt lat="47.86507" lon="-3.53313">
        <ele>50.99</ele>
        <time>2020-07-08T10:58:54Z</time>
      </trkpt>
      <trkpt lat="47.86513" lon="-3.53311">
        <ele>51</ele>
        <time>2020-07-08T10:58:55Z</time>
      </trkpt>
      <trkpt lat="47.86518" lon="-3.53309">
        <ele>51</ele>
        <time>2020-07-08T10:58:56Z</time>
      </trkpt>
      <trkpt lat="47.86523" lon="-3.53306">
        <ele>51</ele>
        <time>2020-07-08T10:58:57Z</time>
      </trkpt>
      <trkpt lat="47.86528" lon="-3.53304">
        <ele>51.04</ele>
        <time>2020-07-08T10:58:58Z</time>
      </trkpt>
      <trkpt lat="47.86533" lon="-3.53302">
        <ele>51.1</ele>
        <time>2020-07-08T10:58:59Z</time>
      </trkpt>
      <trkpt lat="47.86538" lon="-3.53301">
        <ele>51.15</ele>
        <time>2020-07-08T10:59:00Z</time>
      </trkpt>
      <trkpt lat="47.86542" lon="-3.533">
        <ele>51.19</ele>
        <time>2020-07-08T10:59:01Z</time>
      </trkpt>
      <trkpt lat="47.86546" lon="-3.53298">
        <ele>51.24</ele>
        <time>2020-07-08T10:59:02Z</time>
      </trkpt>
      <trkpt lat="47.8655" lon="-3.53296">
        <ele>51.32</ele>
        <time>2020-07-08T10:59:03Z</time>
      </trkpt>
      <trkpt lat="47.86553" lon="-3.53294">
        <ele>51.39</ele>
        <time>2020-07-08T10:59:04Z</time>
      </trkpt>
      <trkpt lat="47.86557" lon="-3.53292">
        <ele>51.42</ele>
        <time>2020-07-08T10:59:05Z</time>
      </trkpt>
      <trkpt lat="47.86562" lon="-3.53289">
        <ele>51.39</ele>
        <time>2020-07-08T10:59:06Z</time>
      </trkpt>
      <trkpt lat="47.86566" lon="-3.53287">
        <ele>51.32</ele>
        <time>2020-07-08T10:59:07Z</time>
      </trkpt>
      <trkpt lat="47.8657" lon="-3.53285">
        <ele>51.24</ele>
        <time>2020-07-08T10:59:08Z</time>
      </trkpt>
      <trkpt lat="47.86575" lon="-3.53283">
        <ele>51.15</ele>
        <time>2020-07-08T10:59:09Z</time>
      </trkpt>
      <trkpt lat="47.86579" lon="-3.53281">
        <ele>51.06</ele>
        <time>2020-07-08T10:59:10Z</time>
      </trkpt>
      <trkpt lat="47.86584" lon="-3.5328">
        <ele>50.95</ele>
        <time>2020-07-08T10:59:11Z</time>
      </trkpt>
      <trkpt lat="47.86587" lon="-3.5328">
        <ele>50.92</ele>
        <time>2020-07-08T10:59:12Z</time>
      </trkpt>
      <trkpt lat="47.86589" lon="-3.5328">
        <ele>50.9</ele>
        <time>2020-07-08T10:59:13Z</time>
      </trkpt>
      <trkpt lat="47.86591" lon="-3.5328">
        <ele>50.89</ele>
        <time>2020-07-08T10:59:14Z</time>
      </trkpt>
      <trkpt lat="47.86594" lon="-3.53281">
        <ele>50.85</ele>
        <time>2020-07-08T10:59:15Z</time>
      </trkpt>
      <trkpt lat="47.86597" lon="-3.53283">
        <ele>50.77</ele>
        <time>2020-07-08T10:59:16Z</time>
      </trkpt>
      <trkpt lat="47.86601" lon="-3.53286">
        <ele>50.58</ele>
        <time>2020-07-08T10:59:17Z</time>
      </trkpt>
      <trkpt lat="47.86604" lon="-3.53291">
        <ele>50.27</ele>
        <time>2020-07-08T10:59:18Z</time>
      </trkpt>
      <trkpt lat="47.86608" lon="-3.53298">
        <ele>49.83</ele>
        <time>2020-07-08T10:59:19Z</time>
      </trkpt>
      <trkpt lat="47.86611" lon="-3.53306">
        <ele>49.26</ele>
        <time>2020-07-08T10:59:20Z</time>
      </trkpt>
      <trkpt lat="47.86613" lon="-3.53314">
        <ele>49.17</ele>
        <time>2020-07-08T10:59:21Z</time>
      </trkpt>
      <trkpt lat="47.86616" lon="-3.53323">
        <ele>49.23</ele>
        <time>2020-07-08T10:59:22Z</time>
      </trkpt>
      <trkpt lat="47.86619" lon="-3.53331">
        <ele>49.28</ele>
        <time>2020-07-08T10:59:23Z</time>
      </trkpt>
      <trkpt lat="47.86622" lon="-3.53339">
        <ele>49.34</ele>
        <time>2020-07-08T10:59:24Z</time>
      </trkpt>
      <trkpt lat="47.86626" lon="-3.53348">
        <ele>49.25</ele>
        <time>2020-07-08T10:59:25Z</time>
      </trkpt>
      <trkpt lat="47.86631" lon="-3.53355">
        <ele>48.94</ele>
        <time>2020-07-08T10:59:26Z</time>
      </trkpt>
      <trkpt lat="47.86635" lon="-3.53364">
        <ele>48.41</ele>
        <time>2020-07-08T10:59:27Z</time>
      </trkpt>
      <trkpt lat="47.86639" lon="-3.53373">
        <ele>47.83</ele>
        <time>2020-07-08T10:59:28Z</time>
      </trkpt>
      <trkpt lat="47.86644" lon="-3.53382">
        <ele>47.55</ele>
        <time>2020-07-08T10:59:29Z</time>
      </trkpt>
      <trkpt lat="47.86648" lon="-3.53391">
        <ele>47.32</ele>
        <time>2020-07-08T10:59:30Z</time>
      </trkpt>
      <trkpt lat="47.86652" lon="-3.534">
        <ele>46.91</ele>
        <time>2020-07-08T10:59:31Z</time>
      </trkpt>
      <trkpt lat="47.86657" lon="-3.53408">
        <ele>46.29</ele>
        <time>2020-07-08T10:59:32Z</time>
      </trkpt>
      <trkpt lat="47.86662" lon="-3.53418">
        <ele>45.48</ele>
        <time>2020-07-08T10:59:33Z</time>
      </trkpt>
      <trkpt lat="47.86667" lon="-3.53427">
        <ele>44.9</ele>
        <time>2020-07-08T10:59:34Z</time>
      </trkpt>
      <trkpt lat="47.86671" lon="-3.53436">
        <ele>44.51</ele>
        <time>2020-07-08T10:59:35Z</time>
      </trkpt>
      <trkpt lat="47.86675" lon="-3.53445">
        <ele>44.14</ele>
        <time>2020-07-08T10:59:36Z</time>
      </trkpt>
      <trkpt lat="47.8668" lon="-3.53454">
        <ele>43.81</ele>
        <time>2020-07-08T10:59:37Z</time>
      </trkpt>
      <trkpt lat="47.86684" lon="-3.53463">
        <ele>43.36</ele>
        <time>2020-07-08T10:59:38Z</time>
      </trkpt>
      <trkpt lat="47.8669" lon="-3.53471">
        <ele>42.7</ele>
        <time>2020-07-08T10:59:39Z</time>
      </trkpt>
      <trkpt lat="47.86695" lon="-3.5348">
        <ele>41.99</ele>
        <time>2020-07-08T10:59:40Z</time>
      </trkpt>
      <trkpt lat="47.86699" lon="-3.53489">
        <ele>41.08</ele>
        <time>2020-07-08T10:59:41Z</time>
      </trkpt>
      <trkpt lat="47.86704" lon="-3.53499">
        <ele>40.05</ele>
        <time>2020-07-08T10:59:42Z</time>
      </trkpt>
      <trkpt lat="47.86709" lon="-3.53508">
        <ele>39.29</ele>
        <time>2020-07-08T10:59:43Z</time>
      </trkpt>
      <trkpt lat="47.86713" lon="-3.53517">
        <ele>38.77</ele>
        <time>2020-07-08T10:59:44Z</time>
      </trkpt>
      <trkpt lat="47.86717" lon="-3.53526">
        <ele>38.44</ele>
        <time>2020-07-08T10:59:45Z</time>
      </trkpt>
      <trkpt lat="47.86722" lon="-3.53535">
        <ele>38.33</ele>
        <time>2020-07-08T10:59:46Z</time>
      </trkpt>
      <trkpt lat="47.86727" lon="-3.53545">
        <ele>38.01</ele>
        <time>2020-07-08T10:59:47Z</time>
      </trkpt>
      <trkpt lat="47.86732" lon="-3.53554">
        <ele>37.66</ele>
        <time>2020-07-08T10:59:48Z</time>
      </trkpt>
      <trkpt lat="47.86737" lon="-3.53564">
        <ele>37.12</ele>
        <time>2020-07-08T10:59:49Z</time>
      </trkpt>
      <trkpt lat="47.86742" lon="-3.53573">
        <ele>36.64</ele>
        <time>2020-07-08T10:59:50Z</time>
      </trkpt>
      <trkpt lat="47.86746" lon="-3.53583">
        <ele>36.37</ele>
        <time>2020-07-08T10:59:51Z</time>
      </trkpt>
      <trkpt lat="47.86751" lon="-3.53593">
        <ele>36.03</ele>
        <time>2020-07-08T10:59:52Z</time>
      </trkpt>
      <trkpt lat="47.86756" lon="-3.53602">
        <ele>35.55</ele>
        <time>2020-07-08T10:59:53Z</time>
      </trkpt>
      <trkpt lat="47.8676" lon="-3.53613">
        <ele>35.09</ele>
        <time>2020-07-08T10:59:54Z</time>
      </trkpt>
      <trkpt lat="47.86766" lon="-3.53622">
        <ele>34.71</ele>
        <time>2020-07-08T10:59:55Z</time>
      </trkpt>
      <trkpt lat="47.8677" lon="-3.53632">
        <ele>34.47</ele>
        <time>2020-07-08T10:59:56Z</time>
      </trkpt>
      <trkpt lat="47.86779" lon="-3.53651">
        <ele>34.34</ele>
        <time>2020-07-08T10:59:58Z</time>
      </trkpt>
      <trkpt lat="47.86784" lon="-3.53661">
        <ele>34.22</ele>
        <time>2020-07-08T10:59:59Z</time>
      </trkpt>
      <trkpt lat="47.86787" lon="-3.53672">
        <ele>34.07</ele>
        <time>2020-07-08T11:00:00Z</time>
      </trkpt>
      <trkpt lat="47.86791" lon="-3.53682">
        <ele>33.9</ele>
        <time>2020-07-08T11:00:01Z</time>
      </trkpt>
      <trkpt lat="47.86795" lon="-3.53693">
        <ele>33.8</ele>
        <time>2020-07-08T11:00:02Z</time>
      </trkpt>
      <trkpt lat="47.86797" lon="-3.53703">
        <ele>33.49</ele>
        <time>2020-07-08T11:00:03Z</time>
      </trkpt>
      <trkpt lat="47.868" lon="-3.53714">
        <ele>33.03</ele>
        <time>2020-07-08T11:00:04Z</time>
      </trkpt>
      <trkpt lat="47.86802" lon="-3.53724">
        <ele>32.55</ele>
        <time>2020-07-08T11:00:05Z</time>
      </trkpt>
      <trkpt lat="47.86805" lon="-3.53733">
        <ele>32.23</ele>
        <time>2020-07-08T11:00:06Z</time>
      </trkpt>
      <trkpt lat="47.86807" lon="-3.53742">
        <ele>32.03</ele>
        <time>2020-07-08T11:00:07Z</time>
      </trkpt>
      <trkpt lat="47.86809" lon="-3.53749">
        <ele>31.92</ele>
        <time>2020-07-08T11:00:08Z</time>
      </trkpt>
      <trkpt lat="47.8681" lon="-3.53758">
        <ele>31.82</ele>
        <time>2020-07-08T11:00:09Z</time>
      </trkpt>
      <trkpt lat="47.86811" lon="-3.53768">
        <ele>31.72</ele>
        <time>2020-07-08T11:00:10Z</time>
      </trkpt>
      <trkpt lat="47.86812" lon="-3.53776">
        <ele>31.61</ele>
        <time>2020-07-08T11:00:11Z</time>
      </trkpt>
      <trkpt lat="47.86812" lon="-3.53786">
        <ele>31.35</ele>
        <time>2020-07-08T11:00:12Z</time>
      </trkpt>
      <trkpt lat="47.86814" lon="-3.53795">
        <ele>30.97</ele>
        <time>2020-07-08T11:00:13Z</time>
      </trkpt>
      <trkpt lat="47.86815" lon="-3.53804">
        <ele>30.57</ele>
        <time>2020-07-08T11:00:14Z</time>
      </trkpt>
      <trkpt lat="47.86816" lon="-3.53814">
        <ele>30.23</ele>
        <time>2020-07-08T11:00:15Z</time>
      </trkpt>
      <trkpt lat="47.86818" lon="-3.53824">
        <ele>29.94</ele>
        <time>2020-07-08T11:00:16Z</time>
      </trkpt>
      <trkpt lat="47.86819" lon="-3.53834">
        <ele>29.63</ele>
        <time>2020-07-08T11:00:17Z</time>
      </trkpt>
      <trkpt lat="47.86821" lon="-3.53844">
        <ele>29.15</ele>
        <time>2020-07-08T11:00:18Z</time>
      </trkpt>
      <trkpt lat="47.86822" lon="-3.53855">
        <ele>28.68</ele>
        <time>2020-07-08T11:00:19Z</time>
      </trkpt>
      <trkpt lat="47.86823" lon="-3.53866">
        <ele>28.13</ele>
        <time>2020-07-08T11:00:20Z</time>
      </trkpt>
      <trkpt lat="47.86824" lon="-3.53876">
        <ele>27.53</ele>
        <time>2020-07-08T11:00:21Z</time>
      </trkpt>
      <trkpt lat="47.86825" lon="-3.53887">
        <ele>26.93</ele>
        <time>2020-07-08T11:00:22Z</time>
      </trkpt>
      <trkpt lat="47.86827" lon="-3.53899">
        <ele>26.37</ele>
        <time>2020-07-08T11:00:23Z</time>
      </trkpt>
      <trkpt lat="47.86828" lon="-3.5391">
        <ele>25.97</ele>
        <time>2020-07-08T11:00:24Z</time>
      </trkpt>
      <trkpt lat="47.86829" lon="-3.53921">
        <ele>25.66</ele>
        <time>2020-07-08T11:00:25Z</time>
      </trkpt>
      <trkpt lat="47.86831" lon="-3.53932">
        <ele>25.33</ele>
        <time>2020-07-08T11:00:26Z</time>
      </trkpt>
      <trkpt lat="47.86833" lon="-3.53943">
        <ele>25.1</ele>
        <time>2020-07-08T11:00:27Z</time>
      </trkpt>
      <trkpt lat="47.86835" lon="-3.53954">
        <ele>24.78</ele>
        <time>2020-07-08T11:00:28Z</time>
      </trkpt>
      <trkpt lat="47.86836" lon="-3.53965">
        <ele>24.45</ele>
        <time>2020-07-08T11:00:29Z</time>
      </trkpt>
      <trkpt lat="47.86838" lon="-3.53976">
        <ele>24.17</ele>
        <time>2020-07-08T11:00:30Z</time>
      </trkpt>
      <trkpt lat="47.86839" lon="-3.53987">
        <ele>23.9</ele>
        <time>2020-07-08T11:00:31Z</time>
      </trkpt>
      <trkpt lat="47.86841" lon="-3.53997">
        <ele>23.71</ele>
        <time>2020-07-08T11:00:32Z</time>
      </trkpt>
      <trkpt lat="47.86843" lon="-3.54007">
        <ele>23.69</ele>
        <time>2020-07-08T11:00:33Z</time>
      </trkpt>
      <trkpt lat="47.86845" lon="-3.54017">
        <ele>23.81</ele>
        <time>2020-07-08T11:00:34Z</time>
      </trkpt>
      <trkpt lat="47.86847" lon="-3.54028">
        <ele>23.92</ele>
        <time>2020-07-08T11:00:35Z</time>
      </trkpt>
      <trkpt lat="47.86849" lon="-3.54038">
        <ele>23.78</ele>
        <time>2020-07-08T11:00:36Z</time>
      </trkpt>
      <trkpt lat="47.86851" lon="-3.54049">
        <ele>23.56</ele>
        <time>2020-07-08T11:00:37Z</time>
      </trkpt>
      <trkpt lat="47.86853" lon="-3.5406">
        <ele>23.25</ele>
        <time>2020-07-08T11:00:38Z</time>
      </trkpt>
      <trkpt lat="47.86855" lon="-3.54071">
        <ele>22.77</ele>
        <time>2020-07-08T11:00:39Z</time>
      </trkpt>
      <trkpt lat="47.86857" lon="-3.54082">
        <ele>22.2</ele>
        <time>2020-07-08T11:00:40Z</time>
      </trkpt>
      <trkpt lat="47.86859" lon="-3.54093">
        <ele>21.57</ele>
        <time>2020-07-08T11:00:41Z</time>
      </trkpt>
      <trkpt lat="47.86862" lon="-3.54103">
        <ele>20.97</ele>
        <time>2020-07-08T11:00:42Z</time>
      </trkpt>
      <trkpt lat="47.86864" lon="-3.54114">
        <ele>20.62</ele>
        <time>2020-07-08T11:00:43Z</time>
      </trkpt>
      <trkpt lat="47.86867" lon="-3.54124">
        <ele>20.53</ele>
        <time>2020-07-08T11:00:44Z</time>
      </trkpt>
      <trkpt lat="47.86871" lon="-3.54135">
        <ele>20.55</ele>
        <time>2020-07-08T11:00:45Z</time>
      </trkpt>
      <trkpt lat="47.86874" lon="-3.54145">
        <ele>20.4</ele>
        <time>2020-07-08T11:00:46Z</time>
      </trkpt>
      <trkpt lat="47.86878" lon="-3.54156">
        <ele>19.91</ele>
        <time>2020-07-08T11:00:47Z</time>
      </trkpt>
      <trkpt lat="47.86881" lon="-3.54166">
        <ele>19.15</ele>
        <time>2020-07-08T11:00:48Z</time>
      </trkpt>
      <trkpt lat="47.86885" lon="-3.54176">
        <ele>18.24</ele>
        <time>2020-07-08T11:00:49Z</time>
      </trkpt>
      <trkpt lat="47.86891" lon="-3.54185">
        <ele>17.51</ele>
        <time>2020-07-08T11:00:50Z</time>
      </trkpt>
      <trkpt lat="47.86898" lon="-3.54194">
        <ele>16.99</ele>
        <time>2020-07-08T11:00:51Z</time>
      </trkpt>
      <trkpt lat="47.86905" lon="-3.54202">
        <ele>16.66</ele>
        <time>2020-07-08T11:00:52Z</time>
      </trkpt>
      <trkpt lat="47.86911" lon="-3.54209">
        <ele>16.54</ele>
        <time>2020-07-08T11:00:53Z</time>
      </trkpt>
      <trkpt lat="47.86918" lon="-3.54216">
        <ele>16.53</ele>
        <time>2020-07-08T11:00:54Z</time>
      </trkpt>
      <trkpt lat="47.86924" lon="-3.54222">
        <ele>16.34</ele>
        <time>2020-07-08T11:00:55Z</time>
      </trkpt>
      <trkpt lat="47.86931" lon="-3.54229">
        <ele>15.91</ele>
        <time>2020-07-08T11:00:56Z</time>
      </trkpt>
      <trkpt lat="47.86937" lon="-3.54237">
        <ele>15.39</ele>
        <time>2020-07-08T11:00:57Z</time>
      </trkpt>
      <trkpt lat="47.86944" lon="-3.54245">
        <ele>14.78</ele>
        <time>2020-07-08T11:00:58Z</time>
      </trkpt>
      <trkpt lat="47.8695" lon="-3.54254">
        <ele>14.45</ele>
        <time>2020-07-08T11:00:59Z</time>
      </trkpt>
      <trkpt lat="47.86955" lon="-3.54263">
        <ele>14.17</ele>
        <time>2020-07-08T11:01:00Z</time>
      </trkpt>
      <trkpt lat="47.8696" lon="-3.54273">
        <ele>13.76</ele>
        <time>2020-07-08T11:01:01Z</time>
      </trkpt>
      <trkpt lat="47.86964" lon="-3.54283">
        <ele>13.29</ele>
        <time>2020-07-08T11:01:02Z</time>
      </trkpt>
      <trkpt lat="47.86968" lon="-3.54295">
        <ele>12.78</ele>
        <time>2020-07-08T11:01:03Z</time>
      </trkpt>
      <trkpt lat="47.86971" lon="-3.54306">
        <ele>12.17</ele>
        <time>2020-07-08T11:01:04Z</time>
      </trkpt>
      <trkpt lat="47.86973" lon="-3.54319">
        <ele>11.5</ele>
        <time>2020-07-08T11:01:05Z</time>
      </trkpt>
      <trkpt lat="47.86976" lon="-3.54331">
        <ele>10.84</ele>
        <time>2020-07-08T11:01:06Z</time>
      </trkpt>
      <trkpt lat="47.86977" lon="-3.54343">
        <ele>10.33</ele>
        <time>2020-07-08T11:01:07Z</time>
      </trkpt>
      <trkpt lat="47.86979" lon="-3.54355">
        <ele>9.93</ele>
        <time>2020-07-08T11:01:08Z</time>
      </trkpt>
      <trkpt lat="47.86982" lon="-3.54367">
        <ele>9.52</ele>
        <time>2020-07-08T11:01:09Z</time>
      </trkpt>
      <trkpt lat="47.86987" lon="-3.54378">
        <ele>9.04</ele>
        <time>2020-07-08T11:01:10Z</time>
      </trkpt>
      <trkpt lat="47.86993" lon="-3.54387">
        <ele>8.44</ele>
        <time>2020-07-08T11:01:11Z</time>
      </trkpt>
      <trkpt lat="47.86999" lon="-3.54395">
        <ele>7.98</ele>
        <time>2020-07-08T11:01:12Z</time>
      </trkpt>
      <trkpt lat="47.87007" lon="-3.54401">
        <ele>7.69</ele>
        <time>2020-07-08T11:01:13Z</time>
      </trkpt>
      <trkpt lat="47.87014" lon="-3.54406">
        <ele>7.47</ele>
        <time>2020-07-08T11:01:14Z</time>
      </trkpt>
      <trkpt lat="47.87021" lon="-3.54411">
        <ele>7.27</ele>
        <time>2020-07-08T11:01:15Z</time>
      </trkpt>
      <trkpt lat="47.87029" lon="-3.54416">
        <ele>7.11</ele>
        <time>2020-07-08T11:01:16Z</time>
      </trkpt>
      <trkpt lat="47.87036" lon="-3.5442">
        <ele>6.95</ele>
        <time>2020-07-08T11:01:17Z</time>
      </trkpt>
      <trkpt lat="47.87044" lon="-3.54424">
        <ele>6.81</ele>
        <time>2020-07-08T11:01:18Z</time>
      </trkpt>
      <trkpt lat="47.87051" lon="-3.54427">
        <ele>6.68</ele>
        <time>2020-07-08T11:01:19Z</time>
      </trkpt>
      <trkpt lat="47.87058" lon="-3.5443">
        <ele>6.67</ele>
        <time>2020-07-08T11:01:20Z</time>
      </trkpt>
      <trkpt lat="47.87065" lon="-3.54434">
        <ele>6.77</ele>
        <time>2020-07-08T11:01:21Z</time>
      </trkpt>
      <trkpt lat="47.87072" lon="-3.54437">
        <ele>6.77</ele>
        <time>2020-07-08T11:01:22Z</time>
      </trkpt>
      <trkpt lat="47.87078" lon="-3.5444">
        <ele>6.62</ele>
        <time>2020-07-08T11:01:23Z</time>
      </trkpt>
      <trkpt lat="47.87085" lon="-3.54443">
        <ele>6.2</ele>
        <time>2020-07-08T11:01:24Z</time>
      </trkpt>
      <trkpt lat="47.87091" lon="-3.54446">
        <ele>5.43</ele>
        <time>2020-07-08T11:01:25Z</time>
      </trkpt>
      <trkpt lat="47.87097" lon="-3.54449">
        <ele>4.74</ele>
        <time>2020-07-08T11:01:26Z</time>
      </trkpt>
      <trkpt lat="47.87102" lon="-3.54452">
        <ele>4.19</ele>
        <time>2020-07-08T11:01:27Z</time>
      </trkpt>
      <trkpt lat="47.87108" lon="-3.54454">
        <ele>3.75</ele>
        <time>2020-07-08T11:01:28Z</time>
      </trkpt>
      <trkpt lat="47.87114" lon="-3.54456">
        <ele>3.63</ele>
        <time>2020-07-08T11:01:29Z</time>
      </trkpt>
      <trkpt lat="47.87119" lon="-3.54458">
        <ele>3.84</ele>
        <time>2020-07-08T11:01:30Z</time>
      </trkpt>
      <trkpt lat="47.87124" lon="-3.5446">
        <ele>4.12</ele>
        <time>2020-07-08T11:01:31Z</time>
      </trkpt>
      <trkpt lat="47.87129" lon="-3.54463">
        <ele>4.41</ele>
        <time>2020-07-08T11:01:32Z</time>
      </trkpt>
      <trkpt lat="47.87134" lon="-3.54465">
        <ele>4.69</ele>
        <time>2020-07-08T11:01:33Z</time>
      </trkpt>
      <trkpt lat="47.8714" lon="-3.54468">
        <ele>4.91</ele>
        <time>2020-07-08T11:01:34Z</time>
      </trkpt>
      <trkpt lat="47.87145" lon="-3.5447">
        <ele>4.97</ele>
        <time>2020-07-08T11:01:35Z</time>
      </trkpt>
      <trkpt lat="47.8715" lon="-3.54471">
        <ele>4.99</ele>
        <time>2020-07-08T11:01:36Z</time>
      </trkpt>
      <trkpt lat="47.87156" lon="-3.54473">
        <ele>5</ele>
        <time>2020-07-08T11:01:37Z</time>
      </trkpt>
      <trkpt lat="47.8716" lon="-3.54475">
        <ele>5</ele>
        <time>2020-07-08T11:01:38Z</time>
      </trkpt>
      <trkpt lat="47.87164" lon="-3.5448">
        <ele>5</ele>
        <time>2020-07-08T11:01:39Z</time>
      </trkpt>
      <trkpt lat="47.87166" lon="-3.54486">
        <ele>5</ele>
        <time>2020-07-08T11:01:40Z</time>
      </trkpt>
      <trkpt lat="47.87167" lon="-3.54492">
        <ele>5</ele>
        <time>2020-07-08T11:01:41Z</time>
      </trkpt>
      <trkpt lat="47.87164" lon="-3.54497">
        <ele>5</ele>
        <time>2020-07-08T11:01:42Z</time>
      </trkpt>
      <trkpt lat="47.87162" lon="-3.54503">
        <ele>4.93</ele>
        <time>2020-07-08T11:01:43Z</time>
      </trkpt>
      <trkpt lat="47.8716" lon="-3.54508">
        <ele>4.77</ele>
        <time>2020-07-08T11:01:44Z</time>
      </trkpt>
      <trkpt lat="47.87159" lon="-3.54514">
        <ele>4.57</ele>
        <time>2020-07-08T11:01:45Z</time>
      </trkpt>
      <trkpt lat="47.87157" lon="-3.54521">
        <ele>4.35</ele>
        <time>2020-07-08T11:01:46Z</time>
      </trkpt>
      <trkpt lat="47.87155" lon="-3.54528">
        <ele>4.11</ele>
        <time>2020-07-08T11:01:47Z</time>
      </trkpt>
      <trkpt lat="47.87154" lon="-3.54534">
        <ele>3.95</ele>
        <time>2020-07-08T11:01:48Z</time>
      </trkpt>
      <trkpt lat="47.87153" lon="-3.54541">
        <ele>3.83</ele>
        <time>2020-07-08T11:01:49Z</time>
      </trkpt>
      <trkpt lat="47.87151" lon="-3.54547">
        <ele>3.73</ele>
        <time>2020-07-08T11:01:50Z</time>
      </trkpt>
      <trkpt lat="47.8715" lon="-3.54553">
        <ele>3.66</ele>
        <time>2020-07-08T11:01:51Z</time>
      </trkpt>
      <trkpt lat="47.87149" lon="-3.54557">
        <ele>3.83</ele>
        <time>2020-07-08T11:01:52Z</time>
      </trkpt>
      <trkpt lat="47.87146" lon="-3.54562">
        <ele>4.35</ele>
        <time>2020-07-08T11:01:53Z</time>
      </trkpt>
      <trkpt lat="47.87143" lon="-3.54564">
        <ele>4.81</ele>
        <time>2020-07-08T11:01:54Z</time>
      </trkpt>
      <trkpt lat="47.87137" lon="-3.54563">
        <ele>4.92</ele>
        <time>2020-07-08T11:01:55Z</time>
      </trkpt>
      <trkpt lat="47.87132" lon="-3.54561">
        <ele>4.74</ele>
        <time>2020-07-08T11:01:56Z</time>
      </trkpt>
      <trkpt lat="47.87127" lon="-3.54559">
        <ele>4.52</ele>
        <time>2020-07-08T11:01:57Z</time>
      </trkpt>
      <trkpt lat="47.87121" lon="-3.54558">
        <ele>4.33</ele>
        <time>2020-07-08T11:01:58Z</time>
      </trkpt>
      <trkpt lat="47.87114" lon="-3.54557">
        <ele>4.16</ele>
        <time>2020-07-08T11:01:59Z</time>
      </trkpt>
      <trkpt lat="47.87108" lon="-3.54556">
        <ele>3.99</ele>
        <time>2020-07-08T11:02:00Z</time>
      </trkpt>
      <trkpt lat="47.87102" lon="-3.54556">
        <ele>3.77</ele>
        <time>2020-07-08T11:02:01Z</time>
      </trkpt>
      <trkpt lat="47.87096" lon="-3.54557">
        <ele>3.64</ele>
        <time>2020-07-08T11:02:02Z</time>
      </trkpt>
      <trkpt lat="47.8709" lon="-3.54558">
        <ele>3.54</ele>
        <time>2020-07-08T11:02:03Z</time>
      </trkpt>
      <trkpt lat="47.87084" lon="-3.54559">
        <ele>3.43</ele>
        <time>2020-07-08T11:02:04Z</time>
      </trkpt>
      <trkpt lat="47.87078" lon="-3.5456">
        <ele>3.3</ele>
        <time>2020-07-08T11:02:05Z</time>
      </trkpt>
      <trkpt lat="47.87072" lon="-3.5456">
        <ele>3.16</ele>
        <time>2020-07-08T11:02:06Z</time>
      </trkpt>
      <trkpt lat="47.87066" lon="-3.5456">
        <ele>2.97</ele>
        <time>2020-07-08T11:02:07Z</time>
      </trkpt>
      <trkpt lat="47.87061" lon="-3.5456">
        <ele>2.79</ele>
        <time>2020-07-08T11:02:08Z</time>
      </trkpt>
      <trkpt lat="47.87055" lon="-3.54561">
        <ele>2.67</ele>
        <time>2020-07-08T11:02:09Z</time>
      </trkpt>
      <trkpt lat="47.87049" lon="-3.54561">
        <ele>2.8</ele>
        <time>2020-07-08T11:02:10Z</time>
      </trkpt>
      <trkpt lat="47.87044" lon="-3.54561">
        <ele>2.99</ele>
        <time>2020-07-08T11:02:11Z</time>
      </trkpt>
      <trkpt lat="47.87039" lon="-3.54561">
        <ele>3.19</ele>
        <time>2020-07-08T11:02:12Z</time>
      </trkpt>
      <trkpt lat="47.87033" lon="-3.5456">
        <ele>3.4</ele>
        <time>2020-07-08T11:02:13Z</time>
      </trkpt>
      <trkpt lat="47.87027" lon="-3.5456">
        <ele>3.59</ele>
        <time>2020-07-08T11:02:14Z</time>
      </trkpt>
      <trkpt lat="47.87022" lon="-3.5456">
        <ele>3.61</ele>
        <time>2020-07-08T11:02:15Z</time>
      </trkpt>
      <trkpt lat="47.87016" lon="-3.54558">
        <ele>3.48</ele>
        <time>2020-07-08T11:02:16Z</time>
      </trkpt>
      <trkpt lat="47.8701" lon="-3.54557">
        <ele>3.37</ele>
        <time>2020-07-08T11:02:17Z</time>
      </trkpt>
      <trkpt lat="47.87004" lon="-3.54557">
        <ele>3.29</ele>
        <time>2020-07-08T11:02:18Z</time>
      </trkpt>
      <trkpt lat="47.86999" lon="-3.54556">
        <ele>3.27</ele>
        <time>2020-07-08T11:02:19Z</time>
      </trkpt>
      <trkpt lat="47.86993" lon="-3.54553">
        <ele>3.77</ele>
        <time>2020-07-08T11:02:20Z</time>
      </trkpt>
      <trkpt lat="47.86989" lon="-3.5455">
        <ele>4.24</ele>
        <time>2020-07-08T11:02:21Z</time>
      </trkpt>
      <trkpt lat="47.86983" lon="-3.54546">
        <ele>4.59</ele>
        <time>2020-07-08T11:02:22Z</time>
      </trkpt>
      <trkpt lat="47.86979" lon="-3.54543">
        <ele>4.74</ele>
        <time>2020-07-08T11:02:23Z</time>
      </trkpt>
      <trkpt lat="47.86974" lon="-3.54539">
        <ele>4.74</ele>
        <time>2020-07-08T11:02:24Z</time>
      </trkpt>
      <trkpt lat="47.86969" lon="-3.54536">
        <ele>4.95</ele>
        <time>2020-07-08T11:02:25Z</time>
      </trkpt>
      <trkpt lat="47.86964" lon="-3.54532">
        <ele>5.15</ele>
        <time>2020-07-08T11:02:26Z</time>
      </trkpt>
      <trkpt lat="47.86959" lon="-3.54529">
        <ele>5.18</ele>
        <time>2020-07-08T11:02:27Z</time>
      </trkpt>
      <trkpt lat="47.86954" lon="-3.54526">
        <ele>5.25</ele>
        <time>2020-07-08T11:02:28Z</time>
      </trkpt>
      <trkpt lat="47.86949" lon="-3.54522">
        <ele>5.37</ele>
        <time>2020-07-08T11:02:29Z</time>
      </trkpt>
      <trkpt lat="47.86944" lon="-3.54519">
        <ele>5.42</ele>
        <time>2020-07-08T11:02:30Z</time>
      </trkpt>
      <trkpt lat="47.86939" lon="-3.54516">
        <ele>5.85</ele>
        <time>2020-07-08T11:02:31Z</time>
      </trkpt>
      <trkpt lat="47.86934" lon="-3.54512">
        <ele>6.14</ele>
        <time>2020-07-08T11:02:32Z</time>
      </trkpt>
      <trkpt lat="47.86929" lon="-3.54509">
        <ele>6.09</ele>
        <time>2020-07-08T11:02:33Z</time>
      </trkpt>
      <trkpt lat="47.86924" lon="-3.54506">
        <ele>5.7</ele>
        <time>2020-07-08T11:02:34Z</time>
      </trkpt>
      <trkpt lat="47.86918" lon="-3.54503">
        <ele>4.88</ele>
        <time>2020-07-08T11:02:35Z</time>
      </trkpt>
      <trkpt lat="47.86913" lon="-3.545">
        <ele>3.84</ele>
        <time>2020-07-08T11:02:36Z</time>
      </trkpt>
      <trkpt lat="47.86908" lon="-3.54497">
        <ele>3.79</ele>
        <time>2020-07-08T11:02:37Z</time>
      </trkpt>
      <trkpt lat="47.86903" lon="-3.54494">
        <ele>3.98</ele>
        <time>2020-07-08T11:02:38Z</time>
      </trkpt>
      <trkpt lat="47.86897" lon="-3.54491">
        <ele>4.19</ele>
        <time>2020-07-08T11:02:39Z</time>
      </trkpt>
      <trkpt lat="47.86892" lon="-3.54488">
        <ele>4.35</ele>
        <time>2020-07-08T11:02:40Z</time>
      </trkpt>
      <trkpt lat="47.86887" lon="-3.54484">
        <ele>4.56</ele>
        <time>2020-07-08T11:02:41Z</time>
      </trkpt>
      <trkpt lat="47.86882" lon="-3.54481">
        <ele>4.75</ele>
        <time>2020-07-08T11:02:42Z</time>
      </trkpt>
      <trkpt lat="47.86877" lon="-3.54477">
        <ele>4.75</ele>
        <time>2020-07-08T11:02:43Z</time>
      </trkpt>
      <trkpt lat="47.86872" lon="-3.54473">
        <ele>4.48</ele>
        <time>2020-07-08T11:02:44Z</time>
      </trkpt>
      <trkpt lat="47.86867" lon="-3.54468">
        <ele>4.27</ele>
        <time>2020-07-08T11:02:45Z</time>
      </trkpt>
      <trkpt lat="47.86862" lon="-3.54464">
        <ele>4.1</ele>
        <time>2020-07-08T11:02:46Z</time>
      </trkpt>
      <trkpt lat="47.86858" lon="-3.5446">
        <ele>4.4</ele>
        <time>2020-07-08T11:02:47Z</time>
      </trkpt>
      <trkpt lat="47.86855" lon="-3.54455">
        <ele>4.68</ele>
        <time>2020-07-08T11:02:48Z</time>
      </trkpt>
      <trkpt lat="47.86851" lon="-3.54451">
        <ele>4.92</ele>
        <time>2020-07-08T11:02:49Z</time>
      </trkpt>
      <trkpt lat="47.86847" lon="-3.54446">
        <ele>4.84</ele>
        <time>2020-07-08T11:02:50Z</time>
      </trkpt>
      <trkpt lat="47.86844" lon="-3.54441">
        <ele>4.82</ele>
        <time>2020-07-08T11:02:51Z</time>
      </trkpt>
      <trkpt lat="47.86841" lon="-3.54437">
        <ele>4.89</ele>
        <time>2020-07-08T11:02:52Z</time>
      </trkpt>
      <trkpt lat="47.86838" lon="-3.54432">
        <ele>4.96</ele>
        <time>2020-07-08T11:02:53Z</time>
      </trkpt>
      <trkpt lat="47.86834" lon="-3.54427">
        <ele>5</ele>
        <time>2020-07-08T11:02:54Z</time>
      </trkpt>
      <trkpt lat="47.86831" lon="-3.54423">
        <ele>5.37</ele>
        <time>2020-07-08T11:02:55Z</time>
      </trkpt>
      <trkpt lat="47.86828" lon="-3.5442">
        <ele>5.77</ele>
        <time>2020-07-08T11:02:56Z</time>
      </trkpt>
      <trkpt lat="47.86827" lon="-3.54418">
        <ele>5.78</ele>
        <time>2020-07-08T11:02:57Z</time>
      </trkpt>
      <trkpt lat="47.86825" lon="-3.54415">
        <ele>5.83</ele>
        <time>2020-07-08T11:02:58Z</time>
      </trkpt>
      <trkpt lat="47.86825" lon="-3.54411">
        <ele>5.63</ele>
        <time>2020-07-08T11:02:59Z</time>
      </trkpt>
      <trkpt lat="47.86823" lon="-3.54406">
        <ele>5.4</ele>
        <time>2020-07-08T11:03:00Z</time>
      </trkpt>
      <trkpt lat="47.86821" lon="-3.54402">
        <ele>5.21</ele>
        <time>2020-07-08T11:03:01Z</time>
      </trkpt>
      <trkpt lat="47.86817" lon="-3.54397">
        <ele>5.09</ele>
        <time>2020-07-08T11:03:02Z</time>
      </trkpt>
      <trkpt lat="47.86813" lon="-3.54393">
        <ele>4.94</ele>
        <time>2020-07-08T11:03:03Z</time>
      </trkpt>
      <trkpt lat="47.86809" lon="-3.54389">
        <ele>4.67</ele>
        <time>2020-07-08T11:03:04Z</time>
      </trkpt>
      <trkpt lat="47.86805" lon="-3.54384">
        <ele>4.54</ele>
        <time>2020-07-08T11:03:05Z</time>
      </trkpt>
      <trkpt lat="47.86801" lon="-3.54379">
        <ele>4.59</ele>
        <time>2020-07-08T11:03:06Z</time>
      </trkpt>
      <trkpt lat="47.86797" lon="-3.54374">
        <ele>4.63</ele>
        <time>2020-07-08T11:03:07Z</time>
      </trkpt>
      <trkpt lat="47.86792" lon="-3.54371">
        <ele>4.67</ele>
        <time>2020-07-08T11:03:08Z</time>
      </trkpt>
      <trkpt lat="47.86787" lon="-3.54368">
        <ele>4.65</ele>
        <time>2020-07-08T11:03:09Z</time>
      </trkpt>
      <trkpt lat="47.86782" lon="-3.54365">
        <ele>4.54</ele>
        <time>2020-07-08T11:03:10Z</time>
      </trkpt>
      <trkpt lat="47.86777" lon="-3.54362">
        <ele>4.34</ele>
        <time>2020-07-08T11:03:11Z</time>
      </trkpt>
      <trkpt lat="47.86772" lon="-3.54359">
        <ele>4.39</ele>
        <time>2020-07-08T11:03:12Z</time>
      </trkpt>
      <trkpt lat="47.86767" lon="-3.54357">
        <ele>4.65</ele>
        <time>2020-07-08T11:03:13Z</time>
      </trkpt>
      <trkpt lat="47.86762" lon="-3.54355">
        <ele>4.94</ele>
        <time>2020-07-08T11:03:14Z</time>
      </trkpt>
      <trkpt lat="47.86756" lon="-3.54353">
        <ele>5.18</ele>
        <time>2020-07-08T11:03:15Z</time>
      </trkpt>
      <trkpt lat="47.86751" lon="-3.54351">
        <ele>5.37</ele>
        <time>2020-07-08T11:03:16Z</time>
      </trkpt>
      <trkpt lat="47.86746" lon="-3.54349">
        <ele>5.38</ele>
        <time>2020-07-08T11:03:17Z</time>
      </trkpt>
      <trkpt lat="47.86741" lon="-3.54348">
        <ele>5.28</ele>
        <time>2020-07-08T11:03:18Z</time>
      </trkpt>
      <trkpt lat="47.86736" lon="-3.54346">
        <ele>5.18</ele>
        <time>2020-07-08T11:03:19Z</time>
      </trkpt>
      <trkpt lat="47.86731" lon="-3.54345">
        <ele>5.09</ele>
        <time>2020-07-08T11:03:20Z</time>
      </trkpt>
      <trkpt lat="47.86726" lon="-3.54343">
        <ele>4.98</ele>
        <time>2020-07-08T11:03:21Z</time>
      </trkpt>
      <trkpt lat="47.8672" lon="-3.54342">
        <ele>4.95</ele>
        <time>2020-07-08T11:03:22Z</time>
      </trkpt>
      <trkpt lat="47.86715" lon="-3.54341">
        <ele>4.79</ele>
        <time>2020-07-08T11:03:23Z</time>
      </trkpt>
      <trkpt lat="47.86709" lon="-3.54339">
        <ele>4.59</ele>
        <time>2020-07-08T11:03:24Z</time>
      </trkpt>
      <trkpt lat="47.86703" lon="-3.54337">
        <ele>4.37</ele>
        <time>2020-07-08T11:03:25Z</time>
      </trkpt>
      <trkpt lat="47.86698" lon="-3.54335">
        <ele>4.18</ele>
        <time>2020-07-08T11:03:26Z</time>
      </trkpt>
      <trkpt lat="47.86692" lon="-3.54332">
        <ele>4.11</ele>
        <time>2020-07-08T11:03:27Z</time>
      </trkpt>
      <trkpt lat="47.86687" lon="-3.5433">
        <ele>4.21</ele>
        <time>2020-07-08T11:03:28Z</time>
      </trkpt>
      <trkpt lat="47.86682" lon="-3.54328">
        <ele>4.32</ele>
        <time>2020-07-08T11:03:29Z</time>
      </trkpt>
      <trkpt lat="47.86677" lon="-3.54326">
        <ele>4.43</ele>
        <time>2020-07-08T11:03:30Z</time>
      </trkpt>
      <trkpt lat="47.86672" lon="-3.54325">
        <ele>4.52</ele>
        <time>2020-07-08T11:03:31Z</time>
      </trkpt>
      <trkpt lat="47.86667" lon="-3.54324">
        <ele>4.61</ele>
        <time>2020-07-08T11:03:32Z</time>
      </trkpt>
      <trkpt lat="47.86662" lon="-3.54322">
        <ele>4.64</ele>
        <time>2020-07-08T11:03:33Z</time>
      </trkpt>
      <trkpt lat="47.86658" lon="-3.54321">
        <ele>4.68</ele>
        <time>2020-07-08T11:03:34Z</time>
      </trkpt>
      <trkpt lat="47.86655" lon="-3.5432">
        <ele>4.72</ele>
        <time>2020-07-08T11:03:35Z</time>
      </trkpt>
      <trkpt lat="47.86651" lon="-3.54319">
        <ele>4.76</ele>
        <time>2020-07-08T11:03:36Z</time>
      </trkpt>
      <trkpt lat="47.86648" lon="-3.54319">
        <ele>4.81</ele>
        <time>2020-07-08T11:03:37Z</time>
      </trkpt>
      <trkpt lat="47.86644" lon="-3.54318">
        <ele>4.88</ele>
        <time>2020-07-08T11:03:38Z</time>
      </trkpt>
      <trkpt lat="47.8664" lon="-3.54317">
        <ele>4.95</ele>
        <time>2020-07-08T11:03:39Z</time>
      </trkpt>
      <trkpt lat="47.86636" lon="-3.54316">
        <ele>5.12</ele>
        <time>2020-07-08T11:03:40Z</time>
      </trkpt>
      <trkpt lat="47.86633" lon="-3.54314">
        <ele>5.35</ele>
        <time>2020-07-08T11:03:41Z</time>
      </trkpt>
      <trkpt lat="47.86629" lon="-3.54313">
        <ele>5.6</ele>
        <time>2020-07-08T11:03:42Z</time>
      </trkpt>
      <trkpt lat="47.86627" lon="-3.54311">
        <ele>5.79</ele>
        <time>2020-07-08T11:03:43Z</time>
      </trkpt>
      <trkpt lat="47.86626" lon="-3.54307">
        <ele>5.86</ele>
        <time>2020-07-08T11:03:44Z</time>
      </trkpt>
      <trkpt lat="47.86625" lon="-3.54303">
        <ele>5.86</ele>
        <time>2020-07-08T11:03:45Z</time>
      </trkpt>
      <trkpt lat="47.86624" lon="-3.543">
        <ele>5.79</ele>
        <time>2020-07-08T11:03:46Z</time>
      </trkpt>
      <trkpt lat="47.86622" lon="-3.54296">
        <ele>5.71</ele>
        <time>2020-07-08T11:03:47Z</time>
      </trkpt>
      <trkpt lat="47.86619" lon="-3.54292">
        <ele>5.6</ele>
        <time>2020-07-08T11:03:48Z</time>
      </trkpt>
      <trkpt lat="47.86616" lon="-3.54288">
        <ele>5.5</ele>
        <time>2020-07-08T11:03:49Z</time>
      </trkpt>
      <trkpt lat="47.86614" lon="-3.54283">
        <ele>5.31</ele>
        <time>2020-07-08T11:03:50Z</time>
      </trkpt>
      <trkpt lat="47.86612" lon="-3.54279">
        <ele>5.16</ele>
        <time>2020-07-08T11:03:51Z</time>
      </trkpt>
      <trkpt lat="47.86609" lon="-3.54277">
        <ele>5.06</ele>
        <time>2020-07-08T11:03:52Z</time>
      </trkpt>
      <trkpt lat="47.86608" lon="-3.54274">
        <ele>5.01</ele>
        <time>2020-07-08T11:03:53Z</time>
      </trkpt>
      <trkpt lat="47.86605" lon="-3.54271">
        <ele>4.96</ele>
        <time>2020-07-08T11:03:54Z</time>
      </trkpt>
      <trkpt lat="47.86603" lon="-3.5427">
        <ele>4.94</ele>
        <time>2020-07-08T11:03:55Z</time>
      </trkpt>
      <trkpt lat="47.866" lon="-3.5427">
        <ele>4.99</ele>
        <time>2020-07-08T11:03:56Z</time>
      </trkpt>
      <trkpt lat="47.86599" lon="-3.54271">
        <ele>5.07</ele>
        <time>2020-07-08T11:03:57Z</time>
      </trkpt>
      <trkpt lat="47.86596" lon="-3.54271">
        <ele>5.17</ele>
        <time>2020-07-08T11:03:58Z</time>
      </trkpt>
      <trkpt lat="47.86592" lon="-3.54271">
        <ele>5.24</ele>
        <time>2020-07-08T11:03:59Z</time>
      </trkpt>
      <trkpt lat="47.86589" lon="-3.5427">
        <ele>5.3</ele>
        <time>2020-07-08T11:04:00Z</time>
      </trkpt>
      <trkpt lat="47.86585" lon="-3.54269">
        <ele>5.32</ele>
        <time>2020-07-08T11:04:01Z</time>
      </trkpt>
      <trkpt lat="47.8658" lon="-3.54267">
        <ele>5.5</ele>
        <time>2020-07-08T11:04:02Z</time>
      </trkpt>
      <trkpt lat="47.86576" lon="-3.54265">
        <ele>5.76</ele>
        <time>2020-07-08T11:04:03Z</time>
      </trkpt>
      <trkpt lat="47.86572" lon="-3.54262">
        <ele>6.01</ele>
        <time>2020-07-08T11:04:04Z</time>
      </trkpt>
      <trkpt lat="47.86567" lon="-3.5426">
        <ele>6.2</ele>
        <time>2020-07-08T11:04:05Z</time>
      </trkpt>
      <trkpt lat="47.86563" lon="-3.54257">
        <ele>6.28</ele>
        <time>2020-07-08T11:04:06Z</time>
      </trkpt>
      <trkpt lat="47.86558" lon="-3.54254">
        <ele>6.29</ele>
        <time>2020-07-08T11:04:07Z</time>
      </trkpt>
      <trkpt lat="47.86554" lon="-3.5425">
        <ele>6.2</ele>
        <time>2020-07-08T11:04:08Z</time>
      </trkpt>
      <trkpt lat="47.86549" lon="-3.54247">
        <ele>6.22</ele>
        <time>2020-07-08T11:04:09Z</time>
      </trkpt>
      <trkpt lat="47.86545" lon="-3.54244">
        <ele>6.27</ele>
        <time>2020-07-08T11:04:10Z</time>
      </trkpt>
      <trkpt lat="47.86541" lon="-3.54241">
        <ele>6.27</ele>
        <time>2020-07-08T11:04:11Z</time>
      </trkpt>
      <trkpt lat="47.86536" lon="-3.54238">
        <ele>6.26</ele>
        <time>2020-07-08T11:04:12Z</time>
      </trkpt>
      <trkpt lat="47.86532" lon="-3.54236">
        <ele>6.25</ele>
        <time>2020-07-08T11:04:13Z</time>
      </trkpt>
      <trkpt lat="47.86528" lon="-3.54233">
        <ele>6.2</ele>
        <time>2020-07-08T11:04:14Z</time>
      </trkpt>
      <trkpt lat="47.86524" lon="-3.54231">
        <ele>6.34</ele>
        <time>2020-07-08T11:04:15Z</time>
      </trkpt>
      <trkpt lat="47.86519" lon="-3.54228">
        <ele>6.55</ele>
        <time>2020-07-08T11:04:16Z</time>
      </trkpt>
      <trkpt lat="47.86514" lon="-3.54225">
        <ele>6.71</ele>
        <time>2020-07-08T11:04:17Z</time>
      </trkpt>
      <trkpt lat="47.86509" lon="-3.54221">
        <ele>6.86</ele>
        <time>2020-07-08T11:04:18Z</time>
      </trkpt>
      <trkpt lat="47.86504" lon="-3.54218">
        <ele>6.97</ele>
        <time>2020-07-08T11:04:19Z</time>
      </trkpt>
      <trkpt lat="47.86498" lon="-3.54214">
        <ele>7.05</ele>
        <time>2020-07-08T11:04:20Z</time>
      </trkpt>
      <trkpt lat="47.86493" lon="-3.54209">
        <ele>7.12</ele>
        <time>2020-07-08T11:04:21Z</time>
      </trkpt>
      <trkpt lat="47.86488" lon="-3.54205">
        <ele>7</ele>
        <time>2020-07-08T11:04:22Z</time>
      </trkpt>
      <trkpt lat="47.86483" lon="-3.54201">
        <ele>6.67</ele>
        <time>2020-07-08T11:04:23Z</time>
      </trkpt>
      <trkpt lat="47.86478" lon="-3.54196">
        <ele>6.22</ele>
        <time>2020-07-08T11:04:24Z</time>
      </trkpt>
      <trkpt lat="47.86474" lon="-3.54192">
        <ele>5.83</ele>
        <time>2020-07-08T11:04:25Z</time>
      </trkpt>
      <trkpt lat="47.86469" lon="-3.54188">
        <ele>5.63</ele>
        <time>2020-07-08T11:04:26Z</time>
      </trkpt>
      <trkpt lat="47.86464" lon="-3.54185">
        <ele>5.51</ele>
        <time>2020-07-08T11:04:27Z</time>
      </trkpt>
      <trkpt lat="47.86459" lon="-3.54182">
        <ele>5.42</ele>
        <time>2020-07-08T11:04:28Z</time>
      </trkpt>
      <trkpt lat="47.86454" lon="-3.5418">
        <ele>5.38</ele>
        <time>2020-07-08T11:04:29Z</time>
      </trkpt>
      <trkpt lat="47.86449" lon="-3.54178">
        <ele>5.43</ele>
        <time>2020-07-08T11:04:30Z</time>
      </trkpt>
      <trkpt lat="47.86444" lon="-3.54177">
        <ele>5.44</ele>
        <time>2020-07-08T11:04:31Z</time>
      </trkpt>
      <trkpt lat="47.86438" lon="-3.54175">
        <ele>5.29</ele>
        <time>2020-07-08T11:04:32Z</time>
      </trkpt>
      <trkpt lat="47.86433" lon="-3.54174">
        <ele>5.11</ele>
        <time>2020-07-08T11:04:33Z</time>
      </trkpt>
      <trkpt lat="47.86427" lon="-3.54173">
        <ele>5.02</ele>
        <time>2020-07-08T11:04:34Z</time>
      </trkpt>
      <trkpt lat="47.86422" lon="-3.54173">
        <ele>4.93</ele>
        <time>2020-07-08T11:04:35Z</time>
      </trkpt>
      <trkpt lat="47.86416" lon="-3.54172">
        <ele>4.77</ele>
        <time>2020-07-08T11:04:36Z</time>
      </trkpt>
      <trkpt lat="47.86411" lon="-3.54171">
        <ele>4.55</ele>
        <time>2020-07-08T11:04:37Z</time>
      </trkpt>
      <trkpt lat="47.86405" lon="-3.54171">
        <ele>4.37</ele>
        <time>2020-07-08T11:04:38Z</time>
      </trkpt>
      <trkpt lat="47.86399" lon="-3.54171">
        <ele>4.18</ele>
        <time>2020-07-08T11:04:39Z</time>
      </trkpt>
      <trkpt lat="47.86393" lon="-3.54172">
        <ele>4.08</ele>
        <time>2020-07-08T11:04:40Z</time>
      </trkpt>
      <trkpt lat="47.86388" lon="-3.54173">
        <ele>4.14</ele>
        <time>2020-07-08T11:04:41Z</time>
      </trkpt>
      <trkpt lat="47.86382" lon="-3.54176">
        <ele>4.26</ele>
        <time>2020-07-08T11:04:42Z</time>
      </trkpt>
      <trkpt lat="47.86377" lon="-3.54178">
        <ele>4.33</ele>
        <time>2020-07-08T11:04:43Z</time>
      </trkpt>
      <trkpt lat="47.86372" lon="-3.54181">
        <ele>4.34</ele>
        <time>2020-07-08T11:04:44Z</time>
      </trkpt>
      <trkpt lat="47.86367" lon="-3.54185">
        <ele>4.25</ele>
        <time>2020-07-08T11:04:45Z</time>
      </trkpt>
      <trkpt lat="47.86364" lon="-3.54187">
        <ele>4.09</ele>
        <time>2020-07-08T11:04:46Z</time>
      </trkpt>
      <trkpt lat="47.86361" lon="-3.54189">
        <ele>3.89</ele>
        <time>2020-07-08T11:04:47Z</time>
      </trkpt>
      <trkpt lat="47.86359" lon="-3.54191">
        <ele>3.86</ele>
        <time>2020-07-08T11:04:48Z</time>
      </trkpt>
      <trkpt lat="47.86358" lon="-3.5419">
        <ele>3.83</ele>
        <time>2020-07-08T11:04:49Z</time>
      </trkpt>
      <trkpt lat="47.86359" lon="-3.5419">
        <ele>3.82</ele>
        <time>2020-07-08T11:04:50Z</time>
      </trkpt>
      <trkpt lat="47.86359" lon="-3.5419">
        <ele>3.81</ele>
        <time>2020-07-08T11:04:51Z</time>
      </trkpt>
      <trkpt lat="47.86359" lon="-3.5419">
        <ele>3.8</ele>
        <time>2020-07-08T11:04:52Z</time>
      </trkpt>
      <trkpt lat="47.86359" lon="-3.5419">
        <ele>3.8</ele>
        <time>2020-07-08T11:04:53Z</time>
      </trkpt>
      <trkpt lat="47.86359" lon="-3.5419">
        <ele>3.8</ele>
        <time>2020-07-08T11:04:54Z</time>
      </trkpt>
      <trkpt lat="47.86359" lon="-3.5419">
        <ele>3.8</ele>
        <time>2020-07-08T11:04:55Z</time>
      </trkpt>
      <trkpt lat="47.86359" lon="-3.5419">
        <ele>3.8</ele>
        <time>2020-07-08T11:04:56Z</time>
      </trkpt>
      <trkpt lat="47.86359" lon="-3.5419">
        <ele>3.8</ele>
        <time>2020-07-08T11:04:57Z</time>
      </trkpt>
      <trkpt lat="47.86359" lon="-3.5419">
        <ele>3.8</ele>
        <time>2020-07-08T11:04:58Z</time>
      </trkpt>
      <trkpt lat="47.86359" lon="-3.5419">
        <ele>3.8</ele>
        <time>2020-07-08T11:04:59Z</time>
      </trkpt>
      <trkpt lat="47.86359" lon="-3.5419">
        <ele>3.8</ele>
        <time>2020-07-08T11:05:00Z</time>
      </trkpt>
      <trkpt lat="47.86359" lon="-3.5419">
        <ele>3.8</ele>
        <time>2020-07-08T11:05:01Z</time>
      </trkpt>
      <trkpt lat="47.86359" lon="-3.5419">
        <ele>3.8</ele>
        <time>2020-07-08T11:05:02Z</time>
      </trkpt>
      <trkpt lat="47.86359" lon="-3.5419">
        <ele>3.8</ele>
        <time>2020-07-08T11:05:03Z</time>
      </trkpt>
      <trkpt lat="47.86359" lon="-3.5419">
        <ele>3.8</ele>
        <time>2020-07-08T11:05:04Z</time>
      </trkpt>
      <trkpt lat="47.86359" lon="-3.5419">
        <ele>3.8</ele>
        <time>2020-07-08T11:05:05Z</time>
      </trkpt>
      <trkpt lat="47.86359" lon="-3.5419">
        <ele>3.8</ele>
        <time>2020-07-08T11:05:06Z</time>
      </trkpt>
      <trkpt lat="47.86359" lon="-3.5419">
        <ele>3.8</ele>
        <time>2020-07-08T11:05:07Z</time>
      </trkpt>
      <trkpt lat="47.86359" lon="-3.5419">
        <ele>3.8</ele>
        <time>2020-07-08T11:05:08Z</time>
      </trkpt>
      <trkpt lat="47.86359" lon="-3.5419">
        <ele>3.8</ele>
        <time>2020-07-08T11:05:09Z</time>
      </trkpt>
      <trkpt lat="47.86359" lon="-3.5419">
        <ele>3.8</ele>
        <time>2020-07-08T11:05:10Z</time>
      </trkpt>
      <trkpt lat="47.86359" lon="-3.5419">
        <ele>3.8</ele>
        <time>2020-07-08T11:05:11Z</time>
      </trkpt>
      <trkpt lat="47.86359" lon="-3.5419">
        <ele>3.8</ele>
        <time>2020-07-08T11:05:12Z</time>
      </trkpt>
      <trkpt lat="47.86359" lon="-3.5419">
        <ele>3.8</ele>
        <time>2020-07-08T11:05:13Z</time>
      </trkpt>
      <trkpt lat="47.86359" lon="-3.5419">
        <ele>3.8</ele>
        <time>2020-07-08T11:05:14Z</time>
      </trkpt>
      <trkpt lat="47.86359" lon="-3.5419">
        <ele>3.8</ele>
        <time>2020-07-08T11:05:15Z</time>
      </trkpt>
      <trkpt lat="47.86359" lon="-3.5419">
        <ele>3.8</ele>
        <time>2020-07-08T11:05:16Z</time>
      </trkpt>
      <trkpt lat="47.86359" lon="-3.5419">
        <ele>3.8</ele>
        <time>2020-07-08T11:05:17Z</time>
      </trkpt>
      <trkpt lat="47.86359" lon="-3.5419">
        <ele>3.8</ele>
        <time>2020-07-08T11:05:18Z</time>
      </trkpt>
      <trkpt lat="47.86359" lon="-3.5419">
        <ele>3.8</ele>
        <time>2020-07-08T11:05:19Z</time>
      </trkpt>
      <trkpt lat="47.86359" lon="-3.5419">
        <ele>3.8</ele>
        <time>2020-07-08T11:05:20Z</time>
      </trkpt>
      <trkpt lat="47.86359" lon="-3.5419">
        <ele>3.8</ele>
        <time>2020-07-08T11:05:21Z</time>
      </trkpt>
      <trkpt lat="47.86359" lon="-3.5419">
        <ele>3.8</ele>
        <time>2020-07-08T11:05:22Z</time>
      </trkpt>
      <trkpt lat="47.86359" lon="-3.5419">
        <ele>3.8</ele>
        <time>2020-07-08T11:05:23Z</time>
      </trkpt>
      <trkpt lat="47.86359" lon="-3.5419">
        <ele>3.8</ele>
        <time>2020-07-08T11:05:24Z</time>
      </trkpt>
      <trkpt lat="47.86359" lon="-3.5419">
        <ele>3.8</ele>
        <time>2020-07-08T11:05:25Z</time>
      </trkpt>
      <trkpt lat="47.86359" lon="-3.5419">
        <ele>3.8</ele>
        <time>2020-07-08T11:05:26Z</time>
      </trkpt>
      <trkpt lat="47.86359" lon="-3.5419">
        <ele>3.8</ele>
        <time>2020-07-08T11:05:27Z</time>
      </trkpt>
      <trkpt lat="47.86359" lon="-3.5419">
        <ele>3.8</ele>
        <time>2020-07-08T11:05:28Z</time>
      </trkpt>
      <trkpt lat="47.86359" lon="-3.5419">
        <ele>3.8</ele>
        <time>2020-07-08T11:05:29Z</time>
      </trkpt>
      <trkpt lat="47.86359" lon="-3.5419">
        <ele>3.8</ele>
        <time>2020-07-08T11:05:30Z</time>
      </trkpt>
      <trkpt lat="47.86359" lon="-3.5419">
        <ele>3.8</ele>
        <time>2020-07-08T11:05:31Z</time>
      </trkpt>
      <trkpt lat="47.86359" lon="-3.5419">
        <ele>3.8</ele>
        <time>2020-07-08T11:05:32Z</time>
      </trkpt>
      <trkpt lat="47.86359" lon="-3.5419">
        <ele>3.8</ele>
        <time>2020-07-08T11:05:33Z</time>
      </trkpt>
      <trkpt lat="47.86359" lon="-3.5419">
        <ele>3.8</ele>
        <time>2020-07-08T11:05:34Z</time>
      </trkpt>
      <trkpt lat="47.86359" lon="-3.5419">
        <ele>3.8</ele>
        <time>2020-07-08T11:05:35Z</time>
      </trkpt>
      <trkpt lat="47.86359" lon="-3.5419">
        <ele>3.8</ele>
        <time>2020-07-08T11:05:36Z</time>
      </trkpt>
      <trkpt lat="47.86359" lon="-3.5419">
        <ele>3.8</ele>
        <time>2020-07-08T11:05:37Z</time>
      </trkpt>
      <trkpt lat="47.86359" lon="-3.5419">
        <ele>3.8</ele>
        <time>2020-07-08T11:05:38Z</time>
      </trkpt>
      <trkpt lat="47.86359" lon="-3.5419">
        <ele>3.8</ele>
        <time>2020-07-08T11:05:39Z</time>
      </trkpt>
      <trkpt lat="47.86359" lon="-3.5419">
        <ele>3.8</ele>
        <time>2020-07-08T11:05:40Z</time>
      </trkpt>
      <trkpt lat="47.86359" lon="-3.5419">
        <ele>3.8</ele>
        <time>2020-07-08T11:05:41Z</time>
      </trkpt>
      <trkpt lat="47.86359" lon="-3.5419">
        <ele>3.8</ele>
        <time>2020-07-08T11:05:42Z</time>
      </trkpt>
      <trkpt lat="47.86359" lon="-3.5419">
        <ele>3.8</ele>
        <time>2020-07-08T11:05:43Z</time>
      </trkpt>
      <trkpt lat="47.86359" lon="-3.5419">
        <ele>3.8</ele>
        <time>2020-07-08T11:05:44Z</time>
      </trkpt>
      <trkpt lat="47.86359" lon="-3.5419">
        <ele>3.8</ele>
        <time>2020-07-08T11:05:45Z</time>
      </trkpt>
      <trkpt lat="47.86359" lon="-3.5419">
        <ele>3.8</ele>
        <time>2020-07-08T11:05:46Z</time>
      </trkpt>
      <trkpt lat="47.86359" lon="-3.5419">
        <ele>3.8</ele>
        <time>2020-07-08T11:05:47Z</time>
      </trkpt>
      <trkpt lat="47.86359" lon="-3.5419">
        <ele>3.8</ele>
        <time>2020-07-08T11:05:48Z</time>
      </trkpt>
      <trkpt lat="47.86359" lon="-3.5419">
        <ele>3.8</ele>
        <time>2020-07-08T11:05:49Z</time>
      </trkpt>
      <trkpt lat="47.86359" lon="-3.5419">
        <ele>3.8</ele>
        <time>2020-07-08T11:05:50Z</time>
      </trkpt>
      <trkpt lat="47.86359" lon="-3.5419">
        <ele>3.8</ele>
        <time>2020-07-08T11:05:51Z</time>
      </trkpt>
      <trkpt lat="47.86359" lon="-3.5419">
        <ele>3.8</ele>
        <time>2020-07-08T11:05:52Z</time>
      </trkpt>
      <trkpt lat="47.86359" lon="-3.5419">
        <ele>3.8</ele>
        <time>2020-07-08T11:05:53Z</time>
      </trkpt>
      <trkpt lat="47.86359" lon="-3.5419">
        <ele>3.8</ele>
        <time>2020-07-08T11:05:54Z</time>
      </trkpt>
      <trkpt lat="47.86359" lon="-3.5419">
        <ele>3.8</ele>
        <time>2020-07-08T11:05:55Z</time>
      </trkpt>
      <trkpt lat="47.86359" lon="-3.5419">
        <ele>3.8</ele>
        <time>2020-07-08T11:05:56Z</time>
      </trkpt>
      <trkpt lat="47.86359" lon="-3.5419">
        <ele>3.8</ele>
        <time>2020-07-08T11:05:57Z</time>
      </trkpt>
      <trkpt lat="47.86359" lon="-3.5419">
        <ele>3.8</ele>
        <time>2020-07-08T11:05:58Z</time>
      </trkpt>
      <trkpt lat="47.86359" lon="-3.5419">
        <ele>3.8</ele>
        <time>2020-07-08T11:05:59Z</time>
      </trkpt>
      <trkpt lat="47.86359" lon="-3.5419">
        <ele>3.8</ele>
        <time>2020-07-08T11:06:00Z</time>
      </trkpt>
      <trkpt lat="47.86359" lon="-3.5419">
        <ele>3.8</ele>
        <time>2020-07-08T11:06:01Z</time>
      </trkpt>
      <trkpt lat="47.86359" lon="-3.5419">
        <ele>3.8</ele>
        <time>2020-07-08T11:06:02Z</time>
      </trkpt>
      <trkpt lat="47.86359" lon="-3.5419">
        <ele>3.8</ele>
        <time>2020-07-08T11:06:03Z</time>
      </trkpt>
      <trkpt lat="47.86359" lon="-3.5419">
        <ele>3.8</ele>
        <time>2020-07-08T11:06:04Z</time>
      </trkpt>
      <trkpt lat="47.86359" lon="-3.5419">
        <ele>3.8</ele>
        <time>2020-07-08T11:06:05Z</time>
      </trkpt>
      <trkpt lat="47.86359" lon="-3.5419">
        <ele>3.8</ele>
        <time>2020-07-08T11:06:06Z</time>
      </trkpt>
      <trkpt lat="47.86359" lon="-3.5419">
        <ele>3.8</ele>
        <time>2020-07-08T11:06:07Z</time>
      </trkpt>
      <trkpt lat="47.86359" lon="-3.5419">
        <ele>3.8</ele>
        <time>2020-07-08T11:06:08Z</time>
      </trkpt>
      <trkpt lat="47.86359" lon="-3.5419">
        <ele>3.8</ele>
        <time>2020-07-08T11:06:09Z</time>
      </trkpt>
      <trkpt lat="47.86359" lon="-3.5419">
        <ele>3.8</ele>
        <time>2020-07-08T11:06:10Z</time>
      </trkpt>
      <trkpt lat="47.86359" lon="-3.5419">
        <ele>3.8</ele>
        <time>2020-07-08T11:06:11Z</time>
      </trkpt>
      <trkpt lat="47.86359" lon="-3.5419">
        <ele>3.8</ele>
        <time>2020-07-08T11:06:12Z</time>
      </trkpt>
      <trkpt lat="47.86359" lon="-3.5419">
        <ele>3.8</ele>
        <time>2020-07-08T11:06:13Z</time>
      </trkpt>
      <trkpt lat="47.86359" lon="-3.5419">
        <ele>3.8</ele>
        <time>2020-07-08T11:06:14Z</time>
      </trkpt>
      <trkpt lat="47.86359" lon="-3.5419">
        <ele>3.8</ele>
        <time>2020-07-08T11:06:15Z</time>
      </trkpt>
      <trkpt lat="47.86359" lon="-3.5419">
        <ele>3.8</ele>
        <time>2020-07-08T11:06:16Z</time>
      </trkpt>
      <trkpt lat="47.86359" lon="-3.5419">
        <ele>3.8</ele>
        <time>2020-07-08T11:06:17Z</time>
      </trkpt>
      <trkpt lat="47.86359" lon="-3.5419">
        <ele>3.8</ele>
        <time>2020-07-08T11:06:18Z</time>
      </trkpt>
      <trkpt lat="47.86359" lon="-3.5419">
        <ele>3.8</ele>
        <time>2020-07-08T11:06:19Z</time>
      </trkpt>
      <trkpt lat="47.86359" lon="-3.5419">
        <ele>3.8</ele>
        <time>2020-07-08T11:06:20Z</time>
      </trkpt>
      <trkpt lat="47.86359" lon="-3.5419">
        <ele>3.8</ele>
        <time>2020-07-08T11:06:21Z</time>
      </trkpt>
      <trkpt lat="47.86359" lon="-3.5419">
        <ele>3.8</ele>
        <time>2020-07-08T11:06:22Z</time>
      </trkpt>
      <trkpt lat="47.86359" lon="-3.5419">
        <ele>3.8</ele>
        <time>2020-07-08T11:06:23Z</time>
      </trkpt>
      <trkpt lat="47.86359" lon="-3.5419">
        <ele>3.8</ele>
        <time>2020-07-08T11:06:24Z</time>
      </trkpt>
      <trkpt lat="47.86359" lon="-3.5419">
        <ele>3.8</ele>
        <time>2020-07-08T11:06:25Z</time>
      </trkpt>
      <trkpt lat="47.86359" lon="-3.5419">
        <ele>3.8</ele>
        <time>2020-07-08T11:06:26Z</time>
      </trkpt>
      <trkpt lat="47.86359" lon="-3.5419">
        <ele>3.8</ele>
        <time>2020-07-08T11:06:27Z</time>
      </trkpt>
      <trkpt lat="47.86359" lon="-3.5419">
        <ele>3.8</ele>
        <time>2020-07-08T11:06:28Z</time>
      </trkpt>
      <trkpt lat="47.86359" lon="-3.5419">
        <ele>3.8</ele>
        <time>2020-07-08T11:06:29Z</time>
      </trkpt>
      <trkpt lat="47.86359" lon="-3.5419">
        <ele>3.8</ele>
        <time>2020-07-08T11:06:30Z</time>
      </trkpt>
      <trkpt lat="47.86359" lon="-3.5419">
        <ele>3.8</ele>
        <time>2020-07-08T11:06:31Z</time>
      </trkpt>
      <trkpt lat="47.86359" lon="-3.5419">
        <ele>3.8</ele>
        <time>2020-07-08T11:06:32Z</time>
      </trkpt>
      <trkpt lat="47.86359" lon="-3.5419">
        <ele>3.8</ele>
        <time>2020-07-08T11:06:33Z</time>
      </trkpt>
      <trkpt lat="47.86359" lon="-3.5419">
        <ele>3.8</ele>
        <time>2020-07-08T11:06:34Z</time>
      </trkpt>
      <trkpt lat="47.86359" lon="-3.5419">
        <ele>3.8</ele>
        <time>2020-07-08T11:06:35Z</time>
      </trkpt>
      <trkpt lat="47.86359" lon="-3.5419">
        <ele>3.8</ele>
        <time>2020-07-08T11:06:36Z</time>
      </trkpt>
      <trkpt lat="47.86359" lon="-3.5419">
        <ele>3.8</ele>
        <time>2020-07-08T11:06:37Z</time>
      </trkpt>
      <trkpt lat="47.86359" lon="-3.5419">
        <ele>3.8</ele>
        <time>2020-07-08T11:06:38Z</time>
      </trkpt>
      <trkpt lat="47.86359" lon="-3.5419">
        <ele>3.8</ele>
        <time>2020-07-08T11:06:39Z</time>
      </trkpt>
      <trkpt lat="47.86359" lon="-3.5419">
        <ele>3.8</ele>
        <time>2020-07-08T11:06:40Z</time>
      </trkpt>
      <trkpt lat="47.86359" lon="-3.5419">
        <ele>3.8</ele>
        <time>2020-07-08T11:06:41Z</time>
      </trkpt>
      <trkpt lat="47.86359" lon="-3.5419">
        <ele>3.8</ele>
        <time>2020-07-08T11:06:42Z</time>
      </trkpt>
      <trkpt lat="47.86359" lon="-3.5419">
        <ele>3.8</ele>
        <time>2020-07-08T11:06:43Z</time>
      </trkpt>
      <trkpt lat="47.86359" lon="-3.5419">
        <ele>3.8</ele>
        <time>2020-07-08T11:06:44Z</time>
      </trkpt>
      <trkpt lat="47.86359" lon="-3.5419">
        <ele>3.8</ele>
        <time>2020-07-08T11:06:45Z</time>
      </trkpt>
      <trkpt lat="47.86359" lon="-3.5419">
        <ele>3.8</ele>
        <time>2020-07-08T11:06:46Z</time>
      </trkpt>
      <trkpt lat="47.86359" lon="-3.5419">
        <ele>3.8</ele>
        <time>2020-07-08T11:06:47Z</time>
      </trkpt>
      <trkpt lat="47.86359" lon="-3.5419">
        <ele>3.8</ele>
        <time>2020-07-08T11:06:48Z</time>
      </trkpt>
      <trkpt lat="47.86359" lon="-3.5419">
        <ele>3.8</ele>
        <time>2020-07-08T11:06:49Z</time>
      </trkpt>
      <trkpt lat="47.86359" lon="-3.5419">
        <ele>3.8</ele>
        <time>2020-07-08T11:06:50Z</time>
      </trkpt>
      <trkpt lat="47.86359" lon="-3.5419">
        <ele>3.8</ele>
        <time>2020-07-08T11:06:51Z</time>
      </trkpt>
      <trkpt lat="47.86359" lon="-3.5419">
        <ele>3.8</ele>
        <time>2020-07-08T11:06:52Z</time>
      </trkpt>
      <trkpt lat="47.86359" lon="-3.5419">
        <ele>3.8</ele>
        <time>2020-07-08T11:06:53Z</time>
      </trkpt>
      <trkpt lat="47.86359" lon="-3.5419">
        <ele>3.8</ele>
        <time>2020-07-08T11:06:54Z</time>
      </trkpt>
      <trkpt lat="47.86359" lon="-3.5419">
        <ele>3.8</ele>
        <time>2020-07-08T11:06:55Z</time>
      </trkpt>
      <trkpt lat="47.86359" lon="-3.5419">
        <ele>3.8</ele>
        <time>2020-07-08T11:06:56Z</time>
      </trkpt>
      <trkpt lat="47.86359" lon="-3.5419">
        <ele>3.8</ele>
        <time>2020-07-08T11:06:57Z</time>
      </trkpt>
      <trkpt lat="47.86359" lon="-3.5419">
        <ele>3.8</ele>
        <time>2020-07-08T11:06:58Z</time>
      </trkpt>
      <trkpt lat="47.86359" lon="-3.5419">
        <ele>3.8</ele>
        <time>2020-07-08T11:06:59Z</time>
      </trkpt>
      <trkpt lat="47.86359" lon="-3.5419">
        <ele>3.8</ele>
        <time>2020-07-08T11:07:00Z</time>
      </trkpt>
      <trkpt lat="47.86359" lon="-3.5419">
        <ele>3.8</ele>
        <time>2020-07-08T11:07:01Z</time>
      </trkpt>
      <trkpt lat="47.86359" lon="-3.5419">
        <ele>3.8</ele>
        <time>2020-07-08T11:07:02Z</time>
      </trkpt>
      <trkpt lat="47.86359" lon="-3.5419">
        <ele>3.8</ele>
        <time>2020-07-08T11:07:03Z</time>
      </trkpt>
      <trkpt lat="47.86359" lon="-3.5419">
        <ele>3.8</ele>
        <time>2020-07-08T11:07:04Z</time>
      </trkpt>
      <trkpt lat="47.86359" lon="-3.5419">
        <ele>3.8</ele>
        <time>2020-07-08T11:07:05Z</time>
      </trkpt>
      <trkpt lat="47.86359" lon="-3.5419">
        <ele>3.8</ele>
        <time>2020-07-08T11:07:06Z</time>
      </trkpt>
      <trkpt lat="47.86359" lon="-3.5419">
        <ele>3.8</ele>
        <time>2020-07-08T11:07:07Z</time>
      </trkpt>
      <trkpt lat="47.86359" lon="-3.5419">
        <ele>3.8</ele>
        <time>2020-07-08T11:07:08Z</time>
      </trkpt>
      <trkpt lat="47.86359" lon="-3.5419">
        <ele>3.8</ele>
        <time>2020-07-08T11:07:09Z</time>
      </trkpt>
      <trkpt lat="47.86359" lon="-3.5419">
        <ele>3.8</ele>
        <time>2020-07-08T11:07:10Z</time>
      </trkpt>
      <trkpt lat="47.86359" lon="-3.5419">
        <ele>3.8</ele>
        <time>2020-07-08T11:07:11Z</time>
      </trkpt>
      <trkpt lat="47.86359" lon="-3.5419">
        <ele>3.8</ele>
        <time>2020-07-08T11:07:12Z</time>
      </trkpt>
      <trkpt lat="47.86359" lon="-3.5419">
        <ele>3.8</ele>
        <time>2020-07-08T11:07:13Z</time>
      </trkpt>
      <trkpt lat="47.86359" lon="-3.5419">
        <ele>3.8</ele>
        <time>2020-07-08T11:07:14Z</time>
      </trkpt>
      <trkpt lat="47.86359" lon="-3.5419">
        <ele>3.8</ele>
        <time>2020-07-08T11:07:15Z</time>
      </trkpt>
      <trkpt lat="47.86359" lon="-3.5419">
        <ele>3.8</ele>
        <time>2020-07-08T11:07:16Z</time>
      </trkpt>
      <trkpt lat="47.86359" lon="-3.5419">
        <ele>3.8</ele>
        <time>2020-07-08T11:07:17Z</time>
      </trkpt>
      <trkpt lat="47.86359" lon="-3.5419">
        <ele>3.8</ele>
        <time>2020-07-08T11:07:18Z</time>
      </trkpt>
      <trkpt lat="47.86359" lon="-3.5419">
        <ele>3.8</ele>
        <time>2020-07-08T11:07:19Z</time>
      </trkpt>
      <trkpt lat="47.86359" lon="-3.5419">
        <ele>3.8</ele>
        <time>2020-07-08T11:07:20Z</time>
      </trkpt>
      <trkpt lat="47.86359" lon="-3.5419">
        <ele>3.8</ele>
        <time>2020-07-08T11:07:21Z</time>
      </trkpt>
      <trkpt lat="47.86359" lon="-3.5419">
        <ele>3.8</ele>
        <time>2020-07-08T11:07:22Z</time>
      </trkpt>
      <trkpt lat="47.86359" lon="-3.5419">
        <ele>3.8</ele>
        <time>2020-07-08T11:07:23Z</time>
      </trkpt>
      <trkpt lat="47.86359" lon="-3.5419">
        <ele>3.8</ele>
        <time>2020-07-08T11:07:24Z</time>
      </trkpt>
      <trkpt lat="47.86359" lon="-3.5419">
        <ele>3.8</ele>
        <time>2020-07-08T11:07:25Z</time>
      </trkpt>
      <trkpt lat="47.86359" lon="-3.5419">
        <ele>3.8</ele>
        <time>2020-07-08T11:07:26Z</time>
      </trkpt>
      <trkpt lat="47.86359" lon="-3.5419">
        <ele>3.8</ele>
        <time>2020-07-08T11:07:27Z</time>
      </trkpt>
      <trkpt lat="47.86359" lon="-3.5419">
        <ele>3.8</ele>
        <time>2020-07-08T11:07:28Z</time>
      </trkpt>
      <trkpt lat="47.86359" lon="-3.5419">
        <ele>3.8</ele>
        <time>2020-07-08T11:07:29Z</time>
      </trkpt>
      <trkpt lat="47.86359" lon="-3.5419">
        <ele>3.8</ele>
        <time>2020-07-08T11:07:30Z</time>
      </trkpt>
      <trkpt lat="47.86359" lon="-3.5419">
        <ele>3.8</ele>
        <time>2020-07-08T11:07:31Z</time>
      </trkpt>
      <trkpt lat="47.86359" lon="-3.5419">
        <ele>3.8</ele>
        <time>2020-07-08T11:07:32Z</time>
      </trkpt>
      <trkpt lat="47.86359" lon="-3.5419">
        <ele>3.8</ele>
        <time>2020-07-08T11:07:33Z</time>
      </trkpt>
      <trkpt lat="47.86359" lon="-3.5419">
        <ele>3.8</ele>
        <time>2020-07-08T11:07:34Z</time>
      </trkpt>
      <trkpt lat="47.86359" lon="-3.5419">
        <ele>3.8</ele>
        <time>2020-07-08T11:07:35Z</time>
      </trkpt>
      <trkpt lat="47.86359" lon="-3.5419">
        <ele>3.8</ele>
        <time>2020-07-08T11:07:36Z</time>
      </trkpt>
      <trkpt lat="47.86359" lon="-3.5419">
        <ele>3.8</ele>
        <time>2020-07-08T11:07:37Z</time>
      </trkpt>
      <trkpt lat="47.86359" lon="-3.5419">
        <ele>3.8</ele>
        <time>2020-07-08T11:07:38Z</time>
      </trkpt>
      <trkpt lat="47.86359" lon="-3.5419">
        <ele>3.8</ele>
        <time>2020-07-08T11:07:39Z</time>
      </trkpt>
      <trkpt lat="47.86359" lon="-3.5419">
        <ele>3.8</ele>
        <time>2020-07-08T11:07:40Z</time>
      </trkpt>
      <trkpt lat="47.86359" lon="-3.5419">
        <ele>3.8</ele>
        <time>2020-07-08T11:07:41Z</time>
      </trkpt>
      <trkpt lat="47.86359" lon="-3.5419">
        <ele>3.8</ele>
        <time>2020-07-08T11:07:42Z</time>
      </trkpt>
      <trkpt lat="47.86359" lon="-3.5419">
        <ele>3.8</ele>
        <time>2020-07-08T11:07:43Z</time>
      </trkpt>
      <trkpt lat="47.86359" lon="-3.5419">
        <ele>3.8</ele>
        <time>2020-07-08T11:07:44Z</time>
      </trkpt>
      <trkpt lat="47.86359" lon="-3.5419">
        <ele>3.8</ele>
        <time>2020-07-08T11:07:45Z</time>
      </trkpt>
      <trkpt lat="47.86359" lon="-3.5419">
        <ele>3.8</ele>
        <time>2020-07-08T11:07:46Z</time>
      </trkpt>
      <trkpt lat="47.86359" lon="-3.5419">
        <ele>3.8</ele>
        <time>2020-07-08T11:07:47Z</time>
      </trkpt>
      <trkpt lat="47.86359" lon="-3.5419">
        <ele>3.8</ele>
        <time>2020-07-08T11:07:48Z</time>
      </trkpt>
      <trkpt lat="47.86359" lon="-3.5419">
        <ele>3.8</ele>
        <time>2020-07-08T11:07:49Z</time>
      </trkpt>
      <trkpt lat="47.86359" lon="-3.5419">
        <ele>3.8</ele>
        <time>2020-07-08T11:07:50Z</time>
      </trkpt>
      <trkpt lat="47.86359" lon="-3.5419">
        <ele>3.8</ele>
        <time>2020-07-08T11:07:51Z</time>
      </trkpt>
      <trkpt lat="47.86359" lon="-3.5419">
        <ele>3.8</ele>
        <time>2020-07-08T11:07:52Z</time>
      </trkpt>
      <trkpt lat="47.86359" lon="-3.5419">
        <ele>3.8</ele>
        <time>2020-07-08T11:07:53Z</time>
      </trkpt>
      <trkpt lat="47.86359" lon="-3.5419">
        <ele>3.8</ele>
        <time>2020-07-08T11:07:54Z</time>
      </trkpt>
      <trkpt lat="47.86359" lon="-3.5419">
        <ele>3.8</ele>
        <time>2020-07-08T11:07:55Z</time>
      </trkpt>
      <trkpt lat="47.86359" lon="-3.5419">
        <ele>3.8</ele>
        <time>2020-07-08T11:07:56Z</time>
      </trkpt>
      <trkpt lat="47.86359" lon="-3.5419">
        <ele>3.8</ele>
        <time>2020-07-08T11:07:57Z</time>
      </trkpt>
      <trkpt lat="47.86359" lon="-3.5419">
        <ele>3.8</ele>
        <time>2020-07-08T11:07:58Z</time>
      </trkpt>
      <trkpt lat="47.86359" lon="-3.5419">
        <ele>3.8</ele>
        <time>2020-07-08T11:07:59Z</time>
      </trkpt>
      <trkpt lat="47.86359" lon="-3.5419">
        <ele>3.8</ele>
        <time>2020-07-08T11:08:00Z</time>
      </trkpt>
      <trkpt lat="47.86359" lon="-3.5419">
        <ele>3.8</ele>
        <time>2020-07-08T11:08:01Z</time>
      </trkpt>
      <trkpt lat="47.86359" lon="-3.5419">
        <ele>3.8</ele>
        <time>2020-07-08T11:08:02Z</time>
      </trkpt>
      <trkpt lat="47.86359" lon="-3.5419">
        <ele>3.8</ele>
        <time>2020-07-08T11:08:03Z</time>
      </trkpt>
      <trkpt lat="47.86359" lon="-3.5419">
        <ele>3.8</ele>
        <time>2020-07-08T11:08:04Z</time>
      </trkpt>
      <trkpt lat="47.86359" lon="-3.5419">
        <ele>3.8</ele>
        <time>2020-07-08T11:08:05Z</time>
      </trkpt>
      <trkpt lat="47.86359" lon="-3.5419">
        <ele>3.8</ele>
        <time>2020-07-08T11:08:06Z</time>
      </trkpt>
      <trkpt lat="47.86359" lon="-3.5419">
        <ele>3.8</ele>
        <time>2020-07-08T11:08:07Z</time>
      </trkpt>
      <trkpt lat="47.86359" lon="-3.5419">
        <ele>3.8</ele>
        <time>2020-07-08T11:08:08Z</time>
      </trkpt>
      <trkpt lat="47.86359" lon="-3.5419">
        <ele>3.8</ele>
        <time>2020-07-08T11:08:09Z</time>
      </trkpt>
      <trkpt lat="47.86359" lon="-3.5419">
        <ele>3.8</ele>
        <time>2020-07-08T11:08:10Z</time>
      </trkpt>
      <trkpt lat="47.86359" lon="-3.5419">
        <ele>3.8</ele>
        <time>2020-07-08T11:08:11Z</time>
      </trkpt>
      <trkpt lat="47.86359" lon="-3.5419">
        <ele>3.8</ele>
        <time>2020-07-08T11:08:12Z</time>
      </trkpt>
      <trkpt lat="47.86359" lon="-3.5419">
        <ele>3.8</ele>
        <time>2020-07-08T11:08:13Z</time>
      </trkpt>
      <trkpt lat="47.86359" lon="-3.5419">
        <ele>3.8</ele>
        <time>2020-07-08T11:08:14Z</time>
      </trkpt>
      <trkpt lat="47.86359" lon="-3.5419">
        <ele>3.8</ele>
        <time>2020-07-08T11:08:15Z</time>
      </trkpt>
      <trkpt lat="47.86359" lon="-3.5419">
        <ele>3.8</ele>
        <time>2020-07-08T11:08:16Z</time>
      </trkpt>
      <trkpt lat="47.86359" lon="-3.5419">
        <ele>3.8</ele>
        <time>2020-07-08T11:08:17Z</time>
      </trkpt>
      <trkpt lat="47.86359" lon="-3.5419">
        <ele>3.8</ele>
        <time>2020-07-08T11:08:18Z</time>
      </trkpt>
      <trkpt lat="47.86359" lon="-3.5419">
        <ele>3.8</ele>
        <time>2020-07-08T11:08:19Z</time>
      </trkpt>
      <trkpt lat="47.86359" lon="-3.5419">
        <ele>3.8</ele>
        <time>2020-07-08T11:08:20Z</time>
      </trkpt>
      <trkpt lat="47.86359" lon="-3.5419">
        <ele>3.8</ele>
        <time>2020-07-08T11:08:21Z</time>
      </trkpt>
      <trkpt lat="47.86359" lon="-3.5419">
        <ele>3.8</ele>
        <time>2020-07-08T11:08:22Z</time>
      </trkpt>
      <trkpt lat="47.86359" lon="-3.5419">
        <ele>3.8</ele>
        <time>2020-07-08T11:08:23Z</time>
      </trkpt>
      <trkpt lat="47.86359" lon="-3.5419">
        <ele>3.8</ele>
        <time>2020-07-08T11:08:24Z</time>
      </trkpt>
      <trkpt lat="47.86359" lon="-3.5419">
        <ele>3.8</ele>
        <time>2020-07-08T11:08:25Z</time>
      </trkpt>
      <trkpt lat="47.86359" lon="-3.5419">
        <ele>3.8</ele>
        <time>2020-07-08T11:08:26Z</time>
      </trkpt>
      <trkpt lat="47.86359" lon="-3.5419">
        <ele>3.8</ele>
        <time>2020-07-08T11:08:27Z</time>
      </trkpt>
      <trkpt lat="47.86359" lon="-3.5419">
        <ele>3.8</ele>
        <time>2020-07-08T11:08:28Z</time>
      </trkpt>
      <trkpt lat="47.86359" lon="-3.5419">
        <ele>3.8</ele>
        <time>2020-07-08T11:08:29Z</time>
      </trkpt>
      <trkpt lat="47.86359" lon="-3.5419">
        <ele>3.8</ele>
        <time>2020-07-08T11:08:30Z</time>
      </trkpt>
      <trkpt lat="47.86359" lon="-3.5419">
        <ele>3.8</ele>
        <time>2020-07-08T11:08:31Z</time>
      </trkpt>
      <trkpt lat="47.86359" lon="-3.5419">
        <ele>3.8</ele>
        <time>2020-07-08T11:08:32Z</time>
      </trkpt>
      <trkpt lat="47.86359" lon="-3.5419">
        <ele>3.8</ele>
        <time>2020-07-08T11:08:33Z</time>
      </trkpt>
      <trkpt lat="47.86359" lon="-3.5419">
        <ele>3.8</ele>
        <time>2020-07-08T11:08:34Z</time>
      </trkpt>
      <trkpt lat="47.86359" lon="-3.5419">
        <ele>3.8</ele>
        <time>2020-07-08T11:08:35Z</time>
      </trkpt>
      <trkpt lat="47.86359" lon="-3.5419">
        <ele>3.8</ele>
        <time>2020-07-08T11:08:36Z</time>
      </trkpt>
      <trkpt lat="47.86359" lon="-3.5419">
        <ele>3.8</ele>
        <time>2020-07-08T11:08:37Z</time>
      </trkpt>
      <trkpt lat="47.86359" lon="-3.5419">
        <ele>3.8</ele>
        <time>2020-07-08T11:08:38Z</time>
      </trkpt>
      <trkpt lat="47.86359" lon="-3.5419">
        <ele>3.8</ele>
        <time>2020-07-08T11:08:39Z</time>
      </trkpt>
      <trkpt lat="47.86359" lon="-3.5419">
        <ele>3.8</ele>
        <time>2020-07-08T11:08:40Z</time>
      </trkpt>
      <trkpt lat="47.86359" lon="-3.5419">
        <ele>3.8</ele>
        <time>2020-07-08T11:08:41Z</time>
      </trkpt>
      <trkpt lat="47.86359" lon="-3.5419">
        <ele>3.8</ele>
        <time>2020-07-08T11:08:42Z</time>
      </trkpt>
      <trkpt lat="47.86359" lon="-3.5419">
        <ele>3.8</ele>
        <time>2020-07-08T11:08:43Z</time>
      </trkpt>
      <trkpt lat="47.86359" lon="-3.5419">
        <ele>3.8</ele>
        <time>2020-07-08T11:08:44Z</time>
      </trkpt>
      <trkpt lat="47.86359" lon="-3.5419">
        <ele>3.8</ele>
        <time>2020-07-08T11:08:45Z</time>
      </trkpt>
      <trkpt lat="47.86359" lon="-3.5419">
        <ele>3.8</ele>
        <time>2020-07-08T11:08:46Z</time>
      </trkpt>
      <trkpt lat="47.86359" lon="-3.5419">
        <ele>3.8</ele>
        <time>2020-07-08T11:08:47Z</time>
      </trkpt>
      <trkpt lat="47.86359" lon="-3.5419">
        <ele>3.8</ele>
        <time>2020-07-08T11:08:48Z</time>
      </trkpt>
      <trkpt lat="47.86359" lon="-3.5419">
        <ele>3.8</ele>
        <time>2020-07-08T11:08:49Z</time>
      </trkpt>
      <trkpt lat="47.86359" lon="-3.5419">
        <ele>3.8</ele>
        <time>2020-07-08T11:08:50Z</time>
      </trkpt>
      <trkpt lat="47.86359" lon="-3.5419">
        <ele>3.8</ele>
        <time>2020-07-08T11:08:51Z</time>
      </trkpt>
      <trkpt lat="47.86359" lon="-3.5419">
        <ele>3.8</ele>
        <time>2020-07-08T11:08:52Z</time>
      </trkpt>
      <trkpt lat="47.86359" lon="-3.5419">
        <ele>3.8</ele>
        <time>2020-07-08T11:08:53Z</time>
      </trkpt>
      <trkpt lat="47.86359" lon="-3.5419">
        <ele>3.8</ele>
        <time>2020-07-08T11:08:54Z</time>
      </trkpt>
      <trkpt lat="47.86359" lon="-3.5419">
        <ele>3.8</ele>
        <time>2020-07-08T11:08:55Z</time>
      </trkpt>
      <trkpt lat="47.86359" lon="-3.5419">
        <ele>3.8</ele>
        <time>2020-07-08T11:08:56Z</time>
      </trkpt>
      <trkpt lat="47.86359" lon="-3.5419">
        <ele>3.8</ele>
        <time>2020-07-08T11:08:57Z</time>
      </trkpt>
      <trkpt lat="47.86359" lon="-3.5419">
        <ele>3.8</ele>
        <time>2020-07-08T11:08:58Z</time>
      </trkpt>
      <trkpt lat="47.86359" lon="-3.5419">
        <ele>3.8</ele>
        <time>2020-07-08T11:08:59Z</time>
      </trkpt>
      <trkpt lat="47.86359" lon="-3.5419">
        <ele>3.8</ele>
        <time>2020-07-08T11:09:00Z</time>
      </trkpt>
      <trkpt lat="47.86359" lon="-3.5419">
        <ele>3.8</ele>
        <time>2020-07-08T11:09:01Z</time>
      </trkpt>
      <trkpt lat="47.86359" lon="-3.5419">
        <ele>3.8</ele>
        <time>2020-07-08T11:09:02Z</time>
      </trkpt>
      <trkpt lat="47.86359" lon="-3.5419">
        <ele>3.8</ele>
        <time>2020-07-08T11:09:03Z</time>
      </trkpt>
      <trkpt lat="47.86359" lon="-3.5419">
        <ele>3.8</ele>
        <time>2020-07-08T11:09:04Z</time>
      </trkpt>
      <trkpt lat="47.86359" lon="-3.5419">
        <ele>3.8</ele>
        <time>2020-07-08T11:09:05Z</time>
      </trkpt>
      <trkpt lat="47.86359" lon="-3.5419">
        <ele>3.8</ele>
        <time>2020-07-08T11:09:06Z</time>
      </trkpt>
      <trkpt lat="47.86359" lon="-3.5419">
        <ele>3.8</ele>
        <time>2020-07-08T11:09:07Z</time>
      </trkpt>
      <trkpt lat="47.86359" lon="-3.5419">
        <ele>3.8</ele>
        <time>2020-07-08T11:09:08Z</time>
      </trkpt>
      <trkpt lat="47.86359" lon="-3.5419">
        <ele>3.8</ele>
        <time>2020-07-08T11:09:09Z</time>
      </trkpt>
      <trkpt lat="47.86359" lon="-3.5419">
        <ele>3.8</ele>
        <time>2020-07-08T11:09:10Z</time>
      </trkpt>
      <trkpt lat="47.86359" lon="-3.5419">
        <ele>3.8</ele>
        <time>2020-07-08T11:09:11Z</time>
      </trkpt>
      <trkpt lat="47.86359" lon="-3.5419">
        <ele>3.8</ele>
        <time>2020-07-08T11:09:12Z</time>
      </trkpt>
      <trkpt lat="47.86359" lon="-3.5419">
        <ele>3.8</ele>
        <time>2020-07-08T11:09:13Z</time>
      </trkpt>
      <trkpt lat="47.86359" lon="-3.5419">
        <ele>3.8</ele>
        <time>2020-07-08T11:09:14Z</time>
      </trkpt>
      <trkpt lat="47.86359" lon="-3.5419">
        <ele>3.8</ele>
        <time>2020-07-08T11:09:15Z</time>
      </trkpt>
      <trkpt lat="47.86359" lon="-3.5419">
        <ele>3.8</ele>
        <time>2020-07-08T11:09:16Z</time>
      </trkpt>
      <trkpt lat="47.86359" lon="-3.5419">
        <ele>3.8</ele>
        <time>2020-07-08T11:09:17Z</time>
      </trkpt>
      <trkpt lat="47.86359" lon="-3.5419">
        <ele>3.8</ele>
        <time>2020-07-08T11:09:18Z</time>
      </trkpt>
      <trkpt lat="47.86359" lon="-3.5419">
        <ele>3.8</ele>
        <time>2020-07-08T11:09:19Z</time>
      </trkpt>
      <trkpt lat="47.86359" lon="-3.5419">
        <ele>3.8</ele>
        <time>2020-07-08T11:09:20Z</time>
      </trkpt>
      <trkpt lat="47.86359" lon="-3.5419">
        <ele>3.8</ele>
        <time>2020-07-08T11:09:21Z</time>
      </trkpt>
      <trkpt lat="47.86359" lon="-3.5419">
        <ele>3.8</ele>
        <time>2020-07-08T11:09:22Z</time>
      </trkpt>
      <trkpt lat="47.86359" lon="-3.5419">
        <ele>3.8</ele>
        <time>2020-07-08T11:09:23Z</time>
      </trkpt>
      <trkpt lat="47.86359" lon="-3.5419">
        <ele>3.8</ele>
        <time>2020-07-08T11:09:24Z</time>
      </trkpt>
      <trkpt lat="47.86359" lon="-3.5419">
        <ele>3.8</ele>
        <time>2020-07-08T11:09:25Z</time>
      </trkpt>
      <trkpt lat="47.86358" lon="-3.5419">
        <ele>3.79</ele>
        <time>2020-07-08T11:09:26Z</time>
      </trkpt>
      <trkpt lat="47.86356" lon="-3.5419">
        <ele>3.79</ele>
        <time>2020-07-08T11:09:27Z</time>
      </trkpt>
      <trkpt lat="47.86354" lon="-3.54191">
        <ele>3.81</ele>
        <time>2020-07-08T11:09:28Z</time>
      </trkpt>
      <trkpt lat="47.86352" lon="-3.54192">
        <ele>3.82</ele>
        <time>2020-07-08T11:09:29Z</time>
      </trkpt>
      <trkpt lat="47.86349" lon="-3.54192">
        <ele>3.86</ele>
        <time>2020-07-08T11:09:30Z</time>
      </trkpt>
      <trkpt lat="47.86346" lon="-3.54194">
        <ele>3.93</ele>
        <time>2020-07-08T11:09:31Z</time>
      </trkpt>
      <trkpt lat="47.86343" lon="-3.54195">
        <ele>4.03</ele>
        <time>2020-07-08T11:09:32Z</time>
      </trkpt>
      <trkpt lat="47.8634" lon="-3.54195">
        <ele>4.11</ele>
        <time>2020-07-08T11:09:33Z</time>
      </trkpt>
      <trkpt lat="47.86336" lon="-3.54195">
        <ele>4.13</ele>
        <time>2020-07-08T11:09:34Z</time>
      </trkpt>
      <trkpt lat="47.86333" lon="-3.54194">
        <ele>4.07</ele>
        <time>2020-07-08T11:09:35Z</time>
      </trkpt>
      <trkpt lat="47.86329" lon="-3.54194">
        <ele>4.31</ele>
        <time>2020-07-08T11:09:36Z</time>
      </trkpt>
      <trkpt lat="47.86326" lon="-3.54195">
        <ele>4.76</ele>
        <time>2020-07-08T11:09:37Z</time>
      </trkpt>
      <trkpt lat="47.86323" lon="-3.54197">
        <ele>5.35</ele>
        <time>2020-07-08T11:09:38Z</time>
      </trkpt>
      <trkpt lat="47.8632" lon="-3.54198">
        <ele>6.03</ele>
        <time>2020-07-08T11:09:39Z</time>
      </trkpt>
      <trkpt lat="47.86315" lon="-3.54198">
        <ele>6.57</ele>
        <time>2020-07-08T11:09:40Z</time>
      </trkpt>
      <trkpt lat="47.8631" lon="-3.54199">
        <ele>7.56</ele>
        <time>2020-07-08T11:09:41Z</time>
      </trkpt>
      <trkpt lat="47.86306" lon="-3.54202">
        <ele>8.83</ele>
        <time>2020-07-08T11:09:42Z</time>
      </trkpt>
      <trkpt lat="47.86301" lon="-3.54204">
        <ele>8.89</ele>
        <time>2020-07-08T11:09:43Z</time>
      </trkpt>
      <trkpt lat="47.86297" lon="-3.54207">
        <ele>8.51</ele>
        <time>2020-07-08T11:09:44Z</time>
      </trkpt>
      <trkpt lat="47.86293" lon="-3.54209">
        <ele>7.89</ele>
        <time>2020-07-08T11:09:45Z</time>
      </trkpt>
      <trkpt lat="47.86289" lon="-3.54211">
        <ele>7.05</ele>
        <time>2020-07-08T11:09:46Z</time>
      </trkpt>
      <trkpt lat="47.86285" lon="-3.54214">
        <ele>6.05</ele>
        <time>2020-07-08T11:09:47Z</time>
      </trkpt>
      <trkpt lat="47.8628" lon="-3.54216">
        <ele>4.88</ele>
        <time>2020-07-08T11:09:48Z</time>
      </trkpt>
      <trkpt lat="47.86276" lon="-3.54219">
        <ele>4.01</ele>
        <time>2020-07-08T11:09:49Z</time>
      </trkpt>
      <trkpt lat="47.86271" lon="-3.54223">
        <ele>3.87</ele>
        <time>2020-07-08T11:09:50Z</time>
      </trkpt>
      <trkpt lat="47.86267" lon="-3.54226">
        <ele>3.77</ele>
        <time>2020-07-08T11:09:51Z</time>
      </trkpt>
      <trkpt lat="47.86262" lon="-3.54229">
        <ele>3.7</ele>
        <time>2020-07-08T11:09:52Z</time>
      </trkpt>
      <trkpt lat="47.86257" lon="-3.54232">
        <ele>3.63</ele>
        <time>2020-07-08T11:09:53Z</time>
      </trkpt>
      <trkpt lat="47.86253" lon="-3.54235">
        <ele>3.58</ele>
        <time>2020-07-08T11:09:54Z</time>
      </trkpt>
      <trkpt lat="47.86248" lon="-3.54238">
        <ele>3.52</ele>
        <time>2020-07-08T11:09:55Z</time>
      </trkpt>
      <trkpt lat="47.86243" lon="-3.54241">
        <ele>3.46</ele>
        <time>2020-07-08T11:09:56Z</time>
      </trkpt>
      <trkpt lat="47.86238" lon="-3.54244">
        <ele>3.39</ele>
        <time>2020-07-08T11:09:57Z</time>
      </trkpt>
      <trkpt lat="47.86234" lon="-3.54246">
        <ele>3.32</ele>
        <time>2020-07-08T11:09:58Z</time>
      </trkpt>
      <trkpt lat="47.8623" lon="-3.54248">
        <ele>3.26</ele>
        <time>2020-07-08T11:09:59Z</time>
      </trkpt>
      <trkpt lat="47.86227" lon="-3.5425">
        <ele>3.19</ele>
        <time>2020-07-08T11:10:00Z</time>
      </trkpt>
      <trkpt lat="47.86223" lon="-3.54252">
        <ele>3.18</ele>
        <time>2020-07-08T11:10:01Z</time>
      </trkpt>
      <trkpt lat="47.86219" lon="-3.54254">
        <ele>3.26</ele>
        <time>2020-07-08T11:10:02Z</time>
      </trkpt>
      <trkpt lat="47.86216" lon="-3.54256">
        <ele>3.33</ele>
        <time>2020-07-08T11:10:03Z</time>
      </trkpt>
      <trkpt lat="47.86212" lon="-3.54257">
        <ele>3.4</ele>
        <time>2020-07-08T11:10:04Z</time>
      </trkpt>
      <trkpt lat="47.86209" lon="-3.54259">
        <ele>3.46</ele>
        <time>2020-07-08T11:10:05Z</time>
      </trkpt>
      <trkpt lat="47.86205" lon="-3.54261">
        <ele>3.52</ele>
        <time>2020-07-08T11:10:06Z</time>
      </trkpt>
      <trkpt lat="47.86202" lon="-3.54263">
        <ele>3.58</ele>
        <time>2020-07-08T11:10:07Z</time>
      </trkpt>
      <trkpt lat="47.86199" lon="-3.54264">
        <ele>3.58</ele>
        <time>2020-07-08T11:10:08Z</time>
      </trkpt>
      <trkpt lat="47.86195" lon="-3.54266">
        <ele>3.58</ele>
        <time>2020-07-08T11:10:09Z</time>
      </trkpt>
      <trkpt lat="47.86191" lon="-3.54267">
        <ele>3.62</ele>
        <time>2020-07-08T11:10:10Z</time>
      </trkpt>
      <trkpt lat="47.86187" lon="-3.54269">
        <ele>3.66</ele>
        <time>2020-07-08T11:10:11Z</time>
      </trkpt>
      <trkpt lat="47.86183" lon="-3.5427">
        <ele>3.71</ele>
        <time>2020-07-08T11:10:12Z</time>
      </trkpt>
      <trkpt lat="47.86179" lon="-3.54271">
        <ele>3.75</ele>
        <time>2020-07-08T11:10:13Z</time>
      </trkpt>
      <trkpt lat="47.86174" lon="-3.54274">
        <ele>3.82</ele>
        <time>2020-07-08T11:10:14Z</time>
      </trkpt>
      <trkpt lat="47.86169" lon="-3.54275">
        <ele>3.88</ele>
        <time>2020-07-08T11:10:15Z</time>
      </trkpt>
      <trkpt lat="47.86165" lon="-3.54278">
        <ele>4.13</ele>
        <time>2020-07-08T11:10:16Z</time>
      </trkpt>
      <trkpt lat="47.86162" lon="-3.5428">
        <ele>4.81</ele>
        <time>2020-07-08T11:10:17Z</time>
      </trkpt>
      <trkpt lat="47.86158" lon="-3.54283">
        <ele>5.76</ele>
        <time>2020-07-08T11:10:18Z</time>
      </trkpt>
      <trkpt lat="47.86154" lon="-3.54285">
        <ele>6.84</ele>
        <time>2020-07-08T11:10:19Z</time>
      </trkpt>
      <trkpt lat="47.86151" lon="-3.54287">
        <ele>7.81</ele>
        <time>2020-07-08T11:10:20Z</time>
      </trkpt>
      <trkpt lat="47.86144" lon="-3.5429">
        <ele>9.9</ele>
        <time>2020-07-08T11:10:21Z</time>
      </trkpt>
      <trkpt lat="47.86138" lon="-3.54293">
        <ele>11.82</ele>
        <time>2020-07-08T11:10:22Z</time>
      </trkpt>
      <trkpt lat="47.86133" lon="-3.54296">
        <ele>12.14</ele>
        <time>2020-07-08T11:10:23Z</time>
      </trkpt>
      <trkpt lat="47.86127" lon="-3.54298">
        <ele>11.49</ele>
        <time>2020-07-08T11:10:24Z</time>
      </trkpt>
      <trkpt lat="47.86122" lon="-3.54301">
        <ele>10.12</ele>
        <time>2020-07-08T11:10:25Z</time>
      </trkpt>
      <trkpt lat="47.86116" lon="-3.54304">
        <ele>8.23</ele>
        <time>2020-07-08T11:10:26Z</time>
      </trkpt>
      <trkpt lat="47.86112" lon="-3.54306">
        <ele>6.27</ele>
        <time>2020-07-08T11:10:27Z</time>
      </trkpt>
      <trkpt lat="47.86107" lon="-3.54308">
        <ele>5.24</ele>
        <time>2020-07-08T11:10:28Z</time>
      </trkpt>
      <trkpt lat="47.86103" lon="-3.54312">
        <ele>4.8</ele>
        <time>2020-07-08T11:10:29Z</time>
      </trkpt>
      <trkpt lat="47.86098" lon="-3.54315">
        <ele>4.53</ele>
        <time>2020-07-08T11:10:30Z</time>
      </trkpt>
      <trkpt lat="47.86095" lon="-3.54318">
        <ele>4.36</ele>
        <time>2020-07-08T11:10:31Z</time>
      </trkpt>
      <trkpt lat="47.86091" lon="-3.54321">
        <ele>4.18</ele>
        <time>2020-07-08T11:10:32Z</time>
      </trkpt>
      <trkpt lat="47.86087" lon="-3.54324">
        <ele>4</ele>
        <time>2020-07-08T11:10:33Z</time>
      </trkpt>
      <trkpt lat="47.86083" lon="-3.54326">
        <ele>3.83</ele>
        <time>2020-07-08T11:10:34Z</time>
      </trkpt>
      <trkpt lat="47.86079" lon="-3.5433">
        <ele>3.86</ele>
        <time>2020-07-08T11:10:35Z</time>
      </trkpt>
      <trkpt lat="47.86075" lon="-3.54334">
        <ele>3.97</ele>
        <time>2020-07-08T11:10:36Z</time>
      </trkpt>
      <trkpt lat="47.86071" lon="-3.54338">
        <ele>4.1</ele>
        <time>2020-07-08T11:10:37Z</time>
      </trkpt>
      <trkpt lat="47.86068" lon="-3.54342">
        <ele>4.25</ele>
        <time>2020-07-08T11:10:38Z</time>
      </trkpt>
      <trkpt lat="47.86065" lon="-3.54346">
        <ele>4.39</ele>
        <time>2020-07-08T11:10:39Z</time>
      </trkpt>
      <trkpt lat="47.86061" lon="-3.54349">
        <ele>4.5</ele>
        <time>2020-07-08T11:10:40Z</time>
      </trkpt>
      <trkpt lat="47.86058" lon="-3.54351">
        <ele>4.6</ele>
        <time>2020-07-08T11:10:41Z</time>
      </trkpt>
      <trkpt lat="47.86055" lon="-3.54353">
        <ele>4.69</ele>
        <time>2020-07-08T11:10:42Z</time>
      </trkpt>
      <trkpt lat="47.86051" lon="-3.54356">
        <ele>4.79</ele>
        <time>2020-07-08T11:10:43Z</time>
      </trkpt>
      <trkpt lat="47.86046" lon="-3.5436">
        <ele>4.9</ele>
        <time>2020-07-08T11:10:44Z</time>
      </trkpt>
      <trkpt lat="47.86042" lon="-3.54361">
        <ele>4.97</ele>
        <time>2020-07-08T11:10:45Z</time>
      </trkpt>
      <trkpt lat="47.86037" lon="-3.54362">
        <ele>5</ele>
        <time>2020-07-08T11:10:46Z</time>
      </trkpt>
      <trkpt lat="47.86032" lon="-3.54362">
        <ele>5</ele>
        <time>2020-07-08T11:10:47Z</time>
      </trkpt>
      <trkpt lat="47.86028" lon="-3.54361">
        <ele>4.99</ele>
        <time>2020-07-08T11:10:48Z</time>
      </trkpt>
      <trkpt lat="47.86023" lon="-3.54362">
        <ele>4.88</ele>
        <time>2020-07-08T11:10:49Z</time>
      </trkpt>
      <trkpt lat="47.86018" lon="-3.54364">
        <ele>4.73</ele>
        <time>2020-07-08T11:10:50Z</time>
      </trkpt>
      <trkpt lat="47.86014" lon="-3.54368">
        <ele>4.58</ele>
        <time>2020-07-08T11:10:51Z</time>
      </trkpt>
      <trkpt lat="47.8601" lon="-3.54372">
        <ele>4.42</ele>
        <time>2020-07-08T11:10:52Z</time>
      </trkpt>
      <trkpt lat="47.86006" lon="-3.54377">
        <ele>4.27</ele>
        <time>2020-07-08T11:10:53Z</time>
      </trkpt>
      <trkpt lat="47.86002" lon="-3.54382">
        <ele>4.13</ele>
        <time>2020-07-08T11:10:54Z</time>
      </trkpt>
      <trkpt lat="47.85998" lon="-3.54385">
        <ele>4.1</ele>
        <time>2020-07-08T11:10:55Z</time>
      </trkpt>
      <trkpt lat="47.85994" lon="-3.54388">
        <ele>4.19</ele>
        <time>2020-07-08T11:10:56Z</time>
      </trkpt>
      <trkpt lat="47.85989" lon="-3.5439">
        <ele>4.36</ele>
        <time>2020-07-08T11:10:57Z</time>
      </trkpt>
      <trkpt lat="47.85985" lon="-3.54392">
        <ele>4.56</ele>
        <time>2020-07-08T11:10:58Z</time>
      </trkpt>
      <trkpt lat="47.85982" lon="-3.54395">
        <ele>4.72</ele>
        <time>2020-07-08T11:10:59Z</time>
      </trkpt>
      <trkpt lat="47.85979" lon="-3.54398">
        <ele>4.86</ele>
        <time>2020-07-08T11:11:00Z</time>
      </trkpt>
      <trkpt lat="47.85976" lon="-3.54401">
        <ele>4.94</ele>
        <time>2020-07-08T11:11:01Z</time>
      </trkpt>
      <trkpt lat="47.85972" lon="-3.54402">
        <ele>4.98</ele>
        <time>2020-07-08T11:11:02Z</time>
      </trkpt>
      <trkpt lat="47.85969" lon="-3.54404">
        <ele>4.99</ele>
        <time>2020-07-08T11:11:03Z</time>
      </trkpt>
      <trkpt lat="47.85964" lon="-3.54406">
        <ele>5</ele>
        <time>2020-07-08T11:11:04Z</time>
      </trkpt>
      <trkpt lat="47.85961" lon="-3.54409">
        <ele>5</ele>
        <time>2020-07-08T11:11:05Z</time>
      </trkpt>
      <trkpt lat="47.85957" lon="-3.54413">
        <ele>5</ele>
        <time>2020-07-08T11:11:06Z</time>
      </trkpt>
      <trkpt lat="47.85953" lon="-3.54417">
        <ele>5.02</ele>
        <time>2020-07-08T11:11:07Z</time>
      </trkpt>
      <trkpt lat="47.8595" lon="-3.54421">
        <ele>5.11</ele>
        <time>2020-07-08T11:11:08Z</time>
      </trkpt>
      <trkpt lat="47.85946" lon="-3.54424">
        <ele>5.21</ele>
        <time>2020-07-08T11:11:09Z</time>
      </trkpt>
      <trkpt lat="47.85941" lon="-3.54426">
        <ele>5.3</ele>
        <time>2020-07-08T11:11:10Z</time>
      </trkpt>
      <trkpt lat="47.85936" lon="-3.54428">
        <ele>5.37</ele>
        <time>2020-07-08T11:11:11Z</time>
      </trkpt>
      <trkpt lat="47.85931" lon="-3.54429">
        <ele>5.43</ele>
        <time>2020-07-08T11:11:12Z</time>
      </trkpt>
      <trkpt lat="47.85926" lon="-3.54431">
        <ele>5.49</ele>
        <time>2020-07-08T11:11:13Z</time>
      </trkpt>
      <trkpt lat="47.85921" lon="-3.54433">
        <ele>5.55</ele>
        <time>2020-07-08T11:11:14Z</time>
      </trkpt>
      <trkpt lat="47.85916" lon="-3.54434">
        <ele>5.61</ele>
        <time>2020-07-08T11:11:15Z</time>
      </trkpt>
      <trkpt lat="47.85911" lon="-3.54436">
        <ele>5.67</ele>
        <time>2020-07-08T11:11:16Z</time>
      </trkpt>
      <trkpt lat="47.85906" lon="-3.54438">
        <ele>5.74</ele>
        <time>2020-07-08T11:11:17Z</time>
      </trkpt>
      <trkpt lat="47.859" lon="-3.5444">
        <ele>5.82</ele>
        <time>2020-07-08T11:11:18Z</time>
      </trkpt>
      <trkpt lat="47.85895" lon="-3.54442">
        <ele>5.89</ele>
        <time>2020-07-08T11:11:19Z</time>
      </trkpt>
      <trkpt lat="47.8589" lon="-3.54445">
        <ele>5.97</ele>
        <time>2020-07-08T11:11:20Z</time>
      </trkpt>
      <trkpt lat="47.85885" lon="-3.54447">
        <ele>5.97</ele>
        <time>2020-07-08T11:11:21Z</time>
      </trkpt>
      <trkpt lat="47.8588" lon="-3.54449">
        <ele>5.97</ele>
        <time>2020-07-08T11:11:22Z</time>
      </trkpt>
      <trkpt lat="47.85875" lon="-3.54452">
        <ele>6.02</ele>
        <time>2020-07-08T11:11:23Z</time>
      </trkpt>
      <trkpt lat="47.8587" lon="-3.54455">
        <ele>6.14</ele>
        <time>2020-07-08T11:11:24Z</time>
      </trkpt>
      <trkpt lat="47.85865" lon="-3.54457">
        <ele>6.31</ele>
        <time>2020-07-08T11:11:25Z</time>
      </trkpt>
      <trkpt lat="47.8586" lon="-3.5446">
        <ele>6.52</ele>
        <time>2020-07-08T11:11:26Z</time>
      </trkpt>
      <trkpt lat="47.85855" lon="-3.54463">
        <ele>6.62</ele>
        <time>2020-07-08T11:11:27Z</time>
      </trkpt>
      <trkpt lat="47.8585" lon="-3.54465">
        <ele>6.65</ele>
        <time>2020-07-08T11:11:28Z</time>
      </trkpt>
      <trkpt lat="47.85845" lon="-3.54469">
        <ele>6.63</ele>
        <time>2020-07-08T11:11:29Z</time>
      </trkpt>
      <trkpt lat="47.8584" lon="-3.54472">
        <ele>6.52</ele>
        <time>2020-07-08T11:11:30Z</time>
      </trkpt>
      <trkpt lat="47.85835" lon="-3.54475">
        <ele>6.51</ele>
        <time>2020-07-08T11:11:31Z</time>
      </trkpt>
      <trkpt lat="47.85831" lon="-3.54478">
        <ele>6.62</ele>
        <time>2020-07-08T11:11:32Z</time>
      </trkpt>
      <trkpt lat="47.85826" lon="-3.54481">
        <ele>6.75</ele>
        <time>2020-07-08T11:11:33Z</time>
      </trkpt>
      <trkpt lat="47.85821" lon="-3.54484">
        <ele>6.77</ele>
        <time>2020-07-08T11:11:34Z</time>
      </trkpt>
      <trkpt lat="47.85817" lon="-3.54488">
        <ele>6.7</ele>
        <time>2020-07-08T11:11:35Z</time>
      </trkpt>
      <trkpt lat="47.85812" lon="-3.54491">
        <ele>6.51</ele>
        <time>2020-07-08T11:11:36Z</time>
      </trkpt>
      <trkpt lat="47.85808" lon="-3.54495">
        <ele>6.23</ele>
        <time>2020-07-08T11:11:37Z</time>
      </trkpt>
      <trkpt lat="47.85803" lon="-3.54499">
        <ele>6.29</ele>
        <time>2020-07-08T11:11:38Z</time>
      </trkpt>
      <trkpt lat="47.85799" lon="-3.54503">
        <ele>6.75</ele>
        <time>2020-07-08T11:11:39Z</time>
      </trkpt>
      <trkpt lat="47.85795" lon="-3.54507">
        <ele>7.17</ele>
        <time>2020-07-08T11:11:40Z</time>
      </trkpt>
      <trkpt lat="47.85791" lon="-3.5451">
        <ele>7.53</ele>
        <time>2020-07-08T11:11:41Z</time>
      </trkpt>
      <trkpt lat="47.85787" lon="-3.54514">
        <ele>7.73</ele>
        <time>2020-07-08T11:11:42Z</time>
      </trkpt>
      <trkpt lat="47.85783" lon="-3.54517">
        <ele>7.8</ele>
        <time>2020-07-08T11:11:43Z</time>
      </trkpt>
      <trkpt lat="47.8578" lon="-3.54518">
        <ele>7.9</ele>
        <time>2020-07-08T11:11:44Z</time>
      </trkpt>
      <trkpt lat="47.85776" lon="-3.54518">
        <ele>8.21</ele>
        <time>2020-07-08T11:11:45Z</time>
      </trkpt>
      <trkpt lat="47.85773" lon="-3.54518">
        <ele>8.75</ele>
        <time>2020-07-08T11:11:46Z</time>
      </trkpt>
      <trkpt lat="47.8577" lon="-3.54518">
        <ele>9.29</ele>
        <time>2020-07-08T11:11:47Z</time>
      </trkpt>
      <trkpt lat="47.85767" lon="-3.54519">
        <ele>9.67</ele>
        <time>2020-07-08T11:11:48Z</time>
      </trkpt>
      <trkpt lat="47.85765" lon="-3.54521">
        <ele>9.89</ele>
        <time>2020-07-08T11:11:49Z</time>
      </trkpt>
      <trkpt lat="47.85762" lon="-3.54522">
        <ele>10.12</ele>
        <time>2020-07-08T11:11:50Z</time>
      </trkpt>
      <trkpt lat="47.8576" lon="-3.54524">
        <ele>10.23</ele>
        <time>2020-07-08T11:11:51Z</time>
      </trkpt>
      <trkpt lat="47.85756" lon="-3.54526">
        <ele>10.33</ele>
        <time>2020-07-08T11:11:52Z</time>
      </trkpt>
      <trkpt lat="47.85754" lon="-3.54529">
        <ele>10.37</ele>
        <time>2020-07-08T11:11:53Z</time>
      </trkpt>
      <trkpt lat="47.85751" lon="-3.5453">
        <ele>10.57</ele>
        <time>2020-07-08T11:11:54Z</time>
      </trkpt>
      <trkpt lat="47.85749" lon="-3.54533">
        <ele>10.82</ele>
        <time>2020-07-08T11:11:55Z</time>
      </trkpt>
      <trkpt lat="47.85745" lon="-3.54536">
        <ele>11.21</ele>
        <time>2020-07-08T11:11:56Z</time>
      </trkpt>
      <trkpt lat="47.85742" lon="-3.54538">
        <ele>11.54</ele>
        <time>2020-07-08T11:11:57Z</time>
      </trkpt>
      <trkpt lat="47.85739" lon="-3.5454">
        <ele>11.83</ele>
        <time>2020-07-08T11:11:58Z</time>
      </trkpt>
      <trkpt lat="47.85736" lon="-3.54543">
        <ele>12.09</ele>
        <time>2020-07-08T11:11:59Z</time>
      </trkpt>
      <trkpt lat="47.85732" lon="-3.54545">
        <ele>12.42</ele>
        <time>2020-07-08T11:12:00Z</time>
      </trkpt>
      <trkpt lat="47.85728" lon="-3.54547">
        <ele>12.7</ele>
        <time>2020-07-08T11:12:01Z</time>
      </trkpt>
      <trkpt lat="47.85725" lon="-3.54548">
        <ele>12.9</ele>
        <time>2020-07-08T11:12:02Z</time>
      </trkpt>
      <trkpt lat="47.85721" lon="-3.5455">
        <ele>13.09</ele>
        <time>2020-07-08T11:12:03Z</time>
      </trkpt>
      <trkpt lat="47.85718" lon="-3.54553">
        <ele>13.3</ele>
        <time>2020-07-08T11:12:04Z</time>
      </trkpt>
      <trkpt lat="47.85715" lon="-3.54557">
        <ele>13.71</ele>
        <time>2020-07-08T11:12:05Z</time>
      </trkpt>
      <trkpt lat="47.85711" lon="-3.5456">
        <ele>14.33</ele>
        <time>2020-07-08T11:12:06Z</time>
      </trkpt>
      <trkpt lat="47.85708" lon="-3.54564">
        <ele>14.74</ele>
        <time>2020-07-08T11:12:07Z</time>
      </trkpt>
      <trkpt lat="47.85706" lon="-3.54568">
        <ele>15</ele>
        <time>2020-07-08T11:12:08Z</time>
      </trkpt>
      <trkpt lat="47.85703" lon="-3.5457">
        <ele>15.23</ele>
        <time>2020-07-08T11:12:09Z</time>
      </trkpt>
      <trkpt lat="47.85702" lon="-3.54573">
        <ele>15.35</ele>
        <time>2020-07-08T11:12:10Z</time>
      </trkpt>
      <trkpt lat="47.857" lon="-3.54575">
        <ele>15.35</ele>
        <time>2020-07-08T11:12:11Z</time>
      </trkpt>
      <trkpt lat="47.85698" lon="-3.54578">
        <ele>15.32</ele>
        <time>2020-07-08T11:12:12Z</time>
      </trkpt>
      <trkpt lat="47.85696" lon="-3.5458">
        <ele>15.31</ele>
        <time>2020-07-08T11:12:13Z</time>
      </trkpt>
      <trkpt lat="47.85694" lon="-3.54582">
        <ele>15.37</ele>
        <time>2020-07-08T11:12:14Z</time>
      </trkpt>
      <trkpt lat="47.85692" lon="-3.54585">
        <ele>15.64</ele>
        <time>2020-07-08T11:12:15Z</time>
      </trkpt>
      <trkpt lat="47.8569" lon="-3.54588">
        <ele>16.06</ele>
        <time>2020-07-08T11:12:16Z</time>
      </trkpt>
      <trkpt lat="47.85687" lon="-3.5459">
        <ele>16.61</ele>
        <time>2020-07-08T11:12:17Z</time>
      </trkpt>
      <trkpt lat="47.85684" lon="-3.54592">
        <ele>17.23</ele>
        <time>2020-07-08T11:12:18Z</time>
      </trkpt>
      <trkpt lat="47.85682" lon="-3.54595">
        <ele>17.74</ele>
        <time>2020-07-08T11:12:19Z</time>
      </trkpt>
      <trkpt lat="47.85679" lon="-3.54597">
        <ele>18.21</ele>
        <time>2020-07-08T11:12:20Z</time>
      </trkpt>
      <trkpt lat="47.85676" lon="-3.54599">
        <ele>18.72</ele>
        <time>2020-07-08T11:12:21Z</time>
      </trkpt>
      <trkpt lat="47.85673" lon="-3.54601">
        <ele>19.11</ele>
        <time>2020-07-08T11:12:22Z</time>
      </trkpt>
      <trkpt lat="47.85672" lon="-3.54603">
        <ele>19.24</ele>
        <time>2020-07-08T11:12:23Z</time>
      </trkpt>
      <trkpt lat="47.85669" lon="-3.54605">
        <ele>19.41</ele>
        <time>2020-07-08T11:12:24Z</time>
      </trkpt>
      <trkpt lat="47.85667" lon="-3.54608">
        <ele>19.51</ele>
        <time>2020-07-08T11:12:25Z</time>
      </trkpt>
      <trkpt lat="47.85664" lon="-3.5461">
        <ele>19.63</ele>
        <time>2020-07-08T11:12:26Z</time>
      </trkpt>
      <trkpt lat="47.85662" lon="-3.54612">
        <ele>19.72</ele>
        <time>2020-07-08T11:12:27Z</time>
      </trkpt>
      <trkpt lat="47.8566" lon="-3.54613">
        <ele>19.89</ele>
        <time>2020-07-08T11:12:28Z</time>
      </trkpt>
      <trkpt lat="47.85659" lon="-3.54614">
        <ele>20.03</ele>
        <time>2020-07-08T11:12:29Z</time>
      </trkpt>
      <trkpt lat="47.85657" lon="-3.54616">
        <ele>20.08</ele>
        <time>2020-07-08T11:12:30Z</time>
      </trkpt>
      <trkpt lat="47.85654" lon="-3.54619">
        <ele>20.12</ele>
        <time>2020-07-08T11:12:31Z</time>
      </trkpt>
      <trkpt lat="47.85652" lon="-3.54622">
        <ele>20.05</ele>
        <time>2020-07-08T11:12:32Z</time>
      </trkpt>
      <trkpt lat="47.8565" lon="-3.54625">
        <ele>19.93</ele>
        <time>2020-07-08T11:12:33Z</time>
      </trkpt>
      <trkpt lat="47.85647" lon="-3.54628">
        <ele>19.89</ele>
        <time>2020-07-08T11:12:34Z</time>
      </trkpt>
      <trkpt lat="47.85644" lon="-3.54631">
        <ele>19.85</ele>
        <time>2020-07-08T11:12:35Z</time>
      </trkpt>
      <trkpt lat="47.8564" lon="-3.54633">
        <ele>19.86</ele>
        <time>2020-07-08T11:12:36Z</time>
      </trkpt>
      <trkpt lat="47.85638" lon="-3.54635">
        <ele>19.79</ele>
        <time>2020-07-08T11:12:37Z</time>
      </trkpt>
      <trkpt lat="47.85637" lon="-3.54638">
        <ele>19.75</ele>
        <time>2020-07-08T11:12:38Z</time>
      </trkpt>
      <trkpt lat="47.85634" lon="-3.5464">
        <ele>19.84</ele>
        <time>2020-07-08T11:12:39Z</time>
      </trkpt>
      <trkpt lat="47.85632" lon="-3.54643">
        <ele>20.12</ele>
        <time>2020-07-08T11:12:40Z</time>
      </trkpt>
      <trkpt lat="47.8563" lon="-3.54646">
        <ele>20.35</ele>
        <time>2020-07-08T11:12:41Z</time>
      </trkpt>
      <trkpt lat="47.85628" lon="-3.54649">
        <ele>20.62</ele>
        <time>2020-07-08T11:12:42Z</time>
      </trkpt>
      <trkpt lat="47.85626" lon="-3.54651">
        <ele>20.86</ele>
        <time>2020-07-08T11:12:43Z</time>
      </trkpt>
      <trkpt lat="47.85624" lon="-3.54653">
        <ele>21.13</ele>
        <time>2020-07-08T11:12:44Z</time>
      </trkpt>
      <trkpt lat="47.85621" lon="-3.54654">
        <ele>21.42</ele>
        <time>2020-07-08T11:12:45Z</time>
      </trkpt>
      <trkpt lat="47.85619" lon="-3.54654">
        <ele>21.86</ele>
        <time>2020-07-08T11:12:46Z</time>
      </trkpt>
      <trkpt lat="47.85615" lon="-3.54654">
        <ele>22.44</ele>
        <time>2020-07-08T11:12:47Z</time>
      </trkpt>
      <trkpt lat="47.85612" lon="-3.54654">
        <ele>22.97</ele>
        <time>2020-07-08T11:12:48Z</time>
      </trkpt>
      <trkpt lat="47.85608" lon="-3.54655">
        <ele>23.43</ele>
        <time>2020-07-08T11:12:49Z</time>
      </trkpt>
      <trkpt lat="47.85605" lon="-3.54657">
        <ele>23.8</ele>
        <time>2020-07-08T11:12:50Z</time>
      </trkpt>
      <trkpt lat="47.85602" lon="-3.54658">
        <ele>24.18</ele>
        <time>2020-07-08T11:12:51Z</time>
      </trkpt>
      <trkpt lat="47.85598" lon="-3.54659">
        <ele>24.55</ele>
        <time>2020-07-08T11:12:52Z</time>
      </trkpt>
      <trkpt lat="47.85595" lon="-3.5466">
        <ele>24.94</ele>
        <time>2020-07-08T11:12:53Z</time>
      </trkpt>
      <trkpt lat="47.85591" lon="-3.54661">
        <ele>25.38</ele>
        <time>2020-07-08T11:12:54Z</time>
      </trkpt>
      <trkpt lat="47.85587" lon="-3.54663">
        <ele>25.76</ele>
        <time>2020-07-08T11:12:55Z</time>
      </trkpt>
      <trkpt lat="47.85582" lon="-3.54665">
        <ele>26.15</ele>
        <time>2020-07-08T11:12:56Z</time>
      </trkpt>
      <trkpt lat="47.85578" lon="-3.54667">
        <ele>26.53</ele>
        <time>2020-07-08T11:12:57Z</time>
      </trkpt>
      <trkpt lat="47.85575" lon="-3.54669">
        <ele>26.82</ele>
        <time>2020-07-08T11:12:58Z</time>
      </trkpt>
      <trkpt lat="47.85571" lon="-3.54671">
        <ele>27.12</ele>
        <time>2020-07-08T11:12:59Z</time>
      </trkpt>
      <trkpt lat="47.85567" lon="-3.54672">
        <ele>27.44</ele>
        <time>2020-07-08T11:13:00Z</time>
      </trkpt>
      <trkpt lat="47.85563" lon="-3.54674">
        <ele>27.69</ele>
        <time>2020-07-08T11:13:01Z</time>
      </trkpt>
      <trkpt lat="47.8556" lon="-3.54676">
        <ele>27.9</ele>
        <time>2020-07-08T11:13:02Z</time>
      </trkpt>
      <trkpt lat="47.85558" lon="-3.54678">
        <ele>28.03</ele>
        <time>2020-07-08T11:13:03Z</time>
      </trkpt>
      <trkpt lat="47.85555" lon="-3.5468">
        <ele>28.09</ele>
        <time>2020-07-08T11:13:04Z</time>
      </trkpt>
      <trkpt lat="47.85553" lon="-3.54681">
        <ele>28.13</ele>
        <time>2020-07-08T11:13:05Z</time>
      </trkpt>
      <trkpt lat="47.85551" lon="-3.54683">
        <ele>28.16</ele>
        <time>2020-07-08T11:13:06Z</time>
      </trkpt>
      <trkpt lat="47.85548" lon="-3.54685">
        <ele>28.22</ele>
        <time>2020-07-08T11:13:07Z</time>
      </trkpt>
      <trkpt lat="47.85545" lon="-3.54687">
        <ele>28.27</ele>
        <time>2020-07-08T11:13:08Z</time>
      </trkpt>
      <trkpt lat="47.85543" lon="-3.5469">
        <ele>28.27</ele>
        <time>2020-07-08T11:13:09Z</time>
      </trkpt>
      <trkpt lat="47.85541" lon="-3.54694">
        <ele>28.24</ele>
        <time>2020-07-08T11:13:10Z</time>
      </trkpt>
      <trkpt lat="47.85538" lon="-3.54697">
        <ele>28.22</ele>
        <time>2020-07-08T11:13:11Z</time>
      </trkpt>
      <trkpt lat="47.85535" lon="-3.54701">
        <ele>28.07</ele>
        <time>2020-07-08T11:13:12Z</time>
      </trkpt>
      <trkpt lat="47.85533" lon="-3.54705">
        <ele>27.93</ele>
        <time>2020-07-08T11:13:13Z</time>
      </trkpt>
      <trkpt lat="47.85529" lon="-3.54709">
        <ele>27.84</ele>
        <time>2020-07-08T11:13:14Z</time>
      </trkpt>
      <trkpt lat="47.85525" lon="-3.54713">
        <ele>27.63</ele>
        <time>2020-07-08T11:13:15Z</time>
      </trkpt>
      <trkpt lat="47.85522" lon="-3.54717">
        <ele>27.36</ele>
        <time>2020-07-08T11:13:16Z</time>
      </trkpt>
      <trkpt lat="47.85519" lon="-3.54721">
        <ele>27.23</ele>
        <time>2020-07-08T11:13:17Z</time>
      </trkpt>
      <trkpt lat="47.85515" lon="-3.54724">
        <ele>27.07</ele>
        <time>2020-07-08T11:13:18Z</time>
      </trkpt>
      <trkpt lat="47.85513" lon="-3.54729">
        <ele>26.75</ele>
        <time>2020-07-08T11:13:19Z</time>
      </trkpt>
      <trkpt lat="47.85509" lon="-3.54732">
        <ele>26.52</ele>
        <time>2020-07-08T11:13:20Z</time>
      </trkpt>
      <trkpt lat="47.85506" lon="-3.54734">
        <ele>26.43</ele>
        <time>2020-07-08T11:13:21Z</time>
      </trkpt>
      <trkpt lat="47.85502" lon="-3.54736">
        <ele>26.41</ele>
        <time>2020-07-08T11:13:22Z</time>
      </trkpt>
      <trkpt lat="47.85498" lon="-3.54737">
        <ele>26.43</ele>
        <time>2020-07-08T11:13:23Z</time>
      </trkpt>
      <trkpt lat="47.85495" lon="-3.54738">
        <ele>26.33</ele>
        <time>2020-07-08T11:13:24Z</time>
      </trkpt>
      <trkpt lat="47.85492" lon="-3.54739">
        <ele>26.25</ele>
        <time>2020-07-08T11:13:25Z</time>
      </trkpt>
      <trkpt lat="47.85488" lon="-3.54739">
        <ele>26.21</ele>
        <time>2020-07-08T11:13:26Z</time>
      </trkpt>
      <trkpt lat="47.85484" lon="-3.54739">
        <ele>26.29</ele>
        <time>2020-07-08T11:13:27Z</time>
      </trkpt>
      <trkpt lat="47.85481" lon="-3.54738">
        <ele>26.43</ele>
        <time>2020-07-08T11:13:28Z</time>
      </trkpt>
      <trkpt lat="47.85478" lon="-3.54737">
        <ele>26.63</ele>
        <time>2020-07-08T11:13:29Z</time>
      </trkpt>
      <trkpt lat="47.85475" lon="-3.54736">
        <ele>26.91</ele>
        <time>2020-07-08T11:13:30Z</time>
      </trkpt>
      <trkpt lat="47.85473" lon="-3.54733">
        <ele>27.23</ele>
        <time>2020-07-08T11:13:31Z</time>
      </trkpt>
      <trkpt lat="47.8547" lon="-3.54731">
        <ele>27.65</ele>
        <time>2020-07-08T11:13:32Z</time>
      </trkpt>
      <trkpt lat="47.85467" lon="-3.54729">
        <ele>28.09</ele>
        <time>2020-07-08T11:13:33Z</time>
      </trkpt>
      <trkpt lat="47.85464" lon="-3.54726">
        <ele>28.61</ele>
        <time>2020-07-08T11:13:34Z</time>
      </trkpt>
      <trkpt lat="47.85461" lon="-3.54723">
        <ele>29.1</ele>
        <time>2020-07-08T11:13:35Z</time>
      </trkpt>
      <trkpt lat="47.85459" lon="-3.54719">
        <ele>29.56</ele>
        <time>2020-07-08T11:13:36Z</time>
      </trkpt>
      <trkpt lat="47.85457" lon="-3.54715">
        <ele>29.98</ele>
        <time>2020-07-08T11:13:37Z</time>
      </trkpt>
      <trkpt lat="47.85455" lon="-3.54712">
        <ele>30.35</ele>
        <time>2020-07-08T11:13:38Z</time>
      </trkpt>
      <trkpt lat="47.85453" lon="-3.54707">
        <ele>30.77</ele>
        <time>2020-07-08T11:13:39Z</time>
      </trkpt>
      <trkpt lat="47.85452" lon="-3.54703">
        <ele>31.12</ele>
        <time>2020-07-08T11:13:40Z</time>
      </trkpt>
      <trkpt lat="47.85451" lon="-3.547">
        <ele>31.45</ele>
        <time>2020-07-08T11:13:41Z</time>
      </trkpt>
      <trkpt lat="47.8545" lon="-3.54695">
        <ele>31.79</ele>
        <time>2020-07-08T11:13:42Z</time>
      </trkpt>
      <trkpt lat="47.85449" lon="-3.54691">
        <ele>32.02</ele>
        <time>2020-07-08T11:13:43Z</time>
      </trkpt>
      <trkpt lat="47.85449" lon="-3.54687">
        <ele>32.2</ele>
        <time>2020-07-08T11:13:44Z</time>
      </trkpt>
      <trkpt lat="47.85448" lon="-3.54682">
        <ele>32.37</ele>
        <time>2020-07-08T11:13:45Z</time>
      </trkpt>
      <trkpt lat="47.85447" lon="-3.54677">
        <ele>32.54</ele>
        <time>2020-07-08T11:13:46Z</time>
      </trkpt>
      <trkpt lat="47.85447" lon="-3.54673">
        <ele>32.69</ele>
        <time>2020-07-08T11:13:47Z</time>
      </trkpt>
      <trkpt lat="47.85446" lon="-3.54669">
        <ele>32.84</ele>
        <time>2020-07-08T11:13:48Z</time>
      </trkpt>
      <trkpt lat="47.85445" lon="-3.54664">
        <ele>32.95</ele>
        <time>2020-07-08T11:13:49Z</time>
      </trkpt>
      <trkpt lat="47.85444" lon="-3.5466">
        <ele>32.99</ele>
        <time>2020-07-08T11:13:50Z</time>
      </trkpt>
      <trkpt lat="47.85444" lon="-3.54655">
        <ele>33.01</ele>
        <time>2020-07-08T11:13:51Z</time>
      </trkpt>
      <trkpt lat="47.85444" lon="-3.54652">
        <ele>33.02</ele>
        <time>2020-07-08T11:13:52Z</time>
      </trkpt>
      <trkpt lat="47.85443" lon="-3.54648">
        <ele>33.06</ele>
        <time>2020-07-08T11:13:53Z</time>
      </trkpt>
      <trkpt lat="47.85443" lon="-3.54643">
        <ele>33.11</ele>
        <time>2020-07-08T11:13:54Z</time>
      </trkpt>
      <trkpt lat="47.85442" lon="-3.54638">
        <ele>33.19</ele>
        <time>2020-07-08T11:13:55Z</time>
      </trkpt>
      <trkpt lat="47.85441" lon="-3.54633">
        <ele>33.38</ele>
        <time>2020-07-08T11:13:56Z</time>
      </trkpt>
      <trkpt lat="47.8544" lon="-3.54628">
        <ele>33.57</ele>
        <time>2020-07-08T11:13:57Z</time>
      </trkpt>
      <trkpt lat="47.8544" lon="-3.54624">
        <ele>33.79</ele>
        <time>2020-07-08T11:13:58Z</time>
      </trkpt>
      <trkpt lat="47.8544" lon="-3.54619">
        <ele>33.98</ele>
        <time>2020-07-08T11:13:59Z</time>
      </trkpt>
      <trkpt lat="47.85439" lon="-3.54615">
        <ele>34.16</ele>
        <time>2020-07-08T11:14:00Z</time>
      </trkpt>
      <trkpt lat="47.85439" lon="-3.5461">
        <ele>34.37</ele>
        <time>2020-07-08T11:14:01Z</time>
      </trkpt>
      <trkpt lat="47.85439" lon="-3.54606">
        <ele>34.67</ele>
        <time>2020-07-08T11:14:02Z</time>
      </trkpt>
      <trkpt lat="47.85439" lon="-3.54601">
        <ele>34.98</ele>
        <time>2020-07-08T11:14:03Z</time>
      </trkpt>
      <trkpt lat="47.85439" lon="-3.54597">
        <ele>35.3</ele>
        <time>2020-07-08T11:14:04Z</time>
      </trkpt>
      <trkpt lat="47.85439" lon="-3.54593">
        <ele>35.62</ele>
        <time>2020-07-08T11:14:05Z</time>
      </trkpt>
      <trkpt lat="47.85438" lon="-3.54588">
        <ele>35.95</ele>
        <time>2020-07-08T11:14:06Z</time>
      </trkpt>
      <trkpt lat="47.85438" lon="-3.54584">
        <ele>36.28</ele>
        <time>2020-07-08T11:14:07Z</time>
      </trkpt>
      <trkpt lat="47.85437" lon="-3.5458">
        <ele>36.69</ele>
        <time>2020-07-08T11:14:08Z</time>
      </trkpt>
      <trkpt lat="47.85436" lon="-3.54576">
        <ele>37.13</ele>
        <time>2020-07-08T11:14:09Z</time>
      </trkpt>
      <trkpt lat="47.85436" lon="-3.54572">
        <ele>37.53</ele>
        <time>2020-07-08T11:14:10Z</time>
      </trkpt>
      <trkpt lat="47.85435" lon="-3.54568">
        <ele>37.95</ele>
        <time>2020-07-08T11:14:11Z</time>
      </trkpt>
      <trkpt lat="47.85434" lon="-3.54564">
        <ele>38.37</ele>
        <time>2020-07-08T11:14:12Z</time>
      </trkpt>
      <trkpt lat="47.85433" lon="-3.5456">
        <ele>38.8</ele>
        <time>2020-07-08T11:14:13Z</time>
      </trkpt>
      <trkpt lat="47.85432" lon="-3.54556">
        <ele>39.23</ele>
        <time>2020-07-08T11:14:14Z</time>
      </trkpt>
      <trkpt lat="47.85432" lon="-3.54552">
        <ele>39.64</ele>
        <time>2020-07-08T11:14:15Z</time>
      </trkpt>
      <trkpt lat="47.85431" lon="-3.54548">
        <ele>40.02</ele>
        <time>2020-07-08T11:14:16Z</time>
      </trkpt>
      <trkpt lat="47.85431" lon="-3.54544">
        <ele>40.4</ele>
        <time>2020-07-08T11:14:17Z</time>
      </trkpt>
      <trkpt lat="47.8543" lon="-3.5454">
        <ele>40.79</ele>
        <time>2020-07-08T11:14:18Z</time>
      </trkpt>
      <trkpt lat="47.85429" lon="-3.54536">
        <ele>41.12</ele>
        <time>2020-07-08T11:14:19Z</time>
      </trkpt>
      <trkpt lat="47.85428" lon="-3.54533">
        <ele>41.45</ele>
        <time>2020-07-08T11:14:20Z</time>
      </trkpt>
      <trkpt lat="47.85427" lon="-3.54529">
        <ele>41.78</ele>
        <time>2020-07-08T11:14:21Z</time>
      </trkpt>
      <trkpt lat="47.85426" lon="-3.54526">
        <ele>42.02</ele>
        <time>2020-07-08T11:14:22Z</time>
      </trkpt>
      <trkpt lat="47.85424" lon="-3.54523">
        <ele>42.22</ele>
        <time>2020-07-08T11:14:23Z</time>
      </trkpt>
      <trkpt lat="47.85422" lon="-3.54521">
        <ele>42.4</ele>
        <time>2020-07-08T11:14:24Z</time>
      </trkpt>
      <trkpt lat="47.8542" lon="-3.54519">
        <ele>42.58</ele>
        <time>2020-07-08T11:14:25Z</time>
      </trkpt>
      <trkpt lat="47.85417" lon="-3.54517">
        <ele>42.73</ele>
        <time>2020-07-08T11:14:26Z</time>
      </trkpt>
      <trkpt lat="47.85414" lon="-3.54515">
        <ele>42.91</ele>
        <time>2020-07-08T11:14:27Z</time>
      </trkpt>
      <trkpt lat="47.85412" lon="-3.54513">
        <ele>43.11</ele>
        <time>2020-07-08T11:14:28Z</time>
      </trkpt>
      <trkpt lat="47.85409" lon="-3.54512">
        <ele>43.31</ele>
        <time>2020-07-08T11:14:29Z</time>
      </trkpt>
      <trkpt lat="47.85405" lon="-3.54511">
        <ele>43.5</ele>
        <time>2020-07-08T11:14:30Z</time>
      </trkpt>
      <trkpt lat="47.85402" lon="-3.5451">
        <ele>43.71</ele>
        <time>2020-07-08T11:14:31Z</time>
      </trkpt>
      <trkpt lat="47.85399" lon="-3.54509">
        <ele>43.93</ele>
        <time>2020-07-08T11:14:32Z</time>
      </trkpt>
      <trkpt lat="47.85396" lon="-3.54507">
        <ele>44.15</ele>
        <time>2020-07-08T11:14:33Z</time>
      </trkpt>
      <trkpt lat="47.85392" lon="-3.54506">
        <ele>44.36</ele>
        <time>2020-07-08T11:14:34Z</time>
      </trkpt>
      <trkpt lat="47.85389" lon="-3.54504">
        <ele>44.59</ele>
        <time>2020-07-08T11:14:35Z</time>
      </trkpt>
      <trkpt lat="47.85387" lon="-3.54503">
        <ele>44.84</ele>
        <time>2020-07-08T11:14:36Z</time>
      </trkpt>
      <trkpt lat="47.85384" lon="-3.54501">
        <ele>45.13</ele>
        <time>2020-07-08T11:14:37Z</time>
      </trkpt>
      <trkpt lat="47.85381" lon="-3.545">
        <ele>45.41</ele>
        <time>2020-07-08T11:14:38Z</time>
      </trkpt>
      <trkpt lat="47.85379" lon="-3.54498">
        <ele>45.62</ele>
        <time>2020-07-08T11:14:39Z</time>
      </trkpt>
      <trkpt lat="47.85377" lon="-3.54497">
        <ele>45.81</ele>
        <time>2020-07-08T11:14:40Z</time>
      </trkpt>
      <trkpt lat="47.85375" lon="-3.54496">
        <ele>45.99</ele>
        <time>2020-07-08T11:14:41Z</time>
      </trkpt>
      <trkpt lat="47.85373" lon="-3.54496">
        <ele>46.17</ele>
        <time>2020-07-08T11:14:42Z</time>
      </trkpt>
      <trkpt lat="47.85371" lon="-3.54496">
        <ele>46.35</ele>
        <time>2020-07-08T11:14:43Z</time>
      </trkpt>
      <trkpt lat="47.85368" lon="-3.54495">
        <ele>46.54</ele>
        <time>2020-07-08T11:14:44Z</time>
      </trkpt>
      <trkpt lat="47.85366" lon="-3.54494">
        <ele>46.73</ele>
        <time>2020-07-08T11:14:45Z</time>
      </trkpt>
      <trkpt lat="47.85364" lon="-3.54493">
        <ele>46.92</ele>
        <time>2020-07-08T11:14:46Z</time>
      </trkpt>
      <trkpt lat="47.85362" lon="-3.54491">
        <ele>47.11</ele>
        <time>2020-07-08T11:14:47Z</time>
      </trkpt>
      <trkpt lat="47.85361" lon="-3.5449">
        <ele>47.31</ele>
        <time>2020-07-08T11:14:48Z</time>
      </trkpt>
      <trkpt lat="47.85358" lon="-3.54488">
        <ele>47.55</ele>
        <time>2020-07-08T11:14:49Z</time>
      </trkpt>
      <trkpt lat="47.85355" lon="-3.54487">
        <ele>47.81</ele>
        <time>2020-07-08T11:14:50Z</time>
      </trkpt>
      <trkpt lat="47.85352" lon="-3.54486">
        <ele>48.04</ele>
        <time>2020-07-08T11:14:51Z</time>
      </trkpt>
      <trkpt lat="47.8535" lon="-3.54484">
        <ele>48.27</ele>
        <time>2020-07-08T11:14:52Z</time>
      </trkpt>
      <trkpt lat="47.85347" lon="-3.54483">
        <ele>48.52</ele>
        <time>2020-07-08T11:14:53Z</time>
      </trkpt>
      <trkpt lat="47.85344" lon="-3.54482">
        <ele>48.78</ele>
        <time>2020-07-08T11:14:54Z</time>
      </trkpt>
      <trkpt lat="47.85341" lon="-3.5448">
        <ele>49.06</ele>
        <time>2020-07-08T11:14:55Z</time>
      </trkpt>
      <trkpt lat="47.85338" lon="-3.54478">
        <ele>49.32</ele>
        <time>2020-07-08T11:14:56Z</time>
      </trkpt>
      <trkpt lat="47.85335" lon="-3.54476">
        <ele>49.6</ele>
        <time>2020-07-08T11:14:57Z</time>
      </trkpt>
      <trkpt lat="47.85334" lon="-3.54473">
        <ele>49.81</ele>
        <time>2020-07-08T11:14:58Z</time>
      </trkpt>
      <trkpt lat="47.85333" lon="-3.54471">
        <ele>49.94</ele>
        <time>2020-07-08T11:14:59Z</time>
      </trkpt>
      <trkpt lat="47.85332" lon="-3.54468">
        <ele>50.07</ele>
        <time>2020-07-08T11:15:00Z</time>
      </trkpt>
      <trkpt lat="47.8533" lon="-3.54464">
        <ele>50.2</ele>
        <time>2020-07-08T11:15:01Z</time>
      </trkpt>
      <trkpt lat="47.85328" lon="-3.54462">
        <ele>50.34</ele>
        <time>2020-07-08T11:15:02Z</time>
      </trkpt>
      <trkpt lat="47.85326" lon="-3.54459">
        <ele>50.49</ele>
        <time>2020-07-08T11:15:03Z</time>
      </trkpt>
      <trkpt lat="47.85323" lon="-3.54457">
        <ele>50.64</ele>
        <time>2020-07-08T11:15:04Z</time>
      </trkpt>
      <trkpt lat="47.85322" lon="-3.54454">
        <ele>50.78</ele>
        <time>2020-07-08T11:15:05Z</time>
      </trkpt>
      <trkpt lat="47.85319" lon="-3.5445">
        <ele>50.96</ele>
        <time>2020-07-08T11:15:06Z</time>
      </trkpt>
      <trkpt lat="47.85317" lon="-3.54446">
        <ele>51.12</ele>
        <time>2020-07-08T11:15:07Z</time>
      </trkpt>
      <trkpt lat="47.85315" lon="-3.54443">
        <ele>51.24</ele>
        <time>2020-07-08T11:15:08Z</time>
      </trkpt>
      <trkpt lat="47.85313" lon="-3.54439">
        <ele>51.29</ele>
        <time>2020-07-08T11:15:09Z</time>
      </trkpt>
      <trkpt lat="47.85311" lon="-3.54435">
        <ele>51.32</ele>
        <time>2020-07-08T11:15:10Z</time>
      </trkpt>
      <trkpt lat="47.85309" lon="-3.54431">
        <ele>51.32</ele>
        <time>2020-07-08T11:15:11Z</time>
      </trkpt>
      <trkpt lat="47.85307" lon="-3.54427">
        <ele>51.29</ele>
        <time>2020-07-08T11:15:12Z</time>
      </trkpt>
      <trkpt lat="47.85305" lon="-3.54422">
        <ele>51.25</ele>
        <time>2020-07-08T11:15:13Z</time>
      </trkpt>
      <trkpt lat="47.85302" lon="-3.54419">
        <ele>51.21</ele>
        <time>2020-07-08T11:15:14Z</time>
      </trkpt>
      <trkpt lat="47.853" lon="-3.54415">
        <ele>51.2</ele>
        <time>2020-07-08T11:15:15Z</time>
      </trkpt>
      <trkpt lat="47.85298" lon="-3.54411">
        <ele>51.25</ele>
        <time>2020-07-08T11:15:16Z</time>
      </trkpt>
      <trkpt lat="47.85296" lon="-3.54407">
        <ele>51.32</ele>
        <time>2020-07-08T11:15:17Z</time>
      </trkpt>
      <trkpt lat="47.85293" lon="-3.54402">
        <ele>51.41</ele>
        <time>2020-07-08T11:15:18Z</time>
      </trkpt>
      <trkpt lat="47.85291" lon="-3.54398">
        <ele>51.5</ele>
        <time>2020-07-08T11:15:19Z</time>
      </trkpt>
      <trkpt lat="47.85289" lon="-3.54394">
        <ele>51.58</ele>
        <time>2020-07-08T11:15:20Z</time>
      </trkpt>
      <trkpt lat="47.85287" lon="-3.54391">
        <ele>51.64</ele>
        <time>2020-07-08T11:15:21Z</time>
      </trkpt>
      <trkpt lat="47.85286" lon="-3.54387">
        <ele>51.66</ele>
        <time>2020-07-08T11:15:22Z</time>
      </trkpt>
      <trkpt lat="47.85286" lon="-3.54384">
        <ele>51.58</ele>
        <time>2020-07-08T11:15:23Z</time>
      </trkpt>
      <trkpt lat="47.85286" lon="-3.5438">
        <ele>51.45</ele>
        <time>2020-07-08T11:15:24Z</time>
      </trkpt>
      <trkpt lat="47.85287" lon="-3.54376">
        <ele>51.29</ele>
        <time>2020-07-08T11:15:25Z</time>
      </trkpt>
      <trkpt lat="47.85288" lon="-3.54372">
        <ele>51.11</ele>
        <time>2020-07-08T11:15:26Z</time>
      </trkpt>
      <trkpt lat="47.85289" lon="-3.54368">
        <ele>50.92</ele>
        <time>2020-07-08T11:15:27Z</time>
      </trkpt>
      <trkpt lat="47.8529" lon="-3.54363">
        <ele>50.71</ele>
        <time>2020-07-08T11:15:28Z</time>
      </trkpt>
      <trkpt lat="47.85292" lon="-3.54358">
        <ele>50.55</ele>
        <time>2020-07-08T11:15:29Z</time>
      </trkpt>
      <trkpt lat="47.85293" lon="-3.54352">
        <ele>50.47</ele>
        <time>2020-07-08T11:15:30Z</time>
      </trkpt>
      <trkpt lat="47.85295" lon="-3.54346">
        <ele>50.41</ele>
        <time>2020-07-08T11:15:31Z</time>
      </trkpt>
      <trkpt lat="47.85296" lon="-3.5434">
        <ele>50.36</ele>
        <time>2020-07-08T11:15:32Z</time>
      </trkpt>
      <trkpt lat="47.85298" lon="-3.54333">
        <ele>50.29</ele>
        <time>2020-07-08T11:15:33Z</time>
      </trkpt>
      <trkpt lat="47.853" lon="-3.54327">
        <ele>50.22</ele>
        <time>2020-07-08T11:15:34Z</time>
      </trkpt>
      <trkpt lat="47.85302" lon="-3.54319">
        <ele>50.15</ele>
        <time>2020-07-08T11:15:35Z</time>
      </trkpt>
      <trkpt lat="47.85304" lon="-3.54313">
        <ele>50.08</ele>
        <time>2020-07-08T11:15:36Z</time>
      </trkpt>
      <trkpt lat="47.85306" lon="-3.54306">
        <ele>49.98</ele>
        <time>2020-07-08T11:15:37Z</time>
      </trkpt>
      <trkpt lat="47.85309" lon="-3.54299">
        <ele>49.67</ele>
        <time>2020-07-08T11:15:38Z</time>
      </trkpt>
      <trkpt lat="47.85311" lon="-3.54291">
        <ele>49.33</ele>
        <time>2020-07-08T11:15:39Z</time>
      </trkpt>
      <trkpt lat="47.85314" lon="-3.54284">
        <ele>49.01</ele>
        <time>2020-07-08T11:15:40Z</time>
      </trkpt>
      <trkpt lat="47.85316" lon="-3.54277">
        <ele>48.73</ele>
        <time>2020-07-08T11:15:41Z</time>
      </trkpt>
      <trkpt lat="47.85318" lon="-3.5427">
        <ele>48.52</ele>
        <time>2020-07-08T11:15:42Z</time>
      </trkpt>
      <trkpt lat="47.85321" lon="-3.54263">
        <ele>48.27</ele>
        <time>2020-07-08T11:15:43Z</time>
      </trkpt>
      <trkpt lat="47.85323" lon="-3.54257">
        <ele>48</ele>
        <time>2020-07-08T11:15:44Z</time>
      </trkpt>
      <trkpt lat="47.85325" lon="-3.5425">
        <ele>47.71</ele>
        <time>2020-07-08T11:15:45Z</time>
      </trkpt>
      <trkpt lat="47.85327" lon="-3.54244">
        <ele>47.48</ele>
        <time>2020-07-08T11:15:46Z</time>
      </trkpt>
      <trkpt lat="47.85329" lon="-3.54237">
        <ele>47.3</ele>
        <time>2020-07-08T11:15:47Z</time>
      </trkpt>
      <trkpt lat="47.85331" lon="-3.54231">
        <ele>47.17</ele>
        <time>2020-07-08T11:15:48Z</time>
      </trkpt>
      <trkpt lat="47.85333" lon="-3.54224">
        <ele>47.06</ele>
        <time>2020-07-08T11:15:49Z</time>
      </trkpt>
      <trkpt lat="47.85335" lon="-3.54217">
        <ele>46.7</ele>
        <time>2020-07-08T11:15:50Z</time>
      </trkpt>
      <trkpt lat="47.85336" lon="-3.5421">
        <ele>46.18</ele>
        <time>2020-07-08T11:15:51Z</time>
      </trkpt>
      <trkpt lat="47.85338" lon="-3.54202">
        <ele>45.6</ele>
        <time>2020-07-08T11:15:52Z</time>
      </trkpt>
      <trkpt lat="47.8534" lon="-3.54195">
        <ele>45.01</ele>
        <time>2020-07-08T11:15:53Z</time>
      </trkpt>
      <trkpt lat="47.85342" lon="-3.54186">
        <ele>44.58</ele>
        <time>2020-07-08T11:15:54Z</time>
      </trkpt>
      <trkpt lat="47.85343" lon="-3.54177">
        <ele>44.19</ele>
        <time>2020-07-08T11:15:55Z</time>
      </trkpt>
      <trkpt lat="47.85344" lon="-3.54168">
        <ele>43.82</ele>
        <time>2020-07-08T11:15:56Z</time>
      </trkpt>
      <trkpt lat="47.85344" lon="-3.54158">
        <ele>43.53</ele>
        <time>2020-07-08T11:15:57Z</time>
      </trkpt>
      <trkpt lat="47.85345" lon="-3.54149">
        <ele>43.3</ele>
        <time>2020-07-08T11:15:58Z</time>
      </trkpt>
      <trkpt lat="47.85345" lon="-3.54139">
        <ele>43.1</ele>
        <time>2020-07-08T11:15:59Z</time>
      </trkpt>
      <trkpt lat="47.85347" lon="-3.5413">
        <ele>43.14</ele>
        <time>2020-07-08T11:16:00Z</time>
      </trkpt>
      <trkpt lat="47.85348" lon="-3.54121">
        <ele>43.25</ele>
        <time>2020-07-08T11:16:01Z</time>
      </trkpt>
      <trkpt lat="47.85349" lon="-3.54113">
        <ele>43.36</ele>
        <time>2020-07-08T11:16:02Z</time>
      </trkpt>
      <trkpt lat="47.8535" lon="-3.54104">
        <ele>43.74</ele>
        <time>2020-07-08T11:16:03Z</time>
      </trkpt>
      <trkpt lat="47.8535" lon="-3.54097">
        <ele>44.21</ele>
        <time>2020-07-08T11:16:04Z</time>
      </trkpt>
      <trkpt lat="47.85351" lon="-3.5409">
        <ele>44.71</ele>
        <time>2020-07-08T11:16:05Z</time>
      </trkpt>
      <trkpt lat="47.85351" lon="-3.54083">
        <ele>45.19</ele>
        <time>2020-07-08T11:16:06Z</time>
      </trkpt>
      <trkpt lat="47.85351" lon="-3.54077">
        <ele>45.79</ele>
        <time>2020-07-08T11:16:07Z</time>
      </trkpt>
      <trkpt lat="47.85351" lon="-3.54072">
        <ele>46.34</ele>
        <time>2020-07-08T11:16:08Z</time>
      </trkpt>
      <trkpt lat="47.8535" lon="-3.54068">
        <ele>46.85</ele>
        <time>2020-07-08T11:16:09Z</time>
      </trkpt>
      <trkpt lat="47.85348" lon="-3.54064">
        <ele>47.33</ele>
        <time>2020-07-08T11:16:10Z</time>
      </trkpt>
      <trkpt lat="47.85347" lon="-3.54061">
        <ele>47.78</ele>
        <time>2020-07-08T11:16:11Z</time>
      </trkpt>
      <trkpt lat="47.85344" lon="-3.54058">
        <ele>48.2</ele>
        <time>2020-07-08T11:16:12Z</time>
      </trkpt>
      <trkpt lat="47.85343" lon="-3.54055">
        <ele>48.58</ele>
        <time>2020-07-08T11:16:13Z</time>
      </trkpt>
      <trkpt lat="47.85342" lon="-3.54053">
        <ele>48.85</ele>
        <time>2020-07-08T11:16:14Z</time>
      </trkpt>
      <trkpt lat="47.85341" lon="-3.54051">
        <ele>49.09</ele>
        <time>2020-07-08T11:16:15Z</time>
      </trkpt>
      <trkpt lat="47.85339" lon="-3.54049">
        <ele>49.35</ele>
        <time>2020-07-08T11:16:16Z</time>
      </trkpt>
      <trkpt lat="47.85337" lon="-3.54047">
        <ele>49.6</ele>
        <time>2020-07-08T11:16:17Z</time>
      </trkpt>
      <trkpt lat="47.85336" lon="-3.54046">
        <ele>49.84</ele>
        <time>2020-07-08T11:16:18Z</time>
      </trkpt>
      <trkpt lat="47.85333" lon="-3.54044">
        <ele>50.11</ele>
        <time>2020-07-08T11:16:19Z</time>
      </trkpt>
      <trkpt lat="47.85331" lon="-3.54043">
        <ele>50.24</ele>
        <time>2020-07-08T11:16:20Z</time>
      </trkpt>
      <trkpt lat="47.85328" lon="-3.54041">
        <ele>50.37</ele>
        <time>2020-07-08T11:16:21Z</time>
      </trkpt>
      <trkpt lat="47.85326" lon="-3.5404">
        <ele>50.5</ele>
        <time>2020-07-08T11:16:22Z</time>
      </trkpt>
      <trkpt lat="47.85323" lon="-3.54038">
        <ele>50.61</ele>
        <time>2020-07-08T11:16:23Z</time>
      </trkpt>
      <trkpt lat="47.8532" lon="-3.54036">
        <ele>50.74</ele>
        <time>2020-07-08T11:16:24Z</time>
      </trkpt>
      <trkpt lat="47.85318" lon="-3.54034">
        <ele>50.87</ele>
        <time>2020-07-08T11:16:25Z</time>
      </trkpt>
      <trkpt lat="47.85315" lon="-3.54031">
        <ele>50.98</ele>
        <time>2020-07-08T11:16:26Z</time>
      </trkpt>
      <trkpt lat="47.85312" lon="-3.5403">
        <ele>51.04</ele>
        <time>2020-07-08T11:16:27Z</time>
      </trkpt>
      <trkpt lat="47.85308" lon="-3.54028">
        <ele>51.08</ele>
        <time>2020-07-08T11:16:28Z</time>
      </trkpt>
      <trkpt lat="47.85305" lon="-3.54026">
        <ele>51.16</ele>
        <time>2020-07-08T11:16:29Z</time>
      </trkpt>
      <trkpt lat="47.85302" lon="-3.54024">
        <ele>51.37</ele>
        <time>2020-07-08T11:16:30Z</time>
      </trkpt>
      <trkpt lat="47.85299" lon="-3.54021">
        <ele>51.62</ele>
        <time>2020-07-08T11:16:31Z</time>
      </trkpt>
      <trkpt lat="47.85296" lon="-3.54018">
        <ele>51.91</ele>
        <time>2020-07-08T11:16:32Z</time>
      </trkpt>
      <trkpt lat="47.85293" lon="-3.54015">
        <ele>52.23</ele>
        <time>2020-07-08T11:16:33Z</time>
      </trkpt>
      <trkpt lat="47.85291" lon="-3.54013">
        <ele>52.5</ele>
        <time>2020-07-08T11:16:34Z</time>
      </trkpt>
      <trkpt lat="47.85288" lon="-3.54011">
        <ele>52.76</ele>
        <time>2020-07-08T11:16:35Z</time>
      </trkpt>
      <trkpt lat="47.85285" lon="-3.54008">
        <ele>53</ele>
        <time>2020-07-08T11:16:36Z</time>
      </trkpt>
      <trkpt lat="47.8528" lon="-3.54007">
        <ele>53.21</ele>
        <time>2020-07-08T11:16:37Z</time>
      </trkpt>
      <trkpt lat="47.85276" lon="-3.54005">
        <ele>53.36</ele>
        <time>2020-07-08T11:16:38Z</time>
      </trkpt>
      <trkpt lat="47.85272" lon="-3.54002">
        <ele>53.39</ele>
        <time>2020-07-08T11:16:39Z</time>
      </trkpt>
      <trkpt lat="47.85269" lon="-3.53999">
        <ele>53.39</ele>
        <time>2020-07-08T11:16:40Z</time>
      </trkpt>
      <trkpt lat="47.85265" lon="-3.53996">
        <ele>53.34</ele>
        <time>2020-07-08T11:16:41Z</time>
      </trkpt>
      <trkpt lat="47.85262" lon="-3.53992">
        <ele>53.32</ele>
        <time>2020-07-08T11:16:42Z</time>
      </trkpt>
      <trkpt lat="47.85259" lon="-3.53989">
        <ele>53.31</ele>
        <time>2020-07-08T11:16:43Z</time>
      </trkpt>
      <trkpt lat="47.85256" lon="-3.53985">
        <ele>53.33</ele>
        <time>2020-07-08T11:16:44Z</time>
      </trkpt>
      <trkpt lat="47.85252" lon="-3.53983">
        <ele>53.33</ele>
        <time>2020-07-08T11:16:45Z</time>
      </trkpt>
      <trkpt lat="47.85249" lon="-3.53981">
        <ele>53.32</ele>
        <time>2020-07-08T11:16:46Z</time>
      </trkpt>
      <trkpt lat="47.85246" lon="-3.53978">
        <ele>53.31</ele>
        <time>2020-07-08T11:16:47Z</time>
      </trkpt>
      <trkpt lat="47.85243" lon="-3.53976">
        <ele>53.29</ele>
        <time>2020-07-08T11:16:48Z</time>
      </trkpt>
      <trkpt lat="47.8524" lon="-3.53973">
        <ele>53.26</ele>
        <time>2020-07-08T11:16:49Z</time>
      </trkpt>
      <trkpt lat="47.85237" lon="-3.53971">
        <ele>53.11</ele>
        <time>2020-07-08T11:16:50Z</time>
      </trkpt>
      <trkpt lat="47.85233" lon="-3.53968">
        <ele>52.89</ele>
        <time>2020-07-08T11:16:51Z</time>
      </trkpt>
      <trkpt lat="47.8523" lon="-3.53966">
        <ele>52.64</ele>
        <time>2020-07-08T11:16:52Z</time>
      </trkpt>
      <trkpt lat="47.85226" lon="-3.53963">
        <ele>52.4</ele>
        <time>2020-07-08T11:16:53Z</time>
      </trkpt>
      <trkpt lat="47.85223" lon="-3.5396">
        <ele>52.16</ele>
        <time>2020-07-08T11:16:54Z</time>
      </trkpt>
      <trkpt lat="47.8522" lon="-3.53956">
        <ele>52.02</ele>
        <time>2020-07-08T11:16:55Z</time>
      </trkpt>
      <trkpt lat="47.85216" lon="-3.53953">
        <ele>51.96</ele>
        <time>2020-07-08T11:16:56Z</time>
      </trkpt>
      <trkpt lat="47.85212" lon="-3.53949">
        <ele>51.95</ele>
        <time>2020-07-08T11:16:57Z</time>
      </trkpt>
      <trkpt lat="47.85208" lon="-3.53945">
        <ele>51.97</ele>
        <time>2020-07-08T11:16:58Z</time>
      </trkpt>
      <trkpt lat="47.85205" lon="-3.53942">
        <ele>52.01</ele>
        <time>2020-07-08T11:16:59Z</time>
      </trkpt>
      <trkpt lat="47.852" lon="-3.53938">
        <ele>52.04</ele>
        <time>2020-07-08T11:17:00Z</time>
      </trkpt>
      <trkpt lat="47.85197" lon="-3.53935">
        <ele>52.03</ele>
        <time>2020-07-08T11:17:01Z</time>
      </trkpt>
      <trkpt lat="47.85193" lon="-3.53932">
        <ele>51.98</ele>
        <time>2020-07-08T11:17:02Z</time>
      </trkpt>
      <trkpt lat="47.8519" lon="-3.53929">
        <ele>51.88</ele>
        <time>2020-07-08T11:17:03Z</time>
      </trkpt>
      <trkpt lat="47.85186" lon="-3.53924">
        <ele>51.76</ele>
        <time>2020-07-08T11:17:04Z</time>
      </trkpt>
      <trkpt lat="47.85184" lon="-3.53919">
        <ele>51.66</ele>
        <time>2020-07-08T11:17:05Z</time>
      </trkpt>
      <trkpt lat="47.85183" lon="-3.53914">
        <ele>51.64</ele>
        <time>2020-07-08T11:17:06Z</time>
      </trkpt>
      <trkpt lat="47.85183" lon="-3.53909">
        <ele>51.7</ele>
        <time>2020-07-08T11:17:07Z</time>
      </trkpt>
      <trkpt lat="47.85183" lon="-3.53903">
        <ele>51.82</ele>
        <time>2020-07-08T11:17:08Z</time>
      </trkpt>
      <trkpt lat="47.85184" lon="-3.53897">
        <ele>51.98</ele>
        <time>2020-07-08T11:17:09Z</time>
      </trkpt>
      <trkpt lat="47.85184" lon="-3.53892">
        <ele>52.1</ele>
        <time>2020-07-08T11:17:10Z</time>
      </trkpt>
      <trkpt lat="47.85184" lon="-3.53889">
        <ele>52.21</ele>
        <time>2020-07-08T11:17:11Z</time>
      </trkpt>
      <trkpt lat="47.85184" lon="-3.53885">
        <ele>52.24</ele>
        <time>2020-07-08T11:17:12Z</time>
      </trkpt>
      <trkpt lat="47.85184" lon="-3.53883">
        <ele>52.25</ele>
        <time>2020-07-08T11:17:13Z</time>
      </trkpt>
      <trkpt lat="47.85184" lon="-3.53882">
        <ele>52.27</ele>
        <time>2020-07-08T11:17:14Z</time>
      </trkpt>
      <trkpt lat="47.85184" lon="-3.53882">
        <ele>52.28</ele>
        <time>2020-07-08T11:17:15Z</time>
      </trkpt>
      <trkpt lat="47.85184" lon="-3.53882">
        <ele>52.28</ele>
        <time>2020-07-08T11:17:16Z</time>
      </trkpt>
      <trkpt lat="47.85184" lon="-3.53882">
        <ele>52.28</ele>
        <time>2020-07-08T11:17:17Z</time>
      </trkpt>
      <trkpt lat="47.85184" lon="-3.53882">
        <ele>52.28</ele>
        <time>2020-07-08T11:17:18Z</time>
      </trkpt>
      <trkpt lat="47.85184" lon="-3.53882">
        <ele>52.28</ele>
        <time>2020-07-08T11:17:19Z</time>
      </trkpt>
      <trkpt lat="47.85184" lon="-3.53882">
        <ele>52.28</ele>
        <time>2020-07-08T11:17:20Z</time>
      </trkpt>
      <trkpt lat="47.85184" lon="-3.53882">
        <ele>52.28</ele>
        <time>2020-07-08T11:17:21Z</time>
      </trkpt>
      <trkpt lat="47.85184" lon="-3.53882">
        <ele>52.28</ele>
        <time>2020-07-08T11:17:22Z</time>
      </trkpt>
      <trkpt lat="47.85184" lon="-3.53882">
        <ele>52.28</ele>
        <time>2020-07-08T11:17:23Z</time>
      </trkpt>
      <trkpt lat="47.85184" lon="-3.53882">
        <ele>52.28</ele>
        <time>2020-07-08T11:17:24Z</time>
      </trkpt>
      <trkpt lat="47.85184" lon="-3.53882">
        <ele>52.28</ele>
        <time>2020-07-08T11:17:25Z</time>
      </trkpt>
      <trkpt lat="47.85184" lon="-3.53882">
        <ele>52.28</ele>
        <time>2020-07-08T11:17:26Z</time>
      </trkpt>
      <trkpt lat="47.85184" lon="-3.53882">
        <ele>52.28</ele>
        <time>2020-07-08T11:17:27Z</time>
      </trkpt>
      <trkpt lat="47.85184" lon="-3.53882">
        <ele>52.28</ele>
        <time>2020-07-08T11:17:28Z</time>
      </trkpt>
      <trkpt lat="47.85184" lon="-3.53876">
        <ele>52.27</ele>
        <time>2020-07-08T11:17:29Z</time>
      </trkpt>
      <trkpt lat="47.85184" lon="-3.53873">
        <ele>52.24</ele>
        <time>2020-07-08T11:17:30Z</time>
      </trkpt>
      <trkpt lat="47.85183" lon="-3.5387">
        <ele>52.19</ele>
        <time>2020-07-08T11:17:31Z</time>
      </trkpt>
      <trkpt lat="47.85183" lon="-3.53867">
        <ele>52.17</ele>
        <time>2020-07-08T11:17:32Z</time>
      </trkpt>
      <trkpt lat="47.85183" lon="-3.53863">
        <ele>52.16</ele>
        <time>2020-07-08T11:17:33Z</time>
      </trkpt>
      <trkpt lat="47.85183" lon="-3.53859">
        <ele>52.17</ele>
        <time>2020-07-08T11:17:34Z</time>
      </trkpt>
      <trkpt lat="47.85183" lon="-3.53855">
        <ele>52.22</ele>
        <time>2020-07-08T11:17:35Z</time>
      </trkpt>
      <trkpt lat="47.85183" lon="-3.5385">
        <ele>52.31</ele>
        <time>2020-07-08T11:17:36Z</time>
      </trkpt>
      <trkpt lat="47.85184" lon="-3.53845">
        <ele>52.41</ele>
        <time>2020-07-08T11:17:37Z</time>
      </trkpt>
      <trkpt lat="47.85184" lon="-3.5384">
        <ele>52.49</ele>
        <time>2020-07-08T11:17:38Z</time>
      </trkpt>
      <trkpt lat="47.85184" lon="-3.53833">
        <ele>52.6</ele>
        <time>2020-07-08T11:17:39Z</time>
      </trkpt>
      <trkpt lat="47.85185" lon="-3.53828">
        <ele>52.78</ele>
        <time>2020-07-08T11:17:40Z</time>
      </trkpt>
      <trkpt lat="47.85185" lon="-3.53823">
        <ele>52.96</ele>
        <time>2020-07-08T11:17:41Z</time>
      </trkpt>
      <trkpt lat="47.85185" lon="-3.53818">
        <ele>53.14</ele>
        <time>2020-07-08T11:17:42Z</time>
      </trkpt>
      <trkpt lat="47.85186" lon="-3.53813">
        <ele>53.33</ele>
        <time>2020-07-08T11:17:43Z</time>
      </trkpt>
      <trkpt lat="47.85187" lon="-3.53809">
        <ele>53.51</ele>
        <time>2020-07-08T11:17:44Z</time>
      </trkpt>
      <trkpt lat="47.85187" lon="-3.53804">
        <ele>53.71</ele>
        <time>2020-07-08T11:17:45Z</time>
      </trkpt>
      <trkpt lat="47.85187" lon="-3.53801">
        <ele>53.88</ele>
        <time>2020-07-08T11:17:46Z</time>
      </trkpt>
      <trkpt lat="47.85187" lon="-3.53797">
        <ele>54.05</ele>
        <time>2020-07-08T11:17:47Z</time>
      </trkpt>
      <trkpt lat="47.85187" lon="-3.53794">
        <ele>54.21</ele>
        <time>2020-07-08T11:17:48Z</time>
      </trkpt>
      <trkpt lat="47.85189" lon="-3.53789">
        <ele>54.43</ele>
        <time>2020-07-08T11:17:49Z</time>
      </trkpt>
      <trkpt lat="47.8519" lon="-3.53784">
        <ele>54.66</ele>
        <time>2020-07-08T11:17:50Z</time>
      </trkpt>
      <trkpt lat="47.85192" lon="-3.53778">
        <ele>54.9</ele>
        <time>2020-07-08T11:17:51Z</time>
      </trkpt>
      <trkpt lat="47.85193" lon="-3.53772">
        <ele>54.97</ele>
        <time>2020-07-08T11:17:52Z</time>
      </trkpt>
      <trkpt lat="47.85194" lon="-3.53767">
        <ele>55</ele>
        <time>2020-07-08T11:17:53Z</time>
      </trkpt>
      <trkpt lat="47.85195" lon="-3.53762">
        <ele>55</ele>
        <time>2020-07-08T11:17:54Z</time>
      </trkpt>
      <trkpt lat="47.85196" lon="-3.53759">
        <ele>55</ele>
        <time>2020-07-08T11:17:55Z</time>
      </trkpt>
      <trkpt lat="47.85197" lon="-3.53755">
        <ele>55</ele>
        <time>2020-07-08T11:17:56Z</time>
      </trkpt>
      <trkpt lat="47.85197" lon="-3.53752">
        <ele>55</ele>
        <time>2020-07-08T11:17:57Z</time>
      </trkpt>
      <trkpt lat="47.85198" lon="-3.53749">
        <ele>54.96</ele>
        <time>2020-07-08T11:17:58Z</time>
      </trkpt>
      <trkpt lat="47.85198" lon="-3.53745">
        <ele>54.85</ele>
        <time>2020-07-08T11:17:59Z</time>
      </trkpt>
      <trkpt lat="47.85199" lon="-3.5374">
        <ele>54.7</ele>
        <time>2020-07-08T11:18:00Z</time>
      </trkpt>
      <trkpt lat="47.852" lon="-3.53735">
        <ele>54.52</ele>
        <time>2020-07-08T11:18:01Z</time>
      </trkpt>
      <trkpt lat="47.85201" lon="-3.5373">
        <ele>54.36</ele>
        <time>2020-07-08T11:18:02Z</time>
      </trkpt>
      <trkpt lat="47.85202" lon="-3.53726">
        <ele>54.19</ele>
        <time>2020-07-08T11:18:03Z</time>
      </trkpt>
      <trkpt lat="47.85204" lon="-3.53721">
        <ele>54.04</ele>
        <time>2020-07-08T11:18:04Z</time>
      </trkpt>
      <trkpt lat="47.85205" lon="-3.53717">
        <ele>53.87</ele>
        <time>2020-07-08T11:18:05Z</time>
      </trkpt>
      <trkpt lat="47.85206" lon="-3.53713">
        <ele>53.72</ele>
        <time>2020-07-08T11:18:06Z</time>
      </trkpt>
      <trkpt lat="47.85207" lon="-3.53708">
        <ele>53.56</ele>
        <time>2020-07-08T11:18:07Z</time>
      </trkpt>
      <trkpt lat="47.85208" lon="-3.53704">
        <ele>53.4</ele>
        <time>2020-07-08T11:18:08Z</time>
      </trkpt>
      <trkpt lat="47.85209" lon="-3.53699">
        <ele>53.25</ele>
        <time>2020-07-08T11:18:09Z</time>
      </trkpt>
      <trkpt lat="47.8521" lon="-3.53695">
        <ele>53.08</ele>
        <time>2020-07-08T11:18:10Z</time>
      </trkpt>
      <trkpt lat="47.85213" lon="-3.53689">
        <ele>52.81</ele>
        <time>2020-07-08T11:18:11Z</time>
      </trkpt>
      <trkpt lat="47.85214" lon="-3.53684">
        <ele>52.49</ele>
        <time>2020-07-08T11:18:12Z</time>
      </trkpt>
      <trkpt lat="47.85214" lon="-3.5368">
        <ele>52.2</ele>
        <time>2020-07-08T11:18:13Z</time>
      </trkpt>
      <trkpt lat="47.85215" lon="-3.53675">
        <ele>51.91</ele>
        <time>2020-07-08T11:18:14Z</time>
      </trkpt>
      <trkpt lat="47.85216" lon="-3.5367">
        <ele>51.57</ele>
        <time>2020-07-08T11:18:15Z</time>
      </trkpt>
      <trkpt lat="47.85217" lon="-3.53664">
        <ele>51.04</ele>
        <time>2020-07-08T11:18:16Z</time>
      </trkpt>
      <trkpt lat="47.85218" lon="-3.5366">
        <ele>50.41</ele>
        <time>2020-07-08T11:18:17Z</time>
      </trkpt>
      <trkpt lat="47.8522" lon="-3.53654">
        <ele>49.63</ele>
        <time>2020-07-08T11:18:18Z</time>
      </trkpt>
      <trkpt lat="47.85223" lon="-3.53648">
        <ele>48.67</ele>
        <time>2020-07-08T11:18:19Z</time>
      </trkpt>
      <trkpt lat="47.85224" lon="-3.53641">
        <ele>47.54</ele>
        <time>2020-07-08T11:18:20Z</time>
      </trkpt>
      <trkpt lat="47.85226" lon="-3.53634">
        <ele>46.54</ele>
        <time>2020-07-08T11:18:21Z</time>
      </trkpt>
      <trkpt lat="47.85228" lon="-3.53629">
        <ele>45.63</ele>
        <time>2020-07-08T11:18:22Z</time>
      </trkpt>
      <trkpt lat="47.85231" lon="-3.53623">
        <ele>44.6</ele>
        <time>2020-07-08T11:18:23Z</time>
      </trkpt>
      <trkpt lat="47.85233" lon="-3.53618">
        <ele>43.7</ele>
        <time>2020-07-08T11:18:24Z</time>
      </trkpt>
      <trkpt lat="47.85235" lon="-3.53613">
        <ele>42.82</ele>
        <time>2020-07-08T11:18:25Z</time>
      </trkpt>
      <trkpt lat="47.85237" lon="-3.53608">
        <ele>41.78</ele>
        <time>2020-07-08T11:18:26Z</time>
      </trkpt>
      <trkpt lat="47.85239" lon="-3.53603">
        <ele>40.64</ele>
        <time>2020-07-08T11:18:27Z</time>
      </trkpt>
      <trkpt lat="47.8524" lon="-3.53597">
        <ele>39.34</ele>
        <time>2020-07-08T11:18:28Z</time>
      </trkpt>
      <trkpt lat="47.85242" lon="-3.53592">
        <ele>38.07</ele>
        <time>2020-07-08T11:18:29Z</time>
      </trkpt>
      <trkpt lat="47.85244" lon="-3.53587">
        <ele>36.71</ele>
        <time>2020-07-08T11:18:30Z</time>
      </trkpt>
      <trkpt lat="47.85245" lon="-3.53585">
        <ele>35.76</ele>
        <time>2020-07-08T11:18:31Z</time>
      </trkpt>
      <trkpt lat="47.85247" lon="-3.53583">
        <ele>34.97</ele>
        <time>2020-07-08T11:18:32Z</time>
      </trkpt>
      <trkpt lat="47.85247" lon="-3.53582">
        <ele>34.6</ele>
        <time>2020-07-08T11:18:33Z</time>
      </trkpt>
      <trkpt lat="47.85247" lon="-3.53583">
        <ele>34.47</ele>
        <time>2020-07-08T11:18:34Z</time>
      </trkpt>
      <trkpt lat="47.85247" lon="-3.53583">
        <ele>34.43</ele>
        <time>2020-07-08T11:18:35Z</time>
      </trkpt>
      <trkpt lat="47.85247" lon="-3.53583">
        <ele>34.42</ele>
        <time>2020-07-08T11:18:36Z</time>
      </trkpt>
      <trkpt lat="47.85247" lon="-3.53583">
        <ele>34.42</ele>
        <time>2020-07-08T11:18:37Z</time>
      </trkpt>
      <trkpt lat="47.85247" lon="-3.53583">
        <ele>34.42</ele>
        <time>2020-07-08T11:18:38Z</time>
      </trkpt>
      <trkpt lat="47.85247" lon="-3.53583">
        <ele>34.42</ele>
        <time>2020-07-08T11:18:39Z</time>
      </trkpt>
      <trkpt lat="47.85247" lon="-3.53583">
        <ele>34.42</ele>
        <time>2020-07-08T11:18:40Z</time>
      </trkpt>
      <trkpt lat="47.85247" lon="-3.53583">
        <ele>34.42</ele>
        <time>2020-07-08T11:18:41Z</time>
      </trkpt>
      <trkpt lat="47.85247" lon="-3.53583">
        <ele>34.42</ele>
        <time>2020-07-08T11:18:42Z</time>
      </trkpt>
      <trkpt lat="47.85247" lon="-3.53583">
        <ele>34.42</ele>
        <time>2020-07-08T11:18:43Z</time>
      </trkpt>
      <trkpt lat="47.85247" lon="-3.53583">
        <ele>34.42</ele>
        <time>2020-07-08T11:18:44Z</time>
      </trkpt>
      <trkpt lat="47.85247" lon="-3.53583">
        <ele>34.42</ele>
        <time>2020-07-08T11:18:45Z</time>
      </trkpt>
      <trkpt lat="47.85247" lon="-3.53583">
        <ele>34.42</ele>
        <time>2020-07-08T11:18:46Z</time>
      </trkpt>
      <trkpt lat="47.85247" lon="-3.53583">
        <ele>34.42</ele>
        <time>2020-07-08T11:18:47Z</time>
      </trkpt>
      <trkpt lat="47.85247" lon="-3.53583">
        <ele>34.42</ele>
        <time>2020-07-08T11:18:48Z</time>
      </trkpt>
      <trkpt lat="47.85247" lon="-3.53583">
        <ele>34.42</ele>
        <time>2020-07-08T11:18:49Z</time>
      </trkpt>
      <trkpt lat="47.85247" lon="-3.53583">
        <ele>34.42</ele>
        <time>2020-07-08T11:18:50Z</time>
      </trkpt>
      <trkpt lat="47.85247" lon="-3.53583">
        <ele>34.42</ele>
        <time>2020-07-08T11:18:51Z</time>
      </trkpt>
      <trkpt lat="47.85247" lon="-3.53583">
        <ele>34.42</ele>
        <time>2020-07-08T11:18:52Z</time>
      </trkpt>
      <trkpt lat="47.85247" lon="-3.53583">
        <ele>34.42</ele>
        <time>2020-07-08T11:18:53Z</time>
      </trkpt>
      <trkpt lat="47.85247" lon="-3.53583">
        <ele>34.42</ele>
        <time>2020-07-08T11:18:54Z</time>
      </trkpt>
      <trkpt lat="47.85247" lon="-3.53583">
        <ele>34.42</ele>
        <time>2020-07-08T11:18:55Z</time>
      </trkpt>
      <trkpt lat="47.85247" lon="-3.53583">
        <ele>34.42</ele>
        <time>2020-07-08T11:18:56Z</time>
      </trkpt>
      <trkpt lat="47.85253" lon="-3.53571">
        <ele>31.77</ele>
        <time>2020-07-08T11:18:57Z</time>
      </trkpt>
      <trkpt lat="47.85253" lon="-3.5357">
        <ele>30.64</ele>
        <time>2020-07-08T11:18:58Z</time>
      </trkpt>
      <trkpt lat="47.85254" lon="-3.53568">
        <ele>29.98</ele>
        <time>2020-07-08T11:18:59Z</time>
      </trkpt>
      <trkpt lat="47.85254" lon="-3.53567">
        <ele>29.47</ele>
        <time>2020-07-08T11:19:00Z</time>
      </trkpt>
      <trkpt lat="47.85254" lon="-3.53567">
        <ele>29.32</ele>
        <time>2020-07-08T11:19:01Z</time>
      </trkpt>
      <trkpt lat="47.85254" lon="-3.53567">
        <ele>29.27</ele>
        <time>2020-07-08T11:19:02Z</time>
      </trkpt>
      <trkpt lat="47.85254" lon="-3.53567">
        <ele>29.26</ele>
        <time>2020-07-08T11:19:03Z</time>
      </trkpt>
      <trkpt lat="47.85254" lon="-3.53567">
        <ele>29.25</ele>
        <time>2020-07-08T11:19:04Z</time>
      </trkpt>
      <trkpt lat="47.85254" lon="-3.53567">
        <ele>29.25</ele>
        <time>2020-07-08T11:19:05Z</time>
      </trkpt>
      <trkpt lat="47.85254" lon="-3.53567">
        <ele>29.25</ele>
        <time>2020-07-08T11:19:06Z</time>
      </trkpt>
      <trkpt lat="47.85254" lon="-3.53567">
        <ele>29.25</ele>
        <time>2020-07-08T11:19:07Z</time>
      </trkpt>
      <trkpt lat="47.85254" lon="-3.53567">
        <ele>29.25</ele>
        <time>2020-07-08T11:19:08Z</time>
      </trkpt>
      <trkpt lat="47.85254" lon="-3.53567">
        <ele>29.25</ele>
        <time>2020-07-08T11:19:09Z</time>
      </trkpt>
      <trkpt lat="47.85254" lon="-3.53567">
        <ele>29.25</ele>
        <time>2020-07-08T11:19:10Z</time>
      </trkpt>
      <trkpt lat="47.85256" lon="-3.53553">
        <ele>27.02</ele>
        <time>2020-07-08T11:19:11Z</time>
      </trkpt>
      <trkpt lat="47.85256" lon="-3.53552">
        <ele>26.25</ele>
        <time>2020-07-08T11:19:12Z</time>
      </trkpt>
      <trkpt lat="47.85256" lon="-3.53552">
        <ele>25.97</ele>
        <time>2020-07-08T11:19:13Z</time>
      </trkpt>
      <trkpt lat="47.85256" lon="-3.53551">
        <ele>25.76</ele>
        <time>2020-07-08T11:19:14Z</time>
      </trkpt>
      <trkpt lat="47.85256" lon="-3.53551">
        <ele>25.7</ele>
        <time>2020-07-08T11:19:15Z</time>
      </trkpt>
      <trkpt lat="47.85256" lon="-3.53551">
        <ele>25.68</ele>
        <time>2020-07-08T11:19:16Z</time>
      </trkpt>
      <trkpt lat="47.85256" lon="-3.53551">
        <ele>25.67</ele>
        <time>2020-07-08T11:19:17Z</time>
      </trkpt>
      <trkpt lat="47.85256" lon="-3.53551">
        <ele>25.67</ele>
        <time>2020-07-08T11:19:18Z</time>
      </trkpt>
      <trkpt lat="47.8526" lon="-3.53538">
        <ele>24.22</ele>
        <time>2020-07-08T11:19:19Z</time>
      </trkpt>
      <trkpt lat="47.85261" lon="-3.53534">
        <ele>23.33</ele>
        <time>2020-07-08T11:19:20Z</time>
      </trkpt>
      <trkpt lat="47.85262" lon="-3.5353">
        <ele>22.7</ele>
        <time>2020-07-08T11:19:21Z</time>
      </trkpt>
      <trkpt lat="47.85263" lon="-3.53527">
        <ele>22.18</ele>
        <time>2020-07-08T11:19:22Z</time>
      </trkpt>
      <trkpt lat="47.85265" lon="-3.53522">
        <ele>21.61</ele>
        <time>2020-07-08T11:19:23Z</time>
      </trkpt>
      <trkpt lat="47.85266" lon="-3.53519">
        <ele>21.17</ele>
        <time>2020-07-08T11:19:24Z</time>
      </trkpt>
      <trkpt lat="47.85267" lon="-3.53515">
        <ele>20.7</ele>
        <time>2020-07-08T11:19:25Z</time>
      </trkpt>
      <trkpt lat="47.85268" lon="-3.53512">
        <ele>20.27</ele>
        <time>2020-07-08T11:19:26Z</time>
      </trkpt>
      <trkpt lat="47.85269" lon="-3.5351">
        <ele>19.85</ele>
        <time>2020-07-08T11:19:27Z</time>
      </trkpt>
      <trkpt lat="47.85271" lon="-3.53509">
        <ele>19.44</ele>
        <time>2020-07-08T11:19:28Z</time>
      </trkpt>
      <trkpt lat="47.85272" lon="-3.53507">
        <ele>19.02</ele>
        <time>2020-07-08T11:19:29Z</time>
      </trkpt>
      <trkpt lat="47.85275" lon="-3.53504">
        <ele>18.4</ele>
        <time>2020-07-08T11:19:30Z</time>
      </trkpt>
      <trkpt lat="47.85276" lon="-3.53502">
        <ele>17.75</ele>
        <time>2020-07-08T11:19:31Z</time>
      </trkpt>
      <trkpt lat="47.85278" lon="-3.53498">
        <ele>16.9</ele>
        <time>2020-07-08T11:19:32Z</time>
      </trkpt>
      <trkpt lat="47.85279" lon="-3.53495">
        <ele>16.18</ele>
        <time>2020-07-08T11:19:33Z</time>
      </trkpt>
      <trkpt lat="47.8528" lon="-3.53491">
        <ele>15.41</ele>
        <time>2020-07-08T11:19:34Z</time>
      </trkpt>
      <trkpt lat="47.85281" lon="-3.53488">
        <ele>14.65</ele>
        <time>2020-07-08T11:19:35Z</time>
      </trkpt>
      <trkpt lat="47.85282" lon="-3.53485">
        <ele>13.97</ele>
        <time>2020-07-08T11:19:36Z</time>
      </trkpt>
      <trkpt lat="47.85283" lon="-3.53483">
        <ele>13.44</ele>
        <time>2020-07-08T11:19:37Z</time>
      </trkpt>
      <trkpt lat="47.85283" lon="-3.53481">
        <ele>13.07</ele>
        <time>2020-07-08T11:19:38Z</time>
      </trkpt>
      <trkpt lat="47.85285" lon="-3.53477">
        <ele>12.49</ele>
        <time>2020-07-08T11:19:39Z</time>
      </trkpt>
      <trkpt lat="47.85286" lon="-3.53475">
        <ele>11.96</ele>
        <time>2020-07-08T11:19:40Z</time>
      </trkpt>
      <trkpt lat="47.85287" lon="-3.53473">
        <ele>11.55</ele>
        <time>2020-07-08T11:19:41Z</time>
      </trkpt>
      <trkpt lat="47.85289" lon="-3.5347">
        <ele>11.17</ele>
        <time>2020-07-08T11:19:42Z</time>
      </trkpt>
      <trkpt lat="47.8529" lon="-3.53467">
        <ele>10.83</ele>
        <time>2020-07-08T11:19:43Z</time>
      </trkpt>
      <trkpt lat="47.85291" lon="-3.53465">
        <ele>10.51</ele>
        <time>2020-07-08T11:19:44Z</time>
      </trkpt>
      <trkpt lat="47.85292" lon="-3.53462">
        <ele>10.21</ele>
        <time>2020-07-08T11:19:45Z</time>
      </trkpt>
      <trkpt lat="47.85292" lon="-3.53458">
        <ele>9.88</ele>
        <time>2020-07-08T11:19:46Z</time>
      </trkpt>
      <trkpt lat="47.85293" lon="-3.53454">
        <ele>9.46</ele>
        <time>2020-07-08T11:19:47Z</time>
      </trkpt>
      <trkpt lat="47.85294" lon="-3.53449">
        <ele>9.01</ele>
        <time>2020-07-08T11:19:48Z</time>
      </trkpt>
      <trkpt lat="47.85295" lon="-3.53445">
        <ele>8.57</ele>
        <time>2020-07-08T11:19:49Z</time>
      </trkpt>
      <trkpt lat="47.85296" lon="-3.53441">
        <ele>8.32</ele>
        <time>2020-07-08T11:19:50Z</time>
      </trkpt>
      <trkpt lat="47.85297" lon="-3.53437">
        <ele>8.11</ele>
        <time>2020-07-08T11:19:51Z</time>
      </trkpt>
      <trkpt lat="47.85298" lon="-3.53434">
        <ele>7.96</ele>
        <time>2020-07-08T11:19:52Z</time>
      </trkpt>
      <trkpt lat="47.853" lon="-3.5343">
        <ele>7.78</ele>
        <time>2020-07-08T11:19:53Z</time>
      </trkpt>
      <trkpt lat="47.85301" lon="-3.53428">
        <ele>7.63</ele>
        <time>2020-07-08T11:19:54Z</time>
      </trkpt>
      <trkpt lat="47.85302" lon="-3.53425">
        <ele>7.48</ele>
        <time>2020-07-08T11:19:55Z</time>
      </trkpt>
      <trkpt lat="47.85303" lon="-3.53424">
        <ele>7.37</ele>
        <time>2020-07-08T11:19:56Z</time>
      </trkpt>
      <trkpt lat="47.85304" lon="-3.53423">
        <ele>7.31</ele>
        <time>2020-07-08T11:19:57Z</time>
      </trkpt>
      <trkpt lat="47.85304" lon="-3.53423">
        <ele>7.29</ele>
        <time>2020-07-08T11:19:58Z</time>
      </trkpt>
      <trkpt lat="47.85305" lon="-3.53423">
        <ele>7.27</ele>
        <time>2020-07-08T11:19:59Z</time>
      </trkpt>
      <trkpt lat="47.85305" lon="-3.53423">
        <ele>7.26</ele>
        <time>2020-07-08T11:20:00Z</time>
      </trkpt>
      <trkpt lat="47.85305" lon="-3.53423">
        <ele>7.26</ele>
        <time>2020-07-08T11:20:01Z</time>
      </trkpt>
      <trkpt lat="47.85305" lon="-3.53423">
        <ele>7.26</ele>
        <time>2020-07-08T11:20:02Z</time>
      </trkpt>
      <trkpt lat="47.85306" lon="-3.53416">
        <ele>7.08</ele>
        <time>2020-07-08T11:20:03Z</time>
      </trkpt>
      <trkpt lat="47.85306" lon="-3.53413">
        <ele>7.02</ele>
        <time>2020-07-08T11:20:04Z</time>
      </trkpt>
      <trkpt lat="47.85307" lon="-3.53409">
        <ele>7.02</ele>
        <time>2020-07-08T11:20:05Z</time>
      </trkpt>
      <trkpt lat="47.85308" lon="-3.53404">
        <ele>7.03</ele>
        <time>2020-07-08T11:20:06Z</time>
      </trkpt>
      <trkpt lat="47.85308" lon="-3.534">
        <ele>7.04</ele>
        <time>2020-07-08T11:20:07Z</time>
      </trkpt>
      <trkpt lat="47.85308" lon="-3.53395">
        <ele>7.05</ele>
        <time>2020-07-08T11:20:08Z</time>
      </trkpt>
      <trkpt lat="47.85308" lon="-3.53391">
        <ele>7.06</ele>
        <time>2020-07-08T11:20:09Z</time>
      </trkpt>
      <trkpt lat="47.85307" lon="-3.53387">
        <ele>7.11</ele>
        <time>2020-07-08T11:20:10Z</time>
      </trkpt>
      <trkpt lat="47.85306" lon="-3.53382">
        <ele>7.24</ele>
        <time>2020-07-08T11:20:11Z</time>
      </trkpt>
      <trkpt lat="47.85306" lon="-3.53376">
        <ele>7.42</ele>
        <time>2020-07-08T11:20:12Z</time>
      </trkpt>
      <trkpt lat="47.85306" lon="-3.5337">
        <ele>7.61</ele>
        <time>2020-07-08T11:20:13Z</time>
      </trkpt>
      <trkpt lat="47.85305" lon="-3.53363">
        <ele>7.82</ele>
        <time>2020-07-08T11:20:14Z</time>
      </trkpt>
      <trkpt lat="47.85304" lon="-3.53357">
        <ele>8</ele>
        <time>2020-07-08T11:20:15Z</time>
      </trkpt>
      <trkpt lat="47.85303" lon="-3.53351">
        <ele>8.2</ele>
        <time>2020-07-08T11:20:16Z</time>
      </trkpt>
      <trkpt lat="47.85303" lon="-3.53345">
        <ele>8.41</ele>
        <time>2020-07-08T11:20:17Z</time>
      </trkpt>
      <trkpt lat="47.85304" lon="-3.53341">
        <ele>8.59</ele>
        <time>2020-07-08T11:20:18Z</time>
      </trkpt>
      <trkpt lat="47.85303" lon="-3.53336">
        <ele>8.75</ele>
        <time>2020-07-08T11:20:19Z</time>
      </trkpt>
      <trkpt lat="47.85303" lon="-3.53331">
        <ele>8.81</ele>
        <time>2020-07-08T11:20:20Z</time>
      </trkpt>
      <trkpt lat="47.85303" lon="-3.53326">
        <ele>8.73</ele>
        <time>2020-07-08T11:20:21Z</time>
      </trkpt>
      <trkpt lat="47.85303" lon="-3.5332">
        <ele>8.59</ele>
        <time>2020-07-08T11:20:22Z</time>
      </trkpt>
      <trkpt lat="47.85302" lon="-3.53315">
        <ele>8.45</ele>
        <time>2020-07-08T11:20:23Z</time>
      </trkpt>
      <trkpt lat="47.85302" lon="-3.53309">
        <ele>8.3</ele>
        <time>2020-07-08T11:20:24Z</time>
      </trkpt>
      <trkpt lat="47.85301" lon="-3.53304">
        <ele>8.12</ele>
        <time>2020-07-08T11:20:25Z</time>
      </trkpt>
      <trkpt lat="47.853" lon="-3.53299">
        <ele>7.83</ele>
        <time>2020-07-08T11:20:26Z</time>
      </trkpt>
      <trkpt lat="47.85299" lon="-3.53294">
        <ele>7.52</ele>
        <time>2020-07-08T11:20:27Z</time>
      </trkpt>
      <trkpt lat="47.85298" lon="-3.53288">
        <ele>7.18</ele>
        <time>2020-07-08T11:20:28Z</time>
      </trkpt>
      <trkpt lat="47.85295" lon="-3.53282">
        <ele>6.83</ele>
        <time>2020-07-08T11:20:29Z</time>
      </trkpt>
      <trkpt lat="47.85293" lon="-3.53278">
        <ele>6.58</ele>
        <time>2020-07-08T11:20:30Z</time>
      </trkpt>
      <trkpt lat="47.85289" lon="-3.53275">
        <ele>6.48</ele>
        <time>2020-07-08T11:20:31Z</time>
      </trkpt>
      <trkpt lat="47.85287" lon="-3.53272">
        <ele>6.42</ele>
        <time>2020-07-08T11:20:32Z</time>
      </trkpt>
      <trkpt lat="47.85285" lon="-3.5327">
        <ele>6.4</ele>
        <time>2020-07-08T11:20:33Z</time>
      </trkpt>
      <trkpt lat="47.85281" lon="-3.53266">
        <ele>6.41</ele>
        <time>2020-07-08T11:20:34Z</time>
      </trkpt>
      <trkpt lat="47.85278" lon="-3.53263">
        <ele>6.44</ele>
        <time>2020-07-08T11:20:35Z</time>
      </trkpt>
      <trkpt lat="47.85274" lon="-3.53259">
        <ele>6.49</ele>
        <time>2020-07-08T11:20:36Z</time>
      </trkpt>
      <trkpt lat="47.8527" lon="-3.53256">
        <ele>6.55</ele>
        <time>2020-07-08T11:20:37Z</time>
      </trkpt>
      <trkpt lat="47.85266" lon="-3.53254">
        <ele>6.58</ele>
        <time>2020-07-08T11:20:38Z</time>
      </trkpt>
      <trkpt lat="47.85263" lon="-3.53251">
        <ele>6.59</ele>
        <time>2020-07-08T11:20:39Z</time>
      </trkpt>
      <trkpt lat="47.85259" lon="-3.53247">
        <ele>6.58</ele>
        <time>2020-07-08T11:20:40Z</time>
      </trkpt>
      <trkpt lat="47.85256" lon="-3.53243">
        <ele>6.56</ele>
        <time>2020-07-08T11:20:41Z</time>
      </trkpt>
      <trkpt lat="47.85252" lon="-3.53239">
        <ele>6.55</ele>
        <time>2020-07-08T11:20:42Z</time>
      </trkpt>
      <trkpt lat="47.85249" lon="-3.53236">
        <ele>6.47</ele>
        <time>2020-07-08T11:20:43Z</time>
      </trkpt>
      <trkpt lat="47.85246" lon="-3.53232">
        <ele>6.29</ele>
        <time>2020-07-08T11:20:44Z</time>
      </trkpt>
      <trkpt lat="47.85242" lon="-3.53229">
        <ele>6.06</ele>
        <time>2020-07-08T11:20:45Z</time>
      </trkpt>
      <trkpt lat="47.85238" lon="-3.53225">
        <ele>5.79</ele>
        <time>2020-07-08T11:20:46Z</time>
      </trkpt>
      <trkpt lat="47.85234" lon="-3.53221">
        <ele>5.52</ele>
        <time>2020-07-08T11:20:47Z</time>
      </trkpt>
      <trkpt lat="47.8523" lon="-3.53216">
        <ele>5.38</ele>
        <time>2020-07-08T11:20:48Z</time>
      </trkpt>
      <trkpt lat="47.85225" lon="-3.53212">
        <ele>5.37</ele>
        <time>2020-07-08T11:20:49Z</time>
      </trkpt>
      <trkpt lat="47.8522" lon="-3.53206">
        <ele>5.45</ele>
        <time>2020-07-08T11:20:50Z</time>
      </trkpt>
      <trkpt lat="47.85216" lon="-3.53202">
        <ele>5.39</ele>
        <time>2020-07-08T11:20:51Z</time>
      </trkpt>
      <trkpt lat="47.85212" lon="-3.53198">
        <ele>5.26</ele>
        <time>2020-07-08T11:20:52Z</time>
      </trkpt>
      <trkpt lat="47.85208" lon="-3.53194">
        <ele>5.07</ele>
        <time>2020-07-08T11:20:53Z</time>
      </trkpt>
      <trkpt lat="47.85204" lon="-3.53191">
        <ele>4.82</ele>
        <time>2020-07-08T11:20:54Z</time>
      </trkpt>
      <trkpt lat="47.85201" lon="-3.53188">
        <ele>4.64</ele>
        <time>2020-07-08T11:20:55Z</time>
      </trkpt>
      <trkpt lat="47.85199" lon="-3.53186">
        <ele>4.53</ele>
        <time>2020-07-08T11:20:56Z</time>
      </trkpt>
      <trkpt lat="47.85197" lon="-3.53184">
        <ele>4.48</ele>
        <time>2020-07-08T11:20:57Z</time>
      </trkpt>
      <trkpt lat="47.85195" lon="-3.53181">
        <ele>4.48</ele>
        <time>2020-07-08T11:20:58Z</time>
      </trkpt>
      <trkpt lat="47.85193" lon="-3.53181">
        <ele>4.49</ele>
        <time>2020-07-08T11:20:59Z</time>
      </trkpt>
      <trkpt lat="47.85191" lon="-3.53179">
        <ele>4.52</ele>
        <time>2020-07-08T11:21:00Z</time>
      </trkpt>
      <trkpt lat="47.85189" lon="-3.53177">
        <ele>4.55</ele>
        <time>2020-07-08T11:21:01Z</time>
      </trkpt>
      <trkpt lat="47.85188" lon="-3.53176">
        <ele>4.58</ele>
        <time>2020-07-08T11:21:02Z</time>
      </trkpt>
      <trkpt lat="47.85186" lon="-3.53173">
        <ele>4.6</ele>
        <time>2020-07-08T11:21:03Z</time>
      </trkpt>
      <trkpt lat="47.85184" lon="-3.53171">
        <ele>4.59</ele>
        <time>2020-07-08T11:21:04Z</time>
      </trkpt>
      <trkpt lat="47.85182" lon="-3.53169">
        <ele>4.55</ele>
        <time>2020-07-08T11:21:05Z</time>
      </trkpt>
      <trkpt lat="47.85179" lon="-3.53166">
        <ele>4.46</ele>
        <time>2020-07-08T11:21:06Z</time>
      </trkpt>
      <trkpt lat="47.85177" lon="-3.53163">
        <ele>4.36</ele>
        <time>2020-07-08T11:21:07Z</time>
      </trkpt>
      <trkpt lat="47.85174" lon="-3.53161">
        <ele>4.27</ele>
        <time>2020-07-08T11:21:08Z</time>
      </trkpt>
      <trkpt lat="47.85173" lon="-3.53159">
        <ele>4.2</ele>
        <time>2020-07-08T11:21:09Z</time>
      </trkpt>
      <trkpt lat="47.85171" lon="-3.53157">
        <ele>4.14</ele>
        <time>2020-07-08T11:21:10Z</time>
      </trkpt>
      <trkpt lat="47.85168" lon="-3.53154">
        <ele>4.07</ele>
        <time>2020-07-08T11:21:11Z</time>
      </trkpt>
      <trkpt lat="47.85165" lon="-3.53152">
        <ele>4</ele>
        <time>2020-07-08T11:21:12Z</time>
      </trkpt>
      <trkpt lat="47.85162" lon="-3.53149">
        <ele>3.92</ele>
        <time>2020-07-08T11:21:13Z</time>
      </trkpt>
      <trkpt lat="47.85158" lon="-3.53147">
        <ele>3.82</ele>
        <time>2020-07-08T11:21:14Z</time>
      </trkpt>
      <trkpt lat="47.85154" lon="-3.53146">
        <ele>3.71</ele>
        <time>2020-07-08T11:21:15Z</time>
      </trkpt>
      <trkpt lat="47.85151" lon="-3.53145">
        <ele>3.6</ele>
        <time>2020-07-08T11:21:16Z</time>
      </trkpt>
      <trkpt lat="47.85148" lon="-3.53144">
        <ele>3.49</ele>
        <time>2020-07-08T11:21:17Z</time>
      </trkpt>
      <trkpt lat="47.85143" lon="-3.53142">
        <ele>3.33</ele>
        <time>2020-07-08T11:21:18Z</time>
      </trkpt>
      <trkpt lat="47.85139" lon="-3.5314">
        <ele>3.12</ele>
        <time>2020-07-08T11:21:19Z</time>
      </trkpt>
      <trkpt lat="47.85135" lon="-3.53136">
        <ele>3.1</ele>
        <time>2020-07-08T11:21:20Z</time>
      </trkpt>
      <trkpt lat="47.8513" lon="-3.53132">
        <ele>3.15</ele>
        <time>2020-07-08T11:21:21Z</time>
      </trkpt>
      <trkpt lat="47.85127" lon="-3.53131">
        <ele>3.16</ele>
        <time>2020-07-08T11:21:22Z</time>
      </trkpt>
      <trkpt lat="47.85123" lon="-3.53129">
        <ele>3.16</ele>
        <time>2020-07-08T11:21:23Z</time>
      </trkpt>
      <trkpt lat="47.85119" lon="-3.53127">
        <ele>3.14</ele>
        <time>2020-07-08T11:21:24Z</time>
      </trkpt>
      <trkpt lat="47.85116" lon="-3.53126">
        <ele>3.1</ele>
        <time>2020-07-08T11:21:25Z</time>
      </trkpt>
      <trkpt lat="47.85112" lon="-3.53125">
        <ele>3.04</ele>
        <time>2020-07-08T11:21:26Z</time>
      </trkpt>
      <trkpt lat="47.85109" lon="-3.53123">
        <ele>3.07</ele>
        <time>2020-07-08T11:21:27Z</time>
      </trkpt>
      <trkpt lat="47.85107" lon="-3.53121">
        <ele>3.13</ele>
        <time>2020-07-08T11:21:28Z</time>
      </trkpt>
      <trkpt lat="47.85105" lon="-3.53119">
        <ele>3.2</ele>
        <time>2020-07-08T11:21:29Z</time>
      </trkpt>
      <trkpt lat="47.85103" lon="-3.53117">
        <ele>3.26</ele>
        <time>2020-07-08T11:21:30Z</time>
      </trkpt>
      <trkpt lat="47.85102" lon="-3.53115">
        <ele>3.31</ele>
        <time>2020-07-08T11:21:31Z</time>
      </trkpt>
      <trkpt lat="47.851" lon="-3.53115">
        <ele>3.38</ele>
        <time>2020-07-08T11:21:32Z</time>
      </trkpt>
      <trkpt lat="47.85097" lon="-3.53114">
        <ele>3.46</ele>
        <time>2020-07-08T11:21:33Z</time>
      </trkpt>
      <trkpt lat="47.85094" lon="-3.53113">
        <ele>3.57</ele>
        <time>2020-07-08T11:21:34Z</time>
      </trkpt>
      <trkpt lat="47.85091" lon="-3.53114">
        <ele>3.69</ele>
        <time>2020-07-08T11:21:35Z</time>
      </trkpt>
      <trkpt lat="47.85088" lon="-3.53113">
        <ele>3.8</ele>
        <time>2020-07-08T11:21:36Z</time>
      </trkpt>
      <trkpt lat="47.85085" lon="-3.53112">
        <ele>3.91</ele>
        <time>2020-07-08T11:21:37Z</time>
      </trkpt>
      <trkpt lat="47.85081" lon="-3.53113">
        <ele>3.98</ele>
        <time>2020-07-08T11:21:38Z</time>
      </trkpt>
      <trkpt lat="47.85078" lon="-3.53112">
        <ele>4</ele>
        <time>2020-07-08T11:21:39Z</time>
      </trkpt>
      <trkpt lat="47.85075" lon="-3.53112">
        <ele>4</ele>
        <time>2020-07-08T11:21:40Z</time>
      </trkpt>
      <trkpt lat="47.85071" lon="-3.53112">
        <ele>4.01</ele>
        <time>2020-07-08T11:21:41Z</time>
      </trkpt>
      <trkpt lat="47.85067" lon="-3.5311">
        <ele>4</ele>
        <time>2020-07-08T11:21:42Z</time>
      </trkpt>
      <trkpt lat="47.85063" lon="-3.5311">
        <ele>4</ele>
        <time>2020-07-08T11:21:43Z</time>
      </trkpt>
      <trkpt lat="47.85059" lon="-3.53111">
        <ele>4</ele>
        <time>2020-07-08T11:21:44Z</time>
      </trkpt>
      <trkpt lat="47.85056" lon="-3.53112">
        <ele>4.01</ele>
        <time>2020-07-08T11:21:45Z</time>
      </trkpt>
      <trkpt lat="47.85055" lon="-3.53113">
        <ele>4.06</ele>
        <time>2020-07-08T11:21:46Z</time>
      </trkpt>
      <trkpt lat="47.85053" lon="-3.53116">
        <ele>4.15</ele>
        <time>2020-07-08T11:21:47Z</time>
      </trkpt>
      <trkpt lat="47.85051" lon="-3.5312">
        <ele>4.27</ele>
        <time>2020-07-08T11:21:48Z</time>
      </trkpt>
      <trkpt lat="47.85049" lon="-3.53123">
        <ele>4.37</ele>
        <time>2020-07-08T11:21:49Z</time>
      </trkpt>
      <trkpt lat="47.85046" lon="-3.53124">
        <ele>4.44</ele>
        <time>2020-07-08T11:21:50Z</time>
      </trkpt>
      <trkpt lat="47.85043" lon="-3.53125">
        <ele>4.49</ele>
        <time>2020-07-08T11:21:51Z</time>
      </trkpt>
      <trkpt lat="47.8504" lon="-3.53126">
        <ele>4.52</ele>
        <time>2020-07-08T11:21:52Z</time>
      </trkpt>
      <trkpt lat="47.85036" lon="-3.53126">
        <ele>4.53</ele>
        <time>2020-07-08T11:21:53Z</time>
      </trkpt>
      <trkpt lat="47.85031" lon="-3.53126">
        <ele>4.53</ele>
        <time>2020-07-08T11:21:54Z</time>
      </trkpt>
      <trkpt lat="47.85027" lon="-3.53125">
        <ele>4.51</ele>
        <time>2020-07-08T11:21:55Z</time>
      </trkpt>
      <trkpt lat="47.85023" lon="-3.53125">
        <ele>4.51</ele>
        <time>2020-07-08T11:21:56Z</time>
      </trkpt>
      <trkpt lat="47.8502" lon="-3.53126">
        <ele>4.53</ele>
        <time>2020-07-08T11:21:57Z</time>
      </trkpt>
      <trkpt lat="47.85017" lon="-3.53126">
        <ele>4.54</ele>
        <time>2020-07-08T11:21:58Z</time>
      </trkpt>
      <trkpt lat="47.85013" lon="-3.53127">
        <ele>4.55</ele>
        <time>2020-07-08T11:21:59Z</time>
      </trkpt>
      <trkpt lat="47.85009" lon="-3.53128">
        <ele>4.58</ele>
        <time>2020-07-08T11:22:00Z</time>
      </trkpt>
      <trkpt lat="47.85006" lon="-3.53126">
        <ele>4.55</ele>
        <time>2020-07-08T11:22:01Z</time>
      </trkpt>
      <trkpt lat="47.85003" lon="-3.53123">
        <ele>4.47</ele>
        <time>2020-07-08T11:22:02Z</time>
      </trkpt>
      <trkpt lat="47.85" lon="-3.5312">
        <ele>4.37</ele>
        <time>2020-07-08T11:22:03Z</time>
      </trkpt>
      <trkpt lat="47.84996" lon="-3.53118">
        <ele>4.28</ele>
        <time>2020-07-08T11:22:04Z</time>
      </trkpt>
      <trkpt lat="47.84993" lon="-3.53115">
        <ele>4.17</ele>
        <time>2020-07-08T11:22:05Z</time>
      </trkpt>
      <trkpt lat="47.84988" lon="-3.53113">
        <ele>4.1</ele>
        <time>2020-07-08T11:22:06Z</time>
      </trkpt>
      <trkpt lat="47.84984" lon="-3.53111">
        <ele>4.03</ele>
        <time>2020-07-08T11:22:07Z</time>
      </trkpt>
      <trkpt lat="47.8498" lon="-3.53108">
        <ele>4.01</ele>
        <time>2020-07-08T11:22:08Z</time>
      </trkpt>
      <trkpt lat="47.84976" lon="-3.53106">
        <ele>4</ele>
        <time>2020-07-08T11:22:09Z</time>
      </trkpt>
      <trkpt lat="47.84971" lon="-3.53104">
        <ele>4.02</ele>
        <time>2020-07-08T11:22:10Z</time>
      </trkpt>
      <trkpt lat="47.84967" lon="-3.53102">
        <ele>4.09</ele>
        <time>2020-07-08T11:22:11Z</time>
      </trkpt>
      <trkpt lat="47.84963" lon="-3.53101">
        <ele>4.18</ele>
        <time>2020-07-08T11:22:12Z</time>
      </trkpt>
      <trkpt lat="47.84958" lon="-3.53101">
        <ele>4.28</ele>
        <time>2020-07-08T11:22:13Z</time>
      </trkpt>
      <trkpt lat="47.84954" lon="-3.53099">
        <ele>4.35</ele>
        <time>2020-07-08T11:22:14Z</time>
      </trkpt>
      <trkpt lat="47.8495" lon="-3.53099">
        <ele>4.41</ele>
        <time>2020-07-08T11:22:15Z</time>
      </trkpt>
      <trkpt lat="47.84946" lon="-3.53096">
        <ele>4.44</ele>
        <time>2020-07-08T11:22:16Z</time>
      </trkpt>
      <trkpt lat="47.84941" lon="-3.53095">
        <ele>4.44</ele>
        <time>2020-07-08T11:22:17Z</time>
      </trkpt>
      <trkpt lat="47.84936" lon="-3.53094">
        <ele>4.41</ele>
        <time>2020-07-08T11:22:18Z</time>
      </trkpt>
      <trkpt lat="47.84932" lon="-3.53093">
        <ele>4.37</ele>
        <time>2020-07-08T11:22:19Z</time>
      </trkpt>
      <trkpt lat="47.84928" lon="-3.53091">
        <ele>4.31</ele>
        <time>2020-07-08T11:22:20Z</time>
      </trkpt>
      <trkpt lat="47.84923" lon="-3.53091">
        <ele>4.27</ele>
        <time>2020-07-08T11:22:21Z</time>
      </trkpt>
      <trkpt lat="47.84918" lon="-3.53089">
        <ele>4.23</ele>
        <time>2020-07-08T11:22:22Z</time>
      </trkpt>
      <trkpt lat="47.84914" lon="-3.53088">
        <ele>4.27</ele>
        <time>2020-07-08T11:22:23Z</time>
      </trkpt>
      <trkpt lat="47.8491" lon="-3.53088">
        <ele>4.36</ele>
        <time>2020-07-08T11:22:24Z</time>
      </trkpt>
      <trkpt lat="47.84905" lon="-3.53086">
        <ele>4.47</ele>
        <time>2020-07-08T11:22:25Z</time>
      </trkpt>
      <trkpt lat="47.84901" lon="-3.53086">
        <ele>4.58</ele>
        <time>2020-07-08T11:22:26Z</time>
      </trkpt>
      <trkpt lat="47.84896" lon="-3.53085">
        <ele>4.71</ele>
        <time>2020-07-08T11:22:27Z</time>
      </trkpt>
      <trkpt lat="47.84892" lon="-3.53083">
        <ele>4.84</ele>
        <time>2020-07-08T11:22:28Z</time>
      </trkpt>
      <trkpt lat="47.84887" lon="-3.53081">
        <ele>4.95</ele>
        <time>2020-07-08T11:22:29Z</time>
      </trkpt>
      <trkpt lat="47.84883" lon="-3.5308">
        <ele>4.99</ele>
        <time>2020-07-08T11:22:30Z</time>
      </trkpt>
      <trkpt lat="47.84878" lon="-3.53079">
        <ele>5</ele>
        <time>2020-07-08T11:22:31Z</time>
      </trkpt>
      <trkpt lat="47.84872" lon="-3.53078">
        <ele>5</ele>
        <time>2020-07-08T11:22:32Z</time>
      </trkpt>
      <trkpt lat="47.84867" lon="-3.53078">
        <ele>5</ele>
        <time>2020-07-08T11:22:33Z</time>
      </trkpt>
      <trkpt lat="47.84863" lon="-3.53077">
        <ele>5</ele>
        <time>2020-07-08T11:22:34Z</time>
      </trkpt>
      <trkpt lat="47.84858" lon="-3.53077">
        <ele>4.84</ele>
        <time>2020-07-08T11:22:35Z</time>
      </trkpt>
      <trkpt lat="47.84852" lon="-3.53077">
        <ele>4.55</ele>
        <time>2020-07-08T11:22:36Z</time>
      </trkpt>
      <trkpt lat="47.84847" lon="-3.53076">
        <ele>4.27</ele>
        <time>2020-07-08T11:22:37Z</time>
      </trkpt>
      <trkpt lat="47.84843" lon="-3.53076">
        <ele>4</ele>
        <time>2020-07-08T11:22:38Z</time>
      </trkpt>
      <trkpt lat="47.84838" lon="-3.53075">
        <ele>3.72</ele>
        <time>2020-07-08T11:22:39Z</time>
      </trkpt>
      <trkpt lat="47.84833" lon="-3.53076">
        <ele>3.39</ele>
        <time>2020-07-08T11:22:40Z</time>
      </trkpt>
      <trkpt lat="47.84828" lon="-3.53077">
        <ele>2.98</ele>
        <time>2020-07-08T11:22:41Z</time>
      </trkpt>
      <trkpt lat="47.84823" lon="-3.53078">
        <ele>2.55</ele>
        <time>2020-07-08T11:22:42Z</time>
      </trkpt>
      <trkpt lat="47.84818" lon="-3.53079">
        <ele>2.15</ele>
        <time>2020-07-08T11:22:43Z</time>
      </trkpt>
      <trkpt lat="47.84814" lon="-3.53079">
        <ele>1.79</ele>
        <time>2020-07-08T11:22:44Z</time>
      </trkpt>
      <trkpt lat="47.84809" lon="-3.53079">
        <ele>1.44</ele>
        <time>2020-07-08T11:22:45Z</time>
      </trkpt>
      <trkpt lat="47.84805" lon="-3.53079">
        <ele>1.13</ele>
        <time>2020-07-08T11:22:46Z</time>
      </trkpt>
      <trkpt lat="47.848" lon="-3.5308">
        <ele>1.03</ele>
        <time>2020-07-08T11:22:47Z</time>
      </trkpt>
      <trkpt lat="47.84796" lon="-3.53081">
        <ele>0.99</ele>
        <time>2020-07-08T11:22:48Z</time>
      </trkpt>
      <trkpt lat="47.84791" lon="-3.53082">
        <ele>0.98</ele>
        <time>2020-07-08T11:22:49Z</time>
      </trkpt>
      <trkpt lat="47.84787" lon="-3.53084">
        <ele>1.03</ele>
        <time>2020-07-08T11:22:50Z</time>
      </trkpt>
      <trkpt lat="47.84781" lon="-3.53085">
        <ele>1.1</ele>
        <time>2020-07-08T11:22:51Z</time>
      </trkpt>
      <trkpt lat="47.84776" lon="-3.53086">
        <ele>1.18</ele>
        <time>2020-07-08T11:22:52Z</time>
      </trkpt>
      <trkpt lat="47.84771" lon="-3.53088">
        <ele>1.26</ele>
        <time>2020-07-08T11:22:53Z</time>
      </trkpt>
      <trkpt lat="47.84767" lon="-3.53088">
        <ele>1.29</ele>
        <time>2020-07-08T11:22:54Z</time>
      </trkpt>
      <trkpt lat="47.84762" lon="-3.53087">
        <ele>1.25</ele>
        <time>2020-07-08T11:22:55Z</time>
      </trkpt>
      <trkpt lat="47.84756" lon="-3.53085">
        <ele>1.14</ele>
        <time>2020-07-08T11:22:56Z</time>
      </trkpt>
      <trkpt lat="47.84751" lon="-3.53081">
        <ele>0.99</ele>
        <time>2020-07-08T11:22:57Z</time>
      </trkpt>
      <trkpt lat="47.84747" lon="-3.53078">
        <ele>1.01</ele>
        <time>2020-07-08T11:22:58Z</time>
      </trkpt>
      <trkpt lat="47.84743" lon="-3.53073">
        <ele>1.11</ele>
        <time>2020-07-08T11:22:59Z</time>
      </trkpt>
      <trkpt lat="47.8474" lon="-3.53069">
        <ele>1.2</ele>
        <time>2020-07-08T11:23:00Z</time>
      </trkpt>
      <trkpt lat="47.84736" lon="-3.53064">
        <ele>1.28</ele>
        <time>2020-07-08T11:23:01Z</time>
      </trkpt>
      <trkpt lat="47.84733" lon="-3.5306">
        <ele>1.36</ele>
        <time>2020-07-08T11:23:02Z</time>
      </trkpt>
      <trkpt lat="47.84729" lon="-3.53053">
        <ele>1.4</ele>
        <time>2020-07-08T11:23:03Z</time>
      </trkpt>
      <trkpt lat="47.84726" lon="-3.53047">
        <ele>1.34</ele>
        <time>2020-07-08T11:23:04Z</time>
      </trkpt>
      <trkpt lat="47.84724" lon="-3.53042">
        <ele>1.13</ele>
        <time>2020-07-08T11:23:05Z</time>
      </trkpt>
      <trkpt lat="47.84721" lon="-3.53037">
        <ele>0.89</ele>
        <time>2020-07-08T11:23:06Z</time>
      </trkpt>
      <trkpt lat="47.84719" lon="-3.5303">
        <ele>0.84</ele>
        <time>2020-07-08T11:23:07Z</time>
      </trkpt>
      <trkpt lat="47.84717" lon="-3.53024">
        <ele>1.17</ele>
        <time>2020-07-08T11:23:08Z</time>
      </trkpt>
      <trkpt lat="47.84715" lon="-3.53017">
        <ele>1.73</ele>
        <time>2020-07-08T11:23:09Z</time>
      </trkpt>
      <trkpt lat="47.84713" lon="-3.53011">
        <ele>2.25</ele>
        <time>2020-07-08T11:23:10Z</time>
      </trkpt>
      <trkpt lat="47.84711" lon="-3.53004">
        <ele>2.66</ele>
        <time>2020-07-08T11:23:11Z</time>
      </trkpt>
      <trkpt lat="47.8471" lon="-3.52998">
        <ele>2.94</ele>
        <time>2020-07-08T11:23:12Z</time>
      </trkpt>
      <trkpt lat="47.84709" lon="-3.52992">
        <ele>3.18</ele>
        <time>2020-07-08T11:23:13Z</time>
      </trkpt>
      <trkpt lat="47.84707" lon="-3.52986">
        <ele>3.41</ele>
        <time>2020-07-08T11:23:14Z</time>
      </trkpt>
      <trkpt lat="47.84705" lon="-3.52979">
        <ele>3.65</ele>
        <time>2020-07-08T11:23:15Z</time>
      </trkpt>
      <trkpt lat="47.84703" lon="-3.52973">
        <ele>3.87</ele>
        <time>2020-07-08T11:23:16Z</time>
      </trkpt>
      <trkpt lat="47.84702" lon="-3.52967">
        <ele>3.96</ele>
        <time>2020-07-08T11:23:17Z</time>
      </trkpt>
      <trkpt lat="47.84701" lon="-3.5296">
        <ele>3.99</ele>
        <time>2020-07-08T11:23:18Z</time>
      </trkpt>
      <trkpt lat="47.84699" lon="-3.52954">
        <ele>4</ele>
        <time>2020-07-08T11:23:19Z</time>
      </trkpt>
      <trkpt lat="47.84698" lon="-3.52949">
        <ele>4</ele>
        <time>2020-07-08T11:23:20Z</time>
      </trkpt>
      <trkpt lat="47.84696" lon="-3.52944">
        <ele>4</ele>
        <time>2020-07-08T11:23:21Z</time>
      </trkpt>
      <trkpt lat="47.84693" lon="-3.52939">
        <ele>4.03</ele>
        <time>2020-07-08T11:23:22Z</time>
      </trkpt>
      <trkpt lat="47.84689" lon="-3.52935">
        <ele>4.1</ele>
        <time>2020-07-08T11:23:23Z</time>
      </trkpt>
      <trkpt lat="47.84685" lon="-3.52932">
        <ele>4.17</ele>
        <time>2020-07-08T11:23:24Z</time>
      </trkpt>
      <trkpt lat="47.8468" lon="-3.52929">
        <ele>4.21</ele>
        <time>2020-07-08T11:23:25Z</time>
      </trkpt>
      <trkpt lat="47.84675" lon="-3.52925">
        <ele>4.21</ele>
        <time>2020-07-08T11:23:26Z</time>
      </trkpt>
      <trkpt lat="47.84671" lon="-3.52921">
        <ele>4.17</ele>
        <time>2020-07-08T11:23:27Z</time>
      </trkpt>
      <trkpt lat="47.84667" lon="-3.52918">
        <ele>4.09</ele>
        <time>2020-07-08T11:23:28Z</time>
      </trkpt>
      <trkpt lat="47.84663" lon="-3.52915">
        <ele>4.3</ele>
        <time>2020-07-08T11:23:29Z</time>
      </trkpt>
      <trkpt lat="47.84658" lon="-3.52912">
        <ele>4.62</ele>
        <time>2020-07-08T11:23:30Z</time>
      </trkpt>
      <trkpt lat="47.84654" lon="-3.52909">
        <ele>4.88</ele>
        <time>2020-07-08T11:23:31Z</time>
      </trkpt>
      <trkpt lat="47.8465" lon="-3.52905">
        <ele>5.03</ele>
        <time>2020-07-08T11:23:32Z</time>
      </trkpt>
      <trkpt lat="47.84646" lon="-3.52902">
        <ele>5.09</ele>
        <time>2020-07-08T11:23:33Z</time>
      </trkpt>
      <trkpt lat="47.84642" lon="-3.529">
        <ele>5.05</ele>
        <time>2020-07-08T11:23:34Z</time>
      </trkpt>
      <trkpt lat="47.84638" lon="-3.52897">
        <ele>4.93</ele>
        <time>2020-07-08T11:23:35Z</time>
      </trkpt>
      <trkpt lat="47.84634" lon="-3.52896">
        <ele>4.72</ele>
        <time>2020-07-08T11:23:36Z</time>
      </trkpt>
      <trkpt lat="47.84629" lon="-3.52895">
        <ele>4.5</ele>
        <time>2020-07-08T11:23:37Z</time>
      </trkpt>
      <trkpt lat="47.84625" lon="-3.52894">
        <ele>4.33</ele>
        <time>2020-07-08T11:23:38Z</time>
      </trkpt>
      <trkpt lat="47.8462" lon="-3.52895">
        <ele>4.24</ele>
        <time>2020-07-08T11:23:39Z</time>
      </trkpt>
      <trkpt lat="47.84614" lon="-3.52895">
        <ele>4.23</ele>
        <time>2020-07-08T11:23:40Z</time>
      </trkpt>
      <trkpt lat="47.84609" lon="-3.52897">
        <ele>4.27</ele>
        <time>2020-07-08T11:23:41Z</time>
      </trkpt>
      <trkpt lat="47.84605" lon="-3.52899">
        <ele>4.4</ele>
        <time>2020-07-08T11:23:42Z</time>
      </trkpt>
      <trkpt lat="47.846" lon="-3.52901">
        <ele>4.45</ele>
        <time>2020-07-08T11:23:43Z</time>
      </trkpt>
      <trkpt lat="47.84596" lon="-3.52902">
        <ele>4.57</ele>
        <time>2020-07-08T11:23:44Z</time>
      </trkpt>
      <trkpt lat="47.84592" lon="-3.52904">
        <ele>4.61</ele>
        <time>2020-07-08T11:23:45Z</time>
      </trkpt>
      <trkpt lat="47.84589" lon="-3.52904">
        <ele>4.61</ele>
        <time>2020-07-08T11:23:46Z</time>
      </trkpt>
      <trkpt lat="47.84585" lon="-3.52905">
        <ele>4.66</ele>
        <time>2020-07-08T11:23:47Z</time>
      </trkpt>
      <trkpt lat="47.84581" lon="-3.52908">
        <ele>4.82</ele>
        <time>2020-07-08T11:23:48Z</time>
      </trkpt>
      <trkpt lat="47.84577" lon="-3.5291">
        <ele>4.91</ele>
        <time>2020-07-08T11:23:49Z</time>
      </trkpt>
      <trkpt lat="47.84572" lon="-3.52912">
        <ele>4.91</ele>
        <time>2020-07-08T11:23:50Z</time>
      </trkpt>
      <trkpt lat="47.84568" lon="-3.52912">
        <ele>4.5</ele>
        <time>2020-07-08T11:23:51Z</time>
      </trkpt>
      <trkpt lat="47.84564" lon="-3.52912">
        <ele>4.12</ele>
        <time>2020-07-08T11:23:52Z</time>
      </trkpt>
      <trkpt lat="47.8456" lon="-3.52912">
        <ele>3.72</ele>
        <time>2020-07-08T11:23:53Z</time>
      </trkpt>
      <trkpt lat="47.84555" lon="-3.52911">
        <ele>3.25</ele>
        <time>2020-07-08T11:23:54Z</time>
      </trkpt>
      <trkpt lat="47.84551" lon="-3.52912">
        <ele>3.27</ele>
        <time>2020-07-08T11:23:55Z</time>
      </trkpt>
      <trkpt lat="47.84547" lon="-3.52912">
        <ele>3.33</ele>
        <time>2020-07-08T11:23:56Z</time>
      </trkpt>
      <trkpt lat="47.84543" lon="-3.52911">
        <ele>3.3</ele>
        <time>2020-07-08T11:23:57Z</time>
      </trkpt>
      <trkpt lat="47.84538" lon="-3.5291">
        <ele>3.28</ele>
        <time>2020-07-08T11:23:58Z</time>
      </trkpt>
      <trkpt lat="47.84535" lon="-3.52909">
        <ele>3.2</ele>
        <time>2020-07-08T11:23:59Z</time>
      </trkpt>
      <trkpt lat="47.84531" lon="-3.52908">
        <ele>3.09</ele>
        <time>2020-07-08T11:24:00Z</time>
      </trkpt>
      <trkpt lat="47.84527" lon="-3.52908">
        <ele>3.08</ele>
        <time>2020-07-08T11:24:01Z</time>
      </trkpt>
      <trkpt lat="47.84523" lon="-3.52907">
        <ele>3.22</ele>
        <time>2020-07-08T11:24:02Z</time>
      </trkpt>
      <trkpt lat="47.84519" lon="-3.52908">
        <ele>3.69</ele>
        <time>2020-07-08T11:24:03Z</time>
      </trkpt>
      <trkpt lat="47.84514" lon="-3.52908">
        <ele>4.11</ele>
        <time>2020-07-08T11:24:04Z</time>
      </trkpt>
      <trkpt lat="47.84509" lon="-3.52907">
        <ele>4.3</ele>
        <time>2020-07-08T11:24:05Z</time>
      </trkpt>
      <trkpt lat="47.84505" lon="-3.52905">
        <ele>4.27</ele>
        <time>2020-07-08T11:24:06Z</time>
      </trkpt>
      <trkpt lat="47.84501" lon="-3.52903">
        <ele>4.15</ele>
        <time>2020-07-08T11:24:07Z</time>
      </trkpt>
      <trkpt lat="47.84497" lon="-3.52902">
        <ele>4.31</ele>
        <time>2020-07-08T11:24:08Z</time>
      </trkpt>
      <trkpt lat="47.84494" lon="-3.52899">
        <ele>4.41</ele>
        <time>2020-07-08T11:24:09Z</time>
      </trkpt>
      <trkpt lat="47.8449" lon="-3.52896">
        <ele>4.32</ele>
        <time>2020-07-08T11:24:10Z</time>
      </trkpt>
      <trkpt lat="47.84486" lon="-3.52892">
        <ele>4.17</ele>
        <time>2020-07-08T11:24:11Z</time>
      </trkpt>
      <trkpt lat="47.84482" lon="-3.5289">
        <ele>4.05</ele>
        <time>2020-07-08T11:24:12Z</time>
      </trkpt>
      <trkpt lat="47.84479" lon="-3.52887">
        <ele>4.09</ele>
        <time>2020-07-08T11:24:13Z</time>
      </trkpt>
      <trkpt lat="47.84475" lon="-3.52884">
        <ele>4.28</ele>
        <time>2020-07-08T11:24:14Z</time>
      </trkpt>
      <trkpt lat="47.84472" lon="-3.52881">
        <ele>4.34</ele>
        <time>2020-07-08T11:24:15Z</time>
      </trkpt>
      <trkpt lat="47.84468" lon="-3.52879">
        <ele>4.4</ele>
        <time>2020-07-08T11:24:16Z</time>
      </trkpt>
      <trkpt lat="47.84465" lon="-3.52876">
        <ele>4.5</ele>
        <time>2020-07-08T11:24:17Z</time>
      </trkpt>
      <trkpt lat="47.84462" lon="-3.52873">
        <ele>4.55</ele>
        <time>2020-07-08T11:24:18Z</time>
      </trkpt>
      <trkpt lat="47.84458" lon="-3.52871">
        <ele>4.6</ele>
        <time>2020-07-08T11:24:19Z</time>
      </trkpt>
      <trkpt lat="47.84455" lon="-3.52869">
        <ele>4.74</ele>
        <time>2020-07-08T11:24:20Z</time>
      </trkpt>
      <trkpt lat="47.84452" lon="-3.52866">
        <ele>4.72</ele>
        <time>2020-07-08T11:24:21Z</time>
      </trkpt>
      <trkpt lat="47.84448" lon="-3.52863">
        <ele>4.84</ele>
        <time>2020-07-08T11:24:22Z</time>
      </trkpt>
      <trkpt lat="47.84443" lon="-3.5286">
        <ele>4.86</ele>
        <time>2020-07-08T11:24:23Z</time>
      </trkpt>
      <trkpt lat="47.8444" lon="-3.52856">
        <ele>4.55</ele>
        <time>2020-07-08T11:24:24Z</time>
      </trkpt>
      <trkpt lat="47.84436" lon="-3.52852">
        <ele>4.13</ele>
        <time>2020-07-08T11:24:25Z</time>
      </trkpt>
      <trkpt lat="47.84431" lon="-3.52848">
        <ele>3.82</ele>
        <time>2020-07-08T11:24:26Z</time>
      </trkpt>
      <trkpt lat="47.84426" lon="-3.52846">
        <ele>3.67</ele>
        <time>2020-07-08T11:24:27Z</time>
      </trkpt>
      <trkpt lat="47.84421" lon="-3.52846">
        <ele>3.87</ele>
        <time>2020-07-08T11:24:28Z</time>
      </trkpt>
      <trkpt lat="47.84416" lon="-3.52847">
        <ele>4.3</ele>
        <time>2020-07-08T11:24:29Z</time>
      </trkpt>
      <trkpt lat="47.84411" lon="-3.5285">
        <ele>4.56</ele>
        <time>2020-07-08T11:24:30Z</time>
      </trkpt>
      <trkpt lat="47.84406" lon="-3.52853">
        <ele>4.63</ele>
        <time>2020-07-08T11:24:31Z</time>
      </trkpt>
      <trkpt lat="47.84402" lon="-3.52856">
        <ele>4.46</ele>
        <time>2020-07-08T11:24:32Z</time>
      </trkpt>
      <trkpt lat="47.84397" lon="-3.52859">
        <ele>4.15</ele>
        <time>2020-07-08T11:24:33Z</time>
      </trkpt>
      <trkpt lat="47.84392" lon="-3.52863">
        <ele>3.85</ele>
        <time>2020-07-08T11:24:34Z</time>
      </trkpt>
      <trkpt lat="47.84388" lon="-3.52868">
        <ele>3.76</ele>
        <time>2020-07-08T11:24:35Z</time>
      </trkpt>
      <trkpt lat="47.84383" lon="-3.52874">
        <ele>3.99</ele>
        <time>2020-07-08T11:24:36Z</time>
      </trkpt>
      <trkpt lat="47.84379" lon="-3.52879">
        <ele>4.18</ele>
        <time>2020-07-08T11:24:37Z</time>
      </trkpt>
      <trkpt lat="47.84374" lon="-3.52886">
        <ele>4.21</ele>
        <time>2020-07-08T11:24:38Z</time>
      </trkpt>
      <trkpt lat="47.84369" lon="-3.52892">
        <ele>4.09</ele>
        <time>2020-07-08T11:24:39Z</time>
      </trkpt>
      <trkpt lat="47.84364" lon="-3.52898">
        <ele>3.8</ele>
        <time>2020-07-08T11:24:40Z</time>
      </trkpt>
      <trkpt lat="47.84359" lon="-3.52903">
        <ele>3.44</ele>
        <time>2020-07-08T11:24:41Z</time>
      </trkpt>
      <trkpt lat="47.84354" lon="-3.5291">
        <ele>3.18</ele>
        <time>2020-07-08T11:24:42Z</time>
      </trkpt>
      <trkpt lat="47.8435" lon="-3.52918">
        <ele>2.95</ele>
        <time>2020-07-08T11:24:43Z</time>
      </trkpt>
      <trkpt lat="47.84348" lon="-3.52929">
        <ele>2.68</ele>
        <time>2020-07-08T11:24:44Z</time>
      </trkpt>
      <trkpt lat="47.84345" lon="-3.52939">
        <ele>2.32</ele>
        <time>2020-07-08T11:24:45Z</time>
      </trkpt>
      <trkpt lat="47.84344" lon="-3.52948">
        <ele>2.05</ele>
        <time>2020-07-08T11:24:46Z</time>
      </trkpt>
      <trkpt lat="47.84342" lon="-3.52955">
        <ele>1.92</ele>
        <time>2020-07-08T11:24:47Z</time>
      </trkpt>
      <trkpt lat="47.84341" lon="-3.52963">
        <ele>1.89</ele>
        <time>2020-07-08T11:24:48Z</time>
      </trkpt>
      <trkpt lat="47.84341" lon="-3.52969">
        <ele>1.95</ele>
        <time>2020-07-08T11:24:49Z</time>
      </trkpt>
      <trkpt lat="47.84341" lon="-3.52975">
        <ele>2.06</ele>
        <time>2020-07-08T11:24:50Z</time>
      </trkpt>
      <trkpt lat="47.84343" lon="-3.52981">
        <ele>2.24</ele>
        <time>2020-07-08T11:24:51Z</time>
      </trkpt>
      <trkpt lat="47.84344" lon="-3.52987">
        <ele>2.41</ele>
        <time>2020-07-08T11:24:52Z</time>
      </trkpt>
      <trkpt lat="47.84345" lon="-3.52991">
        <ele>2.57</ele>
        <time>2020-07-08T11:24:53Z</time>
      </trkpt>
      <trkpt lat="47.84346" lon="-3.52995">
        <ele>2.73</ele>
        <time>2020-07-08T11:24:54Z</time>
      </trkpt>
      <trkpt lat="47.84347" lon="-3.53">
        <ele>2.9</ele>
        <time>2020-07-08T11:24:55Z</time>
      </trkpt>
      <trkpt lat="47.84348" lon="-3.53005">
        <ele>3.1</ele>
        <time>2020-07-08T11:24:56Z</time>
      </trkpt>
      <trkpt lat="47.8435" lon="-3.53009">
        <ele>3.34</ele>
        <time>2020-07-08T11:24:57Z</time>
      </trkpt>
      <trkpt lat="47.84353" lon="-3.53013">
        <ele>3.63</ele>
        <time>2020-07-08T11:24:58Z</time>
      </trkpt>
      <trkpt lat="47.84356" lon="-3.53017">
        <ele>4.02</ele>
        <time>2020-07-08T11:24:59Z</time>
      </trkpt>
      <trkpt lat="47.84358" lon="-3.53022">
        <ele>4.43</ele>
        <time>2020-07-08T11:25:00Z</time>
      </trkpt>
      <trkpt lat="47.84361" lon="-3.53027">
        <ele>4.86</ele>
        <time>2020-07-08T11:25:01Z</time>
      </trkpt>
      <trkpt lat="47.84366" lon="-3.53033">
        <ele>5.34</ele>
        <time>2020-07-08T11:25:02Z</time>
      </trkpt>
      <trkpt lat="47.84369" lon="-3.53038">
        <ele>5.63</ele>
        <time>2020-07-08T11:25:03Z</time>
      </trkpt>
      <trkpt lat="47.84371" lon="-3.53043">
        <ele>5.84</ele>
        <time>2020-07-08T11:25:04Z</time>
      </trkpt>
      <trkpt lat="47.84374" lon="-3.53048">
        <ele>5.92</ele>
        <time>2020-07-08T11:25:05Z</time>
      </trkpt>
      <trkpt lat="47.84377" lon="-3.53053">
        <ele>5.92</ele>
        <time>2020-07-08T11:25:06Z</time>
      </trkpt>
      <trkpt lat="47.84381" lon="-3.53058">
        <ele>5.97</ele>
        <time>2020-07-08T11:25:07Z</time>
      </trkpt>
      <trkpt lat="47.84384" lon="-3.53064">
        <ele>5.98</ele>
        <time>2020-07-08T11:25:08Z</time>
      </trkpt>
      <trkpt lat="47.84388" lon="-3.5307">
        <ele>5.91</ele>
        <time>2020-07-08T11:25:09Z</time>
      </trkpt>
      <trkpt lat="47.84392" lon="-3.53077">
        <ele>5.91</ele>
        <time>2020-07-08T11:25:10Z</time>
      </trkpt>
      <trkpt lat="47.84395" lon="-3.53083">
        <ele>5.95</ele>
        <time>2020-07-08T11:25:11Z</time>
      </trkpt>
      <trkpt lat="47.84399" lon="-3.53088">
        <ele>6.27</ele>
        <time>2020-07-08T11:25:12Z</time>
      </trkpt>
      <trkpt lat="47.84402" lon="-3.53092">
        <ele>6.69</ele>
        <time>2020-07-08T11:25:13Z</time>
      </trkpt>
      <trkpt lat="47.84405" lon="-3.53097">
        <ele>7.16</ele>
        <time>2020-07-08T11:25:14Z</time>
      </trkpt>
      <trkpt lat="47.84409" lon="-3.531">
        <ele>7.64</ele>
        <time>2020-07-08T11:25:15Z</time>
      </trkpt>
      <trkpt lat="47.84412" lon="-3.53105">
        <ele>8.11</ele>
        <time>2020-07-08T11:25:16Z</time>
      </trkpt>
      <trkpt lat="47.84415" lon="-3.53109">
        <ele>8.58</ele>
        <time>2020-07-08T11:25:17Z</time>
      </trkpt>
      <trkpt lat="47.84418" lon="-3.53113">
        <ele>8.87</ele>
        <time>2020-07-08T11:25:18Z</time>
      </trkpt>
      <trkpt lat="47.8442" lon="-3.53116">
        <ele>8.89</ele>
        <time>2020-07-08T11:25:19Z</time>
      </trkpt>
      <trkpt lat="47.84423" lon="-3.53119">
        <ele>8.86</ele>
        <time>2020-07-08T11:25:20Z</time>
      </trkpt>
      <trkpt lat="47.84425" lon="-3.53122">
        <ele>8.83</ele>
        <time>2020-07-08T11:25:21Z</time>
      </trkpt>
      <trkpt lat="47.84428" lon="-3.53125">
        <ele>8.8</ele>
        <time>2020-07-08T11:25:22Z</time>
      </trkpt>
      <trkpt lat="47.84432" lon="-3.53129">
        <ele>8.8</ele>
        <time>2020-07-08T11:25:23Z</time>
      </trkpt>
      <trkpt lat="47.84435" lon="-3.53132">
        <ele>8.85</ele>
        <time>2020-07-08T11:25:24Z</time>
      </trkpt>
      <trkpt lat="47.84439" lon="-3.53135">
        <ele>8.87</ele>
        <time>2020-07-08T11:25:25Z</time>
      </trkpt>
      <trkpt lat="47.84441" lon="-3.53139">
        <ele>8.75</ele>
        <time>2020-07-08T11:25:26Z</time>
      </trkpt>
      <trkpt lat="47.84443" lon="-3.53143">
        <ele>8.53</ele>
        <time>2020-07-08T11:25:27Z</time>
      </trkpt>
      <trkpt lat="47.84445" lon="-3.53148">
        <ele>8.22</ele>
        <time>2020-07-08T11:25:28Z</time>
      </trkpt>
      <trkpt lat="47.84446" lon="-3.53154">
        <ele>7.76</ele>
        <time>2020-07-08T11:25:29Z</time>
      </trkpt>
      <trkpt lat="47.84446" lon="-3.5316">
        <ele>7.15</ele>
        <time>2020-07-08T11:25:30Z</time>
      </trkpt>
      <trkpt lat="47.84446" lon="-3.53166">
        <ele>6.46</ele>
        <time>2020-07-08T11:25:31Z</time>
      </trkpt>
      <trkpt lat="47.84445" lon="-3.53172">
        <ele>6.14</ele>
        <time>2020-07-08T11:25:32Z</time>
      </trkpt>
      <trkpt lat="47.84443" lon="-3.53177">
        <ele>6.02</ele>
        <time>2020-07-08T11:25:33Z</time>
      </trkpt>
      <trkpt lat="47.84442" lon="-3.53181">
        <ele>5.94</ele>
        <time>2020-07-08T11:25:34Z</time>
      </trkpt>
      <trkpt lat="47.8444" lon="-3.53185">
        <ele>5.88</ele>
        <time>2020-07-08T11:25:35Z</time>
      </trkpt>
      <trkpt lat="47.84438" lon="-3.5319">
        <ele>5.8</ele>
        <time>2020-07-08T11:25:36Z</time>
      </trkpt>
      <trkpt lat="47.84436" lon="-3.53195">
        <ele>5.75</ele>
        <time>2020-07-08T11:25:37Z</time>
      </trkpt>
      <trkpt lat="47.84433" lon="-3.53201">
        <ele>5.83</ele>
        <time>2020-07-08T11:25:38Z</time>
      </trkpt>
      <trkpt lat="47.8443" lon="-3.53206">
        <ele>5.88</ele>
        <time>2020-07-08T11:25:39Z</time>
      </trkpt>
      <trkpt lat="47.84427" lon="-3.53211">
        <ele>5.86</ele>
        <time>2020-07-08T11:25:40Z</time>
      </trkpt>
      <trkpt lat="47.84424" lon="-3.53216">
        <ele>5.73</ele>
        <time>2020-07-08T11:25:41Z</time>
      </trkpt>
      <trkpt lat="47.84421" lon="-3.5322">
        <ele>5.52</ele>
        <time>2020-07-08T11:25:42Z</time>
      </trkpt>
      <trkpt lat="47.84418" lon="-3.53224">
        <ele>5.32</ele>
        <time>2020-07-08T11:25:43Z</time>
      </trkpt>
      <trkpt lat="47.84415" lon="-3.53229">
        <ele>5.22</ele>
        <time>2020-07-08T11:25:44Z</time>
      </trkpt>
      <trkpt lat="47.84411" lon="-3.53233">
        <ele>5.2</ele>
        <time>2020-07-08T11:25:45Z</time>
      </trkpt>
      <trkpt lat="47.84407" lon="-3.53237">
        <ele>5.19</ele>
        <time>2020-07-08T11:25:46Z</time>
      </trkpt>
      <trkpt lat="47.84403" lon="-3.5324">
        <ele>5.18</ele>
        <time>2020-07-08T11:25:47Z</time>
      </trkpt>
      <trkpt lat="47.84399" lon="-3.53243">
        <ele>5.14</ele>
        <time>2020-07-08T11:25:48Z</time>
      </trkpt>
      <trkpt lat="47.84395" lon="-3.53245">
        <ele>5.06</ele>
        <time>2020-07-08T11:25:49Z</time>
      </trkpt>
      <trkpt lat="47.84391" lon="-3.53246">
        <ele>4.99</ele>
        <time>2020-07-08T11:25:50Z</time>
      </trkpt>
      <trkpt lat="47.84387" lon="-3.53247">
        <ele>4.98</ele>
        <time>2020-07-08T11:25:51Z</time>
      </trkpt>
      <trkpt lat="47.84383" lon="-3.53249">
        <ele>5.11</ele>
        <time>2020-07-08T11:25:52Z</time>
      </trkpt>
      <trkpt lat="47.84378" lon="-3.5325">
        <ele>5.3</ele>
        <time>2020-07-08T11:25:53Z</time>
      </trkpt>
      <trkpt lat="47.84374" lon="-3.53251">
        <ele>5.56</ele>
        <time>2020-07-08T11:25:54Z</time>
      </trkpt>
      <trkpt lat="47.8437" lon="-3.53252">
        <ele>5.85</ele>
        <time>2020-07-08T11:25:55Z</time>
      </trkpt>
      <trkpt lat="47.84366" lon="-3.53253">
        <ele>6.09</ele>
        <time>2020-07-08T11:25:56Z</time>
      </trkpt>
      <trkpt lat="47.84363" lon="-3.53253">
        <ele>6.3</ele>
        <time>2020-07-08T11:25:57Z</time>
      </trkpt>
      <trkpt lat="47.8436" lon="-3.53254">
        <ele>6.53</ele>
        <time>2020-07-08T11:25:58Z</time>
      </trkpt>
      <trkpt lat="47.84356" lon="-3.53255">
        <ele>6.82</ele>
        <time>2020-07-08T11:25:59Z</time>
      </trkpt>
      <trkpt lat="47.84352" lon="-3.53256">
        <ele>7.11</ele>
        <time>2020-07-08T11:26:00Z</time>
      </trkpt>
      <trkpt lat="47.84348" lon="-3.53258">
        <ele>7.46</ele>
        <time>2020-07-08T11:26:01Z</time>
      </trkpt>
      <trkpt lat="47.84344" lon="-3.5326">
        <ele>7.85</ele>
        <time>2020-07-08T11:26:02Z</time>
      </trkpt>
      <trkpt lat="47.84341" lon="-3.53262">
        <ele>8.21</ele>
        <time>2020-07-08T11:26:03Z</time>
      </trkpt>
      <trkpt lat="47.84338" lon="-3.53263">
        <ele>8.5</ele>
        <time>2020-07-08T11:26:04Z</time>
      </trkpt>
      <trkpt lat="47.84336" lon="-3.53264">
        <ele>8.77</ele>
        <time>2020-07-08T11:26:05Z</time>
      </trkpt>
      <trkpt lat="47.84333" lon="-3.53265">
        <ele>9.02</ele>
        <time>2020-07-08T11:26:06Z</time>
      </trkpt>
      <trkpt lat="47.8433" lon="-3.53266">
        <ele>9.07</ele>
        <time>2020-07-08T11:26:07Z</time>
      </trkpt>
      <trkpt lat="47.84327" lon="-3.53268">
        <ele>9.13</ele>
        <time>2020-07-08T11:26:08Z</time>
      </trkpt>
      <trkpt lat="47.84324" lon="-3.5327">
        <ele>9.11</ele>
        <time>2020-07-08T11:26:09Z</time>
      </trkpt>
      <trkpt lat="47.84321" lon="-3.53272">
        <ele>9</ele>
        <time>2020-07-08T11:26:10Z</time>
      </trkpt>
      <trkpt lat="47.84318" lon="-3.53273">
        <ele>8.92</ele>
        <time>2020-07-08T11:26:11Z</time>
      </trkpt>
      <trkpt lat="47.84315" lon="-3.53276">
        <ele>8.86</ele>
        <time>2020-07-08T11:26:12Z</time>
      </trkpt>
      <trkpt lat="47.84312" lon="-3.53279">
        <ele>8.95</ele>
        <time>2020-07-08T11:26:13Z</time>
      </trkpt>
      <trkpt lat="47.8431" lon="-3.53283">
        <ele>9.1</ele>
        <time>2020-07-08T11:26:14Z</time>
      </trkpt>
      <trkpt lat="47.84308" lon="-3.53286">
        <ele>9.29</ele>
        <time>2020-07-08T11:26:15Z</time>
      </trkpt>
      <trkpt lat="47.84306" lon="-3.53289">
        <ele>9.49</ele>
        <time>2020-07-08T11:26:16Z</time>
      </trkpt>
      <trkpt lat="47.84304" lon="-3.53291">
        <ele>9.6</ele>
        <time>2020-07-08T11:26:17Z</time>
      </trkpt>
      <trkpt lat="47.84302" lon="-3.53295">
        <ele>9.66</ele>
        <time>2020-07-08T11:26:18Z</time>
      </trkpt>
      <trkpt lat="47.84299" lon="-3.53298">
        <ele>9.65</ele>
        <time>2020-07-08T11:26:19Z</time>
      </trkpt>
      <trkpt lat="47.84297" lon="-3.53302">
        <ele>9.6</ele>
        <time>2020-07-08T11:26:20Z</time>
      </trkpt>
      <trkpt lat="47.84294" lon="-3.53305">
        <ele>9.39</ele>
        <time>2020-07-08T11:26:21Z</time>
      </trkpt>
      <trkpt lat="47.84291" lon="-3.53308">
        <ele>9.33</ele>
        <time>2020-07-08T11:26:22Z</time>
      </trkpt>
      <trkpt lat="47.84289" lon="-3.53312">
        <ele>9.57</ele>
        <time>2020-07-08T11:26:23Z</time>
      </trkpt>
      <trkpt lat="47.84286" lon="-3.53315">
        <ele>9.77</ele>
        <time>2020-07-08T11:26:24Z</time>
      </trkpt>
      <trkpt lat="47.84284" lon="-3.53319">
        <ele>9.98</ele>
        <time>2020-07-08T11:26:25Z</time>
      </trkpt>
      <trkpt lat="47.84281" lon="-3.53323">
        <ele>10.29</ele>
        <time>2020-07-08T11:26:26Z</time>
      </trkpt>
      <trkpt lat="47.84278" lon="-3.53326">
        <ele>10.46</ele>
        <time>2020-07-08T11:26:27Z</time>
      </trkpt>
      <trkpt lat="47.84276" lon="-3.53329">
        <ele>10.57</ele>
        <time>2020-07-08T11:26:28Z</time>
      </trkpt>
      <trkpt lat="47.84274" lon="-3.53332">
        <ele>10.62</ele>
        <time>2020-07-08T11:26:29Z</time>
      </trkpt>
      <trkpt lat="47.84272" lon="-3.53334">
        <ele>10.49</ele>
        <time>2020-07-08T11:26:30Z</time>
      </trkpt>
      <trkpt lat="47.84269" lon="-3.53336">
        <ele>10.33</ele>
        <time>2020-07-08T11:26:31Z</time>
      </trkpt>
      <trkpt lat="47.84267" lon="-3.53339">
        <ele>10.46</ele>
        <time>2020-07-08T11:26:32Z</time>
      </trkpt>
      <trkpt lat="47.84266" lon="-3.53342">
        <ele>10.69</ele>
        <time>2020-07-08T11:26:33Z</time>
      </trkpt>
      <trkpt lat="47.84264" lon="-3.53345">
        <ele>11.05</ele>
        <time>2020-07-08T11:26:34Z</time>
      </trkpt>
      <trkpt lat="47.84262" lon="-3.53348">
        <ele>11.59</ele>
        <time>2020-07-08T11:26:35Z</time>
      </trkpt>
      <trkpt lat="47.84259" lon="-3.53353">
        <ele>12.57</ele>
        <time>2020-07-08T11:26:36Z</time>
      </trkpt>
      <trkpt lat="47.84258" lon="-3.53356">
        <ele>13.53</ele>
        <time>2020-07-08T11:26:37Z</time>
      </trkpt>
      <trkpt lat="47.84256" lon="-3.5336">
        <ele>14.59</ele>
        <time>2020-07-08T11:26:38Z</time>
      </trkpt>
      <trkpt lat="47.84254" lon="-3.53364">
        <ele>15.51</ele>
        <time>2020-07-08T11:26:39Z</time>
      </trkpt>
      <trkpt lat="47.84253" lon="-3.53367">
        <ele>16.38</ele>
        <time>2020-07-08T11:26:40Z</time>
      </trkpt>
      <trkpt lat="47.84251" lon="-3.53371">
        <ele>17.24</ele>
        <time>2020-07-08T11:26:41Z</time>
      </trkpt>
      <trkpt lat="47.84249" lon="-3.53374">
        <ele>17.89</ele>
        <time>2020-07-08T11:26:42Z</time>
      </trkpt>
      <trkpt lat="47.84247" lon="-3.53377">
        <ele>18.3</ele>
        <time>2020-07-08T11:26:43Z</time>
      </trkpt>
      <trkpt lat="47.84245" lon="-3.5338">
        <ele>18.6</ele>
        <time>2020-07-08T11:26:44Z</time>
      </trkpt>
      <trkpt lat="47.84244" lon="-3.53383">
        <ele>19.06</ele>
        <time>2020-07-08T11:26:45Z</time>
      </trkpt>
      <trkpt lat="47.84242" lon="-3.53386">
        <ele>19.61</ele>
        <time>2020-07-08T11:26:46Z</time>
      </trkpt>
      <trkpt lat="47.8424" lon="-3.53388">
        <ele>20.19</ele>
        <time>2020-07-08T11:26:47Z</time>
      </trkpt>
      <trkpt lat="47.84239" lon="-3.53391">
        <ele>20.6</ele>
        <time>2020-07-08T11:26:48Z</time>
      </trkpt>
      <trkpt lat="47.84236" lon="-3.53395">
        <ele>20.88</ele>
        <time>2020-07-08T11:26:49Z</time>
      </trkpt>
      <trkpt lat="47.84234" lon="-3.53398">
        <ele>21.23</ele>
        <time>2020-07-08T11:26:50Z</time>
      </trkpt>
      <trkpt lat="47.84231" lon="-3.53402">
        <ele>21.54</ele>
        <time>2020-07-08T11:26:51Z</time>
      </trkpt>
      <trkpt lat="47.84229" lon="-3.53405">
        <ele>21.72</ele>
        <time>2020-07-08T11:26:52Z</time>
      </trkpt>
      <trkpt lat="47.84226" lon="-3.53408">
        <ele>21.88</ele>
        <time>2020-07-08T11:26:53Z</time>
      </trkpt>
      <trkpt lat="47.84224" lon="-3.5341">
        <ele>21.92</ele>
        <time>2020-07-08T11:26:54Z</time>
      </trkpt>
      <trkpt lat="47.84222" lon="-3.53412">
        <ele>22.08</ele>
        <time>2020-07-08T11:26:55Z</time>
      </trkpt>
      <trkpt lat="47.8422" lon="-3.53414">
        <ele>22.13</ele>
        <time>2020-07-08T11:26:56Z</time>
      </trkpt>
      <trkpt lat="47.84218" lon="-3.53417">
        <ele>22.18</ele>
        <time>2020-07-08T11:26:57Z</time>
      </trkpt>
      <trkpt lat="47.84215" lon="-3.53419">
        <ele>22.09</ele>
        <time>2020-07-08T11:26:58Z</time>
      </trkpt>
      <trkpt lat="47.84213" lon="-3.53424">
        <ele>22.22</ele>
        <time>2020-07-08T11:26:59Z</time>
      </trkpt>
      <trkpt lat="47.8421" lon="-3.53427">
        <ele>22.22</ele>
        <time>2020-07-08T11:27:00Z</time>
      </trkpt>
      <trkpt lat="47.84207" lon="-3.53429">
        <ele>22.17</ele>
        <time>2020-07-08T11:27:01Z</time>
      </trkpt>
      <trkpt lat="47.84204" lon="-3.53432">
        <ele>22.09</ele>
        <time>2020-07-08T11:27:02Z</time>
      </trkpt>
      <trkpt lat="47.84201" lon="-3.53434">
        <ele>22.05</ele>
        <time>2020-07-08T11:27:03Z</time>
      </trkpt>
      <trkpt lat="47.84199" lon="-3.53438">
        <ele>22.26</ele>
        <time>2020-07-08T11:27:04Z</time>
      </trkpt>
      <trkpt lat="47.84197" lon="-3.5344">
        <ele>22.38</ele>
        <time>2020-07-08T11:27:05Z</time>
      </trkpt>
      <trkpt lat="47.84195" lon="-3.53441">
        <ele>22.43</ele>
        <time>2020-07-08T11:27:06Z</time>
      </trkpt>
      <trkpt lat="47.84192" lon="-3.53443">
        <ele>22.53</ele>
        <time>2020-07-08T11:27:07Z</time>
      </trkpt>
      <trkpt lat="47.84189" lon="-3.53445">
        <ele>22.72</ele>
        <time>2020-07-08T11:27:08Z</time>
      </trkpt>
      <trkpt lat="47.84186" lon="-3.53448">
        <ele>23.03</ele>
        <time>2020-07-08T11:27:09Z</time>
      </trkpt>
      <trkpt lat="47.84183" lon="-3.53449">
        <ele>23.17</ele>
        <time>2020-07-08T11:27:10Z</time>
      </trkpt>
      <trkpt lat="47.84179" lon="-3.5345">
        <ele>23.26</ele>
        <time>2020-07-08T11:27:11Z</time>
      </trkpt>
      <trkpt lat="47.84176" lon="-3.53451">
        <ele>23.17</ele>
        <time>2020-07-08T11:27:12Z</time>
      </trkpt>
      <trkpt lat="47.84172" lon="-3.53451">
        <ele>22.97</ele>
        <time>2020-07-08T11:27:13Z</time>
      </trkpt>
      <trkpt lat="47.84168" lon="-3.53451">
        <ele>22.79</ele>
        <time>2020-07-08T11:27:14Z</time>
      </trkpt>
      <trkpt lat="47.84165" lon="-3.53451">
        <ele>22.66</ele>
        <time>2020-07-08T11:27:15Z</time>
      </trkpt>
      <trkpt lat="47.84162" lon="-3.53451">
        <ele>22.77</ele>
        <time>2020-07-08T11:27:16Z</time>
      </trkpt>
      <trkpt lat="47.84159" lon="-3.53451">
        <ele>22.86</ele>
        <time>2020-07-08T11:27:17Z</time>
      </trkpt>
      <trkpt lat="47.84156" lon="-3.53451">
        <ele>23.01</ele>
        <time>2020-07-08T11:27:18Z</time>
      </trkpt>
      <trkpt lat="47.84152" lon="-3.53451">
        <ele>23.12</ele>
        <time>2020-07-08T11:27:19Z</time>
      </trkpt>
      <trkpt lat="47.84149" lon="-3.53451">
        <ele>23.2</ele>
        <time>2020-07-08T11:27:20Z</time>
      </trkpt>
      <trkpt lat="47.84146" lon="-3.53451">
        <ele>23.25</ele>
        <time>2020-07-08T11:27:21Z</time>
      </trkpt>
      <trkpt lat="47.84143" lon="-3.53451">
        <ele>23.27</ele>
        <time>2020-07-08T11:27:22Z</time>
      </trkpt>
      <trkpt lat="47.84139" lon="-3.53451">
        <ele>23.37</ele>
        <time>2020-07-08T11:27:23Z</time>
      </trkpt>
      <trkpt lat="47.84136" lon="-3.53451">
        <ele>22.83</ele>
        <time>2020-07-08T11:27:24Z</time>
      </trkpt>
      <trkpt lat="47.84132" lon="-3.53451">
        <ele>22.03</ele>
        <time>2020-07-08T11:27:25Z</time>
      </trkpt>
      <trkpt lat="47.84128" lon="-3.53452">
        <ele>21.24</ele>
        <time>2020-07-08T11:27:26Z</time>
      </trkpt>
      <trkpt lat="47.84125" lon="-3.53452">
        <ele>20.37</ele>
        <time>2020-07-08T11:27:27Z</time>
      </trkpt>
      <trkpt lat="47.84122" lon="-3.53452">
        <ele>19.47</ele>
        <time>2020-07-08T11:27:28Z</time>
      </trkpt>
      <trkpt lat="47.84118" lon="-3.53451">
        <ele>18.32</ele>
        <time>2020-07-08T11:27:29Z</time>
      </trkpt>
      <trkpt lat="47.84114" lon="-3.5345">
        <ele>16.92</ele>
        <time>2020-07-08T11:27:30Z</time>
      </trkpt>
      <trkpt lat="47.8411" lon="-3.53449">
        <ele>15.79</ele>
        <time>2020-07-08T11:27:31Z</time>
      </trkpt>
      <trkpt lat="47.84106" lon="-3.53451">
        <ele>15.3</ele>
        <time>2020-07-08T11:27:32Z</time>
      </trkpt>
      <trkpt lat="47.84102" lon="-3.53455">
        <ele>15.25</ele>
        <time>2020-07-08T11:27:33Z</time>
      </trkpt>
      <trkpt lat="47.84098" lon="-3.5346">
        <ele>15.86</ele>
        <time>2020-07-08T11:27:34Z</time>
      </trkpt>
      <trkpt lat="47.84095" lon="-3.53467">
        <ele>17.12</ele>
        <time>2020-07-08T11:27:35Z</time>
      </trkpt>
      <trkpt lat="47.84092" lon="-3.53474">
        <ele>18.49</ele>
        <time>2020-07-08T11:27:36Z</time>
      </trkpt>
      <trkpt lat="47.84088" lon="-3.53482">
        <ele>19.24</ele>
        <time>2020-07-08T11:27:37Z</time>
      </trkpt>
      <trkpt lat="47.84083" lon="-3.53489">
        <ele>19.85</ele>
        <time>2020-07-08T11:27:38Z</time>
      </trkpt>
      <trkpt lat="47.84079" lon="-3.53497">
        <ele>19.81</ele>
        <time>2020-07-08T11:27:39Z</time>
      </trkpt>
      <trkpt lat="47.84074" lon="-3.53505">
        <ele>19.35</ele>
        <time>2020-07-08T11:27:40Z</time>
      </trkpt>
      <trkpt lat="47.84069" lon="-3.53512">
        <ele>18.69</ele>
        <time>2020-07-08T11:27:41Z</time>
      </trkpt>
      <trkpt lat="47.84063" lon="-3.53518">
        <ele>18.02</ele>
        <time>2020-07-08T11:27:42Z</time>
      </trkpt>
      <trkpt lat="47.84058" lon="-3.53522">
        <ele>17.52</ele>
        <time>2020-07-08T11:27:43Z</time>
      </trkpt>
      <trkpt lat="47.84051" lon="-3.53527">
        <ele>17.22</ele>
        <time>2020-07-08T11:27:44Z</time>
      </trkpt>
      <trkpt lat="47.84044" lon="-3.53531">
        <ele>16.55</ele>
        <time>2020-07-08T11:27:45Z</time>
      </trkpt>
      <trkpt lat="47.84036" lon="-3.53535">
        <ele>15.69</ele>
        <time>2020-07-08T11:27:46Z</time>
      </trkpt>
      <trkpt lat="47.84027" lon="-3.53539">
        <ele>14.85</ele>
        <time>2020-07-08T11:27:47Z</time>
      </trkpt>
      <trkpt lat="47.84019" lon="-3.53543">
        <ele>13.2</ele>
        <time>2020-07-08T11:27:48Z</time>
      </trkpt>
      <trkpt lat="47.84011" lon="-3.53548">
        <ele>11.75</ele>
        <time>2020-07-08T11:27:49Z</time>
      </trkpt>
      <trkpt lat="47.84005" lon="-3.53553">
        <ele>10.78</ele>
        <time>2020-07-08T11:27:50Z</time>
      </trkpt>
      <trkpt lat="47.83999" lon="-3.53558">
        <ele>10.32</ele>
        <time>2020-07-08T11:27:51Z</time>
      </trkpt>
      <trkpt lat="47.83993" lon="-3.53565">
        <ele>10.04</ele>
        <time>2020-07-08T11:27:52Z</time>
      </trkpt>
      <trkpt lat="47.83989" lon="-3.53573">
        <ele>10.18</ele>
        <time>2020-07-08T11:27:53Z</time>
      </trkpt>
      <trkpt lat="47.83984" lon="-3.53581">
        <ele>10.29</ele>
        <time>2020-07-08T11:27:54Z</time>
      </trkpt>
      <trkpt lat="47.8398" lon="-3.5359">
        <ele>9.87</ele>
        <time>2020-07-08T11:27:55Z</time>
      </trkpt>
      <trkpt lat="47.83976" lon="-3.53599">
        <ele>9.33</ele>
        <time>2020-07-08T11:27:56Z</time>
      </trkpt>
      <trkpt lat="47.83973" lon="-3.53607">
        <ele>8.88</ele>
        <time>2020-07-08T11:27:57Z</time>
      </trkpt>
      <trkpt lat="47.8397" lon="-3.53617">
        <ele>8.63</ele>
        <time>2020-07-08T11:27:58Z</time>
      </trkpt>
      <trkpt lat="47.83968" lon="-3.53626">
        <ele>8.5</ele>
        <time>2020-07-08T11:27:59Z</time>
      </trkpt>
      <trkpt lat="47.83968" lon="-3.53636">
        <ele>8.66</ele>
        <time>2020-07-08T11:28:00Z</time>
      </trkpt>
      <trkpt lat="47.83968" lon="-3.53645">
        <ele>8.68</ele>
        <time>2020-07-08T11:28:01Z</time>
      </trkpt>
      <trkpt lat="47.83968" lon="-3.53653">
        <ele>8.5</ele>
        <time>2020-07-08T11:28:02Z</time>
      </trkpt>
      <trkpt lat="47.83968" lon="-3.53662">
        <ele>8.21</ele>
        <time>2020-07-08T11:28:03Z</time>
      </trkpt>
      <trkpt lat="47.83966" lon="-3.53669">
        <ele>7.61</ele>
        <time>2020-07-08T11:28:04Z</time>
      </trkpt>
      <trkpt lat="47.83962" lon="-3.53672">
        <ele>6.94</ele>
        <time>2020-07-08T11:28:05Z</time>
      </trkpt>
      <trkpt lat="47.83958" lon="-3.53676">
        <ele>6.26</ele>
        <time>2020-07-08T11:28:06Z</time>
      </trkpt>
      <trkpt lat="47.83953" lon="-3.53678">
        <ele>5.44</ele>
        <time>2020-07-08T11:28:07Z</time>
      </trkpt>
      <trkpt lat="47.83949" lon="-3.53681">
        <ele>4.72</ele>
        <time>2020-07-08T11:28:08Z</time>
      </trkpt>
      <trkpt lat="47.83943" lon="-3.53684">
        <ele>4.05</ele>
        <time>2020-07-08T11:28:09Z</time>
      </trkpt>
      <trkpt lat="47.83938" lon="-3.53687">
        <ele>3.84</ele>
        <time>2020-07-08T11:28:10Z</time>
      </trkpt>
      <trkpt lat="47.83933" lon="-3.53689">
        <ele>3.73</ele>
        <time>2020-07-08T11:28:11Z</time>
      </trkpt>
      <trkpt lat="47.83927" lon="-3.53693">
        <ele>3.64</ele>
        <time>2020-07-08T11:28:12Z</time>
      </trkpt>
      <trkpt lat="47.83922" lon="-3.53696">
        <ele>3.63</ele>
        <time>2020-07-08T11:28:13Z</time>
      </trkpt>
      <trkpt lat="47.83917" lon="-3.537">
        <ele>3.64</ele>
        <time>2020-07-08T11:28:14Z</time>
      </trkpt>
      <trkpt lat="47.83912" lon="-3.53705">
        <ele>3.74</ele>
        <time>2020-07-08T11:28:15Z</time>
      </trkpt>
      <trkpt lat="47.83907" lon="-3.53709">
        <ele>3.83</ele>
        <time>2020-07-08T11:28:16Z</time>
      </trkpt>
      <trkpt lat="47.83902" lon="-3.53713">
        <ele>3.81</ele>
        <time>2020-07-08T11:28:17Z</time>
      </trkpt>
      <trkpt lat="47.83896" lon="-3.53721">
        <ele>3.7</ele>
        <time>2020-07-08T11:28:18Z</time>
      </trkpt>
      <trkpt lat="47.8389" lon="-3.53727">
        <ele>3.56</ele>
        <time>2020-07-08T11:28:19Z</time>
      </trkpt>
      <trkpt lat="47.83886" lon="-3.53733">
        <ele>3.61</ele>
        <time>2020-07-08T11:28:20Z</time>
      </trkpt>
      <trkpt lat="47.83881" lon="-3.53738">
        <ele>3.67</ele>
        <time>2020-07-08T11:28:21Z</time>
      </trkpt>
      <trkpt lat="47.83877" lon="-3.53743">
        <ele>3.72</ele>
        <time>2020-07-08T11:28:22Z</time>
      </trkpt>
      <trkpt lat="47.83873" lon="-3.53747">
        <ele>3.73</ele>
        <time>2020-07-08T11:28:23Z</time>
      </trkpt>
      <trkpt lat="47.83869" lon="-3.53753">
        <ele>3.78</ele>
        <time>2020-07-08T11:28:24Z</time>
      </trkpt>
      <trkpt lat="47.83864" lon="-3.53759">
        <ele>3.89</ele>
        <time>2020-07-08T11:28:25Z</time>
      </trkpt>
      <trkpt lat="47.8386" lon="-3.53765">
        <ele>4</ele>
        <time>2020-07-08T11:28:26Z</time>
      </trkpt>
      <trkpt lat="47.83857" lon="-3.53771">
        <ele>4.17</ele>
        <time>2020-07-08T11:28:27Z</time>
      </trkpt>
      <trkpt lat="47.83854" lon="-3.53776">
        <ele>4.31</ele>
        <time>2020-07-08T11:28:28Z</time>
      </trkpt>
      <trkpt lat="47.8385" lon="-3.53783">
        <ele>4.64</ele>
        <time>2020-07-08T11:28:29Z</time>
      </trkpt>
      <trkpt lat="47.83846" lon="-3.5379">
        <ele>4.86</ele>
        <time>2020-07-08T11:28:30Z</time>
      </trkpt>
      <trkpt lat="47.83842" lon="-3.53798">
        <ele>4.79</ele>
        <time>2020-07-08T11:28:31Z</time>
      </trkpt>
      <trkpt lat="47.83839" lon="-3.53805">
        <ele>4.51</ele>
        <time>2020-07-08T11:28:32Z</time>
      </trkpt>
      <trkpt lat="47.83837" lon="-3.53812">
        <ele>4.18</ele>
        <time>2020-07-08T11:28:33Z</time>
      </trkpt>
      <trkpt lat="47.83835" lon="-3.5382">
        <ele>3.8</ele>
        <time>2020-07-08T11:28:34Z</time>
      </trkpt>
      <trkpt lat="47.83833" lon="-3.53827">
        <ele>3.24</ele>
        <time>2020-07-08T11:28:35Z</time>
      </trkpt>
      <trkpt lat="47.83831" lon="-3.53835">
        <ele>3.11</ele>
        <time>2020-07-08T11:28:36Z</time>
      </trkpt>
      <trkpt lat="47.8383" lon="-3.53842">
        <ele>3.24</ele>
        <time>2020-07-08T11:28:37Z</time>
      </trkpt>
      <trkpt lat="47.83828" lon="-3.53847">
        <ele>3.43</ele>
        <time>2020-07-08T11:28:38Z</time>
      </trkpt>
      <trkpt lat="47.83827" lon="-3.53854">
        <ele>3.65</ele>
        <time>2020-07-08T11:28:39Z</time>
      </trkpt>
      <trkpt lat="47.83825" lon="-3.53861">
        <ele>3.89</ele>
        <time>2020-07-08T11:28:40Z</time>
      </trkpt>
      <trkpt lat="47.83824" lon="-3.53866">
        <ele>4.05</ele>
        <time>2020-07-08T11:28:41Z</time>
      </trkpt>
      <trkpt lat="47.83823" lon="-3.53872">
        <ele>4.18</ele>
        <time>2020-07-08T11:28:42Z</time>
      </trkpt>
      <trkpt lat="47.83822" lon="-3.53876">
        <ele>4.28</ele>
        <time>2020-07-08T11:28:43Z</time>
      </trkpt>
      <trkpt lat="47.83821" lon="-3.53881">
        <ele>4.36</ele>
        <time>2020-07-08T11:28:44Z</time>
      </trkpt>
      <trkpt lat="47.83821" lon="-3.53886">
        <ele>4.44</ele>
        <time>2020-07-08T11:28:45Z</time>
      </trkpt>
      <trkpt lat="47.83819" lon="-3.53891">
        <ele>4.56</ele>
        <time>2020-07-08T11:28:46Z</time>
      </trkpt>
      <trkpt lat="47.83819" lon="-3.53897">
        <ele>4.83</ele>
        <time>2020-07-08T11:28:47Z</time>
      </trkpt>
      <trkpt lat="47.83819" lon="-3.53904">
        <ele>5.16</ele>
        <time>2020-07-08T11:28:48Z</time>
      </trkpt>
      <trkpt lat="47.83818" lon="-3.5391">
        <ele>5.38</ele>
        <time>2020-07-08T11:28:49Z</time>
      </trkpt>
      <trkpt lat="47.83816" lon="-3.53916">
        <ele>5.49</ele>
        <time>2020-07-08T11:28:50Z</time>
      </trkpt>
      <trkpt lat="47.83814" lon="-3.53919">
        <ele>5.41</ele>
        <time>2020-07-08T11:28:51Z</time>
      </trkpt>
      <trkpt lat="47.83811" lon="-3.53919">
        <ele>5.09</ele>
        <time>2020-07-08T11:28:52Z</time>
      </trkpt>
      <trkpt lat="47.83808" lon="-3.53917">
        <ele>4.59</ele>
        <time>2020-07-08T11:28:53Z</time>
      </trkpt>
      <trkpt lat="47.83805" lon="-3.53914">
        <ele>4.15</ele>
        <time>2020-07-08T11:28:54Z</time>
      </trkpt>
      <trkpt lat="47.83801" lon="-3.53911">
        <ele>3.89</ele>
        <time>2020-07-08T11:28:55Z</time>
      </trkpt>
      <trkpt lat="47.83796" lon="-3.5391">
        <ele>3.68</ele>
        <time>2020-07-08T11:28:56Z</time>
      </trkpt>
      <trkpt lat="47.83791" lon="-3.53909">
        <ele>3.44</ele>
        <time>2020-07-08T11:28:57Z</time>
      </trkpt>
      <trkpt lat="47.83786" lon="-3.53909">
        <ele>3.2</ele>
        <time>2020-07-08T11:28:58Z</time>
      </trkpt>
      <trkpt lat="47.83781" lon="-3.5391">
        <ele>2.98</ele>
        <time>2020-07-08T11:28:59Z</time>
      </trkpt>
      <trkpt lat="47.83776" lon="-3.53911">
        <ele>2.86</ele>
        <time>2020-07-08T11:29:00Z</time>
      </trkpt>
      <trkpt lat="47.83771" lon="-3.53914">
        <ele>2.9</ele>
        <time>2020-07-08T11:29:01Z</time>
      </trkpt>
      <trkpt lat="47.83767" lon="-3.53918">
        <ele>2.99</ele>
        <time>2020-07-08T11:29:02Z</time>
      </trkpt>
      <trkpt lat="47.83763" lon="-3.53921">
        <ele>3.1</ele>
        <time>2020-07-08T11:29:03Z</time>
      </trkpt>
      <trkpt lat="47.83759" lon="-3.53924">
        <ele>3.21</ele>
        <time>2020-07-08T11:29:04Z</time>
      </trkpt>
      <trkpt lat="47.83755" lon="-3.53929">
        <ele>3.38</ele>
        <time>2020-07-08T11:29:05Z</time>
      </trkpt>
      <trkpt lat="47.83752" lon="-3.53935">
        <ele>3.57</ele>
        <time>2020-07-08T11:29:06Z</time>
      </trkpt>
      <trkpt lat="47.8375" lon="-3.53941">
        <ele>3.75</ele>
        <time>2020-07-08T11:29:07Z</time>
      </trkpt>
      <trkpt lat="47.83747" lon="-3.53946">
        <ele>3.85</ele>
        <time>2020-07-08T11:29:08Z</time>
      </trkpt>
      <trkpt lat="47.83746" lon="-3.53951">
        <ele>3.95</ele>
        <time>2020-07-08T11:29:09Z</time>
      </trkpt>
      <trkpt lat="47.83744" lon="-3.53956">
        <ele>4.11</ele>
        <time>2020-07-08T11:29:10Z</time>
      </trkpt>
      <trkpt lat="47.83743" lon="-3.53961">
        <ele>4.28</ele>
        <time>2020-07-08T11:29:11Z</time>
      </trkpt>
      <trkpt lat="47.83742" lon="-3.53964">
        <ele>4.46</ele>
        <time>2020-07-08T11:29:12Z</time>
      </trkpt>
      <trkpt lat="47.8374" lon="-3.53969">
        <ele>4.68</ele>
        <time>2020-07-08T11:29:13Z</time>
      </trkpt>
      <trkpt lat="47.83739" lon="-3.53972">
        <ele>4.88</ele>
        <time>2020-07-08T11:29:14Z</time>
      </trkpt>
      <trkpt lat="47.83737" lon="-3.53975">
        <ele>5.08</ele>
        <time>2020-07-08T11:29:15Z</time>
      </trkpt>
      <trkpt lat="47.83734" lon="-3.53977">
        <ele>5.27</ele>
        <time>2020-07-08T11:29:16Z</time>
      </trkpt>
      <trkpt lat="47.83733" lon="-3.53979">
        <ele>5.44</ele>
        <time>2020-07-08T11:29:17Z</time>
      </trkpt>
      <trkpt lat="47.8373" lon="-3.53979">
        <ele>5.55</ele>
        <time>2020-07-08T11:29:18Z</time>
      </trkpt>
      <trkpt lat="47.83727" lon="-3.5398">
        <ele>5.66</ele>
        <time>2020-07-08T11:29:19Z</time>
      </trkpt>
      <trkpt lat="47.83725" lon="-3.53982">
        <ele>5.85</ele>
        <time>2020-07-08T11:29:20Z</time>
      </trkpt>
      <trkpt lat="47.83722" lon="-3.53984">
        <ele>6.16</ele>
        <time>2020-07-08T11:29:21Z</time>
      </trkpt>
      <trkpt lat="47.83718" lon="-3.53986">
        <ele>6.28</ele>
        <time>2020-07-08T11:29:22Z</time>
      </trkpt>
      <trkpt lat="47.83715" lon="-3.53987">
        <ele>6.27</ele>
        <time>2020-07-08T11:29:23Z</time>
      </trkpt>
      <trkpt lat="47.83712" lon="-3.53988">
        <ele>6.21</ele>
        <time>2020-07-08T11:29:24Z</time>
      </trkpt>
      <trkpt lat="47.83709" lon="-3.53989">
        <ele>6.19</ele>
        <time>2020-07-08T11:29:25Z</time>
      </trkpt>
      <trkpt lat="47.83705" lon="-3.53989">
        <ele>6.13</ele>
        <time>2020-07-08T11:29:26Z</time>
      </trkpt>
      <trkpt lat="47.83701" lon="-3.53989">
        <ele>6.03</ele>
        <time>2020-07-08T11:29:27Z</time>
      </trkpt>
      <trkpt lat="47.83698" lon="-3.53989">
        <ele>5.9</ele>
        <time>2020-07-08T11:29:28Z</time>
      </trkpt>
      <trkpt lat="47.83694" lon="-3.5399">
        <ele>5.83</ele>
        <time>2020-07-08T11:29:29Z</time>
      </trkpt>
      <trkpt lat="47.8369" lon="-3.53992">
        <ele>5.82</ele>
        <time>2020-07-08T11:29:30Z</time>
      </trkpt>
      <trkpt lat="47.83687" lon="-3.53996">
        <ele>6.01</ele>
        <time>2020-07-08T11:29:31Z</time>
      </trkpt>
      <trkpt lat="47.83683" lon="-3.54">
        <ele>6.28</ele>
        <time>2020-07-08T11:29:32Z</time>
      </trkpt>
      <trkpt lat="47.8368" lon="-3.54003">
        <ele>6.2</ele>
        <time>2020-07-08T11:29:33Z</time>
      </trkpt>
      <trkpt lat="47.83676" lon="-3.54004">
        <ele>5.91</ele>
        <time>2020-07-08T11:29:34Z</time>
      </trkpt>
      <trkpt lat="47.83672" lon="-3.54005">
        <ele>5.66</ele>
        <time>2020-07-08T11:29:35Z</time>
      </trkpt>
      <trkpt lat="47.83668" lon="-3.54007">
        <ele>5.45</ele>
        <time>2020-07-08T11:29:36Z</time>
      </trkpt>
      <trkpt lat="47.83664" lon="-3.54008">
        <ele>5.15</ele>
        <time>2020-07-08T11:29:37Z</time>
      </trkpt>
      <trkpt lat="47.8366" lon="-3.54009">
        <ele>4.75</ele>
        <time>2020-07-08T11:29:38Z</time>
      </trkpt>
      <trkpt lat="47.83657" lon="-3.54009">
        <ele>4.27</ele>
        <time>2020-07-08T11:29:39Z</time>
      </trkpt>
      <trkpt lat="47.83652" lon="-3.5401">
        <ele>3.77</ele>
        <time>2020-07-08T11:29:40Z</time>
      </trkpt>
      <trkpt lat="47.83649" lon="-3.54011">
        <ele>3.27</ele>
        <time>2020-07-08T11:29:41Z</time>
      </trkpt>
      <trkpt lat="47.83644" lon="-3.54011">
        <ele>2.69</ele>
        <time>2020-07-08T11:29:42Z</time>
      </trkpt>
      <trkpt lat="47.83641" lon="-3.54012">
        <ele>2.25</ele>
        <time>2020-07-08T11:29:43Z</time>
      </trkpt>
      <trkpt lat="47.83636" lon="-3.54014">
        <ele>1.94</ele>
        <time>2020-07-08T11:29:44Z</time>
      </trkpt>
      <trkpt lat="47.83632" lon="-3.54016">
        <ele>1.86</ele>
        <time>2020-07-08T11:29:45Z</time>
      </trkpt>
      <trkpt lat="47.83627" lon="-3.54018">
        <ele>1.78</ele>
        <time>2020-07-08T11:29:46Z</time>
      </trkpt>
      <trkpt lat="47.83623" lon="-3.5402">
        <ele>1.69</ele>
        <time>2020-07-08T11:29:47Z</time>
      </trkpt>
      <trkpt lat="47.83618" lon="-3.54023">
        <ele>1.54</ele>
        <time>2020-07-08T11:29:48Z</time>
      </trkpt>
      <trkpt lat="47.83614" lon="-3.54025">
        <ele>1.28</ele>
        <time>2020-07-08T11:29:49Z</time>
      </trkpt>
      <trkpt lat="47.83609" lon="-3.54028">
        <ele>1.07</ele>
        <time>2020-07-08T11:29:50Z</time>
      </trkpt>
      <trkpt lat="47.83605" lon="-3.54031">
        <ele>1.21</ele>
        <time>2020-07-08T11:29:51Z</time>
      </trkpt>
      <trkpt lat="47.83601" lon="-3.54033">
        <ele>1.35</ele>
        <time>2020-07-08T11:29:52Z</time>
      </trkpt>
      <trkpt lat="47.83598" lon="-3.54035">
        <ele>1.47</ele>
        <time>2020-07-08T11:29:53Z</time>
      </trkpt>
      <trkpt lat="47.83594" lon="-3.54037">
        <ele>1.5</ele>
        <time>2020-07-08T11:29:54Z</time>
      </trkpt>
      <trkpt lat="47.8359" lon="-3.5404">
        <ele>1.47</ele>
        <time>2020-07-08T11:29:55Z</time>
      </trkpt>
      <trkpt lat="47.83585" lon="-3.54043">
        <ele>1.35</ele>
        <time>2020-07-08T11:29:56Z</time>
      </trkpt>
      <trkpt lat="47.83581" lon="-3.54045">
        <ele>1.21</ele>
        <time>2020-07-08T11:29:57Z</time>
      </trkpt>
      <trkpt lat="47.83577" lon="-3.54047">
        <ele>1.12</ele>
        <time>2020-07-08T11:29:58Z</time>
      </trkpt>
      <trkpt lat="47.83573" lon="-3.54048">
        <ele>0.97</ele>
        <time>2020-07-08T11:29:59Z</time>
      </trkpt>
      <trkpt lat="47.83568" lon="-3.5405">
        <ele>0.78</ele>
        <time>2020-07-08T11:30:00Z</time>
      </trkpt>
      <trkpt lat="47.83562" lon="-3.54053">
        <ele>0.51</ele>
        <time>2020-07-08T11:30:01Z</time>
      </trkpt>
      <trkpt lat="47.83556" lon="-3.54055">
        <ele>0.18</ele>
        <time>2020-07-08T11:30:02Z</time>
      </trkpt>
      <trkpt lat="47.83551" lon="-3.54057">
        <ele>0.44</ele>
        <time>2020-07-08T11:30:03Z</time>
      </trkpt>
      <trkpt lat="47.83546" lon="-3.54059">
        <ele>0.76</ele>
        <time>2020-07-08T11:30:04Z</time>
      </trkpt>
      <trkpt lat="47.8354" lon="-3.5406">
        <ele>1.19</ele>
        <time>2020-07-08T11:30:05Z</time>
      </trkpt>
      <trkpt lat="47.83536" lon="-3.54062">
        <ele>1.62</ele>
        <time>2020-07-08T11:30:06Z</time>
      </trkpt>
      <trkpt lat="47.83532" lon="-3.54063">
        <ele>1.99</ele>
        <time>2020-07-08T11:30:07Z</time>
      </trkpt>
      <trkpt lat="47.83528" lon="-3.54063">
        <ele>2.16</ele>
        <time>2020-07-08T11:30:08Z</time>
      </trkpt>
      <trkpt lat="47.83524" lon="-3.54064">
        <ele>2.39</ele>
        <time>2020-07-08T11:30:09Z</time>
      </trkpt>
      <trkpt lat="47.8352" lon="-3.54065">
        <ele>2.46</ele>
        <time>2020-07-08T11:30:10Z</time>
      </trkpt>
      <trkpt lat="47.83516" lon="-3.54065">
        <ele>2.47</ele>
        <time>2020-07-08T11:30:11Z</time>
      </trkpt>
      <trkpt lat="47.83512" lon="-3.54066">
        <ele>2.49</ele>
        <time>2020-07-08T11:30:12Z</time>
      </trkpt>
      <trkpt lat="47.83508" lon="-3.54066">
        <ele>2.53</ele>
        <time>2020-07-08T11:30:13Z</time>
      </trkpt>
      <trkpt lat="47.83503" lon="-3.54067">
        <ele>2.48</ele>
        <time>2020-07-08T11:30:14Z</time>
      </trkpt>
      <trkpt lat="47.835" lon="-3.54067">
        <ele>2.4</ele>
        <time>2020-07-08T11:30:15Z</time>
      </trkpt>
      <trkpt lat="47.83496" lon="-3.54066">
        <ele>2.26</ele>
        <time>2020-07-08T11:30:16Z</time>
      </trkpt>
      <trkpt lat="47.83492" lon="-3.54066">
        <ele>2.23</ele>
        <time>2020-07-08T11:30:17Z</time>
      </trkpt>
      <trkpt lat="47.83487" lon="-3.54066">
        <ele>2.17</ele>
        <time>2020-07-08T11:30:18Z</time>
      </trkpt>
      <trkpt lat="47.8348" lon="-3.54065">
        <ele>1.91</ele>
        <time>2020-07-08T11:30:19Z</time>
      </trkpt>
      <trkpt lat="47.83474" lon="-3.54064">
        <ele>1.6</ele>
        <time>2020-07-08T11:30:20Z</time>
      </trkpt>
      <trkpt lat="47.83468" lon="-3.54063">
        <ele>1.41</ele>
        <time>2020-07-08T11:30:21Z</time>
      </trkpt>
      <trkpt lat="47.83462" lon="-3.54063">
        <ele>1.25</ele>
        <time>2020-07-08T11:30:22Z</time>
      </trkpt>
      <trkpt lat="47.83457" lon="-3.54063">
        <ele>1.15</ele>
        <time>2020-07-08T11:30:23Z</time>
      </trkpt>
      <trkpt lat="47.83451" lon="-3.54062">
        <ele>1.07</ele>
        <time>2020-07-08T11:30:24Z</time>
      </trkpt>
      <trkpt lat="47.83447" lon="-3.54063">
        <ele>1.11</ele>
        <time>2020-07-08T11:30:25Z</time>
      </trkpt>
      <trkpt lat="47.83442" lon="-3.54065">
        <ele>1.28</ele>
        <time>2020-07-08T11:30:26Z</time>
      </trkpt>
      <trkpt lat="47.83438" lon="-3.54067">
        <ele>1.57</ele>
        <time>2020-07-08T11:30:27Z</time>
      </trkpt>
      <trkpt lat="47.83432" lon="-3.5407">
        <ele>1.89</ele>
        <time>2020-07-08T11:30:28Z</time>
      </trkpt>
      <trkpt lat="47.83427" lon="-3.54072">
        <ele>2.19</ele>
        <time>2020-07-08T11:30:29Z</time>
      </trkpt>
      <trkpt lat="47.83421" lon="-3.54074">
        <ele>2.48</ele>
        <time>2020-07-08T11:30:30Z</time>
      </trkpt>
      <trkpt lat="47.83416" lon="-3.54074">
        <ele>2.59</ele>
        <time>2020-07-08T11:30:31Z</time>
      </trkpt>
      <trkpt lat="47.83411" lon="-3.54076">
        <ele>2.73</ele>
        <time>2020-07-08T11:30:32Z</time>
      </trkpt>
      <trkpt lat="47.83405" lon="-3.54078">
        <ele>2.85</ele>
        <time>2020-07-08T11:30:33Z</time>
      </trkpt>
      <trkpt lat="47.83401" lon="-3.54079">
        <ele>2.85</ele>
        <time>2020-07-08T11:30:34Z</time>
      </trkpt>
      <trkpt lat="47.83396" lon="-3.54081">
        <ele>2.98</ele>
        <time>2020-07-08T11:30:35Z</time>
      </trkpt>
      <trkpt lat="47.83392" lon="-3.54084">
        <ele>3.12</ele>
        <time>2020-07-08T11:30:36Z</time>
      </trkpt>
      <trkpt lat="47.83387" lon="-3.54086">
        <ele>3.45</ele>
        <time>2020-07-08T11:30:37Z</time>
      </trkpt>
      <trkpt lat="47.83381" lon="-3.54088">
        <ele>3.51</ele>
        <time>2020-07-08T11:30:38Z</time>
      </trkpt>
      <trkpt lat="47.83376" lon="-3.54091">
        <ele>3.59</ele>
        <time>2020-07-08T11:30:39Z</time>
      </trkpt>
      <trkpt lat="47.83372" lon="-3.54093">
        <ele>3.59</ele>
        <time>2020-07-08T11:30:40Z</time>
      </trkpt>
      <trkpt lat="47.83366" lon="-3.54096">
        <ele>3.52</ele>
        <time>2020-07-08T11:30:41Z</time>
      </trkpt>
      <trkpt lat="47.83361" lon="-3.541">
        <ele>3.4</ele>
        <time>2020-07-08T11:30:42Z</time>
      </trkpt>
      <trkpt lat="47.83356" lon="-3.54102">
        <ele>3.49</ele>
        <time>2020-07-08T11:30:43Z</time>
      </trkpt>
      <trkpt lat="47.83351" lon="-3.54104">
        <ele>3.68</ele>
        <time>2020-07-08T11:30:44Z</time>
      </trkpt>
      <trkpt lat="47.83345" lon="-3.54108">
        <ele>3.91</ele>
        <time>2020-07-08T11:30:45Z</time>
      </trkpt>
      <trkpt lat="47.8334" lon="-3.5411">
        <ele>4.03</ele>
        <time>2020-07-08T11:30:46Z</time>
      </trkpt>
      <trkpt lat="47.83336" lon="-3.54111">
        <ele>4.07</ele>
        <time>2020-07-08T11:30:47Z</time>
      </trkpt>
      <trkpt lat="47.8333" lon="-3.54113">
        <ele>4.36</ele>
        <time>2020-07-08T11:30:48Z</time>
      </trkpt>
      <trkpt lat="47.83325" lon="-3.54115">
        <ele>4.53</ele>
        <time>2020-07-08T11:30:49Z</time>
      </trkpt>
      <trkpt lat="47.8332" lon="-3.54117">
        <ele>4.75</ele>
        <time>2020-07-08T11:30:50Z</time>
      </trkpt>
      <trkpt lat="47.83314" lon="-3.54118">
        <ele>4.89</ele>
        <time>2020-07-08T11:30:51Z</time>
      </trkpt>
      <trkpt lat="47.83309" lon="-3.5412">
        <ele>4.96</ele>
        <time>2020-07-08T11:30:52Z</time>
      </trkpt>
      <trkpt lat="47.83303" lon="-3.5412">
        <ele>4.91</ele>
        <time>2020-07-08T11:30:53Z</time>
      </trkpt>
      <trkpt lat="47.83298" lon="-3.54122">
        <ele>4.84</ele>
        <time>2020-07-08T11:30:54Z</time>
      </trkpt>
      <trkpt lat="47.83293" lon="-3.54123">
        <ele>4.79</ele>
        <time>2020-07-08T11:30:55Z</time>
      </trkpt>
      <trkpt lat="47.83287" lon="-3.54126">
        <ele>4.79</ele>
        <time>2020-07-08T11:30:56Z</time>
      </trkpt>
      <trkpt lat="47.83281" lon="-3.54128">
        <ele>4.75</ele>
        <time>2020-07-08T11:30:57Z</time>
      </trkpt>
      <trkpt lat="47.83276" lon="-3.5413">
        <ele>4.66</ele>
        <time>2020-07-08T11:30:58Z</time>
      </trkpt>
      <trkpt lat="47.83271" lon="-3.54133">
        <ele>4.54</ele>
        <time>2020-07-08T11:30:59Z</time>
      </trkpt>
      <trkpt lat="47.83266" lon="-3.54135">
        <ele>4.37</ele>
        <time>2020-07-08T11:31:00Z</time>
      </trkpt>
      <trkpt lat="47.83261" lon="-3.54137">
        <ele>4.14</ele>
        <time>2020-07-08T11:31:01Z</time>
      </trkpt>
      <trkpt lat="47.83256" lon="-3.54139">
        <ele>3.82</ele>
        <time>2020-07-08T11:31:02Z</time>
      </trkpt>
      <trkpt lat="47.83252" lon="-3.54141">
        <ele>3.74</ele>
        <time>2020-07-08T11:31:03Z</time>
      </trkpt>
      <trkpt lat="47.83246" lon="-3.54144">
        <ele>3.82</ele>
        <time>2020-07-08T11:31:04Z</time>
      </trkpt>
      <trkpt lat="47.83241" lon="-3.54146">
        <ele>3.98</ele>
        <time>2020-07-08T11:31:05Z</time>
      </trkpt>
      <trkpt lat="47.83237" lon="-3.54149">
        <ele>4.14</ele>
        <time>2020-07-08T11:31:06Z</time>
      </trkpt>
      <trkpt lat="47.83232" lon="-3.54152">
        <ele>4.22</ele>
        <time>2020-07-08T11:31:07Z</time>
      </trkpt>
      <trkpt lat="47.83228" lon="-3.54154">
        <ele>4.18</ele>
        <time>2020-07-08T11:31:08Z</time>
      </trkpt>
      <trkpt lat="47.83223" lon="-3.54155">
        <ele>3.97</ele>
        <time>2020-07-08T11:31:09Z</time>
      </trkpt>
      <trkpt lat="47.83219" lon="-3.54157">
        <ele>3.88</ele>
        <time>2020-07-08T11:31:10Z</time>
      </trkpt>
      <trkpt lat="47.83214" lon="-3.54159">
        <ele>3.84</ele>
        <time>2020-07-08T11:31:11Z</time>
      </trkpt>
      <trkpt lat="47.83209" lon="-3.54159">
        <ele>3.72</ele>
        <time>2020-07-08T11:31:12Z</time>
      </trkpt>
      <trkpt lat="47.83204" lon="-3.54159">
        <ele>3.54</ele>
        <time>2020-07-08T11:31:13Z</time>
      </trkpt>
      <trkpt lat="47.83199" lon="-3.54159">
        <ele>3.36</ele>
        <time>2020-07-08T11:31:14Z</time>
      </trkpt>
      <trkpt lat="47.83193" lon="-3.54159">
        <ele>3.25</ele>
        <time>2020-07-08T11:31:15Z</time>
      </trkpt>
      <trkpt lat="47.83188" lon="-3.5416">
        <ele>3.4</ele>
        <time>2020-07-08T11:31:16Z</time>
      </trkpt>
      <trkpt lat="47.83182" lon="-3.54161">
        <ele>3.67</ele>
        <time>2020-07-08T11:31:17Z</time>
      </trkpt>
      <trkpt lat="47.83176" lon="-3.54162">
        <ele>3.95</ele>
        <time>2020-07-08T11:31:18Z</time>
      </trkpt>
      <trkpt lat="47.8317" lon="-3.54163">
        <ele>4.22</ele>
        <time>2020-07-08T11:31:19Z</time>
      </trkpt>
      <trkpt lat="47.83165" lon="-3.54163">
        <ele>4.39</ele>
        <time>2020-07-08T11:31:20Z</time>
      </trkpt>
      <trkpt lat="47.83161" lon="-3.54164">
        <ele>4.42</ele>
        <time>2020-07-08T11:31:21Z</time>
      </trkpt>
      <trkpt lat="47.83156" lon="-3.54165">
        <ele>4.38</ele>
        <time>2020-07-08T11:31:22Z</time>
      </trkpt>
      <trkpt lat="47.83151" lon="-3.54166">
        <ele>4.39</ele>
        <time>2020-07-08T11:31:23Z</time>
      </trkpt>
      <trkpt lat="47.83146" lon="-3.54168">
        <ele>4.48</ele>
        <time>2020-07-08T11:31:24Z</time>
      </trkpt>
      <trkpt lat="47.83141" lon="-3.54169">
        <ele>4.52</ele>
        <time>2020-07-08T11:31:25Z</time>
      </trkpt>
      <trkpt lat="47.83135" lon="-3.5417">
        <ele>4.62</ele>
        <time>2020-07-08T11:31:26Z</time>
      </trkpt>
      <trkpt lat="47.83129" lon="-3.54171">
        <ele>4.8</ele>
        <time>2020-07-08T11:31:27Z</time>
      </trkpt>
      <trkpt lat="47.83124" lon="-3.54171">
        <ele>5.01</ele>
        <time>2020-07-08T11:31:28Z</time>
      </trkpt>
      <trkpt lat="47.83119" lon="-3.54173">
        <ele>5.32</ele>
        <time>2020-07-08T11:31:29Z</time>
      </trkpt>
      <trkpt lat="47.83115" lon="-3.54174">
        <ele>5.64</ele>
        <time>2020-07-08T11:31:30Z</time>
      </trkpt>
      <trkpt lat="47.8311" lon="-3.54175">
        <ele>5.93</ele>
        <time>2020-07-08T11:31:31Z</time>
      </trkpt>
      <trkpt lat="47.83105" lon="-3.54175">
        <ele>6.11</ele>
        <time>2020-07-08T11:31:32Z</time>
      </trkpt>
      <trkpt lat="47.83099" lon="-3.54175">
        <ele>6.19</ele>
        <time>2020-07-08T11:31:33Z</time>
      </trkpt>
      <trkpt lat="47.83093" lon="-3.54176">
        <ele>6.27</ele>
        <time>2020-07-08T11:31:34Z</time>
      </trkpt>
      <trkpt lat="47.83088" lon="-3.54176">
        <ele>6.33</ele>
        <time>2020-07-08T11:31:35Z</time>
      </trkpt>
      <trkpt lat="47.83083" lon="-3.54176">
        <ele>6.38</ele>
        <time>2020-07-08T11:31:36Z</time>
      </trkpt>
      <trkpt lat="47.83078" lon="-3.54176">
        <ele>6.5</ele>
        <time>2020-07-08T11:31:37Z</time>
      </trkpt>
      <trkpt lat="47.83073" lon="-3.54177">
        <ele>6.61</ele>
        <time>2020-07-08T11:31:38Z</time>
      </trkpt>
      <trkpt lat="47.8307" lon="-3.54176">
        <ele>6.61</ele>
        <time>2020-07-08T11:31:39Z</time>
      </trkpt>
      <trkpt lat="47.83067" lon="-3.54176">
        <ele>6.63</ele>
        <time>2020-07-08T11:31:40Z</time>
      </trkpt>
      <trkpt lat="47.83064" lon="-3.54177">
        <ele>6.73</ele>
        <time>2020-07-08T11:31:41Z</time>
      </trkpt>
      <trkpt lat="47.8306" lon="-3.54178">
        <ele>7.09</ele>
        <time>2020-07-08T11:31:42Z</time>
      </trkpt>
      <trkpt lat="47.83055" lon="-3.54179">
        <ele>7.41</ele>
        <time>2020-07-08T11:31:43Z</time>
      </trkpt>
      <trkpt lat="47.83051" lon="-3.54181">
        <ele>7.75</ele>
        <time>2020-07-08T11:31:44Z</time>
      </trkpt>
      <trkpt lat="47.83047" lon="-3.54182">
        <ele>8.07</ele>
        <time>2020-07-08T11:31:45Z</time>
      </trkpt>
      <trkpt lat="47.83043" lon="-3.54182">
        <ele>8.07</ele>
        <time>2020-07-08T11:31:46Z</time>
      </trkpt>
      <trkpt lat="47.83039" lon="-3.54182">
        <ele>8.14</ele>
        <time>2020-07-08T11:31:47Z</time>
      </trkpt>
      <trkpt lat="47.83034" lon="-3.54183">
        <ele>8.22</ele>
        <time>2020-07-08T11:31:48Z</time>
      </trkpt>
      <trkpt lat="47.8303" lon="-3.54183">
        <ele>8.24</ele>
        <time>2020-07-08T11:31:49Z</time>
      </trkpt>
      <trkpt lat="47.83025" lon="-3.54184">
        <ele>8.31</ele>
        <time>2020-07-08T11:31:50Z</time>
      </trkpt>
      <trkpt lat="47.83021" lon="-3.54184">
        <ele>8.43</ele>
        <time>2020-07-08T11:31:51Z</time>
      </trkpt>
      <trkpt lat="47.83016" lon="-3.54184">
        <ele>8.54</ele>
        <time>2020-07-08T11:31:52Z</time>
      </trkpt>
      <trkpt lat="47.83012" lon="-3.54184">
        <ele>8.64</ele>
        <time>2020-07-08T11:31:53Z</time>
      </trkpt>
      <trkpt lat="47.83008" lon="-3.54184">
        <ele>8.74</ele>
        <time>2020-07-08T11:31:54Z</time>
      </trkpt>
      <trkpt lat="47.83003" lon="-3.54184">
        <ele>8.86</ele>
        <time>2020-07-08T11:31:55Z</time>
      </trkpt>
      <trkpt lat="47.82999" lon="-3.54183">
        <ele>8.89</ele>
        <time>2020-07-08T11:31:56Z</time>
      </trkpt>
      <trkpt lat="47.82995" lon="-3.54183">
        <ele>8.91</ele>
        <time>2020-07-08T11:31:57Z</time>
      </trkpt>
      <trkpt lat="47.8299" lon="-3.54182">
        <ele>8.89</ele>
        <time>2020-07-08T11:31:58Z</time>
      </trkpt>
      <trkpt lat="47.82986" lon="-3.5418">
        <ele>8.75</ele>
        <time>2020-07-08T11:31:59Z</time>
      </trkpt>
      <trkpt lat="47.82982" lon="-3.5418">
        <ele>8.7</ele>
        <time>2020-07-08T11:32:00Z</time>
      </trkpt>
      <trkpt lat="47.82978" lon="-3.54179">
        <ele>8.7</ele>
        <time>2020-07-08T11:32:01Z</time>
      </trkpt>
      <trkpt lat="47.82974" lon="-3.54178">
        <ele>8.64</ele>
        <time>2020-07-08T11:32:02Z</time>
      </trkpt>
      <trkpt lat="47.82969" lon="-3.54176">
        <ele>8.41</ele>
        <time>2020-07-08T11:32:03Z</time>
      </trkpt>
      <trkpt lat="47.82964" lon="-3.54176">
        <ele>8.39</ele>
        <time>2020-07-08T11:32:04Z</time>
      </trkpt>
      <trkpt lat="47.82959" lon="-3.54176">
        <ele>8.6</ele>
        <time>2020-07-08T11:32:05Z</time>
      </trkpt>
      <trkpt lat="47.82955" lon="-3.54176">
        <ele>8.59</ele>
        <time>2020-07-08T11:32:06Z</time>
      </trkpt>
      <trkpt lat="47.82951" lon="-3.54176">
        <ele>8.69</ele>
        <time>2020-07-08T11:32:07Z</time>
      </trkpt>
      <trkpt lat="47.82947" lon="-3.54175">
        <ele>8.63</ele>
        <time>2020-07-08T11:32:08Z</time>
      </trkpt>
      <trkpt lat="47.82942" lon="-3.54175">
        <ele>8.6</ele>
        <time>2020-07-08T11:32:09Z</time>
      </trkpt>
      <trkpt lat="47.82938" lon="-3.54175">
        <ele>8.73</ele>
        <time>2020-07-08T11:32:10Z</time>
      </trkpt>
      <trkpt lat="47.82934" lon="-3.54174">
        <ele>8.9</ele>
        <time>2020-07-08T11:32:11Z</time>
      </trkpt>
      <trkpt lat="47.82929" lon="-3.54174">
        <ele>9.04</ele>
        <time>2020-07-08T11:32:12Z</time>
      </trkpt>
      <trkpt lat="47.82926" lon="-3.54173">
        <ele>8.95</ele>
        <time>2020-07-08T11:32:13Z</time>
      </trkpt>
      <trkpt lat="47.82923" lon="-3.54172">
        <ele>8.78</ele>
        <time>2020-07-08T11:32:14Z</time>
      </trkpt>
      <trkpt lat="47.82919" lon="-3.54169">
        <ele>8.19</ele>
        <time>2020-07-08T11:32:15Z</time>
      </trkpt>
      <trkpt lat="47.82915" lon="-3.54168">
        <ele>7.64</ele>
        <time>2020-07-08T11:32:16Z</time>
      </trkpt>
      <trkpt lat="47.8291" lon="-3.54166">
        <ele>7.01</ele>
        <time>2020-07-08T11:32:17Z</time>
      </trkpt>
      <trkpt lat="47.82906" lon="-3.54164">
        <ele>6.48</ele>
        <time>2020-07-08T11:32:18Z</time>
      </trkpt>
      <trkpt lat="47.82902" lon="-3.54162">
        <ele>6.11</ele>
        <time>2020-07-08T11:32:19Z</time>
      </trkpt>
      <trkpt lat="47.82897" lon="-3.54162">
        <ele>5.82</ele>
        <time>2020-07-08T11:32:20Z</time>
      </trkpt>
      <trkpt lat="47.82893" lon="-3.5416">
        <ele>5.5</ele>
        <time>2020-07-08T11:32:21Z</time>
      </trkpt>
      <trkpt lat="47.82887" lon="-3.5416">
        <ele>5.5</ele>
        <time>2020-07-08T11:32:22Z</time>
      </trkpt>
      <trkpt lat="47.82881" lon="-3.54158">
        <ele>5.59</ele>
        <time>2020-07-08T11:32:23Z</time>
      </trkpt>
      <trkpt lat="47.82876" lon="-3.54156">
        <ele>5.75</ele>
        <time>2020-07-08T11:32:24Z</time>
      </trkpt>
      <trkpt lat="47.82869" lon="-3.54155">
        <ele>5.8</ele>
        <time>2020-07-08T11:32:25Z</time>
      </trkpt>
      <trkpt lat="47.82864" lon="-3.54154">
        <ele>6.07</ele>
        <time>2020-07-08T11:32:26Z</time>
      </trkpt>
      <trkpt lat="47.82859" lon="-3.54153">
        <ele>6.29</ele>
        <time>2020-07-08T11:32:27Z</time>
      </trkpt>
      <trkpt lat="47.82853" lon="-3.54152">
        <ele>6.15</ele>
        <time>2020-07-08T11:32:28Z</time>
      </trkpt>
      <trkpt lat="47.82847" lon="-3.5415">
        <ele>5.87</ele>
        <time>2020-07-08T11:32:29Z</time>
      </trkpt>
      <trkpt lat="47.82842" lon="-3.54148">
        <ele>5.54</ele>
        <time>2020-07-08T11:32:30Z</time>
      </trkpt>
      <trkpt lat="47.82838" lon="-3.54146">
        <ele>5.15</ele>
        <time>2020-07-08T11:32:31Z</time>
      </trkpt>
      <trkpt lat="47.82833" lon="-3.54145">
        <ele>4.73</ele>
        <time>2020-07-08T11:32:32Z</time>
      </trkpt>
      <trkpt lat="47.82829" lon="-3.54143">
        <ele>4.68</ele>
        <time>2020-07-08T11:32:33Z</time>
      </trkpt>
      <trkpt lat="47.82825" lon="-3.54143">
        <ele>4.8</ele>
        <time>2020-07-08T11:32:34Z</time>
      </trkpt>
      <trkpt lat="47.82821" lon="-3.54141">
        <ele>4.78</ele>
        <time>2020-07-08T11:32:35Z</time>
      </trkpt>
      <trkpt lat="47.82816" lon="-3.54139">
        <ele>4.58</ele>
        <time>2020-07-08T11:32:36Z</time>
      </trkpt>
      <trkpt lat="47.82811" lon="-3.54138">
        <ele>4.88</ele>
        <time>2020-07-08T11:32:37Z</time>
      </trkpt>
      <trkpt lat="47.82807" lon="-3.54138">
        <ele>5.37</ele>
        <time>2020-07-08T11:32:38Z</time>
      </trkpt>
      <trkpt lat="47.82801" lon="-3.54136">
        <ele>5.55</ele>
        <time>2020-07-08T11:32:39Z</time>
      </trkpt>
      <trkpt lat="47.82797" lon="-3.54137">
        <ele>5.76</ele>
        <time>2020-07-08T11:32:40Z</time>
      </trkpt>
      <trkpt lat="47.82791" lon="-3.54136">
        <ele>5.85</ele>
        <time>2020-07-08T11:32:41Z</time>
      </trkpt>
      <trkpt lat="47.82786" lon="-3.54136">
        <ele>5.96</ele>
        <time>2020-07-08T11:32:42Z</time>
      </trkpt>
      <trkpt lat="47.82781" lon="-3.54136">
        <ele>6.17</ele>
        <time>2020-07-08T11:32:43Z</time>
      </trkpt>
      <trkpt lat="47.82776" lon="-3.54137">
        <ele>6.4</ele>
        <time>2020-07-08T11:32:44Z</time>
      </trkpt>
      <trkpt lat="47.82771" lon="-3.54137">
        <ele>6.4</ele>
        <time>2020-07-08T11:32:45Z</time>
      </trkpt>
      <trkpt lat="47.82766" lon="-3.54137">
        <ele>6.33</ele>
        <time>2020-07-08T11:32:46Z</time>
      </trkpt>
      <trkpt lat="47.8276" lon="-3.54137">
        <ele>6.17</ele>
        <time>2020-07-08T11:32:47Z</time>
      </trkpt>
      <trkpt lat="47.82755" lon="-3.54136">
        <ele>5.85</ele>
        <time>2020-07-08T11:32:48Z</time>
      </trkpt>
      <trkpt lat="47.82749" lon="-3.54136">
        <ele>5.57</ele>
        <time>2020-07-08T11:32:49Z</time>
      </trkpt>
      <trkpt lat="47.82744" lon="-3.54137">
        <ele>5.65</ele>
        <time>2020-07-08T11:32:50Z</time>
      </trkpt>
      <trkpt lat="47.82739" lon="-3.54137">
        <ele>5.72</ele>
        <time>2020-07-08T11:32:51Z</time>
      </trkpt>
      <trkpt lat="47.82733" lon="-3.54137">
        <ele>5.7</ele>
        <time>2020-07-08T11:32:52Z</time>
      </trkpt>
      <trkpt lat="47.82729" lon="-3.54136">
        <ele>5.63</ele>
        <time>2020-07-08T11:32:53Z</time>
      </trkpt>
      <trkpt lat="47.82724" lon="-3.54135">
        <ele>5.57</ele>
        <time>2020-07-08T11:32:54Z</time>
      </trkpt>
      <trkpt lat="47.82719" lon="-3.54134">
        <ele>5.57</ele>
        <time>2020-07-08T11:32:55Z</time>
      </trkpt>
      <trkpt lat="47.82715" lon="-3.54133">
        <ele>5.59</ele>
        <time>2020-07-08T11:32:56Z</time>
      </trkpt>
      <trkpt lat="47.8271" lon="-3.54129">
        <ele>5.47</ele>
        <time>2020-07-08T11:32:57Z</time>
      </trkpt>
      <trkpt lat="47.82706" lon="-3.54127">
        <ele>5.38</ele>
        <time>2020-07-08T11:32:58Z</time>
      </trkpt>
      <trkpt lat="47.82701" lon="-3.54127">
        <ele>5.46</ele>
        <time>2020-07-08T11:32:59Z</time>
      </trkpt>
      <trkpt lat="47.82695" lon="-3.54126">
        <ele>5.55</ele>
        <time>2020-07-08T11:33:00Z</time>
      </trkpt>
      <trkpt lat="47.8269" lon="-3.54127">
        <ele>5.9</ele>
        <time>2020-07-08T11:33:01Z</time>
      </trkpt>
      <trkpt lat="47.82685" lon="-3.54128">
        <ele>6.26</ele>
        <time>2020-07-08T11:33:02Z</time>
      </trkpt>
      <trkpt lat="47.8268" lon="-3.54128">
        <ele>6.61</ele>
        <time>2020-07-08T11:33:03Z</time>
      </trkpt>
      <trkpt lat="47.82675" lon="-3.54128">
        <ele>6.89</ele>
        <time>2020-07-08T11:33:04Z</time>
      </trkpt>
      <trkpt lat="47.82671" lon="-3.54128">
        <ele>7.17</ele>
        <time>2020-07-08T11:33:05Z</time>
      </trkpt>
      <trkpt lat="47.82667" lon="-3.54127">
        <ele>7.35</ele>
        <time>2020-07-08T11:33:06Z</time>
      </trkpt>
      <trkpt lat="47.82661" lon="-3.54124">
        <ele>7.22</ele>
        <time>2020-07-08T11:33:07Z</time>
      </trkpt>
      <trkpt lat="47.82656" lon="-3.54123">
        <ele>7.08</ele>
        <time>2020-07-08T11:33:08Z</time>
      </trkpt>
      <trkpt lat="47.8265" lon="-3.54122">
        <ele>7.2</ele>
        <time>2020-07-08T11:33:09Z</time>
      </trkpt>
      <trkpt lat="47.82645" lon="-3.54121">
        <ele>7.21</ele>
        <time>2020-07-08T11:33:10Z</time>
      </trkpt>
      <trkpt lat="47.8264" lon="-3.5412">
        <ele>7.21</ele>
        <time>2020-07-08T11:33:11Z</time>
      </trkpt>
      <trkpt lat="47.82636" lon="-3.5412">
        <ele>7.18</ele>
        <time>2020-07-08T11:33:12Z</time>
      </trkpt>
      <trkpt lat="47.82631" lon="-3.5412">
        <ele>7.03</ele>
        <time>2020-07-08T11:33:13Z</time>
      </trkpt>
      <trkpt lat="47.82626" lon="-3.54119">
        <ele>6.87</ele>
        <time>2020-07-08T11:33:14Z</time>
      </trkpt>
      <trkpt lat="47.82621" lon="-3.54122">
        <ele>7.07</ele>
        <time>2020-07-08T11:33:15Z</time>
      </trkpt>
      <trkpt lat="47.82617" lon="-3.54124">
        <ele>7.37</ele>
        <time>2020-07-08T11:33:16Z</time>
      </trkpt>
      <trkpt lat="47.82613" lon="-3.54127">
        <ele>7.76</ele>
        <time>2020-07-08T11:33:17Z</time>
      </trkpt>
      <trkpt lat="47.82608" lon="-3.54131">
        <ele>8.22</ele>
        <time>2020-07-08T11:33:18Z</time>
      </trkpt>
      <trkpt lat="47.82606" lon="-3.54135">
        <ele>8.77</ele>
        <time>2020-07-08T11:33:19Z</time>
      </trkpt>
      <trkpt lat="47.82603" lon="-3.5414">
        <ele>9.32</ele>
        <time>2020-07-08T11:33:20Z</time>
      </trkpt>
      <trkpt lat="47.826" lon="-3.54143">
        <ele>9.84</ele>
        <time>2020-07-08T11:33:21Z</time>
      </trkpt>
      <trkpt lat="47.82596" lon="-3.54146">
        <ele>10.12</ele>
        <time>2020-07-08T11:33:22Z</time>
      </trkpt>
      <trkpt lat="47.82592" lon="-3.54146">
        <ele>10.07</ele>
        <time>2020-07-08T11:33:23Z</time>
      </trkpt>
      <trkpt lat="47.82588" lon="-3.54145">
        <ele>9.67</ele>
        <time>2020-07-08T11:33:24Z</time>
      </trkpt>
      <trkpt lat="47.82585" lon="-3.54143">
        <ele>9.08</ele>
        <time>2020-07-08T11:33:25Z</time>
      </trkpt>
      <trkpt lat="47.82581" lon="-3.54141">
        <ele>8.63</ele>
        <time>2020-07-08T11:33:26Z</time>
      </trkpt>
      <trkpt lat="47.82578" lon="-3.54139">
        <ele>8.3</ele>
        <time>2020-07-08T11:33:27Z</time>
      </trkpt>
      <trkpt lat="47.82575" lon="-3.54137">
        <ele>8.12</ele>
        <time>2020-07-08T11:33:28Z</time>
      </trkpt>
      <trkpt lat="47.8257" lon="-3.54136">
        <ele>8.11</ele>
        <time>2020-07-08T11:33:29Z</time>
      </trkpt>
      <trkpt lat="47.82567" lon="-3.54135">
        <ele>8.09</ele>
        <time>2020-07-08T11:33:30Z</time>
      </trkpt>
      <trkpt lat="47.82562" lon="-3.54134">
        <ele>8.09</ele>
        <time>2020-07-08T11:33:31Z</time>
      </trkpt>
      <trkpt lat="47.82559" lon="-3.54134">
        <ele>8.15</ele>
        <time>2020-07-08T11:33:32Z</time>
      </trkpt>
      <trkpt lat="47.82555" lon="-3.54135">
        <ele>8.34</ele>
        <time>2020-07-08T11:33:33Z</time>
      </trkpt>
      <trkpt lat="47.82549" lon="-3.54135">
        <ele>8.65</ele>
        <time>2020-07-08T11:33:34Z</time>
      </trkpt>
      <trkpt lat="47.82545" lon="-3.54136">
        <ele>9.11</ele>
        <time>2020-07-08T11:33:35Z</time>
      </trkpt>
      <trkpt lat="47.8254" lon="-3.54137">
        <ele>9.53</ele>
        <time>2020-07-08T11:33:36Z</time>
      </trkpt>
      <trkpt lat="47.82536" lon="-3.54139">
        <ele>10.1</ele>
        <time>2020-07-08T11:33:37Z</time>
      </trkpt>
      <trkpt lat="47.82532" lon="-3.54139">
        <ele>10.61</ele>
        <time>2020-07-08T11:33:38Z</time>
      </trkpt>
      <trkpt lat="47.82527" lon="-3.54141">
        <ele>11.22</ele>
        <time>2020-07-08T11:33:39Z</time>
      </trkpt>
      <trkpt lat="47.82523" lon="-3.54142">
        <ele>11.19</ele>
        <time>2020-07-08T11:33:40Z</time>
      </trkpt>
      <trkpt lat="47.82519" lon="-3.54143">
        <ele>11.01</ele>
        <time>2020-07-08T11:33:41Z</time>
      </trkpt>
      <trkpt lat="47.82515" lon="-3.54144">
        <ele>10.8</ele>
        <time>2020-07-08T11:33:42Z</time>
      </trkpt>
      <trkpt lat="47.82512" lon="-3.54145">
        <ele>10.55</ele>
        <time>2020-07-08T11:33:43Z</time>
      </trkpt>
      <trkpt lat="47.82507" lon="-3.54145">
        <ele>10.13</ele>
        <time>2020-07-08T11:33:44Z</time>
      </trkpt>
      <trkpt lat="47.82503" lon="-3.54146">
        <ele>9.73</ele>
        <time>2020-07-08T11:33:45Z</time>
      </trkpt>
      <trkpt lat="47.82498" lon="-3.54146">
        <ele>9.3</ele>
        <time>2020-07-08T11:33:46Z</time>
      </trkpt>
      <trkpt lat="47.82493" lon="-3.54145">
        <ele>8.83</ele>
        <time>2020-07-08T11:33:47Z</time>
      </trkpt>
      <trkpt lat="47.82489" lon="-3.54145">
        <ele>8.45</ele>
        <time>2020-07-08T11:33:48Z</time>
      </trkpt>
      <trkpt lat="47.82485" lon="-3.54146">
        <ele>8.25</ele>
        <time>2020-07-08T11:33:49Z</time>
      </trkpt>
      <trkpt lat="47.8248" lon="-3.54147">
        <ele>8.11</ele>
        <time>2020-07-08T11:33:50Z</time>
      </trkpt>
      <trkpt lat="47.82476" lon="-3.54148">
        <ele>7.96</ele>
        <time>2020-07-08T11:33:51Z</time>
      </trkpt>
      <trkpt lat="47.8247" lon="-3.54149">
        <ele>7.81</ele>
        <time>2020-07-08T11:33:52Z</time>
      </trkpt>
      <trkpt lat="47.82465" lon="-3.54149">
        <ele>7.68</ele>
        <time>2020-07-08T11:33:53Z</time>
      </trkpt>
      <trkpt lat="47.82461" lon="-3.5415">
        <ele>7.68</ele>
        <time>2020-07-08T11:33:54Z</time>
      </trkpt>
      <trkpt lat="47.82456" lon="-3.5415">
        <ele>7.66</ele>
        <time>2020-07-08T11:33:55Z</time>
      </trkpt>
      <trkpt lat="47.82451" lon="-3.5415">
        <ele>7.63</ele>
        <time>2020-07-08T11:33:56Z</time>
      </trkpt>
      <trkpt lat="47.82448" lon="-3.54152">
        <ele>7.84</ele>
        <time>2020-07-08T11:33:57Z</time>
      </trkpt>
      <trkpt lat="47.82445" lon="-3.54154">
        <ele>8.14</ele>
        <time>2020-07-08T11:33:58Z</time>
      </trkpt>
      <trkpt lat="47.82441" lon="-3.54157">
        <ele>8.47</ele>
        <time>2020-07-08T11:33:59Z</time>
      </trkpt>
      <trkpt lat="47.82437" lon="-3.5416">
        <ele>8.87</ele>
        <time>2020-07-08T11:34:00Z</time>
      </trkpt>
      <trkpt lat="47.82434" lon="-3.54164">
        <ele>9.26</ele>
        <time>2020-07-08T11:34:01Z</time>
      </trkpt>
      <trkpt lat="47.82432" lon="-3.54167">
        <ele>9.56</ele>
        <time>2020-07-08T11:34:02Z</time>
      </trkpt>
      <trkpt lat="47.82429" lon="-3.5417">
        <ele>9.91</ele>
        <time>2020-07-08T11:34:03Z</time>
      </trkpt>
      <trkpt lat="47.82426" lon="-3.54174">
        <ele>10.28</ele>
        <time>2020-07-08T11:34:04Z</time>
      </trkpt>
      <trkpt lat="47.82424" lon="-3.54177">
        <ele>10.62</ele>
        <time>2020-07-08T11:34:05Z</time>
      </trkpt>
      <trkpt lat="47.82421" lon="-3.5418">
        <ele>10.89</ele>
        <time>2020-07-08T11:34:06Z</time>
      </trkpt>
      <trkpt lat="47.82419" lon="-3.54183">
        <ele>11.19</ele>
        <time>2020-07-08T11:34:07Z</time>
      </trkpt>
      <trkpt lat="47.82416" lon="-3.54188">
        <ele>11.52</ele>
        <time>2020-07-08T11:34:08Z</time>
      </trkpt>
      <trkpt lat="47.82414" lon="-3.54191">
        <ele>11.86</ele>
        <time>2020-07-08T11:34:09Z</time>
      </trkpt>
      <trkpt lat="47.8241" lon="-3.54196">
        <ele>12.17</ele>
        <time>2020-07-08T11:34:10Z</time>
      </trkpt>
      <trkpt lat="47.82408" lon="-3.54201">
        <ele>12.65</ele>
        <time>2020-07-08T11:34:11Z</time>
      </trkpt>
      <trkpt lat="47.82405" lon="-3.54206">
        <ele>13.16</ele>
        <time>2020-07-08T11:34:12Z</time>
      </trkpt>
      <trkpt lat="47.82402" lon="-3.5421">
        <ele>13.55</ele>
        <time>2020-07-08T11:34:13Z</time>
      </trkpt>
      <trkpt lat="47.82399" lon="-3.54214">
        <ele>13.92</ele>
        <time>2020-07-08T11:34:14Z</time>
      </trkpt>
      <trkpt lat="47.82397" lon="-3.54218">
        <ele>14.28</ele>
        <time>2020-07-08T11:34:15Z</time>
      </trkpt>
      <trkpt lat="47.82393" lon="-3.54223">
        <ele>14.56</ele>
        <time>2020-07-08T11:34:16Z</time>
      </trkpt>
      <trkpt lat="47.8239" lon="-3.54227">
        <ele>14.74</ele>
        <time>2020-07-08T11:34:17Z</time>
      </trkpt>
      <trkpt lat="47.82388" lon="-3.54232">
        <ele>15.15</ele>
        <time>2020-07-08T11:34:18Z</time>
      </trkpt>
      <trkpt lat="47.82385" lon="-3.54236">
        <ele>15.57</ele>
        <time>2020-07-08T11:34:19Z</time>
      </trkpt>
      <trkpt lat="47.82383" lon="-3.54241">
        <ele>16.05</ele>
        <time>2020-07-08T11:34:20Z</time>
      </trkpt>
      <trkpt lat="47.82381" lon="-3.54245">
        <ele>16.5</ele>
        <time>2020-07-08T11:34:21Z</time>
      </trkpt>
      <trkpt lat="47.82379" lon="-3.54248">
        <ele>16.85</ele>
        <time>2020-07-08T11:34:22Z</time>
      </trkpt>
      <trkpt lat="47.82377" lon="-3.54252">
        <ele>17.1</ele>
        <time>2020-07-08T11:34:23Z</time>
      </trkpt>
      <trkpt lat="47.82374" lon="-3.54257">
        <ele>17.22</ele>
        <time>2020-07-08T11:34:24Z</time>
      </trkpt>
      <trkpt lat="47.82372" lon="-3.54261">
        <ele>17.33</ele>
        <time>2020-07-08T11:34:25Z</time>
      </trkpt>
      <trkpt lat="47.82371" lon="-3.54264">
        <ele>17.48</ele>
        <time>2020-07-08T11:34:26Z</time>
      </trkpt>
      <trkpt lat="47.8237" lon="-3.54269">
        <ele>17.69</ele>
        <time>2020-07-08T11:34:27Z</time>
      </trkpt>
      <trkpt lat="47.8237" lon="-3.54273">
        <ele>17.94</ele>
        <time>2020-07-08T11:34:28Z</time>
      </trkpt>
      <trkpt lat="47.82371" lon="-3.54276">
        <ele>18.16</ele>
        <time>2020-07-08T11:34:29Z</time>
      </trkpt>
      <trkpt lat="47.82371" lon="-3.54279">
        <ele>18.29</ele>
        <time>2020-07-08T11:34:30Z</time>
      </trkpt>
      <trkpt lat="47.82371" lon="-3.5428">
        <ele>18.34</ele>
        <time>2020-07-08T11:34:31Z</time>
      </trkpt>
      <trkpt lat="47.82371" lon="-3.54281">
        <ele>18.36</ele>
        <time>2020-07-08T11:34:32Z</time>
      </trkpt>
      <trkpt lat="47.82371" lon="-3.54281">
        <ele>18.36</ele>
        <time>2020-07-08T11:34:33Z</time>
      </trkpt>
      <trkpt lat="47.82371" lon="-3.54281">
        <ele>18.36</ele>
        <time>2020-07-08T11:34:34Z</time>
      </trkpt>
      <trkpt lat="47.82371" lon="-3.54281">
        <ele>18.36</ele>
        <time>2020-07-08T11:34:35Z</time>
      </trkpt>
      <trkpt lat="47.82371" lon="-3.54281">
        <ele>18.36</ele>
        <time>2020-07-08T11:34:36Z</time>
      </trkpt>
      <trkpt lat="47.82371" lon="-3.54281">
        <ele>18.36</ele>
        <time>2020-07-08T11:34:37Z</time>
      </trkpt>
      <trkpt lat="47.82371" lon="-3.54281">
        <ele>18.36</ele>
        <time>2020-07-08T11:34:38Z</time>
      </trkpt>
      <trkpt lat="47.82371" lon="-3.54281">
        <ele>18.36</ele>
        <time>2020-07-08T11:34:39Z</time>
      </trkpt>
      <trkpt lat="47.82371" lon="-3.54281">
        <ele>18.36</ele>
        <time>2020-07-08T11:34:40Z</time>
      </trkpt>
      <trkpt lat="47.82371" lon="-3.54281">
        <ele>18.36</ele>
        <time>2020-07-08T11:34:41Z</time>
      </trkpt>
      <trkpt lat="47.82371" lon="-3.54281">
        <ele>18.36</ele>
        <time>2020-07-08T11:34:42Z</time>
      </trkpt>
      <trkpt lat="47.82371" lon="-3.54281">
        <ele>18.36</ele>
        <time>2020-07-08T11:34:43Z</time>
      </trkpt>
      <trkpt lat="47.82371" lon="-3.54281">
        <ele>18.36</ele>
        <time>2020-07-08T11:34:44Z</time>
      </trkpt>
      <trkpt lat="47.82371" lon="-3.54281">
        <ele>18.36</ele>
        <time>2020-07-08T11:34:45Z</time>
      </trkpt>
      <trkpt lat="47.82371" lon="-3.54281">
        <ele>18.36</ele>
        <time>2020-07-08T11:34:46Z</time>
      </trkpt>
      <trkpt lat="47.82371" lon="-3.54281">
        <ele>18.36</ele>
        <time>2020-07-08T11:34:47Z</time>
      </trkpt>
      <trkpt lat="47.82371" lon="-3.54281">
        <ele>18.36</ele>
        <time>2020-07-08T11:34:48Z</time>
      </trkpt>
      <trkpt lat="47.82371" lon="-3.54281">
        <ele>18.36</ele>
        <time>2020-07-08T11:34:49Z</time>
      </trkpt>
      <trkpt lat="47.82371" lon="-3.54281">
        <ele>18.36</ele>
        <time>2020-07-08T11:34:50Z</time>
      </trkpt>
      <trkpt lat="47.82371" lon="-3.54281">
        <ele>18.36</ele>
        <time>2020-07-08T11:34:51Z</time>
      </trkpt>
      <trkpt lat="47.82371" lon="-3.54281">
        <ele>18.36</ele>
        <time>2020-07-08T11:34:52Z</time>
      </trkpt>
      <trkpt lat="47.82371" lon="-3.54281">
        <ele>18.36</ele>
        <time>2020-07-08T11:34:53Z</time>
      </trkpt>
      <trkpt lat="47.82371" lon="-3.54281">
        <ele>18.36</ele>
        <time>2020-07-08T11:34:54Z</time>
      </trkpt>
      <trkpt lat="47.82371" lon="-3.54281">
        <ele>18.36</ele>
        <time>2020-07-08T11:34:55Z</time>
      </trkpt>
      <trkpt lat="47.82371" lon="-3.54281">
        <ele>18.36</ele>
        <time>2020-07-08T11:34:56Z</time>
      </trkpt>
      <trkpt lat="47.82371" lon="-3.54281">
        <ele>18.36</ele>
        <time>2020-07-08T11:34:57Z</time>
      </trkpt>
      <trkpt lat="47.82371" lon="-3.54281">
        <ele>18.36</ele>
        <time>2020-07-08T11:34:58Z</time>
      </trkpt>
      <trkpt lat="47.82371" lon="-3.54281">
        <ele>18.36</ele>
        <time>2020-07-08T11:34:59Z</time>
      </trkpt>
      <trkpt lat="47.82371" lon="-3.54281">
        <ele>18.36</ele>
        <time>2020-07-08T11:35:00Z</time>
      </trkpt>
      <trkpt lat="47.82371" lon="-3.54281">
        <ele>18.36</ele>
        <time>2020-07-08T11:35:01Z</time>
      </trkpt>
      <trkpt lat="47.82371" lon="-3.54281">
        <ele>18.36</ele>
        <time>2020-07-08T11:35:02Z</time>
      </trkpt>
      <trkpt lat="47.82371" lon="-3.54281">
        <ele>18.36</ele>
        <time>2020-07-08T11:35:03Z</time>
      </trkpt>
      <trkpt lat="47.82371" lon="-3.54281">
        <ele>18.36</ele>
        <time>2020-07-08T11:35:04Z</time>
      </trkpt>
      <trkpt lat="47.82371" lon="-3.54281">
        <ele>18.36</ele>
        <time>2020-07-08T11:35:05Z</time>
      </trkpt>
      <trkpt lat="47.82371" lon="-3.54281">
        <ele>18.36</ele>
        <time>2020-07-08T11:35:06Z</time>
      </trkpt>
      <trkpt lat="47.82371" lon="-3.54281">
        <ele>18.36</ele>
        <time>2020-07-08T11:35:07Z</time>
      </trkpt>
      <trkpt lat="47.82371" lon="-3.54281">
        <ele>18.36</ele>
        <time>2020-07-08T11:35:08Z</time>
      </trkpt>
      <trkpt lat="47.82371" lon="-3.54281">
        <ele>18.36</ele>
        <time>2020-07-08T11:35:09Z</time>
      </trkpt>
      <trkpt lat="47.82371" lon="-3.54281">
        <ele>18.36</ele>
        <time>2020-07-08T11:35:10Z</time>
      </trkpt>
      <trkpt lat="47.82371" lon="-3.54281">
        <ele>18.36</ele>
        <time>2020-07-08T11:35:11Z</time>
      </trkpt>
      <trkpt lat="47.82371" lon="-3.54281">
        <ele>18.36</ele>
        <time>2020-07-08T11:35:12Z</time>
      </trkpt>
      <trkpt lat="47.82371" lon="-3.54281">
        <ele>18.36</ele>
        <time>2020-07-08T11:35:13Z</time>
      </trkpt>
      <trkpt lat="47.82371" lon="-3.54281">
        <ele>18.36</ele>
        <time>2020-07-08T11:35:14Z</time>
      </trkpt>
      <trkpt lat="47.82371" lon="-3.54281">
        <ele>18.36</ele>
        <time>2020-07-08T11:35:15Z</time>
      </trkpt>
      <trkpt lat="47.82371" lon="-3.54281">
        <ele>18.36</ele>
        <time>2020-07-08T11:35:16Z</time>
      </trkpt>
      <trkpt lat="47.82366" lon="-3.54291">
        <ele>18.23</ele>
        <time>2020-07-08T11:35:17Z</time>
      </trkpt>
      <trkpt lat="47.82364" lon="-3.54294">
        <ele>18.15</ele>
        <time>2020-07-08T11:35:18Z</time>
      </trkpt>
      <trkpt lat="47.82364" lon="-3.54297">
        <ele>18.13</ele>
        <time>2020-07-08T11:35:19Z</time>
      </trkpt>
      <trkpt lat="47.82364" lon="-3.543">
        <ele>18.11</ele>
        <time>2020-07-08T11:35:20Z</time>
      </trkpt>
      <trkpt lat="47.82365" lon="-3.54303">
        <ele>18.13</ele>
        <time>2020-07-08T11:35:21Z</time>
      </trkpt>
      <trkpt lat="47.82365" lon="-3.54307">
        <ele>18.03</ele>
        <time>2020-07-08T11:35:22Z</time>
      </trkpt>
      <trkpt lat="47.82367" lon="-3.5431">
        <ele>17.52</ele>
        <time>2020-07-08T11:35:23Z</time>
      </trkpt>
      <trkpt lat="47.82368" lon="-3.54315">
        <ele>16.89</ele>
        <time>2020-07-08T11:35:24Z</time>
      </trkpt>
      <trkpt lat="47.82371" lon="-3.54319">
        <ele>16.46</ele>
        <time>2020-07-08T11:35:25Z</time>
      </trkpt>
      <trkpt lat="47.82372" lon="-3.54323">
        <ele>16.04</ele>
        <time>2020-07-08T11:35:26Z</time>
      </trkpt>
      <trkpt lat="47.82374" lon="-3.54329">
        <ele>15.6</ele>
        <time>2020-07-08T11:35:27Z</time>
      </trkpt>
      <trkpt lat="47.82377" lon="-3.54334">
        <ele>15.26</ele>
        <time>2020-07-08T11:35:28Z</time>
      </trkpt>
      <trkpt lat="47.82379" lon="-3.5434">
        <ele>14.88</ele>
        <time>2020-07-08T11:35:29Z</time>
      </trkpt>
      <trkpt lat="47.82381" lon="-3.54345">
        <ele>14.49</ele>
        <time>2020-07-08T11:35:30Z</time>
      </trkpt>
      <trkpt lat="47.82382" lon="-3.54349">
        <ele>14.22</ele>
        <time>2020-07-08T11:35:31Z</time>
      </trkpt>
      <trkpt lat="47.82383" lon="-3.54352">
        <ele>13.94</ele>
        <time>2020-07-08T11:35:32Z</time>
      </trkpt>
      <trkpt lat="47.82384" lon="-3.54355">
        <ele>13.75</ele>
        <time>2020-07-08T11:35:33Z</time>
      </trkpt>
      <trkpt lat="47.82385" lon="-3.54358">
        <ele>13.53</ele>
        <time>2020-07-08T11:35:34Z</time>
      </trkpt>
      <trkpt lat="47.82386" lon="-3.54362">
        <ele>13.26</ele>
        <time>2020-07-08T11:35:35Z</time>
      </trkpt>
      <trkpt lat="47.82386" lon="-3.54366">
        <ele>12.9</ele>
        <time>2020-07-08T11:35:36Z</time>
      </trkpt>
      <trkpt lat="47.82387" lon="-3.54371">
        <ele>12.48</ele>
        <time>2020-07-08T11:35:37Z</time>
      </trkpt>
      <trkpt lat="47.82386" lon="-3.54376">
        <ele>11.86</ele>
        <time>2020-07-08T11:35:38Z</time>
      </trkpt>
      <trkpt lat="47.82386" lon="-3.54382">
        <ele>11.27</ele>
        <time>2020-07-08T11:35:39Z</time>
      </trkpt>
      <trkpt lat="47.82386" lon="-3.54388">
        <ele>10.52</ele>
        <time>2020-07-08T11:35:40Z</time>
      </trkpt>
      <trkpt lat="47.82385" lon="-3.54394">
        <ele>10.12</ele>
        <time>2020-07-08T11:35:41Z</time>
      </trkpt>
      <trkpt lat="47.82385" lon="-3.544">
        <ele>9.84</ele>
        <time>2020-07-08T11:35:42Z</time>
      </trkpt>
      <trkpt lat="47.82384" lon="-3.54407">
        <ele>9.55</ele>
        <time>2020-07-08T11:35:43Z</time>
      </trkpt>
      <trkpt lat="47.82383" lon="-3.54413">
        <ele>9.29</ele>
        <time>2020-07-08T11:35:44Z</time>
      </trkpt>
      <trkpt lat="47.82383" lon="-3.5442">
        <ele>9.04</ele>
        <time>2020-07-08T11:35:45Z</time>
      </trkpt>
      <trkpt lat="47.82382" lon="-3.54428">
        <ele>8.77</ele>
        <time>2020-07-08T11:35:46Z</time>
      </trkpt>
      <trkpt lat="47.8238" lon="-3.54435">
        <ele>8.32</ele>
        <time>2020-07-08T11:35:47Z</time>
      </trkpt>
      <trkpt lat="47.8238" lon="-3.54443">
        <ele>8.18</ele>
        <time>2020-07-08T11:35:48Z</time>
      </trkpt>
      <trkpt lat="47.8238" lon="-3.54448">
        <ele>7.99</ele>
        <time>2020-07-08T11:35:49Z</time>
      </trkpt>
      <trkpt lat="47.82379" lon="-3.54455">
        <ele>7.72</ele>
        <time>2020-07-08T11:35:50Z</time>
      </trkpt>
      <trkpt lat="47.82377" lon="-3.5446">
        <ele>7.15</ele>
        <time>2020-07-08T11:35:51Z</time>
      </trkpt>
      <trkpt lat="47.82375" lon="-3.54467">
        <ele>6.5</ele>
        <time>2020-07-08T11:35:52Z</time>
      </trkpt>
      <trkpt lat="47.82374" lon="-3.54474">
        <ele>5.94</ele>
        <time>2020-07-08T11:35:53Z</time>
      </trkpt>
      <trkpt lat="47.82375" lon="-3.5448">
        <ele>5.74</ele>
        <time>2020-07-08T11:35:54Z</time>
      </trkpt>
      <trkpt lat="47.82377" lon="-3.54486">
        <ele>5.96</ele>
        <time>2020-07-08T11:35:55Z</time>
      </trkpt>
      <trkpt lat="47.82379" lon="-3.5449">
        <ele>6.47</ele>
        <time>2020-07-08T11:35:56Z</time>
      </trkpt>
      <trkpt lat="47.8238" lon="-3.54493">
        <ele>6.88</ele>
        <time>2020-07-08T11:35:57Z</time>
      </trkpt>
      <trkpt lat="47.8238" lon="-3.54496">
        <ele>7.02</ele>
        <time>2020-07-08T11:35:58Z</time>
      </trkpt>
      <trkpt lat="47.82381" lon="-3.54497">
        <ele>7.14</ele>
        <time>2020-07-08T11:35:59Z</time>
      </trkpt>
      <trkpt lat="47.8238" lon="-3.545">
        <ele>6.95</ele>
        <time>2020-07-08T11:36:00Z</time>
      </trkpt>
      <trkpt lat="47.8238" lon="-3.54504">
        <ele>6.93</ele>
        <time>2020-07-08T11:36:01Z</time>
      </trkpt>
      <trkpt lat="47.82381" lon="-3.54507">
        <ele>7.24</ele>
        <time>2020-07-08T11:36:02Z</time>
      </trkpt>
      <trkpt lat="47.82381" lon="-3.54512">
        <ele>7.43</ele>
        <time>2020-07-08T11:36:03Z</time>
      </trkpt>
      <trkpt lat="47.82379" lon="-3.54518">
        <ele>7.29</ele>
        <time>2020-07-08T11:36:04Z</time>
      </trkpt>
      <trkpt lat="47.82379" lon="-3.54523">
        <ele>7.3</ele>
        <time>2020-07-08T11:36:05Z</time>
      </trkpt>
      <trkpt lat="47.82378" lon="-3.54529">
        <ele>7.3</ele>
        <time>2020-07-08T11:36:06Z</time>
      </trkpt>
      <trkpt lat="47.82377" lon="-3.54534">
        <ele>7.27</ele>
        <time>2020-07-08T11:36:07Z</time>
      </trkpt>
      <trkpt lat="47.82376" lon="-3.5454">
        <ele>7.33</ele>
        <time>2020-07-08T11:36:08Z</time>
      </trkpt>
      <trkpt lat="47.82375" lon="-3.54546">
        <ele>7.46</ele>
        <time>2020-07-08T11:36:09Z</time>
      </trkpt>
      <trkpt lat="47.82374" lon="-3.54553">
        <ele>7.65</ele>
        <time>2020-07-08T11:36:10Z</time>
      </trkpt>
      <trkpt lat="47.82371" lon="-3.54561">
        <ele>7.57</ele>
        <time>2020-07-08T11:36:11Z</time>
      </trkpt>
      <trkpt lat="47.82372" lon="-3.54571">
        <ele>7.83</ele>
        <time>2020-07-08T11:36:12Z</time>
      </trkpt>
      <trkpt lat="47.82371" lon="-3.54574">
        <ele>7.87</ele>
        <time>2020-07-08T11:36:13Z</time>
      </trkpt>
      <trkpt lat="47.8237" lon="-3.54576">
        <ele>7.82</ele>
        <time>2020-07-08T11:36:14Z</time>
      </trkpt>
      <trkpt lat="47.82368" lon="-3.54579">
        <ele>7.68</ele>
        <time>2020-07-08T11:36:15Z</time>
      </trkpt>
      <trkpt lat="47.82366" lon="-3.54581">
        <ele>7.55</ele>
        <time>2020-07-08T11:36:16Z</time>
      </trkpt>
      <trkpt lat="47.82365" lon="-3.54583">
        <ele>7.42</ele>
        <time>2020-07-08T11:36:17Z</time>
      </trkpt>
      <trkpt lat="47.82363" lon="-3.54585">
        <ele>7.24</ele>
        <time>2020-07-08T11:36:18Z</time>
      </trkpt>
      <trkpt lat="47.82361" lon="-3.54586">
        <ele>7.1</ele>
        <time>2020-07-08T11:36:19Z</time>
      </trkpt>
      <trkpt lat="47.82359" lon="-3.54588">
        <ele>7.25</ele>
        <time>2020-07-08T11:36:20Z</time>
      </trkpt>
      <trkpt lat="47.82358" lon="-3.54588">
        <ele>7.45</ele>
        <time>2020-07-08T11:36:21Z</time>
      </trkpt>
      <trkpt lat="47.82357" lon="-3.54586">
        <ele>7.56</ele>
        <time>2020-07-08T11:36:22Z</time>
      </trkpt>
      <trkpt lat="47.82356" lon="-3.54583">
        <ele>7.68</ele>
        <time>2020-07-08T11:36:23Z</time>
      </trkpt>
      <trkpt lat="47.82355" lon="-3.5458">
        <ele>7.73</ele>
        <time>2020-07-08T11:36:24Z</time>
      </trkpt>
      <trkpt lat="47.82354" lon="-3.54575">
        <ele>7.73</ele>
        <time>2020-07-08T11:36:25Z</time>
      </trkpt>
      <trkpt lat="47.82354" lon="-3.54573">
        <ele>7.72</ele>
        <time>2020-07-08T11:36:26Z</time>
      </trkpt>
      <trkpt lat="47.82353" lon="-3.54571">
        <ele>7.69</ele>
        <time>2020-07-08T11:36:27Z</time>
      </trkpt>
      <trkpt lat="47.82352" lon="-3.54569">
        <ele>7.72</ele>
        <time>2020-07-08T11:36:28Z</time>
      </trkpt>
      <trkpt lat="47.82351" lon="-3.54567">
        <ele>7.78</ele>
        <time>2020-07-08T11:36:29Z</time>
      </trkpt>
      <trkpt lat="47.82351" lon="-3.54564">
        <ele>7.78</ele>
        <time>2020-07-08T11:36:30Z</time>
      </trkpt>
      <trkpt lat="47.82351" lon="-3.54561">
        <ele>7.71</ele>
        <time>2020-07-08T11:36:31Z</time>
      </trkpt>
      <trkpt lat="47.8235" lon="-3.54558">
        <ele>7.68</ele>
        <time>2020-07-08T11:36:32Z</time>
      </trkpt>
      <trkpt lat="47.82349" lon="-3.54555">
        <ele>7.64</ele>
        <time>2020-07-08T11:36:33Z</time>
      </trkpt>
      <trkpt lat="47.82349" lon="-3.54551">
        <ele>7.41</ele>
        <time>2020-07-08T11:36:34Z</time>
      </trkpt>
      <trkpt lat="47.82349" lon="-3.54547">
        <ele>7.13</ele>
        <time>2020-07-08T11:36:35Z</time>
      </trkpt>
      <trkpt lat="47.82348" lon="-3.54542">
        <ele>6.8</ele>
        <time>2020-07-08T11:36:36Z</time>
      </trkpt>
      <trkpt lat="47.82347" lon="-3.54538">
        <ele>6.5</ele>
        <time>2020-07-08T11:36:37Z</time>
      </trkpt>
      <trkpt lat="47.82346" lon="-3.54533">
        <ele>6.24</ele>
        <time>2020-07-08T11:36:38Z</time>
      </trkpt>
      <trkpt lat="47.82346" lon="-3.54529">
        <ele>5.97</ele>
        <time>2020-07-08T11:36:39Z</time>
      </trkpt>
      <trkpt lat="47.82345" lon="-3.54524">
        <ele>5.67</ele>
        <time>2020-07-08T11:36:40Z</time>
      </trkpt>
      <trkpt lat="47.82345" lon="-3.54519">
        <ele>5.33</ele>
        <time>2020-07-08T11:36:41Z</time>
      </trkpt>
      <trkpt lat="47.82344" lon="-3.54513">
        <ele>5.01</ele>
        <time>2020-07-08T11:36:42Z</time>
      </trkpt>
      <trkpt lat="47.82343" lon="-3.54508">
        <ele>4.71</ele>
        <time>2020-07-08T11:36:43Z</time>
      </trkpt>
      <trkpt lat="47.82341" lon="-3.54503">
        <ele>4.53</ele>
        <time>2020-07-08T11:36:44Z</time>
      </trkpt>
      <trkpt lat="47.8234" lon="-3.54497">
        <ele>4.51</ele>
        <time>2020-07-08T11:36:45Z</time>
      </trkpt>
      <trkpt lat="47.82338" lon="-3.54492">
        <ele>4.51</ele>
        <time>2020-07-08T11:36:46Z</time>
      </trkpt>
      <trkpt lat="47.82338" lon="-3.54488">
        <ele>4.44</ele>
        <time>2020-07-08T11:36:47Z</time>
      </trkpt>
      <trkpt lat="47.82337" lon="-3.54482">
        <ele>4.3</ele>
        <time>2020-07-08T11:36:48Z</time>
      </trkpt>
      <trkpt lat="47.82337" lon="-3.54477">
        <ele>3.98</ele>
        <time>2020-07-08T11:36:49Z</time>
      </trkpt>
      <trkpt lat="47.82338" lon="-3.54472">
        <ele>3.68</ele>
        <time>2020-07-08T11:36:50Z</time>
      </trkpt>
      <trkpt lat="47.82338" lon="-3.54467">
        <ele>3.36</ele>
        <time>2020-07-08T11:36:51Z</time>
      </trkpt>
      <trkpt lat="47.82336" lon="-3.54462">
        <ele>3.16</ele>
        <time>2020-07-08T11:36:52Z</time>
      </trkpt>
      <trkpt lat="47.82334" lon="-3.54458">
        <ele>2.98</ele>
        <time>2020-07-08T11:36:53Z</time>
      </trkpt>
      <trkpt lat="47.82332" lon="-3.54453">
        <ele>3.05</ele>
        <time>2020-07-08T11:36:54Z</time>
      </trkpt>
      <trkpt lat="47.82329" lon="-3.5445">
        <ele>3.44</ele>
        <time>2020-07-08T11:36:55Z</time>
      </trkpt>
      <trkpt lat="47.82327" lon="-3.54445">
        <ele>3.85</ele>
        <time>2020-07-08T11:36:56Z</time>
      </trkpt>
      <trkpt lat="47.82324" lon="-3.54441">
        <ele>4.52</ele>
        <time>2020-07-08T11:36:57Z</time>
      </trkpt>
      <trkpt lat="47.82322" lon="-3.54438">
        <ele>5.16</ele>
        <time>2020-07-08T11:36:58Z</time>
      </trkpt>
      <trkpt lat="47.8232" lon="-3.54435">
        <ele>5.62</ele>
        <time>2020-07-08T11:36:59Z</time>
      </trkpt>
      <trkpt lat="47.82318" lon="-3.54431">
        <ele>5.96</ele>
        <time>2020-07-08T11:37:00Z</time>
      </trkpt>
      <trkpt lat="47.82317" lon="-3.54428">
        <ele>6.12</ele>
        <time>2020-07-08T11:37:01Z</time>
      </trkpt>
      <trkpt lat="47.82317" lon="-3.54425">
        <ele>6.13</ele>
        <time>2020-07-08T11:37:02Z</time>
      </trkpt>
      <trkpt lat="47.82316" lon="-3.54421">
        <ele>6.08</ele>
        <time>2020-07-08T11:37:03Z</time>
      </trkpt>
      <trkpt lat="47.82315" lon="-3.54418">
        <ele>6.04</ele>
        <time>2020-07-08T11:37:04Z</time>
      </trkpt>
      <trkpt lat="47.82314" lon="-3.54414">
        <ele>5.97</ele>
        <time>2020-07-08T11:37:05Z</time>
      </trkpt>
      <trkpt lat="47.82312" lon="-3.54412">
        <ele>6.01</ele>
        <time>2020-07-08T11:37:06Z</time>
      </trkpt>
      <trkpt lat="47.82311" lon="-3.54411">
        <ele>6.07</ele>
        <time>2020-07-08T11:37:07Z</time>
      </trkpt>
      <trkpt lat="47.82311" lon="-3.5441">
        <ele>6.11</ele>
        <time>2020-07-08T11:37:08Z</time>
      </trkpt>
      <trkpt lat="47.82311" lon="-3.54409">
        <ele>6.04</ele>
        <time>2020-07-08T11:37:09Z</time>
      </trkpt>
      <trkpt lat="47.82311" lon="-3.54409">
        <ele>6.01</ele>
        <time>2020-07-08T11:37:10Z</time>
      </trkpt>
      <trkpt lat="47.82311" lon="-3.54409">
        <ele>6.01</ele>
        <time>2020-07-08T11:37:11Z</time>
      </trkpt>
      <trkpt lat="47.82311" lon="-3.54409">
        <ele>6.01</ele>
        <time>2020-07-08T11:37:12Z</time>
      </trkpt>
      <trkpt lat="47.82311" lon="-3.54409">
        <ele>6</ele>
        <time>2020-07-08T11:37:13Z</time>
      </trkpt>
      <trkpt lat="47.82311" lon="-3.54409">
        <ele>6</ele>
        <time>2020-07-08T11:37:14Z</time>
      </trkpt>
      <trkpt lat="47.82311" lon="-3.54409">
        <ele>6</ele>
        <time>2020-07-08T11:37:15Z</time>
      </trkpt>
      <trkpt lat="47.82311" lon="-3.54409">
        <ele>6</ele>
        <time>2020-07-08T11:37:16Z</time>
      </trkpt>
      <trkpt lat="47.82311" lon="-3.54409">
        <ele>6</ele>
        <time>2020-07-08T11:37:17Z</time>
      </trkpt>
      <trkpt lat="47.82311" lon="-3.54409">
        <ele>6</ele>
        <time>2020-07-08T11:37:18Z</time>
      </trkpt>
      <trkpt lat="47.82311" lon="-3.54409">
        <ele>6</ele>
        <time>2020-07-08T11:37:19Z</time>
      </trkpt>
      <trkpt lat="47.82311" lon="-3.54409">
        <ele>6</ele>
        <time>2020-07-08T11:37:20Z</time>
      </trkpt>
      <trkpt lat="47.82311" lon="-3.54409">
        <ele>6</ele>
        <time>2020-07-08T11:37:21Z</time>
      </trkpt>
      <trkpt lat="47.82311" lon="-3.54409">
        <ele>6</ele>
        <time>2020-07-08T11:37:22Z</time>
      </trkpt>
      <trkpt lat="47.82311" lon="-3.54409">
        <ele>6</ele>
        <time>2020-07-08T11:37:23Z</time>
      </trkpt>
      <trkpt lat="47.82311" lon="-3.54409">
        <ele>6</ele>
        <time>2020-07-08T11:37:24Z</time>
      </trkpt>
      <trkpt lat="47.82311" lon="-3.54409">
        <ele>6</ele>
        <time>2020-07-08T11:37:25Z</time>
      </trkpt>
      <trkpt lat="47.82311" lon="-3.54409">
        <ele>6</ele>
        <time>2020-07-08T11:37:26Z</time>
      </trkpt>
      <trkpt lat="47.82311" lon="-3.54409">
        <ele>6</ele>
        <time>2020-07-08T11:37:27Z</time>
      </trkpt>
      <trkpt lat="47.82311" lon="-3.54409">
        <ele>6</ele>
        <time>2020-07-08T11:37:28Z</time>
      </trkpt>
      <trkpt lat="47.82311" lon="-3.54409">
        <ele>6</ele>
        <time>2020-07-08T11:37:29Z</time>
      </trkpt>
      <trkpt lat="47.82311" lon="-3.54409">
        <ele>6</ele>
        <time>2020-07-08T11:37:30Z</time>
      </trkpt>
      <trkpt lat="47.82311" lon="-3.54409">
        <ele>6</ele>
        <time>2020-07-08T11:37:31Z</time>
      </trkpt>
      <trkpt lat="47.82311" lon="-3.54409">
        <ele>6</ele>
        <time>2020-07-08T11:37:32Z</time>
      </trkpt>
      <trkpt lat="47.82311" lon="-3.54409">
        <ele>6</ele>
        <time>2020-07-08T11:37:33Z</time>
      </trkpt>
      <trkpt lat="47.82311" lon="-3.54409">
        <ele>6</ele>
        <time>2020-07-08T11:37:34Z</time>
      </trkpt>
      <trkpt lat="47.82311" lon="-3.54409">
        <ele>6</ele>
        <time>2020-07-08T11:37:35Z</time>
      </trkpt>
      <trkpt lat="47.82311" lon="-3.54409">
        <ele>6</ele>
        <time>2020-07-08T11:37:36Z</time>
      </trkpt>
      <trkpt lat="47.82311" lon="-3.54409">
        <ele>6</ele>
        <time>2020-07-08T11:37:37Z</time>
      </trkpt>
      <trkpt lat="47.82311" lon="-3.54409">
        <ele>6</ele>
        <time>2020-07-08T11:37:38Z</time>
      </trkpt>
      <trkpt lat="47.82311" lon="-3.54409">
        <ele>6</ele>
        <time>2020-07-08T11:37:39Z</time>
      </trkpt>
      <trkpt lat="47.82311" lon="-3.54409">
        <ele>6</ele>
        <time>2020-07-08T11:37:40Z</time>
      </trkpt>
      <trkpt lat="47.82311" lon="-3.54409">
        <ele>6</ele>
        <time>2020-07-08T11:37:41Z</time>
      </trkpt>
      <trkpt lat="47.82311" lon="-3.54409">
        <ele>6</ele>
        <time>2020-07-08T11:37:42Z</time>
      </trkpt>
      <trkpt lat="47.82311" lon="-3.54409">
        <ele>6</ele>
        <time>2020-07-08T11:37:43Z</time>
      </trkpt>
      <trkpt lat="47.82311" lon="-3.54409">
        <ele>6</ele>
        <time>2020-07-08T11:37:44Z</time>
      </trkpt>
      <trkpt lat="47.82311" lon="-3.54409">
        <ele>6</ele>
        <time>2020-07-08T11:37:45Z</time>
      </trkpt>
      <trkpt lat="47.82311" lon="-3.54409">
        <ele>6</ele>
        <time>2020-07-08T11:37:46Z</time>
      </trkpt>
      <trkpt lat="47.82311" lon="-3.54409">
        <ele>6</ele>
        <time>2020-07-08T11:37:47Z</time>
      </trkpt>
      <trkpt lat="47.82311" lon="-3.54409">
        <ele>6</ele>
        <time>2020-07-08T11:37:48Z</time>
      </trkpt>
      <trkpt lat="47.82311" lon="-3.54409">
        <ele>6</ele>
        <time>2020-07-08T11:37:49Z</time>
      </trkpt>
      <trkpt lat="47.82311" lon="-3.54409">
        <ele>6</ele>
        <time>2020-07-08T11:37:50Z</time>
      </trkpt>
      <trkpt lat="47.82311" lon="-3.54409">
        <ele>6</ele>
        <time>2020-07-08T11:37:51Z</time>
      </trkpt>
      <trkpt lat="47.82311" lon="-3.54409">
        <ele>6</ele>
        <time>2020-07-08T11:37:52Z</time>
      </trkpt>
      <trkpt lat="47.82311" lon="-3.54409">
        <ele>6</ele>
        <time>2020-07-08T11:37:53Z</time>
      </trkpt>
      <trkpt lat="47.82311" lon="-3.54409">
        <ele>6</ele>
        <time>2020-07-08T11:37:54Z</time>
      </trkpt>
      <trkpt lat="47.82311" lon="-3.54409">
        <ele>6</ele>
        <time>2020-07-08T11:37:55Z</time>
      </trkpt>
      <trkpt lat="47.82311" lon="-3.54409">
        <ele>6</ele>
        <time>2020-07-08T11:37:56Z</time>
      </trkpt>
      <trkpt lat="47.82311" lon="-3.54409">
        <ele>6</ele>
        <time>2020-07-08T11:37:57Z</time>
      </trkpt>
      <trkpt lat="47.82311" lon="-3.54409">
        <ele>6</ele>
        <time>2020-07-08T11:37:58Z</time>
      </trkpt>
      <trkpt lat="47.82311" lon="-3.54409">
        <ele>6</ele>
        <time>2020-07-08T11:37:59Z</time>
      </trkpt>
      <trkpt lat="47.82311" lon="-3.54409">
        <ele>6</ele>
        <time>2020-07-08T11:38:00Z</time>
      </trkpt>
      <trkpt lat="47.82311" lon="-3.54409">
        <ele>6</ele>
        <time>2020-07-08T11:38:01Z</time>
      </trkpt>
      <trkpt lat="47.82311" lon="-3.54409">
        <ele>6</ele>
        <time>2020-07-08T11:38:02Z</time>
      </trkpt>
      <trkpt lat="47.82311" lon="-3.54409">
        <ele>6</ele>
        <time>2020-07-08T11:38:03Z</time>
      </trkpt>
      <trkpt lat="47.82311" lon="-3.54409">
        <ele>6</ele>
        <time>2020-07-08T11:38:04Z</time>
      </trkpt>
      <trkpt lat="47.82311" lon="-3.54409">
        <ele>6</ele>
        <time>2020-07-08T11:38:05Z</time>
      </trkpt>
      <trkpt lat="47.82311" lon="-3.54409">
        <ele>6</ele>
        <time>2020-07-08T11:38:06Z</time>
      </trkpt>
      <trkpt lat="47.82311" lon="-3.54409">
        <ele>6</ele>
        <time>2020-07-08T11:38:07Z</time>
      </trkpt>
      <trkpt lat="47.82311" lon="-3.54409">
        <ele>6</ele>
        <time>2020-07-08T11:38:08Z</time>
      </trkpt>
      <trkpt lat="47.82306" lon="-3.54397">
        <ele>5.39</ele>
        <time>2020-07-08T11:38:09Z</time>
      </trkpt>
      <trkpt lat="47.82306" lon="-3.54396">
        <ele>5.09</ele>
        <time>2020-07-08T11:38:10Z</time>
      </trkpt>
      <trkpt lat="47.82307" lon="-3.54395">
        <ele>4.86</ele>
        <time>2020-07-08T11:38:11Z</time>
      </trkpt>
      <trkpt lat="47.82308" lon="-3.54394">
        <ele>4.58</ele>
        <time>2020-07-08T11:38:12Z</time>
      </trkpt>
      <trkpt lat="47.82308" lon="-3.54394">
        <ele>4.49</ele>
        <time>2020-07-08T11:38:13Z</time>
      </trkpt>
      <trkpt lat="47.82311" lon="-3.54389">
        <ele>3.92</ele>
        <time>2020-07-08T11:38:14Z</time>
      </trkpt>
      <trkpt lat="47.82312" lon="-3.54387">
        <ele>3.55</ele>
        <time>2020-07-08T11:38:15Z</time>
      </trkpt>
      <trkpt lat="47.82313" lon="-3.54385">
        <ele>3.26</ele>
        <time>2020-07-08T11:38:16Z</time>
      </trkpt>
      <trkpt lat="47.82314" lon="-3.54385">
        <ele>3.12</ele>
        <time>2020-07-08T11:38:17Z</time>
      </trkpt>
      <trkpt lat="47.82313" lon="-3.54385">
        <ele>3.08</ele>
        <time>2020-07-08T11:38:18Z</time>
      </trkpt>
      <trkpt lat="47.82313" lon="-3.54385">
        <ele>3.06</ele>
        <time>2020-07-08T11:38:19Z</time>
      </trkpt>
      <trkpt lat="47.82313" lon="-3.54385">
        <ele>3.06</ele>
        <time>2020-07-08T11:38:20Z</time>
      </trkpt>
      <trkpt lat="47.82313" lon="-3.54385">
        <ele>3.06</ele>
        <time>2020-07-08T11:38:21Z</time>
      </trkpt>
      <trkpt lat="47.82313" lon="-3.54385">
        <ele>3.06</ele>
        <time>2020-07-08T11:38:22Z</time>
      </trkpt>
      <trkpt lat="47.82313" lon="-3.54385">
        <ele>3.06</ele>
        <time>2020-07-08T11:38:23Z</time>
      </trkpt>
      <trkpt lat="47.82313" lon="-3.54385">
        <ele>3.06</ele>
        <time>2020-07-08T11:38:24Z</time>
      </trkpt>
      <trkpt lat="47.82313" lon="-3.54385">
        <ele>3.06</ele>
        <time>2020-07-08T11:38:25Z</time>
      </trkpt>
      <trkpt lat="47.82313" lon="-3.54385">
        <ele>3.06</ele>
        <time>2020-07-08T11:38:26Z</time>
      </trkpt>
      <trkpt lat="47.82313" lon="-3.54385">
        <ele>3.06</ele>
        <time>2020-07-08T11:38:27Z</time>
      </trkpt>
      <trkpt lat="47.82313" lon="-3.54385">
        <ele>3.06</ele>
        <time>2020-07-08T11:38:28Z</time>
      </trkpt>
      <trkpt lat="47.82313" lon="-3.54385">
        <ele>3.06</ele>
        <time>2020-07-08T11:38:29Z</time>
      </trkpt>
      <trkpt lat="47.82313" lon="-3.54385">
        <ele>3.06</ele>
        <time>2020-07-08T11:38:30Z</time>
      </trkpt>
      <trkpt lat="47.82313" lon="-3.54375">
        <ele>2.47</ele>
        <time>2020-07-08T11:38:31Z</time>
      </trkpt>
      <trkpt lat="47.82312" lon="-3.54375">
        <ele>2.34</ele>
        <time>2020-07-08T11:38:32Z</time>
      </trkpt>
      <trkpt lat="47.82312" lon="-3.54376">
        <ele>2.33</ele>
        <time>2020-07-08T11:38:33Z</time>
      </trkpt>
      <trkpt lat="47.82312" lon="-3.54376">
        <ele>2.34</ele>
        <time>2020-07-08T11:38:34Z</time>
      </trkpt>
      <trkpt lat="47.82312" lon="-3.54376">
        <ele>2.35</ele>
        <time>2020-07-08T11:38:35Z</time>
      </trkpt>
      <trkpt lat="47.82312" lon="-3.54376">
        <ele>2.35</ele>
        <time>2020-07-08T11:38:36Z</time>
      </trkpt>
      <trkpt lat="47.82312" lon="-3.54376">
        <ele>2.35</ele>
        <time>2020-07-08T11:38:37Z</time>
      </trkpt>
      <trkpt lat="47.82312" lon="-3.54376">
        <ele>2.35</ele>
        <time>2020-07-08T11:38:38Z</time>
      </trkpt>
      <trkpt lat="47.82312" lon="-3.54376">
        <ele>2.35</ele>
        <time>2020-07-08T11:38:39Z</time>
      </trkpt>
      <trkpt lat="47.82312" lon="-3.54376">
        <ele>2.35</ele>
        <time>2020-07-08T11:38:40Z</time>
      </trkpt>
      <trkpt lat="47.82312" lon="-3.54376">
        <ele>2.35</ele>
        <time>2020-07-08T11:38:41Z</time>
      </trkpt>
      <trkpt lat="47.82312" lon="-3.54376">
        <ele>2.35</ele>
        <time>2020-07-08T11:38:42Z</time>
      </trkpt>
      <trkpt lat="47.82312" lon="-3.54376">
        <ele>2.35</ele>
        <time>2020-07-08T11:38:43Z</time>
      </trkpt>
      <trkpt lat="47.82312" lon="-3.54376">
        <ele>2.35</ele>
        <time>2020-07-08T11:38:44Z</time>
      </trkpt>
      <trkpt lat="47.82312" lon="-3.54376">
        <ele>2.35</ele>
        <time>2020-07-08T11:38:45Z</time>
      </trkpt>
      <trkpt lat="47.82312" lon="-3.54376">
        <ele>2.35</ele>
        <time>2020-07-08T11:38:46Z</time>
      </trkpt>
      <trkpt lat="47.82312" lon="-3.54376">
        <ele>2.35</ele>
        <time>2020-07-08T11:38:47Z</time>
      </trkpt>
      <trkpt lat="47.82312" lon="-3.54376">
        <ele>2.35</ele>
        <time>2020-07-08T11:38:48Z</time>
      </trkpt>
      <trkpt lat="47.82312" lon="-3.54376">
        <ele>2.35</ele>
        <time>2020-07-08T11:38:49Z</time>
      </trkpt>
      <trkpt lat="47.82304" lon="-3.54385">
        <ele>3.42</ele>
        <time>2020-07-08T11:38:50Z</time>
      </trkpt>
      <trkpt lat="47.82303" lon="-3.54384">
        <ele>3.84</ele>
        <time>2020-07-08T11:38:51Z</time>
      </trkpt>
      <trkpt lat="47.82302" lon="-3.54385">
        <ele>4.07</ele>
        <time>2020-07-08T11:38:52Z</time>
      </trkpt>
      <trkpt lat="47.82302" lon="-3.54384">
        <ele>4.12</ele>
        <time>2020-07-08T11:38:53Z</time>
      </trkpt>
      <trkpt lat="47.82302" lon="-3.54384">
        <ele>4.13</ele>
        <time>2020-07-08T11:38:54Z</time>
      </trkpt>
      <trkpt lat="47.82302" lon="-3.54384">
        <ele>4.14</ele>
        <time>2020-07-08T11:38:55Z</time>
      </trkpt>
      <trkpt lat="47.82302" lon="-3.54384">
        <ele>4.14</ele>
        <time>2020-07-08T11:38:56Z</time>
      </trkpt>
      <trkpt lat="47.82302" lon="-3.54384">
        <ele>4.14</ele>
        <time>2020-07-08T11:38:57Z</time>
      </trkpt>
      <trkpt lat="47.82302" lon="-3.54384">
        <ele>4.14</ele>
        <time>2020-07-08T11:38:58Z</time>
      </trkpt>
      <trkpt lat="47.82302" lon="-3.54384">
        <ele>4.14</ele>
        <time>2020-07-08T11:38:59Z</time>
      </trkpt>
      <trkpt lat="47.82302" lon="-3.54384">
        <ele>4.14</ele>
        <time>2020-07-08T11:39:00Z</time>
      </trkpt>
      <trkpt lat="47.82302" lon="-3.54384">
        <ele>4.14</ele>
        <time>2020-07-08T11:39:01Z</time>
      </trkpt>
      <trkpt lat="47.82302" lon="-3.54384">
        <ele>4.14</ele>
        <time>2020-07-08T11:39:02Z</time>
      </trkpt>
      <trkpt lat="47.82302" lon="-3.54384">
        <ele>4.14</ele>
        <time>2020-07-08T11:39:03Z</time>
      </trkpt>
      <trkpt lat="47.82302" lon="-3.54384">
        <ele>4.14</ele>
        <time>2020-07-08T11:39:04Z</time>
      </trkpt>
      <trkpt lat="47.82302" lon="-3.54384">
        <ele>4.14</ele>
        <time>2020-07-08T11:39:05Z</time>
      </trkpt>
      <trkpt lat="47.82302" lon="-3.54384">
        <ele>4.14</ele>
        <time>2020-07-08T11:39:06Z</time>
      </trkpt>
      <trkpt lat="47.82302" lon="-3.54384">
        <ele>4.14</ele>
        <time>2020-07-08T11:39:07Z</time>
      </trkpt>
      <trkpt lat="47.82302" lon="-3.54384">
        <ele>4.14</ele>
        <time>2020-07-08T11:39:08Z</time>
      </trkpt>
      <trkpt lat="47.82302" lon="-3.54384">
        <ele>4.14</ele>
        <time>2020-07-08T11:39:09Z</time>
      </trkpt>
      <trkpt lat="47.82296" lon="-3.54374">
        <ele>3.92</ele>
        <time>2020-07-08T11:39:10Z</time>
      </trkpt>
      <trkpt lat="47.82296" lon="-3.54373">
        <ele>3.86</ele>
        <time>2020-07-08T11:39:11Z</time>
      </trkpt>
      <trkpt lat="47.82296" lon="-3.54373">
        <ele>3.82</ele>
        <time>2020-07-08T11:39:12Z</time>
      </trkpt>
      <trkpt lat="47.82296" lon="-3.54374">
        <ele>3.84</ele>
        <time>2020-07-08T11:39:13Z</time>
      </trkpt>
      <trkpt lat="47.82296" lon="-3.54374">
        <ele>3.85</ele>
        <time>2020-07-08T11:39:14Z</time>
      </trkpt>
      <trkpt lat="47.82296" lon="-3.54374">
        <ele>3.85</ele>
        <time>2020-07-08T11:39:15Z</time>
      </trkpt>
      <trkpt lat="47.82296" lon="-3.54374">
        <ele>3.85</ele>
        <time>2020-07-08T11:39:16Z</time>
      </trkpt>
      <trkpt lat="47.82296" lon="-3.54374">
        <ele>3.85</ele>
        <time>2020-07-08T11:39:17Z</time>
      </trkpt>
      <trkpt lat="47.82296" lon="-3.54374">
        <ele>3.85</ele>
        <time>2020-07-08T11:39:18Z</time>
      </trkpt>
      <trkpt lat="47.82296" lon="-3.54374">
        <ele>3.85</ele>
        <time>2020-07-08T11:39:19Z</time>
      </trkpt>
      <trkpt lat="47.82296" lon="-3.54374">
        <ele>3.85</ele>
        <time>2020-07-08T11:39:20Z</time>
      </trkpt>
      <trkpt lat="47.82296" lon="-3.54374">
        <ele>3.85</ele>
        <time>2020-07-08T11:39:21Z</time>
      </trkpt>
      <trkpt lat="47.82296" lon="-3.54374">
        <ele>3.85</ele>
        <time>2020-07-08T11:39:22Z</time>
      </trkpt>
      <trkpt lat="47.82296" lon="-3.54374">
        <ele>3.85</ele>
        <time>2020-07-08T11:39:23Z</time>
      </trkpt>
      <trkpt lat="47.82296" lon="-3.54374">
        <ele>3.85</ele>
        <time>2020-07-08T11:39:24Z</time>
      </trkpt>
      <trkpt lat="47.82296" lon="-3.54374">
        <ele>3.85</ele>
        <time>2020-07-08T11:39:25Z</time>
      </trkpt>
      <trkpt lat="47.82296" lon="-3.54374">
        <ele>3.85</ele>
        <time>2020-07-08T11:39:26Z</time>
      </trkpt>
      <trkpt lat="47.82296" lon="-3.54374">
        <ele>3.85</ele>
        <time>2020-07-08T11:39:27Z</time>
      </trkpt>
      <trkpt lat="47.82296" lon="-3.54374">
        <ele>3.85</ele>
        <time>2020-07-08T11:39:28Z</time>
      </trkpt>
      <trkpt lat="47.82287" lon="-3.54369">
        <ele>4.16</ele>
        <time>2020-07-08T11:39:29Z</time>
      </trkpt>
      <trkpt lat="47.82287" lon="-3.54368">
        <ele>4.26</ele>
        <time>2020-07-08T11:39:30Z</time>
      </trkpt>
      <trkpt lat="47.82286" lon="-3.54368">
        <ele>4.25</ele>
        <time>2020-07-08T11:39:31Z</time>
      </trkpt>
      <trkpt lat="47.82286" lon="-3.54366">
        <ele>4.14</ele>
        <time>2020-07-08T11:39:32Z</time>
      </trkpt>
      <trkpt lat="47.82286" lon="-3.54366">
        <ele>4.11</ele>
        <time>2020-07-08T11:39:33Z</time>
      </trkpt>
      <trkpt lat="47.82286" lon="-3.54366">
        <ele>4.1</ele>
        <time>2020-07-08T11:39:34Z</time>
      </trkpt>
      <trkpt lat="47.82286" lon="-3.54366">
        <ele>4.1</ele>
        <time>2020-07-08T11:39:35Z</time>
      </trkpt>
      <trkpt lat="47.82286" lon="-3.54366">
        <ele>4.09</ele>
        <time>2020-07-08T11:39:36Z</time>
      </trkpt>
      <trkpt lat="47.82286" lon="-3.54366">
        <ele>4.09</ele>
        <time>2020-07-08T11:39:37Z</time>
      </trkpt>
      <trkpt lat="47.82286" lon="-3.54366">
        <ele>4.09</ele>
        <time>2020-07-08T11:39:38Z</time>
      </trkpt>
      <trkpt lat="47.82286" lon="-3.54366">
        <ele>4.09</ele>
        <time>2020-07-08T11:39:39Z</time>
      </trkpt>
      <trkpt lat="47.82286" lon="-3.54366">
        <ele>4.09</ele>
        <time>2020-07-08T11:39:40Z</time>
      </trkpt>
      <trkpt lat="47.82276" lon="-3.54363">
        <ele>4.46</ele>
        <time>2020-07-08T11:39:41Z</time>
      </trkpt>
      <trkpt lat="47.82276" lon="-3.54364">
        <ele>4.76</ele>
        <time>2020-07-08T11:39:42Z</time>
      </trkpt>
      <trkpt lat="47.82275" lon="-3.54364">
        <ele>4.9</ele>
        <time>2020-07-08T11:39:43Z</time>
      </trkpt>
      <trkpt lat="47.82273" lon="-3.54364">
        <ele>5.06</ele>
        <time>2020-07-08T11:39:44Z</time>
      </trkpt>
      <trkpt lat="47.82273" lon="-3.54364">
        <ele>5.1</ele>
        <time>2020-07-08T11:39:45Z</time>
      </trkpt>
      <trkpt lat="47.82273" lon="-3.54364">
        <ele>5.12</ele>
        <time>2020-07-08T11:39:46Z</time>
      </trkpt>
      <trkpt lat="47.82269" lon="-3.54365">
        <ele>5.5</ele>
        <time>2020-07-08T11:39:47Z</time>
      </trkpt>
      <trkpt lat="47.82268" lon="-3.54365">
        <ele>5.68</ele>
        <time>2020-07-08T11:39:48Z</time>
      </trkpt>
      <trkpt lat="47.82267" lon="-3.54365">
        <ele>5.86</ele>
        <time>2020-07-08T11:39:49Z</time>
      </trkpt>
      <trkpt lat="47.82266" lon="-3.54364">
        <ele>5.96</ele>
        <time>2020-07-08T11:39:50Z</time>
      </trkpt>
      <trkpt lat="47.82266" lon="-3.54364">
        <ele>5.99</ele>
        <time>2020-07-08T11:39:51Z</time>
      </trkpt>
      <trkpt lat="47.82266" lon="-3.54364">
        <ele>6</ele>
        <time>2020-07-08T11:39:52Z</time>
      </trkpt>
      <trkpt lat="47.82266" lon="-3.54364">
        <ele>6</ele>
        <time>2020-07-08T11:39:53Z</time>
      </trkpt>
      <trkpt lat="47.82266" lon="-3.54364">
        <ele>6</ele>
        <time>2020-07-08T11:39:54Z</time>
      </trkpt>
      <trkpt lat="47.82266" lon="-3.54364">
        <ele>6</ele>
        <time>2020-07-08T11:39:55Z</time>
      </trkpt>
      <trkpt lat="47.82266" lon="-3.54364">
        <ele>6</ele>
        <time>2020-07-08T11:39:56Z</time>
      </trkpt>
      <trkpt lat="47.82266" lon="-3.54364">
        <ele>6</ele>
        <time>2020-07-08T11:39:57Z</time>
      </trkpt>
      <trkpt lat="47.82266" lon="-3.54364">
        <ele>6</ele>
        <time>2020-07-08T11:39:58Z</time>
      </trkpt>
      <trkpt lat="47.82266" lon="-3.54364">
        <ele>6</ele>
        <time>2020-07-08T11:39:59Z</time>
      </trkpt>
      <trkpt lat="47.82266" lon="-3.54364">
        <ele>6</ele>
        <time>2020-07-08T11:40:00Z</time>
      </trkpt>
      <trkpt lat="47.82266" lon="-3.54364">
        <ele>6</ele>
        <time>2020-07-08T11:40:01Z</time>
      </trkpt>
      <trkpt lat="47.82266" lon="-3.54364">
        <ele>6</ele>
        <time>2020-07-08T11:40:02Z</time>
      </trkpt>
      <trkpt lat="47.82266" lon="-3.54364">
        <ele>6</ele>
        <time>2020-07-08T11:40:03Z</time>
      </trkpt>
      <trkpt lat="47.82266" lon="-3.54364">
        <ele>6</ele>
        <time>2020-07-08T11:40:04Z</time>
      </trkpt>
      <trkpt lat="47.82266" lon="-3.54364">
        <ele>6</ele>
        <time>2020-07-08T11:40:05Z</time>
      </trkpt>
      <trkpt lat="47.82266" lon="-3.54364">
        <ele>6</ele>
        <time>2020-07-08T11:40:06Z</time>
      </trkpt>
      <trkpt lat="47.82266" lon="-3.54364">
        <ele>6</ele>
        <time>2020-07-08T11:40:07Z</time>
      </trkpt>
      <trkpt lat="47.82266" lon="-3.54364">
        <ele>6</ele>
        <time>2020-07-08T11:40:08Z</time>
      </trkpt>
      <trkpt lat="47.82266" lon="-3.54364">
        <ele>6</ele>
        <time>2020-07-08T11:40:09Z</time>
      </trkpt>
      <trkpt lat="47.82266" lon="-3.54364">
        <ele>6</ele>
        <time>2020-07-08T11:40:10Z</time>
      </trkpt>
      <trkpt lat="47.82266" lon="-3.54364">
        <ele>6</ele>
        <time>2020-07-08T11:40:11Z</time>
      </trkpt>
      <trkpt lat="47.82257" lon="-3.54361">
        <ele>6.13</ele>
        <time>2020-07-08T11:40:12Z</time>
      </trkpt>
      <trkpt lat="47.82255" lon="-3.5436">
        <ele>6.24</ele>
        <time>2020-07-08T11:40:13Z</time>
      </trkpt>
      <trkpt lat="47.82254" lon="-3.5436">
        <ele>6.36</ele>
        <time>2020-07-08T11:40:14Z</time>
      </trkpt>
      <trkpt lat="47.82252" lon="-3.5436">
        <ele>6.52</ele>
        <time>2020-07-08T11:40:15Z</time>
      </trkpt>
      <trkpt lat="47.8225" lon="-3.54359">
        <ele>6.51</ele>
        <time>2020-07-08T11:40:16Z</time>
      </trkpt>
      <trkpt lat="47.82248" lon="-3.54357">
        <ele>6.49</ele>
        <time>2020-07-08T11:40:17Z</time>
      </trkpt>
      <trkpt lat="47.82246" lon="-3.54356">
        <ele>6.41</ele>
        <time>2020-07-08T11:40:18Z</time>
      </trkpt>
      <trkpt lat="47.82244" lon="-3.54355">
        <ele>6.41</ele>
        <time>2020-07-08T11:40:19Z</time>
      </trkpt>
      <trkpt lat="47.82243" lon="-3.54356">
        <ele>6.54</ele>
        <time>2020-07-08T11:40:20Z</time>
      </trkpt>
      <trkpt lat="47.82242" lon="-3.54356">
        <ele>6.73</ele>
        <time>2020-07-08T11:40:21Z</time>
      </trkpt>
      <trkpt lat="47.8224" lon="-3.54356">
        <ele>6.9</ele>
        <time>2020-07-08T11:40:22Z</time>
      </trkpt>
      <trkpt lat="47.82239" lon="-3.54356">
        <ele>7.05</ele>
        <time>2020-07-08T11:40:23Z</time>
      </trkpt>
      <trkpt lat="47.82238" lon="-3.54356">
        <ele>7.18</ele>
        <time>2020-07-08T11:40:24Z</time>
      </trkpt>
      <trkpt lat="47.82237" lon="-3.54356">
        <ele>7.24</ele>
        <time>2020-07-08T11:40:25Z</time>
      </trkpt>
      <trkpt lat="47.82235" lon="-3.54356">
        <ele>7.39</ele>
        <time>2020-07-08T11:40:26Z</time>
      </trkpt>
      <trkpt lat="47.82233" lon="-3.54356">
        <ele>7.52</ele>
        <time>2020-07-08T11:40:27Z</time>
      </trkpt>
      <trkpt lat="47.82232" lon="-3.54356">
        <ele>7.58</ele>
        <time>2020-07-08T11:40:28Z</time>
      </trkpt>
      <trkpt lat="47.8223" lon="-3.54355">
        <ele>7.52</ele>
        <time>2020-07-08T11:40:29Z</time>
      </trkpt>
      <trkpt lat="47.82227" lon="-3.54353">
        <ele>7.37</ele>
        <time>2020-07-08T11:40:30Z</time>
      </trkpt>
      <trkpt lat="47.82225" lon="-3.54351">
        <ele>7.1</ele>
        <time>2020-07-08T11:40:31Z</time>
      </trkpt>
      <trkpt lat="47.82223" lon="-3.54349">
        <ele>6.7</ele>
        <time>2020-07-08T11:40:32Z</time>
      </trkpt>
      <trkpt lat="47.8222" lon="-3.54346">
        <ele>6.13</ele>
        <time>2020-07-08T11:40:33Z</time>
      </trkpt>
      <trkpt lat="47.82219" lon="-3.54343">
        <ele>5.46</ele>
        <time>2020-07-08T11:40:34Z</time>
      </trkpt>
      <trkpt lat="47.82217" lon="-3.5434">
        <ele>4.8</ele>
        <time>2020-07-08T11:40:35Z</time>
      </trkpt>
      <trkpt lat="47.82213" lon="-3.54338">
        <ele>4.27</ele>
        <time>2020-07-08T11:40:36Z</time>
      </trkpt>
      <trkpt lat="47.8221" lon="-3.54335">
        <ele>3.79</ele>
        <time>2020-07-08T11:40:37Z</time>
      </trkpt>
      <trkpt lat="47.82207" lon="-3.54332">
        <ele>3.61</ele>
        <time>2020-07-08T11:40:38Z</time>
      </trkpt>
      <trkpt lat="47.82204" lon="-3.5433">
        <ele>3.69</ele>
        <time>2020-07-08T11:40:39Z</time>
      </trkpt>
      <trkpt lat="47.822" lon="-3.54329">
        <ele>3.83</ele>
        <time>2020-07-08T11:40:40Z</time>
      </trkpt>
      <trkpt lat="47.82197" lon="-3.54328">
        <ele>3.95</ele>
        <time>2020-07-08T11:40:41Z</time>
      </trkpt>
      <trkpt lat="47.82195" lon="-3.54326">
        <ele>3.96</ele>
        <time>2020-07-08T11:40:42Z</time>
      </trkpt>
      <trkpt lat="47.82192" lon="-3.54323">
        <ele>3.82</ele>
        <time>2020-07-08T11:40:43Z</time>
      </trkpt>
      <trkpt lat="47.82189" lon="-3.54319">
        <ele>3.54</ele>
        <time>2020-07-08T11:40:44Z</time>
      </trkpt>
      <trkpt lat="47.82187" lon="-3.54315">
        <ele>3.22</ele>
        <time>2020-07-08T11:40:45Z</time>
      </trkpt>
      <trkpt lat="47.82184" lon="-3.54313">
        <ele>3.02</ele>
        <time>2020-07-08T11:40:46Z</time>
      </trkpt>
      <trkpt lat="47.8218" lon="-3.54313">
        <ele>3.14</ele>
        <time>2020-07-08T11:40:47Z</time>
      </trkpt>
      <trkpt lat="47.82177" lon="-3.54313">
        <ele>3.32</ele>
        <time>2020-07-08T11:40:48Z</time>
      </trkpt>
      <trkpt lat="47.82175" lon="-3.54312">
        <ele>3.48</ele>
        <time>2020-07-08T11:40:49Z</time>
      </trkpt>
      <trkpt lat="47.82172" lon="-3.54311">
        <ele>3.58</ele>
        <time>2020-07-08T11:40:50Z</time>
      </trkpt>
      <trkpt lat="47.82168" lon="-3.5431">
        <ele>3.71</ele>
        <time>2020-07-08T11:40:51Z</time>
      </trkpt>
      <trkpt lat="47.82165" lon="-3.5431">
        <ele>3.86</ele>
        <time>2020-07-08T11:40:52Z</time>
      </trkpt>
      <trkpt lat="47.82162" lon="-3.5431">
        <ele>4.06</ele>
        <time>2020-07-08T11:40:53Z</time>
      </trkpt>
      <trkpt lat="47.82158" lon="-3.54309">
        <ele>4.16</ele>
        <time>2020-07-08T11:40:54Z</time>
      </trkpt>
      <trkpt lat="47.82154" lon="-3.54307">
        <ele>4.12</ele>
        <time>2020-07-08T11:40:55Z</time>
      </trkpt>
      <trkpt lat="47.82151" lon="-3.54306">
        <ele>4.18</ele>
        <time>2020-07-08T11:40:56Z</time>
      </trkpt>
      <trkpt lat="47.82147" lon="-3.54306">
        <ele>4.39</ele>
        <time>2020-07-08T11:40:57Z</time>
      </trkpt>
      <trkpt lat="47.82143" lon="-3.54307">
        <ele>4.74</ele>
        <time>2020-07-08T11:40:58Z</time>
      </trkpt>
      <trkpt lat="47.8214" lon="-3.54308">
        <ele>5.17</ele>
        <time>2020-07-08T11:40:59Z</time>
      </trkpt>
      <trkpt lat="47.82136" lon="-3.54309">
        <ele>5.91</ele>
        <time>2020-07-08T11:41:00Z</time>
      </trkpt>
      <trkpt lat="47.82133" lon="-3.5431">
        <ele>6.74</ele>
        <time>2020-07-08T11:41:01Z</time>
      </trkpt>
      <trkpt lat="47.82131" lon="-3.54312">
        <ele>7.49</ele>
        <time>2020-07-08T11:41:02Z</time>
      </trkpt>
      <trkpt lat="47.82128" lon="-3.54313">
        <ele>8.16</ele>
        <time>2020-07-08T11:41:03Z</time>
      </trkpt>
      <trkpt lat="47.82127" lon="-3.54314">
        <ele>8.73</ele>
        <time>2020-07-08T11:41:04Z</time>
      </trkpt>
      <trkpt lat="47.82125" lon="-3.54315">
        <ele>9.21</ele>
        <time>2020-07-08T11:41:05Z</time>
      </trkpt>
      <trkpt lat="47.82122" lon="-3.54316">
        <ele>9.76</ele>
        <time>2020-07-08T11:41:06Z</time>
      </trkpt>
      <trkpt lat="47.82119" lon="-3.54316">
        <ele>10.31</ele>
        <time>2020-07-08T11:41:07Z</time>
      </trkpt>
      <trkpt lat="47.82117" lon="-3.54316">
        <ele>10.84</ele>
        <time>2020-07-08T11:41:08Z</time>
      </trkpt>
      <trkpt lat="47.82115" lon="-3.54317">
        <ele>11.29</ele>
        <time>2020-07-08T11:41:09Z</time>
      </trkpt>
      <trkpt lat="47.82112" lon="-3.54318">
        <ele>11.75</ele>
        <time>2020-07-08T11:41:10Z</time>
      </trkpt>
      <trkpt lat="47.82108" lon="-3.54319">
        <ele>12.6</ele>
        <time>2020-07-08T11:41:11Z</time>
      </trkpt>
      <trkpt lat="47.82105" lon="-3.5432">
        <ele>13.32</ele>
        <time>2020-07-08T11:41:12Z</time>
      </trkpt>
      <trkpt lat="47.82102" lon="-3.54322">
        <ele>14.23</ele>
        <time>2020-07-08T11:41:13Z</time>
      </trkpt>
      <trkpt lat="47.82099" lon="-3.54323">
        <ele>15.14</ele>
        <time>2020-07-08T11:41:14Z</time>
      </trkpt>
      <trkpt lat="47.82095" lon="-3.54325">
        <ele>16</ele>
        <time>2020-07-08T11:41:15Z</time>
      </trkpt>
      <trkpt lat="47.82092" lon="-3.54325">
        <ele>16.96</ele>
        <time>2020-07-08T11:41:16Z</time>
      </trkpt>
      <trkpt lat="47.82089" lon="-3.54326">
        <ele>17.65</ele>
        <time>2020-07-08T11:41:17Z</time>
      </trkpt>
      <trkpt lat="47.82087" lon="-3.54327">
        <ele>18.26</ele>
        <time>2020-07-08T11:41:18Z</time>
      </trkpt>
      <trkpt lat="47.82085" lon="-3.54328">
        <ele>18.89</ele>
        <time>2020-07-08T11:41:19Z</time>
      </trkpt>
      <trkpt lat="47.82082" lon="-3.54329">
        <ele>19.39</ele>
        <time>2020-07-08T11:41:20Z</time>
      </trkpt>
      <trkpt lat="47.8208" lon="-3.5433">
        <ele>19.69</ele>
        <time>2020-07-08T11:41:21Z</time>
      </trkpt>
      <trkpt lat="47.82079" lon="-3.54331">
        <ele>19.84</ele>
        <time>2020-07-08T11:41:22Z</time>
      </trkpt>
      <trkpt lat="47.82077" lon="-3.54333">
        <ele>19.92</ele>
        <time>2020-07-08T11:41:23Z</time>
      </trkpt>
      <trkpt lat="47.82076" lon="-3.54334">
        <ele>20</ele>
        <time>2020-07-08T11:41:24Z</time>
      </trkpt>
      <trkpt lat="47.82074" lon="-3.54335">
        <ele>20.16</ele>
        <time>2020-07-08T11:41:25Z</time>
      </trkpt>
      <trkpt lat="47.8207" lon="-3.54336">
        <ele>20.51</ele>
        <time>2020-07-08T11:41:26Z</time>
      </trkpt>
      <trkpt lat="47.82067" lon="-3.54337">
        <ele>20.85</ele>
        <time>2020-07-08T11:41:27Z</time>
      </trkpt>
      <trkpt lat="47.82065" lon="-3.54337">
        <ele>21.11</ele>
        <time>2020-07-08T11:41:28Z</time>
      </trkpt>
      <trkpt lat="47.82062" lon="-3.54339">
        <ele>21.35</ele>
        <time>2020-07-08T11:41:29Z</time>
      </trkpt>
      <trkpt lat="47.82059" lon="-3.54339">
        <ele>21.59</ele>
        <time>2020-07-08T11:41:30Z</time>
      </trkpt>
      <trkpt lat="47.82056" lon="-3.5434">
        <ele>21.84</ele>
        <time>2020-07-08T11:41:31Z</time>
      </trkpt>
      <trkpt lat="47.82054" lon="-3.54341">
        <ele>22.13</ele>
        <time>2020-07-08T11:41:32Z</time>
      </trkpt>
      <trkpt lat="47.82052" lon="-3.54343">
        <ele>22.31</ele>
        <time>2020-07-08T11:41:33Z</time>
      </trkpt>
      <trkpt lat="47.8205" lon="-3.54345">
        <ele>22.53</ele>
        <time>2020-07-08T11:41:34Z</time>
      </trkpt>
      <trkpt lat="47.82048" lon="-3.54346">
        <ele>22.65</ele>
        <time>2020-07-08T11:41:35Z</time>
      </trkpt>
      <trkpt lat="47.82047" lon="-3.54349">
        <ele>22.64</ele>
        <time>2020-07-08T11:41:36Z</time>
      </trkpt>
      <trkpt lat="47.82045" lon="-3.54351">
        <ele>22.72</ele>
        <time>2020-07-08T11:41:37Z</time>
      </trkpt>
      <trkpt lat="47.82042" lon="-3.54353">
        <ele>23.08</ele>
        <time>2020-07-08T11:41:38Z</time>
      </trkpt>
      <trkpt lat="47.82039" lon="-3.54354">
        <ele>23.38</ele>
        <time>2020-07-08T11:41:39Z</time>
      </trkpt>
      <trkpt lat="47.82038" lon="-3.54356">
        <ele>23.56</ele>
        <time>2020-07-08T11:41:40Z</time>
      </trkpt>
      <trkpt lat="47.82036" lon="-3.54357">
        <ele>23.85</ele>
        <time>2020-07-08T11:41:41Z</time>
      </trkpt>
      <trkpt lat="47.82033" lon="-3.54359">
        <ele>24.09</ele>
        <time>2020-07-08T11:41:42Z</time>
      </trkpt>
      <trkpt lat="47.8203" lon="-3.54362">
        <ele>24.44</ele>
        <time>2020-07-08T11:41:43Z</time>
      </trkpt>
      <trkpt lat="47.82027" lon="-3.54364">
        <ele>24.79</ele>
        <time>2020-07-08T11:41:44Z</time>
      </trkpt>
      <trkpt lat="47.82026" lon="-3.54365">
        <ele>25.07</ele>
        <time>2020-07-08T11:41:45Z</time>
      </trkpt>
      <trkpt lat="47.82024" lon="-3.54367">
        <ele>25.33</ele>
        <time>2020-07-08T11:41:46Z</time>
      </trkpt>
      <trkpt lat="47.82022" lon="-3.54369">
        <ele>25.65</ele>
        <time>2020-07-08T11:41:47Z</time>
      </trkpt>
      <trkpt lat="47.82021" lon="-3.54372">
        <ele>25.9</ele>
        <time>2020-07-08T11:41:48Z</time>
      </trkpt>
      <trkpt lat="47.82019" lon="-3.54373">
        <ele>26.09</ele>
        <time>2020-07-08T11:41:49Z</time>
      </trkpt>
      <trkpt lat="47.82018" lon="-3.54375">
        <ele>26.32</ele>
        <time>2020-07-08T11:41:50Z</time>
      </trkpt>
      <trkpt lat="47.82016" lon="-3.54377">
        <ele>26.54</ele>
        <time>2020-07-08T11:41:51Z</time>
      </trkpt>
      <trkpt lat="47.82014" lon="-3.54379">
        <ele>26.75</ele>
        <time>2020-07-08T11:41:52Z</time>
      </trkpt>
      <trkpt lat="47.82012" lon="-3.54381">
        <ele>26.86</ele>
        <time>2020-07-08T11:41:53Z</time>
      </trkpt>
      <trkpt lat="47.8201" lon="-3.54383">
        <ele>26.93</ele>
        <time>2020-07-08T11:41:54Z</time>
      </trkpt>
      <trkpt lat="47.82009" lon="-3.54385">
        <ele>26.95</ele>
        <time>2020-07-08T11:41:55Z</time>
      </trkpt>
      <trkpt lat="47.82008" lon="-3.54386">
        <ele>26.96</ele>
        <time>2020-07-08T11:41:56Z</time>
      </trkpt>
      <trkpt lat="47.82007" lon="-3.54388">
        <ele>26.9</ele>
        <time>2020-07-08T11:41:57Z</time>
      </trkpt>
      <trkpt lat="47.82006" lon="-3.54391">
        <ele>26.81</ele>
        <time>2020-07-08T11:41:58Z</time>
      </trkpt>
      <trkpt lat="47.82006" lon="-3.54392">
        <ele>26.8</ele>
        <time>2020-07-08T11:41:59Z</time>
      </trkpt>
      <trkpt lat="47.82004" lon="-3.54393">
        <ele>26.89</ele>
        <time>2020-07-08T11:42:00Z</time>
      </trkpt>
      <trkpt lat="47.82003" lon="-3.54395">
        <ele>26.95</ele>
        <time>2020-07-08T11:42:01Z</time>
      </trkpt>
      <trkpt lat="47.82003" lon="-3.54395">
        <ele>26.97</ele>
        <time>2020-07-08T11:42:02Z</time>
      </trkpt>
      <trkpt lat="47.82" lon="-3.54401">
        <ele>26.84</ele>
        <time>2020-07-08T11:42:03Z</time>
      </trkpt>
      <trkpt lat="47.81998" lon="-3.54404">
        <ele>26.8</ele>
        <time>2020-07-08T11:42:04Z</time>
      </trkpt>
      <trkpt lat="47.81997" lon="-3.54407">
        <ele>26.75</ele>
        <time>2020-07-08T11:42:05Z</time>
      </trkpt>
      <trkpt lat="47.81995" lon="-3.54409">
        <ele>26.86</ele>
        <time>2020-07-08T11:42:06Z</time>
      </trkpt>
      <trkpt lat="47.81993" lon="-3.54412">
        <ele>26.94</ele>
        <time>2020-07-08T11:42:07Z</time>
      </trkpt>
      <trkpt lat="47.81991" lon="-3.54415">
        <ele>27.04</ele>
        <time>2020-07-08T11:42:08Z</time>
      </trkpt>
      <trkpt lat="47.81989" lon="-3.54417">
        <ele>27.21</ele>
        <time>2020-07-08T11:42:09Z</time>
      </trkpt>
      <trkpt lat="47.81987" lon="-3.54419">
        <ele>27.48</ele>
        <time>2020-07-08T11:42:10Z</time>
      </trkpt>
      <trkpt lat="47.81985" lon="-3.54421">
        <ele>27.75</ele>
        <time>2020-07-08T11:42:11Z</time>
      </trkpt>
      <trkpt lat="47.81983" lon="-3.54423">
        <ele>27.98</ele>
        <time>2020-07-08T11:42:12Z</time>
      </trkpt>
      <trkpt lat="47.81981" lon="-3.54424">
        <ele>28.2</ele>
        <time>2020-07-08T11:42:13Z</time>
      </trkpt>
      <trkpt lat="47.8198" lon="-3.54427">
        <ele>28.3</ele>
        <time>2020-07-08T11:42:14Z</time>
      </trkpt>
      <trkpt lat="47.81978" lon="-3.54429">
        <ele>28.34</ele>
        <time>2020-07-08T11:42:15Z</time>
      </trkpt>
      <trkpt lat="47.81977" lon="-3.54431">
        <ele>28.24</ele>
        <time>2020-07-08T11:42:16Z</time>
      </trkpt>
      <trkpt lat="47.81974" lon="-3.54433">
        <ele>28.33</ele>
        <time>2020-07-08T11:42:17Z</time>
      </trkpt>
      <trkpt lat="47.81971" lon="-3.54436">
        <ele>28.49</ele>
        <time>2020-07-08T11:42:18Z</time>
      </trkpt>
      <trkpt lat="47.81969" lon="-3.54438">
        <ele>28.78</ele>
        <time>2020-07-08T11:42:19Z</time>
      </trkpt>
      <trkpt lat="47.81967" lon="-3.54441">
        <ele>29.05</ele>
        <time>2020-07-08T11:42:20Z</time>
      </trkpt>
      <trkpt lat="47.81965" lon="-3.54443">
        <ele>29.31</ele>
        <time>2020-07-08T11:42:21Z</time>
      </trkpt>
      <trkpt lat="47.81963" lon="-3.54445">
        <ele>29.7</ele>
        <time>2020-07-08T11:42:22Z</time>
      </trkpt>
      <trkpt lat="47.81961" lon="-3.54448">
        <ele>30.11</ele>
        <time>2020-07-08T11:42:23Z</time>
      </trkpt>
      <trkpt lat="47.81959" lon="-3.54451">
        <ele>30.49</ele>
        <time>2020-07-08T11:42:24Z</time>
      </trkpt>
      <trkpt lat="47.81957" lon="-3.54454">
        <ele>30.75</ele>
        <time>2020-07-08T11:42:25Z</time>
      </trkpt>
      <trkpt lat="47.81956" lon="-3.54457">
        <ele>30.85</ele>
        <time>2020-07-08T11:42:26Z</time>
      </trkpt>
      <trkpt lat="47.81954" lon="-3.54459">
        <ele>30.99</ele>
        <time>2020-07-08T11:42:27Z</time>
      </trkpt>
      <trkpt lat="47.81953" lon="-3.54461">
        <ele>31.12</ele>
        <time>2020-07-08T11:42:28Z</time>
      </trkpt>
      <trkpt lat="47.81951" lon="-3.54464">
        <ele>31.19</ele>
        <time>2020-07-08T11:42:29Z</time>
      </trkpt>
      <trkpt lat="47.81949" lon="-3.54468">
        <ele>31.07</ele>
        <time>2020-07-08T11:42:30Z</time>
      </trkpt>
      <trkpt lat="47.81948" lon="-3.5447">
        <ele>30.93</ele>
        <time>2020-07-08T11:42:31Z</time>
      </trkpt>
      <trkpt lat="47.81946" lon="-3.54472">
        <ele>30.81</ele>
        <time>2020-07-08T11:42:32Z</time>
      </trkpt>
      <trkpt lat="47.81946" lon="-3.54474">
        <ele>30.73</ele>
        <time>2020-07-08T11:42:33Z</time>
      </trkpt>
      <trkpt lat="47.81945" lon="-3.54475">
        <ele>30.7</ele>
        <time>2020-07-08T11:42:34Z</time>
      </trkpt>
      <trkpt lat="47.81944" lon="-3.54475">
        <ele>30.66</ele>
        <time>2020-07-08T11:42:35Z</time>
      </trkpt>
      <trkpt lat="47.81944" lon="-3.54475">
        <ele>30.75</ele>
        <time>2020-07-08T11:42:36Z</time>
      </trkpt>
      <trkpt lat="47.81944" lon="-3.54476">
        <ele>30.83</ele>
        <time>2020-07-08T11:42:37Z</time>
      </trkpt>
      <trkpt lat="47.81944" lon="-3.54476">
        <ele>30.85</ele>
        <time>2020-07-08T11:42:38Z</time>
      </trkpt>
      <trkpt lat="47.81944" lon="-3.54476">
        <ele>30.86</ele>
        <time>2020-07-08T11:42:39Z</time>
      </trkpt>
      <trkpt lat="47.81944" lon="-3.54476">
        <ele>30.86</ele>
        <time>2020-07-08T11:42:40Z</time>
      </trkpt>
      <trkpt lat="47.81944" lon="-3.54476">
        <ele>30.86</ele>
        <time>2020-07-08T11:42:41Z</time>
      </trkpt>
      <trkpt lat="47.81944" lon="-3.54476">
        <ele>30.86</ele>
        <time>2020-07-08T11:42:42Z</time>
      </trkpt>
      <trkpt lat="47.81944" lon="-3.54476">
        <ele>30.86</ele>
        <time>2020-07-08T11:42:43Z</time>
      </trkpt>
      <trkpt lat="47.81944" lon="-3.54476">
        <ele>30.86</ele>
        <time>2020-07-08T11:42:44Z</time>
      </trkpt>
      <trkpt lat="47.81944" lon="-3.54476">
        <ele>30.86</ele>
        <time>2020-07-08T11:42:45Z</time>
      </trkpt>
      <trkpt lat="47.81944" lon="-3.54476">
        <ele>30.86</ele>
        <time>2020-07-08T11:42:46Z</time>
      </trkpt>
      <trkpt lat="47.81944" lon="-3.54476">
        <ele>30.86</ele>
        <time>2020-07-08T11:42:47Z</time>
      </trkpt>
      <trkpt lat="47.81944" lon="-3.54476">
        <ele>30.86</ele>
        <time>2020-07-08T11:42:48Z</time>
      </trkpt>
      <trkpt lat="47.81944" lon="-3.54476">
        <ele>30.86</ele>
        <time>2020-07-08T11:42:49Z</time>
      </trkpt>
      <trkpt lat="47.81944" lon="-3.54476">
        <ele>30.86</ele>
        <time>2020-07-08T11:42:50Z</time>
      </trkpt>
      <trkpt lat="47.81944" lon="-3.54476">
        <ele>30.86</ele>
        <time>2020-07-08T11:42:51Z</time>
      </trkpt>
      <trkpt lat="47.81944" lon="-3.54476">
        <ele>30.86</ele>
        <time>2020-07-08T11:42:52Z</time>
      </trkpt>
      <trkpt lat="47.81944" lon="-3.54476">
        <ele>30.86</ele>
        <time>2020-07-08T11:42:53Z</time>
      </trkpt>
      <trkpt lat="47.81944" lon="-3.54476">
        <ele>30.86</ele>
        <time>2020-07-08T11:42:54Z</time>
      </trkpt>
      <trkpt lat="47.81944" lon="-3.54476">
        <ele>30.86</ele>
        <time>2020-07-08T11:42:55Z</time>
      </trkpt>
      <trkpt lat="47.81944" lon="-3.54476">
        <ele>30.86</ele>
        <time>2020-07-08T11:42:56Z</time>
      </trkpt>
      <trkpt lat="47.81944" lon="-3.54476">
        <ele>30.86</ele>
        <time>2020-07-08T11:42:57Z</time>
      </trkpt>
      <trkpt lat="47.81944" lon="-3.54476">
        <ele>30.86</ele>
        <time>2020-07-08T11:42:58Z</time>
      </trkpt>
      <trkpt lat="47.81944" lon="-3.54476">
        <ele>30.86</ele>
        <time>2020-07-08T11:42:59Z</time>
      </trkpt>
      <trkpt lat="47.81944" lon="-3.54476">
        <ele>30.86</ele>
        <time>2020-07-08T11:43:00Z</time>
      </trkpt>
      <trkpt lat="47.81944" lon="-3.54476">
        <ele>30.86</ele>
        <time>2020-07-08T11:43:01Z</time>
      </trkpt>
      <trkpt lat="47.81944" lon="-3.54476">
        <ele>30.86</ele>
        <time>2020-07-08T11:43:02Z</time>
      </trkpt>
      <trkpt lat="47.81944" lon="-3.54476">
        <ele>30.86</ele>
        <time>2020-07-08T11:43:03Z</time>
      </trkpt>
      <trkpt lat="47.81944" lon="-3.54476">
        <ele>30.86</ele>
        <time>2020-07-08T11:43:04Z</time>
      </trkpt>
      <trkpt lat="47.81944" lon="-3.54476">
        <ele>30.86</ele>
        <time>2020-07-08T11:43:05Z</time>
      </trkpt>
      <trkpt lat="47.81944" lon="-3.54476">
        <ele>30.86</ele>
        <time>2020-07-08T11:43:06Z</time>
      </trkpt>
      <trkpt lat="47.81944" lon="-3.54476">
        <ele>30.86</ele>
        <time>2020-07-08T11:43:07Z</time>
      </trkpt>
      <trkpt lat="47.81935" lon="-3.54477">
        <ele>32.73</ele>
        <time>2020-07-08T11:43:08Z</time>
      </trkpt>
      <trkpt lat="47.81935" lon="-3.54478">
        <ele>33.21</ele>
        <time>2020-07-08T11:43:09Z</time>
      </trkpt>
      <trkpt lat="47.81935" lon="-3.54479">
        <ele>33.22</ele>
        <time>2020-07-08T11:43:10Z</time>
      </trkpt>
      <trkpt lat="47.81934" lon="-3.5448">
        <ele>33.42</ele>
        <time>2020-07-08T11:43:11Z</time>
      </trkpt>
      <trkpt lat="47.81934" lon="-3.5448">
        <ele>33.47</ele>
        <time>2020-07-08T11:43:12Z</time>
      </trkpt>
      <trkpt lat="47.81934" lon="-3.5448">
        <ele>33.49</ele>
        <time>2020-07-08T11:43:13Z</time>
      </trkpt>
      <trkpt lat="47.81934" lon="-3.5448">
        <ele>33.5</ele>
        <time>2020-07-08T11:43:14Z</time>
      </trkpt>
      <trkpt lat="47.81934" lon="-3.5448">
        <ele>33.5</ele>
        <time>2020-07-08T11:43:15Z</time>
      </trkpt>
      <trkpt lat="47.81934" lon="-3.5448">
        <ele>33.5</ele>
        <time>2020-07-08T11:43:16Z</time>
      </trkpt>
      <trkpt lat="47.81934" lon="-3.5448">
        <ele>33.5</ele>
        <time>2020-07-08T11:43:17Z</time>
      </trkpt>
      <trkpt lat="47.81934" lon="-3.5448">
        <ele>33.5</ele>
        <time>2020-07-08T11:43:18Z</time>
      </trkpt>
      <trkpt lat="47.81929" lon="-3.54486">
        <ele>34.02</ele>
        <time>2020-07-08T11:43:19Z</time>
      </trkpt>
      <trkpt lat="47.81928" lon="-3.54488">
        <ele>34.24</ele>
        <time>2020-07-08T11:43:20Z</time>
      </trkpt>
      <trkpt lat="47.81926" lon="-3.5449">
        <ele>34.51</ele>
        <time>2020-07-08T11:43:21Z</time>
      </trkpt>
      <trkpt lat="47.81924" lon="-3.54491">
        <ele>34.82</ele>
        <time>2020-07-08T11:43:22Z</time>
      </trkpt>
      <trkpt lat="47.81922" lon="-3.54493">
        <ele>35.12</ele>
        <time>2020-07-08T11:43:23Z</time>
      </trkpt>
      <trkpt lat="47.81921" lon="-3.54495">
        <ele>35.43</ele>
        <time>2020-07-08T11:43:24Z</time>
      </trkpt>
      <trkpt lat="47.81919" lon="-3.54497">
        <ele>35.72</ele>
        <time>2020-07-08T11:43:25Z</time>
      </trkpt>
      <trkpt lat="47.81917" lon="-3.54499">
        <ele>35.93</ele>
        <time>2020-07-08T11:43:26Z</time>
      </trkpt>
      <trkpt lat="47.81915" lon="-3.54501">
        <ele>36.18</ele>
        <time>2020-07-08T11:43:27Z</time>
      </trkpt>
      <trkpt lat="47.81913" lon="-3.54504">
        <ele>36.43</ele>
        <time>2020-07-08T11:43:28Z</time>
      </trkpt>
      <trkpt lat="47.81911" lon="-3.54506">
        <ele>36.63</ele>
        <time>2020-07-08T11:43:29Z</time>
      </trkpt>
      <trkpt lat="47.8191" lon="-3.54509">
        <ele>36.81</ele>
        <time>2020-07-08T11:43:30Z</time>
      </trkpt>
      <trkpt lat="47.81908" lon="-3.5451">
        <ele>37.09</ele>
        <time>2020-07-08T11:43:31Z</time>
      </trkpt>
      <trkpt lat="47.81906" lon="-3.54512">
        <ele>37.31</ele>
        <time>2020-07-08T11:43:32Z</time>
      </trkpt>
      <trkpt lat="47.81905" lon="-3.54515">
        <ele>37.48</ele>
        <time>2020-07-08T11:43:33Z</time>
      </trkpt>
      <trkpt lat="47.81903" lon="-3.54517">
        <ele>37.62</ele>
        <time>2020-07-08T11:43:34Z</time>
      </trkpt>
      <trkpt lat="47.81902" lon="-3.54518">
        <ele>37.81</ele>
        <time>2020-07-08T11:43:35Z</time>
      </trkpt>
      <trkpt lat="47.819" lon="-3.5452">
        <ele>37.99</ele>
        <time>2020-07-08T11:43:36Z</time>
      </trkpt>
      <trkpt lat="47.81899" lon="-3.54523">
        <ele>37.94</ele>
        <time>2020-07-08T11:43:37Z</time>
      </trkpt>
      <trkpt lat="47.81898" lon="-3.54525">
        <ele>37.87</ele>
        <time>2020-07-08T11:43:38Z</time>
      </trkpt>
      <trkpt lat="47.81896" lon="-3.54526">
        <ele>38.07</ele>
        <time>2020-07-08T11:43:39Z</time>
      </trkpt>
      <trkpt lat="47.81894" lon="-3.54528">
        <ele>38.32</ele>
        <time>2020-07-08T11:43:40Z</time>
      </trkpt>
      <trkpt lat="47.81893" lon="-3.54529">
        <ele>38.54</ele>
        <time>2020-07-08T11:43:41Z</time>
      </trkpt>
      <trkpt lat="47.81892" lon="-3.5453">
        <ele>38.81</ele>
        <time>2020-07-08T11:43:42Z</time>
      </trkpt>
      <trkpt lat="47.8189" lon="-3.54531">
        <ele>39.14</ele>
        <time>2020-07-08T11:43:43Z</time>
      </trkpt>
      <trkpt lat="47.81889" lon="-3.54533">
        <ele>39.35</ele>
        <time>2020-07-08T11:43:44Z</time>
      </trkpt>
      <trkpt lat="47.81888" lon="-3.54534">
        <ele>39.51</ele>
        <time>2020-07-08T11:43:45Z</time>
      </trkpt>
      <trkpt lat="47.81887" lon="-3.54535">
        <ele>39.63</ele>
        <time>2020-07-08T11:43:46Z</time>
      </trkpt>
      <trkpt lat="47.81886" lon="-3.54536">
        <ele>39.75</ele>
        <time>2020-07-08T11:43:47Z</time>
      </trkpt>
      <trkpt lat="47.81885" lon="-3.54538">
        <ele>39.8</ele>
        <time>2020-07-08T11:43:48Z</time>
      </trkpt>
      <trkpt lat="47.81883" lon="-3.5454">
        <ele>39.9</ele>
        <time>2020-07-08T11:43:49Z</time>
      </trkpt>
      <trkpt lat="47.81883" lon="-3.54541">
        <ele>39.9</ele>
        <time>2020-07-08T11:43:50Z</time>
      </trkpt>
      <trkpt lat="47.81882" lon="-3.54543">
        <ele>39.9</ele>
        <time>2020-07-08T11:43:51Z</time>
      </trkpt>
      <trkpt lat="47.81881" lon="-3.54544">
        <ele>39.92</ele>
        <time>2020-07-08T11:43:52Z</time>
      </trkpt>
      <trkpt lat="47.8188" lon="-3.54546">
        <ele>39.96</ele>
        <time>2020-07-08T11:43:53Z</time>
      </trkpt>
      <trkpt lat="47.8188" lon="-3.54546">
        <ele>39.97</ele>
        <time>2020-07-08T11:43:54Z</time>
      </trkpt>
      <trkpt lat="47.81876" lon="-3.5455">
        <ele>40.3</ele>
        <time>2020-07-08T11:43:55Z</time>
      </trkpt>
      <trkpt lat="47.81874" lon="-3.54553">
        <ele>40.4</ele>
        <time>2020-07-08T11:43:56Z</time>
      </trkpt>
      <trkpt lat="47.81872" lon="-3.54556">
        <ele>40.5</ele>
        <time>2020-07-08T11:43:57Z</time>
      </trkpt>
      <trkpt lat="47.8187" lon="-3.54559">
        <ele>40.73</ele>
        <time>2020-07-08T11:43:58Z</time>
      </trkpt>
      <trkpt lat="47.81869" lon="-3.54561">
        <ele>40.84</ele>
        <time>2020-07-08T11:43:59Z</time>
      </trkpt>
      <trkpt lat="47.81867" lon="-3.54563">
        <ele>40.93</ele>
        <time>2020-07-08T11:44:00Z</time>
      </trkpt>
      <trkpt lat="47.81866" lon="-3.54565">
        <ele>40.97</ele>
        <time>2020-07-08T11:44:01Z</time>
      </trkpt>
      <trkpt lat="47.81865" lon="-3.54566">
        <ele>41.01</ele>
        <time>2020-07-08T11:44:02Z</time>
      </trkpt>
      <trkpt lat="47.81864" lon="-3.54568">
        <ele>41.04</ele>
        <time>2020-07-08T11:44:03Z</time>
      </trkpt>
      <trkpt lat="47.81864" lon="-3.54568">
        <ele>41.04</ele>
        <time>2020-07-08T11:44:04Z</time>
      </trkpt>
      <trkpt lat="47.81861" lon="-3.54572">
        <ele>41.24</ele>
        <time>2020-07-08T11:44:05Z</time>
      </trkpt>
      <trkpt lat="47.81859" lon="-3.54573">
        <ele>41.34</ele>
        <time>2020-07-08T11:44:06Z</time>
      </trkpt>
      <trkpt lat="47.81856" lon="-3.54575">
        <ele>41.45</ele>
        <time>2020-07-08T11:44:07Z</time>
      </trkpt>
      <trkpt lat="47.81854" lon="-3.54578">
        <ele>41.52</ele>
        <time>2020-07-08T11:44:08Z</time>
      </trkpt>
      <trkpt lat="47.81852" lon="-3.5458">
        <ele>41.57</ele>
        <time>2020-07-08T11:44:09Z</time>
      </trkpt>
      <trkpt lat="47.8185" lon="-3.54583">
        <ele>41.65</ele>
        <time>2020-07-08T11:44:10Z</time>
      </trkpt>
      <trkpt lat="47.81847" lon="-3.54584">
        <ele>41.87</ele>
        <time>2020-07-08T11:44:11Z</time>
      </trkpt>
      <trkpt lat="47.81845" lon="-3.54587">
        <ele>42.01</ele>
        <time>2020-07-08T11:44:12Z</time>
      </trkpt>
      <trkpt lat="47.81843" lon="-3.54589">
        <ele>42.16</ele>
        <time>2020-07-08T11:44:13Z</time>
      </trkpt>
      <trkpt lat="47.81841" lon="-3.54589">
        <ele>42.39</ele>
        <time>2020-07-08T11:44:14Z</time>
      </trkpt>
      <trkpt lat="47.81839" lon="-3.54589">
        <ele>42.6</ele>
        <time>2020-07-08T11:44:15Z</time>
      </trkpt>
      <trkpt lat="47.81838" lon="-3.54591">
        <ele>42.74</ele>
        <time>2020-07-08T11:44:16Z</time>
      </trkpt>
      <trkpt lat="47.81837" lon="-3.54592">
        <ele>42.79</ele>
        <time>2020-07-08T11:44:17Z</time>
      </trkpt>
      <trkpt lat="47.81837" lon="-3.54592">
        <ele>42.8</ele>
        <time>2020-07-08T11:44:18Z</time>
      </trkpt>
      <trkpt lat="47.81837" lon="-3.54592">
        <ele>42.8</ele>
        <time>2020-07-08T11:44:19Z</time>
      </trkpt>
      <trkpt lat="47.81837" lon="-3.54592">
        <ele>42.81</ele>
        <time>2020-07-08T11:44:20Z</time>
      </trkpt>
      <trkpt lat="47.81837" lon="-3.54592">
        <ele>42.81</ele>
        <time>2020-07-08T11:44:21Z</time>
      </trkpt>
      <trkpt lat="47.81837" lon="-3.54592">
        <ele>42.81</ele>
        <time>2020-07-08T11:44:22Z</time>
      </trkpt>
      <trkpt lat="47.81837" lon="-3.54592">
        <ele>42.81</ele>
        <time>2020-07-08T11:44:23Z</time>
      </trkpt>
      <trkpt lat="47.81837" lon="-3.54592">
        <ele>42.81</ele>
        <time>2020-07-08T11:44:24Z</time>
      </trkpt>
      <trkpt lat="47.81837" lon="-3.54592">
        <ele>42.81</ele>
        <time>2020-07-08T11:44:25Z</time>
      </trkpt>
      <trkpt lat="47.81829" lon="-3.546">
        <ele>42.87</ele>
        <time>2020-07-08T11:44:26Z</time>
      </trkpt>
      <trkpt lat="47.81829" lon="-3.54601">
        <ele>42.86</ele>
        <time>2020-07-08T11:44:27Z</time>
      </trkpt>
      <trkpt lat="47.81828" lon="-3.54602">
        <ele>42.83</ele>
        <time>2020-07-08T11:44:28Z</time>
      </trkpt>
      <trkpt lat="47.81827" lon="-3.54603">
        <ele>42.77</ele>
        <time>2020-07-08T11:44:29Z</time>
      </trkpt>
      <trkpt lat="47.81827" lon="-3.54603">
        <ele>42.76</ele>
        <time>2020-07-08T11:44:30Z</time>
      </trkpt>
      <trkpt lat="47.81825" lon="-3.54605">
        <ele>42.69</ele>
        <time>2020-07-08T11:44:31Z</time>
      </trkpt>
      <trkpt lat="47.81823" lon="-3.54607">
        <ele>42.64</ele>
        <time>2020-07-08T11:44:32Z</time>
      </trkpt>
      <trkpt lat="47.81822" lon="-3.54608">
        <ele>42.6</ele>
        <time>2020-07-08T11:44:33Z</time>
      </trkpt>
      <trkpt lat="47.8182" lon="-3.54609">
        <ele>42.58</ele>
        <time>2020-07-08T11:44:34Z</time>
      </trkpt>
      <trkpt lat="47.81818" lon="-3.54612">
        <ele>42.52</ele>
        <time>2020-07-08T11:44:35Z</time>
      </trkpt>
      <trkpt lat="47.81817" lon="-3.54613">
        <ele>42.42</ele>
        <time>2020-07-08T11:44:36Z</time>
      </trkpt>
      <trkpt lat="47.81816" lon="-3.54616">
        <ele>42.3</ele>
        <time>2020-07-08T11:44:37Z</time>
      </trkpt>
      <trkpt lat="47.81814" lon="-3.54618">
        <ele>42.16</ele>
        <time>2020-07-08T11:44:38Z</time>
      </trkpt>
      <trkpt lat="47.81812" lon="-3.54621">
        <ele>42.04</ele>
        <time>2020-07-08T11:44:39Z</time>
      </trkpt>
      <trkpt lat="47.81809" lon="-3.54624">
        <ele>41.91</ele>
        <time>2020-07-08T11:44:40Z</time>
      </trkpt>
      <trkpt lat="47.81807" lon="-3.54626">
        <ele>41.84</ele>
        <time>2020-07-08T11:44:41Z</time>
      </trkpt>
      <trkpt lat="47.81805" lon="-3.54628">
        <ele>41.83</ele>
        <time>2020-07-08T11:44:42Z</time>
      </trkpt>
      <trkpt lat="47.81803" lon="-3.54632">
        <ele>41.81</ele>
        <time>2020-07-08T11:44:43Z</time>
      </trkpt>
      <trkpt lat="47.818" lon="-3.54634">
        <ele>41.83</ele>
        <time>2020-07-08T11:44:44Z</time>
      </trkpt>
      <trkpt lat="47.81799" lon="-3.54636">
        <ele>41.88</ele>
        <time>2020-07-08T11:44:45Z</time>
      </trkpt>
      <trkpt lat="47.81796" lon="-3.54639">
        <ele>42</ele>
        <time>2020-07-08T11:44:46Z</time>
      </trkpt>
      <trkpt lat="47.81793" lon="-3.54642">
        <ele>42.14</ele>
        <time>2020-07-08T11:44:47Z</time>
      </trkpt>
      <trkpt lat="47.81791" lon="-3.54644">
        <ele>42.29</ele>
        <time>2020-07-08T11:44:48Z</time>
      </trkpt>
      <trkpt lat="47.81789" lon="-3.54647">
        <ele>42.41</ele>
        <time>2020-07-08T11:44:49Z</time>
      </trkpt>
      <trkpt lat="47.81788" lon="-3.5465">
        <ele>42.49</ele>
        <time>2020-07-08T11:44:50Z</time>
      </trkpt>
      <trkpt lat="47.81786" lon="-3.54653">
        <ele>42.57</ele>
        <time>2020-07-08T11:44:51Z</time>
      </trkpt>
      <trkpt lat="47.81784" lon="-3.54656">
        <ele>42.65</ele>
        <time>2020-07-08T11:44:52Z</time>
      </trkpt>
      <trkpt lat="47.81783" lon="-3.54658">
        <ele>42.73</ele>
        <time>2020-07-08T11:44:53Z</time>
      </trkpt>
      <trkpt lat="47.81781" lon="-3.5466">
        <ele>42.85</ele>
        <time>2020-07-08T11:44:54Z</time>
      </trkpt>
      <trkpt lat="47.81779" lon="-3.54661">
        <ele>43</ele>
        <time>2020-07-08T11:44:55Z</time>
      </trkpt>
      <trkpt lat="47.81777" lon="-3.54663">
        <ele>43.1</ele>
        <time>2020-07-08T11:44:56Z</time>
      </trkpt>
      <trkpt lat="47.81776" lon="-3.54665">
        <ele>43.12</ele>
        <time>2020-07-08T11:44:57Z</time>
      </trkpt>
      <trkpt lat="47.81773" lon="-3.54668">
        <ele>43.08</ele>
        <time>2020-07-08T11:44:58Z</time>
      </trkpt>
      <trkpt lat="47.8177" lon="-3.54671">
        <ele>43.05</ele>
        <time>2020-07-08T11:44:59Z</time>
      </trkpt>
      <trkpt lat="47.81768" lon="-3.54674">
        <ele>42.97</ele>
        <time>2020-07-08T11:45:00Z</time>
      </trkpt>
      <trkpt lat="47.81767" lon="-3.54676">
        <ele>42.89</ele>
        <time>2020-07-08T11:45:01Z</time>
      </trkpt>
      <trkpt lat="47.81765" lon="-3.54679">
        <ele>42.81</ele>
        <time>2020-07-08T11:45:02Z</time>
      </trkpt>
      <trkpt lat="47.81762" lon="-3.54681">
        <ele>42.8</ele>
        <time>2020-07-08T11:45:03Z</time>
      </trkpt>
      <trkpt lat="47.8176" lon="-3.54684">
        <ele>42.82</ele>
        <time>2020-07-08T11:45:04Z</time>
      </trkpt>
      <trkpt lat="47.81757" lon="-3.54687">
        <ele>42.84</ele>
        <time>2020-07-08T11:45:05Z</time>
      </trkpt>
      <trkpt lat="47.81754" lon="-3.5469">
        <ele>42.86</ele>
        <time>2020-07-08T11:45:06Z</time>
      </trkpt>
      <trkpt lat="47.81751" lon="-3.54694">
        <ele>42.9</ele>
        <time>2020-07-08T11:45:07Z</time>
      </trkpt>
      <trkpt lat="47.81748" lon="-3.54698">
        <ele>42.86</ele>
        <time>2020-07-08T11:45:08Z</time>
      </trkpt>
      <trkpt lat="47.81744" lon="-3.54701">
        <ele>42.81</ele>
        <time>2020-07-08T11:45:09Z</time>
      </trkpt>
      <trkpt lat="47.81741" lon="-3.54704">
        <ele>42.76</ele>
        <time>2020-07-08T11:45:10Z</time>
      </trkpt>
      <trkpt lat="47.81737" lon="-3.54707">
        <ele>42.73</ele>
        <time>2020-07-08T11:45:11Z</time>
      </trkpt>
      <trkpt lat="47.81735" lon="-3.5471">
        <ele>42.75</ele>
        <time>2020-07-08T11:45:12Z</time>
      </trkpt>
      <trkpt lat="47.81731" lon="-3.5471">
        <ele>42.87</ele>
        <time>2020-07-08T11:45:13Z</time>
      </trkpt>
      <trkpt lat="47.81729" lon="-3.54709">
        <ele>43.04</ele>
        <time>2020-07-08T11:45:14Z</time>
      </trkpt>
      <trkpt lat="47.81726" lon="-3.54708">
        <ele>43.23</ele>
        <time>2020-07-08T11:45:15Z</time>
      </trkpt>
      <trkpt lat="47.81724" lon="-3.54706">
        <ele>43.41</ele>
        <time>2020-07-08T11:45:16Z</time>
      </trkpt>
      <trkpt lat="47.81721" lon="-3.54704">
        <ele>43.6</ele>
        <time>2020-07-08T11:45:17Z</time>
      </trkpt>
      <trkpt lat="47.8172" lon="-3.54702">
        <ele>43.77</ele>
        <time>2020-07-08T11:45:18Z</time>
      </trkpt>
      <trkpt lat="47.81718" lon="-3.547">
        <ele>43.92</ele>
        <time>2020-07-08T11:45:19Z</time>
      </trkpt>
      <trkpt lat="47.81716" lon="-3.54698">
        <ele>44.06</ele>
        <time>2020-07-08T11:45:20Z</time>
      </trkpt>
      <trkpt lat="47.81713" lon="-3.54697">
        <ele>44.21</ele>
        <time>2020-07-08T11:45:21Z</time>
      </trkpt>
      <trkpt lat="47.81711" lon="-3.54695">
        <ele>44.33</ele>
        <time>2020-07-08T11:45:22Z</time>
      </trkpt>
      <trkpt lat="47.81708" lon="-3.54694">
        <ele>44.46</ele>
        <time>2020-07-08T11:45:23Z</time>
      </trkpt>
      <trkpt lat="47.81706" lon="-3.54692">
        <ele>44.55</ele>
        <time>2020-07-08T11:45:24Z</time>
      </trkpt>
      <trkpt lat="47.81704" lon="-3.54689">
        <ele>44.63</ele>
        <time>2020-07-08T11:45:25Z</time>
      </trkpt>
      <trkpt lat="47.81701" lon="-3.54686">
        <ele>44.71</ele>
        <time>2020-07-08T11:45:26Z</time>
      </trkpt>
      <trkpt lat="47.817" lon="-3.54684">
        <ele>44.78</ele>
        <time>2020-07-08T11:45:27Z</time>
      </trkpt>
      <trkpt lat="47.81698" lon="-3.54682">
        <ele>44.85</ele>
        <time>2020-07-08T11:45:28Z</time>
      </trkpt>
      <trkpt lat="47.81696" lon="-3.5468">
        <ele>44.92</ele>
        <time>2020-07-08T11:45:29Z</time>
      </trkpt>
      <trkpt lat="47.81694" lon="-3.54679">
        <ele>44.99</ele>
        <time>2020-07-08T11:45:30Z</time>
      </trkpt>
      <trkpt lat="47.81692" lon="-3.54677">
        <ele>45.06</ele>
        <time>2020-07-08T11:45:31Z</time>
      </trkpt>
      <trkpt lat="47.81689" lon="-3.54675">
        <ele>45.15</ele>
        <time>2020-07-08T11:45:32Z</time>
      </trkpt>
      <trkpt lat="47.81685" lon="-3.54671">
        <ele>45.27</ele>
        <time>2020-07-08T11:45:33Z</time>
      </trkpt>
      <trkpt lat="47.81683" lon="-3.54668">
        <ele>45.38</ele>
        <time>2020-07-08T11:45:34Z</time>
      </trkpt>
      <trkpt lat="47.8168" lon="-3.54665">
        <ele>45.48</ele>
        <time>2020-07-08T11:45:35Z</time>
      </trkpt>
      <trkpt lat="47.81678" lon="-3.54662">
        <ele>45.56</ele>
        <time>2020-07-08T11:45:36Z</time>
      </trkpt>
      <trkpt lat="47.81676" lon="-3.54658">
        <ele>45.64</ele>
        <time>2020-07-08T11:45:37Z</time>
      </trkpt>
      <trkpt lat="47.81672" lon="-3.54653">
        <ele>45.76</ele>
        <time>2020-07-08T11:45:38Z</time>
      </trkpt>
      <trkpt lat="47.8167" lon="-3.54649">
        <ele>45.85</ele>
        <time>2020-07-08T11:45:39Z</time>
      </trkpt>
      <trkpt lat="47.81668" lon="-3.54645">
        <ele>45.93</ele>
        <time>2020-07-08T11:45:40Z</time>
      </trkpt>
      <trkpt lat="47.81666" lon="-3.54642">
        <ele>45.98</ele>
        <time>2020-07-08T11:45:41Z</time>
      </trkpt>
      <trkpt lat="47.81663" lon="-3.54639">
        <ele>45.99</ele>
        <time>2020-07-08T11:45:42Z</time>
      </trkpt>
      <trkpt lat="47.81661" lon="-3.54636">
        <ele>46.01</ele>
        <time>2020-07-08T11:45:43Z</time>
      </trkpt>
      <trkpt lat="47.81659" lon="-3.54634">
        <ele>46.04</ele>
        <time>2020-07-08T11:45:44Z</time>
      </trkpt>
      <trkpt lat="47.81658" lon="-3.54631">
        <ele>46.08</ele>
        <time>2020-07-08T11:45:45Z</time>
      </trkpt>
      <trkpt lat="47.81656" lon="-3.54627">
        <ele>46.14</ele>
        <time>2020-07-08T11:45:46Z</time>
      </trkpt>
      <trkpt lat="47.81654" lon="-3.54624">
        <ele>46.22</ele>
        <time>2020-07-08T11:45:47Z</time>
      </trkpt>
      <trkpt lat="47.81652" lon="-3.54621">
        <ele>46.31</ele>
        <time>2020-07-08T11:45:48Z</time>
      </trkpt>
      <trkpt lat="47.8165" lon="-3.54618">
        <ele>46.42</ele>
        <time>2020-07-08T11:45:49Z</time>
      </trkpt>
      <trkpt lat="47.81648" lon="-3.54613">
        <ele>46.56</ele>
        <time>2020-07-08T11:45:50Z</time>
      </trkpt>
      <trkpt lat="47.81646" lon="-3.5461">
        <ele>46.73</ele>
        <time>2020-07-08T11:45:51Z</time>
      </trkpt>
      <trkpt lat="47.81644" lon="-3.54605">
        <ele>46.91</ele>
        <time>2020-07-08T11:45:52Z</time>
      </trkpt>
      <trkpt lat="47.81642" lon="-3.54601">
        <ele>47.14</ele>
        <time>2020-07-08T11:45:53Z</time>
      </trkpt>
      <trkpt lat="47.8164" lon="-3.54597">
        <ele>47.38</ele>
        <time>2020-07-08T11:45:54Z</time>
      </trkpt>
      <trkpt lat="47.81638" lon="-3.54594">
        <ele>47.58</ele>
        <time>2020-07-08T11:45:55Z</time>
      </trkpt>
      <trkpt lat="47.81635" lon="-3.5459">
        <ele>47.79</ele>
        <time>2020-07-08T11:45:56Z</time>
      </trkpt>
      <trkpt lat="47.81632" lon="-3.54587">
        <ele>48.01</ele>
        <time>2020-07-08T11:45:57Z</time>
      </trkpt>
      <trkpt lat="47.8163" lon="-3.54583">
        <ele>48.21</ele>
        <time>2020-07-08T11:45:58Z</time>
      </trkpt>
      <trkpt lat="47.81628" lon="-3.5458">
        <ele>48.33</ele>
        <time>2020-07-08T11:45:59Z</time>
      </trkpt>
      <trkpt lat="47.81625" lon="-3.54577">
        <ele>48.44</ele>
        <time>2020-07-08T11:46:00Z</time>
      </trkpt>
      <trkpt lat="47.81624" lon="-3.54573">
        <ele>48.52</ele>
        <time>2020-07-08T11:46:01Z</time>
      </trkpt>
      <trkpt lat="47.81622" lon="-3.5457">
        <ele>48.58</ele>
        <time>2020-07-08T11:46:02Z</time>
      </trkpt>
      <trkpt lat="47.81619" lon="-3.54566">
        <ele>48.67</ele>
        <time>2020-07-08T11:46:03Z</time>
      </trkpt>
      <trkpt lat="47.81617" lon="-3.54562">
        <ele>48.75</ele>
        <time>2020-07-08T11:46:04Z</time>
      </trkpt>
      <trkpt lat="47.81614" lon="-3.54559">
        <ele>48.84</ele>
        <time>2020-07-08T11:46:05Z</time>
      </trkpt>
      <trkpt lat="47.81612" lon="-3.54555">
        <ele>48.95</ele>
        <time>2020-07-08T11:46:06Z</time>
      </trkpt>
      <trkpt lat="47.81609" lon="-3.54552">
        <ele>49.14</ele>
        <time>2020-07-08T11:46:07Z</time>
      </trkpt>
      <trkpt lat="47.81606" lon="-3.54549">
        <ele>49.29</ele>
        <time>2020-07-08T11:46:08Z</time>
      </trkpt>
      <trkpt lat="47.81604" lon="-3.54545">
        <ele>49.46</ele>
        <time>2020-07-08T11:46:09Z</time>
      </trkpt>
      <trkpt lat="47.81601" lon="-3.54541">
        <ele>49.62</ele>
        <time>2020-07-08T11:46:10Z</time>
      </trkpt>
      <trkpt lat="47.81598" lon="-3.54536">
        <ele>49.77</ele>
        <time>2020-07-08T11:46:11Z</time>
      </trkpt>
      <trkpt lat="47.81595" lon="-3.54532">
        <ele>49.89</ele>
        <time>2020-07-08T11:46:12Z</time>
      </trkpt>
      <trkpt lat="47.81592" lon="-3.54528">
        <ele>49.96</ele>
        <time>2020-07-08T11:46:13Z</time>
      </trkpt>
      <trkpt lat="47.81589" lon="-3.54524">
        <ele>49.99</ele>
        <time>2020-07-08T11:46:14Z</time>
      </trkpt>
      <trkpt lat="47.81586" lon="-3.54521">
        <ele>50</ele>
        <time>2020-07-08T11:46:15Z</time>
      </trkpt>
      <trkpt lat="47.81584" lon="-3.54519">
        <ele>50</ele>
        <time>2020-07-08T11:46:16Z</time>
      </trkpt>
      <trkpt lat="47.81581" lon="-3.54517">
        <ele>50</ele>
        <time>2020-07-08T11:46:17Z</time>
      </trkpt>
      <trkpt lat="47.81578" lon="-3.54514">
        <ele>50</ele>
        <time>2020-07-08T11:46:18Z</time>
      </trkpt>
      <trkpt lat="47.81575" lon="-3.54512">
        <ele>50</ele>
        <time>2020-07-08T11:46:19Z</time>
      </trkpt>
      <trkpt lat="47.81572" lon="-3.5451">
        <ele>50</ele>
        <time>2020-07-08T11:46:20Z</time>
      </trkpt>
      <trkpt lat="47.81569" lon="-3.54508">
        <ele>50</ele>
        <time>2020-07-08T11:46:21Z</time>
      </trkpt>
      <trkpt lat="47.81566" lon="-3.54506">
        <ele>50</ele>
        <time>2020-07-08T11:46:22Z</time>
      </trkpt>
      <trkpt lat="47.81563" lon="-3.54503">
        <ele>50</ele>
        <time>2020-07-08T11:46:23Z</time>
      </trkpt>
      <trkpt lat="47.8156" lon="-3.545">
        <ele>50</ele>
        <time>2020-07-08T11:46:24Z</time>
      </trkpt>
      <trkpt lat="47.81557" lon="-3.54496">
        <ele>50</ele>
        <time>2020-07-08T11:46:25Z</time>
      </trkpt>
      <trkpt lat="47.81554" lon="-3.54494">
        <ele>49.97</ele>
        <time>2020-07-08T11:46:26Z</time>
      </trkpt>
      <trkpt lat="47.81551" lon="-3.54491">
        <ele>49.89</ele>
        <time>2020-07-08T11:46:27Z</time>
      </trkpt>
      <trkpt lat="47.81548" lon="-3.54487">
        <ele>49.78</ele>
        <time>2020-07-08T11:46:28Z</time>
      </trkpt>
      <trkpt lat="47.81545" lon="-3.54484">
        <ele>49.66</ele>
        <time>2020-07-08T11:46:29Z</time>
      </trkpt>
      <trkpt lat="47.81542" lon="-3.54481">
        <ele>49.56</ele>
        <time>2020-07-08T11:46:30Z</time>
      </trkpt>
      <trkpt lat="47.8154" lon="-3.54477">
        <ele>49.47</ele>
        <time>2020-07-08T11:46:31Z</time>
      </trkpt>
      <trkpt lat="47.81537" lon="-3.54473">
        <ele>49.39</ele>
        <time>2020-07-08T11:46:32Z</time>
      </trkpt>
      <trkpt lat="47.81536" lon="-3.5447">
        <ele>49.32</ele>
        <time>2020-07-08T11:46:33Z</time>
      </trkpt>
      <trkpt lat="47.81535" lon="-3.54467">
        <ele>49.27</ele>
        <time>2020-07-08T11:46:34Z</time>
      </trkpt>
      <trkpt lat="47.81534" lon="-3.54464">
        <ele>49.24</ele>
        <time>2020-07-08T11:46:35Z</time>
      </trkpt>
      <trkpt lat="47.81534" lon="-3.5446">
        <ele>49.22</ele>
        <time>2020-07-08T11:46:36Z</time>
      </trkpt>
      <trkpt lat="47.81533" lon="-3.54457">
        <ele>49.19</ele>
        <time>2020-07-08T11:46:37Z</time>
      </trkpt>
      <trkpt lat="47.81531" lon="-3.54454">
        <ele>49.14</ele>
        <time>2020-07-08T11:46:38Z</time>
      </trkpt>
      <trkpt lat="47.81528" lon="-3.54453">
        <ele>49.04</ele>
        <time>2020-07-08T11:46:39Z</time>
      </trkpt>
      <trkpt lat="47.81525" lon="-3.54452">
        <ele>48.96</ele>
        <time>2020-07-08T11:46:40Z</time>
      </trkpt>
      <trkpt lat="47.81521" lon="-3.5445">
        <ele>48.85</ele>
        <time>2020-07-08T11:46:41Z</time>
      </trkpt>
      <trkpt lat="47.81518" lon="-3.54448">
        <ele>48.75</ele>
        <time>2020-07-08T11:46:42Z</time>
      </trkpt>
      <trkpt lat="47.81517" lon="-3.54444">
        <ele>48.64</ele>
        <time>2020-07-08T11:46:43Z</time>
      </trkpt>
      <trkpt lat="47.81515" lon="-3.5444">
        <ele>48.57</ele>
        <time>2020-07-08T11:46:44Z</time>
      </trkpt>
      <trkpt lat="47.81514" lon="-3.54435">
        <ele>48.52</ele>
        <time>2020-07-08T11:46:45Z</time>
      </trkpt>
      <trkpt lat="47.81513" lon="-3.5443">
        <ele>48.48</ele>
        <time>2020-07-08T11:46:46Z</time>
      </trkpt>
      <trkpt lat="47.81512" lon="-3.54425">
        <ele>48.44</ele>
        <time>2020-07-08T11:46:47Z</time>
      </trkpt>
      <trkpt lat="47.81511" lon="-3.54421">
        <ele>48.4</ele>
        <time>2020-07-08T11:46:48Z</time>
      </trkpt>
      <trkpt lat="47.81509" lon="-3.54416">
        <ele>48.34</ele>
        <time>2020-07-08T11:46:49Z</time>
      </trkpt>
      <trkpt lat="47.81507" lon="-3.54412">
        <ele>48.28</ele>
        <time>2020-07-08T11:46:50Z</time>
      </trkpt>
      <trkpt lat="47.81506" lon="-3.54407">
        <ele>48.23</ele>
        <time>2020-07-08T11:46:51Z</time>
      </trkpt>
      <trkpt lat="47.81504" lon="-3.54402">
        <ele>48.16</ele>
        <time>2020-07-08T11:46:52Z</time>
      </trkpt>
      <trkpt lat="47.81501" lon="-3.54394">
        <ele>48.07</ele>
        <time>2020-07-08T11:46:53Z</time>
      </trkpt>
      <trkpt lat="47.81498" lon="-3.54388">
        <ele>47.91</ele>
        <time>2020-07-08T11:46:54Z</time>
      </trkpt>
      <trkpt lat="47.81497" lon="-3.54382">
        <ele>47.63</ele>
        <time>2020-07-08T11:46:55Z</time>
      </trkpt>
      <trkpt lat="47.81494" lon="-3.54377">
        <ele>47.35</ele>
        <time>2020-07-08T11:46:56Z</time>
      </trkpt>
      <trkpt lat="47.81491" lon="-3.54373">
        <ele>47.09</ele>
        <time>2020-07-08T11:46:57Z</time>
      </trkpt>
      <trkpt lat="47.81488" lon="-3.54368">
        <ele>46.81</ele>
        <time>2020-07-08T11:46:58Z</time>
      </trkpt>
      <trkpt lat="47.81484" lon="-3.54363">
        <ele>46.56</ele>
        <time>2020-07-08T11:46:59Z</time>
      </trkpt>
      <trkpt lat="47.81479" lon="-3.54359">
        <ele>46.33</ele>
        <time>2020-07-08T11:47:00Z</time>
      </trkpt>
      <trkpt lat="47.81474" lon="-3.54355">
        <ele>46.14</ele>
        <time>2020-07-08T11:47:01Z</time>
      </trkpt>
      <trkpt lat="47.81468" lon="-3.54351">
        <ele>45.94</ele>
        <time>2020-07-08T11:47:02Z</time>
      </trkpt>
      <trkpt lat="47.81464" lon="-3.54347">
        <ele>45.77</ele>
        <time>2020-07-08T11:47:03Z</time>
      </trkpt>
      <trkpt lat="47.81459" lon="-3.54342">
        <ele>45.6</ele>
        <time>2020-07-08T11:47:04Z</time>
      </trkpt>
      <trkpt lat="47.81453" lon="-3.54336">
        <ele>45.41</ele>
        <time>2020-07-08T11:47:05Z</time>
      </trkpt>
      <trkpt lat="47.81449" lon="-3.54329">
        <ele>45.24</ele>
        <time>2020-07-08T11:47:06Z</time>
      </trkpt>
      <trkpt lat="47.81445" lon="-3.54322">
        <ele>45.08</ele>
        <time>2020-07-08T11:47:07Z</time>
      </trkpt>
      <trkpt lat="47.81441" lon="-3.54317">
        <ele>45.02</ele>
        <time>2020-07-08T11:47:08Z</time>
      </trkpt>
      <trkpt lat="47.81439" lon="-3.54311">
        <ele>45.01</ele>
        <time>2020-07-08T11:47:09Z</time>
      </trkpt>
      <trkpt lat="47.81437" lon="-3.54307">
        <ele>45</ele>
        <time>2020-07-08T11:47:10Z</time>
      </trkpt>
      <trkpt lat="47.81435" lon="-3.54303">
        <ele>45</ele>
        <time>2020-07-08T11:47:11Z</time>
      </trkpt>
      <trkpt lat="47.81434" lon="-3.54299">
        <ele>45</ele>
        <time>2020-07-08T11:47:12Z</time>
      </trkpt>
      <trkpt lat="47.81433" lon="-3.54296">
        <ele>45</ele>
        <time>2020-07-08T11:47:13Z</time>
      </trkpt>
      <trkpt lat="47.81432" lon="-3.54292">
        <ele>45</ele>
        <time>2020-07-08T11:47:14Z</time>
      </trkpt>
      <trkpt lat="47.8143" lon="-3.54288">
        <ele>45</ele>
        <time>2020-07-08T11:47:15Z</time>
      </trkpt>
      <trkpt lat="47.81429" lon="-3.54285">
        <ele>45</ele>
        <time>2020-07-08T11:47:16Z</time>
      </trkpt>
      <trkpt lat="47.81427" lon="-3.54282">
        <ele>45</ele>
        <time>2020-07-08T11:47:17Z</time>
      </trkpt>
      <trkpt lat="47.81426" lon="-3.54278">
        <ele>45</ele>
        <time>2020-07-08T11:47:18Z</time>
      </trkpt>
      <trkpt lat="47.81425" lon="-3.54273">
        <ele>45.08</ele>
        <time>2020-07-08T11:47:19Z</time>
      </trkpt>
      <trkpt lat="47.81425" lon="-3.54268">
        <ele>45.2</ele>
        <time>2020-07-08T11:47:20Z</time>
      </trkpt>
      <trkpt lat="47.81423" lon="-3.54264">
        <ele>45.33</ele>
        <time>2020-07-08T11:47:21Z</time>
      </trkpt>
      <trkpt lat="47.81422" lon="-3.54259">
        <ele>45.47</ele>
        <time>2020-07-08T11:47:22Z</time>
      </trkpt>
      <trkpt lat="47.8142" lon="-3.54256">
        <ele>45.62</ele>
        <time>2020-07-08T11:47:23Z</time>
      </trkpt>
      <trkpt lat="47.81419" lon="-3.54251">
        <ele>45.8</ele>
        <time>2020-07-08T11:47:24Z</time>
      </trkpt>
      <trkpt lat="47.81418" lon="-3.54247">
        <ele>45.91</ele>
        <time>2020-07-08T11:47:25Z</time>
      </trkpt>
      <trkpt lat="47.81417" lon="-3.54243">
        <ele>45.97</ele>
        <time>2020-07-08T11:47:26Z</time>
      </trkpt>
      <trkpt lat="47.81415" lon="-3.5424">
        <ele>46.02</ele>
        <time>2020-07-08T11:47:27Z</time>
      </trkpt>
      <trkpt lat="47.81413" lon="-3.54235">
        <ele>46.1</ele>
        <time>2020-07-08T11:47:28Z</time>
      </trkpt>
      <trkpt lat="47.81412" lon="-3.54232">
        <ele>46.16</ele>
        <time>2020-07-08T11:47:29Z</time>
      </trkpt>
      <trkpt lat="47.81411" lon="-3.54228">
        <ele>46.19</ele>
        <time>2020-07-08T11:47:30Z</time>
      </trkpt>
      <trkpt lat="47.81409" lon="-3.54223">
        <ele>46.24</ele>
        <time>2020-07-08T11:47:31Z</time>
      </trkpt>
      <trkpt lat="47.81408" lon="-3.54219">
        <ele>46.29</ele>
        <time>2020-07-08T11:47:32Z</time>
      </trkpt>
      <trkpt lat="47.81406" lon="-3.54215">
        <ele>46.35</ele>
        <time>2020-07-08T11:47:33Z</time>
      </trkpt>
      <trkpt lat="47.81405" lon="-3.54211">
        <ele>46.4</ele>
        <time>2020-07-08T11:47:34Z</time>
      </trkpt>
      <trkpt lat="47.81404" lon="-3.54207">
        <ele>46.44</ele>
        <time>2020-07-08T11:47:35Z</time>
      </trkpt>
      <trkpt lat="47.81403" lon="-3.54202">
        <ele>46.48</ele>
        <time>2020-07-08T11:47:36Z</time>
      </trkpt>
      <trkpt lat="47.81402" lon="-3.54197">
        <ele>46.51</ele>
        <time>2020-07-08T11:47:37Z</time>
      </trkpt>
      <trkpt lat="47.81401" lon="-3.54192">
        <ele>46.55</ele>
        <time>2020-07-08T11:47:38Z</time>
      </trkpt>
      <trkpt lat="47.814" lon="-3.54188">
        <ele>46.58</ele>
        <time>2020-07-08T11:47:39Z</time>
      </trkpt>
      <trkpt lat="47.81399" lon="-3.54183">
        <ele>46.62</ele>
        <time>2020-07-08T11:47:40Z</time>
      </trkpt>
      <trkpt lat="47.81398" lon="-3.54178">
        <ele>46.65</ele>
        <time>2020-07-08T11:47:41Z</time>
      </trkpt>
      <trkpt lat="47.81397" lon="-3.54174">
        <ele>46.69</ele>
        <time>2020-07-08T11:47:42Z</time>
      </trkpt>
      <trkpt lat="47.81396" lon="-3.5417">
        <ele>46.71</ele>
        <time>2020-07-08T11:47:43Z</time>
      </trkpt>
      <trkpt lat="47.81395" lon="-3.54166">
        <ele>46.75</ele>
        <time>2020-07-08T11:47:44Z</time>
      </trkpt>
      <trkpt lat="47.81392" lon="-3.54163">
        <ele>46.76</ele>
        <time>2020-07-08T11:47:45Z</time>
      </trkpt>
      <trkpt lat="47.81389" lon="-3.54161">
        <ele>46.79</ele>
        <time>2020-07-08T11:47:46Z</time>
      </trkpt>
      <trkpt lat="47.81384" lon="-3.54157">
        <ele>46.82</ele>
        <time>2020-07-08T11:47:47Z</time>
      </trkpt>
      <trkpt lat="47.8138" lon="-3.54156">
        <ele>46.89</ele>
        <time>2020-07-08T11:47:48Z</time>
      </trkpt>
      <trkpt lat="47.81375" lon="-3.54154">
        <ele>46.99</ele>
        <time>2020-07-08T11:47:49Z</time>
      </trkpt>
      <trkpt lat="47.81371" lon="-3.54152">
        <ele>47.09</ele>
        <time>2020-07-08T11:47:50Z</time>
      </trkpt>
      <trkpt lat="47.81368" lon="-3.54151">
        <ele>47.17</ele>
        <time>2020-07-08T11:47:51Z</time>
      </trkpt>
      <trkpt lat="47.81364" lon="-3.54149">
        <ele>47.25</ele>
        <time>2020-07-08T11:47:52Z</time>
      </trkpt>
      <trkpt lat="47.81361" lon="-3.54149">
        <ele>47.32</ele>
        <time>2020-07-08T11:47:53Z</time>
      </trkpt>
      <trkpt lat="47.81358" lon="-3.54147">
        <ele>47.36</ele>
        <time>2020-07-08T11:47:54Z</time>
      </trkpt>
      <trkpt lat="47.81354" lon="-3.54145">
        <ele>47.4</ele>
        <time>2020-07-08T11:47:55Z</time>
      </trkpt>
      <trkpt lat="47.8135" lon="-3.54144">
        <ele>47.48</ele>
        <time>2020-07-08T11:47:56Z</time>
      </trkpt>
      <trkpt lat="47.81345" lon="-3.54142">
        <ele>47.59</ele>
        <time>2020-07-08T11:47:57Z</time>
      </trkpt>
      <trkpt lat="47.8134" lon="-3.54141">
        <ele>47.71</ele>
        <time>2020-07-08T11:47:58Z</time>
      </trkpt>
      <trkpt lat="47.81336" lon="-3.5414">
        <ele>47.85</ele>
        <time>2020-07-08T11:47:59Z</time>
      </trkpt>
      <trkpt lat="47.81332" lon="-3.54139">
        <ele>47.95</ele>
        <time>2020-07-08T11:48:00Z</time>
      </trkpt>
      <trkpt lat="47.81328" lon="-3.54136">
        <ele>47.92</ele>
        <time>2020-07-08T11:48:01Z</time>
      </trkpt>
      <trkpt lat="47.81323" lon="-3.54133">
        <ele>47.83</ele>
        <time>2020-07-08T11:48:02Z</time>
      </trkpt>
      <trkpt lat="47.81318" lon="-3.5413">
        <ele>47.72</ele>
        <time>2020-07-08T11:48:03Z</time>
      </trkpt>
      <trkpt lat="47.81313" lon="-3.54127">
        <ele>47.61</ele>
        <time>2020-07-08T11:48:04Z</time>
      </trkpt>
      <trkpt lat="47.81308" lon="-3.54124">
        <ele>47.5</ele>
        <time>2020-07-08T11:48:05Z</time>
      </trkpt>
      <trkpt lat="47.81304" lon="-3.5412">
        <ele>47.33</ele>
        <time>2020-07-08T11:48:06Z</time>
      </trkpt>
      <trkpt lat="47.81299" lon="-3.54116">
        <ele>47.06</ele>
        <time>2020-07-08T11:48:07Z</time>
      </trkpt>
      <trkpt lat="47.81294" lon="-3.54113">
        <ele>46.77</ele>
        <time>2020-07-08T11:48:08Z</time>
      </trkpt>
      <trkpt lat="47.8129" lon="-3.54108">
        <ele>46.5</ele>
        <time>2020-07-08T11:48:09Z</time>
      </trkpt>
      <trkpt lat="47.81285" lon="-3.54104">
        <ele>46.29</ele>
        <time>2020-07-08T11:48:10Z</time>
      </trkpt>
      <trkpt lat="47.8128" lon="-3.54101">
        <ele>46.13</ele>
        <time>2020-07-08T11:48:11Z</time>
      </trkpt>
      <trkpt lat="47.81276" lon="-3.54097">
        <ele>46.02</ele>
        <time>2020-07-08T11:48:12Z</time>
      </trkpt>
      <trkpt lat="47.81272" lon="-3.54094">
        <ele>45.91</ele>
        <time>2020-07-08T11:48:13Z</time>
      </trkpt>
      <trkpt lat="47.81268" lon="-3.5409">
        <ele>45.78</ele>
        <time>2020-07-08T11:48:14Z</time>
      </trkpt>
      <trkpt lat="47.81264" lon="-3.54086">
        <ele>45.62</ele>
        <time>2020-07-08T11:48:15Z</time>
      </trkpt>
      <trkpt lat="47.81259" lon="-3.54082">
        <ele>45.4</ele>
        <time>2020-07-08T11:48:16Z</time>
      </trkpt>
      <trkpt lat="47.81255" lon="-3.54077">
        <ele>45.21</ele>
        <time>2020-07-08T11:48:17Z</time>
      </trkpt>
      <trkpt lat="47.81249" lon="-3.54074">
        <ele>45.07</ele>
        <time>2020-07-08T11:48:18Z</time>
      </trkpt>
      <trkpt lat="47.81245" lon="-3.54069">
        <ele>45.09</ele>
        <time>2020-07-08T11:48:19Z</time>
      </trkpt>
      <trkpt lat="47.8124" lon="-3.54064">
        <ele>45.19</ele>
        <time>2020-07-08T11:48:20Z</time>
      </trkpt>
      <trkpt lat="47.81236" lon="-3.5406">
        <ele>45.36</ele>
        <time>2020-07-08T11:48:21Z</time>
      </trkpt>
      <trkpt lat="47.81231" lon="-3.54055">
        <ele>45.59</ele>
        <time>2020-07-08T11:48:22Z</time>
      </trkpt>
      <trkpt lat="47.81226" lon="-3.54051">
        <ele>45.79</ele>
        <time>2020-07-08T11:48:23Z</time>
      </trkpt>
      <trkpt lat="47.81221" lon="-3.54047">
        <ele>45.96</ele>
        <time>2020-07-08T11:48:24Z</time>
      </trkpt>
      <trkpt lat="47.81217" lon="-3.54042">
        <ele>46.11</ele>
        <time>2020-07-08T11:48:25Z</time>
      </trkpt>
      <trkpt lat="47.81214" lon="-3.54036">
        <ele>46.25</ele>
        <time>2020-07-08T11:48:26Z</time>
      </trkpt>
      <trkpt lat="47.8121" lon="-3.54031">
        <ele>46.37</ele>
        <time>2020-07-08T11:48:27Z</time>
      </trkpt>
      <trkpt lat="47.81207" lon="-3.54026">
        <ele>46.5</ele>
        <time>2020-07-08T11:48:28Z</time>
      </trkpt>
      <trkpt lat="47.81204" lon="-3.54021">
        <ele>46.61</ele>
        <time>2020-07-08T11:48:29Z</time>
      </trkpt>
      <trkpt lat="47.812" lon="-3.54015">
        <ele>46.73</ele>
        <time>2020-07-08T11:48:30Z</time>
      </trkpt>
      <trkpt lat="47.81196" lon="-3.5401">
        <ele>46.87</ele>
        <time>2020-07-08T11:48:31Z</time>
      </trkpt>
      <trkpt lat="47.81193" lon="-3.54005">
        <ele>46.96</ele>
        <time>2020-07-08T11:48:32Z</time>
      </trkpt>
      <trkpt lat="47.81191" lon="-3.53999">
        <ele>46.98</ele>
        <time>2020-07-08T11:48:33Z</time>
      </trkpt>
      <trkpt lat="47.81187" lon="-3.53994">
        <ele>46.95</ele>
        <time>2020-07-08T11:48:34Z</time>
      </trkpt>
      <trkpt lat="47.81184" lon="-3.53989">
        <ele>46.88</ele>
        <time>2020-07-08T11:48:35Z</time>
      </trkpt>
      <trkpt lat="47.8118" lon="-3.53983">
        <ele>46.74</ele>
        <time>2020-07-08T11:48:36Z</time>
      </trkpt>
      <trkpt lat="47.81176" lon="-3.53978">
        <ele>46.54</ele>
        <time>2020-07-08T11:48:37Z</time>
      </trkpt>
      <trkpt lat="47.81172" lon="-3.53972">
        <ele>46.28</ele>
        <time>2020-07-08T11:48:38Z</time>
      </trkpt>
      <trkpt lat="47.81167" lon="-3.53965">
        <ele>46.09</ele>
        <time>2020-07-08T11:48:39Z</time>
      </trkpt>
      <trkpt lat="47.81163" lon="-3.5396">
        <ele>46.03</ele>
        <time>2020-07-08T11:48:40Z</time>
      </trkpt>
      <trkpt lat="47.81158" lon="-3.53955">
        <ele>46.01</ele>
        <time>2020-07-08T11:48:41Z</time>
      </trkpt>
      <trkpt lat="47.81154" lon="-3.5395">
        <ele>46</ele>
        <time>2020-07-08T11:48:42Z</time>
      </trkpt>
      <trkpt lat="47.8115" lon="-3.53945">
        <ele>46</ele>
        <time>2020-07-08T11:48:43Z</time>
      </trkpt>
      <trkpt lat="47.81146" lon="-3.5394">
        <ele>46</ele>
        <time>2020-07-08T11:48:44Z</time>
      </trkpt>
      <trkpt lat="47.81143" lon="-3.53936">
        <ele>46</ele>
        <time>2020-07-08T11:48:45Z</time>
      </trkpt>
      <trkpt lat="47.81139" lon="-3.53932">
        <ele>46</ele>
        <time>2020-07-08T11:48:46Z</time>
      </trkpt>
      <trkpt lat="47.81136" lon="-3.53927">
        <ele>46</ele>
        <time>2020-07-08T11:48:47Z</time>
      </trkpt>
      <trkpt lat="47.81132" lon="-3.53922">
        <ele>46</ele>
        <time>2020-07-08T11:48:48Z</time>
      </trkpt>
      <trkpt lat="47.81128" lon="-3.53918">
        <ele>46</ele>
        <time>2020-07-08T11:48:49Z</time>
      </trkpt>
      <trkpt lat="47.81124" lon="-3.53913">
        <ele>46</ele>
        <time>2020-07-08T11:48:50Z</time>
      </trkpt>
      <trkpt lat="47.8112" lon="-3.53907">
        <ele>46</ele>
        <time>2020-07-08T11:48:51Z</time>
      </trkpt>
      <trkpt lat="47.81116" lon="-3.53901">
        <ele>46</ele>
        <time>2020-07-08T11:48:52Z</time>
      </trkpt>
      <trkpt lat="47.81111" lon="-3.53896">
        <ele>46</ele>
        <time>2020-07-08T11:48:53Z</time>
      </trkpt>
      <trkpt lat="47.81107" lon="-3.53891">
        <ele>46</ele>
        <time>2020-07-08T11:48:54Z</time>
      </trkpt>
      <trkpt lat="47.81103" lon="-3.53885">
        <ele>46</ele>
        <time>2020-07-08T11:48:55Z</time>
      </trkpt>
      <trkpt lat="47.81099" lon="-3.5388">
        <ele>46</ele>
        <time>2020-07-08T11:48:56Z</time>
      </trkpt>
      <trkpt lat="47.81095" lon="-3.53875">
        <ele>46</ele>
        <time>2020-07-08T11:48:57Z</time>
      </trkpt>
      <trkpt lat="47.81091" lon="-3.53869">
        <ele>46</ele>
        <time>2020-07-08T11:48:58Z</time>
      </trkpt>
      <trkpt lat="47.81089" lon="-3.53862">
        <ele>46</ele>
        <time>2020-07-08T11:48:59Z</time>
      </trkpt>
      <trkpt lat="47.81084" lon="-3.53857">
        <ele>46.11</ele>
        <time>2020-07-08T11:49:00Z</time>
      </trkpt>
      <trkpt lat="47.8108" lon="-3.5385">
        <ele>46.36</ele>
        <time>2020-07-08T11:49:01Z</time>
      </trkpt>
      <trkpt lat="47.81076" lon="-3.53844">
        <ele>46.61</ele>
        <time>2020-07-08T11:49:02Z</time>
      </trkpt>
      <trkpt lat="47.81071" lon="-3.53839">
        <ele>46.81</ele>
        <time>2020-07-08T11:49:03Z</time>
      </trkpt>
      <trkpt lat="47.81067" lon="-3.53834">
        <ele>46.94</ele>
        <time>2020-07-08T11:49:04Z</time>
      </trkpt>
      <trkpt lat="47.81062" lon="-3.53828">
        <ele>46.98</ele>
        <time>2020-07-08T11:49:05Z</time>
      </trkpt>
      <trkpt lat="47.81058" lon="-3.53823">
        <ele>46.99</ele>
        <time>2020-07-08T11:49:06Z</time>
      </trkpt>
      <trkpt lat="47.81054" lon="-3.53818">
        <ele>47</ele>
        <time>2020-07-08T11:49:07Z</time>
      </trkpt>
      <trkpt lat="47.81049" lon="-3.53814">
        <ele>47</ele>
        <time>2020-07-08T11:49:08Z</time>
      </trkpt>
      <trkpt lat="47.81045" lon="-3.53809">
        <ele>47</ele>
        <time>2020-07-08T11:49:09Z</time>
      </trkpt>
      <trkpt lat="47.8104" lon="-3.53804">
        <ele>47</ele>
        <time>2020-07-08T11:49:10Z</time>
      </trkpt>
      <trkpt lat="47.81035" lon="-3.53799">
        <ele>47</ele>
        <time>2020-07-08T11:49:11Z</time>
      </trkpt>
      <trkpt lat="47.8103" lon="-3.53794">
        <ele>47</ele>
        <time>2020-07-08T11:49:12Z</time>
      </trkpt>
      <trkpt lat="47.81026" lon="-3.53788">
        <ele>47</ele>
        <time>2020-07-08T11:49:13Z</time>
      </trkpt>
      <trkpt lat="47.81022" lon="-3.53782">
        <ele>47</ele>
        <time>2020-07-08T11:49:14Z</time>
      </trkpt>
      <trkpt lat="47.81019" lon="-3.53776">
        <ele>47</ele>
        <time>2020-07-08T11:49:15Z</time>
      </trkpt>
      <trkpt lat="47.81015" lon="-3.5377">
        <ele>47</ele>
        <time>2020-07-08T11:49:16Z</time>
      </trkpt>
      <trkpt lat="47.81011" lon="-3.53765">
        <ele>47</ele>
        <time>2020-07-08T11:49:17Z</time>
      </trkpt>
      <trkpt lat="47.81008" lon="-3.5376">
        <ele>47</ele>
        <time>2020-07-08T11:49:18Z</time>
      </trkpt>
      <trkpt lat="47.81003" lon="-3.53755">
        <ele>47</ele>
        <time>2020-07-08T11:49:19Z</time>
      </trkpt>
      <trkpt lat="47.80999" lon="-3.5375">
        <ele>47</ele>
        <time>2020-07-08T11:49:20Z</time>
      </trkpt>
      <trkpt lat="47.80995" lon="-3.53745">
        <ele>47</ele>
        <time>2020-07-08T11:49:21Z</time>
      </trkpt>
      <trkpt lat="47.80991" lon="-3.53741">
        <ele>47</ele>
        <time>2020-07-08T11:49:22Z</time>
      </trkpt>
      <trkpt lat="47.80987" lon="-3.53737">
        <ele>47</ele>
        <time>2020-07-08T11:49:23Z</time>
      </trkpt>
      <trkpt lat="47.80982" lon="-3.53732">
        <ele>47</ele>
        <time>2020-07-08T11:49:24Z</time>
      </trkpt>
      <trkpt lat="47.80979" lon="-3.53727">
        <ele>47</ele>
        <time>2020-07-08T11:49:25Z</time>
      </trkpt>
      <trkpt lat="47.80975" lon="-3.53722">
        <ele>47</ele>
        <time>2020-07-08T11:49:26Z</time>
      </trkpt>
      <trkpt lat="47.80972" lon="-3.53717">
        <ele>46.99</ele>
        <time>2020-07-08T11:49:27Z</time>
      </trkpt>
      <trkpt lat="47.80967" lon="-3.53713">
        <ele>46.91</ele>
        <time>2020-07-08T11:49:28Z</time>
      </trkpt>
      <trkpt lat="47.80963" lon="-3.53708">
        <ele>46.86</ele>
        <time>2020-07-08T11:49:29Z</time>
      </trkpt>
      <trkpt lat="47.80959" lon="-3.53704">
        <ele>46.85</ele>
        <time>2020-07-08T11:49:30Z</time>
      </trkpt>
      <trkpt lat="47.80957" lon="-3.537">
        <ele>46.87</ele>
        <time>2020-07-08T11:49:31Z</time>
      </trkpt>
      <trkpt lat="47.80953" lon="-3.53696">
        <ele>46.94</ele>
        <time>2020-07-08T11:49:32Z</time>
      </trkpt>
      <trkpt lat="47.80949" lon="-3.53691">
        <ele>46.98</ele>
        <time>2020-07-08T11:49:33Z</time>
      </trkpt>
      <trkpt lat="47.80945" lon="-3.53686">
        <ele>46.99</ele>
        <time>2020-07-08T11:49:34Z</time>
      </trkpt>
      <trkpt lat="47.80942" lon="-3.53681">
        <ele>47</ele>
        <time>2020-07-08T11:49:35Z</time>
      </trkpt>
      <trkpt lat="47.80937" lon="-3.53676">
        <ele>47</ele>
        <time>2020-07-08T11:49:36Z</time>
      </trkpt>
      <trkpt lat="47.80933" lon="-3.53671">
        <ele>47</ele>
        <time>2020-07-08T11:49:37Z</time>
      </trkpt>
      <trkpt lat="47.80929" lon="-3.53667">
        <ele>47</ele>
        <time>2020-07-08T11:49:38Z</time>
      </trkpt>
      <trkpt lat="47.80925" lon="-3.53662">
        <ele>47</ele>
        <time>2020-07-08T11:49:39Z</time>
      </trkpt>
      <trkpt lat="47.8092" lon="-3.53657">
        <ele>47</ele>
        <time>2020-07-08T11:49:40Z</time>
      </trkpt>
      <trkpt lat="47.80915" lon="-3.53652">
        <ele>47.05</ele>
        <time>2020-07-08T11:49:41Z</time>
      </trkpt>
      <trkpt lat="47.8091" lon="-3.53647">
        <ele>47.18</ele>
        <time>2020-07-08T11:49:42Z</time>
      </trkpt>
      <trkpt lat="47.80905" lon="-3.53642">
        <ele>47.34</ele>
        <time>2020-07-08T11:49:43Z</time>
      </trkpt>
      <trkpt lat="47.80901" lon="-3.53636">
        <ele>47.4</ele>
        <time>2020-07-08T11:49:44Z</time>
      </trkpt>
      <trkpt lat="47.80897" lon="-3.5363">
        <ele>47.34</ele>
        <time>2020-07-08T11:49:45Z</time>
      </trkpt>
      <trkpt lat="47.80891" lon="-3.53623">
        <ele>47.33</ele>
        <time>2020-07-08T11:49:46Z</time>
      </trkpt>
      <trkpt lat="47.80886" lon="-3.53617">
        <ele>47.17</ele>
        <time>2020-07-08T11:49:47Z</time>
      </trkpt>
      <trkpt lat="47.80881" lon="-3.53611">
        <ele>46.86</ele>
        <time>2020-07-08T11:49:48Z</time>
      </trkpt>
      <trkpt lat="47.80876" lon="-3.53603">
        <ele>46.42</ele>
        <time>2020-07-08T11:49:49Z</time>
      </trkpt>
      <trkpt lat="47.80872" lon="-3.53597">
        <ele>46.13</ele>
        <time>2020-07-08T11:49:50Z</time>
      </trkpt>
      <trkpt lat="47.80868" lon="-3.53591">
        <ele>45.97</ele>
        <time>2020-07-08T11:49:51Z</time>
      </trkpt>
      <trkpt lat="47.80863" lon="-3.53585">
        <ele>45.95</ele>
        <time>2020-07-08T11:49:52Z</time>
      </trkpt>
      <trkpt lat="47.80859" lon="-3.53579">
        <ele>45.83</ele>
        <time>2020-07-08T11:49:53Z</time>
      </trkpt>
      <trkpt lat="47.80857" lon="-3.53575">
        <ele>45.67</ele>
        <time>2020-07-08T11:49:54Z</time>
      </trkpt>
      <trkpt lat="47.80855" lon="-3.53573">
        <ele>45.55</ele>
        <time>2020-07-08T11:49:55Z</time>
      </trkpt>
      <trkpt lat="47.80854" lon="-3.53571">
        <ele>45.46</ele>
        <time>2020-07-08T11:49:56Z</time>
      </trkpt>
      <trkpt lat="47.80854" lon="-3.53571">
        <ele>45.42</ele>
        <time>2020-07-08T11:49:57Z</time>
      </trkpt>
      <trkpt lat="47.80853" lon="-3.53571">
        <ele>45.4</ele>
        <time>2020-07-08T11:49:58Z</time>
      </trkpt>
      <trkpt lat="47.80853" lon="-3.53571">
        <ele>45.4</ele>
        <time>2020-07-08T11:49:59Z</time>
      </trkpt>
      <trkpt lat="47.80853" lon="-3.53571">
        <ele>45.4</ele>
        <time>2020-07-08T11:50:00Z</time>
      </trkpt>
      <trkpt lat="47.80853" lon="-3.53571">
        <ele>45.4</ele>
        <time>2020-07-08T11:50:01Z</time>
      </trkpt>
      <trkpt lat="47.80853" lon="-3.53571">
        <ele>45.4</ele>
        <time>2020-07-08T11:50:02Z</time>
      </trkpt>
      <trkpt lat="47.80853" lon="-3.53571">
        <ele>45.4</ele>
        <time>2020-07-08T11:50:03Z</time>
      </trkpt>
      <trkpt lat="47.80853" lon="-3.53571">
        <ele>45.4</ele>
        <time>2020-07-08T11:50:04Z</time>
      </trkpt>
      <trkpt lat="47.80853" lon="-3.53571">
        <ele>45.4</ele>
        <time>2020-07-08T11:50:05Z</time>
      </trkpt>
      <trkpt lat="47.80853" lon="-3.53571">
        <ele>45.4</ele>
        <time>2020-07-08T11:50:06Z</time>
      </trkpt>
      <trkpt lat="47.80853" lon="-3.53571">
        <ele>45.4</ele>
        <time>2020-07-08T11:50:07Z</time>
      </trkpt>
      <trkpt lat="47.80853" lon="-3.53571">
        <ele>45.4</ele>
        <time>2020-07-08T11:50:08Z</time>
      </trkpt>
      <trkpt lat="47.80853" lon="-3.53571">
        <ele>45.4</ele>
        <time>2020-07-08T11:50:09Z</time>
      </trkpt>
      <trkpt lat="47.80853" lon="-3.53571">
        <ele>45.4</ele>
        <time>2020-07-08T11:50:10Z</time>
      </trkpt>
      <trkpt lat="47.80855" lon="-3.53572">
        <ele>45.45</ele>
        <time>2020-07-08T11:50:11Z</time>
      </trkpt>
      <trkpt lat="47.80855" lon="-3.53574">
        <ele>45.5</ele>
        <time>2020-07-08T11:50:12Z</time>
      </trkpt>
      <trkpt lat="47.80856" lon="-3.53576">
        <ele>45.57</ele>
        <time>2020-07-08T11:50:13Z</time>
      </trkpt>
      <trkpt lat="47.80857" lon="-3.53579">
        <ele>45.69</ele>
        <time>2020-07-08T11:50:14Z</time>
      </trkpt>
      <trkpt lat="47.80858" lon="-3.53582">
        <ele>45.81</ele>
        <time>2020-07-08T11:50:15Z</time>
      </trkpt>
      <trkpt lat="47.80859" lon="-3.53585">
        <ele>45.9</ele>
        <time>2020-07-08T11:50:16Z</time>
      </trkpt>
      <trkpt lat="47.80861" lon="-3.53586">
        <ele>45.96</ele>
        <time>2020-07-08T11:50:17Z</time>
      </trkpt>
      <trkpt lat="47.80862" lon="-3.53586">
        <ele>45.96</ele>
        <time>2020-07-08T11:50:18Z</time>
      </trkpt>
      <trkpt lat="47.80864" lon="-3.53585">
        <ele>45.94</ele>
        <time>2020-07-08T11:50:19Z</time>
      </trkpt>
      <trkpt lat="47.80864" lon="-3.53585">
        <ele>45.9</ele>
        <time>2020-07-08T11:50:20Z</time>
      </trkpt>
      <trkpt lat="47.80865" lon="-3.53583">
        <ele>45.86</ele>
        <time>2020-07-08T11:50:21Z</time>
      </trkpt>
      <trkpt lat="47.80866" lon="-3.53581">
        <ele>45.77</ele>
        <time>2020-07-08T11:50:22Z</time>
      </trkpt>
      <trkpt lat="47.80867" lon="-3.53579">
        <ele>45.66</ele>
        <time>2020-07-08T11:50:23Z</time>
      </trkpt>
      <trkpt lat="47.80868" lon="-3.53577">
        <ele>45.51</ele>
        <time>2020-07-08T11:50:24Z</time>
      </trkpt>
      <trkpt lat="47.8087" lon="-3.53574">
        <ele>45.31</ele>
        <time>2020-07-08T11:50:25Z</time>
      </trkpt>
      <trkpt lat="47.80872" lon="-3.53571">
        <ele>45.08</ele>
        <time>2020-07-08T11:50:26Z</time>
      </trkpt>
      <trkpt lat="47.80875" lon="-3.53568">
        <ele>44.78</ele>
        <time>2020-07-08T11:50:27Z</time>
      </trkpt>
      <trkpt lat="47.80878" lon="-3.53564">
        <ele>44.44</ele>
        <time>2020-07-08T11:50:28Z</time>
      </trkpt>
      <trkpt lat="47.80881" lon="-3.5356">
        <ele>44.04</ele>
        <time>2020-07-08T11:50:29Z</time>
      </trkpt>
      <trkpt lat="47.80883" lon="-3.53555">
        <ele>43.59</ele>
        <time>2020-07-08T11:50:30Z</time>
      </trkpt>
      <trkpt lat="47.80886" lon="-3.53551">
        <ele>43.19</ele>
        <time>2020-07-08T11:50:31Z</time>
      </trkpt>
      <trkpt lat="47.80889" lon="-3.53546">
        <ele>42.84</ele>
        <time>2020-07-08T11:50:32Z</time>
      </trkpt>
      <trkpt lat="47.80891" lon="-3.53543">
        <ele>42.6</ele>
        <time>2020-07-08T11:50:33Z</time>
      </trkpt>
      <trkpt lat="47.80893" lon="-3.5354">
        <ele>42.43</ele>
        <time>2020-07-08T11:50:34Z</time>
      </trkpt>
      <trkpt lat="47.80895" lon="-3.53537">
        <ele>42.3</ele>
        <time>2020-07-08T11:50:35Z</time>
      </trkpt>
      <trkpt lat="47.80897" lon="-3.53534">
        <ele>42.2</ele>
        <time>2020-07-08T11:50:36Z</time>
      </trkpt>
      <trkpt lat="47.80898" lon="-3.53531">
        <ele>42.11</ele>
        <time>2020-07-08T11:50:37Z</time>
      </trkpt>
      <trkpt lat="47.809" lon="-3.53527">
        <ele>42.03</ele>
        <time>2020-07-08T11:50:38Z</time>
      </trkpt>
      <trkpt lat="47.80901" lon="-3.53522">
        <ele>42.01</ele>
        <time>2020-07-08T11:50:39Z</time>
      </trkpt>
      <trkpt lat="47.80903" lon="-3.53517">
        <ele>42</ele>
        <time>2020-07-08T11:50:40Z</time>
      </trkpt>
      <trkpt lat="47.80906" lon="-3.53514">
        <ele>42</ele>
        <time>2020-07-08T11:50:41Z</time>
      </trkpt>
      <trkpt lat="47.80909" lon="-3.53509">
        <ele>42</ele>
        <time>2020-07-08T11:50:42Z</time>
      </trkpt>
      <trkpt lat="47.80914" lon="-3.53505">
        <ele>42</ele>
        <time>2020-07-08T11:50:43Z</time>
      </trkpt>
      <trkpt lat="47.80918" lon="-3.53502">
        <ele>42</ele>
        <time>2020-07-08T11:50:44Z</time>
      </trkpt>
      <trkpt lat="47.80922" lon="-3.53499">
        <ele>41.95</ele>
        <time>2020-07-08T11:50:45Z</time>
      </trkpt>
      <trkpt lat="47.80926" lon="-3.53496">
        <ele>41.81</ele>
        <time>2020-07-08T11:50:46Z</time>
      </trkpt>
      <trkpt lat="47.80928" lon="-3.53493">
        <ele>41.61</ele>
        <time>2020-07-08T11:50:47Z</time>
      </trkpt>
      <trkpt lat="47.8093" lon="-3.5349">
        <ele>41.41</ele>
        <time>2020-07-08T11:50:48Z</time>
      </trkpt>
      <trkpt lat="47.8093" lon="-3.53489">
        <ele>41.28</ele>
        <time>2020-07-08T11:50:49Z</time>
      </trkpt>
      <trkpt lat="47.8093" lon="-3.53489">
        <ele>41.25</ele>
        <time>2020-07-08T11:50:50Z</time>
      </trkpt>
      <trkpt lat="47.80931" lon="-3.53489">
        <ele>41.21</ele>
        <time>2020-07-08T11:50:51Z</time>
      </trkpt>
      <trkpt lat="47.80931" lon="-3.53489">
        <ele>41.2</ele>
        <time>2020-07-08T11:50:52Z</time>
      </trkpt>
      <trkpt lat="47.80931" lon="-3.53489">
        <ele>41.2</ele>
        <time>2020-07-08T11:50:53Z</time>
      </trkpt>
      <trkpt lat="47.80931" lon="-3.53489">
        <ele>41.2</ele>
        <time>2020-07-08T11:50:54Z</time>
      </trkpt>
      <trkpt lat="47.80931" lon="-3.53489">
        <ele>41.2</ele>
        <time>2020-07-08T11:50:55Z</time>
      </trkpt>
      <trkpt lat="47.80931" lon="-3.53489">
        <ele>41.2</ele>
        <time>2020-07-08T11:50:56Z</time>
      </trkpt>
      <trkpt lat="47.80931" lon="-3.53489">
        <ele>41.2</ele>
        <time>2020-07-08T11:50:57Z</time>
      </trkpt>
      <trkpt lat="47.80931" lon="-3.53489">
        <ele>41.2</ele>
        <time>2020-07-08T11:50:58Z</time>
      </trkpt>
      <trkpt lat="47.80931" lon="-3.53489">
        <ele>41.2</ele>
        <time>2020-07-08T11:50:59Z</time>
      </trkpt>
      <trkpt lat="47.80931" lon="-3.53489">
        <ele>41.2</ele>
        <time>2020-07-08T11:51:00Z</time>
      </trkpt>
      <trkpt lat="47.80931" lon="-3.53489">
        <ele>41.2</ele>
        <time>2020-07-08T11:51:01Z</time>
      </trkpt>
      <trkpt lat="47.80931" lon="-3.53489">
        <ele>41.2</ele>
        <time>2020-07-08T11:51:02Z</time>
      </trkpt>
      <trkpt lat="47.80931" lon="-3.53489">
        <ele>41.2</ele>
        <time>2020-07-08T11:51:03Z</time>
      </trkpt>
      <trkpt lat="47.80931" lon="-3.53489">
        <ele>41.2</ele>
        <time>2020-07-08T11:51:04Z</time>
      </trkpt>
      <trkpt lat="47.80931" lon="-3.53489">
        <ele>41.2</ele>
        <time>2020-07-08T11:51:05Z</time>
      </trkpt>
      <trkpt lat="47.80931" lon="-3.53489">
        <ele>41.2</ele>
        <time>2020-07-08T11:51:06Z</time>
      </trkpt>
      <trkpt lat="47.80931" lon="-3.53489">
        <ele>41.2</ele>
        <time>2020-07-08T11:51:07Z</time>
      </trkpt>
      <trkpt lat="47.80931" lon="-3.53489">
        <ele>41.2</ele>
        <time>2020-07-08T11:51:08Z</time>
      </trkpt>
      <trkpt lat="47.80931" lon="-3.53489">
        <ele>41.2</ele>
        <time>2020-07-08T11:51:09Z</time>
      </trkpt>
      <trkpt lat="47.80931" lon="-3.53489">
        <ele>41.2</ele>
        <time>2020-07-08T11:51:10Z</time>
      </trkpt>
      <trkpt lat="47.80931" lon="-3.53489">
        <ele>41.2</ele>
        <time>2020-07-08T11:51:11Z</time>
      </trkpt>
      <trkpt lat="47.80931" lon="-3.53489">
        <ele>41.2</ele>
        <time>2020-07-08T11:51:12Z</time>
      </trkpt>
      <trkpt lat="47.80931" lon="-3.53489">
        <ele>41.2</ele>
        <time>2020-07-08T11:51:13Z</time>
      </trkpt>
      <trkpt lat="47.80931" lon="-3.53489">
        <ele>41.2</ele>
        <time>2020-07-08T11:51:14Z</time>
      </trkpt>
      <trkpt lat="47.80931" lon="-3.53489">
        <ele>41.2</ele>
        <time>2020-07-08T11:51:15Z</time>
      </trkpt>
      <trkpt lat="47.80931" lon="-3.53489">
        <ele>41.2</ele>
        <time>2020-07-08T11:51:16Z</time>
      </trkpt>
      <trkpt lat="47.80931" lon="-3.53489">
        <ele>41.2</ele>
        <time>2020-07-08T11:51:17Z</time>
      </trkpt>
      <trkpt lat="47.80931" lon="-3.53489">
        <ele>41.2</ele>
        <time>2020-07-08T11:51:18Z</time>
      </trkpt>
      <trkpt lat="47.80931" lon="-3.53489">
        <ele>41.2</ele>
        <time>2020-07-08T11:51:19Z</time>
      </trkpt>
      <trkpt lat="47.80931" lon="-3.53489">
        <ele>41.2</ele>
        <time>2020-07-08T11:51:20Z</time>
      </trkpt>
      <trkpt lat="47.80931" lon="-3.53489">
        <ele>41.2</ele>
        <time>2020-07-08T11:51:21Z</time>
      </trkpt>
      <trkpt lat="47.80931" lon="-3.53489">
        <ele>41.2</ele>
        <time>2020-07-08T11:51:22Z</time>
      </trkpt>
      <trkpt lat="47.80931" lon="-3.53489">
        <ele>41.2</ele>
        <time>2020-07-08T11:51:23Z</time>
      </trkpt>
      <trkpt lat="47.80931" lon="-3.53489">
        <ele>41.2</ele>
        <time>2020-07-08T11:51:24Z</time>
      </trkpt>
      <trkpt lat="47.80931" lon="-3.53489">
        <ele>41.2</ele>
        <time>2020-07-08T11:51:25Z</time>
      </trkpt>
      <trkpt lat="47.80931" lon="-3.53489">
        <ele>41.2</ele>
        <time>2020-07-08T11:51:26Z</time>
      </trkpt>
      <trkpt lat="47.80931" lon="-3.53489">
        <ele>41.2</ele>
        <time>2020-07-08T11:51:27Z</time>
      </trkpt>
      <trkpt lat="47.80931" lon="-3.53489">
        <ele>41.2</ele>
        <time>2020-07-08T11:51:28Z</time>
      </trkpt>
      <trkpt lat="47.80931" lon="-3.53489">
        <ele>41.2</ele>
        <time>2020-07-08T11:51:29Z</time>
      </trkpt>
      <trkpt lat="47.80931" lon="-3.53489">
        <ele>41.2</ele>
        <time>2020-07-08T11:51:30Z</time>
      </trkpt>
      <trkpt lat="47.80931" lon="-3.53489">
        <ele>41.2</ele>
        <time>2020-07-08T11:51:31Z</time>
      </trkpt>
      <trkpt lat="47.80931" lon="-3.53489">
        <ele>41.2</ele>
        <time>2020-07-08T11:51:32Z</time>
      </trkpt>
      <trkpt lat="47.80931" lon="-3.53489">
        <ele>41.2</ele>
        <time>2020-07-08T11:51:33Z</time>
      </trkpt>
      <trkpt lat="47.80931" lon="-3.53489">
        <ele>41.2</ele>
        <time>2020-07-08T11:51:34Z</time>
      </trkpt>
      <trkpt lat="47.80931" lon="-3.53489">
        <ele>41.2</ele>
        <time>2020-07-08T11:51:35Z</time>
      </trkpt>
      <trkpt lat="47.80931" lon="-3.53489">
        <ele>41.2</ele>
        <time>2020-07-08T11:51:36Z</time>
      </trkpt>
      <trkpt lat="47.80931" lon="-3.53489">
        <ele>41.2</ele>
        <time>2020-07-08T11:51:37Z</time>
      </trkpt>
      <trkpt lat="47.80931" lon="-3.53489">
        <ele>41.2</ele>
        <time>2020-07-08T11:51:38Z</time>
      </trkpt>
      <trkpt lat="47.80931" lon="-3.53489">
        <ele>41.2</ele>
        <time>2020-07-08T11:51:39Z</time>
      </trkpt>
      <trkpt lat="47.80931" lon="-3.53489">
        <ele>41.2</ele>
        <time>2020-07-08T11:51:40Z</time>
      </trkpt>
      <trkpt lat="47.80931" lon="-3.53489">
        <ele>41.2</ele>
        <time>2020-07-08T11:51:41Z</time>
      </trkpt>
      <trkpt lat="47.80931" lon="-3.53489">
        <ele>41.2</ele>
        <time>2020-07-08T11:51:42Z</time>
      </trkpt>
      <trkpt lat="47.80931" lon="-3.53489">
        <ele>41.2</ele>
        <time>2020-07-08T11:51:43Z</time>
      </trkpt>
      <trkpt lat="47.80931" lon="-3.53489">
        <ele>41.2</ele>
        <time>2020-07-08T11:51:44Z</time>
      </trkpt>
      <trkpt lat="47.80931" lon="-3.53489">
        <ele>41.2</ele>
        <time>2020-07-08T11:51:45Z</time>
      </trkpt>
      <trkpt lat="47.80931" lon="-3.53489">
        <ele>41.2</ele>
        <time>2020-07-08T11:51:46Z</time>
      </trkpt>
      <trkpt lat="47.80931" lon="-3.53489">
        <ele>41.2</ele>
        <time>2020-07-08T11:51:47Z</time>
      </trkpt>
      <trkpt lat="47.80931" lon="-3.53489">
        <ele>41.2</ele>
        <time>2020-07-08T11:51:48Z</time>
      </trkpt>
      <trkpt lat="47.80931" lon="-3.53489">
        <ele>41.2</ele>
        <time>2020-07-08T11:51:49Z</time>
      </trkpt>
      <trkpt lat="47.80931" lon="-3.53489">
        <ele>41.2</ele>
        <time>2020-07-08T11:51:50Z</time>
      </trkpt>
      <trkpt lat="47.80924" lon="-3.53488">
        <ele>41.3</ele>
        <time>2020-07-08T11:51:51Z</time>
      </trkpt>
      <trkpt lat="47.80923" lon="-3.53487">
        <ele>41.32</ele>
        <time>2020-07-08T11:51:52Z</time>
      </trkpt>
      <trkpt lat="47.80922" lon="-3.53488">
        <ele>41.38</ele>
        <time>2020-07-08T11:51:53Z</time>
      </trkpt>
      <trkpt lat="47.80921" lon="-3.53489">
        <ele>41.45</ele>
        <time>2020-07-08T11:51:54Z</time>
      </trkpt>
      <trkpt lat="47.8092" lon="-3.53491">
        <ele>41.54</ele>
        <time>2020-07-08T11:51:55Z</time>
      </trkpt>
      <trkpt lat="47.80918" lon="-3.53492">
        <ele>41.64</ele>
        <time>2020-07-08T11:51:56Z</time>
      </trkpt>
      <trkpt lat="47.80917" lon="-3.53493">
        <ele>41.71</ele>
        <time>2020-07-08T11:51:57Z</time>
      </trkpt>
      <trkpt lat="47.80916" lon="-3.53494">
        <ele>41.77</ele>
        <time>2020-07-08T11:51:58Z</time>
      </trkpt>
      <trkpt lat="47.80914" lon="-3.53495">
        <ele>41.82</ele>
        <time>2020-07-08T11:51:59Z</time>
      </trkpt>
      <trkpt lat="47.80912" lon="-3.53497">
        <ele>41.88</ele>
        <time>2020-07-08T11:52:00Z</time>
      </trkpt>
      <trkpt lat="47.8091" lon="-3.535">
        <ele>41.97</ele>
        <time>2020-07-08T11:52:01Z</time>
      </trkpt>
      <trkpt lat="47.80909" lon="-3.53502">
        <ele>41.99</ele>
        <time>2020-07-08T11:52:02Z</time>
      </trkpt>
      <trkpt lat="47.80906" lon="-3.53504">
        <ele>42</ele>
        <time>2020-07-08T11:52:03Z</time>
      </trkpt>
      <trkpt lat="47.80904" lon="-3.53506">
        <ele>42</ele>
        <time>2020-07-08T11:52:04Z</time>
      </trkpt>
      <trkpt lat="47.80903" lon="-3.53509">
        <ele>42</ele>
        <time>2020-07-08T11:52:05Z</time>
      </trkpt>
      <trkpt lat="47.80901" lon="-3.53511">
        <ele>42</ele>
        <time>2020-07-08T11:52:06Z</time>
      </trkpt>
      <trkpt lat="47.809" lon="-3.53514">
        <ele>42</ele>
        <time>2020-07-08T11:52:07Z</time>
      </trkpt>
      <trkpt lat="47.80898" lon="-3.53516">
        <ele>42</ele>
        <time>2020-07-08T11:52:08Z</time>
      </trkpt>
      <trkpt lat="47.80897" lon="-3.53519">
        <ele>42</ele>
        <time>2020-07-08T11:52:09Z</time>
      </trkpt>
      <trkpt lat="47.80894" lon="-3.53521">
        <ele>42</ele>
        <time>2020-07-08T11:52:10Z</time>
      </trkpt>
      <trkpt lat="47.80893" lon="-3.53523">
        <ele>42</ele>
        <time>2020-07-08T11:52:11Z</time>
      </trkpt>
      <trkpt lat="47.80891" lon="-3.53525">
        <ele>42</ele>
        <time>2020-07-08T11:52:12Z</time>
      </trkpt>
      <trkpt lat="47.80891" lon="-3.53529">
        <ele>42.02</ele>
        <time>2020-07-08T11:52:13Z</time>
      </trkpt>
      <trkpt lat="47.8089" lon="-3.53531">
        <ele>42.08</ele>
        <time>2020-07-08T11:52:14Z</time>
      </trkpt>
      <trkpt lat="47.80889" lon="-3.53533">
        <ele>42.16</ele>
        <time>2020-07-08T11:52:15Z</time>
      </trkpt>
      <trkpt lat="47.80887" lon="-3.53535">
        <ele>42.31</ele>
        <time>2020-07-08T11:52:16Z</time>
      </trkpt>
      <trkpt lat="47.80886" lon="-3.53538">
        <ele>42.49</ele>
        <time>2020-07-08T11:52:17Z</time>
      </trkpt>
      <trkpt lat="47.80884" lon="-3.5354">
        <ele>42.68</ele>
        <time>2020-07-08T11:52:18Z</time>
      </trkpt>
      <trkpt lat="47.80882" lon="-3.53543">
        <ele>42.93</ele>
        <time>2020-07-08T11:52:19Z</time>
      </trkpt>
      <trkpt lat="47.80881" lon="-3.53546">
        <ele>43.14</ele>
        <time>2020-07-08T11:52:20Z</time>
      </trkpt>
      <trkpt lat="47.8088" lon="-3.53549">
        <ele>43.32</ele>
        <time>2020-07-08T11:52:21Z</time>
      </trkpt>
      <trkpt lat="47.80879" lon="-3.53552">
        <ele>43.51</ele>
        <time>2020-07-08T11:52:22Z</time>
      </trkpt>
      <trkpt lat="47.80877" lon="-3.53556">
        <ele>43.79</ele>
        <time>2020-07-08T11:52:23Z</time>
      </trkpt>
      <trkpt lat="47.80874" lon="-3.53559">
        <ele>44.1</ele>
        <time>2020-07-08T11:52:24Z</time>
      </trkpt>
      <trkpt lat="47.80873" lon="-3.53562">
        <ele>44.36</ele>
        <time>2020-07-08T11:52:25Z</time>
      </trkpt>
      <trkpt lat="47.80872" lon="-3.53565">
        <ele>44.6</ele>
        <time>2020-07-08T11:52:26Z</time>
      </trkpt>
      <trkpt lat="47.8087" lon="-3.53568">
        <ele>44.86</ele>
        <time>2020-07-08T11:52:27Z</time>
      </trkpt>
      <trkpt lat="47.80868" lon="-3.53571">
        <ele>45.08</ele>
        <time>2020-07-08T11:52:28Z</time>
      </trkpt>
      <trkpt lat="47.80867" lon="-3.53573">
        <ele>45.26</ele>
        <time>2020-07-08T11:52:29Z</time>
      </trkpt>
      <trkpt lat="47.80866" lon="-3.53575">
        <ele>45.41</ele>
        <time>2020-07-08T11:52:30Z</time>
      </trkpt>
      <trkpt lat="47.80865" lon="-3.53577">
        <ele>45.52</ele>
        <time>2020-07-08T11:52:31Z</time>
      </trkpt>
      <trkpt lat="47.80864" lon="-3.53577">
        <ele>45.63</ele>
        <time>2020-07-08T11:52:32Z</time>
      </trkpt>
      <trkpt lat="47.80862" lon="-3.53578">
        <ele>45.73</ele>
        <time>2020-07-08T11:52:33Z</time>
      </trkpt>
      <trkpt lat="47.8086" lon="-3.53577">
        <ele>45.74</ele>
        <time>2020-07-08T11:52:34Z</time>
      </trkpt>
      <trkpt lat="47.80859" lon="-3.53575">
        <ele>45.67</ele>
        <time>2020-07-08T11:52:35Z</time>
      </trkpt>
      <trkpt lat="47.80858" lon="-3.53573">
        <ele>45.59</ele>
        <time>2020-07-08T11:52:36Z</time>
      </trkpt>
      <trkpt lat="47.80857" lon="-3.53571">
        <ele>45.5</ele>
        <time>2020-07-08T11:52:37Z</time>
      </trkpt>
      <trkpt lat="47.80855" lon="-3.53569">
        <ele>45.41</ele>
        <time>2020-07-08T11:52:38Z</time>
      </trkpt>
      <trkpt lat="47.80854" lon="-3.53566">
        <ele>45.32</ele>
        <time>2020-07-08T11:52:39Z</time>
      </trkpt>
      <trkpt lat="47.80852" lon="-3.53563">
        <ele>45.22</ele>
        <time>2020-07-08T11:52:40Z</time>
      </trkpt>
      <trkpt lat="47.8085" lon="-3.53559">
        <ele>45.12</ele>
        <time>2020-07-08T11:52:41Z</time>
      </trkpt>
      <trkpt lat="47.80848" lon="-3.53556">
        <ele>45.04</ele>
        <time>2020-07-08T11:52:42Z</time>
      </trkpt>
      <trkpt lat="47.80847" lon="-3.53553">
        <ele>44.98</ele>
        <time>2020-07-08T11:52:43Z</time>
      </trkpt>
      <trkpt lat="47.80845" lon="-3.5355">
        <ele>44.93</ele>
        <time>2020-07-08T11:52:44Z</time>
      </trkpt>
      <trkpt lat="47.80843" lon="-3.53547">
        <ele>44.9</ele>
        <time>2020-07-08T11:52:45Z</time>
      </trkpt>
      <trkpt lat="47.80841" lon="-3.53543">
        <ele>44.88</ele>
        <time>2020-07-08T11:52:46Z</time>
      </trkpt>
      <trkpt lat="47.8084" lon="-3.5354">
        <ele>44.87</ele>
        <time>2020-07-08T11:52:47Z</time>
      </trkpt>
      <trkpt lat="47.80838" lon="-3.53537">
        <ele>44.89</ele>
        <time>2020-07-08T11:52:48Z</time>
      </trkpt>
      <trkpt lat="47.80836" lon="-3.53534">
        <ele>44.91</ele>
        <time>2020-07-08T11:52:49Z</time>
      </trkpt>
      <trkpt lat="47.80834" lon="-3.53531">
        <ele>44.97</ele>
        <time>2020-07-08T11:52:50Z</time>
      </trkpt>
      <trkpt lat="47.80831" lon="-3.53526">
        <ele>44.91</ele>
        <time>2020-07-08T11:52:51Z</time>
      </trkpt>
      <trkpt lat="47.80828" lon="-3.53522">
        <ele>44.76</ele>
        <time>2020-07-08T11:52:52Z</time>
      </trkpt>
      <trkpt lat="47.80825" lon="-3.53517">
        <ele>44.62</ele>
        <time>2020-07-08T11:52:53Z</time>
      </trkpt>
      <trkpt lat="47.80822" lon="-3.53513">
        <ele>44.53</ele>
        <time>2020-07-08T11:52:54Z</time>
      </trkpt>
      <trkpt lat="47.80818" lon="-3.53509">
        <ele>44.52</ele>
        <time>2020-07-08T11:52:55Z</time>
      </trkpt>
      <trkpt lat="47.80815" lon="-3.53505">
        <ele>44.58</ele>
        <time>2020-07-08T11:52:56Z</time>
      </trkpt>
      <trkpt lat="47.80812" lon="-3.535">
        <ele>44.7</ele>
        <time>2020-07-08T11:52:57Z</time>
      </trkpt>
      <trkpt lat="47.80811" lon="-3.53496">
        <ele>44.78</ele>
        <time>2020-07-08T11:52:58Z</time>
      </trkpt>
      <trkpt lat="47.80809" lon="-3.53492">
        <ele>44.85</ele>
        <time>2020-07-08T11:52:59Z</time>
      </trkpt>
      <trkpt lat="47.80806" lon="-3.53487">
        <ele>44.94</ele>
        <time>2020-07-08T11:53:00Z</time>
      </trkpt>
      <trkpt lat="47.80804" lon="-3.53482">
        <ele>44.94</ele>
        <time>2020-07-08T11:53:01Z</time>
      </trkpt>
      <trkpt lat="47.80802" lon="-3.53478">
        <ele>44.88</ele>
        <time>2020-07-08T11:53:02Z</time>
      </trkpt>
      <trkpt lat="47.80799" lon="-3.53472">
        <ele>44.79</ele>
        <time>2020-07-08T11:53:03Z</time>
      </trkpt>
      <trkpt lat="47.80795" lon="-3.53467">
        <ele>44.73</ele>
        <time>2020-07-08T11:53:04Z</time>
      </trkpt>
      <trkpt lat="47.80792" lon="-3.53462">
        <ele>44.71</ele>
        <time>2020-07-08T11:53:05Z</time>
      </trkpt>
      <trkpt lat="47.8079" lon="-3.53458">
        <ele>44.73</ele>
        <time>2020-07-08T11:53:06Z</time>
      </trkpt>
      <trkpt lat="47.80787" lon="-3.53453">
        <ele>44.77</ele>
        <time>2020-07-08T11:53:07Z</time>
      </trkpt>
      <trkpt lat="47.80785" lon="-3.53449">
        <ele>44.85</ele>
        <time>2020-07-08T11:53:08Z</time>
      </trkpt>
      <trkpt lat="47.80783" lon="-3.53444">
        <ele>44.96</ele>
        <time>2020-07-08T11:53:09Z</time>
      </trkpt>
      <trkpt lat="47.80781" lon="-3.5344">
        <ele>44.99</ele>
        <time>2020-07-08T11:53:10Z</time>
      </trkpt>
      <trkpt lat="47.80778" lon="-3.53436">
        <ele>45</ele>
        <time>2020-07-08T11:53:11Z</time>
      </trkpt>
      <trkpt lat="47.80776" lon="-3.53432">
        <ele>44.95</ele>
        <time>2020-07-08T11:53:12Z</time>
      </trkpt>
      <trkpt lat="47.80773" lon="-3.53429">
        <ele>44.87</ele>
        <time>2020-07-08T11:53:13Z</time>
      </trkpt>
      <trkpt lat="47.8077" lon="-3.53425">
        <ele>44.77</ele>
        <time>2020-07-08T11:53:14Z</time>
      </trkpt>
      <trkpt lat="47.80767" lon="-3.5342">
        <ele>44.66</ele>
        <time>2020-07-08T11:53:15Z</time>
      </trkpt>
      <trkpt lat="47.80765" lon="-3.53416">
        <ele>44.58</ele>
        <time>2020-07-08T11:53:16Z</time>
      </trkpt>
      <trkpt lat="47.80762" lon="-3.53412">
        <ele>44.6</ele>
        <time>2020-07-08T11:53:17Z</time>
      </trkpt>
      <trkpt lat="47.8076" lon="-3.53408">
        <ele>44.65</ele>
        <time>2020-07-08T11:53:18Z</time>
      </trkpt>
      <trkpt lat="47.80756" lon="-3.53403">
        <ele>44.7</ele>
        <time>2020-07-08T11:53:19Z</time>
      </trkpt>
      <trkpt lat="47.80754" lon="-3.53399">
        <ele>44.75</ele>
        <time>2020-07-08T11:53:20Z</time>
      </trkpt>
      <trkpt lat="47.8075" lon="-3.53394">
        <ele>44.81</ele>
        <time>2020-07-08T11:53:21Z</time>
      </trkpt>
      <trkpt lat="47.80747" lon="-3.53389">
        <ele>44.88</ele>
        <time>2020-07-08T11:53:22Z</time>
      </trkpt>
      <trkpt lat="47.80745" lon="-3.53385">
        <ele>44.91</ele>
        <time>2020-07-08T11:53:23Z</time>
      </trkpt>
      <trkpt lat="47.80743" lon="-3.53382">
        <ele>44.92</ele>
        <time>2020-07-08T11:53:24Z</time>
      </trkpt>
      <trkpt lat="47.8074" lon="-3.53378">
        <ele>44.9</ele>
        <time>2020-07-08T11:53:25Z</time>
      </trkpt>
      <trkpt lat="47.80736" lon="-3.53374">
        <ele>44.81</ele>
        <time>2020-07-08T11:53:26Z</time>
      </trkpt>
      <trkpt lat="47.80733" lon="-3.5337">
        <ele>44.71</ele>
        <time>2020-07-08T11:53:27Z</time>
      </trkpt>
      <trkpt lat="47.80729" lon="-3.53364">
        <ele>44.54</ele>
        <time>2020-07-08T11:53:28Z</time>
      </trkpt>
      <trkpt lat="47.80726" lon="-3.53358">
        <ele>44.43</ele>
        <time>2020-07-08T11:53:29Z</time>
      </trkpt>
      <trkpt lat="47.80724" lon="-3.53352">
        <ele>44.42</ele>
        <time>2020-07-08T11:53:30Z</time>
      </trkpt>
      <trkpt lat="47.80722" lon="-3.53347">
        <ele>44.49</ele>
        <time>2020-07-08T11:53:31Z</time>
      </trkpt>
      <trkpt lat="47.80721" lon="-3.53341">
        <ele>44.62</ele>
        <time>2020-07-08T11:53:32Z</time>
      </trkpt>
      <trkpt lat="47.80721" lon="-3.53336">
        <ele>44.79</ele>
        <time>2020-07-08T11:53:33Z</time>
      </trkpt>
      <trkpt lat="47.80721" lon="-3.53329">
        <ele>44.86</ele>
        <time>2020-07-08T11:53:34Z</time>
      </trkpt>
      <trkpt lat="47.8072" lon="-3.53323">
        <ele>44.86</ele>
        <time>2020-07-08T11:53:35Z</time>
      </trkpt>
      <trkpt lat="47.8072" lon="-3.53317">
        <ele>44.87</ele>
        <time>2020-07-08T11:53:36Z</time>
      </trkpt>
      <trkpt lat="47.80721" lon="-3.53311">
        <ele>44.91</ele>
        <time>2020-07-08T11:53:37Z</time>
      </trkpt>
      <trkpt lat="47.80722" lon="-3.53306">
        <ele>44.96</ele>
        <time>2020-07-08T11:53:38Z</time>
      </trkpt>
      <trkpt lat="47.80723" lon="-3.53301">
        <ele>45.05</ele>
        <time>2020-07-08T11:53:39Z</time>
      </trkpt>
      <trkpt lat="47.80726" lon="-3.53296">
        <ele>45.16</ele>
        <time>2020-07-08T11:53:40Z</time>
      </trkpt>
      <trkpt lat="47.80728" lon="-3.53291">
        <ele>45.27</ele>
        <time>2020-07-08T11:53:41Z</time>
      </trkpt>
      <trkpt lat="47.80731" lon="-3.53287">
        <ele>45.39</ele>
        <time>2020-07-08T11:53:42Z</time>
      </trkpt>
      <trkpt lat="47.80734" lon="-3.53283">
        <ele>45.48</ele>
        <time>2020-07-08T11:53:43Z</time>
      </trkpt>
      <trkpt lat="47.80738" lon="-3.53279">
        <ele>45.55</ele>
        <time>2020-07-08T11:53:44Z</time>
      </trkpt>
      <trkpt lat="47.80742" lon="-3.53276">
        <ele>45.64</ele>
        <time>2020-07-08T11:53:45Z</time>
      </trkpt>
      <trkpt lat="47.80746" lon="-3.53273">
        <ele>45.77</ele>
        <time>2020-07-08T11:53:46Z</time>
      </trkpt>
      <trkpt lat="47.8075" lon="-3.5327">
        <ele>45.92</ele>
        <time>2020-07-08T11:53:47Z</time>
      </trkpt>
      <trkpt lat="47.80753" lon="-3.53267">
        <ele>46.06</ele>
        <time>2020-07-08T11:53:48Z</time>
      </trkpt>
      <trkpt lat="47.80757" lon="-3.53264">
        <ele>46.19</ele>
        <time>2020-07-08T11:53:49Z</time>
      </trkpt>
      <trkpt lat="47.8076" lon="-3.5326">
        <ele>46.31</ele>
        <time>2020-07-08T11:53:50Z</time>
      </trkpt>
      <trkpt lat="47.80763" lon="-3.53257">
        <ele>46.43</ele>
        <time>2020-07-08T11:53:51Z</time>
      </trkpt>
      <trkpt lat="47.80767" lon="-3.53251">
        <ele>46.55</ele>
        <time>2020-07-08T11:53:52Z</time>
      </trkpt>
      <trkpt lat="47.8077" lon="-3.53246">
        <ele>46.56</ele>
        <time>2020-07-08T11:53:53Z</time>
      </trkpt>
      <trkpt lat="47.80773" lon="-3.53241">
        <ele>46.53</ele>
        <time>2020-07-08T11:53:54Z</time>
      </trkpt>
      <trkpt lat="47.80777" lon="-3.53237">
        <ele>46.49</ele>
        <time>2020-07-08T11:53:55Z</time>
      </trkpt>
      <trkpt lat="47.8078" lon="-3.53232">
        <ele>46.39</ele>
        <time>2020-07-08T11:53:56Z</time>
      </trkpt>
      <trkpt lat="47.80783" lon="-3.53228">
        <ele>46.25</ele>
        <time>2020-07-08T11:53:57Z</time>
      </trkpt>
      <trkpt lat="47.80786" lon="-3.53223">
        <ele>46.11</ele>
        <time>2020-07-08T11:53:58Z</time>
      </trkpt>
      <trkpt lat="47.80789" lon="-3.53218">
        <ele>45.93</ele>
        <time>2020-07-08T11:53:59Z</time>
      </trkpt>
      <trkpt lat="47.80792" lon="-3.53214">
        <ele>45.77</ele>
        <time>2020-07-08T11:54:00Z</time>
      </trkpt>
      <trkpt lat="47.80795" lon="-3.53208">
        <ele>45.58</ele>
        <time>2020-07-08T11:54:01Z</time>
      </trkpt>
      <trkpt lat="47.80799" lon="-3.53202">
        <ele>45.37</ele>
        <time>2020-07-08T11:54:02Z</time>
      </trkpt>
      <trkpt lat="47.80803" lon="-3.53195">
        <ele>45.13</ele>
        <time>2020-07-08T11:54:03Z</time>
      </trkpt>
      <trkpt lat="47.80807" lon="-3.53189">
        <ele>44.78</ele>
        <time>2020-07-08T11:54:04Z</time>
      </trkpt>
      <trkpt lat="47.80811" lon="-3.53184">
        <ele>44.39</ele>
        <time>2020-07-08T11:54:05Z</time>
      </trkpt>
      <trkpt lat="47.80815" lon="-3.53178">
        <ele>44.01</ele>
        <time>2020-07-08T11:54:06Z</time>
      </trkpt>
      <trkpt lat="47.80819" lon="-3.53172">
        <ele>43.56</ele>
        <time>2020-07-08T11:54:07Z</time>
      </trkpt>
      <trkpt lat="47.80822" lon="-3.53166">
        <ele>43.12</ele>
        <time>2020-07-08T11:54:08Z</time>
      </trkpt>
      <trkpt lat="47.80826" lon="-3.53158">
        <ele>42.61</ele>
        <time>2020-07-08T11:54:09Z</time>
      </trkpt>
      <trkpt lat="47.80829" lon="-3.53151">
        <ele>42.11</ele>
        <time>2020-07-08T11:54:10Z</time>
      </trkpt>
      <trkpt lat="47.80832" lon="-3.53145">
        <ele>41.62</ele>
        <time>2020-07-08T11:54:11Z</time>
      </trkpt>
      <trkpt lat="47.80835" lon="-3.53137">
        <ele>41.06</ele>
        <time>2020-07-08T11:54:12Z</time>
      </trkpt>
      <trkpt lat="47.80838" lon="-3.53129">
        <ele>40.46</ele>
        <time>2020-07-08T11:54:13Z</time>
      </trkpt>
      <trkpt lat="47.8084" lon="-3.53122">
        <ele>39.9</ele>
        <time>2020-07-08T11:54:14Z</time>
      </trkpt>
      <trkpt lat="47.80843" lon="-3.53114">
        <ele>39.39</ele>
        <time>2020-07-08T11:54:15Z</time>
      </trkpt>
      <trkpt lat="47.80846" lon="-3.53106">
        <ele>38.94</ele>
        <time>2020-07-08T11:54:16Z</time>
      </trkpt>
      <trkpt lat="47.80849" lon="-3.53098">
        <ele>38.47</ele>
        <time>2020-07-08T11:54:17Z</time>
      </trkpt>
      <trkpt lat="47.80852" lon="-3.53089">
        <ele>37.91</ele>
        <time>2020-07-08T11:54:18Z</time>
      </trkpt>
      <trkpt lat="47.80856" lon="-3.5308">
        <ele>37.32</ele>
        <time>2020-07-08T11:54:19Z</time>
      </trkpt>
      <trkpt lat="47.80859" lon="-3.53071">
        <ele>36.84</ele>
        <time>2020-07-08T11:54:20Z</time>
      </trkpt>
      <trkpt lat="47.80862" lon="-3.53063">
        <ele>36.42</ele>
        <time>2020-07-08T11:54:21Z</time>
      </trkpt>
      <trkpt lat="47.80865" lon="-3.53053">
        <ele>36.13</ele>
        <time>2020-07-08T11:54:22Z</time>
      </trkpt>
      <trkpt lat="47.80869" lon="-3.53045">
        <ele>36.04</ele>
        <time>2020-07-08T11:54:23Z</time>
      </trkpt>
      <trkpt lat="47.80871" lon="-3.53037">
        <ele>36.01</ele>
        <time>2020-07-08T11:54:24Z</time>
      </trkpt>
      <trkpt lat="47.80874" lon="-3.5303">
        <ele>36</ele>
        <time>2020-07-08T11:54:25Z</time>
      </trkpt>
      <trkpt lat="47.80878" lon="-3.53023">
        <ele>36</ele>
        <time>2020-07-08T11:54:26Z</time>
      </trkpt>
      <trkpt lat="47.80882" lon="-3.53014">
        <ele>36</ele>
        <time>2020-07-08T11:54:27Z</time>
      </trkpt>
      <trkpt lat="47.80886" lon="-3.53007">
        <ele>36</ele>
        <time>2020-07-08T11:54:28Z</time>
      </trkpt>
      <trkpt lat="47.8089" lon="-3.53">
        <ele>35.98</ele>
        <time>2020-07-08T11:54:29Z</time>
      </trkpt>
      <trkpt lat="47.80894" lon="-3.52994">
        <ele>35.86</ele>
        <time>2020-07-08T11:54:30Z</time>
      </trkpt>
      <trkpt lat="47.80899" lon="-3.52988">
        <ele>35.7</ele>
        <time>2020-07-08T11:54:31Z</time>
      </trkpt>
      <trkpt lat="47.80904" lon="-3.52984">
        <ele>35.52</ele>
        <time>2020-07-08T11:54:32Z</time>
      </trkpt>
      <trkpt lat="47.80909" lon="-3.52979">
        <ele>35.35</ele>
        <time>2020-07-08T11:54:33Z</time>
      </trkpt>
      <trkpt lat="47.80914" lon="-3.52974">
        <ele>35.17</ele>
        <time>2020-07-08T11:54:34Z</time>
      </trkpt>
      <trkpt lat="47.80919" lon="-3.52969">
        <ele>35.12</ele>
        <time>2020-07-08T11:54:35Z</time>
      </trkpt>
      <trkpt lat="47.80924" lon="-3.52964">
        <ele>35.18</ele>
        <time>2020-07-08T11:54:36Z</time>
      </trkpt>
      <trkpt lat="47.8093" lon="-3.5296">
        <ele>35.21</ele>
        <time>2020-07-08T11:54:37Z</time>
      </trkpt>
      <trkpt lat="47.80935" lon="-3.52955">
        <ele>35.21</ele>
        <time>2020-07-08T11:54:38Z</time>
      </trkpt>
      <trkpt lat="47.8094" lon="-3.52951">
        <ele>35.14</ele>
        <time>2020-07-08T11:54:39Z</time>
      </trkpt>
      <trkpt lat="47.80945" lon="-3.52947">
        <ele>35.03</ele>
        <time>2020-07-08T11:54:40Z</time>
      </trkpt>
      <trkpt lat="47.8095" lon="-3.52942">
        <ele>34.85</ele>
        <time>2020-07-08T11:54:41Z</time>
      </trkpt>
      <trkpt lat="47.80956" lon="-3.52938">
        <ele>34.59</ele>
        <time>2020-07-08T11:54:42Z</time>
      </trkpt>
      <trkpt lat="47.80962" lon="-3.52934">
        <ele>34.27</ele>
        <time>2020-07-08T11:54:43Z</time>
      </trkpt>
      <trkpt lat="47.80967" lon="-3.52928">
        <ele>33.89</ele>
        <time>2020-07-08T11:54:44Z</time>
      </trkpt>
      <trkpt lat="47.80971" lon="-3.52922">
        <ele>33.45</ele>
        <time>2020-07-08T11:54:45Z</time>
      </trkpt>
      <trkpt lat="47.80975" lon="-3.52915">
        <ele>32.87</ele>
        <time>2020-07-08T11:54:46Z</time>
      </trkpt>
      <trkpt lat="47.8098" lon="-3.52907">
        <ele>32.15</ele>
        <time>2020-07-08T11:54:47Z</time>
      </trkpt>
      <trkpt lat="47.80984" lon="-3.529">
        <ele>31.44</ele>
        <time>2020-07-08T11:54:48Z</time>
      </trkpt>
      <trkpt lat="47.80988" lon="-3.52892">
        <ele>30.76</ele>
        <time>2020-07-08T11:54:49Z</time>
      </trkpt>
      <trkpt lat="47.8099" lon="-3.52884">
        <ele>30.12</ele>
        <time>2020-07-08T11:54:50Z</time>
      </trkpt>
      <trkpt lat="47.80992" lon="-3.52875">
        <ele>29.55</ele>
        <time>2020-07-08T11:54:51Z</time>
      </trkpt>
      <trkpt lat="47.80993" lon="-3.52866">
        <ele>29.13</ele>
        <time>2020-07-08T11:54:52Z</time>
      </trkpt>
      <trkpt lat="47.80992" lon="-3.52857">
        <ele>28.79</ele>
        <time>2020-07-08T11:54:53Z</time>
      </trkpt>
      <trkpt lat="47.80991" lon="-3.52848">
        <ele>28.48</ele>
        <time>2020-07-08T11:54:54Z</time>
      </trkpt>
      <trkpt lat="47.8099" lon="-3.52839">
        <ele>28.18</ele>
        <time>2020-07-08T11:54:55Z</time>
      </trkpt>
      <trkpt lat="47.80989" lon="-3.52829">
        <ele>28</ele>
        <time>2020-07-08T11:54:56Z</time>
      </trkpt>
      <trkpt lat="47.80988" lon="-3.5282">
        <ele>27.88</ele>
        <time>2020-07-08T11:54:57Z</time>
      </trkpt>
      <trkpt lat="47.80987" lon="-3.52812">
        <ele>27.86</ele>
        <time>2020-07-08T11:54:58Z</time>
      </trkpt>
      <trkpt lat="47.80985" lon="-3.52802">
        <ele>28.06</ele>
        <time>2020-07-08T11:54:59Z</time>
      </trkpt>
      <trkpt lat="47.80983" lon="-3.52791">
        <ele>28.35</ele>
        <time>2020-07-08T11:55:00Z</time>
      </trkpt>
      <trkpt lat="47.8098" lon="-3.5278">
        <ele>28.76</ele>
        <time>2020-07-08T11:55:01Z</time>
      </trkpt>
      <trkpt lat="47.80979" lon="-3.52769">
        <ele>28.31</ele>
        <time>2020-07-08T11:55:02Z</time>
      </trkpt>
      <trkpt lat="47.80978" lon="-3.52756">
        <ele>27.22</ele>
        <time>2020-07-08T11:55:03Z</time>
      </trkpt>
      <trkpt lat="47.80976" lon="-3.52743">
        <ele>25.89</ele>
        <time>2020-07-08T11:55:04Z</time>
      </trkpt>
      <trkpt lat="47.80974" lon="-3.5273">
        <ele>24.38</ele>
        <time>2020-07-08T11:55:05Z</time>
      </trkpt>
      <trkpt lat="47.80971" lon="-3.52716">
        <ele>22.94</ele>
        <time>2020-07-08T11:55:06Z</time>
      </trkpt>
      <trkpt lat="47.80968" lon="-3.52703">
        <ele>21.57</ele>
        <time>2020-07-08T11:55:07Z</time>
      </trkpt>
      <trkpt lat="47.80965" lon="-3.52691">
        <ele>20.41</ele>
        <time>2020-07-08T11:55:08Z</time>
      </trkpt>
      <trkpt lat="47.8096" lon="-3.52679">
        <ele>19.71</ele>
        <time>2020-07-08T11:55:09Z</time>
      </trkpt>
      <trkpt lat="47.80956" lon="-3.52666">
        <ele>19.02</ele>
        <time>2020-07-08T11:55:10Z</time>
      </trkpt>
      <trkpt lat="47.8095" lon="-3.52652">
        <ele>18.25</ele>
        <time>2020-07-08T11:55:11Z</time>
      </trkpt>
      <trkpt lat="47.80943" lon="-3.52639">
        <ele>17.41</ele>
        <time>2020-07-08T11:55:12Z</time>
      </trkpt>
      <trkpt lat="47.80935" lon="-3.5263">
        <ele>16.68</ele>
        <time>2020-07-08T11:55:13Z</time>
      </trkpt>
      <trkpt lat="47.80928" lon="-3.52621">
        <ele>15.97</ele>
        <time>2020-07-08T11:55:14Z</time>
      </trkpt>
      <trkpt lat="47.80921" lon="-3.52614">
        <ele>15.42</ele>
        <time>2020-07-08T11:55:15Z</time>
      </trkpt>
      <trkpt lat="47.80915" lon="-3.52608">
        <ele>15.05</ele>
        <time>2020-07-08T11:55:16Z</time>
      </trkpt>
      <trkpt lat="47.80908" lon="-3.526">
        <ele>14.66</ele>
        <time>2020-07-08T11:55:17Z</time>
      </trkpt>
      <trkpt lat="47.80902" lon="-3.52594">
        <ele>14.24</ele>
        <time>2020-07-08T11:55:18Z</time>
      </trkpt>
      <trkpt lat="47.80896" lon="-3.5259">
        <ele>13.86</ele>
        <time>2020-07-08T11:55:19Z</time>
      </trkpt>
      <trkpt lat="47.80889" lon="-3.5259">
        <ele>13.57</ele>
        <time>2020-07-08T11:55:20Z</time>
      </trkpt>
      <trkpt lat="47.80882" lon="-3.5259">
        <ele>13.48</ele>
        <time>2020-07-08T11:55:21Z</time>
      </trkpt>
      <trkpt lat="47.80874" lon="-3.52592">
        <ele>13.47</ele>
        <time>2020-07-08T11:55:22Z</time>
      </trkpt>
      <trkpt lat="47.80867" lon="-3.52595">
        <ele>13.5</ele>
        <time>2020-07-08T11:55:23Z</time>
      </trkpt>
      <trkpt lat="47.80861" lon="-3.52597">
        <ele>13.5</ele>
        <time>2020-07-08T11:55:24Z</time>
      </trkpt>
      <trkpt lat="47.80856" lon="-3.526">
        <ele>13.39</ele>
        <time>2020-07-08T11:55:25Z</time>
      </trkpt>
      <trkpt lat="47.8085" lon="-3.52603">
        <ele>13.25</ele>
        <time>2020-07-08T11:55:26Z</time>
      </trkpt>
      <trkpt lat="47.80844" lon="-3.52606">
        <ele>13.11</ele>
        <time>2020-07-08T11:55:27Z</time>
      </trkpt>
      <trkpt lat="47.80838" lon="-3.52607">
        <ele>12.97</ele>
        <time>2020-07-08T11:55:28Z</time>
      </trkpt>
      <trkpt lat="47.80831" lon="-3.52609">
        <ele>12.79</ele>
        <time>2020-07-08T11:55:29Z</time>
      </trkpt>
      <trkpt lat="47.80826" lon="-3.52611">
        <ele>12.52</ele>
        <time>2020-07-08T11:55:30Z</time>
      </trkpt>
      <trkpt lat="47.8082" lon="-3.52612">
        <ele>12.21</ele>
        <time>2020-07-08T11:55:31Z</time>
      </trkpt>
      <trkpt lat="47.80814" lon="-3.52613">
        <ele>11.95</ele>
        <time>2020-07-08T11:55:32Z</time>
      </trkpt>
      <trkpt lat="47.80808" lon="-3.52615">
        <ele>11.71</ele>
        <time>2020-07-08T11:55:33Z</time>
      </trkpt>
      <trkpt lat="47.80802" lon="-3.52618">
        <ele>11.47</ele>
        <time>2020-07-08T11:55:34Z</time>
      </trkpt>
      <trkpt lat="47.80795" lon="-3.52622">
        <ele>11.27</ele>
        <time>2020-07-08T11:55:35Z</time>
      </trkpt>
      <trkpt lat="47.8079" lon="-3.52624">
        <ele>11.08</ele>
        <time>2020-07-08T11:55:36Z</time>
      </trkpt>
      <trkpt lat="47.80784" lon="-3.52626">
        <ele>10.85</ele>
        <time>2020-07-08T11:55:37Z</time>
      </trkpt>
      <trkpt lat="47.80779" lon="-3.52629">
        <ele>10.7</ele>
        <time>2020-07-08T11:55:38Z</time>
      </trkpt>
      <trkpt lat="47.80772" lon="-3.52632">
        <ele>10.04</ele>
        <time>2020-07-08T11:55:39Z</time>
      </trkpt>
      <trkpt lat="47.80765" lon="-3.52635">
        <ele>9.19</ele>
        <time>2020-07-08T11:55:40Z</time>
      </trkpt>
      <trkpt lat="47.80759" lon="-3.52639">
        <ele>8.28</ele>
        <time>2020-07-08T11:55:41Z</time>
      </trkpt>
      <trkpt lat="47.80753" lon="-3.52641">
        <ele>7.46</ele>
        <time>2020-07-08T11:55:42Z</time>
      </trkpt>
      <trkpt lat="47.80748" lon="-3.52643">
        <ele>6.88</ele>
        <time>2020-07-08T11:55:43Z</time>
      </trkpt>
      <trkpt lat="47.80743" lon="-3.52645">
        <ele>6.75</ele>
        <time>2020-07-08T11:55:44Z</time>
      </trkpt>
      <trkpt lat="47.80738" lon="-3.52645">
        <ele>6.66</ele>
        <time>2020-07-08T11:55:45Z</time>
      </trkpt>
      <trkpt lat="47.80732" lon="-3.52647">
        <ele>6.6</ele>
        <time>2020-07-08T11:55:46Z</time>
      </trkpt>
      <trkpt lat="47.80727" lon="-3.52648">
        <ele>6.51</ele>
        <time>2020-07-08T11:55:47Z</time>
      </trkpt>
      <trkpt lat="47.80723" lon="-3.5265">
        <ele>6.55</ele>
        <time>2020-07-08T11:55:48Z</time>
      </trkpt>
      <trkpt lat="47.80718" lon="-3.52652">
        <ele>6.67</ele>
        <time>2020-07-08T11:55:49Z</time>
      </trkpt>
      <trkpt lat="47.80714" lon="-3.52653">
        <ele>6.84</ele>
        <time>2020-07-08T11:55:50Z</time>
      </trkpt>
      <trkpt lat="47.8071" lon="-3.52654">
        <ele>7</ele>
        <time>2020-07-08T11:55:51Z</time>
      </trkpt>
      <trkpt lat="47.80705" lon="-3.52655">
        <ele>7.14</ele>
        <time>2020-07-08T11:55:52Z</time>
      </trkpt>
      <trkpt lat="47.80701" lon="-3.52657">
        <ele>7.39</ele>
        <time>2020-07-08T11:55:53Z</time>
      </trkpt>
      <trkpt lat="47.80695" lon="-3.5266">
        <ele>8.01</ele>
        <time>2020-07-08T11:55:54Z</time>
      </trkpt>
      <trkpt lat="47.80689" lon="-3.52663">
        <ele>8.09</ele>
        <time>2020-07-08T11:55:55Z</time>
      </trkpt>
      <trkpt lat="47.80684" lon="-3.52665">
        <ele>7.75</ele>
        <time>2020-07-08T11:55:56Z</time>
      </trkpt>
      <trkpt lat="47.80678" lon="-3.52666">
        <ele>7.21</ele>
        <time>2020-07-08T11:55:57Z</time>
      </trkpt>
      <trkpt lat="47.80672" lon="-3.52668">
        <ele>6.51</ele>
        <time>2020-07-08T11:55:58Z</time>
      </trkpt>
      <trkpt lat="47.80667" lon="-3.52671">
        <ele>6.02</ele>
        <time>2020-07-08T11:55:59Z</time>
      </trkpt>
      <trkpt lat="47.80661" lon="-3.52674">
        <ele>5.59</ele>
        <time>2020-07-08T11:56:00Z</time>
      </trkpt>
      <trkpt lat="47.80655" lon="-3.52676">
        <ele>5.14</ele>
        <time>2020-07-08T11:56:01Z</time>
      </trkpt>
      <trkpt lat="47.80649" lon="-3.52678">
        <ele>4.71</ele>
        <time>2020-07-08T11:56:02Z</time>
      </trkpt>
      <trkpt lat="47.80644" lon="-3.5268">
        <ele>4.35</ele>
        <time>2020-07-08T11:56:03Z</time>
      </trkpt>
      <trkpt lat="47.8064" lon="-3.52682">
        <ele>4.02</ele>
        <time>2020-07-08T11:56:04Z</time>
      </trkpt>
      <trkpt lat="47.80634" lon="-3.52684">
        <ele>3.9</ele>
        <time>2020-07-08T11:56:05Z</time>
      </trkpt>
      <trkpt lat="47.80628" lon="-3.52686">
        <ele>3.92</ele>
        <time>2020-07-08T11:56:06Z</time>
      </trkpt>
      <trkpt lat="47.80623" lon="-3.52689">
        <ele>3.94</ele>
        <time>2020-07-08T11:56:07Z</time>
      </trkpt>
      <trkpt lat="47.80618" lon="-3.52691">
        <ele>3.99</ele>
        <time>2020-07-08T11:56:08Z</time>
      </trkpt>
      <trkpt lat="47.80612" lon="-3.52694">
        <ele>3.96</ele>
        <time>2020-07-08T11:56:09Z</time>
      </trkpt>
      <trkpt lat="47.80607" lon="-3.52696">
        <ele>4.05</ele>
        <time>2020-07-08T11:56:10Z</time>
      </trkpt>
      <trkpt lat="47.80601" lon="-3.52699">
        <ele>4.3</ele>
        <time>2020-07-08T11:56:11Z</time>
      </trkpt>
      <trkpt lat="47.80596" lon="-3.52702">
        <ele>4.55</ele>
        <time>2020-07-08T11:56:12Z</time>
      </trkpt>
      <trkpt lat="47.8059" lon="-3.52705">
        <ele>4.76</ele>
        <time>2020-07-08T11:56:13Z</time>
      </trkpt>
      <trkpt lat="47.80586" lon="-3.52708">
        <ele>4.95</ele>
        <time>2020-07-08T11:56:14Z</time>
      </trkpt>
      <trkpt lat="47.80581" lon="-3.5271">
        <ele>5.09</ele>
        <time>2020-07-08T11:56:15Z</time>
      </trkpt>
      <trkpt lat="47.80576" lon="-3.52712">
        <ele>5.08</ele>
        <time>2020-07-08T11:56:16Z</time>
      </trkpt>
      <trkpt lat="47.80572" lon="-3.52716">
        <ele>5.18</ele>
        <time>2020-07-08T11:56:17Z</time>
      </trkpt>
      <trkpt lat="47.80566" lon="-3.52718">
        <ele>5.21</ele>
        <time>2020-07-08T11:56:18Z</time>
      </trkpt>
      <trkpt lat="47.80562" lon="-3.5272">
        <ele>5.14</ele>
        <time>2020-07-08T11:56:19Z</time>
      </trkpt>
      <trkpt lat="47.80556" lon="-3.52722">
        <ele>5.05</ele>
        <time>2020-07-08T11:56:20Z</time>
      </trkpt>
      <trkpt lat="47.80551" lon="-3.52725">
        <ele>4.93</ele>
        <time>2020-07-08T11:56:21Z</time>
      </trkpt>
      <trkpt lat="47.80544" lon="-3.52727">
        <ele>4.7</ele>
        <time>2020-07-08T11:56:22Z</time>
      </trkpt>
      <trkpt lat="47.80537" lon="-3.52728">
        <ele>4.29</ele>
        <time>2020-07-08T11:56:23Z</time>
      </trkpt>
      <trkpt lat="47.8053" lon="-3.52729">
        <ele>3.86</ele>
        <time>2020-07-08T11:56:24Z</time>
      </trkpt>
      <trkpt lat="47.80524" lon="-3.5273">
        <ele>3.55</ele>
        <time>2020-07-08T11:56:25Z</time>
      </trkpt>
      <trkpt lat="47.80517" lon="-3.52731">
        <ele>3.34</ele>
        <time>2020-07-08T11:56:26Z</time>
      </trkpt>
      <trkpt lat="47.8051" lon="-3.52731">
        <ele>3.1</ele>
        <time>2020-07-08T11:56:27Z</time>
      </trkpt>
      <trkpt lat="47.80503" lon="-3.52731">
        <ele>2.82</ele>
        <time>2020-07-08T11:56:28Z</time>
      </trkpt>
      <trkpt lat="47.80496" lon="-3.5273">
        <ele>2.54</ele>
        <time>2020-07-08T11:56:29Z</time>
      </trkpt>
      <trkpt lat="47.8049" lon="-3.5273">
        <ele>2.28</ele>
        <time>2020-07-08T11:56:30Z</time>
      </trkpt>
      <trkpt lat="47.80484" lon="-3.52729">
        <ele>2.04</ele>
        <time>2020-07-08T11:56:31Z</time>
      </trkpt>
      <trkpt lat="47.80478" lon="-3.52729">
        <ele>1.82</ele>
        <time>2020-07-08T11:56:32Z</time>
      </trkpt>
      <trkpt lat="47.80472" lon="-3.5273">
        <ele>1.63</ele>
        <time>2020-07-08T11:56:33Z</time>
      </trkpt>
      <trkpt lat="47.80467" lon="-3.5273">
        <ele>1.66</ele>
        <time>2020-07-08T11:56:34Z</time>
      </trkpt>
      <trkpt lat="47.80462" lon="-3.52729">
        <ele>1.75</ele>
        <time>2020-07-08T11:56:35Z</time>
      </trkpt>
      <trkpt lat="47.80457" lon="-3.52729">
        <ele>1.86</ele>
        <time>2020-07-08T11:56:36Z</time>
      </trkpt>
      <trkpt lat="47.80452" lon="-3.52728">
        <ele>1.96</ele>
        <time>2020-07-08T11:56:37Z</time>
      </trkpt>
      <trkpt lat="47.80448" lon="-3.52728">
        <ele>2.05</ele>
        <time>2020-07-08T11:56:38Z</time>
      </trkpt>
      <trkpt lat="47.80443" lon="-3.52727">
        <ele>2.13</ele>
        <time>2020-07-08T11:56:39Z</time>
      </trkpt>
      <trkpt lat="47.80439" lon="-3.52727">
        <ele>2.14</ele>
        <time>2020-07-08T11:56:40Z</time>
      </trkpt>
      <trkpt lat="47.80435" lon="-3.52727">
        <ele>2.12</ele>
        <time>2020-07-08T11:56:41Z</time>
      </trkpt>
      <trkpt lat="47.8043" lon="-3.52727">
        <ele>2.09</ele>
        <time>2020-07-08T11:56:42Z</time>
      </trkpt>
      <trkpt lat="47.80426" lon="-3.52727">
        <ele>2.07</ele>
        <time>2020-07-08T11:56:43Z</time>
      </trkpt>
      <trkpt lat="47.80421" lon="-3.52727">
        <ele>2.04</ele>
        <time>2020-07-08T11:56:44Z</time>
      </trkpt>
      <trkpt lat="47.80417" lon="-3.52726">
        <ele>2.02</ele>
        <time>2020-07-08T11:56:45Z</time>
      </trkpt>
      <trkpt lat="47.80412" lon="-3.52726">
        <ele>2.2</ele>
        <time>2020-07-08T11:56:46Z</time>
      </trkpt>
      <trkpt lat="47.80408" lon="-3.52724">
        <ele>2.47</ele>
        <time>2020-07-08T11:56:47Z</time>
      </trkpt>
      <trkpt lat="47.80404" lon="-3.52723">
        <ele>2.79</ele>
        <time>2020-07-08T11:56:48Z</time>
      </trkpt>
      <trkpt lat="47.80399" lon="-3.52721">
        <ele>3.08</ele>
        <time>2020-07-08T11:56:49Z</time>
      </trkpt>
      <trkpt lat="47.80395" lon="-3.5272">
        <ele>3.34</ele>
        <time>2020-07-08T11:56:50Z</time>
      </trkpt>
      <trkpt lat="47.80391" lon="-3.5272">
        <ele>3.62</ele>
        <time>2020-07-08T11:56:51Z</time>
      </trkpt>
      <trkpt lat="47.80388" lon="-3.52719">
        <ele>3.85</ele>
        <time>2020-07-08T11:56:52Z</time>
      </trkpt>
      <trkpt lat="47.80384" lon="-3.52718">
        <ele>4.01</ele>
        <time>2020-07-08T11:56:53Z</time>
      </trkpt>
      <trkpt lat="47.80381" lon="-3.52717">
        <ele>4.15</ele>
        <time>2020-07-08T11:56:54Z</time>
      </trkpt>
      <trkpt lat="47.80378" lon="-3.52716">
        <ele>4.3</ele>
        <time>2020-07-08T11:56:55Z</time>
      </trkpt>
      <trkpt lat="47.80374" lon="-3.52715">
        <ele>4.47</ele>
        <time>2020-07-08T11:56:56Z</time>
      </trkpt>
      <trkpt lat="47.80372" lon="-3.52714">
        <ele>4.63</ele>
        <time>2020-07-08T11:56:57Z</time>
      </trkpt>
      <trkpt lat="47.80369" lon="-3.52713">
        <ele>4.78</ele>
        <time>2020-07-08T11:56:58Z</time>
      </trkpt>
      <trkpt lat="47.80368" lon="-3.52711">
        <ele>4.92</ele>
        <time>2020-07-08T11:56:59Z</time>
      </trkpt>
      <trkpt lat="47.80365" lon="-3.52709">
        <ele>5.09</ele>
        <time>2020-07-08T11:57:00Z</time>
      </trkpt>
      <trkpt lat="47.80363" lon="-3.52708">
        <ele>5.29</ele>
        <time>2020-07-08T11:57:01Z</time>
      </trkpt>
      <trkpt lat="47.80361" lon="-3.52706">
        <ele>5.52</ele>
        <time>2020-07-08T11:57:02Z</time>
      </trkpt>
      <trkpt lat="47.80359" lon="-3.52705">
        <ele>5.84</ele>
        <time>2020-07-08T11:57:03Z</time>
      </trkpt>
      <trkpt lat="47.80356" lon="-3.52703">
        <ele>6.2</ele>
        <time>2020-07-08T11:57:04Z</time>
      </trkpt>
      <trkpt lat="47.80353" lon="-3.52703">
        <ele>6.59</ele>
        <time>2020-07-08T11:57:05Z</time>
      </trkpt>
      <trkpt lat="47.8035" lon="-3.52703">
        <ele>6.99</ele>
        <time>2020-07-08T11:57:06Z</time>
      </trkpt>
      <trkpt lat="47.80348" lon="-3.52702">
        <ele>7.34</ele>
        <time>2020-07-08T11:57:07Z</time>
      </trkpt>
      <trkpt lat="47.80345" lon="-3.52702">
        <ele>7.7</ele>
        <time>2020-07-08T11:57:08Z</time>
      </trkpt>
      <trkpt lat="47.80343" lon="-3.52702">
        <ele>8.02</ele>
        <time>2020-07-08T11:57:09Z</time>
      </trkpt>
      <trkpt lat="47.80341" lon="-3.52702">
        <ele>8.32</ele>
        <time>2020-07-08T11:57:10Z</time>
      </trkpt>
      <trkpt lat="47.80338" lon="-3.52704">
        <ele>8.59</ele>
        <time>2020-07-08T11:57:11Z</time>
      </trkpt>
      <trkpt lat="47.80335" lon="-3.52706">
        <ele>8.87</ele>
        <time>2020-07-08T11:57:12Z</time>
      </trkpt>
      <trkpt lat="47.80332" lon="-3.52707">
        <ele>9.33</ele>
        <time>2020-07-08T11:57:13Z</time>
      </trkpt>
      <trkpt lat="47.80329" lon="-3.52708">
        <ele>9.91</ele>
        <time>2020-07-08T11:57:14Z</time>
      </trkpt>
      <trkpt lat="47.80326" lon="-3.52709">
        <ele>10.64</ele>
        <time>2020-07-08T11:57:15Z</time>
      </trkpt>
      <trkpt lat="47.80323" lon="-3.5271">
        <ele>11.42</ele>
        <time>2020-07-08T11:57:16Z</time>
      </trkpt>
      <trkpt lat="47.80319" lon="-3.52712">
        <ele>12.12</ele>
        <time>2020-07-08T11:57:17Z</time>
      </trkpt>
      <trkpt lat="47.80317" lon="-3.52713">
        <ele>12.74</ele>
        <time>2020-07-08T11:57:18Z</time>
      </trkpt>
      <trkpt lat="47.80314" lon="-3.52715">
        <ele>13.28</ele>
        <time>2020-07-08T11:57:19Z</time>
      </trkpt>
      <trkpt lat="47.80312" lon="-3.52716">
        <ele>13.82</ele>
        <time>2020-07-08T11:57:20Z</time>
      </trkpt>
      <trkpt lat="47.80309" lon="-3.52718">
        <ele>14.4</ele>
        <time>2020-07-08T11:57:21Z</time>
      </trkpt>
      <trkpt lat="47.80306" lon="-3.5272">
        <ele>14.96</ele>
        <time>2020-07-08T11:57:22Z</time>
      </trkpt>
      <trkpt lat="47.80303" lon="-3.52721">
        <ele>15.3</ele>
        <time>2020-07-08T11:57:23Z</time>
      </trkpt>
      <trkpt lat="47.803" lon="-3.52724">
        <ele>15.4</ele>
        <time>2020-07-08T11:57:24Z</time>
      </trkpt>
      <trkpt lat="47.80297" lon="-3.52726">
        <ele>15.48</ele>
        <time>2020-07-08T11:57:25Z</time>
      </trkpt>
      <trkpt lat="47.80294" lon="-3.52729">
        <ele>15.51</ele>
        <time>2020-07-08T11:57:26Z</time>
      </trkpt>
      <trkpt lat="47.80292" lon="-3.52731">
        <ele>15.56</ele>
        <time>2020-07-08T11:57:27Z</time>
      </trkpt>
      <trkpt lat="47.8029" lon="-3.52732">
        <ele>15.6</ele>
        <time>2020-07-08T11:57:28Z</time>
      </trkpt>
      <trkpt lat="47.80288" lon="-3.52735">
        <ele>15.56</ele>
        <time>2020-07-08T11:57:29Z</time>
      </trkpt>
      <trkpt lat="47.80285" lon="-3.52737">
        <ele>15.62</ele>
        <time>2020-07-08T11:57:30Z</time>
      </trkpt>
      <trkpt lat="47.80282" lon="-3.5274">
        <ele>15.73</ele>
        <time>2020-07-08T11:57:31Z</time>
      </trkpt>
      <trkpt lat="47.8028" lon="-3.52741">
        <ele>15.89</ele>
        <time>2020-07-08T11:57:32Z</time>
      </trkpt>
      <trkpt lat="47.80277" lon="-3.52743">
        <ele>16.01</ele>
        <time>2020-07-08T11:57:33Z</time>
      </trkpt>
      <trkpt lat="47.80276" lon="-3.52744">
        <ele>16.01</ele>
        <time>2020-07-08T11:57:34Z</time>
      </trkpt>
      <trkpt lat="47.80274" lon="-3.52746">
        <ele>15.9</ele>
        <time>2020-07-08T11:57:35Z</time>
      </trkpt>
      <trkpt lat="47.80272" lon="-3.52748">
        <ele>15.78</ele>
        <time>2020-07-08T11:57:36Z</time>
      </trkpt>
      <trkpt lat="47.80269" lon="-3.5275">
        <ele>15.66</ele>
        <time>2020-07-08T11:57:37Z</time>
      </trkpt>
      <trkpt lat="47.80266" lon="-3.52753">
        <ele>15.6</ele>
        <time>2020-07-08T11:57:38Z</time>
      </trkpt>
      <trkpt lat="47.80261" lon="-3.52755">
        <ele>15.61</ele>
        <time>2020-07-08T11:57:39Z</time>
      </trkpt>
      <trkpt lat="47.80258" lon="-3.52757">
        <ele>15.63</ele>
        <time>2020-07-08T11:57:40Z</time>
      </trkpt>
      <trkpt lat="47.80257" lon="-3.52758">
        <ele>15.63</ele>
        <time>2020-07-08T11:57:41Z</time>
      </trkpt>
      <trkpt lat="47.80254" lon="-3.5276">
        <ele>15.61</ele>
        <time>2020-07-08T11:57:42Z</time>
      </trkpt>
      <trkpt lat="47.80253" lon="-3.5276">
        <ele>15.65</ele>
        <time>2020-07-08T11:57:43Z</time>
      </trkpt>
      <trkpt lat="47.80252" lon="-3.5276">
        <ele>15.77</ele>
        <time>2020-07-08T11:57:44Z</time>
      </trkpt>
      <trkpt lat="47.80251" lon="-3.5276">
        <ele>15.85</ele>
        <time>2020-07-08T11:57:45Z</time>
      </trkpt>
      <trkpt lat="47.8025" lon="-3.5276">
        <ele>15.96</ele>
        <time>2020-07-08T11:57:46Z</time>
      </trkpt>
      <trkpt lat="47.80249" lon="-3.5276">
        <ele>16.02</ele>
        <time>2020-07-08T11:57:47Z</time>
      </trkpt>
      <trkpt lat="47.80249" lon="-3.5276">
        <ele>16.04</ele>
        <time>2020-07-08T11:57:48Z</time>
      </trkpt>
      <trkpt lat="47.80249" lon="-3.5276">
        <ele>16.04</ele>
        <time>2020-07-08T11:57:49Z</time>
      </trkpt>
      <trkpt lat="47.80249" lon="-3.5276">
        <ele>16.05</ele>
        <time>2020-07-08T11:57:50Z</time>
      </trkpt>
      <trkpt lat="47.80249" lon="-3.5276">
        <ele>16.05</ele>
        <time>2020-07-08T11:57:51Z</time>
      </trkpt>
      <trkpt lat="47.80249" lon="-3.5276">
        <ele>16.05</ele>
        <time>2020-07-08T11:57:52Z</time>
      </trkpt>
      <trkpt lat="47.80249" lon="-3.5276">
        <ele>16.05</ele>
        <time>2020-07-08T11:57:53Z</time>
      </trkpt>
      <trkpt lat="47.80249" lon="-3.5276">
        <ele>16.05</ele>
        <time>2020-07-08T11:57:54Z</time>
      </trkpt>
      <trkpt lat="47.80249" lon="-3.5276">
        <ele>16.05</ele>
        <time>2020-07-08T11:57:55Z</time>
      </trkpt>
      <trkpt lat="47.80249" lon="-3.5276">
        <ele>16.05</ele>
        <time>2020-07-08T11:57:56Z</time>
      </trkpt>
      <trkpt lat="47.80249" lon="-3.5276">
        <ele>16.05</ele>
        <time>2020-07-08T11:57:57Z</time>
      </trkpt>
      <trkpt lat="47.80249" lon="-3.5276">
        <ele>16.05</ele>
        <time>2020-07-08T11:57:58Z</time>
      </trkpt>
      <trkpt lat="47.80249" lon="-3.5276">
        <ele>16.05</ele>
        <time>2020-07-08T11:57:59Z</time>
      </trkpt>
      <trkpt lat="47.80249" lon="-3.5276">
        <ele>16.05</ele>
        <time>2020-07-08T11:58:00Z</time>
      </trkpt>
      <trkpt lat="47.80249" lon="-3.5276">
        <ele>16.05</ele>
        <time>2020-07-08T11:58:01Z</time>
      </trkpt>
      <trkpt lat="47.80249" lon="-3.5276">
        <ele>16.05</ele>
        <time>2020-07-08T11:58:02Z</time>
      </trkpt>
      <trkpt lat="47.80249" lon="-3.5276">
        <ele>16.05</ele>
        <time>2020-07-08T11:58:03Z</time>
      </trkpt>
      <trkpt lat="47.80249" lon="-3.5276">
        <ele>16.05</ele>
        <time>2020-07-08T11:58:04Z</time>
      </trkpt>
      <trkpt lat="47.80249" lon="-3.5276">
        <ele>16.05</ele>
        <time>2020-07-08T11:58:05Z</time>
      </trkpt>
      <trkpt lat="47.80249" lon="-3.5276">
        <ele>16.05</ele>
        <time>2020-07-08T11:58:06Z</time>
      </trkpt>
      <trkpt lat="47.80249" lon="-3.5276">
        <ele>16.05</ele>
        <time>2020-07-08T11:58:07Z</time>
      </trkpt>
      <trkpt lat="47.80249" lon="-3.5276">
        <ele>16.05</ele>
        <time>2020-07-08T11:58:08Z</time>
      </trkpt>
      <trkpt lat="47.80249" lon="-3.5276">
        <ele>16.05</ele>
        <time>2020-07-08T11:58:09Z</time>
      </trkpt>
      <trkpt lat="47.80249" lon="-3.5276">
        <ele>16.05</ele>
        <time>2020-07-08T11:58:10Z</time>
      </trkpt>
      <trkpt lat="47.80249" lon="-3.5276">
        <ele>16.05</ele>
        <time>2020-07-08T11:58:11Z</time>
      </trkpt>
      <trkpt lat="47.80249" lon="-3.5276">
        <ele>16.05</ele>
        <time>2020-07-08T11:58:12Z</time>
      </trkpt>
      <trkpt lat="47.80249" lon="-3.5276">
        <ele>16.05</ele>
        <time>2020-07-08T11:58:13Z</time>
      </trkpt>
      <trkpt lat="47.80249" lon="-3.5276">
        <ele>16.05</ele>
        <time>2020-07-08T11:58:14Z</time>
      </trkpt>
      <trkpt lat="47.80249" lon="-3.5276">
        <ele>16.05</ele>
        <time>2020-07-08T11:58:15Z</time>
      </trkpt>
      <trkpt lat="47.80249" lon="-3.5276">
        <ele>16.05</ele>
        <time>2020-07-08T11:58:16Z</time>
      </trkpt>
      <trkpt lat="47.80249" lon="-3.5276">
        <ele>16.05</ele>
        <time>2020-07-08T11:58:17Z</time>
      </trkpt>
      <trkpt lat="47.80249" lon="-3.5276">
        <ele>16.05</ele>
        <time>2020-07-08T11:58:18Z</time>
      </trkpt>
      <trkpt lat="47.80249" lon="-3.5276">
        <ele>16.05</ele>
        <time>2020-07-08T11:58:19Z</time>
      </trkpt>
      <trkpt lat="47.80249" lon="-3.5276">
        <ele>16.05</ele>
        <time>2020-07-08T11:58:20Z</time>
      </trkpt>
      <trkpt lat="47.80249" lon="-3.5276">
        <ele>16.05</ele>
        <time>2020-07-08T11:58:21Z</time>
      </trkpt>
      <trkpt lat="47.80249" lon="-3.5276">
        <ele>16.05</ele>
        <time>2020-07-08T11:58:22Z</time>
      </trkpt>
      <trkpt lat="47.80249" lon="-3.5276">
        <ele>16.05</ele>
        <time>2020-07-08T11:58:23Z</time>
      </trkpt>
      <trkpt lat="47.80249" lon="-3.5276">
        <ele>16.05</ele>
        <time>2020-07-08T11:58:24Z</time>
      </trkpt>
      <trkpt lat="47.80249" lon="-3.5276">
        <ele>16.05</ele>
        <time>2020-07-08T11:58:25Z</time>
      </trkpt>
      <trkpt lat="47.80249" lon="-3.5276">
        <ele>16.05</ele>
        <time>2020-07-08T11:58:26Z</time>
      </trkpt>
      <trkpt lat="47.80249" lon="-3.5276">
        <ele>16.05</ele>
        <time>2020-07-08T11:58:27Z</time>
      </trkpt>
      <trkpt lat="47.80249" lon="-3.5276">
        <ele>16.05</ele>
        <time>2020-07-08T11:58:28Z</time>
      </trkpt>
      <trkpt lat="47.80249" lon="-3.5276">
        <ele>16.05</ele>
        <time>2020-07-08T11:58:29Z</time>
      </trkpt>
      <trkpt lat="47.80249" lon="-3.5276">
        <ele>16.05</ele>
        <time>2020-07-08T11:58:30Z</time>
      </trkpt>
      <trkpt lat="47.80249" lon="-3.5276">
        <ele>16.05</ele>
        <time>2020-07-08T11:58:31Z</time>
      </trkpt>
      <trkpt lat="47.80249" lon="-3.5276">
        <ele>16.05</ele>
        <time>2020-07-08T11:58:32Z</time>
      </trkpt>
      <trkpt lat="47.80249" lon="-3.5276">
        <ele>16.05</ele>
        <time>2020-07-08T11:58:33Z</time>
      </trkpt>
      <trkpt lat="47.80249" lon="-3.5276">
        <ele>16.05</ele>
        <time>2020-07-08T11:58:34Z</time>
      </trkpt>
      <trkpt lat="47.80249" lon="-3.5276">
        <ele>16.05</ele>
        <time>2020-07-08T11:58:35Z</time>
      </trkpt>
      <trkpt lat="47.80249" lon="-3.5276">
        <ele>16.05</ele>
        <time>2020-07-08T11:58:36Z</time>
      </trkpt>
      <trkpt lat="47.80249" lon="-3.5276">
        <ele>16.05</ele>
        <time>2020-07-08T11:58:37Z</time>
      </trkpt>
      <trkpt lat="47.80249" lon="-3.5276">
        <ele>16.05</ele>
        <time>2020-07-08T11:58:38Z</time>
      </trkpt>
      <trkpt lat="47.80249" lon="-3.5276">
        <ele>16.05</ele>
        <time>2020-07-08T11:58:39Z</time>
      </trkpt>
      <trkpt lat="47.80249" lon="-3.5276">
        <ele>16.05</ele>
        <time>2020-07-08T11:58:40Z</time>
      </trkpt>
      <trkpt lat="47.80255" lon="-3.52749">
        <ele>16.55</ele>
        <time>2020-07-08T11:58:41Z</time>
      </trkpt>
      <trkpt lat="47.80257" lon="-3.52747">
        <ele>16.76</ele>
        <time>2020-07-08T11:58:42Z</time>
      </trkpt>
      <trkpt lat="47.80258" lon="-3.52747">
        <ele>16.82</ele>
        <time>2020-07-08T11:58:43Z</time>
      </trkpt>
      <trkpt lat="47.80261" lon="-3.52746">
        <ele>16.82</ele>
        <time>2020-07-08T11:58:44Z</time>
      </trkpt>
      <trkpt lat="47.80262" lon="-3.52745">
        <ele>16.85</ele>
        <time>2020-07-08T11:58:45Z</time>
      </trkpt>
      <trkpt lat="47.80264" lon="-3.52744">
        <ele>16.89</ele>
        <time>2020-07-08T11:58:46Z</time>
      </trkpt>
      <trkpt lat="47.80264" lon="-3.52742">
        <ele>16.99</ele>
        <time>2020-07-08T11:58:47Z</time>
      </trkpt>
      <trkpt lat="47.80266" lon="-3.52741">
        <ele>17.13</ele>
        <time>2020-07-08T11:58:48Z</time>
      </trkpt>
      <trkpt lat="47.80267" lon="-3.5274">
        <ele>17.2</ele>
        <time>2020-07-08T11:58:49Z</time>
      </trkpt>
      <trkpt lat="47.80267" lon="-3.5274">
        <ele>17.24</ele>
        <time>2020-07-08T11:58:50Z</time>
      </trkpt>
      <trkpt lat="47.80268" lon="-3.52739">
        <ele>17.28</ele>
        <time>2020-07-08T11:58:51Z</time>
      </trkpt>
      <trkpt lat="47.80269" lon="-3.52739">
        <ele>17.27</ele>
        <time>2020-07-08T11:58:52Z</time>
      </trkpt>
      <trkpt lat="47.80269" lon="-3.52738">
        <ele>17.32</ele>
        <time>2020-07-08T11:58:53Z</time>
      </trkpt>
      <trkpt lat="47.80269" lon="-3.52738">
        <ele>17.34</ele>
        <time>2020-07-08T11:58:54Z</time>
      </trkpt>
      <trkpt lat="47.80269" lon="-3.52738">
        <ele>17.35</ele>
        <time>2020-07-08T11:58:55Z</time>
      </trkpt>
      <trkpt lat="47.80269" lon="-3.52738">
        <ele>17.35</ele>
        <time>2020-07-08T11:58:56Z</time>
      </trkpt>
      <trkpt lat="47.80269" lon="-3.52738">
        <ele>17.35</ele>
        <time>2020-07-08T11:58:57Z</time>
      </trkpt>
      <trkpt lat="47.80269" lon="-3.52738">
        <ele>17.35</ele>
        <time>2020-07-08T11:58:58Z</time>
      </trkpt>
      <trkpt lat="47.80269" lon="-3.52738">
        <ele>17.35</ele>
        <time>2020-07-08T11:58:59Z</time>
      </trkpt>
      <trkpt lat="47.80269" lon="-3.52738">
        <ele>17.35</ele>
        <time>2020-07-08T11:59:00Z</time>
      </trkpt>
      <trkpt lat="47.80269" lon="-3.52738">
        <ele>17.35</ele>
        <time>2020-07-08T11:59:01Z</time>
      </trkpt>
      <trkpt lat="47.80269" lon="-3.52738">
        <ele>17.35</ele>
        <time>2020-07-08T11:59:02Z</time>
      </trkpt>
      <trkpt lat="47.80269" lon="-3.52738">
        <ele>17.35</ele>
        <time>2020-07-08T11:59:03Z</time>
      </trkpt>
      <trkpt lat="47.80269" lon="-3.52738">
        <ele>17.35</ele>
        <time>2020-07-08T11:59:04Z</time>
      </trkpt>
      <trkpt lat="47.80269" lon="-3.52738">
        <ele>17.35</ele>
        <time>2020-07-08T11:59:05Z</time>
      </trkpt>
      <trkpt lat="47.80269" lon="-3.52738">
        <ele>17.35</ele>
        <time>2020-07-08T11:59:06Z</time>
      </trkpt>
      <trkpt lat="47.80269" lon="-3.52738">
        <ele>17.35</ele>
        <time>2020-07-08T11:59:07Z</time>
      </trkpt>
      <trkpt lat="47.80269" lon="-3.52738">
        <ele>17.35</ele>
        <time>2020-07-08T11:59:08Z</time>
      </trkpt>
      <trkpt lat="47.80272" lon="-3.52725">
        <ele>18.5</ele>
        <time>2020-07-08T11:59:09Z</time>
      </trkpt>
      <trkpt lat="47.80273" lon="-3.52725">
        <ele>18.88</ele>
        <time>2020-07-08T11:59:10Z</time>
      </trkpt>
      <trkpt lat="47.80273" lon="-3.52723">
        <ele>19.15</ele>
        <time>2020-07-08T11:59:11Z</time>
      </trkpt>
      <trkpt lat="47.80274" lon="-3.52719">
        <ele>19.53</ele>
        <time>2020-07-08T11:59:12Z</time>
      </trkpt>
      <trkpt lat="47.80275" lon="-3.52717">
        <ele>19.88</ele>
        <time>2020-07-08T11:59:13Z</time>
      </trkpt>
      <trkpt lat="47.80276" lon="-3.52713">
        <ele>20.27</ele>
        <time>2020-07-08T11:59:14Z</time>
      </trkpt>
      <trkpt lat="47.80276" lon="-3.5271">
        <ele>20.64</ele>
        <time>2020-07-08T11:59:15Z</time>
      </trkpt>
      <trkpt lat="47.80277" lon="-3.52708">
        <ele>20.95</ele>
        <time>2020-07-08T11:59:16Z</time>
      </trkpt>
      <trkpt lat="47.80278" lon="-3.52705">
        <ele>21.26</ele>
        <time>2020-07-08T11:59:17Z</time>
      </trkpt>
      <trkpt lat="47.80279" lon="-3.52702">
        <ele>21.56</ele>
        <time>2020-07-08T11:59:18Z</time>
      </trkpt>
      <trkpt lat="47.8028" lon="-3.52699">
        <ele>21.82</ele>
        <time>2020-07-08T11:59:19Z</time>
      </trkpt>
      <trkpt lat="47.80281" lon="-3.52698">
        <ele>21.93</ele>
        <time>2020-07-08T11:59:20Z</time>
      </trkpt>
      <trkpt lat="47.80281" lon="-3.52696">
        <ele>22.1</ele>
        <time>2020-07-08T11:59:21Z</time>
      </trkpt>
      <trkpt lat="47.80282" lon="-3.52695">
        <ele>22.24</ele>
        <time>2020-07-08T11:59:22Z</time>
      </trkpt>
      <trkpt lat="47.80282" lon="-3.52693">
        <ele>22.29</ele>
        <time>2020-07-08T11:59:23Z</time>
      </trkpt>
      <trkpt lat="47.80283" lon="-3.52691">
        <ele>22.29</ele>
        <time>2020-07-08T11:59:24Z</time>
      </trkpt>
      <trkpt lat="47.80284" lon="-3.52688">
        <ele>22.23</ele>
        <time>2020-07-08T11:59:25Z</time>
      </trkpt>
      <trkpt lat="47.80286" lon="-3.52686">
        <ele>22</ele>
        <time>2020-07-08T11:59:26Z</time>
      </trkpt>
      <trkpt lat="47.80287" lon="-3.52684">
        <ele>21.83</ele>
        <time>2020-07-08T11:59:27Z</time>
      </trkpt>
      <trkpt lat="47.80288" lon="-3.52682">
        <ele>21.76</ele>
        <time>2020-07-08T11:59:28Z</time>
      </trkpt>
      <trkpt lat="47.80288" lon="-3.5268">
        <ele>21.81</ele>
        <time>2020-07-08T11:59:29Z</time>
      </trkpt>
      <trkpt lat="47.80289" lon="-3.52678">
        <ele>21.79</ele>
        <time>2020-07-08T11:59:30Z</time>
      </trkpt>
      <trkpt lat="47.8029" lon="-3.52676">
        <ele>21.82</ele>
        <time>2020-07-08T11:59:31Z</time>
      </trkpt>
      <trkpt lat="47.8029" lon="-3.52674">
        <ele>21.86</ele>
        <time>2020-07-08T11:59:32Z</time>
      </trkpt>
      <trkpt lat="47.8029" lon="-3.52673">
        <ele>21.93</ele>
        <time>2020-07-08T11:59:33Z</time>
      </trkpt>
      <trkpt lat="47.8029" lon="-3.52671">
        <ele>21.98</ele>
        <time>2020-07-08T11:59:34Z</time>
      </trkpt>
      <trkpt lat="47.80291" lon="-3.52669">
        <ele>22</ele>
        <time>2020-07-08T11:59:35Z</time>
      </trkpt>
      <trkpt lat="47.80291" lon="-3.52667">
        <ele>22.1</ele>
        <time>2020-07-08T11:59:36Z</time>
      </trkpt>
      <trkpt lat="47.80291" lon="-3.52664">
        <ele>22.19</ele>
        <time>2020-07-08T11:59:37Z</time>
      </trkpt>
      <trkpt lat="47.80291" lon="-3.52659">
        <ele>22.33</ele>
        <time>2020-07-08T11:59:38Z</time>
      </trkpt>
      <trkpt lat="47.80291" lon="-3.52656">
        <ele>22.42</ele>
        <time>2020-07-08T11:59:39Z</time>
      </trkpt>
      <trkpt lat="47.80292" lon="-3.52653">
        <ele>22.45</ele>
        <time>2020-07-08T11:59:40Z</time>
      </trkpt>
      <trkpt lat="47.80293" lon="-3.5265">
        <ele>22.46</ele>
        <time>2020-07-08T11:59:41Z</time>
      </trkpt>
      <trkpt lat="47.80293" lon="-3.52647">
        <ele>22.53</ele>
        <time>2020-07-08T11:59:42Z</time>
      </trkpt>
      <trkpt lat="47.80293" lon="-3.52644">
        <ele>22.6</ele>
        <time>2020-07-08T11:59:43Z</time>
      </trkpt>
      <trkpt lat="47.80293" lon="-3.52641">
        <ele>22.66</ele>
        <time>2020-07-08T11:59:44Z</time>
      </trkpt>
      <trkpt lat="47.80294" lon="-3.52639">
        <ele>22.68</ele>
        <time>2020-07-08T11:59:45Z</time>
      </trkpt>
      <trkpt lat="47.80294" lon="-3.52636">
        <ele>22.81</ele>
        <time>2020-07-08T11:59:46Z</time>
      </trkpt>
      <trkpt lat="47.80294" lon="-3.52633">
        <ele>22.95</ele>
        <time>2020-07-08T11:59:47Z</time>
      </trkpt>
      <trkpt lat="47.80295" lon="-3.52631">
        <ele>23.08</ele>
        <time>2020-07-08T11:59:48Z</time>
      </trkpt>
      <trkpt lat="47.80296" lon="-3.52628">
        <ele>23.17</ele>
        <time>2020-07-08T11:59:49Z</time>
      </trkpt>
      <trkpt lat="47.80296" lon="-3.52626">
        <ele>23.3</ele>
        <time>2020-07-08T11:59:50Z</time>
      </trkpt>
      <trkpt lat="47.80296" lon="-3.52623">
        <ele>23.44</ele>
        <time>2020-07-08T11:59:51Z</time>
      </trkpt>
      <trkpt lat="47.80296" lon="-3.5262">
        <ele>23.63</ele>
        <time>2020-07-08T11:59:52Z</time>
      </trkpt>
      <trkpt lat="47.80296" lon="-3.52616">
        <ele>23.86</ele>
        <time>2020-07-08T11:59:53Z</time>
      </trkpt>
      <trkpt lat="47.80296" lon="-3.52613">
        <ele>24.12</ele>
        <time>2020-07-08T11:59:54Z</time>
      </trkpt>
      <trkpt lat="47.80296" lon="-3.52609">
        <ele>24.31</ele>
        <time>2020-07-08T11:59:55Z</time>
      </trkpt>
      <trkpt lat="47.80296" lon="-3.52605">
        <ele>24.47</ele>
        <time>2020-07-08T11:59:56Z</time>
      </trkpt>
      <trkpt lat="47.80296" lon="-3.52602">
        <ele>24.63</ele>
        <time>2020-07-08T11:59:57Z</time>
      </trkpt>
      <trkpt lat="47.80296" lon="-3.52599">
        <ele>24.79</ele>
        <time>2020-07-08T11:59:58Z</time>
      </trkpt>
      <trkpt lat="47.80295" lon="-3.52596">
        <ele>24.96</ele>
        <time>2020-07-08T11:59:59Z</time>
      </trkpt>
      <trkpt lat="47.80294" lon="-3.52593">
        <ele>25.18</ele>
        <time>2020-07-08T12:00:00Z</time>
      </trkpt>
      <trkpt lat="47.80293" lon="-3.52589">
        <ele>25.43</ele>
        <time>2020-07-08T12:00:01Z</time>
      </trkpt>
      <trkpt lat="47.80293" lon="-3.52585">
        <ele>25.64</ele>
        <time>2020-07-08T12:00:02Z</time>
      </trkpt>
      <trkpt lat="47.80293" lon="-3.52581">
        <ele>25.86</ele>
        <time>2020-07-08T12:00:03Z</time>
      </trkpt>
      <trkpt lat="47.80292" lon="-3.52578">
        <ele>26.05</ele>
        <time>2020-07-08T12:00:04Z</time>
      </trkpt>
      <trkpt lat="47.80292" lon="-3.52573">
        <ele>26.26</ele>
        <time>2020-07-08T12:00:05Z</time>
      </trkpt>
      <trkpt lat="47.80292" lon="-3.52569">
        <ele>26.41</ele>
        <time>2020-07-08T12:00:06Z</time>
      </trkpt>
      <trkpt lat="47.80292" lon="-3.52564">
        <ele>26.53</ele>
        <time>2020-07-08T12:00:07Z</time>
      </trkpt>
      <trkpt lat="47.80292" lon="-3.5256">
        <ele>26.72</ele>
        <time>2020-07-08T12:00:08Z</time>
      </trkpt>
      <trkpt lat="47.80291" lon="-3.52555">
        <ele>26.94</ele>
        <time>2020-07-08T12:00:09Z</time>
      </trkpt>
      <trkpt lat="47.80292" lon="-3.52551">
        <ele>27.05</ele>
        <time>2020-07-08T12:00:10Z</time>
      </trkpt>
      <trkpt lat="47.80293" lon="-3.52547">
        <ele>27.02</ele>
        <time>2020-07-08T12:00:11Z</time>
      </trkpt>
      <trkpt lat="47.80294" lon="-3.52543">
        <ele>26.94</ele>
        <time>2020-07-08T12:00:12Z</time>
      </trkpt>
      <trkpt lat="47.80294" lon="-3.52538">
        <ele>26.89</ele>
        <time>2020-07-08T12:00:13Z</time>
      </trkpt>
      <trkpt lat="47.80295" lon="-3.52534">
        <ele>26.86</ele>
        <time>2020-07-08T12:00:14Z</time>
      </trkpt>
      <trkpt lat="47.80294" lon="-3.52529">
        <ele>26.94</ele>
        <time>2020-07-08T12:00:15Z</time>
      </trkpt>
      <trkpt lat="47.80294" lon="-3.52524">
        <ele>27.03</ele>
        <time>2020-07-08T12:00:16Z</time>
      </trkpt>
      <trkpt lat="47.80294" lon="-3.52521">
        <ele>27.11</ele>
        <time>2020-07-08T12:00:17Z</time>
      </trkpt>
      <trkpt lat="47.80294" lon="-3.52515">
        <ele>27.25</ele>
        <time>2020-07-08T12:00:18Z</time>
      </trkpt>
      <trkpt lat="47.80294" lon="-3.52511">
        <ele>27.38</ele>
        <time>2020-07-08T12:00:19Z</time>
      </trkpt>
      <trkpt lat="47.80294" lon="-3.52507">
        <ele>27.51</ele>
        <time>2020-07-08T12:00:20Z</time>
      </trkpt>
      <trkpt lat="47.80293" lon="-3.52504">
        <ele>27.61</ele>
        <time>2020-07-08T12:00:21Z</time>
      </trkpt>
      <trkpt lat="47.80293" lon="-3.525">
        <ele>27.7</ele>
        <time>2020-07-08T12:00:22Z</time>
      </trkpt>
      <trkpt lat="47.80294" lon="-3.52496">
        <ele>27.67</ele>
        <time>2020-07-08T12:00:23Z</time>
      </trkpt>
      <trkpt lat="47.80295" lon="-3.52492">
        <ele>27.6</ele>
        <time>2020-07-08T12:00:24Z</time>
      </trkpt>
      <trkpt lat="47.80296" lon="-3.52488">
        <ele>27.49</ele>
        <time>2020-07-08T12:00:25Z</time>
      </trkpt>
      <trkpt lat="47.80296" lon="-3.52484">
        <ele>27.41</ele>
        <time>2020-07-08T12:00:26Z</time>
      </trkpt>
      <trkpt lat="47.80297" lon="-3.5248">
        <ele>27.3</ele>
        <time>2020-07-08T12:00:27Z</time>
      </trkpt>
      <trkpt lat="47.80297" lon="-3.52478">
        <ele>27.24</ele>
        <time>2020-07-08T12:00:28Z</time>
      </trkpt>
      <trkpt lat="47.80297" lon="-3.52474">
        <ele>27.2</ele>
        <time>2020-07-08T12:00:29Z</time>
      </trkpt>
      <trkpt lat="47.80297" lon="-3.5247">
        <ele>27.15</ele>
        <time>2020-07-08T12:00:30Z</time>
      </trkpt>
      <trkpt lat="47.80297" lon="-3.52464">
        <ele>27.1</ele>
        <time>2020-07-08T12:00:31Z</time>
      </trkpt>
      <trkpt lat="47.80297" lon="-3.52459">
        <ele>27.06</ele>
        <time>2020-07-08T12:00:32Z</time>
      </trkpt>
      <trkpt lat="47.80297" lon="-3.52455">
        <ele>27</ele>
        <time>2020-07-08T12:00:33Z</time>
      </trkpt>
      <trkpt lat="47.80298" lon="-3.52451">
        <ele>26.94</ele>
        <time>2020-07-08T12:00:34Z</time>
      </trkpt>
      <trkpt lat="47.80298" lon="-3.52446">
        <ele>26.87</ele>
        <time>2020-07-08T12:00:35Z</time>
      </trkpt>
      <trkpt lat="47.80299" lon="-3.5244">
        <ele>26.71</ele>
        <time>2020-07-08T12:00:36Z</time>
      </trkpt>
      <trkpt lat="47.803" lon="-3.52435">
        <ele>26.59</ele>
        <time>2020-07-08T12:00:37Z</time>
      </trkpt>
      <trkpt lat="47.803" lon="-3.5243">
        <ele>26.49</ele>
        <time>2020-07-08T12:00:38Z</time>
      </trkpt>
      <trkpt lat="47.80301" lon="-3.52424">
        <ele>26.43</ele>
        <time>2020-07-08T12:00:39Z</time>
      </trkpt>
      <trkpt lat="47.803" lon="-3.52419">
        <ele>26.39</ele>
        <time>2020-07-08T12:00:40Z</time>
      </trkpt>
      <trkpt lat="47.80301" lon="-3.52413">
        <ele>26.36</ele>
        <time>2020-07-08T12:00:41Z</time>
      </trkpt>
      <trkpt lat="47.80301" lon="-3.52408">
        <ele>26.34</ele>
        <time>2020-07-08T12:00:42Z</time>
      </trkpt>
      <trkpt lat="47.80301" lon="-3.52402">
        <ele>26.32</ele>
        <time>2020-07-08T12:00:43Z</time>
      </trkpt>
      <trkpt lat="47.80301" lon="-3.52396">
        <ele>26.33</ele>
        <time>2020-07-08T12:00:44Z</time>
      </trkpt>
      <trkpt lat="47.80302" lon="-3.5239">
        <ele>26.29</ele>
        <time>2020-07-08T12:00:45Z</time>
      </trkpt>
      <trkpt lat="47.80303" lon="-3.52386">
        <ele>26.23</ele>
        <time>2020-07-08T12:00:46Z</time>
      </trkpt>
      <trkpt lat="47.80304" lon="-3.52382">
        <ele>26.14</ele>
        <time>2020-07-08T12:00:47Z</time>
      </trkpt>
      <trkpt lat="47.80305" lon="-3.52379">
        <ele>26.05</ele>
        <time>2020-07-08T12:00:48Z</time>
      </trkpt>
      <trkpt lat="47.80308" lon="-3.52375">
        <ele>25.7</ele>
        <time>2020-07-08T12:00:49Z</time>
      </trkpt>
      <trkpt lat="47.8031" lon="-3.5237">
        <ele>25.24</ele>
        <time>2020-07-08T12:00:50Z</time>
      </trkpt>
      <trkpt lat="47.80314" lon="-3.52365">
        <ele>24.72</ele>
        <time>2020-07-08T12:00:51Z</time>
      </trkpt>
      <trkpt lat="47.80317" lon="-3.5236">
        <ele>24.18</ele>
        <time>2020-07-08T12:00:52Z</time>
      </trkpt>
      <trkpt lat="47.80321" lon="-3.52355">
        <ele>23.48</ele>
        <time>2020-07-08T12:00:53Z</time>
      </trkpt>
      <trkpt lat="47.80324" lon="-3.5235">
        <ele>22.88</ele>
        <time>2020-07-08T12:00:54Z</time>
      </trkpt>
      <trkpt lat="47.80328" lon="-3.52346">
        <ele>22.43</ele>
        <time>2020-07-08T12:00:55Z</time>
      </trkpt>
      <trkpt lat="47.80331" lon="-3.52343">
        <ele>22.06</ele>
        <time>2020-07-08T12:00:56Z</time>
      </trkpt>
      <trkpt lat="47.80334" lon="-3.52339">
        <ele>21.56</ele>
        <time>2020-07-08T12:00:57Z</time>
      </trkpt>
      <trkpt lat="47.80337" lon="-3.52334">
        <ele>20.58</ele>
        <time>2020-07-08T12:00:58Z</time>
      </trkpt>
      <trkpt lat="47.80339" lon="-3.5233">
        <ele>19.46</ele>
        <time>2020-07-08T12:00:59Z</time>
      </trkpt>
      <trkpt lat="47.8034" lon="-3.52327">
        <ele>18.43</ele>
        <time>2020-07-08T12:01:00Z</time>
      </trkpt>
      <trkpt lat="47.80341" lon="-3.52323">
        <ele>17.68</ele>
        <time>2020-07-08T12:01:01Z</time>
      </trkpt>
      <trkpt lat="47.80342" lon="-3.5232">
        <ele>17.33</ele>
        <time>2020-07-08T12:01:02Z</time>
      </trkpt>
      <trkpt lat="47.80341" lon="-3.52316">
        <ele>17.42</ele>
        <time>2020-07-08T12:01:03Z</time>
      </trkpt>
      <trkpt lat="47.8034" lon="-3.52312">
        <ele>17.66</ele>
        <time>2020-07-08T12:01:04Z</time>
      </trkpt>
      <trkpt lat="47.80338" lon="-3.52308">
        <ele>17.99</ele>
        <time>2020-07-08T12:01:05Z</time>
      </trkpt>
      <trkpt lat="47.80337" lon="-3.52303">
        <ele>18.37</ele>
        <time>2020-07-08T12:01:06Z</time>
      </trkpt>
      <trkpt lat="47.80335" lon="-3.52297">
        <ele>18.9</ele>
        <time>2020-07-08T12:01:07Z</time>
      </trkpt>
      <trkpt lat="47.80333" lon="-3.52291">
        <ele>19.31</ele>
        <time>2020-07-08T12:01:08Z</time>
      </trkpt>
      <trkpt lat="47.80332" lon="-3.52284">
        <ele>19.26</ele>
        <time>2020-07-08T12:01:09Z</time>
      </trkpt>
      <trkpt lat="47.8033" lon="-3.52276">
        <ele>19</ele>
        <time>2020-07-08T12:01:10Z</time>
      </trkpt>
      <trkpt lat="47.8033" lon="-3.5227">
        <ele>18.57</ele>
        <time>2020-07-08T12:01:11Z</time>
      </trkpt>
      <trkpt lat="47.8033" lon="-3.52265">
        <ele>18.17</ele>
        <time>2020-07-08T12:01:12Z</time>
      </trkpt>
      <trkpt lat="47.80331" lon="-3.52258">
        <ele>17.73</ele>
        <time>2020-07-08T12:01:13Z</time>
      </trkpt>
      <trkpt lat="47.80333" lon="-3.52251">
        <ele>17.25</ele>
        <time>2020-07-08T12:01:14Z</time>
      </trkpt>
      <trkpt lat="47.80335" lon="-3.52244">
        <ele>16.32</ele>
        <time>2020-07-08T12:01:15Z</time>
      </trkpt>
      <trkpt lat="47.80337" lon="-3.5224">
        <ele>15.45</ele>
        <time>2020-07-08T12:01:16Z</time>
      </trkpt>
      <trkpt lat="47.80338" lon="-3.52237">
        <ele>14.76</ele>
        <time>2020-07-08T12:01:17Z</time>
      </trkpt>
      <trkpt lat="47.80339" lon="-3.52233">
        <ele>14.24</ele>
        <time>2020-07-08T12:01:18Z</time>
      </trkpt>
      <trkpt lat="47.80339" lon="-3.52231">
        <ele>13.97</ele>
        <time>2020-07-08T12:01:19Z</time>
      </trkpt>
      <trkpt lat="47.8034" lon="-3.5223">
        <ele>13.74</ele>
        <time>2020-07-08T12:01:20Z</time>
      </trkpt>
      <trkpt lat="47.80341" lon="-3.52229">
        <ele>13.47</ele>
        <time>2020-07-08T12:01:21Z</time>
      </trkpt>
      <trkpt lat="47.80343" lon="-3.52227">
        <ele>13.11</ele>
        <time>2020-07-08T12:01:22Z</time>
      </trkpt>
      <trkpt lat="47.80345" lon="-3.52225">
        <ele>12.67</ele>
        <time>2020-07-08T12:01:23Z</time>
      </trkpt>
      <trkpt lat="47.80346" lon="-3.52222">
        <ele>12.31</ele>
        <time>2020-07-08T12:01:24Z</time>
      </trkpt>
      <trkpt lat="47.80347" lon="-3.52219">
        <ele>12.1</ele>
        <time>2020-07-08T12:01:25Z</time>
      </trkpt>
      <trkpt lat="47.80348" lon="-3.52214">
        <ele>11.9</ele>
        <time>2020-07-08T12:01:26Z</time>
      </trkpt>
      <trkpt lat="47.80349" lon="-3.52209">
        <ele>11.72</ele>
        <time>2020-07-08T12:01:27Z</time>
      </trkpt>
      <trkpt lat="47.8035" lon="-3.52205">
        <ele>11.56</ele>
        <time>2020-07-08T12:01:28Z</time>
      </trkpt>
      <trkpt lat="47.80351" lon="-3.522">
        <ele>11.45</ele>
        <time>2020-07-08T12:01:29Z</time>
      </trkpt>
      <trkpt lat="47.80352" lon="-3.52196">
        <ele>11.37</ele>
        <time>2020-07-08T12:01:30Z</time>
      </trkpt>
      <trkpt lat="47.80353" lon="-3.52193">
        <ele>11.29</ele>
        <time>2020-07-08T12:01:31Z</time>
      </trkpt>
      <trkpt lat="47.80354" lon="-3.52189">
        <ele>11.19</ele>
        <time>2020-07-08T12:01:32Z</time>
      </trkpt>
      <trkpt lat="47.80356" lon="-3.52184">
        <ele>11.09</ele>
        <time>2020-07-08T12:01:33Z</time>
      </trkpt>
      <trkpt lat="47.80358" lon="-3.52177">
        <ele>11.01</ele>
        <time>2020-07-08T12:01:34Z</time>
      </trkpt>
      <trkpt lat="47.80359" lon="-3.52172">
        <ele>10.97</ele>
        <time>2020-07-08T12:01:35Z</time>
      </trkpt>
      <trkpt lat="47.8036" lon="-3.52166">
        <ele>10.94</ele>
        <time>2020-07-08T12:01:36Z</time>
      </trkpt>
      <trkpt lat="47.80362" lon="-3.52162">
        <ele>10.63</ele>
        <time>2020-07-08T12:01:37Z</time>
      </trkpt>
      <trkpt lat="47.80363" lon="-3.52159">
        <ele>10</ele>
        <time>2020-07-08T12:01:38Z</time>
      </trkpt>
      <trkpt lat="47.80366" lon="-3.52156">
        <ele>9.16</ele>
        <time>2020-07-08T12:01:39Z</time>
      </trkpt>
      <trkpt lat="47.80369" lon="-3.52152">
        <ele>8.13</ele>
        <time>2020-07-08T12:01:40Z</time>
      </trkpt>
      <trkpt lat="47.8037" lon="-3.52148">
        <ele>7.36</ele>
        <time>2020-07-08T12:01:41Z</time>
      </trkpt>
      <trkpt lat="47.8037" lon="-3.52143">
        <ele>6.93</ele>
        <time>2020-07-08T12:01:42Z</time>
      </trkpt>
      <trkpt lat="47.80369" lon="-3.52137">
        <ele>6.53</ele>
        <time>2020-07-08T12:01:43Z</time>
      </trkpt>
      <trkpt lat="47.8037" lon="-3.5213">
        <ele>5.81</ele>
        <time>2020-07-08T12:01:44Z</time>
      </trkpt>
      <trkpt lat="47.8037" lon="-3.52122">
        <ele>4.97</ele>
        <time>2020-07-08T12:01:45Z</time>
      </trkpt>
      <trkpt lat="47.8037" lon="-3.52115">
        <ele>4.16</ele>
        <time>2020-07-08T12:01:46Z</time>
      </trkpt>
      <trkpt lat="47.80371" lon="-3.5211">
        <ele>3.46</ele>
        <time>2020-07-08T12:01:47Z</time>
      </trkpt>
      <trkpt lat="47.8037" lon="-3.52104">
        <ele>2.96</ele>
        <time>2020-07-08T12:01:48Z</time>
      </trkpt>
      <trkpt lat="47.80368" lon="-3.521">
        <ele>2.61</ele>
        <time>2020-07-08T12:01:49Z</time>
      </trkpt>
      <trkpt lat="47.80366" lon="-3.52096">
        <ele>2.4</ele>
        <time>2020-07-08T12:01:50Z</time>
      </trkpt>
      <trkpt lat="47.80362" lon="-3.52094">
        <ele>2.5</ele>
        <time>2020-07-08T12:01:51Z</time>
      </trkpt>
      <trkpt lat="47.80359" lon="-3.52095">
        <ele>2.54</ele>
        <time>2020-07-08T12:01:52Z</time>
      </trkpt>
      <trkpt lat="47.80356" lon="-3.52096">
        <ele>2.46</ele>
        <time>2020-07-08T12:01:53Z</time>
      </trkpt>
      <trkpt lat="47.80353" lon="-3.52095">
        <ele>2.25</ele>
        <time>2020-07-08T12:01:54Z</time>
      </trkpt>
      <trkpt lat="47.8035" lon="-3.52094">
        <ele>1.94</ele>
        <time>2020-07-08T12:01:55Z</time>
      </trkpt>
      <trkpt lat="47.80346" lon="-3.52094">
        <ele>1.72</ele>
        <time>2020-07-08T12:01:56Z</time>
      </trkpt>
      <trkpt lat="47.80343" lon="-3.52096">
        <ele>1.63</ele>
        <time>2020-07-08T12:01:57Z</time>
      </trkpt>
      <trkpt lat="47.80341" lon="-3.52098">
        <ele>1.6</ele>
        <time>2020-07-08T12:01:58Z</time>
      </trkpt>
      <trkpt lat="47.80339" lon="-3.52101">
        <ele>1.64</ele>
        <time>2020-07-08T12:01:59Z</time>
      </trkpt>
      <trkpt lat="47.80336" lon="-3.52103">
        <ele>1.66</ele>
        <time>2020-07-08T12:02:00Z</time>
      </trkpt>
      <trkpt lat="47.80334" lon="-3.52105">
        <ele>1.64</ele>
        <time>2020-07-08T12:02:01Z</time>
      </trkpt>
      <trkpt lat="47.80332" lon="-3.52107">
        <ele>1.57</ele>
        <time>2020-07-08T12:02:02Z</time>
      </trkpt>
      <trkpt lat="47.8033" lon="-3.52109">
        <ele>1.49</ele>
        <time>2020-07-08T12:02:03Z</time>
      </trkpt>
      <trkpt lat="47.80327" lon="-3.52112">
        <ele>1.44</ele>
        <time>2020-07-08T12:02:04Z</time>
      </trkpt>
      <trkpt lat="47.80326" lon="-3.52115">
        <ele>1.59</ele>
        <time>2020-07-08T12:02:05Z</time>
      </trkpt>
      <trkpt lat="47.80324" lon="-3.52118">
        <ele>1.81</ele>
        <time>2020-07-08T12:02:06Z</time>
      </trkpt>
      <trkpt lat="47.80323" lon="-3.52122">
        <ele>2.06</ele>
        <time>2020-07-08T12:02:07Z</time>
      </trkpt>
      <trkpt lat="47.80323" lon="-3.52125">
        <ele>2.32</ele>
        <time>2020-07-08T12:02:08Z</time>
      </trkpt>
      <trkpt lat="47.80322" lon="-3.52128">
        <ele>2.55</ele>
        <time>2020-07-08T12:02:09Z</time>
      </trkpt>
      <trkpt lat="47.80321" lon="-3.52131">
        <ele>2.8</ele>
        <time>2020-07-08T12:02:10Z</time>
      </trkpt>
      <trkpt lat="47.8032" lon="-3.52134">
        <ele>2.99</ele>
        <time>2020-07-08T12:02:11Z</time>
      </trkpt>
      <trkpt lat="47.80319" lon="-3.52137">
        <ele>3.14</ele>
        <time>2020-07-08T12:02:12Z</time>
      </trkpt>
      <trkpt lat="47.80317" lon="-3.5214">
        <ele>3.19</ele>
        <time>2020-07-08T12:02:13Z</time>
      </trkpt>
      <trkpt lat="47.80316" lon="-3.52142">
        <ele>3.17</ele>
        <time>2020-07-08T12:02:14Z</time>
      </trkpt>
      <trkpt lat="47.80316" lon="-3.52144">
        <ele>3.23</ele>
        <time>2020-07-08T12:02:15Z</time>
      </trkpt>
      <trkpt lat="47.80315" lon="-3.52146">
        <ele>3.28</ele>
        <time>2020-07-08T12:02:16Z</time>
      </trkpt>
      <trkpt lat="47.80314" lon="-3.52149">
        <ele>3.43</ele>
        <time>2020-07-08T12:02:17Z</time>
      </trkpt>
      <trkpt lat="47.80315" lon="-3.52151">
        <ele>3.77</ele>
        <time>2020-07-08T12:02:18Z</time>
      </trkpt>
      <trkpt lat="47.80314" lon="-3.52153">
        <ele>3.88</ele>
        <time>2020-07-08T12:02:19Z</time>
      </trkpt>
      <trkpt lat="47.80313" lon="-3.52155">
        <ele>3.88</ele>
        <time>2020-07-08T12:02:20Z</time>
      </trkpt>
      <trkpt lat="47.80313" lon="-3.52157">
        <ele>3.94</ele>
        <time>2020-07-08T12:02:21Z</time>
      </trkpt>
      <trkpt lat="47.80312" lon="-3.52159">
        <ele>4.02</ele>
        <time>2020-07-08T12:02:22Z</time>
      </trkpt>
      <trkpt lat="47.80312" lon="-3.52162">
        <ele>4.2</ele>
        <time>2020-07-08T12:02:23Z</time>
      </trkpt>
      <trkpt lat="47.80312" lon="-3.52165">
        <ele>4.43</ele>
        <time>2020-07-08T12:02:24Z</time>
      </trkpt>
      <trkpt lat="47.80312" lon="-3.52167">
        <ele>4.61</ele>
        <time>2020-07-08T12:02:25Z</time>
      </trkpt>
      <trkpt lat="47.8031" lon="-3.5217">
        <ele>4.71</ele>
        <time>2020-07-08T12:02:26Z</time>
      </trkpt>
      <trkpt lat="47.80309" lon="-3.52172">
        <ele>4.65</ele>
        <time>2020-07-08T12:02:27Z</time>
      </trkpt>
      <trkpt lat="47.80309" lon="-3.52175">
        <ele>4.92</ele>
        <time>2020-07-08T12:02:28Z</time>
      </trkpt>
      <trkpt lat="47.80309" lon="-3.52178">
        <ele>5.34</ele>
        <time>2020-07-08T12:02:29Z</time>
      </trkpt>
      <trkpt lat="47.8031" lon="-3.52182">
        <ele>5.88</ele>
        <time>2020-07-08T12:02:30Z</time>
      </trkpt>
      <trkpt lat="47.8031" lon="-3.52184">
        <ele>6.21</ele>
        <time>2020-07-08T12:02:31Z</time>
      </trkpt>
      <trkpt lat="47.80309" lon="-3.52186">
        <ele>6.42</ele>
        <time>2020-07-08T12:02:32Z</time>
      </trkpt>
      <trkpt lat="47.80308" lon="-3.52188">
        <ele>6.56</ele>
        <time>2020-07-08T12:02:33Z</time>
      </trkpt>
      <trkpt lat="47.80307" lon="-3.52191">
        <ele>6.79</ele>
        <time>2020-07-08T12:02:34Z</time>
      </trkpt>
      <trkpt lat="47.80307" lon="-3.52195">
        <ele>7.23</ele>
        <time>2020-07-08T12:02:35Z</time>
      </trkpt>
      <trkpt lat="47.80307" lon="-3.52198">
        <ele>7.64</ele>
        <time>2020-07-08T12:02:36Z</time>
      </trkpt>
      <trkpt lat="47.80306" lon="-3.522">
        <ele>7.94</ele>
        <time>2020-07-08T12:02:37Z</time>
      </trkpt>
      <trkpt lat="47.80305" lon="-3.52202">
        <ele>8.13</ele>
        <time>2020-07-08T12:02:38Z</time>
      </trkpt>
      <trkpt lat="47.80305" lon="-3.52203">
        <ele>8.39</ele>
        <time>2020-07-08T12:02:39Z</time>
      </trkpt>
      <trkpt lat="47.80304" lon="-3.52206">
        <ele>8.62</ele>
        <time>2020-07-08T12:02:40Z</time>
      </trkpt>
      <trkpt lat="47.80303" lon="-3.52209">
        <ele>8.86</ele>
        <time>2020-07-08T12:02:41Z</time>
      </trkpt>
      <trkpt lat="47.80302" lon="-3.52213">
        <ele>8.98</ele>
        <time>2020-07-08T12:02:42Z</time>
      </trkpt>
      <trkpt lat="47.80301" lon="-3.52215">
        <ele>9.18</ele>
        <time>2020-07-08T12:02:43Z</time>
      </trkpt>
      <trkpt lat="47.80301" lon="-3.52218">
        <ele>9.65</ele>
        <time>2020-07-08T12:02:44Z</time>
      </trkpt>
      <trkpt lat="47.80301" lon="-3.52221">
        <ele>9.99</ele>
        <time>2020-07-08T12:02:45Z</time>
      </trkpt>
      <trkpt lat="47.80301" lon="-3.52224">
        <ele>10.46</ele>
        <time>2020-07-08T12:02:46Z</time>
      </trkpt>
      <trkpt lat="47.803" lon="-3.52226">
        <ele>10.5</ele>
        <time>2020-07-08T12:02:47Z</time>
      </trkpt>
      <trkpt lat="47.80299" lon="-3.52228">
        <ele>10.44</ele>
        <time>2020-07-08T12:02:48Z</time>
      </trkpt>
      <trkpt lat="47.80298" lon="-3.5223">
        <ele>10.38</ele>
        <time>2020-07-08T12:02:49Z</time>
      </trkpt>
      <trkpt lat="47.80297" lon="-3.52232">
        <ele>10.3</ele>
        <time>2020-07-08T12:02:50Z</time>
      </trkpt>
      <trkpt lat="47.80296" lon="-3.52234">
        <ele>10.43</ele>
        <time>2020-07-08T12:02:51Z</time>
      </trkpt>
      <trkpt lat="47.80296" lon="-3.52236">
        <ele>10.63</ele>
        <time>2020-07-08T12:02:52Z</time>
      </trkpt>
      <trkpt lat="47.80296" lon="-3.52239">
        <ele>10.94</ele>
        <time>2020-07-08T12:02:53Z</time>
      </trkpt>
      <trkpt lat="47.80294" lon="-3.5224">
        <ele>10.9</ele>
        <time>2020-07-08T12:02:54Z</time>
      </trkpt>
      <trkpt lat="47.80294" lon="-3.52243">
        <ele>11.05</ele>
        <time>2020-07-08T12:02:55Z</time>
      </trkpt>
      <trkpt lat="47.80293" lon="-3.52246">
        <ele>11.14</ele>
        <time>2020-07-08T12:02:56Z</time>
      </trkpt>
      <trkpt lat="47.80292" lon="-3.52248">
        <ele>11.19</ele>
        <time>2020-07-08T12:02:57Z</time>
      </trkpt>
      <trkpt lat="47.80291" lon="-3.52249">
        <ele>11.2</ele>
        <time>2020-07-08T12:02:58Z</time>
      </trkpt>
      <trkpt lat="47.8029" lon="-3.52252">
        <ele>11.17</ele>
        <time>2020-07-08T12:02:59Z</time>
      </trkpt>
      <trkpt lat="47.8029" lon="-3.52255">
        <ele>11.48</ele>
        <time>2020-07-08T12:03:00Z</time>
      </trkpt>
      <trkpt lat="47.80289" lon="-3.52257">
        <ele>11.68</ele>
        <time>2020-07-08T12:03:01Z</time>
      </trkpt>
      <trkpt lat="47.80288" lon="-3.52259">
        <ele>11.96</ele>
        <time>2020-07-08T12:03:02Z</time>
      </trkpt>
      <trkpt lat="47.80287" lon="-3.52262">
        <ele>12.22</ele>
        <time>2020-07-08T12:03:03Z</time>
      </trkpt>
      <trkpt lat="47.80286" lon="-3.52265">
        <ele>12.31</ele>
        <time>2020-07-08T12:03:04Z</time>
      </trkpt>
      <trkpt lat="47.80284" lon="-3.52267">
        <ele>12.33</ele>
        <time>2020-07-08T12:03:05Z</time>
      </trkpt>
      <trkpt lat="47.80283" lon="-3.5227">
        <ele>12.42</ele>
        <time>2020-07-08T12:03:06Z</time>
      </trkpt>
      <trkpt lat="47.80282" lon="-3.52272">
        <ele>12.68</ele>
        <time>2020-07-08T12:03:07Z</time>
      </trkpt>
      <trkpt lat="47.8028" lon="-3.52275">
        <ele>12.94</ele>
        <time>2020-07-08T12:03:08Z</time>
      </trkpt>
      <trkpt lat="47.80279" lon="-3.52278">
        <ele>13.18</ele>
        <time>2020-07-08T12:03:09Z</time>
      </trkpt>
      <trkpt lat="47.80277" lon="-3.52281">
        <ele>13.33</ele>
        <time>2020-07-08T12:03:10Z</time>
      </trkpt>
      <trkpt lat="47.80276" lon="-3.52284">
        <ele>13.54</ele>
        <time>2020-07-08T12:03:11Z</time>
      </trkpt>
      <trkpt lat="47.80275" lon="-3.52287">
        <ele>13.65</ele>
        <time>2020-07-08T12:03:12Z</time>
      </trkpt>
      <trkpt lat="47.80274" lon="-3.52288">
        <ele>13.81</ele>
        <time>2020-07-08T12:03:13Z</time>
      </trkpt>
      <trkpt lat="47.80273" lon="-3.52291">
        <ele>13.89</ele>
        <time>2020-07-08T12:03:14Z</time>
      </trkpt>
      <trkpt lat="47.80272" lon="-3.52294">
        <ele>14.12</ele>
        <time>2020-07-08T12:03:15Z</time>
      </trkpt>
      <trkpt lat="47.80271" lon="-3.52296">
        <ele>14.38</ele>
        <time>2020-07-08T12:03:16Z</time>
      </trkpt>
      <trkpt lat="47.8027" lon="-3.52299">
        <ele>14.62</ele>
        <time>2020-07-08T12:03:17Z</time>
      </trkpt>
      <trkpt lat="47.80268" lon="-3.52301">
        <ele>14.8</ele>
        <time>2020-07-08T12:03:18Z</time>
      </trkpt>
      <trkpt lat="47.80267" lon="-3.52303">
        <ele>14.99</ele>
        <time>2020-07-08T12:03:19Z</time>
      </trkpt>
      <trkpt lat="47.80266" lon="-3.52305">
        <ele>15.3</ele>
        <time>2020-07-08T12:03:20Z</time>
      </trkpt>
      <trkpt lat="47.80265" lon="-3.52308">
        <ele>15.57</ele>
        <time>2020-07-08T12:03:21Z</time>
      </trkpt>
      <trkpt lat="47.80264" lon="-3.52311">
        <ele>15.92</ele>
        <time>2020-07-08T12:03:22Z</time>
      </trkpt>
      <trkpt lat="47.80262" lon="-3.52313">
        <ele>16.08</ele>
        <time>2020-07-08T12:03:23Z</time>
      </trkpt>
      <trkpt lat="47.80261" lon="-3.52315">
        <ele>16.32</ele>
        <time>2020-07-08T12:03:24Z</time>
      </trkpt>
      <trkpt lat="47.8026" lon="-3.52318">
        <ele>16.69</ele>
        <time>2020-07-08T12:03:25Z</time>
      </trkpt>
      <trkpt lat="47.8026" lon="-3.5232">
        <ele>17.07</ele>
        <time>2020-07-08T12:03:26Z</time>
      </trkpt>
      <trkpt lat="47.80258" lon="-3.52322">
        <ele>17.31</ele>
        <time>2020-07-08T12:03:27Z</time>
      </trkpt>
      <trkpt lat="47.80257" lon="-3.52324">
        <ele>17.45</ele>
        <time>2020-07-08T12:03:28Z</time>
      </trkpt>
      <trkpt lat="47.80256" lon="-3.52326">
        <ele>17.71</ele>
        <time>2020-07-08T12:03:29Z</time>
      </trkpt>
      <trkpt lat="47.80254" lon="-3.52328">
        <ele>18.02</ele>
        <time>2020-07-08T12:03:30Z</time>
      </trkpt>
      <trkpt lat="47.80253" lon="-3.52331">
        <ele>18.61</ele>
        <time>2020-07-08T12:03:31Z</time>
      </trkpt>
      <trkpt lat="47.80253" lon="-3.52335">
        <ele>19.28</ele>
        <time>2020-07-08T12:03:32Z</time>
      </trkpt>
      <trkpt lat="47.80252" lon="-3.52338">
        <ele>19.84</ele>
        <time>2020-07-08T12:03:33Z</time>
      </trkpt>
      <trkpt lat="47.80251" lon="-3.52341">
        <ele>20.33</ele>
        <time>2020-07-08T12:03:34Z</time>
      </trkpt>
      <trkpt lat="47.8025" lon="-3.52344">
        <ele>20.7</ele>
        <time>2020-07-08T12:03:35Z</time>
      </trkpt>
      <trkpt lat="47.8025" lon="-3.52348">
        <ele>21.28</ele>
        <time>2020-07-08T12:03:36Z</time>
      </trkpt>
      <trkpt lat="47.80249" lon="-3.5235">
        <ele>21.53</ele>
        <time>2020-07-08T12:03:37Z</time>
      </trkpt>
      <trkpt lat="47.80248" lon="-3.52353">
        <ele>21.69</ele>
        <time>2020-07-08T12:03:38Z</time>
      </trkpt>
      <trkpt lat="47.80247" lon="-3.52356">
        <ele>21.95</ele>
        <time>2020-07-08T12:03:39Z</time>
      </trkpt>
      <trkpt lat="47.80246" lon="-3.52358">
        <ele>22.11</ele>
        <time>2020-07-08T12:03:40Z</time>
      </trkpt>
      <trkpt lat="47.80244" lon="-3.52359">
        <ele>22.04</ele>
        <time>2020-07-08T12:03:41Z</time>
      </trkpt>
      <trkpt lat="47.80242" lon="-3.52362">
        <ele>21.91</ele>
        <time>2020-07-08T12:03:42Z</time>
      </trkpt>
      <trkpt lat="47.8024" lon="-3.52363">
        <ele>21.65</ele>
        <time>2020-07-08T12:03:43Z</time>
      </trkpt>
      <trkpt lat="47.80237" lon="-3.52365">
        <ele>21.41</ele>
        <time>2020-07-08T12:03:44Z</time>
      </trkpt>
      <trkpt lat="47.80235" lon="-3.52367">
        <ele>21.19</ele>
        <time>2020-07-08T12:03:45Z</time>
      </trkpt>
      <trkpt lat="47.80232" lon="-3.5237">
        <ele>21.17</ele>
        <time>2020-07-08T12:03:46Z</time>
      </trkpt>
      <trkpt lat="47.8023" lon="-3.52372">
        <ele>21.15</ele>
        <time>2020-07-08T12:03:47Z</time>
      </trkpt>
      <trkpt lat="47.80227" lon="-3.52373">
        <ele>20.88</ele>
        <time>2020-07-08T12:03:48Z</time>
      </trkpt>
      <trkpt lat="47.80223" lon="-3.52374">
        <ele>20.56</ele>
        <time>2020-07-08T12:03:49Z</time>
      </trkpt>
      <trkpt lat="47.8022" lon="-3.52376">
        <ele>20.32</ele>
        <time>2020-07-08T12:03:50Z</time>
      </trkpt>
      <trkpt lat="47.80218" lon="-3.52377">
        <ele>20.14</ele>
        <time>2020-07-08T12:03:51Z</time>
      </trkpt>
      <trkpt lat="47.80216" lon="-3.52379">
        <ele>20.11</ele>
        <time>2020-07-08T12:03:52Z</time>
      </trkpt>
      <trkpt lat="47.80214" lon="-3.52381">
        <ele>20.33</ele>
        <time>2020-07-08T12:03:53Z</time>
      </trkpt>
      <trkpt lat="47.80213" lon="-3.52382">
        <ele>20.52</ele>
        <time>2020-07-08T12:03:54Z</time>
      </trkpt>
      <trkpt lat="47.80211" lon="-3.52384">
        <ele>20.65</ele>
        <time>2020-07-08T12:03:55Z</time>
      </trkpt>
      <trkpt lat="47.80208" lon="-3.52387">
        <ele>21.07</ele>
        <time>2020-07-08T12:03:56Z</time>
      </trkpt>
      <trkpt lat="47.80206" lon="-3.52389">
        <ele>21.35</ele>
        <time>2020-07-08T12:03:57Z</time>
      </trkpt>
      <trkpt lat="47.80203" lon="-3.5239">
        <ele>21.2</ele>
        <time>2020-07-08T12:03:58Z</time>
      </trkpt>
      <trkpt lat="47.802" lon="-3.52391">
        <ele>20.93</ele>
        <time>2020-07-08T12:03:59Z</time>
      </trkpt>
      <trkpt lat="47.80197" lon="-3.52393">
        <ele>20.78</ele>
        <time>2020-07-08T12:04:00Z</time>
      </trkpt>
      <trkpt lat="47.80194" lon="-3.52395">
        <ele>20.65</ele>
        <time>2020-07-08T12:04:01Z</time>
      </trkpt>
      <trkpt lat="47.8019" lon="-3.52396">
        <ele>20.19</ele>
        <time>2020-07-08T12:04:02Z</time>
      </trkpt>
      <trkpt lat="47.80185" lon="-3.52398">
        <ele>19.49</ele>
        <time>2020-07-08T12:04:03Z</time>
      </trkpt>
      <trkpt lat="47.80181" lon="-3.52399">
        <ele>18.89</ele>
        <time>2020-07-08T12:04:04Z</time>
      </trkpt>
      <trkpt lat="47.80178" lon="-3.52401">
        <ele>18.69</ele>
        <time>2020-07-08T12:04:05Z</time>
      </trkpt>
      <trkpt lat="47.80175" lon="-3.52403">
        <ele>18.71</ele>
        <time>2020-07-08T12:04:06Z</time>
      </trkpt>
      <trkpt lat="47.80172" lon="-3.52405">
        <ele>18.43</ele>
        <time>2020-07-08T12:04:07Z</time>
      </trkpt>
      <trkpt lat="47.80168" lon="-3.52406">
        <ele>18.15</ele>
        <time>2020-07-08T12:04:08Z</time>
      </trkpt>
      <trkpt lat="47.80164" lon="-3.52409">
        <ele>18.45</ele>
        <time>2020-07-08T12:04:09Z</time>
      </trkpt>
      <trkpt lat="47.80162" lon="-3.5241">
        <ele>18.95</ele>
        <time>2020-07-08T12:04:10Z</time>
      </trkpt>
      <trkpt lat="47.80159" lon="-3.52412">
        <ele>19.47</ele>
        <time>2020-07-08T12:04:11Z</time>
      </trkpt>
      <trkpt lat="47.80155" lon="-3.52414">
        <ele>19.83</ele>
        <time>2020-07-08T12:04:12Z</time>
      </trkpt>
      <trkpt lat="47.80153" lon="-3.52415">
        <ele>20.26</ele>
        <time>2020-07-08T12:04:13Z</time>
      </trkpt>
      <trkpt lat="47.8015" lon="-3.52417">
        <ele>20.65</ele>
        <time>2020-07-08T12:04:14Z</time>
      </trkpt>
      <trkpt lat="47.80148" lon="-3.52418">
        <ele>20.85</ele>
        <time>2020-07-08T12:04:15Z</time>
      </trkpt>
      <trkpt lat="47.80145" lon="-3.52419">
        <ele>21.04</ele>
        <time>2020-07-08T12:04:16Z</time>
      </trkpt>
      <trkpt lat="47.80142" lon="-3.5242">
        <ele>21.2</ele>
        <time>2020-07-08T12:04:17Z</time>
      </trkpt>
      <trkpt lat="47.80139" lon="-3.52421">
        <ele>21.28</ele>
        <time>2020-07-08T12:04:18Z</time>
      </trkpt>
      <trkpt lat="47.80136" lon="-3.52422">
        <ele>21.61</ele>
        <time>2020-07-08T12:04:19Z</time>
      </trkpt>
      <trkpt lat="47.80134" lon="-3.52423">
        <ele>22.09</ele>
        <time>2020-07-08T12:04:20Z</time>
      </trkpt>
      <trkpt lat="47.80131" lon="-3.52425">
        <ele>22.66</ele>
        <time>2020-07-08T12:04:21Z</time>
      </trkpt>
      <trkpt lat="47.80127" lon="-3.52427">
        <ele>23.29</ele>
        <time>2020-07-08T12:04:22Z</time>
      </trkpt>
      <trkpt lat="47.80123" lon="-3.52427">
        <ele>23.57</ele>
        <time>2020-07-08T12:04:23Z</time>
      </trkpt>
      <trkpt lat="47.8012" lon="-3.52426">
        <ele>23.54</ele>
        <time>2020-07-08T12:04:24Z</time>
      </trkpt>
      <trkpt lat="47.80117" lon="-3.52425">
        <ele>23.31</ele>
        <time>2020-07-08T12:04:25Z</time>
      </trkpt>
      <trkpt lat="47.80114" lon="-3.52423">
        <ele>22.89</ele>
        <time>2020-07-08T12:04:26Z</time>
      </trkpt>
      <trkpt lat="47.80111" lon="-3.52419">
        <ele>22.17</ele>
        <time>2020-07-08T12:04:27Z</time>
      </trkpt>
      <trkpt lat="47.80109" lon="-3.52416">
        <ele>21.42</ele>
        <time>2020-07-08T12:04:28Z</time>
      </trkpt>
      <trkpt lat="47.80106" lon="-3.52413">
        <ele>20.41</ele>
        <time>2020-07-08T12:04:29Z</time>
      </trkpt>
      <trkpt lat="47.80103" lon="-3.5241">
        <ele>19.5</ele>
        <time>2020-07-08T12:04:30Z</time>
      </trkpt>
      <trkpt lat="47.80099" lon="-3.52407">
        <ele>18.7</ele>
        <time>2020-07-08T12:04:31Z</time>
      </trkpt>
      <trkpt lat="47.80095" lon="-3.52404">
        <ele>17.91</ele>
        <time>2020-07-08T12:04:32Z</time>
      </trkpt>
      <trkpt lat="47.8009" lon="-3.524">
        <ele>17.01</ele>
        <time>2020-07-08T12:04:33Z</time>
      </trkpt>
      <trkpt lat="47.80086" lon="-3.52396">
        <ele>16.09</ele>
        <time>2020-07-08T12:04:34Z</time>
      </trkpt>
      <trkpt lat="47.8008" lon="-3.52393">
        <ele>15.65</ele>
        <time>2020-07-08T12:04:35Z</time>
      </trkpt>
      <trkpt lat="47.80076" lon="-3.52391">
        <ele>15.88</ele>
        <time>2020-07-08T12:04:36Z</time>
      </trkpt>
      <trkpt lat="47.80072" lon="-3.52389">
        <ele>16.29</ele>
        <time>2020-07-08T12:04:37Z</time>
      </trkpt>
      <trkpt lat="47.80068" lon="-3.52387">
        <ele>16.66</ele>
        <time>2020-07-08T12:04:38Z</time>
      </trkpt>
      <trkpt lat="47.80064" lon="-3.52386">
        <ele>17.17</ele>
        <time>2020-07-08T12:04:39Z</time>
      </trkpt>
      <trkpt lat="47.80061" lon="-3.52385">
        <ele>17.78</ele>
        <time>2020-07-08T12:04:40Z</time>
      </trkpt>
      <trkpt lat="47.80058" lon="-3.52384">
        <ele>18.23</ele>
        <time>2020-07-08T12:04:41Z</time>
      </trkpt>
      <trkpt lat="47.80055" lon="-3.52383">
        <ele>18.44</ele>
        <time>2020-07-08T12:04:42Z</time>
      </trkpt>
      <trkpt lat="47.80052" lon="-3.52381">
        <ele>18.64</ele>
        <time>2020-07-08T12:04:43Z</time>
      </trkpt>
      <trkpt lat="47.80048" lon="-3.5238">
        <ele>19.22</ele>
        <time>2020-07-08T12:04:44Z</time>
      </trkpt>
      <trkpt lat="47.80044" lon="-3.52378">
        <ele>19.81</ele>
        <time>2020-07-08T12:04:45Z</time>
      </trkpt>
      <trkpt lat="47.80041" lon="-3.52377">
        <ele>20.2</ele>
        <time>2020-07-08T12:04:46Z</time>
      </trkpt>
      <trkpt lat="47.80038" lon="-3.52374">
        <ele>20.29</ele>
        <time>2020-07-08T12:04:47Z</time>
      </trkpt>
      <trkpt lat="47.80036" lon="-3.52371">
        <ele>20.34</ele>
        <time>2020-07-08T12:04:48Z</time>
      </trkpt>
      <trkpt lat="47.80033" lon="-3.52369">
        <ele>20.45</ele>
        <time>2020-07-08T12:04:49Z</time>
      </trkpt>
      <trkpt lat="47.80031" lon="-3.52367">
        <ele>20.55</ele>
        <time>2020-07-08T12:04:50Z</time>
      </trkpt>
      <trkpt lat="47.80029" lon="-3.52365">
        <ele>20.62</ele>
        <time>2020-07-08T12:04:51Z</time>
      </trkpt>
      <trkpt lat="47.80026" lon="-3.52361">
        <ele>20.52</ele>
        <time>2020-07-08T12:04:52Z</time>
      </trkpt>
      <trkpt lat="47.80021" lon="-3.52357">
        <ele>20.05</ele>
        <time>2020-07-08T12:04:53Z</time>
      </trkpt>
      <trkpt lat="47.80017" lon="-3.52353">
        <ele>19.51</ele>
        <time>2020-07-08T12:04:54Z</time>
      </trkpt>
      <trkpt lat="47.80013" lon="-3.5235">
        <ele>19.25</ele>
        <time>2020-07-08T12:04:55Z</time>
      </trkpt>
      <trkpt lat="47.8001" lon="-3.52347">
        <ele>19.26</ele>
        <time>2020-07-08T12:04:56Z</time>
      </trkpt>
      <trkpt lat="47.80007" lon="-3.52346">
        <ele>19.38</ele>
        <time>2020-07-08T12:04:57Z</time>
      </trkpt>
      <trkpt lat="47.80004" lon="-3.52343">
        <ele>19.46</ele>
        <time>2020-07-08T12:04:58Z</time>
      </trkpt>
      <trkpt lat="47.80002" lon="-3.52341">
        <ele>19.57</ele>
        <time>2020-07-08T12:04:59Z</time>
      </trkpt>
      <trkpt lat="47.8" lon="-3.5234">
        <ele>19.77</ele>
        <time>2020-07-08T12:05:00Z</time>
      </trkpt>
      <trkpt lat="47.79998" lon="-3.52337">
        <ele>19.57</ele>
        <time>2020-07-08T12:05:01Z</time>
      </trkpt>
      <trkpt lat="47.79998" lon="-3.52337">
        <ele>19.45</ele>
        <time>2020-07-08T12:05:02Z</time>
      </trkpt>
      <trkpt lat="47.79998" lon="-3.52337">
        <ele>19.43</ele>
        <time>2020-07-08T12:05:03Z</time>
      </trkpt>
      <trkpt lat="47.79998" lon="-3.52337">
        <ele>19.42</ele>
        <time>2020-07-08T12:05:04Z</time>
      </trkpt>
      <trkpt lat="47.79998" lon="-3.52337">
        <ele>19.42</ele>
        <time>2020-07-08T12:05:05Z</time>
      </trkpt>
      <trkpt lat="47.79998" lon="-3.52337">
        <ele>19.42</ele>
        <time>2020-07-08T12:05:06Z</time>
      </trkpt>
      <trkpt lat="47.79998" lon="-3.52337">
        <ele>19.42</ele>
        <time>2020-07-08T12:05:07Z</time>
      </trkpt>
      <trkpt lat="47.79998" lon="-3.52337">
        <ele>19.42</ele>
        <time>2020-07-08T12:05:08Z</time>
      </trkpt>
      <trkpt lat="47.79998" lon="-3.52337">
        <ele>19.42</ele>
        <time>2020-07-08T12:05:09Z</time>
      </trkpt>
      <trkpt lat="47.79998" lon="-3.52337">
        <ele>19.42</ele>
        <time>2020-07-08T12:05:10Z</time>
      </trkpt>
      <trkpt lat="47.79998" lon="-3.52337">
        <ele>19.42</ele>
        <time>2020-07-08T12:05:11Z</time>
      </trkpt>
      <trkpt lat="47.79998" lon="-3.52337">
        <ele>19.42</ele>
        <time>2020-07-08T12:05:12Z</time>
      </trkpt>
      <trkpt lat="47.79998" lon="-3.52337">
        <ele>19.42</ele>
        <time>2020-07-08T12:05:13Z</time>
      </trkpt>
      <trkpt lat="47.79998" lon="-3.52337">
        <ele>19.42</ele>
        <time>2020-07-08T12:05:14Z</time>
      </trkpt>
      <trkpt lat="47.79998" lon="-3.52337">
        <ele>19.42</ele>
        <time>2020-07-08T12:05:15Z</time>
      </trkpt>
      <trkpt lat="47.79998" lon="-3.52337">
        <ele>19.42</ele>
        <time>2020-07-08T12:05:16Z</time>
      </trkpt>
      <trkpt lat="47.79998" lon="-3.52337">
        <ele>19.42</ele>
        <time>2020-07-08T12:05:17Z</time>
      </trkpt>
      <trkpt lat="47.79998" lon="-3.52337">
        <ele>19.42</ele>
        <time>2020-07-08T12:05:18Z</time>
      </trkpt>
      <trkpt lat="47.79998" lon="-3.52337">
        <ele>19.42</ele>
        <time>2020-07-08T12:05:19Z</time>
      </trkpt>
      <trkpt lat="47.79998" lon="-3.52337">
        <ele>19.42</ele>
        <time>2020-07-08T12:05:20Z</time>
      </trkpt>
      <trkpt lat="47.79998" lon="-3.52337">
        <ele>19.42</ele>
        <time>2020-07-08T12:05:21Z</time>
      </trkpt>
      <trkpt lat="47.79993" lon="-3.52325">
        <ele>17.58</ele>
        <time>2020-07-08T12:05:22Z</time>
      </trkpt>
      <trkpt lat="47.79992" lon="-3.52324">
        <ele>16.94</ele>
        <time>2020-07-08T12:05:23Z</time>
      </trkpt>
      <trkpt lat="47.79992" lon="-3.52324">
        <ele>16.67</ele>
        <time>2020-07-08T12:05:24Z</time>
      </trkpt>
      <trkpt lat="47.79992" lon="-3.52323">
        <ele>16.62</ele>
        <time>2020-07-08T12:05:25Z</time>
      </trkpt>
      <trkpt lat="47.79992" lon="-3.52323">
        <ele>16.6</ele>
        <time>2020-07-08T12:05:26Z</time>
      </trkpt>
      <trkpt lat="47.79992" lon="-3.52323">
        <ele>16.6</ele>
        <time>2020-07-08T12:05:27Z</time>
      </trkpt>
      <trkpt lat="47.79992" lon="-3.52323">
        <ele>16.6</ele>
        <time>2020-07-08T12:05:28Z</time>
      </trkpt>
      <trkpt lat="47.79992" lon="-3.52323">
        <ele>16.6</ele>
        <time>2020-07-08T12:05:29Z</time>
      </trkpt>
      <trkpt lat="47.79992" lon="-3.52323">
        <ele>16.6</ele>
        <time>2020-07-08T12:05:30Z</time>
      </trkpt>
      <trkpt lat="47.79986" lon="-3.52319">
        <ele>17.05</ele>
        <time>2020-07-08T12:05:31Z</time>
      </trkpt>
      <trkpt lat="47.79983" lon="-3.52316">
        <ele>17.29</ele>
        <time>2020-07-08T12:05:32Z</time>
      </trkpt>
      <trkpt lat="47.7998" lon="-3.52311">
        <ele>17.36</ele>
        <time>2020-07-08T12:05:33Z</time>
      </trkpt>
      <trkpt lat="47.79979" lon="-3.52307">
        <ele>16.99</ele>
        <time>2020-07-08T12:05:34Z</time>
      </trkpt>
      <trkpt lat="47.79978" lon="-3.52301">
        <ele>16.47</ele>
        <time>2020-07-08T12:05:35Z</time>
      </trkpt>
      <trkpt lat="47.79977" lon="-3.52296">
        <ele>15.96</ele>
        <time>2020-07-08T12:05:36Z</time>
      </trkpt>
      <trkpt lat="47.79976" lon="-3.5229">
        <ele>15.4</ele>
        <time>2020-07-08T12:05:37Z</time>
      </trkpt>
      <trkpt lat="47.79975" lon="-3.52286">
        <ele>14.9</ele>
        <time>2020-07-08T12:05:38Z</time>
      </trkpt>
      <trkpt lat="47.79974" lon="-3.5228">
        <ele>14.23</ele>
        <time>2020-07-08T12:05:39Z</time>
      </trkpt>
      <trkpt lat="47.79974" lon="-3.52275">
        <ele>13.18</ele>
        <time>2020-07-08T12:05:40Z</time>
      </trkpt>
      <trkpt lat="47.79975" lon="-3.52269">
        <ele>12</ele>
        <time>2020-07-08T12:05:41Z</time>
      </trkpt>
      <trkpt lat="47.79977" lon="-3.52263">
        <ele>10.49</ele>
        <time>2020-07-08T12:05:42Z</time>
      </trkpt>
      <trkpt lat="47.7998" lon="-3.52259">
        <ele>9.09</ele>
        <time>2020-07-08T12:05:43Z</time>
      </trkpt>
      <trkpt lat="47.79982" lon="-3.52255">
        <ele>7.9</ele>
        <time>2020-07-08T12:05:44Z</time>
      </trkpt>
      <trkpt lat="47.79983" lon="-3.52252">
        <ele>6.93</ele>
        <time>2020-07-08T12:05:45Z</time>
      </trkpt>
      <trkpt lat="47.79984" lon="-3.52248">
        <ele>6.21</ele>
        <time>2020-07-08T12:05:46Z</time>
      </trkpt>
      <trkpt lat="47.79985" lon="-3.52244">
        <ele>5.67</ele>
        <time>2020-07-08T12:05:47Z</time>
      </trkpt>
      <trkpt lat="47.79985" lon="-3.52239">
        <ele>5.14</ele>
        <time>2020-07-08T12:05:48Z</time>
      </trkpt>
      <trkpt lat="47.79985" lon="-3.52234">
        <ele>4.72</ele>
        <time>2020-07-08T12:05:49Z</time>
      </trkpt>
      <trkpt lat="47.79984" lon="-3.52229">
        <ele>4.49</ele>
        <time>2020-07-08T12:05:50Z</time>
      </trkpt>
      <trkpt lat="47.79983" lon="-3.52224">
        <ele>4.31</ele>
        <time>2020-07-08T12:05:51Z</time>
      </trkpt>
      <trkpt lat="47.7998" lon="-3.52218">
        <ele>4.21</ele>
        <time>2020-07-08T12:05:52Z</time>
      </trkpt>
      <trkpt lat="47.79978" lon="-3.52211">
        <ele>3.94</ele>
        <time>2020-07-08T12:05:53Z</time>
      </trkpt>
      <trkpt lat="47.79977" lon="-3.52203">
        <ele>3.53</ele>
        <time>2020-07-08T12:05:54Z</time>
      </trkpt>
      <trkpt lat="47.79974" lon="-3.52195">
        <ele>3.06</ele>
        <time>2020-07-08T12:05:55Z</time>
      </trkpt>
      <trkpt lat="47.79972" lon="-3.52188">
        <ele>2.56</ele>
        <time>2020-07-08T12:05:56Z</time>
      </trkpt>
      <trkpt lat="47.7997" lon="-3.52183">
        <ele>2.08</ele>
        <time>2020-07-08T12:05:57Z</time>
      </trkpt>
      <trkpt lat="47.79967" lon="-3.52178">
        <ele>1.77</ele>
        <time>2020-07-08T12:05:58Z</time>
      </trkpt>
      <trkpt lat="47.79963" lon="-3.52175">
        <ele>1.65</ele>
        <time>2020-07-08T12:05:59Z</time>
      </trkpt>
      <trkpt lat="47.79959" lon="-3.52174">
        <ele>1.69</ele>
        <time>2020-07-08T12:06:00Z</time>
      </trkpt>
      <trkpt lat="47.79956" lon="-3.52173">
        <ele>1.81</ele>
        <time>2020-07-08T12:06:01Z</time>
      </trkpt>
      <trkpt lat="47.79953" lon="-3.52174">
        <ele>2.06</ele>
        <time>2020-07-08T12:06:02Z</time>
      </trkpt>
      <trkpt lat="47.79951" lon="-3.52176">
        <ele>2.38</ele>
        <time>2020-07-08T12:06:03Z</time>
      </trkpt>
      <trkpt lat="47.79948" lon="-3.52177">
        <ele>2.76</ele>
        <time>2020-07-08T12:06:04Z</time>
      </trkpt>
      <trkpt lat="47.79944" lon="-3.52176">
        <ele>2.93</ele>
        <time>2020-07-08T12:06:05Z</time>
      </trkpt>
      <trkpt lat="47.79941" lon="-3.52175">
        <ele>2.82</ele>
        <time>2020-07-08T12:06:06Z</time>
      </trkpt>
      <trkpt lat="47.79937" lon="-3.52176">
        <ele>2.73</ele>
        <time>2020-07-08T12:06:07Z</time>
      </trkpt>
      <trkpt lat="47.79935" lon="-3.52177">
        <ele>2.79</ele>
        <time>2020-07-08T12:06:08Z</time>
      </trkpt>
      <trkpt lat="47.79932" lon="-3.5218">
        <ele>2.97</ele>
        <time>2020-07-08T12:06:09Z</time>
      </trkpt>
      <trkpt lat="47.79929" lon="-3.52183">
        <ele>3.17</ele>
        <time>2020-07-08T12:06:10Z</time>
      </trkpt>
      <trkpt lat="47.79926" lon="-3.52185">
        <ele>3.31</ele>
        <time>2020-07-08T12:06:11Z</time>
      </trkpt>
      <trkpt lat="47.79924" lon="-3.52186">
        <ele>3.35</ele>
        <time>2020-07-08T12:06:12Z</time>
      </trkpt>
      <trkpt lat="47.79921" lon="-3.52188">
        <ele>3.42</ele>
        <time>2020-07-08T12:06:13Z</time>
      </trkpt>
      <trkpt lat="47.79919" lon="-3.52189">
        <ele>3.5</ele>
        <time>2020-07-08T12:06:14Z</time>
      </trkpt>
      <trkpt lat="47.79916" lon="-3.52191">
        <ele>3.55</ele>
        <time>2020-07-08T12:06:15Z</time>
      </trkpt>
      <trkpt lat="47.79912" lon="-3.52193">
        <ele>3.51</ele>
        <time>2020-07-08T12:06:16Z</time>
      </trkpt>
      <trkpt lat="47.79909" lon="-3.52194">
        <ele>3.43</ele>
        <time>2020-07-08T12:06:17Z</time>
      </trkpt>
      <trkpt lat="47.79905" lon="-3.52196">
        <ele>3.4</ele>
        <time>2020-07-08T12:06:18Z</time>
      </trkpt>
      <trkpt lat="47.79901" lon="-3.52197">
        <ele>3.3</ele>
        <time>2020-07-08T12:06:19Z</time>
      </trkpt>
      <trkpt lat="47.79897" lon="-3.52199">
        <ele>3.17</ele>
        <time>2020-07-08T12:06:20Z</time>
      </trkpt>
      <trkpt lat="47.79894" lon="-3.522">
        <ele>3.07</ele>
        <time>2020-07-08T12:06:21Z</time>
      </trkpt>
      <trkpt lat="47.79891" lon="-3.52202">
        <ele>2.99</ele>
        <time>2020-07-08T12:06:22Z</time>
      </trkpt>
      <trkpt lat="47.79887" lon="-3.52204">
        <ele>2.95</ele>
        <time>2020-07-08T12:06:23Z</time>
      </trkpt>
      <trkpt lat="47.79884" lon="-3.52204">
        <ele>2.87</ele>
        <time>2020-07-08T12:06:24Z</time>
      </trkpt>
      <trkpt lat="47.79881" lon="-3.52206">
        <ele>2.82</ele>
        <time>2020-07-08T12:06:25Z</time>
      </trkpt>
      <trkpt lat="47.79878" lon="-3.52206">
        <ele>2.75</ele>
        <time>2020-07-08T12:06:26Z</time>
      </trkpt>
      <trkpt lat="47.79874" lon="-3.52207">
        <ele>2.65</ele>
        <time>2020-07-08T12:06:27Z</time>
      </trkpt>
      <trkpt lat="47.79867" lon="-3.52211">
        <ele>2.6</ele>
        <time>2020-07-08T12:06:29Z</time>
      </trkpt>
      <trkpt lat="47.79865" lon="-3.52214">
        <ele>2.62</ele>
        <time>2020-07-08T12:06:30Z</time>
      </trkpt>
      <trkpt lat="47.79863" lon="-3.52217">
        <ele>2.69</ele>
        <time>2020-07-08T12:06:31Z</time>
      </trkpt>
      <trkpt lat="47.79861" lon="-3.5222">
        <ele>2.76</ele>
        <time>2020-07-08T12:06:32Z</time>
      </trkpt>
      <trkpt lat="47.79858" lon="-3.52222">
        <ele>2.75</ele>
        <time>2020-07-08T12:06:33Z</time>
      </trkpt>
      <trkpt lat="47.79855" lon="-3.52224">
        <ele>2.78</ele>
        <time>2020-07-08T12:06:34Z</time>
      </trkpt>
      <trkpt lat="47.79851" lon="-3.52226">
        <ele>2.81</ele>
        <time>2020-07-08T12:06:35Z</time>
      </trkpt>
      <trkpt lat="47.79848" lon="-3.52229">
        <ele>2.82</ele>
        <time>2020-07-08T12:06:36Z</time>
      </trkpt>
      <trkpt lat="47.79845" lon="-3.52232">
        <ele>2.87</ele>
        <time>2020-07-08T12:06:37Z</time>
      </trkpt>
      <trkpt lat="47.79843" lon="-3.52236">
        <ele>2.96</ele>
        <time>2020-07-08T12:06:38Z</time>
      </trkpt>
      <trkpt lat="47.79842" lon="-3.52239">
        <ele>3.12</ele>
        <time>2020-07-08T12:06:39Z</time>
      </trkpt>
      <trkpt lat="47.79841" lon="-3.52242">
        <ele>3.29</ele>
        <time>2020-07-08T12:06:40Z</time>
      </trkpt>
      <trkpt lat="47.7984" lon="-3.52245">
        <ele>3.47</ele>
        <time>2020-07-08T12:06:41Z</time>
      </trkpt>
      <trkpt lat="47.7984" lon="-3.52247">
        <ele>3.63</ele>
        <time>2020-07-08T12:06:42Z</time>
      </trkpt>
      <trkpt lat="47.79839" lon="-3.5225">
        <ele>3.76</ele>
        <time>2020-07-08T12:06:43Z</time>
      </trkpt>
      <trkpt lat="47.79838" lon="-3.52253">
        <ele>4.05</ele>
        <time>2020-07-08T12:06:44Z</time>
      </trkpt>
      <trkpt lat="47.79837" lon="-3.52256">
        <ele>4.27</ele>
        <time>2020-07-08T12:06:45Z</time>
      </trkpt>
      <trkpt lat="47.79836" lon="-3.52258">
        <ele>4.46</ele>
        <time>2020-07-08T12:06:46Z</time>
      </trkpt>
      <trkpt lat="47.79834" lon="-3.52261">
        <ele>4.57</ele>
        <time>2020-07-08T12:06:47Z</time>
      </trkpt>
      <trkpt lat="47.79831" lon="-3.52263">
        <ele>4.56</ele>
        <time>2020-07-08T12:06:48Z</time>
      </trkpt>
      <trkpt lat="47.79828" lon="-3.52265">
        <ele>4.44</ele>
        <time>2020-07-08T12:06:49Z</time>
      </trkpt>
      <trkpt lat="47.79825" lon="-3.52268">
        <ele>4.17</ele>
        <time>2020-07-08T12:06:50Z</time>
      </trkpt>
      <trkpt lat="47.79822" lon="-3.5227">
        <ele>3.85</ele>
        <time>2020-07-08T12:06:51Z</time>
      </trkpt>
      <trkpt lat="47.79819" lon="-3.52273">
        <ele>3.6</ele>
        <time>2020-07-08T12:06:52Z</time>
      </trkpt>
      <trkpt lat="47.79817" lon="-3.52276">
        <ele>3.38</ele>
        <time>2020-07-08T12:06:53Z</time>
      </trkpt>
      <trkpt lat="47.79815" lon="-3.52279">
        <ele>3.3</ele>
        <time>2020-07-08T12:06:54Z</time>
      </trkpt>
      <trkpt lat="47.79813" lon="-3.52283">
        <ele>3.39</ele>
        <time>2020-07-08T12:06:55Z</time>
      </trkpt>
      <trkpt lat="47.79811" lon="-3.52286">
        <ele>3.48</ele>
        <time>2020-07-08T12:06:56Z</time>
      </trkpt>
      <trkpt lat="47.7981" lon="-3.52289">
        <ele>3.52</ele>
        <time>2020-07-08T12:06:57Z</time>
      </trkpt>
      <trkpt lat="47.79807" lon="-3.52292">
        <ele>3.47</ele>
        <time>2020-07-08T12:06:58Z</time>
      </trkpt>
      <trkpt lat="47.79806" lon="-3.52295">
        <ele>3.62</ele>
        <time>2020-07-08T12:06:59Z</time>
      </trkpt>
      <trkpt lat="47.79806" lon="-3.52299">
        <ele>4.09</ele>
        <time>2020-07-08T12:07:00Z</time>
      </trkpt>
      <trkpt lat="47.79805" lon="-3.52303">
        <ele>4.46</ele>
        <time>2020-07-08T12:07:01Z</time>
      </trkpt>
      <trkpt lat="47.79805" lon="-3.52308">
        <ele>5.02</ele>
        <time>2020-07-08T12:07:02Z</time>
      </trkpt>
      <trkpt lat="47.79805" lon="-3.52311">
        <ele>5.4</ele>
        <time>2020-07-08T12:07:03Z</time>
      </trkpt>
      <trkpt lat="47.79804" lon="-3.52312">
        <ele>5.54</ele>
        <time>2020-07-08T12:07:04Z</time>
      </trkpt>
      <trkpt lat="47.79804" lon="-3.52312">
        <ele>5.59</ele>
        <time>2020-07-08T12:07:05Z</time>
      </trkpt>
      <trkpt lat="47.79804" lon="-3.52311">
        <ele>5.57</ele>
        <time>2020-07-08T12:07:06Z</time>
      </trkpt>
      <trkpt lat="47.79804" lon="-3.52311">
        <ele>5.56</ele>
        <time>2020-07-08T12:07:07Z</time>
      </trkpt>
      <trkpt lat="47.79804" lon="-3.52311">
        <ele>5.56</ele>
        <time>2020-07-08T12:07:08Z</time>
      </trkpt>
      <trkpt lat="47.79804" lon="-3.52311">
        <ele>5.56</ele>
        <time>2020-07-08T12:07:09Z</time>
      </trkpt>
      <trkpt lat="47.79804" lon="-3.52311">
        <ele>5.56</ele>
        <time>2020-07-08T12:07:10Z</time>
      </trkpt>
      <trkpt lat="47.79804" lon="-3.52311">
        <ele>5.56</ele>
        <time>2020-07-08T12:07:11Z</time>
      </trkpt>
      <trkpt lat="47.79804" lon="-3.52311">
        <ele>5.56</ele>
        <time>2020-07-08T12:07:12Z</time>
      </trkpt>
      <trkpt lat="47.79804" lon="-3.52311">
        <ele>5.56</ele>
        <time>2020-07-08T12:07:13Z</time>
      </trkpt>
      <trkpt lat="47.79804" lon="-3.52311">
        <ele>5.56</ele>
        <time>2020-07-08T12:07:14Z</time>
      </trkpt>
      <trkpt lat="47.79804" lon="-3.52311">
        <ele>5.56</ele>
        <time>2020-07-08T12:07:15Z</time>
      </trkpt>
      <trkpt lat="47.79804" lon="-3.52311">
        <ele>5.56</ele>
        <time>2020-07-08T12:07:16Z</time>
      </trkpt>
      <trkpt lat="47.79804" lon="-3.52311">
        <ele>5.56</ele>
        <time>2020-07-08T12:07:17Z</time>
      </trkpt>
      <trkpt lat="47.79804" lon="-3.52311">
        <ele>5.56</ele>
        <time>2020-07-08T12:07:18Z</time>
      </trkpt>
      <trkpt lat="47.79804" lon="-3.52311">
        <ele>5.56</ele>
        <time>2020-07-08T12:07:19Z</time>
      </trkpt>
      <trkpt lat="47.79804" lon="-3.52311">
        <ele>5.56</ele>
        <time>2020-07-08T12:07:20Z</time>
      </trkpt>
      <trkpt lat="47.79804" lon="-3.52311">
        <ele>5.56</ele>
        <time>2020-07-08T12:07:21Z</time>
      </trkpt>
      <trkpt lat="47.79804" lon="-3.52311">
        <ele>5.56</ele>
        <time>2020-07-08T12:07:22Z</time>
      </trkpt>
      <trkpt lat="47.79804" lon="-3.52311">
        <ele>5.56</ele>
        <time>2020-07-08T12:07:23Z</time>
      </trkpt>
      <trkpt lat="47.79804" lon="-3.52311">
        <ele>5.56</ele>
        <time>2020-07-08T12:07:24Z</time>
      </trkpt>
      <trkpt lat="47.79804" lon="-3.52311">
        <ele>5.56</ele>
        <time>2020-07-08T12:07:25Z</time>
      </trkpt>
      <trkpt lat="47.79804" lon="-3.52311">
        <ele>5.56</ele>
        <time>2020-07-08T12:07:26Z</time>
      </trkpt>
      <trkpt lat="47.79804" lon="-3.52311">
        <ele>5.56</ele>
        <time>2020-07-08T12:07:27Z</time>
      </trkpt>
      <trkpt lat="47.79804" lon="-3.52311">
        <ele>5.56</ele>
        <time>2020-07-08T12:07:28Z</time>
      </trkpt>
      <trkpt lat="47.79804" lon="-3.52311">
        <ele>5.56</ele>
        <time>2020-07-08T12:07:29Z</time>
      </trkpt>
      <trkpt lat="47.79804" lon="-3.52311">
        <ele>5.56</ele>
        <time>2020-07-08T12:07:30Z</time>
      </trkpt>
      <trkpt lat="47.79804" lon="-3.52311">
        <ele>5.56</ele>
        <time>2020-07-08T12:07:31Z</time>
      </trkpt>
      <trkpt lat="47.79804" lon="-3.52311">
        <ele>5.56</ele>
        <time>2020-07-08T12:07:32Z</time>
      </trkpt>
      <trkpt lat="47.79804" lon="-3.52311">
        <ele>5.56</ele>
        <time>2020-07-08T12:07:33Z</time>
      </trkpt>
      <trkpt lat="47.79804" lon="-3.52311">
        <ele>5.56</ele>
        <time>2020-07-08T12:07:34Z</time>
      </trkpt>
      <trkpt lat="47.79804" lon="-3.52311">
        <ele>5.56</ele>
        <time>2020-07-08T12:07:35Z</time>
      </trkpt>
      <trkpt lat="47.79804" lon="-3.52311">
        <ele>5.56</ele>
        <time>2020-07-08T12:07:36Z</time>
      </trkpt>
      <trkpt lat="47.79804" lon="-3.52311">
        <ele>5.56</ele>
        <time>2020-07-08T12:07:37Z</time>
      </trkpt>
      <trkpt lat="47.79804" lon="-3.52311">
        <ele>5.56</ele>
        <time>2020-07-08T12:07:38Z</time>
      </trkpt>
      <trkpt lat="47.79804" lon="-3.52311">
        <ele>5.56</ele>
        <time>2020-07-08T12:07:39Z</time>
      </trkpt>
      <trkpt lat="47.79804" lon="-3.52311">
        <ele>5.56</ele>
        <time>2020-07-08T12:07:40Z</time>
      </trkpt>
      <trkpt lat="47.79804" lon="-3.52311">
        <ele>5.56</ele>
        <time>2020-07-08T12:07:41Z</time>
      </trkpt>
      <trkpt lat="47.79804" lon="-3.52311">
        <ele>5.56</ele>
        <time>2020-07-08T12:07:42Z</time>
      </trkpt>
      <trkpt lat="47.79804" lon="-3.52311">
        <ele>5.56</ele>
        <time>2020-07-08T12:07:43Z</time>
      </trkpt>
      <trkpt lat="47.79804" lon="-3.52311">
        <ele>5.56</ele>
        <time>2020-07-08T12:07:44Z</time>
      </trkpt>
      <trkpt lat="47.79804" lon="-3.52311">
        <ele>5.56</ele>
        <time>2020-07-08T12:07:45Z</time>
      </trkpt>
      <trkpt lat="47.79804" lon="-3.52311">
        <ele>5.56</ele>
        <time>2020-07-08T12:07:46Z</time>
      </trkpt>
      <trkpt lat="47.79801" lon="-3.52317">
        <ele>5.78</ele>
        <time>2020-07-08T12:07:47Z</time>
      </trkpt>
      <trkpt lat="47.798" lon="-3.52318">
        <ele>5.89</ele>
        <time>2020-07-08T12:07:48Z</time>
      </trkpt>
      <trkpt lat="47.79798" lon="-3.5232">
        <ele>5.85</ele>
        <time>2020-07-08T12:07:49Z</time>
      </trkpt>
      <trkpt lat="47.79797" lon="-3.52321">
        <ele>5.87</ele>
        <time>2020-07-08T12:07:50Z</time>
      </trkpt>
      <trkpt lat="47.79795" lon="-3.52324">
        <ele>6.02</ele>
        <time>2020-07-08T12:07:51Z</time>
      </trkpt>
      <trkpt lat="47.79792" lon="-3.52327">
        <ele>6.1</ele>
        <time>2020-07-08T12:07:52Z</time>
      </trkpt>
      <trkpt lat="47.7979" lon="-3.52331">
        <ele>6.35</ele>
        <time>2020-07-08T12:07:53Z</time>
      </trkpt>
      <trkpt lat="47.79789" lon="-3.52334">
        <ele>6.49</ele>
        <time>2020-07-08T12:07:54Z</time>
      </trkpt>
      <trkpt lat="47.7979" lon="-3.52338">
        <ele>6.4</ele>
        <time>2020-07-08T12:07:55Z</time>
      </trkpt>
      <trkpt lat="47.7979" lon="-3.52341">
        <ele>6.34</ele>
        <time>2020-07-08T12:07:56Z</time>
      </trkpt>
      <trkpt lat="47.79791" lon="-3.52343">
        <ele>6.27</ele>
        <time>2020-07-08T12:07:57Z</time>
      </trkpt>
      <trkpt lat="47.79791" lon="-3.52344">
        <ele>6.25</ele>
        <time>2020-07-08T12:07:58Z</time>
      </trkpt>
      <trkpt lat="47.79791" lon="-3.52346">
        <ele>6.25</ele>
        <time>2020-07-08T12:07:59Z</time>
      </trkpt>
      <trkpt lat="47.79791" lon="-3.52349">
        <ele>6.12</ele>
        <time>2020-07-08T12:08:00Z</time>
      </trkpt>
      <trkpt lat="47.79791" lon="-3.52352">
        <ele>5.79</ele>
        <time>2020-07-08T12:08:01Z</time>
      </trkpt>
      <trkpt lat="47.7979" lon="-3.52355">
        <ele>5.42</ele>
        <time>2020-07-08T12:08:02Z</time>
      </trkpt>
      <trkpt lat="47.79789" lon="-3.52359">
        <ele>4.76</ele>
        <time>2020-07-08T12:08:03Z</time>
      </trkpt>
      <trkpt lat="47.79788" lon="-3.52363">
        <ele>4.23</ele>
        <time>2020-07-08T12:08:04Z</time>
      </trkpt>
      <trkpt lat="47.79787" lon="-3.52368">
        <ele>4.04</ele>
        <time>2020-07-08T12:08:05Z</time>
      </trkpt>
      <trkpt lat="47.79787" lon="-3.52372">
        <ele>4.09</ele>
        <time>2020-07-08T12:08:06Z</time>
      </trkpt>
      <trkpt lat="47.79788" lon="-3.52377">
        <ele>4.41</ele>
        <time>2020-07-08T12:08:07Z</time>
      </trkpt>
      <trkpt lat="47.79789" lon="-3.52382">
        <ele>4.96</ele>
        <time>2020-07-08T12:08:08Z</time>
      </trkpt>
      <trkpt lat="47.7979" lon="-3.52386">
        <ele>5.49</ele>
        <time>2020-07-08T12:08:09Z</time>
      </trkpt>
      <trkpt lat="47.7979" lon="-3.5239">
        <ele>5.8</ele>
        <time>2020-07-08T12:08:10Z</time>
      </trkpt>
      <trkpt lat="47.79791" lon="-3.52394">
        <ele>6.03</ele>
        <time>2020-07-08T12:08:11Z</time>
      </trkpt>
      <trkpt lat="47.7979" lon="-3.52397">
        <ele>6.06</ele>
        <time>2020-07-08T12:08:12Z</time>
      </trkpt>
      <trkpt lat="47.7979" lon="-3.524">
        <ele>6.07</ele>
        <time>2020-07-08T12:08:13Z</time>
      </trkpt>
      <trkpt lat="47.79791" lon="-3.52404">
        <ele>6.25</ele>
        <time>2020-07-08T12:08:14Z</time>
      </trkpt>
      <trkpt lat="47.79792" lon="-3.52407">
        <ele>6.69</ele>
        <time>2020-07-08T12:08:15Z</time>
      </trkpt>
      <trkpt lat="47.79794" lon="-3.52409">
        <ele>7.28</ele>
        <time>2020-07-08T12:08:16Z</time>
      </trkpt>
      <trkpt lat="47.79795" lon="-3.5241">
        <ele>7.95</ele>
        <time>2020-07-08T12:08:17Z</time>
      </trkpt>
      <trkpt lat="47.79797" lon="-3.5241">
        <ele>8.62</ele>
        <time>2020-07-08T12:08:18Z</time>
      </trkpt>
      <trkpt lat="47.79799" lon="-3.5241">
        <ele>9.25</ele>
        <time>2020-07-08T12:08:19Z</time>
      </trkpt>
      <trkpt lat="47.798" lon="-3.52409">
        <ele>9.61</ele>
        <time>2020-07-08T12:08:20Z</time>
      </trkpt>
      <trkpt lat="47.798" lon="-3.52407">
        <ele>9.79</ele>
        <time>2020-07-08T12:08:21Z</time>
      </trkpt>
      <trkpt lat="47.79801" lon="-3.52405">
        <ele>10.01</ele>
        <time>2020-07-08T12:08:22Z</time>
      </trkpt>
      <trkpt lat="47.79801" lon="-3.52403">
        <ele>10.33</ele>
        <time>2020-07-08T12:08:23Z</time>
      </trkpt>
      <trkpt lat="47.79802" lon="-3.524">
        <ele>10.55</ele>
        <time>2020-07-08T12:08:24Z</time>
      </trkpt>
      <trkpt lat="47.79802" lon="-3.52397">
        <ele>10.65</ele>
        <time>2020-07-08T12:08:25Z</time>
      </trkpt>
      <trkpt lat="47.79803" lon="-3.52394">
        <ele>10.76</ele>
        <time>2020-07-08T12:08:26Z</time>
      </trkpt>
      <trkpt lat="47.79803" lon="-3.52391">
        <ele>10.93</ele>
        <time>2020-07-08T12:08:27Z</time>
      </trkpt>
      <trkpt lat="47.79804" lon="-3.52388">
        <ele>11.22</ele>
        <time>2020-07-08T12:08:28Z</time>
      </trkpt>
      <trkpt lat="47.79805" lon="-3.52384">
        <ele>11.5</ele>
        <time>2020-07-08T12:08:29Z</time>
      </trkpt>
      <trkpt lat="47.79806" lon="-3.52381">
        <ele>11.69</ele>
        <time>2020-07-08T12:08:30Z</time>
      </trkpt>
      <trkpt lat="47.79807" lon="-3.52377">
        <ele>11.76</ele>
        <time>2020-07-08T12:08:31Z</time>
      </trkpt>
      <trkpt lat="47.79807" lon="-3.52374">
        <ele>11.77</ele>
        <time>2020-07-08T12:08:32Z</time>
      </trkpt>
      <trkpt lat="47.79808" lon="-3.5237">
        <ele>11.82</ele>
        <time>2020-07-08T12:08:33Z</time>
      </trkpt>
      <trkpt lat="47.7981" lon="-3.52366">
        <ele>11.89</ele>
        <time>2020-07-08T12:08:34Z</time>
      </trkpt>
      <trkpt lat="47.79811" lon="-3.52363">
        <ele>11.99</ele>
        <time>2020-07-08T12:08:35Z</time>
      </trkpt>
      <trkpt lat="47.79812" lon="-3.52359">
        <ele>12.07</ele>
        <time>2020-07-08T12:08:36Z</time>
      </trkpt>
      <trkpt lat="47.79814" lon="-3.52356">
        <ele>12.13</ele>
        <time>2020-07-08T12:08:37Z</time>
      </trkpt>
      <trkpt lat="47.79815" lon="-3.52353">
        <ele>12.16</ele>
        <time>2020-07-08T12:08:38Z</time>
      </trkpt>
      <trkpt lat="47.79817" lon="-3.5235">
        <ele>12.27</ele>
        <time>2020-07-08T12:08:39Z</time>
      </trkpt>
      <trkpt lat="47.79818" lon="-3.52347">
        <ele>12.41</ele>
        <time>2020-07-08T12:08:40Z</time>
      </trkpt>
      <trkpt lat="47.7982" lon="-3.52343">
        <ele>12.56</ele>
        <time>2020-07-08T12:08:41Z</time>
      </trkpt>
      <trkpt lat="47.79821" lon="-3.5234">
        <ele>12.69</ele>
        <time>2020-07-08T12:08:42Z</time>
      </trkpt>
      <trkpt lat="47.79823" lon="-3.52337">
        <ele>12.8</ele>
        <time>2020-07-08T12:08:43Z</time>
      </trkpt>
      <trkpt lat="47.79824" lon="-3.52333">
        <ele>12.96</ele>
        <time>2020-07-08T12:08:44Z</time>
      </trkpt>
      <trkpt lat="47.79826" lon="-3.52331">
        <ele>13.1</ele>
        <time>2020-07-08T12:08:45Z</time>
      </trkpt>
      <trkpt lat="47.79828" lon="-3.52328">
        <ele>13.28</ele>
        <time>2020-07-08T12:08:46Z</time>
      </trkpt>
      <trkpt lat="47.79831" lon="-3.52325">
        <ele>13.65</ele>
        <time>2020-07-08T12:08:47Z</time>
      </trkpt>
      <trkpt lat="47.79833" lon="-3.52323">
        <ele>13.99</ele>
        <time>2020-07-08T12:08:48Z</time>
      </trkpt>
      <trkpt lat="47.79835" lon="-3.52319">
        <ele>14.1</ele>
        <time>2020-07-08T12:08:49Z</time>
      </trkpt>
      <trkpt lat="47.79837" lon="-3.52317">
        <ele>14.07</ele>
        <time>2020-07-08T12:08:50Z</time>
      </trkpt>
      <trkpt lat="47.79837" lon="-3.52313">
        <ele>13.93</ele>
        <time>2020-07-08T12:08:51Z</time>
      </trkpt>
      <trkpt lat="47.79839" lon="-3.52309">
        <ele>13.74</ele>
        <time>2020-07-08T12:08:52Z</time>
      </trkpt>
      <trkpt lat="47.7984" lon="-3.52305">
        <ele>13.44</ele>
        <time>2020-07-08T12:08:53Z</time>
      </trkpt>
      <trkpt lat="47.79839" lon="-3.52301">
        <ele>12.75</ele>
        <time>2020-07-08T12:08:54Z</time>
      </trkpt>
      <trkpt lat="47.79838" lon="-3.52298">
        <ele>12.14</ele>
        <time>2020-07-08T12:08:55Z</time>
      </trkpt>
      <trkpt lat="47.79836" lon="-3.52298">
        <ele>11.81</ele>
        <time>2020-07-08T12:08:56Z</time>
      </trkpt>
      <trkpt lat="47.79833" lon="-3.52299">
        <ele>11.64</ele>
        <time>2020-07-08T12:08:57Z</time>
      </trkpt>
      <trkpt lat="47.7983" lon="-3.523">
        <ele>11.07</ele>
        <time>2020-07-08T12:08:58Z</time>
      </trkpt>
      <trkpt lat="47.79826" lon="-3.52301">
        <ele>10.45</ele>
        <time>2020-07-08T12:08:59Z</time>
      </trkpt>
      <trkpt lat="47.79823" lon="-3.52303">
        <ele>9.77</ele>
        <time>2020-07-08T12:09:00Z</time>
      </trkpt>
      <trkpt lat="47.7982" lon="-3.52304">
        <ele>9.13</ele>
        <time>2020-07-08T12:09:01Z</time>
      </trkpt>
      <trkpt lat="47.79816" lon="-3.52305">
        <ele>8.35</ele>
        <time>2020-07-08T12:09:02Z</time>
      </trkpt>
      <trkpt lat="47.79813" lon="-3.52306">
        <ele>7.51</ele>
        <time>2020-07-08T12:09:03Z</time>
      </trkpt>
      <trkpt lat="47.79809" lon="-3.52308">
        <ele>6.69</ele>
        <time>2020-07-08T12:09:04Z</time>
      </trkpt>
      <trkpt lat="47.79806" lon="-3.52309">
        <ele>5.91</ele>
        <time>2020-07-08T12:09:05Z</time>
      </trkpt>
      <trkpt lat="47.79802" lon="-3.52311">
        <ele>5.39</ele>
        <time>2020-07-08T12:09:06Z</time>
      </trkpt>
      <trkpt lat="47.79798" lon="-3.52313">
        <ele>4.95</ele>
        <time>2020-07-08T12:09:07Z</time>
      </trkpt>
      <trkpt lat="47.79794" lon="-3.52314">
        <ele>4.55</ele>
        <time>2020-07-08T12:09:08Z</time>
      </trkpt>
      <trkpt lat="47.79791" lon="-3.52315">
        <ele>4.16</ele>
        <time>2020-07-08T12:09:09Z</time>
      </trkpt>
      <trkpt lat="47.79787" lon="-3.52317">
        <ele>3.78</ele>
        <time>2020-07-08T12:09:10Z</time>
      </trkpt>
      <trkpt lat="47.79784" lon="-3.52319">
        <ele>3.46</ele>
        <time>2020-07-08T12:09:11Z</time>
      </trkpt>
      <trkpt lat="47.7978" lon="-3.5232">
        <ele>3.13</ele>
        <time>2020-07-08T12:09:12Z</time>
      </trkpt>
      <trkpt lat="47.79776" lon="-3.52322">
        <ele>2.99</ele>
        <time>2020-07-08T12:09:13Z</time>
      </trkpt>
      <trkpt lat="47.79772" lon="-3.52323">
        <ele>3.23</ele>
        <time>2020-07-08T12:09:14Z</time>
      </trkpt>
      <trkpt lat="47.79768" lon="-3.52325">
        <ele>3.62</ele>
        <time>2020-07-08T12:09:15Z</time>
      </trkpt>
      <trkpt lat="47.79764" lon="-3.52327">
        <ele>3.99</ele>
        <time>2020-07-08T12:09:16Z</time>
      </trkpt>
      <trkpt lat="47.7976" lon="-3.52328">
        <ele>4.37</ele>
        <time>2020-07-08T12:09:17Z</time>
      </trkpt>
      <trkpt lat="47.79755" lon="-3.52329">
        <ele>4.79</ele>
        <time>2020-07-08T12:09:18Z</time>
      </trkpt>
      <trkpt lat="47.79751" lon="-3.52331">
        <ele>5.29</ele>
        <time>2020-07-08T12:09:19Z</time>
      </trkpt>
      <trkpt lat="47.79746" lon="-3.52333">
        <ele>5.54</ele>
        <time>2020-07-08T12:09:20Z</time>
      </trkpt>
      <trkpt lat="47.79742" lon="-3.52335">
        <ele>5.36</ele>
        <time>2020-07-08T12:09:21Z</time>
      </trkpt>
      <trkpt lat="47.79738" lon="-3.52336">
        <ele>5.03</ele>
        <time>2020-07-08T12:09:22Z</time>
      </trkpt>
      <trkpt lat="47.79734" lon="-3.52337">
        <ele>4.74</ele>
        <time>2020-07-08T12:09:23Z</time>
      </trkpt>
      <trkpt lat="47.79729" lon="-3.52339">
        <ele>4.51</ele>
        <time>2020-07-08T12:09:24Z</time>
      </trkpt>
      <trkpt lat="47.79725" lon="-3.5234">
        <ele>4.36</ele>
        <time>2020-07-08T12:09:25Z</time>
      </trkpt>
      <trkpt lat="47.79721" lon="-3.52341">
        <ele>4.28</ele>
        <time>2020-07-08T12:09:26Z</time>
      </trkpt>
      <trkpt lat="47.79716" lon="-3.52343">
        <ele>4.22</ele>
        <time>2020-07-08T12:09:27Z</time>
      </trkpt>
      <trkpt lat="47.79712" lon="-3.52344">
        <ele>4.19</ele>
        <time>2020-07-08T12:09:28Z</time>
      </trkpt>
      <trkpt lat="47.79708" lon="-3.52346">
        <ele>4.17</ele>
        <time>2020-07-08T12:09:29Z</time>
      </trkpt>
      <trkpt lat="47.79704" lon="-3.52347">
        <ele>4.15</ele>
        <time>2020-07-08T12:09:30Z</time>
      </trkpt>
      <trkpt lat="47.797" lon="-3.52348">
        <ele>4.14</ele>
        <time>2020-07-08T12:09:31Z</time>
      </trkpt>
      <trkpt lat="47.79696" lon="-3.52349">
        <ele>4.15</ele>
        <time>2020-07-08T12:09:32Z</time>
      </trkpt>
      <trkpt lat="47.79692" lon="-3.52351">
        <ele>4.1</ele>
        <time>2020-07-08T12:09:33Z</time>
      </trkpt>
      <trkpt lat="47.79689" lon="-3.52352">
        <ele>3.94</ele>
        <time>2020-07-08T12:09:34Z</time>
      </trkpt>
      <trkpt lat="47.79685" lon="-3.52354">
        <ele>3.75</ele>
        <time>2020-07-08T12:09:35Z</time>
      </trkpt>
      <trkpt lat="47.7968" lon="-3.52355">
        <ele>3.53</ele>
        <time>2020-07-08T12:09:36Z</time>
      </trkpt>
      <trkpt lat="47.79675" lon="-3.52357">
        <ele>3.31</ele>
        <time>2020-07-08T12:09:37Z</time>
      </trkpt>
      <trkpt lat="47.7967" lon="-3.52358">
        <ele>3.08</ele>
        <time>2020-07-08T12:09:38Z</time>
      </trkpt>
      <trkpt lat="47.79666" lon="-3.5236">
        <ele>3.03</ele>
        <time>2020-07-08T12:09:39Z</time>
      </trkpt>
      <trkpt lat="47.79662" lon="-3.52361">
        <ele>3.52</ele>
        <time>2020-07-08T12:09:40Z</time>
      </trkpt>
      <trkpt lat="47.79657" lon="-3.52362">
        <ele>4.13</ele>
        <time>2020-07-08T12:09:41Z</time>
      </trkpt>
      <trkpt lat="47.79653" lon="-3.52364">
        <ele>4.81</ele>
        <time>2020-07-08T12:09:42Z</time>
      </trkpt>
      <trkpt lat="47.79649" lon="-3.52366">
        <ele>5.6</ele>
        <time>2020-07-08T12:09:43Z</time>
      </trkpt>
      <trkpt lat="47.79644" lon="-3.52367">
        <ele>6.53</ele>
        <time>2020-07-08T12:09:44Z</time>
      </trkpt>
      <trkpt lat="47.7964" lon="-3.52369">
        <ele>7.5</ele>
        <time>2020-07-08T12:09:45Z</time>
      </trkpt>
      <trkpt lat="47.79636" lon="-3.52371">
        <ele>8.72</ele>
        <time>2020-07-08T12:09:46Z</time>
      </trkpt>
      <trkpt lat="47.79631" lon="-3.52373">
        <ele>10.1</ele>
        <time>2020-07-08T12:09:47Z</time>
      </trkpt>
      <trkpt lat="47.79626" lon="-3.52374">
        <ele>11.41</ele>
        <time>2020-07-08T12:09:48Z</time>
      </trkpt>
      <trkpt lat="47.79621" lon="-3.52376">
        <ele>12.58</ele>
        <time>2020-07-08T12:09:49Z</time>
      </trkpt>
      <trkpt lat="47.79617" lon="-3.52377">
        <ele>13.69</ele>
        <time>2020-07-08T12:09:50Z</time>
      </trkpt>
      <trkpt lat="47.79612" lon="-3.52379">
        <ele>14.68</ele>
        <time>2020-07-08T12:09:51Z</time>
      </trkpt>
      <trkpt lat="47.79608" lon="-3.5238">
        <ele>15.49</ele>
        <time>2020-07-08T12:09:52Z</time>
      </trkpt>
      <trkpt lat="47.79604" lon="-3.52382">
        <ele>16.08</ele>
        <time>2020-07-08T12:09:53Z</time>
      </trkpt>
      <trkpt lat="47.79599" lon="-3.52383">
        <ele>16.61</ele>
        <time>2020-07-08T12:09:54Z</time>
      </trkpt>
      <trkpt lat="47.79595" lon="-3.52385">
        <ele>17.03</ele>
        <time>2020-07-08T12:09:55Z</time>
      </trkpt>
      <trkpt lat="47.79591" lon="-3.52386">
        <ele>17.36</ele>
        <time>2020-07-08T12:09:56Z</time>
      </trkpt>
      <trkpt lat="47.79587" lon="-3.52388">
        <ele>17.68</ele>
        <time>2020-07-08T12:09:57Z</time>
      </trkpt>
      <trkpt lat="47.79583" lon="-3.52389">
        <ele>17.91</ele>
        <time>2020-07-08T12:09:58Z</time>
      </trkpt>
      <trkpt lat="47.7958" lon="-3.5239">
        <ele>18.28</ele>
        <time>2020-07-08T12:09:59Z</time>
      </trkpt>
      <trkpt lat="47.79576" lon="-3.52392">
        <ele>18.62</ele>
        <time>2020-07-08T12:10:00Z</time>
      </trkpt>
      <trkpt lat="47.79574" lon="-3.52395">
        <ele>18.69</ele>
        <time>2020-07-08T12:10:01Z</time>
      </trkpt>
      <trkpt lat="47.79574" lon="-3.52399">
        <ele>18.43</ele>
        <time>2020-07-08T12:10:02Z</time>
      </trkpt>
      <trkpt lat="47.79575" lon="-3.52402">
        <ele>17.99</ele>
        <time>2020-07-08T12:10:03Z</time>
      </trkpt>
      <trkpt lat="47.79576" lon="-3.52405">
        <ele>17.63</ele>
        <time>2020-07-08T12:10:04Z</time>
      </trkpt>
      <trkpt lat="47.79577" lon="-3.52407">
        <ele>17.33</ele>
        <time>2020-07-08T12:10:05Z</time>
      </trkpt>
      <trkpt lat="47.79578" lon="-3.52409">
        <ele>17.03</ele>
        <time>2020-07-08T12:10:06Z</time>
      </trkpt>
      <trkpt lat="47.79579" lon="-3.52412">
        <ele>16.72</ele>
        <time>2020-07-08T12:10:07Z</time>
      </trkpt>
      <trkpt lat="47.7958" lon="-3.52416">
        <ele>16.38</ele>
        <time>2020-07-08T12:10:08Z</time>
      </trkpt>
      <trkpt lat="47.7958" lon="-3.5242">
        <ele>16.12</ele>
        <time>2020-07-08T12:10:09Z</time>
      </trkpt>
      <trkpt lat="47.79581" lon="-3.52425">
        <ele>15.9</ele>
        <time>2020-07-08T12:10:10Z</time>
      </trkpt>
      <trkpt lat="47.79583" lon="-3.5243">
        <ele>15.65</ele>
        <time>2020-07-08T12:10:11Z</time>
      </trkpt>
      <trkpt lat="47.79585" lon="-3.52436">
        <ele>15.24</ele>
        <time>2020-07-08T12:10:12Z</time>
      </trkpt>
      <trkpt lat="47.79589" lon="-3.52442">
        <ele>14.61</ele>
        <time>2020-07-08T12:10:13Z</time>
      </trkpt>
      <trkpt lat="47.79591" lon="-3.52449">
        <ele>13.84</ele>
        <time>2020-07-08T12:10:14Z</time>
      </trkpt>
      <trkpt lat="47.79593" lon="-3.52455">
        <ele>13.11</ele>
        <time>2020-07-08T12:10:15Z</time>
      </trkpt>
      <trkpt lat="47.79594" lon="-3.52461">
        <ele>12.5</ele>
        <time>2020-07-08T12:10:16Z</time>
      </trkpt>
      <trkpt lat="47.79594" lon="-3.52466">
        <ele>12.03</ele>
        <time>2020-07-08T12:10:17Z</time>
      </trkpt>
      <trkpt lat="47.79594" lon="-3.52471">
        <ele>11.69</ele>
        <time>2020-07-08T12:10:18Z</time>
      </trkpt>
      <trkpt lat="47.79595" lon="-3.52474">
        <ele>11.3</ele>
        <time>2020-07-08T12:10:19Z</time>
      </trkpt>
      <trkpt lat="47.79595" lon="-3.52479">
        <ele>10.81</ele>
        <time>2020-07-08T12:10:20Z</time>
      </trkpt>
      <trkpt lat="47.79596" lon="-3.52484">
        <ele>10.21</ele>
        <time>2020-07-08T12:10:21Z</time>
      </trkpt>
      <trkpt lat="47.79595" lon="-3.52489">
        <ele>9.64</ele>
        <time>2020-07-08T12:10:22Z</time>
      </trkpt>
      <trkpt lat="47.79594" lon="-3.52494">
        <ele>9.3</ele>
        <time>2020-07-08T12:10:23Z</time>
      </trkpt>
      <trkpt lat="47.79591" lon="-3.52498">
        <ele>9.16</ele>
        <time>2020-07-08T12:10:24Z</time>
      </trkpt>
      <trkpt lat="47.79588" lon="-3.52501">
        <ele>9.14</ele>
        <time>2020-07-08T12:10:25Z</time>
      </trkpt>
      <trkpt lat="47.79586" lon="-3.52503">
        <ele>9.17</ele>
        <time>2020-07-08T12:10:26Z</time>
      </trkpt>
      <trkpt lat="47.79584" lon="-3.52505">
        <ele>9.15</ele>
        <time>2020-07-08T12:10:27Z</time>
      </trkpt>
      <trkpt lat="47.79581" lon="-3.52507">
        <ele>8.98</ele>
        <time>2020-07-08T12:10:28Z</time>
      </trkpt>
      <trkpt lat="47.79578" lon="-3.52508">
        <ele>8.84</ele>
        <time>2020-07-08T12:10:29Z</time>
      </trkpt>
      <trkpt lat="47.79576" lon="-3.5251">
        <ele>8.68</ele>
        <time>2020-07-08T12:10:30Z</time>
      </trkpt>
      <trkpt lat="47.79574" lon="-3.52512">
        <ele>8.46</ele>
        <time>2020-07-08T12:10:31Z</time>
      </trkpt>
      <trkpt lat="47.79572" lon="-3.52512">
        <ele>8.37</ele>
        <time>2020-07-08T12:10:32Z</time>
      </trkpt>
      <trkpt lat="47.7957" lon="-3.52514">
        <ele>8.28</ele>
        <time>2020-07-08T12:10:33Z</time>
      </trkpt>
      <trkpt lat="47.79568" lon="-3.52515">
        <ele>8.16</ele>
        <time>2020-07-08T12:10:34Z</time>
      </trkpt>
      <trkpt lat="47.79565" lon="-3.52517">
        <ele>8.05</ele>
        <time>2020-07-08T12:10:35Z</time>
      </trkpt>
      <trkpt lat="47.79563" lon="-3.52517">
        <ele>8.09</ele>
        <time>2020-07-08T12:10:36Z</time>
      </trkpt>
      <trkpt lat="47.79561" lon="-3.52516">
        <ele>8.28</ele>
        <time>2020-07-08T12:10:37Z</time>
      </trkpt>
      <trkpt lat="47.7956" lon="-3.52514">
        <ele>8.65</ele>
        <time>2020-07-08T12:10:38Z</time>
      </trkpt>
      <trkpt lat="47.79559" lon="-3.52511">
        <ele>9.03</ele>
        <time>2020-07-08T12:10:39Z</time>
      </trkpt>
      <trkpt lat="47.79558" lon="-3.5251">
        <ele>9.28</ele>
        <time>2020-07-08T12:10:40Z</time>
      </trkpt>
      <trkpt lat="47.79557" lon="-3.52508">
        <ele>9.6</ele>
        <time>2020-07-08T12:10:41Z</time>
      </trkpt>
      <trkpt lat="47.79555" lon="-3.52507">
        <ele>9.85</ele>
        <time>2020-07-08T12:10:42Z</time>
      </trkpt>
      <trkpt lat="47.79553" lon="-3.52506">
        <ele>10.07</ele>
        <time>2020-07-08T12:10:43Z</time>
      </trkpt>
      <trkpt lat="47.79552" lon="-3.52505">
        <ele>10.29</ele>
        <time>2020-07-08T12:10:44Z</time>
      </trkpt>
      <trkpt lat="47.79551" lon="-3.52505">
        <ele>10.43</ele>
        <time>2020-07-08T12:10:45Z</time>
      </trkpt>
      <trkpt lat="47.79549" lon="-3.52505">
        <ele>10.5</ele>
        <time>2020-07-08T12:10:46Z</time>
      </trkpt>
      <trkpt lat="47.79547" lon="-3.52504">
        <ele>10.66</ele>
        <time>2020-07-08T12:10:47Z</time>
      </trkpt>
      <trkpt lat="47.79547" lon="-3.52504">
        <ele>10.75</ele>
        <time>2020-07-08T12:10:48Z</time>
      </trkpt>
      <trkpt lat="47.79547" lon="-3.52504">
        <ele>10.78</ele>
        <time>2020-07-08T12:10:49Z</time>
      </trkpt>
      <trkpt lat="47.79547" lon="-3.52504">
        <ele>10.79</ele>
        <time>2020-07-08T12:10:50Z</time>
      </trkpt>
      <trkpt lat="47.79547" lon="-3.52504">
        <ele>10.79</ele>
        <time>2020-07-08T12:10:51Z</time>
      </trkpt>
      <trkpt lat="47.79547" lon="-3.52504">
        <ele>10.79</ele>
        <time>2020-07-08T12:10:52Z</time>
      </trkpt>
      <trkpt lat="47.79547" lon="-3.52504">
        <ele>10.79</ele>
        <time>2020-07-08T12:10:53Z</time>
      </trkpt>
      <trkpt lat="47.79547" lon="-3.52504">
        <ele>10.79</ele>
        <time>2020-07-08T12:10:54Z</time>
      </trkpt>
      <trkpt lat="47.79547" lon="-3.52504">
        <ele>10.79</ele>
        <time>2020-07-08T12:10:55Z</time>
      </trkpt>
      <trkpt lat="47.79547" lon="-3.52504">
        <ele>10.79</ele>
        <time>2020-07-08T12:10:56Z</time>
      </trkpt>
      <trkpt lat="47.79547" lon="-3.52504">
        <ele>10.79</ele>
        <time>2020-07-08T12:10:57Z</time>
      </trkpt>
      <trkpt lat="47.79547" lon="-3.52504">
        <ele>10.79</ele>
        <time>2020-07-08T12:10:58Z</time>
      </trkpt>
      <trkpt lat="47.79547" lon="-3.52504">
        <ele>10.79</ele>
        <time>2020-07-08T12:10:59Z</time>
      </trkpt>
      <trkpt lat="47.79547" lon="-3.52504">
        <ele>10.79</ele>
        <time>2020-07-08T12:11:00Z</time>
      </trkpt>
      <trkpt lat="47.79547" lon="-3.52504">
        <ele>10.79</ele>
        <time>2020-07-08T12:11:01Z</time>
      </trkpt>
      <trkpt lat="47.79547" lon="-3.52504">
        <ele>10.79</ele>
        <time>2020-07-08T12:11:02Z</time>
      </trkpt>
      <trkpt lat="47.79547" lon="-3.52504">
        <ele>10.79</ele>
        <time>2020-07-08T12:11:03Z</time>
      </trkpt>
      <trkpt lat="47.79547" lon="-3.52504">
        <ele>10.79</ele>
        <time>2020-07-08T12:11:04Z</time>
      </trkpt>
      <trkpt lat="47.79547" lon="-3.52504">
        <ele>10.79</ele>
        <time>2020-07-08T12:11:05Z</time>
      </trkpt>
      <trkpt lat="47.79547" lon="-3.52504">
        <ele>10.79</ele>
        <time>2020-07-08T12:11:06Z</time>
      </trkpt>
      <trkpt lat="47.79547" lon="-3.52504">
        <ele>10.79</ele>
        <time>2020-07-08T12:11:07Z</time>
      </trkpt>
      <trkpt lat="47.79547" lon="-3.52504">
        <ele>10.79</ele>
        <time>2020-07-08T12:11:08Z</time>
      </trkpt>
      <trkpt lat="47.79547" lon="-3.52504">
        <ele>10.79</ele>
        <time>2020-07-08T12:11:09Z</time>
      </trkpt>
      <trkpt lat="47.79547" lon="-3.52504">
        <ele>10.79</ele>
        <time>2020-07-08T12:11:10Z</time>
      </trkpt>
      <trkpt lat="47.79547" lon="-3.52504">
        <ele>10.79</ele>
        <time>2020-07-08T12:11:11Z</time>
      </trkpt>
      <trkpt lat="47.79547" lon="-3.52504">
        <ele>10.79</ele>
        <time>2020-07-08T12:11:12Z</time>
      </trkpt>
      <trkpt lat="47.79547" lon="-3.52504">
        <ele>10.79</ele>
        <time>2020-07-08T12:11:13Z</time>
      </trkpt>
      <trkpt lat="47.79547" lon="-3.52504">
        <ele>10.79</ele>
        <time>2020-07-08T12:11:14Z</time>
      </trkpt>
      <trkpt lat="47.79547" lon="-3.52504">
        <ele>10.79</ele>
        <time>2020-07-08T12:11:15Z</time>
      </trkpt>
      <trkpt lat="47.79547" lon="-3.52504">
        <ele>10.79</ele>
        <time>2020-07-08T12:11:16Z</time>
      </trkpt>
      <trkpt lat="47.79547" lon="-3.52504">
        <ele>10.79</ele>
        <time>2020-07-08T12:11:17Z</time>
      </trkpt>
      <trkpt lat="47.79547" lon="-3.52504">
        <ele>10.79</ele>
        <time>2020-07-08T12:11:18Z</time>
      </trkpt>
      <trkpt lat="47.79547" lon="-3.52504">
        <ele>10.79</ele>
        <time>2020-07-08T12:11:19Z</time>
      </trkpt>
      <trkpt lat="47.79547" lon="-3.52504">
        <ele>10.79</ele>
        <time>2020-07-08T12:11:20Z</time>
      </trkpt>
      <trkpt lat="47.79547" lon="-3.52504">
        <ele>10.79</ele>
        <time>2020-07-08T12:11:21Z</time>
      </trkpt>
      <trkpt lat="47.79547" lon="-3.52504">
        <ele>10.79</ele>
        <time>2020-07-08T12:11:22Z</time>
      </trkpt>
      <trkpt lat="47.79547" lon="-3.52504">
        <ele>10.79</ele>
        <time>2020-07-08T12:11:23Z</time>
      </trkpt>
      <trkpt lat="47.79547" lon="-3.52504">
        <ele>10.79</ele>
        <time>2020-07-08T12:11:24Z</time>
      </trkpt>
      <trkpt lat="47.79547" lon="-3.52504">
        <ele>10.79</ele>
        <time>2020-07-08T12:11:25Z</time>
      </trkpt>
      <trkpt lat="47.79547" lon="-3.52504">
        <ele>10.79</ele>
        <time>2020-07-08T12:11:26Z</time>
      </trkpt>
      <trkpt lat="47.79547" lon="-3.52504">
        <ele>10.79</ele>
        <time>2020-07-08T12:11:27Z</time>
      </trkpt>
      <trkpt lat="47.79547" lon="-3.52504">
        <ele>10.79</ele>
        <time>2020-07-08T12:11:28Z</time>
      </trkpt>
      <trkpt lat="47.79547" lon="-3.52504">
        <ele>10.79</ele>
        <time>2020-07-08T12:11:29Z</time>
      </trkpt>
      <trkpt lat="47.79547" lon="-3.52504">
        <ele>10.79</ele>
        <time>2020-07-08T12:11:30Z</time>
      </trkpt>
      <trkpt lat="47.79547" lon="-3.52504">
        <ele>10.79</ele>
        <time>2020-07-08T12:11:31Z</time>
      </trkpt>
      <trkpt lat="47.79547" lon="-3.52504">
        <ele>10.79</ele>
        <time>2020-07-08T12:11:32Z</time>
      </trkpt>
      <trkpt lat="47.79547" lon="-3.52504">
        <ele>10.79</ele>
        <time>2020-07-08T12:11:33Z</time>
      </trkpt>
      <trkpt lat="47.79547" lon="-3.52504">
        <ele>10.79</ele>
        <time>2020-07-08T12:11:34Z</time>
      </trkpt>
      <trkpt lat="47.79547" lon="-3.52504">
        <ele>10.79</ele>
        <time>2020-07-08T12:11:35Z</time>
      </trkpt>
      <trkpt lat="47.79547" lon="-3.52504">
        <ele>10.79</ele>
        <time>2020-07-08T12:11:36Z</time>
      </trkpt>
      <trkpt lat="47.79547" lon="-3.52504">
        <ele>10.79</ele>
        <time>2020-07-08T12:11:37Z</time>
      </trkpt>
      <trkpt lat="47.79547" lon="-3.52504">
        <ele>10.79</ele>
        <time>2020-07-08T12:11:38Z</time>
      </trkpt>
      <trkpt lat="47.79547" lon="-3.52504">
        <ele>10.79</ele>
        <time>2020-07-08T12:11:39Z</time>
      </trkpt>
      <trkpt lat="47.79547" lon="-3.52504">
        <ele>10.79</ele>
        <time>2020-07-08T12:11:40Z</time>
      </trkpt>
      <trkpt lat="47.79547" lon="-3.52504">
        <ele>10.79</ele>
        <time>2020-07-08T12:11:41Z</time>
      </trkpt>
      <trkpt lat="47.79547" lon="-3.52504">
        <ele>10.79</ele>
        <time>2020-07-08T12:11:42Z</time>
      </trkpt>
      <trkpt lat="47.79547" lon="-3.52504">
        <ele>10.79</ele>
        <time>2020-07-08T12:11:43Z</time>
      </trkpt>
      <trkpt lat="47.79547" lon="-3.52504">
        <ele>10.79</ele>
        <time>2020-07-08T12:11:44Z</time>
      </trkpt>
      <trkpt lat="47.79547" lon="-3.52504">
        <ele>10.79</ele>
        <time>2020-07-08T12:11:45Z</time>
      </trkpt>
      <trkpt lat="47.79547" lon="-3.52504">
        <ele>10.79</ele>
        <time>2020-07-08T12:11:46Z</time>
      </trkpt>
      <trkpt lat="47.79547" lon="-3.52504">
        <ele>10.79</ele>
        <time>2020-07-08T12:11:47Z</time>
      </trkpt>
      <trkpt lat="47.79547" lon="-3.52504">
        <ele>10.79</ele>
        <time>2020-07-08T12:11:48Z</time>
      </trkpt>
      <trkpt lat="47.79547" lon="-3.52504">
        <ele>10.79</ele>
        <time>2020-07-08T12:11:49Z</time>
      </trkpt>
      <trkpt lat="47.79547" lon="-3.52504">
        <ele>10.79</ele>
        <time>2020-07-08T12:11:50Z</time>
      </trkpt>
      <trkpt lat="47.79547" lon="-3.52504">
        <ele>10.79</ele>
        <time>2020-07-08T12:11:51Z</time>
      </trkpt>
      <trkpt lat="47.79547" lon="-3.52504">
        <ele>10.79</ele>
        <time>2020-07-08T12:11:52Z</time>
      </trkpt>
      <trkpt lat="47.79547" lon="-3.52504">
        <ele>10.79</ele>
        <time>2020-07-08T12:11:53Z</time>
      </trkpt>
      <trkpt lat="47.79547" lon="-3.52504">
        <ele>10.79</ele>
        <time>2020-07-08T12:11:54Z</time>
      </trkpt>
      <trkpt lat="47.79547" lon="-3.52504">
        <ele>10.79</ele>
        <time>2020-07-08T12:11:55Z</time>
      </trkpt>
      <trkpt lat="47.79547" lon="-3.52504">
        <ele>10.79</ele>
        <time>2020-07-08T12:11:56Z</time>
      </trkpt>
      <trkpt lat="47.79547" lon="-3.52504">
        <ele>10.79</ele>
        <time>2020-07-08T12:11:57Z</time>
      </trkpt>
      <trkpt lat="47.79547" lon="-3.52504">
        <ele>10.79</ele>
        <time>2020-07-08T12:11:58Z</time>
      </trkpt>
      <trkpt lat="47.79547" lon="-3.52504">
        <ele>10.79</ele>
        <time>2020-07-08T12:11:59Z</time>
      </trkpt>
      <trkpt lat="47.79547" lon="-3.52504">
        <ele>10.79</ele>
        <time>2020-07-08T12:12:00Z</time>
      </trkpt>
      <trkpt lat="47.79547" lon="-3.52504">
        <ele>10.79</ele>
        <time>2020-07-08T12:12:01Z</time>
      </trkpt>
      <trkpt lat="47.79547" lon="-3.52504">
        <ele>10.79</ele>
        <time>2020-07-08T12:12:02Z</time>
      </trkpt>
      <trkpt lat="47.79547" lon="-3.52504">
        <ele>10.79</ele>
        <time>2020-07-08T12:12:03Z</time>
      </trkpt>
      <trkpt lat="47.79547" lon="-3.52504">
        <ele>10.79</ele>
        <time>2020-07-08T12:12:04Z</time>
      </trkpt>
      <trkpt lat="47.79547" lon="-3.52504">
        <ele>10.79</ele>
        <time>2020-07-08T12:12:05Z</time>
      </trkpt>
      <trkpt lat="47.79547" lon="-3.52504">
        <ele>10.79</ele>
        <time>2020-07-08T12:12:06Z</time>
      </trkpt>
      <trkpt lat="47.79547" lon="-3.52504">
        <ele>10.79</ele>
        <time>2020-07-08T12:12:07Z</time>
      </trkpt>
      <trkpt lat="47.79547" lon="-3.52504">
        <ele>10.79</ele>
        <time>2020-07-08T12:12:08Z</time>
      </trkpt>
      <trkpt lat="47.79547" lon="-3.52504">
        <ele>10.79</ele>
        <time>2020-07-08T12:12:09Z</time>
      </trkpt>
      <trkpt lat="47.79547" lon="-3.52504">
        <ele>10.79</ele>
        <time>2020-07-08T12:12:10Z</time>
      </trkpt>
      <trkpt lat="47.79547" lon="-3.52504">
        <ele>10.79</ele>
        <time>2020-07-08T12:12:11Z</time>
      </trkpt>
      <trkpt lat="47.79547" lon="-3.52504">
        <ele>10.79</ele>
        <time>2020-07-08T12:12:12Z</time>
      </trkpt>
      <trkpt lat="47.79547" lon="-3.52504">
        <ele>10.79</ele>
        <time>2020-07-08T12:12:13Z</time>
      </trkpt>
      <trkpt lat="47.79547" lon="-3.52504">
        <ele>10.79</ele>
        <time>2020-07-08T12:12:14Z</time>
      </trkpt>
      <trkpt lat="47.79547" lon="-3.52504">
        <ele>10.79</ele>
        <time>2020-07-08T12:12:15Z</time>
      </trkpt>
      <trkpt lat="47.79547" lon="-3.52504">
        <ele>10.79</ele>
        <time>2020-07-08T12:12:16Z</time>
      </trkpt>
      <trkpt lat="47.79547" lon="-3.52504">
        <ele>10.79</ele>
        <time>2020-07-08T12:12:17Z</time>
      </trkpt>
      <trkpt lat="47.79547" lon="-3.52504">
        <ele>10.79</ele>
        <time>2020-07-08T12:12:18Z</time>
      </trkpt>
      <trkpt lat="47.79547" lon="-3.52504">
        <ele>10.79</ele>
        <time>2020-07-08T12:12:19Z</time>
      </trkpt>
      <trkpt lat="47.79547" lon="-3.52504">
        <ele>10.79</ele>
        <time>2020-07-08T12:12:20Z</time>
      </trkpt>
      <trkpt lat="47.79547" lon="-3.52504">
        <ele>10.79</ele>
        <time>2020-07-08T12:12:21Z</time>
      </trkpt>
      <trkpt lat="47.79547" lon="-3.52504">
        <ele>10.79</ele>
        <time>2020-07-08T12:12:22Z</time>
      </trkpt>
      <trkpt lat="47.79547" lon="-3.52504">
        <ele>10.79</ele>
        <time>2020-07-08T12:12:23Z</time>
      </trkpt>
      <trkpt lat="47.79547" lon="-3.52504">
        <ele>10.79</ele>
        <time>2020-07-08T12:12:24Z</time>
      </trkpt>
      <trkpt lat="47.79547" lon="-3.52504">
        <ele>10.79</ele>
        <time>2020-07-08T12:12:25Z</time>
      </trkpt>
      <trkpt lat="47.79547" lon="-3.52504">
        <ele>10.79</ele>
        <time>2020-07-08T12:12:26Z</time>
      </trkpt>
      <trkpt lat="47.79547" lon="-3.52504">
        <ele>10.79</ele>
        <time>2020-07-08T12:12:27Z</time>
      </trkpt>
      <trkpt lat="47.79547" lon="-3.52504">
        <ele>10.79</ele>
        <time>2020-07-08T12:12:28Z</time>
      </trkpt>
      <trkpt lat="47.79547" lon="-3.52504">
        <ele>10.79</ele>
        <time>2020-07-08T12:12:29Z</time>
      </trkpt>
      <trkpt lat="47.79547" lon="-3.52504">
        <ele>10.79</ele>
        <time>2020-07-08T12:12:30Z</time>
      </trkpt>
      <trkpt lat="47.79547" lon="-3.52504">
        <ele>10.79</ele>
        <time>2020-07-08T12:12:31Z</time>
      </trkpt>
      <trkpt lat="47.79547" lon="-3.52504">
        <ele>10.79</ele>
        <time>2020-07-08T12:12:32Z</time>
      </trkpt>
      <trkpt lat="47.79547" lon="-3.52504">
        <ele>10.79</ele>
        <time>2020-07-08T12:12:33Z</time>
      </trkpt>
      <trkpt lat="47.79547" lon="-3.52504">
        <ele>10.79</ele>
        <time>2020-07-08T12:12:34Z</time>
      </trkpt>
      <trkpt lat="47.79547" lon="-3.52504">
        <ele>10.79</ele>
        <time>2020-07-08T12:12:35Z</time>
      </trkpt>
      <trkpt lat="47.79547" lon="-3.52504">
        <ele>10.79</ele>
        <time>2020-07-08T12:12:36Z</time>
      </trkpt>
      <trkpt lat="47.79547" lon="-3.52504">
        <ele>10.79</ele>
        <time>2020-07-08T12:12:37Z</time>
      </trkpt>
      <trkpt lat="47.79547" lon="-3.52504">
        <ele>10.79</ele>
        <time>2020-07-08T12:12:38Z</time>
      </trkpt>
      <trkpt lat="47.79547" lon="-3.52504">
        <ele>10.79</ele>
        <time>2020-07-08T12:12:39Z</time>
      </trkpt>
      <trkpt lat="47.79547" lon="-3.52504">
        <ele>10.79</ele>
        <time>2020-07-08T12:12:40Z</time>
      </trkpt>
      <trkpt lat="47.79547" lon="-3.52504">
        <ele>10.79</ele>
        <time>2020-07-08T12:12:41Z</time>
      </trkpt>
      <trkpt lat="47.79547" lon="-3.52504">
        <ele>10.79</ele>
        <time>2020-07-08T12:12:42Z</time>
      </trkpt>
      <trkpt lat="47.79547" lon="-3.52504">
        <ele>10.79</ele>
        <time>2020-07-08T12:12:43Z</time>
      </trkpt>
      <trkpt lat="47.79547" lon="-3.52504">
        <ele>10.79</ele>
        <time>2020-07-08T12:12:44Z</time>
      </trkpt>
      <trkpt lat="47.79547" lon="-3.52504">
        <ele>10.79</ele>
        <time>2020-07-08T12:12:45Z</time>
      </trkpt>
      <trkpt lat="47.79547" lon="-3.52504">
        <ele>10.79</ele>
        <time>2020-07-08T12:12:46Z</time>
      </trkpt>
      <trkpt lat="47.79547" lon="-3.52504">
        <ele>10.79</ele>
        <time>2020-07-08T12:12:47Z</time>
      </trkpt>
      <trkpt lat="47.79547" lon="-3.52504">
        <ele>10.79</ele>
        <time>2020-07-08T12:12:48Z</time>
      </trkpt>
      <trkpt lat="47.79547" lon="-3.52504">
        <ele>10.79</ele>
        <time>2020-07-08T12:12:49Z</time>
      </trkpt>
      <trkpt lat="47.79547" lon="-3.52504">
        <ele>10.79</ele>
        <time>2020-07-08T12:12:50Z</time>
      </trkpt>
      <trkpt lat="47.79547" lon="-3.52504">
        <ele>10.79</ele>
        <time>2020-07-08T12:12:51Z</time>
      </trkpt>
      <trkpt lat="47.79547" lon="-3.52504">
        <ele>10.79</ele>
        <time>2020-07-08T12:12:52Z</time>
      </trkpt>
      <trkpt lat="47.79547" lon="-3.52504">
        <ele>10.79</ele>
        <time>2020-07-08T12:12:53Z</time>
      </trkpt>
      <trkpt lat="47.79547" lon="-3.52504">
        <ele>10.79</ele>
        <time>2020-07-08T12:12:54Z</time>
      </trkpt>
      <trkpt lat="47.79547" lon="-3.52504">
        <ele>10.79</ele>
        <time>2020-07-08T12:12:55Z</time>
      </trkpt>
      <trkpt lat="47.79547" lon="-3.52504">
        <ele>10.79</ele>
        <time>2020-07-08T12:12:56Z</time>
      </trkpt>
      <trkpt lat="47.79547" lon="-3.52504">
        <ele>10.79</ele>
        <time>2020-07-08T12:12:57Z</time>
      </trkpt>
      <trkpt lat="47.79547" lon="-3.52504">
        <ele>10.79</ele>
        <time>2020-07-08T12:12:58Z</time>
      </trkpt>
      <trkpt lat="47.79547" lon="-3.52504">
        <ele>10.79</ele>
        <time>2020-07-08T12:12:59Z</time>
      </trkpt>
      <trkpt lat="47.79547" lon="-3.52504">
        <ele>10.79</ele>
        <time>2020-07-08T12:13:00Z</time>
      </trkpt>
      <trkpt lat="47.79547" lon="-3.52504">
        <ele>10.79</ele>
        <time>2020-07-08T12:13:01Z</time>
      </trkpt>
      <trkpt lat="47.79547" lon="-3.52504">
        <ele>10.79</ele>
        <time>2020-07-08T12:13:02Z</time>
      </trkpt>
      <trkpt lat="47.79547" lon="-3.52504">
        <ele>10.79</ele>
        <time>2020-07-08T12:13:03Z</time>
      </trkpt>
      <trkpt lat="47.79547" lon="-3.52504">
        <ele>10.79</ele>
        <time>2020-07-08T12:13:04Z</time>
      </trkpt>
      <trkpt lat="47.79547" lon="-3.52504">
        <ele>10.79</ele>
        <time>2020-07-08T12:13:05Z</time>
      </trkpt>
      <trkpt lat="47.79547" lon="-3.52504">
        <ele>10.79</ele>
        <time>2020-07-08T12:13:06Z</time>
      </trkpt>
      <trkpt lat="47.79547" lon="-3.52504">
        <ele>10.79</ele>
        <time>2020-07-08T12:13:07Z</time>
      </trkpt>
      <trkpt lat="47.79547" lon="-3.52504">
        <ele>10.79</ele>
        <time>2020-07-08T12:13:08Z</time>
      </trkpt>
      <trkpt lat="47.79547" lon="-3.52504">
        <ele>10.79</ele>
        <time>2020-07-08T12:13:09Z</time>
      </trkpt>
      <trkpt lat="47.79547" lon="-3.52504">
        <ele>10.79</ele>
        <time>2020-07-08T12:13:10Z</time>
      </trkpt>
      <trkpt lat="47.79547" lon="-3.52504">
        <ele>10.79</ele>
        <time>2020-07-08T12:13:11Z</time>
      </trkpt>
      <trkpt lat="47.79547" lon="-3.52504">
        <ele>10.79</ele>
        <time>2020-07-08T12:13:12Z</time>
      </trkpt>
      <trkpt lat="47.79547" lon="-3.52504">
        <ele>10.79</ele>
        <time>2020-07-08T12:13:13Z</time>
      </trkpt>
      <trkpt lat="47.79547" lon="-3.52504">
        <ele>10.79</ele>
        <time>2020-07-08T12:13:14Z</time>
      </trkpt>
      <trkpt lat="47.79537" lon="-3.52502">
        <ele>11.23</ele>
        <time>2020-07-08T12:13:15Z</time>
      </trkpt>
      <trkpt lat="47.79536" lon="-3.52501">
        <ele>11.4</ele>
        <time>2020-07-08T12:13:16Z</time>
      </trkpt>
      <trkpt lat="47.79535" lon="-3.52501">
        <ele>11.52</ele>
        <time>2020-07-08T12:13:17Z</time>
      </trkpt>
      <trkpt lat="47.79534" lon="-3.52501">
        <ele>11.65</ele>
        <time>2020-07-08T12:13:18Z</time>
      </trkpt>
      <trkpt lat="47.79533" lon="-3.52501">
        <ele>11.72</ele>
        <time>2020-07-08T12:13:19Z</time>
      </trkpt>
      <trkpt lat="47.7953" lon="-3.525">
        <ele>11.83</ele>
        <time>2020-07-08T12:13:20Z</time>
      </trkpt>
      <trkpt lat="47.79528" lon="-3.525">
        <ele>11.93</ele>
        <time>2020-07-08T12:13:21Z</time>
      </trkpt>
      <trkpt lat="47.79526" lon="-3.525">
        <ele>12.07</ele>
        <time>2020-07-08T12:13:22Z</time>
      </trkpt>
      <trkpt lat="47.79524" lon="-3.52499">
        <ele>12.26</ele>
        <time>2020-07-08T12:13:23Z</time>
      </trkpt>
      <trkpt lat="47.79522" lon="-3.52499">
        <ele>12.46</ele>
        <time>2020-07-08T12:13:24Z</time>
      </trkpt>
      <trkpt lat="47.79521" lon="-3.525">
        <ele>12.45</ele>
        <time>2020-07-08T12:13:25Z</time>
      </trkpt>
      <trkpt lat="47.79518" lon="-3.52502">
        <ele>12.37</ele>
        <time>2020-07-08T12:13:26Z</time>
      </trkpt>
      <trkpt lat="47.79517" lon="-3.52504">
        <ele>12.21</ele>
        <time>2020-07-08T12:13:27Z</time>
      </trkpt>
      <trkpt lat="47.79515" lon="-3.52506">
        <ele>12</ele>
        <time>2020-07-08T12:13:28Z</time>
      </trkpt>
      <trkpt lat="47.79514" lon="-3.5251">
        <ele>11.61</ele>
        <time>2020-07-08T12:13:29Z</time>
      </trkpt>
      <trkpt lat="47.79512" lon="-3.52513">
        <ele>11.23</ele>
        <time>2020-07-08T12:13:30Z</time>
      </trkpt>
      <trkpt lat="47.79511" lon="-3.52516">
        <ele>10.74</ele>
        <time>2020-07-08T12:13:31Z</time>
      </trkpt>
      <trkpt lat="47.79509" lon="-3.5252">
        <ele>10.27</ele>
        <time>2020-07-08T12:13:32Z</time>
      </trkpt>
      <trkpt lat="47.79508" lon="-3.52524">
        <ele>9.62</ele>
        <time>2020-07-08T12:13:33Z</time>
      </trkpt>
      <trkpt lat="47.79504" lon="-3.52528">
        <ele>9.07</ele>
        <time>2020-07-08T12:13:34Z</time>
      </trkpt>
      <trkpt lat="47.795" lon="-3.52531">
        <ele>8.54</ele>
        <time>2020-07-08T12:13:35Z</time>
      </trkpt>
      <trkpt lat="47.79496" lon="-3.52534">
        <ele>8.2</ele>
        <time>2020-07-08T12:13:36Z</time>
      </trkpt>
      <trkpt lat="47.79491" lon="-3.52534">
        <ele>8.08</ele>
        <time>2020-07-08T12:13:37Z</time>
      </trkpt>
      <trkpt lat="47.79487" lon="-3.52535">
        <ele>7.99</ele>
        <time>2020-07-08T12:13:38Z</time>
      </trkpt>
      <trkpt lat="47.79484" lon="-3.52534">
        <ele>8.2</ele>
        <time>2020-07-08T12:13:39Z</time>
      </trkpt>
      <trkpt lat="47.79483" lon="-3.52533">
        <ele>8.51</ele>
        <time>2020-07-08T12:13:40Z</time>
      </trkpt>
      <trkpt lat="47.79481" lon="-3.52531">
        <ele>8.79</ele>
        <time>2020-07-08T12:13:41Z</time>
      </trkpt>
      <trkpt lat="47.7948" lon="-3.52531">
        <ele>8.97</ele>
        <time>2020-07-08T12:13:42Z</time>
      </trkpt>
      <trkpt lat="47.79479" lon="-3.52531">
        <ele>9.09</ele>
        <time>2020-07-08T12:13:43Z</time>
      </trkpt>
      <trkpt lat="47.79478" lon="-3.52531">
        <ele>9.07</ele>
        <time>2020-07-08T12:13:44Z</time>
      </trkpt>
      <trkpt lat="47.79476" lon="-3.52531">
        <ele>9.12</ele>
        <time>2020-07-08T12:13:45Z</time>
      </trkpt>
      <trkpt lat="47.79475" lon="-3.52532">
        <ele>9.1</ele>
        <time>2020-07-08T12:13:46Z</time>
      </trkpt>
      <trkpt lat="47.79473" lon="-3.52532">
        <ele>9.08</ele>
        <time>2020-07-08T12:13:47Z</time>
      </trkpt>
      <trkpt lat="47.79471" lon="-3.52533">
        <ele>9.07</ele>
        <time>2020-07-08T12:13:48Z</time>
      </trkpt>
      <trkpt lat="47.79468" lon="-3.52533">
        <ele>9.09</ele>
        <time>2020-07-08T12:13:49Z</time>
      </trkpt>
      <trkpt lat="47.79466" lon="-3.52534">
        <ele>9.17</ele>
        <time>2020-07-08T12:13:50Z</time>
      </trkpt>
      <trkpt lat="47.79463" lon="-3.52534">
        <ele>9.26</ele>
        <time>2020-07-08T12:13:51Z</time>
      </trkpt>
      <trkpt lat="47.7946" lon="-3.52534">
        <ele>9.36</ele>
        <time>2020-07-08T12:13:52Z</time>
      </trkpt>
      <trkpt lat="47.79458" lon="-3.52534">
        <ele>9.44</ele>
        <time>2020-07-08T12:13:53Z</time>
      </trkpt>
      <trkpt lat="47.79456" lon="-3.52534">
        <ele>9.63</ele>
        <time>2020-07-08T12:13:54Z</time>
      </trkpt>
      <trkpt lat="47.79453" lon="-3.52534">
        <ele>9.85</ele>
        <time>2020-07-08T12:13:55Z</time>
      </trkpt>
      <trkpt lat="47.7945" lon="-3.52534">
        <ele>10.03</ele>
        <time>2020-07-08T12:13:56Z</time>
      </trkpt>
      <trkpt lat="47.79445" lon="-3.52534">
        <ele>10.2</ele>
        <time>2020-07-08T12:13:57Z</time>
      </trkpt>
      <trkpt lat="47.79441" lon="-3.52535">
        <ele>9.98</ele>
        <time>2020-07-08T12:13:58Z</time>
      </trkpt>
      <trkpt lat="47.79437" lon="-3.52535">
        <ele>9.69</ele>
        <time>2020-07-08T12:13:59Z</time>
      </trkpt>
      <trkpt lat="47.79434" lon="-3.52535">
        <ele>9.52</ele>
        <time>2020-07-08T12:14:00Z</time>
      </trkpt>
      <trkpt lat="47.79432" lon="-3.52534">
        <ele>9.55</ele>
        <time>2020-07-08T12:14:01Z</time>
      </trkpt>
      <trkpt lat="47.79429" lon="-3.52532">
        <ele>9.64</ele>
        <time>2020-07-08T12:14:02Z</time>
      </trkpt>
      <trkpt lat="47.79427" lon="-3.52531">
        <ele>9.91</ele>
        <time>2020-07-08T12:14:03Z</time>
      </trkpt>
      <trkpt lat="47.79425" lon="-3.52528">
        <ele>10.32</ele>
        <time>2020-07-08T12:14:04Z</time>
      </trkpt>
      <trkpt lat="47.79422" lon="-3.52527">
        <ele>10.57</ele>
        <time>2020-07-08T12:14:05Z</time>
      </trkpt>
      <trkpt lat="47.7942" lon="-3.52525">
        <ele>10.69</ele>
        <time>2020-07-08T12:14:06Z</time>
      </trkpt>
      <trkpt lat="47.79417" lon="-3.52524">
        <ele>10.87</ele>
        <time>2020-07-08T12:14:07Z</time>
      </trkpt>
      <trkpt lat="47.79415" lon="-3.52522">
        <ele>11.06</ele>
        <time>2020-07-08T12:14:08Z</time>
      </trkpt>
      <trkpt lat="47.79413" lon="-3.5252">
        <ele>11.32</ele>
        <time>2020-07-08T12:14:09Z</time>
      </trkpt>
      <trkpt lat="47.79411" lon="-3.52518">
        <ele>11.56</ele>
        <time>2020-07-08T12:14:10Z</time>
      </trkpt>
      <trkpt lat="47.79409" lon="-3.52516">
        <ele>11.79</ele>
        <time>2020-07-08T12:14:11Z</time>
      </trkpt>
      <trkpt lat="47.79408" lon="-3.52515">
        <ele>12.02</ele>
        <time>2020-07-08T12:14:12Z</time>
      </trkpt>
      <trkpt lat="47.79406" lon="-3.52514">
        <ele>12.24</ele>
        <time>2020-07-08T12:14:13Z</time>
      </trkpt>
      <trkpt lat="47.79404" lon="-3.52512">
        <ele>12.54</ele>
        <time>2020-07-08T12:14:14Z</time>
      </trkpt>
      <trkpt lat="47.79403" lon="-3.5251">
        <ele>12.81</ele>
        <time>2020-07-08T12:14:15Z</time>
      </trkpt>
      <trkpt lat="47.794" lon="-3.52509">
        <ele>12.94</ele>
        <time>2020-07-08T12:14:16Z</time>
      </trkpt>
      <trkpt lat="47.79398" lon="-3.52508">
        <ele>13.08</ele>
        <time>2020-07-08T12:14:17Z</time>
      </trkpt>
      <trkpt lat="47.79397" lon="-3.52508">
        <ele>13.21</ele>
        <time>2020-07-08T12:14:18Z</time>
      </trkpt>
      <trkpt lat="47.79395" lon="-3.52507">
        <ele>13.27</ele>
        <time>2020-07-08T12:14:19Z</time>
      </trkpt>
      <trkpt lat="47.79393" lon="-3.52506">
        <ele>13.48</ele>
        <time>2020-07-08T12:14:20Z</time>
      </trkpt>
      <trkpt lat="47.79391" lon="-3.52504">
        <ele>13.84</ele>
        <time>2020-07-08T12:14:21Z</time>
      </trkpt>
      <trkpt lat="47.79389" lon="-3.52503">
        <ele>14.12</ele>
        <time>2020-07-08T12:14:22Z</time>
      </trkpt>
      <trkpt lat="47.79387" lon="-3.52501">
        <ele>14.37</ele>
        <time>2020-07-08T12:14:23Z</time>
      </trkpt>
      <trkpt lat="47.79386" lon="-3.52501">
        <ele>14.52</ele>
        <time>2020-07-08T12:14:24Z</time>
      </trkpt>
      <trkpt lat="47.79385" lon="-3.52501">
        <ele>14.62</ele>
        <time>2020-07-08T12:14:25Z</time>
      </trkpt>
      <trkpt lat="47.79385" lon="-3.52501">
        <ele>14.57</ele>
        <time>2020-07-08T12:14:26Z</time>
      </trkpt>
      <trkpt lat="47.79385" lon="-3.52501">
        <ele>14.56</ele>
        <time>2020-07-08T12:14:27Z</time>
      </trkpt>
      <trkpt lat="47.79385" lon="-3.52501">
        <ele>14.55</ele>
        <time>2020-07-08T12:14:28Z</time>
      </trkpt>
      <trkpt lat="47.79385" lon="-3.52501">
        <ele>14.55</ele>
        <time>2020-07-08T12:14:29Z</time>
      </trkpt>
      <trkpt lat="47.79385" lon="-3.52501">
        <ele>14.55</ele>
        <time>2020-07-08T12:14:30Z</time>
      </trkpt>
      <trkpt lat="47.79385" lon="-3.52501">
        <ele>14.55</ele>
        <time>2020-07-08T12:14:31Z</time>
      </trkpt>
      <trkpt lat="47.79385" lon="-3.52501">
        <ele>14.55</ele>
        <time>2020-07-08T12:14:32Z</time>
      </trkpt>
      <trkpt lat="47.79385" lon="-3.52501">
        <ele>14.55</ele>
        <time>2020-07-08T12:14:33Z</time>
      </trkpt>
      <trkpt lat="47.79385" lon="-3.52501">
        <ele>14.55</ele>
        <time>2020-07-08T12:14:34Z</time>
      </trkpt>
      <trkpt lat="47.79385" lon="-3.52501">
        <ele>14.55</ele>
        <time>2020-07-08T12:14:35Z</time>
      </trkpt>
      <trkpt lat="47.79385" lon="-3.52501">
        <ele>14.55</ele>
        <time>2020-07-08T12:14:36Z</time>
      </trkpt>
      <trkpt lat="47.79385" lon="-3.52501">
        <ele>14.55</ele>
        <time>2020-07-08T12:14:37Z</time>
      </trkpt>
      <trkpt lat="47.79385" lon="-3.52501">
        <ele>14.55</ele>
        <time>2020-07-08T12:14:38Z</time>
      </trkpt>
      <trkpt lat="47.79385" lon="-3.52501">
        <ele>14.55</ele>
        <time>2020-07-08T12:14:39Z</time>
      </trkpt>
      <trkpt lat="47.79385" lon="-3.52501">
        <ele>14.55</ele>
        <time>2020-07-08T12:14:40Z</time>
      </trkpt>
      <trkpt lat="47.79385" lon="-3.52501">
        <ele>14.55</ele>
        <time>2020-07-08T12:14:41Z</time>
      </trkpt>
      <trkpt lat="47.79385" lon="-3.52501">
        <ele>14.55</ele>
        <time>2020-07-08T12:14:42Z</time>
      </trkpt>
      <trkpt lat="47.79385" lon="-3.52501">
        <ele>14.55</ele>
        <time>2020-07-08T12:14:43Z</time>
      </trkpt>
      <trkpt lat="47.79385" lon="-3.52501">
        <ele>14.55</ele>
        <time>2020-07-08T12:14:44Z</time>
      </trkpt>
      <trkpt lat="47.79385" lon="-3.52501">
        <ele>14.55</ele>
        <time>2020-07-08T12:14:45Z</time>
      </trkpt>
      <trkpt lat="47.79385" lon="-3.52501">
        <ele>14.55</ele>
        <time>2020-07-08T12:14:46Z</time>
      </trkpt>
      <trkpt lat="47.79385" lon="-3.52501">
        <ele>14.55</ele>
        <time>2020-07-08T12:14:47Z</time>
      </trkpt>
      <trkpt lat="47.79379" lon="-3.52491">
        <ele>16.77</ele>
        <time>2020-07-08T12:14:48Z</time>
      </trkpt>
      <trkpt lat="47.79379" lon="-3.52491">
        <ele>17.48</ele>
        <time>2020-07-08T12:14:49Z</time>
      </trkpt>
      <trkpt lat="47.79379" lon="-3.5249">
        <ele>17.77</ele>
        <time>2020-07-08T12:14:50Z</time>
      </trkpt>
      <trkpt lat="47.79379" lon="-3.5249">
        <ele>17.98</ele>
        <time>2020-07-08T12:14:51Z</time>
      </trkpt>
      <trkpt lat="47.79379" lon="-3.5249">
        <ele>18.04</ele>
        <time>2020-07-08T12:14:52Z</time>
      </trkpt>
      <trkpt lat="47.79379" lon="-3.5249">
        <ele>18.06</ele>
        <time>2020-07-08T12:14:53Z</time>
      </trkpt>
      <trkpt lat="47.79379" lon="-3.5249">
        <ele>18.06</ele>
        <time>2020-07-08T12:14:54Z</time>
      </trkpt>
      <trkpt lat="47.79379" lon="-3.5249">
        <ele>18.06</ele>
        <time>2020-07-08T12:14:55Z</time>
      </trkpt>
      <trkpt lat="47.79379" lon="-3.5249">
        <ele>18.06</ele>
        <time>2020-07-08T12:14:56Z</time>
      </trkpt>
      <trkpt lat="47.79379" lon="-3.5249">
        <ele>18.06</ele>
        <time>2020-07-08T12:14:57Z</time>
      </trkpt>
      <trkpt lat="47.79379" lon="-3.5249">
        <ele>18.06</ele>
        <time>2020-07-08T12:14:58Z</time>
      </trkpt>
      <trkpt lat="47.79379" lon="-3.5249">
        <ele>18.06</ele>
        <time>2020-07-08T12:14:59Z</time>
      </trkpt>
      <trkpt lat="47.79379" lon="-3.5249">
        <ele>18.06</ele>
        <time>2020-07-08T12:15:00Z</time>
      </trkpt>
      <trkpt lat="47.79379" lon="-3.5249">
        <ele>18.06</ele>
        <time>2020-07-08T12:15:01Z</time>
      </trkpt>
      <trkpt lat="47.79379" lon="-3.5249">
        <ele>18.06</ele>
        <time>2020-07-08T12:15:02Z</time>
      </trkpt>
      <trkpt lat="47.79379" lon="-3.5249">
        <ele>18.06</ele>
        <time>2020-07-08T12:15:03Z</time>
      </trkpt>
      <trkpt lat="47.79379" lon="-3.5249">
        <ele>18.06</ele>
        <time>2020-07-08T12:15:04Z</time>
      </trkpt>
      <trkpt lat="47.79379" lon="-3.5249">
        <ele>18.06</ele>
        <time>2020-07-08T12:15:05Z</time>
      </trkpt>
      <trkpt lat="47.79371" lon="-3.52483">
        <ele>19.6</ele>
        <time>2020-07-08T12:15:06Z</time>
      </trkpt>
      <trkpt lat="47.79371" lon="-3.52482">
        <ele>20.22</ele>
        <time>2020-07-08T12:15:07Z</time>
      </trkpt>
      <trkpt lat="47.7937" lon="-3.52482">
        <ele>20.61</ele>
        <time>2020-07-08T12:15:08Z</time>
      </trkpt>
      <trkpt lat="47.7937" lon="-3.52481">
        <ele>20.96</ele>
        <time>2020-07-08T12:15:09Z</time>
      </trkpt>
      <trkpt lat="47.7937" lon="-3.52481">
        <ele>21.07</ele>
        <time>2020-07-08T12:15:10Z</time>
      </trkpt>
      <trkpt lat="47.7937" lon="-3.52481">
        <ele>21.1</ele>
        <time>2020-07-08T12:15:11Z</time>
      </trkpt>
      <trkpt lat="47.7937" lon="-3.52481">
        <ele>21.11</ele>
        <time>2020-07-08T12:15:12Z</time>
      </trkpt>
      <trkpt lat="47.7937" lon="-3.52481">
        <ele>21.11</ele>
        <time>2020-07-08T12:15:13Z</time>
      </trkpt>
      <trkpt lat="47.7937" lon="-3.52481">
        <ele>21.11</ele>
        <time>2020-07-08T12:15:14Z</time>
      </trkpt>
      <trkpt lat="47.7937" lon="-3.52481">
        <ele>21.12</ele>
        <time>2020-07-08T12:15:15Z</time>
      </trkpt>
      <trkpt lat="47.7937" lon="-3.52481">
        <ele>21.12</ele>
        <time>2020-07-08T12:15:16Z</time>
      </trkpt>
      <trkpt lat="47.7937" lon="-3.52481">
        <ele>21.12</ele>
        <time>2020-07-08T12:15:17Z</time>
      </trkpt>
      <trkpt lat="47.7937" lon="-3.52481">
        <ele>21.12</ele>
        <time>2020-07-08T12:15:18Z</time>
      </trkpt>
      <trkpt lat="47.7937" lon="-3.52481">
        <ele>21.12</ele>
        <time>2020-07-08T12:15:19Z</time>
      </trkpt>
      <trkpt lat="47.7937" lon="-3.52481">
        <ele>21.12</ele>
        <time>2020-07-08T12:15:20Z</time>
      </trkpt>
      <trkpt lat="47.7937" lon="-3.52481">
        <ele>21.12</ele>
        <time>2020-07-08T12:15:21Z</time>
      </trkpt>
      <trkpt lat="47.79361" lon="-3.52477">
        <ele>21.97</ele>
        <time>2020-07-08T12:15:22Z</time>
      </trkpt>
      <trkpt lat="47.79361" lon="-3.52475">
        <ele>22.77</ele>
        <time>2020-07-08T12:15:23Z</time>
      </trkpt>
      <trkpt lat="47.79361" lon="-3.52473">
        <ele>23.52</ele>
        <time>2020-07-08T12:15:24Z</time>
      </trkpt>
      <trkpt lat="47.79361" lon="-3.52472">
        <ele>23.89</ele>
        <time>2020-07-08T12:15:25Z</time>
      </trkpt>
      <trkpt lat="47.79361" lon="-3.52472">
        <ele>24</ele>
        <time>2020-07-08T12:15:26Z</time>
      </trkpt>
      <trkpt lat="47.79361" lon="-3.52472">
        <ele>24.03</ele>
        <time>2020-07-08T12:15:27Z</time>
      </trkpt>
      <trkpt lat="47.79361" lon="-3.52472">
        <ele>24.04</ele>
        <time>2020-07-08T12:15:28Z</time>
      </trkpt>
      <trkpt lat="47.79361" lon="-3.52472">
        <ele>24.05</ele>
        <time>2020-07-08T12:15:29Z</time>
      </trkpt>
      <trkpt lat="47.79361" lon="-3.52472">
        <ele>24.05</ele>
        <time>2020-07-08T12:15:30Z</time>
      </trkpt>
      <trkpt lat="47.79361" lon="-3.52472">
        <ele>24.05</ele>
        <time>2020-07-08T12:15:31Z</time>
      </trkpt>
      <trkpt lat="47.79361" lon="-3.52472">
        <ele>24.05</ele>
        <time>2020-07-08T12:15:32Z</time>
      </trkpt>
      <trkpt lat="47.79361" lon="-3.52472">
        <ele>24.05</ele>
        <time>2020-07-08T12:15:33Z</time>
      </trkpt>
      <trkpt lat="47.79361" lon="-3.52472">
        <ele>24.05</ele>
        <time>2020-07-08T12:15:34Z</time>
      </trkpt>
      <trkpt lat="47.79361" lon="-3.52472">
        <ele>24.05</ele>
        <time>2020-07-08T12:15:35Z</time>
      </trkpt>
      <trkpt lat="47.79361" lon="-3.52472">
        <ele>24.05</ele>
        <time>2020-07-08T12:15:36Z</time>
      </trkpt>
      <trkpt lat="47.79361" lon="-3.52472">
        <ele>24.05</ele>
        <time>2020-07-08T12:15:37Z</time>
      </trkpt>
      <trkpt lat="47.79361" lon="-3.52472">
        <ele>24.05</ele>
        <time>2020-07-08T12:15:38Z</time>
      </trkpt>
      <trkpt lat="47.79352" lon="-3.52472">
        <ele>23.7</ele>
        <time>2020-07-08T12:15:39Z</time>
      </trkpt>
      <trkpt lat="47.79352" lon="-3.52472">
        <ele>23.65</ele>
        <time>2020-07-08T12:15:40Z</time>
      </trkpt>
      <trkpt lat="47.79352" lon="-3.52472">
        <ele>23.71</ele>
        <time>2020-07-08T12:15:41Z</time>
      </trkpt>
      <trkpt lat="47.79352" lon="-3.52472">
        <ele>23.69</ele>
        <time>2020-07-08T12:15:42Z</time>
      </trkpt>
      <trkpt lat="47.79351" lon="-3.52472">
        <ele>23.63</ele>
        <time>2020-07-08T12:15:43Z</time>
      </trkpt>
      <trkpt lat="47.79351" lon="-3.52472">
        <ele>23.61</ele>
        <time>2020-07-08T12:15:44Z</time>
      </trkpt>
      <trkpt lat="47.79351" lon="-3.52472">
        <ele>23.61</ele>
        <time>2020-07-08T12:15:45Z</time>
      </trkpt>
      <trkpt lat="47.79351" lon="-3.52472">
        <ele>23.6</ele>
        <time>2020-07-08T12:15:46Z</time>
      </trkpt>
      <trkpt lat="47.79351" lon="-3.52472">
        <ele>23.6</ele>
        <time>2020-07-08T12:15:47Z</time>
      </trkpt>
      <trkpt lat="47.79351" lon="-3.52472">
        <ele>23.6</ele>
        <time>2020-07-08T12:15:48Z</time>
      </trkpt>
      <trkpt lat="47.79351" lon="-3.52472">
        <ele>23.6</ele>
        <time>2020-07-08T12:15:49Z</time>
      </trkpt>
      <trkpt lat="47.79351" lon="-3.52472">
        <ele>23.6</ele>
        <time>2020-07-08T12:15:50Z</time>
      </trkpt>
      <trkpt lat="47.79344" lon="-3.52471">
        <ele>23.67</ele>
        <time>2020-07-08T12:15:51Z</time>
      </trkpt>
      <trkpt lat="47.79343" lon="-3.52471">
        <ele>23.69</ele>
        <time>2020-07-08T12:15:52Z</time>
      </trkpt>
      <trkpt lat="47.79342" lon="-3.52471">
        <ele>23.68</ele>
        <time>2020-07-08T12:15:53Z</time>
      </trkpt>
      <trkpt lat="47.79341" lon="-3.52471">
        <ele>23.68</ele>
        <time>2020-07-08T12:15:54Z</time>
      </trkpt>
      <trkpt lat="47.7934" lon="-3.52471">
        <ele>23.67</ele>
        <time>2020-07-08T12:15:55Z</time>
      </trkpt>
      <trkpt lat="47.79339" lon="-3.52471">
        <ele>23.68</ele>
        <time>2020-07-08T12:15:56Z</time>
      </trkpt>
      <trkpt lat="47.79339" lon="-3.52471">
        <ele>23.68</ele>
        <time>2020-07-08T12:15:57Z</time>
      </trkpt>
      <trkpt lat="47.79339" lon="-3.52471">
        <ele>23.68</ele>
        <time>2020-07-08T12:15:58Z</time>
      </trkpt>
      <trkpt lat="47.79339" lon="-3.52471">
        <ele>23.68</ele>
        <time>2020-07-08T12:15:59Z</time>
      </trkpt>
      <trkpt lat="47.79339" lon="-3.52471">
        <ele>23.68</ele>
        <time>2020-07-08T12:16:00Z</time>
      </trkpt>
      <trkpt lat="47.79339" lon="-3.52471">
        <ele>23.68</ele>
        <time>2020-07-08T12:16:01Z</time>
      </trkpt>
      <trkpt lat="47.79339" lon="-3.52471">
        <ele>23.68</ele>
        <time>2020-07-08T12:16:02Z</time>
      </trkpt>
      <trkpt lat="47.79334" lon="-3.52467">
        <ele>24.3</ele>
        <time>2020-07-08T12:16:03Z</time>
      </trkpt>
      <trkpt lat="47.79333" lon="-3.52466">
        <ele>24.66</ele>
        <time>2020-07-08T12:16:04Z</time>
      </trkpt>
      <trkpt lat="47.79331" lon="-3.52465">
        <ele>24.89</ele>
        <time>2020-07-08T12:16:05Z</time>
      </trkpt>
      <trkpt lat="47.7933" lon="-3.52464">
        <ele>25.1</ele>
        <time>2020-07-08T12:16:06Z</time>
      </trkpt>
      <trkpt lat="47.79328" lon="-3.52463">
        <ele>25.28</ele>
        <time>2020-07-08T12:16:07Z</time>
      </trkpt>
      <trkpt lat="47.79326" lon="-3.52463">
        <ele>25.36</ele>
        <time>2020-07-08T12:16:08Z</time>
      </trkpt>
      <trkpt lat="47.79324" lon="-3.52462">
        <ele>25.49</ele>
        <time>2020-07-08T12:16:09Z</time>
      </trkpt>
      <trkpt lat="47.79321" lon="-3.52461">
        <ele>25.73</ele>
        <time>2020-07-08T12:16:10Z</time>
      </trkpt>
      <trkpt lat="47.79318" lon="-3.52459">
        <ele>26</ele>
        <time>2020-07-08T12:16:11Z</time>
      </trkpt>
      <trkpt lat="47.79315" lon="-3.52459">
        <ele>26</ele>
        <time>2020-07-08T12:16:12Z</time>
      </trkpt>
      <trkpt lat="47.79313" lon="-3.52459">
        <ele>25.95</ele>
        <time>2020-07-08T12:16:13Z</time>
      </trkpt>
      <trkpt lat="47.79311" lon="-3.5246">
        <ele>25.74</ele>
        <time>2020-07-08T12:16:14Z</time>
      </trkpt>
      <trkpt lat="47.79308" lon="-3.52461">
        <ele>25.51</ele>
        <time>2020-07-08T12:16:15Z</time>
      </trkpt>
      <trkpt lat="47.79305" lon="-3.52461">
        <ele>25.32</ele>
        <time>2020-07-08T12:16:16Z</time>
      </trkpt>
      <trkpt lat="47.79304" lon="-3.52461">
        <ele>25.29</ele>
        <time>2020-07-08T12:16:17Z</time>
      </trkpt>
      <trkpt lat="47.79301" lon="-3.52462">
        <ele>25.21</ele>
        <time>2020-07-08T12:16:18Z</time>
      </trkpt>
      <trkpt lat="47.79299" lon="-3.52462">
        <ele>25.19</ele>
        <time>2020-07-08T12:16:19Z</time>
      </trkpt>
      <trkpt lat="47.79297" lon="-3.52463">
        <ele>25.08</ele>
        <time>2020-07-08T12:16:20Z</time>
      </trkpt>
      <trkpt lat="47.79294" lon="-3.52464">
        <ele>24.93</ele>
        <time>2020-07-08T12:16:21Z</time>
      </trkpt>
      <trkpt lat="47.79292" lon="-3.52465">
        <ele>24.75</ele>
        <time>2020-07-08T12:16:22Z</time>
      </trkpt>
      <trkpt lat="47.7929" lon="-3.52467">
        <ele>24.57</ele>
        <time>2020-07-08T12:16:23Z</time>
      </trkpt>
      <trkpt lat="47.79289" lon="-3.52467">
        <ele>24.51</ele>
        <time>2020-07-08T12:16:24Z</time>
      </trkpt>
      <trkpt lat="47.79288" lon="-3.52467">
        <ele>24.57</ele>
        <time>2020-07-08T12:16:25Z</time>
      </trkpt>
      <trkpt lat="47.79286" lon="-3.52466">
        <ele>24.78</ele>
        <time>2020-07-08T12:16:26Z</time>
      </trkpt>
      <trkpt lat="47.79285" lon="-3.52465">
        <ele>25.06</ele>
        <time>2020-07-08T12:16:27Z</time>
      </trkpt>
      <trkpt lat="47.79284" lon="-3.52464">
        <ele>25.35</ele>
        <time>2020-07-08T12:16:28Z</time>
      </trkpt>
      <trkpt lat="47.79281" lon="-3.52464">
        <ele>25.55</ele>
        <time>2020-07-08T12:16:29Z</time>
      </trkpt>
      <trkpt lat="47.7928" lon="-3.52463">
        <ele>25.79</ele>
        <time>2020-07-08T12:16:30Z</time>
      </trkpt>
      <trkpt lat="47.79275" lon="-3.52461">
        <ele>26.25</ele>
        <time>2020-07-08T12:16:31Z</time>
      </trkpt>
      <trkpt lat="47.79274" lon="-3.52462">
        <ele>26.27</ele>
        <time>2020-07-08T12:16:32Z</time>
      </trkpt>
      <trkpt lat="47.79272" lon="-3.52462">
        <ele>26.31</ele>
        <time>2020-07-08T12:16:33Z</time>
      </trkpt>
      <trkpt lat="47.7927" lon="-3.52462">
        <ele>26.29</ele>
        <time>2020-07-08T12:16:34Z</time>
      </trkpt>
      <trkpt lat="47.79268" lon="-3.52465">
        <ele>25.85</ele>
        <time>2020-07-08T12:16:35Z</time>
      </trkpt>
      <trkpt lat="47.79266" lon="-3.52466">
        <ele>25.62</ele>
        <time>2020-07-08T12:16:36Z</time>
      </trkpt>
      <trkpt lat="47.79264" lon="-3.52466">
        <ele>25.62</ele>
        <time>2020-07-08T12:16:37Z</time>
      </trkpt>
      <trkpt lat="47.79262" lon="-3.52466">
        <ele>25.67</ele>
        <time>2020-07-08T12:16:38Z</time>
      </trkpt>
      <trkpt lat="47.79259" lon="-3.52465">
        <ele>25.8</ele>
        <time>2020-07-08T12:16:39Z</time>
      </trkpt>
      <trkpt lat="47.79256" lon="-3.52465">
        <ele>25.9</ele>
        <time>2020-07-08T12:16:40Z</time>
      </trkpt>
      <trkpt lat="47.79253" lon="-3.52465">
        <ele>26</ele>
        <time>2020-07-08T12:16:41Z</time>
      </trkpt>
      <trkpt lat="47.79249" lon="-3.52465">
        <ele>26</ele>
        <time>2020-07-08T12:16:42Z</time>
      </trkpt>
      <trkpt lat="47.79246" lon="-3.52467">
        <ele>25.93</ele>
        <time>2020-07-08T12:16:43Z</time>
      </trkpt>
      <trkpt lat="47.79243" lon="-3.52467">
        <ele>25.92</ele>
        <time>2020-07-08T12:16:44Z</time>
      </trkpt>
      <trkpt lat="47.7924" lon="-3.52468">
        <ele>25.91</ele>
        <time>2020-07-08T12:16:45Z</time>
      </trkpt>
      <trkpt lat="47.79236" lon="-3.52469">
        <ele>25.92</ele>
        <time>2020-07-08T12:16:46Z</time>
      </trkpt>
      <trkpt lat="47.79233" lon="-3.52471">
        <ele>25.83</ele>
        <time>2020-07-08T12:16:47Z</time>
      </trkpt>
      <trkpt lat="47.79233" lon="-3.52472">
        <ele>25.73</ele>
        <time>2020-07-08T12:16:48Z</time>
      </trkpt>
      <trkpt lat="47.79232" lon="-3.52472">
        <ele>25.68</ele>
        <time>2020-07-08T12:16:49Z</time>
      </trkpt>
      <trkpt lat="47.79232" lon="-3.52472">
        <ele>25.64</ele>
        <time>2020-07-08T12:16:50Z</time>
      </trkpt>
      <trkpt lat="47.79232" lon="-3.52472">
        <ele>25.63</ele>
        <time>2020-07-08T12:16:51Z</time>
      </trkpt>
      <trkpt lat="47.79232" lon="-3.52472">
        <ele>25.63</ele>
        <time>2020-07-08T12:16:52Z</time>
      </trkpt>
      <trkpt lat="47.79232" lon="-3.52472">
        <ele>25.63</ele>
        <time>2020-07-08T12:16:53Z</time>
      </trkpt>
      <trkpt lat="47.79232" lon="-3.52472">
        <ele>25.63</ele>
        <time>2020-07-08T12:16:54Z</time>
      </trkpt>
      <trkpt lat="47.79226" lon="-3.52474">
        <ele>25.34</ele>
        <time>2020-07-08T12:16:55Z</time>
      </trkpt>
      <trkpt lat="47.79224" lon="-3.52475">
        <ele>25.02</ele>
        <time>2020-07-08T12:16:56Z</time>
      </trkpt>
      <trkpt lat="47.79223" lon="-3.52476">
        <ele>24.79</ele>
        <time>2020-07-08T12:16:57Z</time>
      </trkpt>
      <trkpt lat="47.79222" lon="-3.52476">
        <ele>24.66</ele>
        <time>2020-07-08T12:16:58Z</time>
      </trkpt>
      <trkpt lat="47.79222" lon="-3.52477">
        <ele>24.36</ele>
        <time>2020-07-08T12:16:59Z</time>
      </trkpt>
      <trkpt lat="47.79222" lon="-3.52477">
        <ele>24.27</ele>
        <time>2020-07-08T12:17:00Z</time>
      </trkpt>
      <trkpt lat="47.79222" lon="-3.52477">
        <ele>24.24</ele>
        <time>2020-07-08T12:17:01Z</time>
      </trkpt>
      <trkpt lat="47.79222" lon="-3.52477">
        <ele>24.24</ele>
        <time>2020-07-08T12:17:02Z</time>
      </trkpt>
      <trkpt lat="47.79222" lon="-3.52477">
        <ele>24.23</ele>
        <time>2020-07-08T12:17:03Z</time>
      </trkpt>
      <trkpt lat="47.79222" lon="-3.52477">
        <ele>24.23</ele>
        <time>2020-07-08T12:17:04Z</time>
      </trkpt>
      <trkpt lat="47.79222" lon="-3.52477">
        <ele>24.23</ele>
        <time>2020-07-08T12:17:05Z</time>
      </trkpt>
      <trkpt lat="47.79222" lon="-3.52477">
        <ele>24.23</ele>
        <time>2020-07-08T12:17:06Z</time>
      </trkpt>
      <trkpt lat="47.79222" lon="-3.52477">
        <ele>24.23</ele>
        <time>2020-07-08T12:17:07Z</time>
      </trkpt>
      <trkpt lat="47.79216" lon="-3.52478">
        <ele>23.29</ele>
        <time>2020-07-08T12:17:08Z</time>
      </trkpt>
      <trkpt lat="47.79214" lon="-3.52478">
        <ele>22.85</ele>
        <time>2020-07-08T12:17:09Z</time>
      </trkpt>
      <trkpt lat="47.79212" lon="-3.52477">
        <ele>22.69</ele>
        <time>2020-07-08T12:17:10Z</time>
      </trkpt>
      <trkpt lat="47.7921" lon="-3.52476">
        <ele>22.85</ele>
        <time>2020-07-08T12:17:11Z</time>
      </trkpt>
      <trkpt lat="47.79208" lon="-3.52473">
        <ele>23.52</ele>
        <time>2020-07-08T12:17:12Z</time>
      </trkpt>
      <trkpt lat="47.79207" lon="-3.5247">
        <ele>23.97</ele>
        <time>2020-07-08T12:17:13Z</time>
      </trkpt>
      <trkpt lat="47.79206" lon="-3.52469">
        <ele>24.11</ele>
        <time>2020-07-08T12:17:14Z</time>
      </trkpt>
      <trkpt lat="47.79204" lon="-3.52468">
        <ele>24.07</ele>
        <time>2020-07-08T12:17:15Z</time>
      </trkpt>
      <trkpt lat="47.79202" lon="-3.52468">
        <ele>23.91</ele>
        <time>2020-07-08T12:17:16Z</time>
      </trkpt>
      <trkpt lat="47.792" lon="-3.52468">
        <ele>23.68</ele>
        <time>2020-07-08T12:17:17Z</time>
      </trkpt>
      <trkpt lat="47.79196" lon="-3.52465">
        <ele>23.8</ele>
        <time>2020-07-08T12:17:18Z</time>
      </trkpt>
      <trkpt lat="47.79194" lon="-3.52463">
        <ele>23.85</ele>
        <time>2020-07-08T12:17:19Z</time>
      </trkpt>
      <trkpt lat="47.79193" lon="-3.52463">
        <ele>23.96</ele>
        <time>2020-07-08T12:17:20Z</time>
      </trkpt>
      <trkpt lat="47.79191" lon="-3.52463">
        <ele>23.95</ele>
        <time>2020-07-08T12:17:21Z</time>
      </trkpt>
      <trkpt lat="47.7919" lon="-3.52463">
        <ele>23.79</ele>
        <time>2020-07-08T12:17:22Z</time>
      </trkpt>
      <trkpt lat="47.79189" lon="-3.52465">
        <ele>23.56</ele>
        <time>2020-07-08T12:17:23Z</time>
      </trkpt>
      <trkpt lat="47.79187" lon="-3.52466">
        <ele>23.23</ele>
        <time>2020-07-08T12:17:24Z</time>
      </trkpt>
      <trkpt lat="47.79184" lon="-3.52467">
        <ele>22.96</ele>
        <time>2020-07-08T12:17:25Z</time>
      </trkpt>
      <trkpt lat="47.79181" lon="-3.52468">
        <ele>22.62</ele>
        <time>2020-07-08T12:17:26Z</time>
      </trkpt>
      <trkpt lat="47.79179" lon="-3.5247">
        <ele>22.18</ele>
        <time>2020-07-08T12:17:27Z</time>
      </trkpt>
      <trkpt lat="47.79175" lon="-3.52471">
        <ele>21.79</ele>
        <time>2020-07-08T12:17:28Z</time>
      </trkpt>
      <trkpt lat="47.79171" lon="-3.52473">
        <ele>21.19</ele>
        <time>2020-07-08T12:17:29Z</time>
      </trkpt>
      <trkpt lat="47.79167" lon="-3.52475">
        <ele>20.33</ele>
        <time>2020-07-08T12:17:30Z</time>
      </trkpt>
      <trkpt lat="47.79164" lon="-3.52478">
        <ele>19.77</ele>
        <time>2020-07-08T12:17:31Z</time>
      </trkpt>
      <trkpt lat="47.79161" lon="-3.5248">
        <ele>19.38</ele>
        <time>2020-07-08T12:17:32Z</time>
      </trkpt>
      <trkpt lat="47.79158" lon="-3.52483">
        <ele>19.14</ele>
        <time>2020-07-08T12:17:33Z</time>
      </trkpt>
      <trkpt lat="47.79155" lon="-3.52485">
        <ele>18.8</ele>
        <time>2020-07-08T12:17:34Z</time>
      </trkpt>
      <trkpt lat="47.79153" lon="-3.52489">
        <ele>18.37</ele>
        <time>2020-07-08T12:17:35Z</time>
      </trkpt>
      <trkpt lat="47.7915" lon="-3.52493">
        <ele>17.83</ele>
        <time>2020-07-08T12:17:36Z</time>
      </trkpt>
      <trkpt lat="47.79147" lon="-3.52496">
        <ele>17.44</ele>
        <time>2020-07-08T12:17:37Z</time>
      </trkpt>
      <trkpt lat="47.79145" lon="-3.52498">
        <ele>17.18</ele>
        <time>2020-07-08T12:17:38Z</time>
      </trkpt>
      <trkpt lat="47.79143" lon="-3.525">
        <ele>17.04</ele>
        <time>2020-07-08T12:17:39Z</time>
      </trkpt>
      <trkpt lat="47.79142" lon="-3.52502">
        <ele>16.88</ele>
        <time>2020-07-08T12:17:40Z</time>
      </trkpt>
      <trkpt lat="47.7914" lon="-3.52505">
        <ele>16.69</ele>
        <time>2020-07-08T12:17:41Z</time>
      </trkpt>
      <trkpt lat="47.79138" lon="-3.52507">
        <ele>16.52</ele>
        <time>2020-07-08T12:17:42Z</time>
      </trkpt>
      <trkpt lat="47.79136" lon="-3.5251">
        <ele>16.37</ele>
        <time>2020-07-08T12:17:43Z</time>
      </trkpt>
      <trkpt lat="47.79133" lon="-3.52514">
        <ele>16.38</ele>
        <time>2020-07-08T12:17:44Z</time>
      </trkpt>
      <trkpt lat="47.79131" lon="-3.52516">
        <ele>16.54</ele>
        <time>2020-07-08T12:17:45Z</time>
      </trkpt>
      <trkpt lat="47.7913" lon="-3.52517">
        <ele>16.74</ele>
        <time>2020-07-08T12:17:46Z</time>
      </trkpt>
      <trkpt lat="47.79128" lon="-3.52518">
        <ele>16.98</ele>
        <time>2020-07-08T12:17:47Z</time>
      </trkpt>
      <trkpt lat="47.79128" lon="-3.52518">
        <ele>17.19</ele>
        <time>2020-07-08T12:17:48Z</time>
      </trkpt>
      <trkpt lat="47.79128" lon="-3.52518">
        <ele>17.25</ele>
        <time>2020-07-08T12:17:49Z</time>
      </trkpt>
      <trkpt lat="47.79128" lon="-3.52518">
        <ele>17.27</ele>
        <time>2020-07-08T12:17:50Z</time>
      </trkpt>
      <trkpt lat="47.79128" lon="-3.52518">
        <ele>17.28</ele>
        <time>2020-07-08T12:17:51Z</time>
      </trkpt>
      <trkpt lat="47.79128" lon="-3.52518">
        <ele>17.28</ele>
        <time>2020-07-08T12:17:52Z</time>
      </trkpt>
      <trkpt lat="47.79128" lon="-3.52518">
        <ele>17.28</ele>
        <time>2020-07-08T12:17:53Z</time>
      </trkpt>
      <trkpt lat="47.79128" lon="-3.52518">
        <ele>17.28</ele>
        <time>2020-07-08T12:17:54Z</time>
      </trkpt>
      <trkpt lat="47.7912" lon="-3.52525">
        <ele>18.44</ele>
        <time>2020-07-08T12:17:55Z</time>
      </trkpt>
      <trkpt lat="47.79119" lon="-3.52526">
        <ele>18.87</ele>
        <time>2020-07-08T12:17:56Z</time>
      </trkpt>
      <trkpt lat="47.79118" lon="-3.52527">
        <ele>19.09</ele>
        <time>2020-07-08T12:17:57Z</time>
      </trkpt>
      <trkpt lat="47.79118" lon="-3.52528">
        <ele>19.31</ele>
        <time>2020-07-08T12:17:58Z</time>
      </trkpt>
      <trkpt lat="47.79118" lon="-3.52528">
        <ele>19.37</ele>
        <time>2020-07-08T12:17:59Z</time>
      </trkpt>
      <trkpt lat="47.79118" lon="-3.52528">
        <ele>19.39</ele>
        <time>2020-07-08T12:18:00Z</time>
      </trkpt>
      <trkpt lat="47.79118" lon="-3.52528">
        <ele>19.4</ele>
        <time>2020-07-08T12:18:01Z</time>
      </trkpt>
      <trkpt lat="47.79118" lon="-3.52528">
        <ele>19.4</ele>
        <time>2020-07-08T12:18:02Z</time>
      </trkpt>
      <trkpt lat="47.79118" lon="-3.52528">
        <ele>19.4</ele>
        <time>2020-07-08T12:18:03Z</time>
      </trkpt>
      <trkpt lat="47.79118" lon="-3.52528">
        <ele>19.4</ele>
        <time>2020-07-08T12:18:04Z</time>
      </trkpt>
      <trkpt lat="47.79118" lon="-3.52528">
        <ele>19.4</ele>
        <time>2020-07-08T12:18:05Z</time>
      </trkpt>
      <trkpt lat="47.79108" lon="-3.52536">
        <ele>20.6</ele>
        <time>2020-07-08T12:18:06Z</time>
      </trkpt>
      <trkpt lat="47.79105" lon="-3.52539">
        <ele>20.91</ele>
        <time>2020-07-08T12:18:07Z</time>
      </trkpt>
      <trkpt lat="47.79104" lon="-3.52541">
        <ele>20.91</ele>
        <time>2020-07-08T12:18:08Z</time>
      </trkpt>
      <trkpt lat="47.79103" lon="-3.52544">
        <ele>20.68</ele>
        <time>2020-07-08T12:18:09Z</time>
      </trkpt>
      <trkpt lat="47.79102" lon="-3.52547">
        <ele>20.53</ele>
        <time>2020-07-08T12:18:10Z</time>
      </trkpt>
      <trkpt lat="47.791" lon="-3.52548">
        <ele>20.45</ele>
        <time>2020-07-08T12:18:11Z</time>
      </trkpt>
      <trkpt lat="47.79098" lon="-3.5255">
        <ele>20.43</ele>
        <time>2020-07-08T12:18:12Z</time>
      </trkpt>
      <trkpt lat="47.79097" lon="-3.52552">
        <ele>20.38</ele>
        <time>2020-07-08T12:18:13Z</time>
      </trkpt>
      <trkpt lat="47.79095" lon="-3.52554">
        <ele>20.43</ele>
        <time>2020-07-08T12:18:14Z</time>
      </trkpt>
      <trkpt lat="47.79093" lon="-3.52556">
        <ele>20.51</ele>
        <time>2020-07-08T12:18:15Z</time>
      </trkpt>
      <trkpt lat="47.79092" lon="-3.52557">
        <ele>20.53</ele>
        <time>2020-07-08T12:18:16Z</time>
      </trkpt>
      <trkpt lat="47.7909" lon="-3.52559">
        <ele>20.44</ele>
        <time>2020-07-08T12:18:17Z</time>
      </trkpt>
      <trkpt lat="47.79089" lon="-3.5256">
        <ele>20.4</ele>
        <time>2020-07-08T12:18:18Z</time>
      </trkpt>
      <trkpt lat="47.79087" lon="-3.52562">
        <ele>20.39</ele>
        <time>2020-07-08T12:18:19Z</time>
      </trkpt>
      <trkpt lat="47.79085" lon="-3.52564">
        <ele>20.41</ele>
        <time>2020-07-08T12:18:20Z</time>
      </trkpt>
      <trkpt lat="47.79083" lon="-3.52567">
        <ele>20.39</ele>
        <time>2020-07-08T12:18:21Z</time>
      </trkpt>
      <trkpt lat="47.79081" lon="-3.5257">
        <ele>20.27</ele>
        <time>2020-07-08T12:18:22Z</time>
      </trkpt>
      <trkpt lat="47.79079" lon="-3.52573">
        <ele>20.1</ele>
        <time>2020-07-08T12:18:23Z</time>
      </trkpt>
      <trkpt lat="47.79079" lon="-3.52575">
        <ele>19.9</ele>
        <time>2020-07-08T12:18:24Z</time>
      </trkpt>
      <trkpt lat="47.79078" lon="-3.52576">
        <ele>19.75</ele>
        <time>2020-07-08T12:18:25Z</time>
      </trkpt>
      <trkpt lat="47.79078" lon="-3.52577">
        <ele>19.67</ele>
        <time>2020-07-08T12:18:26Z</time>
      </trkpt>
      <trkpt lat="47.79078" lon="-3.52577">
        <ele>19.63</ele>
        <time>2020-07-08T12:18:27Z</time>
      </trkpt>
      <trkpt lat="47.79078" lon="-3.52577">
        <ele>19.62</ele>
        <time>2020-07-08T12:18:28Z</time>
      </trkpt>
      <trkpt lat="47.79078" lon="-3.52577">
        <ele>19.62</ele>
        <time>2020-07-08T12:18:29Z</time>
      </trkpt>
      <trkpt lat="47.79078" lon="-3.52577">
        <ele>19.62</ele>
        <time>2020-07-08T12:18:30Z</time>
      </trkpt>
      <trkpt lat="47.79078" lon="-3.52577">
        <ele>19.62</ele>
        <time>2020-07-08T12:18:31Z</time>
      </trkpt>
      <trkpt lat="47.79078" lon="-3.52577">
        <ele>19.62</ele>
        <time>2020-07-08T12:18:32Z</time>
      </trkpt>
      <trkpt lat="47.79078" lon="-3.52577">
        <ele>19.62</ele>
        <time>2020-07-08T12:18:33Z</time>
      </trkpt>
      <trkpt lat="47.79078" lon="-3.52577">
        <ele>19.62</ele>
        <time>2020-07-08T12:18:34Z</time>
      </trkpt>
      <trkpt lat="47.79078" lon="-3.52577">
        <ele>19.62</ele>
        <time>2020-07-08T12:18:35Z</time>
      </trkpt>
      <trkpt lat="47.79075" lon="-3.52582">
        <ele>19.5</ele>
        <time>2020-07-08T12:18:36Z</time>
      </trkpt>
      <trkpt lat="47.79072" lon="-3.52584">
        <ele>19.45</ele>
        <time>2020-07-08T12:18:37Z</time>
      </trkpt>
      <trkpt lat="47.79072" lon="-3.52586">
        <ele>19.26</ele>
        <time>2020-07-08T12:18:38Z</time>
      </trkpt>
      <trkpt lat="47.7907" lon="-3.52588">
        <ele>19.1</ele>
        <time>2020-07-08T12:18:39Z</time>
      </trkpt>
      <trkpt lat="47.79069" lon="-3.5259">
        <ele>18.89</ele>
        <time>2020-07-08T12:18:40Z</time>
      </trkpt>
      <trkpt lat="47.79067" lon="-3.5259">
        <ele>19.09</ele>
        <time>2020-07-08T12:18:41Z</time>
      </trkpt>
      <trkpt lat="47.79066" lon="-3.52591">
        <ele>19.24</ele>
        <time>2020-07-08T12:18:42Z</time>
      </trkpt>
      <trkpt lat="47.79066" lon="-3.52591">
        <ele>19.29</ele>
        <time>2020-07-08T12:18:43Z</time>
      </trkpt>
      <trkpt lat="47.79066" lon="-3.52591">
        <ele>19.3</ele>
        <time>2020-07-08T12:18:44Z</time>
      </trkpt>
      <trkpt lat="47.79066" lon="-3.52591">
        <ele>19.31</ele>
        <time>2020-07-08T12:18:45Z</time>
      </trkpt>
      <trkpt lat="47.79066" lon="-3.52591">
        <ele>19.31</ele>
        <time>2020-07-08T12:18:46Z</time>
      </trkpt>
      <trkpt lat="47.7906" lon="-3.52595">
        <ele>19.77</ele>
        <time>2020-07-08T12:18:47Z</time>
      </trkpt>
      <trkpt lat="47.79059" lon="-3.52596">
        <ele>20.02</ele>
        <time>2020-07-08T12:18:48Z</time>
      </trkpt>
      <trkpt lat="47.79059" lon="-3.52597">
        <ele>20.15</ele>
        <time>2020-07-08T12:18:49Z</time>
      </trkpt>
      <trkpt lat="47.79058" lon="-3.52599">
        <ele>20.12</ele>
        <time>2020-07-08T12:18:50Z</time>
      </trkpt>
      <trkpt lat="47.79058" lon="-3.52599">
        <ele>20.11</ele>
        <time>2020-07-08T12:18:51Z</time>
      </trkpt>
      <trkpt lat="47.79056" lon="-3.52603">
        <ele>20.46</ele>
        <time>2020-07-08T12:18:52Z</time>
      </trkpt>
      <trkpt lat="47.79053" lon="-3.52605">
        <ele>20.41</ele>
        <time>2020-07-08T12:18:53Z</time>
      </trkpt>
      <trkpt lat="47.7905" lon="-3.52606">
        <ele>20.34</ele>
        <time>2020-07-08T12:18:54Z</time>
      </trkpt>
      <trkpt lat="47.79048" lon="-3.52608">
        <ele>20.25</ele>
        <time>2020-07-08T12:18:55Z</time>
      </trkpt>
      <trkpt lat="47.79046" lon="-3.52609">
        <ele>20.17</ele>
        <time>2020-07-08T12:18:56Z</time>
      </trkpt>
      <trkpt lat="47.79044" lon="-3.5261">
        <ele>20.09</ele>
        <time>2020-07-08T12:18:57Z</time>
      </trkpt>
      <trkpt lat="47.79044" lon="-3.5261">
        <ele>20.06</ele>
        <time>2020-07-08T12:18:58Z</time>
      </trkpt>
      <trkpt lat="47.79043" lon="-3.5261">
        <ele>20.05</ele>
        <time>2020-07-08T12:18:59Z</time>
      </trkpt>
      <trkpt lat="47.79043" lon="-3.5261">
        <ele>20.05</ele>
        <time>2020-07-08T12:19:00Z</time>
      </trkpt>
      <trkpt lat="47.79043" lon="-3.5261">
        <ele>20.04</ele>
        <time>2020-07-08T12:19:01Z</time>
      </trkpt>
      <trkpt lat="47.79043" lon="-3.5261">
        <ele>20.04</ele>
        <time>2020-07-08T12:19:02Z</time>
      </trkpt>
      <trkpt lat="47.79043" lon="-3.5261">
        <ele>20.04</ele>
        <time>2020-07-08T12:19:03Z</time>
      </trkpt>
      <trkpt lat="47.79043" lon="-3.5261">
        <ele>20.04</ele>
        <time>2020-07-08T12:19:04Z</time>
      </trkpt>
      <trkpt lat="47.79043" lon="-3.5261">
        <ele>20.04</ele>
        <time>2020-07-08T12:19:05Z</time>
      </trkpt>
      <trkpt lat="47.79043" lon="-3.5261">
        <ele>20.04</ele>
        <time>2020-07-08T12:19:06Z</time>
      </trkpt>
      <trkpt lat="47.79043" lon="-3.5261">
        <ele>20.04</ele>
        <time>2020-07-08T12:19:07Z</time>
      </trkpt>
      <trkpt lat="47.79043" lon="-3.5261">
        <ele>20.04</ele>
        <time>2020-07-08T12:19:08Z</time>
      </trkpt>
      <trkpt lat="47.79043" lon="-3.5261">
        <ele>20.04</ele>
        <time>2020-07-08T12:19:09Z</time>
      </trkpt>
      <trkpt lat="47.79043" lon="-3.5261">
        <ele>20.04</ele>
        <time>2020-07-08T12:19:10Z</time>
      </trkpt>
      <trkpt lat="47.79043" lon="-3.5261">
        <ele>20.04</ele>
        <time>2020-07-08T12:19:11Z</time>
      </trkpt>
      <trkpt lat="47.79043" lon="-3.5261">
        <ele>20.04</ele>
        <time>2020-07-08T12:19:12Z</time>
      </trkpt>
      <trkpt lat="47.79043" lon="-3.5261">
        <ele>20.04</ele>
        <time>2020-07-08T12:19:13Z</time>
      </trkpt>
      <trkpt lat="47.79043" lon="-3.5261">
        <ele>20.04</ele>
        <time>2020-07-08T12:19:14Z</time>
      </trkpt>
      <trkpt lat="47.79043" lon="-3.5261">
        <ele>20.04</ele>
        <time>2020-07-08T12:19:15Z</time>
      </trkpt>
      <trkpt lat="47.79043" lon="-3.5261">
        <ele>20.04</ele>
        <time>2020-07-08T12:19:16Z</time>
      </trkpt>
      <trkpt lat="47.79035" lon="-3.52616">
        <ele>19.68</ele>
        <time>2020-07-08T12:19:17Z</time>
      </trkpt>
      <trkpt lat="47.79035" lon="-3.52616">
        <ele>19.54</ele>
        <time>2020-07-08T12:19:18Z</time>
      </trkpt>
      <trkpt lat="47.79035" lon="-3.52616">
        <ele>19.49</ele>
        <time>2020-07-08T12:19:19Z</time>
      </trkpt>
      <trkpt lat="47.79035" lon="-3.52617">
        <ele>19.46</ele>
        <time>2020-07-08T12:19:20Z</time>
      </trkpt>
      <trkpt lat="47.79035" lon="-3.52617">
        <ele>19.45</ele>
        <time>2020-07-08T12:19:21Z</time>
      </trkpt>
      <trkpt lat="47.79035" lon="-3.52617">
        <ele>19.45</ele>
        <time>2020-07-08T12:19:22Z</time>
      </trkpt>
      <trkpt lat="47.79035" lon="-3.52617">
        <ele>19.45</ele>
        <time>2020-07-08T12:19:23Z</time>
      </trkpt>
      <trkpt lat="47.79035" lon="-3.52617">
        <ele>19.45</ele>
        <time>2020-07-08T12:19:24Z</time>
      </trkpt>
      <trkpt lat="47.79035" lon="-3.52617">
        <ele>19.45</ele>
        <time>2020-07-08T12:19:25Z</time>
      </trkpt>
      <trkpt lat="47.79035" lon="-3.52617">
        <ele>19.45</ele>
        <time>2020-07-08T12:19:26Z</time>
      </trkpt>
      <trkpt lat="47.79035" lon="-3.52617">
        <ele>19.45</ele>
        <time>2020-07-08T12:19:27Z</time>
      </trkpt>
      <trkpt lat="47.79035" lon="-3.52617">
        <ele>19.45</ele>
        <time>2020-07-08T12:19:28Z</time>
      </trkpt>
      <trkpt lat="47.79035" lon="-3.52617">
        <ele>19.45</ele>
        <time>2020-07-08T12:19:29Z</time>
      </trkpt>
      <trkpt lat="47.79035" lon="-3.52617">
        <ele>19.45</ele>
        <time>2020-07-08T12:19:30Z</time>
      </trkpt>
      <trkpt lat="47.79035" lon="-3.52617">
        <ele>19.45</ele>
        <time>2020-07-08T12:19:31Z</time>
      </trkpt>
      <trkpt lat="47.79035" lon="-3.52617">
        <ele>19.45</ele>
        <time>2020-07-08T12:19:32Z</time>
      </trkpt>
      <trkpt lat="47.79035" lon="-3.52617">
        <ele>19.45</ele>
        <time>2020-07-08T12:19:33Z</time>
      </trkpt>
      <trkpt lat="47.79035" lon="-3.52617">
        <ele>19.45</ele>
        <time>2020-07-08T12:19:34Z</time>
      </trkpt>
      <trkpt lat="47.79035" lon="-3.52617">
        <ele>19.45</ele>
        <time>2020-07-08T12:19:35Z</time>
      </trkpt>
      <trkpt lat="47.79035" lon="-3.52617">
        <ele>19.45</ele>
        <time>2020-07-08T12:19:36Z</time>
      </trkpt>
      <trkpt lat="47.79035" lon="-3.52617">
        <ele>19.45</ele>
        <time>2020-07-08T12:19:37Z</time>
      </trkpt>
      <trkpt lat="47.79035" lon="-3.52617">
        <ele>19.45</ele>
        <time>2020-07-08T12:19:38Z</time>
      </trkpt>
      <trkpt lat="47.79035" lon="-3.52617">
        <ele>19.45</ele>
        <time>2020-07-08T12:19:39Z</time>
      </trkpt>
      <trkpt lat="47.79035" lon="-3.52617">
        <ele>19.45</ele>
        <time>2020-07-08T12:19:40Z</time>
      </trkpt>
      <trkpt lat="47.79035" lon="-3.52617">
        <ele>19.45</ele>
        <time>2020-07-08T12:19:41Z</time>
      </trkpt>
      <trkpt lat="47.79035" lon="-3.52617">
        <ele>19.45</ele>
        <time>2020-07-08T12:19:42Z</time>
      </trkpt>
      <trkpt lat="47.79035" lon="-3.52617">
        <ele>19.45</ele>
        <time>2020-07-08T12:19:43Z</time>
      </trkpt>
      <trkpt lat="47.79035" lon="-3.52617">
        <ele>19.45</ele>
        <time>2020-07-08T12:19:44Z</time>
      </trkpt>
      <trkpt lat="47.79035" lon="-3.52617">
        <ele>19.45</ele>
        <time>2020-07-08T12:19:45Z</time>
      </trkpt>
      <trkpt lat="47.79035" lon="-3.52617">
        <ele>19.45</ele>
        <time>2020-07-08T12:19:46Z</time>
      </trkpt>
      <trkpt lat="47.79035" lon="-3.52617">
        <ele>19.45</ele>
        <time>2020-07-08T12:19:47Z</time>
      </trkpt>
      <trkpt lat="47.79035" lon="-3.52617">
        <ele>19.45</ele>
        <time>2020-07-08T12:19:48Z</time>
      </trkpt>
      <trkpt lat="47.79035" lon="-3.52617">
        <ele>19.45</ele>
        <time>2020-07-08T12:19:49Z</time>
      </trkpt>
      <trkpt lat="47.79035" lon="-3.52617">
        <ele>19.45</ele>
        <time>2020-07-08T12:19:50Z</time>
      </trkpt>
      <trkpt lat="47.79035" lon="-3.52617">
        <ele>19.45</ele>
        <time>2020-07-08T12:19:51Z</time>
      </trkpt>
      <trkpt lat="47.79035" lon="-3.52617">
        <ele>19.45</ele>
        <time>2020-07-08T12:19:52Z</time>
      </trkpt>
      <trkpt lat="47.79035" lon="-3.52617">
        <ele>19.45</ele>
        <time>2020-07-08T12:19:53Z</time>
      </trkpt>
      <trkpt lat="47.79035" lon="-3.52617">
        <ele>19.45</ele>
        <time>2020-07-08T12:19:54Z</time>
      </trkpt>
      <trkpt lat="47.79035" lon="-3.52617">
        <ele>19.45</ele>
        <time>2020-07-08T12:19:55Z</time>
      </trkpt>
      <trkpt lat="47.79035" lon="-3.52617">
        <ele>19.45</ele>
        <time>2020-07-08T12:19:56Z</time>
      </trkpt>
      <trkpt lat="47.79035" lon="-3.52617">
        <ele>19.45</ele>
        <time>2020-07-08T12:19:57Z</time>
      </trkpt>
      <trkpt lat="47.79035" lon="-3.52617">
        <ele>19.45</ele>
        <time>2020-07-08T12:19:58Z</time>
      </trkpt>
      <trkpt lat="47.79035" lon="-3.52617">
        <ele>19.45</ele>
        <time>2020-07-08T12:19:59Z</time>
      </trkpt>
      <trkpt lat="47.79035" lon="-3.52617">
        <ele>19.45</ele>
        <time>2020-07-08T12:20:00Z</time>
      </trkpt>
      <trkpt lat="47.79035" lon="-3.52617">
        <ele>19.45</ele>
        <time>2020-07-08T12:20:01Z</time>
      </trkpt>
      <trkpt lat="47.79035" lon="-3.52617">
        <ele>19.45</ele>
        <time>2020-07-08T12:20:02Z</time>
      </trkpt>
      <trkpt lat="47.79035" lon="-3.52617">
        <ele>19.45</ele>
        <time>2020-07-08T12:20:03Z</time>
      </trkpt>
      <trkpt lat="47.79035" lon="-3.52617">
        <ele>19.45</ele>
        <time>2020-07-08T12:20:04Z</time>
      </trkpt>
      <trkpt lat="47.79035" lon="-3.52617">
        <ele>19.45</ele>
        <time>2020-07-08T12:20:05Z</time>
      </trkpt>
      <trkpt lat="47.79035" lon="-3.52617">
        <ele>19.45</ele>
        <time>2020-07-08T12:20:06Z</time>
      </trkpt>
      <trkpt lat="47.79035" lon="-3.52617">
        <ele>19.45</ele>
        <time>2020-07-08T12:20:07Z</time>
      </trkpt>
      <trkpt lat="47.79035" lon="-3.52617">
        <ele>19.45</ele>
        <time>2020-07-08T12:20:08Z</time>
      </trkpt>
      <trkpt lat="47.79035" lon="-3.52617">
        <ele>19.45</ele>
        <time>2020-07-08T12:20:09Z</time>
      </trkpt>
      <trkpt lat="47.79035" lon="-3.52617">
        <ele>19.45</ele>
        <time>2020-07-08T12:20:10Z</time>
      </trkpt>
      <trkpt lat="47.79035" lon="-3.52617">
        <ele>19.45</ele>
        <time>2020-07-08T12:20:11Z</time>
      </trkpt>
      <trkpt lat="47.79035" lon="-3.52617">
        <ele>19.45</ele>
        <time>2020-07-08T12:20:12Z</time>
      </trkpt>
      <trkpt lat="47.79035" lon="-3.52617">
        <ele>19.45</ele>
        <time>2020-07-08T12:20:13Z</time>
      </trkpt>
      <trkpt lat="47.79035" lon="-3.52617">
        <ele>19.45</ele>
        <time>2020-07-08T12:20:14Z</time>
      </trkpt>
      <trkpt lat="47.79035" lon="-3.52617">
        <ele>19.45</ele>
        <time>2020-07-08T12:20:15Z</time>
      </trkpt>
      <trkpt lat="47.79035" lon="-3.52617">
        <ele>19.45</ele>
        <time>2020-07-08T12:20:16Z</time>
      </trkpt>
      <trkpt lat="47.79035" lon="-3.52617">
        <ele>19.45</ele>
        <time>2020-07-08T12:20:17Z</time>
      </trkpt>
      <trkpt lat="47.79035" lon="-3.52617">
        <ele>19.45</ele>
        <time>2020-07-08T12:20:18Z</time>
      </trkpt>
      <trkpt lat="47.79035" lon="-3.52617">
        <ele>19.45</ele>
        <time>2020-07-08T12:20:19Z</time>
      </trkpt>
      <trkpt lat="47.79035" lon="-3.52617">
        <ele>19.45</ele>
        <time>2020-07-08T12:20:20Z</time>
      </trkpt>
      <trkpt lat="47.79035" lon="-3.52617">
        <ele>19.45</ele>
        <time>2020-07-08T12:20:21Z</time>
      </trkpt>
      <trkpt lat="47.79035" lon="-3.52617">
        <ele>19.45</ele>
        <time>2020-07-08T12:20:22Z</time>
      </trkpt>
      <trkpt lat="47.79035" lon="-3.52617">
        <ele>19.45</ele>
        <time>2020-07-08T12:20:23Z</time>
      </trkpt>
      <trkpt lat="47.79035" lon="-3.52617">
        <ele>19.45</ele>
        <time>2020-07-08T12:20:24Z</time>
      </trkpt>
      <trkpt lat="47.79035" lon="-3.52617">
        <ele>19.45</ele>
        <time>2020-07-08T12:20:25Z</time>
      </trkpt>
      <trkpt lat="47.79035" lon="-3.52617">
        <ele>19.45</ele>
        <time>2020-07-08T12:20:26Z</time>
      </trkpt>
      <trkpt lat="47.79035" lon="-3.52617">
        <ele>19.45</ele>
        <time>2020-07-08T12:20:27Z</time>
      </trkpt>
      <trkpt lat="47.79035" lon="-3.52617">
        <ele>19.45</ele>
        <time>2020-07-08T12:20:28Z</time>
      </trkpt>
      <trkpt lat="47.79035" lon="-3.52617">
        <ele>19.45</ele>
        <time>2020-07-08T12:20:29Z</time>
      </trkpt>
      <trkpt lat="47.79035" lon="-3.52617">
        <ele>19.45</ele>
        <time>2020-07-08T12:20:30Z</time>
      </trkpt>
      <trkpt lat="47.79035" lon="-3.52617">
        <ele>19.45</ele>
        <time>2020-07-08T12:20:31Z</time>
      </trkpt>
      <trkpt lat="47.79035" lon="-3.52617">
        <ele>19.45</ele>
        <time>2020-07-08T12:20:32Z</time>
      </trkpt>
      <trkpt lat="47.79035" lon="-3.52617">
        <ele>19.45</ele>
        <time>2020-07-08T12:20:33Z</time>
      </trkpt>
      <trkpt lat="47.79035" lon="-3.52617">
        <ele>19.45</ele>
        <time>2020-07-08T12:20:34Z</time>
      </trkpt>
      <trkpt lat="47.79035" lon="-3.52617">
        <ele>19.45</ele>
        <time>2020-07-08T12:20:35Z</time>
      </trkpt>
      <trkpt lat="47.79035" lon="-3.52617">
        <ele>19.45</ele>
        <time>2020-07-08T12:20:36Z</time>
      </trkpt>
      <trkpt lat="47.79035" lon="-3.52617">
        <ele>19.45</ele>
        <time>2020-07-08T12:20:37Z</time>
      </trkpt>
      <trkpt lat="47.79035" lon="-3.52617">
        <ele>19.45</ele>
        <time>2020-07-08T12:20:38Z</time>
      </trkpt>
      <trkpt lat="47.79035" lon="-3.52617">
        <ele>19.45</ele>
        <time>2020-07-08T12:20:39Z</time>
      </trkpt>
      <trkpt lat="47.79035" lon="-3.52617">
        <ele>19.45</ele>
        <time>2020-07-08T12:20:40Z</time>
      </trkpt>
      <trkpt lat="47.79035" lon="-3.52617">
        <ele>19.45</ele>
        <time>2020-07-08T12:20:41Z</time>
      </trkpt>
      <trkpt lat="47.79035" lon="-3.52617">
        <ele>19.45</ele>
        <time>2020-07-08T12:20:42Z</time>
      </trkpt>
      <trkpt lat="47.79035" lon="-3.52617">
        <ele>19.45</ele>
        <time>2020-07-08T12:20:43Z</time>
      </trkpt>
      <trkpt lat="47.79035" lon="-3.52617">
        <ele>19.45</ele>
        <time>2020-07-08T12:20:44Z</time>
      </trkpt>
      <trkpt lat="47.79035" lon="-3.52617">
        <ele>19.45</ele>
        <time>2020-07-08T12:20:45Z</time>
      </trkpt>
      <trkpt lat="47.79035" lon="-3.52617">
        <ele>19.45</ele>
        <time>2020-07-08T12:20:46Z</time>
      </trkpt>
      <trkpt lat="47.79035" lon="-3.52617">
        <ele>19.45</ele>
        <time>2020-07-08T12:20:47Z</time>
      </trkpt>
      <trkpt lat="47.79035" lon="-3.52617">
        <ele>19.45</ele>
        <time>2020-07-08T12:20:48Z</time>
      </trkpt>
      <trkpt lat="47.79035" lon="-3.52617">
        <ele>19.45</ele>
        <time>2020-07-08T12:20:49Z</time>
      </trkpt>
      <trkpt lat="47.79035" lon="-3.52617">
        <ele>19.45</ele>
        <time>2020-07-08T12:20:50Z</time>
      </trkpt>
      <trkpt lat="47.79035" lon="-3.52617">
        <ele>19.45</ele>
        <time>2020-07-08T12:20:51Z</time>
      </trkpt>
      <trkpt lat="47.79035" lon="-3.52617">
        <ele>19.45</ele>
        <time>2020-07-08T12:20:52Z</time>
      </trkpt>
      <trkpt lat="47.79035" lon="-3.52617">
        <ele>19.45</ele>
        <time>2020-07-08T12:20:53Z</time>
      </trkpt>
      <trkpt lat="47.79035" lon="-3.52617">
        <ele>19.45</ele>
        <time>2020-07-08T12:20:54Z</time>
      </trkpt>
      <trkpt lat="47.79035" lon="-3.52617">
        <ele>19.45</ele>
        <time>2020-07-08T12:20:55Z</time>
      </trkpt>
      <trkpt lat="47.79035" lon="-3.52617">
        <ele>19.45</ele>
        <time>2020-07-08T12:20:56Z</time>
      </trkpt>
      <trkpt lat="47.79035" lon="-3.52617">
        <ele>19.45</ele>
        <time>2020-07-08T12:20:57Z</time>
      </trkpt>
      <trkpt lat="47.79035" lon="-3.52617">
        <ele>19.45</ele>
        <time>2020-07-08T12:20:58Z</time>
      </trkpt>
      <trkpt lat="47.79035" lon="-3.52617">
        <ele>19.45</ele>
        <time>2020-07-08T12:20:59Z</time>
      </trkpt>
      <trkpt lat="47.79035" lon="-3.52617">
        <ele>19.45</ele>
        <time>2020-07-08T12:21:00Z</time>
      </trkpt>
      <trkpt lat="47.79035" lon="-3.52617">
        <ele>19.45</ele>
        <time>2020-07-08T12:21:01Z</time>
      </trkpt>
      <trkpt lat="47.79035" lon="-3.52617">
        <ele>19.45</ele>
        <time>2020-07-08T12:21:02Z</time>
      </trkpt>
      <trkpt lat="47.79035" lon="-3.52617">
        <ele>19.45</ele>
        <time>2020-07-08T12:21:03Z</time>
      </trkpt>
      <trkpt lat="47.79035" lon="-3.52617">
        <ele>19.45</ele>
        <time>2020-07-08T12:21:04Z</time>
      </trkpt>
      <trkpt lat="47.79035" lon="-3.52617">
        <ele>19.45</ele>
        <time>2020-07-08T12:21:05Z</time>
      </trkpt>
      <trkpt lat="47.79035" lon="-3.52617">
        <ele>19.45</ele>
        <time>2020-07-08T12:21:06Z</time>
      </trkpt>
      <trkpt lat="47.79035" lon="-3.52617">
        <ele>19.45</ele>
        <time>2020-07-08T12:21:07Z</time>
      </trkpt>
      <trkpt lat="47.79035" lon="-3.52617">
        <ele>19.45</ele>
        <time>2020-07-08T12:21:08Z</time>
      </trkpt>
      <trkpt lat="47.79035" lon="-3.52617">
        <ele>19.45</ele>
        <time>2020-07-08T12:21:09Z</time>
      </trkpt>
      <trkpt lat="47.79035" lon="-3.52617">
        <ele>19.45</ele>
        <time>2020-07-08T12:21:10Z</time>
      </trkpt>
      <trkpt lat="47.79035" lon="-3.52617">
        <ele>19.45</ele>
        <time>2020-07-08T12:21:11Z</time>
      </trkpt>
      <trkpt lat="47.79035" lon="-3.52617">
        <ele>19.45</ele>
        <time>2020-07-08T12:21:12Z</time>
      </trkpt>
      <trkpt lat="47.79035" lon="-3.52617">
        <ele>19.45</ele>
        <time>2020-07-08T12:21:13Z</time>
      </trkpt>
      <trkpt lat="47.79035" lon="-3.52617">
        <ele>19.45</ele>
        <time>2020-07-08T12:21:14Z</time>
      </trkpt>
      <trkpt lat="47.79035" lon="-3.52617">
        <ele>19.45</ele>
        <time>2020-07-08T12:21:15Z</time>
      </trkpt>
      <trkpt lat="47.79035" lon="-3.52617">
        <ele>19.45</ele>
        <time>2020-07-08T12:21:16Z</time>
      </trkpt>
      <trkpt lat="47.79035" lon="-3.52617">
        <ele>19.45</ele>
        <time>2020-07-08T12:21:17Z</time>
      </trkpt>
      <trkpt lat="47.79035" lon="-3.52617">
        <ele>19.45</ele>
        <time>2020-07-08T12:21:18Z</time>
      </trkpt>
      <trkpt lat="47.79035" lon="-3.52617">
        <ele>19.45</ele>
        <time>2020-07-08T12:21:19Z</time>
      </trkpt>
      <trkpt lat="47.79035" lon="-3.52617">
        <ele>19.45</ele>
        <time>2020-07-08T12:21:20Z</time>
      </trkpt>
      <trkpt lat="47.79035" lon="-3.52617">
        <ele>19.45</ele>
        <time>2020-07-08T12:21:21Z</time>
      </trkpt>
      <trkpt lat="47.79035" lon="-3.52617">
        <ele>19.45</ele>
        <time>2020-07-08T12:21:22Z</time>
      </trkpt>
      <trkpt lat="47.79035" lon="-3.52617">
        <ele>19.45</ele>
        <time>2020-07-08T12:21:23Z</time>
      </trkpt>
      <trkpt lat="47.79035" lon="-3.52617">
        <ele>19.45</ele>
        <time>2020-07-08T12:21:24Z</time>
      </trkpt>
      <trkpt lat="47.79035" lon="-3.52617">
        <ele>19.45</ele>
        <time>2020-07-08T12:21:25Z</time>
      </trkpt>
      <trkpt lat="47.79035" lon="-3.52617">
        <ele>19.45</ele>
        <time>2020-07-08T12:21:26Z</time>
      </trkpt>
      <trkpt lat="47.79035" lon="-3.52617">
        <ele>19.45</ele>
        <time>2020-07-08T12:21:27Z</time>
      </trkpt>
      <trkpt lat="47.79035" lon="-3.52617">
        <ele>19.45</ele>
        <time>2020-07-08T12:21:28Z</time>
      </trkpt>
      <trkpt lat="47.79035" lon="-3.52617">
        <ele>19.45</ele>
        <time>2020-07-08T12:21:29Z</time>
      </trkpt>
      <trkpt lat="47.79035" lon="-3.52617">
        <ele>19.45</ele>
        <time>2020-07-08T12:21:30Z</time>
      </trkpt>
      <trkpt lat="47.79035" lon="-3.52617">
        <ele>19.45</ele>
        <time>2020-07-08T12:21:31Z</time>
      </trkpt>
      <trkpt lat="47.79035" lon="-3.52617">
        <ele>19.45</ele>
        <time>2020-07-08T12:21:32Z</time>
      </trkpt>
      <trkpt lat="47.79035" lon="-3.52617">
        <ele>19.45</ele>
        <time>2020-07-08T12:21:33Z</time>
      </trkpt>
      <trkpt lat="47.79035" lon="-3.52617">
        <ele>19.45</ele>
        <time>2020-07-08T12:21:34Z</time>
      </trkpt>
      <trkpt lat="47.79035" lon="-3.52617">
        <ele>19.45</ele>
        <time>2020-07-08T12:21:35Z</time>
      </trkpt>
      <trkpt lat="47.79035" lon="-3.52617">
        <ele>19.45</ele>
        <time>2020-07-08T12:21:36Z</time>
      </trkpt>
      <trkpt lat="47.79035" lon="-3.52617">
        <ele>19.45</ele>
        <time>2020-07-08T12:21:37Z</time>
      </trkpt>
      <trkpt lat="47.79035" lon="-3.52617">
        <ele>19.45</ele>
        <time>2020-07-08T12:21:38Z</time>
      </trkpt>
      <trkpt lat="47.79035" lon="-3.52617">
        <ele>19.45</ele>
        <time>2020-07-08T12:21:39Z</time>
      </trkpt>
      <trkpt lat="47.79035" lon="-3.52617">
        <ele>19.45</ele>
        <time>2020-07-08T12:21:40Z</time>
      </trkpt>
      <trkpt lat="47.79035" lon="-3.52617">
        <ele>19.45</ele>
        <time>2020-07-08T12:21:41Z</time>
      </trkpt>
      <trkpt lat="47.79035" lon="-3.52617">
        <ele>19.45</ele>
        <time>2020-07-08T12:21:42Z</time>
      </trkpt>
      <trkpt lat="47.79035" lon="-3.52617">
        <ele>19.45</ele>
        <time>2020-07-08T12:21:43Z</time>
      </trkpt>
      <trkpt lat="47.79035" lon="-3.52617">
        <ele>19.45</ele>
        <time>2020-07-08T12:21:44Z</time>
      </trkpt>
      <trkpt lat="47.79035" lon="-3.52617">
        <ele>19.45</ele>
        <time>2020-07-08T12:21:45Z</time>
      </trkpt>
      <trkpt lat="47.79035" lon="-3.52617">
        <ele>19.45</ele>
        <time>2020-07-08T12:21:46Z</time>
      </trkpt>
      <trkpt lat="47.79035" lon="-3.52617">
        <ele>19.45</ele>
        <time>2020-07-08T12:21:47Z</time>
      </trkpt>
      <trkpt lat="47.79035" lon="-3.52617">
        <ele>19.45</ele>
        <time>2020-07-08T12:21:48Z</time>
      </trkpt>
      <trkpt lat="47.79035" lon="-3.52617">
        <ele>19.45</ele>
        <time>2020-07-08T12:21:49Z</time>
      </trkpt>
      <trkpt lat="47.79035" lon="-3.52617">
        <ele>19.45</ele>
        <time>2020-07-08T12:21:50Z</time>
      </trkpt>
      <trkpt lat="47.79035" lon="-3.52617">
        <ele>19.45</ele>
        <time>2020-07-08T12:21:51Z</time>
      </trkpt>
      <trkpt lat="47.79035" lon="-3.52617">
        <ele>19.45</ele>
        <time>2020-07-08T12:21:52Z</time>
      </trkpt>
      <trkpt lat="47.79035" lon="-3.52617">
        <ele>19.45</ele>
        <time>2020-07-08T12:21:53Z</time>
      </trkpt>
      <trkpt lat="47.79035" lon="-3.52617">
        <ele>19.45</ele>
        <time>2020-07-08T12:21:54Z</time>
      </trkpt>
      <trkpt lat="47.79035" lon="-3.52617">
        <ele>19.45</ele>
        <time>2020-07-08T12:21:55Z</time>
      </trkpt>
      <trkpt lat="47.79035" lon="-3.52617">
        <ele>19.45</ele>
        <time>2020-07-08T12:21:56Z</time>
      </trkpt>
      <trkpt lat="47.79035" lon="-3.52617">
        <ele>19.45</ele>
        <time>2020-07-08T12:21:57Z</time>
      </trkpt>
      <trkpt lat="47.79035" lon="-3.52617">
        <ele>19.45</ele>
        <time>2020-07-08T12:21:58Z</time>
      </trkpt>
      <trkpt lat="47.79035" lon="-3.52617">
        <ele>19.45</ele>
        <time>2020-07-08T12:21:59Z</time>
      </trkpt>
      <trkpt lat="47.79035" lon="-3.52617">
        <ele>19.45</ele>
        <time>2020-07-08T12:22:00Z</time>
      </trkpt>
      <trkpt lat="47.79035" lon="-3.52617">
        <ele>19.45</ele>
        <time>2020-07-08T12:22:01Z</time>
      </trkpt>
      <trkpt lat="47.79035" lon="-3.52617">
        <ele>19.45</ele>
        <time>2020-07-08T12:22:02Z</time>
      </trkpt>
      <trkpt lat="47.79035" lon="-3.52617">
        <ele>19.45</ele>
        <time>2020-07-08T12:22:03Z</time>
      </trkpt>
      <trkpt lat="47.79035" lon="-3.52617">
        <ele>19.45</ele>
        <time>2020-07-08T12:22:04Z</time>
      </trkpt>
      <trkpt lat="47.79035" lon="-3.52617">
        <ele>19.45</ele>
        <time>2020-07-08T12:22:05Z</time>
      </trkpt>
      <trkpt lat="47.79035" lon="-3.52617">
        <ele>19.45</ele>
        <time>2020-07-08T12:22:06Z</time>
      </trkpt>
      <trkpt lat="47.79035" lon="-3.52617">
        <ele>19.45</ele>
        <time>2020-07-08T12:22:07Z</time>
      </trkpt>
      <trkpt lat="47.79035" lon="-3.52617">
        <ele>19.45</ele>
        <time>2020-07-08T12:22:08Z</time>
      </trkpt>
      <trkpt lat="47.79035" lon="-3.52617">
        <ele>19.45</ele>
        <time>2020-07-08T12:22:09Z</time>
      </trkpt>
      <trkpt lat="47.79035" lon="-3.52617">
        <ele>19.45</ele>
        <time>2020-07-08T12:22:10Z</time>
      </trkpt>
      <trkpt lat="47.79035" lon="-3.52617">
        <ele>19.45</ele>
        <time>2020-07-08T12:22:11Z</time>
      </trkpt>
      <trkpt lat="47.79035" lon="-3.52617">
        <ele>19.45</ele>
        <time>2020-07-08T12:22:12Z</time>
      </trkpt>
      <trkpt lat="47.79035" lon="-3.52617">
        <ele>19.45</ele>
        <time>2020-07-08T12:22:13Z</time>
      </trkpt>
      <trkpt lat="47.79035" lon="-3.52617">
        <ele>19.45</ele>
        <time>2020-07-08T12:22:14Z</time>
      </trkpt>
      <trkpt lat="47.79035" lon="-3.52617">
        <ele>19.45</ele>
        <time>2020-07-08T12:22:15Z</time>
      </trkpt>
      <trkpt lat="47.79041" lon="-3.52627">
        <ele>18.05</ele>
        <time>2020-07-08T12:22:16Z</time>
      </trkpt>
      <trkpt lat="47.79042" lon="-3.52628">
        <ele>17.46</ele>
        <time>2020-07-08T12:22:17Z</time>
      </trkpt>
      <trkpt lat="47.79042" lon="-3.52628">
        <ele>17.3</ele>
        <time>2020-07-08T12:22:18Z</time>
      </trkpt>
      <trkpt lat="47.79042" lon="-3.52628">
        <ele>17.28</ele>
        <time>2020-07-08T12:22:19Z</time>
      </trkpt>
      <trkpt lat="47.79042" lon="-3.52628">
        <ele>17.27</ele>
        <time>2020-07-08T12:22:20Z</time>
      </trkpt>
      <trkpt lat="47.79042" lon="-3.52628">
        <ele>17.27</ele>
        <time>2020-07-08T12:22:21Z</time>
      </trkpt>
      <trkpt lat="47.79042" lon="-3.52628">
        <ele>17.26</ele>
        <time>2020-07-08T12:22:22Z</time>
      </trkpt>
      <trkpt lat="47.79042" lon="-3.52628">
        <ele>17.26</ele>
        <time>2020-07-08T12:22:23Z</time>
      </trkpt>
      <trkpt lat="47.79042" lon="-3.52628">
        <ele>17.26</ele>
        <time>2020-07-08T12:22:24Z</time>
      </trkpt>
      <trkpt lat="47.79042" lon="-3.52628">
        <ele>17.26</ele>
        <time>2020-07-08T12:22:25Z</time>
      </trkpt>
      <trkpt lat="47.79042" lon="-3.52628">
        <ele>17.26</ele>
        <time>2020-07-08T12:22:26Z</time>
      </trkpt>
      <trkpt lat="47.79042" lon="-3.52628">
        <ele>17.26</ele>
        <time>2020-07-08T12:22:27Z</time>
      </trkpt>
      <trkpt lat="47.79042" lon="-3.52628">
        <ele>17.26</ele>
        <time>2020-07-08T12:22:28Z</time>
      </trkpt>
      <trkpt lat="47.79042" lon="-3.52628">
        <ele>17.26</ele>
        <time>2020-07-08T12:22:29Z</time>
      </trkpt>
      <trkpt lat="47.79042" lon="-3.52628">
        <ele>17.26</ele>
        <time>2020-07-08T12:22:30Z</time>
      </trkpt>
      <trkpt lat="47.79042" lon="-3.52628">
        <ele>17.26</ele>
        <time>2020-07-08T12:22:31Z</time>
      </trkpt>
      <trkpt lat="47.79042" lon="-3.52628">
        <ele>17.26</ele>
        <time>2020-07-08T12:22:32Z</time>
      </trkpt>
      <trkpt lat="47.79042" lon="-3.52628">
        <ele>17.26</ele>
        <time>2020-07-08T12:22:33Z</time>
      </trkpt>
      <trkpt lat="47.79042" lon="-3.52628">
        <ele>17.26</ele>
        <time>2020-07-08T12:22:34Z</time>
      </trkpt>
      <trkpt lat="47.79042" lon="-3.52628">
        <ele>17.26</ele>
        <time>2020-07-08T12:22:35Z</time>
      </trkpt>
      <trkpt lat="47.79042" lon="-3.52628">
        <ele>17.26</ele>
        <time>2020-07-08T12:22:36Z</time>
      </trkpt>
      <trkpt lat="47.79042" lon="-3.52628">
        <ele>17.26</ele>
        <time>2020-07-08T12:22:37Z</time>
      </trkpt>
      <trkpt lat="47.79042" lon="-3.52628">
        <ele>17.26</ele>
        <time>2020-07-08T12:22:38Z</time>
      </trkpt>
      <trkpt lat="47.79042" lon="-3.52628">
        <ele>17.26</ele>
        <time>2020-07-08T12:22:39Z</time>
      </trkpt>
      <trkpt lat="47.79042" lon="-3.52628">
        <ele>17.26</ele>
        <time>2020-07-08T12:22:40Z</time>
      </trkpt>
      <trkpt lat="47.79042" lon="-3.52628">
        <ele>17.26</ele>
        <time>2020-07-08T12:22:41Z</time>
      </trkpt>
      <trkpt lat="47.79042" lon="-3.52628">
        <ele>17.26</ele>
        <time>2020-07-08T12:22:42Z</time>
      </trkpt>
      <trkpt lat="47.79042" lon="-3.52628">
        <ele>17.26</ele>
        <time>2020-07-08T12:22:43Z</time>
      </trkpt>
      <trkpt lat="47.79042" lon="-3.52628">
        <ele>17.26</ele>
        <time>2020-07-08T12:22:44Z</time>
      </trkpt>
      <trkpt lat="47.79042" lon="-3.52628">
        <ele>17.26</ele>
        <time>2020-07-08T12:22:45Z</time>
      </trkpt>
      <trkpt lat="47.79042" lon="-3.52628">
        <ele>17.26</ele>
        <time>2020-07-08T12:22:46Z</time>
      </trkpt>
      <trkpt lat="47.79042" lon="-3.52628">
        <ele>17.26</ele>
        <time>2020-07-08T12:22:47Z</time>
      </trkpt>
      <trkpt lat="47.79042" lon="-3.52628">
        <ele>17.26</ele>
        <time>2020-07-08T12:22:48Z</time>
      </trkpt>
      <trkpt lat="47.79042" lon="-3.52628">
        <ele>17.26</ele>
        <time>2020-07-08T12:22:49Z</time>
      </trkpt>
      <trkpt lat="47.79042" lon="-3.52628">
        <ele>17.26</ele>
        <time>2020-07-08T12:22:50Z</time>
      </trkpt>
      <trkpt lat="47.79042" lon="-3.52628">
        <ele>17.26</ele>
        <time>2020-07-08T12:22:51Z</time>
      </trkpt>
      <trkpt lat="47.79042" lon="-3.52628">
        <ele>17.26</ele>
        <time>2020-07-08T12:22:52Z</time>
      </trkpt>
      <trkpt lat="47.79042" lon="-3.52628">
        <ele>17.26</ele>
        <time>2020-07-08T12:22:53Z</time>
      </trkpt>
      <trkpt lat="47.79042" lon="-3.52628">
        <ele>17.26</ele>
        <time>2020-07-08T12:22:54Z</time>
      </trkpt>
      <trkpt lat="47.79042" lon="-3.52628">
        <ele>17.26</ele>
        <time>2020-07-08T12:22:55Z</time>
      </trkpt>
      <trkpt lat="47.79042" lon="-3.52628">
        <ele>17.26</ele>
        <time>2020-07-08T12:22:56Z</time>
      </trkpt>
      <trkpt lat="47.79042" lon="-3.52628">
        <ele>17.26</ele>
        <time>2020-07-08T12:22:57Z</time>
      </trkpt>
      <trkpt lat="47.79042" lon="-3.52628">
        <ele>17.26</ele>
        <time>2020-07-08T12:22:58Z</time>
      </trkpt>
      <trkpt lat="47.79042" lon="-3.52628">
        <ele>17.26</ele>
        <time>2020-07-08T12:22:59Z</time>
      </trkpt>
      <trkpt lat="47.79042" lon="-3.52628">
        <ele>17.26</ele>
        <time>2020-07-08T12:23:00Z</time>
      </trkpt>
      <trkpt lat="47.79042" lon="-3.52628">
        <ele>17.26</ele>
        <time>2020-07-08T12:23:01Z</time>
      </trkpt>
      <trkpt lat="47.79042" lon="-3.52628">
        <ele>17.26</ele>
        <time>2020-07-08T12:23:02Z</time>
      </trkpt>
      <trkpt lat="47.79042" lon="-3.52628">
        <ele>17.26</ele>
        <time>2020-07-08T12:23:03Z</time>
      </trkpt>
      <trkpt lat="47.79042" lon="-3.52628">
        <ele>17.26</ele>
        <time>2020-07-08T12:23:04Z</time>
      </trkpt>
      <trkpt lat="47.79042" lon="-3.52628">
        <ele>17.26</ele>
        <time>2020-07-08T12:23:05Z</time>
      </trkpt>
      <trkpt lat="47.79042" lon="-3.52628">
        <ele>17.26</ele>
        <time>2020-07-08T12:23:06Z</time>
      </trkpt>
      <trkpt lat="47.79042" lon="-3.52628">
        <ele>17.26</ele>
        <time>2020-07-08T12:23:07Z</time>
      </trkpt>
      <trkpt lat="47.79042" lon="-3.52628">
        <ele>17.26</ele>
        <time>2020-07-08T12:23:08Z</time>
      </trkpt>
      <trkpt lat="47.79042" lon="-3.52628">
        <ele>17.26</ele>
        <time>2020-07-08T12:23:09Z</time>
      </trkpt>
      <trkpt lat="47.79042" lon="-3.52628">
        <ele>17.26</ele>
        <time>2020-07-08T12:23:10Z</time>
      </trkpt>
      <trkpt lat="47.79042" lon="-3.52628">
        <ele>17.26</ele>
        <time>2020-07-08T12:23:11Z</time>
      </trkpt>
      <trkpt lat="47.79042" lon="-3.52628">
        <ele>17.26</ele>
        <time>2020-07-08T12:23:12Z</time>
      </trkpt>
      <trkpt lat="47.79042" lon="-3.52628">
        <ele>17.26</ele>
        <time>2020-07-08T12:23:13Z</time>
      </trkpt>
      <trkpt lat="47.79042" lon="-3.52628">
        <ele>17.26</ele>
        <time>2020-07-08T12:23:14Z</time>
      </trkpt>
      <trkpt lat="47.79042" lon="-3.52628">
        <ele>17.26</ele>
        <time>2020-07-08T12:23:15Z</time>
      </trkpt>
      <trkpt lat="47.79042" lon="-3.52628">
        <ele>17.26</ele>
        <time>2020-07-08T12:23:16Z</time>
      </trkpt>
      <trkpt lat="47.79042" lon="-3.52628">
        <ele>17.26</ele>
        <time>2020-07-08T12:23:17Z</time>
      </trkpt>
      <trkpt lat="47.79042" lon="-3.52628">
        <ele>17.26</ele>
        <time>2020-07-08T12:23:18Z</time>
      </trkpt>
      <trkpt lat="47.79042" lon="-3.52628">
        <ele>17.26</ele>
        <time>2020-07-08T12:23:19Z</time>
      </trkpt>
      <trkpt lat="47.79042" lon="-3.52628">
        <ele>17.26</ele>
        <time>2020-07-08T12:23:20Z</time>
      </trkpt>
      <trkpt lat="47.79042" lon="-3.52628">
        <ele>17.26</ele>
        <time>2020-07-08T12:23:21Z</time>
      </trkpt>
      <trkpt lat="47.79042" lon="-3.52628">
        <ele>17.26</ele>
        <time>2020-07-08T12:23:22Z</time>
      </trkpt>
      <trkpt lat="47.79042" lon="-3.52628">
        <ele>17.26</ele>
        <time>2020-07-08T12:23:23Z</time>
      </trkpt>
      <trkpt lat="47.79042" lon="-3.52628">
        <ele>17.26</ele>
        <time>2020-07-08T12:23:24Z</time>
      </trkpt>
      <trkpt lat="47.79042" lon="-3.52628">
        <ele>17.26</ele>
        <time>2020-07-08T12:23:25Z</time>
      </trkpt>
      <trkpt lat="47.79042" lon="-3.52628">
        <ele>17.26</ele>
        <time>2020-07-08T12:23:26Z</time>
      </trkpt>
      <trkpt lat="47.79042" lon="-3.52628">
        <ele>17.26</ele>
        <time>2020-07-08T12:23:27Z</time>
      </trkpt>
      <trkpt lat="47.79042" lon="-3.52628">
        <ele>17.26</ele>
        <time>2020-07-08T12:23:28Z</time>
      </trkpt>
      <trkpt lat="47.79042" lon="-3.52628">
        <ele>17.26</ele>
        <time>2020-07-08T12:23:29Z</time>
      </trkpt>
      <trkpt lat="47.79042" lon="-3.52628">
        <ele>17.26</ele>
        <time>2020-07-08T12:23:30Z</time>
      </trkpt>
      <trkpt lat="47.79042" lon="-3.52628">
        <ele>17.26</ele>
        <time>2020-07-08T12:23:31Z</time>
      </trkpt>
      <trkpt lat="47.79042" lon="-3.52628">
        <ele>17.26</ele>
        <time>2020-07-08T12:23:32Z</time>
      </trkpt>
      <trkpt lat="47.79042" lon="-3.52628">
        <ele>17.26</ele>
        <time>2020-07-08T12:23:33Z</time>
      </trkpt>
      <trkpt lat="47.79042" lon="-3.52628">
        <ele>17.26</ele>
        <time>2020-07-08T12:23:34Z</time>
      </trkpt>
      <trkpt lat="47.79042" lon="-3.52628">
        <ele>17.26</ele>
        <time>2020-07-08T12:23:35Z</time>
      </trkpt>
      <trkpt lat="47.79042" lon="-3.52628">
        <ele>17.26</ele>
        <time>2020-07-08T12:23:36Z</time>
      </trkpt>
      <trkpt lat="47.79042" lon="-3.52628">
        <ele>17.26</ele>
        <time>2020-07-08T12:23:37Z</time>
      </trkpt>
      <trkpt lat="47.79042" lon="-3.52628">
        <ele>17.26</ele>
        <time>2020-07-08T12:23:38Z</time>
      </trkpt>
      <trkpt lat="47.79042" lon="-3.52628">
        <ele>17.26</ele>
        <time>2020-07-08T12:23:39Z</time>
      </trkpt>
      <trkpt lat="47.79042" lon="-3.52628">
        <ele>17.26</ele>
        <time>2020-07-08T12:23:40Z</time>
      </trkpt>
      <trkpt lat="47.79042" lon="-3.52628">
        <ele>17.26</ele>
        <time>2020-07-08T12:23:41Z</time>
      </trkpt>
      <trkpt lat="47.79042" lon="-3.52628">
        <ele>17.26</ele>
        <time>2020-07-08T12:23:42Z</time>
      </trkpt>
      <trkpt lat="47.79042" lon="-3.52628">
        <ele>17.26</ele>
        <time>2020-07-08T12:23:43Z</time>
      </trkpt>
      <trkpt lat="47.79042" lon="-3.52628">
        <ele>17.26</ele>
        <time>2020-07-08T12:23:44Z</time>
      </trkpt>
      <trkpt lat="47.79042" lon="-3.52628">
        <ele>17.26</ele>
        <time>2020-07-08T12:23:45Z</time>
      </trkpt>
      <trkpt lat="47.79042" lon="-3.52628">
        <ele>17.26</ele>
        <time>2020-07-08T12:23:46Z</time>
      </trkpt>
      <trkpt lat="47.79042" lon="-3.52628">
        <ele>17.26</ele>
        <time>2020-07-08T12:23:47Z</time>
      </trkpt>
      <trkpt lat="47.79042" lon="-3.52628">
        <ele>17.26</ele>
        <time>2020-07-08T12:23:48Z</time>
      </trkpt>
      <trkpt lat="47.79042" lon="-3.52628">
        <ele>17.26</ele>
        <time>2020-07-08T12:23:49Z</time>
      </trkpt>
      <trkpt lat="47.79042" lon="-3.52628">
        <ele>17.26</ele>
        <time>2020-07-08T12:23:50Z</time>
      </trkpt>
      <trkpt lat="47.79042" lon="-3.52628">
        <ele>17.26</ele>
        <time>2020-07-08T12:23:51Z</time>
      </trkpt>
      <trkpt lat="47.79042" lon="-3.52628">
        <ele>17.26</ele>
        <time>2020-07-08T12:23:52Z</time>
      </trkpt>
      <trkpt lat="47.79042" lon="-3.52628">
        <ele>17.26</ele>
        <time>2020-07-08T12:23:53Z</time>
      </trkpt>
      <trkpt lat="47.79042" lon="-3.52628">
        <ele>17.26</ele>
        <time>2020-07-08T12:23:54Z</time>
      </trkpt>
      <trkpt lat="47.79042" lon="-3.52628">
        <ele>17.26</ele>
        <time>2020-07-08T12:23:55Z</time>
      </trkpt>
      <trkpt lat="47.79042" lon="-3.52628">
        <ele>17.26</ele>
        <time>2020-07-08T12:23:56Z</time>
      </trkpt>
      <trkpt lat="47.79042" lon="-3.52628">
        <ele>17.26</ele>
        <time>2020-07-08T12:23:57Z</time>
      </trkpt>
      <trkpt lat="47.79042" lon="-3.52628">
        <ele>17.26</ele>
        <time>2020-07-08T12:23:58Z</time>
      </trkpt>
      <trkpt lat="47.79042" lon="-3.52628">
        <ele>17.26</ele>
        <time>2020-07-08T12:23:59Z</time>
      </trkpt>
      <trkpt lat="47.79042" lon="-3.52628">
        <ele>17.26</ele>
        <time>2020-07-08T12:24:00Z</time>
      </trkpt>
      <trkpt lat="47.79042" lon="-3.52628">
        <ele>17.26</ele>
        <time>2020-07-08T12:24:01Z</time>
      </trkpt>
      <trkpt lat="47.79042" lon="-3.52628">
        <ele>17.26</ele>
        <time>2020-07-08T12:24:02Z</time>
      </trkpt>
      <trkpt lat="47.79042" lon="-3.52628">
        <ele>17.26</ele>
        <time>2020-07-08T12:24:03Z</time>
      </trkpt>
      <trkpt lat="47.79042" lon="-3.52628">
        <ele>17.26</ele>
        <time>2020-07-08T12:24:04Z</time>
      </trkpt>
      <trkpt lat="47.79042" lon="-3.52628">
        <ele>17.26</ele>
        <time>2020-07-08T12:24:05Z</time>
      </trkpt>
      <trkpt lat="47.79042" lon="-3.52628">
        <ele>17.26</ele>
        <time>2020-07-08T12:24:06Z</time>
      </trkpt>
      <trkpt lat="47.79042" lon="-3.52628">
        <ele>17.26</ele>
        <time>2020-07-08T12:24:07Z</time>
      </trkpt>
      <trkpt lat="47.79042" lon="-3.52628">
        <ele>17.26</ele>
        <time>2020-07-08T12:24:08Z</time>
      </trkpt>
      <trkpt lat="47.79042" lon="-3.52628">
        <ele>17.26</ele>
        <time>2020-07-08T12:24:09Z</time>
      </trkpt>
      <trkpt lat="47.79042" lon="-3.52628">
        <ele>17.26</ele>
        <time>2020-07-08T12:24:10Z</time>
      </trkpt>
      <trkpt lat="47.79042" lon="-3.52628">
        <ele>17.26</ele>
        <time>2020-07-08T12:24:11Z</time>
      </trkpt>
      <trkpt lat="47.79042" lon="-3.52628">
        <ele>17.26</ele>
        <time>2020-07-08T12:24:12Z</time>
      </trkpt>
      <trkpt lat="47.79042" lon="-3.52628">
        <ele>17.26</ele>
        <time>2020-07-08T12:24:13Z</time>
      </trkpt>
      <trkpt lat="47.79042" lon="-3.52628">
        <ele>17.26</ele>
        <time>2020-07-08T12:24:14Z</time>
      </trkpt>
      <trkpt lat="47.79042" lon="-3.52628">
        <ele>17.26</ele>
        <time>2020-07-08T12:24:15Z</time>
      </trkpt>
      <trkpt lat="47.79042" lon="-3.52628">
        <ele>17.26</ele>
        <time>2020-07-08T12:24:16Z</time>
      </trkpt>
      <trkpt lat="47.79042" lon="-3.52628">
        <ele>17.26</ele>
        <time>2020-07-08T12:24:17Z</time>
      </trkpt>
      <trkpt lat="47.79042" lon="-3.52628">
        <ele>17.26</ele>
        <time>2020-07-08T12:24:18Z</time>
      </trkpt>
      <trkpt lat="47.79042" lon="-3.52628">
        <ele>17.26</ele>
        <time>2020-07-08T12:24:19Z</time>
      </trkpt>
      <trkpt lat="47.79042" lon="-3.52628">
        <ele>17.26</ele>
        <time>2020-07-08T12:24:20Z</time>
      </trkpt>
      <trkpt lat="47.79042" lon="-3.52628">
        <ele>17.26</ele>
        <time>2020-07-08T12:24:21Z</time>
      </trkpt>
      <trkpt lat="47.79042" lon="-3.52628">
        <ele>17.26</ele>
        <time>2020-07-08T12:24:22Z</time>
      </trkpt>
      <trkpt lat="47.79042" lon="-3.52628">
        <ele>17.26</ele>
        <time>2020-07-08T12:24:23Z</time>
      </trkpt>
      <trkpt lat="47.79042" lon="-3.52628">
        <ele>17.26</ele>
        <time>2020-07-08T12:24:24Z</time>
      </trkpt>
      <trkpt lat="47.79042" lon="-3.52628">
        <ele>17.26</ele>
        <time>2020-07-08T12:24:25Z</time>
      </trkpt>
      <trkpt lat="47.79042" lon="-3.52628">
        <ele>17.26</ele>
        <time>2020-07-08T12:24:26Z</time>
      </trkpt>
      <trkpt lat="47.79042" lon="-3.52628">
        <ele>17.26</ele>
        <time>2020-07-08T12:24:27Z</time>
      </trkpt>
      <trkpt lat="47.79042" lon="-3.52628">
        <ele>17.26</ele>
        <time>2020-07-08T12:24:28Z</time>
      </trkpt>
      <trkpt lat="47.79042" lon="-3.52628">
        <ele>17.26</ele>
        <time>2020-07-08T12:24:29Z</time>
      </trkpt>
      <trkpt lat="47.79042" lon="-3.52628">
        <ele>17.26</ele>
        <time>2020-07-08T12:24:30Z</time>
      </trkpt>
      <trkpt lat="47.79042" lon="-3.52628">
        <ele>17.26</ele>
        <time>2020-07-08T12:24:31Z</time>
      </trkpt>
      <trkpt lat="47.79042" lon="-3.52628">
        <ele>17.26</ele>
        <time>2020-07-08T12:24:32Z</time>
      </trkpt>
      <trkpt lat="47.79042" lon="-3.52628">
        <ele>17.26</ele>
        <time>2020-07-08T12:24:33Z</time>
      </trkpt>
      <trkpt lat="47.79042" lon="-3.52628">
        <ele>17.26</ele>
        <time>2020-07-08T12:24:34Z</time>
      </trkpt>
      <trkpt lat="47.79042" lon="-3.52628">
        <ele>17.26</ele>
        <time>2020-07-08T12:24:35Z</time>
      </trkpt>
      <trkpt lat="47.79042" lon="-3.52628">
        <ele>17.26</ele>
        <time>2020-07-08T12:24:36Z</time>
      </trkpt>
      <trkpt lat="47.79042" lon="-3.52628">
        <ele>17.26</ele>
        <time>2020-07-08T12:24:37Z</time>
      </trkpt>
      <trkpt lat="47.79042" lon="-3.52628">
        <ele>17.26</ele>
        <time>2020-07-08T12:24:38Z</time>
      </trkpt>
      <trkpt lat="47.79042" lon="-3.52628">
        <ele>17.26</ele>
        <time>2020-07-08T12:24:39Z</time>
      </trkpt>
      <trkpt lat="47.79042" lon="-3.52628">
        <ele>17.26</ele>
        <time>2020-07-08T12:24:40Z</time>
      </trkpt>
      <trkpt lat="47.79042" lon="-3.52628">
        <ele>17.26</ele>
        <time>2020-07-08T12:24:41Z</time>
      </trkpt>
      <trkpt lat="47.79042" lon="-3.52628">
        <ele>17.26</ele>
        <time>2020-07-08T12:24:42Z</time>
      </trkpt>
      <trkpt lat="47.79042" lon="-3.52628">
        <ele>17.26</ele>
        <time>2020-07-08T12:24:43Z</time>
      </trkpt>
      <trkpt lat="47.79042" lon="-3.52628">
        <ele>17.26</ele>
        <time>2020-07-08T12:24:44Z</time>
      </trkpt>
      <trkpt lat="47.79042" lon="-3.52628">
        <ele>17.26</ele>
        <time>2020-07-08T12:24:45Z</time>
      </trkpt>
      <trkpt lat="47.79042" lon="-3.52628">
        <ele>17.26</ele>
        <time>2020-07-08T12:24:46Z</time>
      </trkpt>
      <trkpt lat="47.79042" lon="-3.52628">
        <ele>17.26</ele>
        <time>2020-07-08T12:24:47Z</time>
      </trkpt>
      <trkpt lat="47.79042" lon="-3.52628">
        <ele>17.26</ele>
        <time>2020-07-08T12:24:48Z</time>
      </trkpt>
      <trkpt lat="47.79042" lon="-3.52628">
        <ele>17.26</ele>
        <time>2020-07-08T12:24:49Z</time>
      </trkpt>
      <trkpt lat="47.79042" lon="-3.52628">
        <ele>17.26</ele>
        <time>2020-07-08T12:24:50Z</time>
      </trkpt>
      <trkpt lat="47.79042" lon="-3.52628">
        <ele>17.26</ele>
        <time>2020-07-08T12:24:51Z</time>
      </trkpt>
      <trkpt lat="47.79042" lon="-3.52628">
        <ele>17.26</ele>
        <time>2020-07-08T12:24:52Z</time>
      </trkpt>
      <trkpt lat="47.79042" lon="-3.52628">
        <ele>17.26</ele>
        <time>2020-07-08T12:24:53Z</time>
      </trkpt>
      <trkpt lat="47.79042" lon="-3.52628">
        <ele>17.26</ele>
        <time>2020-07-08T12:24:54Z</time>
      </trkpt>
      <trkpt lat="47.79042" lon="-3.52628">
        <ele>17.26</ele>
        <time>2020-07-08T12:24:55Z</time>
      </trkpt>
      <trkpt lat="47.79042" lon="-3.52628">
        <ele>17.26</ele>
        <time>2020-07-08T12:24:56Z</time>
      </trkpt>
      <trkpt lat="47.79042" lon="-3.52628">
        <ele>17.26</ele>
        <time>2020-07-08T12:24:57Z</time>
      </trkpt>
      <trkpt lat="47.79042" lon="-3.52628">
        <ele>17.26</ele>
        <time>2020-07-08T12:24:58Z</time>
      </trkpt>
      <trkpt lat="47.79042" lon="-3.52628">
        <ele>17.26</ele>
        <time>2020-07-08T12:24:59Z</time>
      </trkpt>
      <trkpt lat="47.79042" lon="-3.52628">
        <ele>17.26</ele>
        <time>2020-07-08T12:25:00Z</time>
      </trkpt>
      <trkpt lat="47.79042" lon="-3.52628">
        <ele>17.26</ele>
        <time>2020-07-08T12:25:01Z</time>
      </trkpt>
      <trkpt lat="47.79042" lon="-3.52628">
        <ele>17.26</ele>
        <time>2020-07-08T12:25:02Z</time>
      </trkpt>
      <trkpt lat="47.79042" lon="-3.52628">
        <ele>17.26</ele>
        <time>2020-07-08T12:25:03Z</time>
      </trkpt>
      <trkpt lat="47.79042" lon="-3.52628">
        <ele>17.26</ele>
        <time>2020-07-08T12:25:04Z</time>
      </trkpt>
      <trkpt lat="47.79042" lon="-3.52628">
        <ele>17.26</ele>
        <time>2020-07-08T12:25:05Z</time>
      </trkpt>
      <trkpt lat="47.79042" lon="-3.52628">
        <ele>17.26</ele>
        <time>2020-07-08T12:25:06Z</time>
      </trkpt>
      <trkpt lat="47.79042" lon="-3.52628">
        <ele>17.26</ele>
        <time>2020-07-08T12:25:07Z</time>
      </trkpt>
      <trkpt lat="47.79042" lon="-3.52628">
        <ele>17.26</ele>
        <time>2020-07-08T12:25:08Z</time>
      </trkpt>
      <trkpt lat="47.79042" lon="-3.52628">
        <ele>17.26</ele>
        <time>2020-07-08T12:25:09Z</time>
      </trkpt>
      <trkpt lat="47.79042" lon="-3.52628">
        <ele>17.26</ele>
        <time>2020-07-08T12:25:10Z</time>
      </trkpt>
      <trkpt lat="47.79042" lon="-3.52628">
        <ele>17.26</ele>
        <time>2020-07-08T12:25:11Z</time>
      </trkpt>
      <trkpt lat="47.79042" lon="-3.52628">
        <ele>17.26</ele>
        <time>2020-07-08T12:25:12Z</time>
      </trkpt>
      <trkpt lat="47.79042" lon="-3.52628">
        <ele>17.26</ele>
        <time>2020-07-08T12:25:13Z</time>
      </trkpt>
      <trkpt lat="47.79042" lon="-3.52628">
        <ele>17.26</ele>
        <time>2020-07-08T12:25:14Z</time>
      </trkpt>
      <trkpt lat="47.79042" lon="-3.52628">
        <ele>17.26</ele>
        <time>2020-07-08T12:25:15Z</time>
      </trkpt>
      <trkpt lat="47.79042" lon="-3.52628">
        <ele>17.26</ele>
        <time>2020-07-08T12:25:16Z</time>
      </trkpt>
      <trkpt lat="47.79042" lon="-3.52628">
        <ele>17.26</ele>
        <time>2020-07-08T12:25:17Z</time>
      </trkpt>
      <trkpt lat="47.79042" lon="-3.52628">
        <ele>17.26</ele>
        <time>2020-07-08T12:25:18Z</time>
      </trkpt>
      <trkpt lat="47.79042" lon="-3.52628">
        <ele>17.26</ele>
        <time>2020-07-08T12:25:19Z</time>
      </trkpt>
      <trkpt lat="47.79042" lon="-3.52628">
        <ele>17.26</ele>
        <time>2020-07-08T12:25:20Z</time>
      </trkpt>
      <trkpt lat="47.79042" lon="-3.52628">
        <ele>17.26</ele>
        <time>2020-07-08T12:25:21Z</time>
      </trkpt>
      <trkpt lat="47.79042" lon="-3.52628">
        <ele>17.26</ele>
        <time>2020-07-08T12:25:22Z</time>
      </trkpt>
      <trkpt lat="47.79033" lon="-3.52633">
        <ele>17.91</ele>
        <time>2020-07-08T12:25:23Z</time>
      </trkpt>
      <trkpt lat="47.79033" lon="-3.52633">
        <ele>18.19</ele>
        <time>2020-07-08T12:25:24Z</time>
      </trkpt>
      <trkpt lat="47.79032" lon="-3.52633">
        <ele>18.29</ele>
        <time>2020-07-08T12:25:25Z</time>
      </trkpt>
      <trkpt lat="47.79032" lon="-3.52633">
        <ele>18.34</ele>
        <time>2020-07-08T12:25:26Z</time>
      </trkpt>
      <trkpt lat="47.79032" lon="-3.52633">
        <ele>18.36</ele>
        <time>2020-07-08T12:25:27Z</time>
      </trkpt>
      <trkpt lat="47.79032" lon="-3.52633">
        <ele>18.36</ele>
        <time>2020-07-08T12:25:28Z</time>
      </trkpt>
      <trkpt lat="47.79032" lon="-3.52633">
        <ele>18.37</ele>
        <time>2020-07-08T12:25:29Z</time>
      </trkpt>
      <trkpt lat="47.79032" lon="-3.52633">
        <ele>18.37</ele>
        <time>2020-07-08T12:25:30Z</time>
      </trkpt>
      <trkpt lat="47.79032" lon="-3.52633">
        <ele>18.37</ele>
        <time>2020-07-08T12:25:31Z</time>
      </trkpt>
      <trkpt lat="47.79032" lon="-3.52633">
        <ele>18.37</ele>
        <time>2020-07-08T12:25:32Z</time>
      </trkpt>
      <trkpt lat="47.79032" lon="-3.52633">
        <ele>18.37</ele>
        <time>2020-07-08T12:25:33Z</time>
      </trkpt>
      <trkpt lat="47.79032" lon="-3.52633">
        <ele>18.37</ele>
        <time>2020-07-08T12:25:34Z</time>
      </trkpt>
      <trkpt lat="47.79032" lon="-3.52633">
        <ele>18.37</ele>
        <time>2020-07-08T12:25:35Z</time>
      </trkpt>
      <trkpt lat="47.79032" lon="-3.52633">
        <ele>18.37</ele>
        <time>2020-07-08T12:25:36Z</time>
      </trkpt>
      <trkpt lat="47.79032" lon="-3.52633">
        <ele>18.37</ele>
        <time>2020-07-08T12:25:37Z</time>
      </trkpt>
      <trkpt lat="47.79032" lon="-3.52633">
        <ele>18.37</ele>
        <time>2020-07-08T12:25:38Z</time>
      </trkpt>
      <trkpt lat="47.79032" lon="-3.52633">
        <ele>18.37</ele>
        <time>2020-07-08T12:25:39Z</time>
      </trkpt>
      <trkpt lat="47.79032" lon="-3.52633">
        <ele>18.37</ele>
        <time>2020-07-08T12:25:40Z</time>
      </trkpt>
      <trkpt lat="47.79032" lon="-3.52633">
        <ele>18.37</ele>
        <time>2020-07-08T12:25:41Z</time>
      </trkpt>
      <trkpt lat="47.79032" lon="-3.52633">
        <ele>18.37</ele>
        <time>2020-07-08T12:25:42Z</time>
      </trkpt>
      <trkpt lat="47.79032" lon="-3.52633">
        <ele>18.37</ele>
        <time>2020-07-08T12:25:43Z</time>
      </trkpt>
      <trkpt lat="47.79032" lon="-3.52633">
        <ele>18.37</ele>
        <time>2020-07-08T12:25:44Z</time>
      </trkpt>
      <trkpt lat="47.79032" lon="-3.52633">
        <ele>18.37</ele>
        <time>2020-07-08T12:25:45Z</time>
      </trkpt>
      <trkpt lat="47.79032" lon="-3.52633">
        <ele>18.37</ele>
        <time>2020-07-08T12:25:46Z</time>
      </trkpt>
      <trkpt lat="47.79032" lon="-3.52633">
        <ele>18.37</ele>
        <time>2020-07-08T12:25:47Z</time>
      </trkpt>
      <trkpt lat="47.79032" lon="-3.52633">
        <ele>18.37</ele>
        <time>2020-07-08T12:25:48Z</time>
      </trkpt>
      <trkpt lat="47.79032" lon="-3.52633">
        <ele>18.37</ele>
        <time>2020-07-08T12:25:49Z</time>
      </trkpt>
      <trkpt lat="47.79032" lon="-3.52633">
        <ele>18.37</ele>
        <time>2020-07-08T12:25:50Z</time>
      </trkpt>
      <trkpt lat="47.79032" lon="-3.52633">
        <ele>18.37</ele>
        <time>2020-07-08T12:25:51Z</time>
      </trkpt>
      <trkpt lat="47.79032" lon="-3.52633">
        <ele>18.37</ele>
        <time>2020-07-08T12:25:52Z</time>
      </trkpt>
      <trkpt lat="47.79032" lon="-3.52633">
        <ele>18.37</ele>
        <time>2020-07-08T12:25:53Z</time>
      </trkpt>
      <trkpt lat="47.79032" lon="-3.52633">
        <ele>18.37</ele>
        <time>2020-07-08T12:25:54Z</time>
      </trkpt>
      <trkpt lat="47.79032" lon="-3.52633">
        <ele>18.37</ele>
        <time>2020-07-08T12:25:55Z</time>
      </trkpt>
      <trkpt lat="47.79032" lon="-3.52633">
        <ele>18.37</ele>
        <time>2020-07-08T12:25:56Z</time>
      </trkpt>
      <trkpt lat="47.79032" lon="-3.52633">
        <ele>18.37</ele>
        <time>2020-07-08T12:25:57Z</time>
      </trkpt>
      <trkpt lat="47.79032" lon="-3.52633">
        <ele>18.37</ele>
        <time>2020-07-08T12:25:58Z</time>
      </trkpt>
      <trkpt lat="47.79032" lon="-3.52633">
        <ele>18.37</ele>
        <time>2020-07-08T12:25:59Z</time>
      </trkpt>
      <trkpt lat="47.79032" lon="-3.52633">
        <ele>18.37</ele>
        <time>2020-07-08T12:26:00Z</time>
      </trkpt>
      <trkpt lat="47.79032" lon="-3.52633">
        <ele>18.37</ele>
        <time>2020-07-08T12:26:01Z</time>
      </trkpt>
      <trkpt lat="47.79032" lon="-3.52633">
        <ele>18.37</ele>
        <time>2020-07-08T12:26:02Z</time>
      </trkpt>
      <trkpt lat="47.79032" lon="-3.52633">
        <ele>18.37</ele>
        <time>2020-07-08T12:26:03Z</time>
      </trkpt>
      <trkpt lat="47.79032" lon="-3.52633">
        <ele>18.37</ele>
        <time>2020-07-08T12:26:04Z</time>
      </trkpt>
      <trkpt lat="47.79032" lon="-3.52633">
        <ele>18.37</ele>
        <time>2020-07-08T12:26:05Z</time>
      </trkpt>
      <trkpt lat="47.79032" lon="-3.52633">
        <ele>18.37</ele>
        <time>2020-07-08T12:26:06Z</time>
      </trkpt>
      <trkpt lat="47.79032" lon="-3.52633">
        <ele>18.37</ele>
        <time>2020-07-08T12:26:07Z</time>
      </trkpt>
      <trkpt lat="47.79032" lon="-3.52633">
        <ele>18.37</ele>
        <time>2020-07-08T12:26:08Z</time>
      </trkpt>
      <trkpt lat="47.79032" lon="-3.52633">
        <ele>18.37</ele>
        <time>2020-07-08T12:26:09Z</time>
      </trkpt>
      <trkpt lat="47.79032" lon="-3.52633">
        <ele>18.37</ele>
        <time>2020-07-08T12:26:10Z</time>
      </trkpt>
      <trkpt lat="47.79032" lon="-3.52633">
        <ele>18.37</ele>
        <time>2020-07-08T12:26:11Z</time>
      </trkpt>
      <trkpt lat="47.79032" lon="-3.52633">
        <ele>18.37</ele>
        <time>2020-07-08T12:26:12Z</time>
      </trkpt>
      <trkpt lat="47.79032" lon="-3.52633">
        <ele>18.37</ele>
        <time>2020-07-08T12:26:13Z</time>
      </trkpt>
      <trkpt lat="47.79032" lon="-3.52633">
        <ele>18.37</ele>
        <time>2020-07-08T12:26:14Z</time>
      </trkpt>
      <trkpt lat="47.79032" lon="-3.52633">
        <ele>18.37</ele>
        <time>2020-07-08T12:26:15Z</time>
      </trkpt>
      <trkpt lat="47.79032" lon="-3.52633">
        <ele>18.37</ele>
        <time>2020-07-08T12:26:16Z</time>
      </trkpt>
      <trkpt lat="47.79032" lon="-3.52633">
        <ele>18.37</ele>
        <time>2020-07-08T12:26:17Z</time>
      </trkpt>
      <trkpt lat="47.79032" lon="-3.52633">
        <ele>18.37</ele>
        <time>2020-07-08T12:26:18Z</time>
      </trkpt>
      <trkpt lat="47.79032" lon="-3.52633">
        <ele>18.37</ele>
        <time>2020-07-08T12:26:19Z</time>
      </trkpt>
      <trkpt lat="47.79032" lon="-3.52633">
        <ele>18.37</ele>
        <time>2020-07-08T12:26:20Z</time>
      </trkpt>
      <trkpt lat="47.79032" lon="-3.52633">
        <ele>18.37</ele>
        <time>2020-07-08T12:26:21Z</time>
      </trkpt>
      <trkpt lat="47.79032" lon="-3.52633">
        <ele>18.37</ele>
        <time>2020-07-08T12:26:22Z</time>
      </trkpt>
      <trkpt lat="47.79032" lon="-3.52633">
        <ele>18.37</ele>
        <time>2020-07-08T12:26:23Z</time>
      </trkpt>
      <trkpt lat="47.79032" lon="-3.52633">
        <ele>18.37</ele>
        <time>2020-07-08T12:26:24Z</time>
      </trkpt>
      <trkpt lat="47.79032" lon="-3.52633">
        <ele>18.37</ele>
        <time>2020-07-08T12:26:25Z</time>
      </trkpt>
      <trkpt lat="47.79032" lon="-3.52633">
        <ele>18.37</ele>
        <time>2020-07-08T12:26:26Z</time>
      </trkpt>
      <trkpt lat="47.79032" lon="-3.52633">
        <ele>18.37</ele>
        <time>2020-07-08T12:26:27Z</time>
      </trkpt>
      <trkpt lat="47.79032" lon="-3.52633">
        <ele>18.37</ele>
        <time>2020-07-08T12:26:28Z</time>
      </trkpt>
      <trkpt lat="47.79032" lon="-3.52633">
        <ele>18.37</ele>
        <time>2020-07-08T12:26:29Z</time>
      </trkpt>
      <trkpt lat="47.79032" lon="-3.52633">
        <ele>18.37</ele>
        <time>2020-07-08T12:26:30Z</time>
      </trkpt>
      <trkpt lat="47.79032" lon="-3.52633">
        <ele>18.37</ele>
        <time>2020-07-08T12:26:31Z</time>
      </trkpt>
      <trkpt lat="47.79032" lon="-3.52633">
        <ele>18.37</ele>
        <time>2020-07-08T12:26:32Z</time>
      </trkpt>
      <trkpt lat="47.79032" lon="-3.52633">
        <ele>18.37</ele>
        <time>2020-07-08T12:26:33Z</time>
      </trkpt>
      <trkpt lat="47.79032" lon="-3.52633">
        <ele>18.37</ele>
        <time>2020-07-08T12:26:34Z</time>
      </trkpt>
      <trkpt lat="47.79032" lon="-3.52633">
        <ele>18.37</ele>
        <time>2020-07-08T12:26:35Z</time>
      </trkpt>
      <trkpt lat="47.79032" lon="-3.52633">
        <ele>18.37</ele>
        <time>2020-07-08T12:26:36Z</time>
      </trkpt>
      <trkpt lat="47.79032" lon="-3.52633">
        <ele>18.37</ele>
        <time>2020-07-08T12:26:37Z</time>
      </trkpt>
      <trkpt lat="47.79032" lon="-3.52633">
        <ele>18.37</ele>
        <time>2020-07-08T12:26:38Z</time>
      </trkpt>
      <trkpt lat="47.79032" lon="-3.52633">
        <ele>18.37</ele>
        <time>2020-07-08T12:26:39Z</time>
      </trkpt>
      <trkpt lat="47.79032" lon="-3.52633">
        <ele>18.37</ele>
        <time>2020-07-08T12:26:40Z</time>
      </trkpt>
      <trkpt lat="47.79032" lon="-3.52633">
        <ele>18.37</ele>
        <time>2020-07-08T12:26:41Z</time>
      </trkpt>
      <trkpt lat="47.79032" lon="-3.52633">
        <ele>18.37</ele>
        <time>2020-07-08T12:26:42Z</time>
      </trkpt>
      <trkpt lat="47.79032" lon="-3.52633">
        <ele>18.37</ele>
        <time>2020-07-08T12:26:43Z</time>
      </trkpt>
      <trkpt lat="47.79032" lon="-3.52633">
        <ele>18.37</ele>
        <time>2020-07-08T12:26:44Z</time>
      </trkpt>
      <trkpt lat="47.79032" lon="-3.52633">
        <ele>18.37</ele>
        <time>2020-07-08T12:26:45Z</time>
      </trkpt>
      <trkpt lat="47.79032" lon="-3.52633">
        <ele>18.37</ele>
        <time>2020-07-08T12:26:46Z</time>
      </trkpt>
      <trkpt lat="47.79032" lon="-3.52633">
        <ele>18.37</ele>
        <time>2020-07-08T12:26:47Z</time>
      </trkpt>
      <trkpt lat="47.79032" lon="-3.52633">
        <ele>18.37</ele>
        <time>2020-07-08T12:26:48Z</time>
      </trkpt>
      <trkpt lat="47.79032" lon="-3.52633">
        <ele>18.37</ele>
        <time>2020-07-08T12:26:49Z</time>
      </trkpt>
      <trkpt lat="47.79032" lon="-3.52633">
        <ele>18.37</ele>
        <time>2020-07-08T12:26:50Z</time>
      </trkpt>
      <trkpt lat="47.79033" lon="-3.52619">
        <ele>19.05</ele>
        <time>2020-07-08T12:26:51Z</time>
      </trkpt>
      <trkpt lat="47.79033" lon="-3.52617">
        <ele>19.35</ele>
        <time>2020-07-08T12:26:52Z</time>
      </trkpt>
      <trkpt lat="47.79034" lon="-3.52614">
        <ele>19.6</ele>
        <time>2020-07-08T12:26:53Z</time>
      </trkpt>
      <trkpt lat="47.79034" lon="-3.52611">
        <ele>19.87</ele>
        <time>2020-07-08T12:26:54Z</time>
      </trkpt>
      <trkpt lat="47.79034" lon="-3.52608">
        <ele>20.05</ele>
        <time>2020-07-08T12:26:55Z</time>
      </trkpt>
      <trkpt lat="47.79035" lon="-3.52605">
        <ele>20.22</ele>
        <time>2020-07-08T12:26:56Z</time>
      </trkpt>
      <trkpt lat="47.79035" lon="-3.52602">
        <ele>20.37</ele>
        <time>2020-07-08T12:26:57Z</time>
      </trkpt>
      <trkpt lat="47.79036" lon="-3.52598">
        <ele>20.52</ele>
        <time>2020-07-08T12:26:58Z</time>
      </trkpt>
      <trkpt lat="47.79036" lon="-3.52595">
        <ele>20.67</ele>
        <time>2020-07-08T12:26:59Z</time>
      </trkpt>
      <trkpt lat="47.79036" lon="-3.52592">
        <ele>20.81</ele>
        <time>2020-07-08T12:27:00Z</time>
      </trkpt>
      <trkpt lat="47.79036" lon="-3.52589">
        <ele>20.96</ele>
        <time>2020-07-08T12:27:01Z</time>
      </trkpt>
      <trkpt lat="47.79036" lon="-3.52586">
        <ele>21.12</ele>
        <time>2020-07-08T12:27:02Z</time>
      </trkpt>
      <trkpt lat="47.79036" lon="-3.52583">
        <ele>21.26</ele>
        <time>2020-07-08T12:27:03Z</time>
      </trkpt>
      <trkpt lat="47.79036" lon="-3.5258">
        <ele>21.4</ele>
        <time>2020-07-08T12:27:04Z</time>
      </trkpt>
      <trkpt lat="47.79036" lon="-3.52577">
        <ele>21.53</ele>
        <time>2020-07-08T12:27:05Z</time>
      </trkpt>
      <trkpt lat="47.79036" lon="-3.52574">
        <ele>21.67</ele>
        <time>2020-07-08T12:27:06Z</time>
      </trkpt>
      <trkpt lat="47.79036" lon="-3.52571">
        <ele>21.82</ele>
        <time>2020-07-08T12:27:07Z</time>
      </trkpt>
      <trkpt lat="47.79036" lon="-3.52568">
        <ele>21.96</ele>
        <time>2020-07-08T12:27:08Z</time>
      </trkpt>
      <trkpt lat="47.79036" lon="-3.52565">
        <ele>22.11</ele>
        <time>2020-07-08T12:27:09Z</time>
      </trkpt>
      <trkpt lat="47.79036" lon="-3.52562">
        <ele>22.25</ele>
        <time>2020-07-08T12:27:10Z</time>
      </trkpt>
      <trkpt lat="47.79036" lon="-3.52558">
        <ele>22.41</ele>
        <time>2020-07-08T12:27:11Z</time>
      </trkpt>
      <trkpt lat="47.79036" lon="-3.52554">
        <ele>22.59</ele>
        <time>2020-07-08T12:27:12Z</time>
      </trkpt>
      <trkpt lat="47.79036" lon="-3.52551">
        <ele>22.73</ele>
        <time>2020-07-08T12:27:13Z</time>
      </trkpt>
      <trkpt lat="47.79036" lon="-3.52548">
        <ele>22.85</ele>
        <time>2020-07-08T12:27:14Z</time>
      </trkpt>
      <trkpt lat="47.79037" lon="-3.52544">
        <ele>22.99</ele>
        <time>2020-07-08T12:27:15Z</time>
      </trkpt>
      <trkpt lat="47.79037" lon="-3.52541">
        <ele>23.12</ele>
        <time>2020-07-08T12:27:16Z</time>
      </trkpt>
      <trkpt lat="47.79036" lon="-3.52537">
        <ele>23.24</ele>
        <time>2020-07-08T12:27:17Z</time>
      </trkpt>
      <trkpt lat="47.79036" lon="-3.52533">
        <ele>23.37</ele>
        <time>2020-07-08T12:27:18Z</time>
      </trkpt>
      <trkpt lat="47.79036" lon="-3.52529">
        <ele>23.51</ele>
        <time>2020-07-08T12:27:19Z</time>
      </trkpt>
      <trkpt lat="47.79036" lon="-3.52525">
        <ele>23.54</ele>
        <time>2020-07-08T12:27:20Z</time>
      </trkpt>
      <trkpt lat="47.79036" lon="-3.52521">
        <ele>23.55</ele>
        <time>2020-07-08T12:27:21Z</time>
      </trkpt>
      <trkpt lat="47.79036" lon="-3.52517">
        <ele>23.56</ele>
        <time>2020-07-08T12:27:22Z</time>
      </trkpt>
      <trkpt lat="47.79036" lon="-3.52514">
        <ele>23.57</ele>
        <time>2020-07-08T12:27:23Z</time>
      </trkpt>
      <trkpt lat="47.79036" lon="-3.5251">
        <ele>23.6</ele>
        <time>2020-07-08T12:27:24Z</time>
      </trkpt>
      <trkpt lat="47.79037" lon="-3.52508">
        <ele>23.63</ele>
        <time>2020-07-08T12:27:25Z</time>
      </trkpt>
      <trkpt lat="47.79037" lon="-3.52505">
        <ele>23.66</ele>
        <time>2020-07-08T12:27:26Z</time>
      </trkpt>
      <trkpt lat="47.79038" lon="-3.52502">
        <ele>23.7</ele>
        <time>2020-07-08T12:27:27Z</time>
      </trkpt>
      <trkpt lat="47.79038" lon="-3.52499">
        <ele>23.69</ele>
        <time>2020-07-08T12:27:28Z</time>
      </trkpt>
      <trkpt lat="47.79037" lon="-3.52497">
        <ele>23.58</ele>
        <time>2020-07-08T12:27:29Z</time>
      </trkpt>
      <trkpt lat="47.79037" lon="-3.52494">
        <ele>23.47</ele>
        <time>2020-07-08T12:27:30Z</time>
      </trkpt>
      <trkpt lat="47.79038" lon="-3.52491">
        <ele>23.36</ele>
        <time>2020-07-08T12:27:31Z</time>
      </trkpt>
      <trkpt lat="47.79038" lon="-3.52489">
        <ele>23.27</ele>
        <time>2020-07-08T12:27:32Z</time>
      </trkpt>
      <trkpt lat="47.79038" lon="-3.52485">
        <ele>23.16</ele>
        <time>2020-07-08T12:27:33Z</time>
      </trkpt>
      <trkpt lat="47.79039" lon="-3.52482">
        <ele>23.04</ele>
        <time>2020-07-08T12:27:34Z</time>
      </trkpt>
      <trkpt lat="47.79039" lon="-3.52479">
        <ele>22.91</ele>
        <time>2020-07-08T12:27:35Z</time>
      </trkpt>
      <trkpt lat="47.79039" lon="-3.52476">
        <ele>22.79</ele>
        <time>2020-07-08T12:27:36Z</time>
      </trkpt>
      <trkpt lat="47.79039" lon="-3.52473">
        <ele>22.68</ele>
        <time>2020-07-08T12:27:37Z</time>
      </trkpt>
      <trkpt lat="47.79039" lon="-3.5247">
        <ele>22.59</ele>
        <time>2020-07-08T12:27:38Z</time>
      </trkpt>
      <trkpt lat="47.79039" lon="-3.52466">
        <ele>22.51</ele>
        <time>2020-07-08T12:27:39Z</time>
      </trkpt>
      <trkpt lat="47.7904" lon="-3.52463">
        <ele>22.42</ele>
        <time>2020-07-08T12:27:40Z</time>
      </trkpt>
      <trkpt lat="47.79039" lon="-3.52459">
        <ele>22.27</ele>
        <time>2020-07-08T12:27:41Z</time>
      </trkpt>
      <trkpt lat="47.7904" lon="-3.52454">
        <ele>22.12</ele>
        <time>2020-07-08T12:27:42Z</time>
      </trkpt>
      <trkpt lat="47.7904" lon="-3.52449">
        <ele>21.96</ele>
        <time>2020-07-08T12:27:43Z</time>
      </trkpt>
      <trkpt lat="47.7904" lon="-3.52443">
        <ele>21.76</ele>
        <time>2020-07-08T12:27:44Z</time>
      </trkpt>
      <trkpt lat="47.7904" lon="-3.52437">
        <ele>21.28</ele>
        <time>2020-07-08T12:27:45Z</time>
      </trkpt>
      <trkpt lat="47.79041" lon="-3.5243">
        <ele>20.76</ele>
        <time>2020-07-08T12:27:46Z</time>
      </trkpt>
      <trkpt lat="47.79041" lon="-3.52423">
        <ele>20.24</ele>
        <time>2020-07-08T12:27:47Z</time>
      </trkpt>
      <trkpt lat="47.79043" lon="-3.52416">
        <ele>19.78</ele>
        <time>2020-07-08T12:27:48Z</time>
      </trkpt>
      <trkpt lat="47.79043" lon="-3.52407">
        <ele>19.43</ele>
        <time>2020-07-08T12:27:49Z</time>
      </trkpt>
      <trkpt lat="47.79045" lon="-3.52398">
        <ele>19.09</ele>
        <time>2020-07-08T12:27:50Z</time>
      </trkpt>
      <trkpt lat="47.79046" lon="-3.52388">
        <ele>18.69</ele>
        <time>2020-07-08T12:27:51Z</time>
      </trkpt>
      <trkpt lat="47.79047" lon="-3.52378">
        <ele>18.19</ele>
        <time>2020-07-08T12:27:52Z</time>
      </trkpt>
      <trkpt lat="47.79048" lon="-3.52369">
        <ele>17.68</ele>
        <time>2020-07-08T12:27:53Z</time>
      </trkpt>
      <trkpt lat="47.79049" lon="-3.52358">
        <ele>16.96</ele>
        <time>2020-07-08T12:27:54Z</time>
      </trkpt>
      <trkpt lat="47.7905" lon="-3.52348">
        <ele>15.82</ele>
        <time>2020-07-08T12:27:55Z</time>
      </trkpt>
      <trkpt lat="47.79051" lon="-3.52339">
        <ele>14.68</ele>
        <time>2020-07-08T12:27:56Z</time>
      </trkpt>
      <trkpt lat="47.79052" lon="-3.52332">
        <ele>13.78</ele>
        <time>2020-07-08T12:27:57Z</time>
      </trkpt>
      <trkpt lat="47.79053" lon="-3.52326">
        <ele>13.44</ele>
        <time>2020-07-08T12:27:58Z</time>
      </trkpt>
      <trkpt lat="47.79055" lon="-3.52323">
        <ele>13.46</ele>
        <time>2020-07-08T12:27:59Z</time>
      </trkpt>
      <trkpt lat="47.79057" lon="-3.5232">
        <ele>13.59</ele>
        <time>2020-07-08T12:28:00Z</time>
      </trkpt>
      <trkpt lat="47.79059" lon="-3.52318">
        <ele>13.69</ele>
        <time>2020-07-08T12:28:01Z</time>
      </trkpt>
      <trkpt lat="47.79061" lon="-3.52315">
        <ele>13.76</ele>
        <time>2020-07-08T12:28:02Z</time>
      </trkpt>
      <trkpt lat="47.79063" lon="-3.52312">
        <ele>13.81</ele>
        <time>2020-07-08T12:28:03Z</time>
      </trkpt>
      <trkpt lat="47.79064" lon="-3.5231">
        <ele>13.8</ele>
        <time>2020-07-08T12:28:04Z</time>
      </trkpt>
      <trkpt lat="47.79065" lon="-3.52308">
        <ele>13.78</ele>
        <time>2020-07-08T12:28:05Z</time>
      </trkpt>
      <trkpt lat="47.79066" lon="-3.52305">
        <ele>13.75</ele>
        <time>2020-07-08T12:28:06Z</time>
      </trkpt>
      <trkpt lat="47.79066" lon="-3.52303">
        <ele>13.81</ele>
        <time>2020-07-08T12:28:07Z</time>
      </trkpt>
      <trkpt lat="47.79065" lon="-3.52302">
        <ele>13.84</ele>
        <time>2020-07-08T12:28:08Z</time>
      </trkpt>
      <trkpt lat="47.79063" lon="-3.52302">
        <ele>13.76</ele>
        <time>2020-07-08T12:28:09Z</time>
      </trkpt>
      <trkpt lat="47.7906" lon="-3.52303">
        <ele>13.54</ele>
        <time>2020-07-08T12:28:10Z</time>
      </trkpt>
      <trkpt lat="47.79057" lon="-3.52305">
        <ele>13.27</ele>
        <time>2020-07-08T12:28:11Z</time>
      </trkpt>
      <trkpt lat="47.79053" lon="-3.52306">
        <ele>12.73</ele>
        <time>2020-07-08T12:28:12Z</time>
      </trkpt>
      <trkpt lat="47.79049" lon="-3.52308">
        <ele>12.03</ele>
        <time>2020-07-08T12:28:13Z</time>
      </trkpt>
      <trkpt lat="47.79045" lon="-3.52309">
        <ele>11.24</ele>
        <time>2020-07-08T12:28:14Z</time>
      </trkpt>
      <trkpt lat="47.79041" lon="-3.5231">
        <ele>10.47</ele>
        <time>2020-07-08T12:28:15Z</time>
      </trkpt>
      <trkpt lat="47.79038" lon="-3.52311">
        <ele>9.91</ele>
        <time>2020-07-08T12:28:16Z</time>
      </trkpt>
      <trkpt lat="47.79037" lon="-3.52312">
        <ele>9.59</ele>
        <time>2020-07-08T12:28:17Z</time>
      </trkpt>
      <trkpt lat="47.79035" lon="-3.52314">
        <ele>9.41</ele>
        <time>2020-07-08T12:28:18Z</time>
      </trkpt>
      <trkpt lat="47.79035" lon="-3.52314">
        <ele>9.32</ele>
        <time>2020-07-08T12:28:19Z</time>
      </trkpt>
      <trkpt lat="47.79034" lon="-3.52314">
        <ele>9.25</ele>
        <time>2020-07-08T12:28:20Z</time>
      </trkpt>
      <trkpt lat="47.79034" lon="-3.52314">
        <ele>9.2</ele>
        <time>2020-07-08T12:28:21Z</time>
      </trkpt>
      <trkpt lat="47.79034" lon="-3.52314">
        <ele>9.19</ele>
        <time>2020-07-08T12:28:22Z</time>
      </trkpt>
      <trkpt lat="47.79034" lon="-3.52314">
        <ele>9.18</ele>
        <time>2020-07-08T12:28:23Z</time>
      </trkpt>
      <trkpt lat="47.79034" lon="-3.52314">
        <ele>9.18</ele>
        <time>2020-07-08T12:28:24Z</time>
      </trkpt>
      <trkpt lat="47.79034" lon="-3.52314">
        <ele>9.18</ele>
        <time>2020-07-08T12:28:25Z</time>
      </trkpt>
      <trkpt lat="47.79034" lon="-3.52314">
        <ele>9.18</ele>
        <time>2020-07-08T12:28:26Z</time>
      </trkpt>
      <trkpt lat="47.79034" lon="-3.52314">
        <ele>9.18</ele>
        <time>2020-07-08T12:28:27Z</time>
      </trkpt>
      <trkpt lat="47.79034" lon="-3.52314">
        <ele>9.18</ele>
        <time>2020-07-08T12:28:28Z</time>
      </trkpt>
      <trkpt lat="47.79034" lon="-3.52314">
        <ele>9.18</ele>
        <time>2020-07-08T12:28:29Z</time>
      </trkpt>
      <trkpt lat="47.79034" lon="-3.52314">
        <ele>9.18</ele>
        <time>2020-07-08T12:28:30Z</time>
      </trkpt>
      <trkpt lat="47.79034" lon="-3.52314">
        <ele>9.18</ele>
        <time>2020-07-08T12:28:31Z</time>
      </trkpt>
      <trkpt lat="47.79034" lon="-3.52314">
        <ele>9.18</ele>
        <time>2020-07-08T12:28:32Z</time>
      </trkpt>
      <trkpt lat="47.79029" lon="-3.52315">
        <ele>8.55</ele>
        <time>2020-07-08T12:28:33Z</time>
      </trkpt>
      <trkpt lat="47.79027" lon="-3.52315">
        <ele>8.13</ele>
        <time>2020-07-08T12:28:34Z</time>
      </trkpt>
      <trkpt lat="47.79024" lon="-3.52317">
        <ele>7.86</ele>
        <time>2020-07-08T12:28:35Z</time>
      </trkpt>
      <trkpt lat="47.79021" lon="-3.52318">
        <ele>7.51</ele>
        <time>2020-07-08T12:28:36Z</time>
      </trkpt>
      <trkpt lat="47.79016" lon="-3.52319">
        <ele>7.01</ele>
        <time>2020-07-08T12:28:37Z</time>
      </trkpt>
      <trkpt lat="47.79012" lon="-3.52321">
        <ele>6.49</ele>
        <time>2020-07-08T12:28:38Z</time>
      </trkpt>
      <trkpt lat="47.79007" lon="-3.52324">
        <ele>6.02</ele>
        <time>2020-07-08T12:28:39Z</time>
      </trkpt>
      <trkpt lat="47.79004" lon="-3.52326">
        <ele>5.57</ele>
        <time>2020-07-08T12:28:40Z</time>
      </trkpt>
      <trkpt lat="47.79002" lon="-3.52328">
        <ele>5.22</ele>
        <time>2020-07-08T12:28:41Z</time>
      </trkpt>
      <trkpt lat="47.78999" lon="-3.5233">
        <ele>4.93</ele>
        <time>2020-07-08T12:28:42Z</time>
      </trkpt>
      <trkpt lat="47.78998" lon="-3.52331">
        <ele>4.78</ele>
        <time>2020-07-08T12:28:43Z</time>
      </trkpt>
      <trkpt lat="47.78998" lon="-3.52332">
        <ele>4.75</ele>
        <time>2020-07-08T12:28:44Z</time>
      </trkpt>
      <trkpt lat="47.78997" lon="-3.52334">
        <ele>4.76</ele>
        <time>2020-07-08T12:28:45Z</time>
      </trkpt>
      <trkpt lat="47.78997" lon="-3.52335">
        <ele>4.76</ele>
        <time>2020-07-08T12:28:46Z</time>
      </trkpt>
      <trkpt lat="47.78997" lon="-3.52334">
        <ele>4.74</ele>
        <time>2020-07-08T12:28:47Z</time>
      </trkpt>
      <trkpt lat="47.78997" lon="-3.52333">
        <ele>4.68</ele>
        <time>2020-07-08T12:28:48Z</time>
      </trkpt>
      <trkpt lat="47.78997" lon="-3.52333">
        <ele>4.66</ele>
        <time>2020-07-08T12:28:49Z</time>
      </trkpt>
      <trkpt lat="47.78997" lon="-3.52333">
        <ele>4.65</ele>
        <time>2020-07-08T12:28:50Z</time>
      </trkpt>
      <trkpt lat="47.78997" lon="-3.52333">
        <ele>4.65</ele>
        <time>2020-07-08T12:28:51Z</time>
      </trkpt>
      <trkpt lat="47.79" lon="-3.52328">
        <ele>4.78</ele>
        <time>2020-07-08T12:28:52Z</time>
      </trkpt>
      <trkpt lat="47.79001" lon="-3.52326">
        <ele>4.91</ele>
        <time>2020-07-08T12:28:53Z</time>
      </trkpt>
      <trkpt lat="47.79002" lon="-3.52324">
        <ele>4.98</ele>
        <time>2020-07-08T12:28:54Z</time>
      </trkpt>
      <trkpt lat="47.79002" lon="-3.52323">
        <ele>4.96</ele>
        <time>2020-07-08T12:28:55Z</time>
      </trkpt>
      <trkpt lat="47.79002" lon="-3.52322">
        <ele>4.85</ele>
        <time>2020-07-08T12:28:56Z</time>
      </trkpt>
      <trkpt lat="47.79001" lon="-3.52321">
        <ele>4.75</ele>
        <time>2020-07-08T12:28:57Z</time>
      </trkpt>
      <trkpt lat="47.79001" lon="-3.52321">
        <ele>4.72</ele>
        <time>2020-07-08T12:28:58Z</time>
      </trkpt>
      <trkpt lat="47.79001" lon="-3.52321">
        <ele>4.71</ele>
        <time>2020-07-08T12:28:59Z</time>
      </trkpt>
      <trkpt lat="47.79001" lon="-3.52321">
        <ele>4.71</ele>
        <time>2020-07-08T12:29:00Z</time>
      </trkpt>
      <trkpt lat="47.79001" lon="-3.52321">
        <ele>4.71</ele>
        <time>2020-07-08T12:29:01Z</time>
      </trkpt>
      <trkpt lat="47.79001" lon="-3.52321">
        <ele>4.71</ele>
        <time>2020-07-08T12:29:02Z</time>
      </trkpt>
      <trkpt lat="47.79001" lon="-3.52321">
        <ele>4.71</ele>
        <time>2020-07-08T12:29:03Z</time>
      </trkpt>
      <trkpt lat="47.79001" lon="-3.52321">
        <ele>4.71</ele>
        <time>2020-07-08T12:29:04Z</time>
      </trkpt>
      <trkpt lat="47.79001" lon="-3.52321">
        <ele>4.71</ele>
        <time>2020-07-08T12:29:05Z</time>
      </trkpt>
      <trkpt lat="47.79001" lon="-3.52321">
        <ele>4.71</ele>
        <time>2020-07-08T12:29:06Z</time>
      </trkpt>
      <trkpt lat="47.79001" lon="-3.52321">
        <ele>4.71</ele>
        <time>2020-07-08T12:29:07Z</time>
      </trkpt>
      <trkpt lat="47.79001" lon="-3.52321">
        <ele>4.71</ele>
        <time>2020-07-08T12:29:08Z</time>
      </trkpt>
      <trkpt lat="47.79001" lon="-3.52321">
        <ele>4.71</ele>
        <time>2020-07-08T12:29:09Z</time>
      </trkpt>
      <trkpt lat="47.79001" lon="-3.52321">
        <ele>4.71</ele>
        <time>2020-07-08T12:29:10Z</time>
      </trkpt>
      <trkpt lat="47.79001" lon="-3.52321">
        <ele>4.71</ele>
        <time>2020-07-08T12:29:11Z</time>
      </trkpt>
      <trkpt lat="47.79001" lon="-3.52321">
        <ele>4.71</ele>
        <time>2020-07-08T12:29:12Z</time>
      </trkpt>
      <trkpt lat="47.79001" lon="-3.52321">
        <ele>4.71</ele>
        <time>2020-07-08T12:29:13Z</time>
      </trkpt>
      <trkpt lat="47.79001" lon="-3.52321">
        <ele>4.71</ele>
        <time>2020-07-08T12:29:14Z</time>
      </trkpt>
      <trkpt lat="47.79001" lon="-3.52321">
        <ele>4.71</ele>
        <time>2020-07-08T12:29:15Z</time>
      </trkpt>
      <trkpt lat="47.79001" lon="-3.52321">
        <ele>4.71</ele>
        <time>2020-07-08T12:29:16Z</time>
      </trkpt>
      <trkpt lat="47.79001" lon="-3.52321">
        <ele>4.71</ele>
        <time>2020-07-08T12:29:17Z</time>
      </trkpt>
      <trkpt lat="47.79001" lon="-3.52321">
        <ele>4.71</ele>
        <time>2020-07-08T12:29:18Z</time>
      </trkpt>
      <trkpt lat="47.79001" lon="-3.52321">
        <ele>4.71</ele>
        <time>2020-07-08T12:29:19Z</time>
      </trkpt>
      <trkpt lat="47.79001" lon="-3.52321">
        <ele>4.71</ele>
        <time>2020-07-08T12:29:20Z</time>
      </trkpt>
      <trkpt lat="47.79001" lon="-3.52321">
        <ele>4.71</ele>
        <time>2020-07-08T12:29:21Z</time>
      </trkpt>
      <trkpt lat="47.79001" lon="-3.52321">
        <ele>4.71</ele>
        <time>2020-07-08T12:29:22Z</time>
      </trkpt>
      <trkpt lat="47.79001" lon="-3.52321">
        <ele>4.71</ele>
        <time>2020-07-08T12:29:23Z</time>
      </trkpt>
      <trkpt lat="47.79001" lon="-3.52321">
        <ele>4.71</ele>
        <time>2020-07-08T12:29:24Z</time>
      </trkpt>
      <trkpt lat="47.79001" lon="-3.52321">
        <ele>4.71</ele>
        <time>2020-07-08T12:29:25Z</time>
      </trkpt>
      <trkpt lat="47.79001" lon="-3.52321">
        <ele>4.71</ele>
        <time>2020-07-08T12:29:26Z</time>
      </trkpt>
      <trkpt lat="47.78991" lon="-3.52324">
        <ele>4.07</ele>
        <time>2020-07-08T12:29:27Z</time>
      </trkpt>
      <trkpt lat="47.78989" lon="-3.52324">
        <ele>3.75</ele>
        <time>2020-07-08T12:29:28Z</time>
      </trkpt>
      <trkpt lat="47.78987" lon="-3.52323">
        <ele>3.48</ele>
        <time>2020-07-08T12:29:29Z</time>
      </trkpt>
      <trkpt lat="47.78983" lon="-3.52323">
        <ele>3.19</ele>
        <time>2020-07-08T12:29:30Z</time>
      </trkpt>
      <trkpt lat="47.7898" lon="-3.52323">
        <ele>2.87</ele>
        <time>2020-07-08T12:29:31Z</time>
      </trkpt>
      <trkpt lat="47.78977" lon="-3.52324">
        <ele>2.57</ele>
        <time>2020-07-08T12:29:32Z</time>
      </trkpt>
      <trkpt lat="47.78974" lon="-3.52326">
        <ele>2.32</ele>
        <time>2020-07-08T12:29:33Z</time>
      </trkpt>
      <trkpt lat="47.78972" lon="-3.52328">
        <ele>2.1</ele>
        <time>2020-07-08T12:29:34Z</time>
      </trkpt>
      <trkpt lat="47.7897" lon="-3.5233">
        <ele>1.94</ele>
        <time>2020-07-08T12:29:35Z</time>
      </trkpt>
      <trkpt lat="47.78969" lon="-3.52333">
        <ele>1.81</ele>
        <time>2020-07-08T12:29:36Z</time>
      </trkpt>
      <trkpt lat="47.78968" lon="-3.52336">
        <ele>1.67</ele>
        <time>2020-07-08T12:29:37Z</time>
      </trkpt>
      <trkpt lat="47.78966" lon="-3.5234">
        <ele>1.48</ele>
        <time>2020-07-08T12:29:38Z</time>
      </trkpt>
      <trkpt lat="47.78965" lon="-3.52344">
        <ele>1.27</ele>
        <time>2020-07-08T12:29:39Z</time>
      </trkpt>
      <trkpt lat="47.78963" lon="-3.52348">
        <ele>1.08</ele>
        <time>2020-07-08T12:29:40Z</time>
      </trkpt>
      <trkpt lat="47.78962" lon="-3.52352">
        <ele>0.9</ele>
        <time>2020-07-08T12:29:41Z</time>
      </trkpt>
      <trkpt lat="47.7896" lon="-3.52356">
        <ele>0.72</ele>
        <time>2020-07-08T12:29:42Z</time>
      </trkpt>
      <trkpt lat="47.78958" lon="-3.5236">
        <ele>0.58</ele>
        <time>2020-07-08T12:29:43Z</time>
      </trkpt>
      <trkpt lat="47.78957" lon="-3.52364">
        <ele>0.58</ele>
        <time>2020-07-08T12:29:44Z</time>
      </trkpt>
      <trkpt lat="47.78956" lon="-3.52369">
        <ele>0.65</ele>
        <time>2020-07-08T12:29:45Z</time>
      </trkpt>
      <trkpt lat="47.78955" lon="-3.52373">
        <ele>0.75</ele>
        <time>2020-07-08T12:29:46Z</time>
      </trkpt>
      <trkpt lat="47.78953" lon="-3.52377">
        <ele>0.84</ele>
        <time>2020-07-08T12:29:47Z</time>
      </trkpt>
      <trkpt lat="47.78951" lon="-3.5238">
        <ele>0.89</ele>
        <time>2020-07-08T12:29:48Z</time>
      </trkpt>
      <trkpt lat="47.78949" lon="-3.52382">
        <ele>0.89</ele>
        <time>2020-07-08T12:29:49Z</time>
      </trkpt>
      <trkpt lat="47.78946" lon="-3.52383">
        <ele>0.85</ele>
        <time>2020-07-08T12:29:50Z</time>
      </trkpt>
      <trkpt lat="47.78942" lon="-3.52383">
        <ele>0.81</ele>
        <time>2020-07-08T12:29:51Z</time>
      </trkpt>
      <trkpt lat="47.78938" lon="-3.52383">
        <ele>0.81</ele>
        <time>2020-07-08T12:29:52Z</time>
      </trkpt>
      <trkpt lat="47.78935" lon="-3.52384">
        <ele>0.82</ele>
        <time>2020-07-08T12:29:53Z</time>
      </trkpt>
      <trkpt lat="47.78931" lon="-3.52385">
        <ele>0.84</ele>
        <time>2020-07-08T12:29:54Z</time>
      </trkpt>
      <trkpt lat="47.78927" lon="-3.52385">
        <ele>0.86</ele>
        <time>2020-07-08T12:29:55Z</time>
      </trkpt>
      <trkpt lat="47.78924" lon="-3.52386">
        <ele>0.89</ele>
        <time>2020-07-08T12:29:56Z</time>
      </trkpt>
      <trkpt lat="47.7892" lon="-3.52387">
        <ele>0.92</ele>
        <time>2020-07-08T12:29:57Z</time>
      </trkpt>
      <trkpt lat="47.78917" lon="-3.52388">
        <ele>0.95</ele>
        <time>2020-07-08T12:29:58Z</time>
      </trkpt>
      <trkpt lat="47.78914" lon="-3.52389">
        <ele>1.43</ele>
        <time>2020-07-08T12:29:59Z</time>
      </trkpt>
      <trkpt lat="47.78911" lon="-3.52389">
        <ele>1.98</ele>
        <time>2020-07-08T12:30:00Z</time>
      </trkpt>
      <trkpt lat="47.78908" lon="-3.52389">
        <ele>2.55</ele>
        <time>2020-07-08T12:30:01Z</time>
      </trkpt>
      <trkpt lat="47.78905" lon="-3.5239">
        <ele>3.19</ele>
        <time>2020-07-08T12:30:02Z</time>
      </trkpt>
      <trkpt lat="47.78902" lon="-3.5239">
        <ele>3.8</ele>
        <time>2020-07-08T12:30:03Z</time>
      </trkpt>
      <trkpt lat="47.78899" lon="-3.5239">
        <ele>4.4</ele>
        <time>2020-07-08T12:30:04Z</time>
      </trkpt>
      <trkpt lat="47.78897" lon="-3.5239">
        <ele>4.96</ele>
        <time>2020-07-08T12:30:05Z</time>
      </trkpt>
      <trkpt lat="47.78895" lon="-3.5239">
        <ele>5.51</ele>
        <time>2020-07-08T12:30:06Z</time>
      </trkpt>
      <trkpt lat="47.78892" lon="-3.5239">
        <ele>6.02</ele>
        <time>2020-07-08T12:30:07Z</time>
      </trkpt>
      <trkpt lat="47.7889" lon="-3.52389">
        <ele>6.51</ele>
        <time>2020-07-08T12:30:08Z</time>
      </trkpt>
      <trkpt lat="47.78888" lon="-3.52388">
        <ele>6.87</ele>
        <time>2020-07-08T12:30:09Z</time>
      </trkpt>
      <trkpt lat="47.78888" lon="-3.52388">
        <ele>7.06</ele>
        <time>2020-07-08T12:30:10Z</time>
      </trkpt>
      <trkpt lat="47.78887" lon="-3.52387">
        <ele>7.15</ele>
        <time>2020-07-08T12:30:11Z</time>
      </trkpt>
      <trkpt lat="47.78886" lon="-3.52387">
        <ele>7.25</ele>
        <time>2020-07-08T12:30:12Z</time>
      </trkpt>
      <trkpt lat="47.78885" lon="-3.52387">
        <ele>7.37</ele>
        <time>2020-07-08T12:30:13Z</time>
      </trkpt>
      <trkpt lat="47.78884" lon="-3.52387">
        <ele>7.52</ele>
        <time>2020-07-08T12:30:14Z</time>
      </trkpt>
      <trkpt lat="47.78882" lon="-3.52386">
        <ele>7.76</ele>
        <time>2020-07-08T12:30:15Z</time>
      </trkpt>
      <trkpt lat="47.78881" lon="-3.52386">
        <ele>8.01</ele>
        <time>2020-07-08T12:30:16Z</time>
      </trkpt>
      <trkpt lat="47.78879" lon="-3.52386">
        <ele>8.29</ele>
        <time>2020-07-08T12:30:17Z</time>
      </trkpt>
      <trkpt lat="47.78877" lon="-3.52386">
        <ele>8.56</ele>
        <time>2020-07-08T12:30:18Z</time>
      </trkpt>
      <trkpt lat="47.78875" lon="-3.52386">
        <ele>8.8</ele>
        <time>2020-07-08T12:30:19Z</time>
      </trkpt>
      <trkpt lat="47.78873" lon="-3.52386">
        <ele>9.1</ele>
        <time>2020-07-08T12:30:20Z</time>
      </trkpt>
      <trkpt lat="47.78872" lon="-3.52386">
        <ele>9.33</ele>
        <time>2020-07-08T12:30:21Z</time>
      </trkpt>
      <trkpt lat="47.7887" lon="-3.52386">
        <ele>9.59</ele>
        <time>2020-07-08T12:30:22Z</time>
      </trkpt>
      <trkpt lat="47.78869" lon="-3.52386">
        <ele>9.81</ele>
        <time>2020-07-08T12:30:23Z</time>
      </trkpt>
      <trkpt lat="47.78867" lon="-3.52386">
        <ele>10.07</ele>
        <time>2020-07-08T12:30:24Z</time>
      </trkpt>
      <trkpt lat="47.78865" lon="-3.52385">
        <ele>10.35</ele>
        <time>2020-07-08T12:30:25Z</time>
      </trkpt>
      <trkpt lat="47.78863" lon="-3.52385">
        <ele>10.64</ele>
        <time>2020-07-08T12:30:26Z</time>
      </trkpt>
      <trkpt lat="47.78861" lon="-3.52385">
        <ele>10.89</ele>
        <time>2020-07-08T12:30:27Z</time>
      </trkpt>
      <trkpt lat="47.78859" lon="-3.52386">
        <ele>11.16</ele>
        <time>2020-07-08T12:30:28Z</time>
      </trkpt>
      <trkpt lat="47.78858" lon="-3.52387">
        <ele>11.32</ele>
        <time>2020-07-08T12:30:29Z</time>
      </trkpt>
      <trkpt lat="47.78858" lon="-3.52387">
        <ele>11.45</ele>
        <time>2020-07-08T12:30:30Z</time>
      </trkpt>
      <trkpt lat="47.78857" lon="-3.52387">
        <ele>11.51</ele>
        <time>2020-07-08T12:30:31Z</time>
      </trkpt>
      <trkpt lat="47.78857" lon="-3.52387">
        <ele>11.53</ele>
        <time>2020-07-08T12:30:32Z</time>
      </trkpt>
      <trkpt lat="47.78857" lon="-3.52387">
        <ele>11.53</ele>
        <time>2020-07-08T12:30:33Z</time>
      </trkpt>
      <trkpt lat="47.78857" lon="-3.52387">
        <ele>11.53</ele>
        <time>2020-07-08T12:30:34Z</time>
      </trkpt>
      <trkpt lat="47.78857" lon="-3.52387">
        <ele>11.53</ele>
        <time>2020-07-08T12:30:35Z</time>
      </trkpt>
      <trkpt lat="47.78857" lon="-3.52387">
        <ele>11.53</ele>
        <time>2020-07-08T12:30:36Z</time>
      </trkpt>
      <trkpt lat="47.78857" lon="-3.52387">
        <ele>11.53</ele>
        <time>2020-07-08T12:30:37Z</time>
      </trkpt>
      <trkpt lat="47.78857" lon="-3.52387">
        <ele>11.53</ele>
        <time>2020-07-08T12:30:38Z</time>
      </trkpt>
      <trkpt lat="47.78857" lon="-3.52387">
        <ele>11.53</ele>
        <time>2020-07-08T12:30:39Z</time>
      </trkpt>
      <trkpt lat="47.78857" lon="-3.52387">
        <ele>11.53</ele>
        <time>2020-07-08T12:30:40Z</time>
      </trkpt>
      <trkpt lat="47.78857" lon="-3.52387">
        <ele>11.53</ele>
        <time>2020-07-08T12:30:41Z</time>
      </trkpt>
      <trkpt lat="47.78861" lon="-3.52387">
        <ele>11.17</ele>
        <time>2020-07-08T12:30:42Z</time>
      </trkpt>
      <trkpt lat="47.78864" lon="-3.52386">
        <ele>10.79</ele>
        <time>2020-07-08T12:30:43Z</time>
      </trkpt>
      <trkpt lat="47.78866" lon="-3.52387">
        <ele>10.42</ele>
        <time>2020-07-08T12:30:44Z</time>
      </trkpt>
      <trkpt lat="47.78869" lon="-3.52387">
        <ele>10</ele>
        <time>2020-07-08T12:30:45Z</time>
      </trkpt>
      <trkpt lat="47.78872" lon="-3.52387">
        <ele>9.6</ele>
        <time>2020-07-08T12:30:46Z</time>
      </trkpt>
      <trkpt lat="47.78875" lon="-3.52387">
        <ele>9.21</ele>
        <time>2020-07-08T12:30:47Z</time>
      </trkpt>
      <trkpt lat="47.78877" lon="-3.52387">
        <ele>8.82</ele>
        <time>2020-07-08T12:30:48Z</time>
      </trkpt>
      <trkpt lat="47.78879" lon="-3.52389">
        <ele>8.54</ele>
        <time>2020-07-08T12:30:49Z</time>
      </trkpt>
      <trkpt lat="47.7888" lon="-3.52391">
        <ele>8.28</ele>
        <time>2020-07-08T12:30:50Z</time>
      </trkpt>
      <trkpt lat="47.78882" lon="-3.52394">
        <ele>8.02</ele>
        <time>2020-07-08T12:30:51Z</time>
      </trkpt>
      <trkpt lat="47.78882" lon="-3.52396">
        <ele>7.81</ele>
        <time>2020-07-08T12:30:52Z</time>
      </trkpt>
      <trkpt lat="47.78882" lon="-3.52399">
        <ele>7.72</ele>
        <time>2020-07-08T12:30:53Z</time>
      </trkpt>
      <trkpt lat="47.78882" lon="-3.52402">
        <ele>7.61</ele>
        <time>2020-07-08T12:30:54Z</time>
      </trkpt>
      <trkpt lat="47.78883" lon="-3.52405">
        <ele>7.49</ele>
        <time>2020-07-08T12:30:55Z</time>
      </trkpt>
      <trkpt lat="47.78882" lon="-3.52409">
        <ele>7.45</ele>
        <time>2020-07-08T12:30:56Z</time>
      </trkpt>
      <trkpt lat="47.78881" lon="-3.52413">
        <ele>7.49</ele>
        <time>2020-07-08T12:30:57Z</time>
      </trkpt>
      <trkpt lat="47.78879" lon="-3.52417">
        <ele>7.64</ele>
        <time>2020-07-08T12:30:58Z</time>
      </trkpt>
      <trkpt lat="47.78877" lon="-3.5242">
        <ele>7.79</ele>
        <time>2020-07-08T12:30:59Z</time>
      </trkpt>
      <trkpt lat="47.78875" lon="-3.52422">
        <ele>7.96</ele>
        <time>2020-07-08T12:31:00Z</time>
      </trkpt>
      <trkpt lat="47.78874" lon="-3.52424">
        <ele>8.08</ele>
        <time>2020-07-08T12:31:01Z</time>
      </trkpt>
      <trkpt lat="47.78872" lon="-3.52426">
        <ele>8.23</ele>
        <time>2020-07-08T12:31:02Z</time>
      </trkpt>
      <trkpt lat="47.78871" lon="-3.52427">
        <ele>8.45</ele>
        <time>2020-07-08T12:31:03Z</time>
      </trkpt>
      <trkpt lat="47.78869" lon="-3.52429">
        <ele>8.63</ele>
        <time>2020-07-08T12:31:04Z</time>
      </trkpt>
      <trkpt lat="47.78868" lon="-3.5243">
        <ele>8.78</ele>
        <time>2020-07-08T12:31:05Z</time>
      </trkpt>
      <trkpt lat="47.78865" lon="-3.52432">
        <ele>9.1</ele>
        <time>2020-07-08T12:31:06Z</time>
      </trkpt>
      <trkpt lat="47.78863" lon="-3.52433">
        <ele>9.35</ele>
        <time>2020-07-08T12:31:07Z</time>
      </trkpt>
      <trkpt lat="47.78861" lon="-3.52434">
        <ele>9.65</ele>
        <time>2020-07-08T12:31:08Z</time>
      </trkpt>
      <trkpt lat="47.78859" lon="-3.52437">
        <ele>9.84</ele>
        <time>2020-07-08T12:31:09Z</time>
      </trkpt>
      <trkpt lat="47.78856" lon="-3.52439">
        <ele>10.11</ele>
        <time>2020-07-08T12:31:10Z</time>
      </trkpt>
      <trkpt lat="47.78851" lon="-3.52442">
        <ele>10.64</ele>
        <time>2020-07-08T12:31:11Z</time>
      </trkpt>
      <trkpt lat="47.78849" lon="-3.52445">
        <ele>11.05</ele>
        <time>2020-07-08T12:31:12Z</time>
      </trkpt>
      <trkpt lat="47.78847" lon="-3.52448">
        <ele>11.21</ele>
        <time>2020-07-08T12:31:13Z</time>
      </trkpt>
      <trkpt lat="47.78845" lon="-3.5245">
        <ele>11.26</ele>
        <time>2020-07-08T12:31:14Z</time>
      </trkpt>
      <trkpt lat="47.78843" lon="-3.52452">
        <ele>11.43</ele>
        <time>2020-07-08T12:31:15Z</time>
      </trkpt>
      <trkpt lat="47.78842" lon="-3.52454">
        <ele>11.59</ele>
        <time>2020-07-08T12:31:16Z</time>
      </trkpt>
      <trkpt lat="47.7884" lon="-3.52456">
        <ele>11.71</ele>
        <time>2020-07-08T12:31:17Z</time>
      </trkpt>
      <trkpt lat="47.78839" lon="-3.52458">
        <ele>11.79</ele>
        <time>2020-07-08T12:31:18Z</time>
      </trkpt>
      <trkpt lat="47.78838" lon="-3.52461">
        <ele>11.85</ele>
        <time>2020-07-08T12:31:19Z</time>
      </trkpt>
      <trkpt lat="47.78836" lon="-3.52463">
        <ele>11.94</ele>
        <time>2020-07-08T12:31:20Z</time>
      </trkpt>
      <trkpt lat="47.78835" lon="-3.52466">
        <ele>12.09</ele>
        <time>2020-07-08T12:31:21Z</time>
      </trkpt>
      <trkpt lat="47.78833" lon="-3.5247">
        <ele>12.19</ele>
        <time>2020-07-08T12:31:22Z</time>
      </trkpt>
      <trkpt lat="47.7883" lon="-3.52474">
        <ele>12.13</ele>
        <time>2020-07-08T12:31:23Z</time>
      </trkpt>
      <trkpt lat="47.78829" lon="-3.52478">
        <ele>11.87</ele>
        <time>2020-07-08T12:31:24Z</time>
      </trkpt>
      <trkpt lat="47.78826" lon="-3.52483">
        <ele>11.49</ele>
        <time>2020-07-08T12:31:25Z</time>
      </trkpt>
      <trkpt lat="47.78825" lon="-3.52489">
        <ele>11.01</ele>
        <time>2020-07-08T12:31:26Z</time>
      </trkpt>
      <trkpt lat="47.78823" lon="-3.52494">
        <ele>10.66</ele>
        <time>2020-07-08T12:31:27Z</time>
      </trkpt>
      <trkpt lat="47.7882" lon="-3.52497">
        <ele>10.76</ele>
        <time>2020-07-08T12:31:28Z</time>
      </trkpt>
      <trkpt lat="47.78817" lon="-3.52501">
        <ele>10.91</ele>
        <time>2020-07-08T12:31:29Z</time>
      </trkpt>
      <trkpt lat="47.78815" lon="-3.52504">
        <ele>11.06</ele>
        <time>2020-07-08T12:31:30Z</time>
      </trkpt>
      <trkpt lat="47.78813" lon="-3.52506">
        <ele>11.2</ele>
        <time>2020-07-08T12:31:31Z</time>
      </trkpt>
      <trkpt lat="47.78812" lon="-3.52508">
        <ele>11.27</ele>
        <time>2020-07-08T12:31:32Z</time>
      </trkpt>
      <trkpt lat="47.78812" lon="-3.52508">
        <ele>11.33</ele>
        <time>2020-07-08T12:31:33Z</time>
      </trkpt>
      <trkpt lat="47.78811" lon="-3.52509">
        <ele>11.32</ele>
        <time>2020-07-08T12:31:34Z</time>
      </trkpt>
      <trkpt lat="47.78811" lon="-3.52509">
        <ele>11.32</ele>
        <time>2020-07-08T12:31:35Z</time>
      </trkpt>
      <trkpt lat="47.78811" lon="-3.52509">
        <ele>11.31</ele>
        <time>2020-07-08T12:31:36Z</time>
      </trkpt>
      <trkpt lat="47.78811" lon="-3.52509">
        <ele>11.31</ele>
        <time>2020-07-08T12:31:37Z</time>
      </trkpt>
      <trkpt lat="47.78811" lon="-3.52509">
        <ele>11.31</ele>
        <time>2020-07-08T12:31:38Z</time>
      </trkpt>
      <trkpt lat="47.78811" lon="-3.52509">
        <ele>11.31</ele>
        <time>2020-07-08T12:31:39Z</time>
      </trkpt>
      <trkpt lat="47.78811" lon="-3.52509">
        <ele>11.31</ele>
        <time>2020-07-08T12:31:40Z</time>
      </trkpt>
      <trkpt lat="47.78811" lon="-3.52509">
        <ele>11.31</ele>
        <time>2020-07-08T12:31:41Z</time>
      </trkpt>
      <trkpt lat="47.78811" lon="-3.52509">
        <ele>11.31</ele>
        <time>2020-07-08T12:31:42Z</time>
      </trkpt>
      <trkpt lat="47.78806" lon="-3.52522">
        <ele>10.78</ele>
        <time>2020-07-08T12:31:43Z</time>
      </trkpt>
      <trkpt lat="47.78805" lon="-3.52524">
        <ele>10.62</ele>
        <time>2020-07-08T12:31:44Z</time>
      </trkpt>
      <trkpt lat="47.78804" lon="-3.52526">
        <ele>10.59</ele>
        <time>2020-07-08T12:31:45Z</time>
      </trkpt>
      <trkpt lat="47.78802" lon="-3.52527">
        <ele>10.61</ele>
        <time>2020-07-08T12:31:46Z</time>
      </trkpt>
      <trkpt lat="47.78801" lon="-3.52527">
        <ele>10.67</ele>
        <time>2020-07-08T12:31:47Z</time>
      </trkpt>
      <trkpt lat="47.788" lon="-3.52527">
        <ele>10.77</ele>
        <time>2020-07-08T12:31:48Z</time>
      </trkpt>
      <trkpt lat="47.788" lon="-3.52528">
        <ele>10.85</ele>
        <time>2020-07-08T12:31:49Z</time>
      </trkpt>
      <trkpt lat="47.788" lon="-3.52528">
        <ele>10.88</ele>
        <time>2020-07-08T12:31:50Z</time>
      </trkpt>
      <trkpt lat="47.788" lon="-3.52528">
        <ele>10.88</ele>
        <time>2020-07-08T12:31:51Z</time>
      </trkpt>
      <trkpt lat="47.788" lon="-3.52528">
        <ele>10.88</ele>
        <time>2020-07-08T12:31:52Z</time>
      </trkpt>
      <trkpt lat="47.788" lon="-3.52528">
        <ele>10.89</ele>
        <time>2020-07-08T12:31:53Z</time>
      </trkpt>
      <trkpt lat="47.788" lon="-3.52528">
        <ele>10.89</ele>
        <time>2020-07-08T12:31:54Z</time>
      </trkpt>
      <trkpt lat="47.788" lon="-3.52528">
        <ele>10.89</ele>
        <time>2020-07-08T12:31:55Z</time>
      </trkpt>
      <trkpt lat="47.788" lon="-3.52528">
        <ele>10.89</ele>
        <time>2020-07-08T12:31:56Z</time>
      </trkpt>
      <trkpt lat="47.788" lon="-3.52528">
        <ele>10.89</ele>
        <time>2020-07-08T12:31:57Z</time>
      </trkpt>
      <trkpt lat="47.788" lon="-3.52528">
        <ele>10.89</ele>
        <time>2020-07-08T12:31:58Z</time>
      </trkpt>
      <trkpt lat="47.7879" lon="-3.52533">
        <ele>11.02</ele>
        <time>2020-07-08T12:31:59Z</time>
      </trkpt>
      <trkpt lat="47.78788" lon="-3.52533">
        <ele>11.21</ele>
        <time>2020-07-08T12:32:00Z</time>
      </trkpt>
      <trkpt lat="47.78787" lon="-3.52534">
        <ele>11.24</ele>
        <time>2020-07-08T12:32:01Z</time>
      </trkpt>
      <trkpt lat="47.78785" lon="-3.52535">
        <ele>11.2</ele>
        <time>2020-07-08T12:32:02Z</time>
      </trkpt>
      <trkpt lat="47.78784" lon="-3.52536">
        <ele>11.17</ele>
        <time>2020-07-08T12:32:03Z</time>
      </trkpt>
      <trkpt lat="47.78782" lon="-3.52537">
        <ele>11.19</ele>
        <time>2020-07-08T12:32:04Z</time>
      </trkpt>
      <trkpt lat="47.78778" lon="-3.52537">
        <ele>11.5</ele>
        <time>2020-07-08T12:32:05Z</time>
      </trkpt>
      <trkpt lat="47.78776" lon="-3.52538">
        <ele>11.63</ele>
        <time>2020-07-08T12:32:06Z</time>
      </trkpt>
      <trkpt lat="47.78773" lon="-3.5254">
        <ele>11.49</ele>
        <time>2020-07-08T12:32:07Z</time>
      </trkpt>
      <trkpt lat="47.78771" lon="-3.52543">
        <ele>11.1</ele>
        <time>2020-07-08T12:32:08Z</time>
      </trkpt>
      <trkpt lat="47.78767" lon="-3.52544">
        <ele>10.97</ele>
        <time>2020-07-08T12:32:09Z</time>
      </trkpt>
      <trkpt lat="47.78764" lon="-3.52544">
        <ele>11.04</ele>
        <time>2020-07-08T12:32:10Z</time>
      </trkpt>
      <trkpt lat="47.78763" lon="-3.52545">
        <ele>11.04</ele>
        <time>2020-07-08T12:32:11Z</time>
      </trkpt>
      <trkpt lat="47.7876" lon="-3.52545">
        <ele>11.24</ele>
        <time>2020-07-08T12:32:12Z</time>
      </trkpt>
      <trkpt lat="47.7876" lon="-3.52545">
        <ele>11.37</ele>
        <time>2020-07-08T12:32:13Z</time>
      </trkpt>
      <trkpt lat="47.78758" lon="-3.52545">
        <ele>11.41</ele>
        <time>2020-07-08T12:32:14Z</time>
      </trkpt>
      <trkpt lat="47.78757" lon="-3.52546">
        <ele>11.38</ele>
        <time>2020-07-08T12:32:15Z</time>
      </trkpt>
      <trkpt lat="47.78756" lon="-3.52546">
        <ele>11.48</ele>
        <time>2020-07-08T12:32:16Z</time>
      </trkpt>
      <trkpt lat="47.78755" lon="-3.52545">
        <ele>11.71</ele>
        <time>2020-07-08T12:32:17Z</time>
      </trkpt>
      <trkpt lat="47.78755" lon="-3.52544">
        <ele>11.88</ele>
        <time>2020-07-08T12:32:18Z</time>
      </trkpt>
      <trkpt lat="47.78755" lon="-3.52544">
        <ele>11.93</ele>
        <time>2020-07-08T12:32:19Z</time>
      </trkpt>
      <trkpt lat="47.78755" lon="-3.52544">
        <ele>11.95</ele>
        <time>2020-07-08T12:32:20Z</time>
      </trkpt>
      <trkpt lat="47.78755" lon="-3.52544">
        <ele>11.95</ele>
        <time>2020-07-08T12:32:21Z</time>
      </trkpt>
      <trkpt lat="47.78751" lon="-3.52547">
        <ele>11.71</ele>
        <time>2020-07-08T12:32:22Z</time>
      </trkpt>
      <trkpt lat="47.7875" lon="-3.52548">
        <ele>11.57</ele>
        <time>2020-07-08T12:32:23Z</time>
      </trkpt>
      <trkpt lat="47.78749" lon="-3.52551">
        <ele>11.08</ele>
        <time>2020-07-08T12:32:24Z</time>
      </trkpt>
      <trkpt lat="47.78747" lon="-3.52552">
        <ele>10.71</ele>
        <time>2020-07-08T12:32:25Z</time>
      </trkpt>
      <trkpt lat="47.78744" lon="-3.52552">
        <ele>10.46</ele>
        <time>2020-07-08T12:32:26Z</time>
      </trkpt>
      <trkpt lat="47.78741" lon="-3.52552">
        <ele>10.26</ele>
        <time>2020-07-08T12:32:27Z</time>
      </trkpt>
      <trkpt lat="47.78738" lon="-3.52553">
        <ele>9.9</ele>
        <time>2020-07-08T12:32:28Z</time>
      </trkpt>
      <trkpt lat="47.78734" lon="-3.52554">
        <ele>9.56</ele>
        <time>2020-07-08T12:32:29Z</time>
      </trkpt>
      <trkpt lat="47.78731" lon="-3.52555">
        <ele>9.1</ele>
        <time>2020-07-08T12:32:30Z</time>
      </trkpt>
      <trkpt lat="47.78728" lon="-3.52556">
        <ele>8.53</ele>
        <time>2020-07-08T12:32:31Z</time>
      </trkpt>
      <trkpt lat="47.78726" lon="-3.52556">
        <ele>8.32</ele>
        <time>2020-07-08T12:32:32Z</time>
      </trkpt>
      <trkpt lat="47.78724" lon="-3.52555">
        <ele>8.34</ele>
        <time>2020-07-08T12:32:33Z</time>
      </trkpt>
      <trkpt lat="47.78721" lon="-3.52554">
        <ele>8.37</ele>
        <time>2020-07-08T12:32:34Z</time>
      </trkpt>
      <trkpt lat="47.78719" lon="-3.52552">
        <ele>8.54</ele>
        <time>2020-07-08T12:32:35Z</time>
      </trkpt>
      <trkpt lat="47.78717" lon="-3.52551">
        <ele>8.75</ele>
        <time>2020-07-08T12:32:36Z</time>
      </trkpt>
      <trkpt lat="47.78716" lon="-3.52549">
        <ele>9.06</ele>
        <time>2020-07-08T12:32:37Z</time>
      </trkpt>
      <trkpt lat="47.78714" lon="-3.52548">
        <ele>9.27</ele>
        <time>2020-07-08T12:32:38Z</time>
      </trkpt>
      <trkpt lat="47.78714" lon="-3.52548">
        <ele>9.38</ele>
        <time>2020-07-08T12:32:39Z</time>
      </trkpt>
      <trkpt lat="47.78714" lon="-3.52547">
        <ele>9.44</ele>
        <time>2020-07-08T12:32:40Z</time>
      </trkpt>
      <trkpt lat="47.78714" lon="-3.52547">
        <ele>9.64</ele>
        <time>2020-07-08T12:32:41Z</time>
      </trkpt>
      <trkpt lat="47.78714" lon="-3.52547">
        <ele>9.69</ele>
        <time>2020-07-08T12:32:42Z</time>
      </trkpt>
      <trkpt lat="47.78714" lon="-3.52547">
        <ele>9.71</ele>
        <time>2020-07-08T12:32:43Z</time>
      </trkpt>
      <trkpt lat="47.78714" lon="-3.52547">
        <ele>9.72</ele>
        <time>2020-07-08T12:32:44Z</time>
      </trkpt>
      <trkpt lat="47.78714" lon="-3.52547">
        <ele>9.72</ele>
        <time>2020-07-08T12:32:45Z</time>
      </trkpt>
      <trkpt lat="47.78714" lon="-3.52547">
        <ele>9.72</ele>
        <time>2020-07-08T12:32:46Z</time>
      </trkpt>
      <trkpt lat="47.78714" lon="-3.52547">
        <ele>9.72</ele>
        <time>2020-07-08T12:32:47Z</time>
      </trkpt>
      <trkpt lat="47.78714" lon="-3.52547">
        <ele>9.72</ele>
        <time>2020-07-08T12:32:48Z</time>
      </trkpt>
      <trkpt lat="47.78714" lon="-3.52547">
        <ele>9.72</ele>
        <time>2020-07-08T12:32:49Z</time>
      </trkpt>
      <trkpt lat="47.78714" lon="-3.52547">
        <ele>9.72</ele>
        <time>2020-07-08T12:32:50Z</time>
      </trkpt>
      <trkpt lat="47.78714" lon="-3.52547">
        <ele>9.72</ele>
        <time>2020-07-08T12:32:51Z</time>
      </trkpt>
      <trkpt lat="47.78714" lon="-3.52547">
        <ele>9.72</ele>
        <time>2020-07-08T12:32:52Z</time>
      </trkpt>
      <trkpt lat="47.78714" lon="-3.52547">
        <ele>9.72</ele>
        <time>2020-07-08T12:32:53Z</time>
      </trkpt>
      <trkpt lat="47.78706" lon="-3.52539">
        <ele>10.81</ele>
        <time>2020-07-08T12:32:54Z</time>
      </trkpt>
      <trkpt lat="47.78702" lon="-3.52539">
        <ele>11.02</ele>
        <time>2020-07-08T12:32:55Z</time>
      </trkpt>
      <trkpt lat="47.78699" lon="-3.52538">
        <ele>11.13</ele>
        <time>2020-07-08T12:32:56Z</time>
      </trkpt>
      <trkpt lat="47.78698" lon="-3.52537">
        <ele>11.26</ele>
        <time>2020-07-08T12:32:57Z</time>
      </trkpt>
      <trkpt lat="47.78697" lon="-3.52537">
        <ele>11.32</ele>
        <time>2020-07-08T12:32:58Z</time>
      </trkpt>
      <trkpt lat="47.78697" lon="-3.52536">
        <ele>11.4</ele>
        <time>2020-07-08T12:32:59Z</time>
      </trkpt>
      <trkpt lat="47.78697" lon="-3.52536">
        <ele>11.42</ele>
        <time>2020-07-08T12:33:00Z</time>
      </trkpt>
      <trkpt lat="47.78697" lon="-3.52536">
        <ele>11.42</ele>
        <time>2020-07-08T12:33:01Z</time>
      </trkpt>
      <trkpt lat="47.78697" lon="-3.52536">
        <ele>11.43</ele>
        <time>2020-07-08T12:33:02Z</time>
      </trkpt>
      <trkpt lat="47.78697" lon="-3.52536">
        <ele>11.43</ele>
        <time>2020-07-08T12:33:03Z</time>
      </trkpt>
      <trkpt lat="47.78697" lon="-3.52536">
        <ele>11.43</ele>
        <time>2020-07-08T12:33:04Z</time>
      </trkpt>
      <trkpt lat="47.78692" lon="-3.52533">
        <ele>11.95</ele>
        <time>2020-07-08T12:33:05Z</time>
      </trkpt>
      <trkpt lat="47.78692" lon="-3.52532">
        <ele>12.29</ele>
        <time>2020-07-08T12:33:06Z</time>
      </trkpt>
      <trkpt lat="47.78691" lon="-3.52531">
        <ele>12.64</ele>
        <time>2020-07-08T12:33:07Z</time>
      </trkpt>
      <trkpt lat="47.78691" lon="-3.5253">
        <ele>13.04</ele>
        <time>2020-07-08T12:33:08Z</time>
      </trkpt>
      <trkpt lat="47.78691" lon="-3.52528">
        <ele>13.37</ele>
        <time>2020-07-08T12:33:09Z</time>
      </trkpt>
      <trkpt lat="47.78691" lon="-3.52528">
        <ele>13.47</ele>
        <time>2020-07-08T12:33:10Z</time>
      </trkpt>
      <trkpt lat="47.78691" lon="-3.52528">
        <ele>13.5</ele>
        <time>2020-07-08T12:33:11Z</time>
      </trkpt>
      <trkpt lat="47.78691" lon="-3.52528">
        <ele>13.51</ele>
        <time>2020-07-08T12:33:12Z</time>
      </trkpt>
      <trkpt lat="47.78691" lon="-3.52528">
        <ele>13.52</ele>
        <time>2020-07-08T12:33:13Z</time>
      </trkpt>
      <trkpt lat="47.78691" lon="-3.52528">
        <ele>13.52</ele>
        <time>2020-07-08T12:33:14Z</time>
      </trkpt>
      <trkpt lat="47.78691" lon="-3.52528">
        <ele>13.52</ele>
        <time>2020-07-08T12:33:15Z</time>
      </trkpt>
      <trkpt lat="47.78691" lon="-3.52528">
        <ele>13.52</ele>
        <time>2020-07-08T12:33:16Z</time>
      </trkpt>
      <trkpt lat="47.78691" lon="-3.52528">
        <ele>13.52</ele>
        <time>2020-07-08T12:33:17Z</time>
      </trkpt>
      <trkpt lat="47.78691" lon="-3.52528">
        <ele>13.52</ele>
        <time>2020-07-08T12:33:18Z</time>
      </trkpt>
      <trkpt lat="47.78691" lon="-3.52528">
        <ele>13.52</ele>
        <time>2020-07-08T12:33:19Z</time>
      </trkpt>
      <trkpt lat="47.78691" lon="-3.52528">
        <ele>13.52</ele>
        <time>2020-07-08T12:33:20Z</time>
      </trkpt>
      <trkpt lat="47.78691" lon="-3.52528">
        <ele>13.52</ele>
        <time>2020-07-08T12:33:21Z</time>
      </trkpt>
      <trkpt lat="47.78691" lon="-3.52528">
        <ele>13.52</ele>
        <time>2020-07-08T12:33:22Z</time>
      </trkpt>
      <trkpt lat="47.78691" lon="-3.52528">
        <ele>13.52</ele>
        <time>2020-07-08T12:33:23Z</time>
      </trkpt>
      <trkpt lat="47.78691" lon="-3.52528">
        <ele>13.52</ele>
        <time>2020-07-08T12:33:24Z</time>
      </trkpt>
      <trkpt lat="47.78691" lon="-3.52528">
        <ele>13.52</ele>
        <time>2020-07-08T12:33:25Z</time>
      </trkpt>
      <trkpt lat="47.78691" lon="-3.52528">
        <ele>13.52</ele>
        <time>2020-07-08T12:33:26Z</time>
      </trkpt>
      <trkpt lat="47.78691" lon="-3.52528">
        <ele>13.52</ele>
        <time>2020-07-08T12:33:27Z</time>
      </trkpt>
      <trkpt lat="47.78691" lon="-3.52528">
        <ele>13.52</ele>
        <time>2020-07-08T12:33:28Z</time>
      </trkpt>
      <trkpt lat="47.78685" lon="-3.52522">
        <ele>14.35</ele>
        <time>2020-07-08T12:33:29Z</time>
      </trkpt>
      <trkpt lat="47.78683" lon="-3.52521">
        <ele>14.73</ele>
        <time>2020-07-08T12:33:30Z</time>
      </trkpt>
      <trkpt lat="47.78681" lon="-3.5252">
        <ele>14.98</ele>
        <time>2020-07-08T12:33:31Z</time>
      </trkpt>
      <trkpt lat="47.78679" lon="-3.52519">
        <ele>15.11</ele>
        <time>2020-07-08T12:33:32Z</time>
      </trkpt>
      <trkpt lat="47.78677" lon="-3.52519">
        <ele>15.07</ele>
        <time>2020-07-08T12:33:33Z</time>
      </trkpt>
      <trkpt lat="47.78675" lon="-3.52519">
        <ele>14.91</ele>
        <time>2020-07-08T12:33:34Z</time>
      </trkpt>
      <trkpt lat="47.78672" lon="-3.5252">
        <ele>14.61</ele>
        <time>2020-07-08T12:33:35Z</time>
      </trkpt>
      <trkpt lat="47.7867" lon="-3.52521">
        <ele>14.18</ele>
        <time>2020-07-08T12:33:36Z</time>
      </trkpt>
      <trkpt lat="47.78667" lon="-3.52522">
        <ele>13.78</ele>
        <time>2020-07-08T12:33:37Z</time>
      </trkpt>
      <trkpt lat="47.78665" lon="-3.52522">
        <ele>13.74</ele>
        <time>2020-07-08T12:33:38Z</time>
      </trkpt>
      <trkpt lat="47.78662" lon="-3.52521">
        <ele>14.16</ele>
        <time>2020-07-08T12:33:39Z</time>
      </trkpt>
      <trkpt lat="47.7866" lon="-3.5252">
        <ele>14.7</ele>
        <time>2020-07-08T12:33:40Z</time>
      </trkpt>
      <trkpt lat="47.78658" lon="-3.52518">
        <ele>15.37</ele>
        <time>2020-07-08T12:33:41Z</time>
      </trkpt>
      <trkpt lat="47.78656" lon="-3.52517">
        <ele>15.9</ele>
        <time>2020-07-08T12:33:42Z</time>
      </trkpt>
      <trkpt lat="47.78654" lon="-3.52517">
        <ele>16.25</ele>
        <time>2020-07-08T12:33:43Z</time>
      </trkpt>
      <trkpt lat="47.78652" lon="-3.52517">
        <ele>16.54</ele>
        <time>2020-07-08T12:33:44Z</time>
      </trkpt>
      <trkpt lat="47.78649" lon="-3.52518">
        <ele>16.63</ele>
        <time>2020-07-08T12:33:45Z</time>
      </trkpt>
      <trkpt lat="47.78646" lon="-3.52519">
        <ele>16.56</ele>
        <time>2020-07-08T12:33:46Z</time>
      </trkpt>
      <trkpt lat="47.78644" lon="-3.5252">
        <ele>16.53</ele>
        <time>2020-07-08T12:33:47Z</time>
      </trkpt>
      <trkpt lat="47.78643" lon="-3.5252">
        <ele>16.51</ele>
        <time>2020-07-08T12:33:48Z</time>
      </trkpt>
      <trkpt lat="47.78643" lon="-3.5252">
        <ele>16.47</ele>
        <time>2020-07-08T12:33:49Z</time>
      </trkpt>
      <trkpt lat="47.78643" lon="-3.52521">
        <ele>16.41</ele>
        <time>2020-07-08T12:33:50Z</time>
      </trkpt>
      <trkpt lat="47.78643" lon="-3.52521">
        <ele>16.38</ele>
        <time>2020-07-08T12:33:51Z</time>
      </trkpt>
      <trkpt lat="47.78643" lon="-3.52521">
        <ele>16.38</ele>
        <time>2020-07-08T12:33:52Z</time>
      </trkpt>
      <trkpt lat="47.78643" lon="-3.52521">
        <ele>16.38</ele>
        <time>2020-07-08T12:33:53Z</time>
      </trkpt>
      <trkpt lat="47.78643" lon="-3.52521">
        <ele>16.38</ele>
        <time>2020-07-08T12:33:54Z</time>
      </trkpt>
      <trkpt lat="47.78643" lon="-3.52521">
        <ele>16.38</ele>
        <time>2020-07-08T12:33:55Z</time>
      </trkpt>
      <trkpt lat="47.78643" lon="-3.52521">
        <ele>16.38</ele>
        <time>2020-07-08T12:33:56Z</time>
      </trkpt>
      <trkpt lat="47.78643" lon="-3.52521">
        <ele>16.38</ele>
        <time>2020-07-08T12:33:57Z</time>
      </trkpt>
      <trkpt lat="47.78643" lon="-3.52521">
        <ele>16.38</ele>
        <time>2020-07-08T12:33:58Z</time>
      </trkpt>
      <trkpt lat="47.78643" lon="-3.52521">
        <ele>16.38</ele>
        <time>2020-07-08T12:33:59Z</time>
      </trkpt>
      <trkpt lat="47.78634" lon="-3.52528">
        <ele>15.58</ele>
        <time>2020-07-08T12:34:00Z</time>
      </trkpt>
      <trkpt lat="47.78634" lon="-3.52528">
        <ele>15.33</ele>
        <time>2020-07-08T12:34:01Z</time>
      </trkpt>
      <trkpt lat="47.78633" lon="-3.52528">
        <ele>15.19</ele>
        <time>2020-07-08T12:34:02Z</time>
      </trkpt>
      <trkpt lat="47.78632" lon="-3.52528">
        <ele>15.13</ele>
        <time>2020-07-08T12:34:03Z</time>
      </trkpt>
      <trkpt lat="47.78632" lon="-3.52528">
        <ele>15.11</ele>
        <time>2020-07-08T12:34:04Z</time>
      </trkpt>
      <trkpt lat="47.78632" lon="-3.52528">
        <ele>15.11</ele>
        <time>2020-07-08T12:34:05Z</time>
      </trkpt>
      <trkpt lat="47.78632" lon="-3.52528">
        <ele>15.1</ele>
        <time>2020-07-08T12:34:06Z</time>
      </trkpt>
      <trkpt lat="47.78632" lon="-3.52528">
        <ele>15.1</ele>
        <time>2020-07-08T12:34:07Z</time>
      </trkpt>
      <trkpt lat="47.78623" lon="-3.52531">
        <ele>14.56</ele>
        <time>2020-07-08T12:34:08Z</time>
      </trkpt>
      <trkpt lat="47.7862" lon="-3.52531">
        <ele>14.42</ele>
        <time>2020-07-08T12:34:09Z</time>
      </trkpt>
      <trkpt lat="47.78616" lon="-3.5253">
        <ele>14.84</ele>
        <time>2020-07-08T12:34:10Z</time>
      </trkpt>
      <trkpt lat="47.78613" lon="-3.52528">
        <ele>15.5</ele>
        <time>2020-07-08T12:34:11Z</time>
      </trkpt>
      <trkpt lat="47.7861" lon="-3.52528">
        <ele>15.89</ele>
        <time>2020-07-08T12:34:12Z</time>
      </trkpt>
      <trkpt lat="47.78608" lon="-3.52528">
        <ele>15.91</ele>
        <time>2020-07-08T12:34:13Z</time>
      </trkpt>
      <trkpt lat="47.78606" lon="-3.52528">
        <ele>15.73</ele>
        <time>2020-07-08T12:34:14Z</time>
      </trkpt>
      <trkpt lat="47.78603" lon="-3.52529">
        <ele>15.41</ele>
        <time>2020-07-08T12:34:15Z</time>
      </trkpt>
      <trkpt lat="47.786" lon="-3.52529">
        <ele>15.09</ele>
        <time>2020-07-08T12:34:16Z</time>
      </trkpt>
      <trkpt lat="47.78598" lon="-3.5253">
        <ele>14.8</ele>
        <time>2020-07-08T12:34:17Z</time>
      </trkpt>
      <trkpt lat="47.78597" lon="-3.5253">
        <ele>14.59</ele>
        <time>2020-07-08T12:34:18Z</time>
      </trkpt>
      <trkpt lat="47.78597" lon="-3.5253">
        <ele>14.54</ele>
        <time>2020-07-08T12:34:19Z</time>
      </trkpt>
      <trkpt lat="47.78597" lon="-3.5253">
        <ele>14.52</ele>
        <time>2020-07-08T12:34:20Z</time>
      </trkpt>
      <trkpt lat="47.78597" lon="-3.5253">
        <ele>14.51</ele>
        <time>2020-07-08T12:34:21Z</time>
      </trkpt>
      <trkpt lat="47.78597" lon="-3.5253">
        <ele>14.51</ele>
        <time>2020-07-08T12:34:22Z</time>
      </trkpt>
      <trkpt lat="47.78597" lon="-3.5253">
        <ele>14.51</ele>
        <time>2020-07-08T12:34:23Z</time>
      </trkpt>
      <trkpt lat="47.78597" lon="-3.5253">
        <ele>14.51</ele>
        <time>2020-07-08T12:34:24Z</time>
      </trkpt>
      <trkpt lat="47.78597" lon="-3.5253">
        <ele>14.51</ele>
        <time>2020-07-08T12:34:25Z</time>
      </trkpt>
      <trkpt lat="47.78597" lon="-3.5253">
        <ele>14.51</ele>
        <time>2020-07-08T12:34:26Z</time>
      </trkpt>
      <trkpt lat="47.78597" lon="-3.5253">
        <ele>14.51</ele>
        <time>2020-07-08T12:34:27Z</time>
      </trkpt>
      <trkpt lat="47.78597" lon="-3.5253">
        <ele>14.51</ele>
        <time>2020-07-08T12:34:28Z</time>
      </trkpt>
      <trkpt lat="47.78597" lon="-3.5253">
        <ele>14.51</ele>
        <time>2020-07-08T12:34:29Z</time>
      </trkpt>
      <trkpt lat="47.78597" lon="-3.5253">
        <ele>14.51</ele>
        <time>2020-07-08T12:34:30Z</time>
      </trkpt>
      <trkpt lat="47.78597" lon="-3.5253">
        <ele>14.51</ele>
        <time>2020-07-08T12:34:31Z</time>
      </trkpt>
      <trkpt lat="47.78597" lon="-3.5253">
        <ele>14.51</ele>
        <time>2020-07-08T12:34:32Z</time>
      </trkpt>
      <trkpt lat="47.78597" lon="-3.5253">
        <ele>14.51</ele>
        <time>2020-07-08T12:34:33Z</time>
      </trkpt>
      <trkpt lat="47.78597" lon="-3.5253">
        <ele>14.51</ele>
        <time>2020-07-08T12:34:34Z</time>
      </trkpt>
      <trkpt lat="47.78597" lon="-3.5253">
        <ele>14.51</ele>
        <time>2020-07-08T12:34:35Z</time>
      </trkpt>
      <trkpt lat="47.78588" lon="-3.52535">
        <ele>12.87</ele>
        <time>2020-07-08T12:34:36Z</time>
      </trkpt>
      <trkpt lat="47.78587" lon="-3.52535">
        <ele>12.16</ele>
        <time>2020-07-08T12:34:37Z</time>
      </trkpt>
      <trkpt lat="47.78586" lon="-3.52535">
        <ele>11.95</ele>
        <time>2020-07-08T12:34:38Z</time>
      </trkpt>
      <trkpt lat="47.78585" lon="-3.52535">
        <ele>11.9</ele>
        <time>2020-07-08T12:34:39Z</time>
      </trkpt>
      <trkpt lat="47.78584" lon="-3.52535">
        <ele>11.91</ele>
        <time>2020-07-08T12:34:40Z</time>
      </trkpt>
      <trkpt lat="47.78583" lon="-3.52535">
        <ele>11.84</ele>
        <time>2020-07-08T12:34:41Z</time>
      </trkpt>
      <trkpt lat="47.78582" lon="-3.52535">
        <ele>11.81</ele>
        <time>2020-07-08T12:34:42Z</time>
      </trkpt>
      <trkpt lat="47.78582" lon="-3.52535">
        <ele>11.8</ele>
        <time>2020-07-08T12:34:43Z</time>
      </trkpt>
      <trkpt lat="47.7858" lon="-3.52534">
        <ele>12.24</ele>
        <time>2020-07-08T12:34:44Z</time>
      </trkpt>
      <trkpt lat="47.78579" lon="-3.52533">
        <ele>12.63</ele>
        <time>2020-07-08T12:34:45Z</time>
      </trkpt>
      <trkpt lat="47.78579" lon="-3.52532">
        <ele>12.89</ele>
        <time>2020-07-08T12:34:46Z</time>
      </trkpt>
      <trkpt lat="47.78578" lon="-3.52532">
        <ele>13.07</ele>
        <time>2020-07-08T12:34:47Z</time>
      </trkpt>
      <trkpt lat="47.78578" lon="-3.52532">
        <ele>13.12</ele>
        <time>2020-07-08T12:34:48Z</time>
      </trkpt>
      <trkpt lat="47.78578" lon="-3.52532">
        <ele>13.14</ele>
        <time>2020-07-08T12:34:49Z</time>
      </trkpt>
      <trkpt lat="47.78578" lon="-3.52532">
        <ele>13.15</ele>
        <time>2020-07-08T12:34:50Z</time>
      </trkpt>
      <trkpt lat="47.78578" lon="-3.52532">
        <ele>13.15</ele>
        <time>2020-07-08T12:34:51Z</time>
      </trkpt>
      <trkpt lat="47.78578" lon="-3.52532">
        <ele>13.15</ele>
        <time>2020-07-08T12:34:52Z</time>
      </trkpt>
      <trkpt lat="47.78578" lon="-3.52532">
        <ele>13.15</ele>
        <time>2020-07-08T12:34:53Z</time>
      </trkpt>
      <trkpt lat="47.78578" lon="-3.52532">
        <ele>13.15</ele>
        <time>2020-07-08T12:34:54Z</time>
      </trkpt>
      <trkpt lat="47.78578" lon="-3.52532">
        <ele>13.15</ele>
        <time>2020-07-08T12:34:55Z</time>
      </trkpt>
      <trkpt lat="47.78578" lon="-3.52532">
        <ele>13.15</ele>
        <time>2020-07-08T12:34:56Z</time>
      </trkpt>
      <trkpt lat="47.78578" lon="-3.52532">
        <ele>13.15</ele>
        <time>2020-07-08T12:34:57Z</time>
      </trkpt>
      <trkpt lat="47.78578" lon="-3.52532">
        <ele>13.15</ele>
        <time>2020-07-08T12:34:58Z</time>
      </trkpt>
      <trkpt lat="47.78578" lon="-3.52532">
        <ele>13.15</ele>
        <time>2020-07-08T12:34:59Z</time>
      </trkpt>
      <trkpt lat="47.78578" lon="-3.52532">
        <ele>13.15</ele>
        <time>2020-07-08T12:35:00Z</time>
      </trkpt>
      <trkpt lat="47.78578" lon="-3.52532">
        <ele>13.15</ele>
        <time>2020-07-08T12:35:01Z</time>
      </trkpt>
      <trkpt lat="47.78569" lon="-3.52527">
        <ele>14.62</ele>
        <time>2020-07-08T12:35:02Z</time>
      </trkpt>
      <trkpt lat="47.78568" lon="-3.52527">
        <ele>15.02</ele>
        <time>2020-07-08T12:35:03Z</time>
      </trkpt>
      <trkpt lat="47.78567" lon="-3.52526">
        <ele>15.33</ele>
        <time>2020-07-08T12:35:04Z</time>
      </trkpt>
      <trkpt lat="47.78566" lon="-3.52525">
        <ele>15.6</ele>
        <time>2020-07-08T12:35:05Z</time>
      </trkpt>
      <trkpt lat="47.78565" lon="-3.52525">
        <ele>15.79</ele>
        <time>2020-07-08T12:35:06Z</time>
      </trkpt>
      <trkpt lat="47.78564" lon="-3.52524">
        <ele>15.98</ele>
        <time>2020-07-08T12:35:07Z</time>
      </trkpt>
      <trkpt lat="47.78562" lon="-3.52524">
        <ele>16.07</ele>
        <time>2020-07-08T12:35:08Z</time>
      </trkpt>
      <trkpt lat="47.7856" lon="-3.52524">
        <ele>16.01</ele>
        <time>2020-07-08T12:35:09Z</time>
      </trkpt>
      <trkpt lat="47.78558" lon="-3.52525">
        <ele>15.87</ele>
        <time>2020-07-08T12:35:10Z</time>
      </trkpt>
      <trkpt lat="47.78556" lon="-3.52526">
        <ele>15.59</ele>
        <time>2020-07-08T12:35:11Z</time>
      </trkpt>
      <trkpt lat="47.78554" lon="-3.52527">
        <ele>14.99</ele>
        <time>2020-07-08T12:35:12Z</time>
      </trkpt>
      <trkpt lat="47.78551" lon="-3.52529">
        <ele>13.98</ele>
        <time>2020-07-08T12:35:13Z</time>
      </trkpt>
      <trkpt lat="47.78549" lon="-3.52529">
        <ele>13.14</ele>
        <time>2020-07-08T12:35:14Z</time>
      </trkpt>
      <trkpt lat="47.78547" lon="-3.52529">
        <ele>12.51</ele>
        <time>2020-07-08T12:35:15Z</time>
      </trkpt>
      <trkpt lat="47.78545" lon="-3.5253">
        <ele>11.86</ele>
        <time>2020-07-08T12:35:16Z</time>
      </trkpt>
      <trkpt lat="47.78545" lon="-3.5253">
        <ele>11.48</ele>
        <time>2020-07-08T12:35:17Z</time>
      </trkpt>
      <trkpt lat="47.78545" lon="-3.5253">
        <ele>11.34</ele>
        <time>2020-07-08T12:35:18Z</time>
      </trkpt>
      <trkpt lat="47.78545" lon="-3.5253">
        <ele>11.29</ele>
        <time>2020-07-08T12:35:19Z</time>
      </trkpt>
      <trkpt lat="47.78545" lon="-3.5253">
        <ele>11.28</ele>
        <time>2020-07-08T12:35:20Z</time>
      </trkpt>
      <trkpt lat="47.78545" lon="-3.5253">
        <ele>11.28</ele>
        <time>2020-07-08T12:35:21Z</time>
      </trkpt>
      <trkpt lat="47.78545" lon="-3.5253">
        <ele>11.28</ele>
        <time>2020-07-08T12:35:22Z</time>
      </trkpt>
      <trkpt lat="47.78545" lon="-3.5253">
        <ele>11.28</ele>
        <time>2020-07-08T12:35:23Z</time>
      </trkpt>
      <trkpt lat="47.78545" lon="-3.5253">
        <ele>11.28</ele>
        <time>2020-07-08T12:35:24Z</time>
      </trkpt>
      <trkpt lat="47.78545" lon="-3.5253">
        <ele>11.28</ele>
        <time>2020-07-08T12:35:25Z</time>
      </trkpt>
      <trkpt lat="47.78545" lon="-3.5253">
        <ele>11.28</ele>
        <time>2020-07-08T12:35:26Z</time>
      </trkpt>
      <trkpt lat="47.78545" lon="-3.5253">
        <ele>11.28</ele>
        <time>2020-07-08T12:35:27Z</time>
      </trkpt>
      <trkpt lat="47.78545" lon="-3.5253">
        <ele>11.28</ele>
        <time>2020-07-08T12:35:28Z</time>
      </trkpt>
      <trkpt lat="47.78545" lon="-3.5253">
        <ele>11.28</ele>
        <time>2020-07-08T12:35:29Z</time>
      </trkpt>
      <trkpt lat="47.78545" lon="-3.5253">
        <ele>11.28</ele>
        <time>2020-07-08T12:35:30Z</time>
      </trkpt>
      <trkpt lat="47.78536" lon="-3.52531">
        <ele>9.68</ele>
        <time>2020-07-08T12:35:31Z</time>
      </trkpt>
      <trkpt lat="47.78534" lon="-3.52531">
        <ele>9.06</ele>
        <time>2020-07-08T12:35:32Z</time>
      </trkpt>
      <trkpt lat="47.78533" lon="-3.5253">
        <ele>8.8</ele>
        <time>2020-07-08T12:35:33Z</time>
      </trkpt>
      <trkpt lat="47.78532" lon="-3.5253">
        <ele>8.61</ele>
        <time>2020-07-08T12:35:34Z</time>
      </trkpt>
      <trkpt lat="47.78532" lon="-3.5253">
        <ele>8.56</ele>
        <time>2020-07-08T12:35:35Z</time>
      </trkpt>
      <trkpt lat="47.78532" lon="-3.5253">
        <ele>8.54</ele>
        <time>2020-07-08T12:35:36Z</time>
      </trkpt>
      <trkpt lat="47.78532" lon="-3.5253">
        <ele>8.54</ele>
        <time>2020-07-08T12:35:37Z</time>
      </trkpt>
      <trkpt lat="47.78532" lon="-3.5253">
        <ele>8.53</ele>
        <time>2020-07-08T12:35:38Z</time>
      </trkpt>
      <trkpt lat="47.78532" lon="-3.5253">
        <ele>8.53</ele>
        <time>2020-07-08T12:35:39Z</time>
      </trkpt>
      <trkpt lat="47.78532" lon="-3.5253">
        <ele>8.53</ele>
        <time>2020-07-08T12:35:40Z</time>
      </trkpt>
      <trkpt lat="47.78532" lon="-3.5253">
        <ele>8.53</ele>
        <time>2020-07-08T12:35:41Z</time>
      </trkpt>
      <trkpt lat="47.78532" lon="-3.5253">
        <ele>8.53</ele>
        <time>2020-07-08T12:35:42Z</time>
      </trkpt>
      <trkpt lat="47.78532" lon="-3.5253">
        <ele>8.53</ele>
        <time>2020-07-08T12:35:43Z</time>
      </trkpt>
      <trkpt lat="47.78532" lon="-3.5253">
        <ele>8.53</ele>
        <time>2020-07-08T12:35:44Z</time>
      </trkpt>
      <trkpt lat="47.78532" lon="-3.5253">
        <ele>8.53</ele>
        <time>2020-07-08T12:35:45Z</time>
      </trkpt>
      <trkpt lat="47.78532" lon="-3.5253">
        <ele>8.53</ele>
        <time>2020-07-08T12:35:46Z</time>
      </trkpt>
      <trkpt lat="47.78532" lon="-3.5253">
        <ele>8.53</ele>
        <time>2020-07-08T12:35:47Z</time>
      </trkpt>
      <trkpt lat="47.78532" lon="-3.5253">
        <ele>8.53</ele>
        <time>2020-07-08T12:35:48Z</time>
      </trkpt>
      <trkpt lat="47.78532" lon="-3.5253">
        <ele>8.53</ele>
        <time>2020-07-08T12:35:49Z</time>
      </trkpt>
      <trkpt lat="47.78525" lon="-3.52517">
        <ele>10.13</ele>
        <time>2020-07-08T12:35:50Z</time>
      </trkpt>
      <trkpt lat="47.78525" lon="-3.52516">
        <ele>10.77</ele>
        <time>2020-07-08T12:35:51Z</time>
      </trkpt>
      <trkpt lat="47.78524" lon="-3.52516">
        <ele>10.98</ele>
        <time>2020-07-08T12:35:52Z</time>
      </trkpt>
      <trkpt lat="47.78524" lon="-3.52515">
        <ele>11.05</ele>
        <time>2020-07-08T12:35:53Z</time>
      </trkpt>
      <trkpt lat="47.78524" lon="-3.52515">
        <ele>11.07</ele>
        <time>2020-07-08T12:35:54Z</time>
      </trkpt>
      <trkpt lat="47.78524" lon="-3.52515">
        <ele>11.08</ele>
        <time>2020-07-08T12:35:55Z</time>
      </trkpt>
      <trkpt lat="47.78524" lon="-3.52515">
        <ele>11.08</ele>
        <time>2020-07-08T12:35:56Z</time>
      </trkpt>
      <trkpt lat="47.78524" lon="-3.52515">
        <ele>11.08</ele>
        <time>2020-07-08T12:35:57Z</time>
      </trkpt>
      <trkpt lat="47.78524" lon="-3.52515">
        <ele>11.08</ele>
        <time>2020-07-08T12:35:58Z</time>
      </trkpt>
      <trkpt lat="47.78524" lon="-3.52515">
        <ele>11.08</ele>
        <time>2020-07-08T12:35:59Z</time>
      </trkpt>
      <trkpt lat="47.78524" lon="-3.52515">
        <ele>11.08</ele>
        <time>2020-07-08T12:36:00Z</time>
      </trkpt>
      <trkpt lat="47.78521" lon="-3.52514">
        <ele>10.83</ele>
        <time>2020-07-08T12:36:01Z</time>
      </trkpt>
      <trkpt lat="47.78519" lon="-3.52512">
        <ele>10.85</ele>
        <time>2020-07-08T12:36:02Z</time>
      </trkpt>
      <trkpt lat="47.78516" lon="-3.52508">
        <ele>11.07</ele>
        <time>2020-07-08T12:36:03Z</time>
      </trkpt>
      <trkpt lat="47.78514" lon="-3.52504">
        <ele>11.51</ele>
        <time>2020-07-08T12:36:04Z</time>
      </trkpt>
      <trkpt lat="47.78511" lon="-3.525">
        <ele>12.04</ele>
        <time>2020-07-08T12:36:05Z</time>
      </trkpt>
      <trkpt lat="47.7851" lon="-3.52496">
        <ele>12.5</ele>
        <time>2020-07-08T12:36:06Z</time>
      </trkpt>
      <trkpt lat="47.78508" lon="-3.52493">
        <ele>12.71</ele>
        <time>2020-07-08T12:36:07Z</time>
      </trkpt>
      <trkpt lat="47.78507" lon="-3.52489">
        <ele>12.84</ele>
        <time>2020-07-08T12:36:08Z</time>
      </trkpt>
      <trkpt lat="47.78504" lon="-3.52486">
        <ele>12.79</ele>
        <time>2020-07-08T12:36:09Z</time>
      </trkpt>
      <trkpt lat="47.78501" lon="-3.52482">
        <ele>12.69</ele>
        <time>2020-07-08T12:36:10Z</time>
      </trkpt>
      <trkpt lat="47.785" lon="-3.52479">
        <ele>12.78</ele>
        <time>2020-07-08T12:36:11Z</time>
      </trkpt>
      <trkpt lat="47.78498" lon="-3.52476">
        <ele>13.19</ele>
        <time>2020-07-08T12:36:12Z</time>
      </trkpt>
      <trkpt lat="47.78496" lon="-3.52472">
        <ele>13.81</ele>
        <time>2020-07-08T12:36:13Z</time>
      </trkpt>
      <trkpt lat="47.78492" lon="-3.5247">
        <ele>14.15</ele>
        <time>2020-07-08T12:36:14Z</time>
      </trkpt>
      <trkpt lat="47.7849" lon="-3.52468">
        <ele>14.33</ele>
        <time>2020-07-08T12:36:15Z</time>
      </trkpt>
      <trkpt lat="47.78488" lon="-3.52467">
        <ele>14.45</ele>
        <time>2020-07-08T12:36:16Z</time>
      </trkpt>
      <trkpt lat="47.78487" lon="-3.52466">
        <ele>14.53</ele>
        <time>2020-07-08T12:36:17Z</time>
      </trkpt>
      <trkpt lat="47.78487" lon="-3.52466">
        <ele>14.56</ele>
        <time>2020-07-08T12:36:18Z</time>
      </trkpt>
      <trkpt lat="47.78488" lon="-3.52466">
        <ele>14.57</ele>
        <time>2020-07-08T12:36:19Z</time>
      </trkpt>
      <trkpt lat="47.78487" lon="-3.52466">
        <ele>14.55</ele>
        <time>2020-07-08T12:36:20Z</time>
      </trkpt>
      <trkpt lat="47.78487" lon="-3.52466">
        <ele>14.54</ele>
        <time>2020-07-08T12:36:21Z</time>
      </trkpt>
      <trkpt lat="47.78487" lon="-3.52466">
        <ele>14.54</ele>
        <time>2020-07-08T12:36:22Z</time>
      </trkpt>
      <trkpt lat="47.78487" lon="-3.52466">
        <ele>14.54</ele>
        <time>2020-07-08T12:36:23Z</time>
      </trkpt>
      <trkpt lat="47.78487" lon="-3.52466">
        <ele>14.54</ele>
        <time>2020-07-08T12:36:24Z</time>
      </trkpt>
      <trkpt lat="47.78487" lon="-3.52466">
        <ele>14.54</ele>
        <time>2020-07-08T12:36:25Z</time>
      </trkpt>
      <trkpt lat="47.78487" lon="-3.52466">
        <ele>14.54</ele>
        <time>2020-07-08T12:36:26Z</time>
      </trkpt>
      <trkpt lat="47.78487" lon="-3.52466">
        <ele>14.54</ele>
        <time>2020-07-08T12:36:27Z</time>
      </trkpt>
      <trkpt lat="47.78487" lon="-3.52466">
        <ele>14.54</ele>
        <time>2020-07-08T12:36:28Z</time>
      </trkpt>
      <trkpt lat="47.78487" lon="-3.52466">
        <ele>14.54</ele>
        <time>2020-07-08T12:36:29Z</time>
      </trkpt>
      <trkpt lat="47.78487" lon="-3.52466">
        <ele>14.54</ele>
        <time>2020-07-08T12:36:30Z</time>
      </trkpt>
      <trkpt lat="47.78487" lon="-3.52466">
        <ele>14.54</ele>
        <time>2020-07-08T12:36:31Z</time>
      </trkpt>
      <trkpt lat="47.7848" lon="-3.52457">
        <ele>14.87</ele>
        <time>2020-07-08T12:36:32Z</time>
      </trkpt>
      <trkpt lat="47.78481" lon="-3.52457">
        <ele>15.01</ele>
        <time>2020-07-08T12:36:33Z</time>
      </trkpt>
      <trkpt lat="47.7848" lon="-3.52456">
        <ele>15.03</ele>
        <time>2020-07-08T12:36:34Z</time>
      </trkpt>
      <trkpt lat="47.78481" lon="-3.52456">
        <ele>15.07</ele>
        <time>2020-07-08T12:36:35Z</time>
      </trkpt>
      <trkpt lat="47.78481" lon="-3.52456">
        <ele>15.09</ele>
        <time>2020-07-08T12:36:36Z</time>
      </trkpt>
      <trkpt lat="47.78481" lon="-3.52456">
        <ele>15.1</ele>
        <time>2020-07-08T12:36:37Z</time>
      </trkpt>
      <trkpt lat="47.78481" lon="-3.52456">
        <ele>15.1</ele>
        <time>2020-07-08T12:36:38Z</time>
      </trkpt>
      <trkpt lat="47.78481" lon="-3.52456">
        <ele>15.1</ele>
        <time>2020-07-08T12:36:39Z</time>
      </trkpt>
      <trkpt lat="47.78481" lon="-3.52456">
        <ele>15.1</ele>
        <time>2020-07-08T12:36:40Z</time>
      </trkpt>
      <trkpt lat="47.78481" lon="-3.52456">
        <ele>15.1</ele>
        <time>2020-07-08T12:36:41Z</time>
      </trkpt>
      <trkpt lat="47.78481" lon="-3.52456">
        <ele>15.1</ele>
        <time>2020-07-08T12:36:42Z</time>
      </trkpt>
      <trkpt lat="47.78481" lon="-3.52456">
        <ele>15.1</ele>
        <time>2020-07-08T12:36:43Z</time>
      </trkpt>
      <trkpt lat="47.78481" lon="-3.52456">
        <ele>15.1</ele>
        <time>2020-07-08T12:36:44Z</time>
      </trkpt>
      <trkpt lat="47.78481" lon="-3.52456">
        <ele>15.1</ele>
        <time>2020-07-08T12:36:45Z</time>
      </trkpt>
      <trkpt lat="47.78481" lon="-3.52456">
        <ele>15.1</ele>
        <time>2020-07-08T12:36:46Z</time>
      </trkpt>
      <trkpt lat="47.78477" lon="-3.52447">
        <ele>15.31</ele>
        <time>2020-07-08T12:36:47Z</time>
      </trkpt>
      <trkpt lat="47.78477" lon="-3.52445">
        <ele>15.41</ele>
        <time>2020-07-08T12:36:48Z</time>
      </trkpt>
      <trkpt lat="47.78475" lon="-3.52443">
        <ele>15.44</ele>
        <time>2020-07-08T12:36:49Z</time>
      </trkpt>
      <trkpt lat="47.78474" lon="-3.52442">
        <ele>15.4</ele>
        <time>2020-07-08T12:36:50Z</time>
      </trkpt>
      <trkpt lat="47.78474" lon="-3.52442">
        <ele>15.35</ele>
        <time>2020-07-08T12:36:51Z</time>
      </trkpt>
      <trkpt lat="47.78473" lon="-3.52442">
        <ele>15.3</ele>
        <time>2020-07-08T12:36:52Z</time>
      </trkpt>
      <trkpt lat="47.78473" lon="-3.52442">
        <ele>15.28</ele>
        <time>2020-07-08T12:36:53Z</time>
      </trkpt>
      <trkpt lat="47.78473" lon="-3.52442">
        <ele>15.27</ele>
        <time>2020-07-08T12:36:54Z</time>
      </trkpt>
      <trkpt lat="47.78473" lon="-3.52442">
        <ele>15.27</ele>
        <time>2020-07-08T12:36:55Z</time>
      </trkpt>
      <trkpt lat="47.78473" lon="-3.52442">
        <ele>15.27</ele>
        <time>2020-07-08T12:36:56Z</time>
      </trkpt>
      <trkpt lat="47.78473" lon="-3.52442">
        <ele>15.27</ele>
        <time>2020-07-08T12:36:57Z</time>
      </trkpt>
      <trkpt lat="47.78473" lon="-3.52442">
        <ele>15.27</ele>
        <time>2020-07-08T12:36:58Z</time>
      </trkpt>
      <trkpt lat="47.78473" lon="-3.52446">
        <ele>15.09</ele>
        <time>2020-07-08T12:36:59Z</time>
      </trkpt>
      <trkpt lat="47.78472" lon="-3.52448">
        <ele>15.06</ele>
        <time>2020-07-08T12:37:00Z</time>
      </trkpt>
      <trkpt lat="47.7847" lon="-3.52449">
        <ele>15.42</ele>
        <time>2020-07-08T12:37:01Z</time>
      </trkpt>
      <trkpt lat="47.78469" lon="-3.52451">
        <ele>15.62</ele>
        <time>2020-07-08T12:37:02Z</time>
      </trkpt>
      <trkpt lat="47.78468" lon="-3.52453">
        <ele>15.76</ele>
        <time>2020-07-08T12:37:03Z</time>
      </trkpt>
      <trkpt lat="47.78468" lon="-3.52455">
        <ele>15.91</ele>
        <time>2020-07-08T12:37:04Z</time>
      </trkpt>
      <trkpt lat="47.78467" lon="-3.52455">
        <ele>16.12</ele>
        <time>2020-07-08T12:37:05Z</time>
      </trkpt>
      <trkpt lat="47.78467" lon="-3.52455">
        <ele>16.2</ele>
        <time>2020-07-08T12:37:06Z</time>
      </trkpt>
      <trkpt lat="47.78468" lon="-3.52453">
        <ele>16.08</ele>
        <time>2020-07-08T12:37:07Z</time>
      </trkpt>
      <trkpt lat="47.78469" lon="-3.52452">
        <ele>15.8</ele>
        <time>2020-07-08T12:37:08Z</time>
      </trkpt>
      <trkpt lat="47.78471" lon="-3.5245">
        <ele>15.45</ele>
        <time>2020-07-08T12:37:09Z</time>
      </trkpt>
      <trkpt lat="47.78472" lon="-3.52448">
        <ele>15.17</ele>
        <time>2020-07-08T12:37:10Z</time>
      </trkpt>
      <trkpt lat="47.78473" lon="-3.52446">
        <ele>15.06</ele>
        <time>2020-07-08T12:37:11Z</time>
      </trkpt>
      <trkpt lat="47.78474" lon="-3.52443">
        <ele>15.24</ele>
        <time>2020-07-08T12:37:12Z</time>
      </trkpt>
      <trkpt lat="47.78475" lon="-3.5244">
        <ele>15.55</ele>
        <time>2020-07-08T12:37:13Z</time>
      </trkpt>
      <trkpt lat="47.78476" lon="-3.52437">
        <ele>15.9</ele>
        <time>2020-07-08T12:37:14Z</time>
      </trkpt>
      <trkpt lat="47.78477" lon="-3.52433">
        <ele>16.24</ele>
        <time>2020-07-08T12:37:15Z</time>
      </trkpt>
      <trkpt lat="47.78476" lon="-3.52431">
        <ele>16.4</ele>
        <time>2020-07-08T12:37:16Z</time>
      </trkpt>
      <trkpt lat="47.78475" lon="-3.5243">
        <ele>16.4</ele>
        <time>2020-07-08T12:37:17Z</time>
      </trkpt>
      <trkpt lat="47.78474" lon="-3.5243">
        <ele>16.3</ele>
        <time>2020-07-08T12:37:18Z</time>
      </trkpt>
      <trkpt lat="47.78472" lon="-3.52429">
        <ele>16.2</ele>
        <time>2020-07-08T12:37:19Z</time>
      </trkpt>
      <trkpt lat="47.78472" lon="-3.52429">
        <ele>16.23</ele>
        <time>2020-07-08T12:37:20Z</time>
      </trkpt>
      <trkpt lat="47.78471" lon="-3.52429">
        <ele>16.25</ele>
        <time>2020-07-08T12:37:21Z</time>
      </trkpt>
      <trkpt lat="47.78471" lon="-3.52429">
        <ele>16.25</ele>
        <time>2020-07-08T12:37:22Z</time>
      </trkpt>
      <trkpt lat="47.78471" lon="-3.52429">
        <ele>16.24</ele>
        <time>2020-07-08T12:37:23Z</time>
      </trkpt>
      <trkpt lat="47.78471" lon="-3.52429">
        <ele>16.24</ele>
        <time>2020-07-08T12:37:24Z</time>
      </trkpt>
      <trkpt lat="47.78471" lon="-3.52429">
        <ele>16.24</ele>
        <time>2020-07-08T12:37:25Z</time>
      </trkpt>
      <trkpt lat="47.78471" lon="-3.52429">
        <ele>16.24</ele>
        <time>2020-07-08T12:37:26Z</time>
      </trkpt>
      <trkpt lat="47.78471" lon="-3.52429">
        <ele>16.24</ele>
        <time>2020-07-08T12:37:27Z</time>
      </trkpt>
      <trkpt lat="47.78471" lon="-3.52429">
        <ele>16.24</ele>
        <time>2020-07-08T12:37:28Z</time>
      </trkpt>
      <trkpt lat="47.78471" lon="-3.52429">
        <ele>16.24</ele>
        <time>2020-07-08T12:37:29Z</time>
      </trkpt>
      <trkpt lat="47.78471" lon="-3.52429">
        <ele>16.24</ele>
        <time>2020-07-08T12:37:30Z</time>
      </trkpt>
      <trkpt lat="47.78465" lon="-3.52436">
        <ele>17.11</ele>
        <time>2020-07-08T12:37:31Z</time>
      </trkpt>
      <trkpt lat="47.78463" lon="-3.52439">
        <ele>17.58</ele>
        <time>2020-07-08T12:37:32Z</time>
      </trkpt>
      <trkpt lat="47.7846" lon="-3.52442">
        <ele>18.24</ele>
        <time>2020-07-08T12:37:33Z</time>
      </trkpt>
      <trkpt lat="47.78457" lon="-3.52445">
        <ele>18.98</ele>
        <time>2020-07-08T12:37:34Z</time>
      </trkpt>
      <trkpt lat="47.78455" lon="-3.52449">
        <ele>19.58</ele>
        <time>2020-07-08T12:37:35Z</time>
      </trkpt>
      <trkpt lat="47.78452" lon="-3.52453">
        <ele>20.13</ele>
        <time>2020-07-08T12:37:36Z</time>
      </trkpt>
      <trkpt lat="47.7845" lon="-3.52457">
        <ele>20.64</ele>
        <time>2020-07-08T12:37:37Z</time>
      </trkpt>
      <trkpt lat="47.78449" lon="-3.52461">
        <ele>20.99</ele>
        <time>2020-07-08T12:37:38Z</time>
      </trkpt>
      <trkpt lat="47.78448" lon="-3.52465">
        <ele>21.27</ele>
        <time>2020-07-08T12:37:39Z</time>
      </trkpt>
      <trkpt lat="47.78446" lon="-3.52468">
        <ele>21.52</ele>
        <time>2020-07-08T12:37:40Z</time>
      </trkpt>
      <trkpt lat="47.78445" lon="-3.52471">
        <ele>21.78</ele>
        <time>2020-07-08T12:37:41Z</time>
      </trkpt>
      <trkpt lat="47.78444" lon="-3.52474">
        <ele>21.77</ele>
        <time>2020-07-08T12:37:42Z</time>
      </trkpt>
      <trkpt lat="47.78443" lon="-3.52478">
        <ele>21.61</ele>
        <time>2020-07-08T12:37:43Z</time>
      </trkpt>
      <trkpt lat="47.78442" lon="-3.52483">
        <ele>21.2</ele>
        <time>2020-07-08T12:37:44Z</time>
      </trkpt>
      <trkpt lat="47.78441" lon="-3.52487">
        <ele>20.78</ele>
        <time>2020-07-08T12:37:45Z</time>
      </trkpt>
      <trkpt lat="47.7844" lon="-3.52491">
        <ele>20.43</ele>
        <time>2020-07-08T12:37:46Z</time>
      </trkpt>
      <trkpt lat="47.78438" lon="-3.52496">
        <ele>20.2</ele>
        <time>2020-07-08T12:37:47Z</time>
      </trkpt>
      <trkpt lat="47.78436" lon="-3.525">
        <ele>20.08</ele>
        <time>2020-07-08T12:37:48Z</time>
      </trkpt>
      <trkpt lat="47.78434" lon="-3.52505">
        <ele>20.17</ele>
        <time>2020-07-08T12:37:49Z</time>
      </trkpt>
      <trkpt lat="47.78432" lon="-3.52509">
        <ele>20.42</ele>
        <time>2020-07-08T12:37:50Z</time>
      </trkpt>
      <trkpt lat="47.78429" lon="-3.52514">
        <ele>20.76</ele>
        <time>2020-07-08T12:37:51Z</time>
      </trkpt>
      <trkpt lat="47.78427" lon="-3.52518">
        <ele>21</ele>
        <time>2020-07-08T12:37:52Z</time>
      </trkpt>
      <trkpt lat="47.78426" lon="-3.52525">
        <ele>20.91</ele>
        <time>2020-07-08T12:37:53Z</time>
      </trkpt>
      <trkpt lat="47.78425" lon="-3.52532">
        <ele>20.6</ele>
        <time>2020-07-08T12:37:54Z</time>
      </trkpt>
      <trkpt lat="47.78425" lon="-3.52539">
        <ele>20.08</ele>
        <time>2020-07-08T12:37:55Z</time>
      </trkpt>
      <trkpt lat="47.78426" lon="-3.52547">
        <ele>19.37</ele>
        <time>2020-07-08T12:37:56Z</time>
      </trkpt>
      <trkpt lat="47.78427" lon="-3.52554">
        <ele>18.57</ele>
        <time>2020-07-08T12:37:57Z</time>
      </trkpt>
      <trkpt lat="47.78427" lon="-3.5256">
        <ele>17.96</ele>
        <time>2020-07-08T12:37:58Z</time>
      </trkpt>
      <trkpt lat="47.78425" lon="-3.52566">
        <ele>17.84</ele>
        <time>2020-07-08T12:37:59Z</time>
      </trkpt>
      <trkpt lat="47.78423" lon="-3.52571">
        <ele>17.79</ele>
        <time>2020-07-08T12:38:00Z</time>
      </trkpt>
      <trkpt lat="47.78422" lon="-3.52574">
        <ele>17.89</ele>
        <time>2020-07-08T12:38:01Z</time>
      </trkpt>
      <trkpt lat="47.78422" lon="-3.52577">
        <ele>17.87</ele>
        <time>2020-07-08T12:38:02Z</time>
      </trkpt>
      <trkpt lat="47.78421" lon="-3.52579">
        <ele>17.86</ele>
        <time>2020-07-08T12:38:03Z</time>
      </trkpt>
      <trkpt lat="47.78421" lon="-3.52581">
        <ele>17.76</ele>
        <time>2020-07-08T12:38:04Z</time>
      </trkpt>
      <trkpt lat="47.78422" lon="-3.52583">
        <ele>17.57</ele>
        <time>2020-07-08T12:38:05Z</time>
      </trkpt>
      <trkpt lat="47.78422" lon="-3.52584">
        <ele>17.28</ele>
        <time>2020-07-08T12:38:06Z</time>
      </trkpt>
      <trkpt lat="47.78422" lon="-3.52584">
        <ele>17.19</ele>
        <time>2020-07-08T12:38:07Z</time>
      </trkpt>
      <trkpt lat="47.78422" lon="-3.52584">
        <ele>17.17</ele>
        <time>2020-07-08T12:38:08Z</time>
      </trkpt>
      <trkpt lat="47.78422" lon="-3.52584">
        <ele>17.16</ele>
        <time>2020-07-08T12:38:09Z</time>
      </trkpt>
      <trkpt lat="47.78422" lon="-3.52584">
        <ele>17.16</ele>
        <time>2020-07-08T12:38:10Z</time>
      </trkpt>
      <trkpt lat="47.78421" lon="-3.52593">
        <ele>16.26</ele>
        <time>2020-07-08T12:38:11Z</time>
      </trkpt>
      <trkpt lat="47.7842" lon="-3.52596">
        <ele>15.59</ele>
        <time>2020-07-08T12:38:12Z</time>
      </trkpt>
      <trkpt lat="47.78421" lon="-3.52598">
        <ele>14.96</ele>
        <time>2020-07-08T12:38:13Z</time>
      </trkpt>
      <trkpt lat="47.78421" lon="-3.526">
        <ele>14.45</ele>
        <time>2020-07-08T12:38:14Z</time>
      </trkpt>
      <trkpt lat="47.78421" lon="-3.52602">
        <ele>13.99</ele>
        <time>2020-07-08T12:38:15Z</time>
      </trkpt>
      <trkpt lat="47.78421" lon="-3.52605">
        <ele>13.55</ele>
        <time>2020-07-08T12:38:16Z</time>
      </trkpt>
      <trkpt lat="47.7842" lon="-3.52606">
        <ele>13.28</ele>
        <time>2020-07-08T12:38:17Z</time>
      </trkpt>
      <trkpt lat="47.78419" lon="-3.52609">
        <ele>13.09</ele>
        <time>2020-07-08T12:38:18Z</time>
      </trkpt>
      <trkpt lat="47.78418" lon="-3.5261">
        <ele>12.93</ele>
        <time>2020-07-08T12:38:19Z</time>
      </trkpt>
      <trkpt lat="47.78417" lon="-3.52612">
        <ele>12.77</ele>
        <time>2020-07-08T12:38:20Z</time>
      </trkpt>
      <trkpt lat="47.78416" lon="-3.52615">
        <ele>12.47</ele>
        <time>2020-07-08T12:38:21Z</time>
      </trkpt>
      <trkpt lat="47.78415" lon="-3.52618">
        <ele>11.97</ele>
        <time>2020-07-08T12:38:22Z</time>
      </trkpt>
      <trkpt lat="47.78413" lon="-3.52621">
        <ele>11.58</ele>
        <time>2020-07-08T12:38:23Z</time>
      </trkpt>
      <trkpt lat="47.78412" lon="-3.52624">
        <ele>11.34</ele>
        <time>2020-07-08T12:38:24Z</time>
      </trkpt>
      <trkpt lat="47.7841" lon="-3.52625">
        <ele>11.61</ele>
        <time>2020-07-08T12:38:25Z</time>
      </trkpt>
      <trkpt lat="47.78408" lon="-3.52628">
        <ele>11.56</ele>
        <time>2020-07-08T12:38:26Z</time>
      </trkpt>
      <trkpt lat="47.78407" lon="-3.52629">
        <ele>11.75</ele>
        <time>2020-07-08T12:38:27Z</time>
      </trkpt>
      <trkpt lat="47.78405" lon="-3.52632">
        <ele>11.84</ele>
        <time>2020-07-08T12:38:28Z</time>
      </trkpt>
      <trkpt lat="47.78404" lon="-3.52634">
        <ele>11.6</ele>
        <time>2020-07-08T12:38:29Z</time>
      </trkpt>
      <trkpt lat="47.78403" lon="-3.52638">
        <ele>11.16</ele>
        <time>2020-07-08T12:38:30Z</time>
      </trkpt>
      <trkpt lat="47.784" lon="-3.52643">
        <ele>11.15</ele>
        <time>2020-07-08T12:38:31Z</time>
      </trkpt>
      <trkpt lat="47.78398" lon="-3.52647">
        <ele>11.2</ele>
        <time>2020-07-08T12:38:32Z</time>
      </trkpt>
      <trkpt lat="47.78397" lon="-3.5265">
        <ele>11.16</ele>
        <time>2020-07-08T12:38:33Z</time>
      </trkpt>
      <trkpt lat="47.78396" lon="-3.52653">
        <ele>10.94</ele>
        <time>2020-07-08T12:38:34Z</time>
      </trkpt>
      <trkpt lat="47.78394" lon="-3.52658">
        <ele>10.53</ele>
        <time>2020-07-08T12:38:35Z</time>
      </trkpt>
      <trkpt lat="47.78392" lon="-3.52661">
        <ele>10.28</ele>
        <time>2020-07-08T12:38:36Z</time>
      </trkpt>
      <trkpt lat="47.7839" lon="-3.52665">
        <ele>10.17</ele>
        <time>2020-07-08T12:38:37Z</time>
      </trkpt>
      <trkpt lat="47.78388" lon="-3.52668">
        <ele>10.28</ele>
        <time>2020-07-08T12:38:38Z</time>
      </trkpt>
      <trkpt lat="47.78386" lon="-3.5267">
        <ele>10.79</ele>
        <time>2020-07-08T12:38:39Z</time>
      </trkpt>
      <trkpt lat="47.78384" lon="-3.52674">
        <ele>11.22</ele>
        <time>2020-07-08T12:38:40Z</time>
      </trkpt>
      <trkpt lat="47.78382" lon="-3.52676">
        <ele>11.66</ele>
        <time>2020-07-08T12:38:41Z</time>
      </trkpt>
      <trkpt lat="47.7838" lon="-3.52679">
        <ele>12.4</ele>
        <time>2020-07-08T12:38:42Z</time>
      </trkpt>
      <trkpt lat="47.78376" lon="-3.52682">
        <ele>13.57</ele>
        <time>2020-07-08T12:38:43Z</time>
      </trkpt>
      <trkpt lat="47.78373" lon="-3.52685">
        <ele>14.7</ele>
        <time>2020-07-08T12:38:44Z</time>
      </trkpt>
      <trkpt lat="47.78371" lon="-3.52689">
        <ele>15.31</ele>
        <time>2020-07-08T12:38:45Z</time>
      </trkpt>
      <trkpt lat="47.78368" lon="-3.52695">
        <ele>15.65</ele>
        <time>2020-07-08T12:38:46Z</time>
      </trkpt>
      <trkpt lat="47.78366" lon="-3.52699">
        <ele>15.77</ele>
        <time>2020-07-08T12:38:47Z</time>
      </trkpt>
      <trkpt lat="47.78365" lon="-3.52704">
        <ele>15.72</ele>
        <time>2020-07-08T12:38:48Z</time>
      </trkpt>
      <trkpt lat="47.78364" lon="-3.52706">
        <ele>15.43</ele>
        <time>2020-07-08T12:38:49Z</time>
      </trkpt>
      <trkpt lat="47.78363" lon="-3.52708">
        <ele>15.54</ele>
        <time>2020-07-08T12:38:50Z</time>
      </trkpt>
      <trkpt lat="47.78362" lon="-3.52709">
        <ele>15.93</ele>
        <time>2020-07-08T12:38:51Z</time>
      </trkpt>
      <trkpt lat="47.7836" lon="-3.52711">
        <ele>16.36</ele>
        <time>2020-07-08T12:38:52Z</time>
      </trkpt>
      <trkpt lat="47.78359" lon="-3.52711">
        <ele>16.96</ele>
        <time>2020-07-08T12:38:53Z</time>
      </trkpt>
      <trkpt lat="47.78358" lon="-3.52712">
        <ele>17.23</ele>
        <time>2020-07-08T12:38:54Z</time>
      </trkpt>
      <trkpt lat="47.78357" lon="-3.52715">
        <ele>17.12</ele>
        <time>2020-07-08T12:38:55Z</time>
      </trkpt>
      <trkpt lat="47.78356" lon="-3.52719">
        <ele>16.94</ele>
        <time>2020-07-08T12:38:56Z</time>
      </trkpt>
      <trkpt lat="47.78354" lon="-3.52725">
        <ele>16.57</ele>
        <time>2020-07-08T12:38:57Z</time>
      </trkpt>
      <trkpt lat="47.78353" lon="-3.5273">
        <ele>16.49</ele>
        <time>2020-07-08T12:38:58Z</time>
      </trkpt>
      <trkpt lat="47.78351" lon="-3.52733">
        <ele>16.6</ele>
        <time>2020-07-08T12:38:59Z</time>
      </trkpt>
      <trkpt lat="47.78351" lon="-3.52735">
        <ele>16.57</ele>
        <time>2020-07-08T12:39:00Z</time>
      </trkpt>
      <trkpt lat="47.78351" lon="-3.52735">
        <ele>16.52</ele>
        <time>2020-07-08T12:39:01Z</time>
      </trkpt>
      <trkpt lat="47.78351" lon="-3.52736">
        <ele>16.42</ele>
        <time>2020-07-08T12:39:02Z</time>
      </trkpt>
      <trkpt lat="47.78351" lon="-3.52736">
        <ele>16.39</ele>
        <time>2020-07-08T12:39:03Z</time>
      </trkpt>
      <trkpt lat="47.78351" lon="-3.52736">
        <ele>16.38</ele>
        <time>2020-07-08T12:39:04Z</time>
      </trkpt>
      <trkpt lat="47.78351" lon="-3.52736">
        <ele>16.38</ele>
        <time>2020-07-08T12:39:05Z</time>
      </trkpt>
      <trkpt lat="47.78351" lon="-3.52736">
        <ele>16.37</ele>
        <time>2020-07-08T12:39:06Z</time>
      </trkpt>
      <trkpt lat="47.78351" lon="-3.52736">
        <ele>16.37</ele>
        <time>2020-07-08T12:39:07Z</time>
      </trkpt>
      <trkpt lat="47.78351" lon="-3.52736">
        <ele>16.37</ele>
        <time>2020-07-08T12:39:08Z</time>
      </trkpt>
      <trkpt lat="47.78351" lon="-3.52736">
        <ele>16.37</ele>
        <time>2020-07-08T12:39:09Z</time>
      </trkpt>
      <trkpt lat="47.78351" lon="-3.52736">
        <ele>16.37</ele>
        <time>2020-07-08T12:39:10Z</time>
      </trkpt>
      <trkpt lat="47.78351" lon="-3.52736">
        <ele>16.37</ele>
        <time>2020-07-08T12:39:11Z</time>
      </trkpt>
      <trkpt lat="47.78351" lon="-3.52736">
        <ele>16.37</ele>
        <time>2020-07-08T12:39:12Z</time>
      </trkpt>
      <trkpt lat="47.78351" lon="-3.52736">
        <ele>16.37</ele>
        <time>2020-07-08T12:39:13Z</time>
      </trkpt>
      <trkpt lat="47.78351" lon="-3.52736">
        <ele>16.37</ele>
        <time>2020-07-08T12:39:14Z</time>
      </trkpt>
      <trkpt lat="47.78351" lon="-3.52736">
        <ele>16.37</ele>
        <time>2020-07-08T12:39:15Z</time>
      </trkpt>
      <trkpt lat="47.78351" lon="-3.52736">
        <ele>16.37</ele>
        <time>2020-07-08T12:39:16Z</time>
      </trkpt>
      <trkpt lat="47.78343" lon="-3.52743">
        <ele>18.95</ele>
        <time>2020-07-08T12:39:17Z</time>
      </trkpt>
      <trkpt lat="47.78342" lon="-3.52743">
        <ele>20.24</ele>
        <time>2020-07-08T12:39:18Z</time>
      </trkpt>
      <trkpt lat="47.78342" lon="-3.52743">
        <ele>20.6</ele>
        <time>2020-07-08T12:39:19Z</time>
      </trkpt>
      <trkpt lat="47.7834" lon="-3.52743">
        <ele>21.32</ele>
        <time>2020-07-08T12:39:20Z</time>
      </trkpt>
      <trkpt lat="47.7834" lon="-3.52743">
        <ele>21.53</ele>
        <time>2020-07-08T12:39:21Z</time>
      </trkpt>
      <trkpt lat="47.7834" lon="-3.52743">
        <ele>21.6</ele>
        <time>2020-07-08T12:39:22Z</time>
      </trkpt>
      <trkpt lat="47.7834" lon="-3.52743">
        <ele>21.62</ele>
        <time>2020-07-08T12:39:23Z</time>
      </trkpt>
      <trkpt lat="47.7834" lon="-3.52743">
        <ele>21.62</ele>
        <time>2020-07-08T12:39:24Z</time>
      </trkpt>
      <trkpt lat="47.7834" lon="-3.52747">
        <ele>21.32</ele>
        <time>2020-07-08T12:39:25Z</time>
      </trkpt>
      <trkpt lat="47.7834" lon="-3.52749">
        <ele>21.19</ele>
        <time>2020-07-08T12:39:26Z</time>
      </trkpt>
      <trkpt lat="47.78339" lon="-3.52751">
        <ele>21.09</ele>
        <time>2020-07-08T12:39:27Z</time>
      </trkpt>
      <trkpt lat="47.78339" lon="-3.52754">
        <ele>20.76</ele>
        <time>2020-07-08T12:39:28Z</time>
      </trkpt>
      <trkpt lat="47.78339" lon="-3.52757">
        <ele>20.27</ele>
        <time>2020-07-08T12:39:29Z</time>
      </trkpt>
      <trkpt lat="47.78338" lon="-3.52761">
        <ele>19.8</ele>
        <time>2020-07-08T12:39:30Z</time>
      </trkpt>
      <trkpt lat="47.78338" lon="-3.52765">
        <ele>19.06</ele>
        <time>2020-07-08T12:39:31Z</time>
      </trkpt>
      <trkpt lat="47.78338" lon="-3.5277">
        <ele>18.13</ele>
        <time>2020-07-08T12:39:32Z</time>
      </trkpt>
      <trkpt lat="47.78338" lon="-3.52775">
        <ele>17.3</ele>
        <time>2020-07-08T12:39:33Z</time>
      </trkpt>
      <trkpt lat="47.78336" lon="-3.52781">
        <ele>16.75</ele>
        <time>2020-07-08T12:39:34Z</time>
      </trkpt>
      <trkpt lat="47.78335" lon="-3.52787">
        <ele>16.23</ele>
        <time>2020-07-08T12:39:35Z</time>
      </trkpt>
      <trkpt lat="47.78334" lon="-3.52794">
        <ele>15.36</ele>
        <time>2020-07-08T12:39:36Z</time>
      </trkpt>
      <trkpt lat="47.78331" lon="-3.528">
        <ele>15.2</ele>
        <time>2020-07-08T12:39:37Z</time>
      </trkpt>
      <trkpt lat="47.78329" lon="-3.52806">
        <ele>14.96</ele>
        <time>2020-07-08T12:39:38Z</time>
      </trkpt>
      <trkpt lat="47.78328" lon="-3.5281">
        <ele>14.66</ele>
        <time>2020-07-08T12:39:39Z</time>
      </trkpt>
      <trkpt lat="47.78328" lon="-3.52813">
        <ele>14.15</ele>
        <time>2020-07-08T12:39:40Z</time>
      </trkpt>
      <trkpt lat="47.78327" lon="-3.52818">
        <ele>13.51</ele>
        <time>2020-07-08T12:39:41Z</time>
      </trkpt>
      <trkpt lat="47.78325" lon="-3.52822">
        <ele>13.35</ele>
        <time>2020-07-08T12:39:42Z</time>
      </trkpt>
      <trkpt lat="47.78323" lon="-3.52827">
        <ele>13.46</ele>
        <time>2020-07-08T12:39:43Z</time>
      </trkpt>
      <trkpt lat="47.7832" lon="-3.52831">
        <ele>13.52</ele>
        <time>2020-07-08T12:39:44Z</time>
      </trkpt>
      <trkpt lat="47.78317" lon="-3.52835">
        <ele>13.97</ele>
        <time>2020-07-08T12:39:45Z</time>
      </trkpt>
      <trkpt lat="47.78316" lon="-3.52838">
        <ele>14.19</ele>
        <time>2020-07-08T12:39:46Z</time>
      </trkpt>
      <trkpt lat="47.78315" lon="-3.52841">
        <ele>14.29</ele>
        <time>2020-07-08T12:39:47Z</time>
      </trkpt>
      <trkpt lat="47.78314" lon="-3.52843">
        <ele>14.4</ele>
        <time>2020-07-08T12:39:48Z</time>
      </trkpt>
      <trkpt lat="47.78313" lon="-3.52845">
        <ele>14.49</ele>
        <time>2020-07-08T12:39:49Z</time>
      </trkpt>
      <trkpt lat="47.78311" lon="-3.52848">
        <ele>14.64</ele>
        <time>2020-07-08T12:39:50Z</time>
      </trkpt>
      <trkpt lat="47.7831" lon="-3.5285">
        <ele>14.96</ele>
        <time>2020-07-08T12:39:51Z</time>
      </trkpt>
      <trkpt lat="47.78308" lon="-3.52853">
        <ele>15.3</ele>
        <time>2020-07-08T12:39:52Z</time>
      </trkpt>
      <trkpt lat="47.78306" lon="-3.52855">
        <ele>15.66</ele>
        <time>2020-07-08T12:39:53Z</time>
      </trkpt>
      <trkpt lat="47.78305" lon="-3.52858">
        <ele>15.62</ele>
        <time>2020-07-08T12:39:54Z</time>
      </trkpt>
      <trkpt lat="47.78305" lon="-3.52861">
        <ele>15.47</ele>
        <time>2020-07-08T12:39:55Z</time>
      </trkpt>
      <trkpt lat="47.78303" lon="-3.52865">
        <ele>15.14</ele>
        <time>2020-07-08T12:39:56Z</time>
      </trkpt>
      <trkpt lat="47.78301" lon="-3.5287">
        <ele>14.91</ele>
        <time>2020-07-08T12:39:57Z</time>
      </trkpt>
      <trkpt lat="47.783" lon="-3.52874">
        <ele>14.81</ele>
        <time>2020-07-08T12:39:58Z</time>
      </trkpt>
      <trkpt lat="47.78298" lon="-3.52877">
        <ele>14.86</ele>
        <time>2020-07-08T12:39:59Z</time>
      </trkpt>
      <trkpt lat="47.78296" lon="-3.52879">
        <ele>15.18</ele>
        <time>2020-07-08T12:40:00Z</time>
      </trkpt>
      <trkpt lat="47.78294" lon="-3.52881">
        <ele>15.52</ele>
        <time>2020-07-08T12:40:01Z</time>
      </trkpt>
      <trkpt lat="47.78293" lon="-3.52882">
        <ele>15.91</ele>
        <time>2020-07-08T12:40:02Z</time>
      </trkpt>
      <trkpt lat="47.78291" lon="-3.52884">
        <ele>16.37</ele>
        <time>2020-07-08T12:40:03Z</time>
      </trkpt>
      <trkpt lat="47.78288" lon="-3.52887">
        <ele>17</ele>
        <time>2020-07-08T12:40:04Z</time>
      </trkpt>
      <trkpt lat="47.78286" lon="-3.52891">
        <ele>17.7</ele>
        <time>2020-07-08T12:40:05Z</time>
      </trkpt>
      <trkpt lat="47.78283" lon="-3.52894">
        <ele>18.41</ele>
        <time>2020-07-08T12:40:06Z</time>
      </trkpt>
      <trkpt lat="47.78282" lon="-3.52896">
        <ele>18.86</ele>
        <time>2020-07-08T12:40:07Z</time>
      </trkpt>
      <trkpt lat="47.78281" lon="-3.52901">
        <ele>18.8</ele>
        <time>2020-07-08T12:40:08Z</time>
      </trkpt>
      <trkpt lat="47.78278" lon="-3.52906">
        <ele>19.14</ele>
        <time>2020-07-08T12:40:09Z</time>
      </trkpt>
      <trkpt lat="47.78276" lon="-3.52912">
        <ele>18.99</ele>
        <time>2020-07-08T12:40:10Z</time>
      </trkpt>
      <trkpt lat="47.78273" lon="-3.52918">
        <ele>18.74</ele>
        <time>2020-07-08T12:40:11Z</time>
      </trkpt>
      <trkpt lat="47.7827" lon="-3.52923">
        <ele>18.04</ele>
        <time>2020-07-08T12:40:12Z</time>
      </trkpt>
      <trkpt lat="47.78268" lon="-3.52927">
        <ele>17.45</ele>
        <time>2020-07-08T12:40:13Z</time>
      </trkpt>
      <trkpt lat="47.78266" lon="-3.52931">
        <ele>16.82</ele>
        <time>2020-07-08T12:40:14Z</time>
      </trkpt>
      <trkpt lat="47.78264" lon="-3.52934">
        <ele>16.29</ele>
        <time>2020-07-08T12:40:15Z</time>
      </trkpt>
      <trkpt lat="47.78263" lon="-3.52938">
        <ele>15.48</ele>
        <time>2020-07-08T12:40:16Z</time>
      </trkpt>
      <trkpt lat="47.78261" lon="-3.52941">
        <ele>15.08</ele>
        <time>2020-07-08T12:40:17Z</time>
      </trkpt>
      <trkpt lat="47.78259" lon="-3.52946">
        <ele>14.53</ele>
        <time>2020-07-08T12:40:18Z</time>
      </trkpt>
      <trkpt lat="47.78257" lon="-3.52949">
        <ele>13.82</ele>
        <time>2020-07-08T12:40:19Z</time>
      </trkpt>
      <trkpt lat="47.78255" lon="-3.52951">
        <ele>13.58</ele>
        <time>2020-07-08T12:40:20Z</time>
      </trkpt>
      <trkpt lat="47.78253" lon="-3.5295">
        <ele>13.89</ele>
        <time>2020-07-08T12:40:21Z</time>
      </trkpt>
      <trkpt lat="47.78251" lon="-3.5295">
        <ele>14.42</ele>
        <time>2020-07-08T12:40:22Z</time>
      </trkpt>
      <trkpt lat="47.78251" lon="-3.5295">
        <ele>14.62</ele>
        <time>2020-07-08T12:40:23Z</time>
      </trkpt>
      <trkpt lat="47.78251" lon="-3.5295">
        <ele>14.63</ele>
        <time>2020-07-08T12:40:24Z</time>
      </trkpt>
      <trkpt lat="47.78251" lon="-3.5295">
        <ele>14.54</ele>
        <time>2020-07-08T12:40:25Z</time>
      </trkpt>
      <trkpt lat="47.78251" lon="-3.5295">
        <ele>14.52</ele>
        <time>2020-07-08T12:40:26Z</time>
      </trkpt>
      <trkpt lat="47.78251" lon="-3.5295">
        <ele>14.51</ele>
        <time>2020-07-08T12:40:27Z</time>
      </trkpt>
      <trkpt lat="47.78251" lon="-3.5295">
        <ele>14.51</ele>
        <time>2020-07-08T12:40:28Z</time>
      </trkpt>
      <trkpt lat="47.78251" lon="-3.5295">
        <ele>14.5</ele>
        <time>2020-07-08T12:40:29Z</time>
      </trkpt>
      <trkpt lat="47.78251" lon="-3.5295">
        <ele>14.5</ele>
        <time>2020-07-08T12:40:30Z</time>
      </trkpt>
      <trkpt lat="47.78251" lon="-3.5295">
        <ele>14.5</ele>
        <time>2020-07-08T12:40:31Z</time>
      </trkpt>
      <trkpt lat="47.78251" lon="-3.5295">
        <ele>14.5</ele>
        <time>2020-07-08T12:40:32Z</time>
      </trkpt>
      <trkpt lat="47.78251" lon="-3.5295">
        <ele>14.5</ele>
        <time>2020-07-08T12:40:33Z</time>
      </trkpt>
      <trkpt lat="47.78251" lon="-3.5295">
        <ele>14.5</ele>
        <time>2020-07-08T12:40:34Z</time>
      </trkpt>
      <trkpt lat="47.78251" lon="-3.5295">
        <ele>14.5</ele>
        <time>2020-07-08T12:40:35Z</time>
      </trkpt>
      <trkpt lat="47.78251" lon="-3.5295">
        <ele>14.5</ele>
        <time>2020-07-08T12:40:36Z</time>
      </trkpt>
      <trkpt lat="47.78251" lon="-3.5295">
        <ele>14.5</ele>
        <time>2020-07-08T12:40:37Z</time>
      </trkpt>
      <trkpt lat="47.78251" lon="-3.5295">
        <ele>14.5</ele>
        <time>2020-07-08T12:40:38Z</time>
      </trkpt>
      <trkpt lat="47.78243" lon="-3.5295">
        <ele>15.01</ele>
        <time>2020-07-08T12:40:39Z</time>
      </trkpt>
      <trkpt lat="47.78242" lon="-3.52951">
        <ele>14.96</ele>
        <time>2020-07-08T12:40:40Z</time>
      </trkpt>
      <trkpt lat="47.78238" lon="-3.52953">
        <ele>14.69</ele>
        <time>2020-07-08T12:40:41Z</time>
      </trkpt>
      <trkpt lat="47.78237" lon="-3.52955">
        <ele>14.09</ele>
        <time>2020-07-08T12:40:42Z</time>
      </trkpt>
      <trkpt lat="47.78235" lon="-3.52957">
        <ele>13.3</ele>
        <time>2020-07-08T12:40:43Z</time>
      </trkpt>
      <trkpt lat="47.78234" lon="-3.52958">
        <ele>12.92</ele>
        <time>2020-07-08T12:40:44Z</time>
      </trkpt>
      <trkpt lat="47.78232" lon="-3.52958">
        <ele>12.9</ele>
        <time>2020-07-08T12:40:45Z</time>
      </trkpt>
      <trkpt lat="47.7823" lon="-3.52958">
        <ele>12.96</ele>
        <time>2020-07-08T12:40:46Z</time>
      </trkpt>
      <trkpt lat="47.78229" lon="-3.52959">
        <ele>12.9</ele>
        <time>2020-07-08T12:40:47Z</time>
      </trkpt>
      <trkpt lat="47.78229" lon="-3.52959">
        <ele>12.78</ele>
        <time>2020-07-08T12:40:48Z</time>
      </trkpt>
      <trkpt lat="47.7823" lon="-3.52959">
        <ele>12.63</ele>
        <time>2020-07-08T12:40:49Z</time>
      </trkpt>
      <trkpt lat="47.7823" lon="-3.52959">
        <ele>12.59</ele>
        <time>2020-07-08T12:40:50Z</time>
      </trkpt>
      <trkpt lat="47.7823" lon="-3.52959">
        <ele>12.57</ele>
        <time>2020-07-08T12:40:51Z</time>
      </trkpt>
      <trkpt lat="47.7823" lon="-3.52959">
        <ele>12.57</ele>
        <time>2020-07-08T12:40:52Z</time>
      </trkpt>
      <trkpt lat="47.7823" lon="-3.52959">
        <ele>12.57</ele>
        <time>2020-07-08T12:40:53Z</time>
      </trkpt>
      <trkpt lat="47.7823" lon="-3.52959">
        <ele>12.57</ele>
        <time>2020-07-08T12:40:54Z</time>
      </trkpt>
      <trkpt lat="47.7823" lon="-3.52959">
        <ele>12.57</ele>
        <time>2020-07-08T12:40:55Z</time>
      </trkpt>
      <trkpt lat="47.7823" lon="-3.52959">
        <ele>12.57</ele>
        <time>2020-07-08T12:40:56Z</time>
      </trkpt>
      <trkpt lat="47.7823" lon="-3.52959">
        <ele>12.57</ele>
        <time>2020-07-08T12:40:57Z</time>
      </trkpt>
      <trkpt lat="47.7823" lon="-3.52959">
        <ele>12.57</ele>
        <time>2020-07-08T12:40:58Z</time>
      </trkpt>
      <trkpt lat="47.7823" lon="-3.52959">
        <ele>12.57</ele>
        <time>2020-07-08T12:40:59Z</time>
      </trkpt>
      <trkpt lat="47.7823" lon="-3.52959">
        <ele>12.57</ele>
        <time>2020-07-08T12:41:00Z</time>
      </trkpt>
      <trkpt lat="47.7823" lon="-3.52959">
        <ele>12.57</ele>
        <time>2020-07-08T12:41:01Z</time>
      </trkpt>
      <trkpt lat="47.7823" lon="-3.52959">
        <ele>12.57</ele>
        <time>2020-07-08T12:41:02Z</time>
      </trkpt>
      <trkpt lat="47.7823" lon="-3.52959">
        <ele>12.57</ele>
        <time>2020-07-08T12:41:03Z</time>
      </trkpt>
      <trkpt lat="47.7822" lon="-3.52962">
        <ele>12.22</ele>
        <time>2020-07-08T12:41:04Z</time>
      </trkpt>
      <trkpt lat="47.78219" lon="-3.52961">
        <ele>12.31</ele>
        <time>2020-07-08T12:41:05Z</time>
      </trkpt>
      <trkpt lat="47.78219" lon="-3.52961">
        <ele>12.54</ele>
        <time>2020-07-08T12:41:06Z</time>
      </trkpt>
      <trkpt lat="47.78218" lon="-3.52961">
        <ele>12.61</ele>
        <time>2020-07-08T12:41:07Z</time>
      </trkpt>
      <trkpt lat="47.78218" lon="-3.52961">
        <ele>12.63</ele>
        <time>2020-07-08T12:41:08Z</time>
      </trkpt>
      <trkpt lat="47.78218" lon="-3.52961">
        <ele>12.64</ele>
        <time>2020-07-08T12:41:09Z</time>
      </trkpt>
      <trkpt lat="47.78218" lon="-3.52961">
        <ele>12.64</ele>
        <time>2020-07-08T12:41:10Z</time>
      </trkpt>
      <trkpt lat="47.78218" lon="-3.52961">
        <ele>12.64</ele>
        <time>2020-07-08T12:41:11Z</time>
      </trkpt>
      <trkpt lat="47.78218" lon="-3.52961">
        <ele>12.64</ele>
        <time>2020-07-08T12:41:12Z</time>
      </trkpt>
      <trkpt lat="47.78218" lon="-3.52961">
        <ele>12.64</ele>
        <time>2020-07-08T12:41:13Z</time>
      </trkpt>
      <trkpt lat="47.78218" lon="-3.52961">
        <ele>12.64</ele>
        <time>2020-07-08T12:41:14Z</time>
      </trkpt>
      <trkpt lat="47.78218" lon="-3.52961">
        <ele>12.64</ele>
        <time>2020-07-08T12:41:15Z</time>
      </trkpt>
      <trkpt lat="47.78218" lon="-3.52961">
        <ele>12.64</ele>
        <time>2020-07-08T12:41:16Z</time>
      </trkpt>
      <trkpt lat="47.78218" lon="-3.52961">
        <ele>12.64</ele>
        <time>2020-07-08T12:41:17Z</time>
      </trkpt>
      <trkpt lat="47.78218" lon="-3.52961">
        <ele>12.64</ele>
        <time>2020-07-08T12:41:18Z</time>
      </trkpt>
      <trkpt lat="47.78218" lon="-3.52961">
        <ele>12.64</ele>
        <time>2020-07-08T12:41:19Z</time>
      </trkpt>
      <trkpt lat="47.78218" lon="-3.52961">
        <ele>12.64</ele>
        <time>2020-07-08T12:41:20Z</time>
      </trkpt>
      <trkpt lat="47.78218" lon="-3.52961">
        <ele>12.64</ele>
        <time>2020-07-08T12:41:21Z</time>
      </trkpt>
      <trkpt lat="47.78218" lon="-3.52961">
        <ele>12.64</ele>
        <time>2020-07-08T12:41:22Z</time>
      </trkpt>
      <trkpt lat="47.78218" lon="-3.52961">
        <ele>12.64</ele>
        <time>2020-07-08T12:41:23Z</time>
      </trkpt>
      <trkpt lat="47.78211" lon="-3.52959">
        <ele>13.09</ele>
        <time>2020-07-08T12:41:24Z</time>
      </trkpt>
      <trkpt lat="47.7821" lon="-3.52958">
        <ele>13.68</ele>
        <time>2020-07-08T12:41:25Z</time>
      </trkpt>
      <trkpt lat="47.78209" lon="-3.52957">
        <ele>14.26</ele>
        <time>2020-07-08T12:41:26Z</time>
      </trkpt>
      <trkpt lat="47.78207" lon="-3.52955">
        <ele>14.89</ele>
        <time>2020-07-08T12:41:27Z</time>
      </trkpt>
      <trkpt lat="47.78206" lon="-3.52955">
        <ele>15.2</ele>
        <time>2020-07-08T12:41:28Z</time>
      </trkpt>
      <trkpt lat="47.78204" lon="-3.52955">
        <ele>15.16</ele>
        <time>2020-07-08T12:41:29Z</time>
      </trkpt>
      <trkpt lat="47.78203" lon="-3.52955">
        <ele>15.18</ele>
        <time>2020-07-08T12:41:30Z</time>
      </trkpt>
      <trkpt lat="47.78201" lon="-3.52955">
        <ele>15.16</ele>
        <time>2020-07-08T12:41:31Z</time>
      </trkpt>
      <trkpt lat="47.78199" lon="-3.52955">
        <ele>15.28</ele>
        <time>2020-07-08T12:41:32Z</time>
      </trkpt>
      <trkpt lat="47.78197" lon="-3.52954">
        <ele>15.55</ele>
        <time>2020-07-08T12:41:33Z</time>
      </trkpt>
      <trkpt lat="47.78195" lon="-3.52954">
        <ele>15.91</ele>
        <time>2020-07-08T12:41:34Z</time>
      </trkpt>
      <trkpt lat="47.78193" lon="-3.52953">
        <ele>16.13</ele>
        <time>2020-07-08T12:41:35Z</time>
      </trkpt>
      <trkpt lat="47.78192" lon="-3.52953">
        <ele>16.29</ele>
        <time>2020-07-08T12:41:36Z</time>
      </trkpt>
      <trkpt lat="47.78189" lon="-3.52954">
        <ele>16.26</ele>
        <time>2020-07-08T12:41:37Z</time>
      </trkpt>
      <trkpt lat="47.78186" lon="-3.52955">
        <ele>15.94</ele>
        <time>2020-07-08T12:41:38Z</time>
      </trkpt>
      <trkpt lat="47.78184" lon="-3.52957">
        <ele>15.64</ele>
        <time>2020-07-08T12:41:39Z</time>
      </trkpt>
      <trkpt lat="47.78182" lon="-3.52956">
        <ele>15.7</ele>
        <time>2020-07-08T12:41:40Z</time>
      </trkpt>
      <trkpt lat="47.7818" lon="-3.52956">
        <ele>15.77</ele>
        <time>2020-07-08T12:41:41Z</time>
      </trkpt>
      <trkpt lat="47.7818" lon="-3.52956">
        <ele>15.86</ele>
        <time>2020-07-08T12:41:42Z</time>
      </trkpt>
      <trkpt lat="47.78179" lon="-3.52956">
        <ele>15.93</ele>
        <time>2020-07-08T12:41:43Z</time>
      </trkpt>
      <trkpt lat="47.78179" lon="-3.52956">
        <ele>15.95</ele>
        <time>2020-07-08T12:41:44Z</time>
      </trkpt>
      <trkpt lat="47.78179" lon="-3.52956">
        <ele>15.96</ele>
        <time>2020-07-08T12:41:45Z</time>
      </trkpt>
      <trkpt lat="47.78179" lon="-3.52956">
        <ele>15.96</ele>
        <time>2020-07-08T12:41:46Z</time>
      </trkpt>
      <trkpt lat="47.78179" lon="-3.52956">
        <ele>15.96</ele>
        <time>2020-07-08T12:41:47Z</time>
      </trkpt>
      <trkpt lat="47.7817" lon="-3.52961">
        <ele>15.18</ele>
        <time>2020-07-08T12:41:48Z</time>
      </trkpt>
      <trkpt lat="47.78167" lon="-3.52961">
        <ele>14.94</ele>
        <time>2020-07-08T12:41:49Z</time>
      </trkpt>
      <trkpt lat="47.78165" lon="-3.52961">
        <ele>15.04</ele>
        <time>2020-07-08T12:41:50Z</time>
      </trkpt>
      <trkpt lat="47.78162" lon="-3.5296">
        <ele>15.4</ele>
        <time>2020-07-08T12:41:51Z</time>
      </trkpt>
      <trkpt lat="47.7816" lon="-3.5296">
        <ele>15.58</ele>
        <time>2020-07-08T12:41:52Z</time>
      </trkpt>
      <trkpt lat="47.78157" lon="-3.5296">
        <ele>15.58</ele>
        <time>2020-07-08T12:41:53Z</time>
      </trkpt>
      <trkpt lat="47.78155" lon="-3.5296">
        <ele>15.58</ele>
        <time>2020-07-08T12:41:54Z</time>
      </trkpt>
      <trkpt lat="47.78152" lon="-3.52961">
        <ele>15.39</ele>
        <time>2020-07-08T12:41:55Z</time>
      </trkpt>
      <trkpt lat="47.78149" lon="-3.52963">
        <ele>14.98</ele>
        <time>2020-07-08T12:41:56Z</time>
      </trkpt>
      <trkpt lat="47.78144" lon="-3.52965">
        <ele>14.51</ele>
        <time>2020-07-08T12:41:57Z</time>
      </trkpt>
      <trkpt lat="47.78141" lon="-3.52965">
        <ele>14.32</ele>
        <time>2020-07-08T12:41:58Z</time>
      </trkpt>
      <trkpt lat="47.78137" lon="-3.52966">
        <ele>14.27</ele>
        <time>2020-07-08T12:41:59Z</time>
      </trkpt>
      <trkpt lat="47.78135" lon="-3.52966">
        <ele>14.32</ele>
        <time>2020-07-08T12:42:00Z</time>
      </trkpt>
      <trkpt lat="47.78133" lon="-3.52966">
        <ele>14.4</ele>
        <time>2020-07-08T12:42:01Z</time>
      </trkpt>
      <trkpt lat="47.78132" lon="-3.52966">
        <ele>14.53</ele>
        <time>2020-07-08T12:42:02Z</time>
      </trkpt>
      <trkpt lat="47.78132" lon="-3.52967">
        <ele>14.46</ele>
        <time>2020-07-08T12:42:03Z</time>
      </trkpt>
      <trkpt lat="47.78132" lon="-3.52967">
        <ele>14.35</ele>
        <time>2020-07-08T12:42:04Z</time>
      </trkpt>
      <trkpt lat="47.78132" lon="-3.52967">
        <ele>14.32</ele>
        <time>2020-07-08T12:42:05Z</time>
      </trkpt>
      <trkpt lat="47.78132" lon="-3.52967">
        <ele>14.31</ele>
        <time>2020-07-08T12:42:06Z</time>
      </trkpt>
      <trkpt lat="47.78132" lon="-3.52967">
        <ele>14.3</ele>
        <time>2020-07-08T12:42:07Z</time>
      </trkpt>
      <trkpt lat="47.78132" lon="-3.52967">
        <ele>14.3</ele>
        <time>2020-07-08T12:42:08Z</time>
      </trkpt>
      <trkpt lat="47.78132" lon="-3.52967">
        <ele>14.3</ele>
        <time>2020-07-08T12:42:09Z</time>
      </trkpt>
      <trkpt lat="47.78132" lon="-3.52967">
        <ele>14.3</ele>
        <time>2020-07-08T12:42:10Z</time>
      </trkpt>
      <trkpt lat="47.78132" lon="-3.52967">
        <ele>14.3</ele>
        <time>2020-07-08T12:42:11Z</time>
      </trkpt>
      <trkpt lat="47.78132" lon="-3.52967">
        <ele>14.3</ele>
        <time>2020-07-08T12:42:12Z</time>
      </trkpt>
      <trkpt lat="47.78132" lon="-3.52967">
        <ele>14.3</ele>
        <time>2020-07-08T12:42:13Z</time>
      </trkpt>
      <trkpt lat="47.78132" lon="-3.52967">
        <ele>14.3</ele>
        <time>2020-07-08T12:42:14Z</time>
      </trkpt>
      <trkpt lat="47.78132" lon="-3.52967">
        <ele>14.3</ele>
        <time>2020-07-08T12:42:15Z</time>
      </trkpt>
      <trkpt lat="47.78125" lon="-3.52977">
        <ele>12.47</ele>
        <time>2020-07-08T12:42:16Z</time>
      </trkpt>
      <trkpt lat="47.78125" lon="-3.52977">
        <ele>11.9</ele>
        <time>2020-07-08T12:42:17Z</time>
      </trkpt>
      <trkpt lat="47.78124" lon="-3.52977">
        <ele>11.68</ele>
        <time>2020-07-08T12:42:18Z</time>
      </trkpt>
      <trkpt lat="47.78123" lon="-3.52978">
        <ele>11.54</ele>
        <time>2020-07-08T12:42:19Z</time>
      </trkpt>
      <trkpt lat="47.78123" lon="-3.52978">
        <ele>11.49</ele>
        <time>2020-07-08T12:42:20Z</time>
      </trkpt>
      <trkpt lat="47.78123" lon="-3.52978">
        <ele>11.48</ele>
        <time>2020-07-08T12:42:21Z</time>
      </trkpt>
      <trkpt lat="47.78117" lon="-3.52978">
        <ele>11.7</ele>
        <time>2020-07-08T12:42:22Z</time>
      </trkpt>
      <trkpt lat="47.78115" lon="-3.52978">
        <ele>11.78</ele>
        <time>2020-07-08T12:42:23Z</time>
      </trkpt>
      <trkpt lat="47.78114" lon="-3.52978">
        <ele>11.89</ele>
        <time>2020-07-08T12:42:24Z</time>
      </trkpt>
      <trkpt lat="47.78112" lon="-3.52979">
        <ele>11.84</ele>
        <time>2020-07-08T12:42:25Z</time>
      </trkpt>
      <trkpt lat="47.78109" lon="-3.5298">
        <ele>11.69</ele>
        <time>2020-07-08T12:42:26Z</time>
      </trkpt>
      <trkpt lat="47.78106" lon="-3.52981">
        <ele>11.52</ele>
        <time>2020-07-08T12:42:27Z</time>
      </trkpt>
      <trkpt lat="47.78103" lon="-3.52983">
        <ele>11.32</ele>
        <time>2020-07-08T12:42:28Z</time>
      </trkpt>
      <trkpt lat="47.78101" lon="-3.52984">
        <ele>11.21</ele>
        <time>2020-07-08T12:42:29Z</time>
      </trkpt>
      <trkpt lat="47.78098" lon="-3.52984">
        <ele>11.33</ele>
        <time>2020-07-08T12:42:30Z</time>
      </trkpt>
      <trkpt lat="47.78095" lon="-3.52984">
        <ele>11.6</ele>
        <time>2020-07-08T12:42:31Z</time>
      </trkpt>
      <trkpt lat="47.78092" lon="-3.52984">
        <ele>11.85</ele>
        <time>2020-07-08T12:42:32Z</time>
      </trkpt>
      <trkpt lat="47.7809" lon="-3.52984">
        <ele>11.96</ele>
        <time>2020-07-08T12:42:33Z</time>
      </trkpt>
      <trkpt lat="47.78088" lon="-3.52985">
        <ele>11.98</ele>
        <time>2020-07-08T12:42:34Z</time>
      </trkpt>
      <trkpt lat="47.78085" lon="-3.52985">
        <ele>12.09</ele>
        <time>2020-07-08T12:42:35Z</time>
      </trkpt>
      <trkpt lat="47.78083" lon="-3.52984">
        <ele>12.39</ele>
        <time>2020-07-08T12:42:36Z</time>
      </trkpt>
      <trkpt lat="47.78079" lon="-3.52985">
        <ele>12.46</ele>
        <time>2020-07-08T12:42:37Z</time>
      </trkpt>
      <trkpt lat="47.78076" lon="-3.52987">
        <ele>12.3</ele>
        <time>2020-07-08T12:42:38Z</time>
      </trkpt>
      <trkpt lat="47.78073" lon="-3.52987">
        <ele>12.19</ele>
        <time>2020-07-08T12:42:39Z</time>
      </trkpt>
      <trkpt lat="47.78069" lon="-3.52989">
        <ele>12.06</ele>
        <time>2020-07-08T12:42:40Z</time>
      </trkpt>
      <trkpt lat="47.78063" lon="-3.5299">
        <ele>11.94</ele>
        <time>2020-07-08T12:42:41Z</time>
      </trkpt>
      <trkpt lat="47.78059" lon="-3.5299">
        <ele>11.91</ele>
        <time>2020-07-08T12:42:42Z</time>
      </trkpt>
      <trkpt lat="47.78056" lon="-3.52991">
        <ele>11.98</ele>
        <time>2020-07-08T12:42:43Z</time>
      </trkpt>
      <trkpt lat="47.78053" lon="-3.52991">
        <ele>11.87</ele>
        <time>2020-07-08T12:42:44Z</time>
      </trkpt>
      <trkpt lat="47.78049" lon="-3.52992">
        <ele>11.44</ele>
        <time>2020-07-08T12:42:45Z</time>
      </trkpt>
      <trkpt lat="47.78046" lon="-3.52993">
        <ele>10.91</ele>
        <time>2020-07-08T12:42:46Z</time>
      </trkpt>
      <trkpt lat="47.78042" lon="-3.52993">
        <ele>10.48</ele>
        <time>2020-07-08T12:42:47Z</time>
      </trkpt>
      <trkpt lat="47.78039" lon="-3.52994">
        <ele>9.95</ele>
        <time>2020-07-08T12:42:48Z</time>
      </trkpt>
      <trkpt lat="47.78035" lon="-3.52994">
        <ele>9.53</ele>
        <time>2020-07-08T12:42:49Z</time>
      </trkpt>
      <trkpt lat="47.78031" lon="-3.52994">
        <ele>9.28</ele>
        <time>2020-07-08T12:42:50Z</time>
      </trkpt>
      <trkpt lat="47.78028" lon="-3.52994">
        <ele>9.13</ele>
        <time>2020-07-08T12:42:51Z</time>
      </trkpt>
      <trkpt lat="47.78024" lon="-3.52994">
        <ele>9.12</ele>
        <time>2020-07-08T12:42:52Z</time>
      </trkpt>
      <trkpt lat="47.78019" lon="-3.52994">
        <ele>9.2</ele>
        <time>2020-07-08T12:42:53Z</time>
      </trkpt>
      <trkpt lat="47.78016" lon="-3.52994">
        <ele>9.3</ele>
        <time>2020-07-08T12:42:54Z</time>
      </trkpt>
      <trkpt lat="47.78012" lon="-3.52994">
        <ele>9.29</ele>
        <time>2020-07-08T12:42:55Z</time>
      </trkpt>
      <trkpt lat="47.78008" lon="-3.52996">
        <ele>9.12</ele>
        <time>2020-07-08T12:42:56Z</time>
      </trkpt>
      <trkpt lat="47.78004" lon="-3.52997">
        <ele>8.85</ele>
        <time>2020-07-08T12:42:57Z</time>
      </trkpt>
      <trkpt lat="47.78" lon="-3.53">
        <ele>8.37</ele>
        <time>2020-07-08T12:42:58Z</time>
      </trkpt>
      <trkpt lat="47.77994" lon="-3.53002">
        <ele>8.16</ele>
        <time>2020-07-08T12:42:59Z</time>
      </trkpt>
      <trkpt lat="47.7799" lon="-3.53003">
        <ele>8.17</ele>
        <time>2020-07-08T12:43:00Z</time>
      </trkpt>
      <trkpt lat="47.77987" lon="-3.53004">
        <ele>8.21</ele>
        <time>2020-07-08T12:43:01Z</time>
      </trkpt>
      <trkpt lat="47.77986" lon="-3.53004">
        <ele>8.3</ele>
        <time>2020-07-08T12:43:02Z</time>
      </trkpt>
      <trkpt lat="47.77985" lon="-3.53004">
        <ele>8.34</ele>
        <time>2020-07-08T12:43:03Z</time>
      </trkpt>
      <trkpt lat="47.77985" lon="-3.53004">
        <ele>8.32</ele>
        <time>2020-07-08T12:43:04Z</time>
      </trkpt>
      <trkpt lat="47.77985" lon="-3.53004">
        <ele>8.25</ele>
        <time>2020-07-08T12:43:05Z</time>
      </trkpt>
      <trkpt lat="47.77985" lon="-3.53004">
        <ele>8.22</ele>
        <time>2020-07-08T12:43:06Z</time>
      </trkpt>
      <trkpt lat="47.77985" lon="-3.53004">
        <ele>8.22</ele>
        <time>2020-07-08T12:43:07Z</time>
      </trkpt>
      <trkpt lat="47.77985" lon="-3.53004">
        <ele>8.22</ele>
        <time>2020-07-08T12:43:08Z</time>
      </trkpt>
      <trkpt lat="47.77985" lon="-3.53004">
        <ele>8.22</ele>
        <time>2020-07-08T12:43:09Z</time>
      </trkpt>
      <trkpt lat="47.77985" lon="-3.53004">
        <ele>8.22</ele>
        <time>2020-07-08T12:43:10Z</time>
      </trkpt>
      <trkpt lat="47.77985" lon="-3.53004">
        <ele>8.22</ele>
        <time>2020-07-08T12:43:11Z</time>
      </trkpt>
      <trkpt lat="47.77985" lon="-3.53004">
        <ele>8.22</ele>
        <time>2020-07-08T12:43:12Z</time>
      </trkpt>
      <trkpt lat="47.77985" lon="-3.53004">
        <ele>8.22</ele>
        <time>2020-07-08T12:43:13Z</time>
      </trkpt>
      <trkpt lat="47.77985" lon="-3.53004">
        <ele>8.22</ele>
        <time>2020-07-08T12:43:14Z</time>
      </trkpt>
      <trkpt lat="47.77985" lon="-3.53004">
        <ele>8.22</ele>
        <time>2020-07-08T12:43:15Z</time>
      </trkpt>
      <trkpt lat="47.77985" lon="-3.53004">
        <ele>8.22</ele>
        <time>2020-07-08T12:43:16Z</time>
      </trkpt>
      <trkpt lat="47.77985" lon="-3.53004">
        <ele>8.22</ele>
        <time>2020-07-08T12:43:17Z</time>
      </trkpt>
      <trkpt lat="47.77975" lon="-3.53001">
        <ele>9.13</ele>
        <time>2020-07-08T12:43:18Z</time>
      </trkpt>
      <trkpt lat="47.77974" lon="-3.53001">
        <ele>9.55</ele>
        <time>2020-07-08T12:43:19Z</time>
      </trkpt>
      <trkpt lat="47.77973" lon="-3.53">
        <ele>9.88</ele>
        <time>2020-07-08T12:43:20Z</time>
      </trkpt>
      <trkpt lat="47.77973" lon="-3.52999">
        <ele>10.16</ele>
        <time>2020-07-08T12:43:21Z</time>
      </trkpt>
      <trkpt lat="47.77973" lon="-3.52999">
        <ele>10.24</ele>
        <time>2020-07-08T12:43:22Z</time>
      </trkpt>
      <trkpt lat="47.77973" lon="-3.52999">
        <ele>10.27</ele>
        <time>2020-07-08T12:43:23Z</time>
      </trkpt>
      <trkpt lat="47.77973" lon="-3.52999">
        <ele>10.28</ele>
        <time>2020-07-08T12:43:24Z</time>
      </trkpt>
      <trkpt lat="47.77973" lon="-3.52999">
        <ele>10.28</ele>
        <time>2020-07-08T12:43:25Z</time>
      </trkpt>
      <trkpt lat="47.77973" lon="-3.52999">
        <ele>10.28</ele>
        <time>2020-07-08T12:43:26Z</time>
      </trkpt>
      <trkpt lat="47.77973" lon="-3.52999">
        <ele>10.28</ele>
        <time>2020-07-08T12:43:27Z</time>
      </trkpt>
      <trkpt lat="47.77973" lon="-3.52999">
        <ele>10.28</ele>
        <time>2020-07-08T12:43:28Z</time>
      </trkpt>
      <trkpt lat="47.77973" lon="-3.52999">
        <ele>10.28</ele>
        <time>2020-07-08T12:43:29Z</time>
      </trkpt>
      <trkpt lat="47.77973" lon="-3.52999">
        <ele>10.28</ele>
        <time>2020-07-08T12:43:30Z</time>
      </trkpt>
      <trkpt lat="47.77973" lon="-3.52999">
        <ele>10.28</ele>
        <time>2020-07-08T12:43:31Z</time>
      </trkpt>
      <trkpt lat="47.77973" lon="-3.52999">
        <ele>10.28</ele>
        <time>2020-07-08T12:43:33Z</time>
      </trkpt>
      <trkpt lat="47.77973" lon="-3.52999">
        <ele>10.28</ele>
        <time>2020-07-08T12:43:34Z</time>
      </trkpt>
      <trkpt lat="47.77973" lon="-3.52999">
        <ele>10.28</ele>
        <time>2020-07-08T12:43:35Z</time>
      </trkpt>
      <trkpt lat="47.77973" lon="-3.52999">
        <ele>10.28</ele>
        <time>2020-07-08T12:43:36Z</time>
      </trkpt>
      <trkpt lat="47.77973" lon="-3.52999">
        <ele>10.28</ele>
        <time>2020-07-08T12:43:37Z</time>
      </trkpt>
      <trkpt lat="47.77964" lon="-3.52998">
        <ele>11.35</ele>
        <time>2020-07-08T12:43:38Z</time>
      </trkpt>
      <trkpt lat="47.77963" lon="-3.52998">
        <ele>11.74</ele>
        <time>2020-07-08T12:43:39Z</time>
      </trkpt>
      <trkpt lat="47.77962" lon="-3.52999">
        <ele>11.87</ele>
        <time>2020-07-08T12:43:40Z</time>
      </trkpt>
      <trkpt lat="47.77961" lon="-3.53">
        <ele>11.76</ele>
        <time>2020-07-08T12:43:41Z</time>
      </trkpt>
      <trkpt lat="47.7796" lon="-3.53">
        <ele>11.7</ele>
        <time>2020-07-08T12:43:42Z</time>
      </trkpt>
      <trkpt lat="47.7796" lon="-3.53001">
        <ele>11.65</ele>
        <time>2020-07-08T12:43:43Z</time>
      </trkpt>
      <trkpt lat="47.77958" lon="-3.53001">
        <ele>11.63</ele>
        <time>2020-07-08T12:43:44Z</time>
      </trkpt>
      <trkpt lat="47.77956" lon="-3.53003">
        <ele>11.5</ele>
        <time>2020-07-08T12:43:45Z</time>
      </trkpt>
      <trkpt lat="47.77953" lon="-3.53006">
        <ele>11.19</ele>
        <time>2020-07-08T12:43:46Z</time>
      </trkpt>
      <trkpt lat="47.77951" lon="-3.53007">
        <ele>10.9</ele>
        <time>2020-07-08T12:43:47Z</time>
      </trkpt>
      <trkpt lat="47.77949" lon="-3.53009">
        <ele>10.71</ele>
        <time>2020-07-08T12:43:48Z</time>
      </trkpt>
      <trkpt lat="47.77947" lon="-3.53009">
        <ele>10.7</ele>
        <time>2020-07-08T12:43:49Z</time>
      </trkpt>
      <trkpt lat="47.77946" lon="-3.5301">
        <ele>10.63</ele>
        <time>2020-07-08T12:43:50Z</time>
      </trkpt>
      <trkpt lat="47.77944" lon="-3.53011">
        <ele>10.58</ele>
        <time>2020-07-08T12:43:51Z</time>
      </trkpt>
      <trkpt lat="47.77942" lon="-3.53011">
        <ele>10.42</ele>
        <time>2020-07-08T12:43:52Z</time>
      </trkpt>
      <trkpt lat="47.7794" lon="-3.53014">
        <ele>9.94</ele>
        <time>2020-07-08T12:43:53Z</time>
      </trkpt>
      <trkpt lat="47.77938" lon="-3.53016">
        <ele>9.36</ele>
        <time>2020-07-08T12:43:54Z</time>
      </trkpt>
      <trkpt lat="47.77936" lon="-3.53018">
        <ele>8.67</ele>
        <time>2020-07-08T12:43:55Z</time>
      </trkpt>
      <trkpt lat="47.77933" lon="-3.53021">
        <ele>8.01</ele>
        <time>2020-07-08T12:43:56Z</time>
      </trkpt>
      <trkpt lat="47.7793" lon="-3.53023">
        <ele>7.29</ele>
        <time>2020-07-08T12:43:57Z</time>
      </trkpt>
      <trkpt lat="47.77927" lon="-3.53026">
        <ele>6.61</ele>
        <time>2020-07-08T12:43:58Z</time>
      </trkpt>
      <trkpt lat="47.77924" lon="-3.53026">
        <ele>6.3</ele>
        <time>2020-07-08T12:43:59Z</time>
      </trkpt>
      <trkpt lat="47.77921" lon="-3.53027">
        <ele>6.07</ele>
        <time>2020-07-08T12:44:00Z</time>
      </trkpt>
      <trkpt lat="47.77919" lon="-3.53027">
        <ele>6.05</ele>
        <time>2020-07-08T12:44:01Z</time>
      </trkpt>
      <trkpt lat="47.77917" lon="-3.53027">
        <ele>6.27</ele>
        <time>2020-07-08T12:44:02Z</time>
      </trkpt>
      <trkpt lat="47.77914" lon="-3.53025">
        <ele>6.57</ele>
        <time>2020-07-08T12:44:03Z</time>
      </trkpt>
      <trkpt lat="47.77911" lon="-3.53023">
        <ele>7.01</ele>
        <time>2020-07-08T12:44:04Z</time>
      </trkpt>
      <trkpt lat="47.77909" lon="-3.53022">
        <ele>7.5</ele>
        <time>2020-07-08T12:44:05Z</time>
      </trkpt>
      <trkpt lat="47.77907" lon="-3.53022">
        <ele>7.59</ele>
        <time>2020-07-08T12:44:06Z</time>
      </trkpt>
      <trkpt lat="47.77905" lon="-3.5302">
        <ele>7.99</ele>
        <time>2020-07-08T12:44:07Z</time>
      </trkpt>
      <trkpt lat="47.77903" lon="-3.53018">
        <ele>8.48</ele>
        <time>2020-07-08T12:44:08Z</time>
      </trkpt>
      <trkpt lat="47.77902" lon="-3.53016">
        <ele>9.04</ele>
        <time>2020-07-08T12:44:09Z</time>
      </trkpt>
      <trkpt lat="47.779" lon="-3.53015">
        <ele>9.47</ele>
        <time>2020-07-08T12:44:10Z</time>
      </trkpt>
      <trkpt lat="47.77899" lon="-3.53014">
        <ele>9.8</ele>
        <time>2020-07-08T12:44:11Z</time>
      </trkpt>
      <trkpt lat="47.77897" lon="-3.53013">
        <ele>10.01</ele>
        <time>2020-07-08T12:44:12Z</time>
      </trkpt>
      <trkpt lat="47.77896" lon="-3.53013">
        <ele>10.15</ele>
        <time>2020-07-08T12:44:13Z</time>
      </trkpt>
      <trkpt lat="47.77894" lon="-3.53012">
        <ele>10.26</ele>
        <time>2020-07-08T12:44:14Z</time>
      </trkpt>
      <trkpt lat="47.77893" lon="-3.53012">
        <ele>10.21</ele>
        <time>2020-07-08T12:44:15Z</time>
      </trkpt>
      <trkpt lat="47.77891" lon="-3.53012">
        <ele>10.15</ele>
        <time>2020-07-08T12:44:16Z</time>
      </trkpt>
      <trkpt lat="47.77888" lon="-3.53012">
        <ele>10.12</ele>
        <time>2020-07-08T12:44:17Z</time>
      </trkpt>
      <trkpt lat="47.77886" lon="-3.53011">
        <ele>10.28</ele>
        <time>2020-07-08T12:44:18Z</time>
      </trkpt>
      <trkpt lat="47.77884" lon="-3.53011">
        <ele>10.34</ele>
        <time>2020-07-08T12:44:19Z</time>
      </trkpt>
      <trkpt lat="47.77882" lon="-3.5301">
        <ele>10.65</ele>
        <time>2020-07-08T12:44:20Z</time>
      </trkpt>
      <trkpt lat="47.77879" lon="-3.53009">
        <ele>10.91</ele>
        <time>2020-07-08T12:44:21Z</time>
      </trkpt>
      <trkpt lat="47.77876" lon="-3.53009">
        <ele>10.93</ele>
        <time>2020-07-08T12:44:22Z</time>
      </trkpt>
      <trkpt lat="47.77873" lon="-3.5301">
        <ele>10.66</ele>
        <time>2020-07-08T12:44:23Z</time>
      </trkpt>
      <trkpt lat="47.77869" lon="-3.53011">
        <ele>10.26</ele>
        <time>2020-07-08T12:44:24Z</time>
      </trkpt>
      <trkpt lat="47.77865" lon="-3.53012">
        <ele>9.94</ele>
        <time>2020-07-08T12:44:25Z</time>
      </trkpt>
      <trkpt lat="47.77861" lon="-3.53011">
        <ele>9.87</ele>
        <time>2020-07-08T12:44:26Z</time>
      </trkpt>
      <trkpt lat="47.77856" lon="-3.53011">
        <ele>9.96</ele>
        <time>2020-07-08T12:44:27Z</time>
      </trkpt>
      <trkpt lat="47.77853" lon="-3.5301">
        <ele>10.26</ele>
        <time>2020-07-08T12:44:28Z</time>
      </trkpt>
      <trkpt lat="47.7785" lon="-3.53009">
        <ele>10.54</ele>
        <time>2020-07-08T12:44:29Z</time>
      </trkpt>
      <trkpt lat="47.77847" lon="-3.53008">
        <ele>10.69</ele>
        <time>2020-07-08T12:44:30Z</time>
      </trkpt>
      <trkpt lat="47.77843" lon="-3.53007">
        <ele>10.86</ele>
        <time>2020-07-08T12:44:31Z</time>
      </trkpt>
      <trkpt lat="47.7784" lon="-3.53007">
        <ele>10.98</ele>
        <time>2020-07-08T12:44:32Z</time>
      </trkpt>
      <trkpt lat="47.77838" lon="-3.53006">
        <ele>11.12</ele>
        <time>2020-07-08T12:44:33Z</time>
      </trkpt>
      <trkpt lat="47.77836" lon="-3.53005">
        <ele>11.31</ele>
        <time>2020-07-08T12:44:34Z</time>
      </trkpt>
      <trkpt lat="47.77833" lon="-3.53005">
        <ele>11.43</ele>
        <time>2020-07-08T12:44:35Z</time>
      </trkpt>
      <trkpt lat="47.7783" lon="-3.53004">
        <ele>11.57</ele>
        <time>2020-07-08T12:44:36Z</time>
      </trkpt>
      <trkpt lat="47.77828" lon="-3.53004">
        <ele>11.76</ele>
        <time>2020-07-08T12:44:37Z</time>
      </trkpt>
      <trkpt lat="47.77825" lon="-3.53002">
        <ele>12.24</ele>
        <time>2020-07-08T12:44:38Z</time>
      </trkpt>
      <trkpt lat="47.77824" lon="-3.53">
        <ele>12.77</ele>
        <time>2020-07-08T12:44:39Z</time>
      </trkpt>
      <trkpt lat="47.77821" lon="-3.52999">
        <ele>13.17</ele>
        <time>2020-07-08T12:44:40Z</time>
      </trkpt>
      <trkpt lat="47.77819" lon="-3.52999">
        <ele>13.32</ele>
        <time>2020-07-08T12:44:41Z</time>
      </trkpt>
      <trkpt lat="47.77818" lon="-3.52998">
        <ele>13.53</ele>
        <time>2020-07-08T12:44:42Z</time>
      </trkpt>
      <trkpt lat="47.77815" lon="-3.52998">
        <ele>13.55</ele>
        <time>2020-07-08T12:44:43Z</time>
      </trkpt>
      <trkpt lat="47.77813" lon="-3.53">
        <ele>13.26</ele>
        <time>2020-07-08T12:44:44Z</time>
      </trkpt>
      <trkpt lat="47.77809" lon="-3.53001">
        <ele>12.75</ele>
        <time>2020-07-08T12:44:45Z</time>
      </trkpt>
      <trkpt lat="47.77805" lon="-3.53003">
        <ele>12.13</ele>
        <time>2020-07-08T12:44:46Z</time>
      </trkpt>
      <trkpt lat="47.77799" lon="-3.53004">
        <ele>11.63</ele>
        <time>2020-07-08T12:44:47Z</time>
      </trkpt>
      <trkpt lat="47.77793" lon="-3.53006">
        <ele>11.15</ele>
        <time>2020-07-08T12:44:48Z</time>
      </trkpt>
      <trkpt lat="47.77786" lon="-3.53007">
        <ele>10.76</ele>
        <time>2020-07-08T12:44:49Z</time>
      </trkpt>
      <trkpt lat="47.77781" lon="-3.53009">
        <ele>10.26</ele>
        <time>2020-07-08T12:44:50Z</time>
      </trkpt>
      <trkpt lat="47.77777" lon="-3.5301">
        <ele>9.72</ele>
        <time>2020-07-08T12:44:51Z</time>
      </trkpt>
      <trkpt lat="47.77773" lon="-3.5301">
        <ele>9.42</ele>
        <time>2020-07-08T12:44:52Z</time>
      </trkpt>
      <trkpt lat="47.77769" lon="-3.53009">
        <ele>9.21</ele>
        <time>2020-07-08T12:44:53Z</time>
      </trkpt>
      <trkpt lat="47.77766" lon="-3.53009">
        <ele>9.03</ele>
        <time>2020-07-08T12:44:54Z</time>
      </trkpt>
      <trkpt lat="47.77762" lon="-3.53009">
        <ele>8.83</ele>
        <time>2020-07-08T12:44:55Z</time>
      </trkpt>
      <trkpt lat="47.77759" lon="-3.53008">
        <ele>8.7</ele>
        <time>2020-07-08T12:44:56Z</time>
      </trkpt>
      <trkpt lat="47.77756" lon="-3.53006">
        <ele>8.76</ele>
        <time>2020-07-08T12:44:57Z</time>
      </trkpt>
      <trkpt lat="47.77753" lon="-3.53004">
        <ele>9.04</ele>
        <time>2020-07-08T12:44:58Z</time>
      </trkpt>
      <trkpt lat="47.77749" lon="-3.53002">
        <ele>9.24</ele>
        <time>2020-07-08T12:44:59Z</time>
      </trkpt>
      <trkpt lat="47.77746" lon="-3.53002">
        <ele>9.22</ele>
        <time>2020-07-08T12:45:00Z</time>
      </trkpt>
      <trkpt lat="47.77741" lon="-3.53001">
        <ele>9.04</ele>
        <time>2020-07-08T12:45:01Z</time>
      </trkpt>
      <trkpt lat="47.77737" lon="-3.53001">
        <ele>8.83</ele>
        <time>2020-07-08T12:45:02Z</time>
      </trkpt>
      <trkpt lat="47.77734" lon="-3.53001">
        <ele>8.73</ele>
        <time>2020-07-08T12:45:03Z</time>
      </trkpt>
      <trkpt lat="47.77732" lon="-3.53">
        <ele>8.8</ele>
        <time>2020-07-08T12:45:04Z</time>
      </trkpt>
      <trkpt lat="47.77731" lon="-3.52999">
        <ele>8.9</ele>
        <time>2020-07-08T12:45:05Z</time>
      </trkpt>
      <trkpt lat="47.77731" lon="-3.52998">
        <ele>8.98</ele>
        <time>2020-07-08T12:45:06Z</time>
      </trkpt>
      <trkpt lat="47.77731" lon="-3.52999">
        <ele>8.93</ele>
        <time>2020-07-08T12:45:07Z</time>
      </trkpt>
      <trkpt lat="47.77731" lon="-3.52999">
        <ele>8.91</ele>
        <time>2020-07-08T12:45:08Z</time>
      </trkpt>
      <trkpt lat="47.77731" lon="-3.52999">
        <ele>8.91</ele>
        <time>2020-07-08T12:45:09Z</time>
      </trkpt>
      <trkpt lat="47.77731" lon="-3.52999">
        <ele>8.91</ele>
        <time>2020-07-08T12:45:10Z</time>
      </trkpt>
      <trkpt lat="47.77731" lon="-3.52999">
        <ele>8.91</ele>
        <time>2020-07-08T12:45:11Z</time>
      </trkpt>
      <trkpt lat="47.77731" lon="-3.52999">
        <ele>8.91</ele>
        <time>2020-07-08T12:45:12Z</time>
      </trkpt>
      <trkpt lat="47.77731" lon="-3.52999">
        <ele>8.91</ele>
        <time>2020-07-08T12:45:13Z</time>
      </trkpt>
      <trkpt lat="47.77731" lon="-3.52999">
        <ele>8.91</ele>
        <time>2020-07-08T12:45:14Z</time>
      </trkpt>
      <trkpt lat="47.77731" lon="-3.52999">
        <ele>8.91</ele>
        <time>2020-07-08T12:45:15Z</time>
      </trkpt>
      <trkpt lat="47.77731" lon="-3.52999">
        <ele>8.91</ele>
        <time>2020-07-08T12:45:16Z</time>
      </trkpt>
      <trkpt lat="47.77731" lon="-3.52999">
        <ele>8.91</ele>
        <time>2020-07-08T12:45:17Z</time>
      </trkpt>
      <trkpt lat="47.77731" lon="-3.52999">
        <ele>8.91</ele>
        <time>2020-07-08T12:45:18Z</time>
      </trkpt>
      <trkpt lat="47.77731" lon="-3.52999">
        <ele>8.91</ele>
        <time>2020-07-08T12:45:19Z</time>
      </trkpt>
      <trkpt lat="47.77731" lon="-3.52999">
        <ele>8.91</ele>
        <time>2020-07-08T12:45:20Z</time>
      </trkpt>
      <trkpt lat="47.77731" lon="-3.52999">
        <ele>8.91</ele>
        <time>2020-07-08T12:45:21Z</time>
      </trkpt>
      <trkpt lat="47.77731" lon="-3.52999">
        <ele>8.91</ele>
        <time>2020-07-08T12:45:22Z</time>
      </trkpt>
      <trkpt lat="47.77731" lon="-3.52999">
        <ele>8.91</ele>
        <time>2020-07-08T12:45:23Z</time>
      </trkpt>
      <trkpt lat="47.77724" lon="-3.5299">
        <ele>10.21</ele>
        <time>2020-07-08T12:45:24Z</time>
      </trkpt>
      <trkpt lat="47.77723" lon="-3.52989">
        <ele>10.68</ele>
        <time>2020-07-08T12:45:25Z</time>
      </trkpt>
      <trkpt lat="47.77722" lon="-3.52988">
        <ele>10.89</ele>
        <time>2020-07-08T12:45:26Z</time>
      </trkpt>
      <trkpt lat="47.77722" lon="-3.52988">
        <ele>11.04</ele>
        <time>2020-07-08T12:45:27Z</time>
      </trkpt>
      <trkpt lat="47.77722" lon="-3.52988">
        <ele>11.08</ele>
        <time>2020-07-08T12:45:28Z</time>
      </trkpt>
      <trkpt lat="47.77722" lon="-3.52988">
        <ele>11.09</ele>
        <time>2020-07-08T12:45:29Z</time>
      </trkpt>
      <trkpt lat="47.77722" lon="-3.52988">
        <ele>11.1</ele>
        <time>2020-07-08T12:45:30Z</time>
      </trkpt>
      <trkpt lat="47.77722" lon="-3.52988">
        <ele>11.1</ele>
        <time>2020-07-08T12:45:31Z</time>
      </trkpt>
      <trkpt lat="47.77722" lon="-3.52988">
        <ele>11.1</ele>
        <time>2020-07-08T12:45:32Z</time>
      </trkpt>
      <trkpt lat="47.77715" lon="-3.52987">
        <ele>11.22</ele>
        <time>2020-07-08T12:45:33Z</time>
      </trkpt>
      <trkpt lat="47.77712" lon="-3.52986">
        <ele>11.31</ele>
        <time>2020-07-08T12:45:34Z</time>
      </trkpt>
      <trkpt lat="47.77708" lon="-3.52986">
        <ele>11.22</ele>
        <time>2020-07-08T12:45:35Z</time>
      </trkpt>
      <trkpt lat="47.777" lon="-3.52985">
        <ele>11.29</ele>
        <time>2020-07-08T12:45:36Z</time>
      </trkpt>
      <trkpt lat="47.77696" lon="-3.52984">
        <ele>11.49</ele>
        <time>2020-07-08T12:45:37Z</time>
      </trkpt>
      <trkpt lat="47.77691" lon="-3.52984">
        <ele>11.6</ele>
        <time>2020-07-08T12:45:38Z</time>
      </trkpt>
      <trkpt lat="47.77688" lon="-3.52983">
        <ele>11.66</ele>
        <time>2020-07-08T12:45:39Z</time>
      </trkpt>
      <trkpt lat="47.77686" lon="-3.52983">
        <ele>11.61</ele>
        <time>2020-07-08T12:45:40Z</time>
      </trkpt>
      <trkpt lat="47.77684" lon="-3.52984">
        <ele>11.37</ele>
        <time>2020-07-08T12:45:41Z</time>
      </trkpt>
      <trkpt lat="47.77681" lon="-3.52985">
        <ele>10.96</ele>
        <time>2020-07-08T12:45:42Z</time>
      </trkpt>
      <trkpt lat="47.77678" lon="-3.52986">
        <ele>10.63</ele>
        <time>2020-07-08T12:45:43Z</time>
      </trkpt>
      <trkpt lat="47.77674" lon="-3.52986">
        <ele>10.47</ele>
        <time>2020-07-08T12:45:44Z</time>
      </trkpt>
      <trkpt lat="47.77671" lon="-3.52985">
        <ele>10.41</ele>
        <time>2020-07-08T12:45:45Z</time>
      </trkpt>
      <trkpt lat="47.77668" lon="-3.52985">
        <ele>10.35</ele>
        <time>2020-07-08T12:45:46Z</time>
      </trkpt>
      <trkpt lat="47.77665" lon="-3.52985">
        <ele>10.44</ele>
        <time>2020-07-08T12:45:47Z</time>
      </trkpt>
      <trkpt lat="47.77662" lon="-3.52985">
        <ele>10.53</ele>
        <time>2020-07-08T12:45:48Z</time>
      </trkpt>
      <trkpt lat="47.77659" lon="-3.52986">
        <ele>10.64</ele>
        <time>2020-07-08T12:45:49Z</time>
      </trkpt>
      <trkpt lat="47.77657" lon="-3.52986">
        <ele>10.75</ele>
        <time>2020-07-08T12:45:50Z</time>
      </trkpt>
      <trkpt lat="47.77654" lon="-3.52987">
        <ele>10.73</ele>
        <time>2020-07-08T12:45:51Z</time>
      </trkpt>
      <trkpt lat="47.77651" lon="-3.52988">
        <ele>10.69</ele>
        <time>2020-07-08T12:45:52Z</time>
      </trkpt>
      <trkpt lat="47.77647" lon="-3.52989">
        <ele>10.69</ele>
        <time>2020-07-08T12:45:53Z</time>
      </trkpt>
      <trkpt lat="47.77644" lon="-3.52991">
        <ele>10.64</ele>
        <time>2020-07-08T12:45:54Z</time>
      </trkpt>
      <trkpt lat="47.77639" lon="-3.52993">
        <ele>10.52</ele>
        <time>2020-07-08T12:45:55Z</time>
      </trkpt>
      <trkpt lat="47.77634" lon="-3.52995">
        <ele>10.28</ele>
        <time>2020-07-08T12:45:56Z</time>
      </trkpt>
      <trkpt lat="47.77629" lon="-3.52997">
        <ele>10.01</ele>
        <time>2020-07-08T12:45:57Z</time>
      </trkpt>
      <trkpt lat="47.77624" lon="-3.52999">
        <ele>9.76</ele>
        <time>2020-07-08T12:45:58Z</time>
      </trkpt>
      <trkpt lat="47.7762" lon="-3.53001">
        <ele>9.45</ele>
        <time>2020-07-08T12:45:59Z</time>
      </trkpt>
      <trkpt lat="47.77617" lon="-3.53001">
        <ele>9.43</ele>
        <time>2020-07-08T12:46:00Z</time>
      </trkpt>
      <trkpt lat="47.77615" lon="-3.53001">
        <ele>9.54</ele>
        <time>2020-07-08T12:46:01Z</time>
      </trkpt>
      <trkpt lat="47.77614" lon="-3.53">
        <ele>9.69</ele>
        <time>2020-07-08T12:46:02Z</time>
      </trkpt>
      <trkpt lat="47.77614" lon="-3.53">
        <ele>9.78</ele>
        <time>2020-07-08T12:46:03Z</time>
      </trkpt>
      <trkpt lat="47.77613" lon="-3.53">
        <ele>9.78</ele>
        <time>2020-07-08T12:46:04Z</time>
      </trkpt>
      <trkpt lat="47.77613" lon="-3.53">
        <ele>9.78</ele>
        <time>2020-07-08T12:46:05Z</time>
      </trkpt>
      <trkpt lat="47.77613" lon="-3.53">
        <ele>9.78</ele>
        <time>2020-07-08T12:46:06Z</time>
      </trkpt>
      <trkpt lat="47.77613" lon="-3.53">
        <ele>9.78</ele>
        <time>2020-07-08T12:46:07Z</time>
      </trkpt>
      <trkpt lat="47.77613" lon="-3.53">
        <ele>9.78</ele>
        <time>2020-07-08T12:46:08Z</time>
      </trkpt>
      <trkpt lat="47.77613" lon="-3.53">
        <ele>9.78</ele>
        <time>2020-07-08T12:46:09Z</time>
      </trkpt>
      <trkpt lat="47.77613" lon="-3.53">
        <ele>9.78</ele>
        <time>2020-07-08T12:46:10Z</time>
      </trkpt>
      <trkpt lat="47.77613" lon="-3.53">
        <ele>9.78</ele>
        <time>2020-07-08T12:46:11Z</time>
      </trkpt>
      <trkpt lat="47.77613" lon="-3.53">
        <ele>9.78</ele>
        <time>2020-07-08T12:46:12Z</time>
      </trkpt>
      <trkpt lat="47.77613" lon="-3.53">
        <ele>9.78</ele>
        <time>2020-07-08T12:46:13Z</time>
      </trkpt>
      <trkpt lat="47.77613" lon="-3.53">
        <ele>9.78</ele>
        <time>2020-07-08T12:46:14Z</time>
      </trkpt>
      <trkpt lat="47.77604" lon="-3.53">
        <ele>9.58</ele>
        <time>2020-07-08T12:46:15Z</time>
      </trkpt>
      <trkpt lat="47.77602" lon="-3.53">
        <ele>9.36</ele>
        <time>2020-07-08T12:46:16Z</time>
      </trkpt>
      <trkpt lat="47.776" lon="-3.53">
        <ele>9.19</ele>
        <time>2020-07-08T12:46:17Z</time>
      </trkpt>
      <trkpt lat="47.77596" lon="-3.53">
        <ele>8.96</ele>
        <time>2020-07-08T12:46:18Z</time>
      </trkpt>
      <trkpt lat="47.77592" lon="-3.53">
        <ele>8.73</ele>
        <time>2020-07-08T12:46:19Z</time>
      </trkpt>
      <trkpt lat="47.77589" lon="-3.52999">
        <ele>8.64</ele>
        <time>2020-07-08T12:46:20Z</time>
      </trkpt>
      <trkpt lat="47.77588" lon="-3.52998">
        <ele>8.66</ele>
        <time>2020-07-08T12:46:21Z</time>
      </trkpt>
      <trkpt lat="47.77587" lon="-3.52997">
        <ele>8.67</ele>
        <time>2020-07-08T12:46:22Z</time>
      </trkpt>
      <trkpt lat="47.77587" lon="-3.52997">
        <ele>8.69</ele>
        <time>2020-07-08T12:46:23Z</time>
      </trkpt>
      <trkpt lat="47.77588" lon="-3.52997">
        <ele>8.7</ele>
        <time>2020-07-08T12:46:24Z</time>
      </trkpt>
      <trkpt lat="47.77588" lon="-3.52997">
        <ele>8.71</ele>
        <time>2020-07-08T12:46:25Z</time>
      </trkpt>
      <trkpt lat="47.77588" lon="-3.52997">
        <ele>8.71</ele>
        <time>2020-07-08T12:46:26Z</time>
      </trkpt>
      <trkpt lat="47.77588" lon="-3.52997">
        <ele>8.71</ele>
        <time>2020-07-08T12:46:27Z</time>
      </trkpt>
      <trkpt lat="47.77588" lon="-3.52997">
        <ele>8.71</ele>
        <time>2020-07-08T12:46:28Z</time>
      </trkpt>
      <trkpt lat="47.77588" lon="-3.52997">
        <ele>8.71</ele>
        <time>2020-07-08T12:46:29Z</time>
      </trkpt>
      <trkpt lat="47.77588" lon="-3.52997">
        <ele>8.71</ele>
        <time>2020-07-08T12:46:30Z</time>
      </trkpt>
      <trkpt lat="47.77588" lon="-3.52997">
        <ele>8.71</ele>
        <time>2020-07-08T12:46:31Z</time>
      </trkpt>
      <trkpt lat="47.77588" lon="-3.52997">
        <ele>8.71</ele>
        <time>2020-07-08T12:46:32Z</time>
      </trkpt>
      <trkpt lat="47.77588" lon="-3.52997">
        <ele>8.71</ele>
        <time>2020-07-08T12:46:33Z</time>
      </trkpt>
      <trkpt lat="47.77588" lon="-3.52997">
        <ele>8.71</ele>
        <time>2020-07-08T12:46:34Z</time>
      </trkpt>
      <trkpt lat="47.77588" lon="-3.52997">
        <ele>8.71</ele>
        <time>2020-07-08T12:46:35Z</time>
      </trkpt>
      <trkpt lat="47.77588" lon="-3.52997">
        <ele>8.71</ele>
        <time>2020-07-08T12:46:36Z</time>
      </trkpt>
      <trkpt lat="47.77588" lon="-3.52997">
        <ele>8.71</ele>
        <time>2020-07-08T12:46:37Z</time>
      </trkpt>
      <trkpt lat="47.77588" lon="-3.52997">
        <ele>8.71</ele>
        <time>2020-07-08T12:46:38Z</time>
      </trkpt>
      <trkpt lat="47.77588" lon="-3.52997">
        <ele>8.71</ele>
        <time>2020-07-08T12:46:39Z</time>
      </trkpt>
      <trkpt lat="47.77588" lon="-3.52997">
        <ele>8.71</ele>
        <time>2020-07-08T12:46:40Z</time>
      </trkpt>
      <trkpt lat="47.77588" lon="-3.52997">
        <ele>8.71</ele>
        <time>2020-07-08T12:46:41Z</time>
      </trkpt>
      <trkpt lat="47.77588" lon="-3.52997">
        <ele>8.71</ele>
        <time>2020-07-08T12:46:42Z</time>
      </trkpt>
      <trkpt lat="47.77582" lon="-3.52989">
        <ele>9.08</ele>
        <time>2020-07-08T12:46:43Z</time>
      </trkpt>
      <trkpt lat="47.77582" lon="-3.52988">
        <ele>9.36</ele>
        <time>2020-07-08T12:46:44Z</time>
      </trkpt>
      <trkpt lat="47.77581" lon="-3.52986">
        <ele>9.53</ele>
        <time>2020-07-08T12:46:45Z</time>
      </trkpt>
      <trkpt lat="47.77581" lon="-3.52986">
        <ele>9.62</ele>
        <time>2020-07-08T12:46:46Z</time>
      </trkpt>
      <trkpt lat="47.77581" lon="-3.52985">
        <ele>9.73</ele>
        <time>2020-07-08T12:46:47Z</time>
      </trkpt>
      <trkpt lat="47.77581" lon="-3.52984">
        <ele>9.85</ele>
        <time>2020-07-08T12:46:48Z</time>
      </trkpt>
      <trkpt lat="47.77581" lon="-3.52984">
        <ele>9.89</ele>
        <time>2020-07-08T12:46:49Z</time>
      </trkpt>
      <trkpt lat="47.77581" lon="-3.52984">
        <ele>9.9</ele>
        <time>2020-07-08T12:46:50Z</time>
      </trkpt>
      <trkpt lat="47.77581" lon="-3.52984">
        <ele>9.9</ele>
        <time>2020-07-08T12:46:51Z</time>
      </trkpt>
      <trkpt lat="47.77581" lon="-3.52984">
        <ele>9.91</ele>
        <time>2020-07-08T12:46:52Z</time>
      </trkpt>
      <trkpt lat="47.77581" lon="-3.52984">
        <ele>9.91</ele>
        <time>2020-07-08T12:46:53Z</time>
      </trkpt>
      <trkpt lat="47.77581" lon="-3.52984">
        <ele>9.91</ele>
        <time>2020-07-08T12:46:54Z</time>
      </trkpt>
      <trkpt lat="47.77581" lon="-3.52984">
        <ele>9.91</ele>
        <time>2020-07-08T12:46:55Z</time>
      </trkpt>
      <trkpt lat="47.77577" lon="-3.52981">
        <ele>9.6</ele>
        <time>2020-07-08T12:46:56Z</time>
      </trkpt>
      <trkpt lat="47.77574" lon="-3.5298">
        <ele>9.18</ele>
        <time>2020-07-08T12:46:57Z</time>
      </trkpt>
      <trkpt lat="47.77571" lon="-3.52978">
        <ele>8.78</ele>
        <time>2020-07-08T12:46:58Z</time>
      </trkpt>
      <trkpt lat="47.77567" lon="-3.52976">
        <ele>8.32</ele>
        <time>2020-07-08T12:46:59Z</time>
      </trkpt>
      <trkpt lat="47.77564" lon="-3.52973">
        <ele>7.96</ele>
        <time>2020-07-08T12:47:00Z</time>
      </trkpt>
      <trkpt lat="47.7756" lon="-3.52971">
        <ele>7.33</ele>
        <time>2020-07-08T12:47:01Z</time>
      </trkpt>
      <trkpt lat="47.77556" lon="-3.52969">
        <ele>6.62</ele>
        <time>2020-07-08T12:47:02Z</time>
      </trkpt>
      <trkpt lat="47.7755" lon="-3.52967">
        <ele>6.01</ele>
        <time>2020-07-08T12:47:03Z</time>
      </trkpt>
      <trkpt lat="47.77545" lon="-3.52964">
        <ele>5.49</ele>
        <time>2020-07-08T12:47:04Z</time>
      </trkpt>
      <trkpt lat="47.7754" lon="-3.52962">
        <ele>5.06</ele>
        <time>2020-07-08T12:47:05Z</time>
      </trkpt>
      <trkpt lat="47.77536" lon="-3.5296">
        <ele>4.67</ele>
        <time>2020-07-08T12:47:06Z</time>
      </trkpt>
      <trkpt lat="47.77533" lon="-3.52958">
        <ele>4.42</ele>
        <time>2020-07-08T12:47:07Z</time>
      </trkpt>
      <trkpt lat="47.7753" lon="-3.52955">
        <ele>4.27</ele>
        <time>2020-07-08T12:47:08Z</time>
      </trkpt>
      <trkpt lat="47.77528" lon="-3.52953">
        <ele>4.19</ele>
        <time>2020-07-08T12:47:09Z</time>
      </trkpt>
      <trkpt lat="47.77526" lon="-3.52951">
        <ele>4.22</ele>
        <time>2020-07-08T12:47:10Z</time>
      </trkpt>
      <trkpt lat="47.77525" lon="-3.52948">
        <ele>4.41</ele>
        <time>2020-07-08T12:47:11Z</time>
      </trkpt>
      <trkpt lat="47.77523" lon="-3.52944">
        <ele>4.82</ele>
        <time>2020-07-08T12:47:12Z</time>
      </trkpt>
      <trkpt lat="47.77522" lon="-3.52941">
        <ele>5.42</ele>
        <time>2020-07-08T12:47:13Z</time>
      </trkpt>
      <trkpt lat="47.77521" lon="-3.52938">
        <ele>5.95</ele>
        <time>2020-07-08T12:47:14Z</time>
      </trkpt>
      <trkpt lat="47.7752" lon="-3.52936">
        <ele>6.42</ele>
        <time>2020-07-08T12:47:15Z</time>
      </trkpt>
      <trkpt lat="47.77519" lon="-3.52934">
        <ele>6.89</ele>
        <time>2020-07-08T12:47:16Z</time>
      </trkpt>
      <trkpt lat="47.77518" lon="-3.52932">
        <ele>7.23</ele>
        <time>2020-07-08T12:47:17Z</time>
      </trkpt>
      <trkpt lat="47.77517" lon="-3.52931">
        <ele>7.57</ele>
        <time>2020-07-08T12:47:18Z</time>
      </trkpt>
      <trkpt lat="47.77515" lon="-3.52928">
        <ele>7.9</ele>
        <time>2020-07-08T12:47:19Z</time>
      </trkpt>
      <trkpt lat="47.77513" lon="-3.52927">
        <ele>8.16</ele>
        <time>2020-07-08T12:47:20Z</time>
      </trkpt>
      <trkpt lat="47.7751" lon="-3.52925">
        <ele>8.3</ele>
        <time>2020-07-08T12:47:21Z</time>
      </trkpt>
      <trkpt lat="47.77505" lon="-3.52924">
        <ele>8.27</ele>
        <time>2020-07-08T12:47:22Z</time>
      </trkpt>
      <trkpt lat="47.77501" lon="-3.52923">
        <ele>8.01</ele>
        <time>2020-07-08T12:47:23Z</time>
      </trkpt>
      <trkpt lat="47.77496" lon="-3.52924">
        <ele>7.91</ele>
        <time>2020-07-08T12:47:24Z</time>
      </trkpt>
      <trkpt lat="47.77492" lon="-3.52926">
        <ele>7.86</ele>
        <time>2020-07-08T12:47:25Z</time>
      </trkpt>
      <trkpt lat="47.77489" lon="-3.52928">
        <ele>7.74</ele>
        <time>2020-07-08T12:47:26Z</time>
      </trkpt>
      <trkpt lat="47.77486" lon="-3.52931">
        <ele>7.59</ele>
        <time>2020-07-08T12:47:27Z</time>
      </trkpt>
      <trkpt lat="47.77483" lon="-3.52933">
        <ele>7.42</ele>
        <time>2020-07-08T12:47:28Z</time>
      </trkpt>
      <trkpt lat="47.7748" lon="-3.52935">
        <ele>7.37</ele>
        <time>2020-07-08T12:47:29Z</time>
      </trkpt>
      <trkpt lat="47.77477" lon="-3.52937">
        <ele>7.4</ele>
        <time>2020-07-08T12:47:30Z</time>
      </trkpt>
      <trkpt lat="47.77474" lon="-3.52938">
        <ele>7.48</ele>
        <time>2020-07-08T12:47:31Z</time>
      </trkpt>
      <trkpt lat="47.77471" lon="-3.52939">
        <ele>7.7</ele>
        <time>2020-07-08T12:47:32Z</time>
      </trkpt>
      <trkpt lat="47.77469" lon="-3.5294">
        <ele>8</ele>
        <time>2020-07-08T12:47:33Z</time>
      </trkpt>
      <trkpt lat="47.77467" lon="-3.52941">
        <ele>8.32</ele>
        <time>2020-07-08T12:47:34Z</time>
      </trkpt>
      <trkpt lat="47.77466" lon="-3.52941">
        <ele>8.59</ele>
        <time>2020-07-08T12:47:35Z</time>
      </trkpt>
      <trkpt lat="47.77464" lon="-3.52941">
        <ele>8.9</ele>
        <time>2020-07-08T12:47:36Z</time>
      </trkpt>
      <trkpt lat="47.77463" lon="-3.52942">
        <ele>9.13</ele>
        <time>2020-07-08T12:47:37Z</time>
      </trkpt>
      <trkpt lat="47.77461" lon="-3.52944">
        <ele>9.33</ele>
        <time>2020-07-08T12:47:38Z</time>
      </trkpt>
      <trkpt lat="47.7746" lon="-3.52945">
        <ele>9.52</ele>
        <time>2020-07-08T12:47:39Z</time>
      </trkpt>
      <trkpt lat="47.77457" lon="-3.52946">
        <ele>9.86</ele>
        <time>2020-07-08T12:47:40Z</time>
      </trkpt>
      <trkpt lat="47.77456" lon="-3.52947">
        <ele>10.17</ele>
        <time>2020-07-08T12:47:41Z</time>
      </trkpt>
      <trkpt lat="47.77454" lon="-3.52948">
        <ele>10.45</ele>
        <time>2020-07-08T12:47:42Z</time>
      </trkpt>
      <trkpt lat="47.77453" lon="-3.52948">
        <ele>10.65</ele>
        <time>2020-07-08T12:47:43Z</time>
      </trkpt>
      <trkpt lat="47.77453" lon="-3.52948">
        <ele>10.82</ele>
        <time>2020-07-08T12:47:44Z</time>
      </trkpt>
      <trkpt lat="47.77452" lon="-3.52948">
        <ele>10.96</ele>
        <time>2020-07-08T12:47:45Z</time>
      </trkpt>
      <trkpt lat="47.77452" lon="-3.52948">
        <ele>11</ele>
        <time>2020-07-08T12:47:46Z</time>
      </trkpt>
      <trkpt lat="47.77452" lon="-3.52948">
        <ele>11.01</ele>
        <time>2020-07-08T12:47:47Z</time>
      </trkpt>
      <trkpt lat="47.77452" lon="-3.52948">
        <ele>11.02</ele>
        <time>2020-07-08T12:47:48Z</time>
      </trkpt>
      <trkpt lat="47.77452" lon="-3.52948">
        <ele>11.02</ele>
        <time>2020-07-08T12:47:49Z</time>
      </trkpt>
      <trkpt lat="47.77452" lon="-3.52948">
        <ele>11.02</ele>
        <time>2020-07-08T12:47:50Z</time>
      </trkpt>
      <trkpt lat="47.77452" lon="-3.52948">
        <ele>11.02</ele>
        <time>2020-07-08T12:47:51Z</time>
      </trkpt>
      <trkpt lat="47.77449" lon="-3.52949">
        <ele>11.41</ele>
        <time>2020-07-08T12:47:52Z</time>
      </trkpt>
      <trkpt lat="47.77448" lon="-3.52949">
        <ele>11.67</ele>
        <time>2020-07-08T12:47:53Z</time>
      </trkpt>
      <trkpt lat="47.77447" lon="-3.5295">
        <ele>11.82</ele>
        <time>2020-07-08T12:47:54Z</time>
      </trkpt>
      <trkpt lat="47.77445" lon="-3.5295">
        <ele>12.04</ele>
        <time>2020-07-08T12:47:55Z</time>
      </trkpt>
      <trkpt lat="47.77444" lon="-3.52951">
        <ele>12.21</ele>
        <time>2020-07-08T12:47:56Z</time>
      </trkpt>
      <trkpt lat="47.77442" lon="-3.52952">
        <ele>12.15</ele>
        <time>2020-07-08T12:47:57Z</time>
      </trkpt>
      <trkpt lat="47.7744" lon="-3.52953">
        <ele>12.04</ele>
        <time>2020-07-08T12:47:58Z</time>
      </trkpt>
      <trkpt lat="47.77438" lon="-3.52955">
        <ele>11.86</ele>
        <time>2020-07-08T12:47:59Z</time>
      </trkpt>
      <trkpt lat="47.77437" lon="-3.52957">
        <ele>11.62</ele>
        <time>2020-07-08T12:48:00Z</time>
      </trkpt>
      <trkpt lat="47.77434" lon="-3.52959">
        <ele>11.34</ele>
        <time>2020-07-08T12:48:01Z</time>
      </trkpt>
      <trkpt lat="47.77431" lon="-3.52961">
        <ele>11.01</ele>
        <time>2020-07-08T12:48:02Z</time>
      </trkpt>
      <trkpt lat="47.77428" lon="-3.52963">
        <ele>10.7</ele>
        <time>2020-07-08T12:48:03Z</time>
      </trkpt>
      <trkpt lat="47.77424" lon="-3.52964">
        <ele>10.5</ele>
        <time>2020-07-08T12:48:04Z</time>
      </trkpt>
      <trkpt lat="47.77421" lon="-3.52963">
        <ele>10.43</ele>
        <time>2020-07-08T12:48:05Z</time>
      </trkpt>
      <trkpt lat="47.77418" lon="-3.52961">
        <ele>10.56</ele>
        <time>2020-07-08T12:48:06Z</time>
      </trkpt>
      <trkpt lat="47.77414" lon="-3.52959">
        <ele>10.47</ele>
        <time>2020-07-08T12:48:07Z</time>
      </trkpt>
      <trkpt lat="47.77412" lon="-3.52958">
        <ele>10.17</ele>
        <time>2020-07-08T12:48:08Z</time>
      </trkpt>
      <trkpt lat="47.7741" lon="-3.52956">
        <ele>9.89</ele>
        <time>2020-07-08T12:48:09Z</time>
      </trkpt>
      <trkpt lat="47.77407" lon="-3.52955">
        <ele>9.53</ele>
        <time>2020-07-08T12:48:10Z</time>
      </trkpt>
      <trkpt lat="47.77406" lon="-3.52953">
        <ele>9.45</ele>
        <time>2020-07-08T12:48:11Z</time>
      </trkpt>
      <trkpt lat="47.77404" lon="-3.52951">
        <ele>9.36</ele>
        <time>2020-07-08T12:48:12Z</time>
      </trkpt>
      <trkpt lat="47.77401" lon="-3.52949">
        <ele>9.12</ele>
        <time>2020-07-08T12:48:13Z</time>
      </trkpt>
      <trkpt lat="47.77399" lon="-3.52948">
        <ele>8.89</ele>
        <time>2020-07-08T12:48:14Z</time>
      </trkpt>
      <trkpt lat="47.77396" lon="-3.52946">
        <ele>8.44</ele>
        <time>2020-07-08T12:48:15Z</time>
      </trkpt>
      <trkpt lat="47.77393" lon="-3.52944">
        <ele>8.03</ele>
        <time>2020-07-08T12:48:16Z</time>
      </trkpt>
      <trkpt lat="47.7739" lon="-3.52942">
        <ele>7.71</ele>
        <time>2020-07-08T12:48:17Z</time>
      </trkpt>
      <trkpt lat="47.77388" lon="-3.52939">
        <ele>7.62</ele>
        <time>2020-07-08T12:48:18Z</time>
      </trkpt>
      <trkpt lat="47.77386" lon="-3.52937">
        <ele>7.7</ele>
        <time>2020-07-08T12:48:19Z</time>
      </trkpt>
      <trkpt lat="47.77383" lon="-3.52935">
        <ele>7.61</ele>
        <time>2020-07-08T12:48:20Z</time>
      </trkpt>
      <trkpt lat="47.77381" lon="-3.52933">
        <ele>7.62</ele>
        <time>2020-07-08T12:48:21Z</time>
      </trkpt>
      <trkpt lat="47.77379" lon="-3.5293">
        <ele>7.68</ele>
        <time>2020-07-08T12:48:22Z</time>
      </trkpt>
      <trkpt lat="47.77378" lon="-3.52927">
        <ele>7.86</ele>
        <time>2020-07-08T12:48:23Z</time>
      </trkpt>
      <trkpt lat="47.77376" lon="-3.52924">
        <ele>7.94</ele>
        <time>2020-07-08T12:48:24Z</time>
      </trkpt>
      <trkpt lat="47.77374" lon="-3.5292">
        <ele>7.98</ele>
        <time>2020-07-08T12:48:25Z</time>
      </trkpt>
      <trkpt lat="47.77372" lon="-3.52917">
        <ele>7.88</ele>
        <time>2020-07-08T12:48:26Z</time>
      </trkpt>
      <trkpt lat="47.77369" lon="-3.52914">
        <ele>7.83</ele>
        <time>2020-07-08T12:48:27Z</time>
      </trkpt>
      <trkpt lat="47.77366" lon="-3.52911">
        <ele>7.77</ele>
        <time>2020-07-08T12:48:28Z</time>
      </trkpt>
      <trkpt lat="47.77364" lon="-3.52908">
        <ele>7.77</ele>
        <time>2020-07-08T12:48:29Z</time>
      </trkpt>
      <trkpt lat="47.77362" lon="-3.52904">
        <ele>7.89</ele>
        <time>2020-07-08T12:48:30Z</time>
      </trkpt>
      <trkpt lat="47.7736" lon="-3.52901">
        <ele>8.09</ele>
        <time>2020-07-08T12:48:31Z</time>
      </trkpt>
      <trkpt lat="47.77358" lon="-3.52898">
        <ele>8.24</ele>
        <time>2020-07-08T12:48:32Z</time>
      </trkpt>
      <trkpt lat="47.77355" lon="-3.52896">
        <ele>8.16</ele>
        <time>2020-07-08T12:48:33Z</time>
      </trkpt>
      <trkpt lat="47.77353" lon="-3.52894">
        <ele>8.05</ele>
        <time>2020-07-08T12:48:34Z</time>
      </trkpt>
      <trkpt lat="47.77352" lon="-3.52893">
        <ele>7.89</ele>
        <time>2020-07-08T12:48:35Z</time>
      </trkpt>
      <trkpt lat="47.77349" lon="-3.52893">
        <ele>7.56</ele>
        <time>2020-07-08T12:48:36Z</time>
      </trkpt>
      <trkpt lat="47.77346" lon="-3.52894">
        <ele>7.07</ele>
        <time>2020-07-08T12:48:37Z</time>
      </trkpt>
      <trkpt lat="47.77343" lon="-3.52895">
        <ele>6.56</ele>
        <time>2020-07-08T12:48:38Z</time>
      </trkpt>
      <trkpt lat="47.7734" lon="-3.52896">
        <ele>6.01</ele>
        <time>2020-07-08T12:48:39Z</time>
      </trkpt>
      <trkpt lat="47.77338" lon="-3.52899">
        <ele>5.48</ele>
        <time>2020-07-08T12:48:40Z</time>
      </trkpt>
      <trkpt lat="47.77335" lon="-3.529">
        <ele>5.03</ele>
        <time>2020-07-08T12:48:41Z</time>
      </trkpt>
      <trkpt lat="47.77332" lon="-3.52899">
        <ele>4.68</ele>
        <time>2020-07-08T12:48:42Z</time>
      </trkpt>
      <trkpt lat="47.77328" lon="-3.52898">
        <ele>4.49</ele>
        <time>2020-07-08T12:48:43Z</time>
      </trkpt>
      <trkpt lat="47.77325" lon="-3.52897">
        <ele>4.37</ele>
        <time>2020-07-08T12:48:44Z</time>
      </trkpt>
      <trkpt lat="47.77321" lon="-3.52895">
        <ele>4.29</ele>
        <time>2020-07-08T12:48:45Z</time>
      </trkpt>
      <trkpt lat="47.77318" lon="-3.52892">
        <ele>4.29</ele>
        <time>2020-07-08T12:48:46Z</time>
      </trkpt>
      <trkpt lat="47.77315" lon="-3.52889">
        <ele>4.33</ele>
        <time>2020-07-08T12:48:47Z</time>
      </trkpt>
      <trkpt lat="47.77312" lon="-3.52885">
        <ele>4.33</ele>
        <time>2020-07-08T12:48:48Z</time>
      </trkpt>
      <trkpt lat="47.77309" lon="-3.52882">
        <ele>4.25</ele>
        <time>2020-07-08T12:48:49Z</time>
      </trkpt>
      <trkpt lat="47.77307" lon="-3.52879">
        <ele>4.14</ele>
        <time>2020-07-08T12:48:50Z</time>
      </trkpt>
      <trkpt lat="47.77305" lon="-3.52876">
        <ele>4.03</ele>
        <time>2020-07-08T12:48:51Z</time>
      </trkpt>
      <trkpt lat="47.77302" lon="-3.52873">
        <ele>3.97</ele>
        <time>2020-07-08T12:48:52Z</time>
      </trkpt>
      <trkpt lat="47.77299" lon="-3.52869">
        <ele>3.94</ele>
        <time>2020-07-08T12:48:53Z</time>
      </trkpt>
      <trkpt lat="47.77296" lon="-3.52866">
        <ele>3.94</ele>
        <time>2020-07-08T12:48:54Z</time>
      </trkpt>
      <trkpt lat="47.77293" lon="-3.52863">
        <ele>3.97</ele>
        <time>2020-07-08T12:48:55Z</time>
      </trkpt>
      <trkpt lat="47.77291" lon="-3.52859">
        <ele>4.08</ele>
        <time>2020-07-08T12:48:56Z</time>
      </trkpt>
      <trkpt lat="47.77289" lon="-3.52856">
        <ele>4.27</ele>
        <time>2020-07-08T12:48:57Z</time>
      </trkpt>
      <trkpt lat="47.77287" lon="-3.52852">
        <ele>4.49</ele>
        <time>2020-07-08T12:48:58Z</time>
      </trkpt>
      <trkpt lat="47.77286" lon="-3.52847">
        <ele>4.7</ele>
        <time>2020-07-08T12:48:59Z</time>
      </trkpt>
      <trkpt lat="47.77284" lon="-3.52842">
        <ele>4.92</ele>
        <time>2020-07-08T12:49:00Z</time>
      </trkpt>
      <trkpt lat="47.77283" lon="-3.52837">
        <ele>5.11</ele>
        <time>2020-07-08T12:49:01Z</time>
      </trkpt>
      <trkpt lat="47.77281" lon="-3.52832">
        <ele>5.3</ele>
        <time>2020-07-08T12:49:02Z</time>
      </trkpt>
      <trkpt lat="47.7728" lon="-3.52828">
        <ele>5.72</ele>
        <time>2020-07-08T12:49:03Z</time>
      </trkpt>
      <trkpt lat="47.77278" lon="-3.52824">
        <ele>6.12</ele>
        <time>2020-07-08T12:49:04Z</time>
      </trkpt>
      <trkpt lat="47.77276" lon="-3.52821">
        <ele>6.51</ele>
        <time>2020-07-08T12:49:05Z</time>
      </trkpt>
      <trkpt lat="47.77274" lon="-3.52818">
        <ele>6.87</ele>
        <time>2020-07-08T12:49:06Z</time>
      </trkpt>
      <trkpt lat="47.77272" lon="-3.52816">
        <ele>7.17</ele>
        <time>2020-07-08T12:49:07Z</time>
      </trkpt>
      <trkpt lat="47.77269" lon="-3.52814">
        <ele>7.39</ele>
        <time>2020-07-08T12:49:08Z</time>
      </trkpt>
      <trkpt lat="47.77266" lon="-3.52813">
        <ele>7.52</ele>
        <time>2020-07-08T12:49:09Z</time>
      </trkpt>
      <trkpt lat="47.77264" lon="-3.52812">
        <ele>7.6</ele>
        <time>2020-07-08T12:49:10Z</time>
      </trkpt>
      <trkpt lat="47.77262" lon="-3.52811">
        <ele>7.66</ele>
        <time>2020-07-08T12:49:11Z</time>
      </trkpt>
      <trkpt lat="47.77262" lon="-3.52811">
        <ele>7.66</ele>
        <time>2020-07-08T12:49:12Z</time>
      </trkpt>
      <trkpt lat="47.77262" lon="-3.52811">
        <ele>7.64</ele>
        <time>2020-07-08T12:49:13Z</time>
      </trkpt>
      <trkpt lat="47.77262" lon="-3.52811">
        <ele>7.63</ele>
        <time>2020-07-08T12:49:14Z</time>
      </trkpt>
      <trkpt lat="47.77262" lon="-3.52811">
        <ele>7.63</ele>
        <time>2020-07-08T12:49:15Z</time>
      </trkpt>
      <trkpt lat="47.77262" lon="-3.52811">
        <ele>7.63</ele>
        <time>2020-07-08T12:49:16Z</time>
      </trkpt>
      <trkpt lat="47.77262" lon="-3.52811">
        <ele>7.63</ele>
        <time>2020-07-08T12:49:17Z</time>
      </trkpt>
      <trkpt lat="47.77262" lon="-3.52811">
        <ele>7.63</ele>
        <time>2020-07-08T12:49:18Z</time>
      </trkpt>
      <trkpt lat="47.77262" lon="-3.52811">
        <ele>7.63</ele>
        <time>2020-07-08T12:49:19Z</time>
      </trkpt>
      <trkpt lat="47.77262" lon="-3.52811">
        <ele>7.63</ele>
        <time>2020-07-08T12:49:20Z</time>
      </trkpt>
      <trkpt lat="47.77262" lon="-3.52811">
        <ele>7.63</ele>
        <time>2020-07-08T12:49:21Z</time>
      </trkpt>
      <trkpt lat="47.77262" lon="-3.52811">
        <ele>7.63</ele>
        <time>2020-07-08T12:49:22Z</time>
      </trkpt>
      <trkpt lat="47.77262" lon="-3.52811">
        <ele>7.63</ele>
        <time>2020-07-08T12:49:23Z</time>
      </trkpt>
      <trkpt lat="47.77262" lon="-3.52811">
        <ele>7.63</ele>
        <time>2020-07-08T12:49:24Z</time>
      </trkpt>
      <trkpt lat="47.77262" lon="-3.52811">
        <ele>7.63</ele>
        <time>2020-07-08T12:49:25Z</time>
      </trkpt>
      <trkpt lat="47.77262" lon="-3.52811">
        <ele>7.63</ele>
        <time>2020-07-08T12:49:26Z</time>
      </trkpt>
      <trkpt lat="47.77262" lon="-3.52811">
        <ele>7.63</ele>
        <time>2020-07-08T12:49:27Z</time>
      </trkpt>
      <trkpt lat="47.77262" lon="-3.52811">
        <ele>7.63</ele>
        <time>2020-07-08T12:49:28Z</time>
      </trkpt>
      <trkpt lat="47.77262" lon="-3.52811">
        <ele>7.63</ele>
        <time>2020-07-08T12:49:29Z</time>
      </trkpt>
      <trkpt lat="47.77262" lon="-3.52811">
        <ele>7.63</ele>
        <time>2020-07-08T12:49:30Z</time>
      </trkpt>
      <trkpt lat="47.77262" lon="-3.52811">
        <ele>7.63</ele>
        <time>2020-07-08T12:49:31Z</time>
      </trkpt>
      <trkpt lat="47.77262" lon="-3.52811">
        <ele>7.63</ele>
        <time>2020-07-08T12:49:32Z</time>
      </trkpt>
      <trkpt lat="47.77262" lon="-3.52811">
        <ele>7.63</ele>
        <time>2020-07-08T12:49:33Z</time>
      </trkpt>
      <trkpt lat="47.77262" lon="-3.52811">
        <ele>7.63</ele>
        <time>2020-07-08T12:49:34Z</time>
      </trkpt>
      <trkpt lat="47.77262" lon="-3.52811">
        <ele>7.63</ele>
        <time>2020-07-08T12:49:35Z</time>
      </trkpt>
      <trkpt lat="47.77262" lon="-3.52811">
        <ele>7.63</ele>
        <time>2020-07-08T12:49:36Z</time>
      </trkpt>
      <trkpt lat="47.77262" lon="-3.52811">
        <ele>7.63</ele>
        <time>2020-07-08T12:49:37Z</time>
      </trkpt>
      <trkpt lat="47.77262" lon="-3.52811">
        <ele>7.63</ele>
        <time>2020-07-08T12:49:38Z</time>
      </trkpt>
      <trkpt lat="47.77262" lon="-3.52811">
        <ele>7.63</ele>
        <time>2020-07-08T12:49:39Z</time>
      </trkpt>
      <trkpt lat="47.77262" lon="-3.52811">
        <ele>7.63</ele>
        <time>2020-07-08T12:49:40Z</time>
      </trkpt>
      <trkpt lat="47.77262" lon="-3.52811">
        <ele>7.63</ele>
        <time>2020-07-08T12:49:41Z</time>
      </trkpt>
      <trkpt lat="47.77262" lon="-3.52811">
        <ele>7.63</ele>
        <time>2020-07-08T12:49:42Z</time>
      </trkpt>
      <trkpt lat="47.77262" lon="-3.52811">
        <ele>7.63</ele>
        <time>2020-07-08T12:49:43Z</time>
      </trkpt>
      <trkpt lat="47.77262" lon="-3.52811">
        <ele>7.63</ele>
        <time>2020-07-08T12:49:44Z</time>
      </trkpt>
      <trkpt lat="47.77262" lon="-3.52811">
        <ele>7.63</ele>
        <time>2020-07-08T12:49:45Z</time>
      </trkpt>
      <trkpt lat="47.77262" lon="-3.52811">
        <ele>7.63</ele>
        <time>2020-07-08T12:49:46Z</time>
      </trkpt>
      <trkpt lat="47.77262" lon="-3.52811">
        <ele>7.63</ele>
        <time>2020-07-08T12:49:47Z</time>
      </trkpt>
      <trkpt lat="47.77262" lon="-3.52811">
        <ele>7.63</ele>
        <time>2020-07-08T12:49:48Z</time>
      </trkpt>
      <trkpt lat="47.77262" lon="-3.52811">
        <ele>7.63</ele>
        <time>2020-07-08T12:49:49Z</time>
      </trkpt>
      <trkpt lat="47.77262" lon="-3.52811">
        <ele>7.63</ele>
        <time>2020-07-08T12:49:50Z</time>
      </trkpt>
      <trkpt lat="47.77262" lon="-3.52811">
        <ele>7.63</ele>
        <time>2020-07-08T12:49:51Z</time>
      </trkpt>
      <trkpt lat="47.77262" lon="-3.52811">
        <ele>7.63</ele>
        <time>2020-07-08T12:49:52Z</time>
      </trkpt>
      <trkpt lat="47.77262" lon="-3.52811">
        <ele>7.63</ele>
        <time>2020-07-08T12:49:53Z</time>
      </trkpt>
      <trkpt lat="47.77262" lon="-3.52811">
        <ele>7.63</ele>
        <time>2020-07-08T12:49:54Z</time>
      </trkpt>
      <trkpt lat="47.77262" lon="-3.52811">
        <ele>7.63</ele>
        <time>2020-07-08T12:49:55Z</time>
      </trkpt>
      <trkpt lat="47.77262" lon="-3.52811">
        <ele>7.63</ele>
        <time>2020-07-08T12:49:56Z</time>
      </trkpt>
      <trkpt lat="47.77262" lon="-3.52811">
        <ele>7.63</ele>
        <time>2020-07-08T12:49:57Z</time>
      </trkpt>
      <trkpt lat="47.77262" lon="-3.52811">
        <ele>7.63</ele>
        <time>2020-07-08T12:49:58Z</time>
      </trkpt>
      <trkpt lat="47.77262" lon="-3.52811">
        <ele>7.63</ele>
        <time>2020-07-08T12:49:59Z</time>
      </trkpt>
      <trkpt lat="47.77262" lon="-3.52811">
        <ele>7.63</ele>
        <time>2020-07-08T12:50:00Z</time>
      </trkpt>
      <trkpt lat="47.77262" lon="-3.52811">
        <ele>7.63</ele>
        <time>2020-07-08T12:50:01Z</time>
      </trkpt>
      <trkpt lat="47.77262" lon="-3.52811">
        <ele>7.63</ele>
        <time>2020-07-08T12:50:02Z</time>
      </trkpt>
      <trkpt lat="47.77262" lon="-3.52811">
        <ele>7.63</ele>
        <time>2020-07-08T12:50:03Z</time>
      </trkpt>
      <trkpt lat="47.77262" lon="-3.52811">
        <ele>7.63</ele>
        <time>2020-07-08T12:50:04Z</time>
      </trkpt>
      <trkpt lat="47.77262" lon="-3.52811">
        <ele>7.63</ele>
        <time>2020-07-08T12:50:05Z</time>
      </trkpt>
      <trkpt lat="47.77262" lon="-3.52811">
        <ele>7.63</ele>
        <time>2020-07-08T12:50:06Z</time>
      </trkpt>
      <trkpt lat="47.77262" lon="-3.52811">
        <ele>7.63</ele>
        <time>2020-07-08T12:50:07Z</time>
      </trkpt>
      <trkpt lat="47.77262" lon="-3.52811">
        <ele>7.63</ele>
        <time>2020-07-08T12:50:08Z</time>
      </trkpt>
      <trkpt lat="47.77262" lon="-3.52811">
        <ele>7.63</ele>
        <time>2020-07-08T12:50:09Z</time>
      </trkpt>
      <trkpt lat="47.77262" lon="-3.52811">
        <ele>7.63</ele>
        <time>2020-07-08T12:50:10Z</time>
      </trkpt>
      <trkpt lat="47.77262" lon="-3.52811">
        <ele>7.63</ele>
        <time>2020-07-08T12:50:11Z</time>
      </trkpt>
      <trkpt lat="47.77262" lon="-3.52811">
        <ele>7.63</ele>
        <time>2020-07-08T12:50:12Z</time>
      </trkpt>
      <trkpt lat="47.77262" lon="-3.52811">
        <ele>7.63</ele>
        <time>2020-07-08T12:50:13Z</time>
      </trkpt>
      <trkpt lat="47.77262" lon="-3.52811">
        <ele>7.63</ele>
        <time>2020-07-08T12:50:14Z</time>
      </trkpt>
      <trkpt lat="47.77262" lon="-3.52811">
        <ele>7.63</ele>
        <time>2020-07-08T12:50:15Z</time>
      </trkpt>
      <trkpt lat="47.77262" lon="-3.52811">
        <ele>7.63</ele>
        <time>2020-07-08T12:50:16Z</time>
      </trkpt>
      <trkpt lat="47.77262" lon="-3.52811">
        <ele>7.63</ele>
        <time>2020-07-08T12:50:17Z</time>
      </trkpt>
      <trkpt lat="47.77262" lon="-3.52811">
        <ele>7.63</ele>
        <time>2020-07-08T12:50:18Z</time>
      </trkpt>
      <trkpt lat="47.77262" lon="-3.52811">
        <ele>7.63</ele>
        <time>2020-07-08T12:50:19Z</time>
      </trkpt>
      <trkpt lat="47.77262" lon="-3.52811">
        <ele>7.63</ele>
        <time>2020-07-08T12:50:20Z</time>
      </trkpt>
      <trkpt lat="47.77262" lon="-3.52811">
        <ele>7.63</ele>
        <time>2020-07-08T12:50:21Z</time>
      </trkpt>
      <trkpt lat="47.77262" lon="-3.52811">
        <ele>7.63</ele>
        <time>2020-07-08T12:50:22Z</time>
      </trkpt>
      <trkpt lat="47.77262" lon="-3.52811">
        <ele>7.63</ele>
        <time>2020-07-08T12:50:23Z</time>
      </trkpt>
      <trkpt lat="47.77262" lon="-3.52811">
        <ele>7.63</ele>
        <time>2020-07-08T12:50:24Z</time>
      </trkpt>
      <trkpt lat="47.77262" lon="-3.52811">
        <ele>7.63</ele>
        <time>2020-07-08T12:50:25Z</time>
      </trkpt>
      <trkpt lat="47.77262" lon="-3.52811">
        <ele>7.63</ele>
        <time>2020-07-08T12:50:26Z</time>
      </trkpt>
      <trkpt lat="47.77262" lon="-3.52811">
        <ele>7.63</ele>
        <time>2020-07-08T12:50:27Z</time>
      </trkpt>
      <trkpt lat="47.77262" lon="-3.52811">
        <ele>7.63</ele>
        <time>2020-07-08T12:50:28Z</time>
      </trkpt>
      <trkpt lat="47.77262" lon="-3.52811">
        <ele>7.63</ele>
        <time>2020-07-08T12:50:29Z</time>
      </trkpt>
      <trkpt lat="47.77262" lon="-3.52811">
        <ele>7.63</ele>
        <time>2020-07-08T12:50:30Z</time>
      </trkpt>
      <trkpt lat="47.77262" lon="-3.52811">
        <ele>7.63</ele>
        <time>2020-07-08T12:50:31Z</time>
      </trkpt>
      <trkpt lat="47.77262" lon="-3.52811">
        <ele>7.63</ele>
        <time>2020-07-08T12:50:32Z</time>
      </trkpt>
      <trkpt lat="47.77262" lon="-3.52811">
        <ele>7.63</ele>
        <time>2020-07-08T12:50:33Z</time>
      </trkpt>
      <trkpt lat="47.77262" lon="-3.52811">
        <ele>7.63</ele>
        <time>2020-07-08T12:50:34Z</time>
      </trkpt>
      <trkpt lat="47.77262" lon="-3.52811">
        <ele>7.63</ele>
        <time>2020-07-08T12:50:35Z</time>
      </trkpt>
      <trkpt lat="47.77262" lon="-3.52811">
        <ele>7.63</ele>
        <time>2020-07-08T12:50:36Z</time>
      </trkpt>
      <trkpt lat="47.77262" lon="-3.52811">
        <ele>7.63</ele>
        <time>2020-07-08T12:50:37Z</time>
      </trkpt>
      <trkpt lat="47.77262" lon="-3.52811">
        <ele>7.63</ele>
        <time>2020-07-08T12:50:38Z</time>
      </trkpt>
      <trkpt lat="47.77262" lon="-3.52811">
        <ele>7.63</ele>
        <time>2020-07-08T12:50:39Z</time>
      </trkpt>
      <trkpt lat="47.77262" lon="-3.52811">
        <ele>7.63</ele>
        <time>2020-07-08T12:50:40Z</time>
      </trkpt>
      <trkpt lat="47.77262" lon="-3.52811">
        <ele>7.63</ele>
        <time>2020-07-08T12:50:41Z</time>
      </trkpt>
      <trkpt lat="47.77262" lon="-3.52811">
        <ele>7.63</ele>
        <time>2020-07-08T12:50:42Z</time>
      </trkpt>
      <trkpt lat="47.77262" lon="-3.52811">
        <ele>7.63</ele>
        <time>2020-07-08T12:50:43Z</time>
      </trkpt>
      <trkpt lat="47.77262" lon="-3.52811">
        <ele>7.63</ele>
        <time>2020-07-08T12:50:44Z</time>
      </trkpt>
      <trkpt lat="47.77262" lon="-3.52811">
        <ele>7.63</ele>
        <time>2020-07-08T12:50:45Z</time>
      </trkpt>
      <trkpt lat="47.77262" lon="-3.52811">
        <ele>7.63</ele>
        <time>2020-07-08T12:50:46Z</time>
      </trkpt>
      <trkpt lat="47.77262" lon="-3.52811">
        <ele>7.63</ele>
        <time>2020-07-08T12:50:47Z</time>
      </trkpt>
      <trkpt lat="47.77262" lon="-3.52811">
        <ele>7.63</ele>
        <time>2020-07-08T12:50:48Z</time>
      </trkpt>
      <trkpt lat="47.77262" lon="-3.52811">
        <ele>7.63</ele>
        <time>2020-07-08T12:50:49Z</time>
      </trkpt>
      <trkpt lat="47.77262" lon="-3.52811">
        <ele>7.63</ele>
        <time>2020-07-08T12:50:50Z</time>
      </trkpt>
      <trkpt lat="47.77262" lon="-3.52811">
        <ele>7.63</ele>
        <time>2020-07-08T12:50:51Z</time>
      </trkpt>
      <trkpt lat="47.77262" lon="-3.52811">
        <ele>7.63</ele>
        <time>2020-07-08T12:50:52Z</time>
      </trkpt>
      <trkpt lat="47.77262" lon="-3.52811">
        <ele>7.63</ele>
        <time>2020-07-08T12:50:53Z</time>
      </trkpt>
      <trkpt lat="47.77262" lon="-3.52811">
        <ele>7.63</ele>
        <time>2020-07-08T12:50:54Z</time>
      </trkpt>
      <trkpt lat="47.77262" lon="-3.52811">
        <ele>7.63</ele>
        <time>2020-07-08T12:50:55Z</time>
      </trkpt>
      <trkpt lat="47.77262" lon="-3.52811">
        <ele>7.63</ele>
        <time>2020-07-08T12:50:56Z</time>
      </trkpt>
      <trkpt lat="47.77262" lon="-3.52811">
        <ele>7.63</ele>
        <time>2020-07-08T12:50:57Z</time>
      </trkpt>
      <trkpt lat="47.77262" lon="-3.52811">
        <ele>7.63</ele>
        <time>2020-07-08T12:50:58Z</time>
      </trkpt>
      <trkpt lat="47.77262" lon="-3.52811">
        <ele>7.63</ele>
        <time>2020-07-08T12:50:59Z</time>
      </trkpt>
      <trkpt lat="47.77262" lon="-3.52811">
        <ele>7.63</ele>
        <time>2020-07-08T12:51:00Z</time>
      </trkpt>
      <trkpt lat="47.77262" lon="-3.52811">
        <ele>7.63</ele>
        <time>2020-07-08T12:51:01Z</time>
      </trkpt>
      <trkpt lat="47.77262" lon="-3.52811">
        <ele>7.63</ele>
        <time>2020-07-08T12:51:02Z</time>
      </trkpt>
      <trkpt lat="47.77262" lon="-3.52811">
        <ele>7.63</ele>
        <time>2020-07-08T12:51:03Z</time>
      </trkpt>
      <trkpt lat="47.77262" lon="-3.52811">
        <ele>7.63</ele>
        <time>2020-07-08T12:51:04Z</time>
      </trkpt>
      <trkpt lat="47.77262" lon="-3.52811">
        <ele>7.63</ele>
        <time>2020-07-08T12:51:05Z</time>
      </trkpt>
      <trkpt lat="47.77262" lon="-3.52811">
        <ele>7.63</ele>
        <time>2020-07-08T12:51:06Z</time>
      </trkpt>
      <trkpt lat="47.77262" lon="-3.52811">
        <ele>7.63</ele>
        <time>2020-07-08T12:51:07Z</time>
      </trkpt>
      <trkpt lat="47.77262" lon="-3.52811">
        <ele>7.63</ele>
        <time>2020-07-08T12:51:08Z</time>
      </trkpt>
      <trkpt lat="47.77262" lon="-3.52811">
        <ele>7.63</ele>
        <time>2020-07-08T12:51:09Z</time>
      </trkpt>
      <trkpt lat="47.77262" lon="-3.52811">
        <ele>7.63</ele>
        <time>2020-07-08T12:51:10Z</time>
      </trkpt>
      <trkpt lat="47.77262" lon="-3.52811">
        <ele>7.63</ele>
        <time>2020-07-08T12:51:11Z</time>
      </trkpt>
      <trkpt lat="47.77262" lon="-3.52811">
        <ele>7.63</ele>
        <time>2020-07-08T12:51:12Z</time>
      </trkpt>
      <trkpt lat="47.77262" lon="-3.52811">
        <ele>7.63</ele>
        <time>2020-07-08T12:51:13Z</time>
      </trkpt>
      <trkpt lat="47.77262" lon="-3.52811">
        <ele>7.63</ele>
        <time>2020-07-08T12:51:14Z</time>
      </trkpt>
      <trkpt lat="47.77262" lon="-3.52811">
        <ele>7.63</ele>
        <time>2020-07-08T12:51:15Z</time>
      </trkpt>
      <trkpt lat="47.77262" lon="-3.52811">
        <ele>7.63</ele>
        <time>2020-07-08T12:51:16Z</time>
      </trkpt>
      <trkpt lat="47.77262" lon="-3.52811">
        <ele>7.63</ele>
        <time>2020-07-08T12:51:17Z</time>
      </trkpt>
      <trkpt lat="47.77262" lon="-3.52811">
        <ele>7.63</ele>
        <time>2020-07-08T12:51:18Z</time>
      </trkpt>
      <trkpt lat="47.77262" lon="-3.52811">
        <ele>7.63</ele>
        <time>2020-07-08T12:51:19Z</time>
      </trkpt>
      <trkpt lat="47.77262" lon="-3.52811">
        <ele>7.63</ele>
        <time>2020-07-08T12:51:20Z</time>
      </trkpt>
      <trkpt lat="47.77262" lon="-3.52811">
        <ele>7.63</ele>
        <time>2020-07-08T12:51:21Z</time>
      </trkpt>
      <trkpt lat="47.77262" lon="-3.52811">
        <ele>7.63</ele>
        <time>2020-07-08T12:51:22Z</time>
      </trkpt>
      <trkpt lat="47.77262" lon="-3.52811">
        <ele>7.63</ele>
        <time>2020-07-08T12:51:23Z</time>
      </trkpt>
      <trkpt lat="47.77262" lon="-3.52811">
        <ele>7.63</ele>
        <time>2020-07-08T12:51:24Z</time>
      </trkpt>
      <trkpt lat="47.77262" lon="-3.52811">
        <ele>7.63</ele>
        <time>2020-07-08T12:51:25Z</time>
      </trkpt>
      <trkpt lat="47.77262" lon="-3.52811">
        <ele>7.63</ele>
        <time>2020-07-08T12:51:26Z</time>
      </trkpt>
      <trkpt lat="47.77262" lon="-3.52811">
        <ele>7.63</ele>
        <time>2020-07-08T12:51:27Z</time>
      </trkpt>
      <trkpt lat="47.77262" lon="-3.52811">
        <ele>7.63</ele>
        <time>2020-07-08T12:51:28Z</time>
      </trkpt>
      <trkpt lat="47.77262" lon="-3.52811">
        <ele>7.63</ele>
        <time>2020-07-08T12:51:29Z</time>
      </trkpt>
      <trkpt lat="47.77262" lon="-3.52811">
        <ele>7.63</ele>
        <time>2020-07-08T12:51:30Z</time>
      </trkpt>
      <trkpt lat="47.77262" lon="-3.52811">
        <ele>7.63</ele>
        <time>2020-07-08T12:51:31Z</time>
      </trkpt>
      <trkpt lat="47.77262" lon="-3.52811">
        <ele>7.63</ele>
        <time>2020-07-08T12:51:32Z</time>
      </trkpt>
      <trkpt lat="47.77262" lon="-3.52811">
        <ele>7.63</ele>
        <time>2020-07-08T12:51:33Z</time>
      </trkpt>
      <trkpt lat="47.77262" lon="-3.52811">
        <ele>7.63</ele>
        <time>2020-07-08T12:51:34Z</time>
      </trkpt>
      <trkpt lat="47.77262" lon="-3.52811">
        <ele>7.63</ele>
        <time>2020-07-08T12:51:35Z</time>
      </trkpt>
      <trkpt lat="47.77262" lon="-3.52811">
        <ele>7.63</ele>
        <time>2020-07-08T12:51:36Z</time>
      </trkpt>
      <trkpt lat="47.77262" lon="-3.52811">
        <ele>7.63</ele>
        <time>2020-07-08T12:51:37Z</time>
      </trkpt>
      <trkpt lat="47.77262" lon="-3.52811">
        <ele>7.63</ele>
        <time>2020-07-08T12:51:38Z</time>
      </trkpt>
      <trkpt lat="47.77262" lon="-3.52811">
        <ele>7.63</ele>
        <time>2020-07-08T12:51:39Z</time>
      </trkpt>
      <trkpt lat="47.77262" lon="-3.52811">
        <ele>7.63</ele>
        <time>2020-07-08T12:51:40Z</time>
      </trkpt>
      <trkpt lat="47.77262" lon="-3.52811">
        <ele>7.63</ele>
        <time>2020-07-08T12:51:41Z</time>
      </trkpt>
      <trkpt lat="47.77262" lon="-3.52811">
        <ele>7.63</ele>
        <time>2020-07-08T12:51:42Z</time>
      </trkpt>
      <trkpt lat="47.77262" lon="-3.52811">
        <ele>7.63</ele>
        <time>2020-07-08T12:51:43Z</time>
      </trkpt>
      <trkpt lat="47.77262" lon="-3.52811">
        <ele>7.63</ele>
        <time>2020-07-08T12:51:44Z</time>
      </trkpt>
      <trkpt lat="47.77262" lon="-3.52811">
        <ele>7.63</ele>
        <time>2020-07-08T12:51:45Z</time>
      </trkpt>
      <trkpt lat="47.77262" lon="-3.52811">
        <ele>7.63</ele>
        <time>2020-07-08T12:51:46Z</time>
      </trkpt>
      <trkpt lat="47.77262" lon="-3.52811">
        <ele>7.63</ele>
        <time>2020-07-08T12:51:47Z</time>
      </trkpt>
      <trkpt lat="47.77262" lon="-3.52811">
        <ele>7.63</ele>
        <time>2020-07-08T12:51:48Z</time>
      </trkpt>
      <trkpt lat="47.77262" lon="-3.52811">
        <ele>7.63</ele>
        <time>2020-07-08T12:51:49Z</time>
      </trkpt>
      <trkpt lat="47.77262" lon="-3.52811">
        <ele>7.63</ele>
        <time>2020-07-08T12:51:50Z</time>
      </trkpt>
      <trkpt lat="47.77262" lon="-3.52811">
        <ele>7.63</ele>
        <time>2020-07-08T12:51:51Z</time>
      </trkpt>
      <trkpt lat="47.77262" lon="-3.52811">
        <ele>7.63</ele>
        <time>2020-07-08T12:51:52Z</time>
      </trkpt>
      <trkpt lat="47.77262" lon="-3.52811">
        <ele>7.63</ele>
        <time>2020-07-08T12:51:53Z</time>
      </trkpt>
      <trkpt lat="47.77262" lon="-3.52811">
        <ele>7.63</ele>
        <time>2020-07-08T12:51:54Z</time>
      </trkpt>
      <trkpt lat="47.77262" lon="-3.52811">
        <ele>7.63</ele>
        <time>2020-07-08T12:51:55Z</time>
      </trkpt>
      <trkpt lat="47.77262" lon="-3.52811">
        <ele>7.63</ele>
        <time>2020-07-08T12:51:56Z</time>
      </trkpt>
      <trkpt lat="47.77262" lon="-3.52811">
        <ele>7.63</ele>
        <time>2020-07-08T12:51:57Z</time>
      </trkpt>
      <trkpt lat="47.77262" lon="-3.52811">
        <ele>7.63</ele>
        <time>2020-07-08T12:51:58Z</time>
      </trkpt>
      <trkpt lat="47.77262" lon="-3.52811">
        <ele>7.63</ele>
        <time>2020-07-08T12:51:59Z</time>
      </trkpt>
      <trkpt lat="47.77262" lon="-3.52811">
        <ele>7.63</ele>
        <time>2020-07-08T12:52:00Z</time>
      </trkpt>
      <trkpt lat="47.77262" lon="-3.52811">
        <ele>7.63</ele>
        <time>2020-07-08T12:52:01Z</time>
      </trkpt>
      <trkpt lat="47.77262" lon="-3.5281">
        <ele>7.7</ele>
        <time>2020-07-08T12:52:02Z</time>
      </trkpt>
      <trkpt lat="47.77261" lon="-3.52809">
        <ele>7.85</ele>
        <time>2020-07-08T12:52:03Z</time>
      </trkpt>
      <trkpt lat="47.77259" lon="-3.52807">
        <ele>8.01</ele>
        <time>2020-07-08T12:52:04Z</time>
      </trkpt>
      <trkpt lat="47.77256" lon="-3.52806">
        <ele>8.14</ele>
        <time>2020-07-08T12:52:05Z</time>
      </trkpt>
      <trkpt lat="47.77254" lon="-3.52804">
        <ele>8.2</ele>
        <time>2020-07-08T12:52:06Z</time>
      </trkpt>
      <trkpt lat="47.77251" lon="-3.52802">
        <ele>8.26</ele>
        <time>2020-07-08T12:52:07Z</time>
      </trkpt>
      <trkpt lat="47.77249" lon="-3.528">
        <ele>8.37</ele>
        <time>2020-07-08T12:52:08Z</time>
      </trkpt>
      <trkpt lat="47.77247" lon="-3.52798">
        <ele>8.59</ele>
        <time>2020-07-08T12:52:09Z</time>
      </trkpt>
      <trkpt lat="47.77246" lon="-3.52795">
        <ele>8.86</ele>
        <time>2020-07-08T12:52:10Z</time>
      </trkpt>
      <trkpt lat="47.77244" lon="-3.52792">
        <ele>9.17</ele>
        <time>2020-07-08T12:52:11Z</time>
      </trkpt>
      <trkpt lat="47.77243" lon="-3.52788">
        <ele>9.5</ele>
        <time>2020-07-08T12:52:12Z</time>
      </trkpt>
      <trkpt lat="47.77242" lon="-3.52785">
        <ele>9.84</ele>
        <time>2020-07-08T12:52:13Z</time>
      </trkpt>
      <trkpt lat="47.77242" lon="-3.5278">
        <ele>10.21</ele>
        <time>2020-07-08T12:52:14Z</time>
      </trkpt>
      <trkpt lat="47.77241" lon="-3.52776">
        <ele>10.56</ele>
        <time>2020-07-08T12:52:15Z</time>
      </trkpt>
      <trkpt lat="47.77241" lon="-3.52771">
        <ele>10.76</ele>
        <time>2020-07-08T12:52:16Z</time>
      </trkpt>
      <trkpt lat="47.77241" lon="-3.52767">
        <ele>10.97</ele>
        <time>2020-07-08T12:52:17Z</time>
      </trkpt>
      <trkpt lat="47.7724" lon="-3.52762">
        <ele>11.17</ele>
        <time>2020-07-08T12:52:18Z</time>
      </trkpt>
      <trkpt lat="47.7724" lon="-3.52758">
        <ele>11.34</ele>
        <time>2020-07-08T12:52:19Z</time>
      </trkpt>
      <trkpt lat="47.77241" lon="-3.52753">
        <ele>11.49</ele>
        <time>2020-07-08T12:52:20Z</time>
      </trkpt>
      <trkpt lat="47.77241" lon="-3.52749">
        <ele>11.57</ele>
        <time>2020-07-08T12:52:21Z</time>
      </trkpt>
      <trkpt lat="47.77242" lon="-3.52744">
        <ele>11.52</ele>
        <time>2020-07-08T12:52:22Z</time>
      </trkpt>
      <trkpt lat="47.77243" lon="-3.5274">
        <ele>11.43</ele>
        <time>2020-07-08T12:52:23Z</time>
      </trkpt>
      <trkpt lat="47.77244" lon="-3.52735">
        <ele>11.36</ele>
        <time>2020-07-08T12:52:24Z</time>
      </trkpt>
      <trkpt lat="47.77245" lon="-3.52731">
        <ele>11.27</ele>
        <time>2020-07-08T12:52:25Z</time>
      </trkpt>
      <trkpt lat="47.77246" lon="-3.52727">
        <ele>11.2</ele>
        <time>2020-07-08T12:52:26Z</time>
      </trkpt>
      <trkpt lat="47.77246" lon="-3.52722">
        <ele>11.16</ele>
        <time>2020-07-08T12:52:27Z</time>
      </trkpt>
      <trkpt lat="47.77246" lon="-3.52718">
        <ele>10.89</ele>
        <time>2020-07-08T12:52:28Z</time>
      </trkpt>
      <trkpt lat="47.77247" lon="-3.52715">
        <ele>10.59</ele>
        <time>2020-07-08T12:52:29Z</time>
      </trkpt>
      <trkpt lat="47.77246" lon="-3.52711">
        <ele>10.3</ele>
        <time>2020-07-08T12:52:30Z</time>
      </trkpt>
      <trkpt lat="47.77246" lon="-3.52708">
        <ele>9.99</ele>
        <time>2020-07-08T12:52:31Z</time>
      </trkpt>
      <trkpt lat="47.77246" lon="-3.52704">
        <ele>9.66</ele>
        <time>2020-07-08T12:52:32Z</time>
      </trkpt>
      <trkpt lat="47.77246" lon="-3.52699">
        <ele>9.3</ele>
        <time>2020-07-08T12:52:33Z</time>
      </trkpt>
      <trkpt lat="47.77247" lon="-3.52695">
        <ele>8.93</ele>
        <time>2020-07-08T12:52:34Z</time>
      </trkpt>
      <trkpt lat="47.77247" lon="-3.5269">
        <ele>8.56</ele>
        <time>2020-07-08T12:52:35Z</time>
      </trkpt>
      <trkpt lat="47.77247" lon="-3.52685">
        <ele>8.25</ele>
        <time>2020-07-08T12:52:36Z</time>
      </trkpt>
      <trkpt lat="47.7725" lon="-3.52682">
        <ele>8.13</ele>
        <time>2020-07-08T12:52:37Z</time>
      </trkpt>
      <trkpt lat="47.77252" lon="-3.5268">
        <ele>8.21</ele>
        <time>2020-07-08T12:52:38Z</time>
      </trkpt>
      <trkpt lat="47.77254" lon="-3.52679">
        <ele>8.47</ele>
        <time>2020-07-08T12:52:39Z</time>
      </trkpt>
      <trkpt lat="47.77257" lon="-3.52679">
        <ele>8.82</ele>
        <time>2020-07-08T12:52:40Z</time>
      </trkpt>
      <trkpt lat="47.7726" lon="-3.52679">
        <ele>9.17</ele>
        <time>2020-07-08T12:52:41Z</time>
      </trkpt>
      <trkpt lat="47.77262" lon="-3.52679">
        <ele>9.55</ele>
        <time>2020-07-08T12:52:42Z</time>
      </trkpt>
      <trkpt lat="47.77264" lon="-3.52679">
        <ele>9.9</ele>
        <time>2020-07-08T12:52:43Z</time>
      </trkpt>
      <trkpt lat="47.77267" lon="-3.52679">
        <ele>10.22</ele>
        <time>2020-07-08T12:52:44Z</time>
      </trkpt>
      <trkpt lat="47.77269" lon="-3.52679">
        <ele>10.52</ele>
        <time>2020-07-08T12:52:45Z</time>
      </trkpt>
      <trkpt lat="47.77272" lon="-3.52678">
        <ele>10.91</ele>
        <time>2020-07-08T12:52:46Z</time>
      </trkpt>
      <trkpt lat="47.77274" lon="-3.52679">
        <ele>11.28</ele>
        <time>2020-07-08T12:52:47Z</time>
      </trkpt>
      <trkpt lat="47.77276" lon="-3.52679">
        <ele>11.63</ele>
        <time>2020-07-08T12:52:48Z</time>
      </trkpt>
      <trkpt lat="47.77279" lon="-3.52679">
        <ele>12</ele>
        <time>2020-07-08T12:52:49Z</time>
      </trkpt>
      <trkpt lat="47.77282" lon="-3.52679">
        <ele>12.34</ele>
        <time>2020-07-08T12:52:50Z</time>
      </trkpt>
      <trkpt lat="47.77284" lon="-3.52679">
        <ele>12.63</ele>
        <time>2020-07-08T12:52:51Z</time>
      </trkpt>
      <trkpt lat="47.77286" lon="-3.52679">
        <ele>12.91</ele>
        <time>2020-07-08T12:52:52Z</time>
      </trkpt>
      <trkpt lat="47.77288" lon="-3.5268">
        <ele>13.16</ele>
        <time>2020-07-08T12:52:53Z</time>
      </trkpt>
      <trkpt lat="47.7729" lon="-3.52681">
        <ele>13.41</ele>
        <time>2020-07-08T12:52:54Z</time>
      </trkpt>
      <trkpt lat="47.77292" lon="-3.52682">
        <ele>13.66</ele>
        <time>2020-07-08T12:52:55Z</time>
      </trkpt>
      <trkpt lat="47.77294" lon="-3.52682">
        <ele>13.9</ele>
        <time>2020-07-08T12:52:56Z</time>
      </trkpt>
      <trkpt lat="47.77296" lon="-3.52682">
        <ele>14.11</ele>
        <time>2020-07-08T12:52:57Z</time>
      </trkpt>
      <trkpt lat="47.77298" lon="-3.52681">
        <ele>14.37</ele>
        <time>2020-07-08T12:52:58Z</time>
      </trkpt>
      <trkpt lat="47.773" lon="-3.52681">
        <ele>14.65</ele>
        <time>2020-07-08T12:52:59Z</time>
      </trkpt>
      <trkpt lat="47.77302" lon="-3.5268">
        <ele>14.95</ele>
        <time>2020-07-08T12:53:00Z</time>
      </trkpt>
      <trkpt lat="47.77305" lon="-3.5268">
        <ele>15.25</ele>
        <time>2020-07-08T12:53:01Z</time>
      </trkpt>
      <trkpt lat="47.77307" lon="-3.5268">
        <ele>15.52</ele>
        <time>2020-07-08T12:53:02Z</time>
      </trkpt>
      <trkpt lat="47.77309" lon="-3.5268">
        <ele>15.78</ele>
        <time>2020-07-08T12:53:03Z</time>
      </trkpt>
      <trkpt lat="47.77311" lon="-3.52679">
        <ele>16.04</ele>
        <time>2020-07-08T12:53:04Z</time>
      </trkpt>
      <trkpt lat="47.77313" lon="-3.52679">
        <ele>16.28</ele>
        <time>2020-07-08T12:53:05Z</time>
      </trkpt>
      <trkpt lat="47.77316" lon="-3.52679">
        <ele>16.51</ele>
        <time>2020-07-08T12:53:06Z</time>
      </trkpt>
      <trkpt lat="47.77318" lon="-3.5268">
        <ele>16.76</ele>
        <time>2020-07-08T12:53:07Z</time>
      </trkpt>
      <trkpt lat="47.7732" lon="-3.5268">
        <ele>17.01</ele>
        <time>2020-07-08T12:53:08Z</time>
      </trkpt>
      <trkpt lat="47.77323" lon="-3.52681">
        <ele>17.27</ele>
        <time>2020-07-08T12:53:09Z</time>
      </trkpt>
      <trkpt lat="47.77325" lon="-3.52681">
        <ele>17.51</ele>
        <time>2020-07-08T12:53:10Z</time>
      </trkpt>
      <trkpt lat="47.77327" lon="-3.52682">
        <ele>17.71</ele>
        <time>2020-07-08T12:53:11Z</time>
      </trkpt>
      <trkpt lat="47.77329" lon="-3.52683">
        <ele>17.91</ele>
        <time>2020-07-08T12:53:12Z</time>
      </trkpt>
      <trkpt lat="47.77332" lon="-3.52684">
        <ele>18.11</ele>
        <time>2020-07-08T12:53:13Z</time>
      </trkpt>
      <trkpt lat="47.77333" lon="-3.52684">
        <ele>18.3</ele>
        <time>2020-07-08T12:53:14Z</time>
      </trkpt>
      <trkpt lat="47.77336" lon="-3.52685">
        <ele>18.48</ele>
        <time>2020-07-08T12:53:15Z</time>
      </trkpt>
      <trkpt lat="47.77338" lon="-3.52686">
        <ele>18.64</ele>
        <time>2020-07-08T12:53:16Z</time>
      </trkpt>
      <trkpt lat="47.7734" lon="-3.52687">
        <ele>18.85</ele>
        <time>2020-07-08T12:53:17Z</time>
      </trkpt>
      <trkpt lat="47.77342" lon="-3.52688">
        <ele>19.06</ele>
        <time>2020-07-08T12:53:18Z</time>
      </trkpt>
      <trkpt lat="47.77345" lon="-3.52689">
        <ele>19.27</ele>
        <time>2020-07-08T12:53:19Z</time>
      </trkpt>
      <trkpt lat="47.77347" lon="-3.52689">
        <ele>19.48</ele>
        <time>2020-07-08T12:53:20Z</time>
      </trkpt>
      <trkpt lat="47.77349" lon="-3.52691">
        <ele>19.69</ele>
        <time>2020-07-08T12:53:21Z</time>
      </trkpt>
      <trkpt lat="47.77351" lon="-3.52692">
        <ele>19.89</ele>
        <time>2020-07-08T12:53:22Z</time>
      </trkpt>
      <trkpt lat="47.77353" lon="-3.52694">
        <ele>20.1</ele>
        <time>2020-07-08T12:53:23Z</time>
      </trkpt>
      <trkpt lat="47.77356" lon="-3.52695">
        <ele>20.32</ele>
        <time>2020-07-08T12:53:24Z</time>
      </trkpt>
      <trkpt lat="47.77358" lon="-3.52696">
        <ele>20.56</ele>
        <time>2020-07-08T12:53:25Z</time>
      </trkpt>
      <trkpt lat="47.7736" lon="-3.52697">
        <ele>20.78</ele>
        <time>2020-07-08T12:53:26Z</time>
      </trkpt>
      <trkpt lat="47.77362" lon="-3.52698">
        <ele>21.03</ele>
        <time>2020-07-08T12:53:27Z</time>
      </trkpt>
      <trkpt lat="47.77365" lon="-3.52699">
        <ele>21.28</ele>
        <time>2020-07-08T12:53:28Z</time>
      </trkpt>
      <trkpt lat="47.77367" lon="-3.52699">
        <ele>21.52</ele>
        <time>2020-07-08T12:53:29Z</time>
      </trkpt>
      <trkpt lat="47.77369" lon="-3.527">
        <ele>21.78</ele>
        <time>2020-07-08T12:53:30Z</time>
      </trkpt>
      <trkpt lat="47.77372" lon="-3.527">
        <ele>22.07</ele>
        <time>2020-07-08T12:53:31Z</time>
      </trkpt>
      <trkpt lat="47.77375" lon="-3.52701">
        <ele>22.35</ele>
        <time>2020-07-08T12:53:32Z</time>
      </trkpt>
      <trkpt lat="47.77377" lon="-3.52701">
        <ele>22.6</ele>
        <time>2020-07-08T12:53:33Z</time>
      </trkpt>
      <trkpt lat="47.77379" lon="-3.52701">
        <ele>22.85</ele>
        <time>2020-07-08T12:53:34Z</time>
      </trkpt>
      <trkpt lat="47.77382" lon="-3.52701">
        <ele>23.1</ele>
        <time>2020-07-08T12:53:35Z</time>
      </trkpt>
      <trkpt lat="47.77384" lon="-3.52701">
        <ele>23.33</ele>
        <time>2020-07-08T12:53:36Z</time>
      </trkpt>
      <trkpt lat="47.77386" lon="-3.52702">
        <ele>23.58</ele>
        <time>2020-07-08T12:53:37Z</time>
      </trkpt>
      <trkpt lat="47.77388" lon="-3.52702">
        <ele>23.85</ele>
        <time>2020-07-08T12:53:38Z</time>
      </trkpt>
      <trkpt lat="47.77391" lon="-3.52702">
        <ele>24.02</ele>
        <time>2020-07-08T12:53:39Z</time>
      </trkpt>
      <trkpt lat="47.77393" lon="-3.52702">
        <ele>24.14</ele>
        <time>2020-07-08T12:53:40Z</time>
      </trkpt>
      <trkpt lat="47.77395" lon="-3.52703">
        <ele>24.25</ele>
        <time>2020-07-08T12:53:41Z</time>
      </trkpt>
      <trkpt lat="47.77398" lon="-3.52703">
        <ele>24.37</ele>
        <time>2020-07-08T12:53:42Z</time>
      </trkpt>
      <trkpt lat="47.77401" lon="-3.52703">
        <ele>24.49</ele>
        <time>2020-07-08T12:53:43Z</time>
      </trkpt>
      <trkpt lat="47.77403" lon="-3.52702">
        <ele>24.6</ele>
        <time>2020-07-08T12:53:44Z</time>
      </trkpt>
      <trkpt lat="47.77405" lon="-3.52703">
        <ele>24.72</ele>
        <time>2020-07-08T12:53:45Z</time>
      </trkpt>
      <trkpt lat="47.77408" lon="-3.52704">
        <ele>24.84</ele>
        <time>2020-07-08T12:53:46Z</time>
      </trkpt>
      <trkpt lat="47.7741" lon="-3.52704">
        <ele>24.96</ele>
        <time>2020-07-08T12:53:47Z</time>
      </trkpt>
      <trkpt lat="47.77412" lon="-3.52704">
        <ele>25.09</ele>
        <time>2020-07-08T12:53:48Z</time>
      </trkpt>
      <trkpt lat="47.77415" lon="-3.52705">
        <ele>25.22</ele>
        <time>2020-07-08T12:53:49Z</time>
      </trkpt>
      <trkpt lat="47.77418" lon="-3.52705">
        <ele>25.32</ele>
        <time>2020-07-08T12:53:50Z</time>
      </trkpt>
      <trkpt lat="47.77421" lon="-3.52705">
        <ele>25.33</ele>
        <time>2020-07-08T12:53:51Z</time>
      </trkpt>
      <trkpt lat="47.77425" lon="-3.52706">
        <ele>25.3</ele>
        <time>2020-07-08T12:53:52Z</time>
      </trkpt>
      <trkpt lat="47.7743" lon="-3.52705">
        <ele>25.23</ele>
        <time>2020-07-08T12:53:53Z</time>
      </trkpt>
      <trkpt lat="47.77435" lon="-3.52704">
        <ele>25.15</ele>
        <time>2020-07-08T12:53:54Z</time>
      </trkpt>
      <trkpt lat="47.77441" lon="-3.52704">
        <ele>25.08</ele>
        <time>2020-07-08T12:53:55Z</time>
      </trkpt>
      <trkpt lat="47.77446" lon="-3.52704">
        <ele>24.96</ele>
        <time>2020-07-08T12:53:56Z</time>
      </trkpt>
      <trkpt lat="47.77452" lon="-3.52704">
        <ele>24.73</ele>
        <time>2020-07-08T12:53:57Z</time>
      </trkpt>
      <trkpt lat="47.77458" lon="-3.52705">
        <ele>24.45</ele>
        <time>2020-07-08T12:53:58Z</time>
      </trkpt>
      <trkpt lat="47.77464" lon="-3.52706">
        <ele>24.15</ele>
        <time>2020-07-08T12:53:59Z</time>
      </trkpt>
      <trkpt lat="47.7747" lon="-3.52707">
        <ele>23.84</ele>
        <time>2020-07-08T12:54:00Z</time>
      </trkpt>
      <trkpt lat="47.77475" lon="-3.52708">
        <ele>23.69</ele>
        <time>2020-07-08T12:54:01Z</time>
      </trkpt>
      <trkpt lat="47.7748" lon="-3.52709">
        <ele>23.75</ele>
        <time>2020-07-08T12:54:02Z</time>
      </trkpt>
      <trkpt lat="47.77486" lon="-3.52709">
        <ele>23.89</ele>
        <time>2020-07-08T12:54:03Z</time>
      </trkpt>
      <trkpt lat="47.7749" lon="-3.5271">
        <ele>24.03</ele>
        <time>2020-07-08T12:54:04Z</time>
      </trkpt>
      <trkpt lat="47.77495" lon="-3.52711">
        <ele>24.18</ele>
        <time>2020-07-08T12:54:05Z</time>
      </trkpt>
      <trkpt lat="47.77499" lon="-3.52711">
        <ele>24.33</ele>
        <time>2020-07-08T12:54:06Z</time>
      </trkpt>
      <trkpt lat="47.77503" lon="-3.52711">
        <ele>24.5</ele>
        <time>2020-07-08T12:54:07Z</time>
      </trkpt>
      <trkpt lat="47.77507" lon="-3.52711">
        <ele>24.66</ele>
        <time>2020-07-08T12:54:08Z</time>
      </trkpt>
      <trkpt lat="47.77511" lon="-3.52712">
        <ele>24.84</ele>
        <time>2020-07-08T12:54:09Z</time>
      </trkpt>
      <trkpt lat="47.77514" lon="-3.52712">
        <ele>25.01</ele>
        <time>2020-07-08T12:54:10Z</time>
      </trkpt>
      <trkpt lat="47.77518" lon="-3.52712">
        <ele>25.16</ele>
        <time>2020-07-08T12:54:11Z</time>
      </trkpt>
      <trkpt lat="47.77522" lon="-3.52712">
        <ele>25.32</ele>
        <time>2020-07-08T12:54:12Z</time>
      </trkpt>
      <trkpt lat="47.77525" lon="-3.52713">
        <ele>25.49</ele>
        <time>2020-07-08T12:54:13Z</time>
      </trkpt>
      <trkpt lat="47.77529" lon="-3.52713">
        <ele>25.68</ele>
        <time>2020-07-08T12:54:14Z</time>
      </trkpt>
      <trkpt lat="47.77533" lon="-3.52714">
        <ele>25.96</ele>
        <time>2020-07-08T12:54:15Z</time>
      </trkpt>
      <trkpt lat="47.77536" lon="-3.52714">
        <ele>26.29</ele>
        <time>2020-07-08T12:54:16Z</time>
      </trkpt>
      <trkpt lat="47.7754" lon="-3.52714">
        <ele>26.64</ele>
        <time>2020-07-08T12:54:17Z</time>
      </trkpt>
      <trkpt lat="47.77544" lon="-3.52715">
        <ele>26.98</ele>
        <time>2020-07-08T12:54:18Z</time>
      </trkpt>
      <trkpt lat="47.77547" lon="-3.52715">
        <ele>27.32</ele>
        <time>2020-07-08T12:54:19Z</time>
      </trkpt>
      <trkpt lat="47.77551" lon="-3.52715">
        <ele>27.67</ele>
        <time>2020-07-08T12:54:20Z</time>
      </trkpt>
      <trkpt lat="47.77555" lon="-3.52716">
        <ele>28.02</ele>
        <time>2020-07-08T12:54:21Z</time>
      </trkpt>
      <trkpt lat="47.77559" lon="-3.52717">
        <ele>28.32</ele>
        <time>2020-07-08T12:54:22Z</time>
      </trkpt>
      <trkpt lat="47.77562" lon="-3.52717">
        <ele>28.58</ele>
        <time>2020-07-08T12:54:23Z</time>
      </trkpt>
      <trkpt lat="47.77566" lon="-3.52717">
        <ele>28.83</ele>
        <time>2020-07-08T12:54:24Z</time>
      </trkpt>
      <trkpt lat="47.7757" lon="-3.52718">
        <ele>29.1</ele>
        <time>2020-07-08T12:54:25Z</time>
      </trkpt>
      <trkpt lat="47.77574" lon="-3.52718">
        <ele>29.36</ele>
        <time>2020-07-08T12:54:26Z</time>
      </trkpt>
      <trkpt lat="47.77577" lon="-3.52718">
        <ele>29.61</ele>
        <time>2020-07-08T12:54:27Z</time>
      </trkpt>
      <trkpt lat="47.77581" lon="-3.52718">
        <ele>29.87</ele>
        <time>2020-07-08T12:54:28Z</time>
      </trkpt>
      <trkpt lat="47.77585" lon="-3.52719">
        <ele>30.04</ele>
        <time>2020-07-08T12:54:29Z</time>
      </trkpt>
      <trkpt lat="47.77589" lon="-3.5272">
        <ele>30.08</ele>
        <time>2020-07-08T12:54:30Z</time>
      </trkpt>
      <trkpt lat="47.77593" lon="-3.52721">
        <ele>30.08</ele>
        <time>2020-07-08T12:54:31Z</time>
      </trkpt>
      <trkpt lat="47.77597" lon="-3.52721">
        <ele>30.08</ele>
        <time>2020-07-08T12:54:32Z</time>
      </trkpt>
      <trkpt lat="47.77601" lon="-3.52721">
        <ele>30.07</ele>
        <time>2020-07-08T12:54:33Z</time>
      </trkpt>
      <trkpt lat="47.77604" lon="-3.52721">
        <ele>30.08</ele>
        <time>2020-07-08T12:54:34Z</time>
      </trkpt>
      <trkpt lat="47.77608" lon="-3.52721">
        <ele>30.09</ele>
        <time>2020-07-08T12:54:35Z</time>
      </trkpt>
      <trkpt lat="47.77611" lon="-3.5272">
        <ele>30.15</ele>
        <time>2020-07-08T12:54:36Z</time>
      </trkpt>
      <trkpt lat="47.77613" lon="-3.52717">
        <ele>30.28</ele>
        <time>2020-07-08T12:54:37Z</time>
      </trkpt>
      <trkpt lat="47.77615" lon="-3.52714">
        <ele>30.49</ele>
        <time>2020-07-08T12:54:38Z</time>
      </trkpt>
      <trkpt lat="47.77616" lon="-3.52709">
        <ele>30.77</ele>
        <time>2020-07-08T12:54:39Z</time>
      </trkpt>
      <trkpt lat="47.77617" lon="-3.52704">
        <ele>31.08</ele>
        <time>2020-07-08T12:54:40Z</time>
      </trkpt>
      <trkpt lat="47.77617" lon="-3.52698">
        <ele>31.41</ele>
        <time>2020-07-08T12:54:41Z</time>
      </trkpt>
      <trkpt lat="47.77617" lon="-3.52692">
        <ele>31.69</ele>
        <time>2020-07-08T12:54:42Z</time>
      </trkpt>
      <trkpt lat="47.77617" lon="-3.52686">
        <ele>31.81</ele>
        <time>2020-07-08T12:54:43Z</time>
      </trkpt>
      <trkpt lat="47.77617" lon="-3.5268">
        <ele>31.88</ele>
        <time>2020-07-08T12:54:44Z</time>
      </trkpt>
      <trkpt lat="47.77617" lon="-3.52674">
        <ele>31.93</ele>
        <time>2020-07-08T12:54:45Z</time>
      </trkpt>
      <trkpt lat="47.77616" lon="-3.52669">
        <ele>31.97</ele>
        <time>2020-07-08T12:54:46Z</time>
      </trkpt>
      <trkpt lat="47.77617" lon="-3.52663">
        <ele>32.08</ele>
        <time>2020-07-08T12:54:47Z</time>
      </trkpt>
      <trkpt lat="47.77617" lon="-3.52657">
        <ele>32.26</ele>
        <time>2020-07-08T12:54:48Z</time>
      </trkpt>
      <trkpt lat="47.77617" lon="-3.52652">
        <ele>32.46</ele>
        <time>2020-07-08T12:54:49Z</time>
      </trkpt>
      <trkpt lat="47.77617" lon="-3.52646">
        <ele>32.67</ele>
        <time>2020-07-08T12:54:50Z</time>
      </trkpt>
      <trkpt lat="47.77616" lon="-3.52639">
        <ele>32.89</ele>
        <time>2020-07-08T12:54:51Z</time>
      </trkpt>
      <trkpt lat="47.77616" lon="-3.52633">
        <ele>32.99</ele>
        <time>2020-07-08T12:54:52Z</time>
      </trkpt>
      <trkpt lat="47.77616" lon="-3.52627">
        <ele>33.04</ele>
        <time>2020-07-08T12:54:53Z</time>
      </trkpt>
      <trkpt lat="47.77615" lon="-3.52622">
        <ele>33.08</ele>
        <time>2020-07-08T12:54:54Z</time>
      </trkpt>
      <trkpt lat="47.77615" lon="-3.52616">
        <ele>33.11</ele>
        <time>2020-07-08T12:54:55Z</time>
      </trkpt>
      <trkpt lat="47.77616" lon="-3.52611">
        <ele>33.15</ele>
        <time>2020-07-08T12:54:56Z</time>
      </trkpt>
      <trkpt lat="47.77616" lon="-3.52606">
        <ele>33.18</ele>
        <time>2020-07-08T12:54:57Z</time>
      </trkpt>
      <trkpt lat="47.77618" lon="-3.52601">
        <ele>33.23</ele>
        <time>2020-07-08T12:54:58Z</time>
      </trkpt>
      <trkpt lat="47.77621" lon="-3.52598">
        <ele>33.31</ele>
        <time>2020-07-08T12:54:59Z</time>
      </trkpt>
      <trkpt lat="47.77625" lon="-3.52596">
        <ele>33.44</ele>
        <time>2020-07-08T12:55:00Z</time>
      </trkpt>
      <trkpt lat="47.77628" lon="-3.52596">
        <ele>33.57</ele>
        <time>2020-07-08T12:55:01Z</time>
      </trkpt>
      <trkpt lat="47.77633" lon="-3.52597">
        <ele>33.71</ele>
        <time>2020-07-08T12:55:02Z</time>
      </trkpt>
      <trkpt lat="47.77637" lon="-3.52599">
        <ele>33.86</ele>
        <time>2020-07-08T12:55:03Z</time>
      </trkpt>
      <trkpt lat="47.77641" lon="-3.526">
        <ele>33.98</ele>
        <time>2020-07-08T12:55:04Z</time>
      </trkpt>
      <trkpt lat="47.77645" lon="-3.52602">
        <ele>34.05</ele>
        <time>2020-07-08T12:55:05Z</time>
      </trkpt>
      <trkpt lat="47.77649" lon="-3.52604">
        <ele>34.08</ele>
        <time>2020-07-08T12:55:06Z</time>
      </trkpt>
      <trkpt lat="47.77653" lon="-3.52606">
        <ele>34.09</ele>
        <time>2020-07-08T12:55:07Z</time>
      </trkpt>
      <trkpt lat="47.77657" lon="-3.52607">
        <ele>34.08</ele>
        <time>2020-07-08T12:55:08Z</time>
      </trkpt>
      <trkpt lat="47.77661" lon="-3.52609">
        <ele>34.07</ele>
        <time>2020-07-08T12:55:09Z</time>
      </trkpt>
      <trkpt lat="47.77665" lon="-3.5261">
        <ele>34.06</ele>
        <time>2020-07-08T12:55:10Z</time>
      </trkpt>
      <trkpt lat="47.77669" lon="-3.52612">
        <ele>34.07</ele>
        <time>2020-07-08T12:55:11Z</time>
      </trkpt>
      <trkpt lat="47.77673" lon="-3.52613">
        <ele>34.12</ele>
        <time>2020-07-08T12:55:12Z</time>
      </trkpt>
      <trkpt lat="47.77676" lon="-3.52617">
        <ele>34.13</ele>
        <time>2020-07-08T12:55:13Z</time>
      </trkpt>
      <trkpt lat="47.77681" lon="-3.52617">
        <ele>34.24</ele>
        <time>2020-07-08T12:55:14Z</time>
      </trkpt>
      <trkpt lat="47.77686" lon="-3.52619">
        <ele>34.36</ele>
        <time>2020-07-08T12:55:15Z</time>
      </trkpt>
      <trkpt lat="47.77691" lon="-3.52621">
        <ele>34.47</ele>
        <time>2020-07-08T12:55:16Z</time>
      </trkpt>
      <trkpt lat="47.77695" lon="-3.52623">
        <ele>34.57</ele>
        <time>2020-07-08T12:55:17Z</time>
      </trkpt>
      <trkpt lat="47.777" lon="-3.52624">
        <ele>34.67</ele>
        <time>2020-07-08T12:55:18Z</time>
      </trkpt>
      <trkpt lat="47.77704" lon="-3.52626">
        <ele>34.77</ele>
        <time>2020-07-08T12:55:19Z</time>
      </trkpt>
      <trkpt lat="47.77709" lon="-3.52628">
        <ele>34.86</ele>
        <time>2020-07-08T12:55:20Z</time>
      </trkpt>
      <trkpt lat="47.77713" lon="-3.5263">
        <ele>34.96</ele>
        <time>2020-07-08T12:55:21Z</time>
      </trkpt>
      <trkpt lat="47.77718" lon="-3.52632">
        <ele>35.06</ele>
        <time>2020-07-08T12:55:22Z</time>
      </trkpt>
      <trkpt lat="47.77723" lon="-3.52633">
        <ele>35.18</ele>
        <time>2020-07-08T12:55:23Z</time>
      </trkpt>
      <trkpt lat="47.77728" lon="-3.52635">
        <ele>35.4</ele>
        <time>2020-07-08T12:55:24Z</time>
      </trkpt>
      <trkpt lat="47.77733" lon="-3.52637">
        <ele>35.67</ele>
        <time>2020-07-08T12:55:25Z</time>
      </trkpt>
      <trkpt lat="47.77737" lon="-3.52639">
        <ele>35.97</ele>
        <time>2020-07-08T12:55:26Z</time>
      </trkpt>
      <trkpt lat="47.77742" lon="-3.5264">
        <ele>36.25</ele>
        <time>2020-07-08T12:55:27Z</time>
      </trkpt>
      <trkpt lat="47.77747" lon="-3.52642">
        <ele>36.54</ele>
        <time>2020-07-08T12:55:28Z</time>
      </trkpt>
      <trkpt lat="47.77752" lon="-3.52644">
        <ele>36.78</ele>
        <time>2020-07-08T12:55:29Z</time>
      </trkpt>
      <trkpt lat="47.77757" lon="-3.52646">
        <ele>36.93</ele>
        <time>2020-07-08T12:55:30Z</time>
      </trkpt>
      <trkpt lat="47.77762" lon="-3.52648">
        <ele>37.04</ele>
        <time>2020-07-08T12:55:31Z</time>
      </trkpt>
      <trkpt lat="47.77766" lon="-3.5265">
        <ele>37.13</ele>
        <time>2020-07-08T12:55:32Z</time>
      </trkpt>
      <trkpt lat="47.77771" lon="-3.52652">
        <ele>37.24</ele>
        <time>2020-07-08T12:55:33Z</time>
      </trkpt>
      <trkpt lat="47.77776" lon="-3.52654">
        <ele>37.34</ele>
        <time>2020-07-08T12:55:34Z</time>
      </trkpt>
      <trkpt lat="47.77781" lon="-3.52656">
        <ele>37.45</ele>
        <time>2020-07-08T12:55:35Z</time>
      </trkpt>
      <trkpt lat="47.77786" lon="-3.52658">
        <ele>37.56</ele>
        <time>2020-07-08T12:55:36Z</time>
      </trkpt>
      <trkpt lat="47.77791" lon="-3.5266">
        <ele>37.67</ele>
        <time>2020-07-08T12:55:37Z</time>
      </trkpt>
      <trkpt lat="47.77796" lon="-3.52662">
        <ele>37.78</ele>
        <time>2020-07-08T12:55:38Z</time>
      </trkpt>
      <trkpt lat="47.77801" lon="-3.52664">
        <ele>37.88</ele>
        <time>2020-07-08T12:55:39Z</time>
      </trkpt>
      <trkpt lat="47.77805" lon="-3.52666">
        <ele>37.98</ele>
        <time>2020-07-08T12:55:40Z</time>
      </trkpt>
      <trkpt lat="47.77811" lon="-3.52668">
        <ele>38.1</ele>
        <time>2020-07-08T12:55:41Z</time>
      </trkpt>
      <trkpt lat="47.77815" lon="-3.52669">
        <ele>38.23</ele>
        <time>2020-07-08T12:55:42Z</time>
      </trkpt>
      <trkpt lat="47.7782" lon="-3.52671">
        <ele>38.38</ele>
        <time>2020-07-08T12:55:43Z</time>
      </trkpt>
      <trkpt lat="47.77825" lon="-3.52673">
        <ele>38.56</ele>
        <time>2020-07-08T12:55:44Z</time>
      </trkpt>
      <trkpt lat="47.7783" lon="-3.52675">
        <ele>38.75</ele>
        <time>2020-07-08T12:55:45Z</time>
      </trkpt>
      <trkpt lat="47.77835" lon="-3.52677">
        <ele>38.96</ele>
        <time>2020-07-08T12:55:46Z</time>
      </trkpt>
      <trkpt lat="47.7784" lon="-3.52679">
        <ele>39.15</ele>
        <time>2020-07-08T12:55:47Z</time>
      </trkpt>
      <trkpt lat="47.77845" lon="-3.52682">
        <ele>39.33</ele>
        <time>2020-07-08T12:55:48Z</time>
      </trkpt>
      <trkpt lat="47.7785" lon="-3.52684">
        <ele>39.51</ele>
        <time>2020-07-08T12:55:49Z</time>
      </trkpt>
      <trkpt lat="47.77855" lon="-3.52685">
        <ele>39.7</ele>
        <time>2020-07-08T12:55:50Z</time>
      </trkpt>
      <trkpt lat="47.7786" lon="-3.52687">
        <ele>39.88</ele>
        <time>2020-07-08T12:55:51Z</time>
      </trkpt>
      <trkpt lat="47.77865" lon="-3.52689">
        <ele>40.08</ele>
        <time>2020-07-08T12:55:52Z</time>
      </trkpt>
      <trkpt lat="47.7787" lon="-3.52691">
        <ele>40.27</ele>
        <time>2020-07-08T12:55:53Z</time>
      </trkpt>
      <trkpt lat="47.77874" lon="-3.52693">
        <ele>40.43</ele>
        <time>2020-07-08T12:55:54Z</time>
      </trkpt>
      <trkpt lat="47.77879" lon="-3.52695">
        <ele>40.57</ele>
        <time>2020-07-08T12:55:55Z</time>
      </trkpt>
      <trkpt lat="47.77883" lon="-3.52696">
        <ele>40.72</ele>
        <time>2020-07-08T12:55:56Z</time>
      </trkpt>
      <trkpt lat="47.77887" lon="-3.52698">
        <ele>40.87</ele>
        <time>2020-07-08T12:55:57Z</time>
      </trkpt>
      <trkpt lat="47.77891" lon="-3.527">
        <ele>41.03</ele>
        <time>2020-07-08T12:55:58Z</time>
      </trkpt>
      <trkpt lat="47.77896" lon="-3.52701">
        <ele>41.19</ele>
        <time>2020-07-08T12:55:59Z</time>
      </trkpt>
      <trkpt lat="47.779" lon="-3.52703">
        <ele>41.34</ele>
        <time>2020-07-08T12:56:00Z</time>
      </trkpt>
      <trkpt lat="47.77905" lon="-3.52705">
        <ele>41.5</ele>
        <time>2020-07-08T12:56:01Z</time>
      </trkpt>
      <trkpt lat="47.77909" lon="-3.52706">
        <ele>41.66</ele>
        <time>2020-07-08T12:56:02Z</time>
      </trkpt>
      <trkpt lat="47.77914" lon="-3.52708">
        <ele>41.83</ele>
        <time>2020-07-08T12:56:03Z</time>
      </trkpt>
      <trkpt lat="47.77918" lon="-3.52709">
        <ele>41.97</ele>
        <time>2020-07-08T12:56:04Z</time>
      </trkpt>
      <trkpt lat="47.77923" lon="-3.52711">
        <ele>42.05</ele>
        <time>2020-07-08T12:56:05Z</time>
      </trkpt>
      <trkpt lat="47.77927" lon="-3.52713">
        <ele>42.11</ele>
        <time>2020-07-08T12:56:06Z</time>
      </trkpt>
      <trkpt lat="47.77932" lon="-3.52715">
        <ele>42.14</ele>
        <time>2020-07-08T12:56:07Z</time>
      </trkpt>
      <trkpt lat="47.77936" lon="-3.52717">
        <ele>42.14</ele>
        <time>2020-07-08T12:56:08Z</time>
      </trkpt>
      <trkpt lat="47.7794" lon="-3.52719">
        <ele>42.1</ele>
        <time>2020-07-08T12:56:09Z</time>
      </trkpt>
      <trkpt lat="47.77945" lon="-3.52721">
        <ele>42.06</ele>
        <time>2020-07-08T12:56:10Z</time>
      </trkpt>
      <trkpt lat="47.77949" lon="-3.52723">
        <ele>42.13</ele>
        <time>2020-07-08T12:56:11Z</time>
      </trkpt>
      <trkpt lat="47.77953" lon="-3.52725">
        <ele>42.27</ele>
        <time>2020-07-08T12:56:12Z</time>
      </trkpt>
      <trkpt lat="47.77958" lon="-3.52726">
        <ele>42.42</ele>
        <time>2020-07-08T12:56:13Z</time>
      </trkpt>
      <trkpt lat="47.77963" lon="-3.52727">
        <ele>42.59</ele>
        <time>2020-07-08T12:56:14Z</time>
      </trkpt>
      <trkpt lat="47.77967" lon="-3.52729">
        <ele>42.74</ele>
        <time>2020-07-08T12:56:15Z</time>
      </trkpt>
      <trkpt lat="47.77971" lon="-3.5273">
        <ele>42.9</ele>
        <time>2020-07-08T12:56:16Z</time>
      </trkpt>
      <trkpt lat="47.77976" lon="-3.52732">
        <ele>43.07</ele>
        <time>2020-07-08T12:56:17Z</time>
      </trkpt>
      <trkpt lat="47.77981" lon="-3.52734">
        <ele>43.23</ele>
        <time>2020-07-08T12:56:18Z</time>
      </trkpt>
      <trkpt lat="47.77985" lon="-3.52736">
        <ele>43.39</ele>
        <time>2020-07-08T12:56:19Z</time>
      </trkpt>
      <trkpt lat="47.77989" lon="-3.52738">
        <ele>43.54</ele>
        <time>2020-07-08T12:56:20Z</time>
      </trkpt>
      <trkpt lat="47.77993" lon="-3.52739">
        <ele>43.68</ele>
        <time>2020-07-08T12:56:21Z</time>
      </trkpt>
      <trkpt lat="47.77997" lon="-3.52741">
        <ele>43.82</ele>
        <time>2020-07-08T12:56:22Z</time>
      </trkpt>
      <trkpt lat="47.78001" lon="-3.52742">
        <ele>43.95</ele>
        <time>2020-07-08T12:56:23Z</time>
      </trkpt>
      <trkpt lat="47.78005" lon="-3.52744">
        <ele>44.01</ele>
        <time>2020-07-08T12:56:24Z</time>
      </trkpt>
      <trkpt lat="47.78009" lon="-3.52745">
        <ele>44.04</ele>
        <time>2020-07-08T12:56:25Z</time>
      </trkpt>
      <trkpt lat="47.78014" lon="-3.52747">
        <ele>44.04</ele>
        <time>2020-07-08T12:56:26Z</time>
      </trkpt>
      <trkpt lat="47.78018" lon="-3.5275">
        <ele>44.02</ele>
        <time>2020-07-08T12:56:27Z</time>
      </trkpt>
      <trkpt lat="47.78022" lon="-3.52752">
        <ele>44</ele>
        <time>2020-07-08T12:56:28Z</time>
      </trkpt>
      <trkpt lat="47.78027" lon="-3.52754">
        <ele>44</ele>
        <time>2020-07-08T12:56:29Z</time>
      </trkpt>
      <trkpt lat="47.78032" lon="-3.52756">
        <ele>44.08</ele>
        <time>2020-07-08T12:56:30Z</time>
      </trkpt>
      <trkpt lat="47.78036" lon="-3.52758">
        <ele>44.18</ele>
        <time>2020-07-08T12:56:31Z</time>
      </trkpt>
      <trkpt lat="47.78041" lon="-3.52759">
        <ele>44.27</ele>
        <time>2020-07-08T12:56:32Z</time>
      </trkpt>
      <trkpt lat="47.78045" lon="-3.52761">
        <ele>44.35</ele>
        <time>2020-07-08T12:56:33Z</time>
      </trkpt>
      <trkpt lat="47.78049" lon="-3.52762">
        <ele>44.4</ele>
        <time>2020-07-08T12:56:34Z</time>
      </trkpt>
      <trkpt lat="47.78053" lon="-3.52764">
        <ele>44.45</ele>
        <time>2020-07-08T12:56:35Z</time>
      </trkpt>
      <trkpt lat="47.78057" lon="-3.52765">
        <ele>44.46</ele>
        <time>2020-07-08T12:56:36Z</time>
      </trkpt>
      <trkpt lat="47.78061" lon="-3.52766">
        <ele>44.43</ele>
        <time>2020-07-08T12:56:37Z</time>
      </trkpt>
      <trkpt lat="47.78066" lon="-3.52768">
        <ele>44.38</ele>
        <time>2020-07-08T12:56:38Z</time>
      </trkpt>
      <trkpt lat="47.78071" lon="-3.52768">
        <ele>44.35</ele>
        <time>2020-07-08T12:56:39Z</time>
      </trkpt>
      <trkpt lat="47.78075" lon="-3.52769">
        <ele>44.33</ele>
        <time>2020-07-08T12:56:40Z</time>
      </trkpt>
      <trkpt lat="47.7808" lon="-3.52769">
        <ele>44.33</ele>
        <time>2020-07-08T12:56:41Z</time>
      </trkpt>
      <trkpt lat="47.78085" lon="-3.52769">
        <ele>44.33</ele>
        <time>2020-07-08T12:56:42Z</time>
      </trkpt>
      <trkpt lat="47.7809" lon="-3.52768">
        <ele>44.34</ele>
        <time>2020-07-08T12:56:43Z</time>
      </trkpt>
      <trkpt lat="47.78094" lon="-3.52768">
        <ele>44.35</ele>
        <time>2020-07-08T12:56:44Z</time>
      </trkpt>
      <trkpt lat="47.78099" lon="-3.52768">
        <ele>44.35</ele>
        <time>2020-07-08T12:56:45Z</time>
      </trkpt>
      <trkpt lat="47.78104" lon="-3.52768">
        <ele>44.36</ele>
        <time>2020-07-08T12:56:46Z</time>
      </trkpt>
      <trkpt lat="47.78108" lon="-3.52768">
        <ele>44.36</ele>
        <time>2020-07-08T12:56:47Z</time>
      </trkpt>
      <trkpt lat="47.78114" lon="-3.52767">
        <ele>44.37</ele>
        <time>2020-07-08T12:56:48Z</time>
      </trkpt>
      <trkpt lat="47.78118" lon="-3.52767">
        <ele>44.38</ele>
        <time>2020-07-08T12:56:49Z</time>
      </trkpt>
      <trkpt lat="47.78123" lon="-3.52767">
        <ele>44.38</ele>
        <time>2020-07-08T12:56:50Z</time>
      </trkpt>
      <trkpt lat="47.78128" lon="-3.52767">
        <ele>44.39</ele>
        <time>2020-07-08T12:56:51Z</time>
      </trkpt>
      <trkpt lat="47.78133" lon="-3.52767">
        <ele>44.4</ele>
        <time>2020-07-08T12:56:52Z</time>
      </trkpt>
      <trkpt lat="47.78138" lon="-3.52766">
        <ele>44.41</ele>
        <time>2020-07-08T12:56:53Z</time>
      </trkpt>
      <trkpt lat="47.78143" lon="-3.52766">
        <ele>44.42</ele>
        <time>2020-07-08T12:56:54Z</time>
      </trkpt>
      <trkpt lat="47.78149" lon="-3.52765">
        <ele>44.44</ele>
        <time>2020-07-08T12:56:55Z</time>
      </trkpt>
      <trkpt lat="47.78153" lon="-3.52765">
        <ele>44.46</ele>
        <time>2020-07-08T12:56:56Z</time>
      </trkpt>
      <trkpt lat="47.78158" lon="-3.52765">
        <ele>44.47</ele>
        <time>2020-07-08T12:56:57Z</time>
      </trkpt>
      <trkpt lat="47.78163" lon="-3.52764">
        <ele>44.49</ele>
        <time>2020-07-08T12:56:58Z</time>
      </trkpt>
      <trkpt lat="47.78167" lon="-3.52764">
        <ele>44.47</ele>
        <time>2020-07-08T12:56:59Z</time>
      </trkpt>
      <trkpt lat="47.78172" lon="-3.52764">
        <ele>44.34</ele>
        <time>2020-07-08T12:57:00Z</time>
      </trkpt>
      <trkpt lat="47.78177" lon="-3.52765">
        <ele>44.18</ele>
        <time>2020-07-08T12:57:01Z</time>
      </trkpt>
      <trkpt lat="47.78182" lon="-3.52766">
        <ele>43.97</ele>
        <time>2020-07-08T12:57:02Z</time>
      </trkpt>
      <trkpt lat="47.78188" lon="-3.52766">
        <ele>43.76</ele>
        <time>2020-07-08T12:57:03Z</time>
      </trkpt>
      <trkpt lat="47.78193" lon="-3.52767">
        <ele>43.54</ele>
        <time>2020-07-08T12:57:04Z</time>
      </trkpt>
      <trkpt lat="47.78199" lon="-3.52768">
        <ele>43.3</ele>
        <time>2020-07-08T12:57:05Z</time>
      </trkpt>
      <trkpt lat="47.78205" lon="-3.52768">
        <ele>43.06</ele>
        <time>2020-07-08T12:57:06Z</time>
      </trkpt>
      <trkpt lat="47.7821" lon="-3.52769">
        <ele>42.84</ele>
        <time>2020-07-08T12:57:07Z</time>
      </trkpt>
      <trkpt lat="47.78215" lon="-3.52769">
        <ele>42.64</ele>
        <time>2020-07-08T12:57:08Z</time>
      </trkpt>
      <trkpt lat="47.78221" lon="-3.52769">
        <ele>42.45</ele>
        <time>2020-07-08T12:57:09Z</time>
      </trkpt>
      <trkpt lat="47.78226" lon="-3.52769">
        <ele>42.27</ele>
        <time>2020-07-08T12:57:10Z</time>
      </trkpt>
      <trkpt lat="47.78232" lon="-3.52768">
        <ele>42.09</ele>
        <time>2020-07-08T12:57:11Z</time>
      </trkpt>
      <trkpt lat="47.78237" lon="-3.52766">
        <ele>41.96</ele>
        <time>2020-07-08T12:57:12Z</time>
      </trkpt>
      <trkpt lat="47.78242" lon="-3.52762">
        <ele>41.88</ele>
        <time>2020-07-08T12:57:13Z</time>
      </trkpt>
      <trkpt lat="47.78246" lon="-3.52757">
        <ele>41.87</ele>
        <time>2020-07-08T12:57:14Z</time>
      </trkpt>
      <trkpt lat="47.78249" lon="-3.52751">
        <ele>41.95</ele>
        <time>2020-07-08T12:57:15Z</time>
      </trkpt>
      <trkpt lat="47.78252" lon="-3.52744">
        <ele>41.9</ele>
        <time>2020-07-08T12:57:16Z</time>
      </trkpt>
      <trkpt lat="47.78254" lon="-3.52738">
        <ele>41.76</ele>
        <time>2020-07-08T12:57:17Z</time>
      </trkpt>
      <trkpt lat="47.78257" lon="-3.52731">
        <ele>41.6</ele>
        <time>2020-07-08T12:57:18Z</time>
      </trkpt>
      <trkpt lat="47.78259" lon="-3.52724">
        <ele>41.44</ele>
        <time>2020-07-08T12:57:19Z</time>
      </trkpt>
      <trkpt lat="47.78261" lon="-3.52716">
        <ele>41.35</ele>
        <time>2020-07-08T12:57:20Z</time>
      </trkpt>
      <trkpt lat="47.78263" lon="-3.52709">
        <ele>41.31</ele>
        <time>2020-07-08T12:57:21Z</time>
      </trkpt>
      <trkpt lat="47.78264" lon="-3.52701">
        <ele>41.34</ele>
        <time>2020-07-08T12:57:22Z</time>
      </trkpt>
      <trkpt lat="47.78266" lon="-3.52692">
        <ele>41.43</ele>
        <time>2020-07-08T12:57:23Z</time>
      </trkpt>
      <trkpt lat="47.78267" lon="-3.52683">
        <ele>41.51</ele>
        <time>2020-07-08T12:57:24Z</time>
      </trkpt>
      <trkpt lat="47.78268" lon="-3.52674">
        <ele>41.58</ele>
        <time>2020-07-08T12:57:25Z</time>
      </trkpt>
      <trkpt lat="47.78269" lon="-3.52665">
        <ele>41.62</ele>
        <time>2020-07-08T12:57:26Z</time>
      </trkpt>
      <trkpt lat="47.78269" lon="-3.52656">
        <ele>41.63</ele>
        <time>2020-07-08T12:57:27Z</time>
      </trkpt>
      <trkpt lat="47.78269" lon="-3.52647">
        <ele>41.61</ele>
        <time>2020-07-08T12:57:28Z</time>
      </trkpt>
      <trkpt lat="47.7827" lon="-3.52638">
        <ele>41.56</ele>
        <time>2020-07-08T12:57:29Z</time>
      </trkpt>
      <trkpt lat="47.78271" lon="-3.5263">
        <ele>41.51</ele>
        <time>2020-07-08T12:57:30Z</time>
      </trkpt>
      <trkpt lat="47.78272" lon="-3.52622">
        <ele>41.46</ele>
        <time>2020-07-08T12:57:31Z</time>
      </trkpt>
      <trkpt lat="47.78272" lon="-3.52613">
        <ele>41.41</ele>
        <time>2020-07-08T12:57:32Z</time>
      </trkpt>
      <trkpt lat="47.78273" lon="-3.52604">
        <ele>41.18</ele>
        <time>2020-07-08T12:57:33Z</time>
      </trkpt>
      <trkpt lat="47.78274" lon="-3.52596">
        <ele>40.85</ele>
        <time>2020-07-08T12:57:34Z</time>
      </trkpt>
      <trkpt lat="47.78275" lon="-3.52587">
        <ele>40.47</ele>
        <time>2020-07-08T12:57:35Z</time>
      </trkpt>
      <trkpt lat="47.78277" lon="-3.52579">
        <ele>40.21</ele>
        <time>2020-07-08T12:57:36Z</time>
      </trkpt>
      <trkpt lat="47.78278" lon="-3.5257">
        <ele>40.08</ele>
        <time>2020-07-08T12:57:37Z</time>
      </trkpt>
      <trkpt lat="47.78278" lon="-3.52561">
        <ele>39.99</ele>
        <time>2020-07-08T12:57:38Z</time>
      </trkpt>
      <trkpt lat="47.78279" lon="-3.52552">
        <ele>39.92</ele>
        <time>2020-07-08T12:57:39Z</time>
      </trkpt>
      <trkpt lat="47.7828" lon="-3.52543">
        <ele>39.85</ele>
        <time>2020-07-08T12:57:40Z</time>
      </trkpt>
      <trkpt lat="47.78281" lon="-3.52534">
        <ele>39.8</ele>
        <time>2020-07-08T12:57:41Z</time>
      </trkpt>
      <trkpt lat="47.78282" lon="-3.52524">
        <ele>39.74</ele>
        <time>2020-07-08T12:57:42Z</time>
      </trkpt>
      <trkpt lat="47.78282" lon="-3.52516">
        <ele>39.7</ele>
        <time>2020-07-08T12:57:43Z</time>
      </trkpt>
      <trkpt lat="47.78283" lon="-3.52508">
        <ele>39.64</ele>
        <time>2020-07-08T12:57:44Z</time>
      </trkpt>
      <trkpt lat="47.78284" lon="-3.525">
        <ele>39.59</ele>
        <time>2020-07-08T12:57:45Z</time>
      </trkpt>
      <trkpt lat="47.78284" lon="-3.52492">
        <ele>39.56</ele>
        <time>2020-07-08T12:57:46Z</time>
      </trkpt>
      <trkpt lat="47.78285" lon="-3.52485">
        <ele>39.51</ele>
        <time>2020-07-08T12:57:47Z</time>
      </trkpt>
      <trkpt lat="47.78285" lon="-3.52478">
        <ele>39.47</ele>
        <time>2020-07-08T12:57:48Z</time>
      </trkpt>
      <trkpt lat="47.78286" lon="-3.5247">
        <ele>39.39</ele>
        <time>2020-07-08T12:57:49Z</time>
      </trkpt>
      <trkpt lat="47.78287" lon="-3.52463">
        <ele>39.2</ele>
        <time>2020-07-08T12:57:50Z</time>
      </trkpt>
      <trkpt lat="47.78288" lon="-3.52455">
        <ele>38.98</ele>
        <time>2020-07-08T12:57:51Z</time>
      </trkpt>
      <trkpt lat="47.78289" lon="-3.52448">
        <ele>38.77</ele>
        <time>2020-07-08T12:57:52Z</time>
      </trkpt>
      <trkpt lat="47.7829" lon="-3.52439">
        <ele>38.63</ele>
        <time>2020-07-08T12:57:53Z</time>
      </trkpt>
      <trkpt lat="47.7829" lon="-3.5243">
        <ele>38.58</ele>
        <time>2020-07-08T12:57:54Z</time>
      </trkpt>
      <trkpt lat="47.78291" lon="-3.52422">
        <ele>38.55</ele>
        <time>2020-07-08T12:57:55Z</time>
      </trkpt>
      <trkpt lat="47.78291" lon="-3.52413">
        <ele>38.52</ele>
        <time>2020-07-08T12:57:56Z</time>
      </trkpt>
      <trkpt lat="47.78293" lon="-3.52404">
        <ele>38.48</ele>
        <time>2020-07-08T12:57:57Z</time>
      </trkpt>
      <trkpt lat="47.78294" lon="-3.52396">
        <ele>38.45</ele>
        <time>2020-07-08T12:57:58Z</time>
      </trkpt>
      <trkpt lat="47.78294" lon="-3.52387">
        <ele>38.41</ele>
        <time>2020-07-08T12:57:59Z</time>
      </trkpt>
      <trkpt lat="47.78295" lon="-3.52379">
        <ele>38.38</ele>
        <time>2020-07-08T12:58:00Z</time>
      </trkpt>
      <trkpt lat="47.78297" lon="-3.52371">
        <ele>38.34</ele>
        <time>2020-07-08T12:58:01Z</time>
      </trkpt>
      <trkpt lat="47.78298" lon="-3.52363">
        <ele>38.3</ele>
        <time>2020-07-08T12:58:02Z</time>
      </trkpt>
      <trkpt lat="47.78298" lon="-3.52356">
        <ele>38.27</ele>
        <time>2020-07-08T12:58:03Z</time>
      </trkpt>
      <trkpt lat="47.783" lon="-3.52349">
        <ele>38.23</ele>
        <time>2020-07-08T12:58:04Z</time>
      </trkpt>
      <trkpt lat="47.78301" lon="-3.52342">
        <ele>38.18</ele>
        <time>2020-07-08T12:58:05Z</time>
      </trkpt>
      <trkpt lat="47.78303" lon="-3.52335">
        <ele>38.12</ele>
        <time>2020-07-08T12:58:06Z</time>
      </trkpt>
      <trkpt lat="47.78305" lon="-3.52327">
        <ele>37.89</ele>
        <time>2020-07-08T12:58:07Z</time>
      </trkpt>
      <trkpt lat="47.78307" lon="-3.5232">
        <ele>37.56</ele>
        <time>2020-07-08T12:58:08Z</time>
      </trkpt>
      <trkpt lat="47.78309" lon="-3.52312">
        <ele>37.22</ele>
        <time>2020-07-08T12:58:09Z</time>
      </trkpt>
      <trkpt lat="47.78311" lon="-3.52305">
        <ele>36.91</ele>
        <time>2020-07-08T12:58:10Z</time>
      </trkpt>
      <trkpt lat="47.78313" lon="-3.52297">
        <ele>36.73</ele>
        <time>2020-07-08T12:58:11Z</time>
      </trkpt>
      <trkpt lat="47.78315" lon="-3.52291">
        <ele>36.57</ele>
        <time>2020-07-08T12:58:12Z</time>
      </trkpt>
      <trkpt lat="47.78316" lon="-3.52286">
        <ele>36.41</ele>
        <time>2020-07-08T12:58:13Z</time>
      </trkpt>
      <trkpt lat="47.78319" lon="-3.52282">
        <ele>36.22</ele>
        <time>2020-07-08T12:58:14Z</time>
      </trkpt>
      <trkpt lat="47.78322" lon="-3.52279">
        <ele>35.95</ele>
        <time>2020-07-08T12:58:15Z</time>
      </trkpt>
      <trkpt lat="47.78327" lon="-3.52278">
        <ele>35.63</ele>
        <time>2020-07-08T12:58:16Z</time>
      </trkpt>
      <trkpt lat="47.78331" lon="-3.52276">
        <ele>35.29</ele>
        <time>2020-07-08T12:58:17Z</time>
      </trkpt>
      <trkpt lat="47.78336" lon="-3.52274">
        <ele>35.02</ele>
        <time>2020-07-08T12:58:18Z</time>
      </trkpt>
      <trkpt lat="47.7834" lon="-3.52272">
        <ele>34.84</ele>
        <time>2020-07-08T12:58:19Z</time>
      </trkpt>
      <trkpt lat="47.78344" lon="-3.52271">
        <ele>34.68</ele>
        <time>2020-07-08T12:58:20Z</time>
      </trkpt>
      <trkpt lat="47.78349" lon="-3.52269">
        <ele>34.52</ele>
        <time>2020-07-08T12:58:21Z</time>
      </trkpt>
      <trkpt lat="47.78353" lon="-3.52267">
        <ele>34.35</ele>
        <time>2020-07-08T12:58:22Z</time>
      </trkpt>
      <trkpt lat="47.78358" lon="-3.52265">
        <ele>34.18</ele>
        <time>2020-07-08T12:58:23Z</time>
      </trkpt>
      <trkpt lat="47.78363" lon="-3.52264">
        <ele>34.01</ele>
        <time>2020-07-08T12:58:24Z</time>
      </trkpt>
      <trkpt lat="47.78368" lon="-3.52263">
        <ele>33.83</ele>
        <time>2020-07-08T12:58:25Z</time>
      </trkpt>
      <trkpt lat="47.78373" lon="-3.52262">
        <ele>33.66</ele>
        <time>2020-07-08T12:58:26Z</time>
      </trkpt>
      <trkpt lat="47.78378" lon="-3.5226">
        <ele>33.47</ele>
        <time>2020-07-08T12:58:27Z</time>
      </trkpt>
      <trkpt lat="47.78385" lon="-3.52258">
        <ele>33.25</ele>
        <time>2020-07-08T12:58:28Z</time>
      </trkpt>
      <trkpt lat="47.78392" lon="-3.52256">
        <ele>32.88</ele>
        <time>2020-07-08T12:58:29Z</time>
      </trkpt>
      <trkpt lat="47.78399" lon="-3.52256">
        <ele>32.24</ele>
        <time>2020-07-08T12:58:30Z</time>
      </trkpt>
      <trkpt lat="47.78406" lon="-3.52256">
        <ele>31.48</ele>
        <time>2020-07-08T12:58:31Z</time>
      </trkpt>
      <trkpt lat="47.78414" lon="-3.52256">
        <ele>30.67</ele>
        <time>2020-07-08T12:58:32Z</time>
      </trkpt>
      <trkpt lat="47.78422" lon="-3.52256">
        <ele>29.91</ele>
        <time>2020-07-08T12:58:33Z</time>
      </trkpt>
      <trkpt lat="47.7843" lon="-3.52258">
        <ele>29.2</ele>
        <time>2020-07-08T12:58:34Z</time>
      </trkpt>
      <trkpt lat="47.78439" lon="-3.52259">
        <ele>28.48</ele>
        <time>2020-07-08T12:58:35Z</time>
      </trkpt>
      <trkpt lat="47.78447" lon="-3.52261">
        <ele>27.94</ele>
        <time>2020-07-08T12:58:36Z</time>
      </trkpt>
      <trkpt lat="47.78455" lon="-3.52262">
        <ele>27.93</ele>
        <time>2020-07-08T12:58:37Z</time>
      </trkpt>
      <trkpt lat="47.78462" lon="-3.52263">
        <ele>28.09</ele>
        <time>2020-07-08T12:58:38Z</time>
      </trkpt>
      <trkpt lat="47.78469" lon="-3.52264">
        <ele>28.31</ele>
        <time>2020-07-08T12:58:39Z</time>
      </trkpt>
      <trkpt lat="47.78475" lon="-3.52264">
        <ele>28.62</ele>
        <time>2020-07-08T12:58:40Z</time>
      </trkpt>
      <trkpt lat="47.78481" lon="-3.52266">
        <ele>28.99</ele>
        <time>2020-07-08T12:58:41Z</time>
      </trkpt>
      <trkpt lat="47.78485" lon="-3.52267">
        <ele>29.35</ele>
        <time>2020-07-08T12:58:42Z</time>
      </trkpt>
      <trkpt lat="47.7849" lon="-3.52268">
        <ele>29.7</ele>
        <time>2020-07-08T12:58:43Z</time>
      </trkpt>
      <trkpt lat="47.78494" lon="-3.52269">
        <ele>30.03</ele>
        <time>2020-07-08T12:58:44Z</time>
      </trkpt>
      <trkpt lat="47.78499" lon="-3.52269">
        <ele>30.36</ele>
        <time>2020-07-08T12:58:45Z</time>
      </trkpt>
      <trkpt lat="47.78503" lon="-3.5227">
        <ele>30.64</ele>
        <time>2020-07-08T12:58:46Z</time>
      </trkpt>
      <trkpt lat="47.78507" lon="-3.52271">
        <ele>30.88</ele>
        <time>2020-07-08T12:58:47Z</time>
      </trkpt>
      <trkpt lat="47.78511" lon="-3.52271">
        <ele>31.09</ele>
        <time>2020-07-08T12:58:48Z</time>
      </trkpt>
      <trkpt lat="47.78515" lon="-3.52272">
        <ele>31.28</ele>
        <time>2020-07-08T12:58:49Z</time>
      </trkpt>
      <trkpt lat="47.78518" lon="-3.52273">
        <ele>31.47</ele>
        <time>2020-07-08T12:58:50Z</time>
      </trkpt>
      <trkpt lat="47.78522" lon="-3.52273">
        <ele>31.69</ele>
        <time>2020-07-08T12:58:51Z</time>
      </trkpt>
      <trkpt lat="47.78525" lon="-3.52273">
        <ele>31.91</ele>
        <time>2020-07-08T12:58:52Z</time>
      </trkpt>
      <trkpt lat="47.78529" lon="-3.52273">
        <ele>32.11</ele>
        <time>2020-07-08T12:58:53Z</time>
      </trkpt>
      <trkpt lat="47.78531" lon="-3.52273">
        <ele>32.25</ele>
        <time>2020-07-08T12:58:54Z</time>
      </trkpt>
      <trkpt lat="47.78534" lon="-3.52272">
        <ele>32.39</ele>
        <time>2020-07-08T12:58:55Z</time>
      </trkpt>
      <trkpt lat="47.78536" lon="-3.52268">
        <ele>32.57</ele>
        <time>2020-07-08T12:58:56Z</time>
      </trkpt>
      <trkpt lat="47.78537" lon="-3.52263">
        <ele>32.77</ele>
        <time>2020-07-08T12:58:57Z</time>
      </trkpt>
      <trkpt lat="47.78537" lon="-3.52258">
        <ele>32.96</ele>
        <time>2020-07-08T12:58:58Z</time>
      </trkpt>
      <trkpt lat="47.78536" lon="-3.52252">
        <ele>33.16</ele>
        <time>2020-07-08T12:58:59Z</time>
      </trkpt>
      <trkpt lat="47.78536" lon="-3.52246">
        <ele>33.33</ele>
        <time>2020-07-08T12:59:00Z</time>
      </trkpt>
      <trkpt lat="47.78536" lon="-3.5224">
        <ele>33.48</ele>
        <time>2020-07-08T12:59:01Z</time>
      </trkpt>
      <trkpt lat="47.78537" lon="-3.52233">
        <ele>33.66</ele>
        <time>2020-07-08T12:59:02Z</time>
      </trkpt>
      <trkpt lat="47.78537" lon="-3.52226">
        <ele>33.83</ele>
        <time>2020-07-08T12:59:03Z</time>
      </trkpt>
      <trkpt lat="47.78537" lon="-3.5222">
        <ele>33.99</ele>
        <time>2020-07-08T12:59:04Z</time>
      </trkpt>
      <trkpt lat="47.78536" lon="-3.52215">
        <ele>34.18</ele>
        <time>2020-07-08T12:59:05Z</time>
      </trkpt>
      <trkpt lat="47.78536" lon="-3.52209">
        <ele>34.37</ele>
        <time>2020-07-08T12:59:06Z</time>
      </trkpt>
      <trkpt lat="47.78536" lon="-3.52204">
        <ele>34.57</ele>
        <time>2020-07-08T12:59:07Z</time>
      </trkpt>
      <trkpt lat="47.78536" lon="-3.52198">
        <ele>34.78</ele>
        <time>2020-07-08T12:59:08Z</time>
      </trkpt>
      <trkpt lat="47.78535" lon="-3.52192">
        <ele>34.93</ele>
        <time>2020-07-08T12:59:09Z</time>
      </trkpt>
      <trkpt lat="47.78535" lon="-3.52185">
        <ele>34.98</ele>
        <time>2020-07-08T12:59:10Z</time>
      </trkpt>
      <trkpt lat="47.78535" lon="-3.52175">
        <ele>34.99</ele>
        <time>2020-07-08T12:59:11Z</time>
      </trkpt>
      <trkpt lat="47.78534" lon="-3.52167">
        <ele>35</ele>
        <time>2020-07-08T12:59:12Z</time>
      </trkpt>
      <trkpt lat="47.78533" lon="-3.5216">
        <ele>35.03</ele>
        <time>2020-07-08T12:59:13Z</time>
      </trkpt>
      <trkpt lat="47.78533" lon="-3.52153">
        <ele>35.07</ele>
        <time>2020-07-08T12:59:14Z</time>
      </trkpt>
      <trkpt lat="47.78533" lon="-3.52146">
        <ele>35.11</ele>
        <time>2020-07-08T12:59:15Z</time>
      </trkpt>
      <trkpt lat="47.78533" lon="-3.52138">
        <ele>35.16</ele>
        <time>2020-07-08T12:59:16Z</time>
      </trkpt>
      <trkpt lat="47.78533" lon="-3.52131">
        <ele>35.33</ele>
        <time>2020-07-08T12:59:17Z</time>
      </trkpt>
      <trkpt lat="47.78533" lon="-3.52124">
        <ele>35.53</ele>
        <time>2020-07-08T12:59:18Z</time>
      </trkpt>
      <trkpt lat="47.78533" lon="-3.52117">
        <ele>35.73</ele>
        <time>2020-07-08T12:59:19Z</time>
      </trkpt>
      <trkpt lat="47.78533" lon="-3.5211">
        <ele>35.92</ele>
        <time>2020-07-08T12:59:20Z</time>
      </trkpt>
      <trkpt lat="47.78533" lon="-3.52104">
        <ele>35.98</ele>
        <time>2020-07-08T12:59:21Z</time>
      </trkpt>
      <trkpt lat="47.78532" lon="-3.52097">
        <ele>35.99</ele>
        <time>2020-07-08T12:59:22Z</time>
      </trkpt>
      <trkpt lat="47.78532" lon="-3.5209">
        <ele>36</ele>
        <time>2020-07-08T12:59:23Z</time>
      </trkpt>
      <trkpt lat="47.78532" lon="-3.52084">
        <ele>36</ele>
        <time>2020-07-08T12:59:24Z</time>
      </trkpt>
      <trkpt lat="47.78532" lon="-3.52077">
        <ele>36.14</ele>
        <time>2020-07-08T12:59:25Z</time>
      </trkpt>
      <trkpt lat="47.78531" lon="-3.52071">
        <ele>36.32</ele>
        <time>2020-07-08T12:59:26Z</time>
      </trkpt>
      <trkpt lat="47.78531" lon="-3.52065">
        <ele>36.5</ele>
        <time>2020-07-08T12:59:27Z</time>
      </trkpt>
      <trkpt lat="47.78532" lon="-3.52059">
        <ele>36.67</ele>
        <time>2020-07-08T12:59:28Z</time>
      </trkpt>
      <trkpt lat="47.78533" lon="-3.52054">
        <ele>36.78</ele>
        <time>2020-07-08T12:59:29Z</time>
      </trkpt>
      <trkpt lat="47.78534" lon="-3.52049">
        <ele>36.78</ele>
        <time>2020-07-08T12:59:30Z</time>
      </trkpt>
      <trkpt lat="47.78535" lon="-3.52046">
        <ele>36.75</ele>
        <time>2020-07-08T12:59:31Z</time>
      </trkpt>
      <trkpt lat="47.78538" lon="-3.52045">
        <ele>36.67</ele>
        <time>2020-07-08T12:59:32Z</time>
      </trkpt>
      <trkpt lat="47.78541" lon="-3.52044">
        <ele>36.57</ele>
        <time>2020-07-08T12:59:33Z</time>
      </trkpt>
      <trkpt lat="47.78543" lon="-3.52042">
        <ele>36.48</ele>
        <time>2020-07-08T12:59:34Z</time>
      </trkpt>
      <trkpt lat="47.78546" lon="-3.52039">
        <ele>36.39</ele>
        <time>2020-07-08T12:59:35Z</time>
      </trkpt>
      <trkpt lat="47.78547" lon="-3.52034">
        <ele>36.33</ele>
        <time>2020-07-08T12:59:36Z</time>
      </trkpt>
      <trkpt lat="47.78548" lon="-3.52029">
        <ele>36.28</ele>
        <time>2020-07-08T12:59:37Z</time>
      </trkpt>
      <trkpt lat="47.78548" lon="-3.52025">
        <ele>36.27</ele>
        <time>2020-07-08T12:59:38Z</time>
      </trkpt>
      <trkpt lat="47.78548" lon="-3.52021">
        <ele>36.27</ele>
        <time>2020-07-08T12:59:39Z</time>
      </trkpt>
      <trkpt lat="47.78548" lon="-3.52016">
        <ele>36.27</ele>
        <time>2020-07-08T12:59:40Z</time>
      </trkpt>
      <trkpt lat="47.78548" lon="-3.52012">
        <ele>36.26</ele>
        <time>2020-07-08T12:59:41Z</time>
      </trkpt>
      <trkpt lat="47.78548" lon="-3.52006">
        <ele>36.28</ele>
        <time>2020-07-08T12:59:42Z</time>
      </trkpt>
      <trkpt lat="47.78547" lon="-3.52001">
        <ele>36.29</ele>
        <time>2020-07-08T12:59:43Z</time>
      </trkpt>
      <trkpt lat="47.78547" lon="-3.51996">
        <ele>36.32</ele>
        <time>2020-07-08T12:59:44Z</time>
      </trkpt>
      <trkpt lat="47.78546" lon="-3.51991">
        <ele>36.33</ele>
        <time>2020-07-08T12:59:45Z</time>
      </trkpt>
      <trkpt lat="47.78547" lon="-3.51986">
        <ele>36.32</ele>
        <time>2020-07-08T12:59:46Z</time>
      </trkpt>
      <trkpt lat="47.78547" lon="-3.51981">
        <ele>36.32</ele>
        <time>2020-07-08T12:59:47Z</time>
      </trkpt>
      <trkpt lat="47.78546" lon="-3.51976">
        <ele>36.34</ele>
        <time>2020-07-08T12:59:48Z</time>
      </trkpt>
      <trkpt lat="47.78546" lon="-3.51971">
        <ele>36.34</ele>
        <time>2020-07-08T12:59:49Z</time>
      </trkpt>
      <trkpt lat="47.78546" lon="-3.51965">
        <ele>36.33</ele>
        <time>2020-07-08T12:59:50Z</time>
      </trkpt>
      <trkpt lat="47.78545" lon="-3.51957">
        <ele>36.36</ele>
        <time>2020-07-08T12:59:51Z</time>
      </trkpt>
      <trkpt lat="47.78545" lon="-3.5195">
        <ele>36.37</ele>
        <time>2020-07-08T12:59:52Z</time>
      </trkpt>
      <trkpt lat="47.78546" lon="-3.51943">
        <ele>36.35</ele>
        <time>2020-07-08T12:59:53Z</time>
      </trkpt>
      <trkpt lat="47.78547" lon="-3.5194">
        <ele>36.33</ele>
        <time>2020-07-08T12:59:54Z</time>
      </trkpt>
      <trkpt lat="47.78547" lon="-3.51937">
        <ele>36.31</ele>
        <time>2020-07-08T12:59:55Z</time>
      </trkpt>
      <trkpt lat="47.78548" lon="-3.51933">
        <ele>36.28</ele>
        <time>2020-07-08T12:59:56Z</time>
      </trkpt>
      <trkpt lat="47.78548" lon="-3.51928">
        <ele>36.28</ele>
        <time>2020-07-08T12:59:57Z</time>
      </trkpt>
      <trkpt lat="47.78547" lon="-3.51924">
        <ele>36.3</ele>
        <time>2020-07-08T12:59:58Z</time>
      </trkpt>
      <trkpt lat="47.78546" lon="-3.5192">
        <ele>36.34</ele>
        <time>2020-07-08T12:59:59Z</time>
      </trkpt>
      <trkpt lat="47.78544" lon="-3.51916">
        <ele>36.38</ele>
        <time>2020-07-08T13:00:00Z</time>
      </trkpt>
      <trkpt lat="47.78542" lon="-3.51912">
        <ele>36.41</ele>
        <time>2020-07-08T13:00:01Z</time>
      </trkpt>
      <trkpt lat="47.7854" lon="-3.51909">
        <ele>36.41</ele>
        <time>2020-07-08T13:00:02Z</time>
      </trkpt>
      <trkpt lat="47.78539" lon="-3.51905">
        <ele>36.36</ele>
        <time>2020-07-08T13:00:03Z</time>
      </trkpt>
      <trkpt lat="47.78541" lon="-3.519">
        <ele>36.26</ele>
        <time>2020-07-08T13:00:04Z</time>
      </trkpt>
      <trkpt lat="47.78541" lon="-3.51894">
        <ele>36.15</ele>
        <time>2020-07-08T13:00:05Z</time>
      </trkpt>
      <trkpt lat="47.78541" lon="-3.51888">
        <ele>36.04</ele>
        <time>2020-07-08T13:00:06Z</time>
      </trkpt>
      <trkpt lat="47.7854" lon="-3.51881">
        <ele>35.93</ele>
        <time>2020-07-08T13:00:07Z</time>
      </trkpt>
      <trkpt lat="47.7854" lon="-3.51874">
        <ele>35.81</ele>
        <time>2020-07-08T13:00:08Z</time>
      </trkpt>
      <trkpt lat="47.7854" lon="-3.51868">
        <ele>35.71</ele>
        <time>2020-07-08T13:00:09Z</time>
      </trkpt>
      <trkpt lat="47.78538" lon="-3.51861">
        <ele>35.65</ele>
        <time>2020-07-08T13:00:10Z</time>
      </trkpt>
      <trkpt lat="47.78536" lon="-3.51856">
        <ele>35.59</ele>
        <time>2020-07-08T13:00:11Z</time>
      </trkpt>
      <trkpt lat="47.78534" lon="-3.51849">
        <ele>35.47</ele>
        <time>2020-07-08T13:00:12Z</time>
      </trkpt>
      <trkpt lat="47.78534" lon="-3.51842">
        <ele>35.32</ele>
        <time>2020-07-08T13:00:13Z</time>
      </trkpt>
      <trkpt lat="47.78534" lon="-3.51836">
        <ele>35.14</ele>
        <time>2020-07-08T13:00:14Z</time>
      </trkpt>
      <trkpt lat="47.78535" lon="-3.5183">
        <ele>35.04</ele>
        <time>2020-07-08T13:00:15Z</time>
      </trkpt>
      <trkpt lat="47.78535" lon="-3.51825">
        <ele>35.01</ele>
        <time>2020-07-08T13:00:16Z</time>
      </trkpt>
      <trkpt lat="47.78534" lon="-3.51819">
        <ele>35</ele>
        <time>2020-07-08T13:00:17Z</time>
      </trkpt>
      <trkpt lat="47.78534" lon="-3.51814">
        <ele>35</ele>
        <time>2020-07-08T13:00:18Z</time>
      </trkpt>
      <trkpt lat="47.78535" lon="-3.51809">
        <ele>35</ele>
        <time>2020-07-08T13:00:19Z</time>
      </trkpt>
      <trkpt lat="47.78536" lon="-3.51805">
        <ele>34.97</ele>
        <time>2020-07-08T13:00:20Z</time>
      </trkpt>
      <trkpt lat="47.78536" lon="-3.51799">
        <ele>34.69</ele>
        <time>2020-07-08T13:00:21Z</time>
      </trkpt>
      <trkpt lat="47.78535" lon="-3.51794">
        <ele>34.32</ele>
        <time>2020-07-08T13:00:22Z</time>
      </trkpt>
      <trkpt lat="47.78535" lon="-3.51788">
        <ele>33.89</ele>
        <time>2020-07-08T13:00:23Z</time>
      </trkpt>
      <trkpt lat="47.78534" lon="-3.51782">
        <ele>33.47</ele>
        <time>2020-07-08T13:00:24Z</time>
      </trkpt>
      <trkpt lat="47.78534" lon="-3.51775">
        <ele>33.01</ele>
        <time>2020-07-08T13:00:25Z</time>
      </trkpt>
      <trkpt lat="47.78533" lon="-3.51769">
        <ele>32.55</ele>
        <time>2020-07-08T13:00:26Z</time>
      </trkpt>
      <trkpt lat="47.78531" lon="-3.5176">
        <ele>31.99</ele>
        <time>2020-07-08T13:00:27Z</time>
      </trkpt>
      <trkpt lat="47.7853" lon="-3.51753">
        <ele>31.42</ele>
        <time>2020-07-08T13:00:28Z</time>
      </trkpt>
      <trkpt lat="47.7853" lon="-3.51745">
        <ele>30.87</ele>
        <time>2020-07-08T13:00:29Z</time>
      </trkpt>
      <trkpt lat="47.7853" lon="-3.5174">
        <ele>30.46</ele>
        <time>2020-07-08T13:00:30Z</time>
      </trkpt>
      <trkpt lat="47.78531" lon="-3.51736">
        <ele>30.09</ele>
        <time>2020-07-08T13:00:31Z</time>
      </trkpt>
      <trkpt lat="47.78531" lon="-3.51731">
        <ele>29.71</ele>
        <time>2020-07-08T13:00:32Z</time>
      </trkpt>
      <trkpt lat="47.78531" lon="-3.51725">
        <ele>29.27</ele>
        <time>2020-07-08T13:00:33Z</time>
      </trkpt>
      <trkpt lat="47.78531" lon="-3.51719">
        <ele>28.75</ele>
        <time>2020-07-08T13:00:34Z</time>
      </trkpt>
      <trkpt lat="47.7853" lon="-3.51713">
        <ele>28.17</ele>
        <time>2020-07-08T13:00:35Z</time>
      </trkpt>
      <trkpt lat="47.78527" lon="-3.51707">
        <ele>27.61</ele>
        <time>2020-07-08T13:00:36Z</time>
      </trkpt>
      <trkpt lat="47.78525" lon="-3.51702">
        <ele>27.05</ele>
        <time>2020-07-08T13:00:37Z</time>
      </trkpt>
      <trkpt lat="47.78523" lon="-3.51695">
        <ele>26.34</ele>
        <time>2020-07-08T13:00:38Z</time>
      </trkpt>
      <trkpt lat="47.78522" lon="-3.51686">
        <ele>25.68</ele>
        <time>2020-07-08T13:00:39Z</time>
      </trkpt>
      <trkpt lat="47.78521" lon="-3.51676">
        <ele>24.99</ele>
        <time>2020-07-08T13:00:40Z</time>
      </trkpt>
      <trkpt lat="47.78521" lon="-3.51667">
        <ele>24.32</ele>
        <time>2020-07-08T13:00:41Z</time>
      </trkpt>
      <trkpt lat="47.7852" lon="-3.51659">
        <ele>23.64</ele>
        <time>2020-07-08T13:00:42Z</time>
      </trkpt>
      <trkpt lat="47.7852" lon="-3.51652">
        <ele>23.08</ele>
        <time>2020-07-08T13:00:43Z</time>
      </trkpt>
      <trkpt lat="47.78521" lon="-3.51648">
        <ele>22.66</ele>
        <time>2020-07-08T13:00:44Z</time>
      </trkpt>
      <trkpt lat="47.78523" lon="-3.51645">
        <ele>22.38</ele>
        <time>2020-07-08T13:00:45Z</time>
      </trkpt>
      <trkpt lat="47.78524" lon="-3.51642">
        <ele>22.19</ele>
        <time>2020-07-08T13:00:46Z</time>
      </trkpt>
      <trkpt lat="47.78526" lon="-3.5164">
        <ele>22.08</ele>
        <time>2020-07-08T13:00:47Z</time>
      </trkpt>
      <trkpt lat="47.78527" lon="-3.51638">
        <ele>21.97</ele>
        <time>2020-07-08T13:00:48Z</time>
      </trkpt>
      <trkpt lat="47.78529" lon="-3.51637">
        <ele>21.81</ele>
        <time>2020-07-08T13:00:49Z</time>
      </trkpt>
      <trkpt lat="47.7853" lon="-3.51634">
        <ele>21.59</ele>
        <time>2020-07-08T13:00:50Z</time>
      </trkpt>
      <trkpt lat="47.78529" lon="-3.51631">
        <ele>21.29</ele>
        <time>2020-07-08T13:00:51Z</time>
      </trkpt>
      <trkpt lat="47.78527" lon="-3.51628">
        <ele>20.94</ele>
        <time>2020-07-08T13:00:52Z</time>
      </trkpt>
      <trkpt lat="47.78527" lon="-3.51625">
        <ele>20.54</ele>
        <time>2020-07-08T13:00:53Z</time>
      </trkpt>
      <trkpt lat="47.78527" lon="-3.51621">
        <ele>20.17</ele>
        <time>2020-07-08T13:00:54Z</time>
      </trkpt>
      <trkpt lat="47.78526" lon="-3.51618">
        <ele>19.81</ele>
        <time>2020-07-08T13:00:55Z</time>
      </trkpt>
      <trkpt lat="47.78525" lon="-3.51616">
        <ele>19.48</ele>
        <time>2020-07-08T13:00:56Z</time>
      </trkpt>
      <trkpt lat="47.78523" lon="-3.51612">
        <ele>19.02</ele>
        <time>2020-07-08T13:00:57Z</time>
      </trkpt>
      <trkpt lat="47.78521" lon="-3.51609">
        <ele>18.52</ele>
        <time>2020-07-08T13:00:58Z</time>
      </trkpt>
      <trkpt lat="47.78518" lon="-3.51606">
        <ele>18.06</ele>
        <time>2020-07-08T13:00:59Z</time>
      </trkpt>
      <trkpt lat="47.78515" lon="-3.51602">
        <ele>17.53</ele>
        <time>2020-07-08T13:01:00Z</time>
      </trkpt>
      <trkpt lat="47.78512" lon="-3.51599">
        <ele>16.99</ele>
        <time>2020-07-08T13:01:01Z</time>
      </trkpt>
      <trkpt lat="47.7851" lon="-3.51596">
        <ele>16.57</ele>
        <time>2020-07-08T13:01:02Z</time>
      </trkpt>
      <trkpt lat="47.78507" lon="-3.51593">
        <ele>16.24</ele>
        <time>2020-07-08T13:01:03Z</time>
      </trkpt>
      <trkpt lat="47.78506" lon="-3.51592">
        <ele>15.98</ele>
        <time>2020-07-08T13:01:04Z</time>
      </trkpt>
      <trkpt lat="47.78505" lon="-3.5159">
        <ele>15.76</ele>
        <time>2020-07-08T13:01:05Z</time>
      </trkpt>
      <trkpt lat="47.78503" lon="-3.51588">
        <ele>15.54</ele>
        <time>2020-07-08T13:01:06Z</time>
      </trkpt>
      <trkpt lat="47.78502" lon="-3.51585">
        <ele>15.32</ele>
        <time>2020-07-08T13:01:07Z</time>
      </trkpt>
      <trkpt lat="47.78501" lon="-3.51583">
        <ele>15.12</ele>
        <time>2020-07-08T13:01:08Z</time>
      </trkpt>
      <trkpt lat="47.785" lon="-3.51581">
        <ele>15.16</ele>
        <time>2020-07-08T13:01:09Z</time>
      </trkpt>
      <trkpt lat="47.785" lon="-3.51578">
        <ele>15.35</ele>
        <time>2020-07-08T13:01:10Z</time>
      </trkpt>
      <trkpt lat="47.785" lon="-3.51574">
        <ele>15.56</ele>
        <time>2020-07-08T13:01:11Z</time>
      </trkpt>
      <trkpt lat="47.78501" lon="-3.51571">
        <ele>15.79</ele>
        <time>2020-07-08T13:01:12Z</time>
      </trkpt>
      <trkpt lat="47.78502" lon="-3.51568">
        <ele>15.98</ele>
        <time>2020-07-08T13:01:13Z</time>
      </trkpt>
      <trkpt lat="47.78504" lon="-3.51565">
        <ele>16.11</ele>
        <time>2020-07-08T13:01:14Z</time>
      </trkpt>
      <trkpt lat="47.78506" lon="-3.51562">
        <ele>16.2</ele>
        <time>2020-07-08T13:01:15Z</time>
      </trkpt>
      <trkpt lat="47.78508" lon="-3.51561">
        <ele>16.2</ele>
        <time>2020-07-08T13:01:16Z</time>
      </trkpt>
      <trkpt lat="47.78511" lon="-3.51559">
        <ele>16.16</ele>
        <time>2020-07-08T13:01:17Z</time>
      </trkpt>
      <trkpt lat="47.78514" lon="-3.51556">
        <ele>16.04</ele>
        <time>2020-07-08T13:01:18Z</time>
      </trkpt>
      <trkpt lat="47.78517" lon="-3.51553">
        <ele>16.06</ele>
        <time>2020-07-08T13:01:19Z</time>
      </trkpt>
      <trkpt lat="47.78521" lon="-3.51549">
        <ele>16.15</ele>
        <time>2020-07-08T13:01:20Z</time>
      </trkpt>
      <trkpt lat="47.78525" lon="-3.51547">
        <ele>16.13</ele>
        <time>2020-07-08T13:01:21Z</time>
      </trkpt>
      <trkpt lat="47.7853" lon="-3.51544">
        <ele>16.05</ele>
        <time>2020-07-08T13:01:22Z</time>
      </trkpt>
      <trkpt lat="47.78534" lon="-3.51541">
        <ele>15.88</ele>
        <time>2020-07-08T13:01:23Z</time>
      </trkpt>
      <trkpt lat="47.7854" lon="-3.51536">
        <ele>15.75</ele>
        <time>2020-07-08T13:01:24Z</time>
      </trkpt>
      <trkpt lat="47.78545" lon="-3.51531">
        <ele>15.44</ele>
        <time>2020-07-08T13:01:25Z</time>
      </trkpt>
      <trkpt lat="47.78549" lon="-3.51527">
        <ele>15.19</ele>
        <time>2020-07-08T13:01:26Z</time>
      </trkpt>
      <trkpt lat="47.78553" lon="-3.51524">
        <ele>15.01</ele>
        <time>2020-07-08T13:01:27Z</time>
      </trkpt>
      <trkpt lat="47.78557" lon="-3.5152">
        <ele>14.93</ele>
        <time>2020-07-08T13:01:28Z</time>
      </trkpt>
      <trkpt lat="47.7856" lon="-3.51518">
        <ele>14.94</ele>
        <time>2020-07-08T13:01:29Z</time>
      </trkpt>
      <trkpt lat="47.78564" lon="-3.51515">
        <ele>14.88</ele>
        <time>2020-07-08T13:01:30Z</time>
      </trkpt>
      <trkpt lat="47.78568" lon="-3.51513">
        <ele>14.86</ele>
        <time>2020-07-08T13:01:31Z</time>
      </trkpt>
      <trkpt lat="47.78571" lon="-3.5151">
        <ele>14.86</ele>
        <time>2020-07-08T13:01:32Z</time>
      </trkpt>
      <trkpt lat="47.78575" lon="-3.51508">
        <ele>14.77</ele>
        <time>2020-07-08T13:01:33Z</time>
      </trkpt>
      <trkpt lat="47.78579" lon="-3.51506">
        <ele>14.64</ele>
        <time>2020-07-08T13:01:34Z</time>
      </trkpt>
      <trkpt lat="47.78583" lon="-3.51504">
        <ele>14.54</ele>
        <time>2020-07-08T13:01:35Z</time>
      </trkpt>
      <trkpt lat="47.78586" lon="-3.51502">
        <ele>14.42</ele>
        <time>2020-07-08T13:01:36Z</time>
      </trkpt>
      <trkpt lat="47.78591" lon="-3.51501">
        <ele>14.18</ele>
        <time>2020-07-08T13:01:37Z</time>
      </trkpt>
      <trkpt lat="47.78595" lon="-3.51499">
        <ele>13.96</ele>
        <time>2020-07-08T13:01:38Z</time>
      </trkpt>
      <trkpt lat="47.786" lon="-3.51497">
        <ele>13.65</ele>
        <time>2020-07-08T13:01:39Z</time>
      </trkpt>
      <trkpt lat="47.78605" lon="-3.51494">
        <ele>13.3</ele>
        <time>2020-07-08T13:01:40Z</time>
      </trkpt>
      <trkpt lat="47.78612" lon="-3.51489">
        <ele>12.94</ele>
        <time>2020-07-08T13:01:41Z</time>
      </trkpt>
      <trkpt lat="47.78618" lon="-3.51484">
        <ele>12.97</ele>
        <time>2020-07-08T13:01:42Z</time>
      </trkpt>
      <trkpt lat="47.78622" lon="-3.51482">
        <ele>13.03</ele>
        <time>2020-07-08T13:01:43Z</time>
      </trkpt>
      <trkpt lat="47.78626" lon="-3.51478">
        <ele>13.12</ele>
        <time>2020-07-08T13:01:44Z</time>
      </trkpt>
      <trkpt lat="47.7863" lon="-3.51476">
        <ele>13.12</ele>
        <time>2020-07-08T13:01:45Z</time>
      </trkpt>
      <trkpt lat="47.78635" lon="-3.51475">
        <ele>13.07</ele>
        <time>2020-07-08T13:01:46Z</time>
      </trkpt>
      <trkpt lat="47.78639" lon="-3.51474">
        <ele>12.97</ele>
        <time>2020-07-08T13:01:47Z</time>
      </trkpt>
      <trkpt lat="47.78644" lon="-3.51474">
        <ele>12.81</ele>
        <time>2020-07-08T13:01:48Z</time>
      </trkpt>
      <trkpt lat="47.7865" lon="-3.51476">
        <ele>12.54</ele>
        <time>2020-07-08T13:01:49Z</time>
      </trkpt>
      <trkpt lat="47.78657" lon="-3.51477">
        <ele>12.2</ele>
        <time>2020-07-08T13:01:50Z</time>
      </trkpt>
      <trkpt lat="47.78663" lon="-3.5148">
        <ele>11.81</ele>
        <time>2020-07-08T13:01:51Z</time>
      </trkpt>
      <trkpt lat="47.78668" lon="-3.51482">
        <ele>11.36</ele>
        <time>2020-07-08T13:01:52Z</time>
      </trkpt>
      <trkpt lat="47.78675" lon="-3.51486">
        <ele>10.82</ele>
        <time>2020-07-08T13:01:53Z</time>
      </trkpt>
      <trkpt lat="47.78681" lon="-3.5149">
        <ele>10.3</ele>
        <time>2020-07-08T13:01:54Z</time>
      </trkpt>
      <trkpt lat="47.78686" lon="-3.51493">
        <ele>9.83</ele>
        <time>2020-07-08T13:01:55Z</time>
      </trkpt>
      <trkpt lat="47.78691" lon="-3.51496">
        <ele>9.44</ele>
        <time>2020-07-08T13:01:56Z</time>
      </trkpt>
      <trkpt lat="47.78696" lon="-3.51499">
        <ele>9.27</ele>
        <time>2020-07-08T13:01:57Z</time>
      </trkpt>
      <trkpt lat="47.78701" lon="-3.51502">
        <ele>9.35</ele>
        <time>2020-07-08T13:01:58Z</time>
      </trkpt>
      <trkpt lat="47.78705" lon="-3.51504">
        <ele>9.5</ele>
        <time>2020-07-08T13:01:59Z</time>
      </trkpt>
      <trkpt lat="47.7871" lon="-3.51506">
        <ele>9.69</ele>
        <time>2020-07-08T13:02:00Z</time>
      </trkpt>
      <trkpt lat="47.78714" lon="-3.51509">
        <ele>9.8</ele>
        <time>2020-07-08T13:02:01Z</time>
      </trkpt>
      <trkpt lat="47.78718" lon="-3.51512">
        <ele>9.85</ele>
        <time>2020-07-08T13:02:02Z</time>
      </trkpt>
      <trkpt lat="47.78721" lon="-3.51515">
        <ele>9.87</ele>
        <time>2020-07-08T13:02:03Z</time>
      </trkpt>
      <trkpt lat="47.78725" lon="-3.51517">
        <ele>10.12</ele>
        <time>2020-07-08T13:02:04Z</time>
      </trkpt>
      <trkpt lat="47.78729" lon="-3.51519">
        <ele>10.45</ele>
        <time>2020-07-08T13:02:05Z</time>
      </trkpt>
      <trkpt lat="47.78733" lon="-3.5152">
        <ele>10.71</ele>
        <time>2020-07-08T13:02:06Z</time>
      </trkpt>
      <trkpt lat="47.78735" lon="-3.51522">
        <ele>10.92</ele>
        <time>2020-07-08T13:02:07Z</time>
      </trkpt>
      <trkpt lat="47.78738" lon="-3.51523">
        <ele>11.18</ele>
        <time>2020-07-08T13:02:08Z</time>
      </trkpt>
      <trkpt lat="47.78742" lon="-3.51523">
        <ele>11.54</ele>
        <time>2020-07-08T13:02:09Z</time>
      </trkpt>
      <trkpt lat="47.78746" lon="-3.51524">
        <ele>11.94</ele>
        <time>2020-07-08T13:02:10Z</time>
      </trkpt>
      <trkpt lat="47.7875" lon="-3.51524">
        <ele>12.35</ele>
        <time>2020-07-08T13:02:11Z</time>
      </trkpt>
      <trkpt lat="47.78754" lon="-3.51523">
        <ele>12.85</ele>
        <time>2020-07-08T13:02:12Z</time>
      </trkpt>
      <trkpt lat="47.7876" lon="-3.51524">
        <ele>13.38</ele>
        <time>2020-07-08T13:02:13Z</time>
      </trkpt>
      <trkpt lat="47.78764" lon="-3.51524">
        <ele>13.79</ele>
        <time>2020-07-08T13:02:14Z</time>
      </trkpt>
      <trkpt lat="47.78768" lon="-3.51524">
        <ele>14.19</ele>
        <time>2020-07-08T13:02:15Z</time>
      </trkpt>
      <trkpt lat="47.78771" lon="-3.51524">
        <ele>14.54</ele>
        <time>2020-07-08T13:02:16Z</time>
      </trkpt>
      <trkpt lat="47.78774" lon="-3.51524">
        <ele>14.89</ele>
        <time>2020-07-08T13:02:17Z</time>
      </trkpt>
      <trkpt lat="47.78778" lon="-3.51523">
        <ele>15.28</ele>
        <time>2020-07-08T13:02:18Z</time>
      </trkpt>
      <trkpt lat="47.7878" lon="-3.51524">
        <ele>15.38</ele>
        <time>2020-07-08T13:02:19Z</time>
      </trkpt>
      <trkpt lat="47.78783" lon="-3.51525">
        <ele>15.35</ele>
        <time>2020-07-08T13:02:20Z</time>
      </trkpt>
      <trkpt lat="47.78786" lon="-3.51526">
        <ele>15.25</ele>
        <time>2020-07-08T13:02:21Z</time>
      </trkpt>
      <trkpt lat="47.7879" lon="-3.51528">
        <ele>15.09</ele>
        <time>2020-07-08T13:02:22Z</time>
      </trkpt>
      <trkpt lat="47.78793" lon="-3.5153">
        <ele>14.85</ele>
        <time>2020-07-08T13:02:23Z</time>
      </trkpt>
      <trkpt lat="47.78797" lon="-3.51533">
        <ele>14.62</ele>
        <time>2020-07-08T13:02:24Z</time>
      </trkpt>
      <trkpt lat="47.78801" lon="-3.51536">
        <ele>14.42</ele>
        <time>2020-07-08T13:02:25Z</time>
      </trkpt>
      <trkpt lat="47.78804" lon="-3.51538">
        <ele>14.28</ele>
        <time>2020-07-08T13:02:26Z</time>
      </trkpt>
      <trkpt lat="47.78808" lon="-3.5154">
        <ele>14.41</ele>
        <time>2020-07-08T13:02:27Z</time>
      </trkpt>
      <trkpt lat="47.78812" lon="-3.51543">
        <ele>14.72</ele>
        <time>2020-07-08T13:02:28Z</time>
      </trkpt>
      <trkpt lat="47.78816" lon="-3.51545">
        <ele>15.07</ele>
        <time>2020-07-08T13:02:29Z</time>
      </trkpt>
      <trkpt lat="47.7882" lon="-3.51546">
        <ele>15.39</ele>
        <time>2020-07-08T13:02:30Z</time>
      </trkpt>
      <trkpt lat="47.78824" lon="-3.51549">
        <ele>15.66</ele>
        <time>2020-07-08T13:02:31Z</time>
      </trkpt>
      <trkpt lat="47.78828" lon="-3.5155">
        <ele>15.96</ele>
        <time>2020-07-08T13:02:32Z</time>
      </trkpt>
      <trkpt lat="47.78831" lon="-3.51552">
        <ele>16.15</ele>
        <time>2020-07-08T13:02:33Z</time>
      </trkpt>
      <trkpt lat="47.78835" lon="-3.51554">
        <ele>16.39</ele>
        <time>2020-07-08T13:02:34Z</time>
      </trkpt>
      <trkpt lat="47.78839" lon="-3.51556">
        <ele>16.63</ele>
        <time>2020-07-08T13:02:35Z</time>
      </trkpt>
      <trkpt lat="47.78842" lon="-3.51559">
        <ele>16.77</ele>
        <time>2020-07-08T13:02:36Z</time>
      </trkpt>
      <trkpt lat="47.78845" lon="-3.51561">
        <ele>16.98</ele>
        <time>2020-07-08T13:02:37Z</time>
      </trkpt>
      <trkpt lat="47.78849" lon="-3.51563">
        <ele>17.17</ele>
        <time>2020-07-08T13:02:38Z</time>
      </trkpt>
      <trkpt lat="47.78853" lon="-3.51566">
        <ele>17.36</ele>
        <time>2020-07-08T13:02:39Z</time>
      </trkpt>
      <trkpt lat="47.78855" lon="-3.51569">
        <ele>17.34</ele>
        <time>2020-07-08T13:02:40Z</time>
      </trkpt>
      <trkpt lat="47.78858" lon="-3.51571">
        <ele>17.41</ele>
        <time>2020-07-08T13:02:41Z</time>
      </trkpt>
      <trkpt lat="47.78862" lon="-3.51574">
        <ele>17.39</ele>
        <time>2020-07-08T13:02:42Z</time>
      </trkpt>
      <trkpt lat="47.78866" lon="-3.51577">
        <ele>17.31</ele>
        <time>2020-07-08T13:02:43Z</time>
      </trkpt>
      <trkpt lat="47.7887" lon="-3.5158">
        <ele>17.18</ele>
        <time>2020-07-08T13:02:44Z</time>
      </trkpt>
      <trkpt lat="47.78874" lon="-3.51583">
        <ele>17.04</ele>
        <time>2020-07-08T13:02:45Z</time>
      </trkpt>
      <trkpt lat="47.78878" lon="-3.51585">
        <ele>17.03</ele>
        <time>2020-07-08T13:02:46Z</time>
      </trkpt>
      <trkpt lat="47.78882" lon="-3.51587">
        <ele>17.1</ele>
        <time>2020-07-08T13:02:47Z</time>
      </trkpt>
      <trkpt lat="47.78885" lon="-3.51589">
        <ele>17.14</ele>
        <time>2020-07-08T13:02:48Z</time>
      </trkpt>
      <trkpt lat="47.78889" lon="-3.51591">
        <ele>17.24</ele>
        <time>2020-07-08T13:02:49Z</time>
      </trkpt>
      <trkpt lat="47.78894" lon="-3.51592">
        <ele>17.45</ele>
        <time>2020-07-08T13:02:50Z</time>
      </trkpt>
      <trkpt lat="47.78899" lon="-3.51593">
        <ele>17.74</ele>
        <time>2020-07-08T13:02:51Z</time>
      </trkpt>
      <trkpt lat="47.78903" lon="-3.51595">
        <ele>18.01</ele>
        <time>2020-07-08T13:02:52Z</time>
      </trkpt>
      <trkpt lat="47.78908" lon="-3.51596">
        <ele>18.23</ele>
        <time>2020-07-08T13:02:53Z</time>
      </trkpt>
      <trkpt lat="47.78913" lon="-3.51598">
        <ele>18.46</ele>
        <time>2020-07-08T13:02:54Z</time>
      </trkpt>
      <trkpt lat="47.78918" lon="-3.51599">
        <ele>18.66</ele>
        <time>2020-07-08T13:02:55Z</time>
      </trkpt>
      <trkpt lat="47.78922" lon="-3.51601">
        <ele>18.71</ele>
        <time>2020-07-08T13:02:56Z</time>
      </trkpt>
      <trkpt lat="47.78926" lon="-3.516">
        <ele>18.85</ele>
        <time>2020-07-08T13:02:57Z</time>
      </trkpt>
      <trkpt lat="47.78931" lon="-3.51599">
        <ele>19.09</ele>
        <time>2020-07-08T13:02:58Z</time>
      </trkpt>
      <trkpt lat="47.78935" lon="-3.51599">
        <ele>19.37</ele>
        <time>2020-07-08T13:02:59Z</time>
      </trkpt>
      <trkpt lat="47.7894" lon="-3.51598">
        <ele>19.61</ele>
        <time>2020-07-08T13:03:00Z</time>
      </trkpt>
      <trkpt lat="47.78944" lon="-3.51596">
        <ele>19.95</ele>
        <time>2020-07-08T13:03:01Z</time>
      </trkpt>
      <trkpt lat="47.78949" lon="-3.51595">
        <ele>20.2</ele>
        <time>2020-07-08T13:03:02Z</time>
      </trkpt>
      <trkpt lat="47.78954" lon="-3.51594">
        <ele>20.33</ele>
        <time>2020-07-08T13:03:03Z</time>
      </trkpt>
      <trkpt lat="47.78958" lon="-3.51593">
        <ele>20.4</ele>
        <time>2020-07-08T13:03:04Z</time>
      </trkpt>
      <trkpt lat="47.78963" lon="-3.51593">
        <ele>20.42</ele>
        <time>2020-07-08T13:03:05Z</time>
      </trkpt>
      <trkpt lat="47.78967" lon="-3.51592">
        <ele>20.47</ele>
        <time>2020-07-08T13:03:06Z</time>
      </trkpt>
      <trkpt lat="47.78972" lon="-3.51592">
        <ele>20.52</ele>
        <time>2020-07-08T13:03:07Z</time>
      </trkpt>
      <trkpt lat="47.78976" lon="-3.51591">
        <ele>20.5</ele>
        <time>2020-07-08T13:03:08Z</time>
      </trkpt>
      <trkpt lat="47.7898" lon="-3.51591">
        <ele>20.47</ele>
        <time>2020-07-08T13:03:09Z</time>
      </trkpt>
      <trkpt lat="47.78984" lon="-3.5159">
        <ele>20.46</ele>
        <time>2020-07-08T13:03:10Z</time>
      </trkpt>
      <trkpt lat="47.7899" lon="-3.51589">
        <ele>20.49</ele>
        <time>2020-07-08T13:03:11Z</time>
      </trkpt>
      <trkpt lat="47.78995" lon="-3.51588">
        <ele>20.44</ele>
        <time>2020-07-08T13:03:12Z</time>
      </trkpt>
      <trkpt lat="47.79" lon="-3.51588">
        <ele>20.4</ele>
        <time>2020-07-08T13:03:13Z</time>
      </trkpt>
      <trkpt lat="47.79004" lon="-3.51587">
        <ele>20.23</ele>
        <time>2020-07-08T13:03:14Z</time>
      </trkpt>
      <trkpt lat="47.79008" lon="-3.51586">
        <ele>20.11</ele>
        <time>2020-07-08T13:03:15Z</time>
      </trkpt>
      <trkpt lat="47.79012" lon="-3.51584">
        <ele>20.03</ele>
        <time>2020-07-08T13:03:16Z</time>
      </trkpt>
      <trkpt lat="47.79016" lon="-3.51584">
        <ele>19.88</ele>
        <time>2020-07-08T13:03:17Z</time>
      </trkpt>
      <trkpt lat="47.7902" lon="-3.51584">
        <ele>19.55</ele>
        <time>2020-07-08T13:03:18Z</time>
      </trkpt>
      <trkpt lat="47.79024" lon="-3.51585">
        <ele>19.17</ele>
        <time>2020-07-08T13:03:19Z</time>
      </trkpt>
      <trkpt lat="47.79029" lon="-3.51585">
        <ele>18.83</ele>
        <time>2020-07-08T13:03:20Z</time>
      </trkpt>
      <trkpt lat="47.79032" lon="-3.51585">
        <ele>18.66</ele>
        <time>2020-07-08T13:03:21Z</time>
      </trkpt>
      <trkpt lat="47.79036" lon="-3.51584">
        <ele>18.59</ele>
        <time>2020-07-08T13:03:22Z</time>
      </trkpt>
      <trkpt lat="47.7904" lon="-3.51584">
        <ele>18.51</ele>
        <time>2020-07-08T13:03:23Z</time>
      </trkpt>
      <trkpt lat="47.79046" lon="-3.51584">
        <ele>18.37</ele>
        <time>2020-07-08T13:03:24Z</time>
      </trkpt>
      <trkpt lat="47.7905" lon="-3.51584">
        <ele>18.17</ele>
        <time>2020-07-08T13:03:25Z</time>
      </trkpt>
      <trkpt lat="47.79056" lon="-3.51585">
        <ele>17.91</ele>
        <time>2020-07-08T13:03:26Z</time>
      </trkpt>
      <trkpt lat="47.7906" lon="-3.51586">
        <ele>17.81</ele>
        <time>2020-07-08T13:03:27Z</time>
      </trkpt>
      <trkpt lat="47.79065" lon="-3.51586">
        <ele>17.79</ele>
        <time>2020-07-08T13:03:28Z</time>
      </trkpt>
      <trkpt lat="47.7907" lon="-3.51586">
        <ele>17.79</ele>
        <time>2020-07-08T13:03:29Z</time>
      </trkpt>
      <trkpt lat="47.79074" lon="-3.51587">
        <ele>17.74</ele>
        <time>2020-07-08T13:03:30Z</time>
      </trkpt>
      <trkpt lat="47.79078" lon="-3.51587">
        <ele>17.71</ele>
        <time>2020-07-08T13:03:31Z</time>
      </trkpt>
      <trkpt lat="47.79082" lon="-3.51587">
        <ele>17.72</ele>
        <time>2020-07-08T13:03:32Z</time>
      </trkpt>
      <trkpt lat="47.79087" lon="-3.51587">
        <ele>17.73</ele>
        <time>2020-07-08T13:03:33Z</time>
      </trkpt>
      <trkpt lat="47.79092" lon="-3.51588">
        <ele>17.73</ele>
        <time>2020-07-08T13:03:34Z</time>
      </trkpt>
      <trkpt lat="47.79097" lon="-3.51589">
        <ele>17.72</ele>
        <time>2020-07-08T13:03:35Z</time>
      </trkpt>
      <trkpt lat="47.79102" lon="-3.5159">
        <ele>17.69</ele>
        <time>2020-07-08T13:03:36Z</time>
      </trkpt>
      <trkpt lat="47.79108" lon="-3.51591">
        <ele>17.68</ele>
        <time>2020-07-08T13:03:37Z</time>
      </trkpt>
      <trkpt lat="47.79114" lon="-3.51592">
        <ele>17.74</ele>
        <time>2020-07-08T13:03:38Z</time>
      </trkpt>
      <trkpt lat="47.79119" lon="-3.51593">
        <ele>17.87</ele>
        <time>2020-07-08T13:03:39Z</time>
      </trkpt>
      <trkpt lat="47.79124" lon="-3.51594">
        <ele>18.02</ele>
        <time>2020-07-08T13:03:40Z</time>
      </trkpt>
      <trkpt lat="47.7913" lon="-3.51595">
        <ele>18.19</ele>
        <time>2020-07-08T13:03:41Z</time>
      </trkpt>
      <trkpt lat="47.79135" lon="-3.51596">
        <ele>18.32</ele>
        <time>2020-07-08T13:03:42Z</time>
      </trkpt>
      <trkpt lat="47.79139" lon="-3.51598">
        <ele>18.45</ele>
        <time>2020-07-08T13:03:43Z</time>
      </trkpt>
      <trkpt lat="47.79144" lon="-3.51598">
        <ele>18.65</ele>
        <time>2020-07-08T13:03:44Z</time>
      </trkpt>
      <trkpt lat="47.79148" lon="-3.51598">
        <ele>18.88</ele>
        <time>2020-07-08T13:03:45Z</time>
      </trkpt>
      <trkpt lat="47.79153" lon="-3.51598">
        <ele>19.11</ele>
        <time>2020-07-08T13:03:46Z</time>
      </trkpt>
      <trkpt lat="47.79157" lon="-3.51599">
        <ele>19.3</ele>
        <time>2020-07-08T13:03:47Z</time>
      </trkpt>
      <trkpt lat="47.79162" lon="-3.51601">
        <ele>19.46</ele>
        <time>2020-07-08T13:03:48Z</time>
      </trkpt>
      <trkpt lat="47.79165" lon="-3.51602">
        <ele>19.58</ele>
        <time>2020-07-08T13:03:49Z</time>
      </trkpt>
      <trkpt lat="47.79169" lon="-3.51603">
        <ele>19.75</ele>
        <time>2020-07-08T13:03:50Z</time>
      </trkpt>
      <trkpt lat="47.79173" lon="-3.51604">
        <ele>20.02</ele>
        <time>2020-07-08T13:03:51Z</time>
      </trkpt>
      <trkpt lat="47.79177" lon="-3.51606">
        <ele>20.31</ele>
        <time>2020-07-08T13:03:52Z</time>
      </trkpt>
      <trkpt lat="47.7918" lon="-3.51609">
        <ele>20.5</ele>
        <time>2020-07-08T13:03:53Z</time>
      </trkpt>
      <trkpt lat="47.79184" lon="-3.51612">
        <ele>20.71</ele>
        <time>2020-07-08T13:03:54Z</time>
      </trkpt>
      <trkpt lat="47.79187" lon="-3.51616">
        <ele>20.95</ele>
        <time>2020-07-08T13:03:55Z</time>
      </trkpt>
      <trkpt lat="47.7919" lon="-3.5162">
        <ele>21.12</ele>
        <time>2020-07-08T13:03:56Z</time>
      </trkpt>
      <trkpt lat="47.79194" lon="-3.51625">
        <ele>21.31</ele>
        <time>2020-07-08T13:03:57Z</time>
      </trkpt>
      <trkpt lat="47.79196" lon="-3.51631">
        <ele>21.51</ele>
        <time>2020-07-08T13:03:58Z</time>
      </trkpt>
      <trkpt lat="47.79197" lon="-3.51637">
        <ele>21.65</ele>
        <time>2020-07-08T13:03:59Z</time>
      </trkpt>
      <trkpt lat="47.79199" lon="-3.51642">
        <ele>21.87</ele>
        <time>2020-07-08T13:04:00Z</time>
      </trkpt>
      <trkpt lat="47.79201" lon="-3.51647">
        <ele>22.25</ele>
        <time>2020-07-08T13:04:01Z</time>
      </trkpt>
      <trkpt lat="47.79203" lon="-3.51653">
        <ele>22.49</ele>
        <time>2020-07-08T13:04:02Z</time>
      </trkpt>
      <trkpt lat="47.79204" lon="-3.51657">
        <ele>22.76</ele>
        <time>2020-07-08T13:04:03Z</time>
      </trkpt>
      <trkpt lat="47.79207" lon="-3.51661">
        <ele>23.13</ele>
        <time>2020-07-08T13:04:04Z</time>
      </trkpt>
      <trkpt lat="47.79209" lon="-3.51666">
        <ele>23.42</ele>
        <time>2020-07-08T13:04:05Z</time>
      </trkpt>
      <trkpt lat="47.7921" lon="-3.5167">
        <ele>23.76</ele>
        <time>2020-07-08T13:04:06Z</time>
      </trkpt>
      <trkpt lat="47.7921" lon="-3.51674">
        <ele>24.08</ele>
        <time>2020-07-08T13:04:07Z</time>
      </trkpt>
      <trkpt lat="47.7921" lon="-3.51678">
        <ele>24.29</ele>
        <time>2020-07-08T13:04:08Z</time>
      </trkpt>
      <trkpt lat="47.7921" lon="-3.51681">
        <ele>24.44</ele>
        <time>2020-07-08T13:04:09Z</time>
      </trkpt>
      <trkpt lat="47.7921" lon="-3.51685">
        <ele>24.57</ele>
        <time>2020-07-08T13:04:10Z</time>
      </trkpt>
      <trkpt lat="47.79209" lon="-3.5169">
        <ele>24.72</ele>
        <time>2020-07-08T13:04:11Z</time>
      </trkpt>
      <trkpt lat="47.79209" lon="-3.51694">
        <ele>24.9</ele>
        <time>2020-07-08T13:04:12Z</time>
      </trkpt>
      <trkpt lat="47.79209" lon="-3.51698">
        <ele>25.16</ele>
        <time>2020-07-08T13:04:13Z</time>
      </trkpt>
      <trkpt lat="47.79209" lon="-3.51701">
        <ele>25.4</ele>
        <time>2020-07-08T13:04:14Z</time>
      </trkpt>
      <trkpt lat="47.79208" lon="-3.51705">
        <ele>25.63</ele>
        <time>2020-07-08T13:04:15Z</time>
      </trkpt>
      <trkpt lat="47.79207" lon="-3.51709">
        <ele>25.88</ele>
        <time>2020-07-08T13:04:16Z</time>
      </trkpt>
      <trkpt lat="47.79207" lon="-3.51713">
        <ele>26.12</ele>
        <time>2020-07-08T13:04:17Z</time>
      </trkpt>
      <trkpt lat="47.79206" lon="-3.51717">
        <ele>26.34</ele>
        <time>2020-07-08T13:04:18Z</time>
      </trkpt>
      <trkpt lat="47.79205" lon="-3.51721">
        <ele>26.58</ele>
        <time>2020-07-08T13:04:19Z</time>
      </trkpt>
      <trkpt lat="47.79205" lon="-3.51724">
        <ele>26.82</ele>
        <time>2020-07-08T13:04:20Z</time>
      </trkpt>
      <trkpt lat="47.79205" lon="-3.51728">
        <ele>27.04</ele>
        <time>2020-07-08T13:04:21Z</time>
      </trkpt>
      <trkpt lat="47.79204" lon="-3.51732">
        <ele>27.29</ele>
        <time>2020-07-08T13:04:22Z</time>
      </trkpt>
      <trkpt lat="47.79203" lon="-3.51736">
        <ele>27.55</ele>
        <time>2020-07-08T13:04:23Z</time>
      </trkpt>
      <trkpt lat="47.79203" lon="-3.5174">
        <ele>27.78</ele>
        <time>2020-07-08T13:04:24Z</time>
      </trkpt>
      <trkpt lat="47.79203" lon="-3.51745">
        <ele>28.11</ele>
        <time>2020-07-08T13:04:25Z</time>
      </trkpt>
      <trkpt lat="47.79202" lon="-3.5175">
        <ele>28.39</ele>
        <time>2020-07-08T13:04:26Z</time>
      </trkpt>
      <trkpt lat="47.79202" lon="-3.51755">
        <ele>28.66</ele>
        <time>2020-07-08T13:04:27Z</time>
      </trkpt>
      <trkpt lat="47.79202" lon="-3.5176">
        <ele>28.96</ele>
        <time>2020-07-08T13:04:28Z</time>
      </trkpt>
      <trkpt lat="47.79202" lon="-3.51765">
        <ele>29.24</ele>
        <time>2020-07-08T13:04:29Z</time>
      </trkpt>
      <trkpt lat="47.79201" lon="-3.51769">
        <ele>29.38</ele>
        <time>2020-07-08T13:04:30Z</time>
      </trkpt>
      <trkpt lat="47.792" lon="-3.51773">
        <ele>29.55</ele>
        <time>2020-07-08T13:04:31Z</time>
      </trkpt>
      <trkpt lat="47.792" lon="-3.51779">
        <ele>29.8</ele>
        <time>2020-07-08T13:04:32Z</time>
      </trkpt>
      <trkpt lat="47.792" lon="-3.51784">
        <ele>30.11</ele>
        <time>2020-07-08T13:04:33Z</time>
      </trkpt>
      <trkpt lat="47.79201" lon="-3.51788">
        <ele>30.43</ele>
        <time>2020-07-08T13:04:34Z</time>
      </trkpt>
      <trkpt lat="47.79201" lon="-3.51793">
        <ele>30.73</ele>
        <time>2020-07-08T13:04:35Z</time>
      </trkpt>
      <trkpt lat="47.79201" lon="-3.51797">
        <ele>31.08</ele>
        <time>2020-07-08T13:04:36Z</time>
      </trkpt>
      <trkpt lat="47.79202" lon="-3.51802">
        <ele>31.4</ele>
        <time>2020-07-08T13:04:37Z</time>
      </trkpt>
      <trkpt lat="47.79202" lon="-3.51806">
        <ele>31.74</ele>
        <time>2020-07-08T13:04:38Z</time>
      </trkpt>
      <trkpt lat="47.79202" lon="-3.5181">
        <ele>32.05</ele>
        <time>2020-07-08T13:04:39Z</time>
      </trkpt>
      <trkpt lat="47.79202" lon="-3.51814">
        <ele>32.34</ele>
        <time>2020-07-08T13:04:40Z</time>
      </trkpt>
      <trkpt lat="47.79203" lon="-3.51818">
        <ele>32.64</ele>
        <time>2020-07-08T13:04:41Z</time>
      </trkpt>
      <trkpt lat="47.79203" lon="-3.51822">
        <ele>32.98</ele>
        <time>2020-07-08T13:04:42Z</time>
      </trkpt>
      <trkpt lat="47.79204" lon="-3.51826">
        <ele>33.4</ele>
        <time>2020-07-08T13:04:43Z</time>
      </trkpt>
      <trkpt lat="47.79205" lon="-3.51831">
        <ele>33.78</ele>
        <time>2020-07-08T13:04:44Z</time>
      </trkpt>
      <trkpt lat="47.79206" lon="-3.51835">
        <ele>34.13</ele>
        <time>2020-07-08T13:04:45Z</time>
      </trkpt>
      <trkpt lat="47.79207" lon="-3.51838">
        <ele>34.38</ele>
        <time>2020-07-08T13:04:46Z</time>
      </trkpt>
      <trkpt lat="47.79209" lon="-3.51842">
        <ele>34.63</ele>
        <time>2020-07-08T13:04:47Z</time>
      </trkpt>
      <trkpt lat="47.79211" lon="-3.51846">
        <ele>34.86</ele>
        <time>2020-07-08T13:04:48Z</time>
      </trkpt>
      <trkpt lat="47.79213" lon="-3.51851">
        <ele>35.08</ele>
        <time>2020-07-08T13:04:49Z</time>
      </trkpt>
      <trkpt lat="47.79213" lon="-3.51857">
        <ele>35.25</ele>
        <time>2020-07-08T13:04:50Z</time>
      </trkpt>
      <trkpt lat="47.79214" lon="-3.51861">
        <ele>35.38</ele>
        <time>2020-07-08T13:04:51Z</time>
      </trkpt>
      <trkpt lat="47.79214" lon="-3.51867">
        <ele>35.51</ele>
        <time>2020-07-08T13:04:52Z</time>
      </trkpt>
      <trkpt lat="47.79213" lon="-3.51872">
        <ele>35.6</ele>
        <time>2020-07-08T13:04:53Z</time>
      </trkpt>
      <trkpt lat="47.79213" lon="-3.51877">
        <ele>35.71</ele>
        <time>2020-07-08T13:04:54Z</time>
      </trkpt>
      <trkpt lat="47.79213" lon="-3.51883">
        <ele>35.81</ele>
        <time>2020-07-08T13:04:55Z</time>
      </trkpt>
      <trkpt lat="47.79213" lon="-3.51889">
        <ele>35.91</ele>
        <time>2020-07-08T13:04:56Z</time>
      </trkpt>
      <trkpt lat="47.79212" lon="-3.51894">
        <ele>35.94</ele>
        <time>2020-07-08T13:04:57Z</time>
      </trkpt>
      <trkpt lat="47.79211" lon="-3.51899">
        <ele>35.93</ele>
        <time>2020-07-08T13:04:58Z</time>
      </trkpt>
      <trkpt lat="47.7921" lon="-3.51903">
        <ele>35.91</ele>
        <time>2020-07-08T13:04:59Z</time>
      </trkpt>
      <trkpt lat="47.79209" lon="-3.51908">
        <ele>35.92</ele>
        <time>2020-07-08T13:05:00Z</time>
      </trkpt>
      <trkpt lat="47.79209" lon="-3.51913">
        <ele>35.95</ele>
        <time>2020-07-08T13:05:01Z</time>
      </trkpt>
      <trkpt lat="47.79208" lon="-3.51918">
        <ele>35.97</ele>
        <time>2020-07-08T13:05:02Z</time>
      </trkpt>
      <trkpt lat="47.79207" lon="-3.51923">
        <ele>35.95</ele>
        <time>2020-07-08T13:05:03Z</time>
      </trkpt>
      <trkpt lat="47.79207" lon="-3.51928">
        <ele>35.92</ele>
        <time>2020-07-08T13:05:04Z</time>
      </trkpt>
      <trkpt lat="47.79206" lon="-3.51932">
        <ele>35.83</ele>
        <time>2020-07-08T13:05:05Z</time>
      </trkpt>
      <trkpt lat="47.79205" lon="-3.51937">
        <ele>35.76</ele>
        <time>2020-07-08T13:05:06Z</time>
      </trkpt>
      <trkpt lat="47.79204" lon="-3.51942">
        <ele>35.74</ele>
        <time>2020-07-08T13:05:07Z</time>
      </trkpt>
      <trkpt lat="47.79205" lon="-3.51947">
        <ele>35.74</ele>
        <time>2020-07-08T13:05:08Z</time>
      </trkpt>
      <trkpt lat="47.79205" lon="-3.51953">
        <ele>35.76</ele>
        <time>2020-07-08T13:05:09Z</time>
      </trkpt>
      <trkpt lat="47.79206" lon="-3.51958">
        <ele>35.82</ele>
        <time>2020-07-08T13:05:10Z</time>
      </trkpt>
      <trkpt lat="47.79206" lon="-3.51963">
        <ele>35.85</ele>
        <time>2020-07-08T13:05:11Z</time>
      </trkpt>
      <trkpt lat="47.79206" lon="-3.51967">
        <ele>35.84</ele>
        <time>2020-07-08T13:05:12Z</time>
      </trkpt>
      <trkpt lat="47.79207" lon="-3.51972">
        <ele>35.89</ele>
        <time>2020-07-08T13:05:13Z</time>
      </trkpt>
      <trkpt lat="47.79207" lon="-3.51976">
        <ele>35.95</ele>
        <time>2020-07-08T13:05:14Z</time>
      </trkpt>
      <trkpt lat="47.79207" lon="-3.5198">
        <ele>36</ele>
        <time>2020-07-08T13:05:15Z</time>
      </trkpt>
      <trkpt lat="47.79207" lon="-3.51984">
        <ele>36.08</ele>
        <time>2020-07-08T13:05:16Z</time>
      </trkpt>
      <trkpt lat="47.79207" lon="-3.51989">
        <ele>36.18</ele>
        <time>2020-07-08T13:05:17Z</time>
      </trkpt>
      <trkpt lat="47.79206" lon="-3.51994">
        <ele>36.26</ele>
        <time>2020-07-08T13:05:18Z</time>
      </trkpt>
      <trkpt lat="47.79205" lon="-3.51999">
        <ele>36.32</ele>
        <time>2020-07-08T13:05:19Z</time>
      </trkpt>
      <trkpt lat="47.79203" lon="-3.52003">
        <ele>36.3</ele>
        <time>2020-07-08T13:05:20Z</time>
      </trkpt>
      <trkpt lat="47.792" lon="-3.52007">
        <ele>36.24</ele>
        <time>2020-07-08T13:05:21Z</time>
      </trkpt>
      <trkpt lat="47.79197" lon="-3.52011">
        <ele>36.13</ele>
        <time>2020-07-08T13:05:22Z</time>
      </trkpt>
      <trkpt lat="47.79193" lon="-3.52013">
        <ele>35.98</ele>
        <time>2020-07-08T13:05:23Z</time>
      </trkpt>
      <trkpt lat="47.79189" lon="-3.52015">
        <ele>35.74</ele>
        <time>2020-07-08T13:05:24Z</time>
      </trkpt>
      <trkpt lat="47.79185" lon="-3.52016">
        <ele>35.43</ele>
        <time>2020-07-08T13:05:25Z</time>
      </trkpt>
      <trkpt lat="47.7918" lon="-3.52018">
        <ele>35.09</ele>
        <time>2020-07-08T13:05:26Z</time>
      </trkpt>
      <trkpt lat="47.79174" lon="-3.52019">
        <ele>34.72</ele>
        <time>2020-07-08T13:05:27Z</time>
      </trkpt>
      <trkpt lat="47.79169" lon="-3.5202">
        <ele>34.34</ele>
        <time>2020-07-08T13:05:28Z</time>
      </trkpt>
      <trkpt lat="47.79164" lon="-3.52023">
        <ele>33.9</ele>
        <time>2020-07-08T13:05:29Z</time>
      </trkpt>
      <trkpt lat="47.79159" lon="-3.52027">
        <ele>33.37</ele>
        <time>2020-07-08T13:05:30Z</time>
      </trkpt>
      <trkpt lat="47.79154" lon="-3.52032">
        <ele>32.9</ele>
        <time>2020-07-08T13:05:31Z</time>
      </trkpt>
      <trkpt lat="47.7915" lon="-3.52039">
        <ele>32.61</ele>
        <time>2020-07-08T13:05:32Z</time>
      </trkpt>
      <trkpt lat="47.79148" lon="-3.52047">
        <ele>32.49</ele>
        <time>2020-07-08T13:05:33Z</time>
      </trkpt>
      <trkpt lat="47.79146" lon="-3.52056">
        <ele>32.5</ele>
        <time>2020-07-08T13:05:34Z</time>
      </trkpt>
      <trkpt lat="47.79145" lon="-3.52065">
        <ele>32.21</ele>
        <time>2020-07-08T13:05:35Z</time>
      </trkpt>
      <trkpt lat="47.79144" lon="-3.52075">
        <ele>31.83</ele>
        <time>2020-07-08T13:05:36Z</time>
      </trkpt>
      <trkpt lat="47.79143" lon="-3.52084">
        <ele>31.46</ele>
        <time>2020-07-08T13:05:37Z</time>
      </trkpt>
      <trkpt lat="47.79142" lon="-3.52094">
        <ele>31.29</ele>
        <time>2020-07-08T13:05:38Z</time>
      </trkpt>
      <trkpt lat="47.7914" lon="-3.52104">
        <ele>31.15</ele>
        <time>2020-07-08T13:05:39Z</time>
      </trkpt>
      <trkpt lat="47.79139" lon="-3.52114">
        <ele>30.94</ele>
        <time>2020-07-08T13:05:40Z</time>
      </trkpt>
      <trkpt lat="47.79137" lon="-3.52124">
        <ele>30.5</ele>
        <time>2020-07-08T13:05:41Z</time>
      </trkpt>
      <trkpt lat="47.79135" lon="-3.52134">
        <ele>30.01</ele>
        <time>2020-07-08T13:05:42Z</time>
      </trkpt>
      <trkpt lat="47.79134" lon="-3.52142">
        <ele>29.57</ele>
        <time>2020-07-08T13:05:43Z</time>
      </trkpt>
      <trkpt lat="47.79134" lon="-3.5215">
        <ele>29.22</ele>
        <time>2020-07-08T13:05:44Z</time>
      </trkpt>
      <trkpt lat="47.79134" lon="-3.52156">
        <ele>29</ele>
        <time>2020-07-08T13:05:45Z</time>
      </trkpt>
      <trkpt lat="47.79136" lon="-3.5216">
        <ele>28.94</ele>
        <time>2020-07-08T13:05:46Z</time>
      </trkpt>
      <trkpt lat="47.79139" lon="-3.52164">
        <ele>29.04</ele>
        <time>2020-07-08T13:05:47Z</time>
      </trkpt>
      <trkpt lat="47.79142" lon="-3.52165">
        <ele>29.24</ele>
        <time>2020-07-08T13:05:48Z</time>
      </trkpt>
      <trkpt lat="47.79146" lon="-3.52165">
        <ele>29.47</ele>
        <time>2020-07-08T13:05:49Z</time>
      </trkpt>
      <trkpt lat="47.7915" lon="-3.52165">
        <ele>29.73</ele>
        <time>2020-07-08T13:05:50Z</time>
      </trkpt>
      <trkpt lat="47.79154" lon="-3.52166">
        <ele>29.99</ele>
        <time>2020-07-08T13:05:51Z</time>
      </trkpt>
      <trkpt lat="47.79157" lon="-3.52166">
        <ele>30.25</ele>
        <time>2020-07-08T13:05:52Z</time>
      </trkpt>
      <trkpt lat="47.79161" lon="-3.52166">
        <ele>30.51</ele>
        <time>2020-07-08T13:05:53Z</time>
      </trkpt>
      <trkpt lat="47.79164" lon="-3.52167">
        <ele>30.73</ele>
        <time>2020-07-08T13:05:54Z</time>
      </trkpt>
      <trkpt lat="47.79167" lon="-3.52167">
        <ele>30.94</ele>
        <time>2020-07-08T13:05:55Z</time>
      </trkpt>
      <trkpt lat="47.79169" lon="-3.52168">
        <ele>31.09</ele>
        <time>2020-07-08T13:05:56Z</time>
      </trkpt>
      <trkpt lat="47.7917" lon="-3.52169">
        <ele>31.17</ele>
        <time>2020-07-08T13:05:57Z</time>
      </trkpt>
      <trkpt lat="47.7917" lon="-3.52169">
        <ele>31.23</ele>
        <time>2020-07-08T13:05:58Z</time>
      </trkpt>
      <trkpt lat="47.7917" lon="-3.52169">
        <ele>31.24</ele>
        <time>2020-07-08T13:05:59Z</time>
      </trkpt>
      <trkpt lat="47.7917" lon="-3.52169">
        <ele>31.24</ele>
        <time>2020-07-08T13:06:00Z</time>
      </trkpt>
      <trkpt lat="47.7917" lon="-3.52169">
        <ele>31.24</ele>
        <time>2020-07-08T13:06:01Z</time>
      </trkpt>
      <trkpt lat="47.7917" lon="-3.52169">
        <ele>31.24</ele>
        <time>2020-07-08T13:06:02Z</time>
      </trkpt>
      <trkpt lat="47.7917" lon="-3.52169">
        <ele>31.24</ele>
        <time>2020-07-08T13:06:03Z</time>
      </trkpt>
      <trkpt lat="47.7917" lon="-3.52169">
        <ele>31.24</ele>
        <time>2020-07-08T13:06:04Z</time>
      </trkpt>
      <trkpt lat="47.7917" lon="-3.52169">
        <ele>31.24</ele>
        <time>2020-07-08T13:06:05Z</time>
      </trkpt>
      <trkpt lat="47.7917" lon="-3.52169">
        <ele>31.24</ele>
        <time>2020-07-08T13:06:06Z</time>
      </trkpt>
      <trkpt lat="47.7917" lon="-3.52169">
        <ele>31.24</ele>
        <time>2020-07-08T13:06:07Z</time>
      </trkpt>
      <trkpt lat="47.7917" lon="-3.52169">
        <ele>31.24</ele>
        <time>2020-07-08T13:06:08Z</time>
      </trkpt>
      <trkpt lat="47.7917" lon="-3.52169">
        <ele>31.24</ele>
        <time>2020-07-08T13:06:09Z</time>
      </trkpt>
      <trkpt lat="47.7917" lon="-3.52169">
        <ele>31.24</ele>
        <time>2020-07-08T13:06:10Z</time>
      </trkpt>
      <trkpt lat="47.7917" lon="-3.52169">
        <ele>31.24</ele>
        <time>2020-07-08T13:06:11Z</time>
      </trkpt>
      <trkpt lat="47.7917" lon="-3.52169">
        <ele>31.24</ele>
        <time>2020-07-08T13:06:12Z</time>
      </trkpt>
      <trkpt lat="47.79175" lon="-3.52169">
        <ele>31.46</ele>
        <time>2020-07-08T13:06:13Z</time>
      </trkpt>
      <trkpt lat="47.79177" lon="-3.52168">
        <ele>31.65</ele>
        <time>2020-07-08T13:06:14Z</time>
      </trkpt>
      <trkpt lat="47.7918" lon="-3.52168">
        <ele>31.85</ele>
        <time>2020-07-08T13:06:15Z</time>
      </trkpt>
      <trkpt lat="47.79183" lon="-3.52169">
        <ele>32.06</ele>
        <time>2020-07-08T13:06:16Z</time>
      </trkpt>
      <trkpt lat="47.79187" lon="-3.52169">
        <ele>32.27</ele>
        <time>2020-07-08T13:06:17Z</time>
      </trkpt>
      <trkpt lat="47.7919" lon="-3.5217">
        <ele>32.47</ele>
        <time>2020-07-08T13:06:18Z</time>
      </trkpt>
      <trkpt lat="47.79193" lon="-3.5217">
        <ele>32.66</ele>
        <time>2020-07-08T13:06:19Z</time>
      </trkpt>
      <trkpt lat="47.79195" lon="-3.52172">
        <ele>32.79</ele>
        <time>2020-07-08T13:06:20Z</time>
      </trkpt>
      <trkpt lat="47.79197" lon="-3.52173">
        <ele>32.94</ele>
        <time>2020-07-08T13:06:21Z</time>
      </trkpt>
      <trkpt lat="47.792" lon="-3.52174">
        <ele>33.07</ele>
        <time>2020-07-08T13:06:22Z</time>
      </trkpt>
      <trkpt lat="47.79201" lon="-3.52176">
        <ele>33.19</ele>
        <time>2020-07-08T13:06:23Z</time>
      </trkpt>
      <trkpt lat="47.79204" lon="-3.52177">
        <ele>33.34</ele>
        <time>2020-07-08T13:06:24Z</time>
      </trkpt>
      <trkpt lat="47.79206" lon="-3.5218">
        <ele>33.5</ele>
        <time>2020-07-08T13:06:25Z</time>
      </trkpt>
      <trkpt lat="47.79209" lon="-3.52182">
        <ele>33.69</ele>
        <time>2020-07-08T13:06:26Z</time>
      </trkpt>
      <trkpt lat="47.79211" lon="-3.52185">
        <ele>33.87</ele>
        <time>2020-07-08T13:06:27Z</time>
      </trkpt>
      <trkpt lat="47.79213" lon="-3.52189">
        <ele>34.03</ele>
        <time>2020-07-08T13:06:28Z</time>
      </trkpt>
      <trkpt lat="47.79215" lon="-3.52195">
        <ele>34.13</ele>
        <time>2020-07-08T13:06:29Z</time>
      </trkpt>
      <trkpt lat="47.79216" lon="-3.522">
        <ele>34.12</ele>
        <time>2020-07-08T13:06:30Z</time>
      </trkpt>
      <trkpt lat="47.79216" lon="-3.52206">
        <ele>34.07</ele>
        <time>2020-07-08T13:06:31Z</time>
      </trkpt>
      <trkpt lat="47.79217" lon="-3.52211">
        <ele>34.01</ele>
        <time>2020-07-08T13:06:32Z</time>
      </trkpt>
      <trkpt lat="47.79218" lon="-3.52217">
        <ele>33.93</ele>
        <time>2020-07-08T13:06:33Z</time>
      </trkpt>
      <trkpt lat="47.79219" lon="-3.52222">
        <ele>33.82</ele>
        <time>2020-07-08T13:06:34Z</time>
      </trkpt>
      <trkpt lat="47.7922" lon="-3.52228">
        <ele>33.79</ele>
        <time>2020-07-08T13:06:35Z</time>
      </trkpt>
      <trkpt lat="47.7922" lon="-3.52235">
        <ele>33.83</ele>
        <time>2020-07-08T13:06:36Z</time>
      </trkpt>
      <trkpt lat="47.79222" lon="-3.52241">
        <ele>33.91</ele>
        <time>2020-07-08T13:06:37Z</time>
      </trkpt>
      <trkpt lat="47.79223" lon="-3.52248">
        <ele>34.01</ele>
        <time>2020-07-08T13:06:38Z</time>
      </trkpt>
      <trkpt lat="47.79224" lon="-3.52255">
        <ele>34</ele>
        <time>2020-07-08T13:06:39Z</time>
      </trkpt>
      <trkpt lat="47.79226" lon="-3.52262">
        <ele>33.91</ele>
        <time>2020-07-08T13:06:40Z</time>
      </trkpt>
      <trkpt lat="47.79228" lon="-3.52269">
        <ele>33.87</ele>
        <time>2020-07-08T13:06:41Z</time>
      </trkpt>
      <trkpt lat="47.7923" lon="-3.52276">
        <ele>33.9</ele>
        <time>2020-07-08T13:06:42Z</time>
      </trkpt>
      <trkpt lat="47.79233" lon="-3.52284">
        <ele>34.02</ele>
        <time>2020-07-08T13:06:43Z</time>
      </trkpt>
      <trkpt lat="47.79236" lon="-3.5229">
        <ele>34.16</ele>
        <time>2020-07-08T13:06:44Z</time>
      </trkpt>
      <trkpt lat="47.79238" lon="-3.52297">
        <ele>34.28</ele>
        <time>2020-07-08T13:06:45Z</time>
      </trkpt>
      <trkpt lat="47.79242" lon="-3.52304">
        <ele>34.37</ele>
        <time>2020-07-08T13:06:46Z</time>
      </trkpt>
      <trkpt lat="47.79245" lon="-3.52312">
        <ele>34.41</ele>
        <time>2020-07-08T13:06:47Z</time>
      </trkpt>
      <trkpt lat="47.79248" lon="-3.52319">
        <ele>34.4</ele>
        <time>2020-07-08T13:06:48Z</time>
      </trkpt>
      <trkpt lat="47.79251" lon="-3.52326">
        <ele>34.4</ele>
        <time>2020-07-08T13:06:49Z</time>
      </trkpt>
      <trkpt lat="47.79255" lon="-3.52333">
        <ele>34.51</ele>
        <time>2020-07-08T13:06:50Z</time>
      </trkpt>
      <trkpt lat="47.79259" lon="-3.52339">
        <ele>34.71</ele>
        <time>2020-07-08T13:06:51Z</time>
      </trkpt>
      <trkpt lat="47.79263" lon="-3.52345">
        <ele>34.89</ele>
        <time>2020-07-08T13:06:52Z</time>
      </trkpt>
      <trkpt lat="47.79267" lon="-3.52351">
        <ele>35</ele>
        <time>2020-07-08T13:06:53Z</time>
      </trkpt>
      <trkpt lat="47.79271" lon="-3.52356">
        <ele>35.01</ele>
        <time>2020-07-08T13:06:54Z</time>
      </trkpt>
      <trkpt lat="47.79275" lon="-3.52362">
        <ele>34.91</ele>
        <time>2020-07-08T13:06:55Z</time>
      </trkpt>
      <trkpt lat="47.79278" lon="-3.52367">
        <ele>34.85</ele>
        <time>2020-07-08T13:06:56Z</time>
      </trkpt>
      <trkpt lat="47.79282" lon="-3.52372">
        <ele>34.91</ele>
        <time>2020-07-08T13:06:57Z</time>
      </trkpt>
      <trkpt lat="47.79285" lon="-3.52377">
        <ele>34.95</ele>
        <time>2020-07-08T13:06:58Z</time>
      </trkpt>
      <trkpt lat="47.79289" lon="-3.52381">
        <ele>34.93</ele>
        <time>2020-07-08T13:06:59Z</time>
      </trkpt>
      <trkpt lat="47.79292" lon="-3.52385">
        <ele>34.86</ele>
        <time>2020-07-08T13:07:00Z</time>
      </trkpt>
      <trkpt lat="47.79295" lon="-3.52388">
        <ele>34.77</ele>
        <time>2020-07-08T13:07:01Z</time>
      </trkpt>
      <trkpt lat="47.79298" lon="-3.5239">
        <ele>34.69</ele>
        <time>2020-07-08T13:07:02Z</time>
      </trkpt>
      <trkpt lat="47.793" lon="-3.52392">
        <ele>34.63</ele>
        <time>2020-07-08T13:07:03Z</time>
      </trkpt>
      <trkpt lat="47.79302" lon="-3.52393">
        <ele>34.57</ele>
        <time>2020-07-08T13:07:04Z</time>
      </trkpt>
      <trkpt lat="47.79304" lon="-3.52394">
        <ele>34.54</ele>
        <time>2020-07-08T13:07:05Z</time>
      </trkpt>
      <trkpt lat="47.79304" lon="-3.52396">
        <ele>34.46</ele>
        <time>2020-07-08T13:07:06Z</time>
      </trkpt>
      <trkpt lat="47.79304" lon="-3.52398">
        <ele>34.34</ele>
        <time>2020-07-08T13:07:07Z</time>
      </trkpt>
      <trkpt lat="47.79302" lon="-3.52398">
        <ele>34.24</ele>
        <time>2020-07-08T13:07:08Z</time>
      </trkpt>
      <trkpt lat="47.79301" lon="-3.52399">
        <ele>34.14</ele>
        <time>2020-07-08T13:07:09Z</time>
      </trkpt>
      <trkpt lat="47.79299" lon="-3.524">
        <ele>34.02</ele>
        <time>2020-07-08T13:07:10Z</time>
      </trkpt>
      <trkpt lat="47.79297" lon="-3.52402">
        <ele>33.83</ele>
        <time>2020-07-08T13:07:11Z</time>
      </trkpt>
      <trkpt lat="47.79295" lon="-3.52404">
        <ele>33.65</ele>
        <time>2020-07-08T13:07:12Z</time>
      </trkpt>
      <trkpt lat="47.79294" lon="-3.52406">
        <ele>33.43</ele>
        <time>2020-07-08T13:07:13Z</time>
      </trkpt>
      <trkpt lat="47.79293" lon="-3.52409">
        <ele>33.23</ele>
        <time>2020-07-08T13:07:14Z</time>
      </trkpt>
      <trkpt lat="47.79292" lon="-3.5241">
        <ele>33.07</ele>
        <time>2020-07-08T13:07:15Z</time>
      </trkpt>
      <trkpt lat="47.7929" lon="-3.52412">
        <ele>32.88</ele>
        <time>2020-07-08T13:07:16Z</time>
      </trkpt>
      <trkpt lat="47.79289" lon="-3.52413">
        <ele>32.73</ele>
        <time>2020-07-08T13:07:17Z</time>
      </trkpt>
      <trkpt lat="47.79289" lon="-3.52414">
        <ele>32.62</ele>
        <time>2020-07-08T13:07:18Z</time>
      </trkpt>
      <trkpt lat="47.79288" lon="-3.52415">
        <ele>32.55</ele>
        <time>2020-07-08T13:07:19Z</time>
      </trkpt>
      <trkpt lat="47.79287" lon="-3.52415">
        <ele>32.5</ele>
        <time>2020-07-08T13:07:20Z</time>
      </trkpt>
      <trkpt lat="47.79287" lon="-3.52415">
        <ele>32.49</ele>
        <time>2020-07-08T13:07:21Z</time>
      </trkpt>
      <trkpt lat="47.79287" lon="-3.52415">
        <ele>32.48</ele>
        <time>2020-07-08T13:07:22Z</time>
      </trkpt>
      <trkpt lat="47.79287" lon="-3.52415">
        <ele>32.48</ele>
        <time>2020-07-08T13:07:23Z</time>
      </trkpt>
      <trkpt lat="47.79287" lon="-3.52415">
        <ele>32.48</ele>
        <time>2020-07-08T13:07:24Z</time>
      </trkpt>
      <trkpt lat="47.79287" lon="-3.52415">
        <ele>32.48</ele>
        <time>2020-07-08T13:07:25Z</time>
      </trkpt>
      <trkpt lat="47.79287" lon="-3.52415">
        <ele>32.48</ele>
        <time>2020-07-08T13:07:26Z</time>
      </trkpt>
      <trkpt lat="47.79287" lon="-3.52415">
        <ele>32.48</ele>
        <time>2020-07-08T13:07:27Z</time>
      </trkpt>
      <trkpt lat="47.79287" lon="-3.52415">
        <ele>32.48</ele>
        <time>2020-07-08T13:07:28Z</time>
      </trkpt>
      <trkpt lat="47.79287" lon="-3.52415">
        <ele>32.48</ele>
        <time>2020-07-08T13:07:29Z</time>
      </trkpt>
      <trkpt lat="47.79287" lon="-3.52415">
        <ele>32.48</ele>
        <time>2020-07-08T13:07:30Z</time>
      </trkpt>
      <trkpt lat="47.79287" lon="-3.52415">
        <ele>32.48</ele>
        <time>2020-07-08T13:07:31Z</time>
      </trkpt>
      <trkpt lat="47.79287" lon="-3.52415">
        <ele>32.48</ele>
        <time>2020-07-08T13:07:32Z</time>
      </trkpt>
      <trkpt lat="47.79292" lon="-3.52409">
        <ele>32.86</ele>
        <time>2020-07-08T13:07:33Z</time>
      </trkpt>
      <trkpt lat="47.79293" lon="-3.52407">
        <ele>33.12</ele>
        <time>2020-07-08T13:07:34Z</time>
      </trkpt>
      <trkpt lat="47.79295" lon="-3.52405">
        <ele>33.34</ele>
        <time>2020-07-08T13:07:35Z</time>
      </trkpt>
      <trkpt lat="47.79298" lon="-3.52405">
        <ele>33.52</ele>
        <time>2020-07-08T13:07:36Z</time>
      </trkpt>
      <trkpt lat="47.79301" lon="-3.52406">
        <ele>33.6</ele>
        <time>2020-07-08T13:07:37Z</time>
      </trkpt>
      <trkpt lat="47.79304" lon="-3.52408">
        <ele>33.59</ele>
        <time>2020-07-08T13:07:38Z</time>
      </trkpt>
      <trkpt lat="47.79307" lon="-3.5241">
        <ele>33.54</ele>
        <time>2020-07-08T13:07:39Z</time>
      </trkpt>
      <trkpt lat="47.79309" lon="-3.52412">
        <ele>33.39</ele>
        <time>2020-07-08T13:07:40Z</time>
      </trkpt>
      <trkpt lat="47.79312" lon="-3.52414">
        <ele>33.19</ele>
        <time>2020-07-08T13:07:41Z</time>
      </trkpt>
      <trkpt lat="47.79314" lon="-3.52416">
        <ele>32.93</ele>
        <time>2020-07-08T13:07:42Z</time>
      </trkpt>
      <trkpt lat="47.79317" lon="-3.52418">
        <ele>32.62</ele>
        <time>2020-07-08T13:07:43Z</time>
      </trkpt>
      <trkpt lat="47.7932" lon="-3.5242">
        <ele>32.34</ele>
        <time>2020-07-08T13:07:44Z</time>
      </trkpt>
      <trkpt lat="47.79324" lon="-3.52423">
        <ele>32.09</ele>
        <time>2020-07-08T13:07:45Z</time>
      </trkpt>
      <trkpt lat="47.79328" lon="-3.52425">
        <ele>31.87</ele>
        <time>2020-07-08T13:07:46Z</time>
      </trkpt>
      <trkpt lat="47.79332" lon="-3.52427">
        <ele>31.7</ele>
        <time>2020-07-08T13:07:47Z</time>
      </trkpt>
      <trkpt lat="47.79337" lon="-3.52429">
        <ele>31.69</ele>
        <time>2020-07-08T13:07:48Z</time>
      </trkpt>
      <trkpt lat="47.79341" lon="-3.52431">
        <ele>31.71</ele>
        <time>2020-07-08T13:07:49Z</time>
      </trkpt>
      <trkpt lat="47.79345" lon="-3.52433">
        <ele>31.68</ele>
        <time>2020-07-08T13:07:50Z</time>
      </trkpt>
      <trkpt lat="47.79349" lon="-3.52435">
        <ele>31.6</ele>
        <time>2020-07-08T13:07:51Z</time>
      </trkpt>
      <trkpt lat="47.79353" lon="-3.52436">
        <ele>31.48</ele>
        <time>2020-07-08T13:07:52Z</time>
      </trkpt>
      <trkpt lat="47.79358" lon="-3.52437">
        <ele>31.36</ele>
        <time>2020-07-08T13:07:53Z</time>
      </trkpt>
      <trkpt lat="47.79362" lon="-3.52439">
        <ele>31.14</ele>
        <time>2020-07-08T13:07:54Z</time>
      </trkpt>
      <trkpt lat="47.79366" lon="-3.5244">
        <ele>30.77</ele>
        <time>2020-07-08T13:07:55Z</time>
      </trkpt>
      <trkpt lat="47.7937" lon="-3.52441">
        <ele>30.43</ele>
        <time>2020-07-08T13:07:56Z</time>
      </trkpt>
      <trkpt lat="47.79374" lon="-3.52441">
        <ele>30.13</ele>
        <time>2020-07-08T13:07:57Z</time>
      </trkpt>
      <trkpt lat="47.79379" lon="-3.52442">
        <ele>29.85</ele>
        <time>2020-07-08T13:07:58Z</time>
      </trkpt>
      <trkpt lat="47.79384" lon="-3.52442">
        <ele>29.58</ele>
        <time>2020-07-08T13:07:59Z</time>
      </trkpt>
      <trkpt lat="47.79388" lon="-3.52443">
        <ele>29.32</ele>
        <time>2020-07-08T13:08:00Z</time>
      </trkpt>
      <trkpt lat="47.79393" lon="-3.52444">
        <ele>29.05</ele>
        <time>2020-07-08T13:08:01Z</time>
      </trkpt>
      <trkpt lat="47.79397" lon="-3.52444">
        <ele>28.81</ele>
        <time>2020-07-08T13:08:02Z</time>
      </trkpt>
      <trkpt lat="47.79402" lon="-3.52444">
        <ele>28.62</ele>
        <time>2020-07-08T13:08:03Z</time>
      </trkpt>
      <trkpt lat="47.79408" lon="-3.52445">
        <ele>28.4</ele>
        <time>2020-07-08T13:08:04Z</time>
      </trkpt>
      <trkpt lat="47.79414" lon="-3.52444">
        <ele>28.22</ele>
        <time>2020-07-08T13:08:05Z</time>
      </trkpt>
      <trkpt lat="47.79421" lon="-3.52443">
        <ele>27.94</ele>
        <time>2020-07-08T13:08:06Z</time>
      </trkpt>
      <trkpt lat="47.79426" lon="-3.52443">
        <ele>27.61</ele>
        <time>2020-07-08T13:08:07Z</time>
      </trkpt>
      <trkpt lat="47.79432" lon="-3.52442">
        <ele>27.27</ele>
        <time>2020-07-08T13:08:08Z</time>
      </trkpt>
      <trkpt lat="47.79437" lon="-3.52441">
        <ele>26.94</ele>
        <time>2020-07-08T13:08:09Z</time>
      </trkpt>
      <trkpt lat="47.79443" lon="-3.5244">
        <ele>26.61</ele>
        <time>2020-07-08T13:08:10Z</time>
      </trkpt>
      <trkpt lat="47.79448" lon="-3.52439">
        <ele>26.22</ele>
        <time>2020-07-08T13:08:11Z</time>
      </trkpt>
      <trkpt lat="47.79453" lon="-3.52437">
        <ele>25.81</ele>
        <time>2020-07-08T13:08:12Z</time>
      </trkpt>
      <trkpt lat="47.79459" lon="-3.52436">
        <ele>25.41</ele>
        <time>2020-07-08T13:08:13Z</time>
      </trkpt>
      <trkpt lat="47.79464" lon="-3.52434">
        <ele>25.06</ele>
        <time>2020-07-08T13:08:14Z</time>
      </trkpt>
      <trkpt lat="47.79469" lon="-3.52433">
        <ele>24.69</ele>
        <time>2020-07-08T13:08:15Z</time>
      </trkpt>
      <trkpt lat="47.79474" lon="-3.52432">
        <ele>24.36</ele>
        <time>2020-07-08T13:08:16Z</time>
      </trkpt>
      <trkpt lat="47.7948" lon="-3.5243">
        <ele>24.09</ele>
        <time>2020-07-08T13:08:17Z</time>
      </trkpt>
      <trkpt lat="47.79486" lon="-3.52429">
        <ele>23.82</ele>
        <time>2020-07-08T13:08:18Z</time>
      </trkpt>
      <trkpt lat="47.79491" lon="-3.52428">
        <ele>23.56</ele>
        <time>2020-07-08T13:08:19Z</time>
      </trkpt>
      <trkpt lat="47.79496" lon="-3.52426">
        <ele>23.39</ele>
        <time>2020-07-08T13:08:20Z</time>
      </trkpt>
      <trkpt lat="47.79499" lon="-3.52425">
        <ele>23.21</ele>
        <time>2020-07-08T13:08:21Z</time>
      </trkpt>
      <trkpt lat="47.79504" lon="-3.52425">
        <ele>22.8</ele>
        <time>2020-07-08T13:08:22Z</time>
      </trkpt>
      <trkpt lat="47.79508" lon="-3.52427">
        <ele>22.22</ele>
        <time>2020-07-08T13:08:23Z</time>
      </trkpt>
      <trkpt lat="47.79512" lon="-3.52429">
        <ele>21.65</ele>
        <time>2020-07-08T13:08:24Z</time>
      </trkpt>
      <trkpt lat="47.79516" lon="-3.52428">
        <ele>21.2</ele>
        <time>2020-07-08T13:08:25Z</time>
      </trkpt>
      <trkpt lat="47.7952" lon="-3.52426">
        <ele>20.76</ele>
        <time>2020-07-08T13:08:26Z</time>
      </trkpt>
      <trkpt lat="47.79525" lon="-3.52424">
        <ele>20.25</ele>
        <time>2020-07-08T13:08:27Z</time>
      </trkpt>
      <trkpt lat="47.79531" lon="-3.52422">
        <ele>19.71</ele>
        <time>2020-07-08T13:08:28Z</time>
      </trkpt>
      <trkpt lat="47.79537" lon="-3.5242">
        <ele>19.19</ele>
        <time>2020-07-08T13:08:29Z</time>
      </trkpt>
      <trkpt lat="47.79543" lon="-3.52417">
        <ele>18.62</ele>
        <time>2020-07-08T13:08:30Z</time>
      </trkpt>
      <trkpt lat="47.79549" lon="-3.52415">
        <ele>18.22</ele>
        <time>2020-07-08T13:08:31Z</time>
      </trkpt>
      <trkpt lat="47.79555" lon="-3.52413">
        <ele>17.87</ele>
        <time>2020-07-08T13:08:32Z</time>
      </trkpt>
      <trkpt lat="47.79562" lon="-3.52412">
        <ele>17.67</ele>
        <time>2020-07-08T13:08:33Z</time>
      </trkpt>
      <trkpt lat="47.79567" lon="-3.52411">
        <ele>17.47</ele>
        <time>2020-07-08T13:08:34Z</time>
      </trkpt>
      <trkpt lat="47.79571" lon="-3.52411">
        <ele>17.26</ele>
        <time>2020-07-08T13:08:35Z</time>
      </trkpt>
      <trkpt lat="47.79574" lon="-3.52411">
        <ele>17.08</ele>
        <time>2020-07-08T13:08:36Z</time>
      </trkpt>
      <trkpt lat="47.79575" lon="-3.52411">
        <ele>16.9</ele>
        <time>2020-07-08T13:08:37Z</time>
      </trkpt>
      <trkpt lat="47.79577" lon="-3.52413">
        <ele>16.66</ele>
        <time>2020-07-08T13:08:38Z</time>
      </trkpt>
      <trkpt lat="47.79578" lon="-3.52416">
        <ele>16.41</ele>
        <time>2020-07-08T13:08:39Z</time>
      </trkpt>
      <trkpt lat="47.79578" lon="-3.52418">
        <ele>16.23</ele>
        <time>2020-07-08T13:08:40Z</time>
      </trkpt>
      <trkpt lat="47.79578" lon="-3.52422">
        <ele>16.09</ele>
        <time>2020-07-08T13:08:41Z</time>
      </trkpt>
      <trkpt lat="47.79579" lon="-3.52425">
        <ele>15.95</ele>
        <time>2020-07-08T13:08:42Z</time>
      </trkpt>
      <trkpt lat="47.7958" lon="-3.52429">
        <ele>15.8</ele>
        <time>2020-07-08T13:08:43Z</time>
      </trkpt>
      <trkpt lat="47.79581" lon="-3.52433">
        <ele>15.62</ele>
        <time>2020-07-08T13:08:44Z</time>
      </trkpt>
      <trkpt lat="47.79583" lon="-3.52438">
        <ele>15.38</ele>
        <time>2020-07-08T13:08:45Z</time>
      </trkpt>
      <trkpt lat="47.79585" lon="-3.52443">
        <ele>14.93</ele>
        <time>2020-07-08T13:08:46Z</time>
      </trkpt>
      <trkpt lat="47.79588" lon="-3.52449">
        <ele>14.28</ele>
        <time>2020-07-08T13:08:47Z</time>
      </trkpt>
      <trkpt lat="47.79591" lon="-3.52454">
        <ele>13.56</ele>
        <time>2020-07-08T13:08:48Z</time>
      </trkpt>
      <trkpt lat="47.79594" lon="-3.52457">
        <ele>12.9</ele>
        <time>2020-07-08T13:08:49Z</time>
      </trkpt>
      <trkpt lat="47.79597" lon="-3.5246">
        <ele>12.18</ele>
        <time>2020-07-08T13:08:50Z</time>
      </trkpt>
      <trkpt lat="47.79601" lon="-3.52462">
        <ele>11.53</ele>
        <time>2020-07-08T13:08:51Z</time>
      </trkpt>
      <trkpt lat="47.79604" lon="-3.52461">
        <ele>11.05</ele>
        <time>2020-07-08T13:08:52Z</time>
      </trkpt>
      <trkpt lat="47.79607" lon="-3.52459">
        <ele>10.67</ele>
        <time>2020-07-08T13:08:53Z</time>
      </trkpt>
      <trkpt lat="47.7961" lon="-3.52455">
        <ele>10.42</ele>
        <time>2020-07-08T13:08:54Z</time>
      </trkpt>
      <trkpt lat="47.79614" lon="-3.5245">
        <ele>10.02</ele>
        <time>2020-07-08T13:08:55Z</time>
      </trkpt>
      <trkpt lat="47.79618" lon="-3.52443">
        <ele>9.52</ele>
        <time>2020-07-08T13:08:56Z</time>
      </trkpt>
      <trkpt lat="47.79623" lon="-3.52435">
        <ele>9.06</ele>
        <time>2020-07-08T13:08:57Z</time>
      </trkpt>
      <trkpt lat="47.79629" lon="-3.52427">
        <ele>8.84</ele>
        <time>2020-07-08T13:08:58Z</time>
      </trkpt>
      <trkpt lat="47.79634" lon="-3.52419">
        <ele>9.12</ele>
        <time>2020-07-08T13:08:59Z</time>
      </trkpt>
      <trkpt lat="47.79639" lon="-3.52409">
        <ele>9.3</ele>
        <time>2020-07-08T13:09:00Z</time>
      </trkpt>
      <trkpt lat="47.79643" lon="-3.52402">
        <ele>9.01</ele>
        <time>2020-07-08T13:09:01Z</time>
      </trkpt>
      <trkpt lat="47.79644" lon="-3.52392">
        <ele>9.09</ele>
        <time>2020-07-08T13:09:02Z</time>
      </trkpt>
      <trkpt lat="47.79645" lon="-3.52383">
        <ele>8.69</ele>
        <time>2020-07-08T13:09:03Z</time>
      </trkpt>
      <trkpt lat="47.79645" lon="-3.52374">
        <ele>7.88</ele>
        <time>2020-07-08T13:09:04Z</time>
      </trkpt>
      <trkpt lat="47.79643" lon="-3.52364">
        <ele>7.1</ele>
        <time>2020-07-08T13:09:05Z</time>
      </trkpt>
      <trkpt lat="47.79641" lon="-3.52355">
        <ele>6.94</ele>
        <time>2020-07-08T13:09:06Z</time>
      </trkpt>
      <trkpt lat="47.79639" lon="-3.5235">
        <ele>7.29</ele>
        <time>2020-07-08T13:09:07Z</time>
      </trkpt>
      <trkpt lat="47.79637" lon="-3.52346">
        <ele>7.98</ele>
        <time>2020-07-08T13:09:08Z</time>
      </trkpt>
      <trkpt lat="47.79635" lon="-3.52343">
        <ele>8.64</ele>
        <time>2020-07-08T13:09:09Z</time>
      </trkpt>
      <trkpt lat="47.79633" lon="-3.52342">
        <ele>9.31</ele>
        <time>2020-07-08T13:09:10Z</time>
      </trkpt>
      <trkpt lat="47.79632" lon="-3.5234">
        <ele>9.87</ele>
        <time>2020-07-08T13:09:12Z</time>
      </trkpt>
      <trkpt lat="47.79631" lon="-3.5234">
        <ele>10.08</ele>
        <time>2020-07-08T13:09:13Z</time>
      </trkpt>
      <trkpt lat="47.79631" lon="-3.5234">
        <ele>10.13</ele>
        <time>2020-07-08T13:09:14Z</time>
      </trkpt>
      <trkpt lat="47.79631" lon="-3.5234">
        <ele>10.15</ele>
        <time>2020-07-08T13:09:15Z</time>
      </trkpt>
      <trkpt lat="47.79631" lon="-3.5234">
        <ele>10.16</ele>
        <time>2020-07-08T13:09:16Z</time>
      </trkpt>
      <trkpt lat="47.79631" lon="-3.5234">
        <ele>10.16</ele>
        <time>2020-07-08T13:09:17Z</time>
      </trkpt>
      <trkpt lat="47.79631" lon="-3.5234">
        <ele>10.16</ele>
        <time>2020-07-08T13:09:18Z</time>
      </trkpt>
      <trkpt lat="47.79631" lon="-3.5234">
        <ele>10.16</ele>
        <time>2020-07-08T13:09:19Z</time>
      </trkpt>
      <trkpt lat="47.79631" lon="-3.5234">
        <ele>10.16</ele>
        <time>2020-07-08T13:09:20Z</time>
      </trkpt>
      <trkpt lat="47.79631" lon="-3.5234">
        <ele>10.16</ele>
        <time>2020-07-08T13:09:21Z</time>
      </trkpt>
      <trkpt lat="47.79631" lon="-3.5234">
        <ele>10.16</ele>
        <time>2020-07-08T13:09:22Z</time>
      </trkpt>
      <trkpt lat="47.79631" lon="-3.5234">
        <ele>10.16</ele>
        <time>2020-07-08T13:09:23Z</time>
      </trkpt>
      <trkpt lat="47.79631" lon="-3.5234">
        <ele>10.16</ele>
        <time>2020-07-08T13:09:24Z</time>
      </trkpt>
      <trkpt lat="47.79631" lon="-3.5234">
        <ele>10.16</ele>
        <time>2020-07-08T13:09:25Z</time>
      </trkpt>
      <trkpt lat="47.79631" lon="-3.5234">
        <ele>10.16</ele>
        <time>2020-07-08T13:09:26Z</time>
      </trkpt>
      <trkpt lat="47.79631" lon="-3.5234">
        <ele>10.16</ele>
        <time>2020-07-08T13:09:27Z</time>
      </trkpt>
      <trkpt lat="47.79631" lon="-3.5234">
        <ele>10.16</ele>
        <time>2020-07-08T13:09:28Z</time>
      </trkpt>
      <trkpt lat="47.79631" lon="-3.5234">
        <ele>10.16</ele>
        <time>2020-07-08T13:09:29Z</time>
      </trkpt>
      <trkpt lat="47.79631" lon="-3.5234">
        <ele>10.16</ele>
        <time>2020-07-08T13:09:30Z</time>
      </trkpt>
      <trkpt lat="47.79631" lon="-3.5234">
        <ele>10.16</ele>
        <time>2020-07-08T13:09:31Z</time>
      </trkpt>
      <trkpt lat="47.79631" lon="-3.5234">
        <ele>10.16</ele>
        <time>2020-07-08T13:09:32Z</time>
      </trkpt>
      <trkpt lat="47.79631" lon="-3.5234">
        <ele>10.16</ele>
        <time>2020-07-08T13:09:33Z</time>
      </trkpt>
      <trkpt lat="47.79631" lon="-3.5234">
        <ele>10.16</ele>
        <time>2020-07-08T13:09:34Z</time>
      </trkpt>
      <trkpt lat="47.79631" lon="-3.5234">
        <ele>10.16</ele>
        <time>2020-07-08T13:09:35Z</time>
      </trkpt>
      <trkpt lat="47.79631" lon="-3.5234">
        <ele>10.16</ele>
        <time>2020-07-08T13:09:36Z</time>
      </trkpt>
      <trkpt lat="47.79631" lon="-3.5234">
        <ele>10.16</ele>
        <time>2020-07-08T13:09:37Z</time>
      </trkpt>
      <trkpt lat="47.79631" lon="-3.5234">
        <ele>10.16</ele>
        <time>2020-07-08T13:09:38Z</time>
      </trkpt>
      <trkpt lat="47.79631" lon="-3.5234">
        <ele>10.16</ele>
        <time>2020-07-08T13:09:39Z</time>
      </trkpt>
      <trkpt lat="47.79631" lon="-3.5234">
        <ele>10.16</ele>
        <time>2020-07-08T13:09:40Z</time>
      </trkpt>
      <trkpt lat="47.79631" lon="-3.5234">
        <ele>10.16</ele>
        <time>2020-07-08T13:09:41Z</time>
      </trkpt>
      <trkpt lat="47.79631" lon="-3.5234">
        <ele>10.16</ele>
        <time>2020-07-08T13:09:42Z</time>
      </trkpt>
      <trkpt lat="47.79631" lon="-3.5234">
        <ele>10.16</ele>
        <time>2020-07-08T13:09:43Z</time>
      </trkpt>
      <trkpt lat="47.79631" lon="-3.5234">
        <ele>10.16</ele>
        <time>2020-07-08T13:09:44Z</time>
      </trkpt>
      <trkpt lat="47.79631" lon="-3.5234">
        <ele>10.16</ele>
        <time>2020-07-08T13:09:45Z</time>
      </trkpt>
      <trkpt lat="47.79631" lon="-3.5234">
        <ele>10.16</ele>
        <time>2020-07-08T13:09:46Z</time>
      </trkpt>
      <trkpt lat="47.79631" lon="-3.5234">
        <ele>10.16</ele>
        <time>2020-07-08T13:09:47Z</time>
      </trkpt>
      <trkpt lat="47.79631" lon="-3.5234">
        <ele>10.16</ele>
        <time>2020-07-08T13:09:48Z</time>
      </trkpt>
      <trkpt lat="47.79631" lon="-3.5234">
        <ele>10.16</ele>
        <time>2020-07-08T13:09:49Z</time>
      </trkpt>
      <trkpt lat="47.79631" lon="-3.5234">
        <ele>10.16</ele>
        <time>2020-07-08T13:09:50Z</time>
      </trkpt>
      <trkpt lat="47.79631" lon="-3.5234">
        <ele>10.16</ele>
        <time>2020-07-08T13:09:51Z</time>
      </trkpt>
      <trkpt lat="47.79631" lon="-3.5234">
        <ele>10.16</ele>
        <time>2020-07-08T13:09:52Z</time>
      </trkpt>
      <trkpt lat="47.79631" lon="-3.5234">
        <ele>10.16</ele>
        <time>2020-07-08T13:09:53Z</time>
      </trkpt>
      <trkpt lat="47.79631" lon="-3.5234">
        <ele>10.16</ele>
        <time>2020-07-08T13:09:54Z</time>
      </trkpt>
      <trkpt lat="47.79631" lon="-3.5234">
        <ele>10.16</ele>
        <time>2020-07-08T13:09:55Z</time>
      </trkpt>
      <trkpt lat="47.79631" lon="-3.5234">
        <ele>10.16</ele>
        <time>2020-07-08T13:09:56Z</time>
      </trkpt>
      <trkpt lat="47.79631" lon="-3.5234">
        <ele>10.16</ele>
        <time>2020-07-08T13:09:57Z</time>
      </trkpt>
      <trkpt lat="47.79631" lon="-3.5234">
        <ele>10.16</ele>
        <time>2020-07-08T13:09:58Z</time>
      </trkpt>
      <trkpt lat="47.79631" lon="-3.5234">
        <ele>10.16</ele>
        <time>2020-07-08T13:09:59Z</time>
      </trkpt>
      <trkpt lat="47.79631" lon="-3.5234">
        <ele>10.16</ele>
        <time>2020-07-08T13:10:00Z</time>
      </trkpt>
      <trkpt lat="47.79631" lon="-3.5234">
        <ele>10.16</ele>
        <time>2020-07-08T13:10:01Z</time>
      </trkpt>
      <trkpt lat="47.79631" lon="-3.5234">
        <ele>10.16</ele>
        <time>2020-07-08T13:10:02Z</time>
      </trkpt>
      <trkpt lat="47.79631" lon="-3.5234">
        <ele>10.16</ele>
        <time>2020-07-08T13:10:03Z</time>
      </trkpt>
      <trkpt lat="47.79631" lon="-3.5234">
        <ele>10.16</ele>
        <time>2020-07-08T13:10:04Z</time>
      </trkpt>
      <trkpt lat="47.79631" lon="-3.5234">
        <ele>10.16</ele>
        <time>2020-07-08T13:10:05Z</time>
      </trkpt>
      <trkpt lat="47.79631" lon="-3.5234">
        <ele>10.16</ele>
        <time>2020-07-08T13:10:06Z</time>
      </trkpt>
      <trkpt lat="47.79631" lon="-3.5234">
        <ele>10.16</ele>
        <time>2020-07-08T13:10:07Z</time>
      </trkpt>
      <trkpt lat="47.79631" lon="-3.5234">
        <ele>10.16</ele>
        <time>2020-07-08T13:10:08Z</time>
      </trkpt>
      <trkpt lat="47.79626" lon="-3.52329">
        <ele>11.86</ele>
        <time>2020-07-08T13:10:09Z</time>
      </trkpt>
      <trkpt lat="47.79625" lon="-3.52327">
        <ele>12.5</ele>
        <time>2020-07-08T13:10:10Z</time>
      </trkpt>
      <trkpt lat="47.79624" lon="-3.52325">
        <ele>12.95</ele>
        <time>2020-07-08T13:10:11Z</time>
      </trkpt>
      <trkpt lat="47.79624" lon="-3.52323">
        <ele>13.27</ele>
        <time>2020-07-08T13:10:12Z</time>
      </trkpt>
      <trkpt lat="47.79625" lon="-3.52321">
        <ele>13.29</ele>
        <time>2020-07-08T13:10:13Z</time>
      </trkpt>
      <trkpt lat="47.79626" lon="-3.52319">
        <ele>13</ele>
        <time>2020-07-08T13:10:14Z</time>
      </trkpt>
      <trkpt lat="47.79627" lon="-3.52317">
        <ele>12.77</ele>
        <time>2020-07-08T13:10:15Z</time>
      </trkpt>
      <trkpt lat="47.79628" lon="-3.52316">
        <ele>12.54</ele>
        <time>2020-07-08T13:10:16Z</time>
      </trkpt>
      <trkpt lat="47.79628" lon="-3.52315">
        <ele>12.38</ele>
        <time>2020-07-08T13:10:17Z</time>
      </trkpt>
      <trkpt lat="47.79628" lon="-3.52315">
        <ele>12.33</ele>
        <time>2020-07-08T13:10:18Z</time>
      </trkpt>
      <trkpt lat="47.79628" lon="-3.52315">
        <ele>12.31</ele>
        <time>2020-07-08T13:10:19Z</time>
      </trkpt>
      <trkpt lat="47.79628" lon="-3.52315">
        <ele>12.31</ele>
        <time>2020-07-08T13:10:20Z</time>
      </trkpt>
      <trkpt lat="47.79628" lon="-3.52315">
        <ele>12.31</ele>
        <time>2020-07-08T13:10:21Z</time>
      </trkpt>
      <trkpt lat="47.79628" lon="-3.52315">
        <ele>12.31</ele>
        <time>2020-07-08T13:10:22Z</time>
      </trkpt>
      <trkpt lat="47.79628" lon="-3.52315">
        <ele>12.31</ele>
        <time>2020-07-08T13:10:23Z</time>
      </trkpt>
      <trkpt lat="47.79628" lon="-3.52315">
        <ele>12.31</ele>
        <time>2020-07-08T13:10:24Z</time>
      </trkpt>
      <trkpt lat="47.79628" lon="-3.52315">
        <ele>12.31</ele>
        <time>2020-07-08T13:10:25Z</time>
      </trkpt>
      <trkpt lat="47.79628" lon="-3.52315">
        <ele>12.31</ele>
        <time>2020-07-08T13:10:26Z</time>
      </trkpt>
      <trkpt lat="47.79628" lon="-3.52315">
        <ele>12.31</ele>
        <time>2020-07-08T13:10:27Z</time>
      </trkpt>
      <trkpt lat="47.79628" lon="-3.52315">
        <ele>12.31</ele>
        <time>2020-07-08T13:10:28Z</time>
      </trkpt>
      <trkpt lat="47.79628" lon="-3.52315">
        <ele>12.31</ele>
        <time>2020-07-08T13:10:29Z</time>
      </trkpt>
      <trkpt lat="47.79628" lon="-3.52315">
        <ele>12.31</ele>
        <time>2020-07-08T13:10:30Z</time>
      </trkpt>
      <trkpt lat="47.79628" lon="-3.52315">
        <ele>12.31</ele>
        <time>2020-07-08T13:10:31Z</time>
      </trkpt>
      <trkpt lat="47.79628" lon="-3.52315">
        <ele>12.31</ele>
        <time>2020-07-08T13:10:32Z</time>
      </trkpt>
      <trkpt lat="47.7962" lon="-3.52311">
        <ele>14.65</ele>
        <time>2020-07-08T13:10:33Z</time>
      </trkpt>
      <trkpt lat="47.79619" lon="-3.52311">
        <ele>15.48</ele>
        <time>2020-07-08T13:10:34Z</time>
      </trkpt>
      <trkpt lat="47.79619" lon="-3.52311">
        <ele>15.78</ele>
        <time>2020-07-08T13:10:35Z</time>
      </trkpt>
      <trkpt lat="47.79619" lon="-3.5231">
        <ele>15.92</ele>
        <time>2020-07-08T13:10:36Z</time>
      </trkpt>
      <trkpt lat="47.79619" lon="-3.5231">
        <ele>15.96</ele>
        <time>2020-07-08T13:10:37Z</time>
      </trkpt>
      <trkpt lat="47.79619" lon="-3.5231">
        <ele>15.98</ele>
        <time>2020-07-08T13:10:38Z</time>
      </trkpt>
      <trkpt lat="47.79619" lon="-3.5231">
        <ele>15.98</ele>
        <time>2020-07-08T13:10:39Z</time>
      </trkpt>
      <trkpt lat="47.79619" lon="-3.5231">
        <ele>15.98</ele>
        <time>2020-07-08T13:10:40Z</time>
      </trkpt>
      <trkpt lat="47.79619" lon="-3.5231">
        <ele>15.98</ele>
        <time>2020-07-08T13:10:41Z</time>
      </trkpt>
      <trkpt lat="47.79619" lon="-3.5231">
        <ele>15.98</ele>
        <time>2020-07-08T13:10:42Z</time>
      </trkpt>
      <trkpt lat="47.79619" lon="-3.5231">
        <ele>15.98</ele>
        <time>2020-07-08T13:10:43Z</time>
      </trkpt>
      <trkpt lat="47.79619" lon="-3.5231">
        <ele>15.98</ele>
        <time>2020-07-08T13:10:44Z</time>
      </trkpt>
      <trkpt lat="47.79619" lon="-3.5231">
        <ele>15.98</ele>
        <time>2020-07-08T13:10:45Z</time>
      </trkpt>
      <trkpt lat="47.79619" lon="-3.5231">
        <ele>15.98</ele>
        <time>2020-07-08T13:10:46Z</time>
      </trkpt>
      <trkpt lat="47.79619" lon="-3.5231">
        <ele>15.98</ele>
        <time>2020-07-08T13:10:47Z</time>
      </trkpt>
      <trkpt lat="47.79619" lon="-3.5231">
        <ele>15.98</ele>
        <time>2020-07-08T13:10:48Z</time>
      </trkpt>
      <trkpt lat="47.79619" lon="-3.5231">
        <ele>15.98</ele>
        <time>2020-07-08T13:10:49Z</time>
      </trkpt>
      <trkpt lat="47.79619" lon="-3.5231">
        <ele>15.98</ele>
        <time>2020-07-08T13:10:50Z</time>
      </trkpt>
      <trkpt lat="47.79619" lon="-3.5231">
        <ele>15.98</ele>
        <time>2020-07-08T13:10:51Z</time>
      </trkpt>
      <trkpt lat="47.79619" lon="-3.5231">
        <ele>15.98</ele>
        <time>2020-07-08T13:10:52Z</time>
      </trkpt>
      <trkpt lat="47.79619" lon="-3.5231">
        <ele>15.98</ele>
        <time>2020-07-08T13:10:53Z</time>
      </trkpt>
      <trkpt lat="47.79619" lon="-3.5231">
        <ele>15.98</ele>
        <time>2020-07-08T13:10:54Z</time>
      </trkpt>
      <trkpt lat="47.79619" lon="-3.5231">
        <ele>15.98</ele>
        <time>2020-07-08T13:10:55Z</time>
      </trkpt>
      <trkpt lat="47.79609" lon="-3.52314">
        <ele>18.01</ele>
        <time>2020-07-08T13:10:56Z</time>
      </trkpt>
      <trkpt lat="47.79608" lon="-3.52315">
        <ele>18.69</ele>
        <time>2020-07-08T13:10:57Z</time>
      </trkpt>
      <trkpt lat="47.79608" lon="-3.52316">
        <ele>18.98</ele>
        <time>2020-07-08T13:10:58Z</time>
      </trkpt>
      <trkpt lat="47.79607" lon="-3.52317">
        <ele>19.17</ele>
        <time>2020-07-08T13:10:59Z</time>
      </trkpt>
      <trkpt lat="47.79607" lon="-3.52317">
        <ele>19.22</ele>
        <time>2020-07-08T13:11:00Z</time>
      </trkpt>
      <trkpt lat="47.79607" lon="-3.52317">
        <ele>19.24</ele>
        <time>2020-07-08T13:11:01Z</time>
      </trkpt>
      <trkpt lat="47.79607" lon="-3.52317">
        <ele>19.25</ele>
        <time>2020-07-08T13:11:02Z</time>
      </trkpt>
      <trkpt lat="47.79607" lon="-3.52317">
        <ele>19.25</ele>
        <time>2020-07-08T13:11:03Z</time>
      </trkpt>
      <trkpt lat="47.79607" lon="-3.52317">
        <ele>19.25</ele>
        <time>2020-07-08T13:11:04Z</time>
      </trkpt>
      <trkpt lat="47.79607" lon="-3.52317">
        <ele>19.25</ele>
        <time>2020-07-08T13:11:05Z</time>
      </trkpt>
      <trkpt lat="47.79607" lon="-3.52317">
        <ele>19.25</ele>
        <time>2020-07-08T13:11:06Z</time>
      </trkpt>
      <trkpt lat="47.79607" lon="-3.52317">
        <ele>19.25</ele>
        <time>2020-07-08T13:11:07Z</time>
      </trkpt>
      <trkpt lat="47.79607" lon="-3.52317">
        <ele>19.25</ele>
        <time>2020-07-08T13:11:08Z</time>
      </trkpt>
      <trkpt lat="47.79607" lon="-3.52317">
        <ele>19.25</ele>
        <time>2020-07-08T13:11:09Z</time>
      </trkpt>
      <trkpt lat="47.79607" lon="-3.52317">
        <ele>19.25</ele>
        <time>2020-07-08T13:11:10Z</time>
      </trkpt>
      <trkpt lat="47.79607" lon="-3.52317">
        <ele>19.25</ele>
        <time>2020-07-08T13:11:11Z</time>
      </trkpt>
      <trkpt lat="47.79607" lon="-3.52317">
        <ele>19.25</ele>
        <time>2020-07-08T13:11:12Z</time>
      </trkpt>
      <trkpt lat="47.79607" lon="-3.52317">
        <ele>19.25</ele>
        <time>2020-07-08T13:11:13Z</time>
      </trkpt>
      <trkpt lat="47.79607" lon="-3.52317">
        <ele>19.25</ele>
        <time>2020-07-08T13:11:14Z</time>
      </trkpt>
      <trkpt lat="47.79607" lon="-3.52317">
        <ele>19.25</ele>
        <time>2020-07-08T13:11:15Z</time>
      </trkpt>
      <trkpt lat="47.79602" lon="-3.52323">
        <ele>19.85</ele>
        <time>2020-07-08T13:11:16Z</time>
      </trkpt>
      <trkpt lat="47.796" lon="-3.52327">
        <ele>20.14</ele>
        <time>2020-07-08T13:11:17Z</time>
      </trkpt>
      <trkpt lat="47.79599" lon="-3.52331">
        <ele>20.25</ele>
        <time>2020-07-08T13:11:18Z</time>
      </trkpt>
      <trkpt lat="47.79598" lon="-3.52334">
        <ele>20.24</ele>
        <time>2020-07-08T13:11:19Z</time>
      </trkpt>
      <trkpt lat="47.79597" lon="-3.52337">
        <ele>20.28</ele>
        <time>2020-07-08T13:11:20Z</time>
      </trkpt>
      <trkpt lat="47.79597" lon="-3.5234">
        <ele>20.4</ele>
        <time>2020-07-08T13:11:21Z</time>
      </trkpt>
      <trkpt lat="47.79596" lon="-3.52342">
        <ele>20.53</ele>
        <time>2020-07-08T13:11:22Z</time>
      </trkpt>
      <trkpt lat="47.79596" lon="-3.52345">
        <ele>20.46</ele>
        <time>2020-07-08T13:11:23Z</time>
      </trkpt>
      <trkpt lat="47.79596" lon="-3.52347">
        <ele>20.38</ele>
        <time>2020-07-08T13:11:24Z</time>
      </trkpt>
      <trkpt lat="47.79597" lon="-3.52349">
        <ele>20.11</ele>
        <time>2020-07-08T13:11:25Z</time>
      </trkpt>
      <trkpt lat="47.79599" lon="-3.52353">
        <ele>19.61</ele>
        <time>2020-07-08T13:11:26Z</time>
      </trkpt>
      <trkpt lat="47.79601" lon="-3.52356">
        <ele>19.05</ele>
        <time>2020-07-08T13:11:27Z</time>
      </trkpt>
      <trkpt lat="47.79602" lon="-3.52359">
        <ele>18.63</ele>
        <time>2020-07-08T13:11:28Z</time>
      </trkpt>
      <trkpt lat="47.79601" lon="-3.52362">
        <ele>18.57</ele>
        <time>2020-07-08T13:11:29Z</time>
      </trkpt>
      <trkpt lat="47.796" lon="-3.52364">
        <ele>18.59</ele>
        <time>2020-07-08T13:11:30Z</time>
      </trkpt>
      <trkpt lat="47.79598" lon="-3.52364">
        <ele>18.91</ele>
        <time>2020-07-08T13:11:31Z</time>
      </trkpt>
      <trkpt lat="47.79596" lon="-3.52366">
        <ele>19.16</ele>
        <time>2020-07-08T13:11:32Z</time>
      </trkpt>
      <trkpt lat="47.79594" lon="-3.52367">
        <ele>19.44</ele>
        <time>2020-07-08T13:11:33Z</time>
      </trkpt>
      <trkpt lat="47.79591" lon="-3.52368">
        <ele>19.89</ele>
        <time>2020-07-08T13:11:34Z</time>
      </trkpt>
      <trkpt lat="47.79589" lon="-3.52369">
        <ele>20.22</ele>
        <time>2020-07-08T13:11:35Z</time>
      </trkpt>
      <trkpt lat="47.79588" lon="-3.5237">
        <ele>20.38</ele>
        <time>2020-07-08T13:11:36Z</time>
      </trkpt>
      <trkpt lat="47.79588" lon="-3.52373">
        <ele>20.15</ele>
        <time>2020-07-08T13:11:37Z</time>
      </trkpt>
      <trkpt lat="47.79588" lon="-3.52375">
        <ele>19.78</ele>
        <time>2020-07-08T13:11:38Z</time>
      </trkpt>
      <trkpt lat="47.79589" lon="-3.52376">
        <ele>19.41</ele>
        <time>2020-07-08T13:11:39Z</time>
      </trkpt>
      <trkpt lat="47.79591" lon="-3.52377">
        <ele>18.92</ele>
        <time>2020-07-08T13:11:40Z</time>
      </trkpt>
      <trkpt lat="47.79594" lon="-3.52377">
        <ele>18.52</ele>
        <time>2020-07-08T13:11:41Z</time>
      </trkpt>
      <trkpt lat="47.79597" lon="-3.52376">
        <ele>18.12</ele>
        <time>2020-07-08T13:11:42Z</time>
      </trkpt>
      <trkpt lat="47.79601" lon="-3.52374">
        <ele>17.64</ele>
        <time>2020-07-08T13:11:43Z</time>
      </trkpt>
      <trkpt lat="47.79605" lon="-3.52373">
        <ele>17.03</ele>
        <time>2020-07-08T13:11:44Z</time>
      </trkpt>
      <trkpt lat="47.7961" lon="-3.52372">
        <ele>16.18</ele>
        <time>2020-07-08T13:11:45Z</time>
      </trkpt>
      <trkpt lat="47.79615" lon="-3.5237">
        <ele>15.04</ele>
        <time>2020-07-08T13:11:46Z</time>
      </trkpt>
      <trkpt lat="47.7962" lon="-3.52369">
        <ele>13.81</ele>
        <time>2020-07-08T13:11:47Z</time>
      </trkpt>
      <trkpt lat="47.79625" lon="-3.52367">
        <ele>12.48</ele>
        <time>2020-07-08T13:11:48Z</time>
      </trkpt>
      <trkpt lat="47.79629" lon="-3.52365">
        <ele>11.16</ele>
        <time>2020-07-08T13:11:49Z</time>
      </trkpt>
      <trkpt lat="47.79633" lon="-3.52364">
        <ele>9.73</ele>
        <time>2020-07-08T13:11:50Z</time>
      </trkpt>
      <trkpt lat="47.79638" lon="-3.52363">
        <ele>8.15</ele>
        <time>2020-07-08T13:11:51Z</time>
      </trkpt>
      <trkpt lat="47.79643" lon="-3.52362">
        <ele>6.99</ele>
        <time>2020-07-08T13:11:52Z</time>
      </trkpt>
      <trkpt lat="47.79648" lon="-3.5236">
        <ele>6.09</ele>
        <time>2020-07-08T13:11:53Z</time>
      </trkpt>
      <trkpt lat="47.79652" lon="-3.52359">
        <ele>5.33</ele>
        <time>2020-07-08T13:11:54Z</time>
      </trkpt>
      <trkpt lat="47.79657" lon="-3.52358">
        <ele>4.56</ele>
        <time>2020-07-08T13:11:55Z</time>
      </trkpt>
      <trkpt lat="47.79661" lon="-3.52356">
        <ele>3.74</ele>
        <time>2020-07-08T13:11:56Z</time>
      </trkpt>
      <trkpt lat="47.79666" lon="-3.52355">
        <ele>2.86</ele>
        <time>2020-07-08T13:11:57Z</time>
      </trkpt>
      <trkpt lat="47.7967" lon="-3.52353">
        <ele>2.53</ele>
        <time>2020-07-08T13:11:58Z</time>
      </trkpt>
      <trkpt lat="47.79675" lon="-3.52351">
        <ele>2.57</ele>
        <time>2020-07-08T13:11:59Z</time>
      </trkpt>
      <trkpt lat="47.79679" lon="-3.52349">
        <ele>2.72</ele>
        <time>2020-07-08T13:12:00Z</time>
      </trkpt>
      <trkpt lat="47.79684" lon="-3.52347">
        <ele>2.96</ele>
        <time>2020-07-08T13:12:01Z</time>
      </trkpt>
      <trkpt lat="47.79689" lon="-3.52346">
        <ele>3.24</ele>
        <time>2020-07-08T13:12:02Z</time>
      </trkpt>
      <trkpt lat="47.79693" lon="-3.52344">
        <ele>3.54</ele>
        <time>2020-07-08T13:12:03Z</time>
      </trkpt>
      <trkpt lat="47.79699" lon="-3.52342">
        <ele>3.67</ele>
        <time>2020-07-08T13:12:04Z</time>
      </trkpt>
      <trkpt lat="47.79703" lon="-3.5234">
        <ele>3.71</ele>
        <time>2020-07-08T13:12:05Z</time>
      </trkpt>
      <trkpt lat="47.79708" lon="-3.52339">
        <ele>3.76</ele>
        <time>2020-07-08T13:12:06Z</time>
      </trkpt>
      <trkpt lat="47.79712" lon="-3.52337">
        <ele>3.82</ele>
        <time>2020-07-08T13:12:07Z</time>
      </trkpt>
      <trkpt lat="47.79717" lon="-3.52336">
        <ele>3.9</ele>
        <time>2020-07-08T13:12:08Z</time>
      </trkpt>
      <trkpt lat="47.79722" lon="-3.52334">
        <ele>3.99</ele>
        <time>2020-07-08T13:12:09Z</time>
      </trkpt>
      <trkpt lat="47.79727" lon="-3.52332">
        <ele>4.12</ele>
        <time>2020-07-08T13:12:10Z</time>
      </trkpt>
      <trkpt lat="47.79732" lon="-3.5233">
        <ele>4.15</ele>
        <time>2020-07-08T13:12:11Z</time>
      </trkpt>
      <trkpt lat="47.79736" lon="-3.52328">
        <ele>4.1</ele>
        <time>2020-07-08T13:12:12Z</time>
      </trkpt>
      <trkpt lat="47.79741" lon="-3.52326">
        <ele>3.99</ele>
        <time>2020-07-08T13:12:13Z</time>
      </trkpt>
      <trkpt lat="47.79746" lon="-3.52324">
        <ele>3.83</ele>
        <time>2020-07-08T13:12:14Z</time>
      </trkpt>
      <trkpt lat="47.79751" lon="-3.52322">
        <ele>3.62</ele>
        <time>2020-07-08T13:12:15Z</time>
      </trkpt>
      <trkpt lat="47.79756" lon="-3.5232">
        <ele>3.19</ele>
        <time>2020-07-08T13:12:16Z</time>
      </trkpt>
      <trkpt lat="47.79761" lon="-3.52318">
        <ele>2.72</ele>
        <time>2020-07-08T13:12:17Z</time>
      </trkpt>
      <trkpt lat="47.79766" lon="-3.52316">
        <ele>2.24</ele>
        <time>2020-07-08T13:12:18Z</time>
      </trkpt>
      <trkpt lat="47.79771" lon="-3.52314">
        <ele>1.79</ele>
        <time>2020-07-08T13:12:19Z</time>
      </trkpt>
      <trkpt lat="47.79776" lon="-3.52312">
        <ele>1.4</ele>
        <time>2020-07-08T13:12:20Z</time>
      </trkpt>
      <trkpt lat="47.79781" lon="-3.52311">
        <ele>1.5</ele>
        <time>2020-07-08T13:12:21Z</time>
      </trkpt>
      <trkpt lat="47.79786" lon="-3.5231">
        <ele>1.97</ele>
        <time>2020-07-08T13:12:22Z</time>
      </trkpt>
      <trkpt lat="47.79791" lon="-3.52308">
        <ele>2.54</ele>
        <time>2020-07-08T13:12:23Z</time>
      </trkpt>
      <trkpt lat="47.79797" lon="-3.52307">
        <ele>3.24</ele>
        <time>2020-07-08T13:12:24Z</time>
      </trkpt>
      <trkpt lat="47.79802" lon="-3.52305">
        <ele>4.01</ele>
        <time>2020-07-08T13:12:25Z</time>
      </trkpt>
      <trkpt lat="47.79807" lon="-3.52304">
        <ele>4.95</ele>
        <time>2020-07-08T13:12:26Z</time>
      </trkpt>
      <trkpt lat="47.79813" lon="-3.52303">
        <ele>6.14</ele>
        <time>2020-07-08T13:12:27Z</time>
      </trkpt>
      <trkpt lat="47.79818" lon="-3.52302">
        <ele>7.36</ele>
        <time>2020-07-08T13:12:28Z</time>
      </trkpt>
      <trkpt lat="47.79823" lon="-3.52301">
        <ele>8.56</ele>
        <time>2020-07-08T13:12:29Z</time>
      </trkpt>
      <trkpt lat="47.79828" lon="-3.52299">
        <ele>9.66</ele>
        <time>2020-07-08T13:12:30Z</time>
      </trkpt>
      <trkpt lat="47.79832" lon="-3.52298">
        <ele>10.62</ele>
        <time>2020-07-08T13:12:31Z</time>
      </trkpt>
      <trkpt lat="47.79837" lon="-3.52297">
        <ele>11.21</ele>
        <time>2020-07-08T13:12:32Z</time>
      </trkpt>
      <trkpt lat="47.79841" lon="-3.52298">
        <ele>11.85</ele>
        <time>2020-07-08T13:12:33Z</time>
      </trkpt>
      <trkpt lat="47.79843" lon="-3.52302">
        <ele>12.69</ele>
        <time>2020-07-08T13:12:34Z</time>
      </trkpt>
      <trkpt lat="47.79843" lon="-3.52307">
        <ele>13.49</ele>
        <time>2020-07-08T13:12:35Z</time>
      </trkpt>
      <trkpt lat="47.79841" lon="-3.52312">
        <ele>13.9</ele>
        <time>2020-07-08T13:12:36Z</time>
      </trkpt>
      <trkpt lat="47.79837" lon="-3.52317">
        <ele>14.07</ele>
        <time>2020-07-08T13:12:37Z</time>
      </trkpt>
      <trkpt lat="47.79834" lon="-3.52321">
        <ele>14.15</ele>
        <time>2020-07-08T13:12:38Z</time>
      </trkpt>
      <trkpt lat="47.7983" lon="-3.52326">
        <ele>13.88</ele>
        <time>2020-07-08T13:12:39Z</time>
      </trkpt>
      <trkpt lat="47.79827" lon="-3.52331">
        <ele>13.53</ele>
        <time>2020-07-08T13:12:40Z</time>
      </trkpt>
      <trkpt lat="47.79824" lon="-3.52337">
        <ele>13.2</ele>
        <time>2020-07-08T13:12:41Z</time>
      </trkpt>
      <trkpt lat="47.7982" lon="-3.52342">
        <ele>12.82</ele>
        <time>2020-07-08T13:12:42Z</time>
      </trkpt>
      <trkpt lat="47.79817" lon="-3.52348">
        <ele>12.53</ele>
        <time>2020-07-08T13:12:43Z</time>
      </trkpt>
      <trkpt lat="47.79815" lon="-3.52357">
        <ele>12.48</ele>
        <time>2020-07-08T13:12:44Z</time>
      </trkpt>
      <trkpt lat="47.79813" lon="-3.52364">
        <ele>12.44</ele>
        <time>2020-07-08T13:12:45Z</time>
      </trkpt>
      <trkpt lat="47.7981" lon="-3.52371">
        <ele>12.25</ele>
        <time>2020-07-08T13:12:46Z</time>
      </trkpt>
      <trkpt lat="47.79808" lon="-3.52376">
        <ele>12.05</ele>
        <time>2020-07-08T13:12:47Z</time>
      </trkpt>
      <trkpt lat="47.79806" lon="-3.52381">
        <ele>11.84</ele>
        <time>2020-07-08T13:12:48Z</time>
      </trkpt>
      <trkpt lat="47.79804" lon="-3.52386">
        <ele>11.58</ele>
        <time>2020-07-08T13:12:49Z</time>
      </trkpt>
      <trkpt lat="47.79804" lon="-3.52389">
        <ele>11.35</ele>
        <time>2020-07-08T13:12:50Z</time>
      </trkpt>
      <trkpt lat="47.79802" lon="-3.5239">
        <ele>10.82</ele>
        <time>2020-07-08T13:12:51Z</time>
      </trkpt>
      <trkpt lat="47.79801" lon="-3.52392">
        <ele>10.4</ele>
        <time>2020-07-08T13:12:52Z</time>
      </trkpt>
      <trkpt lat="47.798" lon="-3.52393">
        <ele>10.04</ele>
        <time>2020-07-08T13:12:53Z</time>
      </trkpt>
      <trkpt lat="47.798" lon="-3.52395">
        <ele>9.86</ele>
        <time>2020-07-08T13:12:54Z</time>
      </trkpt>
      <trkpt lat="47.798" lon="-3.52399">
        <ele>9.82</ele>
        <time>2020-07-08T13:12:55Z</time>
      </trkpt>
      <trkpt lat="47.798" lon="-3.52404">
        <ele>9.75</ele>
        <time>2020-07-08T13:12:56Z</time>
      </trkpt>
      <trkpt lat="47.79798" lon="-3.52409">
        <ele>9.5</ele>
        <time>2020-07-08T13:12:57Z</time>
      </trkpt>
      <trkpt lat="47.79797" lon="-3.52415">
        <ele>9.08</ele>
        <time>2020-07-08T13:12:58Z</time>
      </trkpt>
      <trkpt lat="47.79795" lon="-3.5242">
        <ele>8.6</ele>
        <time>2020-07-08T13:12:59Z</time>
      </trkpt>
      <trkpt lat="47.79793" lon="-3.52426">
        <ele>8.09</ele>
        <time>2020-07-08T13:13:00Z</time>
      </trkpt>
      <trkpt lat="47.79791" lon="-3.52432">
        <ele>7.63</ele>
        <time>2020-07-08T13:13:01Z</time>
      </trkpt>
      <trkpt lat="47.79789" lon="-3.52438">
        <ele>7.06</ele>
        <time>2020-07-08T13:13:02Z</time>
      </trkpt>
      <trkpt lat="47.79787" lon="-3.52444">
        <ele>6.45</ele>
        <time>2020-07-08T13:13:03Z</time>
      </trkpt>
      <trkpt lat="47.79784" lon="-3.5245">
        <ele>6.04</ele>
        <time>2020-07-08T13:13:04Z</time>
      </trkpt>
      <trkpt lat="47.79783" lon="-3.52457">
        <ele>5.87</ele>
        <time>2020-07-08T13:13:05Z</time>
      </trkpt>
      <trkpt lat="47.79781" lon="-3.52464">
        <ele>5.78</ele>
        <time>2020-07-08T13:13:06Z</time>
      </trkpt>
      <trkpt lat="47.7978" lon="-3.52472">
        <ele>5.76</ele>
        <time>2020-07-08T13:13:07Z</time>
      </trkpt>
      <trkpt lat="47.79778" lon="-3.52481">
        <ele>5.85</ele>
        <time>2020-07-08T13:13:08Z</time>
      </trkpt>
      <trkpt lat="47.79776" lon="-3.52489">
        <ele>6.17</ele>
        <time>2020-07-08T13:13:09Z</time>
      </trkpt>
      <trkpt lat="47.79774" lon="-3.52496">
        <ele>6.44</ele>
        <time>2020-07-08T13:13:10Z</time>
      </trkpt>
      <trkpt lat="47.79772" lon="-3.52503">
        <ele>6.46</ele>
        <time>2020-07-08T13:13:11Z</time>
      </trkpt>
      <trkpt lat="47.7977" lon="-3.5251">
        <ele>6.35</ele>
        <time>2020-07-08T13:13:12Z</time>
      </trkpt>
      <trkpt lat="47.79769" lon="-3.52516">
        <ele>6.21</ele>
        <time>2020-07-08T13:13:13Z</time>
      </trkpt>
      <trkpt lat="47.79767" lon="-3.52522">
        <ele>5.94</ele>
        <time>2020-07-08T13:13:14Z</time>
      </trkpt>
      <trkpt lat="47.79765" lon="-3.52529">
        <ele>5.61</ele>
        <time>2020-07-08T13:13:15Z</time>
      </trkpt>
      <trkpt lat="47.79762" lon="-3.52536">
        <ele>5.57</ele>
        <time>2020-07-08T13:13:16Z</time>
      </trkpt>
      <trkpt lat="47.7976" lon="-3.52543">
        <ele>5.63</ele>
        <time>2020-07-08T13:13:17Z</time>
      </trkpt>
      <trkpt lat="47.79758" lon="-3.5255">
        <ele>5.61</ele>
        <time>2020-07-08T13:13:18Z</time>
      </trkpt>
      <trkpt lat="47.79757" lon="-3.52557">
        <ele>5.54</ele>
        <time>2020-07-08T13:13:19Z</time>
      </trkpt>
      <trkpt lat="47.79755" lon="-3.52564">
        <ele>5.46</ele>
        <time>2020-07-08T13:13:20Z</time>
      </trkpt>
      <trkpt lat="47.79754" lon="-3.5257">
        <ele>5.45</ele>
        <time>2020-07-08T13:13:21Z</time>
      </trkpt>
      <trkpt lat="47.79753" lon="-3.52576">
        <ele>5.45</ele>
        <time>2020-07-08T13:13:22Z</time>
      </trkpt>
      <trkpt lat="47.79753" lon="-3.52583">
        <ele>5.54</ele>
        <time>2020-07-08T13:13:23Z</time>
      </trkpt>
      <trkpt lat="47.79753" lon="-3.52589">
        <ele>6.02</ele>
        <time>2020-07-08T13:13:24Z</time>
      </trkpt>
      <trkpt lat="47.79754" lon="-3.52595">
        <ele>6.66</ele>
        <time>2020-07-08T13:13:25Z</time>
      </trkpt>
      <trkpt lat="47.79755" lon="-3.52601">
        <ele>7.68</ele>
        <time>2020-07-08T13:13:26Z</time>
      </trkpt>
      <trkpt lat="47.79756" lon="-3.52607">
        <ele>8.79</ele>
        <time>2020-07-08T13:13:27Z</time>
      </trkpt>
      <trkpt lat="47.79757" lon="-3.52612">
        <ele>9.62</ele>
        <time>2020-07-08T13:13:28Z</time>
      </trkpt>
      <trkpt lat="47.79758" lon="-3.52617">
        <ele>10.44</ele>
        <time>2020-07-08T13:13:29Z</time>
      </trkpt>
      <trkpt lat="47.79757" lon="-3.52622">
        <ele>10.57</ele>
        <time>2020-07-08T13:13:30Z</time>
      </trkpt>
      <trkpt lat="47.79756" lon="-3.52626">
        <ele>10.47</ele>
        <time>2020-07-08T13:13:31Z</time>
      </trkpt>
      <trkpt lat="47.79754" lon="-3.52631">
        <ele>9.93</ele>
        <time>2020-07-08T13:13:32Z</time>
      </trkpt>
      <trkpt lat="47.79752" lon="-3.52634">
        <ele>9.31</ele>
        <time>2020-07-08T13:13:33Z</time>
      </trkpt>
      <trkpt lat="47.79751" lon="-3.52638">
        <ele>8.54</ele>
        <time>2020-07-08T13:13:34Z</time>
      </trkpt>
      <trkpt lat="47.79749" lon="-3.52642">
        <ele>8.28</ele>
        <time>2020-07-08T13:13:35Z</time>
      </trkpt>
      <trkpt lat="47.79747" lon="-3.52646">
        <ele>8.25</ele>
        <time>2020-07-08T13:13:36Z</time>
      </trkpt>
      <trkpt lat="47.79747" lon="-3.52649">
        <ele>8.51</ele>
        <time>2020-07-08T13:13:37Z</time>
      </trkpt>
      <trkpt lat="47.79746" lon="-3.52652">
        <ele>8.67</ele>
        <time>2020-07-08T13:13:38Z</time>
      </trkpt>
      <trkpt lat="47.79745" lon="-3.52655">
        <ele>8.82</ele>
        <time>2020-07-08T13:13:39Z</time>
      </trkpt>
      <trkpt lat="47.79744" lon="-3.52657">
        <ele>8.86</ele>
        <time>2020-07-08T13:13:40Z</time>
      </trkpt>
      <trkpt lat="47.79744" lon="-3.52659">
        <ele>8.88</ele>
        <time>2020-07-08T13:13:41Z</time>
      </trkpt>
      <trkpt lat="47.79743" lon="-3.52661">
        <ele>8.87</ele>
        <time>2020-07-08T13:13:42Z</time>
      </trkpt>
      <trkpt lat="47.79742" lon="-3.52665">
        <ele>9.04</ele>
        <time>2020-07-08T13:13:43Z</time>
      </trkpt>
      <trkpt lat="47.79742" lon="-3.52667">
        <ele>9.16</ele>
        <time>2020-07-08T13:13:44Z</time>
      </trkpt>
      <trkpt lat="47.79741" lon="-3.52669">
        <ele>9.33</ele>
        <time>2020-07-08T13:13:45Z</time>
      </trkpt>
      <trkpt lat="47.79741" lon="-3.52672">
        <ele>9.73</ele>
        <time>2020-07-08T13:13:46Z</time>
      </trkpt>
      <trkpt lat="47.79741" lon="-3.52675">
        <ele>10.11</ele>
        <time>2020-07-08T13:13:47Z</time>
      </trkpt>
      <trkpt lat="47.7974" lon="-3.52677">
        <ele>10.39</ele>
        <time>2020-07-08T13:13:48Z</time>
      </trkpt>
      <trkpt lat="47.79739" lon="-3.5268">
        <ele>10.4</ele>
        <time>2020-07-08T13:13:49Z</time>
      </trkpt>
      <trkpt lat="47.79738" lon="-3.52682">
        <ele>10.38</ele>
        <time>2020-07-08T13:13:50Z</time>
      </trkpt>
      <trkpt lat="47.79736" lon="-3.52685">
        <ele>10.33</ele>
        <time>2020-07-08T13:13:51Z</time>
      </trkpt>
      <trkpt lat="47.79735" lon="-3.52688">
        <ele>10.05</ele>
        <time>2020-07-08T13:13:52Z</time>
      </trkpt>
      <trkpt lat="47.79734" lon="-3.52691">
        <ele>10.02</ele>
        <time>2020-07-08T13:13:53Z</time>
      </trkpt>
      <trkpt lat="47.79733" lon="-3.52694">
        <ele>10.12</ele>
        <time>2020-07-08T13:13:54Z</time>
      </trkpt>
      <trkpt lat="47.79733" lon="-3.52697">
        <ele>10.43</ele>
        <time>2020-07-08T13:13:55Z</time>
      </trkpt>
      <trkpt lat="47.79732" lon="-3.52701">
        <ele>10.72</ele>
        <time>2020-07-08T13:13:56Z</time>
      </trkpt>
      <trkpt lat="47.79731" lon="-3.52704">
        <ele>11</ele>
        <time>2020-07-08T13:13:57Z</time>
      </trkpt>
      <trkpt lat="47.79729" lon="-3.52707">
        <ele>10.88</ele>
        <time>2020-07-08T13:13:58Z</time>
      </trkpt>
      <trkpt lat="47.79728" lon="-3.5271">
        <ele>10.83</ele>
        <time>2020-07-08T13:13:59Z</time>
      </trkpt>
      <trkpt lat="47.79727" lon="-3.52713">
        <ele>10.8</ele>
        <time>2020-07-08T13:14:00Z</time>
      </trkpt>
      <trkpt lat="47.79726" lon="-3.52717">
        <ele>10.96</ele>
        <time>2020-07-08T13:14:01Z</time>
      </trkpt>
      <trkpt lat="47.79725" lon="-3.5272">
        <ele>11.12</ele>
        <time>2020-07-08T13:14:02Z</time>
      </trkpt>
      <trkpt lat="47.79725" lon="-3.52723">
        <ele>11.55</ele>
        <time>2020-07-08T13:14:03Z</time>
      </trkpt>
      <trkpt lat="47.79725" lon="-3.52726">
        <ele>11.96</ele>
        <time>2020-07-08T13:14:04Z</time>
      </trkpt>
      <trkpt lat="47.79724" lon="-3.52728">
        <ele>12.09</ele>
        <time>2020-07-08T13:14:05Z</time>
      </trkpt>
      <trkpt lat="47.79723" lon="-3.52731">
        <ele>12.17</ele>
        <time>2020-07-08T13:14:06Z</time>
      </trkpt>
      <trkpt lat="47.79722" lon="-3.52735">
        <ele>12.35</ele>
        <time>2020-07-08T13:14:07Z</time>
      </trkpt>
      <trkpt lat="47.79722" lon="-3.52739">
        <ele>12.67</ele>
        <time>2020-07-08T13:14:08Z</time>
      </trkpt>
      <trkpt lat="47.79721" lon="-3.52742">
        <ele>12.98</ele>
        <time>2020-07-08T13:14:09Z</time>
      </trkpt>
      <trkpt lat="47.7972" lon="-3.52747">
        <ele>13.14</ele>
        <time>2020-07-08T13:14:10Z</time>
      </trkpt>
      <trkpt lat="47.79719" lon="-3.52751">
        <ele>13.19</ele>
        <time>2020-07-08T13:14:11Z</time>
      </trkpt>
      <trkpt lat="47.79717" lon="-3.52754">
        <ele>13.31</ele>
        <time>2020-07-08T13:14:12Z</time>
      </trkpt>
      <trkpt lat="47.79716" lon="-3.52757">
        <ele>13.36</ele>
        <time>2020-07-08T13:14:13Z</time>
      </trkpt>
      <trkpt lat="47.79714" lon="-3.52759">
        <ele>13.27</ele>
        <time>2020-07-08T13:14:14Z</time>
      </trkpt>
      <trkpt lat="47.79712" lon="-3.52762">
        <ele>13.19</ele>
        <time>2020-07-08T13:14:15Z</time>
      </trkpt>
      <trkpt lat="47.79711" lon="-3.52764">
        <ele>13.16</ele>
        <time>2020-07-08T13:14:16Z</time>
      </trkpt>
      <trkpt lat="47.79709" lon="-3.52766">
        <ele>13.15</ele>
        <time>2020-07-08T13:14:17Z</time>
      </trkpt>
      <trkpt lat="47.79706" lon="-3.52768">
        <ele>12.97</ele>
        <time>2020-07-08T13:14:18Z</time>
      </trkpt>
      <trkpt lat="47.79703" lon="-3.5277">
        <ele>12.63</ele>
        <time>2020-07-08T13:14:19Z</time>
      </trkpt>
      <trkpt lat="47.797" lon="-3.5277">
        <ele>11.92</ele>
        <time>2020-07-08T13:14:20Z</time>
      </trkpt>
      <trkpt lat="47.79698" lon="-3.52771">
        <ele>11.1</ele>
        <time>2020-07-08T13:14:21Z</time>
      </trkpt>
      <trkpt lat="47.79695" lon="-3.52771">
        <ele>10.17</ele>
        <time>2020-07-08T13:14:22Z</time>
      </trkpt>
      <trkpt lat="47.7969" lon="-3.52771">
        <ele>9.33</ele>
        <time>2020-07-08T13:14:23Z</time>
      </trkpt>
      <trkpt lat="47.79687" lon="-3.52771">
        <ele>8.43</ele>
        <time>2020-07-08T13:14:24Z</time>
      </trkpt>
      <trkpt lat="47.79684" lon="-3.5277">
        <ele>7.62</ele>
        <time>2020-07-08T13:14:25Z</time>
      </trkpt>
      <trkpt lat="47.79681" lon="-3.52772">
        <ele>7.3</ele>
        <time>2020-07-08T13:14:26Z</time>
      </trkpt>
      <trkpt lat="47.79678" lon="-3.52774">
        <ele>7.13</ele>
        <time>2020-07-08T13:14:27Z</time>
      </trkpt>
      <trkpt lat="47.79675" lon="-3.52775">
        <ele>6.74</ele>
        <time>2020-07-08T13:14:28Z</time>
      </trkpt>
      <trkpt lat="47.79672" lon="-3.52775">
        <ele>6.05</ele>
        <time>2020-07-08T13:14:29Z</time>
      </trkpt>
      <trkpt lat="47.79668" lon="-3.52775">
        <ele>5.19</ele>
        <time>2020-07-08T13:14:30Z</time>
      </trkpt>
      <trkpt lat="47.79663" lon="-3.52777">
        <ele>4.44</ele>
        <time>2020-07-08T13:14:31Z</time>
      </trkpt>
      <trkpt lat="47.79658" lon="-3.52779">
        <ele>3.94</ele>
        <time>2020-07-08T13:14:32Z</time>
      </trkpt>
      <trkpt lat="47.79652" lon="-3.52781">
        <ele>3.56</ele>
        <time>2020-07-08T13:14:33Z</time>
      </trkpt>
      <trkpt lat="47.79648" lon="-3.52784">
        <ele>3.3</ele>
        <time>2020-07-08T13:14:34Z</time>
      </trkpt>
      <trkpt lat="47.79644" lon="-3.52786">
        <ele>3.1</ele>
        <time>2020-07-08T13:14:35Z</time>
      </trkpt>
      <trkpt lat="47.7964" lon="-3.52788">
        <ele>2.94</ele>
        <time>2020-07-08T13:14:36Z</time>
      </trkpt>
      <trkpt lat="47.79636" lon="-3.5279">
        <ele>3.03</ele>
        <time>2020-07-08T13:14:37Z</time>
      </trkpt>
      <trkpt lat="47.79631" lon="-3.52793">
        <ele>3.58</ele>
        <time>2020-07-08T13:14:38Z</time>
      </trkpt>
      <trkpt lat="47.79627" lon="-3.52796">
        <ele>4.07</ele>
        <time>2020-07-08T13:14:39Z</time>
      </trkpt>
      <trkpt lat="47.79625" lon="-3.528">
        <ele>4.91</ele>
        <time>2020-07-08T13:14:40Z</time>
      </trkpt>
      <trkpt lat="47.79621" lon="-3.52803">
        <ele>5.55</ele>
        <time>2020-07-08T13:14:41Z</time>
      </trkpt>
      <trkpt lat="47.79618" lon="-3.52806">
        <ele>6.1</ele>
        <time>2020-07-08T13:14:42Z</time>
      </trkpt>
      <trkpt lat="47.79616" lon="-3.52809">
        <ele>6.68</ele>
        <time>2020-07-08T13:14:43Z</time>
      </trkpt>
      <trkpt lat="47.79613" lon="-3.52812">
        <ele>7.3</ele>
        <time>2020-07-08T13:14:44Z</time>
      </trkpt>
      <trkpt lat="47.79611" lon="-3.52815">
        <ele>7.77</ele>
        <time>2020-07-08T13:14:45Z</time>
      </trkpt>
      <trkpt lat="47.79609" lon="-3.52817">
        <ele>7.9</ele>
        <time>2020-07-08T13:14:46Z</time>
      </trkpt>
      <trkpt lat="47.79607" lon="-3.52818">
        <ele>7.9</ele>
        <time>2020-07-08T13:14:47Z</time>
      </trkpt>
      <trkpt lat="47.79604" lon="-3.52818">
        <ele>7.62</ele>
        <time>2020-07-08T13:14:48Z</time>
      </trkpt>
      <trkpt lat="47.79602" lon="-3.52819">
        <ele>7.27</ele>
        <time>2020-07-08T13:14:49Z</time>
      </trkpt>
      <trkpt lat="47.79599" lon="-3.52818">
        <ele>6.73</ele>
        <time>2020-07-08T13:14:50Z</time>
      </trkpt>
      <trkpt lat="47.79597" lon="-3.52817">
        <ele>6.24</ele>
        <time>2020-07-08T13:14:51Z</time>
      </trkpt>
      <trkpt lat="47.79596" lon="-3.52819">
        <ele>6.16</ele>
        <time>2020-07-08T13:14:52Z</time>
      </trkpt>
      <trkpt lat="47.79594" lon="-3.52819">
        <ele>5.95</ele>
        <time>2020-07-08T13:14:53Z</time>
      </trkpt>
      <trkpt lat="47.79592" lon="-3.5282">
        <ele>5.72</ele>
        <time>2020-07-08T13:14:54Z</time>
      </trkpt>
      <trkpt lat="47.7959" lon="-3.52821">
        <ele>5.6</ele>
        <time>2020-07-08T13:14:55Z</time>
      </trkpt>
      <trkpt lat="47.79588" lon="-3.52825">
        <ele>5.82</ele>
        <time>2020-07-08T13:14:56Z</time>
      </trkpt>
      <trkpt lat="47.79586" lon="-3.52827">
        <ele>6.02</ele>
        <time>2020-07-08T13:14:57Z</time>
      </trkpt>
      <trkpt lat="47.79584" lon="-3.5283">
        <ele>6.27</ele>
        <time>2020-07-08T13:14:58Z</time>
      </trkpt>
      <trkpt lat="47.79582" lon="-3.52832">
        <ele>6.4</ele>
        <time>2020-07-08T13:14:59Z</time>
      </trkpt>
      <trkpt lat="47.79581" lon="-3.52835">
        <ele>6.61</ele>
        <time>2020-07-08T13:15:00Z</time>
      </trkpt>
      <trkpt lat="47.79579" lon="-3.52837">
        <ele>6.74</ele>
        <time>2020-07-08T13:15:01Z</time>
      </trkpt>
      <trkpt lat="47.79578" lon="-3.52839">
        <ele>6.87</ele>
        <time>2020-07-08T13:15:02Z</time>
      </trkpt>
      <trkpt lat="47.79578" lon="-3.5284">
        <ele>7.13</ele>
        <time>2020-07-08T13:15:03Z</time>
      </trkpt>
      <trkpt lat="47.79578" lon="-3.52842">
        <ele>7.52</ele>
        <time>2020-07-08T13:15:04Z</time>
      </trkpt>
      <trkpt lat="47.79578" lon="-3.52843">
        <ele>7.94</ele>
        <time>2020-07-08T13:15:05Z</time>
      </trkpt>
      <trkpt lat="47.79578" lon="-3.52845">
        <ele>8.29</ele>
        <time>2020-07-08T13:15:06Z</time>
      </trkpt>
      <trkpt lat="47.79578" lon="-3.52847">
        <ele>8.66</ele>
        <time>2020-07-08T13:15:07Z</time>
      </trkpt>
      <trkpt lat="47.79578" lon="-3.52848">
        <ele>8.96</ele>
        <time>2020-07-08T13:15:08Z</time>
      </trkpt>
      <trkpt lat="47.79577" lon="-3.5285">
        <ele>9.13</ele>
        <time>2020-07-08T13:15:09Z</time>
      </trkpt>
      <trkpt lat="47.79576" lon="-3.52851">
        <ele>9.23</ele>
        <time>2020-07-08T13:15:10Z</time>
      </trkpt>
      <trkpt lat="47.79575" lon="-3.52852">
        <ele>9.26</ele>
        <time>2020-07-08T13:15:11Z</time>
      </trkpt>
      <trkpt lat="47.79574" lon="-3.52854">
        <ele>9.49</ele>
        <time>2020-07-08T13:15:12Z</time>
      </trkpt>
      <trkpt lat="47.79574" lon="-3.52856">
        <ele>9.79</ele>
        <time>2020-07-08T13:15:13Z</time>
      </trkpt>
      <trkpt lat="47.79575" lon="-3.52859">
        <ele>10.45</ele>
        <time>2020-07-08T13:15:14Z</time>
      </trkpt>
      <trkpt lat="47.79575" lon="-3.52861">
        <ele>10.93</ele>
        <time>2020-07-08T13:15:15Z</time>
      </trkpt>
      <trkpt lat="47.79575" lon="-3.52863">
        <ele>11.56</ele>
        <time>2020-07-08T13:15:16Z</time>
      </trkpt>
      <trkpt lat="47.79576" lon="-3.52867">
        <ele>12.38</ele>
        <time>2020-07-08T13:15:17Z</time>
      </trkpt>
      <trkpt lat="47.79576" lon="-3.5287">
        <ele>13.14</ele>
        <time>2020-07-08T13:15:18Z</time>
      </trkpt>
      <trkpt lat="47.79577" lon="-3.52872">
        <ele>13.77</ele>
        <time>2020-07-08T13:15:19Z</time>
      </trkpt>
      <trkpt lat="47.79576" lon="-3.52875">
        <ele>14.3</ele>
        <time>2020-07-08T13:15:20Z</time>
      </trkpt>
      <trkpt lat="47.79576" lon="-3.52879">
        <ele>14.85</ele>
        <time>2020-07-08T13:15:21Z</time>
      </trkpt>
      <trkpt lat="47.79577" lon="-3.52882">
        <ele>15.53</ele>
        <time>2020-07-08T13:15:22Z</time>
      </trkpt>
      <trkpt lat="47.79577" lon="-3.52884">
        <ele>16.17</ele>
        <time>2020-07-08T13:15:23Z</time>
      </trkpt>
      <trkpt lat="47.79577" lon="-3.52887">
        <ele>16.8</ele>
        <time>2020-07-08T13:15:24Z</time>
      </trkpt>
      <trkpt lat="47.79577" lon="-3.5289">
        <ele>17.3</ele>
        <time>2020-07-08T13:15:25Z</time>
      </trkpt>
      <trkpt lat="47.79577" lon="-3.52892">
        <ele>17.59</ele>
        <time>2020-07-08T13:15:26Z</time>
      </trkpt>
      <trkpt lat="47.79576" lon="-3.52893">
        <ele>17.59</ele>
        <time>2020-07-08T13:15:27Z</time>
      </trkpt>
      <trkpt lat="47.79574" lon="-3.52893">
        <ele>17.38</ele>
        <time>2020-07-08T13:15:28Z</time>
      </trkpt>
      <trkpt lat="47.79573" lon="-3.52892">
        <ele>17</ele>
        <time>2020-07-08T13:15:29Z</time>
      </trkpt>
      <trkpt lat="47.79571" lon="-3.52891">
        <ele>16.48</ele>
        <time>2020-07-08T13:15:30Z</time>
      </trkpt>
      <trkpt lat="47.79571" lon="-3.5289">
        <ele>16.16</ele>
        <time>2020-07-08T13:15:31Z</time>
      </trkpt>
      <trkpt lat="47.79569" lon="-3.52888">
        <ele>15.54</ele>
        <time>2020-07-08T13:15:32Z</time>
      </trkpt>
      <trkpt lat="47.79568" lon="-3.52886">
        <ele>14.78</ele>
        <time>2020-07-08T13:15:33Z</time>
      </trkpt>
      <trkpt lat="47.79567" lon="-3.52884">
        <ele>14.06</ele>
        <time>2020-07-08T13:15:34Z</time>
      </trkpt>
      <trkpt lat="47.79565" lon="-3.52882">
        <ele>13.33</ele>
        <time>2020-07-08T13:15:35Z</time>
      </trkpt>
      <trkpt lat="47.79563" lon="-3.52881">
        <ele>12.39</ele>
        <time>2020-07-08T13:15:36Z</time>
      </trkpt>
      <trkpt lat="47.7956" lon="-3.52879">
        <ele>11.23</ele>
        <time>2020-07-08T13:15:37Z</time>
      </trkpt>
      <trkpt lat="47.79558" lon="-3.52878">
        <ele>10.24</ele>
        <time>2020-07-08T13:15:38Z</time>
      </trkpt>
      <trkpt lat="47.79555" lon="-3.52877">
        <ele>9.5</ele>
        <time>2020-07-08T13:15:39Z</time>
      </trkpt>
      <trkpt lat="47.7955" lon="-3.52877">
        <ele>9.65</ele>
        <time>2020-07-08T13:15:40Z</time>
      </trkpt>
      <trkpt lat="47.79548" lon="-3.52878">
        <ele>10.02</ele>
        <time>2020-07-08T13:15:41Z</time>
      </trkpt>
      <trkpt lat="47.79546" lon="-3.52878">
        <ele>10.41</ele>
        <time>2020-07-08T13:15:42Z</time>
      </trkpt>
      <trkpt lat="47.79543" lon="-3.52878">
        <ele>10.78</ele>
        <time>2020-07-08T13:15:43Z</time>
      </trkpt>
      <trkpt lat="47.79541" lon="-3.52879">
        <ele>11.15</ele>
        <time>2020-07-08T13:15:44Z</time>
      </trkpt>
      <trkpt lat="47.79539" lon="-3.52878">
        <ele>11.38</ele>
        <time>2020-07-08T13:15:45Z</time>
      </trkpt>
      <trkpt lat="47.79536" lon="-3.52877">
        <ele>11.5</ele>
        <time>2020-07-08T13:15:46Z</time>
      </trkpt>
      <trkpt lat="47.79535" lon="-3.52877">
        <ele>11.57</ele>
        <time>2020-07-08T13:15:47Z</time>
      </trkpt>
      <trkpt lat="47.79533" lon="-3.52876">
        <ele>11.61</ele>
        <time>2020-07-08T13:15:48Z</time>
      </trkpt>
      <trkpt lat="47.79531" lon="-3.52876">
        <ele>11.75</ele>
        <time>2020-07-08T13:15:49Z</time>
      </trkpt>
      <trkpt lat="47.79529" lon="-3.52875">
        <ele>11.84</ele>
        <time>2020-07-08T13:15:50Z</time>
      </trkpt>
      <trkpt lat="47.79527" lon="-3.52873">
        <ele>11.7</ele>
        <time>2020-07-08T13:15:51Z</time>
      </trkpt>
      <trkpt lat="47.79525" lon="-3.52872">
        <ele>11.55</ele>
        <time>2020-07-08T13:15:52Z</time>
      </trkpt>
      <trkpt lat="47.79524" lon="-3.5287">
        <ele>11.52</ele>
        <time>2020-07-08T13:15:53Z</time>
      </trkpt>
      <trkpt lat="47.79522" lon="-3.5287">
        <ele>11.63</ele>
        <time>2020-07-08T13:15:54Z</time>
      </trkpt>
      <trkpt lat="47.79521" lon="-3.52869">
        <ele>11.69</ele>
        <time>2020-07-08T13:15:55Z</time>
      </trkpt>
      <trkpt lat="47.7952" lon="-3.52867">
        <ele>11.55</ele>
        <time>2020-07-08T13:15:56Z</time>
      </trkpt>
      <trkpt lat="47.79518" lon="-3.52865">
        <ele>11.38</ele>
        <time>2020-07-08T13:15:57Z</time>
      </trkpt>
      <trkpt lat="47.79517" lon="-3.52863">
        <ele>11.2</ele>
        <time>2020-07-08T13:15:58Z</time>
      </trkpt>
      <trkpt lat="47.79516" lon="-3.5286">
        <ele>10.95</ele>
        <time>2020-07-08T13:15:59Z</time>
      </trkpt>
      <trkpt lat="47.79515" lon="-3.52859">
        <ele>10.8</ele>
        <time>2020-07-08T13:16:00Z</time>
      </trkpt>
      <trkpt lat="47.79514" lon="-3.52857">
        <ele>10.59</ele>
        <time>2020-07-08T13:16:01Z</time>
      </trkpt>
      <trkpt lat="47.79512" lon="-3.52855">
        <ele>10.31</ele>
        <time>2020-07-08T13:16:02Z</time>
      </trkpt>
      <trkpt lat="47.7951" lon="-3.52853">
        <ele>10.24</ele>
        <time>2020-07-08T13:16:03Z</time>
      </trkpt>
      <trkpt lat="47.79507" lon="-3.52852">
        <ele>10.32</ele>
        <time>2020-07-08T13:16:04Z</time>
      </trkpt>
      <trkpt lat="47.79505" lon="-3.52851">
        <ele>10.57</ele>
        <time>2020-07-08T13:16:05Z</time>
      </trkpt>
      <trkpt lat="47.79502" lon="-3.5285">
        <ele>10.92</ele>
        <time>2020-07-08T13:16:06Z</time>
      </trkpt>
      <trkpt lat="47.79498" lon="-3.52849">
        <ele>11.22</ele>
        <time>2020-07-08T13:16:07Z</time>
      </trkpt>
      <trkpt lat="47.79495" lon="-3.52847">
        <ele>11.43</ele>
        <time>2020-07-08T13:16:08Z</time>
      </trkpt>
      <trkpt lat="47.79491" lon="-3.52845">
        <ele>11.45</ele>
        <time>2020-07-08T13:16:09Z</time>
      </trkpt>
      <trkpt lat="47.79488" lon="-3.52841">
        <ele>11.32</ele>
        <time>2020-07-08T13:16:10Z</time>
      </trkpt>
      <trkpt lat="47.79485" lon="-3.52836">
        <ele>11.08</ele>
        <time>2020-07-08T13:16:11Z</time>
      </trkpt>
      <trkpt lat="47.79482" lon="-3.52832">
        <ele>10.78</ele>
        <time>2020-07-08T13:16:12Z</time>
      </trkpt>
      <trkpt lat="47.7948" lon="-3.52829">
        <ele>10.23</ele>
        <time>2020-07-08T13:16:13Z</time>
      </trkpt>
      <trkpt lat="47.79478" lon="-3.52826">
        <ele>9.73</ele>
        <time>2020-07-08T13:16:14Z</time>
      </trkpt>
      <trkpt lat="47.79475" lon="-3.52824">
        <ele>9.5</ele>
        <time>2020-07-08T13:16:15Z</time>
      </trkpt>
      <trkpt lat="47.79473" lon="-3.52823">
        <ele>9.53</ele>
        <time>2020-07-08T13:16:16Z</time>
      </trkpt>
      <trkpt lat="47.7947" lon="-3.52822">
        <ele>9.31</ele>
        <time>2020-07-08T13:16:17Z</time>
      </trkpt>
      <trkpt lat="47.79467" lon="-3.52821">
        <ele>9.01</ele>
        <time>2020-07-08T13:16:18Z</time>
      </trkpt>
      <trkpt lat="47.79465" lon="-3.5282">
        <ele>8.68</ele>
        <time>2020-07-08T13:16:19Z</time>
      </trkpt>
      <trkpt lat="47.79463" lon="-3.5282">
        <ele>8.51</ele>
        <time>2020-07-08T13:16:20Z</time>
      </trkpt>
      <trkpt lat="47.79459" lon="-3.52819">
        <ele>8.4</ele>
        <time>2020-07-08T13:16:21Z</time>
      </trkpt>
      <trkpt lat="47.79456" lon="-3.52818">
        <ele>8.22</ele>
        <time>2020-07-08T13:16:22Z</time>
      </trkpt>
      <trkpt lat="47.79452" lon="-3.52816">
        <ele>7.9</ele>
        <time>2020-07-08T13:16:23Z</time>
      </trkpt>
      <trkpt lat="47.79448" lon="-3.52814">
        <ele>7.39</ele>
        <time>2020-07-08T13:16:24Z</time>
      </trkpt>
      <trkpt lat="47.79444" lon="-3.5281">
        <ele>6.66</ele>
        <time>2020-07-08T13:16:25Z</time>
      </trkpt>
      <trkpt lat="47.7944" lon="-3.52805">
        <ele>5.94</ele>
        <time>2020-07-08T13:16:26Z</time>
      </trkpt>
      <trkpt lat="47.79437" lon="-3.52799">
        <ele>5.35</ele>
        <time>2020-07-08T13:16:27Z</time>
      </trkpt>
      <trkpt lat="47.79434" lon="-3.52792">
        <ele>4.56</ele>
        <time>2020-07-08T13:16:28Z</time>
      </trkpt>
      <trkpt lat="47.7943" lon="-3.52784">
        <ele>3.78</ele>
        <time>2020-07-08T13:16:29Z</time>
      </trkpt>
      <trkpt lat="47.79427" lon="-3.52779">
        <ele>3.06</ele>
        <time>2020-07-08T13:16:30Z</time>
      </trkpt>
      <trkpt lat="47.79425" lon="-3.52775">
        <ele>2.64</ele>
        <time>2020-07-08T13:16:31Z</time>
      </trkpt>
      <trkpt lat="47.79422" lon="-3.52772">
        <ele>2.54</ele>
        <time>2020-07-08T13:16:32Z</time>
      </trkpt>
      <trkpt lat="47.79419" lon="-3.52771">
        <ele>2.63</ele>
        <time>2020-07-08T13:16:33Z</time>
      </trkpt>
      <trkpt lat="47.79417" lon="-3.52771">
        <ele>2.89</ele>
        <time>2020-07-08T13:16:34Z</time>
      </trkpt>
      <trkpt lat="47.79414" lon="-3.52772">
        <ele>2.87</ele>
        <time>2020-07-08T13:16:35Z</time>
      </trkpt>
      <trkpt lat="47.7941" lon="-3.52773">
        <ele>2.74</ele>
        <time>2020-07-08T13:16:36Z</time>
      </trkpt>
      <trkpt lat="47.79405" lon="-3.52774">
        <ele>2.54</ele>
        <time>2020-07-08T13:16:37Z</time>
      </trkpt>
      <trkpt lat="47.79401" lon="-3.52777">
        <ele>2.28</ele>
        <time>2020-07-08T13:16:38Z</time>
      </trkpt>
      <trkpt lat="47.79396" lon="-3.52779">
        <ele>2.07</ele>
        <time>2020-07-08T13:16:39Z</time>
      </trkpt>
      <trkpt lat="47.79392" lon="-3.52782">
        <ele>1.99</ele>
        <time>2020-07-08T13:16:40Z</time>
      </trkpt>
      <trkpt lat="47.79389" lon="-3.52783">
        <ele>1.86</ele>
        <time>2020-07-08T13:16:41Z</time>
      </trkpt>
      <trkpt lat="47.79388" lon="-3.52784">
        <ele>1.88</ele>
        <time>2020-07-08T13:16:42Z</time>
      </trkpt>
      <trkpt lat="47.79387" lon="-3.52786">
        <ele>1.98</ele>
        <time>2020-07-08T13:16:43Z</time>
      </trkpt>
      <trkpt lat="47.79385" lon="-3.52787">
        <ele>2.08</ele>
        <time>2020-07-08T13:16:44Z</time>
      </trkpt>
      <trkpt lat="47.79384" lon="-3.52789">
        <ele>2.2</ele>
        <time>2020-07-08T13:16:45Z</time>
      </trkpt>
      <trkpt lat="47.79381" lon="-3.5279">
        <ele>2.28</ele>
        <time>2020-07-08T13:16:46Z</time>
      </trkpt>
      <trkpt lat="47.79379" lon="-3.52794">
        <ele>2.45</ele>
        <time>2020-07-08T13:16:47Z</time>
      </trkpt>
      <trkpt lat="47.79377" lon="-3.52799">
        <ele>2.76</ele>
        <time>2020-07-08T13:16:48Z</time>
      </trkpt>
      <trkpt lat="47.79374" lon="-3.52804">
        <ele>3.16</ele>
        <time>2020-07-08T13:16:49Z</time>
      </trkpt>
      <trkpt lat="47.79373" lon="-3.52809">
        <ele>3.45</ele>
        <time>2020-07-08T13:16:50Z</time>
      </trkpt>
      <trkpt lat="47.79371" lon="-3.52812">
        <ele>3.6</ele>
        <time>2020-07-08T13:16:51Z</time>
      </trkpt>
      <trkpt lat="47.79369" lon="-3.52814">
        <ele>3.59</ele>
        <time>2020-07-08T13:16:52Z</time>
      </trkpt>
      <trkpt lat="47.79367" lon="-3.52815">
        <ele>3.42</ele>
        <time>2020-07-08T13:16:53Z</time>
      </trkpt>
      <trkpt lat="47.79364" lon="-3.52815">
        <ele>3.16</ele>
        <time>2020-07-08T13:16:54Z</time>
      </trkpt>
      <trkpt lat="47.79362" lon="-3.52815">
        <ele>2.89</ele>
        <time>2020-07-08T13:16:55Z</time>
      </trkpt>
      <trkpt lat="47.79358" lon="-3.52815">
        <ele>2.64</ele>
        <time>2020-07-08T13:16:56Z</time>
      </trkpt>
      <trkpt lat="47.79355" lon="-3.52816">
        <ele>2.43</ele>
        <time>2020-07-08T13:16:57Z</time>
      </trkpt>
      <trkpt lat="47.79351" lon="-3.52816">
        <ele>2.26</ele>
        <time>2020-07-08T13:16:58Z</time>
      </trkpt>
      <trkpt lat="47.79347" lon="-3.5282">
        <ele>2.25</ele>
        <time>2020-07-08T13:16:59Z</time>
      </trkpt>
      <trkpt lat="47.79344" lon="-3.52823">
        <ele>2.33</ele>
        <time>2020-07-08T13:17:00Z</time>
      </trkpt>
      <trkpt lat="47.79341" lon="-3.52825">
        <ele>2.46</ele>
        <time>2020-07-08T13:17:01Z</time>
      </trkpt>
      <trkpt lat="47.79339" lon="-3.52827">
        <ele>2.55</ele>
        <time>2020-07-08T13:17:02Z</time>
      </trkpt>
      <trkpt lat="47.79338" lon="-3.52828">
        <ele>2.59</ele>
        <time>2020-07-08T13:17:03Z</time>
      </trkpt>
      <trkpt lat="47.79335" lon="-3.52829">
        <ele>2.56</ele>
        <time>2020-07-08T13:17:04Z</time>
      </trkpt>
      <trkpt lat="47.79332" lon="-3.52831">
        <ele>2.64</ele>
        <time>2020-07-08T13:17:05Z</time>
      </trkpt>
      <trkpt lat="47.79329" lon="-3.52833">
        <ele>2.74</ele>
        <time>2020-07-08T13:17:06Z</time>
      </trkpt>
      <trkpt lat="47.79327" lon="-3.52836">
        <ele>2.94</ele>
        <time>2020-07-08T13:17:07Z</time>
      </trkpt>
      <trkpt lat="47.79325" lon="-3.52838">
        <ele>3.08</ele>
        <time>2020-07-08T13:17:08Z</time>
      </trkpt>
      <trkpt lat="47.79322" lon="-3.52841">
        <ele>3.27</ele>
        <time>2020-07-08T13:17:09Z</time>
      </trkpt>
      <trkpt lat="47.79319" lon="-3.52844">
        <ele>3.41</ele>
        <time>2020-07-08T13:17:10Z</time>
      </trkpt>
      <trkpt lat="47.79315" lon="-3.52847">
        <ele>3.51</ele>
        <time>2020-07-08T13:17:11Z</time>
      </trkpt>
      <trkpt lat="47.79312" lon="-3.52849">
        <ele>3.5</ele>
        <time>2020-07-08T13:17:12Z</time>
      </trkpt>
      <trkpt lat="47.79307" lon="-3.52851">
        <ele>3.4</ele>
        <time>2020-07-08T13:17:13Z</time>
      </trkpt>
      <trkpt lat="47.79302" lon="-3.52852">
        <ele>3.26</ele>
        <time>2020-07-08T13:17:14Z</time>
      </trkpt>
      <trkpt lat="47.79298" lon="-3.52853">
        <ele>3.12</ele>
        <time>2020-07-08T13:17:15Z</time>
      </trkpt>
      <trkpt lat="47.79292" lon="-3.52855">
        <ele>3</ele>
        <time>2020-07-08T13:17:16Z</time>
      </trkpt>
      <trkpt lat="47.79287" lon="-3.52855">
        <ele>2.83</ele>
        <time>2020-07-08T13:17:17Z</time>
      </trkpt>
      <trkpt lat="47.79282" lon="-3.52856">
        <ele>2.69</ele>
        <time>2020-07-08T13:17:18Z</time>
      </trkpt>
      <trkpt lat="47.79277" lon="-3.52858">
        <ele>2.63</ele>
        <time>2020-07-08T13:17:19Z</time>
      </trkpt>
      <trkpt lat="47.79272" lon="-3.52861">
        <ele>2.58</ele>
        <time>2020-07-08T13:17:20Z</time>
      </trkpt>
      <trkpt lat="47.79268" lon="-3.52863">
        <ele>2.54</ele>
        <time>2020-07-08T13:17:21Z</time>
      </trkpt>
      <trkpt lat="47.79264" lon="-3.52866">
        <ele>2.51</ele>
        <time>2020-07-08T13:17:22Z</time>
      </trkpt>
      <trkpt lat="47.7926" lon="-3.52868">
        <ele>2.51</ele>
        <time>2020-07-08T13:17:23Z</time>
      </trkpt>
      <trkpt lat="47.79257" lon="-3.52872">
        <ele>2.62</ele>
        <time>2020-07-08T13:17:24Z</time>
      </trkpt>
      <trkpt lat="47.79253" lon="-3.52876">
        <ele>2.8</ele>
        <time>2020-07-08T13:17:25Z</time>
      </trkpt>
      <trkpt lat="47.79249" lon="-3.52881">
        <ele>2.99</ele>
        <time>2020-07-08T13:17:26Z</time>
      </trkpt>
      <trkpt lat="47.79244" lon="-3.52885">
        <ele>2.91</ele>
        <time>2020-07-08T13:17:27Z</time>
      </trkpt>
      <trkpt lat="47.7924" lon="-3.5289">
        <ele>2.7</ele>
        <time>2020-07-08T13:17:28Z</time>
      </trkpt>
      <trkpt lat="47.79235" lon="-3.52894">
        <ele>2.35</ele>
        <time>2020-07-08T13:17:29Z</time>
      </trkpt>
      <trkpt lat="47.7923" lon="-3.529">
        <ele>2.07</ele>
        <time>2020-07-08T13:17:30Z</time>
      </trkpt>
      <trkpt lat="47.79226" lon="-3.52906">
        <ele>1.89</ele>
        <time>2020-07-08T13:17:31Z</time>
      </trkpt>
      <trkpt lat="47.79223" lon="-3.52911">
        <ele>1.73</ele>
        <time>2020-07-08T13:17:32Z</time>
      </trkpt>
      <trkpt lat="47.79219" lon="-3.52915">
        <ele>1.71</ele>
        <time>2020-07-08T13:17:33Z</time>
      </trkpt>
      <trkpt lat="47.79216" lon="-3.52921">
        <ele>1.87</ele>
        <time>2020-07-08T13:17:34Z</time>
      </trkpt>
      <trkpt lat="47.79213" lon="-3.52927">
        <ele>2.05</ele>
        <time>2020-07-08T13:17:35Z</time>
      </trkpt>
      <trkpt lat="47.7921" lon="-3.52933">
        <ele>2.11</ele>
        <time>2020-07-08T13:17:36Z</time>
      </trkpt>
      <trkpt lat="47.79207" lon="-3.52939">
        <ele>2.05</ele>
        <time>2020-07-08T13:17:37Z</time>
      </trkpt>
      <trkpt lat="47.79204" lon="-3.52946">
        <ele>1.87</ele>
        <time>2020-07-08T13:17:38Z</time>
      </trkpt>
      <trkpt lat="47.79202" lon="-3.52953">
        <ele>1.65</ele>
        <time>2020-07-08T13:17:39Z</time>
      </trkpt>
      <trkpt lat="47.792" lon="-3.5296">
        <ele>1.53</ele>
        <time>2020-07-08T13:17:40Z</time>
      </trkpt>
      <trkpt lat="47.79199" lon="-3.52966">
        <ele>1.47</ele>
        <time>2020-07-08T13:17:41Z</time>
      </trkpt>
      <trkpt lat="47.79197" lon="-3.52973">
        <ele>1.45</ele>
        <time>2020-07-08T13:17:42Z</time>
      </trkpt>
      <trkpt lat="47.79196" lon="-3.52979">
        <ele>1.62</ele>
        <time>2020-07-08T13:17:43Z</time>
      </trkpt>
      <trkpt lat="47.79194" lon="-3.52987">
        <ele>1.91</ele>
        <time>2020-07-08T13:17:44Z</time>
      </trkpt>
      <trkpt lat="47.79193" lon="-3.52994">
        <ele>2.25</ele>
        <time>2020-07-08T13:17:45Z</time>
      </trkpt>
      <trkpt lat="47.79191" lon="-3.53002">
        <ele>2.59</ele>
        <time>2020-07-08T13:17:46Z</time>
      </trkpt>
      <trkpt lat="47.79188" lon="-3.53008">
        <ele>2.85</ele>
        <time>2020-07-08T13:17:47Z</time>
      </trkpt>
      <trkpt lat="47.79186" lon="-3.53014">
        <ele>2.99</ele>
        <time>2020-07-08T13:17:48Z</time>
      </trkpt>
      <trkpt lat="47.79184" lon="-3.53018">
        <ele>3.09</ele>
        <time>2020-07-08T13:17:49Z</time>
      </trkpt>
      <trkpt lat="47.79181" lon="-3.53021">
        <ele>3.11</ele>
        <time>2020-07-08T13:17:50Z</time>
      </trkpt>
      <trkpt lat="47.79179" lon="-3.53023">
        <ele>3.01</ele>
        <time>2020-07-08T13:17:51Z</time>
      </trkpt>
      <trkpt lat="47.79176" lon="-3.53024">
        <ele>2.8</ele>
        <time>2020-07-08T13:17:52Z</time>
      </trkpt>
      <trkpt lat="47.79173" lon="-3.53024">
        <ele>2.53</ele>
        <time>2020-07-08T13:17:53Z</time>
      </trkpt>
      <trkpt lat="47.79169" lon="-3.53025">
        <ele>2.23</ele>
        <time>2020-07-08T13:17:54Z</time>
      </trkpt>
      <trkpt lat="47.79166" lon="-3.53026">
        <ele>1.96</ele>
        <time>2020-07-08T13:17:55Z</time>
      </trkpt>
      <trkpt lat="47.79162" lon="-3.53027">
        <ele>1.73</ele>
        <time>2020-07-08T13:17:56Z</time>
      </trkpt>
      <trkpt lat="47.79158" lon="-3.53029">
        <ele>1.57</ele>
        <time>2020-07-08T13:17:57Z</time>
      </trkpt>
      <trkpt lat="47.79154" lon="-3.53032">
        <ele>1.48</ele>
        <time>2020-07-08T13:17:58Z</time>
      </trkpt>
      <trkpt lat="47.7915" lon="-3.53034">
        <ele>1.39</ele>
        <time>2020-07-08T13:17:59Z</time>
      </trkpt>
      <trkpt lat="47.79146" lon="-3.53037">
        <ele>1.35</ele>
        <time>2020-07-08T13:18:00Z</time>
      </trkpt>
      <trkpt lat="47.79143" lon="-3.53042">
        <ele>1.37</ele>
        <time>2020-07-08T13:18:01Z</time>
      </trkpt>
      <trkpt lat="47.7914" lon="-3.53047">
        <ele>1.42</ele>
        <time>2020-07-08T13:18:02Z</time>
      </trkpt>
      <trkpt lat="47.79137" lon="-3.53052">
        <ele>1.57</ele>
        <time>2020-07-08T13:18:03Z</time>
      </trkpt>
      <trkpt lat="47.79135" lon="-3.53058">
        <ele>1.68</ele>
        <time>2020-07-08T13:18:04Z</time>
      </trkpt>
      <trkpt lat="47.79134" lon="-3.53063">
        <ele>1.66</ele>
        <time>2020-07-08T13:18:05Z</time>
      </trkpt>
      <trkpt lat="47.79134" lon="-3.53069">
        <ele>1.65</ele>
        <time>2020-07-08T13:18:06Z</time>
      </trkpt>
      <trkpt lat="47.79134" lon="-3.53075">
        <ele>1.67</ele>
        <time>2020-07-08T13:18:07Z</time>
      </trkpt>
      <trkpt lat="47.79135" lon="-3.5308">
        <ele>1.73</ele>
        <time>2020-07-08T13:18:08Z</time>
      </trkpt>
      <trkpt lat="47.79137" lon="-3.53087">
        <ele>1.82</ele>
        <time>2020-07-08T13:18:09Z</time>
      </trkpt>
      <trkpt lat="47.79138" lon="-3.53093">
        <ele>1.93</ele>
        <time>2020-07-08T13:18:10Z</time>
      </trkpt>
      <trkpt lat="47.79139" lon="-3.53099">
        <ele>2.05</ele>
        <time>2020-07-08T13:18:11Z</time>
      </trkpt>
      <trkpt lat="47.79141" lon="-3.53105">
        <ele>2.29</ele>
        <time>2020-07-08T13:18:12Z</time>
      </trkpt>
      <trkpt lat="47.79142" lon="-3.53111">
        <ele>2.66</ele>
        <time>2020-07-08T13:18:13Z</time>
      </trkpt>
      <trkpt lat="47.79143" lon="-3.53118">
        <ele>2.76</ele>
        <time>2020-07-08T13:18:14Z</time>
      </trkpt>
      <trkpt lat="47.79144" lon="-3.53124">
        <ele>2.72</ele>
        <time>2020-07-08T13:18:15Z</time>
      </trkpt>
      <trkpt lat="47.79144" lon="-3.53129">
        <ele>2.63</ele>
        <time>2020-07-08T13:18:16Z</time>
      </trkpt>
      <trkpt lat="47.79144" lon="-3.53134">
        <ele>2.47</ele>
        <time>2020-07-08T13:18:17Z</time>
      </trkpt>
      <trkpt lat="47.79142" lon="-3.53137">
        <ele>2.12</ele>
        <time>2020-07-08T13:18:18Z</time>
      </trkpt>
      <trkpt lat="47.79141" lon="-3.53141">
        <ele>1.71</ele>
        <time>2020-07-08T13:18:19Z</time>
      </trkpt>
      <trkpt lat="47.79138" lon="-3.53145">
        <ele>1.34</ele>
        <time>2020-07-08T13:18:20Z</time>
      </trkpt>
      <trkpt lat="47.79137" lon="-3.53148">
        <ele>1.26</ele>
        <time>2020-07-08T13:18:21Z</time>
      </trkpt>
      <trkpt lat="47.79136" lon="-3.53149">
        <ele>1.25</ele>
        <time>2020-07-08T13:18:22Z</time>
      </trkpt>
      <trkpt lat="47.79136" lon="-3.53149">
        <ele>1.25</ele>
        <time>2020-07-08T13:18:23Z</time>
      </trkpt>
      <trkpt lat="47.79136" lon="-3.53149">
        <ele>1.26</ele>
        <time>2020-07-08T13:18:24Z</time>
      </trkpt>
      <trkpt lat="47.79136" lon="-3.53149">
        <ele>1.26</ele>
        <time>2020-07-08T13:18:25Z</time>
      </trkpt>
      <trkpt lat="47.79136" lon="-3.53149">
        <ele>1.26</ele>
        <time>2020-07-08T13:18:26Z</time>
      </trkpt>
      <trkpt lat="47.79136" lon="-3.53149">
        <ele>1.26</ele>
        <time>2020-07-08T13:18:27Z</time>
      </trkpt>
      <trkpt lat="47.79136" lon="-3.53149">
        <ele>1.26</ele>
        <time>2020-07-08T13:18:28Z</time>
      </trkpt>
      <trkpt lat="47.79136" lon="-3.53149">
        <ele>1.26</ele>
        <time>2020-07-08T13:18:29Z</time>
      </trkpt>
      <trkpt lat="47.79136" lon="-3.53149">
        <ele>1.26</ele>
        <time>2020-07-08T13:18:30Z</time>
      </trkpt>
      <trkpt lat="47.79136" lon="-3.53149">
        <ele>1.26</ele>
        <time>2020-07-08T13:18:31Z</time>
      </trkpt>
      <trkpt lat="47.79136" lon="-3.53149">
        <ele>1.26</ele>
        <time>2020-07-08T13:18:32Z</time>
      </trkpt>
      <trkpt lat="47.79136" lon="-3.53149">
        <ele>1.26</ele>
        <time>2020-07-08T13:18:33Z</time>
      </trkpt>
      <trkpt lat="47.79136" lon="-3.53149">
        <ele>1.26</ele>
        <time>2020-07-08T13:18:34Z</time>
      </trkpt>
      <trkpt lat="47.79136" lon="-3.53149">
        <ele>1.26</ele>
        <time>2020-07-08T13:18:35Z</time>
      </trkpt>
      <trkpt lat="47.79136" lon="-3.53149">
        <ele>1.26</ele>
        <time>2020-07-08T13:18:36Z</time>
      </trkpt>
      <trkpt lat="47.79136" lon="-3.53149">
        <ele>1.26</ele>
        <time>2020-07-08T13:18:37Z</time>
      </trkpt>
      <trkpt lat="47.79136" lon="-3.53149">
        <ele>1.26</ele>
        <time>2020-07-08T13:18:38Z</time>
      </trkpt>
      <trkpt lat="47.79136" lon="-3.53149">
        <ele>1.26</ele>
        <time>2020-07-08T13:18:39Z</time>
      </trkpt>
      <trkpt lat="47.79136" lon="-3.53149">
        <ele>1.26</ele>
        <time>2020-07-08T13:18:40Z</time>
      </trkpt>
      <trkpt lat="47.79136" lon="-3.53149">
        <ele>1.26</ele>
        <time>2020-07-08T13:18:41Z</time>
      </trkpt>
      <trkpt lat="47.79136" lon="-3.53149">
        <ele>1.26</ele>
        <time>2020-07-08T13:18:42Z</time>
      </trkpt>
      <trkpt lat="47.79136" lon="-3.53149">
        <ele>1.26</ele>
        <time>2020-07-08T13:18:43Z</time>
      </trkpt>
      <trkpt lat="47.79136" lon="-3.53149">
        <ele>1.26</ele>
        <time>2020-07-08T13:18:44Z</time>
      </trkpt>
      <trkpt lat="47.79136" lon="-3.53149">
        <ele>1.26</ele>
        <time>2020-07-08T13:18:45Z</time>
      </trkpt>
      <trkpt lat="47.79136" lon="-3.53149">
        <ele>1.26</ele>
        <time>2020-07-08T13:18:46Z</time>
      </trkpt>
      <trkpt lat="47.79136" lon="-3.53149">
        <ele>1.26</ele>
        <time>2020-07-08T13:18:47Z</time>
      </trkpt>
      <trkpt lat="47.79136" lon="-3.53149">
        <ele>1.26</ele>
        <time>2020-07-08T13:18:48Z</time>
      </trkpt>
      <trkpt lat="47.79136" lon="-3.53149">
        <ele>1.26</ele>
        <time>2020-07-08T13:18:49Z</time>
      </trkpt>
      <trkpt lat="47.79136" lon="-3.53149">
        <ele>1.26</ele>
        <time>2020-07-08T13:18:50Z</time>
      </trkpt>
      <trkpt lat="47.79136" lon="-3.53149">
        <ele>1.26</ele>
        <time>2020-07-08T13:18:51Z</time>
      </trkpt>
      <trkpt lat="47.79136" lon="-3.53149">
        <ele>1.26</ele>
        <time>2020-07-08T13:18:52Z</time>
      </trkpt>
      <trkpt lat="47.79136" lon="-3.53149">
        <ele>1.26</ele>
        <time>2020-07-08T13:18:53Z</time>
      </trkpt>
      <trkpt lat="47.79136" lon="-3.53149">
        <ele>1.26</ele>
        <time>2020-07-08T13:18:54Z</time>
      </trkpt>
      <trkpt lat="47.79136" lon="-3.53149">
        <ele>1.26</ele>
        <time>2020-07-08T13:18:55Z</time>
      </trkpt>
      <trkpt lat="47.79136" lon="-3.53149">
        <ele>1.26</ele>
        <time>2020-07-08T13:18:56Z</time>
      </trkpt>
      <trkpt lat="47.79136" lon="-3.53149">
        <ele>1.26</ele>
        <time>2020-07-08T13:18:57Z</time>
      </trkpt>
      <trkpt lat="47.79136" lon="-3.53149">
        <ele>1.26</ele>
        <time>2020-07-08T13:18:58Z</time>
      </trkpt>
      <trkpt lat="47.79136" lon="-3.53149">
        <ele>1.26</ele>
        <time>2020-07-08T13:18:59Z</time>
      </trkpt>
      <trkpt lat="47.79136" lon="-3.53149">
        <ele>1.26</ele>
        <time>2020-07-08T13:19:00Z</time>
      </trkpt>
      <trkpt lat="47.79136" lon="-3.53149">
        <ele>1.26</ele>
        <time>2020-07-08T13:19:01Z</time>
      </trkpt>
      <trkpt lat="47.79136" lon="-3.53149">
        <ele>1.26</ele>
        <time>2020-07-08T13:19:02Z</time>
      </trkpt>
      <trkpt lat="47.79136" lon="-3.53149">
        <ele>1.26</ele>
        <time>2020-07-08T13:19:03Z</time>
      </trkpt>
      <trkpt lat="47.79136" lon="-3.53149">
        <ele>1.26</ele>
        <time>2020-07-08T13:19:04Z</time>
      </trkpt>
      <trkpt lat="47.79136" lon="-3.53149">
        <ele>1.26</ele>
        <time>2020-07-08T13:19:05Z</time>
      </trkpt>
      <trkpt lat="47.79136" lon="-3.53149">
        <ele>1.26</ele>
        <time>2020-07-08T13:19:06Z</time>
      </trkpt>
      <trkpt lat="47.79136" lon="-3.53149">
        <ele>1.26</ele>
        <time>2020-07-08T13:19:07Z</time>
      </trkpt>
      <trkpt lat="47.79136" lon="-3.53149">
        <ele>1.26</ele>
        <time>2020-07-08T13:19:08Z</time>
      </trkpt>
      <trkpt lat="47.79136" lon="-3.53149">
        <ele>1.26</ele>
        <time>2020-07-08T13:19:09Z</time>
      </trkpt>
      <trkpt lat="47.79136" lon="-3.53149">
        <ele>1.26</ele>
        <time>2020-07-08T13:19:10Z</time>
      </trkpt>
      <trkpt lat="47.79136" lon="-3.53149">
        <ele>1.26</ele>
        <time>2020-07-08T13:19:11Z</time>
      </trkpt>
      <trkpt lat="47.79136" lon="-3.53149">
        <ele>1.26</ele>
        <time>2020-07-08T13:19:12Z</time>
      </trkpt>
      <trkpt lat="47.79136" lon="-3.53149">
        <ele>1.26</ele>
        <time>2020-07-08T13:19:13Z</time>
      </trkpt>
      <trkpt lat="47.79136" lon="-3.53149">
        <ele>1.26</ele>
        <time>2020-07-08T13:19:14Z</time>
      </trkpt>
      <trkpt lat="47.79136" lon="-3.53149">
        <ele>1.26</ele>
        <time>2020-07-08T13:19:15Z</time>
      </trkpt>
      <trkpt lat="47.79136" lon="-3.53149">
        <ele>1.26</ele>
        <time>2020-07-08T13:19:16Z</time>
      </trkpt>
      <trkpt lat="47.79136" lon="-3.53149">
        <ele>1.26</ele>
        <time>2020-07-08T13:19:17Z</time>
      </trkpt>
      <trkpt lat="47.79136" lon="-3.53149">
        <ele>1.26</ele>
        <time>2020-07-08T13:19:18Z</time>
      </trkpt>
      <trkpt lat="47.79136" lon="-3.53149">
        <ele>1.26</ele>
        <time>2020-07-08T13:19:19Z</time>
      </trkpt>
      <trkpt lat="47.79136" lon="-3.53149">
        <ele>1.26</ele>
        <time>2020-07-08T13:19:20Z</time>
      </trkpt>
      <trkpt lat="47.79136" lon="-3.53149">
        <ele>1.26</ele>
        <time>2020-07-08T13:19:21Z</time>
      </trkpt>
      <trkpt lat="47.79136" lon="-3.53149">
        <ele>1.26</ele>
        <time>2020-07-08T13:19:22Z</time>
      </trkpt>
      <trkpt lat="47.79136" lon="-3.53149">
        <ele>1.26</ele>
        <time>2020-07-08T13:19:23Z</time>
      </trkpt>
      <trkpt lat="47.79136" lon="-3.53149">
        <ele>1.26</ele>
        <time>2020-07-08T13:19:24Z</time>
      </trkpt>
      <trkpt lat="47.79136" lon="-3.53149">
        <ele>1.26</ele>
        <time>2020-07-08T13:19:25Z</time>
      </trkpt>
      <trkpt lat="47.79136" lon="-3.53149">
        <ele>1.26</ele>
        <time>2020-07-08T13:19:26Z</time>
      </trkpt>
      <trkpt lat="47.79136" lon="-3.53149">
        <ele>1.26</ele>
        <time>2020-07-08T13:19:27Z</time>
      </trkpt>
      <trkpt lat="47.79136" lon="-3.53149">
        <ele>1.26</ele>
        <time>2020-07-08T13:19:28Z</time>
      </trkpt>
      <trkpt lat="47.79136" lon="-3.53149">
        <ele>1.26</ele>
        <time>2020-07-08T13:19:29Z</time>
      </trkpt>
      <trkpt lat="47.79136" lon="-3.53149">
        <ele>1.26</ele>
        <time>2020-07-08T13:19:30Z</time>
      </trkpt>
      <trkpt lat="47.79136" lon="-3.53149">
        <ele>1.26</ele>
        <time>2020-07-08T13:19:31Z</time>
      </trkpt>
      <trkpt lat="47.79136" lon="-3.53149">
        <ele>1.26</ele>
        <time>2020-07-08T13:19:32Z</time>
      </trkpt>
      <trkpt lat="47.79136" lon="-3.53149">
        <ele>1.26</ele>
        <time>2020-07-08T13:19:33Z</time>
      </trkpt>
      <trkpt lat="47.79136" lon="-3.53149">
        <ele>1.26</ele>
        <time>2020-07-08T13:19:34Z</time>
      </trkpt>
      <trkpt lat="47.79136" lon="-3.53149">
        <ele>1.26</ele>
        <time>2020-07-08T13:19:35Z</time>
      </trkpt>
      <trkpt lat="47.79136" lon="-3.53149">
        <ele>1.26</ele>
        <time>2020-07-08T13:19:36Z</time>
      </trkpt>
      <trkpt lat="47.79136" lon="-3.53149">
        <ele>1.26</ele>
        <time>2020-07-08T13:19:37Z</time>
      </trkpt>
      <trkpt lat="47.79136" lon="-3.53149">
        <ele>1.26</ele>
        <time>2020-07-08T13:19:38Z</time>
      </trkpt>
      <trkpt lat="47.79136" lon="-3.53149">
        <ele>1.26</ele>
        <time>2020-07-08T13:19:39Z</time>
      </trkpt>
      <trkpt lat="47.79136" lon="-3.53149">
        <ele>1.26</ele>
        <time>2020-07-08T13:19:40Z</time>
      </trkpt>
      <trkpt lat="47.79136" lon="-3.53149">
        <ele>1.26</ele>
        <time>2020-07-08T13:19:41Z</time>
      </trkpt>
      <trkpt lat="47.79136" lon="-3.53149">
        <ele>1.26</ele>
        <time>2020-07-08T13:19:42Z</time>
      </trkpt>
      <trkpt lat="47.79136" lon="-3.53149">
        <ele>1.26</ele>
        <time>2020-07-08T13:19:43Z</time>
      </trkpt>
      <trkpt lat="47.79136" lon="-3.53149">
        <ele>1.26</ele>
        <time>2020-07-08T13:19:44Z</time>
      </trkpt>
      <trkpt lat="47.79136" lon="-3.53149">
        <ele>1.26</ele>
        <time>2020-07-08T13:19:45Z</time>
      </trkpt>
      <trkpt lat="47.79136" lon="-3.53149">
        <ele>1.26</ele>
        <time>2020-07-08T13:19:46Z</time>
      </trkpt>
      <trkpt lat="47.79136" lon="-3.53149">
        <ele>1.26</ele>
        <time>2020-07-08T13:19:47Z</time>
      </trkpt>
      <trkpt lat="47.79136" lon="-3.53149">
        <ele>1.26</ele>
        <time>2020-07-08T13:19:48Z</time>
      </trkpt>
      <trkpt lat="47.79136" lon="-3.53149">
        <ele>1.26</ele>
        <time>2020-07-08T13:19:49Z</time>
      </trkpt>
      <trkpt lat="47.79136" lon="-3.53149">
        <ele>1.26</ele>
        <time>2020-07-08T13:19:50Z</time>
      </trkpt>
      <trkpt lat="47.79136" lon="-3.53149">
        <ele>1.26</ele>
        <time>2020-07-08T13:19:51Z</time>
      </trkpt>
      <trkpt lat="47.79136" lon="-3.53149">
        <ele>1.26</ele>
        <time>2020-07-08T13:19:52Z</time>
      </trkpt>
      <trkpt lat="47.79136" lon="-3.53149">
        <ele>1.26</ele>
        <time>2020-07-08T13:19:53Z</time>
      </trkpt>
      <trkpt lat="47.79136" lon="-3.53149">
        <ele>1.26</ele>
        <time>2020-07-08T13:19:54Z</time>
      </trkpt>
      <trkpt lat="47.79136" lon="-3.53149">
        <ele>1.26</ele>
        <time>2020-07-08T13:19:55Z</time>
      </trkpt>
      <trkpt lat="47.79136" lon="-3.53149">
        <ele>1.26</ele>
        <time>2020-07-08T13:19:56Z</time>
      </trkpt>
      <trkpt lat="47.79136" lon="-3.53149">
        <ele>1.26</ele>
        <time>2020-07-08T13:19:57Z</time>
      </trkpt>
      <trkpt lat="47.79136" lon="-3.53149">
        <ele>1.26</ele>
        <time>2020-07-08T13:19:58Z</time>
      </trkpt>
      <trkpt lat="47.79136" lon="-3.53149">
        <ele>1.26</ele>
        <time>2020-07-08T13:19:59Z</time>
      </trkpt>
      <trkpt lat="47.79136" lon="-3.53149">
        <ele>1.26</ele>
        <time>2020-07-08T13:20:00Z</time>
      </trkpt>
      <trkpt lat="47.79136" lon="-3.53149">
        <ele>1.26</ele>
        <time>2020-07-08T13:20:01Z</time>
      </trkpt>
      <trkpt lat="47.79136" lon="-3.53149">
        <ele>1.26</ele>
        <time>2020-07-08T13:20:02Z</time>
      </trkpt>
      <trkpt lat="47.79136" lon="-3.53149">
        <ele>1.26</ele>
        <time>2020-07-08T13:20:03Z</time>
      </trkpt>
      <trkpt lat="47.79136" lon="-3.53149">
        <ele>1.26</ele>
        <time>2020-07-08T13:20:04Z</time>
      </trkpt>
      <trkpt lat="47.79136" lon="-3.53149">
        <ele>1.26</ele>
        <time>2020-07-08T13:20:05Z</time>
      </trkpt>
      <trkpt lat="47.79136" lon="-3.53149">
        <ele>1.26</ele>
        <time>2020-07-08T13:20:06Z</time>
      </trkpt>
      <trkpt lat="47.79136" lon="-3.53149">
        <ele>1.26</ele>
        <time>2020-07-08T13:20:07Z</time>
      </trkpt>
      <trkpt lat="47.79136" lon="-3.53149">
        <ele>1.26</ele>
        <time>2020-07-08T13:20:08Z</time>
      </trkpt>
      <trkpt lat="47.79136" lon="-3.53149">
        <ele>1.26</ele>
        <time>2020-07-08T13:20:09Z</time>
      </trkpt>
      <trkpt lat="47.79136" lon="-3.53149">
        <ele>1.26</ele>
        <time>2020-07-08T13:20:10Z</time>
      </trkpt>
      <trkpt lat="47.79136" lon="-3.53149">
        <ele>1.26</ele>
        <time>2020-07-08T13:20:11Z</time>
      </trkpt>
      <trkpt lat="47.79136" lon="-3.53149">
        <ele>1.26</ele>
        <time>2020-07-08T13:20:12Z</time>
      </trkpt>
      <trkpt lat="47.79136" lon="-3.53149">
        <ele>1.26</ele>
        <time>2020-07-08T13:20:13Z</time>
      </trkpt>
      <trkpt lat="47.79136" lon="-3.53149">
        <ele>1.26</ele>
        <time>2020-07-08T13:20:14Z</time>
      </trkpt>
      <trkpt lat="47.79136" lon="-3.53149">
        <ele>1.26</ele>
        <time>2020-07-08T13:20:15Z</time>
      </trkpt>
      <trkpt lat="47.79136" lon="-3.53149">
        <ele>1.26</ele>
        <time>2020-07-08T13:20:16Z</time>
      </trkpt>
      <trkpt lat="47.79136" lon="-3.53149">
        <ele>1.26</ele>
        <time>2020-07-08T13:20:17Z</time>
      </trkpt>
      <trkpt lat="47.79136" lon="-3.53149">
        <ele>1.26</ele>
        <time>2020-07-08T13:20:18Z</time>
      </trkpt>
      <trkpt lat="47.79136" lon="-3.53149">
        <ele>1.26</ele>
        <time>2020-07-08T13:20:19Z</time>
      </trkpt>
      <trkpt lat="47.79136" lon="-3.53149">
        <ele>1.26</ele>
        <time>2020-07-08T13:20:20Z</time>
      </trkpt>
      <trkpt lat="47.79136" lon="-3.53149">
        <ele>1.26</ele>
        <time>2020-07-08T13:20:21Z</time>
      </trkpt>
      <trkpt lat="47.79136" lon="-3.53149">
        <ele>1.26</ele>
        <time>2020-07-08T13:20:22Z</time>
      </trkpt>
      <trkpt lat="47.79136" lon="-3.53149">
        <ele>1.26</ele>
        <time>2020-07-08T13:20:23Z</time>
      </trkpt>
      <trkpt lat="47.79136" lon="-3.53149">
        <ele>1.26</ele>
        <time>2020-07-08T13:20:24Z</time>
      </trkpt>
      <trkpt lat="47.79136" lon="-3.53149">
        <ele>1.26</ele>
        <time>2020-07-08T13:20:25Z</time>
      </trkpt>
      <trkpt lat="47.79136" lon="-3.53149">
        <ele>1.26</ele>
        <time>2020-07-08T13:20:26Z</time>
      </trkpt>
      <trkpt lat="47.79136" lon="-3.53149">
        <ele>1.26</ele>
        <time>2020-07-08T13:20:27Z</time>
      </trkpt>
      <trkpt lat="47.79136" lon="-3.53149">
        <ele>1.26</ele>
        <time>2020-07-08T13:20:28Z</time>
      </trkpt>
      <trkpt lat="47.79136" lon="-3.53149">
        <ele>1.26</ele>
        <time>2020-07-08T13:20:29Z</time>
      </trkpt>
      <trkpt lat="47.79136" lon="-3.53149">
        <ele>1.26</ele>
        <time>2020-07-08T13:20:30Z</time>
      </trkpt>
      <trkpt lat="47.79136" lon="-3.53149">
        <ele>1.26</ele>
        <time>2020-07-08T13:20:31Z</time>
      </trkpt>
      <trkpt lat="47.79136" lon="-3.53149">
        <ele>1.26</ele>
        <time>2020-07-08T13:20:32Z</time>
      </trkpt>
      <trkpt lat="47.79136" lon="-3.53149">
        <ele>1.26</ele>
        <time>2020-07-08T13:20:33Z</time>
      </trkpt>
      <trkpt lat="47.79136" lon="-3.53149">
        <ele>1.26</ele>
        <time>2020-07-08T13:20:34Z</time>
      </trkpt>
      <trkpt lat="47.79136" lon="-3.53149">
        <ele>1.26</ele>
        <time>2020-07-08T13:20:35Z</time>
      </trkpt>
      <trkpt lat="47.79136" lon="-3.53149">
        <ele>1.26</ele>
        <time>2020-07-08T13:20:36Z</time>
      </trkpt>
      <trkpt lat="47.79136" lon="-3.53149">
        <ele>1.26</ele>
        <time>2020-07-08T13:20:37Z</time>
      </trkpt>
      <trkpt lat="47.79136" lon="-3.53149">
        <ele>1.26</ele>
        <time>2020-07-08T13:20:38Z</time>
      </trkpt>
      <trkpt lat="47.79136" lon="-3.53149">
        <ele>1.26</ele>
        <time>2020-07-08T13:20:39Z</time>
      </trkpt>
      <trkpt lat="47.79136" lon="-3.53149">
        <ele>1.26</ele>
        <time>2020-07-08T13:20:40Z</time>
      </trkpt>
      <trkpt lat="47.79136" lon="-3.53149">
        <ele>1.26</ele>
        <time>2020-07-08T13:20:41Z</time>
      </trkpt>
      <trkpt lat="47.79136" lon="-3.53149">
        <ele>1.26</ele>
        <time>2020-07-08T13:20:42Z</time>
      </trkpt>
      <trkpt lat="47.79136" lon="-3.53149">
        <ele>1.26</ele>
        <time>2020-07-08T13:20:43Z</time>
      </trkpt>
      <trkpt lat="47.79136" lon="-3.53149">
        <ele>1.26</ele>
        <time>2020-07-08T13:20:44Z</time>
      </trkpt>
      <trkpt lat="47.79136" lon="-3.53149">
        <ele>1.26</ele>
        <time>2020-07-08T13:20:45Z</time>
      </trkpt>
      <trkpt lat="47.79136" lon="-3.53149">
        <ele>1.26</ele>
        <time>2020-07-08T13:20:46Z</time>
      </trkpt>
      <trkpt lat="47.79136" lon="-3.53149">
        <ele>1.26</ele>
        <time>2020-07-08T13:20:47Z</time>
      </trkpt>
      <trkpt lat="47.79136" lon="-3.53149">
        <ele>1.26</ele>
        <time>2020-07-08T13:20:48Z</time>
      </trkpt>
      <trkpt lat="47.79136" lon="-3.53149">
        <ele>1.26</ele>
        <time>2020-07-08T13:20:49Z</time>
      </trkpt>
      <trkpt lat="47.79136" lon="-3.53149">
        <ele>1.26</ele>
        <time>2020-07-08T13:20:50Z</time>
      </trkpt>
      <trkpt lat="47.79136" lon="-3.53149">
        <ele>1.26</ele>
        <time>2020-07-08T13:20:51Z</time>
      </trkpt>
      <trkpt lat="47.79136" lon="-3.53149">
        <ele>1.26</ele>
        <time>2020-07-08T13:20:52Z</time>
      </trkpt>
      <trkpt lat="47.79136" lon="-3.53149">
        <ele>1.26</ele>
        <time>2020-07-08T13:20:53Z</time>
      </trkpt>
      <trkpt lat="47.79136" lon="-3.53149">
        <ele>1.26</ele>
        <time>2020-07-08T13:20:54Z</time>
      </trkpt>
      <trkpt lat="47.79136" lon="-3.53149">
        <ele>1.26</ele>
        <time>2020-07-08T13:20:55Z</time>
      </trkpt>
      <trkpt lat="47.79136" lon="-3.53149">
        <ele>1.26</ele>
        <time>2020-07-08T13:20:56Z</time>
      </trkpt>
      <trkpt lat="47.79136" lon="-3.53149">
        <ele>1.26</ele>
        <time>2020-07-08T13:20:57Z</time>
      </trkpt>
      <trkpt lat="47.79136" lon="-3.53149">
        <ele>1.26</ele>
        <time>2020-07-08T13:20:58Z</time>
      </trkpt>
      <trkpt lat="47.79136" lon="-3.53149">
        <ele>1.26</ele>
        <time>2020-07-08T13:20:59Z</time>
      </trkpt>
      <trkpt lat="47.79136" lon="-3.53149">
        <ele>1.26</ele>
        <time>2020-07-08T13:21:00Z</time>
      </trkpt>
      <trkpt lat="47.79135" lon="-3.53153">
        <ele>1.35</ele>
        <time>2020-07-08T13:21:01Z</time>
      </trkpt>
      <trkpt lat="47.79133" lon="-3.53154">
        <ele>1.35</ele>
        <time>2020-07-08T13:21:02Z</time>
      </trkpt>
      <trkpt lat="47.79131" lon="-3.53155">
        <ele>1.31</ele>
        <time>2020-07-08T13:21:03Z</time>
      </trkpt>
      <trkpt lat="47.79128" lon="-3.53157">
        <ele>1.28</ele>
        <time>2020-07-08T13:21:04Z</time>
      </trkpt>
      <trkpt lat="47.79126" lon="-3.53158">
        <ele>1.24</ele>
        <time>2020-07-08T13:21:05Z</time>
      </trkpt>
      <trkpt lat="47.79122" lon="-3.5316">
        <ele>1.18</ele>
        <time>2020-07-08T13:21:06Z</time>
      </trkpt>
      <trkpt lat="47.79119" lon="-3.53162">
        <ele>1.12</ele>
        <time>2020-07-08T13:21:07Z</time>
      </trkpt>
      <trkpt lat="47.79115" lon="-3.53164">
        <ele>1.06</ele>
        <time>2020-07-08T13:21:08Z</time>
      </trkpt>
      <trkpt lat="47.79112" lon="-3.53165">
        <ele>1.01</ele>
        <time>2020-07-08T13:21:09Z</time>
      </trkpt>
      <trkpt lat="47.79109" lon="-3.53168">
        <ele>1.03</ele>
        <time>2020-07-08T13:21:10Z</time>
      </trkpt>
      <trkpt lat="47.79106" lon="-3.5317">
        <ele>1.09</ele>
        <time>2020-07-08T13:21:11Z</time>
      </trkpt>
      <trkpt lat="47.79104" lon="-3.53171">
        <ele>1.15</ele>
        <time>2020-07-08T13:21:12Z</time>
      </trkpt>
      <trkpt lat="47.79101" lon="-3.53172">
        <ele>1.19</ele>
        <time>2020-07-08T13:21:13Z</time>
      </trkpt>
      <trkpt lat="47.79098" lon="-3.53174">
        <ele>1.25</ele>
        <time>2020-07-08T13:21:14Z</time>
      </trkpt>
      <trkpt lat="47.79096" lon="-3.53176">
        <ele>1.3</ele>
        <time>2020-07-08T13:21:15Z</time>
      </trkpt>
      <trkpt lat="47.79094" lon="-3.53177">
        <ele>1.36</ele>
        <time>2020-07-08T13:21:16Z</time>
      </trkpt>
      <trkpt lat="47.79091" lon="-3.53179">
        <ele>1.42</ele>
        <time>2020-07-08T13:21:17Z</time>
      </trkpt>
      <trkpt lat="47.79089" lon="-3.5318">
        <ele>1.47</ele>
        <time>2020-07-08T13:21:18Z</time>
      </trkpt>
      <trkpt lat="47.79086" lon="-3.53182">
        <ele>1.52</ele>
        <time>2020-07-08T13:21:19Z</time>
      </trkpt>
      <trkpt lat="47.79082" lon="-3.53184">
        <ele>1.58</ele>
        <time>2020-07-08T13:21:20Z</time>
      </trkpt>
      <trkpt lat="47.79079" lon="-3.53186">
        <ele>1.64</ele>
        <time>2020-07-08T13:21:21Z</time>
      </trkpt>
      <trkpt lat="47.79076" lon="-3.53188">
        <ele>1.69</ele>
        <time>2020-07-08T13:21:22Z</time>
      </trkpt>
      <trkpt lat="47.79072" lon="-3.5319">
        <ele>1.74</ele>
        <time>2020-07-08T13:21:23Z</time>
      </trkpt>
      <trkpt lat="47.79069" lon="-3.53191">
        <ele>1.8</ele>
        <time>2020-07-08T13:21:24Z</time>
      </trkpt>
      <trkpt lat="47.79066" lon="-3.53193">
        <ele>1.87</ele>
        <time>2020-07-08T13:21:25Z</time>
      </trkpt>
      <trkpt lat="47.79062" lon="-3.53194">
        <ele>1.96</ele>
        <time>2020-07-08T13:21:26Z</time>
      </trkpt>
      <trkpt lat="47.79058" lon="-3.53196">
        <ele>2.06</ele>
        <time>2020-07-08T13:21:27Z</time>
      </trkpt>
      <trkpt lat="47.79054" lon="-3.53198">
        <ele>2.27</ele>
        <time>2020-07-08T13:21:28Z</time>
      </trkpt>
      <trkpt lat="47.7905" lon="-3.532">
        <ele>2.63</ele>
        <time>2020-07-08T13:21:29Z</time>
      </trkpt>
      <trkpt lat="47.79047" lon="-3.53201">
        <ele>2.98</ele>
        <time>2020-07-08T13:21:30Z</time>
      </trkpt>
      <trkpt lat="47.79044" lon="-3.53201">
        <ele>3.27</ele>
        <time>2020-07-08T13:21:31Z</time>
      </trkpt>
      <trkpt lat="47.79041" lon="-3.532">
        <ele>3.49</ele>
        <time>2020-07-08T13:21:32Z</time>
      </trkpt>
      <trkpt lat="47.79039" lon="-3.53198">
        <ele>3.55</ele>
        <time>2020-07-08T13:21:33Z</time>
      </trkpt>
      <trkpt lat="47.79036" lon="-3.53196">
        <ele>3.53</ele>
        <time>2020-07-08T13:21:34Z</time>
      </trkpt>
      <trkpt lat="47.79034" lon="-3.53194">
        <ele>3.49</ele>
        <time>2020-07-08T13:21:35Z</time>
      </trkpt>
      <trkpt lat="47.79032" lon="-3.53191">
        <ele>3.42</ele>
        <time>2020-07-08T13:21:36Z</time>
      </trkpt>
      <trkpt lat="47.79029" lon="-3.53189">
        <ele>3.33</ele>
        <time>2020-07-08T13:21:37Z</time>
      </trkpt>
      <trkpt lat="47.79027" lon="-3.53186">
        <ele>3.3</ele>
        <time>2020-07-08T13:21:38Z</time>
      </trkpt>
      <trkpt lat="47.79024" lon="-3.53184">
        <ele>3.38</ele>
        <time>2020-07-08T13:21:39Z</time>
      </trkpt>
      <trkpt lat="47.79021" lon="-3.53183">
        <ele>3.55</ele>
        <time>2020-07-08T13:21:40Z</time>
      </trkpt>
      <trkpt lat="47.79017" lon="-3.53181">
        <ele>3.75</ele>
        <time>2020-07-08T13:21:41Z</time>
      </trkpt>
      <trkpt lat="47.79015" lon="-3.53179">
        <ele>3.86</ele>
        <time>2020-07-08T13:21:42Z</time>
      </trkpt>
      <trkpt lat="47.79011" lon="-3.53178">
        <ele>4.04</ele>
        <time>2020-07-08T13:21:43Z</time>
      </trkpt>
      <trkpt lat="47.79007" lon="-3.53176">
        <ele>4.2</ele>
        <time>2020-07-08T13:21:44Z</time>
      </trkpt>
      <trkpt lat="47.79004" lon="-3.53175">
        <ele>4.35</ele>
        <time>2020-07-08T13:21:45Z</time>
      </trkpt>
      <trkpt lat="47.79" lon="-3.53174">
        <ele>4.45</ele>
        <time>2020-07-08T13:21:46Z</time>
      </trkpt>
      <trkpt lat="47.78997" lon="-3.53172">
        <ele>4.8</ele>
        <time>2020-07-08T13:21:47Z</time>
      </trkpt>
      <trkpt lat="47.78994" lon="-3.53171">
        <ele>5.17</ele>
        <time>2020-07-08T13:21:48Z</time>
      </trkpt>
      <trkpt lat="47.7899" lon="-3.5317">
        <ele>5.76</ele>
        <time>2020-07-08T13:21:49Z</time>
      </trkpt>
      <trkpt lat="47.78987" lon="-3.53168">
        <ele>6.29</ele>
        <time>2020-07-08T13:21:50Z</time>
      </trkpt>
      <trkpt lat="47.78984" lon="-3.53167">
        <ele>6.86</ele>
        <time>2020-07-08T13:21:51Z</time>
      </trkpt>
      <trkpt lat="47.7898" lon="-3.53165">
        <ele>7.4</ele>
        <time>2020-07-08T13:21:52Z</time>
      </trkpt>
      <trkpt lat="47.78978" lon="-3.53163">
        <ele>7.66</ele>
        <time>2020-07-08T13:21:53Z</time>
      </trkpt>
      <trkpt lat="47.78975" lon="-3.5316">
        <ele>7.73</ele>
        <time>2020-07-08T13:21:54Z</time>
      </trkpt>
      <trkpt lat="47.78972" lon="-3.53158">
        <ele>7.85</ele>
        <time>2020-07-08T13:21:55Z</time>
      </trkpt>
      <trkpt lat="47.78968" lon="-3.53155">
        <ele>7.9</ele>
        <time>2020-07-08T13:21:56Z</time>
      </trkpt>
      <trkpt lat="47.78964" lon="-3.53153">
        <ele>7.99</ele>
        <time>2020-07-08T13:21:57Z</time>
      </trkpt>
      <trkpt lat="47.7896" lon="-3.5315">
        <ele>8.02</ele>
        <time>2020-07-08T13:21:58Z</time>
      </trkpt>
      <trkpt lat="47.78957" lon="-3.53148">
        <ele>8.22</ele>
        <time>2020-07-08T13:21:59Z</time>
      </trkpt>
      <trkpt lat="47.78953" lon="-3.53147">
        <ele>8.51</ele>
        <time>2020-07-08T13:22:00Z</time>
      </trkpt>
      <trkpt lat="47.7895" lon="-3.53145">
        <ele>8.67</ele>
        <time>2020-07-08T13:22:01Z</time>
      </trkpt>
      <trkpt lat="47.78948" lon="-3.53145">
        <ele>8.87</ele>
        <time>2020-07-08T13:22:02Z</time>
      </trkpt>
      <trkpt lat="47.78946" lon="-3.53144">
        <ele>8.99</ele>
        <time>2020-07-08T13:22:03Z</time>
      </trkpt>
      <trkpt lat="47.78944" lon="-3.53143">
        <ele>9.11</ele>
        <time>2020-07-08T13:22:04Z</time>
      </trkpt>
      <trkpt lat="47.78942" lon="-3.53142">
        <ele>9.46</ele>
        <time>2020-07-08T13:22:05Z</time>
      </trkpt>
      <trkpt lat="47.78939" lon="-3.53141">
        <ele>10.01</ele>
        <time>2020-07-08T13:22:06Z</time>
      </trkpt>
      <trkpt lat="47.78935" lon="-3.5314">
        <ele>10.6</ele>
        <time>2020-07-08T13:22:07Z</time>
      </trkpt>
      <trkpt lat="47.78932" lon="-3.53139">
        <ele>11.24</ele>
        <time>2020-07-08T13:22:08Z</time>
      </trkpt>
      <trkpt lat="47.78929" lon="-3.53138">
        <ele>11.75</ele>
        <time>2020-07-08T13:22:09Z</time>
      </trkpt>
      <trkpt lat="47.78927" lon="-3.53136">
        <ele>12.07</ele>
        <time>2020-07-08T13:22:10Z</time>
      </trkpt>
      <trkpt lat="47.78924" lon="-3.53135">
        <ele>12.15</ele>
        <time>2020-07-08T13:22:11Z</time>
      </trkpt>
      <trkpt lat="47.78922" lon="-3.53134">
        <ele>12.39</ele>
        <time>2020-07-08T13:22:12Z</time>
      </trkpt>
      <trkpt lat="47.78921" lon="-3.53133">
        <ele>12.57</ele>
        <time>2020-07-08T13:22:13Z</time>
      </trkpt>
      <trkpt lat="47.78919" lon="-3.53132">
        <ele>12.61</ele>
        <time>2020-07-08T13:22:14Z</time>
      </trkpt>
      <trkpt lat="47.78917" lon="-3.53131">
        <ele>12.7</ele>
        <time>2020-07-08T13:22:15Z</time>
      </trkpt>
      <trkpt lat="47.78913" lon="-3.5313">
        <ele>13.31</ele>
        <time>2020-07-08T13:22:16Z</time>
      </trkpt>
      <trkpt lat="47.78911" lon="-3.53129">
        <ele>13.82</ele>
        <time>2020-07-08T13:22:17Z</time>
      </trkpt>
      <trkpt lat="47.78908" lon="-3.53128">
        <ele>14.42</ele>
        <time>2020-07-08T13:22:18Z</time>
      </trkpt>
      <trkpt lat="47.78905" lon="-3.53127">
        <ele>14.92</ele>
        <time>2020-07-08T13:22:19Z</time>
      </trkpt>
      <trkpt lat="47.78904" lon="-3.53126">
        <ele>15.19</ele>
        <time>2020-07-08T13:22:20Z</time>
      </trkpt>
      <trkpt lat="47.78902" lon="-3.53125">
        <ele>15.6</ele>
        <time>2020-07-08T13:22:21Z</time>
      </trkpt>
      <trkpt lat="47.789" lon="-3.53123">
        <ele>15.48</ele>
        <time>2020-07-08T13:22:22Z</time>
      </trkpt>
      <trkpt lat="47.78897" lon="-3.53122">
        <ele>15.67</ele>
        <time>2020-07-08T13:22:23Z</time>
      </trkpt>
      <trkpt lat="47.78896" lon="-3.5312">
        <ele>15.5</ele>
        <time>2020-07-08T13:22:24Z</time>
      </trkpt>
      <trkpt lat="47.78894" lon="-3.53119">
        <ele>15.54</ele>
        <time>2020-07-08T13:22:25Z</time>
      </trkpt>
      <trkpt lat="47.78893" lon="-3.53118">
        <ele>15.59</ele>
        <time>2020-07-08T13:22:26Z</time>
      </trkpt>
      <trkpt lat="47.78892" lon="-3.53118">
        <ele>15.61</ele>
        <time>2020-07-08T13:22:27Z</time>
      </trkpt>
      <trkpt lat="47.78891" lon="-3.53117">
        <ele>15.75</ele>
        <time>2020-07-08T13:22:28Z</time>
      </trkpt>
      <trkpt lat="47.78889" lon="-3.53117">
        <ele>16.22</ele>
        <time>2020-07-08T13:22:29Z</time>
      </trkpt>
      <trkpt lat="47.78887" lon="-3.53115">
        <ele>16.52</ele>
        <time>2020-07-08T13:22:30Z</time>
      </trkpt>
      <trkpt lat="47.78886" lon="-3.53114">
        <ele>16.46</ele>
        <time>2020-07-08T13:22:31Z</time>
      </trkpt>
      <trkpt lat="47.78885" lon="-3.53112">
        <ele>16.45</ele>
        <time>2020-07-08T13:22:32Z</time>
      </trkpt>
      <trkpt lat="47.78883" lon="-3.53112">
        <ele>16.62</ele>
        <time>2020-07-08T13:22:33Z</time>
      </trkpt>
      <trkpt lat="47.78882" lon="-3.53112">
        <ele>17.07</ele>
        <time>2020-07-08T13:22:34Z</time>
      </trkpt>
      <trkpt lat="47.78881" lon="-3.53111">
        <ele>17.51</ele>
        <time>2020-07-08T13:22:35Z</time>
      </trkpt>
      <trkpt lat="47.78879" lon="-3.53111">
        <ele>18.06</ele>
        <time>2020-07-08T13:22:36Z</time>
      </trkpt>
      <trkpt lat="47.78878" lon="-3.53111">
        <ele>18.29</ele>
        <time>2020-07-08T13:22:37Z</time>
      </trkpt>
      <trkpt lat="47.78877" lon="-3.5311">
        <ele>18.69</ele>
        <time>2020-07-08T13:22:38Z</time>
      </trkpt>
      <trkpt lat="47.78875" lon="-3.53108">
        <ele>18.83</ele>
        <time>2020-07-08T13:22:39Z</time>
      </trkpt>
      <trkpt lat="47.78874" lon="-3.53107">
        <ele>18.94</ele>
        <time>2020-07-08T13:22:40Z</time>
      </trkpt>
      <trkpt lat="47.78872" lon="-3.53106">
        <ele>19.08</ele>
        <time>2020-07-08T13:22:41Z</time>
      </trkpt>
      <trkpt lat="47.78872" lon="-3.53104">
        <ele>18.91</ele>
        <time>2020-07-08T13:22:42Z</time>
      </trkpt>
      <trkpt lat="47.78871" lon="-3.53103">
        <ele>18.8</ele>
        <time>2020-07-08T13:22:43Z</time>
      </trkpt>
      <trkpt lat="47.7887" lon="-3.53102">
        <ele>18.89</ele>
        <time>2020-07-08T13:22:44Z</time>
      </trkpt>
      <trkpt lat="47.78868" lon="-3.531">
        <ele>18.94</ele>
        <time>2020-07-08T13:22:45Z</time>
      </trkpt>
      <trkpt lat="47.78866" lon="-3.53098">
        <ele>19.1</ele>
        <time>2020-07-08T13:22:46Z</time>
      </trkpt>
      <trkpt lat="47.78865" lon="-3.53095">
        <ele>18.99</ele>
        <time>2020-07-08T13:22:47Z</time>
      </trkpt>
      <trkpt lat="47.78862" lon="-3.5309">
        <ele>18.71</ele>
        <time>2020-07-08T13:22:48Z</time>
      </trkpt>
      <trkpt lat="47.7886" lon="-3.53086">
        <ele>18.35</ele>
        <time>2020-07-08T13:22:49Z</time>
      </trkpt>
      <trkpt lat="47.78858" lon="-3.53082">
        <ele>18.01</ele>
        <time>2020-07-08T13:22:50Z</time>
      </trkpt>
      <trkpt lat="47.78856" lon="-3.53078">
        <ele>17.28</ele>
        <time>2020-07-08T13:22:51Z</time>
      </trkpt>
      <trkpt lat="47.78854" lon="-3.53071">
        <ele>16.31</ele>
        <time>2020-07-08T13:22:52Z</time>
      </trkpt>
      <trkpt lat="47.78851" lon="-3.53065">
        <ele>15.66</ele>
        <time>2020-07-08T13:22:53Z</time>
      </trkpt>
      <trkpt lat="47.78848" lon="-3.53059">
        <ele>15.08</ele>
        <time>2020-07-08T13:22:54Z</time>
      </trkpt>
      <trkpt lat="47.78846" lon="-3.53051">
        <ele>14.38</ele>
        <time>2020-07-08T13:22:55Z</time>
      </trkpt>
      <trkpt lat="47.78844" lon="-3.53042">
        <ele>13.71</ele>
        <time>2020-07-08T13:22:56Z</time>
      </trkpt>
      <trkpt lat="47.78843" lon="-3.53034">
        <ele>12.58</ele>
        <time>2020-07-08T13:22:57Z</time>
      </trkpt>
      <trkpt lat="47.78841" lon="-3.53027">
        <ele>11.67</ele>
        <time>2020-07-08T13:22:58Z</time>
      </trkpt>
      <trkpt lat="47.7884" lon="-3.53019">
        <ele>10.63</ele>
        <time>2020-07-08T13:22:59Z</time>
      </trkpt>
      <trkpt lat="47.78837" lon="-3.53014">
        <ele>10.08</ele>
        <time>2020-07-08T13:23:00Z</time>
      </trkpt>
      <trkpt lat="47.78833" lon="-3.53008">
        <ele>9.55</ele>
        <time>2020-07-08T13:23:01Z</time>
      </trkpt>
      <trkpt lat="47.7883" lon="-3.53003">
        <ele>8.41</ele>
        <time>2020-07-08T13:23:02Z</time>
      </trkpt>
      <trkpt lat="47.78829" lon="-3.52997">
        <ele>7.14</ele>
        <time>2020-07-08T13:23:03Z</time>
      </trkpt>
      <trkpt lat="47.78826" lon="-3.52993">
        <ele>6.1</ele>
        <time>2020-07-08T13:23:04Z</time>
      </trkpt>
      <trkpt lat="47.78823" lon="-3.52989">
        <ele>5.3</ele>
        <time>2020-07-08T13:23:05Z</time>
      </trkpt>
      <trkpt lat="47.78821" lon="-3.52987">
        <ele>4.78</ele>
        <time>2020-07-08T13:23:06Z</time>
      </trkpt>
      <trkpt lat="47.78818" lon="-3.52986">
        <ele>4.57</ele>
        <time>2020-07-08T13:23:07Z</time>
      </trkpt>
      <trkpt lat="47.78814" lon="-3.52985">
        <ele>4.59</ele>
        <time>2020-07-08T13:23:08Z</time>
      </trkpt>
      <trkpt lat="47.7881" lon="-3.52984">
        <ele>4.6</ele>
        <time>2020-07-08T13:23:09Z</time>
      </trkpt>
      <trkpt lat="47.78805" lon="-3.52981">
        <ele>4.37</ele>
        <time>2020-07-08T13:23:10Z</time>
      </trkpt>
      <trkpt lat="47.78802" lon="-3.52979">
        <ele>4.21</ele>
        <time>2020-07-08T13:23:11Z</time>
      </trkpt>
      <trkpt lat="47.78798" lon="-3.52977">
        <ele>4.05</ele>
        <time>2020-07-08T13:23:12Z</time>
      </trkpt>
      <trkpt lat="47.78796" lon="-3.52976">
        <ele>4.03</ele>
        <time>2020-07-08T13:23:13Z</time>
      </trkpt>
      <trkpt lat="47.78794" lon="-3.52975">
        <ele>3.99</ele>
        <time>2020-07-08T13:23:14Z</time>
      </trkpt>
      <trkpt lat="47.78793" lon="-3.52975">
        <ele>4.11</ele>
        <time>2020-07-08T13:23:15Z</time>
      </trkpt>
      <trkpt lat="47.78791" lon="-3.52974">
        <ele>4.13</ele>
        <time>2020-07-08T13:23:16Z</time>
      </trkpt>
      <trkpt lat="47.78788" lon="-3.52974">
        <ele>4.15</ele>
        <time>2020-07-08T13:23:17Z</time>
      </trkpt>
      <trkpt lat="47.78786" lon="-3.52971">
        <ele>3.98</ele>
        <time>2020-07-08T13:23:18Z</time>
      </trkpt>
      <trkpt lat="47.78784" lon="-3.5297">
        <ele>4.04</ele>
        <time>2020-07-08T13:23:19Z</time>
      </trkpt>
      <trkpt lat="47.78782" lon="-3.52969">
        <ele>4.17</ele>
        <time>2020-07-08T13:23:20Z</time>
      </trkpt>
      <trkpt lat="47.7878" lon="-3.52968">
        <ele>4.3</ele>
        <time>2020-07-08T13:23:21Z</time>
      </trkpt>
      <trkpt lat="47.78777" lon="-3.52967">
        <ele>4.43</ele>
        <time>2020-07-08T13:23:22Z</time>
      </trkpt>
      <trkpt lat="47.78776" lon="-3.52965">
        <ele>4.81</ele>
        <time>2020-07-08T13:23:23Z</time>
      </trkpt>
      <trkpt lat="47.78774" lon="-3.52964">
        <ele>5.33</ele>
        <time>2020-07-08T13:23:24Z</time>
      </trkpt>
      <trkpt lat="47.78773" lon="-3.52964">
        <ele>5.69</ele>
        <time>2020-07-08T13:23:25Z</time>
      </trkpt>
      <trkpt lat="47.78771" lon="-3.52963">
        <ele>6.16</ele>
        <time>2020-07-08T13:23:26Z</time>
      </trkpt>
      <trkpt lat="47.78769" lon="-3.52961">
        <ele>6.58</ele>
        <time>2020-07-08T13:23:27Z</time>
      </trkpt>
      <trkpt lat="47.78768" lon="-3.52959">
        <ele>6.74</ele>
        <time>2020-07-08T13:23:28Z</time>
      </trkpt>
      <trkpt lat="47.78768" lon="-3.52958">
        <ele>6.84</ele>
        <time>2020-07-08T13:23:29Z</time>
      </trkpt>
      <trkpt lat="47.78767" lon="-3.52956">
        <ele>6.98</ele>
        <time>2020-07-08T13:23:30Z</time>
      </trkpt>
      <trkpt lat="47.78766" lon="-3.52955">
        <ele>7.15</ele>
        <time>2020-07-08T13:23:31Z</time>
      </trkpt>
      <trkpt lat="47.78764" lon="-3.52954">
        <ele>7.38</ele>
        <time>2020-07-08T13:23:32Z</time>
      </trkpt>
      <trkpt lat="47.78763" lon="-3.52954">
        <ele>7.73</ele>
        <time>2020-07-08T13:23:33Z</time>
      </trkpt>
      <trkpt lat="47.78762" lon="-3.52953">
        <ele>8.08</ele>
        <time>2020-07-08T13:23:34Z</time>
      </trkpt>
      <trkpt lat="47.78761" lon="-3.52952">
        <ele>8.28</ele>
        <time>2020-07-08T13:23:35Z</time>
      </trkpt>
      <trkpt lat="47.7876" lon="-3.52951">
        <ele>8.39</ele>
        <time>2020-07-08T13:23:36Z</time>
      </trkpt>
      <trkpt lat="47.78759" lon="-3.5295">
        <ele>8.77</ele>
        <time>2020-07-08T13:23:37Z</time>
      </trkpt>
      <trkpt lat="47.78757" lon="-3.52948">
        <ele>9.02</ele>
        <time>2020-07-08T13:23:38Z</time>
      </trkpt>
      <trkpt lat="47.78756" lon="-3.52944">
        <ele>9.12</ele>
        <time>2020-07-08T13:23:39Z</time>
      </trkpt>
      <trkpt lat="47.78754" lon="-3.52941">
        <ele>8.97</ele>
        <time>2020-07-08T13:23:40Z</time>
      </trkpt>
      <trkpt lat="47.78751" lon="-3.52937">
        <ele>8.85</ele>
        <time>2020-07-08T13:23:41Z</time>
      </trkpt>
      <trkpt lat="47.7875" lon="-3.52933">
        <ele>8.34</ele>
        <time>2020-07-08T13:23:42Z</time>
      </trkpt>
      <trkpt lat="47.78748" lon="-3.52928">
        <ele>7.81</ele>
        <time>2020-07-08T13:23:43Z</time>
      </trkpt>
      <trkpt lat="47.78746" lon="-3.52925">
        <ele>7.37</ele>
        <time>2020-07-08T13:23:44Z</time>
      </trkpt>
      <trkpt lat="47.78745" lon="-3.52921">
        <ele>7</ele>
        <time>2020-07-08T13:23:45Z</time>
      </trkpt>
      <trkpt lat="47.78743" lon="-3.52918">
        <ele>6.72</ele>
        <time>2020-07-08T13:23:46Z</time>
      </trkpt>
      <trkpt lat="47.78741" lon="-3.52915">
        <ele>6.58</ele>
        <time>2020-07-08T13:23:47Z</time>
      </trkpt>
      <trkpt lat="47.7874" lon="-3.52911">
        <ele>6.36</ele>
        <time>2020-07-08T13:23:48Z</time>
      </trkpt>
      <trkpt lat="47.78738" lon="-3.52907">
        <ele>6.33</ele>
        <time>2020-07-08T13:23:49Z</time>
      </trkpt>
      <trkpt lat="47.78736" lon="-3.52903">
        <ele>6.29</ele>
        <time>2020-07-08T13:23:50Z</time>
      </trkpt>
      <trkpt lat="47.78734" lon="-3.52898">
        <ele>6.22</ele>
        <time>2020-07-08T13:23:51Z</time>
      </trkpt>
      <trkpt lat="47.78732" lon="-3.52895">
        <ele>6.19</ele>
        <time>2020-07-08T13:23:52Z</time>
      </trkpt>
      <trkpt lat="47.7873" lon="-3.5289">
        <ele>6.07</ele>
        <time>2020-07-08T13:23:53Z</time>
      </trkpt>
      <trkpt lat="47.78727" lon="-3.52886">
        <ele>6.15</ele>
        <time>2020-07-08T13:23:54Z</time>
      </trkpt>
      <trkpt lat="47.78726" lon="-3.52883">
        <ele>6.22</ele>
        <time>2020-07-08T13:23:55Z</time>
      </trkpt>
      <trkpt lat="47.78723" lon="-3.52879">
        <ele>6.32</ele>
        <time>2020-07-08T13:23:56Z</time>
      </trkpt>
      <trkpt lat="47.78721" lon="-3.52876">
        <ele>6.48</ele>
        <time>2020-07-08T13:23:57Z</time>
      </trkpt>
      <trkpt lat="47.78718" lon="-3.52873">
        <ele>6.88</ele>
        <time>2020-07-08T13:23:58Z</time>
      </trkpt>
      <trkpt lat="47.78716" lon="-3.5287">
        <ele>7.27</ele>
        <time>2020-07-08T13:23:59Z</time>
      </trkpt>
      <trkpt lat="47.78714" lon="-3.52868">
        <ele>7.69</ele>
        <time>2020-07-08T13:24:00Z</time>
      </trkpt>
      <trkpt lat="47.78712" lon="-3.52866">
        <ele>7.95</ele>
        <time>2020-07-08T13:24:01Z</time>
      </trkpt>
      <trkpt lat="47.78709" lon="-3.52862">
        <ele>8.23</ele>
        <time>2020-07-08T13:24:02Z</time>
      </trkpt>
      <trkpt lat="47.78707" lon="-3.52859">
        <ele>8.52</ele>
        <time>2020-07-08T13:24:03Z</time>
      </trkpt>
      <trkpt lat="47.78704" lon="-3.52857">
        <ele>8.84</ele>
        <time>2020-07-08T13:24:04Z</time>
      </trkpt>
      <trkpt lat="47.78702" lon="-3.52855">
        <ele>9.06</ele>
        <time>2020-07-08T13:24:05Z</time>
      </trkpt>
      <trkpt lat="47.78699" lon="-3.52852">
        <ele>9.3</ele>
        <time>2020-07-08T13:24:06Z</time>
      </trkpt>
      <trkpt lat="47.78696" lon="-3.5285">
        <ele>9.58</ele>
        <time>2020-07-08T13:24:07Z</time>
      </trkpt>
      <trkpt lat="47.78694" lon="-3.52849">
        <ele>9.79</ele>
        <time>2020-07-08T13:24:08Z</time>
      </trkpt>
      <trkpt lat="47.7869" lon="-3.52847">
        <ele>9.68</ele>
        <time>2020-07-08T13:24:09Z</time>
      </trkpt>
      <trkpt lat="47.78686" lon="-3.52845">
        <ele>9.46</ele>
        <time>2020-07-08T13:24:10Z</time>
      </trkpt>
      <trkpt lat="47.78681" lon="-3.52844">
        <ele>9.4</ele>
        <time>2020-07-08T13:24:11Z</time>
      </trkpt>
      <trkpt lat="47.78676" lon="-3.52844">
        <ele>9.55</ele>
        <time>2020-07-08T13:24:12Z</time>
      </trkpt>
      <trkpt lat="47.78669" lon="-3.52843">
        <ele>9.72</ele>
        <time>2020-07-08T13:24:13Z</time>
      </trkpt>
      <trkpt lat="47.78662" lon="-3.52843">
        <ele>9.4</ele>
        <time>2020-07-08T13:24:14Z</time>
      </trkpt>
      <trkpt lat="47.78656" lon="-3.52842">
        <ele>8.72</ele>
        <time>2020-07-08T13:24:15Z</time>
      </trkpt>
      <trkpt lat="47.78649" lon="-3.52843">
        <ele>8.2</ele>
        <time>2020-07-08T13:24:16Z</time>
      </trkpt>
      <trkpt lat="47.78643" lon="-3.52844">
        <ele>7.68</ele>
        <time>2020-07-08T13:24:17Z</time>
      </trkpt>
      <trkpt lat="47.78637" lon="-3.52845">
        <ele>7.27</ele>
        <time>2020-07-08T13:24:18Z</time>
      </trkpt>
      <trkpt lat="47.78631" lon="-3.52846">
        <ele>6.76</ele>
        <time>2020-07-08T13:24:19Z</time>
      </trkpt>
      <trkpt lat="47.78626" lon="-3.52847">
        <ele>6.2</ele>
        <time>2020-07-08T13:24:20Z</time>
      </trkpt>
      <trkpt lat="47.78621" lon="-3.52848">
        <ele>5.51</ele>
        <time>2020-07-08T13:24:21Z</time>
      </trkpt>
      <trkpt lat="47.78616" lon="-3.52849">
        <ele>4.84</ele>
        <time>2020-07-08T13:24:22Z</time>
      </trkpt>
      <trkpt lat="47.78611" lon="-3.52851">
        <ele>4.35</ele>
        <time>2020-07-08T13:24:23Z</time>
      </trkpt>
      <trkpt lat="47.78607" lon="-3.52852">
        <ele>4.11</ele>
        <time>2020-07-08T13:24:24Z</time>
      </trkpt>
      <trkpt lat="47.78603" lon="-3.52853">
        <ele>4</ele>
        <time>2020-07-08T13:24:25Z</time>
      </trkpt>
      <trkpt lat="47.786" lon="-3.52854">
        <ele>3.82</ele>
        <time>2020-07-08T13:24:26Z</time>
      </trkpt>
      <trkpt lat="47.78596" lon="-3.52853">
        <ele>3.47</ele>
        <time>2020-07-08T13:24:27Z</time>
      </trkpt>
      <trkpt lat="47.78593" lon="-3.52856">
        <ele>3.36</ele>
        <time>2020-07-08T13:24:28Z</time>
      </trkpt>
      <trkpt lat="47.7859" lon="-3.52858">
        <ele>3.31</ele>
        <time>2020-07-08T13:24:29Z</time>
      </trkpt>
      <trkpt lat="47.78587" lon="-3.5286">
        <ele>3.25</ele>
        <time>2020-07-08T13:24:30Z</time>
      </trkpt>
      <trkpt lat="47.78584" lon="-3.52862">
        <ele>3.23</ele>
        <time>2020-07-08T13:24:31Z</time>
      </trkpt>
      <trkpt lat="47.78581" lon="-3.52865">
        <ele>3.28</ele>
        <time>2020-07-08T13:24:32Z</time>
      </trkpt>
      <trkpt lat="47.78578" lon="-3.52868">
        <ele>3.32</ele>
        <time>2020-07-08T13:24:33Z</time>
      </trkpt>
      <trkpt lat="47.78575" lon="-3.52871">
        <ele>3.3</ele>
        <time>2020-07-08T13:24:34Z</time>
      </trkpt>
      <trkpt lat="47.78572" lon="-3.52873">
        <ele>3.2</ele>
        <time>2020-07-08T13:24:35Z</time>
      </trkpt>
      <trkpt lat="47.78569" lon="-3.52876">
        <ele>3.1</ele>
        <time>2020-07-08T13:24:36Z</time>
      </trkpt>
      <trkpt lat="47.78567" lon="-3.52879">
        <ele>3.12</ele>
        <time>2020-07-08T13:24:37Z</time>
      </trkpt>
      <trkpt lat="47.78565" lon="-3.52882">
        <ele>2.99</ele>
        <time>2020-07-08T13:24:38Z</time>
      </trkpt>
      <trkpt lat="47.78563" lon="-3.52884">
        <ele>2.89</ele>
        <time>2020-07-08T13:24:39Z</time>
      </trkpt>
      <trkpt lat="47.78561" lon="-3.52887">
        <ele>2.84</ele>
        <time>2020-07-08T13:24:40Z</time>
      </trkpt>
      <trkpt lat="47.78558" lon="-3.52891">
        <ele>2.8</ele>
        <time>2020-07-08T13:24:41Z</time>
      </trkpt>
      <trkpt lat="47.78556" lon="-3.52895">
        <ele>2.87</ele>
        <time>2020-07-08T13:24:42Z</time>
      </trkpt>
      <trkpt lat="47.78553" lon="-3.529">
        <ele>3.09</ele>
        <time>2020-07-08T13:24:43Z</time>
      </trkpt>
      <trkpt lat="47.78552" lon="-3.52904">
        <ele>3.35</ele>
        <time>2020-07-08T13:24:44Z</time>
      </trkpt>
      <trkpt lat="47.78551" lon="-3.52908">
        <ele>3.7</ele>
        <time>2020-07-08T13:24:45Z</time>
      </trkpt>
      <trkpt lat="47.7855" lon="-3.52913">
        <ele>4.01</ele>
        <time>2020-07-08T13:24:46Z</time>
      </trkpt>
      <trkpt lat="47.78549" lon="-3.52918">
        <ele>4.35</ele>
        <time>2020-07-08T13:24:47Z</time>
      </trkpt>
      <trkpt lat="47.78547" lon="-3.52922">
        <ele>4.42</ele>
        <time>2020-07-08T13:24:48Z</time>
      </trkpt>
      <trkpt lat="47.78546" lon="-3.52927">
        <ele>4.46</ele>
        <time>2020-07-08T13:24:49Z</time>
      </trkpt>
      <trkpt lat="47.78544" lon="-3.52931">
        <ele>4.34</ele>
        <time>2020-07-08T13:24:50Z</time>
      </trkpt>
      <trkpt lat="47.78543" lon="-3.52935">
        <ele>4.16</ele>
        <time>2020-07-08T13:24:51Z</time>
      </trkpt>
      <trkpt lat="47.7854" lon="-3.52939">
        <ele>3.83</ele>
        <time>2020-07-08T13:24:52Z</time>
      </trkpt>
      <trkpt lat="47.78537" lon="-3.52944">
        <ele>3.32</ele>
        <time>2020-07-08T13:24:53Z</time>
      </trkpt>
      <trkpt lat="47.78534" lon="-3.52949">
        <ele>2.92</ele>
        <time>2020-07-08T13:24:54Z</time>
      </trkpt>
      <trkpt lat="47.78531" lon="-3.52954">
        <ele>2.59</ele>
        <time>2020-07-08T13:24:55Z</time>
      </trkpt>
      <trkpt lat="47.78527" lon="-3.52959">
        <ele>2.26</ele>
        <time>2020-07-08T13:24:56Z</time>
      </trkpt>
      <trkpt lat="47.78524" lon="-3.52965">
        <ele>2.41</ele>
        <time>2020-07-08T13:24:57Z</time>
      </trkpt>
      <trkpt lat="47.78521" lon="-3.52969">
        <ele>2.56</ele>
        <time>2020-07-08T13:24:58Z</time>
      </trkpt>
      <trkpt lat="47.78517" lon="-3.52973">
        <ele>2.6</ele>
        <time>2020-07-08T13:24:59Z</time>
      </trkpt>
      <trkpt lat="47.78514" lon="-3.52977">
        <ele>2.75</ele>
        <time>2020-07-08T13:25:00Z</time>
      </trkpt>
      <trkpt lat="47.7851" lon="-3.52981">
        <ele>2.76</ele>
        <time>2020-07-08T13:25:01Z</time>
      </trkpt>
      <trkpt lat="47.78507" lon="-3.52984">
        <ele>2.75</ele>
        <time>2020-07-08T13:25:02Z</time>
      </trkpt>
      <trkpt lat="47.78504" lon="-3.52989">
        <ele>2.66</ele>
        <time>2020-07-08T13:25:03Z</time>
      </trkpt>
      <trkpt lat="47.78501" lon="-3.52994">
        <ele>2.61</ele>
        <time>2020-07-08T13:25:04Z</time>
      </trkpt>
      <trkpt lat="47.78499" lon="-3.52998">
        <ele>2.64</ele>
        <time>2020-07-08T13:25:05Z</time>
      </trkpt>
      <trkpt lat="47.78496" lon="-3.53004">
        <ele>2.89</ele>
        <time>2020-07-08T13:25:06Z</time>
      </trkpt>
      <trkpt lat="47.78493" lon="-3.53008">
        <ele>3.06</ele>
        <time>2020-07-08T13:25:07Z</time>
      </trkpt>
      <trkpt lat="47.78489" lon="-3.5301">
        <ele>2.91</ele>
        <time>2020-07-08T13:25:08Z</time>
      </trkpt>
      <trkpt lat="47.78486" lon="-3.53014">
        <ele>2.76</ele>
        <time>2020-07-08T13:25:09Z</time>
      </trkpt>
      <trkpt lat="47.78481" lon="-3.53018">
        <ele>2.45</ele>
        <time>2020-07-08T13:25:10Z</time>
      </trkpt>
      <trkpt lat="47.78478" lon="-3.53023">
        <ele>2.17</ele>
        <time>2020-07-08T13:25:11Z</time>
      </trkpt>
      <trkpt lat="47.78475" lon="-3.53029">
        <ele>2.03</ele>
        <time>2020-07-08T13:25:12Z</time>
      </trkpt>
      <trkpt lat="47.78472" lon="-3.53035">
        <ele>2.11</ele>
        <time>2020-07-08T13:25:13Z</time>
      </trkpt>
      <trkpt lat="47.78471" lon="-3.53041">
        <ele>2.53</ele>
        <time>2020-07-08T13:25:14Z</time>
      </trkpt>
      <trkpt lat="47.7847" lon="-3.53045">
        <ele>2.96</ele>
        <time>2020-07-08T13:25:15Z</time>
      </trkpt>
      <trkpt lat="47.78469" lon="-3.53049">
        <ele>3.26</ele>
        <time>2020-07-08T13:25:16Z</time>
      </trkpt>
      <trkpt lat="47.78468" lon="-3.53052">
        <ele>3.47</ele>
        <time>2020-07-08T13:25:17Z</time>
      </trkpt>
      <trkpt lat="47.78466" lon="-3.53054">
        <ele>3.55</ele>
        <time>2020-07-08T13:25:18Z</time>
      </trkpt>
      <trkpt lat="47.78466" lon="-3.53057">
        <ele>3.75</ele>
        <time>2020-07-08T13:25:19Z</time>
      </trkpt>
      <trkpt lat="47.78465" lon="-3.5306">
        <ele>3.92</ele>
        <time>2020-07-08T13:25:20Z</time>
      </trkpt>
      <trkpt lat="47.78464" lon="-3.53063">
        <ele>4.05</ele>
        <time>2020-07-08T13:25:21Z</time>
      </trkpt>
      <trkpt lat="47.78463" lon="-3.53065">
        <ele>4.14</ele>
        <time>2020-07-08T13:25:22Z</time>
      </trkpt>
      <trkpt lat="47.78461" lon="-3.53067">
        <ele>4.15</ele>
        <time>2020-07-08T13:25:23Z</time>
      </trkpt>
      <trkpt lat="47.7846" lon="-3.5307">
        <ele>4.26</ele>
        <time>2020-07-08T13:25:24Z</time>
      </trkpt>
      <trkpt lat="47.78459" lon="-3.53074">
        <ele>4.4</ele>
        <time>2020-07-08T13:25:25Z</time>
      </trkpt>
      <trkpt lat="47.78457" lon="-3.53077">
        <ele>4.33</ele>
        <time>2020-07-08T13:25:26Z</time>
      </trkpt>
      <trkpt lat="47.78455" lon="-3.53079">
        <ele>4.18</ele>
        <time>2020-07-08T13:25:27Z</time>
      </trkpt>
      <trkpt lat="47.78453" lon="-3.53083">
        <ele>4.12</ele>
        <time>2020-07-08T13:25:28Z</time>
      </trkpt>
      <trkpt lat="47.78451" lon="-3.53086">
        <ele>4.1</ele>
        <time>2020-07-08T13:25:29Z</time>
      </trkpt>
      <trkpt lat="47.78449" lon="-3.53089">
        <ele>3.93</ele>
        <time>2020-07-08T13:25:30Z</time>
      </trkpt>
      <trkpt lat="47.78447" lon="-3.53092">
        <ele>3.76</ele>
        <time>2020-07-08T13:25:31Z</time>
      </trkpt>
      <trkpt lat="47.78446" lon="-3.53094">
        <ele>3.61</ele>
        <time>2020-07-08T13:25:32Z</time>
      </trkpt>
      <trkpt lat="47.78444" lon="-3.53097">
        <ele>3.53</ele>
        <time>2020-07-08T13:25:33Z</time>
      </trkpt>
      <trkpt lat="47.78443" lon="-3.531">
        <ele>3.57</ele>
        <time>2020-07-08T13:25:34Z</time>
      </trkpt>
      <trkpt lat="47.78441" lon="-3.53103">
        <ele>3.62</ele>
        <time>2020-07-08T13:25:35Z</time>
      </trkpt>
      <trkpt lat="47.7844" lon="-3.53107">
        <ele>3.74</ele>
        <time>2020-07-08T13:25:36Z</time>
      </trkpt>
      <trkpt lat="47.78438" lon="-3.53112">
        <ele>3.9</ele>
        <time>2020-07-08T13:25:37Z</time>
      </trkpt>
      <trkpt lat="47.78436" lon="-3.53115">
        <ele>4.29</ele>
        <time>2020-07-08T13:25:38Z</time>
      </trkpt>
      <trkpt lat="47.78435" lon="-3.53119">
        <ele>4.77</ele>
        <time>2020-07-08T13:25:39Z</time>
      </trkpt>
      <trkpt lat="47.78433" lon="-3.53122">
        <ele>5.09</ele>
        <time>2020-07-08T13:25:40Z</time>
      </trkpt>
      <trkpt lat="47.7843" lon="-3.53125">
        <ele>5.18</ele>
        <time>2020-07-08T13:25:41Z</time>
      </trkpt>
      <trkpt lat="47.78427" lon="-3.53128">
        <ele>4.93</ele>
        <time>2020-07-08T13:25:42Z</time>
      </trkpt>
      <trkpt lat="47.78423" lon="-3.53131">
        <ele>4.33</ele>
        <time>2020-07-08T13:25:43Z</time>
      </trkpt>
      <trkpt lat="47.78419" lon="-3.53134">
        <ele>3.52</ele>
        <time>2020-07-08T13:25:44Z</time>
      </trkpt>
      <trkpt lat="47.78415" lon="-3.53138">
        <ele>2.92</ele>
        <time>2020-07-08T13:25:45Z</time>
      </trkpt>
      <trkpt lat="47.7841" lon="-3.53142">
        <ele>3.13</ele>
        <time>2020-07-08T13:25:46Z</time>
      </trkpt>
      <trkpt lat="47.78406" lon="-3.53146">
        <ele>3.43</ele>
        <time>2020-07-08T13:25:47Z</time>
      </trkpt>
      <trkpt lat="47.78402" lon="-3.5315">
        <ele>3.8</ele>
        <time>2020-07-08T13:25:48Z</time>
      </trkpt>
      <trkpt lat="47.78397" lon="-3.53152">
        <ele>3.75</ele>
        <time>2020-07-08T13:25:49Z</time>
      </trkpt>
      <trkpt lat="47.78392" lon="-3.53155">
        <ele>3.55</ele>
        <time>2020-07-08T13:25:50Z</time>
      </trkpt>
      <trkpt lat="47.78388" lon="-3.53159">
        <ele>3.49</ele>
        <time>2020-07-08T13:25:51Z</time>
      </trkpt>
      <trkpt lat="47.78383" lon="-3.53161">
        <ele>3.38</ele>
        <time>2020-07-08T13:25:52Z</time>
      </trkpt>
      <trkpt lat="47.78379" lon="-3.53164">
        <ele>3.32</ele>
        <time>2020-07-08T13:25:53Z</time>
      </trkpt>
      <trkpt lat="47.78375" lon="-3.53168">
        <ele>3.34</ele>
        <time>2020-07-08T13:25:54Z</time>
      </trkpt>
      <trkpt lat="47.78373" lon="-3.53172">
        <ele>3.59</ele>
        <time>2020-07-08T13:25:55Z</time>
      </trkpt>
      <trkpt lat="47.7837" lon="-3.53177">
        <ele>3.9</ele>
        <time>2020-07-08T13:25:56Z</time>
      </trkpt>
      <trkpt lat="47.78368" lon="-3.53181">
        <ele>4.12</ele>
        <time>2020-07-08T13:25:57Z</time>
      </trkpt>
      <trkpt lat="47.78366" lon="-3.53185">
        <ele>4.3</ele>
        <time>2020-07-08T13:25:58Z</time>
      </trkpt>
      <trkpt lat="47.78365" lon="-3.5319">
        <ele>4.58</ele>
        <time>2020-07-08T13:25:59Z</time>
      </trkpt>
      <trkpt lat="47.78364" lon="-3.53194">
        <ele>4.74</ele>
        <time>2020-07-08T13:26:00Z</time>
      </trkpt>
      <trkpt lat="47.78363" lon="-3.53199">
        <ele>4.87</ele>
        <time>2020-07-08T13:26:01Z</time>
      </trkpt>
      <trkpt lat="47.78362" lon="-3.53203">
        <ele>5.02</ele>
        <time>2020-07-08T13:26:02Z</time>
      </trkpt>
      <trkpt lat="47.78361" lon="-3.53207">
        <ele>5.25</ele>
        <time>2020-07-08T13:26:03Z</time>
      </trkpt>
      <trkpt lat="47.7836" lon="-3.5321">
        <ele>5.45</ele>
        <time>2020-07-08T13:26:04Z</time>
      </trkpt>
      <trkpt lat="47.7836" lon="-3.53213">
        <ele>5.66</ele>
        <time>2020-07-08T13:26:05Z</time>
      </trkpt>
      <trkpt lat="47.78359" lon="-3.53216">
        <ele>5.87</ele>
        <time>2020-07-08T13:26:06Z</time>
      </trkpt>
      <trkpt lat="47.78358" lon="-3.53219">
        <ele>6.03</ele>
        <time>2020-07-08T13:26:07Z</time>
      </trkpt>
      <trkpt lat="47.78357" lon="-3.53221">
        <ele>6.05</ele>
        <time>2020-07-08T13:26:08Z</time>
      </trkpt>
      <trkpt lat="47.78356" lon="-3.53224">
        <ele>6.15</ele>
        <time>2020-07-08T13:26:09Z</time>
      </trkpt>
      <trkpt lat="47.78356" lon="-3.53227">
        <ele>6.18</ele>
        <time>2020-07-08T13:26:10Z</time>
      </trkpt>
      <trkpt lat="47.78354" lon="-3.53228">
        <ele>6.14</ele>
        <time>2020-07-08T13:26:11Z</time>
      </trkpt>
      <trkpt lat="47.78353" lon="-3.53229">
        <ele>6.03</ele>
        <time>2020-07-08T13:26:12Z</time>
      </trkpt>
      <trkpt lat="47.78352" lon="-3.5323">
        <ele>5.88</ele>
        <time>2020-07-08T13:26:13Z</time>
      </trkpt>
      <trkpt lat="47.78351" lon="-3.53231">
        <ele>5.87</ele>
        <time>2020-07-08T13:26:14Z</time>
      </trkpt>
      <trkpt lat="47.78351" lon="-3.53231">
        <ele>5.88</ele>
        <time>2020-07-08T13:26:15Z</time>
      </trkpt>
      <trkpt lat="47.78352" lon="-3.53231">
        <ele>5.9</ele>
        <time>2020-07-08T13:26:16Z</time>
      </trkpt>
      <trkpt lat="47.78352" lon="-3.53231">
        <ele>5.91</ele>
        <time>2020-07-08T13:26:17Z</time>
      </trkpt>
      <trkpt lat="47.78352" lon="-3.53231">
        <ele>5.91</ele>
        <time>2020-07-08T13:26:18Z</time>
      </trkpt>
      <trkpt lat="47.78352" lon="-3.53231">
        <ele>5.91</ele>
        <time>2020-07-08T13:26:19Z</time>
      </trkpt>
      <trkpt lat="47.78352" lon="-3.53231">
        <ele>5.91</ele>
        <time>2020-07-08T13:26:20Z</time>
      </trkpt>
      <trkpt lat="47.78352" lon="-3.53231">
        <ele>5.91</ele>
        <time>2020-07-08T13:26:21Z</time>
      </trkpt>
      <trkpt lat="47.78352" lon="-3.53231">
        <ele>5.91</ele>
        <time>2020-07-08T13:26:22Z</time>
      </trkpt>
      <trkpt lat="47.78352" lon="-3.53231">
        <ele>5.91</ele>
        <time>2020-07-08T13:26:23Z</time>
      </trkpt>
      <trkpt lat="47.78352" lon="-3.53231">
        <ele>5.91</ele>
        <time>2020-07-08T13:26:24Z</time>
      </trkpt>
      <trkpt lat="47.78352" lon="-3.53231">
        <ele>5.91</ele>
        <time>2020-07-08T13:26:25Z</time>
      </trkpt>
      <trkpt lat="47.78352" lon="-3.53231">
        <ele>5.91</ele>
        <time>2020-07-08T13:26:26Z</time>
      </trkpt>
      <trkpt lat="47.78352" lon="-3.53231">
        <ele>5.91</ele>
        <time>2020-07-08T13:26:27Z</time>
      </trkpt>
      <trkpt lat="47.78352" lon="-3.53231">
        <ele>5.91</ele>
        <time>2020-07-08T13:26:28Z</time>
      </trkpt>
      <trkpt lat="47.78352" lon="-3.53231">
        <ele>5.91</ele>
        <time>2020-07-08T13:26:29Z</time>
      </trkpt>
      <trkpt lat="47.78352" lon="-3.53231">
        <ele>5.91</ele>
        <time>2020-07-08T13:26:30Z</time>
      </trkpt>
      <trkpt lat="47.78352" lon="-3.53231">
        <ele>5.91</ele>
        <time>2020-07-08T13:26:31Z</time>
      </trkpt>
      <trkpt lat="47.78352" lon="-3.53231">
        <ele>5.91</ele>
        <time>2020-07-08T13:26:32Z</time>
      </trkpt>
      <trkpt lat="47.78352" lon="-3.53231">
        <ele>5.91</ele>
        <time>2020-07-08T13:26:33Z</time>
      </trkpt>
      <trkpt lat="47.78352" lon="-3.53231">
        <ele>5.91</ele>
        <time>2020-07-08T13:26:34Z</time>
      </trkpt>
      <trkpt lat="47.78352" lon="-3.53231">
        <ele>5.91</ele>
        <time>2020-07-08T13:26:35Z</time>
      </trkpt>
      <trkpt lat="47.78347" lon="-3.53242">
        <ele>6.3</ele>
        <time>2020-07-08T13:26:36Z</time>
      </trkpt>
      <trkpt lat="47.78347" lon="-3.53245">
        <ele>6.63</ele>
        <time>2020-07-08T13:26:37Z</time>
      </trkpt>
      <trkpt lat="47.78347" lon="-3.53247">
        <ele>7</ele>
        <time>2020-07-08T13:26:38Z</time>
      </trkpt>
      <trkpt lat="47.78348" lon="-3.5325">
        <ele>7.48</ele>
        <time>2020-07-08T13:26:39Z</time>
      </trkpt>
      <trkpt lat="47.78349" lon="-3.53254">
        <ele>7.95</ele>
        <time>2020-07-08T13:26:40Z</time>
      </trkpt>
      <trkpt lat="47.7835" lon="-3.53258">
        <ele>8.54</ele>
        <time>2020-07-08T13:26:41Z</time>
      </trkpt>
      <trkpt lat="47.78351" lon="-3.53261">
        <ele>8.99</ele>
        <time>2020-07-08T13:26:42Z</time>
      </trkpt>
      <trkpt lat="47.78351" lon="-3.53264">
        <ele>9.38</ele>
        <time>2020-07-08T13:26:43Z</time>
      </trkpt>
      <trkpt lat="47.78352" lon="-3.53267">
        <ele>9.69</ele>
        <time>2020-07-08T13:26:44Z</time>
      </trkpt>
      <trkpt lat="47.78352" lon="-3.5327">
        <ele>10</ele>
        <time>2020-07-08T13:26:45Z</time>
      </trkpt>
      <trkpt lat="47.78352" lon="-3.53273">
        <ele>10.31</ele>
        <time>2020-07-08T13:26:46Z</time>
      </trkpt>
      <trkpt lat="47.78353" lon="-3.53276">
        <ele>10.61</ele>
        <time>2020-07-08T13:26:47Z</time>
      </trkpt>
      <trkpt lat="47.78354" lon="-3.53279">
        <ele>10.9</ele>
        <time>2020-07-08T13:26:48Z</time>
      </trkpt>
      <trkpt lat="47.78355" lon="-3.53282">
        <ele>11.17</ele>
        <time>2020-07-08T13:26:49Z</time>
      </trkpt>
      <trkpt lat="47.78356" lon="-3.53285">
        <ele>11.47</ele>
        <time>2020-07-08T13:26:50Z</time>
      </trkpt>
      <trkpt lat="47.78356" lon="-3.53288">
        <ele>11.81</ele>
        <time>2020-07-08T13:26:51Z</time>
      </trkpt>
      <trkpt lat="47.78356" lon="-3.53292">
        <ele>12.24</ele>
        <time>2020-07-08T13:26:52Z</time>
      </trkpt>
      <trkpt lat="47.78356" lon="-3.53294">
        <ele>12.65</ele>
        <time>2020-07-08T13:26:53Z</time>
      </trkpt>
      <trkpt lat="47.78357" lon="-3.53296">
        <ele>12.89</ele>
        <time>2020-07-08T13:26:54Z</time>
      </trkpt>
      <trkpt lat="47.78357" lon="-3.53298">
        <ele>13.04</ele>
        <time>2020-07-08T13:26:55Z</time>
      </trkpt>
      <trkpt lat="47.78358" lon="-3.533">
        <ele>13.08</ele>
        <time>2020-07-08T13:26:56Z</time>
      </trkpt>
      <trkpt lat="47.78359" lon="-3.53302">
        <ele>13.11</ele>
        <time>2020-07-08T13:26:57Z</time>
      </trkpt>
      <trkpt lat="47.7836" lon="-3.53304">
        <ele>13.12</ele>
        <time>2020-07-08T13:26:58Z</time>
      </trkpt>
      <trkpt lat="47.7836" lon="-3.53308">
        <ele>13.71</ele>
        <time>2020-07-08T13:26:59Z</time>
      </trkpt>
      <trkpt lat="47.78359" lon="-3.53311">
        <ele>14.63</ele>
        <time>2020-07-08T13:27:00Z</time>
      </trkpt>
      <trkpt lat="47.78359" lon="-3.53313">
        <ele>15.48</ele>
        <time>2020-07-08T13:27:01Z</time>
      </trkpt>
      <trkpt lat="47.78359" lon="-3.53316">
        <ele>16.2</ele>
        <time>2020-07-08T13:27:02Z</time>
      </trkpt>
      <trkpt lat="47.7836" lon="-3.53319">
        <ele>16.8</ele>
        <time>2020-07-08T13:27:03Z</time>
      </trkpt>
      <trkpt lat="47.7836" lon="-3.53321">
        <ele>17.34</ele>
        <time>2020-07-08T13:27:04Z</time>
      </trkpt>
      <trkpt lat="47.7836" lon="-3.53324">
        <ele>18.07</ele>
        <time>2020-07-08T13:27:05Z</time>
      </trkpt>
      <trkpt lat="47.78361" lon="-3.53327">
        <ele>18.82</ele>
        <time>2020-07-08T13:27:06Z</time>
      </trkpt>
      <trkpt lat="47.78362" lon="-3.53329">
        <ele>19.52</ele>
        <time>2020-07-08T13:27:07Z</time>
      </trkpt>
      <trkpt lat="47.78363" lon="-3.53331">
        <ele>20.19</ele>
        <time>2020-07-08T13:27:08Z</time>
      </trkpt>
      <trkpt lat="47.78363" lon="-3.53334">
        <ele>20.82</ele>
        <time>2020-07-08T13:27:09Z</time>
      </trkpt>
      <trkpt lat="47.78364" lon="-3.53336">
        <ele>21.2</ele>
        <time>2020-07-08T13:27:10Z</time>
      </trkpt>
      <trkpt lat="47.78364" lon="-3.53338">
        <ele>21.4</ele>
        <time>2020-07-08T13:27:11Z</time>
      </trkpt>
      <trkpt lat="47.78365" lon="-3.5334">
        <ele>21.61</ele>
        <time>2020-07-08T13:27:12Z</time>
      </trkpt>
      <trkpt lat="47.78366" lon="-3.53343">
        <ele>21.82</ele>
        <time>2020-07-08T13:27:13Z</time>
      </trkpt>
      <trkpt lat="47.78367" lon="-3.53346">
        <ele>22.02</ele>
        <time>2020-07-08T13:27:14Z</time>
      </trkpt>
      <trkpt lat="47.78368" lon="-3.53349">
        <ele>22.19</ele>
        <time>2020-07-08T13:27:15Z</time>
      </trkpt>
      <trkpt lat="47.78368" lon="-3.53352">
        <ele>22.36</ele>
        <time>2020-07-08T13:27:16Z</time>
      </trkpt>
      <trkpt lat="47.78368" lon="-3.53354">
        <ele>22.49</ele>
        <time>2020-07-08T13:27:17Z</time>
      </trkpt>
      <trkpt lat="47.78369" lon="-3.53356">
        <ele>22.57</ele>
        <time>2020-07-08T13:27:18Z</time>
      </trkpt>
      <trkpt lat="47.78369" lon="-3.53359">
        <ele>22.66</ele>
        <time>2020-07-08T13:27:19Z</time>
      </trkpt>
      <trkpt lat="47.7837" lon="-3.53361">
        <ele>22.64</ele>
        <time>2020-07-08T13:27:20Z</time>
      </trkpt>
      <trkpt lat="47.78372" lon="-3.53363">
        <ele>22.51</ele>
        <time>2020-07-08T13:27:21Z</time>
      </trkpt>
      <trkpt lat="47.78373" lon="-3.53366">
        <ele>22.39</ele>
        <time>2020-07-08T13:27:22Z</time>
      </trkpt>
      <trkpt lat="47.78375" lon="-3.53369">
        <ele>22.23</ele>
        <time>2020-07-08T13:27:23Z</time>
      </trkpt>
      <trkpt lat="47.78377" lon="-3.53372">
        <ele>21.99</ele>
        <time>2020-07-08T13:27:24Z</time>
      </trkpt>
      <trkpt lat="47.78379" lon="-3.53376">
        <ele>21.71</ele>
        <time>2020-07-08T13:27:25Z</time>
      </trkpt>
      <trkpt lat="47.7838" lon="-3.53379">
        <ele>21.5</ele>
        <time>2020-07-08T13:27:26Z</time>
      </trkpt>
      <trkpt lat="47.78382" lon="-3.53383">
        <ele>21.3</ele>
        <time>2020-07-08T13:27:27Z</time>
      </trkpt>
      <trkpt lat="47.78382" lon="-3.53386">
        <ele>21.22</ele>
        <time>2020-07-08T13:27:28Z</time>
      </trkpt>
      <trkpt lat="47.78384" lon="-3.53389">
        <ele>21</ele>
        <time>2020-07-08T13:27:29Z</time>
      </trkpt>
      <trkpt lat="47.78386" lon="-3.53393">
        <ele>20.86</ele>
        <time>2020-07-08T13:27:30Z</time>
      </trkpt>
      <trkpt lat="47.78387" lon="-3.53396">
        <ele>20.81</ele>
        <time>2020-07-08T13:27:31Z</time>
      </trkpt>
      <trkpt lat="47.78389" lon="-3.534">
        <ele>20.83</ele>
        <time>2020-07-08T13:27:32Z</time>
      </trkpt>
      <trkpt lat="47.78388" lon="-3.53403">
        <ele>21.02</ele>
        <time>2020-07-08T13:27:33Z</time>
      </trkpt>
      <trkpt lat="47.78388" lon="-3.53406">
        <ele>21.26</ele>
        <time>2020-07-08T13:27:34Z</time>
      </trkpt>
      <trkpt lat="47.78389" lon="-3.53409">
        <ele>21.38</ele>
        <time>2020-07-08T13:27:35Z</time>
      </trkpt>
      <trkpt lat="47.7839" lon="-3.53412">
        <ele>21.57</ele>
        <time>2020-07-08T13:27:36Z</time>
      </trkpt>
      <trkpt lat="47.7839" lon="-3.53414">
        <ele>21.76</ele>
        <time>2020-07-08T13:27:37Z</time>
      </trkpt>
      <trkpt lat="47.78391" lon="-3.53417">
        <ele>21.95</ele>
        <time>2020-07-08T13:27:38Z</time>
      </trkpt>
      <trkpt lat="47.78392" lon="-3.5342">
        <ele>22.09</ele>
        <time>2020-07-08T13:27:39Z</time>
      </trkpt>
      <trkpt lat="47.78394" lon="-3.53424">
        <ele>22.27</ele>
        <time>2020-07-08T13:27:40Z</time>
      </trkpt>
      <trkpt lat="47.78395" lon="-3.53427">
        <ele>22.44</ele>
        <time>2020-07-08T13:27:41Z</time>
      </trkpt>
      <trkpt lat="47.78394" lon="-3.53431">
        <ele>22.61</ele>
        <time>2020-07-08T13:27:42Z</time>
      </trkpt>
      <trkpt lat="47.78394" lon="-3.53434">
        <ele>22.78</ele>
        <time>2020-07-08T13:27:43Z</time>
      </trkpt>
      <trkpt lat="47.78394" lon="-3.53437">
        <ele>22.95</ele>
        <time>2020-07-08T13:27:44Z</time>
      </trkpt>
      <trkpt lat="47.78395" lon="-3.5344">
        <ele>23.16</ele>
        <time>2020-07-08T13:27:45Z</time>
      </trkpt>
      <trkpt lat="47.78397" lon="-3.53444">
        <ele>23.42</ele>
        <time>2020-07-08T13:27:46Z</time>
      </trkpt>
      <trkpt lat="47.78397" lon="-3.53447">
        <ele>23.69</ele>
        <time>2020-07-08T13:27:47Z</time>
      </trkpt>
      <trkpt lat="47.78397" lon="-3.53451">
        <ele>23.97</ele>
        <time>2020-07-08T13:27:48Z</time>
      </trkpt>
      <trkpt lat="47.78397" lon="-3.53454">
        <ele>24.22</ele>
        <time>2020-07-08T13:27:49Z</time>
      </trkpt>
      <trkpt lat="47.78397" lon="-3.53458">
        <ele>24.46</ele>
        <time>2020-07-08T13:27:50Z</time>
      </trkpt>
      <trkpt lat="47.78397" lon="-3.53461">
        <ele>24.67</ele>
        <time>2020-07-08T13:27:51Z</time>
      </trkpt>
      <trkpt lat="47.78397" lon="-3.53463">
        <ele>24.86</ele>
        <time>2020-07-08T13:27:52Z</time>
      </trkpt>
      <trkpt lat="47.78397" lon="-3.53466">
        <ele>25.05</ele>
        <time>2020-07-08T13:27:53Z</time>
      </trkpt>
      <trkpt lat="47.78396" lon="-3.5347">
        <ele>25.25</ele>
        <time>2020-07-08T13:27:54Z</time>
      </trkpt>
      <trkpt lat="47.78396" lon="-3.53473">
        <ele>25.44</ele>
        <time>2020-07-08T13:27:55Z</time>
      </trkpt>
      <trkpt lat="47.78395" lon="-3.53476">
        <ele>25.57</ele>
        <time>2020-07-08T13:27:56Z</time>
      </trkpt>
      <trkpt lat="47.78395" lon="-3.53479">
        <ele>25.73</ele>
        <time>2020-07-08T13:27:57Z</time>
      </trkpt>
      <trkpt lat="47.78395" lon="-3.53482">
        <ele>25.88</ele>
        <time>2020-07-08T13:27:58Z</time>
      </trkpt>
      <trkpt lat="47.78395" lon="-3.53486">
        <ele>26.02</ele>
        <time>2020-07-08T13:27:59Z</time>
      </trkpt>
      <trkpt lat="47.78395" lon="-3.53489">
        <ele>26.18</ele>
        <time>2020-07-08T13:28:00Z</time>
      </trkpt>
      <trkpt lat="47.78394" lon="-3.53491">
        <ele>26.26</ele>
        <time>2020-07-08T13:28:01Z</time>
      </trkpt>
      <trkpt lat="47.78393" lon="-3.53495">
        <ele>26.36</ele>
        <time>2020-07-08T13:28:02Z</time>
      </trkpt>
      <trkpt lat="47.78393" lon="-3.53498">
        <ele>26.42</ele>
        <time>2020-07-08T13:28:03Z</time>
      </trkpt>
      <trkpt lat="47.78392" lon="-3.53501">
        <ele>26.49</ele>
        <time>2020-07-08T13:28:04Z</time>
      </trkpt>
      <trkpt lat="47.78391" lon="-3.53504">
        <ele>26.75</ele>
        <time>2020-07-08T13:28:05Z</time>
      </trkpt>
      <trkpt lat="47.7839" lon="-3.53507">
        <ele>27.07</ele>
        <time>2020-07-08T13:28:06Z</time>
      </trkpt>
      <trkpt lat="47.78389" lon="-3.5351">
        <ele>27.39</ele>
        <time>2020-07-08T13:28:07Z</time>
      </trkpt>
      <trkpt lat="47.78387" lon="-3.53513">
        <ele>27.71</ele>
        <time>2020-07-08T13:28:08Z</time>
      </trkpt>
      <trkpt lat="47.78387" lon="-3.53516">
        <ele>28.14</ele>
        <time>2020-07-08T13:28:09Z</time>
      </trkpt>
      <trkpt lat="47.78388" lon="-3.53518">
        <ele>28.43</ele>
        <time>2020-07-08T13:28:10Z</time>
      </trkpt>
      <trkpt lat="47.78389" lon="-3.5352">
        <ele>28.76</ele>
        <time>2020-07-08T13:28:11Z</time>
      </trkpt>
      <trkpt lat="47.78389" lon="-3.53523">
        <ele>29.11</ele>
        <time>2020-07-08T13:28:12Z</time>
      </trkpt>
      <trkpt lat="47.78389" lon="-3.53525">
        <ele>29.47</ele>
        <time>2020-07-08T13:28:13Z</time>
      </trkpt>
      <trkpt lat="47.78389" lon="-3.53528">
        <ele>29.8</ele>
        <time>2020-07-08T13:28:14Z</time>
      </trkpt>
      <trkpt lat="47.78388" lon="-3.5353">
        <ele>30.15</ele>
        <time>2020-07-08T13:28:15Z</time>
      </trkpt>
      <trkpt lat="47.78388" lon="-3.53533">
        <ele>30.53</ele>
        <time>2020-07-08T13:28:16Z</time>
      </trkpt>
      <trkpt lat="47.78388" lon="-3.53536">
        <ele>30.93</ele>
        <time>2020-07-08T13:28:17Z</time>
      </trkpt>
      <trkpt lat="47.78387" lon="-3.53538">
        <ele>31.3</ele>
        <time>2020-07-08T13:28:18Z</time>
      </trkpt>
      <trkpt lat="47.78386" lon="-3.53541">
        <ele>31.66</ele>
        <time>2020-07-08T13:28:19Z</time>
      </trkpt>
      <trkpt lat="47.78386" lon="-3.53544">
        <ele>32.01</ele>
        <time>2020-07-08T13:28:20Z</time>
      </trkpt>
      <trkpt lat="47.78386" lon="-3.53546">
        <ele>32.35</ele>
        <time>2020-07-08T13:28:21Z</time>
      </trkpt>
      <trkpt lat="47.78385" lon="-3.53549">
        <ele>32.71</ele>
        <time>2020-07-08T13:28:22Z</time>
      </trkpt>
      <trkpt lat="47.78385" lon="-3.53552">
        <ele>33.11</ele>
        <time>2020-07-08T13:28:23Z</time>
      </trkpt>
      <trkpt lat="47.78384" lon="-3.53554">
        <ele>33.48</ele>
        <time>2020-07-08T13:28:24Z</time>
      </trkpt>
      <trkpt lat="47.78383" lon="-3.53558">
        <ele>33.81</ele>
        <time>2020-07-08T13:28:25Z</time>
      </trkpt>
      <trkpt lat="47.78383" lon="-3.5356">
        <ele>34.04</ele>
        <time>2020-07-08T13:28:26Z</time>
      </trkpt>
      <trkpt lat="47.78383" lon="-3.53563">
        <ele>34.23</ele>
        <time>2020-07-08T13:28:27Z</time>
      </trkpt>
      <trkpt lat="47.78383" lon="-3.53566">
        <ele>34.43</ele>
        <time>2020-07-08T13:28:28Z</time>
      </trkpt>
      <trkpt lat="47.78382" lon="-3.53568">
        <ele>34.59</ele>
        <time>2020-07-08T13:28:29Z</time>
      </trkpt>
      <trkpt lat="47.78382" lon="-3.53571">
        <ele>34.78</ele>
        <time>2020-07-08T13:28:30Z</time>
      </trkpt>
      <trkpt lat="47.78382" lon="-3.53575">
        <ele>35.01</ele>
        <time>2020-07-08T13:28:31Z</time>
      </trkpt>
      <trkpt lat="47.78381" lon="-3.53578">
        <ele>35.23</ele>
        <time>2020-07-08T13:28:32Z</time>
      </trkpt>
      <trkpt lat="47.7838" lon="-3.53581">
        <ele>35.44</ele>
        <time>2020-07-08T13:28:33Z</time>
      </trkpt>
      <trkpt lat="47.78379" lon="-3.53585">
        <ele>35.65</ele>
        <time>2020-07-08T13:28:34Z</time>
      </trkpt>
      <trkpt lat="47.78379" lon="-3.53588">
        <ele>35.85</ele>
        <time>2020-07-08T13:28:35Z</time>
      </trkpt>
      <trkpt lat="47.78378" lon="-3.53591">
        <ele>36.08</ele>
        <time>2020-07-08T13:28:36Z</time>
      </trkpt>
      <trkpt lat="47.78377" lon="-3.53595">
        <ele>36.31</ele>
        <time>2020-07-08T13:28:37Z</time>
      </trkpt>
      <trkpt lat="47.78376" lon="-3.53599">
        <ele>36.56</ele>
        <time>2020-07-08T13:28:38Z</time>
      </trkpt>
      <trkpt lat="47.78375" lon="-3.53602">
        <ele>36.79</ele>
        <time>2020-07-08T13:28:39Z</time>
      </trkpt>
      <trkpt lat="47.78374" lon="-3.53607">
        <ele>37.02</ele>
        <time>2020-07-08T13:28:40Z</time>
      </trkpt>
      <trkpt lat="47.78372" lon="-3.5361">
        <ele>37.23</ele>
        <time>2020-07-08T13:28:41Z</time>
      </trkpt>
      <trkpt lat="47.78371" lon="-3.53614">
        <ele>37.39</ele>
        <time>2020-07-08T13:28:42Z</time>
      </trkpt>
      <trkpt lat="47.7837" lon="-3.53617">
        <ele>37.48</ele>
        <time>2020-07-08T13:28:43Z</time>
      </trkpt>
      <trkpt lat="47.78369" lon="-3.53621">
        <ele>37.57</ele>
        <time>2020-07-08T13:28:44Z</time>
      </trkpt>
      <trkpt lat="47.78367" lon="-3.53624">
        <ele>37.67</ele>
        <time>2020-07-08T13:28:45Z</time>
      </trkpt>
      <trkpt lat="47.78366" lon="-3.53628">
        <ele>37.76</ele>
        <time>2020-07-08T13:28:46Z</time>
      </trkpt>
      <trkpt lat="47.78365" lon="-3.53632">
        <ele>37.87</ele>
        <time>2020-07-08T13:28:47Z</time>
      </trkpt>
      <trkpt lat="47.78364" lon="-3.53636">
        <ele>37.97</ele>
        <time>2020-07-08T13:28:48Z</time>
      </trkpt>
      <trkpt lat="47.78364" lon="-3.5364">
        <ele>38.12</ele>
        <time>2020-07-08T13:28:49Z</time>
      </trkpt>
      <trkpt lat="47.78363" lon="-3.53644">
        <ele>38.32</ele>
        <time>2020-07-08T13:28:50Z</time>
      </trkpt>
      <trkpt lat="47.78361" lon="-3.53648">
        <ele>38.56</ele>
        <time>2020-07-08T13:28:51Z</time>
      </trkpt>
      <trkpt lat="47.7836" lon="-3.53652">
        <ele>38.84</ele>
        <time>2020-07-08T13:28:52Z</time>
      </trkpt>
      <trkpt lat="47.78359" lon="-3.53656">
        <ele>39.13</ele>
        <time>2020-07-08T13:28:53Z</time>
      </trkpt>
      <trkpt lat="47.78358" lon="-3.53661">
        <ele>39.44</ele>
        <time>2020-07-08T13:28:54Z</time>
      </trkpt>
      <trkpt lat="47.78357" lon="-3.53665">
        <ele>39.76</ele>
        <time>2020-07-08T13:28:55Z</time>
      </trkpt>
      <trkpt lat="47.78356" lon="-3.5367">
        <ele>40</ele>
        <time>2020-07-08T13:28:56Z</time>
      </trkpt>
      <trkpt lat="47.78355" lon="-3.53674">
        <ele>40.19</ele>
        <time>2020-07-08T13:28:57Z</time>
      </trkpt>
      <trkpt lat="47.78353" lon="-3.53678">
        <ele>40.35</ele>
        <time>2020-07-08T13:28:58Z</time>
      </trkpt>
      <trkpt lat="47.78352" lon="-3.53682">
        <ele>40.5</ele>
        <time>2020-07-08T13:28:59Z</time>
      </trkpt>
      <trkpt lat="47.78351" lon="-3.53686">
        <ele>40.64</ele>
        <time>2020-07-08T13:29:00Z</time>
      </trkpt>
      <trkpt lat="47.7835" lon="-3.5369">
        <ele>40.79</ele>
        <time>2020-07-08T13:29:01Z</time>
      </trkpt>
      <trkpt lat="47.78349" lon="-3.53695">
        <ele>40.94</ele>
        <time>2020-07-08T13:29:02Z</time>
      </trkpt>
      <trkpt lat="47.78348" lon="-3.53699">
        <ele>41.15</ele>
        <time>2020-07-08T13:29:03Z</time>
      </trkpt>
      <trkpt lat="47.78347" lon="-3.53703">
        <ele>41.36</ele>
        <time>2020-07-08T13:29:04Z</time>
      </trkpt>
      <trkpt lat="47.78346" lon="-3.53707">
        <ele>41.61</ele>
        <time>2020-07-08T13:29:05Z</time>
      </trkpt>
      <trkpt lat="47.78345" lon="-3.53712">
        <ele>41.88</ele>
        <time>2020-07-08T13:29:06Z</time>
      </trkpt>
      <trkpt lat="47.78344" lon="-3.53716">
        <ele>42.15</ele>
        <time>2020-07-08T13:29:07Z</time>
      </trkpt>
      <trkpt lat="47.78343" lon="-3.53721">
        <ele>42.43</ele>
        <time>2020-07-08T13:29:08Z</time>
      </trkpt>
      <trkpt lat="47.78343" lon="-3.53725">
        <ele>42.62</ele>
        <time>2020-07-08T13:29:09Z</time>
      </trkpt>
      <trkpt lat="47.78342" lon="-3.5373">
        <ele>42.73</ele>
        <time>2020-07-08T13:29:10Z</time>
      </trkpt>
      <trkpt lat="47.7834" lon="-3.53734">
        <ele>42.82</ele>
        <time>2020-07-08T13:29:11Z</time>
      </trkpt>
      <trkpt lat="47.78339" lon="-3.53739">
        <ele>42.89</ele>
        <time>2020-07-08T13:29:12Z</time>
      </trkpt>
      <trkpt lat="47.78339" lon="-3.53744">
        <ele>42.94</ele>
        <time>2020-07-08T13:29:13Z</time>
      </trkpt>
      <trkpt lat="47.78337" lon="-3.53748">
        <ele>42.97</ele>
        <time>2020-07-08T13:29:14Z</time>
      </trkpt>
      <trkpt lat="47.78336" lon="-3.53753">
        <ele>43.06</ele>
        <time>2020-07-08T13:29:15Z</time>
      </trkpt>
      <trkpt lat="47.78335" lon="-3.53758">
        <ele>43.19</ele>
        <time>2020-07-08T13:29:16Z</time>
      </trkpt>
      <trkpt lat="47.78334" lon="-3.53762">
        <ele>43.36</ele>
        <time>2020-07-08T13:29:17Z</time>
      </trkpt>
      <trkpt lat="47.78333" lon="-3.53767">
        <ele>43.55</ele>
        <time>2020-07-08T13:29:18Z</time>
      </trkpt>
      <trkpt lat="47.78332" lon="-3.53771">
        <ele>43.79</ele>
        <time>2020-07-08T13:29:19Z</time>
      </trkpt>
      <trkpt lat="47.7833" lon="-3.53776">
        <ele>44.05</ele>
        <time>2020-07-08T13:29:20Z</time>
      </trkpt>
      <trkpt lat="47.7833" lon="-3.53781">
        <ele>44.29</ele>
        <time>2020-07-08T13:29:21Z</time>
      </trkpt>
      <trkpt lat="47.78328" lon="-3.53786">
        <ele>44.51</ele>
        <time>2020-07-08T13:29:22Z</time>
      </trkpt>
      <trkpt lat="47.78327" lon="-3.53791">
        <ele>44.73</ele>
        <time>2020-07-08T13:29:23Z</time>
      </trkpt>
      <trkpt lat="47.78326" lon="-3.53796">
        <ele>44.93</ele>
        <time>2020-07-08T13:29:24Z</time>
      </trkpt>
      <trkpt lat="47.78324" lon="-3.53801">
        <ele>45.14</ele>
        <time>2020-07-08T13:29:25Z</time>
      </trkpt>
      <trkpt lat="47.78323" lon="-3.53806">
        <ele>45.3</ele>
        <time>2020-07-08T13:29:26Z</time>
      </trkpt>
      <trkpt lat="47.78322" lon="-3.53811">
        <ele>45.38</ele>
        <time>2020-07-08T13:29:27Z</time>
      </trkpt>
      <trkpt lat="47.7832" lon="-3.53815">
        <ele>45.44</ele>
        <time>2020-07-08T13:29:28Z</time>
      </trkpt>
      <trkpt lat="47.78319" lon="-3.53821">
        <ele>45.49</ele>
        <time>2020-07-08T13:29:29Z</time>
      </trkpt>
      <trkpt lat="47.78318" lon="-3.53826">
        <ele>45.52</ele>
        <time>2020-07-08T13:29:30Z</time>
      </trkpt>
      <trkpt lat="47.78317" lon="-3.53831">
        <ele>45.55</ele>
        <time>2020-07-08T13:29:31Z</time>
      </trkpt>
      <trkpt lat="47.78316" lon="-3.53837">
        <ele>45.59</ele>
        <time>2020-07-08T13:29:32Z</time>
      </trkpt>
      <trkpt lat="47.78315" lon="-3.53842">
        <ele>45.64</ele>
        <time>2020-07-08T13:29:33Z</time>
      </trkpt>
      <trkpt lat="47.78314" lon="-3.53847">
        <ele>45.68</ele>
        <time>2020-07-08T13:29:34Z</time>
      </trkpt>
      <trkpt lat="47.78312" lon="-3.53852">
        <ele>45.73</ele>
        <time>2020-07-08T13:29:35Z</time>
      </trkpt>
      <trkpt lat="47.78311" lon="-3.53857">
        <ele>45.78</ele>
        <time>2020-07-08T13:29:36Z</time>
      </trkpt>
      <trkpt lat="47.7831" lon="-3.53862">
        <ele>45.82</ele>
        <time>2020-07-08T13:29:37Z</time>
      </trkpt>
      <trkpt lat="47.78309" lon="-3.53868">
        <ele>45.86</ele>
        <time>2020-07-08T13:29:38Z</time>
      </trkpt>
      <trkpt lat="47.78308" lon="-3.53873">
        <ele>45.9</ele>
        <time>2020-07-08T13:29:39Z</time>
      </trkpt>
      <trkpt lat="47.78307" lon="-3.53879">
        <ele>45.94</ele>
        <time>2020-07-08T13:29:40Z</time>
      </trkpt>
      <trkpt lat="47.78305" lon="-3.53884">
        <ele>45.98</ele>
        <time>2020-07-08T13:29:41Z</time>
      </trkpt>
      <trkpt lat="47.78304" lon="-3.5389">
        <ele>45.97</ele>
        <time>2020-07-08T13:29:42Z</time>
      </trkpt>
      <trkpt lat="47.78303" lon="-3.53896">
        <ele>45.81</ele>
        <time>2020-07-08T13:29:43Z</time>
      </trkpt>
      <trkpt lat="47.78302" lon="-3.53903">
        <ele>45.59</ele>
        <time>2020-07-08T13:29:44Z</time>
      </trkpt>
      <trkpt lat="47.783" lon="-3.53909">
        <ele>45.37</ele>
        <time>2020-07-08T13:29:45Z</time>
      </trkpt>
      <trkpt lat="47.78299" lon="-3.53915">
        <ele>45.15</ele>
        <time>2020-07-08T13:29:46Z</time>
      </trkpt>
      <trkpt lat="47.78297" lon="-3.53922">
        <ele>45.04</ele>
        <time>2020-07-08T13:29:47Z</time>
      </trkpt>
      <trkpt lat="47.78296" lon="-3.53928">
        <ele>45.01</ele>
        <time>2020-07-08T13:29:48Z</time>
      </trkpt>
      <trkpt lat="47.78294" lon="-3.53934">
        <ele>45</ele>
        <time>2020-07-08T13:29:49Z</time>
      </trkpt>
      <trkpt lat="47.78293" lon="-3.5394">
        <ele>45</ele>
        <time>2020-07-08T13:29:50Z</time>
      </trkpt>
      <trkpt lat="47.78291" lon="-3.53946">
        <ele>44.96</ele>
        <time>2020-07-08T13:29:51Z</time>
      </trkpt>
      <trkpt lat="47.78289" lon="-3.53952">
        <ele>44.8</ele>
        <time>2020-07-08T13:29:52Z</time>
      </trkpt>
      <trkpt lat="47.78287" lon="-3.53958">
        <ele>44.59</ele>
        <time>2020-07-08T13:29:53Z</time>
      </trkpt>
      <trkpt lat="47.78285" lon="-3.53965">
        <ele>44.36</ele>
        <time>2020-07-08T13:29:54Z</time>
      </trkpt>
      <trkpt lat="47.78283" lon="-3.53972">
        <ele>44.13</ele>
        <time>2020-07-08T13:29:55Z</time>
      </trkpt>
      <trkpt lat="47.78281" lon="-3.53979">
        <ele>43.87</ele>
        <time>2020-07-08T13:29:56Z</time>
      </trkpt>
      <trkpt lat="47.78279" lon="-3.53986">
        <ele>43.61</ele>
        <time>2020-07-08T13:29:57Z</time>
      </trkpt>
      <trkpt lat="47.78277" lon="-3.53994">
        <ele>43.34</ele>
        <time>2020-07-08T13:29:58Z</time>
      </trkpt>
      <trkpt lat="47.78276" lon="-3.54002">
        <ele>43.05</ele>
        <time>2020-07-08T13:29:59Z</time>
      </trkpt>
      <trkpt lat="47.78274" lon="-3.5401">
        <ele>42.73</ele>
        <time>2020-07-08T13:30:00Z</time>
      </trkpt>
      <trkpt lat="47.78273" lon="-3.54019">
        <ele>42.36</ele>
        <time>2020-07-08T13:30:01Z</time>
      </trkpt>
      <trkpt lat="47.78271" lon="-3.54028">
        <ele>41.94</ele>
        <time>2020-07-08T13:30:02Z</time>
      </trkpt>
      <trkpt lat="47.78269" lon="-3.54036">
        <ele>41.54</ele>
        <time>2020-07-08T13:30:03Z</time>
      </trkpt>
      <trkpt lat="47.78267" lon="-3.54045">
        <ele>41.15</ele>
        <time>2020-07-08T13:30:04Z</time>
      </trkpt>
      <trkpt lat="47.78265" lon="-3.54054">
        <ele>40.77</ele>
        <time>2020-07-08T13:30:05Z</time>
      </trkpt>
      <trkpt lat="47.78264" lon="-3.54063">
        <ele>40.4</ele>
        <time>2020-07-08T13:30:06Z</time>
      </trkpt>
      <trkpt lat="47.78263" lon="-3.54071">
        <ele>40.05</ele>
        <time>2020-07-08T13:30:07Z</time>
      </trkpt>
      <trkpt lat="47.78262" lon="-3.5408">
        <ele>39.7</ele>
        <time>2020-07-08T13:30:08Z</time>
      </trkpt>
      <trkpt lat="47.78261" lon="-3.54089">
        <ele>39.41</ele>
        <time>2020-07-08T13:30:09Z</time>
      </trkpt>
      <trkpt lat="47.7826" lon="-3.54097">
        <ele>39.16</ele>
        <time>2020-07-08T13:30:10Z</time>
      </trkpt>
      <trkpt lat="47.78259" lon="-3.54104">
        <ele>38.91</ele>
        <time>2020-07-08T13:30:11Z</time>
      </trkpt>
      <trkpt lat="47.78258" lon="-3.54113">
        <ele>38.7</ele>
        <time>2020-07-08T13:30:12Z</time>
      </trkpt>
      <trkpt lat="47.78257" lon="-3.54121">
        <ele>38.75</ele>
        <time>2020-07-08T13:30:13Z</time>
      </trkpt>
      <trkpt lat="47.78256" lon="-3.54129">
        <ele>38.89</ele>
        <time>2020-07-08T13:30:14Z</time>
      </trkpt>
      <trkpt lat="47.78255" lon="-3.54137">
        <ele>39.07</ele>
        <time>2020-07-08T13:30:15Z</time>
      </trkpt>
      <trkpt lat="47.78254" lon="-3.54145">
        <ele>39.12</ele>
        <time>2020-07-08T13:30:16Z</time>
      </trkpt>
      <trkpt lat="47.78253" lon="-3.54153">
        <ele>39.12</ele>
        <time>2020-07-08T13:30:17Z</time>
      </trkpt>
      <trkpt lat="47.78252" lon="-3.54162">
        <ele>39.09</ele>
        <time>2020-07-08T13:30:18Z</time>
      </trkpt>
      <trkpt lat="47.78251" lon="-3.5417">
        <ele>39.12</ele>
        <time>2020-07-08T13:30:19Z</time>
      </trkpt>
      <trkpt lat="47.7825" lon="-3.54178">
        <ele>39.32</ele>
        <time>2020-07-08T13:30:20Z</time>
      </trkpt>
      <trkpt lat="47.78249" lon="-3.54186">
        <ele>39.59</ele>
        <time>2020-07-08T13:30:21Z</time>
      </trkpt>
      <trkpt lat="47.78248" lon="-3.54195">
        <ele>39.89</ele>
        <time>2020-07-08T13:30:22Z</time>
      </trkpt>
      <trkpt lat="47.78248" lon="-3.54203">
        <ele>40.19</ele>
        <time>2020-07-08T13:30:23Z</time>
      </trkpt>
      <trkpt lat="47.78247" lon="-3.54212">
        <ele>40.5</ele>
        <time>2020-07-08T13:30:24Z</time>
      </trkpt>
      <trkpt lat="47.78246" lon="-3.54221">
        <ele>40.81</ele>
        <time>2020-07-08T13:30:25Z</time>
      </trkpt>
      <trkpt lat="47.78245" lon="-3.54229">
        <ele>41.08</ele>
        <time>2020-07-08T13:30:26Z</time>
      </trkpt>
      <trkpt lat="47.78244" lon="-3.54237">
        <ele>41.32</ele>
        <time>2020-07-08T13:30:27Z</time>
      </trkpt>
      <trkpt lat="47.78242" lon="-3.54245">
        <ele>41.52</ele>
        <time>2020-07-08T13:30:28Z</time>
      </trkpt>
      <trkpt lat="47.78241" lon="-3.54253">
        <ele>41.65</ele>
        <time>2020-07-08T13:30:29Z</time>
      </trkpt>
      <trkpt lat="47.7824" lon="-3.54261">
        <ele>41.74</ele>
        <time>2020-07-08T13:30:30Z</time>
      </trkpt>
      <trkpt lat="47.78238" lon="-3.54268">
        <ele>41.82</ele>
        <time>2020-07-08T13:30:31Z</time>
      </trkpt>
      <trkpt lat="47.78237" lon="-3.54276">
        <ele>41.92</ele>
        <time>2020-07-08T13:30:32Z</time>
      </trkpt>
      <trkpt lat="47.78235" lon="-3.54283">
        <ele>42.04</ele>
        <time>2020-07-08T13:30:33Z</time>
      </trkpt>
      <trkpt lat="47.78233" lon="-3.54291">
        <ele>42.14</ele>
        <time>2020-07-08T13:30:34Z</time>
      </trkpt>
      <trkpt lat="47.78231" lon="-3.54299">
        <ele>42.2</ele>
        <time>2020-07-08T13:30:35Z</time>
      </trkpt>
      <trkpt lat="47.78229" lon="-3.54307">
        <ele>42.25</ele>
        <time>2020-07-08T13:30:36Z</time>
      </trkpt>
      <trkpt lat="47.78227" lon="-3.54314">
        <ele>42.41</ele>
        <time>2020-07-08T13:30:37Z</time>
      </trkpt>
      <trkpt lat="47.78225" lon="-3.54322">
        <ele>42.6</ele>
        <time>2020-07-08T13:30:38Z</time>
      </trkpt>
      <trkpt lat="47.78223" lon="-3.54329">
        <ele>42.8</ele>
        <time>2020-07-08T13:30:39Z</time>
      </trkpt>
      <trkpt lat="47.78222" lon="-3.54336">
        <ele>42.92</ele>
        <time>2020-07-08T13:30:40Z</time>
      </trkpt>
      <trkpt lat="47.78219" lon="-3.54344">
        <ele>42.91</ele>
        <time>2020-07-08T13:30:41Z</time>
      </trkpt>
      <trkpt lat="47.78218" lon="-3.54352">
        <ele>42.85</ele>
        <time>2020-07-08T13:30:42Z</time>
      </trkpt>
      <trkpt lat="47.78215" lon="-3.54359">
        <ele>42.79</ele>
        <time>2020-07-08T13:30:43Z</time>
      </trkpt>
      <trkpt lat="47.78213" lon="-3.54367">
        <ele>42.72</ele>
        <time>2020-07-08T13:30:44Z</time>
      </trkpt>
      <trkpt lat="47.78212" lon="-3.54374">
        <ele>42.64</ele>
        <time>2020-07-08T13:30:45Z</time>
      </trkpt>
      <trkpt lat="47.7821" lon="-3.54382">
        <ele>42.58</ele>
        <time>2020-07-08T13:30:46Z</time>
      </trkpt>
      <trkpt lat="47.78208" lon="-3.5439">
        <ele>42.51</ele>
        <time>2020-07-08T13:30:47Z</time>
      </trkpt>
      <trkpt lat="47.78206" lon="-3.54398">
        <ele>42.45</ele>
        <time>2020-07-08T13:30:48Z</time>
      </trkpt>
      <trkpt lat="47.78204" lon="-3.54405">
        <ele>42.38</ele>
        <time>2020-07-08T13:30:49Z</time>
      </trkpt>
      <trkpt lat="47.78202" lon="-3.54413">
        <ele>42.31</ele>
        <time>2020-07-08T13:30:50Z</time>
      </trkpt>
      <trkpt lat="47.782" lon="-3.54421">
        <ele>42.24</ele>
        <time>2020-07-08T13:30:51Z</time>
      </trkpt>
      <trkpt lat="47.78199" lon="-3.54428">
        <ele>42.18</ele>
        <time>2020-07-08T13:30:52Z</time>
      </trkpt>
      <trkpt lat="47.78197" lon="-3.54436">
        <ele>42.11</ele>
        <time>2020-07-08T13:30:53Z</time>
      </trkpt>
      <trkpt lat="47.78195" lon="-3.54443">
        <ele>42.04</ele>
        <time>2020-07-08T13:30:54Z</time>
      </trkpt>
      <trkpt lat="47.78193" lon="-3.5445">
        <ele>41.97</ele>
        <time>2020-07-08T13:30:55Z</time>
      </trkpt>
      <trkpt lat="47.7819" lon="-3.54457">
        <ele>41.89</ele>
        <time>2020-07-08T13:30:56Z</time>
      </trkpt>
      <trkpt lat="47.78189" lon="-3.54464">
        <ele>41.82</ele>
        <time>2020-07-08T13:30:57Z</time>
      </trkpt>
      <trkpt lat="47.78187" lon="-3.54471">
        <ele>41.75</ele>
        <time>2020-07-08T13:30:58Z</time>
      </trkpt>
      <trkpt lat="47.78185" lon="-3.54479">
        <ele>41.68</ele>
        <time>2020-07-08T13:30:59Z</time>
      </trkpt>
      <trkpt lat="47.78183" lon="-3.54486">
        <ele>41.61</ele>
        <time>2020-07-08T13:31:00Z</time>
      </trkpt>
      <trkpt lat="47.7818" lon="-3.54494">
        <ele>41.53</ele>
        <time>2020-07-08T13:31:01Z</time>
      </trkpt>
      <trkpt lat="47.78178" lon="-3.54502">
        <ele>41.43</ele>
        <time>2020-07-08T13:31:02Z</time>
      </trkpt>
      <trkpt lat="47.78176" lon="-3.5451">
        <ele>41.29</ele>
        <time>2020-07-08T13:31:03Z</time>
      </trkpt>
      <trkpt lat="47.78174" lon="-3.54517">
        <ele>41.16</ele>
        <time>2020-07-08T13:31:04Z</time>
      </trkpt>
      <trkpt lat="47.78173" lon="-3.54525">
        <ele>41.06</ele>
        <time>2020-07-08T13:31:05Z</time>
      </trkpt>
      <trkpt lat="47.7817" lon="-3.54534">
        <ele>41</ele>
        <time>2020-07-08T13:31:06Z</time>
      </trkpt>
      <trkpt lat="47.78169" lon="-3.54542">
        <ele>40.97</ele>
        <time>2020-07-08T13:31:07Z</time>
      </trkpt>
      <trkpt lat="47.78167" lon="-3.5455">
        <ele>40.99</ele>
        <time>2020-07-08T13:31:08Z</time>
      </trkpt>
      <trkpt lat="47.78165" lon="-3.54558">
        <ele>40.9</ele>
        <time>2020-07-08T13:31:09Z</time>
      </trkpt>
      <trkpt lat="47.78164" lon="-3.54566">
        <ele>40.67</ele>
        <time>2020-07-08T13:31:10Z</time>
      </trkpt>
      <trkpt lat="47.78162" lon="-3.54573">
        <ele>40.41</ele>
        <time>2020-07-08T13:31:11Z</time>
      </trkpt>
      <trkpt lat="47.7816" lon="-3.54581">
        <ele>40.16</ele>
        <time>2020-07-08T13:31:12Z</time>
      </trkpt>
      <trkpt lat="47.78158" lon="-3.54588">
        <ele>39.93</ele>
        <time>2020-07-08T13:31:13Z</time>
      </trkpt>
      <trkpt lat="47.78157" lon="-3.54594">
        <ele>39.71</ele>
        <time>2020-07-08T13:31:14Z</time>
      </trkpt>
      <trkpt lat="47.78156" lon="-3.54599">
        <ele>39.53</ele>
        <time>2020-07-08T13:31:15Z</time>
      </trkpt>
      <trkpt lat="47.78154" lon="-3.54604">
        <ele>39.34</ele>
        <time>2020-07-08T13:31:16Z</time>
      </trkpt>
      <trkpt lat="47.78153" lon="-3.5461">
        <ele>39.14</ele>
        <time>2020-07-08T13:31:17Z</time>
      </trkpt>
      <trkpt lat="47.78151" lon="-3.54616">
        <ele>38.99</ele>
        <time>2020-07-08T13:31:18Z</time>
      </trkpt>
      <trkpt lat="47.78149" lon="-3.54623">
        <ele>38.89</ele>
        <time>2020-07-08T13:31:19Z</time>
      </trkpt>
      <trkpt lat="47.78146" lon="-3.5463">
        <ele>38.83</ele>
        <time>2020-07-08T13:31:20Z</time>
      </trkpt>
      <trkpt lat="47.78144" lon="-3.54638">
        <ele>38.82</ele>
        <time>2020-07-08T13:31:21Z</time>
      </trkpt>
      <trkpt lat="47.78142" lon="-3.54646">
        <ele>38.69</ele>
        <time>2020-07-08T13:31:22Z</time>
      </trkpt>
      <trkpt lat="47.7814" lon="-3.54654">
        <ele>38.51</ele>
        <time>2020-07-08T13:31:23Z</time>
      </trkpt>
      <trkpt lat="47.78137" lon="-3.54661">
        <ele>38.29</ele>
        <time>2020-07-08T13:31:24Z</time>
      </trkpt>
      <trkpt lat="47.78136" lon="-3.54668">
        <ele>38.04</ele>
        <time>2020-07-08T13:31:25Z</time>
      </trkpt>
      <trkpt lat="47.78134" lon="-3.54676">
        <ele>37.78</ele>
        <time>2020-07-08T13:31:26Z</time>
      </trkpt>
      <trkpt lat="47.78132" lon="-3.54683">
        <ele>37.52</ele>
        <time>2020-07-08T13:31:27Z</time>
      </trkpt>
      <trkpt lat="47.7813" lon="-3.54691">
        <ele>37.25</ele>
        <time>2020-07-08T13:31:28Z</time>
      </trkpt>
      <trkpt lat="47.78128" lon="-3.54698">
        <ele>37.08</ele>
        <time>2020-07-08T13:31:29Z</time>
      </trkpt>
      <trkpt lat="47.78126" lon="-3.54706">
        <ele>37.02</ele>
        <time>2020-07-08T13:31:30Z</time>
      </trkpt>
      <trkpt lat="47.78124" lon="-3.54714">
        <ele>37.01</ele>
        <time>2020-07-08T13:31:31Z</time>
      </trkpt>
      <trkpt lat="47.78123" lon="-3.54722">
        <ele>37</ele>
        <time>2020-07-08T13:31:32Z</time>
      </trkpt>
      <trkpt lat="47.7812" lon="-3.54731">
        <ele>36.93</ele>
        <time>2020-07-08T13:31:33Z</time>
      </trkpt>
      <trkpt lat="47.78118" lon="-3.54739">
        <ele>36.87</ele>
        <time>2020-07-08T13:31:34Z</time>
      </trkpt>
      <trkpt lat="47.78116" lon="-3.54746">
        <ele>36.85</ele>
        <time>2020-07-08T13:31:35Z</time>
      </trkpt>
      <trkpt lat="47.78114" lon="-3.54754">
        <ele>36.78</ele>
        <time>2020-07-08T13:31:36Z</time>
      </trkpt>
      <trkpt lat="47.78112" lon="-3.54762">
        <ele>36.61</ele>
        <time>2020-07-08T13:31:37Z</time>
      </trkpt>
      <trkpt lat="47.7811" lon="-3.5477">
        <ele>36.36</ele>
        <time>2020-07-08T13:31:38Z</time>
      </trkpt>
      <trkpt lat="47.78107" lon="-3.54779">
        <ele>36.11</ele>
        <time>2020-07-08T13:31:39Z</time>
      </trkpt>
      <trkpt lat="47.78105" lon="-3.54787">
        <ele>36.03</ele>
        <time>2020-07-08T13:31:40Z</time>
      </trkpt>
      <trkpt lat="47.78102" lon="-3.54796">
        <ele>36.01</ele>
        <time>2020-07-08T13:31:41Z</time>
      </trkpt>
      <trkpt lat="47.78098" lon="-3.54803">
        <ele>36</ele>
        <time>2020-07-08T13:31:42Z</time>
      </trkpt>
      <trkpt lat="47.78095" lon="-3.54811">
        <ele>35.92</ele>
        <time>2020-07-08T13:31:43Z</time>
      </trkpt>
      <trkpt lat="47.78092" lon="-3.54819">
        <ele>35.74</ele>
        <time>2020-07-08T13:31:44Z</time>
      </trkpt>
      <trkpt lat="47.78089" lon="-3.54828">
        <ele>35.48</ele>
        <time>2020-07-08T13:31:45Z</time>
      </trkpt>
      <trkpt lat="47.78086" lon="-3.54836">
        <ele>35.21</ele>
        <time>2020-07-08T13:31:46Z</time>
      </trkpt>
      <trkpt lat="47.78083" lon="-3.54844">
        <ele>35.06</ele>
        <time>2020-07-08T13:31:47Z</time>
      </trkpt>
      <trkpt lat="47.7808" lon="-3.54852">
        <ele>35.02</ele>
        <time>2020-07-08T13:31:48Z</time>
      </trkpt>
      <trkpt lat="47.78077" lon="-3.54861">
        <ele>35.01</ele>
        <time>2020-07-08T13:31:49Z</time>
      </trkpt>
      <trkpt lat="47.78073" lon="-3.54869">
        <ele>34.93</ele>
        <time>2020-07-08T13:31:50Z</time>
      </trkpt>
      <trkpt lat="47.7807" lon="-3.54878">
        <ele>34.77</ele>
        <time>2020-07-08T13:31:51Z</time>
      </trkpt>
      <trkpt lat="47.78066" lon="-3.54887">
        <ele>34.53</ele>
        <time>2020-07-08T13:31:52Z</time>
      </trkpt>
      <trkpt lat="47.78062" lon="-3.54895">
        <ele>34.29</ele>
        <time>2020-07-08T13:31:53Z</time>
      </trkpt>
      <trkpt lat="47.78058" lon="-3.54904">
        <ele>34.12</ele>
        <time>2020-07-08T13:31:54Z</time>
      </trkpt>
      <trkpt lat="47.78055" lon="-3.54913">
        <ele>34.02</ele>
        <time>2020-07-08T13:31:55Z</time>
      </trkpt>
      <trkpt lat="47.78051" lon="-3.54923">
        <ele>33.77</ele>
        <time>2020-07-08T13:31:56Z</time>
      </trkpt>
      <trkpt lat="47.78048" lon="-3.54932">
        <ele>33.45</ele>
        <time>2020-07-08T13:31:57Z</time>
      </trkpt>
      <trkpt lat="47.78045" lon="-3.54942">
        <ele>33.18</ele>
        <time>2020-07-08T13:31:58Z</time>
      </trkpt>
      <trkpt lat="47.78042" lon="-3.54951">
        <ele>33.05</ele>
        <time>2020-07-08T13:31:59Z</time>
      </trkpt>
      <trkpt lat="47.7804" lon="-3.54961">
        <ele>33.02</ele>
        <time>2020-07-08T13:32:00Z</time>
      </trkpt>
      <trkpt lat="47.78038" lon="-3.5497">
        <ele>33</ele>
        <time>2020-07-08T13:32:01Z</time>
      </trkpt>
      <trkpt lat="47.78036" lon="-3.54981">
        <ele>33</ele>
        <time>2020-07-08T13:32:02Z</time>
      </trkpt>
      <trkpt lat="47.78034" lon="-3.5499">
        <ele>33</ele>
        <time>2020-07-08T13:32:03Z</time>
      </trkpt>
      <trkpt lat="47.78032" lon="-3.54999">
        <ele>33</ele>
        <time>2020-07-08T13:32:04Z</time>
      </trkpt>
      <trkpt lat="47.78031" lon="-3.55009">
        <ele>33.2</ele>
        <time>2020-07-08T13:32:05Z</time>
      </trkpt>
      <trkpt lat="47.78029" lon="-3.55018">
        <ele>33.48</ele>
        <time>2020-07-08T13:32:06Z</time>
      </trkpt>
      <trkpt lat="47.78028" lon="-3.55026">
        <ele>33.79</ele>
        <time>2020-07-08T13:32:07Z</time>
      </trkpt>
      <trkpt lat="47.78027" lon="-3.55035">
        <ele>34.29</ele>
        <time>2020-07-08T13:32:08Z</time>
      </trkpt>
      <trkpt lat="47.78026" lon="-3.55043">
        <ele>34.86</ele>
        <time>2020-07-08T13:32:09Z</time>
      </trkpt>
      <trkpt lat="47.78026" lon="-3.55051">
        <ele>35.45</ele>
        <time>2020-07-08T13:32:10Z</time>
      </trkpt>
      <trkpt lat="47.78024" lon="-3.55059">
        <ele>35.93</ele>
        <time>2020-07-08T13:32:11Z</time>
      </trkpt>
      <trkpt lat="47.78023" lon="-3.55067">
        <ele>36.31</ele>
        <time>2020-07-08T13:32:12Z</time>
      </trkpt>
      <trkpt lat="47.78022" lon="-3.55075">
        <ele>36.68</ele>
        <time>2020-07-08T13:32:13Z</time>
      </trkpt>
      <trkpt lat="47.78021" lon="-3.55083">
        <ele>37.06</ele>
        <time>2020-07-08T13:32:14Z</time>
      </trkpt>
      <trkpt lat="47.78019" lon="-3.5509">
        <ele>37.46</ele>
        <time>2020-07-08T13:32:15Z</time>
      </trkpt>
      <trkpt lat="47.78018" lon="-3.55098">
        <ele>37.88</ele>
        <time>2020-07-08T13:32:16Z</time>
      </trkpt>
      <trkpt lat="47.78017" lon="-3.55107">
        <ele>38.35</ele>
        <time>2020-07-08T13:32:17Z</time>
      </trkpt>
      <trkpt lat="47.78016" lon="-3.55115">
        <ele>38.69</ele>
        <time>2020-07-08T13:32:18Z</time>
      </trkpt>
      <trkpt lat="47.78015" lon="-3.55123">
        <ele>38.83</ele>
        <time>2020-07-08T13:32:19Z</time>
      </trkpt>
      <trkpt lat="47.78015" lon="-3.55131">
        <ele>38.9</ele>
        <time>2020-07-08T13:32:20Z</time>
      </trkpt>
      <trkpt lat="47.78014" lon="-3.5514">
        <ele>38.96</ele>
        <time>2020-07-08T13:32:21Z</time>
      </trkpt>
      <trkpt lat="47.78014" lon="-3.55148">
        <ele>38.99</ele>
        <time>2020-07-08T13:32:22Z</time>
      </trkpt>
      <trkpt lat="47.78014" lon="-3.55156">
        <ele>39.02</ele>
        <time>2020-07-08T13:32:23Z</time>
      </trkpt>
      <trkpt lat="47.78013" lon="-3.55164">
        <ele>39.05</ele>
        <time>2020-07-08T13:32:24Z</time>
      </trkpt>
      <trkpt lat="47.78012" lon="-3.55173">
        <ele>39.07</ele>
        <time>2020-07-08T13:32:25Z</time>
      </trkpt>
      <trkpt lat="47.78012" lon="-3.5518">
        <ele>39.07</ele>
        <time>2020-07-08T13:32:26Z</time>
      </trkpt>
      <trkpt lat="47.78011" lon="-3.55188">
        <ele>39.05</ele>
        <time>2020-07-08T13:32:27Z</time>
      </trkpt>
      <trkpt lat="47.78011" lon="-3.55196">
        <ele>39.02</ele>
        <time>2020-07-08T13:32:28Z</time>
      </trkpt>
      <trkpt lat="47.7801" lon="-3.55203">
        <ele>39</ele>
        <time>2020-07-08T13:32:29Z</time>
      </trkpt>
      <trkpt lat="47.78009" lon="-3.5521">
        <ele>39</ele>
        <time>2020-07-08T13:32:30Z</time>
      </trkpt>
      <trkpt lat="47.78009" lon="-3.55217">
        <ele>39</ele>
        <time>2020-07-08T13:32:31Z</time>
      </trkpt>
      <trkpt lat="47.78009" lon="-3.55224">
        <ele>39.04</ele>
        <time>2020-07-08T13:32:32Z</time>
      </trkpt>
      <trkpt lat="47.78009" lon="-3.55231">
        <ele>39.24</ele>
        <time>2020-07-08T13:32:33Z</time>
      </trkpt>
      <trkpt lat="47.78009" lon="-3.55239">
        <ele>39.49</ele>
        <time>2020-07-08T13:32:34Z</time>
      </trkpt>
      <trkpt lat="47.78009" lon="-3.55246">
        <ele>39.75</ele>
        <time>2020-07-08T13:32:35Z</time>
      </trkpt>
      <trkpt lat="47.78009" lon="-3.55254">
        <ele>39.93</ele>
        <time>2020-07-08T13:32:36Z</time>
      </trkpt>
      <trkpt lat="47.78009" lon="-3.55261">
        <ele>39.98</ele>
        <time>2020-07-08T13:32:37Z</time>
      </trkpt>
      <trkpt lat="47.78008" lon="-3.55268">
        <ele>39.99</ele>
        <time>2020-07-08T13:32:38Z</time>
      </trkpt>
      <trkpt lat="47.78007" lon="-3.55275">
        <ele>40</ele>
        <time>2020-07-08T13:32:39Z</time>
      </trkpt>
      <trkpt lat="47.78006" lon="-3.55282">
        <ele>40</ele>
        <time>2020-07-08T13:32:40Z</time>
      </trkpt>
      <trkpt lat="47.78006" lon="-3.55289">
        <ele>40</ele>
        <time>2020-07-08T13:32:41Z</time>
      </trkpt>
      <trkpt lat="47.78005" lon="-3.55295">
        <ele>40</ele>
        <time>2020-07-08T13:32:42Z</time>
      </trkpt>
      <trkpt lat="47.78004" lon="-3.55302">
        <ele>40</ele>
        <time>2020-07-08T13:32:43Z</time>
      </trkpt>
      <trkpt lat="47.78003" lon="-3.55309">
        <ele>40.01</ele>
        <time>2020-07-08T13:32:44Z</time>
      </trkpt>
      <trkpt lat="47.78002" lon="-3.55315">
        <ele>40.02</ele>
        <time>2020-07-08T13:32:45Z</time>
      </trkpt>
      <trkpt lat="47.78001" lon="-3.55321">
        <ele>40.02</ele>
        <time>2020-07-08T13:32:46Z</time>
      </trkpt>
      <trkpt lat="47.77999" lon="-3.55327">
        <ele>39.99</ele>
        <time>2020-07-08T13:32:47Z</time>
      </trkpt>
      <trkpt lat="47.77997" lon="-3.55331">
        <ele>39.91</ele>
        <time>2020-07-08T13:32:48Z</time>
      </trkpt>
      <trkpt lat="47.77993" lon="-3.55334">
        <ele>39.81</ele>
        <time>2020-07-08T13:32:49Z</time>
      </trkpt>
      <trkpt lat="47.77989" lon="-3.55335">
        <ele>39.65</ele>
        <time>2020-07-08T13:32:50Z</time>
      </trkpt>
      <trkpt lat="47.77983" lon="-3.55335">
        <ele>39.48</ele>
        <time>2020-07-08T13:32:51Z</time>
      </trkpt>
      <trkpt lat="47.77978" lon="-3.55335">
        <ele>39.29</ele>
        <time>2020-07-08T13:32:52Z</time>
      </trkpt>
      <trkpt lat="47.77973" lon="-3.55335">
        <ele>39.12</ele>
        <time>2020-07-08T13:32:53Z</time>
      </trkpt>
      <trkpt lat="47.77969" lon="-3.55336">
        <ele>39.03</ele>
        <time>2020-07-08T13:32:54Z</time>
      </trkpt>
      <trkpt lat="47.77965" lon="-3.55335">
        <ele>39.01</ele>
        <time>2020-07-08T13:32:55Z</time>
      </trkpt>
      <trkpt lat="47.7796" lon="-3.55335">
        <ele>39</ele>
        <time>2020-07-08T13:32:56Z</time>
      </trkpt>
      <trkpt lat="47.77956" lon="-3.55334">
        <ele>39</ele>
        <time>2020-07-08T13:32:57Z</time>
      </trkpt>
      <trkpt lat="47.77952" lon="-3.55333">
        <ele>39</ele>
        <time>2020-07-08T13:32:58Z</time>
      </trkpt>
      <trkpt lat="47.77947" lon="-3.55332">
        <ele>39</ele>
        <time>2020-07-08T13:32:59Z</time>
      </trkpt>
      <trkpt lat="47.77942" lon="-3.55331">
        <ele>39</ele>
        <time>2020-07-08T13:33:00Z</time>
      </trkpt>
      <trkpt lat="47.77936" lon="-3.55331">
        <ele>39</ele>
        <time>2020-07-08T13:33:01Z</time>
      </trkpt>
      <trkpt lat="47.77932" lon="-3.55331">
        <ele>39</ele>
        <time>2020-07-08T13:33:02Z</time>
      </trkpt>
      <trkpt lat="47.77928" lon="-3.55331">
        <ele>39</ele>
        <time>2020-07-08T13:33:03Z</time>
      </trkpt>
      <trkpt lat="47.77923" lon="-3.55332">
        <ele>39</ele>
        <time>2020-07-08T13:33:04Z</time>
      </trkpt>
      <trkpt lat="47.77917" lon="-3.55333">
        <ele>39</ele>
        <time>2020-07-08T13:33:05Z</time>
      </trkpt>
      <trkpt lat="47.77911" lon="-3.55333">
        <ele>38.86</ele>
        <time>2020-07-08T13:33:06Z</time>
      </trkpt>
      <trkpt lat="47.77906" lon="-3.55334">
        <ele>38.68</ele>
        <time>2020-07-08T13:33:07Z</time>
      </trkpt>
      <trkpt lat="47.779" lon="-3.55335">
        <ele>38.51</ele>
        <time>2020-07-08T13:33:08Z</time>
      </trkpt>
      <trkpt lat="47.77895" lon="-3.55335">
        <ele>38.34</ele>
        <time>2020-07-08T13:33:09Z</time>
      </trkpt>
      <trkpt lat="47.7789" lon="-3.55335">
        <ele>38.17</ele>
        <time>2020-07-08T13:33:10Z</time>
      </trkpt>
      <trkpt lat="47.77884" lon="-3.55336">
        <ele>38.12</ele>
        <time>2020-07-08T13:33:11Z</time>
      </trkpt>
      <trkpt lat="47.77879" lon="-3.55337">
        <ele>38.1</ele>
        <time>2020-07-08T13:33:12Z</time>
      </trkpt>
      <trkpt lat="47.77874" lon="-3.55337">
        <ele>38.07</ele>
        <time>2020-07-08T13:33:13Z</time>
      </trkpt>
      <trkpt lat="47.77868" lon="-3.55337">
        <ele>38.05</ele>
        <time>2020-07-08T13:33:14Z</time>
      </trkpt>
      <trkpt lat="47.77862" lon="-3.55337">
        <ele>38.02</ele>
        <time>2020-07-08T13:33:15Z</time>
      </trkpt>
      <trkpt lat="47.77856" lon="-3.55337">
        <ele>37.85</ele>
        <time>2020-07-08T13:33:16Z</time>
      </trkpt>
      <trkpt lat="47.77848" lon="-3.55337">
        <ele>37.58</ele>
        <time>2020-07-08T13:33:17Z</time>
      </trkpt>
      <trkpt lat="47.77841" lon="-3.55337">
        <ele>37.31</ele>
        <time>2020-07-08T13:33:18Z</time>
      </trkpt>
      <trkpt lat="47.77835" lon="-3.55337">
        <ele>37.07</ele>
        <time>2020-07-08T13:33:19Z</time>
      </trkpt>
      <trkpt lat="47.77829" lon="-3.55337">
        <ele>36.94</ele>
        <time>2020-07-08T13:33:20Z</time>
      </trkpt>
      <trkpt lat="47.77824" lon="-3.55337">
        <ele>36.9</ele>
        <time>2020-07-08T13:33:21Z</time>
      </trkpt>
      <trkpt lat="47.77818" lon="-3.55337">
        <ele>36.87</ele>
        <time>2020-07-08T13:33:22Z</time>
      </trkpt>
      <trkpt lat="47.77813" lon="-3.55337">
        <ele>36.87</ele>
        <time>2020-07-08T13:33:23Z</time>
      </trkpt>
      <trkpt lat="47.77807" lon="-3.55336">
        <ele>36.88</ele>
        <time>2020-07-08T13:33:24Z</time>
      </trkpt>
      <trkpt lat="47.77801" lon="-3.55333">
        <ele>36.97</ele>
        <time>2020-07-08T13:33:25Z</time>
      </trkpt>
      <trkpt lat="47.77796" lon="-3.55328">
        <ele>37.11</ele>
        <time>2020-07-08T13:33:26Z</time>
      </trkpt>
      <trkpt lat="47.77793" lon="-3.55324">
        <ele>37.27</ele>
        <time>2020-07-08T13:33:27Z</time>
      </trkpt>
      <trkpt lat="47.7779" lon="-3.55321">
        <ele>37.39</ele>
        <time>2020-07-08T13:33:28Z</time>
      </trkpt>
      <trkpt lat="47.77786" lon="-3.5532">
        <ele>37.46</ele>
        <time>2020-07-08T13:33:29Z</time>
      </trkpt>
      <trkpt lat="47.77782" lon="-3.5532">
        <ele>37.47</ele>
        <time>2020-07-08T13:33:30Z</time>
      </trkpt>
      <trkpt lat="47.77778" lon="-3.55322">
        <ele>37.43</ele>
        <time>2020-07-08T13:33:31Z</time>
      </trkpt>
      <trkpt lat="47.77773" lon="-3.55324">
        <ele>37.38</ele>
        <time>2020-07-08T13:33:32Z</time>
      </trkpt>
      <trkpt lat="47.77769" lon="-3.55325">
        <ele>37.32</ele>
        <time>2020-07-08T13:33:33Z</time>
      </trkpt>
      <trkpt lat="47.77764" lon="-3.55327">
        <ele>37.26</ele>
        <time>2020-07-08T13:33:34Z</time>
      </trkpt>
      <trkpt lat="47.7776" lon="-3.55328">
        <ele>37.2</ele>
        <time>2020-07-08T13:33:35Z</time>
      </trkpt>
      <trkpt lat="47.77755" lon="-3.55332">
        <ele>37.1</ele>
        <time>2020-07-08T13:33:36Z</time>
      </trkpt>
      <trkpt lat="47.77752" lon="-3.55336">
        <ele>36.97</ele>
        <time>2020-07-08T13:33:37Z</time>
      </trkpt>
      <trkpt lat="47.77749" lon="-3.55339">
        <ele>36.84</ele>
        <time>2020-07-08T13:33:38Z</time>
      </trkpt>
      <trkpt lat="47.77744" lon="-3.55343">
        <ele>36.7</ele>
        <time>2020-07-08T13:33:39Z</time>
      </trkpt>
      <trkpt lat="47.77739" lon="-3.55347">
        <ele>36.57</ele>
        <time>2020-07-08T13:33:40Z</time>
      </trkpt>
      <trkpt lat="47.77733" lon="-3.55349">
        <ele>36.48</ele>
        <time>2020-07-08T13:33:41Z</time>
      </trkpt>
      <trkpt lat="47.77727" lon="-3.55351">
        <ele>36.4</ele>
        <time>2020-07-08T13:33:42Z</time>
      </trkpt>
      <trkpt lat="47.77722" lon="-3.55352">
        <ele>36.33</ele>
        <time>2020-07-08T13:33:43Z</time>
      </trkpt>
      <trkpt lat="47.77715" lon="-3.55353">
        <ele>36.12</ele>
        <time>2020-07-08T13:33:44Z</time>
      </trkpt>
      <trkpt lat="47.77709" lon="-3.55354">
        <ele>35.9</ele>
        <time>2020-07-08T13:33:45Z</time>
      </trkpt>
      <trkpt lat="47.77704" lon="-3.55354">
        <ele>35.69</ele>
        <time>2020-07-08T13:33:46Z</time>
      </trkpt>
      <trkpt lat="47.77699" lon="-3.55354">
        <ele>35.48</ele>
        <time>2020-07-08T13:33:47Z</time>
      </trkpt>
      <trkpt lat="47.77694" lon="-3.55355">
        <ele>35.3</ele>
        <time>2020-07-08T13:33:48Z</time>
      </trkpt>
      <trkpt lat="47.77689" lon="-3.55356">
        <ele>35.32</ele>
        <time>2020-07-08T13:33:49Z</time>
      </trkpt>
      <trkpt lat="47.77685" lon="-3.55357">
        <ele>35.42</ele>
        <time>2020-07-08T13:33:50Z</time>
      </trkpt>
      <trkpt lat="47.77681" lon="-3.55357">
        <ele>35.53</ele>
        <time>2020-07-08T13:33:51Z</time>
      </trkpt>
      <trkpt lat="47.77677" lon="-3.55356">
        <ele>35.65</ele>
        <time>2020-07-08T13:33:52Z</time>
      </trkpt>
      <trkpt lat="47.77673" lon="-3.55355">
        <ele>35.78</ele>
        <time>2020-07-08T13:33:53Z</time>
      </trkpt>
      <trkpt lat="47.77668" lon="-3.55354">
        <ele>35.9</ele>
        <time>2020-07-08T13:33:54Z</time>
      </trkpt>
      <trkpt lat="47.77664" lon="-3.55353">
        <ele>36.04</ele>
        <time>2020-07-08T13:33:55Z</time>
      </trkpt>
      <trkpt lat="47.77659" lon="-3.55352">
        <ele>36.2</ele>
        <time>2020-07-08T13:33:56Z</time>
      </trkpt>
      <trkpt lat="47.77655" lon="-3.55351">
        <ele>36.36</ele>
        <time>2020-07-08T13:33:57Z</time>
      </trkpt>
      <trkpt lat="47.77651" lon="-3.55352">
        <ele>36.51</ele>
        <time>2020-07-08T13:33:58Z</time>
      </trkpt>
      <trkpt lat="47.77647" lon="-3.55353">
        <ele>36.65</ele>
        <time>2020-07-08T13:33:59Z</time>
      </trkpt>
      <trkpt lat="47.77642" lon="-3.55355">
        <ele>36.8</ele>
        <time>2020-07-08T13:34:00Z</time>
      </trkpt>
      <trkpt lat="47.77638" lon="-3.55357">
        <ele>36.94</ele>
        <time>2020-07-08T13:34:01Z</time>
      </trkpt>
      <trkpt lat="47.77634" lon="-3.55358">
        <ele>37</ele>
        <time>2020-07-08T13:34:02Z</time>
      </trkpt>
      <trkpt lat="47.7763" lon="-3.5536">
        <ele>37.01</ele>
        <time>2020-07-08T13:34:03Z</time>
      </trkpt>
      <trkpt lat="47.77626" lon="-3.55361">
        <ele>37</ele>
        <time>2020-07-08T13:34:04Z</time>
      </trkpt>
      <trkpt lat="47.77621" lon="-3.55362">
        <ele>36.98</ele>
        <time>2020-07-08T13:34:05Z</time>
      </trkpt>
      <trkpt lat="47.77615" lon="-3.55364">
        <ele>36.93</ele>
        <time>2020-07-08T13:34:06Z</time>
      </trkpt>
      <trkpt lat="47.7761" lon="-3.55365">
        <ele>36.91</ele>
        <time>2020-07-08T13:34:07Z</time>
      </trkpt>
      <trkpt lat="47.77605" lon="-3.55367">
        <ele>36.97</ele>
        <time>2020-07-08T13:34:08Z</time>
      </trkpt>
      <trkpt lat="47.77601" lon="-3.55368">
        <ele>37.07</ele>
        <time>2020-07-08T13:34:09Z</time>
      </trkpt>
      <trkpt lat="47.77595" lon="-3.5537">
        <ele>37.21</ele>
        <time>2020-07-08T13:34:10Z</time>
      </trkpt>
      <trkpt lat="47.7759" lon="-3.55371">
        <ele>37.36</ele>
        <time>2020-07-08T13:34:11Z</time>
      </trkpt>
      <trkpt lat="47.77585" lon="-3.55372">
        <ele>37.5</ele>
        <time>2020-07-08T13:34:12Z</time>
      </trkpt>
      <trkpt lat="47.7758" lon="-3.55372">
        <ele>37.68</ele>
        <time>2020-07-08T13:34:13Z</time>
      </trkpt>
      <trkpt lat="47.77575" lon="-3.55372">
        <ele>37.91</ele>
        <time>2020-07-08T13:34:14Z</time>
      </trkpt>
      <trkpt lat="47.77571" lon="-3.55372">
        <ele>38.15</ele>
        <time>2020-07-08T13:34:15Z</time>
      </trkpt>
      <trkpt lat="47.77565" lon="-3.55373">
        <ele>38.39</ele>
        <time>2020-07-08T13:34:16Z</time>
      </trkpt>
      <trkpt lat="47.7756" lon="-3.55373">
        <ele>38.65</ele>
        <time>2020-07-08T13:34:17Z</time>
      </trkpt>
      <trkpt lat="47.77555" lon="-3.55376">
        <ele>38.87</ele>
        <time>2020-07-08T13:34:18Z</time>
      </trkpt>
      <trkpt lat="47.77549" lon="-3.55377">
        <ele>38.78</ele>
        <time>2020-07-08T13:34:19Z</time>
      </trkpt>
      <trkpt lat="47.77543" lon="-3.55378">
        <ele>38.63</ele>
        <time>2020-07-08T13:34:20Z</time>
      </trkpt>
      <trkpt lat="47.77539" lon="-3.55379">
        <ele>38.46</ele>
        <time>2020-07-08T13:34:21Z</time>
      </trkpt>
      <trkpt lat="47.77533" lon="-3.5538">
        <ele>38.27</ele>
        <time>2020-07-08T13:34:22Z</time>
      </trkpt>
      <trkpt lat="47.77528" lon="-3.55381">
        <ele>38.08</ele>
        <time>2020-07-08T13:34:23Z</time>
      </trkpt>
      <trkpt lat="47.77523" lon="-3.55381">
        <ele>37.9</ele>
        <time>2020-07-08T13:34:24Z</time>
      </trkpt>
      <trkpt lat="47.77519" lon="-3.55379">
        <ele>37.74</ele>
        <time>2020-07-08T13:34:25Z</time>
      </trkpt>
      <trkpt lat="47.77515" lon="-3.55376">
        <ele>37.6</ele>
        <time>2020-07-08T13:34:26Z</time>
      </trkpt>
      <trkpt lat="47.77512" lon="-3.55372">
        <ele>37.49</ele>
        <time>2020-07-08T13:34:27Z</time>
      </trkpt>
      <trkpt lat="47.77506" lon="-3.5537">
        <ele>37.31</ele>
        <time>2020-07-08T13:34:28Z</time>
      </trkpt>
      <trkpt lat="47.77503" lon="-3.55368">
        <ele>37.16</ele>
        <time>2020-07-08T13:34:29Z</time>
      </trkpt>
      <trkpt lat="47.77499" lon="-3.55366">
        <ele>37.06</ele>
        <time>2020-07-08T13:34:30Z</time>
      </trkpt>
      <trkpt lat="47.77496" lon="-3.55362">
        <ele>37.13</ele>
        <time>2020-07-08T13:34:31Z</time>
      </trkpt>
      <trkpt lat="47.77492" lon="-3.5536">
        <ele>37.28</ele>
        <time>2020-07-08T13:34:32Z</time>
      </trkpt>
      <trkpt lat="47.77488" lon="-3.55357">
        <ele>37.45</ele>
        <time>2020-07-08T13:34:33Z</time>
      </trkpt>
      <trkpt lat="47.77484" lon="-3.55354">
        <ele>37.61</ele>
        <time>2020-07-08T13:34:34Z</time>
      </trkpt>
      <trkpt lat="47.77482" lon="-3.5535">
        <ele>37.73</ele>
        <time>2020-07-08T13:34:35Z</time>
      </trkpt>
      <trkpt lat="47.77479" lon="-3.55347">
        <ele>37.83</ele>
        <time>2020-07-08T13:34:36Z</time>
      </trkpt>
      <trkpt lat="47.77477" lon="-3.55344">
        <ele>37.91</ele>
        <time>2020-07-08T13:34:37Z</time>
      </trkpt>
      <trkpt lat="47.77473" lon="-3.5534">
        <ele>37.97</ele>
        <time>2020-07-08T13:34:38Z</time>
      </trkpt>
      <trkpt lat="47.7747" lon="-3.55337">
        <ele>37.98</ele>
        <time>2020-07-08T13:34:39Z</time>
      </trkpt>
      <trkpt lat="47.77467" lon="-3.55334">
        <ele>37.99</ele>
        <time>2020-07-08T13:34:40Z</time>
      </trkpt>
      <trkpt lat="47.77463" lon="-3.55331">
        <ele>38</ele>
        <time>2020-07-08T13:34:41Z</time>
      </trkpt>
      <trkpt lat="47.7746" lon="-3.55327">
        <ele>38</ele>
        <time>2020-07-08T13:34:42Z</time>
      </trkpt>
      <trkpt lat="47.77456" lon="-3.55323">
        <ele>38</ele>
        <time>2020-07-08T13:34:43Z</time>
      </trkpt>
      <trkpt lat="47.77452" lon="-3.5532">
        <ele>38</ele>
        <time>2020-07-08T13:34:44Z</time>
      </trkpt>
      <trkpt lat="47.77448" lon="-3.55317">
        <ele>38</ele>
        <time>2020-07-08T13:34:45Z</time>
      </trkpt>
      <trkpt lat="47.77445" lon="-3.55314">
        <ele>38</ele>
        <time>2020-07-08T13:34:46Z</time>
      </trkpt>
      <trkpt lat="47.77443" lon="-3.5531">
        <ele>38.03</ele>
        <time>2020-07-08T13:34:47Z</time>
      </trkpt>
      <trkpt lat="47.7744" lon="-3.55306">
        <ele>38.12</ele>
        <time>2020-07-08T13:34:48Z</time>
      </trkpt>
      <trkpt lat="47.77437" lon="-3.55303">
        <ele>38.27</ele>
        <time>2020-07-08T13:34:49Z</time>
      </trkpt>
      <trkpt lat="47.77434" lon="-3.55301">
        <ele>38.43</ele>
        <time>2020-07-08T13:34:50Z</time>
      </trkpt>
      <trkpt lat="47.77431" lon="-3.55298">
        <ele>38.58</ele>
        <time>2020-07-08T13:34:51Z</time>
      </trkpt>
      <trkpt lat="47.77427" lon="-3.55294">
        <ele>38.71</ele>
        <time>2020-07-08T13:34:52Z</time>
      </trkpt>
      <trkpt lat="47.77424" lon="-3.55291">
        <ele>38.82</ele>
        <time>2020-07-08T13:34:53Z</time>
      </trkpt>
      <trkpt lat="47.77422" lon="-3.55288">
        <ele>38.89</ele>
        <time>2020-07-08T13:34:54Z</time>
      </trkpt>
      <trkpt lat="47.7742" lon="-3.55286">
        <ele>38.94</ele>
        <time>2020-07-08T13:34:55Z</time>
      </trkpt>
      <trkpt lat="47.77417" lon="-3.55284">
        <ele>38.98</ele>
        <time>2020-07-08T13:34:56Z</time>
      </trkpt>
      <trkpt lat="47.77414" lon="-3.55282">
        <ele>39</ele>
        <time>2020-07-08T13:34:57Z</time>
      </trkpt>
      <trkpt lat="47.77412" lon="-3.55279">
        <ele>39.01</ele>
        <time>2020-07-08T13:34:58Z</time>
      </trkpt>
      <trkpt lat="47.77409" lon="-3.55277">
        <ele>38.97</ele>
        <time>2020-07-08T13:34:59Z</time>
      </trkpt>
      <trkpt lat="47.77405" lon="-3.55274">
        <ele>38.9</ele>
        <time>2020-07-08T13:35:00Z</time>
      </trkpt>
      <trkpt lat="47.77402" lon="-3.55271">
        <ele>38.8</ele>
        <time>2020-07-08T13:35:01Z</time>
      </trkpt>
      <trkpt lat="47.77399" lon="-3.55268">
        <ele>38.7</ele>
        <time>2020-07-08T13:35:02Z</time>
      </trkpt>
      <trkpt lat="47.77397" lon="-3.55266">
        <ele>38.62</ele>
        <time>2020-07-08T13:35:03Z</time>
      </trkpt>
      <trkpt lat="47.77394" lon="-3.55264">
        <ele>38.54</ele>
        <time>2020-07-08T13:35:04Z</time>
      </trkpt>
      <trkpt lat="47.77391" lon="-3.55262">
        <ele>38.45</ele>
        <time>2020-07-08T13:35:05Z</time>
      </trkpt>
      <trkpt lat="47.77388" lon="-3.55259">
        <ele>38.36</ele>
        <time>2020-07-08T13:35:06Z</time>
      </trkpt>
      <trkpt lat="47.77385" lon="-3.55255">
        <ele>38.31</ele>
        <time>2020-07-08T13:35:07Z</time>
      </trkpt>
      <trkpt lat="47.77382" lon="-3.55252">
        <ele>38.3</ele>
        <time>2020-07-08T13:35:08Z</time>
      </trkpt>
      <trkpt lat="47.77379" lon="-3.55249">
        <ele>38.34</ele>
        <time>2020-07-08T13:35:09Z</time>
      </trkpt>
      <trkpt lat="47.77375" lon="-3.55245">
        <ele>38.4</ele>
        <time>2020-07-08T13:35:10Z</time>
      </trkpt>
      <trkpt lat="47.77371" lon="-3.55242">
        <ele>38.44</ele>
        <time>2020-07-08T13:35:11Z</time>
      </trkpt>
      <trkpt lat="47.77367" lon="-3.55238">
        <ele>38.45</ele>
        <time>2020-07-08T13:35:12Z</time>
      </trkpt>
      <trkpt lat="47.77363" lon="-3.55235">
        <ele>38.43</ele>
        <time>2020-07-08T13:35:13Z</time>
      </trkpt>
      <trkpt lat="47.77359" lon="-3.55231">
        <ele>38.39</ele>
        <time>2020-07-08T13:35:14Z</time>
      </trkpt>
      <trkpt lat="47.77354" lon="-3.55228">
        <ele>38.39</ele>
        <time>2020-07-08T13:35:15Z</time>
      </trkpt>
      <trkpt lat="47.7735" lon="-3.55224">
        <ele>38.43</ele>
        <time>2020-07-08T13:35:16Z</time>
      </trkpt>
      <trkpt lat="47.77345" lon="-3.55221">
        <ele>38.48</ele>
        <time>2020-07-08T13:35:17Z</time>
      </trkpt>
      <trkpt lat="47.77341" lon="-3.55217">
        <ele>38.53</ele>
        <time>2020-07-08T13:35:18Z</time>
      </trkpt>
      <trkpt lat="47.77337" lon="-3.55214">
        <ele>38.55</ele>
        <time>2020-07-08T13:35:19Z</time>
      </trkpt>
      <trkpt lat="47.77334" lon="-3.55211">
        <ele>38.57</ele>
        <time>2020-07-08T13:35:20Z</time>
      </trkpt>
      <trkpt lat="47.7733" lon="-3.55208">
        <ele>38.52</ele>
        <time>2020-07-08T13:35:21Z</time>
      </trkpt>
      <trkpt lat="47.77326" lon="-3.55206">
        <ele>38.45</ele>
        <time>2020-07-08T13:35:22Z</time>
      </trkpt>
      <trkpt lat="47.77324" lon="-3.55204">
        <ele>38.37</ele>
        <time>2020-07-08T13:35:23Z</time>
      </trkpt>
      <trkpt lat="47.77321" lon="-3.55203">
        <ele>38.32</ele>
        <time>2020-07-08T13:35:24Z</time>
      </trkpt>
      <trkpt lat="47.77319" lon="-3.55201">
        <ele>38.26</ele>
        <time>2020-07-08T13:35:25Z</time>
      </trkpt>
      <trkpt lat="47.77316" lon="-3.55199">
        <ele>38.21</ele>
        <time>2020-07-08T13:35:26Z</time>
      </trkpt>
      <trkpt lat="47.77313" lon="-3.55198">
        <ele>38.15</ele>
        <time>2020-07-08T13:35:27Z</time>
      </trkpt>
      <trkpt lat="47.7731" lon="-3.55196">
        <ele>38.08</ele>
        <time>2020-07-08T13:35:28Z</time>
      </trkpt>
      <trkpt lat="47.77307" lon="-3.55193">
        <ele>38.02</ele>
        <time>2020-07-08T13:35:29Z</time>
      </trkpt>
      <trkpt lat="47.77302" lon="-3.55191">
        <ele>38</ele>
        <time>2020-07-08T13:35:30Z</time>
      </trkpt>
      <trkpt lat="47.77298" lon="-3.55189">
        <ele>37.96</ele>
        <time>2020-07-08T13:35:31Z</time>
      </trkpt>
      <trkpt lat="47.77293" lon="-3.55187">
        <ele>37.9</ele>
        <time>2020-07-08T13:35:32Z</time>
      </trkpt>
      <trkpt lat="47.77288" lon="-3.55185">
        <ele>37.81</ele>
        <time>2020-07-08T13:35:33Z</time>
      </trkpt>
      <trkpt lat="47.77284" lon="-3.55181">
        <ele>37.68</ele>
        <time>2020-07-08T13:35:34Z</time>
      </trkpt>
      <trkpt lat="47.77282" lon="-3.55177">
        <ele>37.53</ele>
        <time>2020-07-08T13:35:35Z</time>
      </trkpt>
      <trkpt lat="47.77281" lon="-3.55173">
        <ele>37.37</ele>
        <time>2020-07-08T13:35:36Z</time>
      </trkpt>
      <trkpt lat="47.77281" lon="-3.55167">
        <ele>37.2</ele>
        <time>2020-07-08T13:35:37Z</time>
      </trkpt>
      <trkpt lat="47.77281" lon="-3.55162">
        <ele>37.12</ele>
        <time>2020-07-08T13:35:38Z</time>
      </trkpt>
      <trkpt lat="47.77281" lon="-3.55156">
        <ele>37.09</ele>
        <time>2020-07-08T13:35:39Z</time>
      </trkpt>
      <trkpt lat="47.77281" lon="-3.55151">
        <ele>37.07</ele>
        <time>2020-07-08T13:35:40Z</time>
      </trkpt>
      <trkpt lat="47.77282" lon="-3.55145">
        <ele>37.04</ele>
        <time>2020-07-08T13:35:41Z</time>
      </trkpt>
      <trkpt lat="47.77282" lon="-3.55139">
        <ele>37.01</ele>
        <time>2020-07-08T13:35:42Z</time>
      </trkpt>
      <trkpt lat="47.77282" lon="-3.55133">
        <ele>36.82</ele>
        <time>2020-07-08T13:35:43Z</time>
      </trkpt>
      <trkpt lat="47.77283" lon="-3.55124">
        <ele>36.51</ele>
        <time>2020-07-08T13:35:44Z</time>
      </trkpt>
      <trkpt lat="47.77283" lon="-3.55117">
        <ele>36.19</ele>
        <time>2020-07-08T13:35:45Z</time>
      </trkpt>
      <trkpt lat="47.77283" lon="-3.5511">
        <ele>35.87</ele>
        <time>2020-07-08T13:35:46Z</time>
      </trkpt>
      <trkpt lat="47.77283" lon="-3.55103">
        <ele>35.46</ele>
        <time>2020-07-08T13:35:47Z</time>
      </trkpt>
      <trkpt lat="47.77284" lon="-3.55096">
        <ele>35.02</ele>
        <time>2020-07-08T13:35:48Z</time>
      </trkpt>
      <trkpt lat="47.77285" lon="-3.55091">
        <ele>34.65</ele>
        <time>2020-07-08T13:35:49Z</time>
      </trkpt>
      <trkpt lat="47.77285" lon="-3.55088">
        <ele>34.38</ele>
        <time>2020-07-08T13:35:50Z</time>
      </trkpt>
      <trkpt lat="47.77284" lon="-3.55086">
        <ele>34.23</ele>
        <time>2020-07-08T13:35:51Z</time>
      </trkpt>
      <trkpt lat="47.77283" lon="-3.55086">
        <ele>34.19</ele>
        <time>2020-07-08T13:35:52Z</time>
      </trkpt>
      <trkpt lat="47.77281" lon="-3.55088">
        <ele>34.29</ele>
        <time>2020-07-08T13:35:53Z</time>
      </trkpt>
      <trkpt lat="47.7728" lon="-3.55092">
        <ele>34.51</ele>
        <time>2020-07-08T13:35:54Z</time>
      </trkpt>
      <trkpt lat="47.77278" lon="-3.55097">
        <ele>34.85</ele>
        <time>2020-07-08T13:35:55Z</time>
      </trkpt>
      <trkpt lat="47.77277" lon="-3.55102">
        <ele>35.2</ele>
        <time>2020-07-08T13:35:56Z</time>
      </trkpt>
      <trkpt lat="47.77276" lon="-3.55106">
        <ele>35.45</ele>
        <time>2020-07-08T13:35:57Z</time>
      </trkpt>
      <trkpt lat="47.77274" lon="-3.55107">
        <ele>35.55</ele>
        <time>2020-07-08T13:35:58Z</time>
      </trkpt>
      <trkpt lat="47.77271" lon="-3.55107">
        <ele>35.53</ele>
        <time>2020-07-08T13:35:59Z</time>
      </trkpt>
      <trkpt lat="47.7727" lon="-3.55107">
        <ele>35.47</ele>
        <time>2020-07-08T13:36:00Z</time>
      </trkpt>
      <trkpt lat="47.77269" lon="-3.55106">
        <ele>35.41</ele>
        <time>2020-07-08T13:36:01Z</time>
      </trkpt>
      <trkpt lat="47.77269" lon="-3.55106">
        <ele>35.39</ele>
        <time>2020-07-08T13:36:02Z</time>
      </trkpt>
      <trkpt lat="47.77269" lon="-3.55106">
        <ele>35.38</ele>
        <time>2020-07-08T13:36:03Z</time>
      </trkpt>
      <trkpt lat="47.77269" lon="-3.55106">
        <ele>35.38</ele>
        <time>2020-07-08T13:36:04Z</time>
      </trkpt>
      <trkpt lat="47.77269" lon="-3.55106">
        <ele>35.37</ele>
        <time>2020-07-08T13:36:05Z</time>
      </trkpt>
      <trkpt lat="47.77269" lon="-3.55106">
        <ele>35.37</ele>
        <time>2020-07-08T13:36:06Z</time>
      </trkpt>
      <trkpt lat="47.77269" lon="-3.55106">
        <ele>35.37</ele>
        <time>2020-07-08T13:36:07Z</time>
      </trkpt>
      <trkpt lat="47.77269" lon="-3.55106">
        <ele>35.37</ele>
        <time>2020-07-08T13:36:08Z</time>
      </trkpt>
      <trkpt lat="47.77269" lon="-3.55106">
        <ele>35.37</ele>
        <time>2020-07-08T13:36:09Z</time>
      </trkpt>
      <trkpt lat="47.77269" lon="-3.55106">
        <ele>35.37</ele>
        <time>2020-07-08T13:36:10Z</time>
      </trkpt>
      <trkpt lat="47.77269" lon="-3.55106">
        <ele>35.37</ele>
        <time>2020-07-08T13:36:11Z</time>
      </trkpt>
      <trkpt lat="47.77269" lon="-3.55106">
        <ele>35.37</ele>
        <time>2020-07-08T13:36:12Z</time>
      </trkpt>
    </trkseg>
  </trk>
  <trk>
    <name><![CDATA[2020-07-10 10:37:28]]></name>
    <desc><![CDATA[<p>Heure de départ: 10:37 10 juil. 2020<br/>Heure d'arrivée: 16:00 10 juil. 2020<br/>Distance: 74,7 km (05:22)<br/>Temps déplacement: 04:31<br/>Vitesse moyenne: 13,88 km/h<br/>Vitesse moyenne mouv.: 16,48 km/h<br/>Vitesse Max.: 41,23 km/h<br/>Altitude minimale: 0 m<br/>Altitude maximale: 68 m<br/>Vitesse de montée: 346,3 m/h<br/>Vitesse de descente: 434,1 m/h<br/>Gain d'altitude: 1018 m<br/>Perte d'altitude: 1044 m<br/>Temps de montée: 02:56<br/>Temps de descente: 02:24<br/></p><hr align="center" width="480" style="height: 2px; width: 517px"/>]]></desc>
    <trkseg>
      <trkpt lat="47.77268" lon="-3.55093">
        <ele>34.56</ele>
        <time>2020-07-10T08:37:30Z</time>
      </trkpt>
      <trkpt lat="47.77268" lon="-3.55092">
        <ele>34.54</ele>
        <time>2020-07-10T08:37:31Z</time>
      </trkpt>
      <trkpt lat="47.77268" lon="-3.55092">
        <ele>34.54</ele>
        <time>2020-07-10T08:37:32Z</time>
      </trkpt>
      <trkpt lat="47.77269" lon="-3.55094">
        <ele>34.59</ele>
        <time>2020-07-10T08:37:33Z</time>
      </trkpt>
      <trkpt lat="47.77269" lon="-3.55093">
        <ele>34.58</ele>
        <time>2020-07-10T08:37:34Z</time>
      </trkpt>
      <trkpt lat="47.77269" lon="-3.55092">
        <ele>34.53</ele>
        <time>2020-07-10T08:37:35Z</time>
      </trkpt>
      <trkpt lat="47.77269" lon="-3.55092">
        <ele>34.54</ele>
        <time>2020-07-10T08:37:36Z</time>
      </trkpt>
      <trkpt lat="47.7727" lon="-3.55092">
        <ele>34.55</ele>
        <time>2020-07-10T08:37:37Z</time>
      </trkpt>
      <trkpt lat="47.77267" lon="-3.55091">
        <ele>34.48</ele>
        <time>2020-07-10T08:37:38Z</time>
      </trkpt>
      <trkpt lat="47.77267" lon="-3.55093">
        <ele>34.52</ele>
        <time>2020-07-10T08:37:38Z</time>
      </trkpt>
      <trkpt lat="47.77267" lon="-3.55093">
        <ele>34.54</ele>
        <time>2020-07-10T08:37:39Z</time>
      </trkpt>
      <trkpt lat="47.77268" lon="-3.55092">
        <ele>34.54</ele>
        <time>2020-07-10T08:37:39Z</time>
      </trkpt>
      <trkpt lat="47.7727" lon="-3.55091">
        <ele>34.49</ele>
        <time>2020-07-10T08:37:41Z</time>
      </trkpt>
      <trkpt lat="47.77271" lon="-3.55089">
        <ele>34.41</ele>
        <time>2020-07-10T08:37:42Z</time>
      </trkpt>
      <trkpt lat="47.77273" lon="-3.55088">
        <ele>34.32</ele>
        <time>2020-07-10T08:37:43Z</time>
      </trkpt>
      <trkpt lat="47.77274" lon="-3.55085">
        <ele>34.17</ele>
        <time>2020-07-10T08:37:44Z</time>
      </trkpt>
      <trkpt lat="47.77275" lon="-3.55082">
        <ele>34.02</ele>
        <time>2020-07-10T08:37:45Z</time>
      </trkpt>
      <trkpt lat="47.77277" lon="-3.55081">
        <ele>33.94</ele>
        <time>2020-07-10T08:37:46Z</time>
      </trkpt>
      <trkpt lat="47.77279" lon="-3.55079">
        <ele>33.87</ele>
        <time>2020-07-10T08:37:47Z</time>
      </trkpt>
      <trkpt lat="47.77281" lon="-3.55077">
        <ele>33.78</ele>
        <time>2020-07-10T08:37:48Z</time>
      </trkpt>
      <trkpt lat="47.77283" lon="-3.55075">
        <ele>33.68</ele>
        <time>2020-07-10T08:37:49Z</time>
      </trkpt>
      <trkpt lat="47.77284" lon="-3.55072">
        <ele>33.56</ele>
        <time>2020-07-10T08:37:50Z</time>
      </trkpt>
      <trkpt lat="47.77284" lon="-3.5507">
        <ele>33.45</ele>
        <time>2020-07-10T08:37:51Z</time>
      </trkpt>
      <trkpt lat="47.77286" lon="-3.55067">
        <ele>33.3</ele>
        <time>2020-07-10T08:37:52Z</time>
      </trkpt>
      <trkpt lat="47.77286" lon="-3.55063">
        <ele>33.13</ele>
        <time>2020-07-10T08:37:53Z</time>
      </trkpt>
      <trkpt lat="47.77286" lon="-3.55059">
        <ele>32.95</ele>
        <time>2020-07-10T08:37:54Z</time>
      </trkpt>
      <trkpt lat="47.77286" lon="-3.55055">
        <ele>32.78</ele>
        <time>2020-07-10T08:37:55Z</time>
      </trkpt>
      <trkpt lat="47.77285" lon="-3.55052">
        <ele>32.58</ele>
        <time>2020-07-10T08:37:56Z</time>
      </trkpt>
      <trkpt lat="47.77285" lon="-3.55047">
        <ele>32.31</ele>
        <time>2020-07-10T08:37:57Z</time>
      </trkpt>
      <trkpt lat="47.77285" lon="-3.55042">
        <ele>32.02</ele>
        <time>2020-07-10T08:37:58Z</time>
      </trkpt>
      <trkpt lat="47.77285" lon="-3.55036">
        <ele>31.69</ele>
        <time>2020-07-10T08:37:59Z</time>
      </trkpt>
      <trkpt lat="47.77285" lon="-3.55031">
        <ele>31.36</ele>
        <time>2020-07-10T08:38:00Z</time>
      </trkpt>
      <trkpt lat="47.77286" lon="-3.55026">
        <ele>31.08</ele>
        <time>2020-07-10T08:38:01Z</time>
      </trkpt>
      <trkpt lat="47.77287" lon="-3.55022">
        <ele>30.86</ele>
        <time>2020-07-10T08:38:02Z</time>
      </trkpt>
      <trkpt lat="47.77288" lon="-3.55016">
        <ele>30.65</ele>
        <time>2020-07-10T08:38:03Z</time>
      </trkpt>
      <trkpt lat="47.77289" lon="-3.5501">
        <ele>30.45</ele>
        <time>2020-07-10T08:38:04Z</time>
      </trkpt>
      <trkpt lat="47.7729" lon="-3.55004">
        <ele>30.23</ele>
        <time>2020-07-10T08:38:05Z</time>
      </trkpt>
      <trkpt lat="47.77291" lon="-3.54998">
        <ele>29.98</ele>
        <time>2020-07-10T08:38:06Z</time>
      </trkpt>
      <trkpt lat="47.77293" lon="-3.54992">
        <ele>29.71</ele>
        <time>2020-07-10T08:38:07Z</time>
      </trkpt>
      <trkpt lat="47.77294" lon="-3.54988">
        <ele>29.48</ele>
        <time>2020-07-10T08:38:08Z</time>
      </trkpt>
      <trkpt lat="47.77293" lon="-3.54986">
        <ele>29.32</ele>
        <time>2020-07-10T08:38:09Z</time>
      </trkpt>
      <trkpt lat="47.77293" lon="-3.54983">
        <ele>29.19</ele>
        <time>2020-07-10T08:38:10Z</time>
      </trkpt>
      <trkpt lat="47.77293" lon="-3.5498">
        <ele>29.05</ele>
        <time>2020-07-10T08:38:11Z</time>
      </trkpt>
      <trkpt lat="47.77294" lon="-3.54977">
        <ele>28.89</ele>
        <time>2020-07-10T08:38:12Z</time>
      </trkpt>
      <trkpt lat="47.77295" lon="-3.54973">
        <ele>28.74</ele>
        <time>2020-07-10T08:38:13Z</time>
      </trkpt>
      <trkpt lat="47.77296" lon="-3.5497">
        <ele>28.61</ele>
        <time>2020-07-10T08:38:14Z</time>
      </trkpt>
      <trkpt lat="47.77296" lon="-3.54967">
        <ele>28.52</ele>
        <time>2020-07-10T08:38:15Z</time>
      </trkpt>
      <trkpt lat="47.77298" lon="-3.54968">
        <ele>28.54</ele>
        <time>2020-07-10T08:38:16Z</time>
      </trkpt>
      <trkpt lat="47.773" lon="-3.54969">
        <ele>28.63</ele>
        <time>2020-07-10T08:38:17Z</time>
      </trkpt>
      <trkpt lat="47.77302" lon="-3.5497">
        <ele>28.74</ele>
        <time>2020-07-10T08:38:18Z</time>
      </trkpt>
      <trkpt lat="47.77305" lon="-3.54971">
        <ele>28.86</ele>
        <time>2020-07-10T08:38:19Z</time>
      </trkpt>
      <trkpt lat="47.77306" lon="-3.54971">
        <ele>28.93</ele>
        <time>2020-07-10T08:38:20Z</time>
      </trkpt>
      <trkpt lat="47.77308" lon="-3.5497">
        <ele>28.92</ele>
        <time>2020-07-10T08:38:21Z</time>
      </trkpt>
      <trkpt lat="47.77309" lon="-3.54964">
        <ele>28.77</ele>
        <time>2020-07-10T08:38:22Z</time>
      </trkpt>
      <trkpt lat="47.77311" lon="-3.54959">
        <ele>28.61</ele>
        <time>2020-07-10T08:38:23Z</time>
      </trkpt>
      <trkpt lat="47.77313" lon="-3.54955">
        <ele>28.44</ele>
        <time>2020-07-10T08:38:24Z</time>
      </trkpt>
      <trkpt lat="47.77315" lon="-3.5495">
        <ele>28.28</ele>
        <time>2020-07-10T08:38:25Z</time>
      </trkpt>
      <trkpt lat="47.77317" lon="-3.54946">
        <ele>28.13</ele>
        <time>2020-07-10T08:38:26Z</time>
      </trkpt>
      <trkpt lat="47.77319" lon="-3.54943">
        <ele>28.04</ele>
        <time>2020-07-10T08:38:27Z</time>
      </trkpt>
      <trkpt lat="47.77321" lon="-3.54939">
        <ele>28.01</ele>
        <time>2020-07-10T08:38:28Z</time>
      </trkpt>
      <trkpt lat="47.77322" lon="-3.54936">
        <ele>28</ele>
        <time>2020-07-10T08:38:29Z</time>
      </trkpt>
      <trkpt lat="47.77322" lon="-3.54934">
        <ele>28</ele>
        <time>2020-07-10T08:38:30Z</time>
      </trkpt>
      <trkpt lat="47.77322" lon="-3.54933">
        <ele>28</ele>
        <time>2020-07-10T08:38:31Z</time>
      </trkpt>
      <trkpt lat="47.77322" lon="-3.54932">
        <ele>28</ele>
        <time>2020-07-10T08:38:32Z</time>
      </trkpt>
      <trkpt lat="47.77322" lon="-3.5493">
        <ele>28</ele>
        <time>2020-07-10T08:38:33Z</time>
      </trkpt>
      <trkpt lat="47.77321" lon="-3.54927">
        <ele>28</ele>
        <time>2020-07-10T08:38:34Z</time>
      </trkpt>
      <trkpt lat="47.7732" lon="-3.54924">
        <ele>28</ele>
        <time>2020-07-10T08:38:35Z</time>
      </trkpt>
      <trkpt lat="47.77318" lon="-3.54921">
        <ele>28</ele>
        <time>2020-07-10T08:38:36Z</time>
      </trkpt>
      <trkpt lat="47.77318" lon="-3.54918">
        <ele>28</ele>
        <time>2020-07-10T08:38:37Z</time>
      </trkpt>
      <trkpt lat="47.77317" lon="-3.54915">
        <ele>28.04</ele>
        <time>2020-07-10T08:38:38Z</time>
      </trkpt>
      <trkpt lat="47.77317" lon="-3.54912">
        <ele>28.13</ele>
        <time>2020-07-10T08:38:39Z</time>
      </trkpt>
      <trkpt lat="47.77317" lon="-3.54909">
        <ele>28.23</ele>
        <time>2020-07-10T08:38:40Z</time>
      </trkpt>
      <trkpt lat="47.77318" lon="-3.54905">
        <ele>28.36</ele>
        <time>2020-07-10T08:38:41Z</time>
      </trkpt>
      <trkpt lat="47.77319" lon="-3.54903">
        <ele>28.46</ele>
        <time>2020-07-10T08:38:42Z</time>
      </trkpt>
      <trkpt lat="47.7732" lon="-3.54901">
        <ele>28.54</ele>
        <time>2020-07-10T08:38:43Z</time>
      </trkpt>
      <trkpt lat="47.77321" lon="-3.549">
        <ele>28.59</ele>
        <time>2020-07-10T08:38:44Z</time>
      </trkpt>
      <trkpt lat="47.77323" lon="-3.54898">
        <ele>28.65</ele>
        <time>2020-07-10T08:38:45Z</time>
      </trkpt>
      <trkpt lat="47.77325" lon="-3.54896">
        <ele>28.73</ele>
        <time>2020-07-10T08:38:46Z</time>
      </trkpt>
      <trkpt lat="47.77326" lon="-3.54894">
        <ele>28.8</ele>
        <time>2020-07-10T08:38:47Z</time>
      </trkpt>
      <trkpt lat="47.77327" lon="-3.54891">
        <ele>28.9</ele>
        <time>2020-07-10T08:38:48Z</time>
      </trkpt>
      <trkpt lat="47.77327" lon="-3.54888">
        <ele>29</ele>
        <time>2020-07-10T08:38:49Z</time>
      </trkpt>
      <trkpt lat="47.77326" lon="-3.54884">
        <ele>29.11</ele>
        <time>2020-07-10T08:38:50Z</time>
      </trkpt>
      <trkpt lat="47.77326" lon="-3.54881">
        <ele>29.23</ele>
        <time>2020-07-10T08:38:51Z</time>
      </trkpt>
      <trkpt lat="47.77327" lon="-3.54878">
        <ele>29.35</ele>
        <time>2020-07-10T08:38:52Z</time>
      </trkpt>
      <trkpt lat="47.77327" lon="-3.54875">
        <ele>29.47</ele>
        <time>2020-07-10T08:38:53Z</time>
      </trkpt>
      <trkpt lat="47.77327" lon="-3.5487">
        <ele>29.61</ele>
        <time>2020-07-10T08:38:54Z</time>
      </trkpt>
      <trkpt lat="47.77328" lon="-3.54866">
        <ele>29.75</ele>
        <time>2020-07-10T08:38:55Z</time>
      </trkpt>
      <trkpt lat="47.77328" lon="-3.54862">
        <ele>29.89</ele>
        <time>2020-07-10T08:38:56Z</time>
      </trkpt>
      <trkpt lat="47.77329" lon="-3.54857">
        <ele>29.97</ele>
        <time>2020-07-10T08:38:57Z</time>
      </trkpt>
      <trkpt lat="47.77329" lon="-3.54853">
        <ele>29.99</ele>
        <time>2020-07-10T08:38:58Z</time>
      </trkpt>
      <trkpt lat="47.77329" lon="-3.54849">
        <ele>30</ele>
        <time>2020-07-10T08:38:59Z</time>
      </trkpt>
      <trkpt lat="47.77329" lon="-3.54845">
        <ele>30</ele>
        <time>2020-07-10T08:39:00Z</time>
      </trkpt>
      <trkpt lat="47.7733" lon="-3.54841">
        <ele>30</ele>
        <time>2020-07-10T08:39:01Z</time>
      </trkpt>
      <trkpt lat="47.77329" lon="-3.54837">
        <ele>30</ele>
        <time>2020-07-10T08:39:02Z</time>
      </trkpt>
      <trkpt lat="47.77329" lon="-3.54832">
        <ele>30.05</ele>
        <time>2020-07-10T08:39:03Z</time>
      </trkpt>
      <trkpt lat="47.77329" lon="-3.54828">
        <ele>30.14</ele>
        <time>2020-07-10T08:39:04Z</time>
      </trkpt>
      <trkpt lat="47.77329" lon="-3.54826">
        <ele>30.23</ele>
        <time>2020-07-10T08:39:05Z</time>
      </trkpt>
      <trkpt lat="47.77329" lon="-3.54825">
        <ele>30.27</ele>
        <time>2020-07-10T08:39:06Z</time>
      </trkpt>
      <trkpt lat="47.77329" lon="-3.54826">
        <ele>30.26</ele>
        <time>2020-07-10T08:39:07Z</time>
      </trkpt>
      <trkpt lat="47.77329" lon="-3.54827">
        <ele>30.23</ele>
        <time>2020-07-10T08:39:08Z</time>
      </trkpt>
      <trkpt lat="47.77329" lon="-3.54827">
        <ele>30.23</ele>
        <time>2020-07-10T08:39:09Z</time>
      </trkpt>
      <trkpt lat="47.77329" lon="-3.54828">
        <ele>30.21</ele>
        <time>2020-07-10T08:39:10Z</time>
      </trkpt>
      <trkpt lat="47.77329" lon="-3.54827">
        <ele>30.22</ele>
        <time>2020-07-10T08:39:11Z</time>
      </trkpt>
      <trkpt lat="47.77329" lon="-3.54828">
        <ele>30.21</ele>
        <time>2020-07-10T08:39:12Z</time>
      </trkpt>
      <trkpt lat="47.77329" lon="-3.54827">
        <ele>30.21</ele>
        <time>2020-07-10T08:39:13Z</time>
      </trkpt>
      <trkpt lat="47.77329" lon="-3.54826">
        <ele>30.24</ele>
        <time>2020-07-10T08:39:14Z</time>
      </trkpt>
      <trkpt lat="47.7733" lon="-3.54825">
        <ele>30.28</ele>
        <time>2020-07-10T08:39:15Z</time>
      </trkpt>
      <trkpt lat="47.7733" lon="-3.54823">
        <ele>30.35</ele>
        <time>2020-07-10T08:39:16Z</time>
      </trkpt>
      <trkpt lat="47.7733" lon="-3.54821">
        <ele>30.42</ele>
        <time>2020-07-10T08:39:17Z</time>
      </trkpt>
      <trkpt lat="47.7733" lon="-3.54818">
        <ele>30.51</ele>
        <time>2020-07-10T08:39:18Z</time>
      </trkpt>
      <trkpt lat="47.77329" lon="-3.54815">
        <ele>30.61</ele>
        <time>2020-07-10T08:39:19Z</time>
      </trkpt>
      <trkpt lat="47.77328" lon="-3.54812">
        <ele>30.72</ele>
        <time>2020-07-10T08:39:20Z</time>
      </trkpt>
      <trkpt lat="47.77328" lon="-3.54809">
        <ele>30.84</ele>
        <time>2020-07-10T08:39:21Z</time>
      </trkpt>
      <trkpt lat="47.77328" lon="-3.54806">
        <ele>30.93</ele>
        <time>2020-07-10T08:39:22Z</time>
      </trkpt>
      <trkpt lat="47.77327" lon="-3.54804">
        <ele>31.01</ele>
        <time>2020-07-10T08:39:23Z</time>
      </trkpt>
      <trkpt lat="47.77326" lon="-3.548">
        <ele>31.13</ele>
        <time>2020-07-10T08:39:24Z</time>
      </trkpt>
      <trkpt lat="47.77325" lon="-3.54797">
        <ele>31.26</ele>
        <time>2020-07-10T08:39:25Z</time>
      </trkpt>
      <trkpt lat="47.77323" lon="-3.54794">
        <ele>31.37</ele>
        <time>2020-07-10T08:39:26Z</time>
      </trkpt>
      <trkpt lat="47.77322" lon="-3.5479">
        <ele>31.5</ele>
        <time>2020-07-10T08:39:27Z</time>
      </trkpt>
      <trkpt lat="47.77321" lon="-3.54786">
        <ele>31.64</ele>
        <time>2020-07-10T08:39:28Z</time>
      </trkpt>
      <trkpt lat="47.77319" lon="-3.54783">
        <ele>31.77</ele>
        <time>2020-07-10T08:39:29Z</time>
      </trkpt>
      <trkpt lat="47.77317" lon="-3.54779">
        <ele>31.89</ele>
        <time>2020-07-10T08:39:30Z</time>
      </trkpt>
      <trkpt lat="47.77316" lon="-3.54777">
        <ele>31.99</ele>
        <time>2020-07-10T08:39:31Z</time>
      </trkpt>
      <trkpt lat="47.77313" lon="-3.54774">
        <ele>32.1</ele>
        <time>2020-07-10T08:39:32Z</time>
      </trkpt>
      <trkpt lat="47.77312" lon="-3.54771">
        <ele>32.21</ele>
        <time>2020-07-10T08:39:33Z</time>
      </trkpt>
      <trkpt lat="47.7731" lon="-3.54768">
        <ele>32.31</ele>
        <time>2020-07-10T08:39:34Z</time>
      </trkpt>
      <trkpt lat="47.77309" lon="-3.54764">
        <ele>32.43</ele>
        <time>2020-07-10T08:39:35Z</time>
      </trkpt>
      <trkpt lat="47.77307" lon="-3.54761">
        <ele>32.55</ele>
        <time>2020-07-10T08:39:36Z</time>
      </trkpt>
      <trkpt lat="47.77305" lon="-3.54757">
        <ele>32.66</ele>
        <time>2020-07-10T08:39:37Z</time>
      </trkpt>
      <trkpt lat="47.77303" lon="-3.54754">
        <ele>32.74</ele>
        <time>2020-07-10T08:39:38Z</time>
      </trkpt>
      <trkpt lat="47.77301" lon="-3.5475">
        <ele>32.81</ele>
        <time>2020-07-10T08:39:39Z</time>
      </trkpt>
      <trkpt lat="47.773" lon="-3.54747">
        <ele>32.88</ele>
        <time>2020-07-10T08:39:40Z</time>
      </trkpt>
      <trkpt lat="47.77298" lon="-3.54743">
        <ele>32.95</ele>
        <time>2020-07-10T08:39:41Z</time>
      </trkpt>
      <trkpt lat="47.77296" lon="-3.54739">
        <ele>33.03</ele>
        <time>2020-07-10T08:39:42Z</time>
      </trkpt>
      <trkpt lat="47.77295" lon="-3.54735">
        <ele>33.12</ele>
        <time>2020-07-10T08:39:43Z</time>
      </trkpt>
      <trkpt lat="47.77293" lon="-3.54731">
        <ele>33.21</ele>
        <time>2020-07-10T08:39:44Z</time>
      </trkpt>
      <trkpt lat="47.77292" lon="-3.54727">
        <ele>33.29</ele>
        <time>2020-07-10T08:39:45Z</time>
      </trkpt>
      <trkpt lat="47.7729" lon="-3.5472">
        <ele>33.4</ele>
        <time>2020-07-10T08:39:46Z</time>
      </trkpt>
      <trkpt lat="47.77289" lon="-3.54715">
        <ele>33.39</ele>
        <time>2020-07-10T08:39:47Z</time>
      </trkpt>
      <trkpt lat="47.77287" lon="-3.5471">
        <ele>33.36</ele>
        <time>2020-07-10T08:39:48Z</time>
      </trkpt>
      <trkpt lat="47.77287" lon="-3.54704">
        <ele>33.34</ele>
        <time>2020-07-10T08:39:49Z</time>
      </trkpt>
      <trkpt lat="47.77287" lon="-3.54701">
        <ele>33.33</ele>
        <time>2020-07-10T08:39:50Z</time>
      </trkpt>
      <trkpt lat="47.77287" lon="-3.54695">
        <ele>33.33</ele>
        <time>2020-07-10T08:39:51Z</time>
      </trkpt>
      <trkpt lat="47.77287" lon="-3.5469">
        <ele>33.45</ele>
        <time>2020-07-10T08:39:52Z</time>
      </trkpt>
      <trkpt lat="47.77287" lon="-3.54684">
        <ele>33.64</ele>
        <time>2020-07-10T08:39:53Z</time>
      </trkpt>
      <trkpt lat="47.77288" lon="-3.54679">
        <ele>33.83</ele>
        <time>2020-07-10T08:39:54Z</time>
      </trkpt>
      <trkpt lat="47.77288" lon="-3.54674">
        <ele>34.03</ele>
        <time>2020-07-10T08:39:55Z</time>
      </trkpt>
      <trkpt lat="47.77288" lon="-3.54668">
        <ele>34.24</ele>
        <time>2020-07-10T08:39:56Z</time>
      </trkpt>
      <trkpt lat="47.77288" lon="-3.54663">
        <ele>34.43</ele>
        <time>2020-07-10T08:39:57Z</time>
      </trkpt>
      <trkpt lat="47.77289" lon="-3.54658">
        <ele>34.64</ele>
        <time>2020-07-10T08:39:58Z</time>
      </trkpt>
      <trkpt lat="47.77289" lon="-3.54652">
        <ele>34.83</ele>
        <time>2020-07-10T08:39:59Z</time>
      </trkpt>
      <trkpt lat="47.7729" lon="-3.54646">
        <ele>35.07</ele>
        <time>2020-07-10T08:40:00Z</time>
      </trkpt>
      <trkpt lat="47.7729" lon="-3.54641">
        <ele>35.27</ele>
        <time>2020-07-10T08:40:01Z</time>
      </trkpt>
      <trkpt lat="47.7729" lon="-3.54636">
        <ele>35.46</ele>
        <time>2020-07-10T08:40:02Z</time>
      </trkpt>
      <trkpt lat="47.7729" lon="-3.54632">
        <ele>35.61</ele>
        <time>2020-07-10T08:40:03Z</time>
      </trkpt>
      <trkpt lat="47.7729" lon="-3.54628">
        <ele>35.76</ele>
        <time>2020-07-10T08:40:04Z</time>
      </trkpt>
      <trkpt lat="47.77289" lon="-3.54623">
        <ele>35.9</ele>
        <time>2020-07-10T08:40:05Z</time>
      </trkpt>
      <trkpt lat="47.77287" lon="-3.54619">
        <ele>36</ele>
        <time>2020-07-10T08:40:06Z</time>
      </trkpt>
      <trkpt lat="47.77286" lon="-3.54613">
        <ele>36.14</ele>
        <time>2020-07-10T08:40:07Z</time>
      </trkpt>
      <trkpt lat="47.77284" lon="-3.54609">
        <ele>36.25</ele>
        <time>2020-07-10T08:40:08Z</time>
      </trkpt>
      <trkpt lat="47.77283" lon="-3.54605">
        <ele>36.34</ele>
        <time>2020-07-10T08:40:09Z</time>
      </trkpt>
      <trkpt lat="47.77281" lon="-3.54601">
        <ele>36.43</ele>
        <time>2020-07-10T08:40:10Z</time>
      </trkpt>
      <trkpt lat="47.7728" lon="-3.54597">
        <ele>36.53</ele>
        <time>2020-07-10T08:40:11Z</time>
      </trkpt>
      <trkpt lat="47.77278" lon="-3.54592">
        <ele>36.63</ele>
        <time>2020-07-10T08:40:12Z</time>
      </trkpt>
      <trkpt lat="47.77276" lon="-3.54588">
        <ele>36.69</ele>
        <time>2020-07-10T08:40:13Z</time>
      </trkpt>
      <trkpt lat="47.77274" lon="-3.54583">
        <ele>36.76</ele>
        <time>2020-07-10T08:40:14Z</time>
      </trkpt>
      <trkpt lat="47.77273" lon="-3.54577">
        <ele>36.83</ele>
        <time>2020-07-10T08:40:15Z</time>
      </trkpt>
      <trkpt lat="47.77271" lon="-3.54571">
        <ele>36.91</ele>
        <time>2020-07-10T08:40:16Z</time>
      </trkpt>
      <trkpt lat="47.77269" lon="-3.54564">
        <ele>37.02</ele>
        <time>2020-07-10T08:40:17Z</time>
      </trkpt>
      <trkpt lat="47.77267" lon="-3.54559">
        <ele>37.09</ele>
        <time>2020-07-10T08:40:18Z</time>
      </trkpt>
      <trkpt lat="47.77265" lon="-3.54553">
        <ele>37.15</ele>
        <time>2020-07-10T08:40:19Z</time>
      </trkpt>
      <trkpt lat="47.77263" lon="-3.54549">
        <ele>37.2</ele>
        <time>2020-07-10T08:40:20Z</time>
      </trkpt>
      <trkpt lat="47.77261" lon="-3.54543">
        <ele>37.24</ele>
        <time>2020-07-10T08:40:21Z</time>
      </trkpt>
      <trkpt lat="47.77259" lon="-3.54538">
        <ele>37.28</ele>
        <time>2020-07-10T08:40:22Z</time>
      </trkpt>
      <trkpt lat="47.77257" lon="-3.54533">
        <ele>37.32</ele>
        <time>2020-07-10T08:40:23Z</time>
      </trkpt>
      <trkpt lat="47.77255" lon="-3.54526">
        <ele>37.38</ele>
        <time>2020-07-10T08:40:24Z</time>
      </trkpt>
      <trkpt lat="47.77253" lon="-3.54521">
        <ele>37.45</ele>
        <time>2020-07-10T08:40:25Z</time>
      </trkpt>
      <trkpt lat="47.7725" lon="-3.54516">
        <ele>37.47</ele>
        <time>2020-07-10T08:40:26Z</time>
      </trkpt>
      <trkpt lat="47.77248" lon="-3.5451">
        <ele>37.44</ele>
        <time>2020-07-10T08:40:27Z</time>
      </trkpt>
      <trkpt lat="47.77245" lon="-3.54505">
        <ele>37.35</ele>
        <time>2020-07-10T08:40:28Z</time>
      </trkpt>
      <trkpt lat="47.77242" lon="-3.545">
        <ele>37.2</ele>
        <time>2020-07-10T08:40:29Z</time>
      </trkpt>
      <trkpt lat="47.77239" lon="-3.54495">
        <ele>37.02</ele>
        <time>2020-07-10T08:40:30Z</time>
      </trkpt>
      <trkpt lat="47.77235" lon="-3.54491">
        <ele>36.81</ele>
        <time>2020-07-10T08:40:31Z</time>
      </trkpt>
      <trkpt lat="47.77232" lon="-3.54487">
        <ele>36.6</ele>
        <time>2020-07-10T08:40:32Z</time>
      </trkpt>
      <trkpt lat="47.77229" lon="-3.54483">
        <ele>36.41</ele>
        <time>2020-07-10T08:40:33Z</time>
      </trkpt>
      <trkpt lat="47.77225" lon="-3.54483">
        <ele>36.05</ele>
        <time>2020-07-10T08:40:34Z</time>
      </trkpt>
      <trkpt lat="47.77222" lon="-3.54484">
        <ele>35.69</ele>
        <time>2020-07-10T08:40:35Z</time>
      </trkpt>
      <trkpt lat="47.77218" lon="-3.54485">
        <ele>35.36</ele>
        <time>2020-07-10T08:40:36Z</time>
      </trkpt>
      <trkpt lat="47.77214" lon="-3.54486">
        <ele>35.03</ele>
        <time>2020-07-10T08:40:37Z</time>
      </trkpt>
      <trkpt lat="47.77209" lon="-3.54484">
        <ele>34.74</ele>
        <time>2020-07-10T08:40:38Z</time>
      </trkpt>
      <trkpt lat="47.77205" lon="-3.54482">
        <ele>34.51</ele>
        <time>2020-07-10T08:40:39Z</time>
      </trkpt>
      <trkpt lat="47.77201" lon="-3.54479">
        <ele>34.32</ele>
        <time>2020-07-10T08:40:40Z</time>
      </trkpt>
      <trkpt lat="47.77198" lon="-3.54479">
        <ele>34.08</ele>
        <time>2020-07-10T08:40:41Z</time>
      </trkpt>
      <trkpt lat="47.77195" lon="-3.54481">
        <ele>33.83</ele>
        <time>2020-07-10T08:40:42Z</time>
      </trkpt>
      <trkpt lat="47.77192" lon="-3.54483">
        <ele>33.61</ele>
        <time>2020-07-10T08:40:43Z</time>
      </trkpt>
      <trkpt lat="47.77188" lon="-3.54487">
        <ele>33.36</ele>
        <time>2020-07-10T08:40:44Z</time>
      </trkpt>
      <trkpt lat="47.77185" lon="-3.54492">
        <ele>33.08</ele>
        <time>2020-07-10T08:40:45Z</time>
      </trkpt>
      <trkpt lat="47.77183" lon="-3.54499">
        <ele>32.76</ele>
        <time>2020-07-10T08:40:46Z</time>
      </trkpt>
      <trkpt lat="47.7718" lon="-3.54506">
        <ele>32.42</ele>
        <time>2020-07-10T08:40:47Z</time>
      </trkpt>
      <trkpt lat="47.77178" lon="-3.54513">
        <ele>32.09</ele>
        <time>2020-07-10T08:40:48Z</time>
      </trkpt>
      <trkpt lat="47.77175" lon="-3.5452">
        <ele>31.75</ele>
        <time>2020-07-10T08:40:49Z</time>
      </trkpt>
      <trkpt lat="47.77173" lon="-3.54527">
        <ele>31.39</ele>
        <time>2020-07-10T08:40:50Z</time>
      </trkpt>
      <trkpt lat="47.7717" lon="-3.54534">
        <ele>31.05</ele>
        <time>2020-07-10T08:40:51Z</time>
      </trkpt>
      <trkpt lat="47.77168" lon="-3.54539">
        <ele>30.74</ele>
        <time>2020-07-10T08:40:52Z</time>
      </trkpt>
      <trkpt lat="47.77166" lon="-3.54543">
        <ele>30.53</ele>
        <time>2020-07-10T08:40:53Z</time>
      </trkpt>
      <trkpt lat="47.77167" lon="-3.54547">
        <ele>30.4</ele>
        <time>2020-07-10T08:40:54Z</time>
      </trkpt>
      <trkpt lat="47.77168" lon="-3.54551">
        <ele>30.27</ele>
        <time>2020-07-10T08:40:55Z</time>
      </trkpt>
      <trkpt lat="47.77167" lon="-3.54556">
        <ele>30.08</ele>
        <time>2020-07-10T08:40:56Z</time>
      </trkpt>
      <trkpt lat="47.77165" lon="-3.54559">
        <ele>29.85</ele>
        <time>2020-07-10T08:40:57Z</time>
      </trkpt>
      <trkpt lat="47.77164" lon="-3.54562">
        <ele>29.66</ele>
        <time>2020-07-10T08:40:58Z</time>
      </trkpt>
      <trkpt lat="47.77163" lon="-3.54567">
        <ele>29.43</ele>
        <time>2020-07-10T08:40:59Z</time>
      </trkpt>
      <trkpt lat="47.77162" lon="-3.54572">
        <ele>29.21</ele>
        <time>2020-07-10T08:41:00Z</time>
      </trkpt>
      <trkpt lat="47.77161" lon="-3.54576">
        <ele>28.94</ele>
        <time>2020-07-10T08:41:01Z</time>
      </trkpt>
      <trkpt lat="47.77156" lon="-3.54584">
        <ele>28.44</ele>
        <time>2020-07-10T08:41:02Z</time>
      </trkpt>
      <trkpt lat="47.77152" lon="-3.54592">
        <ele>27.91</ele>
        <time>2020-07-10T08:41:03Z</time>
      </trkpt>
      <trkpt lat="47.77148" lon="-3.54601">
        <ele>27.31</ele>
        <time>2020-07-10T08:41:04Z</time>
      </trkpt>
      <trkpt lat="47.77144" lon="-3.54609">
        <ele>26.7</ele>
        <time>2020-07-10T08:41:05Z</time>
      </trkpt>
      <trkpt lat="47.7714" lon="-3.5462">
        <ele>26.27</ele>
        <time>2020-07-10T08:41:06Z</time>
      </trkpt>
      <trkpt lat="47.77137" lon="-3.54631">
        <ele>25.98</ele>
        <time>2020-07-10T08:41:07Z</time>
      </trkpt>
      <trkpt lat="47.77133" lon="-3.54642">
        <ele>25.59</ele>
        <time>2020-07-10T08:41:08Z</time>
      </trkpt>
      <trkpt lat="47.77131" lon="-3.54654">
        <ele>24.82</ele>
        <time>2020-07-10T08:41:09Z</time>
      </trkpt>
      <trkpt lat="47.77128" lon="-3.54665">
        <ele>24.05</ele>
        <time>2020-07-10T08:41:10Z</time>
      </trkpt>
      <trkpt lat="47.77125" lon="-3.54676">
        <ele>23.3</ele>
        <time>2020-07-10T08:41:11Z</time>
      </trkpt>
      <trkpt lat="47.77121" lon="-3.54686">
        <ele>22.67</ele>
        <time>2020-07-10T08:41:12Z</time>
      </trkpt>
      <trkpt lat="47.77117" lon="-3.54695">
        <ele>22.19</ele>
        <time>2020-07-10T08:41:13Z</time>
      </trkpt>
      <trkpt lat="47.77113" lon="-3.54701">
        <ele>21.7</ele>
        <time>2020-07-10T08:41:14Z</time>
      </trkpt>
      <trkpt lat="47.77109" lon="-3.54707">
        <ele>21.19</ele>
        <time>2020-07-10T08:41:15Z</time>
      </trkpt>
      <trkpt lat="47.77103" lon="-3.54712">
        <ele>20.68</ele>
        <time>2020-07-10T08:41:16Z</time>
      </trkpt>
      <trkpt lat="47.77099" lon="-3.54717">
        <ele>20.13</ele>
        <time>2020-07-10T08:41:17Z</time>
      </trkpt>
      <trkpt lat="47.77093" lon="-3.54721">
        <ele>19.66</ele>
        <time>2020-07-10T08:41:18Z</time>
      </trkpt>
      <trkpt lat="47.77087" lon="-3.54724">
        <ele>19.25</ele>
        <time>2020-07-10T08:41:19Z</time>
      </trkpt>
      <trkpt lat="47.77081" lon="-3.54727">
        <ele>19</ele>
        <time>2020-07-10T08:41:20Z</time>
      </trkpt>
      <trkpt lat="47.77076" lon="-3.5473">
        <ele>18.94</ele>
        <time>2020-07-10T08:41:21Z</time>
      </trkpt>
      <trkpt lat="47.77071" lon="-3.54733">
        <ele>18.93</ele>
        <time>2020-07-10T08:41:22Z</time>
      </trkpt>
      <trkpt lat="47.77065" lon="-3.54735">
        <ele>18.89</ele>
        <time>2020-07-10T08:41:23Z</time>
      </trkpt>
      <trkpt lat="47.7706" lon="-3.54738">
        <ele>18.81</ele>
        <time>2020-07-10T08:41:24Z</time>
      </trkpt>
      <trkpt lat="47.77056" lon="-3.54742">
        <ele>18.64</ele>
        <time>2020-07-10T08:41:25Z</time>
      </trkpt>
      <trkpt lat="47.77051" lon="-3.54746">
        <ele>18.58</ele>
        <time>2020-07-10T08:41:26Z</time>
      </trkpt>
      <trkpt lat="47.77046" lon="-3.54751">
        <ele>18.61</ele>
        <time>2020-07-10T08:41:27Z</time>
      </trkpt>
      <trkpt lat="47.77042" lon="-3.54755">
        <ele>18.67</ele>
        <time>2020-07-10T08:41:28Z</time>
      </trkpt>
      <trkpt lat="47.77038" lon="-3.5476">
        <ele>18.68</ele>
        <time>2020-07-10T08:41:29Z</time>
      </trkpt>
      <trkpt lat="47.77034" lon="-3.54764">
        <ele>18.66</ele>
        <time>2020-07-10T08:41:30Z</time>
      </trkpt>
      <trkpt lat="47.7703" lon="-3.54766">
        <ele>18.7</ele>
        <time>2020-07-10T08:41:31Z</time>
      </trkpt>
      <trkpt lat="47.77026" lon="-3.54769">
        <ele>18.73</ele>
        <time>2020-07-10T08:41:32Z</time>
      </trkpt>
      <trkpt lat="47.77021" lon="-3.54773">
        <ele>18.78</ele>
        <time>2020-07-10T08:41:33Z</time>
      </trkpt>
      <trkpt lat="47.77017" lon="-3.54777">
        <ele>18.83</ele>
        <time>2020-07-10T08:41:34Z</time>
      </trkpt>
      <trkpt lat="47.77012" lon="-3.5478">
        <ele>18.86</ele>
        <time>2020-07-10T08:41:35Z</time>
      </trkpt>
      <trkpt lat="47.77008" lon="-3.54785">
        <ele>18.87</ele>
        <time>2020-07-10T08:41:36Z</time>
      </trkpt>
      <trkpt lat="47.77004" lon="-3.54789">
        <ele>18.89</ele>
        <time>2020-07-10T08:41:37Z</time>
      </trkpt>
      <trkpt lat="47.76999" lon="-3.54793">
        <ele>18.93</ele>
        <time>2020-07-10T08:41:38Z</time>
      </trkpt>
      <trkpt lat="47.76994" lon="-3.54798">
        <ele>18.79</ele>
        <time>2020-07-10T08:41:39Z</time>
      </trkpt>
      <trkpt lat="47.76989" lon="-3.54802">
        <ele>18.67</ele>
        <time>2020-07-10T08:41:40Z</time>
      </trkpt>
      <trkpt lat="47.76984" lon="-3.54806">
        <ele>18.57</ele>
        <time>2020-07-10T08:41:41Z</time>
      </trkpt>
      <trkpt lat="47.76979" lon="-3.54809">
        <ele>18.34</ele>
        <time>2020-07-10T08:41:42Z</time>
      </trkpt>
      <trkpt lat="47.76974" lon="-3.54812">
        <ele>18.07</ele>
        <time>2020-07-10T08:41:43Z</time>
      </trkpt>
      <trkpt lat="47.76969" lon="-3.54814">
        <ele>17.62</ele>
        <time>2020-07-10T08:41:44Z</time>
      </trkpt>
      <trkpt lat="47.76964" lon="-3.54815">
        <ele>17.16</ele>
        <time>2020-07-10T08:41:45Z</time>
      </trkpt>
      <trkpt lat="47.76959" lon="-3.54814">
        <ele>16.75</ele>
        <time>2020-07-10T08:41:46Z</time>
      </trkpt>
      <trkpt lat="47.76955" lon="-3.54813">
        <ele>16.45</ele>
        <time>2020-07-10T08:41:47Z</time>
      </trkpt>
      <trkpt lat="47.76949" lon="-3.54813">
        <ele>16.07</ele>
        <time>2020-07-10T08:41:48Z</time>
      </trkpt>
      <trkpt lat="47.76945" lon="-3.54815">
        <ele>15.58</ele>
        <time>2020-07-10T08:41:49Z</time>
      </trkpt>
      <trkpt lat="47.76939" lon="-3.54817">
        <ele>15.1</ele>
        <time>2020-07-10T08:41:50Z</time>
      </trkpt>
      <trkpt lat="47.76933" lon="-3.54819">
        <ele>14.62</ele>
        <time>2020-07-10T08:41:51Z</time>
      </trkpt>
      <trkpt lat="47.76926" lon="-3.54819">
        <ele>14.23</ele>
        <time>2020-07-10T08:41:52Z</time>
      </trkpt>
      <trkpt lat="47.76919" lon="-3.54818">
        <ele>13.85</ele>
        <time>2020-07-10T08:41:53Z</time>
      </trkpt>
      <trkpt lat="47.76912" lon="-3.54818">
        <ele>13.59</ele>
        <time>2020-07-10T08:41:54Z</time>
      </trkpt>
      <trkpt lat="47.76906" lon="-3.54817">
        <ele>13.43</ele>
        <time>2020-07-10T08:41:55Z</time>
      </trkpt>
      <trkpt lat="47.76899" lon="-3.54816">
        <ele>13.28</ele>
        <time>2020-07-10T08:41:56Z</time>
      </trkpt>
      <trkpt lat="47.76893" lon="-3.54816">
        <ele>13.15</ele>
        <time>2020-07-10T08:41:57Z</time>
      </trkpt>
      <trkpt lat="47.76887" lon="-3.54815">
        <ele>13.04</ele>
        <time>2020-07-10T08:41:58Z</time>
      </trkpt>
      <trkpt lat="47.76883" lon="-3.54814">
        <ele>13.01</ele>
        <time>2020-07-10T08:41:59Z</time>
      </trkpt>
      <trkpt lat="47.76878" lon="-3.54813">
        <ele>13</ele>
        <time>2020-07-10T08:42:00Z</time>
      </trkpt>
      <trkpt lat="47.76874" lon="-3.54812">
        <ele>13</ele>
        <time>2020-07-10T08:42:01Z</time>
      </trkpt>
      <trkpt lat="47.7687" lon="-3.5481">
        <ele>13</ele>
        <time>2020-07-10T08:42:02Z</time>
      </trkpt>
      <trkpt lat="47.76866" lon="-3.54809">
        <ele>13</ele>
        <time>2020-07-10T08:42:03Z</time>
      </trkpt>
      <trkpt lat="47.76861" lon="-3.54809">
        <ele>13.01</ele>
        <time>2020-07-10T08:42:04Z</time>
      </trkpt>
      <trkpt lat="47.76856" lon="-3.54809">
        <ele>13.13</ele>
        <time>2020-07-10T08:42:05Z</time>
      </trkpt>
      <trkpt lat="47.7685" lon="-3.54809">
        <ele>13.28</ele>
        <time>2020-07-10T08:42:06Z</time>
      </trkpt>
      <trkpt lat="47.76845" lon="-3.54809">
        <ele>13.44</ele>
        <time>2020-07-10T08:42:07Z</time>
      </trkpt>
      <trkpt lat="47.7684" lon="-3.54808">
        <ele>13.61</ele>
        <time>2020-07-10T08:42:08Z</time>
      </trkpt>
      <trkpt lat="47.76835" lon="-3.54808">
        <ele>13.78</ele>
        <time>2020-07-10T08:42:09Z</time>
      </trkpt>
      <trkpt lat="47.76831" lon="-3.54808">
        <ele>14.01</ele>
        <time>2020-07-10T08:42:10Z</time>
      </trkpt>
      <trkpt lat="47.76827" lon="-3.54807">
        <ele>14.31</ele>
        <time>2020-07-10T08:42:11Z</time>
      </trkpt>
      <trkpt lat="47.76823" lon="-3.54807">
        <ele>14.59</ele>
        <time>2020-07-10T08:42:12Z</time>
      </trkpt>
      <trkpt lat="47.7682" lon="-3.54806">
        <ele>14.84</ele>
        <time>2020-07-10T08:42:13Z</time>
      </trkpt>
      <trkpt lat="47.76817" lon="-3.54805">
        <ele>15.08</ele>
        <time>2020-07-10T08:42:14Z</time>
      </trkpt>
      <trkpt lat="47.76814" lon="-3.54802">
        <ele>15.31</ele>
        <time>2020-07-10T08:42:15Z</time>
      </trkpt>
      <trkpt lat="47.76813" lon="-3.54799">
        <ele>15.47</ele>
        <time>2020-07-10T08:42:16Z</time>
      </trkpt>
      <trkpt lat="47.76812" lon="-3.54795">
        <ele>15.58</ele>
        <time>2020-07-10T08:42:17Z</time>
      </trkpt>
      <trkpt lat="47.76812" lon="-3.5479">
        <ele>15.64</ele>
        <time>2020-07-10T08:42:18Z</time>
      </trkpt>
      <trkpt lat="47.76813" lon="-3.54785">
        <ele>15.67</ele>
        <time>2020-07-10T08:42:19Z</time>
      </trkpt>
      <trkpt lat="47.76813" lon="-3.54779">
        <ele>15.7</ele>
        <time>2020-07-10T08:42:20Z</time>
      </trkpt>
      <trkpt lat="47.76813" lon="-3.54773">
        <ele>15.72</ele>
        <time>2020-07-10T08:42:21Z</time>
      </trkpt>
      <trkpt lat="47.76813" lon="-3.54767">
        <ele>15.72</ele>
        <time>2020-07-10T08:42:22Z</time>
      </trkpt>
      <trkpt lat="47.76814" lon="-3.5476">
        <ele>15.71</ele>
        <time>2020-07-10T08:42:23Z</time>
      </trkpt>
      <trkpt lat="47.76814" lon="-3.54755">
        <ele>15.69</ele>
        <time>2020-07-10T08:42:24Z</time>
      </trkpt>
      <trkpt lat="47.76814" lon="-3.54749">
        <ele>15.68</ele>
        <time>2020-07-10T08:42:25Z</time>
      </trkpt>
      <trkpt lat="47.76815" lon="-3.54743">
        <ele>15.67</ele>
        <time>2020-07-10T08:42:26Z</time>
      </trkpt>
      <trkpt lat="47.76815" lon="-3.54739">
        <ele>15.66</ele>
        <time>2020-07-10T08:42:27Z</time>
      </trkpt>
      <trkpt lat="47.76815" lon="-3.54733">
        <ele>15.65</ele>
        <time>2020-07-10T08:42:28Z</time>
      </trkpt>
      <trkpt lat="47.76816" lon="-3.54728">
        <ele>15.64</ele>
        <time>2020-07-10T08:42:29Z</time>
      </trkpt>
      <trkpt lat="47.76817" lon="-3.54723">
        <ele>15.61</ele>
        <time>2020-07-10T08:42:30Z</time>
      </trkpt>
      <trkpt lat="47.76817" lon="-3.54717">
        <ele>15.73</ele>
        <time>2020-07-10T08:42:31Z</time>
      </trkpt>
      <trkpt lat="47.76819" lon="-3.54711">
        <ele>15.87</ele>
        <time>2020-07-10T08:42:32Z</time>
      </trkpt>
      <trkpt lat="47.7682" lon="-3.54705">
        <ele>16.04</ele>
        <time>2020-07-10T08:42:33Z</time>
      </trkpt>
      <trkpt lat="47.7682" lon="-3.54698">
        <ele>16.23</ele>
        <time>2020-07-10T08:42:34Z</time>
      </trkpt>
      <trkpt lat="47.76821" lon="-3.54692">
        <ele>16.43</ele>
        <time>2020-07-10T08:42:35Z</time>
      </trkpt>
      <trkpt lat="47.76822" lon="-3.54685">
        <ele>16.64</ele>
        <time>2020-07-10T08:42:36Z</time>
      </trkpt>
      <trkpt lat="47.76823" lon="-3.54678">
        <ele>16.86</ele>
        <time>2020-07-10T08:42:37Z</time>
      </trkpt>
      <trkpt lat="47.76824" lon="-3.54671">
        <ele>17.08</ele>
        <time>2020-07-10T08:42:38Z</time>
      </trkpt>
      <trkpt lat="47.76824" lon="-3.54665">
        <ele>17.29</ele>
        <time>2020-07-10T08:42:39Z</time>
      </trkpt>
      <trkpt lat="47.76825" lon="-3.54659">
        <ele>17.49</ele>
        <time>2020-07-10T08:42:40Z</time>
      </trkpt>
      <trkpt lat="47.76826" lon="-3.54652">
        <ele>17.7</ele>
        <time>2020-07-10T08:42:41Z</time>
      </trkpt>
      <trkpt lat="47.76826" lon="-3.54645">
        <ele>17.92</ele>
        <time>2020-07-10T08:42:42Z</time>
      </trkpt>
      <trkpt lat="47.76827" lon="-3.54639">
        <ele>18.15</ele>
        <time>2020-07-10T08:42:43Z</time>
      </trkpt>
      <trkpt lat="47.76827" lon="-3.54632">
        <ele>18.37</ele>
        <time>2020-07-10T08:42:44Z</time>
      </trkpt>
      <trkpt lat="47.76827" lon="-3.54626">
        <ele>18.59</ele>
        <time>2020-07-10T08:42:45Z</time>
      </trkpt>
      <trkpt lat="47.76828" lon="-3.5462">
        <ele>18.79</ele>
        <time>2020-07-10T08:42:46Z</time>
      </trkpt>
      <trkpt lat="47.76829" lon="-3.54613">
        <ele>19</ele>
        <time>2020-07-10T08:42:47Z</time>
      </trkpt>
      <trkpt lat="47.76829" lon="-3.54607">
        <ele>19.19</ele>
        <time>2020-07-10T08:42:48Z</time>
      </trkpt>
      <trkpt lat="47.7683" lon="-3.54601">
        <ele>19.36</ele>
        <time>2020-07-10T08:42:49Z</time>
      </trkpt>
      <trkpt lat="47.76831" lon="-3.54595">
        <ele>19.54</ele>
        <time>2020-07-10T08:42:50Z</time>
      </trkpt>
      <trkpt lat="47.76831" lon="-3.54589">
        <ele>19.73</ele>
        <time>2020-07-10T08:42:51Z</time>
      </trkpt>
      <trkpt lat="47.76831" lon="-3.54582">
        <ele>19.95</ele>
        <time>2020-07-10T08:42:52Z</time>
      </trkpt>
      <trkpt lat="47.76831" lon="-3.54577">
        <ele>20.15</ele>
        <time>2020-07-10T08:42:53Z</time>
      </trkpt>
      <trkpt lat="47.76832" lon="-3.54572">
        <ele>20.33</ele>
        <time>2020-07-10T08:42:54Z</time>
      </trkpt>
      <trkpt lat="47.76832" lon="-3.54566">
        <ele>20.53</ele>
        <time>2020-07-10T08:42:55Z</time>
      </trkpt>
      <trkpt lat="47.76832" lon="-3.54561">
        <ele>20.72</ele>
        <time>2020-07-10T08:42:56Z</time>
      </trkpt>
      <trkpt lat="47.76833" lon="-3.54556">
        <ele>20.9</ele>
        <time>2020-07-10T08:42:57Z</time>
      </trkpt>
      <trkpt lat="47.76833" lon="-3.54552">
        <ele>21.07</ele>
        <time>2020-07-10T08:42:58Z</time>
      </trkpt>
      <trkpt lat="47.76834" lon="-3.54546">
        <ele>21.27</ele>
        <time>2020-07-10T08:42:59Z</time>
      </trkpt>
      <trkpt lat="47.76837" lon="-3.54541">
        <ele>21.45</ele>
        <time>2020-07-10T08:43:00Z</time>
      </trkpt>
      <trkpt lat="47.76839" lon="-3.54535">
        <ele>21.64</ele>
        <time>2020-07-10T08:43:01Z</time>
      </trkpt>
      <trkpt lat="47.7684" lon="-3.54529">
        <ele>21.87</ele>
        <time>2020-07-10T08:43:02Z</time>
      </trkpt>
      <trkpt lat="47.76841" lon="-3.54522">
        <ele>22.1</ele>
        <time>2020-07-10T08:43:03Z</time>
      </trkpt>
      <trkpt lat="47.76842" lon="-3.54516">
        <ele>22.34</ele>
        <time>2020-07-10T08:43:04Z</time>
      </trkpt>
      <trkpt lat="47.76843" lon="-3.54509">
        <ele>22.57</ele>
        <time>2020-07-10T08:43:05Z</time>
      </trkpt>
      <trkpt lat="47.76843" lon="-3.54503">
        <ele>22.79</ele>
        <time>2020-07-10T08:43:06Z</time>
      </trkpt>
      <trkpt lat="47.76843" lon="-3.54497">
        <ele>23.01</ele>
        <time>2020-07-10T08:43:07Z</time>
      </trkpt>
      <trkpt lat="47.76844" lon="-3.54491">
        <ele>23.23</ele>
        <time>2020-07-10T08:43:08Z</time>
      </trkpt>
      <trkpt lat="47.76844" lon="-3.54485">
        <ele>23.45</ele>
        <time>2020-07-10T08:43:09Z</time>
      </trkpt>
      <trkpt lat="47.76845" lon="-3.5448">
        <ele>23.64</ele>
        <time>2020-07-10T08:43:10Z</time>
      </trkpt>
      <trkpt lat="47.76845" lon="-3.54475">
        <ele>23.81</ele>
        <time>2020-07-10T08:43:11Z</time>
      </trkpt>
      <trkpt lat="47.76845" lon="-3.54471">
        <ele>23.97</ele>
        <time>2020-07-10T08:43:12Z</time>
      </trkpt>
      <trkpt lat="47.76844" lon="-3.54469">
        <ele>24.07</ele>
        <time>2020-07-10T08:43:13Z</time>
      </trkpt>
      <trkpt lat="47.7684" lon="-3.54472">
        <ele>24.03</ele>
        <time>2020-07-10T08:43:14Z</time>
      </trkpt>
      <trkpt lat="47.76837" lon="-3.54475">
        <ele>23.94</ele>
        <time>2020-07-10T08:43:15Z</time>
      </trkpt>
      <trkpt lat="47.76834" lon="-3.54478">
        <ele>23.84</ele>
        <time>2020-07-10T08:43:16Z</time>
      </trkpt>
      <trkpt lat="47.76831" lon="-3.54481">
        <ele>23.73</ele>
        <time>2020-07-10T08:43:17Z</time>
      </trkpt>
      <trkpt lat="47.76828" lon="-3.54484">
        <ele>23.64</ele>
        <time>2020-07-10T08:43:18Z</time>
      </trkpt>
      <trkpt lat="47.76826" lon="-3.54486">
        <ele>23.53</ele>
        <time>2020-07-10T08:43:19Z</time>
      </trkpt>
      <trkpt lat="47.76824" lon="-3.54485">
        <ele>23.53</ele>
        <time>2020-07-10T08:43:20Z</time>
      </trkpt>
      <trkpt lat="47.76822" lon="-3.54483">
        <ele>23.59</ele>
        <time>2020-07-10T08:43:21Z</time>
      </trkpt>
      <trkpt lat="47.76821" lon="-3.54479">
        <ele>23.71</ele>
        <time>2020-07-10T08:43:22Z</time>
      </trkpt>
      <trkpt lat="47.7682" lon="-3.54474">
        <ele>23.87</ele>
        <time>2020-07-10T08:43:23Z</time>
      </trkpt>
      <trkpt lat="47.76818" lon="-3.54469">
        <ele>24.04</ele>
        <time>2020-07-10T08:43:24Z</time>
      </trkpt>
      <trkpt lat="47.76817" lon="-3.54464">
        <ele>24.22</ele>
        <time>2020-07-10T08:43:25Z</time>
      </trkpt>
      <trkpt lat="47.76815" lon="-3.54459">
        <ele>24.39</ele>
        <time>2020-07-10T08:43:26Z</time>
      </trkpt>
      <trkpt lat="47.76814" lon="-3.54454">
        <ele>24.58</ele>
        <time>2020-07-10T08:43:27Z</time>
      </trkpt>
      <trkpt lat="47.76813" lon="-3.54448">
        <ele>24.77</ele>
        <time>2020-07-10T08:43:28Z</time>
      </trkpt>
      <trkpt lat="47.76811" lon="-3.54443">
        <ele>24.96</ele>
        <time>2020-07-10T08:43:29Z</time>
      </trkpt>
      <trkpt lat="47.7681" lon="-3.54438">
        <ele>25.13</ele>
        <time>2020-07-10T08:43:30Z</time>
      </trkpt>
      <trkpt lat="47.76809" lon="-3.54432">
        <ele>25.31</ele>
        <time>2020-07-10T08:43:31Z</time>
      </trkpt>
      <trkpt lat="47.76807" lon="-3.54427">
        <ele>25.52</ele>
        <time>2020-07-10T08:43:32Z</time>
      </trkpt>
      <trkpt lat="47.76806" lon="-3.54421">
        <ele>25.75</ele>
        <time>2020-07-10T08:43:33Z</time>
      </trkpt>
      <trkpt lat="47.76805" lon="-3.54415">
        <ele>25.91</ele>
        <time>2020-07-10T08:43:34Z</time>
      </trkpt>
      <trkpt lat="47.76803" lon="-3.54409">
        <ele>25.93</ele>
        <time>2020-07-10T08:43:35Z</time>
      </trkpt>
      <trkpt lat="47.76803" lon="-3.54402">
        <ele>25.94</ele>
        <time>2020-07-10T08:43:36Z</time>
      </trkpt>
      <trkpt lat="47.76801" lon="-3.54396">
        <ele>25.95</ele>
        <time>2020-07-10T08:43:37Z</time>
      </trkpt>
      <trkpt lat="47.76799" lon="-3.5439">
        <ele>25.98</ele>
        <time>2020-07-10T08:43:38Z</time>
      </trkpt>
      <trkpt lat="47.76798" lon="-3.54384">
        <ele>26.11</ele>
        <time>2020-07-10T08:43:39Z</time>
      </trkpt>
      <trkpt lat="47.76796" lon="-3.54379">
        <ele>26.3</ele>
        <time>2020-07-10T08:43:40Z</time>
      </trkpt>
      <trkpt lat="47.76794" lon="-3.54373">
        <ele>26.49</ele>
        <time>2020-07-10T08:43:41Z</time>
      </trkpt>
      <trkpt lat="47.76793" lon="-3.54367">
        <ele>26.69</ele>
        <time>2020-07-10T08:43:42Z</time>
      </trkpt>
      <trkpt lat="47.76791" lon="-3.54361">
        <ele>26.9</ele>
        <time>2020-07-10T08:43:43Z</time>
      </trkpt>
      <trkpt lat="47.7679" lon="-3.54355">
        <ele>26.97</ele>
        <time>2020-07-10T08:43:44Z</time>
      </trkpt>
      <trkpt lat="47.76788" lon="-3.54349">
        <ele>26.99</ele>
        <time>2020-07-10T08:43:45Z</time>
      </trkpt>
      <trkpt lat="47.76787" lon="-3.54343">
        <ele>27</ele>
        <time>2020-07-10T08:43:46Z</time>
      </trkpt>
      <trkpt lat="47.76785" lon="-3.54337">
        <ele>27</ele>
        <time>2020-07-10T08:43:47Z</time>
      </trkpt>
      <trkpt lat="47.76783" lon="-3.54332">
        <ele>27.04</ele>
        <time>2020-07-10T08:43:48Z</time>
      </trkpt>
      <trkpt lat="47.76782" lon="-3.54326">
        <ele>27.18</ele>
        <time>2020-07-10T08:43:49Z</time>
      </trkpt>
      <trkpt lat="47.7678" lon="-3.54319">
        <ele>27.37</ele>
        <time>2020-07-10T08:43:50Z</time>
      </trkpt>
      <trkpt lat="47.76779" lon="-3.54313">
        <ele>27.59</ele>
        <time>2020-07-10T08:43:51Z</time>
      </trkpt>
      <trkpt lat="47.76778" lon="-3.54308">
        <ele>27.82</ele>
        <time>2020-07-10T08:43:52Z</time>
      </trkpt>
      <trkpt lat="47.76776" lon="-3.54302">
        <ele>27.92</ele>
        <time>2020-07-10T08:43:53Z</time>
      </trkpt>
      <trkpt lat="47.76775" lon="-3.54297">
        <ele>27.92</ele>
        <time>2020-07-10T08:43:54Z</time>
      </trkpt>
      <trkpt lat="47.76772" lon="-3.54292">
        <ele>27.91</ele>
        <time>2020-07-10T08:43:55Z</time>
      </trkpt>
      <trkpt lat="47.76772" lon="-3.54286">
        <ele>27.93</ele>
        <time>2020-07-10T08:43:56Z</time>
      </trkpt>
      <trkpt lat="47.76771" lon="-3.5428">
        <ele>27.96</ele>
        <time>2020-07-10T08:43:57Z</time>
      </trkpt>
      <trkpt lat="47.76771" lon="-3.54274">
        <ele>27.99</ele>
        <time>2020-07-10T08:43:58Z</time>
      </trkpt>
      <trkpt lat="47.7677" lon="-3.54266">
        <ele>28</ele>
        <time>2020-07-10T08:43:59Z</time>
      </trkpt>
      <trkpt lat="47.7677" lon="-3.54259">
        <ele>28</ele>
        <time>2020-07-10T08:44:00Z</time>
      </trkpt>
      <trkpt lat="47.7677" lon="-3.54252">
        <ele>28</ele>
        <time>2020-07-10T08:44:01Z</time>
      </trkpt>
      <trkpt lat="47.7677" lon="-3.54245">
        <ele>28.09</ele>
        <time>2020-07-10T08:44:02Z</time>
      </trkpt>
      <trkpt lat="47.7677" lon="-3.54238">
        <ele>28.23</ele>
        <time>2020-07-10T08:44:03Z</time>
      </trkpt>
      <trkpt lat="47.7677" lon="-3.54232">
        <ele>28.39</ele>
        <time>2020-07-10T08:44:04Z</time>
      </trkpt>
      <trkpt lat="47.76771" lon="-3.54225">
        <ele>28.58</ele>
        <time>2020-07-10T08:44:05Z</time>
      </trkpt>
      <trkpt lat="47.76771" lon="-3.54218">
        <ele>28.73</ele>
        <time>2020-07-10T08:44:06Z</time>
      </trkpt>
      <trkpt lat="47.76771" lon="-3.54211">
        <ele>28.82</ele>
        <time>2020-07-10T08:44:07Z</time>
      </trkpt>
      <trkpt lat="47.76772" lon="-3.54203">
        <ele>28.9</ele>
        <time>2020-07-10T08:44:08Z</time>
      </trkpt>
      <trkpt lat="47.76772" lon="-3.54196">
        <ele>28.96</ele>
        <time>2020-07-10T08:44:09Z</time>
      </trkpt>
      <trkpt lat="47.76772" lon="-3.54188">
        <ele>28.99</ele>
        <time>2020-07-10T08:44:10Z</time>
      </trkpt>
      <trkpt lat="47.76773" lon="-3.54181">
        <ele>29</ele>
        <time>2020-07-10T08:44:11Z</time>
      </trkpt>
      <trkpt lat="47.76774" lon="-3.54174">
        <ele>29</ele>
        <time>2020-07-10T08:44:12Z</time>
      </trkpt>
      <trkpt lat="47.76774" lon="-3.54166">
        <ele>29</ele>
        <time>2020-07-10T08:44:13Z</time>
      </trkpt>
      <trkpt lat="47.76774" lon="-3.54159">
        <ele>29</ele>
        <time>2020-07-10T08:44:14Z</time>
      </trkpt>
      <trkpt lat="47.76775" lon="-3.54152">
        <ele>29</ele>
        <time>2020-07-10T08:44:15Z</time>
      </trkpt>
      <trkpt lat="47.76775" lon="-3.54145">
        <ele>29</ele>
        <time>2020-07-10T08:44:16Z</time>
      </trkpt>
      <trkpt lat="47.76775" lon="-3.54138">
        <ele>29</ele>
        <time>2020-07-10T08:44:17Z</time>
      </trkpt>
      <trkpt lat="47.76776" lon="-3.54132">
        <ele>28.99</ele>
        <time>2020-07-10T08:44:18Z</time>
      </trkpt>
      <trkpt lat="47.76776" lon="-3.54125">
        <ele>28.98</ele>
        <time>2020-07-10T08:44:19Z</time>
      </trkpt>
      <trkpt lat="47.76777" lon="-3.54118">
        <ele>28.99</ele>
        <time>2020-07-10T08:44:20Z</time>
      </trkpt>
      <trkpt lat="47.76779" lon="-3.54112">
        <ele>28.97</ele>
        <time>2020-07-10T08:44:21Z</time>
      </trkpt>
      <trkpt lat="47.76781" lon="-3.54106">
        <ele>28.78</ele>
        <time>2020-07-10T08:44:22Z</time>
      </trkpt>
      <trkpt lat="47.76785" lon="-3.54103">
        <ele>28.59</ele>
        <time>2020-07-10T08:44:23Z</time>
      </trkpt>
      <trkpt lat="47.7679" lon="-3.54101">
        <ele>28.44</ele>
        <time>2020-07-10T08:44:24Z</time>
      </trkpt>
      <trkpt lat="47.76794" lon="-3.54101">
        <ele>28.31</ele>
        <time>2020-07-10T08:44:25Z</time>
      </trkpt>
      <trkpt lat="47.76799" lon="-3.54101">
        <ele>28.2</ele>
        <time>2020-07-10T08:44:26Z</time>
      </trkpt>
      <trkpt lat="47.76805" lon="-3.54103">
        <ele>28.07</ele>
        <time>2020-07-10T08:44:27Z</time>
      </trkpt>
      <trkpt lat="47.7681" lon="-3.54102">
        <ele>27.75</ele>
        <time>2020-07-10T08:44:28Z</time>
      </trkpt>
      <trkpt lat="47.76815" lon="-3.54101">
        <ele>27.35</ele>
        <time>2020-07-10T08:44:29Z</time>
      </trkpt>
      <trkpt lat="47.76821" lon="-3.541">
        <ele>26.89</ele>
        <time>2020-07-10T08:44:30Z</time>
      </trkpt>
      <trkpt lat="47.76826" lon="-3.54099">
        <ele>26.4</ele>
        <time>2020-07-10T08:44:31Z</time>
      </trkpt>
      <trkpt lat="47.76832" lon="-3.54098">
        <ele>25.87</ele>
        <time>2020-07-10T08:44:32Z</time>
      </trkpt>
      <trkpt lat="47.76839" lon="-3.54098">
        <ele>25.35</ele>
        <time>2020-07-10T08:44:33Z</time>
      </trkpt>
      <trkpt lat="47.76845" lon="-3.54097">
        <ele>24.85</ele>
        <time>2020-07-10T08:44:34Z</time>
      </trkpt>
      <trkpt lat="47.76852" lon="-3.54097">
        <ele>24.36</ele>
        <time>2020-07-10T08:44:35Z</time>
      </trkpt>
      <trkpt lat="47.7686" lon="-3.54098">
        <ele>23.83</ele>
        <time>2020-07-10T08:44:36Z</time>
      </trkpt>
      <trkpt lat="47.76868" lon="-3.54097">
        <ele>22.98</ele>
        <time>2020-07-10T08:44:37Z</time>
      </trkpt>
      <trkpt lat="47.76877" lon="-3.54097">
        <ele>21.91</ele>
        <time>2020-07-10T08:44:38Z</time>
      </trkpt>
      <trkpt lat="47.76887" lon="-3.54097">
        <ele>20.77</ele>
        <time>2020-07-10T08:44:39Z</time>
      </trkpt>
      <trkpt lat="47.76895" lon="-3.54096">
        <ele>19.83</ele>
        <time>2020-07-10T08:44:40Z</time>
      </trkpt>
      <trkpt lat="47.76903" lon="-3.54095">
        <ele>19.02</ele>
        <time>2020-07-10T08:44:41Z</time>
      </trkpt>
      <trkpt lat="47.76909" lon="-3.54093">
        <ele>18.36</ele>
        <time>2020-07-10T08:44:42Z</time>
      </trkpt>
      <trkpt lat="47.76915" lon="-3.5409">
        <ele>17.71</ele>
        <time>2020-07-10T08:44:43Z</time>
      </trkpt>
      <trkpt lat="47.76919" lon="-3.54084">
        <ele>17.19</ele>
        <time>2020-07-10T08:44:44Z</time>
      </trkpt>
      <trkpt lat="47.76921" lon="-3.54078">
        <ele>16.82</ele>
        <time>2020-07-10T08:44:45Z</time>
      </trkpt>
      <trkpt lat="47.76922" lon="-3.54071">
        <ele>16.5</ele>
        <time>2020-07-10T08:44:46Z</time>
      </trkpt>
      <trkpt lat="47.76925" lon="-3.54063">
        <ele>16.14</ele>
        <time>2020-07-10T08:44:47Z</time>
      </trkpt>
      <trkpt lat="47.76925" lon="-3.54055">
        <ele>15.82</ele>
        <time>2020-07-10T08:44:48Z</time>
      </trkpt>
      <trkpt lat="47.76926" lon="-3.54048">
        <ele>15.66</ele>
        <time>2020-07-10T08:44:49Z</time>
      </trkpt>
      <trkpt lat="47.76929" lon="-3.54043">
        <ele>15.45</ele>
        <time>2020-07-10T08:44:50Z</time>
      </trkpt>
      <trkpt lat="47.76932" lon="-3.54037">
        <ele>15.18</ele>
        <time>2020-07-10T08:44:51Z</time>
      </trkpt>
      <trkpt lat="47.76936" lon="-3.54035">
        <ele>14.89</ele>
        <time>2020-07-10T08:44:52Z</time>
      </trkpt>
      <trkpt lat="47.76941" lon="-3.54037">
        <ele>14.62</ele>
        <time>2020-07-10T08:44:53Z</time>
      </trkpt>
      <trkpt lat="47.76946" lon="-3.54037">
        <ele>14.49</ele>
        <time>2020-07-10T08:44:54Z</time>
      </trkpt>
      <trkpt lat="47.76951" lon="-3.54037">
        <ele>14.65</ele>
        <time>2020-07-10T08:44:55Z</time>
      </trkpt>
      <trkpt lat="47.76956" lon="-3.54037">
        <ele>14.91</ele>
        <time>2020-07-10T08:44:56Z</time>
      </trkpt>
      <trkpt lat="47.76961" lon="-3.54036">
        <ele>15.2</ele>
        <time>2020-07-10T08:44:57Z</time>
      </trkpt>
      <trkpt lat="47.76967" lon="-3.54035">
        <ele>15.52</ele>
        <time>2020-07-10T08:44:58Z</time>
      </trkpt>
      <trkpt lat="47.76972" lon="-3.54034">
        <ele>15.85</ele>
        <time>2020-07-10T08:44:59Z</time>
      </trkpt>
      <trkpt lat="47.76977" lon="-3.54033">
        <ele>16.22</ele>
        <time>2020-07-10T08:45:00Z</time>
      </trkpt>
      <trkpt lat="47.76981" lon="-3.54033">
        <ele>16.58</ele>
        <time>2020-07-10T08:45:01Z</time>
      </trkpt>
      <trkpt lat="47.76986" lon="-3.54033">
        <ele>16.93</ele>
        <time>2020-07-10T08:45:02Z</time>
      </trkpt>
      <trkpt lat="47.7699" lon="-3.54032">
        <ele>17.23</ele>
        <time>2020-07-10T08:45:03Z</time>
      </trkpt>
      <trkpt lat="47.76994" lon="-3.54031">
        <ele>17.5</ele>
        <time>2020-07-10T08:45:04Z</time>
      </trkpt>
      <trkpt lat="47.76997" lon="-3.5403">
        <ele>17.74</ele>
        <time>2020-07-10T08:45:05Z</time>
      </trkpt>
      <trkpt lat="47.77" lon="-3.54031">
        <ele>18.01</ele>
        <time>2020-07-10T08:45:06Z</time>
      </trkpt>
      <trkpt lat="47.77003" lon="-3.54031">
        <ele>18.18</ele>
        <time>2020-07-10T08:45:07Z</time>
      </trkpt>
      <trkpt lat="47.77007" lon="-3.54032">
        <ele>18.33</ele>
        <time>2020-07-10T08:45:08Z</time>
      </trkpt>
      <trkpt lat="47.7701" lon="-3.54033">
        <ele>18.47</ele>
        <time>2020-07-10T08:45:09Z</time>
      </trkpt>
      <trkpt lat="47.77013" lon="-3.54033">
        <ele>18.6</ele>
        <time>2020-07-10T08:45:10Z</time>
      </trkpt>
      <trkpt lat="47.77014" lon="-3.54032">
        <ele>18.65</ele>
        <time>2020-07-10T08:45:11Z</time>
      </trkpt>
      <trkpt lat="47.77017" lon="-3.54027">
        <ele>18.61</ele>
        <time>2020-07-10T08:45:12Z</time>
      </trkpt>
      <trkpt lat="47.77019" lon="-3.54023">
        <ele>18.58</ele>
        <time>2020-07-10T08:45:13Z</time>
      </trkpt>
      <trkpt lat="47.77021" lon="-3.5402">
        <ele>18.63</ele>
        <time>2020-07-10T08:45:14Z</time>
      </trkpt>
      <trkpt lat="47.77025" lon="-3.54018">
        <ele>18.76</ele>
        <time>2020-07-10T08:45:15Z</time>
      </trkpt>
      <trkpt lat="47.77028" lon="-3.54014">
        <ele>18.94</ele>
        <time>2020-07-10T08:45:16Z</time>
      </trkpt>
      <trkpt lat="47.77032" lon="-3.54014">
        <ele>19.23</ele>
        <time>2020-07-10T08:45:17Z</time>
      </trkpt>
      <trkpt lat="47.77035" lon="-3.54014">
        <ele>19.51</ele>
        <time>2020-07-10T08:45:18Z</time>
      </trkpt>
      <trkpt lat="47.77038" lon="-3.54015">
        <ele>19.79</ele>
        <time>2020-07-10T08:45:19Z</time>
      </trkpt>
      <trkpt lat="47.77041" lon="-3.54016">
        <ele>20.07</ele>
        <time>2020-07-10T08:45:20Z</time>
      </trkpt>
      <trkpt lat="47.77045" lon="-3.54017">
        <ele>20.38</ele>
        <time>2020-07-10T08:45:21Z</time>
      </trkpt>
      <trkpt lat="47.77049" lon="-3.54018">
        <ele>20.67</ele>
        <time>2020-07-10T08:45:22Z</time>
      </trkpt>
      <trkpt lat="47.77052" lon="-3.54019">
        <ele>20.92</ele>
        <time>2020-07-10T08:45:23Z</time>
      </trkpt>
      <trkpt lat="47.77055" lon="-3.54021">
        <ele>21.12</ele>
        <time>2020-07-10T08:45:24Z</time>
      </trkpt>
      <trkpt lat="47.77058" lon="-3.54022">
        <ele>21.37</ele>
        <time>2020-07-10T08:45:25Z</time>
      </trkpt>
      <trkpt lat="47.7706" lon="-3.54023">
        <ele>21.6</ele>
        <time>2020-07-10T08:45:26Z</time>
      </trkpt>
      <trkpt lat="47.77063" lon="-3.54024">
        <ele>21.85</ele>
        <time>2020-07-10T08:45:27Z</time>
      </trkpt>
      <trkpt lat="47.7707" lon="-3.54026">
        <ele>22.4</ele>
        <time>2020-07-10T08:45:30Z</time>
      </trkpt>
      <trkpt lat="47.77072" lon="-3.54027">
        <ele>22.65</ele>
        <time>2020-07-10T08:45:31Z</time>
      </trkpt>
      <trkpt lat="47.77073" lon="-3.54028">
        <ele>22.83</ele>
        <time>2020-07-10T08:45:32Z</time>
      </trkpt>
      <trkpt lat="47.77075" lon="-3.5403">
        <ele>23.01</ele>
        <time>2020-07-10T08:45:33Z</time>
      </trkpt>
      <trkpt lat="47.77076" lon="-3.54031">
        <ele>23.19</ele>
        <time>2020-07-10T08:45:34Z</time>
      </trkpt>
      <trkpt lat="47.77078" lon="-3.54031">
        <ele>23.37</ele>
        <time>2020-07-10T08:45:35Z</time>
      </trkpt>
      <trkpt lat="47.7708" lon="-3.54031">
        <ele>23.55</ele>
        <time>2020-07-10T08:45:36Z</time>
      </trkpt>
      <trkpt lat="47.77082" lon="-3.54031">
        <ele>23.73</ele>
        <time>2020-07-10T08:45:37Z</time>
      </trkpt>
      <trkpt lat="47.77084" lon="-3.54031">
        <ele>24</ele>
        <time>2020-07-10T08:45:38Z</time>
      </trkpt>
      <trkpt lat="47.77087" lon="-3.54032">
        <ele>24.51</ele>
        <time>2020-07-10T08:45:39Z</time>
      </trkpt>
      <trkpt lat="47.7709" lon="-3.54033">
        <ele>24.98</ele>
        <time>2020-07-10T08:45:40Z</time>
      </trkpt>
      <trkpt lat="47.77094" lon="-3.54033">
        <ele>25.59</ele>
        <time>2020-07-10T08:45:41Z</time>
      </trkpt>
      <trkpt lat="47.77097" lon="-3.54034">
        <ele>26.08</ele>
        <time>2020-07-10T08:45:42Z</time>
      </trkpt>
      <trkpt lat="47.77098" lon="-3.54035">
        <ele>26.42</ele>
        <time>2020-07-10T08:45:43Z</time>
      </trkpt>
      <trkpt lat="47.771" lon="-3.54036">
        <ele>26.7</ele>
        <time>2020-07-10T08:45:44Z</time>
      </trkpt>
      <trkpt lat="47.77102" lon="-3.54038">
        <ele>27.01</ele>
        <time>2020-07-10T08:45:45Z</time>
      </trkpt>
      <trkpt lat="47.77105" lon="-3.54039">
        <ele>27.36</ele>
        <time>2020-07-10T08:45:46Z</time>
      </trkpt>
      <trkpt lat="47.77107" lon="-3.5404">
        <ele>27.72</ele>
        <time>2020-07-10T08:45:47Z</time>
      </trkpt>
      <trkpt lat="47.77109" lon="-3.54039">
        <ele>28.14</ele>
        <time>2020-07-10T08:45:48Z</time>
      </trkpt>
      <trkpt lat="47.77113" lon="-3.54038">
        <ele>28.7</ele>
        <time>2020-07-10T08:45:49Z</time>
      </trkpt>
      <trkpt lat="47.77116" lon="-3.54038">
        <ele>29.14</ele>
        <time>2020-07-10T08:45:50Z</time>
      </trkpt>
      <trkpt lat="47.7712" lon="-3.54041">
        <ele>29.57</ele>
        <time>2020-07-10T08:45:51Z</time>
      </trkpt>
      <trkpt lat="47.77122" lon="-3.54043">
        <ele>29.94</ele>
        <time>2020-07-10T08:45:52Z</time>
      </trkpt>
      <trkpt lat="47.77125" lon="-3.54045">
        <ele>30.26</ele>
        <time>2020-07-10T08:45:53Z</time>
      </trkpt>
      <trkpt lat="47.77127" lon="-3.54046">
        <ele>30.52</ele>
        <time>2020-07-10T08:45:54Z</time>
      </trkpt>
      <trkpt lat="47.77129" lon="-3.54048">
        <ele>30.75</ele>
        <time>2020-07-10T08:45:55Z</time>
      </trkpt>
      <trkpt lat="47.77131" lon="-3.54049">
        <ele>31.02</ele>
        <time>2020-07-10T08:45:56Z</time>
      </trkpt>
      <trkpt lat="47.77133" lon="-3.54049">
        <ele>31.3</ele>
        <time>2020-07-10T08:45:57Z</time>
      </trkpt>
      <trkpt lat="47.77136" lon="-3.54049">
        <ele>31.64</ele>
        <time>2020-07-10T08:45:58Z</time>
      </trkpt>
      <trkpt lat="47.77138" lon="-3.54049">
        <ele>31.98</ele>
        <time>2020-07-10T08:45:59Z</time>
      </trkpt>
      <trkpt lat="47.77141" lon="-3.5405">
        <ele>32.28</ele>
        <time>2020-07-10T08:46:00Z</time>
      </trkpt>
      <trkpt lat="47.77144" lon="-3.5405">
        <ele>32.58</ele>
        <time>2020-07-10T08:46:01Z</time>
      </trkpt>
      <trkpt lat="47.77146" lon="-3.5405">
        <ele>32.86</ele>
        <time>2020-07-10T08:46:02Z</time>
      </trkpt>
      <trkpt lat="47.77149" lon="-3.5405">
        <ele>33.17</ele>
        <time>2020-07-10T08:46:03Z</time>
      </trkpt>
      <trkpt lat="47.77152" lon="-3.5405">
        <ele>33.46</ele>
        <time>2020-07-10T08:46:04Z</time>
      </trkpt>
      <trkpt lat="47.77154" lon="-3.54049">
        <ele>33.77</ele>
        <time>2020-07-10T08:46:05Z</time>
      </trkpt>
      <trkpt lat="47.77157" lon="-3.54048">
        <ele>34.07</ele>
        <time>2020-07-10T08:46:06Z</time>
      </trkpt>
      <trkpt lat="47.77159" lon="-3.54047">
        <ele>34.39</ele>
        <time>2020-07-10T08:46:07Z</time>
      </trkpt>
      <trkpt lat="47.77162" lon="-3.54047">
        <ele>34.69</ele>
        <time>2020-07-10T08:46:08Z</time>
      </trkpt>
      <trkpt lat="47.77165" lon="-3.54046">
        <ele>34.99</ele>
        <time>2020-07-10T08:46:09Z</time>
      </trkpt>
      <trkpt lat="47.77167" lon="-3.54046">
        <ele>35.27</ele>
        <time>2020-07-10T08:46:10Z</time>
      </trkpt>
      <trkpt lat="47.7717" lon="-3.54046">
        <ele>35.46</ele>
        <time>2020-07-10T08:46:11Z</time>
      </trkpt>
      <trkpt lat="47.77173" lon="-3.54045">
        <ele>35.65</ele>
        <time>2020-07-10T08:46:12Z</time>
      </trkpt>
      <trkpt lat="47.77175" lon="-3.54044">
        <ele>35.84</ele>
        <time>2020-07-10T08:46:13Z</time>
      </trkpt>
      <trkpt lat="47.77178" lon="-3.54043">
        <ele>36.01</ele>
        <time>2020-07-10T08:46:14Z</time>
      </trkpt>
      <trkpt lat="47.7718" lon="-3.54042">
        <ele>36.17</ele>
        <time>2020-07-10T08:46:15Z</time>
      </trkpt>
      <trkpt lat="47.77182" lon="-3.54041">
        <ele>36.3</ele>
        <time>2020-07-10T08:46:16Z</time>
      </trkpt>
      <trkpt lat="47.77184" lon="-3.5404">
        <ele>36.4</ele>
        <time>2020-07-10T08:46:17Z</time>
      </trkpt>
      <trkpt lat="47.77185" lon="-3.5404">
        <ele>36.48</ele>
        <time>2020-07-10T08:46:18Z</time>
      </trkpt>
      <trkpt lat="47.77187" lon="-3.5404">
        <ele>36.58</ele>
        <time>2020-07-10T08:46:19Z</time>
      </trkpt>
      <trkpt lat="47.77189" lon="-3.5404">
        <ele>36.68</ele>
        <time>2020-07-10T08:46:20Z</time>
      </trkpt>
      <trkpt lat="47.77192" lon="-3.54039">
        <ele>36.81</ele>
        <time>2020-07-10T08:46:21Z</time>
      </trkpt>
      <trkpt lat="47.77194" lon="-3.54039">
        <ele>36.94</ele>
        <time>2020-07-10T08:46:22Z</time>
      </trkpt>
      <trkpt lat="47.77197" lon="-3.54038">
        <ele>37.13</ele>
        <time>2020-07-10T08:46:23Z</time>
      </trkpt>
      <trkpt lat="47.772" lon="-3.54037">
        <ele>37.32</ele>
        <time>2020-07-10T08:46:24Z</time>
      </trkpt>
      <trkpt lat="47.77203" lon="-3.54036">
        <ele>37.52</ele>
        <time>2020-07-10T08:46:25Z</time>
      </trkpt>
      <trkpt lat="47.77206" lon="-3.54036">
        <ele>37.72</ele>
        <time>2020-07-10T08:46:26Z</time>
      </trkpt>
      <trkpt lat="47.77209" lon="-3.54035">
        <ele>37.96</ele>
        <time>2020-07-10T08:46:27Z</time>
      </trkpt>
      <trkpt lat="47.77212" lon="-3.54035">
        <ele>38.16</ele>
        <time>2020-07-10T08:46:28Z</time>
      </trkpt>
      <trkpt lat="47.77215" lon="-3.54034">
        <ele>38.37</ele>
        <time>2020-07-10T08:46:29Z</time>
      </trkpt>
      <trkpt lat="47.77218" lon="-3.54032">
        <ele>38.58</ele>
        <time>2020-07-10T08:46:30Z</time>
      </trkpt>
      <trkpt lat="47.77221" lon="-3.54031">
        <ele>38.8</ele>
        <time>2020-07-10T08:46:31Z</time>
      </trkpt>
      <trkpt lat="47.77224" lon="-3.5403">
        <ele>38.98</ele>
        <time>2020-07-10T08:46:32Z</time>
      </trkpt>
      <trkpt lat="47.77227" lon="-3.5403">
        <ele>39.1</ele>
        <time>2020-07-10T08:46:33Z</time>
      </trkpt>
      <trkpt lat="47.77229" lon="-3.5403">
        <ele>39.21</ele>
        <time>2020-07-10T08:46:34Z</time>
      </trkpt>
      <trkpt lat="47.77232" lon="-3.5403">
        <ele>39.32</ele>
        <time>2020-07-10T08:46:35Z</time>
      </trkpt>
      <trkpt lat="47.77235" lon="-3.5403">
        <ele>39.41</ele>
        <time>2020-07-10T08:46:36Z</time>
      </trkpt>
      <trkpt lat="47.77237" lon="-3.54031">
        <ele>39.51</ele>
        <time>2020-07-10T08:46:37Z</time>
      </trkpt>
      <trkpt lat="47.77241" lon="-3.54028">
        <ele>39.63</ele>
        <time>2020-07-10T08:46:38Z</time>
      </trkpt>
      <trkpt lat="47.77244" lon="-3.54027">
        <ele>39.74</ele>
        <time>2020-07-10T08:46:39Z</time>
      </trkpt>
      <trkpt lat="47.77247" lon="-3.54026">
        <ele>39.85</ele>
        <time>2020-07-10T08:46:40Z</time>
      </trkpt>
      <trkpt lat="47.7725" lon="-3.54024">
        <ele>39.95</ele>
        <time>2020-07-10T08:46:41Z</time>
      </trkpt>
      <trkpt lat="47.77253" lon="-3.54023">
        <ele>40.06</ele>
        <time>2020-07-10T08:46:42Z</time>
      </trkpt>
      <trkpt lat="47.77256" lon="-3.54022">
        <ele>40.18</ele>
        <time>2020-07-10T08:46:43Z</time>
      </trkpt>
      <trkpt lat="47.7726" lon="-3.54022">
        <ele>40.3</ele>
        <time>2020-07-10T08:46:44Z</time>
      </trkpt>
      <trkpt lat="47.77263" lon="-3.54022">
        <ele>40.41</ele>
        <time>2020-07-10T08:46:45Z</time>
      </trkpt>
      <trkpt lat="47.77266" lon="-3.54022">
        <ele>40.53</ele>
        <time>2020-07-10T08:46:46Z</time>
      </trkpt>
      <trkpt lat="47.77269" lon="-3.54023">
        <ele>40.64</ele>
        <time>2020-07-10T08:46:47Z</time>
      </trkpt>
      <trkpt lat="47.77273" lon="-3.54023">
        <ele>40.76</ele>
        <time>2020-07-10T08:46:48Z</time>
      </trkpt>
      <trkpt lat="47.77276" lon="-3.54022">
        <ele>40.89</ele>
        <time>2020-07-10T08:46:49Z</time>
      </trkpt>
      <trkpt lat="47.7728" lon="-3.54022">
        <ele>40.9</ele>
        <time>2020-07-10T08:46:50Z</time>
      </trkpt>
      <trkpt lat="47.77284" lon="-3.54021">
        <ele>40.8</ele>
        <time>2020-07-10T08:46:51Z</time>
      </trkpt>
      <trkpt lat="47.77289" lon="-3.54021">
        <ele>40.66</ele>
        <time>2020-07-10T08:46:52Z</time>
      </trkpt>
      <trkpt lat="47.77293" lon="-3.54021">
        <ele>40.5</ele>
        <time>2020-07-10T08:46:53Z</time>
      </trkpt>
      <trkpt lat="47.77298" lon="-3.54022">
        <ele>40.34</ele>
        <time>2020-07-10T08:46:54Z</time>
      </trkpt>
      <trkpt lat="47.77303" lon="-3.54021">
        <ele>40.17</ele>
        <time>2020-07-10T08:46:55Z</time>
      </trkpt>
      <trkpt lat="47.77307" lon="-3.5402">
        <ele>39.95</ele>
        <time>2020-07-10T08:46:56Z</time>
      </trkpt>
      <trkpt lat="47.77313" lon="-3.54019">
        <ele>39.64</ele>
        <time>2020-07-10T08:46:57Z</time>
      </trkpt>
      <trkpt lat="47.77317" lon="-3.54018">
        <ele>39.29</ele>
        <time>2020-07-10T08:46:58Z</time>
      </trkpt>
      <trkpt lat="47.77322" lon="-3.54016">
        <ele>38.94</ele>
        <time>2020-07-10T08:46:59Z</time>
      </trkpt>
      <trkpt lat="47.77328" lon="-3.54015">
        <ele>38.58</ele>
        <time>2020-07-10T08:47:00Z</time>
      </trkpt>
      <trkpt lat="47.77332" lon="-3.54014">
        <ele>38.22</ele>
        <time>2020-07-10T08:47:01Z</time>
      </trkpt>
      <trkpt lat="47.77337" lon="-3.54013">
        <ele>37.85</ele>
        <time>2020-07-10T08:47:02Z</time>
      </trkpt>
      <trkpt lat="47.77339" lon="-3.5401">
        <ele>37.55</ele>
        <time>2020-07-10T08:47:03Z</time>
      </trkpt>
      <trkpt lat="47.77342" lon="-3.54007">
        <ele>37.3</ele>
        <time>2020-07-10T08:47:04Z</time>
      </trkpt>
      <trkpt lat="47.77343" lon="-3.54002">
        <ele>37.09</ele>
        <time>2020-07-10T08:47:05Z</time>
      </trkpt>
      <trkpt lat="47.77345" lon="-3.53998">
        <ele>36.94</ele>
        <time>2020-07-10T08:47:06Z</time>
      </trkpt>
      <trkpt lat="47.77347" lon="-3.53992">
        <ele>36.83</ele>
        <time>2020-07-10T08:47:07Z</time>
      </trkpt>
      <trkpt lat="47.7735" lon="-3.53987">
        <ele>36.68</ele>
        <time>2020-07-10T08:47:08Z</time>
      </trkpt>
      <trkpt lat="47.77354" lon="-3.53985">
        <ele>36.38</ele>
        <time>2020-07-10T08:47:09Z</time>
      </trkpt>
      <trkpt lat="47.77358" lon="-3.53985">
        <ele>36.01</ele>
        <time>2020-07-10T08:47:10Z</time>
      </trkpt>
      <trkpt lat="47.77363" lon="-3.53986">
        <ele>35.51</ele>
        <time>2020-07-10T08:47:11Z</time>
      </trkpt>
      <trkpt lat="47.77368" lon="-3.53988">
        <ele>34.88</ele>
        <time>2020-07-10T08:47:12Z</time>
      </trkpt>
      <trkpt lat="47.77373" lon="-3.5399">
        <ele>34.18</ele>
        <time>2020-07-10T08:47:13Z</time>
      </trkpt>
      <trkpt lat="47.77378" lon="-3.53993">
        <ele>33.5</ele>
        <time>2020-07-10T08:47:14Z</time>
      </trkpt>
      <trkpt lat="47.77383" lon="-3.53996">
        <ele>32.92</ele>
        <time>2020-07-10T08:47:15Z</time>
      </trkpt>
      <trkpt lat="47.77388" lon="-3.53997">
        <ele>32.37</ele>
        <time>2020-07-10T08:47:16Z</time>
      </trkpt>
      <trkpt lat="47.77393" lon="-3.53998">
        <ele>31.6</ele>
        <time>2020-07-10T08:47:17Z</time>
      </trkpt>
      <trkpt lat="47.77399" lon="-3.54">
        <ele>30.58</ele>
        <time>2020-07-10T08:47:18Z</time>
      </trkpt>
      <trkpt lat="47.77405" lon="-3.54001">
        <ele>29.5</ele>
        <time>2020-07-10T08:47:19Z</time>
      </trkpt>
      <trkpt lat="47.77411" lon="-3.54002">
        <ele>28.44</ele>
        <time>2020-07-10T08:47:20Z</time>
      </trkpt>
      <trkpt lat="47.77417" lon="-3.54003">
        <ele>27.41</ele>
        <time>2020-07-10T08:47:21Z</time>
      </trkpt>
      <trkpt lat="47.77422" lon="-3.54004">
        <ele>26.89</ele>
        <time>2020-07-10T08:47:22Z</time>
      </trkpt>
      <trkpt lat="47.77427" lon="-3.54005">
        <ele>26.52</ele>
        <time>2020-07-10T08:47:23Z</time>
      </trkpt>
      <trkpt lat="47.77433" lon="-3.54005">
        <ele>26.18</ele>
        <time>2020-07-10T08:47:24Z</time>
      </trkpt>
      <trkpt lat="47.77438" lon="-3.54006">
        <ele>25.77</ele>
        <time>2020-07-10T08:47:25Z</time>
      </trkpt>
      <trkpt lat="47.77443" lon="-3.54006">
        <ele>25.38</ele>
        <time>2020-07-10T08:47:26Z</time>
      </trkpt>
      <trkpt lat="47.77448" lon="-3.54005">
        <ele>25.18</ele>
        <time>2020-07-10T08:47:27Z</time>
      </trkpt>
      <trkpt lat="47.77452" lon="-3.54004">
        <ele>25.12</ele>
        <time>2020-07-10T08:47:28Z</time>
      </trkpt>
      <trkpt lat="47.77456" lon="-3.54004">
        <ele>25.07</ele>
        <time>2020-07-10T08:47:29Z</time>
      </trkpt>
      <trkpt lat="47.7746" lon="-3.54003">
        <ele>25.04</ele>
        <time>2020-07-10T08:47:30Z</time>
      </trkpt>
      <trkpt lat="47.77464" lon="-3.54003">
        <ele>24.95</ele>
        <time>2020-07-10T08:47:31Z</time>
      </trkpt>
      <trkpt lat="47.77469" lon="-3.54004">
        <ele>24.66</ele>
        <time>2020-07-10T08:47:32Z</time>
      </trkpt>
      <trkpt lat="47.77475" lon="-3.54005">
        <ele>23.98</ele>
        <time>2020-07-10T08:47:33Z</time>
      </trkpt>
      <trkpt lat="47.77481" lon="-3.54004">
        <ele>22.9</ele>
        <time>2020-07-10T08:47:34Z</time>
      </trkpt>
      <trkpt lat="47.77486" lon="-3.54003">
        <ele>21.74</ele>
        <time>2020-07-10T08:47:35Z</time>
      </trkpt>
      <trkpt lat="47.77491" lon="-3.54001">
        <ele>20.58</ele>
        <time>2020-07-10T08:47:36Z</time>
      </trkpt>
      <trkpt lat="47.77497" lon="-3.53995">
        <ele>20.12</ele>
        <time>2020-07-10T08:47:37Z</time>
      </trkpt>
      <trkpt lat="47.77501" lon="-3.5399">
        <ele>20.15</ele>
        <time>2020-07-10T08:47:38Z</time>
      </trkpt>
      <trkpt lat="47.77505" lon="-3.53984">
        <ele>20.49</ele>
        <time>2020-07-10T08:47:39Z</time>
      </trkpt>
      <trkpt lat="47.77508" lon="-3.53976">
        <ele>20.83</ele>
        <time>2020-07-10T08:47:40Z</time>
      </trkpt>
      <trkpt lat="47.77511" lon="-3.53971">
        <ele>20.76</ele>
        <time>2020-07-10T08:47:41Z</time>
      </trkpt>
      <trkpt lat="47.77513" lon="-3.53966">
        <ele>20.55</ele>
        <time>2020-07-10T08:47:42Z</time>
      </trkpt>
      <trkpt lat="47.77513" lon="-3.53961">
        <ele>20.51</ele>
        <time>2020-07-10T08:47:43Z</time>
      </trkpt>
      <trkpt lat="47.77514" lon="-3.53956">
        <ele>20.5</ele>
        <time>2020-07-10T08:47:44Z</time>
      </trkpt>
      <trkpt lat="47.77515" lon="-3.5395">
        <ele>20.58</ele>
        <time>2020-07-10T08:47:45Z</time>
      </trkpt>
      <trkpt lat="47.77516" lon="-3.53944">
        <ele>20.59</ele>
        <time>2020-07-10T08:47:46Z</time>
      </trkpt>
      <trkpt lat="47.77517" lon="-3.53938">
        <ele>20.3</ele>
        <time>2020-07-10T08:47:47Z</time>
      </trkpt>
      <trkpt lat="47.77517" lon="-3.53932">
        <ele>20.02</ele>
        <time>2020-07-10T08:47:48Z</time>
      </trkpt>
      <trkpt lat="47.77518" lon="-3.53926">
        <ele>19.79</ele>
        <time>2020-07-10T08:47:49Z</time>
      </trkpt>
      <trkpt lat="47.77518" lon="-3.5392">
        <ele>19.68</ele>
        <time>2020-07-10T08:47:50Z</time>
      </trkpt>
      <trkpt lat="47.77518" lon="-3.53915">
        <ele>19.52</ele>
        <time>2020-07-10T08:47:51Z</time>
      </trkpt>
      <trkpt lat="47.77519" lon="-3.53911">
        <ele>19.17</ele>
        <time>2020-07-10T08:47:52Z</time>
      </trkpt>
      <trkpt lat="47.77519" lon="-3.53907">
        <ele>18.84</ele>
        <time>2020-07-10T08:47:53Z</time>
      </trkpt>
      <trkpt lat="47.77522" lon="-3.53906">
        <ele>18.16</ele>
        <time>2020-07-10T08:47:54Z</time>
      </trkpt>
      <trkpt lat="47.77523" lon="-3.53905">
        <ele>17.46</ele>
        <time>2020-07-10T08:47:55Z</time>
      </trkpt>
      <trkpt lat="47.77526" lon="-3.53901">
        <ele>16.63</ele>
        <time>2020-07-10T08:47:56Z</time>
      </trkpt>
      <trkpt lat="47.77528" lon="-3.53895">
        <ele>15.59</ele>
        <time>2020-07-10T08:47:57Z</time>
      </trkpt>
      <trkpt lat="47.77529" lon="-3.53891">
        <ele>15.04</ele>
        <time>2020-07-10T08:47:58Z</time>
      </trkpt>
      <trkpt lat="47.77529" lon="-3.53888">
        <ele>14.61</ele>
        <time>2020-07-10T08:47:59Z</time>
      </trkpt>
      <trkpt lat="47.7753" lon="-3.53885">
        <ele>14.19</ele>
        <time>2020-07-10T08:48:00Z</time>
      </trkpt>
      <trkpt lat="47.77531" lon="-3.53881">
        <ele>13.85</ele>
        <time>2020-07-10T08:48:01Z</time>
      </trkpt>
      <trkpt lat="47.77532" lon="-3.53878">
        <ele>13.49</ele>
        <time>2020-07-10T08:48:02Z</time>
      </trkpt>
      <trkpt lat="47.77534" lon="-3.53871">
        <ele>12.6</ele>
        <time>2020-07-10T08:48:03Z</time>
      </trkpt>
      <trkpt lat="47.77536" lon="-3.5387">
        <ele>11.78</ele>
        <time>2020-07-10T08:48:04Z</time>
      </trkpt>
      <trkpt lat="47.77537" lon="-3.53866">
        <ele>11.09</ele>
        <time>2020-07-10T08:48:05Z</time>
      </trkpt>
      <trkpt lat="47.7754" lon="-3.53866">
        <ele>10.3</ele>
        <time>2020-07-10T08:48:06Z</time>
      </trkpt>
      <trkpt lat="47.77542" lon="-3.53866">
        <ele>9.37</ele>
        <time>2020-07-10T08:48:07Z</time>
      </trkpt>
      <trkpt lat="47.77545" lon="-3.53865">
        <ele>8.37</ele>
        <time>2020-07-10T08:48:08Z</time>
      </trkpt>
      <trkpt lat="47.77547" lon="-3.53864">
        <ele>7.51</ele>
        <time>2020-07-10T08:48:09Z</time>
      </trkpt>
      <trkpt lat="47.7755" lon="-3.53863">
        <ele>6.63</ele>
        <time>2020-07-10T08:48:10Z</time>
      </trkpt>
      <trkpt lat="47.77552" lon="-3.53861">
        <ele>5.55</ele>
        <time>2020-07-10T08:48:11Z</time>
      </trkpt>
      <trkpt lat="47.77556" lon="-3.53859">
        <ele>4.41</ele>
        <time>2020-07-10T08:48:12Z</time>
      </trkpt>
      <trkpt lat="47.77558" lon="-3.53858">
        <ele>4.17</ele>
        <time>2020-07-10T08:48:13Z</time>
      </trkpt>
      <trkpt lat="47.77559" lon="-3.53858">
        <ele>4.2</ele>
        <time>2020-07-10T08:48:14Z</time>
      </trkpt>
      <trkpt lat="47.7756" lon="-3.53857">
        <ele>4.28</ele>
        <time>2020-07-10T08:48:15Z</time>
      </trkpt>
      <trkpt lat="47.77562" lon="-3.53856">
        <ele>4.47</ele>
        <time>2020-07-10T08:48:16Z</time>
      </trkpt>
      <trkpt lat="47.77563" lon="-3.53853">
        <ele>4.62</ele>
        <time>2020-07-10T08:48:17Z</time>
      </trkpt>
      <trkpt lat="47.77563" lon="-3.53848">
        <ele>4.69</ele>
        <time>2020-07-10T08:48:18Z</time>
      </trkpt>
      <trkpt lat="47.77563" lon="-3.53843">
        <ele>4.69</ele>
        <time>2020-07-10T08:48:19Z</time>
      </trkpt>
      <trkpt lat="47.77562" lon="-3.53838">
        <ele>4.57</ele>
        <time>2020-07-10T08:48:20Z</time>
      </trkpt>
      <trkpt lat="47.7756" lon="-3.53834">
        <ele>4.29</ele>
        <time>2020-07-10T08:48:21Z</time>
      </trkpt>
      <trkpt lat="47.77559" lon="-3.53831">
        <ele>4.07</ele>
        <time>2020-07-10T08:48:22Z</time>
      </trkpt>
      <trkpt lat="47.77559" lon="-3.53827">
        <ele>3.86</ele>
        <time>2020-07-10T08:48:23Z</time>
      </trkpt>
      <trkpt lat="47.77559" lon="-3.53824">
        <ele>3.69</ele>
        <time>2020-07-10T08:48:24Z</time>
      </trkpt>
      <trkpt lat="47.77558" lon="-3.53821">
        <ele>3.53</ele>
        <time>2020-07-10T08:48:25Z</time>
      </trkpt>
      <trkpt lat="47.77558" lon="-3.53817">
        <ele>3.44</ele>
        <time>2020-07-10T08:48:26Z</time>
      </trkpt>
      <trkpt lat="47.77557" lon="-3.53813">
        <ele>2.93</ele>
        <time>2020-07-10T08:48:27Z</time>
      </trkpt>
      <trkpt lat="47.77555" lon="-3.53807">
        <ele>2.35</ele>
        <time>2020-07-10T08:48:28Z</time>
      </trkpt>
      <trkpt lat="47.77554" lon="-3.53801">
        <ele>2.49</ele>
        <time>2020-07-10T08:48:29Z</time>
      </trkpt>
      <trkpt lat="47.77554" lon="-3.53795">
        <ele>2.79</ele>
        <time>2020-07-10T08:48:30Z</time>
      </trkpt>
      <trkpt lat="47.77553" lon="-3.5379">
        <ele>3.09</ele>
        <time>2020-07-10T08:48:31Z</time>
      </trkpt>
      <trkpt lat="47.77553" lon="-3.53786">
        <ele>3.33</ele>
        <time>2020-07-10T08:48:32Z</time>
      </trkpt>
      <trkpt lat="47.77553" lon="-3.53782">
        <ele>3.52</ele>
        <time>2020-07-10T08:48:33Z</time>
      </trkpt>
      <trkpt lat="47.77551" lon="-3.53776">
        <ele>3.65</ele>
        <time>2020-07-10T08:48:34Z</time>
      </trkpt>
      <trkpt lat="47.7755" lon="-3.53772">
        <ele>3.68</ele>
        <time>2020-07-10T08:48:35Z</time>
      </trkpt>
      <trkpt lat="47.77549" lon="-3.53767">
        <ele>3.7</ele>
        <time>2020-07-10T08:48:36Z</time>
      </trkpt>
      <trkpt lat="47.77547" lon="-3.53761">
        <ele>3.65</ele>
        <time>2020-07-10T08:48:37Z</time>
      </trkpt>
      <trkpt lat="47.77546" lon="-3.53755">
        <ele>3.59</ele>
        <time>2020-07-10T08:48:38Z</time>
      </trkpt>
      <trkpt lat="47.77545" lon="-3.5375">
        <ele>3.54</ele>
        <time>2020-07-10T08:48:39Z</time>
      </trkpt>
      <trkpt lat="47.77545" lon="-3.53743">
        <ele>3.59</ele>
        <time>2020-07-10T08:48:40Z</time>
      </trkpt>
      <trkpt lat="47.77544" lon="-3.53737">
        <ele>3.56</ele>
        <time>2020-07-10T08:48:41Z</time>
      </trkpt>
      <trkpt lat="47.77543" lon="-3.53732">
        <ele>3.52</ele>
        <time>2020-07-10T08:48:42Z</time>
      </trkpt>
      <trkpt lat="47.77542" lon="-3.53726">
        <ele>3.44</ele>
        <time>2020-07-10T08:48:43Z</time>
      </trkpt>
      <trkpt lat="47.77541" lon="-3.5372">
        <ele>3.41</ele>
        <time>2020-07-10T08:48:44Z</time>
      </trkpt>
      <trkpt lat="47.77539" lon="-3.53714">
        <ele>3.38</ele>
        <time>2020-07-10T08:48:45Z</time>
      </trkpt>
      <trkpt lat="47.77539" lon="-3.53707">
        <ele>3.46</ele>
        <time>2020-07-10T08:48:46Z</time>
      </trkpt>
      <trkpt lat="47.77538" lon="-3.53702">
        <ele>3.37</ele>
        <time>2020-07-10T08:48:47Z</time>
      </trkpt>
      <trkpt lat="47.77537" lon="-3.53698">
        <ele>3.23</ele>
        <time>2020-07-10T08:48:48Z</time>
      </trkpt>
      <trkpt lat="47.77536" lon="-3.53693">
        <ele>3.1</ele>
        <time>2020-07-10T08:48:49Z</time>
      </trkpt>
      <trkpt lat="47.77533" lon="-3.53686">
        <ele>2.68</ele>
        <time>2020-07-10T08:48:50Z</time>
      </trkpt>
      <trkpt lat="47.77532" lon="-3.53678">
        <ele>2.38</ele>
        <time>2020-07-10T08:48:51Z</time>
      </trkpt>
      <trkpt lat="47.77531" lon="-3.53671">
        <ele>2.12</ele>
        <time>2020-07-10T08:48:52Z</time>
      </trkpt>
      <trkpt lat="47.77531" lon="-3.53664">
        <ele>1.98</ele>
        <time>2020-07-10T08:48:53Z</time>
      </trkpt>
      <trkpt lat="47.77531" lon="-3.53657">
        <ele>1.95</ele>
        <time>2020-07-10T08:48:54Z</time>
      </trkpt>
      <trkpt lat="47.77531" lon="-3.53651">
        <ele>1.95</ele>
        <time>2020-07-10T08:48:55Z</time>
      </trkpt>
      <trkpt lat="47.77532" lon="-3.53644">
        <ele>2.02</ele>
        <time>2020-07-10T08:48:56Z</time>
      </trkpt>
      <trkpt lat="47.77533" lon="-3.53638">
        <ele>2.11</ele>
        <time>2020-07-10T08:48:57Z</time>
      </trkpt>
      <trkpt lat="47.77534" lon="-3.53632">
        <ele>2.17</ele>
        <time>2020-07-10T08:48:58Z</time>
      </trkpt>
      <trkpt lat="47.77535" lon="-3.53627">
        <ele>2.18</ele>
        <time>2020-07-10T08:48:59Z</time>
      </trkpt>
      <trkpt lat="47.77536" lon="-3.53621">
        <ele>2.15</ele>
        <time>2020-07-10T08:49:00Z</time>
      </trkpt>
      <trkpt lat="47.77537" lon="-3.53614">
        <ele>2.18</ele>
        <time>2020-07-10T08:49:01Z</time>
      </trkpt>
      <trkpt lat="47.77539" lon="-3.53607">
        <ele>2.22</ele>
        <time>2020-07-10T08:49:02Z</time>
      </trkpt>
      <trkpt lat="47.77541" lon="-3.53601">
        <ele>2.22</ele>
        <time>2020-07-10T08:49:03Z</time>
      </trkpt>
      <trkpt lat="47.77543" lon="-3.53596">
        <ele>2.16</ele>
        <time>2020-07-10T08:49:04Z</time>
      </trkpt>
      <trkpt lat="47.77546" lon="-3.53592">
        <ele>2.18</ele>
        <time>2020-07-10T08:49:05Z</time>
      </trkpt>
      <trkpt lat="47.77549" lon="-3.5359">
        <ele>2.26</ele>
        <time>2020-07-10T08:49:06Z</time>
      </trkpt>
      <trkpt lat="47.77553" lon="-3.53588">
        <ele>2.42</ele>
        <time>2020-07-10T08:49:07Z</time>
      </trkpt>
      <trkpt lat="47.77557" lon="-3.53587">
        <ele>2.67</ele>
        <time>2020-07-10T08:49:08Z</time>
      </trkpt>
      <trkpt lat="47.77561" lon="-3.53585">
        <ele>3.34</ele>
        <time>2020-07-10T08:49:09Z</time>
      </trkpt>
      <trkpt lat="47.77564" lon="-3.53582">
        <ele>4.04</ele>
        <time>2020-07-10T08:49:10Z</time>
      </trkpt>
      <trkpt lat="47.77567" lon="-3.53577">
        <ele>4.42</ele>
        <time>2020-07-10T08:49:11Z</time>
      </trkpt>
      <trkpt lat="47.77568" lon="-3.53571">
        <ele>4.32</ele>
        <time>2020-07-10T08:49:12Z</time>
      </trkpt>
      <trkpt lat="47.77568" lon="-3.53563">
        <ele>3.68</ele>
        <time>2020-07-10T08:49:13Z</time>
      </trkpt>
      <trkpt lat="47.7757" lon="-3.53556">
        <ele>3.3</ele>
        <time>2020-07-10T08:49:14Z</time>
      </trkpt>
      <trkpt lat="47.77572" lon="-3.53551">
        <ele>3.43</ele>
        <time>2020-07-10T08:49:15Z</time>
      </trkpt>
      <trkpt lat="47.77574" lon="-3.53545">
        <ele>3.77</ele>
        <time>2020-07-10T08:49:16Z</time>
      </trkpt>
      <trkpt lat="47.77577" lon="-3.53541">
        <ele>4.15</ele>
        <time>2020-07-10T08:49:17Z</time>
      </trkpt>
      <trkpt lat="47.77579" lon="-3.53537">
        <ele>4.51</ele>
        <time>2020-07-10T08:49:18Z</time>
      </trkpt>
      <trkpt lat="47.77581" lon="-3.53533">
        <ele>4.74</ele>
        <time>2020-07-10T08:49:19Z</time>
      </trkpt>
      <trkpt lat="47.77582" lon="-3.53528">
        <ele>4.8</ele>
        <time>2020-07-10T08:49:20Z</time>
      </trkpt>
      <trkpt lat="47.77583" lon="-3.53523">
        <ele>4.81</ele>
        <time>2020-07-10T08:49:21Z</time>
      </trkpt>
      <trkpt lat="47.77584" lon="-3.53516">
        <ele>4.71</ele>
        <time>2020-07-10T08:49:22Z</time>
      </trkpt>
      <trkpt lat="47.77584" lon="-3.53509">
        <ele>4.63</ele>
        <time>2020-07-10T08:49:23Z</time>
      </trkpt>
      <trkpt lat="47.77585" lon="-3.53503">
        <ele>4.52</ele>
        <time>2020-07-10T08:49:24Z</time>
      </trkpt>
      <trkpt lat="47.77586" lon="-3.53498">
        <ele>4.72</ele>
        <time>2020-07-10T08:49:25Z</time>
      </trkpt>
      <trkpt lat="47.77587" lon="-3.53491">
        <ele>5.01</ele>
        <time>2020-07-10T08:49:26Z</time>
      </trkpt>
      <trkpt lat="47.77588" lon="-3.53485">
        <ele>5.29</ele>
        <time>2020-07-10T08:49:27Z</time>
      </trkpt>
      <trkpt lat="47.77588" lon="-3.53478">
        <ele>5.41</ele>
        <time>2020-07-10T08:49:28Z</time>
      </trkpt>
      <trkpt lat="47.77587" lon="-3.53471">
        <ele>5.4</ele>
        <time>2020-07-10T08:49:29Z</time>
      </trkpt>
      <trkpt lat="47.77586" lon="-3.53464">
        <ele>5.4</ele>
        <time>2020-07-10T08:49:30Z</time>
      </trkpt>
      <trkpt lat="47.77585" lon="-3.53458">
        <ele>5.39</ele>
        <time>2020-07-10T08:49:31Z</time>
      </trkpt>
      <trkpt lat="47.77584" lon="-3.53451">
        <ele>5.5</ele>
        <time>2020-07-10T08:49:32Z</time>
      </trkpt>
      <trkpt lat="47.77582" lon="-3.53446">
        <ele>5.64</ele>
        <time>2020-07-10T08:49:33Z</time>
      </trkpt>
      <trkpt lat="47.77581" lon="-3.53439">
        <ele>5.7</ele>
        <time>2020-07-10T08:49:34Z</time>
      </trkpt>
      <trkpt lat="47.7758" lon="-3.53432">
        <ele>5.66</ele>
        <time>2020-07-10T08:49:35Z</time>
      </trkpt>
      <trkpt lat="47.77579" lon="-3.53425">
        <ele>5.61</ele>
        <time>2020-07-10T08:49:36Z</time>
      </trkpt>
      <trkpt lat="47.77578" lon="-3.53418">
        <ele>5.56</ele>
        <time>2020-07-10T08:49:37Z</time>
      </trkpt>
      <trkpt lat="47.77576" lon="-3.53411">
        <ele>5.1</ele>
        <time>2020-07-10T08:49:38Z</time>
      </trkpt>
      <trkpt lat="47.77576" lon="-3.53404">
        <ele>4.68</ele>
        <time>2020-07-10T08:49:39Z</time>
      </trkpt>
      <trkpt lat="47.77576" lon="-3.53396">
        <ele>4.3</ele>
        <time>2020-07-10T08:49:40Z</time>
      </trkpt>
      <trkpt lat="47.77577" lon="-3.53388">
        <ele>3.92</ele>
        <time>2020-07-10T08:49:41Z</time>
      </trkpt>
      <trkpt lat="47.77578" lon="-3.5338">
        <ele>3.43</ele>
        <time>2020-07-10T08:49:42Z</time>
      </trkpt>
      <trkpt lat="47.77579" lon="-3.53372">
        <ele>2.92</ele>
        <time>2020-07-10T08:49:43Z</time>
      </trkpt>
      <trkpt lat="47.77581" lon="-3.53364">
        <ele>2.33</ele>
        <time>2020-07-10T08:49:44Z</time>
      </trkpt>
      <trkpt lat="47.77582" lon="-3.53356">
        <ele>1.8</ele>
        <time>2020-07-10T08:49:45Z</time>
      </trkpt>
      <trkpt lat="47.77585" lon="-3.53349">
        <ele>1.39</ele>
        <time>2020-07-10T08:49:46Z</time>
      </trkpt>
      <trkpt lat="47.77589" lon="-3.53343">
        <ele>1.05</ele>
        <time>2020-07-10T08:49:47Z</time>
      </trkpt>
      <trkpt lat="47.77594" lon="-3.5334">
        <ele>0.84</ele>
        <time>2020-07-10T08:49:48Z</time>
      </trkpt>
      <trkpt lat="47.77598" lon="-3.53339">
        <ele>0.78</ele>
        <time>2020-07-10T08:49:49Z</time>
      </trkpt>
      <trkpt lat="47.77602" lon="-3.5334">
        <ele>0.92</ele>
        <time>2020-07-10T08:49:50Z</time>
      </trkpt>
      <trkpt lat="47.77606" lon="-3.53342">
        <ele>1.2</ele>
        <time>2020-07-10T08:49:51Z</time>
      </trkpt>
      <trkpt lat="47.7761" lon="-3.53344">
        <ele>1.69</ele>
        <time>2020-07-10T08:49:52Z</time>
      </trkpt>
      <trkpt lat="47.77613" lon="-3.53347">
        <ele>2.16</ele>
        <time>2020-07-10T08:49:53Z</time>
      </trkpt>
      <trkpt lat="47.77617" lon="-3.5335">
        <ele>2.49</ele>
        <time>2020-07-10T08:49:54Z</time>
      </trkpt>
      <trkpt lat="47.7762" lon="-3.53353">
        <ele>2.65</ele>
        <time>2020-07-10T08:49:55Z</time>
      </trkpt>
      <trkpt lat="47.77624" lon="-3.53355">
        <ele>2.67</ele>
        <time>2020-07-10T08:49:56Z</time>
      </trkpt>
      <trkpt lat="47.77627" lon="-3.53356">
        <ele>2.6</ele>
        <time>2020-07-10T08:49:57Z</time>
      </trkpt>
      <trkpt lat="47.77631" lon="-3.53358">
        <ele>2.48</ele>
        <time>2020-07-10T08:49:58Z</time>
      </trkpt>
      <trkpt lat="47.77635" lon="-3.5336">
        <ele>2.32</ele>
        <time>2020-07-10T08:49:59Z</time>
      </trkpt>
      <trkpt lat="47.7764" lon="-3.53361">
        <ele>2.05</ele>
        <time>2020-07-10T08:50:00Z</time>
      </trkpt>
      <trkpt lat="47.77644" lon="-3.53362">
        <ele>2.05</ele>
        <time>2020-07-10T08:50:01Z</time>
      </trkpt>
      <trkpt lat="47.77649" lon="-3.53364">
        <ele>2.35</ele>
        <time>2020-07-10T08:50:02Z</time>
      </trkpt>
      <trkpt lat="47.77654" lon="-3.53365">
        <ele>2.8</ele>
        <time>2020-07-10T08:50:03Z</time>
      </trkpt>
      <trkpt lat="47.77658" lon="-3.53367">
        <ele>3.25</ele>
        <time>2020-07-10T08:50:04Z</time>
      </trkpt>
      <trkpt lat="47.77663" lon="-3.53368">
        <ele>3.54</ele>
        <time>2020-07-10T08:50:05Z</time>
      </trkpt>
      <trkpt lat="47.77668" lon="-3.53369">
        <ele>3.89</ele>
        <time>2020-07-10T08:50:06Z</time>
      </trkpt>
      <trkpt lat="47.77672" lon="-3.5337">
        <ele>4.2</ele>
        <time>2020-07-10T08:50:07Z</time>
      </trkpt>
      <trkpt lat="47.77676" lon="-3.53371">
        <ele>4.67</ele>
        <time>2020-07-10T08:50:08Z</time>
      </trkpt>
      <trkpt lat="47.7768" lon="-3.53373">
        <ele>5.11</ele>
        <time>2020-07-10T08:50:09Z</time>
      </trkpt>
      <trkpt lat="47.77684" lon="-3.53374">
        <ele>5.28</ele>
        <time>2020-07-10T08:50:10Z</time>
      </trkpt>
      <trkpt lat="47.77688" lon="-3.53372">
        <ele>5</ele>
        <time>2020-07-10T08:50:11Z</time>
      </trkpt>
      <trkpt lat="47.77692" lon="-3.53371">
        <ele>4.49</ele>
        <time>2020-07-10T08:50:12Z</time>
      </trkpt>
      <trkpt lat="47.77696" lon="-3.53369">
        <ele>3.98</ele>
        <time>2020-07-10T08:50:13Z</time>
      </trkpt>
      <trkpt lat="47.77699" lon="-3.53368">
        <ele>3.59</ele>
        <time>2020-07-10T08:50:14Z</time>
      </trkpt>
      <trkpt lat="47.77702" lon="-3.53364">
        <ele>2.93</ele>
        <time>2020-07-10T08:50:15Z</time>
      </trkpt>
      <trkpt lat="47.77706" lon="-3.53362">
        <ele>2.35</ele>
        <time>2020-07-10T08:50:16Z</time>
      </trkpt>
      <trkpt lat="47.77711" lon="-3.53359">
        <ele>2.08</ele>
        <time>2020-07-10T08:50:17Z</time>
      </trkpt>
      <trkpt lat="47.77716" lon="-3.53357">
        <ele>2.01</ele>
        <time>2020-07-10T08:50:18Z</time>
      </trkpt>
      <trkpt lat="47.7772" lon="-3.53355">
        <ele>1.98</ele>
        <time>2020-07-10T08:50:19Z</time>
      </trkpt>
      <trkpt lat="47.77725" lon="-3.53354">
        <ele>2.22</ele>
        <time>2020-07-10T08:50:20Z</time>
      </trkpt>
      <trkpt lat="47.77729" lon="-3.53353">
        <ele>2.53</ele>
        <time>2020-07-10T08:50:21Z</time>
      </trkpt>
      <trkpt lat="47.77733" lon="-3.53353">
        <ele>2.84</ele>
        <time>2020-07-10T08:50:22Z</time>
      </trkpt>
      <trkpt lat="47.77737" lon="-3.53352">
        <ele>3.22</ele>
        <time>2020-07-10T08:50:23Z</time>
      </trkpt>
      <trkpt lat="47.77741" lon="-3.53352">
        <ele>3.54</ele>
        <time>2020-07-10T08:50:24Z</time>
      </trkpt>
      <trkpt lat="47.77745" lon="-3.53351">
        <ele>3.8</ele>
        <time>2020-07-10T08:50:25Z</time>
      </trkpt>
      <trkpt lat="47.77749" lon="-3.53349">
        <ele>3.81</ele>
        <time>2020-07-10T08:50:26Z</time>
      </trkpt>
      <trkpt lat="47.77753" lon="-3.53348">
        <ele>3.84</ele>
        <time>2020-07-10T08:50:27Z</time>
      </trkpt>
      <trkpt lat="47.77758" lon="-3.53347">
        <ele>3.8</ele>
        <time>2020-07-10T08:50:28Z</time>
      </trkpt>
      <trkpt lat="47.77763" lon="-3.53348">
        <ele>3.99</ele>
        <time>2020-07-10T08:50:29Z</time>
      </trkpt>
      <trkpt lat="47.77768" lon="-3.53348">
        <ele>4.21</ele>
        <time>2020-07-10T08:50:30Z</time>
      </trkpt>
      <trkpt lat="47.77772" lon="-3.53348">
        <ele>4.4</ele>
        <time>2020-07-10T08:50:31Z</time>
      </trkpt>
      <trkpt lat="47.77776" lon="-3.53348">
        <ele>4.66</ele>
        <time>2020-07-10T08:50:32Z</time>
      </trkpt>
      <trkpt lat="47.7778" lon="-3.53349">
        <ele>4.86</ele>
        <time>2020-07-10T08:50:33Z</time>
      </trkpt>
      <trkpt lat="47.77785" lon="-3.53349">
        <ele>4.98</ele>
        <time>2020-07-10T08:50:34Z</time>
      </trkpt>
      <trkpt lat="47.77789" lon="-3.5335">
        <ele>5.1</ele>
        <time>2020-07-10T08:50:35Z</time>
      </trkpt>
      <trkpt lat="47.77794" lon="-3.5335">
        <ele>5.2</ele>
        <time>2020-07-10T08:50:36Z</time>
      </trkpt>
      <trkpt lat="47.77798" lon="-3.5335">
        <ele>5.17</ele>
        <time>2020-07-10T08:50:37Z</time>
      </trkpt>
      <trkpt lat="47.77802" lon="-3.5335">
        <ele>5.19</ele>
        <time>2020-07-10T08:50:38Z</time>
      </trkpt>
      <trkpt lat="47.77805" lon="-3.53351">
        <ele>5.29</ele>
        <time>2020-07-10T08:50:39Z</time>
      </trkpt>
      <trkpt lat="47.7781" lon="-3.5335">
        <ele>5.29</ele>
        <time>2020-07-10T08:50:40Z</time>
      </trkpt>
      <trkpt lat="47.77814" lon="-3.53349">
        <ele>5.23</ele>
        <time>2020-07-10T08:50:41Z</time>
      </trkpt>
      <trkpt lat="47.77818" lon="-3.53349">
        <ele>5.17</ele>
        <time>2020-07-10T08:50:42Z</time>
      </trkpt>
      <trkpt lat="47.77822" lon="-3.5335">
        <ele>5.51</ele>
        <time>2020-07-10T08:50:43Z</time>
      </trkpt>
      <trkpt lat="47.77827" lon="-3.5335">
        <ele>5.56</ele>
        <time>2020-07-10T08:50:44Z</time>
      </trkpt>
      <trkpt lat="47.77833" lon="-3.53349">
        <ele>5.48</ele>
        <time>2020-07-10T08:50:45Z</time>
      </trkpt>
      <trkpt lat="47.77837" lon="-3.53348">
        <ele>5.4</ele>
        <time>2020-07-10T08:50:46Z</time>
      </trkpt>
      <trkpt lat="47.77841" lon="-3.53346">
        <ele>5.29</ele>
        <time>2020-07-10T08:50:47Z</time>
      </trkpt>
      <trkpt lat="47.77846" lon="-3.53345">
        <ele>5.31</ele>
        <time>2020-07-10T08:50:48Z</time>
      </trkpt>
      <trkpt lat="47.77851" lon="-3.53344">
        <ele>5.25</ele>
        <time>2020-07-10T08:50:49Z</time>
      </trkpt>
      <trkpt lat="47.77855" lon="-3.53343">
        <ele>5.28</ele>
        <time>2020-07-10T08:50:50Z</time>
      </trkpt>
      <trkpt lat="47.77859" lon="-3.53341">
        <ele>5.17</ele>
        <time>2020-07-10T08:50:51Z</time>
      </trkpt>
      <trkpt lat="47.77863" lon="-3.5334">
        <ele>5.13</ele>
        <time>2020-07-10T08:50:52Z</time>
      </trkpt>
      <trkpt lat="47.77866" lon="-3.53338">
        <ele>5.04</ele>
        <time>2020-07-10T08:50:53Z</time>
      </trkpt>
      <trkpt lat="47.7787" lon="-3.53336">
        <ele>4.75</ele>
        <time>2020-07-10T08:50:54Z</time>
      </trkpt>
      <trkpt lat="47.77874" lon="-3.53332">
        <ele>4.31</ele>
        <time>2020-07-10T08:50:55Z</time>
      </trkpt>
      <trkpt lat="47.77881" lon="-3.53328">
        <ele>4.12</ele>
        <time>2020-07-10T08:50:56Z</time>
      </trkpt>
      <trkpt lat="47.77887" lon="-3.53325">
        <ele>3.87</ele>
        <time>2020-07-10T08:50:57Z</time>
      </trkpt>
      <trkpt lat="47.77893" lon="-3.53321">
        <ele>3.34</ele>
        <time>2020-07-10T08:50:58Z</time>
      </trkpt>
      <trkpt lat="47.77899" lon="-3.53317">
        <ele>2.72</ele>
        <time>2020-07-10T08:50:59Z</time>
      </trkpt>
      <trkpt lat="47.77906" lon="-3.53314">
        <ele>2.29</ele>
        <time>2020-07-10T08:51:00Z</time>
      </trkpt>
      <trkpt lat="47.77911" lon="-3.53311">
        <ele>1.9</ele>
        <time>2020-07-10T08:51:01Z</time>
      </trkpt>
      <trkpt lat="47.77917" lon="-3.53309">
        <ele>1.73</ele>
        <time>2020-07-10T08:51:02Z</time>
      </trkpt>
      <trkpt lat="47.77921" lon="-3.53309">
        <ele>1.5</ele>
        <time>2020-07-10T08:51:03Z</time>
      </trkpt>
      <trkpt lat="47.77925" lon="-3.5331">
        <ele>1.51</ele>
        <time>2020-07-10T08:51:04Z</time>
      </trkpt>
      <trkpt lat="47.77927" lon="-3.53312">
        <ele>1.64</ele>
        <time>2020-07-10T08:51:05Z</time>
      </trkpt>
      <trkpt lat="47.77929" lon="-3.53315">
        <ele>1.92</ele>
        <time>2020-07-10T08:51:06Z</time>
      </trkpt>
      <trkpt lat="47.7793" lon="-3.53319">
        <ele>2.27</ele>
        <time>2020-07-10T08:51:07Z</time>
      </trkpt>
      <trkpt lat="47.77933" lon="-3.53322">
        <ele>2.54</ele>
        <time>2020-07-10T08:51:08Z</time>
      </trkpt>
      <trkpt lat="47.77935" lon="-3.53326">
        <ele>2.74</ele>
        <time>2020-07-10T08:51:09Z</time>
      </trkpt>
      <trkpt lat="47.77937" lon="-3.5333">
        <ele>2.86</ele>
        <time>2020-07-10T08:51:10Z</time>
      </trkpt>
      <trkpt lat="47.7794" lon="-3.53335">
        <ele>3</ele>
        <time>2020-07-10T08:51:11Z</time>
      </trkpt>
      <trkpt lat="47.77943" lon="-3.53338">
        <ele>3.15</ele>
        <time>2020-07-10T08:51:12Z</time>
      </trkpt>
      <trkpt lat="47.77946" lon="-3.53342">
        <ele>3.41</ele>
        <time>2020-07-10T08:51:13Z</time>
      </trkpt>
      <trkpt lat="47.77949" lon="-3.53343">
        <ele>3.68</ele>
        <time>2020-07-10T08:51:14Z</time>
      </trkpt>
      <trkpt lat="47.77952" lon="-3.53342">
        <ele>3.62</ele>
        <time>2020-07-10T08:51:15Z</time>
      </trkpt>
      <trkpt lat="47.77954" lon="-3.53339">
        <ele>3.26</ele>
        <time>2020-07-10T08:51:16Z</time>
      </trkpt>
      <trkpt lat="47.77957" lon="-3.53336">
        <ele>2.78</ele>
        <time>2020-07-10T08:51:17Z</time>
      </trkpt>
      <trkpt lat="47.7796" lon="-3.53335">
        <ele>2.42</ele>
        <time>2020-07-10T08:51:18Z</time>
      </trkpt>
      <trkpt lat="47.77963" lon="-3.53334">
        <ele>2.21</ele>
        <time>2020-07-10T08:51:19Z</time>
      </trkpt>
      <trkpt lat="47.77966" lon="-3.53334">
        <ele>2.13</ele>
        <time>2020-07-10T08:51:20Z</time>
      </trkpt>
      <trkpt lat="47.7797" lon="-3.53335">
        <ele>2.18</ele>
        <time>2020-07-10T08:51:21Z</time>
      </trkpt>
      <trkpt lat="47.77973" lon="-3.53335">
        <ele>2.29</ele>
        <time>2020-07-10T08:51:22Z</time>
      </trkpt>
      <trkpt lat="47.77976" lon="-3.53335">
        <ele>2.66</ele>
        <time>2020-07-10T08:51:23Z</time>
      </trkpt>
      <trkpt lat="47.77978" lon="-3.53334">
        <ele>2.88</ele>
        <time>2020-07-10T08:51:24Z</time>
      </trkpt>
      <trkpt lat="47.77981" lon="-3.53333">
        <ele>3.13</ele>
        <time>2020-07-10T08:51:25Z</time>
      </trkpt>
      <trkpt lat="47.77985" lon="-3.53332">
        <ele>3.42</ele>
        <time>2020-07-10T08:51:26Z</time>
      </trkpt>
      <trkpt lat="47.77989" lon="-3.53329">
        <ele>3.57</ele>
        <time>2020-07-10T08:51:27Z</time>
      </trkpt>
      <trkpt lat="47.77992" lon="-3.53325">
        <ele>3.42</ele>
        <time>2020-07-10T08:51:28Z</time>
      </trkpt>
      <trkpt lat="47.77995" lon="-3.53321">
        <ele>3.11</ele>
        <time>2020-07-10T08:51:29Z</time>
      </trkpt>
      <trkpt lat="47.77998" lon="-3.53316">
        <ele>2.45</ele>
        <time>2020-07-10T08:51:30Z</time>
      </trkpt>
      <trkpt lat="47.78002" lon="-3.53311">
        <ele>1.72</ele>
        <time>2020-07-10T08:51:31Z</time>
      </trkpt>
      <trkpt lat="47.78005" lon="-3.53306">
        <ele>1.14</ele>
        <time>2020-07-10T08:51:32Z</time>
      </trkpt>
      <trkpt lat="47.78009" lon="-3.53302">
        <ele>1.1</ele>
        <time>2020-07-10T08:51:33Z</time>
      </trkpt>
      <trkpt lat="47.78014" lon="-3.53299">
        <ele>1.3</ele>
        <time>2020-07-10T08:51:34Z</time>
      </trkpt>
      <trkpt lat="47.78019" lon="-3.53296">
        <ele>1.56</ele>
        <time>2020-07-10T08:51:35Z</time>
      </trkpt>
      <trkpt lat="47.78024" lon="-3.53295">
        <ele>1.9</ele>
        <time>2020-07-10T08:51:36Z</time>
      </trkpt>
      <trkpt lat="47.78028" lon="-3.53294">
        <ele>2.22</ele>
        <time>2020-07-10T08:51:37Z</time>
      </trkpt>
      <trkpt lat="47.78033" lon="-3.53293">
        <ele>2.37</ele>
        <time>2020-07-10T08:51:38Z</time>
      </trkpt>
      <trkpt lat="47.78036" lon="-3.53292">
        <ele>2.29</ele>
        <time>2020-07-10T08:51:39Z</time>
      </trkpt>
      <trkpt lat="47.78038" lon="-3.53289">
        <ele>2.05</ele>
        <time>2020-07-10T08:51:40Z</time>
      </trkpt>
      <trkpt lat="47.78043" lon="-3.53288">
        <ele>1.97</ele>
        <time>2020-07-10T08:51:41Z</time>
      </trkpt>
      <trkpt lat="47.78048" lon="-3.53286">
        <ele>1.65</ele>
        <time>2020-07-10T08:51:42Z</time>
      </trkpt>
      <trkpt lat="47.78053" lon="-3.53284">
        <ele>1.4</ele>
        <time>2020-07-10T08:51:43Z</time>
      </trkpt>
      <trkpt lat="47.78057" lon="-3.53283">
        <ele>1.29</ele>
        <time>2020-07-10T08:51:44Z</time>
      </trkpt>
      <trkpt lat="47.78061" lon="-3.53284">
        <ele>1.31</ele>
        <time>2020-07-10T08:51:45Z</time>
      </trkpt>
      <trkpt lat="47.78066" lon="-3.53283">
        <ele>1.28</ele>
        <time>2020-07-10T08:51:46Z</time>
      </trkpt>
      <trkpt lat="47.7807" lon="-3.53283">
        <ele>1.33</ele>
        <time>2020-07-10T08:51:47Z</time>
      </trkpt>
      <trkpt lat="47.78074" lon="-3.53284">
        <ele>1.42</ele>
        <time>2020-07-10T08:51:48Z</time>
      </trkpt>
      <trkpt lat="47.78078" lon="-3.53285">
        <ele>1.63</ele>
        <time>2020-07-10T08:51:49Z</time>
      </trkpt>
      <trkpt lat="47.78081" lon="-3.53286">
        <ele>1.9</ele>
        <time>2020-07-10T08:51:50Z</time>
      </trkpt>
      <trkpt lat="47.78085" lon="-3.53286">
        <ele>2.03</ele>
        <time>2020-07-10T08:51:51Z</time>
      </trkpt>
      <trkpt lat="47.78088" lon="-3.53284">
        <ele>2.03</ele>
        <time>2020-07-10T08:51:52Z</time>
      </trkpt>
      <trkpt lat="47.78093" lon="-3.53282">
        <ele>1.78</ele>
        <time>2020-07-10T08:51:53Z</time>
      </trkpt>
      <trkpt lat="47.78097" lon="-3.5328">
        <ele>1.56</ele>
        <time>2020-07-10T08:51:54Z</time>
      </trkpt>
      <trkpt lat="47.78101" lon="-3.53279">
        <ele>1.66</ele>
        <time>2020-07-10T08:51:55Z</time>
      </trkpt>
      <trkpt lat="47.78105" lon="-3.5328">
        <ele>1.96</ele>
        <time>2020-07-10T08:51:56Z</time>
      </trkpt>
      <trkpt lat="47.7811" lon="-3.53279">
        <ele>2.22</ele>
        <time>2020-07-10T08:51:57Z</time>
      </trkpt>
      <trkpt lat="47.78114" lon="-3.53278">
        <ele>2.39</ele>
        <time>2020-07-10T08:51:58Z</time>
      </trkpt>
      <trkpt lat="47.78119" lon="-3.53277">
        <ele>2.77</ele>
        <time>2020-07-10T08:51:59Z</time>
      </trkpt>
      <trkpt lat="47.78123" lon="-3.53275">
        <ele>3.09</ele>
        <time>2020-07-10T08:52:00Z</time>
      </trkpt>
      <trkpt lat="47.78127" lon="-3.53273">
        <ele>3.29</ele>
        <time>2020-07-10T08:52:01Z</time>
      </trkpt>
      <trkpt lat="47.78131" lon="-3.5327">
        <ele>3.37</ele>
        <time>2020-07-10T08:52:02Z</time>
      </trkpt>
      <trkpt lat="47.78134" lon="-3.53267">
        <ele>3.28</ele>
        <time>2020-07-10T08:52:03Z</time>
      </trkpt>
      <trkpt lat="47.78138" lon="-3.53264">
        <ele>3.03</ele>
        <time>2020-07-10T08:52:04Z</time>
      </trkpt>
      <trkpt lat="47.78142" lon="-3.53261">
        <ele>2.78</ele>
        <time>2020-07-10T08:52:05Z</time>
      </trkpt>
      <trkpt lat="47.78145" lon="-3.5326">
        <ele>2.64</ele>
        <time>2020-07-10T08:52:06Z</time>
      </trkpt>
      <trkpt lat="47.78149" lon="-3.53257">
        <ele>2.42</ele>
        <time>2020-07-10T08:52:07Z</time>
      </trkpt>
      <trkpt lat="47.78153" lon="-3.53256">
        <ele>2.38</ele>
        <time>2020-07-10T08:52:08Z</time>
      </trkpt>
      <trkpt lat="47.78157" lon="-3.53256">
        <ele>2.62</ele>
        <time>2020-07-10T08:52:09Z</time>
      </trkpt>
      <trkpt lat="47.78161" lon="-3.53256">
        <ele>2.92</ele>
        <time>2020-07-10T08:52:10Z</time>
      </trkpt>
      <trkpt lat="47.78164" lon="-3.53254">
        <ele>2.87</ele>
        <time>2020-07-10T08:52:11Z</time>
      </trkpt>
      <trkpt lat="47.78168" lon="-3.53253">
        <ele>2.79</ele>
        <time>2020-07-10T08:52:12Z</time>
      </trkpt>
      <trkpt lat="47.78172" lon="-3.53252">
        <ele>2.5</ele>
        <time>2020-07-10T08:52:13Z</time>
      </trkpt>
      <trkpt lat="47.78177" lon="-3.53251">
        <ele>2.36</ele>
        <time>2020-07-10T08:52:14Z</time>
      </trkpt>
      <trkpt lat="47.78182" lon="-3.53252">
        <ele>2.43</ele>
        <time>2020-07-10T08:52:15Z</time>
      </trkpt>
      <trkpt lat="47.78187" lon="-3.53253">
        <ele>2.6</ele>
        <time>2020-07-10T08:52:16Z</time>
      </trkpt>
      <trkpt lat="47.78191" lon="-3.53253">
        <ele>2.8</ele>
        <time>2020-07-10T08:52:17Z</time>
      </trkpt>
      <trkpt lat="47.78195" lon="-3.53254">
        <ele>2.92</ele>
        <time>2020-07-10T08:52:18Z</time>
      </trkpt>
      <trkpt lat="47.78199" lon="-3.53255">
        <ele>3.19</ele>
        <time>2020-07-10T08:52:19Z</time>
      </trkpt>
      <trkpt lat="47.78202" lon="-3.53257">
        <ele>3.72</ele>
        <time>2020-07-10T08:52:20Z</time>
      </trkpt>
      <trkpt lat="47.78205" lon="-3.53259">
        <ele>4.18</ele>
        <time>2020-07-10T08:52:21Z</time>
      </trkpt>
      <trkpt lat="47.78208" lon="-3.53259">
        <ele>4.43</ele>
        <time>2020-07-10T08:52:22Z</time>
      </trkpt>
      <trkpt lat="47.78212" lon="-3.53259">
        <ele>4.57</ele>
        <time>2020-07-10T08:52:23Z</time>
      </trkpt>
      <trkpt lat="47.78215" lon="-3.53256">
        <ele>3.95</ele>
        <time>2020-07-10T08:52:24Z</time>
      </trkpt>
      <trkpt lat="47.78218" lon="-3.53253">
        <ele>3.35</ele>
        <time>2020-07-10T08:52:25Z</time>
      </trkpt>
      <trkpt lat="47.78221" lon="-3.5325">
        <ele>2.41</ele>
        <time>2020-07-10T08:52:26Z</time>
      </trkpt>
      <trkpt lat="47.78224" lon="-3.53247">
        <ele>2.1</ele>
        <time>2020-07-10T08:52:27Z</time>
      </trkpt>
      <trkpt lat="47.78228" lon="-3.53244">
        <ele>2.18</ele>
        <time>2020-07-10T08:52:28Z</time>
      </trkpt>
      <trkpt lat="47.78233" lon="-3.53241">
        <ele>2.31</ele>
        <time>2020-07-10T08:52:29Z</time>
      </trkpt>
      <trkpt lat="47.78238" lon="-3.53237">
        <ele>2.36</ele>
        <time>2020-07-10T08:52:30Z</time>
      </trkpt>
      <trkpt lat="47.78241" lon="-3.53235">
        <ele>2.37</ele>
        <time>2020-07-10T08:52:31Z</time>
      </trkpt>
      <trkpt lat="47.78245" lon="-3.53233">
        <ele>2.29</ele>
        <time>2020-07-10T08:52:32Z</time>
      </trkpt>
      <trkpt lat="47.78248" lon="-3.53232">
        <ele>2.24</ele>
        <time>2020-07-10T08:52:33Z</time>
      </trkpt>
      <trkpt lat="47.7825" lon="-3.5323">
        <ele>2.05</ele>
        <time>2020-07-10T08:52:34Z</time>
      </trkpt>
      <trkpt lat="47.78254" lon="-3.53228">
        <ele>1.74</ele>
        <time>2020-07-10T08:52:35Z</time>
      </trkpt>
      <trkpt lat="47.78258" lon="-3.53226">
        <ele>1.4</ele>
        <time>2020-07-10T08:52:36Z</time>
      </trkpt>
      <trkpt lat="47.78263" lon="-3.53225">
        <ele>1.17</ele>
        <time>2020-07-10T08:52:37Z</time>
      </trkpt>
      <trkpt lat="47.78268" lon="-3.53224">
        <ele>1.15</ele>
        <time>2020-07-10T08:52:38Z</time>
      </trkpt>
      <trkpt lat="47.78274" lon="-3.53223">
        <ele>1.05</ele>
        <time>2020-07-10T08:52:39Z</time>
      </trkpt>
      <trkpt lat="47.7828" lon="-3.53222">
        <ele>1.05</ele>
        <time>2020-07-10T08:52:40Z</time>
      </trkpt>
      <trkpt lat="47.78285" lon="-3.53222">
        <ele>1.21</ele>
        <time>2020-07-10T08:52:41Z</time>
      </trkpt>
      <trkpt lat="47.7829" lon="-3.53223">
        <ele>1.47</ele>
        <time>2020-07-10T08:52:42Z</time>
      </trkpt>
      <trkpt lat="47.78295" lon="-3.53223">
        <ele>1.67</ele>
        <time>2020-07-10T08:52:43Z</time>
      </trkpt>
      <trkpt lat="47.78299" lon="-3.53223">
        <ele>1.78</ele>
        <time>2020-07-10T08:52:44Z</time>
      </trkpt>
      <trkpt lat="47.78303" lon="-3.53223">
        <ele>2.04</ele>
        <time>2020-07-10T08:52:45Z</time>
      </trkpt>
      <trkpt lat="47.78308" lon="-3.53226">
        <ele>2.47</ele>
        <time>2020-07-10T08:52:46Z</time>
      </trkpt>
      <trkpt lat="47.78312" lon="-3.53228">
        <ele>2.86</ele>
        <time>2020-07-10T08:52:47Z</time>
      </trkpt>
      <trkpt lat="47.78317" lon="-3.53231">
        <ele>3.2</ele>
        <time>2020-07-10T08:52:48Z</time>
      </trkpt>
      <trkpt lat="47.78319" lon="-3.53232">
        <ele>3.36</ele>
        <time>2020-07-10T08:52:49Z</time>
      </trkpt>
      <trkpt lat="47.78321" lon="-3.53233">
        <ele>3.45</ele>
        <time>2020-07-10T08:52:50Z</time>
      </trkpt>
      <trkpt lat="47.78323" lon="-3.53233">
        <ele>3.42</ele>
        <time>2020-07-10T08:52:51Z</time>
      </trkpt>
      <trkpt lat="47.78324" lon="-3.53233">
        <ele>3.39</ele>
        <time>2020-07-10T08:52:52Z</time>
      </trkpt>
      <trkpt lat="47.78324" lon="-3.53234">
        <ele>3.54</ele>
        <time>2020-07-10T08:52:53Z</time>
      </trkpt>
      <trkpt lat="47.78326" lon="-3.53235">
        <ele>3.69</ele>
        <time>2020-07-10T08:52:54Z</time>
      </trkpt>
      <trkpt lat="47.78328" lon="-3.53237">
        <ele>3.85</ele>
        <time>2020-07-10T08:52:55Z</time>
      </trkpt>
      <trkpt lat="47.7833" lon="-3.53239">
        <ele>4.05</ele>
        <time>2020-07-10T08:52:56Z</time>
      </trkpt>
      <trkpt lat="47.78332" lon="-3.5324">
        <ele>4.15</ele>
        <time>2020-07-10T08:52:57Z</time>
      </trkpt>
      <trkpt lat="47.78334" lon="-3.53239">
        <ele>4.07</ele>
        <time>2020-07-10T08:52:58Z</time>
      </trkpt>
      <trkpt lat="47.78336" lon="-3.53239">
        <ele>4.28</ele>
        <time>2020-07-10T08:52:59Z</time>
      </trkpt>
      <trkpt lat="47.78337" lon="-3.53239">
        <ele>4.46</ele>
        <time>2020-07-10T08:53:00Z</time>
      </trkpt>
      <trkpt lat="47.78339" lon="-3.53237">
        <ele>4.53</ele>
        <time>2020-07-10T08:53:01Z</time>
      </trkpt>
      <trkpt lat="47.7834" lon="-3.53236">
        <ele>4.53</ele>
        <time>2020-07-10T08:53:02Z</time>
      </trkpt>
      <trkpt lat="47.78341" lon="-3.53236">
        <ele>4.65</ele>
        <time>2020-07-10T08:53:03Z</time>
      </trkpt>
      <trkpt lat="47.78341" lon="-3.53236">
        <ele>4.71</ele>
        <time>2020-07-10T08:53:04Z</time>
      </trkpt>
      <trkpt lat="47.78342" lon="-3.53235">
        <ele>4.68</ele>
        <time>2020-07-10T08:53:05Z</time>
      </trkpt>
      <trkpt lat="47.78342" lon="-3.53234">
        <ele>4.6</ele>
        <time>2020-07-10T08:53:06Z</time>
      </trkpt>
      <trkpt lat="47.78342" lon="-3.53234">
        <ele>4.57</ele>
        <time>2020-07-10T08:53:07Z</time>
      </trkpt>
      <trkpt lat="47.78342" lon="-3.53234">
        <ele>4.57</ele>
        <time>2020-07-10T08:53:08Z</time>
      </trkpt>
      <trkpt lat="47.78342" lon="-3.53234">
        <ele>4.56</ele>
        <time>2020-07-10T08:53:09Z</time>
      </trkpt>
      <trkpt lat="47.78342" lon="-3.53234">
        <ele>4.56</ele>
        <time>2020-07-10T08:53:10Z</time>
      </trkpt>
      <trkpt lat="47.78342" lon="-3.53234">
        <ele>4.56</ele>
        <time>2020-07-10T08:53:11Z</time>
      </trkpt>
      <trkpt lat="47.78342" lon="-3.53234">
        <ele>4.56</ele>
        <time>2020-07-10T08:53:12Z</time>
      </trkpt>
      <trkpt lat="47.78342" lon="-3.53234">
        <ele>4.56</ele>
        <time>2020-07-10T08:53:13Z</time>
      </trkpt>
      <trkpt lat="47.78342" lon="-3.53234">
        <ele>4.56</ele>
        <time>2020-07-10T08:53:14Z</time>
      </trkpt>
      <trkpt lat="47.78342" lon="-3.53234">
        <ele>4.56</ele>
        <time>2020-07-10T08:53:15Z</time>
      </trkpt>
      <trkpt lat="47.78342" lon="-3.53234">
        <ele>4.56</ele>
        <time>2020-07-10T08:53:16Z</time>
      </trkpt>
      <trkpt lat="47.78342" lon="-3.53234">
        <ele>4.56</ele>
        <time>2020-07-10T08:53:17Z</time>
      </trkpt>
      <trkpt lat="47.78347" lon="-3.53223">
        <ele>4.25</ele>
        <time>2020-07-10T08:53:18Z</time>
      </trkpt>
      <trkpt lat="47.78348" lon="-3.53221">
        <ele>4.16</ele>
        <time>2020-07-10T08:53:19Z</time>
      </trkpt>
      <trkpt lat="47.7835" lon="-3.53219">
        <ele>4.24</ele>
        <time>2020-07-10T08:53:20Z</time>
      </trkpt>
      <trkpt lat="47.7835" lon="-3.53216">
        <ele>4.2</ele>
        <time>2020-07-10T08:53:21Z</time>
      </trkpt>
      <trkpt lat="47.78351" lon="-3.53214">
        <ele>4.16</ele>
        <time>2020-07-10T08:53:22Z</time>
      </trkpt>
      <trkpt lat="47.78351" lon="-3.53211">
        <ele>4.06</ele>
        <time>2020-07-10T08:53:23Z</time>
      </trkpt>
      <trkpt lat="47.78352" lon="-3.5321">
        <ele>3.95</ele>
        <time>2020-07-10T08:53:24Z</time>
      </trkpt>
      <trkpt lat="47.78352" lon="-3.53207">
        <ele>3.82</ele>
        <time>2020-07-10T08:53:25Z</time>
      </trkpt>
      <trkpt lat="47.78353" lon="-3.53204">
        <ele>3.67</ele>
        <time>2020-07-10T08:53:26Z</time>
      </trkpt>
      <trkpt lat="47.78353" lon="-3.53201">
        <ele>3.48</ele>
        <time>2020-07-10T08:53:27Z</time>
      </trkpt>
      <trkpt lat="47.78355" lon="-3.53194">
        <ele>3.16</ele>
        <time>2020-07-10T08:53:28Z</time>
      </trkpt>
      <trkpt lat="47.78357" lon="-3.53187">
        <ele>2.83</ele>
        <time>2020-07-10T08:53:29Z</time>
      </trkpt>
      <trkpt lat="47.78358" lon="-3.53182">
        <ele>2.45</ele>
        <time>2020-07-10T08:53:30Z</time>
      </trkpt>
      <trkpt lat="47.78359" lon="-3.53176">
        <ele>2.05</ele>
        <time>2020-07-10T08:53:31Z</time>
      </trkpt>
      <trkpt lat="47.78362" lon="-3.53172">
        <ele>1.8</ele>
        <time>2020-07-10T08:53:32Z</time>
      </trkpt>
      <trkpt lat="47.78363" lon="-3.5317">
        <ele>1.63</ele>
        <time>2020-07-10T08:53:33Z</time>
      </trkpt>
      <trkpt lat="47.78363" lon="-3.53167">
        <ele>1.49</ele>
        <time>2020-07-10T08:53:34Z</time>
      </trkpt>
      <trkpt lat="47.78365" lon="-3.53165">
        <ele>1.45</ele>
        <time>2020-07-10T08:53:35Z</time>
      </trkpt>
      <trkpt lat="47.78367" lon="-3.53163">
        <ele>1.51</ele>
        <time>2020-07-10T08:53:36Z</time>
      </trkpt>
      <trkpt lat="47.7837" lon="-3.53162">
        <ele>1.69</ele>
        <time>2020-07-10T08:53:37Z</time>
      </trkpt>
      <trkpt lat="47.78373" lon="-3.5316">
        <ele>1.83</ele>
        <time>2020-07-10T08:53:38Z</time>
      </trkpt>
      <trkpt lat="47.78376" lon="-3.53157">
        <ele>1.87</ele>
        <time>2020-07-10T08:53:39Z</time>
      </trkpt>
      <trkpt lat="47.78378" lon="-3.53155">
        <ele>1.86</ele>
        <time>2020-07-10T08:53:40Z</time>
      </trkpt>
      <trkpt lat="47.78381" lon="-3.53153">
        <ele>1.87</ele>
        <time>2020-07-10T08:53:41Z</time>
      </trkpt>
      <trkpt lat="47.78384" lon="-3.53151">
        <ele>1.86</ele>
        <time>2020-07-10T08:53:42Z</time>
      </trkpt>
      <trkpt lat="47.78387" lon="-3.53149">
        <ele>1.78</ele>
        <time>2020-07-10T08:53:43Z</time>
      </trkpt>
      <trkpt lat="47.7839" lon="-3.53147">
        <ele>1.68</ele>
        <time>2020-07-10T08:53:44Z</time>
      </trkpt>
      <trkpt lat="47.78393" lon="-3.53144">
        <ele>1.51</ele>
        <time>2020-07-10T08:53:45Z</time>
      </trkpt>
      <trkpt lat="47.78396" lon="-3.53141">
        <ele>1.26</ele>
        <time>2020-07-10T08:53:46Z</time>
      </trkpt>
      <trkpt lat="47.78399" lon="-3.53139">
        <ele>1.16</ele>
        <time>2020-07-10T08:53:47Z</time>
      </trkpt>
      <trkpt lat="47.78402" lon="-3.53138">
        <ele>1.28</ele>
        <time>2020-07-10T08:53:48Z</time>
      </trkpt>
      <trkpt lat="47.78405" lon="-3.53137">
        <ele>1.5</ele>
        <time>2020-07-10T08:53:49Z</time>
      </trkpt>
      <trkpt lat="47.78408" lon="-3.53135">
        <ele>1.69</ele>
        <time>2020-07-10T08:53:50Z</time>
      </trkpt>
      <trkpt lat="47.78411" lon="-3.53134">
        <ele>1.86</ele>
        <time>2020-07-10T08:53:51Z</time>
      </trkpt>
      <trkpt lat="47.78415" lon="-3.53132">
        <ele>2.03</ele>
        <time>2020-07-10T08:53:52Z</time>
      </trkpt>
      <trkpt lat="47.78419" lon="-3.5313">
        <ele>2.5</ele>
        <time>2020-07-10T08:53:53Z</time>
      </trkpt>
      <trkpt lat="47.78423" lon="-3.53127">
        <ele>3.31</ele>
        <time>2020-07-10T08:53:54Z</time>
      </trkpt>
      <trkpt lat="47.78426" lon="-3.53125">
        <ele>3.94</ele>
        <time>2020-07-10T08:53:55Z</time>
      </trkpt>
      <trkpt lat="47.78429" lon="-3.53123">
        <ele>4.39</ele>
        <time>2020-07-10T08:53:56Z</time>
      </trkpt>
      <trkpt lat="47.78432" lon="-3.53121">
        <ele>4.66</ele>
        <time>2020-07-10T08:53:57Z</time>
      </trkpt>
      <trkpt lat="47.78434" lon="-3.53118">
        <ele>4.54</ele>
        <time>2020-07-10T08:53:58Z</time>
      </trkpt>
      <trkpt lat="47.78435" lon="-3.53114">
        <ele>4.13</ele>
        <time>2020-07-10T08:53:59Z</time>
      </trkpt>
      <trkpt lat="47.78438" lon="-3.53109">
        <ele>3.76</ele>
        <time>2020-07-10T08:54:00Z</time>
      </trkpt>
      <trkpt lat="47.7844" lon="-3.53104">
        <ele>3.61</ele>
        <time>2020-07-10T08:54:01Z</time>
      </trkpt>
      <trkpt lat="47.78443" lon="-3.53098">
        <ele>3.44</ele>
        <time>2020-07-10T08:54:02Z</time>
      </trkpt>
      <trkpt lat="47.78445" lon="-3.53092">
        <ele>3.26</ele>
        <time>2020-07-10T08:54:03Z</time>
      </trkpt>
      <trkpt lat="47.78449" lon="-3.53085">
        <ele>3.36</ele>
        <time>2020-07-10T08:54:04Z</time>
      </trkpt>
      <trkpt lat="47.78453" lon="-3.53078">
        <ele>3.43</ele>
        <time>2020-07-10T08:54:05Z</time>
      </trkpt>
      <trkpt lat="47.78455" lon="-3.53073">
        <ele>3.51</ele>
        <time>2020-07-10T08:54:06Z</time>
      </trkpt>
      <trkpt lat="47.78457" lon="-3.53068">
        <ele>3.39</ele>
        <time>2020-07-10T08:54:07Z</time>
      </trkpt>
      <trkpt lat="47.78459" lon="-3.53063">
        <ele>3.17</ele>
        <time>2020-07-10T08:54:08Z</time>
      </trkpt>
      <trkpt lat="47.7846" lon="-3.53058">
        <ele>2.9</ele>
        <time>2020-07-10T08:54:09Z</time>
      </trkpt>
      <trkpt lat="47.78462" lon="-3.53053">
        <ele>2.62</ele>
        <time>2020-07-10T08:54:10Z</time>
      </trkpt>
      <trkpt lat="47.78462" lon="-3.53049">
        <ele>2.35</ele>
        <time>2020-07-10T08:54:11Z</time>
      </trkpt>
      <trkpt lat="47.78463" lon="-3.53046">
        <ele>2.16</ele>
        <time>2020-07-10T08:54:12Z</time>
      </trkpt>
      <trkpt lat="47.78464" lon="-3.5304">
        <ele>1.84</ele>
        <time>2020-07-10T08:54:13Z</time>
      </trkpt>
      <trkpt lat="47.78465" lon="-3.53036">
        <ele>1.55</ele>
        <time>2020-07-10T08:54:14Z</time>
      </trkpt>
      <trkpt lat="47.78467" lon="-3.53032">
        <ele>1.27</ele>
        <time>2020-07-10T08:54:15Z</time>
      </trkpt>
      <trkpt lat="47.78469" lon="-3.53029">
        <ele>1.03</ele>
        <time>2020-07-10T08:54:16Z</time>
      </trkpt>
      <trkpt lat="47.7847" lon="-3.53027">
        <ele>0.86</ele>
        <time>2020-07-10T08:54:17Z</time>
      </trkpt>
      <trkpt lat="47.78472" lon="-3.53024">
        <ele>0.78</ele>
        <time>2020-07-10T08:54:18Z</time>
      </trkpt>
      <trkpt lat="47.78474" lon="-3.53022">
        <ele>0.91</ele>
        <time>2020-07-10T08:54:19Z</time>
      </trkpt>
      <trkpt lat="47.78476" lon="-3.53018">
        <ele>1.07</ele>
        <time>2020-07-10T08:54:20Z</time>
      </trkpt>
      <trkpt lat="47.78478" lon="-3.53015">
        <ele>1.15</ele>
        <time>2020-07-10T08:54:21Z</time>
      </trkpt>
      <trkpt lat="47.7848" lon="-3.53011">
        <ele>1.21</ele>
        <time>2020-07-10T08:54:22Z</time>
      </trkpt>
      <trkpt lat="47.78481" lon="-3.53009">
        <ele>1.25</ele>
        <time>2020-07-10T08:54:23Z</time>
      </trkpt>
      <trkpt lat="47.78484" lon="-3.53005">
        <ele>1.24</ele>
        <time>2020-07-10T08:54:24Z</time>
      </trkpt>
      <trkpt lat="47.78486" lon="-3.53001">
        <ele>1.17</ele>
        <time>2020-07-10T08:54:25Z</time>
      </trkpt>
      <trkpt lat="47.78489" lon="-3.52996">
        <ele>1.16</ele>
        <time>2020-07-10T08:54:26Z</time>
      </trkpt>
      <trkpt lat="47.78491" lon="-3.52992">
        <ele>1.14</ele>
        <time>2020-07-10T08:54:27Z</time>
      </trkpt>
      <trkpt lat="47.78494" lon="-3.52988">
        <ele>1.12</ele>
        <time>2020-07-10T08:54:28Z</time>
      </trkpt>
      <trkpt lat="47.78496" lon="-3.52985">
        <ele>1.05</ele>
        <time>2020-07-10T08:54:29Z</time>
      </trkpt>
      <trkpt lat="47.78499" lon="-3.52982">
        <ele>0.98</ele>
        <time>2020-07-10T08:54:30Z</time>
      </trkpt>
      <trkpt lat="47.78502" lon="-3.52978">
        <ele>0.98</ele>
        <time>2020-07-10T08:54:31Z</time>
      </trkpt>
      <trkpt lat="47.78505" lon="-3.52975">
        <ele>1.07</ele>
        <time>2020-07-10T08:54:32Z</time>
      </trkpt>
      <trkpt lat="47.78507" lon="-3.52972">
        <ele>1.07</ele>
        <time>2020-07-10T08:54:33Z</time>
      </trkpt>
      <trkpt lat="47.78511" lon="-3.52969">
        <ele>1.27</ele>
        <time>2020-07-10T08:54:34Z</time>
      </trkpt>
      <trkpt lat="47.78514" lon="-3.52966">
        <ele>1.39</ele>
        <time>2020-07-10T08:54:35Z</time>
      </trkpt>
      <trkpt lat="47.78517" lon="-3.52963">
        <ele>1.4</ele>
        <time>2020-07-10T08:54:36Z</time>
      </trkpt>
      <trkpt lat="47.78519" lon="-3.5296">
        <ele>1.36</ele>
        <time>2020-07-10T08:54:37Z</time>
      </trkpt>
      <trkpt lat="47.78522" lon="-3.52956">
        <ele>1.25</ele>
        <time>2020-07-10T08:54:38Z</time>
      </trkpt>
      <trkpt lat="47.78525" lon="-3.52954">
        <ele>1.15</ele>
        <time>2020-07-10T08:54:39Z</time>
      </trkpt>
      <trkpt lat="47.78528" lon="-3.52951">
        <ele>1.02</ele>
        <time>2020-07-10T08:54:40Z</time>
      </trkpt>
      <trkpt lat="47.7853" lon="-3.52948">
        <ele>1.26</ele>
        <time>2020-07-10T08:54:41Z</time>
      </trkpt>
      <trkpt lat="47.78533" lon="-3.52945">
        <ele>1.52</ele>
        <time>2020-07-10T08:54:42Z</time>
      </trkpt>
      <trkpt lat="47.78535" lon="-3.52941">
        <ele>1.89</ele>
        <time>2020-07-10T08:54:43Z</time>
      </trkpt>
      <trkpt lat="47.78537" lon="-3.52937">
        <ele>2.33</ele>
        <time>2020-07-10T08:54:44Z</time>
      </trkpt>
      <trkpt lat="47.7854" lon="-3.52931">
        <ele>2.75</ele>
        <time>2020-07-10T08:54:45Z</time>
      </trkpt>
      <trkpt lat="47.78543" lon="-3.52927">
        <ele>3.27</ele>
        <time>2020-07-10T08:54:46Z</time>
      </trkpt>
      <trkpt lat="47.78544" lon="-3.52922">
        <ele>3.54</ele>
        <time>2020-07-10T08:54:47Z</time>
      </trkpt>
      <trkpt lat="47.78546" lon="-3.52916">
        <ele>3.49</ele>
        <time>2020-07-10T08:54:48Z</time>
      </trkpt>
      <trkpt lat="47.78548" lon="-3.52908">
        <ele>3.21</ele>
        <time>2020-07-10T08:54:49Z</time>
      </trkpt>
      <trkpt lat="47.78549" lon="-3.52899">
        <ele>2.71</ele>
        <time>2020-07-10T08:54:50Z</time>
      </trkpt>
      <trkpt lat="47.78553" lon="-3.52893">
        <ele>2.34</ele>
        <time>2020-07-10T08:54:51Z</time>
      </trkpt>
      <trkpt lat="47.78556" lon="-3.52887">
        <ele>2.03</ele>
        <time>2020-07-10T08:54:52Z</time>
      </trkpt>
      <trkpt lat="47.78559" lon="-3.52882">
        <ele>2.02</ele>
        <time>2020-07-10T08:54:53Z</time>
      </trkpt>
      <trkpt lat="47.78561" lon="-3.52878">
        <ele>2.02</ele>
        <time>2020-07-10T08:54:54Z</time>
      </trkpt>
      <trkpt lat="47.78564" lon="-3.52873">
        <ele>2.06</ele>
        <time>2020-07-10T08:54:55Z</time>
      </trkpt>
      <trkpt lat="47.78567" lon="-3.5287">
        <ele>2.16</ele>
        <time>2020-07-10T08:54:56Z</time>
      </trkpt>
      <trkpt lat="47.78571" lon="-3.52867">
        <ele>2.28</ele>
        <time>2020-07-10T08:54:57Z</time>
      </trkpt>
      <trkpt lat="47.78575" lon="-3.52866">
        <ele>2.53</ele>
        <time>2020-07-10T08:54:58Z</time>
      </trkpt>
      <trkpt lat="47.78579" lon="-3.52862">
        <ele>2.6</ele>
        <time>2020-07-10T08:54:59Z</time>
      </trkpt>
      <trkpt lat="47.78583" lon="-3.52858">
        <ele>2.59</ele>
        <time>2020-07-10T08:55:00Z</time>
      </trkpt>
      <trkpt lat="47.78587" lon="-3.52855">
        <ele>2.62</ele>
        <time>2020-07-10T08:55:01Z</time>
      </trkpt>
      <trkpt lat="47.78592" lon="-3.52852">
        <ele>2.66</ele>
        <time>2020-07-10T08:55:02Z</time>
      </trkpt>
      <trkpt lat="47.78597" lon="-3.52848">
        <ele>2.62</ele>
        <time>2020-07-10T08:55:03Z</time>
      </trkpt>
      <trkpt lat="47.78602" lon="-3.52844">
        <ele>2.46</ele>
        <time>2020-07-10T08:55:04Z</time>
      </trkpt>
      <trkpt lat="47.78607" lon="-3.5284">
        <ele>2.16</ele>
        <time>2020-07-10T08:55:05Z</time>
      </trkpt>
      <trkpt lat="47.78613" lon="-3.52838">
        <ele>2.04</ele>
        <time>2020-07-10T08:55:06Z</time>
      </trkpt>
      <trkpt lat="47.78617" lon="-3.52836">
        <ele>2.1</ele>
        <time>2020-07-10T08:55:07Z</time>
      </trkpt>
      <trkpt lat="47.78621" lon="-3.52835">
        <ele>2.34</ele>
        <time>2020-07-10T08:55:08Z</time>
      </trkpt>
      <trkpt lat="47.78624" lon="-3.52835">
        <ele>2.59</ele>
        <time>2020-07-10T08:55:09Z</time>
      </trkpt>
      <trkpt lat="47.78627" lon="-3.52835">
        <ele>2.97</ele>
        <time>2020-07-10T08:55:10Z</time>
      </trkpt>
      <trkpt lat="47.7863" lon="-3.52835">
        <ele>3.27</ele>
        <time>2020-07-10T08:55:11Z</time>
      </trkpt>
      <trkpt lat="47.78633" lon="-3.52835">
        <ele>3.61</ele>
        <time>2020-07-10T08:55:12Z</time>
      </trkpt>
      <trkpt lat="47.78636" lon="-3.52836">
        <ele>4.09</ele>
        <time>2020-07-10T08:55:13Z</time>
      </trkpt>
      <trkpt lat="47.78638" lon="-3.52835">
        <ele>4.35</ele>
        <time>2020-07-10T08:55:14Z</time>
      </trkpt>
      <trkpt lat="47.78641" lon="-3.52834">
        <ele>4.46</ele>
        <time>2020-07-10T08:55:15Z</time>
      </trkpt>
      <trkpt lat="47.78644" lon="-3.52834">
        <ele>4.66</ele>
        <time>2020-07-10T08:55:16Z</time>
      </trkpt>
      <trkpt lat="47.78647" lon="-3.52834">
        <ele>4.85</ele>
        <time>2020-07-10T08:55:17Z</time>
      </trkpt>
      <trkpt lat="47.78649" lon="-3.52833">
        <ele>5</ele>
        <time>2020-07-10T08:55:18Z</time>
      </trkpt>
      <trkpt lat="47.78652" lon="-3.52832">
        <ele>5.18</ele>
        <time>2020-07-10T08:55:19Z</time>
      </trkpt>
      <trkpt lat="47.78655" lon="-3.52832">
        <ele>5.44</ele>
        <time>2020-07-10T08:55:20Z</time>
      </trkpt>
      <trkpt lat="47.78658" lon="-3.52832">
        <ele>5.68</ele>
        <time>2020-07-10T08:55:21Z</time>
      </trkpt>
      <trkpt lat="47.7866" lon="-3.52832">
        <ele>5.96</ele>
        <time>2020-07-10T08:55:22Z</time>
      </trkpt>
      <trkpt lat="47.78663" lon="-3.52832">
        <ele>6.18</ele>
        <time>2020-07-10T08:55:23Z</time>
      </trkpt>
      <trkpt lat="47.78665" lon="-3.52832">
        <ele>6.41</ele>
        <time>2020-07-10T08:55:24Z</time>
      </trkpt>
      <trkpt lat="47.78669" lon="-3.52833">
        <ele>6.74</ele>
        <time>2020-07-10T08:55:25Z</time>
      </trkpt>
      <trkpt lat="47.78672" lon="-3.52834">
        <ele>6.92</ele>
        <time>2020-07-10T08:55:26Z</time>
      </trkpt>
      <trkpt lat="47.78675" lon="-3.52835">
        <ele>7.02</ele>
        <time>2020-07-10T08:55:27Z</time>
      </trkpt>
      <trkpt lat="47.78678" lon="-3.52836">
        <ele>7.21</ele>
        <time>2020-07-10T08:55:28Z</time>
      </trkpt>
      <trkpt lat="47.7868" lon="-3.52837">
        <ele>7.39</ele>
        <time>2020-07-10T08:55:29Z</time>
      </trkpt>
      <trkpt lat="47.78683" lon="-3.52838">
        <ele>7.61</ele>
        <time>2020-07-10T08:55:30Z</time>
      </trkpt>
      <trkpt lat="47.78685" lon="-3.52839">
        <ele>7.85</ele>
        <time>2020-07-10T08:55:31Z</time>
      </trkpt>
      <trkpt lat="47.78688" lon="-3.52842">
        <ele>8.27</ele>
        <time>2020-07-10T08:55:32Z</time>
      </trkpt>
      <trkpt lat="47.7869" lon="-3.52844">
        <ele>8.78</ele>
        <time>2020-07-10T08:55:33Z</time>
      </trkpt>
      <trkpt lat="47.78692" lon="-3.52846">
        <ele>9.17</ele>
        <time>2020-07-10T08:55:34Z</time>
      </trkpt>
      <trkpt lat="47.78695" lon="-3.52848">
        <ele>9.53</ele>
        <time>2020-07-10T08:55:35Z</time>
      </trkpt>
      <trkpt lat="47.78697" lon="-3.5285">
        <ele>9.5</ele>
        <time>2020-07-10T08:55:36Z</time>
      </trkpt>
      <trkpt lat="47.78699" lon="-3.52852">
        <ele>9.41</ele>
        <time>2020-07-10T08:55:37Z</time>
      </trkpt>
      <trkpt lat="47.78702" lon="-3.52855">
        <ele>9.18</ele>
        <time>2020-07-10T08:55:38Z</time>
      </trkpt>
      <trkpt lat="47.78707" lon="-3.52858">
        <ele>8.69</ele>
        <time>2020-07-10T08:55:39Z</time>
      </trkpt>
      <trkpt lat="47.78711" lon="-3.52863">
        <ele>8.11</ele>
        <time>2020-07-10T08:55:40Z</time>
      </trkpt>
      <trkpt lat="47.78716" lon="-3.5287">
        <ele>7.48</ele>
        <time>2020-07-10T08:55:41Z</time>
      </trkpt>
      <trkpt lat="47.78721" lon="-3.52877">
        <ele>6.98</ele>
        <time>2020-07-10T08:55:42Z</time>
      </trkpt>
      <trkpt lat="47.78724" lon="-3.52883">
        <ele>6.75</ele>
        <time>2020-07-10T08:55:43Z</time>
      </trkpt>
      <trkpt lat="47.78727" lon="-3.5289">
        <ele>6.68</ele>
        <time>2020-07-10T08:55:44Z</time>
      </trkpt>
      <trkpt lat="47.7873" lon="-3.52895">
        <ele>6.77</ele>
        <time>2020-07-10T08:55:45Z</time>
      </trkpt>
      <trkpt lat="47.78733" lon="-3.52901">
        <ele>6.84</ele>
        <time>2020-07-10T08:55:46Z</time>
      </trkpt>
      <trkpt lat="47.78736" lon="-3.52906">
        <ele>6.84</ele>
        <time>2020-07-10T08:55:47Z</time>
      </trkpt>
      <trkpt lat="47.78739" lon="-3.52912">
        <ele>6.85</ele>
        <time>2020-07-10T08:55:48Z</time>
      </trkpt>
      <trkpt lat="47.78741" lon="-3.52916">
        <ele>6.88</ele>
        <time>2020-07-10T08:55:49Z</time>
      </trkpt>
      <trkpt lat="47.78743" lon="-3.52921">
        <ele>7.15</ele>
        <time>2020-07-10T08:55:50Z</time>
      </trkpt>
      <trkpt lat="47.78745" lon="-3.52926">
        <ele>7.52</ele>
        <time>2020-07-10T08:55:51Z</time>
      </trkpt>
      <trkpt lat="47.78748" lon="-3.52931">
        <ele>8.02</ele>
        <time>2020-07-10T08:55:52Z</time>
      </trkpt>
      <trkpt lat="47.7875" lon="-3.52936">
        <ele>8.52</ele>
        <time>2020-07-10T08:55:53Z</time>
      </trkpt>
      <trkpt lat="47.78754" lon="-3.52941">
        <ele>8.85</ele>
        <time>2020-07-10T08:55:54Z</time>
      </trkpt>
      <trkpt lat="47.78759" lon="-3.52947">
        <ele>8.57</ele>
        <time>2020-07-10T08:55:55Z</time>
      </trkpt>
      <trkpt lat="47.78763" lon="-3.52952">
        <ele>7.94</ele>
        <time>2020-07-10T08:55:56Z</time>
      </trkpt>
      <trkpt lat="47.78767" lon="-3.52955">
        <ele>7.2</ele>
        <time>2020-07-10T08:55:57Z</time>
      </trkpt>
      <trkpt lat="47.78771" lon="-3.52958">
        <ele>6.18</ele>
        <time>2020-07-10T08:55:58Z</time>
      </trkpt>
      <trkpt lat="47.78775" lon="-3.52959">
        <ele>5.1</ele>
        <time>2020-07-10T08:55:59Z</time>
      </trkpt>
      <trkpt lat="47.78778" lon="-3.5296">
        <ele>4.09</ele>
        <time>2020-07-10T08:56:00Z</time>
      </trkpt>
      <trkpt lat="47.78781" lon="-3.52962">
        <ele>3.72</ele>
        <time>2020-07-10T08:56:01Z</time>
      </trkpt>
      <trkpt lat="47.78784" lon="-3.52964">
        <ele>3.56</ele>
        <time>2020-07-10T08:56:02Z</time>
      </trkpt>
      <trkpt lat="47.78786" lon="-3.52965">
        <ele>3.42</ele>
        <time>2020-07-10T08:56:03Z</time>
      </trkpt>
      <trkpt lat="47.78789" lon="-3.52966">
        <ele>3.26</ele>
        <time>2020-07-10T08:56:04Z</time>
      </trkpt>
      <trkpt lat="47.78791" lon="-3.52967">
        <ele>3.13</ele>
        <time>2020-07-10T08:56:05Z</time>
      </trkpt>
      <trkpt lat="47.78793" lon="-3.52968">
        <ele>3.04</ele>
        <time>2020-07-10T08:56:06Z</time>
      </trkpt>
      <trkpt lat="47.78794" lon="-3.52969">
        <ele>2.98</ele>
        <time>2020-07-10T08:56:07Z</time>
      </trkpt>
      <trkpt lat="47.78796" lon="-3.5297">
        <ele>2.89</ele>
        <time>2020-07-10T08:56:08Z</time>
      </trkpt>
      <trkpt lat="47.78798" lon="-3.52971">
        <ele>2.8</ele>
        <time>2020-07-10T08:56:09Z</time>
      </trkpt>
      <trkpt lat="47.788" lon="-3.52973">
        <ele>2.83</ele>
        <time>2020-07-10T08:56:10Z</time>
      </trkpt>
      <trkpt lat="47.78802" lon="-3.52975">
        <ele>3.01</ele>
        <time>2020-07-10T08:56:11Z</time>
      </trkpt>
      <trkpt lat="47.78803" lon="-3.52977">
        <ele>3.25</ele>
        <time>2020-07-10T08:56:12Z</time>
      </trkpt>
      <trkpt lat="47.78804" lon="-3.52979">
        <ele>3.61</ele>
        <time>2020-07-10T08:56:13Z</time>
      </trkpt>
      <trkpt lat="47.78806" lon="-3.52979">
        <ele>3.68</ele>
        <time>2020-07-10T08:56:14Z</time>
      </trkpt>
      <trkpt lat="47.78807" lon="-3.5298">
        <ele>3.85</ele>
        <time>2020-07-10T08:56:15Z</time>
      </trkpt>
      <trkpt lat="47.78808" lon="-3.52982">
        <ele>4.18</ele>
        <time>2020-07-10T08:56:16Z</time>
      </trkpt>
      <trkpt lat="47.7881" lon="-3.52983">
        <ele>4.31</ele>
        <time>2020-07-10T08:56:17Z</time>
      </trkpt>
      <trkpt lat="47.78812" lon="-3.52984">
        <ele>4.41</ele>
        <time>2020-07-10T08:56:18Z</time>
      </trkpt>
      <trkpt lat="47.78813" lon="-3.52984">
        <ele>4.48</ele>
        <time>2020-07-10T08:56:19Z</time>
      </trkpt>
      <trkpt lat="47.78813" lon="-3.52984">
        <ele>4.42</ele>
        <time>2020-07-10T08:56:20Z</time>
      </trkpt>
      <trkpt lat="47.78815" lon="-3.52984">
        <ele>4.4</ele>
        <time>2020-07-10T08:56:21Z</time>
      </trkpt>
      <trkpt lat="47.78816" lon="-3.52985">
        <ele>4.48</ele>
        <time>2020-07-10T08:56:22Z</time>
      </trkpt>
      <trkpt lat="47.78817" lon="-3.52987">
        <ele>4.72</ele>
        <time>2020-07-10T08:56:23Z</time>
      </trkpt>
      <trkpt lat="47.78818" lon="-3.52988">
        <ele>5.04</ele>
        <time>2020-07-10T08:56:24Z</time>
      </trkpt>
      <trkpt lat="47.78819" lon="-3.5299">
        <ele>5.27</ele>
        <time>2020-07-10T08:56:25Z</time>
      </trkpt>
      <trkpt lat="47.7882" lon="-3.52991">
        <ele>5.49</ele>
        <time>2020-07-10T08:56:26Z</time>
      </trkpt>
      <trkpt lat="47.78822" lon="-3.52992">
        <ele>5.73</ele>
        <time>2020-07-10T08:56:27Z</time>
      </trkpt>
      <trkpt lat="47.78823" lon="-3.52993">
        <ele>5.99</ele>
        <time>2020-07-10T08:56:28Z</time>
      </trkpt>
      <trkpt lat="47.78824" lon="-3.52995">
        <ele>6.35</ele>
        <time>2020-07-10T08:56:29Z</time>
      </trkpt>
      <trkpt lat="47.78825" lon="-3.52997">
        <ele>6.65</ele>
        <time>2020-07-10T08:56:30Z</time>
      </trkpt>
      <trkpt lat="47.78826" lon="-3.52998">
        <ele>7.02</ele>
        <time>2020-07-10T08:56:31Z</time>
      </trkpt>
      <trkpt lat="47.78827" lon="-3.53">
        <ele>7.37</ele>
        <time>2020-07-10T08:56:32Z</time>
      </trkpt>
      <trkpt lat="47.78828" lon="-3.53003">
        <ele>7.86</ele>
        <time>2020-07-10T08:56:33Z</time>
      </trkpt>
      <trkpt lat="47.78829" lon="-3.53004">
        <ele>8.32</ele>
        <time>2020-07-10T08:56:34Z</time>
      </trkpt>
      <trkpt lat="47.7883" lon="-3.53006">
        <ele>8.7</ele>
        <time>2020-07-10T08:56:35Z</time>
      </trkpt>
      <trkpt lat="47.78832" lon="-3.53007">
        <ele>9.09</ele>
        <time>2020-07-10T08:56:36Z</time>
      </trkpt>
      <trkpt lat="47.78833" lon="-3.5301">
        <ele>9.59</ele>
        <time>2020-07-10T08:56:37Z</time>
      </trkpt>
      <trkpt lat="47.78833" lon="-3.53012">
        <ele>10.26</ele>
        <time>2020-07-10T08:56:38Z</time>
      </trkpt>
      <trkpt lat="47.78834" lon="-3.53015">
        <ele>10.77</ele>
        <time>2020-07-10T08:56:39Z</time>
      </trkpt>
      <trkpt lat="47.78835" lon="-3.53017">
        <ele>11.22</ele>
        <time>2020-07-10T08:56:40Z</time>
      </trkpt>
      <trkpt lat="47.78835" lon="-3.53019">
        <ele>11.64</ele>
        <time>2020-07-10T08:56:41Z</time>
      </trkpt>
      <trkpt lat="47.78836" lon="-3.53021">
        <ele>11.96</ele>
        <time>2020-07-10T08:56:42Z</time>
      </trkpt>
      <trkpt lat="47.78836" lon="-3.53023">
        <ele>12.35</ele>
        <time>2020-07-10T08:56:43Z</time>
      </trkpt>
      <trkpt lat="47.78837" lon="-3.53026">
        <ele>12.7</ele>
        <time>2020-07-10T08:56:44Z</time>
      </trkpt>
      <trkpt lat="47.78838" lon="-3.53029">
        <ele>12.98</ele>
        <time>2020-07-10T08:56:45Z</time>
      </trkpt>
      <trkpt lat="47.78839" lon="-3.53031">
        <ele>13.2</ele>
        <time>2020-07-10T08:56:46Z</time>
      </trkpt>
      <trkpt lat="47.7884" lon="-3.53034">
        <ele>13.47</ele>
        <time>2020-07-10T08:56:47Z</time>
      </trkpt>
      <trkpt lat="47.7884" lon="-3.53036">
        <ele>13.64</ele>
        <time>2020-07-10T08:56:48Z</time>
      </trkpt>
      <trkpt lat="47.78841" lon="-3.53039">
        <ele>13.77</ele>
        <time>2020-07-10T08:56:49Z</time>
      </trkpt>
      <trkpt lat="47.78842" lon="-3.53041">
        <ele>13.93</ele>
        <time>2020-07-10T08:56:50Z</time>
      </trkpt>
      <trkpt lat="47.78842" lon="-3.53044">
        <ele>14.18</ele>
        <time>2020-07-10T08:56:51Z</time>
      </trkpt>
      <trkpt lat="47.78843" lon="-3.53047">
        <ele>14.51</ele>
        <time>2020-07-10T08:56:52Z</time>
      </trkpt>
      <trkpt lat="47.78845" lon="-3.53049">
        <ele>14.54</ele>
        <time>2020-07-10T08:56:53Z</time>
      </trkpt>
      <trkpt lat="47.78845" lon="-3.53052">
        <ele>14.56</ele>
        <time>2020-07-10T08:56:54Z</time>
      </trkpt>
      <trkpt lat="47.78846" lon="-3.53053">
        <ele>14.58</ele>
        <time>2020-07-10T08:56:55Z</time>
      </trkpt>
      <trkpt lat="47.78847" lon="-3.53056">
        <ele>14.76</ele>
        <time>2020-07-10T08:56:56Z</time>
      </trkpt>
      <trkpt lat="47.78848" lon="-3.53059">
        <ele>14.91</ele>
        <time>2020-07-10T08:56:57Z</time>
      </trkpt>
      <trkpt lat="47.78849" lon="-3.53062">
        <ele>15.03</ele>
        <time>2020-07-10T08:56:58Z</time>
      </trkpt>
      <trkpt lat="47.78852" lon="-3.53065">
        <ele>15.02</ele>
        <time>2020-07-10T08:56:59Z</time>
      </trkpt>
      <trkpt lat="47.78853" lon="-3.53067">
        <ele>14.99</ele>
        <time>2020-07-10T08:57:00Z</time>
      </trkpt>
      <trkpt lat="47.78855" lon="-3.53069">
        <ele>14.99</ele>
        <time>2020-07-10T08:57:01Z</time>
      </trkpt>
      <trkpt lat="47.78855" lon="-3.53071">
        <ele>15.09</ele>
        <time>2020-07-10T08:57:02Z</time>
      </trkpt>
      <trkpt lat="47.78856" lon="-3.53073">
        <ele>15.28</ele>
        <time>2020-07-10T08:57:03Z</time>
      </trkpt>
      <trkpt lat="47.78858" lon="-3.53075">
        <ele>15.51</ele>
        <time>2020-07-10T08:57:04Z</time>
      </trkpt>
      <trkpt lat="47.78859" lon="-3.53077">
        <ele>15.65</ele>
        <time>2020-07-10T08:57:05Z</time>
      </trkpt>
      <trkpt lat="47.7886" lon="-3.53079">
        <ele>15.69</ele>
        <time>2020-07-10T08:57:06Z</time>
      </trkpt>
      <trkpt lat="47.78862" lon="-3.5308">
        <ele>15.65</ele>
        <time>2020-07-10T08:57:07Z</time>
      </trkpt>
      <trkpt lat="47.78863" lon="-3.53082">
        <ele>15.46</ele>
        <time>2020-07-10T08:57:08Z</time>
      </trkpt>
      <trkpt lat="47.78865" lon="-3.53083">
        <ele>15.19</ele>
        <time>2020-07-10T08:57:09Z</time>
      </trkpt>
      <trkpt lat="47.78865" lon="-3.53085">
        <ele>15.12</ele>
        <time>2020-07-10T08:57:10Z</time>
      </trkpt>
      <trkpt lat="47.78868" lon="-3.53086">
        <ele>14.73</ele>
        <time>2020-07-10T08:57:11Z</time>
      </trkpt>
      <trkpt lat="47.7887" lon="-3.53089">
        <ele>14.24</ele>
        <time>2020-07-10T08:57:12Z</time>
      </trkpt>
      <trkpt lat="47.78873" lon="-3.53091">
        <ele>13.62</ele>
        <time>2020-07-10T08:57:13Z</time>
      </trkpt>
      <trkpt lat="47.78877" lon="-3.53093">
        <ele>12.75</ele>
        <time>2020-07-10T08:57:14Z</time>
      </trkpt>
      <trkpt lat="47.78881" lon="-3.53095">
        <ele>11.64</ele>
        <time>2020-07-10T08:57:15Z</time>
      </trkpt>
      <trkpt lat="47.78885" lon="-3.53098">
        <ele>10.53</ele>
        <time>2020-07-10T08:57:16Z</time>
      </trkpt>
      <trkpt lat="47.7889" lon="-3.53101">
        <ele>9.67</ele>
        <time>2020-07-10T08:57:17Z</time>
      </trkpt>
      <trkpt lat="47.78896" lon="-3.53104">
        <ele>9.11</ele>
        <time>2020-07-10T08:57:18Z</time>
      </trkpt>
      <trkpt lat="47.78904" lon="-3.53106">
        <ele>8.08</ele>
        <time>2020-07-10T08:57:19Z</time>
      </trkpt>
      <trkpt lat="47.7891" lon="-3.53108">
        <ele>6.89</ele>
        <time>2020-07-10T08:57:20Z</time>
      </trkpt>
      <trkpt lat="47.78916" lon="-3.53109">
        <ele>5.51</ele>
        <time>2020-07-10T08:57:21Z</time>
      </trkpt>
      <trkpt lat="47.78921" lon="-3.53111">
        <ele>4.62</ele>
        <time>2020-07-10T08:57:22Z</time>
      </trkpt>
      <trkpt lat="47.78925" lon="-3.53113">
        <ele>4.23</ele>
        <time>2020-07-10T08:57:23Z</time>
      </trkpt>
      <trkpt lat="47.7893" lon="-3.53116">
        <ele>4.31</ele>
        <time>2020-07-10T08:57:24Z</time>
      </trkpt>
      <trkpt lat="47.78935" lon="-3.53119">
        <ele>4.29</ele>
        <time>2020-07-10T08:57:25Z</time>
      </trkpt>
      <trkpt lat="47.78939" lon="-3.53121">
        <ele>4.03</ele>
        <time>2020-07-10T08:57:26Z</time>
      </trkpt>
      <trkpt lat="47.78943" lon="-3.53121">
        <ele>3.44</ele>
        <time>2020-07-10T08:57:27Z</time>
      </trkpt>
      <trkpt lat="47.78946" lon="-3.53121">
        <ele>3.01</ele>
        <time>2020-07-10T08:57:28Z</time>
      </trkpt>
      <trkpt lat="47.78949" lon="-3.53122">
        <ele>2.98</ele>
        <time>2020-07-10T08:57:29Z</time>
      </trkpt>
      <trkpt lat="47.78951" lon="-3.53124">
        <ele>3.02</ele>
        <time>2020-07-10T08:57:30Z</time>
      </trkpt>
      <trkpt lat="47.78954" lon="-3.53125">
        <ele>3.12</ele>
        <time>2020-07-10T08:57:31Z</time>
      </trkpt>
      <trkpt lat="47.78957" lon="-3.53129">
        <ele>3.5</ele>
        <time>2020-07-10T08:57:32Z</time>
      </trkpt>
      <trkpt lat="47.7896" lon="-3.53135">
        <ele>4.17</ele>
        <time>2020-07-10T08:57:33Z</time>
      </trkpt>
      <trkpt lat="47.78964" lon="-3.53138">
        <ele>4.38</ele>
        <time>2020-07-10T08:57:34Z</time>
      </trkpt>
      <trkpt lat="47.78967" lon="-3.53143">
        <ele>4.76</ele>
        <time>2020-07-10T08:57:35Z</time>
      </trkpt>
      <trkpt lat="47.7897" lon="-3.53148">
        <ele>5.4</ele>
        <time>2020-07-10T08:57:36Z</time>
      </trkpt>
      <trkpt lat="47.78972" lon="-3.53151">
        <ele>5.92</ele>
        <time>2020-07-10T08:57:37Z</time>
      </trkpt>
      <trkpt lat="47.78975" lon="-3.53155">
        <ele>6.36</ele>
        <time>2020-07-10T08:57:38Z</time>
      </trkpt>
      <trkpt lat="47.78978" lon="-3.53158">
        <ele>6.56</ele>
        <time>2020-07-10T08:57:39Z</time>
      </trkpt>
      <trkpt lat="47.78981" lon="-3.53161">
        <ele>6.65</ele>
        <time>2020-07-10T08:57:40Z</time>
      </trkpt>
      <trkpt lat="47.78986" lon="-3.53164">
        <ele>6.35</ele>
        <time>2020-07-10T08:57:41Z</time>
      </trkpt>
      <trkpt lat="47.7899" lon="-3.53167">
        <ele>5.76</ele>
        <time>2020-07-10T08:57:42Z</time>
      </trkpt>
      <trkpt lat="47.78995" lon="-3.5317">
        <ele>5.16</ele>
        <time>2020-07-10T08:57:43Z</time>
      </trkpt>
      <trkpt lat="47.79" lon="-3.53172">
        <ele>4.41</ele>
        <time>2020-07-10T08:57:44Z</time>
      </trkpt>
      <trkpt lat="47.79006" lon="-3.53174">
        <ele>4.12</ele>
        <time>2020-07-10T08:57:45Z</time>
      </trkpt>
      <trkpt lat="47.7901" lon="-3.53177">
        <ele>4.06</ele>
        <time>2020-07-10T08:57:46Z</time>
      </trkpt>
      <trkpt lat="47.79014" lon="-3.5318">
        <ele>4.13</ele>
        <time>2020-07-10T08:57:47Z</time>
      </trkpt>
      <trkpt lat="47.79019" lon="-3.53184">
        <ele>4.14</ele>
        <time>2020-07-10T08:57:48Z</time>
      </trkpt>
      <trkpt lat="47.79023" lon="-3.53187">
        <ele>4.01</ele>
        <time>2020-07-10T08:57:49Z</time>
      </trkpt>
      <trkpt lat="47.79028" lon="-3.53191">
        <ele>3.75</ele>
        <time>2020-07-10T08:57:50Z</time>
      </trkpt>
      <trkpt lat="47.79033" lon="-3.53195">
        <ele>3.71</ele>
        <time>2020-07-10T08:57:51Z</time>
      </trkpt>
      <trkpt lat="47.79038" lon="-3.53198">
        <ele>3.62</ele>
        <time>2020-07-10T08:57:52Z</time>
      </trkpt>
      <trkpt lat="47.79043" lon="-3.532">
        <ele>3.4</ele>
        <time>2020-07-10T08:57:53Z</time>
      </trkpt>
      <trkpt lat="47.79049" lon="-3.53199">
        <ele>3.05</ele>
        <time>2020-07-10T08:57:54Z</time>
      </trkpt>
      <trkpt lat="47.79055" lon="-3.53197">
        <ele>2.47</ele>
        <time>2020-07-10T08:57:55Z</time>
      </trkpt>
      <trkpt lat="47.79061" lon="-3.53193">
        <ele>2.08</ele>
        <time>2020-07-10T08:57:56Z</time>
      </trkpt>
      <trkpt lat="47.79067" lon="-3.5319">
        <ele>1.83</ele>
        <time>2020-07-10T08:57:57Z</time>
      </trkpt>
      <trkpt lat="47.79072" lon="-3.53187">
        <ele>1.67</ele>
        <time>2020-07-10T08:57:58Z</time>
      </trkpt>
      <trkpt lat="47.79077" lon="-3.53183">
        <ele>1.55</ele>
        <time>2020-07-10T08:57:59Z</time>
      </trkpt>
      <trkpt lat="47.79082" lon="-3.5318">
        <ele>1.48</ele>
        <time>2020-07-10T08:58:00Z</time>
      </trkpt>
      <trkpt lat="47.79087" lon="-3.53177">
        <ele>1.4</ele>
        <time>2020-07-10T08:58:01Z</time>
      </trkpt>
      <trkpt lat="47.79092" lon="-3.53174">
        <ele>1.31</ele>
        <time>2020-07-10T08:58:02Z</time>
      </trkpt>
      <trkpt lat="47.79096" lon="-3.53172">
        <ele>1.22</ele>
        <time>2020-07-10T08:58:03Z</time>
      </trkpt>
      <trkpt lat="47.79101" lon="-3.53169">
        <ele>1.12</ele>
        <time>2020-07-10T08:58:04Z</time>
      </trkpt>
      <trkpt lat="47.79106" lon="-3.53166">
        <ele>1.03</ele>
        <time>2020-07-10T08:58:05Z</time>
      </trkpt>
      <trkpt lat="47.79111" lon="-3.53164">
        <ele>0.94</ele>
        <time>2020-07-10T08:58:06Z</time>
      </trkpt>
      <trkpt lat="47.79115" lon="-3.53161">
        <ele>0.95</ele>
        <time>2020-07-10T08:58:07Z</time>
      </trkpt>
      <trkpt lat="47.7912" lon="-3.53158">
        <ele>1.01</ele>
        <time>2020-07-10T08:58:08Z</time>
      </trkpt>
      <trkpt lat="47.79125" lon="-3.53156">
        <ele>1.09</ele>
        <time>2020-07-10T08:58:09Z</time>
      </trkpt>
      <trkpt lat="47.7913" lon="-3.53154">
        <ele>1.18</ele>
        <time>2020-07-10T08:58:10Z</time>
      </trkpt>
      <trkpt lat="47.79134" lon="-3.53151">
        <ele>1.25</ele>
        <time>2020-07-10T08:58:11Z</time>
      </trkpt>
      <trkpt lat="47.79139" lon="-3.53149">
        <ele>1.32</ele>
        <time>2020-07-10T08:58:12Z</time>
      </trkpt>
      <trkpt lat="47.79143" lon="-3.53146">
        <ele>1.97</ele>
        <time>2020-07-10T08:58:13Z</time>
      </trkpt>
      <trkpt lat="47.79146" lon="-3.53143">
        <ele>2.7</ele>
        <time>2020-07-10T08:58:14Z</time>
      </trkpt>
      <trkpt lat="47.79148" lon="-3.53139">
        <ele>3.15</ele>
        <time>2020-07-10T08:58:15Z</time>
      </trkpt>
      <trkpt lat="47.79149" lon="-3.53135">
        <ele>3.46</ele>
        <time>2020-07-10T08:58:16Z</time>
      </trkpt>
      <trkpt lat="47.79149" lon="-3.5313">
        <ele>3.71</ele>
        <time>2020-07-10T08:58:17Z</time>
      </trkpt>
      <trkpt lat="47.79149" lon="-3.53125">
        <ele>3.93</ele>
        <time>2020-07-10T08:58:18Z</time>
      </trkpt>
      <trkpt lat="47.79148" lon="-3.53119">
        <ele>3.98</ele>
        <time>2020-07-10T08:58:19Z</time>
      </trkpt>
      <trkpt lat="47.79147" lon="-3.53115">
        <ele>3.93</ele>
        <time>2020-07-10T08:58:20Z</time>
      </trkpt>
      <trkpt lat="47.79146" lon="-3.53109">
        <ele>3.76</ele>
        <time>2020-07-10T08:58:21Z</time>
      </trkpt>
      <trkpt lat="47.79144" lon="-3.53103">
        <ele>3.45</ele>
        <time>2020-07-10T08:58:22Z</time>
      </trkpt>
      <trkpt lat="47.79143" lon="-3.53098">
        <ele>3.16</ele>
        <time>2020-07-10T08:58:23Z</time>
      </trkpt>
      <trkpt lat="47.79141" lon="-3.5309">
        <ele>2.76</ele>
        <time>2020-07-10T08:58:24Z</time>
      </trkpt>
      <trkpt lat="47.7914" lon="-3.53083">
        <ele>2.32</ele>
        <time>2020-07-10T08:58:25Z</time>
      </trkpt>
      <trkpt lat="47.79138" lon="-3.53075">
        <ele>2.04</ele>
        <time>2020-07-10T08:58:26Z</time>
      </trkpt>
      <trkpt lat="47.79137" lon="-3.53068">
        <ele>1.93</ele>
        <time>2020-07-10T08:58:27Z</time>
      </trkpt>
      <trkpt lat="47.79137" lon="-3.53062">
        <ele>1.89</ele>
        <time>2020-07-10T08:58:28Z</time>
      </trkpt>
      <trkpt lat="47.79138" lon="-3.53056">
        <ele>1.94</ele>
        <time>2020-07-10T08:58:29Z</time>
      </trkpt>
      <trkpt lat="47.79141" lon="-3.53051">
        <ele>1.88</ele>
        <time>2020-07-10T08:58:30Z</time>
      </trkpt>
      <trkpt lat="47.79143" lon="-3.53047">
        <ele>1.82</ele>
        <time>2020-07-10T08:58:31Z</time>
      </trkpt>
      <trkpt lat="47.79145" lon="-3.53044">
        <ele>1.78</ele>
        <time>2020-07-10T08:58:32Z</time>
      </trkpt>
      <trkpt lat="47.79147" lon="-3.53042">
        <ele>1.79</ele>
        <time>2020-07-10T08:58:33Z</time>
      </trkpt>
      <trkpt lat="47.79151" lon="-3.5304">
        <ele>1.86</ele>
        <time>2020-07-10T08:58:34Z</time>
      </trkpt>
      <trkpt lat="47.79154" lon="-3.53038">
        <ele>1.97</ele>
        <time>2020-07-10T08:58:35Z</time>
      </trkpt>
      <trkpt lat="47.79157" lon="-3.53036">
        <ele>2.08</ele>
        <time>2020-07-10T08:58:36Z</time>
      </trkpt>
      <trkpt lat="47.7916" lon="-3.53035">
        <ele>2.19</ele>
        <time>2020-07-10T08:58:37Z</time>
      </trkpt>
      <trkpt lat="47.79162" lon="-3.53035">
        <ele>2.33</ele>
        <time>2020-07-10T08:58:38Z</time>
      </trkpt>
      <trkpt lat="47.79166" lon="-3.53033">
        <ele>2.48</ele>
        <time>2020-07-10T08:58:39Z</time>
      </trkpt>
      <trkpt lat="47.79169" lon="-3.53032">
        <ele>2.69</ele>
        <time>2020-07-10T08:58:40Z</time>
      </trkpt>
      <trkpt lat="47.79173" lon="-3.53031">
        <ele>2.94</ele>
        <time>2020-07-10T08:58:41Z</time>
      </trkpt>
      <trkpt lat="47.79177" lon="-3.53029">
        <ele>3.17</ele>
        <time>2020-07-10T08:58:42Z</time>
      </trkpt>
      <trkpt lat="47.7918" lon="-3.53028">
        <ele>3.37</ele>
        <time>2020-07-10T08:58:43Z</time>
      </trkpt>
      <trkpt lat="47.79184" lon="-3.53024">
        <ele>3.5</ele>
        <time>2020-07-10T08:58:44Z</time>
      </trkpt>
      <trkpt lat="47.79186" lon="-3.5302">
        <ele>3.55</ele>
        <time>2020-07-10T08:58:45Z</time>
      </trkpt>
      <trkpt lat="47.79189" lon="-3.53015">
        <ele>3.51</ele>
        <time>2020-07-10T08:58:46Z</time>
      </trkpt>
      <trkpt lat="47.79192" lon="-3.53007">
        <ele>3.32</ele>
        <time>2020-07-10T08:58:47Z</time>
      </trkpt>
      <trkpt lat="47.79193" lon="-3.53">
        <ele>3.01</ele>
        <time>2020-07-10T08:58:48Z</time>
      </trkpt>
      <trkpt lat="47.79194" lon="-3.52993">
        <ele>2.63</ele>
        <time>2020-07-10T08:58:49Z</time>
      </trkpt>
      <trkpt lat="47.79195" lon="-3.52986">
        <ele>2.22</ele>
        <time>2020-07-10T08:58:50Z</time>
      </trkpt>
      <trkpt lat="47.79195" lon="-3.5298">
        <ele>1.8</ele>
        <time>2020-07-10T08:58:51Z</time>
      </trkpt>
      <trkpt lat="47.79195" lon="-3.52974">
        <ele>1.42</ele>
        <time>2020-07-10T08:58:52Z</time>
      </trkpt>
      <trkpt lat="47.79196" lon="-3.52969">
        <ele>1.18</ele>
        <time>2020-07-10T08:58:53Z</time>
      </trkpt>
      <trkpt lat="47.79197" lon="-3.52964">
        <ele>1.06</ele>
        <time>2020-07-10T08:58:54Z</time>
      </trkpt>
      <trkpt lat="47.79198" lon="-3.52958">
        <ele>1.01</ele>
        <time>2020-07-10T08:58:55Z</time>
      </trkpt>
      <trkpt lat="47.79199" lon="-3.52951">
        <ele>1.03</ele>
        <time>2020-07-10T08:58:56Z</time>
      </trkpt>
      <trkpt lat="47.79201" lon="-3.52944">
        <ele>1.09</ele>
        <time>2020-07-10T08:58:57Z</time>
      </trkpt>
      <trkpt lat="47.79203" lon="-3.52939">
        <ele>1.29</ele>
        <time>2020-07-10T08:58:58Z</time>
      </trkpt>
      <trkpt lat="47.79206" lon="-3.52934">
        <ele>1.48</ele>
        <time>2020-07-10T08:58:59Z</time>
      </trkpt>
      <trkpt lat="47.79208" lon="-3.52929">
        <ele>1.57</ele>
        <time>2020-07-10T08:59:00Z</time>
      </trkpt>
      <trkpt lat="47.7921" lon="-3.52925">
        <ele>1.62</ele>
        <time>2020-07-10T08:59:01Z</time>
      </trkpt>
      <trkpt lat="47.79213" lon="-3.52921">
        <ele>1.62</ele>
        <time>2020-07-10T08:59:02Z</time>
      </trkpt>
      <trkpt lat="47.79216" lon="-3.52918">
        <ele>1.6</ele>
        <time>2020-07-10T08:59:03Z</time>
      </trkpt>
      <trkpt lat="47.79219" lon="-3.52914">
        <ele>1.59</ele>
        <time>2020-07-10T08:59:04Z</time>
      </trkpt>
      <trkpt lat="47.79222" lon="-3.5291">
        <ele>1.54</ele>
        <time>2020-07-10T08:59:05Z</time>
      </trkpt>
      <trkpt lat="47.79226" lon="-3.52906">
        <ele>1.66</ele>
        <time>2020-07-10T08:59:06Z</time>
      </trkpt>
      <trkpt lat="47.79229" lon="-3.52903">
        <ele>1.85</ele>
        <time>2020-07-10T08:59:07Z</time>
      </trkpt>
      <trkpt lat="47.79231" lon="-3.52899">
        <ele>1.97</ele>
        <time>2020-07-10T08:59:08Z</time>
      </trkpt>
      <trkpt lat="47.79234" lon="-3.52895">
        <ele>2.05</ele>
        <time>2020-07-10T08:59:09Z</time>
      </trkpt>
      <trkpt lat="47.79236" lon="-3.5289">
        <ele>2.09</ele>
        <time>2020-07-10T08:59:10Z</time>
      </trkpt>
      <trkpt lat="47.79239" lon="-3.52885">
        <ele>2.17</ele>
        <time>2020-07-10T08:59:11Z</time>
      </trkpt>
      <trkpt lat="47.79243" lon="-3.52882">
        <ele>2.3</ele>
        <time>2020-07-10T08:59:12Z</time>
      </trkpt>
      <trkpt lat="47.79246" lon="-3.52878">
        <ele>2.36</ele>
        <time>2020-07-10T08:59:13Z</time>
      </trkpt>
      <trkpt lat="47.7925" lon="-3.52874">
        <ele>2.37</ele>
        <time>2020-07-10T08:59:14Z</time>
      </trkpt>
      <trkpt lat="47.79255" lon="-3.52872">
        <ele>2.45</ele>
        <time>2020-07-10T08:59:15Z</time>
      </trkpt>
      <trkpt lat="47.7926" lon="-3.52869">
        <ele>2.53</ele>
        <time>2020-07-10T08:59:16Z</time>
      </trkpt>
      <trkpt lat="47.79264" lon="-3.52868">
        <ele>2.69</ele>
        <time>2020-07-10T08:59:17Z</time>
      </trkpt>
      <trkpt lat="47.79269" lon="-3.52867">
        <ele>2.91</ele>
        <time>2020-07-10T08:59:18Z</time>
      </trkpt>
      <trkpt lat="47.79273" lon="-3.52867">
        <ele>3.18</ele>
        <time>2020-07-10T08:59:19Z</time>
      </trkpt>
      <trkpt lat="47.79278" lon="-3.52866">
        <ele>3.45</ele>
        <time>2020-07-10T08:59:20Z</time>
      </trkpt>
      <trkpt lat="47.79282" lon="-3.52866">
        <ele>3.61</ele>
        <time>2020-07-10T08:59:21Z</time>
      </trkpt>
      <trkpt lat="47.79287" lon="-3.52865">
        <ele>3.68</ele>
        <time>2020-07-10T08:59:22Z</time>
      </trkpt>
      <trkpt lat="47.79291" lon="-3.52863">
        <ele>3.67</ele>
        <time>2020-07-10T08:59:23Z</time>
      </trkpt>
      <trkpt lat="47.79294" lon="-3.5286">
        <ele>3.56</ele>
        <time>2020-07-10T08:59:24Z</time>
      </trkpt>
      <trkpt lat="47.79297" lon="-3.52858">
        <ele>3.47</ele>
        <time>2020-07-10T08:59:25Z</time>
      </trkpt>
      <trkpt lat="47.793" lon="-3.52855">
        <ele>3.38</ele>
        <time>2020-07-10T08:59:26Z</time>
      </trkpt>
      <trkpt lat="47.79303" lon="-3.52853">
        <ele>3.35</ele>
        <time>2020-07-10T08:59:27Z</time>
      </trkpt>
      <trkpt lat="47.79306" lon="-3.5285">
        <ele>3.3</ele>
        <time>2020-07-10T08:59:28Z</time>
      </trkpt>
      <trkpt lat="47.7931" lon="-3.52848">
        <ele>3.28</ele>
        <time>2020-07-10T08:59:29Z</time>
      </trkpt>
      <trkpt lat="47.79314" lon="-3.52845">
        <ele>3.25</ele>
        <time>2020-07-10T08:59:30Z</time>
      </trkpt>
      <trkpt lat="47.79319" lon="-3.52843">
        <ele>3.35</ele>
        <time>2020-07-10T08:59:31Z</time>
      </trkpt>
      <trkpt lat="47.79323" lon="-3.52842">
        <ele>3.42</ele>
        <time>2020-07-10T08:59:32Z</time>
      </trkpt>
      <trkpt lat="47.79328" lon="-3.52839">
        <ele>3.38</ele>
        <time>2020-07-10T08:59:33Z</time>
      </trkpt>
      <trkpt lat="47.79332" lon="-3.52836">
        <ele>3.26</ele>
        <time>2020-07-10T08:59:34Z</time>
      </trkpt>
      <trkpt lat="47.79336" lon="-3.52833">
        <ele>3.14</ele>
        <time>2020-07-10T08:59:35Z</time>
      </trkpt>
      <trkpt lat="47.7934" lon="-3.52831">
        <ele>3.06</ele>
        <time>2020-07-10T08:59:36Z</time>
      </trkpt>
      <trkpt lat="47.79344" lon="-3.52831">
        <ele>3.13</ele>
        <time>2020-07-10T08:59:37Z</time>
      </trkpt>
      <trkpt lat="47.79347" lon="-3.52831">
        <ele>3.26</ele>
        <time>2020-07-10T08:59:38Z</time>
      </trkpt>
      <trkpt lat="47.79351" lon="-3.5283">
        <ele>3.34</ele>
        <time>2020-07-10T08:59:39Z</time>
      </trkpt>
      <trkpt lat="47.79353" lon="-3.5283">
        <ele>3.41</ele>
        <time>2020-07-10T08:59:40Z</time>
      </trkpt>
      <trkpt lat="47.79357" lon="-3.5283">
        <ele>3.55</ele>
        <time>2020-07-10T08:59:41Z</time>
      </trkpt>
      <trkpt lat="47.79361" lon="-3.52828">
        <ele>3.58</ele>
        <time>2020-07-10T08:59:42Z</time>
      </trkpt>
      <trkpt lat="47.79365" lon="-3.52823">
        <ele>3.68</ele>
        <time>2020-07-10T08:59:43Z</time>
      </trkpt>
      <trkpt lat="47.79368" lon="-3.52816">
        <ele>3.62</ele>
        <time>2020-07-10T08:59:44Z</time>
      </trkpt>
      <trkpt lat="47.79372" lon="-3.52809">
        <ele>3.5</ele>
        <time>2020-07-10T08:59:45Z</time>
      </trkpt>
      <trkpt lat="47.79375" lon="-3.52803">
        <ele>3.33</ele>
        <time>2020-07-10T08:59:46Z</time>
      </trkpt>
      <trkpt lat="47.79378" lon="-3.52799">
        <ele>3.12</ele>
        <time>2020-07-10T08:59:47Z</time>
      </trkpt>
      <trkpt lat="47.7938" lon="-3.52796">
        <ele>2.97</ele>
        <time>2020-07-10T08:59:48Z</time>
      </trkpt>
      <trkpt lat="47.79381" lon="-3.52795">
        <ele>2.86</ele>
        <time>2020-07-10T08:59:49Z</time>
      </trkpt>
      <trkpt lat="47.79382" lon="-3.52793">
        <ele>2.79</ele>
        <time>2020-07-10T08:59:50Z</time>
      </trkpt>
      <trkpt lat="47.79383" lon="-3.52792">
        <ele>2.7</ele>
        <time>2020-07-10T08:59:51Z</time>
      </trkpt>
      <trkpt lat="47.79384" lon="-3.5279">
        <ele>2.58</ele>
        <time>2020-07-10T08:59:52Z</time>
      </trkpt>
      <trkpt lat="47.79386" lon="-3.5279">
        <ele>2.52</ele>
        <time>2020-07-10T08:59:53Z</time>
      </trkpt>
      <trkpt lat="47.79387" lon="-3.52788">
        <ele>2.45</ele>
        <time>2020-07-10T08:59:54Z</time>
      </trkpt>
      <trkpt lat="47.79389" lon="-3.52787">
        <ele>2.39</ele>
        <time>2020-07-10T08:59:55Z</time>
      </trkpt>
      <trkpt lat="47.79392" lon="-3.52785">
        <ele>2.4</ele>
        <time>2020-07-10T08:59:56Z</time>
      </trkpt>
      <trkpt lat="47.79395" lon="-3.52783">
        <ele>2.42</ele>
        <time>2020-07-10T08:59:57Z</time>
      </trkpt>
      <trkpt lat="47.79397" lon="-3.52781">
        <ele>2.44</ele>
        <time>2020-07-10T08:59:58Z</time>
      </trkpt>
      <trkpt lat="47.794" lon="-3.5278">
        <ele>2.51</ele>
        <time>2020-07-10T08:59:59Z</time>
      </trkpt>
      <trkpt lat="47.79402" lon="-3.5278">
        <ele>2.63</ele>
        <time>2020-07-10T09:00:00Z</time>
      </trkpt>
      <trkpt lat="47.79404" lon="-3.52779">
        <ele>2.73</ele>
        <time>2020-07-10T09:00:01Z</time>
      </trkpt>
      <trkpt lat="47.79405" lon="-3.52778">
        <ele>2.83</ele>
        <time>2020-07-10T09:00:02Z</time>
      </trkpt>
      <trkpt lat="47.79407" lon="-3.52777">
        <ele>2.9</ele>
        <time>2020-07-10T09:00:03Z</time>
      </trkpt>
      <trkpt lat="47.79409" lon="-3.52777">
        <ele>3.03</ele>
        <time>2020-07-10T09:00:04Z</time>
      </trkpt>
      <trkpt lat="47.79411" lon="-3.52776">
        <ele>3.13</ele>
        <time>2020-07-10T09:00:05Z</time>
      </trkpt>
      <trkpt lat="47.79412" lon="-3.52775">
        <ele>3.18</ele>
        <time>2020-07-10T09:00:06Z</time>
      </trkpt>
      <trkpt lat="47.79414" lon="-3.52774">
        <ele>3.18</ele>
        <time>2020-07-10T09:00:07Z</time>
      </trkpt>
      <trkpt lat="47.79415" lon="-3.52773">
        <ele>3.22</ele>
        <time>2020-07-10T09:00:08Z</time>
      </trkpt>
      <trkpt lat="47.79417" lon="-3.52774">
        <ele>3.35</ele>
        <time>2020-07-10T09:00:09Z</time>
      </trkpt>
      <trkpt lat="47.79419" lon="-3.52775">
        <ele>3.36</ele>
        <time>2020-07-10T09:00:10Z</time>
      </trkpt>
      <trkpt lat="47.7942" lon="-3.52777">
        <ele>3.37</ele>
        <time>2020-07-10T09:00:11Z</time>
      </trkpt>
      <trkpt lat="47.79421" lon="-3.52778">
        <ele>3.43</ele>
        <time>2020-07-10T09:00:12Z</time>
      </trkpt>
      <trkpt lat="47.79421" lon="-3.5278">
        <ele>3.64</ele>
        <time>2020-07-10T09:00:13Z</time>
      </trkpt>
      <trkpt lat="47.79422" lon="-3.52782">
        <ele>3.93</ele>
        <time>2020-07-10T09:00:14Z</time>
      </trkpt>
      <trkpt lat="47.79423" lon="-3.52785">
        <ele>4.38</ele>
        <time>2020-07-10T09:00:15Z</time>
      </trkpt>
      <trkpt lat="47.79424" lon="-3.52789">
        <ele>5.03</ele>
        <time>2020-07-10T09:00:16Z</time>
      </trkpt>
      <trkpt lat="47.79425" lon="-3.52793">
        <ele>5.6</ele>
        <time>2020-07-10T09:00:17Z</time>
      </trkpt>
      <trkpt lat="47.79426" lon="-3.52796">
        <ele>6.12</ele>
        <time>2020-07-10T09:00:18Z</time>
      </trkpt>
      <trkpt lat="47.79428" lon="-3.52799">
        <ele>6.55</ele>
        <time>2020-07-10T09:00:19Z</time>
      </trkpt>
      <trkpt lat="47.79429" lon="-3.52803">
        <ele>6.94</ele>
        <time>2020-07-10T09:00:20Z</time>
      </trkpt>
      <trkpt lat="47.79431" lon="-3.52805">
        <ele>7.27</ele>
        <time>2020-07-10T09:00:21Z</time>
      </trkpt>
      <trkpt lat="47.79432" lon="-3.52808">
        <ele>7.51</ele>
        <time>2020-07-10T09:00:22Z</time>
      </trkpt>
      <trkpt lat="47.79434" lon="-3.5281">
        <ele>7.68</ele>
        <time>2020-07-10T09:00:23Z</time>
      </trkpt>
      <trkpt lat="47.79435" lon="-3.52812">
        <ele>7.91</ele>
        <time>2020-07-10T09:00:24Z</time>
      </trkpt>
      <trkpt lat="47.79436" lon="-3.52814">
        <ele>8.24</ele>
        <time>2020-07-10T09:00:25Z</time>
      </trkpt>
      <trkpt lat="47.79438" lon="-3.52816">
        <ele>8.42</ele>
        <time>2020-07-10T09:00:26Z</time>
      </trkpt>
      <trkpt lat="47.7944" lon="-3.52816">
        <ele>8.49</ele>
        <time>2020-07-10T09:00:27Z</time>
      </trkpt>
      <trkpt lat="47.79443" lon="-3.52817">
        <ele>8.52</ele>
        <time>2020-07-10T09:00:28Z</time>
      </trkpt>
      <trkpt lat="47.79444" lon="-3.52818">
        <ele>8.5</ele>
        <time>2020-07-10T09:00:29Z</time>
      </trkpt>
      <trkpt lat="47.79446" lon="-3.52818">
        <ele>8.54</ele>
        <time>2020-07-10T09:00:30Z</time>
      </trkpt>
      <trkpt lat="47.79448" lon="-3.52818">
        <ele>8.5</ele>
        <time>2020-07-10T09:00:31Z</time>
      </trkpt>
      <trkpt lat="47.79449" lon="-3.52818">
        <ele>8.49</ele>
        <time>2020-07-10T09:00:32Z</time>
      </trkpt>
      <trkpt lat="47.79451" lon="-3.52819">
        <ele>8.62</ele>
        <time>2020-07-10T09:00:33Z</time>
      </trkpt>
      <trkpt lat="47.79452" lon="-3.5282">
        <ele>8.74</ele>
        <time>2020-07-10T09:00:34Z</time>
      </trkpt>
      <trkpt lat="47.79454" lon="-3.5282">
        <ele>8.81</ele>
        <time>2020-07-10T09:00:35Z</time>
      </trkpt>
      <trkpt lat="47.79457" lon="-3.52821">
        <ele>8.94</ele>
        <time>2020-07-10T09:00:36Z</time>
      </trkpt>
      <trkpt lat="47.7946" lon="-3.52822">
        <ele>9.16</ele>
        <time>2020-07-10T09:00:37Z</time>
      </trkpt>
      <trkpt lat="47.79464" lon="-3.52822">
        <ele>9.35</ele>
        <time>2020-07-10T09:00:38Z</time>
      </trkpt>
      <trkpt lat="47.79467" lon="-3.52824">
        <ele>9.78</ele>
        <time>2020-07-10T09:00:39Z</time>
      </trkpt>
      <trkpt lat="47.79469" lon="-3.52826">
        <ele>10.67</ele>
        <time>2020-07-10T09:00:40Z</time>
      </trkpt>
      <trkpt lat="47.79472" lon="-3.5283">
        <ele>11.83</ele>
        <time>2020-07-10T09:00:41Z</time>
      </trkpt>
      <trkpt lat="47.79474" lon="-3.52833">
        <ele>12.8</ele>
        <time>2020-07-10T09:00:42Z</time>
      </trkpt>
      <trkpt lat="47.79477" lon="-3.52836">
        <ele>13.01</ele>
        <time>2020-07-10T09:00:43Z</time>
      </trkpt>
      <trkpt lat="47.79479" lon="-3.5284">
        <ele>13.03</ele>
        <time>2020-07-10T09:00:44Z</time>
      </trkpt>
      <trkpt lat="47.79482" lon="-3.52843">
        <ele>12.98</ele>
        <time>2020-07-10T09:00:45Z</time>
      </trkpt>
      <trkpt lat="47.79485" lon="-3.52844">
        <ele>12.67</ele>
        <time>2020-07-10T09:00:46Z</time>
      </trkpt>
      <trkpt lat="47.79487" lon="-3.52843">
        <ele>12.13</ele>
        <time>2020-07-10T09:00:47Z</time>
      </trkpt>
      <trkpt lat="47.79489" lon="-3.52842">
        <ele>11.37</ele>
        <time>2020-07-10T09:00:48Z</time>
      </trkpt>
      <trkpt lat="47.79492" lon="-3.52841">
        <ele>10.74</ele>
        <time>2020-07-10T09:00:49Z</time>
      </trkpt>
      <trkpt lat="47.79494" lon="-3.52841">
        <ele>10.16</ele>
        <time>2020-07-10T09:00:50Z</time>
      </trkpt>
      <trkpt lat="47.79498" lon="-3.52843">
        <ele>9.83</ele>
        <time>2020-07-10T09:00:51Z</time>
      </trkpt>
      <trkpt lat="47.79501" lon="-3.52845">
        <ele>9.69</ele>
        <time>2020-07-10T09:00:52Z</time>
      </trkpt>
      <trkpt lat="47.79502" lon="-3.52847">
        <ele>9.96</ele>
        <time>2020-07-10T09:00:53Z</time>
      </trkpt>
      <trkpt lat="47.79504" lon="-3.5285">
        <ele>10.39</ele>
        <time>2020-07-10T09:00:54Z</time>
      </trkpt>
      <trkpt lat="47.79506" lon="-3.52853">
        <ele>10.78</ele>
        <time>2020-07-10T09:00:55Z</time>
      </trkpt>
      <trkpt lat="47.79508" lon="-3.52855">
        <ele>11.07</ele>
        <time>2020-07-10T09:00:56Z</time>
      </trkpt>
      <trkpt lat="47.7951" lon="-3.52858">
        <ele>11.41</ele>
        <time>2020-07-10T09:00:57Z</time>
      </trkpt>
      <trkpt lat="47.79513" lon="-3.52862">
        <ele>11.71</ele>
        <time>2020-07-10T09:00:58Z</time>
      </trkpt>
      <trkpt lat="47.79516" lon="-3.52865">
        <ele>11.65</ele>
        <time>2020-07-10T09:00:59Z</time>
      </trkpt>
      <trkpt lat="47.7952" lon="-3.52867">
        <ele>11.54</ele>
        <time>2020-07-10T09:01:00Z</time>
      </trkpt>
      <trkpt lat="47.79523" lon="-3.52869">
        <ele>11.32</ele>
        <time>2020-07-10T09:01:01Z</time>
      </trkpt>
      <trkpt lat="47.79529" lon="-3.52869">
        <ele>10.58</ele>
        <time>2020-07-10T09:01:02Z</time>
      </trkpt>
      <trkpt lat="47.79534" lon="-3.5287">
        <ele>10.14</ele>
        <time>2020-07-10T09:01:03Z</time>
      </trkpt>
      <trkpt lat="47.79536" lon="-3.5287">
        <ele>9.77</ele>
        <time>2020-07-10T09:01:04Z</time>
      </trkpt>
      <trkpt lat="47.79539" lon="-3.52871">
        <ele>9.59</ele>
        <time>2020-07-10T09:01:05Z</time>
      </trkpt>
      <trkpt lat="47.79541" lon="-3.52873">
        <ele>9.71</ele>
        <time>2020-07-10T09:01:06Z</time>
      </trkpt>
      <trkpt lat="47.79542" lon="-3.52875">
        <ele>10.03</ele>
        <time>2020-07-10T09:01:07Z</time>
      </trkpt>
      <trkpt lat="47.79544" lon="-3.52876">
        <ele>10.24</ele>
        <time>2020-07-10T09:01:08Z</time>
      </trkpt>
      <trkpt lat="47.79545" lon="-3.52878">
        <ele>10.46</ele>
        <time>2020-07-10T09:01:09Z</time>
      </trkpt>
      <trkpt lat="47.79546" lon="-3.52879">
        <ele>10.61</ele>
        <time>2020-07-10T09:01:10Z</time>
      </trkpt>
      <trkpt lat="47.79547" lon="-3.52879">
        <ele>10.62</ele>
        <time>2020-07-10T09:01:11Z</time>
      </trkpt>
      <trkpt lat="47.79547" lon="-3.52879">
        <ele>10.63</ele>
        <time>2020-07-10T09:01:12Z</time>
      </trkpt>
      <trkpt lat="47.79547" lon="-3.52879">
        <ele>10.63</ele>
        <time>2020-07-10T09:01:13Z</time>
      </trkpt>
      <trkpt lat="47.79547" lon="-3.52879">
        <ele>10.63</ele>
        <time>2020-07-10T09:01:14Z</time>
      </trkpt>
      <trkpt lat="47.79547" lon="-3.52879">
        <ele>10.63</ele>
        <time>2020-07-10T09:01:15Z</time>
      </trkpt>
      <trkpt lat="47.79547" lon="-3.52879">
        <ele>10.63</ele>
        <time>2020-07-10T09:01:16Z</time>
      </trkpt>
      <trkpt lat="47.79547" lon="-3.52879">
        <ele>10.63</ele>
        <time>2020-07-10T09:01:17Z</time>
      </trkpt>
      <trkpt lat="47.79551" lon="-3.52884">
        <ele>11.13</ele>
        <time>2020-07-10T09:01:18Z</time>
      </trkpt>
      <trkpt lat="47.79553" lon="-3.52886">
        <ele>11.6</ele>
        <time>2020-07-10T09:01:19Z</time>
      </trkpt>
      <trkpt lat="47.79554" lon="-3.52889">
        <ele>12</ele>
        <time>2020-07-10T09:01:20Z</time>
      </trkpt>
      <trkpt lat="47.79555" lon="-3.52891">
        <ele>12.39</ele>
        <time>2020-07-10T09:01:21Z</time>
      </trkpt>
      <trkpt lat="47.79555" lon="-3.52893">
        <ele>12.82</ele>
        <time>2020-07-10T09:01:22Z</time>
      </trkpt>
      <trkpt lat="47.79555" lon="-3.52895">
        <ele>13.33</ele>
        <time>2020-07-10T09:01:23Z</time>
      </trkpt>
      <trkpt lat="47.79556" lon="-3.52897">
        <ele>13.89</ele>
        <time>2020-07-10T09:01:24Z</time>
      </trkpt>
      <trkpt lat="47.79557" lon="-3.52899">
        <ele>14.55</ele>
        <time>2020-07-10T09:01:25Z</time>
      </trkpt>
      <trkpt lat="47.79559" lon="-3.52902">
        <ele>15.43</ele>
        <time>2020-07-10T09:01:26Z</time>
      </trkpt>
      <trkpt lat="47.79561" lon="-3.52905">
        <ele>16.38</ele>
        <time>2020-07-10T09:01:27Z</time>
      </trkpt>
      <trkpt lat="47.79563" lon="-3.52906">
        <ele>16.99</ele>
        <time>2020-07-10T09:01:28Z</time>
      </trkpt>
      <trkpt lat="47.79564" lon="-3.52906">
        <ele>17.36</ele>
        <time>2020-07-10T09:01:29Z</time>
      </trkpt>
      <trkpt lat="47.79565" lon="-3.52907">
        <ele>17.64</ele>
        <time>2020-07-10T09:01:30Z</time>
      </trkpt>
      <trkpt lat="47.79565" lon="-3.52907">
        <ele>17.8</ele>
        <time>2020-07-10T09:01:31Z</time>
      </trkpt>
      <trkpt lat="47.79565" lon="-3.52907">
        <ele>17.85</ele>
        <time>2020-07-10T09:01:32Z</time>
      </trkpt>
      <trkpt lat="47.79565" lon="-3.52907">
        <ele>17.87</ele>
        <time>2020-07-10T09:01:33Z</time>
      </trkpt>
      <trkpt lat="47.79565" lon="-3.52907">
        <ele>17.87</ele>
        <time>2020-07-10T09:01:34Z</time>
      </trkpt>
      <trkpt lat="47.79568" lon="-3.52902">
        <ele>17.47</ele>
        <time>2020-07-10T09:01:35Z</time>
      </trkpt>
      <trkpt lat="47.79569" lon="-3.52901">
        <ele>17.33</ele>
        <time>2020-07-10T09:01:36Z</time>
      </trkpt>
      <trkpt lat="47.79569" lon="-3.52899">
        <ele>17.2</ele>
        <time>2020-07-10T09:01:37Z</time>
      </trkpt>
      <trkpt lat="47.7957" lon="-3.52898">
        <ele>17.08</ele>
        <time>2020-07-10T09:01:38Z</time>
      </trkpt>
      <trkpt lat="47.7957" lon="-3.52898">
        <ele>17.04</ele>
        <time>2020-07-10T09:01:39Z</time>
      </trkpt>
      <trkpt lat="47.7957" lon="-3.52898">
        <ele>17.03</ele>
        <time>2020-07-10T09:01:40Z</time>
      </trkpt>
      <trkpt lat="47.7957" lon="-3.52898">
        <ele>17.03</ele>
        <time>2020-07-10T09:01:41Z</time>
      </trkpt>
      <trkpt lat="47.79571" lon="-3.52892">
        <ele>16.54</ele>
        <time>2020-07-10T09:01:42Z</time>
      </trkpt>
      <trkpt lat="47.79571" lon="-3.52891">
        <ele>16.23</ele>
        <time>2020-07-10T09:01:43Z</time>
      </trkpt>
      <trkpt lat="47.79571" lon="-3.52888">
        <ele>15.83</ele>
        <time>2020-07-10T09:01:44Z</time>
      </trkpt>
      <trkpt lat="47.79571" lon="-3.52886">
        <ele>15.35</ele>
        <time>2020-07-10T09:01:45Z</time>
      </trkpt>
      <trkpt lat="47.79571" lon="-3.52885">
        <ele>15.02</ele>
        <time>2020-07-10T09:01:46Z</time>
      </trkpt>
      <trkpt lat="47.7957" lon="-3.52882">
        <ele>14.43</ele>
        <time>2020-07-10T09:01:47Z</time>
      </trkpt>
      <trkpt lat="47.79571" lon="-3.52879">
        <ele>13.94</ele>
        <time>2020-07-10T09:01:48Z</time>
      </trkpt>
      <trkpt lat="47.79571" lon="-3.52876">
        <ele>13.37</ele>
        <time>2020-07-10T09:01:49Z</time>
      </trkpt>
      <trkpt lat="47.79571" lon="-3.52873">
        <ele>12.7</ele>
        <time>2020-07-10T09:01:50Z</time>
      </trkpt>
      <trkpt lat="47.79571" lon="-3.5287">
        <ele>12.15</ele>
        <time>2020-07-10T09:01:51Z</time>
      </trkpt>
      <trkpt lat="47.79571" lon="-3.52867">
        <ele>11.58</ele>
        <time>2020-07-10T09:01:52Z</time>
      </trkpt>
      <trkpt lat="47.79572" lon="-3.52864">
        <ele>11.03</ele>
        <time>2020-07-10T09:01:53Z</time>
      </trkpt>
      <trkpt lat="47.79573" lon="-3.52859">
        <ele>10.48</ele>
        <time>2020-07-10T09:01:54Z</time>
      </trkpt>
      <trkpt lat="47.79574" lon="-3.52854">
        <ele>9.74</ele>
        <time>2020-07-10T09:01:55Z</time>
      </trkpt>
      <trkpt lat="47.79576" lon="-3.52849">
        <ele>8.99</ele>
        <time>2020-07-10T09:01:56Z</time>
      </trkpt>
      <trkpt lat="47.79578" lon="-3.52843">
        <ele>8.15</ele>
        <time>2020-07-10T09:01:57Z</time>
      </trkpt>
      <trkpt lat="47.7958" lon="-3.52837">
        <ele>7.39</ele>
        <time>2020-07-10T09:01:58Z</time>
      </trkpt>
      <trkpt lat="47.79584" lon="-3.52831">
        <ele>6.86</ele>
        <time>2020-07-10T09:01:59Z</time>
      </trkpt>
      <trkpt lat="47.79587" lon="-3.52827">
        <ele>6.55</ele>
        <time>2020-07-10T09:02:00Z</time>
      </trkpt>
      <trkpt lat="47.79591" lon="-3.52824">
        <ele>6.47</ele>
        <time>2020-07-10T09:02:01Z</time>
      </trkpt>
      <trkpt lat="47.79596" lon="-3.52822">
        <ele>6.63</ele>
        <time>2020-07-10T09:02:02Z</time>
      </trkpt>
      <trkpt lat="47.796" lon="-3.5282">
        <ele>7</ele>
        <time>2020-07-10T09:02:03Z</time>
      </trkpt>
      <trkpt lat="47.79605" lon="-3.52819">
        <ele>7.52</ele>
        <time>2020-07-10T09:02:04Z</time>
      </trkpt>
      <trkpt lat="47.7961" lon="-3.52817">
        <ele>8.02</ele>
        <time>2020-07-10T09:02:05Z</time>
      </trkpt>
      <trkpt lat="47.79616" lon="-3.52812">
        <ele>7.82</ele>
        <time>2020-07-10T09:02:06Z</time>
      </trkpt>
      <trkpt lat="47.79622" lon="-3.52807">
        <ele>7.05</ele>
        <time>2020-07-10T09:02:07Z</time>
      </trkpt>
      <trkpt lat="47.79628" lon="-3.52801">
        <ele>6.07</ele>
        <time>2020-07-10T09:02:08Z</time>
      </trkpt>
      <trkpt lat="47.79634" lon="-3.52797">
        <ele>5.16</ele>
        <time>2020-07-10T09:02:09Z</time>
      </trkpt>
      <trkpt lat="47.79639" lon="-3.52794">
        <ele>4.5</ele>
        <time>2020-07-10T09:02:10Z</time>
      </trkpt>
      <trkpt lat="47.79643" lon="-3.52791">
        <ele>4.33</ele>
        <time>2020-07-10T09:02:11Z</time>
      </trkpt>
      <trkpt lat="47.79647" lon="-3.52788">
        <ele>4.18</ele>
        <time>2020-07-10T09:02:12Z</time>
      </trkpt>
      <trkpt lat="47.7965" lon="-3.52785">
        <ele>3.98</ele>
        <time>2020-07-10T09:02:13Z</time>
      </trkpt>
      <trkpt lat="47.79654" lon="-3.52782">
        <ele>3.84</ele>
        <time>2020-07-10T09:02:14Z</time>
      </trkpt>
      <trkpt lat="47.79657" lon="-3.52779">
        <ele>3.73</ele>
        <time>2020-07-10T09:02:15Z</time>
      </trkpt>
      <trkpt lat="47.7966" lon="-3.52778">
        <ele>3.76</ele>
        <time>2020-07-10T09:02:16Z</time>
      </trkpt>
      <trkpt lat="47.79661" lon="-3.52777">
        <ele>3.9</ele>
        <time>2020-07-10T09:02:17Z</time>
      </trkpt>
      <trkpt lat="47.79663" lon="-3.52777">
        <ele>4.08</ele>
        <time>2020-07-10T09:02:18Z</time>
      </trkpt>
      <trkpt lat="47.79664" lon="-3.52777">
        <ele>4.32</ele>
        <time>2020-07-10T09:02:19Z</time>
      </trkpt>
      <trkpt lat="47.79666" lon="-3.52778">
        <ele>4.74</ele>
        <time>2020-07-10T09:02:20Z</time>
      </trkpt>
      <trkpt lat="47.79668" lon="-3.5278">
        <ele>5.47</ele>
        <time>2020-07-10T09:02:21Z</time>
      </trkpt>
      <trkpt lat="47.79669" lon="-3.52781">
        <ele>6.23</ele>
        <time>2020-07-10T09:02:22Z</time>
      </trkpt>
      <trkpt lat="47.7967" lon="-3.52781">
        <ele>6.79</ele>
        <time>2020-07-10T09:02:23Z</time>
      </trkpt>
      <trkpt lat="47.79671" lon="-3.52781">
        <ele>6.99</ele>
        <time>2020-07-10T09:02:24Z</time>
      </trkpt>
      <trkpt lat="47.79671" lon="-3.5278">
        <ele>7.05</ele>
        <time>2020-07-10T09:02:25Z</time>
      </trkpt>
      <trkpt lat="47.79672" lon="-3.52781">
        <ele>7.27</ele>
        <time>2020-07-10T09:02:26Z</time>
      </trkpt>
      <trkpt lat="47.79672" lon="-3.52781">
        <ele>7.34</ele>
        <time>2020-07-10T09:02:27Z</time>
      </trkpt>
      <trkpt lat="47.79672" lon="-3.52781">
        <ele>7.36</ele>
        <time>2020-07-10T09:02:28Z</time>
      </trkpt>
      <trkpt lat="47.79672" lon="-3.52781">
        <ele>7.37</ele>
        <time>2020-07-10T09:02:29Z</time>
      </trkpt>
      <trkpt lat="47.79672" lon="-3.52781">
        <ele>7.37</ele>
        <time>2020-07-10T09:02:30Z</time>
      </trkpt>
      <trkpt lat="47.79672" lon="-3.52781">
        <ele>7.37</ele>
        <time>2020-07-10T09:02:31Z</time>
      </trkpt>
      <trkpt lat="47.79672" lon="-3.52781">
        <ele>7.37</ele>
        <time>2020-07-10T09:02:32Z</time>
      </trkpt>
      <trkpt lat="47.79672" lon="-3.52781">
        <ele>7.37</ele>
        <time>2020-07-10T09:02:33Z</time>
      </trkpt>
      <trkpt lat="47.79672" lon="-3.52781">
        <ele>7.37</ele>
        <time>2020-07-10T09:02:34Z</time>
      </trkpt>
      <trkpt lat="47.79677" lon="-3.52782">
        <ele>8.61</ele>
        <time>2020-07-10T09:02:35Z</time>
      </trkpt>
      <trkpt lat="47.79679" lon="-3.52784">
        <ele>9.66</ele>
        <time>2020-07-10T09:02:36Z</time>
      </trkpt>
      <trkpt lat="47.7968" lon="-3.52784">
        <ele>10.31</ele>
        <time>2020-07-10T09:02:37Z</time>
      </trkpt>
      <trkpt lat="47.79681" lon="-3.52784">
        <ele>10.63</ele>
        <time>2020-07-10T09:02:38Z</time>
      </trkpt>
      <trkpt lat="47.79682" lon="-3.52784">
        <ele>10.97</ele>
        <time>2020-07-10T09:02:39Z</time>
      </trkpt>
      <trkpt lat="47.79682" lon="-3.52784">
        <ele>11.2</ele>
        <time>2020-07-10T09:02:40Z</time>
      </trkpt>
      <trkpt lat="47.79683" lon="-3.52784">
        <ele>11.37</ele>
        <time>2020-07-10T09:02:41Z</time>
      </trkpt>
      <trkpt lat="47.79683" lon="-3.52784">
        <ele>11.43</ele>
        <time>2020-07-10T09:02:42Z</time>
      </trkpt>
      <trkpt lat="47.79683" lon="-3.52784">
        <ele>11.44</ele>
        <time>2020-07-10T09:02:43Z</time>
      </trkpt>
      <trkpt lat="47.79683" lon="-3.52784">
        <ele>11.45</ele>
        <time>2020-07-10T09:02:44Z</time>
      </trkpt>
      <trkpt lat="47.79683" lon="-3.52784">
        <ele>11.45</ele>
        <time>2020-07-10T09:02:45Z</time>
      </trkpt>
      <trkpt lat="47.79683" lon="-3.52784">
        <ele>11.45</ele>
        <time>2020-07-10T09:02:46Z</time>
      </trkpt>
      <trkpt lat="47.79683" lon="-3.52784">
        <ele>11.45</ele>
        <time>2020-07-10T09:02:47Z</time>
      </trkpt>
      <trkpt lat="47.79683" lon="-3.52784">
        <ele>11.45</ele>
        <time>2020-07-10T09:02:48Z</time>
      </trkpt>
      <trkpt lat="47.79683" lon="-3.52784">
        <ele>11.45</ele>
        <time>2020-07-10T09:02:49Z</time>
      </trkpt>
      <trkpt lat="47.79683" lon="-3.52784">
        <ele>11.45</ele>
        <time>2020-07-10T09:02:50Z</time>
      </trkpt>
      <trkpt lat="47.79683" lon="-3.52784">
        <ele>11.45</ele>
        <time>2020-07-10T09:02:51Z</time>
      </trkpt>
      <trkpt lat="47.79683" lon="-3.52784">
        <ele>11.45</ele>
        <time>2020-07-10T09:02:52Z</time>
      </trkpt>
      <trkpt lat="47.79683" lon="-3.52784">
        <ele>11.45</ele>
        <time>2020-07-10T09:02:53Z</time>
      </trkpt>
      <trkpt lat="47.79683" lon="-3.52784">
        <ele>11.45</ele>
        <time>2020-07-10T09:02:54Z</time>
      </trkpt>
      <trkpt lat="47.79683" lon="-3.52784">
        <ele>11.45</ele>
        <time>2020-07-10T09:02:55Z</time>
      </trkpt>
      <trkpt lat="47.79683" lon="-3.52784">
        <ele>11.45</ele>
        <time>2020-07-10T09:02:56Z</time>
      </trkpt>
      <trkpt lat="47.79692" lon="-3.52786">
        <ele>13.77</ele>
        <time>2020-07-10T09:02:57Z</time>
      </trkpt>
      <trkpt lat="47.79693" lon="-3.52787">
        <ele>14.76</ele>
        <time>2020-07-10T09:02:58Z</time>
      </trkpt>
      <trkpt lat="47.79693" lon="-3.52787">
        <ele>15.1</ele>
        <time>2020-07-10T09:02:59Z</time>
      </trkpt>
      <trkpt lat="47.79693" lon="-3.52788">
        <ele>15.3</ele>
        <time>2020-07-10T09:03:00Z</time>
      </trkpt>
      <trkpt lat="47.79693" lon="-3.52788">
        <ele>15.36</ele>
        <time>2020-07-10T09:03:01Z</time>
      </trkpt>
      <trkpt lat="47.79693" lon="-3.52788">
        <ele>15.38</ele>
        <time>2020-07-10T09:03:02Z</time>
      </trkpt>
      <trkpt lat="47.79693" lon="-3.52788">
        <ele>15.38</ele>
        <time>2020-07-10T09:03:03Z</time>
      </trkpt>
      <trkpt lat="47.79693" lon="-3.52788">
        <ele>15.38</ele>
        <time>2020-07-10T09:03:04Z</time>
      </trkpt>
      <trkpt lat="47.79693" lon="-3.52788">
        <ele>15.38</ele>
        <time>2020-07-10T09:03:05Z</time>
      </trkpt>
      <trkpt lat="47.79693" lon="-3.52788">
        <ele>15.38</ele>
        <time>2020-07-10T09:03:06Z</time>
      </trkpt>
      <trkpt lat="47.79693" lon="-3.52788">
        <ele>15.38</ele>
        <time>2020-07-10T09:03:07Z</time>
      </trkpt>
      <trkpt lat="47.79693" lon="-3.52788">
        <ele>15.38</ele>
        <time>2020-07-10T09:03:08Z</time>
      </trkpt>
      <trkpt lat="47.79693" lon="-3.52788">
        <ele>15.38</ele>
        <time>2020-07-10T09:03:09Z</time>
      </trkpt>
      <trkpt lat="47.79693" lon="-3.52788">
        <ele>15.38</ele>
        <time>2020-07-10T09:03:10Z</time>
      </trkpt>
      <trkpt lat="47.79693" lon="-3.52788">
        <ele>15.38</ele>
        <time>2020-07-10T09:03:11Z</time>
      </trkpt>
      <trkpt lat="47.79693" lon="-3.52788">
        <ele>15.38</ele>
        <time>2020-07-10T09:03:12Z</time>
      </trkpt>
      <trkpt lat="47.79693" lon="-3.52788">
        <ele>15.38</ele>
        <time>2020-07-10T09:03:13Z</time>
      </trkpt>
      <trkpt lat="47.79693" lon="-3.52788">
        <ele>15.38</ele>
        <time>2020-07-10T09:03:14Z</time>
      </trkpt>
      <trkpt lat="47.79693" lon="-3.52788">
        <ele>15.38</ele>
        <time>2020-07-10T09:03:15Z</time>
      </trkpt>
      <trkpt lat="47.79693" lon="-3.52788">
        <ele>15.38</ele>
        <time>2020-07-10T09:03:16Z</time>
      </trkpt>
      <trkpt lat="47.79693" lon="-3.52788">
        <ele>15.38</ele>
        <time>2020-07-10T09:03:17Z</time>
      </trkpt>
      <trkpt lat="47.79693" lon="-3.52788">
        <ele>15.38</ele>
        <time>2020-07-10T09:03:18Z</time>
      </trkpt>
      <trkpt lat="47.79693" lon="-3.52788">
        <ele>15.38</ele>
        <time>2020-07-10T09:03:19Z</time>
      </trkpt>
      <trkpt lat="47.79693" lon="-3.52788">
        <ele>15.38</ele>
        <time>2020-07-10T09:03:20Z</time>
      </trkpt>
      <trkpt lat="47.79693" lon="-3.52788">
        <ele>15.38</ele>
        <time>2020-07-10T09:03:21Z</time>
      </trkpt>
      <trkpt lat="47.79693" lon="-3.52788">
        <ele>15.38</ele>
        <time>2020-07-10T09:03:22Z</time>
      </trkpt>
      <trkpt lat="47.79693" lon="-3.52788">
        <ele>15.38</ele>
        <time>2020-07-10T09:03:23Z</time>
      </trkpt>
      <trkpt lat="47.79693" lon="-3.52788">
        <ele>15.38</ele>
        <time>2020-07-10T09:03:24Z</time>
      </trkpt>
      <trkpt lat="47.79693" lon="-3.52788">
        <ele>15.38</ele>
        <time>2020-07-10T09:03:25Z</time>
      </trkpt>
      <trkpt lat="47.79693" lon="-3.52788">
        <ele>15.38</ele>
        <time>2020-07-10T09:03:26Z</time>
      </trkpt>
      <trkpt lat="47.79693" lon="-3.52788">
        <ele>15.38</ele>
        <time>2020-07-10T09:03:27Z</time>
      </trkpt>
      <trkpt lat="47.79702" lon="-3.52785">
        <ele>16.47</ele>
        <time>2020-07-10T09:03:28Z</time>
      </trkpt>
      <trkpt lat="47.79703" lon="-3.52784">
        <ele>16.86</ele>
        <time>2020-07-10T09:03:29Z</time>
      </trkpt>
      <trkpt lat="47.79705" lon="-3.52782">
        <ele>16.92</ele>
        <time>2020-07-10T09:03:30Z</time>
      </trkpt>
      <trkpt lat="47.79707" lon="-3.5278">
        <ele>17.01</ele>
        <time>2020-07-10T09:03:31Z</time>
      </trkpt>
      <trkpt lat="47.79708" lon="-3.52779">
        <ele>17.19</ele>
        <time>2020-07-10T09:03:32Z</time>
      </trkpt>
      <trkpt lat="47.7971" lon="-3.52777">
        <ele>17.29</ele>
        <time>2020-07-10T09:03:33Z</time>
      </trkpt>
      <trkpt lat="47.79712" lon="-3.52773">
        <ele>16.83</ele>
        <time>2020-07-10T09:03:34Z</time>
      </trkpt>
      <trkpt lat="47.79714" lon="-3.52769">
        <ele>16.31</ele>
        <time>2020-07-10T09:03:35Z</time>
      </trkpt>
      <trkpt lat="47.79716" lon="-3.52765">
        <ele>15.93</ele>
        <time>2020-07-10T09:03:36Z</time>
      </trkpt>
      <trkpt lat="47.79718" lon="-3.5276">
        <ele>15.55</ele>
        <time>2020-07-10T09:03:37Z</time>
      </trkpt>
      <trkpt lat="47.79719" lon="-3.52756">
        <ele>15.15</ele>
        <time>2020-07-10T09:03:38Z</time>
      </trkpt>
      <trkpt lat="47.7972" lon="-3.52754">
        <ele>14.96</ele>
        <time>2020-07-10T09:03:39Z</time>
      </trkpt>
      <trkpt lat="47.79721" lon="-3.52753">
        <ele>14.94</ele>
        <time>2020-07-10T09:03:40Z</time>
      </trkpt>
      <trkpt lat="47.79721" lon="-3.52753">
        <ele>14.87</ele>
        <time>2020-07-10T09:03:41Z</time>
      </trkpt>
      <trkpt lat="47.79721" lon="-3.52753">
        <ele>14.85</ele>
        <time>2020-07-10T09:03:42Z</time>
      </trkpt>
      <trkpt lat="47.79721" lon="-3.52753">
        <ele>14.84</ele>
        <time>2020-07-10T09:03:43Z</time>
      </trkpt>
      <trkpt lat="47.79721" lon="-3.52753">
        <ele>14.84</ele>
        <time>2020-07-10T09:03:44Z</time>
      </trkpt>
      <trkpt lat="47.79721" lon="-3.52753">
        <ele>14.84</ele>
        <time>2020-07-10T09:03:45Z</time>
      </trkpt>
      <trkpt lat="47.79721" lon="-3.52753">
        <ele>14.84</ele>
        <time>2020-07-10T09:03:46Z</time>
      </trkpt>
      <trkpt lat="47.79721" lon="-3.52753">
        <ele>14.84</ele>
        <time>2020-07-10T09:03:47Z</time>
      </trkpt>
      <trkpt lat="47.79721" lon="-3.52753">
        <ele>14.84</ele>
        <time>2020-07-10T09:03:48Z</time>
      </trkpt>
      <trkpt lat="47.79721" lon="-3.52753">
        <ele>14.84</ele>
        <time>2020-07-10T09:03:49Z</time>
      </trkpt>
      <trkpt lat="47.79721" lon="-3.52753">
        <ele>14.84</ele>
        <time>2020-07-10T09:03:50Z</time>
      </trkpt>
      <trkpt lat="47.79721" lon="-3.52753">
        <ele>14.84</ele>
        <time>2020-07-10T09:03:51Z</time>
      </trkpt>
      <trkpt lat="47.79721" lon="-3.52753">
        <ele>14.84</ele>
        <time>2020-07-10T09:03:52Z</time>
      </trkpt>
      <trkpt lat="47.79721" lon="-3.52753">
        <ele>14.84</ele>
        <time>2020-07-10T09:03:53Z</time>
      </trkpt>
      <trkpt lat="47.79721" lon="-3.52753">
        <ele>14.84</ele>
        <time>2020-07-10T09:03:54Z</time>
      </trkpt>
      <trkpt lat="47.79721" lon="-3.52753">
        <ele>14.84</ele>
        <time>2020-07-10T09:03:55Z</time>
      </trkpt>
      <trkpt lat="47.79721" lon="-3.52753">
        <ele>14.84</ele>
        <time>2020-07-10T09:03:56Z</time>
      </trkpt>
      <trkpt lat="47.79721" lon="-3.52753">
        <ele>14.84</ele>
        <time>2020-07-10T09:03:57Z</time>
      </trkpt>
      <trkpt lat="47.79721" lon="-3.52753">
        <ele>14.84</ele>
        <time>2020-07-10T09:03:58Z</time>
      </trkpt>
      <trkpt lat="47.79721" lon="-3.52753">
        <ele>14.84</ele>
        <time>2020-07-10T09:03:59Z</time>
      </trkpt>
      <trkpt lat="47.79718" lon="-3.52764">
        <ele>15.86</ele>
        <time>2020-07-10T09:04:00Z</time>
      </trkpt>
      <trkpt lat="47.79717" lon="-3.52766">
        <ele>16.33</ele>
        <time>2020-07-10T09:04:01Z</time>
      </trkpt>
      <trkpt lat="47.79716" lon="-3.52768">
        <ele>16.41</ele>
        <time>2020-07-10T09:04:02Z</time>
      </trkpt>
      <trkpt lat="47.79715" lon="-3.52769">
        <ele>16.39</ele>
        <time>2020-07-10T09:04:03Z</time>
      </trkpt>
      <trkpt lat="47.79713" lon="-3.52771">
        <ele>16.39</ele>
        <time>2020-07-10T09:04:04Z</time>
      </trkpt>
      <trkpt lat="47.79712" lon="-3.52771">
        <ele>16.24</ele>
        <time>2020-07-10T09:04:05Z</time>
      </trkpt>
      <trkpt lat="47.79711" lon="-3.52772">
        <ele>15.99</ele>
        <time>2020-07-10T09:04:06Z</time>
      </trkpt>
      <trkpt lat="47.79709" lon="-3.52772">
        <ele>15.59</ele>
        <time>2020-07-10T09:04:07Z</time>
      </trkpt>
      <trkpt lat="47.79708" lon="-3.52771">
        <ele>15.07</ele>
        <time>2020-07-10T09:04:08Z</time>
      </trkpt>
      <trkpt lat="47.79706" lon="-3.52772">
        <ele>14.48</ele>
        <time>2020-07-10T09:04:09Z</time>
      </trkpt>
      <trkpt lat="47.79704" lon="-3.52772">
        <ele>13.96</ele>
        <time>2020-07-10T09:04:10Z</time>
      </trkpt>
      <trkpt lat="47.79702" lon="-3.52773">
        <ele>13.56</ele>
        <time>2020-07-10T09:04:11Z</time>
      </trkpt>
      <trkpt lat="47.797" lon="-3.52774">
        <ele>12.96</ele>
        <time>2020-07-10T09:04:12Z</time>
      </trkpt>
      <trkpt lat="47.79698" lon="-3.52774">
        <ele>12.48</ele>
        <time>2020-07-10T09:04:13Z</time>
      </trkpt>
      <trkpt lat="47.79696" lon="-3.52775">
        <ele>12.24</ele>
        <time>2020-07-10T09:04:14Z</time>
      </trkpt>
      <trkpt lat="47.79694" lon="-3.52776">
        <ele>12.17</ele>
        <time>2020-07-10T09:04:15Z</time>
      </trkpt>
      <trkpt lat="47.79694" lon="-3.52777">
        <ele>12.24</ele>
        <time>2020-07-10T09:04:16Z</time>
      </trkpt>
      <trkpt lat="47.79693" lon="-3.52777">
        <ele>12.23</ele>
        <time>2020-07-10T09:04:17Z</time>
      </trkpt>
      <trkpt lat="47.79693" lon="-3.52778">
        <ele>12.56</ele>
        <time>2020-07-10T09:04:18Z</time>
      </trkpt>
      <trkpt lat="47.79693" lon="-3.52778">
        <ele>12.65</ele>
        <time>2020-07-10T09:04:19Z</time>
      </trkpt>
      <trkpt lat="47.79693" lon="-3.52778">
        <ele>12.68</ele>
        <time>2020-07-10T09:04:20Z</time>
      </trkpt>
      <trkpt lat="47.79693" lon="-3.52778">
        <ele>12.69</ele>
        <time>2020-07-10T09:04:21Z</time>
      </trkpt>
      <trkpt lat="47.79693" lon="-3.52778">
        <ele>12.69</ele>
        <time>2020-07-10T09:04:22Z</time>
      </trkpt>
      <trkpt lat="47.79693" lon="-3.52778">
        <ele>12.7</ele>
        <time>2020-07-10T09:04:23Z</time>
      </trkpt>
      <trkpt lat="47.79693" lon="-3.52778">
        <ele>12.7</ele>
        <time>2020-07-10T09:04:24Z</time>
      </trkpt>
      <trkpt lat="47.79693" lon="-3.52778">
        <ele>12.7</ele>
        <time>2020-07-10T09:04:25Z</time>
      </trkpt>
      <trkpt lat="47.79693" lon="-3.52778">
        <ele>12.7</ele>
        <time>2020-07-10T09:04:26Z</time>
      </trkpt>
      <trkpt lat="47.79693" lon="-3.52778">
        <ele>12.7</ele>
        <time>2020-07-10T09:04:27Z</time>
      </trkpt>
      <trkpt lat="47.79693" lon="-3.52778">
        <ele>12.7</ele>
        <time>2020-07-10T09:04:28Z</time>
      </trkpt>
      <trkpt lat="47.79693" lon="-3.52778">
        <ele>12.7</ele>
        <time>2020-07-10T09:04:29Z</time>
      </trkpt>
      <trkpt lat="47.79693" lon="-3.52778">
        <ele>12.7</ele>
        <time>2020-07-10T09:04:30Z</time>
      </trkpt>
      <trkpt lat="47.79697" lon="-3.52776">
        <ele>12.91</ele>
        <time>2020-07-10T09:04:31Z</time>
      </trkpt>
      <trkpt lat="47.79699" lon="-3.52775">
        <ele>12.95</ele>
        <time>2020-07-10T09:04:32Z</time>
      </trkpt>
      <trkpt lat="47.797" lon="-3.52774">
        <ele>13.12</ele>
        <time>2020-07-10T09:04:33Z</time>
      </trkpt>
      <trkpt lat="47.79702" lon="-3.52773">
        <ele>13.19</ele>
        <time>2020-07-10T09:04:34Z</time>
      </trkpt>
      <trkpt lat="47.79703" lon="-3.52772">
        <ele>13.24</ele>
        <time>2020-07-10T09:04:35Z</time>
      </trkpt>
      <trkpt lat="47.79705" lon="-3.5277">
        <ele>13.39</ele>
        <time>2020-07-10T09:04:36Z</time>
      </trkpt>
      <trkpt lat="47.79708" lon="-3.52768">
        <ele>13.44</ele>
        <time>2020-07-10T09:04:37Z</time>
      </trkpt>
      <trkpt lat="47.7971" lon="-3.52765">
        <ele>13.25</ele>
        <time>2020-07-10T09:04:38Z</time>
      </trkpt>
      <trkpt lat="47.79712" lon="-3.52761">
        <ele>12.92</ele>
        <time>2020-07-10T09:04:39Z</time>
      </trkpt>
      <trkpt lat="47.79714" lon="-3.52757">
        <ele>12.65</ele>
        <time>2020-07-10T09:04:40Z</time>
      </trkpt>
      <trkpt lat="47.79715" lon="-3.52754">
        <ele>12.29</ele>
        <time>2020-07-10T09:04:41Z</time>
      </trkpt>
      <trkpt lat="47.79716" lon="-3.5275">
        <ele>11.87</ele>
        <time>2020-07-10T09:04:42Z</time>
      </trkpt>
      <trkpt lat="47.79717" lon="-3.52747">
        <ele>11.83</ele>
        <time>2020-07-10T09:04:43Z</time>
      </trkpt>
      <trkpt lat="47.79719" lon="-3.52743">
        <ele>11.83</ele>
        <time>2020-07-10T09:04:44Z</time>
      </trkpt>
      <trkpt lat="47.79719" lon="-3.5274">
        <ele>11.71</ele>
        <time>2020-07-10T09:04:45Z</time>
      </trkpt>
      <trkpt lat="47.79721" lon="-3.52737">
        <ele>11.84</ele>
        <time>2020-07-10T09:04:46Z</time>
      </trkpt>
      <trkpt lat="47.79721" lon="-3.52734">
        <ele>11.71</ele>
        <time>2020-07-10T09:04:47Z</time>
      </trkpt>
      <trkpt lat="47.79722" lon="-3.52731">
        <ele>11.38</ele>
        <time>2020-07-10T09:04:48Z</time>
      </trkpt>
      <trkpt lat="47.79722" lon="-3.52726">
        <ele>11</ele>
        <time>2020-07-10T09:04:49Z</time>
      </trkpt>
      <trkpt lat="47.79723" lon="-3.52721">
        <ele>10.68</ele>
        <time>2020-07-10T09:04:50Z</time>
      </trkpt>
      <trkpt lat="47.79725" lon="-3.52715">
        <ele>10.22</ele>
        <time>2020-07-10T09:04:51Z</time>
      </trkpt>
      <trkpt lat="47.79727" lon="-3.52708">
        <ele>9.78</ele>
        <time>2020-07-10T09:04:52Z</time>
      </trkpt>
      <trkpt lat="47.79729" lon="-3.52702">
        <ele>9.53</ele>
        <time>2020-07-10T09:04:53Z</time>
      </trkpt>
      <trkpt lat="47.79731" lon="-3.52694">
        <ele>9.06</ele>
        <time>2020-07-10T09:04:54Z</time>
      </trkpt>
      <trkpt lat="47.79733" lon="-3.52687">
        <ele>8.72</ele>
        <time>2020-07-10T09:04:55Z</time>
      </trkpt>
      <trkpt lat="47.79734" lon="-3.52679">
        <ele>8.24</ele>
        <time>2020-07-10T09:04:56Z</time>
      </trkpt>
      <trkpt lat="47.79735" lon="-3.52673">
        <ele>7.67</ele>
        <time>2020-07-10T09:04:57Z</time>
      </trkpt>
      <trkpt lat="47.79737" lon="-3.52668">
        <ele>7.39</ele>
        <time>2020-07-10T09:04:58Z</time>
      </trkpt>
      <trkpt lat="47.79739" lon="-3.52663">
        <ele>7.31</ele>
        <time>2020-07-10T09:04:59Z</time>
      </trkpt>
      <trkpt lat="47.7974" lon="-3.52659">
        <ele>7.23</ele>
        <time>2020-07-10T09:05:00Z</time>
      </trkpt>
      <trkpt lat="47.79741" lon="-3.52653">
        <ele>7.15</ele>
        <time>2020-07-10T09:05:01Z</time>
      </trkpt>
      <trkpt lat="47.79743" lon="-3.52648">
        <ele>7.08</ele>
        <time>2020-07-10T09:05:02Z</time>
      </trkpt>
      <trkpt lat="47.79746" lon="-3.52641">
        <ele>7.01</ele>
        <time>2020-07-10T09:05:03Z</time>
      </trkpt>
      <trkpt lat="47.79748" lon="-3.52634">
        <ele>7.04</ele>
        <time>2020-07-10T09:05:04Z</time>
      </trkpt>
      <trkpt lat="47.7975" lon="-3.52627">
        <ele>7.12</ele>
        <time>2020-07-10T09:05:05Z</time>
      </trkpt>
      <trkpt lat="47.79751" lon="-3.5262">
        <ele>7.16</ele>
        <time>2020-07-10T09:05:06Z</time>
      </trkpt>
      <trkpt lat="47.79751" lon="-3.52612">
        <ele>6.64</ele>
        <time>2020-07-10T09:05:07Z</time>
      </trkpt>
      <trkpt lat="47.79748" lon="-3.52602">
        <ele>5.51</ele>
        <time>2020-07-10T09:05:08Z</time>
      </trkpt>
      <trkpt lat="47.79748" lon="-3.52593">
        <ele>4.62</ele>
        <time>2020-07-10T09:05:09Z</time>
      </trkpt>
      <trkpt lat="47.79747" lon="-3.52583">
        <ele>3.86</ele>
        <time>2020-07-10T09:05:10Z</time>
      </trkpt>
      <trkpt lat="47.79748" lon="-3.52574">
        <ele>3.24</ele>
        <time>2020-07-10T09:05:11Z</time>
      </trkpt>
      <trkpt lat="47.79749" lon="-3.52564">
        <ele>2.78</ele>
        <time>2020-07-10T09:05:12Z</time>
      </trkpt>
      <trkpt lat="47.79751" lon="-3.52555">
        <ele>2.66</ele>
        <time>2020-07-10T09:05:13Z</time>
      </trkpt>
      <trkpt lat="47.79754" lon="-3.52545">
        <ele>2.85</ele>
        <time>2020-07-10T09:05:14Z</time>
      </trkpt>
      <trkpt lat="47.79757" lon="-3.52537">
        <ele>3.14</ele>
        <time>2020-07-10T09:05:15Z</time>
      </trkpt>
      <trkpt lat="47.79759" lon="-3.52529">
        <ele>3.34</ele>
        <time>2020-07-10T09:05:16Z</time>
      </trkpt>
      <trkpt lat="47.79762" lon="-3.52523">
        <ele>3.83</ele>
        <time>2020-07-10T09:05:17Z</time>
      </trkpt>
      <trkpt lat="47.79764" lon="-3.52516">
        <ele>4.42</ele>
        <time>2020-07-10T09:05:18Z</time>
      </trkpt>
      <trkpt lat="47.79767" lon="-3.52509">
        <ele>5.06</ele>
        <time>2020-07-10T09:05:19Z</time>
      </trkpt>
      <trkpt lat="47.79769" lon="-3.52501">
        <ele>5.4</ele>
        <time>2020-07-10T09:05:20Z</time>
      </trkpt>
      <trkpt lat="47.79771" lon="-3.52494">
        <ele>5.58</ele>
        <time>2020-07-10T09:05:21Z</time>
      </trkpt>
      <trkpt lat="47.79774" lon="-3.52487">
        <ele>5.63</ele>
        <time>2020-07-10T09:05:22Z</time>
      </trkpt>
      <trkpt lat="47.79776" lon="-3.52481">
        <ele>5.54</ele>
        <time>2020-07-10T09:05:23Z</time>
      </trkpt>
      <trkpt lat="47.79778" lon="-3.52475">
        <ele>5.33</ele>
        <time>2020-07-10T09:05:24Z</time>
      </trkpt>
      <trkpt lat="47.79779" lon="-3.5247">
        <ele>5.25</ele>
        <time>2020-07-10T09:05:25Z</time>
      </trkpt>
      <trkpt lat="47.7978" lon="-3.52465">
        <ele>5.28</ele>
        <time>2020-07-10T09:05:26Z</time>
      </trkpt>
      <trkpt lat="47.79781" lon="-3.52461">
        <ele>5.42</ele>
        <time>2020-07-10T09:05:27Z</time>
      </trkpt>
      <trkpt lat="47.79782" lon="-3.52456">
        <ele>5.54</ele>
        <time>2020-07-10T09:05:28Z</time>
      </trkpt>
      <trkpt lat="47.79784" lon="-3.52452">
        <ele>5.82</ele>
        <time>2020-07-10T09:05:29Z</time>
      </trkpt>
      <trkpt lat="47.79785" lon="-3.52448">
        <ele>6.03</ele>
        <time>2020-07-10T09:05:30Z</time>
      </trkpt>
      <trkpt lat="47.79787" lon="-3.52444">
        <ele>6.22</ele>
        <time>2020-07-10T09:05:31Z</time>
      </trkpt>
      <trkpt lat="47.79788" lon="-3.5244">
        <ele>6.43</ele>
        <time>2020-07-10T09:05:32Z</time>
      </trkpt>
      <trkpt lat="47.79789" lon="-3.52436">
        <ele>6.69</ele>
        <time>2020-07-10T09:05:33Z</time>
      </trkpt>
      <trkpt lat="47.79791" lon="-3.52432">
        <ele>7</ele>
        <time>2020-07-10T09:05:34Z</time>
      </trkpt>
      <trkpt lat="47.79792" lon="-3.52429">
        <ele>7.43</ele>
        <time>2020-07-10T09:05:35Z</time>
      </trkpt>
      <trkpt lat="47.79794" lon="-3.52426">
        <ele>7.86</ele>
        <time>2020-07-10T09:05:36Z</time>
      </trkpt>
      <trkpt lat="47.79795" lon="-3.52422">
        <ele>8.19</ele>
        <time>2020-07-10T09:05:37Z</time>
      </trkpt>
      <trkpt lat="47.79796" lon="-3.52418">
        <ele>8.57</ele>
        <time>2020-07-10T09:05:38Z</time>
      </trkpt>
      <trkpt lat="47.79798" lon="-3.52413">
        <ele>8.96</ele>
        <time>2020-07-10T09:05:39Z</time>
      </trkpt>
      <trkpt lat="47.79799" lon="-3.52409">
        <ele>9.3</ele>
        <time>2020-07-10T09:05:40Z</time>
      </trkpt>
      <trkpt lat="47.79799" lon="-3.52404">
        <ele>9.46</ele>
        <time>2020-07-10T09:05:41Z</time>
      </trkpt>
      <trkpt lat="47.79799" lon="-3.52398">
        <ele>9.48</ele>
        <time>2020-07-10T09:05:42Z</time>
      </trkpt>
      <trkpt lat="47.79799" lon="-3.52393">
        <ele>9.5</ele>
        <time>2020-07-10T09:05:43Z</time>
      </trkpt>
      <trkpt lat="47.798" lon="-3.52389">
        <ele>9.62</ele>
        <time>2020-07-10T09:05:44Z</time>
      </trkpt>
      <trkpt lat="47.798" lon="-3.52386">
        <ele>9.71</ele>
        <time>2020-07-10T09:05:45Z</time>
      </trkpt>
      <trkpt lat="47.79801" lon="-3.52383">
        <ele>9.95</ele>
        <time>2020-07-10T09:05:46Z</time>
      </trkpt>
      <trkpt lat="47.79802" lon="-3.52381">
        <ele>10.29</ele>
        <time>2020-07-10T09:05:47Z</time>
      </trkpt>
      <trkpt lat="47.79804" lon="-3.52378">
        <ele>10.63</ele>
        <time>2020-07-10T09:05:48Z</time>
      </trkpt>
      <trkpt lat="47.79805" lon="-3.52374">
        <ele>11.01</ele>
        <time>2020-07-10T09:05:49Z</time>
      </trkpt>
      <trkpt lat="47.79807" lon="-3.5237">
        <ele>11.35</ele>
        <time>2020-07-10T09:05:50Z</time>
      </trkpt>
      <trkpt lat="47.79808" lon="-3.52366">
        <ele>11.57</ele>
        <time>2020-07-10T09:05:51Z</time>
      </trkpt>
      <trkpt lat="47.7981" lon="-3.52361">
        <ele>11.78</ele>
        <time>2020-07-10T09:05:52Z</time>
      </trkpt>
      <trkpt lat="47.79813" lon="-3.52357">
        <ele>11.91</ele>
        <time>2020-07-10T09:05:53Z</time>
      </trkpt>
      <trkpt lat="47.79814" lon="-3.52352">
        <ele>12.02</ele>
        <time>2020-07-10T09:05:54Z</time>
      </trkpt>
      <trkpt lat="47.79817" lon="-3.52347">
        <ele>12.15</ele>
        <time>2020-07-10T09:05:55Z</time>
      </trkpt>
      <trkpt lat="47.7982" lon="-3.52343">
        <ele>12.44</ele>
        <time>2020-07-10T09:05:56Z</time>
      </trkpt>
      <trkpt lat="47.79822" lon="-3.52339">
        <ele>12.76</ele>
        <time>2020-07-10T09:05:57Z</time>
      </trkpt>
      <trkpt lat="47.79825" lon="-3.52335">
        <ele>13.15</ele>
        <time>2020-07-10T09:05:58Z</time>
      </trkpt>
      <trkpt lat="47.79828" lon="-3.52331">
        <ele>13.47</ele>
        <time>2020-07-10T09:05:59Z</time>
      </trkpt>
      <trkpt lat="47.7983" lon="-3.52328">
        <ele>13.79</ele>
        <time>2020-07-10T09:06:00Z</time>
      </trkpt>
      <trkpt lat="47.79833" lon="-3.52325">
        <ele>14.18</ele>
        <time>2020-07-10T09:06:01Z</time>
      </trkpt>
      <trkpt lat="47.79836" lon="-3.52323">
        <ele>14.38</ele>
        <time>2020-07-10T09:06:02Z</time>
      </trkpt>
      <trkpt lat="47.79838" lon="-3.5232">
        <ele>14.45</ele>
        <time>2020-07-10T09:06:03Z</time>
      </trkpt>
      <trkpt lat="47.79841" lon="-3.52316">
        <ele>14.41</ele>
        <time>2020-07-10T09:06:04Z</time>
      </trkpt>
      <trkpt lat="47.79843" lon="-3.52312">
        <ele>14.25</ele>
        <time>2020-07-10T09:06:05Z</time>
      </trkpt>
      <trkpt lat="47.79843" lon="-3.52306">
        <ele>13.85</ele>
        <time>2020-07-10T09:06:06Z</time>
      </trkpt>
      <trkpt lat="47.79841" lon="-3.52302">
        <ele>13.26</ele>
        <time>2020-07-10T09:06:07Z</time>
      </trkpt>
      <trkpt lat="47.79839" lon="-3.52301">
        <ele>12.79</ele>
        <time>2020-07-10T09:06:08Z</time>
      </trkpt>
      <trkpt lat="47.79836" lon="-3.52301">
        <ele>12.44</ele>
        <time>2020-07-10T09:06:09Z</time>
      </trkpt>
      <trkpt lat="47.79832" lon="-3.52301">
        <ele>11.97</ele>
        <time>2020-07-10T09:06:10Z</time>
      </trkpt>
      <trkpt lat="47.79828" lon="-3.52302">
        <ele>11.13</ele>
        <time>2020-07-10T09:06:11Z</time>
      </trkpt>
      <trkpt lat="47.79824" lon="-3.52303">
        <ele>10.15</ele>
        <time>2020-07-10T09:06:12Z</time>
      </trkpt>
      <trkpt lat="47.7982" lon="-3.52304">
        <ele>9.15</ele>
        <time>2020-07-10T09:06:13Z</time>
      </trkpt>
      <trkpt lat="47.79816" lon="-3.52304">
        <ele>8.12</ele>
        <time>2020-07-10T09:06:14Z</time>
      </trkpt>
      <trkpt lat="47.79812" lon="-3.52305">
        <ele>7.11</ele>
        <time>2020-07-10T09:06:15Z</time>
      </trkpt>
      <trkpt lat="47.79808" lon="-3.52306">
        <ele>6.13</ele>
        <time>2020-07-10T09:06:16Z</time>
      </trkpt>
      <trkpt lat="47.79804" lon="-3.52308">
        <ele>5.34</ele>
        <time>2020-07-10T09:06:17Z</time>
      </trkpt>
      <trkpt lat="47.798" lon="-3.52309">
        <ele>4.74</ele>
        <time>2020-07-10T09:06:18Z</time>
      </trkpt>
      <trkpt lat="47.79795" lon="-3.52311">
        <ele>4.18</ele>
        <time>2020-07-10T09:06:19Z</time>
      </trkpt>
      <trkpt lat="47.79791" lon="-3.52312">
        <ele>3.69</ele>
        <time>2020-07-10T09:06:20Z</time>
      </trkpt>
      <trkpt lat="47.79787" lon="-3.52314">
        <ele>3.24</ele>
        <time>2020-07-10T09:06:21Z</time>
      </trkpt>
      <trkpt lat="47.79782" lon="-3.52316">
        <ele>2.8</ele>
        <time>2020-07-10T09:06:22Z</time>
      </trkpt>
      <trkpt lat="47.79778" lon="-3.52317">
        <ele>2.35</ele>
        <time>2020-07-10T09:06:23Z</time>
      </trkpt>
      <trkpt lat="47.79775" lon="-3.52318">
        <ele>2.32</ele>
        <time>2020-07-10T09:06:24Z</time>
      </trkpt>
      <trkpt lat="47.79772" lon="-3.5232">
        <ele>2.55</ele>
        <time>2020-07-10T09:06:25Z</time>
      </trkpt>
      <trkpt lat="47.79768" lon="-3.52321">
        <ele>2.83</ele>
        <time>2020-07-10T09:06:26Z</time>
      </trkpt>
      <trkpt lat="47.79764" lon="-3.52322">
        <ele>3.15</ele>
        <time>2020-07-10T09:06:27Z</time>
      </trkpt>
      <trkpt lat="47.7976" lon="-3.52324">
        <ele>3.55</ele>
        <time>2020-07-10T09:06:28Z</time>
      </trkpt>
      <trkpt lat="47.79756" lon="-3.52325">
        <ele>3.97</ele>
        <time>2020-07-10T09:06:29Z</time>
      </trkpt>
      <trkpt lat="47.79752" lon="-3.52327">
        <ele>4.46</ele>
        <time>2020-07-10T09:06:30Z</time>
      </trkpt>
      <trkpt lat="47.79747" lon="-3.52329">
        <ele>4.71</ele>
        <time>2020-07-10T09:06:31Z</time>
      </trkpt>
      <trkpt lat="47.79743" lon="-3.52331">
        <ele>4.87</ele>
        <time>2020-07-10T09:06:32Z</time>
      </trkpt>
      <trkpt lat="47.79739" lon="-3.52332">
        <ele>4.92</ele>
        <time>2020-07-10T09:06:33Z</time>
      </trkpt>
      <trkpt lat="47.79734" lon="-3.52334">
        <ele>4.88</ele>
        <time>2020-07-10T09:06:34Z</time>
      </trkpt>
      <trkpt lat="47.7973" lon="-3.52335">
        <ele>4.63</ele>
        <time>2020-07-10T09:06:35Z</time>
      </trkpt>
      <trkpt lat="47.79726" lon="-3.52336">
        <ele>4.38</ele>
        <time>2020-07-10T09:06:36Z</time>
      </trkpt>
      <trkpt lat="47.79721" lon="-3.52338">
        <ele>4.21</ele>
        <time>2020-07-10T09:06:37Z</time>
      </trkpt>
      <trkpt lat="47.79716" lon="-3.5234">
        <ele>4.11</ele>
        <time>2020-07-10T09:06:38Z</time>
      </trkpt>
      <trkpt lat="47.79712" lon="-3.52342">
        <ele>4.06</ele>
        <time>2020-07-10T09:06:39Z</time>
      </trkpt>
      <trkpt lat="47.79707" lon="-3.52344">
        <ele>4.04</ele>
        <time>2020-07-10T09:06:40Z</time>
      </trkpt>
      <trkpt lat="47.79703" lon="-3.52346">
        <ele>4.05</ele>
        <time>2020-07-10T09:06:41Z</time>
      </trkpt>
      <trkpt lat="47.79698" lon="-3.52347">
        <ele>4.07</ele>
        <time>2020-07-10T09:06:42Z</time>
      </trkpt>
      <trkpt lat="47.79693" lon="-3.52349">
        <ele>4.02</ele>
        <time>2020-07-10T09:06:43Z</time>
      </trkpt>
      <trkpt lat="47.79688" lon="-3.52351">
        <ele>3.79</ele>
        <time>2020-07-10T09:06:44Z</time>
      </trkpt>
      <trkpt lat="47.79683" lon="-3.52353">
        <ele>3.54</ele>
        <time>2020-07-10T09:06:45Z</time>
      </trkpt>
      <trkpt lat="47.79678" lon="-3.52354">
        <ele>3.28</ele>
        <time>2020-07-10T09:06:46Z</time>
      </trkpt>
      <trkpt lat="47.79673" lon="-3.52356">
        <ele>3.05</ele>
        <time>2020-07-10T09:06:47Z</time>
      </trkpt>
      <trkpt lat="47.79667" lon="-3.52358">
        <ele>2.85</ele>
        <time>2020-07-10T09:06:48Z</time>
      </trkpt>
      <trkpt lat="47.79663" lon="-3.5236">
        <ele>3.3</ele>
        <time>2020-07-10T09:06:49Z</time>
      </trkpt>
      <trkpt lat="47.79658" lon="-3.52362">
        <ele>4</ele>
        <time>2020-07-10T09:06:50Z</time>
      </trkpt>
      <trkpt lat="47.79653" lon="-3.52363">
        <ele>4.76</ele>
        <time>2020-07-10T09:06:51Z</time>
      </trkpt>
      <trkpt lat="47.79649" lon="-3.52365">
        <ele>5.58</ele>
        <time>2020-07-10T09:06:52Z</time>
      </trkpt>
      <trkpt lat="47.79644" lon="-3.52367">
        <ele>6.49</ele>
        <time>2020-07-10T09:06:53Z</time>
      </trkpt>
      <trkpt lat="47.7964" lon="-3.52368">
        <ele>7.5</ele>
        <time>2020-07-10T09:06:54Z</time>
      </trkpt>
      <trkpt lat="47.79635" lon="-3.5237">
        <ele>8.85</ele>
        <time>2020-07-10T09:06:55Z</time>
      </trkpt>
      <trkpt lat="47.7963" lon="-3.52372">
        <ele>10.27</ele>
        <time>2020-07-10T09:06:56Z</time>
      </trkpt>
      <trkpt lat="47.79625" lon="-3.52374">
        <ele>11.62</ele>
        <time>2020-07-10T09:06:57Z</time>
      </trkpt>
      <trkpt lat="47.7962" lon="-3.52376">
        <ele>12.9</ele>
        <time>2020-07-10T09:06:58Z</time>
      </trkpt>
      <trkpt lat="47.79615" lon="-3.52378">
        <ele>14.08</ele>
        <time>2020-07-10T09:06:59Z</time>
      </trkpt>
      <trkpt lat="47.7961" lon="-3.5238">
        <ele>15.09</ele>
        <time>2020-07-10T09:07:00Z</time>
      </trkpt>
      <trkpt lat="47.79605" lon="-3.52382">
        <ele>15.84</ele>
        <time>2020-07-10T09:07:01Z</time>
      </trkpt>
      <trkpt lat="47.796" lon="-3.52384">
        <ele>16.42</ele>
        <time>2020-07-10T09:07:02Z</time>
      </trkpt>
      <trkpt lat="47.79595" lon="-3.52386">
        <ele>16.91</ele>
        <time>2020-07-10T09:07:03Z</time>
      </trkpt>
      <trkpt lat="47.79591" lon="-3.52387">
        <ele>17.29</ele>
        <time>2020-07-10T09:07:04Z</time>
      </trkpt>
      <trkpt lat="47.79586" lon="-3.52389">
        <ele>17.58</ele>
        <time>2020-07-10T09:07:05Z</time>
      </trkpt>
      <trkpt lat="47.79581" lon="-3.52391">
        <ele>17.96</ele>
        <time>2020-07-10T09:07:06Z</time>
      </trkpt>
      <trkpt lat="47.79578" lon="-3.52393">
        <ele>18.28</ele>
        <time>2020-07-10T09:07:07Z</time>
      </trkpt>
      <trkpt lat="47.79574" lon="-3.52395">
        <ele>18.55</ele>
        <time>2020-07-10T09:07:08Z</time>
      </trkpt>
      <trkpt lat="47.79571" lon="-3.52397">
        <ele>18.67</ele>
        <time>2020-07-10T09:07:09Z</time>
      </trkpt>
      <trkpt lat="47.7957" lon="-3.52399">
        <ele>18.71</ele>
        <time>2020-07-10T09:07:10Z</time>
      </trkpt>
      <trkpt lat="47.79569" lon="-3.52399">
        <ele>18.73</ele>
        <time>2020-07-10T09:07:11Z</time>
      </trkpt>
      <trkpt lat="47.79569" lon="-3.52399">
        <ele>18.72</ele>
        <time>2020-07-10T09:07:12Z</time>
      </trkpt>
      <trkpt lat="47.79569" lon="-3.524">
        <ele>18.7</ele>
        <time>2020-07-10T09:07:13Z</time>
      </trkpt>
      <trkpt lat="47.79569" lon="-3.524">
        <ele>18.69</ele>
        <time>2020-07-10T09:07:14Z</time>
      </trkpt>
      <trkpt lat="47.79569" lon="-3.524">
        <ele>18.69</ele>
        <time>2020-07-10T09:07:15Z</time>
      </trkpt>
      <trkpt lat="47.79569" lon="-3.524">
        <ele>18.69</ele>
        <time>2020-07-10T09:07:16Z</time>
      </trkpt>
      <trkpt lat="47.79569" lon="-3.524">
        <ele>18.69</ele>
        <time>2020-07-10T09:07:17Z</time>
      </trkpt>
      <trkpt lat="47.79569" lon="-3.524">
        <ele>18.69</ele>
        <time>2020-07-10T09:07:18Z</time>
      </trkpt>
      <trkpt lat="47.79569" lon="-3.524">
        <ele>18.69</ele>
        <time>2020-07-10T09:07:19Z</time>
      </trkpt>
      <trkpt lat="47.79569" lon="-3.524">
        <ele>18.69</ele>
        <time>2020-07-10T09:07:20Z</time>
      </trkpt>
      <trkpt lat="47.79569" lon="-3.524">
        <ele>18.69</ele>
        <time>2020-07-10T09:07:21Z</time>
      </trkpt>
      <trkpt lat="47.79569" lon="-3.524">
        <ele>18.69</ele>
        <time>2020-07-10T09:07:22Z</time>
      </trkpt>
      <trkpt lat="47.79569" lon="-3.524">
        <ele>18.69</ele>
        <time>2020-07-10T09:07:23Z</time>
      </trkpt>
      <trkpt lat="47.79569" lon="-3.524">
        <ele>18.69</ele>
        <time>2020-07-10T09:07:24Z</time>
      </trkpt>
      <trkpt lat="47.79569" lon="-3.524">
        <ele>18.69</ele>
        <time>2020-07-10T09:07:25Z</time>
      </trkpt>
      <trkpt lat="47.79569" lon="-3.524">
        <ele>18.69</ele>
        <time>2020-07-10T09:07:26Z</time>
      </trkpt>
      <trkpt lat="47.79569" lon="-3.524">
        <ele>18.69</ele>
        <time>2020-07-10T09:07:27Z</time>
      </trkpt>
      <trkpt lat="47.79569" lon="-3.524">
        <ele>18.69</ele>
        <time>2020-07-10T09:07:28Z</time>
      </trkpt>
      <trkpt lat="47.79569" lon="-3.524">
        <ele>18.69</ele>
        <time>2020-07-10T09:07:29Z</time>
      </trkpt>
      <trkpt lat="47.79569" lon="-3.524">
        <ele>18.69</ele>
        <time>2020-07-10T09:07:30Z</time>
      </trkpt>
      <trkpt lat="47.79569" lon="-3.524">
        <ele>18.69</ele>
        <time>2020-07-10T09:07:31Z</time>
      </trkpt>
      <trkpt lat="47.79569" lon="-3.524">
        <ele>18.69</ele>
        <time>2020-07-10T09:07:32Z</time>
      </trkpt>
      <trkpt lat="47.79569" lon="-3.524">
        <ele>18.69</ele>
        <time>2020-07-10T09:07:33Z</time>
      </trkpt>
      <trkpt lat="47.79569" lon="-3.524">
        <ele>18.69</ele>
        <time>2020-07-10T09:07:34Z</time>
      </trkpt>
      <trkpt lat="47.79569" lon="-3.524">
        <ele>18.69</ele>
        <time>2020-07-10T09:07:35Z</time>
      </trkpt>
      <trkpt lat="47.79569" lon="-3.524">
        <ele>18.69</ele>
        <time>2020-07-10T09:07:36Z</time>
      </trkpt>
      <trkpt lat="47.79569" lon="-3.524">
        <ele>18.69</ele>
        <time>2020-07-10T09:07:37Z</time>
      </trkpt>
      <trkpt lat="47.79569" lon="-3.524">
        <ele>18.69</ele>
        <time>2020-07-10T09:07:38Z</time>
      </trkpt>
      <trkpt lat="47.79569" lon="-3.524">
        <ele>18.69</ele>
        <time>2020-07-10T09:07:39Z</time>
      </trkpt>
      <trkpt lat="47.79569" lon="-3.524">
        <ele>18.69</ele>
        <time>2020-07-10T09:07:40Z</time>
      </trkpt>
      <trkpt lat="47.79569" lon="-3.524">
        <ele>18.69</ele>
        <time>2020-07-10T09:07:41Z</time>
      </trkpt>
      <trkpt lat="47.79569" lon="-3.524">
        <ele>18.69</ele>
        <time>2020-07-10T09:07:42Z</time>
      </trkpt>
      <trkpt lat="47.79569" lon="-3.524">
        <ele>18.69</ele>
        <time>2020-07-10T09:07:43Z</time>
      </trkpt>
      <trkpt lat="47.79569" lon="-3.524">
        <ele>18.69</ele>
        <time>2020-07-10T09:07:44Z</time>
      </trkpt>
      <trkpt lat="47.79569" lon="-3.524">
        <ele>18.69</ele>
        <time>2020-07-10T09:07:45Z</time>
      </trkpt>
      <trkpt lat="47.79567" lon="-3.52402">
        <ele>18.59</ele>
        <time>2020-07-10T09:07:46Z</time>
      </trkpt>
      <trkpt lat="47.79566" lon="-3.52402">
        <ele>18.62</ele>
        <time>2020-07-10T09:07:47Z</time>
      </trkpt>
      <trkpt lat="47.79564" lon="-3.52402">
        <ele>18.78</ele>
        <time>2020-07-10T09:07:48Z</time>
      </trkpt>
      <trkpt lat="47.79562" lon="-3.52402">
        <ele>18.98</ele>
        <time>2020-07-10T09:07:49Z</time>
      </trkpt>
      <trkpt lat="47.7956" lon="-3.52402">
        <ele>19.19</ele>
        <time>2020-07-10T09:07:50Z</time>
      </trkpt>
      <trkpt lat="47.79557" lon="-3.52402">
        <ele>19.37</ele>
        <time>2020-07-10T09:07:51Z</time>
      </trkpt>
      <trkpt lat="47.79555" lon="-3.52403">
        <ele>19.56</ele>
        <time>2020-07-10T09:07:52Z</time>
      </trkpt>
      <trkpt lat="47.79552" lon="-3.52403">
        <ele>19.72</ele>
        <time>2020-07-10T09:07:53Z</time>
      </trkpt>
      <trkpt lat="47.79549" lon="-3.52404">
        <ele>19.79</ele>
        <time>2020-07-10T09:07:54Z</time>
      </trkpt>
      <trkpt lat="47.79546" lon="-3.52406">
        <ele>19.86</ele>
        <time>2020-07-10T09:07:55Z</time>
      </trkpt>
      <trkpt lat="47.79543" lon="-3.52407">
        <ele>19.98</ele>
        <time>2020-07-10T09:07:56Z</time>
      </trkpt>
      <trkpt lat="47.79539" lon="-3.52407">
        <ele>20.13</ele>
        <time>2020-07-10T09:07:57Z</time>
      </trkpt>
      <trkpt lat="47.79536" lon="-3.52408">
        <ele>20.31</ele>
        <time>2020-07-10T09:07:58Z</time>
      </trkpt>
      <trkpt lat="47.79533" lon="-3.52409">
        <ele>20.48</ele>
        <time>2020-07-10T09:07:59Z</time>
      </trkpt>
      <trkpt lat="47.7953" lon="-3.5241">
        <ele>20.64</ele>
        <time>2020-07-10T09:08:00Z</time>
      </trkpt>
      <trkpt lat="47.79526" lon="-3.52412">
        <ele>20.84</ele>
        <time>2020-07-10T09:08:01Z</time>
      </trkpt>
      <trkpt lat="47.79523" lon="-3.52413">
        <ele>21.15</ele>
        <time>2020-07-10T09:08:02Z</time>
      </trkpt>
      <trkpt lat="47.79519" lon="-3.52414">
        <ele>21.5</ele>
        <time>2020-07-10T09:08:03Z</time>
      </trkpt>
      <trkpt lat="47.79515" lon="-3.52415">
        <ele>21.86</ele>
        <time>2020-07-10T09:08:04Z</time>
      </trkpt>
      <trkpt lat="47.79512" lon="-3.52417">
        <ele>22.16</ele>
        <time>2020-07-10T09:08:05Z</time>
      </trkpt>
      <trkpt lat="47.79509" lon="-3.52419">
        <ele>22.48</ele>
        <time>2020-07-10T09:08:06Z</time>
      </trkpt>
      <trkpt lat="47.79505" lon="-3.5242">
        <ele>22.82</ele>
        <time>2020-07-10T09:08:07Z</time>
      </trkpt>
      <trkpt lat="47.79502" lon="-3.52422">
        <ele>23.13</ele>
        <time>2020-07-10T09:08:08Z</time>
      </trkpt>
      <trkpt lat="47.79498" lon="-3.52423">
        <ele>23.34</ele>
        <time>2020-07-10T09:08:09Z</time>
      </trkpt>
      <trkpt lat="47.79495" lon="-3.52425">
        <ele>23.46</ele>
        <time>2020-07-10T09:08:10Z</time>
      </trkpt>
      <trkpt lat="47.79491" lon="-3.52426">
        <ele>23.58</ele>
        <time>2020-07-10T09:08:11Z</time>
      </trkpt>
      <trkpt lat="47.79488" lon="-3.52426">
        <ele>23.74</ele>
        <time>2020-07-10T09:08:12Z</time>
      </trkpt>
      <trkpt lat="47.79485" lon="-3.52427">
        <ele>23.92</ele>
        <time>2020-07-10T09:08:13Z</time>
      </trkpt>
      <trkpt lat="47.79481" lon="-3.52428">
        <ele>24.1</ele>
        <time>2020-07-10T09:08:14Z</time>
      </trkpt>
      <trkpt lat="47.79477" lon="-3.52428">
        <ele>24.3</ele>
        <time>2020-07-10T09:08:15Z</time>
      </trkpt>
      <trkpt lat="47.79473" lon="-3.52429">
        <ele>24.55</ele>
        <time>2020-07-10T09:08:16Z</time>
      </trkpt>
      <trkpt lat="47.7947" lon="-3.52429">
        <ele>24.79</ele>
        <time>2020-07-10T09:08:17Z</time>
      </trkpt>
      <trkpt lat="47.79466" lon="-3.5243">
        <ele>25.02</ele>
        <time>2020-07-10T09:08:18Z</time>
      </trkpt>
      <trkpt lat="47.79463" lon="-3.5243">
        <ele>25.28</ele>
        <time>2020-07-10T09:08:19Z</time>
      </trkpt>
      <trkpt lat="47.7946" lon="-3.5243">
        <ele>25.53</ele>
        <time>2020-07-10T09:08:20Z</time>
      </trkpt>
      <trkpt lat="47.79457" lon="-3.5243">
        <ele>25.78</ele>
        <time>2020-07-10T09:08:21Z</time>
      </trkpt>
      <trkpt lat="47.79454" lon="-3.52431">
        <ele>26.02</ele>
        <time>2020-07-10T09:08:22Z</time>
      </trkpt>
      <trkpt lat="47.79451" lon="-3.52432">
        <ele>26.23</ele>
        <time>2020-07-10T09:08:23Z</time>
      </trkpt>
      <trkpt lat="47.79448" lon="-3.52432">
        <ele>26.46</ele>
        <time>2020-07-10T09:08:24Z</time>
      </trkpt>
      <trkpt lat="47.79445" lon="-3.52433">
        <ele>26.72</ele>
        <time>2020-07-10T09:08:25Z</time>
      </trkpt>
      <trkpt lat="47.79441" lon="-3.52433">
        <ele>26.99</ele>
        <time>2020-07-10T09:08:26Z</time>
      </trkpt>
      <trkpt lat="47.79438" lon="-3.52432">
        <ele>27.31</ele>
        <time>2020-07-10T09:08:27Z</time>
      </trkpt>
      <trkpt lat="47.79434" lon="-3.52432">
        <ele>27.66</ele>
        <time>2020-07-10T09:08:28Z</time>
      </trkpt>
      <trkpt lat="47.79431" lon="-3.52431">
        <ele>27.99</ele>
        <time>2020-07-10T09:08:29Z</time>
      </trkpt>
      <trkpt lat="47.79427" lon="-3.52432">
        <ele>28.3</ele>
        <time>2020-07-10T09:08:30Z</time>
      </trkpt>
      <trkpt lat="47.79424" lon="-3.52432">
        <ele>28.62</ele>
        <time>2020-07-10T09:08:31Z</time>
      </trkpt>
      <trkpt lat="47.7942" lon="-3.52432">
        <ele>28.94</ele>
        <time>2020-07-10T09:08:32Z</time>
      </trkpt>
      <trkpt lat="47.79416" lon="-3.52432">
        <ele>29.27</ele>
        <time>2020-07-10T09:08:33Z</time>
      </trkpt>
      <trkpt lat="47.79413" lon="-3.52431">
        <ele>29.48</ele>
        <time>2020-07-10T09:08:34Z</time>
      </trkpt>
      <trkpt lat="47.79408" lon="-3.52431">
        <ele>29.69</ele>
        <time>2020-07-10T09:08:35Z</time>
      </trkpt>
      <trkpt lat="47.79404" lon="-3.5243">
        <ele>29.95</ele>
        <time>2020-07-10T09:08:36Z</time>
      </trkpt>
      <trkpt lat="47.79399" lon="-3.52429">
        <ele>30.18</ele>
        <time>2020-07-10T09:08:37Z</time>
      </trkpt>
      <trkpt lat="47.79395" lon="-3.52429">
        <ele>30.41</ele>
        <time>2020-07-10T09:08:38Z</time>
      </trkpt>
      <trkpt lat="47.7939" lon="-3.52428">
        <ele>30.64</ele>
        <time>2020-07-10T09:08:39Z</time>
      </trkpt>
      <trkpt lat="47.79385" lon="-3.52427">
        <ele>31.04</ele>
        <time>2020-07-10T09:08:40Z</time>
      </trkpt>
      <trkpt lat="47.79381" lon="-3.52426">
        <ele>31.45</ele>
        <time>2020-07-10T09:08:41Z</time>
      </trkpt>
      <trkpt lat="47.79377" lon="-3.52426">
        <ele>31.86</ele>
        <time>2020-07-10T09:08:42Z</time>
      </trkpt>
      <trkpt lat="47.79372" lon="-3.52425">
        <ele>32.31</ele>
        <time>2020-07-10T09:08:43Z</time>
      </trkpt>
      <trkpt lat="47.79367" lon="-3.52424">
        <ele>32.87</ele>
        <time>2020-07-10T09:08:44Z</time>
      </trkpt>
      <trkpt lat="47.79363" lon="-3.52423">
        <ele>33.46</ele>
        <time>2020-07-10T09:08:45Z</time>
      </trkpt>
      <trkpt lat="47.79359" lon="-3.52421">
        <ele>33.84</ele>
        <time>2020-07-10T09:08:46Z</time>
      </trkpt>
      <trkpt lat="47.79355" lon="-3.5242">
        <ele>33.84</ele>
        <time>2020-07-10T09:08:47Z</time>
      </trkpt>
      <trkpt lat="47.79351" lon="-3.52418">
        <ele>33.72</ele>
        <time>2020-07-10T09:08:48Z</time>
      </trkpt>
      <trkpt lat="47.79347" lon="-3.52416">
        <ele>33.53</ele>
        <time>2020-07-10T09:08:49Z</time>
      </trkpt>
      <trkpt lat="47.79343" lon="-3.52415">
        <ele>33.52</ele>
        <time>2020-07-10T09:08:50Z</time>
      </trkpt>
      <trkpt lat="47.79339" lon="-3.52413">
        <ele>33.51</ele>
        <time>2020-07-10T09:08:51Z</time>
      </trkpt>
      <trkpt lat="47.79335" lon="-3.52411">
        <ele>33.49</ele>
        <time>2020-07-10T09:08:52Z</time>
      </trkpt>
      <trkpt lat="47.79331" lon="-3.52409">
        <ele>33.7</ele>
        <time>2020-07-10T09:08:53Z</time>
      </trkpt>
      <trkpt lat="47.79328" lon="-3.52407">
        <ele>34.13</ele>
        <time>2020-07-10T09:08:54Z</time>
      </trkpt>
      <trkpt lat="47.79324" lon="-3.52405">
        <ele>34.5</ele>
        <time>2020-07-10T09:08:55Z</time>
      </trkpt>
      <trkpt lat="47.79319" lon="-3.52402">
        <ele>34.71</ele>
        <time>2020-07-10T09:08:56Z</time>
      </trkpt>
      <trkpt lat="47.79315" lon="-3.524">
        <ele>34.83</ele>
        <time>2020-07-10T09:08:57Z</time>
      </trkpt>
      <trkpt lat="47.7931" lon="-3.52397">
        <ele>34.85</ele>
        <time>2020-07-10T09:08:58Z</time>
      </trkpt>
      <trkpt lat="47.79306" lon="-3.52394">
        <ele>34.74</ele>
        <time>2020-07-10T09:08:59Z</time>
      </trkpt>
      <trkpt lat="47.79302" lon="-3.5239">
        <ele>34.76</ele>
        <time>2020-07-10T09:09:00Z</time>
      </trkpt>
      <trkpt lat="47.79299" lon="-3.52387">
        <ele>34.89</ele>
        <time>2020-07-10T09:09:01Z</time>
      </trkpt>
      <trkpt lat="47.79294" lon="-3.52383">
        <ele>34.99</ele>
        <time>2020-07-10T09:09:02Z</time>
      </trkpt>
      <trkpt lat="47.79289" lon="-3.52381">
        <ele>34.97</ele>
        <time>2020-07-10T09:09:03Z</time>
      </trkpt>
      <trkpt lat="47.79285" lon="-3.52378">
        <ele>34.91</ele>
        <time>2020-07-10T09:09:04Z</time>
      </trkpt>
      <trkpt lat="47.79282" lon="-3.52374">
        <ele>34.85</ele>
        <time>2020-07-10T09:09:05Z</time>
      </trkpt>
      <trkpt lat="47.79278" lon="-3.52369">
        <ele>34.76</ele>
        <time>2020-07-10T09:09:06Z</time>
      </trkpt>
      <trkpt lat="47.79273" lon="-3.52365">
        <ele>34.71</ele>
        <time>2020-07-10T09:09:07Z</time>
      </trkpt>
      <trkpt lat="47.79269" lon="-3.52361">
        <ele>34.69</ele>
        <time>2020-07-10T09:09:08Z</time>
      </trkpt>
      <trkpt lat="47.79265" lon="-3.52357">
        <ele>34.71</ele>
        <time>2020-07-10T09:09:09Z</time>
      </trkpt>
      <trkpt lat="47.79262" lon="-3.52351">
        <ele>34.72</ele>
        <time>2020-07-10T09:09:10Z</time>
      </trkpt>
      <trkpt lat="47.79259" lon="-3.52345">
        <ele>34.72</ele>
        <time>2020-07-10T09:09:11Z</time>
      </trkpt>
      <trkpt lat="47.79257" lon="-3.5234">
        <ele>34.64</ele>
        <time>2020-07-10T09:09:12Z</time>
      </trkpt>
      <trkpt lat="47.79253" lon="-3.52334">
        <ele>34.45</ele>
        <time>2020-07-10T09:09:13Z</time>
      </trkpt>
      <trkpt lat="47.79251" lon="-3.52329">
        <ele>34.3</ele>
        <time>2020-07-10T09:09:14Z</time>
      </trkpt>
      <trkpt lat="47.79248" lon="-3.52323">
        <ele>34.27</ele>
        <time>2020-07-10T09:09:15Z</time>
      </trkpt>
      <trkpt lat="47.79244" lon="-3.52317">
        <ele>34.25</ele>
        <time>2020-07-10T09:09:16Z</time>
      </trkpt>
      <trkpt lat="47.79241" lon="-3.52311">
        <ele>34.23</ele>
        <time>2020-07-10T09:09:17Z</time>
      </trkpt>
      <trkpt lat="47.79237" lon="-3.52305">
        <ele>34.15</ele>
        <time>2020-07-10T09:09:18Z</time>
      </trkpt>
      <trkpt lat="47.79234" lon="-3.52298">
        <ele>34.03</ele>
        <time>2020-07-10T09:09:19Z</time>
      </trkpt>
      <trkpt lat="47.79231" lon="-3.5229">
        <ele>33.87</ele>
        <time>2020-07-10T09:09:20Z</time>
      </trkpt>
      <trkpt lat="47.79228" lon="-3.52282">
        <ele>33.68</ele>
        <time>2020-07-10T09:09:21Z</time>
      </trkpt>
      <trkpt lat="47.79225" lon="-3.52274">
        <ele>33.51</ele>
        <time>2020-07-10T09:09:22Z</time>
      </trkpt>
      <trkpt lat="47.79223" lon="-3.52266">
        <ele>33.47</ele>
        <time>2020-07-10T09:09:23Z</time>
      </trkpt>
      <trkpt lat="47.79221" lon="-3.52258">
        <ele>33.54</ele>
        <time>2020-07-10T09:09:24Z</time>
      </trkpt>
      <trkpt lat="47.79219" lon="-3.5225">
        <ele>33.62</ele>
        <time>2020-07-10T09:09:25Z</time>
      </trkpt>
      <trkpt lat="47.79217" lon="-3.52242">
        <ele>33.56</ele>
        <time>2020-07-10T09:09:26Z</time>
      </trkpt>
      <trkpt lat="47.79216" lon="-3.52233">
        <ele>33.49</ele>
        <time>2020-07-10T09:09:27Z</time>
      </trkpt>
      <trkpt lat="47.79214" lon="-3.52225">
        <ele>33.43</ele>
        <time>2020-07-10T09:09:28Z</time>
      </trkpt>
      <trkpt lat="47.79213" lon="-3.52216">
        <ele>33.45</ele>
        <time>2020-07-10T09:09:29Z</time>
      </trkpt>
      <trkpt lat="47.79211" lon="-3.52207">
        <ele>33.5</ele>
        <time>2020-07-10T09:09:30Z</time>
      </trkpt>
      <trkpt lat="47.7921" lon="-3.52199">
        <ele>33.54</ele>
        <time>2020-07-10T09:09:31Z</time>
      </trkpt>
      <trkpt lat="47.79208" lon="-3.5219">
        <ele>33.57</ele>
        <time>2020-07-10T09:09:32Z</time>
      </trkpt>
      <trkpt lat="47.79207" lon="-3.52181">
        <ele>33.61</ele>
        <time>2020-07-10T09:09:33Z</time>
      </trkpt>
      <trkpt lat="47.79206" lon="-3.52172">
        <ele>33.7</ele>
        <time>2020-07-10T09:09:34Z</time>
      </trkpt>
      <trkpt lat="47.79206" lon="-3.52163">
        <ele>33.86</ele>
        <time>2020-07-10T09:09:35Z</time>
      </trkpt>
      <trkpt lat="47.79206" lon="-3.52155">
        <ele>34.12</ele>
        <time>2020-07-10T09:09:36Z</time>
      </trkpt>
      <trkpt lat="47.79205" lon="-3.52146">
        <ele>34.4</ele>
        <time>2020-07-10T09:09:37Z</time>
      </trkpt>
      <trkpt lat="47.79205" lon="-3.52137">
        <ele>34.65</ele>
        <time>2020-07-10T09:09:38Z</time>
      </trkpt>
      <trkpt lat="47.79205" lon="-3.52128">
        <ele>34.72</ele>
        <time>2020-07-10T09:09:39Z</time>
      </trkpt>
      <trkpt lat="47.79205" lon="-3.52119">
        <ele>34.74</ele>
        <time>2020-07-10T09:09:40Z</time>
      </trkpt>
      <trkpt lat="47.79205" lon="-3.5211">
        <ele>34.76</ele>
        <time>2020-07-10T09:09:41Z</time>
      </trkpt>
      <trkpt lat="47.79205" lon="-3.52101">
        <ele>34.92</ele>
        <time>2020-07-10T09:09:42Z</time>
      </trkpt>
      <trkpt lat="47.79205" lon="-3.52092">
        <ele>35.11</ele>
        <time>2020-07-10T09:09:43Z</time>
      </trkpt>
      <trkpt lat="47.79206" lon="-3.52083">
        <ele>35.32</ele>
        <time>2020-07-10T09:09:44Z</time>
      </trkpt>
      <trkpt lat="47.79206" lon="-3.52074">
        <ele>35.48</ele>
        <time>2020-07-10T09:09:45Z</time>
      </trkpt>
      <trkpt lat="47.79206" lon="-3.52066">
        <ele>35.63</ele>
        <time>2020-07-10T09:09:46Z</time>
      </trkpt>
      <trkpt lat="47.79207" lon="-3.52057">
        <ele>35.81</ele>
        <time>2020-07-10T09:09:47Z</time>
      </trkpt>
      <trkpt lat="47.79207" lon="-3.52048">
        <ele>35.98</ele>
        <time>2020-07-10T09:09:48Z</time>
      </trkpt>
      <trkpt lat="47.79207" lon="-3.5204">
        <ele>36.16</ele>
        <time>2020-07-10T09:09:49Z</time>
      </trkpt>
      <trkpt lat="47.79208" lon="-3.52032">
        <ele>36.34</ele>
        <time>2020-07-10T09:09:50Z</time>
      </trkpt>
      <trkpt lat="47.79208" lon="-3.52023">
        <ele>36.44</ele>
        <time>2020-07-10T09:09:51Z</time>
      </trkpt>
      <trkpt lat="47.79209" lon="-3.52015">
        <ele>36.49</ele>
        <time>2020-07-10T09:09:52Z</time>
      </trkpt>
      <trkpt lat="47.79209" lon="-3.52008">
        <ele>36.51</ele>
        <time>2020-07-10T09:09:53Z</time>
      </trkpt>
      <trkpt lat="47.79209" lon="-3.52001">
        <ele>36.52</ele>
        <time>2020-07-10T09:09:54Z</time>
      </trkpt>
      <trkpt lat="47.79209" lon="-3.51994">
        <ele>36.45</ele>
        <time>2020-07-10T09:09:55Z</time>
      </trkpt>
      <trkpt lat="47.79209" lon="-3.51989">
        <ele>36.37</ele>
        <time>2020-07-10T09:09:56Z</time>
      </trkpt>
      <trkpt lat="47.79209" lon="-3.51983">
        <ele>36.29</ele>
        <time>2020-07-10T09:09:57Z</time>
      </trkpt>
      <trkpt lat="47.79209" lon="-3.51979">
        <ele>36.21</ele>
        <time>2020-07-10T09:09:58Z</time>
      </trkpt>
      <trkpt lat="47.79209" lon="-3.51973">
        <ele>36.12</ele>
        <time>2020-07-10T09:09:59Z</time>
      </trkpt>
      <trkpt lat="47.79209" lon="-3.51968">
        <ele>36.08</ele>
        <time>2020-07-10T09:10:00Z</time>
      </trkpt>
      <trkpt lat="47.7921" lon="-3.51963">
        <ele>36.09</ele>
        <time>2020-07-10T09:10:01Z</time>
      </trkpt>
      <trkpt lat="47.7921" lon="-3.51956">
        <ele>36.09</ele>
        <time>2020-07-10T09:10:02Z</time>
      </trkpt>
      <trkpt lat="47.7921" lon="-3.51949">
        <ele>36.1</ele>
        <time>2020-07-10T09:10:03Z</time>
      </trkpt>
      <trkpt lat="47.7921" lon="-3.51942">
        <ele>36.12</ele>
        <time>2020-07-10T09:10:04Z</time>
      </trkpt>
      <trkpt lat="47.7921" lon="-3.51934">
        <ele>36.15</ele>
        <time>2020-07-10T09:10:05Z</time>
      </trkpt>
      <trkpt lat="47.79211" lon="-3.51926">
        <ele>36.18</ele>
        <time>2020-07-10T09:10:06Z</time>
      </trkpt>
      <trkpt lat="47.79212" lon="-3.51918">
        <ele>36.22</ele>
        <time>2020-07-10T09:10:07Z</time>
      </trkpt>
      <trkpt lat="47.79212" lon="-3.51911">
        <ele>36.2</ele>
        <time>2020-07-10T09:10:08Z</time>
      </trkpt>
      <trkpt lat="47.79212" lon="-3.51903">
        <ele>36.12</ele>
        <time>2020-07-10T09:10:09Z</time>
      </trkpt>
      <trkpt lat="47.79212" lon="-3.51895">
        <ele>36.04</ele>
        <time>2020-07-10T09:10:10Z</time>
      </trkpt>
      <trkpt lat="47.79213" lon="-3.51887">
        <ele>35.95</ele>
        <time>2020-07-10T09:10:11Z</time>
      </trkpt>
      <trkpt lat="47.79213" lon="-3.5188">
        <ele>35.85</ele>
        <time>2020-07-10T09:10:12Z</time>
      </trkpt>
      <trkpt lat="47.79213" lon="-3.51873">
        <ele>35.71</ele>
        <time>2020-07-10T09:10:13Z</time>
      </trkpt>
      <trkpt lat="47.79213" lon="-3.51865">
        <ele>35.55</ele>
        <time>2020-07-10T09:10:14Z</time>
      </trkpt>
      <trkpt lat="47.79213" lon="-3.51858">
        <ele>35.37</ele>
        <time>2020-07-10T09:10:15Z</time>
      </trkpt>
      <trkpt lat="47.79211" lon="-3.51852">
        <ele>35.18</ele>
        <time>2020-07-10T09:10:16Z</time>
      </trkpt>
      <trkpt lat="47.79209" lon="-3.51847">
        <ele>34.93</ele>
        <time>2020-07-10T09:10:17Z</time>
      </trkpt>
      <trkpt lat="47.79207" lon="-3.51843">
        <ele>34.67</ele>
        <time>2020-07-10T09:10:18Z</time>
      </trkpt>
      <trkpt lat="47.79205" lon="-3.51838">
        <ele>34.38</ele>
        <time>2020-07-10T09:10:19Z</time>
      </trkpt>
      <trkpt lat="47.79203" lon="-3.51832">
        <ele>33.99</ele>
        <time>2020-07-10T09:10:20Z</time>
      </trkpt>
      <trkpt lat="47.79201" lon="-3.51826">
        <ele>33.45</ele>
        <time>2020-07-10T09:10:21Z</time>
      </trkpt>
      <trkpt lat="47.792" lon="-3.51819">
        <ele>32.84</ele>
        <time>2020-07-10T09:10:22Z</time>
      </trkpt>
      <trkpt lat="47.79199" lon="-3.51812">
        <ele>32.26</ele>
        <time>2020-07-10T09:10:23Z</time>
      </trkpt>
      <trkpt lat="47.79199" lon="-3.51805">
        <ele>31.69</ele>
        <time>2020-07-10T09:10:24Z</time>
      </trkpt>
      <trkpt lat="47.79199" lon="-3.51798">
        <ele>31.2</ele>
        <time>2020-07-10T09:10:25Z</time>
      </trkpt>
      <trkpt lat="47.79199" lon="-3.5179">
        <ele>30.71</ele>
        <time>2020-07-10T09:10:26Z</time>
      </trkpt>
      <trkpt lat="47.792" lon="-3.51782">
        <ele>30.3</ele>
        <time>2020-07-10T09:10:27Z</time>
      </trkpt>
      <trkpt lat="47.79202" lon="-3.51773">
        <ele>29.94</ele>
        <time>2020-07-10T09:10:28Z</time>
      </trkpt>
      <trkpt lat="47.79203" lon="-3.51762">
        <ele>29.48</ele>
        <time>2020-07-10T09:10:29Z</time>
      </trkpt>
      <trkpt lat="47.79204" lon="-3.51753">
        <ele>29.03</ele>
        <time>2020-07-10T09:10:30Z</time>
      </trkpt>
      <trkpt lat="47.79205" lon="-3.51743">
        <ele>28.46</ele>
        <time>2020-07-10T09:10:31Z</time>
      </trkpt>
      <trkpt lat="47.79207" lon="-3.51733">
        <ele>27.92</ele>
        <time>2020-07-10T09:10:32Z</time>
      </trkpt>
      <trkpt lat="47.79209" lon="-3.51721">
        <ele>27.26</ele>
        <time>2020-07-10T09:10:33Z</time>
      </trkpt>
      <trkpt lat="47.79211" lon="-3.51711">
        <ele>26.62</ele>
        <time>2020-07-10T09:10:34Z</time>
      </trkpt>
      <trkpt lat="47.79212" lon="-3.517">
        <ele>25.98</ele>
        <time>2020-07-10T09:10:35Z</time>
      </trkpt>
      <trkpt lat="47.79213" lon="-3.51689">
        <ele>25.41</ele>
        <time>2020-07-10T09:10:36Z</time>
      </trkpt>
      <trkpt lat="47.79214" lon="-3.51678">
        <ele>25.08</ele>
        <time>2020-07-10T09:10:37Z</time>
      </trkpt>
      <trkpt lat="47.79214" lon="-3.51667">
        <ele>24.69</ele>
        <time>2020-07-10T09:10:38Z</time>
      </trkpt>
      <trkpt lat="47.79213" lon="-3.51655">
        <ele>24.57</ele>
        <time>2020-07-10T09:10:39Z</time>
      </trkpt>
      <trkpt lat="47.79211" lon="-3.51645">
        <ele>24.46</ele>
        <time>2020-07-10T09:10:40Z</time>
      </trkpt>
      <trkpt lat="47.79208" lon="-3.51631">
        <ele>24.35</ele>
        <time>2020-07-10T09:10:41Z</time>
      </trkpt>
      <trkpt lat="47.79206" lon="-3.51621">
        <ele>24.18</ele>
        <time>2020-07-10T09:10:42Z</time>
      </trkpt>
      <trkpt lat="47.79203" lon="-3.51612">
        <ele>23.92</ele>
        <time>2020-07-10T09:10:43Z</time>
      </trkpt>
      <trkpt lat="47.792" lon="-3.51605">
        <ele>23.68</ele>
        <time>2020-07-10T09:10:44Z</time>
      </trkpt>
      <trkpt lat="47.79196" lon="-3.51597">
        <ele>23.44</ele>
        <time>2020-07-10T09:10:45Z</time>
      </trkpt>
      <trkpt lat="47.79191" lon="-3.51592">
        <ele>23.11</ele>
        <time>2020-07-10T09:10:46Z</time>
      </trkpt>
      <trkpt lat="47.79186" lon="-3.5159">
        <ele>22.76</ele>
        <time>2020-07-10T09:10:47Z</time>
      </trkpt>
      <trkpt lat="47.7918" lon="-3.51588">
        <ele>22.28</ele>
        <time>2020-07-10T09:10:48Z</time>
      </trkpt>
      <trkpt lat="47.79174" lon="-3.51585">
        <ele>21.84</ele>
        <time>2020-07-10T09:10:49Z</time>
      </trkpt>
      <trkpt lat="47.7917" lon="-3.51583">
        <ele>21.49</ele>
        <time>2020-07-10T09:10:50Z</time>
      </trkpt>
      <trkpt lat="47.79165" lon="-3.51582">
        <ele>21.23</ele>
        <time>2020-07-10T09:10:51Z</time>
      </trkpt>
      <trkpt lat="47.79161" lon="-3.5158">
        <ele>21.03</ele>
        <time>2020-07-10T09:10:52Z</time>
      </trkpt>
      <trkpt lat="47.79156" lon="-3.51579">
        <ele>20.82</ele>
        <time>2020-07-10T09:10:53Z</time>
      </trkpt>
      <trkpt lat="47.79151" lon="-3.51578">
        <ele>20.65</ele>
        <time>2020-07-10T09:10:54Z</time>
      </trkpt>
      <trkpt lat="47.79147" lon="-3.51576">
        <ele>20.48</ele>
        <time>2020-07-10T09:10:55Z</time>
      </trkpt>
      <trkpt lat="47.79142" lon="-3.51575">
        <ele>20.23</ele>
        <time>2020-07-10T09:10:56Z</time>
      </trkpt>
      <trkpt lat="47.79138" lon="-3.51574">
        <ele>20.07</ele>
        <time>2020-07-10T09:10:57Z</time>
      </trkpt>
      <trkpt lat="47.79132" lon="-3.51572">
        <ele>20</ele>
        <time>2020-07-10T09:10:58Z</time>
      </trkpt>
      <trkpt lat="47.79127" lon="-3.51571">
        <ele>19.93</ele>
        <time>2020-07-10T09:10:59Z</time>
      </trkpt>
      <trkpt lat="47.79122" lon="-3.51571">
        <ele>19.8</ele>
        <time>2020-07-10T09:11:00Z</time>
      </trkpt>
      <trkpt lat="47.79117" lon="-3.5157">
        <ele>19.71</ele>
        <time>2020-07-10T09:11:01Z</time>
      </trkpt>
      <trkpt lat="47.79111" lon="-3.5157">
        <ele>19.54</ele>
        <time>2020-07-10T09:11:02Z</time>
      </trkpt>
      <trkpt lat="47.79106" lon="-3.51569">
        <ele>19.57</ele>
        <time>2020-07-10T09:11:03Z</time>
      </trkpt>
      <trkpt lat="47.79102" lon="-3.51569">
        <ele>19.66</ele>
        <time>2020-07-10T09:11:04Z</time>
      </trkpt>
      <trkpt lat="47.79097" lon="-3.51568">
        <ele>19.82</ele>
        <time>2020-07-10T09:11:05Z</time>
      </trkpt>
      <trkpt lat="47.79093" lon="-3.51568">
        <ele>19.98</ele>
        <time>2020-07-10T09:11:06Z</time>
      </trkpt>
      <trkpt lat="47.79088" lon="-3.51568">
        <ele>20.04</ele>
        <time>2020-07-10T09:11:07Z</time>
      </trkpt>
      <trkpt lat="47.79083" lon="-3.51568">
        <ele>20.15</ele>
        <time>2020-07-10T09:11:08Z</time>
      </trkpt>
      <trkpt lat="47.79078" lon="-3.51568">
        <ele>20.28</ele>
        <time>2020-07-10T09:11:09Z</time>
      </trkpt>
      <trkpt lat="47.79074" lon="-3.51566">
        <ele>20.56</ele>
        <time>2020-07-10T09:11:10Z</time>
      </trkpt>
      <trkpt lat="47.79069" lon="-3.51565">
        <ele>20.81</ele>
        <time>2020-07-10T09:11:11Z</time>
      </trkpt>
      <trkpt lat="47.79065" lon="-3.51564">
        <ele>21.12</ele>
        <time>2020-07-10T09:11:12Z</time>
      </trkpt>
      <trkpt lat="47.7906" lon="-3.51563">
        <ele>21.37</ele>
        <time>2020-07-10T09:11:13Z</time>
      </trkpt>
      <trkpt lat="47.79055" lon="-3.51563">
        <ele>21.54</ele>
        <time>2020-07-10T09:11:14Z</time>
      </trkpt>
      <trkpt lat="47.79049" lon="-3.51565">
        <ele>21.55</ele>
        <time>2020-07-10T09:11:15Z</time>
      </trkpt>
      <trkpt lat="47.79044" lon="-3.51566">
        <ele>21.57</ele>
        <time>2020-07-10T09:11:16Z</time>
      </trkpt>
      <trkpt lat="47.79036" lon="-3.51568">
        <ele>21.51</ele>
        <time>2020-07-10T09:11:17Z</time>
      </trkpt>
      <trkpt lat="47.7903" lon="-3.5157">
        <ele>21.36</ele>
        <time>2020-07-10T09:11:18Z</time>
      </trkpt>
      <trkpt lat="47.79023" lon="-3.51572">
        <ele>21.39</ele>
        <time>2020-07-10T09:11:19Z</time>
      </trkpt>
      <trkpt lat="47.79016" lon="-3.51574">
        <ele>21.53</ele>
        <time>2020-07-10T09:11:20Z</time>
      </trkpt>
      <trkpt lat="47.79009" lon="-3.51576">
        <ele>21.72</ele>
        <time>2020-07-10T09:11:21Z</time>
      </trkpt>
      <trkpt lat="47.79003" lon="-3.51576">
        <ele>21.93</ele>
        <time>2020-07-10T09:11:22Z</time>
      </trkpt>
      <trkpt lat="47.78997" lon="-3.51577">
        <ele>22.17</ele>
        <time>2020-07-10T09:11:23Z</time>
      </trkpt>
      <trkpt lat="47.7899" lon="-3.51579">
        <ele>22.14</ele>
        <time>2020-07-10T09:11:24Z</time>
      </trkpt>
      <trkpt lat="47.78984" lon="-3.51582">
        <ele>21.92</ele>
        <time>2020-07-10T09:11:25Z</time>
      </trkpt>
      <trkpt lat="47.78977" lon="-3.51584">
        <ele>21.76</ele>
        <time>2020-07-10T09:11:26Z</time>
      </trkpt>
      <trkpt lat="47.7897" lon="-3.51586">
        <ele>21.58</ele>
        <time>2020-07-10T09:11:27Z</time>
      </trkpt>
      <trkpt lat="47.78963" lon="-3.51588">
        <ele>21.38</ele>
        <time>2020-07-10T09:11:28Z</time>
      </trkpt>
      <trkpt lat="47.78957" lon="-3.51589">
        <ele>21.18</ele>
        <time>2020-07-10T09:11:29Z</time>
      </trkpt>
      <trkpt lat="47.78951" lon="-3.51589">
        <ele>21.1</ele>
        <time>2020-07-10T09:11:30Z</time>
      </trkpt>
      <trkpt lat="47.78945" lon="-3.51589">
        <ele>21.1</ele>
        <time>2020-07-10T09:11:31Z</time>
      </trkpt>
      <trkpt lat="47.7894" lon="-3.51588">
        <ele>21.14</ele>
        <time>2020-07-10T09:11:32Z</time>
      </trkpt>
      <trkpt lat="47.78933" lon="-3.51585">
        <ele>21.32</ele>
        <time>2020-07-10T09:11:33Z</time>
      </trkpt>
      <trkpt lat="47.78927" lon="-3.51583">
        <ele>21.43</ele>
        <time>2020-07-10T09:11:34Z</time>
      </trkpt>
      <trkpt lat="47.78921" lon="-3.5158">
        <ele>21.6</ele>
        <time>2020-07-10T09:11:35Z</time>
      </trkpt>
      <trkpt lat="47.78916" lon="-3.51578">
        <ele>21.83</ele>
        <time>2020-07-10T09:11:36Z</time>
      </trkpt>
      <trkpt lat="47.7891" lon="-3.51576">
        <ele>21.65</ele>
        <time>2020-07-10T09:11:37Z</time>
      </trkpt>
      <trkpt lat="47.78905" lon="-3.51576">
        <ele>21.28</ele>
        <time>2020-07-10T09:11:38Z</time>
      </trkpt>
      <trkpt lat="47.78899" lon="-3.51574">
        <ele>20.92</ele>
        <time>2020-07-10T09:11:39Z</time>
      </trkpt>
      <trkpt lat="47.78893" lon="-3.51572">
        <ele>20.67</ele>
        <time>2020-07-10T09:11:40Z</time>
      </trkpt>
      <trkpt lat="47.78888" lon="-3.51568">
        <ele>20.6</ele>
        <time>2020-07-10T09:11:41Z</time>
      </trkpt>
      <trkpt lat="47.78882" lon="-3.51565">
        <ele>20.65</ele>
        <time>2020-07-10T09:11:42Z</time>
      </trkpt>
      <trkpt lat="47.78876" lon="-3.51562">
        <ele>20.68</ele>
        <time>2020-07-10T09:11:43Z</time>
      </trkpt>
      <trkpt lat="47.78871" lon="-3.51558">
        <ele>20.74</ele>
        <time>2020-07-10T09:11:44Z</time>
      </trkpt>
      <trkpt lat="47.78866" lon="-3.51554">
        <ele>20.75</ele>
        <time>2020-07-10T09:11:45Z</time>
      </trkpt>
      <trkpt lat="47.78861" lon="-3.51551">
        <ele>20.79</ele>
        <time>2020-07-10T09:11:46Z</time>
      </trkpt>
      <trkpt lat="47.78855" lon="-3.51546">
        <ele>20.75</ele>
        <time>2020-07-10T09:11:47Z</time>
      </trkpt>
      <trkpt lat="47.78849" lon="-3.51543">
        <ele>20.49</ele>
        <time>2020-07-10T09:11:48Z</time>
      </trkpt>
      <trkpt lat="47.78843" lon="-3.51539">
        <ele>20.08</ele>
        <time>2020-07-10T09:11:49Z</time>
      </trkpt>
      <trkpt lat="47.78836" lon="-3.51535">
        <ele>19.63</ele>
        <time>2020-07-10T09:11:50Z</time>
      </trkpt>
      <trkpt lat="47.7883" lon="-3.51532">
        <ele>19.08</ele>
        <time>2020-07-10T09:11:51Z</time>
      </trkpt>
      <trkpt lat="47.78824" lon="-3.51528">
        <ele>18.54</ele>
        <time>2020-07-10T09:11:52Z</time>
      </trkpt>
      <trkpt lat="47.78818" lon="-3.51523">
        <ele>18.08</ele>
        <time>2020-07-10T09:11:53Z</time>
      </trkpt>
      <trkpt lat="47.78812" lon="-3.51521">
        <ele>17.41</ele>
        <time>2020-07-10T09:11:54Z</time>
      </trkpt>
      <trkpt lat="47.78806" lon="-3.51518">
        <ele>16.73</ele>
        <time>2020-07-10T09:11:55Z</time>
      </trkpt>
      <trkpt lat="47.788" lon="-3.51516">
        <ele>16.65</ele>
        <time>2020-07-10T09:11:56Z</time>
      </trkpt>
      <trkpt lat="47.78794" lon="-3.51513">
        <ele>16.81</ele>
        <time>2020-07-10T09:11:57Z</time>
      </trkpt>
      <trkpt lat="47.78789" lon="-3.51512">
        <ele>16.92</ele>
        <time>2020-07-10T09:11:58Z</time>
      </trkpt>
      <trkpt lat="47.78783" lon="-3.5151">
        <ele>16.96</ele>
        <time>2020-07-10T09:11:59Z</time>
      </trkpt>
      <trkpt lat="47.78777" lon="-3.5151">
        <ele>16.91</ele>
        <time>2020-07-10T09:12:00Z</time>
      </trkpt>
      <trkpt lat="47.78772" lon="-3.5151">
        <ele>16.56</ele>
        <time>2020-07-10T09:12:01Z</time>
      </trkpt>
      <trkpt lat="47.78765" lon="-3.51511">
        <ele>15.99</ele>
        <time>2020-07-10T09:12:02Z</time>
      </trkpt>
      <trkpt lat="47.78759" lon="-3.5151">
        <ele>15.48</ele>
        <time>2020-07-10T09:12:03Z</time>
      </trkpt>
      <trkpt lat="47.78752" lon="-3.51511">
        <ele>14.88</ele>
        <time>2020-07-10T09:12:04Z</time>
      </trkpt>
      <trkpt lat="47.78744" lon="-3.5151">
        <ele>14.02</ele>
        <time>2020-07-10T09:12:05Z</time>
      </trkpt>
      <trkpt lat="47.78736" lon="-3.51508">
        <ele>13.06</ele>
        <time>2020-07-10T09:12:06Z</time>
      </trkpt>
      <trkpt lat="47.78728" lon="-3.51504">
        <ele>12.08</ele>
        <time>2020-07-10T09:12:07Z</time>
      </trkpt>
      <trkpt lat="47.78721" lon="-3.515">
        <ele>11.22</ele>
        <time>2020-07-10T09:12:08Z</time>
      </trkpt>
      <trkpt lat="47.78713" lon="-3.51497">
        <ele>10.69</ele>
        <time>2020-07-10T09:12:09Z</time>
      </trkpt>
      <trkpt lat="47.78706" lon="-3.51492">
        <ele>10.28</ele>
        <time>2020-07-10T09:12:10Z</time>
      </trkpt>
      <trkpt lat="47.78699" lon="-3.51488">
        <ele>9.9</ele>
        <time>2020-07-10T09:12:11Z</time>
      </trkpt>
      <trkpt lat="47.78692" lon="-3.51485">
        <ele>9.74</ele>
        <time>2020-07-10T09:12:12Z</time>
      </trkpt>
      <trkpt lat="47.78686" lon="-3.51482">
        <ele>10.04</ele>
        <time>2020-07-10T09:12:13Z</time>
      </trkpt>
      <trkpt lat="47.78678" lon="-3.51481">
        <ele>10.48</ele>
        <time>2020-07-10T09:12:14Z</time>
      </trkpt>
      <trkpt lat="47.78673" lon="-3.51478">
        <ele>10.99</ele>
        <time>2020-07-10T09:12:15Z</time>
      </trkpt>
      <trkpt lat="47.78668" lon="-3.51475">
        <ele>11.5</ele>
        <time>2020-07-10T09:12:16Z</time>
      </trkpt>
      <trkpt lat="47.78662" lon="-3.51473">
        <ele>11.91</ele>
        <time>2020-07-10T09:12:17Z</time>
      </trkpt>
      <trkpt lat="47.78658" lon="-3.51472">
        <ele>12.22</ele>
        <time>2020-07-10T09:12:18Z</time>
      </trkpt>
      <trkpt lat="47.78654" lon="-3.51471">
        <ele>12.49</ele>
        <time>2020-07-10T09:12:19Z</time>
      </trkpt>
      <trkpt lat="47.78649" lon="-3.5147">
        <ele>12.75</ele>
        <time>2020-07-10T09:12:20Z</time>
      </trkpt>
      <trkpt lat="47.78645" lon="-3.51469">
        <ele>12.96</ele>
        <time>2020-07-10T09:12:21Z</time>
      </trkpt>
      <trkpt lat="47.78642" lon="-3.51469">
        <ele>13.16</ele>
        <time>2020-07-10T09:12:22Z</time>
      </trkpt>
      <trkpt lat="47.78639" lon="-3.51469">
        <ele>13.3</ele>
        <time>2020-07-10T09:12:23Z</time>
      </trkpt>
      <trkpt lat="47.78635" lon="-3.5147">
        <ele>13.33</ele>
        <time>2020-07-10T09:12:24Z</time>
      </trkpt>
      <trkpt lat="47.78632" lon="-3.51472">
        <ele>13.31</ele>
        <time>2020-07-10T09:12:25Z</time>
      </trkpt>
      <trkpt lat="47.78628" lon="-3.51474">
        <ele>13.3</ele>
        <time>2020-07-10T09:12:26Z</time>
      </trkpt>
      <trkpt lat="47.78624" lon="-3.51477">
        <ele>13.28</ele>
        <time>2020-07-10T09:12:27Z</time>
      </trkpt>
      <trkpt lat="47.7862" lon="-3.5148">
        <ele>13.24</ele>
        <time>2020-07-10T09:12:28Z</time>
      </trkpt>
      <trkpt lat="47.78616" lon="-3.51483">
        <ele>13.14</ele>
        <time>2020-07-10T09:12:29Z</time>
      </trkpt>
      <trkpt lat="47.78611" lon="-3.51486">
        <ele>13.06</ele>
        <time>2020-07-10T09:12:30Z</time>
      </trkpt>
      <trkpt lat="47.78605" lon="-3.51488">
        <ele>13.41</ele>
        <time>2020-07-10T09:12:31Z</time>
      </trkpt>
      <trkpt lat="47.78599" lon="-3.5149">
        <ele>13.89</ele>
        <time>2020-07-10T09:12:32Z</time>
      </trkpt>
      <trkpt lat="47.78593" lon="-3.51492">
        <ele>14.48</ele>
        <time>2020-07-10T09:12:33Z</time>
      </trkpt>
      <trkpt lat="47.78587" lon="-3.51494">
        <ele>15.01</ele>
        <time>2020-07-10T09:12:34Z</time>
      </trkpt>
      <trkpt lat="47.78581" lon="-3.51497">
        <ele>15.43</ele>
        <time>2020-07-10T09:12:35Z</time>
      </trkpt>
      <trkpt lat="47.78576" lon="-3.515">
        <ele>15.77</ele>
        <time>2020-07-10T09:12:36Z</time>
      </trkpt>
      <trkpt lat="47.78571" lon="-3.51502">
        <ele>15.99</ele>
        <time>2020-07-10T09:12:37Z</time>
      </trkpt>
      <trkpt lat="47.78566" lon="-3.51505">
        <ele>16.1</ele>
        <time>2020-07-10T09:12:38Z</time>
      </trkpt>
      <trkpt lat="47.78561" lon="-3.51507">
        <ele>16.31</ele>
        <time>2020-07-10T09:12:39Z</time>
      </trkpt>
      <trkpt lat="47.78556" lon="-3.51509">
        <ele>16.52</ele>
        <time>2020-07-10T09:12:40Z</time>
      </trkpt>
      <trkpt lat="47.78552" lon="-3.5151">
        <ele>16.93</ele>
        <time>2020-07-10T09:12:41Z</time>
      </trkpt>
      <trkpt lat="47.78548" lon="-3.51511">
        <ele>17.41</ele>
        <time>2020-07-10T09:12:42Z</time>
      </trkpt>
      <trkpt lat="47.78544" lon="-3.51513">
        <ele>17.8</ele>
        <time>2020-07-10T09:12:43Z</time>
      </trkpt>
      <trkpt lat="47.7854" lon="-3.51517">
        <ele>18</ele>
        <time>2020-07-10T09:12:44Z</time>
      </trkpt>
      <trkpt lat="47.78536" lon="-3.5152">
        <ele>18.17</ele>
        <time>2020-07-10T09:12:45Z</time>
      </trkpt>
      <trkpt lat="47.7853" lon="-3.51523">
        <ele>18.41</ele>
        <time>2020-07-10T09:12:46Z</time>
      </trkpt>
      <trkpt lat="47.78525" lon="-3.51527">
        <ele>18.39</ele>
        <time>2020-07-10T09:12:47Z</time>
      </trkpt>
      <trkpt lat="47.78521" lon="-3.5153">
        <ele>18.42</ele>
        <time>2020-07-10T09:12:48Z</time>
      </trkpt>
      <trkpt lat="47.78517" lon="-3.51533">
        <ele>18.54</ele>
        <time>2020-07-10T09:12:49Z</time>
      </trkpt>
      <trkpt lat="47.78513" lon="-3.51535">
        <ele>18.65</ele>
        <time>2020-07-10T09:12:50Z</time>
      </trkpt>
      <trkpt lat="47.78509" lon="-3.51538">
        <ele>18.69</ele>
        <time>2020-07-10T09:12:51Z</time>
      </trkpt>
      <trkpt lat="47.78503" lon="-3.51541">
        <ele>18.79</ele>
        <time>2020-07-10T09:12:52Z</time>
      </trkpt>
      <trkpt lat="47.78499" lon="-3.51543">
        <ele>18.9</ele>
        <time>2020-07-10T09:12:53Z</time>
      </trkpt>
      <trkpt lat="47.78495" lon="-3.51544">
        <ele>19.1</ele>
        <time>2020-07-10T09:12:54Z</time>
      </trkpt>
      <trkpt lat="47.78492" lon="-3.51546">
        <ele>19.19</ele>
        <time>2020-07-10T09:12:55Z</time>
      </trkpt>
      <trkpt lat="47.78489" lon="-3.5155">
        <ele>19.06</ele>
        <time>2020-07-10T09:12:56Z</time>
      </trkpt>
      <trkpt lat="47.78488" lon="-3.51552">
        <ele>18.9</ele>
        <time>2020-07-10T09:12:57Z</time>
      </trkpt>
      <trkpt lat="47.78488" lon="-3.51555">
        <ele>18.49</ele>
        <time>2020-07-10T09:12:58Z</time>
      </trkpt>
      <trkpt lat="47.78489" lon="-3.51559">
        <ele>18</ele>
        <time>2020-07-10T09:12:59Z</time>
      </trkpt>
      <trkpt lat="47.78492" lon="-3.51563">
        <ele>17.46</ele>
        <time>2020-07-10T09:13:00Z</time>
      </trkpt>
      <trkpt lat="47.78494" lon="-3.51568">
        <ele>16.88</ele>
        <time>2020-07-10T09:13:01Z</time>
      </trkpt>
      <trkpt lat="47.78495" lon="-3.51572">
        <ele>16.31</ele>
        <time>2020-07-10T09:13:02Z</time>
      </trkpt>
      <trkpt lat="47.78498" lon="-3.51576">
        <ele>15.86</ele>
        <time>2020-07-10T09:13:03Z</time>
      </trkpt>
      <trkpt lat="47.78501" lon="-3.5158">
        <ele>15.44</ele>
        <time>2020-07-10T09:13:04Z</time>
      </trkpt>
      <trkpt lat="47.78502" lon="-3.51584">
        <ele>15.22</ele>
        <time>2020-07-10T09:13:05Z</time>
      </trkpt>
      <trkpt lat="47.78504" lon="-3.51587">
        <ele>15.39</ele>
        <time>2020-07-10T09:13:06Z</time>
      </trkpt>
      <trkpt lat="47.78506" lon="-3.51591">
        <ele>15.68</ele>
        <time>2020-07-10T09:13:07Z</time>
      </trkpt>
      <trkpt lat="47.78508" lon="-3.51595">
        <ele>16.08</ele>
        <time>2020-07-10T09:13:08Z</time>
      </trkpt>
      <trkpt lat="47.78509" lon="-3.51599">
        <ele>16.47</ele>
        <time>2020-07-10T09:13:09Z</time>
      </trkpt>
      <trkpt lat="47.78511" lon="-3.51602">
        <ele>16.82</ele>
        <time>2020-07-10T09:13:10Z</time>
      </trkpt>
      <trkpt lat="47.78513" lon="-3.51605">
        <ele>17.18</ele>
        <time>2020-07-10T09:13:11Z</time>
      </trkpt>
      <trkpt lat="47.78514" lon="-3.51606">
        <ele>17.45</ele>
        <time>2020-07-10T09:13:12Z</time>
      </trkpt>
      <trkpt lat="47.78515" lon="-3.51608">
        <ele>17.69</ele>
        <time>2020-07-10T09:13:13Z</time>
      </trkpt>
      <trkpt lat="47.78515" lon="-3.51609">
        <ele>17.86</ele>
        <time>2020-07-10T09:13:14Z</time>
      </trkpt>
      <trkpt lat="47.78516" lon="-3.51611">
        <ele>18.08</ele>
        <time>2020-07-10T09:13:15Z</time>
      </trkpt>
      <trkpt lat="47.78517" lon="-3.51613">
        <ele>18.31</ele>
        <time>2020-07-10T09:13:16Z</time>
      </trkpt>
      <trkpt lat="47.78517" lon="-3.51613">
        <ele>18.38</ele>
        <time>2020-07-10T09:13:17Z</time>
      </trkpt>
      <trkpt lat="47.78517" lon="-3.51613">
        <ele>18.4</ele>
        <time>2020-07-10T09:13:18Z</time>
      </trkpt>
      <trkpt lat="47.7852" lon="-3.51618">
        <ele>18.93</ele>
        <time>2020-07-10T09:13:19Z</time>
      </trkpt>
      <trkpt lat="47.78521" lon="-3.51619">
        <ele>19.33</ele>
        <time>2020-07-10T09:13:20Z</time>
      </trkpt>
      <trkpt lat="47.78523" lon="-3.51621">
        <ele>19.63</ele>
        <time>2020-07-10T09:13:21Z</time>
      </trkpt>
      <trkpt lat="47.78524" lon="-3.51622">
        <ele>19.83</ele>
        <time>2020-07-10T09:13:22Z</time>
      </trkpt>
      <trkpt lat="47.78524" lon="-3.51622">
        <ele>19.93</ele>
        <time>2020-07-10T09:13:23Z</time>
      </trkpt>
      <trkpt lat="47.78525" lon="-3.51623">
        <ele>20.06</ele>
        <time>2020-07-10T09:13:24Z</time>
      </trkpt>
      <trkpt lat="47.78525" lon="-3.51623">
        <ele>20.1</ele>
        <time>2020-07-10T09:13:25Z</time>
      </trkpt>
      <trkpt lat="47.78525" lon="-3.51623">
        <ele>20.11</ele>
        <time>2020-07-10T09:13:26Z</time>
      </trkpt>
      <trkpt lat="47.78525" lon="-3.51623">
        <ele>20.12</ele>
        <time>2020-07-10T09:13:27Z</time>
      </trkpt>
      <trkpt lat="47.78525" lon="-3.51623">
        <ele>20.12</ele>
        <time>2020-07-10T09:13:28Z</time>
      </trkpt>
      <trkpt lat="47.78524" lon="-3.51628">
        <ele>20.51</ele>
        <time>2020-07-10T09:13:29Z</time>
      </trkpt>
      <trkpt lat="47.78523" lon="-3.5163">
        <ele>20.68</ele>
        <time>2020-07-10T09:13:30Z</time>
      </trkpt>
      <trkpt lat="47.78522" lon="-3.51632">
        <ele>20.88</ele>
        <time>2020-07-10T09:13:31Z</time>
      </trkpt>
      <trkpt lat="47.78521" lon="-3.51634">
        <ele>21.07</ele>
        <time>2020-07-10T09:13:32Z</time>
      </trkpt>
      <trkpt lat="47.78521" lon="-3.51636">
        <ele>21.28</ele>
        <time>2020-07-10T09:13:33Z</time>
      </trkpt>
      <trkpt lat="47.7852" lon="-3.51638">
        <ele>21.5</ele>
        <time>2020-07-10T09:13:34Z</time>
      </trkpt>
      <trkpt lat="47.78519" lon="-3.51639">
        <ele>21.65</ele>
        <time>2020-07-10T09:13:35Z</time>
      </trkpt>
      <trkpt lat="47.78518" lon="-3.51641">
        <ele>21.75</ele>
        <time>2020-07-10T09:13:36Z</time>
      </trkpt>
      <trkpt lat="47.78518" lon="-3.51641">
        <ele>21.81</ele>
        <time>2020-07-10T09:13:37Z</time>
      </trkpt>
      <trkpt lat="47.78518" lon="-3.51643">
        <ele>21.93</ele>
        <time>2020-07-10T09:13:38Z</time>
      </trkpt>
      <trkpt lat="47.78518" lon="-3.51645">
        <ele>22.07</ele>
        <time>2020-07-10T09:13:39Z</time>
      </trkpt>
      <trkpt lat="47.78518" lon="-3.51647">
        <ele>22.26</ele>
        <time>2020-07-10T09:13:40Z</time>
      </trkpt>
      <trkpt lat="47.78518" lon="-3.5165">
        <ele>22.5</ele>
        <time>2020-07-10T09:13:41Z</time>
      </trkpt>
      <trkpt lat="47.78518" lon="-3.51653">
        <ele>22.73</ele>
        <time>2020-07-10T09:13:42Z</time>
      </trkpt>
      <trkpt lat="47.78519" lon="-3.51655">
        <ele>22.95</ele>
        <time>2020-07-10T09:13:43Z</time>
      </trkpt>
      <trkpt lat="47.78519" lon="-3.51658">
        <ele>23.17</ele>
        <time>2020-07-10T09:13:44Z</time>
      </trkpt>
      <trkpt lat="47.78518" lon="-3.51661">
        <ele>23.42</ele>
        <time>2020-07-10T09:13:45Z</time>
      </trkpt>
      <trkpt lat="47.78518" lon="-3.51664">
        <ele>23.65</ele>
        <time>2020-07-10T09:13:46Z</time>
      </trkpt>
      <trkpt lat="47.78518" lon="-3.51666">
        <ele>23.86</ele>
        <time>2020-07-10T09:13:47Z</time>
      </trkpt>
      <trkpt lat="47.78518" lon="-3.51669">
        <ele>24.07</ele>
        <time>2020-07-10T09:13:48Z</time>
      </trkpt>
      <trkpt lat="47.78519" lon="-3.51671">
        <ele>24.25</ele>
        <time>2020-07-10T09:13:49Z</time>
      </trkpt>
      <trkpt lat="47.7852" lon="-3.51674">
        <ele>24.43</ele>
        <time>2020-07-10T09:13:50Z</time>
      </trkpt>
      <trkpt lat="47.78521" lon="-3.51677">
        <ele>24.63</ele>
        <time>2020-07-10T09:13:51Z</time>
      </trkpt>
      <trkpt lat="47.78522" lon="-3.5168">
        <ele>24.84</ele>
        <time>2020-07-10T09:13:52Z</time>
      </trkpt>
      <trkpt lat="47.78524" lon="-3.51682">
        <ele>25.02</ele>
        <time>2020-07-10T09:13:53Z</time>
      </trkpt>
      <trkpt lat="47.78525" lon="-3.51684">
        <ele>25.19</ele>
        <time>2020-07-10T09:13:54Z</time>
      </trkpt>
      <trkpt lat="47.78527" lon="-3.51686">
        <ele>25.33</ele>
        <time>2020-07-10T09:13:55Z</time>
      </trkpt>
      <trkpt lat="47.78528" lon="-3.51688">
        <ele>25.47</ele>
        <time>2020-07-10T09:13:56Z</time>
      </trkpt>
      <trkpt lat="47.78528" lon="-3.51691">
        <ele>25.64</ele>
        <time>2020-07-10T09:13:57Z</time>
      </trkpt>
      <trkpt lat="47.78529" lon="-3.51693">
        <ele>25.81</ele>
        <time>2020-07-10T09:13:58Z</time>
      </trkpt>
      <trkpt lat="47.78528" lon="-3.51696">
        <ele>26.05</ele>
        <time>2020-07-10T09:13:59Z</time>
      </trkpt>
      <trkpt lat="47.78528" lon="-3.51697">
        <ele>26.24</ele>
        <time>2020-07-10T09:14:00Z</time>
      </trkpt>
      <trkpt lat="47.78528" lon="-3.517">
        <ele>26.48</ele>
        <time>2020-07-10T09:14:01Z</time>
      </trkpt>
      <trkpt lat="47.78527" lon="-3.51703">
        <ele>26.79</ele>
        <time>2020-07-10T09:14:02Z</time>
      </trkpt>
      <trkpt lat="47.78527" lon="-3.51706">
        <ele>27.1</ele>
        <time>2020-07-10T09:14:03Z</time>
      </trkpt>
      <trkpt lat="47.78527" lon="-3.51708">
        <ele>27.36</ele>
        <time>2020-07-10T09:14:04Z</time>
      </trkpt>
      <trkpt lat="47.78527" lon="-3.51711">
        <ele>27.63</ele>
        <time>2020-07-10T09:14:05Z</time>
      </trkpt>
      <trkpt lat="47.78526" lon="-3.51713">
        <ele>27.85</ele>
        <time>2020-07-10T09:14:06Z</time>
      </trkpt>
      <trkpt lat="47.78525" lon="-3.51716">
        <ele>28.14</ele>
        <time>2020-07-10T09:14:07Z</time>
      </trkpt>
      <trkpt lat="47.78525" lon="-3.51719">
        <ele>28.45</ele>
        <time>2020-07-10T09:14:08Z</time>
      </trkpt>
      <trkpt lat="47.78525" lon="-3.51721">
        <ele>28.72</ele>
        <time>2020-07-10T09:14:09Z</time>
      </trkpt>
      <trkpt lat="47.78525" lon="-3.51724">
        <ele>28.95</ele>
        <time>2020-07-10T09:14:10Z</time>
      </trkpt>
      <trkpt lat="47.78525" lon="-3.51727">
        <ele>29.16</ele>
        <time>2020-07-10T09:14:11Z</time>
      </trkpt>
      <trkpt lat="47.78526" lon="-3.5173">
        <ele>29.38</ele>
        <time>2020-07-10T09:14:12Z</time>
      </trkpt>
      <trkpt lat="47.78527" lon="-3.51732">
        <ele>29.57</ele>
        <time>2020-07-10T09:14:13Z</time>
      </trkpt>
      <trkpt lat="47.78527" lon="-3.51735">
        <ele>29.79</ele>
        <time>2020-07-10T09:14:14Z</time>
      </trkpt>
      <trkpt lat="47.78527" lon="-3.51737">
        <ele>29.96</ele>
        <time>2020-07-10T09:14:15Z</time>
      </trkpt>
      <trkpt lat="47.78526" lon="-3.5174">
        <ele>30.14</ele>
        <time>2020-07-10T09:14:16Z</time>
      </trkpt>
      <trkpt lat="47.78526" lon="-3.51744">
        <ele>30.38</ele>
        <time>2020-07-10T09:14:17Z</time>
      </trkpt>
      <trkpt lat="47.78526" lon="-3.51747">
        <ele>30.61</ele>
        <time>2020-07-10T09:14:18Z</time>
      </trkpt>
      <trkpt lat="47.78526" lon="-3.5175">
        <ele>30.83</ele>
        <time>2020-07-10T09:14:19Z</time>
      </trkpt>
      <trkpt lat="47.78526" lon="-3.51753">
        <ele>31.06</ele>
        <time>2020-07-10T09:14:20Z</time>
      </trkpt>
      <trkpt lat="47.78526" lon="-3.51756">
        <ele>31.26</ele>
        <time>2020-07-10T09:14:21Z</time>
      </trkpt>
      <trkpt lat="47.78526" lon="-3.51758">
        <ele>31.44</ele>
        <time>2020-07-10T09:14:22Z</time>
      </trkpt>
      <trkpt lat="47.78526" lon="-3.51761">
        <ele>31.64</ele>
        <time>2020-07-10T09:14:23Z</time>
      </trkpt>
      <trkpt lat="47.78526" lon="-3.51764">
        <ele>31.86</ele>
        <time>2020-07-10T09:14:24Z</time>
      </trkpt>
      <trkpt lat="47.78527" lon="-3.51767">
        <ele>32.09</ele>
        <time>2020-07-10T09:14:25Z</time>
      </trkpt>
      <trkpt lat="47.78527" lon="-3.5177">
        <ele>32.31</ele>
        <time>2020-07-10T09:14:26Z</time>
      </trkpt>
      <trkpt lat="47.78527" lon="-3.51773">
        <ele>32.54</ele>
        <time>2020-07-10T09:14:27Z</time>
      </trkpt>
      <trkpt lat="47.78526" lon="-3.51777">
        <ele>32.77</ele>
        <time>2020-07-10T09:14:28Z</time>
      </trkpt>
      <trkpt lat="47.78525" lon="-3.5178">
        <ele>32.99</ele>
        <time>2020-07-10T09:14:29Z</time>
      </trkpt>
      <trkpt lat="47.78525" lon="-3.51784">
        <ele>33.25</ele>
        <time>2020-07-10T09:14:30Z</time>
      </trkpt>
      <trkpt lat="47.78525" lon="-3.51788">
        <ele>33.49</ele>
        <time>2020-07-10T09:14:31Z</time>
      </trkpt>
      <trkpt lat="47.78525" lon="-3.51791">
        <ele>33.71</ele>
        <time>2020-07-10T09:14:32Z</time>
      </trkpt>
      <trkpt lat="47.78525" lon="-3.51794">
        <ele>33.95</ele>
        <time>2020-07-10T09:14:33Z</time>
      </trkpt>
      <trkpt lat="47.78525" lon="-3.51798">
        <ele>34.19</ele>
        <time>2020-07-10T09:14:34Z</time>
      </trkpt>
      <trkpt lat="47.78525" lon="-3.51801">
        <ele>34.41</ele>
        <time>2020-07-10T09:14:35Z</time>
      </trkpt>
      <trkpt lat="47.78524" lon="-3.51806">
        <ele>34.64</ele>
        <time>2020-07-10T09:14:36Z</time>
      </trkpt>
      <trkpt lat="47.78524" lon="-3.5181">
        <ele>34.73</ele>
        <time>2020-07-10T09:14:37Z</time>
      </trkpt>
      <trkpt lat="47.78524" lon="-3.51815">
        <ele>34.75</ele>
        <time>2020-07-10T09:14:38Z</time>
      </trkpt>
      <trkpt lat="47.78524" lon="-3.5182">
        <ele>34.77</ele>
        <time>2020-07-10T09:14:39Z</time>
      </trkpt>
      <trkpt lat="47.78524" lon="-3.51825">
        <ele>34.8</ele>
        <time>2020-07-10T09:14:40Z</time>
      </trkpt>
      <trkpt lat="47.78524" lon="-3.51829">
        <ele>34.84</ele>
        <time>2020-07-10T09:14:41Z</time>
      </trkpt>
      <trkpt lat="47.78527" lon="-3.51833">
        <ele>34.93</ele>
        <time>2020-07-10T09:14:42Z</time>
      </trkpt>
      <trkpt lat="47.78529" lon="-3.51837">
        <ele>35.08</ele>
        <time>2020-07-10T09:14:43Z</time>
      </trkpt>
      <trkpt lat="47.7853" lon="-3.51842">
        <ele>35.22</ele>
        <time>2020-07-10T09:14:44Z</time>
      </trkpt>
      <trkpt lat="47.7853" lon="-3.51847">
        <ele>35.4</ele>
        <time>2020-07-10T09:14:45Z</time>
      </trkpt>
      <trkpt lat="47.7853" lon="-3.51853">
        <ele>35.58</ele>
        <time>2020-07-10T09:14:46Z</time>
      </trkpt>
      <trkpt lat="47.7853" lon="-3.51858">
        <ele>35.74</ele>
        <time>2020-07-10T09:14:47Z</time>
      </trkpt>
      <trkpt lat="47.7853" lon="-3.51862">
        <ele>35.86</ele>
        <time>2020-07-10T09:14:48Z</time>
      </trkpt>
      <trkpt lat="47.78532" lon="-3.51867">
        <ele>35.88</ele>
        <time>2020-07-10T09:14:49Z</time>
      </trkpt>
      <trkpt lat="47.78531" lon="-3.51872">
        <ele>35.92</ele>
        <time>2020-07-10T09:14:50Z</time>
      </trkpt>
      <trkpt lat="47.7853" lon="-3.51877">
        <ele>35.95</ele>
        <time>2020-07-10T09:14:51Z</time>
      </trkpt>
      <trkpt lat="47.7853" lon="-3.51881">
        <ele>35.97</ele>
        <time>2020-07-10T09:14:52Z</time>
      </trkpt>
      <trkpt lat="47.78531" lon="-3.51884">
        <ele>35.98</ele>
        <time>2020-07-10T09:14:53Z</time>
      </trkpt>
      <trkpt lat="47.78532" lon="-3.51886">
        <ele>35.98</ele>
        <time>2020-07-10T09:14:54Z</time>
      </trkpt>
      <trkpt lat="47.78534" lon="-3.51888">
        <ele>35.99</ele>
        <time>2020-07-10T09:14:55Z</time>
      </trkpt>
      <trkpt lat="47.78537" lon="-3.51893">
        <ele>36.06</ele>
        <time>2020-07-10T09:14:56Z</time>
      </trkpt>
      <trkpt lat="47.78539" lon="-3.51895">
        <ele>36.11</ele>
        <time>2020-07-10T09:14:57Z</time>
      </trkpt>
      <trkpt lat="47.7854" lon="-3.51899">
        <ele>36.18</ele>
        <time>2020-07-10T09:14:58Z</time>
      </trkpt>
      <trkpt lat="47.7854" lon="-3.51902">
        <ele>36.24</ele>
        <time>2020-07-10T09:14:59Z</time>
      </trkpt>
      <trkpt lat="47.78539" lon="-3.51905">
        <ele>36.31</ele>
        <time>2020-07-10T09:15:00Z</time>
      </trkpt>
      <trkpt lat="47.78539" lon="-3.51909">
        <ele>36.4</ele>
        <time>2020-07-10T09:15:01Z</time>
      </trkpt>
      <trkpt lat="47.78538" lon="-3.51913">
        <ele>36.5</ele>
        <time>2020-07-10T09:15:02Z</time>
      </trkpt>
      <trkpt lat="47.78538" lon="-3.51918">
        <ele>36.6</ele>
        <time>2020-07-10T09:15:03Z</time>
      </trkpt>
      <trkpt lat="47.78538" lon="-3.51924">
        <ele>36.61</ele>
        <time>2020-07-10T09:15:04Z</time>
      </trkpt>
      <trkpt lat="47.78539" lon="-3.51929">
        <ele>36.59</ele>
        <time>2020-07-10T09:15:05Z</time>
      </trkpt>
      <trkpt lat="47.7854" lon="-3.51934">
        <ele>36.56</ele>
        <time>2020-07-10T09:15:06Z</time>
      </trkpt>
      <trkpt lat="47.78541" lon="-3.51939">
        <ele>36.54</ele>
        <time>2020-07-10T09:15:07Z</time>
      </trkpt>
      <trkpt lat="47.78542" lon="-3.51944">
        <ele>36.51</ele>
        <time>2020-07-10T09:15:08Z</time>
      </trkpt>
      <trkpt lat="47.78542" lon="-3.51948">
        <ele>36.49</ele>
        <time>2020-07-10T09:15:09Z</time>
      </trkpt>
      <trkpt lat="47.78542" lon="-3.51953">
        <ele>36.48</ele>
        <time>2020-07-10T09:15:10Z</time>
      </trkpt>
      <trkpt lat="47.78541" lon="-3.51959">
        <ele>36.51</ele>
        <time>2020-07-10T09:15:11Z</time>
      </trkpt>
      <trkpt lat="47.78541" lon="-3.51963">
        <ele>36.52</ele>
        <time>2020-07-10T09:15:12Z</time>
      </trkpt>
      <trkpt lat="47.78541" lon="-3.51968">
        <ele>36.51</ele>
        <time>2020-07-10T09:15:13Z</time>
      </trkpt>
      <trkpt lat="47.78542" lon="-3.51973">
        <ele>36.49</ele>
        <time>2020-07-10T09:15:14Z</time>
      </trkpt>
      <trkpt lat="47.78543" lon="-3.51978">
        <ele>36.46</ele>
        <time>2020-07-10T09:15:15Z</time>
      </trkpt>
      <trkpt lat="47.78544" lon="-3.51983">
        <ele>36.44</ele>
        <time>2020-07-10T09:15:16Z</time>
      </trkpt>
      <trkpt lat="47.78543" lon="-3.51989">
        <ele>36.45</ele>
        <time>2020-07-10T09:15:17Z</time>
      </trkpt>
      <trkpt lat="47.78543" lon="-3.51995">
        <ele>36.45</ele>
        <time>2020-07-10T09:15:18Z</time>
      </trkpt>
      <trkpt lat="47.78544" lon="-3.51999">
        <ele>36.43</ele>
        <time>2020-07-10T09:15:19Z</time>
      </trkpt>
      <trkpt lat="47.78545" lon="-3.52005">
        <ele>36.39</ele>
        <time>2020-07-10T09:15:20Z</time>
      </trkpt>
      <trkpt lat="47.78546" lon="-3.5201">
        <ele>36.37</ele>
        <time>2020-07-10T09:15:21Z</time>
      </trkpt>
      <trkpt lat="47.78546" lon="-3.52015">
        <ele>36.35</ele>
        <time>2020-07-10T09:15:22Z</time>
      </trkpt>
      <trkpt lat="47.78546" lon="-3.5202">
        <ele>36.34</ele>
        <time>2020-07-10T09:15:23Z</time>
      </trkpt>
      <trkpt lat="47.78546" lon="-3.52024">
        <ele>36.35</ele>
        <time>2020-07-10T09:15:24Z</time>
      </trkpt>
      <trkpt lat="47.78545" lon="-3.52027">
        <ele>36.37</ele>
        <time>2020-07-10T09:15:25Z</time>
      </trkpt>
      <trkpt lat="47.78543" lon="-3.52029">
        <ele>36.43</ele>
        <time>2020-07-10T09:15:26Z</time>
      </trkpt>
      <trkpt lat="47.78541" lon="-3.52032">
        <ele>36.5</ele>
        <time>2020-07-10T09:15:27Z</time>
      </trkpt>
      <trkpt lat="47.78538" lon="-3.52035">
        <ele>36.59</ele>
        <time>2020-07-10T09:15:28Z</time>
      </trkpt>
      <trkpt lat="47.78536" lon="-3.52039">
        <ele>36.68</ele>
        <time>2020-07-10T09:15:29Z</time>
      </trkpt>
      <trkpt lat="47.78533" lon="-3.52045">
        <ele>36.77</ele>
        <time>2020-07-10T09:15:30Z</time>
      </trkpt>
      <trkpt lat="47.78533" lon="-3.52052">
        <ele>36.81</ele>
        <time>2020-07-10T09:15:31Z</time>
      </trkpt>
      <trkpt lat="47.78532" lon="-3.5206">
        <ele>36.74</ele>
        <time>2020-07-10T09:15:32Z</time>
      </trkpt>
      <trkpt lat="47.78531" lon="-3.52068">
        <ele>36.57</ele>
        <time>2020-07-10T09:15:33Z</time>
      </trkpt>
      <trkpt lat="47.7853" lon="-3.52077">
        <ele>36.33</ele>
        <time>2020-07-10T09:15:34Z</time>
      </trkpt>
      <trkpt lat="47.7853" lon="-3.52086">
        <ele>36.1</ele>
        <time>2020-07-10T09:15:35Z</time>
      </trkpt>
      <trkpt lat="47.78529" lon="-3.52095">
        <ele>36.03</ele>
        <time>2020-07-10T09:15:36Z</time>
      </trkpt>
      <trkpt lat="47.78529" lon="-3.52104">
        <ele>36.01</ele>
        <time>2020-07-10T09:15:37Z</time>
      </trkpt>
      <trkpt lat="47.78529" lon="-3.52113">
        <ele>35.96</ele>
        <time>2020-07-10T09:15:38Z</time>
      </trkpt>
      <trkpt lat="47.78529" lon="-3.52122">
        <ele>35.72</ele>
        <time>2020-07-10T09:15:39Z</time>
      </trkpt>
      <trkpt lat="47.7853" lon="-3.52131">
        <ele>35.44</ele>
        <time>2020-07-10T09:15:40Z</time>
      </trkpt>
      <trkpt lat="47.7853" lon="-3.5214">
        <ele>35.19</ele>
        <time>2020-07-10T09:15:41Z</time>
      </trkpt>
      <trkpt lat="47.78531" lon="-3.52149">
        <ele>35.11</ele>
        <time>2020-07-10T09:15:42Z</time>
      </trkpt>
      <trkpt lat="47.78531" lon="-3.52157">
        <ele>35.06</ele>
        <time>2020-07-10T09:15:43Z</time>
      </trkpt>
      <trkpt lat="47.78531" lon="-3.52164">
        <ele>35.03</ele>
        <time>2020-07-10T09:15:44Z</time>
      </trkpt>
      <trkpt lat="47.78532" lon="-3.52172">
        <ele>35.01</ele>
        <time>2020-07-10T09:15:45Z</time>
      </trkpt>
      <trkpt lat="47.78533" lon="-3.5218">
        <ele>35</ele>
        <time>2020-07-10T09:15:46Z</time>
      </trkpt>
      <trkpt lat="47.78533" lon="-3.52188">
        <ele>35</ele>
        <time>2020-07-10T09:15:47Z</time>
      </trkpt>
      <trkpt lat="47.78533" lon="-3.52196">
        <ele>34.95</ele>
        <time>2020-07-10T09:15:48Z</time>
      </trkpt>
      <trkpt lat="47.78533" lon="-3.52205">
        <ele>34.73</ele>
        <time>2020-07-10T09:15:49Z</time>
      </trkpt>
      <trkpt lat="47.78533" lon="-3.52213">
        <ele>34.46</ele>
        <time>2020-07-10T09:15:50Z</time>
      </trkpt>
      <trkpt lat="47.78534" lon="-3.52222">
        <ele>34.15</ele>
        <time>2020-07-10T09:15:51Z</time>
      </trkpt>
      <trkpt lat="47.78534" lon="-3.5223">
        <ele>33.89</ele>
        <time>2020-07-10T09:15:52Z</time>
      </trkpt>
      <trkpt lat="47.78534" lon="-3.52239">
        <ele>33.65</ele>
        <time>2020-07-10T09:15:53Z</time>
      </trkpt>
      <trkpt lat="47.78534" lon="-3.52248">
        <ele>33.4</ele>
        <time>2020-07-10T09:15:54Z</time>
      </trkpt>
      <trkpt lat="47.78534" lon="-3.52257">
        <ele>33.11</ele>
        <time>2020-07-10T09:15:55Z</time>
      </trkpt>
      <trkpt lat="47.78534" lon="-3.52264">
        <ele>32.83</ele>
        <time>2020-07-10T09:15:56Z</time>
      </trkpt>
      <trkpt lat="47.78532" lon="-3.5227">
        <ele>32.55</ele>
        <time>2020-07-10T09:15:57Z</time>
      </trkpt>
      <trkpt lat="47.7853" lon="-3.52275">
        <ele>32.3</ele>
        <time>2020-07-10T09:15:58Z</time>
      </trkpt>
      <trkpt lat="47.78526" lon="-3.52277">
        <ele>32.02</ele>
        <time>2020-07-10T09:15:59Z</time>
      </trkpt>
      <trkpt lat="47.78522" lon="-3.52277">
        <ele>31.73</ele>
        <time>2020-07-10T09:16:00Z</time>
      </trkpt>
      <trkpt lat="47.78517" lon="-3.52275">
        <ele>31.47</ele>
        <time>2020-07-10T09:16:01Z</time>
      </trkpt>
      <trkpt lat="47.78512" lon="-3.52274">
        <ele>31.2</ele>
        <time>2020-07-10T09:16:02Z</time>
      </trkpt>
      <trkpt lat="47.78506" lon="-3.52272">
        <ele>30.91</ele>
        <time>2020-07-10T09:16:03Z</time>
      </trkpt>
      <trkpt lat="47.785" lon="-3.52271">
        <ele>30.61</ele>
        <time>2020-07-10T09:16:04Z</time>
      </trkpt>
      <trkpt lat="47.78494" lon="-3.52269">
        <ele>30.24</ele>
        <time>2020-07-10T09:16:05Z</time>
      </trkpt>
      <trkpt lat="47.78487" lon="-3.52268">
        <ele>29.82</ele>
        <time>2020-07-10T09:16:06Z</time>
      </trkpt>
      <trkpt lat="47.78481" lon="-3.52267">
        <ele>29.33</ele>
        <time>2020-07-10T09:16:07Z</time>
      </trkpt>
      <trkpt lat="47.78473" lon="-3.52266">
        <ele>28.76</ele>
        <time>2020-07-10T09:16:08Z</time>
      </trkpt>
      <trkpt lat="47.78465" lon="-3.52265">
        <ele>28.39</ele>
        <time>2020-07-10T09:16:09Z</time>
      </trkpt>
      <trkpt lat="47.78458" lon="-3.52264">
        <ele>28.11</ele>
        <time>2020-07-10T09:16:10Z</time>
      </trkpt>
      <trkpt lat="47.78451" lon="-3.52262">
        <ele>27.88</ele>
        <time>2020-07-10T09:16:11Z</time>
      </trkpt>
      <trkpt lat="47.78444" lon="-3.52261">
        <ele>27.73</ele>
        <time>2020-07-10T09:16:12Z</time>
      </trkpt>
      <trkpt lat="47.78438" lon="-3.5226">
        <ele>28.07</ele>
        <time>2020-07-10T09:16:13Z</time>
      </trkpt>
      <trkpt lat="47.78432" lon="-3.52259">
        <ele>28.55</ele>
        <time>2020-07-10T09:16:14Z</time>
      </trkpt>
      <trkpt lat="47.78426" lon="-3.52259">
        <ele>29.02</ele>
        <time>2020-07-10T09:16:15Z</time>
      </trkpt>
      <trkpt lat="47.78421" lon="-3.52258">
        <ele>29.45</ele>
        <time>2020-07-10T09:16:16Z</time>
      </trkpt>
      <trkpt lat="47.78417" lon="-3.52258">
        <ele>29.83</ele>
        <time>2020-07-10T09:16:17Z</time>
      </trkpt>
      <trkpt lat="47.78412" lon="-3.52257">
        <ele>30.28</ele>
        <time>2020-07-10T09:16:18Z</time>
      </trkpt>
      <trkpt lat="47.78408" lon="-3.52256">
        <ele>30.74</ele>
        <time>2020-07-10T09:16:19Z</time>
      </trkpt>
      <trkpt lat="47.78404" lon="-3.52256">
        <ele>31.17</ele>
        <time>2020-07-10T09:16:20Z</time>
      </trkpt>
      <trkpt lat="47.784" lon="-3.52255">
        <ele>31.6</ele>
        <time>2020-07-10T09:16:21Z</time>
      </trkpt>
      <trkpt lat="47.78396" lon="-3.52254">
        <ele>32.04</ele>
        <time>2020-07-10T09:16:22Z</time>
      </trkpt>
      <trkpt lat="47.78392" lon="-3.52255">
        <ele>32.46</ele>
        <time>2020-07-10T09:16:23Z</time>
      </trkpt>
      <trkpt lat="47.78389" lon="-3.52255">
        <ele>32.85</ele>
        <time>2020-07-10T09:16:24Z</time>
      </trkpt>
      <trkpt lat="47.78385" lon="-3.52256">
        <ele>33.05</ele>
        <time>2020-07-10T09:16:25Z</time>
      </trkpt>
      <trkpt lat="47.78382" lon="-3.52257">
        <ele>33.2</ele>
        <time>2020-07-10T09:16:26Z</time>
      </trkpt>
      <trkpt lat="47.78378" lon="-3.52258">
        <ele>33.33</ele>
        <time>2020-07-10T09:16:27Z</time>
      </trkpt>
      <trkpt lat="47.78375" lon="-3.52259">
        <ele>33.46</ele>
        <time>2020-07-10T09:16:28Z</time>
      </trkpt>
      <trkpt lat="47.78372" lon="-3.52262">
        <ele>33.57</ele>
        <time>2020-07-10T09:16:29Z</time>
      </trkpt>
      <trkpt lat="47.78368" lon="-3.52264">
        <ele>33.69</ele>
        <time>2020-07-10T09:16:30Z</time>
      </trkpt>
      <trkpt lat="47.78365" lon="-3.52265">
        <ele>33.82</ele>
        <time>2020-07-10T09:16:31Z</time>
      </trkpt>
      <trkpt lat="47.7836" lon="-3.52267">
        <ele>33.96</ele>
        <time>2020-07-10T09:16:32Z</time>
      </trkpt>
      <trkpt lat="47.78356" lon="-3.52269">
        <ele>34.11</ele>
        <time>2020-07-10T09:16:33Z</time>
      </trkpt>
      <trkpt lat="47.78352" lon="-3.52271">
        <ele>34.26</ele>
        <time>2020-07-10T09:16:34Z</time>
      </trkpt>
      <trkpt lat="47.78348" lon="-3.52273">
        <ele>34.4</ele>
        <time>2020-07-10T09:16:35Z</time>
      </trkpt>
      <trkpt lat="47.78345" lon="-3.52274">
        <ele>34.53</ele>
        <time>2020-07-10T09:16:36Z</time>
      </trkpt>
      <trkpt lat="47.78341" lon="-3.52275">
        <ele>34.65</ele>
        <time>2020-07-10T09:16:37Z</time>
      </trkpt>
      <trkpt lat="47.78338" lon="-3.52276">
        <ele>34.78</ele>
        <time>2020-07-10T09:16:38Z</time>
      </trkpt>
      <trkpt lat="47.78334" lon="-3.52278">
        <ele>34.91</ele>
        <time>2020-07-10T09:16:39Z</time>
      </trkpt>
      <trkpt lat="47.78331" lon="-3.52279">
        <ele>35.13</ele>
        <time>2020-07-10T09:16:40Z</time>
      </trkpt>
      <trkpt lat="47.78327" lon="-3.5228">
        <ele>35.4</ele>
        <time>2020-07-10T09:16:41Z</time>
      </trkpt>
      <trkpt lat="47.78324" lon="-3.52281">
        <ele>35.66</ele>
        <time>2020-07-10T09:16:42Z</time>
      </trkpt>
      <trkpt lat="47.7832" lon="-3.52282">
        <ele>35.92</ele>
        <time>2020-07-10T09:16:43Z</time>
      </trkpt>
      <trkpt lat="47.78317" lon="-3.52285">
        <ele>36.18</ele>
        <time>2020-07-10T09:16:44Z</time>
      </trkpt>
      <trkpt lat="47.78315" lon="-3.52288">
        <ele>36.38</ele>
        <time>2020-07-10T09:16:45Z</time>
      </trkpt>
      <trkpt lat="47.78314" lon="-3.52293">
        <ele>36.52</ele>
        <time>2020-07-10T09:16:46Z</time>
      </trkpt>
      <trkpt lat="47.78312" lon="-3.52298">
        <ele>36.64</ele>
        <time>2020-07-10T09:16:47Z</time>
      </trkpt>
      <trkpt lat="47.78311" lon="-3.52304">
        <ele>36.74</ele>
        <time>2020-07-10T09:16:48Z</time>
      </trkpt>
      <trkpt lat="47.7831" lon="-3.5231">
        <ele>36.9</ele>
        <time>2020-07-10T09:16:49Z</time>
      </trkpt>
      <trkpt lat="47.78308" lon="-3.52315">
        <ele>37.13</ele>
        <time>2020-07-10T09:16:50Z</time>
      </trkpt>
      <trkpt lat="47.78306" lon="-3.5232">
        <ele>37.39</ele>
        <time>2020-07-10T09:16:51Z</time>
      </trkpt>
      <trkpt lat="47.78305" lon="-3.52327">
        <ele>37.67</ele>
        <time>2020-07-10T09:16:52Z</time>
      </trkpt>
      <trkpt lat="47.78303" lon="-3.52332">
        <ele>37.93</ele>
        <time>2020-07-10T09:16:53Z</time>
      </trkpt>
      <trkpt lat="47.78302" lon="-3.52338">
        <ele>38.08</ele>
        <time>2020-07-10T09:16:54Z</time>
      </trkpt>
      <trkpt lat="47.783" lon="-3.52344">
        <ele>38.15</ele>
        <time>2020-07-10T09:16:55Z</time>
      </trkpt>
      <trkpt lat="47.783" lon="-3.5235">
        <ele>38.2</ele>
        <time>2020-07-10T09:16:56Z</time>
      </trkpt>
      <trkpt lat="47.78298" lon="-3.52357">
        <ele>38.24</ele>
        <time>2020-07-10T09:16:57Z</time>
      </trkpt>
      <trkpt lat="47.78298" lon="-3.52363">
        <ele>38.26</ele>
        <time>2020-07-10T09:16:58Z</time>
      </trkpt>
      <trkpt lat="47.78297" lon="-3.5237">
        <ele>38.28</ele>
        <time>2020-07-10T09:16:59Z</time>
      </trkpt>
      <trkpt lat="47.78297" lon="-3.52377">
        <ele>38.31</ele>
        <time>2020-07-10T09:17:00Z</time>
      </trkpt>
      <trkpt lat="47.78295" lon="-3.52384">
        <ele>38.35</ele>
        <time>2020-07-10T09:17:01Z</time>
      </trkpt>
      <trkpt lat="47.78295" lon="-3.52392">
        <ele>38.38</ele>
        <time>2020-07-10T09:17:02Z</time>
      </trkpt>
      <trkpt lat="47.78294" lon="-3.52399">
        <ele>38.4</ele>
        <time>2020-07-10T09:17:03Z</time>
      </trkpt>
      <trkpt lat="47.78293" lon="-3.52406">
        <ele>38.44</ele>
        <time>2020-07-10T09:17:04Z</time>
      </trkpt>
      <trkpt lat="47.78292" lon="-3.52413">
        <ele>38.48</ele>
        <time>2020-07-10T09:17:05Z</time>
      </trkpt>
      <trkpt lat="47.78291" lon="-3.5242">
        <ele>38.51</ele>
        <time>2020-07-10T09:17:06Z</time>
      </trkpt>
      <trkpt lat="47.7829" lon="-3.52427">
        <ele>38.54</ele>
        <time>2020-07-10T09:17:07Z</time>
      </trkpt>
      <trkpt lat="47.7829" lon="-3.52433">
        <ele>38.56</ele>
        <time>2020-07-10T09:17:08Z</time>
      </trkpt>
      <trkpt lat="47.78289" lon="-3.5244">
        <ele>38.58</ele>
        <time>2020-07-10T09:17:09Z</time>
      </trkpt>
      <trkpt lat="47.78288" lon="-3.52447">
        <ele>38.65</ele>
        <time>2020-07-10T09:17:10Z</time>
      </trkpt>
      <trkpt lat="47.78288" lon="-3.52455">
        <ele>38.81</ele>
        <time>2020-07-10T09:17:11Z</time>
      </trkpt>
      <trkpt lat="47.78287" lon="-3.52461">
        <ele>39.01</ele>
        <time>2020-07-10T09:17:12Z</time>
      </trkpt>
      <trkpt lat="47.78286" lon="-3.52468">
        <ele>39.23</ele>
        <time>2020-07-10T09:17:13Z</time>
      </trkpt>
      <trkpt lat="47.78285" lon="-3.52475">
        <ele>39.41</ele>
        <time>2020-07-10T09:17:14Z</time>
      </trkpt>
      <trkpt lat="47.78284" lon="-3.52483">
        <ele>39.5</ele>
        <time>2020-07-10T09:17:15Z</time>
      </trkpt>
      <trkpt lat="47.78283" lon="-3.5249">
        <ele>39.57</ele>
        <time>2020-07-10T09:17:16Z</time>
      </trkpt>
      <trkpt lat="47.78283" lon="-3.52498">
        <ele>39.62</ele>
        <time>2020-07-10T09:17:17Z</time>
      </trkpt>
      <trkpt lat="47.78282" lon="-3.52505">
        <ele>39.66</ele>
        <time>2020-07-10T09:17:18Z</time>
      </trkpt>
      <trkpt lat="47.78281" lon="-3.52512">
        <ele>39.72</ele>
        <time>2020-07-10T09:17:19Z</time>
      </trkpt>
      <trkpt lat="47.7828" lon="-3.5252">
        <ele>39.79</ele>
        <time>2020-07-10T09:17:20Z</time>
      </trkpt>
      <trkpt lat="47.78279" lon="-3.52527">
        <ele>39.87</ele>
        <time>2020-07-10T09:17:21Z</time>
      </trkpt>
      <trkpt lat="47.78278" lon="-3.52534">
        <ele>39.95</ele>
        <time>2020-07-10T09:17:22Z</time>
      </trkpt>
      <trkpt lat="47.78277" lon="-3.52541">
        <ele>40.02</ele>
        <time>2020-07-10T09:17:23Z</time>
      </trkpt>
      <trkpt lat="47.78276" lon="-3.52549">
        <ele>40.09</ele>
        <time>2020-07-10T09:17:24Z</time>
      </trkpt>
      <trkpt lat="47.78275" lon="-3.52556">
        <ele>40.17</ele>
        <time>2020-07-10T09:17:25Z</time>
      </trkpt>
      <trkpt lat="47.78274" lon="-3.52563">
        <ele>40.23</ele>
        <time>2020-07-10T09:17:26Z</time>
      </trkpt>
      <trkpt lat="47.78273" lon="-3.5257">
        <ele>40.3</ele>
        <time>2020-07-10T09:17:27Z</time>
      </trkpt>
      <trkpt lat="47.78272" lon="-3.52577">
        <ele>40.37</ele>
        <time>2020-07-10T09:17:28Z</time>
      </trkpt>
      <trkpt lat="47.78271" lon="-3.52584">
        <ele>40.46</ele>
        <time>2020-07-10T09:17:29Z</time>
      </trkpt>
      <trkpt lat="47.7827" lon="-3.52591">
        <ele>40.71</ele>
        <time>2020-07-10T09:17:30Z</time>
      </trkpt>
      <trkpt lat="47.78269" lon="-3.52598">
        <ele>41.01</ele>
        <time>2020-07-10T09:17:31Z</time>
      </trkpt>
      <trkpt lat="47.78268" lon="-3.52605">
        <ele>41.32</ele>
        <time>2020-07-10T09:17:32Z</time>
      </trkpt>
      <trkpt lat="47.78268" lon="-3.52612">
        <ele>41.59</ele>
        <time>2020-07-10T09:17:33Z</time>
      </trkpt>
      <trkpt lat="47.78267" lon="-3.52619">
        <ele>41.7</ele>
        <time>2020-07-10T09:17:34Z</time>
      </trkpt>
      <trkpt lat="47.78267" lon="-3.52626">
        <ele>41.77</ele>
        <time>2020-07-10T09:17:35Z</time>
      </trkpt>
      <trkpt lat="47.78266" lon="-3.52633">
        <ele>41.82</ele>
        <time>2020-07-10T09:17:36Z</time>
      </trkpt>
      <trkpt lat="47.78265" lon="-3.5264">
        <ele>41.88</ele>
        <time>2020-07-10T09:17:37Z</time>
      </trkpt>
      <trkpt lat="47.78265" lon="-3.52648">
        <ele>41.93</ele>
        <time>2020-07-10T09:17:38Z</time>
      </trkpt>
      <trkpt lat="47.78264" lon="-3.52655">
        <ele>41.98</ele>
        <time>2020-07-10T09:17:39Z</time>
      </trkpt>
      <trkpt lat="47.78263" lon="-3.52662">
        <ele>42.03</ele>
        <time>2020-07-10T09:17:40Z</time>
      </trkpt>
      <trkpt lat="47.78262" lon="-3.52669">
        <ele>42.06</ele>
        <time>2020-07-10T09:17:41Z</time>
      </trkpt>
      <trkpt lat="47.78261" lon="-3.52675">
        <ele>42.01</ele>
        <time>2020-07-10T09:17:42Z</time>
      </trkpt>
      <trkpt lat="47.7826" lon="-3.52682">
        <ele>41.93</ele>
        <time>2020-07-10T09:17:43Z</time>
      </trkpt>
      <trkpt lat="47.78259" lon="-3.5269">
        <ele>41.82</ele>
        <time>2020-07-10T09:17:44Z</time>
      </trkpt>
      <trkpt lat="47.78258" lon="-3.52697">
        <ele>41.73</ele>
        <time>2020-07-10T09:17:45Z</time>
      </trkpt>
      <trkpt lat="47.78256" lon="-3.52703">
        <ele>41.71</ele>
        <time>2020-07-10T09:17:46Z</time>
      </trkpt>
      <trkpt lat="47.78255" lon="-3.5271">
        <ele>41.74</ele>
        <time>2020-07-10T09:17:47Z</time>
      </trkpt>
      <trkpt lat="47.78253" lon="-3.52717">
        <ele>41.79</ele>
        <time>2020-07-10T09:17:48Z</time>
      </trkpt>
      <trkpt lat="47.78251" lon="-3.52723">
        <ele>41.87</ele>
        <time>2020-07-10T09:17:49Z</time>
      </trkpt>
      <trkpt lat="47.7825" lon="-3.5273">
        <ele>41.97</ele>
        <time>2020-07-10T09:17:50Z</time>
      </trkpt>
      <trkpt lat="47.78248" lon="-3.52737">
        <ele>42.09</ele>
        <time>2020-07-10T09:17:51Z</time>
      </trkpt>
      <trkpt lat="47.78245" lon="-3.52742">
        <ele>42.17</ele>
        <time>2020-07-10T09:17:52Z</time>
      </trkpt>
      <trkpt lat="47.78243" lon="-3.52748">
        <ele>42.23</ele>
        <time>2020-07-10T09:17:53Z</time>
      </trkpt>
      <trkpt lat="47.78241" lon="-3.52754">
        <ele>42.19</ele>
        <time>2020-07-10T09:17:54Z</time>
      </trkpt>
      <trkpt lat="47.78238" lon="-3.52759">
        <ele>42.14</ele>
        <time>2020-07-10T09:17:55Z</time>
      </trkpt>
      <trkpt lat="47.78235" lon="-3.52763">
        <ele>42.11</ele>
        <time>2020-07-10T09:17:56Z</time>
      </trkpt>
      <trkpt lat="47.7823" lon="-3.52764">
        <ele>42.18</ele>
        <time>2020-07-10T09:17:57Z</time>
      </trkpt>
      <trkpt lat="47.78226" lon="-3.52764">
        <ele>42.31</ele>
        <time>2020-07-10T09:17:58Z</time>
      </trkpt>
      <trkpt lat="47.7822" lon="-3.52764">
        <ele>42.52</ele>
        <time>2020-07-10T09:17:59Z</time>
      </trkpt>
      <trkpt lat="47.78214" lon="-3.52763">
        <ele>42.74</ele>
        <time>2020-07-10T09:18:00Z</time>
      </trkpt>
      <trkpt lat="47.78208" lon="-3.52763">
        <ele>42.96</ele>
        <time>2020-07-10T09:18:01Z</time>
      </trkpt>
      <trkpt lat="47.78203" lon="-3.52762">
        <ele>43.17</ele>
        <time>2020-07-10T09:18:02Z</time>
      </trkpt>
      <trkpt lat="47.78198" lon="-3.52761">
        <ele>43.38</ele>
        <time>2020-07-10T09:18:03Z</time>
      </trkpt>
      <trkpt lat="47.78193" lon="-3.52761">
        <ele>43.57</ele>
        <time>2020-07-10T09:18:04Z</time>
      </trkpt>
      <trkpt lat="47.78188" lon="-3.52761">
        <ele>43.76</ele>
        <time>2020-07-10T09:18:05Z</time>
      </trkpt>
      <trkpt lat="47.78183" lon="-3.52761">
        <ele>43.93</ele>
        <time>2020-07-10T09:18:06Z</time>
      </trkpt>
      <trkpt lat="47.78178" lon="-3.5276">
        <ele>44.14</ele>
        <time>2020-07-10T09:18:07Z</time>
      </trkpt>
      <trkpt lat="47.78174" lon="-3.52759">
        <ele>44.33</ele>
        <time>2020-07-10T09:18:08Z</time>
      </trkpt>
      <trkpt lat="47.78169" lon="-3.52758">
        <ele>44.54</ele>
        <time>2020-07-10T09:18:09Z</time>
      </trkpt>
      <trkpt lat="47.78163" lon="-3.52757">
        <ele>44.68</ele>
        <time>2020-07-10T09:18:10Z</time>
      </trkpt>
      <trkpt lat="47.78158" lon="-3.52757">
        <ele>44.73</ele>
        <time>2020-07-10T09:18:11Z</time>
      </trkpt>
      <trkpt lat="47.78153" lon="-3.52758">
        <ele>44.73</ele>
        <time>2020-07-10T09:18:12Z</time>
      </trkpt>
      <trkpt lat="47.78149" lon="-3.52759">
        <ele>44.7</ele>
        <time>2020-07-10T09:18:13Z</time>
      </trkpt>
      <trkpt lat="47.78143" lon="-3.52761">
        <ele>44.62</ele>
        <time>2020-07-10T09:18:14Z</time>
      </trkpt>
      <trkpt lat="47.78139" lon="-3.52763">
        <ele>44.57</ele>
        <time>2020-07-10T09:18:15Z</time>
      </trkpt>
      <trkpt lat="47.78133" lon="-3.52762">
        <ele>44.56</ele>
        <time>2020-07-10T09:18:16Z</time>
      </trkpt>
      <trkpt lat="47.78129" lon="-3.52764">
        <ele>44.51</ele>
        <time>2020-07-10T09:18:17Z</time>
      </trkpt>
      <trkpt lat="47.78124" lon="-3.52765">
        <ele>44.47</ele>
        <time>2020-07-10T09:18:18Z</time>
      </trkpt>
      <trkpt lat="47.78119" lon="-3.52766">
        <ele>44.45</ele>
        <time>2020-07-10T09:18:19Z</time>
      </trkpt>
      <trkpt lat="47.78114" lon="-3.52766">
        <ele>44.43</ele>
        <time>2020-07-10T09:18:20Z</time>
      </trkpt>
      <trkpt lat="47.78108" lon="-3.52766">
        <ele>44.43</ele>
        <time>2020-07-10T09:18:21Z</time>
      </trkpt>
      <trkpt lat="47.78103" lon="-3.52766">
        <ele>44.42</ele>
        <time>2020-07-10T09:18:22Z</time>
      </trkpt>
      <trkpt lat="47.78098" lon="-3.52766">
        <ele>44.42</ele>
        <time>2020-07-10T09:18:23Z</time>
      </trkpt>
      <trkpt lat="47.78093" lon="-3.52766">
        <ele>44.42</ele>
        <time>2020-07-10T09:18:24Z</time>
      </trkpt>
      <trkpt lat="47.78088" lon="-3.52766">
        <ele>44.42</ele>
        <time>2020-07-10T09:18:25Z</time>
      </trkpt>
      <trkpt lat="47.78083" lon="-3.52766">
        <ele>44.42</ele>
        <time>2020-07-10T09:18:26Z</time>
      </trkpt>
      <trkpt lat="47.78078" lon="-3.52766">
        <ele>44.42</ele>
        <time>2020-07-10T09:18:27Z</time>
      </trkpt>
      <trkpt lat="47.78073" lon="-3.52766">
        <ele>44.42</ele>
        <time>2020-07-10T09:18:28Z</time>
      </trkpt>
      <trkpt lat="47.78068" lon="-3.52766">
        <ele>44.43</ele>
        <time>2020-07-10T09:18:29Z</time>
      </trkpt>
      <trkpt lat="47.78062" lon="-3.52765">
        <ele>44.45</ele>
        <time>2020-07-10T09:18:30Z</time>
      </trkpt>
      <trkpt lat="47.78057" lon="-3.52764">
        <ele>44.48</ele>
        <time>2020-07-10T09:18:31Z</time>
      </trkpt>
      <trkpt lat="47.78052" lon="-3.52763">
        <ele>44.46</ele>
        <time>2020-07-10T09:18:32Z</time>
      </trkpt>
      <trkpt lat="47.78046" lon="-3.52762">
        <ele>44.4</ele>
        <time>2020-07-10T09:18:33Z</time>
      </trkpt>
      <trkpt lat="47.78041" lon="-3.5276">
        <ele>44.33</ele>
        <time>2020-07-10T09:18:34Z</time>
      </trkpt>
      <trkpt lat="47.78035" lon="-3.52758">
        <ele>44.24</ele>
        <time>2020-07-10T09:18:35Z</time>
      </trkpt>
      <trkpt lat="47.7803" lon="-3.52756">
        <ele>44.12</ele>
        <time>2020-07-10T09:18:36Z</time>
      </trkpt>
      <trkpt lat="47.78025" lon="-3.52754">
        <ele>44.03</ele>
        <time>2020-07-10T09:18:37Z</time>
      </trkpt>
      <trkpt lat="47.78021" lon="-3.52753">
        <ele>43.99</ele>
        <time>2020-07-10T09:18:38Z</time>
      </trkpt>
      <trkpt lat="47.78016" lon="-3.5275">
        <ele>43.99</ele>
        <time>2020-07-10T09:18:39Z</time>
      </trkpt>
      <trkpt lat="47.78012" lon="-3.52748">
        <ele>44.02</ele>
        <time>2020-07-10T09:18:40Z</time>
      </trkpt>
      <trkpt lat="47.78007" lon="-3.52746">
        <ele>44.03</ele>
        <time>2020-07-10T09:18:41Z</time>
      </trkpt>
      <trkpt lat="47.78002" lon="-3.52745">
        <ele>44.02</ele>
        <time>2020-07-10T09:18:42Z</time>
      </trkpt>
      <trkpt lat="47.77996" lon="-3.52743">
        <ele>43.91</ele>
        <time>2020-07-10T09:18:43Z</time>
      </trkpt>
      <trkpt lat="47.77991" lon="-3.52741">
        <ele>43.74</ele>
        <time>2020-07-10T09:18:44Z</time>
      </trkpt>
      <trkpt lat="47.77985" lon="-3.52738">
        <ele>43.54</ele>
        <time>2020-07-10T09:18:45Z</time>
      </trkpt>
      <trkpt lat="47.77979" lon="-3.52736">
        <ele>43.34</ele>
        <time>2020-07-10T09:18:46Z</time>
      </trkpt>
      <trkpt lat="47.77973" lon="-3.52733">
        <ele>43.13</ele>
        <time>2020-07-10T09:18:47Z</time>
      </trkpt>
      <trkpt lat="47.77967" lon="-3.52731">
        <ele>42.91</ele>
        <time>2020-07-10T09:18:48Z</time>
      </trkpt>
      <trkpt lat="47.77961" lon="-3.52729">
        <ele>42.69</ele>
        <time>2020-07-10T09:18:49Z</time>
      </trkpt>
      <trkpt lat="47.77955" lon="-3.52727">
        <ele>42.47</ele>
        <time>2020-07-10T09:18:50Z</time>
      </trkpt>
      <trkpt lat="47.77949" lon="-3.52724">
        <ele>42.25</ele>
        <time>2020-07-10T09:18:51Z</time>
      </trkpt>
      <trkpt lat="47.77942" lon="-3.52722">
        <ele>42.07</ele>
        <time>2020-07-10T09:18:52Z</time>
      </trkpt>
      <trkpt lat="47.77936" lon="-3.5272">
        <ele>42.06</ele>
        <time>2020-07-10T09:18:53Z</time>
      </trkpt>
      <trkpt lat="47.7793" lon="-3.52718">
        <ele>42.07</ele>
        <time>2020-07-10T09:18:54Z</time>
      </trkpt>
      <trkpt lat="47.77924" lon="-3.52715">
        <ele>42.07</ele>
        <time>2020-07-10T09:18:55Z</time>
      </trkpt>
      <trkpt lat="47.77917" lon="-3.52713">
        <ele>42.03</ele>
        <time>2020-07-10T09:18:56Z</time>
      </trkpt>
      <trkpt lat="47.77911" lon="-3.5271">
        <ele>41.86</ele>
        <time>2020-07-10T09:18:57Z</time>
      </trkpt>
      <trkpt lat="47.77904" lon="-3.52708">
        <ele>41.64</ele>
        <time>2020-07-10T09:18:58Z</time>
      </trkpt>
      <trkpt lat="47.77897" lon="-3.52705">
        <ele>41.39</ele>
        <time>2020-07-10T09:18:59Z</time>
      </trkpt>
      <trkpt lat="47.7789" lon="-3.52702">
        <ele>41.15</ele>
        <time>2020-07-10T09:19:00Z</time>
      </trkpt>
      <trkpt lat="47.77883" lon="-3.52699">
        <ele>40.87</ele>
        <time>2020-07-10T09:19:01Z</time>
      </trkpt>
      <trkpt lat="47.77876" lon="-3.52695">
        <ele>40.62</ele>
        <time>2020-07-10T09:19:02Z</time>
      </trkpt>
      <trkpt lat="47.77869" lon="-3.52692">
        <ele>40.39</ele>
        <time>2020-07-10T09:19:03Z</time>
      </trkpt>
      <trkpt lat="47.77861" lon="-3.52689">
        <ele>40.12</ele>
        <time>2020-07-10T09:19:04Z</time>
      </trkpt>
      <trkpt lat="47.77854" lon="-3.52686">
        <ele>39.86</ele>
        <time>2020-07-10T09:19:05Z</time>
      </trkpt>
      <trkpt lat="47.77847" lon="-3.52684">
        <ele>39.6</ele>
        <time>2020-07-10T09:19:06Z</time>
      </trkpt>
      <trkpt lat="47.77839" lon="-3.52682">
        <ele>39.33</ele>
        <time>2020-07-10T09:19:07Z</time>
      </trkpt>
      <trkpt lat="47.77832" lon="-3.52679">
        <ele>39.05</ele>
        <time>2020-07-10T09:19:08Z</time>
      </trkpt>
      <trkpt lat="47.77825" lon="-3.52676">
        <ele>38.73</ele>
        <time>2020-07-10T09:19:09Z</time>
      </trkpt>
      <trkpt lat="47.77817" lon="-3.52673">
        <ele>38.42</ele>
        <time>2020-07-10T09:19:10Z</time>
      </trkpt>
      <trkpt lat="47.7781" lon="-3.5267">
        <ele>38.17</ele>
        <time>2020-07-10T09:19:11Z</time>
      </trkpt>
      <trkpt lat="47.77802" lon="-3.52666">
        <ele>37.97</ele>
        <time>2020-07-10T09:19:12Z</time>
      </trkpt>
      <trkpt lat="47.77795" lon="-3.52664">
        <ele>37.79</ele>
        <time>2020-07-10T09:19:13Z</time>
      </trkpt>
      <trkpt lat="47.77787" lon="-3.52661">
        <ele>37.61</ele>
        <time>2020-07-10T09:19:14Z</time>
      </trkpt>
      <trkpt lat="47.7778" lon="-3.52658">
        <ele>37.44</ele>
        <time>2020-07-10T09:19:15Z</time>
      </trkpt>
      <trkpt lat="47.77772" lon="-3.52655">
        <ele>37.28</ele>
        <time>2020-07-10T09:19:16Z</time>
      </trkpt>
      <trkpt lat="47.77765" lon="-3.52652">
        <ele>37.12</ele>
        <time>2020-07-10T09:19:17Z</time>
      </trkpt>
      <trkpt lat="47.77758" lon="-3.52649">
        <ele>36.97</ele>
        <time>2020-07-10T09:19:18Z</time>
      </trkpt>
      <trkpt lat="47.7775" lon="-3.52646">
        <ele>36.81</ele>
        <time>2020-07-10T09:19:19Z</time>
      </trkpt>
      <trkpt lat="47.77742" lon="-3.52642">
        <ele>36.44</ele>
        <time>2020-07-10T09:19:20Z</time>
      </trkpt>
      <trkpt lat="47.77734" lon="-3.52639">
        <ele>36.02</ele>
        <time>2020-07-10T09:19:21Z</time>
      </trkpt>
      <trkpt lat="47.77726" lon="-3.52636">
        <ele>35.56</ele>
        <time>2020-07-10T09:19:22Z</time>
      </trkpt>
      <trkpt lat="47.77718" lon="-3.52633">
        <ele>35.2</ele>
        <time>2020-07-10T09:19:23Z</time>
      </trkpt>
      <trkpt lat="47.7771" lon="-3.5263">
        <ele>34.97</ele>
        <time>2020-07-10T09:19:24Z</time>
      </trkpt>
      <trkpt lat="47.77701" lon="-3.52627">
        <ele>34.76</ele>
        <time>2020-07-10T09:19:25Z</time>
      </trkpt>
      <trkpt lat="47.77692" lon="-3.52624">
        <ele>34.56</ele>
        <time>2020-07-10T09:19:26Z</time>
      </trkpt>
      <trkpt lat="47.77684" lon="-3.5262">
        <ele>34.36</ele>
        <time>2020-07-10T09:19:27Z</time>
      </trkpt>
      <trkpt lat="47.77675" lon="-3.52617">
        <ele>34.17</ele>
        <time>2020-07-10T09:19:28Z</time>
      </trkpt>
      <trkpt lat="47.77667" lon="-3.52614">
        <ele>33.99</ele>
        <time>2020-07-10T09:19:29Z</time>
      </trkpt>
      <trkpt lat="47.77659" lon="-3.52611">
        <ele>34</ele>
        <time>2020-07-10T09:19:30Z</time>
      </trkpt>
      <trkpt lat="47.77651" lon="-3.52607">
        <ele>34.04</ele>
        <time>2020-07-10T09:19:31Z</time>
      </trkpt>
      <trkpt lat="47.77644" lon="-3.52603">
        <ele>34.05</ele>
        <time>2020-07-10T09:19:32Z</time>
      </trkpt>
      <trkpt lat="47.77637" lon="-3.52599">
        <ele>33.96</ele>
        <time>2020-07-10T09:19:33Z</time>
      </trkpt>
      <trkpt lat="47.7763" lon="-3.52596">
        <ele>33.76</ele>
        <time>2020-07-10T09:19:34Z</time>
      </trkpt>
      <trkpt lat="47.77624" lon="-3.52593">
        <ele>33.56</ele>
        <time>2020-07-10T09:19:35Z</time>
      </trkpt>
      <trkpt lat="47.7762" lon="-3.52593">
        <ele>33.38</ele>
        <time>2020-07-10T09:19:36Z</time>
      </trkpt>
      <trkpt lat="47.77615" lon="-3.52596">
        <ele>33.22</ele>
        <time>2020-07-10T09:19:37Z</time>
      </trkpt>
      <trkpt lat="47.77612" lon="-3.52601">
        <ele>33.08</ele>
        <time>2020-07-10T09:19:38Z</time>
      </trkpt>
      <trkpt lat="47.77611" lon="-3.52609">
        <ele>33.03</ele>
        <time>2020-07-10T09:19:39Z</time>
      </trkpt>
      <trkpt lat="47.77612" lon="-3.52618">
        <ele>33.02</ele>
        <time>2020-07-10T09:19:40Z</time>
      </trkpt>
      <trkpt lat="47.77612" lon="-3.52627">
        <ele>33.02</ele>
        <time>2020-07-10T09:19:41Z</time>
      </trkpt>
      <trkpt lat="47.77612" lon="-3.52636">
        <ele>33.01</ele>
        <time>2020-07-10T09:19:42Z</time>
      </trkpt>
      <trkpt lat="47.77612" lon="-3.52644">
        <ele>32.86</ele>
        <time>2020-07-10T09:19:43Z</time>
      </trkpt>
      <trkpt lat="47.77612" lon="-3.52653">
        <ele>32.6</ele>
        <time>2020-07-10T09:19:44Z</time>
      </trkpt>
      <trkpt lat="47.77611" lon="-3.52662">
        <ele>32.29</ele>
        <time>2020-07-10T09:19:45Z</time>
      </trkpt>
      <trkpt lat="47.77612" lon="-3.52671">
        <ele>32.09</ele>
        <time>2020-07-10T09:19:46Z</time>
      </trkpt>
      <trkpt lat="47.77612" lon="-3.52679">
        <ele>32.01</ele>
        <time>2020-07-10T09:19:47Z</time>
      </trkpt>
      <trkpt lat="47.77612" lon="-3.52688">
        <ele>31.98</ele>
        <time>2020-07-10T09:19:48Z</time>
      </trkpt>
      <trkpt lat="47.77612" lon="-3.52696">
        <ele>31.89</ele>
        <time>2020-07-10T09:19:49Z</time>
      </trkpt>
      <trkpt lat="47.77611" lon="-3.52704">
        <ele>31.48</ele>
        <time>2020-07-10T09:19:50Z</time>
      </trkpt>
      <trkpt lat="47.77611" lon="-3.52711">
        <ele>30.99</ele>
        <time>2020-07-10T09:19:51Z</time>
      </trkpt>
      <trkpt lat="47.77608" lon="-3.52718">
        <ele>30.51</ele>
        <time>2020-07-10T09:19:52Z</time>
      </trkpt>
      <trkpt lat="47.77604" lon="-3.52722">
        <ele>30.16</ele>
        <time>2020-07-10T09:19:53Z</time>
      </trkpt>
      <trkpt lat="47.77599" lon="-3.52723">
        <ele>30.01</ele>
        <time>2020-07-10T09:19:54Z</time>
      </trkpt>
      <trkpt lat="47.77594" lon="-3.52722">
        <ele>29.99</ele>
        <time>2020-07-10T09:19:55Z</time>
      </trkpt>
      <trkpt lat="47.77589" lon="-3.52721">
        <ele>30.02</ele>
        <time>2020-07-10T09:19:56Z</time>
      </trkpt>
      <trkpt lat="47.77583" lon="-3.5272">
        <ele>30.05</ele>
        <time>2020-07-10T09:19:57Z</time>
      </trkpt>
      <trkpt lat="47.77578" lon="-3.52719">
        <ele>29.81</ele>
        <time>2020-07-10T09:19:58Z</time>
      </trkpt>
      <trkpt lat="47.77572" lon="-3.52718">
        <ele>29.46</ele>
        <time>2020-07-10T09:19:59Z</time>
      </trkpt>
      <trkpt lat="47.77566" lon="-3.52718">
        <ele>29.08</ele>
        <time>2020-07-10T09:20:00Z</time>
      </trkpt>
      <trkpt lat="47.77559" lon="-3.52717">
        <ele>28.67</ele>
        <time>2020-07-10T09:20:01Z</time>
      </trkpt>
      <trkpt lat="47.77553" lon="-3.52715">
        <ele>28.2</ele>
        <time>2020-07-10T09:20:02Z</time>
      </trkpt>
      <trkpt lat="47.77546" lon="-3.52714">
        <ele>27.64</ele>
        <time>2020-07-10T09:20:03Z</time>
      </trkpt>
      <trkpt lat="47.77539" lon="-3.52713">
        <ele>27.02</ele>
        <time>2020-07-10T09:20:04Z</time>
      </trkpt>
      <trkpt lat="47.77532" lon="-3.52713">
        <ele>26.37</ele>
        <time>2020-07-10T09:20:05Z</time>
      </trkpt>
      <trkpt lat="47.77524" lon="-3.52712">
        <ele>25.8</ele>
        <time>2020-07-10T09:20:06Z</time>
      </trkpt>
      <trkpt lat="47.77516" lon="-3.52711">
        <ele>25.37</ele>
        <time>2020-07-10T09:20:07Z</time>
      </trkpt>
      <trkpt lat="47.77508" lon="-3.52711">
        <ele>24.98</ele>
        <time>2020-07-10T09:20:08Z</time>
      </trkpt>
      <trkpt lat="47.77499" lon="-3.5271">
        <ele>24.58</ele>
        <time>2020-07-10T09:20:09Z</time>
      </trkpt>
      <trkpt lat="47.7749" lon="-3.52709">
        <ele>24.27</ele>
        <time>2020-07-10T09:20:10Z</time>
      </trkpt>
      <trkpt lat="47.77482" lon="-3.52708">
        <ele>24</ele>
        <time>2020-07-10T09:20:11Z</time>
      </trkpt>
      <trkpt lat="47.77474" lon="-3.52706">
        <ele>23.75</ele>
        <time>2020-07-10T09:20:12Z</time>
      </trkpt>
      <trkpt lat="47.77466" lon="-3.52705">
        <ele>23.87</ele>
        <time>2020-07-10T09:20:13Z</time>
      </trkpt>
      <trkpt lat="47.77459" lon="-3.52704">
        <ele>24.18</ele>
        <time>2020-07-10T09:20:14Z</time>
      </trkpt>
      <trkpt lat="47.77451" lon="-3.52702">
        <ele>24.53</ele>
        <time>2020-07-10T09:20:15Z</time>
      </trkpt>
      <trkpt lat="47.77444" lon="-3.52702">
        <ele>24.86</ele>
        <time>2020-07-10T09:20:16Z</time>
      </trkpt>
      <trkpt lat="47.77438" lon="-3.52701">
        <ele>25</ele>
        <time>2020-07-10T09:20:17Z</time>
      </trkpt>
      <trkpt lat="47.77432" lon="-3.52701">
        <ele>25.07</ele>
        <time>2020-07-10T09:20:18Z</time>
      </trkpt>
      <trkpt lat="47.77426" lon="-3.527">
        <ele>25.11</ele>
        <time>2020-07-10T09:20:19Z</time>
      </trkpt>
      <trkpt lat="47.77421" lon="-3.527">
        <ele>25.14</ele>
        <time>2020-07-10T09:20:20Z</time>
      </trkpt>
      <trkpt lat="47.77416" lon="-3.52699">
        <ele>25.15</ele>
        <time>2020-07-10T09:20:21Z</time>
      </trkpt>
      <trkpt lat="47.77412" lon="-3.52699">
        <ele>25.03</ele>
        <time>2020-07-10T09:20:22Z</time>
      </trkpt>
      <trkpt lat="47.77409" lon="-3.527">
        <ele>24.93</ele>
        <time>2020-07-10T09:20:23Z</time>
      </trkpt>
      <trkpt lat="47.77406" lon="-3.527">
        <ele>24.79</ele>
        <time>2020-07-10T09:20:24Z</time>
      </trkpt>
      <trkpt lat="47.77401" lon="-3.52699">
        <ele>24.6</ele>
        <time>2020-07-10T09:20:25Z</time>
      </trkpt>
      <trkpt lat="47.77395" lon="-3.52699">
        <ele>24.36</ele>
        <time>2020-07-10T09:20:26Z</time>
      </trkpt>
      <trkpt lat="47.77389" lon="-3.52698">
        <ele>24.11</ele>
        <time>2020-07-10T09:20:27Z</time>
      </trkpt>
      <trkpt lat="47.77382" lon="-3.52697">
        <ele>23.55</ele>
        <time>2020-07-10T09:20:28Z</time>
      </trkpt>
      <trkpt lat="47.77376" lon="-3.52698">
        <ele>22.9</ele>
        <time>2020-07-10T09:20:29Z</time>
      </trkpt>
      <trkpt lat="47.77369" lon="-3.52698">
        <ele>22.19</ele>
        <time>2020-07-10T09:20:30Z</time>
      </trkpt>
      <trkpt lat="47.77363" lon="-3.52698">
        <ele>21.48</ele>
        <time>2020-07-10T09:20:31Z</time>
      </trkpt>
      <trkpt lat="47.77356" lon="-3.52695">
        <ele>20.77</ele>
        <time>2020-07-10T09:20:32Z</time>
      </trkpt>
      <trkpt lat="47.77349" lon="-3.52692">
        <ele>20.08</ele>
        <time>2020-07-10T09:20:33Z</time>
      </trkpt>
      <trkpt lat="47.77343" lon="-3.52688">
        <ele>19.44</ele>
        <time>2020-07-10T09:20:34Z</time>
      </trkpt>
      <trkpt lat="47.77336" lon="-3.52684">
        <ele>18.85</ele>
        <time>2020-07-10T09:20:35Z</time>
      </trkpt>
      <trkpt lat="47.77328" lon="-3.52681">
        <ele>18.21</ele>
        <time>2020-07-10T09:20:36Z</time>
      </trkpt>
      <trkpt lat="47.7732" lon="-3.52678">
        <ele>17.5</ele>
        <time>2020-07-10T09:20:37Z</time>
      </trkpt>
      <trkpt lat="47.77313" lon="-3.52676">
        <ele>16.74</ele>
        <time>2020-07-10T09:20:38Z</time>
      </trkpt>
      <trkpt lat="47.77305" lon="-3.52675">
        <ele>15.9</ele>
        <time>2020-07-10T09:20:39Z</time>
      </trkpt>
      <trkpt lat="47.77296" lon="-3.52676">
        <ele>14.9</ele>
        <time>2020-07-10T09:20:40Z</time>
      </trkpt>
      <trkpt lat="47.77289" lon="-3.52676">
        <ele>13.87</ele>
        <time>2020-07-10T09:20:41Z</time>
      </trkpt>
      <trkpt lat="47.77281" lon="-3.52677">
        <ele>12.85</ele>
        <time>2020-07-10T09:20:42Z</time>
      </trkpt>
      <trkpt lat="47.77274" lon="-3.52678">
        <ele>11.84</ele>
        <time>2020-07-10T09:20:43Z</time>
      </trkpt>
      <trkpt lat="47.77267" lon="-3.52678">
        <ele>10.87</ele>
        <time>2020-07-10T09:20:44Z</time>
      </trkpt>
      <trkpt lat="47.77263" lon="-3.52677">
        <ele>10.03</ele>
        <time>2020-07-10T09:20:45Z</time>
      </trkpt>
      <trkpt lat="47.77257" lon="-3.52677">
        <ele>9.22</ele>
        <time>2020-07-10T09:20:46Z</time>
      </trkpt>
      <trkpt lat="47.77253" lon="-3.52678">
        <ele>8.5</ele>
        <time>2020-07-10T09:20:47Z</time>
      </trkpt>
      <trkpt lat="47.77249" lon="-3.52681">
        <ele>8.09</ele>
        <time>2020-07-10T09:20:48Z</time>
      </trkpt>
      <trkpt lat="47.77246" lon="-3.52686">
        <ele>8.11</ele>
        <time>2020-07-10T09:20:49Z</time>
      </trkpt>
      <trkpt lat="47.77245" lon="-3.52693">
        <ele>8.4</ele>
        <time>2020-07-10T09:20:50Z</time>
      </trkpt>
      <trkpt lat="47.77245" lon="-3.52699">
        <ele>8.89</ele>
        <time>2020-07-10T09:20:51Z</time>
      </trkpt>
      <trkpt lat="47.77245" lon="-3.52705">
        <ele>9.43</ele>
        <time>2020-07-10T09:20:52Z</time>
      </trkpt>
      <trkpt lat="47.77245" lon="-3.52712">
        <ele>9.99</ele>
        <time>2020-07-10T09:20:53Z</time>
      </trkpt>
      <trkpt lat="47.77245" lon="-3.52718">
        <ele>10.59</ele>
        <time>2020-07-10T09:20:54Z</time>
      </trkpt>
      <trkpt lat="47.77244" lon="-3.52725">
        <ele>11.04</ele>
        <time>2020-07-10T09:20:55Z</time>
      </trkpt>
      <trkpt lat="47.77244" lon="-3.52732">
        <ele>11.22</ele>
        <time>2020-07-10T09:20:56Z</time>
      </trkpt>
      <trkpt lat="47.77243" lon="-3.5274">
        <ele>11.35</ele>
        <time>2020-07-10T09:20:57Z</time>
      </trkpt>
      <trkpt lat="47.77243" lon="-3.52748">
        <ele>11.46</ele>
        <time>2020-07-10T09:20:58Z</time>
      </trkpt>
      <trkpt lat="47.77242" lon="-3.52756">
        <ele>11.38</ele>
        <time>2020-07-10T09:20:59Z</time>
      </trkpt>
      <trkpt lat="47.77242" lon="-3.52764">
        <ele>11.15</ele>
        <time>2020-07-10T09:21:00Z</time>
      </trkpt>
      <trkpt lat="47.77242" lon="-3.52773">
        <ele>10.89</ele>
        <time>2020-07-10T09:21:01Z</time>
      </trkpt>
      <trkpt lat="47.77241" lon="-3.52781">
        <ele>10.49</ele>
        <time>2020-07-10T09:21:02Z</time>
      </trkpt>
      <trkpt lat="47.77243" lon="-3.5279">
        <ele>9.8</ele>
        <time>2020-07-10T09:21:03Z</time>
      </trkpt>
      <trkpt lat="47.77246" lon="-3.52798">
        <ele>9.07</ele>
        <time>2020-07-10T09:21:04Z</time>
      </trkpt>
      <trkpt lat="47.77252" lon="-3.52803">
        <ele>8.53</ele>
        <time>2020-07-10T09:21:05Z</time>
      </trkpt>
      <trkpt lat="47.77258" lon="-3.52806">
        <ele>8.35</ele>
        <time>2020-07-10T09:21:06Z</time>
      </trkpt>
      <trkpt lat="47.77263" lon="-3.52809">
        <ele>8.09</ele>
        <time>2020-07-10T09:21:07Z</time>
      </trkpt>
      <trkpt lat="47.77268" lon="-3.52813">
        <ele>7.78</ele>
        <time>2020-07-10T09:21:08Z</time>
      </trkpt>
      <trkpt lat="47.77272" lon="-3.52816">
        <ele>7.38</ele>
        <time>2020-07-10T09:21:09Z</time>
      </trkpt>
      <trkpt lat="47.77275" lon="-3.52821">
        <ele>6.87</ele>
        <time>2020-07-10T09:21:10Z</time>
      </trkpt>
      <trkpt lat="47.77277" lon="-3.52827">
        <ele>6.16</ele>
        <time>2020-07-10T09:21:11Z</time>
      </trkpt>
      <trkpt lat="47.77277" lon="-3.52834">
        <ele>5.3</ele>
        <time>2020-07-10T09:21:12Z</time>
      </trkpt>
      <trkpt lat="47.77274" lon="-3.5284">
        <ele>4.84</ele>
        <time>2020-07-10T09:21:13Z</time>
      </trkpt>
      <trkpt lat="47.7727" lon="-3.52845">
        <ele>4.53</ele>
        <time>2020-07-10T09:21:14Z</time>
      </trkpt>
      <trkpt lat="47.77266" lon="-3.52851">
        <ele>4.3</ele>
        <time>2020-07-10T09:21:15Z</time>
      </trkpt>
      <trkpt lat="47.77263" lon="-3.52857">
        <ele>4.14</ele>
        <time>2020-07-10T09:21:16Z</time>
      </trkpt>
      <trkpt lat="47.77261" lon="-3.52863">
        <ele>4</ele>
        <time>2020-07-10T09:21:17Z</time>
      </trkpt>
      <trkpt lat="47.77259" lon="-3.52868">
        <ele>3.82</ele>
        <time>2020-07-10T09:21:18Z</time>
      </trkpt>
      <trkpt lat="47.77257" lon="-3.52873">
        <ele>3.64</ele>
        <time>2020-07-10T09:21:19Z</time>
      </trkpt>
      <trkpt lat="47.77255" lon="-3.52877">
        <ele>3.48</ele>
        <time>2020-07-10T09:21:20Z</time>
      </trkpt>
      <trkpt lat="47.77252" lon="-3.5288">
        <ele>3.37</ele>
        <time>2020-07-10T09:21:21Z</time>
      </trkpt>
      <trkpt lat="47.77248" lon="-3.52881">
        <ele>3.27</ele>
        <time>2020-07-10T09:21:22Z</time>
      </trkpt>
      <trkpt lat="47.77245" lon="-3.52881">
        <ele>3.16</ele>
        <time>2020-07-10T09:21:23Z</time>
      </trkpt>
      <trkpt lat="47.77241" lon="-3.52879">
        <ele>3.09</ele>
        <time>2020-07-10T09:21:24Z</time>
      </trkpt>
      <trkpt lat="47.77237" lon="-3.52876">
        <ele>3.04</ele>
        <time>2020-07-10T09:21:25Z</time>
      </trkpt>
      <trkpt lat="47.77233" lon="-3.52872">
        <ele>3.01</ele>
        <time>2020-07-10T09:21:26Z</time>
      </trkpt>
      <trkpt lat="47.7723" lon="-3.52869">
        <ele>2.98</ele>
        <time>2020-07-10T09:21:27Z</time>
      </trkpt>
      <trkpt lat="47.77227" lon="-3.52866">
        <ele>2.97</ele>
        <time>2020-07-10T09:21:28Z</time>
      </trkpt>
      <trkpt lat="47.77223" lon="-3.52864">
        <ele>2.94</ele>
        <time>2020-07-10T09:21:29Z</time>
      </trkpt>
      <trkpt lat="47.7722" lon="-3.52861">
        <ele>2.79</ele>
        <time>2020-07-10T09:21:30Z</time>
      </trkpt>
      <trkpt lat="47.77216" lon="-3.52858">
        <ele>2.7</ele>
        <time>2020-07-10T09:21:31Z</time>
      </trkpt>
      <trkpt lat="47.77214" lon="-3.52853">
        <ele>2.76</ele>
        <time>2020-07-10T09:21:32Z</time>
      </trkpt>
      <trkpt lat="47.77214" lon="-3.5285">
        <ele>3.02</ele>
        <time>2020-07-10T09:21:33Z</time>
      </trkpt>
      <trkpt lat="47.77215" lon="-3.52847">
        <ele>3.38</ele>
        <time>2020-07-10T09:21:34Z</time>
      </trkpt>
      <trkpt lat="47.77217" lon="-3.52845">
        <ele>3.82</ele>
        <time>2020-07-10T09:21:35Z</time>
      </trkpt>
      <trkpt lat="47.7722" lon="-3.52842">
        <ele>4.39</ele>
        <time>2020-07-10T09:21:36Z</time>
      </trkpt>
      <trkpt lat="47.77221" lon="-3.52839">
        <ele>5.01</ele>
        <time>2020-07-10T09:21:37Z</time>
      </trkpt>
      <trkpt lat="47.77222" lon="-3.52835">
        <ele>5.56</ele>
        <time>2020-07-10T09:21:38Z</time>
      </trkpt>
      <trkpt lat="47.77222" lon="-3.52832">
        <ele>5.94</ele>
        <time>2020-07-10T09:21:39Z</time>
      </trkpt>
      <trkpt lat="47.77221" lon="-3.52828">
        <ele>6.17</ele>
        <time>2020-07-10T09:21:40Z</time>
      </trkpt>
      <trkpt lat="47.77219" lon="-3.52825">
        <ele>6.29</ele>
        <time>2020-07-10T09:21:41Z</time>
      </trkpt>
      <trkpt lat="47.77217" lon="-3.52822">
        <ele>6.29</ele>
        <time>2020-07-10T09:21:42Z</time>
      </trkpt>
      <trkpt lat="47.77215" lon="-3.52819">
        <ele>6.17</ele>
        <time>2020-07-10T09:21:43Z</time>
      </trkpt>
      <trkpt lat="47.77212" lon="-3.52816">
        <ele>5.99</ele>
        <time>2020-07-10T09:21:44Z</time>
      </trkpt>
      <trkpt lat="47.7721" lon="-3.52811">
        <ele>5.93</ele>
        <time>2020-07-10T09:21:45Z</time>
      </trkpt>
      <trkpt lat="47.77208" lon="-3.52807">
        <ele>5.82</ele>
        <time>2020-07-10T09:21:46Z</time>
      </trkpt>
      <trkpt lat="47.77206" lon="-3.52803">
        <ele>5.76</ele>
        <time>2020-07-10T09:21:47Z</time>
      </trkpt>
      <trkpt lat="47.77204" lon="-3.528">
        <ele>5.77</ele>
        <time>2020-07-10T09:21:48Z</time>
      </trkpt>
      <trkpt lat="47.77203" lon="-3.52796">
        <ele>5.85</ele>
        <time>2020-07-10T09:21:49Z</time>
      </trkpt>
      <trkpt lat="47.77201" lon="-3.52791">
        <ele>5.86</ele>
        <time>2020-07-10T09:21:50Z</time>
      </trkpt>
      <trkpt lat="47.77198" lon="-3.52787">
        <ele>5.87</ele>
        <time>2020-07-10T09:21:51Z</time>
      </trkpt>
      <trkpt lat="47.77197" lon="-3.52783">
        <ele>5.94</ele>
        <time>2020-07-10T09:21:52Z</time>
      </trkpt>
      <trkpt lat="47.77195" lon="-3.52779">
        <ele>6</ele>
        <time>2020-07-10T09:21:53Z</time>
      </trkpt>
      <trkpt lat="47.77194" lon="-3.52776">
        <ele>6.01</ele>
        <time>2020-07-10T09:21:54Z</time>
      </trkpt>
      <trkpt lat="47.77193" lon="-3.52773">
        <ele>5.92</ele>
        <time>2020-07-10T09:21:55Z</time>
      </trkpt>
      <trkpt lat="47.7719" lon="-3.52769">
        <ele>5.71</ele>
        <time>2020-07-10T09:21:56Z</time>
      </trkpt>
      <trkpt lat="47.77188" lon="-3.52764">
        <ele>5.53</ele>
        <time>2020-07-10T09:21:57Z</time>
      </trkpt>
      <trkpt lat="47.77186" lon="-3.5276">
        <ele>5.4</ele>
        <time>2020-07-10T09:21:58Z</time>
      </trkpt>
      <trkpt lat="47.77184" lon="-3.52755">
        <ele>5.28</ele>
        <time>2020-07-10T09:21:59Z</time>
      </trkpt>
      <trkpt lat="47.77181" lon="-3.52751">
        <ele>5.14</ele>
        <time>2020-07-10T09:22:00Z</time>
      </trkpt>
      <trkpt lat="47.77178" lon="-3.52747">
        <ele>4.9</ele>
        <time>2020-07-10T09:22:01Z</time>
      </trkpt>
      <trkpt lat="47.77175" lon="-3.52741">
        <ele>4.69</ele>
        <time>2020-07-10T09:22:02Z</time>
      </trkpt>
      <trkpt lat="47.77172" lon="-3.52736">
        <ele>4.56</ele>
        <time>2020-07-10T09:22:03Z</time>
      </trkpt>
      <trkpt lat="47.77169" lon="-3.52731">
        <ele>4.54</ele>
        <time>2020-07-10T09:22:04Z</time>
      </trkpt>
      <trkpt lat="47.77166" lon="-3.52727">
        <ele>4.6</ele>
        <time>2020-07-10T09:22:05Z</time>
      </trkpt>
      <trkpt lat="47.77164" lon="-3.52722">
        <ele>4.56</ele>
        <time>2020-07-10T09:22:06Z</time>
      </trkpt>
      <trkpt lat="47.77161" lon="-3.52718">
        <ele>4.32</ele>
        <time>2020-07-10T09:22:07Z</time>
      </trkpt>
      <trkpt lat="47.77158" lon="-3.52712">
        <ele>4.06</ele>
        <time>2020-07-10T09:22:08Z</time>
      </trkpt>
      <trkpt lat="47.77155" lon="-3.52707">
        <ele>3.9</ele>
        <time>2020-07-10T09:22:09Z</time>
      </trkpt>
      <trkpt lat="47.77153" lon="-3.52702">
        <ele>3.82</ele>
        <time>2020-07-10T09:22:10Z</time>
      </trkpt>
      <trkpt lat="47.77152" lon="-3.52696">
        <ele>3.83</ele>
        <time>2020-07-10T09:22:11Z</time>
      </trkpt>
      <trkpt lat="47.77149" lon="-3.52691">
        <ele>3.81</ele>
        <time>2020-07-10T09:22:12Z</time>
      </trkpt>
      <trkpt lat="47.77146" lon="-3.52687">
        <ele>3.75</ele>
        <time>2020-07-10T09:22:13Z</time>
      </trkpt>
      <trkpt lat="47.77143" lon="-3.52682">
        <ele>3.72</ele>
        <time>2020-07-10T09:22:14Z</time>
      </trkpt>
      <trkpt lat="47.77141" lon="-3.52676">
        <ele>3.74</ele>
        <time>2020-07-10T09:22:15Z</time>
      </trkpt>
      <trkpt lat="47.77137" lon="-3.52672">
        <ele>3.71</ele>
        <time>2020-07-10T09:22:16Z</time>
      </trkpt>
      <trkpt lat="47.77134" lon="-3.52666">
        <ele>3.68</ele>
        <time>2020-07-10T09:22:17Z</time>
      </trkpt>
      <trkpt lat="47.77131" lon="-3.52661">
        <ele>3.69</ele>
        <time>2020-07-10T09:22:18Z</time>
      </trkpt>
      <trkpt lat="47.77128" lon="-3.52656">
        <ele>3.75</ele>
        <time>2020-07-10T09:22:19Z</time>
      </trkpt>
      <trkpt lat="47.77125" lon="-3.52652">
        <ele>3.79</ele>
        <time>2020-07-10T09:22:20Z</time>
      </trkpt>
      <trkpt lat="47.77122" lon="-3.52648">
        <ele>3.87</ele>
        <time>2020-07-10T09:22:21Z</time>
      </trkpt>
      <trkpt lat="47.7712" lon="-3.52644">
        <ele>3.98</ele>
        <time>2020-07-10T09:22:22Z</time>
      </trkpt>
      <trkpt lat="47.77118" lon="-3.5264">
        <ele>4.13</ele>
        <time>2020-07-10T09:22:23Z</time>
      </trkpt>
      <trkpt lat="47.77116" lon="-3.52635">
        <ele>4.36</ele>
        <time>2020-07-10T09:22:24Z</time>
      </trkpt>
      <trkpt lat="47.77113" lon="-3.52631">
        <ele>4.61</ele>
        <time>2020-07-10T09:22:25Z</time>
      </trkpt>
      <trkpt lat="47.7711" lon="-3.52627">
        <ele>4.75</ele>
        <time>2020-07-10T09:22:26Z</time>
      </trkpt>
      <trkpt lat="47.77108" lon="-3.52623">
        <ele>4.78</ele>
        <time>2020-07-10T09:22:27Z</time>
      </trkpt>
      <trkpt lat="47.77105" lon="-3.52618">
        <ele>4.81</ele>
        <time>2020-07-10T09:22:28Z</time>
      </trkpt>
      <trkpt lat="47.77102" lon="-3.52613">
        <ele>4.87</ele>
        <time>2020-07-10T09:22:29Z</time>
      </trkpt>
      <trkpt lat="47.771" lon="-3.52609">
        <ele>5.03</ele>
        <time>2020-07-10T09:22:30Z</time>
      </trkpt>
      <trkpt lat="47.77097" lon="-3.52603">
        <ele>5.33</ele>
        <time>2020-07-10T09:22:31Z</time>
      </trkpt>
      <trkpt lat="47.77095" lon="-3.52598">
        <ele>5.71</ele>
        <time>2020-07-10T09:22:32Z</time>
      </trkpt>
      <trkpt lat="47.77092" lon="-3.52593">
        <ele>6.02</ele>
        <time>2020-07-10T09:22:33Z</time>
      </trkpt>
      <trkpt lat="47.77089" lon="-3.52588">
        <ele>6.26</ele>
        <time>2020-07-10T09:22:34Z</time>
      </trkpt>
      <trkpt lat="47.77087" lon="-3.52583">
        <ele>6.45</ele>
        <time>2020-07-10T09:22:35Z</time>
      </trkpt>
      <trkpt lat="47.77084" lon="-3.52577">
        <ele>6.48</ele>
        <time>2020-07-10T09:22:36Z</time>
      </trkpt>
      <trkpt lat="47.77081" lon="-3.52573">
        <ele>6.52</ele>
        <time>2020-07-10T09:22:37Z</time>
      </trkpt>
      <trkpt lat="47.77078" lon="-3.52568">
        <ele>6.65</ele>
        <time>2020-07-10T09:22:38Z</time>
      </trkpt>
      <trkpt lat="47.77076" lon="-3.52564">
        <ele>6.79</ele>
        <time>2020-07-10T09:22:39Z</time>
      </trkpt>
      <trkpt lat="47.77073" lon="-3.5256">
        <ele>6.88</ele>
        <time>2020-07-10T09:22:40Z</time>
      </trkpt>
      <trkpt lat="47.7707" lon="-3.52556">
        <ele>6.96</ele>
        <time>2020-07-10T09:22:41Z</time>
      </trkpt>
      <trkpt lat="47.77067" lon="-3.52552">
        <ele>7.02</ele>
        <time>2020-07-10T09:22:42Z</time>
      </trkpt>
      <trkpt lat="47.77064" lon="-3.52547">
        <ele>7.02</ele>
        <time>2020-07-10T09:22:43Z</time>
      </trkpt>
      <trkpt lat="47.77061" lon="-3.52543">
        <ele>6.97</ele>
        <time>2020-07-10T09:22:44Z</time>
      </trkpt>
      <trkpt lat="47.77059" lon="-3.52539">
        <ele>6.91</ele>
        <time>2020-07-10T09:22:45Z</time>
      </trkpt>
      <trkpt lat="47.77056" lon="-3.52535">
        <ele>6.81</ele>
        <time>2020-07-10T09:22:46Z</time>
      </trkpt>
      <trkpt lat="47.77053" lon="-3.52532">
        <ele>6.77</ele>
        <time>2020-07-10T09:22:47Z</time>
      </trkpt>
      <trkpt lat="47.7705" lon="-3.52529">
        <ele>6.76</ele>
        <time>2020-07-10T09:22:48Z</time>
      </trkpt>
      <trkpt lat="47.77047" lon="-3.52526">
        <ele>6.73</ele>
        <time>2020-07-10T09:22:49Z</time>
      </trkpt>
      <trkpt lat="47.77043" lon="-3.52524">
        <ele>6.67</ele>
        <time>2020-07-10T09:22:50Z</time>
      </trkpt>
      <trkpt lat="47.77041" lon="-3.52522">
        <ele>6.6</ele>
        <time>2020-07-10T09:22:51Z</time>
      </trkpt>
      <trkpt lat="47.77038" lon="-3.5252">
        <ele>6.52</ele>
        <time>2020-07-10T09:22:52Z</time>
      </trkpt>
      <trkpt lat="47.77037" lon="-3.5252">
        <ele>6.47</ele>
        <time>2020-07-10T09:22:53Z</time>
      </trkpt>
      <trkpt lat="47.77038" lon="-3.5252">
        <ele>6.46</ele>
        <time>2020-07-10T09:22:54Z</time>
      </trkpt>
      <trkpt lat="47.77038" lon="-3.5252">
        <ele>6.47</ele>
        <time>2020-07-10T09:22:55Z</time>
      </trkpt>
      <trkpt lat="47.77038" lon="-3.5252">
        <ele>6.47</ele>
        <time>2020-07-10T09:22:56Z</time>
      </trkpt>
      <trkpt lat="47.77038" lon="-3.5252">
        <ele>6.47</ele>
        <time>2020-07-10T09:22:57Z</time>
      </trkpt>
      <trkpt lat="47.77038" lon="-3.5252">
        <ele>6.47</ele>
        <time>2020-07-10T09:22:58Z</time>
      </trkpt>
      <trkpt lat="47.77038" lon="-3.5252">
        <ele>6.47</ele>
        <time>2020-07-10T09:22:59Z</time>
      </trkpt>
      <trkpt lat="47.77038" lon="-3.5252">
        <ele>6.47</ele>
        <time>2020-07-10T09:23:00Z</time>
      </trkpt>
      <trkpt lat="47.77038" lon="-3.5252">
        <ele>6.47</ele>
        <time>2020-07-10T09:23:01Z</time>
      </trkpt>
      <trkpt lat="47.77038" lon="-3.5252">
        <ele>6.47</ele>
        <time>2020-07-10T09:23:02Z</time>
      </trkpt>
      <trkpt lat="47.77038" lon="-3.5252">
        <ele>6.47</ele>
        <time>2020-07-10T09:23:03Z</time>
      </trkpt>
      <trkpt lat="47.77038" lon="-3.5252">
        <ele>6.47</ele>
        <time>2020-07-10T09:23:04Z</time>
      </trkpt>
      <trkpt lat="47.77038" lon="-3.5252">
        <ele>6.47</ele>
        <time>2020-07-10T09:23:05Z</time>
      </trkpt>
      <trkpt lat="47.77038" lon="-3.5252">
        <ele>6.47</ele>
        <time>2020-07-10T09:23:06Z</time>
      </trkpt>
      <trkpt lat="47.77035" lon="-3.52518">
        <ele>6.4</ele>
        <time>2020-07-10T09:23:07Z</time>
      </trkpt>
      <trkpt lat="47.77033" lon="-3.52516">
        <ele>6.31</ele>
        <time>2020-07-10T09:23:08Z</time>
      </trkpt>
      <trkpt lat="47.7703" lon="-3.52514">
        <ele>6.2</ele>
        <time>2020-07-10T09:23:09Z</time>
      </trkpt>
      <trkpt lat="47.77027" lon="-3.52511">
        <ele>6.04</ele>
        <time>2020-07-10T09:23:10Z</time>
      </trkpt>
      <trkpt lat="47.77023" lon="-3.52509">
        <ele>5.9</ele>
        <time>2020-07-10T09:23:11Z</time>
      </trkpt>
      <trkpt lat="47.77019" lon="-3.52507">
        <ele>5.75</ele>
        <time>2020-07-10T09:23:12Z</time>
      </trkpt>
      <trkpt lat="47.77014" lon="-3.52505">
        <ele>5.58</ele>
        <time>2020-07-10T09:23:13Z</time>
      </trkpt>
      <trkpt lat="47.7701" lon="-3.52504">
        <ele>5.41</ele>
        <time>2020-07-10T09:23:14Z</time>
      </trkpt>
      <trkpt lat="47.77005" lon="-3.52503">
        <ele>5.25</ele>
        <time>2020-07-10T09:23:15Z</time>
      </trkpt>
      <trkpt lat="47.77" lon="-3.52501">
        <ele>5.08</ele>
        <time>2020-07-10T09:23:16Z</time>
      </trkpt>
      <trkpt lat="47.76996" lon="-3.52499">
        <ele>5.13</ele>
        <time>2020-07-10T09:23:17Z</time>
      </trkpt>
      <trkpt lat="47.76991" lon="-3.52498">
        <ele>5.25</ele>
        <time>2020-07-10T09:23:18Z</time>
      </trkpt>
      <trkpt lat="47.76986" lon="-3.52497">
        <ele>5.38</ele>
        <time>2020-07-10T09:23:19Z</time>
      </trkpt>
      <trkpt lat="47.76982" lon="-3.52495">
        <ele>5.5</ele>
        <time>2020-07-10T09:23:20Z</time>
      </trkpt>
      <trkpt lat="47.76978" lon="-3.52494">
        <ele>5.59</ele>
        <time>2020-07-10T09:23:21Z</time>
      </trkpt>
      <trkpt lat="47.76973" lon="-3.52493">
        <ele>5.69</ele>
        <time>2020-07-10T09:23:22Z</time>
      </trkpt>
      <trkpt lat="47.76968" lon="-3.52492">
        <ele>5.73</ele>
        <time>2020-07-10T09:23:23Z</time>
      </trkpt>
      <trkpt lat="47.76963" lon="-3.52491">
        <ele>5.77</ele>
        <time>2020-07-10T09:23:24Z</time>
      </trkpt>
      <trkpt lat="47.76958" lon="-3.5249">
        <ele>5.81</ele>
        <time>2020-07-10T09:23:25Z</time>
      </trkpt>
      <trkpt lat="47.76953" lon="-3.52489">
        <ele>5.86</ele>
        <time>2020-07-10T09:23:26Z</time>
      </trkpt>
      <trkpt lat="47.76948" lon="-3.52488">
        <ele>5.92</ele>
        <time>2020-07-10T09:23:27Z</time>
      </trkpt>
      <trkpt lat="47.76943" lon="-3.52487">
        <ele>6</ele>
        <time>2020-07-10T09:23:28Z</time>
      </trkpt>
      <trkpt lat="47.76938" lon="-3.52486">
        <ele>6.16</ele>
        <time>2020-07-10T09:23:29Z</time>
      </trkpt>
      <trkpt lat="47.76933" lon="-3.52484">
        <ele>6.37</ele>
        <time>2020-07-10T09:23:30Z</time>
      </trkpt>
      <trkpt lat="47.76929" lon="-3.52482">
        <ele>6.61</ele>
        <time>2020-07-10T09:23:31Z</time>
      </trkpt>
      <trkpt lat="47.76924" lon="-3.52481">
        <ele>6.89</ele>
        <time>2020-07-10T09:23:32Z</time>
      </trkpt>
      <trkpt lat="47.76919" lon="-3.52479">
        <ele>7.2</ele>
        <time>2020-07-10T09:23:33Z</time>
      </trkpt>
      <trkpt lat="47.76915" lon="-3.52479">
        <ele>7.42</ele>
        <time>2020-07-10T09:23:34Z</time>
      </trkpt>
      <trkpt lat="47.7691" lon="-3.52478">
        <ele>7.51</ele>
        <time>2020-07-10T09:23:35Z</time>
      </trkpt>
      <trkpt lat="47.76905" lon="-3.52478">
        <ele>7.58</ele>
        <time>2020-07-10T09:23:36Z</time>
      </trkpt>
      <trkpt lat="47.76901" lon="-3.52476">
        <ele>7.66</ele>
        <time>2020-07-10T09:23:37Z</time>
      </trkpt>
      <trkpt lat="47.76896" lon="-3.52475">
        <ele>7.74</ele>
        <time>2020-07-10T09:23:38Z</time>
      </trkpt>
      <trkpt lat="47.76892" lon="-3.52475">
        <ele>7.81</ele>
        <time>2020-07-10T09:23:39Z</time>
      </trkpt>
      <trkpt lat="47.76887" lon="-3.52474">
        <ele>7.87</ele>
        <time>2020-07-10T09:23:40Z</time>
      </trkpt>
      <trkpt lat="47.76883" lon="-3.52473">
        <ele>7.94</ele>
        <time>2020-07-10T09:23:41Z</time>
      </trkpt>
      <trkpt lat="47.76879" lon="-3.52472">
        <ele>8.01</ele>
        <time>2020-07-10T09:23:42Z</time>
      </trkpt>
      <trkpt lat="47.76875" lon="-3.5247">
        <ele>8.09</ele>
        <time>2020-07-10T09:23:43Z</time>
      </trkpt>
      <trkpt lat="47.7687" lon="-3.52468">
        <ele>8.16</ele>
        <time>2020-07-10T09:23:44Z</time>
      </trkpt>
      <trkpt lat="47.76867" lon="-3.52467">
        <ele>8.2</ele>
        <time>2020-07-10T09:23:45Z</time>
      </trkpt>
      <trkpt lat="47.76863" lon="-3.52468">
        <ele>8.18</ele>
        <time>2020-07-10T09:23:46Z</time>
      </trkpt>
      <trkpt lat="47.76859" lon="-3.52471">
        <ele>8.09</ele>
        <time>2020-07-10T09:23:47Z</time>
      </trkpt>
      <trkpt lat="47.76855" lon="-3.52474">
        <ele>7.97</ele>
        <time>2020-07-10T09:23:48Z</time>
      </trkpt>
      <trkpt lat="47.76851" lon="-3.52479">
        <ele>7.75</ele>
        <time>2020-07-10T09:23:49Z</time>
      </trkpt>
      <trkpt lat="47.76847" lon="-3.52485">
        <ele>7.45</ele>
        <time>2020-07-10T09:23:50Z</time>
      </trkpt>
      <trkpt lat="47.76843" lon="-3.5249">
        <ele>7.11</ele>
        <time>2020-07-10T09:23:51Z</time>
      </trkpt>
      <trkpt lat="47.76839" lon="-3.52493">
        <ele>6.77</ele>
        <time>2020-07-10T09:23:52Z</time>
      </trkpt>
      <trkpt lat="47.76834" lon="-3.52497">
        <ele>6.42</ele>
        <time>2020-07-10T09:23:53Z</time>
      </trkpt>
      <trkpt lat="47.76829" lon="-3.52499">
        <ele>6.28</ele>
        <time>2020-07-10T09:23:54Z</time>
      </trkpt>
      <trkpt lat="47.76825" lon="-3.52501">
        <ele>6.3</ele>
        <time>2020-07-10T09:23:55Z</time>
      </trkpt>
      <trkpt lat="47.7682" lon="-3.52502">
        <ele>6.4</ele>
        <time>2020-07-10T09:23:56Z</time>
      </trkpt>
      <trkpt lat="47.76816" lon="-3.52504">
        <ele>6.5</ele>
        <time>2020-07-10T09:23:57Z</time>
      </trkpt>
      <trkpt lat="47.76812" lon="-3.52508">
        <ele>6.54</ele>
        <time>2020-07-10T09:23:58Z</time>
      </trkpt>
      <trkpt lat="47.76808" lon="-3.52512">
        <ele>6.52</ele>
        <time>2020-07-10T09:23:59Z</time>
      </trkpt>
      <trkpt lat="47.76805" lon="-3.52515">
        <ele>6.48</ele>
        <time>2020-07-10T09:24:00Z</time>
      </trkpt>
      <trkpt lat="47.76801" lon="-3.52517">
        <ele>6.41</ele>
        <time>2020-07-10T09:24:01Z</time>
      </trkpt>
      <trkpt lat="47.76797" lon="-3.5252">
        <ele>6.33</ele>
        <time>2020-07-10T09:24:02Z</time>
      </trkpt>
      <trkpt lat="47.76793" lon="-3.52522">
        <ele>6.24</ele>
        <time>2020-07-10T09:24:03Z</time>
      </trkpt>
      <trkpt lat="47.7679" lon="-3.52525">
        <ele>6.15</ele>
        <time>2020-07-10T09:24:04Z</time>
      </trkpt>
      <trkpt lat="47.76786" lon="-3.52527">
        <ele>6.06</ele>
        <time>2020-07-10T09:24:05Z</time>
      </trkpt>
      <trkpt lat="47.76783" lon="-3.52529">
        <ele>6.01</ele>
        <time>2020-07-10T09:24:06Z</time>
      </trkpt>
      <trkpt lat="47.76779" lon="-3.5253">
        <ele>6</ele>
        <time>2020-07-10T09:24:07Z</time>
      </trkpt>
      <trkpt lat="47.76775" lon="-3.52532">
        <ele>6</ele>
        <time>2020-07-10T09:24:08Z</time>
      </trkpt>
      <trkpt lat="47.76771" lon="-3.52534">
        <ele>6</ele>
        <time>2020-07-10T09:24:09Z</time>
      </trkpt>
      <trkpt lat="47.76767" lon="-3.52535">
        <ele>6</ele>
        <time>2020-07-10T09:24:10Z</time>
      </trkpt>
      <trkpt lat="47.76763" lon="-3.52536">
        <ele>6</ele>
        <time>2020-07-10T09:24:11Z</time>
      </trkpt>
      <trkpt lat="47.76758" lon="-3.52537">
        <ele>6</ele>
        <time>2020-07-10T09:24:12Z</time>
      </trkpt>
      <trkpt lat="47.76754" lon="-3.52536">
        <ele>6</ele>
        <time>2020-07-10T09:24:13Z</time>
      </trkpt>
      <trkpt lat="47.76749" lon="-3.52535">
        <ele>6</ele>
        <time>2020-07-10T09:24:14Z</time>
      </trkpt>
      <trkpt lat="47.76744" lon="-3.52533">
        <ele>6</ele>
        <time>2020-07-10T09:24:15Z</time>
      </trkpt>
      <trkpt lat="47.76739" lon="-3.5253">
        <ele>6</ele>
        <time>2020-07-10T09:24:16Z</time>
      </trkpt>
      <trkpt lat="47.76735" lon="-3.52527">
        <ele>6.02</ele>
        <time>2020-07-10T09:24:17Z</time>
      </trkpt>
      <trkpt lat="47.76731" lon="-3.52523">
        <ele>6.14</ele>
        <time>2020-07-10T09:24:18Z</time>
      </trkpt>
      <trkpt lat="47.76727" lon="-3.52518">
        <ele>6.27</ele>
        <time>2020-07-10T09:24:19Z</time>
      </trkpt>
      <trkpt lat="47.76723" lon="-3.52515">
        <ele>6.41</ele>
        <time>2020-07-10T09:24:20Z</time>
      </trkpt>
      <trkpt lat="47.7672" lon="-3.52512">
        <ele>6.52</ele>
        <time>2020-07-10T09:24:21Z</time>
      </trkpt>
      <trkpt lat="47.76717" lon="-3.52509">
        <ele>6.63</ele>
        <time>2020-07-10T09:24:22Z</time>
      </trkpt>
      <trkpt lat="47.76713" lon="-3.52506">
        <ele>6.75</ele>
        <time>2020-07-10T09:24:23Z</time>
      </trkpt>
      <trkpt lat="47.7671" lon="-3.52502">
        <ele>6.88</ele>
        <time>2020-07-10T09:24:24Z</time>
      </trkpt>
      <trkpt lat="47.76707" lon="-3.52498">
        <ele>7.02</ele>
        <time>2020-07-10T09:24:25Z</time>
      </trkpt>
      <trkpt lat="47.76703" lon="-3.52493">
        <ele>7.18</ele>
        <time>2020-07-10T09:24:26Z</time>
      </trkpt>
      <trkpt lat="47.767" lon="-3.52488">
        <ele>7.35</ele>
        <time>2020-07-10T09:24:27Z</time>
      </trkpt>
      <trkpt lat="47.76697" lon="-3.52484">
        <ele>7.5</ele>
        <time>2020-07-10T09:24:28Z</time>
      </trkpt>
      <trkpt lat="47.76693" lon="-3.52481">
        <ele>7.58</ele>
        <time>2020-07-10T09:24:29Z</time>
      </trkpt>
      <trkpt lat="47.7669" lon="-3.52478">
        <ele>7.52</ele>
        <time>2020-07-10T09:24:30Z</time>
      </trkpt>
      <trkpt lat="47.76687" lon="-3.52475">
        <ele>7.44</ele>
        <time>2020-07-10T09:24:31Z</time>
      </trkpt>
      <trkpt lat="47.76685" lon="-3.52472">
        <ele>7.35</ele>
        <time>2020-07-10T09:24:32Z</time>
      </trkpt>
      <trkpt lat="47.76683" lon="-3.5247">
        <ele>7.28</ele>
        <time>2020-07-10T09:24:33Z</time>
      </trkpt>
      <trkpt lat="47.76681" lon="-3.5247">
        <ele>7.18</ele>
        <time>2020-07-10T09:24:34Z</time>
      </trkpt>
      <trkpt lat="47.7668" lon="-3.52468">
        <ele>7.16</ele>
        <time>2020-07-10T09:24:35Z</time>
      </trkpt>
      <trkpt lat="47.76679" lon="-3.52466">
        <ele>7.16</ele>
        <time>2020-07-10T09:24:36Z</time>
      </trkpt>
      <trkpt lat="47.76678" lon="-3.52464">
        <ele>7.16</ele>
        <time>2020-07-10T09:24:37Z</time>
      </trkpt>
      <trkpt lat="47.76676" lon="-3.52462">
        <ele>7.16</ele>
        <time>2020-07-10T09:24:38Z</time>
      </trkpt>
      <trkpt lat="47.76674" lon="-3.5246">
        <ele>7.18</ele>
        <time>2020-07-10T09:24:39Z</time>
      </trkpt>
      <trkpt lat="47.76672" lon="-3.52458">
        <ele>7.21</ele>
        <time>2020-07-10T09:24:40Z</time>
      </trkpt>
      <trkpt lat="47.76669" lon="-3.52456">
        <ele>7.22</ele>
        <time>2020-07-10T09:24:41Z</time>
      </trkpt>
      <trkpt lat="47.76666" lon="-3.52453">
        <ele>7.31</ele>
        <time>2020-07-10T09:24:42Z</time>
      </trkpt>
      <trkpt lat="47.76663" lon="-3.5245">
        <ele>7.43</ele>
        <time>2020-07-10T09:24:43Z</time>
      </trkpt>
      <trkpt lat="47.76661" lon="-3.52447">
        <ele>7.56</ele>
        <time>2020-07-10T09:24:44Z</time>
      </trkpt>
      <trkpt lat="47.76658" lon="-3.52446">
        <ele>7.59</ele>
        <time>2020-07-10T09:24:45Z</time>
      </trkpt>
      <trkpt lat="47.76655" lon="-3.52445">
        <ele>7.56</ele>
        <time>2020-07-10T09:24:46Z</time>
      </trkpt>
      <trkpt lat="47.76651" lon="-3.52445">
        <ele>7.45</ele>
        <time>2020-07-10T09:24:47Z</time>
      </trkpt>
      <trkpt lat="47.76647" lon="-3.52445">
        <ele>7.33</ele>
        <time>2020-07-10T09:24:48Z</time>
      </trkpt>
      <trkpt lat="47.76643" lon="-3.52445">
        <ele>7.18</ele>
        <time>2020-07-10T09:24:49Z</time>
      </trkpt>
      <trkpt lat="47.7664" lon="-3.52447">
        <ele>7.01</ele>
        <time>2020-07-10T09:24:50Z</time>
      </trkpt>
      <trkpt lat="47.76636" lon="-3.5245">
        <ele>6.85</ele>
        <time>2020-07-10T09:24:51Z</time>
      </trkpt>
      <trkpt lat="47.76634" lon="-3.52455">
        <ele>6.7</ele>
        <time>2020-07-10T09:24:52Z</time>
      </trkpt>
      <trkpt lat="47.76631" lon="-3.5246">
        <ele>6.53</ele>
        <time>2020-07-10T09:24:53Z</time>
      </trkpt>
      <trkpt lat="47.76629" lon="-3.52465">
        <ele>6.33</ele>
        <time>2020-07-10T09:24:54Z</time>
      </trkpt>
      <trkpt lat="47.76627" lon="-3.52471">
        <ele>6.14</ele>
        <time>2020-07-10T09:24:55Z</time>
      </trkpt>
      <trkpt lat="47.76623" lon="-3.52474">
        <ele>6.01</ele>
        <time>2020-07-10T09:24:56Z</time>
      </trkpt>
      <trkpt lat="47.7662" lon="-3.52476">
        <ele>5.94</ele>
        <time>2020-07-10T09:24:57Z</time>
      </trkpt>
      <trkpt lat="47.76616" lon="-3.52474">
        <ele>5.94</ele>
        <time>2020-07-10T09:24:58Z</time>
      </trkpt>
      <trkpt lat="47.76614" lon="-3.5247">
        <ele>6.04</ele>
        <time>2020-07-10T09:24:59Z</time>
      </trkpt>
      <trkpt lat="47.76613" lon="-3.52465">
        <ele>6.2</ele>
        <time>2020-07-10T09:25:00Z</time>
      </trkpt>
      <trkpt lat="47.76613" lon="-3.5246">
        <ele>6.36</ele>
        <time>2020-07-10T09:25:01Z</time>
      </trkpt>
      <trkpt lat="47.76615" lon="-3.52456">
        <ele>6.52</ele>
        <time>2020-07-10T09:25:02Z</time>
      </trkpt>
      <trkpt lat="47.76616" lon="-3.52451">
        <ele>6.69</ele>
        <time>2020-07-10T09:25:03Z</time>
      </trkpt>
      <trkpt lat="47.76618" lon="-3.52446">
        <ele>6.87</ele>
        <time>2020-07-10T09:25:04Z</time>
      </trkpt>
      <trkpt lat="47.7662" lon="-3.52441">
        <ele>7.13</ele>
        <time>2020-07-10T09:25:05Z</time>
      </trkpt>
      <trkpt lat="47.76622" lon="-3.52437">
        <ele>7.4</ele>
        <time>2020-07-10T09:25:06Z</time>
      </trkpt>
      <trkpt lat="47.76624" lon="-3.52434">
        <ele>7.66</ele>
        <time>2020-07-10T09:25:07Z</time>
      </trkpt>
      <trkpt lat="47.76627" lon="-3.52429">
        <ele>7.95</ele>
        <time>2020-07-10T09:25:08Z</time>
      </trkpt>
      <trkpt lat="47.76628" lon="-3.52425">
        <ele>8.28</ele>
        <time>2020-07-10T09:25:09Z</time>
      </trkpt>
      <trkpt lat="47.76629" lon="-3.52419">
        <ele>8.64</ele>
        <time>2020-07-10T09:25:10Z</time>
      </trkpt>
      <trkpt lat="47.76629" lon="-3.52415">
        <ele>8.97</ele>
        <time>2020-07-10T09:25:11Z</time>
      </trkpt>
      <trkpt lat="47.76627" lon="-3.52412">
        <ele>9.17</ele>
        <time>2020-07-10T09:25:12Z</time>
      </trkpt>
      <trkpt lat="47.76624" lon="-3.52411">
        <ele>9.28</ele>
        <time>2020-07-10T09:25:13Z</time>
      </trkpt>
      <trkpt lat="47.7662" lon="-3.5241">
        <ele>9.36</ele>
        <time>2020-07-10T09:25:14Z</time>
      </trkpt>
      <trkpt lat="47.76616" lon="-3.52409">
        <ele>9.46</ele>
        <time>2020-07-10T09:25:15Z</time>
      </trkpt>
      <trkpt lat="47.7661" lon="-3.52408">
        <ele>9.6</ele>
        <time>2020-07-10T09:25:16Z</time>
      </trkpt>
      <trkpt lat="47.76605" lon="-3.52407">
        <ele>9.82</ele>
        <time>2020-07-10T09:25:17Z</time>
      </trkpt>
      <trkpt lat="47.766" lon="-3.52406">
        <ele>10.04</ele>
        <time>2020-07-10T09:25:18Z</time>
      </trkpt>
      <trkpt lat="47.76596" lon="-3.52406">
        <ele>10.25</ele>
        <time>2020-07-10T09:25:19Z</time>
      </trkpt>
      <trkpt lat="47.76591" lon="-3.52405">
        <ele>10.46</ele>
        <time>2020-07-10T09:25:20Z</time>
      </trkpt>
      <trkpt lat="47.76586" lon="-3.52405">
        <ele>10.68</ele>
        <time>2020-07-10T09:25:21Z</time>
      </trkpt>
      <trkpt lat="47.76581" lon="-3.52404">
        <ele>10.79</ele>
        <time>2020-07-10T09:25:22Z</time>
      </trkpt>
      <trkpt lat="47.76576" lon="-3.52403">
        <ele>10.74</ele>
        <time>2020-07-10T09:25:23Z</time>
      </trkpt>
      <trkpt lat="47.76571" lon="-3.52402">
        <ele>10.65</ele>
        <time>2020-07-10T09:25:24Z</time>
      </trkpt>
      <trkpt lat="47.76566" lon="-3.52401">
        <ele>10.54</ele>
        <time>2020-07-10T09:25:25Z</time>
      </trkpt>
      <trkpt lat="47.76561" lon="-3.524">
        <ele>10.43</ele>
        <time>2020-07-10T09:25:26Z</time>
      </trkpt>
      <trkpt lat="47.76556" lon="-3.52399">
        <ele>10.35</ele>
        <time>2020-07-10T09:25:27Z</time>
      </trkpt>
      <trkpt lat="47.76551" lon="-3.52397">
        <ele>10.35</ele>
        <time>2020-07-10T09:25:28Z</time>
      </trkpt>
      <trkpt lat="47.76546" lon="-3.52395">
        <ele>10.35</ele>
        <time>2020-07-10T09:25:29Z</time>
      </trkpt>
      <trkpt lat="47.76541" lon="-3.52394">
        <ele>10.33</ele>
        <time>2020-07-10T09:25:30Z</time>
      </trkpt>
      <trkpt lat="47.76537" lon="-3.52392">
        <ele>10.28</ele>
        <time>2020-07-10T09:25:31Z</time>
      </trkpt>
      <trkpt lat="47.76532" lon="-3.5239">
        <ele>10.19</ele>
        <time>2020-07-10T09:25:32Z</time>
      </trkpt>
      <trkpt lat="47.76528" lon="-3.52388">
        <ele>10.15</ele>
        <time>2020-07-10T09:25:33Z</time>
      </trkpt>
      <trkpt lat="47.76523" lon="-3.52386">
        <ele>10.11</ele>
        <time>2020-07-10T09:25:34Z</time>
      </trkpt>
      <trkpt lat="47.76519" lon="-3.52384">
        <ele>10.04</ele>
        <time>2020-07-10T09:25:35Z</time>
      </trkpt>
      <trkpt lat="47.76515" lon="-3.52382">
        <ele>9.96</ele>
        <time>2020-07-10T09:25:36Z</time>
      </trkpt>
      <trkpt lat="47.76511" lon="-3.5238">
        <ele>9.8</ele>
        <time>2020-07-10T09:25:37Z</time>
      </trkpt>
      <trkpt lat="47.76506" lon="-3.52379">
        <ele>9.57</ele>
        <time>2020-07-10T09:25:38Z</time>
      </trkpt>
      <trkpt lat="47.76502" lon="-3.52377">
        <ele>9.27</ele>
        <time>2020-07-10T09:25:39Z</time>
      </trkpt>
      <trkpt lat="47.76497" lon="-3.52376">
        <ele>9.02</ele>
        <time>2020-07-10T09:25:40Z</time>
      </trkpt>
      <trkpt lat="47.76493" lon="-3.52373">
        <ele>8.82</ele>
        <time>2020-07-10T09:25:41Z</time>
      </trkpt>
      <trkpt lat="47.76488" lon="-3.52371">
        <ele>8.65</ele>
        <time>2020-07-10T09:25:42Z</time>
      </trkpt>
      <trkpt lat="47.76483" lon="-3.52369">
        <ele>8.48</ele>
        <time>2020-07-10T09:25:43Z</time>
      </trkpt>
      <trkpt lat="47.76478" lon="-3.52367">
        <ele>8.3</ele>
        <time>2020-07-10T09:25:44Z</time>
      </trkpt>
      <trkpt lat="47.76473" lon="-3.52364">
        <ele>8.1</ele>
        <time>2020-07-10T09:25:45Z</time>
      </trkpt>
      <trkpt lat="47.76467" lon="-3.52362">
        <ele>8.03</ele>
        <time>2020-07-10T09:25:46Z</time>
      </trkpt>
      <trkpt lat="47.76462" lon="-3.5236">
        <ele>8</ele>
        <time>2020-07-10T09:25:47Z</time>
      </trkpt>
      <trkpt lat="47.76456" lon="-3.52357">
        <ele>7.94</ele>
        <time>2020-07-10T09:25:48Z</time>
      </trkpt>
      <trkpt lat="47.76451" lon="-3.52354">
        <ele>7.85</ele>
        <time>2020-07-10T09:25:49Z</time>
      </trkpt>
      <trkpt lat="47.76446" lon="-3.52352">
        <ele>7.74</ele>
        <time>2020-07-10T09:25:50Z</time>
      </trkpt>
      <trkpt lat="47.76441" lon="-3.5235">
        <ele>7.59</ele>
        <time>2020-07-10T09:25:51Z</time>
      </trkpt>
      <trkpt lat="47.76436" lon="-3.52347">
        <ele>7.43</ele>
        <time>2020-07-10T09:25:52Z</time>
      </trkpt>
      <trkpt lat="47.76431" lon="-3.52345">
        <ele>7.28</ele>
        <time>2020-07-10T09:25:53Z</time>
      </trkpt>
      <trkpt lat="47.76426" lon="-3.52342">
        <ele>7.16</ele>
        <time>2020-07-10T09:25:54Z</time>
      </trkpt>
      <trkpt lat="47.76421" lon="-3.52339">
        <ele>7.07</ele>
        <time>2020-07-10T09:25:55Z</time>
      </trkpt>
      <trkpt lat="47.76416" lon="-3.52336">
        <ele>7.02</ele>
        <time>2020-07-10T09:25:56Z</time>
      </trkpt>
      <trkpt lat="47.76411" lon="-3.52334">
        <ele>7.01</ele>
        <time>2020-07-10T09:25:57Z</time>
      </trkpt>
      <trkpt lat="47.76406" lon="-3.52333">
        <ele>7</ele>
        <time>2020-07-10T09:25:58Z</time>
      </trkpt>
      <trkpt lat="47.76402" lon="-3.52331">
        <ele>7</ele>
        <time>2020-07-10T09:25:59Z</time>
      </trkpt>
      <trkpt lat="47.76397" lon="-3.52328">
        <ele>7</ele>
        <time>2020-07-10T09:26:00Z</time>
      </trkpt>
      <trkpt lat="47.76392" lon="-3.52326">
        <ele>7</ele>
        <time>2020-07-10T09:26:01Z</time>
      </trkpt>
      <trkpt lat="47.76387" lon="-3.52323">
        <ele>7.01</ele>
        <time>2020-07-10T09:26:02Z</time>
      </trkpt>
      <trkpt lat="47.76383" lon="-3.5232">
        <ele>7.08</ele>
        <time>2020-07-10T09:26:03Z</time>
      </trkpt>
      <trkpt lat="47.76378" lon="-3.52317">
        <ele>7.18</ele>
        <time>2020-07-10T09:26:04Z</time>
      </trkpt>
      <trkpt lat="47.76373" lon="-3.52314">
        <ele>7.32</ele>
        <time>2020-07-10T09:26:05Z</time>
      </trkpt>
      <trkpt lat="47.76368" lon="-3.52311">
        <ele>7.51</ele>
        <time>2020-07-10T09:26:06Z</time>
      </trkpt>
      <trkpt lat="47.76363" lon="-3.52309">
        <ele>7.73</ele>
        <time>2020-07-10T09:26:07Z</time>
      </trkpt>
      <trkpt lat="47.76357" lon="-3.52306">
        <ele>8</ele>
        <time>2020-07-10T09:26:08Z</time>
      </trkpt>
      <trkpt lat="47.76351" lon="-3.52304">
        <ele>8.24</ele>
        <time>2020-07-10T09:26:09Z</time>
      </trkpt>
      <trkpt lat="47.76346" lon="-3.52301">
        <ele>8.46</ele>
        <time>2020-07-10T09:26:10Z</time>
      </trkpt>
      <trkpt lat="47.7634" lon="-3.52299">
        <ele>8.68</ele>
        <time>2020-07-10T09:26:11Z</time>
      </trkpt>
      <trkpt lat="47.76334" lon="-3.52296">
        <ele>8.89</ele>
        <time>2020-07-10T09:26:12Z</time>
      </trkpt>
      <trkpt lat="47.76328" lon="-3.52294">
        <ele>9.12</ele>
        <time>2020-07-10T09:26:13Z</time>
      </trkpt>
      <trkpt lat="47.76322" lon="-3.52291">
        <ele>9.31</ele>
        <time>2020-07-10T09:26:14Z</time>
      </trkpt>
      <trkpt lat="47.76317" lon="-3.52289">
        <ele>9.43</ele>
        <time>2020-07-10T09:26:15Z</time>
      </trkpt>
      <trkpt lat="47.76311" lon="-3.52286">
        <ele>9.48</ele>
        <time>2020-07-10T09:26:16Z</time>
      </trkpt>
      <trkpt lat="47.76305" lon="-3.52284">
        <ele>9.45</ele>
        <time>2020-07-10T09:26:17Z</time>
      </trkpt>
      <trkpt lat="47.763" lon="-3.52281">
        <ele>9.3</ele>
        <time>2020-07-10T09:26:18Z</time>
      </trkpt>
      <trkpt lat="47.76294" lon="-3.52279">
        <ele>9.13</ele>
        <time>2020-07-10T09:26:19Z</time>
      </trkpt>
      <trkpt lat="47.76289" lon="-3.52276">
        <ele>9.06</ele>
        <time>2020-07-10T09:26:20Z</time>
      </trkpt>
      <trkpt lat="47.76283" lon="-3.52273">
        <ele>9.11</ele>
        <time>2020-07-10T09:26:21Z</time>
      </trkpt>
      <trkpt lat="47.76278" lon="-3.52271">
        <ele>9.2</ele>
        <time>2020-07-10T09:26:22Z</time>
      </trkpt>
      <trkpt lat="47.76272" lon="-3.52268">
        <ele>9.38</ele>
        <time>2020-07-10T09:26:23Z</time>
      </trkpt>
      <trkpt lat="47.76268" lon="-3.52266">
        <ele>9.56</ele>
        <time>2020-07-10T09:26:24Z</time>
      </trkpt>
      <trkpt lat="47.76262" lon="-3.52264">
        <ele>9.72</ele>
        <time>2020-07-10T09:26:25Z</time>
      </trkpt>
      <trkpt lat="47.76257" lon="-3.52262">
        <ele>9.84</ele>
        <time>2020-07-10T09:26:26Z</time>
      </trkpt>
      <trkpt lat="47.76252" lon="-3.5226">
        <ele>9.94</ele>
        <time>2020-07-10T09:26:27Z</time>
      </trkpt>
      <trkpt lat="47.76246" lon="-3.52258">
        <ele>9.95</ele>
        <time>2020-07-10T09:26:28Z</time>
      </trkpt>
      <trkpt lat="47.7624" lon="-3.52256">
        <ele>9.93</ele>
        <time>2020-07-10T09:26:29Z</time>
      </trkpt>
      <trkpt lat="47.76235" lon="-3.52254">
        <ele>9.93</ele>
        <time>2020-07-10T09:26:30Z</time>
      </trkpt>
      <trkpt lat="47.76229" lon="-3.52251">
        <ele>9.95</ele>
        <time>2020-07-10T09:26:31Z</time>
      </trkpt>
      <trkpt lat="47.76223" lon="-3.52249">
        <ele>10.01</ele>
        <time>2020-07-10T09:26:32Z</time>
      </trkpt>
      <trkpt lat="47.76218" lon="-3.52246">
        <ele>10.08</ele>
        <time>2020-07-10T09:26:33Z</time>
      </trkpt>
      <trkpt lat="47.76212" lon="-3.52244">
        <ele>10.12</ele>
        <time>2020-07-10T09:26:34Z</time>
      </trkpt>
      <trkpt lat="47.76206" lon="-3.52241">
        <ele>10.13</ele>
        <time>2020-07-10T09:26:35Z</time>
      </trkpt>
      <trkpt lat="47.762" lon="-3.52239">
        <ele>10.1</ele>
        <time>2020-07-10T09:26:36Z</time>
      </trkpt>
      <trkpt lat="47.76194" lon="-3.52235">
        <ele>10.03</ele>
        <time>2020-07-10T09:26:37Z</time>
      </trkpt>
      <trkpt lat="47.76189" lon="-3.52233">
        <ele>9.99</ele>
        <time>2020-07-10T09:26:38Z</time>
      </trkpt>
      <trkpt lat="47.76183" lon="-3.5223">
        <ele>10.04</ele>
        <time>2020-07-10T09:26:39Z</time>
      </trkpt>
      <trkpt lat="47.76178" lon="-3.52227">
        <ele>10.2</ele>
        <time>2020-07-10T09:26:40Z</time>
      </trkpt>
      <trkpt lat="47.76172" lon="-3.52225">
        <ele>10.45</ele>
        <time>2020-07-10T09:26:41Z</time>
      </trkpt>
      <trkpt lat="47.76167" lon="-3.52223">
        <ele>10.8</ele>
        <time>2020-07-10T09:26:42Z</time>
      </trkpt>
      <trkpt lat="47.76162" lon="-3.5222">
        <ele>10.82</ele>
        <time>2020-07-10T09:26:43Z</time>
      </trkpt>
      <trkpt lat="47.76157" lon="-3.52218">
        <ele>10.73</ele>
        <time>2020-07-10T09:26:44Z</time>
      </trkpt>
      <trkpt lat="47.76151" lon="-3.52216">
        <ele>10.62</ele>
        <time>2020-07-10T09:26:45Z</time>
      </trkpt>
      <trkpt lat="47.76146" lon="-3.52215">
        <ele>10.5</ele>
        <time>2020-07-10T09:26:46Z</time>
      </trkpt>
      <trkpt lat="47.76141" lon="-3.52213">
        <ele>10.42</ele>
        <time>2020-07-10T09:26:47Z</time>
      </trkpt>
      <trkpt lat="47.76136" lon="-3.5221">
        <ele>10.38</ele>
        <time>2020-07-10T09:26:48Z</time>
      </trkpt>
      <trkpt lat="47.76131" lon="-3.52208">
        <ele>10.4</ele>
        <time>2020-07-10T09:26:49Z</time>
      </trkpt>
      <trkpt lat="47.76126" lon="-3.52205">
        <ele>10.49</ele>
        <time>2020-07-10T09:26:50Z</time>
      </trkpt>
      <trkpt lat="47.76121" lon="-3.52203">
        <ele>10.65</ele>
        <time>2020-07-10T09:26:51Z</time>
      </trkpt>
      <trkpt lat="47.76116" lon="-3.52201">
        <ele>10.9</ele>
        <time>2020-07-10T09:26:52Z</time>
      </trkpt>
      <trkpt lat="47.76111" lon="-3.52199">
        <ele>11.26</ele>
        <time>2020-07-10T09:26:53Z</time>
      </trkpt>
      <trkpt lat="47.76105" lon="-3.52196">
        <ele>11.64</ele>
        <time>2020-07-10T09:26:54Z</time>
      </trkpt>
      <trkpt lat="47.761" lon="-3.52193">
        <ele>11.9</ele>
        <time>2020-07-10T09:26:55Z</time>
      </trkpt>
      <trkpt lat="47.76095" lon="-3.52191">
        <ele>12.02</ele>
        <time>2020-07-10T09:26:56Z</time>
      </trkpt>
      <trkpt lat="47.7609" lon="-3.52189">
        <ele>12.1</ele>
        <time>2020-07-10T09:26:57Z</time>
      </trkpt>
      <trkpt lat="47.76085" lon="-3.52187">
        <ele>12.21</ele>
        <time>2020-07-10T09:26:58Z</time>
      </trkpt>
      <trkpt lat="47.76079" lon="-3.52185">
        <ele>12.37</ele>
        <time>2020-07-10T09:26:59Z</time>
      </trkpt>
      <trkpt lat="47.76074" lon="-3.52183">
        <ele>12.55</ele>
        <time>2020-07-10T09:27:00Z</time>
      </trkpt>
      <trkpt lat="47.76069" lon="-3.5218">
        <ele>12.7</ele>
        <time>2020-07-10T09:27:01Z</time>
      </trkpt>
      <trkpt lat="47.76063" lon="-3.52178">
        <ele>12.83</ele>
        <time>2020-07-10T09:27:02Z</time>
      </trkpt>
      <trkpt lat="47.76058" lon="-3.52175">
        <ele>12.93</ele>
        <time>2020-07-10T09:27:03Z</time>
      </trkpt>
      <trkpt lat="47.76053" lon="-3.52173">
        <ele>12.98</ele>
        <time>2020-07-10T09:27:04Z</time>
      </trkpt>
      <trkpt lat="47.76048" lon="-3.5217">
        <ele>12.99</ele>
        <time>2020-07-10T09:27:05Z</time>
      </trkpt>
      <trkpt lat="47.76042" lon="-3.52167">
        <ele>13</ele>
        <time>2020-07-10T09:27:06Z</time>
      </trkpt>
      <trkpt lat="47.76037" lon="-3.52164">
        <ele>13.06</ele>
        <time>2020-07-10T09:27:07Z</time>
      </trkpt>
      <trkpt lat="47.76031" lon="-3.52162">
        <ele>13.14</ele>
        <time>2020-07-10T09:27:08Z</time>
      </trkpt>
      <trkpt lat="47.76025" lon="-3.52159">
        <ele>13.23</ele>
        <time>2020-07-10T09:27:09Z</time>
      </trkpt>
      <trkpt lat="47.76019" lon="-3.52157">
        <ele>13.32</ele>
        <time>2020-07-10T09:27:10Z</time>
      </trkpt>
      <trkpt lat="47.76014" lon="-3.52154">
        <ele>13.4</ele>
        <time>2020-07-10T09:27:11Z</time>
      </trkpt>
      <trkpt lat="47.76008" lon="-3.52152">
        <ele>13.49</ele>
        <time>2020-07-10T09:27:12Z</time>
      </trkpt>
      <trkpt lat="47.76002" lon="-3.5215">
        <ele>13.57</ele>
        <time>2020-07-10T09:27:13Z</time>
      </trkpt>
      <trkpt lat="47.75997" lon="-3.52147">
        <ele>13.66</ele>
        <time>2020-07-10T09:27:14Z</time>
      </trkpt>
      <trkpt lat="47.75992" lon="-3.52145">
        <ele>13.74</ele>
        <time>2020-07-10T09:27:15Z</time>
      </trkpt>
      <trkpt lat="47.75986" lon="-3.52143">
        <ele>13.83</ele>
        <time>2020-07-10T09:27:16Z</time>
      </trkpt>
      <trkpt lat="47.7598" lon="-3.5214">
        <ele>13.91</ele>
        <time>2020-07-10T09:27:17Z</time>
      </trkpt>
      <trkpt lat="47.75975" lon="-3.52137">
        <ele>13.94</ele>
        <time>2020-07-10T09:27:18Z</time>
      </trkpt>
      <trkpt lat="47.75969" lon="-3.52135">
        <ele>13.9</ele>
        <time>2020-07-10T09:27:19Z</time>
      </trkpt>
      <trkpt lat="47.75964" lon="-3.52132">
        <ele>13.9</ele>
        <time>2020-07-10T09:27:20Z</time>
      </trkpt>
      <trkpt lat="47.75959" lon="-3.5213">
        <ele>13.96</ele>
        <time>2020-07-10T09:27:21Z</time>
      </trkpt>
      <trkpt lat="47.75954" lon="-3.52128">
        <ele>14.07</ele>
        <time>2020-07-10T09:27:22Z</time>
      </trkpt>
      <trkpt lat="47.7595" lon="-3.52126">
        <ele>14.21</ele>
        <time>2020-07-10T09:27:23Z</time>
      </trkpt>
      <trkpt lat="47.75946" lon="-3.52124">
        <ele>14.41</ele>
        <time>2020-07-10T09:27:24Z</time>
      </trkpt>
      <trkpt lat="47.75941" lon="-3.52122">
        <ele>14.55</ele>
        <time>2020-07-10T09:27:25Z</time>
      </trkpt>
      <trkpt lat="47.75936" lon="-3.5212">
        <ele>14.64</ele>
        <time>2020-07-10T09:27:26Z</time>
      </trkpt>
      <trkpt lat="47.75931" lon="-3.52117">
        <ele>14.74</ele>
        <time>2020-07-10T09:27:27Z</time>
      </trkpt>
      <trkpt lat="47.75927" lon="-3.52115">
        <ele>14.83</ele>
        <time>2020-07-10T09:27:28Z</time>
      </trkpt>
      <trkpt lat="47.75921" lon="-3.52112">
        <ele>14.93</ele>
        <time>2020-07-10T09:27:29Z</time>
      </trkpt>
      <trkpt lat="47.75916" lon="-3.52109">
        <ele>15.03</ele>
        <time>2020-07-10T09:27:30Z</time>
      </trkpt>
      <trkpt lat="47.75911" lon="-3.52106">
        <ele>15.13</ele>
        <time>2020-07-10T09:27:31Z</time>
      </trkpt>
      <trkpt lat="47.75905" lon="-3.52103">
        <ele>15.23</ele>
        <time>2020-07-10T09:27:32Z</time>
      </trkpt>
      <trkpt lat="47.759" lon="-3.521">
        <ele>15.34</ele>
        <time>2020-07-10T09:27:33Z</time>
      </trkpt>
      <trkpt lat="47.75895" lon="-3.52097">
        <ele>15.45</ele>
        <time>2020-07-10T09:27:34Z</time>
      </trkpt>
      <trkpt lat="47.75889" lon="-3.52094">
        <ele>15.58</ele>
        <time>2020-07-10T09:27:35Z</time>
      </trkpt>
      <trkpt lat="47.75884" lon="-3.5209">
        <ele>15.59</ele>
        <time>2020-07-10T09:27:36Z</time>
      </trkpt>
      <trkpt lat="47.75879" lon="-3.52086">
        <ele>15.56</ele>
        <time>2020-07-10T09:27:37Z</time>
      </trkpt>
      <trkpt lat="47.75874" lon="-3.52082">
        <ele>15.52</ele>
        <time>2020-07-10T09:27:38Z</time>
      </trkpt>
      <trkpt lat="47.75869" lon="-3.52078">
        <ele>15.49</ele>
        <time>2020-07-10T09:27:39Z</time>
      </trkpt>
      <trkpt lat="47.75864" lon="-3.52074">
        <ele>15.47</ele>
        <time>2020-07-10T09:27:40Z</time>
      </trkpt>
      <trkpt lat="47.7586" lon="-3.52069">
        <ele>15.47</ele>
        <time>2020-07-10T09:27:41Z</time>
      </trkpt>
      <trkpt lat="47.75856" lon="-3.52065">
        <ele>15.47</ele>
        <time>2020-07-10T09:27:42Z</time>
      </trkpt>
      <trkpt lat="47.75852" lon="-3.52061">
        <ele>15.48</ele>
        <time>2020-07-10T09:27:43Z</time>
      </trkpt>
      <trkpt lat="47.75848" lon="-3.52058">
        <ele>15.46</ele>
        <time>2020-07-10T09:27:44Z</time>
      </trkpt>
      <trkpt lat="47.75844" lon="-3.52054">
        <ele>15.44</ele>
        <time>2020-07-10T09:27:45Z</time>
      </trkpt>
      <trkpt lat="47.75839" lon="-3.52049">
        <ele>15.44</ele>
        <time>2020-07-10T09:27:46Z</time>
      </trkpt>
      <trkpt lat="47.75834" lon="-3.52044">
        <ele>15.43</ele>
        <time>2020-07-10T09:27:47Z</time>
      </trkpt>
      <trkpt lat="47.75829" lon="-3.52039">
        <ele>15.19</ele>
        <time>2020-07-10T09:27:48Z</time>
      </trkpt>
      <trkpt lat="47.75824" lon="-3.52034">
        <ele>14.87</ele>
        <time>2020-07-10T09:27:49Z</time>
      </trkpt>
      <trkpt lat="47.75819" lon="-3.52029">
        <ele>14.54</ele>
        <time>2020-07-10T09:27:50Z</time>
      </trkpt>
      <trkpt lat="47.75814" lon="-3.52023">
        <ele>14.31</ele>
        <time>2020-07-10T09:27:51Z</time>
      </trkpt>
      <trkpt lat="47.75809" lon="-3.52017">
        <ele>14.18</ele>
        <time>2020-07-10T09:27:52Z</time>
      </trkpt>
      <trkpt lat="47.75805" lon="-3.52012">
        <ele>14.06</ele>
        <time>2020-07-10T09:27:53Z</time>
      </trkpt>
      <trkpt lat="47.75801" lon="-3.52006">
        <ele>13.35</ele>
        <time>2020-07-10T09:27:54Z</time>
      </trkpt>
      <trkpt lat="47.75797" lon="-3.52001">
        <ele>12.53</ele>
        <time>2020-07-10T09:27:55Z</time>
      </trkpt>
      <trkpt lat="47.75794" lon="-3.51997">
        <ele>11.86</ele>
        <time>2020-07-10T09:27:56Z</time>
      </trkpt>
      <trkpt lat="47.7579" lon="-3.51993">
        <ele>11.49</ele>
        <time>2020-07-10T09:27:57Z</time>
      </trkpt>
      <trkpt lat="47.75786" lon="-3.51987">
        <ele>11.48</ele>
        <time>2020-07-10T09:27:58Z</time>
      </trkpt>
      <trkpt lat="47.75783" lon="-3.51982">
        <ele>11.87</ele>
        <time>2020-07-10T09:27:59Z</time>
      </trkpt>
      <trkpt lat="47.75779" lon="-3.51976">
        <ele>12.64</ele>
        <time>2020-07-10T09:28:00Z</time>
      </trkpt>
      <trkpt lat="47.75775" lon="-3.51971">
        <ele>13.06</ele>
        <time>2020-07-10T09:28:01Z</time>
      </trkpt>
      <trkpt lat="47.75772" lon="-3.51966">
        <ele>12.83</ele>
        <time>2020-07-10T09:28:02Z</time>
      </trkpt>
      <trkpt lat="47.75769" lon="-3.5196">
        <ele>12.61</ele>
        <time>2020-07-10T09:28:03Z</time>
      </trkpt>
      <trkpt lat="47.75765" lon="-3.51955">
        <ele>12.54</ele>
        <time>2020-07-10T09:28:04Z</time>
      </trkpt>
      <trkpt lat="47.75761" lon="-3.51951">
        <ele>12.65</ele>
        <time>2020-07-10T09:28:05Z</time>
      </trkpt>
      <trkpt lat="47.75757" lon="-3.51946">
        <ele>13.04</ele>
        <time>2020-07-10T09:28:06Z</time>
      </trkpt>
      <trkpt lat="47.75753" lon="-3.51941">
        <ele>13.35</ele>
        <time>2020-07-10T09:28:07Z</time>
      </trkpt>
      <trkpt lat="47.75749" lon="-3.51936">
        <ele>13.29</ele>
        <time>2020-07-10T09:28:08Z</time>
      </trkpt>
      <trkpt lat="47.75746" lon="-3.5193">
        <ele>12.85</ele>
        <time>2020-07-10T09:28:09Z</time>
      </trkpt>
      <trkpt lat="47.75743" lon="-3.51924">
        <ele>12.46</ele>
        <time>2020-07-10T09:28:10Z</time>
      </trkpt>
      <trkpt lat="47.7574" lon="-3.51918">
        <ele>12.11</ele>
        <time>2020-07-10T09:28:11Z</time>
      </trkpt>
      <trkpt lat="47.75737" lon="-3.51912">
        <ele>11.98</ele>
        <time>2020-07-10T09:28:12Z</time>
      </trkpt>
      <trkpt lat="47.75734" lon="-3.51905">
        <ele>12.14</ele>
        <time>2020-07-10T09:28:13Z</time>
      </trkpt>
      <trkpt lat="47.75731" lon="-3.51899">
        <ele>12.58</ele>
        <time>2020-07-10T09:28:14Z</time>
      </trkpt>
      <trkpt lat="47.75728" lon="-3.51893">
        <ele>13.23</ele>
        <time>2020-07-10T09:28:15Z</time>
      </trkpt>
      <trkpt lat="47.75725" lon="-3.51888">
        <ele>13.93</ele>
        <time>2020-07-10T09:28:16Z</time>
      </trkpt>
      <trkpt lat="47.75723" lon="-3.51882">
        <ele>14</ele>
        <time>2020-07-10T09:28:17Z</time>
      </trkpt>
      <trkpt lat="47.7572" lon="-3.51877">
        <ele>13.65</ele>
        <time>2020-07-10T09:28:18Z</time>
      </trkpt>
      <trkpt lat="47.75717" lon="-3.51871">
        <ele>13.17</ele>
        <time>2020-07-10T09:28:19Z</time>
      </trkpt>
      <trkpt lat="47.75715" lon="-3.51865">
        <ele>12.74</ele>
        <time>2020-07-10T09:28:20Z</time>
      </trkpt>
      <trkpt lat="47.75712" lon="-3.51858">
        <ele>12.4</ele>
        <time>2020-07-10T09:28:21Z</time>
      </trkpt>
      <trkpt lat="47.75709" lon="-3.51852">
        <ele>12.12</ele>
        <time>2020-07-10T09:28:22Z</time>
      </trkpt>
      <trkpt lat="47.75707" lon="-3.51845">
        <ele>11.93</ele>
        <time>2020-07-10T09:28:23Z</time>
      </trkpt>
      <trkpt lat="47.75704" lon="-3.51838">
        <ele>11.88</ele>
        <time>2020-07-10T09:28:24Z</time>
      </trkpt>
      <trkpt lat="47.75702" lon="-3.51831">
        <ele>11.88</ele>
        <time>2020-07-10T09:28:25Z</time>
      </trkpt>
      <trkpt lat="47.757" lon="-3.51824">
        <ele>11.88</ele>
        <time>2020-07-10T09:28:26Z</time>
      </trkpt>
      <trkpt lat="47.75698" lon="-3.51818">
        <ele>11.89</ele>
        <time>2020-07-10T09:28:27Z</time>
      </trkpt>
      <trkpt lat="47.75696" lon="-3.51812">
        <ele>11.9</ele>
        <time>2020-07-10T09:28:28Z</time>
      </trkpt>
      <trkpt lat="47.75694" lon="-3.51806">
        <ele>11.84</ele>
        <time>2020-07-10T09:28:29Z</time>
      </trkpt>
      <trkpt lat="47.75692" lon="-3.518">
        <ele>11.6</ele>
        <time>2020-07-10T09:28:30Z</time>
      </trkpt>
      <trkpt lat="47.7569" lon="-3.51794">
        <ele>11.35</ele>
        <time>2020-07-10T09:28:31Z</time>
      </trkpt>
      <trkpt lat="47.75688" lon="-3.51788">
        <ele>11.06</ele>
        <time>2020-07-10T09:28:32Z</time>
      </trkpt>
      <trkpt lat="47.75687" lon="-3.51782">
        <ele>10.81</ele>
        <time>2020-07-10T09:28:33Z</time>
      </trkpt>
      <trkpt lat="47.75686" lon="-3.51776">
        <ele>10.66</ele>
        <time>2020-07-10T09:28:34Z</time>
      </trkpt>
      <trkpt lat="47.75684" lon="-3.5177">
        <ele>10.69</ele>
        <time>2020-07-10T09:28:35Z</time>
      </trkpt>
      <trkpt lat="47.75683" lon="-3.51764">
        <ele>10.85</ele>
        <time>2020-07-10T09:28:36Z</time>
      </trkpt>
      <trkpt lat="47.75682" lon="-3.51759">
        <ele>11.12</ele>
        <time>2020-07-10T09:28:37Z</time>
      </trkpt>
      <trkpt lat="47.7568" lon="-3.51752">
        <ele>11.55</ele>
        <time>2020-07-10T09:28:38Z</time>
      </trkpt>
      <trkpt lat="47.75678" lon="-3.51746">
        <ele>11.76</ele>
        <time>2020-07-10T09:28:39Z</time>
      </trkpt>
      <trkpt lat="47.75677" lon="-3.5174">
        <ele>11.74</ele>
        <time>2020-07-10T09:28:40Z</time>
      </trkpt>
      <trkpt lat="47.75675" lon="-3.51733">
        <ele>11.65</ele>
        <time>2020-07-10T09:28:41Z</time>
      </trkpt>
      <trkpt lat="47.75673" lon="-3.51727">
        <ele>11.53</ele>
        <time>2020-07-10T09:28:42Z</time>
      </trkpt>
      <trkpt lat="47.75671" lon="-3.5172">
        <ele>11.39</ele>
        <time>2020-07-10T09:28:43Z</time>
      </trkpt>
      <trkpt lat="47.75669" lon="-3.51714">
        <ele>11.24</ele>
        <time>2020-07-10T09:28:44Z</time>
      </trkpt>
      <trkpt lat="47.75668" lon="-3.51709">
        <ele>11.12</ele>
        <time>2020-07-10T09:28:45Z</time>
      </trkpt>
      <trkpt lat="47.75667" lon="-3.51706">
        <ele>11.04</ele>
        <time>2020-07-10T09:28:46Z</time>
      </trkpt>
      <trkpt lat="47.75666" lon="-3.51704">
        <ele>10.92</ele>
        <time>2020-07-10T09:28:47Z</time>
      </trkpt>
      <trkpt lat="47.75665" lon="-3.51701">
        <ele>10.77</ele>
        <time>2020-07-10T09:28:48Z</time>
      </trkpt>
      <trkpt lat="47.75664" lon="-3.51698">
        <ele>10.49</ele>
        <time>2020-07-10T09:28:49Z</time>
      </trkpt>
      <trkpt lat="47.75663" lon="-3.51694">
        <ele>10.15</ele>
        <time>2020-07-10T09:28:50Z</time>
      </trkpt>
      <trkpt lat="47.75661" lon="-3.51689">
        <ele>9.78</ele>
        <time>2020-07-10T09:28:51Z</time>
      </trkpt>
      <trkpt lat="47.75659" lon="-3.51683">
        <ele>9.39</ele>
        <time>2020-07-10T09:28:52Z</time>
      </trkpt>
      <trkpt lat="47.75656" lon="-3.51677">
        <ele>9.06</ele>
        <time>2020-07-10T09:28:53Z</time>
      </trkpt>
      <trkpt lat="47.75654" lon="-3.51671">
        <ele>8.78</ele>
        <time>2020-07-10T09:28:54Z</time>
      </trkpt>
      <trkpt lat="47.75652" lon="-3.51665">
        <ele>8.57</ele>
        <time>2020-07-10T09:28:55Z</time>
      </trkpt>
      <trkpt lat="47.7565" lon="-3.51659">
        <ele>8.61</ele>
        <time>2020-07-10T09:28:56Z</time>
      </trkpt>
      <trkpt lat="47.75648" lon="-3.51653">
        <ele>8.82</ele>
        <time>2020-07-10T09:28:57Z</time>
      </trkpt>
      <trkpt lat="47.75645" lon="-3.51647">
        <ele>9.18</ele>
        <time>2020-07-10T09:28:58Z</time>
      </trkpt>
      <trkpt lat="47.75644" lon="-3.51642">
        <ele>9.64</ele>
        <time>2020-07-10T09:28:59Z</time>
      </trkpt>
      <trkpt lat="47.75642" lon="-3.51636">
        <ele>9.95</ele>
        <time>2020-07-10T09:29:00Z</time>
      </trkpt>
      <trkpt lat="47.75639" lon="-3.51631">
        <ele>9.99</ele>
        <time>2020-07-10T09:29:01Z</time>
      </trkpt>
      <trkpt lat="47.75637" lon="-3.51626">
        <ele>9.75</ele>
        <time>2020-07-10T09:29:02Z</time>
      </trkpt>
      <trkpt lat="47.75635" lon="-3.51624">
        <ele>9.5</ele>
        <time>2020-07-10T09:29:03Z</time>
      </trkpt>
      <trkpt lat="47.75633" lon="-3.51622">
        <ele>9.27</ele>
        <time>2020-07-10T09:29:04Z</time>
      </trkpt>
      <trkpt lat="47.75632" lon="-3.51619">
        <ele>9.12</ele>
        <time>2020-07-10T09:29:05Z</time>
      </trkpt>
      <trkpt lat="47.75632" lon="-3.51615">
        <ele>9.12</ele>
        <time>2020-07-10T09:29:06Z</time>
      </trkpt>
      <trkpt lat="47.75633" lon="-3.51612">
        <ele>9.24</ele>
        <time>2020-07-10T09:29:07Z</time>
      </trkpt>
      <trkpt lat="47.75634" lon="-3.51611">
        <ele>9.4</ele>
        <time>2020-07-10T09:29:08Z</time>
      </trkpt>
      <trkpt lat="47.75636" lon="-3.5161">
        <ele>9.56</ele>
        <time>2020-07-10T09:29:09Z</time>
      </trkpt>
      <trkpt lat="47.75638" lon="-3.51609">
        <ele>9.77</ele>
        <time>2020-07-10T09:29:10Z</time>
      </trkpt>
      <trkpt lat="47.75641" lon="-3.51608">
        <ele>9.85</ele>
        <time>2020-07-10T09:29:11Z</time>
      </trkpt>
      <trkpt lat="47.75644" lon="-3.51605">
        <ele>9.8</ele>
        <time>2020-07-10T09:29:12Z</time>
      </trkpt>
      <trkpt lat="47.75647" lon="-3.516">
        <ele>9.67</ele>
        <time>2020-07-10T09:29:13Z</time>
      </trkpt>
      <trkpt lat="47.75649" lon="-3.51595">
        <ele>9.49</ele>
        <time>2020-07-10T09:29:14Z</time>
      </trkpt>
      <trkpt lat="47.75651" lon="-3.51589">
        <ele>9.28</ele>
        <time>2020-07-10T09:29:15Z</time>
      </trkpt>
      <trkpt lat="47.75652" lon="-3.51582">
        <ele>9.04</ele>
        <time>2020-07-10T09:29:16Z</time>
      </trkpt>
      <trkpt lat="47.75652" lon="-3.51574">
        <ele>8.79</ele>
        <time>2020-07-10T09:29:17Z</time>
      </trkpt>
      <trkpt lat="47.75652" lon="-3.51567">
        <ele>8.52</ele>
        <time>2020-07-10T09:29:18Z</time>
      </trkpt>
      <trkpt lat="47.75653" lon="-3.51559">
        <ele>8.25</ele>
        <time>2020-07-10T09:29:19Z</time>
      </trkpt>
      <trkpt lat="47.75653" lon="-3.51552">
        <ele>8.03</ele>
        <time>2020-07-10T09:29:20Z</time>
      </trkpt>
      <trkpt lat="47.75654" lon="-3.51545">
        <ele>7.88</ele>
        <time>2020-07-10T09:29:21Z</time>
      </trkpt>
      <trkpt lat="47.75654" lon="-3.51538">
        <ele>7.76</ele>
        <time>2020-07-10T09:29:22Z</time>
      </trkpt>
      <trkpt lat="47.75654" lon="-3.51531">
        <ele>7.65</ele>
        <time>2020-07-10T09:29:23Z</time>
      </trkpt>
      <trkpt lat="47.75655" lon="-3.51525">
        <ele>7.63</ele>
        <time>2020-07-10T09:29:24Z</time>
      </trkpt>
      <trkpt lat="47.75655" lon="-3.5152">
        <ele>7.69</ele>
        <time>2020-07-10T09:29:25Z</time>
      </trkpt>
      <trkpt lat="47.75656" lon="-3.51514">
        <ele>7.77</ele>
        <time>2020-07-10T09:29:26Z</time>
      </trkpt>
      <trkpt lat="47.75656" lon="-3.51509">
        <ele>7.84</ele>
        <time>2020-07-10T09:29:27Z</time>
      </trkpt>
      <trkpt lat="47.75655" lon="-3.51504">
        <ele>7.91</ele>
        <time>2020-07-10T09:29:28Z</time>
      </trkpt>
      <trkpt lat="47.75653" lon="-3.51499">
        <ele>7.99</ele>
        <time>2020-07-10T09:29:29Z</time>
      </trkpt>
      <trkpt lat="47.7565" lon="-3.51494">
        <ele>8.06</ele>
        <time>2020-07-10T09:29:30Z</time>
      </trkpt>
      <trkpt lat="47.75646" lon="-3.51489">
        <ele>8.1</ele>
        <time>2020-07-10T09:29:31Z</time>
      </trkpt>
      <trkpt lat="47.75644" lon="-3.51483">
        <ele>8.1</ele>
        <time>2020-07-10T09:29:32Z</time>
      </trkpt>
      <trkpt lat="47.75641" lon="-3.51477">
        <ele>8.07</ele>
        <time>2020-07-10T09:29:33Z</time>
      </trkpt>
      <trkpt lat="47.75638" lon="-3.5147">
        <ele>8.02</ele>
        <time>2020-07-10T09:29:34Z</time>
      </trkpt>
      <trkpt lat="47.75635" lon="-3.51463">
        <ele>7.97</ele>
        <time>2020-07-10T09:29:35Z</time>
      </trkpt>
      <trkpt lat="47.75632" lon="-3.51456">
        <ele>7.88</ele>
        <time>2020-07-10T09:29:36Z</time>
      </trkpt>
      <trkpt lat="47.75628" lon="-3.51449">
        <ele>7.74</ele>
        <time>2020-07-10T09:29:37Z</time>
      </trkpt>
      <trkpt lat="47.75625" lon="-3.51442">
        <ele>7.57</ele>
        <time>2020-07-10T09:29:38Z</time>
      </trkpt>
      <trkpt lat="47.75622" lon="-3.51435">
        <ele>7.44</ele>
        <time>2020-07-10T09:29:39Z</time>
      </trkpt>
      <trkpt lat="47.75619" lon="-3.51428">
        <ele>7.32</ele>
        <time>2020-07-10T09:29:40Z</time>
      </trkpt>
      <trkpt lat="47.75615" lon="-3.51422">
        <ele>7.2</ele>
        <time>2020-07-10T09:29:41Z</time>
      </trkpt>
      <trkpt lat="47.75612" lon="-3.51416">
        <ele>7.09</ele>
        <time>2020-07-10T09:29:42Z</time>
      </trkpt>
      <trkpt lat="47.75609" lon="-3.51409">
        <ele>7.03</ele>
        <time>2020-07-10T09:29:43Z</time>
      </trkpt>
      <trkpt lat="47.75607" lon="-3.51404">
        <ele>7.01</ele>
        <time>2020-07-10T09:29:44Z</time>
      </trkpt>
      <trkpt lat="47.75604" lon="-3.51398">
        <ele>7</ele>
        <time>2020-07-10T09:29:45Z</time>
      </trkpt>
      <trkpt lat="47.75601" lon="-3.51392">
        <ele>7</ele>
        <time>2020-07-10T09:29:46Z</time>
      </trkpt>
      <trkpt lat="47.75599" lon="-3.51386">
        <ele>7.04</ele>
        <time>2020-07-10T09:29:47Z</time>
      </trkpt>
      <trkpt lat="47.75596" lon="-3.51381">
        <ele>7.11</ele>
        <time>2020-07-10T09:29:48Z</time>
      </trkpt>
      <trkpt lat="47.75594" lon="-3.51375">
        <ele>7.17</ele>
        <time>2020-07-10T09:29:49Z</time>
      </trkpt>
      <trkpt lat="47.75592" lon="-3.51371">
        <ele>7.19</ele>
        <time>2020-07-10T09:29:50Z</time>
      </trkpt>
      <trkpt lat="47.7559" lon="-3.51366">
        <ele>7.19</ele>
        <time>2020-07-10T09:29:51Z</time>
      </trkpt>
      <trkpt lat="47.75587" lon="-3.5136">
        <ele>7.16</ele>
        <time>2020-07-10T09:29:52Z</time>
      </trkpt>
      <trkpt lat="47.75586" lon="-3.51356">
        <ele>7.1</ele>
        <time>2020-07-10T09:29:53Z</time>
      </trkpt>
      <trkpt lat="47.75584" lon="-3.51351">
        <ele>7.04</ele>
        <time>2020-07-10T09:29:54Z</time>
      </trkpt>
      <trkpt lat="47.75581" lon="-3.51347">
        <ele>7.06</ele>
        <time>2020-07-10T09:29:55Z</time>
      </trkpt>
      <trkpt lat="47.75579" lon="-3.51345">
        <ele>7.14</ele>
        <time>2020-07-10T09:29:56Z</time>
      </trkpt>
      <trkpt lat="47.75575" lon="-3.51345">
        <ele>7.26</ele>
        <time>2020-07-10T09:29:57Z</time>
      </trkpt>
      <trkpt lat="47.75571" lon="-3.51347">
        <ele>7.38</ele>
        <time>2020-07-10T09:29:58Z</time>
      </trkpt>
      <trkpt lat="47.75568" lon="-3.51351">
        <ele>7.5</ele>
        <time>2020-07-10T09:29:59Z</time>
      </trkpt>
      <trkpt lat="47.75565" lon="-3.51356">
        <ele>7.61</ele>
        <time>2020-07-10T09:30:00Z</time>
      </trkpt>
      <trkpt lat="47.75562" lon="-3.51361">
        <ele>7.73</ele>
        <time>2020-07-10T09:30:01Z</time>
      </trkpt>
      <trkpt lat="47.75558" lon="-3.51366">
        <ele>7.73</ele>
        <time>2020-07-10T09:30:02Z</time>
      </trkpt>
      <trkpt lat="47.75555" lon="-3.51371">
        <ele>7.67</ele>
        <time>2020-07-10T09:30:03Z</time>
      </trkpt>
      <trkpt lat="47.75551" lon="-3.51373">
        <ele>7.64</ele>
        <time>2020-07-10T09:30:04Z</time>
      </trkpt>
      <trkpt lat="47.75547" lon="-3.51373">
        <ele>7.69</ele>
        <time>2020-07-10T09:30:05Z</time>
      </trkpt>
      <trkpt lat="47.75543" lon="-3.5137">
        <ele>7.79</ele>
        <time>2020-07-10T09:30:06Z</time>
      </trkpt>
      <trkpt lat="47.75539" lon="-3.51366">
        <ele>7.88</ele>
        <time>2020-07-10T09:30:07Z</time>
      </trkpt>
      <trkpt lat="47.75536" lon="-3.51363">
        <ele>7.95</ele>
        <time>2020-07-10T09:30:08Z</time>
      </trkpt>
      <trkpt lat="47.75533" lon="-3.5136">
        <ele>7.98</ele>
        <time>2020-07-10T09:30:09Z</time>
      </trkpt>
      <trkpt lat="47.75531" lon="-3.51359">
        <ele>8</ele>
        <time>2020-07-10T09:30:10Z</time>
      </trkpt>
      <trkpt lat="47.7553" lon="-3.51359">
        <ele>8</ele>
        <time>2020-07-10T09:30:11Z</time>
      </trkpt>
      <trkpt lat="47.7553" lon="-3.51359">
        <ele>8</ele>
        <time>2020-07-10T09:30:12Z</time>
      </trkpt>
      <trkpt lat="47.7553" lon="-3.51358">
        <ele>8</ele>
        <time>2020-07-10T09:30:13Z</time>
      </trkpt>
      <trkpt lat="47.7553" lon="-3.51358">
        <ele>8</ele>
        <time>2020-07-10T09:30:14Z</time>
      </trkpt>
      <trkpt lat="47.7553" lon="-3.51358">
        <ele>8</ele>
        <time>2020-07-10T09:30:15Z</time>
      </trkpt>
      <trkpt lat="47.7553" lon="-3.51358">
        <ele>8</ele>
        <time>2020-07-10T09:30:16Z</time>
      </trkpt>
      <trkpt lat="47.7553" lon="-3.51358">
        <ele>8</ele>
        <time>2020-07-10T09:30:17Z</time>
      </trkpt>
      <trkpt lat="47.7553" lon="-3.51358">
        <ele>8</ele>
        <time>2020-07-10T09:30:18Z</time>
      </trkpt>
      <trkpt lat="47.7553" lon="-3.51358">
        <ele>8</ele>
        <time>2020-07-10T09:30:19Z</time>
      </trkpt>
      <trkpt lat="47.7553" lon="-3.51358">
        <ele>8</ele>
        <time>2020-07-10T09:30:20Z</time>
      </trkpt>
      <trkpt lat="47.7553" lon="-3.51358">
        <ele>8</ele>
        <time>2020-07-10T09:30:21Z</time>
      </trkpt>
      <trkpt lat="47.7553" lon="-3.51358">
        <ele>8</ele>
        <time>2020-07-10T09:30:22Z</time>
      </trkpt>
      <trkpt lat="47.7553" lon="-3.51358">
        <ele>8</ele>
        <time>2020-07-10T09:30:23Z</time>
      </trkpt>
      <trkpt lat="47.7553" lon="-3.51358">
        <ele>8</ele>
        <time>2020-07-10T09:30:24Z</time>
      </trkpt>
      <trkpt lat="47.7553" lon="-3.51358">
        <ele>8</ele>
        <time>2020-07-10T09:30:25Z</time>
      </trkpt>
      <trkpt lat="47.7553" lon="-3.51358">
        <ele>8</ele>
        <time>2020-07-10T09:30:26Z</time>
      </trkpt>
      <trkpt lat="47.7553" lon="-3.51358">
        <ele>8</ele>
        <time>2020-07-10T09:30:27Z</time>
      </trkpt>
      <trkpt lat="47.7553" lon="-3.51358">
        <ele>8</ele>
        <time>2020-07-10T09:30:28Z</time>
      </trkpt>
      <trkpt lat="47.7553" lon="-3.51358">
        <ele>8</ele>
        <time>2020-07-10T09:30:29Z</time>
      </trkpt>
      <trkpt lat="47.7553" lon="-3.51358">
        <ele>8</ele>
        <time>2020-07-10T09:30:30Z</time>
      </trkpt>
      <trkpt lat="47.7553" lon="-3.51358">
        <ele>8</ele>
        <time>2020-07-10T09:30:31Z</time>
      </trkpt>
      <trkpt lat="47.75527" lon="-3.51355">
        <ele>8.01</ele>
        <time>2020-07-10T09:30:32Z</time>
      </trkpt>
      <trkpt lat="47.75525" lon="-3.51352">
        <ele>8.05</ele>
        <time>2020-07-10T09:30:33Z</time>
      </trkpt>
      <trkpt lat="47.75524" lon="-3.51349">
        <ele>8.07</ele>
        <time>2020-07-10T09:30:34Z</time>
      </trkpt>
      <trkpt lat="47.75522" lon="-3.51346">
        <ele>8.09</ele>
        <time>2020-07-10T09:30:35Z</time>
      </trkpt>
      <trkpt lat="47.75521" lon="-3.51344">
        <ele>8.09</ele>
        <time>2020-07-10T09:30:36Z</time>
      </trkpt>
      <trkpt lat="47.7552" lon="-3.51342">
        <ele>8.09</ele>
        <time>2020-07-10T09:30:37Z</time>
      </trkpt>
      <trkpt lat="47.75518" lon="-3.5134">
        <ele>8.08</ele>
        <time>2020-07-10T09:30:38Z</time>
      </trkpt>
      <trkpt lat="47.75517" lon="-3.51338">
        <ele>8.07</ele>
        <time>2020-07-10T09:30:39Z</time>
      </trkpt>
      <trkpt lat="47.75516" lon="-3.51337">
        <ele>8.06</ele>
        <time>2020-07-10T09:30:40Z</time>
      </trkpt>
      <trkpt lat="47.75515" lon="-3.51336">
        <ele>8.04</ele>
        <time>2020-07-10T09:30:41Z</time>
      </trkpt>
      <trkpt lat="47.75513" lon="-3.51333">
        <ele>8.02</ele>
        <time>2020-07-10T09:30:42Z</time>
      </trkpt>
      <trkpt lat="47.75511" lon="-3.51331">
        <ele>8</ele>
        <time>2020-07-10T09:30:43Z</time>
      </trkpt>
      <trkpt lat="47.75509" lon="-3.51328">
        <ele>8</ele>
        <time>2020-07-10T09:30:44Z</time>
      </trkpt>
      <trkpt lat="47.75507" lon="-3.51324">
        <ele>8</ele>
        <time>2020-07-10T09:30:45Z</time>
      </trkpt>
      <trkpt lat="47.75504" lon="-3.51321">
        <ele>8</ele>
        <time>2020-07-10T09:30:46Z</time>
      </trkpt>
      <trkpt lat="47.755" lon="-3.51317">
        <ele>8</ele>
        <time>2020-07-10T09:30:47Z</time>
      </trkpt>
      <trkpt lat="47.75497" lon="-3.51312">
        <ele>8.02</ele>
        <time>2020-07-10T09:30:48Z</time>
      </trkpt>
      <trkpt lat="47.75494" lon="-3.51307">
        <ele>8.01</ele>
        <time>2020-07-10T09:30:49Z</time>
      </trkpt>
      <trkpt lat="47.75491" lon="-3.51301">
        <ele>7.76</ele>
        <time>2020-07-10T09:30:50Z</time>
      </trkpt>
      <trkpt lat="47.75488" lon="-3.51297">
        <ele>7.37</ele>
        <time>2020-07-10T09:30:51Z</time>
      </trkpt>
      <trkpt lat="47.75484" lon="-3.51292">
        <ele>6.94</ele>
        <time>2020-07-10T09:30:52Z</time>
      </trkpt>
      <trkpt lat="47.75481" lon="-3.51288">
        <ele>6.5</ele>
        <time>2020-07-10T09:30:53Z</time>
      </trkpt>
      <trkpt lat="47.75478" lon="-3.51285">
        <ele>6.07</ele>
        <time>2020-07-10T09:30:54Z</time>
      </trkpt>
      <trkpt lat="47.75473" lon="-3.51283">
        <ele>5.71</ele>
        <time>2020-07-10T09:30:55Z</time>
      </trkpt>
      <trkpt lat="47.75469" lon="-3.51281">
        <ele>5.42</ele>
        <time>2020-07-10T09:30:56Z</time>
      </trkpt>
      <trkpt lat="47.75464" lon="-3.51281">
        <ele>5.23</ele>
        <time>2020-07-10T09:30:57Z</time>
      </trkpt>
      <trkpt lat="47.7546" lon="-3.51281">
        <ele>5.09</ele>
        <time>2020-07-10T09:30:58Z</time>
      </trkpt>
      <trkpt lat="47.75456" lon="-3.51281">
        <ele>4.93</ele>
        <time>2020-07-10T09:30:59Z</time>
      </trkpt>
      <trkpt lat="47.75452" lon="-3.5128">
        <ele>4.7</ele>
        <time>2020-07-10T09:31:00Z</time>
      </trkpt>
      <trkpt lat="47.75448" lon="-3.51278">
        <ele>4.35</ele>
        <time>2020-07-10T09:31:01Z</time>
      </trkpt>
      <trkpt lat="47.75445" lon="-3.51276">
        <ele>3.98</ele>
        <time>2020-07-10T09:31:02Z</time>
      </trkpt>
      <trkpt lat="47.75442" lon="-3.51274">
        <ele>3.94</ele>
        <time>2020-07-10T09:31:03Z</time>
      </trkpt>
      <trkpt lat="47.75439" lon="-3.51273">
        <ele>4.08</ele>
        <time>2020-07-10T09:31:04Z</time>
      </trkpt>
      <trkpt lat="47.75437" lon="-3.51271">
        <ele>4.3</ele>
        <time>2020-07-10T09:31:05Z</time>
      </trkpt>
      <trkpt lat="47.75434" lon="-3.51271">
        <ele>4.6</ele>
        <time>2020-07-10T09:31:06Z</time>
      </trkpt>
      <trkpt lat="47.75432" lon="-3.51271">
        <ele>4.91</ele>
        <time>2020-07-10T09:31:07Z</time>
      </trkpt>
      <trkpt lat="47.75431" lon="-3.51271">
        <ele>5.13</ele>
        <time>2020-07-10T09:31:08Z</time>
      </trkpt>
      <trkpt lat="47.75431" lon="-3.51271">
        <ele>5.2</ele>
        <time>2020-07-10T09:31:09Z</time>
      </trkpt>
      <trkpt lat="47.75431" lon="-3.5127">
        <ele>5.16</ele>
        <time>2020-07-10T09:31:10Z</time>
      </trkpt>
      <trkpt lat="47.75431" lon="-3.5127">
        <ele>5.14</ele>
        <time>2020-07-10T09:31:11Z</time>
      </trkpt>
      <trkpt lat="47.75431" lon="-3.5127">
        <ele>5.14</ele>
        <time>2020-07-10T09:31:12Z</time>
      </trkpt>
      <trkpt lat="47.75431" lon="-3.5127">
        <ele>5.14</ele>
        <time>2020-07-10T09:31:13Z</time>
      </trkpt>
      <trkpt lat="47.75431" lon="-3.5127">
        <ele>5.14</ele>
        <time>2020-07-10T09:31:14Z</time>
      </trkpt>
      <trkpt lat="47.75429" lon="-3.51267">
        <ele>5.16</ele>
        <time>2020-07-10T09:31:15Z</time>
      </trkpt>
      <trkpt lat="47.75426" lon="-3.51266">
        <ele>5.27</ele>
        <time>2020-07-10T09:31:16Z</time>
      </trkpt>
      <trkpt lat="47.75424" lon="-3.51264">
        <ele>5.39</ele>
        <time>2020-07-10T09:31:17Z</time>
      </trkpt>
      <trkpt lat="47.75421" lon="-3.51261">
        <ele>5.5</ele>
        <time>2020-07-10T09:31:18Z</time>
      </trkpt>
      <trkpt lat="47.75418" lon="-3.51259">
        <ele>5.67</ele>
        <time>2020-07-10T09:31:19Z</time>
      </trkpt>
      <trkpt lat="47.75415" lon="-3.51256">
        <ele>5.8</ele>
        <time>2020-07-10T09:31:20Z</time>
      </trkpt>
      <trkpt lat="47.75412" lon="-3.51253">
        <ele>5.83</ele>
        <time>2020-07-10T09:31:21Z</time>
      </trkpt>
      <trkpt lat="47.75409" lon="-3.5125">
        <ele>5.86</ele>
        <time>2020-07-10T09:31:22Z</time>
      </trkpt>
      <trkpt lat="47.75406" lon="-3.51248">
        <ele>5.85</ele>
        <time>2020-07-10T09:31:23Z</time>
      </trkpt>
      <trkpt lat="47.75405" lon="-3.51246">
        <ele>5.83</ele>
        <time>2020-07-10T09:31:24Z</time>
      </trkpt>
      <trkpt lat="47.75404" lon="-3.51244">
        <ele>5.74</ele>
        <time>2020-07-10T09:31:25Z</time>
      </trkpt>
      <trkpt lat="47.75403" lon="-3.51242">
        <ele>5.7</ele>
        <time>2020-07-10T09:31:26Z</time>
      </trkpt>
      <trkpt lat="47.75402" lon="-3.51241">
        <ele>5.68</ele>
        <time>2020-07-10T09:31:27Z</time>
      </trkpt>
      <trkpt lat="47.754" lon="-3.5124">
        <ele>5.66</ele>
        <time>2020-07-10T09:31:28Z</time>
      </trkpt>
      <trkpt lat="47.75399" lon="-3.51238">
        <ele>5.63</ele>
        <time>2020-07-10T09:31:29Z</time>
      </trkpt>
      <trkpt lat="47.75397" lon="-3.51236">
        <ele>5.62</ele>
        <time>2020-07-10T09:31:30Z</time>
      </trkpt>
      <trkpt lat="47.75395" lon="-3.51234">
        <ele>5.64</ele>
        <time>2020-07-10T09:31:31Z</time>
      </trkpt>
      <trkpt lat="47.75392" lon="-3.51231">
        <ele>5.65</ele>
        <time>2020-07-10T09:31:32Z</time>
      </trkpt>
      <trkpt lat="47.75391" lon="-3.5123">
        <ele>5.66</ele>
        <time>2020-07-10T09:31:33Z</time>
      </trkpt>
      <trkpt lat="47.75389" lon="-3.51229">
        <ele>5.7</ele>
        <time>2020-07-10T09:31:34Z</time>
      </trkpt>
      <trkpt lat="47.75389" lon="-3.51229">
        <ele>5.73</ele>
        <time>2020-07-10T09:31:35Z</time>
      </trkpt>
      <trkpt lat="47.75389" lon="-3.51229">
        <ele>5.73</ele>
        <time>2020-07-10T09:31:36Z</time>
      </trkpt>
      <trkpt lat="47.75389" lon="-3.51229">
        <ele>5.74</ele>
        <time>2020-07-10T09:31:37Z</time>
      </trkpt>
      <trkpt lat="47.75389" lon="-3.51229">
        <ele>5.74</ele>
        <time>2020-07-10T09:31:38Z</time>
      </trkpt>
      <trkpt lat="47.75389" lon="-3.51229">
        <ele>5.75</ele>
        <time>2020-07-10T09:31:39Z</time>
      </trkpt>
      <trkpt lat="47.75389" lon="-3.51229">
        <ele>5.75</ele>
        <time>2020-07-10T09:31:40Z</time>
      </trkpt>
      <trkpt lat="47.75389" lon="-3.51229">
        <ele>5.75</ele>
        <time>2020-07-10T09:31:41Z</time>
      </trkpt>
      <trkpt lat="47.75384" lon="-3.51227">
        <ele>5.84</ele>
        <time>2020-07-10T09:31:42Z</time>
      </trkpt>
      <trkpt lat="47.75383" lon="-3.51226">
        <ele>5.88</ele>
        <time>2020-07-10T09:31:43Z</time>
      </trkpt>
      <trkpt lat="47.75383" lon="-3.51225">
        <ele>5.94</ele>
        <time>2020-07-10T09:31:44Z</time>
      </trkpt>
      <trkpt lat="47.75382" lon="-3.51225">
        <ele>5.97</ele>
        <time>2020-07-10T09:31:45Z</time>
      </trkpt>
      <trkpt lat="47.75381" lon="-3.51224">
        <ele>5.97</ele>
        <time>2020-07-10T09:31:46Z</time>
      </trkpt>
      <trkpt lat="47.75381" lon="-3.51224">
        <ele>5.97</ele>
        <time>2020-07-10T09:31:47Z</time>
      </trkpt>
      <trkpt lat="47.75381" lon="-3.51224">
        <ele>5.97</ele>
        <time>2020-07-10T09:31:48Z</time>
      </trkpt>
      <trkpt lat="47.75381" lon="-3.51224">
        <ele>5.97</ele>
        <time>2020-07-10T09:31:49Z</time>
      </trkpt>
      <trkpt lat="47.75381" lon="-3.51224">
        <ele>5.97</ele>
        <time>2020-07-10T09:31:50Z</time>
      </trkpt>
      <trkpt lat="47.75381" lon="-3.51224">
        <ele>5.97</ele>
        <time>2020-07-10T09:31:51Z</time>
      </trkpt>
      <trkpt lat="47.75381" lon="-3.51224">
        <ele>5.97</ele>
        <time>2020-07-10T09:31:52Z</time>
      </trkpt>
      <trkpt lat="47.75381" lon="-3.51224">
        <ele>5.97</ele>
        <time>2020-07-10T09:31:53Z</time>
      </trkpt>
      <trkpt lat="47.75381" lon="-3.51224">
        <ele>5.97</ele>
        <time>2020-07-10T09:31:54Z</time>
      </trkpt>
      <trkpt lat="47.75376" lon="-3.51217">
        <ele>5.81</ele>
        <time>2020-07-10T09:31:55Z</time>
      </trkpt>
      <trkpt lat="47.75374" lon="-3.51215">
        <ele>5.75</ele>
        <time>2020-07-10T09:31:56Z</time>
      </trkpt>
      <trkpt lat="47.75372" lon="-3.51213">
        <ele>5.77</ele>
        <time>2020-07-10T09:31:57Z</time>
      </trkpt>
      <trkpt lat="47.75369" lon="-3.51211">
        <ele>5.81</ele>
        <time>2020-07-10T09:31:58Z</time>
      </trkpt>
      <trkpt lat="47.75367" lon="-3.51209">
        <ele>5.87</ele>
        <time>2020-07-10T09:31:59Z</time>
      </trkpt>
      <trkpt lat="47.75365" lon="-3.51208">
        <ele>5.91</ele>
        <time>2020-07-10T09:32:00Z</time>
      </trkpt>
      <trkpt lat="47.75363" lon="-3.51207">
        <ele>6</ele>
        <time>2020-07-10T09:32:01Z</time>
      </trkpt>
      <trkpt lat="47.75362" lon="-3.51205">
        <ele>6.06</ele>
        <time>2020-07-10T09:32:02Z</time>
      </trkpt>
      <trkpt lat="47.7536" lon="-3.51204">
        <ele>6.04</ele>
        <time>2020-07-10T09:32:03Z</time>
      </trkpt>
      <trkpt lat="47.75359" lon="-3.51202">
        <ele>5.96</ele>
        <time>2020-07-10T09:32:04Z</time>
      </trkpt>
      <trkpt lat="47.75357" lon="-3.51201">
        <ele>5.86</ele>
        <time>2020-07-10T09:32:05Z</time>
      </trkpt>
      <trkpt lat="47.75355" lon="-3.51199">
        <ele>5.72</ele>
        <time>2020-07-10T09:32:06Z</time>
      </trkpt>
      <trkpt lat="47.75353" lon="-3.51197">
        <ele>5.58</ele>
        <time>2020-07-10T09:32:07Z</time>
      </trkpt>
      <trkpt lat="47.75351" lon="-3.51195">
        <ele>5.47</ele>
        <time>2020-07-10T09:32:08Z</time>
      </trkpt>
      <trkpt lat="47.75349" lon="-3.51193">
        <ele>5.31</ele>
        <time>2020-07-10T09:32:09Z</time>
      </trkpt>
      <trkpt lat="47.75347" lon="-3.51192">
        <ele>5.15</ele>
        <time>2020-07-10T09:32:10Z</time>
      </trkpt>
      <trkpt lat="47.75345" lon="-3.51191">
        <ele>4.99</ele>
        <time>2020-07-10T09:32:11Z</time>
      </trkpt>
      <trkpt lat="47.75343" lon="-3.51189">
        <ele>4.85</ele>
        <time>2020-07-10T09:32:12Z</time>
      </trkpt>
      <trkpt lat="47.75341" lon="-3.51188">
        <ele>4.71</ele>
        <time>2020-07-10T09:32:13Z</time>
      </trkpt>
      <trkpt lat="47.75339" lon="-3.51187">
        <ele>4.55</ele>
        <time>2020-07-10T09:32:14Z</time>
      </trkpt>
      <trkpt lat="47.75336" lon="-3.51185">
        <ele>4.35</ele>
        <time>2020-07-10T09:32:15Z</time>
      </trkpt>
      <trkpt lat="47.75333" lon="-3.51183">
        <ele>4.1</ele>
        <time>2020-07-10T09:32:16Z</time>
      </trkpt>
      <trkpt lat="47.7533" lon="-3.51182">
        <ele>3.9</ele>
        <time>2020-07-10T09:32:17Z</time>
      </trkpt>
      <trkpt lat="47.75328" lon="-3.51181">
        <ele>3.75</ele>
        <time>2020-07-10T09:32:18Z</time>
      </trkpt>
      <trkpt lat="47.75325" lon="-3.5118">
        <ele>3.66</ele>
        <time>2020-07-10T09:32:19Z</time>
      </trkpt>
      <trkpt lat="47.75323" lon="-3.51178">
        <ele>3.52</ele>
        <time>2020-07-10T09:32:20Z</time>
      </trkpt>
      <trkpt lat="47.7532" lon="-3.51177">
        <ele>3.37</ele>
        <time>2020-07-10T09:32:21Z</time>
      </trkpt>
      <trkpt lat="47.75316" lon="-3.51176">
        <ele>3.15</ele>
        <time>2020-07-10T09:32:22Z</time>
      </trkpt>
      <trkpt lat="47.75313" lon="-3.51174">
        <ele>2.81</ele>
        <time>2020-07-10T09:32:23Z</time>
      </trkpt>
      <trkpt lat="47.75309" lon="-3.51172">
        <ele>2.42</ele>
        <time>2020-07-10T09:32:24Z</time>
      </trkpt>
      <trkpt lat="47.75306" lon="-3.51171">
        <ele>2.1</ele>
        <time>2020-07-10T09:32:25Z</time>
      </trkpt>
      <trkpt lat="47.75305" lon="-3.5117">
        <ele>2.13</ele>
        <time>2020-07-10T09:32:26Z</time>
      </trkpt>
      <trkpt lat="47.75304" lon="-3.51171">
        <ele>2.34</ele>
        <time>2020-07-10T09:32:27Z</time>
      </trkpt>
      <trkpt lat="47.75304" lon="-3.51171">
        <ele>2.37</ele>
        <time>2020-07-10T09:32:28Z</time>
      </trkpt>
      <trkpt lat="47.75304" lon="-3.51171">
        <ele>2.4</ele>
        <time>2020-07-10T09:32:29Z</time>
      </trkpt>
      <trkpt lat="47.75304" lon="-3.51171">
        <ele>2.41</ele>
        <time>2020-07-10T09:32:30Z</time>
      </trkpt>
      <trkpt lat="47.75304" lon="-3.51171">
        <ele>2.42</ele>
        <time>2020-07-10T09:32:31Z</time>
      </trkpt>
      <trkpt lat="47.75304" lon="-3.51171">
        <ele>2.42</ele>
        <time>2020-07-10T09:32:32Z</time>
      </trkpt>
      <trkpt lat="47.75304" lon="-3.51171">
        <ele>2.42</ele>
        <time>2020-07-10T09:32:33Z</time>
      </trkpt>
      <trkpt lat="47.75304" lon="-3.51171">
        <ele>2.42</ele>
        <time>2020-07-10T09:32:34Z</time>
      </trkpt>
      <trkpt lat="47.75304" lon="-3.51171">
        <ele>2.42</ele>
        <time>2020-07-10T09:32:35Z</time>
      </trkpt>
      <trkpt lat="47.75304" lon="-3.51171">
        <ele>2.42</ele>
        <time>2020-07-10T09:32:36Z</time>
      </trkpt>
      <trkpt lat="47.75304" lon="-3.51171">
        <ele>2.42</ele>
        <time>2020-07-10T09:32:37Z</time>
      </trkpt>
      <trkpt lat="47.75304" lon="-3.51171">
        <ele>2.42</ele>
        <time>2020-07-10T09:32:38Z</time>
      </trkpt>
      <trkpt lat="47.753" lon="-3.51171">
        <ele>3.51</ele>
        <time>2020-07-10T09:32:39Z</time>
      </trkpt>
      <trkpt lat="47.75299" lon="-3.51171">
        <ele>4.2</ele>
        <time>2020-07-10T09:32:40Z</time>
      </trkpt>
      <trkpt lat="47.75297" lon="-3.51171">
        <ele>4.75</ele>
        <time>2020-07-10T09:32:41Z</time>
      </trkpt>
      <trkpt lat="47.75296" lon="-3.5117">
        <ele>5.03</ele>
        <time>2020-07-10T09:32:42Z</time>
      </trkpt>
      <trkpt lat="47.75295" lon="-3.51169">
        <ele>5.39</ele>
        <time>2020-07-10T09:32:43Z</time>
      </trkpt>
      <trkpt lat="47.75294" lon="-3.51168">
        <ele>5.69</ele>
        <time>2020-07-10T09:32:44Z</time>
      </trkpt>
      <trkpt lat="47.75293" lon="-3.51168">
        <ele>5.99</ele>
        <time>2020-07-10T09:32:45Z</time>
      </trkpt>
      <trkpt lat="47.75292" lon="-3.51166">
        <ele>6.18</ele>
        <time>2020-07-10T09:32:46Z</time>
      </trkpt>
      <trkpt lat="47.75292" lon="-3.51165">
        <ele>6.4</ele>
        <time>2020-07-10T09:32:47Z</time>
      </trkpt>
      <trkpt lat="47.75292" lon="-3.51165">
        <ele>6.47</ele>
        <time>2020-07-10T09:32:48Z</time>
      </trkpt>
      <trkpt lat="47.75292" lon="-3.51165">
        <ele>6.49</ele>
        <time>2020-07-10T09:32:49Z</time>
      </trkpt>
      <trkpt lat="47.75292" lon="-3.51165">
        <ele>6.49</ele>
        <time>2020-07-10T09:32:50Z</time>
      </trkpt>
      <trkpt lat="47.75292" lon="-3.51165">
        <ele>6.49</ele>
        <time>2020-07-10T09:32:51Z</time>
      </trkpt>
      <trkpt lat="47.75292" lon="-3.51165">
        <ele>6.49</ele>
        <time>2020-07-10T09:32:52Z</time>
      </trkpt>
      <trkpt lat="47.75292" lon="-3.51165">
        <ele>6.49</ele>
        <time>2020-07-10T09:32:53Z</time>
      </trkpt>
      <trkpt lat="47.75292" lon="-3.51165">
        <ele>6.49</ele>
        <time>2020-07-10T09:32:54Z</time>
      </trkpt>
      <trkpt lat="47.75292" lon="-3.51165">
        <ele>6.49</ele>
        <time>2020-07-10T09:32:55Z</time>
      </trkpt>
      <trkpt lat="47.75292" lon="-3.51159">
        <ele>6.51</ele>
        <time>2020-07-10T09:32:56Z</time>
      </trkpt>
      <trkpt lat="47.75293" lon="-3.51155">
        <ele>6.52</ele>
        <time>2020-07-10T09:32:57Z</time>
      </trkpt>
      <trkpt lat="47.75293" lon="-3.5115">
        <ele>6.51</ele>
        <time>2020-07-10T09:32:58Z</time>
      </trkpt>
      <trkpt lat="47.75294" lon="-3.51145">
        <ele>6.5</ele>
        <time>2020-07-10T09:32:59Z</time>
      </trkpt>
      <trkpt lat="47.75295" lon="-3.5114">
        <ele>6.29</ele>
        <time>2020-07-10T09:33:00Z</time>
      </trkpt>
      <trkpt lat="47.75297" lon="-3.51136">
        <ele>5.88</ele>
        <time>2020-07-10T09:33:01Z</time>
      </trkpt>
      <trkpt lat="47.75298" lon="-3.51132">
        <ele>5.53</ele>
        <time>2020-07-10T09:33:02Z</time>
      </trkpt>
      <trkpt lat="47.75299" lon="-3.51127">
        <ele>5.26</ele>
        <time>2020-07-10T09:33:03Z</time>
      </trkpt>
      <trkpt lat="47.753" lon="-3.51122">
        <ele>5.18</ele>
        <time>2020-07-10T09:33:04Z</time>
      </trkpt>
      <trkpt lat="47.75301" lon="-3.51117">
        <ele>5.11</ele>
        <time>2020-07-10T09:33:05Z</time>
      </trkpt>
      <trkpt lat="47.75302" lon="-3.51113">
        <ele>5.03</ele>
        <time>2020-07-10T09:33:06Z</time>
      </trkpt>
      <trkpt lat="47.75304" lon="-3.51108">
        <ele>4.84</ele>
        <time>2020-07-10T09:33:07Z</time>
      </trkpt>
      <trkpt lat="47.75305" lon="-3.51103">
        <ele>4.58</ele>
        <time>2020-07-10T09:33:08Z</time>
      </trkpt>
      <trkpt lat="47.75307" lon="-3.51097">
        <ele>4.45</ele>
        <time>2020-07-10T09:33:09Z</time>
      </trkpt>
      <trkpt lat="47.75307" lon="-3.51091">
        <ele>4.49</ele>
        <time>2020-07-10T09:33:10Z</time>
      </trkpt>
      <trkpt lat="47.75308" lon="-3.51086">
        <ele>4.55</ele>
        <time>2020-07-10T09:33:11Z</time>
      </trkpt>
      <trkpt lat="47.75308" lon="-3.5108">
        <ele>4.64</ele>
        <time>2020-07-10T09:33:12Z</time>
      </trkpt>
      <trkpt lat="47.75308" lon="-3.51075">
        <ele>4.64</ele>
        <time>2020-07-10T09:33:13Z</time>
      </trkpt>
      <trkpt lat="47.75307" lon="-3.5107">
        <ele>4.7</ele>
        <time>2020-07-10T09:33:14Z</time>
      </trkpt>
      <trkpt lat="47.75306" lon="-3.51065">
        <ele>4.85</ele>
        <time>2020-07-10T09:33:15Z</time>
      </trkpt>
      <trkpt lat="47.75305" lon="-3.51061">
        <ele>5.09</ele>
        <time>2020-07-10T09:33:16Z</time>
      </trkpt>
      <trkpt lat="47.75304" lon="-3.51057">
        <ele>5.34</ele>
        <time>2020-07-10T09:33:17Z</time>
      </trkpt>
      <trkpt lat="47.75303" lon="-3.51052">
        <ele>5.61</ele>
        <time>2020-07-10T09:33:18Z</time>
      </trkpt>
      <trkpt lat="47.75302" lon="-3.51047">
        <ele>5.89</ele>
        <time>2020-07-10T09:33:19Z</time>
      </trkpt>
      <trkpt lat="47.75302" lon="-3.51041">
        <ele>6.11</ele>
        <time>2020-07-10T09:33:20Z</time>
      </trkpt>
      <trkpt lat="47.75302" lon="-3.51037">
        <ele>6.26</ele>
        <time>2020-07-10T09:33:21Z</time>
      </trkpt>
      <trkpt lat="47.75302" lon="-3.51033">
        <ele>6.32</ele>
        <time>2020-07-10T09:33:22Z</time>
      </trkpt>
      <trkpt lat="47.75302" lon="-3.5103">
        <ele>6.4</ele>
        <time>2020-07-10T09:33:23Z</time>
      </trkpt>
      <trkpt lat="47.75302" lon="-3.51027">
        <ele>6.5</ele>
        <time>2020-07-10T09:33:24Z</time>
      </trkpt>
      <trkpt lat="47.75302" lon="-3.51024">
        <ele>6.52</ele>
        <time>2020-07-10T09:33:25Z</time>
      </trkpt>
      <trkpt lat="47.75302" lon="-3.51021">
        <ele>6.5</ele>
        <time>2020-07-10T09:33:26Z</time>
      </trkpt>
      <trkpt lat="47.75303" lon="-3.51019">
        <ele>6.44</ele>
        <time>2020-07-10T09:33:27Z</time>
      </trkpt>
      <trkpt lat="47.75304" lon="-3.51017">
        <ele>6.34</ele>
        <time>2020-07-10T09:33:28Z</time>
      </trkpt>
      <trkpt lat="47.75304" lon="-3.51015">
        <ele>6.24</ele>
        <time>2020-07-10T09:33:29Z</time>
      </trkpt>
      <trkpt lat="47.75305" lon="-3.51014">
        <ele>6.13</ele>
        <time>2020-07-10T09:33:30Z</time>
      </trkpt>
      <trkpt lat="47.75305" lon="-3.51012">
        <ele>6.08</ele>
        <time>2020-07-10T09:33:31Z</time>
      </trkpt>
      <trkpt lat="47.75305" lon="-3.51011">
        <ele>6.1</ele>
        <time>2020-07-10T09:33:32Z</time>
      </trkpt>
      <trkpt lat="47.75305" lon="-3.51012">
        <ele>6.1</ele>
        <time>2020-07-10T09:33:33Z</time>
      </trkpt>
      <trkpt lat="47.75305" lon="-3.51012">
        <ele>6.1</ele>
        <time>2020-07-10T09:33:34Z</time>
      </trkpt>
      <trkpt lat="47.75305" lon="-3.51012">
        <ele>6.1</ele>
        <time>2020-07-10T09:33:35Z</time>
      </trkpt>
      <trkpt lat="47.75305" lon="-3.51012">
        <ele>6.1</ele>
        <time>2020-07-10T09:33:36Z</time>
      </trkpt>
      <trkpt lat="47.75305" lon="-3.51012">
        <ele>6.1</ele>
        <time>2020-07-10T09:33:37Z</time>
      </trkpt>
      <trkpt lat="47.75304" lon="-3.51007">
        <ele>6.15</ele>
        <time>2020-07-10T09:33:38Z</time>
      </trkpt>
      <trkpt lat="47.75304" lon="-3.51006">
        <ele>6.17</ele>
        <time>2020-07-10T09:33:39Z</time>
      </trkpt>
      <trkpt lat="47.75304" lon="-3.51004">
        <ele>6.19</ele>
        <time>2020-07-10T09:33:40Z</time>
      </trkpt>
      <trkpt lat="47.75304" lon="-3.51002">
        <ele>6.25</ele>
        <time>2020-07-10T09:33:41Z</time>
      </trkpt>
      <trkpt lat="47.75304" lon="-3.51001">
        <ele>6.25</ele>
        <time>2020-07-10T09:33:42Z</time>
      </trkpt>
      <trkpt lat="47.75304" lon="-3.50999">
        <ele>6.21</ele>
        <time>2020-07-10T09:33:43Z</time>
      </trkpt>
      <trkpt lat="47.75304" lon="-3.50998">
        <ele>6.17</ele>
        <time>2020-07-10T09:33:44Z</time>
      </trkpt>
      <trkpt lat="47.75304" lon="-3.50996">
        <ele>6.12</ele>
        <time>2020-07-10T09:33:45Z</time>
      </trkpt>
      <trkpt lat="47.75304" lon="-3.50995">
        <ele>6.06</ele>
        <time>2020-07-10T09:33:46Z</time>
      </trkpt>
      <trkpt lat="47.75304" lon="-3.50994">
        <ele>6.02</ele>
        <time>2020-07-10T09:33:47Z</time>
      </trkpt>
      <trkpt lat="47.75304" lon="-3.50992">
        <ele>6</ele>
        <time>2020-07-10T09:33:48Z</time>
      </trkpt>
      <trkpt lat="47.75304" lon="-3.50992">
        <ele>6</ele>
        <time>2020-07-10T09:33:49Z</time>
      </trkpt>
      <trkpt lat="47.75304" lon="-3.50992">
        <ele>6</ele>
        <time>2020-07-10T09:33:50Z</time>
      </trkpt>
      <trkpt lat="47.75303" lon="-3.50988">
        <ele>6.01</ele>
        <time>2020-07-10T09:33:51Z</time>
      </trkpt>
      <trkpt lat="47.75302" lon="-3.50987">
        <ele>6.09</ele>
        <time>2020-07-10T09:33:52Z</time>
      </trkpt>
      <trkpt lat="47.75301" lon="-3.50986">
        <ele>6.21</ele>
        <time>2020-07-10T09:33:53Z</time>
      </trkpt>
      <trkpt lat="47.753" lon="-3.50985">
        <ele>6.3</ele>
        <time>2020-07-10T09:33:54Z</time>
      </trkpt>
      <trkpt lat="47.753" lon="-3.50984">
        <ele>6.36</ele>
        <time>2020-07-10T09:33:55Z</time>
      </trkpt>
      <trkpt lat="47.75299" lon="-3.50983">
        <ele>6.4</ele>
        <time>2020-07-10T09:33:56Z</time>
      </trkpt>
      <trkpt lat="47.75299" lon="-3.50983">
        <ele>6.41</ele>
        <time>2020-07-10T09:33:57Z</time>
      </trkpt>
      <trkpt lat="47.75299" lon="-3.50983">
        <ele>6.41</ele>
        <time>2020-07-10T09:33:58Z</time>
      </trkpt>
      <trkpt lat="47.75299" lon="-3.50983">
        <ele>6.42</ele>
        <time>2020-07-10T09:33:59Z</time>
      </trkpt>
      <trkpt lat="47.75299" lon="-3.50983">
        <ele>6.42</ele>
        <time>2020-07-10T09:34:00Z</time>
      </trkpt>
      <trkpt lat="47.75299" lon="-3.50983">
        <ele>6.42</ele>
        <time>2020-07-10T09:34:01Z</time>
      </trkpt>
      <trkpt lat="47.75299" lon="-3.50983">
        <ele>6.42</ele>
        <time>2020-07-10T09:34:02Z</time>
      </trkpt>
      <trkpt lat="47.75299" lon="-3.50983">
        <ele>6.42</ele>
        <time>2020-07-10T09:34:03Z</time>
      </trkpt>
      <trkpt lat="47.75299" lon="-3.50983">
        <ele>6.42</ele>
        <time>2020-07-10T09:34:04Z</time>
      </trkpt>
      <trkpt lat="47.75299" lon="-3.50983">
        <ele>6.42</ele>
        <time>2020-07-10T09:34:05Z</time>
      </trkpt>
      <trkpt lat="47.75299" lon="-3.50983">
        <ele>6.42</ele>
        <time>2020-07-10T09:34:06Z</time>
      </trkpt>
      <trkpt lat="47.75292" lon="-3.50975">
        <ele>7.17</ele>
        <time>2020-07-10T09:34:07Z</time>
      </trkpt>
      <trkpt lat="47.75291" lon="-3.50974">
        <ele>7.49</ele>
        <time>2020-07-10T09:34:08Z</time>
      </trkpt>
      <trkpt lat="47.75291" lon="-3.50974">
        <ele>7.66</ele>
        <time>2020-07-10T09:34:09Z</time>
      </trkpt>
      <trkpt lat="47.7529" lon="-3.50973">
        <ele>7.75</ele>
        <time>2020-07-10T09:34:10Z</time>
      </trkpt>
      <trkpt lat="47.7529" lon="-3.50973">
        <ele>7.83</ele>
        <time>2020-07-10T09:34:11Z</time>
      </trkpt>
      <trkpt lat="47.75289" lon="-3.50972">
        <ele>7.92</ele>
        <time>2020-07-10T09:34:12Z</time>
      </trkpt>
      <trkpt lat="47.75289" lon="-3.50972">
        <ele>7.94</ele>
        <time>2020-07-10T09:34:13Z</time>
      </trkpt>
      <trkpt lat="47.75289" lon="-3.50972">
        <ele>7.95</ele>
        <time>2020-07-10T09:34:14Z</time>
      </trkpt>
      <trkpt lat="47.75289" lon="-3.50972">
        <ele>7.95</ele>
        <time>2020-07-10T09:34:15Z</time>
      </trkpt>
      <trkpt lat="47.75289" lon="-3.50972">
        <ele>7.95</ele>
        <time>2020-07-10T09:34:16Z</time>
      </trkpt>
      <trkpt lat="47.75289" lon="-3.50972">
        <ele>7.95</ele>
        <time>2020-07-10T09:34:17Z</time>
      </trkpt>
      <trkpt lat="47.75289" lon="-3.50972">
        <ele>7.95</ele>
        <time>2020-07-10T09:34:18Z</time>
      </trkpt>
      <trkpt lat="47.75286" lon="-3.50965">
        <ele>8</ele>
        <time>2020-07-10T09:34:19Z</time>
      </trkpt>
      <trkpt lat="47.75286" lon="-3.50962">
        <ele>7.88</ele>
        <time>2020-07-10T09:34:20Z</time>
      </trkpt>
      <trkpt lat="47.75285" lon="-3.50958">
        <ele>7.79</ele>
        <time>2020-07-10T09:34:21Z</time>
      </trkpt>
      <trkpt lat="47.75284" lon="-3.50953">
        <ele>7.7</ele>
        <time>2020-07-10T09:34:22Z</time>
      </trkpt>
      <trkpt lat="47.75283" lon="-3.50949">
        <ele>7.63</ele>
        <time>2020-07-10T09:34:23Z</time>
      </trkpt>
      <trkpt lat="47.75282" lon="-3.50945">
        <ele>7.49</ele>
        <time>2020-07-10T09:34:24Z</time>
      </trkpt>
      <trkpt lat="47.75281" lon="-3.50941">
        <ele>7.42</ele>
        <time>2020-07-10T09:34:25Z</time>
      </trkpt>
      <trkpt lat="47.7528" lon="-3.50937">
        <ele>7.39</ele>
        <time>2020-07-10T09:34:26Z</time>
      </trkpt>
      <trkpt lat="47.75279" lon="-3.50932">
        <ele>7.38</ele>
        <time>2020-07-10T09:34:27Z</time>
      </trkpt>
      <trkpt lat="47.75278" lon="-3.50929">
        <ele>7.4</ele>
        <time>2020-07-10T09:34:28Z</time>
      </trkpt>
      <trkpt lat="47.75278" lon="-3.50925">
        <ele>7.34</ele>
        <time>2020-07-10T09:34:29Z</time>
      </trkpt>
      <trkpt lat="47.75278" lon="-3.5092">
        <ele>7.21</ele>
        <time>2020-07-10T09:34:30Z</time>
      </trkpt>
      <trkpt lat="47.75277" lon="-3.50915">
        <ele>7.07</ele>
        <time>2020-07-10T09:34:31Z</time>
      </trkpt>
      <trkpt lat="47.75277" lon="-3.5091">
        <ele>7.04</ele>
        <time>2020-07-10T09:34:32Z</time>
      </trkpt>
      <trkpt lat="47.75277" lon="-3.50906">
        <ele>7.03</ele>
        <time>2020-07-10T09:34:33Z</time>
      </trkpt>
      <trkpt lat="47.75277" lon="-3.50904">
        <ele>7.04</ele>
        <time>2020-07-10T09:34:34Z</time>
      </trkpt>
      <trkpt lat="47.75277" lon="-3.50902">
        <ele>7.03</ele>
        <time>2020-07-10T09:34:35Z</time>
      </trkpt>
      <trkpt lat="47.75277" lon="-3.50899">
        <ele>7.03</ele>
        <time>2020-07-10T09:34:36Z</time>
      </trkpt>
      <trkpt lat="47.75278" lon="-3.50898">
        <ele>6.99</ele>
        <time>2020-07-10T09:34:37Z</time>
      </trkpt>
      <trkpt lat="47.75278" lon="-3.50896">
        <ele>6.94</ele>
        <time>2020-07-10T09:34:38Z</time>
      </trkpt>
      <trkpt lat="47.75279" lon="-3.50893">
        <ele>6.88</ele>
        <time>2020-07-10T09:34:39Z</time>
      </trkpt>
      <trkpt lat="47.7528" lon="-3.50889">
        <ele>6.79</ele>
        <time>2020-07-10T09:34:40Z</time>
      </trkpt>
      <trkpt lat="47.7528" lon="-3.50886">
        <ele>6.66</ele>
        <time>2020-07-10T09:34:41Z</time>
      </trkpt>
      <trkpt lat="47.7528" lon="-3.50882">
        <ele>6.48</ele>
        <time>2020-07-10T09:34:42Z</time>
      </trkpt>
      <trkpt lat="47.75281" lon="-3.50878">
        <ele>6.29</ele>
        <time>2020-07-10T09:34:43Z</time>
      </trkpt>
      <trkpt lat="47.75281" lon="-3.50874">
        <ele>6.1</ele>
        <time>2020-07-10T09:34:44Z</time>
      </trkpt>
      <trkpt lat="47.75282" lon="-3.50869">
        <ele>5.91</ele>
        <time>2020-07-10T09:34:45Z</time>
      </trkpt>
      <trkpt lat="47.75282" lon="-3.50865">
        <ele>5.75</ele>
        <time>2020-07-10T09:34:46Z</time>
      </trkpt>
      <trkpt lat="47.75282" lon="-3.50861">
        <ele>5.61</ele>
        <time>2020-07-10T09:34:47Z</time>
      </trkpt>
      <trkpt lat="47.75281" lon="-3.50853">
        <ele>5.63</ele>
        <time>2020-07-10T09:34:49Z</time>
      </trkpt>
      <trkpt lat="47.75281" lon="-3.50849">
        <ele>5.68</ele>
        <time>2020-07-10T09:34:50Z</time>
      </trkpt>
      <trkpt lat="47.75281" lon="-3.50844">
        <ele>5.73</ele>
        <time>2020-07-10T09:34:51Z</time>
      </trkpt>
      <trkpt lat="47.75281" lon="-3.50839">
        <ele>5.74</ele>
        <time>2020-07-10T09:34:52Z</time>
      </trkpt>
      <trkpt lat="47.75281" lon="-3.50834">
        <ele>5.73</ele>
        <time>2020-07-10T09:34:53Z</time>
      </trkpt>
      <trkpt lat="47.75282" lon="-3.50829">
        <ele>5.72</ele>
        <time>2020-07-10T09:34:54Z</time>
      </trkpt>
      <trkpt lat="47.75282" lon="-3.50824">
        <ele>5.7</ele>
        <time>2020-07-10T09:34:55Z</time>
      </trkpt>
      <trkpt lat="47.75283" lon="-3.50819">
        <ele>5.66</ele>
        <time>2020-07-10T09:34:56Z</time>
      </trkpt>
      <trkpt lat="47.75284" lon="-3.50814">
        <ele>5.59</ele>
        <time>2020-07-10T09:34:57Z</time>
      </trkpt>
      <trkpt lat="47.75285" lon="-3.5081">
        <ele>5.49</ele>
        <time>2020-07-10T09:34:58Z</time>
      </trkpt>
      <trkpt lat="47.75287" lon="-3.50804">
        <ele>5.42</ele>
        <time>2020-07-10T09:34:59Z</time>
      </trkpt>
      <trkpt lat="47.75288" lon="-3.50798">
        <ele>5.5</ele>
        <time>2020-07-10T09:35:00Z</time>
      </trkpt>
      <trkpt lat="47.75288" lon="-3.50793">
        <ele>5.65</ele>
        <time>2020-07-10T09:35:01Z</time>
      </trkpt>
      <trkpt lat="47.75288" lon="-3.50788">
        <ele>5.85</ele>
        <time>2020-07-10T09:35:02Z</time>
      </trkpt>
      <trkpt lat="47.75287" lon="-3.50783">
        <ele>6.04</ele>
        <time>2020-07-10T09:35:03Z</time>
      </trkpt>
      <trkpt lat="47.75287" lon="-3.5078">
        <ele>6.17</ele>
        <time>2020-07-10T09:35:04Z</time>
      </trkpt>
      <trkpt lat="47.75287" lon="-3.50777">
        <ele>6.3</ele>
        <time>2020-07-10T09:35:05Z</time>
      </trkpt>
      <trkpt lat="47.75287" lon="-3.50773">
        <ele>6.55</ele>
        <time>2020-07-10T09:35:06Z</time>
      </trkpt>
      <trkpt lat="47.75285" lon="-3.50771">
        <ele>6.77</ele>
        <time>2020-07-10T09:35:07Z</time>
      </trkpt>
      <trkpt lat="47.75283" lon="-3.50771">
        <ele>6.99</ele>
        <time>2020-07-10T09:35:08Z</time>
      </trkpt>
      <trkpt lat="47.75281" lon="-3.5077">
        <ele>7.22</ele>
        <time>2020-07-10T09:35:09Z</time>
      </trkpt>
      <trkpt lat="47.75278" lon="-3.5077">
        <ele>7.45</ele>
        <time>2020-07-10T09:35:10Z</time>
      </trkpt>
      <trkpt lat="47.75276" lon="-3.5077">
        <ele>7.64</ele>
        <time>2020-07-10T09:35:11Z</time>
      </trkpt>
      <trkpt lat="47.75273" lon="-3.5077">
        <ele>7.83</ele>
        <time>2020-07-10T09:35:12Z</time>
      </trkpt>
      <trkpt lat="47.7527" lon="-3.50769">
        <ele>8.05</ele>
        <time>2020-07-10T09:35:13Z</time>
      </trkpt>
      <trkpt lat="47.75268" lon="-3.50768">
        <ele>8.31</ele>
        <time>2020-07-10T09:35:14Z</time>
      </trkpt>
      <trkpt lat="47.75265" lon="-3.50767">
        <ele>8.56</ele>
        <time>2020-07-10T09:35:15Z</time>
      </trkpt>
      <trkpt lat="47.75263" lon="-3.50765">
        <ele>8.85</ele>
        <time>2020-07-10T09:35:16Z</time>
      </trkpt>
      <trkpt lat="47.75261" lon="-3.50763">
        <ele>9.15</ele>
        <time>2020-07-10T09:35:17Z</time>
      </trkpt>
      <trkpt lat="47.75259" lon="-3.50761">
        <ele>9.48</ele>
        <time>2020-07-10T09:35:18Z</time>
      </trkpt>
      <trkpt lat="47.75256" lon="-3.50758">
        <ele>9.83</ele>
        <time>2020-07-10T09:35:19Z</time>
      </trkpt>
      <trkpt lat="47.75254" lon="-3.50755">
        <ele>10.2</ele>
        <time>2020-07-10T09:35:20Z</time>
      </trkpt>
      <trkpt lat="47.75252" lon="-3.50752">
        <ele>10.57</ele>
        <time>2020-07-10T09:35:21Z</time>
      </trkpt>
      <trkpt lat="47.7525" lon="-3.5075">
        <ele>10.89</ele>
        <time>2020-07-10T09:35:22Z</time>
      </trkpt>
      <trkpt lat="47.75248" lon="-3.50748">
        <ele>11.21</ele>
        <time>2020-07-10T09:35:23Z</time>
      </trkpt>
      <trkpt lat="47.75245" lon="-3.50745">
        <ele>11.52</ele>
        <time>2020-07-10T09:35:24Z</time>
      </trkpt>
      <trkpt lat="47.75242" lon="-3.50743">
        <ele>11.79</ele>
        <time>2020-07-10T09:35:25Z</time>
      </trkpt>
      <trkpt lat="47.75239" lon="-3.50742">
        <ele>12.02</ele>
        <time>2020-07-10T09:35:26Z</time>
      </trkpt>
      <trkpt lat="47.75237" lon="-3.50742">
        <ele>12.17</ele>
        <time>2020-07-10T09:35:27Z</time>
      </trkpt>
      <trkpt lat="47.75234" lon="-3.50741">
        <ele>12.29</ele>
        <time>2020-07-10T09:35:28Z</time>
      </trkpt>
      <trkpt lat="47.75231" lon="-3.50741">
        <ele>12.41</ele>
        <time>2020-07-10T09:35:29Z</time>
      </trkpt>
      <trkpt lat="47.75228" lon="-3.50741">
        <ele>12.5</ele>
        <time>2020-07-10T09:35:30Z</time>
      </trkpt>
      <trkpt lat="47.75225" lon="-3.50741">
        <ele>12.58</ele>
        <time>2020-07-10T09:35:31Z</time>
      </trkpt>
      <trkpt lat="47.75222" lon="-3.5074">
        <ele>12.66</ele>
        <time>2020-07-10T09:35:32Z</time>
      </trkpt>
      <trkpt lat="47.75219" lon="-3.5074">
        <ele>12.81</ele>
        <time>2020-07-10T09:35:33Z</time>
      </trkpt>
      <trkpt lat="47.75217" lon="-3.5074">
        <ele>12.99</ele>
        <time>2020-07-10T09:35:34Z</time>
      </trkpt>
      <trkpt lat="47.75214" lon="-3.50739">
        <ele>13.18</ele>
        <time>2020-07-10T09:35:35Z</time>
      </trkpt>
      <trkpt lat="47.75212" lon="-3.50738">
        <ele>13.38</ele>
        <time>2020-07-10T09:35:36Z</time>
      </trkpt>
      <trkpt lat="47.75209" lon="-3.50736">
        <ele>13.6</ele>
        <time>2020-07-10T09:35:37Z</time>
      </trkpt>
      <trkpt lat="47.75207" lon="-3.50735">
        <ele>13.81</ele>
        <time>2020-07-10T09:35:38Z</time>
      </trkpt>
      <trkpt lat="47.75205" lon="-3.50733">
        <ele>14.02</ele>
        <time>2020-07-10T09:35:39Z</time>
      </trkpt>
      <trkpt lat="47.75202" lon="-3.50732">
        <ele>14.22</ele>
        <time>2020-07-10T09:35:40Z</time>
      </trkpt>
      <trkpt lat="47.75199" lon="-3.5073">
        <ele>14.4</ele>
        <time>2020-07-10T09:35:41Z</time>
      </trkpt>
      <trkpt lat="47.75196" lon="-3.50729">
        <ele>14.59</ele>
        <time>2020-07-10T09:35:42Z</time>
      </trkpt>
      <trkpt lat="47.75193" lon="-3.50727">
        <ele>14.78</ele>
        <time>2020-07-10T09:35:43Z</time>
      </trkpt>
      <trkpt lat="47.75191" lon="-3.50726">
        <ele>14.95</ele>
        <time>2020-07-10T09:35:44Z</time>
      </trkpt>
      <trkpt lat="47.75188" lon="-3.50725">
        <ele>15.09</ele>
        <time>2020-07-10T09:35:45Z</time>
      </trkpt>
      <trkpt lat="47.75186" lon="-3.50724">
        <ele>15.22</ele>
        <time>2020-07-10T09:35:46Z</time>
      </trkpt>
      <trkpt lat="47.75184" lon="-3.50722">
        <ele>15.34</ele>
        <time>2020-07-10T09:35:47Z</time>
      </trkpt>
      <trkpt lat="47.75182" lon="-3.5072">
        <ele>15.45</ele>
        <time>2020-07-10T09:35:48Z</time>
      </trkpt>
      <trkpt lat="47.75179" lon="-3.5072">
        <ele>15.56</ele>
        <time>2020-07-10T09:35:49Z</time>
      </trkpt>
      <trkpt lat="47.75176" lon="-3.5072">
        <ele>15.67</ele>
        <time>2020-07-10T09:35:50Z</time>
      </trkpt>
      <trkpt lat="47.75173" lon="-3.50721">
        <ele>15.76</ele>
        <time>2020-07-10T09:35:51Z</time>
      </trkpt>
      <trkpt lat="47.7517" lon="-3.50723">
        <ele>15.84</ele>
        <time>2020-07-10T09:35:52Z</time>
      </trkpt>
      <trkpt lat="47.75167" lon="-3.50725">
        <ele>15.95</ele>
        <time>2020-07-10T09:35:53Z</time>
      </trkpt>
      <trkpt lat="47.75164" lon="-3.50726">
        <ele>16.11</ele>
        <time>2020-07-10T09:35:54Z</time>
      </trkpt>
      <trkpt lat="47.75161" lon="-3.50727">
        <ele>16.34</ele>
        <time>2020-07-10T09:35:55Z</time>
      </trkpt>
      <trkpt lat="47.75157" lon="-3.50729">
        <ele>16.57</ele>
        <time>2020-07-10T09:35:56Z</time>
      </trkpt>
      <trkpt lat="47.75154" lon="-3.50731">
        <ele>16.81</ele>
        <time>2020-07-10T09:35:57Z</time>
      </trkpt>
      <trkpt lat="47.7515" lon="-3.50733">
        <ele>17.08</ele>
        <time>2020-07-10T09:35:58Z</time>
      </trkpt>
      <trkpt lat="47.75146" lon="-3.50734">
        <ele>17.34</ele>
        <time>2020-07-10T09:35:59Z</time>
      </trkpt>
      <trkpt lat="47.75143" lon="-3.50735">
        <ele>17.57</ele>
        <time>2020-07-10T09:36:00Z</time>
      </trkpt>
      <trkpt lat="47.7514" lon="-3.50736">
        <ele>17.79</ele>
        <time>2020-07-10T09:36:01Z</time>
      </trkpt>
      <trkpt lat="47.75138" lon="-3.50737">
        <ele>17.99</ele>
        <time>2020-07-10T09:36:02Z</time>
      </trkpt>
      <trkpt lat="47.75135" lon="-3.50738">
        <ele>18.21</ele>
        <time>2020-07-10T09:36:03Z</time>
      </trkpt>
      <trkpt lat="47.75131" lon="-3.50739">
        <ele>18.44</ele>
        <time>2020-07-10T09:36:04Z</time>
      </trkpt>
      <trkpt lat="47.75128" lon="-3.50739">
        <ele>18.67</ele>
        <time>2020-07-10T09:36:05Z</time>
      </trkpt>
      <trkpt lat="47.75125" lon="-3.5074">
        <ele>18.89</ele>
        <time>2020-07-10T09:36:06Z</time>
      </trkpt>
      <trkpt lat="47.75122" lon="-3.5074">
        <ele>19.11</ele>
        <time>2020-07-10T09:36:07Z</time>
      </trkpt>
      <trkpt lat="47.75119" lon="-3.5074">
        <ele>19.33</ele>
        <time>2020-07-10T09:36:08Z</time>
      </trkpt>
      <trkpt lat="47.75116" lon="-3.50739">
        <ele>19.53</ele>
        <time>2020-07-10T09:36:09Z</time>
      </trkpt>
      <trkpt lat="47.75114" lon="-3.50736">
        <ele>19.72</ele>
        <time>2020-07-10T09:36:10Z</time>
      </trkpt>
      <trkpt lat="47.75111" lon="-3.50735">
        <ele>19.91</ele>
        <time>2020-07-10T09:36:11Z</time>
      </trkpt>
      <trkpt lat="47.75109" lon="-3.50732">
        <ele>20.03</ele>
        <time>2020-07-10T09:36:12Z</time>
      </trkpt>
      <trkpt lat="47.75107" lon="-3.5073">
        <ele>20.12</ele>
        <time>2020-07-10T09:36:13Z</time>
      </trkpt>
      <trkpt lat="47.75104" lon="-3.50728">
        <ele>20.21</ele>
        <time>2020-07-10T09:36:14Z</time>
      </trkpt>
      <trkpt lat="47.75102" lon="-3.50725">
        <ele>20.3</ele>
        <time>2020-07-10T09:36:15Z</time>
      </trkpt>
      <trkpt lat="47.75099" lon="-3.50724">
        <ele>20.4</ele>
        <time>2020-07-10T09:36:16Z</time>
      </trkpt>
      <trkpt lat="47.75096" lon="-3.50722">
        <ele>20.5</ele>
        <time>2020-07-10T09:36:17Z</time>
      </trkpt>
      <trkpt lat="47.75093" lon="-3.50722">
        <ele>20.6</ele>
        <time>2020-07-10T09:36:18Z</time>
      </trkpt>
      <trkpt lat="47.7509" lon="-3.50721">
        <ele>20.71</ele>
        <time>2020-07-10T09:36:19Z</time>
      </trkpt>
      <trkpt lat="47.75087" lon="-3.5072">
        <ele>20.82</ele>
        <time>2020-07-10T09:36:20Z</time>
      </trkpt>
      <trkpt lat="47.75084" lon="-3.50719">
        <ele>20.92</ele>
        <time>2020-07-10T09:36:21Z</time>
      </trkpt>
      <trkpt lat="47.75081" lon="-3.50717">
        <ele>21.02</ele>
        <time>2020-07-10T09:36:22Z</time>
      </trkpt>
      <trkpt lat="47.75078" lon="-3.50715">
        <ele>21.13</ele>
        <time>2020-07-10T09:36:23Z</time>
      </trkpt>
      <trkpt lat="47.75076" lon="-3.50712">
        <ele>21.22</ele>
        <time>2020-07-10T09:36:24Z</time>
      </trkpt>
      <trkpt lat="47.75074" lon="-3.50708">
        <ele>21.29</ele>
        <time>2020-07-10T09:36:25Z</time>
      </trkpt>
      <trkpt lat="47.75073" lon="-3.50703">
        <ele>21.35</ele>
        <time>2020-07-10T09:36:26Z</time>
      </trkpt>
      <trkpt lat="47.75071" lon="-3.50698">
        <ele>21.41</ele>
        <time>2020-07-10T09:36:27Z</time>
      </trkpt>
      <trkpt lat="47.7507" lon="-3.50693">
        <ele>21.49</ele>
        <time>2020-07-10T09:36:28Z</time>
      </trkpt>
      <trkpt lat="47.75068" lon="-3.50689">
        <ele>21.59</ele>
        <time>2020-07-10T09:36:29Z</time>
      </trkpt>
      <trkpt lat="47.75067" lon="-3.50684">
        <ele>21.7</ele>
        <time>2020-07-10T09:36:30Z</time>
      </trkpt>
      <trkpt lat="47.75065" lon="-3.5068">
        <ele>21.79</ele>
        <time>2020-07-10T09:36:31Z</time>
      </trkpt>
      <trkpt lat="47.75064" lon="-3.50675">
        <ele>21.87</ele>
        <time>2020-07-10T09:36:32Z</time>
      </trkpt>
      <trkpt lat="47.75062" lon="-3.50671">
        <ele>21.94</ele>
        <time>2020-07-10T09:36:33Z</time>
      </trkpt>
      <trkpt lat="47.75061" lon="-3.50666">
        <ele>21.98</ele>
        <time>2020-07-10T09:36:34Z</time>
      </trkpt>
      <trkpt lat="47.7506" lon="-3.50662">
        <ele>22.09</ele>
        <time>2020-07-10T09:36:35Z</time>
      </trkpt>
      <trkpt lat="47.75059" lon="-3.50658">
        <ele>22.22</ele>
        <time>2020-07-10T09:36:36Z</time>
      </trkpt>
      <trkpt lat="47.75057" lon="-3.50654">
        <ele>22.37</ele>
        <time>2020-07-10T09:36:37Z</time>
      </trkpt>
      <trkpt lat="47.75056" lon="-3.50649">
        <ele>22.55</ele>
        <time>2020-07-10T09:36:38Z</time>
      </trkpt>
      <trkpt lat="47.75054" lon="-3.50645">
        <ele>22.6</ele>
        <time>2020-07-10T09:36:39Z</time>
      </trkpt>
      <trkpt lat="47.75053" lon="-3.5064">
        <ele>22.58</ele>
        <time>2020-07-10T09:36:40Z</time>
      </trkpt>
      <trkpt lat="47.75052" lon="-3.50636">
        <ele>22.5</ele>
        <time>2020-07-10T09:36:41Z</time>
      </trkpt>
      <trkpt lat="47.7505" lon="-3.50632">
        <ele>22.33</ele>
        <time>2020-07-10T09:36:42Z</time>
      </trkpt>
      <trkpt lat="47.75048" lon="-3.50628">
        <ele>22.16</ele>
        <time>2020-07-10T09:36:43Z</time>
      </trkpt>
      <trkpt lat="47.75046" lon="-3.50623">
        <ele>22.06</ele>
        <time>2020-07-10T09:36:44Z</time>
      </trkpt>
      <trkpt lat="47.75045" lon="-3.50618">
        <ele>22.04</ele>
        <time>2020-07-10T09:36:45Z</time>
      </trkpt>
      <trkpt lat="47.75044" lon="-3.50613">
        <ele>22.08</ele>
        <time>2020-07-10T09:36:46Z</time>
      </trkpt>
      <trkpt lat="47.75042" lon="-3.50608">
        <ele>22.16</ele>
        <time>2020-07-10T09:36:47Z</time>
      </trkpt>
      <trkpt lat="47.75041" lon="-3.50604">
        <ele>22.31</ele>
        <time>2020-07-10T09:36:48Z</time>
      </trkpt>
      <trkpt lat="47.7504" lon="-3.50599">
        <ele>22.54</ele>
        <time>2020-07-10T09:36:49Z</time>
      </trkpt>
      <trkpt lat="47.75039" lon="-3.50593">
        <ele>22.84</ele>
        <time>2020-07-10T09:36:50Z</time>
      </trkpt>
      <trkpt lat="47.75037" lon="-3.50587">
        <ele>23.23</ele>
        <time>2020-07-10T09:36:51Z</time>
      </trkpt>
      <trkpt lat="47.75035" lon="-3.50581">
        <ele>23.55</ele>
        <time>2020-07-10T09:36:52Z</time>
      </trkpt>
      <trkpt lat="47.75033" lon="-3.50577">
        <ele>23.6</ele>
        <time>2020-07-10T09:36:53Z</time>
      </trkpt>
      <trkpt lat="47.75031" lon="-3.50574">
        <ele>23.59</ele>
        <time>2020-07-10T09:36:54Z</time>
      </trkpt>
      <trkpt lat="47.75027" lon="-3.50572">
        <ele>23.57</ele>
        <time>2020-07-10T09:36:55Z</time>
      </trkpt>
      <trkpt lat="47.75023" lon="-3.50571">
        <ele>23.42</ele>
        <time>2020-07-10T09:36:56Z</time>
      </trkpt>
      <trkpt lat="47.75019" lon="-3.50569">
        <ele>23.25</ele>
        <time>2020-07-10T09:36:57Z</time>
      </trkpt>
      <trkpt lat="47.75016" lon="-3.50566">
        <ele>23.12</ele>
        <time>2020-07-10T09:36:58Z</time>
      </trkpt>
      <trkpt lat="47.75014" lon="-3.50563">
        <ele>23.04</ele>
        <time>2020-07-10T09:36:59Z</time>
      </trkpt>
      <trkpt lat="47.75012" lon="-3.50559">
        <ele>22.99</ele>
        <time>2020-07-10T09:37:00Z</time>
      </trkpt>
      <trkpt lat="47.75009" lon="-3.50556">
        <ele>22.99</ele>
        <time>2020-07-10T09:37:01Z</time>
      </trkpt>
      <trkpt lat="47.75005" lon="-3.50554">
        <ele>23</ele>
        <time>2020-07-10T09:37:02Z</time>
      </trkpt>
      <trkpt lat="47.75002" lon="-3.50551">
        <ele>23</ele>
        <time>2020-07-10T09:37:03Z</time>
      </trkpt>
      <trkpt lat="47.74998" lon="-3.50548">
        <ele>22.96</ele>
        <time>2020-07-10T09:37:04Z</time>
      </trkpt>
      <trkpt lat="47.74995" lon="-3.50545">
        <ele>22.86</ele>
        <time>2020-07-10T09:37:05Z</time>
      </trkpt>
      <trkpt lat="47.74992" lon="-3.50542">
        <ele>22.74</ele>
        <time>2020-07-10T09:37:06Z</time>
      </trkpt>
      <trkpt lat="47.74988" lon="-3.50538">
        <ele>22.62</ele>
        <time>2020-07-10T09:37:07Z</time>
      </trkpt>
      <trkpt lat="47.74985" lon="-3.50533">
        <ele>22.5</ele>
        <time>2020-07-10T09:37:08Z</time>
      </trkpt>
      <trkpt lat="47.74981" lon="-3.50528">
        <ele>22.37</ele>
        <time>2020-07-10T09:37:09Z</time>
      </trkpt>
      <trkpt lat="47.74978" lon="-3.50523">
        <ele>22.22</ele>
        <time>2020-07-10T09:37:10Z</time>
      </trkpt>
      <trkpt lat="47.74975" lon="-3.50517">
        <ele>22.1</ele>
        <time>2020-07-10T09:37:11Z</time>
      </trkpt>
      <trkpt lat="47.74972" lon="-3.50512">
        <ele>21.99</ele>
        <time>2020-07-10T09:37:12Z</time>
      </trkpt>
      <trkpt lat="47.74968" lon="-3.50506">
        <ele>21.79</ele>
        <time>2020-07-10T09:37:13Z</time>
      </trkpt>
      <trkpt lat="47.74965" lon="-3.50501">
        <ele>21.58</ele>
        <time>2020-07-10T09:37:14Z</time>
      </trkpt>
      <trkpt lat="47.74962" lon="-3.50495">
        <ele>21.41</ele>
        <time>2020-07-10T09:37:15Z</time>
      </trkpt>
      <trkpt lat="47.74959" lon="-3.5049">
        <ele>21.27</ele>
        <time>2020-07-10T09:37:16Z</time>
      </trkpt>
      <trkpt lat="47.74955" lon="-3.50484">
        <ele>21.18</ele>
        <time>2020-07-10T09:37:17Z</time>
      </trkpt>
      <trkpt lat="47.74952" lon="-3.50478">
        <ele>21.13</ele>
        <time>2020-07-10T09:37:18Z</time>
      </trkpt>
      <trkpt lat="47.74948" lon="-3.50472">
        <ele>21.13</ele>
        <time>2020-07-10T09:37:19Z</time>
      </trkpt>
      <trkpt lat="47.74944" lon="-3.50468">
        <ele>21.01</ele>
        <time>2020-07-10T09:37:20Z</time>
      </trkpt>
      <trkpt lat="47.7494" lon="-3.50462">
        <ele>20.83</ele>
        <time>2020-07-10T09:37:21Z</time>
      </trkpt>
      <trkpt lat="47.74936" lon="-3.50456">
        <ele>20.67</ele>
        <time>2020-07-10T09:37:22Z</time>
      </trkpt>
      <trkpt lat="47.74934" lon="-3.50449">
        <ele>20.59</ele>
        <time>2020-07-10T09:37:23Z</time>
      </trkpt>
      <trkpt lat="47.74932" lon="-3.50442">
        <ele>20.55</ele>
        <time>2020-07-10T09:37:24Z</time>
      </trkpt>
      <trkpt lat="47.7493" lon="-3.50436">
        <ele>20.5</ele>
        <time>2020-07-10T09:37:25Z</time>
      </trkpt>
      <trkpt lat="47.74929" lon="-3.50432">
        <ele>20.46</ele>
        <time>2020-07-10T09:37:26Z</time>
      </trkpt>
      <trkpt lat="47.74928" lon="-3.50431">
        <ele>20.42</ele>
        <time>2020-07-10T09:37:27Z</time>
      </trkpt>
      <trkpt lat="47.74927" lon="-3.5043">
        <ele>20.4</ele>
        <time>2020-07-10T09:37:28Z</time>
      </trkpt>
      <trkpt lat="47.74927" lon="-3.5043">
        <ele>20.37</ele>
        <time>2020-07-10T09:37:29Z</time>
      </trkpt>
      <trkpt lat="47.74925" lon="-3.5043">
        <ele>20.32</ele>
        <time>2020-07-10T09:37:30Z</time>
      </trkpt>
      <trkpt lat="47.74922" lon="-3.50433">
        <ele>20.23</ele>
        <time>2020-07-10T09:37:31Z</time>
      </trkpt>
      <trkpt lat="47.74919" lon="-3.50439">
        <ele>20.12</ele>
        <time>2020-07-10T09:37:32Z</time>
      </trkpt>
      <trkpt lat="47.74915" lon="-3.50443">
        <ele>19.99</ele>
        <time>2020-07-10T09:37:33Z</time>
      </trkpt>
      <trkpt lat="47.7491" lon="-3.50445">
        <ele>19.81</ele>
        <time>2020-07-10T09:37:34Z</time>
      </trkpt>
      <trkpt lat="47.74905" lon="-3.50445">
        <ele>19.64</ele>
        <time>2020-07-10T09:37:35Z</time>
      </trkpt>
      <trkpt lat="47.74901" lon="-3.50445">
        <ele>19.49</ele>
        <time>2020-07-10T09:37:36Z</time>
      </trkpt>
      <trkpt lat="47.74896" lon="-3.50445">
        <ele>19.31</ele>
        <time>2020-07-10T09:37:37Z</time>
      </trkpt>
      <trkpt lat="47.74891" lon="-3.50445">
        <ele>19.15</ele>
        <time>2020-07-10T09:37:38Z</time>
      </trkpt>
      <trkpt lat="47.74886" lon="-3.50444">
        <ele>19.11</ele>
        <time>2020-07-10T09:37:39Z</time>
      </trkpt>
      <trkpt lat="47.74881" lon="-3.50442">
        <ele>19.24</ele>
        <time>2020-07-10T09:37:40Z</time>
      </trkpt>
      <trkpt lat="47.74877" lon="-3.50439">
        <ele>19.43</ele>
        <time>2020-07-10T09:37:41Z</time>
      </trkpt>
      <trkpt lat="47.74874" lon="-3.50433">
        <ele>19.65</ele>
        <time>2020-07-10T09:37:42Z</time>
      </trkpt>
      <trkpt lat="47.74873" lon="-3.50426">
        <ele>19.87</ele>
        <time>2020-07-10T09:37:43Z</time>
      </trkpt>
      <trkpt lat="47.74872" lon="-3.5042">
        <ele>20.04</ele>
        <time>2020-07-10T09:37:44Z</time>
      </trkpt>
      <trkpt lat="47.74872" lon="-3.50414">
        <ele>20.07</ele>
        <time>2020-07-10T09:37:45Z</time>
      </trkpt>
      <trkpt lat="47.74871" lon="-3.50407">
        <ele>19.88</ele>
        <time>2020-07-10T09:37:46Z</time>
      </trkpt>
      <trkpt lat="47.74871" lon="-3.504">
        <ele>19.61</ele>
        <time>2020-07-10T09:37:47Z</time>
      </trkpt>
      <trkpt lat="47.7487" lon="-3.50393">
        <ele>19.31</ele>
        <time>2020-07-10T09:37:48Z</time>
      </trkpt>
      <trkpt lat="47.74869" lon="-3.50386">
        <ele>19.04</ele>
        <time>2020-07-10T09:37:49Z</time>
      </trkpt>
      <trkpt lat="47.74867" lon="-3.50379">
        <ele>18.82</ele>
        <time>2020-07-10T09:37:50Z</time>
      </trkpt>
      <trkpt lat="47.74864" lon="-3.50372">
        <ele>18.57</ele>
        <time>2020-07-10T09:37:51Z</time>
      </trkpt>
      <trkpt lat="47.74862" lon="-3.50365">
        <ele>18.3</ele>
        <time>2020-07-10T09:37:52Z</time>
      </trkpt>
      <trkpt lat="47.7486" lon="-3.50358">
        <ele>18.09</ele>
        <time>2020-07-10T09:37:53Z</time>
      </trkpt>
      <trkpt lat="47.74858" lon="-3.50351">
        <ele>18</ele>
        <time>2020-07-10T09:37:54Z</time>
      </trkpt>
      <trkpt lat="47.74857" lon="-3.50344">
        <ele>17.94</ele>
        <time>2020-07-10T09:37:55Z</time>
      </trkpt>
      <trkpt lat="47.74855" lon="-3.50337">
        <ele>17.86</ele>
        <time>2020-07-10T09:37:56Z</time>
      </trkpt>
      <trkpt lat="47.74854" lon="-3.5033">
        <ele>17.72</ele>
        <time>2020-07-10T09:37:57Z</time>
      </trkpt>
      <trkpt lat="47.74852" lon="-3.50323">
        <ele>17.52</ele>
        <time>2020-07-10T09:37:58Z</time>
      </trkpt>
      <trkpt lat="47.7485" lon="-3.50316">
        <ele>17.32</ele>
        <time>2020-07-10T09:37:59Z</time>
      </trkpt>
      <trkpt lat="47.74848" lon="-3.50309">
        <ele>17.14</ele>
        <time>2020-07-10T09:38:00Z</time>
      </trkpt>
      <trkpt lat="47.74846" lon="-3.503">
        <ele>16.84</ele>
        <time>2020-07-10T09:38:01Z</time>
      </trkpt>
      <trkpt lat="47.74844" lon="-3.50292">
        <ele>16.39</ele>
        <time>2020-07-10T09:38:02Z</time>
      </trkpt>
      <trkpt lat="47.7484" lon="-3.50284">
        <ele>15.88</ele>
        <time>2020-07-10T09:38:03Z</time>
      </trkpt>
      <trkpt lat="47.74837" lon="-3.50277">
        <ele>15.34</ele>
        <time>2020-07-10T09:38:04Z</time>
      </trkpt>
      <trkpt lat="47.74832" lon="-3.50271">
        <ele>15.1</ele>
        <time>2020-07-10T09:38:05Z</time>
      </trkpt>
      <trkpt lat="47.74828" lon="-3.50265">
        <ele>14.97</ele>
        <time>2020-07-10T09:38:06Z</time>
      </trkpt>
      <trkpt lat="47.74824" lon="-3.5026">
        <ele>14.84</ele>
        <time>2020-07-10T09:38:07Z</time>
      </trkpt>
      <trkpt lat="47.74821" lon="-3.50257">
        <ele>14.71</ele>
        <time>2020-07-10T09:38:08Z</time>
      </trkpt>
      <trkpt lat="47.74817" lon="-3.50257">
        <ele>14.61</ele>
        <time>2020-07-10T09:38:09Z</time>
      </trkpt>
      <trkpt lat="47.74813" lon="-3.50259">
        <ele>14.54</ele>
        <time>2020-07-10T09:38:10Z</time>
      </trkpt>
      <trkpt lat="47.74809" lon="-3.50262">
        <ele>14.51</ele>
        <time>2020-07-10T09:38:11Z</time>
      </trkpt>
      <trkpt lat="47.74805" lon="-3.50264">
        <ele>14.48</ele>
        <time>2020-07-10T09:38:12Z</time>
      </trkpt>
      <trkpt lat="47.74801" lon="-3.50266">
        <ele>14.43</ele>
        <time>2020-07-10T09:38:13Z</time>
      </trkpt>
      <trkpt lat="47.74796" lon="-3.50268">
        <ele>14.35</ele>
        <time>2020-07-10T09:38:14Z</time>
      </trkpt>
      <trkpt lat="47.74792" lon="-3.5027">
        <ele>14.26</ele>
        <time>2020-07-10T09:38:15Z</time>
      </trkpt>
      <trkpt lat="47.74787" lon="-3.50272">
        <ele>14.17</ele>
        <time>2020-07-10T09:38:16Z</time>
      </trkpt>
      <trkpt lat="47.74783" lon="-3.50273">
        <ele>14.06</ele>
        <time>2020-07-10T09:38:17Z</time>
      </trkpt>
      <trkpt lat="47.74779" lon="-3.50275">
        <ele>13.97</ele>
        <time>2020-07-10T09:38:18Z</time>
      </trkpt>
      <trkpt lat="47.74776" lon="-3.50275">
        <ele>13.88</ele>
        <time>2020-07-10T09:38:19Z</time>
      </trkpt>
      <trkpt lat="47.74773" lon="-3.50276">
        <ele>13.81</ele>
        <time>2020-07-10T09:38:20Z</time>
      </trkpt>
      <trkpt lat="47.74772" lon="-3.50276">
        <ele>13.76</ele>
        <time>2020-07-10T09:38:21Z</time>
      </trkpt>
      <trkpt lat="47.74771" lon="-3.50276">
        <ele>13.73</ele>
        <time>2020-07-10T09:38:22Z</time>
      </trkpt>
      <trkpt lat="47.7477" lon="-3.50276">
        <ele>13.69</ele>
        <time>2020-07-10T09:38:23Z</time>
      </trkpt>
      <trkpt lat="47.74768" lon="-3.50277">
        <ele>13.64</ele>
        <time>2020-07-10T09:38:24Z</time>
      </trkpt>
      <trkpt lat="47.74765" lon="-3.50278">
        <ele>13.58</ele>
        <time>2020-07-10T09:38:25Z</time>
      </trkpt>
      <trkpt lat="47.74762" lon="-3.50278">
        <ele>13.5</ele>
        <time>2020-07-10T09:38:26Z</time>
      </trkpt>
      <trkpt lat="47.7476" lon="-3.50279">
        <ele>13.43</ele>
        <time>2020-07-10T09:38:27Z</time>
      </trkpt>
      <trkpt lat="47.74758" lon="-3.5028">
        <ele>13.37</ele>
        <time>2020-07-10T09:38:28Z</time>
      </trkpt>
      <trkpt lat="47.74756" lon="-3.50281">
        <ele>13.34</ele>
        <time>2020-07-10T09:38:29Z</time>
      </trkpt>
      <trkpt lat="47.74755" lon="-3.50282">
        <ele>13.32</ele>
        <time>2020-07-10T09:38:30Z</time>
      </trkpt>
      <trkpt lat="47.74753" lon="-3.50284">
        <ele>13.31</ele>
        <time>2020-07-10T09:38:31Z</time>
      </trkpt>
      <trkpt lat="47.74752" lon="-3.50285">
        <ele>13.31</ele>
        <time>2020-07-10T09:38:32Z</time>
      </trkpt>
      <trkpt lat="47.74751" lon="-3.50286">
        <ele>13.33</ele>
        <time>2020-07-10T09:38:33Z</time>
      </trkpt>
      <trkpt lat="47.74751" lon="-3.50287">
        <ele>13.34</ele>
        <time>2020-07-10T09:38:34Z</time>
      </trkpt>
      <trkpt lat="47.74751" lon="-3.50287">
        <ele>13.35</ele>
        <time>2020-07-10T09:38:35Z</time>
      </trkpt>
      <trkpt lat="47.74751" lon="-3.50287">
        <ele>13.35</ele>
        <time>2020-07-10T09:38:36Z</time>
      </trkpt>
      <trkpt lat="47.74751" lon="-3.50287">
        <ele>13.35</ele>
        <time>2020-07-10T09:38:37Z</time>
      </trkpt>
      <trkpt lat="47.74751" lon="-3.50287">
        <ele>13.35</ele>
        <time>2020-07-10T09:38:38Z</time>
      </trkpt>
      <trkpt lat="47.74751" lon="-3.50287">
        <ele>13.35</ele>
        <time>2020-07-10T09:38:39Z</time>
      </trkpt>
      <trkpt lat="47.74751" lon="-3.50287">
        <ele>13.35</ele>
        <time>2020-07-10T09:38:40Z</time>
      </trkpt>
      <trkpt lat="47.74751" lon="-3.50287">
        <ele>13.35</ele>
        <time>2020-07-10T09:38:41Z</time>
      </trkpt>
      <trkpt lat="47.74751" lon="-3.50287">
        <ele>13.35</ele>
        <time>2020-07-10T09:38:42Z</time>
      </trkpt>
      <trkpt lat="47.74751" lon="-3.50287">
        <ele>13.35</ele>
        <time>2020-07-10T09:38:43Z</time>
      </trkpt>
      <trkpt lat="47.74751" lon="-3.50287">
        <ele>13.35</ele>
        <time>2020-07-10T09:38:44Z</time>
      </trkpt>
      <trkpt lat="47.74751" lon="-3.50287">
        <ele>13.35</ele>
        <time>2020-07-10T09:38:45Z</time>
      </trkpt>
      <trkpt lat="47.74751" lon="-3.50287">
        <ele>13.35</ele>
        <time>2020-07-10T09:38:46Z</time>
      </trkpt>
      <trkpt lat="47.74751" lon="-3.50287">
        <ele>13.35</ele>
        <time>2020-07-10T09:38:47Z</time>
      </trkpt>
      <trkpt lat="47.74751" lon="-3.50287">
        <ele>13.35</ele>
        <time>2020-07-10T09:38:48Z</time>
      </trkpt>
      <trkpt lat="47.74751" lon="-3.50287">
        <ele>13.35</ele>
        <time>2020-07-10T09:38:49Z</time>
      </trkpt>
      <trkpt lat="47.74751" lon="-3.50287">
        <ele>13.35</ele>
        <time>2020-07-10T09:38:50Z</time>
      </trkpt>
      <trkpt lat="47.74751" lon="-3.50287">
        <ele>13.35</ele>
        <time>2020-07-10T09:38:51Z</time>
      </trkpt>
      <trkpt lat="47.74751" lon="-3.50287">
        <ele>13.35</ele>
        <time>2020-07-10T09:38:52Z</time>
      </trkpt>
      <trkpt lat="47.74751" lon="-3.50287">
        <ele>13.35</ele>
        <time>2020-07-10T09:38:53Z</time>
      </trkpt>
      <trkpt lat="47.74756" lon="-3.50285">
        <ele>13.4</ele>
        <time>2020-07-10T09:38:54Z</time>
      </trkpt>
      <trkpt lat="47.74758" lon="-3.50283">
        <ele>13.43</ele>
        <time>2020-07-10T09:38:55Z</time>
      </trkpt>
      <trkpt lat="47.7476" lon="-3.50282">
        <ele>13.46</ele>
        <time>2020-07-10T09:38:56Z</time>
      </trkpt>
      <trkpt lat="47.74762" lon="-3.50282">
        <ele>13.49</ele>
        <time>2020-07-10T09:38:57Z</time>
      </trkpt>
      <trkpt lat="47.74763" lon="-3.50281">
        <ele>13.53</ele>
        <time>2020-07-10T09:38:58Z</time>
      </trkpt>
      <trkpt lat="47.74766" lon="-3.50281">
        <ele>13.59</ele>
        <time>2020-07-10T09:38:59Z</time>
      </trkpt>
      <trkpt lat="47.74768" lon="-3.5028">
        <ele>13.64</ele>
        <time>2020-07-10T09:39:00Z</time>
      </trkpt>
      <trkpt lat="47.7477" lon="-3.5028">
        <ele>13.7</ele>
        <time>2020-07-10T09:39:01Z</time>
      </trkpt>
      <trkpt lat="47.74772" lon="-3.50279">
        <ele>13.77</ele>
        <time>2020-07-10T09:39:02Z</time>
      </trkpt>
      <trkpt lat="47.74774" lon="-3.50279">
        <ele>13.84</ele>
        <time>2020-07-10T09:39:03Z</time>
      </trkpt>
      <trkpt lat="47.74777" lon="-3.50279">
        <ele>13.92</ele>
        <time>2020-07-10T09:39:04Z</time>
      </trkpt>
      <trkpt lat="47.74779" lon="-3.50279">
        <ele>14.02</ele>
        <time>2020-07-10T09:39:05Z</time>
      </trkpt>
      <trkpt lat="47.74782" lon="-3.50278">
        <ele>14.12</ele>
        <time>2020-07-10T09:39:06Z</time>
      </trkpt>
      <trkpt lat="47.74785" lon="-3.50278">
        <ele>14.23</ele>
        <time>2020-07-10T09:39:07Z</time>
      </trkpt>
      <trkpt lat="47.74789" lon="-3.50277">
        <ele>14.32</ele>
        <time>2020-07-10T09:39:08Z</time>
      </trkpt>
      <trkpt lat="47.74792" lon="-3.50275">
        <ele>14.39</ele>
        <time>2020-07-10T09:39:09Z</time>
      </trkpt>
      <trkpt lat="47.74796" lon="-3.50273">
        <ele>14.46</ele>
        <time>2020-07-10T09:39:10Z</time>
      </trkpt>
      <trkpt lat="47.74799" lon="-3.50272">
        <ele>14.55</ele>
        <time>2020-07-10T09:39:11Z</time>
      </trkpt>
      <trkpt lat="47.74803" lon="-3.50271">
        <ele>14.64</ele>
        <time>2020-07-10T09:39:12Z</time>
      </trkpt>
      <trkpt lat="47.74807" lon="-3.5027">
        <ele>14.7</ele>
        <time>2020-07-10T09:39:13Z</time>
      </trkpt>
      <trkpt lat="47.7481" lon="-3.50269">
        <ele>14.72</ele>
        <time>2020-07-10T09:39:14Z</time>
      </trkpt>
      <trkpt lat="47.74813" lon="-3.50267">
        <ele>14.72</ele>
        <time>2020-07-10T09:39:15Z</time>
      </trkpt>
      <trkpt lat="47.74815" lon="-3.50266">
        <ele>14.72</ele>
        <time>2020-07-10T09:39:16Z</time>
      </trkpt>
      <trkpt lat="47.74818" lon="-3.50265">
        <ele>14.73</ele>
        <time>2020-07-10T09:39:17Z</time>
      </trkpt>
      <trkpt lat="47.7482" lon="-3.50263">
        <ele>14.75</ele>
        <time>2020-07-10T09:39:18Z</time>
      </trkpt>
      <trkpt lat="47.74822" lon="-3.50262">
        <ele>14.77</ele>
        <time>2020-07-10T09:39:19Z</time>
      </trkpt>
      <trkpt lat="47.74825" lon="-3.50264">
        <ele>14.82</ele>
        <time>2020-07-10T09:39:20Z</time>
      </trkpt>
      <trkpt lat="47.74828" lon="-3.50265">
        <ele>14.88</ele>
        <time>2020-07-10T09:39:21Z</time>
      </trkpt>
      <trkpt lat="47.7483" lon="-3.50267">
        <ele>14.93</ele>
        <time>2020-07-10T09:39:22Z</time>
      </trkpt>
      <trkpt lat="47.74831" lon="-3.50269">
        <ele>14.96</ele>
        <time>2020-07-10T09:39:23Z</time>
      </trkpt>
      <trkpt lat="47.74832" lon="-3.50271">
        <ele>14.98</ele>
        <time>2020-07-10T09:39:24Z</time>
      </trkpt>
      <trkpt lat="47.74834" lon="-3.50273">
        <ele>15</ele>
        <time>2020-07-10T09:39:25Z</time>
      </trkpt>
      <trkpt lat="47.74835" lon="-3.50276">
        <ele>15.04</ele>
        <time>2020-07-10T09:39:26Z</time>
      </trkpt>
      <trkpt lat="47.74836" lon="-3.50279">
        <ele>15.15</ele>
        <time>2020-07-10T09:39:27Z</time>
      </trkpt>
      <trkpt lat="47.74838" lon="-3.50282">
        <ele>15.34</ele>
        <time>2020-07-10T09:39:28Z</time>
      </trkpt>
      <trkpt lat="47.74839" lon="-3.50284">
        <ele>15.55</ele>
        <time>2020-07-10T09:39:29Z</time>
      </trkpt>
      <trkpt lat="47.74841" lon="-3.50286">
        <ele>15.73</ele>
        <time>2020-07-10T09:39:30Z</time>
      </trkpt>
      <trkpt lat="47.74842" lon="-3.50289">
        <ele>15.89</ele>
        <time>2020-07-10T09:39:31Z</time>
      </trkpt>
      <trkpt lat="47.74843" lon="-3.50291">
        <ele>16.05</ele>
        <time>2020-07-10T09:39:32Z</time>
      </trkpt>
      <trkpt lat="47.74844" lon="-3.50293">
        <ele>16.22</ele>
        <time>2020-07-10T09:39:33Z</time>
      </trkpt>
      <trkpt lat="47.74846" lon="-3.50297">
        <ele>16.43</ele>
        <time>2020-07-10T09:39:34Z</time>
      </trkpt>
      <trkpt lat="47.74847" lon="-3.50301">
        <ele>16.64</ele>
        <time>2020-07-10T09:39:35Z</time>
      </trkpt>
      <trkpt lat="47.74848" lon="-3.50305">
        <ele>16.87</ele>
        <time>2020-07-10T09:39:36Z</time>
      </trkpt>
      <trkpt lat="47.7485" lon="-3.5031">
        <ele>17.03</ele>
        <time>2020-07-10T09:39:37Z</time>
      </trkpt>
      <trkpt lat="47.74851" lon="-3.50314">
        <ele>17.15</ele>
        <time>2020-07-10T09:39:38Z</time>
      </trkpt>
      <trkpt lat="47.74852" lon="-3.50319">
        <ele>17.27</ele>
        <time>2020-07-10T09:39:39Z</time>
      </trkpt>
      <trkpt lat="47.74854" lon="-3.50323">
        <ele>17.4</ele>
        <time>2020-07-10T09:39:40Z</time>
      </trkpt>
      <trkpt lat="47.74854" lon="-3.50326">
        <ele>17.52</ele>
        <time>2020-07-10T09:39:41Z</time>
      </trkpt>
      <trkpt lat="47.74855" lon="-3.5033">
        <ele>17.65</ele>
        <time>2020-07-10T09:39:42Z</time>
      </trkpt>
      <trkpt lat="47.74857" lon="-3.50335">
        <ele>17.78</ele>
        <time>2020-07-10T09:39:43Z</time>
      </trkpt>
      <trkpt lat="47.74858" lon="-3.5034">
        <ele>17.87</ele>
        <time>2020-07-10T09:39:44Z</time>
      </trkpt>
      <trkpt lat="47.74858" lon="-3.50345">
        <ele>17.92</ele>
        <time>2020-07-10T09:39:45Z</time>
      </trkpt>
      <trkpt lat="47.74859" lon="-3.5035">
        <ele>17.96</ele>
        <time>2020-07-10T09:39:46Z</time>
      </trkpt>
      <trkpt lat="47.7486" lon="-3.50355">
        <ele>17.98</ele>
        <time>2020-07-10T09:39:47Z</time>
      </trkpt>
      <trkpt lat="47.74861" lon="-3.50359">
        <ele>17.99</ele>
        <time>2020-07-10T09:39:48Z</time>
      </trkpt>
      <trkpt lat="47.74862" lon="-3.50364">
        <ele>18.09</ele>
        <time>2020-07-10T09:39:49Z</time>
      </trkpt>
      <trkpt lat="47.74864" lon="-3.50369">
        <ele>18.26</ele>
        <time>2020-07-10T09:39:50Z</time>
      </trkpt>
      <trkpt lat="47.74865" lon="-3.50373">
        <ele>18.43</ele>
        <time>2020-07-10T09:39:51Z</time>
      </trkpt>
      <trkpt lat="47.74866" lon="-3.50377">
        <ele>18.59</ele>
        <time>2020-07-10T09:39:52Z</time>
      </trkpt>
      <trkpt lat="47.74868" lon="-3.50381">
        <ele>18.73</ele>
        <time>2020-07-10T09:39:53Z</time>
      </trkpt>
      <trkpt lat="47.74869" lon="-3.50385">
        <ele>18.84</ele>
        <time>2020-07-10T09:39:54Z</time>
      </trkpt>
      <trkpt lat="47.7487" lon="-3.50389">
        <ele>18.95</ele>
        <time>2020-07-10T09:39:55Z</time>
      </trkpt>
      <trkpt lat="47.74871" lon="-3.50392">
        <ele>19.09</ele>
        <time>2020-07-10T09:39:56Z</time>
      </trkpt>
      <trkpt lat="47.74872" lon="-3.50396">
        <ele>19.26</ele>
        <time>2020-07-10T09:39:57Z</time>
      </trkpt>
      <trkpt lat="47.74873" lon="-3.50401">
        <ele>19.44</ele>
        <time>2020-07-10T09:39:58Z</time>
      </trkpt>
      <trkpt lat="47.74874" lon="-3.50407">
        <ele>19.61</ele>
        <time>2020-07-10T09:39:59Z</time>
      </trkpt>
      <trkpt lat="47.74874" lon="-3.50412">
        <ele>19.8</ele>
        <time>2020-07-10T09:40:00Z</time>
      </trkpt>
      <trkpt lat="47.74875" lon="-3.50418">
        <ele>19.93</ele>
        <time>2020-07-10T09:40:01Z</time>
      </trkpt>
      <trkpt lat="47.74876" lon="-3.50423">
        <ele>19.86</ele>
        <time>2020-07-10T09:40:02Z</time>
      </trkpt>
      <trkpt lat="47.74877" lon="-3.50429">
        <ele>19.74</ele>
        <time>2020-07-10T09:40:03Z</time>
      </trkpt>
      <trkpt lat="47.74878" lon="-3.50433">
        <ele>19.62</ele>
        <time>2020-07-10T09:40:04Z</time>
      </trkpt>
      <trkpt lat="47.74879" lon="-3.50437">
        <ele>19.5</ele>
        <time>2020-07-10T09:40:05Z</time>
      </trkpt>
      <trkpt lat="47.74881" lon="-3.50441">
        <ele>19.36</ele>
        <time>2020-07-10T09:40:06Z</time>
      </trkpt>
      <trkpt lat="47.74884" lon="-3.50444">
        <ele>19.23</ele>
        <time>2020-07-10T09:40:07Z</time>
      </trkpt>
      <trkpt lat="47.74887" lon="-3.50446">
        <ele>19.1</ele>
        <time>2020-07-10T09:40:08Z</time>
      </trkpt>
      <trkpt lat="47.74891" lon="-3.50447">
        <ele>19.08</ele>
        <time>2020-07-10T09:40:09Z</time>
      </trkpt>
      <trkpt lat="47.74895" lon="-3.50446">
        <ele>19.17</ele>
        <time>2020-07-10T09:40:10Z</time>
      </trkpt>
      <trkpt lat="47.74899" lon="-3.50446">
        <ele>19.29</ele>
        <time>2020-07-10T09:40:11Z</time>
      </trkpt>
      <trkpt lat="47.74903" lon="-3.50446">
        <ele>19.41</ele>
        <time>2020-07-10T09:40:12Z</time>
      </trkpt>
      <trkpt lat="47.74906" lon="-3.50446">
        <ele>19.53</ele>
        <time>2020-07-10T09:40:13Z</time>
      </trkpt>
      <trkpt lat="47.7491" lon="-3.50447">
        <ele>19.63</ele>
        <time>2020-07-10T09:40:14Z</time>
      </trkpt>
      <trkpt lat="47.74913" lon="-3.50447">
        <ele>19.73</ele>
        <time>2020-07-10T09:40:15Z</time>
      </trkpt>
      <trkpt lat="47.74916" lon="-3.50446">
        <ele>19.84</ele>
        <time>2020-07-10T09:40:16Z</time>
      </trkpt>
      <trkpt lat="47.74918" lon="-3.50444">
        <ele>20</ele>
        <time>2020-07-10T09:40:17Z</time>
      </trkpt>
      <trkpt lat="47.74921" lon="-3.50441">
        <ele>20.11</ele>
        <time>2020-07-10T09:40:18Z</time>
      </trkpt>
      <trkpt lat="47.74924" lon="-3.50438">
        <ele>20.22</ele>
        <time>2020-07-10T09:40:19Z</time>
      </trkpt>
      <trkpt lat="47.74927" lon="-3.50436">
        <ele>20.32</ele>
        <time>2020-07-10T09:40:20Z</time>
      </trkpt>
      <trkpt lat="47.74929" lon="-3.50434">
        <ele>20.39</ele>
        <time>2020-07-10T09:40:21Z</time>
      </trkpt>
      <trkpt lat="47.74929" lon="-3.50433">
        <ele>20.43</ele>
        <time>2020-07-10T09:40:22Z</time>
      </trkpt>
      <trkpt lat="47.74929" lon="-3.50432">
        <ele>20.43</ele>
        <time>2020-07-10T09:40:23Z</time>
      </trkpt>
      <trkpt lat="47.74927" lon="-3.5043">
        <ele>20.4</ele>
        <time>2020-07-10T09:40:24Z</time>
      </trkpt>
      <trkpt lat="47.74926" lon="-3.50428">
        <ele>20.36</ele>
        <time>2020-07-10T09:40:25Z</time>
      </trkpt>
      <trkpt lat="47.74925" lon="-3.50425">
        <ele>20.31</ele>
        <time>2020-07-10T09:40:26Z</time>
      </trkpt>
      <trkpt lat="47.74923" lon="-3.50422">
        <ele>20.25</ele>
        <time>2020-07-10T09:40:27Z</time>
      </trkpt>
      <trkpt lat="47.74921" lon="-3.50418">
        <ele>20.19</ele>
        <time>2020-07-10T09:40:28Z</time>
      </trkpt>
      <trkpt lat="47.7492" lon="-3.50415">
        <ele>20.09</ele>
        <time>2020-07-10T09:40:29Z</time>
      </trkpt>
      <trkpt lat="47.74919" lon="-3.50412">
        <ele>19.96</ele>
        <time>2020-07-10T09:40:30Z</time>
      </trkpt>
      <trkpt lat="47.74918" lon="-3.50409">
        <ele>19.82</ele>
        <time>2020-07-10T09:40:31Z</time>
      </trkpt>
      <trkpt lat="47.74917" lon="-3.50407">
        <ele>19.72</ele>
        <time>2020-07-10T09:40:32Z</time>
      </trkpt>
      <trkpt lat="47.74917" lon="-3.50405">
        <ele>19.63</ele>
        <time>2020-07-10T09:40:33Z</time>
      </trkpt>
      <trkpt lat="47.74917" lon="-3.50403">
        <ele>19.54</ele>
        <time>2020-07-10T09:40:34Z</time>
      </trkpt>
      <trkpt lat="47.74916" lon="-3.504">
        <ele>19.43</ele>
        <time>2020-07-10T09:40:35Z</time>
      </trkpt>
      <trkpt lat="47.74916" lon="-3.50397">
        <ele>19.32</ele>
        <time>2020-07-10T09:40:36Z</time>
      </trkpt>
      <trkpt lat="47.74915" lon="-3.50394">
        <ele>19.21</ele>
        <time>2020-07-10T09:40:37Z</time>
      </trkpt>
      <trkpt lat="47.74914" lon="-3.50391">
        <ele>19.11</ele>
        <time>2020-07-10T09:40:38Z</time>
      </trkpt>
      <trkpt lat="47.74914" lon="-3.50388">
        <ele>19.03</ele>
        <time>2020-07-10T09:40:39Z</time>
      </trkpt>
      <trkpt lat="47.74914" lon="-3.50384">
        <ele>19.01</ele>
        <time>2020-07-10T09:40:40Z</time>
      </trkpt>
      <trkpt lat="47.74914" lon="-3.50381">
        <ele>19</ele>
        <time>2020-07-10T09:40:41Z</time>
      </trkpt>
      <trkpt lat="47.74913" lon="-3.50378">
        <ele>19</ele>
        <time>2020-07-10T09:40:42Z</time>
      </trkpt>
      <trkpt lat="47.74914" lon="-3.50374">
        <ele>19</ele>
        <time>2020-07-10T09:40:43Z</time>
      </trkpt>
      <trkpt lat="47.74914" lon="-3.50371">
        <ele>19</ele>
        <time>2020-07-10T09:40:44Z</time>
      </trkpt>
      <trkpt lat="47.74914" lon="-3.50367">
        <ele>19</ele>
        <time>2020-07-10T09:40:45Z</time>
      </trkpt>
      <trkpt lat="47.74913" lon="-3.50363">
        <ele>19</ele>
        <time>2020-07-10T09:40:46Z</time>
      </trkpt>
      <trkpt lat="47.74913" lon="-3.5036">
        <ele>18.96</ele>
        <time>2020-07-10T09:40:47Z</time>
      </trkpt>
      <trkpt lat="47.74913" lon="-3.50356">
        <ele>18.86</ele>
        <time>2020-07-10T09:40:48Z</time>
      </trkpt>
      <trkpt lat="47.74912" lon="-3.50352">
        <ele>18.72</ele>
        <time>2020-07-10T09:40:49Z</time>
      </trkpt>
      <trkpt lat="47.74913" lon="-3.50347">
        <ele>18.55</ele>
        <time>2020-07-10T09:40:50Z</time>
      </trkpt>
      <trkpt lat="47.74913" lon="-3.50342">
        <ele>18.39</ele>
        <time>2020-07-10T09:40:51Z</time>
      </trkpt>
      <trkpt lat="47.74912" lon="-3.50338">
        <ele>18.25</ele>
        <time>2020-07-10T09:40:52Z</time>
      </trkpt>
      <trkpt lat="47.74912" lon="-3.50335">
        <ele>18.12</ele>
        <time>2020-07-10T09:40:53Z</time>
      </trkpt>
      <trkpt lat="47.74912" lon="-3.50331">
        <ele>17.98</ele>
        <time>2020-07-10T09:40:54Z</time>
      </trkpt>
      <trkpt lat="47.74913" lon="-3.50327">
        <ele>17.83</ele>
        <time>2020-07-10T09:40:55Z</time>
      </trkpt>
      <trkpt lat="47.74913" lon="-3.50322">
        <ele>17.66</ele>
        <time>2020-07-10T09:40:56Z</time>
      </trkpt>
      <trkpt lat="47.74913" lon="-3.50316">
        <ele>17.47</ele>
        <time>2020-07-10T09:40:57Z</time>
      </trkpt>
      <trkpt lat="47.74914" lon="-3.50312">
        <ele>17.29</ele>
        <time>2020-07-10T09:40:58Z</time>
      </trkpt>
      <trkpt lat="47.74914" lon="-3.50306">
        <ele>17.1</ele>
        <time>2020-07-10T09:40:59Z</time>
      </trkpt>
      <trkpt lat="47.74914" lon="-3.50301">
        <ele>17.02</ele>
        <time>2020-07-10T09:41:00Z</time>
      </trkpt>
      <trkpt lat="47.74913" lon="-3.50296">
        <ele>16.97</ele>
        <time>2020-07-10T09:41:01Z</time>
      </trkpt>
      <trkpt lat="47.74912" lon="-3.5029">
        <ele>16.93</ele>
        <time>2020-07-10T09:41:02Z</time>
      </trkpt>
      <trkpt lat="47.74912" lon="-3.50284">
        <ele>16.89</ele>
        <time>2020-07-10T09:41:03Z</time>
      </trkpt>
      <trkpt lat="47.74912" lon="-3.50278">
        <ele>16.84</ele>
        <time>2020-07-10T09:41:04Z</time>
      </trkpt>
      <trkpt lat="47.74911" lon="-3.50271">
        <ele>16.68</ele>
        <time>2020-07-10T09:41:05Z</time>
      </trkpt>
      <trkpt lat="47.74911" lon="-3.50265">
        <ele>16.51</ele>
        <time>2020-07-10T09:41:06Z</time>
      </trkpt>
      <trkpt lat="47.7491" lon="-3.50259">
        <ele>16.32</ele>
        <time>2020-07-10T09:41:07Z</time>
      </trkpt>
      <trkpt lat="47.7491" lon="-3.50252">
        <ele>16.14</ele>
        <time>2020-07-10T09:41:08Z</time>
      </trkpt>
      <trkpt lat="47.7491" lon="-3.50246">
        <ele>16.01</ele>
        <time>2020-07-10T09:41:09Z</time>
      </trkpt>
      <trkpt lat="47.7491" lon="-3.50239">
        <ele>15.94</ele>
        <time>2020-07-10T09:41:10Z</time>
      </trkpt>
      <trkpt lat="47.7491" lon="-3.50233">
        <ele>15.88</ele>
        <time>2020-07-10T09:41:11Z</time>
      </trkpt>
      <trkpt lat="47.7491" lon="-3.50227">
        <ele>15.82</ele>
        <time>2020-07-10T09:41:12Z</time>
      </trkpt>
      <trkpt lat="47.74909" lon="-3.50223">
        <ele>15.76</ele>
        <time>2020-07-10T09:41:13Z</time>
      </trkpt>
      <trkpt lat="47.74907" lon="-3.5022">
        <ele>15.64</ele>
        <time>2020-07-10T09:41:14Z</time>
      </trkpt>
      <trkpt lat="47.74906" lon="-3.50217">
        <ele>15.48</ele>
        <time>2020-07-10T09:41:15Z</time>
      </trkpt>
      <trkpt lat="47.74904" lon="-3.50213">
        <ele>15.29</ele>
        <time>2020-07-10T09:41:16Z</time>
      </trkpt>
      <trkpt lat="47.74901" lon="-3.50211">
        <ele>15.1</ele>
        <time>2020-07-10T09:41:17Z</time>
      </trkpt>
      <trkpt lat="47.74898" lon="-3.50207">
        <ele>14.88</ele>
        <time>2020-07-10T09:41:18Z</time>
      </trkpt>
      <trkpt lat="47.74895" lon="-3.50204">
        <ele>14.66</ele>
        <time>2020-07-10T09:41:19Z</time>
      </trkpt>
      <trkpt lat="47.74893" lon="-3.50201">
        <ele>14.46</ele>
        <time>2020-07-10T09:41:20Z</time>
      </trkpt>
      <trkpt lat="47.7489" lon="-3.50199">
        <ele>14.29</ele>
        <time>2020-07-10T09:41:21Z</time>
      </trkpt>
      <trkpt lat="47.74887" lon="-3.50198">
        <ele>14.16</ele>
        <time>2020-07-10T09:41:22Z</time>
      </trkpt>
      <trkpt lat="47.74884" lon="-3.50197">
        <ele>14.11</ele>
        <time>2020-07-10T09:41:23Z</time>
      </trkpt>
      <trkpt lat="47.7488" lon="-3.50198">
        <ele>14.09</ele>
        <time>2020-07-10T09:41:24Z</time>
      </trkpt>
      <trkpt lat="47.74876" lon="-3.50198">
        <ele>14.08</ele>
        <time>2020-07-10T09:41:25Z</time>
      </trkpt>
      <trkpt lat="47.74872" lon="-3.50199">
        <ele>14.06</ele>
        <time>2020-07-10T09:41:26Z</time>
      </trkpt>
      <trkpt lat="47.74867" lon="-3.50199">
        <ele>14.04</ele>
        <time>2020-07-10T09:41:27Z</time>
      </trkpt>
      <trkpt lat="47.74863" lon="-3.50199">
        <ele>14.02</ele>
        <time>2020-07-10T09:41:28Z</time>
      </trkpt>
      <trkpt lat="47.74859" lon="-3.50198">
        <ele>13.97</ele>
        <time>2020-07-10T09:41:29Z</time>
      </trkpt>
      <trkpt lat="47.74856" lon="-3.502">
        <ele>13.88</ele>
        <time>2020-07-10T09:41:30Z</time>
      </trkpt>
      <trkpt lat="47.74852" lon="-3.50201">
        <ele>13.79</ele>
        <time>2020-07-10T09:41:31Z</time>
      </trkpt>
      <trkpt lat="47.74848" lon="-3.50202">
        <ele>13.71</ele>
        <time>2020-07-10T09:41:32Z</time>
      </trkpt>
      <trkpt lat="47.74845" lon="-3.50204">
        <ele>13.64</ele>
        <time>2020-07-10T09:41:33Z</time>
      </trkpt>
      <trkpt lat="47.74842" lon="-3.50206">
        <ele>13.6</ele>
        <time>2020-07-10T09:41:34Z</time>
      </trkpt>
      <trkpt lat="47.74838" lon="-3.50208">
        <ele>13.58</ele>
        <time>2020-07-10T09:41:35Z</time>
      </trkpt>
      <trkpt lat="47.74835" lon="-3.50209">
        <ele>13.56</ele>
        <time>2020-07-10T09:41:36Z</time>
      </trkpt>
      <trkpt lat="47.74832" lon="-3.50209">
        <ele>13.52</ele>
        <time>2020-07-10T09:41:37Z</time>
      </trkpt>
      <trkpt lat="47.7483" lon="-3.50209">
        <ele>13.47</ele>
        <time>2020-07-10T09:41:38Z</time>
      </trkpt>
      <trkpt lat="47.74828" lon="-3.50208">
        <ele>13.42</ele>
        <time>2020-07-10T09:41:39Z</time>
      </trkpt>
      <trkpt lat="47.74825" lon="-3.50208">
        <ele>13.36</ele>
        <time>2020-07-10T09:41:40Z</time>
      </trkpt>
      <trkpt lat="47.74823" lon="-3.50207">
        <ele>13.31</ele>
        <time>2020-07-10T09:41:41Z</time>
      </trkpt>
      <trkpt lat="47.7482" lon="-3.50207">
        <ele>13.26</ele>
        <time>2020-07-10T09:41:42Z</time>
      </trkpt>
      <trkpt lat="47.74817" lon="-3.50208">
        <ele>13.21</ele>
        <time>2020-07-10T09:41:43Z</time>
      </trkpt>
      <trkpt lat="47.74813" lon="-3.50209">
        <ele>13.17</ele>
        <time>2020-07-10T09:41:44Z</time>
      </trkpt>
      <trkpt lat="47.7481" lon="-3.5021">
        <ele>13.12</ele>
        <time>2020-07-10T09:41:45Z</time>
      </trkpt>
      <trkpt lat="47.74808" lon="-3.50211">
        <ele>13.06</ele>
        <time>2020-07-10T09:41:46Z</time>
      </trkpt>
      <trkpt lat="47.74805" lon="-3.50211">
        <ele>13.02</ele>
        <time>2020-07-10T09:41:47Z</time>
      </trkpt>
      <trkpt lat="47.74804" lon="-3.50209">
        <ele>13.01</ele>
        <time>2020-07-10T09:41:48Z</time>
      </trkpt>
      <trkpt lat="47.74804" lon="-3.50206">
        <ele>13</ele>
        <time>2020-07-10T09:41:49Z</time>
      </trkpt>
      <trkpt lat="47.74804" lon="-3.50203">
        <ele>13</ele>
        <time>2020-07-10T09:41:50Z</time>
      </trkpt>
      <trkpt lat="47.74803" lon="-3.502">
        <ele>13</ele>
        <time>2020-07-10T09:41:51Z</time>
      </trkpt>
      <trkpt lat="47.74802" lon="-3.50197">
        <ele>13</ele>
        <time>2020-07-10T09:41:52Z</time>
      </trkpt>
      <trkpt lat="47.74799" lon="-3.50194">
        <ele>13</ele>
        <time>2020-07-10T09:41:53Z</time>
      </trkpt>
      <trkpt lat="47.74797" lon="-3.50192">
        <ele>13</ele>
        <time>2020-07-10T09:41:54Z</time>
      </trkpt>
      <trkpt lat="47.74793" lon="-3.50191">
        <ele>13</ele>
        <time>2020-07-10T09:41:55Z</time>
      </trkpt>
      <trkpt lat="47.7479" lon="-3.50189">
        <ele>13</ele>
        <time>2020-07-10T09:41:56Z</time>
      </trkpt>
      <trkpt lat="47.74788" lon="-3.50185">
        <ele>13</ele>
        <time>2020-07-10T09:41:57Z</time>
      </trkpt>
      <trkpt lat="47.74788" lon="-3.50181">
        <ele>13</ele>
        <time>2020-07-10T09:41:58Z</time>
      </trkpt>
      <trkpt lat="47.74788" lon="-3.50177">
        <ele>13</ele>
        <time>2020-07-10T09:41:59Z</time>
      </trkpt>
      <trkpt lat="47.74789" lon="-3.50173">
        <ele>13</ele>
        <time>2020-07-10T09:42:00Z</time>
      </trkpt>
      <trkpt lat="47.74791" lon="-3.50169">
        <ele>13</ele>
        <time>2020-07-10T09:42:01Z</time>
      </trkpt>
      <trkpt lat="47.74794" lon="-3.50165">
        <ele>13</ele>
        <time>2020-07-10T09:42:02Z</time>
      </trkpt>
      <trkpt lat="47.74796" lon="-3.50162">
        <ele>13</ele>
        <time>2020-07-10T09:42:03Z</time>
      </trkpt>
      <trkpt lat="47.74797" lon="-3.50159">
        <ele>13</ele>
        <time>2020-07-10T09:42:04Z</time>
      </trkpt>
      <trkpt lat="47.74799" lon="-3.50156">
        <ele>13</ele>
        <time>2020-07-10T09:42:05Z</time>
      </trkpt>
      <trkpt lat="47.748" lon="-3.50151">
        <ele>13</ele>
        <time>2020-07-10T09:42:06Z</time>
      </trkpt>
      <trkpt lat="47.748" lon="-3.50146">
        <ele>13</ele>
        <time>2020-07-10T09:42:07Z</time>
      </trkpt>
      <trkpt lat="47.74801" lon="-3.50141">
        <ele>13</ele>
        <time>2020-07-10T09:42:08Z</time>
      </trkpt>
      <trkpt lat="47.74802" lon="-3.50137">
        <ele>13.05</ele>
        <time>2020-07-10T09:42:09Z</time>
      </trkpt>
      <trkpt lat="47.74803" lon="-3.50132">
        <ele>13.18</ele>
        <time>2020-07-10T09:42:10Z</time>
      </trkpt>
      <trkpt lat="47.74804" lon="-3.50127">
        <ele>13.33</ele>
        <time>2020-07-10T09:42:11Z</time>
      </trkpt>
      <trkpt lat="47.74805" lon="-3.50122">
        <ele>13.51</ele>
        <time>2020-07-10T09:42:12Z</time>
      </trkpt>
      <trkpt lat="47.74804" lon="-3.50117">
        <ele>13.68</ele>
        <time>2020-07-10T09:42:13Z</time>
      </trkpt>
      <trkpt lat="47.74804" lon="-3.50112">
        <ele>13.86</ele>
        <time>2020-07-10T09:42:14Z</time>
      </trkpt>
      <trkpt lat="47.74804" lon="-3.50107">
        <ele>13.92</ele>
        <time>2020-07-10T09:42:15Z</time>
      </trkpt>
      <trkpt lat="47.74804" lon="-3.50103">
        <ele>13.94</ele>
        <time>2020-07-10T09:42:16Z</time>
      </trkpt>
      <trkpt lat="47.74803" lon="-3.50098">
        <ele>13.95</ele>
        <time>2020-07-10T09:42:17Z</time>
      </trkpt>
      <trkpt lat="47.74803" lon="-3.50094">
        <ele>13.96</ele>
        <time>2020-07-10T09:42:18Z</time>
      </trkpt>
      <trkpt lat="47.74802" lon="-3.5009">
        <ele>13.96</ele>
        <time>2020-07-10T09:42:19Z</time>
      </trkpt>
      <trkpt lat="47.748" lon="-3.50085">
        <ele>13.98</ele>
        <time>2020-07-10T09:42:20Z</time>
      </trkpt>
      <trkpt lat="47.74799" lon="-3.5008">
        <ele>14.06</ele>
        <time>2020-07-10T09:42:21Z</time>
      </trkpt>
      <trkpt lat="47.74797" lon="-3.50075">
        <ele>14.17</ele>
        <time>2020-07-10T09:42:22Z</time>
      </trkpt>
      <trkpt lat="47.74796" lon="-3.50069">
        <ele>14.29</ele>
        <time>2020-07-10T09:42:23Z</time>
      </trkpt>
      <trkpt lat="47.74796" lon="-3.50064">
        <ele>14.41</ele>
        <time>2020-07-10T09:42:24Z</time>
      </trkpt>
      <trkpt lat="47.74795" lon="-3.50058">
        <ele>14.52</ele>
        <time>2020-07-10T09:42:25Z</time>
      </trkpt>
      <trkpt lat="47.74794" lon="-3.50053">
        <ele>14.61</ele>
        <time>2020-07-10T09:42:26Z</time>
      </trkpt>
      <trkpt lat="47.74793" lon="-3.50046">
        <ele>14.7</ele>
        <time>2020-07-10T09:42:27Z</time>
      </trkpt>
      <trkpt lat="47.74793" lon="-3.5004">
        <ele>14.81</ele>
        <time>2020-07-10T09:42:28Z</time>
      </trkpt>
      <trkpt lat="47.74794" lon="-3.50035">
        <ele>14.93</ele>
        <time>2020-07-10T09:42:29Z</time>
      </trkpt>
      <trkpt lat="47.74795" lon="-3.5003">
        <ele>15.1</ele>
        <time>2020-07-10T09:42:30Z</time>
      </trkpt>
      <trkpt lat="47.74796" lon="-3.50026">
        <ele>15.3</ele>
        <time>2020-07-10T09:42:31Z</time>
      </trkpt>
      <trkpt lat="47.74798" lon="-3.50022">
        <ele>15.54</ele>
        <time>2020-07-10T09:42:32Z</time>
      </trkpt>
      <trkpt lat="47.74798" lon="-3.50018">
        <ele>15.76</ele>
        <time>2020-07-10T09:42:33Z</time>
      </trkpt>
      <trkpt lat="47.74798" lon="-3.50013">
        <ele>15.92</ele>
        <time>2020-07-10T09:42:34Z</time>
      </trkpt>
      <trkpt lat="47.74797" lon="-3.50009">
        <ele>16.03</ele>
        <time>2020-07-10T09:42:35Z</time>
      </trkpt>
      <trkpt lat="47.74795" lon="-3.50005">
        <ele>16.05</ele>
        <time>2020-07-10T09:42:36Z</time>
      </trkpt>
      <trkpt lat="47.74792" lon="-3.50001">
        <ele>16.01</ele>
        <time>2020-07-10T09:42:37Z</time>
      </trkpt>
      <trkpt lat="47.74789" lon="-3.49997">
        <ele>15.85</ele>
        <time>2020-07-10T09:42:38Z</time>
      </trkpt>
      <trkpt lat="47.74786" lon="-3.49994">
        <ele>15.65</ele>
        <time>2020-07-10T09:42:39Z</time>
      </trkpt>
      <trkpt lat="47.74783" lon="-3.49992">
        <ele>15.45</ele>
        <time>2020-07-10T09:42:40Z</time>
      </trkpt>
      <trkpt lat="47.7478" lon="-3.4999">
        <ele>15.26</ele>
        <time>2020-07-10T09:42:41Z</time>
      </trkpt>
      <trkpt lat="47.74777" lon="-3.49988">
        <ele>15.05</ele>
        <time>2020-07-10T09:42:42Z</time>
      </trkpt>
      <trkpt lat="47.74774" lon="-3.49987">
        <ele>14.8</ele>
        <time>2020-07-10T09:42:43Z</time>
      </trkpt>
      <trkpt lat="47.74771" lon="-3.49985">
        <ele>14.52</ele>
        <time>2020-07-10T09:42:44Z</time>
      </trkpt>
      <trkpt lat="47.74768" lon="-3.49983">
        <ele>14.28</ele>
        <time>2020-07-10T09:42:45Z</time>
      </trkpt>
      <trkpt lat="47.74766" lon="-3.49982">
        <ele>14.11</ele>
        <time>2020-07-10T09:42:46Z</time>
      </trkpt>
      <trkpt lat="47.74765" lon="-3.49981">
        <ele>13.96</ele>
        <time>2020-07-10T09:42:47Z</time>
      </trkpt>
      <trkpt lat="47.74762" lon="-3.4998">
        <ele>13.76</ele>
        <time>2020-07-10T09:42:48Z</time>
      </trkpt>
      <trkpt lat="47.74758" lon="-3.49978">
        <ele>13.54</ele>
        <time>2020-07-10T09:42:49Z</time>
      </trkpt>
      <trkpt lat="47.74756" lon="-3.49977">
        <ele>13.35</ele>
        <time>2020-07-10T09:42:50Z</time>
      </trkpt>
      <trkpt lat="47.74753" lon="-3.49975">
        <ele>13.17</ele>
        <time>2020-07-10T09:42:51Z</time>
      </trkpt>
      <trkpt lat="47.7475" lon="-3.49974">
        <ele>13</ele>
        <time>2020-07-10T09:42:52Z</time>
      </trkpt>
      <trkpt lat="47.74746" lon="-3.49972">
        <ele>12.81</ele>
        <time>2020-07-10T09:42:53Z</time>
      </trkpt>
      <trkpt lat="47.74742" lon="-3.4997">
        <ele>12.56</ele>
        <time>2020-07-10T09:42:54Z</time>
      </trkpt>
      <trkpt lat="47.74739" lon="-3.49967">
        <ele>12.29</ele>
        <time>2020-07-10T09:42:55Z</time>
      </trkpt>
      <trkpt lat="47.74735" lon="-3.49965">
        <ele>12.01</ele>
        <time>2020-07-10T09:42:56Z</time>
      </trkpt>
      <trkpt lat="47.7473" lon="-3.49963">
        <ele>11.7</ele>
        <time>2020-07-10T09:42:57Z</time>
      </trkpt>
      <trkpt lat="47.74726" lon="-3.4996">
        <ele>11.4</ele>
        <time>2020-07-10T09:42:58Z</time>
      </trkpt>
      <trkpt lat="47.74721" lon="-3.49958">
        <ele>11.09</ele>
        <time>2020-07-10T09:42:59Z</time>
      </trkpt>
      <trkpt lat="47.74716" lon="-3.49957">
        <ele>10.79</ele>
        <time>2020-07-10T09:43:00Z</time>
      </trkpt>
      <trkpt lat="47.74712" lon="-3.49955">
        <ele>10.51</ele>
        <time>2020-07-10T09:43:01Z</time>
      </trkpt>
      <trkpt lat="47.74708" lon="-3.49953">
        <ele>10.23</ele>
        <time>2020-07-10T09:43:02Z</time>
      </trkpt>
      <trkpt lat="47.74704" lon="-3.4995">
        <ele>9.92</ele>
        <time>2020-07-10T09:43:03Z</time>
      </trkpt>
      <trkpt lat="47.747" lon="-3.49947">
        <ele>9.58</ele>
        <time>2020-07-10T09:43:04Z</time>
      </trkpt>
      <trkpt lat="47.74695" lon="-3.49946">
        <ele>9.25</ele>
        <time>2020-07-10T09:43:05Z</time>
      </trkpt>
      <trkpt lat="47.74692" lon="-3.49945">
        <ele>9.02</ele>
        <time>2020-07-10T09:43:06Z</time>
      </trkpt>
      <trkpt lat="47.74688" lon="-3.49944">
        <ele>8.85</ele>
        <time>2020-07-10T09:43:07Z</time>
      </trkpt>
      <trkpt lat="47.74685" lon="-3.49943">
        <ele>8.71</ele>
        <time>2020-07-10T09:43:08Z</time>
      </trkpt>
      <trkpt lat="47.74682" lon="-3.49942">
        <ele>8.59</ele>
        <time>2020-07-10T09:43:09Z</time>
      </trkpt>
      <trkpt lat="47.7468" lon="-3.4994">
        <ele>8.51</ele>
        <time>2020-07-10T09:43:10Z</time>
      </trkpt>
      <trkpt lat="47.74678" lon="-3.49939">
        <ele>8.45</ele>
        <time>2020-07-10T09:43:11Z</time>
      </trkpt>
      <trkpt lat="47.74677" lon="-3.49938">
        <ele>8.39</ele>
        <time>2020-07-10T09:43:12Z</time>
      </trkpt>
      <trkpt lat="47.74675" lon="-3.49938">
        <ele>8.33</ele>
        <time>2020-07-10T09:43:13Z</time>
      </trkpt>
      <trkpt lat="47.74674" lon="-3.4994">
        <ele>8.27</ele>
        <time>2020-07-10T09:43:14Z</time>
      </trkpt>
      <trkpt lat="47.74672" lon="-3.49943">
        <ele>8.22</ele>
        <time>2020-07-10T09:43:15Z</time>
      </trkpt>
      <trkpt lat="47.74671" lon="-3.49946">
        <ele>8.17</ele>
        <time>2020-07-10T09:43:16Z</time>
      </trkpt>
      <trkpt lat="47.7467" lon="-3.4995">
        <ele>8.14</ele>
        <time>2020-07-10T09:43:17Z</time>
      </trkpt>
      <trkpt lat="47.74669" lon="-3.49954">
        <ele>8.13</ele>
        <time>2020-07-10T09:43:18Z</time>
      </trkpt>
      <trkpt lat="47.74668" lon="-3.49958">
        <ele>8.11</ele>
        <time>2020-07-10T09:43:19Z</time>
      </trkpt>
      <trkpt lat="47.74667" lon="-3.49963">
        <ele>8.06</ele>
        <time>2020-07-10T09:43:20Z</time>
      </trkpt>
      <trkpt lat="47.74666" lon="-3.49967">
        <ele>8</ele>
        <time>2020-07-10T09:43:21Z</time>
      </trkpt>
      <trkpt lat="47.74664" lon="-3.49972">
        <ele>7.95</ele>
        <time>2020-07-10T09:43:22Z</time>
      </trkpt>
      <trkpt lat="47.74663" lon="-3.49976">
        <ele>7.88</ele>
        <time>2020-07-10T09:43:23Z</time>
      </trkpt>
      <trkpt lat="47.74661" lon="-3.49978">
        <ele>7.81</ele>
        <time>2020-07-10T09:43:24Z</time>
      </trkpt>
      <trkpt lat="47.74659" lon="-3.49981">
        <ele>7.75</ele>
        <time>2020-07-10T09:43:25Z</time>
      </trkpt>
      <trkpt lat="47.74658" lon="-3.49984">
        <ele>7.7</ele>
        <time>2020-07-10T09:43:26Z</time>
      </trkpt>
      <trkpt lat="47.74656" lon="-3.49989">
        <ele>7.65</ele>
        <time>2020-07-10T09:43:27Z</time>
      </trkpt>
      <trkpt lat="47.74654" lon="-3.49993">
        <ele>7.59</ele>
        <time>2020-07-10T09:43:28Z</time>
      </trkpt>
      <trkpt lat="47.74652" lon="-3.49998">
        <ele>7.52</ele>
        <time>2020-07-10T09:43:29Z</time>
      </trkpt>
      <trkpt lat="47.7465" lon="-3.50001">
        <ele>7.44</ele>
        <time>2020-07-10T09:43:30Z</time>
      </trkpt>
      <trkpt lat="47.74647" lon="-3.50005">
        <ele>7.36</ele>
        <time>2020-07-10T09:43:31Z</time>
      </trkpt>
      <trkpt lat="47.74645" lon="-3.50008">
        <ele>7.3</ele>
        <time>2020-07-10T09:43:32Z</time>
      </trkpt>
      <trkpt lat="47.74643" lon="-3.50012">
        <ele>7.23</ele>
        <time>2020-07-10T09:43:33Z</time>
      </trkpt>
      <trkpt lat="47.7464" lon="-3.50016">
        <ele>7.11</ele>
        <time>2020-07-10T09:43:34Z</time>
      </trkpt>
      <trkpt lat="47.74637" lon="-3.50019">
        <ele>7.02</ele>
        <time>2020-07-10T09:43:35Z</time>
      </trkpt>
      <trkpt lat="47.74635" lon="-3.50023">
        <ele>6.99</ele>
        <time>2020-07-10T09:43:36Z</time>
      </trkpt>
      <trkpt lat="47.74632" lon="-3.50027">
        <ele>6.99</ele>
        <time>2020-07-10T09:43:37Z</time>
      </trkpt>
      <trkpt lat="47.7463" lon="-3.50031">
        <ele>7.13</ele>
        <time>2020-07-10T09:43:38Z</time>
      </trkpt>
      <trkpt lat="47.74628" lon="-3.50036">
        <ele>7.36</ele>
        <time>2020-07-10T09:43:39Z</time>
      </trkpt>
      <trkpt lat="47.74625" lon="-3.50041">
        <ele>7.6</ele>
        <time>2020-07-10T09:43:40Z</time>
      </trkpt>
      <trkpt lat="47.74622" lon="-3.50046">
        <ele>7.81</ele>
        <time>2020-07-10T09:43:41Z</time>
      </trkpt>
      <trkpt lat="47.7462" lon="-3.5005">
        <ele>7.98</ele>
        <time>2020-07-10T09:43:42Z</time>
      </trkpt>
      <trkpt lat="47.74617" lon="-3.50055">
        <ele>8.12</ele>
        <time>2020-07-10T09:43:43Z</time>
      </trkpt>
      <trkpt lat="47.74614" lon="-3.5006">
        <ele>8.23</ele>
        <time>2020-07-10T09:43:44Z</time>
      </trkpt>
      <trkpt lat="47.74612" lon="-3.50066">
        <ele>8.33</ele>
        <time>2020-07-10T09:43:45Z</time>
      </trkpt>
      <trkpt lat="47.74609" lon="-3.5007">
        <ele>8.38</ele>
        <time>2020-07-10T09:43:46Z</time>
      </trkpt>
      <trkpt lat="47.74607" lon="-3.50075">
        <ele>8.4</ele>
        <time>2020-07-10T09:43:47Z</time>
      </trkpt>
      <trkpt lat="47.74605" lon="-3.5008">
        <ele>8.4</ele>
        <time>2020-07-10T09:43:48Z</time>
      </trkpt>
      <trkpt lat="47.74602" lon="-3.50085">
        <ele>8.39</ele>
        <time>2020-07-10T09:43:49Z</time>
      </trkpt>
      <trkpt lat="47.74599" lon="-3.5009">
        <ele>8.39</ele>
        <time>2020-07-10T09:43:50Z</time>
      </trkpt>
      <trkpt lat="47.74596" lon="-3.50096">
        <ele>8.38</ele>
        <time>2020-07-10T09:43:51Z</time>
      </trkpt>
      <trkpt lat="47.74593" lon="-3.50101">
        <ele>8.34</ele>
        <time>2020-07-10T09:43:52Z</time>
      </trkpt>
      <trkpt lat="47.7459" lon="-3.50106">
        <ele>8.31</ele>
        <time>2020-07-10T09:43:53Z</time>
      </trkpt>
      <trkpt lat="47.74587" lon="-3.50112">
        <ele>8.27</ele>
        <time>2020-07-10T09:43:54Z</time>
      </trkpt>
      <trkpt lat="47.74584" lon="-3.50116">
        <ele>8.11</ele>
        <time>2020-07-10T09:43:55Z</time>
      </trkpt>
      <trkpt lat="47.74581" lon="-3.50121">
        <ele>7.92</ele>
        <time>2020-07-10T09:43:56Z</time>
      </trkpt>
      <trkpt lat="47.74578" lon="-3.50127">
        <ele>7.78</ele>
        <time>2020-07-10T09:43:57Z</time>
      </trkpt>
      <trkpt lat="47.74575" lon="-3.50133">
        <ele>7.67</ele>
        <time>2020-07-10T09:43:58Z</time>
      </trkpt>
      <trkpt lat="47.74572" lon="-3.50139">
        <ele>7.62</ele>
        <time>2020-07-10T09:43:59Z</time>
      </trkpt>
      <trkpt lat="47.7457" lon="-3.50145">
        <ele>7.62</ele>
        <time>2020-07-10T09:44:00Z</time>
      </trkpt>
      <trkpt lat="47.74567" lon="-3.50151">
        <ele>7.6</ele>
        <time>2020-07-10T09:44:01Z</time>
      </trkpt>
      <trkpt lat="47.74564" lon="-3.50158">
        <ele>7.54</ele>
        <time>2020-07-10T09:44:02Z</time>
      </trkpt>
      <trkpt lat="47.74561" lon="-3.50164">
        <ele>7.4</ele>
        <time>2020-07-10T09:44:03Z</time>
      </trkpt>
      <trkpt lat="47.74556" lon="-3.50169">
        <ele>7.16</ele>
        <time>2020-07-10T09:44:04Z</time>
      </trkpt>
      <trkpt lat="47.74552" lon="-3.50175">
        <ele>6.95</ele>
        <time>2020-07-10T09:44:05Z</time>
      </trkpt>
      <trkpt lat="47.74546" lon="-3.50179">
        <ele>6.76</ele>
        <time>2020-07-10T09:44:06Z</time>
      </trkpt>
      <trkpt lat="47.74541" lon="-3.50183">
        <ele>6.56</ele>
        <time>2020-07-10T09:44:07Z</time>
      </trkpt>
      <trkpt lat="47.74535" lon="-3.50186">
        <ele>6.34</ele>
        <time>2020-07-10T09:44:08Z</time>
      </trkpt>
      <trkpt lat="47.74529" lon="-3.5019">
        <ele>6.12</ele>
        <time>2020-07-10T09:44:09Z</time>
      </trkpt>
      <trkpt lat="47.74522" lon="-3.50193">
        <ele>5.89</ele>
        <time>2020-07-10T09:44:10Z</time>
      </trkpt>
      <trkpt lat="47.74516" lon="-3.50196">
        <ele>5.67</ele>
        <time>2020-07-10T09:44:11Z</time>
      </trkpt>
      <trkpt lat="47.74509" lon="-3.50198">
        <ele>5.44</ele>
        <time>2020-07-10T09:44:12Z</time>
      </trkpt>
      <trkpt lat="47.74504" lon="-3.502">
        <ele>5.22</ele>
        <time>2020-07-10T09:44:13Z</time>
      </trkpt>
      <trkpt lat="47.74498" lon="-3.50203">
        <ele>5.07</ele>
        <time>2020-07-10T09:44:14Z</time>
      </trkpt>
      <trkpt lat="47.74493" lon="-3.50205">
        <ele>5.02</ele>
        <time>2020-07-10T09:44:15Z</time>
      </trkpt>
      <trkpt lat="47.74488" lon="-3.50208">
        <ele>5.01</ele>
        <time>2020-07-10T09:44:16Z</time>
      </trkpt>
      <trkpt lat="47.74483" lon="-3.5021">
        <ele>5</ele>
        <time>2020-07-10T09:44:17Z</time>
      </trkpt>
      <trkpt lat="47.74478" lon="-3.50212">
        <ele>5</ele>
        <time>2020-07-10T09:44:18Z</time>
      </trkpt>
      <trkpt lat="47.74473" lon="-3.50214">
        <ele>5</ele>
        <time>2020-07-10T09:44:19Z</time>
      </trkpt>
      <trkpt lat="47.74468" lon="-3.50216">
        <ele>5</ele>
        <time>2020-07-10T09:44:20Z</time>
      </trkpt>
      <trkpt lat="47.74464" lon="-3.50218">
        <ele>5</ele>
        <time>2020-07-10T09:44:21Z</time>
      </trkpt>
      <trkpt lat="47.74459" lon="-3.50219">
        <ele>5</ele>
        <time>2020-07-10T09:44:22Z</time>
      </trkpt>
      <trkpt lat="47.74454" lon="-3.5022">
        <ele>5</ele>
        <time>2020-07-10T09:44:23Z</time>
      </trkpt>
      <trkpt lat="47.74449" lon="-3.5022">
        <ele>5</ele>
        <time>2020-07-10T09:44:24Z</time>
      </trkpt>
      <trkpt lat="47.74444" lon="-3.5022">
        <ele>5</ele>
        <time>2020-07-10T09:44:25Z</time>
      </trkpt>
      <trkpt lat="47.7444" lon="-3.5022">
        <ele>5</ele>
        <time>2020-07-10T09:44:26Z</time>
      </trkpt>
      <trkpt lat="47.74435" lon="-3.50219">
        <ele>5</ele>
        <time>2020-07-10T09:44:27Z</time>
      </trkpt>
      <trkpt lat="47.7443" lon="-3.50219">
        <ele>5</ele>
        <time>2020-07-10T09:44:28Z</time>
      </trkpt>
      <trkpt lat="47.74425" lon="-3.50219">
        <ele>5</ele>
        <time>2020-07-10T09:44:29Z</time>
      </trkpt>
      <trkpt lat="47.74421" lon="-3.5022">
        <ele>5</ele>
        <time>2020-07-10T09:44:30Z</time>
      </trkpt>
      <trkpt lat="47.74416" lon="-3.5022">
        <ele>5.02</ele>
        <time>2020-07-10T09:44:31Z</time>
      </trkpt>
      <trkpt lat="47.74411" lon="-3.5022">
        <ele>5.15</ele>
        <time>2020-07-10T09:44:32Z</time>
      </trkpt>
      <trkpt lat="47.74405" lon="-3.50221">
        <ele>5.32</ele>
        <time>2020-07-10T09:44:33Z</time>
      </trkpt>
      <trkpt lat="47.744" lon="-3.50222">
        <ele>5.51</ele>
        <time>2020-07-10T09:44:34Z</time>
      </trkpt>
      <trkpt lat="47.74395" lon="-3.50223">
        <ele>5.71</ele>
        <time>2020-07-10T09:44:35Z</time>
      </trkpt>
      <trkpt lat="47.7439" lon="-3.50225">
        <ele>5.89</ele>
        <time>2020-07-10T09:44:36Z</time>
      </trkpt>
      <trkpt lat="47.74385" lon="-3.50226">
        <ele>5.99</ele>
        <time>2020-07-10T09:44:37Z</time>
      </trkpt>
      <trkpt lat="47.74381" lon="-3.50227">
        <ele>6.08</ele>
        <time>2020-07-10T09:44:38Z</time>
      </trkpt>
      <trkpt lat="47.74377" lon="-3.50228">
        <ele>6.16</ele>
        <time>2020-07-10T09:44:39Z</time>
      </trkpt>
      <trkpt lat="47.74373" lon="-3.50228">
        <ele>6.21</ele>
        <time>2020-07-10T09:44:40Z</time>
      </trkpt>
      <trkpt lat="47.74369" lon="-3.50227">
        <ele>6.22</ele>
        <time>2020-07-10T09:44:41Z</time>
      </trkpt>
      <trkpt lat="47.74366" lon="-3.50225">
        <ele>6.19</ele>
        <time>2020-07-10T09:44:42Z</time>
      </trkpt>
      <trkpt lat="47.74362" lon="-3.50224">
        <ele>6.16</ele>
        <time>2020-07-10T09:44:43Z</time>
      </trkpt>
      <trkpt lat="47.74358" lon="-3.50224">
        <ele>6.12</ele>
        <time>2020-07-10T09:44:44Z</time>
      </trkpt>
      <trkpt lat="47.74355" lon="-3.50223">
        <ele>6.08</ele>
        <time>2020-07-10T09:44:45Z</time>
      </trkpt>
      <trkpt lat="47.74351" lon="-3.50223">
        <ele>6.06</ele>
        <time>2020-07-10T09:44:46Z</time>
      </trkpt>
      <trkpt lat="47.74348" lon="-3.50224">
        <ele>6.06</ele>
        <time>2020-07-10T09:44:47Z</time>
      </trkpt>
      <trkpt lat="47.74345" lon="-3.50225">
        <ele>6.08</ele>
        <time>2020-07-10T09:44:48Z</time>
      </trkpt>
      <trkpt lat="47.74342" lon="-3.50228">
        <ele>6.11</ele>
        <time>2020-07-10T09:44:49Z</time>
      </trkpt>
      <trkpt lat="47.74339" lon="-3.50232">
        <ele>6.13</ele>
        <time>2020-07-10T09:44:50Z</time>
      </trkpt>
      <trkpt lat="47.74336" lon="-3.50236">
        <ele>6.11</ele>
        <time>2020-07-10T09:44:51Z</time>
      </trkpt>
      <trkpt lat="47.74333" lon="-3.5024">
        <ele>6.03</ele>
        <time>2020-07-10T09:44:52Z</time>
      </trkpt>
      <trkpt lat="47.74329" lon="-3.50243">
        <ele>6.01</ele>
        <time>2020-07-10T09:44:53Z</time>
      </trkpt>
      <trkpt lat="47.74326" lon="-3.50246">
        <ele>6</ele>
        <time>2020-07-10T09:44:54Z</time>
      </trkpt>
      <trkpt lat="47.74322" lon="-3.5025">
        <ele>6</ele>
        <time>2020-07-10T09:44:55Z</time>
      </trkpt>
      <trkpt lat="47.74318" lon="-3.50253">
        <ele>6.03</ele>
        <time>2020-07-10T09:44:56Z</time>
      </trkpt>
      <trkpt lat="47.74314" lon="-3.50256">
        <ele>6.05</ele>
        <time>2020-07-10T09:44:57Z</time>
      </trkpt>
      <trkpt lat="47.7431" lon="-3.50257">
        <ele>6.05</ele>
        <time>2020-07-10T09:44:58Z</time>
      </trkpt>
      <trkpt lat="47.74308" lon="-3.5026">
        <ele>6.03</ele>
        <time>2020-07-10T09:44:59Z</time>
      </trkpt>
      <trkpt lat="47.74306" lon="-3.50263">
        <ele>6.02</ele>
        <time>2020-07-10T09:45:00Z</time>
      </trkpt>
      <trkpt lat="47.74305" lon="-3.50266">
        <ele>6.01</ele>
        <time>2020-07-10T09:45:01Z</time>
      </trkpt>
      <trkpt lat="47.74303" lon="-3.50266">
        <ele>6</ele>
        <time>2020-07-10T09:45:02Z</time>
      </trkpt>
      <trkpt lat="47.743" lon="-3.50266">
        <ele>6</ele>
        <time>2020-07-10T09:45:03Z</time>
      </trkpt>
      <trkpt lat="47.74297" lon="-3.50265">
        <ele>6</ele>
        <time>2020-07-10T09:45:04Z</time>
      </trkpt>
      <trkpt lat="47.74294" lon="-3.50263">
        <ele>6</ele>
        <time>2020-07-10T09:45:05Z</time>
      </trkpt>
      <trkpt lat="47.7429" lon="-3.50262">
        <ele>6</ele>
        <time>2020-07-10T09:45:06Z</time>
      </trkpt>
      <trkpt lat="47.74286" lon="-3.5026">
        <ele>6</ele>
        <time>2020-07-10T09:45:07Z</time>
      </trkpt>
      <trkpt lat="47.74282" lon="-3.50259">
        <ele>6</ele>
        <time>2020-07-10T09:45:08Z</time>
      </trkpt>
      <trkpt lat="47.74277" lon="-3.50259">
        <ele>6</ele>
        <time>2020-07-10T09:45:09Z</time>
      </trkpt>
      <trkpt lat="47.74273" lon="-3.50257">
        <ele>6</ele>
        <time>2020-07-10T09:45:10Z</time>
      </trkpt>
      <trkpt lat="47.74269" lon="-3.50256">
        <ele>6</ele>
        <time>2020-07-10T09:45:11Z</time>
      </trkpt>
      <trkpt lat="47.74265" lon="-3.50254">
        <ele>6</ele>
        <time>2020-07-10T09:45:12Z</time>
      </trkpt>
      <trkpt lat="47.74261" lon="-3.50253">
        <ele>6</ele>
        <time>2020-07-10T09:45:13Z</time>
      </trkpt>
      <trkpt lat="47.74257" lon="-3.50252">
        <ele>6</ele>
        <time>2020-07-10T09:45:14Z</time>
      </trkpt>
      <trkpt lat="47.74253" lon="-3.50251">
        <ele>6</ele>
        <time>2020-07-10T09:45:15Z</time>
      </trkpt>
      <trkpt lat="47.74249" lon="-3.5025">
        <ele>5.97</ele>
        <time>2020-07-10T09:45:16Z</time>
      </trkpt>
      <trkpt lat="47.74245" lon="-3.50248">
        <ele>5.82</ele>
        <time>2020-07-10T09:45:17Z</time>
      </trkpt>
      <trkpt lat="47.74241" lon="-3.50246">
        <ele>5.65</ele>
        <time>2020-07-10T09:45:18Z</time>
      </trkpt>
      <trkpt lat="47.74237" lon="-3.50245">
        <ele>5.49</ele>
        <time>2020-07-10T09:45:19Z</time>
      </trkpt>
      <trkpt lat="47.74232" lon="-3.50244">
        <ele>5.35</ele>
        <time>2020-07-10T09:45:20Z</time>
      </trkpt>
      <trkpt lat="47.74228" lon="-3.50243">
        <ele>5.22</ele>
        <time>2020-07-10T09:45:21Z</time>
      </trkpt>
      <trkpt lat="47.74225" lon="-3.50242">
        <ele>5.12</ele>
        <time>2020-07-10T09:45:22Z</time>
      </trkpt>
      <trkpt lat="47.74222" lon="-3.5024">
        <ele>5.03</ele>
        <time>2020-07-10T09:45:23Z</time>
      </trkpt>
      <trkpt lat="47.74219" lon="-3.5024">
        <ele>5.01</ele>
        <time>2020-07-10T09:45:24Z</time>
      </trkpt>
      <trkpt lat="47.74217" lon="-3.50242">
        <ele>5</ele>
        <time>2020-07-10T09:45:25Z</time>
      </trkpt>
      <trkpt lat="47.74216" lon="-3.50245">
        <ele>5</ele>
        <time>2020-07-10T09:45:26Z</time>
      </trkpt>
      <trkpt lat="47.74215" lon="-3.50249">
        <ele>5</ele>
        <time>2020-07-10T09:45:27Z</time>
      </trkpt>
      <trkpt lat="47.74214" lon="-3.50253">
        <ele>5.05</ele>
        <time>2020-07-10T09:45:28Z</time>
      </trkpt>
      <trkpt lat="47.74213" lon="-3.50258">
        <ele>5.14</ele>
        <time>2020-07-10T09:45:29Z</time>
      </trkpt>
      <trkpt lat="47.74211" lon="-3.50263">
        <ele>5.24</ele>
        <time>2020-07-10T09:45:30Z</time>
      </trkpt>
      <trkpt lat="47.7421" lon="-3.50267">
        <ele>5.32</ele>
        <time>2020-07-10T09:45:31Z</time>
      </trkpt>
      <trkpt lat="47.74209" lon="-3.50272">
        <ele>5.4</ele>
        <time>2020-07-10T09:45:32Z</time>
      </trkpt>
      <trkpt lat="47.74208" lon="-3.50276">
        <ele>5.45</ele>
        <time>2020-07-10T09:45:33Z</time>
      </trkpt>
      <trkpt lat="47.74207" lon="-3.5028">
        <ele>5.5</ele>
        <time>2020-07-10T09:45:34Z</time>
      </trkpt>
      <trkpt lat="47.74205" lon="-3.50281">
        <ele>5.5</ele>
        <time>2020-07-10T09:45:35Z</time>
      </trkpt>
      <trkpt lat="47.74203" lon="-3.50281">
        <ele>5.45</ele>
        <time>2020-07-10T09:45:36Z</time>
      </trkpt>
      <trkpt lat="47.742" lon="-3.50278">
        <ele>5.29</ele>
        <time>2020-07-10T09:45:37Z</time>
      </trkpt>
      <trkpt lat="47.74197" lon="-3.50275">
        <ele>5.15</ele>
        <time>2020-07-10T09:45:38Z</time>
      </trkpt>
      <trkpt lat="47.74194" lon="-3.50272">
        <ele>5.04</ele>
        <time>2020-07-10T09:45:39Z</time>
      </trkpt>
      <trkpt lat="47.7419" lon="-3.50269">
        <ele>5.01</ele>
        <time>2020-07-10T09:45:40Z</time>
      </trkpt>
      <trkpt lat="47.74186" lon="-3.50267">
        <ele>5</ele>
        <time>2020-07-10T09:45:41Z</time>
      </trkpt>
      <trkpt lat="47.74181" lon="-3.50265">
        <ele>5</ele>
        <time>2020-07-10T09:45:42Z</time>
      </trkpt>
      <trkpt lat="47.74177" lon="-3.50264">
        <ele>5</ele>
        <time>2020-07-10T09:45:43Z</time>
      </trkpt>
      <trkpt lat="47.74172" lon="-3.50263">
        <ele>5</ele>
        <time>2020-07-10T09:45:44Z</time>
      </trkpt>
      <trkpt lat="47.74168" lon="-3.50263">
        <ele>5</ele>
        <time>2020-07-10T09:45:45Z</time>
      </trkpt>
      <trkpt lat="47.74164" lon="-3.50262">
        <ele>5.02</ele>
        <time>2020-07-10T09:45:46Z</time>
      </trkpt>
      <trkpt lat="47.7416" lon="-3.50262">
        <ele>5.05</ele>
        <time>2020-07-10T09:45:47Z</time>
      </trkpt>
      <trkpt lat="47.74157" lon="-3.5026">
        <ele>5.04</ele>
        <time>2020-07-10T09:45:48Z</time>
      </trkpt>
      <trkpt lat="47.74154" lon="-3.50259">
        <ele>5</ele>
        <time>2020-07-10T09:45:49Z</time>
      </trkpt>
      <trkpt lat="47.74149" lon="-3.50258">
        <ele>4.95</ele>
        <time>2020-07-10T09:45:50Z</time>
      </trkpt>
      <trkpt lat="47.74145" lon="-3.50257">
        <ele>4.88</ele>
        <time>2020-07-10T09:45:51Z</time>
      </trkpt>
      <trkpt lat="47.74141" lon="-3.50257">
        <ele>4.84</ele>
        <time>2020-07-10T09:45:52Z</time>
      </trkpt>
      <trkpt lat="47.74136" lon="-3.50258">
        <ele>4.92</ele>
        <time>2020-07-10T09:45:53Z</time>
      </trkpt>
      <trkpt lat="47.74131" lon="-3.50259">
        <ele>5.12</ele>
        <time>2020-07-10T09:45:54Z</time>
      </trkpt>
      <trkpt lat="47.74127" lon="-3.5026">
        <ele>5.38</ele>
        <time>2020-07-10T09:45:55Z</time>
      </trkpt>
      <trkpt lat="47.74123" lon="-3.50261">
        <ele>5.62</ele>
        <time>2020-07-10T09:45:56Z</time>
      </trkpt>
      <trkpt lat="47.7412" lon="-3.50261">
        <ele>5.76</ele>
        <time>2020-07-10T09:45:57Z</time>
      </trkpt>
      <trkpt lat="47.74118" lon="-3.5026">
        <ele>5.86</ele>
        <time>2020-07-10T09:45:58Z</time>
      </trkpt>
      <trkpt lat="47.74115" lon="-3.5026">
        <ele>5.9</ele>
        <time>2020-07-10T09:45:59Z</time>
      </trkpt>
      <trkpt lat="47.74112" lon="-3.50259">
        <ele>5.9</ele>
        <time>2020-07-10T09:46:00Z</time>
      </trkpt>
      <trkpt lat="47.74108" lon="-3.50257">
        <ele>5.81</ele>
        <time>2020-07-10T09:46:01Z</time>
      </trkpt>
      <trkpt lat="47.74105" lon="-3.50255">
        <ele>5.68</ele>
        <time>2020-07-10T09:46:02Z</time>
      </trkpt>
      <trkpt lat="47.74102" lon="-3.50253">
        <ele>5.57</ele>
        <time>2020-07-10T09:46:03Z</time>
      </trkpt>
      <trkpt lat="47.74099" lon="-3.5025">
        <ele>5.5</ele>
        <time>2020-07-10T09:46:04Z</time>
      </trkpt>
      <trkpt lat="47.74096" lon="-3.50248">
        <ele>5.49</ele>
        <time>2020-07-10T09:46:05Z</time>
      </trkpt>
      <trkpt lat="47.74093" lon="-3.50246">
        <ele>5.52</ele>
        <time>2020-07-10T09:46:06Z</time>
      </trkpt>
      <trkpt lat="47.7409" lon="-3.50243">
        <ele>5.53</ele>
        <time>2020-07-10T09:46:07Z</time>
      </trkpt>
      <trkpt lat="47.74087" lon="-3.5024">
        <ele>5.52</ele>
        <time>2020-07-10T09:46:08Z</time>
      </trkpt>
      <trkpt lat="47.74084" lon="-3.50237">
        <ele>5.5</ele>
        <time>2020-07-10T09:46:09Z</time>
      </trkpt>
      <trkpt lat="47.74081" lon="-3.50232">
        <ele>5.43</ele>
        <time>2020-07-10T09:46:10Z</time>
      </trkpt>
      <trkpt lat="47.74078" lon="-3.50226">
        <ele>5.34</ele>
        <time>2020-07-10T09:46:11Z</time>
      </trkpt>
      <trkpt lat="47.74074" lon="-3.5022">
        <ele>5.32</ele>
        <time>2020-07-10T09:46:12Z</time>
      </trkpt>
      <trkpt lat="47.7407" lon="-3.50216">
        <ele>5.36</ele>
        <time>2020-07-10T09:46:13Z</time>
      </trkpt>
      <trkpt lat="47.74066" lon="-3.50212">
        <ele>5.39</ele>
        <time>2020-07-10T09:46:14Z</time>
      </trkpt>
      <trkpt lat="47.74062" lon="-3.50208">
        <ele>5.38</ele>
        <time>2020-07-10T09:46:15Z</time>
      </trkpt>
      <trkpt lat="47.7406" lon="-3.50204">
        <ele>5.31</ele>
        <time>2020-07-10T09:46:16Z</time>
      </trkpt>
      <trkpt lat="47.74058" lon="-3.50199">
        <ele>5.19</ele>
        <time>2020-07-10T09:46:17Z</time>
      </trkpt>
      <trkpt lat="47.74057" lon="-3.50194">
        <ele>5.06</ele>
        <time>2020-07-10T09:46:18Z</time>
      </trkpt>
      <trkpt lat="47.74057" lon="-3.50191">
        <ele>5.01</ele>
        <time>2020-07-10T09:46:19Z</time>
      </trkpt>
      <trkpt lat="47.74057" lon="-3.50187">
        <ele>4.99</ele>
        <time>2020-07-10T09:46:20Z</time>
      </trkpt>
      <trkpt lat="47.74058" lon="-3.50183">
        <ele>4.97</ele>
        <time>2020-07-10T09:46:21Z</time>
      </trkpt>
      <trkpt lat="47.74061" lon="-3.5018">
        <ele>4.92</ele>
        <time>2020-07-10T09:46:22Z</time>
      </trkpt>
      <trkpt lat="47.74065" lon="-3.50177">
        <ele>4.83</ele>
        <time>2020-07-10T09:46:23Z</time>
      </trkpt>
      <trkpt lat="47.7407" lon="-3.50175">
        <ele>4.71</ele>
        <time>2020-07-10T09:46:24Z</time>
      </trkpt>
      <trkpt lat="47.74075" lon="-3.50174">
        <ele>4.55</ele>
        <time>2020-07-10T09:46:25Z</time>
      </trkpt>
      <trkpt lat="47.7408" lon="-3.50173">
        <ele>4.38</ele>
        <time>2020-07-10T09:46:26Z</time>
      </trkpt>
      <trkpt lat="47.74085" lon="-3.50171">
        <ele>4.26</ele>
        <time>2020-07-10T09:46:27Z</time>
      </trkpt>
      <trkpt lat="47.7409" lon="-3.5017">
        <ele>4.29</ele>
        <time>2020-07-10T09:46:28Z</time>
      </trkpt>
      <trkpt lat="47.74094" lon="-3.50168">
        <ele>4.37</ele>
        <time>2020-07-10T09:46:29Z</time>
      </trkpt>
      <trkpt lat="47.74098" lon="-3.50166">
        <ele>4.49</ele>
        <time>2020-07-10T09:46:30Z</time>
      </trkpt>
      <trkpt lat="47.74103" lon="-3.50164">
        <ele>4.61</ele>
        <time>2020-07-10T09:46:31Z</time>
      </trkpt>
      <trkpt lat="47.74107" lon="-3.50161">
        <ele>4.69</ele>
        <time>2020-07-10T09:46:32Z</time>
      </trkpt>
      <trkpt lat="47.74112" lon="-3.50159">
        <ele>4.69</ele>
        <time>2020-07-10T09:46:33Z</time>
      </trkpt>
      <trkpt lat="47.74117" lon="-3.50156">
        <ele>4.55</ele>
        <time>2020-07-10T09:46:34Z</time>
      </trkpt>
      <trkpt lat="47.74122" lon="-3.50153">
        <ele>4.39</ele>
        <time>2020-07-10T09:46:35Z</time>
      </trkpt>
      <trkpt lat="47.74126" lon="-3.5015">
        <ele>4.24</ele>
        <time>2020-07-10T09:46:36Z</time>
      </trkpt>
      <trkpt lat="47.74131" lon="-3.50147">
        <ele>4.13</ele>
        <time>2020-07-10T09:46:37Z</time>
      </trkpt>
      <trkpt lat="47.74136" lon="-3.50144">
        <ele>4.05</ele>
        <time>2020-07-10T09:46:38Z</time>
      </trkpt>
      <trkpt lat="47.74141" lon="-3.5014">
        <ele>4.02</ele>
        <time>2020-07-10T09:46:39Z</time>
      </trkpt>
      <trkpt lat="47.74145" lon="-3.50135">
        <ele>4</ele>
        <time>2020-07-10T09:46:40Z</time>
      </trkpt>
      <trkpt lat="47.74148" lon="-3.5013">
        <ele>4</ele>
        <time>2020-07-10T09:46:41Z</time>
      </trkpt>
      <trkpt lat="47.74152" lon="-3.50124">
        <ele>4</ele>
        <time>2020-07-10T09:46:42Z</time>
      </trkpt>
      <trkpt lat="47.74155" lon="-3.50117">
        <ele>4</ele>
        <time>2020-07-10T09:46:43Z</time>
      </trkpt>
      <trkpt lat="47.74158" lon="-3.5011">
        <ele>4</ele>
        <time>2020-07-10T09:46:44Z</time>
      </trkpt>
      <trkpt lat="47.74161" lon="-3.50103">
        <ele>4</ele>
        <time>2020-07-10T09:46:45Z</time>
      </trkpt>
      <trkpt lat="47.74164" lon="-3.50095">
        <ele>4</ele>
        <time>2020-07-10T09:46:46Z</time>
      </trkpt>
      <trkpt lat="47.74166" lon="-3.50087">
        <ele>4</ele>
        <time>2020-07-10T09:46:47Z</time>
      </trkpt>
      <trkpt lat="47.74168" lon="-3.5008">
        <ele>4.05</ele>
        <time>2020-07-10T09:46:48Z</time>
      </trkpt>
      <trkpt lat="47.74171" lon="-3.50072">
        <ele>4.12</ele>
        <time>2020-07-10T09:46:49Z</time>
      </trkpt>
      <trkpt lat="47.74174" lon="-3.50064">
        <ele>4.22</ele>
        <time>2020-07-10T09:46:50Z</time>
      </trkpt>
      <trkpt lat="47.74177" lon="-3.50056">
        <ele>4.32</ele>
        <time>2020-07-10T09:46:51Z</time>
      </trkpt>
      <trkpt lat="47.74179" lon="-3.50049">
        <ele>4.34</ele>
        <time>2020-07-10T09:46:52Z</time>
      </trkpt>
      <trkpt lat="47.74182" lon="-3.50041">
        <ele>4.28</ele>
        <time>2020-07-10T09:46:53Z</time>
      </trkpt>
      <trkpt lat="47.74185" lon="-3.50033">
        <ele>4.18</ele>
        <time>2020-07-10T09:46:54Z</time>
      </trkpt>
      <trkpt lat="47.74187" lon="-3.50026">
        <ele>4.05</ele>
        <time>2020-07-10T09:46:55Z</time>
      </trkpt>
      <trkpt lat="47.7419" lon="-3.50017">
        <ele>4.02</ele>
        <time>2020-07-10T09:46:56Z</time>
      </trkpt>
      <trkpt lat="47.74192" lon="-3.50009">
        <ele>4</ele>
        <time>2020-07-10T09:46:57Z</time>
      </trkpt>
      <trkpt lat="47.74195" lon="-3.50001">
        <ele>4.02</ele>
        <time>2020-07-10T09:46:58Z</time>
      </trkpt>
      <trkpt lat="47.74198" lon="-3.49993">
        <ele>4.09</ele>
        <time>2020-07-10T09:46:59Z</time>
      </trkpt>
      <trkpt lat="47.742" lon="-3.49985">
        <ele>4.17</ele>
        <time>2020-07-10T09:47:00Z</time>
      </trkpt>
      <trkpt lat="47.74203" lon="-3.49977">
        <ele>4.27</ele>
        <time>2020-07-10T09:47:01Z</time>
      </trkpt>
      <trkpt lat="47.74206" lon="-3.49969">
        <ele>4.33</ele>
        <time>2020-07-10T09:47:02Z</time>
      </trkpt>
      <trkpt lat="47.74209" lon="-3.49961">
        <ele>4.31</ele>
        <time>2020-07-10T09:47:03Z</time>
      </trkpt>
      <trkpt lat="47.74212" lon="-3.49953">
        <ele>4.23</ele>
        <time>2020-07-10T09:47:04Z</time>
      </trkpt>
      <trkpt lat="47.74214" lon="-3.49945">
        <ele>4.08</ele>
        <time>2020-07-10T09:47:05Z</time>
      </trkpt>
      <trkpt lat="47.74217" lon="-3.49937">
        <ele>4.02</ele>
        <time>2020-07-10T09:47:06Z</time>
      </trkpt>
      <trkpt lat="47.7422" lon="-3.49928">
        <ele>4.01</ele>
        <time>2020-07-10T09:47:07Z</time>
      </trkpt>
      <trkpt lat="47.74222" lon="-3.4992">
        <ele>4</ele>
        <time>2020-07-10T09:47:08Z</time>
      </trkpt>
      <trkpt lat="47.74224" lon="-3.49912">
        <ele>4.05</ele>
        <time>2020-07-10T09:47:09Z</time>
      </trkpt>
      <trkpt lat="47.74226" lon="-3.49906">
        <ele>4.12</ele>
        <time>2020-07-10T09:47:10Z</time>
      </trkpt>
      <trkpt lat="47.74227" lon="-3.49902">
        <ele>4.16</ele>
        <time>2020-07-10T09:47:11Z</time>
      </trkpt>
      <trkpt lat="47.74228" lon="-3.49898">
        <ele>4.19</ele>
        <time>2020-07-10T09:47:12Z</time>
      </trkpt>
      <trkpt lat="47.74229" lon="-3.49895">
        <ele>4.22</ele>
        <time>2020-07-10T09:47:13Z</time>
      </trkpt>
      <trkpt lat="47.7423" lon="-3.49892">
        <ele>4.26</ele>
        <time>2020-07-10T09:47:14Z</time>
      </trkpt>
      <trkpt lat="47.74231" lon="-3.49888">
        <ele>4.3</ele>
        <time>2020-07-10T09:47:15Z</time>
      </trkpt>
      <trkpt lat="47.74233" lon="-3.49883">
        <ele>4.35</ele>
        <time>2020-07-10T09:47:16Z</time>
      </trkpt>
      <trkpt lat="47.74235" lon="-3.49878">
        <ele>4.42</ele>
        <time>2020-07-10T09:47:17Z</time>
      </trkpt>
      <trkpt lat="47.74237" lon="-3.49873">
        <ele>4.5</ele>
        <time>2020-07-10T09:47:18Z</time>
      </trkpt>
      <trkpt lat="47.74239" lon="-3.49867">
        <ele>4.58</ele>
        <time>2020-07-10T09:47:19Z</time>
      </trkpt>
      <trkpt lat="47.74242" lon="-3.49862">
        <ele>4.67</ele>
        <time>2020-07-10T09:47:20Z</time>
      </trkpt>
      <trkpt lat="47.74245" lon="-3.49856">
        <ele>4.77</ele>
        <time>2020-07-10T09:47:21Z</time>
      </trkpt>
      <trkpt lat="47.74248" lon="-3.49849">
        <ele>4.87</ele>
        <time>2020-07-10T09:47:22Z</time>
      </trkpt>
      <trkpt lat="47.74251" lon="-3.49843">
        <ele>4.96</ele>
        <time>2020-07-10T09:47:23Z</time>
      </trkpt>
      <trkpt lat="47.74254" lon="-3.49836">
        <ele>4.99</ele>
        <time>2020-07-10T09:47:24Z</time>
      </trkpt>
      <trkpt lat="47.74257" lon="-3.4983">
        <ele>5</ele>
        <time>2020-07-10T09:47:25Z</time>
      </trkpt>
      <trkpt lat="47.7426" lon="-3.49823">
        <ele>5</ele>
        <time>2020-07-10T09:47:26Z</time>
      </trkpt>
      <trkpt lat="47.74263" lon="-3.49816">
        <ele>5</ele>
        <time>2020-07-10T09:47:27Z</time>
      </trkpt>
      <trkpt lat="47.74266" lon="-3.4981">
        <ele>5</ele>
        <time>2020-07-10T09:47:28Z</time>
      </trkpt>
      <trkpt lat="47.74269" lon="-3.49803">
        <ele>5</ele>
        <time>2020-07-10T09:47:29Z</time>
      </trkpt>
      <trkpt lat="47.74272" lon="-3.49796">
        <ele>5</ele>
        <time>2020-07-10T09:47:30Z</time>
      </trkpt>
      <trkpt lat="47.74275" lon="-3.4979">
        <ele>5</ele>
        <time>2020-07-10T09:47:31Z</time>
      </trkpt>
      <trkpt lat="47.74278" lon="-3.49783">
        <ele>5</ele>
        <time>2020-07-10T09:47:32Z</time>
      </trkpt>
      <trkpt lat="47.74282" lon="-3.49776">
        <ele>5</ele>
        <time>2020-07-10T09:47:33Z</time>
      </trkpt>
      <trkpt lat="47.74285" lon="-3.49769">
        <ele>5</ele>
        <time>2020-07-10T09:47:34Z</time>
      </trkpt>
      <trkpt lat="47.74288" lon="-3.49763">
        <ele>5</ele>
        <time>2020-07-10T09:47:35Z</time>
      </trkpt>
      <trkpt lat="47.74291" lon="-3.49756">
        <ele>5</ele>
        <time>2020-07-10T09:47:36Z</time>
      </trkpt>
      <trkpt lat="47.74294" lon="-3.49749">
        <ele>5</ele>
        <time>2020-07-10T09:47:37Z</time>
      </trkpt>
      <trkpt lat="47.74297" lon="-3.49742">
        <ele>5</ele>
        <time>2020-07-10T09:47:38Z</time>
      </trkpt>
      <trkpt lat="47.743" lon="-3.49734">
        <ele>5</ele>
        <time>2020-07-10T09:47:39Z</time>
      </trkpt>
      <trkpt lat="47.74303" lon="-3.49728">
        <ele>5</ele>
        <time>2020-07-10T09:47:40Z</time>
      </trkpt>
      <trkpt lat="47.74306" lon="-3.49721">
        <ele>5.02</ele>
        <time>2020-07-10T09:47:41Z</time>
      </trkpt>
      <trkpt lat="47.7431" lon="-3.49715">
        <ele>5.11</ele>
        <time>2020-07-10T09:47:42Z</time>
      </trkpt>
      <trkpt lat="47.74312" lon="-3.49708">
        <ele>5.21</ele>
        <time>2020-07-10T09:47:43Z</time>
      </trkpt>
      <trkpt lat="47.74316" lon="-3.49702">
        <ele>5.31</ele>
        <time>2020-07-10T09:47:44Z</time>
      </trkpt>
      <trkpt lat="47.74318" lon="-3.49695">
        <ele>5.42</ele>
        <time>2020-07-10T09:47:45Z</time>
      </trkpt>
      <trkpt lat="47.74321" lon="-3.49689">
        <ele>5.51</ele>
        <time>2020-07-10T09:47:46Z</time>
      </trkpt>
      <trkpt lat="47.74324" lon="-3.49683">
        <ele>5.61</ele>
        <time>2020-07-10T09:47:47Z</time>
      </trkpt>
      <trkpt lat="47.74326" lon="-3.49676">
        <ele>5.71</ele>
        <time>2020-07-10T09:47:48Z</time>
      </trkpt>
      <trkpt lat="47.74329" lon="-3.4967">
        <ele>5.82</ele>
        <time>2020-07-10T09:47:49Z</time>
      </trkpt>
      <trkpt lat="47.74332" lon="-3.49664">
        <ele>5.92</ele>
        <time>2020-07-10T09:47:50Z</time>
      </trkpt>
      <trkpt lat="47.74335" lon="-3.49658">
        <ele>5.98</ele>
        <time>2020-07-10T09:47:51Z</time>
      </trkpt>
      <trkpt lat="47.74338" lon="-3.49651">
        <ele>5.99</ele>
        <time>2020-07-10T09:47:52Z</time>
      </trkpt>
      <trkpt lat="47.7434" lon="-3.49643">
        <ele>6</ele>
        <time>2020-07-10T09:47:53Z</time>
      </trkpt>
      <trkpt lat="47.74343" lon="-3.49636">
        <ele>5.96</ele>
        <time>2020-07-10T09:47:54Z</time>
      </trkpt>
      <trkpt lat="47.74346" lon="-3.49629">
        <ele>5.85</ele>
        <time>2020-07-10T09:47:55Z</time>
      </trkpt>
      <trkpt lat="47.74348" lon="-3.49622">
        <ele>5.75</ele>
        <time>2020-07-10T09:47:56Z</time>
      </trkpt>
      <trkpt lat="47.7435" lon="-3.49614">
        <ele>5.67</ele>
        <time>2020-07-10T09:47:57Z</time>
      </trkpt>
      <trkpt lat="47.74352" lon="-3.49606">
        <ele>5.67</ele>
        <time>2020-07-10T09:47:58Z</time>
      </trkpt>
      <trkpt lat="47.74354" lon="-3.49598">
        <ele>5.71</ele>
        <time>2020-07-10T09:47:59Z</time>
      </trkpt>
      <trkpt lat="47.74356" lon="-3.4959">
        <ele>5.78</ele>
        <time>2020-07-10T09:48:00Z</time>
      </trkpt>
      <trkpt lat="47.74358" lon="-3.49582">
        <ele>5.82</ele>
        <time>2020-07-10T09:48:01Z</time>
      </trkpt>
      <trkpt lat="47.7436" lon="-3.49574">
        <ele>5.69</ele>
        <time>2020-07-10T09:48:02Z</time>
      </trkpt>
      <trkpt lat="47.74362" lon="-3.49567">
        <ele>5.49</ele>
        <time>2020-07-10T09:48:03Z</time>
      </trkpt>
      <trkpt lat="47.74363" lon="-3.49559">
        <ele>5.28</ele>
        <time>2020-07-10T09:48:04Z</time>
      </trkpt>
      <trkpt lat="47.74365" lon="-3.49551">
        <ele>5.17</ele>
        <time>2020-07-10T09:48:05Z</time>
      </trkpt>
      <trkpt lat="47.74366" lon="-3.49544">
        <ele>5.17</ele>
        <time>2020-07-10T09:48:06Z</time>
      </trkpt>
      <trkpt lat="47.74368" lon="-3.49536">
        <ele>5.23</ele>
        <time>2020-07-10T09:48:07Z</time>
      </trkpt>
      <trkpt lat="47.7437" lon="-3.49528">
        <ele>5.29</ele>
        <time>2020-07-10T09:48:08Z</time>
      </trkpt>
      <trkpt lat="47.74372" lon="-3.49521">
        <ele>5.35</ele>
        <time>2020-07-10T09:48:09Z</time>
      </trkpt>
      <trkpt lat="47.74373" lon="-3.49514">
        <ele>5.41</ele>
        <time>2020-07-10T09:48:10Z</time>
      </trkpt>
      <trkpt lat="47.74375" lon="-3.49506">
        <ele>5.46</ele>
        <time>2020-07-10T09:48:11Z</time>
      </trkpt>
      <trkpt lat="47.74376" lon="-3.49499">
        <ele>5.52</ele>
        <time>2020-07-10T09:48:12Z</time>
      </trkpt>
      <trkpt lat="47.74378" lon="-3.49493">
        <ele>5.59</ele>
        <time>2020-07-10T09:48:13Z</time>
      </trkpt>
      <trkpt lat="47.74379" lon="-3.49487">
        <ele>5.64</ele>
        <time>2020-07-10T09:48:14Z</time>
      </trkpt>
      <trkpt lat="47.74381" lon="-3.49482">
        <ele>5.68</ele>
        <time>2020-07-10T09:48:15Z</time>
      </trkpt>
      <trkpt lat="47.74382" lon="-3.49477">
        <ele>5.73</ele>
        <time>2020-07-10T09:48:16Z</time>
      </trkpt>
      <trkpt lat="47.74384" lon="-3.49472">
        <ele>5.78</ele>
        <time>2020-07-10T09:48:17Z</time>
      </trkpt>
      <trkpt lat="47.74386" lon="-3.49466">
        <ele>5.72</ele>
        <time>2020-07-10T09:48:18Z</time>
      </trkpt>
      <trkpt lat="47.74388" lon="-3.4946">
        <ele>5.6</ele>
        <time>2020-07-10T09:48:19Z</time>
      </trkpt>
      <trkpt lat="47.74391" lon="-3.49454">
        <ele>5.46</ele>
        <time>2020-07-10T09:48:20Z</time>
      </trkpt>
      <trkpt lat="47.74393" lon="-3.49449">
        <ele>5.32</ele>
        <time>2020-07-10T09:48:21Z</time>
      </trkpt>
      <trkpt lat="47.74395" lon="-3.49443">
        <ele>5.27</ele>
        <time>2020-07-10T09:48:22Z</time>
      </trkpt>
      <trkpt lat="47.74399" lon="-3.49439">
        <ele>5.37</ele>
        <time>2020-07-10T09:48:23Z</time>
      </trkpt>
      <trkpt lat="47.74402" lon="-3.49435">
        <ele>5.56</ele>
        <time>2020-07-10T09:48:24Z</time>
      </trkpt>
      <trkpt lat="47.74406" lon="-3.49432">
        <ele>5.81</ele>
        <time>2020-07-10T09:48:25Z</time>
      </trkpt>
      <trkpt lat="47.7441" lon="-3.49429">
        <ele>6.09</ele>
        <time>2020-07-10T09:48:26Z</time>
      </trkpt>
      <trkpt lat="47.74414" lon="-3.49425">
        <ele>6.42</ele>
        <time>2020-07-10T09:48:27Z</time>
      </trkpt>
      <trkpt lat="47.74419" lon="-3.49422">
        <ele>6.75</ele>
        <time>2020-07-10T09:48:28Z</time>
      </trkpt>
      <trkpt lat="47.74423" lon="-3.49419">
        <ele>7.03</ele>
        <time>2020-07-10T09:48:29Z</time>
      </trkpt>
      <trkpt lat="47.74427" lon="-3.49417">
        <ele>7.27</ele>
        <time>2020-07-10T09:48:30Z</time>
      </trkpt>
      <trkpt lat="47.74431" lon="-3.49415">
        <ele>7.45</ele>
        <time>2020-07-10T09:48:31Z</time>
      </trkpt>
      <trkpt lat="47.74435" lon="-3.49412">
        <ele>7.6</ele>
        <time>2020-07-10T09:48:32Z</time>
      </trkpt>
      <trkpt lat="47.74439" lon="-3.49409">
        <ele>7.74</ele>
        <time>2020-07-10T09:48:33Z</time>
      </trkpt>
      <trkpt lat="47.74443" lon="-3.49405">
        <ele>7.88</ele>
        <time>2020-07-10T09:48:34Z</time>
      </trkpt>
      <trkpt lat="47.74447" lon="-3.49402">
        <ele>8.02</ele>
        <time>2020-07-10T09:48:35Z</time>
      </trkpt>
      <trkpt lat="47.74451" lon="-3.49399">
        <ele>8.17</ele>
        <time>2020-07-10T09:48:36Z</time>
      </trkpt>
      <trkpt lat="47.74455" lon="-3.49396">
        <ele>8.32</ele>
        <time>2020-07-10T09:48:37Z</time>
      </trkpt>
      <trkpt lat="47.74459" lon="-3.49393">
        <ele>8.46</ele>
        <time>2020-07-10T09:48:38Z</time>
      </trkpt>
      <trkpt lat="47.74463" lon="-3.4939">
        <ele>8.61</ele>
        <time>2020-07-10T09:48:39Z</time>
      </trkpt>
      <trkpt lat="47.74467" lon="-3.49387">
        <ele>8.74</ele>
        <time>2020-07-10T09:48:40Z</time>
      </trkpt>
      <trkpt lat="47.7447" lon="-3.49384">
        <ele>8.87</ele>
        <time>2020-07-10T09:48:41Z</time>
      </trkpt>
      <trkpt lat="47.74474" lon="-3.49382">
        <ele>9.01</ele>
        <time>2020-07-10T09:48:42Z</time>
      </trkpt>
      <trkpt lat="47.74478" lon="-3.49379">
        <ele>9.15</ele>
        <time>2020-07-10T09:48:43Z</time>
      </trkpt>
      <trkpt lat="47.74482" lon="-3.49376">
        <ele>9.28</ele>
        <time>2020-07-10T09:48:44Z</time>
      </trkpt>
      <trkpt lat="47.74485" lon="-3.49373">
        <ele>9.42</ele>
        <time>2020-07-10T09:48:45Z</time>
      </trkpt>
      <trkpt lat="47.74489" lon="-3.4937">
        <ele>9.53</ele>
        <time>2020-07-10T09:48:46Z</time>
      </trkpt>
      <trkpt lat="47.74492" lon="-3.49368">
        <ele>9.65</ele>
        <time>2020-07-10T09:48:47Z</time>
      </trkpt>
      <trkpt lat="47.74494" lon="-3.49365">
        <ele>9.74</ele>
        <time>2020-07-10T09:48:48Z</time>
      </trkpt>
      <trkpt lat="47.74496" lon="-3.49363">
        <ele>9.83</ele>
        <time>2020-07-10T09:48:49Z</time>
      </trkpt>
      <trkpt lat="47.74498" lon="-3.49361">
        <ele>9.9</ele>
        <time>2020-07-10T09:48:50Z</time>
      </trkpt>
      <trkpt lat="47.74499" lon="-3.49359">
        <ele>9.95</ele>
        <time>2020-07-10T09:48:51Z</time>
      </trkpt>
      <trkpt lat="47.745" lon="-3.49359">
        <ele>9.98</ele>
        <time>2020-07-10T09:48:52Z</time>
      </trkpt>
      <trkpt lat="47.745" lon="-3.49359">
        <ele>9.99</ele>
        <time>2020-07-10T09:48:53Z</time>
      </trkpt>
      <trkpt lat="47.745" lon="-3.49359">
        <ele>9.99</ele>
        <time>2020-07-10T09:48:54Z</time>
      </trkpt>
      <trkpt lat="47.745" lon="-3.49359">
        <ele>9.99</ele>
        <time>2020-07-10T09:48:55Z</time>
      </trkpt>
      <trkpt lat="47.745" lon="-3.49359">
        <ele>9.99</ele>
        <time>2020-07-10T09:48:56Z</time>
      </trkpt>
      <trkpt lat="47.745" lon="-3.49359">
        <ele>9.99</ele>
        <time>2020-07-10T09:48:57Z</time>
      </trkpt>
      <trkpt lat="47.745" lon="-3.49359">
        <ele>9.99</ele>
        <time>2020-07-10T09:48:58Z</time>
      </trkpt>
      <trkpt lat="47.745" lon="-3.49356">
        <ele>10</ele>
        <time>2020-07-10T09:48:59Z</time>
      </trkpt>
      <trkpt lat="47.74501" lon="-3.49354">
        <ele>10.02</ele>
        <time>2020-07-10T09:49:00Z</time>
      </trkpt>
      <trkpt lat="47.74502" lon="-3.4935">
        <ele>10.05</ele>
        <time>2020-07-10T09:49:01Z</time>
      </trkpt>
      <trkpt lat="47.74503" lon="-3.49345">
        <ele>10.08</ele>
        <time>2020-07-10T09:49:02Z</time>
      </trkpt>
      <trkpt lat="47.74503" lon="-3.4934">
        <ele>10.11</ele>
        <time>2020-07-10T09:49:03Z</time>
      </trkpt>
      <trkpt lat="47.74504" lon="-3.49334">
        <ele>10.14</ele>
        <time>2020-07-10T09:49:04Z</time>
      </trkpt>
      <trkpt lat="47.74505" lon="-3.49329">
        <ele>10.29</ele>
        <time>2020-07-10T09:49:05Z</time>
      </trkpt>
      <trkpt lat="47.74506" lon="-3.49323">
        <ele>10.5</ele>
        <time>2020-07-10T09:49:06Z</time>
      </trkpt>
      <trkpt lat="47.74507" lon="-3.49317">
        <ele>10.74</ele>
        <time>2020-07-10T09:49:07Z</time>
      </trkpt>
      <trkpt lat="47.74509" lon="-3.49311">
        <ele>11</ele>
        <time>2020-07-10T09:49:08Z</time>
      </trkpt>
      <trkpt lat="47.74509" lon="-3.49305">
        <ele>11.24</ele>
        <time>2020-07-10T09:49:09Z</time>
      </trkpt>
      <trkpt lat="47.7451" lon="-3.49299">
        <ele>11.34</ele>
        <time>2020-07-10T09:49:10Z</time>
      </trkpt>
      <trkpt lat="47.74512" lon="-3.49292">
        <ele>11.4</ele>
        <time>2020-07-10T09:49:11Z</time>
      </trkpt>
      <trkpt lat="47.74514" lon="-3.49286">
        <ele>11.47</ele>
        <time>2020-07-10T09:49:12Z</time>
      </trkpt>
      <trkpt lat="47.74515" lon="-3.4928">
        <ele>11.53</ele>
        <time>2020-07-10T09:49:13Z</time>
      </trkpt>
      <trkpt lat="47.74517" lon="-3.49273">
        <ele>11.54</ele>
        <time>2020-07-10T09:49:14Z</time>
      </trkpt>
      <trkpt lat="47.74519" lon="-3.49267">
        <ele>11.54</ele>
        <time>2020-07-10T09:49:15Z</time>
      </trkpt>
      <trkpt lat="47.7452" lon="-3.4926">
        <ele>11.54</ele>
        <time>2020-07-10T09:49:16Z</time>
      </trkpt>
      <trkpt lat="47.74521" lon="-3.49254">
        <ele>11.56</ele>
        <time>2020-07-10T09:49:17Z</time>
      </trkpt>
      <trkpt lat="47.74523" lon="-3.49248">
        <ele>11.6</ele>
        <time>2020-07-10T09:49:18Z</time>
      </trkpt>
      <trkpt lat="47.74523" lon="-3.49241">
        <ele>11.66</ele>
        <time>2020-07-10T09:49:19Z</time>
      </trkpt>
      <trkpt lat="47.74524" lon="-3.49234">
        <ele>11.72</ele>
        <time>2020-07-10T09:49:20Z</time>
      </trkpt>
      <trkpt lat="47.74526" lon="-3.49228">
        <ele>11.8</ele>
        <time>2020-07-10T09:49:21Z</time>
      </trkpt>
      <trkpt lat="47.74527" lon="-3.49222">
        <ele>11.88</ele>
        <time>2020-07-10T09:49:22Z</time>
      </trkpt>
      <trkpt lat="47.74528" lon="-3.49216">
        <ele>11.99</ele>
        <time>2020-07-10T09:49:23Z</time>
      </trkpt>
      <trkpt lat="47.74529" lon="-3.49209">
        <ele>12.12</ele>
        <time>2020-07-10T09:49:24Z</time>
      </trkpt>
      <trkpt lat="47.74531" lon="-3.49203">
        <ele>12.31</ele>
        <time>2020-07-10T09:49:25Z</time>
      </trkpt>
      <trkpt lat="47.74532" lon="-3.49197">
        <ele>12.53</ele>
        <time>2020-07-10T09:49:26Z</time>
      </trkpt>
      <trkpt lat="47.74534" lon="-3.49191">
        <ele>12.8</ele>
        <time>2020-07-10T09:49:27Z</time>
      </trkpt>
      <trkpt lat="47.74536" lon="-3.49185">
        <ele>13.12</ele>
        <time>2020-07-10T09:49:28Z</time>
      </trkpt>
      <trkpt lat="47.74538" lon="-3.49179">
        <ele>13.46</ele>
        <time>2020-07-10T09:49:29Z</time>
      </trkpt>
      <trkpt lat="47.74539" lon="-3.49172">
        <ele>13.79</ele>
        <time>2020-07-10T09:49:30Z</time>
      </trkpt>
      <trkpt lat="47.7454" lon="-3.49166">
        <ele>14.11</ele>
        <time>2020-07-10T09:49:31Z</time>
      </trkpt>
      <trkpt lat="47.74542" lon="-3.4916">
        <ele>14.57</ele>
        <time>2020-07-10T09:49:32Z</time>
      </trkpt>
      <trkpt lat="47.74543" lon="-3.49154">
        <ele>15.05</ele>
        <time>2020-07-10T09:49:33Z</time>
      </trkpt>
      <trkpt lat="47.74545" lon="-3.49149">
        <ele>15.48</ele>
        <time>2020-07-10T09:49:34Z</time>
      </trkpt>
      <trkpt lat="47.74546" lon="-3.49143">
        <ele>15.87</ele>
        <time>2020-07-10T09:49:35Z</time>
      </trkpt>
      <trkpt lat="47.74546" lon="-3.49137">
        <ele>16.21</ele>
        <time>2020-07-10T09:49:36Z</time>
      </trkpt>
      <trkpt lat="47.74548" lon="-3.49132">
        <ele>16.5</ele>
        <time>2020-07-10T09:49:37Z</time>
      </trkpt>
      <trkpt lat="47.74549" lon="-3.49126">
        <ele>16.76</ele>
        <time>2020-07-10T09:49:38Z</time>
      </trkpt>
      <trkpt lat="47.7455" lon="-3.49119">
        <ele>17.01</ele>
        <time>2020-07-10T09:49:39Z</time>
      </trkpt>
      <trkpt lat="47.74551" lon="-3.49114">
        <ele>17.23</ele>
        <time>2020-07-10T09:49:40Z</time>
      </trkpt>
      <trkpt lat="47.74552" lon="-3.49107">
        <ele>17.51</ele>
        <time>2020-07-10T09:49:41Z</time>
      </trkpt>
      <trkpt lat="47.74553" lon="-3.49102">
        <ele>17.84</ele>
        <time>2020-07-10T09:49:42Z</time>
      </trkpt>
      <trkpt lat="47.74554" lon="-3.49096">
        <ele>18.19</ele>
        <time>2020-07-10T09:49:43Z</time>
      </trkpt>
      <trkpt lat="47.74555" lon="-3.49091">
        <ele>18.56</ele>
        <time>2020-07-10T09:49:44Z</time>
      </trkpt>
      <trkpt lat="47.74556" lon="-3.49085">
        <ele>18.87</ele>
        <time>2020-07-10T09:49:45Z</time>
      </trkpt>
      <trkpt lat="47.74557" lon="-3.4908">
        <ele>19.15</ele>
        <time>2020-07-10T09:49:46Z</time>
      </trkpt>
      <trkpt lat="47.74557" lon="-3.49075">
        <ele>19.35</ele>
        <time>2020-07-10T09:49:47Z</time>
      </trkpt>
      <trkpt lat="47.74557" lon="-3.4907">
        <ele>19.57</ele>
        <time>2020-07-10T09:49:48Z</time>
      </trkpt>
      <trkpt lat="47.74558" lon="-3.49065">
        <ele>19.8</ele>
        <time>2020-07-10T09:49:49Z</time>
      </trkpt>
      <trkpt lat="47.74558" lon="-3.4906">
        <ele>20.03</ele>
        <time>2020-07-10T09:49:50Z</time>
      </trkpt>
      <trkpt lat="47.74559" lon="-3.49055">
        <ele>20.27</ele>
        <time>2020-07-10T09:49:51Z</time>
      </trkpt>
      <trkpt lat="47.74559" lon="-3.49049">
        <ele>20.52</ele>
        <time>2020-07-10T09:49:52Z</time>
      </trkpt>
      <trkpt lat="47.74559" lon="-3.49044">
        <ele>20.74</ele>
        <time>2020-07-10T09:49:53Z</time>
      </trkpt>
      <trkpt lat="47.74559" lon="-3.49039">
        <ele>20.87</ele>
        <time>2020-07-10T09:49:54Z</time>
      </trkpt>
      <trkpt lat="47.74558" lon="-3.49033">
        <ele>21.04</ele>
        <time>2020-07-10T09:49:55Z</time>
      </trkpt>
      <trkpt lat="47.74557" lon="-3.49028">
        <ele>21.14</ele>
        <time>2020-07-10T09:49:56Z</time>
      </trkpt>
      <trkpt lat="47.74555" lon="-3.49026">
        <ele>21.07</ele>
        <time>2020-07-10T09:49:57Z</time>
      </trkpt>
      <trkpt lat="47.74553" lon="-3.49025">
        <ele>20.9</ele>
        <time>2020-07-10T09:49:58Z</time>
      </trkpt>
      <trkpt lat="47.7455" lon="-3.49024">
        <ele>20.64</ele>
        <time>2020-07-10T09:49:59Z</time>
      </trkpt>
      <trkpt lat="47.74547" lon="-3.49023">
        <ele>20.33</ele>
        <time>2020-07-10T09:50:00Z</time>
      </trkpt>
      <trkpt lat="47.74543" lon="-3.49022">
        <ele>19.96</ele>
        <time>2020-07-10T09:50:01Z</time>
      </trkpt>
      <trkpt lat="47.7454" lon="-3.49022">
        <ele>19.56</ele>
        <time>2020-07-10T09:50:02Z</time>
      </trkpt>
      <trkpt lat="47.74536" lon="-3.49021">
        <ele>19.17</ele>
        <time>2020-07-10T09:50:03Z</time>
      </trkpt>
      <trkpt lat="47.74532" lon="-3.49019">
        <ele>18.73</ele>
        <time>2020-07-10T09:50:04Z</time>
      </trkpt>
      <trkpt lat="47.74529" lon="-3.49018">
        <ele>18.29</ele>
        <time>2020-07-10T09:50:05Z</time>
      </trkpt>
      <trkpt lat="47.74525" lon="-3.49018">
        <ele>17.74</ele>
        <time>2020-07-10T09:50:06Z</time>
      </trkpt>
      <trkpt lat="47.7452" lon="-3.49016">
        <ele>17.04</ele>
        <time>2020-07-10T09:50:07Z</time>
      </trkpt>
      <trkpt lat="47.74515" lon="-3.49017">
        <ele>16.19</ele>
        <time>2020-07-10T09:50:08Z</time>
      </trkpt>
      <trkpt lat="47.7451" lon="-3.49016">
        <ele>15.37</ele>
        <time>2020-07-10T09:50:09Z</time>
      </trkpt>
      <trkpt lat="47.74504" lon="-3.49014">
        <ele>14.48</ele>
        <time>2020-07-10T09:50:10Z</time>
      </trkpt>
      <trkpt lat="47.745" lon="-3.49013">
        <ele>13.8</ele>
        <time>2020-07-10T09:50:11Z</time>
      </trkpt>
      <trkpt lat="47.74497" lon="-3.49014">
        <ele>13.07</ele>
        <time>2020-07-10T09:50:12Z</time>
      </trkpt>
      <trkpt lat="47.74494" lon="-3.49013">
        <ele>12.44</ele>
        <time>2020-07-10T09:50:13Z</time>
      </trkpt>
      <trkpt lat="47.74491" lon="-3.49012">
        <ele>11.86</ele>
        <time>2020-07-10T09:50:14Z</time>
      </trkpt>
      <trkpt lat="47.7449" lon="-3.4901">
        <ele>11.6</ele>
        <time>2020-07-10T09:50:15Z</time>
      </trkpt>
      <trkpt lat="47.74489" lon="-3.49008">
        <ele>11.36</ele>
        <time>2020-07-10T09:50:16Z</time>
      </trkpt>
      <trkpt lat="47.74487" lon="-3.49007">
        <ele>11.07</ele>
        <time>2020-07-10T09:50:17Z</time>
      </trkpt>
      <trkpt lat="47.74486" lon="-3.49005">
        <ele>10.89</ele>
        <time>2020-07-10T09:50:18Z</time>
      </trkpt>
      <trkpt lat="47.74485" lon="-3.49001">
        <ele>10.82</ele>
        <time>2020-07-10T09:50:19Z</time>
      </trkpt>
      <trkpt lat="47.74485" lon="-3.48997">
        <ele>10.85</ele>
        <time>2020-07-10T09:50:20Z</time>
      </trkpt>
      <trkpt lat="47.74483" lon="-3.48993">
        <ele>10.71</ele>
        <time>2020-07-10T09:50:21Z</time>
      </trkpt>
      <trkpt lat="47.74482" lon="-3.4899">
        <ele>10.71</ele>
        <time>2020-07-10T09:50:22Z</time>
      </trkpt>
      <trkpt lat="47.74482" lon="-3.48987">
        <ele>10.8</ele>
        <time>2020-07-10T09:50:23Z</time>
      </trkpt>
      <trkpt lat="47.74482" lon="-3.48984">
        <ele>10.95</ele>
        <time>2020-07-10T09:50:24Z</time>
      </trkpt>
      <trkpt lat="47.74481" lon="-3.48981">
        <ele>11.09</ele>
        <time>2020-07-10T09:50:25Z</time>
      </trkpt>
      <trkpt lat="47.74481" lon="-3.48978">
        <ele>11.22</ele>
        <time>2020-07-10T09:50:26Z</time>
      </trkpt>
      <trkpt lat="47.74481" lon="-3.48974">
        <ele>11.4</ele>
        <time>2020-07-10T09:50:27Z</time>
      </trkpt>
      <trkpt lat="47.74481" lon="-3.4897">
        <ele>11.56</ele>
        <time>2020-07-10T09:50:28Z</time>
      </trkpt>
      <trkpt lat="47.74481" lon="-3.48966">
        <ele>11.74</ele>
        <time>2020-07-10T09:50:29Z</time>
      </trkpt>
      <trkpt lat="47.74481" lon="-3.48962">
        <ele>11.96</ele>
        <time>2020-07-10T09:50:30Z</time>
      </trkpt>
      <trkpt lat="47.74481" lon="-3.48957">
        <ele>12.13</ele>
        <time>2020-07-10T09:50:31Z</time>
      </trkpt>
      <trkpt lat="47.74481" lon="-3.48953">
        <ele>12.33</ele>
        <time>2020-07-10T09:50:32Z</time>
      </trkpt>
      <trkpt lat="47.74481" lon="-3.48949">
        <ele>12.61</ele>
        <time>2020-07-10T09:50:33Z</time>
      </trkpt>
      <trkpt lat="47.74482" lon="-3.48944">
        <ele>12.96</ele>
        <time>2020-07-10T09:50:34Z</time>
      </trkpt>
      <trkpt lat="47.74483" lon="-3.48941">
        <ele>13.31</ele>
        <time>2020-07-10T09:50:35Z</time>
      </trkpt>
      <trkpt lat="47.74483" lon="-3.48937">
        <ele>13.69</ele>
        <time>2020-07-10T09:50:36Z</time>
      </trkpt>
      <trkpt lat="47.74484" lon="-3.48934">
        <ele>13.99</ele>
        <time>2020-07-10T09:50:37Z</time>
      </trkpt>
      <trkpt lat="47.74485" lon="-3.48931">
        <ele>14.35</ele>
        <time>2020-07-10T09:50:38Z</time>
      </trkpt>
      <trkpt lat="47.74486" lon="-3.48929">
        <ele>14.69</ele>
        <time>2020-07-10T09:50:39Z</time>
      </trkpt>
      <trkpt lat="47.74486" lon="-3.48927">
        <ele>14.9</ele>
        <time>2020-07-10T09:50:40Z</time>
      </trkpt>
      <trkpt lat="47.74487" lon="-3.48925">
        <ele>15.11</ele>
        <time>2020-07-10T09:50:41Z</time>
      </trkpt>
      <trkpt lat="47.74488" lon="-3.48923">
        <ele>15.39</ele>
        <time>2020-07-10T09:50:42Z</time>
      </trkpt>
      <trkpt lat="47.74489" lon="-3.4892">
        <ele>15.7</ele>
        <time>2020-07-10T09:50:43Z</time>
      </trkpt>
      <trkpt lat="47.7449" lon="-3.48918">
        <ele>16.02</ele>
        <time>2020-07-10T09:50:44Z</time>
      </trkpt>
      <trkpt lat="47.74491" lon="-3.48915">
        <ele>16.3</ele>
        <time>2020-07-10T09:50:45Z</time>
      </trkpt>
      <trkpt lat="47.74492" lon="-3.48913">
        <ele>16.61</ele>
        <time>2020-07-10T09:50:46Z</time>
      </trkpt>
      <trkpt lat="47.74493" lon="-3.48909">
        <ele>16.87</ele>
        <time>2020-07-10T09:50:47Z</time>
      </trkpt>
      <trkpt lat="47.74494" lon="-3.48905">
        <ele>17.16</ele>
        <time>2020-07-10T09:50:48Z</time>
      </trkpt>
      <trkpt lat="47.74494" lon="-3.48901">
        <ele>17.39</ele>
        <time>2020-07-10T09:50:49Z</time>
      </trkpt>
      <trkpt lat="47.74494" lon="-3.48897">
        <ele>17.58</ele>
        <time>2020-07-10T09:50:50Z</time>
      </trkpt>
      <trkpt lat="47.74494" lon="-3.48892">
        <ele>17.7</ele>
        <time>2020-07-10T09:50:51Z</time>
      </trkpt>
      <trkpt lat="47.74492" lon="-3.48887">
        <ele>17.69</ele>
        <time>2020-07-10T09:50:52Z</time>
      </trkpt>
      <trkpt lat="47.7449" lon="-3.48881">
        <ele>17.51</ele>
        <time>2020-07-10T09:50:53Z</time>
      </trkpt>
      <trkpt lat="47.74488" lon="-3.48878">
        <ele>17.2</ele>
        <time>2020-07-10T09:50:54Z</time>
      </trkpt>
      <trkpt lat="47.74485" lon="-3.48874">
        <ele>16.72</ele>
        <time>2020-07-10T09:50:55Z</time>
      </trkpt>
      <trkpt lat="47.74482" lon="-3.4887">
        <ele>16.17</ele>
        <time>2020-07-10T09:50:56Z</time>
      </trkpt>
      <trkpt lat="47.74478" lon="-3.48865">
        <ele>15.55</ele>
        <time>2020-07-10T09:50:57Z</time>
      </trkpt>
      <trkpt lat="47.74474" lon="-3.48861">
        <ele>14.79</ele>
        <time>2020-07-10T09:50:58Z</time>
      </trkpt>
      <trkpt lat="47.7447" lon="-3.48856">
        <ele>14.15</ele>
        <time>2020-07-10T09:50:59Z</time>
      </trkpt>
      <trkpt lat="47.74466" lon="-3.4885">
        <ele>13.66</ele>
        <time>2020-07-10T09:51:00Z</time>
      </trkpt>
      <trkpt lat="47.74461" lon="-3.48845">
        <ele>13.16</ele>
        <time>2020-07-10T09:51:01Z</time>
      </trkpt>
      <trkpt lat="47.74455" lon="-3.4884">
        <ele>12.58</ele>
        <time>2020-07-10T09:51:02Z</time>
      </trkpt>
      <trkpt lat="47.7445" lon="-3.48837">
        <ele>11.97</ele>
        <time>2020-07-10T09:51:03Z</time>
      </trkpt>
      <trkpt lat="47.74446" lon="-3.48835">
        <ele>11.39</ele>
        <time>2020-07-10T09:51:04Z</time>
      </trkpt>
      <trkpt lat="47.74443" lon="-3.48831">
        <ele>11.04</ele>
        <time>2020-07-10T09:51:05Z</time>
      </trkpt>
      <trkpt lat="47.74442" lon="-3.48827">
        <ele>10.89</ele>
        <time>2020-07-10T09:51:06Z</time>
      </trkpt>
      <trkpt lat="47.74442" lon="-3.48823">
        <ele>10.83</ele>
        <time>2020-07-10T09:51:07Z</time>
      </trkpt>
      <trkpt lat="47.7444" lon="-3.4882">
        <ele>10.7</ele>
        <time>2020-07-10T09:51:08Z</time>
      </trkpt>
      <trkpt lat="47.74436" lon="-3.48819">
        <ele>10.49</ele>
        <time>2020-07-10T09:51:09Z</time>
      </trkpt>
      <trkpt lat="47.74432" lon="-3.48819">
        <ele>10.21</ele>
        <time>2020-07-10T09:51:10Z</time>
      </trkpt>
      <trkpt lat="47.74427" lon="-3.48822">
        <ele>9.88</ele>
        <time>2020-07-10T09:51:11Z</time>
      </trkpt>
      <trkpt lat="47.74422" lon="-3.48823">
        <ele>9.53</ele>
        <time>2020-07-10T09:51:12Z</time>
      </trkpt>
      <trkpt lat="47.74417" lon="-3.48825">
        <ele>9.17</ele>
        <time>2020-07-10T09:51:13Z</time>
      </trkpt>
      <trkpt lat="47.74412" lon="-3.48827">
        <ele>9.29</ele>
        <time>2020-07-10T09:51:14Z</time>
      </trkpt>
      <trkpt lat="47.74407" lon="-3.48829">
        <ele>9.58</ele>
        <time>2020-07-10T09:51:15Z</time>
      </trkpt>
      <trkpt lat="47.74401" lon="-3.48831">
        <ele>9.94</ele>
        <time>2020-07-10T09:51:16Z</time>
      </trkpt>
      <trkpt lat="47.74397" lon="-3.48832">
        <ele>10.29</ele>
        <time>2020-07-10T09:51:17Z</time>
      </trkpt>
      <trkpt lat="47.74392" lon="-3.48835">
        <ele>10.57</ele>
        <time>2020-07-10T09:51:18Z</time>
      </trkpt>
      <trkpt lat="47.74388" lon="-3.48836">
        <ele>10.84</ele>
        <time>2020-07-10T09:51:19Z</time>
      </trkpt>
      <trkpt lat="47.74384" lon="-3.48838">
        <ele>11.24</ele>
        <time>2020-07-10T09:51:20Z</time>
      </trkpt>
      <trkpt lat="47.74381" lon="-3.48839">
        <ele>11.65</ele>
        <time>2020-07-10T09:51:21Z</time>
      </trkpt>
      <trkpt lat="47.74378" lon="-3.48838">
        <ele>12.06</ele>
        <time>2020-07-10T09:51:22Z</time>
      </trkpt>
      <trkpt lat="47.74376" lon="-3.48837">
        <ele>12.47</ele>
        <time>2020-07-10T09:51:23Z</time>
      </trkpt>
      <trkpt lat="47.74375" lon="-3.48833">
        <ele>12.83</ele>
        <time>2020-07-10T09:51:24Z</time>
      </trkpt>
      <trkpt lat="47.74374" lon="-3.48829">
        <ele>13.01</ele>
        <time>2020-07-10T09:51:25Z</time>
      </trkpt>
      <trkpt lat="47.74373" lon="-3.48825">
        <ele>13.19</ele>
        <time>2020-07-10T09:51:26Z</time>
      </trkpt>
      <trkpt lat="47.74371" lon="-3.48824">
        <ele>13.46</ele>
        <time>2020-07-10T09:51:27Z</time>
      </trkpt>
      <trkpt lat="47.74368" lon="-3.48824">
        <ele>13.81</ele>
        <time>2020-07-10T09:51:28Z</time>
      </trkpt>
      <trkpt lat="47.74366" lon="-3.48824">
        <ele>14.18</ele>
        <time>2020-07-10T09:51:29Z</time>
      </trkpt>
      <trkpt lat="47.74363" lon="-3.48825">
        <ele>14.55</ele>
        <time>2020-07-10T09:51:30Z</time>
      </trkpt>
      <trkpt lat="47.74361" lon="-3.48825">
        <ele>14.86</ele>
        <time>2020-07-10T09:51:31Z</time>
      </trkpt>
      <trkpt lat="47.7436" lon="-3.48823">
        <ele>14.9</ele>
        <time>2020-07-10T09:51:32Z</time>
      </trkpt>
      <trkpt lat="47.74358" lon="-3.48822">
        <ele>14.85</ele>
        <time>2020-07-10T09:51:33Z</time>
      </trkpt>
      <trkpt lat="47.74356" lon="-3.48821">
        <ele>14.75</ele>
        <time>2020-07-10T09:51:34Z</time>
      </trkpt>
      <trkpt lat="47.74353" lon="-3.4882">
        <ele>14.63</ele>
        <time>2020-07-10T09:51:35Z</time>
      </trkpt>
      <trkpt lat="47.74351" lon="-3.48819">
        <ele>14.52</ele>
        <time>2020-07-10T09:51:36Z</time>
      </trkpt>
      <trkpt lat="47.74348" lon="-3.48817">
        <ele>14.39</ele>
        <time>2020-07-10T09:51:37Z</time>
      </trkpt>
      <trkpt lat="47.74345" lon="-3.48815">
        <ele>14.29</ele>
        <time>2020-07-10T09:51:38Z</time>
      </trkpt>
      <trkpt lat="47.74344" lon="-3.48812">
        <ele>14.25</ele>
        <time>2020-07-10T09:51:39Z</time>
      </trkpt>
      <trkpt lat="47.74342" lon="-3.48809">
        <ele>14.24</ele>
        <time>2020-07-10T09:51:40Z</time>
      </trkpt>
      <trkpt lat="47.74342" lon="-3.48806">
        <ele>14.28</ele>
        <time>2020-07-10T09:51:41Z</time>
      </trkpt>
      <trkpt lat="47.74342" lon="-3.48803">
        <ele>14.12</ele>
        <time>2020-07-10T09:51:42Z</time>
      </trkpt>
      <trkpt lat="47.74343" lon="-3.48801">
        <ele>13.88</ele>
        <time>2020-07-10T09:51:43Z</time>
      </trkpt>
      <trkpt lat="47.74344" lon="-3.48798">
        <ele>13.61</ele>
        <time>2020-07-10T09:51:44Z</time>
      </trkpt>
      <trkpt lat="47.74344" lon="-3.48795">
        <ele>13.26</ele>
        <time>2020-07-10T09:51:45Z</time>
      </trkpt>
      <trkpt lat="47.74345" lon="-3.48792">
        <ele>12.87</ele>
        <time>2020-07-10T09:51:46Z</time>
      </trkpt>
      <trkpt lat="47.74345" lon="-3.48788">
        <ele>12.44</ele>
        <time>2020-07-10T09:51:47Z</time>
      </trkpt>
      <trkpt lat="47.74346" lon="-3.48784">
        <ele>11.99</ele>
        <time>2020-07-10T09:51:48Z</time>
      </trkpt>
      <trkpt lat="47.74347" lon="-3.4878">
        <ele>11.53</ele>
        <time>2020-07-10T09:51:49Z</time>
      </trkpt>
      <trkpt lat="47.74348" lon="-3.48777">
        <ele>11.01</ele>
        <time>2020-07-10T09:51:50Z</time>
      </trkpt>
      <trkpt lat="47.74349" lon="-3.48773">
        <ele>10.22</ele>
        <time>2020-07-10T09:51:51Z</time>
      </trkpt>
      <trkpt lat="47.74349" lon="-3.48769">
        <ele>9.4</ele>
        <time>2020-07-10T09:51:52Z</time>
      </trkpt>
      <trkpt lat="47.74351" lon="-3.48766">
        <ele>8.69</ele>
        <time>2020-07-10T09:51:53Z</time>
      </trkpt>
      <trkpt lat="47.74354" lon="-3.48765">
        <ele>8.21</ele>
        <time>2020-07-10T09:51:54Z</time>
      </trkpt>
      <trkpt lat="47.74357" lon="-3.48764">
        <ele>8</ele>
        <time>2020-07-10T09:51:55Z</time>
      </trkpt>
      <trkpt lat="47.7436" lon="-3.48764">
        <ele>8.01</ele>
        <time>2020-07-10T09:51:56Z</time>
      </trkpt>
      <trkpt lat="47.74363" lon="-3.48766">
        <ele>8.22</ele>
        <time>2020-07-10T09:51:57Z</time>
      </trkpt>
      <trkpt lat="47.74366" lon="-3.48767">
        <ele>8.37</ele>
        <time>2020-07-10T09:51:58Z</time>
      </trkpt>
      <trkpt lat="47.74369" lon="-3.48768">
        <ele>8.46</ele>
        <time>2020-07-10T09:51:59Z</time>
      </trkpt>
      <trkpt lat="47.74372" lon="-3.48769">
        <ele>8.52</ele>
        <time>2020-07-10T09:52:00Z</time>
      </trkpt>
      <trkpt lat="47.74375" lon="-3.48769">
        <ele>8.51</ele>
        <time>2020-07-10T09:52:01Z</time>
      </trkpt>
      <trkpt lat="47.74379" lon="-3.48769">
        <ele>8.3</ele>
        <time>2020-07-10T09:52:02Z</time>
      </trkpt>
      <trkpt lat="47.74385" lon="-3.48766">
        <ele>7.69</ele>
        <time>2020-07-10T09:52:03Z</time>
      </trkpt>
      <trkpt lat="47.7439" lon="-3.48762">
        <ele>6.99</ele>
        <time>2020-07-10T09:52:04Z</time>
      </trkpt>
      <trkpt lat="47.74395" lon="-3.48758">
        <ele>6.38</ele>
        <time>2020-07-10T09:52:05Z</time>
      </trkpt>
      <trkpt lat="47.74401" lon="-3.48755">
        <ele>5.86</ele>
        <time>2020-07-10T09:52:06Z</time>
      </trkpt>
      <trkpt lat="47.74406" lon="-3.48752">
        <ele>5.42</ele>
        <time>2020-07-10T09:52:07Z</time>
      </trkpt>
      <trkpt lat="47.74412" lon="-3.4875">
        <ele>5.12</ele>
        <time>2020-07-10T09:52:08Z</time>
      </trkpt>
      <trkpt lat="47.74417" lon="-3.48748">
        <ele>4.98</ele>
        <time>2020-07-10T09:52:09Z</time>
      </trkpt>
      <trkpt lat="47.74421" lon="-3.48747">
        <ele>5.09</ele>
        <time>2020-07-10T09:52:10Z</time>
      </trkpt>
      <trkpt lat="47.74425" lon="-3.48746">
        <ele>5.27</ele>
        <time>2020-07-10T09:52:11Z</time>
      </trkpt>
      <trkpt lat="47.74429" lon="-3.48744">
        <ele>5.42</ele>
        <time>2020-07-10T09:52:12Z</time>
      </trkpt>
      <trkpt lat="47.74432" lon="-3.48743">
        <ele>5.54</ele>
        <time>2020-07-10T09:52:13Z</time>
      </trkpt>
      <trkpt lat="47.74436" lon="-3.48742">
        <ele>5.64</ele>
        <time>2020-07-10T09:52:14Z</time>
      </trkpt>
      <trkpt lat="47.7444" lon="-3.4874">
        <ele>5.69</ele>
        <time>2020-07-10T09:52:15Z</time>
      </trkpt>
      <trkpt lat="47.74444" lon="-3.48739">
        <ele>5.72</ele>
        <time>2020-07-10T09:52:16Z</time>
      </trkpt>
      <trkpt lat="47.74447" lon="-3.48737">
        <ele>5.69</ele>
        <time>2020-07-10T09:52:17Z</time>
      </trkpt>
      <trkpt lat="47.74451" lon="-3.48735">
        <ele>5.66</ele>
        <time>2020-07-10T09:52:18Z</time>
      </trkpt>
      <trkpt lat="47.74454" lon="-3.48733">
        <ele>5.59</ele>
        <time>2020-07-10T09:52:19Z</time>
      </trkpt>
      <trkpt lat="47.74458" lon="-3.48731">
        <ele>5.51</ele>
        <time>2020-07-10T09:52:20Z</time>
      </trkpt>
      <trkpt lat="47.74461" lon="-3.48728">
        <ele>5.34</ele>
        <time>2020-07-10T09:52:21Z</time>
      </trkpt>
      <trkpt lat="47.74465" lon="-3.48725">
        <ele>5.16</ele>
        <time>2020-07-10T09:52:22Z</time>
      </trkpt>
      <trkpt lat="47.74469" lon="-3.48723">
        <ele>5.02</ele>
        <time>2020-07-10T09:52:23Z</time>
      </trkpt>
      <trkpt lat="47.74473" lon="-3.4872">
        <ele>4.97</ele>
        <time>2020-07-10T09:52:24Z</time>
      </trkpt>
      <trkpt lat="47.74478" lon="-3.48719">
        <ele>5.02</ele>
        <time>2020-07-10T09:52:25Z</time>
      </trkpt>
      <trkpt lat="47.74482" lon="-3.48717">
        <ele>5.08</ele>
        <time>2020-07-10T09:52:26Z</time>
      </trkpt>
      <trkpt lat="47.74486" lon="-3.48715">
        <ele>5.08</ele>
        <time>2020-07-10T09:52:27Z</time>
      </trkpt>
      <trkpt lat="47.7449" lon="-3.48713">
        <ele>5.07</ele>
        <time>2020-07-10T09:52:28Z</time>
      </trkpt>
      <trkpt lat="47.74493" lon="-3.4871">
        <ele>5.02</ele>
        <time>2020-07-10T09:52:29Z</time>
      </trkpt>
      <trkpt lat="47.74496" lon="-3.48709">
        <ele>4.98</ele>
        <time>2020-07-10T09:52:30Z</time>
      </trkpt>
      <trkpt lat="47.745" lon="-3.48707">
        <ele>4.91</ele>
        <time>2020-07-10T09:52:31Z</time>
      </trkpt>
      <trkpt lat="47.74503" lon="-3.48705">
        <ele>4.93</ele>
        <time>2020-07-10T09:52:32Z</time>
      </trkpt>
      <trkpt lat="47.74506" lon="-3.48704">
        <ele>4.95</ele>
        <time>2020-07-10T09:52:33Z</time>
      </trkpt>
      <trkpt lat="47.74509" lon="-3.48703">
        <ele>4.99</ele>
        <time>2020-07-10T09:52:34Z</time>
      </trkpt>
      <trkpt lat="47.74511" lon="-3.48702">
        <ele>5.01</ele>
        <time>2020-07-10T09:52:35Z</time>
      </trkpt>
      <trkpt lat="47.74514" lon="-3.487">
        <ele>5.01</ele>
        <time>2020-07-10T09:52:36Z</time>
      </trkpt>
      <trkpt lat="47.74516" lon="-3.48699">
        <ele>4.99</ele>
        <time>2020-07-10T09:52:37Z</time>
      </trkpt>
      <trkpt lat="47.74519" lon="-3.48697">
        <ele>4.96</ele>
        <time>2020-07-10T09:52:38Z</time>
      </trkpt>
      <trkpt lat="47.74521" lon="-3.48696">
        <ele>4.93</ele>
        <time>2020-07-10T09:52:39Z</time>
      </trkpt>
      <trkpt lat="47.74523" lon="-3.48695">
        <ele>4.88</ele>
        <time>2020-07-10T09:52:40Z</time>
      </trkpt>
      <trkpt lat="47.74525" lon="-3.48693">
        <ele>4.86</ele>
        <time>2020-07-10T09:52:41Z</time>
      </trkpt>
      <trkpt lat="47.74527" lon="-3.48692">
        <ele>4.87</ele>
        <time>2020-07-10T09:52:42Z</time>
      </trkpt>
      <trkpt lat="47.74529" lon="-3.48691">
        <ele>4.93</ele>
        <time>2020-07-10T09:52:43Z</time>
      </trkpt>
      <trkpt lat="47.7453" lon="-3.4869">
        <ele>5</ele>
        <time>2020-07-10T09:52:44Z</time>
      </trkpt>
      <trkpt lat="47.7453" lon="-3.4869">
        <ele>5.07</ele>
        <time>2020-07-10T09:52:45Z</time>
      </trkpt>
      <trkpt lat="47.7453" lon="-3.48691">
        <ele>5.12</ele>
        <time>2020-07-10T09:52:46Z</time>
      </trkpt>
      <trkpt lat="47.74531" lon="-3.48691">
        <ele>5.19</ele>
        <time>2020-07-10T09:52:47Z</time>
      </trkpt>
      <trkpt lat="47.74531" lon="-3.48691">
        <ele>5.21</ele>
        <time>2020-07-10T09:52:48Z</time>
      </trkpt>
      <trkpt lat="47.74532" lon="-3.48695">
        <ele>5.41</ele>
        <time>2020-07-10T09:52:49Z</time>
      </trkpt>
      <trkpt lat="47.74533" lon="-3.48696">
        <ele>5.63</ele>
        <time>2020-07-10T09:52:50Z</time>
      </trkpt>
      <trkpt lat="47.74533" lon="-3.48698">
        <ele>5.82</ele>
        <time>2020-07-10T09:52:51Z</time>
      </trkpt>
      <trkpt lat="47.74533" lon="-3.48699">
        <ele>5.97</ele>
        <time>2020-07-10T09:52:52Z</time>
      </trkpt>
      <trkpt lat="47.74533" lon="-3.487">
        <ele>6.17</ele>
        <time>2020-07-10T09:52:53Z</time>
      </trkpt>
      <trkpt lat="47.74534" lon="-3.48702">
        <ele>6.41</ele>
        <time>2020-07-10T09:52:54Z</time>
      </trkpt>
      <trkpt lat="47.74534" lon="-3.48703">
        <ele>6.59</ele>
        <time>2020-07-10T09:52:55Z</time>
      </trkpt>
      <trkpt lat="47.74534" lon="-3.48704">
        <ele>6.71</ele>
        <time>2020-07-10T09:52:56Z</time>
      </trkpt>
      <trkpt lat="47.74535" lon="-3.48706">
        <ele>6.98</ele>
        <time>2020-07-10T09:52:57Z</time>
      </trkpt>
      <trkpt lat="47.74535" lon="-3.48708">
        <ele>7.3</ele>
        <time>2020-07-10T09:52:58Z</time>
      </trkpt>
      <trkpt lat="47.74536" lon="-3.4871">
        <ele>7.57</ele>
        <time>2020-07-10T09:52:59Z</time>
      </trkpt>
      <trkpt lat="47.74536" lon="-3.48711">
        <ele>7.84</ele>
        <time>2020-07-10T09:53:00Z</time>
      </trkpt>
      <trkpt lat="47.74537" lon="-3.48713">
        <ele>8.12</ele>
        <time>2020-07-10T09:53:01Z</time>
      </trkpt>
      <trkpt lat="47.74538" lon="-3.48714">
        <ele>8.37</ele>
        <time>2020-07-10T09:53:02Z</time>
      </trkpt>
      <trkpt lat="47.74538" lon="-3.48716">
        <ele>8.66</ele>
        <time>2020-07-10T09:53:03Z</time>
      </trkpt>
      <trkpt lat="47.74539" lon="-3.48719">
        <ele>9</ele>
        <time>2020-07-10T09:53:04Z</time>
      </trkpt>
      <trkpt lat="47.7454" lon="-3.48721">
        <ele>9.42</ele>
        <time>2020-07-10T09:53:05Z</time>
      </trkpt>
      <trkpt lat="47.74541" lon="-3.48723">
        <ele>9.78</ele>
        <time>2020-07-10T09:53:06Z</time>
      </trkpt>
      <trkpt lat="47.74542" lon="-3.48724">
        <ele>10.15</ele>
        <time>2020-07-10T09:53:07Z</time>
      </trkpt>
      <trkpt lat="47.74542" lon="-3.48726">
        <ele>10.52</ele>
        <time>2020-07-10T09:53:08Z</time>
      </trkpt>
      <trkpt lat="47.74543" lon="-3.48727">
        <ele>10.9</ele>
        <time>2020-07-10T09:53:09Z</time>
      </trkpt>
      <trkpt lat="47.74543" lon="-3.48729">
        <ele>11.23</ele>
        <time>2020-07-10T09:53:10Z</time>
      </trkpt>
      <trkpt lat="47.74544" lon="-3.4873">
        <ele>11.49</ele>
        <time>2020-07-10T09:53:11Z</time>
      </trkpt>
      <trkpt lat="47.74544" lon="-3.48732">
        <ele>11.74</ele>
        <time>2020-07-10T09:53:12Z</time>
      </trkpt>
      <trkpt lat="47.74544" lon="-3.48734">
        <ele>12.07</ele>
        <time>2020-07-10T09:53:13Z</time>
      </trkpt>
      <trkpt lat="47.74544" lon="-3.48736">
        <ele>12.4</ele>
        <time>2020-07-10T09:53:14Z</time>
      </trkpt>
      <trkpt lat="47.74544" lon="-3.48738">
        <ele>12.74</ele>
        <time>2020-07-10T09:53:15Z</time>
      </trkpt>
      <trkpt lat="47.74545" lon="-3.4874">
        <ele>13.13</ele>
        <time>2020-07-10T09:53:16Z</time>
      </trkpt>
      <trkpt lat="47.74544" lon="-3.48743">
        <ele>13.48</ele>
        <time>2020-07-10T09:53:17Z</time>
      </trkpt>
      <trkpt lat="47.74544" lon="-3.48745">
        <ele>13.84</ele>
        <time>2020-07-10T09:53:18Z</time>
      </trkpt>
      <trkpt lat="47.74545" lon="-3.48747">
        <ele>14.19</ele>
        <time>2020-07-10T09:53:19Z</time>
      </trkpt>
      <trkpt lat="47.74546" lon="-3.48748">
        <ele>14.54</ele>
        <time>2020-07-10T09:53:20Z</time>
      </trkpt>
      <trkpt lat="47.74546" lon="-3.4875">
        <ele>14.86</ele>
        <time>2020-07-10T09:53:21Z</time>
      </trkpt>
      <trkpt lat="47.74547" lon="-3.48752">
        <ele>15.26</ele>
        <time>2020-07-10T09:53:22Z</time>
      </trkpt>
      <trkpt lat="47.74548" lon="-3.48754">
        <ele>15.64</ele>
        <time>2020-07-10T09:53:23Z</time>
      </trkpt>
      <trkpt lat="47.74549" lon="-3.48757">
        <ele>16.07</ele>
        <time>2020-07-10T09:53:24Z</time>
      </trkpt>
      <trkpt lat="47.74549" lon="-3.48759">
        <ele>16.44</ele>
        <time>2020-07-10T09:53:25Z</time>
      </trkpt>
      <trkpt lat="47.74549" lon="-3.48761">
        <ele>16.81</ele>
        <time>2020-07-10T09:53:26Z</time>
      </trkpt>
      <trkpt lat="47.7455" lon="-3.48763">
        <ele>17.21</ele>
        <time>2020-07-10T09:53:27Z</time>
      </trkpt>
      <trkpt lat="47.74551" lon="-3.48765">
        <ele>17.57</ele>
        <time>2020-07-10T09:53:28Z</time>
      </trkpt>
      <trkpt lat="47.74551" lon="-3.48767">
        <ele>17.93</ele>
        <time>2020-07-10T09:53:29Z</time>
      </trkpt>
      <trkpt lat="47.74552" lon="-3.48769">
        <ele>18.28</ele>
        <time>2020-07-10T09:53:30Z</time>
      </trkpt>
      <trkpt lat="47.74552" lon="-3.48771">
        <ele>18.6</ele>
        <time>2020-07-10T09:53:31Z</time>
      </trkpt>
      <trkpt lat="47.74552" lon="-3.48772">
        <ele>18.83</ele>
        <time>2020-07-10T09:53:32Z</time>
      </trkpt>
      <trkpt lat="47.74553" lon="-3.48774">
        <ele>19.1</ele>
        <time>2020-07-10T09:53:33Z</time>
      </trkpt>
      <trkpt lat="47.74553" lon="-3.48775">
        <ele>19.36</ele>
        <time>2020-07-10T09:53:34Z</time>
      </trkpt>
      <trkpt lat="47.74555" lon="-3.48776">
        <ele>19.62</ele>
        <time>2020-07-10T09:53:35Z</time>
      </trkpt>
      <trkpt lat="47.74556" lon="-3.48777">
        <ele>19.82</ele>
        <time>2020-07-10T09:53:36Z</time>
      </trkpt>
      <trkpt lat="47.74558" lon="-3.48776">
        <ele>19.88</ele>
        <time>2020-07-10T09:53:37Z</time>
      </trkpt>
      <trkpt lat="47.7456" lon="-3.48775">
        <ele>19.9</ele>
        <time>2020-07-10T09:53:38Z</time>
      </trkpt>
      <trkpt lat="47.74562" lon="-3.48775">
        <ele>19.94</ele>
        <time>2020-07-10T09:53:39Z</time>
      </trkpt>
      <trkpt lat="47.74564" lon="-3.48775">
        <ele>20.12</ele>
        <time>2020-07-10T09:53:40Z</time>
      </trkpt>
      <trkpt lat="47.74566" lon="-3.48776">
        <ele>20.33</ele>
        <time>2020-07-10T09:53:41Z</time>
      </trkpt>
      <trkpt lat="47.74569" lon="-3.48776">
        <ele>20.5</ele>
        <time>2020-07-10T09:53:42Z</time>
      </trkpt>
      <trkpt lat="47.74571" lon="-3.48776">
        <ele>20.69</ele>
        <time>2020-07-10T09:53:43Z</time>
      </trkpt>
      <trkpt lat="47.74573" lon="-3.48775">
        <ele>20.82</ele>
        <time>2020-07-10T09:53:44Z</time>
      </trkpt>
      <trkpt lat="47.74576" lon="-3.48775">
        <ele>20.93</ele>
        <time>2020-07-10T09:53:45Z</time>
      </trkpt>
      <trkpt lat="47.74578" lon="-3.48775">
        <ele>21</ele>
        <time>2020-07-10T09:53:46Z</time>
      </trkpt>
      <trkpt lat="47.7458" lon="-3.48775">
        <ele>21.16</ele>
        <time>2020-07-10T09:53:47Z</time>
      </trkpt>
      <trkpt lat="47.74582" lon="-3.48775">
        <ele>21.32</ele>
        <time>2020-07-10T09:53:48Z</time>
      </trkpt>
      <trkpt lat="47.74585" lon="-3.48775">
        <ele>21.52</ele>
        <time>2020-07-10T09:53:49Z</time>
      </trkpt>
      <trkpt lat="47.74588" lon="-3.48775">
        <ele>21.69</ele>
        <time>2020-07-10T09:53:50Z</time>
      </trkpt>
      <trkpt lat="47.7459" lon="-3.48775">
        <ele>21.92</ele>
        <time>2020-07-10T09:53:51Z</time>
      </trkpt>
      <trkpt lat="47.74593" lon="-3.48775">
        <ele>22.16</ele>
        <time>2020-07-10T09:53:52Z</time>
      </trkpt>
      <trkpt lat="47.74595" lon="-3.48775">
        <ele>22.37</ele>
        <time>2020-07-10T09:53:53Z</time>
      </trkpt>
      <trkpt lat="47.74598" lon="-3.48776">
        <ele>22.67</ele>
        <time>2020-07-10T09:53:54Z</time>
      </trkpt>
      <trkpt lat="47.74601" lon="-3.48776">
        <ele>22.83</ele>
        <time>2020-07-10T09:53:55Z</time>
      </trkpt>
      <trkpt lat="47.74604" lon="-3.48776">
        <ele>23.12</ele>
        <time>2020-07-10T09:53:56Z</time>
      </trkpt>
      <trkpt lat="47.74606" lon="-3.48777">
        <ele>23.41</ele>
        <time>2020-07-10T09:53:57Z</time>
      </trkpt>
      <trkpt lat="47.74609" lon="-3.48778">
        <ele>23.71</ele>
        <time>2020-07-10T09:53:58Z</time>
      </trkpt>
      <trkpt lat="47.74612" lon="-3.48778">
        <ele>23.96</ele>
        <time>2020-07-10T09:53:59Z</time>
      </trkpt>
      <trkpt lat="47.74614" lon="-3.48778">
        <ele>24.1</ele>
        <time>2020-07-10T09:54:00Z</time>
      </trkpt>
      <trkpt lat="47.74617" lon="-3.48778">
        <ele>24.21</ele>
        <time>2020-07-10T09:54:01Z</time>
      </trkpt>
      <trkpt lat="47.74619" lon="-3.48779">
        <ele>24.41</ele>
        <time>2020-07-10T09:54:02Z</time>
      </trkpt>
      <trkpt lat="47.74621" lon="-3.4878">
        <ele>24.66</ele>
        <time>2020-07-10T09:54:03Z</time>
      </trkpt>
      <trkpt lat="47.74623" lon="-3.48782">
        <ele>24.94</ele>
        <time>2020-07-10T09:54:04Z</time>
      </trkpt>
      <trkpt lat="47.74625" lon="-3.48784">
        <ele>25.26</ele>
        <time>2020-07-10T09:54:05Z</time>
      </trkpt>
      <trkpt lat="47.74627" lon="-3.48786">
        <ele>25.58</ele>
        <time>2020-07-10T09:54:06Z</time>
      </trkpt>
      <trkpt lat="47.74629" lon="-3.48788">
        <ele>25.89</ele>
        <time>2020-07-10T09:54:07Z</time>
      </trkpt>
      <trkpt lat="47.7463" lon="-3.4879">
        <ele>26.17</ele>
        <time>2020-07-10T09:54:08Z</time>
      </trkpt>
      <trkpt lat="47.74631" lon="-3.48792">
        <ele>26.38</ele>
        <time>2020-07-10T09:54:09Z</time>
      </trkpt>
      <trkpt lat="47.74633" lon="-3.48793">
        <ele>26.55</ele>
        <time>2020-07-10T09:54:10Z</time>
      </trkpt>
      <trkpt lat="47.74635" lon="-3.48794">
        <ele>26.7</ele>
        <time>2020-07-10T09:54:11Z</time>
      </trkpt>
      <trkpt lat="47.74636" lon="-3.48795">
        <ele>26.84</ele>
        <time>2020-07-10T09:54:12Z</time>
      </trkpt>
      <trkpt lat="47.74637" lon="-3.48796">
        <ele>26.97</ele>
        <time>2020-07-10T09:54:13Z</time>
      </trkpt>
      <trkpt lat="47.74639" lon="-3.48797">
        <ele>27.06</ele>
        <time>2020-07-10T09:54:14Z</time>
      </trkpt>
      <trkpt lat="47.74641" lon="-3.48798">
        <ele>27.09</ele>
        <time>2020-07-10T09:54:15Z</time>
      </trkpt>
      <trkpt lat="47.74644" lon="-3.48798">
        <ele>27.05</ele>
        <time>2020-07-10T09:54:16Z</time>
      </trkpt>
      <trkpt lat="47.74647" lon="-3.48798">
        <ele>27.01</ele>
        <time>2020-07-10T09:54:17Z</time>
      </trkpt>
      <trkpt lat="47.7465" lon="-3.48799">
        <ele>27</ele>
        <time>2020-07-10T09:54:18Z</time>
      </trkpt>
      <trkpt lat="47.74653" lon="-3.488">
        <ele>26.99</ele>
        <time>2020-07-10T09:54:19Z</time>
      </trkpt>
      <trkpt lat="47.74656" lon="-3.48801">
        <ele>26.99</ele>
        <time>2020-07-10T09:54:20Z</time>
      </trkpt>
      <trkpt lat="47.7466" lon="-3.48802">
        <ele>26.99</ele>
        <time>2020-07-10T09:54:21Z</time>
      </trkpt>
      <trkpt lat="47.74663" lon="-3.48804">
        <ele>26.99</ele>
        <time>2020-07-10T09:54:22Z</time>
      </trkpt>
      <trkpt lat="47.74667" lon="-3.48807">
        <ele>27.03</ele>
        <time>2020-07-10T09:54:23Z</time>
      </trkpt>
      <trkpt lat="47.74669" lon="-3.48812">
        <ele>27.11</ele>
        <time>2020-07-10T09:54:24Z</time>
      </trkpt>
      <trkpt lat="47.74671" lon="-3.48818">
        <ele>27.25</ele>
        <time>2020-07-10T09:54:25Z</time>
      </trkpt>
      <trkpt lat="47.74671" lon="-3.48824">
        <ele>27.41</ele>
        <time>2020-07-10T09:54:26Z</time>
      </trkpt>
      <trkpt lat="47.74672" lon="-3.48829">
        <ele>27.57</ele>
        <time>2020-07-10T09:54:27Z</time>
      </trkpt>
      <trkpt lat="47.74673" lon="-3.48834">
        <ele>27.74</ele>
        <time>2020-07-10T09:54:28Z</time>
      </trkpt>
      <trkpt lat="47.74673" lon="-3.48839">
        <ele>27.91</ele>
        <time>2020-07-10T09:54:29Z</time>
      </trkpt>
      <trkpt lat="47.74674" lon="-3.48844">
        <ele>28.07</ele>
        <time>2020-07-10T09:54:30Z</time>
      </trkpt>
      <trkpt lat="47.74674" lon="-3.48849">
        <ele>28.22</ele>
        <time>2020-07-10T09:54:31Z</time>
      </trkpt>
      <trkpt lat="47.74675" lon="-3.48854">
        <ele>28.36</ele>
        <time>2020-07-10T09:54:32Z</time>
      </trkpt>
      <trkpt lat="47.74677" lon="-3.48858">
        <ele>28.49</ele>
        <time>2020-07-10T09:54:33Z</time>
      </trkpt>
      <trkpt lat="47.74678" lon="-3.48863">
        <ele>28.53</ele>
        <time>2020-07-10T09:54:34Z</time>
      </trkpt>
      <trkpt lat="47.74679" lon="-3.48869">
        <ele>28.43</ele>
        <time>2020-07-10T09:54:35Z</time>
      </trkpt>
      <trkpt lat="47.74681" lon="-3.48875">
        <ele>28.3</ele>
        <time>2020-07-10T09:54:36Z</time>
      </trkpt>
      <trkpt lat="47.74682" lon="-3.48882">
        <ele>28.17</ele>
        <time>2020-07-10T09:54:37Z</time>
      </trkpt>
      <trkpt lat="47.74684" lon="-3.48888">
        <ele>28.06</ele>
        <time>2020-07-10T09:54:38Z</time>
      </trkpt>
      <trkpt lat="47.74687" lon="-3.48894">
        <ele>28.02</ele>
        <time>2020-07-10T09:54:39Z</time>
      </trkpt>
      <trkpt lat="47.74688" lon="-3.489">
        <ele>28.01</ele>
        <time>2020-07-10T09:54:40Z</time>
      </trkpt>
      <trkpt lat="47.74689" lon="-3.48907">
        <ele>28</ele>
        <time>2020-07-10T09:54:41Z</time>
      </trkpt>
      <trkpt lat="47.74691" lon="-3.48914">
        <ele>28</ele>
        <time>2020-07-10T09:54:42Z</time>
      </trkpt>
      <trkpt lat="47.74692" lon="-3.4892">
        <ele>27.91</ele>
        <time>2020-07-10T09:54:43Z</time>
      </trkpt>
      <trkpt lat="47.74694" lon="-3.48927">
        <ele>27.73</ele>
        <time>2020-07-10T09:54:44Z</time>
      </trkpt>
      <trkpt lat="47.74697" lon="-3.48933">
        <ele>27.54</ele>
        <time>2020-07-10T09:54:45Z</time>
      </trkpt>
      <trkpt lat="47.74699" lon="-3.48938">
        <ele>27.4</ele>
        <time>2020-07-10T09:54:46Z</time>
      </trkpt>
      <trkpt lat="47.74701" lon="-3.48943">
        <ele>27.32</ele>
        <time>2020-07-10T09:54:47Z</time>
      </trkpt>
      <trkpt lat="47.74705" lon="-3.48946">
        <ele>27.36</ele>
        <time>2020-07-10T09:54:48Z</time>
      </trkpt>
      <trkpt lat="47.74709" lon="-3.48947">
        <ele>27.47</ele>
        <time>2020-07-10T09:54:49Z</time>
      </trkpt>
      <trkpt lat="47.74713" lon="-3.48947">
        <ele>27.6</ele>
        <time>2020-07-10T09:54:50Z</time>
      </trkpt>
      <trkpt lat="47.74716" lon="-3.48946">
        <ele>27.73</ele>
        <time>2020-07-10T09:54:51Z</time>
      </trkpt>
      <trkpt lat="47.7472" lon="-3.48945">
        <ele>27.86</ele>
        <time>2020-07-10T09:54:52Z</time>
      </trkpt>
      <trkpt lat="47.74723" lon="-3.48943">
        <ele>27.99</ele>
        <time>2020-07-10T09:54:53Z</time>
      </trkpt>
      <trkpt lat="47.74727" lon="-3.48942">
        <ele>28.12</ele>
        <time>2020-07-10T09:54:54Z</time>
      </trkpt>
      <trkpt lat="47.74731" lon="-3.48941">
        <ele>28.26</ele>
        <time>2020-07-10T09:54:55Z</time>
      </trkpt>
      <trkpt lat="47.74735" lon="-3.48939">
        <ele>28.4</ele>
        <time>2020-07-10T09:54:56Z</time>
      </trkpt>
      <trkpt lat="47.74739" lon="-3.48938">
        <ele>28.55</ele>
        <time>2020-07-10T09:54:57Z</time>
      </trkpt>
      <trkpt lat="47.74744" lon="-3.48937">
        <ele>28.71</ele>
        <time>2020-07-10T09:54:58Z</time>
      </trkpt>
      <trkpt lat="47.74748" lon="-3.48935">
        <ele>28.87</ele>
        <time>2020-07-10T09:54:59Z</time>
      </trkpt>
      <trkpt lat="47.74752" lon="-3.48934">
        <ele>29</ele>
        <time>2020-07-10T09:55:00Z</time>
      </trkpt>
      <trkpt lat="47.74757" lon="-3.48934">
        <ele>29.1</ele>
        <time>2020-07-10T09:55:01Z</time>
      </trkpt>
      <trkpt lat="47.74761" lon="-3.48933">
        <ele>29.19</ele>
        <time>2020-07-10T09:55:02Z</time>
      </trkpt>
      <trkpt lat="47.74765" lon="-3.48931">
        <ele>29.27</ele>
        <time>2020-07-10T09:55:03Z</time>
      </trkpt>
      <trkpt lat="47.7477" lon="-3.4893">
        <ele>29.33</ele>
        <time>2020-07-10T09:55:04Z</time>
      </trkpt>
      <trkpt lat="47.74775" lon="-3.48929">
        <ele>29.38</ele>
        <time>2020-07-10T09:55:05Z</time>
      </trkpt>
      <trkpt lat="47.74779" lon="-3.48928">
        <ele>29.4</ele>
        <time>2020-07-10T09:55:06Z</time>
      </trkpt>
      <trkpt lat="47.74783" lon="-3.48927">
        <ele>29.34</ele>
        <time>2020-07-10T09:55:07Z</time>
      </trkpt>
      <trkpt lat="47.74788" lon="-3.48927">
        <ele>29.26</ele>
        <time>2020-07-10T09:55:08Z</time>
      </trkpt>
      <trkpt lat="47.74792" lon="-3.48926">
        <ele>29.19</ele>
        <time>2020-07-10T09:55:09Z</time>
      </trkpt>
      <trkpt lat="47.74797" lon="-3.48925">
        <ele>29.12</ele>
        <time>2020-07-10T09:55:10Z</time>
      </trkpt>
      <trkpt lat="47.74802" lon="-3.48924">
        <ele>29.06</ele>
        <time>2020-07-10T09:55:11Z</time>
      </trkpt>
      <trkpt lat="47.74807" lon="-3.48923">
        <ele>28.97</ele>
        <time>2020-07-10T09:55:12Z</time>
      </trkpt>
      <trkpt lat="47.74812" lon="-3.48922">
        <ele>28.8</ele>
        <time>2020-07-10T09:55:13Z</time>
      </trkpt>
      <trkpt lat="47.74817" lon="-3.48921">
        <ele>28.61</ele>
        <time>2020-07-10T09:55:14Z</time>
      </trkpt>
      <trkpt lat="47.74822" lon="-3.4892">
        <ele>28.43</ele>
        <time>2020-07-10T09:55:15Z</time>
      </trkpt>
      <trkpt lat="47.74827" lon="-3.48919">
        <ele>28.25</ele>
        <time>2020-07-10T09:55:16Z</time>
      </trkpt>
      <trkpt lat="47.74832" lon="-3.48917">
        <ele>28.09</ele>
        <time>2020-07-10T09:55:17Z</time>
      </trkpt>
      <trkpt lat="47.74838" lon="-3.48916">
        <ele>27.89</ele>
        <time>2020-07-10T09:55:18Z</time>
      </trkpt>
      <trkpt lat="47.74843" lon="-3.48915">
        <ele>27.69</ele>
        <time>2020-07-10T09:55:19Z</time>
      </trkpt>
      <trkpt lat="47.74849" lon="-3.48914">
        <ele>27.48</ele>
        <time>2020-07-10T09:55:20Z</time>
      </trkpt>
      <trkpt lat="47.74854" lon="-3.48913">
        <ele>27.3</ele>
        <time>2020-07-10T09:55:21Z</time>
      </trkpt>
      <trkpt lat="47.74859" lon="-3.48912">
        <ele>27.14</ele>
        <time>2020-07-10T09:55:22Z</time>
      </trkpt>
      <trkpt lat="47.74864" lon="-3.4891">
        <ele>27.04</ele>
        <time>2020-07-10T09:55:23Z</time>
      </trkpt>
      <trkpt lat="47.74868" lon="-3.48908">
        <ele>27.01</ele>
        <time>2020-07-10T09:55:24Z</time>
      </trkpt>
      <trkpt lat="47.74873" lon="-3.48907">
        <ele>27</ele>
        <time>2020-07-10T09:55:25Z</time>
      </trkpt>
      <trkpt lat="47.74878" lon="-3.48906">
        <ele>27</ele>
        <time>2020-07-10T09:55:26Z</time>
      </trkpt>
      <trkpt lat="47.74883" lon="-3.48904">
        <ele>27</ele>
        <time>2020-07-10T09:55:27Z</time>
      </trkpt>
      <trkpt lat="47.74888" lon="-3.48904">
        <ele>27</ele>
        <time>2020-07-10T09:55:28Z</time>
      </trkpt>
      <trkpt lat="47.74893" lon="-3.48903">
        <ele>27</ele>
        <time>2020-07-10T09:55:29Z</time>
      </trkpt>
      <trkpt lat="47.74897" lon="-3.48903">
        <ele>27</ele>
        <time>2020-07-10T09:55:30Z</time>
      </trkpt>
      <trkpt lat="47.74902" lon="-3.48905">
        <ele>27</ele>
        <time>2020-07-10T09:55:31Z</time>
      </trkpt>
      <trkpt lat="47.74906" lon="-3.48908">
        <ele>27</ele>
        <time>2020-07-10T09:55:32Z</time>
      </trkpt>
      <trkpt lat="47.74911" lon="-3.48911">
        <ele>27</ele>
        <time>2020-07-10T09:55:33Z</time>
      </trkpt>
      <trkpt lat="47.74915" lon="-3.48915">
        <ele>27</ele>
        <time>2020-07-10T09:55:34Z</time>
      </trkpt>
      <trkpt lat="47.74919" lon="-3.48917">
        <ele>27.11</ele>
        <time>2020-07-10T09:55:35Z</time>
      </trkpt>
      <trkpt lat="47.74924" lon="-3.4892">
        <ele>27.3</ele>
        <time>2020-07-10T09:55:36Z</time>
      </trkpt>
      <trkpt lat="47.74928" lon="-3.48923">
        <ele>27.5</ele>
        <time>2020-07-10T09:55:37Z</time>
      </trkpt>
      <trkpt lat="47.74933" lon="-3.48926">
        <ele>27.73</ele>
        <time>2020-07-10T09:55:38Z</time>
      </trkpt>
      <trkpt lat="47.74937" lon="-3.48929">
        <ele>27.95</ele>
        <time>2020-07-10T09:55:39Z</time>
      </trkpt>
      <trkpt lat="47.74942" lon="-3.48932">
        <ele>28.17</ele>
        <time>2020-07-10T09:55:40Z</time>
      </trkpt>
      <trkpt lat="47.74946" lon="-3.48935">
        <ele>28.38</ele>
        <time>2020-07-10T09:55:41Z</time>
      </trkpt>
      <trkpt lat="47.7495" lon="-3.48937">
        <ele>28.57</ele>
        <time>2020-07-10T09:55:42Z</time>
      </trkpt>
      <trkpt lat="47.74954" lon="-3.4894">
        <ele>28.76</ele>
        <time>2020-07-10T09:55:43Z</time>
      </trkpt>
      <trkpt lat="47.74959" lon="-3.48943">
        <ele>28.99</ele>
        <time>2020-07-10T09:55:44Z</time>
      </trkpt>
      <trkpt lat="47.74963" lon="-3.48945">
        <ele>29.2</ele>
        <time>2020-07-10T09:55:45Z</time>
      </trkpt>
      <trkpt lat="47.74966" lon="-3.48948">
        <ele>29.39</ele>
        <time>2020-07-10T09:55:46Z</time>
      </trkpt>
      <trkpt lat="47.7497" lon="-3.4895">
        <ele>29.57</ele>
        <time>2020-07-10T09:55:47Z</time>
      </trkpt>
      <trkpt lat="47.74974" lon="-3.48953">
        <ele>29.77</ele>
        <time>2020-07-10T09:55:48Z</time>
      </trkpt>
      <trkpt lat="47.74978" lon="-3.48955">
        <ele>29.97</ele>
        <time>2020-07-10T09:55:49Z</time>
      </trkpt>
      <trkpt lat="47.74982" lon="-3.48957">
        <ele>30.17</ele>
        <time>2020-07-10T09:55:50Z</time>
      </trkpt>
      <trkpt lat="47.74986" lon="-3.4896">
        <ele>30.36</ele>
        <time>2020-07-10T09:55:51Z</time>
      </trkpt>
      <trkpt lat="47.7499" lon="-3.48963">
        <ele>30.55</ele>
        <time>2020-07-10T09:55:52Z</time>
      </trkpt>
      <trkpt lat="47.74994" lon="-3.48965">
        <ele>30.72</ele>
        <time>2020-07-10T09:55:53Z</time>
      </trkpt>
      <trkpt lat="47.74998" lon="-3.48968">
        <ele>30.91</ele>
        <time>2020-07-10T09:55:54Z</time>
      </trkpt>
      <trkpt lat="47.75002" lon="-3.48971">
        <ele>31.1</ele>
        <time>2020-07-10T09:55:55Z</time>
      </trkpt>
      <trkpt lat="47.75006" lon="-3.48973">
        <ele>31.26</ele>
        <time>2020-07-10T09:55:56Z</time>
      </trkpt>
      <trkpt lat="47.75009" lon="-3.48976">
        <ele>31.37</ele>
        <time>2020-07-10T09:55:57Z</time>
      </trkpt>
      <trkpt lat="47.75013" lon="-3.48978">
        <ele>31.47</ele>
        <time>2020-07-10T09:55:58Z</time>
      </trkpt>
      <trkpt lat="47.75018" lon="-3.48981">
        <ele>31.6</ele>
        <time>2020-07-10T09:55:59Z</time>
      </trkpt>
      <trkpt lat="47.75021" lon="-3.48983">
        <ele>31.69</ele>
        <time>2020-07-10T09:56:00Z</time>
      </trkpt>
      <trkpt lat="47.75025" lon="-3.48986">
        <ele>31.79</ele>
        <time>2020-07-10T09:56:01Z</time>
      </trkpt>
      <trkpt lat="47.75028" lon="-3.48988">
        <ele>31.89</ele>
        <time>2020-07-10T09:56:02Z</time>
      </trkpt>
      <trkpt lat="47.75032" lon="-3.48989">
        <ele>32.01</ele>
        <time>2020-07-10T09:56:03Z</time>
      </trkpt>
      <trkpt lat="47.75035" lon="-3.48992">
        <ele>32.07</ele>
        <time>2020-07-10T09:56:04Z</time>
      </trkpt>
      <trkpt lat="47.75038" lon="-3.48995">
        <ele>32.06</ele>
        <time>2020-07-10T09:56:05Z</time>
      </trkpt>
      <trkpt lat="47.7504" lon="-3.49">
        <ele>31.93</ele>
        <time>2020-07-10T09:56:06Z</time>
      </trkpt>
      <trkpt lat="47.75041" lon="-3.49005">
        <ele>31.8</ele>
        <time>2020-07-10T09:56:07Z</time>
      </trkpt>
      <trkpt lat="47.75043" lon="-3.4901">
        <ele>31.63</ele>
        <time>2020-07-10T09:56:08Z</time>
      </trkpt>
      <trkpt lat="47.75045" lon="-3.49016">
        <ele>31.41</ele>
        <time>2020-07-10T09:56:09Z</time>
      </trkpt>
      <trkpt lat="47.75047" lon="-3.49023">
        <ele>31.13</ele>
        <time>2020-07-10T09:56:10Z</time>
      </trkpt>
      <trkpt lat="47.75049" lon="-3.4903">
        <ele>30.85</ele>
        <time>2020-07-10T09:56:11Z</time>
      </trkpt>
      <trkpt lat="47.7505" lon="-3.49036">
        <ele>30.77</ele>
        <time>2020-07-10T09:56:12Z</time>
      </trkpt>
      <trkpt lat="47.75051" lon="-3.49043">
        <ele>30.77</ele>
        <time>2020-07-10T09:56:13Z</time>
      </trkpt>
      <trkpt lat="47.75052" lon="-3.4905">
        <ele>30.79</ele>
        <time>2020-07-10T09:56:14Z</time>
      </trkpt>
      <trkpt lat="47.75054" lon="-3.49057">
        <ele>30.79</ele>
        <time>2020-07-10T09:56:15Z</time>
      </trkpt>
      <trkpt lat="47.75055" lon="-3.49065">
        <ele>30.66</ele>
        <time>2020-07-10T09:56:16Z</time>
      </trkpt>
      <trkpt lat="47.75056" lon="-3.49072">
        <ele>30.49</ele>
        <time>2020-07-10T09:56:17Z</time>
      </trkpt>
      <trkpt lat="47.75056" lon="-3.49079">
        <ele>30.27</ele>
        <time>2020-07-10T09:56:18Z</time>
      </trkpt>
      <trkpt lat="47.75058" lon="-3.49086">
        <ele>30.07</ele>
        <time>2020-07-10T09:56:19Z</time>
      </trkpt>
      <trkpt lat="47.75059" lon="-3.49093">
        <ele>29.91</ele>
        <time>2020-07-10T09:56:20Z</time>
      </trkpt>
      <trkpt lat="47.75061" lon="-3.491">
        <ele>29.78</ele>
        <time>2020-07-10T09:56:21Z</time>
      </trkpt>
      <trkpt lat="47.75062" lon="-3.49107">
        <ele>29.66</ele>
        <time>2020-07-10T09:56:22Z</time>
      </trkpt>
      <trkpt lat="47.75064" lon="-3.49114">
        <ele>29.6</ele>
        <time>2020-07-10T09:56:23Z</time>
      </trkpt>
      <trkpt lat="47.75065" lon="-3.49121">
        <ele>29.64</ele>
        <time>2020-07-10T09:56:24Z</time>
      </trkpt>
      <trkpt lat="47.75066" lon="-3.49128">
        <ele>29.71</ele>
        <time>2020-07-10T09:56:25Z</time>
      </trkpt>
      <trkpt lat="47.75067" lon="-3.49135">
        <ele>29.8</ele>
        <time>2020-07-10T09:56:26Z</time>
      </trkpt>
      <trkpt lat="47.75069" lon="-3.49142">
        <ele>29.86</ele>
        <time>2020-07-10T09:56:27Z</time>
      </trkpt>
      <trkpt lat="47.75071" lon="-3.4915">
        <ele>29.86</ele>
        <time>2020-07-10T09:56:28Z</time>
      </trkpt>
      <trkpt lat="47.75072" lon="-3.49157">
        <ele>29.81</ele>
        <time>2020-07-10T09:56:29Z</time>
      </trkpt>
      <trkpt lat="47.75074" lon="-3.49165">
        <ele>29.74</ele>
        <time>2020-07-10T09:56:30Z</time>
      </trkpt>
      <trkpt lat="47.75075" lon="-3.49172">
        <ele>29.68</ele>
        <time>2020-07-10T09:56:31Z</time>
      </trkpt>
      <trkpt lat="47.75077" lon="-3.49179">
        <ele>29.66</ele>
        <time>2020-07-10T09:56:32Z</time>
      </trkpt>
      <trkpt lat="47.75077" lon="-3.49185">
        <ele>29.64</ele>
        <time>2020-07-10T09:56:33Z</time>
      </trkpt>
      <trkpt lat="47.75078" lon="-3.49191">
        <ele>29.65</ele>
        <time>2020-07-10T09:56:34Z</time>
      </trkpt>
      <trkpt lat="47.75079" lon="-3.49198">
        <ele>29.67</ele>
        <time>2020-07-10T09:56:35Z</time>
      </trkpt>
      <trkpt lat="47.75079" lon="-3.49205">
        <ele>29.7</ele>
        <time>2020-07-10T09:56:36Z</time>
      </trkpt>
      <trkpt lat="47.75081" lon="-3.4921">
        <ele>29.78</ele>
        <time>2020-07-10T09:56:37Z</time>
      </trkpt>
      <trkpt lat="47.75083" lon="-3.49215">
        <ele>29.94</ele>
        <time>2020-07-10T09:56:38Z</time>
      </trkpt>
      <trkpt lat="47.75088" lon="-3.49219">
        <ele>29.98</ele>
        <time>2020-07-10T09:56:39Z</time>
      </trkpt>
      <trkpt lat="47.75092" lon="-3.49222">
        <ele>29.99</ele>
        <time>2020-07-10T09:56:40Z</time>
      </trkpt>
      <trkpt lat="47.75097" lon="-3.49224">
        <ele>29.98</ele>
        <time>2020-07-10T09:56:41Z</time>
      </trkpt>
      <trkpt lat="47.75103" lon="-3.49226">
        <ele>29.93</ele>
        <time>2020-07-10T09:56:42Z</time>
      </trkpt>
      <trkpt lat="47.75108" lon="-3.49228">
        <ele>29.86</ele>
        <time>2020-07-10T09:56:43Z</time>
      </trkpt>
      <trkpt lat="47.75113" lon="-3.49229">
        <ele>29.74</ele>
        <time>2020-07-10T09:56:44Z</time>
      </trkpt>
      <trkpt lat="47.75118" lon="-3.49232">
        <ele>29.56</ele>
        <time>2020-07-10T09:56:45Z</time>
      </trkpt>
      <trkpt lat="47.75123" lon="-3.49235">
        <ele>29.39</ele>
        <time>2020-07-10T09:56:46Z</time>
      </trkpt>
      <trkpt lat="47.75129" lon="-3.49237">
        <ele>29.24</ele>
        <time>2020-07-10T09:56:47Z</time>
      </trkpt>
      <trkpt lat="47.75134" lon="-3.49238">
        <ele>29.12</ele>
        <time>2020-07-10T09:56:48Z</time>
      </trkpt>
      <trkpt lat="47.7514" lon="-3.49239">
        <ele>28.97</ele>
        <time>2020-07-10T09:56:49Z</time>
      </trkpt>
      <trkpt lat="47.75146" lon="-3.49242">
        <ele>28.66</ele>
        <time>2020-07-10T09:56:50Z</time>
      </trkpt>
      <trkpt lat="47.75151" lon="-3.49244">
        <ele>28.29</ele>
        <time>2020-07-10T09:56:51Z</time>
      </trkpt>
      <trkpt lat="47.75156" lon="-3.49247">
        <ele>27.92</ele>
        <time>2020-07-10T09:56:52Z</time>
      </trkpt>
      <trkpt lat="47.75162" lon="-3.49249">
        <ele>27.51</ele>
        <time>2020-07-10T09:56:53Z</time>
      </trkpt>
      <trkpt lat="47.75168" lon="-3.49251">
        <ele>27.09</ele>
        <time>2020-07-10T09:56:54Z</time>
      </trkpt>
      <trkpt lat="47.75173" lon="-3.49253">
        <ele>26.68</ele>
        <time>2020-07-10T09:56:55Z</time>
      </trkpt>
      <trkpt lat="47.75179" lon="-3.49256">
        <ele>26.28</ele>
        <time>2020-07-10T09:56:56Z</time>
      </trkpt>
      <trkpt lat="47.75185" lon="-3.49259">
        <ele>25.87</ele>
        <time>2020-07-10T09:56:57Z</time>
      </trkpt>
      <trkpt lat="47.75191" lon="-3.49262">
        <ele>25.45</ele>
        <time>2020-07-10T09:56:58Z</time>
      </trkpt>
      <trkpt lat="47.75198" lon="-3.49265">
        <ele>25.02</ele>
        <time>2020-07-10T09:56:59Z</time>
      </trkpt>
      <trkpt lat="47.75205" lon="-3.49267">
        <ele>24.59</ele>
        <time>2020-07-10T09:57:00Z</time>
      </trkpt>
      <trkpt lat="47.75211" lon="-3.49268">
        <ele>24.19</ele>
        <time>2020-07-10T09:57:01Z</time>
      </trkpt>
      <trkpt lat="47.75218" lon="-3.49269">
        <ele>23.78</ele>
        <time>2020-07-10T09:57:02Z</time>
      </trkpt>
      <trkpt lat="47.75225" lon="-3.49269">
        <ele>23.37</ele>
        <time>2020-07-10T09:57:03Z</time>
      </trkpt>
      <trkpt lat="47.75232" lon="-3.49269">
        <ele>23.03</ele>
        <time>2020-07-10T09:57:04Z</time>
      </trkpt>
      <trkpt lat="47.75238" lon="-3.49268">
        <ele>22.71</ele>
        <time>2020-07-10T09:57:05Z</time>
      </trkpt>
      <trkpt lat="47.75244" lon="-3.49267">
        <ele>22.42</ele>
        <time>2020-07-10T09:57:06Z</time>
      </trkpt>
      <trkpt lat="47.7525" lon="-3.49266">
        <ele>22.14</ele>
        <time>2020-07-10T09:57:07Z</time>
      </trkpt>
      <trkpt lat="47.75255" lon="-3.49265">
        <ele>21.83</ele>
        <time>2020-07-10T09:57:08Z</time>
      </trkpt>
      <trkpt lat="47.75261" lon="-3.49265">
        <ele>21.53</ele>
        <time>2020-07-10T09:57:09Z</time>
      </trkpt>
      <trkpt lat="47.75267" lon="-3.49264">
        <ele>21.22</ele>
        <time>2020-07-10T09:57:10Z</time>
      </trkpt>
      <trkpt lat="47.75272" lon="-3.49264">
        <ele>20.94</ele>
        <time>2020-07-10T09:57:11Z</time>
      </trkpt>
      <trkpt lat="47.75277" lon="-3.49264">
        <ele>20.66</ele>
        <time>2020-07-10T09:57:12Z</time>
      </trkpt>
      <trkpt lat="47.75283" lon="-3.49263">
        <ele>20.5</ele>
        <time>2020-07-10T09:57:13Z</time>
      </trkpt>
      <trkpt lat="47.75289" lon="-3.49263">
        <ele>20.38</ele>
        <time>2020-07-10T09:57:14Z</time>
      </trkpt>
      <trkpt lat="47.75295" lon="-3.49262">
        <ele>20.26</ele>
        <time>2020-07-10T09:57:15Z</time>
      </trkpt>
      <trkpt lat="47.75301" lon="-3.49262">
        <ele>20.14</ele>
        <time>2020-07-10T09:57:16Z</time>
      </trkpt>
      <trkpt lat="47.75307" lon="-3.49262">
        <ele>20.03</ele>
        <time>2020-07-10T09:57:17Z</time>
      </trkpt>
      <trkpt lat="47.75313" lon="-3.49261">
        <ele>19.93</ele>
        <time>2020-07-10T09:57:18Z</time>
      </trkpt>
      <trkpt lat="47.75319" lon="-3.49261">
        <ele>19.85</ele>
        <time>2020-07-10T09:57:19Z</time>
      </trkpt>
      <trkpt lat="47.75325" lon="-3.4926">
        <ele>19.77</ele>
        <time>2020-07-10T09:57:20Z</time>
      </trkpt>
      <trkpt lat="47.75331" lon="-3.4926">
        <ele>19.71</ele>
        <time>2020-07-10T09:57:21Z</time>
      </trkpt>
      <trkpt lat="47.75336" lon="-3.49259">
        <ele>19.61</ele>
        <time>2020-07-10T09:57:22Z</time>
      </trkpt>
      <trkpt lat="47.75342" lon="-3.49259">
        <ele>19.45</ele>
        <time>2020-07-10T09:57:23Z</time>
      </trkpt>
      <trkpt lat="47.75347" lon="-3.49258">
        <ele>19.29</ele>
        <time>2020-07-10T09:57:24Z</time>
      </trkpt>
      <trkpt lat="47.75352" lon="-3.49258">
        <ele>19.11</ele>
        <time>2020-07-10T09:57:25Z</time>
      </trkpt>
      <trkpt lat="47.75357" lon="-3.49258">
        <ele>18.94</ele>
        <time>2020-07-10T09:57:26Z</time>
      </trkpt>
      <trkpt lat="47.75363" lon="-3.49258">
        <ele>18.75</ele>
        <time>2020-07-10T09:57:27Z</time>
      </trkpt>
      <trkpt lat="47.75368" lon="-3.49257">
        <ele>18.57</ele>
        <time>2020-07-10T09:57:28Z</time>
      </trkpt>
      <trkpt lat="47.75373" lon="-3.49257">
        <ele>18.39</ele>
        <time>2020-07-10T09:57:29Z</time>
      </trkpt>
      <trkpt lat="47.75378" lon="-3.49257">
        <ele>18.21</ele>
        <time>2020-07-10T09:57:30Z</time>
      </trkpt>
      <trkpt lat="47.75383" lon="-3.49256">
        <ele>18.05</ele>
        <time>2020-07-10T09:57:31Z</time>
      </trkpt>
      <trkpt lat="47.75388" lon="-3.49256">
        <ele>17.88</ele>
        <time>2020-07-10T09:57:32Z</time>
      </trkpt>
      <trkpt lat="47.75393" lon="-3.49256">
        <ele>17.74</ele>
        <time>2020-07-10T09:57:33Z</time>
      </trkpt>
      <trkpt lat="47.75398" lon="-3.49255">
        <ele>17.61</ele>
        <time>2020-07-10T09:57:34Z</time>
      </trkpt>
      <trkpt lat="47.75402" lon="-3.49255">
        <ele>17.48</ele>
        <time>2020-07-10T09:57:35Z</time>
      </trkpt>
      <trkpt lat="47.75407" lon="-3.49255">
        <ele>17.34</ele>
        <time>2020-07-10T09:57:36Z</time>
      </trkpt>
      <trkpt lat="47.75412" lon="-3.49256">
        <ele>17.19</ele>
        <time>2020-07-10T09:57:37Z</time>
      </trkpt>
      <trkpt lat="47.75417" lon="-3.49258">
        <ele>17.06</ele>
        <time>2020-07-10T09:57:38Z</time>
      </trkpt>
      <trkpt lat="47.75422" lon="-3.4926">
        <ele>17.02</ele>
        <time>2020-07-10T09:57:39Z</time>
      </trkpt>
      <trkpt lat="47.75427" lon="-3.49263">
        <ele>17.01</ele>
        <time>2020-07-10T09:57:40Z</time>
      </trkpt>
      <trkpt lat="47.75433" lon="-3.49266">
        <ele>17</ele>
        <time>2020-07-10T09:57:41Z</time>
      </trkpt>
      <trkpt lat="47.75438" lon="-3.49268">
        <ele>17</ele>
        <time>2020-07-10T09:57:42Z</time>
      </trkpt>
      <trkpt lat="47.75444" lon="-3.49271">
        <ele>17</ele>
        <time>2020-07-10T09:57:43Z</time>
      </trkpt>
      <trkpt lat="47.75449" lon="-3.49275">
        <ele>17</ele>
        <time>2020-07-10T09:57:44Z</time>
      </trkpt>
      <trkpt lat="47.75455" lon="-3.49278">
        <ele>17</ele>
        <time>2020-07-10T09:57:45Z</time>
      </trkpt>
      <trkpt lat="47.75459" lon="-3.49281">
        <ele>16.92</ele>
        <time>2020-07-10T09:57:46Z</time>
      </trkpt>
      <trkpt lat="47.75464" lon="-3.49284">
        <ele>16.82</ele>
        <time>2020-07-10T09:57:47Z</time>
      </trkpt>
      <trkpt lat="47.75468" lon="-3.49287">
        <ele>16.71</ele>
        <time>2020-07-10T09:57:48Z</time>
      </trkpt>
      <trkpt lat="47.75473" lon="-3.4929">
        <ele>16.6</ele>
        <time>2020-07-10T09:57:49Z</time>
      </trkpt>
      <trkpt lat="47.75477" lon="-3.49292">
        <ele>16.45</ele>
        <time>2020-07-10T09:57:50Z</time>
      </trkpt>
      <trkpt lat="47.75481" lon="-3.49295">
        <ele>16.32</ele>
        <time>2020-07-10T09:57:51Z</time>
      </trkpt>
      <trkpt lat="47.75485" lon="-3.49297">
        <ele>16.21</ele>
        <time>2020-07-10T09:57:52Z</time>
      </trkpt>
      <trkpt lat="47.75491" lon="-3.49301">
        <ele>16.1</ele>
        <time>2020-07-10T09:57:53Z</time>
      </trkpt>
      <trkpt lat="47.75496" lon="-3.49303">
        <ele>16.04</ele>
        <time>2020-07-10T09:57:54Z</time>
      </trkpt>
      <trkpt lat="47.75501" lon="-3.49306">
        <ele>16.05</ele>
        <time>2020-07-10T09:57:55Z</time>
      </trkpt>
      <trkpt lat="47.75507" lon="-3.49308">
        <ele>16.19</ele>
        <time>2020-07-10T09:57:56Z</time>
      </trkpt>
      <trkpt lat="47.75512" lon="-3.49311">
        <ele>16.36</ele>
        <time>2020-07-10T09:57:57Z</time>
      </trkpt>
      <trkpt lat="47.75517" lon="-3.49313">
        <ele>16.53</ele>
        <time>2020-07-10T09:57:58Z</time>
      </trkpt>
      <trkpt lat="47.75521" lon="-3.49316">
        <ele>16.7</ele>
        <time>2020-07-10T09:57:59Z</time>
      </trkpt>
      <trkpt lat="47.75526" lon="-3.4932">
        <ele>16.87</ele>
        <time>2020-07-10T09:58:00Z</time>
      </trkpt>
      <trkpt lat="47.7553" lon="-3.49324">
        <ele>17.02</ele>
        <time>2020-07-10T09:58:01Z</time>
      </trkpt>
      <trkpt lat="47.75533" lon="-3.49329">
        <ele>17.15</ele>
        <time>2020-07-10T09:58:02Z</time>
      </trkpt>
      <trkpt lat="47.75535" lon="-3.49334">
        <ele>17.21</ele>
        <time>2020-07-10T09:58:03Z</time>
      </trkpt>
      <trkpt lat="47.75537" lon="-3.49341">
        <ele>17.16</ele>
        <time>2020-07-10T09:58:04Z</time>
      </trkpt>
      <trkpt lat="47.75538" lon="-3.49348">
        <ele>17.06</ele>
        <time>2020-07-10T09:58:05Z</time>
      </trkpt>
      <trkpt lat="47.75538" lon="-3.49354">
        <ele>16.94</ele>
        <time>2020-07-10T09:58:06Z</time>
      </trkpt>
      <trkpt lat="47.75538" lon="-3.49361">
        <ele>16.81</ele>
        <time>2020-07-10T09:58:07Z</time>
      </trkpt>
      <trkpt lat="47.75539" lon="-3.49367">
        <ele>16.82</ele>
        <time>2020-07-10T09:58:08Z</time>
      </trkpt>
      <trkpt lat="47.75538" lon="-3.49376">
        <ele>16.85</ele>
        <time>2020-07-10T09:58:09Z</time>
      </trkpt>
      <trkpt lat="47.75538" lon="-3.49383">
        <ele>16.92</ele>
        <time>2020-07-10T09:58:10Z</time>
      </trkpt>
      <trkpt lat="47.75537" lon="-3.49392">
        <ele>16.98</ele>
        <time>2020-07-10T09:58:11Z</time>
      </trkpt>
      <trkpt lat="47.75537" lon="-3.49399">
        <ele>16.99</ele>
        <time>2020-07-10T09:58:12Z</time>
      </trkpt>
      <trkpt lat="47.75536" lon="-3.49407">
        <ele>17</ele>
        <time>2020-07-10T09:58:13Z</time>
      </trkpt>
      <trkpt lat="47.75536" lon="-3.49415">
        <ele>17</ele>
        <time>2020-07-10T09:58:14Z</time>
      </trkpt>
      <trkpt lat="47.75536" lon="-3.49421">
        <ele>17</ele>
        <time>2020-07-10T09:58:15Z</time>
      </trkpt>
      <trkpt lat="47.75535" lon="-3.49427">
        <ele>17</ele>
        <time>2020-07-10T09:58:16Z</time>
      </trkpt>
      <trkpt lat="47.75535" lon="-3.49432">
        <ele>17</ele>
        <time>2020-07-10T09:58:17Z</time>
      </trkpt>
      <trkpt lat="47.75535" lon="-3.49438">
        <ele>17</ele>
        <time>2020-07-10T09:58:18Z</time>
      </trkpt>
      <trkpt lat="47.75536" lon="-3.49444">
        <ele>17</ele>
        <time>2020-07-10T09:58:19Z</time>
      </trkpt>
      <trkpt lat="47.75536" lon="-3.49449">
        <ele>16.95</ele>
        <time>2020-07-10T09:58:20Z</time>
      </trkpt>
      <trkpt lat="47.75536" lon="-3.49455">
        <ele>16.88</ele>
        <time>2020-07-10T09:58:21Z</time>
      </trkpt>
      <trkpt lat="47.75536" lon="-3.49462">
        <ele>16.79</ele>
        <time>2020-07-10T09:58:22Z</time>
      </trkpt>
      <trkpt lat="47.75537" lon="-3.49469">
        <ele>16.71</ele>
        <time>2020-07-10T09:58:23Z</time>
      </trkpt>
      <trkpt lat="47.75537" lon="-3.49477">
        <ele>16.76</ele>
        <time>2020-07-10T09:58:24Z</time>
      </trkpt>
      <trkpt lat="47.75539" lon="-3.49485">
        <ele>16.98</ele>
        <time>2020-07-10T09:58:25Z</time>
      </trkpt>
      <trkpt lat="47.7554" lon="-3.49492">
        <ele>17.2</ele>
        <time>2020-07-10T09:58:26Z</time>
      </trkpt>
      <trkpt lat="47.75541" lon="-3.49499">
        <ele>17.38</ele>
        <time>2020-07-10T09:58:27Z</time>
      </trkpt>
      <trkpt lat="47.75541" lon="-3.49505">
        <ele>17.46</ele>
        <time>2020-07-10T09:58:28Z</time>
      </trkpt>
      <trkpt lat="47.75542" lon="-3.49511">
        <ele>17.49</ele>
        <time>2020-07-10T09:58:29Z</time>
      </trkpt>
      <trkpt lat="47.75542" lon="-3.49517">
        <ele>17.51</ele>
        <time>2020-07-10T09:58:30Z</time>
      </trkpt>
      <trkpt lat="47.75541" lon="-3.49523">
        <ele>17.49</ele>
        <time>2020-07-10T09:58:31Z</time>
      </trkpt>
      <trkpt lat="47.75541" lon="-3.49529">
        <ele>17.48</ele>
        <time>2020-07-10T09:58:32Z</time>
      </trkpt>
      <trkpt lat="47.75541" lon="-3.49536">
        <ele>17.47</ele>
        <time>2020-07-10T09:58:33Z</time>
      </trkpt>
      <trkpt lat="47.7554" lon="-3.49543">
        <ele>17.46</ele>
        <time>2020-07-10T09:58:34Z</time>
      </trkpt>
      <trkpt lat="47.7554" lon="-3.4955">
        <ele>17.46</ele>
        <time>2020-07-10T09:58:35Z</time>
      </trkpt>
      <trkpt lat="47.7554" lon="-3.49557">
        <ele>17.48</ele>
        <time>2020-07-10T09:58:36Z</time>
      </trkpt>
      <trkpt lat="47.75541" lon="-3.49564">
        <ele>17.58</ele>
        <time>2020-07-10T09:58:37Z</time>
      </trkpt>
      <trkpt lat="47.75541" lon="-3.4957">
        <ele>17.7</ele>
        <time>2020-07-10T09:58:38Z</time>
      </trkpt>
      <trkpt lat="47.75541" lon="-3.49577">
        <ele>17.83</ele>
        <time>2020-07-10T09:58:39Z</time>
      </trkpt>
      <trkpt lat="47.75542" lon="-3.49584">
        <ele>17.95</ele>
        <time>2020-07-10T09:58:40Z</time>
      </trkpt>
      <trkpt lat="47.75542" lon="-3.49591">
        <ele>18.09</ele>
        <time>2020-07-10T09:58:41Z</time>
      </trkpt>
      <trkpt lat="47.75543" lon="-3.49598">
        <ele>18.23</ele>
        <time>2020-07-10T09:58:42Z</time>
      </trkpt>
      <trkpt lat="47.75544" lon="-3.49606">
        <ele>18.39</ele>
        <time>2020-07-10T09:58:43Z</time>
      </trkpt>
      <trkpt lat="47.75545" lon="-3.49613">
        <ele>18.54</ele>
        <time>2020-07-10T09:58:44Z</time>
      </trkpt>
      <trkpt lat="47.75546" lon="-3.4962">
        <ele>18.62</ele>
        <time>2020-07-10T09:58:45Z</time>
      </trkpt>
      <trkpt lat="47.75547" lon="-3.49627">
        <ele>18.68</ele>
        <time>2020-07-10T09:58:46Z</time>
      </trkpt>
      <trkpt lat="47.75548" lon="-3.49634">
        <ele>18.72</ele>
        <time>2020-07-10T09:58:47Z</time>
      </trkpt>
      <trkpt lat="47.75549" lon="-3.49642">
        <ele>18.83</ele>
        <time>2020-07-10T09:58:48Z</time>
      </trkpt>
      <trkpt lat="47.75551" lon="-3.49649">
        <ele>19.08</ele>
        <time>2020-07-10T09:58:49Z</time>
      </trkpt>
      <trkpt lat="47.75552" lon="-3.49655">
        <ele>19.35</ele>
        <time>2020-07-10T09:58:50Z</time>
      </trkpt>
      <trkpt lat="47.75553" lon="-3.49662">
        <ele>19.63</ele>
        <time>2020-07-10T09:58:51Z</time>
      </trkpt>
      <trkpt lat="47.75554" lon="-3.49669">
        <ele>19.85</ele>
        <time>2020-07-10T09:58:52Z</time>
      </trkpt>
      <trkpt lat="47.75555" lon="-3.49676">
        <ele>19.94</ele>
        <time>2020-07-10T09:58:53Z</time>
      </trkpt>
      <trkpt lat="47.75556" lon="-3.49682">
        <ele>20.01</ele>
        <time>2020-07-10T09:58:54Z</time>
      </trkpt>
      <trkpt lat="47.75557" lon="-3.4969">
        <ele>20.08</ele>
        <time>2020-07-10T09:58:55Z</time>
      </trkpt>
      <trkpt lat="47.75558" lon="-3.49698">
        <ele>20.22</ele>
        <time>2020-07-10T09:58:56Z</time>
      </trkpt>
      <trkpt lat="47.7556" lon="-3.49704">
        <ele>20.48</ele>
        <time>2020-07-10T09:58:57Z</time>
      </trkpt>
      <trkpt lat="47.75561" lon="-3.49711">
        <ele>20.74</ele>
        <time>2020-07-10T09:58:58Z</time>
      </trkpt>
      <trkpt lat="47.75562" lon="-3.49717">
        <ele>20.98</ele>
        <time>2020-07-10T09:58:59Z</time>
      </trkpt>
      <trkpt lat="47.75564" lon="-3.49723">
        <ele>21.21</ele>
        <time>2020-07-10T09:59:00Z</time>
      </trkpt>
      <trkpt lat="47.75565" lon="-3.49728">
        <ele>21.46</ele>
        <time>2020-07-10T09:59:01Z</time>
      </trkpt>
      <trkpt lat="47.75567" lon="-3.49734">
        <ele>21.71</ele>
        <time>2020-07-10T09:59:02Z</time>
      </trkpt>
      <trkpt lat="47.75569" lon="-3.49739">
        <ele>21.97</ele>
        <time>2020-07-10T09:59:03Z</time>
      </trkpt>
      <trkpt lat="47.7557" lon="-3.49745">
        <ele>22.24</ele>
        <time>2020-07-10T09:59:04Z</time>
      </trkpt>
      <trkpt lat="47.75572" lon="-3.49753">
        <ele>22.5</ele>
        <time>2020-07-10T09:59:05Z</time>
      </trkpt>
      <trkpt lat="47.75573" lon="-3.4976">
        <ele>22.68</ele>
        <time>2020-07-10T09:59:06Z</time>
      </trkpt>
      <trkpt lat="47.75573" lon="-3.49767">
        <ele>22.81</ele>
        <time>2020-07-10T09:59:07Z</time>
      </trkpt>
      <trkpt lat="47.75574" lon="-3.49773">
        <ele>22.9</ele>
        <time>2020-07-10T09:59:08Z</time>
      </trkpt>
      <trkpt lat="47.75574" lon="-3.49779">
        <ele>23</ele>
        <time>2020-07-10T09:59:09Z</time>
      </trkpt>
      <trkpt lat="47.75574" lon="-3.49787">
        <ele>23.14</ele>
        <time>2020-07-10T09:59:10Z</time>
      </trkpt>
      <trkpt lat="47.75573" lon="-3.49794">
        <ele>23.31</ele>
        <time>2020-07-10T09:59:11Z</time>
      </trkpt>
      <trkpt lat="47.75572" lon="-3.49802">
        <ele>23.46</ele>
        <time>2020-07-10T09:59:12Z</time>
      </trkpt>
      <trkpt lat="47.75572" lon="-3.49809">
        <ele>23.64</ele>
        <time>2020-07-10T09:59:13Z</time>
      </trkpt>
      <trkpt lat="47.75572" lon="-3.49816">
        <ele>23.87</ele>
        <time>2020-07-10T09:59:14Z</time>
      </trkpt>
      <trkpt lat="47.75572" lon="-3.49823">
        <ele>24.12</ele>
        <time>2020-07-10T09:59:15Z</time>
      </trkpt>
      <trkpt lat="47.75573" lon="-3.49829">
        <ele>24.38</ele>
        <time>2020-07-10T09:59:16Z</time>
      </trkpt>
      <trkpt lat="47.75574" lon="-3.49835">
        <ele>24.59</ele>
        <time>2020-07-10T09:59:17Z</time>
      </trkpt>
      <trkpt lat="47.75576" lon="-3.4984">
        <ele>24.73</ele>
        <time>2020-07-10T09:59:18Z</time>
      </trkpt>
      <trkpt lat="47.75578" lon="-3.49845">
        <ele>24.83</ele>
        <time>2020-07-10T09:59:19Z</time>
      </trkpt>
      <trkpt lat="47.7558" lon="-3.49849">
        <ele>24.91</ele>
        <time>2020-07-10T09:59:20Z</time>
      </trkpt>
      <trkpt lat="47.75583" lon="-3.49853">
        <ele>24.97</ele>
        <time>2020-07-10T09:59:21Z</time>
      </trkpt>
      <trkpt lat="47.75585" lon="-3.49857">
        <ele>25.02</ele>
        <time>2020-07-10T09:59:22Z</time>
      </trkpt>
      <trkpt lat="47.75587" lon="-3.4986">
        <ele>25.11</ele>
        <time>2020-07-10T09:59:23Z</time>
      </trkpt>
      <trkpt lat="47.75589" lon="-3.4986">
        <ele>25.18</ele>
        <time>2020-07-10T09:59:24Z</time>
      </trkpt>
      <trkpt lat="47.75591" lon="-3.49859">
        <ele>25.24</ele>
        <time>2020-07-10T09:59:25Z</time>
      </trkpt>
      <trkpt lat="47.75593" lon="-3.49857">
        <ele>25.29</ele>
        <time>2020-07-10T09:59:26Z</time>
      </trkpt>
      <trkpt lat="47.75595" lon="-3.49855">
        <ele>25.31</ele>
        <time>2020-07-10T09:59:27Z</time>
      </trkpt>
      <trkpt lat="47.75596" lon="-3.49852">
        <ele>25.31</ele>
        <time>2020-07-10T09:59:28Z</time>
      </trkpt>
      <trkpt lat="47.75597" lon="-3.4985">
        <ele>25.3</ele>
        <time>2020-07-10T09:59:29Z</time>
      </trkpt>
      <trkpt lat="47.75599" lon="-3.49849">
        <ele>25.32</ele>
        <time>2020-07-10T09:59:30Z</time>
      </trkpt>
      <trkpt lat="47.756" lon="-3.49851">
        <ele>25.35</ele>
        <time>2020-07-10T09:59:31Z</time>
      </trkpt>
      <trkpt lat="47.75599" lon="-3.49853">
        <ele>25.39</ele>
        <time>2020-07-10T09:59:32Z</time>
      </trkpt>
      <trkpt lat="47.75597" lon="-3.49856">
        <ele>25.41</ele>
        <time>2020-07-10T09:59:33Z</time>
      </trkpt>
      <trkpt lat="47.75595" lon="-3.49859">
        <ele>25.41</ele>
        <time>2020-07-10T09:59:34Z</time>
      </trkpt>
      <trkpt lat="47.75593" lon="-3.49863">
        <ele>25.4</ele>
        <time>2020-07-10T09:59:35Z</time>
      </trkpt>
      <trkpt lat="47.7559" lon="-3.49868">
        <ele>25.41</ele>
        <time>2020-07-10T09:59:36Z</time>
      </trkpt>
      <trkpt lat="47.75588" lon="-3.49872">
        <ele>25.48</ele>
        <time>2020-07-10T09:59:37Z</time>
      </trkpt>
      <trkpt lat="47.75585" lon="-3.49879">
        <ele>25.6</ele>
        <time>2020-07-10T09:59:38Z</time>
      </trkpt>
      <trkpt lat="47.75583" lon="-3.49885">
        <ele>25.77</ele>
        <time>2020-07-10T09:59:39Z</time>
      </trkpt>
      <trkpt lat="47.75581" lon="-3.49891">
        <ele>25.88</ele>
        <time>2020-07-10T09:59:40Z</time>
      </trkpt>
      <trkpt lat="47.75579" lon="-3.49897">
        <ele>25.89</ele>
        <time>2020-07-10T09:59:41Z</time>
      </trkpt>
      <trkpt lat="47.75578" lon="-3.49902">
        <ele>25.9</ele>
        <time>2020-07-10T09:59:42Z</time>
      </trkpt>
      <trkpt lat="47.75577" lon="-3.49907">
        <ele>25.91</ele>
        <time>2020-07-10T09:59:43Z</time>
      </trkpt>
      <trkpt lat="47.75576" lon="-3.49912">
        <ele>25.94</ele>
        <time>2020-07-10T09:59:44Z</time>
      </trkpt>
      <trkpt lat="47.75575" lon="-3.49917">
        <ele>25.98</ele>
        <time>2020-07-10T09:59:45Z</time>
      </trkpt>
      <trkpt lat="47.75574" lon="-3.49921">
        <ele>25.99</ele>
        <time>2020-07-10T09:59:46Z</time>
      </trkpt>
      <trkpt lat="47.75574" lon="-3.49926">
        <ele>26</ele>
        <time>2020-07-10T09:59:47Z</time>
      </trkpt>
      <trkpt lat="47.75574" lon="-3.49932">
        <ele>26</ele>
        <time>2020-07-10T09:59:48Z</time>
      </trkpt>
      <trkpt lat="47.75574" lon="-3.49938">
        <ele>26</ele>
        <time>2020-07-10T09:59:49Z</time>
      </trkpt>
      <trkpt lat="47.75574" lon="-3.49945">
        <ele>26</ele>
        <time>2020-07-10T09:59:50Z</time>
      </trkpt>
      <trkpt lat="47.75574" lon="-3.49952">
        <ele>26</ele>
        <time>2020-07-10T09:59:51Z</time>
      </trkpt>
      <trkpt lat="47.75574" lon="-3.4996">
        <ele>26</ele>
        <time>2020-07-10T09:59:52Z</time>
      </trkpt>
      <trkpt lat="47.75574" lon="-3.49967">
        <ele>26</ele>
        <time>2020-07-10T09:59:53Z</time>
      </trkpt>
      <trkpt lat="47.75574" lon="-3.49974">
        <ele>26</ele>
        <time>2020-07-10T09:59:54Z</time>
      </trkpt>
      <trkpt lat="47.75574" lon="-3.49981">
        <ele>26</ele>
        <time>2020-07-10T09:59:55Z</time>
      </trkpt>
      <trkpt lat="47.75575" lon="-3.49988">
        <ele>26</ele>
        <time>2020-07-10T09:59:56Z</time>
      </trkpt>
      <trkpt lat="47.75575" lon="-3.49995">
        <ele>26</ele>
        <time>2020-07-10T09:59:57Z</time>
      </trkpt>
      <trkpt lat="47.75576" lon="-3.50003">
        <ele>25.95</ele>
        <time>2020-07-10T09:59:58Z</time>
      </trkpt>
      <trkpt lat="47.75576" lon="-3.5001">
        <ele>25.8</ele>
        <time>2020-07-10T09:59:59Z</time>
      </trkpt>
      <trkpt lat="47.75577" lon="-3.50017">
        <ele>25.62</ele>
        <time>2020-07-10T10:00:00Z</time>
      </trkpt>
      <trkpt lat="47.75577" lon="-3.50023">
        <ele>25.44</ele>
        <time>2020-07-10T10:00:01Z</time>
      </trkpt>
      <trkpt lat="47.75577" lon="-3.50027">
        <ele>25.3</ele>
        <time>2020-07-10T10:00:02Z</time>
      </trkpt>
      <trkpt lat="47.75578" lon="-3.5003">
        <ele>25.15</ele>
        <time>2020-07-10T10:00:03Z</time>
      </trkpt>
      <trkpt lat="47.75578" lon="-3.50031">
        <ele>25.05</ele>
        <time>2020-07-10T10:00:04Z</time>
      </trkpt>
      <trkpt lat="47.75578" lon="-3.50032">
        <ele>24.95</ele>
        <time>2020-07-10T10:00:05Z</time>
      </trkpt>
      <trkpt lat="47.75577" lon="-3.50034">
        <ele>24.85</ele>
        <time>2020-07-10T10:00:06Z</time>
      </trkpt>
      <trkpt lat="47.75576" lon="-3.50037">
        <ele>24.75</ele>
        <time>2020-07-10T10:00:07Z</time>
      </trkpt>
      <trkpt lat="47.75573" lon="-3.5004">
        <ele>24.65</ele>
        <time>2020-07-10T10:00:08Z</time>
      </trkpt>
      <trkpt lat="47.75571" lon="-3.50045">
        <ele>24.54</ele>
        <time>2020-07-10T10:00:09Z</time>
      </trkpt>
      <trkpt lat="47.75569" lon="-3.5005">
        <ele>24.4</ele>
        <time>2020-07-10T10:00:10Z</time>
      </trkpt>
      <trkpt lat="47.75566" lon="-3.50056">
        <ele>24.27</ele>
        <time>2020-07-10T10:00:11Z</time>
      </trkpt>
      <trkpt lat="47.75564" lon="-3.50062">
        <ele>24.21</ele>
        <time>2020-07-10T10:00:12Z</time>
      </trkpt>
      <trkpt lat="47.75561" lon="-3.50068">
        <ele>24.15</ele>
        <time>2020-07-10T10:00:13Z</time>
      </trkpt>
      <trkpt lat="47.7556" lon="-3.50073">
        <ele>24.08</ele>
        <time>2020-07-10T10:00:14Z</time>
      </trkpt>
      <trkpt lat="47.7556" lon="-3.50077">
        <ele>23.96</ele>
        <time>2020-07-10T10:00:15Z</time>
      </trkpt>
      <trkpt lat="47.75561" lon="-3.50082">
        <ele>23.75</ele>
        <time>2020-07-10T10:00:16Z</time>
      </trkpt>
      <trkpt lat="47.75563" lon="-3.50085">
        <ele>23.52</ele>
        <time>2020-07-10T10:00:17Z</time>
      </trkpt>
      <trkpt lat="47.75567" lon="-3.5009">
        <ele>23.2</ele>
        <time>2020-07-10T10:00:18Z</time>
      </trkpt>
      <trkpt lat="47.75572" lon="-3.50096">
        <ele>22.76</ele>
        <time>2020-07-10T10:00:19Z</time>
      </trkpt>
      <trkpt lat="47.75577" lon="-3.50102">
        <ele>22.17</ele>
        <time>2020-07-10T10:00:20Z</time>
      </trkpt>
      <trkpt lat="47.75583" lon="-3.50109">
        <ele>21.43</ele>
        <time>2020-07-10T10:00:21Z</time>
      </trkpt>
      <trkpt lat="47.75589" lon="-3.50116">
        <ele>20.87</ele>
        <time>2020-07-10T10:00:22Z</time>
      </trkpt>
      <trkpt lat="47.75594" lon="-3.50122">
        <ele>20.41</ele>
        <time>2020-07-10T10:00:23Z</time>
      </trkpt>
      <trkpt lat="47.75599" lon="-3.50129">
        <ele>20.02</ele>
        <time>2020-07-10T10:00:24Z</time>
      </trkpt>
      <trkpt lat="47.75605" lon="-3.50137">
        <ele>19.6</ele>
        <time>2020-07-10T10:00:25Z</time>
      </trkpt>
      <trkpt lat="47.75611" lon="-3.50144">
        <ele>19.06</ele>
        <time>2020-07-10T10:00:26Z</time>
      </trkpt>
      <trkpt lat="47.75617" lon="-3.50151">
        <ele>18.32</ele>
        <time>2020-07-10T10:00:27Z</time>
      </trkpt>
      <trkpt lat="47.75623" lon="-3.50158">
        <ele>17.62</ele>
        <time>2020-07-10T10:00:28Z</time>
      </trkpt>
      <trkpt lat="47.75629" lon="-3.50165">
        <ele>16.99</ele>
        <time>2020-07-10T10:00:29Z</time>
      </trkpt>
      <trkpt lat="47.75635" lon="-3.50172">
        <ele>16.52</ele>
        <time>2020-07-10T10:00:30Z</time>
      </trkpt>
      <trkpt lat="47.75639" lon="-3.5018">
        <ele>16.14</ele>
        <time>2020-07-10T10:00:31Z</time>
      </trkpt>
      <trkpt lat="47.75644" lon="-3.50188">
        <ele>15.91</ele>
        <time>2020-07-10T10:00:32Z</time>
      </trkpt>
      <trkpt lat="47.75648" lon="-3.50196">
        <ele>15.73</ele>
        <time>2020-07-10T10:00:33Z</time>
      </trkpt>
      <trkpt lat="47.75652" lon="-3.50204">
        <ele>15.58</ele>
        <time>2020-07-10T10:00:34Z</time>
      </trkpt>
      <trkpt lat="47.75656" lon="-3.50213">
        <ele>15.45</ele>
        <time>2020-07-10T10:00:35Z</time>
      </trkpt>
      <trkpt lat="47.75659" lon="-3.5022">
        <ele>15.32</ele>
        <time>2020-07-10T10:00:36Z</time>
      </trkpt>
      <trkpt lat="47.75663" lon="-3.50228">
        <ele>15.18</ele>
        <time>2020-07-10T10:00:37Z</time>
      </trkpt>
      <trkpt lat="47.75666" lon="-3.50235">
        <ele>15.06</ele>
        <time>2020-07-10T10:00:38Z</time>
      </trkpt>
      <trkpt lat="47.7567" lon="-3.50242">
        <ele>14.94</ele>
        <time>2020-07-10T10:00:39Z</time>
      </trkpt>
      <trkpt lat="47.75673" lon="-3.5025">
        <ele>14.82</ele>
        <time>2020-07-10T10:00:40Z</time>
      </trkpt>
      <trkpt lat="47.75677" lon="-3.50257">
        <ele>14.58</ele>
        <time>2020-07-10T10:00:41Z</time>
      </trkpt>
      <trkpt lat="47.7568" lon="-3.50265">
        <ele>14.35</ele>
        <time>2020-07-10T10:00:42Z</time>
      </trkpt>
      <trkpt lat="47.75684" lon="-3.50272">
        <ele>14.16</ele>
        <time>2020-07-10T10:00:43Z</time>
      </trkpt>
      <trkpt lat="47.75687" lon="-3.50279">
        <ele>14.01</ele>
        <time>2020-07-10T10:00:44Z</time>
      </trkpt>
      <trkpt lat="47.75691" lon="-3.50287">
        <ele>13.77</ele>
        <time>2020-07-10T10:00:45Z</time>
      </trkpt>
      <trkpt lat="47.75694" lon="-3.50294">
        <ele>13.52</ele>
        <time>2020-07-10T10:00:46Z</time>
      </trkpt>
      <trkpt lat="47.75698" lon="-3.50302">
        <ele>13.24</ele>
        <time>2020-07-10T10:00:47Z</time>
      </trkpt>
      <trkpt lat="47.75701" lon="-3.50309">
        <ele>13</ele>
        <time>2020-07-10T10:00:48Z</time>
      </trkpt>
      <trkpt lat="47.75705" lon="-3.50317">
        <ele>12.82</ele>
        <time>2020-07-10T10:00:49Z</time>
      </trkpt>
      <trkpt lat="47.75708" lon="-3.50324">
        <ele>12.71</ele>
        <time>2020-07-10T10:00:50Z</time>
      </trkpt>
      <trkpt lat="47.75712" lon="-3.50332">
        <ele>12.67</ele>
        <time>2020-07-10T10:00:51Z</time>
      </trkpt>
      <trkpt lat="47.75715" lon="-3.50339">
        <ele>12.53</ele>
        <time>2020-07-10T10:00:52Z</time>
      </trkpt>
      <trkpt lat="47.75719" lon="-3.50347">
        <ele>12.37</ele>
        <time>2020-07-10T10:00:53Z</time>
      </trkpt>
      <trkpt lat="47.75722" lon="-3.50355">
        <ele>12.25</ele>
        <time>2020-07-10T10:00:54Z</time>
      </trkpt>
      <trkpt lat="47.75726" lon="-3.50363">
        <ele>12.03</ele>
        <time>2020-07-10T10:00:55Z</time>
      </trkpt>
      <trkpt lat="47.75729" lon="-3.50371">
        <ele>11.82</ele>
        <time>2020-07-10T10:00:56Z</time>
      </trkpt>
      <trkpt lat="47.75732" lon="-3.50379">
        <ele>11.66</ele>
        <time>2020-07-10T10:00:57Z</time>
      </trkpt>
      <trkpt lat="47.75736" lon="-3.50387">
        <ele>11.56</ele>
        <time>2020-07-10T10:00:58Z</time>
      </trkpt>
      <trkpt lat="47.75739" lon="-3.50395">
        <ele>11.44</ele>
        <time>2020-07-10T10:00:59Z</time>
      </trkpt>
      <trkpt lat="47.75743" lon="-3.50403">
        <ele>11.3</ele>
        <time>2020-07-10T10:01:00Z</time>
      </trkpt>
      <trkpt lat="47.75747" lon="-3.50411">
        <ele>11.16</ele>
        <time>2020-07-10T10:01:01Z</time>
      </trkpt>
      <trkpt lat="47.7575" lon="-3.50418">
        <ele>11.02</ele>
        <time>2020-07-10T10:01:02Z</time>
      </trkpt>
      <trkpt lat="47.75754" lon="-3.50425">
        <ele>10.8</ele>
        <time>2020-07-10T10:01:03Z</time>
      </trkpt>
      <trkpt lat="47.75757" lon="-3.50432">
        <ele>10.56</ele>
        <time>2020-07-10T10:01:04Z</time>
      </trkpt>
      <trkpt lat="47.7576" lon="-3.50439">
        <ele>10.32</ele>
        <time>2020-07-10T10:01:05Z</time>
      </trkpt>
      <trkpt lat="47.75762" lon="-3.50445">
        <ele>10.09</ele>
        <time>2020-07-10T10:01:06Z</time>
      </trkpt>
      <trkpt lat="47.75765" lon="-3.50452">
        <ele>9.94</ele>
        <time>2020-07-10T10:01:07Z</time>
      </trkpt>
      <trkpt lat="47.75768" lon="-3.50459">
        <ele>9.85</ele>
        <time>2020-07-10T10:01:08Z</time>
      </trkpt>
      <trkpt lat="47.7577" lon="-3.50465">
        <ele>9.82</ele>
        <time>2020-07-10T10:01:09Z</time>
      </trkpt>
      <trkpt lat="47.75773" lon="-3.50473">
        <ele>9.84</ele>
        <time>2020-07-10T10:01:10Z</time>
      </trkpt>
      <trkpt lat="47.75776" lon="-3.5048">
        <ele>9.91</ele>
        <time>2020-07-10T10:01:11Z</time>
      </trkpt>
      <trkpt lat="47.7578" lon="-3.50487">
        <ele>9.93</ele>
        <time>2020-07-10T10:01:12Z</time>
      </trkpt>
      <trkpt lat="47.75783" lon="-3.50495">
        <ele>9.85</ele>
        <time>2020-07-10T10:01:13Z</time>
      </trkpt>
      <trkpt lat="47.75786" lon="-3.50502">
        <ele>9.68</ele>
        <time>2020-07-10T10:01:14Z</time>
      </trkpt>
      <trkpt lat="47.7579" lon="-3.50508">
        <ele>9.3</ele>
        <time>2020-07-10T10:01:15Z</time>
      </trkpt>
      <trkpt lat="47.75793" lon="-3.50515">
        <ele>8.86</ele>
        <time>2020-07-10T10:01:16Z</time>
      </trkpt>
      <trkpt lat="47.75795" lon="-3.50519">
        <ele>8.42</ele>
        <time>2020-07-10T10:01:17Z</time>
      </trkpt>
      <trkpt lat="47.75799" lon="-3.50521">
        <ele>8.05</ele>
        <time>2020-07-10T10:01:18Z</time>
      </trkpt>
      <trkpt lat="47.75802" lon="-3.50522">
        <ele>7.8</ele>
        <time>2020-07-10T10:01:19Z</time>
      </trkpt>
      <trkpt lat="47.75805" lon="-3.50519">
        <ele>7.71</ele>
        <time>2020-07-10T10:01:20Z</time>
      </trkpt>
      <trkpt lat="47.75808" lon="-3.50514">
        <ele>7.74</ele>
        <time>2020-07-10T10:01:21Z</time>
      </trkpt>
      <trkpt lat="47.75811" lon="-3.50509">
        <ele>7.78</ele>
        <time>2020-07-10T10:01:22Z</time>
      </trkpt>
      <trkpt lat="47.75815" lon="-3.50503">
        <ele>7.79</ele>
        <time>2020-07-10T10:01:23Z</time>
      </trkpt>
      <trkpt lat="47.75818" lon="-3.505">
        <ele>7.69</ele>
        <time>2020-07-10T10:01:24Z</time>
      </trkpt>
      <trkpt lat="47.75822" lon="-3.50499">
        <ele>7.4</ele>
        <time>2020-07-10T10:01:25Z</time>
      </trkpt>
      <trkpt lat="47.75825" lon="-3.505">
        <ele>7.03</ele>
        <time>2020-07-10T10:01:26Z</time>
      </trkpt>
      <trkpt lat="47.75829" lon="-3.505">
        <ele>6.59</ele>
        <time>2020-07-10T10:01:27Z</time>
      </trkpt>
      <trkpt lat="47.75833" lon="-3.50498">
        <ele>6.22</ele>
        <time>2020-07-10T10:01:28Z</time>
      </trkpt>
      <trkpt lat="47.75838" lon="-3.50494">
        <ele>5.93</ele>
        <time>2020-07-10T10:01:29Z</time>
      </trkpt>
      <trkpt lat="47.75842" lon="-3.5049">
        <ele>5.68</ele>
        <time>2020-07-10T10:01:30Z</time>
      </trkpt>
      <trkpt lat="47.75846" lon="-3.50486">
        <ele>5.45</ele>
        <time>2020-07-10T10:01:31Z</time>
      </trkpt>
      <trkpt lat="47.7585" lon="-3.50481">
        <ele>5.31</ele>
        <time>2020-07-10T10:01:32Z</time>
      </trkpt>
      <trkpt lat="47.75854" lon="-3.50476">
        <ele>5.25</ele>
        <time>2020-07-10T10:01:33Z</time>
      </trkpt>
      <trkpt lat="47.75858" lon="-3.50473">
        <ele>5.21</ele>
        <time>2020-07-10T10:01:34Z</time>
      </trkpt>
      <trkpt lat="47.75861" lon="-3.5047">
        <ele>5.21</ele>
        <time>2020-07-10T10:01:35Z</time>
      </trkpt>
      <trkpt lat="47.75864" lon="-3.50466">
        <ele>5.22</ele>
        <time>2020-07-10T10:01:36Z</time>
      </trkpt>
      <trkpt lat="47.75868" lon="-3.50463">
        <ele>5.16</ele>
        <time>2020-07-10T10:01:37Z</time>
      </trkpt>
      <trkpt lat="47.75871" lon="-3.50459">
        <ele>5.08</ele>
        <time>2020-07-10T10:01:38Z</time>
      </trkpt>
      <trkpt lat="47.75875" lon="-3.50454">
        <ele>4.97</ele>
        <time>2020-07-10T10:01:39Z</time>
      </trkpt>
      <trkpt lat="47.75879" lon="-3.5045">
        <ele>4.85</ele>
        <time>2020-07-10T10:01:40Z</time>
      </trkpt>
      <trkpt lat="47.75882" lon="-3.50445">
        <ele>4.72</ele>
        <time>2020-07-10T10:01:41Z</time>
      </trkpt>
      <trkpt lat="47.75886" lon="-3.5044">
        <ele>4.56</ele>
        <time>2020-07-10T10:01:42Z</time>
      </trkpt>
      <trkpt lat="47.75888" lon="-3.50434">
        <ele>4.46</ele>
        <time>2020-07-10T10:01:43Z</time>
      </trkpt>
      <trkpt lat="47.75891" lon="-3.50427">
        <ele>4.46</ele>
        <time>2020-07-10T10:01:44Z</time>
      </trkpt>
      <trkpt lat="47.75893" lon="-3.5042">
        <ele>4.55</ele>
        <time>2020-07-10T10:01:45Z</time>
      </trkpt>
      <trkpt lat="47.75895" lon="-3.50413">
        <ele>4.64</ele>
        <time>2020-07-10T10:01:46Z</time>
      </trkpt>
      <trkpt lat="47.75897" lon="-3.50407">
        <ele>4.63</ele>
        <time>2020-07-10T10:01:47Z</time>
      </trkpt>
      <trkpt lat="47.759" lon="-3.504">
        <ele>4.57</ele>
        <time>2020-07-10T10:01:48Z</time>
      </trkpt>
      <trkpt lat="47.75902" lon="-3.50393">
        <ele>4.51</ele>
        <time>2020-07-10T10:01:49Z</time>
      </trkpt>
      <trkpt lat="47.75904" lon="-3.50385">
        <ele>4.41</ele>
        <time>2020-07-10T10:01:50Z</time>
      </trkpt>
      <trkpt lat="47.75906" lon="-3.50377">
        <ele>4.24</ele>
        <time>2020-07-10T10:01:51Z</time>
      </trkpt>
      <trkpt lat="47.75907" lon="-3.5037">
        <ele>4.09</ele>
        <time>2020-07-10T10:01:52Z</time>
      </trkpt>
      <trkpt lat="47.75908" lon="-3.50361">
        <ele>3.94</ele>
        <time>2020-07-10T10:01:53Z</time>
      </trkpt>
      <trkpt lat="47.75909" lon="-3.50354">
        <ele>3.79</ele>
        <time>2020-07-10T10:01:54Z</time>
      </trkpt>
      <trkpt lat="47.7591" lon="-3.50347">
        <ele>3.66</ele>
        <time>2020-07-10T10:01:55Z</time>
      </trkpt>
      <trkpt lat="47.75911" lon="-3.50339">
        <ele>3.51</ele>
        <time>2020-07-10T10:01:56Z</time>
      </trkpt>
      <trkpt lat="47.75912" lon="-3.50331">
        <ele>3.39</ele>
        <time>2020-07-10T10:01:57Z</time>
      </trkpt>
      <trkpt lat="47.75913" lon="-3.50323">
        <ele>3.27</ele>
        <time>2020-07-10T10:01:58Z</time>
      </trkpt>
      <trkpt lat="47.75914" lon="-3.50316">
        <ele>3.16</ele>
        <time>2020-07-10T10:01:59Z</time>
      </trkpt>
      <trkpt lat="47.75916" lon="-3.5031">
        <ele>3.06</ele>
        <time>2020-07-10T10:02:00Z</time>
      </trkpt>
      <trkpt lat="47.75919" lon="-3.50303">
        <ele>2.97</ele>
        <time>2020-07-10T10:02:01Z</time>
      </trkpt>
      <trkpt lat="47.7592" lon="-3.50296">
        <ele>2.91</ele>
        <time>2020-07-10T10:02:02Z</time>
      </trkpt>
      <trkpt lat="47.75921" lon="-3.50289">
        <ele>2.86</ele>
        <time>2020-07-10T10:02:03Z</time>
      </trkpt>
      <trkpt lat="47.75922" lon="-3.50282">
        <ele>2.83</ele>
        <time>2020-07-10T10:02:04Z</time>
      </trkpt>
      <trkpt lat="47.75921" lon="-3.50275">
        <ele>2.83</ele>
        <time>2020-07-10T10:02:05Z</time>
      </trkpt>
      <trkpt lat="47.75919" lon="-3.50269">
        <ele>2.88</ele>
        <time>2020-07-10T10:02:06Z</time>
      </trkpt>
      <trkpt lat="47.75918" lon="-3.50266">
        <ele>2.94</ele>
        <time>2020-07-10T10:02:07Z</time>
      </trkpt>
      <trkpt lat="47.75917" lon="-3.50262">
        <ele>2.98</ele>
        <time>2020-07-10T10:02:08Z</time>
      </trkpt>
      <trkpt lat="47.75916" lon="-3.50258">
        <ele>2.99</ele>
        <time>2020-07-10T10:02:09Z</time>
      </trkpt>
      <trkpt lat="47.75915" lon="-3.50256">
        <ele>3</ele>
        <time>2020-07-10T10:02:10Z</time>
      </trkpt>
      <trkpt lat="47.75915" lon="-3.50253">
        <ele>3</ele>
        <time>2020-07-10T10:02:11Z</time>
      </trkpt>
      <trkpt lat="47.75915" lon="-3.5025">
        <ele>3</ele>
        <time>2020-07-10T10:02:12Z</time>
      </trkpt>
      <trkpt lat="47.75915" lon="-3.50246">
        <ele>3</ele>
        <time>2020-07-10T10:02:13Z</time>
      </trkpt>
      <trkpt lat="47.75915" lon="-3.50242">
        <ele>3</ele>
        <time>2020-07-10T10:02:14Z</time>
      </trkpt>
      <trkpt lat="47.75915" lon="-3.50239">
        <ele>3</ele>
        <time>2020-07-10T10:02:15Z</time>
      </trkpt>
      <trkpt lat="47.75914" lon="-3.50235">
        <ele>3</ele>
        <time>2020-07-10T10:02:16Z</time>
      </trkpt>
      <trkpt lat="47.75915" lon="-3.50231">
        <ele>3</ele>
        <time>2020-07-10T10:02:17Z</time>
      </trkpt>
      <trkpt lat="47.75915" lon="-3.50227">
        <ele>3</ele>
        <time>2020-07-10T10:02:18Z</time>
      </trkpt>
      <trkpt lat="47.75917" lon="-3.50223">
        <ele>3</ele>
        <time>2020-07-10T10:02:19Z</time>
      </trkpt>
      <trkpt lat="47.75919" lon="-3.50218">
        <ele>3.01</ele>
        <time>2020-07-10T10:02:20Z</time>
      </trkpt>
      <trkpt lat="47.7592" lon="-3.50213">
        <ele>3.03</ele>
        <time>2020-07-10T10:02:21Z</time>
      </trkpt>
      <trkpt lat="47.75921" lon="-3.5021">
        <ele>3.06</ele>
        <time>2020-07-10T10:02:22Z</time>
      </trkpt>
      <trkpt lat="47.75922" lon="-3.50204">
        <ele>3.11</ele>
        <time>2020-07-10T10:02:23Z</time>
      </trkpt>
      <trkpt lat="47.75922" lon="-3.50197">
        <ele>3.16</ele>
        <time>2020-07-10T10:02:24Z</time>
      </trkpt>
      <trkpt lat="47.75922" lon="-3.50193">
        <ele>3.23</ele>
        <time>2020-07-10T10:02:25Z</time>
      </trkpt>
      <trkpt lat="47.7592" lon="-3.50187">
        <ele>3.32</ele>
        <time>2020-07-10T10:02:26Z</time>
      </trkpt>
      <trkpt lat="47.75918" lon="-3.50179">
        <ele>3.5</ele>
        <time>2020-07-10T10:02:27Z</time>
      </trkpt>
      <trkpt lat="47.75916" lon="-3.50171">
        <ele>3.73</ele>
        <time>2020-07-10T10:02:28Z</time>
      </trkpt>
      <trkpt lat="47.75918" lon="-3.50166">
        <ele>3.93</ele>
        <time>2020-07-10T10:02:29Z</time>
      </trkpt>
      <trkpt lat="47.7592" lon="-3.50161">
        <ele>4.12</ele>
        <time>2020-07-10T10:02:30Z</time>
      </trkpt>
      <trkpt lat="47.75923" lon="-3.50158">
        <ele>4.25</ele>
        <time>2020-07-10T10:02:31Z</time>
      </trkpt>
      <trkpt lat="47.75926" lon="-3.50155">
        <ele>4.37</ele>
        <time>2020-07-10T10:02:32Z</time>
      </trkpt>
      <trkpt lat="47.75928" lon="-3.50151">
        <ele>4.52</ele>
        <time>2020-07-10T10:02:33Z</time>
      </trkpt>
      <trkpt lat="47.7593" lon="-3.50144">
        <ele>4.72</ele>
        <time>2020-07-10T10:02:34Z</time>
      </trkpt>
      <trkpt lat="47.75932" lon="-3.50138">
        <ele>4.93</ele>
        <time>2020-07-10T10:02:35Z</time>
      </trkpt>
      <trkpt lat="47.75934" lon="-3.50134">
        <ele>5.1</ele>
        <time>2020-07-10T10:02:36Z</time>
      </trkpt>
      <trkpt lat="47.75937" lon="-3.5013">
        <ele>5.25</ele>
        <time>2020-07-10T10:02:37Z</time>
      </trkpt>
      <trkpt lat="47.7594" lon="-3.50126">
        <ele>5.4</ele>
        <time>2020-07-10T10:02:38Z</time>
      </trkpt>
      <trkpt lat="47.75943" lon="-3.50121">
        <ele>5.57</ele>
        <time>2020-07-10T10:02:39Z</time>
      </trkpt>
      <trkpt lat="47.75946" lon="-3.50117">
        <ele>5.73</ele>
        <time>2020-07-10T10:02:40Z</time>
      </trkpt>
      <trkpt lat="47.75949" lon="-3.50113">
        <ele>5.88</ele>
        <time>2020-07-10T10:02:41Z</time>
      </trkpt>
      <trkpt lat="47.75951" lon="-3.50109">
        <ele>6.03</ele>
        <time>2020-07-10T10:02:42Z</time>
      </trkpt>
      <trkpt lat="47.75954" lon="-3.50105">
        <ele>6.23</ele>
        <time>2020-07-10T10:02:43Z</time>
      </trkpt>
      <trkpt lat="47.75957" lon="-3.50101">
        <ele>6.44</ele>
        <time>2020-07-10T10:02:44Z</time>
      </trkpt>
      <trkpt lat="47.75961" lon="-3.50097">
        <ele>6.7</ele>
        <time>2020-07-10T10:02:45Z</time>
      </trkpt>
      <trkpt lat="47.75964" lon="-3.50093">
        <ele>7</ele>
        <time>2020-07-10T10:02:46Z</time>
      </trkpt>
      <trkpt lat="47.75967" lon="-3.50088">
        <ele>7.36</ele>
        <time>2020-07-10T10:02:47Z</time>
      </trkpt>
      <trkpt lat="47.7597" lon="-3.50083">
        <ele>7.76</ele>
        <time>2020-07-10T10:02:48Z</time>
      </trkpt>
      <trkpt lat="47.75974" lon="-3.50079">
        <ele>7.88</ele>
        <time>2020-07-10T10:02:49Z</time>
      </trkpt>
      <trkpt lat="47.75977" lon="-3.50075">
        <ele>7.84</ele>
        <time>2020-07-10T10:02:50Z</time>
      </trkpt>
      <trkpt lat="47.75981" lon="-3.5007">
        <ele>7.74</ele>
        <time>2020-07-10T10:02:51Z</time>
      </trkpt>
      <trkpt lat="47.75984" lon="-3.50066">
        <ele>7.63</ele>
        <time>2020-07-10T10:02:52Z</time>
      </trkpt>
      <trkpt lat="47.75987" lon="-3.50061">
        <ele>7.51</ele>
        <time>2020-07-10T10:02:53Z</time>
      </trkpt>
      <trkpt lat="47.75991" lon="-3.50057">
        <ele>7.38</ele>
        <time>2020-07-10T10:02:54Z</time>
      </trkpt>
      <trkpt lat="47.75994" lon="-3.50052">
        <ele>7.27</ele>
        <time>2020-07-10T10:02:55Z</time>
      </trkpt>
      <trkpt lat="47.75998" lon="-3.50047">
        <ele>7.15</ele>
        <time>2020-07-10T10:02:56Z</time>
      </trkpt>
      <trkpt lat="47.76001" lon="-3.50042">
        <ele>7.01</ele>
        <time>2020-07-10T10:02:57Z</time>
      </trkpt>
      <trkpt lat="47.76005" lon="-3.50037">
        <ele>6.88</ele>
        <time>2020-07-10T10:02:58Z</time>
      </trkpt>
      <trkpt lat="47.76009" lon="-3.50033">
        <ele>6.74</ele>
        <time>2020-07-10T10:02:59Z</time>
      </trkpt>
      <trkpt lat="47.76013" lon="-3.50029">
        <ele>6.61</ele>
        <time>2020-07-10T10:03:00Z</time>
      </trkpt>
      <trkpt lat="47.76016" lon="-3.50024">
        <ele>6.47</ele>
        <time>2020-07-10T10:03:01Z</time>
      </trkpt>
      <trkpt lat="47.7602" lon="-3.5002">
        <ele>6.34</ele>
        <time>2020-07-10T10:03:02Z</time>
      </trkpt>
      <trkpt lat="47.76024" lon="-3.50016">
        <ele>6.2</ele>
        <time>2020-07-10T10:03:03Z</time>
      </trkpt>
      <trkpt lat="47.76028" lon="-3.50011">
        <ele>6.05</ele>
        <time>2020-07-10T10:03:04Z</time>
      </trkpt>
      <trkpt lat="47.76032" lon="-3.50006">
        <ele>5.89</ele>
        <time>2020-07-10T10:03:05Z</time>
      </trkpt>
      <trkpt lat="47.76036" lon="-3.50001">
        <ele>5.76</ele>
        <time>2020-07-10T10:03:06Z</time>
      </trkpt>
      <trkpt lat="47.76039" lon="-3.49996">
        <ele>5.76</ele>
        <time>2020-07-10T10:03:07Z</time>
      </trkpt>
      <trkpt lat="47.76043" lon="-3.49992">
        <ele>5.87</ele>
        <time>2020-07-10T10:03:08Z</time>
      </trkpt>
      <trkpt lat="47.76046" lon="-3.49987">
        <ele>6.04</ele>
        <time>2020-07-10T10:03:09Z</time>
      </trkpt>
      <trkpt lat="47.76049" lon="-3.49982">
        <ele>6.26</ele>
        <time>2020-07-10T10:03:10Z</time>
      </trkpt>
      <trkpt lat="47.7605" lon="-3.49977">
        <ele>6.56</ele>
        <time>2020-07-10T10:03:11Z</time>
      </trkpt>
      <trkpt lat="47.76051" lon="-3.4997">
        <ele>6.91</ele>
        <time>2020-07-10T10:03:12Z</time>
      </trkpt>
      <trkpt lat="47.76051" lon="-3.49964">
        <ele>7.17</ele>
        <time>2020-07-10T10:03:13Z</time>
      </trkpt>
      <trkpt lat="47.76051" lon="-3.49959">
        <ele>7.39</ele>
        <time>2020-07-10T10:03:14Z</time>
      </trkpt>
      <trkpt lat="47.7605" lon="-3.49954">
        <ele>7.59</ele>
        <time>2020-07-10T10:03:15Z</time>
      </trkpt>
      <trkpt lat="47.7605" lon="-3.49948">
        <ele>7.78</ele>
        <time>2020-07-10T10:03:16Z</time>
      </trkpt>
      <trkpt lat="47.76049" lon="-3.49944">
        <ele>7.95</ele>
        <time>2020-07-10T10:03:17Z</time>
      </trkpt>
      <trkpt lat="47.76049" lon="-3.4994">
        <ele>8.2</ele>
        <time>2020-07-10T10:03:18Z</time>
      </trkpt>
      <trkpt lat="47.76049" lon="-3.49935">
        <ele>8.5</ele>
        <time>2020-07-10T10:03:19Z</time>
      </trkpt>
      <trkpt lat="47.76049" lon="-3.4993">
        <ele>8.79</ele>
        <time>2020-07-10T10:03:20Z</time>
      </trkpt>
      <trkpt lat="47.76049" lon="-3.49925">
        <ele>9.09</ele>
        <time>2020-07-10T10:03:21Z</time>
      </trkpt>
      <trkpt lat="47.76049" lon="-3.49921">
        <ele>9.38</ele>
        <time>2020-07-10T10:03:22Z</time>
      </trkpt>
      <trkpt lat="47.76048" lon="-3.49916">
        <ele>9.65</ele>
        <time>2020-07-10T10:03:23Z</time>
      </trkpt>
      <trkpt lat="47.76048" lon="-3.49911">
        <ele>10</ele>
        <time>2020-07-10T10:03:24Z</time>
      </trkpt>
      <trkpt lat="47.76048" lon="-3.49907">
        <ele>10.32</ele>
        <time>2020-07-10T10:03:25Z</time>
      </trkpt>
      <trkpt lat="47.76048" lon="-3.49902">
        <ele>10.64</ele>
        <time>2020-07-10T10:03:26Z</time>
      </trkpt>
      <trkpt lat="47.76047" lon="-3.49898">
        <ele>10.95</ele>
        <time>2020-07-10T10:03:27Z</time>
      </trkpt>
      <trkpt lat="47.76047" lon="-3.49894">
        <ele>11.24</ele>
        <time>2020-07-10T10:03:28Z</time>
      </trkpt>
      <trkpt lat="47.76047" lon="-3.49889">
        <ele>11.53</ele>
        <time>2020-07-10T10:03:29Z</time>
      </trkpt>
      <trkpt lat="47.76047" lon="-3.49886">
        <ele>11.78</ele>
        <time>2020-07-10T10:03:30Z</time>
      </trkpt>
      <trkpt lat="47.76046" lon="-3.49882">
        <ele>12.01</ele>
        <time>2020-07-10T10:03:31Z</time>
      </trkpt>
      <trkpt lat="47.76047" lon="-3.49878">
        <ele>12.26</ele>
        <time>2020-07-10T10:03:32Z</time>
      </trkpt>
      <trkpt lat="47.76046" lon="-3.49873">
        <ele>12.51</ele>
        <time>2020-07-10T10:03:33Z</time>
      </trkpt>
      <trkpt lat="47.76046" lon="-3.49869">
        <ele>12.78</ele>
        <time>2020-07-10T10:03:34Z</time>
      </trkpt>
      <trkpt lat="47.76046" lon="-3.49865">
        <ele>13.03</ele>
        <time>2020-07-10T10:03:35Z</time>
      </trkpt>
      <trkpt lat="47.76046" lon="-3.4986">
        <ele>13.29</ele>
        <time>2020-07-10T10:03:36Z</time>
      </trkpt>
      <trkpt lat="47.76046" lon="-3.49856">
        <ele>13.59</ele>
        <time>2020-07-10T10:03:37Z</time>
      </trkpt>
      <trkpt lat="47.76046" lon="-3.49852">
        <ele>13.88</ele>
        <time>2020-07-10T10:03:38Z</time>
      </trkpt>
      <trkpt lat="47.76046" lon="-3.49848">
        <ele>14.16</ele>
        <time>2020-07-10T10:03:39Z</time>
      </trkpt>
      <trkpt lat="47.76046" lon="-3.49844">
        <ele>14.45</ele>
        <time>2020-07-10T10:03:40Z</time>
      </trkpt>
      <trkpt lat="47.76046" lon="-3.4984">
        <ele>14.74</ele>
        <time>2020-07-10T10:03:41Z</time>
      </trkpt>
      <trkpt lat="47.76046" lon="-3.49836">
        <ele>15.05</ele>
        <time>2020-07-10T10:03:42Z</time>
      </trkpt>
      <trkpt lat="47.76047" lon="-3.49831">
        <ele>15.4</ele>
        <time>2020-07-10T10:03:43Z</time>
      </trkpt>
      <trkpt lat="47.76047" lon="-3.49827">
        <ele>15.78</ele>
        <time>2020-07-10T10:03:44Z</time>
      </trkpt>
      <trkpt lat="47.76048" lon="-3.49823">
        <ele>16.12</ele>
        <time>2020-07-10T10:03:45Z</time>
      </trkpt>
      <trkpt lat="47.76048" lon="-3.49819">
        <ele>16.46</ele>
        <time>2020-07-10T10:03:46Z</time>
      </trkpt>
      <trkpt lat="47.76048" lon="-3.49815">
        <ele>16.8</ele>
        <time>2020-07-10T10:03:47Z</time>
      </trkpt>
      <trkpt lat="47.76048" lon="-3.49811">
        <ele>17.16</ele>
        <time>2020-07-10T10:03:48Z</time>
      </trkpt>
      <trkpt lat="47.76048" lon="-3.49806">
        <ele>17.51</ele>
        <time>2020-07-10T10:03:49Z</time>
      </trkpt>
      <trkpt lat="47.76049" lon="-3.49802">
        <ele>17.83</ele>
        <time>2020-07-10T10:03:50Z</time>
      </trkpt>
      <trkpt lat="47.76049" lon="-3.49797">
        <ele>18.13</ele>
        <time>2020-07-10T10:03:51Z</time>
      </trkpt>
      <trkpt lat="47.76049" lon="-3.49793">
        <ele>18.41</ele>
        <time>2020-07-10T10:03:52Z</time>
      </trkpt>
      <trkpt lat="47.76049" lon="-3.49789">
        <ele>18.7</ele>
        <time>2020-07-10T10:03:53Z</time>
      </trkpt>
      <trkpt lat="47.76049" lon="-3.49784">
        <ele>18.99</ele>
        <time>2020-07-10T10:03:54Z</time>
      </trkpt>
      <trkpt lat="47.76049" lon="-3.4978">
        <ele>19.27</ele>
        <time>2020-07-10T10:03:55Z</time>
      </trkpt>
      <trkpt lat="47.7605" lon="-3.49776">
        <ele>19.53</ele>
        <time>2020-07-10T10:03:56Z</time>
      </trkpt>
      <trkpt lat="47.76051" lon="-3.49772">
        <ele>19.75</ele>
        <time>2020-07-10T10:03:57Z</time>
      </trkpt>
      <trkpt lat="47.76051" lon="-3.49768">
        <ele>19.96</ele>
        <time>2020-07-10T10:03:58Z</time>
      </trkpt>
      <trkpt lat="47.76052" lon="-3.49763">
        <ele>20.16</ele>
        <time>2020-07-10T10:03:59Z</time>
      </trkpt>
      <trkpt lat="47.76052" lon="-3.49759">
        <ele>20.36</ele>
        <time>2020-07-10T10:04:00Z</time>
      </trkpt>
      <trkpt lat="47.76053" lon="-3.49754">
        <ele>20.56</ele>
        <time>2020-07-10T10:04:01Z</time>
      </trkpt>
      <trkpt lat="47.76053" lon="-3.4975">
        <ele>20.75</ele>
        <time>2020-07-10T10:04:02Z</time>
      </trkpt>
      <trkpt lat="47.76054" lon="-3.49746">
        <ele>21.02</ele>
        <time>2020-07-10T10:04:03Z</time>
      </trkpt>
      <trkpt lat="47.76055" lon="-3.49742">
        <ele>21.36</ele>
        <time>2020-07-10T10:04:04Z</time>
      </trkpt>
      <trkpt lat="47.76055" lon="-3.49738">
        <ele>21.7</ele>
        <time>2020-07-10T10:04:05Z</time>
      </trkpt>
      <trkpt lat="47.76056" lon="-3.49734">
        <ele>22.04</ele>
        <time>2020-07-10T10:04:06Z</time>
      </trkpt>
      <trkpt lat="47.76057" lon="-3.4973">
        <ele>22.36</ele>
        <time>2020-07-10T10:04:07Z</time>
      </trkpt>
      <trkpt lat="47.76058" lon="-3.49726">
        <ele>22.68</ele>
        <time>2020-07-10T10:04:08Z</time>
      </trkpt>
      <trkpt lat="47.76059" lon="-3.49722">
        <ele>23.01</ele>
        <time>2020-07-10T10:04:09Z</time>
      </trkpt>
      <trkpt lat="47.76061" lon="-3.49718">
        <ele>23.31</ele>
        <time>2020-07-10T10:04:10Z</time>
      </trkpt>
      <trkpt lat="47.76062" lon="-3.49714">
        <ele>23.6</ele>
        <time>2020-07-10T10:04:11Z</time>
      </trkpt>
      <trkpt lat="47.76062" lon="-3.4971">
        <ele>23.89</ele>
        <time>2020-07-10T10:04:12Z</time>
      </trkpt>
      <trkpt lat="47.76063" lon="-3.49706">
        <ele>24.18</ele>
        <time>2020-07-10T10:04:13Z</time>
      </trkpt>
      <trkpt lat="47.76064" lon="-3.49702">
        <ele>24.45</ele>
        <time>2020-07-10T10:04:14Z</time>
      </trkpt>
      <trkpt lat="47.76065" lon="-3.49698">
        <ele>24.7</ele>
        <time>2020-07-10T10:04:15Z</time>
      </trkpt>
      <trkpt lat="47.76066" lon="-3.49694">
        <ele>24.93</ele>
        <time>2020-07-10T10:04:16Z</time>
      </trkpt>
      <trkpt lat="47.76067" lon="-3.4969">
        <ele>25.1</ele>
        <time>2020-07-10T10:04:17Z</time>
      </trkpt>
      <trkpt lat="47.76068" lon="-3.49685">
        <ele>25.26</ele>
        <time>2020-07-10T10:04:18Z</time>
      </trkpt>
      <trkpt lat="47.76068" lon="-3.49681">
        <ele>25.41</ele>
        <time>2020-07-10T10:04:19Z</time>
      </trkpt>
      <trkpt lat="47.76069" lon="-3.49677">
        <ele>25.55</ele>
        <time>2020-07-10T10:04:20Z</time>
      </trkpt>
      <trkpt lat="47.76069" lon="-3.49673">
        <ele>25.7</ele>
        <time>2020-07-10T10:04:21Z</time>
      </trkpt>
      <trkpt lat="47.7607" lon="-3.49669">
        <ele>25.85</ele>
        <time>2020-07-10T10:04:22Z</time>
      </trkpt>
      <trkpt lat="47.76071" lon="-3.49665">
        <ele>26.04</ele>
        <time>2020-07-10T10:04:23Z</time>
      </trkpt>
      <trkpt lat="47.76071" lon="-3.4966">
        <ele>26.27</ele>
        <time>2020-07-10T10:04:24Z</time>
      </trkpt>
      <trkpt lat="47.76073" lon="-3.49656">
        <ele>26.53</ele>
        <time>2020-07-10T10:04:25Z</time>
      </trkpt>
      <trkpt lat="47.76074" lon="-3.49651">
        <ele>26.82</ele>
        <time>2020-07-10T10:04:26Z</time>
      </trkpt>
      <trkpt lat="47.76075" lon="-3.49646">
        <ele>27.14</ele>
        <time>2020-07-10T10:04:27Z</time>
      </trkpt>
      <trkpt lat="47.76077" lon="-3.49641">
        <ele>27.47</ele>
        <time>2020-07-10T10:04:28Z</time>
      </trkpt>
      <trkpt lat="47.76078" lon="-3.49637">
        <ele>27.76</ele>
        <time>2020-07-10T10:04:29Z</time>
      </trkpt>
      <trkpt lat="47.76079" lon="-3.49632">
        <ele>28</ele>
        <time>2020-07-10T10:04:30Z</time>
      </trkpt>
      <trkpt lat="47.7608" lon="-3.49628">
        <ele>28.22</ele>
        <time>2020-07-10T10:04:31Z</time>
      </trkpt>
      <trkpt lat="47.76081" lon="-3.49624">
        <ele>28.43</ele>
        <time>2020-07-10T10:04:32Z</time>
      </trkpt>
      <trkpt lat="47.76083" lon="-3.49619">
        <ele>28.62</ele>
        <time>2020-07-10T10:04:33Z</time>
      </trkpt>
      <trkpt lat="47.76084" lon="-3.49615">
        <ele>28.77</ele>
        <time>2020-07-10T10:04:34Z</time>
      </trkpt>
      <trkpt lat="47.76086" lon="-3.49611">
        <ele>28.88</ele>
        <time>2020-07-10T10:04:35Z</time>
      </trkpt>
      <trkpt lat="47.76087" lon="-3.49607">
        <ele>28.98</ele>
        <time>2020-07-10T10:04:36Z</time>
      </trkpt>
      <trkpt lat="47.76088" lon="-3.49603">
        <ele>29.09</ele>
        <time>2020-07-10T10:04:37Z</time>
      </trkpt>
      <trkpt lat="47.76089" lon="-3.49598">
        <ele>29.21</ele>
        <time>2020-07-10T10:04:38Z</time>
      </trkpt>
      <trkpt lat="47.7609" lon="-3.49594">
        <ele>29.33</ele>
        <time>2020-07-10T10:04:39Z</time>
      </trkpt>
      <trkpt lat="47.76091" lon="-3.49589">
        <ele>29.47</ele>
        <time>2020-07-10T10:04:40Z</time>
      </trkpt>
      <trkpt lat="47.76092" lon="-3.49584">
        <ele>29.61</ele>
        <time>2020-07-10T10:04:41Z</time>
      </trkpt>
      <trkpt lat="47.76093" lon="-3.49579">
        <ele>29.76</ele>
        <time>2020-07-10T10:04:42Z</time>
      </trkpt>
      <trkpt lat="47.76093" lon="-3.49575">
        <ele>29.9</ele>
        <time>2020-07-10T10:04:43Z</time>
      </trkpt>
      <trkpt lat="47.76094" lon="-3.49572">
        <ele>30</ele>
        <time>2020-07-10T10:04:44Z</time>
      </trkpt>
      <trkpt lat="47.76097" lon="-3.4957">
        <ele>29.99</ele>
        <time>2020-07-10T10:04:45Z</time>
      </trkpt>
      <trkpt lat="47.76101" lon="-3.49569">
        <ele>29.92</ele>
        <time>2020-07-10T10:04:46Z</time>
      </trkpt>
      <trkpt lat="47.76104" lon="-3.49571">
        <ele>29.77</ele>
        <time>2020-07-10T10:04:47Z</time>
      </trkpt>
      <trkpt lat="47.76108" lon="-3.49572">
        <ele>29.59</ele>
        <time>2020-07-10T10:04:48Z</time>
      </trkpt>
      <trkpt lat="47.76112" lon="-3.49572">
        <ele>29.42</ele>
        <time>2020-07-10T10:04:49Z</time>
      </trkpt>
      <trkpt lat="47.76117" lon="-3.49573">
        <ele>29.19</ele>
        <time>2020-07-10T10:04:50Z</time>
      </trkpt>
      <trkpt lat="47.76121" lon="-3.49574">
        <ele>28.95</ele>
        <time>2020-07-10T10:04:51Z</time>
      </trkpt>
      <trkpt lat="47.76126" lon="-3.49576">
        <ele>28.7</ele>
        <time>2020-07-10T10:04:52Z</time>
      </trkpt>
      <trkpt lat="47.7613" lon="-3.49577">
        <ele>28.47</ele>
        <time>2020-07-10T10:04:53Z</time>
      </trkpt>
      <trkpt lat="47.76134" lon="-3.49577">
        <ele>28.28</ele>
        <time>2020-07-10T10:04:54Z</time>
      </trkpt>
      <trkpt lat="47.76138" lon="-3.49574">
        <ele>28.13</ele>
        <time>2020-07-10T10:04:55Z</time>
      </trkpt>
      <trkpt lat="47.76141" lon="-3.4957">
        <ele>27.96</ele>
        <time>2020-07-10T10:04:56Z</time>
      </trkpt>
      <trkpt lat="47.76143" lon="-3.49566">
        <ele>27.76</ele>
        <time>2020-07-10T10:04:57Z</time>
      </trkpt>
      <trkpt lat="47.76146" lon="-3.49561">
        <ele>27.58</ele>
        <time>2020-07-10T10:04:58Z</time>
      </trkpt>
      <trkpt lat="47.76148" lon="-3.49556">
        <ele>27.41</ele>
        <time>2020-07-10T10:04:59Z</time>
      </trkpt>
      <trkpt lat="47.76151" lon="-3.49551">
        <ele>27.23</ele>
        <time>2020-07-10T10:05:00Z</time>
      </trkpt>
      <trkpt lat="47.76154" lon="-3.49546">
        <ele>27.03</ele>
        <time>2020-07-10T10:05:01Z</time>
      </trkpt>
      <trkpt lat="47.76156" lon="-3.49539">
        <ele>26.85</ele>
        <time>2020-07-10T10:05:02Z</time>
      </trkpt>
      <trkpt lat="47.76158" lon="-3.49531">
        <ele>26.71</ele>
        <time>2020-07-10T10:05:03Z</time>
      </trkpt>
      <trkpt lat="47.7616" lon="-3.49524">
        <ele>26.58</ele>
        <time>2020-07-10T10:05:04Z</time>
      </trkpt>
      <trkpt lat="47.76163" lon="-3.49517">
        <ele>26.42</ele>
        <time>2020-07-10T10:05:05Z</time>
      </trkpt>
      <trkpt lat="47.76166" lon="-3.4951">
        <ele>26.19</ele>
        <time>2020-07-10T10:05:06Z</time>
      </trkpt>
      <trkpt lat="47.76169" lon="-3.49503">
        <ele>25.91</ele>
        <time>2020-07-10T10:05:07Z</time>
      </trkpt>
      <trkpt lat="47.76171" lon="-3.49495">
        <ele>25.72</ele>
        <time>2020-07-10T10:05:08Z</time>
      </trkpt>
      <trkpt lat="47.76174" lon="-3.49488">
        <ele>25.69</ele>
        <time>2020-07-10T10:05:09Z</time>
      </trkpt>
      <trkpt lat="47.76176" lon="-3.4948">
        <ele>25.69</ele>
        <time>2020-07-10T10:05:10Z</time>
      </trkpt>
      <trkpt lat="47.76179" lon="-3.49472">
        <ele>25.65</ele>
        <time>2020-07-10T10:05:11Z</time>
      </trkpt>
      <trkpt lat="47.76182" lon="-3.49465">
        <ele>25.51</ele>
        <time>2020-07-10T10:05:12Z</time>
      </trkpt>
      <trkpt lat="47.76185" lon="-3.49458">
        <ele>25.4</ele>
        <time>2020-07-10T10:05:13Z</time>
      </trkpt>
      <trkpt lat="47.76188" lon="-3.49452">
        <ele>25.32</ele>
        <time>2020-07-10T10:05:14Z</time>
      </trkpt>
      <trkpt lat="47.76191" lon="-3.49447">
        <ele>25.22</ele>
        <time>2020-07-10T10:05:15Z</time>
      </trkpt>
      <trkpt lat="47.76196" lon="-3.49444">
        <ele>24.94</ele>
        <time>2020-07-10T10:05:16Z</time>
      </trkpt>
      <trkpt lat="47.76203" lon="-3.49445">
        <ele>24.36</ele>
        <time>2020-07-10T10:05:17Z</time>
      </trkpt>
      <trkpt lat="47.76209" lon="-3.49448">
        <ele>23.66</ele>
        <time>2020-07-10T10:05:18Z</time>
      </trkpt>
      <trkpt lat="47.76215" lon="-3.49452">
        <ele>22.87</ele>
        <time>2020-07-10T10:05:19Z</time>
      </trkpt>
      <trkpt lat="47.7622" lon="-3.49457">
        <ele>22.11</ele>
        <time>2020-07-10T10:05:20Z</time>
      </trkpt>
      <trkpt lat="47.76226" lon="-3.49462">
        <ele>21.47</ele>
        <time>2020-07-10T10:05:21Z</time>
      </trkpt>
      <trkpt lat="47.76232" lon="-3.49467">
        <ele>20.98</ele>
        <time>2020-07-10T10:05:22Z</time>
      </trkpt>
      <trkpt lat="47.76238" lon="-3.49473">
        <ele>20.58</ele>
        <time>2020-07-10T10:05:23Z</time>
      </trkpt>
      <trkpt lat="47.76244" lon="-3.49479">
        <ele>20.19</ele>
        <time>2020-07-10T10:05:24Z</time>
      </trkpt>
      <trkpt lat="47.76251" lon="-3.49485">
        <ele>19.68</ele>
        <time>2020-07-10T10:05:25Z</time>
      </trkpt>
      <trkpt lat="47.76259" lon="-3.49491">
        <ele>19</ele>
        <time>2020-07-10T10:05:26Z</time>
      </trkpt>
      <trkpt lat="47.76266" lon="-3.49497">
        <ele>18.3</ele>
        <time>2020-07-10T10:05:27Z</time>
      </trkpt>
      <trkpt lat="47.76273" lon="-3.49503">
        <ele>17.55</ele>
        <time>2020-07-10T10:05:28Z</time>
      </trkpt>
      <trkpt lat="47.76281" lon="-3.49508">
        <ele>16.85</ele>
        <time>2020-07-10T10:05:29Z</time>
      </trkpt>
      <trkpt lat="47.76289" lon="-3.49514">
        <ele>16.19</ele>
        <time>2020-07-10T10:05:30Z</time>
      </trkpt>
      <trkpt lat="47.76297" lon="-3.4952">
        <ele>15.45</ele>
        <time>2020-07-10T10:05:31Z</time>
      </trkpt>
      <trkpt lat="47.76305" lon="-3.49526">
        <ele>14.58</ele>
        <time>2020-07-10T10:05:32Z</time>
      </trkpt>
      <trkpt lat="47.76313" lon="-3.49532">
        <ele>13.96</ele>
        <time>2020-07-10T10:05:33Z</time>
      </trkpt>
      <trkpt lat="47.76321" lon="-3.49539">
        <ele>13.46</ele>
        <time>2020-07-10T10:05:34Z</time>
      </trkpt>
      <trkpt lat="47.76328" lon="-3.49545">
        <ele>12.93</ele>
        <time>2020-07-10T10:05:35Z</time>
      </trkpt>
      <trkpt lat="47.76336" lon="-3.49554">
        <ele>12.1</ele>
        <time>2020-07-10T10:05:36Z</time>
      </trkpt>
      <trkpt lat="47.76343" lon="-3.49563">
        <ele>11.26</ele>
        <time>2020-07-10T10:05:37Z</time>
      </trkpt>
      <trkpt lat="47.76349" lon="-3.49571">
        <ele>10.35</ele>
        <time>2020-07-10T10:05:38Z</time>
      </trkpt>
      <trkpt lat="47.76356" lon="-3.49578">
        <ele>9.3</ele>
        <time>2020-07-10T10:05:39Z</time>
      </trkpt>
      <trkpt lat="47.76363" lon="-3.49581">
        <ele>8.29</ele>
        <time>2020-07-10T10:05:40Z</time>
      </trkpt>
      <trkpt lat="47.76368" lon="-3.49583">
        <ele>7.55</ele>
        <time>2020-07-10T10:05:41Z</time>
      </trkpt>
      <trkpt lat="47.76372" lon="-3.49581">
        <ele>7.05</ele>
        <time>2020-07-10T10:05:42Z</time>
      </trkpt>
      <trkpt lat="47.76376" lon="-3.49579">
        <ele>6.65</ele>
        <time>2020-07-10T10:05:43Z</time>
      </trkpt>
      <trkpt lat="47.76379" lon="-3.49577">
        <ele>6.29</ele>
        <time>2020-07-10T10:05:44Z</time>
      </trkpt>
      <trkpt lat="47.7638" lon="-3.49573">
        <ele>6.12</ele>
        <time>2020-07-10T10:05:45Z</time>
      </trkpt>
      <trkpt lat="47.7638" lon="-3.49567">
        <ele>6.11</ele>
        <time>2020-07-10T10:05:46Z</time>
      </trkpt>
      <trkpt lat="47.76381" lon="-3.4956">
        <ele>6.13</ele>
        <time>2020-07-10T10:05:47Z</time>
      </trkpt>
      <trkpt lat="47.76381" lon="-3.49551">
        <ele>6.31</ele>
        <time>2020-07-10T10:05:48Z</time>
      </trkpt>
      <trkpt lat="47.7638" lon="-3.49544">
        <ele>6.61</ele>
        <time>2020-07-10T10:05:49Z</time>
      </trkpt>
      <trkpt lat="47.76381" lon="-3.49537">
        <ele>6.84</ele>
        <time>2020-07-10T10:05:50Z</time>
      </trkpt>
      <trkpt lat="47.76382" lon="-3.4953">
        <ele>7.02</ele>
        <time>2020-07-10T10:05:51Z</time>
      </trkpt>
      <trkpt lat="47.76384" lon="-3.49521">
        <ele>7.12</ele>
        <time>2020-07-10T10:05:52Z</time>
      </trkpt>
      <trkpt lat="47.76385" lon="-3.49514">
        <ele>7.18</ele>
        <time>2020-07-10T10:05:53Z</time>
      </trkpt>
      <trkpt lat="47.76386" lon="-3.49506">
        <ele>7.25</ele>
        <time>2020-07-10T10:05:54Z</time>
      </trkpt>
      <trkpt lat="47.76387" lon="-3.49499">
        <ele>7.25</ele>
        <time>2020-07-10T10:05:55Z</time>
      </trkpt>
      <trkpt lat="47.76388" lon="-3.49492">
        <ele>7.13</ele>
        <time>2020-07-10T10:05:56Z</time>
      </trkpt>
      <trkpt lat="47.76388" lon="-3.49484">
        <ele>7.14</ele>
        <time>2020-07-10T10:05:57Z</time>
      </trkpt>
      <trkpt lat="47.76389" lon="-3.49478">
        <ele>7.03</ele>
        <time>2020-07-10T10:05:58Z</time>
      </trkpt>
      <trkpt lat="47.7639" lon="-3.49472">
        <ele>6.94</ele>
        <time>2020-07-10T10:05:59Z</time>
      </trkpt>
      <trkpt lat="47.7639" lon="-3.49466">
        <ele>6.9</ele>
        <time>2020-07-10T10:06:00Z</time>
      </trkpt>
      <trkpt lat="47.76393" lon="-3.49461">
        <ele>6.79</ele>
        <time>2020-07-10T10:06:01Z</time>
      </trkpt>
      <trkpt lat="47.76396" lon="-3.49458">
        <ele>6.59</ele>
        <time>2020-07-10T10:06:02Z</time>
      </trkpt>
      <trkpt lat="47.764" lon="-3.49456">
        <ele>6.33</ele>
        <time>2020-07-10T10:06:03Z</time>
      </trkpt>
      <trkpt lat="47.76403" lon="-3.49453">
        <ele>6.07</ele>
        <time>2020-07-10T10:06:04Z</time>
      </trkpt>
      <trkpt lat="47.76406" lon="-3.49448">
        <ele>5.84</ele>
        <time>2020-07-10T10:06:05Z</time>
      </trkpt>
      <trkpt lat="47.76409" lon="-3.49443">
        <ele>5.66</ele>
        <time>2020-07-10T10:06:06Z</time>
      </trkpt>
      <trkpt lat="47.76414" lon="-3.49436">
        <ele>5.54</ele>
        <time>2020-07-10T10:06:07Z</time>
      </trkpt>
      <trkpt lat="47.76418" lon="-3.49429">
        <ele>5.49</ele>
        <time>2020-07-10T10:06:08Z</time>
      </trkpt>
      <trkpt lat="47.76421" lon="-3.49421">
        <ele>5.54</ele>
        <time>2020-07-10T10:06:09Z</time>
      </trkpt>
      <trkpt lat="47.76422" lon="-3.49413">
        <ele>5.66</ele>
        <time>2020-07-10T10:06:10Z</time>
      </trkpt>
      <trkpt lat="47.76423" lon="-3.49405">
        <ele>5.78</ele>
        <time>2020-07-10T10:06:11Z</time>
      </trkpt>
      <trkpt lat="47.76423" lon="-3.49399">
        <ele>5.94</ele>
        <time>2020-07-10T10:06:12Z</time>
      </trkpt>
      <trkpt lat="47.76423" lon="-3.49394">
        <ele>6.1</ele>
        <time>2020-07-10T10:06:13Z</time>
      </trkpt>
      <trkpt lat="47.76423" lon="-3.49389">
        <ele>6.23</ele>
        <time>2020-07-10T10:06:14Z</time>
      </trkpt>
      <trkpt lat="47.76423" lon="-3.49383">
        <ele>6.25</ele>
        <time>2020-07-10T10:06:15Z</time>
      </trkpt>
      <trkpt lat="47.76424" lon="-3.49377">
        <ele>6.23</ele>
        <time>2020-07-10T10:06:16Z</time>
      </trkpt>
      <trkpt lat="47.76424" lon="-3.49371">
        <ele>6.19</ele>
        <time>2020-07-10T10:06:17Z</time>
      </trkpt>
      <trkpt lat="47.76426" lon="-3.49366">
        <ele>6.04</ele>
        <time>2020-07-10T10:06:18Z</time>
      </trkpt>
      <trkpt lat="47.76426" lon="-3.4936">
        <ele>5.99</ele>
        <time>2020-07-10T10:06:19Z</time>
      </trkpt>
      <trkpt lat="47.76425" lon="-3.49355">
        <ele>6.16</ele>
        <time>2020-07-10T10:06:20Z</time>
      </trkpt>
      <trkpt lat="47.76425" lon="-3.4935">
        <ele>6.3</ele>
        <time>2020-07-10T10:06:21Z</time>
      </trkpt>
      <trkpt lat="47.76425" lon="-3.49345">
        <ele>6.42</ele>
        <time>2020-07-10T10:06:22Z</time>
      </trkpt>
      <trkpt lat="47.76426" lon="-3.49338">
        <ele>6.54</ele>
        <time>2020-07-10T10:06:23Z</time>
      </trkpt>
      <trkpt lat="47.76427" lon="-3.49332">
        <ele>6.52</ele>
        <time>2020-07-10T10:06:24Z</time>
      </trkpt>
      <trkpt lat="47.76428" lon="-3.49325">
        <ele>6.38</ele>
        <time>2020-07-10T10:06:25Z</time>
      </trkpt>
      <trkpt lat="47.7643" lon="-3.49319">
        <ele>6.15</ele>
        <time>2020-07-10T10:06:26Z</time>
      </trkpt>
      <trkpt lat="47.76431" lon="-3.49312">
        <ele>6.02</ele>
        <time>2020-07-10T10:06:27Z</time>
      </trkpt>
      <trkpt lat="47.76431" lon="-3.49304">
        <ele>5.94</ele>
        <time>2020-07-10T10:06:28Z</time>
      </trkpt>
      <trkpt lat="47.76432" lon="-3.49297">
        <ele>5.89</ele>
        <time>2020-07-10T10:06:29Z</time>
      </trkpt>
      <trkpt lat="47.76433" lon="-3.4929">
        <ele>5.74</ele>
        <time>2020-07-10T10:06:30Z</time>
      </trkpt>
      <trkpt lat="47.76433" lon="-3.49283">
        <ele>5.69</ele>
        <time>2020-07-10T10:06:31Z</time>
      </trkpt>
      <trkpt lat="47.76432" lon="-3.49277">
        <ele>5.8</ele>
        <time>2020-07-10T10:06:32Z</time>
      </trkpt>
      <trkpt lat="47.7643" lon="-3.49271">
        <ele>5.98</ele>
        <time>2020-07-10T10:06:33Z</time>
      </trkpt>
      <trkpt lat="47.7643" lon="-3.49268">
        <ele>6.03</ele>
        <time>2020-07-10T10:06:34Z</time>
      </trkpt>
      <trkpt lat="47.7643" lon="-3.49266">
        <ele>6.1</ele>
        <time>2020-07-10T10:06:35Z</time>
      </trkpt>
      <trkpt lat="47.76428" lon="-3.49263">
        <ele>6.27</ele>
        <time>2020-07-10T10:06:36Z</time>
      </trkpt>
      <trkpt lat="47.76427" lon="-3.49262">
        <ele>6.39</ele>
        <time>2020-07-10T10:06:37Z</time>
      </trkpt>
      <trkpt lat="47.76426" lon="-3.4926">
        <ele>6.54</ele>
        <time>2020-07-10T10:06:38Z</time>
      </trkpt>
      <trkpt lat="47.76426" lon="-3.4926">
        <ele>6.59</ele>
        <time>2020-07-10T10:06:39Z</time>
      </trkpt>
      <trkpt lat="47.76426" lon="-3.4926">
        <ele>6.6</ele>
        <time>2020-07-10T10:06:40Z</time>
      </trkpt>
      <trkpt lat="47.76426" lon="-3.4926">
        <ele>6.61</ele>
        <time>2020-07-10T10:06:41Z</time>
      </trkpt>
      <trkpt lat="47.76426" lon="-3.4926">
        <ele>6.61</ele>
        <time>2020-07-10T10:06:42Z</time>
      </trkpt>
      <trkpt lat="47.76426" lon="-3.4926">
        <ele>6.61</ele>
        <time>2020-07-10T10:06:43Z</time>
      </trkpt>
      <trkpt lat="47.76426" lon="-3.4926">
        <ele>6.61</ele>
        <time>2020-07-10T10:06:44Z</time>
      </trkpt>
      <trkpt lat="47.76426" lon="-3.4926">
        <ele>6.61</ele>
        <time>2020-07-10T10:06:45Z</time>
      </trkpt>
      <trkpt lat="47.76426" lon="-3.4926">
        <ele>6.61</ele>
        <time>2020-07-10T10:06:46Z</time>
      </trkpt>
      <trkpt lat="47.76426" lon="-3.4926">
        <ele>6.61</ele>
        <time>2020-07-10T10:06:47Z</time>
      </trkpt>
      <trkpt lat="47.76426" lon="-3.4926">
        <ele>6.61</ele>
        <time>2020-07-10T10:06:48Z</time>
      </trkpt>
      <trkpt lat="47.76425" lon="-3.49253">
        <ele>6.76</ele>
        <time>2020-07-10T10:06:49Z</time>
      </trkpt>
      <trkpt lat="47.76425" lon="-3.49251">
        <ele>6.82</ele>
        <time>2020-07-10T10:06:50Z</time>
      </trkpt>
      <trkpt lat="47.76424" lon="-3.49248">
        <ele>6.89</ele>
        <time>2020-07-10T10:06:51Z</time>
      </trkpt>
      <trkpt lat="47.76423" lon="-3.49245">
        <ele>6.97</ele>
        <time>2020-07-10T10:06:52Z</time>
      </trkpt>
      <trkpt lat="47.76423" lon="-3.49243">
        <ele>6.94</ele>
        <time>2020-07-10T10:06:53Z</time>
      </trkpt>
      <trkpt lat="47.76422" lon="-3.49239">
        <ele>6.91</ele>
        <time>2020-07-10T10:06:54Z</time>
      </trkpt>
      <trkpt lat="47.76423" lon="-3.49236">
        <ele>6.81</ele>
        <time>2020-07-10T10:06:55Z</time>
      </trkpt>
      <trkpt lat="47.76422" lon="-3.49231">
        <ele>6.71</ele>
        <time>2020-07-10T10:06:56Z</time>
      </trkpt>
      <trkpt lat="47.76421" lon="-3.49228">
        <ele>6.74</ele>
        <time>2020-07-10T10:06:57Z</time>
      </trkpt>
      <trkpt lat="47.76419" lon="-3.49225">
        <ele>6.78</ele>
        <time>2020-07-10T10:06:58Z</time>
      </trkpt>
      <trkpt lat="47.76419" lon="-3.49218">
        <ele>6.78</ele>
        <time>2020-07-10T10:06:59Z</time>
      </trkpt>
      <trkpt lat="47.76417" lon="-3.49212">
        <ele>6.89</ele>
        <time>2020-07-10T10:07:00Z</time>
      </trkpt>
      <trkpt lat="47.76416" lon="-3.49206">
        <ele>7.06</ele>
        <time>2020-07-10T10:07:01Z</time>
      </trkpt>
      <trkpt lat="47.76415" lon="-3.492">
        <ele>7.21</ele>
        <time>2020-07-10T10:07:02Z</time>
      </trkpt>
      <trkpt lat="47.76414" lon="-3.49193">
        <ele>7.38</ele>
        <time>2020-07-10T10:07:03Z</time>
      </trkpt>
      <trkpt lat="47.76413" lon="-3.49187">
        <ele>7.45</ele>
        <time>2020-07-10T10:07:04Z</time>
      </trkpt>
      <trkpt lat="47.76412" lon="-3.4918">
        <ele>7.42</ele>
        <time>2020-07-10T10:07:05Z</time>
      </trkpt>
      <trkpt lat="47.76411" lon="-3.49173">
        <ele>7.34</ele>
        <time>2020-07-10T10:07:06Z</time>
      </trkpt>
      <trkpt lat="47.76411" lon="-3.49166">
        <ele>7.21</ele>
        <time>2020-07-10T10:07:07Z</time>
      </trkpt>
      <trkpt lat="47.7641" lon="-3.49158">
        <ele>7.47</ele>
        <time>2020-07-10T10:07:08Z</time>
      </trkpt>
      <trkpt lat="47.76409" lon="-3.49151">
        <ele>7.71</ele>
        <time>2020-07-10T10:07:09Z</time>
      </trkpt>
      <trkpt lat="47.76408" lon="-3.49145">
        <ele>7.99</ele>
        <time>2020-07-10T10:07:10Z</time>
      </trkpt>
      <trkpt lat="47.76407" lon="-3.49139">
        <ele>8.24</ele>
        <time>2020-07-10T10:07:11Z</time>
      </trkpt>
      <trkpt lat="47.76407" lon="-3.49132">
        <ele>8.47</ele>
        <time>2020-07-10T10:07:12Z</time>
      </trkpt>
      <trkpt lat="47.76406" lon="-3.49126">
        <ele>8.59</ele>
        <time>2020-07-10T10:07:13Z</time>
      </trkpt>
      <trkpt lat="47.76406" lon="-3.4912">
        <ele>8.66</ele>
        <time>2020-07-10T10:07:14Z</time>
      </trkpt>
      <trkpt lat="47.76406" lon="-3.49113">
        <ele>8.74</ele>
        <time>2020-07-10T10:07:15Z</time>
      </trkpt>
      <trkpt lat="47.76405" lon="-3.49107">
        <ele>8.88</ele>
        <time>2020-07-10T10:07:16Z</time>
      </trkpt>
      <trkpt lat="47.76404" lon="-3.49101">
        <ele>9.04</ele>
        <time>2020-07-10T10:07:17Z</time>
      </trkpt>
      <trkpt lat="47.76404" lon="-3.49095">
        <ele>9.21</ele>
        <time>2020-07-10T10:07:18Z</time>
      </trkpt>
      <trkpt lat="47.76403" lon="-3.49089">
        <ele>9.31</ele>
        <time>2020-07-10T10:07:19Z</time>
      </trkpt>
      <trkpt lat="47.76403" lon="-3.49083">
        <ele>9.41</ele>
        <time>2020-07-10T10:07:20Z</time>
      </trkpt>
      <trkpt lat="47.76403" lon="-3.49077">
        <ele>9.51</ele>
        <time>2020-07-10T10:07:21Z</time>
      </trkpt>
      <trkpt lat="47.76403" lon="-3.49071">
        <ele>9.68</ele>
        <time>2020-07-10T10:07:22Z</time>
      </trkpt>
      <trkpt lat="47.76402" lon="-3.49065">
        <ele>9.87</ele>
        <time>2020-07-10T10:07:23Z</time>
      </trkpt>
      <trkpt lat="47.76402" lon="-3.4906">
        <ele>10.06</ele>
        <time>2020-07-10T10:07:24Z</time>
      </trkpt>
      <trkpt lat="47.76402" lon="-3.49054">
        <ele>10.19</ele>
        <time>2020-07-10T10:07:25Z</time>
      </trkpt>
      <trkpt lat="47.76401" lon="-3.49048">
        <ele>10.2</ele>
        <time>2020-07-10T10:07:26Z</time>
      </trkpt>
      <trkpt lat="47.76401" lon="-3.49042">
        <ele>10.13</ele>
        <time>2020-07-10T10:07:27Z</time>
      </trkpt>
      <trkpt lat="47.76401" lon="-3.49037">
        <ele>10.04</ele>
        <time>2020-07-10T10:07:28Z</time>
      </trkpt>
      <trkpt lat="47.76401" lon="-3.49033">
        <ele>10.02</ele>
        <time>2020-07-10T10:07:29Z</time>
      </trkpt>
      <trkpt lat="47.76401" lon="-3.49029">
        <ele>9.93</ele>
        <time>2020-07-10T10:07:30Z</time>
      </trkpt>
      <trkpt lat="47.76402" lon="-3.49024">
        <ele>9.82</ele>
        <time>2020-07-10T10:07:31Z</time>
      </trkpt>
      <trkpt lat="47.76402" lon="-3.49019">
        <ele>9.69</ele>
        <time>2020-07-10T10:07:32Z</time>
      </trkpt>
      <trkpt lat="47.76403" lon="-3.49014">
        <ele>9.6</ele>
        <time>2020-07-10T10:07:33Z</time>
      </trkpt>
      <trkpt lat="47.76403" lon="-3.49008">
        <ele>9.55</ele>
        <time>2020-07-10T10:07:34Z</time>
      </trkpt>
      <trkpt lat="47.76402" lon="-3.49002">
        <ele>9.61</ele>
        <time>2020-07-10T10:07:35Z</time>
      </trkpt>
      <trkpt lat="47.76402" lon="-3.48996">
        <ele>9.67</ele>
        <time>2020-07-10T10:07:36Z</time>
      </trkpt>
      <trkpt lat="47.764" lon="-3.48989">
        <ele>9.92</ele>
        <time>2020-07-10T10:07:37Z</time>
      </trkpt>
      <trkpt lat="47.76398" lon="-3.48981">
        <ele>10.23</ele>
        <time>2020-07-10T10:07:38Z</time>
      </trkpt>
      <trkpt lat="47.76397" lon="-3.48974">
        <ele>10.45</ele>
        <time>2020-07-10T10:07:39Z</time>
      </trkpt>
      <trkpt lat="47.76397" lon="-3.48969">
        <ele>10.53</ele>
        <time>2020-07-10T10:07:40Z</time>
      </trkpt>
      <trkpt lat="47.76396" lon="-3.48964">
        <ele>10.7</ele>
        <time>2020-07-10T10:07:41Z</time>
      </trkpt>
      <trkpt lat="47.76395" lon="-3.48957">
        <ele>10.94</ele>
        <time>2020-07-10T10:07:42Z</time>
      </trkpt>
      <trkpt lat="47.76395" lon="-3.48951">
        <ele>11.06</ele>
        <time>2020-07-10T10:07:43Z</time>
      </trkpt>
      <trkpt lat="47.76394" lon="-3.48944">
        <ele>11.22</ele>
        <time>2020-07-10T10:07:44Z</time>
      </trkpt>
      <trkpt lat="47.76394" lon="-3.48939">
        <ele>11.41</ele>
        <time>2020-07-10T10:07:45Z</time>
      </trkpt>
      <trkpt lat="47.76394" lon="-3.48934">
        <ele>11.56</ele>
        <time>2020-07-10T10:07:46Z</time>
      </trkpt>
      <trkpt lat="47.76394" lon="-3.48929">
        <ele>11.69</ele>
        <time>2020-07-10T10:07:47Z</time>
      </trkpt>
      <trkpt lat="47.76394" lon="-3.48925">
        <ele>11.81</ele>
        <time>2020-07-10T10:07:48Z</time>
      </trkpt>
      <trkpt lat="47.76394" lon="-3.48921">
        <ele>11.94</ele>
        <time>2020-07-10T10:07:49Z</time>
      </trkpt>
      <trkpt lat="47.76394" lon="-3.48916">
        <ele>12.1</ele>
        <time>2020-07-10T10:07:50Z</time>
      </trkpt>
      <trkpt lat="47.76394" lon="-3.48909">
        <ele>12.16</ele>
        <time>2020-07-10T10:07:51Z</time>
      </trkpt>
      <trkpt lat="47.76394" lon="-3.48902">
        <ele>12.23</ele>
        <time>2020-07-10T10:07:52Z</time>
      </trkpt>
      <trkpt lat="47.76392" lon="-3.48893">
        <ele>12.46</ele>
        <time>2020-07-10T10:07:53Z</time>
      </trkpt>
      <trkpt lat="47.76391" lon="-3.48884">
        <ele>12.64</ele>
        <time>2020-07-10T10:07:54Z</time>
      </trkpt>
      <trkpt lat="47.7639" lon="-3.48877">
        <ele>12.75</ele>
        <time>2020-07-10T10:07:55Z</time>
      </trkpt>
      <trkpt lat="47.7639" lon="-3.4887">
        <ele>12.83</ele>
        <time>2020-07-10T10:07:56Z</time>
      </trkpt>
      <trkpt lat="47.7639" lon="-3.48864">
        <ele>12.87</ele>
        <time>2020-07-10T10:07:57Z</time>
      </trkpt>
      <trkpt lat="47.76389" lon="-3.48859">
        <ele>12.93</ele>
        <time>2020-07-10T10:07:58Z</time>
      </trkpt>
      <trkpt lat="47.76388" lon="-3.48852">
        <ele>12.84</ele>
        <time>2020-07-10T10:07:59Z</time>
      </trkpt>
      <trkpt lat="47.76386" lon="-3.48847">
        <ele>12.81</ele>
        <time>2020-07-10T10:08:00Z</time>
      </trkpt>
      <trkpt lat="47.76384" lon="-3.48841">
        <ele>12.76</ele>
        <time>2020-07-10T10:08:01Z</time>
      </trkpt>
      <trkpt lat="47.76384" lon="-3.48833">
        <ele>12.63</ele>
        <time>2020-07-10T10:08:02Z</time>
      </trkpt>
      <trkpt lat="47.76382" lon="-3.48825">
        <ele>12.65</ele>
        <time>2020-07-10T10:08:03Z</time>
      </trkpt>
      <trkpt lat="47.76381" lon="-3.48818">
        <ele>12.69</ele>
        <time>2020-07-10T10:08:04Z</time>
      </trkpt>
      <trkpt lat="47.76379" lon="-3.48809">
        <ele>12.72</ele>
        <time>2020-07-10T10:08:05Z</time>
      </trkpt>
      <trkpt lat="47.76378" lon="-3.48802">
        <ele>12.67</ele>
        <time>2020-07-10T10:08:06Z</time>
      </trkpt>
      <trkpt lat="47.76377" lon="-3.48795">
        <ele>12.53</ele>
        <time>2020-07-10T10:08:07Z</time>
      </trkpt>
      <trkpt lat="47.76376" lon="-3.48788">
        <ele>12.38</ele>
        <time>2020-07-10T10:08:08Z</time>
      </trkpt>
      <trkpt lat="47.76374" lon="-3.48782">
        <ele>12.24</ele>
        <time>2020-07-10T10:08:09Z</time>
      </trkpt>
      <trkpt lat="47.76373" lon="-3.48776">
        <ele>12.13</ele>
        <time>2020-07-10T10:08:10Z</time>
      </trkpt>
      <trkpt lat="47.76371" lon="-3.48768">
        <ele>12.07</ele>
        <time>2020-07-10T10:08:11Z</time>
      </trkpt>
      <trkpt lat="47.7637" lon="-3.4876">
        <ele>11.99</ele>
        <time>2020-07-10T10:08:12Z</time>
      </trkpt>
      <trkpt lat="47.76368" lon="-3.48752">
        <ele>11.86</ele>
        <time>2020-07-10T10:08:13Z</time>
      </trkpt>
      <trkpt lat="47.76367" lon="-3.48746">
        <ele>11.83</ele>
        <time>2020-07-10T10:08:14Z</time>
      </trkpt>
      <trkpt lat="47.76367" lon="-3.48741">
        <ele>11.86</ele>
        <time>2020-07-10T10:08:15Z</time>
      </trkpt>
      <trkpt lat="47.76367" lon="-3.48737">
        <ele>11.87</ele>
        <time>2020-07-10T10:08:16Z</time>
      </trkpt>
      <trkpt lat="47.7637" lon="-3.48734">
        <ele>11.87</ele>
        <time>2020-07-10T10:08:17Z</time>
      </trkpt>
      <trkpt lat="47.76373" lon="-3.48731">
        <ele>11.86</ele>
        <time>2020-07-10T10:08:18Z</time>
      </trkpt>
      <trkpt lat="47.76377" lon="-3.48728">
        <ele>11.87</ele>
        <time>2020-07-10T10:08:19Z</time>
      </trkpt>
      <trkpt lat="47.76381" lon="-3.48725">
        <ele>11.91</ele>
        <time>2020-07-10T10:08:20Z</time>
      </trkpt>
      <trkpt lat="47.76386" lon="-3.48723">
        <ele>11.96</ele>
        <time>2020-07-10T10:08:21Z</time>
      </trkpt>
      <trkpt lat="47.7639" lon="-3.48721">
        <ele>11.99</ele>
        <time>2020-07-10T10:08:22Z</time>
      </trkpt>
      <trkpt lat="47.76395" lon="-3.4872">
        <ele>12</ele>
        <time>2020-07-10T10:08:23Z</time>
      </trkpt>
      <trkpt lat="47.76399" lon="-3.48718">
        <ele>12</ele>
        <time>2020-07-10T10:08:24Z</time>
      </trkpt>
      <trkpt lat="47.76403" lon="-3.48717">
        <ele>12</ele>
        <time>2020-07-10T10:08:25Z</time>
      </trkpt>
      <trkpt lat="47.76407" lon="-3.48715">
        <ele>12</ele>
        <time>2020-07-10T10:08:26Z</time>
      </trkpt>
      <trkpt lat="47.76411" lon="-3.48713">
        <ele>12</ele>
        <time>2020-07-10T10:08:27Z</time>
      </trkpt>
      <trkpt lat="47.76415" lon="-3.48712">
        <ele>12</ele>
        <time>2020-07-10T10:08:28Z</time>
      </trkpt>
      <trkpt lat="47.76419" lon="-3.4871">
        <ele>12.03</ele>
        <time>2020-07-10T10:08:29Z</time>
      </trkpt>
      <trkpt lat="47.76424" lon="-3.48705">
        <ele>12.12</ele>
        <time>2020-07-10T10:08:30Z</time>
      </trkpt>
      <trkpt lat="47.76428" lon="-3.487">
        <ele>12.26</ele>
        <time>2020-07-10T10:08:31Z</time>
      </trkpt>
      <trkpt lat="47.7643" lon="-3.48694">
        <ele>12.42</ele>
        <time>2020-07-10T10:08:32Z</time>
      </trkpt>
      <trkpt lat="47.76432" lon="-3.48688">
        <ele>12.75</ele>
        <time>2020-07-10T10:08:33Z</time>
      </trkpt>
      <trkpt lat="47.76433" lon="-3.48682">
        <ele>13.14</ele>
        <time>2020-07-10T10:08:34Z</time>
      </trkpt>
      <trkpt lat="47.76435" lon="-3.48676">
        <ele>13.55</ele>
        <time>2020-07-10T10:08:35Z</time>
      </trkpt>
      <trkpt lat="47.76436" lon="-3.4867">
        <ele>13.98</ele>
        <time>2020-07-10T10:08:36Z</time>
      </trkpt>
      <trkpt lat="47.76437" lon="-3.48664">
        <ele>14.37</ele>
        <time>2020-07-10T10:08:37Z</time>
      </trkpt>
      <trkpt lat="47.76438" lon="-3.48658">
        <ele>14.67</ele>
        <time>2020-07-10T10:08:38Z</time>
      </trkpt>
      <trkpt lat="47.7644" lon="-3.48652">
        <ele>14.96</ele>
        <time>2020-07-10T10:08:39Z</time>
      </trkpt>
      <trkpt lat="47.76441" lon="-3.48646">
        <ele>15.26</ele>
        <time>2020-07-10T10:08:40Z</time>
      </trkpt>
      <trkpt lat="47.76442" lon="-3.48638">
        <ele>15.57</ele>
        <time>2020-07-10T10:08:41Z</time>
      </trkpt>
      <trkpt lat="47.76442" lon="-3.48631">
        <ele>15.9</ele>
        <time>2020-07-10T10:08:42Z</time>
      </trkpt>
      <trkpt lat="47.76443" lon="-3.48625">
        <ele>16.17</ele>
        <time>2020-07-10T10:08:43Z</time>
      </trkpt>
      <trkpt lat="47.76444" lon="-3.48619">
        <ele>16.5</ele>
        <time>2020-07-10T10:08:44Z</time>
      </trkpt>
      <trkpt lat="47.76445" lon="-3.48612">
        <ele>16.82</ele>
        <time>2020-07-10T10:08:45Z</time>
      </trkpt>
      <trkpt lat="47.76446" lon="-3.48606">
        <ele>17.09</ele>
        <time>2020-07-10T10:08:46Z</time>
      </trkpt>
      <trkpt lat="47.76447" lon="-3.48601">
        <ele>17.35</ele>
        <time>2020-07-10T10:08:47Z</time>
      </trkpt>
      <trkpt lat="47.76448" lon="-3.48595">
        <ele>17.61</ele>
        <time>2020-07-10T10:08:48Z</time>
      </trkpt>
      <trkpt lat="47.7645" lon="-3.48589">
        <ele>17.88</ele>
        <time>2020-07-10T10:08:49Z</time>
      </trkpt>
      <trkpt lat="47.76451" lon="-3.48581">
        <ele>18.13</ele>
        <time>2020-07-10T10:08:50Z</time>
      </trkpt>
      <trkpt lat="47.76453" lon="-3.48575">
        <ele>18.24</ele>
        <time>2020-07-10T10:08:51Z</time>
      </trkpt>
      <trkpt lat="47.76454" lon="-3.48569">
        <ele>18.31</ele>
        <time>2020-07-10T10:08:52Z</time>
      </trkpt>
      <trkpt lat="47.76456" lon="-3.48564">
        <ele>18.38</ele>
        <time>2020-07-10T10:08:53Z</time>
      </trkpt>
      <trkpt lat="47.76458" lon="-3.48559">
        <ele>18.45</ele>
        <time>2020-07-10T10:08:54Z</time>
      </trkpt>
      <trkpt lat="47.76459" lon="-3.48552">
        <ele>18.6</ele>
        <time>2020-07-10T10:08:55Z</time>
      </trkpt>
      <trkpt lat="47.7646" lon="-3.48546">
        <ele>18.84</ele>
        <time>2020-07-10T10:08:56Z</time>
      </trkpt>
      <trkpt lat="47.76461" lon="-3.4854">
        <ele>19.08</ele>
        <time>2020-07-10T10:08:57Z</time>
      </trkpt>
      <trkpt lat="47.76462" lon="-3.48533">
        <ele>19.34</ele>
        <time>2020-07-10T10:08:58Z</time>
      </trkpt>
      <trkpt lat="47.76464" lon="-3.48528">
        <ele>19.58</ele>
        <time>2020-07-10T10:08:59Z</time>
      </trkpt>
      <trkpt lat="47.76465" lon="-3.48521">
        <ele>19.66</ele>
        <time>2020-07-10T10:09:00Z</time>
      </trkpt>
      <trkpt lat="47.76467" lon="-3.48516">
        <ele>19.71</ele>
        <time>2020-07-10T10:09:01Z</time>
      </trkpt>
      <trkpt lat="47.76469" lon="-3.48509">
        <ele>19.76</ele>
        <time>2020-07-10T10:09:02Z</time>
      </trkpt>
      <trkpt lat="47.7647" lon="-3.48502">
        <ele>19.81</ele>
        <time>2020-07-10T10:09:03Z</time>
      </trkpt>
      <trkpt lat="47.76472" lon="-3.48496">
        <ele>20.01</ele>
        <time>2020-07-10T10:09:04Z</time>
      </trkpt>
      <trkpt lat="47.76473" lon="-3.4849">
        <ele>20.3</ele>
        <time>2020-07-10T10:09:05Z</time>
      </trkpt>
      <trkpt lat="47.76474" lon="-3.48485">
        <ele>20.58</ele>
        <time>2020-07-10T10:09:06Z</time>
      </trkpt>
      <trkpt lat="47.76475" lon="-3.48478">
        <ele>20.85</ele>
        <time>2020-07-10T10:09:07Z</time>
      </trkpt>
      <trkpt lat="47.76476" lon="-3.48473">
        <ele>21.14</ele>
        <time>2020-07-10T10:09:08Z</time>
      </trkpt>
      <trkpt lat="47.76477" lon="-3.48466">
        <ele>21.44</ele>
        <time>2020-07-10T10:09:09Z</time>
      </trkpt>
      <trkpt lat="47.76478" lon="-3.4846">
        <ele>21.75</ele>
        <time>2020-07-10T10:09:10Z</time>
      </trkpt>
      <trkpt lat="47.76479" lon="-3.48454">
        <ele>22.03</ele>
        <time>2020-07-10T10:09:11Z</time>
      </trkpt>
      <trkpt lat="47.7648" lon="-3.48448">
        <ele>22.32</ele>
        <time>2020-07-10T10:09:12Z</time>
      </trkpt>
      <trkpt lat="47.76481" lon="-3.48442">
        <ele>22.6</ele>
        <time>2020-07-10T10:09:13Z</time>
      </trkpt>
      <trkpt lat="47.76483" lon="-3.48435">
        <ele>22.86</ele>
        <time>2020-07-10T10:09:14Z</time>
      </trkpt>
      <trkpt lat="47.76484" lon="-3.4843">
        <ele>23.07</ele>
        <time>2020-07-10T10:09:15Z</time>
      </trkpt>
      <trkpt lat="47.76485" lon="-3.48423">
        <ele>23.25</ele>
        <time>2020-07-10T10:09:16Z</time>
      </trkpt>
      <trkpt lat="47.76486" lon="-3.48416">
        <ele>23.42</ele>
        <time>2020-07-10T10:09:17Z</time>
      </trkpt>
      <trkpt lat="47.76486" lon="-3.48409">
        <ele>23.67</ele>
        <time>2020-07-10T10:09:18Z</time>
      </trkpt>
      <trkpt lat="47.76487" lon="-3.48402">
        <ele>23.94</ele>
        <time>2020-07-10T10:09:19Z</time>
      </trkpt>
      <trkpt lat="47.76489" lon="-3.48395">
        <ele>24.23</ele>
        <time>2020-07-10T10:09:20Z</time>
      </trkpt>
      <trkpt lat="47.7649" lon="-3.48388">
        <ele>24.52</ele>
        <time>2020-07-10T10:09:21Z</time>
      </trkpt>
      <trkpt lat="47.76491" lon="-3.48382">
        <ele>24.75</ele>
        <time>2020-07-10T10:09:22Z</time>
      </trkpt>
      <trkpt lat="47.76492" lon="-3.48376">
        <ele>24.98</ele>
        <time>2020-07-10T10:09:23Z</time>
      </trkpt>
      <trkpt lat="47.76494" lon="-3.48369">
        <ele>25.21</ele>
        <time>2020-07-10T10:09:24Z</time>
      </trkpt>
      <trkpt lat="47.76494" lon="-3.48362">
        <ele>25.44</ele>
        <time>2020-07-10T10:09:25Z</time>
      </trkpt>
      <trkpt lat="47.76495" lon="-3.48356">
        <ele>25.62</ele>
        <time>2020-07-10T10:09:26Z</time>
      </trkpt>
      <trkpt lat="47.76496" lon="-3.48349">
        <ele>25.75</ele>
        <time>2020-07-10T10:09:27Z</time>
      </trkpt>
      <trkpt lat="47.76498" lon="-3.48343">
        <ele>25.85</ele>
        <time>2020-07-10T10:09:28Z</time>
      </trkpt>
      <trkpt lat="47.76499" lon="-3.48337">
        <ele>25.93</ele>
        <time>2020-07-10T10:09:29Z</time>
      </trkpt>
      <trkpt lat="47.765" lon="-3.4833">
        <ele>26.06</ele>
        <time>2020-07-10T10:09:30Z</time>
      </trkpt>
      <trkpt lat="47.76502" lon="-3.48323">
        <ele>26.31</ele>
        <time>2020-07-10T10:09:31Z</time>
      </trkpt>
      <trkpt lat="47.76503" lon="-3.48317">
        <ele>26.58</ele>
        <time>2020-07-10T10:09:32Z</time>
      </trkpt>
      <trkpt lat="47.76505" lon="-3.48311">
        <ele>26.86</ele>
        <time>2020-07-10T10:09:33Z</time>
      </trkpt>
      <trkpt lat="47.76507" lon="-3.48305">
        <ele>27.13</ele>
        <time>2020-07-10T10:09:34Z</time>
      </trkpt>
      <trkpt lat="47.76508" lon="-3.48298">
        <ele>27.24</ele>
        <time>2020-07-10T10:09:35Z</time>
      </trkpt>
      <trkpt lat="47.76509" lon="-3.48291">
        <ele>27.3</ele>
        <time>2020-07-10T10:09:36Z</time>
      </trkpt>
      <trkpt lat="47.7651" lon="-3.48285">
        <ele>27.35</ele>
        <time>2020-07-10T10:09:37Z</time>
      </trkpt>
      <trkpt lat="47.76512" lon="-3.48278">
        <ele>27.4</ele>
        <time>2020-07-10T10:09:38Z</time>
      </trkpt>
      <trkpt lat="47.76514" lon="-3.48271">
        <ele>27.46</ele>
        <time>2020-07-10T10:09:39Z</time>
      </trkpt>
      <trkpt lat="47.76515" lon="-3.48265">
        <ele>27.52</ele>
        <time>2020-07-10T10:09:40Z</time>
      </trkpt>
      <trkpt lat="47.76516" lon="-3.4826">
        <ele>27.56</ele>
        <time>2020-07-10T10:09:41Z</time>
      </trkpt>
      <trkpt lat="47.76518" lon="-3.48254">
        <ele>27.61</ele>
        <time>2020-07-10T10:09:42Z</time>
      </trkpt>
      <trkpt lat="47.76519" lon="-3.48248">
        <ele>27.67</ele>
        <time>2020-07-10T10:09:43Z</time>
      </trkpt>
      <trkpt lat="47.76521" lon="-3.48241">
        <ele>27.72</ele>
        <time>2020-07-10T10:09:44Z</time>
      </trkpt>
      <trkpt lat="47.76522" lon="-3.48235">
        <ele>27.76</ele>
        <time>2020-07-10T10:09:45Z</time>
      </trkpt>
      <trkpt lat="47.76523" lon="-3.48229">
        <ele>27.8</ele>
        <time>2020-07-10T10:09:46Z</time>
      </trkpt>
      <trkpt lat="47.76523" lon="-3.48222">
        <ele>27.83</ele>
        <time>2020-07-10T10:09:47Z</time>
      </trkpt>
      <trkpt lat="47.76524" lon="-3.48216">
        <ele>27.68</ele>
        <time>2020-07-10T10:09:48Z</time>
      </trkpt>
      <trkpt lat="47.76524" lon="-3.48209">
        <ele>27.45</ele>
        <time>2020-07-10T10:09:49Z</time>
      </trkpt>
      <trkpt lat="47.76523" lon="-3.48201">
        <ele>27.16</ele>
        <time>2020-07-10T10:09:50Z</time>
      </trkpt>
      <trkpt lat="47.76523" lon="-3.48194">
        <ele>26.94</ele>
        <time>2020-07-10T10:09:51Z</time>
      </trkpt>
      <trkpt lat="47.76523" lon="-3.48187">
        <ele>26.82</ele>
        <time>2020-07-10T10:09:52Z</time>
      </trkpt>
      <trkpt lat="47.76523" lon="-3.4818">
        <ele>26.77</ele>
        <time>2020-07-10T10:09:53Z</time>
      </trkpt>
      <trkpt lat="47.76523" lon="-3.48174">
        <ele>26.74</ele>
        <time>2020-07-10T10:09:54Z</time>
      </trkpt>
      <trkpt lat="47.76524" lon="-3.48167">
        <ele>26.73</ele>
        <time>2020-07-10T10:09:55Z</time>
      </trkpt>
      <trkpt lat="47.76525" lon="-3.48161">
        <ele>26.66</ele>
        <time>2020-07-10T10:09:56Z</time>
      </trkpt>
      <trkpt lat="47.76526" lon="-3.48155">
        <ele>26.52</ele>
        <time>2020-07-10T10:09:57Z</time>
      </trkpt>
      <trkpt lat="47.76527" lon="-3.48148">
        <ele>26.36</ele>
        <time>2020-07-10T10:09:58Z</time>
      </trkpt>
      <trkpt lat="47.76528" lon="-3.48142">
        <ele>26.17</ele>
        <time>2020-07-10T10:09:59Z</time>
      </trkpt>
      <trkpt lat="47.7653" lon="-3.48135">
        <ele>26.1</ele>
        <time>2020-07-10T10:10:00Z</time>
      </trkpt>
      <trkpt lat="47.76532" lon="-3.48129">
        <ele>26.14</ele>
        <time>2020-07-10T10:10:01Z</time>
      </trkpt>
      <trkpt lat="47.76535" lon="-3.48124">
        <ele>26.23</ele>
        <time>2020-07-10T10:10:02Z</time>
      </trkpt>
      <trkpt lat="47.76537" lon="-3.48119">
        <ele>26.31</ele>
        <time>2020-07-10T10:10:03Z</time>
      </trkpt>
      <trkpt lat="47.76539" lon="-3.48113">
        <ele>26.39</ele>
        <time>2020-07-10T10:10:04Z</time>
      </trkpt>
      <trkpt lat="47.76542" lon="-3.48107">
        <ele>26.47</ele>
        <time>2020-07-10T10:10:05Z</time>
      </trkpt>
      <trkpt lat="47.76544" lon="-3.481">
        <ele>26.55</ele>
        <time>2020-07-10T10:10:06Z</time>
      </trkpt>
      <trkpt lat="47.76545" lon="-3.48094">
        <ele>26.61</ele>
        <time>2020-07-10T10:10:07Z</time>
      </trkpt>
      <trkpt lat="47.76546" lon="-3.4809">
        <ele>26.63</ele>
        <time>2020-07-10T10:10:08Z</time>
      </trkpt>
      <trkpt lat="47.76546" lon="-3.48088">
        <ele>26.66</ele>
        <time>2020-07-10T10:10:09Z</time>
      </trkpt>
      <trkpt lat="47.76548" lon="-3.48085">
        <ele>26.69</ele>
        <time>2020-07-10T10:10:10Z</time>
      </trkpt>
      <trkpt lat="47.76548" lon="-3.48084">
        <ele>26.72</ele>
        <time>2020-07-10T10:10:11Z</time>
      </trkpt>
      <trkpt lat="47.76548" lon="-3.48082">
        <ele>26.77</ele>
        <time>2020-07-10T10:10:12Z</time>
      </trkpt>
      <trkpt lat="47.76549" lon="-3.48082">
        <ele>26.79</ele>
        <time>2020-07-10T10:10:13Z</time>
      </trkpt>
      <trkpt lat="47.76549" lon="-3.48082">
        <ele>26.82</ele>
        <time>2020-07-10T10:10:14Z</time>
      </trkpt>
      <trkpt lat="47.76549" lon="-3.48082">
        <ele>26.83</ele>
        <time>2020-07-10T10:10:15Z</time>
      </trkpt>
      <trkpt lat="47.76549" lon="-3.48082">
        <ele>26.83</ele>
        <time>2020-07-10T10:10:16Z</time>
      </trkpt>
      <trkpt lat="47.76549" lon="-3.48082">
        <ele>26.83</ele>
        <time>2020-07-10T10:10:17Z</time>
      </trkpt>
      <trkpt lat="47.76549" lon="-3.48082">
        <ele>26.83</ele>
        <time>2020-07-10T10:10:18Z</time>
      </trkpt>
      <trkpt lat="47.76549" lon="-3.48082">
        <ele>26.83</ele>
        <time>2020-07-10T10:10:19Z</time>
      </trkpt>
      <trkpt lat="47.76549" lon="-3.48082">
        <ele>26.83</ele>
        <time>2020-07-10T10:10:20Z</time>
      </trkpt>
      <trkpt lat="47.76549" lon="-3.48082">
        <ele>26.83</ele>
        <time>2020-07-10T10:10:21Z</time>
      </trkpt>
      <trkpt lat="47.76549" lon="-3.48082">
        <ele>26.83</ele>
        <time>2020-07-10T10:10:22Z</time>
      </trkpt>
      <trkpt lat="47.76549" lon="-3.48082">
        <ele>26.83</ele>
        <time>2020-07-10T10:10:23Z</time>
      </trkpt>
      <trkpt lat="47.76549" lon="-3.48082">
        <ele>26.83</ele>
        <time>2020-07-10T10:10:24Z</time>
      </trkpt>
      <trkpt lat="47.76549" lon="-3.48082">
        <ele>26.83</ele>
        <time>2020-07-10T10:10:25Z</time>
      </trkpt>
      <trkpt lat="47.76549" lon="-3.48082">
        <ele>26.83</ele>
        <time>2020-07-10T10:10:26Z</time>
      </trkpt>
      <trkpt lat="47.76549" lon="-3.48082">
        <ele>26.83</ele>
        <time>2020-07-10T10:10:27Z</time>
      </trkpt>
      <trkpt lat="47.76549" lon="-3.48082">
        <ele>26.83</ele>
        <time>2020-07-10T10:10:28Z</time>
      </trkpt>
      <trkpt lat="47.76549" lon="-3.48082">
        <ele>26.83</ele>
        <time>2020-07-10T10:10:29Z</time>
      </trkpt>
      <trkpt lat="47.76549" lon="-3.48082">
        <ele>26.83</ele>
        <time>2020-07-10T10:10:30Z</time>
      </trkpt>
      <trkpt lat="47.76549" lon="-3.48082">
        <ele>26.83</ele>
        <time>2020-07-10T10:10:31Z</time>
      </trkpt>
      <trkpt lat="47.76549" lon="-3.48082">
        <ele>26.83</ele>
        <time>2020-07-10T10:10:32Z</time>
      </trkpt>
      <trkpt lat="47.76549" lon="-3.48082">
        <ele>26.83</ele>
        <time>2020-07-10T10:10:33Z</time>
      </trkpt>
      <trkpt lat="47.76549" lon="-3.48082">
        <ele>26.83</ele>
        <time>2020-07-10T10:10:34Z</time>
      </trkpt>
      <trkpt lat="47.76549" lon="-3.48082">
        <ele>26.83</ele>
        <time>2020-07-10T10:10:35Z</time>
      </trkpt>
      <trkpt lat="47.76549" lon="-3.48082">
        <ele>26.83</ele>
        <time>2020-07-10T10:10:36Z</time>
      </trkpt>
      <trkpt lat="47.76549" lon="-3.48082">
        <ele>26.83</ele>
        <time>2020-07-10T10:10:37Z</time>
      </trkpt>
      <trkpt lat="47.76549" lon="-3.48082">
        <ele>26.83</ele>
        <time>2020-07-10T10:10:38Z</time>
      </trkpt>
      <trkpt lat="47.76549" lon="-3.48082">
        <ele>26.83</ele>
        <time>2020-07-10T10:10:39Z</time>
      </trkpt>
      <trkpt lat="47.76549" lon="-3.48082">
        <ele>26.83</ele>
        <time>2020-07-10T10:10:40Z</time>
      </trkpt>
      <trkpt lat="47.76549" lon="-3.48082">
        <ele>26.83</ele>
        <time>2020-07-10T10:10:41Z</time>
      </trkpt>
      <trkpt lat="47.76549" lon="-3.48082">
        <ele>26.83</ele>
        <time>2020-07-10T10:10:42Z</time>
      </trkpt>
      <trkpt lat="47.76549" lon="-3.48082">
        <ele>26.83</ele>
        <time>2020-07-10T10:10:43Z</time>
      </trkpt>
      <trkpt lat="47.76549" lon="-3.48082">
        <ele>26.83</ele>
        <time>2020-07-10T10:10:44Z</time>
      </trkpt>
      <trkpt lat="47.76549" lon="-3.48082">
        <ele>26.83</ele>
        <time>2020-07-10T10:10:45Z</time>
      </trkpt>
      <trkpt lat="47.76549" lon="-3.48082">
        <ele>26.83</ele>
        <time>2020-07-10T10:10:46Z</time>
      </trkpt>
      <trkpt lat="47.76549" lon="-3.48082">
        <ele>26.83</ele>
        <time>2020-07-10T10:10:47Z</time>
      </trkpt>
      <trkpt lat="47.76549" lon="-3.48082">
        <ele>26.83</ele>
        <time>2020-07-10T10:10:48Z</time>
      </trkpt>
      <trkpt lat="47.76549" lon="-3.48082">
        <ele>26.83</ele>
        <time>2020-07-10T10:10:49Z</time>
      </trkpt>
      <trkpt lat="47.76549" lon="-3.48082">
        <ele>26.83</ele>
        <time>2020-07-10T10:10:50Z</time>
      </trkpt>
      <trkpt lat="47.76549" lon="-3.48082">
        <ele>26.83</ele>
        <time>2020-07-10T10:10:51Z</time>
      </trkpt>
      <trkpt lat="47.76549" lon="-3.48082">
        <ele>26.83</ele>
        <time>2020-07-10T10:10:52Z</time>
      </trkpt>
      <trkpt lat="47.76549" lon="-3.48082">
        <ele>26.83</ele>
        <time>2020-07-10T10:10:53Z</time>
      </trkpt>
      <trkpt lat="47.76549" lon="-3.48082">
        <ele>26.83</ele>
        <time>2020-07-10T10:10:54Z</time>
      </trkpt>
      <trkpt lat="47.76549" lon="-3.48082">
        <ele>26.83</ele>
        <time>2020-07-10T10:10:55Z</time>
      </trkpt>
      <trkpt lat="47.76549" lon="-3.48082">
        <ele>26.83</ele>
        <time>2020-07-10T10:10:56Z</time>
      </trkpt>
      <trkpt lat="47.76549" lon="-3.48082">
        <ele>26.83</ele>
        <time>2020-07-10T10:10:57Z</time>
      </trkpt>
      <trkpt lat="47.76549" lon="-3.48082">
        <ele>26.83</ele>
        <time>2020-07-10T10:10:58Z</time>
      </trkpt>
      <trkpt lat="47.76549" lon="-3.48082">
        <ele>26.83</ele>
        <time>2020-07-10T10:10:59Z</time>
      </trkpt>
      <trkpt lat="47.76549" lon="-3.48082">
        <ele>26.83</ele>
        <time>2020-07-10T10:11:00Z</time>
      </trkpt>
      <trkpt lat="47.76549" lon="-3.48082">
        <ele>26.83</ele>
        <time>2020-07-10T10:11:01Z</time>
      </trkpt>
      <trkpt lat="47.76549" lon="-3.48082">
        <ele>26.83</ele>
        <time>2020-07-10T10:11:02Z</time>
      </trkpt>
      <trkpt lat="47.76549" lon="-3.48082">
        <ele>26.83</ele>
        <time>2020-07-10T10:11:03Z</time>
      </trkpt>
      <trkpt lat="47.76549" lon="-3.48082">
        <ele>26.83</ele>
        <time>2020-07-10T10:11:04Z</time>
      </trkpt>
      <trkpt lat="47.76549" lon="-3.48082">
        <ele>26.83</ele>
        <time>2020-07-10T10:11:05Z</time>
      </trkpt>
      <trkpt lat="47.76549" lon="-3.48082">
        <ele>26.83</ele>
        <time>2020-07-10T10:11:06Z</time>
      </trkpt>
      <trkpt lat="47.76549" lon="-3.48082">
        <ele>26.83</ele>
        <time>2020-07-10T10:11:07Z</time>
      </trkpt>
      <trkpt lat="47.76549" lon="-3.48082">
        <ele>26.83</ele>
        <time>2020-07-10T10:11:08Z</time>
      </trkpt>
      <trkpt lat="47.76549" lon="-3.48082">
        <ele>26.83</ele>
        <time>2020-07-10T10:11:09Z</time>
      </trkpt>
      <trkpt lat="47.76549" lon="-3.48082">
        <ele>26.83</ele>
        <time>2020-07-10T10:11:10Z</time>
      </trkpt>
      <trkpt lat="47.76549" lon="-3.48082">
        <ele>26.83</ele>
        <time>2020-07-10T10:11:11Z</time>
      </trkpt>
      <trkpt lat="47.76549" lon="-3.48082">
        <ele>26.83</ele>
        <time>2020-07-10T10:11:12Z</time>
      </trkpt>
      <trkpt lat="47.76549" lon="-3.48082">
        <ele>26.83</ele>
        <time>2020-07-10T10:11:13Z</time>
      </trkpt>
      <trkpt lat="47.76549" lon="-3.48082">
        <ele>26.83</ele>
        <time>2020-07-10T10:11:14Z</time>
      </trkpt>
      <trkpt lat="47.76549" lon="-3.48082">
        <ele>26.83</ele>
        <time>2020-07-10T10:11:15Z</time>
      </trkpt>
      <trkpt lat="47.76549" lon="-3.48082">
        <ele>26.83</ele>
        <time>2020-07-10T10:11:16Z</time>
      </trkpt>
      <trkpt lat="47.76549" lon="-3.48082">
        <ele>26.83</ele>
        <time>2020-07-10T10:11:17Z</time>
      </trkpt>
      <trkpt lat="47.76549" lon="-3.48082">
        <ele>26.83</ele>
        <time>2020-07-10T10:11:18Z</time>
      </trkpt>
      <trkpt lat="47.76549" lon="-3.48082">
        <ele>26.83</ele>
        <time>2020-07-10T10:11:19Z</time>
      </trkpt>
      <trkpt lat="47.76549" lon="-3.48082">
        <ele>26.83</ele>
        <time>2020-07-10T10:11:20Z</time>
      </trkpt>
      <trkpt lat="47.76549" lon="-3.48082">
        <ele>26.83</ele>
        <time>2020-07-10T10:11:21Z</time>
      </trkpt>
      <trkpt lat="47.76549" lon="-3.48082">
        <ele>26.83</ele>
        <time>2020-07-10T10:11:22Z</time>
      </trkpt>
      <trkpt lat="47.76549" lon="-3.48082">
        <ele>26.83</ele>
        <time>2020-07-10T10:11:23Z</time>
      </trkpt>
      <trkpt lat="47.76549" lon="-3.48082">
        <ele>26.83</ele>
        <time>2020-07-10T10:11:24Z</time>
      </trkpt>
      <trkpt lat="47.76549" lon="-3.48082">
        <ele>26.83</ele>
        <time>2020-07-10T10:11:25Z</time>
      </trkpt>
      <trkpt lat="47.76549" lon="-3.48082">
        <ele>26.83</ele>
        <time>2020-07-10T10:11:26Z</time>
      </trkpt>
      <trkpt lat="47.76549" lon="-3.48082">
        <ele>26.83</ele>
        <time>2020-07-10T10:11:27Z</time>
      </trkpt>
      <trkpt lat="47.76549" lon="-3.48082">
        <ele>26.83</ele>
        <time>2020-07-10T10:11:28Z</time>
      </trkpt>
      <trkpt lat="47.76549" lon="-3.48082">
        <ele>26.83</ele>
        <time>2020-07-10T10:11:29Z</time>
      </trkpt>
      <trkpt lat="47.76549" lon="-3.48082">
        <ele>26.83</ele>
        <time>2020-07-10T10:11:30Z</time>
      </trkpt>
      <trkpt lat="47.76549" lon="-3.48082">
        <ele>26.83</ele>
        <time>2020-07-10T10:11:31Z</time>
      </trkpt>
      <trkpt lat="47.76549" lon="-3.48082">
        <ele>26.83</ele>
        <time>2020-07-10T10:11:32Z</time>
      </trkpt>
      <trkpt lat="47.7655" lon="-3.48082">
        <ele>26.84</ele>
        <time>2020-07-10T10:11:33Z</time>
      </trkpt>
      <trkpt lat="47.76551" lon="-3.48079">
        <ele>26.93</ele>
        <time>2020-07-10T10:11:34Z</time>
      </trkpt>
      <trkpt lat="47.76551" lon="-3.48076">
        <ele>27.06</ele>
        <time>2020-07-10T10:11:35Z</time>
      </trkpt>
      <trkpt lat="47.76553" lon="-3.48072">
        <ele>27.22</ele>
        <time>2020-07-10T10:11:36Z</time>
      </trkpt>
      <trkpt lat="47.76554" lon="-3.48068">
        <ele>27.41</ele>
        <time>2020-07-10T10:11:37Z</time>
      </trkpt>
      <trkpt lat="47.76555" lon="-3.48063">
        <ele>27.62</ele>
        <time>2020-07-10T10:11:38Z</time>
      </trkpt>
      <trkpt lat="47.76557" lon="-3.48059">
        <ele>27.84</ele>
        <time>2020-07-10T10:11:39Z</time>
      </trkpt>
      <trkpt lat="47.76559" lon="-3.48055">
        <ele>28.03</ele>
        <time>2020-07-10T10:11:40Z</time>
      </trkpt>
      <trkpt lat="47.7656" lon="-3.4805">
        <ele>28.13</ele>
        <time>2020-07-10T10:11:41Z</time>
      </trkpt>
      <trkpt lat="47.76562" lon="-3.48046">
        <ele>28.2</ele>
        <time>2020-07-10T10:11:42Z</time>
      </trkpt>
      <trkpt lat="47.76564" lon="-3.48043">
        <ele>28.26</ele>
        <time>2020-07-10T10:11:43Z</time>
      </trkpt>
      <trkpt lat="47.76565" lon="-3.48039">
        <ele>28.33</ele>
        <time>2020-07-10T10:11:44Z</time>
      </trkpt>
      <trkpt lat="47.76567" lon="-3.48036">
        <ele>28.39</ele>
        <time>2020-07-10T10:11:45Z</time>
      </trkpt>
      <trkpt lat="47.76569" lon="-3.48032">
        <ele>28.45</ele>
        <time>2020-07-10T10:11:46Z</time>
      </trkpt>
      <trkpt lat="47.7657" lon="-3.48029">
        <ele>28.5</ele>
        <time>2020-07-10T10:11:47Z</time>
      </trkpt>
      <trkpt lat="47.7657" lon="-3.48025">
        <ele>28.58</ele>
        <time>2020-07-10T10:11:48Z</time>
      </trkpt>
      <trkpt lat="47.76571" lon="-3.48022">
        <ele>28.71</ele>
        <time>2020-07-10T10:11:49Z</time>
      </trkpt>
      <trkpt lat="47.76572" lon="-3.48017">
        <ele>28.92</ele>
        <time>2020-07-10T10:11:50Z</time>
      </trkpt>
      <trkpt lat="47.76574" lon="-3.48011">
        <ele>29.15</ele>
        <time>2020-07-10T10:11:51Z</time>
      </trkpt>
      <trkpt lat="47.76575" lon="-3.48007">
        <ele>29.36</ele>
        <time>2020-07-10T10:11:52Z</time>
      </trkpt>
      <trkpt lat="47.76576" lon="-3.48002">
        <ele>29.59</ele>
        <time>2020-07-10T10:11:53Z</time>
      </trkpt>
      <trkpt lat="47.76577" lon="-3.47997">
        <ele>29.81</ele>
        <time>2020-07-10T10:11:54Z</time>
      </trkpt>
      <trkpt lat="47.76578" lon="-3.47991">
        <ele>30.04</ele>
        <time>2020-07-10T10:11:55Z</time>
      </trkpt>
      <trkpt lat="47.76579" lon="-3.47986">
        <ele>30.25</ele>
        <time>2020-07-10T10:11:56Z</time>
      </trkpt>
      <trkpt lat="47.7658" lon="-3.47981">
        <ele>30.47</ele>
        <time>2020-07-10T10:11:57Z</time>
      </trkpt>
      <trkpt lat="47.76581" lon="-3.47975">
        <ele>30.71</ele>
        <time>2020-07-10T10:11:58Z</time>
      </trkpt>
      <trkpt lat="47.76581" lon="-3.47968">
        <ele>30.97</ele>
        <time>2020-07-10T10:11:59Z</time>
      </trkpt>
      <trkpt lat="47.76583" lon="-3.47962">
        <ele>31.22</ele>
        <time>2020-07-10T10:12:00Z</time>
      </trkpt>
      <trkpt lat="47.76583" lon="-3.47957">
        <ele>31.46</ele>
        <time>2020-07-10T10:12:01Z</time>
      </trkpt>
      <trkpt lat="47.76584" lon="-3.47952">
        <ele>31.67</ele>
        <time>2020-07-10T10:12:02Z</time>
      </trkpt>
      <trkpt lat="47.76585" lon="-3.47947">
        <ele>31.88</ele>
        <time>2020-07-10T10:12:03Z</time>
      </trkpt>
      <trkpt lat="47.76586" lon="-3.47943">
        <ele>32.06</ele>
        <time>2020-07-10T10:12:04Z</time>
      </trkpt>
      <trkpt lat="47.76587" lon="-3.47941">
        <ele>32.22</ele>
        <time>2020-07-10T10:12:05Z</time>
      </trkpt>
      <trkpt lat="47.7659" lon="-3.47939">
        <ele>32.37</ele>
        <time>2020-07-10T10:12:06Z</time>
      </trkpt>
      <trkpt lat="47.76592" lon="-3.47939">
        <ele>32.47</ele>
        <time>2020-07-10T10:12:07Z</time>
      </trkpt>
      <trkpt lat="47.76594" lon="-3.47939">
        <ele>32.54</ele>
        <time>2020-07-10T10:12:08Z</time>
      </trkpt>
      <trkpt lat="47.76597" lon="-3.4794">
        <ele>32.61</ele>
        <time>2020-07-10T10:12:09Z</time>
      </trkpt>
      <trkpt lat="47.766" lon="-3.47941">
        <ele>32.69</ele>
        <time>2020-07-10T10:12:10Z</time>
      </trkpt>
      <trkpt lat="47.76604" lon="-3.47942">
        <ele>32.78</ele>
        <time>2020-07-10T10:12:11Z</time>
      </trkpt>
      <trkpt lat="47.76607" lon="-3.47942">
        <ele>32.88</ele>
        <time>2020-07-10T10:12:12Z</time>
      </trkpt>
      <trkpt lat="47.76611" lon="-3.47941">
        <ele>33.06</ele>
        <time>2020-07-10T10:12:13Z</time>
      </trkpt>
      <trkpt lat="47.76617" lon="-3.4794">
        <ele>33.41</ele>
        <time>2020-07-10T10:12:14Z</time>
      </trkpt>
      <trkpt lat="47.76621" lon="-3.47939">
        <ele>33.79</ele>
        <time>2020-07-10T10:12:15Z</time>
      </trkpt>
      <trkpt lat="47.76626" lon="-3.47938">
        <ele>34.17</ele>
        <time>2020-07-10T10:12:16Z</time>
      </trkpt>
      <trkpt lat="47.7663" lon="-3.47937">
        <ele>34.51</ele>
        <time>2020-07-10T10:12:17Z</time>
      </trkpt>
      <trkpt lat="47.76635" lon="-3.47937">
        <ele>34.84</ele>
        <time>2020-07-10T10:12:18Z</time>
      </trkpt>
      <trkpt lat="47.76639" lon="-3.47937">
        <ele>35.15</ele>
        <time>2020-07-10T10:12:19Z</time>
      </trkpt>
      <trkpt lat="47.76643" lon="-3.47937">
        <ele>35.33</ele>
        <time>2020-07-10T10:12:20Z</time>
      </trkpt>
      <trkpt lat="47.76646" lon="-3.47937">
        <ele>35.48</ele>
        <time>2020-07-10T10:12:21Z</time>
      </trkpt>
      <trkpt lat="47.7665" lon="-3.47936">
        <ele>35.63</ele>
        <time>2020-07-10T10:12:22Z</time>
      </trkpt>
      <trkpt lat="47.76654" lon="-3.47936">
        <ele>35.77</ele>
        <time>2020-07-10T10:12:23Z</time>
      </trkpt>
      <trkpt lat="47.76657" lon="-3.47936">
        <ele>35.91</ele>
        <time>2020-07-10T10:12:24Z</time>
      </trkpt>
      <trkpt lat="47.76661" lon="-3.47936">
        <ele>36.05</ele>
        <time>2020-07-10T10:12:25Z</time>
      </trkpt>
      <trkpt lat="47.76665" lon="-3.47935">
        <ele>36.19</ele>
        <time>2020-07-10T10:12:26Z</time>
      </trkpt>
      <trkpt lat="47.76669" lon="-3.47935">
        <ele>36.35</ele>
        <time>2020-07-10T10:12:27Z</time>
      </trkpt>
      <trkpt lat="47.76674" lon="-3.47935">
        <ele>36.52</ele>
        <time>2020-07-10T10:12:28Z</time>
      </trkpt>
      <trkpt lat="47.76679" lon="-3.47935">
        <ele>36.69</ele>
        <time>2020-07-10T10:12:29Z</time>
      </trkpt>
      <trkpt lat="47.76683" lon="-3.47935">
        <ele>36.86</ele>
        <time>2020-07-10T10:12:30Z</time>
      </trkpt>
      <trkpt lat="47.76688" lon="-3.47935">
        <ele>37.03</ele>
        <time>2020-07-10T10:12:31Z</time>
      </trkpt>
      <trkpt lat="47.76692" lon="-3.47935">
        <ele>37.19</ele>
        <time>2020-07-10T10:12:32Z</time>
      </trkpt>
      <trkpt lat="47.76696" lon="-3.47934">
        <ele>37.34</ele>
        <time>2020-07-10T10:12:33Z</time>
      </trkpt>
      <trkpt lat="47.767" lon="-3.47933">
        <ele>37.46</ele>
        <time>2020-07-10T10:12:34Z</time>
      </trkpt>
      <trkpt lat="47.76704" lon="-3.47933">
        <ele>37.57</ele>
        <time>2020-07-10T10:12:35Z</time>
      </trkpt>
      <trkpt lat="47.76708" lon="-3.47933">
        <ele>37.67</ele>
        <time>2020-07-10T10:12:36Z</time>
      </trkpt>
      <trkpt lat="47.76712" lon="-3.47933">
        <ele>37.75</ele>
        <time>2020-07-10T10:12:37Z</time>
      </trkpt>
      <trkpt lat="47.76716" lon="-3.47933">
        <ele>37.84</ele>
        <time>2020-07-10T10:12:38Z</time>
      </trkpt>
      <trkpt lat="47.7672" lon="-3.47933">
        <ele>37.92</ele>
        <time>2020-07-10T10:12:39Z</time>
      </trkpt>
      <trkpt lat="47.76725" lon="-3.47932">
        <ele>38.03</ele>
        <time>2020-07-10T10:12:40Z</time>
      </trkpt>
      <trkpt lat="47.76729" lon="-3.47932">
        <ele>38.18</ele>
        <time>2020-07-10T10:12:41Z</time>
      </trkpt>
      <trkpt lat="47.76733" lon="-3.47932">
        <ele>38.32</ele>
        <time>2020-07-10T10:12:42Z</time>
      </trkpt>
      <trkpt lat="47.76737" lon="-3.47931">
        <ele>38.48</ele>
        <time>2020-07-10T10:12:43Z</time>
      </trkpt>
      <trkpt lat="47.76742" lon="-3.47931">
        <ele>38.63</ele>
        <time>2020-07-10T10:12:44Z</time>
      </trkpt>
      <trkpt lat="47.76746" lon="-3.47931">
        <ele>38.79</ele>
        <time>2020-07-10T10:12:45Z</time>
      </trkpt>
      <trkpt lat="47.7675" lon="-3.4793">
        <ele>38.94</ele>
        <time>2020-07-10T10:12:46Z</time>
      </trkpt>
      <trkpt lat="47.76754" lon="-3.4793">
        <ele>39.04</ele>
        <time>2020-07-10T10:12:47Z</time>
      </trkpt>
      <trkpt lat="47.76759" lon="-3.4793">
        <ele>39.13</ele>
        <time>2020-07-10T10:12:48Z</time>
      </trkpt>
      <trkpt lat="47.76763" lon="-3.47929">
        <ele>39.22</ele>
        <time>2020-07-10T10:12:49Z</time>
      </trkpt>
      <trkpt lat="47.76768" lon="-3.47929">
        <ele>39.31</ele>
        <time>2020-07-10T10:12:50Z</time>
      </trkpt>
      <trkpt lat="47.76772" lon="-3.47929">
        <ele>39.41</ele>
        <time>2020-07-10T10:12:51Z</time>
      </trkpt>
      <trkpt lat="47.76776" lon="-3.47928">
        <ele>39.51</ele>
        <time>2020-07-10T10:12:52Z</time>
      </trkpt>
      <trkpt lat="47.76781" lon="-3.47928">
        <ele>39.61</ele>
        <time>2020-07-10T10:12:53Z</time>
      </trkpt>
      <trkpt lat="47.76785" lon="-3.47927">
        <ele>39.69</ele>
        <time>2020-07-10T10:12:54Z</time>
      </trkpt>
      <trkpt lat="47.7679" lon="-3.47927">
        <ele>39.76</ele>
        <time>2020-07-10T10:12:55Z</time>
      </trkpt>
      <trkpt lat="47.76794" lon="-3.47926">
        <ele>39.83</ele>
        <time>2020-07-10T10:12:56Z</time>
      </trkpt>
      <trkpt lat="47.76799" lon="-3.47926">
        <ele>39.89</ele>
        <time>2020-07-10T10:12:57Z</time>
      </trkpt>
      <trkpt lat="47.76804" lon="-3.47925">
        <ele>39.95</ele>
        <time>2020-07-10T10:12:58Z</time>
      </trkpt>
      <trkpt lat="47.76809" lon="-3.47925">
        <ele>39.96</ele>
        <time>2020-07-10T10:12:59Z</time>
      </trkpt>
      <trkpt lat="47.76814" lon="-3.47924">
        <ele>39.94</ele>
        <time>2020-07-10T10:13:00Z</time>
      </trkpt>
      <trkpt lat="47.76819" lon="-3.47923">
        <ele>39.9</ele>
        <time>2020-07-10T10:13:01Z</time>
      </trkpt>
      <trkpt lat="47.76824" lon="-3.47923">
        <ele>39.87</ele>
        <time>2020-07-10T10:13:02Z</time>
      </trkpt>
      <trkpt lat="47.76829" lon="-3.47922">
        <ele>39.85</ele>
        <time>2020-07-10T10:13:03Z</time>
      </trkpt>
      <trkpt lat="47.76834" lon="-3.47922">
        <ele>39.83</ele>
        <time>2020-07-10T10:13:04Z</time>
      </trkpt>
      <trkpt lat="47.76839" lon="-3.47921">
        <ele>39.86</ele>
        <time>2020-07-10T10:13:05Z</time>
      </trkpt>
      <trkpt lat="47.76843" lon="-3.4792">
        <ele>39.91</ele>
        <time>2020-07-10T10:13:06Z</time>
      </trkpt>
      <trkpt lat="47.76849" lon="-3.47919">
        <ele>39.94</ele>
        <time>2020-07-10T10:13:07Z</time>
      </trkpt>
      <trkpt lat="47.76854" lon="-3.47919">
        <ele>39.97</ele>
        <time>2020-07-10T10:13:08Z</time>
      </trkpt>
      <trkpt lat="47.76859" lon="-3.47918">
        <ele>39.99</ele>
        <time>2020-07-10T10:13:09Z</time>
      </trkpt>
      <trkpt lat="47.76864" lon="-3.47917">
        <ele>40.06</ele>
        <time>2020-07-10T10:13:10Z</time>
      </trkpt>
      <trkpt lat="47.76869" lon="-3.47917">
        <ele>40.2</ele>
        <time>2020-07-10T10:13:11Z</time>
      </trkpt>
      <trkpt lat="47.76873" lon="-3.47916">
        <ele>40.38</ele>
        <time>2020-07-10T10:13:12Z</time>
      </trkpt>
      <trkpt lat="47.76879" lon="-3.47916">
        <ele>40.57</ele>
        <time>2020-07-10T10:13:13Z</time>
      </trkpt>
      <trkpt lat="47.76883" lon="-3.47915">
        <ele>40.77</ele>
        <time>2020-07-10T10:13:14Z</time>
      </trkpt>
      <trkpt lat="47.76888" lon="-3.47915">
        <ele>40.97</ele>
        <time>2020-07-10T10:13:15Z</time>
      </trkpt>
      <trkpt lat="47.76893" lon="-3.47914">
        <ele>41.17</ele>
        <time>2020-07-10T10:13:16Z</time>
      </trkpt>
      <trkpt lat="47.76898" lon="-3.47913">
        <ele>41.37</ele>
        <time>2020-07-10T10:13:17Z</time>
      </trkpt>
      <trkpt lat="47.76903" lon="-3.47913">
        <ele>41.55</ele>
        <time>2020-07-10T10:13:18Z</time>
      </trkpt>
      <trkpt lat="47.76907" lon="-3.47913">
        <ele>41.71</ele>
        <time>2020-07-10T10:13:19Z</time>
      </trkpt>
      <trkpt lat="47.76912" lon="-3.47913">
        <ele>41.87</ele>
        <time>2020-07-10T10:13:20Z</time>
      </trkpt>
      <trkpt lat="47.76916" lon="-3.47913">
        <ele>42.05</ele>
        <time>2020-07-10T10:13:21Z</time>
      </trkpt>
      <trkpt lat="47.76921" lon="-3.47912">
        <ele>42.21</ele>
        <time>2020-07-10T10:13:22Z</time>
      </trkpt>
      <trkpt lat="47.76925" lon="-3.47912">
        <ele>42.36</ele>
        <time>2020-07-10T10:13:23Z</time>
      </trkpt>
      <trkpt lat="47.7693" lon="-3.47912">
        <ele>42.5</ele>
        <time>2020-07-10T10:13:24Z</time>
      </trkpt>
      <trkpt lat="47.76934" lon="-3.47912">
        <ele>42.64</ele>
        <time>2020-07-10T10:13:25Z</time>
      </trkpt>
      <trkpt lat="47.76939" lon="-3.47912">
        <ele>42.78</ele>
        <time>2020-07-10T10:13:26Z</time>
      </trkpt>
      <trkpt lat="47.76944" lon="-3.47912">
        <ele>42.92</ele>
        <time>2020-07-10T10:13:27Z</time>
      </trkpt>
      <trkpt lat="47.76949" lon="-3.47912">
        <ele>43.08</ele>
        <time>2020-07-10T10:13:28Z</time>
      </trkpt>
      <trkpt lat="47.76953" lon="-3.47912">
        <ele>43.24</ele>
        <time>2020-07-10T10:13:29Z</time>
      </trkpt>
      <trkpt lat="47.76958" lon="-3.47911">
        <ele>43.42</ele>
        <time>2020-07-10T10:13:30Z</time>
      </trkpt>
      <trkpt lat="47.76963" lon="-3.47911">
        <ele>43.59</ele>
        <time>2020-07-10T10:13:31Z</time>
      </trkpt>
      <trkpt lat="47.76967" lon="-3.47911">
        <ele>43.75</ele>
        <time>2020-07-10T10:13:32Z</time>
      </trkpt>
      <trkpt lat="47.76972" lon="-3.4791">
        <ele>43.92</ele>
        <time>2020-07-10T10:13:33Z</time>
      </trkpt>
      <trkpt lat="47.76977" lon="-3.4791">
        <ele>44.01</ele>
        <time>2020-07-10T10:13:34Z</time>
      </trkpt>
      <trkpt lat="47.76982" lon="-3.47909">
        <ele>44.07</ele>
        <time>2020-07-10T10:13:35Z</time>
      </trkpt>
      <trkpt lat="47.76987" lon="-3.47909">
        <ele>44.13</ele>
        <time>2020-07-10T10:13:36Z</time>
      </trkpt>
      <trkpt lat="47.76992" lon="-3.47908">
        <ele>44.19</ele>
        <time>2020-07-10T10:13:37Z</time>
      </trkpt>
      <trkpt lat="47.76997" lon="-3.47908">
        <ele>44.26</ele>
        <time>2020-07-10T10:13:38Z</time>
      </trkpt>
      <trkpt lat="47.77001" lon="-3.47907">
        <ele>44.35</ele>
        <time>2020-07-10T10:13:39Z</time>
      </trkpt>
      <trkpt lat="47.77011" lon="-3.47906">
        <ele>44.64</ele>
        <time>2020-07-10T10:13:41Z</time>
      </trkpt>
      <trkpt lat="47.77015" lon="-3.47906">
        <ele>44.85</ele>
        <time>2020-07-10T10:13:42Z</time>
      </trkpt>
      <trkpt lat="47.7702" lon="-3.47905">
        <ele>45.04</ele>
        <time>2020-07-10T10:13:43Z</time>
      </trkpt>
      <trkpt lat="47.77024" lon="-3.47905">
        <ele>45.23</ele>
        <time>2020-07-10T10:13:44Z</time>
      </trkpt>
      <trkpt lat="47.77029" lon="-3.47905">
        <ele>45.4</ele>
        <time>2020-07-10T10:13:45Z</time>
      </trkpt>
      <trkpt lat="47.77034" lon="-3.47904">
        <ele>45.52</ele>
        <time>2020-07-10T10:13:46Z</time>
      </trkpt>
      <trkpt lat="47.77039" lon="-3.47904">
        <ele>45.63</ele>
        <time>2020-07-10T10:13:47Z</time>
      </trkpt>
      <trkpt lat="47.77044" lon="-3.47903">
        <ele>45.73</ele>
        <time>2020-07-10T10:13:48Z</time>
      </trkpt>
      <trkpt lat="47.77048" lon="-3.47903">
        <ele>45.83</ele>
        <time>2020-07-10T10:13:49Z</time>
      </trkpt>
      <trkpt lat="47.77053" lon="-3.47902">
        <ele>45.92</ele>
        <time>2020-07-10T10:13:50Z</time>
      </trkpt>
      <trkpt lat="47.77058" lon="-3.47901">
        <ele>46.01</ele>
        <time>2020-07-10T10:13:51Z</time>
      </trkpt>
      <trkpt lat="47.77063" lon="-3.479">
        <ele>46.11</ele>
        <time>2020-07-10T10:13:52Z</time>
      </trkpt>
      <trkpt lat="47.77067" lon="-3.47899">
        <ele>46.22</ele>
        <time>2020-07-10T10:13:53Z</time>
      </trkpt>
      <trkpt lat="47.77072" lon="-3.47898">
        <ele>46.34</ele>
        <time>2020-07-10T10:13:54Z</time>
      </trkpt>
      <trkpt lat="47.77077" lon="-3.47898">
        <ele>46.47</ele>
        <time>2020-07-10T10:13:55Z</time>
      </trkpt>
      <trkpt lat="47.77082" lon="-3.47897">
        <ele>46.6</ele>
        <time>2020-07-10T10:13:56Z</time>
      </trkpt>
      <trkpt lat="47.77087" lon="-3.47897">
        <ele>46.71</ele>
        <time>2020-07-10T10:13:57Z</time>
      </trkpt>
      <trkpt lat="47.77092" lon="-3.47896">
        <ele>46.78</ele>
        <time>2020-07-10T10:13:58Z</time>
      </trkpt>
      <trkpt lat="47.77097" lon="-3.47896">
        <ele>46.85</ele>
        <time>2020-07-10T10:13:59Z</time>
      </trkpt>
      <trkpt lat="47.77102" lon="-3.47895">
        <ele>46.9</ele>
        <time>2020-07-10T10:14:00Z</time>
      </trkpt>
      <trkpt lat="47.77106" lon="-3.47895">
        <ele>46.95</ele>
        <time>2020-07-10T10:14:01Z</time>
      </trkpt>
      <trkpt lat="47.77111" lon="-3.47894">
        <ele>46.98</ele>
        <time>2020-07-10T10:14:02Z</time>
      </trkpt>
      <trkpt lat="47.77116" lon="-3.47894">
        <ele>47</ele>
        <time>2020-07-10T10:14:03Z</time>
      </trkpt>
      <trkpt lat="47.7712" lon="-3.47895">
        <ele>47</ele>
        <time>2020-07-10T10:14:04Z</time>
      </trkpt>
      <trkpt lat="47.77124" lon="-3.47895">
        <ele>47</ele>
        <time>2020-07-10T10:14:05Z</time>
      </trkpt>
      <trkpt lat="47.77128" lon="-3.47895">
        <ele>47</ele>
        <time>2020-07-10T10:14:06Z</time>
      </trkpt>
      <trkpt lat="47.77132" lon="-3.47894">
        <ele>47</ele>
        <time>2020-07-10T10:14:07Z</time>
      </trkpt>
      <trkpt lat="47.77136" lon="-3.47893">
        <ele>47</ele>
        <time>2020-07-10T10:14:08Z</time>
      </trkpt>
      <trkpt lat="47.77141" lon="-3.47893">
        <ele>47</ele>
        <time>2020-07-10T10:14:09Z</time>
      </trkpt>
      <trkpt lat="47.77146" lon="-3.47891">
        <ele>47</ele>
        <time>2020-07-10T10:14:10Z</time>
      </trkpt>
      <trkpt lat="47.7715" lon="-3.4789">
        <ele>47</ele>
        <time>2020-07-10T10:14:11Z</time>
      </trkpt>
      <trkpt lat="47.77155" lon="-3.47889">
        <ele>47</ele>
        <time>2020-07-10T10:14:12Z</time>
      </trkpt>
      <trkpt lat="47.77159" lon="-3.47889">
        <ele>47</ele>
        <time>2020-07-10T10:14:13Z</time>
      </trkpt>
      <trkpt lat="47.77162" lon="-3.47888">
        <ele>47</ele>
        <time>2020-07-10T10:14:14Z</time>
      </trkpt>
      <trkpt lat="47.77166" lon="-3.47883">
        <ele>47.01</ele>
        <time>2020-07-10T10:14:15Z</time>
      </trkpt>
      <trkpt lat="47.77168" lon="-3.47877">
        <ele>46.97</ele>
        <time>2020-07-10T10:14:16Z</time>
      </trkpt>
      <trkpt lat="47.77168" lon="-3.47869">
        <ele>46.94</ele>
        <time>2020-07-10T10:14:17Z</time>
      </trkpt>
      <trkpt lat="47.77168" lon="-3.47862">
        <ele>46.94</ele>
        <time>2020-07-10T10:14:18Z</time>
      </trkpt>
      <trkpt lat="47.77168" lon="-3.47854">
        <ele>46.94</ele>
        <time>2020-07-10T10:14:19Z</time>
      </trkpt>
      <trkpt lat="47.77168" lon="-3.47846">
        <ele>46.96</ele>
        <time>2020-07-10T10:14:20Z</time>
      </trkpt>
      <trkpt lat="47.77167" lon="-3.47838">
        <ele>46.97</ele>
        <time>2020-07-10T10:14:21Z</time>
      </trkpt>
      <trkpt lat="47.77167" lon="-3.47831">
        <ele>46.99</ele>
        <time>2020-07-10T10:14:22Z</time>
      </trkpt>
      <trkpt lat="47.77166" lon="-3.47823">
        <ele>47</ele>
        <time>2020-07-10T10:14:23Z</time>
      </trkpt>
      <trkpt lat="47.77165" lon="-3.47815">
        <ele>47</ele>
        <time>2020-07-10T10:14:24Z</time>
      </trkpt>
      <trkpt lat="47.77164" lon="-3.47808">
        <ele>47</ele>
        <time>2020-07-10T10:14:25Z</time>
      </trkpt>
      <trkpt lat="47.77164" lon="-3.478">
        <ele>47</ele>
        <time>2020-07-10T10:14:26Z</time>
      </trkpt>
      <trkpt lat="47.77163" lon="-3.47792">
        <ele>47</ele>
        <time>2020-07-10T10:14:27Z</time>
      </trkpt>
      <trkpt lat="47.77162" lon="-3.47783">
        <ele>47</ele>
        <time>2020-07-10T10:14:28Z</time>
      </trkpt>
      <trkpt lat="47.77162" lon="-3.47775">
        <ele>47</ele>
        <time>2020-07-10T10:14:29Z</time>
      </trkpt>
      <trkpt lat="47.77161" lon="-3.47766">
        <ele>47</ele>
        <time>2020-07-10T10:14:30Z</time>
      </trkpt>
      <trkpt lat="47.77161" lon="-3.47758">
        <ele>47</ele>
        <time>2020-07-10T10:14:31Z</time>
      </trkpt>
      <trkpt lat="47.77161" lon="-3.47749">
        <ele>46.99</ele>
        <time>2020-07-10T10:14:32Z</time>
      </trkpt>
      <trkpt lat="47.77162" lon="-3.47741">
        <ele>46.82</ele>
        <time>2020-07-10T10:14:33Z</time>
      </trkpt>
      <trkpt lat="47.77162" lon="-3.47733">
        <ele>46.59</ele>
        <time>2020-07-10T10:14:34Z</time>
      </trkpt>
      <trkpt lat="47.77164" lon="-3.47725">
        <ele>46.32</ele>
        <time>2020-07-10T10:14:35Z</time>
      </trkpt>
      <trkpt lat="47.77165" lon="-3.47717">
        <ele>46.14</ele>
        <time>2020-07-10T10:14:36Z</time>
      </trkpt>
      <trkpt lat="47.77166" lon="-3.47709">
        <ele>46.05</ele>
        <time>2020-07-10T10:14:37Z</time>
      </trkpt>
      <trkpt lat="47.77168" lon="-3.47702">
        <ele>45.98</ele>
        <time>2020-07-10T10:14:38Z</time>
      </trkpt>
      <trkpt lat="47.77169" lon="-3.47694">
        <ele>45.93</ele>
        <time>2020-07-10T10:14:39Z</time>
      </trkpt>
      <trkpt lat="47.77171" lon="-3.47687">
        <ele>45.87</ele>
        <time>2020-07-10T10:14:40Z</time>
      </trkpt>
      <trkpt lat="47.77172" lon="-3.4768">
        <ele>45.82</ele>
        <time>2020-07-10T10:14:41Z</time>
      </trkpt>
      <trkpt lat="47.77174" lon="-3.47673">
        <ele>45.76</ele>
        <time>2020-07-10T10:14:42Z</time>
      </trkpt>
      <trkpt lat="47.77176" lon="-3.47665">
        <ele>45.67</ele>
        <time>2020-07-10T10:14:43Z</time>
      </trkpt>
      <trkpt lat="47.77178" lon="-3.47657">
        <ele>45.48</ele>
        <time>2020-07-10T10:14:44Z</time>
      </trkpt>
      <trkpt lat="47.77179" lon="-3.4765">
        <ele>45.3</ele>
        <time>2020-07-10T10:14:45Z</time>
      </trkpt>
      <trkpt lat="47.77181" lon="-3.47643">
        <ele>45.13</ele>
        <time>2020-07-10T10:14:46Z</time>
      </trkpt>
      <trkpt lat="47.77184" lon="-3.47636">
        <ele>45</ele>
        <time>2020-07-10T10:14:47Z</time>
      </trkpt>
      <trkpt lat="47.77188" lon="-3.47632">
        <ele>44.86</ele>
        <time>2020-07-10T10:14:48Z</time>
      </trkpt>
      <trkpt lat="47.77194" lon="-3.47629">
        <ele>44.72</ele>
        <time>2020-07-10T10:14:49Z</time>
      </trkpt>
      <trkpt lat="47.77199" lon="-3.47629">
        <ele>44.47</ele>
        <time>2020-07-10T10:14:50Z</time>
      </trkpt>
      <trkpt lat="47.77204" lon="-3.47631">
        <ele>44.2</ele>
        <time>2020-07-10T10:14:51Z</time>
      </trkpt>
      <trkpt lat="47.77211" lon="-3.47633">
        <ele>43.89</ele>
        <time>2020-07-10T10:14:52Z</time>
      </trkpt>
      <trkpt lat="47.77217" lon="-3.47636">
        <ele>43.54</ele>
        <time>2020-07-10T10:14:53Z</time>
      </trkpt>
      <trkpt lat="47.77222" lon="-3.47637">
        <ele>43.16</ele>
        <time>2020-07-10T10:14:54Z</time>
      </trkpt>
      <trkpt lat="47.77228" lon="-3.47639">
        <ele>42.74</ele>
        <time>2020-07-10T10:14:55Z</time>
      </trkpt>
      <trkpt lat="47.77234" lon="-3.4764">
        <ele>42.3</ele>
        <time>2020-07-10T10:14:56Z</time>
      </trkpt>
      <trkpt lat="47.77241" lon="-3.47642">
        <ele>41.85</ele>
        <time>2020-07-10T10:14:57Z</time>
      </trkpt>
      <trkpt lat="47.77247" lon="-3.47643">
        <ele>41.4</ele>
        <time>2020-07-10T10:14:58Z</time>
      </trkpt>
      <trkpt lat="47.77254" lon="-3.47644">
        <ele>40.8</ele>
        <time>2020-07-10T10:14:59Z</time>
      </trkpt>
      <trkpt lat="47.77261" lon="-3.47646">
        <ele>40.05</ele>
        <time>2020-07-10T10:15:00Z</time>
      </trkpt>
      <trkpt lat="47.77268" lon="-3.47648">
        <ele>39.19</ele>
        <time>2020-07-10T10:15:01Z</time>
      </trkpt>
      <trkpt lat="47.77276" lon="-3.47651">
        <ele>38.24</ele>
        <time>2020-07-10T10:15:02Z</time>
      </trkpt>
      <trkpt lat="47.77283" lon="-3.47655">
        <ele>37.32</ele>
        <time>2020-07-10T10:15:03Z</time>
      </trkpt>
      <trkpt lat="47.77291" lon="-3.47659">
        <ele>36.42</ele>
        <time>2020-07-10T10:15:04Z</time>
      </trkpt>
      <trkpt lat="47.77298" lon="-3.47662">
        <ele>35.48</ele>
        <time>2020-07-10T10:15:05Z</time>
      </trkpt>
      <trkpt lat="47.77306" lon="-3.47665">
        <ele>34.47</ele>
        <time>2020-07-10T10:15:06Z</time>
      </trkpt>
      <trkpt lat="47.77314" lon="-3.47669">
        <ele>33.19</ele>
        <time>2020-07-10T10:15:07Z</time>
      </trkpt>
      <trkpt lat="47.77323" lon="-3.47672">
        <ele>31.78</ele>
        <time>2020-07-10T10:15:08Z</time>
      </trkpt>
      <trkpt lat="47.77332" lon="-3.47674">
        <ele>30.47</ele>
        <time>2020-07-10T10:15:09Z</time>
      </trkpt>
      <trkpt lat="47.77342" lon="-3.4768">
        <ele>28.96</ele>
        <time>2020-07-10T10:15:10Z</time>
      </trkpt>
      <trkpt lat="47.77355" lon="-3.47681">
        <ele>27.16</ele>
        <time>2020-07-10T10:15:11Z</time>
      </trkpt>
      <trkpt lat="47.77366" lon="-3.47682">
        <ele>25.39</ele>
        <time>2020-07-10T10:15:12Z</time>
      </trkpt>
      <trkpt lat="47.77375" lon="-3.47686">
        <ele>23.67</ele>
        <time>2020-07-10T10:15:13Z</time>
      </trkpt>
      <trkpt lat="47.77384" lon="-3.47686">
        <ele>22.15</ele>
        <time>2020-07-10T10:15:14Z</time>
      </trkpt>
      <trkpt lat="47.77392" lon="-3.47689">
        <ele>20.82</ele>
        <time>2020-07-10T10:15:15Z</time>
      </trkpt>
      <trkpt lat="47.774" lon="-3.47692">
        <ele>20.04</ele>
        <time>2020-07-10T10:15:16Z</time>
      </trkpt>
      <trkpt lat="47.77408" lon="-3.47695">
        <ele>19.53</ele>
        <time>2020-07-10T10:15:17Z</time>
      </trkpt>
      <trkpt lat="47.77414" lon="-3.47699">
        <ele>19.12</ele>
        <time>2020-07-10T10:15:18Z</time>
      </trkpt>
      <trkpt lat="47.77419" lon="-3.47701">
        <ele>18.98</ele>
        <time>2020-07-10T10:15:19Z</time>
      </trkpt>
      <trkpt lat="47.77421" lon="-3.47703">
        <ele>19.05</ele>
        <time>2020-07-10T10:15:20Z</time>
      </trkpt>
      <trkpt lat="47.77424" lon="-3.47706">
        <ele>19.18</ele>
        <time>2020-07-10T10:15:21Z</time>
      </trkpt>
      <trkpt lat="47.77426" lon="-3.47708">
        <ele>19.31</ele>
        <time>2020-07-10T10:15:22Z</time>
      </trkpt>
      <trkpt lat="47.77428" lon="-3.47708">
        <ele>19.5</ele>
        <time>2020-07-10T10:15:23Z</time>
      </trkpt>
      <trkpt lat="47.77431" lon="-3.47706">
        <ele>19.73</ele>
        <time>2020-07-10T10:15:24Z</time>
      </trkpt>
      <trkpt lat="47.77433" lon="-3.47704">
        <ele>19.96</ele>
        <time>2020-07-10T10:15:25Z</time>
      </trkpt>
      <trkpt lat="47.77436" lon="-3.477">
        <ele>20.21</ele>
        <time>2020-07-10T10:15:26Z</time>
      </trkpt>
      <trkpt lat="47.77437" lon="-3.47696">
        <ele>20.39</ele>
        <time>2020-07-10T10:15:27Z</time>
      </trkpt>
      <trkpt lat="47.77438" lon="-3.47692">
        <ele>20.52</ele>
        <time>2020-07-10T10:15:28Z</time>
      </trkpt>
      <trkpt lat="47.7744" lon="-3.47686">
        <ele>20.64</ele>
        <time>2020-07-10T10:15:29Z</time>
      </trkpt>
      <trkpt lat="47.7744" lon="-3.4768">
        <ele>20.68</ele>
        <time>2020-07-10T10:15:30Z</time>
      </trkpt>
      <trkpt lat="47.7744" lon="-3.47675">
        <ele>20.68</ele>
        <time>2020-07-10T10:15:31Z</time>
      </trkpt>
      <trkpt lat="47.7744" lon="-3.47671">
        <ele>20.67</ele>
        <time>2020-07-10T10:15:32Z</time>
      </trkpt>
      <trkpt lat="47.77441" lon="-3.47665">
        <ele>20.7</ele>
        <time>2020-07-10T10:15:33Z</time>
      </trkpt>
      <trkpt lat="47.77441" lon="-3.4766">
        <ele>20.72</ele>
        <time>2020-07-10T10:15:34Z</time>
      </trkpt>
      <trkpt lat="47.77441" lon="-3.47654">
        <ele>20.75</ele>
        <time>2020-07-10T10:15:35Z</time>
      </trkpt>
      <trkpt lat="47.77442" lon="-3.47649">
        <ele>20.79</ele>
        <time>2020-07-10T10:15:36Z</time>
      </trkpt>
      <trkpt lat="47.77443" lon="-3.47643">
        <ele>20.84</ele>
        <time>2020-07-10T10:15:37Z</time>
      </trkpt>
      <trkpt lat="47.77444" lon="-3.47635">
        <ele>20.94</ele>
        <time>2020-07-10T10:15:38Z</time>
      </trkpt>
      <trkpt lat="47.77444" lon="-3.4763">
        <ele>20.99</ele>
        <time>2020-07-10T10:15:39Z</time>
      </trkpt>
      <trkpt lat="47.77444" lon="-3.47625">
        <ele>20.99</ele>
        <time>2020-07-10T10:15:40Z</time>
      </trkpt>
      <trkpt lat="47.77445" lon="-3.47619">
        <ele>21.03</ele>
        <time>2020-07-10T10:15:41Z</time>
      </trkpt>
      <trkpt lat="47.77444" lon="-3.4761">
        <ele>21.02</ele>
        <time>2020-07-10T10:15:42Z</time>
      </trkpt>
      <trkpt lat="47.77445" lon="-3.47605">
        <ele>21.15</ele>
        <time>2020-07-10T10:15:43Z</time>
      </trkpt>
      <trkpt lat="47.77446" lon="-3.476">
        <ele>21.28</ele>
        <time>2020-07-10T10:15:44Z</time>
      </trkpt>
      <trkpt lat="47.77446" lon="-3.47594">
        <ele>21.34</ele>
        <time>2020-07-10T10:15:45Z</time>
      </trkpt>
      <trkpt lat="47.77446" lon="-3.4759">
        <ele>21.46</ele>
        <time>2020-07-10T10:15:46Z</time>
      </trkpt>
      <trkpt lat="47.77447" lon="-3.47585">
        <ele>21.71</ele>
        <time>2020-07-10T10:15:47Z</time>
      </trkpt>
      <trkpt lat="47.77448" lon="-3.4758">
        <ele>21.97</ele>
        <time>2020-07-10T10:15:48Z</time>
      </trkpt>
      <trkpt lat="47.77448" lon="-3.47574">
        <ele>22.3</ele>
        <time>2020-07-10T10:15:49Z</time>
      </trkpt>
      <trkpt lat="47.77449" lon="-3.47569">
        <ele>22.67</ele>
        <time>2020-07-10T10:15:50Z</time>
      </trkpt>
      <trkpt lat="47.7745" lon="-3.47564">
        <ele>22.95</ele>
        <time>2020-07-10T10:15:51Z</time>
      </trkpt>
      <trkpt lat="47.77451" lon="-3.4756">
        <ele>23.26</ele>
        <time>2020-07-10T10:15:52Z</time>
      </trkpt>
      <trkpt lat="47.77451" lon="-3.47556">
        <ele>23.56</ele>
        <time>2020-07-10T10:15:53Z</time>
      </trkpt>
      <trkpt lat="47.77452" lon="-3.47551">
        <ele>23.74</ele>
        <time>2020-07-10T10:15:54Z</time>
      </trkpt>
      <trkpt lat="47.77452" lon="-3.47546">
        <ele>23.76</ele>
        <time>2020-07-10T10:15:55Z</time>
      </trkpt>
      <trkpt lat="47.77452" lon="-3.47541">
        <ele>23.76</ele>
        <time>2020-07-10T10:15:56Z</time>
      </trkpt>
      <trkpt lat="47.77453" lon="-3.47535">
        <ele>23.83</ele>
        <time>2020-07-10T10:15:57Z</time>
      </trkpt>
      <trkpt lat="47.77454" lon="-3.47531">
        <ele>23.95</ele>
        <time>2020-07-10T10:15:58Z</time>
      </trkpt>
      <trkpt lat="47.77454" lon="-3.47527">
        <ele>24.06</ele>
        <time>2020-07-10T10:15:59Z</time>
      </trkpt>
      <trkpt lat="47.77456" lon="-3.47521">
        <ele>24.22</ele>
        <time>2020-07-10T10:16:00Z</time>
      </trkpt>
      <trkpt lat="47.77457" lon="-3.47517">
        <ele>24.35</ele>
        <time>2020-07-10T10:16:01Z</time>
      </trkpt>
      <trkpt lat="47.77458" lon="-3.47512">
        <ele>24.37</ele>
        <time>2020-07-10T10:16:02Z</time>
      </trkpt>
      <trkpt lat="47.77459" lon="-3.47509">
        <ele>24.38</ele>
        <time>2020-07-10T10:16:03Z</time>
      </trkpt>
      <trkpt lat="47.77459" lon="-3.47502">
        <ele>24.31</ele>
        <time>2020-07-10T10:16:04Z</time>
      </trkpt>
      <trkpt lat="47.7746" lon="-3.47495">
        <ele>24.17</ele>
        <time>2020-07-10T10:16:05Z</time>
      </trkpt>
      <trkpt lat="47.77461" lon="-3.47489">
        <ele>23.83</ele>
        <time>2020-07-10T10:16:06Z</time>
      </trkpt>
      <trkpt lat="47.77461" lon="-3.47486">
        <ele>23.7</ele>
        <time>2020-07-10T10:16:07Z</time>
      </trkpt>
      <trkpt lat="47.77462" lon="-3.47483">
        <ele>23.62</ele>
        <time>2020-07-10T10:16:08Z</time>
      </trkpt>
      <trkpt lat="47.77465" lon="-3.47479">
        <ele>23.9</ele>
        <time>2020-07-10T10:16:09Z</time>
      </trkpt>
      <trkpt lat="47.77466" lon="-3.47479">
        <ele>24.06</ele>
        <time>2020-07-10T10:16:10Z</time>
      </trkpt>
      <trkpt lat="47.77466" lon="-3.47479">
        <ele>24.13</ele>
        <time>2020-07-10T10:16:11Z</time>
      </trkpt>
      <trkpt lat="47.77466" lon="-3.47479">
        <ele>24.15</ele>
        <time>2020-07-10T10:16:12Z</time>
      </trkpt>
      <trkpt lat="47.77466" lon="-3.47479">
        <ele>24.15</ele>
        <time>2020-07-10T10:16:13Z</time>
      </trkpt>
      <trkpt lat="47.77466" lon="-3.47479">
        <ele>24.16</ele>
        <time>2020-07-10T10:16:14Z</time>
      </trkpt>
      <trkpt lat="47.77466" lon="-3.47479">
        <ele>24.16</ele>
        <time>2020-07-10T10:16:15Z</time>
      </trkpt>
      <trkpt lat="47.77466" lon="-3.47479">
        <ele>24.16</ele>
        <time>2020-07-10T10:16:16Z</time>
      </trkpt>
      <trkpt lat="47.77466" lon="-3.47479">
        <ele>24.16</ele>
        <time>2020-07-10T10:16:17Z</time>
      </trkpt>
      <trkpt lat="47.77466" lon="-3.47479">
        <ele>24.16</ele>
        <time>2020-07-10T10:16:18Z</time>
      </trkpt>
      <trkpt lat="47.77463" lon="-3.47466">
        <ele>23.38</ele>
        <time>2020-07-10T10:16:19Z</time>
      </trkpt>
      <trkpt lat="47.77462" lon="-3.47463">
        <ele>23.02</ele>
        <time>2020-07-10T10:16:20Z</time>
      </trkpt>
      <trkpt lat="47.77462" lon="-3.47459">
        <ele>22.83</ele>
        <time>2020-07-10T10:16:21Z</time>
      </trkpt>
      <trkpt lat="47.77461" lon="-3.47456">
        <ele>22.73</ele>
        <time>2020-07-10T10:16:22Z</time>
      </trkpt>
      <trkpt lat="47.7746" lon="-3.47453">
        <ele>22.55</ele>
        <time>2020-07-10T10:16:23Z</time>
      </trkpt>
      <trkpt lat="47.77459" lon="-3.47448">
        <ele>22.24</ele>
        <time>2020-07-10T10:16:24Z</time>
      </trkpt>
      <trkpt lat="47.77459" lon="-3.47445">
        <ele>22.12</ele>
        <time>2020-07-10T10:16:25Z</time>
      </trkpt>
      <trkpt lat="47.77459" lon="-3.4744">
        <ele>22.03</ele>
        <time>2020-07-10T10:16:26Z</time>
      </trkpt>
      <trkpt lat="47.77458" lon="-3.47434">
        <ele>21.83</ele>
        <time>2020-07-10T10:16:27Z</time>
      </trkpt>
      <trkpt lat="47.77458" lon="-3.4743">
        <ele>21.7</ele>
        <time>2020-07-10T10:16:28Z</time>
      </trkpt>
      <trkpt lat="47.77458" lon="-3.47426">
        <ele>21.6</ele>
        <time>2020-07-10T10:16:29Z</time>
      </trkpt>
      <trkpt lat="47.77457" lon="-3.47421">
        <ele>21.48</ele>
        <time>2020-07-10T10:16:30Z</time>
      </trkpt>
      <trkpt lat="47.77457" lon="-3.47416">
        <ele>21.31</ele>
        <time>2020-07-10T10:16:31Z</time>
      </trkpt>
      <trkpt lat="47.77456" lon="-3.47411">
        <ele>21.23</ele>
        <time>2020-07-10T10:16:32Z</time>
      </trkpt>
      <trkpt lat="47.77456" lon="-3.47406">
        <ele>21.27</ele>
        <time>2020-07-10T10:16:33Z</time>
      </trkpt>
      <trkpt lat="47.77455" lon="-3.47397">
        <ele>21.32</ele>
        <time>2020-07-10T10:16:34Z</time>
      </trkpt>
      <trkpt lat="47.77454" lon="-3.47391">
        <ele>21.29</ele>
        <time>2020-07-10T10:16:35Z</time>
      </trkpt>
      <trkpt lat="47.77453" lon="-3.47386">
        <ele>21.2</ele>
        <time>2020-07-10T10:16:36Z</time>
      </trkpt>
      <trkpt lat="47.77452" lon="-3.47382">
        <ele>21.09</ele>
        <time>2020-07-10T10:16:37Z</time>
      </trkpt>
      <trkpt lat="47.77451" lon="-3.47378">
        <ele>21.02</ele>
        <time>2020-07-10T10:16:38Z</time>
      </trkpt>
      <trkpt lat="47.77451" lon="-3.47373">
        <ele>21.02</ele>
        <time>2020-07-10T10:16:39Z</time>
      </trkpt>
      <trkpt lat="47.77452" lon="-3.47367">
        <ele>21.07</ele>
        <time>2020-07-10T10:16:40Z</time>
      </trkpt>
      <trkpt lat="47.77452" lon="-3.47362">
        <ele>21.12</ele>
        <time>2020-07-10T10:16:41Z</time>
      </trkpt>
      <trkpt lat="47.77453" lon="-3.47356">
        <ele>21.22</ele>
        <time>2020-07-10T10:16:42Z</time>
      </trkpt>
      <trkpt lat="47.77453" lon="-3.47351">
        <ele>21.31</ele>
        <time>2020-07-10T10:16:43Z</time>
      </trkpt>
      <trkpt lat="47.77453" lon="-3.47346">
        <ele>21.37</ele>
        <time>2020-07-10T10:16:44Z</time>
      </trkpt>
      <trkpt lat="47.77451" lon="-3.47341">
        <ele>21.35</ele>
        <time>2020-07-10T10:16:45Z</time>
      </trkpt>
      <trkpt lat="47.77451" lon="-3.47333">
        <ele>21.43</ele>
        <time>2020-07-10T10:16:46Z</time>
      </trkpt>
      <trkpt lat="47.7745" lon="-3.47328">
        <ele>21.36</ele>
        <time>2020-07-10T10:16:47Z</time>
      </trkpt>
      <trkpt lat="47.7745" lon="-3.47321">
        <ele>21.29</ele>
        <time>2020-07-10T10:16:48Z</time>
      </trkpt>
      <trkpt lat="47.77451" lon="-3.47315">
        <ele>21.25</ele>
        <time>2020-07-10T10:16:49Z</time>
      </trkpt>
      <trkpt lat="47.77451" lon="-3.4731">
        <ele>21.25</ele>
        <time>2020-07-10T10:16:50Z</time>
      </trkpt>
      <trkpt lat="47.77452" lon="-3.47306">
        <ele>21.33</ele>
        <time>2020-07-10T10:16:51Z</time>
      </trkpt>
      <trkpt lat="47.77452" lon="-3.47303">
        <ele>21.52</ele>
        <time>2020-07-10T10:16:52Z</time>
      </trkpt>
      <trkpt lat="47.77452" lon="-3.47298">
        <ele>21.74</ele>
        <time>2020-07-10T10:16:53Z</time>
      </trkpt>
      <trkpt lat="47.77451" lon="-3.47294">
        <ele>21.87</ele>
        <time>2020-07-10T10:16:54Z</time>
      </trkpt>
      <trkpt lat="47.77452" lon="-3.4729">
        <ele>22.15</ele>
        <time>2020-07-10T10:16:55Z</time>
      </trkpt>
      <trkpt lat="47.77454" lon="-3.47283">
        <ele>22.77</ele>
        <time>2020-07-10T10:16:56Z</time>
      </trkpt>
      <trkpt lat="47.77454" lon="-3.47279">
        <ele>23.1</ele>
        <time>2020-07-10T10:16:57Z</time>
      </trkpt>
      <trkpt lat="47.77454" lon="-3.47276">
        <ele>23.23</ele>
        <time>2020-07-10T10:16:58Z</time>
      </trkpt>
      <trkpt lat="47.77454" lon="-3.47275">
        <ele>23.27</ele>
        <time>2020-07-10T10:16:59Z</time>
      </trkpt>
      <trkpt lat="47.77454" lon="-3.47274">
        <ele>23.32</ele>
        <time>2020-07-10T10:17:00Z</time>
      </trkpt>
      <trkpt lat="47.77454" lon="-3.47273">
        <ele>23.34</ele>
        <time>2020-07-10T10:17:01Z</time>
      </trkpt>
      <trkpt lat="47.77454" lon="-3.47273">
        <ele>23.34</ele>
        <time>2020-07-10T10:17:02Z</time>
      </trkpt>
      <trkpt lat="47.77454" lon="-3.47273">
        <ele>23.35</ele>
        <time>2020-07-10T10:17:03Z</time>
      </trkpt>
      <trkpt lat="47.77454" lon="-3.47273">
        <ele>23.35</ele>
        <time>2020-07-10T10:17:04Z</time>
      </trkpt>
      <trkpt lat="47.77454" lon="-3.47273">
        <ele>23.35</ele>
        <time>2020-07-10T10:17:05Z</time>
      </trkpt>
      <trkpt lat="47.77456" lon="-3.47268">
        <ele>23.48</ele>
        <time>2020-07-10T10:17:06Z</time>
      </trkpt>
      <trkpt lat="47.77456" lon="-3.47266">
        <ele>23.47</ele>
        <time>2020-07-10T10:17:07Z</time>
      </trkpt>
      <trkpt lat="47.77456" lon="-3.47265">
        <ele>23.48</ele>
        <time>2020-07-10T10:17:08Z</time>
      </trkpt>
      <trkpt lat="47.77456" lon="-3.47265">
        <ele>23.5</ele>
        <time>2020-07-10T10:17:09Z</time>
      </trkpt>
      <trkpt lat="47.77456" lon="-3.47265">
        <ele>23.51</ele>
        <time>2020-07-10T10:17:10Z</time>
      </trkpt>
      <trkpt lat="47.77456" lon="-3.47265">
        <ele>23.51</ele>
        <time>2020-07-10T10:17:11Z</time>
      </trkpt>
      <trkpt lat="47.77456" lon="-3.47265">
        <ele>23.51</ele>
        <time>2020-07-10T10:17:12Z</time>
      </trkpt>
      <trkpt lat="47.77456" lon="-3.47265">
        <ele>23.51</ele>
        <time>2020-07-10T10:17:13Z</time>
      </trkpt>
      <trkpt lat="47.77456" lon="-3.47265">
        <ele>23.51</ele>
        <time>2020-07-10T10:17:14Z</time>
      </trkpt>
      <trkpt lat="47.77456" lon="-3.47265">
        <ele>23.51</ele>
        <time>2020-07-10T10:17:15Z</time>
      </trkpt>
      <trkpt lat="47.77456" lon="-3.47265">
        <ele>23.51</ele>
        <time>2020-07-10T10:17:16Z</time>
      </trkpt>
      <trkpt lat="47.77456" lon="-3.47265">
        <ele>23.51</ele>
        <time>2020-07-10T10:17:17Z</time>
      </trkpt>
      <trkpt lat="47.77456" lon="-3.47265">
        <ele>23.51</ele>
        <time>2020-07-10T10:17:18Z</time>
      </trkpt>
      <trkpt lat="47.77456" lon="-3.47265">
        <ele>23.51</ele>
        <time>2020-07-10T10:17:19Z</time>
      </trkpt>
      <trkpt lat="47.77456" lon="-3.47265">
        <ele>23.51</ele>
        <time>2020-07-10T10:17:20Z</time>
      </trkpt>
      <trkpt lat="47.77456" lon="-3.47265">
        <ele>23.51</ele>
        <time>2020-07-10T10:17:21Z</time>
      </trkpt>
      <trkpt lat="47.77456" lon="-3.47265">
        <ele>23.51</ele>
        <time>2020-07-10T10:17:22Z</time>
      </trkpt>
      <trkpt lat="47.77456" lon="-3.47265">
        <ele>23.51</ele>
        <time>2020-07-10T10:17:23Z</time>
      </trkpt>
      <trkpt lat="47.77456" lon="-3.47265">
        <ele>23.51</ele>
        <time>2020-07-10T10:17:24Z</time>
      </trkpt>
      <trkpt lat="47.77456" lon="-3.47265">
        <ele>23.51</ele>
        <time>2020-07-10T10:17:25Z</time>
      </trkpt>
      <trkpt lat="47.77456" lon="-3.47265">
        <ele>23.51</ele>
        <time>2020-07-10T10:17:26Z</time>
      </trkpt>
      <trkpt lat="47.77456" lon="-3.47265">
        <ele>23.51</ele>
        <time>2020-07-10T10:17:27Z</time>
      </trkpt>
      <trkpt lat="47.77456" lon="-3.47265">
        <ele>23.51</ele>
        <time>2020-07-10T10:17:28Z</time>
      </trkpt>
      <trkpt lat="47.77456" lon="-3.47265">
        <ele>23.51</ele>
        <time>2020-07-10T10:17:29Z</time>
      </trkpt>
      <trkpt lat="47.77456" lon="-3.47265">
        <ele>23.51</ele>
        <time>2020-07-10T10:17:30Z</time>
      </trkpt>
      <trkpt lat="47.77447" lon="-3.47261">
        <ele>22.71</ele>
        <time>2020-07-10T10:17:31Z</time>
      </trkpt>
      <trkpt lat="47.77447" lon="-3.47261">
        <ele>22.43</ele>
        <time>2020-07-10T10:17:32Z</time>
      </trkpt>
      <trkpt lat="47.77447" lon="-3.47262">
        <ele>22.38</ele>
        <time>2020-07-10T10:17:33Z</time>
      </trkpt>
      <trkpt lat="47.77449" lon="-3.47262">
        <ele>22.48</ele>
        <time>2020-07-10T10:17:34Z</time>
      </trkpt>
      <trkpt lat="47.77448" lon="-3.47264">
        <ele>22.5</ele>
        <time>2020-07-10T10:17:35Z</time>
      </trkpt>
      <trkpt lat="47.7745" lon="-3.47264">
        <ele>22.63</ele>
        <time>2020-07-10T10:17:36Z</time>
      </trkpt>
      <trkpt lat="47.7745" lon="-3.47264">
        <ele>22.69</ele>
        <time>2020-07-10T10:17:37Z</time>
      </trkpt>
      <trkpt lat="47.77451" lon="-3.47264">
        <ele>22.78</ele>
        <time>2020-07-10T10:17:38Z</time>
      </trkpt>
      <trkpt lat="47.77452" lon="-3.47263">
        <ele>22.88</ele>
        <time>2020-07-10T10:17:39Z</time>
      </trkpt>
      <trkpt lat="47.77453" lon="-3.47263">
        <ele>23.01</ele>
        <time>2020-07-10T10:17:40Z</time>
      </trkpt>
      <trkpt lat="47.77455" lon="-3.47262">
        <ele>23.19</ele>
        <time>2020-07-10T10:17:41Z</time>
      </trkpt>
      <trkpt lat="47.77456" lon="-3.47262">
        <ele>23.37</ele>
        <time>2020-07-10T10:17:42Z</time>
      </trkpt>
      <trkpt lat="47.77458" lon="-3.4726">
        <ele>23.53</ele>
        <time>2020-07-10T10:17:43Z</time>
      </trkpt>
      <trkpt lat="47.7746" lon="-3.47259">
        <ele>23.72</ele>
        <time>2020-07-10T10:17:44Z</time>
      </trkpt>
      <trkpt lat="47.77461" lon="-3.47259">
        <ele>23.93</ele>
        <time>2020-07-10T10:17:45Z</time>
      </trkpt>
      <trkpt lat="47.77464" lon="-3.47259">
        <ele>24.19</ele>
        <time>2020-07-10T10:17:46Z</time>
      </trkpt>
      <trkpt lat="47.77465" lon="-3.4726">
        <ele>24.42</ele>
        <time>2020-07-10T10:17:47Z</time>
      </trkpt>
      <trkpt lat="47.77467" lon="-3.4726">
        <ele>24.69</ele>
        <time>2020-07-10T10:17:48Z</time>
      </trkpt>
      <trkpt lat="47.7747" lon="-3.47262">
        <ele>24.99</ele>
        <time>2020-07-10T10:17:49Z</time>
      </trkpt>
      <trkpt lat="47.77473" lon="-3.47263">
        <ele>25.35</ele>
        <time>2020-07-10T10:17:50Z</time>
      </trkpt>
      <trkpt lat="47.77475" lon="-3.47264">
        <ele>25.71</ele>
        <time>2020-07-10T10:17:51Z</time>
      </trkpt>
      <trkpt lat="47.77477" lon="-3.47266">
        <ele>26.03</ele>
        <time>2020-07-10T10:17:52Z</time>
      </trkpt>
      <trkpt lat="47.77479" lon="-3.47267">
        <ele>26.3</ele>
        <time>2020-07-10T10:17:53Z</time>
      </trkpt>
      <trkpt lat="47.7748" lon="-3.47269">
        <ele>26.54</ele>
        <time>2020-07-10T10:17:54Z</time>
      </trkpt>
      <trkpt lat="47.77482" lon="-3.47271">
        <ele>26.8</ele>
        <time>2020-07-10T10:17:55Z</time>
      </trkpt>
      <trkpt lat="47.77484" lon="-3.47273">
        <ele>27.05</ele>
        <time>2020-07-10T10:17:56Z</time>
      </trkpt>
      <trkpt lat="47.77485" lon="-3.47275">
        <ele>27.25</ele>
        <time>2020-07-10T10:17:57Z</time>
      </trkpt>
      <trkpt lat="47.77487" lon="-3.47275">
        <ele>27.44</ele>
        <time>2020-07-10T10:17:58Z</time>
      </trkpt>
      <trkpt lat="47.77488" lon="-3.47277">
        <ele>27.6</ele>
        <time>2020-07-10T10:17:59Z</time>
      </trkpt>
      <trkpt lat="47.77489" lon="-3.47279">
        <ele>27.71</ele>
        <time>2020-07-10T10:18:00Z</time>
      </trkpt>
      <trkpt lat="47.7749" lon="-3.47281">
        <ele>27.82</ele>
        <time>2020-07-10T10:18:01Z</time>
      </trkpt>
      <trkpt lat="47.77491" lon="-3.47282">
        <ele>27.91</ele>
        <time>2020-07-10T10:18:02Z</time>
      </trkpt>
      <trkpt lat="47.77492" lon="-3.47284">
        <ele>28.02</ele>
        <time>2020-07-10T10:18:03Z</time>
      </trkpt>
      <trkpt lat="47.77493" lon="-3.47286">
        <ele>28.08</ele>
        <time>2020-07-10T10:18:04Z</time>
      </trkpt>
      <trkpt lat="47.77494" lon="-3.47288">
        <ele>28.19</ele>
        <time>2020-07-10T10:18:05Z</time>
      </trkpt>
      <trkpt lat="47.77495" lon="-3.47291">
        <ele>28.35</ele>
        <time>2020-07-10T10:18:06Z</time>
      </trkpt>
      <trkpt lat="47.77497" lon="-3.47292">
        <ele>28.52</ele>
        <time>2020-07-10T10:18:07Z</time>
      </trkpt>
      <trkpt lat="47.77498" lon="-3.47294">
        <ele>28.68</ele>
        <time>2020-07-10T10:18:08Z</time>
      </trkpt>
      <trkpt lat="47.77499" lon="-3.47295">
        <ele>28.84</ele>
        <time>2020-07-10T10:18:09Z</time>
      </trkpt>
      <trkpt lat="47.775" lon="-3.47296">
        <ele>28.94</ele>
        <time>2020-07-10T10:18:10Z</time>
      </trkpt>
      <trkpt lat="47.775" lon="-3.47297">
        <ele>28.95</ele>
        <time>2020-07-10T10:18:11Z</time>
      </trkpt>
      <trkpt lat="47.775" lon="-3.47297">
        <ele>28.95</ele>
        <time>2020-07-10T10:18:12Z</time>
      </trkpt>
      <trkpt lat="47.775" lon="-3.47297">
        <ele>28.96</ele>
        <time>2020-07-10T10:18:13Z</time>
      </trkpt>
      <trkpt lat="47.775" lon="-3.47297">
        <ele>28.96</ele>
        <time>2020-07-10T10:18:14Z</time>
      </trkpt>
      <trkpt lat="47.775" lon="-3.47297">
        <ele>28.96</ele>
        <time>2020-07-10T10:18:15Z</time>
      </trkpt>
      <trkpt lat="47.775" lon="-3.47297">
        <ele>28.96</ele>
        <time>2020-07-10T10:18:16Z</time>
      </trkpt>
      <trkpt lat="47.775" lon="-3.47297">
        <ele>28.96</ele>
        <time>2020-07-10T10:18:17Z</time>
      </trkpt>
      <trkpt lat="47.775" lon="-3.47297">
        <ele>28.96</ele>
        <time>2020-07-10T10:18:18Z</time>
      </trkpt>
      <trkpt lat="47.775" lon="-3.47297">
        <ele>28.96</ele>
        <time>2020-07-10T10:18:19Z</time>
      </trkpt>
      <trkpt lat="47.775" lon="-3.47297">
        <ele>28.96</ele>
        <time>2020-07-10T10:18:20Z</time>
      </trkpt>
      <trkpt lat="47.775" lon="-3.47297">
        <ele>28.96</ele>
        <time>2020-07-10T10:18:21Z</time>
      </trkpt>
      <trkpt lat="47.775" lon="-3.47297">
        <ele>28.96</ele>
        <time>2020-07-10T10:18:22Z</time>
      </trkpt>
      <trkpt lat="47.775" lon="-3.47297">
        <ele>28.96</ele>
        <time>2020-07-10T10:18:23Z</time>
      </trkpt>
      <trkpt lat="47.775" lon="-3.47297">
        <ele>28.96</ele>
        <time>2020-07-10T10:18:24Z</time>
      </trkpt>
      <trkpt lat="47.775" lon="-3.47297">
        <ele>28.96</ele>
        <time>2020-07-10T10:18:25Z</time>
      </trkpt>
      <trkpt lat="47.775" lon="-3.47297">
        <ele>28.96</ele>
        <time>2020-07-10T10:18:26Z</time>
      </trkpt>
      <trkpt lat="47.775" lon="-3.47297">
        <ele>28.96</ele>
        <time>2020-07-10T10:18:27Z</time>
      </trkpt>
      <trkpt lat="47.775" lon="-3.47297">
        <ele>28.96</ele>
        <time>2020-07-10T10:18:28Z</time>
      </trkpt>
      <trkpt lat="47.77502" lon="-3.47302">
        <ele>29.11</ele>
        <time>2020-07-10T10:18:29Z</time>
      </trkpt>
      <trkpt lat="47.77503" lon="-3.47305">
        <ele>29.22</ele>
        <time>2020-07-10T10:18:30Z</time>
      </trkpt>
      <trkpt lat="47.77503" lon="-3.47308">
        <ele>29.38</ele>
        <time>2020-07-10T10:18:31Z</time>
      </trkpt>
      <trkpt lat="47.77505" lon="-3.47311">
        <ele>29.61</ele>
        <time>2020-07-10T10:18:32Z</time>
      </trkpt>
      <trkpt lat="47.77506" lon="-3.47315">
        <ele>29.83</ele>
        <time>2020-07-10T10:18:33Z</time>
      </trkpt>
      <trkpt lat="47.77506" lon="-3.47318">
        <ele>30</ele>
        <time>2020-07-10T10:18:34Z</time>
      </trkpt>
      <trkpt lat="47.77507" lon="-3.4732">
        <ele>30.19</ele>
        <time>2020-07-10T10:18:35Z</time>
      </trkpt>
      <trkpt lat="47.77509" lon="-3.47325">
        <ele>30.53</ele>
        <time>2020-07-10T10:18:36Z</time>
      </trkpt>
      <trkpt lat="47.7751" lon="-3.47328">
        <ele>30.79</ele>
        <time>2020-07-10T10:18:37Z</time>
      </trkpt>
      <trkpt lat="47.7751" lon="-3.47331">
        <ele>30.98</ele>
        <time>2020-07-10T10:18:38Z</time>
      </trkpt>
      <trkpt lat="47.77511" lon="-3.47334">
        <ele>31.16</ele>
        <time>2020-07-10T10:18:39Z</time>
      </trkpt>
      <trkpt lat="47.77512" lon="-3.47337">
        <ele>31.37</ele>
        <time>2020-07-10T10:18:40Z</time>
      </trkpt>
      <trkpt lat="47.77514" lon="-3.4734">
        <ele>31.63</ele>
        <time>2020-07-10T10:18:41Z</time>
      </trkpt>
      <trkpt lat="47.77515" lon="-3.47342">
        <ele>31.88</ele>
        <time>2020-07-10T10:18:42Z</time>
      </trkpt>
      <trkpt lat="47.77518" lon="-3.47345">
        <ele>32.21</ele>
        <time>2020-07-10T10:18:43Z</time>
      </trkpt>
      <trkpt lat="47.77519" lon="-3.47348">
        <ele>32.46</ele>
        <time>2020-07-10T10:18:44Z</time>
      </trkpt>
      <trkpt lat="47.7752" lon="-3.47351">
        <ele>32.68</ele>
        <time>2020-07-10T10:18:45Z</time>
      </trkpt>
      <trkpt lat="47.77521" lon="-3.47353">
        <ele>32.9</ele>
        <time>2020-07-10T10:18:46Z</time>
      </trkpt>
      <trkpt lat="47.77523" lon="-3.47356">
        <ele>33.15</ele>
        <time>2020-07-10T10:18:47Z</time>
      </trkpt>
      <trkpt lat="47.77524" lon="-3.47358">
        <ele>33.4</ele>
        <time>2020-07-10T10:18:48Z</time>
      </trkpt>
      <trkpt lat="47.77527" lon="-3.47362">
        <ele>33.81</ele>
        <time>2020-07-10T10:18:49Z</time>
      </trkpt>
      <trkpt lat="47.77529" lon="-3.47365">
        <ele>34.12</ele>
        <time>2020-07-10T10:18:50Z</time>
      </trkpt>
      <trkpt lat="47.7753" lon="-3.47368">
        <ele>34.4</ele>
        <time>2020-07-10T10:18:51Z</time>
      </trkpt>
      <trkpt lat="47.77532" lon="-3.47371">
        <ele>34.67</ele>
        <time>2020-07-10T10:18:52Z</time>
      </trkpt>
      <trkpt lat="47.77534" lon="-3.47374">
        <ele>34.91</ele>
        <time>2020-07-10T10:18:53Z</time>
      </trkpt>
      <trkpt lat="47.77537" lon="-3.47378">
        <ele>35.25</ele>
        <time>2020-07-10T10:18:54Z</time>
      </trkpt>
      <trkpt lat="47.77539" lon="-3.4738">
        <ele>35.5</ele>
        <time>2020-07-10T10:18:55Z</time>
      </trkpt>
      <trkpt lat="47.7754" lon="-3.47382">
        <ele>35.7</ele>
        <time>2020-07-10T10:18:56Z</time>
      </trkpt>
      <trkpt lat="47.77542" lon="-3.47384">
        <ele>35.86</ele>
        <time>2020-07-10T10:18:57Z</time>
      </trkpt>
      <trkpt lat="47.77544" lon="-3.47387">
        <ele>36.04</ele>
        <time>2020-07-10T10:18:58Z</time>
      </trkpt>
      <trkpt lat="47.77546" lon="-3.47393">
        <ele>36.32</ele>
        <time>2020-07-10T10:18:59Z</time>
      </trkpt>
      <trkpt lat="47.77548" lon="-3.47395">
        <ele>36.58</ele>
        <time>2020-07-10T10:19:00Z</time>
      </trkpt>
      <trkpt lat="47.7755" lon="-3.47397">
        <ele>36.81</ele>
        <time>2020-07-10T10:19:01Z</time>
      </trkpt>
      <trkpt lat="47.77552" lon="-3.47397">
        <ele>37</ele>
        <time>2020-07-10T10:19:02Z</time>
      </trkpt>
      <trkpt lat="47.77554" lon="-3.47397">
        <ele>37.14</ele>
        <time>2020-07-10T10:19:03Z</time>
      </trkpt>
      <trkpt lat="47.77556" lon="-3.47396">
        <ele>37.22</ele>
        <time>2020-07-10T10:19:04Z</time>
      </trkpt>
      <trkpt lat="47.77557" lon="-3.47394">
        <ele>37.24</ele>
        <time>2020-07-10T10:19:05Z</time>
      </trkpt>
      <trkpt lat="47.77558" lon="-3.47391">
        <ele>37.22</ele>
        <time>2020-07-10T10:19:06Z</time>
      </trkpt>
      <trkpt lat="47.77559" lon="-3.47388">
        <ele>37.21</ele>
        <time>2020-07-10T10:19:07Z</time>
      </trkpt>
      <trkpt lat="47.7756" lon="-3.47385">
        <ele>37.29</ele>
        <time>2020-07-10T10:19:08Z</time>
      </trkpt>
      <trkpt lat="47.77562" lon="-3.47383">
        <ele>37.42</ele>
        <time>2020-07-10T10:19:09Z</time>
      </trkpt>
      <trkpt lat="47.77565" lon="-3.47381">
        <ele>37.6</ele>
        <time>2020-07-10T10:19:10Z</time>
      </trkpt>
      <trkpt lat="47.77567" lon="-3.47379">
        <ele>37.74</ele>
        <time>2020-07-10T10:19:11Z</time>
      </trkpt>
      <trkpt lat="47.77569" lon="-3.47377">
        <ele>37.89</ele>
        <time>2020-07-10T10:19:12Z</time>
      </trkpt>
      <trkpt lat="47.77571" lon="-3.47375">
        <ele>38.05</ele>
        <time>2020-07-10T10:19:13Z</time>
      </trkpt>
      <trkpt lat="47.77575" lon="-3.47373">
        <ele>38.27</ele>
        <time>2020-07-10T10:19:14Z</time>
      </trkpt>
      <trkpt lat="47.77578" lon="-3.4737">
        <ele>38.49</ele>
        <time>2020-07-10T10:19:15Z</time>
      </trkpt>
      <trkpt lat="47.77579" lon="-3.47368">
        <ele>38.65</ele>
        <time>2020-07-10T10:19:16Z</time>
      </trkpt>
      <trkpt lat="47.77582" lon="-3.47366">
        <ele>38.82</ele>
        <time>2020-07-10T10:19:17Z</time>
      </trkpt>
      <trkpt lat="47.77585" lon="-3.47364">
        <ele>38.98</ele>
        <time>2020-07-10T10:19:18Z</time>
      </trkpt>
      <trkpt lat="47.77587" lon="-3.47363">
        <ele>39.1</ele>
        <time>2020-07-10T10:19:19Z</time>
      </trkpt>
      <trkpt lat="47.7759" lon="-3.47361">
        <ele>39.2</ele>
        <time>2020-07-10T10:19:20Z</time>
      </trkpt>
      <trkpt lat="47.77593" lon="-3.47359">
        <ele>39.3</ele>
        <time>2020-07-10T10:19:21Z</time>
      </trkpt>
      <trkpt lat="47.77596" lon="-3.47357">
        <ele>39.4</ele>
        <time>2020-07-10T10:19:22Z</time>
      </trkpt>
      <trkpt lat="47.776" lon="-3.47352">
        <ele>39.54</ele>
        <time>2020-07-10T10:19:23Z</time>
      </trkpt>
      <trkpt lat="47.77602" lon="-3.47348">
        <ele>39.64</ele>
        <time>2020-07-10T10:19:24Z</time>
      </trkpt>
      <trkpt lat="47.77605" lon="-3.47344">
        <ele>39.73</ele>
        <time>2020-07-10T10:19:25Z</time>
      </trkpt>
      <trkpt lat="47.77607" lon="-3.47341">
        <ele>39.82</ele>
        <time>2020-07-10T10:19:26Z</time>
      </trkpt>
      <trkpt lat="47.77609" lon="-3.47339">
        <ele>39.88</ele>
        <time>2020-07-10T10:19:27Z</time>
      </trkpt>
      <trkpt lat="47.7761" lon="-3.47336">
        <ele>39.93</ele>
        <time>2020-07-10T10:19:28Z</time>
      </trkpt>
      <trkpt lat="47.77611" lon="-3.47333">
        <ele>39.98</ele>
        <time>2020-07-10T10:19:29Z</time>
      </trkpt>
      <trkpt lat="47.77613" lon="-3.4733">
        <ele>40.03</ele>
        <time>2020-07-10T10:19:30Z</time>
      </trkpt>
      <trkpt lat="47.77615" lon="-3.47327">
        <ele>40.08</ele>
        <time>2020-07-10T10:19:31Z</time>
      </trkpt>
      <trkpt lat="47.77618" lon="-3.47324">
        <ele>40.13</ele>
        <time>2020-07-10T10:19:32Z</time>
      </trkpt>
      <trkpt lat="47.7762" lon="-3.47321">
        <ele>40.16</ele>
        <time>2020-07-10T10:19:33Z</time>
      </trkpt>
      <trkpt lat="47.77621" lon="-3.47318">
        <ele>40.16</ele>
        <time>2020-07-10T10:19:34Z</time>
      </trkpt>
      <trkpt lat="47.77622" lon="-3.47314">
        <ele>40.13</ele>
        <time>2020-07-10T10:19:35Z</time>
      </trkpt>
      <trkpt lat="47.77624" lon="-3.4731">
        <ele>40.09</ele>
        <time>2020-07-10T10:19:36Z</time>
      </trkpt>
      <trkpt lat="47.77625" lon="-3.47304">
        <ele>39.99</ele>
        <time>2020-07-10T10:19:37Z</time>
      </trkpt>
      <trkpt lat="47.77627" lon="-3.473">
        <ele>39.85</ele>
        <time>2020-07-10T10:19:38Z</time>
      </trkpt>
      <trkpt lat="47.77628" lon="-3.47295">
        <ele>39.68</ele>
        <time>2020-07-10T10:19:39Z</time>
      </trkpt>
      <trkpt lat="47.77629" lon="-3.47289">
        <ele>39.5</ele>
        <time>2020-07-10T10:19:40Z</time>
      </trkpt>
      <trkpt lat="47.7763" lon="-3.47284">
        <ele>39.31</ele>
        <time>2020-07-10T10:19:41Z</time>
      </trkpt>
      <trkpt lat="47.77632" lon="-3.47279">
        <ele>39.13</ele>
        <time>2020-07-10T10:19:42Z</time>
      </trkpt>
      <trkpt lat="47.77635" lon="-3.47276">
        <ele>38.99</ele>
        <time>2020-07-10T10:19:43Z</time>
      </trkpt>
      <trkpt lat="47.77638" lon="-3.47273">
        <ele>38.87</ele>
        <time>2020-07-10T10:19:44Z</time>
      </trkpt>
      <trkpt lat="47.7764" lon="-3.47271">
        <ele>38.73</ele>
        <time>2020-07-10T10:19:45Z</time>
      </trkpt>
      <trkpt lat="47.77642" lon="-3.4727">
        <ele>38.57</ele>
        <time>2020-07-10T10:19:46Z</time>
      </trkpt>
      <trkpt lat="47.77645" lon="-3.47268">
        <ele>38.32</ele>
        <time>2020-07-10T10:19:47Z</time>
      </trkpt>
      <trkpt lat="47.77647" lon="-3.47265">
        <ele>38.05</ele>
        <time>2020-07-10T10:19:48Z</time>
      </trkpt>
      <trkpt lat="47.7765" lon="-3.47259">
        <ele>37.71</ele>
        <time>2020-07-10T10:19:49Z</time>
      </trkpt>
      <trkpt lat="47.77651" lon="-3.47254">
        <ele>37.4</ele>
        <time>2020-07-10T10:19:50Z</time>
      </trkpt>
      <trkpt lat="47.77652" lon="-3.47248">
        <ele>37.06</ele>
        <time>2020-07-10T10:19:51Z</time>
      </trkpt>
      <trkpt lat="47.77652" lon="-3.47242">
        <ele>36.73</ele>
        <time>2020-07-10T10:19:52Z</time>
      </trkpt>
      <trkpt lat="47.77651" lon="-3.47236">
        <ele>36.47</ele>
        <time>2020-07-10T10:19:53Z</time>
      </trkpt>
      <trkpt lat="47.77648" lon="-3.47231">
        <ele>36.27</ele>
        <time>2020-07-10T10:19:54Z</time>
      </trkpt>
      <trkpt lat="47.77646" lon="-3.47226">
        <ele>36.07</ele>
        <time>2020-07-10T10:19:55Z</time>
      </trkpt>
      <trkpt lat="47.77643" lon="-3.4722">
        <ele>35.86</ele>
        <time>2020-07-10T10:19:56Z</time>
      </trkpt>
      <trkpt lat="47.77641" lon="-3.47215">
        <ele>35.72</ele>
        <time>2020-07-10T10:19:57Z</time>
      </trkpt>
      <trkpt lat="47.77639" lon="-3.4721">
        <ele>35.61</ele>
        <time>2020-07-10T10:19:58Z</time>
      </trkpt>
      <trkpt lat="47.77638" lon="-3.47204">
        <ele>35.46</ele>
        <time>2020-07-10T10:19:59Z</time>
      </trkpt>
      <trkpt lat="47.77637" lon="-3.47198">
        <ele>35.29</ele>
        <time>2020-07-10T10:20:00Z</time>
      </trkpt>
      <trkpt lat="47.77636" lon="-3.47192">
        <ele>35.02</ele>
        <time>2020-07-10T10:20:01Z</time>
      </trkpt>
      <trkpt lat="47.77634" lon="-3.47186">
        <ele>34.53</ele>
        <time>2020-07-10T10:20:02Z</time>
      </trkpt>
      <trkpt lat="47.77634" lon="-3.4718">
        <ele>33.95</ele>
        <time>2020-07-10T10:20:03Z</time>
      </trkpt>
      <trkpt lat="47.77634" lon="-3.47174">
        <ele>33.37</ele>
        <time>2020-07-10T10:20:04Z</time>
      </trkpt>
      <trkpt lat="47.77636" lon="-3.4717">
        <ele>32.8</ele>
        <time>2020-07-10T10:20:05Z</time>
      </trkpt>
      <trkpt lat="47.77638" lon="-3.47167">
        <ele>32.31</ele>
        <time>2020-07-10T10:20:06Z</time>
      </trkpt>
      <trkpt lat="47.77641" lon="-3.47166">
        <ele>31.76</ele>
        <time>2020-07-10T10:20:07Z</time>
      </trkpt>
      <trkpt lat="47.77645" lon="-3.47167">
        <ele>31.32</ele>
        <time>2020-07-10T10:20:08Z</time>
      </trkpt>
      <trkpt lat="47.7765" lon="-3.47169">
        <ele>30.88</ele>
        <time>2020-07-10T10:20:09Z</time>
      </trkpt>
      <trkpt lat="47.77654" lon="-3.47171">
        <ele>30.51</ele>
        <time>2020-07-10T10:20:10Z</time>
      </trkpt>
      <trkpt lat="47.77659" lon="-3.47173">
        <ele>30.16</ele>
        <time>2020-07-10T10:20:11Z</time>
      </trkpt>
      <trkpt lat="47.77664" lon="-3.47175">
        <ele>29.88</ele>
        <time>2020-07-10T10:20:12Z</time>
      </trkpt>
      <trkpt lat="47.77669" lon="-3.47176">
        <ele>29.68</ele>
        <time>2020-07-10T10:20:13Z</time>
      </trkpt>
      <trkpt lat="47.77675" lon="-3.47178">
        <ele>29.6</ele>
        <time>2020-07-10T10:20:14Z</time>
      </trkpt>
      <trkpt lat="47.77681" lon="-3.47177">
        <ele>29.3</ele>
        <time>2020-07-10T10:20:15Z</time>
      </trkpt>
      <trkpt lat="47.77687" lon="-3.47176">
        <ele>28.91</ele>
        <time>2020-07-10T10:20:16Z</time>
      </trkpt>
      <trkpt lat="47.77692" lon="-3.47176">
        <ele>28.6</ele>
        <time>2020-07-10T10:20:17Z</time>
      </trkpt>
      <trkpt lat="47.77696" lon="-3.47175">
        <ele>28.27</ele>
        <time>2020-07-10T10:20:18Z</time>
      </trkpt>
      <trkpt lat="47.777" lon="-3.47174">
        <ele>27.87</ele>
        <time>2020-07-10T10:20:19Z</time>
      </trkpt>
      <trkpt lat="47.77704" lon="-3.47171">
        <ele>27.38</ele>
        <time>2020-07-10T10:20:20Z</time>
      </trkpt>
      <trkpt lat="47.77707" lon="-3.4717">
        <ele>27</ele>
        <time>2020-07-10T10:20:21Z</time>
      </trkpt>
      <trkpt lat="47.77711" lon="-3.47169">
        <ele>26.72</ele>
        <time>2020-07-10T10:20:22Z</time>
      </trkpt>
      <trkpt lat="47.77714" lon="-3.47169">
        <ele>26.52</ele>
        <time>2020-07-10T10:20:23Z</time>
      </trkpt>
      <trkpt lat="47.77718" lon="-3.47169">
        <ele>26.35</ele>
        <time>2020-07-10T10:20:24Z</time>
      </trkpt>
      <trkpt lat="47.77722" lon="-3.4717">
        <ele>26.18</ele>
        <time>2020-07-10T10:20:25Z</time>
      </trkpt>
      <trkpt lat="47.77726" lon="-3.4717">
        <ele>26.22</ele>
        <time>2020-07-10T10:20:26Z</time>
      </trkpt>
      <trkpt lat="47.7773" lon="-3.4717">
        <ele>26.32</ele>
        <time>2020-07-10T10:20:27Z</time>
      </trkpt>
      <trkpt lat="47.77735" lon="-3.47168">
        <ele>26.44</ele>
        <time>2020-07-10T10:20:28Z</time>
      </trkpt>
      <trkpt lat="47.77739" lon="-3.47168">
        <ele>26.56</ele>
        <time>2020-07-10T10:20:29Z</time>
      </trkpt>
      <trkpt lat="47.77743" lon="-3.47167">
        <ele>26.7</ele>
        <time>2020-07-10T10:20:30Z</time>
      </trkpt>
      <trkpt lat="47.77747" lon="-3.47168">
        <ele>26.84</ele>
        <time>2020-07-10T10:20:31Z</time>
      </trkpt>
      <trkpt lat="47.77751" lon="-3.47169">
        <ele>27</ele>
        <time>2020-07-10T10:20:32Z</time>
      </trkpt>
      <trkpt lat="47.77755" lon="-3.47169">
        <ele>27.24</ele>
        <time>2020-07-10T10:20:33Z</time>
      </trkpt>
      <trkpt lat="47.77759" lon="-3.47169">
        <ele>27.5</ele>
        <time>2020-07-10T10:20:34Z</time>
      </trkpt>
      <trkpt lat="47.77762" lon="-3.47169">
        <ele>27.75</ele>
        <time>2020-07-10T10:20:35Z</time>
      </trkpt>
      <trkpt lat="47.77766" lon="-3.47169">
        <ele>28.02</ele>
        <time>2020-07-10T10:20:36Z</time>
      </trkpt>
      <trkpt lat="47.7777" lon="-3.47169">
        <ele>28.31</ele>
        <time>2020-07-10T10:20:37Z</time>
      </trkpt>
      <trkpt lat="47.77773" lon="-3.47169">
        <ele>28.57</ele>
        <time>2020-07-10T10:20:38Z</time>
      </trkpt>
      <trkpt lat="47.77778" lon="-3.47171">
        <ele>28.89</ele>
        <time>2020-07-10T10:20:39Z</time>
      </trkpt>
      <trkpt lat="47.77782" lon="-3.47171">
        <ele>29.16</ele>
        <time>2020-07-10T10:20:40Z</time>
      </trkpt>
      <trkpt lat="47.77787" lon="-3.47172">
        <ele>29.5</ele>
        <time>2020-07-10T10:20:41Z</time>
      </trkpt>
      <trkpt lat="47.77791" lon="-3.47171">
        <ele>29.82</ele>
        <time>2020-07-10T10:20:42Z</time>
      </trkpt>
      <trkpt lat="47.77795" lon="-3.4717">
        <ele>30.1</ele>
        <time>2020-07-10T10:20:43Z</time>
      </trkpt>
      <trkpt lat="47.77798" lon="-3.47169">
        <ele>30.37</ele>
        <time>2020-07-10T10:20:44Z</time>
      </trkpt>
      <trkpt lat="47.77802" lon="-3.4717">
        <ele>30.66</ele>
        <time>2020-07-10T10:20:45Z</time>
      </trkpt>
      <trkpt lat="47.77808" lon="-3.4717">
        <ele>30.95</ele>
        <time>2020-07-10T10:20:46Z</time>
      </trkpt>
      <trkpt lat="47.77812" lon="-3.47169">
        <ele>31.13</ele>
        <time>2020-07-10T10:20:47Z</time>
      </trkpt>
      <trkpt lat="47.77816" lon="-3.4717">
        <ele>31.27</ele>
        <time>2020-07-10T10:20:48Z</time>
      </trkpt>
      <trkpt lat="47.77821" lon="-3.4717">
        <ele>31.41</ele>
        <time>2020-07-10T10:20:49Z</time>
      </trkpt>
      <trkpt lat="47.77824" lon="-3.4717">
        <ele>31.53</ele>
        <time>2020-07-10T10:20:50Z</time>
      </trkpt>
      <trkpt lat="47.77828" lon="-3.47169">
        <ele>31.67</ele>
        <time>2020-07-10T10:20:51Z</time>
      </trkpt>
      <trkpt lat="47.77832" lon="-3.47169">
        <ele>31.82</ele>
        <time>2020-07-10T10:20:52Z</time>
      </trkpt>
      <trkpt lat="47.77835" lon="-3.47169">
        <ele>31.89</ele>
        <time>2020-07-10T10:20:53Z</time>
      </trkpt>
      <trkpt lat="47.7784" lon="-3.47169">
        <ele>31.9</ele>
        <time>2020-07-10T10:20:54Z</time>
      </trkpt>
      <trkpt lat="47.77844" lon="-3.4717">
        <ele>31.89</ele>
        <time>2020-07-10T10:20:55Z</time>
      </trkpt>
      <trkpt lat="47.77848" lon="-3.4717">
        <ele>31.89</ele>
        <time>2020-07-10T10:20:56Z</time>
      </trkpt>
      <trkpt lat="47.77852" lon="-3.47169">
        <ele>31.92</ele>
        <time>2020-07-10T10:20:57Z</time>
      </trkpt>
      <trkpt lat="47.77857" lon="-3.4717">
        <ele>31.9</ele>
        <time>2020-07-10T10:20:58Z</time>
      </trkpt>
      <trkpt lat="47.77861" lon="-3.4717">
        <ele>31.89</ele>
        <time>2020-07-10T10:20:59Z</time>
      </trkpt>
      <trkpt lat="47.77865" lon="-3.47169">
        <ele>31.81</ele>
        <time>2020-07-10T10:21:00Z</time>
      </trkpt>
      <trkpt lat="47.77869" lon="-3.47169">
        <ele>31.69</ele>
        <time>2020-07-10T10:21:01Z</time>
      </trkpt>
      <trkpt lat="47.77874" lon="-3.47167">
        <ele>31.59</ele>
        <time>2020-07-10T10:21:02Z</time>
      </trkpt>
      <trkpt lat="47.77878" lon="-3.47167">
        <ele>31.45</ele>
        <time>2020-07-10T10:21:03Z</time>
      </trkpt>
      <trkpt lat="47.77882" lon="-3.47168">
        <ele>31.3</ele>
        <time>2020-07-10T10:21:04Z</time>
      </trkpt>
      <trkpt lat="47.77886" lon="-3.47167">
        <ele>31.16</ele>
        <time>2020-07-10T10:21:05Z</time>
      </trkpt>
      <trkpt lat="47.7789" lon="-3.47167">
        <ele>31.05</ele>
        <time>2020-07-10T10:21:06Z</time>
      </trkpt>
      <trkpt lat="47.77894" lon="-3.47168">
        <ele>31.01</ele>
        <time>2020-07-10T10:21:07Z</time>
      </trkpt>
      <trkpt lat="47.77898" lon="-3.47169">
        <ele>31</ele>
        <time>2020-07-10T10:21:08Z</time>
      </trkpt>
      <trkpt lat="47.77902" lon="-3.47168">
        <ele>31</ele>
        <time>2020-07-10T10:21:09Z</time>
      </trkpt>
      <trkpt lat="47.77907" lon="-3.47167">
        <ele>31</ele>
        <time>2020-07-10T10:21:10Z</time>
      </trkpt>
      <trkpt lat="47.7791" lon="-3.47166">
        <ele>31.02</ele>
        <time>2020-07-10T10:21:11Z</time>
      </trkpt>
      <trkpt lat="47.77914" lon="-3.47165">
        <ele>31.08</ele>
        <time>2020-07-10T10:21:12Z</time>
      </trkpt>
      <trkpt lat="47.77918" lon="-3.47164">
        <ele>31.2</ele>
        <time>2020-07-10T10:21:13Z</time>
      </trkpt>
      <trkpt lat="47.77921" lon="-3.47163">
        <ele>31.36</ele>
        <time>2020-07-10T10:21:14Z</time>
      </trkpt>
      <trkpt lat="47.77924" lon="-3.47162">
        <ele>31.5</ele>
        <time>2020-07-10T10:21:15Z</time>
      </trkpt>
      <trkpt lat="47.77926" lon="-3.47161">
        <ele>31.63</ele>
        <time>2020-07-10T10:21:16Z</time>
      </trkpt>
      <trkpt lat="47.77929" lon="-3.47159">
        <ele>31.79</ele>
        <time>2020-07-10T10:21:17Z</time>
      </trkpt>
      <trkpt lat="47.77932" lon="-3.47157">
        <ele>31.96</ele>
        <time>2020-07-10T10:21:18Z</time>
      </trkpt>
      <trkpt lat="47.77937" lon="-3.47156">
        <ele>32.14</ele>
        <time>2020-07-10T10:21:19Z</time>
      </trkpt>
      <trkpt lat="47.77942" lon="-3.47155">
        <ele>32.29</ele>
        <time>2020-07-10T10:21:20Z</time>
      </trkpt>
      <trkpt lat="47.77948" lon="-3.47155">
        <ele>32.56</ele>
        <time>2020-07-10T10:21:21Z</time>
      </trkpt>
      <trkpt lat="47.77953" lon="-3.47153">
        <ele>32.92</ele>
        <time>2020-07-10T10:21:22Z</time>
      </trkpt>
      <trkpt lat="47.77957" lon="-3.47153">
        <ele>33.27</ele>
        <time>2020-07-10T10:21:23Z</time>
      </trkpt>
      <trkpt lat="47.77962" lon="-3.47151">
        <ele>33.64</ele>
        <time>2020-07-10T10:21:24Z</time>
      </trkpt>
      <trkpt lat="47.77965" lon="-3.47149">
        <ele>33.94</ele>
        <time>2020-07-10T10:21:25Z</time>
      </trkpt>
      <trkpt lat="47.77968" lon="-3.47148">
        <ele>34.22</ele>
        <time>2020-07-10T10:21:26Z</time>
      </trkpt>
      <trkpt lat="47.77973" lon="-3.47148">
        <ele>34.55</ele>
        <time>2020-07-10T10:21:27Z</time>
      </trkpt>
      <trkpt lat="47.77978" lon="-3.47148">
        <ele>34.8</ele>
        <time>2020-07-10T10:21:28Z</time>
      </trkpt>
      <trkpt lat="47.77982" lon="-3.47147">
        <ele>34.98</ele>
        <time>2020-07-10T10:21:29Z</time>
      </trkpt>
      <trkpt lat="47.77986" lon="-3.47147">
        <ele>35.15</ele>
        <time>2020-07-10T10:21:30Z</time>
      </trkpt>
      <trkpt lat="47.7799" lon="-3.47146">
        <ele>35.32</ele>
        <time>2020-07-10T10:21:31Z</time>
      </trkpt>
      <trkpt lat="47.77995" lon="-3.47144">
        <ele>35.54</ele>
        <time>2020-07-10T10:21:32Z</time>
      </trkpt>
      <trkpt lat="47.77999" lon="-3.47142">
        <ele>35.76</ele>
        <time>2020-07-10T10:21:33Z</time>
      </trkpt>
      <trkpt lat="47.78003" lon="-3.4714">
        <ele>35.98</ele>
        <time>2020-07-10T10:21:34Z</time>
      </trkpt>
      <trkpt lat="47.78007" lon="-3.47138">
        <ele>36.17</ele>
        <time>2020-07-10T10:21:35Z</time>
      </trkpt>
      <trkpt lat="47.78011" lon="-3.47137">
        <ele>36.35</ele>
        <time>2020-07-10T10:21:36Z</time>
      </trkpt>
      <trkpt lat="47.78015" lon="-3.47136">
        <ele>36.54</ele>
        <time>2020-07-10T10:21:37Z</time>
      </trkpt>
      <trkpt lat="47.78019" lon="-3.47135">
        <ele>36.71</ele>
        <time>2020-07-10T10:21:38Z</time>
      </trkpt>
      <trkpt lat="47.78022" lon="-3.47134">
        <ele>36.86</ele>
        <time>2020-07-10T10:21:39Z</time>
      </trkpt>
      <trkpt lat="47.78025" lon="-3.47134">
        <ele>37.02</ele>
        <time>2020-07-10T10:21:40Z</time>
      </trkpt>
      <trkpt lat="47.78029" lon="-3.47133">
        <ele>37.18</ele>
        <time>2020-07-10T10:21:41Z</time>
      </trkpt>
      <trkpt lat="47.78031" lon="-3.47133">
        <ele>37.31</ele>
        <time>2020-07-10T10:21:42Z</time>
      </trkpt>
      <trkpt lat="47.78033" lon="-3.47132">
        <ele>37.41</ele>
        <time>2020-07-10T10:21:43Z</time>
      </trkpt>
      <trkpt lat="47.78034" lon="-3.47131">
        <ele>37.53</ele>
        <time>2020-07-10T10:21:44Z</time>
      </trkpt>
      <trkpt lat="47.78035" lon="-3.47129">
        <ele>37.67</ele>
        <time>2020-07-10T10:21:45Z</time>
      </trkpt>
      <trkpt lat="47.78036" lon="-3.47127">
        <ele>37.81</ele>
        <time>2020-07-10T10:21:46Z</time>
      </trkpt>
      <trkpt lat="47.78037" lon="-3.47125">
        <ele>37.94</ele>
        <time>2020-07-10T10:21:47Z</time>
      </trkpt>
      <trkpt lat="47.78037" lon="-3.47123">
        <ele>38.05</ele>
        <time>2020-07-10T10:21:48Z</time>
      </trkpt>
      <trkpt lat="47.78039" lon="-3.4712">
        <ele>38.25</ele>
        <time>2020-07-10T10:21:49Z</time>
      </trkpt>
      <trkpt lat="47.7804" lon="-3.47116">
        <ele>38.52</ele>
        <time>2020-07-10T10:21:50Z</time>
      </trkpt>
      <trkpt lat="47.78041" lon="-3.47112">
        <ele>38.78</ele>
        <time>2020-07-10T10:21:51Z</time>
      </trkpt>
      <trkpt lat="47.78041" lon="-3.47108">
        <ele>38.96</ele>
        <time>2020-07-10T10:21:52Z</time>
      </trkpt>
      <trkpt lat="47.78042" lon="-3.47104">
        <ele>39.08</ele>
        <time>2020-07-10T10:21:53Z</time>
      </trkpt>
      <trkpt lat="47.78042" lon="-3.47099">
        <ele>39.17</ele>
        <time>2020-07-10T10:21:54Z</time>
      </trkpt>
      <trkpt lat="47.78041" lon="-3.47095">
        <ele>39.26</ele>
        <time>2020-07-10T10:21:55Z</time>
      </trkpt>
      <trkpt lat="47.78041" lon="-3.47091">
        <ele>39.31</ele>
        <time>2020-07-10T10:21:56Z</time>
      </trkpt>
      <trkpt lat="47.78041" lon="-3.47087">
        <ele>39.37</ele>
        <time>2020-07-10T10:21:57Z</time>
      </trkpt>
      <trkpt lat="47.7804" lon="-3.47082">
        <ele>39.5</ele>
        <time>2020-07-10T10:21:58Z</time>
      </trkpt>
      <trkpt lat="47.7804" lon="-3.47078">
        <ele>39.98</ele>
        <time>2020-07-10T10:21:59Z</time>
      </trkpt>
      <trkpt lat="47.78039" lon="-3.47072">
        <ele>40.61</ele>
        <time>2020-07-10T10:22:00Z</time>
      </trkpt>
      <trkpt lat="47.78038" lon="-3.47068">
        <ele>41.18</ele>
        <time>2020-07-10T10:22:01Z</time>
      </trkpt>
      <trkpt lat="47.78037" lon="-3.47063">
        <ele>41.72</ele>
        <time>2020-07-10T10:22:02Z</time>
      </trkpt>
      <trkpt lat="47.78036" lon="-3.47059">
        <ele>42.26</ele>
        <time>2020-07-10T10:22:03Z</time>
      </trkpt>
      <trkpt lat="47.78035" lon="-3.47056">
        <ele>42.79</ele>
        <time>2020-07-10T10:22:04Z</time>
      </trkpt>
      <trkpt lat="47.78034" lon="-3.47052">
        <ele>43.45</ele>
        <time>2020-07-10T10:22:05Z</time>
      </trkpt>
      <trkpt lat="47.78033" lon="-3.47048">
        <ele>44.24</ele>
        <time>2020-07-10T10:22:06Z</time>
      </trkpt>
      <trkpt lat="47.78032" lon="-3.47044">
        <ele>45.05</ele>
        <time>2020-07-10T10:22:07Z</time>
      </trkpt>
      <trkpt lat="47.78031" lon="-3.47041">
        <ele>45.83</ele>
        <time>2020-07-10T10:22:08Z</time>
      </trkpt>
      <trkpt lat="47.78029" lon="-3.47038">
        <ele>46.43</ele>
        <time>2020-07-10T10:22:09Z</time>
      </trkpt>
      <trkpt lat="47.78028" lon="-3.47036">
        <ele>46.91</ele>
        <time>2020-07-10T10:22:10Z</time>
      </trkpt>
      <trkpt lat="47.78026" lon="-3.47034">
        <ele>47.35</ele>
        <time>2020-07-10T10:22:11Z</time>
      </trkpt>
      <trkpt lat="47.78024" lon="-3.47031">
        <ele>47.86</ele>
        <time>2020-07-10T10:22:12Z</time>
      </trkpt>
      <trkpt lat="47.78022" lon="-3.47027">
        <ele>48.45</ele>
        <time>2020-07-10T10:22:13Z</time>
      </trkpt>
      <trkpt lat="47.7802" lon="-3.47024">
        <ele>48.73</ele>
        <time>2020-07-10T10:22:14Z</time>
      </trkpt>
      <trkpt lat="47.78018" lon="-3.47022">
        <ele>48.92</ele>
        <time>2020-07-10T10:22:15Z</time>
      </trkpt>
      <trkpt lat="47.78016" lon="-3.4702">
        <ele>49.08</ele>
        <time>2020-07-10T10:22:16Z</time>
      </trkpt>
      <trkpt lat="47.78015" lon="-3.47017">
        <ele>49.24</ele>
        <time>2020-07-10T10:22:17Z</time>
      </trkpt>
      <trkpt lat="47.78012" lon="-3.47015">
        <ele>49.46</ele>
        <time>2020-07-10T10:22:18Z</time>
      </trkpt>
      <trkpt lat="47.7801" lon="-3.47013">
        <ele>49.75</ele>
        <time>2020-07-10T10:22:19Z</time>
      </trkpt>
      <trkpt lat="47.78008" lon="-3.4701">
        <ele>50.07</ele>
        <time>2020-07-10T10:22:20Z</time>
      </trkpt>
      <trkpt lat="47.78007" lon="-3.47009">
        <ele>50.32</ele>
        <time>2020-07-10T10:22:21Z</time>
      </trkpt>
      <trkpt lat="47.78005" lon="-3.47007">
        <ele>50.62</ele>
        <time>2020-07-10T10:22:22Z</time>
      </trkpt>
      <trkpt lat="47.78001" lon="-3.47006">
        <ele>50.87</ele>
        <time>2020-07-10T10:22:23Z</time>
      </trkpt>
      <trkpt lat="47.77998" lon="-3.47005">
        <ele>51.01</ele>
        <time>2020-07-10T10:22:24Z</time>
      </trkpt>
      <trkpt lat="47.77996" lon="-3.47004">
        <ele>51.16</ele>
        <time>2020-07-10T10:22:25Z</time>
      </trkpt>
      <trkpt lat="47.77994" lon="-3.47003">
        <ele>51.31</ele>
        <time>2020-07-10T10:22:26Z</time>
      </trkpt>
      <trkpt lat="47.77992" lon="-3.47001">
        <ele>51.69</ele>
        <time>2020-07-10T10:22:27Z</time>
      </trkpt>
      <trkpt lat="47.7799" lon="-3.47">
        <ele>51.93</ele>
        <time>2020-07-10T10:22:28Z</time>
      </trkpt>
      <trkpt lat="47.77989" lon="-3.46998">
        <ele>52.07</ele>
        <time>2020-07-10T10:22:29Z</time>
      </trkpt>
      <trkpt lat="47.77987" lon="-3.46997">
        <ele>52.16</ele>
        <time>2020-07-10T10:22:30Z</time>
      </trkpt>
      <trkpt lat="47.77985" lon="-3.46996">
        <ele>52.24</ele>
        <time>2020-07-10T10:22:31Z</time>
      </trkpt>
      <trkpt lat="47.77983" lon="-3.46995">
        <ele>52.31</ele>
        <time>2020-07-10T10:22:32Z</time>
      </trkpt>
      <trkpt lat="47.77982" lon="-3.46994">
        <ele>52.38</ele>
        <time>2020-07-10T10:22:33Z</time>
      </trkpt>
      <trkpt lat="47.7798" lon="-3.46993">
        <ele>52.47</ele>
        <time>2020-07-10T10:22:34Z</time>
      </trkpt>
      <trkpt lat="47.77977" lon="-3.46991">
        <ele>52.57</ele>
        <time>2020-07-10T10:22:35Z</time>
      </trkpt>
      <trkpt lat="47.77976" lon="-3.4699">
        <ele>52.7</ele>
        <time>2020-07-10T10:22:36Z</time>
      </trkpt>
      <trkpt lat="47.77974" lon="-3.46989">
        <ele>52.79</ele>
        <time>2020-07-10T10:22:37Z</time>
      </trkpt>
      <trkpt lat="47.77974" lon="-3.46987">
        <ele>52.87</ele>
        <time>2020-07-10T10:22:38Z</time>
      </trkpt>
      <trkpt lat="47.77975" lon="-3.46987">
        <ele>52.92</ele>
        <time>2020-07-10T10:22:39Z</time>
      </trkpt>
      <trkpt lat="47.77975" lon="-3.46987">
        <ele>52.93</ele>
        <time>2020-07-10T10:22:40Z</time>
      </trkpt>
      <trkpt lat="47.77975" lon="-3.46987">
        <ele>52.93</ele>
        <time>2020-07-10T10:22:41Z</time>
      </trkpt>
      <trkpt lat="47.77975" lon="-3.46987">
        <ele>52.94</ele>
        <time>2020-07-10T10:22:42Z</time>
      </trkpt>
      <trkpt lat="47.77975" lon="-3.46987">
        <ele>52.94</ele>
        <time>2020-07-10T10:22:43Z</time>
      </trkpt>
      <trkpt lat="47.77975" lon="-3.46987">
        <ele>52.94</ele>
        <time>2020-07-10T10:22:44Z</time>
      </trkpt>
      <trkpt lat="47.77975" lon="-3.46987">
        <ele>52.94</ele>
        <time>2020-07-10T10:22:45Z</time>
      </trkpt>
      <trkpt lat="47.77975" lon="-3.46987">
        <ele>52.94</ele>
        <time>2020-07-10T10:22:46Z</time>
      </trkpt>
      <trkpt lat="47.77975" lon="-3.46987">
        <ele>52.94</ele>
        <time>2020-07-10T10:22:47Z</time>
      </trkpt>
      <trkpt lat="47.77975" lon="-3.46987">
        <ele>52.94</ele>
        <time>2020-07-10T10:22:48Z</time>
      </trkpt>
      <trkpt lat="47.77975" lon="-3.46987">
        <ele>52.94</ele>
        <time>2020-07-10T10:22:49Z</time>
      </trkpt>
      <trkpt lat="47.77975" lon="-3.46987">
        <ele>52.94</ele>
        <time>2020-07-10T10:22:50Z</time>
      </trkpt>
      <trkpt lat="47.77975" lon="-3.46987">
        <ele>52.94</ele>
        <time>2020-07-10T10:22:51Z</time>
      </trkpt>
      <trkpt lat="47.77974" lon="-3.46976">
        <ele>53.49</ele>
        <time>2020-07-10T10:22:52Z</time>
      </trkpt>
      <trkpt lat="47.77974" lon="-3.46976">
        <ele>53.68</ele>
        <time>2020-07-10T10:22:53Z</time>
      </trkpt>
      <trkpt lat="47.77975" lon="-3.46976">
        <ele>53.73</ele>
        <time>2020-07-10T10:22:54Z</time>
      </trkpt>
      <trkpt lat="47.77976" lon="-3.46974">
        <ele>53.81</ele>
        <time>2020-07-10T10:22:55Z</time>
      </trkpt>
      <trkpt lat="47.77977" lon="-3.46973">
        <ele>53.9</ele>
        <time>2020-07-10T10:22:56Z</time>
      </trkpt>
      <trkpt lat="47.77979" lon="-3.46972">
        <ele>53.99</ele>
        <time>2020-07-10T10:22:57Z</time>
      </trkpt>
      <trkpt lat="47.77982" lon="-3.46971">
        <ele>54.04</ele>
        <time>2020-07-10T10:22:58Z</time>
      </trkpt>
      <trkpt lat="47.77985" lon="-3.4697">
        <ele>54.1</ele>
        <time>2020-07-10T10:22:59Z</time>
      </trkpt>
      <trkpt lat="47.77988" lon="-3.46968">
        <ele>54.18</ele>
        <time>2020-07-10T10:23:00Z</time>
      </trkpt>
      <trkpt lat="47.77989" lon="-3.46967">
        <ele>54.24</ele>
        <time>2020-07-10T10:23:01Z</time>
      </trkpt>
      <trkpt lat="47.77991" lon="-3.46965">
        <ele>54.31</ele>
        <time>2020-07-10T10:23:02Z</time>
      </trkpt>
      <trkpt lat="47.77993" lon="-3.46962">
        <ele>54.4</ele>
        <time>2020-07-10T10:23:03Z</time>
      </trkpt>
      <trkpt lat="47.77995" lon="-3.4696">
        <ele>54.48</ele>
        <time>2020-07-10T10:23:04Z</time>
      </trkpt>
      <trkpt lat="47.77998" lon="-3.46958">
        <ele>54.52</ele>
        <time>2020-07-10T10:23:05Z</time>
      </trkpt>
      <trkpt lat="47.78001" lon="-3.46956">
        <ele>54.56</ele>
        <time>2020-07-10T10:23:06Z</time>
      </trkpt>
      <trkpt lat="47.78003" lon="-3.46953">
        <ele>54.56</ele>
        <time>2020-07-10T10:23:07Z</time>
      </trkpt>
      <trkpt lat="47.78005" lon="-3.46951">
        <ele>54.58</ele>
        <time>2020-07-10T10:23:08Z</time>
      </trkpt>
      <trkpt lat="47.78008" lon="-3.46948">
        <ele>54.57</ele>
        <time>2020-07-10T10:23:09Z</time>
      </trkpt>
      <trkpt lat="47.78011" lon="-3.46946">
        <ele>54.56</ele>
        <time>2020-07-10T10:23:10Z</time>
      </trkpt>
      <trkpt lat="47.78014" lon="-3.46944">
        <ele>54.52</ele>
        <time>2020-07-10T10:23:11Z</time>
      </trkpt>
      <trkpt lat="47.78017" lon="-3.46943">
        <ele>54.5</ele>
        <time>2020-07-10T10:23:12Z</time>
      </trkpt>
      <trkpt lat="47.7802" lon="-3.46941">
        <ele>54.49</ele>
        <time>2020-07-10T10:23:13Z</time>
      </trkpt>
      <trkpt lat="47.78024" lon="-3.46939">
        <ele>54.49</ele>
        <time>2020-07-10T10:23:14Z</time>
      </trkpt>
      <trkpt lat="47.78027" lon="-3.46937">
        <ele>54.55</ele>
        <time>2020-07-10T10:23:15Z</time>
      </trkpt>
      <trkpt lat="47.78031" lon="-3.46934">
        <ele>54.64</ele>
        <time>2020-07-10T10:23:16Z</time>
      </trkpt>
      <trkpt lat="47.78034" lon="-3.46932">
        <ele>54.75</ele>
        <time>2020-07-10T10:23:17Z</time>
      </trkpt>
      <trkpt lat="47.78037" lon="-3.46929">
        <ele>54.87</ele>
        <time>2020-07-10T10:23:18Z</time>
      </trkpt>
      <trkpt lat="47.78041" lon="-3.46926">
        <ele>54.96</ele>
        <time>2020-07-10T10:23:19Z</time>
      </trkpt>
      <trkpt lat="47.78044" lon="-3.46923">
        <ele>55.04</ele>
        <time>2020-07-10T10:23:20Z</time>
      </trkpt>
      <trkpt lat="47.78048" lon="-3.46921">
        <ele>55.06</ele>
        <time>2020-07-10T10:23:21Z</time>
      </trkpt>
      <trkpt lat="47.78051" lon="-3.46919">
        <ele>55.04</ele>
        <time>2020-07-10T10:23:22Z</time>
      </trkpt>
      <trkpt lat="47.78055" lon="-3.46917">
        <ele>55.01</ele>
        <time>2020-07-10T10:23:23Z</time>
      </trkpt>
      <trkpt lat="47.7806" lon="-3.46915">
        <ele>54.73</ele>
        <time>2020-07-10T10:23:24Z</time>
      </trkpt>
      <trkpt lat="47.78064" lon="-3.46913">
        <ele>54.41</ele>
        <time>2020-07-10T10:23:25Z</time>
      </trkpt>
      <trkpt lat="47.78068" lon="-3.4691">
        <ele>54.1</ele>
        <time>2020-07-10T10:23:26Z</time>
      </trkpt>
      <trkpt lat="47.78073" lon="-3.46908">
        <ele>53.8</ele>
        <time>2020-07-10T10:23:27Z</time>
      </trkpt>
      <trkpt lat="47.78077" lon="-3.46906">
        <ele>53.54</ele>
        <time>2020-07-10T10:23:28Z</time>
      </trkpt>
      <trkpt lat="47.7808" lon="-3.46903">
        <ele>53.36</ele>
        <time>2020-07-10T10:23:29Z</time>
      </trkpt>
      <trkpt lat="47.78084" lon="-3.46899">
        <ele>53.27</ele>
        <time>2020-07-10T10:23:30Z</time>
      </trkpt>
      <trkpt lat="47.78087" lon="-3.46896">
        <ele>53.22</ele>
        <time>2020-07-10T10:23:31Z</time>
      </trkpt>
      <trkpt lat="47.78091" lon="-3.46892">
        <ele>53.21</ele>
        <time>2020-07-10T10:23:32Z</time>
      </trkpt>
      <trkpt lat="47.78094" lon="-3.46888">
        <ele>53.22</ele>
        <time>2020-07-10T10:23:33Z</time>
      </trkpt>
      <trkpt lat="47.78098" lon="-3.46884">
        <ele>53.15</ele>
        <time>2020-07-10T10:23:34Z</time>
      </trkpt>
      <trkpt lat="47.78101" lon="-3.4688">
        <ele>53.06</ele>
        <time>2020-07-10T10:23:35Z</time>
      </trkpt>
      <trkpt lat="47.78105" lon="-3.46875">
        <ele>52.98</ele>
        <time>2020-07-10T10:23:36Z</time>
      </trkpt>
      <trkpt lat="47.78108" lon="-3.46871">
        <ele>52.9</ele>
        <time>2020-07-10T10:23:37Z</time>
      </trkpt>
      <trkpt lat="47.78111" lon="-3.46866">
        <ele>52.86</ele>
        <time>2020-07-10T10:23:38Z</time>
      </trkpt>
      <trkpt lat="47.78114" lon="-3.46862">
        <ele>52.77</ele>
        <time>2020-07-10T10:23:39Z</time>
      </trkpt>
      <trkpt lat="47.78118" lon="-3.46858">
        <ele>52.71</ele>
        <time>2020-07-10T10:23:40Z</time>
      </trkpt>
      <trkpt lat="47.78121" lon="-3.46853">
        <ele>52.7</ele>
        <time>2020-07-10T10:23:41Z</time>
      </trkpt>
      <trkpt lat="47.78124" lon="-3.46848">
        <ele>52.75</ele>
        <time>2020-07-10T10:23:42Z</time>
      </trkpt>
      <trkpt lat="47.78127" lon="-3.46843">
        <ele>52.86</ele>
        <time>2020-07-10T10:23:43Z</time>
      </trkpt>
      <trkpt lat="47.78129" lon="-3.46838">
        <ele>53</ele>
        <time>2020-07-10T10:23:44Z</time>
      </trkpt>
      <trkpt lat="47.78132" lon="-3.46833">
        <ele>53.17</ele>
        <time>2020-07-10T10:23:45Z</time>
      </trkpt>
      <trkpt lat="47.78135" lon="-3.46829">
        <ele>53.16</ele>
        <time>2020-07-10T10:23:46Z</time>
      </trkpt>
      <trkpt lat="47.78138" lon="-3.46826">
        <ele>53.07</ele>
        <time>2020-07-10T10:23:47Z</time>
      </trkpt>
      <trkpt lat="47.78142" lon="-3.46822">
        <ele>52.91</ele>
        <time>2020-07-10T10:23:48Z</time>
      </trkpt>
      <trkpt lat="47.78145" lon="-3.46818">
        <ele>52.75</ele>
        <time>2020-07-10T10:23:49Z</time>
      </trkpt>
      <trkpt lat="47.78149" lon="-3.46813">
        <ele>52.59</ele>
        <time>2020-07-10T10:23:50Z</time>
      </trkpt>
      <trkpt lat="47.78153" lon="-3.46808">
        <ele>52.48</ele>
        <time>2020-07-10T10:23:51Z</time>
      </trkpt>
      <trkpt lat="47.78157" lon="-3.46804">
        <ele>52.39</ele>
        <time>2020-07-10T10:23:52Z</time>
      </trkpt>
      <trkpt lat="47.78162" lon="-3.46801">
        <ele>52.35</ele>
        <time>2020-07-10T10:23:53Z</time>
      </trkpt>
      <trkpt lat="47.78166" lon="-3.46797">
        <ele>52.32</ele>
        <time>2020-07-10T10:23:54Z</time>
      </trkpt>
      <trkpt lat="47.7817" lon="-3.46793">
        <ele>52.31</ele>
        <time>2020-07-10T10:23:55Z</time>
      </trkpt>
      <trkpt lat="47.78176" lon="-3.46787">
        <ele>52.33</ele>
        <time>2020-07-10T10:23:56Z</time>
      </trkpt>
      <trkpt lat="47.78179" lon="-3.46781">
        <ele>52.41</ele>
        <time>2020-07-10T10:23:57Z</time>
      </trkpt>
      <trkpt lat="47.78182" lon="-3.46773">
        <ele>52.36</ele>
        <time>2020-07-10T10:23:58Z</time>
      </trkpt>
      <trkpt lat="47.78185" lon="-3.46764">
        <ele>52.13</ele>
        <time>2020-07-10T10:23:59Z</time>
      </trkpt>
      <trkpt lat="47.78185" lon="-3.46756">
        <ele>51.91</ele>
        <time>2020-07-10T10:24:00Z</time>
      </trkpt>
      <trkpt lat="47.78186" lon="-3.46747">
        <ele>51.52</ele>
        <time>2020-07-10T10:24:01Z</time>
      </trkpt>
      <trkpt lat="47.78185" lon="-3.46738">
        <ele>50.9</ele>
        <time>2020-07-10T10:24:02Z</time>
      </trkpt>
      <trkpt lat="47.78183" lon="-3.4673">
        <ele>50.33</ele>
        <time>2020-07-10T10:24:03Z</time>
      </trkpt>
      <trkpt lat="47.7818" lon="-3.46723">
        <ele>49.83</ele>
        <time>2020-07-10T10:24:04Z</time>
      </trkpt>
      <trkpt lat="47.78176" lon="-3.46717">
        <ele>49.32</ele>
        <time>2020-07-10T10:24:05Z</time>
      </trkpt>
      <trkpt lat="47.78171" lon="-3.46711">
        <ele>48.86</ele>
        <time>2020-07-10T10:24:06Z</time>
      </trkpt>
      <trkpt lat="47.78166" lon="-3.46708">
        <ele>48.57</ele>
        <time>2020-07-10T10:24:07Z</time>
      </trkpt>
      <trkpt lat="47.78163" lon="-3.46706">
        <ele>48.44</ele>
        <time>2020-07-10T10:24:08Z</time>
      </trkpt>
      <trkpt lat="47.7816" lon="-3.46705">
        <ele>48.41</ele>
        <time>2020-07-10T10:24:09Z</time>
      </trkpt>
      <trkpt lat="47.78156" lon="-3.46705">
        <ele>48.49</ele>
        <time>2020-07-10T10:24:10Z</time>
      </trkpt>
      <trkpt lat="47.78151" lon="-3.46704">
        <ele>48.53</ele>
        <time>2020-07-10T10:24:11Z</time>
      </trkpt>
      <trkpt lat="47.78148" lon="-3.46701">
        <ele>48.44</ele>
        <time>2020-07-10T10:24:12Z</time>
      </trkpt>
      <trkpt lat="47.78144" lon="-3.46699">
        <ele>48.36</ele>
        <time>2020-07-10T10:24:13Z</time>
      </trkpt>
      <trkpt lat="47.78141" lon="-3.46696">
        <ele>48.17</ele>
        <time>2020-07-10T10:24:14Z</time>
      </trkpt>
      <trkpt lat="47.78137" lon="-3.46691">
        <ele>47.96</ele>
        <time>2020-07-10T10:24:15Z</time>
      </trkpt>
      <trkpt lat="47.78133" lon="-3.46685">
        <ele>47.84</ele>
        <time>2020-07-10T10:24:16Z</time>
      </trkpt>
      <trkpt lat="47.78128" lon="-3.46677">
        <ele>47.82</ele>
        <time>2020-07-10T10:24:17Z</time>
      </trkpt>
      <trkpt lat="47.78122" lon="-3.46671">
        <ele>48.11</ele>
        <time>2020-07-10T10:24:18Z</time>
      </trkpt>
      <trkpt lat="47.78118" lon="-3.46662">
        <ele>48.4</ele>
        <time>2020-07-10T10:24:19Z</time>
      </trkpt>
      <trkpt lat="47.78113" lon="-3.46656">
        <ele>48.79</ele>
        <time>2020-07-10T10:24:20Z</time>
      </trkpt>
      <trkpt lat="47.78107" lon="-3.4665">
        <ele>49.09</ele>
        <time>2020-07-10T10:24:21Z</time>
      </trkpt>
      <trkpt lat="47.78103" lon="-3.46645">
        <ele>49.35</ele>
        <time>2020-07-10T10:24:22Z</time>
      </trkpt>
      <trkpt lat="47.78099" lon="-3.4664">
        <ele>49.63</ele>
        <time>2020-07-10T10:24:23Z</time>
      </trkpt>
      <trkpt lat="47.78096" lon="-3.46636">
        <ele>49.96</ele>
        <time>2020-07-10T10:24:24Z</time>
      </trkpt>
      <trkpt lat="47.78093" lon="-3.46633">
        <ele>50.29</ele>
        <time>2020-07-10T10:24:25Z</time>
      </trkpt>
      <trkpt lat="47.78089" lon="-3.4663">
        <ele>50.71</ele>
        <time>2020-07-10T10:24:26Z</time>
      </trkpt>
      <trkpt lat="47.78085" lon="-3.46627">
        <ele>51.1</ele>
        <time>2020-07-10T10:24:27Z</time>
      </trkpt>
      <trkpt lat="47.78083" lon="-3.46623">
        <ele>51.38</ele>
        <time>2020-07-10T10:24:28Z</time>
      </trkpt>
      <trkpt lat="47.78081" lon="-3.46619">
        <ele>51.5</ele>
        <time>2020-07-10T10:24:29Z</time>
      </trkpt>
      <trkpt lat="47.78079" lon="-3.46614">
        <ele>51.54</ele>
        <time>2020-07-10T10:24:30Z</time>
      </trkpt>
      <trkpt lat="47.78077" lon="-3.46609">
        <ele>51.57</ele>
        <time>2020-07-10T10:24:31Z</time>
      </trkpt>
      <trkpt lat="47.78075" lon="-3.46605">
        <ele>51.6</ele>
        <time>2020-07-10T10:24:32Z</time>
      </trkpt>
      <trkpt lat="47.78073" lon="-3.466">
        <ele>51.6</ele>
        <time>2020-07-10T10:24:33Z</time>
      </trkpt>
      <trkpt lat="47.7807" lon="-3.46596">
        <ele>51.61</ele>
        <time>2020-07-10T10:24:34Z</time>
      </trkpt>
      <trkpt lat="47.78067" lon="-3.46591">
        <ele>51.61</ele>
        <time>2020-07-10T10:24:35Z</time>
      </trkpt>
      <trkpt lat="47.78063" lon="-3.46586">
        <ele>51.6</ele>
        <time>2020-07-10T10:24:36Z</time>
      </trkpt>
      <trkpt lat="47.7806" lon="-3.46581">
        <ele>51.61</ele>
        <time>2020-07-10T10:24:37Z</time>
      </trkpt>
      <trkpt lat="47.78055" lon="-3.46577">
        <ele>51.72</ele>
        <time>2020-07-10T10:24:38Z</time>
      </trkpt>
      <trkpt lat="47.78051" lon="-3.46572">
        <ele>51.85</ele>
        <time>2020-07-10T10:24:39Z</time>
      </trkpt>
      <trkpt lat="47.78046" lon="-3.46567">
        <ele>52.02</ele>
        <time>2020-07-10T10:24:40Z</time>
      </trkpt>
      <trkpt lat="47.78041" lon="-3.46562">
        <ele>52.2</ele>
        <time>2020-07-10T10:24:41Z</time>
      </trkpt>
      <trkpt lat="47.78036" lon="-3.46558">
        <ele>52.42</ele>
        <time>2020-07-10T10:24:42Z</time>
      </trkpt>
      <trkpt lat="47.78032" lon="-3.46554">
        <ele>52.56</ele>
        <time>2020-07-10T10:24:43Z</time>
      </trkpt>
      <trkpt lat="47.78027" lon="-3.46549">
        <ele>52.57</ele>
        <time>2020-07-10T10:24:44Z</time>
      </trkpt>
      <trkpt lat="47.78023" lon="-3.46545">
        <ele>52.53</ele>
        <time>2020-07-10T10:24:45Z</time>
      </trkpt>
      <trkpt lat="47.78018" lon="-3.46541">
        <ele>52.48</ele>
        <time>2020-07-10T10:24:46Z</time>
      </trkpt>
      <trkpt lat="47.78014" lon="-3.46536">
        <ele>52.48</ele>
        <time>2020-07-10T10:24:47Z</time>
      </trkpt>
      <trkpt lat="47.78009" lon="-3.46531">
        <ele>52.51</ele>
        <time>2020-07-10T10:24:48Z</time>
      </trkpt>
      <trkpt lat="47.78004" lon="-3.46526">
        <ele>52.6</ele>
        <time>2020-07-10T10:24:49Z</time>
      </trkpt>
      <trkpt lat="47.77999" lon="-3.46522">
        <ele>52.59</ele>
        <time>2020-07-10T10:24:50Z</time>
      </trkpt>
      <trkpt lat="47.77995" lon="-3.46517">
        <ele>52.41</ele>
        <time>2020-07-10T10:24:51Z</time>
      </trkpt>
      <trkpt lat="47.77991" lon="-3.46514">
        <ele>52.22</ele>
        <time>2020-07-10T10:24:52Z</time>
      </trkpt>
      <trkpt lat="47.77986" lon="-3.4651">
        <ele>52.07</ele>
        <time>2020-07-10T10:24:53Z</time>
      </trkpt>
      <trkpt lat="47.77982" lon="-3.46505">
        <ele>51.95</ele>
        <time>2020-07-10T10:24:54Z</time>
      </trkpt>
      <trkpt lat="47.77978" lon="-3.465">
        <ele>51.83</ele>
        <time>2020-07-10T10:24:55Z</time>
      </trkpt>
      <trkpt lat="47.77975" lon="-3.46494">
        <ele>51.86</ele>
        <time>2020-07-10T10:24:56Z</time>
      </trkpt>
      <trkpt lat="47.77972" lon="-3.46488">
        <ele>51.96</ele>
        <time>2020-07-10T10:24:57Z</time>
      </trkpt>
      <trkpt lat="47.7797" lon="-3.46482">
        <ele>51.99</ele>
        <time>2020-07-10T10:24:58Z</time>
      </trkpt>
      <trkpt lat="47.77968" lon="-3.46475">
        <ele>52</ele>
        <time>2020-07-10T10:24:59Z</time>
      </trkpt>
      <trkpt lat="47.77966" lon="-3.46468">
        <ele>51.89</ele>
        <time>2020-07-10T10:25:00Z</time>
      </trkpt>
      <trkpt lat="47.77964" lon="-3.46462">
        <ele>51.7</ele>
        <time>2020-07-10T10:25:01Z</time>
      </trkpt>
      <trkpt lat="47.77962" lon="-3.46455">
        <ele>51.48</ele>
        <time>2020-07-10T10:25:02Z</time>
      </trkpt>
      <trkpt lat="47.7796" lon="-3.46448">
        <ele>51.25</ele>
        <time>2020-07-10T10:25:03Z</time>
      </trkpt>
      <trkpt lat="47.77957" lon="-3.46441">
        <ele>51.07</ele>
        <time>2020-07-10T10:25:04Z</time>
      </trkpt>
      <trkpt lat="47.77955" lon="-3.46433">
        <ele>51.02</ele>
        <time>2020-07-10T10:25:05Z</time>
      </trkpt>
      <trkpt lat="47.77953" lon="-3.46425">
        <ele>51.01</ele>
        <time>2020-07-10T10:25:06Z</time>
      </trkpt>
      <trkpt lat="47.77951" lon="-3.46417">
        <ele>51</ele>
        <time>2020-07-10T10:25:07Z</time>
      </trkpt>
      <trkpt lat="47.77949" lon="-3.46409">
        <ele>51.18</ele>
        <time>2020-07-10T10:25:08Z</time>
      </trkpt>
      <trkpt lat="47.77947" lon="-3.46402">
        <ele>51.44</ele>
        <time>2020-07-10T10:25:09Z</time>
      </trkpt>
      <trkpt lat="47.77946" lon="-3.46393">
        <ele>51.72</ele>
        <time>2020-07-10T10:25:10Z</time>
      </trkpt>
      <trkpt lat="47.77945" lon="-3.46385">
        <ele>51.92</ele>
        <time>2020-07-10T10:25:11Z</time>
      </trkpt>
      <trkpt lat="47.77944" lon="-3.46376">
        <ele>51.96</ele>
        <time>2020-07-10T10:25:12Z</time>
      </trkpt>
      <trkpt lat="47.77943" lon="-3.46367">
        <ele>51.98</ele>
        <time>2020-07-10T10:25:13Z</time>
      </trkpt>
      <trkpt lat="47.77942" lon="-3.46359">
        <ele>51.99</ele>
        <time>2020-07-10T10:25:14Z</time>
      </trkpt>
      <trkpt lat="47.77941" lon="-3.4635">
        <ele>52</ele>
        <time>2020-07-10T10:25:15Z</time>
      </trkpt>
      <trkpt lat="47.7794" lon="-3.46341">
        <ele>52</ele>
        <time>2020-07-10T10:25:16Z</time>
      </trkpt>
      <trkpt lat="47.77939" lon="-3.46333">
        <ele>52</ele>
        <time>2020-07-10T10:25:17Z</time>
      </trkpt>
      <trkpt lat="47.77937" lon="-3.46324">
        <ele>52</ele>
        <time>2020-07-10T10:25:18Z</time>
      </trkpt>
      <trkpt lat="47.77936" lon="-3.46316">
        <ele>52</ele>
        <time>2020-07-10T10:25:19Z</time>
      </trkpt>
      <trkpt lat="47.77935" lon="-3.46307">
        <ele>52</ele>
        <time>2020-07-10T10:25:20Z</time>
      </trkpt>
      <trkpt lat="47.77934" lon="-3.46299">
        <ele>52</ele>
        <time>2020-07-10T10:25:21Z</time>
      </trkpt>
      <trkpt lat="47.77933" lon="-3.46291">
        <ele>52</ele>
        <time>2020-07-10T10:25:22Z</time>
      </trkpt>
      <trkpt lat="47.77932" lon="-3.46283">
        <ele>52</ele>
        <time>2020-07-10T10:25:23Z</time>
      </trkpt>
      <trkpt lat="47.77931" lon="-3.46275">
        <ele>51.97</ele>
        <time>2020-07-10T10:25:24Z</time>
      </trkpt>
      <trkpt lat="47.7793" lon="-3.46268">
        <ele>51.86</ele>
        <time>2020-07-10T10:25:25Z</time>
      </trkpt>
      <trkpt lat="47.77929" lon="-3.46261">
        <ele>51.72</ele>
        <time>2020-07-10T10:25:26Z</time>
      </trkpt>
      <trkpt lat="47.77928" lon="-3.46255">
        <ele>51.57</ele>
        <time>2020-07-10T10:25:27Z</time>
      </trkpt>
      <trkpt lat="47.77927" lon="-3.4625">
        <ele>51.44</ele>
        <time>2020-07-10T10:25:28Z</time>
      </trkpt>
      <trkpt lat="47.77926" lon="-3.46246">
        <ele>51.26</ele>
        <time>2020-07-10T10:25:29Z</time>
      </trkpt>
      <trkpt lat="47.77924" lon="-3.46241">
        <ele>51.04</ele>
        <time>2020-07-10T10:25:30Z</time>
      </trkpt>
      <trkpt lat="47.77924" lon="-3.46236">
        <ele>50.83</ele>
        <time>2020-07-10T10:25:31Z</time>
      </trkpt>
      <trkpt lat="47.77924" lon="-3.4623">
        <ele>50.63</ele>
        <time>2020-07-10T10:25:32Z</time>
      </trkpt>
      <trkpt lat="47.77926" lon="-3.46223">
        <ele>50.46</ele>
        <time>2020-07-10T10:25:33Z</time>
      </trkpt>
      <trkpt lat="47.77928" lon="-3.46217">
        <ele>50.42</ele>
        <time>2020-07-10T10:25:34Z</time>
      </trkpt>
      <trkpt lat="47.7793" lon="-3.4621">
        <ele>50.45</ele>
        <time>2020-07-10T10:25:35Z</time>
      </trkpt>
      <trkpt lat="47.77931" lon="-3.46203">
        <ele>50.51</ele>
        <time>2020-07-10T10:25:36Z</time>
      </trkpt>
      <trkpt lat="47.77933" lon="-3.46195">
        <ele>50.56</ele>
        <time>2020-07-10T10:25:37Z</time>
      </trkpt>
      <trkpt lat="47.77934" lon="-3.46186">
        <ele>50.54</ele>
        <time>2020-07-10T10:25:38Z</time>
      </trkpt>
      <trkpt lat="47.77936" lon="-3.46178">
        <ele>50.53</ele>
        <time>2020-07-10T10:25:39Z</time>
      </trkpt>
      <trkpt lat="47.77938" lon="-3.46169">
        <ele>50.53</ele>
        <time>2020-07-10T10:25:40Z</time>
      </trkpt>
      <trkpt lat="47.77939" lon="-3.4616">
        <ele>50.59</ele>
        <time>2020-07-10T10:25:41Z</time>
      </trkpt>
      <trkpt lat="47.7794" lon="-3.46152">
        <ele>50.67</ele>
        <time>2020-07-10T10:25:42Z</time>
      </trkpt>
      <trkpt lat="47.77942" lon="-3.46145">
        <ele>50.78</ele>
        <time>2020-07-10T10:25:43Z</time>
      </trkpt>
      <trkpt lat="47.77943" lon="-3.46138">
        <ele>50.85</ele>
        <time>2020-07-10T10:25:44Z</time>
      </trkpt>
      <trkpt lat="47.77944" lon="-3.4613">
        <ele>50.74</ele>
        <time>2020-07-10T10:25:45Z</time>
      </trkpt>
      <trkpt lat="47.77946" lon="-3.46124">
        <ele>50.56</ele>
        <time>2020-07-10T10:25:46Z</time>
      </trkpt>
      <trkpt lat="47.77948" lon="-3.46117">
        <ele>50.38</ele>
        <time>2020-07-10T10:25:47Z</time>
      </trkpt>
      <trkpt lat="47.77949" lon="-3.4611">
        <ele>50.23</ele>
        <time>2020-07-10T10:25:48Z</time>
      </trkpt>
      <trkpt lat="47.7795" lon="-3.46103">
        <ele>50.17</ele>
        <time>2020-07-10T10:25:49Z</time>
      </trkpt>
      <trkpt lat="47.77952" lon="-3.46095">
        <ele>50.13</ele>
        <time>2020-07-10T10:25:50Z</time>
      </trkpt>
      <trkpt lat="47.77953" lon="-3.46087">
        <ele>50.06</ele>
        <time>2020-07-10T10:25:51Z</time>
      </trkpt>
      <trkpt lat="47.77954" lon="-3.46078">
        <ele>49.94</ele>
        <time>2020-07-10T10:25:52Z</time>
      </trkpt>
      <trkpt lat="47.77956" lon="-3.4607">
        <ele>49.78</ele>
        <time>2020-07-10T10:25:53Z</time>
      </trkpt>
      <trkpt lat="47.77957" lon="-3.46062">
        <ele>49.65</ele>
        <time>2020-07-10T10:25:54Z</time>
      </trkpt>
      <trkpt lat="47.77959" lon="-3.46054">
        <ele>49.54</ele>
        <time>2020-07-10T10:25:55Z</time>
      </trkpt>
      <trkpt lat="47.77961" lon="-3.46045">
        <ele>49.42</ele>
        <time>2020-07-10T10:25:56Z</time>
      </trkpt>
      <trkpt lat="47.77962" lon="-3.46037">
        <ele>49.26</ele>
        <time>2020-07-10T10:25:57Z</time>
      </trkpt>
      <trkpt lat="47.77962" lon="-3.46028">
        <ele>49.08</ele>
        <time>2020-07-10T10:25:58Z</time>
      </trkpt>
      <trkpt lat="47.77963" lon="-3.46019">
        <ele>49.11</ele>
        <time>2020-07-10T10:25:59Z</time>
      </trkpt>
      <trkpt lat="47.77964" lon="-3.46009">
        <ele>49.23</ele>
        <time>2020-07-10T10:26:00Z</time>
      </trkpt>
      <trkpt lat="47.77966" lon="-3.46">
        <ele>49.45</ele>
        <time>2020-07-10T10:26:01Z</time>
      </trkpt>
      <trkpt lat="47.77968" lon="-3.45991">
        <ele>49.64</ele>
        <time>2020-07-10T10:26:02Z</time>
      </trkpt>
      <trkpt lat="47.77969" lon="-3.45983">
        <ele>49.79</ele>
        <time>2020-07-10T10:26:03Z</time>
      </trkpt>
      <trkpt lat="47.7797" lon="-3.45975">
        <ele>49.88</ele>
        <time>2020-07-10T10:26:04Z</time>
      </trkpt>
      <trkpt lat="47.77972" lon="-3.45967">
        <ele>49.95</ele>
        <time>2020-07-10T10:26:05Z</time>
      </trkpt>
      <trkpt lat="47.77973" lon="-3.45959">
        <ele>50</ele>
        <time>2020-07-10T10:26:06Z</time>
      </trkpt>
      <trkpt lat="47.77975" lon="-3.45951">
        <ele>50.06</ele>
        <time>2020-07-10T10:26:07Z</time>
      </trkpt>
      <trkpt lat="47.77976" lon="-3.45944">
        <ele>50.12</ele>
        <time>2020-07-10T10:26:08Z</time>
      </trkpt>
      <trkpt lat="47.77977" lon="-3.45937">
        <ele>50.35</ele>
        <time>2020-07-10T10:26:09Z</time>
      </trkpt>
      <trkpt lat="47.77978" lon="-3.4593">
        <ele>50.63</ele>
        <time>2020-07-10T10:26:10Z</time>
      </trkpt>
      <trkpt lat="47.77979" lon="-3.45923">
        <ele>50.92</ele>
        <time>2020-07-10T10:26:11Z</time>
      </trkpt>
      <trkpt lat="47.7798" lon="-3.45916">
        <ele>51.19</ele>
        <time>2020-07-10T10:26:12Z</time>
      </trkpt>
      <trkpt lat="47.77981" lon="-3.45911">
        <ele>51.38</ele>
        <time>2020-07-10T10:26:13Z</time>
      </trkpt>
      <trkpt lat="47.77981" lon="-3.45906">
        <ele>51.52</ele>
        <time>2020-07-10T10:26:14Z</time>
      </trkpt>
      <trkpt lat="47.77982" lon="-3.45903">
        <ele>51.63</ele>
        <time>2020-07-10T10:26:15Z</time>
      </trkpt>
      <trkpt lat="47.77982" lon="-3.45901">
        <ele>51.7</ele>
        <time>2020-07-10T10:26:16Z</time>
      </trkpt>
      <trkpt lat="47.77982" lon="-3.459">
        <ele>51.73</ele>
        <time>2020-07-10T10:26:17Z</time>
      </trkpt>
      <trkpt lat="47.77983" lon="-3.45899">
        <ele>51.76</ele>
        <time>2020-07-10T10:26:18Z</time>
      </trkpt>
      <trkpt lat="47.77983" lon="-3.45898">
        <ele>51.78</ele>
        <time>2020-07-10T10:26:19Z</time>
      </trkpt>
      <trkpt lat="47.77984" lon="-3.459">
        <ele>51.77</ele>
        <time>2020-07-10T10:26:20Z</time>
      </trkpt>
      <trkpt lat="47.77985" lon="-3.45903">
        <ele>51.74</ele>
        <time>2020-07-10T10:26:21Z</time>
      </trkpt>
      <trkpt lat="47.77987" lon="-3.45905">
        <ele>51.73</ele>
        <time>2020-07-10T10:26:22Z</time>
      </trkpt>
      <trkpt lat="47.77988" lon="-3.45905">
        <ele>51.74</ele>
        <time>2020-07-10T10:26:23Z</time>
      </trkpt>
      <trkpt lat="47.77989" lon="-3.45904">
        <ele>51.77</ele>
        <time>2020-07-10T10:26:24Z</time>
      </trkpt>
      <trkpt lat="47.77989" lon="-3.45904">
        <ele>51.78</ele>
        <time>2020-07-10T10:26:25Z</time>
      </trkpt>
      <trkpt lat="47.77989" lon="-3.45904">
        <ele>51.79</ele>
        <time>2020-07-10T10:26:26Z</time>
      </trkpt>
      <trkpt lat="47.77989" lon="-3.45904">
        <ele>51.79</ele>
        <time>2020-07-10T10:26:27Z</time>
      </trkpt>
      <trkpt lat="47.77991" lon="-3.45903">
        <ele>51.82</ele>
        <time>2020-07-10T10:26:28Z</time>
      </trkpt>
      <trkpt lat="47.77992" lon="-3.45903">
        <ele>51.85</ele>
        <time>2020-07-10T10:26:29Z</time>
      </trkpt>
      <trkpt lat="47.77994" lon="-3.45902">
        <ele>51.89</ele>
        <time>2020-07-10T10:26:30Z</time>
      </trkpt>
      <trkpt lat="47.77996" lon="-3.45903">
        <ele>51.92</ele>
        <time>2020-07-10T10:26:31Z</time>
      </trkpt>
      <trkpt lat="47.77998" lon="-3.45903">
        <ele>51.95</ele>
        <time>2020-07-10T10:26:32Z</time>
      </trkpt>
      <trkpt lat="47.78" lon="-3.45904">
        <ele>51.99</ele>
        <time>2020-07-10T10:26:33Z</time>
      </trkpt>
      <trkpt lat="47.78001" lon="-3.45906">
        <ele>52.03</ele>
        <time>2020-07-10T10:26:34Z</time>
      </trkpt>
      <trkpt lat="47.78003" lon="-3.45907">
        <ele>52.09</ele>
        <time>2020-07-10T10:26:35Z</time>
      </trkpt>
      <trkpt lat="47.78006" lon="-3.45908">
        <ele>52.17</ele>
        <time>2020-07-10T10:26:36Z</time>
      </trkpt>
      <trkpt lat="47.78007" lon="-3.45908">
        <ele>52.24</ele>
        <time>2020-07-10T10:26:37Z</time>
      </trkpt>
      <trkpt lat="47.78011" lon="-3.45908">
        <ele>52.35</ele>
        <time>2020-07-10T10:26:38Z</time>
      </trkpt>
      <trkpt lat="47.78015" lon="-3.45909">
        <ele>52.47</ele>
        <time>2020-07-10T10:26:39Z</time>
      </trkpt>
      <trkpt lat="47.78018" lon="-3.45911">
        <ele>52.58</ele>
        <time>2020-07-10T10:26:40Z</time>
      </trkpt>
      <trkpt lat="47.7802" lon="-3.45913">
        <ele>52.69</ele>
        <time>2020-07-10T10:26:41Z</time>
      </trkpt>
      <trkpt lat="47.78023" lon="-3.45916">
        <ele>52.78</ele>
        <time>2020-07-10T10:26:42Z</time>
      </trkpt>
      <trkpt lat="47.78026" lon="-3.45918">
        <ele>52.89</ele>
        <time>2020-07-10T10:26:43Z</time>
      </trkpt>
      <trkpt lat="47.78028" lon="-3.45921">
        <ele>52.98</ele>
        <time>2020-07-10T10:26:44Z</time>
      </trkpt>
      <trkpt lat="47.7803" lon="-3.45923">
        <ele>53.11</ele>
        <time>2020-07-10T10:26:45Z</time>
      </trkpt>
      <trkpt lat="47.78033" lon="-3.45924">
        <ele>53.28</ele>
        <time>2020-07-10T10:26:46Z</time>
      </trkpt>
      <trkpt lat="47.78036" lon="-3.45925">
        <ele>53.48</ele>
        <time>2020-07-10T10:26:47Z</time>
      </trkpt>
      <trkpt lat="47.78038" lon="-3.45925">
        <ele>53.68</ele>
        <time>2020-07-10T10:26:48Z</time>
      </trkpt>
      <trkpt lat="47.78041" lon="-3.45924">
        <ele>53.86</ele>
        <time>2020-07-10T10:26:49Z</time>
      </trkpt>
      <trkpt lat="47.78043" lon="-3.45925">
        <ele>54.04</ele>
        <time>2020-07-10T10:26:50Z</time>
      </trkpt>
      <trkpt lat="47.78047" lon="-3.45926">
        <ele>54.27</ele>
        <time>2020-07-10T10:26:51Z</time>
      </trkpt>
      <trkpt lat="47.78051" lon="-3.45928">
        <ele>54.56</ele>
        <time>2020-07-10T10:26:52Z</time>
      </trkpt>
      <trkpt lat="47.78054" lon="-3.4593">
        <ele>54.79</ele>
        <time>2020-07-10T10:26:53Z</time>
      </trkpt>
      <trkpt lat="47.78057" lon="-3.45933">
        <ele>54.97</ele>
        <time>2020-07-10T10:26:54Z</time>
      </trkpt>
      <trkpt lat="47.7806" lon="-3.45936">
        <ele>55.11</ele>
        <time>2020-07-10T10:26:55Z</time>
      </trkpt>
      <trkpt lat="47.78063" lon="-3.45938">
        <ele>55.22</ele>
        <time>2020-07-10T10:26:56Z</time>
      </trkpt>
      <trkpt lat="47.78068" lon="-3.45941">
        <ele>55.37</ele>
        <time>2020-07-10T10:26:57Z</time>
      </trkpt>
      <trkpt lat="47.78071" lon="-3.45943">
        <ele>55.51</ele>
        <time>2020-07-10T10:26:58Z</time>
      </trkpt>
      <trkpt lat="47.78074" lon="-3.45945">
        <ele>55.61</ele>
        <time>2020-07-10T10:26:59Z</time>
      </trkpt>
      <trkpt lat="47.78077" lon="-3.45946">
        <ele>55.72</ele>
        <time>2020-07-10T10:27:00Z</time>
      </trkpt>
      <trkpt lat="47.78081" lon="-3.45948">
        <ele>55.85</ele>
        <time>2020-07-10T10:27:01Z</time>
      </trkpt>
      <trkpt lat="47.78085" lon="-3.45948">
        <ele>55.96</ele>
        <time>2020-07-10T10:27:02Z</time>
      </trkpt>
      <trkpt lat="47.78088" lon="-3.45948">
        <ele>55.99</ele>
        <time>2020-07-10T10:27:03Z</time>
      </trkpt>
      <trkpt lat="47.78092" lon="-3.45948">
        <ele>56</ele>
        <time>2020-07-10T10:27:04Z</time>
      </trkpt>
      <trkpt lat="47.78095" lon="-3.45947">
        <ele>56</ele>
        <time>2020-07-10T10:27:05Z</time>
      </trkpt>
      <trkpt lat="47.78098" lon="-3.45946">
        <ele>56</ele>
        <time>2020-07-10T10:27:06Z</time>
      </trkpt>
      <trkpt lat="47.781" lon="-3.45946">
        <ele>56</ele>
        <time>2020-07-10T10:27:07Z</time>
      </trkpt>
      <trkpt lat="47.78103" lon="-3.45945">
        <ele>56</ele>
        <time>2020-07-10T10:27:08Z</time>
      </trkpt>
      <trkpt lat="47.78108" lon="-3.45946">
        <ele>56</ele>
        <time>2020-07-10T10:27:09Z</time>
      </trkpt>
      <trkpt lat="47.78114" lon="-3.45946">
        <ele>56</ele>
        <time>2020-07-10T10:27:10Z</time>
      </trkpt>
      <trkpt lat="47.78119" lon="-3.45946">
        <ele>55.99</ele>
        <time>2020-07-10T10:27:11Z</time>
      </trkpt>
      <trkpt lat="47.78123" lon="-3.45946">
        <ele>55.98</ele>
        <time>2020-07-10T10:27:12Z</time>
      </trkpt>
      <trkpt lat="47.78127" lon="-3.45944">
        <ele>55.99</ele>
        <time>2020-07-10T10:27:13Z</time>
      </trkpt>
      <trkpt lat="47.7813" lon="-3.45943">
        <ele>56.01</ele>
        <time>2020-07-10T10:27:14Z</time>
      </trkpt>
      <trkpt lat="47.78135" lon="-3.45939">
        <ele>56.02</ele>
        <time>2020-07-10T10:27:15Z</time>
      </trkpt>
      <trkpt lat="47.7814" lon="-3.45935">
        <ele>55.97</ele>
        <time>2020-07-10T10:27:16Z</time>
      </trkpt>
      <trkpt lat="47.78143" lon="-3.4593">
        <ele>55.82</ele>
        <time>2020-07-10T10:27:17Z</time>
      </trkpt>
      <trkpt lat="47.78147" lon="-3.45927">
        <ele>55.67</ele>
        <time>2020-07-10T10:27:18Z</time>
      </trkpt>
      <trkpt lat="47.78151" lon="-3.45923">
        <ele>55.53</ele>
        <time>2020-07-10T10:27:19Z</time>
      </trkpt>
      <trkpt lat="47.78156" lon="-3.45921">
        <ele>55.35</ele>
        <time>2020-07-10T10:27:20Z</time>
      </trkpt>
      <trkpt lat="47.7816" lon="-3.45918">
        <ele>55.25</ele>
        <time>2020-07-10T10:27:21Z</time>
      </trkpt>
      <trkpt lat="47.78164" lon="-3.45913">
        <ele>55.22</ele>
        <time>2020-07-10T10:27:22Z</time>
      </trkpt>
      <trkpt lat="47.78167" lon="-3.4591">
        <ele>55.19</ele>
        <time>2020-07-10T10:27:23Z</time>
      </trkpt>
      <trkpt lat="47.78171" lon="-3.45908">
        <ele>55.06</ele>
        <time>2020-07-10T10:27:24Z</time>
      </trkpt>
      <trkpt lat="47.78175" lon="-3.45906">
        <ele>54.88</ele>
        <time>2020-07-10T10:27:25Z</time>
      </trkpt>
      <trkpt lat="47.78179" lon="-3.45905">
        <ele>54.64</ele>
        <time>2020-07-10T10:27:26Z</time>
      </trkpt>
      <trkpt lat="47.78183" lon="-3.45903">
        <ele>54.4</ele>
        <time>2020-07-10T10:27:27Z</time>
      </trkpt>
      <trkpt lat="47.78187" lon="-3.45901">
        <ele>54.19</ele>
        <time>2020-07-10T10:27:28Z</time>
      </trkpt>
      <trkpt lat="47.7819" lon="-3.459">
        <ele>54.02</ele>
        <time>2020-07-10T10:27:29Z</time>
      </trkpt>
      <trkpt lat="47.78192" lon="-3.45899">
        <ele>53.86</ele>
        <time>2020-07-10T10:27:30Z</time>
      </trkpt>
      <trkpt lat="47.78195" lon="-3.45898">
        <ele>53.71</ele>
        <time>2020-07-10T10:27:31Z</time>
      </trkpt>
      <trkpt lat="47.78201" lon="-3.45897">
        <ele>53.52</ele>
        <time>2020-07-10T10:27:32Z</time>
      </trkpt>
      <trkpt lat="47.78206" lon="-3.45894">
        <ele>53.39</ele>
        <time>2020-07-10T10:27:33Z</time>
      </trkpt>
      <trkpt lat="47.78209" lon="-3.45892">
        <ele>53.34</ele>
        <time>2020-07-10T10:27:34Z</time>
      </trkpt>
      <trkpt lat="47.78213" lon="-3.4589">
        <ele>53.3</ele>
        <time>2020-07-10T10:27:35Z</time>
      </trkpt>
      <trkpt lat="47.78217" lon="-3.45884">
        <ele>53.34</ele>
        <time>2020-07-10T10:27:36Z</time>
      </trkpt>
      <trkpt lat="47.78219" lon="-3.45881">
        <ele>53.38</ele>
        <time>2020-07-10T10:27:37Z</time>
      </trkpt>
      <trkpt lat="47.78222" lon="-3.45878">
        <ele>53.42</ele>
        <time>2020-07-10T10:27:38Z</time>
      </trkpt>
      <trkpt lat="47.78224" lon="-3.45875">
        <ele>53.36</ele>
        <time>2020-07-10T10:27:39Z</time>
      </trkpt>
      <trkpt lat="47.78227" lon="-3.45871">
        <ele>53.25</ele>
        <time>2020-07-10T10:27:40Z</time>
      </trkpt>
      <trkpt lat="47.7823" lon="-3.45869">
        <ele>53.1</ele>
        <time>2020-07-10T10:27:41Z</time>
      </trkpt>
      <trkpt lat="47.78233" lon="-3.45867">
        <ele>52.98</ele>
        <time>2020-07-10T10:27:42Z</time>
      </trkpt>
      <trkpt lat="47.78236" lon="-3.45865">
        <ele>52.87</ele>
        <time>2020-07-10T10:27:43Z</time>
      </trkpt>
      <trkpt lat="47.78238" lon="-3.45862">
        <ele>52.86</ele>
        <time>2020-07-10T10:27:44Z</time>
      </trkpt>
      <trkpt lat="47.78239" lon="-3.45859">
        <ele>52.83</ele>
        <time>2020-07-10T10:27:45Z</time>
      </trkpt>
      <trkpt lat="47.78242" lon="-3.45851">
        <ele>52.64</ele>
        <time>2020-07-10T10:27:46Z</time>
      </trkpt>
      <trkpt lat="47.78243" lon="-3.45847">
        <ele>52.56</ele>
        <time>2020-07-10T10:27:47Z</time>
      </trkpt>
      <trkpt lat="47.78243" lon="-3.45844">
        <ele>52.53</ele>
        <time>2020-07-10T10:27:48Z</time>
      </trkpt>
      <trkpt lat="47.78243" lon="-3.45839">
        <ele>52.52</ele>
        <time>2020-07-10T10:27:49Z</time>
      </trkpt>
      <trkpt lat="47.78244" lon="-3.45835">
        <ele>52.48</ele>
        <time>2020-07-10T10:27:50Z</time>
      </trkpt>
      <trkpt lat="47.78244" lon="-3.45831">
        <ele>52.5</ele>
        <time>2020-07-10T10:27:51Z</time>
      </trkpt>
      <trkpt lat="47.78244" lon="-3.45827">
        <ele>52.58</ele>
        <time>2020-07-10T10:27:52Z</time>
      </trkpt>
      <trkpt lat="47.78245" lon="-3.45821">
        <ele>52.69</ele>
        <time>2020-07-10T10:27:53Z</time>
      </trkpt>
      <trkpt lat="47.78246" lon="-3.45816">
        <ele>52.78</ele>
        <time>2020-07-10T10:27:54Z</time>
      </trkpt>
      <trkpt lat="47.78249" lon="-3.45808">
        <ele>52.9</ele>
        <time>2020-07-10T10:27:55Z</time>
      </trkpt>
      <trkpt lat="47.7825" lon="-3.45803">
        <ele>52.98</ele>
        <time>2020-07-10T10:27:56Z</time>
      </trkpt>
      <trkpt lat="47.78252" lon="-3.45796">
        <ele>52.85</ele>
        <time>2020-07-10T10:27:57Z</time>
      </trkpt>
      <trkpt lat="47.78253" lon="-3.45791">
        <ele>52.73</ele>
        <time>2020-07-10T10:27:58Z</time>
      </trkpt>
      <trkpt lat="47.78254" lon="-3.45787">
        <ele>52.65</ele>
        <time>2020-07-10T10:27:59Z</time>
      </trkpt>
      <trkpt lat="47.78253" lon="-3.45784">
        <ele>52.69</ele>
        <time>2020-07-10T10:28:00Z</time>
      </trkpt>
      <trkpt lat="47.78252" lon="-3.4578">
        <ele>52.78</ele>
        <time>2020-07-10T10:28:01Z</time>
      </trkpt>
      <trkpt lat="47.78251" lon="-3.45774">
        <ele>52.76</ele>
        <time>2020-07-10T10:28:02Z</time>
      </trkpt>
      <trkpt lat="47.78251" lon="-3.45767">
        <ele>52.6</ele>
        <time>2020-07-10T10:28:03Z</time>
      </trkpt>
      <trkpt lat="47.78251" lon="-3.45762">
        <ele>52.43</ele>
        <time>2020-07-10T10:28:04Z</time>
      </trkpt>
      <trkpt lat="47.7825" lon="-3.45758">
        <ele>52.32</ele>
        <time>2020-07-10T10:28:05Z</time>
      </trkpt>
      <trkpt lat="47.78249" lon="-3.45755">
        <ele>52.24</ele>
        <time>2020-07-10T10:28:06Z</time>
      </trkpt>
      <trkpt lat="47.78248" lon="-3.45751">
        <ele>52.16</ele>
        <time>2020-07-10T10:28:07Z</time>
      </trkpt>
      <trkpt lat="47.78246" lon="-3.45749">
        <ele>52.13</ele>
        <time>2020-07-10T10:28:08Z</time>
      </trkpt>
      <trkpt lat="47.78244" lon="-3.45747">
        <ele>52.1</ele>
        <time>2020-07-10T10:28:09Z</time>
      </trkpt>
      <trkpt lat="47.78242" lon="-3.45742">
        <ele>52.03</ele>
        <time>2020-07-10T10:28:10Z</time>
      </trkpt>
      <trkpt lat="47.78241" lon="-3.45738">
        <ele>51.92</ele>
        <time>2020-07-10T10:28:11Z</time>
      </trkpt>
      <trkpt lat="47.7824" lon="-3.45734">
        <ele>51.82</ele>
        <time>2020-07-10T10:28:12Z</time>
      </trkpt>
      <trkpt lat="47.7824" lon="-3.45731">
        <ele>51.72</ele>
        <time>2020-07-10T10:28:13Z</time>
      </trkpt>
      <trkpt lat="47.7824" lon="-3.45726">
        <ele>51.56</ele>
        <time>2020-07-10T10:28:14Z</time>
      </trkpt>
      <trkpt lat="47.78241" lon="-3.45722">
        <ele>51.4</ele>
        <time>2020-07-10T10:28:15Z</time>
      </trkpt>
      <trkpt lat="47.78241" lon="-3.45716">
        <ele>51.24</ele>
        <time>2020-07-10T10:28:16Z</time>
      </trkpt>
      <trkpt lat="47.78241" lon="-3.4571">
        <ele>51.11</ele>
        <time>2020-07-10T10:28:17Z</time>
      </trkpt>
      <trkpt lat="47.7824" lon="-3.45703">
        <ele>50.98</ele>
        <time>2020-07-10T10:28:18Z</time>
      </trkpt>
      <trkpt lat="47.78238" lon="-3.45699">
        <ele>50.94</ele>
        <time>2020-07-10T10:28:19Z</time>
      </trkpt>
      <trkpt lat="47.78236" lon="-3.45695">
        <ele>50.99</ele>
        <time>2020-07-10T10:28:20Z</time>
      </trkpt>
      <trkpt lat="47.78235" lon="-3.45691">
        <ele>51.04</ele>
        <time>2020-07-10T10:28:21Z</time>
      </trkpt>
      <trkpt lat="47.78234" lon="-3.45686">
        <ele>51.04</ele>
        <time>2020-07-10T10:28:22Z</time>
      </trkpt>
      <trkpt lat="47.78232" lon="-3.4568">
        <ele>51.07</ele>
        <time>2020-07-10T10:28:23Z</time>
      </trkpt>
      <trkpt lat="47.78232" lon="-3.45674">
        <ele>51.05</ele>
        <time>2020-07-10T10:28:24Z</time>
      </trkpt>
      <trkpt lat="47.78233" lon="-3.45669">
        <ele>50.95</ele>
        <time>2020-07-10T10:28:25Z</time>
      </trkpt>
      <trkpt lat="47.78233" lon="-3.45664">
        <ele>50.81</ele>
        <time>2020-07-10T10:28:26Z</time>
      </trkpt>
      <trkpt lat="47.78234" lon="-3.4566">
        <ele>50.64</ele>
        <time>2020-07-10T10:28:27Z</time>
      </trkpt>
      <trkpt lat="47.78236" lon="-3.45656">
        <ele>50.43</ele>
        <time>2020-07-10T10:28:28Z</time>
      </trkpt>
      <trkpt lat="47.78238" lon="-3.45651">
        <ele>50.14</ele>
        <time>2020-07-10T10:28:29Z</time>
      </trkpt>
      <trkpt lat="47.78241" lon="-3.45646">
        <ele>49.87</ele>
        <time>2020-07-10T10:28:30Z</time>
      </trkpt>
      <trkpt lat="47.78242" lon="-3.45642">
        <ele>49.7</ele>
        <time>2020-07-10T10:28:31Z</time>
      </trkpt>
      <trkpt lat="47.78241" lon="-3.45637">
        <ele>49.64</ele>
        <time>2020-07-10T10:28:32Z</time>
      </trkpt>
      <trkpt lat="47.78241" lon="-3.4563">
        <ele>49.54</ele>
        <time>2020-07-10T10:28:33Z</time>
      </trkpt>
      <trkpt lat="47.78241" lon="-3.45622">
        <ele>49.47</ele>
        <time>2020-07-10T10:28:34Z</time>
      </trkpt>
      <trkpt lat="47.7824" lon="-3.45616">
        <ele>49.47</ele>
        <time>2020-07-10T10:28:35Z</time>
      </trkpt>
      <trkpt lat="47.78239" lon="-3.45612">
        <ele>49.52</ele>
        <time>2020-07-10T10:28:36Z</time>
      </trkpt>
      <trkpt lat="47.7824" lon="-3.45608">
        <ele>49.46</ele>
        <time>2020-07-10T10:28:37Z</time>
      </trkpt>
      <trkpt lat="47.78241" lon="-3.45603">
        <ele>49.28</ele>
        <time>2020-07-10T10:28:38Z</time>
      </trkpt>
      <trkpt lat="47.78242" lon="-3.45599">
        <ele>49.15</ele>
        <time>2020-07-10T10:28:39Z</time>
      </trkpt>
      <trkpt lat="47.78241" lon="-3.45593">
        <ele>49.12</ele>
        <time>2020-07-10T10:28:40Z</time>
      </trkpt>
      <trkpt lat="47.7824" lon="-3.45588">
        <ele>49.12</ele>
        <time>2020-07-10T10:28:41Z</time>
      </trkpt>
      <trkpt lat="47.78238" lon="-3.45583">
        <ele>49.21</ele>
        <time>2020-07-10T10:28:42Z</time>
      </trkpt>
      <trkpt lat="47.78237" lon="-3.45577">
        <ele>49.34</ele>
        <time>2020-07-10T10:28:43Z</time>
      </trkpt>
      <trkpt lat="47.78235" lon="-3.45571">
        <ele>49.54</ele>
        <time>2020-07-10T10:28:44Z</time>
      </trkpt>
      <trkpt lat="47.78234" lon="-3.45565">
        <ele>49.71</ele>
        <time>2020-07-10T10:28:45Z</time>
      </trkpt>
      <trkpt lat="47.78233" lon="-3.4556">
        <ele>49.82</ele>
        <time>2020-07-10T10:28:46Z</time>
      </trkpt>
      <trkpt lat="47.78232" lon="-3.45555">
        <ele>49.91</ele>
        <time>2020-07-10T10:28:47Z</time>
      </trkpt>
      <trkpt lat="47.78232" lon="-3.45551">
        <ele>49.96</ele>
        <time>2020-07-10T10:28:48Z</time>
      </trkpt>
      <trkpt lat="47.78232" lon="-3.45546">
        <ele>50.09</ele>
        <time>2020-07-10T10:28:49Z</time>
      </trkpt>
      <trkpt lat="47.78232" lon="-3.45541">
        <ele>50.24</ele>
        <time>2020-07-10T10:28:50Z</time>
      </trkpt>
      <trkpt lat="47.78232" lon="-3.45537">
        <ele>50.38</ele>
        <time>2020-07-10T10:28:51Z</time>
      </trkpt>
      <trkpt lat="47.78233" lon="-3.45534">
        <ele>50.36</ele>
        <time>2020-07-10T10:28:52Z</time>
      </trkpt>
      <trkpt lat="47.78235" lon="-3.45531">
        <ele>50.22</ele>
        <time>2020-07-10T10:28:53Z</time>
      </trkpt>
      <trkpt lat="47.78236" lon="-3.45527">
        <ele>50.12</ele>
        <time>2020-07-10T10:28:54Z</time>
      </trkpt>
      <trkpt lat="47.78236" lon="-3.45522">
        <ele>50.08</ele>
        <time>2020-07-10T10:28:55Z</time>
      </trkpt>
      <trkpt lat="47.78237" lon="-3.45516">
        <ele>50.08</ele>
        <time>2020-07-10T10:28:56Z</time>
      </trkpt>
      <trkpt lat="47.78238" lon="-3.45511">
        <ele>50.08</ele>
        <time>2020-07-10T10:28:57Z</time>
      </trkpt>
      <trkpt lat="47.78237" lon="-3.45507">
        <ele>50.19</ele>
        <time>2020-07-10T10:28:58Z</time>
      </trkpt>
      <trkpt lat="47.78238" lon="-3.45503">
        <ele>50.19</ele>
        <time>2020-07-10T10:28:59Z</time>
      </trkpt>
      <trkpt lat="47.7824" lon="-3.45499">
        <ele>50.17</ele>
        <time>2020-07-10T10:29:00Z</time>
      </trkpt>
      <trkpt lat="47.78241" lon="-3.45495">
        <ele>50.22</ele>
        <time>2020-07-10T10:29:01Z</time>
      </trkpt>
      <trkpt lat="47.78242" lon="-3.4549">
        <ele>50.4</ele>
        <time>2020-07-10T10:29:02Z</time>
      </trkpt>
      <trkpt lat="47.78242" lon="-3.45486">
        <ele>50.63</ele>
        <time>2020-07-10T10:29:03Z</time>
      </trkpt>
      <trkpt lat="47.78242" lon="-3.45484">
        <ele>50.79</ele>
        <time>2020-07-10T10:29:04Z</time>
      </trkpt>
      <trkpt lat="47.78242" lon="-3.45481">
        <ele>50.95</ele>
        <time>2020-07-10T10:29:05Z</time>
      </trkpt>
      <trkpt lat="47.78243" lon="-3.45476">
        <ele>51.17</ele>
        <time>2020-07-10T10:29:06Z</time>
      </trkpt>
      <trkpt lat="47.78244" lon="-3.45471">
        <ele>51.41</ele>
        <time>2020-07-10T10:29:07Z</time>
      </trkpt>
      <trkpt lat="47.78245" lon="-3.45466">
        <ele>51.59</ele>
        <time>2020-07-10T10:29:08Z</time>
      </trkpt>
      <trkpt lat="47.78245" lon="-3.45462">
        <ele>51.71</ele>
        <time>2020-07-10T10:29:09Z</time>
      </trkpt>
      <trkpt lat="47.78246" lon="-3.45458">
        <ele>51.81</ele>
        <time>2020-07-10T10:29:10Z</time>
      </trkpt>
      <trkpt lat="47.78248" lon="-3.45454">
        <ele>51.85</ele>
        <time>2020-07-10T10:29:11Z</time>
      </trkpt>
      <trkpt lat="47.78249" lon="-3.4545">
        <ele>51.9</ele>
        <time>2020-07-10T10:29:12Z</time>
      </trkpt>
      <trkpt lat="47.7825" lon="-3.45446">
        <ele>51.93</ele>
        <time>2020-07-10T10:29:13Z</time>
      </trkpt>
      <trkpt lat="47.78251" lon="-3.45442">
        <ele>51.98</ele>
        <time>2020-07-10T10:29:14Z</time>
      </trkpt>
      <trkpt lat="47.78251" lon="-3.45438">
        <ele>51.99</ele>
        <time>2020-07-10T10:29:15Z</time>
      </trkpt>
      <trkpt lat="47.7825" lon="-3.45433">
        <ele>52.01</ele>
        <time>2020-07-10T10:29:16Z</time>
      </trkpt>
      <trkpt lat="47.78249" lon="-3.45428">
        <ele>52.05</ele>
        <time>2020-07-10T10:29:17Z</time>
      </trkpt>
      <trkpt lat="47.78249" lon="-3.45423">
        <ele>52.11</ele>
        <time>2020-07-10T10:29:18Z</time>
      </trkpt>
      <trkpt lat="47.78248" lon="-3.45417">
        <ele>52.2</ele>
        <time>2020-07-10T10:29:19Z</time>
      </trkpt>
      <trkpt lat="47.78248" lon="-3.45411">
        <ele>52.37</ele>
        <time>2020-07-10T10:29:20Z</time>
      </trkpt>
      <trkpt lat="47.78249" lon="-3.45407">
        <ele>52.48</ele>
        <time>2020-07-10T10:29:21Z</time>
      </trkpt>
      <trkpt lat="47.78249" lon="-3.45402">
        <ele>52.55</ele>
        <time>2020-07-10T10:29:22Z</time>
      </trkpt>
      <trkpt lat="47.7825" lon="-3.45398">
        <ele>52.64</ele>
        <time>2020-07-10T10:29:23Z</time>
      </trkpt>
      <trkpt lat="47.7825" lon="-3.45394">
        <ele>52.76</ele>
        <time>2020-07-10T10:29:24Z</time>
      </trkpt>
      <trkpt lat="47.7825" lon="-3.4539">
        <ele>52.9</ele>
        <time>2020-07-10T10:29:25Z</time>
      </trkpt>
      <trkpt lat="47.7825" lon="-3.45386">
        <ele>53</ele>
        <time>2020-07-10T10:29:26Z</time>
      </trkpt>
      <trkpt lat="47.78249" lon="-3.45382">
        <ele>53.07</ele>
        <time>2020-07-10T10:29:27Z</time>
      </trkpt>
      <trkpt lat="47.78249" lon="-3.45379">
        <ele>53.09</ele>
        <time>2020-07-10T10:29:28Z</time>
      </trkpt>
      <trkpt lat="47.78249" lon="-3.45377">
        <ele>53.11</ele>
        <time>2020-07-10T10:29:29Z</time>
      </trkpt>
      <trkpt lat="47.78248" lon="-3.45374">
        <ele>53.15</ele>
        <time>2020-07-10T10:29:30Z</time>
      </trkpt>
      <trkpt lat="47.78247" lon="-3.45372">
        <ele>53.26</ele>
        <time>2020-07-10T10:29:31Z</time>
      </trkpt>
      <trkpt lat="47.78245" lon="-3.45371">
        <ele>53.42</ele>
        <time>2020-07-10T10:29:32Z</time>
      </trkpt>
      <trkpt lat="47.78244" lon="-3.45369">
        <ele>53.59</ele>
        <time>2020-07-10T10:29:33Z</time>
      </trkpt>
      <trkpt lat="47.78241" lon="-3.45367">
        <ele>53.85</ele>
        <time>2020-07-10T10:29:34Z</time>
      </trkpt>
      <trkpt lat="47.78239" lon="-3.45366">
        <ele>54.06</ele>
        <time>2020-07-10T10:29:35Z</time>
      </trkpt>
      <trkpt lat="47.78236" lon="-3.45364">
        <ele>54.34</ele>
        <time>2020-07-10T10:29:36Z</time>
      </trkpt>
      <trkpt lat="47.78234" lon="-3.45362">
        <ele>54.6</ele>
        <time>2020-07-10T10:29:37Z</time>
      </trkpt>
      <trkpt lat="47.78232" lon="-3.45361">
        <ele>54.82</ele>
        <time>2020-07-10T10:29:38Z</time>
      </trkpt>
      <trkpt lat="47.78228" lon="-3.45358">
        <ele>55.16</ele>
        <time>2020-07-10T10:29:39Z</time>
      </trkpt>
      <trkpt lat="47.78224" lon="-3.45355">
        <ele>55.46</ele>
        <time>2020-07-10T10:29:40Z</time>
      </trkpt>
      <trkpt lat="47.78222" lon="-3.45354">
        <ele>55.67</ele>
        <time>2020-07-10T10:29:41Z</time>
      </trkpt>
      <trkpt lat="47.78219" lon="-3.45354">
        <ele>55.81</ele>
        <time>2020-07-10T10:29:42Z</time>
      </trkpt>
      <trkpt lat="47.78216" lon="-3.45352">
        <ele>55.87</ele>
        <time>2020-07-10T10:29:43Z</time>
      </trkpt>
      <trkpt lat="47.78214" lon="-3.45351">
        <ele>55.9</ele>
        <time>2020-07-10T10:29:44Z</time>
      </trkpt>
      <trkpt lat="47.78212" lon="-3.45349">
        <ele>55.91</ele>
        <time>2020-07-10T10:29:45Z</time>
      </trkpt>
      <trkpt lat="47.78212" lon="-3.45347">
        <ele>55.88</ele>
        <time>2020-07-10T10:29:46Z</time>
      </trkpt>
      <trkpt lat="47.78211" lon="-3.45347">
        <ele>55.89</ele>
        <time>2020-07-10T10:29:47Z</time>
      </trkpt>
      <trkpt lat="47.78208" lon="-3.45344">
        <ele>55.89</ele>
        <time>2020-07-10T10:29:48Z</time>
      </trkpt>
      <trkpt lat="47.78206" lon="-3.45341">
        <ele>55.86</ele>
        <time>2020-07-10T10:29:49Z</time>
      </trkpt>
      <trkpt lat="47.78202" lon="-3.4534">
        <ele>55.95</ele>
        <time>2020-07-10T10:29:50Z</time>
      </trkpt>
      <trkpt lat="47.78199" lon="-3.45339">
        <ele>56.03</ele>
        <time>2020-07-10T10:29:51Z</time>
      </trkpt>
      <trkpt lat="47.78195" lon="-3.45339">
        <ele>56.12</ele>
        <time>2020-07-10T10:29:52Z</time>
      </trkpt>
      <trkpt lat="47.78192" lon="-3.45338">
        <ele>56.2</ele>
        <time>2020-07-10T10:29:53Z</time>
      </trkpt>
      <trkpt lat="47.7819" lon="-3.45337">
        <ele>56.25</ele>
        <time>2020-07-10T10:29:54Z</time>
      </trkpt>
      <trkpt lat="47.78187" lon="-3.45336">
        <ele>56.33</ele>
        <time>2020-07-10T10:29:55Z</time>
      </trkpt>
      <trkpt lat="47.78184" lon="-3.45335">
        <ele>56.41</ele>
        <time>2020-07-10T10:29:56Z</time>
      </trkpt>
      <trkpt lat="47.7818" lon="-3.45334">
        <ele>56.5</ele>
        <time>2020-07-10T10:29:57Z</time>
      </trkpt>
      <trkpt lat="47.78177" lon="-3.45334">
        <ele>56.59</ele>
        <time>2020-07-10T10:29:58Z</time>
      </trkpt>
      <trkpt lat="47.78174" lon="-3.45333">
        <ele>56.7</ele>
        <time>2020-07-10T10:29:59Z</time>
      </trkpt>
      <trkpt lat="47.78171" lon="-3.45332">
        <ele>56.8</ele>
        <time>2020-07-10T10:30:00Z</time>
      </trkpt>
      <trkpt lat="47.78168" lon="-3.45331">
        <ele>56.92</ele>
        <time>2020-07-10T10:30:01Z</time>
      </trkpt>
      <trkpt lat="47.78164" lon="-3.45329">
        <ele>57.05</ele>
        <time>2020-07-10T10:30:02Z</time>
      </trkpt>
      <trkpt lat="47.78161" lon="-3.45326">
        <ele>57.16</ele>
        <time>2020-07-10T10:30:03Z</time>
      </trkpt>
      <trkpt lat="47.78158" lon="-3.45323">
        <ele>57.28</ele>
        <time>2020-07-10T10:30:04Z</time>
      </trkpt>
      <trkpt lat="47.78154" lon="-3.4532">
        <ele>57.39</ele>
        <time>2020-07-10T10:30:05Z</time>
      </trkpt>
      <trkpt lat="47.78152" lon="-3.45317">
        <ele>57.5</ele>
        <time>2020-07-10T10:30:06Z</time>
      </trkpt>
      <trkpt lat="47.78149" lon="-3.45316">
        <ele>57.59</ele>
        <time>2020-07-10T10:30:07Z</time>
      </trkpt>
      <trkpt lat="47.78146" lon="-3.45313">
        <ele>57.69</ele>
        <time>2020-07-10T10:30:08Z</time>
      </trkpt>
      <trkpt lat="47.78144" lon="-3.45311">
        <ele>57.77</ele>
        <time>2020-07-10T10:30:09Z</time>
      </trkpt>
      <trkpt lat="47.78142" lon="-3.4531">
        <ele>57.86</ele>
        <time>2020-07-10T10:30:10Z</time>
      </trkpt>
      <trkpt lat="47.78138" lon="-3.45309">
        <ele>57.96</ele>
        <time>2020-07-10T10:30:11Z</time>
      </trkpt>
      <trkpt lat="47.78134" lon="-3.45308">
        <ele>57.99</ele>
        <time>2020-07-10T10:30:12Z</time>
      </trkpt>
      <trkpt lat="47.7813" lon="-3.45306">
        <ele>58</ele>
        <time>2020-07-10T10:30:13Z</time>
      </trkpt>
      <trkpt lat="47.78126" lon="-3.45303">
        <ele>57.97</ele>
        <time>2020-07-10T10:30:14Z</time>
      </trkpt>
      <trkpt lat="47.78123" lon="-3.453">
        <ele>57.93</ele>
        <time>2020-07-10T10:30:15Z</time>
      </trkpt>
      <trkpt lat="47.7812" lon="-3.45299">
        <ele>57.92</ele>
        <time>2020-07-10T10:30:16Z</time>
      </trkpt>
      <trkpt lat="47.78117" lon="-3.45296">
        <ele>57.92</ele>
        <time>2020-07-10T10:30:17Z</time>
      </trkpt>
      <trkpt lat="47.78114" lon="-3.45293">
        <ele>57.94</ele>
        <time>2020-07-10T10:30:18Z</time>
      </trkpt>
      <trkpt lat="47.78111" lon="-3.4529">
        <ele>57.99</ele>
        <time>2020-07-10T10:30:19Z</time>
      </trkpt>
      <trkpt lat="47.78107" lon="-3.45289">
        <ele>58.16</ele>
        <time>2020-07-10T10:30:20Z</time>
      </trkpt>
      <trkpt lat="47.78103" lon="-3.45286">
        <ele>58.38</ele>
        <time>2020-07-10T10:30:21Z</time>
      </trkpt>
      <trkpt lat="47.781" lon="-3.45283">
        <ele>58.63</ele>
        <time>2020-07-10T10:30:22Z</time>
      </trkpt>
      <trkpt lat="47.78096" lon="-3.4528">
        <ele>58.92</ele>
        <time>2020-07-10T10:30:23Z</time>
      </trkpt>
      <trkpt lat="47.78093" lon="-3.45276">
        <ele>59.18</ele>
        <time>2020-07-10T10:30:24Z</time>
      </trkpt>
      <trkpt lat="47.78089" lon="-3.45273">
        <ele>59.37</ele>
        <time>2020-07-10T10:30:25Z</time>
      </trkpt>
      <trkpt lat="47.78085" lon="-3.4527">
        <ele>59.54</ele>
        <time>2020-07-10T10:30:26Z</time>
      </trkpt>
      <trkpt lat="47.78082" lon="-3.45268">
        <ele>59.62</ele>
        <time>2020-07-10T10:30:27Z</time>
      </trkpt>
      <trkpt lat="47.78079" lon="-3.45266">
        <ele>59.63</ele>
        <time>2020-07-10T10:30:28Z</time>
      </trkpt>
      <trkpt lat="47.78075" lon="-3.45261">
        <ele>59.59</ele>
        <time>2020-07-10T10:30:29Z</time>
      </trkpt>
      <trkpt lat="47.78072" lon="-3.45258">
        <ele>59.58</ele>
        <time>2020-07-10T10:30:30Z</time>
      </trkpt>
      <trkpt lat="47.78069" lon="-3.45254">
        <ele>59.58</ele>
        <time>2020-07-10T10:30:31Z</time>
      </trkpt>
      <trkpt lat="47.78065" lon="-3.45249">
        <ele>59.62</ele>
        <time>2020-07-10T10:30:32Z</time>
      </trkpt>
      <trkpt lat="47.78063" lon="-3.45244">
        <ele>59.7</ele>
        <time>2020-07-10T10:30:33Z</time>
      </trkpt>
      <trkpt lat="47.78061" lon="-3.4524">
        <ele>59.78</ele>
        <time>2020-07-10T10:30:34Z</time>
      </trkpt>
      <trkpt lat="47.78058" lon="-3.45236">
        <ele>59.86</ele>
        <time>2020-07-10T10:30:35Z</time>
      </trkpt>
      <trkpt lat="47.78057" lon="-3.45232">
        <ele>59.93</ele>
        <time>2020-07-10T10:30:36Z</time>
      </trkpt>
      <trkpt lat="47.78054" lon="-3.45227">
        <ele>59.98</ele>
        <time>2020-07-10T10:30:37Z</time>
      </trkpt>
      <trkpt lat="47.78052" lon="-3.45223">
        <ele>59.99</ele>
        <time>2020-07-10T10:30:38Z</time>
      </trkpt>
      <trkpt lat="47.78052" lon="-3.45219">
        <ele>60</ele>
        <time>2020-07-10T10:30:39Z</time>
      </trkpt>
      <trkpt lat="47.78052" lon="-3.45215">
        <ele>60</ele>
        <time>2020-07-10T10:30:40Z</time>
      </trkpt>
      <trkpt lat="47.78053" lon="-3.45211">
        <ele>60</ele>
        <time>2020-07-10T10:30:41Z</time>
      </trkpt>
      <trkpt lat="47.78055" lon="-3.45207">
        <ele>60</ele>
        <time>2020-07-10T10:30:42Z</time>
      </trkpt>
      <trkpt lat="47.78058" lon="-3.45204">
        <ele>59.95</ele>
        <time>2020-07-10T10:30:43Z</time>
      </trkpt>
      <trkpt lat="47.7806" lon="-3.452">
        <ele>59.88</ele>
        <time>2020-07-10T10:30:44Z</time>
      </trkpt>
      <trkpt lat="47.78061" lon="-3.45195">
        <ele>59.81</ele>
        <time>2020-07-10T10:30:45Z</time>
      </trkpt>
      <trkpt lat="47.78064" lon="-3.4519">
        <ele>59.69</ele>
        <time>2020-07-10T10:30:46Z</time>
      </trkpt>
      <trkpt lat="47.78067" lon="-3.45185">
        <ele>59.52</ele>
        <time>2020-07-10T10:30:47Z</time>
      </trkpt>
      <trkpt lat="47.78069" lon="-3.45181">
        <ele>59.34</ele>
        <time>2020-07-10T10:30:48Z</time>
      </trkpt>
      <trkpt lat="47.78071" lon="-3.45176">
        <ele>59.15</ele>
        <time>2020-07-10T10:30:49Z</time>
      </trkpt>
      <trkpt lat="47.78072" lon="-3.45171">
        <ele>58.96</ele>
        <time>2020-07-10T10:30:50Z</time>
      </trkpt>
      <trkpt lat="47.78074" lon="-3.45166">
        <ele>58.78</ele>
        <time>2020-07-10T10:30:51Z</time>
      </trkpt>
      <trkpt lat="47.78074" lon="-3.45161">
        <ele>58.7</ele>
        <time>2020-07-10T10:30:52Z</time>
      </trkpt>
      <trkpt lat="47.78075" lon="-3.45156">
        <ele>58.65</ele>
        <time>2020-07-10T10:30:53Z</time>
      </trkpt>
      <trkpt lat="47.78075" lon="-3.45151">
        <ele>58.59</ele>
        <time>2020-07-10T10:30:54Z</time>
      </trkpt>
      <trkpt lat="47.78077" lon="-3.45144">
        <ele>58.5</ele>
        <time>2020-07-10T10:30:55Z</time>
      </trkpt>
      <trkpt lat="47.78078" lon="-3.45138">
        <ele>58.45</ele>
        <time>2020-07-10T10:30:56Z</time>
      </trkpt>
      <trkpt lat="47.78078" lon="-3.45133">
        <ele>58.52</ele>
        <time>2020-07-10T10:30:57Z</time>
      </trkpt>
      <trkpt lat="47.7808" lon="-3.45126">
        <ele>58.6</ele>
        <time>2020-07-10T10:30:58Z</time>
      </trkpt>
      <trkpt lat="47.78081" lon="-3.4512">
        <ele>58.72</ele>
        <time>2020-07-10T10:30:59Z</time>
      </trkpt>
      <trkpt lat="47.78084" lon="-3.45113">
        <ele>58.84</ele>
        <time>2020-07-10T10:31:00Z</time>
      </trkpt>
      <trkpt lat="47.78087" lon="-3.45108">
        <ele>58.86</ele>
        <time>2020-07-10T10:31:01Z</time>
      </trkpt>
      <trkpt lat="47.78092" lon="-3.45104">
        <ele>58.8</ele>
        <time>2020-07-10T10:31:02Z</time>
      </trkpt>
      <trkpt lat="47.78097" lon="-3.45102">
        <ele>58.72</ele>
        <time>2020-07-10T10:31:03Z</time>
      </trkpt>
      <trkpt lat="47.78101" lon="-3.45099">
        <ele>58.67</ele>
        <time>2020-07-10T10:31:04Z</time>
      </trkpt>
      <trkpt lat="47.78106" lon="-3.45096">
        <ele>58.64</ele>
        <time>2020-07-10T10:31:05Z</time>
      </trkpt>
      <trkpt lat="47.78111" lon="-3.45095">
        <ele>58.6</ele>
        <time>2020-07-10T10:31:06Z</time>
      </trkpt>
      <trkpt lat="47.78115" lon="-3.45094">
        <ele>58.61</ele>
        <time>2020-07-10T10:31:07Z</time>
      </trkpt>
      <trkpt lat="47.7812" lon="-3.45093">
        <ele>58.64</ele>
        <time>2020-07-10T10:31:08Z</time>
      </trkpt>
      <trkpt lat="47.78124" lon="-3.45092">
        <ele>58.67</ele>
        <time>2020-07-10T10:31:09Z</time>
      </trkpt>
      <trkpt lat="47.78128" lon="-3.45091">
        <ele>58.71</ele>
        <time>2020-07-10T10:31:10Z</time>
      </trkpt>
      <trkpt lat="47.78133" lon="-3.4509">
        <ele>58.74</ele>
        <time>2020-07-10T10:31:11Z</time>
      </trkpt>
      <trkpt lat="47.78137" lon="-3.45089">
        <ele>58.77</ele>
        <time>2020-07-10T10:31:12Z</time>
      </trkpt>
      <trkpt lat="47.7814" lon="-3.45089">
        <ele>58.76</ele>
        <time>2020-07-10T10:31:13Z</time>
      </trkpt>
      <trkpt lat="47.78145" lon="-3.45087">
        <ele>58.7</ele>
        <time>2020-07-10T10:31:14Z</time>
      </trkpt>
      <trkpt lat="47.78149" lon="-3.45086">
        <ele>58.61</ele>
        <time>2020-07-10T10:31:15Z</time>
      </trkpt>
      <trkpt lat="47.78154" lon="-3.45084">
        <ele>58.5</ele>
        <time>2020-07-10T10:31:16Z</time>
      </trkpt>
      <trkpt lat="47.78158" lon="-3.45083">
        <ele>58.37</ele>
        <time>2020-07-10T10:31:17Z</time>
      </trkpt>
      <trkpt lat="47.78163" lon="-3.45082">
        <ele>58.25</ele>
        <time>2020-07-10T10:31:18Z</time>
      </trkpt>
      <trkpt lat="47.78168" lon="-3.45081">
        <ele>58.16</ele>
        <time>2020-07-10T10:31:19Z</time>
      </trkpt>
      <trkpt lat="47.78172" lon="-3.45079">
        <ele>58.29</ele>
        <time>2020-07-10T10:31:20Z</time>
      </trkpt>
      <trkpt lat="47.78177" lon="-3.45078">
        <ele>58.48</ele>
        <time>2020-07-10T10:31:21Z</time>
      </trkpt>
      <trkpt lat="47.78182" lon="-3.45077">
        <ele>58.69</ele>
        <time>2020-07-10T10:31:22Z</time>
      </trkpt>
      <trkpt lat="47.78186" lon="-3.45076">
        <ele>58.89</ele>
        <time>2020-07-10T10:31:23Z</time>
      </trkpt>
      <trkpt lat="47.78191" lon="-3.45075">
        <ele>59.1</ele>
        <time>2020-07-10T10:31:24Z</time>
      </trkpt>
      <trkpt lat="47.78196" lon="-3.45074">
        <ele>59.27</ele>
        <time>2020-07-10T10:31:25Z</time>
      </trkpt>
      <trkpt lat="47.78201" lon="-3.45072">
        <ele>59.36</ele>
        <time>2020-07-10T10:31:26Z</time>
      </trkpt>
      <trkpt lat="47.78206" lon="-3.4507">
        <ele>59.43</ele>
        <time>2020-07-10T10:31:27Z</time>
      </trkpt>
      <trkpt lat="47.78211" lon="-3.4507">
        <ele>59.45</ele>
        <time>2020-07-10T10:31:28Z</time>
      </trkpt>
      <trkpt lat="47.78216" lon="-3.45071">
        <ele>59.46</ele>
        <time>2020-07-10T10:31:29Z</time>
      </trkpt>
      <trkpt lat="47.78221" lon="-3.4507">
        <ele>59.46</ele>
        <time>2020-07-10T10:31:30Z</time>
      </trkpt>
      <trkpt lat="47.78226" lon="-3.4507">
        <ele>59.46</ele>
        <time>2020-07-10T10:31:31Z</time>
      </trkpt>
      <trkpt lat="47.7823" lon="-3.4507">
        <ele>59.47</ele>
        <time>2020-07-10T10:31:32Z</time>
      </trkpt>
      <trkpt lat="47.78236" lon="-3.4507">
        <ele>59.49</ele>
        <time>2020-07-10T10:31:33Z</time>
      </trkpt>
      <trkpt lat="47.7824" lon="-3.4507">
        <ele>59.49</ele>
        <time>2020-07-10T10:31:34Z</time>
      </trkpt>
      <trkpt lat="47.78245" lon="-3.45069">
        <ele>59.5</ele>
        <time>2020-07-10T10:31:35Z</time>
      </trkpt>
      <trkpt lat="47.78249" lon="-3.45069">
        <ele>59.52</ele>
        <time>2020-07-10T10:31:36Z</time>
      </trkpt>
      <trkpt lat="47.78254" lon="-3.45067">
        <ele>59.56</ele>
        <time>2020-07-10T10:31:37Z</time>
      </trkpt>
      <trkpt lat="47.78259" lon="-3.45067">
        <ele>59.59</ele>
        <time>2020-07-10T10:31:38Z</time>
      </trkpt>
      <trkpt lat="47.78264" lon="-3.45066">
        <ele>59.61</ele>
        <time>2020-07-10T10:31:39Z</time>
      </trkpt>
      <trkpt lat="47.78269" lon="-3.45066">
        <ele>59.62</ele>
        <time>2020-07-10T10:31:40Z</time>
      </trkpt>
      <trkpt lat="47.78274" lon="-3.45066">
        <ele>59.63</ele>
        <time>2020-07-10T10:31:41Z</time>
      </trkpt>
      <trkpt lat="47.78279" lon="-3.45065">
        <ele>59.68</ele>
        <time>2020-07-10T10:31:42Z</time>
      </trkpt>
      <trkpt lat="47.78285" lon="-3.45065">
        <ele>59.84</ele>
        <time>2020-07-10T10:31:43Z</time>
      </trkpt>
      <trkpt lat="47.7829" lon="-3.45064">
        <ele>60.04</ele>
        <time>2020-07-10T10:31:44Z</time>
      </trkpt>
      <trkpt lat="47.78296" lon="-3.45065">
        <ele>60.23</ele>
        <time>2020-07-10T10:31:45Z</time>
      </trkpt>
      <trkpt lat="47.78301" lon="-3.45064">
        <ele>60.43</ele>
        <time>2020-07-10T10:31:46Z</time>
      </trkpt>
      <trkpt lat="47.78306" lon="-3.45063">
        <ele>60.63</ele>
        <time>2020-07-10T10:31:47Z</time>
      </trkpt>
      <trkpt lat="47.78311" lon="-3.45062">
        <ele>60.73</ele>
        <time>2020-07-10T10:31:48Z</time>
      </trkpt>
      <trkpt lat="47.78316" lon="-3.4506">
        <ele>60.8</ele>
        <time>2020-07-10T10:31:49Z</time>
      </trkpt>
      <trkpt lat="47.78321" lon="-3.45059">
        <ele>60.86</ele>
        <time>2020-07-10T10:31:50Z</time>
      </trkpt>
      <trkpt lat="47.78326" lon="-3.45057">
        <ele>60.91</ele>
        <time>2020-07-10T10:31:51Z</time>
      </trkpt>
      <trkpt lat="47.78331" lon="-3.45055">
        <ele>60.97</ele>
        <time>2020-07-10T10:31:52Z</time>
      </trkpt>
      <trkpt lat="47.78336" lon="-3.45051">
        <ele>60.94</ele>
        <time>2020-07-10T10:31:53Z</time>
      </trkpt>
      <trkpt lat="47.78341" lon="-3.45048">
        <ele>60.85</ele>
        <time>2020-07-10T10:31:54Z</time>
      </trkpt>
      <trkpt lat="47.78345" lon="-3.45044">
        <ele>60.78</ele>
        <time>2020-07-10T10:31:55Z</time>
      </trkpt>
      <trkpt lat="47.78349" lon="-3.45041">
        <ele>60.75</ele>
        <time>2020-07-10T10:31:56Z</time>
      </trkpt>
      <trkpt lat="47.78353" lon="-3.45037">
        <ele>60.76</ele>
        <time>2020-07-10T10:31:57Z</time>
      </trkpt>
      <trkpt lat="47.78356" lon="-3.45035">
        <ele>60.78</ele>
        <time>2020-07-10T10:31:58Z</time>
      </trkpt>
      <trkpt lat="47.78361" lon="-3.45032">
        <ele>60.83</ele>
        <time>2020-07-10T10:31:59Z</time>
      </trkpt>
      <trkpt lat="47.78365" lon="-3.45029">
        <ele>60.92</ele>
        <time>2020-07-10T10:32:00Z</time>
      </trkpt>
      <trkpt lat="47.78369" lon="-3.45027">
        <ele>61.01</ele>
        <time>2020-07-10T10:32:01Z</time>
      </trkpt>
      <trkpt lat="47.78373" lon="-3.45022">
        <ele>61.15</ele>
        <time>2020-07-10T10:32:02Z</time>
      </trkpt>
      <trkpt lat="47.78376" lon="-3.45018">
        <ele>61.29</ele>
        <time>2020-07-10T10:32:03Z</time>
      </trkpt>
      <trkpt lat="47.7838" lon="-3.45013">
        <ele>61.46</ele>
        <time>2020-07-10T10:32:04Z</time>
      </trkpt>
      <trkpt lat="47.78384" lon="-3.45009">
        <ele>61.61</ele>
        <time>2020-07-10T10:32:05Z</time>
      </trkpt>
      <trkpt lat="47.78387" lon="-3.45004">
        <ele>61.77</ele>
        <time>2020-07-10T10:32:06Z</time>
      </trkpt>
      <trkpt lat="47.7839" lon="-3.45">
        <ele>61.93</ele>
        <time>2020-07-10T10:32:07Z</time>
      </trkpt>
      <trkpt lat="47.78394" lon="-3.44996">
        <ele>62</ele>
        <time>2020-07-10T10:32:08Z</time>
      </trkpt>
      <trkpt lat="47.78399" lon="-3.44991">
        <ele>62.08</ele>
        <time>2020-07-10T10:32:09Z</time>
      </trkpt>
      <trkpt lat="47.78402" lon="-3.44987">
        <ele>62.18</ele>
        <time>2020-07-10T10:32:10Z</time>
      </trkpt>
      <trkpt lat="47.78406" lon="-3.44983">
        <ele>62.31</ele>
        <time>2020-07-10T10:32:11Z</time>
      </trkpt>
      <trkpt lat="47.78409" lon="-3.4498">
        <ele>62.46</ele>
        <time>2020-07-10T10:32:12Z</time>
      </trkpt>
      <trkpt lat="47.78412" lon="-3.44976">
        <ele>62.65</ele>
        <time>2020-07-10T10:32:13Z</time>
      </trkpt>
      <trkpt lat="47.78416" lon="-3.44973">
        <ele>62.87</ele>
        <time>2020-07-10T10:32:14Z</time>
      </trkpt>
      <trkpt lat="47.7842" lon="-3.4497">
        <ele>62.96</ele>
        <time>2020-07-10T10:32:15Z</time>
      </trkpt>
      <trkpt lat="47.78423" lon="-3.44966">
        <ele>62.99</ele>
        <time>2020-07-10T10:32:16Z</time>
      </trkpt>
      <trkpt lat="47.78427" lon="-3.44962">
        <ele>63</ele>
        <time>2020-07-10T10:32:17Z</time>
      </trkpt>
      <trkpt lat="47.78429" lon="-3.44959">
        <ele>63</ele>
        <time>2020-07-10T10:32:18Z</time>
      </trkpt>
      <trkpt lat="47.78432" lon="-3.44955">
        <ele>63</ele>
        <time>2020-07-10T10:32:19Z</time>
      </trkpt>
      <trkpt lat="47.78435" lon="-3.44951">
        <ele>63</ele>
        <time>2020-07-10T10:32:20Z</time>
      </trkpt>
      <trkpt lat="47.78437" lon="-3.44947">
        <ele>63</ele>
        <time>2020-07-10T10:32:21Z</time>
      </trkpt>
      <trkpt lat="47.78438" lon="-3.44942">
        <ele>62.93</ele>
        <time>2020-07-10T10:32:22Z</time>
      </trkpt>
      <trkpt lat="47.78439" lon="-3.44936">
        <ele>62.77</ele>
        <time>2020-07-10T10:32:23Z</time>
      </trkpt>
      <trkpt lat="47.7844" lon="-3.44931">
        <ele>62.6</ele>
        <time>2020-07-10T10:32:24Z</time>
      </trkpt>
      <trkpt lat="47.78439" lon="-3.44925">
        <ele>62.39</ele>
        <time>2020-07-10T10:32:25Z</time>
      </trkpt>
      <trkpt lat="47.78439" lon="-3.44918">
        <ele>62.15</ele>
        <time>2020-07-10T10:32:26Z</time>
      </trkpt>
      <trkpt lat="47.7844" lon="-3.44911">
        <ele>62.05</ele>
        <time>2020-07-10T10:32:27Z</time>
      </trkpt>
      <trkpt lat="47.78442" lon="-3.44903">
        <ele>62.01</ele>
        <time>2020-07-10T10:32:28Z</time>
      </trkpt>
      <trkpt lat="47.78444" lon="-3.44895">
        <ele>62</ele>
        <time>2020-07-10T10:32:29Z</time>
      </trkpt>
      <trkpt lat="47.78447" lon="-3.44887">
        <ele>61.96</ele>
        <time>2020-07-10T10:32:30Z</time>
      </trkpt>
      <trkpt lat="47.78451" lon="-3.44881">
        <ele>61.78</ele>
        <time>2020-07-10T10:32:31Z</time>
      </trkpt>
      <trkpt lat="47.78454" lon="-3.44875">
        <ele>61.59</ele>
        <time>2020-07-10T10:32:32Z</time>
      </trkpt>
      <trkpt lat="47.78458" lon="-3.44871">
        <ele>61.42</ele>
        <time>2020-07-10T10:32:33Z</time>
      </trkpt>
      <trkpt lat="47.78462" lon="-3.44867">
        <ele>61.27</ele>
        <time>2020-07-10T10:32:34Z</time>
      </trkpt>
      <trkpt lat="47.78465" lon="-3.44863">
        <ele>61.14</ele>
        <time>2020-07-10T10:32:35Z</time>
      </trkpt>
      <trkpt lat="47.78469" lon="-3.44859">
        <ele>61.04</ele>
        <time>2020-07-10T10:32:36Z</time>
      </trkpt>
      <trkpt lat="47.78473" lon="-3.44855">
        <ele>61.03</ele>
        <time>2020-07-10T10:32:37Z</time>
      </trkpt>
      <trkpt lat="47.78477" lon="-3.4485">
        <ele>61.13</ele>
        <time>2020-07-10T10:32:38Z</time>
      </trkpt>
      <trkpt lat="47.78481" lon="-3.44845">
        <ele>61.27</ele>
        <time>2020-07-10T10:32:39Z</time>
      </trkpt>
      <trkpt lat="47.78486" lon="-3.4484">
        <ele>61.43</ele>
        <time>2020-07-10T10:32:40Z</time>
      </trkpt>
      <trkpt lat="47.78491" lon="-3.44835">
        <ele>61.6</ele>
        <time>2020-07-10T10:32:41Z</time>
      </trkpt>
      <trkpt lat="47.78496" lon="-3.4483">
        <ele>61.68</ele>
        <time>2020-07-10T10:32:42Z</time>
      </trkpt>
      <trkpt lat="47.78501" lon="-3.44825">
        <ele>61.72</ele>
        <time>2020-07-10T10:32:43Z</time>
      </trkpt>
      <trkpt lat="47.78506" lon="-3.4482">
        <ele>61.8</ele>
        <time>2020-07-10T10:32:44Z</time>
      </trkpt>
      <trkpt lat="47.78511" lon="-3.44816">
        <ele>61.96</ele>
        <time>2020-07-10T10:32:45Z</time>
      </trkpt>
      <trkpt lat="47.78516" lon="-3.44813">
        <ele>62.18</ele>
        <time>2020-07-10T10:32:46Z</time>
      </trkpt>
      <trkpt lat="47.78522" lon="-3.4481">
        <ele>62.48</ele>
        <time>2020-07-10T10:32:47Z</time>
      </trkpt>
      <trkpt lat="47.78528" lon="-3.44807">
        <ele>62.84</ele>
        <time>2020-07-10T10:32:48Z</time>
      </trkpt>
      <trkpt lat="47.78533" lon="-3.44805">
        <ele>63.09</ele>
        <time>2020-07-10T10:32:49Z</time>
      </trkpt>
      <trkpt lat="47.7854" lon="-3.44804">
        <ele>63.33</ele>
        <time>2020-07-10T10:32:50Z</time>
      </trkpt>
      <trkpt lat="47.78545" lon="-3.44804">
        <ele>63.54</ele>
        <time>2020-07-10T10:32:51Z</time>
      </trkpt>
      <trkpt lat="47.78551" lon="-3.44802">
        <ele>63.75</ele>
        <time>2020-07-10T10:32:52Z</time>
      </trkpt>
      <trkpt lat="47.78557" lon="-3.448">
        <ele>63.93</ele>
        <time>2020-07-10T10:32:53Z</time>
      </trkpt>
      <trkpt lat="47.78562" lon="-3.44798">
        <ele>63.98</ele>
        <time>2020-07-10T10:32:54Z</time>
      </trkpt>
      <trkpt lat="47.78568" lon="-3.44796">
        <ele>63.99</ele>
        <time>2020-07-10T10:32:55Z</time>
      </trkpt>
      <trkpt lat="47.78574" lon="-3.44795">
        <ele>64</ele>
        <time>2020-07-10T10:32:56Z</time>
      </trkpt>
      <trkpt lat="47.7858" lon="-3.44793">
        <ele>64</ele>
        <time>2020-07-10T10:32:57Z</time>
      </trkpt>
      <trkpt lat="47.78586" lon="-3.44791">
        <ele>63.97</ele>
        <time>2020-07-10T10:32:58Z</time>
      </trkpt>
      <trkpt lat="47.78591" lon="-3.4479">
        <ele>63.91</ele>
        <time>2020-07-10T10:32:59Z</time>
      </trkpt>
      <trkpt lat="47.78596" lon="-3.44788">
        <ele>63.86</ele>
        <time>2020-07-10T10:33:00Z</time>
      </trkpt>
      <trkpt lat="47.78601" lon="-3.44784">
        <ele>63.86</ele>
        <time>2020-07-10T10:33:01Z</time>
      </trkpt>
      <trkpt lat="47.78606" lon="-3.4478">
        <ele>63.92</ele>
        <time>2020-07-10T10:33:02Z</time>
      </trkpt>
      <trkpt lat="47.7861" lon="-3.44775">
        <ele>63.9</ele>
        <time>2020-07-10T10:33:03Z</time>
      </trkpt>
      <trkpt lat="47.78615" lon="-3.44769">
        <ele>63.61</ele>
        <time>2020-07-10T10:33:04Z</time>
      </trkpt>
      <trkpt lat="47.7862" lon="-3.44764">
        <ele>63.32</ele>
        <time>2020-07-10T10:33:05Z</time>
      </trkpt>
      <trkpt lat="47.78624" lon="-3.44758">
        <ele>63.11</ele>
        <time>2020-07-10T10:33:06Z</time>
      </trkpt>
      <trkpt lat="47.78629" lon="-3.44752">
        <ele>63.02</ele>
        <time>2020-07-10T10:33:07Z</time>
      </trkpt>
      <trkpt lat="47.78633" lon="-3.44746">
        <ele>63</ele>
        <time>2020-07-10T10:33:08Z</time>
      </trkpt>
      <trkpt lat="47.78638" lon="-3.4474">
        <ele>63</ele>
        <time>2020-07-10T10:33:09Z</time>
      </trkpt>
      <trkpt lat="47.78643" lon="-3.44734">
        <ele>62.86</ele>
        <time>2020-07-10T10:33:10Z</time>
      </trkpt>
      <trkpt lat="47.78648" lon="-3.44728">
        <ele>62.69</ele>
        <time>2020-07-10T10:33:11Z</time>
      </trkpt>
      <trkpt lat="47.78652" lon="-3.44724">
        <ele>62.56</ele>
        <time>2020-07-10T10:33:12Z</time>
      </trkpt>
      <trkpt lat="47.78657" lon="-3.44719">
        <ele>62.41</ele>
        <time>2020-07-10T10:33:13Z</time>
      </trkpt>
      <trkpt lat="47.78664" lon="-3.44716">
        <ele>62.19</ele>
        <time>2020-07-10T10:33:14Z</time>
      </trkpt>
      <trkpt lat="47.78671" lon="-3.44713">
        <ele>61.76</ele>
        <time>2020-07-10T10:33:15Z</time>
      </trkpt>
      <trkpt lat="47.78679" lon="-3.44711">
        <ele>61.1</ele>
        <time>2020-07-10T10:33:16Z</time>
      </trkpt>
      <trkpt lat="47.78688" lon="-3.44711">
        <ele>60.32</ele>
        <time>2020-07-10T10:33:17Z</time>
      </trkpt>
      <trkpt lat="47.78698" lon="-3.44711">
        <ele>59.53</ele>
        <time>2020-07-10T10:33:18Z</time>
      </trkpt>
      <trkpt lat="47.78707" lon="-3.44711">
        <ele>58.82</ele>
        <time>2020-07-10T10:33:19Z</time>
      </trkpt>
      <trkpt lat="47.78715" lon="-3.44711">
        <ele>58.18</ele>
        <time>2020-07-10T10:33:20Z</time>
      </trkpt>
      <trkpt lat="47.78723" lon="-3.44712">
        <ele>57.56</ele>
        <time>2020-07-10T10:33:21Z</time>
      </trkpt>
      <trkpt lat="47.7873" lon="-3.44715">
        <ele>56.92</ele>
        <time>2020-07-10T10:33:22Z</time>
      </trkpt>
      <trkpt lat="47.78736" lon="-3.44716">
        <ele>56.35</ele>
        <time>2020-07-10T10:33:23Z</time>
      </trkpt>
      <trkpt lat="47.78741" lon="-3.44716">
        <ele>55.93</ele>
        <time>2020-07-10T10:33:24Z</time>
      </trkpt>
      <trkpt lat="47.78746" lon="-3.44712">
        <ele>55.55</ele>
        <time>2020-07-10T10:33:25Z</time>
      </trkpt>
      <trkpt lat="47.7875" lon="-3.44706">
        <ele>55.2</ele>
        <time>2020-07-10T10:33:26Z</time>
      </trkpt>
      <trkpt lat="47.78752" lon="-3.44699">
        <ele>54.95</ele>
        <time>2020-07-10T10:33:27Z</time>
      </trkpt>
      <trkpt lat="47.78753" lon="-3.4469">
        <ele>54.73</ele>
        <time>2020-07-10T10:33:28Z</time>
      </trkpt>
      <trkpt lat="47.78752" lon="-3.44682">
        <ele>54.47</ele>
        <time>2020-07-10T10:33:29Z</time>
      </trkpt>
      <trkpt lat="47.78752" lon="-3.44673">
        <ele>54.23</ele>
        <time>2020-07-10T10:33:30Z</time>
      </trkpt>
      <trkpt lat="47.78751" lon="-3.44665">
        <ele>54.03</ele>
        <time>2020-07-10T10:33:31Z</time>
      </trkpt>
      <trkpt lat="47.7875" lon="-3.44657">
        <ele>54.02</ele>
        <time>2020-07-10T10:33:32Z</time>
      </trkpt>
      <trkpt lat="47.7875" lon="-3.44648">
        <ele>54.04</ele>
        <time>2020-07-10T10:33:33Z</time>
      </trkpt>
      <trkpt lat="47.7875" lon="-3.44639">
        <ele>54.02</ele>
        <time>2020-07-10T10:33:34Z</time>
      </trkpt>
      <trkpt lat="47.7875" lon="-3.4463">
        <ele>53.79</ele>
        <time>2020-07-10T10:33:35Z</time>
      </trkpt>
      <trkpt lat="47.7875" lon="-3.4462">
        <ele>53.47</ele>
        <time>2020-07-10T10:33:36Z</time>
      </trkpt>
      <trkpt lat="47.7875" lon="-3.4461">
        <ele>53.09</ele>
        <time>2020-07-10T10:33:37Z</time>
      </trkpt>
      <trkpt lat="47.78751" lon="-3.446">
        <ele>52.72</ele>
        <time>2020-07-10T10:33:38Z</time>
      </trkpt>
      <trkpt lat="47.78751" lon="-3.4459">
        <ele>52.36</ele>
        <time>2020-07-10T10:33:39Z</time>
      </trkpt>
      <trkpt lat="47.7875" lon="-3.44581">
        <ele>52.09</ele>
        <time>2020-07-10T10:33:40Z</time>
      </trkpt>
      <trkpt lat="47.7875" lon="-3.4457">
        <ele>52.03</ele>
        <time>2020-07-10T10:33:41Z</time>
      </trkpt>
      <trkpt lat="47.7875" lon="-3.4456">
        <ele>52</ele>
        <time>2020-07-10T10:33:42Z</time>
      </trkpt>
      <trkpt lat="47.78751" lon="-3.4455">
        <ele>51.83</ele>
        <time>2020-07-10T10:33:43Z</time>
      </trkpt>
      <trkpt lat="47.78753" lon="-3.4454">
        <ele>51.53</ele>
        <time>2020-07-10T10:33:44Z</time>
      </trkpt>
      <trkpt lat="47.78755" lon="-3.44531">
        <ele>51.22</ele>
        <time>2020-07-10T10:33:45Z</time>
      </trkpt>
      <trkpt lat="47.78757" lon="-3.44522">
        <ele>51.07</ele>
        <time>2020-07-10T10:33:46Z</time>
      </trkpt>
      <trkpt lat="47.7876" lon="-3.44513">
        <ele>51.02</ele>
        <time>2020-07-10T10:33:47Z</time>
      </trkpt>
      <trkpt lat="47.78763" lon="-3.44504">
        <ele>51.01</ele>
        <time>2020-07-10T10:33:48Z</time>
      </trkpt>
      <trkpt lat="47.78766" lon="-3.44495">
        <ele>50.95</ele>
        <time>2020-07-10T10:33:49Z</time>
      </trkpt>
      <trkpt lat="47.78769" lon="-3.44486">
        <ele>50.88</ele>
        <time>2020-07-10T10:33:50Z</time>
      </trkpt>
      <trkpt lat="47.78773" lon="-3.44478">
        <ele>50.86</ele>
        <time>2020-07-10T10:33:51Z</time>
      </trkpt>
      <trkpt lat="47.78776" lon="-3.4447">
        <ele>50.85</ele>
        <time>2020-07-10T10:33:52Z</time>
      </trkpt>
      <trkpt lat="47.78779" lon="-3.44462">
        <ele>50.69</ele>
        <time>2020-07-10T10:33:53Z</time>
      </trkpt>
      <trkpt lat="47.78782" lon="-3.44454">
        <ele>50.44</ele>
        <time>2020-07-10T10:33:54Z</time>
      </trkpt>
      <trkpt lat="47.78786" lon="-3.44446">
        <ele>50.17</ele>
        <time>2020-07-10T10:33:55Z</time>
      </trkpt>
      <trkpt lat="47.78789" lon="-3.44439">
        <ele>49.99</ele>
        <time>2020-07-10T10:33:56Z</time>
      </trkpt>
      <trkpt lat="47.78793" lon="-3.44431">
        <ele>49.81</ele>
        <time>2020-07-10T10:33:57Z</time>
      </trkpt>
      <trkpt lat="47.78797" lon="-3.44424">
        <ele>49.58</ele>
        <time>2020-07-10T10:33:58Z</time>
      </trkpt>
      <trkpt lat="47.78802" lon="-3.44416">
        <ele>49.26</ele>
        <time>2020-07-10T10:33:59Z</time>
      </trkpt>
      <trkpt lat="47.78807" lon="-3.44409">
        <ele>49.08</ele>
        <time>2020-07-10T10:34:00Z</time>
      </trkpt>
      <trkpt lat="47.78812" lon="-3.44401">
        <ele>49.02</ele>
        <time>2020-07-10T10:34:01Z</time>
      </trkpt>
      <trkpt lat="47.78816" lon="-3.44394">
        <ele>49.01</ele>
        <time>2020-07-10T10:34:02Z</time>
      </trkpt>
      <trkpt lat="47.78819" lon="-3.44387">
        <ele>49.07</ele>
        <time>2020-07-10T10:34:03Z</time>
      </trkpt>
      <trkpt lat="47.78822" lon="-3.44381">
        <ele>49.39</ele>
        <time>2020-07-10T10:34:04Z</time>
      </trkpt>
      <trkpt lat="47.78824" lon="-3.44376">
        <ele>49.78</ele>
        <time>2020-07-10T10:34:05Z</time>
      </trkpt>
      <trkpt lat="47.78825" lon="-3.44372">
        <ele>50.16</ele>
        <time>2020-07-10T10:34:06Z</time>
      </trkpt>
      <trkpt lat="47.78826" lon="-3.4437">
        <ele>50.44</ele>
        <time>2020-07-10T10:34:07Z</time>
      </trkpt>
      <trkpt lat="47.78827" lon="-3.44369">
        <ele>50.58</ele>
        <time>2020-07-10T10:34:08Z</time>
      </trkpt>
      <trkpt lat="47.78828" lon="-3.44369">
        <ele>50.68</ele>
        <time>2020-07-10T10:34:09Z</time>
      </trkpt>
      <trkpt lat="47.78829" lon="-3.4437">
        <ele>50.75</ele>
        <time>2020-07-10T10:34:10Z</time>
      </trkpt>
      <trkpt lat="47.7883" lon="-3.4437">
        <ele>50.81</ele>
        <time>2020-07-10T10:34:11Z</time>
      </trkpt>
      <trkpt lat="47.78832" lon="-3.4437">
        <ele>50.91</ele>
        <time>2020-07-10T10:34:12Z</time>
      </trkpt>
      <trkpt lat="47.78833" lon="-3.44369">
        <ele>51.07</ele>
        <time>2020-07-10T10:34:13Z</time>
      </trkpt>
      <trkpt lat="47.78835" lon="-3.44368">
        <ele>51.21</ele>
        <time>2020-07-10T10:34:14Z</time>
      </trkpt>
      <trkpt lat="47.78836" lon="-3.44368">
        <ele>51.32</ele>
        <time>2020-07-10T10:34:15Z</time>
      </trkpt>
      <trkpt lat="47.78838" lon="-3.44368">
        <ele>51.37</ele>
        <time>2020-07-10T10:34:16Z</time>
      </trkpt>
      <trkpt lat="47.7884" lon="-3.44368">
        <ele>51.38</ele>
        <time>2020-07-10T10:34:17Z</time>
      </trkpt>
      <trkpt lat="47.78841" lon="-3.4437">
        <ele>51.34</ele>
        <time>2020-07-10T10:34:18Z</time>
      </trkpt>
      <trkpt lat="47.78844" lon="-3.44371">
        <ele>51.32</ele>
        <time>2020-07-10T10:34:19Z</time>
      </trkpt>
      <trkpt lat="47.78848" lon="-3.44372">
        <ele>51.38</ele>
        <time>2020-07-10T10:34:20Z</time>
      </trkpt>
      <trkpt lat="47.78851" lon="-3.44373">
        <ele>51.48</ele>
        <time>2020-07-10T10:34:21Z</time>
      </trkpt>
      <trkpt lat="47.78854" lon="-3.44374">
        <ele>51.6</ele>
        <time>2020-07-10T10:34:22Z</time>
      </trkpt>
      <trkpt lat="47.78858" lon="-3.44374">
        <ele>51.75</ele>
        <time>2020-07-10T10:34:23Z</time>
      </trkpt>
      <trkpt lat="47.78861" lon="-3.44375">
        <ele>51.92</ele>
        <time>2020-07-10T10:34:24Z</time>
      </trkpt>
      <trkpt lat="47.78864" lon="-3.44376">
        <ele>51.98</ele>
        <time>2020-07-10T10:34:25Z</time>
      </trkpt>
      <trkpt lat="47.78868" lon="-3.44376">
        <ele>51.99</ele>
        <time>2020-07-10T10:34:26Z</time>
      </trkpt>
      <trkpt lat="47.78872" lon="-3.44377">
        <ele>52</ele>
        <time>2020-07-10T10:34:27Z</time>
      </trkpt>
      <trkpt lat="47.78876" lon="-3.44377">
        <ele>52</ele>
        <time>2020-07-10T10:34:28Z</time>
      </trkpt>
      <trkpt lat="47.78879" lon="-3.44377">
        <ele>52</ele>
        <time>2020-07-10T10:34:29Z</time>
      </trkpt>
      <trkpt lat="47.78882" lon="-3.44378">
        <ele>52</ele>
        <time>2020-07-10T10:34:30Z</time>
      </trkpt>
      <trkpt lat="47.78885" lon="-3.44378">
        <ele>52</ele>
        <time>2020-07-10T10:34:31Z</time>
      </trkpt>
      <trkpt lat="47.78888" lon="-3.44378">
        <ele>52</ele>
        <time>2020-07-10T10:34:32Z</time>
      </trkpt>
      <trkpt lat="47.78891" lon="-3.44378">
        <ele>52</ele>
        <time>2020-07-10T10:34:33Z</time>
      </trkpt>
      <trkpt lat="47.78894" lon="-3.44379">
        <ele>52</ele>
        <time>2020-07-10T10:34:34Z</time>
      </trkpt>
      <trkpt lat="47.78898" lon="-3.4438">
        <ele>52</ele>
        <time>2020-07-10T10:34:35Z</time>
      </trkpt>
      <trkpt lat="47.78901" lon="-3.44381">
        <ele>52</ele>
        <time>2020-07-10T10:34:36Z</time>
      </trkpt>
      <trkpt lat="47.78905" lon="-3.44382">
        <ele>52</ele>
        <time>2020-07-10T10:34:37Z</time>
      </trkpt>
      <trkpt lat="47.7891" lon="-3.44382">
        <ele>52</ele>
        <time>2020-07-10T10:34:38Z</time>
      </trkpt>
      <trkpt lat="47.78914" lon="-3.44381">
        <ele>52</ele>
        <time>2020-07-10T10:34:39Z</time>
      </trkpt>
      <trkpt lat="47.78918" lon="-3.4438">
        <ele>52</ele>
        <time>2020-07-10T10:34:40Z</time>
      </trkpt>
      <trkpt lat="47.78922" lon="-3.44378">
        <ele>52</ele>
        <time>2020-07-10T10:34:41Z</time>
      </trkpt>
      <trkpt lat="47.78926" lon="-3.44377">
        <ele>52</ele>
        <time>2020-07-10T10:34:42Z</time>
      </trkpt>
      <trkpt lat="47.78929" lon="-3.44373">
        <ele>52</ele>
        <time>2020-07-10T10:34:43Z</time>
      </trkpt>
      <trkpt lat="47.78931" lon="-3.44368">
        <ele>52</ele>
        <time>2020-07-10T10:34:44Z</time>
      </trkpt>
      <trkpt lat="47.78932" lon="-3.44363">
        <ele>52</ele>
        <time>2020-07-10T10:34:45Z</time>
      </trkpt>
      <trkpt lat="47.78934" lon="-3.44359">
        <ele>51.96</ele>
        <time>2020-07-10T10:34:46Z</time>
      </trkpt>
      <trkpt lat="47.78935" lon="-3.44354">
        <ele>51.87</ele>
        <time>2020-07-10T10:34:47Z</time>
      </trkpt>
      <trkpt lat="47.78935" lon="-3.44349">
        <ele>51.76</ele>
        <time>2020-07-10T10:34:48Z</time>
      </trkpt>
      <trkpt lat="47.78935" lon="-3.44345">
        <ele>51.67</ele>
        <time>2020-07-10T10:34:49Z</time>
      </trkpt>
      <trkpt lat="47.78934" lon="-3.44341">
        <ele>51.58</ele>
        <time>2020-07-10T10:34:50Z</time>
      </trkpt>
      <trkpt lat="47.78934" lon="-3.44338">
        <ele>51.51</ele>
        <time>2020-07-10T10:34:51Z</time>
      </trkpt>
      <trkpt lat="47.78935" lon="-3.44336">
        <ele>51.43</ele>
        <time>2020-07-10T10:34:52Z</time>
      </trkpt>
      <trkpt lat="47.78937" lon="-3.44336">
        <ele>51.36</ele>
        <time>2020-07-10T10:34:53Z</time>
      </trkpt>
      <trkpt lat="47.7894" lon="-3.44338">
        <ele>51.31</ele>
        <time>2020-07-10T10:34:54Z</time>
      </trkpt>
      <trkpt lat="47.78943" lon="-3.44339">
        <ele>51.26</ele>
        <time>2020-07-10T10:34:55Z</time>
      </trkpt>
      <trkpt lat="47.78947" lon="-3.4434">
        <ele>51.24</ele>
        <time>2020-07-10T10:34:56Z</time>
      </trkpt>
      <trkpt lat="47.78951" lon="-3.44341">
        <ele>51.26</ele>
        <time>2020-07-10T10:34:57Z</time>
      </trkpt>
      <trkpt lat="47.78955" lon="-3.44341">
        <ele>51.28</ele>
        <time>2020-07-10T10:34:58Z</time>
      </trkpt>
      <trkpt lat="47.78959" lon="-3.44343">
        <ele>51.32</ele>
        <time>2020-07-10T10:34:59Z</time>
      </trkpt>
      <trkpt lat="47.78963" lon="-3.44344">
        <ele>51.38</ele>
        <time>2020-07-10T10:35:00Z</time>
      </trkpt>
      <trkpt lat="47.78966" lon="-3.44347">
        <ele>51.45</ele>
        <time>2020-07-10T10:35:01Z</time>
      </trkpt>
      <trkpt lat="47.7897" lon="-3.44348">
        <ele>51.49</ele>
        <time>2020-07-10T10:35:02Z</time>
      </trkpt>
      <trkpt lat="47.78974" lon="-3.44349">
        <ele>51.53</ele>
        <time>2020-07-10T10:35:03Z</time>
      </trkpt>
      <trkpt lat="47.78977" lon="-3.44349">
        <ele>51.56</ele>
        <time>2020-07-10T10:35:04Z</time>
      </trkpt>
      <trkpt lat="47.78981" lon="-3.4435">
        <ele>51.58</ele>
        <time>2020-07-10T10:35:05Z</time>
      </trkpt>
      <trkpt lat="47.78984" lon="-3.4435">
        <ele>51.6</ele>
        <time>2020-07-10T10:35:06Z</time>
      </trkpt>
      <trkpt lat="47.78988" lon="-3.44351">
        <ele>51.61</ele>
        <time>2020-07-10T10:35:07Z</time>
      </trkpt>
      <trkpt lat="47.78992" lon="-3.44351">
        <ele>51.64</ele>
        <time>2020-07-10T10:35:08Z</time>
      </trkpt>
      <trkpt lat="47.78997" lon="-3.44352">
        <ele>51.67</ele>
        <time>2020-07-10T10:35:09Z</time>
      </trkpt>
      <trkpt lat="47.79002" lon="-3.44352">
        <ele>51.69</ele>
        <time>2020-07-10T10:35:10Z</time>
      </trkpt>
      <trkpt lat="47.79005" lon="-3.44351">
        <ele>51.71</ele>
        <time>2020-07-10T10:35:11Z</time>
      </trkpt>
      <trkpt lat="47.79009" lon="-3.44351">
        <ele>51.74</ele>
        <time>2020-07-10T10:35:12Z</time>
      </trkpt>
      <trkpt lat="47.79013" lon="-3.44351">
        <ele>51.78</ele>
        <time>2020-07-10T10:35:13Z</time>
      </trkpt>
      <trkpt lat="47.79017" lon="-3.44351">
        <ele>51.83</ele>
        <time>2020-07-10T10:35:14Z</time>
      </trkpt>
      <trkpt lat="47.79022" lon="-3.44351">
        <ele>51.89</ele>
        <time>2020-07-10T10:35:15Z</time>
      </trkpt>
      <trkpt lat="47.79025" lon="-3.44351">
        <ele>51.94</ele>
        <time>2020-07-10T10:35:16Z</time>
      </trkpt>
      <trkpt lat="47.79029" lon="-3.44352">
        <ele>52</ele>
        <time>2020-07-10T10:35:17Z</time>
      </trkpt>
      <trkpt lat="47.79032" lon="-3.44352">
        <ele>52.08</ele>
        <time>2020-07-10T10:35:18Z</time>
      </trkpt>
      <trkpt lat="47.79036" lon="-3.44352">
        <ele>52.17</ele>
        <time>2020-07-10T10:35:19Z</time>
      </trkpt>
      <trkpt lat="47.7904" lon="-3.44352">
        <ele>52.27</ele>
        <time>2020-07-10T10:35:20Z</time>
      </trkpt>
      <trkpt lat="47.79045" lon="-3.44352">
        <ele>52.38</ele>
        <time>2020-07-10T10:35:21Z</time>
      </trkpt>
      <trkpt lat="47.79049" lon="-3.44353">
        <ele>52.49</ele>
        <time>2020-07-10T10:35:22Z</time>
      </trkpt>
      <trkpt lat="47.79053" lon="-3.44352">
        <ele>52.58</ele>
        <time>2020-07-10T10:35:23Z</time>
      </trkpt>
      <trkpt lat="47.79057" lon="-3.44352">
        <ele>52.46</ele>
        <time>2020-07-10T10:35:24Z</time>
      </trkpt>
      <trkpt lat="47.79062" lon="-3.44352">
        <ele>51.96</ele>
        <time>2020-07-10T10:35:25Z</time>
      </trkpt>
      <trkpt lat="47.79066" lon="-3.44351">
        <ele>51.32</ele>
        <time>2020-07-10T10:35:26Z</time>
      </trkpt>
      <trkpt lat="47.7907" lon="-3.4435">
        <ele>50.62</ele>
        <time>2020-07-10T10:35:27Z</time>
      </trkpt>
      <trkpt lat="47.79075" lon="-3.44348">
        <ele>49.84</ele>
        <time>2020-07-10T10:35:28Z</time>
      </trkpt>
      <trkpt lat="47.79079" lon="-3.44348">
        <ele>49.06</ele>
        <time>2020-07-10T10:35:29Z</time>
      </trkpt>
      <trkpt lat="47.79083" lon="-3.44347">
        <ele>48.3</ele>
        <time>2020-07-10T10:35:30Z</time>
      </trkpt>
      <trkpt lat="47.79088" lon="-3.44346">
        <ele>48.45</ele>
        <time>2020-07-10T10:35:31Z</time>
      </trkpt>
      <trkpt lat="47.79092" lon="-3.44345">
        <ele>48.89</ele>
        <time>2020-07-10T10:35:32Z</time>
      </trkpt>
      <trkpt lat="47.79097" lon="-3.44344">
        <ele>49.48</ele>
        <time>2020-07-10T10:35:33Z</time>
      </trkpt>
      <trkpt lat="47.79101" lon="-3.44342">
        <ele>50.16</ele>
        <time>2020-07-10T10:35:34Z</time>
      </trkpt>
      <trkpt lat="47.79105" lon="-3.4434">
        <ele>50.95</ele>
        <time>2020-07-10T10:35:35Z</time>
      </trkpt>
      <trkpt lat="47.7911" lon="-3.44339">
        <ele>51.78</ele>
        <time>2020-07-10T10:35:36Z</time>
      </trkpt>
      <trkpt lat="47.79114" lon="-3.44338">
        <ele>52.38</ele>
        <time>2020-07-10T10:35:37Z</time>
      </trkpt>
      <trkpt lat="47.79117" lon="-3.44336">
        <ele>52.76</ele>
        <time>2020-07-10T10:35:38Z</time>
      </trkpt>
      <trkpt lat="47.7912" lon="-3.44335">
        <ele>53.02</ele>
        <time>2020-07-10T10:35:39Z</time>
      </trkpt>
      <trkpt lat="47.79122" lon="-3.44334">
        <ele>53.21</ele>
        <time>2020-07-10T10:35:40Z</time>
      </trkpt>
      <trkpt lat="47.79123" lon="-3.44334">
        <ele>53.32</ele>
        <time>2020-07-10T10:35:41Z</time>
      </trkpt>
      <trkpt lat="47.79123" lon="-3.44334">
        <ele>53.37</ele>
        <time>2020-07-10T10:35:42Z</time>
      </trkpt>
      <trkpt lat="47.79123" lon="-3.44334">
        <ele>53.38</ele>
        <time>2020-07-10T10:35:43Z</time>
      </trkpt>
      <trkpt lat="47.79123" lon="-3.44334">
        <ele>53.4</ele>
        <time>2020-07-10T10:35:44Z</time>
      </trkpt>
      <trkpt lat="47.79123" lon="-3.44334">
        <ele>53.4</ele>
        <time>2020-07-10T10:35:45Z</time>
      </trkpt>
      <trkpt lat="47.79123" lon="-3.44334">
        <ele>53.4</ele>
        <time>2020-07-10T10:35:46Z</time>
      </trkpt>
      <trkpt lat="47.79123" lon="-3.44334">
        <ele>53.4</ele>
        <time>2020-07-10T10:35:47Z</time>
      </trkpt>
      <trkpt lat="47.79123" lon="-3.44334">
        <ele>53.4</ele>
        <time>2020-07-10T10:35:48Z</time>
      </trkpt>
      <trkpt lat="47.79123" lon="-3.44334">
        <ele>53.4</ele>
        <time>2020-07-10T10:35:49Z</time>
      </trkpt>
      <trkpt lat="47.79123" lon="-3.44334">
        <ele>53.4</ele>
        <time>2020-07-10T10:35:50Z</time>
      </trkpt>
      <trkpt lat="47.79123" lon="-3.44334">
        <ele>53.4</ele>
        <time>2020-07-10T10:35:51Z</time>
      </trkpt>
      <trkpt lat="47.79123" lon="-3.44334">
        <ele>53.4</ele>
        <time>2020-07-10T10:35:52Z</time>
      </trkpt>
      <trkpt lat="47.79123" lon="-3.44334">
        <ele>53.4</ele>
        <time>2020-07-10T10:35:53Z</time>
      </trkpt>
      <trkpt lat="47.79123" lon="-3.44334">
        <ele>53.4</ele>
        <time>2020-07-10T10:35:54Z</time>
      </trkpt>
      <trkpt lat="47.79123" lon="-3.44334">
        <ele>53.4</ele>
        <time>2020-07-10T10:35:55Z</time>
      </trkpt>
      <trkpt lat="47.79123" lon="-3.44334">
        <ele>53.4</ele>
        <time>2020-07-10T10:35:56Z</time>
      </trkpt>
      <trkpt lat="47.79123" lon="-3.44334">
        <ele>53.4</ele>
        <time>2020-07-10T10:35:57Z</time>
      </trkpt>
      <trkpt lat="47.79123" lon="-3.44334">
        <ele>53.4</ele>
        <time>2020-07-10T10:35:58Z</time>
      </trkpt>
      <trkpt lat="47.79123" lon="-3.44334">
        <ele>53.4</ele>
        <time>2020-07-10T10:35:59Z</time>
      </trkpt>
      <trkpt lat="47.79123" lon="-3.44334">
        <ele>53.4</ele>
        <time>2020-07-10T10:36:00Z</time>
      </trkpt>
      <trkpt lat="47.79123" lon="-3.44334">
        <ele>53.4</ele>
        <time>2020-07-10T10:36:01Z</time>
      </trkpt>
      <trkpt lat="47.79123" lon="-3.44334">
        <ele>53.4</ele>
        <time>2020-07-10T10:36:02Z</time>
      </trkpt>
      <trkpt lat="47.79123" lon="-3.44334">
        <ele>53.4</ele>
        <time>2020-07-10T10:36:03Z</time>
      </trkpt>
      <trkpt lat="47.79123" lon="-3.44334">
        <ele>53.4</ele>
        <time>2020-07-10T10:36:04Z</time>
      </trkpt>
      <trkpt lat="47.79123" lon="-3.44334">
        <ele>53.4</ele>
        <time>2020-07-10T10:36:05Z</time>
      </trkpt>
      <trkpt lat="47.79123" lon="-3.44334">
        <ele>53.4</ele>
        <time>2020-07-10T10:36:06Z</time>
      </trkpt>
      <trkpt lat="47.79123" lon="-3.44334">
        <ele>53.4</ele>
        <time>2020-07-10T10:36:07Z</time>
      </trkpt>
      <trkpt lat="47.79123" lon="-3.44334">
        <ele>53.4</ele>
        <time>2020-07-10T10:36:08Z</time>
      </trkpt>
      <trkpt lat="47.79123" lon="-3.44334">
        <ele>53.4</ele>
        <time>2020-07-10T10:36:09Z</time>
      </trkpt>
      <trkpt lat="47.79123" lon="-3.44334">
        <ele>53.4</ele>
        <time>2020-07-10T10:36:10Z</time>
      </trkpt>
      <trkpt lat="47.79123" lon="-3.44334">
        <ele>53.4</ele>
        <time>2020-07-10T10:36:11Z</time>
      </trkpt>
      <trkpt lat="47.79123" lon="-3.44334">
        <ele>53.4</ele>
        <time>2020-07-10T10:36:12Z</time>
      </trkpt>
      <trkpt lat="47.79123" lon="-3.44334">
        <ele>53.4</ele>
        <time>2020-07-10T10:36:13Z</time>
      </trkpt>
      <trkpt lat="47.79123" lon="-3.44334">
        <ele>53.4</ele>
        <time>2020-07-10T10:36:14Z</time>
      </trkpt>
      <trkpt lat="47.79123" lon="-3.44334">
        <ele>53.4</ele>
        <time>2020-07-10T10:36:15Z</time>
      </trkpt>
      <trkpt lat="47.79123" lon="-3.44334">
        <ele>53.4</ele>
        <time>2020-07-10T10:36:16Z</time>
      </trkpt>
      <trkpt lat="47.79123" lon="-3.44334">
        <ele>53.4</ele>
        <time>2020-07-10T10:36:17Z</time>
      </trkpt>
      <trkpt lat="47.79123" lon="-3.44334">
        <ele>53.4</ele>
        <time>2020-07-10T10:36:18Z</time>
      </trkpt>
      <trkpt lat="47.79123" lon="-3.44334">
        <ele>53.4</ele>
        <time>2020-07-10T10:36:19Z</time>
      </trkpt>
      <trkpt lat="47.79123" lon="-3.44334">
        <ele>53.4</ele>
        <time>2020-07-10T10:36:20Z</time>
      </trkpt>
      <trkpt lat="47.79123" lon="-3.44334">
        <ele>53.4</ele>
        <time>2020-07-10T10:36:21Z</time>
      </trkpt>
      <trkpt lat="47.7912" lon="-3.44333">
        <ele>53.36</ele>
        <time>2020-07-10T10:36:22Z</time>
      </trkpt>
      <trkpt lat="47.79119" lon="-3.44331">
        <ele>53.36</ele>
        <time>2020-07-10T10:36:23Z</time>
      </trkpt>
      <trkpt lat="47.79119" lon="-3.44328">
        <ele>53.4</ele>
        <time>2020-07-10T10:36:24Z</time>
      </trkpt>
      <trkpt lat="47.79119" lon="-3.44324">
        <ele>53.48</ele>
        <time>2020-07-10T10:36:25Z</time>
      </trkpt>
      <trkpt lat="47.79119" lon="-3.44321">
        <ele>53.58</ele>
        <time>2020-07-10T10:36:26Z</time>
      </trkpt>
      <trkpt lat="47.7912" lon="-3.44317">
        <ele>53.68</ele>
        <time>2020-07-10T10:36:27Z</time>
      </trkpt>
      <trkpt lat="47.79121" lon="-3.44313">
        <ele>53.78</ele>
        <time>2020-07-10T10:36:28Z</time>
      </trkpt>
      <trkpt lat="47.79122" lon="-3.4431">
        <ele>53.87</ele>
        <time>2020-07-10T10:36:29Z</time>
      </trkpt>
      <trkpt lat="47.79124" lon="-3.44306">
        <ele>53.95</ele>
        <time>2020-07-10T10:36:30Z</time>
      </trkpt>
      <trkpt lat="47.79125" lon="-3.44302">
        <ele>53.94</ele>
        <time>2020-07-10T10:36:31Z</time>
      </trkpt>
      <trkpt lat="47.79126" lon="-3.44298">
        <ele>53.88</ele>
        <time>2020-07-10T10:36:32Z</time>
      </trkpt>
      <trkpt lat="47.79126" lon="-3.44293">
        <ele>53.8</ele>
        <time>2020-07-10T10:36:33Z</time>
      </trkpt>
      <trkpt lat="47.79126" lon="-3.44288">
        <ele>53.69</ele>
        <time>2020-07-10T10:36:34Z</time>
      </trkpt>
      <trkpt lat="47.79128" lon="-3.44283">
        <ele>53.57</ele>
        <time>2020-07-10T10:36:35Z</time>
      </trkpt>
      <trkpt lat="47.79128" lon="-3.44277">
        <ele>53.44</ele>
        <time>2020-07-10T10:36:36Z</time>
      </trkpt>
      <trkpt lat="47.79129" lon="-3.44272">
        <ele>53.45</ele>
        <time>2020-07-10T10:36:37Z</time>
      </trkpt>
      <trkpt lat="47.79128" lon="-3.44268">
        <ele>53.51</ele>
        <time>2020-07-10T10:36:38Z</time>
      </trkpt>
      <trkpt lat="47.79127" lon="-3.44264">
        <ele>53.6</ele>
        <time>2020-07-10T10:36:39Z</time>
      </trkpt>
      <trkpt lat="47.79125" lon="-3.44259">
        <ele>53.78</ele>
        <time>2020-07-10T10:36:40Z</time>
      </trkpt>
      <trkpt lat="47.79122" lon="-3.44255">
        <ele>54</ele>
        <time>2020-07-10T10:36:41Z</time>
      </trkpt>
      <trkpt lat="47.7912" lon="-3.44251">
        <ele>54.23</ele>
        <time>2020-07-10T10:36:42Z</time>
      </trkpt>
      <trkpt lat="47.79118" lon="-3.44246">
        <ele>54.43</ele>
        <time>2020-07-10T10:36:43Z</time>
      </trkpt>
      <trkpt lat="47.79117" lon="-3.44241">
        <ele>54.57</ele>
        <time>2020-07-10T10:36:44Z</time>
      </trkpt>
      <trkpt lat="47.79116" lon="-3.44237">
        <ele>54.7</ele>
        <time>2020-07-10T10:36:45Z</time>
      </trkpt>
      <trkpt lat="47.79112" lon="-3.4423">
        <ele>54.87</ele>
        <time>2020-07-10T10:36:46Z</time>
      </trkpt>
      <trkpt lat="47.79108" lon="-3.44222">
        <ele>54.96</ele>
        <time>2020-07-10T10:36:47Z</time>
      </trkpt>
      <trkpt lat="47.79105" lon="-3.44217">
        <ele>55.02</ele>
        <time>2020-07-10T10:36:48Z</time>
      </trkpt>
      <trkpt lat="47.791" lon="-3.44212">
        <ele>55.11</ele>
        <time>2020-07-10T10:36:49Z</time>
      </trkpt>
      <trkpt lat="47.79096" lon="-3.44206">
        <ele>55.26</ele>
        <time>2020-07-10T10:36:50Z</time>
      </trkpt>
      <trkpt lat="47.79093" lon="-3.44199">
        <ele>55.46</ele>
        <time>2020-07-10T10:36:51Z</time>
      </trkpt>
      <trkpt lat="47.79091" lon="-3.44193">
        <ele>55.65</ele>
        <time>2020-07-10T10:36:52Z</time>
      </trkpt>
      <trkpt lat="47.7909" lon="-3.44187">
        <ele>55.73</ele>
        <time>2020-07-10T10:36:53Z</time>
      </trkpt>
      <trkpt lat="47.79089" lon="-3.44181">
        <ele>55.78</ele>
        <time>2020-07-10T10:36:54Z</time>
      </trkpt>
      <trkpt lat="47.79087" lon="-3.44174">
        <ele>55.85</ele>
        <time>2020-07-10T10:36:55Z</time>
      </trkpt>
      <trkpt lat="47.79085" lon="-3.4417">
        <ele>55.91</ele>
        <time>2020-07-10T10:36:56Z</time>
      </trkpt>
      <trkpt lat="47.79083" lon="-3.44165">
        <ele>55.93</ele>
        <time>2020-07-10T10:36:57Z</time>
      </trkpt>
      <trkpt lat="47.79081" lon="-3.4416">
        <ele>55.68</ele>
        <time>2020-07-10T10:36:58Z</time>
      </trkpt>
      <trkpt lat="47.79079" lon="-3.44155">
        <ele>55.41</ele>
        <time>2020-07-10T10:36:59Z</time>
      </trkpt>
      <trkpt lat="47.79076" lon="-3.4415">
        <ele>55.19</ele>
        <time>2020-07-10T10:37:00Z</time>
      </trkpt>
      <trkpt lat="47.79073" lon="-3.44145">
        <ele>55.05</ele>
        <time>2020-07-10T10:37:01Z</time>
      </trkpt>
      <trkpt lat="47.7907" lon="-3.4414">
        <ele>55</ele>
        <time>2020-07-10T10:37:02Z</time>
      </trkpt>
      <trkpt lat="47.79067" lon="-3.44137">
        <ele>54.94</ele>
        <time>2020-07-10T10:37:03Z</time>
      </trkpt>
      <trkpt lat="47.79063" lon="-3.44133">
        <ele>54.84</ele>
        <time>2020-07-10T10:37:04Z</time>
      </trkpt>
      <trkpt lat="47.79059" lon="-3.4413">
        <ele>54.73</ele>
        <time>2020-07-10T10:37:05Z</time>
      </trkpt>
      <trkpt lat="47.79054" lon="-3.44127">
        <ele>54.49</ele>
        <time>2020-07-10T10:37:06Z</time>
      </trkpt>
      <trkpt lat="47.7905" lon="-3.44125">
        <ele>53.95</ele>
        <time>2020-07-10T10:37:07Z</time>
      </trkpt>
      <trkpt lat="47.79046" lon="-3.44118">
        <ele>53.35</ele>
        <time>2020-07-10T10:37:08Z</time>
      </trkpt>
      <trkpt lat="47.79043" lon="-3.44111">
        <ele>52.84</ele>
        <time>2020-07-10T10:37:09Z</time>
      </trkpt>
      <trkpt lat="47.7904" lon="-3.44103">
        <ele>52.37</ele>
        <time>2020-07-10T10:37:10Z</time>
      </trkpt>
      <trkpt lat="47.79036" lon="-3.44095">
        <ele>51.93</ele>
        <time>2020-07-10T10:37:11Z</time>
      </trkpt>
      <trkpt lat="47.79033" lon="-3.44087">
        <ele>51.57</ele>
        <time>2020-07-10T10:37:12Z</time>
      </trkpt>
      <trkpt lat="47.79029" lon="-3.44077">
        <ele>51.4</ele>
        <time>2020-07-10T10:37:13Z</time>
      </trkpt>
      <trkpt lat="47.79027" lon="-3.44069">
        <ele>51.45</ele>
        <time>2020-07-10T10:37:14Z</time>
      </trkpt>
      <trkpt lat="47.79023" lon="-3.44059">
        <ele>51.54</ele>
        <time>2020-07-10T10:37:15Z</time>
      </trkpt>
      <trkpt lat="47.7902" lon="-3.4405">
        <ele>51.35</ele>
        <time>2020-07-10T10:37:16Z</time>
      </trkpt>
      <trkpt lat="47.79016" lon="-3.4404">
        <ele>50.98</ele>
        <time>2020-07-10T10:37:17Z</time>
      </trkpt>
      <trkpt lat="47.79011" lon="-3.44032">
        <ele>50.6</ele>
        <time>2020-07-10T10:37:18Z</time>
      </trkpt>
      <trkpt lat="47.79007" lon="-3.44022">
        <ele>50.16</ele>
        <time>2020-07-10T10:37:19Z</time>
      </trkpt>
      <trkpt lat="47.79004" lon="-3.44014">
        <ele>49.75</ele>
        <time>2020-07-10T10:37:20Z</time>
      </trkpt>
      <trkpt lat="47.79" lon="-3.44006">
        <ele>49.39</ele>
        <time>2020-07-10T10:37:21Z</time>
      </trkpt>
      <trkpt lat="47.78997" lon="-3.43999">
        <ele>49.26</ele>
        <time>2020-07-10T10:37:22Z</time>
      </trkpt>
      <trkpt lat="47.78994" lon="-3.4399">
        <ele>49.38</ele>
        <time>2020-07-10T10:37:23Z</time>
      </trkpt>
      <trkpt lat="47.78991" lon="-3.43982">
        <ele>49.57</ele>
        <time>2020-07-10T10:37:24Z</time>
      </trkpt>
      <trkpt lat="47.78988" lon="-3.43975">
        <ele>49.78</ele>
        <time>2020-07-10T10:37:25Z</time>
      </trkpt>
      <trkpt lat="47.78985" lon="-3.43966">
        <ele>49.76</ele>
        <time>2020-07-10T10:37:26Z</time>
      </trkpt>
      <trkpt lat="47.78983" lon="-3.43958">
        <ele>49.56</ele>
        <time>2020-07-10T10:37:27Z</time>
      </trkpt>
      <trkpt lat="47.78982" lon="-3.43949">
        <ele>49.26</ele>
        <time>2020-07-10T10:37:28Z</time>
      </trkpt>
      <trkpt lat="47.78982" lon="-3.4394">
        <ele>48.83</ele>
        <time>2020-07-10T10:37:29Z</time>
      </trkpt>
      <trkpt lat="47.78981" lon="-3.43932">
        <ele>48.34</ele>
        <time>2020-07-10T10:37:30Z</time>
      </trkpt>
      <trkpt lat="47.78981" lon="-3.43926">
        <ele>47.87</ele>
        <time>2020-07-10T10:37:31Z</time>
      </trkpt>
      <trkpt lat="47.78982" lon="-3.43921">
        <ele>47.48</ele>
        <time>2020-07-10T10:37:32Z</time>
      </trkpt>
      <trkpt lat="47.78983" lon="-3.43918">
        <ele>47.15</ele>
        <time>2020-07-10T10:37:33Z</time>
      </trkpt>
      <trkpt lat="47.78984" lon="-3.43917">
        <ele>46.89</ele>
        <time>2020-07-10T10:37:34Z</time>
      </trkpt>
      <trkpt lat="47.78984" lon="-3.43915">
        <ele>46.74</ele>
        <time>2020-07-10T10:37:35Z</time>
      </trkpt>
      <trkpt lat="47.78984" lon="-3.43913">
        <ele>46.71</ele>
        <time>2020-07-10T10:37:36Z</time>
      </trkpt>
      <trkpt lat="47.78984" lon="-3.43911">
        <ele>46.73</ele>
        <time>2020-07-10T10:37:37Z</time>
      </trkpt>
      <trkpt lat="47.78983" lon="-3.4391">
        <ele>46.78</ele>
        <time>2020-07-10T10:37:38Z</time>
      </trkpt>
      <trkpt lat="47.78983" lon="-3.43908">
        <ele>46.83</ele>
        <time>2020-07-10T10:37:39Z</time>
      </trkpt>
      <trkpt lat="47.78982" lon="-3.43904">
        <ele>46.91</ele>
        <time>2020-07-10T10:37:40Z</time>
      </trkpt>
      <trkpt lat="47.78981" lon="-3.439">
        <ele>47</ele>
        <time>2020-07-10T10:37:41Z</time>
      </trkpt>
      <trkpt lat="47.7898" lon="-3.43895">
        <ele>47.1</ele>
        <time>2020-07-10T10:37:42Z</time>
      </trkpt>
      <trkpt lat="47.78979" lon="-3.43891">
        <ele>47.23</ele>
        <time>2020-07-10T10:37:43Z</time>
      </trkpt>
      <trkpt lat="47.78977" lon="-3.43886">
        <ele>47.37</ele>
        <time>2020-07-10T10:37:44Z</time>
      </trkpt>
      <trkpt lat="47.78976" lon="-3.43882">
        <ele>47.53</ele>
        <time>2020-07-10T10:37:45Z</time>
      </trkpt>
      <trkpt lat="47.78974" lon="-3.43877">
        <ele>47.74</ele>
        <time>2020-07-10T10:37:46Z</time>
      </trkpt>
      <trkpt lat="47.78973" lon="-3.43872">
        <ele>47.9</ele>
        <time>2020-07-10T10:37:47Z</time>
      </trkpt>
      <trkpt lat="47.78971" lon="-3.43867">
        <ele>48.05</ele>
        <time>2020-07-10T10:37:48Z</time>
      </trkpt>
      <trkpt lat="47.7897" lon="-3.43864">
        <ele>48.22</ele>
        <time>2020-07-10T10:37:49Z</time>
      </trkpt>
      <trkpt lat="47.78969" lon="-3.43862">
        <ele>48.28</ele>
        <time>2020-07-10T10:37:50Z</time>
      </trkpt>
      <trkpt lat="47.7897" lon="-3.43861">
        <ele>48.28</ele>
        <time>2020-07-10T10:37:51Z</time>
      </trkpt>
      <trkpt lat="47.78971" lon="-3.4386">
        <ele>48.2</ele>
        <time>2020-07-10T10:37:52Z</time>
      </trkpt>
      <trkpt lat="47.78972" lon="-3.43859">
        <ele>48.08</ele>
        <time>2020-07-10T10:37:53Z</time>
      </trkpt>
      <trkpt lat="47.78974" lon="-3.43855">
        <ele>47.9</ele>
        <time>2020-07-10T10:37:54Z</time>
      </trkpt>
      <trkpt lat="47.78976" lon="-3.43851">
        <ele>47.67</ele>
        <time>2020-07-10T10:37:55Z</time>
      </trkpt>
      <trkpt lat="47.78978" lon="-3.43845">
        <ele>47.48</ele>
        <time>2020-07-10T10:37:56Z</time>
      </trkpt>
      <trkpt lat="47.7898" lon="-3.43838">
        <ele>47.24</ele>
        <time>2020-07-10T10:37:57Z</time>
      </trkpt>
      <trkpt lat="47.78982" lon="-3.4383">
        <ele>47.05</ele>
        <time>2020-07-10T10:37:58Z</time>
      </trkpt>
      <trkpt lat="47.78984" lon="-3.43823">
        <ele>46.82</ele>
        <time>2020-07-10T10:37:59Z</time>
      </trkpt>
      <trkpt lat="47.78986" lon="-3.43816">
        <ele>46.62</ele>
        <time>2020-07-10T10:38:00Z</time>
      </trkpt>
      <trkpt lat="47.78988" lon="-3.4381">
        <ele>46.38</ele>
        <time>2020-07-10T10:38:01Z</time>
      </trkpt>
      <trkpt lat="47.78991" lon="-3.43805">
        <ele>46.14</ele>
        <time>2020-07-10T10:38:02Z</time>
      </trkpt>
      <trkpt lat="47.78993" lon="-3.43799">
        <ele>46.01</ele>
        <time>2020-07-10T10:38:03Z</time>
      </trkpt>
      <trkpt lat="47.78995" lon="-3.43793">
        <ele>45.94</ele>
        <time>2020-07-10T10:38:04Z</time>
      </trkpt>
      <trkpt lat="47.78997" lon="-3.43788">
        <ele>45.9</ele>
        <time>2020-07-10T10:38:05Z</time>
      </trkpt>
      <trkpt lat="47.79" lon="-3.43783">
        <ele>45.83</ele>
        <time>2020-07-10T10:38:06Z</time>
      </trkpt>
      <trkpt lat="47.79004" lon="-3.4378">
        <ele>45.8</ele>
        <time>2020-07-10T10:38:07Z</time>
      </trkpt>
      <trkpt lat="47.79008" lon="-3.43774">
        <ele>45.8</ele>
        <time>2020-07-10T10:38:08Z</time>
      </trkpt>
      <trkpt lat="47.79011" lon="-3.43771">
        <ele>45.76</ele>
        <time>2020-07-10T10:38:09Z</time>
      </trkpt>
      <trkpt lat="47.79014" lon="-3.43768">
        <ele>45.7</ele>
        <time>2020-07-10T10:38:10Z</time>
      </trkpt>
      <trkpt lat="47.79017" lon="-3.43764">
        <ele>45.62</ele>
        <time>2020-07-10T10:38:11Z</time>
      </trkpt>
      <trkpt lat="47.7902" lon="-3.43759">
        <ele>45.53</ele>
        <time>2020-07-10T10:38:12Z</time>
      </trkpt>
      <trkpt lat="47.79022" lon="-3.43753">
        <ele>45.45</ele>
        <time>2020-07-10T10:38:13Z</time>
      </trkpt>
      <trkpt lat="47.79025" lon="-3.43748">
        <ele>45.34</ele>
        <time>2020-07-10T10:38:14Z</time>
      </trkpt>
      <trkpt lat="47.79027" lon="-3.43743">
        <ele>45.3</ele>
        <time>2020-07-10T10:38:15Z</time>
      </trkpt>
      <trkpt lat="47.7903" lon="-3.43738">
        <ele>45.36</ele>
        <time>2020-07-10T10:38:16Z</time>
      </trkpt>
      <trkpt lat="47.79032" lon="-3.43734">
        <ele>45.46</ele>
        <time>2020-07-10T10:38:17Z</time>
      </trkpt>
      <trkpt lat="47.79034" lon="-3.43728">
        <ele>45.55</ele>
        <time>2020-07-10T10:38:18Z</time>
      </trkpt>
      <trkpt lat="47.79037" lon="-3.43723">
        <ele>45.63</ele>
        <time>2020-07-10T10:38:19Z</time>
      </trkpt>
      <trkpt lat="47.79039" lon="-3.43717">
        <ele>45.67</ele>
        <time>2020-07-10T10:38:20Z</time>
      </trkpt>
      <trkpt lat="47.79042" lon="-3.43712">
        <ele>45.68</ele>
        <time>2020-07-10T10:38:21Z</time>
      </trkpt>
      <trkpt lat="47.79044" lon="-3.43707">
        <ele>45.67</ele>
        <time>2020-07-10T10:38:22Z</time>
      </trkpt>
      <trkpt lat="47.79046" lon="-3.43701">
        <ele>45.61</ele>
        <time>2020-07-10T10:38:23Z</time>
      </trkpt>
      <trkpt lat="47.79048" lon="-3.43696">
        <ele>45.54</ele>
        <time>2020-07-10T10:38:24Z</time>
      </trkpt>
      <trkpt lat="47.79051" lon="-3.43691">
        <ele>45.56</ele>
        <time>2020-07-10T10:38:25Z</time>
      </trkpt>
      <trkpt lat="47.79054" lon="-3.43686">
        <ele>45.67</ele>
        <time>2020-07-10T10:38:26Z</time>
      </trkpt>
      <trkpt lat="47.79057" lon="-3.43681">
        <ele>45.85</ele>
        <time>2020-07-10T10:38:27Z</time>
      </trkpt>
      <trkpt lat="47.79059" lon="-3.43677">
        <ele>46.01</ele>
        <time>2020-07-10T10:38:28Z</time>
      </trkpt>
      <trkpt lat="47.79062" lon="-3.43673">
        <ele>46.13</ele>
        <time>2020-07-10T10:38:29Z</time>
      </trkpt>
      <trkpt lat="47.79063" lon="-3.4367">
        <ele>46.22</ele>
        <time>2020-07-10T10:38:30Z</time>
      </trkpt>
      <trkpt lat="47.79065" lon="-3.43667">
        <ele>46.26</ele>
        <time>2020-07-10T10:38:31Z</time>
      </trkpt>
      <trkpt lat="47.79066" lon="-3.43665">
        <ele>46.31</ele>
        <time>2020-07-10T10:38:32Z</time>
      </trkpt>
      <trkpt lat="47.79067" lon="-3.43662">
        <ele>46.4</ele>
        <time>2020-07-10T10:38:33Z</time>
      </trkpt>
      <trkpt lat="47.79067" lon="-3.4366">
        <ele>46.54</ele>
        <time>2020-07-10T10:38:34Z</time>
      </trkpt>
      <trkpt lat="47.79066" lon="-3.43656">
        <ele>46.77</ele>
        <time>2020-07-10T10:38:35Z</time>
      </trkpt>
      <trkpt lat="47.79065" lon="-3.43653">
        <ele>47.02</ele>
        <time>2020-07-10T10:38:36Z</time>
      </trkpt>
      <trkpt lat="47.79063" lon="-3.4365">
        <ele>47.33</ele>
        <time>2020-07-10T10:38:37Z</time>
      </trkpt>
      <trkpt lat="47.79063" lon="-3.43646">
        <ele>47.61</ele>
        <time>2020-07-10T10:38:38Z</time>
      </trkpt>
      <trkpt lat="47.79063" lon="-3.43643">
        <ele>47.84</ele>
        <time>2020-07-10T10:38:39Z</time>
      </trkpt>
      <trkpt lat="47.79063" lon="-3.4364">
        <ele>48.01</ele>
        <time>2020-07-10T10:38:40Z</time>
      </trkpt>
      <trkpt lat="47.79064" lon="-3.43638">
        <ele>48.13</ele>
        <time>2020-07-10T10:38:41Z</time>
      </trkpt>
      <trkpt lat="47.79065" lon="-3.43635">
        <ele>48.26</ele>
        <time>2020-07-10T10:38:42Z</time>
      </trkpt>
      <trkpt lat="47.79065" lon="-3.43632">
        <ele>48.43</ele>
        <time>2020-07-10T10:38:43Z</time>
      </trkpt>
      <trkpt lat="47.79066" lon="-3.43628">
        <ele>48.63</ele>
        <time>2020-07-10T10:38:44Z</time>
      </trkpt>
      <trkpt lat="47.79065" lon="-3.43625">
        <ele>48.85</ele>
        <time>2020-07-10T10:38:45Z</time>
      </trkpt>
      <trkpt lat="47.79065" lon="-3.43623">
        <ele>49.04</ele>
        <time>2020-07-10T10:38:46Z</time>
      </trkpt>
      <trkpt lat="47.79065" lon="-3.43622">
        <ele>49.16</ele>
        <time>2020-07-10T10:38:47Z</time>
      </trkpt>
      <trkpt lat="47.79065" lon="-3.43622">
        <ele>49.25</ele>
        <time>2020-07-10T10:38:48Z</time>
      </trkpt>
      <trkpt lat="47.79065" lon="-3.43622">
        <ele>49.27</ele>
        <time>2020-07-10T10:38:49Z</time>
      </trkpt>
      <trkpt lat="47.79065" lon="-3.43622">
        <ele>49.28</ele>
        <time>2020-07-10T10:38:50Z</time>
      </trkpt>
      <trkpt lat="47.79065" lon="-3.43622">
        <ele>49.28</ele>
        <time>2020-07-10T10:38:51Z</time>
      </trkpt>
      <trkpt lat="47.79065" lon="-3.43622">
        <ele>49.29</ele>
        <time>2020-07-10T10:38:52Z</time>
      </trkpt>
      <trkpt lat="47.79065" lon="-3.43622">
        <ele>49.29</ele>
        <time>2020-07-10T10:38:53Z</time>
      </trkpt>
      <trkpt lat="47.79065" lon="-3.43622">
        <ele>49.29</ele>
        <time>2020-07-10T10:38:54Z</time>
      </trkpt>
      <trkpt lat="47.79065" lon="-3.43622">
        <ele>49.29</ele>
        <time>2020-07-10T10:38:55Z</time>
      </trkpt>
      <trkpt lat="47.79065" lon="-3.43622">
        <ele>49.29</ele>
        <time>2020-07-10T10:38:56Z</time>
      </trkpt>
      <trkpt lat="47.79065" lon="-3.43622">
        <ele>49.29</ele>
        <time>2020-07-10T10:38:57Z</time>
      </trkpt>
      <trkpt lat="47.79065" lon="-3.43622">
        <ele>49.29</ele>
        <time>2020-07-10T10:38:58Z</time>
      </trkpt>
      <trkpt lat="47.79065" lon="-3.43622">
        <ele>49.29</ele>
        <time>2020-07-10T10:38:59Z</time>
      </trkpt>
      <trkpt lat="47.79065" lon="-3.43622">
        <ele>49.29</ele>
        <time>2020-07-10T10:39:00Z</time>
      </trkpt>
      <trkpt lat="47.79065" lon="-3.43622">
        <ele>49.29</ele>
        <time>2020-07-10T10:39:01Z</time>
      </trkpt>
      <trkpt lat="47.79065" lon="-3.43622">
        <ele>49.29</ele>
        <time>2020-07-10T10:39:02Z</time>
      </trkpt>
      <trkpt lat="47.79056" lon="-3.43617">
        <ele>50.15</ele>
        <time>2020-07-10T10:39:03Z</time>
      </trkpt>
      <trkpt lat="47.79053" lon="-3.43615">
        <ele>50.66</ele>
        <time>2020-07-10T10:39:04Z</time>
      </trkpt>
      <trkpt lat="47.79051" lon="-3.43615">
        <ele>50.96</ele>
        <time>2020-07-10T10:39:05Z</time>
      </trkpt>
      <trkpt lat="47.79049" lon="-3.43614">
        <ele>51.16</ele>
        <time>2020-07-10T10:39:06Z</time>
      </trkpt>
      <trkpt lat="47.79047" lon="-3.43614">
        <ele>51.36</ele>
        <time>2020-07-10T10:39:07Z</time>
      </trkpt>
      <trkpt lat="47.79045" lon="-3.43613">
        <ele>51.59</ele>
        <time>2020-07-10T10:39:08Z</time>
      </trkpt>
      <trkpt lat="47.79042" lon="-3.43612">
        <ele>51.81</ele>
        <time>2020-07-10T10:39:09Z</time>
      </trkpt>
      <trkpt lat="47.7904" lon="-3.4361">
        <ele>52.03</ele>
        <time>2020-07-10T10:39:10Z</time>
      </trkpt>
      <trkpt lat="47.79039" lon="-3.43608">
        <ele>52.21</ele>
        <time>2020-07-10T10:39:11Z</time>
      </trkpt>
      <trkpt lat="47.79038" lon="-3.43606">
        <ele>52.38</ele>
        <time>2020-07-10T10:39:12Z</time>
      </trkpt>
      <trkpt lat="47.79037" lon="-3.43604">
        <ele>52.54</ele>
        <time>2020-07-10T10:39:13Z</time>
      </trkpt>
      <trkpt lat="47.79036" lon="-3.43602">
        <ele>52.7</ele>
        <time>2020-07-10T10:39:14Z</time>
      </trkpt>
      <trkpt lat="47.79035" lon="-3.43599">
        <ele>52.83</ele>
        <time>2020-07-10T10:39:15Z</time>
      </trkpt>
      <trkpt lat="47.79035" lon="-3.43597">
        <ele>52.94</ele>
        <time>2020-07-10T10:39:16Z</time>
      </trkpt>
      <trkpt lat="47.79035" lon="-3.43595">
        <ele>53.02</ele>
        <time>2020-07-10T10:39:17Z</time>
      </trkpt>
      <trkpt lat="47.79036" lon="-3.43591">
        <ele>53.11</ele>
        <time>2020-07-10T10:39:18Z</time>
      </trkpt>
      <trkpt lat="47.79036" lon="-3.43587">
        <ele>53.22</ele>
        <time>2020-07-10T10:39:19Z</time>
      </trkpt>
      <trkpt lat="47.79037" lon="-3.43583">
        <ele>53.3</ele>
        <time>2020-07-10T10:39:20Z</time>
      </trkpt>
      <trkpt lat="47.79038" lon="-3.43579">
        <ele>53.41</ele>
        <time>2020-07-10T10:39:21Z</time>
      </trkpt>
      <trkpt lat="47.79038" lon="-3.43574">
        <ele>53.56</ele>
        <time>2020-07-10T10:39:22Z</time>
      </trkpt>
      <trkpt lat="47.79038" lon="-3.43571">
        <ele>53.69</ele>
        <time>2020-07-10T10:39:23Z</time>
      </trkpt>
      <trkpt lat="47.79037" lon="-3.43567">
        <ele>53.83</ele>
        <time>2020-07-10T10:39:24Z</time>
      </trkpt>
      <trkpt lat="47.79037" lon="-3.43563">
        <ele>53.97</ele>
        <time>2020-07-10T10:39:25Z</time>
      </trkpt>
      <trkpt lat="47.79037" lon="-3.43559">
        <ele>54.13</ele>
        <time>2020-07-10T10:39:26Z</time>
      </trkpt>
      <trkpt lat="47.79037" lon="-3.43555">
        <ele>54.3</ele>
        <time>2020-07-10T10:39:27Z</time>
      </trkpt>
      <trkpt lat="47.79037" lon="-3.43551">
        <ele>54.45</ele>
        <time>2020-07-10T10:39:28Z</time>
      </trkpt>
      <trkpt lat="47.79036" lon="-3.43547">
        <ele>54.62</ele>
        <time>2020-07-10T10:39:29Z</time>
      </trkpt>
      <trkpt lat="47.79037" lon="-3.43542">
        <ele>54.77</ele>
        <time>2020-07-10T10:39:30Z</time>
      </trkpt>
      <trkpt lat="47.79037" lon="-3.43537">
        <ele>54.93</ele>
        <time>2020-07-10T10:39:31Z</time>
      </trkpt>
      <trkpt lat="47.79037" lon="-3.43533">
        <ele>55.09</ele>
        <time>2020-07-10T10:39:32Z</time>
      </trkpt>
      <trkpt lat="47.79037" lon="-3.43528">
        <ele>55.25</ele>
        <time>2020-07-10T10:39:33Z</time>
      </trkpt>
      <trkpt lat="47.79037" lon="-3.43524">
        <ele>55.36</ele>
        <time>2020-07-10T10:39:34Z</time>
      </trkpt>
      <trkpt lat="47.79037" lon="-3.43521">
        <ele>55.47</ele>
        <time>2020-07-10T10:39:35Z</time>
      </trkpt>
      <trkpt lat="47.79036" lon="-3.43517">
        <ele>55.6</ele>
        <time>2020-07-10T10:39:36Z</time>
      </trkpt>
      <trkpt lat="47.79036" lon="-3.43513">
        <ele>55.75</ele>
        <time>2020-07-10T10:39:37Z</time>
      </trkpt>
      <trkpt lat="47.79035" lon="-3.43509">
        <ele>55.89</ele>
        <time>2020-07-10T10:39:38Z</time>
      </trkpt>
      <trkpt lat="47.79034" lon="-3.43506">
        <ele>56.06</ele>
        <time>2020-07-10T10:39:39Z</time>
      </trkpt>
      <trkpt lat="47.79034" lon="-3.43502">
        <ele>56.22</ele>
        <time>2020-07-10T10:39:40Z</time>
      </trkpt>
      <trkpt lat="47.79034" lon="-3.43497">
        <ele>56.27</ele>
        <time>2020-07-10T10:39:41Z</time>
      </trkpt>
      <trkpt lat="47.79035" lon="-3.43492">
        <ele>56.25</ele>
        <time>2020-07-10T10:39:42Z</time>
      </trkpt>
      <trkpt lat="47.79036" lon="-3.43488">
        <ele>56.17</ele>
        <time>2020-07-10T10:39:43Z</time>
      </trkpt>
      <trkpt lat="47.79036" lon="-3.43484">
        <ele>56.1</ele>
        <time>2020-07-10T10:39:44Z</time>
      </trkpt>
      <trkpt lat="47.79037" lon="-3.43479">
        <ele>56.05</ele>
        <time>2020-07-10T10:39:45Z</time>
      </trkpt>
      <trkpt lat="47.79037" lon="-3.43474">
        <ele>55.99</ele>
        <time>2020-07-10T10:39:46Z</time>
      </trkpt>
      <trkpt lat="47.79038" lon="-3.43469">
        <ele>56.01</ele>
        <time>2020-07-10T10:39:47Z</time>
      </trkpt>
      <trkpt lat="47.79039" lon="-3.43464">
        <ele>56.09</ele>
        <time>2020-07-10T10:39:48Z</time>
      </trkpt>
      <trkpt lat="47.79039" lon="-3.4346">
        <ele>56.18</ele>
        <time>2020-07-10T10:39:49Z</time>
      </trkpt>
      <trkpt lat="47.79041" lon="-3.43454">
        <ele>56.22</ele>
        <time>2020-07-10T10:39:50Z</time>
      </trkpt>
      <trkpt lat="47.79042" lon="-3.43449">
        <ele>56.29</ele>
        <time>2020-07-10T10:39:51Z</time>
      </trkpt>
      <trkpt lat="47.79042" lon="-3.43445">
        <ele>56.37</ele>
        <time>2020-07-10T10:39:52Z</time>
      </trkpt>
      <trkpt lat="47.79043" lon="-3.4344">
        <ele>56.32</ele>
        <time>2020-07-10T10:39:53Z</time>
      </trkpt>
      <trkpt lat="47.79044" lon="-3.43435">
        <ele>56.24</ele>
        <time>2020-07-10T10:39:54Z</time>
      </trkpt>
      <trkpt lat="47.79045" lon="-3.43431">
        <ele>56.17</ele>
        <time>2020-07-10T10:39:55Z</time>
      </trkpt>
      <trkpt lat="47.79046" lon="-3.43425">
        <ele>56.07</ele>
        <time>2020-07-10T10:39:56Z</time>
      </trkpt>
      <trkpt lat="47.79046" lon="-3.4342">
        <ele>56.03</ele>
        <time>2020-07-10T10:39:57Z</time>
      </trkpt>
      <trkpt lat="47.79047" lon="-3.43416">
        <ele>55.98</ele>
        <time>2020-07-10T10:39:58Z</time>
      </trkpt>
      <trkpt lat="47.79047" lon="-3.43412">
        <ele>55.95</ele>
        <time>2020-07-10T10:39:59Z</time>
      </trkpt>
      <trkpt lat="47.79047" lon="-3.43407">
        <ele>55.92</ele>
        <time>2020-07-10T10:40:00Z</time>
      </trkpt>
      <trkpt lat="47.79048" lon="-3.43403">
        <ele>55.89</ele>
        <time>2020-07-10T10:40:01Z</time>
      </trkpt>
      <trkpt lat="47.79048" lon="-3.43398">
        <ele>55.87</ele>
        <time>2020-07-10T10:40:02Z</time>
      </trkpt>
      <trkpt lat="47.79047" lon="-3.43394">
        <ele>55.88</ele>
        <time>2020-07-10T10:40:03Z</time>
      </trkpt>
      <trkpt lat="47.79047" lon="-3.43388">
        <ele>55.89</ele>
        <time>2020-07-10T10:40:04Z</time>
      </trkpt>
      <trkpt lat="47.79046" lon="-3.4338">
        <ele>55.72</ele>
        <time>2020-07-10T10:40:05Z</time>
      </trkpt>
      <trkpt lat="47.79046" lon="-3.43373">
        <ele>55.58</ele>
        <time>2020-07-10T10:40:06Z</time>
      </trkpt>
      <trkpt lat="47.79046" lon="-3.43369">
        <ele>55.43</ele>
        <time>2020-07-10T10:40:07Z</time>
      </trkpt>
      <trkpt lat="47.79046" lon="-3.43365">
        <ele>55.27</ele>
        <time>2020-07-10T10:40:08Z</time>
      </trkpt>
      <trkpt lat="47.79046" lon="-3.43361">
        <ele>55.11</ele>
        <time>2020-07-10T10:40:09Z</time>
      </trkpt>
      <trkpt lat="47.79046" lon="-3.43356">
        <ele>54.95</ele>
        <time>2020-07-10T10:40:10Z</time>
      </trkpt>
      <trkpt lat="47.79045" lon="-3.43351">
        <ele>54.91</ele>
        <time>2020-07-10T10:40:11Z</time>
      </trkpt>
      <trkpt lat="47.79045" lon="-3.43346">
        <ele>54.87</ele>
        <time>2020-07-10T10:40:12Z</time>
      </trkpt>
      <trkpt lat="47.79043" lon="-3.43342">
        <ele>54.91</ele>
        <time>2020-07-10T10:40:13Z</time>
      </trkpt>
      <trkpt lat="47.79042" lon="-3.43338">
        <ele>55.03</ele>
        <time>2020-07-10T10:40:14Z</time>
      </trkpt>
      <trkpt lat="47.7904" lon="-3.43333">
        <ele>55.16</ele>
        <time>2020-07-10T10:40:15Z</time>
      </trkpt>
      <trkpt lat="47.79038" lon="-3.43327">
        <ele>55.29</ele>
        <time>2020-07-10T10:40:16Z</time>
      </trkpt>
      <trkpt lat="47.79034" lon="-3.4332">
        <ele>55.51</ele>
        <time>2020-07-10T10:40:17Z</time>
      </trkpt>
      <trkpt lat="47.79032" lon="-3.43317">
        <ele>55.69</ele>
        <time>2020-07-10T10:40:18Z</time>
      </trkpt>
      <trkpt lat="47.79029" lon="-3.43311">
        <ele>55.95</ele>
        <time>2020-07-10T10:40:19Z</time>
      </trkpt>
      <trkpt lat="47.79026" lon="-3.43305">
        <ele>56.09</ele>
        <time>2020-07-10T10:40:20Z</time>
      </trkpt>
      <trkpt lat="47.79023" lon="-3.433">
        <ele>56.24</ele>
        <time>2020-07-10T10:40:21Z</time>
      </trkpt>
      <trkpt lat="47.79022" lon="-3.43297">
        <ele>56.35</ele>
        <time>2020-07-10T10:40:22Z</time>
      </trkpt>
      <trkpt lat="47.79022" lon="-3.43292">
        <ele>56.41</ele>
        <time>2020-07-10T10:40:23Z</time>
      </trkpt>
      <trkpt lat="47.7902" lon="-3.43288">
        <ele>56.51</ele>
        <time>2020-07-10T10:40:24Z</time>
      </trkpt>
      <trkpt lat="47.79019" lon="-3.43284">
        <ele>56.62</ele>
        <time>2020-07-10T10:40:25Z</time>
      </trkpt>
      <trkpt lat="47.79016" lon="-3.43279">
        <ele>56.78</ele>
        <time>2020-07-10T10:40:26Z</time>
      </trkpt>
      <trkpt lat="47.79013" lon="-3.43274">
        <ele>56.88</ele>
        <time>2020-07-10T10:40:27Z</time>
      </trkpt>
      <trkpt lat="47.7901" lon="-3.43269">
        <ele>56.91</ele>
        <time>2020-07-10T10:40:28Z</time>
      </trkpt>
      <trkpt lat="47.79008" lon="-3.43264">
        <ele>56.94</ele>
        <time>2020-07-10T10:40:29Z</time>
      </trkpt>
      <trkpt lat="47.79005" lon="-3.43258">
        <ele>56.94</ele>
        <time>2020-07-10T10:40:30Z</time>
      </trkpt>
      <trkpt lat="47.79003" lon="-3.43253">
        <ele>56.93</ele>
        <time>2020-07-10T10:40:31Z</time>
      </trkpt>
      <trkpt lat="47.79" lon="-3.43248">
        <ele>56.98</ele>
        <time>2020-07-10T10:40:32Z</time>
      </trkpt>
      <trkpt lat="47.78997" lon="-3.43242">
        <ele>57.13</ele>
        <time>2020-07-10T10:40:33Z</time>
      </trkpt>
      <trkpt lat="47.78996" lon="-3.43237">
        <ele>57.26</ele>
        <time>2020-07-10T10:40:34Z</time>
      </trkpt>
      <trkpt lat="47.78993" lon="-3.43232">
        <ele>57.4</ele>
        <time>2020-07-10T10:40:35Z</time>
      </trkpt>
      <trkpt lat="47.78991" lon="-3.43226">
        <ele>57.56</ele>
        <time>2020-07-10T10:40:36Z</time>
      </trkpt>
      <trkpt lat="47.78989" lon="-3.4322">
        <ele>57.71</ele>
        <time>2020-07-10T10:40:37Z</time>
      </trkpt>
      <trkpt lat="47.78987" lon="-3.43214">
        <ele>57.89</ele>
        <time>2020-07-10T10:40:38Z</time>
      </trkpt>
      <trkpt lat="47.78983" lon="-3.43208">
        <ele>58.11</ele>
        <time>2020-07-10T10:40:39Z</time>
      </trkpt>
      <trkpt lat="47.78981" lon="-3.43202">
        <ele>58.31</ele>
        <time>2020-07-10T10:40:40Z</time>
      </trkpt>
      <trkpt lat="47.78978" lon="-3.43198">
        <ele>58.51</ele>
        <time>2020-07-10T10:40:41Z</time>
      </trkpt>
      <trkpt lat="47.78974" lon="-3.43194">
        <ele>58.75</ele>
        <time>2020-07-10T10:40:42Z</time>
      </trkpt>
      <trkpt lat="47.78971" lon="-3.43189">
        <ele>58.82</ele>
        <time>2020-07-10T10:40:43Z</time>
      </trkpt>
      <trkpt lat="47.7897" lon="-3.43184">
        <ele>58.75</ele>
        <time>2020-07-10T10:40:44Z</time>
      </trkpt>
      <trkpt lat="47.7897" lon="-3.43178">
        <ele>58.58</ele>
        <time>2020-07-10T10:40:45Z</time>
      </trkpt>
      <trkpt lat="47.7897" lon="-3.43172">
        <ele>58.37</ele>
        <time>2020-07-10T10:40:46Z</time>
      </trkpt>
      <trkpt lat="47.7897" lon="-3.43167">
        <ele>58.18</ele>
        <time>2020-07-10T10:40:47Z</time>
      </trkpt>
      <trkpt lat="47.78971" lon="-3.43163">
        <ele>58</ele>
        <time>2020-07-10T10:40:48Z</time>
      </trkpt>
      <trkpt lat="47.7897" lon="-3.43159">
        <ele>57.87</ele>
        <time>2020-07-10T10:40:49Z</time>
      </trkpt>
      <trkpt lat="47.7897" lon="-3.43156">
        <ele>57.77</ele>
        <time>2020-07-10T10:40:50Z</time>
      </trkpt>
      <trkpt lat="47.78969" lon="-3.43153">
        <ele>57.7</ele>
        <time>2020-07-10T10:40:51Z</time>
      </trkpt>
      <trkpt lat="47.78969" lon="-3.43153">
        <ele>57.69</ele>
        <time>2020-07-10T10:40:52Z</time>
      </trkpt>
      <trkpt lat="47.78969" lon="-3.43153">
        <ele>57.68</ele>
        <time>2020-07-10T10:40:53Z</time>
      </trkpt>
      <trkpt lat="47.78969" lon="-3.43153">
        <ele>57.68</ele>
        <time>2020-07-10T10:40:54Z</time>
      </trkpt>
      <trkpt lat="47.78969" lon="-3.43153">
        <ele>57.68</ele>
        <time>2020-07-10T10:40:55Z</time>
      </trkpt>
      <trkpt lat="47.78969" lon="-3.43153">
        <ele>57.68</ele>
        <time>2020-07-10T10:40:56Z</time>
      </trkpt>
      <trkpt lat="47.78969" lon="-3.43153">
        <ele>57.68</ele>
        <time>2020-07-10T10:40:57Z</time>
      </trkpt>
      <trkpt lat="47.78969" lon="-3.43153">
        <ele>57.68</ele>
        <time>2020-07-10T10:40:58Z</time>
      </trkpt>
      <trkpt lat="47.78969" lon="-3.43153">
        <ele>57.68</ele>
        <time>2020-07-10T10:40:59Z</time>
      </trkpt>
      <trkpt lat="47.78969" lon="-3.43153">
        <ele>57.68</ele>
        <time>2020-07-10T10:41:00Z</time>
      </trkpt>
      <trkpt lat="47.78969" lon="-3.43153">
        <ele>57.68</ele>
        <time>2020-07-10T10:41:01Z</time>
      </trkpt>
      <trkpt lat="47.78969" lon="-3.43153">
        <ele>57.68</ele>
        <time>2020-07-10T10:41:02Z</time>
      </trkpt>
      <trkpt lat="47.78969" lon="-3.43153">
        <ele>57.68</ele>
        <time>2020-07-10T10:41:03Z</time>
      </trkpt>
      <trkpt lat="47.78969" lon="-3.43153">
        <ele>57.68</ele>
        <time>2020-07-10T10:41:04Z</time>
      </trkpt>
      <trkpt lat="47.78969" lon="-3.43153">
        <ele>57.68</ele>
        <time>2020-07-10T10:41:05Z</time>
      </trkpt>
      <trkpt lat="47.78969" lon="-3.43153">
        <ele>57.68</ele>
        <time>2020-07-10T10:41:06Z</time>
      </trkpt>
      <trkpt lat="47.78969" lon="-3.43153">
        <ele>57.68</ele>
        <time>2020-07-10T10:41:07Z</time>
      </trkpt>
      <trkpt lat="47.78969" lon="-3.43153">
        <ele>57.68</ele>
        <time>2020-07-10T10:41:08Z</time>
      </trkpt>
      <trkpt lat="47.78969" lon="-3.43153">
        <ele>57.68</ele>
        <time>2020-07-10T10:41:09Z</time>
      </trkpt>
      <trkpt lat="47.78969" lon="-3.43153">
        <ele>57.68</ele>
        <time>2020-07-10T10:41:10Z</time>
      </trkpt>
      <trkpt lat="47.78969" lon="-3.43153">
        <ele>57.68</ele>
        <time>2020-07-10T10:41:11Z</time>
      </trkpt>
      <trkpt lat="47.78969" lon="-3.43153">
        <ele>57.68</ele>
        <time>2020-07-10T10:41:12Z</time>
      </trkpt>
      <trkpt lat="47.78969" lon="-3.43153">
        <ele>57.68</ele>
        <time>2020-07-10T10:41:13Z</time>
      </trkpt>
      <trkpt lat="47.78969" lon="-3.43153">
        <ele>57.68</ele>
        <time>2020-07-10T10:41:14Z</time>
      </trkpt>
      <trkpt lat="47.78969" lon="-3.43153">
        <ele>57.68</ele>
        <time>2020-07-10T10:41:15Z</time>
      </trkpt>
      <trkpt lat="47.78969" lon="-3.43153">
        <ele>57.68</ele>
        <time>2020-07-10T10:41:16Z</time>
      </trkpt>
      <trkpt lat="47.78969" lon="-3.43153">
        <ele>57.68</ele>
        <time>2020-07-10T10:41:17Z</time>
      </trkpt>
      <trkpt lat="47.78969" lon="-3.43153">
        <ele>57.68</ele>
        <time>2020-07-10T10:41:18Z</time>
      </trkpt>
      <trkpt lat="47.78969" lon="-3.43153">
        <ele>57.68</ele>
        <time>2020-07-10T10:41:19Z</time>
      </trkpt>
      <trkpt lat="47.78969" lon="-3.43153">
        <ele>57.68</ele>
        <time>2020-07-10T10:41:20Z</time>
      </trkpt>
      <trkpt lat="47.78969" lon="-3.43153">
        <ele>57.68</ele>
        <time>2020-07-10T10:41:21Z</time>
      </trkpt>
      <trkpt lat="47.78969" lon="-3.43153">
        <ele>57.68</ele>
        <time>2020-07-10T10:41:22Z</time>
      </trkpt>
      <trkpt lat="47.78969" lon="-3.43153">
        <ele>57.68</ele>
        <time>2020-07-10T10:41:23Z</time>
      </trkpt>
      <trkpt lat="47.78969" lon="-3.43153">
        <ele>57.68</ele>
        <time>2020-07-10T10:41:24Z</time>
      </trkpt>
      <trkpt lat="47.78969" lon="-3.43153">
        <ele>57.68</ele>
        <time>2020-07-10T10:41:25Z</time>
      </trkpt>
      <trkpt lat="47.78969" lon="-3.43153">
        <ele>57.68</ele>
        <time>2020-07-10T10:41:26Z</time>
      </trkpt>
      <trkpt lat="47.78976" lon="-3.43143">
        <ele>57.01</ele>
        <time>2020-07-10T10:41:27Z</time>
      </trkpt>
      <trkpt lat="47.78978" lon="-3.43141">
        <ele>56.61</ele>
        <time>2020-07-10T10:41:28Z</time>
      </trkpt>
      <trkpt lat="47.7898" lon="-3.43137">
        <ele>56.28</ele>
        <time>2020-07-10T10:41:29Z</time>
      </trkpt>
      <trkpt lat="47.78982" lon="-3.43131">
        <ele>55.98</ele>
        <time>2020-07-10T10:41:30Z</time>
      </trkpt>
      <trkpt lat="47.78984" lon="-3.43126">
        <ele>55.68</ele>
        <time>2020-07-10T10:41:31Z</time>
      </trkpt>
      <trkpt lat="47.78986" lon="-3.43121">
        <ele>55.34</ele>
        <time>2020-07-10T10:41:32Z</time>
      </trkpt>
      <trkpt lat="47.78989" lon="-3.43115">
        <ele>54.86</ele>
        <time>2020-07-10T10:41:33Z</time>
      </trkpt>
      <trkpt lat="47.78991" lon="-3.43109">
        <ele>54.37</ele>
        <time>2020-07-10T10:41:34Z</time>
      </trkpt>
      <trkpt lat="47.78994" lon="-3.43104">
        <ele>53.83</ele>
        <time>2020-07-10T10:41:35Z</time>
      </trkpt>
      <trkpt lat="47.78998" lon="-3.43099">
        <ele>53.14</ele>
        <time>2020-07-10T10:41:36Z</time>
      </trkpt>
      <trkpt lat="47.79001" lon="-3.43093">
        <ele>52.54</ele>
        <time>2020-07-10T10:41:37Z</time>
      </trkpt>
      <trkpt lat="47.79004" lon="-3.43088">
        <ele>52.07</ele>
        <time>2020-07-10T10:41:38Z</time>
      </trkpt>
      <trkpt lat="47.79008" lon="-3.43081">
        <ele>51.6</ele>
        <time>2020-07-10T10:41:39Z</time>
      </trkpt>
      <trkpt lat="47.79012" lon="-3.43076">
        <ele>51.28</ele>
        <time>2020-07-10T10:41:40Z</time>
      </trkpt>
      <trkpt lat="47.79016" lon="-3.43071">
        <ele>50.98</ele>
        <time>2020-07-10T10:41:41Z</time>
      </trkpt>
      <trkpt lat="47.7902" lon="-3.43067">
        <ele>50.69</ele>
        <time>2020-07-10T10:41:42Z</time>
      </trkpt>
      <trkpt lat="47.79022" lon="-3.43061">
        <ele>50.52</ele>
        <time>2020-07-10T10:41:43Z</time>
      </trkpt>
      <trkpt lat="47.79022" lon="-3.43054">
        <ele>50.39</ele>
        <time>2020-07-10T10:41:44Z</time>
      </trkpt>
      <trkpt lat="47.79021" lon="-3.43045">
        <ele>50.17</ele>
        <time>2020-07-10T10:41:45Z</time>
      </trkpt>
      <trkpt lat="47.7902" lon="-3.43036">
        <ele>49.95</ele>
        <time>2020-07-10T10:41:46Z</time>
      </trkpt>
      <trkpt lat="47.79018" lon="-3.43029">
        <ele>49.81</ele>
        <time>2020-07-10T10:41:47Z</time>
      </trkpt>
      <trkpt lat="47.79015" lon="-3.43022">
        <ele>49.72</ele>
        <time>2020-07-10T10:41:48Z</time>
      </trkpt>
      <trkpt lat="47.79013" lon="-3.43015">
        <ele>49.63</ele>
        <time>2020-07-10T10:41:49Z</time>
      </trkpt>
      <trkpt lat="47.7901" lon="-3.43007">
        <ele>49.55</ele>
        <time>2020-07-10T10:41:50Z</time>
      </trkpt>
      <trkpt lat="47.79008" lon="-3.43001">
        <ele>49.48</ele>
        <time>2020-07-10T10:41:51Z</time>
      </trkpt>
      <trkpt lat="47.79006" lon="-3.42995">
        <ele>49.42</ele>
        <time>2020-07-10T10:41:52Z</time>
      </trkpt>
      <trkpt lat="47.79004" lon="-3.42988">
        <ele>49.34</ele>
        <time>2020-07-10T10:41:53Z</time>
      </trkpt>
      <trkpt lat="47.79" lon="-3.42981">
        <ele>49.31</ele>
        <time>2020-07-10T10:41:54Z</time>
      </trkpt>
      <trkpt lat="47.78997" lon="-3.42975">
        <ele>49.26</ele>
        <time>2020-07-10T10:41:55Z</time>
      </trkpt>
      <trkpt lat="47.78994" lon="-3.42969">
        <ele>49.15</ele>
        <time>2020-07-10T10:41:56Z</time>
      </trkpt>
      <trkpt lat="47.78991" lon="-3.42964">
        <ele>49</ele>
        <time>2020-07-10T10:41:57Z</time>
      </trkpt>
      <trkpt lat="47.78987" lon="-3.42957">
        <ele>48.77</ele>
        <time>2020-07-10T10:41:58Z</time>
      </trkpt>
      <trkpt lat="47.78984" lon="-3.4295">
        <ele>48.46</ele>
        <time>2020-07-10T10:41:59Z</time>
      </trkpt>
      <trkpt lat="47.7898" lon="-3.42942">
        <ele>48.1</ele>
        <time>2020-07-10T10:42:00Z</time>
      </trkpt>
      <trkpt lat="47.78977" lon="-3.42933">
        <ele>47.93</ele>
        <time>2020-07-10T10:42:01Z</time>
      </trkpt>
      <trkpt lat="47.78973" lon="-3.42924">
        <ele>47.94</ele>
        <time>2020-07-10T10:42:02Z</time>
      </trkpt>
      <trkpt lat="47.7897" lon="-3.42916">
        <ele>48.13</ele>
        <time>2020-07-10T10:42:03Z</time>
      </trkpt>
      <trkpt lat="47.78968" lon="-3.4291">
        <ele>48.14</ele>
        <time>2020-07-10T10:42:04Z</time>
      </trkpt>
      <trkpt lat="47.78967" lon="-3.42904">
        <ele>48.04</ele>
        <time>2020-07-10T10:42:05Z</time>
      </trkpt>
      <trkpt lat="47.78965" lon="-3.42898">
        <ele>47.95</ele>
        <time>2020-07-10T10:42:06Z</time>
      </trkpt>
      <trkpt lat="47.78965" lon="-3.42893">
        <ele>47.8</ele>
        <time>2020-07-10T10:42:07Z</time>
      </trkpt>
      <trkpt lat="47.78966" lon="-3.42885">
        <ele>47.39</ele>
        <time>2020-07-10T10:42:08Z</time>
      </trkpt>
      <trkpt lat="47.78969" lon="-3.42882">
        <ele>46.96</ele>
        <time>2020-07-10T10:42:09Z</time>
      </trkpt>
      <trkpt lat="47.78972" lon="-3.42882">
        <ele>46.66</ele>
        <time>2020-07-10T10:42:10Z</time>
      </trkpt>
      <trkpt lat="47.78977" lon="-3.42887">
        <ele>46.57</ele>
        <time>2020-07-10T10:42:11Z</time>
      </trkpt>
      <trkpt lat="47.78983" lon="-3.42892">
        <ele>46.42</ele>
        <time>2020-07-10T10:42:12Z</time>
      </trkpt>
      <trkpt lat="47.78986" lon="-3.42895">
        <ele>46.27</ele>
        <time>2020-07-10T10:42:13Z</time>
      </trkpt>
      <trkpt lat="47.78991" lon="-3.42899">
        <ele>46.08</ele>
        <time>2020-07-10T10:42:14Z</time>
      </trkpt>
      <trkpt lat="47.78996" lon="-3.42903">
        <ele>45.88</ele>
        <time>2020-07-10T10:42:15Z</time>
      </trkpt>
      <trkpt lat="47.79" lon="-3.42906">
        <ele>45.71</ele>
        <time>2020-07-10T10:42:16Z</time>
      </trkpt>
      <trkpt lat="47.79003" lon="-3.4291">
        <ele>45.7</ele>
        <time>2020-07-10T10:42:17Z</time>
      </trkpt>
      <trkpt lat="47.79004" lon="-3.42914">
        <ele>45.75</ele>
        <time>2020-07-10T10:42:18Z</time>
      </trkpt>
      <trkpt lat="47.79007" lon="-3.42919">
        <ele>45.86</ele>
        <time>2020-07-10T10:42:19Z</time>
      </trkpt>
      <trkpt lat="47.79012" lon="-3.42924">
        <ele>45.97</ele>
        <time>2020-07-10T10:42:20Z</time>
      </trkpt>
      <trkpt lat="47.79016" lon="-3.42929">
        <ele>46.02</ele>
        <time>2020-07-10T10:42:21Z</time>
      </trkpt>
      <trkpt lat="47.7902" lon="-3.42933">
        <ele>46.01</ele>
        <time>2020-07-10T10:42:22Z</time>
      </trkpt>
      <trkpt lat="47.79025" lon="-3.42935">
        <ele>45.9</ele>
        <time>2020-07-10T10:42:23Z</time>
      </trkpt>
      <trkpt lat="47.7903" lon="-3.42936">
        <ele>45.78</ele>
        <time>2020-07-10T10:42:24Z</time>
      </trkpt>
      <trkpt lat="47.79036" lon="-3.42936">
        <ele>45.78</ele>
        <time>2020-07-10T10:42:25Z</time>
      </trkpt>
      <trkpt lat="47.79041" lon="-3.42936">
        <ele>45.82</ele>
        <time>2020-07-10T10:42:26Z</time>
      </trkpt>
      <trkpt lat="47.79047" lon="-3.42935">
        <ele>45.87</ele>
        <time>2020-07-10T10:42:27Z</time>
      </trkpt>
      <trkpt lat="47.79052" lon="-3.42934">
        <ele>45.93</ele>
        <time>2020-07-10T10:42:28Z</time>
      </trkpt>
      <trkpt lat="47.79057" lon="-3.42934">
        <ele>46.01</ele>
        <time>2020-07-10T10:42:29Z</time>
      </trkpt>
      <trkpt lat="47.79061" lon="-3.42934">
        <ele>46.14</ele>
        <time>2020-07-10T10:42:30Z</time>
      </trkpt>
      <trkpt lat="47.79066" lon="-3.42933">
        <ele>46.29</ele>
        <time>2020-07-10T10:42:31Z</time>
      </trkpt>
      <trkpt lat="47.79069" lon="-3.42933">
        <ele>46.44</ele>
        <time>2020-07-10T10:42:32Z</time>
      </trkpt>
      <trkpt lat="47.79073" lon="-3.42932">
        <ele>46.58</ele>
        <time>2020-07-10T10:42:33Z</time>
      </trkpt>
      <trkpt lat="47.79078" lon="-3.42932">
        <ele>46.73</ele>
        <time>2020-07-10T10:42:34Z</time>
      </trkpt>
      <trkpt lat="47.79082" lon="-3.42932">
        <ele>46.87</ele>
        <time>2020-07-10T10:42:35Z</time>
      </trkpt>
      <trkpt lat="47.79086" lon="-3.42932">
        <ele>46.99</ele>
        <time>2020-07-10T10:42:36Z</time>
      </trkpt>
      <trkpt lat="47.7909" lon="-3.42931">
        <ele>47.08</ele>
        <time>2020-07-10T10:42:37Z</time>
      </trkpt>
      <trkpt lat="47.79095" lon="-3.4293">
        <ele>47.16</ele>
        <time>2020-07-10T10:42:38Z</time>
      </trkpt>
      <trkpt lat="47.79099" lon="-3.42929">
        <ele>47.23</ele>
        <time>2020-07-10T10:42:39Z</time>
      </trkpt>
      <trkpt lat="47.79104" lon="-3.42928">
        <ele>47.28</ele>
        <time>2020-07-10T10:42:40Z</time>
      </trkpt>
      <trkpt lat="47.79108" lon="-3.42928">
        <ele>47.33</ele>
        <time>2020-07-10T10:42:41Z</time>
      </trkpt>
      <trkpt lat="47.79113" lon="-3.42927">
        <ele>47.4</ele>
        <time>2020-07-10T10:42:42Z</time>
      </trkpt>
      <trkpt lat="47.79117" lon="-3.42926">
        <ele>47.52</ele>
        <time>2020-07-10T10:42:43Z</time>
      </trkpt>
      <trkpt lat="47.79122" lon="-3.42926">
        <ele>47.68</ele>
        <time>2020-07-10T10:42:44Z</time>
      </trkpt>
      <trkpt lat="47.79127" lon="-3.42926">
        <ele>47.85</ele>
        <time>2020-07-10T10:42:45Z</time>
      </trkpt>
      <trkpt lat="47.79132" lon="-3.42926">
        <ele>48.03</ele>
        <time>2020-07-10T10:42:46Z</time>
      </trkpt>
      <trkpt lat="47.79137" lon="-3.42926">
        <ele>48.21</ele>
        <time>2020-07-10T10:42:47Z</time>
      </trkpt>
      <trkpt lat="47.79142" lon="-3.42926">
        <ele>48.31</ele>
        <time>2020-07-10T10:42:48Z</time>
      </trkpt>
      <trkpt lat="47.79146" lon="-3.42927">
        <ele>48.36</ele>
        <time>2020-07-10T10:42:49Z</time>
      </trkpt>
      <trkpt lat="47.79151" lon="-3.42928">
        <ele>48.4</ele>
        <time>2020-07-10T10:42:50Z</time>
      </trkpt>
      <trkpt lat="47.79156" lon="-3.4293">
        <ele>48.44</ele>
        <time>2020-07-10T10:42:51Z</time>
      </trkpt>
      <trkpt lat="47.7916" lon="-3.4293">
        <ele>48.48</ele>
        <time>2020-07-10T10:42:52Z</time>
      </trkpt>
      <trkpt lat="47.79165" lon="-3.42932">
        <ele>48.53</ele>
        <time>2020-07-10T10:42:53Z</time>
      </trkpt>
      <trkpt lat="47.7917" lon="-3.42934">
        <ele>48.68</ele>
        <time>2020-07-10T10:42:54Z</time>
      </trkpt>
      <trkpt lat="47.79175" lon="-3.42936">
        <ele>48.89</ele>
        <time>2020-07-10T10:42:55Z</time>
      </trkpt>
      <trkpt lat="47.7918" lon="-3.42937">
        <ele>49.11</ele>
        <time>2020-07-10T10:42:56Z</time>
      </trkpt>
      <trkpt lat="47.79185" lon="-3.42939">
        <ele>49.36</ele>
        <time>2020-07-10T10:42:57Z</time>
      </trkpt>
      <trkpt lat="47.7919" lon="-3.42941">
        <ele>49.6</ele>
        <time>2020-07-10T10:42:58Z</time>
      </trkpt>
      <trkpt lat="47.79195" lon="-3.42942">
        <ele>49.84</ele>
        <time>2020-07-10T10:42:59Z</time>
      </trkpt>
      <trkpt lat="47.79199" lon="-3.42946">
        <ele>50.11</ele>
        <time>2020-07-10T10:43:00Z</time>
      </trkpt>
      <trkpt lat="47.79204" lon="-3.42948">
        <ele>50.35</ele>
        <time>2020-07-10T10:43:01Z</time>
      </trkpt>
      <trkpt lat="47.79209" lon="-3.42949">
        <ele>50.59</ele>
        <time>2020-07-10T10:43:02Z</time>
      </trkpt>
      <trkpt lat="47.79214" lon="-3.42951">
        <ele>50.82</ele>
        <time>2020-07-10T10:43:03Z</time>
      </trkpt>
      <trkpt lat="47.79219" lon="-3.42952">
        <ele>51.03</ele>
        <time>2020-07-10T10:43:04Z</time>
      </trkpt>
      <trkpt lat="47.79222" lon="-3.42952">
        <ele>51.2</ele>
        <time>2020-07-10T10:43:05Z</time>
      </trkpt>
      <trkpt lat="47.79227" lon="-3.42952">
        <ele>51.26</ele>
        <time>2020-07-10T10:43:06Z</time>
      </trkpt>
      <trkpt lat="47.79232" lon="-3.42953">
        <ele>51.3</ele>
        <time>2020-07-10T10:43:07Z</time>
      </trkpt>
      <trkpt lat="47.79237" lon="-3.42954">
        <ele>51.32</ele>
        <time>2020-07-10T10:43:08Z</time>
      </trkpt>
      <trkpt lat="47.79242" lon="-3.42954">
        <ele>51.33</ele>
        <time>2020-07-10T10:43:09Z</time>
      </trkpt>
      <trkpt lat="47.79246" lon="-3.42954">
        <ele>51.33</ele>
        <time>2020-07-10T10:43:10Z</time>
      </trkpt>
      <trkpt lat="47.79251" lon="-3.42953">
        <ele>51.3</ele>
        <time>2020-07-10T10:43:11Z</time>
      </trkpt>
      <trkpt lat="47.79256" lon="-3.42952">
        <ele>51.23</ele>
        <time>2020-07-10T10:43:12Z</time>
      </trkpt>
      <trkpt lat="47.79261" lon="-3.4295">
        <ele>51.15</ele>
        <time>2020-07-10T10:43:13Z</time>
      </trkpt>
      <trkpt lat="47.79266" lon="-3.42948">
        <ele>51.08</ele>
        <time>2020-07-10T10:43:14Z</time>
      </trkpt>
      <trkpt lat="47.79271" lon="-3.42945">
        <ele>51.03</ele>
        <time>2020-07-10T10:43:15Z</time>
      </trkpt>
      <trkpt lat="47.79276" lon="-3.42942">
        <ele>50.94</ele>
        <time>2020-07-10T10:43:16Z</time>
      </trkpt>
      <trkpt lat="47.7928" lon="-3.42939">
        <ele>50.79</ele>
        <time>2020-07-10T10:43:17Z</time>
      </trkpt>
      <trkpt lat="47.79284" lon="-3.42934">
        <ele>50.58</ele>
        <time>2020-07-10T10:43:18Z</time>
      </trkpt>
      <trkpt lat="47.79288" lon="-3.42931">
        <ele>50.4</ele>
        <time>2020-07-10T10:43:19Z</time>
      </trkpt>
      <trkpt lat="47.79293" lon="-3.42928">
        <ele>50.25</ele>
        <time>2020-07-10T10:43:20Z</time>
      </trkpt>
      <trkpt lat="47.79298" lon="-3.42926">
        <ele>50.14</ele>
        <time>2020-07-10T10:43:21Z</time>
      </trkpt>
      <trkpt lat="47.79302" lon="-3.42921">
        <ele>50.06</ele>
        <time>2020-07-10T10:43:22Z</time>
      </trkpt>
      <trkpt lat="47.79306" lon="-3.42916">
        <ele>49.99</ele>
        <time>2020-07-10T10:43:23Z</time>
      </trkpt>
      <trkpt lat="47.79311" lon="-3.42912">
        <ele>49.74</ele>
        <time>2020-07-10T10:43:24Z</time>
      </trkpt>
      <trkpt lat="47.79316" lon="-3.42908">
        <ele>49.46</ele>
        <time>2020-07-10T10:43:25Z</time>
      </trkpt>
      <trkpt lat="47.79321" lon="-3.42904">
        <ele>49.15</ele>
        <time>2020-07-10T10:43:26Z</time>
      </trkpt>
      <trkpt lat="47.79325" lon="-3.42901">
        <ele>48.86</ele>
        <time>2020-07-10T10:43:27Z</time>
      </trkpt>
      <trkpt lat="47.7933" lon="-3.42898">
        <ele>48.57</ele>
        <time>2020-07-10T10:43:28Z</time>
      </trkpt>
      <trkpt lat="47.79335" lon="-3.42896">
        <ele>48.31</ele>
        <time>2020-07-10T10:43:29Z</time>
      </trkpt>
      <trkpt lat="47.79339" lon="-3.42893">
        <ele>48.04</ele>
        <time>2020-07-10T10:43:30Z</time>
      </trkpt>
      <trkpt lat="47.79343" lon="-3.42888">
        <ele>47.76</ele>
        <time>2020-07-10T10:43:31Z</time>
      </trkpt>
      <trkpt lat="47.79347" lon="-3.42884">
        <ele>47.47</ele>
        <time>2020-07-10T10:43:32Z</time>
      </trkpt>
      <trkpt lat="47.7935" lon="-3.42878">
        <ele>47.16</ele>
        <time>2020-07-10T10:43:33Z</time>
      </trkpt>
      <trkpt lat="47.79352" lon="-3.42873">
        <ele>46.87</ele>
        <time>2020-07-10T10:43:34Z</time>
      </trkpt>
      <trkpt lat="47.79351" lon="-3.42866">
        <ele>46.64</ele>
        <time>2020-07-10T10:43:35Z</time>
      </trkpt>
      <trkpt lat="47.79349" lon="-3.4286">
        <ele>46.46</ele>
        <time>2020-07-10T10:43:36Z</time>
      </trkpt>
      <trkpt lat="47.79345" lon="-3.42854">
        <ele>46.36</ele>
        <time>2020-07-10T10:43:37Z</time>
      </trkpt>
      <trkpt lat="47.79341" lon="-3.42847">
        <ele>46.27</ele>
        <time>2020-07-10T10:43:38Z</time>
      </trkpt>
      <trkpt lat="47.79337" lon="-3.42841">
        <ele>46.19</ele>
        <time>2020-07-10T10:43:39Z</time>
      </trkpt>
      <trkpt lat="47.79332" lon="-3.42835">
        <ele>46.12</ele>
        <time>2020-07-10T10:43:40Z</time>
      </trkpt>
      <trkpt lat="47.79328" lon="-3.42828">
        <ele>46.02</ele>
        <time>2020-07-10T10:43:41Z</time>
      </trkpt>
      <trkpt lat="47.79324" lon="-3.42821">
        <ele>45.82</ele>
        <time>2020-07-10T10:43:42Z</time>
      </trkpt>
      <trkpt lat="47.79319" lon="-3.42814">
        <ele>45.56</ele>
        <time>2020-07-10T10:43:43Z</time>
      </trkpt>
      <trkpt lat="47.79314" lon="-3.42806">
        <ele>45.2</ele>
        <time>2020-07-10T10:43:44Z</time>
      </trkpt>
      <trkpt lat="47.79309" lon="-3.42799">
        <ele>45.02</ele>
        <time>2020-07-10T10:43:45Z</time>
      </trkpt>
      <trkpt lat="47.79305" lon="-3.42793">
        <ele>45.02</ele>
        <time>2020-07-10T10:43:46Z</time>
      </trkpt>
      <trkpt lat="47.79301" lon="-3.42786">
        <ele>45.15</ele>
        <time>2020-07-10T10:43:47Z</time>
      </trkpt>
      <trkpt lat="47.79297" lon="-3.42779">
        <ele>45.27</ele>
        <time>2020-07-10T10:43:48Z</time>
      </trkpt>
      <trkpt lat="47.79293" lon="-3.42772">
        <ele>45.25</ele>
        <time>2020-07-10T10:43:49Z</time>
      </trkpt>
      <trkpt lat="47.7929" lon="-3.42766">
        <ele>45.18</ele>
        <time>2020-07-10T10:43:50Z</time>
      </trkpt>
      <trkpt lat="47.79286" lon="-3.4276">
        <ele>45.1</ele>
        <time>2020-07-10T10:43:51Z</time>
      </trkpt>
      <trkpt lat="47.79282" lon="-3.42754">
        <ele>45.02</ele>
        <time>2020-07-10T10:43:52Z</time>
      </trkpt>
      <trkpt lat="47.79279" lon="-3.42749">
        <ele>44.95</ele>
        <time>2020-07-10T10:43:53Z</time>
      </trkpt>
      <trkpt lat="47.79275" lon="-3.42743">
        <ele>44.89</ele>
        <time>2020-07-10T10:43:54Z</time>
      </trkpt>
      <trkpt lat="47.7927" lon="-3.42737">
        <ele>44.82</ele>
        <time>2020-07-10T10:43:55Z</time>
      </trkpt>
      <trkpt lat="47.79266" lon="-3.42731">
        <ele>44.76</ele>
        <time>2020-07-10T10:43:56Z</time>
      </trkpt>
      <trkpt lat="47.79262" lon="-3.42725">
        <ele>44.7</ele>
        <time>2020-07-10T10:43:57Z</time>
      </trkpt>
      <trkpt lat="47.79258" lon="-3.42719">
        <ele>44.63</ele>
        <time>2020-07-10T10:43:58Z</time>
      </trkpt>
      <trkpt lat="47.79254" lon="-3.42712">
        <ele>44.54</ele>
        <time>2020-07-10T10:43:59Z</time>
      </trkpt>
      <trkpt lat="47.7925" lon="-3.42706">
        <ele>44.46</ele>
        <time>2020-07-10T10:44:00Z</time>
      </trkpt>
      <trkpt lat="47.79246" lon="-3.427">
        <ele>44.38</ele>
        <time>2020-07-10T10:44:01Z</time>
      </trkpt>
      <trkpt lat="47.79242" lon="-3.42695">
        <ele>44.32</ele>
        <time>2020-07-10T10:44:02Z</time>
      </trkpt>
      <trkpt lat="47.79238" lon="-3.42689">
        <ele>44.34</ele>
        <time>2020-07-10T10:44:03Z</time>
      </trkpt>
      <trkpt lat="47.79234" lon="-3.42683">
        <ele>44.35</ele>
        <time>2020-07-10T10:44:04Z</time>
      </trkpt>
      <trkpt lat="47.79229" lon="-3.42678">
        <ele>44.32</ele>
        <time>2020-07-10T10:44:05Z</time>
      </trkpt>
      <trkpt lat="47.79224" lon="-3.42673">
        <ele>44.25</ele>
        <time>2020-07-10T10:44:06Z</time>
      </trkpt>
      <trkpt lat="47.7922" lon="-3.42668">
        <ele>44.11</ele>
        <time>2020-07-10T10:44:07Z</time>
      </trkpt>
      <trkpt lat="47.79215" lon="-3.42663">
        <ele>43.95</ele>
        <time>2020-07-10T10:44:08Z</time>
      </trkpt>
      <trkpt lat="47.7921" lon="-3.42658">
        <ele>43.78</ele>
        <time>2020-07-10T10:44:09Z</time>
      </trkpt>
      <trkpt lat="47.79204" lon="-3.42654">
        <ele>43.61</ele>
        <time>2020-07-10T10:44:10Z</time>
      </trkpt>
      <trkpt lat="47.79198" lon="-3.42649">
        <ele>43.43</ele>
        <time>2020-07-10T10:44:11Z</time>
      </trkpt>
      <trkpt lat="47.79192" lon="-3.42643">
        <ele>43.24</ele>
        <time>2020-07-10T10:44:12Z</time>
      </trkpt>
      <trkpt lat="47.79186" lon="-3.42638">
        <ele>43.07</ele>
        <time>2020-07-10T10:44:13Z</time>
      </trkpt>
      <trkpt lat="47.7918" lon="-3.42631">
        <ele>43.02</ele>
        <time>2020-07-10T10:44:14Z</time>
      </trkpt>
      <trkpt lat="47.79174" lon="-3.42625">
        <ele>43.01</ele>
        <time>2020-07-10T10:44:15Z</time>
      </trkpt>
      <trkpt lat="47.79169" lon="-3.42619">
        <ele>43</ele>
        <time>2020-07-10T10:44:16Z</time>
      </trkpt>
      <trkpt lat="47.79164" lon="-3.42615">
        <ele>43.07</ele>
        <time>2020-07-10T10:44:17Z</time>
      </trkpt>
      <trkpt lat="47.79158" lon="-3.42612">
        <ele>43.23</ele>
        <time>2020-07-10T10:44:18Z</time>
      </trkpt>
      <trkpt lat="47.79153" lon="-3.42609">
        <ele>43.45</ele>
        <time>2020-07-10T10:44:19Z</time>
      </trkpt>
      <trkpt lat="47.79148" lon="-3.42604">
        <ele>43.67</ele>
        <time>2020-07-10T10:44:20Z</time>
      </trkpt>
      <trkpt lat="47.79145" lon="-3.42598">
        <ele>43.82</ele>
        <time>2020-07-10T10:44:21Z</time>
      </trkpt>
      <trkpt lat="47.79144" lon="-3.42592">
        <ele>43.91</ele>
        <time>2020-07-10T10:44:22Z</time>
      </trkpt>
      <trkpt lat="47.79143" lon="-3.42584">
        <ele>43.97</ele>
        <time>2020-07-10T10:44:23Z</time>
      </trkpt>
      <trkpt lat="47.79143" lon="-3.42576">
        <ele>43.99</ele>
        <time>2020-07-10T10:44:24Z</time>
      </trkpt>
      <trkpt lat="47.79141" lon="-3.42569">
        <ele>44</ele>
        <time>2020-07-10T10:44:25Z</time>
      </trkpt>
      <trkpt lat="47.79138" lon="-3.42562">
        <ele>44.02</ele>
        <time>2020-07-10T10:44:26Z</time>
      </trkpt>
      <trkpt lat="47.79135" lon="-3.42555">
        <ele>44.11</ele>
        <time>2020-07-10T10:44:27Z</time>
      </trkpt>
      <trkpt lat="47.79132" lon="-3.42549">
        <ele>44.51</ele>
        <time>2020-07-10T10:44:28Z</time>
      </trkpt>
      <trkpt lat="47.79129" lon="-3.42542">
        <ele>44.98</ele>
        <time>2020-07-10T10:44:29Z</time>
      </trkpt>
      <trkpt lat="47.79126" lon="-3.42535">
        <ele>45.43</ele>
        <time>2020-07-10T10:44:30Z</time>
      </trkpt>
      <trkpt lat="47.79123" lon="-3.42528">
        <ele>45.82</ele>
        <time>2020-07-10T10:44:31Z</time>
      </trkpt>
      <trkpt lat="47.7912" lon="-3.42522">
        <ele>46</ele>
        <time>2020-07-10T10:44:32Z</time>
      </trkpt>
      <trkpt lat="47.79117" lon="-3.42515">
        <ele>46.06</ele>
        <time>2020-07-10T10:44:33Z</time>
      </trkpt>
      <trkpt lat="47.79113" lon="-3.42509">
        <ele>46.06</ele>
        <time>2020-07-10T10:44:34Z</time>
      </trkpt>
      <trkpt lat="47.7911" lon="-3.42502">
        <ele>46.04</ele>
        <time>2020-07-10T10:44:35Z</time>
      </trkpt>
      <trkpt lat="47.79108" lon="-3.42496">
        <ele>46.2</ele>
        <time>2020-07-10T10:44:36Z</time>
      </trkpt>
      <trkpt lat="47.79105" lon="-3.42489">
        <ele>46.43</ele>
        <time>2020-07-10T10:44:37Z</time>
      </trkpt>
      <trkpt lat="47.79102" lon="-3.42483">
        <ele>46.66</ele>
        <time>2020-07-10T10:44:38Z</time>
      </trkpt>
      <trkpt lat="47.79099" lon="-3.42476">
        <ele>46.84</ele>
        <time>2020-07-10T10:44:39Z</time>
      </trkpt>
      <trkpt lat="47.79096" lon="-3.42469">
        <ele>46.99</ele>
        <time>2020-07-10T10:44:40Z</time>
      </trkpt>
      <trkpt lat="47.79093" lon="-3.42463">
        <ele>47.15</ele>
        <time>2020-07-10T10:44:41Z</time>
      </trkpt>
      <trkpt lat="47.7909" lon="-3.42456">
        <ele>47.36</ele>
        <time>2020-07-10T10:44:42Z</time>
      </trkpt>
      <trkpt lat="47.79087" lon="-3.42449">
        <ele>47.61</ele>
        <time>2020-07-10T10:44:43Z</time>
      </trkpt>
      <trkpt lat="47.79084" lon="-3.42442">
        <ele>47.86</ele>
        <time>2020-07-10T10:44:44Z</time>
      </trkpt>
      <trkpt lat="47.79081" lon="-3.42436">
        <ele>47.97</ele>
        <time>2020-07-10T10:44:45Z</time>
      </trkpt>
      <trkpt lat="47.79078" lon="-3.42429">
        <ele>48.06</ele>
        <time>2020-07-10T10:44:46Z</time>
      </trkpt>
      <trkpt lat="47.79075" lon="-3.42422">
        <ele>48.19</ele>
        <time>2020-07-10T10:44:47Z</time>
      </trkpt>
      <trkpt lat="47.79072" lon="-3.42415">
        <ele>48.35</ele>
        <time>2020-07-10T10:44:48Z</time>
      </trkpt>
      <trkpt lat="47.79069" lon="-3.42408">
        <ele>48.48</ele>
        <time>2020-07-10T10:44:49Z</time>
      </trkpt>
      <trkpt lat="47.79065" lon="-3.42402">
        <ele>48.6</ele>
        <time>2020-07-10T10:44:50Z</time>
      </trkpt>
      <trkpt lat="47.79062" lon="-3.42395">
        <ele>48.71</ele>
        <time>2020-07-10T10:44:51Z</time>
      </trkpt>
      <trkpt lat="47.79059" lon="-3.42388">
        <ele>48.83</ele>
        <time>2020-07-10T10:44:52Z</time>
      </trkpt>
      <trkpt lat="47.79056" lon="-3.42381">
        <ele>48.93</ele>
        <time>2020-07-10T10:44:53Z</time>
      </trkpt>
      <trkpt lat="47.79054" lon="-3.42374">
        <ele>49</ele>
        <time>2020-07-10T10:44:54Z</time>
      </trkpt>
      <trkpt lat="47.7905" lon="-3.42367">
        <ele>49.1</ele>
        <time>2020-07-10T10:44:55Z</time>
      </trkpt>
      <trkpt lat="47.79047" lon="-3.4236">
        <ele>49.24</ele>
        <time>2020-07-10T10:44:56Z</time>
      </trkpt>
      <trkpt lat="47.79045" lon="-3.42353">
        <ele>49.34</ele>
        <time>2020-07-10T10:44:57Z</time>
      </trkpt>
      <trkpt lat="47.79042" lon="-3.42345">
        <ele>49.43</ele>
        <time>2020-07-10T10:44:58Z</time>
      </trkpt>
      <trkpt lat="47.79039" lon="-3.42338">
        <ele>49.53</ele>
        <time>2020-07-10T10:44:59Z</time>
      </trkpt>
      <trkpt lat="47.79037" lon="-3.4233">
        <ele>49.69</ele>
        <time>2020-07-10T10:45:00Z</time>
      </trkpt>
      <trkpt lat="47.79034" lon="-3.42324">
        <ele>49.93</ele>
        <time>2020-07-10T10:45:01Z</time>
      </trkpt>
      <trkpt lat="47.79032" lon="-3.42317">
        <ele>50.25</ele>
        <time>2020-07-10T10:45:02Z</time>
      </trkpt>
      <trkpt lat="47.7903" lon="-3.42309">
        <ele>50.59</ele>
        <time>2020-07-10T10:45:03Z</time>
      </trkpt>
      <trkpt lat="47.79028" lon="-3.42302">
        <ele>50.78</ele>
        <time>2020-07-10T10:45:04Z</time>
      </trkpt>
      <trkpt lat="47.79026" lon="-3.42295">
        <ele>50.67</ele>
        <time>2020-07-10T10:45:05Z</time>
      </trkpt>
      <trkpt lat="47.79024" lon="-3.42288">
        <ele>50.52</ele>
        <time>2020-07-10T10:45:06Z</time>
      </trkpt>
      <trkpt lat="47.79022" lon="-3.42282">
        <ele>50.38</ele>
        <time>2020-07-10T10:45:07Z</time>
      </trkpt>
      <trkpt lat="47.7902" lon="-3.42276">
        <ele>50.24</ele>
        <time>2020-07-10T10:45:08Z</time>
      </trkpt>
      <trkpt lat="47.79018" lon="-3.4227">
        <ele>50.06</ele>
        <time>2020-07-10T10:45:09Z</time>
      </trkpt>
      <trkpt lat="47.79016" lon="-3.42264">
        <ele>49.91</ele>
        <time>2020-07-10T10:45:10Z</time>
      </trkpt>
      <trkpt lat="47.79014" lon="-3.42258">
        <ele>49.79</ele>
        <time>2020-07-10T10:45:11Z</time>
      </trkpt>
      <trkpt lat="47.79013" lon="-3.42252">
        <ele>49.72</ele>
        <time>2020-07-10T10:45:12Z</time>
      </trkpt>
      <trkpt lat="47.79011" lon="-3.42246">
        <ele>49.73</ele>
        <time>2020-07-10T10:45:13Z</time>
      </trkpt>
      <trkpt lat="47.79008" lon="-3.42239">
        <ele>49.82</ele>
        <time>2020-07-10T10:45:14Z</time>
      </trkpt>
      <trkpt lat="47.79005" lon="-3.42232">
        <ele>49.9</ele>
        <time>2020-07-10T10:45:15Z</time>
      </trkpt>
      <trkpt lat="47.79002" lon="-3.42225">
        <ele>49.95</ele>
        <time>2020-07-10T10:45:16Z</time>
      </trkpt>
      <trkpt lat="47.78998" lon="-3.42218">
        <ele>49.83</ele>
        <time>2020-07-10T10:45:17Z</time>
      </trkpt>
      <trkpt lat="47.78995" lon="-3.42211">
        <ele>49.53</ele>
        <time>2020-07-10T10:45:18Z</time>
      </trkpt>
      <trkpt lat="47.78991" lon="-3.42204">
        <ele>49.18</ele>
        <time>2020-07-10T10:45:19Z</time>
      </trkpt>
      <trkpt lat="47.78987" lon="-3.42198">
        <ele>48.84</ele>
        <time>2020-07-10T10:45:20Z</time>
      </trkpt>
      <trkpt lat="47.78984" lon="-3.42191">
        <ele>48.61</ele>
        <time>2020-07-10T10:45:21Z</time>
      </trkpt>
      <trkpt lat="47.7898" lon="-3.42184">
        <ele>48.5</ele>
        <time>2020-07-10T10:45:22Z</time>
      </trkpt>
      <trkpt lat="47.78977" lon="-3.42178">
        <ele>48.38</ele>
        <time>2020-07-10T10:45:23Z</time>
      </trkpt>
      <trkpt lat="47.78973" lon="-3.42171">
        <ele>48.23</ele>
        <time>2020-07-10T10:45:24Z</time>
      </trkpt>
      <trkpt lat="47.78969" lon="-3.42165">
        <ele>48.15</ele>
        <time>2020-07-10T10:45:25Z</time>
      </trkpt>
      <trkpt lat="47.78964" lon="-3.4216">
        <ele>48.19</ele>
        <time>2020-07-10T10:45:26Z</time>
      </trkpt>
      <trkpt lat="47.78961" lon="-3.42154">
        <ele>48.22</ele>
        <time>2020-07-10T10:45:27Z</time>
      </trkpt>
      <trkpt lat="47.78957" lon="-3.42148">
        <ele>48.19</ele>
        <time>2020-07-10T10:45:28Z</time>
      </trkpt>
      <trkpt lat="47.78954" lon="-3.42141">
        <ele>48.09</ele>
        <time>2020-07-10T10:45:29Z</time>
      </trkpt>
      <trkpt lat="47.78951" lon="-3.42133">
        <ele>47.89</ele>
        <time>2020-07-10T10:45:30Z</time>
      </trkpt>
      <trkpt lat="47.78948" lon="-3.42125">
        <ele>47.62</ele>
        <time>2020-07-10T10:45:31Z</time>
      </trkpt>
      <trkpt lat="47.78944" lon="-3.42118">
        <ele>47.35</ele>
        <time>2020-07-10T10:45:32Z</time>
      </trkpt>
      <trkpt lat="47.78941" lon="-3.42109">
        <ele>47.19</ele>
        <time>2020-07-10T10:45:33Z</time>
      </trkpt>
      <trkpt lat="47.78937" lon="-3.42102">
        <ele>47.18</ele>
        <time>2020-07-10T10:45:34Z</time>
      </trkpt>
      <trkpt lat="47.78933" lon="-3.42094">
        <ele>47.16</ele>
        <time>2020-07-10T10:45:35Z</time>
      </trkpt>
      <trkpt lat="47.7893" lon="-3.42087">
        <ele>47.09</ele>
        <time>2020-07-10T10:45:36Z</time>
      </trkpt>
      <trkpt lat="47.78925" lon="-3.42079">
        <ele>46.95</ele>
        <time>2020-07-10T10:45:37Z</time>
      </trkpt>
      <trkpt lat="47.78921" lon="-3.42071">
        <ele>46.72</ele>
        <time>2020-07-10T10:45:38Z</time>
      </trkpt>
      <trkpt lat="47.78917" lon="-3.42064">
        <ele>46.43</ele>
        <time>2020-07-10T10:45:39Z</time>
      </trkpt>
      <trkpt lat="47.78913" lon="-3.42056">
        <ele>46.23</ele>
        <time>2020-07-10T10:45:40Z</time>
      </trkpt>
      <trkpt lat="47.78909" lon="-3.42048">
        <ele>46.41</ele>
        <time>2020-07-10T10:45:41Z</time>
      </trkpt>
      <trkpt lat="47.78905" lon="-3.4204">
        <ele>46.64</ele>
        <time>2020-07-10T10:45:42Z</time>
      </trkpt>
      <trkpt lat="47.78901" lon="-3.42033">
        <ele>46.84</ele>
        <time>2020-07-10T10:45:43Z</time>
      </trkpt>
      <trkpt lat="47.78897" lon="-3.42025">
        <ele>46.95</ele>
        <time>2020-07-10T10:45:44Z</time>
      </trkpt>
      <trkpt lat="47.78893" lon="-3.42018">
        <ele>46.99</ele>
        <time>2020-07-10T10:45:45Z</time>
      </trkpt>
      <trkpt lat="47.78888" lon="-3.42012">
        <ele>47</ele>
        <time>2020-07-10T10:45:46Z</time>
      </trkpt>
      <trkpt lat="47.78884" lon="-3.42006">
        <ele>47</ele>
        <time>2020-07-10T10:45:47Z</time>
      </trkpt>
      <trkpt lat="47.78879" lon="-3.42">
        <ele>47</ele>
        <time>2020-07-10T10:45:48Z</time>
      </trkpt>
      <trkpt lat="47.78874" lon="-3.41994">
        <ele>47</ele>
        <time>2020-07-10T10:45:49Z</time>
      </trkpt>
      <trkpt lat="47.78869" lon="-3.41988">
        <ele>47</ele>
        <time>2020-07-10T10:45:50Z</time>
      </trkpt>
      <trkpt lat="47.78865" lon="-3.41982">
        <ele>47</ele>
        <time>2020-07-10T10:45:51Z</time>
      </trkpt>
      <trkpt lat="47.78861" lon="-3.41975">
        <ele>47</ele>
        <time>2020-07-10T10:45:52Z</time>
      </trkpt>
      <trkpt lat="47.78857" lon="-3.41969">
        <ele>47.19</ele>
        <time>2020-07-10T10:45:53Z</time>
      </trkpt>
      <trkpt lat="47.78852" lon="-3.41962">
        <ele>47.52</ele>
        <time>2020-07-10T10:45:54Z</time>
      </trkpt>
      <trkpt lat="47.78849" lon="-3.41955">
        <ele>47.89</ele>
        <time>2020-07-10T10:45:55Z</time>
      </trkpt>
      <trkpt lat="47.78847" lon="-3.41947">
        <ele>48.25</ele>
        <time>2020-07-10T10:45:56Z</time>
      </trkpt>
      <trkpt lat="47.78846" lon="-3.41939">
        <ele>48.57</ele>
        <time>2020-07-10T10:45:57Z</time>
      </trkpt>
      <trkpt lat="47.78847" lon="-3.41932">
        <ele>48.85</ele>
        <time>2020-07-10T10:45:58Z</time>
      </trkpt>
      <trkpt lat="47.78847" lon="-3.41924">
        <ele>49.13</ele>
        <time>2020-07-10T10:45:59Z</time>
      </trkpt>
      <trkpt lat="47.78849" lon="-3.41916">
        <ele>49.38</ele>
        <time>2020-07-10T10:46:00Z</time>
      </trkpt>
      <trkpt lat="47.78849" lon="-3.41908">
        <ele>49.64</ele>
        <time>2020-07-10T10:46:01Z</time>
      </trkpt>
      <trkpt lat="47.78849" lon="-3.41901">
        <ele>49.9</ele>
        <time>2020-07-10T10:46:02Z</time>
      </trkpt>
      <trkpt lat="47.78849" lon="-3.41893">
        <ele>50.15</ele>
        <time>2020-07-10T10:46:03Z</time>
      </trkpt>
      <trkpt lat="47.7885" lon="-3.41887">
        <ele>50.41</ele>
        <time>2020-07-10T10:46:04Z</time>
      </trkpt>
      <trkpt lat="47.78851" lon="-3.41879">
        <ele>50.77</ele>
        <time>2020-07-10T10:46:05Z</time>
      </trkpt>
      <trkpt lat="47.78851" lon="-3.41872">
        <ele>51.17</ele>
        <time>2020-07-10T10:46:06Z</time>
      </trkpt>
      <trkpt lat="47.78851" lon="-3.41865">
        <ele>51.59</ele>
        <time>2020-07-10T10:46:07Z</time>
      </trkpt>
      <trkpt lat="47.78851" lon="-3.41857">
        <ele>51.97</ele>
        <time>2020-07-10T10:46:08Z</time>
      </trkpt>
      <trkpt lat="47.78851" lon="-3.4185">
        <ele>52.26</ele>
        <time>2020-07-10T10:46:09Z</time>
      </trkpt>
      <trkpt lat="47.78851" lon="-3.41843">
        <ele>52.53</ele>
        <time>2020-07-10T10:46:10Z</time>
      </trkpt>
      <trkpt lat="47.78851" lon="-3.41836">
        <ele>52.78</ele>
        <time>2020-07-10T10:46:11Z</time>
      </trkpt>
      <trkpt lat="47.78851" lon="-3.4183">
        <ele>52.97</ele>
        <time>2020-07-10T10:46:12Z</time>
      </trkpt>
      <trkpt lat="47.78852" lon="-3.41823">
        <ele>53.08</ele>
        <time>2020-07-10T10:46:13Z</time>
      </trkpt>
      <trkpt lat="47.78852" lon="-3.41816">
        <ele>53.17</ele>
        <time>2020-07-10T10:46:14Z</time>
      </trkpt>
      <trkpt lat="47.78852" lon="-3.41809">
        <ele>53.25</ele>
        <time>2020-07-10T10:46:15Z</time>
      </trkpt>
      <trkpt lat="47.78853" lon="-3.41803">
        <ele>53.33</ele>
        <time>2020-07-10T10:46:16Z</time>
      </trkpt>
      <trkpt lat="47.78854" lon="-3.41796">
        <ele>53.46</ele>
        <time>2020-07-10T10:46:17Z</time>
      </trkpt>
      <trkpt lat="47.78855" lon="-3.41789">
        <ele>53.62</ele>
        <time>2020-07-10T10:46:18Z</time>
      </trkpt>
      <trkpt lat="47.78856" lon="-3.41781">
        <ele>53.81</ele>
        <time>2020-07-10T10:46:19Z</time>
      </trkpt>
      <trkpt lat="47.78857" lon="-3.41774">
        <ele>53.94</ele>
        <time>2020-07-10T10:46:20Z</time>
      </trkpt>
      <trkpt lat="47.78858" lon="-3.41767">
        <ele>53.98</ele>
        <time>2020-07-10T10:46:21Z</time>
      </trkpt>
      <trkpt lat="47.78859" lon="-3.4176">
        <ele>53.99</ele>
        <time>2020-07-10T10:46:22Z</time>
      </trkpt>
      <trkpt lat="47.7886" lon="-3.41752">
        <ele>54</ele>
        <time>2020-07-10T10:46:23Z</time>
      </trkpt>
      <trkpt lat="47.78861" lon="-3.41745">
        <ele>53.99</ele>
        <time>2020-07-10T10:46:24Z</time>
      </trkpt>
      <trkpt lat="47.78862" lon="-3.41738">
        <ele>53.97</ele>
        <time>2020-07-10T10:46:25Z</time>
      </trkpt>
      <trkpt lat="47.78863" lon="-3.4173">
        <ele>53.93</ele>
        <time>2020-07-10T10:46:26Z</time>
      </trkpt>
      <trkpt lat="47.78865" lon="-3.41722">
        <ele>53.89</ele>
        <time>2020-07-10T10:46:27Z</time>
      </trkpt>
      <trkpt lat="47.78865" lon="-3.41714">
        <ele>53.68</ele>
        <time>2020-07-10T10:46:28Z</time>
      </trkpt>
      <trkpt lat="47.78867" lon="-3.41705">
        <ele>53.43</ele>
        <time>2020-07-10T10:46:29Z</time>
      </trkpt>
      <trkpt lat="47.78868" lon="-3.41698">
        <ele>53.19</ele>
        <time>2020-07-10T10:46:30Z</time>
      </trkpt>
      <trkpt lat="47.78869" lon="-3.4169">
        <ele>53.06</ele>
        <time>2020-07-10T10:46:31Z</time>
      </trkpt>
      <trkpt lat="47.7887" lon="-3.41682">
        <ele>53.02</ele>
        <time>2020-07-10T10:46:32Z</time>
      </trkpt>
      <trkpt lat="47.78871" lon="-3.41674">
        <ele>53.01</ele>
        <time>2020-07-10T10:46:33Z</time>
      </trkpt>
      <trkpt lat="47.78872" lon="-3.41666">
        <ele>52.98</ele>
        <time>2020-07-10T10:46:34Z</time>
      </trkpt>
      <trkpt lat="47.78873" lon="-3.41658">
        <ele>52.77</ele>
        <time>2020-07-10T10:46:35Z</time>
      </trkpt>
      <trkpt lat="47.78875" lon="-3.4165">
        <ele>52.51</ele>
        <time>2020-07-10T10:46:36Z</time>
      </trkpt>
      <trkpt lat="47.78876" lon="-3.41642">
        <ele>52.24</ele>
        <time>2020-07-10T10:46:37Z</time>
      </trkpt>
      <trkpt lat="47.78876" lon="-3.41634">
        <ele>52.07</ele>
        <time>2020-07-10T10:46:38Z</time>
      </trkpt>
      <trkpt lat="47.78876" lon="-3.41627">
        <ele>52.02</ele>
        <time>2020-07-10T10:46:39Z</time>
      </trkpt>
      <trkpt lat="47.78878" lon="-3.4162">
        <ele>52.01</ele>
        <time>2020-07-10T10:46:40Z</time>
      </trkpt>
      <trkpt lat="47.78877" lon="-3.41613">
        <ele>52</ele>
        <time>2020-07-10T10:46:41Z</time>
      </trkpt>
      <trkpt lat="47.78877" lon="-3.41608">
        <ele>51.93</ele>
        <time>2020-07-10T10:46:42Z</time>
      </trkpt>
      <trkpt lat="47.78877" lon="-3.41603">
        <ele>51.77</ele>
        <time>2020-07-10T10:46:43Z</time>
      </trkpt>
      <trkpt lat="47.78877" lon="-3.41597">
        <ele>51.57</ele>
        <time>2020-07-10T10:46:44Z</time>
      </trkpt>
      <trkpt lat="47.78878" lon="-3.41591">
        <ele>51.36</ele>
        <time>2020-07-10T10:46:45Z</time>
      </trkpt>
      <trkpt lat="47.78879" lon="-3.41584">
        <ele>51.12</ele>
        <time>2020-07-10T10:46:46Z</time>
      </trkpt>
      <trkpt lat="47.7888" lon="-3.41577">
        <ele>50.98</ele>
        <time>2020-07-10T10:46:47Z</time>
      </trkpt>
      <trkpt lat="47.78881" lon="-3.41569">
        <ele>50.89</ele>
        <time>2020-07-10T10:46:48Z</time>
      </trkpt>
      <trkpt lat="47.7888" lon="-3.41561">
        <ele>50.78</ele>
        <time>2020-07-10T10:46:49Z</time>
      </trkpt>
      <trkpt lat="47.78879" lon="-3.41553">
        <ele>50.7</ele>
        <time>2020-07-10T10:46:50Z</time>
      </trkpt>
      <trkpt lat="47.78879" lon="-3.41545">
        <ele>50.67</ele>
        <time>2020-07-10T10:46:51Z</time>
      </trkpt>
      <trkpt lat="47.78881" lon="-3.41538">
        <ele>50.71</ele>
        <time>2020-07-10T10:46:52Z</time>
      </trkpt>
      <trkpt lat="47.78882" lon="-3.41529">
        <ele>50.73</ele>
        <time>2020-07-10T10:46:53Z</time>
      </trkpt>
      <trkpt lat="47.78881" lon="-3.41521">
        <ele>50.72</ele>
        <time>2020-07-10T10:46:54Z</time>
      </trkpt>
      <trkpt lat="47.78881" lon="-3.41514">
        <ele>50.7</ele>
        <time>2020-07-10T10:46:55Z</time>
      </trkpt>
      <trkpt lat="47.78881" lon="-3.41505">
        <ele>50.7</ele>
        <time>2020-07-10T10:46:56Z</time>
      </trkpt>
      <trkpt lat="47.78881" lon="-3.41497">
        <ele>50.62</ele>
        <time>2020-07-10T10:46:57Z</time>
      </trkpt>
      <trkpt lat="47.78881" lon="-3.41488">
        <ele>50.38</ele>
        <time>2020-07-10T10:46:58Z</time>
      </trkpt>
      <trkpt lat="47.78881" lon="-3.4148">
        <ele>50.11</ele>
        <time>2020-07-10T10:46:59Z</time>
      </trkpt>
      <trkpt lat="47.7888" lon="-3.41472">
        <ele>49.81</ele>
        <time>2020-07-10T10:47:00Z</time>
      </trkpt>
      <trkpt lat="47.7888" lon="-3.41463">
        <ele>49.73</ele>
        <time>2020-07-10T10:47:01Z</time>
      </trkpt>
      <trkpt lat="47.78881" lon="-3.41455">
        <ele>49.71</ele>
        <time>2020-07-10T10:47:02Z</time>
      </trkpt>
      <trkpt lat="47.7888" lon="-3.41446">
        <ele>49.69</ele>
        <time>2020-07-10T10:47:03Z</time>
      </trkpt>
      <trkpt lat="47.7888" lon="-3.41438">
        <ele>49.69</ele>
        <time>2020-07-10T10:47:04Z</time>
      </trkpt>
      <trkpt lat="47.7888" lon="-3.41429">
        <ele>49.68</ele>
        <time>2020-07-10T10:47:05Z</time>
      </trkpt>
      <trkpt lat="47.7888" lon="-3.4142">
        <ele>49.68</ele>
        <time>2020-07-10T10:47:06Z</time>
      </trkpt>
      <trkpt lat="47.7888" lon="-3.41411">
        <ele>49.54</ele>
        <time>2020-07-10T10:47:07Z</time>
      </trkpt>
      <trkpt lat="47.7888" lon="-3.41403">
        <ele>49.3</ele>
        <time>2020-07-10T10:47:08Z</time>
      </trkpt>
      <trkpt lat="47.7888" lon="-3.41394">
        <ele>49</ele>
        <time>2020-07-10T10:47:09Z</time>
      </trkpt>
      <trkpt lat="47.7888" lon="-3.41386">
        <ele>48.78</ele>
        <time>2020-07-10T10:47:10Z</time>
      </trkpt>
      <trkpt lat="47.7888" lon="-3.41376">
        <ele>48.7</ele>
        <time>2020-07-10T10:47:11Z</time>
      </trkpt>
      <trkpt lat="47.7888" lon="-3.41367">
        <ele>48.69</ele>
        <time>2020-07-10T10:47:12Z</time>
      </trkpt>
      <trkpt lat="47.7888" lon="-3.41358">
        <ele>48.66</ele>
        <time>2020-07-10T10:47:13Z</time>
      </trkpt>
      <trkpt lat="47.7888" lon="-3.4135">
        <ele>48.58</ele>
        <time>2020-07-10T10:47:14Z</time>
      </trkpt>
      <trkpt lat="47.7888" lon="-3.41342">
        <ele>48.49</ele>
        <time>2020-07-10T10:47:15Z</time>
      </trkpt>
      <trkpt lat="47.78879" lon="-3.41333">
        <ele>48.36</ele>
        <time>2020-07-10T10:47:16Z</time>
      </trkpt>
      <trkpt lat="47.78879" lon="-3.41324">
        <ele>48.16</ele>
        <time>2020-07-10T10:47:17Z</time>
      </trkpt>
      <trkpt lat="47.78879" lon="-3.41316">
        <ele>47.96</ele>
        <time>2020-07-10T10:47:18Z</time>
      </trkpt>
      <trkpt lat="47.78879" lon="-3.41308">
        <ele>47.77</ele>
        <time>2020-07-10T10:47:19Z</time>
      </trkpt>
      <trkpt lat="47.78879" lon="-3.41299">
        <ele>47.51</ele>
        <time>2020-07-10T10:47:20Z</time>
      </trkpt>
      <trkpt lat="47.78879" lon="-3.41291">
        <ele>47.23</ele>
        <time>2020-07-10T10:47:21Z</time>
      </trkpt>
      <trkpt lat="47.7888" lon="-3.41282">
        <ele>46.94</ele>
        <time>2020-07-10T10:47:22Z</time>
      </trkpt>
      <trkpt lat="47.78881" lon="-3.41273">
        <ele>46.67</ele>
        <time>2020-07-10T10:47:23Z</time>
      </trkpt>
      <trkpt lat="47.78882" lon="-3.41265">
        <ele>46.42</ele>
        <time>2020-07-10T10:47:24Z</time>
      </trkpt>
      <trkpt lat="47.78884" lon="-3.41257">
        <ele>46.17</ele>
        <time>2020-07-10T10:47:25Z</time>
      </trkpt>
      <trkpt lat="47.78886" lon="-3.41247">
        <ele>45.83</ele>
        <time>2020-07-10T10:47:26Z</time>
      </trkpt>
      <trkpt lat="47.78889" lon="-3.41238">
        <ele>45.32</ele>
        <time>2020-07-10T10:47:27Z</time>
      </trkpt>
      <trkpt lat="47.78892" lon="-3.41227">
        <ele>44.8</ele>
        <time>2020-07-10T10:47:28Z</time>
      </trkpt>
      <trkpt lat="47.78895" lon="-3.41218">
        <ele>44.49</ele>
        <time>2020-07-10T10:47:29Z</time>
      </trkpt>
      <trkpt lat="47.78898" lon="-3.41208">
        <ele>44.36</ele>
        <time>2020-07-10T10:47:30Z</time>
      </trkpt>
      <trkpt lat="47.78901" lon="-3.41197">
        <ele>44.18</ele>
        <time>2020-07-10T10:47:31Z</time>
      </trkpt>
      <trkpt lat="47.78904" lon="-3.41187">
        <ele>43.9</ele>
        <time>2020-07-10T10:47:32Z</time>
      </trkpt>
      <trkpt lat="47.78908" lon="-3.41178">
        <ele>43.7</ele>
        <time>2020-07-10T10:47:33Z</time>
      </trkpt>
      <trkpt lat="47.7891" lon="-3.41168">
        <ele>43.6</ele>
        <time>2020-07-10T10:47:34Z</time>
      </trkpt>
      <trkpt lat="47.78913" lon="-3.41159">
        <ele>43.71</ele>
        <time>2020-07-10T10:47:35Z</time>
      </trkpt>
      <trkpt lat="47.78916" lon="-3.41149">
        <ele>43.86</ele>
        <time>2020-07-10T10:47:36Z</time>
      </trkpt>
      <trkpt lat="47.78918" lon="-3.4114">
        <ele>43.96</ele>
        <time>2020-07-10T10:47:37Z</time>
      </trkpt>
      <trkpt lat="47.78918" lon="-3.41131">
        <ele>43.99</ele>
        <time>2020-07-10T10:47:38Z</time>
      </trkpt>
      <trkpt lat="47.78919" lon="-3.41122">
        <ele>44</ele>
        <time>2020-07-10T10:47:39Z</time>
      </trkpt>
      <trkpt lat="47.78919" lon="-3.41112">
        <ele>44</ele>
        <time>2020-07-10T10:47:40Z</time>
      </trkpt>
      <trkpt lat="47.78919" lon="-3.41103">
        <ele>43.8</ele>
        <time>2020-07-10T10:47:41Z</time>
      </trkpt>
      <trkpt lat="47.7892" lon="-3.41094">
        <ele>43.5</ele>
        <time>2020-07-10T10:47:42Z</time>
      </trkpt>
      <trkpt lat="47.7892" lon="-3.41084">
        <ele>43.17</ele>
        <time>2020-07-10T10:47:43Z</time>
      </trkpt>
      <trkpt lat="47.7892" lon="-3.41075">
        <ele>43.05</ele>
        <time>2020-07-10T10:47:44Z</time>
      </trkpt>
      <trkpt lat="47.78921" lon="-3.41066">
        <ele>43.02</ele>
        <time>2020-07-10T10:47:45Z</time>
      </trkpt>
      <trkpt lat="47.78921" lon="-3.41058">
        <ele>43</ele>
        <time>2020-07-10T10:47:46Z</time>
      </trkpt>
      <trkpt lat="47.78921" lon="-3.41049">
        <ele>42.84</ele>
        <time>2020-07-10T10:47:47Z</time>
      </trkpt>
      <trkpt lat="47.78921" lon="-3.41041">
        <ele>42.58</ele>
        <time>2020-07-10T10:47:48Z</time>
      </trkpt>
      <trkpt lat="47.78921" lon="-3.41032">
        <ele>42.28</ele>
        <time>2020-07-10T10:47:49Z</time>
      </trkpt>
      <trkpt lat="47.78921" lon="-3.41023">
        <ele>41.94</ele>
        <time>2020-07-10T10:47:50Z</time>
      </trkpt>
      <trkpt lat="47.78921" lon="-3.41014">
        <ele>41.57</ele>
        <time>2020-07-10T10:47:51Z</time>
      </trkpt>
      <trkpt lat="47.78923" lon="-3.41005">
        <ele>41.17</ele>
        <time>2020-07-10T10:47:52Z</time>
      </trkpt>
      <trkpt lat="47.78924" lon="-3.40996">
        <ele>40.76</ele>
        <time>2020-07-10T10:47:53Z</time>
      </trkpt>
      <trkpt lat="47.78927" lon="-3.40986">
        <ele>40.33</ele>
        <time>2020-07-10T10:47:54Z</time>
      </trkpt>
      <trkpt lat="47.78929" lon="-3.40976">
        <ele>39.89</ele>
        <time>2020-07-10T10:47:55Z</time>
      </trkpt>
      <trkpt lat="47.78932" lon="-3.40967">
        <ele>39.46</ele>
        <time>2020-07-10T10:47:56Z</time>
      </trkpt>
      <trkpt lat="47.78935" lon="-3.40958">
        <ele>39.13</ele>
        <time>2020-07-10T10:47:57Z</time>
      </trkpt>
      <trkpt lat="47.78939" lon="-3.40948">
        <ele>38.93</ele>
        <time>2020-07-10T10:47:58Z</time>
      </trkpt>
      <trkpt lat="47.78941" lon="-3.40938">
        <ele>38.74</ele>
        <time>2020-07-10T10:47:59Z</time>
      </trkpt>
      <trkpt lat="47.78944" lon="-3.40928">
        <ele>38.5</ele>
        <time>2020-07-10T10:48:00Z</time>
      </trkpt>
      <trkpt lat="47.78945" lon="-3.40919">
        <ele>38.25</ele>
        <time>2020-07-10T10:48:01Z</time>
      </trkpt>
      <trkpt lat="47.78947" lon="-3.4091">
        <ele>38.17</ele>
        <time>2020-07-10T10:48:02Z</time>
      </trkpt>
      <trkpt lat="47.78947" lon="-3.40904">
        <ele>38.14</ele>
        <time>2020-07-10T10:48:03Z</time>
      </trkpt>
      <trkpt lat="47.78947" lon="-3.40899">
        <ele>38.12</ele>
        <time>2020-07-10T10:48:04Z</time>
      </trkpt>
      <trkpt lat="47.78945" lon="-3.40896">
        <ele>38.07</ele>
        <time>2020-07-10T10:48:05Z</time>
      </trkpt>
      <trkpt lat="47.78944" lon="-3.40893">
        <ele>37.99</ele>
        <time>2020-07-10T10:48:06Z</time>
      </trkpt>
      <trkpt lat="47.78942" lon="-3.4089">
        <ele>37.89</ele>
        <time>2020-07-10T10:48:07Z</time>
      </trkpt>
      <trkpt lat="47.7894" lon="-3.40887">
        <ele>37.69</ele>
        <time>2020-07-10T10:48:08Z</time>
      </trkpt>
      <trkpt lat="47.78938" lon="-3.40884">
        <ele>37.46</ele>
        <time>2020-07-10T10:48:09Z</time>
      </trkpt>
      <trkpt lat="47.78937" lon="-3.40881">
        <ele>37.27</ele>
        <time>2020-07-10T10:48:10Z</time>
      </trkpt>
      <trkpt lat="47.78936" lon="-3.40881">
        <ele>37.15</ele>
        <time>2020-07-10T10:48:11Z</time>
      </trkpt>
      <trkpt lat="47.78935" lon="-3.4088">
        <ele>37.02</ele>
        <time>2020-07-10T10:48:12Z</time>
      </trkpt>
      <trkpt lat="47.78934" lon="-3.40877">
        <ele>36.91</ele>
        <time>2020-07-10T10:48:13Z</time>
      </trkpt>
      <trkpt lat="47.78934" lon="-3.40873">
        <ele>36.73</ele>
        <time>2020-07-10T10:48:14Z</time>
      </trkpt>
      <trkpt lat="47.78932" lon="-3.40869">
        <ele>36.5</ele>
        <time>2020-07-10T10:48:15Z</time>
      </trkpt>
      <trkpt lat="47.78929" lon="-3.40866">
        <ele>36.2</ele>
        <time>2020-07-10T10:48:16Z</time>
      </trkpt>
      <trkpt lat="47.78926" lon="-3.40861">
        <ele>35.82</ele>
        <time>2020-07-10T10:48:17Z</time>
      </trkpt>
      <trkpt lat="47.78921" lon="-3.40858">
        <ele>35.41</ele>
        <time>2020-07-10T10:48:18Z</time>
      </trkpt>
      <trkpt lat="47.78917" lon="-3.40855">
        <ele>34.98</ele>
        <time>2020-07-10T10:48:19Z</time>
      </trkpt>
      <trkpt lat="47.78911" lon="-3.40852">
        <ele>34.63</ele>
        <time>2020-07-10T10:48:20Z</time>
      </trkpt>
      <trkpt lat="47.78906" lon="-3.4085">
        <ele>34.33</ele>
        <time>2020-07-10T10:48:21Z</time>
      </trkpt>
      <trkpt lat="47.789" lon="-3.40849">
        <ele>34.06</ele>
        <time>2020-07-10T10:48:22Z</time>
      </trkpt>
      <trkpt lat="47.78894" lon="-3.40847">
        <ele>33.78</ele>
        <time>2020-07-10T10:48:23Z</time>
      </trkpt>
      <trkpt lat="47.78888" lon="-3.40845">
        <ele>33.53</ele>
        <time>2020-07-10T10:48:24Z</time>
      </trkpt>
      <trkpt lat="47.78881" lon="-3.40844">
        <ele>33.36</ele>
        <time>2020-07-10T10:48:25Z</time>
      </trkpt>
      <trkpt lat="47.78874" lon="-3.40843">
        <ele>33.22</ele>
        <time>2020-07-10T10:48:26Z</time>
      </trkpt>
      <trkpt lat="47.78867" lon="-3.40843">
        <ele>33.12</ele>
        <time>2020-07-10T10:48:27Z</time>
      </trkpt>
      <trkpt lat="47.78859" lon="-3.40842">
        <ele>33.04</ele>
        <time>2020-07-10T10:48:28Z</time>
      </trkpt>
      <trkpt lat="47.78851" lon="-3.4084">
        <ele>33.01</ele>
        <time>2020-07-10T10:48:29Z</time>
      </trkpt>
      <trkpt lat="47.78843" lon="-3.40838">
        <ele>33</ele>
        <time>2020-07-10T10:48:30Z</time>
      </trkpt>
      <trkpt lat="47.78836" lon="-3.40837">
        <ele>33</ele>
        <time>2020-07-10T10:48:31Z</time>
      </trkpt>
      <trkpt lat="47.78829" lon="-3.40834">
        <ele>33.23</ele>
        <time>2020-07-10T10:48:32Z</time>
      </trkpt>
      <trkpt lat="47.78824" lon="-3.40831">
        <ele>33.56</ele>
        <time>2020-07-10T10:48:33Z</time>
      </trkpt>
      <trkpt lat="47.78819" lon="-3.40826">
        <ele>33.91</ele>
        <time>2020-07-10T10:48:34Z</time>
      </trkpt>
      <trkpt lat="47.78814" lon="-3.40822">
        <ele>34.25</ele>
        <time>2020-07-10T10:48:35Z</time>
      </trkpt>
      <trkpt lat="47.7881" lon="-3.40817">
        <ele>34.57</ele>
        <time>2020-07-10T10:48:36Z</time>
      </trkpt>
      <trkpt lat="47.78805" lon="-3.40815">
        <ele>34.89</ele>
        <time>2020-07-10T10:48:37Z</time>
      </trkpt>
      <trkpt lat="47.788" lon="-3.40813">
        <ele>35.13</ele>
        <time>2020-07-10T10:48:38Z</time>
      </trkpt>
      <trkpt lat="47.78796" lon="-3.40811">
        <ele>35.32</ele>
        <time>2020-07-10T10:48:39Z</time>
      </trkpt>
      <trkpt lat="47.78792" lon="-3.40809">
        <ele>35.48</ele>
        <time>2020-07-10T10:48:40Z</time>
      </trkpt>
      <trkpt lat="47.78788" lon="-3.40807">
        <ele>35.61</ele>
        <time>2020-07-10T10:48:41Z</time>
      </trkpt>
      <trkpt lat="47.78784" lon="-3.40805">
        <ele>35.72</ele>
        <time>2020-07-10T10:48:42Z</time>
      </trkpt>
      <trkpt lat="47.7878" lon="-3.40803">
        <ele>35.79</ele>
        <time>2020-07-10T10:48:43Z</time>
      </trkpt>
      <trkpt lat="47.78776" lon="-3.40801">
        <ele>35.9</ele>
        <time>2020-07-10T10:48:44Z</time>
      </trkpt>
      <trkpt lat="47.78773" lon="-3.40799">
        <ele>36.03</ele>
        <time>2020-07-10T10:48:45Z</time>
      </trkpt>
      <trkpt lat="47.78769" lon="-3.40798">
        <ele>36.2</ele>
        <time>2020-07-10T10:48:46Z</time>
      </trkpt>
      <trkpt lat="47.78765" lon="-3.40797">
        <ele>36.4</ele>
        <time>2020-07-10T10:48:47Z</time>
      </trkpt>
      <trkpt lat="47.78761" lon="-3.40797">
        <ele>36.63</ele>
        <time>2020-07-10T10:48:48Z</time>
      </trkpt>
      <trkpt lat="47.78757" lon="-3.40796">
        <ele>36.82</ele>
        <time>2020-07-10T10:48:49Z</time>
      </trkpt>
      <trkpt lat="47.78754" lon="-3.40796">
        <ele>36.98</ele>
        <time>2020-07-10T10:48:50Z</time>
      </trkpt>
      <trkpt lat="47.7875" lon="-3.40795">
        <ele>37.12</ele>
        <time>2020-07-10T10:48:51Z</time>
      </trkpt>
      <trkpt lat="47.78747" lon="-3.40793">
        <ele>37.27</ele>
        <time>2020-07-10T10:48:52Z</time>
      </trkpt>
      <trkpt lat="47.78742" lon="-3.40792">
        <ele>37.4</ele>
        <time>2020-07-10T10:48:53Z</time>
      </trkpt>
      <trkpt lat="47.78738" lon="-3.4079">
        <ele>37.47</ele>
        <time>2020-07-10T10:48:54Z</time>
      </trkpt>
      <trkpt lat="47.78734" lon="-3.40788">
        <ele>37.51</ele>
        <time>2020-07-10T10:48:55Z</time>
      </trkpt>
      <trkpt lat="47.78729" lon="-3.40786">
        <ele>37.52</ele>
        <time>2020-07-10T10:48:56Z</time>
      </trkpt>
      <trkpt lat="47.78725" lon="-3.40783">
        <ele>37.47</ele>
        <time>2020-07-10T10:48:57Z</time>
      </trkpt>
      <trkpt lat="47.7872" lon="-3.40781">
        <ele>37.46</ele>
        <time>2020-07-10T10:48:58Z</time>
      </trkpt>
      <trkpt lat="47.78715" lon="-3.40779">
        <ele>37.54</ele>
        <time>2020-07-10T10:48:59Z</time>
      </trkpt>
      <trkpt lat="47.78711" lon="-3.40777">
        <ele>37.69</ele>
        <time>2020-07-10T10:49:00Z</time>
      </trkpt>
      <trkpt lat="47.78706" lon="-3.40774">
        <ele>37.77</ele>
        <time>2020-07-10T10:49:01Z</time>
      </trkpt>
      <trkpt lat="47.78702" lon="-3.40771">
        <ele>37.82</ele>
        <time>2020-07-10T10:49:02Z</time>
      </trkpt>
      <trkpt lat="47.78698" lon="-3.40769">
        <ele>37.82</ele>
        <time>2020-07-10T10:49:03Z</time>
      </trkpt>
      <trkpt lat="47.78693" lon="-3.40766">
        <ele>37.83</ele>
        <time>2020-07-10T10:49:04Z</time>
      </trkpt>
      <trkpt lat="47.78688" lon="-3.40762">
        <ele>37.94</ele>
        <time>2020-07-10T10:49:05Z</time>
      </trkpt>
      <trkpt lat="47.78684" lon="-3.4076">
        <ele>38.13</ele>
        <time>2020-07-10T10:49:06Z</time>
      </trkpt>
      <trkpt lat="47.78679" lon="-3.40757">
        <ele>38.31</ele>
        <time>2020-07-10T10:49:07Z</time>
      </trkpt>
      <trkpt lat="47.78675" lon="-3.40754">
        <ele>38.52</ele>
        <time>2020-07-10T10:49:08Z</time>
      </trkpt>
      <trkpt lat="47.7867" lon="-3.40752">
        <ele>38.74</ele>
        <time>2020-07-10T10:49:09Z</time>
      </trkpt>
      <trkpt lat="47.78665" lon="-3.40748">
        <ele>38.9</ele>
        <time>2020-07-10T10:49:10Z</time>
      </trkpt>
      <trkpt lat="47.78661" lon="-3.40744">
        <ele>39.01</ele>
        <time>2020-07-10T10:49:11Z</time>
      </trkpt>
      <trkpt lat="47.78656" lon="-3.4074">
        <ele>39.05</ele>
        <time>2020-07-10T10:49:12Z</time>
      </trkpt>
      <trkpt lat="47.78652" lon="-3.40736">
        <ele>39.04</ele>
        <time>2020-07-10T10:49:13Z</time>
      </trkpt>
      <trkpt lat="47.78648" lon="-3.40732">
        <ele>39.01</ele>
        <time>2020-07-10T10:49:14Z</time>
      </trkpt>
      <trkpt lat="47.78645" lon="-3.40728">
        <ele>38.98</ele>
        <time>2020-07-10T10:49:15Z</time>
      </trkpt>
      <trkpt lat="47.78641" lon="-3.40723">
        <ele>38.92</ele>
        <time>2020-07-10T10:49:16Z</time>
      </trkpt>
      <trkpt lat="47.78637" lon="-3.40718">
        <ele>38.72</ele>
        <time>2020-07-10T10:49:17Z</time>
      </trkpt>
      <trkpt lat="47.78633" lon="-3.40713">
        <ele>38.36</ele>
        <time>2020-07-10T10:49:18Z</time>
      </trkpt>
      <trkpt lat="47.78629" lon="-3.40707">
        <ele>37.94</ele>
        <time>2020-07-10T10:49:19Z</time>
      </trkpt>
      <trkpt lat="47.78625" lon="-3.40701">
        <ele>37.44</ele>
        <time>2020-07-10T10:49:20Z</time>
      </trkpt>
      <trkpt lat="47.7862" lon="-3.40694">
        <ele>36.9</ele>
        <time>2020-07-10T10:49:21Z</time>
      </trkpt>
      <trkpt lat="47.78616" lon="-3.40688">
        <ele>36.53</ele>
        <time>2020-07-10T10:49:22Z</time>
      </trkpt>
      <trkpt lat="47.7861" lon="-3.40683">
        <ele>36.27</ele>
        <time>2020-07-10T10:49:23Z</time>
      </trkpt>
      <trkpt lat="47.78605" lon="-3.40679">
        <ele>36</ele>
        <time>2020-07-10T10:49:24Z</time>
      </trkpt>
      <trkpt lat="47.786" lon="-3.40675">
        <ele>35.73</ele>
        <time>2020-07-10T10:49:25Z</time>
      </trkpt>
      <trkpt lat="47.78596" lon="-3.40671">
        <ele>35.43</ele>
        <time>2020-07-10T10:49:26Z</time>
      </trkpt>
      <trkpt lat="47.78593" lon="-3.40666">
        <ele>35.1</ele>
        <time>2020-07-10T10:49:27Z</time>
      </trkpt>
      <trkpt lat="47.78591" lon="-3.40661">
        <ele>34.86</ele>
        <time>2020-07-10T10:49:28Z</time>
      </trkpt>
      <trkpt lat="47.78592" lon="-3.40657">
        <ele>34.65</ele>
        <time>2020-07-10T10:49:29Z</time>
      </trkpt>
      <trkpt lat="47.78594" lon="-3.40655">
        <ele>34.47</ele>
        <time>2020-07-10T10:49:30Z</time>
      </trkpt>
      <trkpt lat="47.78596" lon="-3.4065">
        <ele>34.23</ele>
        <time>2020-07-10T10:49:31Z</time>
      </trkpt>
      <trkpt lat="47.78598" lon="-3.40645">
        <ele>33.94</ele>
        <time>2020-07-10T10:49:32Z</time>
      </trkpt>
      <trkpt lat="47.78599" lon="-3.40639">
        <ele>33.58</ele>
        <time>2020-07-10T10:49:33Z</time>
      </trkpt>
      <trkpt lat="47.786" lon="-3.40631">
        <ele>33.26</ele>
        <time>2020-07-10T10:49:34Z</time>
      </trkpt>
      <trkpt lat="47.786" lon="-3.40622">
        <ele>32.93</ele>
        <time>2020-07-10T10:49:35Z</time>
      </trkpt>
      <trkpt lat="47.786" lon="-3.40613">
        <ele>32.6</ele>
        <time>2020-07-10T10:49:36Z</time>
      </trkpt>
      <trkpt lat="47.78602" lon="-3.40604">
        <ele>32.41</ele>
        <time>2020-07-10T10:49:37Z</time>
      </trkpt>
      <trkpt lat="47.78606" lon="-3.40596">
        <ele>32.26</ele>
        <time>2020-07-10T10:49:38Z</time>
      </trkpt>
      <trkpt lat="47.7861" lon="-3.4059">
        <ele>32.09</ele>
        <time>2020-07-10T10:49:39Z</time>
      </trkpt>
      <trkpt lat="47.78616" lon="-3.40583">
        <ele>31.91</ele>
        <time>2020-07-10T10:49:40Z</time>
      </trkpt>
      <trkpt lat="47.78619" lon="-3.40577">
        <ele>31.78</ele>
        <time>2020-07-10T10:49:41Z</time>
      </trkpt>
      <trkpt lat="47.78621" lon="-3.40572">
        <ele>31.67</ele>
        <time>2020-07-10T10:49:42Z</time>
      </trkpt>
      <trkpt lat="47.78623" lon="-3.40567">
        <ele>31.59</ele>
        <time>2020-07-10T10:49:43Z</time>
      </trkpt>
      <trkpt lat="47.78626" lon="-3.40565">
        <ele>31.5</ele>
        <time>2020-07-10T10:49:44Z</time>
      </trkpt>
      <trkpt lat="47.78628" lon="-3.40563">
        <ele>31.42</ele>
        <time>2020-07-10T10:49:45Z</time>
      </trkpt>
      <trkpt lat="47.7863" lon="-3.40561">
        <ele>31.35</ele>
        <time>2020-07-10T10:49:46Z</time>
      </trkpt>
      <trkpt lat="47.78632" lon="-3.40558">
        <ele>31.27</ele>
        <time>2020-07-10T10:49:47Z</time>
      </trkpt>
      <trkpt lat="47.78634" lon="-3.40555">
        <ele>31.22</ele>
        <time>2020-07-10T10:49:48Z</time>
      </trkpt>
      <trkpt lat="47.78637" lon="-3.40554">
        <ele>31.16</ele>
        <time>2020-07-10T10:49:49Z</time>
      </trkpt>
      <trkpt lat="47.78639" lon="-3.40555">
        <ele>31.07</ele>
        <time>2020-07-10T10:49:50Z</time>
      </trkpt>
      <trkpt lat="47.78641" lon="-3.40556">
        <ele>31.02</ele>
        <time>2020-07-10T10:49:51Z</time>
      </trkpt>
      <trkpt lat="47.78643" lon="-3.40558">
        <ele>31.01</ele>
        <time>2020-07-10T10:49:52Z</time>
      </trkpt>
      <trkpt lat="47.78645" lon="-3.40559">
        <ele>31</ele>
        <time>2020-07-10T10:49:53Z</time>
      </trkpt>
      <trkpt lat="47.78646" lon="-3.40559">
        <ele>31</ele>
        <time>2020-07-10T10:49:54Z</time>
      </trkpt>
      <trkpt lat="47.78648" lon="-3.40557">
        <ele>31</ele>
        <time>2020-07-10T10:49:55Z</time>
      </trkpt>
      <trkpt lat="47.7865" lon="-3.40556">
        <ele>31</ele>
        <time>2020-07-10T10:49:56Z</time>
      </trkpt>
      <trkpt lat="47.78652" lon="-3.40556">
        <ele>31</ele>
        <time>2020-07-10T10:49:57Z</time>
      </trkpt>
      <trkpt lat="47.78655" lon="-3.40554">
        <ele>31.01</ele>
        <time>2020-07-10T10:49:58Z</time>
      </trkpt>
      <trkpt lat="47.78656" lon="-3.40553">
        <ele>31.03</ele>
        <time>2020-07-10T10:49:59Z</time>
      </trkpt>
      <trkpt lat="47.78659" lon="-3.4055">
        <ele>31.05</ele>
        <time>2020-07-10T10:50:00Z</time>
      </trkpt>
      <trkpt lat="47.78662" lon="-3.40548">
        <ele>31.05</ele>
        <time>2020-07-10T10:50:01Z</time>
      </trkpt>
      <trkpt lat="47.78665" lon="-3.40546">
        <ele>31.03</ele>
        <time>2020-07-10T10:50:02Z</time>
      </trkpt>
      <trkpt lat="47.78668" lon="-3.40544">
        <ele>30.96</ele>
        <time>2020-07-10T10:50:03Z</time>
      </trkpt>
      <trkpt lat="47.78671" lon="-3.40543">
        <ele>30.87</ele>
        <time>2020-07-10T10:50:04Z</time>
      </trkpt>
      <trkpt lat="47.78674" lon="-3.4054">
        <ele>30.78</ele>
        <time>2020-07-10T10:50:05Z</time>
      </trkpt>
      <trkpt lat="47.78676" lon="-3.40536">
        <ele>30.7</ele>
        <time>2020-07-10T10:50:06Z</time>
      </trkpt>
      <trkpt lat="47.78678" lon="-3.40531">
        <ele>30.63</ele>
        <time>2020-07-10T10:50:07Z</time>
      </trkpt>
      <trkpt lat="47.78681" lon="-3.40526">
        <ele>30.53</ele>
        <time>2020-07-10T10:50:08Z</time>
      </trkpt>
      <trkpt lat="47.78683" lon="-3.4052">
        <ele>30.44</ele>
        <time>2020-07-10T10:50:09Z</time>
      </trkpt>
      <trkpt lat="47.78685" lon="-3.40515">
        <ele>30.36</ele>
        <time>2020-07-10T10:50:10Z</time>
      </trkpt>
      <trkpt lat="47.78688" lon="-3.4051">
        <ele>30.27</ele>
        <time>2020-07-10T10:50:11Z</time>
      </trkpt>
      <trkpt lat="47.7869" lon="-3.40504">
        <ele>30.19</ele>
        <time>2020-07-10T10:50:12Z</time>
      </trkpt>
      <trkpt lat="47.78692" lon="-3.40499">
        <ele>30.12</ele>
        <time>2020-07-10T10:50:13Z</time>
      </trkpt>
      <trkpt lat="47.78694" lon="-3.40493">
        <ele>30.06</ele>
        <time>2020-07-10T10:50:14Z</time>
      </trkpt>
      <trkpt lat="47.78695" lon="-3.40488">
        <ele>30.03</ele>
        <time>2020-07-10T10:50:15Z</time>
      </trkpt>
      <trkpt lat="47.78695" lon="-3.40483">
        <ele>30.08</ele>
        <time>2020-07-10T10:50:16Z</time>
      </trkpt>
      <trkpt lat="47.78696" lon="-3.4048">
        <ele>30.11</ele>
        <time>2020-07-10T10:50:17Z</time>
      </trkpt>
      <trkpt lat="47.78696" lon="-3.40477">
        <ele>30.12</ele>
        <time>2020-07-10T10:50:18Z</time>
      </trkpt>
      <trkpt lat="47.78696" lon="-3.40476">
        <ele>30.12</ele>
        <time>2020-07-10T10:50:19Z</time>
      </trkpt>
      <trkpt lat="47.78695" lon="-3.40476">
        <ele>30.1</ele>
        <time>2020-07-10T10:50:20Z</time>
      </trkpt>
      <trkpt lat="47.78695" lon="-3.40475">
        <ele>30.11</ele>
        <time>2020-07-10T10:50:21Z</time>
      </trkpt>
      <trkpt lat="47.78695" lon="-3.40475">
        <ele>30.11</ele>
        <time>2020-07-10T10:50:22Z</time>
      </trkpt>
      <trkpt lat="47.78695" lon="-3.40475">
        <ele>30.11</ele>
        <time>2020-07-10T10:50:23Z</time>
      </trkpt>
      <trkpt lat="47.78695" lon="-3.40475">
        <ele>30.11</ele>
        <time>2020-07-10T10:50:24Z</time>
      </trkpt>
      <trkpt lat="47.78695" lon="-3.40475">
        <ele>30.11</ele>
        <time>2020-07-10T10:50:25Z</time>
      </trkpt>
      <trkpt lat="47.78695" lon="-3.40475">
        <ele>30.11</ele>
        <time>2020-07-10T10:50:26Z</time>
      </trkpt>
      <trkpt lat="47.78695" lon="-3.40475">
        <ele>30.11</ele>
        <time>2020-07-10T10:50:27Z</time>
      </trkpt>
      <trkpt lat="47.78695" lon="-3.40475">
        <ele>30.11</ele>
        <time>2020-07-10T10:50:28Z</time>
      </trkpt>
      <trkpt lat="47.78695" lon="-3.40475">
        <ele>30.11</ele>
        <time>2020-07-10T10:50:29Z</time>
      </trkpt>
      <trkpt lat="47.78695" lon="-3.40475">
        <ele>30.11</ele>
        <time>2020-07-10T10:50:30Z</time>
      </trkpt>
      <trkpt lat="47.78695" lon="-3.40475">
        <ele>30.11</ele>
        <time>2020-07-10T10:50:31Z</time>
      </trkpt>
      <trkpt lat="47.78695" lon="-3.40475">
        <ele>30.11</ele>
        <time>2020-07-10T10:50:32Z</time>
      </trkpt>
      <trkpt lat="47.78695" lon="-3.40475">
        <ele>30.11</ele>
        <time>2020-07-10T10:50:33Z</time>
      </trkpt>
      <trkpt lat="47.78695" lon="-3.40475">
        <ele>30.11</ele>
        <time>2020-07-10T10:50:34Z</time>
      </trkpt>
      <trkpt lat="47.78695" lon="-3.40475">
        <ele>30.11</ele>
        <time>2020-07-10T10:50:35Z</time>
      </trkpt>
      <trkpt lat="47.78695" lon="-3.40475">
        <ele>30.11</ele>
        <time>2020-07-10T10:50:36Z</time>
      </trkpt>
      <trkpt lat="47.78695" lon="-3.40475">
        <ele>30.11</ele>
        <time>2020-07-10T10:50:37Z</time>
      </trkpt>
      <trkpt lat="47.78695" lon="-3.40475">
        <ele>30.11</ele>
        <time>2020-07-10T10:50:38Z</time>
      </trkpt>
      <trkpt lat="47.78695" lon="-3.40475">
        <ele>30.11</ele>
        <time>2020-07-10T10:50:39Z</time>
      </trkpt>
      <trkpt lat="47.78695" lon="-3.40475">
        <ele>30.11</ele>
        <time>2020-07-10T10:50:40Z</time>
      </trkpt>
      <trkpt lat="47.78695" lon="-3.40475">
        <ele>30.11</ele>
        <time>2020-07-10T10:50:41Z</time>
      </trkpt>
      <trkpt lat="47.78695" lon="-3.40475">
        <ele>30.11</ele>
        <time>2020-07-10T10:50:42Z</time>
      </trkpt>
      <trkpt lat="47.78695" lon="-3.40475">
        <ele>30.11</ele>
        <time>2020-07-10T10:50:43Z</time>
      </trkpt>
      <trkpt lat="47.78695" lon="-3.40475">
        <ele>30.11</ele>
        <time>2020-07-10T10:50:44Z</time>
      </trkpt>
      <trkpt lat="47.78695" lon="-3.40475">
        <ele>30.11</ele>
        <time>2020-07-10T10:50:45Z</time>
      </trkpt>
      <trkpt lat="47.78695" lon="-3.40475">
        <ele>30.11</ele>
        <time>2020-07-10T10:50:46Z</time>
      </trkpt>
      <trkpt lat="47.78695" lon="-3.40475">
        <ele>30.11</ele>
        <time>2020-07-10T10:50:47Z</time>
      </trkpt>
      <trkpt lat="47.78695" lon="-3.40475">
        <ele>30.11</ele>
        <time>2020-07-10T10:50:48Z</time>
      </trkpt>
      <trkpt lat="47.78695" lon="-3.40475">
        <ele>30.11</ele>
        <time>2020-07-10T10:50:49Z</time>
      </trkpt>
      <trkpt lat="47.78695" lon="-3.40475">
        <ele>30.11</ele>
        <time>2020-07-10T10:50:50Z</time>
      </trkpt>
      <trkpt lat="47.78695" lon="-3.40475">
        <ele>30.11</ele>
        <time>2020-07-10T10:50:51Z</time>
      </trkpt>
      <trkpt lat="47.78695" lon="-3.40475">
        <ele>30.11</ele>
        <time>2020-07-10T10:50:52Z</time>
      </trkpt>
      <trkpt lat="47.78695" lon="-3.40475">
        <ele>30.11</ele>
        <time>2020-07-10T10:50:53Z</time>
      </trkpt>
      <trkpt lat="47.78695" lon="-3.40475">
        <ele>30.11</ele>
        <time>2020-07-10T10:50:54Z</time>
      </trkpt>
      <trkpt lat="47.78695" lon="-3.40475">
        <ele>30.11</ele>
        <time>2020-07-10T10:50:55Z</time>
      </trkpt>
      <trkpt lat="47.78695" lon="-3.40475">
        <ele>30.11</ele>
        <time>2020-07-10T10:50:56Z</time>
      </trkpt>
      <trkpt lat="47.78695" lon="-3.40475">
        <ele>30.11</ele>
        <time>2020-07-10T10:50:57Z</time>
      </trkpt>
      <trkpt lat="47.78695" lon="-3.40475">
        <ele>30.11</ele>
        <time>2020-07-10T10:50:58Z</time>
      </trkpt>
      <trkpt lat="47.78695" lon="-3.40475">
        <ele>30.11</ele>
        <time>2020-07-10T10:50:59Z</time>
      </trkpt>
      <trkpt lat="47.78695" lon="-3.40475">
        <ele>30.11</ele>
        <time>2020-07-10T10:51:00Z</time>
      </trkpt>
      <trkpt lat="47.78695" lon="-3.40475">
        <ele>30.11</ele>
        <time>2020-07-10T10:51:01Z</time>
      </trkpt>
      <trkpt lat="47.78695" lon="-3.40475">
        <ele>30.11</ele>
        <time>2020-07-10T10:51:02Z</time>
      </trkpt>
      <trkpt lat="47.78695" lon="-3.40475">
        <ele>30.11</ele>
        <time>2020-07-10T10:51:03Z</time>
      </trkpt>
      <trkpt lat="47.78695" lon="-3.40475">
        <ele>30.11</ele>
        <time>2020-07-10T10:51:04Z</time>
      </trkpt>
      <trkpt lat="47.78695" lon="-3.40475">
        <ele>30.11</ele>
        <time>2020-07-10T10:51:05Z</time>
      </trkpt>
      <trkpt lat="47.78695" lon="-3.40475">
        <ele>30.11</ele>
        <time>2020-07-10T10:51:06Z</time>
      </trkpt>
      <trkpt lat="47.78695" lon="-3.40475">
        <ele>30.11</ele>
        <time>2020-07-10T10:51:07Z</time>
      </trkpt>
      <trkpt lat="47.78695" lon="-3.40475">
        <ele>30.11</ele>
        <time>2020-07-10T10:51:08Z</time>
      </trkpt>
      <trkpt lat="47.78695" lon="-3.40475">
        <ele>30.11</ele>
        <time>2020-07-10T10:51:09Z</time>
      </trkpt>
      <trkpt lat="47.78695" lon="-3.40475">
        <ele>30.11</ele>
        <time>2020-07-10T10:51:10Z</time>
      </trkpt>
      <trkpt lat="47.78695" lon="-3.40475">
        <ele>30.11</ele>
        <time>2020-07-10T10:51:11Z</time>
      </trkpt>
      <trkpt lat="47.78695" lon="-3.40475">
        <ele>30.11</ele>
        <time>2020-07-10T10:51:12Z</time>
      </trkpt>
      <trkpt lat="47.78695" lon="-3.40475">
        <ele>30.11</ele>
        <time>2020-07-10T10:51:13Z</time>
      </trkpt>
      <trkpt lat="47.78695" lon="-3.40475">
        <ele>30.11</ele>
        <time>2020-07-10T10:51:14Z</time>
      </trkpt>
      <trkpt lat="47.78695" lon="-3.40475">
        <ele>30.11</ele>
        <time>2020-07-10T10:51:15Z</time>
      </trkpt>
      <trkpt lat="47.78695" lon="-3.40475">
        <ele>30.11</ele>
        <time>2020-07-10T10:51:16Z</time>
      </trkpt>
      <trkpt lat="47.78695" lon="-3.40475">
        <ele>30.11</ele>
        <time>2020-07-10T10:51:17Z</time>
      </trkpt>
      <trkpt lat="47.78695" lon="-3.40475">
        <ele>30.11</ele>
        <time>2020-07-10T10:51:18Z</time>
      </trkpt>
      <trkpt lat="47.78695" lon="-3.40475">
        <ele>30.11</ele>
        <time>2020-07-10T10:51:19Z</time>
      </trkpt>
      <trkpt lat="47.78695" lon="-3.40475">
        <ele>30.11</ele>
        <time>2020-07-10T10:51:20Z</time>
      </trkpt>
      <trkpt lat="47.78695" lon="-3.40475">
        <ele>30.11</ele>
        <time>2020-07-10T10:51:21Z</time>
      </trkpt>
      <trkpt lat="47.78695" lon="-3.40475">
        <ele>30.11</ele>
        <time>2020-07-10T10:51:22Z</time>
      </trkpt>
      <trkpt lat="47.78695" lon="-3.40475">
        <ele>30.11</ele>
        <time>2020-07-10T10:51:23Z</time>
      </trkpt>
      <trkpt lat="47.78695" lon="-3.40475">
        <ele>30.11</ele>
        <time>2020-07-10T10:51:24Z</time>
      </trkpt>
      <trkpt lat="47.78695" lon="-3.40475">
        <ele>30.11</ele>
        <time>2020-07-10T10:51:25Z</time>
      </trkpt>
      <trkpt lat="47.78695" lon="-3.40475">
        <ele>30.11</ele>
        <time>2020-07-10T10:51:26Z</time>
      </trkpt>
      <trkpt lat="47.78695" lon="-3.40475">
        <ele>30.11</ele>
        <time>2020-07-10T10:51:27Z</time>
      </trkpt>
      <trkpt lat="47.78695" lon="-3.40475">
        <ele>30.11</ele>
        <time>2020-07-10T10:51:28Z</time>
      </trkpt>
      <trkpt lat="47.78695" lon="-3.40475">
        <ele>30.11</ele>
        <time>2020-07-10T10:51:29Z</time>
      </trkpt>
      <trkpt lat="47.78695" lon="-3.40475">
        <ele>30.11</ele>
        <time>2020-07-10T10:51:30Z</time>
      </trkpt>
      <trkpt lat="47.78695" lon="-3.40475">
        <ele>30.11</ele>
        <time>2020-07-10T10:51:31Z</time>
      </trkpt>
      <trkpt lat="47.78695" lon="-3.40475">
        <ele>30.11</ele>
        <time>2020-07-10T10:51:32Z</time>
      </trkpt>
      <trkpt lat="47.78695" lon="-3.40475">
        <ele>30.11</ele>
        <time>2020-07-10T10:51:33Z</time>
      </trkpt>
      <trkpt lat="47.78695" lon="-3.40475">
        <ele>30.11</ele>
        <time>2020-07-10T10:51:34Z</time>
      </trkpt>
      <trkpt lat="47.78695" lon="-3.40475">
        <ele>30.11</ele>
        <time>2020-07-10T10:51:35Z</time>
      </trkpt>
      <trkpt lat="47.78695" lon="-3.40475">
        <ele>30.11</ele>
        <time>2020-07-10T10:51:36Z</time>
      </trkpt>
      <trkpt lat="47.78695" lon="-3.40475">
        <ele>30.11</ele>
        <time>2020-07-10T10:51:37Z</time>
      </trkpt>
      <trkpt lat="47.78695" lon="-3.40475">
        <ele>30.11</ele>
        <time>2020-07-10T10:51:38Z</time>
      </trkpt>
      <trkpt lat="47.78695" lon="-3.40475">
        <ele>30.11</ele>
        <time>2020-07-10T10:51:39Z</time>
      </trkpt>
      <trkpt lat="47.78695" lon="-3.40475">
        <ele>30.11</ele>
        <time>2020-07-10T10:51:40Z</time>
      </trkpt>
      <trkpt lat="47.78695" lon="-3.40475">
        <ele>30.11</ele>
        <time>2020-07-10T10:51:41Z</time>
      </trkpt>
      <trkpt lat="47.78695" lon="-3.40475">
        <ele>30.11</ele>
        <time>2020-07-10T10:51:42Z</time>
      </trkpt>
      <trkpt lat="47.78695" lon="-3.40475">
        <ele>30.11</ele>
        <time>2020-07-10T10:51:43Z</time>
      </trkpt>
      <trkpt lat="47.78695" lon="-3.40475">
        <ele>30.11</ele>
        <time>2020-07-10T10:51:44Z</time>
      </trkpt>
      <trkpt lat="47.78695" lon="-3.40475">
        <ele>30.11</ele>
        <time>2020-07-10T10:51:45Z</time>
      </trkpt>
      <trkpt lat="47.78695" lon="-3.40475">
        <ele>30.11</ele>
        <time>2020-07-10T10:51:46Z</time>
      </trkpt>
      <trkpt lat="47.78695" lon="-3.40475">
        <ele>30.11</ele>
        <time>2020-07-10T10:51:47Z</time>
      </trkpt>
      <trkpt lat="47.78695" lon="-3.40475">
        <ele>30.11</ele>
        <time>2020-07-10T10:51:48Z</time>
      </trkpt>
      <trkpt lat="47.78695" lon="-3.40475">
        <ele>30.11</ele>
        <time>2020-07-10T10:51:49Z</time>
      </trkpt>
      <trkpt lat="47.78695" lon="-3.40475">
        <ele>30.11</ele>
        <time>2020-07-10T10:51:50Z</time>
      </trkpt>
      <trkpt lat="47.78695" lon="-3.40475">
        <ele>30.11</ele>
        <time>2020-07-10T10:51:51Z</time>
      </trkpt>
      <trkpt lat="47.78695" lon="-3.40475">
        <ele>30.11</ele>
        <time>2020-07-10T10:51:52Z</time>
      </trkpt>
      <trkpt lat="47.78695" lon="-3.40475">
        <ele>30.11</ele>
        <time>2020-07-10T10:51:53Z</time>
      </trkpt>
      <trkpt lat="47.78695" lon="-3.40475">
        <ele>30.11</ele>
        <time>2020-07-10T10:51:54Z</time>
      </trkpt>
      <trkpt lat="47.78695" lon="-3.40475">
        <ele>30.11</ele>
        <time>2020-07-10T10:51:55Z</time>
      </trkpt>
      <trkpt lat="47.78695" lon="-3.40475">
        <ele>30.11</ele>
        <time>2020-07-10T10:51:56Z</time>
      </trkpt>
      <trkpt lat="47.78695" lon="-3.40475">
        <ele>30.11</ele>
        <time>2020-07-10T10:51:57Z</time>
      </trkpt>
      <trkpt lat="47.78695" lon="-3.40475">
        <ele>30.11</ele>
        <time>2020-07-10T10:51:58Z</time>
      </trkpt>
      <trkpt lat="47.78695" lon="-3.40475">
        <ele>30.11</ele>
        <time>2020-07-10T10:51:59Z</time>
      </trkpt>
      <trkpt lat="47.78695" lon="-3.40475">
        <ele>30.11</ele>
        <time>2020-07-10T10:52:00Z</time>
      </trkpt>
      <trkpt lat="47.78695" lon="-3.40475">
        <ele>30.11</ele>
        <time>2020-07-10T10:52:01Z</time>
      </trkpt>
      <trkpt lat="47.78695" lon="-3.40475">
        <ele>30.11</ele>
        <time>2020-07-10T10:52:02Z</time>
      </trkpt>
      <trkpt lat="47.78695" lon="-3.40475">
        <ele>30.11</ele>
        <time>2020-07-10T10:52:03Z</time>
      </trkpt>
      <trkpt lat="47.78695" lon="-3.40475">
        <ele>30.11</ele>
        <time>2020-07-10T10:52:04Z</time>
      </trkpt>
      <trkpt lat="47.78695" lon="-3.40475">
        <ele>30.11</ele>
        <time>2020-07-10T10:52:05Z</time>
      </trkpt>
      <trkpt lat="47.78695" lon="-3.40475">
        <ele>30.11</ele>
        <time>2020-07-10T10:52:06Z</time>
      </trkpt>
      <trkpt lat="47.78695" lon="-3.40475">
        <ele>30.11</ele>
        <time>2020-07-10T10:52:07Z</time>
      </trkpt>
      <trkpt lat="47.78695" lon="-3.40475">
        <ele>30.11</ele>
        <time>2020-07-10T10:52:08Z</time>
      </trkpt>
      <trkpt lat="47.78695" lon="-3.40475">
        <ele>30.11</ele>
        <time>2020-07-10T10:52:09Z</time>
      </trkpt>
      <trkpt lat="47.78695" lon="-3.40475">
        <ele>30.11</ele>
        <time>2020-07-10T10:52:10Z</time>
      </trkpt>
      <trkpt lat="47.78695" lon="-3.40475">
        <ele>30.11</ele>
        <time>2020-07-10T10:52:11Z</time>
      </trkpt>
      <trkpt lat="47.78695" lon="-3.40475">
        <ele>30.11</ele>
        <time>2020-07-10T10:52:12Z</time>
      </trkpt>
      <trkpt lat="47.78695" lon="-3.40475">
        <ele>30.11</ele>
        <time>2020-07-10T10:52:13Z</time>
      </trkpt>
      <trkpt lat="47.78695" lon="-3.40475">
        <ele>30.11</ele>
        <time>2020-07-10T10:52:14Z</time>
      </trkpt>
      <trkpt lat="47.78695" lon="-3.40475">
        <ele>30.11</ele>
        <time>2020-07-10T10:52:15Z</time>
      </trkpt>
      <trkpt lat="47.78695" lon="-3.40475">
        <ele>30.11</ele>
        <time>2020-07-10T10:52:16Z</time>
      </trkpt>
      <trkpt lat="47.78695" lon="-3.40475">
        <ele>30.11</ele>
        <time>2020-07-10T10:52:17Z</time>
      </trkpt>
      <trkpt lat="47.78695" lon="-3.40475">
        <ele>30.11</ele>
        <time>2020-07-10T10:52:18Z</time>
      </trkpt>
      <trkpt lat="47.78695" lon="-3.40475">
        <ele>30.11</ele>
        <time>2020-07-10T10:52:19Z</time>
      </trkpt>
      <trkpt lat="47.78695" lon="-3.40475">
        <ele>30.11</ele>
        <time>2020-07-10T10:52:20Z</time>
      </trkpt>
      <trkpt lat="47.78695" lon="-3.40475">
        <ele>30.11</ele>
        <time>2020-07-10T10:52:21Z</time>
      </trkpt>
      <trkpt lat="47.78695" lon="-3.40475">
        <ele>30.11</ele>
        <time>2020-07-10T10:52:22Z</time>
      </trkpt>
      <trkpt lat="47.78695" lon="-3.40475">
        <ele>30.11</ele>
        <time>2020-07-10T10:52:23Z</time>
      </trkpt>
      <trkpt lat="47.78695" lon="-3.40475">
        <ele>30.11</ele>
        <time>2020-07-10T10:52:24Z</time>
      </trkpt>
      <trkpt lat="47.78695" lon="-3.40475">
        <ele>30.11</ele>
        <time>2020-07-10T10:52:25Z</time>
      </trkpt>
      <trkpt lat="47.78695" lon="-3.40475">
        <ele>30.11</ele>
        <time>2020-07-10T10:52:26Z</time>
      </trkpt>
      <trkpt lat="47.78695" lon="-3.40475">
        <ele>30.11</ele>
        <time>2020-07-10T10:52:27Z</time>
      </trkpt>
      <trkpt lat="47.78695" lon="-3.40475">
        <ele>30.11</ele>
        <time>2020-07-10T10:52:28Z</time>
      </trkpt>
      <trkpt lat="47.78695" lon="-3.40475">
        <ele>30.11</ele>
        <time>2020-07-10T10:52:29Z</time>
      </trkpt>
      <trkpt lat="47.78695" lon="-3.40475">
        <ele>30.11</ele>
        <time>2020-07-10T10:52:30Z</time>
      </trkpt>
      <trkpt lat="47.78695" lon="-3.40475">
        <ele>30.11</ele>
        <time>2020-07-10T10:52:31Z</time>
      </trkpt>
      <trkpt lat="47.78695" lon="-3.40475">
        <ele>30.11</ele>
        <time>2020-07-10T10:52:32Z</time>
      </trkpt>
      <trkpt lat="47.78695" lon="-3.40475">
        <ele>30.11</ele>
        <time>2020-07-10T10:52:33Z</time>
      </trkpt>
      <trkpt lat="47.78695" lon="-3.40475">
        <ele>30.11</ele>
        <time>2020-07-10T10:52:34Z</time>
      </trkpt>
      <trkpt lat="47.78695" lon="-3.40475">
        <ele>30.11</ele>
        <time>2020-07-10T10:52:35Z</time>
      </trkpt>
      <trkpt lat="47.78695" lon="-3.40475">
        <ele>30.11</ele>
        <time>2020-07-10T10:52:36Z</time>
      </trkpt>
      <trkpt lat="47.78695" lon="-3.40475">
        <ele>30.11</ele>
        <time>2020-07-10T10:52:37Z</time>
      </trkpt>
      <trkpt lat="47.78695" lon="-3.40475">
        <ele>30.11</ele>
        <time>2020-07-10T10:52:38Z</time>
      </trkpt>
      <trkpt lat="47.78695" lon="-3.40475">
        <ele>30.11</ele>
        <time>2020-07-10T10:52:39Z</time>
      </trkpt>
      <trkpt lat="47.78695" lon="-3.40475">
        <ele>30.11</ele>
        <time>2020-07-10T10:52:40Z</time>
      </trkpt>
      <trkpt lat="47.78695" lon="-3.40475">
        <ele>30.11</ele>
        <time>2020-07-10T10:52:41Z</time>
      </trkpt>
      <trkpt lat="47.78695" lon="-3.40475">
        <ele>30.11</ele>
        <time>2020-07-10T10:52:42Z</time>
      </trkpt>
      <trkpt lat="47.78695" lon="-3.40475">
        <ele>30.11</ele>
        <time>2020-07-10T10:52:43Z</time>
      </trkpt>
      <trkpt lat="47.78695" lon="-3.40475">
        <ele>30.11</ele>
        <time>2020-07-10T10:52:44Z</time>
      </trkpt>
      <trkpt lat="47.78695" lon="-3.40475">
        <ele>30.11</ele>
        <time>2020-07-10T10:52:45Z</time>
      </trkpt>
      <trkpt lat="47.78695" lon="-3.40475">
        <ele>30.11</ele>
        <time>2020-07-10T10:52:46Z</time>
      </trkpt>
      <trkpt lat="47.78695" lon="-3.40475">
        <ele>30.11</ele>
        <time>2020-07-10T10:52:47Z</time>
      </trkpt>
      <trkpt lat="47.78695" lon="-3.40475">
        <ele>30.11</ele>
        <time>2020-07-10T10:52:48Z</time>
      </trkpt>
      <trkpt lat="47.78695" lon="-3.40475">
        <ele>30.11</ele>
        <time>2020-07-10T10:52:49Z</time>
      </trkpt>
      <trkpt lat="47.78695" lon="-3.40475">
        <ele>30.11</ele>
        <time>2020-07-10T10:52:50Z</time>
      </trkpt>
      <trkpt lat="47.78695" lon="-3.40475">
        <ele>30.11</ele>
        <time>2020-07-10T10:52:51Z</time>
      </trkpt>
      <trkpt lat="47.78695" lon="-3.40475">
        <ele>30.11</ele>
        <time>2020-07-10T10:52:52Z</time>
      </trkpt>
      <trkpt lat="47.78695" lon="-3.40475">
        <ele>30.11</ele>
        <time>2020-07-10T10:52:53Z</time>
      </trkpt>
      <trkpt lat="47.78695" lon="-3.40475">
        <ele>30.11</ele>
        <time>2020-07-10T10:52:54Z</time>
      </trkpt>
      <trkpt lat="47.78695" lon="-3.40475">
        <ele>30.11</ele>
        <time>2020-07-10T10:52:55Z</time>
      </trkpt>
      <trkpt lat="47.78695" lon="-3.40475">
        <ele>30.11</ele>
        <time>2020-07-10T10:52:56Z</time>
      </trkpt>
      <trkpt lat="47.78695" lon="-3.40475">
        <ele>30.11</ele>
        <time>2020-07-10T10:52:57Z</time>
      </trkpt>
      <trkpt lat="47.78695" lon="-3.40475">
        <ele>30.11</ele>
        <time>2020-07-10T10:52:58Z</time>
      </trkpt>
      <trkpt lat="47.78695" lon="-3.40475">
        <ele>30.11</ele>
        <time>2020-07-10T10:52:59Z</time>
      </trkpt>
      <trkpt lat="47.78695" lon="-3.40475">
        <ele>30.11</ele>
        <time>2020-07-10T10:53:00Z</time>
      </trkpt>
      <trkpt lat="47.78695" lon="-3.40475">
        <ele>30.11</ele>
        <time>2020-07-10T10:53:01Z</time>
      </trkpt>
      <trkpt lat="47.78695" lon="-3.40475">
        <ele>30.11</ele>
        <time>2020-07-10T10:53:02Z</time>
      </trkpt>
      <trkpt lat="47.78695" lon="-3.40475">
        <ele>30.11</ele>
        <time>2020-07-10T10:53:03Z</time>
      </trkpt>
      <trkpt lat="47.78695" lon="-3.40475">
        <ele>30.11</ele>
        <time>2020-07-10T10:53:04Z</time>
      </trkpt>
      <trkpt lat="47.78695" lon="-3.40475">
        <ele>30.11</ele>
        <time>2020-07-10T10:53:05Z</time>
      </trkpt>
      <trkpt lat="47.78695" lon="-3.40475">
        <ele>30.11</ele>
        <time>2020-07-10T10:53:06Z</time>
      </trkpt>
      <trkpt lat="47.78695" lon="-3.40475">
        <ele>30.11</ele>
        <time>2020-07-10T10:53:07Z</time>
      </trkpt>
      <trkpt lat="47.78695" lon="-3.40475">
        <ele>30.11</ele>
        <time>2020-07-10T10:53:08Z</time>
      </trkpt>
      <trkpt lat="47.78695" lon="-3.40475">
        <ele>30.11</ele>
        <time>2020-07-10T10:53:09Z</time>
      </trkpt>
      <trkpt lat="47.78695" lon="-3.40475">
        <ele>30.11</ele>
        <time>2020-07-10T10:53:10Z</time>
      </trkpt>
      <trkpt lat="47.78695" lon="-3.40475">
        <ele>30.11</ele>
        <time>2020-07-10T10:53:11Z</time>
      </trkpt>
      <trkpt lat="47.78695" lon="-3.40475">
        <ele>30.11</ele>
        <time>2020-07-10T10:53:12Z</time>
      </trkpt>
      <trkpt lat="47.78695" lon="-3.40475">
        <ele>30.11</ele>
        <time>2020-07-10T10:53:13Z</time>
      </trkpt>
      <trkpt lat="47.78695" lon="-3.40475">
        <ele>30.11</ele>
        <time>2020-07-10T10:53:14Z</time>
      </trkpt>
      <trkpt lat="47.78695" lon="-3.40475">
        <ele>30.11</ele>
        <time>2020-07-10T10:53:15Z</time>
      </trkpt>
      <trkpt lat="47.78695" lon="-3.40475">
        <ele>30.11</ele>
        <time>2020-07-10T10:53:16Z</time>
      </trkpt>
      <trkpt lat="47.78695" lon="-3.40475">
        <ele>30.11</ele>
        <time>2020-07-10T10:53:17Z</time>
      </trkpt>
      <trkpt lat="47.78695" lon="-3.40475">
        <ele>30.11</ele>
        <time>2020-07-10T10:53:18Z</time>
      </trkpt>
      <trkpt lat="47.78695" lon="-3.40475">
        <ele>30.11</ele>
        <time>2020-07-10T10:53:19Z</time>
      </trkpt>
      <trkpt lat="47.78695" lon="-3.40475">
        <ele>30.11</ele>
        <time>2020-07-10T10:53:20Z</time>
      </trkpt>
      <trkpt lat="47.78695" lon="-3.40475">
        <ele>30.11</ele>
        <time>2020-07-10T10:53:21Z</time>
      </trkpt>
      <trkpt lat="47.78695" lon="-3.40475">
        <ele>30.11</ele>
        <time>2020-07-10T10:53:22Z</time>
      </trkpt>
      <trkpt lat="47.78695" lon="-3.40475">
        <ele>30.11</ele>
        <time>2020-07-10T10:53:23Z</time>
      </trkpt>
      <trkpt lat="47.78695" lon="-3.40475">
        <ele>30.11</ele>
        <time>2020-07-10T10:53:24Z</time>
      </trkpt>
      <trkpt lat="47.78695" lon="-3.40475">
        <ele>30.11</ele>
        <time>2020-07-10T10:53:25Z</time>
      </trkpt>
      <trkpt lat="47.78695" lon="-3.40475">
        <ele>30.11</ele>
        <time>2020-07-10T10:53:26Z</time>
      </trkpt>
      <trkpt lat="47.78695" lon="-3.40475">
        <ele>30.11</ele>
        <time>2020-07-10T10:53:27Z</time>
      </trkpt>
      <trkpt lat="47.78695" lon="-3.40475">
        <ele>30.11</ele>
        <time>2020-07-10T10:53:28Z</time>
      </trkpt>
      <trkpt lat="47.78695" lon="-3.40475">
        <ele>30.11</ele>
        <time>2020-07-10T10:53:29Z</time>
      </trkpt>
      <trkpt lat="47.78695" lon="-3.40475">
        <ele>30.11</ele>
        <time>2020-07-10T10:53:30Z</time>
      </trkpt>
      <trkpt lat="47.78695" lon="-3.40475">
        <ele>30.11</ele>
        <time>2020-07-10T10:53:31Z</time>
      </trkpt>
      <trkpt lat="47.78695" lon="-3.40475">
        <ele>30.11</ele>
        <time>2020-07-10T10:53:32Z</time>
      </trkpt>
      <trkpt lat="47.78695" lon="-3.40475">
        <ele>30.11</ele>
        <time>2020-07-10T10:53:33Z</time>
      </trkpt>
      <trkpt lat="47.78695" lon="-3.40475">
        <ele>30.11</ele>
        <time>2020-07-10T10:53:34Z</time>
      </trkpt>
      <trkpt lat="47.78695" lon="-3.40475">
        <ele>30.11</ele>
        <time>2020-07-10T10:53:35Z</time>
      </trkpt>
      <trkpt lat="47.78695" lon="-3.40475">
        <ele>30.11</ele>
        <time>2020-07-10T10:53:36Z</time>
      </trkpt>
      <trkpt lat="47.78695" lon="-3.40475">
        <ele>30.11</ele>
        <time>2020-07-10T10:53:37Z</time>
      </trkpt>
      <trkpt lat="47.78695" lon="-3.40475">
        <ele>30.11</ele>
        <time>2020-07-10T10:53:38Z</time>
      </trkpt>
      <trkpt lat="47.78695" lon="-3.40475">
        <ele>30.11</ele>
        <time>2020-07-10T10:53:39Z</time>
      </trkpt>
      <trkpt lat="47.78695" lon="-3.40475">
        <ele>30.11</ele>
        <time>2020-07-10T10:53:40Z</time>
      </trkpt>
      <trkpt lat="47.78695" lon="-3.40475">
        <ele>30.11</ele>
        <time>2020-07-10T10:53:41Z</time>
      </trkpt>
      <trkpt lat="47.78695" lon="-3.40475">
        <ele>30.11</ele>
        <time>2020-07-10T10:53:42Z</time>
      </trkpt>
      <trkpt lat="47.78695" lon="-3.40475">
        <ele>30.11</ele>
        <time>2020-07-10T10:53:43Z</time>
      </trkpt>
      <trkpt lat="47.78695" lon="-3.40475">
        <ele>30.11</ele>
        <time>2020-07-10T10:53:45Z</time>
      </trkpt>
      <trkpt lat="47.78695" lon="-3.40475">
        <ele>30.11</ele>
        <time>2020-07-10T10:53:46Z</time>
      </trkpt>
      <trkpt lat="47.78695" lon="-3.40475">
        <ele>30.11</ele>
        <time>2020-07-10T10:53:47Z</time>
      </trkpt>
      <trkpt lat="47.78695" lon="-3.40475">
        <ele>30.11</ele>
        <time>2020-07-10T10:53:48Z</time>
      </trkpt>
      <trkpt lat="47.78695" lon="-3.40475">
        <ele>30.11</ele>
        <time>2020-07-10T10:53:49Z</time>
      </trkpt>
      <trkpt lat="47.78695" lon="-3.40475">
        <ele>30.11</ele>
        <time>2020-07-10T10:53:50Z</time>
      </trkpt>
      <trkpt lat="47.78695" lon="-3.40475">
        <ele>30.11</ele>
        <time>2020-07-10T10:53:51Z</time>
      </trkpt>
      <trkpt lat="47.78695" lon="-3.40475">
        <ele>30.11</ele>
        <time>2020-07-10T10:53:52Z</time>
      </trkpt>
      <trkpt lat="47.78695" lon="-3.40475">
        <ele>30.11</ele>
        <time>2020-07-10T10:53:53Z</time>
      </trkpt>
      <trkpt lat="47.78695" lon="-3.40475">
        <ele>30.11</ele>
        <time>2020-07-10T10:53:54Z</time>
      </trkpt>
      <trkpt lat="47.78695" lon="-3.40475">
        <ele>30.11</ele>
        <time>2020-07-10T10:53:55Z</time>
      </trkpt>
      <trkpt lat="47.78695" lon="-3.40475">
        <ele>30.11</ele>
        <time>2020-07-10T10:53:56Z</time>
      </trkpt>
      <trkpt lat="47.78695" lon="-3.40475">
        <ele>30.11</ele>
        <time>2020-07-10T10:53:57Z</time>
      </trkpt>
      <trkpt lat="47.78695" lon="-3.40475">
        <ele>30.11</ele>
        <time>2020-07-10T10:53:58Z</time>
      </trkpt>
      <trkpt lat="47.78695" lon="-3.40475">
        <ele>30.11</ele>
        <time>2020-07-10T10:53:59Z</time>
      </trkpt>
      <trkpt lat="47.78695" lon="-3.40475">
        <ele>30.11</ele>
        <time>2020-07-10T10:54:00Z</time>
      </trkpt>
      <trkpt lat="47.78695" lon="-3.40475">
        <ele>30.11</ele>
        <time>2020-07-10T10:54:01Z</time>
      </trkpt>
      <trkpt lat="47.78695" lon="-3.40475">
        <ele>30.11</ele>
        <time>2020-07-10T10:54:02Z</time>
      </trkpt>
      <trkpt lat="47.78695" lon="-3.40475">
        <ele>30.11</ele>
        <time>2020-07-10T10:54:03Z</time>
      </trkpt>
      <trkpt lat="47.78695" lon="-3.40475">
        <ele>30.11</ele>
        <time>2020-07-10T10:54:04Z</time>
      </trkpt>
      <trkpt lat="47.78695" lon="-3.40475">
        <ele>30.11</ele>
        <time>2020-07-10T10:54:05Z</time>
      </trkpt>
      <trkpt lat="47.78695" lon="-3.40475">
        <ele>30.11</ele>
        <time>2020-07-10T10:54:06Z</time>
      </trkpt>
      <trkpt lat="47.78695" lon="-3.40475">
        <ele>30.11</ele>
        <time>2020-07-10T10:54:07Z</time>
      </trkpt>
      <trkpt lat="47.78695" lon="-3.40475">
        <ele>30.11</ele>
        <time>2020-07-10T10:54:08Z</time>
      </trkpt>
      <trkpt lat="47.78695" lon="-3.40475">
        <ele>30.11</ele>
        <time>2020-07-10T10:54:09Z</time>
      </trkpt>
      <trkpt lat="47.78695" lon="-3.40475">
        <ele>30.11</ele>
        <time>2020-07-10T10:54:10Z</time>
      </trkpt>
      <trkpt lat="47.78695" lon="-3.40475">
        <ele>30.11</ele>
        <time>2020-07-10T10:54:11Z</time>
      </trkpt>
      <trkpt lat="47.78695" lon="-3.40475">
        <ele>30.11</ele>
        <time>2020-07-10T10:54:12Z</time>
      </trkpt>
      <trkpt lat="47.78695" lon="-3.40475">
        <ele>30.11</ele>
        <time>2020-07-10T10:54:13Z</time>
      </trkpt>
      <trkpt lat="47.78695" lon="-3.40475">
        <ele>30.11</ele>
        <time>2020-07-10T10:54:14Z</time>
      </trkpt>
      <trkpt lat="47.78695" lon="-3.40475">
        <ele>30.11</ele>
        <time>2020-07-10T10:54:15Z</time>
      </trkpt>
      <trkpt lat="47.78695" lon="-3.40475">
        <ele>30.11</ele>
        <time>2020-07-10T10:54:16Z</time>
      </trkpt>
      <trkpt lat="47.78695" lon="-3.40475">
        <ele>30.11</ele>
        <time>2020-07-10T10:54:17Z</time>
      </trkpt>
      <trkpt lat="47.78695" lon="-3.40475">
        <ele>30.11</ele>
        <time>2020-07-10T10:54:18Z</time>
      </trkpt>
      <trkpt lat="47.78695" lon="-3.40475">
        <ele>30.11</ele>
        <time>2020-07-10T10:54:19Z</time>
      </trkpt>
      <trkpt lat="47.78695" lon="-3.40475">
        <ele>30.11</ele>
        <time>2020-07-10T10:54:20Z</time>
      </trkpt>
      <trkpt lat="47.78695" lon="-3.40475">
        <ele>30.11</ele>
        <time>2020-07-10T10:54:21Z</time>
      </trkpt>
      <trkpt lat="47.78695" lon="-3.40475">
        <ele>30.11</ele>
        <time>2020-07-10T10:54:22Z</time>
      </trkpt>
      <trkpt lat="47.78695" lon="-3.40475">
        <ele>30.11</ele>
        <time>2020-07-10T10:54:23Z</time>
      </trkpt>
      <trkpt lat="47.78695" lon="-3.40475">
        <ele>30.11</ele>
        <time>2020-07-10T10:54:24Z</time>
      </trkpt>
      <trkpt lat="47.78695" lon="-3.40475">
        <ele>30.11</ele>
        <time>2020-07-10T10:54:25Z</time>
      </trkpt>
      <trkpt lat="47.78695" lon="-3.40475">
        <ele>30.11</ele>
        <time>2020-07-10T10:54:26Z</time>
      </trkpt>
      <trkpt lat="47.78695" lon="-3.40475">
        <ele>30.11</ele>
        <time>2020-07-10T10:54:27Z</time>
      </trkpt>
      <trkpt lat="47.78695" lon="-3.40475">
        <ele>30.11</ele>
        <time>2020-07-10T10:54:28Z</time>
      </trkpt>
      <trkpt lat="47.78695" lon="-3.40475">
        <ele>30.11</ele>
        <time>2020-07-10T10:54:29Z</time>
      </trkpt>
      <trkpt lat="47.78695" lon="-3.40475">
        <ele>30.11</ele>
        <time>2020-07-10T10:54:30Z</time>
      </trkpt>
      <trkpt lat="47.78695" lon="-3.40475">
        <ele>30.11</ele>
        <time>2020-07-10T10:54:31Z</time>
      </trkpt>
      <trkpt lat="47.78695" lon="-3.40475">
        <ele>30.11</ele>
        <time>2020-07-10T10:54:32Z</time>
      </trkpt>
      <trkpt lat="47.78695" lon="-3.40475">
        <ele>30.11</ele>
        <time>2020-07-10T10:54:33Z</time>
      </trkpt>
      <trkpt lat="47.78695" lon="-3.40475">
        <ele>30.11</ele>
        <time>2020-07-10T10:54:34Z</time>
      </trkpt>
      <trkpt lat="47.78695" lon="-3.40475">
        <ele>30.11</ele>
        <time>2020-07-10T10:54:35Z</time>
      </trkpt>
      <trkpt lat="47.78695" lon="-3.40475">
        <ele>30.11</ele>
        <time>2020-07-10T10:54:36Z</time>
      </trkpt>
      <trkpt lat="47.78695" lon="-3.40475">
        <ele>30.11</ele>
        <time>2020-07-10T10:54:37Z</time>
      </trkpt>
      <trkpt lat="47.78695" lon="-3.40475">
        <ele>30.11</ele>
        <time>2020-07-10T10:54:38Z</time>
      </trkpt>
      <trkpt lat="47.78695" lon="-3.40475">
        <ele>30.11</ele>
        <time>2020-07-10T10:54:39Z</time>
      </trkpt>
      <trkpt lat="47.78695" lon="-3.40475">
        <ele>30.11</ele>
        <time>2020-07-10T10:54:40Z</time>
      </trkpt>
      <trkpt lat="47.78695" lon="-3.40475">
        <ele>30.11</ele>
        <time>2020-07-10T10:54:41Z</time>
      </trkpt>
      <trkpt lat="47.78695" lon="-3.40475">
        <ele>30.11</ele>
        <time>2020-07-10T10:54:42Z</time>
      </trkpt>
      <trkpt lat="47.78695" lon="-3.40475">
        <ele>30.11</ele>
        <time>2020-07-10T10:54:43Z</time>
      </trkpt>
      <trkpt lat="47.78695" lon="-3.40475">
        <ele>30.11</ele>
        <time>2020-07-10T10:54:44Z</time>
      </trkpt>
      <trkpt lat="47.78689" lon="-3.40465">
        <ele>30.29</ele>
        <time>2020-07-10T10:54:45Z</time>
      </trkpt>
      <trkpt lat="47.78689" lon="-3.40462">
        <ele>30.38</ele>
        <time>2020-07-10T10:54:46Z</time>
      </trkpt>
      <trkpt lat="47.78689" lon="-3.40459">
        <ele>30.46</ele>
        <time>2020-07-10T10:54:47Z</time>
      </trkpt>
      <trkpt lat="47.78688" lon="-3.40455">
        <ele>30.53</ele>
        <time>2020-07-10T10:54:48Z</time>
      </trkpt>
      <trkpt lat="47.78688" lon="-3.40452">
        <ele>30.59</ele>
        <time>2020-07-10T10:54:49Z</time>
      </trkpt>
      <trkpt lat="47.78687" lon="-3.40448">
        <ele>30.66</ele>
        <time>2020-07-10T10:54:50Z</time>
      </trkpt>
      <trkpt lat="47.78686" lon="-3.40442">
        <ele>30.72</ele>
        <time>2020-07-10T10:54:51Z</time>
      </trkpt>
      <trkpt lat="47.78685" lon="-3.40436">
        <ele>30.8</ele>
        <time>2020-07-10T10:54:52Z</time>
      </trkpt>
      <trkpt lat="47.78684" lon="-3.40431">
        <ele>30.88</ele>
        <time>2020-07-10T10:54:53Z</time>
      </trkpt>
      <trkpt lat="47.78682" lon="-3.40425">
        <ele>30.93</ele>
        <time>2020-07-10T10:54:54Z</time>
      </trkpt>
      <trkpt lat="47.78681" lon="-3.40419">
        <ele>30.99</ele>
        <time>2020-07-10T10:54:55Z</time>
      </trkpt>
      <trkpt lat="47.7868" lon="-3.40413">
        <ele>30.96</ele>
        <time>2020-07-10T10:54:56Z</time>
      </trkpt>
      <trkpt lat="47.78679" lon="-3.40406">
        <ele>30.88</ele>
        <time>2020-07-10T10:54:57Z</time>
      </trkpt>
      <trkpt lat="47.78678" lon="-3.40399">
        <ele>30.75</ele>
        <time>2020-07-10T10:54:58Z</time>
      </trkpt>
      <trkpt lat="47.78677" lon="-3.40393">
        <ele>30.56</ele>
        <time>2020-07-10T10:54:59Z</time>
      </trkpt>
      <trkpt lat="47.78676" lon="-3.40386">
        <ele>30.43</ele>
        <time>2020-07-10T10:55:00Z</time>
      </trkpt>
      <trkpt lat="47.78676" lon="-3.4038">
        <ele>30.33</ele>
        <time>2020-07-10T10:55:01Z</time>
      </trkpt>
      <trkpt lat="47.78676" lon="-3.40373">
        <ele>30.31</ele>
        <time>2020-07-10T10:55:02Z</time>
      </trkpt>
      <trkpt lat="47.78676" lon="-3.40367">
        <ele>30.33</ele>
        <time>2020-07-10T10:55:03Z</time>
      </trkpt>
      <trkpt lat="47.78676" lon="-3.40361">
        <ele>30.36</ele>
        <time>2020-07-10T10:55:04Z</time>
      </trkpt>
      <trkpt lat="47.78676" lon="-3.40356">
        <ele>30.37</ele>
        <time>2020-07-10T10:55:05Z</time>
      </trkpt>
      <trkpt lat="47.78676" lon="-3.40349">
        <ele>30.49</ele>
        <time>2020-07-10T10:55:06Z</time>
      </trkpt>
      <trkpt lat="47.78676" lon="-3.40342">
        <ele>30.51</ele>
        <time>2020-07-10T10:55:07Z</time>
      </trkpt>
      <trkpt lat="47.78675" lon="-3.40334">
        <ele>30.5</ele>
        <time>2020-07-10T10:55:08Z</time>
      </trkpt>
      <trkpt lat="47.78674" lon="-3.40327">
        <ele>30.35</ele>
        <time>2020-07-10T10:55:09Z</time>
      </trkpt>
      <trkpt lat="47.78673" lon="-3.4032">
        <ele>30.16</ele>
        <time>2020-07-10T10:55:10Z</time>
      </trkpt>
      <trkpt lat="47.78672" lon="-3.40313">
        <ele>29.96</ele>
        <time>2020-07-10T10:55:11Z</time>
      </trkpt>
      <trkpt lat="47.7867" lon="-3.40306">
        <ele>29.71</ele>
        <time>2020-07-10T10:55:12Z</time>
      </trkpt>
      <trkpt lat="47.78669" lon="-3.40298">
        <ele>29.7</ele>
        <time>2020-07-10T10:55:13Z</time>
      </trkpt>
      <trkpt lat="47.78668" lon="-3.4029">
        <ele>29.77</ele>
        <time>2020-07-10T10:55:14Z</time>
      </trkpt>
      <trkpt lat="47.78667" lon="-3.40282">
        <ele>29.91</ele>
        <time>2020-07-10T10:55:15Z</time>
      </trkpt>
      <trkpt lat="47.78665" lon="-3.40272">
        <ele>30.05</ele>
        <time>2020-07-10T10:55:16Z</time>
      </trkpt>
      <trkpt lat="47.78663" lon="-3.40263">
        <ele>30.21</ele>
        <time>2020-07-10T10:55:17Z</time>
      </trkpt>
      <trkpt lat="47.78662" lon="-3.40255">
        <ele>30.31</ele>
        <time>2020-07-10T10:55:18Z</time>
      </trkpt>
      <trkpt lat="47.7866" lon="-3.40246">
        <ele>30.37</ele>
        <time>2020-07-10T10:55:19Z</time>
      </trkpt>
      <trkpt lat="47.78658" lon="-3.40238">
        <ele>30.4</ele>
        <time>2020-07-10T10:55:20Z</time>
      </trkpt>
      <trkpt lat="47.78657" lon="-3.40231">
        <ele>30.4</ele>
        <time>2020-07-10T10:55:21Z</time>
      </trkpt>
      <trkpt lat="47.78655" lon="-3.40224">
        <ele>30.35</ele>
        <time>2020-07-10T10:55:22Z</time>
      </trkpt>
      <trkpt lat="47.78655" lon="-3.40217">
        <ele>30.37</ele>
        <time>2020-07-10T10:55:23Z</time>
      </trkpt>
      <trkpt lat="47.78654" lon="-3.4021">
        <ele>30.34</ele>
        <time>2020-07-10T10:55:24Z</time>
      </trkpt>
      <trkpt lat="47.78653" lon="-3.40203">
        <ele>30.39</ele>
        <time>2020-07-10T10:55:25Z</time>
      </trkpt>
      <trkpt lat="47.78652" lon="-3.40197">
        <ele>30.42</ele>
        <time>2020-07-10T10:55:26Z</time>
      </trkpt>
      <trkpt lat="47.78652" lon="-3.40189">
        <ele>30.51</ele>
        <time>2020-07-10T10:55:27Z</time>
      </trkpt>
      <trkpt lat="47.7865" lon="-3.40181">
        <ele>30.65</ele>
        <time>2020-07-10T10:55:28Z</time>
      </trkpt>
      <trkpt lat="47.78649" lon="-3.40174">
        <ele>30.79</ele>
        <time>2020-07-10T10:55:29Z</time>
      </trkpt>
      <trkpt lat="47.78648" lon="-3.40167">
        <ele>30.9</ele>
        <time>2020-07-10T10:55:30Z</time>
      </trkpt>
      <trkpt lat="47.78646" lon="-3.4016">
        <ele>30.95</ele>
        <time>2020-07-10T10:55:31Z</time>
      </trkpt>
      <trkpt lat="47.78643" lon="-3.40153">
        <ele>30.95</ele>
        <time>2020-07-10T10:55:32Z</time>
      </trkpt>
      <trkpt lat="47.78641" lon="-3.40147">
        <ele>30.94</ele>
        <time>2020-07-10T10:55:33Z</time>
      </trkpt>
      <trkpt lat="47.78638" lon="-3.4014">
        <ele>30.92</ele>
        <time>2020-07-10T10:55:34Z</time>
      </trkpt>
      <trkpt lat="47.78635" lon="-3.40133">
        <ele>30.8</ele>
        <time>2020-07-10T10:55:35Z</time>
      </trkpt>
      <trkpt lat="47.78632" lon="-3.40127">
        <ele>30.61</ele>
        <time>2020-07-10T10:55:36Z</time>
      </trkpt>
      <trkpt lat="47.78629" lon="-3.40121">
        <ele>30.4</ele>
        <time>2020-07-10T10:55:37Z</time>
      </trkpt>
      <trkpt lat="47.78627" lon="-3.40114">
        <ele>30.21</ele>
        <time>2020-07-10T10:55:38Z</time>
      </trkpt>
      <trkpt lat="47.78625" lon="-3.40107">
        <ele>30.14</ele>
        <time>2020-07-10T10:55:39Z</time>
      </trkpt>
      <trkpt lat="47.78624" lon="-3.401">
        <ele>30.11</ele>
        <time>2020-07-10T10:55:40Z</time>
      </trkpt>
      <trkpt lat="47.78623" lon="-3.40094">
        <ele>30.1</ele>
        <time>2020-07-10T10:55:41Z</time>
      </trkpt>
      <trkpt lat="47.78621" lon="-3.40087">
        <ele>30.03</ele>
        <time>2020-07-10T10:55:42Z</time>
      </trkpt>
      <trkpt lat="47.78619" lon="-3.40081">
        <ele>29.96</ele>
        <time>2020-07-10T10:55:43Z</time>
      </trkpt>
      <trkpt lat="47.78618" lon="-3.40075">
        <ele>29.96</ele>
        <time>2020-07-10T10:55:44Z</time>
      </trkpt>
      <trkpt lat="47.78617" lon="-3.40068">
        <ele>29.96</ele>
        <time>2020-07-10T10:55:45Z</time>
      </trkpt>
      <trkpt lat="47.78618" lon="-3.40063">
        <ele>30.13</ele>
        <time>2020-07-10T10:55:46Z</time>
      </trkpt>
      <trkpt lat="47.78614" lon="-3.40057">
        <ele>29.79</ele>
        <time>2020-07-10T10:55:47Z</time>
      </trkpt>
      <trkpt lat="47.78613" lon="-3.40054">
        <ele>29.47</ele>
        <time>2020-07-10T10:55:48Z</time>
      </trkpt>
      <trkpt lat="47.78609" lon="-3.4005">
        <ele>29.08</ele>
        <time>2020-07-10T10:55:49Z</time>
      </trkpt>
      <trkpt lat="47.78606" lon="-3.40049">
        <ele>28.91</ele>
        <time>2020-07-10T10:55:50Z</time>
      </trkpt>
      <trkpt lat="47.78604" lon="-3.4005">
        <ele>28.79</ele>
        <time>2020-07-10T10:55:51Z</time>
      </trkpt>
      <trkpt lat="47.78601" lon="-3.40051">
        <ele>28.68</ele>
        <time>2020-07-10T10:55:52Z</time>
      </trkpt>
      <trkpt lat="47.78598" lon="-3.40052">
        <ele>28.57</ele>
        <time>2020-07-10T10:55:53Z</time>
      </trkpt>
      <trkpt lat="47.78595" lon="-3.40053">
        <ele>28.46</ele>
        <time>2020-07-10T10:55:54Z</time>
      </trkpt>
      <trkpt lat="47.78592" lon="-3.40053">
        <ele>28.35</ele>
        <time>2020-07-10T10:55:55Z</time>
      </trkpt>
      <trkpt lat="47.7859" lon="-3.40053">
        <ele>28.27</ele>
        <time>2020-07-10T10:55:56Z</time>
      </trkpt>
      <trkpt lat="47.78588" lon="-3.40051">
        <ele>28.2</ele>
        <time>2020-07-10T10:55:57Z</time>
      </trkpt>
      <trkpt lat="47.78587" lon="-3.40047">
        <ele>28.16</ele>
        <time>2020-07-10T10:55:58Z</time>
      </trkpt>
      <trkpt lat="47.78587" lon="-3.40043">
        <ele>28.14</ele>
        <time>2020-07-10T10:55:59Z</time>
      </trkpt>
      <trkpt lat="47.78586" lon="-3.40039">
        <ele>28.1</ele>
        <time>2020-07-10T10:56:00Z</time>
      </trkpt>
      <trkpt lat="47.78584" lon="-3.40035">
        <ele>28.06</ele>
        <time>2020-07-10T10:56:01Z</time>
      </trkpt>
      <trkpt lat="47.78584" lon="-3.40031">
        <ele>28.03</ele>
        <time>2020-07-10T10:56:02Z</time>
      </trkpt>
      <trkpt lat="47.78584" lon="-3.40027">
        <ele>28</ele>
        <time>2020-07-10T10:56:03Z</time>
      </trkpt>
      <trkpt lat="47.78583" lon="-3.40024">
        <ele>27.91</ele>
        <time>2020-07-10T10:56:04Z</time>
      </trkpt>
      <trkpt lat="47.78583" lon="-3.40022">
        <ele>27.86</ele>
        <time>2020-07-10T10:56:05Z</time>
      </trkpt>
      <trkpt lat="47.78583" lon="-3.40018">
        <ele>27.76</ele>
        <time>2020-07-10T10:56:06Z</time>
      </trkpt>
      <trkpt lat="47.78582" lon="-3.40014">
        <ele>27.69</ele>
        <time>2020-07-10T10:56:07Z</time>
      </trkpt>
      <trkpt lat="47.78581" lon="-3.40011">
        <ele>27.67</ele>
        <time>2020-07-10T10:56:08Z</time>
      </trkpt>
      <trkpt lat="47.78579" lon="-3.40007">
        <ele>27.8</ele>
        <time>2020-07-10T10:56:09Z</time>
      </trkpt>
      <trkpt lat="47.78577" lon="-3.40004">
        <ele>27.86</ele>
        <time>2020-07-10T10:56:10Z</time>
      </trkpt>
      <trkpt lat="47.78576" lon="-3.40001">
        <ele>27.87</ele>
        <time>2020-07-10T10:56:11Z</time>
      </trkpt>
      <trkpt lat="47.78574" lon="-3.39996">
        <ele>27.9</ele>
        <time>2020-07-10T10:56:12Z</time>
      </trkpt>
      <trkpt lat="47.78574" lon="-3.39992">
        <ele>27.84</ele>
        <time>2020-07-10T10:56:13Z</time>
      </trkpt>
      <trkpt lat="47.78576" lon="-3.39985">
        <ele>27.61</ele>
        <time>2020-07-10T10:56:14Z</time>
      </trkpt>
      <trkpt lat="47.78575" lon="-3.39979">
        <ele>27.49</ele>
        <time>2020-07-10T10:56:15Z</time>
      </trkpt>
      <trkpt lat="47.78575" lon="-3.39972">
        <ele>27.36</ele>
        <time>2020-07-10T10:56:16Z</time>
      </trkpt>
      <trkpt lat="47.78574" lon="-3.39965">
        <ele>27.35</ele>
        <time>2020-07-10T10:56:17Z</time>
      </trkpt>
      <trkpt lat="47.78573" lon="-3.39959">
        <ele>27.36</ele>
        <time>2020-07-10T10:56:18Z</time>
      </trkpt>
      <trkpt lat="47.78573" lon="-3.39954">
        <ele>27.38</ele>
        <time>2020-07-10T10:56:19Z</time>
      </trkpt>
      <trkpt lat="47.78569" lon="-3.39946">
        <ele>27.48</ele>
        <time>2020-07-10T10:56:20Z</time>
      </trkpt>
      <trkpt lat="47.78565" lon="-3.39938">
        <ele>27.5</ele>
        <time>2020-07-10T10:56:21Z</time>
      </trkpt>
      <trkpt lat="47.78563" lon="-3.39929">
        <ele>27.38</ele>
        <time>2020-07-10T10:56:22Z</time>
      </trkpt>
      <trkpt lat="47.78561" lon="-3.39921">
        <ele>27.2</ele>
        <time>2020-07-10T10:56:23Z</time>
      </trkpt>
      <trkpt lat="47.7856" lon="-3.39913">
        <ele>27.06</ele>
        <time>2020-07-10T10:56:24Z</time>
      </trkpt>
      <trkpt lat="47.7856" lon="-3.39905">
        <ele>27.02</ele>
        <time>2020-07-10T10:56:25Z</time>
      </trkpt>
      <trkpt lat="47.78561" lon="-3.39897">
        <ele>27.01</ele>
        <time>2020-07-10T10:56:26Z</time>
      </trkpt>
      <trkpt lat="47.78561" lon="-3.39889">
        <ele>27</ele>
        <time>2020-07-10T10:56:27Z</time>
      </trkpt>
      <trkpt lat="47.78562" lon="-3.39881">
        <ele>27.15</ele>
        <time>2020-07-10T10:56:28Z</time>
      </trkpt>
      <trkpt lat="47.78563" lon="-3.39874">
        <ele>27.31</ele>
        <time>2020-07-10T10:56:29Z</time>
      </trkpt>
      <trkpt lat="47.78566" lon="-3.39867">
        <ele>27.43</ele>
        <time>2020-07-10T10:56:30Z</time>
      </trkpt>
      <trkpt lat="47.78568" lon="-3.3986">
        <ele>27.55</ele>
        <time>2020-07-10T10:56:31Z</time>
      </trkpt>
      <trkpt lat="47.78569" lon="-3.39854">
        <ele>27.8</ele>
        <time>2020-07-10T10:56:32Z</time>
      </trkpt>
      <trkpt lat="47.7857" lon="-3.39847">
        <ele>28.08</ele>
        <time>2020-07-10T10:56:33Z</time>
      </trkpt>
      <trkpt lat="47.78571" lon="-3.39841">
        <ele>28.38</ele>
        <time>2020-07-10T10:56:34Z</time>
      </trkpt>
      <trkpt lat="47.78571" lon="-3.39837">
        <ele>28.62</ele>
        <time>2020-07-10T10:56:35Z</time>
      </trkpt>
      <trkpt lat="47.78571" lon="-3.39834">
        <ele>28.77</ele>
        <time>2020-07-10T10:56:36Z</time>
      </trkpt>
      <trkpt lat="47.78571" lon="-3.39834">
        <ele>28.84</ele>
        <time>2020-07-10T10:56:37Z</time>
      </trkpt>
      <trkpt lat="47.78571" lon="-3.39833">
        <ele>28.88</ele>
        <time>2020-07-10T10:56:38Z</time>
      </trkpt>
      <trkpt lat="47.78571" lon="-3.39833">
        <ele>28.87</ele>
        <time>2020-07-10T10:56:39Z</time>
      </trkpt>
      <trkpt lat="47.78571" lon="-3.39833">
        <ele>28.87</ele>
        <time>2020-07-10T10:56:40Z</time>
      </trkpt>
      <trkpt lat="47.78571" lon="-3.39833">
        <ele>28.86</ele>
        <time>2020-07-10T10:56:41Z</time>
      </trkpt>
      <trkpt lat="47.78571" lon="-3.39833">
        <ele>28.86</ele>
        <time>2020-07-10T10:56:42Z</time>
      </trkpt>
      <trkpt lat="47.78571" lon="-3.39833">
        <ele>28.86</ele>
        <time>2020-07-10T10:56:43Z</time>
      </trkpt>
      <trkpt lat="47.78571" lon="-3.39833">
        <ele>28.86</ele>
        <time>2020-07-10T10:56:44Z</time>
      </trkpt>
      <trkpt lat="47.78571" lon="-3.39833">
        <ele>28.86</ele>
        <time>2020-07-10T10:56:45Z</time>
      </trkpt>
      <trkpt lat="47.78571" lon="-3.39833">
        <ele>28.86</ele>
        <time>2020-07-10T10:56:46Z</time>
      </trkpt>
      <trkpt lat="47.78571" lon="-3.39833">
        <ele>28.86</ele>
        <time>2020-07-10T10:56:47Z</time>
      </trkpt>
      <trkpt lat="47.78574" lon="-3.39825">
        <ele>28.85</ele>
        <time>2020-07-10T10:56:48Z</time>
      </trkpt>
      <trkpt lat="47.78576" lon="-3.39822">
        <ele>28.8</ele>
        <time>2020-07-10T10:56:49Z</time>
      </trkpt>
      <trkpt lat="47.78577" lon="-3.39815">
        <ele>28.76</ele>
        <time>2020-07-10T10:56:50Z</time>
      </trkpt>
      <trkpt lat="47.78578" lon="-3.3981">
        <ele>28.73</ele>
        <time>2020-07-10T10:56:51Z</time>
      </trkpt>
      <trkpt lat="47.78579" lon="-3.39805">
        <ele>28.7</ele>
        <time>2020-07-10T10:56:52Z</time>
      </trkpt>
      <trkpt lat="47.78579" lon="-3.39801">
        <ele>28.78</ele>
        <time>2020-07-10T10:56:53Z</time>
      </trkpt>
      <trkpt lat="47.7858" lon="-3.39797">
        <ele>28.76</ele>
        <time>2020-07-10T10:56:54Z</time>
      </trkpt>
      <trkpt lat="47.78581" lon="-3.39793">
        <ele>28.76</ele>
        <time>2020-07-10T10:56:55Z</time>
      </trkpt>
      <trkpt lat="47.78582" lon="-3.39788">
        <ele>28.83</ele>
        <time>2020-07-10T10:56:56Z</time>
      </trkpt>
      <trkpt lat="47.78583" lon="-3.39784">
        <ele>28.8</ele>
        <time>2020-07-10T10:56:57Z</time>
      </trkpt>
      <trkpt lat="47.78584" lon="-3.3978">
        <ele>28.83</ele>
        <time>2020-07-10T10:56:58Z</time>
      </trkpt>
      <trkpt lat="47.78585" lon="-3.39776">
        <ele>28.8</ele>
        <time>2020-07-10T10:56:59Z</time>
      </trkpt>
      <trkpt lat="47.78585" lon="-3.39771">
        <ele>28.68</ele>
        <time>2020-07-10T10:57:00Z</time>
      </trkpt>
      <trkpt lat="47.78584" lon="-3.39765">
        <ele>28.56</ele>
        <time>2020-07-10T10:57:01Z</time>
      </trkpt>
      <trkpt lat="47.78583" lon="-3.39759">
        <ele>28.4</ele>
        <time>2020-07-10T10:57:02Z</time>
      </trkpt>
      <trkpt lat="47.78583" lon="-3.39752">
        <ele>28.25</ele>
        <time>2020-07-10T10:57:03Z</time>
      </trkpt>
      <trkpt lat="47.78582" lon="-3.39746">
        <ele>28.15</ele>
        <time>2020-07-10T10:57:04Z</time>
      </trkpt>
      <trkpt lat="47.7858" lon="-3.39739">
        <ele>28.1</ele>
        <time>2020-07-10T10:57:05Z</time>
      </trkpt>
      <trkpt lat="47.78578" lon="-3.39734">
        <ele>28.14</ele>
        <time>2020-07-10T10:57:06Z</time>
      </trkpt>
      <trkpt lat="47.78577" lon="-3.3973">
        <ele>28.17</ele>
        <time>2020-07-10T10:57:07Z</time>
      </trkpt>
      <trkpt lat="47.78576" lon="-3.39727">
        <ele>28.15</ele>
        <time>2020-07-10T10:57:08Z</time>
      </trkpt>
      <trkpt lat="47.78576" lon="-3.39723">
        <ele>28.11</ele>
        <time>2020-07-10T10:57:09Z</time>
      </trkpt>
      <trkpt lat="47.78575" lon="-3.39718">
        <ele>28.04</ele>
        <time>2020-07-10T10:57:10Z</time>
      </trkpt>
      <trkpt lat="47.78573" lon="-3.39711">
        <ele>27.94</ele>
        <time>2020-07-10T10:57:11Z</time>
      </trkpt>
      <trkpt lat="47.78572" lon="-3.39708">
        <ele>27.88</ele>
        <time>2020-07-10T10:57:12Z</time>
      </trkpt>
      <trkpt lat="47.78571" lon="-3.39704">
        <ele>27.86</ele>
        <time>2020-07-10T10:57:13Z</time>
      </trkpt>
      <trkpt lat="47.7857" lon="-3.39702">
        <ele>27.87</ele>
        <time>2020-07-10T10:57:14Z</time>
      </trkpt>
      <trkpt lat="47.78566" lon="-3.39696">
        <ele>27.94</ele>
        <time>2020-07-10T10:57:15Z</time>
      </trkpt>
      <trkpt lat="47.78564" lon="-3.39692">
        <ele>28.05</ele>
        <time>2020-07-10T10:57:16Z</time>
      </trkpt>
      <trkpt lat="47.78561" lon="-3.39687">
        <ele>28.16</ele>
        <time>2020-07-10T10:57:17Z</time>
      </trkpt>
      <trkpt lat="47.78559" lon="-3.39682">
        <ele>28.26</ele>
        <time>2020-07-10T10:57:18Z</time>
      </trkpt>
      <trkpt lat="47.78555" lon="-3.39676">
        <ele>28.35</ele>
        <time>2020-07-10T10:57:19Z</time>
      </trkpt>
      <trkpt lat="47.78553" lon="-3.39672">
        <ele>28.68</ele>
        <time>2020-07-10T10:57:20Z</time>
      </trkpt>
      <trkpt lat="47.7855" lon="-3.39666">
        <ele>29.06</ele>
        <time>2020-07-10T10:57:21Z</time>
      </trkpt>
      <trkpt lat="47.78547" lon="-3.3966">
        <ele>29.48</ele>
        <time>2020-07-10T10:57:22Z</time>
      </trkpt>
      <trkpt lat="47.78547" lon="-3.39653">
        <ele>29.66</ele>
        <time>2020-07-10T10:57:23Z</time>
      </trkpt>
      <trkpt lat="47.78546" lon="-3.39647">
        <ele>29.8</ele>
        <time>2020-07-10T10:57:24Z</time>
      </trkpt>
      <trkpt lat="47.78544" lon="-3.39641">
        <ele>30.04</ele>
        <time>2020-07-10T10:57:25Z</time>
      </trkpt>
      <trkpt lat="47.78543" lon="-3.39635">
        <ele>30.06</ele>
        <time>2020-07-10T10:57:26Z</time>
      </trkpt>
      <trkpt lat="47.78544" lon="-3.39628">
        <ele>29.85</ele>
        <time>2020-07-10T10:57:27Z</time>
      </trkpt>
      <trkpt lat="47.78543" lon="-3.39621">
        <ele>29.68</ele>
        <time>2020-07-10T10:57:28Z</time>
      </trkpt>
      <trkpt lat="47.78543" lon="-3.39612">
        <ele>29.46</ele>
        <time>2020-07-10T10:57:29Z</time>
      </trkpt>
      <trkpt lat="47.78542" lon="-3.39604">
        <ele>29.04</ele>
        <time>2020-07-10T10:57:30Z</time>
      </trkpt>
      <trkpt lat="47.78541" lon="-3.39595">
        <ele>28.61</ele>
        <time>2020-07-10T10:57:31Z</time>
      </trkpt>
      <trkpt lat="47.7854" lon="-3.39587">
        <ele>28.2</ele>
        <time>2020-07-10T10:57:32Z</time>
      </trkpt>
      <trkpt lat="47.78538" lon="-3.39581">
        <ele>27.81</ele>
        <time>2020-07-10T10:57:33Z</time>
      </trkpt>
      <trkpt lat="47.78537" lon="-3.39574">
        <ele>27.28</ele>
        <time>2020-07-10T10:57:34Z</time>
      </trkpt>
      <trkpt lat="47.78536" lon="-3.39568">
        <ele>26.7</ele>
        <time>2020-07-10T10:57:35Z</time>
      </trkpt>
      <trkpt lat="47.78534" lon="-3.39563">
        <ele>26.12</ele>
        <time>2020-07-10T10:57:36Z</time>
      </trkpt>
      <trkpt lat="47.78533" lon="-3.39558">
        <ele>25.59</ele>
        <time>2020-07-10T10:57:37Z</time>
      </trkpt>
      <trkpt lat="47.78532" lon="-3.39553">
        <ele>25.08</ele>
        <time>2020-07-10T10:57:38Z</time>
      </trkpt>
      <trkpt lat="47.78532" lon="-3.39549">
        <ele>24.74</ele>
        <time>2020-07-10T10:57:39Z</time>
      </trkpt>
      <trkpt lat="47.78533" lon="-3.39545">
        <ele>24.51</ele>
        <time>2020-07-10T10:57:40Z</time>
      </trkpt>
      <trkpt lat="47.78536" lon="-3.39541">
        <ele>24.34</ele>
        <time>2020-07-10T10:57:41Z</time>
      </trkpt>
      <trkpt lat="47.78538" lon="-3.39538">
        <ele>24.23</ele>
        <time>2020-07-10T10:57:42Z</time>
      </trkpt>
      <trkpt lat="47.78539" lon="-3.39536">
        <ele>24.18</ele>
        <time>2020-07-10T10:57:43Z</time>
      </trkpt>
      <trkpt lat="47.7854" lon="-3.39535">
        <ele>24.18</ele>
        <time>2020-07-10T10:57:44Z</time>
      </trkpt>
      <trkpt lat="47.78542" lon="-3.39534">
        <ele>24.24</ele>
        <time>2020-07-10T10:57:45Z</time>
      </trkpt>
      <trkpt lat="47.78544" lon="-3.39532">
        <ele>24.27</ele>
        <time>2020-07-10T10:57:46Z</time>
      </trkpt>
      <trkpt lat="47.78546" lon="-3.39532">
        <ele>24.35</ele>
        <time>2020-07-10T10:57:47Z</time>
      </trkpt>
      <trkpt lat="47.78547" lon="-3.39531">
        <ele>24.44</ele>
        <time>2020-07-10T10:57:48Z</time>
      </trkpt>
      <trkpt lat="47.78549" lon="-3.3953">
        <ele>24.54</ele>
        <time>2020-07-10T10:57:49Z</time>
      </trkpt>
      <trkpt lat="47.7855" lon="-3.39528">
        <ele>24.59</ele>
        <time>2020-07-10T10:57:50Z</time>
      </trkpt>
      <trkpt lat="47.7855" lon="-3.39525">
        <ele>24.72</ele>
        <time>2020-07-10T10:57:51Z</time>
      </trkpt>
      <trkpt lat="47.7855" lon="-3.39521">
        <ele>24.84</ele>
        <time>2020-07-10T10:57:52Z</time>
      </trkpt>
      <trkpt lat="47.78547" lon="-3.39517">
        <ele>24.84</ele>
        <time>2020-07-10T10:57:53Z</time>
      </trkpt>
      <trkpt lat="47.78545" lon="-3.39512">
        <ele>24.77</ele>
        <time>2020-07-10T10:57:54Z</time>
      </trkpt>
      <trkpt lat="47.78541" lon="-3.39506">
        <ele>24.46</ele>
        <time>2020-07-10T10:57:55Z</time>
      </trkpt>
      <trkpt lat="47.78538" lon="-3.39501">
        <ele>24.02</ele>
        <time>2020-07-10T10:57:56Z</time>
      </trkpt>
      <trkpt lat="47.78535" lon="-3.39492">
        <ele>23.63</ele>
        <time>2020-07-10T10:57:57Z</time>
      </trkpt>
      <trkpt lat="47.78531" lon="-3.39486">
        <ele>23.1</ele>
        <time>2020-07-10T10:57:58Z</time>
      </trkpt>
      <trkpt lat="47.78528" lon="-3.39481">
        <ele>22.4</ele>
        <time>2020-07-10T10:57:59Z</time>
      </trkpt>
      <trkpt lat="47.78524" lon="-3.39476">
        <ele>22.12</ele>
        <time>2020-07-10T10:58:00Z</time>
      </trkpt>
      <trkpt lat="47.7852" lon="-3.39471">
        <ele>22.09</ele>
        <time>2020-07-10T10:58:01Z</time>
      </trkpt>
      <trkpt lat="47.78517" lon="-3.39465">
        <ele>22.26</ele>
        <time>2020-07-10T10:58:02Z</time>
      </trkpt>
      <trkpt lat="47.78514" lon="-3.39458">
        <ele>22.43</ele>
        <time>2020-07-10T10:58:03Z</time>
      </trkpt>
      <trkpt lat="47.78511" lon="-3.39452">
        <ele>22.51</ele>
        <time>2020-07-10T10:58:04Z</time>
      </trkpt>
      <trkpt lat="47.78507" lon="-3.39446">
        <ele>22.52</ele>
        <time>2020-07-10T10:58:05Z</time>
      </trkpt>
      <trkpt lat="47.78504" lon="-3.39439">
        <ele>22.56</ele>
        <time>2020-07-10T10:58:06Z</time>
      </trkpt>
      <trkpt lat="47.785" lon="-3.39432">
        <ele>22.48</ele>
        <time>2020-07-10T10:58:07Z</time>
      </trkpt>
      <trkpt lat="47.78497" lon="-3.39425">
        <ele>22.68</ele>
        <time>2020-07-10T10:58:08Z</time>
      </trkpt>
      <trkpt lat="47.78493" lon="-3.39419">
        <ele>22.87</ele>
        <time>2020-07-10T10:58:09Z</time>
      </trkpt>
      <trkpt lat="47.7849" lon="-3.39413">
        <ele>23.01</ele>
        <time>2020-07-10T10:58:10Z</time>
      </trkpt>
      <trkpt lat="47.78487" lon="-3.39406">
        <ele>23.04</ele>
        <time>2020-07-10T10:58:11Z</time>
      </trkpt>
      <trkpt lat="47.78483" lon="-3.394">
        <ele>22.84</ele>
        <time>2020-07-10T10:58:12Z</time>
      </trkpt>
      <trkpt lat="47.78479" lon="-3.39394">
        <ele>22.39</ele>
        <time>2020-07-10T10:58:13Z</time>
      </trkpt>
      <trkpt lat="47.78476" lon="-3.39387">
        <ele>21.86</ele>
        <time>2020-07-10T10:58:14Z</time>
      </trkpt>
      <trkpt lat="47.78473" lon="-3.39379">
        <ele>21.41</ele>
        <time>2020-07-10T10:58:15Z</time>
      </trkpt>
      <trkpt lat="47.78472" lon="-3.3937">
        <ele>21.14</ele>
        <time>2020-07-10T10:58:16Z</time>
      </trkpt>
      <trkpt lat="47.78471" lon="-3.39362">
        <ele>21.18</ele>
        <time>2020-07-10T10:58:17Z</time>
      </trkpt>
      <trkpt lat="47.78469" lon="-3.39355">
        <ele>21.21</ele>
        <time>2020-07-10T10:58:18Z</time>
      </trkpt>
      <trkpt lat="47.78468" lon="-3.39348">
        <ele>21.18</ele>
        <time>2020-07-10T10:58:19Z</time>
      </trkpt>
      <trkpt lat="47.78466" lon="-3.3934">
        <ele>21.04</ele>
        <time>2020-07-10T10:58:20Z</time>
      </trkpt>
      <trkpt lat="47.78463" lon="-3.39332">
        <ele>20.83</ele>
        <time>2020-07-10T10:58:21Z</time>
      </trkpt>
      <trkpt lat="47.78461" lon="-3.39324">
        <ele>20.88</ele>
        <time>2020-07-10T10:58:22Z</time>
      </trkpt>
      <trkpt lat="47.78459" lon="-3.39316">
        <ele>20.87</ele>
        <time>2020-07-10T10:58:23Z</time>
      </trkpt>
      <trkpt lat="47.78457" lon="-3.39308">
        <ele>20.69</ele>
        <time>2020-07-10T10:58:24Z</time>
      </trkpt>
      <trkpt lat="47.78454" lon="-3.39301">
        <ele>20.69</ele>
        <time>2020-07-10T10:58:25Z</time>
      </trkpt>
      <trkpt lat="47.78452" lon="-3.39294">
        <ele>20.9</ele>
        <time>2020-07-10T10:58:26Z</time>
      </trkpt>
      <trkpt lat="47.78448" lon="-3.39288">
        <ele>20.8</ele>
        <time>2020-07-10T10:58:27Z</time>
      </trkpt>
      <trkpt lat="47.78444" lon="-3.39284">
        <ele>20.41</ele>
        <time>2020-07-10T10:58:28Z</time>
      </trkpt>
      <trkpt lat="47.78439" lon="-3.39279">
        <ele>20.16</ele>
        <time>2020-07-10T10:58:29Z</time>
      </trkpt>
      <trkpt lat="47.78434" lon="-3.39275">
        <ele>20.14</ele>
        <time>2020-07-10T10:58:30Z</time>
      </trkpt>
      <trkpt lat="47.78431" lon="-3.39271">
        <ele>20.39</ele>
        <time>2020-07-10T10:58:31Z</time>
      </trkpt>
      <trkpt lat="47.78426" lon="-3.39267">
        <ele>20.45</ele>
        <time>2020-07-10T10:58:32Z</time>
      </trkpt>
      <trkpt lat="47.78423" lon="-3.39262">
        <ele>20.87</ele>
        <time>2020-07-10T10:58:33Z</time>
      </trkpt>
      <trkpt lat="47.78418" lon="-3.39256">
        <ele>21.06</ele>
        <time>2020-07-10T10:58:34Z</time>
      </trkpt>
      <trkpt lat="47.78413" lon="-3.39251">
        <ele>21.07</ele>
        <time>2020-07-10T10:58:35Z</time>
      </trkpt>
      <trkpt lat="47.78408" lon="-3.39247">
        <ele>20.87</ele>
        <time>2020-07-10T10:58:36Z</time>
      </trkpt>
      <trkpt lat="47.78403" lon="-3.39241">
        <ele>20.42</ele>
        <time>2020-07-10T10:58:37Z</time>
      </trkpt>
      <trkpt lat="47.78399" lon="-3.39236">
        <ele>19.77</ele>
        <time>2020-07-10T10:58:38Z</time>
      </trkpt>
      <trkpt lat="47.78395" lon="-3.39231">
        <ele>18.96</ele>
        <time>2020-07-10T10:58:39Z</time>
      </trkpt>
      <trkpt lat="47.78389" lon="-3.39221">
        <ele>17.69</ele>
        <time>2020-07-10T10:58:40Z</time>
      </trkpt>
      <trkpt lat="47.78385" lon="-3.39214">
        <ele>17.77</ele>
        <time>2020-07-10T10:58:41Z</time>
      </trkpt>
      <trkpt lat="47.78383" lon="-3.39206">
        <ele>18.07</ele>
        <time>2020-07-10T10:58:42Z</time>
      </trkpt>
      <trkpt lat="47.7838" lon="-3.39198">
        <ele>18.22</ele>
        <time>2020-07-10T10:58:43Z</time>
      </trkpt>
      <trkpt lat="47.78377" lon="-3.3919">
        <ele>18.27</ele>
        <time>2020-07-10T10:58:44Z</time>
      </trkpt>
      <trkpt lat="47.78375" lon="-3.39182">
        <ele>18.24</ele>
        <time>2020-07-10T10:58:45Z</time>
      </trkpt>
      <trkpt lat="47.78373" lon="-3.39173">
        <ele>18.05</ele>
        <time>2020-07-10T10:58:46Z</time>
      </trkpt>
      <trkpt lat="47.7837" lon="-3.39165">
        <ele>17.58</ele>
        <time>2020-07-10T10:58:47Z</time>
      </trkpt>
      <trkpt lat="47.78368" lon="-3.39156">
        <ele>17.12</ele>
        <time>2020-07-10T10:58:48Z</time>
      </trkpt>
      <trkpt lat="47.78366" lon="-3.39147">
        <ele>16.59</ele>
        <time>2020-07-10T10:58:49Z</time>
      </trkpt>
      <trkpt lat="47.78363" lon="-3.39139">
        <ele>15.86</ele>
        <time>2020-07-10T10:58:50Z</time>
      </trkpt>
      <trkpt lat="47.7836" lon="-3.39131">
        <ele>15.23</ele>
        <time>2020-07-10T10:58:51Z</time>
      </trkpt>
      <trkpt lat="47.78357" lon="-3.39124">
        <ele>14.93</ele>
        <time>2020-07-10T10:58:52Z</time>
      </trkpt>
      <trkpt lat="47.78355" lon="-3.39116">
        <ele>14.72</ele>
        <time>2020-07-10T10:58:53Z</time>
      </trkpt>
      <trkpt lat="47.78353" lon="-3.39109">
        <ele>14.51</ele>
        <time>2020-07-10T10:58:54Z</time>
      </trkpt>
      <trkpt lat="47.7835" lon="-3.39102">
        <ele>14.34</ele>
        <time>2020-07-10T10:58:55Z</time>
      </trkpt>
      <trkpt lat="47.78348" lon="-3.39095">
        <ele>14.15</ele>
        <time>2020-07-10T10:58:56Z</time>
      </trkpt>
      <trkpt lat="47.78346" lon="-3.39088">
        <ele>13.92</ele>
        <time>2020-07-10T10:58:57Z</time>
      </trkpt>
      <trkpt lat="47.78344" lon="-3.3908">
        <ele>13.7</ele>
        <time>2020-07-10T10:58:58Z</time>
      </trkpt>
      <trkpt lat="47.7834" lon="-3.39071">
        <ele>13.28</ele>
        <time>2020-07-10T10:58:59Z</time>
      </trkpt>
      <trkpt lat="47.78338" lon="-3.39064">
        <ele>12.9</ele>
        <time>2020-07-10T10:59:00Z</time>
      </trkpt>
      <trkpt lat="47.78336" lon="-3.39057">
        <ele>12.54</ele>
        <time>2020-07-10T10:59:01Z</time>
      </trkpt>
      <trkpt lat="47.78334" lon="-3.39051">
        <ele>12.41</ele>
        <time>2020-07-10T10:59:02Z</time>
      </trkpt>
      <trkpt lat="47.78332" lon="-3.39046">
        <ele>12.6</ele>
        <time>2020-07-10T10:59:03Z</time>
      </trkpt>
      <trkpt lat="47.78331" lon="-3.3904">
        <ele>12.94</ele>
        <time>2020-07-10T10:59:04Z</time>
      </trkpt>
      <trkpt lat="47.78332" lon="-3.39033">
        <ele>13.4</ele>
        <time>2020-07-10T10:59:05Z</time>
      </trkpt>
      <trkpt lat="47.78331" lon="-3.39028">
        <ele>13.81</ele>
        <time>2020-07-10T10:59:06Z</time>
      </trkpt>
      <trkpt lat="47.78331" lon="-3.39023">
        <ele>14.4</ele>
        <time>2020-07-10T10:59:07Z</time>
      </trkpt>
      <trkpt lat="47.78331" lon="-3.39019">
        <ele>15.04</ele>
        <time>2020-07-10T10:59:08Z</time>
      </trkpt>
      <trkpt lat="47.78332" lon="-3.39015">
        <ele>15.6</ele>
        <time>2020-07-10T10:59:09Z</time>
      </trkpt>
      <trkpt lat="47.78332" lon="-3.39013">
        <ele>15.95</ele>
        <time>2020-07-10T10:59:10Z</time>
      </trkpt>
      <trkpt lat="47.78331" lon="-3.39013">
        <ele>16.13</ele>
        <time>2020-07-10T10:59:11Z</time>
      </trkpt>
      <trkpt lat="47.78333" lon="-3.39011">
        <ele>16.31</ele>
        <time>2020-07-10T10:59:12Z</time>
      </trkpt>
      <trkpt lat="47.78334" lon="-3.39009">
        <ele>16.59</ele>
        <time>2020-07-10T10:59:13Z</time>
      </trkpt>
      <trkpt lat="47.78335" lon="-3.39006">
        <ele>17.04</ele>
        <time>2020-07-10T10:59:14Z</time>
      </trkpt>
      <trkpt lat="47.78336" lon="-3.39003">
        <ele>17.51</ele>
        <time>2020-07-10T10:59:15Z</time>
      </trkpt>
      <trkpt lat="47.7834" lon="-3.38997">
        <ele>18.19</ele>
        <time>2020-07-10T10:59:16Z</time>
      </trkpt>
      <trkpt lat="47.7834" lon="-3.38993">
        <ele>18.72</ele>
        <time>2020-07-10T10:59:17Z</time>
      </trkpt>
      <trkpt lat="47.78342" lon="-3.38989">
        <ele>19.18</ele>
        <time>2020-07-10T10:59:18Z</time>
      </trkpt>
      <trkpt lat="47.78343" lon="-3.38986">
        <ele>19.55</ele>
        <time>2020-07-10T10:59:19Z</time>
      </trkpt>
      <trkpt lat="47.78345" lon="-3.38981">
        <ele>19.96</ele>
        <time>2020-07-10T10:59:20Z</time>
      </trkpt>
      <trkpt lat="47.78347" lon="-3.38979">
        <ele>20.24</ele>
        <time>2020-07-10T10:59:21Z</time>
      </trkpt>
      <trkpt lat="47.78349" lon="-3.38977">
        <ele>20.49</ele>
        <time>2020-07-10T10:59:22Z</time>
      </trkpt>
      <trkpt lat="47.7835" lon="-3.38974">
        <ele>20.73</ele>
        <time>2020-07-10T10:59:23Z</time>
      </trkpt>
      <trkpt lat="47.78352" lon="-3.38972">
        <ele>20.91</ele>
        <time>2020-07-10T10:59:24Z</time>
      </trkpt>
      <trkpt lat="47.78354" lon="-3.3897">
        <ele>21.08</ele>
        <time>2020-07-10T10:59:25Z</time>
      </trkpt>
      <trkpt lat="47.78356" lon="-3.38968">
        <ele>21.24</ele>
        <time>2020-07-10T10:59:26Z</time>
      </trkpt>
      <trkpt lat="47.78358" lon="-3.38966">
        <ele>21.39</ele>
        <time>2020-07-10T10:59:27Z</time>
      </trkpt>
      <trkpt lat="47.7836" lon="-3.38964">
        <ele>21.54</ele>
        <time>2020-07-10T10:59:28Z</time>
      </trkpt>
      <trkpt lat="47.78362" lon="-3.38962">
        <ele>21.73</ele>
        <time>2020-07-10T10:59:29Z</time>
      </trkpt>
      <trkpt lat="47.78364" lon="-3.3896">
        <ele>22.08</ele>
        <time>2020-07-10T10:59:30Z</time>
      </trkpt>
      <trkpt lat="47.78367" lon="-3.38958">
        <ele>22.44</ele>
        <time>2020-07-10T10:59:31Z</time>
      </trkpt>
      <trkpt lat="47.78369" lon="-3.38957">
        <ele>22.76</ele>
        <time>2020-07-10T10:59:32Z</time>
      </trkpt>
      <trkpt lat="47.7837" lon="-3.38955">
        <ele>23.02</ele>
        <time>2020-07-10T10:59:33Z</time>
      </trkpt>
      <trkpt lat="47.78372" lon="-3.38954">
        <ele>23.3</ele>
        <time>2020-07-10T10:59:34Z</time>
      </trkpt>
      <trkpt lat="47.78374" lon="-3.38953">
        <ele>23.55</ele>
        <time>2020-07-10T10:59:35Z</time>
      </trkpt>
      <trkpt lat="47.78377" lon="-3.38952">
        <ele>23.78</ele>
        <time>2020-07-10T10:59:36Z</time>
      </trkpt>
      <trkpt lat="47.78379" lon="-3.38953">
        <ele>23.96</ele>
        <time>2020-07-10T10:59:37Z</time>
      </trkpt>
      <trkpt lat="47.78382" lon="-3.38954">
        <ele>24.21</ele>
        <time>2020-07-10T10:59:38Z</time>
      </trkpt>
      <trkpt lat="47.78384" lon="-3.38954">
        <ele>24.41</ele>
        <time>2020-07-10T10:59:39Z</time>
      </trkpt>
      <trkpt lat="47.78386" lon="-3.38955">
        <ele>24.62</ele>
        <time>2020-07-10T10:59:40Z</time>
      </trkpt>
      <trkpt lat="47.78389" lon="-3.38956">
        <ele>24.91</ele>
        <time>2020-07-10T10:59:41Z</time>
      </trkpt>
      <trkpt lat="47.78393" lon="-3.38957">
        <ele>25.3</ele>
        <time>2020-07-10T10:59:42Z</time>
      </trkpt>
      <trkpt lat="47.78396" lon="-3.38958">
        <ele>25.64</ele>
        <time>2020-07-10T10:59:43Z</time>
      </trkpt>
      <trkpt lat="47.78399" lon="-3.38958">
        <ele>25.94</ele>
        <time>2020-07-10T10:59:44Z</time>
      </trkpt>
      <trkpt lat="47.78401" lon="-3.38958">
        <ele>26.19</ele>
        <time>2020-07-10T10:59:45Z</time>
      </trkpt>
      <trkpt lat="47.78403" lon="-3.38957">
        <ele>26.44</ele>
        <time>2020-07-10T10:59:46Z</time>
      </trkpt>
      <trkpt lat="47.78406" lon="-3.38957">
        <ele>26.75</ele>
        <time>2020-07-10T10:59:47Z</time>
      </trkpt>
      <trkpt lat="47.78409" lon="-3.38956">
        <ele>27.03</ele>
        <time>2020-07-10T10:59:48Z</time>
      </trkpt>
      <trkpt lat="47.78411" lon="-3.38957">
        <ele>27.31</ele>
        <time>2020-07-10T10:59:49Z</time>
      </trkpt>
      <trkpt lat="47.78413" lon="-3.38957">
        <ele>27.55</ele>
        <time>2020-07-10T10:59:50Z</time>
      </trkpt>
      <trkpt lat="47.78416" lon="-3.38957">
        <ele>27.82</ele>
        <time>2020-07-10T10:59:51Z</time>
      </trkpt>
      <trkpt lat="47.7842" lon="-3.38954">
        <ele>28.1</ele>
        <time>2020-07-10T10:59:52Z</time>
      </trkpt>
      <trkpt lat="47.78421" lon="-3.38953">
        <ele>28.27</ele>
        <time>2020-07-10T10:59:53Z</time>
      </trkpt>
      <trkpt lat="47.78423" lon="-3.38949">
        <ele>28.42</ele>
        <time>2020-07-10T10:59:54Z</time>
      </trkpt>
      <trkpt lat="47.78424" lon="-3.38946">
        <ele>28.49</ele>
        <time>2020-07-10T10:59:55Z</time>
      </trkpt>
      <trkpt lat="47.78425" lon="-3.38943">
        <ele>28.59</ele>
        <time>2020-07-10T10:59:56Z</time>
      </trkpt>
      <trkpt lat="47.78425" lon="-3.38939">
        <ele>28.62</ele>
        <time>2020-07-10T10:59:57Z</time>
      </trkpt>
      <trkpt lat="47.78425" lon="-3.38937">
        <ele>28.62</ele>
        <time>2020-07-10T10:59:58Z</time>
      </trkpt>
      <trkpt lat="47.78425" lon="-3.38935">
        <ele>28.62</ele>
        <time>2020-07-10T10:59:59Z</time>
      </trkpt>
      <trkpt lat="47.78426" lon="-3.38933">
        <ele>28.65</ele>
        <time>2020-07-10T11:00:00Z</time>
      </trkpt>
      <trkpt lat="47.78426" lon="-3.38932">
        <ele>28.68</ele>
        <time>2020-07-10T11:00:01Z</time>
      </trkpt>
      <trkpt lat="47.78426" lon="-3.38931">
        <ele>28.7</ele>
        <time>2020-07-10T11:00:02Z</time>
      </trkpt>
      <trkpt lat="47.78426" lon="-3.38928">
        <ele>28.7</ele>
        <time>2020-07-10T11:00:03Z</time>
      </trkpt>
      <trkpt lat="47.78426" lon="-3.38925">
        <ele>28.7</ele>
        <time>2020-07-10T11:00:04Z</time>
      </trkpt>
      <trkpt lat="47.78426" lon="-3.38922">
        <ele>28.69</ele>
        <time>2020-07-10T11:00:05Z</time>
      </trkpt>
      <trkpt lat="47.78425" lon="-3.38919">
        <ele>28.65</ele>
        <time>2020-07-10T11:00:06Z</time>
      </trkpt>
      <trkpt lat="47.78425" lon="-3.38915">
        <ele>28.63</ele>
        <time>2020-07-10T11:00:07Z</time>
      </trkpt>
      <trkpt lat="47.78425" lon="-3.38912">
        <ele>28.64</ele>
        <time>2020-07-10T11:00:08Z</time>
      </trkpt>
      <trkpt lat="47.78425" lon="-3.3891">
        <ele>28.68</ele>
        <time>2020-07-10T11:00:09Z</time>
      </trkpt>
      <trkpt lat="47.78425" lon="-3.38906">
        <ele>28.67</ele>
        <time>2020-07-10T11:00:10Z</time>
      </trkpt>
      <trkpt lat="47.78424" lon="-3.38903">
        <ele>28.67</ele>
        <time>2020-07-10T11:00:11Z</time>
      </trkpt>
      <trkpt lat="47.78425" lon="-3.389">
        <ele>28.78</ele>
        <time>2020-07-10T11:00:12Z</time>
      </trkpt>
      <trkpt lat="47.78426" lon="-3.38897">
        <ele>28.84</ele>
        <time>2020-07-10T11:00:13Z</time>
      </trkpt>
      <trkpt lat="47.78428" lon="-3.38892">
        <ele>29.05</ele>
        <time>2020-07-10T11:00:14Z</time>
      </trkpt>
      <trkpt lat="47.78427" lon="-3.38887">
        <ele>29.15</ele>
        <time>2020-07-10T11:00:15Z</time>
      </trkpt>
      <trkpt lat="47.78428" lon="-3.38881">
        <ele>29.32</ele>
        <time>2020-07-10T11:00:16Z</time>
      </trkpt>
      <trkpt lat="47.78428" lon="-3.38876">
        <ele>29.45</ele>
        <time>2020-07-10T11:00:17Z</time>
      </trkpt>
      <trkpt lat="47.78427" lon="-3.38873">
        <ele>29.47</ele>
        <time>2020-07-10T11:00:18Z</time>
      </trkpt>
      <trkpt lat="47.78427" lon="-3.38868">
        <ele>29.54</ele>
        <time>2020-07-10T11:00:19Z</time>
      </trkpt>
      <trkpt lat="47.78426" lon="-3.38862">
        <ele>29.62</ele>
        <time>2020-07-10T11:00:20Z</time>
      </trkpt>
      <trkpt lat="47.78426" lon="-3.38857">
        <ele>29.74</ele>
        <time>2020-07-10T11:00:21Z</time>
      </trkpt>
      <trkpt lat="47.78426" lon="-3.38851">
        <ele>29.85</ele>
        <time>2020-07-10T11:00:22Z</time>
      </trkpt>
      <trkpt lat="47.78425" lon="-3.38845">
        <ele>29.98</ele>
        <time>2020-07-10T11:00:23Z</time>
      </trkpt>
      <trkpt lat="47.78425" lon="-3.38841">
        <ele>30.07</ele>
        <time>2020-07-10T11:00:24Z</time>
      </trkpt>
      <trkpt lat="47.78425" lon="-3.38835">
        <ele>30.2</ele>
        <time>2020-07-10T11:00:25Z</time>
      </trkpt>
      <trkpt lat="47.78425" lon="-3.3883">
        <ele>30.26</ele>
        <time>2020-07-10T11:00:26Z</time>
      </trkpt>
      <trkpt lat="47.78423" lon="-3.38826">
        <ele>30.24</ele>
        <time>2020-07-10T11:00:27Z</time>
      </trkpt>
      <trkpt lat="47.78422" lon="-3.3882">
        <ele>30.21</ele>
        <time>2020-07-10T11:00:28Z</time>
      </trkpt>
      <trkpt lat="47.78421" lon="-3.38815">
        <ele>30.16</ele>
        <time>2020-07-10T11:00:29Z</time>
      </trkpt>
      <trkpt lat="47.78419" lon="-3.3881">
        <ele>30.11</ele>
        <time>2020-07-10T11:00:30Z</time>
      </trkpt>
      <trkpt lat="47.78418" lon="-3.38805">
        <ele>30.07</ele>
        <time>2020-07-10T11:00:31Z</time>
      </trkpt>
      <trkpt lat="47.78417" lon="-3.38798">
        <ele>30.03</ele>
        <time>2020-07-10T11:00:32Z</time>
      </trkpt>
      <trkpt lat="47.78418" lon="-3.38792">
        <ele>30.02</ele>
        <time>2020-07-10T11:00:33Z</time>
      </trkpt>
      <trkpt lat="47.78418" lon="-3.38787">
        <ele>30.02</ele>
        <time>2020-07-10T11:00:34Z</time>
      </trkpt>
      <trkpt lat="47.78418" lon="-3.38782">
        <ele>30.01</ele>
        <time>2020-07-10T11:00:35Z</time>
      </trkpt>
      <trkpt lat="47.78418" lon="-3.38777">
        <ele>29.97</ele>
        <time>2020-07-10T11:00:36Z</time>
      </trkpt>
      <trkpt lat="47.78419" lon="-3.38772">
        <ele>29.84</ele>
        <time>2020-07-10T11:00:37Z</time>
      </trkpt>
      <trkpt lat="47.78419" lon="-3.38767">
        <ele>29.68</ele>
        <time>2020-07-10T11:00:38Z</time>
      </trkpt>
      <trkpt lat="47.78418" lon="-3.38761">
        <ele>29.47</ele>
        <time>2020-07-10T11:00:39Z</time>
      </trkpt>
      <trkpt lat="47.78418" lon="-3.38754">
        <ele>29.23</ele>
        <time>2020-07-10T11:00:40Z</time>
      </trkpt>
      <trkpt lat="47.78417" lon="-3.38748">
        <ele>28.96</ele>
        <time>2020-07-10T11:00:41Z</time>
      </trkpt>
      <trkpt lat="47.78416" lon="-3.38741">
        <ele>28.52</ele>
        <time>2020-07-10T11:00:42Z</time>
      </trkpt>
      <trkpt lat="47.78416" lon="-3.38734">
        <ele>28</ele>
        <time>2020-07-10T11:00:43Z</time>
      </trkpt>
      <trkpt lat="47.78416" lon="-3.38724">
        <ele>27.39</ele>
        <time>2020-07-10T11:00:44Z</time>
      </trkpt>
      <trkpt lat="47.78416" lon="-3.38715">
        <ele>26.69</ele>
        <time>2020-07-10T11:00:45Z</time>
      </trkpt>
      <trkpt lat="47.78415" lon="-3.38704">
        <ele>25.88</ele>
        <time>2020-07-10T11:00:46Z</time>
      </trkpt>
      <trkpt lat="47.78415" lon="-3.38695">
        <ele>25.13</ele>
        <time>2020-07-10T11:00:47Z</time>
      </trkpt>
      <trkpt lat="47.78413" lon="-3.38686">
        <ele>23.93</ele>
        <time>2020-07-10T11:00:48Z</time>
      </trkpt>
      <trkpt lat="47.78414" lon="-3.38677">
        <ele>22.66</ele>
        <time>2020-07-10T11:00:49Z</time>
      </trkpt>
      <trkpt lat="47.78414" lon="-3.38671">
        <ele>21.69</ele>
        <time>2020-07-10T11:00:50Z</time>
      </trkpt>
      <trkpt lat="47.78415" lon="-3.38665">
        <ele>20.89</ele>
        <time>2020-07-10T11:00:51Z</time>
      </trkpt>
      <trkpt lat="47.78417" lon="-3.38663">
        <ele>20.52</ele>
        <time>2020-07-10T11:00:52Z</time>
      </trkpt>
      <trkpt lat="47.7842" lon="-3.38662">
        <ele>20.5</ele>
        <time>2020-07-10T11:00:53Z</time>
      </trkpt>
      <trkpt lat="47.78424" lon="-3.38663">
        <ele>20.83</ele>
        <time>2020-07-10T11:00:54Z</time>
      </trkpt>
      <trkpt lat="47.78428" lon="-3.38663">
        <ele>21.07</ele>
        <time>2020-07-10T11:00:55Z</time>
      </trkpt>
      <trkpt lat="47.78431" lon="-3.38663">
        <ele>21.4</ele>
        <time>2020-07-10T11:00:56Z</time>
      </trkpt>
      <trkpt lat="47.78435" lon="-3.38663">
        <ele>21.73</ele>
        <time>2020-07-10T11:00:57Z</time>
      </trkpt>
      <trkpt lat="47.78438" lon="-3.38664">
        <ele>22.02</ele>
        <time>2020-07-10T11:00:58Z</time>
      </trkpt>
      <trkpt lat="47.7844" lon="-3.38665">
        <ele>22.31</ele>
        <time>2020-07-10T11:00:59Z</time>
      </trkpt>
      <trkpt lat="47.78444" lon="-3.38664">
        <ele>22.55</ele>
        <time>2020-07-10T11:01:00Z</time>
      </trkpt>
      <trkpt lat="47.78448" lon="-3.38664">
        <ele>22.83</ele>
        <time>2020-07-10T11:01:01Z</time>
      </trkpt>
      <trkpt lat="47.78452" lon="-3.38662">
        <ele>22.99</ele>
        <time>2020-07-10T11:01:02Z</time>
      </trkpt>
      <trkpt lat="47.78455" lon="-3.3866">
        <ele>23.04</ele>
        <time>2020-07-10T11:01:03Z</time>
      </trkpt>
      <trkpt lat="47.78459" lon="-3.38655">
        <ele>22.88</ele>
        <time>2020-07-10T11:01:04Z</time>
      </trkpt>
      <trkpt lat="47.78463" lon="-3.38651">
        <ele>22.69</ele>
        <time>2020-07-10T11:01:05Z</time>
      </trkpt>
      <trkpt lat="47.78466" lon="-3.38647">
        <ele>22.53</ele>
        <time>2020-07-10T11:01:06Z</time>
      </trkpt>
      <trkpt lat="47.78469" lon="-3.38645">
        <ele>22.42</ele>
        <time>2020-07-10T11:01:07Z</time>
      </trkpt>
      <trkpt lat="47.78473" lon="-3.38642">
        <ele>22.36</ele>
        <time>2020-07-10T11:01:08Z</time>
      </trkpt>
      <trkpt lat="47.78477" lon="-3.38641">
        <ele>22.39</ele>
        <time>2020-07-10T11:01:09Z</time>
      </trkpt>
      <trkpt lat="47.78481" lon="-3.38642">
        <ele>22.53</ele>
        <time>2020-07-10T11:01:10Z</time>
      </trkpt>
      <trkpt lat="47.78484" lon="-3.38643">
        <ele>22.76</ele>
        <time>2020-07-10T11:01:11Z</time>
      </trkpt>
      <trkpt lat="47.78487" lon="-3.38645">
        <ele>23.01</ele>
        <time>2020-07-10T11:01:12Z</time>
      </trkpt>
      <trkpt lat="47.78489" lon="-3.38646">
        <ele>23.28</ele>
        <time>2020-07-10T11:01:13Z</time>
      </trkpt>
      <trkpt lat="47.78492" lon="-3.38648">
        <ele>23.57</ele>
        <time>2020-07-10T11:01:14Z</time>
      </trkpt>
      <trkpt lat="47.78494" lon="-3.38649">
        <ele>23.8</ele>
        <time>2020-07-10T11:01:15Z</time>
      </trkpt>
      <trkpt lat="47.78498" lon="-3.38649">
        <ele>23.98</ele>
        <time>2020-07-10T11:01:16Z</time>
      </trkpt>
      <trkpt lat="47.78501" lon="-3.3865">
        <ele>24.18</ele>
        <time>2020-07-10T11:01:17Z</time>
      </trkpt>
      <trkpt lat="47.78504" lon="-3.38652">
        <ele>24.39</ele>
        <time>2020-07-10T11:01:18Z</time>
      </trkpt>
      <trkpt lat="47.78506" lon="-3.38653">
        <ele>24.59</ele>
        <time>2020-07-10T11:01:19Z</time>
      </trkpt>
      <trkpt lat="47.78509" lon="-3.38655">
        <ele>24.83</ele>
        <time>2020-07-10T11:01:20Z</time>
      </trkpt>
      <trkpt lat="47.78512" lon="-3.38657">
        <ele>25.1</ele>
        <time>2020-07-10T11:01:21Z</time>
      </trkpt>
      <trkpt lat="47.78515" lon="-3.38659">
        <ele>25.38</ele>
        <time>2020-07-10T11:01:22Z</time>
      </trkpt>
      <trkpt lat="47.78518" lon="-3.38661">
        <ele>25.76</ele>
        <time>2020-07-10T11:01:23Z</time>
      </trkpt>
      <trkpt lat="47.78521" lon="-3.38664">
        <ele>26.24</ele>
        <time>2020-07-10T11:01:24Z</time>
      </trkpt>
      <trkpt lat="47.78524" lon="-3.38667">
        <ele>26.69</ele>
        <time>2020-07-10T11:01:25Z</time>
      </trkpt>
      <trkpt lat="47.78527" lon="-3.38669">
        <ele>27.02</ele>
        <time>2020-07-10T11:01:26Z</time>
      </trkpt>
      <trkpt lat="47.7853" lon="-3.38672">
        <ele>27.25</ele>
        <time>2020-07-10T11:01:27Z</time>
      </trkpt>
      <trkpt lat="47.78531" lon="-3.38675">
        <ele>27.42</ele>
        <time>2020-07-10T11:01:28Z</time>
      </trkpt>
      <trkpt lat="47.78533" lon="-3.38677">
        <ele>27.56</ele>
        <time>2020-07-10T11:01:29Z</time>
      </trkpt>
      <trkpt lat="47.78536" lon="-3.3868">
        <ele>27.74</ele>
        <time>2020-07-10T11:01:30Z</time>
      </trkpt>
      <trkpt lat="47.78538" lon="-3.38682">
        <ele>27.91</ele>
        <time>2020-07-10T11:01:31Z</time>
      </trkpt>
      <trkpt lat="47.7854" lon="-3.38685">
        <ele>28.08</ele>
        <time>2020-07-10T11:01:32Z</time>
      </trkpt>
      <trkpt lat="47.78543" lon="-3.38686">
        <ele>28.22</ele>
        <time>2020-07-10T11:01:33Z</time>
      </trkpt>
      <trkpt lat="47.78544" lon="-3.38689">
        <ele>28.43</ele>
        <time>2020-07-10T11:01:34Z</time>
      </trkpt>
      <trkpt lat="47.78547" lon="-3.38692">
        <ele>28.63</ele>
        <time>2020-07-10T11:01:35Z</time>
      </trkpt>
      <trkpt lat="47.7855" lon="-3.38693">
        <ele>28.81</ele>
        <time>2020-07-10T11:01:36Z</time>
      </trkpt>
      <trkpt lat="47.78552" lon="-3.38696">
        <ele>29.05</ele>
        <time>2020-07-10T11:01:37Z</time>
      </trkpt>
      <trkpt lat="47.78556" lon="-3.38701">
        <ele>29.33</ele>
        <time>2020-07-10T11:01:38Z</time>
      </trkpt>
      <trkpt lat="47.78558" lon="-3.38704">
        <ele>29.59</ele>
        <time>2020-07-10T11:01:39Z</time>
      </trkpt>
      <trkpt lat="47.78562" lon="-3.38707">
        <ele>29.83</ele>
        <time>2020-07-10T11:01:40Z</time>
      </trkpt>
      <trkpt lat="47.78566" lon="-3.3871">
        <ele>30.05</ele>
        <time>2020-07-10T11:01:41Z</time>
      </trkpt>
      <trkpt lat="47.78569" lon="-3.38712">
        <ele>30.22</ele>
        <time>2020-07-10T11:01:42Z</time>
      </trkpt>
      <trkpt lat="47.78571" lon="-3.38715">
        <ele>30.43</ele>
        <time>2020-07-10T11:01:43Z</time>
      </trkpt>
      <trkpt lat="47.78574" lon="-3.38718">
        <ele>30.63</ele>
        <time>2020-07-10T11:01:44Z</time>
      </trkpt>
      <trkpt lat="47.78577" lon="-3.38722">
        <ele>30.88</ele>
        <time>2020-07-10T11:01:45Z</time>
      </trkpt>
      <trkpt lat="47.7858" lon="-3.38725">
        <ele>31.1</ele>
        <time>2020-07-10T11:01:46Z</time>
      </trkpt>
      <trkpt lat="47.78584" lon="-3.38728">
        <ele>31.3</ele>
        <time>2020-07-10T11:01:47Z</time>
      </trkpt>
      <trkpt lat="47.78588" lon="-3.3873">
        <ele>31.35</ele>
        <time>2020-07-10T11:01:48Z</time>
      </trkpt>
      <trkpt lat="47.78591" lon="-3.38733">
        <ele>31.36</ele>
        <time>2020-07-10T11:01:49Z</time>
      </trkpt>
      <trkpt lat="47.78596" lon="-3.38735">
        <ele>31.31</ele>
        <time>2020-07-10T11:01:50Z</time>
      </trkpt>
      <trkpt lat="47.786" lon="-3.38738">
        <ele>31.23</ele>
        <time>2020-07-10T11:01:51Z</time>
      </trkpt>
      <trkpt lat="47.78603" lon="-3.3874">
        <ele>31.18</ele>
        <time>2020-07-10T11:01:52Z</time>
      </trkpt>
      <trkpt lat="47.78606" lon="-3.38743">
        <ele>31.12</ele>
        <time>2020-07-10T11:01:53Z</time>
      </trkpt>
      <trkpt lat="47.78608" lon="-3.38746">
        <ele>31.08</ele>
        <time>2020-07-10T11:01:54Z</time>
      </trkpt>
      <trkpt lat="47.7861" lon="-3.38748">
        <ele>31.04</ele>
        <time>2020-07-10T11:01:55Z</time>
      </trkpt>
      <trkpt lat="47.78612" lon="-3.38751">
        <ele>31.01</ele>
        <time>2020-07-10T11:01:56Z</time>
      </trkpt>
      <trkpt lat="47.78615" lon="-3.38753">
        <ele>31.05</ele>
        <time>2020-07-10T11:01:57Z</time>
      </trkpt>
      <trkpt lat="47.7862" lon="-3.38754">
        <ele>31.01</ele>
        <time>2020-07-10T11:01:58Z</time>
      </trkpt>
      <trkpt lat="47.78624" lon="-3.38756">
        <ele>30.99</ele>
        <time>2020-07-10T11:01:59Z</time>
      </trkpt>
      <trkpt lat="47.78628" lon="-3.38758">
        <ele>30.96</ele>
        <time>2020-07-10T11:02:00Z</time>
      </trkpt>
      <trkpt lat="47.78632" lon="-3.3876">
        <ele>30.95</ele>
        <time>2020-07-10T11:02:01Z</time>
      </trkpt>
      <trkpt lat="47.78636" lon="-3.38763">
        <ele>30.97</ele>
        <time>2020-07-10T11:02:02Z</time>
      </trkpt>
      <trkpt lat="47.78641" lon="-3.38765">
        <ele>30.99</ele>
        <time>2020-07-10T11:02:03Z</time>
      </trkpt>
      <trkpt lat="47.78645" lon="-3.38767">
        <ele>31</ele>
        <time>2020-07-10T11:02:04Z</time>
      </trkpt>
      <trkpt lat="47.78649" lon="-3.3877">
        <ele>31.02</ele>
        <time>2020-07-10T11:02:05Z</time>
      </trkpt>
      <trkpt lat="47.78653" lon="-3.38772">
        <ele>31.06</ele>
        <time>2020-07-10T11:02:06Z</time>
      </trkpt>
      <trkpt lat="47.78657" lon="-3.38774">
        <ele>31.06</ele>
        <time>2020-07-10T11:02:07Z</time>
      </trkpt>
      <trkpt lat="47.78664" lon="-3.38778">
        <ele>31.1</ele>
        <time>2020-07-10T11:02:08Z</time>
      </trkpt>
      <trkpt lat="47.78669" lon="-3.38781">
        <ele>31.03</ele>
        <time>2020-07-10T11:02:09Z</time>
      </trkpt>
      <trkpt lat="47.78672" lon="-3.3878">
        <ele>30.87</ele>
        <time>2020-07-10T11:02:10Z</time>
      </trkpt>
      <trkpt lat="47.78674" lon="-3.3878">
        <ele>30.7</ele>
        <time>2020-07-10T11:02:11Z</time>
      </trkpt>
      <trkpt lat="47.78678" lon="-3.38779">
        <ele>30.36</ele>
        <time>2020-07-10T11:02:12Z</time>
      </trkpt>
      <trkpt lat="47.78681" lon="-3.38778">
        <ele>30.11</ele>
        <time>2020-07-10T11:02:13Z</time>
      </trkpt>
      <trkpt lat="47.78684" lon="-3.38778">
        <ele>29.9</ele>
        <time>2020-07-10T11:02:14Z</time>
      </trkpt>
      <trkpt lat="47.78687" lon="-3.38777">
        <ele>29.66</ele>
        <time>2020-07-10T11:02:15Z</time>
      </trkpt>
      <trkpt lat="47.78689" lon="-3.38775">
        <ele>29.31</ele>
        <time>2020-07-10T11:02:16Z</time>
      </trkpt>
      <trkpt lat="47.78691" lon="-3.3877">
        <ele>28.83</ele>
        <time>2020-07-10T11:02:17Z</time>
      </trkpt>
      <trkpt lat="47.78693" lon="-3.38762">
        <ele>28.24</ele>
        <time>2020-07-10T11:02:18Z</time>
      </trkpt>
      <trkpt lat="47.78694" lon="-3.38753">
        <ele>27.55</ele>
        <time>2020-07-10T11:02:19Z</time>
      </trkpt>
      <trkpt lat="47.78695" lon="-3.38743">
        <ele>26.62</ele>
        <time>2020-07-10T11:02:20Z</time>
      </trkpt>
      <trkpt lat="47.78698" lon="-3.38731">
        <ele>25.41</ele>
        <time>2020-07-10T11:02:21Z</time>
      </trkpt>
      <trkpt lat="47.787" lon="-3.38719">
        <ele>24.23</ele>
        <time>2020-07-10T11:02:22Z</time>
      </trkpt>
      <trkpt lat="47.78702" lon="-3.38708">
        <ele>23.09</ele>
        <time>2020-07-10T11:02:23Z</time>
      </trkpt>
      <trkpt lat="47.78703" lon="-3.38696">
        <ele>21.98</ele>
        <time>2020-07-10T11:02:24Z</time>
      </trkpt>
      <trkpt lat="47.78704" lon="-3.38686">
        <ele>20.91</ele>
        <time>2020-07-10T11:02:25Z</time>
      </trkpt>
      <trkpt lat="47.78706" lon="-3.38676">
        <ele>19.88</ele>
        <time>2020-07-10T11:02:26Z</time>
      </trkpt>
      <trkpt lat="47.78708" lon="-3.38668">
        <ele>19.04</ele>
        <time>2020-07-10T11:02:27Z</time>
      </trkpt>
      <trkpt lat="47.7871" lon="-3.38662">
        <ele>18.43</ele>
        <time>2020-07-10T11:02:28Z</time>
      </trkpt>
      <trkpt lat="47.78712" lon="-3.38656">
        <ele>17.96</ele>
        <time>2020-07-10T11:02:29Z</time>
      </trkpt>
      <trkpt lat="47.78713" lon="-3.3865">
        <ele>17.47</ele>
        <time>2020-07-10T11:02:30Z</time>
      </trkpt>
      <trkpt lat="47.78713" lon="-3.38643">
        <ele>16.92</ele>
        <time>2020-07-10T11:02:31Z</time>
      </trkpt>
      <trkpt lat="47.78712" lon="-3.38636">
        <ele>16.36</ele>
        <time>2020-07-10T11:02:32Z</time>
      </trkpt>
      <trkpt lat="47.78711" lon="-3.38629">
        <ele>15.99</ele>
        <time>2020-07-10T11:02:33Z</time>
      </trkpt>
      <trkpt lat="47.78711" lon="-3.38621">
        <ele>15.68</ele>
        <time>2020-07-10T11:02:34Z</time>
      </trkpt>
      <trkpt lat="47.78711" lon="-3.38614">
        <ele>15.43</ele>
        <time>2020-07-10T11:02:35Z</time>
      </trkpt>
      <trkpt lat="47.78711" lon="-3.38607">
        <ele>15.19</ele>
        <time>2020-07-10T11:02:36Z</time>
      </trkpt>
      <trkpt lat="47.78711" lon="-3.386">
        <ele>15</ele>
        <time>2020-07-10T11:02:37Z</time>
      </trkpt>
      <trkpt lat="47.7871" lon="-3.38591">
        <ele>14.79</ele>
        <time>2020-07-10T11:02:38Z</time>
      </trkpt>
      <trkpt lat="47.78708" lon="-3.38582">
        <ele>14.55</ele>
        <time>2020-07-10T11:02:39Z</time>
      </trkpt>
      <trkpt lat="47.78707" lon="-3.38571">
        <ele>14.2</ele>
        <time>2020-07-10T11:02:40Z</time>
      </trkpt>
      <trkpt lat="47.78705" lon="-3.38561">
        <ele>13.89</ele>
        <time>2020-07-10T11:02:41Z</time>
      </trkpt>
      <trkpt lat="47.78704" lon="-3.38549">
        <ele>13.56</ele>
        <time>2020-07-10T11:02:42Z</time>
      </trkpt>
      <trkpt lat="47.78703" lon="-3.38538">
        <ele>13.21</ele>
        <time>2020-07-10T11:02:43Z</time>
      </trkpt>
      <trkpt lat="47.78701" lon="-3.38527">
        <ele>12.84</ele>
        <time>2020-07-10T11:02:44Z</time>
      </trkpt>
      <trkpt lat="47.78701" lon="-3.38515">
        <ele>12.41</ele>
        <time>2020-07-10T11:02:45Z</time>
      </trkpt>
      <trkpt lat="47.78701" lon="-3.38505">
        <ele>11.96</ele>
        <time>2020-07-10T11:02:46Z</time>
      </trkpt>
      <trkpt lat="47.787" lon="-3.38494">
        <ele>11.38</ele>
        <time>2020-07-10T11:02:47Z</time>
      </trkpt>
      <trkpt lat="47.787" lon="-3.38483">
        <ele>10.69</ele>
        <time>2020-07-10T11:02:48Z</time>
      </trkpt>
      <trkpt lat="47.78699" lon="-3.38473">
        <ele>10.01</ele>
        <time>2020-07-10T11:02:49Z</time>
      </trkpt>
      <trkpt lat="47.78699" lon="-3.38463">
        <ele>9.45</ele>
        <time>2020-07-10T11:02:50Z</time>
      </trkpt>
      <trkpt lat="47.78699" lon="-3.38452">
        <ele>8.9</ele>
        <time>2020-07-10T11:02:51Z</time>
      </trkpt>
      <trkpt lat="47.78699" lon="-3.38442">
        <ele>8.32</ele>
        <time>2020-07-10T11:02:52Z</time>
      </trkpt>
      <trkpt lat="47.78698" lon="-3.38433">
        <ele>7.57</ele>
        <time>2020-07-10T11:02:53Z</time>
      </trkpt>
      <trkpt lat="47.78698" lon="-3.38426">
        <ele>6.94</ele>
        <time>2020-07-10T11:02:54Z</time>
      </trkpt>
      <trkpt lat="47.78697" lon="-3.38422">
        <ele>6.46</ele>
        <time>2020-07-10T11:02:55Z</time>
      </trkpt>
      <trkpt lat="47.78696" lon="-3.38419">
        <ele>6.19</ele>
        <time>2020-07-10T11:02:56Z</time>
      </trkpt>
      <trkpt lat="47.78696" lon="-3.38416">
        <ele>5.93</ele>
        <time>2020-07-10T11:02:57Z</time>
      </trkpt>
      <trkpt lat="47.78695" lon="-3.38413">
        <ele>5.62</ele>
        <time>2020-07-10T11:02:58Z</time>
      </trkpt>
      <trkpt lat="47.78694" lon="-3.38409">
        <ele>5.27</ele>
        <time>2020-07-10T11:02:59Z</time>
      </trkpt>
      <trkpt lat="47.78691" lon="-3.38405">
        <ele>4.95</ele>
        <time>2020-07-10T11:03:00Z</time>
      </trkpt>
      <trkpt lat="47.78687" lon="-3.38401">
        <ele>4.62</ele>
        <time>2020-07-10T11:03:01Z</time>
      </trkpt>
      <trkpt lat="47.78684" lon="-3.38399">
        <ele>4.41</ele>
        <time>2020-07-10T11:03:02Z</time>
      </trkpt>
      <trkpt lat="47.78681" lon="-3.38395">
        <ele>4.15</ele>
        <time>2020-07-10T11:03:03Z</time>
      </trkpt>
      <trkpt lat="47.7868" lon="-3.38391">
        <ele>3.82</ele>
        <time>2020-07-10T11:03:04Z</time>
      </trkpt>
      <trkpt lat="47.78681" lon="-3.38387">
        <ele>3.49</ele>
        <time>2020-07-10T11:03:05Z</time>
      </trkpt>
      <trkpt lat="47.78684" lon="-3.38385">
        <ele>3.23</ele>
        <time>2020-07-10T11:03:06Z</time>
      </trkpt>
      <trkpt lat="47.78686" lon="-3.38384">
        <ele>3.07</ele>
        <time>2020-07-10T11:03:07Z</time>
      </trkpt>
      <trkpt lat="47.7869" lon="-3.38384">
        <ele>2.97</ele>
        <time>2020-07-10T11:03:08Z</time>
      </trkpt>
      <trkpt lat="47.78694" lon="-3.38386">
        <ele>2.93</ele>
        <time>2020-07-10T11:03:09Z</time>
      </trkpt>
      <trkpt lat="47.78697" lon="-3.38388">
        <ele>2.97</ele>
        <time>2020-07-10T11:03:10Z</time>
      </trkpt>
      <trkpt lat="47.78699" lon="-3.38389">
        <ele>3.01</ele>
        <time>2020-07-10T11:03:11Z</time>
      </trkpt>
      <trkpt lat="47.78702" lon="-3.3839">
        <ele>3.09</ele>
        <time>2020-07-10T11:03:12Z</time>
      </trkpt>
      <trkpt lat="47.78704" lon="-3.38392">
        <ele>3.2</ele>
        <time>2020-07-10T11:03:13Z</time>
      </trkpt>
      <trkpt lat="47.78706" lon="-3.38394">
        <ele>3.29</ele>
        <time>2020-07-10T11:03:14Z</time>
      </trkpt>
      <trkpt lat="47.78708" lon="-3.38396">
        <ele>3.35</ele>
        <time>2020-07-10T11:03:15Z</time>
      </trkpt>
      <trkpt lat="47.78709" lon="-3.38396">
        <ele>3.37</ele>
        <time>2020-07-10T11:03:16Z</time>
      </trkpt>
      <trkpt lat="47.78709" lon="-3.38396">
        <ele>3.35</ele>
        <time>2020-07-10T11:03:17Z</time>
      </trkpt>
      <trkpt lat="47.78708" lon="-3.38396">
        <ele>3.36</ele>
        <time>2020-07-10T11:03:18Z</time>
      </trkpt>
      <trkpt lat="47.78708" lon="-3.38396">
        <ele>3.36</ele>
        <time>2020-07-10T11:03:19Z</time>
      </trkpt>
      <trkpt lat="47.78708" lon="-3.38396">
        <ele>3.36</ele>
        <time>2020-07-10T11:03:20Z</time>
      </trkpt>
      <trkpt lat="47.78708" lon="-3.38396">
        <ele>3.36</ele>
        <time>2020-07-10T11:03:21Z</time>
      </trkpt>
      <trkpt lat="47.78708" lon="-3.38396">
        <ele>3.36</ele>
        <time>2020-07-10T11:03:22Z</time>
      </trkpt>
      <trkpt lat="47.78708" lon="-3.38396">
        <ele>3.36</ele>
        <time>2020-07-10T11:03:23Z</time>
      </trkpt>
      <trkpt lat="47.78708" lon="-3.38396">
        <ele>3.36</ele>
        <time>2020-07-10T11:03:24Z</time>
      </trkpt>
      <trkpt lat="47.78708" lon="-3.38396">
        <ele>3.36</ele>
        <time>2020-07-10T11:03:25Z</time>
      </trkpt>
      <trkpt lat="47.78708" lon="-3.38396">
        <ele>3.36</ele>
        <time>2020-07-10T11:03:26Z</time>
      </trkpt>
      <trkpt lat="47.78708" lon="-3.38396">
        <ele>3.36</ele>
        <time>2020-07-10T11:03:27Z</time>
      </trkpt>
      <trkpt lat="47.78708" lon="-3.38396">
        <ele>3.36</ele>
        <time>2020-07-10T11:03:28Z</time>
      </trkpt>
      <trkpt lat="47.78708" lon="-3.38396">
        <ele>3.36</ele>
        <time>2020-07-10T11:03:29Z</time>
      </trkpt>
      <trkpt lat="47.78708" lon="-3.38396">
        <ele>3.36</ele>
        <time>2020-07-10T11:03:30Z</time>
      </trkpt>
      <trkpt lat="47.78708" lon="-3.38396">
        <ele>3.36</ele>
        <time>2020-07-10T11:03:31Z</time>
      </trkpt>
      <trkpt lat="47.78708" lon="-3.38396">
        <ele>3.36</ele>
        <time>2020-07-10T11:03:32Z</time>
      </trkpt>
      <trkpt lat="47.78708" lon="-3.38396">
        <ele>3.36</ele>
        <time>2020-07-10T11:03:33Z</time>
      </trkpt>
      <trkpt lat="47.78708" lon="-3.38396">
        <ele>3.36</ele>
        <time>2020-07-10T11:03:34Z</time>
      </trkpt>
      <trkpt lat="47.78718" lon="-3.38398">
        <ele>3.22</ele>
        <time>2020-07-10T11:03:35Z</time>
      </trkpt>
      <trkpt lat="47.7872" lon="-3.38397">
        <ele>3.11</ele>
        <time>2020-07-10T11:03:36Z</time>
      </trkpt>
      <trkpt lat="47.78722" lon="-3.38399">
        <ele>3.04</ele>
        <time>2020-07-10T11:03:37Z</time>
      </trkpt>
      <trkpt lat="47.78724" lon="-3.38402">
        <ele>3.01</ele>
        <time>2020-07-10T11:03:38Z</time>
      </trkpt>
      <trkpt lat="47.78726" lon="-3.38404">
        <ele>3</ele>
        <time>2020-07-10T11:03:39Z</time>
      </trkpt>
      <trkpt lat="47.78727" lon="-3.38407">
        <ele>3</ele>
        <time>2020-07-10T11:03:40Z</time>
      </trkpt>
      <trkpt lat="47.78728" lon="-3.3841">
        <ele>3</ele>
        <time>2020-07-10T11:03:41Z</time>
      </trkpt>
      <trkpt lat="47.78728" lon="-3.38413">
        <ele>3</ele>
        <time>2020-07-10T11:03:42Z</time>
      </trkpt>
      <trkpt lat="47.78728" lon="-3.38416">
        <ele>3</ele>
        <time>2020-07-10T11:03:43Z</time>
      </trkpt>
      <trkpt lat="47.78728" lon="-3.38419">
        <ele>3.09</ele>
        <time>2020-07-10T11:03:44Z</time>
      </trkpt>
      <trkpt lat="47.78727" lon="-3.38422">
        <ele>3.25</ele>
        <time>2020-07-10T11:03:45Z</time>
      </trkpt>
      <trkpt lat="47.78726" lon="-3.38424">
        <ele>3.4</ele>
        <time>2020-07-10T11:03:46Z</time>
      </trkpt>
      <trkpt lat="47.78726" lon="-3.38428">
        <ele>3.6</ele>
        <time>2020-07-10T11:03:47Z</time>
      </trkpt>
      <trkpt lat="47.78725" lon="-3.3843">
        <ele>3.8</ele>
        <time>2020-07-10T11:03:48Z</time>
      </trkpt>
      <trkpt lat="47.78725" lon="-3.38433">
        <ele>3.99</ele>
        <time>2020-07-10T11:03:49Z</time>
      </trkpt>
      <trkpt lat="47.78724" lon="-3.38435">
        <ele>4.17</ele>
        <time>2020-07-10T11:03:50Z</time>
      </trkpt>
      <trkpt lat="47.78724" lon="-3.38438">
        <ele>4.34</ele>
        <time>2020-07-10T11:03:51Z</time>
      </trkpt>
      <trkpt lat="47.78724" lon="-3.38441">
        <ele>4.55</ele>
        <time>2020-07-10T11:03:52Z</time>
      </trkpt>
      <trkpt lat="47.78724" lon="-3.38444">
        <ele>4.75</ele>
        <time>2020-07-10T11:03:53Z</time>
      </trkpt>
      <trkpt lat="47.78725" lon="-3.38447">
        <ele>4.95</ele>
        <time>2020-07-10T11:03:54Z</time>
      </trkpt>
      <trkpt lat="47.78725" lon="-3.38448">
        <ele>5.05</ele>
        <time>2020-07-10T11:03:55Z</time>
      </trkpt>
      <trkpt lat="47.78726" lon="-3.38448">
        <ele>5.08</ele>
        <time>2020-07-10T11:03:56Z</time>
      </trkpt>
      <trkpt lat="47.78727" lon="-3.38449">
        <ele>5.12</ele>
        <time>2020-07-10T11:03:57Z</time>
      </trkpt>
      <trkpt lat="47.7873" lon="-3.38453">
        <ele>5.24</ele>
        <time>2020-07-10T11:03:58Z</time>
      </trkpt>
      <trkpt lat="47.78733" lon="-3.38457">
        <ele>5.35</ele>
        <time>2020-07-10T11:03:59Z</time>
      </trkpt>
      <trkpt lat="47.78736" lon="-3.3846">
        <ele>5.41</ele>
        <time>2020-07-10T11:04:00Z</time>
      </trkpt>
      <trkpt lat="47.78737" lon="-3.38462">
        <ele>5.41</ele>
        <time>2020-07-10T11:04:01Z</time>
      </trkpt>
      <trkpt lat="47.78739" lon="-3.38463">
        <ele>5.36</ele>
        <time>2020-07-10T11:04:02Z</time>
      </trkpt>
      <trkpt lat="47.78742" lon="-3.38464">
        <ele>5.26</ele>
        <time>2020-07-10T11:04:03Z</time>
      </trkpt>
      <trkpt lat="47.78743" lon="-3.38466">
        <ele>5.26</ele>
        <time>2020-07-10T11:04:04Z</time>
      </trkpt>
      <trkpt lat="47.78745" lon="-3.38466">
        <ele>5.12</ele>
        <time>2020-07-10T11:04:05Z</time>
      </trkpt>
      <trkpt lat="47.78747" lon="-3.38463">
        <ele>4.8</ele>
        <time>2020-07-10T11:04:06Z</time>
      </trkpt>
      <trkpt lat="47.78749" lon="-3.38462">
        <ele>4.48</ele>
        <time>2020-07-10T11:04:07Z</time>
      </trkpt>
      <trkpt lat="47.7875" lon="-3.3846">
        <ele>4.26</ele>
        <time>2020-07-10T11:04:08Z</time>
      </trkpt>
      <trkpt lat="47.78752" lon="-3.38459">
        <ele>4.3</ele>
        <time>2020-07-10T11:04:09Z</time>
      </trkpt>
      <trkpt lat="47.78754" lon="-3.38457">
        <ele>4.44</ele>
        <time>2020-07-10T11:04:10Z</time>
      </trkpt>
      <trkpt lat="47.78755" lon="-3.38457">
        <ele>4.62</ele>
        <time>2020-07-10T11:04:11Z</time>
      </trkpt>
      <trkpt lat="47.78756" lon="-3.38458">
        <ele>4.75</ele>
        <time>2020-07-10T11:04:12Z</time>
      </trkpt>
      <trkpt lat="47.78757" lon="-3.38459">
        <ele>4.94</ele>
        <time>2020-07-10T11:04:13Z</time>
      </trkpt>
      <trkpt lat="47.78758" lon="-3.38459">
        <ele>5.16</ele>
        <time>2020-07-10T11:04:14Z</time>
      </trkpt>
      <trkpt lat="47.7876" lon="-3.3846">
        <ele>5.45</ele>
        <time>2020-07-10T11:04:15Z</time>
      </trkpt>
      <trkpt lat="47.78761" lon="-3.38461">
        <ele>5.65</ele>
        <time>2020-07-10T11:04:16Z</time>
      </trkpt>
      <trkpt lat="47.78763" lon="-3.38461">
        <ele>5.86</ele>
        <time>2020-07-10T11:04:17Z</time>
      </trkpt>
      <trkpt lat="47.78764" lon="-3.38462">
        <ele>6.02</ele>
        <time>2020-07-10T11:04:18Z</time>
      </trkpt>
      <trkpt lat="47.78765" lon="-3.38462">
        <ele>6.18</ele>
        <time>2020-07-10T11:04:19Z</time>
      </trkpt>
      <trkpt lat="47.78766" lon="-3.38463">
        <ele>6.34</ele>
        <time>2020-07-10T11:04:20Z</time>
      </trkpt>
      <trkpt lat="47.78768" lon="-3.38462">
        <ele>6.56</ele>
        <time>2020-07-10T11:04:21Z</time>
      </trkpt>
      <trkpt lat="47.78769" lon="-3.38462">
        <ele>6.72</ele>
        <time>2020-07-10T11:04:22Z</time>
      </trkpt>
      <trkpt lat="47.7877" lon="-3.38462">
        <ele>6.85</ele>
        <time>2020-07-10T11:04:23Z</time>
      </trkpt>
      <trkpt lat="47.78771" lon="-3.38462">
        <ele>6.98</ele>
        <time>2020-07-10T11:04:24Z</time>
      </trkpt>
      <trkpt lat="47.78772" lon="-3.3846">
        <ele>7.15</ele>
        <time>2020-07-10T11:04:25Z</time>
      </trkpt>
      <trkpt lat="47.78774" lon="-3.3846">
        <ele>7.34</ele>
        <time>2020-07-10T11:04:26Z</time>
      </trkpt>
      <trkpt lat="47.78775" lon="-3.38459">
        <ele>7.56</ele>
        <time>2020-07-10T11:04:27Z</time>
      </trkpt>
      <trkpt lat="47.78777" lon="-3.3846">
        <ele>7.76</ele>
        <time>2020-07-10T11:04:28Z</time>
      </trkpt>
      <trkpt lat="47.78779" lon="-3.38461">
        <ele>8.13</ele>
        <time>2020-07-10T11:04:29Z</time>
      </trkpt>
      <trkpt lat="47.78782" lon="-3.38459">
        <ele>8.6</ele>
        <time>2020-07-10T11:04:30Z</time>
      </trkpt>
      <trkpt lat="47.78784" lon="-3.38458">
        <ele>8.96</ele>
        <time>2020-07-10T11:04:31Z</time>
      </trkpt>
      <trkpt lat="47.78787" lon="-3.38457">
        <ele>9.47</ele>
        <time>2020-07-10T11:04:32Z</time>
      </trkpt>
      <trkpt lat="47.78789" lon="-3.38454">
        <ele>9.75</ele>
        <time>2020-07-10T11:04:33Z</time>
      </trkpt>
      <trkpt lat="47.78792" lon="-3.3845">
        <ele>10.06</ele>
        <time>2020-07-10T11:04:34Z</time>
      </trkpt>
      <trkpt lat="47.78794" lon="-3.38448">
        <ele>10.39</ele>
        <time>2020-07-10T11:04:35Z</time>
      </trkpt>
      <trkpt lat="47.78796" lon="-3.38445">
        <ele>10.62</ele>
        <time>2020-07-10T11:04:36Z</time>
      </trkpt>
      <trkpt lat="47.78798" lon="-3.38442">
        <ele>10.75</ele>
        <time>2020-07-10T11:04:37Z</time>
      </trkpt>
      <trkpt lat="47.78799" lon="-3.3844">
        <ele>10.87</ele>
        <time>2020-07-10T11:04:38Z</time>
      </trkpt>
      <trkpt lat="47.788" lon="-3.38439">
        <ele>10.98</ele>
        <time>2020-07-10T11:04:39Z</time>
      </trkpt>
      <trkpt lat="47.788" lon="-3.38438">
        <ele>11.03</ele>
        <time>2020-07-10T11:04:40Z</time>
      </trkpt>
      <trkpt lat="47.788" lon="-3.38438">
        <ele>11.03</ele>
        <time>2020-07-10T11:04:41Z</time>
      </trkpt>
      <trkpt lat="47.788" lon="-3.38438">
        <ele>11.04</ele>
        <time>2020-07-10T11:04:42Z</time>
      </trkpt>
      <trkpt lat="47.788" lon="-3.38438">
        <ele>11.04</ele>
        <time>2020-07-10T11:04:43Z</time>
      </trkpt>
      <trkpt lat="47.788" lon="-3.38438">
        <ele>11.04</ele>
        <time>2020-07-10T11:04:44Z</time>
      </trkpt>
      <trkpt lat="47.788" lon="-3.38438">
        <ele>11.04</ele>
        <time>2020-07-10T11:04:45Z</time>
      </trkpt>
      <trkpt lat="47.788" lon="-3.38438">
        <ele>11.04</ele>
        <time>2020-07-10T11:04:46Z</time>
      </trkpt>
      <trkpt lat="47.78799" lon="-3.38429">
        <ele>10.73</ele>
        <time>2020-07-10T11:04:47Z</time>
      </trkpt>
      <trkpt lat="47.78799" lon="-3.38424">
        <ele>10.55</ele>
        <time>2020-07-10T11:04:48Z</time>
      </trkpt>
      <trkpt lat="47.78801" lon="-3.38416">
        <ele>10.53</ele>
        <time>2020-07-10T11:04:49Z</time>
      </trkpt>
      <trkpt lat="47.78803" lon="-3.3841">
        <ele>10.69</ele>
        <time>2020-07-10T11:04:50Z</time>
      </trkpt>
      <trkpt lat="47.78805" lon="-3.38405">
        <ele>10.87</ele>
        <time>2020-07-10T11:04:51Z</time>
      </trkpt>
      <trkpt lat="47.78807" lon="-3.38401">
        <ele>11.07</ele>
        <time>2020-07-10T11:04:52Z</time>
      </trkpt>
      <trkpt lat="47.78808" lon="-3.38397">
        <ele>11.25</ele>
        <time>2020-07-10T11:04:53Z</time>
      </trkpt>
      <trkpt lat="47.7881" lon="-3.38394">
        <ele>11.44</ele>
        <time>2020-07-10T11:04:54Z</time>
      </trkpt>
      <trkpt lat="47.78812" lon="-3.38391">
        <ele>11.63</ele>
        <time>2020-07-10T11:04:55Z</time>
      </trkpt>
      <trkpt lat="47.78814" lon="-3.38388">
        <ele>11.82</ele>
        <time>2020-07-10T11:04:56Z</time>
      </trkpt>
      <trkpt lat="47.78816" lon="-3.38386">
        <ele>12.03</ele>
        <time>2020-07-10T11:04:57Z</time>
      </trkpt>
      <trkpt lat="47.78818" lon="-3.38383">
        <ele>12.24</ele>
        <time>2020-07-10T11:04:58Z</time>
      </trkpt>
      <trkpt lat="47.78819" lon="-3.3838">
        <ele>12.43</ele>
        <time>2020-07-10T11:04:59Z</time>
      </trkpt>
      <trkpt lat="47.78821" lon="-3.38377">
        <ele>12.62</ele>
        <time>2020-07-10T11:05:00Z</time>
      </trkpt>
      <trkpt lat="47.78824" lon="-3.38372">
        <ele>12.87</ele>
        <time>2020-07-10T11:05:01Z</time>
      </trkpt>
      <trkpt lat="47.78826" lon="-3.38368">
        <ele>13.14</ele>
        <time>2020-07-10T11:05:02Z</time>
      </trkpt>
      <trkpt lat="47.78829" lon="-3.38365">
        <ele>13.4</ele>
        <time>2020-07-10T11:05:03Z</time>
      </trkpt>
      <trkpt lat="47.78831" lon="-3.38361">
        <ele>13.63</ele>
        <time>2020-07-10T11:05:04Z</time>
      </trkpt>
      <trkpt lat="47.78832" lon="-3.38357">
        <ele>13.73</ele>
        <time>2020-07-10T11:05:05Z</time>
      </trkpt>
      <trkpt lat="47.78834" lon="-3.38354">
        <ele>13.81</ele>
        <time>2020-07-10T11:05:06Z</time>
      </trkpt>
      <trkpt lat="47.78836" lon="-3.3835">
        <ele>13.87</ele>
        <time>2020-07-10T11:05:07Z</time>
      </trkpt>
      <trkpt lat="47.78838" lon="-3.38347">
        <ele>13.93</ele>
        <time>2020-07-10T11:05:08Z</time>
      </trkpt>
      <trkpt lat="47.78838" lon="-3.38345">
        <ele>13.93</ele>
        <time>2020-07-10T11:05:09Z</time>
      </trkpt>
      <trkpt lat="47.78839" lon="-3.38341">
        <ele>13.87</ele>
        <time>2020-07-10T11:05:10Z</time>
      </trkpt>
      <trkpt lat="47.78839" lon="-3.38337">
        <ele>13.75</ele>
        <time>2020-07-10T11:05:11Z</time>
      </trkpt>
      <trkpt lat="47.78839" lon="-3.38333">
        <ele>13.67</ele>
        <time>2020-07-10T11:05:12Z</time>
      </trkpt>
      <trkpt lat="47.78841" lon="-3.3833">
        <ele>13.73</ele>
        <time>2020-07-10T11:05:13Z</time>
      </trkpt>
      <trkpt lat="47.78843" lon="-3.38329">
        <ele>13.9</ele>
        <time>2020-07-10T11:05:14Z</time>
      </trkpt>
      <trkpt lat="47.78845" lon="-3.3833">
        <ele>14.1</ele>
        <time>2020-07-10T11:05:15Z</time>
      </trkpt>
      <trkpt lat="47.78847" lon="-3.38331">
        <ele>14.34</ele>
        <time>2020-07-10T11:05:16Z</time>
      </trkpt>
      <trkpt lat="47.78849" lon="-3.38333">
        <ele>14.58</ele>
        <time>2020-07-10T11:05:17Z</time>
      </trkpt>
      <trkpt lat="47.78851" lon="-3.38335">
        <ele>14.87</ele>
        <time>2020-07-10T11:05:18Z</time>
      </trkpt>
      <trkpt lat="47.78853" lon="-3.38336">
        <ele>15.16</ele>
        <time>2020-07-10T11:05:19Z</time>
      </trkpt>
      <trkpt lat="47.78855" lon="-3.38338">
        <ele>15.41</ele>
        <time>2020-07-10T11:05:20Z</time>
      </trkpt>
      <trkpt lat="47.78856" lon="-3.38341">
        <ele>15.66</ele>
        <time>2020-07-10T11:05:21Z</time>
      </trkpt>
      <trkpt lat="47.78858" lon="-3.38343">
        <ele>15.93</ele>
        <time>2020-07-10T11:05:22Z</time>
      </trkpt>
      <trkpt lat="47.7886" lon="-3.38345">
        <ele>16.2</ele>
        <time>2020-07-10T11:05:23Z</time>
      </trkpt>
      <trkpt lat="47.78862" lon="-3.38346">
        <ele>16.43</ele>
        <time>2020-07-10T11:05:24Z</time>
      </trkpt>
      <trkpt lat="47.78864" lon="-3.38348">
        <ele>16.63</ele>
        <time>2020-07-10T11:05:25Z</time>
      </trkpt>
      <trkpt lat="47.78865" lon="-3.3835">
        <ele>16.81</ele>
        <time>2020-07-10T11:05:26Z</time>
      </trkpt>
      <trkpt lat="47.78866" lon="-3.38352">
        <ele>16.99</ele>
        <time>2020-07-10T11:05:27Z</time>
      </trkpt>
      <trkpt lat="47.78869" lon="-3.38354">
        <ele>17.19</ele>
        <time>2020-07-10T11:05:28Z</time>
      </trkpt>
      <trkpt lat="47.78871" lon="-3.38356">
        <ele>17.44</ele>
        <time>2020-07-10T11:05:29Z</time>
      </trkpt>
      <trkpt lat="47.78875" lon="-3.38359">
        <ele>17.75</ele>
        <time>2020-07-10T11:05:30Z</time>
      </trkpt>
      <trkpt lat="47.78877" lon="-3.3836">
        <ele>17.99</ele>
        <time>2020-07-10T11:05:31Z</time>
      </trkpt>
      <trkpt lat="47.78879" lon="-3.38363">
        <ele>18.23</ele>
        <time>2020-07-10T11:05:32Z</time>
      </trkpt>
      <trkpt lat="47.78881" lon="-3.38365">
        <ele>18.47</ele>
        <time>2020-07-10T11:05:33Z</time>
      </trkpt>
      <trkpt lat="47.78883" lon="-3.38367">
        <ele>18.71</ele>
        <time>2020-07-10T11:05:34Z</time>
      </trkpt>
      <trkpt lat="47.78885" lon="-3.38369">
        <ele>18.94</ele>
        <time>2020-07-10T11:05:35Z</time>
      </trkpt>
      <trkpt lat="47.78887" lon="-3.38371">
        <ele>19.16</ele>
        <time>2020-07-10T11:05:36Z</time>
      </trkpt>
      <trkpt lat="47.7889" lon="-3.38373">
        <ele>19.41</ele>
        <time>2020-07-10T11:05:37Z</time>
      </trkpt>
      <trkpt lat="47.78892" lon="-3.38375">
        <ele>19.74</ele>
        <time>2020-07-10T11:05:38Z</time>
      </trkpt>
      <trkpt lat="47.78895" lon="-3.38375">
        <ele>20.07</ele>
        <time>2020-07-10T11:05:39Z</time>
      </trkpt>
      <trkpt lat="47.78897" lon="-3.38373">
        <ele>20.33</ele>
        <time>2020-07-10T11:05:40Z</time>
      </trkpt>
      <trkpt lat="47.78898" lon="-3.38371">
        <ele>20.51</ele>
        <time>2020-07-10T11:05:41Z</time>
      </trkpt>
      <trkpt lat="47.789" lon="-3.38367">
        <ele>20.64</ele>
        <time>2020-07-10T11:05:42Z</time>
      </trkpt>
      <trkpt lat="47.78901" lon="-3.38363">
        <ele>20.75</ele>
        <time>2020-07-10T11:05:43Z</time>
      </trkpt>
      <trkpt lat="47.78902" lon="-3.38359">
        <ele>20.79</ele>
        <time>2020-07-10T11:05:44Z</time>
      </trkpt>
      <trkpt lat="47.78903" lon="-3.38356">
        <ele>20.79</ele>
        <time>2020-07-10T11:05:45Z</time>
      </trkpt>
      <trkpt lat="47.78903" lon="-3.38353">
        <ele>20.75</ele>
        <time>2020-07-10T11:05:46Z</time>
      </trkpt>
      <trkpt lat="47.78903" lon="-3.38354">
        <ele>20.79</ele>
        <time>2020-07-10T11:05:47Z</time>
      </trkpt>
      <trkpt lat="47.78903" lon="-3.38356">
        <ele>20.81</ele>
        <time>2020-07-10T11:05:48Z</time>
      </trkpt>
      <trkpt lat="47.78902" lon="-3.38359">
        <ele>20.79</ele>
        <time>2020-07-10T11:05:49Z</time>
      </trkpt>
      <trkpt lat="47.78901" lon="-3.38363">
        <ele>20.79</ele>
        <time>2020-07-10T11:05:50Z</time>
      </trkpt>
      <trkpt lat="47.78901" lon="-3.38368">
        <ele>20.86</ele>
        <time>2020-07-10T11:05:51Z</time>
      </trkpt>
      <trkpt lat="47.78901" lon="-3.38373">
        <ele>20.97</ele>
        <time>2020-07-10T11:05:52Z</time>
      </trkpt>
      <trkpt lat="47.78901" lon="-3.38378">
        <ele>21.07</ele>
        <time>2020-07-10T11:05:53Z</time>
      </trkpt>
      <trkpt lat="47.78901" lon="-3.38383">
        <ele>21.18</ele>
        <time>2020-07-10T11:05:54Z</time>
      </trkpt>
      <trkpt lat="47.78902" lon="-3.38388">
        <ele>21.37</ele>
        <time>2020-07-10T11:05:55Z</time>
      </trkpt>
      <trkpt lat="47.78904" lon="-3.38393">
        <ele>21.58</ele>
        <time>2020-07-10T11:05:56Z</time>
      </trkpt>
      <trkpt lat="47.78906" lon="-3.38397">
        <ele>21.77</ele>
        <time>2020-07-10T11:05:57Z</time>
      </trkpt>
      <trkpt lat="47.78908" lon="-3.384">
        <ele>22.01</ele>
        <time>2020-07-10T11:05:58Z</time>
      </trkpt>
      <trkpt lat="47.78912" lon="-3.38403">
        <ele>22.33</ele>
        <time>2020-07-10T11:05:59Z</time>
      </trkpt>
      <trkpt lat="47.78915" lon="-3.38406">
        <ele>22.66</ele>
        <time>2020-07-10T11:06:00Z</time>
      </trkpt>
      <trkpt lat="47.78917" lon="-3.38408">
        <ele>22.93</ele>
        <time>2020-07-10T11:06:01Z</time>
      </trkpt>
      <trkpt lat="47.7892" lon="-3.38411">
        <ele>23.15</ele>
        <time>2020-07-10T11:06:02Z</time>
      </trkpt>
      <trkpt lat="47.78923" lon="-3.38413">
        <ele>23.36</ele>
        <time>2020-07-10T11:06:03Z</time>
      </trkpt>
      <trkpt lat="47.78925" lon="-3.38416">
        <ele>23.53</ele>
        <time>2020-07-10T11:06:04Z</time>
      </trkpt>
      <trkpt lat="47.78928" lon="-3.38418">
        <ele>23.74</ele>
        <time>2020-07-10T11:06:05Z</time>
      </trkpt>
      <trkpt lat="47.78931" lon="-3.3842">
        <ele>23.97</ele>
        <time>2020-07-10T11:06:06Z</time>
      </trkpt>
      <trkpt lat="47.78933" lon="-3.38423">
        <ele>24.21</ele>
        <time>2020-07-10T11:06:07Z</time>
      </trkpt>
      <trkpt lat="47.78936" lon="-3.38425">
        <ele>24.48</ele>
        <time>2020-07-10T11:06:08Z</time>
      </trkpt>
      <trkpt lat="47.78939" lon="-3.38427">
        <ele>24.77</ele>
        <time>2020-07-10T11:06:09Z</time>
      </trkpt>
      <trkpt lat="47.78942" lon="-3.38429">
        <ele>25.07</ele>
        <time>2020-07-10T11:06:10Z</time>
      </trkpt>
      <trkpt lat="47.78945" lon="-3.38432">
        <ele>25.42</ele>
        <time>2020-07-10T11:06:11Z</time>
      </trkpt>
      <trkpt lat="47.78947" lon="-3.38434">
        <ele>25.82</ele>
        <time>2020-07-10T11:06:12Z</time>
      </trkpt>
      <trkpt lat="47.7895" lon="-3.38436">
        <ele>26.2</ele>
        <time>2020-07-10T11:06:13Z</time>
      </trkpt>
      <trkpt lat="47.78953" lon="-3.38438">
        <ele>26.59</ele>
        <time>2020-07-10T11:06:14Z</time>
      </trkpt>
      <trkpt lat="47.78956" lon="-3.38439">
        <ele>26.97</ele>
        <time>2020-07-10T11:06:15Z</time>
      </trkpt>
      <trkpt lat="47.78959" lon="-3.38441">
        <ele>27.34</ele>
        <time>2020-07-10T11:06:16Z</time>
      </trkpt>
      <trkpt lat="47.78962" lon="-3.38443">
        <ele>27.7</ele>
        <time>2020-07-10T11:06:17Z</time>
      </trkpt>
      <trkpt lat="47.78965" lon="-3.38445">
        <ele>28.04</ele>
        <time>2020-07-10T11:06:18Z</time>
      </trkpt>
      <trkpt lat="47.78968" lon="-3.38447">
        <ele>28.38</ele>
        <time>2020-07-10T11:06:19Z</time>
      </trkpt>
      <trkpt lat="47.78971" lon="-3.3845">
        <ele>28.71</ele>
        <time>2020-07-10T11:06:20Z</time>
      </trkpt>
      <trkpt lat="47.78974" lon="-3.38452">
        <ele>29.05</ele>
        <time>2020-07-10T11:06:21Z</time>
      </trkpt>
      <trkpt lat="47.78977" lon="-3.38455">
        <ele>29.39</ele>
        <time>2020-07-10T11:06:22Z</time>
      </trkpt>
      <trkpt lat="47.7898" lon="-3.38457">
        <ele>29.72</ele>
        <time>2020-07-10T11:06:23Z</time>
      </trkpt>
      <trkpt lat="47.78983" lon="-3.3846">
        <ele>30.06</ele>
        <time>2020-07-10T11:06:24Z</time>
      </trkpt>
      <trkpt lat="47.78986" lon="-3.38462">
        <ele>30.38</ele>
        <time>2020-07-10T11:06:25Z</time>
      </trkpt>
      <trkpt lat="47.7899" lon="-3.38463">
        <ele>30.73</ele>
        <time>2020-07-10T11:06:26Z</time>
      </trkpt>
      <trkpt lat="47.78993" lon="-3.38465">
        <ele>31.09</ele>
        <time>2020-07-10T11:06:27Z</time>
      </trkpt>
      <trkpt lat="47.78996" lon="-3.38468">
        <ele>31.4</ele>
        <time>2020-07-10T11:06:28Z</time>
      </trkpt>
      <trkpt lat="47.78999" lon="-3.38469">
        <ele>31.71</ele>
        <time>2020-07-10T11:06:29Z</time>
      </trkpt>
      <trkpt lat="47.79002" lon="-3.3847">
        <ele>31.95</ele>
        <time>2020-07-10T11:06:30Z</time>
      </trkpt>
      <trkpt lat="47.79005" lon="-3.3847">
        <ele>32.11</ele>
        <time>2020-07-10T11:06:31Z</time>
      </trkpt>
      <trkpt lat="47.79008" lon="-3.38469">
        <ele>32.26</ele>
        <time>2020-07-10T11:06:32Z</time>
      </trkpt>
      <trkpt lat="47.79011" lon="-3.38467">
        <ele>32.4</ele>
        <time>2020-07-10T11:06:33Z</time>
      </trkpt>
      <trkpt lat="47.79014" lon="-3.38465">
        <ele>32.55</ele>
        <time>2020-07-10T11:06:34Z</time>
      </trkpt>
      <trkpt lat="47.79016" lon="-3.38463">
        <ele>32.72</ele>
        <time>2020-07-10T11:06:35Z</time>
      </trkpt>
      <trkpt lat="47.79019" lon="-3.38461">
        <ele>32.9</ele>
        <time>2020-07-10T11:06:36Z</time>
      </trkpt>
      <trkpt lat="47.79022" lon="-3.38459">
        <ele>33.1</ele>
        <time>2020-07-10T11:06:37Z</time>
      </trkpt>
      <trkpt lat="47.79025" lon="-3.38458">
        <ele>33.3</ele>
        <time>2020-07-10T11:06:38Z</time>
      </trkpt>
      <trkpt lat="47.79029" lon="-3.38456">
        <ele>33.53</ele>
        <time>2020-07-10T11:06:39Z</time>
      </trkpt>
      <trkpt lat="47.79032" lon="-3.38455">
        <ele>33.77</ele>
        <time>2020-07-10T11:06:40Z</time>
      </trkpt>
      <trkpt lat="47.79035" lon="-3.38453">
        <ele>34.03</ele>
        <time>2020-07-10T11:06:41Z</time>
      </trkpt>
      <trkpt lat="47.79039" lon="-3.38452">
        <ele>34.29</ele>
        <time>2020-07-10T11:06:42Z</time>
      </trkpt>
      <trkpt lat="47.79042" lon="-3.38451">
        <ele>34.53</ele>
        <time>2020-07-10T11:06:43Z</time>
      </trkpt>
      <trkpt lat="47.79045" lon="-3.38451">
        <ele>34.75</ele>
        <time>2020-07-10T11:06:44Z</time>
      </trkpt>
      <trkpt lat="47.79048" lon="-3.38451">
        <ele>34.95</ele>
        <time>2020-07-10T11:06:45Z</time>
      </trkpt>
      <trkpt lat="47.79051" lon="-3.38452">
        <ele>35.11</ele>
        <time>2020-07-10T11:06:46Z</time>
      </trkpt>
      <trkpt lat="47.79054" lon="-3.38454">
        <ele>35.22</ele>
        <time>2020-07-10T11:06:47Z</time>
      </trkpt>
      <trkpt lat="47.79057" lon="-3.38455">
        <ele>35.32</ele>
        <time>2020-07-10T11:06:48Z</time>
      </trkpt>
      <trkpt lat="47.7906" lon="-3.38456">
        <ele>35.45</ele>
        <time>2020-07-10T11:06:49Z</time>
      </trkpt>
      <trkpt lat="47.79063" lon="-3.38457">
        <ele>35.6</ele>
        <time>2020-07-10T11:06:50Z</time>
      </trkpt>
      <trkpt lat="47.79066" lon="-3.38457">
        <ele>35.77</ele>
        <time>2020-07-10T11:06:51Z</time>
      </trkpt>
      <trkpt lat="47.79069" lon="-3.38458">
        <ele>35.96</ele>
        <time>2020-07-10T11:06:52Z</time>
      </trkpt>
      <trkpt lat="47.79073" lon="-3.38458">
        <ele>36.17</ele>
        <time>2020-07-10T11:06:53Z</time>
      </trkpt>
      <trkpt lat="47.79076" lon="-3.38459">
        <ele>36.37</ele>
        <time>2020-07-10T11:06:54Z</time>
      </trkpt>
      <trkpt lat="47.7908" lon="-3.3846">
        <ele>36.56</ele>
        <time>2020-07-10T11:06:55Z</time>
      </trkpt>
      <trkpt lat="47.79083" lon="-3.38461">
        <ele>36.77</ele>
        <time>2020-07-10T11:06:56Z</time>
      </trkpt>
      <trkpt lat="47.79087" lon="-3.38461">
        <ele>36.95</ele>
        <time>2020-07-10T11:06:57Z</time>
      </trkpt>
      <trkpt lat="47.79091" lon="-3.38462">
        <ele>37.13</ele>
        <time>2020-07-10T11:06:58Z</time>
      </trkpt>
      <trkpt lat="47.79095" lon="-3.38462">
        <ele>37.32</ele>
        <time>2020-07-10T11:06:59Z</time>
      </trkpt>
      <trkpt lat="47.79098" lon="-3.38463">
        <ele>37.49</ele>
        <time>2020-07-10T11:07:00Z</time>
      </trkpt>
      <trkpt lat="47.79102" lon="-3.38463">
        <ele>37.69</ele>
        <time>2020-07-10T11:07:01Z</time>
      </trkpt>
      <trkpt lat="47.79105" lon="-3.38463">
        <ele>37.87</ele>
        <time>2020-07-10T11:07:02Z</time>
      </trkpt>
      <trkpt lat="47.79108" lon="-3.38464">
        <ele>38.04</ele>
        <time>2020-07-10T11:07:03Z</time>
      </trkpt>
      <trkpt lat="47.79112" lon="-3.38464">
        <ele>38.22</ele>
        <time>2020-07-10T11:07:04Z</time>
      </trkpt>
      <trkpt lat="47.79115" lon="-3.38463">
        <ele>38.28</ele>
        <time>2020-07-10T11:07:05Z</time>
      </trkpt>
      <trkpt lat="47.79119" lon="-3.38462">
        <ele>38.33</ele>
        <time>2020-07-10T11:07:06Z</time>
      </trkpt>
      <trkpt lat="47.79124" lon="-3.38461">
        <ele>38.37</ele>
        <time>2020-07-10T11:07:07Z</time>
      </trkpt>
      <trkpt lat="47.79128" lon="-3.38461">
        <ele>38.41</ele>
        <time>2020-07-10T11:07:08Z</time>
      </trkpt>
      <trkpt lat="47.79132" lon="-3.3846">
        <ele>38.43</ele>
        <time>2020-07-10T11:07:09Z</time>
      </trkpt>
      <trkpt lat="47.79137" lon="-3.38459">
        <ele>38.47</ele>
        <time>2020-07-10T11:07:10Z</time>
      </trkpt>
      <trkpt lat="47.79141" lon="-3.38457">
        <ele>38.48</ele>
        <time>2020-07-10T11:07:11Z</time>
      </trkpt>
      <trkpt lat="47.79145" lon="-3.38456">
        <ele>38.4</ele>
        <time>2020-07-10T11:07:12Z</time>
      </trkpt>
      <trkpt lat="47.79149" lon="-3.38455">
        <ele>38.3</ele>
        <time>2020-07-10T11:07:13Z</time>
      </trkpt>
      <trkpt lat="47.79154" lon="-3.38455">
        <ele>38.15</ele>
        <time>2020-07-10T11:07:14Z</time>
      </trkpt>
      <trkpt lat="47.79158" lon="-3.38455">
        <ele>38.01</ele>
        <time>2020-07-10T11:07:15Z</time>
      </trkpt>
      <trkpt lat="47.79162" lon="-3.38455">
        <ele>37.87</ele>
        <time>2020-07-10T11:07:16Z</time>
      </trkpt>
      <trkpt lat="47.79166" lon="-3.38454">
        <ele>37.73</ele>
        <time>2020-07-10T11:07:17Z</time>
      </trkpt>
      <trkpt lat="47.79171" lon="-3.38454">
        <ele>37.54</ele>
        <time>2020-07-10T11:07:18Z</time>
      </trkpt>
      <trkpt lat="47.79175" lon="-3.38454">
        <ele>37.35</ele>
        <time>2020-07-10T11:07:19Z</time>
      </trkpt>
      <trkpt lat="47.7918" lon="-3.38453">
        <ele>37.14</ele>
        <time>2020-07-10T11:07:20Z</time>
      </trkpt>
      <trkpt lat="47.79186" lon="-3.38453">
        <ele>36.91</ele>
        <time>2020-07-10T11:07:21Z</time>
      </trkpt>
      <trkpt lat="47.79191" lon="-3.38452">
        <ele>36.68</ele>
        <time>2020-07-10T11:07:22Z</time>
      </trkpt>
      <trkpt lat="47.79197" lon="-3.38451">
        <ele>36.35</ele>
        <time>2020-07-10T11:07:23Z</time>
      </trkpt>
      <trkpt lat="47.79203" lon="-3.3845">
        <ele>35.9</ele>
        <time>2020-07-10T11:07:24Z</time>
      </trkpt>
      <trkpt lat="47.79207" lon="-3.38449">
        <ele>35.5</ele>
        <time>2020-07-10T11:07:25Z</time>
      </trkpt>
      <trkpt lat="47.7921" lon="-3.38448">
        <ele>35.26</ele>
        <time>2020-07-10T11:07:26Z</time>
      </trkpt>
      <trkpt lat="47.79211" lon="-3.38446">
        <ele>35.13</ele>
        <time>2020-07-10T11:07:27Z</time>
      </trkpt>
      <trkpt lat="47.79212" lon="-3.38445">
        <ele>35.08</ele>
        <time>2020-07-10T11:07:28Z</time>
      </trkpt>
      <trkpt lat="47.79212" lon="-3.38444">
        <ele>35.08</ele>
        <time>2020-07-10T11:07:29Z</time>
      </trkpt>
      <trkpt lat="47.79212" lon="-3.38444">
        <ele>35.1</ele>
        <time>2020-07-10T11:07:30Z</time>
      </trkpt>
      <trkpt lat="47.79212" lon="-3.38444">
        <ele>35.1</ele>
        <time>2020-07-10T11:07:31Z</time>
      </trkpt>
      <trkpt lat="47.79212" lon="-3.38444">
        <ele>35.1</ele>
        <time>2020-07-10T11:07:32Z</time>
      </trkpt>
      <trkpt lat="47.79212" lon="-3.38444">
        <ele>35.1</ele>
        <time>2020-07-10T11:07:33Z</time>
      </trkpt>
      <trkpt lat="47.79212" lon="-3.38444">
        <ele>35.1</ele>
        <time>2020-07-10T11:07:34Z</time>
      </trkpt>
      <trkpt lat="47.79212" lon="-3.38444">
        <ele>35.1</ele>
        <time>2020-07-10T11:07:35Z</time>
      </trkpt>
      <trkpt lat="47.79212" lon="-3.38444">
        <ele>35.1</ele>
        <time>2020-07-10T11:07:36Z</time>
      </trkpt>
      <trkpt lat="47.79212" lon="-3.38444">
        <ele>35.1</ele>
        <time>2020-07-10T11:07:37Z</time>
      </trkpt>
      <trkpt lat="47.79216" lon="-3.38445">
        <ele>34.8</ele>
        <time>2020-07-10T11:07:38Z</time>
      </trkpt>
      <trkpt lat="47.79218" lon="-3.38445">
        <ele>34.55</ele>
        <time>2020-07-10T11:07:39Z</time>
      </trkpt>
      <trkpt lat="47.79221" lon="-3.38445">
        <ele>34.25</ele>
        <time>2020-07-10T11:07:40Z</time>
      </trkpt>
      <trkpt lat="47.79224" lon="-3.38445">
        <ele>33.89</ele>
        <time>2020-07-10T11:07:41Z</time>
      </trkpt>
      <trkpt lat="47.79228" lon="-3.38446">
        <ele>33.48</ele>
        <time>2020-07-10T11:07:42Z</time>
      </trkpt>
      <trkpt lat="47.79232" lon="-3.38446">
        <ele>33.05</ele>
        <time>2020-07-10T11:07:43Z</time>
      </trkpt>
      <trkpt lat="47.79236" lon="-3.38446">
        <ele>32.65</ele>
        <time>2020-07-10T11:07:44Z</time>
      </trkpt>
      <trkpt lat="47.7924" lon="-3.38447">
        <ele>32.23</ele>
        <time>2020-07-10T11:07:45Z</time>
      </trkpt>
      <trkpt lat="47.79243" lon="-3.38447">
        <ele>31.83</ele>
        <time>2020-07-10T11:07:46Z</time>
      </trkpt>
      <trkpt lat="47.79247" lon="-3.38448">
        <ele>31.43</ele>
        <time>2020-07-10T11:07:47Z</time>
      </trkpt>
      <trkpt lat="47.79252" lon="-3.38448">
        <ele>31.1</ele>
        <time>2020-07-10T11:07:48Z</time>
      </trkpt>
      <trkpt lat="47.79256" lon="-3.38448">
        <ele>30.91</ele>
        <time>2020-07-10T11:07:49Z</time>
      </trkpt>
      <trkpt lat="47.79259" lon="-3.3845">
        <ele>30.78</ele>
        <time>2020-07-10T11:07:50Z</time>
      </trkpt>
      <trkpt lat="47.79263" lon="-3.38451">
        <ele>30.69</ele>
        <time>2020-07-10T11:07:51Z</time>
      </trkpt>
      <trkpt lat="47.79266" lon="-3.38452">
        <ele>30.61</ele>
        <time>2020-07-10T11:07:52Z</time>
      </trkpt>
      <trkpt lat="47.7927" lon="-3.38453">
        <ele>30.52</ele>
        <time>2020-07-10T11:07:53Z</time>
      </trkpt>
      <trkpt lat="47.79275" lon="-3.38453">
        <ele>30.43</ele>
        <time>2020-07-10T11:07:54Z</time>
      </trkpt>
      <trkpt lat="47.79279" lon="-3.38453">
        <ele>30.35</ele>
        <time>2020-07-10T11:07:55Z</time>
      </trkpt>
      <trkpt lat="47.79283" lon="-3.38454">
        <ele>30.35</ele>
        <time>2020-07-10T11:07:56Z</time>
      </trkpt>
      <trkpt lat="47.79287" lon="-3.38455">
        <ele>30.37</ele>
        <time>2020-07-10T11:07:57Z</time>
      </trkpt>
      <trkpt lat="47.79291" lon="-3.38456">
        <ele>30.4</ele>
        <time>2020-07-10T11:07:58Z</time>
      </trkpt>
      <trkpt lat="47.79295" lon="-3.38457">
        <ele>30.43</ele>
        <time>2020-07-10T11:07:59Z</time>
      </trkpt>
      <trkpt lat="47.79299" lon="-3.38458">
        <ele>30.46</ele>
        <time>2020-07-10T11:08:00Z</time>
      </trkpt>
      <trkpt lat="47.79302" lon="-3.38458">
        <ele>30.49</ele>
        <time>2020-07-10T11:08:01Z</time>
      </trkpt>
      <trkpt lat="47.79306" lon="-3.38459">
        <ele>30.52</ele>
        <time>2020-07-10T11:08:02Z</time>
      </trkpt>
      <trkpt lat="47.79309" lon="-3.3846">
        <ele>30.64</ele>
        <time>2020-07-10T11:08:03Z</time>
      </trkpt>
      <trkpt lat="47.79313" lon="-3.3846">
        <ele>30.78</ele>
        <time>2020-07-10T11:08:04Z</time>
      </trkpt>
      <trkpt lat="47.79317" lon="-3.3846">
        <ele>30.92</ele>
        <time>2020-07-10T11:08:05Z</time>
      </trkpt>
      <trkpt lat="47.79321" lon="-3.38459">
        <ele>31.04</ele>
        <time>2020-07-10T11:08:06Z</time>
      </trkpt>
      <trkpt lat="47.79324" lon="-3.38458">
        <ele>31.11</ele>
        <time>2020-07-10T11:08:07Z</time>
      </trkpt>
      <trkpt lat="47.79328" lon="-3.38456">
        <ele>31.2</ele>
        <time>2020-07-10T11:08:08Z</time>
      </trkpt>
      <trkpt lat="47.79332" lon="-3.38457">
        <ele>31.34</ele>
        <time>2020-07-10T11:08:09Z</time>
      </trkpt>
      <trkpt lat="47.79336" lon="-3.38457">
        <ele>31.41</ele>
        <time>2020-07-10T11:08:10Z</time>
      </trkpt>
      <trkpt lat="47.7934" lon="-3.38457">
        <ele>31.43</ele>
        <time>2020-07-10T11:08:11Z</time>
      </trkpt>
      <trkpt lat="47.79344" lon="-3.38458">
        <ele>31.46</ele>
        <time>2020-07-10T11:08:12Z</time>
      </trkpt>
      <trkpt lat="47.79349" lon="-3.38457">
        <ele>31.45</ele>
        <time>2020-07-10T11:08:13Z</time>
      </trkpt>
      <trkpt lat="47.79353" lon="-3.38456">
        <ele>31.43</ele>
        <time>2020-07-10T11:08:14Z</time>
      </trkpt>
      <trkpt lat="47.79358" lon="-3.38455">
        <ele>31.4</ele>
        <time>2020-07-10T11:08:15Z</time>
      </trkpt>
      <trkpt lat="47.79362" lon="-3.38455">
        <ele>31.34</ele>
        <time>2020-07-10T11:08:16Z</time>
      </trkpt>
      <trkpt lat="47.79366" lon="-3.38453">
        <ele>31.11</ele>
        <time>2020-07-10T11:08:17Z</time>
      </trkpt>
      <trkpt lat="47.7937" lon="-3.38452">
        <ele>30.83</ele>
        <time>2020-07-10T11:08:18Z</time>
      </trkpt>
      <trkpt lat="47.79374" lon="-3.38451">
        <ele>30.53</ele>
        <time>2020-07-10T11:08:19Z</time>
      </trkpt>
      <trkpt lat="47.79377" lon="-3.38451">
        <ele>30.29</ele>
        <time>2020-07-10T11:08:20Z</time>
      </trkpt>
      <trkpt lat="47.7938" lon="-3.3845">
        <ele>30.08</ele>
        <time>2020-07-10T11:08:21Z</time>
      </trkpt>
      <trkpt lat="47.79383" lon="-3.3845">
        <ele>29.91</ele>
        <time>2020-07-10T11:08:22Z</time>
      </trkpt>
      <trkpt lat="47.79385" lon="-3.38453">
        <ele>29.85</ele>
        <time>2020-07-10T11:08:23Z</time>
      </trkpt>
      <trkpt lat="47.79387" lon="-3.38456">
        <ele>29.94</ele>
        <time>2020-07-10T11:08:24Z</time>
      </trkpt>
      <trkpt lat="47.79389" lon="-3.38461">
        <ele>30.09</ele>
        <time>2020-07-10T11:08:25Z</time>
      </trkpt>
      <trkpt lat="47.79392" lon="-3.38466">
        <ele>30.22</ele>
        <time>2020-07-10T11:08:26Z</time>
      </trkpt>
      <trkpt lat="47.79394" lon="-3.3847">
        <ele>30.37</ele>
        <time>2020-07-10T11:08:27Z</time>
      </trkpt>
      <trkpt lat="47.79396" lon="-3.38472">
        <ele>30.47</ele>
        <time>2020-07-10T11:08:28Z</time>
      </trkpt>
      <trkpt lat="47.79399" lon="-3.38475">
        <ele>30.43</ele>
        <time>2020-07-10T11:08:29Z</time>
      </trkpt>
      <trkpt lat="47.794" lon="-3.38474">
        <ele>30.36</ele>
        <time>2020-07-10T11:08:30Z</time>
      </trkpt>
      <trkpt lat="47.794" lon="-3.38474">
        <ele>30.33</ele>
        <time>2020-07-10T11:08:31Z</time>
      </trkpt>
      <trkpt lat="47.794" lon="-3.38474">
        <ele>30.32</ele>
        <time>2020-07-10T11:08:32Z</time>
      </trkpt>
      <trkpt lat="47.794" lon="-3.38474">
        <ele>30.31</ele>
        <time>2020-07-10T11:08:33Z</time>
      </trkpt>
      <trkpt lat="47.794" lon="-3.38474">
        <ele>30.31</ele>
        <time>2020-07-10T11:08:34Z</time>
      </trkpt>
      <trkpt lat="47.794" lon="-3.38474">
        <ele>30.31</ele>
        <time>2020-07-10T11:08:35Z</time>
      </trkpt>
      <trkpt lat="47.794" lon="-3.38474">
        <ele>30.31</ele>
        <time>2020-07-10T11:08:36Z</time>
      </trkpt>
      <trkpt lat="47.794" lon="-3.38474">
        <ele>30.31</ele>
        <time>2020-07-10T11:08:37Z</time>
      </trkpt>
      <trkpt lat="47.794" lon="-3.38474">
        <ele>30.31</ele>
        <time>2020-07-10T11:08:38Z</time>
      </trkpt>
      <trkpt lat="47.79401" lon="-3.38479">
        <ele>30.42</ele>
        <time>2020-07-10T11:08:39Z</time>
      </trkpt>
      <trkpt lat="47.79403" lon="-3.38481">
        <ele>30.47</ele>
        <time>2020-07-10T11:08:40Z</time>
      </trkpt>
      <trkpt lat="47.79404" lon="-3.38484">
        <ele>30.53</ele>
        <time>2020-07-10T11:08:41Z</time>
      </trkpt>
      <trkpt lat="47.79406" lon="-3.38489">
        <ele>30.69</ele>
        <time>2020-07-10T11:08:42Z</time>
      </trkpt>
      <trkpt lat="47.79408" lon="-3.38495">
        <ele>30.91</ele>
        <time>2020-07-10T11:08:43Z</time>
      </trkpt>
      <trkpt lat="47.79409" lon="-3.385">
        <ele>31.16</ele>
        <time>2020-07-10T11:08:44Z</time>
      </trkpt>
      <trkpt lat="47.7941" lon="-3.38505">
        <ele>31.35</ele>
        <time>2020-07-10T11:08:45Z</time>
      </trkpt>
      <trkpt lat="47.79411" lon="-3.3851">
        <ele>31.48</ele>
        <time>2020-07-10T11:08:46Z</time>
      </trkpt>
      <trkpt lat="47.79413" lon="-3.38514">
        <ele>31.58</ele>
        <time>2020-07-10T11:08:47Z</time>
      </trkpt>
      <trkpt lat="47.79414" lon="-3.38518">
        <ele>31.69</ele>
        <time>2020-07-10T11:08:48Z</time>
      </trkpt>
      <trkpt lat="47.79416" lon="-3.38522">
        <ele>31.78</ele>
        <time>2020-07-10T11:08:49Z</time>
      </trkpt>
      <trkpt lat="47.79417" lon="-3.38525">
        <ele>31.87</ele>
        <time>2020-07-10T11:08:50Z</time>
      </trkpt>
      <trkpt lat="47.79419" lon="-3.3853">
        <ele>32.05</ele>
        <time>2020-07-10T11:08:51Z</time>
      </trkpt>
      <trkpt lat="47.79421" lon="-3.38534">
        <ele>32.33</ele>
        <time>2020-07-10T11:08:52Z</time>
      </trkpt>
      <trkpt lat="47.79422" lon="-3.38537">
        <ele>32.61</ele>
        <time>2020-07-10T11:08:53Z</time>
      </trkpt>
      <trkpt lat="47.79423" lon="-3.3854">
        <ele>32.86</ele>
        <time>2020-07-10T11:08:54Z</time>
      </trkpt>
      <trkpt lat="47.79425" lon="-3.38543">
        <ele>33.12</ele>
        <time>2020-07-10T11:08:55Z</time>
      </trkpt>
      <trkpt lat="47.79427" lon="-3.38546">
        <ele>33.4</ele>
        <time>2020-07-10T11:08:56Z</time>
      </trkpt>
      <trkpt lat="47.79427" lon="-3.38549">
        <ele>33.68</ele>
        <time>2020-07-10T11:08:57Z</time>
      </trkpt>
      <trkpt lat="47.79428" lon="-3.38552">
        <ele>33.97</ele>
        <time>2020-07-10T11:08:58Z</time>
      </trkpt>
      <trkpt lat="47.7943" lon="-3.38554">
        <ele>34.23</ele>
        <time>2020-07-10T11:08:59Z</time>
      </trkpt>
      <trkpt lat="47.79431" lon="-3.38557">
        <ele>34.47</ele>
        <time>2020-07-10T11:09:00Z</time>
      </trkpt>
      <trkpt lat="47.79431" lon="-3.38557">
        <ele>34.59</ele>
        <time>2020-07-10T11:09:01Z</time>
      </trkpt>
      <trkpt lat="47.79432" lon="-3.38558">
        <ele>34.63</ele>
        <time>2020-07-10T11:09:02Z</time>
      </trkpt>
      <trkpt lat="47.79431" lon="-3.38558">
        <ele>34.64</ele>
        <time>2020-07-10T11:09:03Z</time>
      </trkpt>
      <trkpt lat="47.79431" lon="-3.38558">
        <ele>34.65</ele>
        <time>2020-07-10T11:09:04Z</time>
      </trkpt>
      <trkpt lat="47.79431" lon="-3.38558">
        <ele>34.65</ele>
        <time>2020-07-10T11:09:05Z</time>
      </trkpt>
      <trkpt lat="47.79431" lon="-3.38558">
        <ele>34.65</ele>
        <time>2020-07-10T11:09:06Z</time>
      </trkpt>
      <trkpt lat="47.79431" lon="-3.38558">
        <ele>34.65</ele>
        <time>2020-07-10T11:09:07Z</time>
      </trkpt>
      <trkpt lat="47.79428" lon="-3.38551">
        <ele>34.19</ele>
        <time>2020-07-10T11:09:08Z</time>
      </trkpt>
      <trkpt lat="47.79426" lon="-3.38546">
        <ele>33.75</ele>
        <time>2020-07-10T11:09:09Z</time>
      </trkpt>
      <trkpt lat="47.79425" lon="-3.38542">
        <ele>33.35</ele>
        <time>2020-07-10T11:09:10Z</time>
      </trkpt>
      <trkpt lat="47.79423" lon="-3.38538">
        <ele>32.95</ele>
        <time>2020-07-10T11:09:11Z</time>
      </trkpt>
      <trkpt lat="47.7942" lon="-3.38531">
        <ele>32.48</ele>
        <time>2020-07-10T11:09:12Z</time>
      </trkpt>
      <trkpt lat="47.79417" lon="-3.38525">
        <ele>32.07</ele>
        <time>2020-07-10T11:09:13Z</time>
      </trkpt>
      <trkpt lat="47.79414" lon="-3.38518">
        <ele>31.82</ele>
        <time>2020-07-10T11:09:14Z</time>
      </trkpt>
      <trkpt lat="47.79411" lon="-3.3851">
        <ele>31.62</ele>
        <time>2020-07-10T11:09:15Z</time>
      </trkpt>
      <trkpt lat="47.79409" lon="-3.38502">
        <ele>31.43</ele>
        <time>2020-07-10T11:09:16Z</time>
      </trkpt>
      <trkpt lat="47.79407" lon="-3.38495">
        <ele>31.17</ele>
        <time>2020-07-10T11:09:17Z</time>
      </trkpt>
      <trkpt lat="47.79405" lon="-3.38489">
        <ele>30.91</ele>
        <time>2020-07-10T11:09:18Z</time>
      </trkpt>
      <trkpt lat="47.79405" lon="-3.38484">
        <ele>30.63</ele>
        <time>2020-07-10T11:09:19Z</time>
      </trkpt>
      <trkpt lat="47.79406" lon="-3.38479">
        <ele>30.32</ele>
        <time>2020-07-10T11:09:20Z</time>
      </trkpt>
      <trkpt lat="47.79408" lon="-3.38475">
        <ele>29.96</ele>
        <time>2020-07-10T11:09:21Z</time>
      </trkpt>
      <trkpt lat="47.79411" lon="-3.38472">
        <ele>29.54</ele>
        <time>2020-07-10T11:09:22Z</time>
      </trkpt>
      <trkpt lat="47.79414" lon="-3.38469">
        <ele>28.95</ele>
        <time>2020-07-10T11:09:23Z</time>
      </trkpt>
      <trkpt lat="47.79418" lon="-3.38466">
        <ele>28.23</ele>
        <time>2020-07-10T11:09:24Z</time>
      </trkpt>
      <trkpt lat="47.79421" lon="-3.38465">
        <ele>27.3</ele>
        <time>2020-07-10T11:09:25Z</time>
      </trkpt>
      <trkpt lat="47.79425" lon="-3.38462">
        <ele>26.25</ele>
        <time>2020-07-10T11:09:26Z</time>
      </trkpt>
      <trkpt lat="47.79428" lon="-3.3846">
        <ele>25.08</ele>
        <time>2020-07-10T11:09:27Z</time>
      </trkpt>
      <trkpt lat="47.79432" lon="-3.38458">
        <ele>23.77</ele>
        <time>2020-07-10T11:09:28Z</time>
      </trkpt>
      <trkpt lat="47.79436" lon="-3.38456">
        <ele>22.4</ele>
        <time>2020-07-10T11:09:29Z</time>
      </trkpt>
      <trkpt lat="47.79441" lon="-3.38455">
        <ele>21.05</ele>
        <time>2020-07-10T11:09:30Z</time>
      </trkpt>
      <trkpt lat="47.79446" lon="-3.38454">
        <ele>19.49</ele>
        <time>2020-07-10T11:09:31Z</time>
      </trkpt>
      <trkpt lat="47.79452" lon="-3.38455">
        <ele>17.5</ele>
        <time>2020-07-10T11:09:32Z</time>
      </trkpt>
      <trkpt lat="47.79458" lon="-3.38458">
        <ele>15.69</ele>
        <time>2020-07-10T11:09:33Z</time>
      </trkpt>
      <trkpt lat="47.79464" lon="-3.38461">
        <ele>13.76</ele>
        <time>2020-07-10T11:09:34Z</time>
      </trkpt>
      <trkpt lat="47.7947" lon="-3.38464">
        <ele>12.04</ele>
        <time>2020-07-10T11:09:35Z</time>
      </trkpt>
      <trkpt lat="47.79475" lon="-3.38468">
        <ele>10.72</ele>
        <time>2020-07-10T11:09:36Z</time>
      </trkpt>
      <trkpt lat="47.7948" lon="-3.38471">
        <ele>9.74</ele>
        <time>2020-07-10T11:09:37Z</time>
      </trkpt>
      <trkpt lat="47.79484" lon="-3.38475">
        <ele>8.96</ele>
        <time>2020-07-10T11:09:38Z</time>
      </trkpt>
      <trkpt lat="47.79488" lon="-3.38479">
        <ele>8.18</ele>
        <time>2020-07-10T11:09:39Z</time>
      </trkpt>
      <trkpt lat="47.79492" lon="-3.38484">
        <ele>7.44</ele>
        <time>2020-07-10T11:09:40Z</time>
      </trkpt>
      <trkpt lat="47.79496" lon="-3.38489">
        <ele>6.63</ele>
        <time>2020-07-10T11:09:41Z</time>
      </trkpt>
      <trkpt lat="47.79499" lon="-3.38493">
        <ele>5.84</ele>
        <time>2020-07-10T11:09:42Z</time>
      </trkpt>
      <trkpt lat="47.79503" lon="-3.38497">
        <ele>5.49</ele>
        <time>2020-07-10T11:09:43Z</time>
      </trkpt>
      <trkpt lat="47.79507" lon="-3.38502">
        <ele>5.5</ele>
        <time>2020-07-10T11:09:44Z</time>
      </trkpt>
      <trkpt lat="47.7951" lon="-3.38507">
        <ele>5.92</ele>
        <time>2020-07-10T11:09:45Z</time>
      </trkpt>
      <trkpt lat="47.79513" lon="-3.38511">
        <ele>6.44</ele>
        <time>2020-07-10T11:09:46Z</time>
      </trkpt>
      <trkpt lat="47.79516" lon="-3.38516">
        <ele>6.87</ele>
        <time>2020-07-10T11:09:47Z</time>
      </trkpt>
      <trkpt lat="47.79519" lon="-3.3852">
        <ele>7.01</ele>
        <time>2020-07-10T11:09:48Z</time>
      </trkpt>
      <trkpt lat="47.79522" lon="-3.38522">
        <ele>6.77</ele>
        <time>2020-07-10T11:09:49Z</time>
      </trkpt>
      <trkpt lat="47.79526" lon="-3.38526">
        <ele>6.4</ele>
        <time>2020-07-10T11:09:50Z</time>
      </trkpt>
      <trkpt lat="47.79529" lon="-3.3853">
        <ele>6.54</ele>
        <time>2020-07-10T11:09:51Z</time>
      </trkpt>
      <trkpt lat="47.79533" lon="-3.38534">
        <ele>7.09</ele>
        <time>2020-07-10T11:09:52Z</time>
      </trkpt>
      <trkpt lat="47.79537" lon="-3.38538">
        <ele>7.7</ele>
        <time>2020-07-10T11:09:53Z</time>
      </trkpt>
      <trkpt lat="47.79541" lon="-3.38544">
        <ele>8.21</ele>
        <time>2020-07-10T11:09:54Z</time>
      </trkpt>
      <trkpt lat="47.79544" lon="-3.38549">
        <ele>8.48</ele>
        <time>2020-07-10T11:09:55Z</time>
      </trkpt>
      <trkpt lat="47.79547" lon="-3.38554">
        <ele>8.57</ele>
        <time>2020-07-10T11:09:56Z</time>
      </trkpt>
      <trkpt lat="47.79551" lon="-3.38559">
        <ele>8.72</ele>
        <time>2020-07-10T11:09:57Z</time>
      </trkpt>
      <trkpt lat="47.79554" lon="-3.38564">
        <ele>8.93</ele>
        <time>2020-07-10T11:09:58Z</time>
      </trkpt>
      <trkpt lat="47.79556" lon="-3.38569">
        <ele>9.41</ele>
        <time>2020-07-10T11:09:59Z</time>
      </trkpt>
      <trkpt lat="47.79561" lon="-3.38574">
        <ele>9.67</ele>
        <time>2020-07-10T11:10:00Z</time>
      </trkpt>
      <trkpt lat="47.79563" lon="-3.38579">
        <ele>10.05</ele>
        <time>2020-07-10T11:10:01Z</time>
      </trkpt>
      <trkpt lat="47.79566" lon="-3.38584">
        <ele>10.44</ele>
        <time>2020-07-10T11:10:02Z</time>
      </trkpt>
      <trkpt lat="47.79568" lon="-3.38589">
        <ele>11.23</ele>
        <time>2020-07-10T11:10:03Z</time>
      </trkpt>
      <trkpt lat="47.7957" lon="-3.38595">
        <ele>12</ele>
        <time>2020-07-10T11:10:04Z</time>
      </trkpt>
      <trkpt lat="47.79571" lon="-3.38601">
        <ele>13.29</ele>
        <time>2020-07-10T11:10:05Z</time>
      </trkpt>
      <trkpt lat="47.79573" lon="-3.38608">
        <ele>14.53</ele>
        <time>2020-07-10T11:10:06Z</time>
      </trkpt>
      <trkpt lat="47.79574" lon="-3.38615">
        <ele>15.21</ele>
        <time>2020-07-10T11:10:07Z</time>
      </trkpt>
      <trkpt lat="47.79577" lon="-3.38622">
        <ele>15.4</ele>
        <time>2020-07-10T11:10:08Z</time>
      </trkpt>
      <trkpt lat="47.79579" lon="-3.38628">
        <ele>15.21</ele>
        <time>2020-07-10T11:10:09Z</time>
      </trkpt>
      <trkpt lat="47.79583" lon="-3.38635">
        <ele>14.67</ele>
        <time>2020-07-10T11:10:10Z</time>
      </trkpt>
      <trkpt lat="47.79586" lon="-3.3864">
        <ele>14.22</ele>
        <time>2020-07-10T11:10:11Z</time>
      </trkpt>
      <trkpt lat="47.7959" lon="-3.38645">
        <ele>13.28</ele>
        <time>2020-07-10T11:10:12Z</time>
      </trkpt>
      <trkpt lat="47.79595" lon="-3.3865">
        <ele>12.04</ele>
        <time>2020-07-10T11:10:13Z</time>
      </trkpt>
      <trkpt lat="47.796" lon="-3.38654">
        <ele>10.73</ele>
        <time>2020-07-10T11:10:14Z</time>
      </trkpt>
      <trkpt lat="47.79604" lon="-3.38659">
        <ele>9.46</ele>
        <time>2020-07-10T11:10:15Z</time>
      </trkpt>
      <trkpt lat="47.79608" lon="-3.38664">
        <ele>8.26</ele>
        <time>2020-07-10T11:10:16Z</time>
      </trkpt>
      <trkpt lat="47.79613" lon="-3.3867">
        <ele>7.93</ele>
        <time>2020-07-10T11:10:17Z</time>
      </trkpt>
      <trkpt lat="47.79616" lon="-3.38676">
        <ele>8.52</ele>
        <time>2020-07-10T11:10:18Z</time>
      </trkpt>
      <trkpt lat="47.79617" lon="-3.38682">
        <ele>9.53</ele>
        <time>2020-07-10T11:10:19Z</time>
      </trkpt>
      <trkpt lat="47.79618" lon="-3.38687">
        <ele>10.88</ele>
        <time>2020-07-10T11:10:20Z</time>
      </trkpt>
      <trkpt lat="47.7962" lon="-3.38693">
        <ele>12.38</ele>
        <time>2020-07-10T11:10:21Z</time>
      </trkpt>
      <trkpt lat="47.79619" lon="-3.387">
        <ele>14.9</ele>
        <time>2020-07-10T11:10:22Z</time>
      </trkpt>
      <trkpt lat="47.79621" lon="-3.38705">
        <ele>16.86</ele>
        <time>2020-07-10T11:10:23Z</time>
      </trkpt>
      <trkpt lat="47.79624" lon="-3.38712">
        <ele>18.55</ele>
        <time>2020-07-10T11:10:24Z</time>
      </trkpt>
      <trkpt lat="47.79627" lon="-3.38718">
        <ele>20.27</ele>
        <time>2020-07-10T11:10:25Z</time>
      </trkpt>
      <trkpt lat="47.79629" lon="-3.38727">
        <ele>21.97</ele>
        <time>2020-07-10T11:10:26Z</time>
      </trkpt>
      <trkpt lat="47.7963" lon="-3.38734">
        <ele>23.08</ele>
        <time>2020-07-10T11:10:27Z</time>
      </trkpt>
      <trkpt lat="47.79632" lon="-3.38741">
        <ele>24.06</ele>
        <time>2020-07-10T11:10:28Z</time>
      </trkpt>
      <trkpt lat="47.79634" lon="-3.38748">
        <ele>25.04</ele>
        <time>2020-07-10T11:10:29Z</time>
      </trkpt>
      <trkpt lat="47.79635" lon="-3.38755">
        <ele>25.95</ele>
        <time>2020-07-10T11:10:30Z</time>
      </trkpt>
      <trkpt lat="47.79637" lon="-3.3876">
        <ele>26.53</ele>
        <time>2020-07-10T11:10:31Z</time>
      </trkpt>
      <trkpt lat="47.79639" lon="-3.38765">
        <ele>27</ele>
        <time>2020-07-10T11:10:32Z</time>
      </trkpt>
      <trkpt lat="47.79642" lon="-3.3877">
        <ele>26.5</ele>
        <time>2020-07-10T11:10:33Z</time>
      </trkpt>
      <trkpt lat="47.79644" lon="-3.38775">
        <ele>26.02</ele>
        <time>2020-07-10T11:10:34Z</time>
      </trkpt>
      <trkpt lat="47.79647" lon="-3.38779">
        <ele>25.38</ele>
        <time>2020-07-10T11:10:35Z</time>
      </trkpt>
      <trkpt lat="47.79649" lon="-3.38784">
        <ele>25.02</ele>
        <time>2020-07-10T11:10:36Z</time>
      </trkpt>
      <trkpt lat="47.79652" lon="-3.38789">
        <ele>24.69</ele>
        <time>2020-07-10T11:10:37Z</time>
      </trkpt>
      <trkpt lat="47.79655" lon="-3.38794">
        <ele>24.52</ele>
        <time>2020-07-10T11:10:38Z</time>
      </trkpt>
      <trkpt lat="47.79658" lon="-3.38799">
        <ele>24.59</ele>
        <time>2020-07-10T11:10:39Z</time>
      </trkpt>
      <trkpt lat="47.79662" lon="-3.38805">
        <ele>24.89</ele>
        <time>2020-07-10T11:10:40Z</time>
      </trkpt>
      <trkpt lat="47.79666" lon="-3.38811">
        <ele>25.31</ele>
        <time>2020-07-10T11:10:41Z</time>
      </trkpt>
      <trkpt lat="47.79668" lon="-3.38817">
        <ele>25.75</ele>
        <time>2020-07-10T11:10:42Z</time>
      </trkpt>
      <trkpt lat="47.79671" lon="-3.38822">
        <ele>26.02</ele>
        <time>2020-07-10T11:10:43Z</time>
      </trkpt>
      <trkpt lat="47.79673" lon="-3.38828">
        <ele>26.41</ele>
        <time>2020-07-10T11:10:44Z</time>
      </trkpt>
      <trkpt lat="47.79675" lon="-3.38834">
        <ele>27</ele>
        <time>2020-07-10T11:10:45Z</time>
      </trkpt>
      <trkpt lat="47.79678" lon="-3.38841">
        <ele>26.94</ele>
        <time>2020-07-10T11:10:46Z</time>
      </trkpt>
      <trkpt lat="47.79681" lon="-3.38847">
        <ele>26.84</ele>
        <time>2020-07-10T11:10:47Z</time>
      </trkpt>
      <trkpt lat="47.79684" lon="-3.38852">
        <ele>26.68</ele>
        <time>2020-07-10T11:10:48Z</time>
      </trkpt>
      <trkpt lat="47.79687" lon="-3.38856">
        <ele>26.64</ele>
        <time>2020-07-10T11:10:49Z</time>
      </trkpt>
      <trkpt lat="47.79689" lon="-3.38861">
        <ele>26.87</ele>
        <time>2020-07-10T11:10:50Z</time>
      </trkpt>
      <trkpt lat="47.79692" lon="-3.38866">
        <ele>26.9</ele>
        <time>2020-07-10T11:10:51Z</time>
      </trkpt>
      <trkpt lat="47.79696" lon="-3.38869">
        <ele>26.36</ele>
        <time>2020-07-10T11:10:52Z</time>
      </trkpt>
      <trkpt lat="47.79702" lon="-3.38874">
        <ele>24.44</ele>
        <time>2020-07-10T11:10:53Z</time>
      </trkpt>
      <trkpt lat="47.79708" lon="-3.38879">
        <ele>22.34</ele>
        <time>2020-07-10T11:10:54Z</time>
      </trkpt>
      <trkpt lat="47.79713" lon="-3.38882">
        <ele>20.78</ele>
        <time>2020-07-10T11:10:55Z</time>
      </trkpt>
      <trkpt lat="47.79718" lon="-3.38886">
        <ele>19.45</ele>
        <time>2020-07-10T11:10:56Z</time>
      </trkpt>
      <trkpt lat="47.79723" lon="-3.3889">
        <ele>18.24</ele>
        <time>2020-07-10T11:10:57Z</time>
      </trkpt>
      <trkpt lat="47.79729" lon="-3.38894">
        <ele>17.02</ele>
        <time>2020-07-10T11:10:58Z</time>
      </trkpt>
      <trkpt lat="47.79733" lon="-3.38898">
        <ele>15.86</ele>
        <time>2020-07-10T11:10:59Z</time>
      </trkpt>
      <trkpt lat="47.79738" lon="-3.38901">
        <ele>14.77</ele>
        <time>2020-07-10T11:11:00Z</time>
      </trkpt>
      <trkpt lat="47.79742" lon="-3.38905">
        <ele>13.91</ele>
        <time>2020-07-10T11:11:01Z</time>
      </trkpt>
      <trkpt lat="47.79745" lon="-3.38909">
        <ele>13.44</ele>
        <time>2020-07-10T11:11:02Z</time>
      </trkpt>
      <trkpt lat="47.79748" lon="-3.38913">
        <ele>13.41</ele>
        <time>2020-07-10T11:11:03Z</time>
      </trkpt>
      <trkpt lat="47.79751" lon="-3.38917">
        <ele>13.65</ele>
        <time>2020-07-10T11:11:04Z</time>
      </trkpt>
      <trkpt lat="47.79754" lon="-3.38921">
        <ele>13.85</ele>
        <time>2020-07-10T11:11:05Z</time>
      </trkpt>
      <trkpt lat="47.79759" lon="-3.38926">
        <ele>14.12</ele>
        <time>2020-07-10T11:11:06Z</time>
      </trkpt>
      <trkpt lat="47.79764" lon="-3.38931">
        <ele>14.31</ele>
        <time>2020-07-10T11:11:07Z</time>
      </trkpt>
      <trkpt lat="47.79769" lon="-3.38935">
        <ele>14.17</ele>
        <time>2020-07-10T11:11:08Z</time>
      </trkpt>
      <trkpt lat="47.79774" lon="-3.38937">
        <ele>13.76</ele>
        <time>2020-07-10T11:11:09Z</time>
      </trkpt>
      <trkpt lat="47.7978" lon="-3.38939">
        <ele>13.24</ele>
        <time>2020-07-10T11:11:10Z</time>
      </trkpt>
      <trkpt lat="47.79785" lon="-3.38942">
        <ele>12.75</ele>
        <time>2020-07-10T11:11:11Z</time>
      </trkpt>
      <trkpt lat="47.7979" lon="-3.38945">
        <ele>12.61</ele>
        <time>2020-07-10T11:11:12Z</time>
      </trkpt>
      <trkpt lat="47.79795" lon="-3.38948">
        <ele>12.45</ele>
        <time>2020-07-10T11:11:13Z</time>
      </trkpt>
      <trkpt lat="47.798" lon="-3.38951">
        <ele>12.57</ele>
        <time>2020-07-10T11:11:14Z</time>
      </trkpt>
      <trkpt lat="47.79805" lon="-3.38955">
        <ele>12.78</ele>
        <time>2020-07-10T11:11:15Z</time>
      </trkpt>
      <trkpt lat="47.79811" lon="-3.38958">
        <ele>12.82</ele>
        <time>2020-07-10T11:11:16Z</time>
      </trkpt>
      <trkpt lat="47.79816" lon="-3.38961">
        <ele>12.79</ele>
        <time>2020-07-10T11:11:17Z</time>
      </trkpt>
      <trkpt lat="47.79821" lon="-3.38963">
        <ele>12.66</ele>
        <time>2020-07-10T11:11:18Z</time>
      </trkpt>
      <trkpt lat="47.79826" lon="-3.38966">
        <ele>12.51</ele>
        <time>2020-07-10T11:11:19Z</time>
      </trkpt>
      <trkpt lat="47.79832" lon="-3.38968">
        <ele>12.25</ele>
        <time>2020-07-10T11:11:20Z</time>
      </trkpt>
      <trkpt lat="47.79837" lon="-3.38971">
        <ele>11.85</ele>
        <time>2020-07-10T11:11:21Z</time>
      </trkpt>
      <trkpt lat="47.79841" lon="-3.38973">
        <ele>11.49</ele>
        <time>2020-07-10T11:11:22Z</time>
      </trkpt>
      <trkpt lat="47.79846" lon="-3.38975">
        <ele>11.1</ele>
        <time>2020-07-10T11:11:23Z</time>
      </trkpt>
      <trkpt lat="47.79851" lon="-3.38981">
        <ele>11.32</ele>
        <time>2020-07-10T11:11:24Z</time>
      </trkpt>
      <trkpt lat="47.79856" lon="-3.38984">
        <ele>11.2</ele>
        <time>2020-07-10T11:11:25Z</time>
      </trkpt>
      <trkpt lat="47.7986" lon="-3.38986">
        <ele>10.87</ele>
        <time>2020-07-10T11:11:26Z</time>
      </trkpt>
      <trkpt lat="47.79865" lon="-3.38988">
        <ele>10.48</ele>
        <time>2020-07-10T11:11:27Z</time>
      </trkpt>
      <trkpt lat="47.79869" lon="-3.38991">
        <ele>10.4</ele>
        <time>2020-07-10T11:11:28Z</time>
      </trkpt>
      <trkpt lat="47.79873" lon="-3.38994">
        <ele>10.13</ele>
        <time>2020-07-10T11:11:29Z</time>
      </trkpt>
      <trkpt lat="47.79878" lon="-3.38997">
        <ele>9.76</ele>
        <time>2020-07-10T11:11:30Z</time>
      </trkpt>
      <trkpt lat="47.79882" lon="-3.39001">
        <ele>9.32</ele>
        <time>2020-07-10T11:11:31Z</time>
      </trkpt>
      <trkpt lat="47.79886" lon="-3.39004">
        <ele>9.12</ele>
        <time>2020-07-10T11:11:32Z</time>
      </trkpt>
      <trkpt lat="47.7989" lon="-3.39009">
        <ele>9.32</ele>
        <time>2020-07-10T11:11:33Z</time>
      </trkpt>
      <trkpt lat="47.79894" lon="-3.39013">
        <ele>9.94</ele>
        <time>2020-07-10T11:11:34Z</time>
      </trkpt>
      <trkpt lat="47.79897" lon="-3.39017">
        <ele>10.64</ele>
        <time>2020-07-10T11:11:35Z</time>
      </trkpt>
      <trkpt lat="47.799" lon="-3.39021">
        <ele>11.38</ele>
        <time>2020-07-10T11:11:36Z</time>
      </trkpt>
      <trkpt lat="47.79903" lon="-3.39025">
        <ele>12.03</ele>
        <time>2020-07-10T11:11:37Z</time>
      </trkpt>
      <trkpt lat="47.79905" lon="-3.39028">
        <ele>12.47</ele>
        <time>2020-07-10T11:11:38Z</time>
      </trkpt>
      <trkpt lat="47.79908" lon="-3.3903">
        <ele>12.52</ele>
        <time>2020-07-10T11:11:39Z</time>
      </trkpt>
      <trkpt lat="47.7991" lon="-3.39029">
        <ele>12.29</ele>
        <time>2020-07-10T11:11:40Z</time>
      </trkpt>
      <trkpt lat="47.79912" lon="-3.39029">
        <ele>11.96</ele>
        <time>2020-07-10T11:11:41Z</time>
      </trkpt>
      <trkpt lat="47.79914" lon="-3.39025">
        <ele>11.26</ele>
        <time>2020-07-10T11:11:42Z</time>
      </trkpt>
      <trkpt lat="47.79915" lon="-3.39023">
        <ele>10.53</ele>
        <time>2020-07-10T11:11:43Z</time>
      </trkpt>
      <trkpt lat="47.79919" lon="-3.3902">
        <ele>9.87</ele>
        <time>2020-07-10T11:11:44Z</time>
      </trkpt>
      <trkpt lat="47.79921" lon="-3.39017">
        <ele>9.34</ele>
        <time>2020-07-10T11:11:45Z</time>
      </trkpt>
      <trkpt lat="47.79923" lon="-3.39014">
        <ele>8.81</ele>
        <time>2020-07-10T11:11:46Z</time>
      </trkpt>
      <trkpt lat="47.79926" lon="-3.3901">
        <ele>8.35</ele>
        <time>2020-07-10T11:11:47Z</time>
      </trkpt>
      <trkpt lat="47.79929" lon="-3.39008">
        <ele>8.06</ele>
        <time>2020-07-10T11:11:48Z</time>
      </trkpt>
      <trkpt lat="47.79933" lon="-3.39006">
        <ele>7.92</ele>
        <time>2020-07-10T11:11:49Z</time>
      </trkpt>
      <trkpt lat="47.79939" lon="-3.39005">
        <ele>8.03</ele>
        <time>2020-07-10T11:11:50Z</time>
      </trkpt>
      <trkpt lat="47.79945" lon="-3.39005">
        <ele>8.3</ele>
        <time>2020-07-10T11:11:51Z</time>
      </trkpt>
      <trkpt lat="47.79951" lon="-3.39004">
        <ele>8.9</ele>
        <time>2020-07-10T11:11:52Z</time>
      </trkpt>
      <trkpt lat="47.79956" lon="-3.39003">
        <ele>9.5</ele>
        <time>2020-07-10T11:11:53Z</time>
      </trkpt>
      <trkpt lat="47.79961" lon="-3.39001">
        <ele>10.12</ele>
        <time>2020-07-10T11:11:54Z</time>
      </trkpt>
      <trkpt lat="47.79965" lon="-3.38997">
        <ele>10.5</ele>
        <time>2020-07-10T11:11:55Z</time>
      </trkpt>
      <trkpt lat="47.79969" lon="-3.38994">
        <ele>10.78</ele>
        <time>2020-07-10T11:11:56Z</time>
      </trkpt>
      <trkpt lat="47.79972" lon="-3.38991">
        <ele>10.97</ele>
        <time>2020-07-10T11:11:57Z</time>
      </trkpt>
      <trkpt lat="47.79975" lon="-3.38988">
        <ele>10.9</ele>
        <time>2020-07-10T11:11:58Z</time>
      </trkpt>
      <trkpt lat="47.79978" lon="-3.38987">
        <ele>10.79</ele>
        <time>2020-07-10T11:11:59Z</time>
      </trkpt>
      <trkpt lat="47.79979" lon="-3.38985">
        <ele>10.71</ele>
        <time>2020-07-10T11:12:00Z</time>
      </trkpt>
      <trkpt lat="47.79979" lon="-3.38985">
        <ele>10.68</ele>
        <time>2020-07-10T11:12:01Z</time>
      </trkpt>
      <trkpt lat="47.7998" lon="-3.38985">
        <ele>10.65</ele>
        <time>2020-07-10T11:12:02Z</time>
      </trkpt>
      <trkpt lat="47.7998" lon="-3.38985">
        <ele>10.64</ele>
        <time>2020-07-10T11:12:03Z</time>
      </trkpt>
      <trkpt lat="47.7998" lon="-3.38985">
        <ele>10.64</ele>
        <time>2020-07-10T11:12:04Z</time>
      </trkpt>
      <trkpt lat="47.79985" lon="-3.38978">
        <ele>10.25</ele>
        <time>2020-07-10T11:12:05Z</time>
      </trkpt>
      <trkpt lat="47.79987" lon="-3.38976">
        <ele>10</ele>
        <time>2020-07-10T11:12:06Z</time>
      </trkpt>
      <trkpt lat="47.79989" lon="-3.38973">
        <ele>9.78</ele>
        <time>2020-07-10T11:12:07Z</time>
      </trkpt>
      <trkpt lat="47.79991" lon="-3.38971">
        <ele>9.63</ele>
        <time>2020-07-10T11:12:08Z</time>
      </trkpt>
      <trkpt lat="47.79994" lon="-3.3897">
        <ele>9.43</ele>
        <time>2020-07-10T11:12:09Z</time>
      </trkpt>
      <trkpt lat="47.79996" lon="-3.38969">
        <ele>9.28</ele>
        <time>2020-07-10T11:12:10Z</time>
      </trkpt>
      <trkpt lat="47.79998" lon="-3.38968">
        <ele>9.19</ele>
        <time>2020-07-10T11:12:11Z</time>
      </trkpt>
      <trkpt lat="47.8" lon="-3.38966">
        <ele>9.01</ele>
        <time>2020-07-10T11:12:12Z</time>
      </trkpt>
      <trkpt lat="47.80002" lon="-3.38965">
        <ele>8.61</ele>
        <time>2020-07-10T11:12:13Z</time>
      </trkpt>
      <trkpt lat="47.80005" lon="-3.38963">
        <ele>8.08</ele>
        <time>2020-07-10T11:12:14Z</time>
      </trkpt>
      <trkpt lat="47.80008" lon="-3.38961">
        <ele>7.38</ele>
        <time>2020-07-10T11:12:15Z</time>
      </trkpt>
      <trkpt lat="47.80012" lon="-3.38958">
        <ele>6.67</ele>
        <time>2020-07-10T11:12:16Z</time>
      </trkpt>
      <trkpt lat="47.80015" lon="-3.38953">
        <ele>5.84</ele>
        <time>2020-07-10T11:12:17Z</time>
      </trkpt>
      <trkpt lat="47.80018" lon="-3.38949">
        <ele>5.13</ele>
        <time>2020-07-10T11:12:18Z</time>
      </trkpt>
      <trkpt lat="47.80021" lon="-3.38946">
        <ele>4.62</ele>
        <time>2020-07-10T11:12:19Z</time>
      </trkpt>
      <trkpt lat="47.80025" lon="-3.38943">
        <ele>4.21</ele>
        <time>2020-07-10T11:12:20Z</time>
      </trkpt>
      <trkpt lat="47.80029" lon="-3.38939">
        <ele>3.94</ele>
        <time>2020-07-10T11:12:21Z</time>
      </trkpt>
      <trkpt lat="47.80033" lon="-3.38938">
        <ele>3.81</ele>
        <time>2020-07-10T11:12:22Z</time>
      </trkpt>
      <trkpt lat="47.80038" lon="-3.38938">
        <ele>3.79</ele>
        <time>2020-07-10T11:12:23Z</time>
      </trkpt>
      <trkpt lat="47.80043" lon="-3.38941">
        <ele>3.86</ele>
        <time>2020-07-10T11:12:24Z</time>
      </trkpt>
      <trkpt lat="47.80046" lon="-3.38947">
        <ele>4.04</ele>
        <time>2020-07-10T11:12:25Z</time>
      </trkpt>
      <trkpt lat="47.80048" lon="-3.38953">
        <ele>4.3</ele>
        <time>2020-07-10T11:12:26Z</time>
      </trkpt>
      <trkpt lat="47.8005" lon="-3.3896">
        <ele>4.55</ele>
        <time>2020-07-10T11:12:27Z</time>
      </trkpt>
      <trkpt lat="47.80053" lon="-3.38965">
        <ele>4.74</ele>
        <time>2020-07-10T11:12:28Z</time>
      </trkpt>
      <trkpt lat="47.80057" lon="-3.38969">
        <ele>4.83</ele>
        <time>2020-07-10T11:12:29Z</time>
      </trkpt>
      <trkpt lat="47.80061" lon="-3.38971">
        <ele>4.93</ele>
        <time>2020-07-10T11:12:30Z</time>
      </trkpt>
      <trkpt lat="47.80065" lon="-3.38974">
        <ele>5.04</ele>
        <time>2020-07-10T11:12:31Z</time>
      </trkpt>
      <trkpt lat="47.80068" lon="-3.38977">
        <ele>5.13</ele>
        <time>2020-07-10T11:12:32Z</time>
      </trkpt>
      <trkpt lat="47.80071" lon="-3.38978">
        <ele>5.2</ele>
        <time>2020-07-10T11:12:33Z</time>
      </trkpt>
      <trkpt lat="47.80075" lon="-3.38978">
        <ele>5.22</ele>
        <time>2020-07-10T11:12:34Z</time>
      </trkpt>
      <trkpt lat="47.80079" lon="-3.38978">
        <ele>5.2</ele>
        <time>2020-07-10T11:12:35Z</time>
      </trkpt>
      <trkpt lat="47.80083" lon="-3.38976">
        <ele>5.16</ele>
        <time>2020-07-10T11:12:36Z</time>
      </trkpt>
      <trkpt lat="47.80087" lon="-3.38975">
        <ele>5.11</ele>
        <time>2020-07-10T11:12:37Z</time>
      </trkpt>
      <trkpt lat="47.80092" lon="-3.38973">
        <ele>5.06</ele>
        <time>2020-07-10T11:12:38Z</time>
      </trkpt>
      <trkpt lat="47.80096" lon="-3.38971">
        <ele>4.99</ele>
        <time>2020-07-10T11:12:39Z</time>
      </trkpt>
      <trkpt lat="47.80099" lon="-3.3897">
        <ele>4.94</ele>
        <time>2020-07-10T11:12:40Z</time>
      </trkpt>
      <trkpt lat="47.80103" lon="-3.38968">
        <ele>4.88</ele>
        <time>2020-07-10T11:12:41Z</time>
      </trkpt>
      <trkpt lat="47.80107" lon="-3.38966">
        <ele>4.8</ele>
        <time>2020-07-10T11:12:42Z</time>
      </trkpt>
      <trkpt lat="47.80111" lon="-3.38964">
        <ele>4.73</ele>
        <time>2020-07-10T11:12:43Z</time>
      </trkpt>
      <trkpt lat="47.80114" lon="-3.38962">
        <ele>4.79</ele>
        <time>2020-07-10T11:12:44Z</time>
      </trkpt>
      <trkpt lat="47.80118" lon="-3.3896">
        <ele>4.9</ele>
        <time>2020-07-10T11:12:45Z</time>
      </trkpt>
      <trkpt lat="47.80121" lon="-3.38958">
        <ele>5.01</ele>
        <time>2020-07-10T11:12:46Z</time>
      </trkpt>
      <trkpt lat="47.80125" lon="-3.38957">
        <ele>5.12</ele>
        <time>2020-07-10T11:12:47Z</time>
      </trkpt>
      <trkpt lat="47.80129" lon="-3.38955">
        <ele>5.23</ele>
        <time>2020-07-10T11:12:48Z</time>
      </trkpt>
      <trkpt lat="47.80133" lon="-3.38954">
        <ele>5.33</ele>
        <time>2020-07-10T11:12:49Z</time>
      </trkpt>
      <trkpt lat="47.80136" lon="-3.38952">
        <ele>5.4</ele>
        <time>2020-07-10T11:12:50Z</time>
      </trkpt>
      <trkpt lat="47.80138" lon="-3.38951">
        <ele>5.42</ele>
        <time>2020-07-10T11:12:51Z</time>
      </trkpt>
      <trkpt lat="47.80141" lon="-3.38949">
        <ele>5.43</ele>
        <time>2020-07-10T11:12:52Z</time>
      </trkpt>
      <trkpt lat="47.80144" lon="-3.38948">
        <ele>5.42</ele>
        <time>2020-07-10T11:12:53Z</time>
      </trkpt>
      <trkpt lat="47.80147" lon="-3.38945">
        <ele>5.38</ele>
        <time>2020-07-10T11:12:54Z</time>
      </trkpt>
      <trkpt lat="47.8015" lon="-3.38942">
        <ele>5.32</ele>
        <time>2020-07-10T11:12:55Z</time>
      </trkpt>
      <trkpt lat="47.80153" lon="-3.38938">
        <ele>5.19</ele>
        <time>2020-07-10T11:12:56Z</time>
      </trkpt>
      <trkpt lat="47.80155" lon="-3.38932">
        <ele>4.97</ele>
        <time>2020-07-10T11:12:57Z</time>
      </trkpt>
      <trkpt lat="47.80158" lon="-3.38925">
        <ele>4.67</ele>
        <time>2020-07-10T11:12:58Z</time>
      </trkpt>
      <trkpt lat="47.80162" lon="-3.38919">
        <ele>4.32</ele>
        <time>2020-07-10T11:12:59Z</time>
      </trkpt>
      <trkpt lat="47.80165" lon="-3.38913">
        <ele>4</ele>
        <time>2020-07-10T11:13:00Z</time>
      </trkpt>
      <trkpt lat="47.80169" lon="-3.38906">
        <ele>3.82</ele>
        <time>2020-07-10T11:13:01Z</time>
      </trkpt>
      <trkpt lat="47.80173" lon="-3.389">
        <ele>3.77</ele>
        <time>2020-07-10T11:13:02Z</time>
      </trkpt>
      <trkpt lat="47.80176" lon="-3.38893">
        <ele>3.8</ele>
        <time>2020-07-10T11:13:03Z</time>
      </trkpt>
      <trkpt lat="47.8018" lon="-3.38888">
        <ele>3.91</ele>
        <time>2020-07-10T11:13:04Z</time>
      </trkpt>
      <trkpt lat="47.80183" lon="-3.38883">
        <ele>4.11</ele>
        <time>2020-07-10T11:13:05Z</time>
      </trkpt>
      <trkpt lat="47.80186" lon="-3.3888">
        <ele>4.3</ele>
        <time>2020-07-10T11:13:06Z</time>
      </trkpt>
      <trkpt lat="47.80188" lon="-3.38877">
        <ele>4.45</ele>
        <time>2020-07-10T11:13:07Z</time>
      </trkpt>
      <trkpt lat="47.80189" lon="-3.38876">
        <ele>4.54</ele>
        <time>2020-07-10T11:13:08Z</time>
      </trkpt>
      <trkpt lat="47.80189" lon="-3.38876">
        <ele>4.59</ele>
        <time>2020-07-10T11:13:09Z</time>
      </trkpt>
      <trkpt lat="47.80189" lon="-3.38876">
        <ele>4.61</ele>
        <time>2020-07-10T11:13:10Z</time>
      </trkpt>
      <trkpt lat="47.80189" lon="-3.38876">
        <ele>4.61</ele>
        <time>2020-07-10T11:13:11Z</time>
      </trkpt>
      <trkpt lat="47.80189" lon="-3.38876">
        <ele>4.61</ele>
        <time>2020-07-10T11:13:12Z</time>
      </trkpt>
      <trkpt lat="47.80189" lon="-3.38876">
        <ele>4.61</ele>
        <time>2020-07-10T11:13:13Z</time>
      </trkpt>
      <trkpt lat="47.80189" lon="-3.38876">
        <ele>4.61</ele>
        <time>2020-07-10T11:13:14Z</time>
      </trkpt>
      <trkpt lat="47.80189" lon="-3.38876">
        <ele>4.61</ele>
        <time>2020-07-10T11:13:15Z</time>
      </trkpt>
      <trkpt lat="47.80189" lon="-3.38876">
        <ele>4.61</ele>
        <time>2020-07-10T11:13:16Z</time>
      </trkpt>
      <trkpt lat="47.80189" lon="-3.38876">
        <ele>4.61</ele>
        <time>2020-07-10T11:13:17Z</time>
      </trkpt>
      <trkpt lat="47.80189" lon="-3.38876">
        <ele>4.61</ele>
        <time>2020-07-10T11:13:18Z</time>
      </trkpt>
      <trkpt lat="47.80189" lon="-3.38876">
        <ele>4.61</ele>
        <time>2020-07-10T11:13:19Z</time>
      </trkpt>
      <trkpt lat="47.80189" lon="-3.38876">
        <ele>4.61</ele>
        <time>2020-07-10T11:13:20Z</time>
      </trkpt>
      <trkpt lat="47.80189" lon="-3.38876">
        <ele>4.61</ele>
        <time>2020-07-10T11:13:21Z</time>
      </trkpt>
      <trkpt lat="47.80189" lon="-3.38876">
        <ele>4.61</ele>
        <time>2020-07-10T11:13:22Z</time>
      </trkpt>
      <trkpt lat="47.80189" lon="-3.38876">
        <ele>4.61</ele>
        <time>2020-07-10T11:13:23Z</time>
      </trkpt>
      <trkpt lat="47.80189" lon="-3.38876">
        <ele>4.61</ele>
        <time>2020-07-10T11:13:24Z</time>
      </trkpt>
      <trkpt lat="47.80199" lon="-3.38878">
        <ele>5.37</ele>
        <time>2020-07-10T11:13:25Z</time>
      </trkpt>
      <trkpt lat="47.802" lon="-3.38878">
        <ele>5.76</ele>
        <time>2020-07-10T11:13:26Z</time>
      </trkpt>
      <trkpt lat="47.802" lon="-3.38879">
        <ele>5.89</ele>
        <time>2020-07-10T11:13:27Z</time>
      </trkpt>
      <trkpt lat="47.802" lon="-3.38878">
        <ele>5.93</ele>
        <time>2020-07-10T11:13:28Z</time>
      </trkpt>
      <trkpt lat="47.802" lon="-3.38878">
        <ele>5.94</ele>
        <time>2020-07-10T11:13:29Z</time>
      </trkpt>
      <trkpt lat="47.802" lon="-3.38878">
        <ele>5.95</ele>
        <time>2020-07-10T11:13:30Z</time>
      </trkpt>
      <trkpt lat="47.802" lon="-3.38878">
        <ele>5.95</ele>
        <time>2020-07-10T11:13:31Z</time>
      </trkpt>
      <trkpt lat="47.802" lon="-3.38878">
        <ele>5.95</ele>
        <time>2020-07-10T11:13:32Z</time>
      </trkpt>
      <trkpt lat="47.802" lon="-3.38878">
        <ele>5.95</ele>
        <time>2020-07-10T11:13:33Z</time>
      </trkpt>
      <trkpt lat="47.802" lon="-3.38878">
        <ele>5.95</ele>
        <time>2020-07-10T11:13:34Z</time>
      </trkpt>
      <trkpt lat="47.802" lon="-3.38878">
        <ele>5.95</ele>
        <time>2020-07-10T11:13:35Z</time>
      </trkpt>
      <trkpt lat="47.802" lon="-3.38878">
        <ele>5.95</ele>
        <time>2020-07-10T11:13:36Z</time>
      </trkpt>
      <trkpt lat="47.802" lon="-3.38878">
        <ele>5.95</ele>
        <time>2020-07-10T11:13:37Z</time>
      </trkpt>
      <trkpt lat="47.802" lon="-3.38878">
        <ele>5.95</ele>
        <time>2020-07-10T11:13:38Z</time>
      </trkpt>
      <trkpt lat="47.802" lon="-3.38878">
        <ele>5.95</ele>
        <time>2020-07-10T11:13:39Z</time>
      </trkpt>
      <trkpt lat="47.8021" lon="-3.38874">
        <ele>7.02</ele>
        <time>2020-07-10T11:13:40Z</time>
      </trkpt>
      <trkpt lat="47.80212" lon="-3.38873">
        <ele>7.53</ele>
        <time>2020-07-10T11:13:41Z</time>
      </trkpt>
      <trkpt lat="47.80213" lon="-3.38872">
        <ele>7.86</ele>
        <time>2020-07-10T11:13:42Z</time>
      </trkpt>
      <trkpt lat="47.80215" lon="-3.38872">
        <ele>8.1</ele>
        <time>2020-07-10T11:13:43Z</time>
      </trkpt>
      <trkpt lat="47.80216" lon="-3.38873">
        <ele>8.38</ele>
        <time>2020-07-10T11:13:44Z</time>
      </trkpt>
      <trkpt lat="47.80218" lon="-3.38875">
        <ele>8.7</ele>
        <time>2020-07-10T11:13:45Z</time>
      </trkpt>
      <trkpt lat="47.8022" lon="-3.38876">
        <ele>8.98</ele>
        <time>2020-07-10T11:13:46Z</time>
      </trkpt>
      <trkpt lat="47.80221" lon="-3.38878">
        <ele>9.28</ele>
        <time>2020-07-10T11:13:47Z</time>
      </trkpt>
      <trkpt lat="47.80222" lon="-3.38879">
        <ele>9.58</ele>
        <time>2020-07-10T11:13:48Z</time>
      </trkpt>
      <trkpt lat="47.80223" lon="-3.38881">
        <ele>9.8</ele>
        <time>2020-07-10T11:13:49Z</time>
      </trkpt>
      <trkpt lat="47.80225" lon="-3.38883">
        <ele>10.06</ele>
        <time>2020-07-10T11:13:50Z</time>
      </trkpt>
      <trkpt lat="47.80226" lon="-3.38884">
        <ele>10.37</ele>
        <time>2020-07-10T11:13:51Z</time>
      </trkpt>
      <trkpt lat="47.80228" lon="-3.38886">
        <ele>10.68</ele>
        <time>2020-07-10T11:13:52Z</time>
      </trkpt>
      <trkpt lat="47.80229" lon="-3.38888">
        <ele>11</ele>
        <time>2020-07-10T11:13:53Z</time>
      </trkpt>
      <trkpt lat="47.8023" lon="-3.38891">
        <ele>11.3</ele>
        <time>2020-07-10T11:13:54Z</time>
      </trkpt>
      <trkpt lat="47.80231" lon="-3.38893">
        <ele>11.6</ele>
        <time>2020-07-10T11:13:55Z</time>
      </trkpt>
      <trkpt lat="47.80232" lon="-3.38895">
        <ele>11.88</ele>
        <time>2020-07-10T11:13:56Z</time>
      </trkpt>
      <trkpt lat="47.80233" lon="-3.38897">
        <ele>12.13</ele>
        <time>2020-07-10T11:13:57Z</time>
      </trkpt>
      <trkpt lat="47.80234" lon="-3.38899">
        <ele>12.37</ele>
        <time>2020-07-10T11:13:58Z</time>
      </trkpt>
      <trkpt lat="47.80234" lon="-3.38902">
        <ele>12.55</ele>
        <time>2020-07-10T11:13:59Z</time>
      </trkpt>
      <trkpt lat="47.80234" lon="-3.38905">
        <ele>12.72</ele>
        <time>2020-07-10T11:14:00Z</time>
      </trkpt>
      <trkpt lat="47.80235" lon="-3.38908">
        <ele>12.91</ele>
        <time>2020-07-10T11:14:01Z</time>
      </trkpt>
      <trkpt lat="47.80235" lon="-3.3891">
        <ele>13.09</ele>
        <time>2020-07-10T11:14:02Z</time>
      </trkpt>
      <trkpt lat="47.80236" lon="-3.38913">
        <ele>13.29</ele>
        <time>2020-07-10T11:14:03Z</time>
      </trkpt>
      <trkpt lat="47.80237" lon="-3.38917">
        <ele>13.59</ele>
        <time>2020-07-10T11:14:04Z</time>
      </trkpt>
      <trkpt lat="47.80238" lon="-3.3892">
        <ele>13.81</ele>
        <time>2020-07-10T11:14:05Z</time>
      </trkpt>
      <trkpt lat="47.8024" lon="-3.38922">
        <ele>14.04</ele>
        <time>2020-07-10T11:14:06Z</time>
      </trkpt>
      <trkpt lat="47.80241" lon="-3.38925">
        <ele>14.3</ele>
        <time>2020-07-10T11:14:07Z</time>
      </trkpt>
      <trkpt lat="47.80243" lon="-3.38928">
        <ele>14.57</ele>
        <time>2020-07-10T11:14:08Z</time>
      </trkpt>
      <trkpt lat="47.80244" lon="-3.38932">
        <ele>14.77</ele>
        <time>2020-07-10T11:14:09Z</time>
      </trkpt>
      <trkpt lat="47.80245" lon="-3.38935">
        <ele>14.98</ele>
        <time>2020-07-10T11:14:10Z</time>
      </trkpt>
      <trkpt lat="47.80246" lon="-3.38938">
        <ele>15.19</ele>
        <time>2020-07-10T11:14:11Z</time>
      </trkpt>
      <trkpt lat="47.80247" lon="-3.38941">
        <ele>15.4</ele>
        <time>2020-07-10T11:14:12Z</time>
      </trkpt>
      <trkpt lat="47.80249" lon="-3.38944">
        <ele>15.69</ele>
        <time>2020-07-10T11:14:13Z</time>
      </trkpt>
      <trkpt lat="47.80251" lon="-3.38947">
        <ele>15.96</ele>
        <time>2020-07-10T11:14:14Z</time>
      </trkpt>
      <trkpt lat="47.80254" lon="-3.38949">
        <ele>16.21</ele>
        <time>2020-07-10T11:14:15Z</time>
      </trkpt>
      <trkpt lat="47.80256" lon="-3.38952">
        <ele>16.43</ele>
        <time>2020-07-10T11:14:16Z</time>
      </trkpt>
      <trkpt lat="47.80258" lon="-3.38954">
        <ele>16.62</ele>
        <time>2020-07-10T11:14:17Z</time>
      </trkpt>
      <trkpt lat="47.80259" lon="-3.38956">
        <ele>16.73</ele>
        <time>2020-07-10T11:14:18Z</time>
      </trkpt>
      <trkpt lat="47.8026" lon="-3.38958">
        <ele>16.85</ele>
        <time>2020-07-10T11:14:19Z</time>
      </trkpt>
      <trkpt lat="47.80261" lon="-3.3896">
        <ele>17.02</ele>
        <time>2020-07-10T11:14:20Z</time>
      </trkpt>
      <trkpt lat="47.80263" lon="-3.38962">
        <ele>17.24</ele>
        <time>2020-07-10T11:14:21Z</time>
      </trkpt>
      <trkpt lat="47.80265" lon="-3.38964">
        <ele>17.55</ele>
        <time>2020-07-10T11:14:22Z</time>
      </trkpt>
      <trkpt lat="47.80266" lon="-3.38966">
        <ele>17.8</ele>
        <time>2020-07-10T11:14:23Z</time>
      </trkpt>
      <trkpt lat="47.80268" lon="-3.38968">
        <ele>18.1</ele>
        <time>2020-07-10T11:14:24Z</time>
      </trkpt>
      <trkpt lat="47.8027" lon="-3.38969">
        <ele>18.37</ele>
        <time>2020-07-10T11:14:25Z</time>
      </trkpt>
      <trkpt lat="47.80272" lon="-3.3897">
        <ele>18.73</ele>
        <time>2020-07-10T11:14:26Z</time>
      </trkpt>
      <trkpt lat="47.80274" lon="-3.38971">
        <ele>19.17</ele>
        <time>2020-07-10T11:14:27Z</time>
      </trkpt>
      <trkpt lat="47.80277" lon="-3.38972">
        <ele>19.64</ele>
        <time>2020-07-10T11:14:28Z</time>
      </trkpt>
      <trkpt lat="47.8028" lon="-3.38972">
        <ele>19.97</ele>
        <time>2020-07-10T11:14:29Z</time>
      </trkpt>
      <trkpt lat="47.80281" lon="-3.38973">
        <ele>20.17</ele>
        <time>2020-07-10T11:14:30Z</time>
      </trkpt>
      <trkpt lat="47.80284" lon="-3.38974">
        <ele>20.35</ele>
        <time>2020-07-10T11:14:31Z</time>
      </trkpt>
      <trkpt lat="47.80287" lon="-3.38974">
        <ele>20.53</ele>
        <time>2020-07-10T11:14:32Z</time>
      </trkpt>
      <trkpt lat="47.80289" lon="-3.38975">
        <ele>20.7</ele>
        <time>2020-07-10T11:14:33Z</time>
      </trkpt>
      <trkpt lat="47.80292" lon="-3.38976">
        <ele>20.91</ele>
        <time>2020-07-10T11:14:34Z</time>
      </trkpt>
      <trkpt lat="47.80294" lon="-3.38976">
        <ele>21.09</ele>
        <time>2020-07-10T11:14:35Z</time>
      </trkpt>
      <trkpt lat="47.80295" lon="-3.38977">
        <ele>21.23</ele>
        <time>2020-07-10T11:14:36Z</time>
      </trkpt>
      <trkpt lat="47.80297" lon="-3.38977">
        <ele>21.39</ele>
        <time>2020-07-10T11:14:37Z</time>
      </trkpt>
      <trkpt lat="47.803" lon="-3.38977">
        <ele>21.61</ele>
        <time>2020-07-10T11:14:38Z</time>
      </trkpt>
      <trkpt lat="47.80302" lon="-3.38979">
        <ele>21.8</ele>
        <time>2020-07-10T11:14:39Z</time>
      </trkpt>
      <trkpt lat="47.80305" lon="-3.38981">
        <ele>22.09</ele>
        <time>2020-07-10T11:14:40Z</time>
      </trkpt>
      <trkpt lat="47.80307" lon="-3.38983">
        <ele>22.27</ele>
        <time>2020-07-10T11:14:41Z</time>
      </trkpt>
      <trkpt lat="47.8031" lon="-3.38985">
        <ele>22.34</ele>
        <time>2020-07-10T11:14:42Z</time>
      </trkpt>
      <trkpt lat="47.80312" lon="-3.38988">
        <ele>22.42</ele>
        <time>2020-07-10T11:14:43Z</time>
      </trkpt>
      <trkpt lat="47.80314" lon="-3.3899">
        <ele>22.51</ele>
        <time>2020-07-10T11:14:44Z</time>
      </trkpt>
      <trkpt lat="47.80315" lon="-3.38994">
        <ele>22.65</ele>
        <time>2020-07-10T11:14:45Z</time>
      </trkpt>
      <trkpt lat="47.80316" lon="-3.38997">
        <ele>22.78</ele>
        <time>2020-07-10T11:14:46Z</time>
      </trkpt>
      <trkpt lat="47.80316" lon="-3.39">
        <ele>22.94</ele>
        <time>2020-07-10T11:14:47Z</time>
      </trkpt>
      <trkpt lat="47.80316" lon="-3.39004">
        <ele>22.98</ele>
        <time>2020-07-10T11:14:48Z</time>
      </trkpt>
      <trkpt lat="47.80317" lon="-3.39009">
        <ele>22.99</ele>
        <time>2020-07-10T11:14:49Z</time>
      </trkpt>
      <trkpt lat="47.80317" lon="-3.39013">
        <ele>23</ele>
        <time>2020-07-10T11:14:50Z</time>
      </trkpt>
      <trkpt lat="47.80318" lon="-3.39017">
        <ele>23</ele>
        <time>2020-07-10T11:14:51Z</time>
      </trkpt>
      <trkpt lat="47.80318" lon="-3.39021">
        <ele>23</ele>
        <time>2020-07-10T11:14:52Z</time>
      </trkpt>
      <trkpt lat="47.80319" lon="-3.39026">
        <ele>23</ele>
        <time>2020-07-10T11:14:53Z</time>
      </trkpt>
      <trkpt lat="47.8032" lon="-3.39031">
        <ele>22.91</ele>
        <time>2020-07-10T11:14:54Z</time>
      </trkpt>
      <trkpt lat="47.80321" lon="-3.39037">
        <ele>22.75</ele>
        <time>2020-07-10T11:14:55Z</time>
      </trkpt>
      <trkpt lat="47.80323" lon="-3.39042">
        <ele>22.57</ele>
        <time>2020-07-10T11:14:56Z</time>
      </trkpt>
      <trkpt lat="47.80326" lon="-3.39047">
        <ele>22.4</ele>
        <time>2020-07-10T11:14:57Z</time>
      </trkpt>
      <trkpt lat="47.8033" lon="-3.39051">
        <ele>22.24</ele>
        <time>2020-07-10T11:14:58Z</time>
      </trkpt>
      <trkpt lat="47.80333" lon="-3.39054">
        <ele>22.11</ele>
        <time>2020-07-10T11:14:59Z</time>
      </trkpt>
      <trkpt lat="47.80336" lon="-3.39056">
        <ele>21.63</ele>
        <time>2020-07-10T11:15:00Z</time>
      </trkpt>
      <trkpt lat="47.80339" lon="-3.39059">
        <ele>20.97</ele>
        <time>2020-07-10T11:15:01Z</time>
      </trkpt>
      <trkpt lat="47.80342" lon="-3.39062">
        <ele>20.26</ele>
        <time>2020-07-10T11:15:02Z</time>
      </trkpt>
      <trkpt lat="47.80345" lon="-3.39065">
        <ele>19.51</ele>
        <time>2020-07-10T11:15:03Z</time>
      </trkpt>
      <trkpt lat="47.80348" lon="-3.39068">
        <ele>18.72</ele>
        <time>2020-07-10T11:15:04Z</time>
      </trkpt>
      <trkpt lat="47.80349" lon="-3.39072">
        <ele>18.15</ele>
        <time>2020-07-10T11:15:05Z</time>
      </trkpt>
      <trkpt lat="47.80351" lon="-3.39076">
        <ele>17.68</ele>
        <time>2020-07-10T11:15:06Z</time>
      </trkpt>
      <trkpt lat="47.80352" lon="-3.3908">
        <ele>17.22</ele>
        <time>2020-07-10T11:15:07Z</time>
      </trkpt>
      <trkpt lat="47.80354" lon="-3.39084">
        <ele>16.79</ele>
        <time>2020-07-10T11:15:08Z</time>
      </trkpt>
      <trkpt lat="47.80355" lon="-3.39089">
        <ele>16.54</ele>
        <time>2020-07-10T11:15:09Z</time>
      </trkpt>
      <trkpt lat="47.80355" lon="-3.39095">
        <ele>16.36</ele>
        <time>2020-07-10T11:15:10Z</time>
      </trkpt>
      <trkpt lat="47.80355" lon="-3.391">
        <ele>16.28</ele>
        <time>2020-07-10T11:15:11Z</time>
      </trkpt>
      <trkpt lat="47.80356" lon="-3.39105">
        <ele>16.21</ele>
        <time>2020-07-10T11:15:12Z</time>
      </trkpt>
      <trkpt lat="47.80356" lon="-3.3911">
        <ele>16.19</ele>
        <time>2020-07-10T11:15:13Z</time>
      </trkpt>
      <trkpt lat="47.80356" lon="-3.39114">
        <ele>16.23</ele>
        <time>2020-07-10T11:15:14Z</time>
      </trkpt>
      <trkpt lat="47.80355" lon="-3.39117">
        <ele>16.41</ele>
        <time>2020-07-10T11:15:15Z</time>
      </trkpt>
      <trkpt lat="47.80356" lon="-3.39123">
        <ele>16.51</ele>
        <time>2020-07-10T11:15:16Z</time>
      </trkpt>
      <trkpt lat="47.80357" lon="-3.39127">
        <ele>16.39</ele>
        <time>2020-07-10T11:15:17Z</time>
      </trkpt>
      <trkpt lat="47.80359" lon="-3.39129">
        <ele>16.21</ele>
        <time>2020-07-10T11:15:18Z</time>
      </trkpt>
      <trkpt lat="47.80359" lon="-3.39133">
        <ele>16.23</ele>
        <time>2020-07-10T11:15:19Z</time>
      </trkpt>
      <trkpt lat="47.80358" lon="-3.39136">
        <ele>16.39</ele>
        <time>2020-07-10T11:15:20Z</time>
      </trkpt>
      <trkpt lat="47.80358" lon="-3.39141">
        <ele>16.57</ele>
        <time>2020-07-10T11:15:21Z</time>
      </trkpt>
      <trkpt lat="47.80357" lon="-3.39145">
        <ele>16.71</ele>
        <time>2020-07-10T11:15:22Z</time>
      </trkpt>
      <trkpt lat="47.80356" lon="-3.39149">
        <ele>16.9</ele>
        <time>2020-07-10T11:15:23Z</time>
      </trkpt>
      <trkpt lat="47.80355" lon="-3.39152">
        <ele>17.1</ele>
        <time>2020-07-10T11:15:24Z</time>
      </trkpt>
      <trkpt lat="47.80353" lon="-3.39156">
        <ele>17.39</ele>
        <time>2020-07-10T11:15:25Z</time>
      </trkpt>
      <trkpt lat="47.80351" lon="-3.3916">
        <ele>17.67</ele>
        <time>2020-07-10T11:15:26Z</time>
      </trkpt>
      <trkpt lat="47.8035" lon="-3.39166">
        <ele>17.86</ele>
        <time>2020-07-10T11:15:27Z</time>
      </trkpt>
      <trkpt lat="47.8035" lon="-3.39172">
        <ele>17.92</ele>
        <time>2020-07-10T11:15:28Z</time>
      </trkpt>
      <trkpt lat="47.80349" lon="-3.39177">
        <ele>18.01</ele>
        <time>2020-07-10T11:15:29Z</time>
      </trkpt>
      <trkpt lat="47.80348" lon="-3.39181">
        <ele>18.11</ele>
        <time>2020-07-10T11:15:30Z</time>
      </trkpt>
      <trkpt lat="47.80346" lon="-3.39184">
        <ele>18.39</ele>
        <time>2020-07-10T11:15:31Z</time>
      </trkpt>
      <trkpt lat="47.80343" lon="-3.39187">
        <ele>18.87</ele>
        <time>2020-07-10T11:15:32Z</time>
      </trkpt>
      <trkpt lat="47.8034" lon="-3.3919">
        <ele>19.38</ele>
        <time>2020-07-10T11:15:33Z</time>
      </trkpt>
      <trkpt lat="47.80338" lon="-3.39194">
        <ele>19.76</ele>
        <time>2020-07-10T11:15:34Z</time>
      </trkpt>
      <trkpt lat="47.80338" lon="-3.39198">
        <ele>19.88</ele>
        <time>2020-07-10T11:15:35Z</time>
      </trkpt>
      <trkpt lat="47.80338" lon="-3.39202">
        <ele>19.76</ele>
        <time>2020-07-10T11:15:36Z</time>
      </trkpt>
      <trkpt lat="47.80337" lon="-3.39206">
        <ele>19.67</ele>
        <time>2020-07-10T11:15:37Z</time>
      </trkpt>
      <trkpt lat="47.80336" lon="-3.3921">
        <ele>19.78</ele>
        <time>2020-07-10T11:15:38Z</time>
      </trkpt>
      <trkpt lat="47.80334" lon="-3.39214">
        <ele>20.01</ele>
        <time>2020-07-10T11:15:39Z</time>
      </trkpt>
      <trkpt lat="47.80332" lon="-3.3922">
        <ele>20.02</ele>
        <time>2020-07-10T11:15:40Z</time>
      </trkpt>
      <trkpt lat="47.8033" lon="-3.39225">
        <ele>19.8</ele>
        <time>2020-07-10T11:15:41Z</time>
      </trkpt>
      <trkpt lat="47.80328" lon="-3.39229">
        <ele>19.56</ele>
        <time>2020-07-10T11:15:42Z</time>
      </trkpt>
      <trkpt lat="47.80325" lon="-3.39232">
        <ele>19.36</ele>
        <time>2020-07-10T11:15:43Z</time>
      </trkpt>
      <trkpt lat="47.80322" lon="-3.3924">
        <ele>19.16</ele>
        <time>2020-07-10T11:15:44Z</time>
      </trkpt>
      <trkpt lat="47.80321" lon="-3.39245">
        <ele>19.06</ele>
        <time>2020-07-10T11:15:45Z</time>
      </trkpt>
      <trkpt lat="47.8032" lon="-3.3925">
        <ele>19.02</ele>
        <time>2020-07-10T11:15:46Z</time>
      </trkpt>
      <trkpt lat="47.8032" lon="-3.39255">
        <ele>19</ele>
        <time>2020-07-10T11:15:47Z</time>
      </trkpt>
      <trkpt lat="47.8032" lon="-3.3926">
        <ele>19</ele>
        <time>2020-07-10T11:15:48Z</time>
      </trkpt>
      <trkpt lat="47.80319" lon="-3.39265">
        <ele>19</ele>
        <time>2020-07-10T11:15:49Z</time>
      </trkpt>
      <trkpt lat="47.8032" lon="-3.39269">
        <ele>18.98</ele>
        <time>2020-07-10T11:15:50Z</time>
      </trkpt>
      <trkpt lat="47.8032" lon="-3.39274">
        <ele>18.98</ele>
        <time>2020-07-10T11:15:51Z</time>
      </trkpt>
      <trkpt lat="47.8032" lon="-3.39277">
        <ele>18.98</ele>
        <time>2020-07-10T11:15:52Z</time>
      </trkpt>
      <trkpt lat="47.8032" lon="-3.39281">
        <ele>19.08</ele>
        <time>2020-07-10T11:15:53Z</time>
      </trkpt>
      <trkpt lat="47.80322" lon="-3.39285">
        <ele>19.17</ele>
        <time>2020-07-10T11:15:54Z</time>
      </trkpt>
      <trkpt lat="47.80324" lon="-3.39287">
        <ele>19.2</ele>
        <time>2020-07-10T11:15:55Z</time>
      </trkpt>
      <trkpt lat="47.80327" lon="-3.39289">
        <ele>19.17</ele>
        <time>2020-07-10T11:15:56Z</time>
      </trkpt>
      <trkpt lat="47.8033" lon="-3.39291">
        <ele>19.15</ele>
        <time>2020-07-10T11:15:57Z</time>
      </trkpt>
      <trkpt lat="47.80333" lon="-3.39293">
        <ele>19.13</ele>
        <time>2020-07-10T11:15:58Z</time>
      </trkpt>
      <trkpt lat="47.80336" lon="-3.39295">
        <ele>18.67</ele>
        <time>2020-07-10T11:15:59Z</time>
      </trkpt>
      <trkpt lat="47.80339" lon="-3.39297">
        <ele>18.01</ele>
        <time>2020-07-10T11:16:00Z</time>
      </trkpt>
      <trkpt lat="47.80342" lon="-3.39299">
        <ele>17.35</ele>
        <time>2020-07-10T11:16:01Z</time>
      </trkpt>
      <trkpt lat="47.80344" lon="-3.393">
        <ele>16.74</ele>
        <time>2020-07-10T11:16:02Z</time>
      </trkpt>
      <trkpt lat="47.80346" lon="-3.39303">
        <ele>16.34</ele>
        <time>2020-07-10T11:16:03Z</time>
      </trkpt>
      <trkpt lat="47.80348" lon="-3.39306">
        <ele>15.97</ele>
        <time>2020-07-10T11:16:04Z</time>
      </trkpt>
      <trkpt lat="47.8035" lon="-3.3931">
        <ele>15.84</ele>
        <time>2020-07-10T11:16:05Z</time>
      </trkpt>
      <trkpt lat="47.80352" lon="-3.39313">
        <ele>15.69</ele>
        <time>2020-07-10T11:16:06Z</time>
      </trkpt>
      <trkpt lat="47.80356" lon="-3.39317">
        <ele>15.33</ele>
        <time>2020-07-10T11:16:07Z</time>
      </trkpt>
      <trkpt lat="47.80358" lon="-3.39321">
        <ele>15.19</ele>
        <time>2020-07-10T11:16:08Z</time>
      </trkpt>
      <trkpt lat="47.8036" lon="-3.39324">
        <ele>15.02</ele>
        <time>2020-07-10T11:16:09Z</time>
      </trkpt>
      <trkpt lat="47.80363" lon="-3.39327">
        <ele>14.64</ele>
        <time>2020-07-10T11:16:10Z</time>
      </trkpt>
      <trkpt lat="47.80367" lon="-3.39331">
        <ele>13.73</ele>
        <time>2020-07-10T11:16:11Z</time>
      </trkpt>
      <trkpt lat="47.8037" lon="-3.39333">
        <ele>12.92</ele>
        <time>2020-07-10T11:16:12Z</time>
      </trkpt>
      <trkpt lat="47.80373" lon="-3.39337">
        <ele>12.25</ele>
        <time>2020-07-10T11:16:13Z</time>
      </trkpt>
      <trkpt lat="47.80376" lon="-3.39341">
        <ele>11.81</ele>
        <time>2020-07-10T11:16:14Z</time>
      </trkpt>
      <trkpt lat="47.80379" lon="-3.39345">
        <ele>11.62</ele>
        <time>2020-07-10T11:16:15Z</time>
      </trkpt>
      <trkpt lat="47.80382" lon="-3.39349">
        <ele>11.59</ele>
        <time>2020-07-10T11:16:16Z</time>
      </trkpt>
      <trkpt lat="47.80385" lon="-3.39354">
        <ele>11.7</ele>
        <time>2020-07-10T11:16:17Z</time>
      </trkpt>
      <trkpt lat="47.80388" lon="-3.39358">
        <ele>11.7</ele>
        <time>2020-07-10T11:16:18Z</time>
      </trkpt>
      <trkpt lat="47.80393" lon="-3.39363">
        <ele>11.23</ele>
        <time>2020-07-10T11:16:19Z</time>
      </trkpt>
      <trkpt lat="47.80397" lon="-3.39368">
        <ele>10.77</ele>
        <time>2020-07-10T11:16:20Z</time>
      </trkpt>
      <trkpt lat="47.80401" lon="-3.39371">
        <ele>10.23</ele>
        <time>2020-07-10T11:16:21Z</time>
      </trkpt>
      <trkpt lat="47.80405" lon="-3.39375">
        <ele>9.73</ele>
        <time>2020-07-10T11:16:22Z</time>
      </trkpt>
      <trkpt lat="47.80409" lon="-3.39377">
        <ele>9.2</ele>
        <time>2020-07-10T11:16:23Z</time>
      </trkpt>
      <trkpt lat="47.80411" lon="-3.3938">
        <ele>8.83</ele>
        <time>2020-07-10T11:16:24Z</time>
      </trkpt>
      <trkpt lat="47.80413" lon="-3.39383">
        <ele>8.76</ele>
        <time>2020-07-10T11:16:25Z</time>
      </trkpt>
      <trkpt lat="47.80415" lon="-3.39386">
        <ele>8.7</ele>
        <time>2020-07-10T11:16:26Z</time>
      </trkpt>
      <trkpt lat="47.80417" lon="-3.39388">
        <ele>8.74</ele>
        <time>2020-07-10T11:16:27Z</time>
      </trkpt>
      <trkpt lat="47.8042" lon="-3.39391">
        <ele>9.06</ele>
        <time>2020-07-10T11:16:28Z</time>
      </trkpt>
      <trkpt lat="47.80423" lon="-3.39394">
        <ele>9.25</ele>
        <time>2020-07-10T11:16:29Z</time>
      </trkpt>
      <trkpt lat="47.80426" lon="-3.39396">
        <ele>9.48</ele>
        <time>2020-07-10T11:16:30Z</time>
      </trkpt>
      <trkpt lat="47.80429" lon="-3.39399">
        <ele>9.6</ele>
        <time>2020-07-10T11:16:31Z</time>
      </trkpt>
      <trkpt lat="47.80432" lon="-3.39401">
        <ele>9.6</ele>
        <time>2020-07-10T11:16:32Z</time>
      </trkpt>
      <trkpt lat="47.80438" lon="-3.39404">
        <ele>9.52</ele>
        <time>2020-07-10T11:16:33Z</time>
      </trkpt>
      <trkpt lat="47.80441" lon="-3.39407">
        <ele>9.68</ele>
        <time>2020-07-10T11:16:34Z</time>
      </trkpt>
      <trkpt lat="47.80446" lon="-3.3941">
        <ele>9.91</ele>
        <time>2020-07-10T11:16:35Z</time>
      </trkpt>
      <trkpt lat="47.80449" lon="-3.39413">
        <ele>10.21</ele>
        <time>2020-07-10T11:16:36Z</time>
      </trkpt>
      <trkpt lat="47.80453" lon="-3.39416">
        <ele>10.45</ele>
        <time>2020-07-10T11:16:37Z</time>
      </trkpt>
      <trkpt lat="47.80457" lon="-3.39418">
        <ele>10.68</ele>
        <time>2020-07-10T11:16:38Z</time>
      </trkpt>
      <trkpt lat="47.8046" lon="-3.39421">
        <ele>11.11</ele>
        <time>2020-07-10T11:16:39Z</time>
      </trkpt>
      <trkpt lat="47.80462" lon="-3.39424">
        <ele>11.74</ele>
        <time>2020-07-10T11:16:40Z</time>
      </trkpt>
      <trkpt lat="47.80464" lon="-3.39427">
        <ele>12.49</ele>
        <time>2020-07-10T11:16:41Z</time>
      </trkpt>
      <trkpt lat="47.80467" lon="-3.3943">
        <ele>13.03</ele>
        <time>2020-07-10T11:16:42Z</time>
      </trkpt>
      <trkpt lat="47.8047" lon="-3.39433">
        <ele>13.47</ele>
        <time>2020-07-10T11:16:43Z</time>
      </trkpt>
      <trkpt lat="47.80472" lon="-3.39435">
        <ele>13.9</ele>
        <time>2020-07-10T11:16:44Z</time>
      </trkpt>
      <trkpt lat="47.80474" lon="-3.39437">
        <ele>13.98</ele>
        <time>2020-07-10T11:16:45Z</time>
      </trkpt>
      <trkpt lat="47.80478" lon="-3.39438">
        <ele>13.67</ele>
        <time>2020-07-10T11:16:46Z</time>
      </trkpt>
      <trkpt lat="47.80483" lon="-3.3944">
        <ele>13.02</ele>
        <time>2020-07-10T11:16:47Z</time>
      </trkpt>
      <trkpt lat="47.80488" lon="-3.39442">
        <ele>12.14</ele>
        <time>2020-07-10T11:16:48Z</time>
      </trkpt>
      <trkpt lat="47.80493" lon="-3.39445">
        <ele>11.26</ele>
        <time>2020-07-10T11:16:49Z</time>
      </trkpt>
      <trkpt lat="47.80497" lon="-3.39447">
        <ele>10.4</ele>
        <time>2020-07-10T11:16:50Z</time>
      </trkpt>
      <trkpt lat="47.80501" lon="-3.39449">
        <ele>9.51</ele>
        <time>2020-07-10T11:16:51Z</time>
      </trkpt>
      <trkpt lat="47.80506" lon="-3.39449">
        <ele>8.74</ele>
        <time>2020-07-10T11:16:52Z</time>
      </trkpt>
      <trkpt lat="47.80511" lon="-3.39449">
        <ele>7.98</ele>
        <time>2020-07-10T11:16:53Z</time>
      </trkpt>
      <trkpt lat="47.80514" lon="-3.39449">
        <ele>7.31</ele>
        <time>2020-07-10T11:16:54Z</time>
      </trkpt>
      <trkpt lat="47.80517" lon="-3.39448">
        <ele>6.71</ele>
        <time>2020-07-10T11:16:55Z</time>
      </trkpt>
      <trkpt lat="47.8052" lon="-3.39448">
        <ele>6.15</ele>
        <time>2020-07-10T11:16:56Z</time>
      </trkpt>
      <trkpt lat="47.80523" lon="-3.39448">
        <ele>5.64</ele>
        <time>2020-07-10T11:16:57Z</time>
      </trkpt>
      <trkpt lat="47.80526" lon="-3.39449">
        <ele>5.31</ele>
        <time>2020-07-10T11:16:58Z</time>
      </trkpt>
      <trkpt lat="47.80529" lon="-3.3945">
        <ele>5.18</ele>
        <time>2020-07-10T11:16:59Z</time>
      </trkpt>
      <trkpt lat="47.80533" lon="-3.39451">
        <ele>5.09</ele>
        <time>2020-07-10T11:17:00Z</time>
      </trkpt>
      <trkpt lat="47.80536" lon="-3.39453">
        <ele>5.02</ele>
        <time>2020-07-10T11:17:01Z</time>
      </trkpt>
      <trkpt lat="47.8054" lon="-3.39455">
        <ele>4.92</ele>
        <time>2020-07-10T11:17:02Z</time>
      </trkpt>
      <trkpt lat="47.80545" lon="-3.39458">
        <ele>4.83</ele>
        <time>2020-07-10T11:17:03Z</time>
      </trkpt>
      <trkpt lat="47.80548" lon="-3.3946">
        <ele>4.71</ele>
        <time>2020-07-10T11:17:04Z</time>
      </trkpt>
      <trkpt lat="47.80552" lon="-3.39462">
        <ele>4.47</ele>
        <time>2020-07-10T11:17:05Z</time>
      </trkpt>
      <trkpt lat="47.80556" lon="-3.39464">
        <ele>4.2</ele>
        <time>2020-07-10T11:17:06Z</time>
      </trkpt>
      <trkpt lat="47.80559" lon="-3.39466">
        <ele>4.23</ele>
        <time>2020-07-10T11:17:07Z</time>
      </trkpt>
      <trkpt lat="47.80563" lon="-3.39469">
        <ele>4.33</ele>
        <time>2020-07-10T11:17:08Z</time>
      </trkpt>
      <trkpt lat="47.80566" lon="-3.3947">
        <ele>4.42</ele>
        <time>2020-07-10T11:17:09Z</time>
      </trkpt>
      <trkpt lat="47.8057" lon="-3.39473">
        <ele>4.65</ele>
        <time>2020-07-10T11:17:10Z</time>
      </trkpt>
      <trkpt lat="47.80573" lon="-3.39476">
        <ele>5.05</ele>
        <time>2020-07-10T11:17:11Z</time>
      </trkpt>
      <trkpt lat="47.80576" lon="-3.39479">
        <ele>5.5</ele>
        <time>2020-07-10T11:17:12Z</time>
      </trkpt>
      <trkpt lat="47.80579" lon="-3.39482">
        <ele>5.89</ele>
        <time>2020-07-10T11:17:13Z</time>
      </trkpt>
      <trkpt lat="47.80581" lon="-3.39485">
        <ele>6.32</ele>
        <time>2020-07-10T11:17:14Z</time>
      </trkpt>
      <trkpt lat="47.80585" lon="-3.39489">
        <ele>6.7</ele>
        <time>2020-07-10T11:17:15Z</time>
      </trkpt>
      <trkpt lat="47.80588" lon="-3.39491">
        <ele>6.97</ele>
        <time>2020-07-10T11:17:16Z</time>
      </trkpt>
      <trkpt lat="47.80592" lon="-3.39493">
        <ele>7.12</ele>
        <time>2020-07-10T11:17:17Z</time>
      </trkpt>
      <trkpt lat="47.80595" lon="-3.39493">
        <ele>7.09</ele>
        <time>2020-07-10T11:17:18Z</time>
      </trkpt>
      <trkpt lat="47.80597" lon="-3.39493">
        <ele>6.97</ele>
        <time>2020-07-10T11:17:19Z</time>
      </trkpt>
      <trkpt lat="47.80601" lon="-3.39495">
        <ele>6.94</ele>
        <time>2020-07-10T11:17:20Z</time>
      </trkpt>
      <trkpt lat="47.80605" lon="-3.39497">
        <ele>7.01</ele>
        <time>2020-07-10T11:17:21Z</time>
      </trkpt>
      <trkpt lat="47.80608" lon="-3.395">
        <ele>7.12</ele>
        <time>2020-07-10T11:17:22Z</time>
      </trkpt>
      <trkpt lat="47.80611" lon="-3.39502">
        <ele>7.45</ele>
        <time>2020-07-10T11:17:23Z</time>
      </trkpt>
      <trkpt lat="47.80615" lon="-3.39505">
        <ele>7.74</ele>
        <time>2020-07-10T11:17:24Z</time>
      </trkpt>
      <trkpt lat="47.8062" lon="-3.39506">
        <ele>7.77</ele>
        <time>2020-07-10T11:17:25Z</time>
      </trkpt>
      <trkpt lat="47.80625" lon="-3.39508">
        <ele>7.7</ele>
        <time>2020-07-10T11:17:26Z</time>
      </trkpt>
      <trkpt lat="47.80629" lon="-3.39509">
        <ele>7.42</ele>
        <time>2020-07-10T11:17:27Z</time>
      </trkpt>
      <trkpt lat="47.80634" lon="-3.39511">
        <ele>7.17</ele>
        <time>2020-07-10T11:17:28Z</time>
      </trkpt>
      <trkpt lat="47.80637" lon="-3.39512">
        <ele>6.97</ele>
        <time>2020-07-10T11:17:29Z</time>
      </trkpt>
      <trkpt lat="47.80641" lon="-3.39514">
        <ele>6.8</ele>
        <time>2020-07-10T11:17:30Z</time>
      </trkpt>
      <trkpt lat="47.80645" lon="-3.39516">
        <ele>6.77</ele>
        <time>2020-07-10T11:17:31Z</time>
      </trkpt>
      <trkpt lat="47.80648" lon="-3.39519">
        <ele>6.86</ele>
        <time>2020-07-10T11:17:32Z</time>
      </trkpt>
      <trkpt lat="47.80652" lon="-3.39523">
        <ele>7.08</ele>
        <time>2020-07-10T11:17:33Z</time>
      </trkpt>
      <trkpt lat="47.80656" lon="-3.39527">
        <ele>7.34</ele>
        <time>2020-07-10T11:17:34Z</time>
      </trkpt>
      <trkpt lat="47.8066" lon="-3.39532">
        <ele>7.67</ele>
        <time>2020-07-10T11:17:35Z</time>
      </trkpt>
      <trkpt lat="47.80662" lon="-3.39538">
        <ele>8.05</ele>
        <time>2020-07-10T11:17:36Z</time>
      </trkpt>
      <trkpt lat="47.80664" lon="-3.39543">
        <ele>8.51</ele>
        <time>2020-07-10T11:17:37Z</time>
      </trkpt>
      <trkpt lat="47.80665" lon="-3.39548">
        <ele>9.03</ele>
        <time>2020-07-10T11:17:38Z</time>
      </trkpt>
      <trkpt lat="47.80667" lon="-3.39553">
        <ele>9.42</ele>
        <time>2020-07-10T11:17:39Z</time>
      </trkpt>
      <trkpt lat="47.80668" lon="-3.39558">
        <ele>9.82</ele>
        <time>2020-07-10T11:17:40Z</time>
      </trkpt>
      <trkpt lat="47.80669" lon="-3.39564">
        <ele>10.29</ele>
        <time>2020-07-10T11:17:41Z</time>
      </trkpt>
      <trkpt lat="47.80671" lon="-3.39569">
        <ele>10.69</ele>
        <time>2020-07-10T11:17:42Z</time>
      </trkpt>
      <trkpt lat="47.80672" lon="-3.39575">
        <ele>11.14</ele>
        <time>2020-07-10T11:17:43Z</time>
      </trkpt>
      <trkpt lat="47.80672" lon="-3.39581">
        <ele>11.63</ele>
        <time>2020-07-10T11:17:44Z</time>
      </trkpt>
      <trkpt lat="47.80671" lon="-3.39586">
        <ele>12.34</ele>
        <time>2020-07-10T11:17:45Z</time>
      </trkpt>
      <trkpt lat="47.8067" lon="-3.39593">
        <ele>13.32</ele>
        <time>2020-07-10T11:17:46Z</time>
      </trkpt>
      <trkpt lat="47.80668" lon="-3.396">
        <ele>14.23</ele>
        <time>2020-07-10T11:17:47Z</time>
      </trkpt>
      <trkpt lat="47.80667" lon="-3.39606">
        <ele>15.1</ele>
        <time>2020-07-10T11:17:48Z</time>
      </trkpt>
      <trkpt lat="47.80666" lon="-3.39613">
        <ele>15.8</ele>
        <time>2020-07-10T11:17:49Z</time>
      </trkpt>
      <trkpt lat="47.80665" lon="-3.39619">
        <ele>16.21</ele>
        <time>2020-07-10T11:17:50Z</time>
      </trkpt>
      <trkpt lat="47.80664" lon="-3.39625">
        <ele>16.53</ele>
        <time>2020-07-10T11:17:51Z</time>
      </trkpt>
      <trkpt lat="47.80664" lon="-3.39631">
        <ele>16.73</ele>
        <time>2020-07-10T11:17:52Z</time>
      </trkpt>
      <trkpt lat="47.80664" lon="-3.39636">
        <ele>16.86</ele>
        <time>2020-07-10T11:17:53Z</time>
      </trkpt>
      <trkpt lat="47.80663" lon="-3.39644">
        <ele>16.93</ele>
        <time>2020-07-10T11:17:54Z</time>
      </trkpt>
      <trkpt lat="47.80662" lon="-3.39649">
        <ele>17.1</ele>
        <time>2020-07-10T11:17:55Z</time>
      </trkpt>
      <trkpt lat="47.80661" lon="-3.39655">
        <ele>17.25</ele>
        <time>2020-07-10T11:17:56Z</time>
      </trkpt>
      <trkpt lat="47.8066" lon="-3.39661">
        <ele>17.48</ele>
        <time>2020-07-10T11:17:57Z</time>
      </trkpt>
      <trkpt lat="47.80658" lon="-3.39666">
        <ele>17.68</ele>
        <time>2020-07-10T11:17:58Z</time>
      </trkpt>
      <trkpt lat="47.80657" lon="-3.39672">
        <ele>17.8</ele>
        <time>2020-07-10T11:17:59Z</time>
      </trkpt>
      <trkpt lat="47.80655" lon="-3.39678">
        <ele>17.99</ele>
        <time>2020-07-10T11:18:00Z</time>
      </trkpt>
      <trkpt lat="47.80654" lon="-3.39684">
        <ele>18.14</ele>
        <time>2020-07-10T11:18:01Z</time>
      </trkpt>
      <trkpt lat="47.80652" lon="-3.39689">
        <ele>18.29</ele>
        <time>2020-07-10T11:18:02Z</time>
      </trkpt>
      <trkpt lat="47.8065" lon="-3.39694">
        <ele>18.47</ele>
        <time>2020-07-10T11:18:03Z</time>
      </trkpt>
      <trkpt lat="47.80649" lon="-3.39699">
        <ele>18.7</ele>
        <time>2020-07-10T11:18:04Z</time>
      </trkpt>
      <trkpt lat="47.80647" lon="-3.39703">
        <ele>18.95</ele>
        <time>2020-07-10T11:18:05Z</time>
      </trkpt>
      <trkpt lat="47.80647" lon="-3.39707">
        <ele>19.09</ele>
        <time>2020-07-10T11:18:06Z</time>
      </trkpt>
      <trkpt lat="47.80646" lon="-3.39712">
        <ele>19.12</ele>
        <time>2020-07-10T11:18:07Z</time>
      </trkpt>
      <trkpt lat="47.80647" lon="-3.39717">
        <ele>19.01</ele>
        <time>2020-07-10T11:18:08Z</time>
      </trkpt>
      <trkpt lat="47.80648" lon="-3.39722">
        <ele>18.78</ele>
        <time>2020-07-10T11:18:09Z</time>
      </trkpt>
      <trkpt lat="47.8065" lon="-3.39729">
        <ele>18.64</ele>
        <time>2020-07-10T11:18:10Z</time>
      </trkpt>
      <trkpt lat="47.80653" lon="-3.39736">
        <ele>18.54</ele>
        <time>2020-07-10T11:18:11Z</time>
      </trkpt>
      <trkpt lat="47.80657" lon="-3.39743">
        <ele>18.32</ele>
        <time>2020-07-10T11:18:12Z</time>
      </trkpt>
      <trkpt lat="47.80661" lon="-3.3975">
        <ele>17.98</ele>
        <time>2020-07-10T11:18:13Z</time>
      </trkpt>
      <trkpt lat="47.80665" lon="-3.39755">
        <ele>17.61</ele>
        <time>2020-07-10T11:18:14Z</time>
      </trkpt>
      <trkpt lat="47.8067" lon="-3.39758">
        <ele>17.05</ele>
        <time>2020-07-10T11:18:15Z</time>
      </trkpt>
      <trkpt lat="47.80673" lon="-3.39761">
        <ele>16.53</ele>
        <time>2020-07-10T11:18:16Z</time>
      </trkpt>
      <trkpt lat="47.80676" lon="-3.39765">
        <ele>16.21</ele>
        <time>2020-07-10T11:18:17Z</time>
      </trkpt>
      <trkpt lat="47.80678" lon="-3.39769">
        <ele>16.03</ele>
        <time>2020-07-10T11:18:18Z</time>
      </trkpt>
      <trkpt lat="47.8068" lon="-3.39772">
        <ele>15.88</ele>
        <time>2020-07-10T11:18:19Z</time>
      </trkpt>
      <trkpt lat="47.80681" lon="-3.39774">
        <ele>15.8</ele>
        <time>2020-07-10T11:18:20Z</time>
      </trkpt>
      <trkpt lat="47.80681" lon="-3.39774">
        <ele>15.77</ele>
        <time>2020-07-10T11:18:21Z</time>
      </trkpt>
      <trkpt lat="47.80681" lon="-3.39774">
        <ele>15.75</ele>
        <time>2020-07-10T11:18:22Z</time>
      </trkpt>
      <trkpt lat="47.80681" lon="-3.39775">
        <ele>15.8</ele>
        <time>2020-07-10T11:18:23Z</time>
      </trkpt>
      <trkpt lat="47.80681" lon="-3.39775">
        <ele>15.81</ele>
        <time>2020-07-10T11:18:24Z</time>
      </trkpt>
      <trkpt lat="47.80681" lon="-3.39775">
        <ele>15.82</ele>
        <time>2020-07-10T11:18:25Z</time>
      </trkpt>
      <trkpt lat="47.80681" lon="-3.39775">
        <ele>15.82</ele>
        <time>2020-07-10T11:18:26Z</time>
      </trkpt>
      <trkpt lat="47.80681" lon="-3.39775">
        <ele>15.82</ele>
        <time>2020-07-10T11:18:27Z</time>
      </trkpt>
      <trkpt lat="47.80681" lon="-3.39775">
        <ele>15.82</ele>
        <time>2020-07-10T11:18:28Z</time>
      </trkpt>
      <trkpt lat="47.80686" lon="-3.39774">
        <ele>15.28</ele>
        <time>2020-07-10T11:18:29Z</time>
      </trkpt>
      <trkpt lat="47.80688" lon="-3.39773">
        <ele>14.87</ele>
        <time>2020-07-10T11:18:30Z</time>
      </trkpt>
      <trkpt lat="47.8069" lon="-3.39775">
        <ele>14.51</ele>
        <time>2020-07-10T11:18:31Z</time>
      </trkpt>
      <trkpt lat="47.80694" lon="-3.39775">
        <ele>14.1</ele>
        <time>2020-07-10T11:18:32Z</time>
      </trkpt>
      <trkpt lat="47.80697" lon="-3.39776">
        <ele>13.52</ele>
        <time>2020-07-10T11:18:33Z</time>
      </trkpt>
      <trkpt lat="47.80701" lon="-3.39779">
        <ele>12.89</ele>
        <time>2020-07-10T11:18:34Z</time>
      </trkpt>
      <trkpt lat="47.80704" lon="-3.39783">
        <ele>12.52</ele>
        <time>2020-07-10T11:18:35Z</time>
      </trkpt>
      <trkpt lat="47.80706" lon="-3.39787">
        <ele>12.31</ele>
        <time>2020-07-10T11:18:36Z</time>
      </trkpt>
      <trkpt lat="47.80708" lon="-3.39791">
        <ele>12.27</ele>
        <time>2020-07-10T11:18:37Z</time>
      </trkpt>
      <trkpt lat="47.8071" lon="-3.39796">
        <ele>12.37</ele>
        <time>2020-07-10T11:18:38Z</time>
      </trkpt>
      <trkpt lat="47.80711" lon="-3.39801">
        <ele>12.6</ele>
        <time>2020-07-10T11:18:39Z</time>
      </trkpt>
      <trkpt lat="47.80711" lon="-3.39807">
        <ele>13.06</ele>
        <time>2020-07-10T11:18:40Z</time>
      </trkpt>
      <trkpt lat="47.80712" lon="-3.39812">
        <ele>13.59</ele>
        <time>2020-07-10T11:18:41Z</time>
      </trkpt>
      <trkpt lat="47.80712" lon="-3.39818">
        <ele>14.26</ele>
        <time>2020-07-10T11:18:42Z</time>
      </trkpt>
      <trkpt lat="47.80713" lon="-3.39823">
        <ele>14.78</ele>
        <time>2020-07-10T11:18:43Z</time>
      </trkpt>
      <trkpt lat="47.80714" lon="-3.39828">
        <ele>15.2</ele>
        <time>2020-07-10T11:18:44Z</time>
      </trkpt>
      <trkpt lat="47.80716" lon="-3.39835">
        <ele>15.51</ele>
        <time>2020-07-10T11:18:45Z</time>
      </trkpt>
      <trkpt lat="47.80718" lon="-3.39841">
        <ele>15.59</ele>
        <time>2020-07-10T11:18:46Z</time>
      </trkpt>
      <trkpt lat="47.8072" lon="-3.39848">
        <ele>15.5</ele>
        <time>2020-07-10T11:18:47Z</time>
      </trkpt>
      <trkpt lat="47.80723" lon="-3.39854">
        <ele>15.24</ele>
        <time>2020-07-10T11:18:48Z</time>
      </trkpt>
      <trkpt lat="47.80727" lon="-3.3986">
        <ele>14.62</ele>
        <time>2020-07-10T11:18:49Z</time>
      </trkpt>
      <trkpt lat="47.8073" lon="-3.39865">
        <ele>13.88</ele>
        <time>2020-07-10T11:18:50Z</time>
      </trkpt>
      <trkpt lat="47.80734" lon="-3.3987">
        <ele>12.99</ele>
        <time>2020-07-10T11:18:51Z</time>
      </trkpt>
      <trkpt lat="47.80739" lon="-3.39875">
        <ele>11.95</ele>
        <time>2020-07-10T11:18:52Z</time>
      </trkpt>
      <trkpt lat="47.80743" lon="-3.3988">
        <ele>10.79</ele>
        <time>2020-07-10T11:18:53Z</time>
      </trkpt>
      <trkpt lat="47.80749" lon="-3.39884">
        <ele>9.38</ele>
        <time>2020-07-10T11:18:54Z</time>
      </trkpt>
      <trkpt lat="47.80755" lon="-3.39888">
        <ele>8.8</ele>
        <time>2020-07-10T11:18:55Z</time>
      </trkpt>
      <trkpt lat="47.8076" lon="-3.39891">
        <ele>8.64</ele>
        <time>2020-07-10T11:18:56Z</time>
      </trkpt>
      <trkpt lat="47.80766" lon="-3.39893">
        <ele>8.62</ele>
        <time>2020-07-10T11:18:57Z</time>
      </trkpt>
      <trkpt lat="47.80769" lon="-3.39895">
        <ele>8.67</ele>
        <time>2020-07-10T11:18:58Z</time>
      </trkpt>
      <trkpt lat="47.80774" lon="-3.39898">
        <ele>8.82</ele>
        <time>2020-07-10T11:18:59Z</time>
      </trkpt>
      <trkpt lat="47.80777" lon="-3.399">
        <ele>8.98</ele>
        <time>2020-07-10T11:19:00Z</time>
      </trkpt>
      <trkpt lat="47.8078" lon="-3.39902">
        <ele>9.14</ele>
        <time>2020-07-10T11:19:01Z</time>
      </trkpt>
      <trkpt lat="47.80784" lon="-3.39904">
        <ele>9.29</ele>
        <time>2020-07-10T11:19:02Z</time>
      </trkpt>
      <trkpt lat="47.80788" lon="-3.39906">
        <ele>9.49</ele>
        <time>2020-07-10T11:19:03Z</time>
      </trkpt>
      <trkpt lat="47.80791" lon="-3.39908">
        <ele>9.6</ele>
        <time>2020-07-10T11:19:04Z</time>
      </trkpt>
      <trkpt lat="47.80794" lon="-3.3991">
        <ele>9.69</ele>
        <time>2020-07-10T11:19:05Z</time>
      </trkpt>
      <trkpt lat="47.80796" lon="-3.39911">
        <ele>9.79</ele>
        <time>2020-07-10T11:19:06Z</time>
      </trkpt>
      <trkpt lat="47.80797" lon="-3.39912">
        <ele>9.88</ele>
        <time>2020-07-10T11:19:07Z</time>
      </trkpt>
      <trkpt lat="47.80798" lon="-3.39913">
        <ele>9.94</ele>
        <time>2020-07-10T11:19:08Z</time>
      </trkpt>
      <trkpt lat="47.80799" lon="-3.39914">
        <ele>10.01</ele>
        <time>2020-07-10T11:19:09Z</time>
      </trkpt>
      <trkpt lat="47.80799" lon="-3.39914">
        <ele>10.05</ele>
        <time>2020-07-10T11:19:10Z</time>
      </trkpt>
      <trkpt lat="47.80799" lon="-3.39914">
        <ele>10.06</ele>
        <time>2020-07-10T11:19:11Z</time>
      </trkpt>
      <trkpt lat="47.80799" lon="-3.39914">
        <ele>10.06</ele>
        <time>2020-07-10T11:19:12Z</time>
      </trkpt>
      <trkpt lat="47.80799" lon="-3.39914">
        <ele>10.06</ele>
        <time>2020-07-10T11:19:13Z</time>
      </trkpt>
      <trkpt lat="47.80799" lon="-3.39914">
        <ele>10.07</ele>
        <time>2020-07-10T11:19:14Z</time>
      </trkpt>
      <trkpt lat="47.80799" lon="-3.39914">
        <ele>10.07</ele>
        <time>2020-07-10T11:19:15Z</time>
      </trkpt>
      <trkpt lat="47.80799" lon="-3.39914">
        <ele>10.07</ele>
        <time>2020-07-10T11:19:16Z</time>
      </trkpt>
      <trkpt lat="47.80799" lon="-3.39914">
        <ele>10.07</ele>
        <time>2020-07-10T11:19:17Z</time>
      </trkpt>
      <trkpt lat="47.80799" lon="-3.39914">
        <ele>10.07</ele>
        <time>2020-07-10T11:19:18Z</time>
      </trkpt>
      <trkpt lat="47.80799" lon="-3.39914">
        <ele>10.07</ele>
        <time>2020-07-10T11:19:19Z</time>
      </trkpt>
      <trkpt lat="47.80799" lon="-3.39914">
        <ele>10.07</ele>
        <time>2020-07-10T11:19:20Z</time>
      </trkpt>
      <trkpt lat="47.80799" lon="-3.39914">
        <ele>10.07</ele>
        <time>2020-07-10T11:19:21Z</time>
      </trkpt>
      <trkpt lat="47.80799" lon="-3.39914">
        <ele>10.07</ele>
        <time>2020-07-10T11:19:22Z</time>
      </trkpt>
      <trkpt lat="47.80799" lon="-3.39914">
        <ele>10.07</ele>
        <time>2020-07-10T11:19:23Z</time>
      </trkpt>
      <trkpt lat="47.80799" lon="-3.39914">
        <ele>10.07</ele>
        <time>2020-07-10T11:19:24Z</time>
      </trkpt>
      <trkpt lat="47.80799" lon="-3.39914">
        <ele>10.07</ele>
        <time>2020-07-10T11:19:25Z</time>
      </trkpt>
      <trkpt lat="47.80799" lon="-3.39914">
        <ele>10.07</ele>
        <time>2020-07-10T11:19:26Z</time>
      </trkpt>
      <trkpt lat="47.80799" lon="-3.39914">
        <ele>10.07</ele>
        <time>2020-07-10T11:19:27Z</time>
      </trkpt>
      <trkpt lat="47.80799" lon="-3.39914">
        <ele>10.07</ele>
        <time>2020-07-10T11:19:28Z</time>
      </trkpt>
      <trkpt lat="47.80799" lon="-3.39914">
        <ele>10.07</ele>
        <time>2020-07-10T11:19:29Z</time>
      </trkpt>
      <trkpt lat="47.80799" lon="-3.39914">
        <ele>10.07</ele>
        <time>2020-07-10T11:19:30Z</time>
      </trkpt>
      <trkpt lat="47.80804" lon="-3.39925">
        <ele>11.15</ele>
        <time>2020-07-10T11:19:31Z</time>
      </trkpt>
      <trkpt lat="47.80804" lon="-3.39925">
        <ele>11.47</ele>
        <time>2020-07-10T11:19:32Z</time>
      </trkpt>
      <trkpt lat="47.80805" lon="-3.39926">
        <ele>11.67</ele>
        <time>2020-07-10T11:19:33Z</time>
      </trkpt>
      <trkpt lat="47.80805" lon="-3.39927">
        <ele>11.87</ele>
        <time>2020-07-10T11:19:34Z</time>
      </trkpt>
      <trkpt lat="47.80805" lon="-3.39927">
        <ele>11.93</ele>
        <time>2020-07-10T11:19:35Z</time>
      </trkpt>
      <trkpt lat="47.80805" lon="-3.39927">
        <ele>11.95</ele>
        <time>2020-07-10T11:19:36Z</time>
      </trkpt>
      <trkpt lat="47.80805" lon="-3.39927">
        <ele>11.95</ele>
        <time>2020-07-10T11:19:37Z</time>
      </trkpt>
      <trkpt lat="47.80805" lon="-3.39927">
        <ele>11.95</ele>
        <time>2020-07-10T11:19:38Z</time>
      </trkpt>
      <trkpt lat="47.8081" lon="-3.39932">
        <ele>12.28</ele>
        <time>2020-07-10T11:19:39Z</time>
      </trkpt>
      <trkpt lat="47.80811" lon="-3.39933">
        <ele>12.43</ele>
        <time>2020-07-10T11:19:40Z</time>
      </trkpt>
      <trkpt lat="47.80812" lon="-3.39935">
        <ele>12.58</ele>
        <time>2020-07-10T11:19:41Z</time>
      </trkpt>
      <trkpt lat="47.80814" lon="-3.39936">
        <ele>12.68</ele>
        <time>2020-07-10T11:19:42Z</time>
      </trkpt>
      <trkpt lat="47.80816" lon="-3.39938">
        <ele>12.78</ele>
        <time>2020-07-10T11:19:43Z</time>
      </trkpt>
      <trkpt lat="47.80818" lon="-3.39939">
        <ele>12.72</ele>
        <time>2020-07-10T11:19:44Z</time>
      </trkpt>
      <trkpt lat="47.8082" lon="-3.39939">
        <ele>12.62</ele>
        <time>2020-07-10T11:19:45Z</time>
      </trkpt>
      <trkpt lat="47.80823" lon="-3.3994">
        <ele>12.47</ele>
        <time>2020-07-10T11:19:46Z</time>
      </trkpt>
      <trkpt lat="47.80825" lon="-3.39941">
        <ele>12.37</ele>
        <time>2020-07-10T11:19:47Z</time>
      </trkpt>
      <trkpt lat="47.80828" lon="-3.39942">
        <ele>12.27</ele>
        <time>2020-07-10T11:19:48Z</time>
      </trkpt>
      <trkpt lat="47.8083" lon="-3.39943">
        <ele>12.14</ele>
        <time>2020-07-10T11:19:49Z</time>
      </trkpt>
      <trkpt lat="47.80832" lon="-3.39944">
        <ele>12.09</ele>
        <time>2020-07-10T11:19:50Z</time>
      </trkpt>
      <trkpt lat="47.80835" lon="-3.39946">
        <ele>12.05</ele>
        <time>2020-07-10T11:19:51Z</time>
      </trkpt>
      <trkpt lat="47.80837" lon="-3.39947">
        <ele>11.95</ele>
        <time>2020-07-10T11:19:52Z</time>
      </trkpt>
      <trkpt lat="47.8084" lon="-3.39948">
        <ele>11.85</ele>
        <time>2020-07-10T11:19:53Z</time>
      </trkpt>
      <trkpt lat="47.80843" lon="-3.3995">
        <ele>11.78</ele>
        <time>2020-07-10T11:19:54Z</time>
      </trkpt>
      <trkpt lat="47.80846" lon="-3.39952">
        <ele>11.69</ele>
        <time>2020-07-10T11:19:55Z</time>
      </trkpt>
      <trkpt lat="47.80848" lon="-3.39954">
        <ele>11.64</ele>
        <time>2020-07-10T11:19:56Z</time>
      </trkpt>
      <trkpt lat="47.8085" lon="-3.39955">
        <ele>11.56</ele>
        <time>2020-07-10T11:19:57Z</time>
      </trkpt>
      <trkpt lat="47.80853" lon="-3.39957">
        <ele>11.42</ele>
        <time>2020-07-10T11:19:58Z</time>
      </trkpt>
      <trkpt lat="47.80856" lon="-3.39959">
        <ele>11.28</ele>
        <time>2020-07-10T11:19:59Z</time>
      </trkpt>
      <trkpt lat="47.80861" lon="-3.39962">
        <ele>11.11</ele>
        <time>2020-07-10T11:20:00Z</time>
      </trkpt>
      <trkpt lat="47.80865" lon="-3.39964">
        <ele>10.72</ele>
        <time>2020-07-10T11:20:01Z</time>
      </trkpt>
      <trkpt lat="47.80869" lon="-3.39967">
        <ele>10.29</ele>
        <time>2020-07-10T11:20:02Z</time>
      </trkpt>
      <trkpt lat="47.80872" lon="-3.3997">
        <ele>9.91</ele>
        <time>2020-07-10T11:20:03Z</time>
      </trkpt>
      <trkpt lat="47.80876" lon="-3.39973">
        <ele>9.58</ele>
        <time>2020-07-10T11:20:04Z</time>
      </trkpt>
      <trkpt lat="47.80879" lon="-3.39978">
        <ele>9.34</ele>
        <time>2020-07-10T11:20:05Z</time>
      </trkpt>
      <trkpt lat="47.80882" lon="-3.39982">
        <ele>9.16</ele>
        <time>2020-07-10T11:20:06Z</time>
      </trkpt>
      <trkpt lat="47.80884" lon="-3.39987">
        <ele>8.99</ele>
        <time>2020-07-10T11:20:07Z</time>
      </trkpt>
      <trkpt lat="47.80887" lon="-3.39991">
        <ele>8.86</ele>
        <time>2020-07-10T11:20:08Z</time>
      </trkpt>
      <trkpt lat="47.80889" lon="-3.39996">
        <ele>8.72</ele>
        <time>2020-07-10T11:20:09Z</time>
      </trkpt>
      <trkpt lat="47.8089" lon="-3.4">
        <ele>8.75</ele>
        <time>2020-07-10T11:20:10Z</time>
      </trkpt>
      <trkpt lat="47.80892" lon="-3.40004">
        <ele>8.87</ele>
        <time>2020-07-10T11:20:11Z</time>
      </trkpt>
      <trkpt lat="47.80893" lon="-3.40008">
        <ele>8.96</ele>
        <time>2020-07-10T11:20:12Z</time>
      </trkpt>
      <trkpt lat="47.80895" lon="-3.40012">
        <ele>9</ele>
        <time>2020-07-10T11:20:13Z</time>
      </trkpt>
      <trkpt lat="47.80897" lon="-3.40019">
        <ele>9.16</ele>
        <time>2020-07-10T11:20:14Z</time>
      </trkpt>
      <trkpt lat="47.80898" lon="-3.40025">
        <ele>9.32</ele>
        <time>2020-07-10T11:20:15Z</time>
      </trkpt>
      <trkpt lat="47.809" lon="-3.40033">
        <ele>9.48</ele>
        <time>2020-07-10T11:20:16Z</time>
      </trkpt>
      <trkpt lat="47.809" lon="-3.40039">
        <ele>9.55</ele>
        <time>2020-07-10T11:20:17Z</time>
      </trkpt>
      <trkpt lat="47.80901" lon="-3.40045">
        <ele>9.66</ele>
        <time>2020-07-10T11:20:18Z</time>
      </trkpt>
      <trkpt lat="47.80902" lon="-3.40051">
        <ele>9.65</ele>
        <time>2020-07-10T11:20:19Z</time>
      </trkpt>
      <trkpt lat="47.80902" lon="-3.40058">
        <ele>9.75</ele>
        <time>2020-07-10T11:20:20Z</time>
      </trkpt>
      <trkpt lat="47.80904" lon="-3.40066">
        <ele>9.71</ele>
        <time>2020-07-10T11:20:21Z</time>
      </trkpt>
      <trkpt lat="47.80905" lon="-3.40074">
        <ele>9.74</ele>
        <time>2020-07-10T11:20:22Z</time>
      </trkpt>
      <trkpt lat="47.80906" lon="-3.40081">
        <ele>9.73</ele>
        <time>2020-07-10T11:20:23Z</time>
      </trkpt>
      <trkpt lat="47.80908" lon="-3.4009">
        <ele>9.34</ele>
        <time>2020-07-10T11:20:24Z</time>
      </trkpt>
      <trkpt lat="47.80909" lon="-3.40099">
        <ele>8.98</ele>
        <time>2020-07-10T11:20:25Z</time>
      </trkpt>
      <trkpt lat="47.80909" lon="-3.40107">
        <ele>8.87</ele>
        <time>2020-07-10T11:20:26Z</time>
      </trkpt>
      <trkpt lat="47.80908" lon="-3.40115">
        <ele>9.02</ele>
        <time>2020-07-10T11:20:27Z</time>
      </trkpt>
      <trkpt lat="47.80907" lon="-3.40123">
        <ele>9.06</ele>
        <time>2020-07-10T11:20:28Z</time>
      </trkpt>
      <trkpt lat="47.80906" lon="-3.4013">
        <ele>9.23</ele>
        <time>2020-07-10T11:20:29Z</time>
      </trkpt>
      <trkpt lat="47.80905" lon="-3.40137">
        <ele>9.58</ele>
        <time>2020-07-10T11:20:30Z</time>
      </trkpt>
      <trkpt lat="47.80904" lon="-3.40143">
        <ele>9.81</ele>
        <time>2020-07-10T11:20:31Z</time>
      </trkpt>
      <trkpt lat="47.80903" lon="-3.4015">
        <ele>9.84</ele>
        <time>2020-07-10T11:20:32Z</time>
      </trkpt>
      <trkpt lat="47.80902" lon="-3.40157">
        <ele>10.03</ele>
        <time>2020-07-10T11:20:33Z</time>
      </trkpt>
      <trkpt lat="47.80901" lon="-3.40163">
        <ele>10.42</ele>
        <time>2020-07-10T11:20:34Z</time>
      </trkpt>
      <trkpt lat="47.80899" lon="-3.40169">
        <ele>10.9</ele>
        <time>2020-07-10T11:20:35Z</time>
      </trkpt>
      <trkpt lat="47.80897" lon="-3.40175">
        <ele>11.11</ele>
        <time>2020-07-10T11:20:36Z</time>
      </trkpt>
      <trkpt lat="47.80895" lon="-3.40181">
        <ele>11.21</ele>
        <time>2020-07-10T11:20:37Z</time>
      </trkpt>
      <trkpt lat="47.80894" lon="-3.40187">
        <ele>11.08</ele>
        <time>2020-07-10T11:20:38Z</time>
      </trkpt>
      <trkpt lat="47.80892" lon="-3.40193">
        <ele>10.9</ele>
        <time>2020-07-10T11:20:39Z</time>
      </trkpt>
      <trkpt lat="47.8089" lon="-3.402">
        <ele>10.74</ele>
        <time>2020-07-10T11:20:40Z</time>
      </trkpt>
      <trkpt lat="47.80889" lon="-3.40206">
        <ele>10.47</ele>
        <time>2020-07-10T11:20:41Z</time>
      </trkpt>
      <trkpt lat="47.80887" lon="-3.40214">
        <ele>10.1</ele>
        <time>2020-07-10T11:20:42Z</time>
      </trkpt>
      <trkpt lat="47.80885" lon="-3.4022">
        <ele>9.76</ele>
        <time>2020-07-10T11:20:43Z</time>
      </trkpt>
      <trkpt lat="47.80883" lon="-3.40227">
        <ele>9.73</ele>
        <time>2020-07-10T11:20:44Z</time>
      </trkpt>
      <trkpt lat="47.80881" lon="-3.40232">
        <ele>9.93</ele>
        <time>2020-07-10T11:20:45Z</time>
      </trkpt>
      <trkpt lat="47.80879" lon="-3.40238">
        <ele>10.14</ele>
        <time>2020-07-10T11:20:46Z</time>
      </trkpt>
      <trkpt lat="47.80877" lon="-3.40245">
        <ele>10.29</ele>
        <time>2020-07-10T11:20:47Z</time>
      </trkpt>
      <trkpt lat="47.80875" lon="-3.4025">
        <ele>10.49</ele>
        <time>2020-07-10T11:20:48Z</time>
      </trkpt>
      <trkpt lat="47.80872" lon="-3.40256">
        <ele>10.38</ele>
        <time>2020-07-10T11:20:49Z</time>
      </trkpt>
      <trkpt lat="47.8087" lon="-3.40261">
        <ele>10.43</ele>
        <time>2020-07-10T11:20:50Z</time>
      </trkpt>
      <trkpt lat="47.80866" lon="-3.40267">
        <ele>10.55</ele>
        <time>2020-07-10T11:20:51Z</time>
      </trkpt>
      <trkpt lat="47.80862" lon="-3.40272">
        <ele>10.83</ele>
        <time>2020-07-10T11:20:52Z</time>
      </trkpt>
      <trkpt lat="47.80858" lon="-3.40278">
        <ele>11.08</ele>
        <time>2020-07-10T11:20:53Z</time>
      </trkpt>
      <trkpt lat="47.80855" lon="-3.40284">
        <ele>11.48</ele>
        <time>2020-07-10T11:20:54Z</time>
      </trkpt>
      <trkpt lat="47.80851" lon="-3.40289">
        <ele>12.05</ele>
        <time>2020-07-10T11:20:55Z</time>
      </trkpt>
      <trkpt lat="47.80849" lon="-3.40294">
        <ele>12.45</ele>
        <time>2020-07-10T11:20:56Z</time>
      </trkpt>
      <trkpt lat="47.80846" lon="-3.40299">
        <ele>12.85</ele>
        <time>2020-07-10T11:20:57Z</time>
      </trkpt>
      <trkpt lat="47.80843" lon="-3.40305">
        <ele>13.31</ele>
        <time>2020-07-10T11:20:58Z</time>
      </trkpt>
      <trkpt lat="47.8084" lon="-3.40311">
        <ele>13.65</ele>
        <time>2020-07-10T11:20:59Z</time>
      </trkpt>
      <trkpt lat="47.80838" lon="-3.40317">
        <ele>13.78</ele>
        <time>2020-07-10T11:21:00Z</time>
      </trkpt>
      <trkpt lat="47.80836" lon="-3.40323">
        <ele>13.87</ele>
        <time>2020-07-10T11:21:01Z</time>
      </trkpt>
      <trkpt lat="47.80833" lon="-3.40328">
        <ele>13.99</ele>
        <time>2020-07-10T11:21:02Z</time>
      </trkpt>
      <trkpt lat="47.80831" lon="-3.40333">
        <ele>14.04</ele>
        <time>2020-07-10T11:21:03Z</time>
      </trkpt>
      <trkpt lat="47.80829" lon="-3.40337">
        <ele>14.11</ele>
        <time>2020-07-10T11:21:04Z</time>
      </trkpt>
      <trkpt lat="47.80828" lon="-3.40343">
        <ele>14.02</ele>
        <time>2020-07-10T11:21:05Z</time>
      </trkpt>
      <trkpt lat="47.80825" lon="-3.40349">
        <ele>13.94</ele>
        <time>2020-07-10T11:21:06Z</time>
      </trkpt>
      <trkpt lat="47.80822" lon="-3.40354">
        <ele>14</ele>
        <time>2020-07-10T11:21:07Z</time>
      </trkpt>
      <trkpt lat="47.80821" lon="-3.4036">
        <ele>13.66</ele>
        <time>2020-07-10T11:21:08Z</time>
      </trkpt>
      <trkpt lat="47.80819" lon="-3.40367">
        <ele>13.46</ele>
        <time>2020-07-10T11:21:09Z</time>
      </trkpt>
      <trkpt lat="47.80818" lon="-3.40372">
        <ele>13.36</ele>
        <time>2020-07-10T11:21:10Z</time>
      </trkpt>
      <trkpt lat="47.80816" lon="-3.40377">
        <ele>13.47</ele>
        <time>2020-07-10T11:21:11Z</time>
      </trkpt>
      <trkpt lat="47.80816" lon="-3.40382">
        <ele>13.34</ele>
        <time>2020-07-10T11:21:12Z</time>
      </trkpt>
      <trkpt lat="47.80814" lon="-3.40387">
        <ele>13.64</ele>
        <time>2020-07-10T11:21:13Z</time>
      </trkpt>
      <trkpt lat="47.80811" lon="-3.40391">
        <ele>14.04</ele>
        <time>2020-07-10T11:21:14Z</time>
      </trkpt>
      <trkpt lat="47.80809" lon="-3.40395">
        <ele>14.18</ele>
        <time>2020-07-10T11:21:15Z</time>
      </trkpt>
      <trkpt lat="47.80809" lon="-3.40401">
        <ele>13.81</ele>
        <time>2020-07-10T11:21:16Z</time>
      </trkpt>
      <trkpt lat="47.80808" lon="-3.40407">
        <ele>13.2</ele>
        <time>2020-07-10T11:21:17Z</time>
      </trkpt>
      <trkpt lat="47.80806" lon="-3.40413">
        <ele>12.78</ele>
        <time>2020-07-10T11:21:18Z</time>
      </trkpt>
      <trkpt lat="47.80804" lon="-3.40418">
        <ele>12.22</ele>
        <time>2020-07-10T11:21:19Z</time>
      </trkpt>
      <trkpt lat="47.80805" lon="-3.40424">
        <ele>11.47</ele>
        <time>2020-07-10T11:21:20Z</time>
      </trkpt>
      <trkpt lat="47.80806" lon="-3.40427">
        <ele>10.82</ele>
        <time>2020-07-10T11:21:21Z</time>
      </trkpt>
      <trkpt lat="47.80808" lon="-3.40429">
        <ele>10.13</ele>
        <time>2020-07-10T11:21:22Z</time>
      </trkpt>
      <trkpt lat="47.8081" lon="-3.4043">
        <ele>9.46</ele>
        <time>2020-07-10T11:21:23Z</time>
      </trkpt>
      <trkpt lat="47.80813" lon="-3.40431">
        <ele>8.76</ele>
        <time>2020-07-10T11:21:24Z</time>
      </trkpt>
      <trkpt lat="47.80817" lon="-3.40432">
        <ele>8</ele>
        <time>2020-07-10T11:21:25Z</time>
      </trkpt>
      <trkpt lat="47.80822" lon="-3.40432">
        <ele>7.11</ele>
        <time>2020-07-10T11:21:26Z</time>
      </trkpt>
      <trkpt lat="47.80826" lon="-3.40434">
        <ele>6.21</ele>
        <time>2020-07-10T11:21:27Z</time>
      </trkpt>
      <trkpt lat="47.8083" lon="-3.40435">
        <ele>5.48</ele>
        <time>2020-07-10T11:21:28Z</time>
      </trkpt>
      <trkpt lat="47.80834" lon="-3.40436">
        <ele>4.92</ele>
        <time>2020-07-10T11:21:29Z</time>
      </trkpt>
      <trkpt lat="47.80838" lon="-3.40438">
        <ele>4.79</ele>
        <time>2020-07-10T11:21:30Z</time>
      </trkpt>
      <trkpt lat="47.80842" lon="-3.40439">
        <ele>4.75</ele>
        <time>2020-07-10T11:21:31Z</time>
      </trkpt>
      <trkpt lat="47.80845" lon="-3.40441">
        <ele>4.79</ele>
        <time>2020-07-10T11:21:32Z</time>
      </trkpt>
      <trkpt lat="47.80849" lon="-3.40442">
        <ele>4.83</ele>
        <time>2020-07-10T11:21:33Z</time>
      </trkpt>
      <trkpt lat="47.80852" lon="-3.40443">
        <ele>4.89</ele>
        <time>2020-07-10T11:21:34Z</time>
      </trkpt>
      <trkpt lat="47.80856" lon="-3.40444">
        <ele>4.95</ele>
        <time>2020-07-10T11:21:35Z</time>
      </trkpt>
      <trkpt lat="47.80859" lon="-3.40445">
        <ele>4.99</ele>
        <time>2020-07-10T11:21:36Z</time>
      </trkpt>
      <trkpt lat="47.80862" lon="-3.40447">
        <ele>4.98</ele>
        <time>2020-07-10T11:21:37Z</time>
      </trkpt>
      <trkpt lat="47.80866" lon="-3.40447">
        <ele>4.88</ele>
        <time>2020-07-10T11:21:38Z</time>
      </trkpt>
      <trkpt lat="47.8087" lon="-3.40449">
        <ele>4.78</ele>
        <time>2020-07-10T11:21:39Z</time>
      </trkpt>
      <trkpt lat="47.80874" lon="-3.40451">
        <ele>4.69</ele>
        <time>2020-07-10T11:21:40Z</time>
      </trkpt>
      <trkpt lat="47.80878" lon="-3.40452">
        <ele>4.6</ele>
        <time>2020-07-10T11:21:41Z</time>
      </trkpt>
      <trkpt lat="47.80883" lon="-3.40454">
        <ele>4.52</ele>
        <time>2020-07-10T11:21:42Z</time>
      </trkpt>
      <trkpt lat="47.80887" lon="-3.40455">
        <ele>4.44</ele>
        <time>2020-07-10T11:21:43Z</time>
      </trkpt>
      <trkpt lat="47.80891" lon="-3.40455">
        <ele>4.53</ele>
        <time>2020-07-10T11:21:44Z</time>
      </trkpt>
      <trkpt lat="47.80894" lon="-3.40455">
        <ele>4.8</ele>
        <time>2020-07-10T11:21:45Z</time>
      </trkpt>
      <trkpt lat="47.80898" lon="-3.40455">
        <ele>5.13</ele>
        <time>2020-07-10T11:21:46Z</time>
      </trkpt>
      <trkpt lat="47.80901" lon="-3.40453">
        <ele>5.39</ele>
        <time>2020-07-10T11:21:47Z</time>
      </trkpt>
      <trkpt lat="47.80905" lon="-3.40451">
        <ele>5.6</ele>
        <time>2020-07-10T11:21:48Z</time>
      </trkpt>
      <trkpt lat="47.80908" lon="-3.40448">
        <ele>5.67</ele>
        <time>2020-07-10T11:21:49Z</time>
      </trkpt>
      <trkpt lat="47.80912" lon="-3.40443">
        <ele>5.62</ele>
        <time>2020-07-10T11:21:50Z</time>
      </trkpt>
      <trkpt lat="47.80914" lon="-3.40438">
        <ele>5.62</ele>
        <time>2020-07-10T11:21:51Z</time>
      </trkpt>
      <trkpt lat="47.80917" lon="-3.40434">
        <ele>5.66</ele>
        <time>2020-07-10T11:21:52Z</time>
      </trkpt>
      <trkpt lat="47.80919" lon="-3.40429">
        <ele>5.88</ele>
        <time>2020-07-10T11:21:53Z</time>
      </trkpt>
      <trkpt lat="47.80921" lon="-3.40426">
        <ele>6.06</ele>
        <time>2020-07-10T11:21:54Z</time>
      </trkpt>
      <trkpt lat="47.80923" lon="-3.40422">
        <ele>6.2</ele>
        <time>2020-07-10T11:21:55Z</time>
      </trkpt>
      <trkpt lat="47.80925" lon="-3.40418">
        <ele>6.29</ele>
        <time>2020-07-10T11:21:56Z</time>
      </trkpt>
      <trkpt lat="47.80927" lon="-3.40415">
        <ele>6.35</ele>
        <time>2020-07-10T11:21:57Z</time>
      </trkpt>
      <trkpt lat="47.80929" lon="-3.40412">
        <ele>6.45</ele>
        <time>2020-07-10T11:21:58Z</time>
      </trkpt>
      <trkpt lat="47.80932" lon="-3.40409">
        <ele>6.53</ele>
        <time>2020-07-10T11:21:59Z</time>
      </trkpt>
      <trkpt lat="47.80934" lon="-3.40405">
        <ele>6.56</ele>
        <time>2020-07-10T11:22:00Z</time>
      </trkpt>
      <trkpt lat="47.80937" lon="-3.40401">
        <ele>6.55</ele>
        <time>2020-07-10T11:22:01Z</time>
      </trkpt>
      <trkpt lat="47.80939" lon="-3.40397">
        <ele>6.42</ele>
        <time>2020-07-10T11:22:02Z</time>
      </trkpt>
      <trkpt lat="47.80942" lon="-3.40392">
        <ele>6.27</ele>
        <time>2020-07-10T11:22:03Z</time>
      </trkpt>
      <trkpt lat="47.80945" lon="-3.40388">
        <ele>6.11</ele>
        <time>2020-07-10T11:22:04Z</time>
      </trkpt>
      <trkpt lat="47.80947" lon="-3.40384">
        <ele>6.16</ele>
        <time>2020-07-10T11:22:05Z</time>
      </trkpt>
      <trkpt lat="47.8095" lon="-3.4038">
        <ele>6.28</ele>
        <time>2020-07-10T11:22:06Z</time>
      </trkpt>
      <trkpt lat="47.80954" lon="-3.40375">
        <ele>6.34</ele>
        <time>2020-07-10T11:22:07Z</time>
      </trkpt>
      <trkpt lat="47.80957" lon="-3.4037">
        <ele>6.35</ele>
        <time>2020-07-10T11:22:08Z</time>
      </trkpt>
      <trkpt lat="47.8096" lon="-3.40366">
        <ele>6.29</ele>
        <time>2020-07-10T11:22:09Z</time>
      </trkpt>
      <trkpt lat="47.80964" lon="-3.40363">
        <ele>6.33</ele>
        <time>2020-07-10T11:22:10Z</time>
      </trkpt>
      <trkpt lat="47.80968" lon="-3.4036">
        <ele>6.4</ele>
        <time>2020-07-10T11:22:11Z</time>
      </trkpt>
      <trkpt lat="47.80971" lon="-3.40357">
        <ele>6.43</ele>
        <time>2020-07-10T11:22:12Z</time>
      </trkpt>
      <trkpt lat="47.80974" lon="-3.40354">
        <ele>6.45</ele>
        <time>2020-07-10T11:22:13Z</time>
      </trkpt>
      <trkpt lat="47.80977" lon="-3.40352">
        <ele>6.55</ele>
        <time>2020-07-10T11:22:14Z</time>
      </trkpt>
      <trkpt lat="47.80981" lon="-3.40348">
        <ele>6.55</ele>
        <time>2020-07-10T11:22:15Z</time>
      </trkpt>
      <trkpt lat="47.80985" lon="-3.40344">
        <ele>6.48</ele>
        <time>2020-07-10T11:22:16Z</time>
      </trkpt>
      <trkpt lat="47.80988" lon="-3.40341">
        <ele>6.36</ele>
        <time>2020-07-10T11:22:17Z</time>
      </trkpt>
      <trkpt lat="47.80992" lon="-3.40338">
        <ele>6.2</ele>
        <time>2020-07-10T11:22:18Z</time>
      </trkpt>
      <trkpt lat="47.80995" lon="-3.40334">
        <ele>5.9</ele>
        <time>2020-07-10T11:22:19Z</time>
      </trkpt>
      <trkpt lat="47.80999" lon="-3.40331">
        <ele>5.76</ele>
        <time>2020-07-10T11:22:20Z</time>
      </trkpt>
      <trkpt lat="47.81002" lon="-3.40327">
        <ele>5.96</ele>
        <time>2020-07-10T11:22:21Z</time>
      </trkpt>
      <trkpt lat="47.81006" lon="-3.40323">
        <ele>6.34</ele>
        <time>2020-07-10T11:22:22Z</time>
      </trkpt>
      <trkpt lat="47.81009" lon="-3.4032">
        <ele>6.75</ele>
        <time>2020-07-10T11:22:23Z</time>
      </trkpt>
      <trkpt lat="47.81012" lon="-3.40317">
        <ele>6.97</ele>
        <time>2020-07-10T11:22:24Z</time>
      </trkpt>
      <trkpt lat="47.81015" lon="-3.40313">
        <ele>7.17</ele>
        <time>2020-07-10T11:22:25Z</time>
      </trkpt>
      <trkpt lat="47.81019" lon="-3.40311">
        <ele>7.46</ele>
        <time>2020-07-10T11:22:26Z</time>
      </trkpt>
      <trkpt lat="47.81023" lon="-3.40308">
        <ele>7.63</ele>
        <time>2020-07-10T11:22:27Z</time>
      </trkpt>
      <trkpt lat="47.81026" lon="-3.40306">
        <ele>7.82</ele>
        <time>2020-07-10T11:22:28Z</time>
      </trkpt>
      <trkpt lat="47.8103" lon="-3.40306">
        <ele>8.11</ele>
        <time>2020-07-10T11:22:29Z</time>
      </trkpt>
      <trkpt lat="47.81034" lon="-3.40304">
        <ele>8.39</ele>
        <time>2020-07-10T11:22:30Z</time>
      </trkpt>
      <trkpt lat="47.81038" lon="-3.40303">
        <ele>8.66</ele>
        <time>2020-07-10T11:22:31Z</time>
      </trkpt>
      <trkpt lat="47.81042" lon="-3.40302">
        <ele>9</ele>
        <time>2020-07-10T11:22:32Z</time>
      </trkpt>
      <trkpt lat="47.81046" lon="-3.40303">
        <ele>9.5</ele>
        <time>2020-07-10T11:22:33Z</time>
      </trkpt>
      <trkpt lat="47.8105" lon="-3.40306">
        <ele>10.17</ele>
        <time>2020-07-10T11:22:34Z</time>
      </trkpt>
      <trkpt lat="47.81054" lon="-3.40309">
        <ele>11.06</ele>
        <time>2020-07-10T11:22:35Z</time>
      </trkpt>
      <trkpt lat="47.81058" lon="-3.40312">
        <ele>11.98</ele>
        <time>2020-07-10T11:22:36Z</time>
      </trkpt>
      <trkpt lat="47.81061" lon="-3.40316">
        <ele>12.75</ele>
        <time>2020-07-10T11:22:37Z</time>
      </trkpt>
      <trkpt lat="47.81064" lon="-3.4032">
        <ele>13.41</ele>
        <time>2020-07-10T11:22:38Z</time>
      </trkpt>
      <trkpt lat="47.81067" lon="-3.40325">
        <ele>13.92</ele>
        <time>2020-07-10T11:22:39Z</time>
      </trkpt>
      <trkpt lat="47.81069" lon="-3.40329">
        <ele>14.36</ele>
        <time>2020-07-10T11:22:40Z</time>
      </trkpt>
      <trkpt lat="47.81071" lon="-3.40333">
        <ele>14.67</ele>
        <time>2020-07-10T11:22:41Z</time>
      </trkpt>
      <trkpt lat="47.81072" lon="-3.40337">
        <ele>15.01</ele>
        <time>2020-07-10T11:22:42Z</time>
      </trkpt>
      <trkpt lat="47.81074" lon="-3.40342">
        <ele>15.38</ele>
        <time>2020-07-10T11:22:43Z</time>
      </trkpt>
      <trkpt lat="47.81077" lon="-3.40347">
        <ele>15.64</ele>
        <time>2020-07-10T11:22:44Z</time>
      </trkpt>
      <trkpt lat="47.81079" lon="-3.40352">
        <ele>15.8</ele>
        <time>2020-07-10T11:22:45Z</time>
      </trkpt>
      <trkpt lat="47.81082" lon="-3.40356">
        <ele>15.85</ele>
        <time>2020-07-10T11:22:46Z</time>
      </trkpt>
      <trkpt lat="47.81083" lon="-3.4036">
        <ele>15.88</ele>
        <time>2020-07-10T11:22:47Z</time>
      </trkpt>
      <trkpt lat="47.81085" lon="-3.40364">
        <ele>16.27</ele>
        <time>2020-07-10T11:22:48Z</time>
      </trkpt>
      <trkpt lat="47.81087" lon="-3.40367">
        <ele>16.77</ele>
        <time>2020-07-10T11:22:49Z</time>
      </trkpt>
      <trkpt lat="47.81089" lon="-3.4037">
        <ele>17.17</ele>
        <time>2020-07-10T11:22:50Z</time>
      </trkpt>
      <trkpt lat="47.81091" lon="-3.40374">
        <ele>17.54</ele>
        <time>2020-07-10T11:22:51Z</time>
      </trkpt>
      <trkpt lat="47.81094" lon="-3.40379">
        <ele>17.8</ele>
        <time>2020-07-10T11:22:52Z</time>
      </trkpt>
      <trkpt lat="47.81097" lon="-3.40383">
        <ele>17.89</ele>
        <time>2020-07-10T11:22:53Z</time>
      </trkpt>
      <trkpt lat="47.81101" lon="-3.40387">
        <ele>17.75</ele>
        <time>2020-07-10T11:22:54Z</time>
      </trkpt>
      <trkpt lat="47.81104" lon="-3.40391">
        <ele>17.65</ele>
        <time>2020-07-10T11:22:55Z</time>
      </trkpt>
      <trkpt lat="47.81106" lon="-3.40395">
        <ele>17.59</ele>
        <time>2020-07-10T11:22:56Z</time>
      </trkpt>
      <trkpt lat="47.81109" lon="-3.40399">
        <ele>17.56</ele>
        <time>2020-07-10T11:22:57Z</time>
      </trkpt>
      <trkpt lat="47.81111" lon="-3.40403">
        <ele>17.6</ele>
        <time>2020-07-10T11:22:58Z</time>
      </trkpt>
      <trkpt lat="47.81113" lon="-3.40407">
        <ele>17.92</ele>
        <time>2020-07-10T11:22:59Z</time>
      </trkpt>
      <trkpt lat="47.81115" lon="-3.4041">
        <ele>18.38</ele>
        <time>2020-07-10T11:23:00Z</time>
      </trkpt>
      <trkpt lat="47.81117" lon="-3.40414">
        <ele>18.82</ele>
        <time>2020-07-10T11:23:01Z</time>
      </trkpt>
      <trkpt lat="47.81117" lon="-3.40418">
        <ele>19.16</ele>
        <time>2020-07-10T11:23:02Z</time>
      </trkpt>
      <trkpt lat="47.81119" lon="-3.40421">
        <ele>19.47</ele>
        <time>2020-07-10T11:23:03Z</time>
      </trkpt>
      <trkpt lat="47.8112" lon="-3.40422">
        <ele>19.67</ele>
        <time>2020-07-10T11:23:04Z</time>
      </trkpt>
      <trkpt lat="47.81122" lon="-3.40425">
        <ele>19.86</ele>
        <time>2020-07-10T11:23:05Z</time>
      </trkpt>
      <trkpt lat="47.81123" lon="-3.40426">
        <ele>19.97</ele>
        <time>2020-07-10T11:23:06Z</time>
      </trkpt>
      <trkpt lat="47.81123" lon="-3.40426">
        <ele>20.01</ele>
        <time>2020-07-10T11:23:07Z</time>
      </trkpt>
      <trkpt lat="47.81124" lon="-3.40426">
        <ele>20.02</ele>
        <time>2020-07-10T11:23:08Z</time>
      </trkpt>
      <trkpt lat="47.81124" lon="-3.40426">
        <ele>20.02</ele>
        <time>2020-07-10T11:23:09Z</time>
      </trkpt>
      <trkpt lat="47.81124" lon="-3.40426">
        <ele>20.02</ele>
        <time>2020-07-10T11:23:10Z</time>
      </trkpt>
      <trkpt lat="47.81124" lon="-3.40426">
        <ele>20.02</ele>
        <time>2020-07-10T11:23:11Z</time>
      </trkpt>
      <trkpt lat="47.81124" lon="-3.40426">
        <ele>20.02</ele>
        <time>2020-07-10T11:23:12Z</time>
      </trkpt>
      <trkpt lat="47.81124" lon="-3.40426">
        <ele>20.02</ele>
        <time>2020-07-10T11:23:13Z</time>
      </trkpt>
      <trkpt lat="47.81124" lon="-3.40426">
        <ele>20.02</ele>
        <time>2020-07-10T11:23:14Z</time>
      </trkpt>
      <trkpt lat="47.81124" lon="-3.40426">
        <ele>20.02</ele>
        <time>2020-07-10T11:23:15Z</time>
      </trkpt>
      <trkpt lat="47.81124" lon="-3.40426">
        <ele>20.02</ele>
        <time>2020-07-10T11:23:16Z</time>
      </trkpt>
      <trkpt lat="47.81124" lon="-3.40426">
        <ele>20.02</ele>
        <time>2020-07-10T11:23:17Z</time>
      </trkpt>
      <trkpt lat="47.81124" lon="-3.40426">
        <ele>20.02</ele>
        <time>2020-07-10T11:23:18Z</time>
      </trkpt>
      <trkpt lat="47.81124" lon="-3.40426">
        <ele>20.02</ele>
        <time>2020-07-10T11:23:19Z</time>
      </trkpt>
      <trkpt lat="47.81124" lon="-3.40426">
        <ele>20.02</ele>
        <time>2020-07-10T11:23:20Z</time>
      </trkpt>
      <trkpt lat="47.81124" lon="-3.40426">
        <ele>20.02</ele>
        <time>2020-07-10T11:23:21Z</time>
      </trkpt>
      <trkpt lat="47.81124" lon="-3.40426">
        <ele>20.02</ele>
        <time>2020-07-10T11:23:22Z</time>
      </trkpt>
      <trkpt lat="47.81124" lon="-3.40426">
        <ele>20.02</ele>
        <time>2020-07-10T11:23:23Z</time>
      </trkpt>
      <trkpt lat="47.81124" lon="-3.40426">
        <ele>20.02</ele>
        <time>2020-07-10T11:23:24Z</time>
      </trkpt>
      <trkpt lat="47.81124" lon="-3.40426">
        <ele>20.02</ele>
        <time>2020-07-10T11:23:25Z</time>
      </trkpt>
      <trkpt lat="47.81124" lon="-3.40426">
        <ele>20.02</ele>
        <time>2020-07-10T11:23:26Z</time>
      </trkpt>
      <trkpt lat="47.81124" lon="-3.40426">
        <ele>20.02</ele>
        <time>2020-07-10T11:23:27Z</time>
      </trkpt>
      <trkpt lat="47.81124" lon="-3.40426">
        <ele>20.02</ele>
        <time>2020-07-10T11:23:28Z</time>
      </trkpt>
      <trkpt lat="47.81124" lon="-3.40426">
        <ele>20.02</ele>
        <time>2020-07-10T11:23:29Z</time>
      </trkpt>
      <trkpt lat="47.81124" lon="-3.40426">
        <ele>20.02</ele>
        <time>2020-07-10T11:23:30Z</time>
      </trkpt>
      <trkpt lat="47.81124" lon="-3.40426">
        <ele>20.02</ele>
        <time>2020-07-10T11:23:31Z</time>
      </trkpt>
      <trkpt lat="47.81124" lon="-3.40426">
        <ele>20.02</ele>
        <time>2020-07-10T11:23:32Z</time>
      </trkpt>
      <trkpt lat="47.81124" lon="-3.40426">
        <ele>20.02</ele>
        <time>2020-07-10T11:23:33Z</time>
      </trkpt>
      <trkpt lat="47.81124" lon="-3.40426">
        <ele>20.02</ele>
        <time>2020-07-10T11:23:34Z</time>
      </trkpt>
      <trkpt lat="47.81124" lon="-3.40426">
        <ele>20.02</ele>
        <time>2020-07-10T11:23:35Z</time>
      </trkpt>
      <trkpt lat="47.81124" lon="-3.40426">
        <ele>20.02</ele>
        <time>2020-07-10T11:23:36Z</time>
      </trkpt>
      <trkpt lat="47.81124" lon="-3.40426">
        <ele>20.02</ele>
        <time>2020-07-10T11:23:37Z</time>
      </trkpt>
      <trkpt lat="47.81124" lon="-3.40426">
        <ele>20.02</ele>
        <time>2020-07-10T11:23:38Z</time>
      </trkpt>
      <trkpt lat="47.81124" lon="-3.40426">
        <ele>20.02</ele>
        <time>2020-07-10T11:23:39Z</time>
      </trkpt>
      <trkpt lat="47.81124" lon="-3.40426">
        <ele>20.02</ele>
        <time>2020-07-10T11:23:40Z</time>
      </trkpt>
      <trkpt lat="47.81124" lon="-3.40426">
        <ele>20.02</ele>
        <time>2020-07-10T11:23:41Z</time>
      </trkpt>
      <trkpt lat="47.81124" lon="-3.40426">
        <ele>20.02</ele>
        <time>2020-07-10T11:23:42Z</time>
      </trkpt>
      <trkpt lat="47.81124" lon="-3.40426">
        <ele>20.02</ele>
        <time>2020-07-10T11:23:43Z</time>
      </trkpt>
      <trkpt lat="47.81124" lon="-3.40426">
        <ele>20.02</ele>
        <time>2020-07-10T11:23:44Z</time>
      </trkpt>
      <trkpt lat="47.81124" lon="-3.40426">
        <ele>20.02</ele>
        <time>2020-07-10T11:23:45Z</time>
      </trkpt>
      <trkpt lat="47.81124" lon="-3.40426">
        <ele>20.02</ele>
        <time>2020-07-10T11:23:46Z</time>
      </trkpt>
      <trkpt lat="47.81124" lon="-3.40426">
        <ele>20.02</ele>
        <time>2020-07-10T11:23:47Z</time>
      </trkpt>
      <trkpt lat="47.81124" lon="-3.40426">
        <ele>20.02</ele>
        <time>2020-07-10T11:23:48Z</time>
      </trkpt>
      <trkpt lat="47.81124" lon="-3.40426">
        <ele>20.02</ele>
        <time>2020-07-10T11:23:49Z</time>
      </trkpt>
      <trkpt lat="47.81124" lon="-3.40426">
        <ele>20.02</ele>
        <time>2020-07-10T11:23:50Z</time>
      </trkpt>
      <trkpt lat="47.81124" lon="-3.40426">
        <ele>20.02</ele>
        <time>2020-07-10T11:23:51Z</time>
      </trkpt>
      <trkpt lat="47.81124" lon="-3.40426">
        <ele>20.02</ele>
        <time>2020-07-10T11:23:52Z</time>
      </trkpt>
      <trkpt lat="47.81124" lon="-3.40426">
        <ele>20.02</ele>
        <time>2020-07-10T11:23:53Z</time>
      </trkpt>
      <trkpt lat="47.81124" lon="-3.40426">
        <ele>20.02</ele>
        <time>2020-07-10T11:23:54Z</time>
      </trkpt>
      <trkpt lat="47.81124" lon="-3.40426">
        <ele>20.02</ele>
        <time>2020-07-10T11:23:55Z</time>
      </trkpt>
      <trkpt lat="47.81124" lon="-3.40426">
        <ele>20.02</ele>
        <time>2020-07-10T11:23:56Z</time>
      </trkpt>
      <trkpt lat="47.81124" lon="-3.40426">
        <ele>20.02</ele>
        <time>2020-07-10T11:23:57Z</time>
      </trkpt>
      <trkpt lat="47.81124" lon="-3.40426">
        <ele>20.02</ele>
        <time>2020-07-10T11:23:58Z</time>
      </trkpt>
      <trkpt lat="47.81124" lon="-3.40426">
        <ele>20.02</ele>
        <time>2020-07-10T11:23:59Z</time>
      </trkpt>
      <trkpt lat="47.81124" lon="-3.40426">
        <ele>20.02</ele>
        <time>2020-07-10T11:24:00Z</time>
      </trkpt>
      <trkpt lat="47.81124" lon="-3.40426">
        <ele>20.02</ele>
        <time>2020-07-10T11:24:01Z</time>
      </trkpt>
      <trkpt lat="47.81123" lon="-3.40433">
        <ele>20.3</ele>
        <time>2020-07-10T11:24:02Z</time>
      </trkpt>
      <trkpt lat="47.81125" lon="-3.40435">
        <ele>20.41</ele>
        <time>2020-07-10T11:24:03Z</time>
      </trkpt>
      <trkpt lat="47.81126" lon="-3.40437">
        <ele>20.51</ele>
        <time>2020-07-10T11:24:04Z</time>
      </trkpt>
      <trkpt lat="47.81127" lon="-3.4044">
        <ele>20.6</ele>
        <time>2020-07-10T11:24:05Z</time>
      </trkpt>
      <trkpt lat="47.81127" lon="-3.40443">
        <ele>20.72</ele>
        <time>2020-07-10T11:24:06Z</time>
      </trkpt>
      <trkpt lat="47.81128" lon="-3.40447">
        <ele>20.91</ele>
        <time>2020-07-10T11:24:07Z</time>
      </trkpt>
      <trkpt lat="47.81128" lon="-3.40451">
        <ele>21.21</ele>
        <time>2020-07-10T11:24:08Z</time>
      </trkpt>
      <trkpt lat="47.81129" lon="-3.40455">
        <ele>21.5</ele>
        <time>2020-07-10T11:24:09Z</time>
      </trkpt>
      <trkpt lat="47.8113" lon="-3.40459">
        <ele>21.74</ele>
        <time>2020-07-10T11:24:10Z</time>
      </trkpt>
      <trkpt lat="47.81131" lon="-3.40464">
        <ele>21.89</ele>
        <time>2020-07-10T11:24:11Z</time>
      </trkpt>
      <trkpt lat="47.81133" lon="-3.40468">
        <ele>21.98</ele>
        <time>2020-07-10T11:24:12Z</time>
      </trkpt>
      <trkpt lat="47.81135" lon="-3.40473">
        <ele>21.96</ele>
        <time>2020-07-10T11:24:13Z</time>
      </trkpt>
      <trkpt lat="47.81137" lon="-3.40479">
        <ele>22.01</ele>
        <time>2020-07-10T11:24:14Z</time>
      </trkpt>
      <trkpt lat="47.81138" lon="-3.40484">
        <ele>22</ele>
        <time>2020-07-10T11:24:15Z</time>
      </trkpt>
      <trkpt lat="47.8114" lon="-3.40487">
        <ele>22.06</ele>
        <time>2020-07-10T11:24:16Z</time>
      </trkpt>
      <trkpt lat="47.81142" lon="-3.4049">
        <ele>22.19</ele>
        <time>2020-07-10T11:24:17Z</time>
      </trkpt>
      <trkpt lat="47.81143" lon="-3.40493">
        <ele>22.34</ele>
        <time>2020-07-10T11:24:18Z</time>
      </trkpt>
      <trkpt lat="47.81144" lon="-3.40495">
        <ele>22.48</ele>
        <time>2020-07-10T11:24:19Z</time>
      </trkpt>
      <trkpt lat="47.81145" lon="-3.40498">
        <ele>22.6</ele>
        <time>2020-07-10T11:24:20Z</time>
      </trkpt>
      <trkpt lat="47.81146" lon="-3.40501">
        <ele>22.77</ele>
        <time>2020-07-10T11:24:21Z</time>
      </trkpt>
      <trkpt lat="47.81146" lon="-3.40505">
        <ele>23.04</ele>
        <time>2020-07-10T11:24:22Z</time>
      </trkpt>
      <trkpt lat="47.81147" lon="-3.40508">
        <ele>23.32</ele>
        <time>2020-07-10T11:24:23Z</time>
      </trkpt>
      <trkpt lat="47.81149" lon="-3.40512">
        <ele>23.55</ele>
        <time>2020-07-10T11:24:24Z</time>
      </trkpt>
      <trkpt lat="47.8115" lon="-3.40516">
        <ele>23.76</ele>
        <time>2020-07-10T11:24:25Z</time>
      </trkpt>
      <trkpt lat="47.81151" lon="-3.4052">
        <ele>23.97</ele>
        <time>2020-07-10T11:24:26Z</time>
      </trkpt>
      <trkpt lat="47.81153" lon="-3.40523">
        <ele>24.1</ele>
        <time>2020-07-10T11:24:27Z</time>
      </trkpt>
      <trkpt lat="47.81154" lon="-3.40527">
        <ele>24.24</ele>
        <time>2020-07-10T11:24:28Z</time>
      </trkpt>
      <trkpt lat="47.81155" lon="-3.4053">
        <ele>24.34</ele>
        <time>2020-07-10T11:24:29Z</time>
      </trkpt>
      <trkpt lat="47.81156" lon="-3.40533">
        <ele>24.36</ele>
        <time>2020-07-10T11:24:30Z</time>
      </trkpt>
      <trkpt lat="47.81158" lon="-3.40536">
        <ele>24.34</ele>
        <time>2020-07-10T11:24:31Z</time>
      </trkpt>
      <trkpt lat="47.81159" lon="-3.40539">
        <ele>24.32</ele>
        <time>2020-07-10T11:24:32Z</time>
      </trkpt>
      <trkpt lat="47.8116" lon="-3.40543">
        <ele>24.29</ele>
        <time>2020-07-10T11:24:33Z</time>
      </trkpt>
      <trkpt lat="47.81161" lon="-3.40547">
        <ele>24.19</ele>
        <time>2020-07-10T11:24:34Z</time>
      </trkpt>
      <trkpt lat="47.81163" lon="-3.40552">
        <ele>24.01</ele>
        <time>2020-07-10T11:24:35Z</time>
      </trkpt>
      <trkpt lat="47.81163" lon="-3.40557">
        <ele>24</ele>
        <time>2020-07-10T11:24:36Z</time>
      </trkpt>
      <trkpt lat="47.81166" lon="-3.40562">
        <ele>23.69</ele>
        <time>2020-07-10T11:24:37Z</time>
      </trkpt>
      <trkpt lat="47.81169" lon="-3.40567">
        <ele>23.88</ele>
        <time>2020-07-10T11:24:38Z</time>
      </trkpt>
      <trkpt lat="47.81171" lon="-3.40573">
        <ele>24.23</ele>
        <time>2020-07-10T11:24:39Z</time>
      </trkpt>
      <trkpt lat="47.81174" lon="-3.40579">
        <ele>24.51</ele>
        <time>2020-07-10T11:24:40Z</time>
      </trkpt>
      <trkpt lat="47.81176" lon="-3.40585">
        <ele>24.73</ele>
        <time>2020-07-10T11:24:41Z</time>
      </trkpt>
      <trkpt lat="47.81179" lon="-3.4059">
        <ele>25.08</ele>
        <time>2020-07-10T11:24:42Z</time>
      </trkpt>
      <trkpt lat="47.81181" lon="-3.40596">
        <ele>25.41</ele>
        <time>2020-07-10T11:24:43Z</time>
      </trkpt>
      <trkpt lat="47.81184" lon="-3.406">
        <ele>25.58</ele>
        <time>2020-07-10T11:24:44Z</time>
      </trkpt>
      <trkpt lat="47.81188" lon="-3.40605">
        <ele>25.58</ele>
        <time>2020-07-10T11:24:45Z</time>
      </trkpt>
      <trkpt lat="47.81192" lon="-3.4061">
        <ele>25.42</ele>
        <time>2020-07-10T11:24:46Z</time>
      </trkpt>
      <trkpt lat="47.81195" lon="-3.40614">
        <ele>25.29</ele>
        <time>2020-07-10T11:24:47Z</time>
      </trkpt>
      <trkpt lat="47.81198" lon="-3.40618">
        <ele>25.49</ele>
        <time>2020-07-10T11:24:48Z</time>
      </trkpt>
      <trkpt lat="47.81201" lon="-3.40622">
        <ele>25.72</ele>
        <time>2020-07-10T11:24:49Z</time>
      </trkpt>
      <trkpt lat="47.81204" lon="-3.40626">
        <ele>25.94</ele>
        <time>2020-07-10T11:24:50Z</time>
      </trkpt>
      <trkpt lat="47.81207" lon="-3.4063">
        <ele>26.11</ele>
        <time>2020-07-10T11:24:51Z</time>
      </trkpt>
      <trkpt lat="47.8121" lon="-3.40633">
        <ele>26.21</ele>
        <time>2020-07-10T11:24:52Z</time>
      </trkpt>
      <trkpt lat="47.81214" lon="-3.40638">
        <ele>26.25</ele>
        <time>2020-07-10T11:24:53Z</time>
      </trkpt>
      <trkpt lat="47.81218" lon="-3.40643">
        <ele>26.35</ele>
        <time>2020-07-10T11:24:54Z</time>
      </trkpt>
      <trkpt lat="47.8122" lon="-3.40648">
        <ele>26.48</ele>
        <time>2020-07-10T11:24:55Z</time>
      </trkpt>
      <trkpt lat="47.81222" lon="-3.40654">
        <ele>26.52</ele>
        <time>2020-07-10T11:24:56Z</time>
      </trkpt>
      <trkpt lat="47.81225" lon="-3.40658">
        <ele>26.78</ele>
        <time>2020-07-10T11:24:57Z</time>
      </trkpt>
      <trkpt lat="47.81227" lon="-3.40665">
        <ele>27.03</ele>
        <time>2020-07-10T11:24:58Z</time>
      </trkpt>
      <trkpt lat="47.81229" lon="-3.4067">
        <ele>27.31</ele>
        <time>2020-07-10T11:24:59Z</time>
      </trkpt>
      <trkpt lat="47.8123" lon="-3.40675">
        <ele>27.64</ele>
        <time>2020-07-10T11:25:00Z</time>
      </trkpt>
      <trkpt lat="47.8123" lon="-3.40679">
        <ele>27.94</ele>
        <time>2020-07-10T11:25:01Z</time>
      </trkpt>
      <trkpt lat="47.8123" lon="-3.40684">
        <ele>28.25</ele>
        <time>2020-07-10T11:25:02Z</time>
      </trkpt>
      <trkpt lat="47.81229" lon="-3.4069">
        <ele>28.59</ele>
        <time>2020-07-10T11:25:03Z</time>
      </trkpt>
      <trkpt lat="47.81229" lon="-3.40696">
        <ele>28.88</ele>
        <time>2020-07-10T11:25:04Z</time>
      </trkpt>
      <trkpt lat="47.81229" lon="-3.40701">
        <ele>28.96</ele>
        <time>2020-07-10T11:25:05Z</time>
      </trkpt>
      <trkpt lat="47.81229" lon="-3.40706">
        <ele>28.99</ele>
        <time>2020-07-10T11:25:06Z</time>
      </trkpt>
      <trkpt lat="47.81231" lon="-3.4071">
        <ele>29</ele>
        <time>2020-07-10T11:25:07Z</time>
      </trkpt>
      <trkpt lat="47.81232" lon="-3.40715">
        <ele>29</ele>
        <time>2020-07-10T11:25:08Z</time>
      </trkpt>
      <trkpt lat="47.81232" lon="-3.4072">
        <ele>29</ele>
        <time>2020-07-10T11:25:09Z</time>
      </trkpt>
      <trkpt lat="47.81231" lon="-3.40724">
        <ele>29.04</ele>
        <time>2020-07-10T11:25:10Z</time>
      </trkpt>
      <trkpt lat="47.81231" lon="-3.40728">
        <ele>29.11</ele>
        <time>2020-07-10T11:25:11Z</time>
      </trkpt>
      <trkpt lat="47.81232" lon="-3.40731">
        <ele>29.18</ele>
        <time>2020-07-10T11:25:12Z</time>
      </trkpt>
      <trkpt lat="47.81232" lon="-3.40733">
        <ele>29.23</ele>
        <time>2020-07-10T11:25:13Z</time>
      </trkpt>
      <trkpt lat="47.81233" lon="-3.40734">
        <ele>29.25</ele>
        <time>2020-07-10T11:25:14Z</time>
      </trkpt>
      <trkpt lat="47.81233" lon="-3.40734">
        <ele>29.25</ele>
        <time>2020-07-10T11:25:15Z</time>
      </trkpt>
      <trkpt lat="47.81233" lon="-3.40734">
        <ele>29.26</ele>
        <time>2020-07-10T11:25:16Z</time>
      </trkpt>
      <trkpt lat="47.81233" lon="-3.40734">
        <ele>29.26</ele>
        <time>2020-07-10T11:25:17Z</time>
      </trkpt>
      <trkpt lat="47.81233" lon="-3.40734">
        <ele>29.26</ele>
        <time>2020-07-10T11:25:18Z</time>
      </trkpt>
      <trkpt lat="47.81233" lon="-3.40734">
        <ele>29.26</ele>
        <time>2020-07-10T11:25:19Z</time>
      </trkpt>
      <trkpt lat="47.81233" lon="-3.40734">
        <ele>29.26</ele>
        <time>2020-07-10T11:25:20Z</time>
      </trkpt>
      <trkpt lat="47.81233" lon="-3.40734">
        <ele>29.26</ele>
        <time>2020-07-10T11:25:21Z</time>
      </trkpt>
      <trkpt lat="47.81233" lon="-3.40734">
        <ele>29.26</ele>
        <time>2020-07-10T11:25:22Z</time>
      </trkpt>
      <trkpt lat="47.81233" lon="-3.40734">
        <ele>29.26</ele>
        <time>2020-07-10T11:25:23Z</time>
      </trkpt>
      <trkpt lat="47.81233" lon="-3.40734">
        <ele>29.26</ele>
        <time>2020-07-10T11:25:24Z</time>
      </trkpt>
      <trkpt lat="47.81233" lon="-3.40734">
        <ele>29.26</ele>
        <time>2020-07-10T11:25:25Z</time>
      </trkpt>
      <trkpt lat="47.81233" lon="-3.40734">
        <ele>29.26</ele>
        <time>2020-07-10T11:25:26Z</time>
      </trkpt>
      <trkpt lat="47.81233" lon="-3.40734">
        <ele>29.26</ele>
        <time>2020-07-10T11:25:27Z</time>
      </trkpt>
      <trkpt lat="47.81233" lon="-3.40734">
        <ele>29.26</ele>
        <time>2020-07-10T11:25:28Z</time>
      </trkpt>
      <trkpt lat="47.81233" lon="-3.40734">
        <ele>29.26</ele>
        <time>2020-07-10T11:25:29Z</time>
      </trkpt>
      <trkpt lat="47.81233" lon="-3.40734">
        <ele>29.26</ele>
        <time>2020-07-10T11:25:30Z</time>
      </trkpt>
      <trkpt lat="47.81233" lon="-3.40734">
        <ele>29.26</ele>
        <time>2020-07-10T11:25:31Z</time>
      </trkpt>
      <trkpt lat="47.81233" lon="-3.40734">
        <ele>29.26</ele>
        <time>2020-07-10T11:25:32Z</time>
      </trkpt>
      <trkpt lat="47.81233" lon="-3.40734">
        <ele>29.26</ele>
        <time>2020-07-10T11:25:33Z</time>
      </trkpt>
      <trkpt lat="47.81233" lon="-3.40734">
        <ele>29.26</ele>
        <time>2020-07-10T11:25:34Z</time>
      </trkpt>
      <trkpt lat="47.81233" lon="-3.40734">
        <ele>29.26</ele>
        <time>2020-07-10T11:25:35Z</time>
      </trkpt>
      <trkpt lat="47.81233" lon="-3.40734">
        <ele>29.26</ele>
        <time>2020-07-10T11:25:36Z</time>
      </trkpt>
      <trkpt lat="47.81233" lon="-3.40734">
        <ele>29.26</ele>
        <time>2020-07-10T11:25:37Z</time>
      </trkpt>
      <trkpt lat="47.81233" lon="-3.40734">
        <ele>29.26</ele>
        <time>2020-07-10T11:25:38Z</time>
      </trkpt>
      <trkpt lat="47.81233" lon="-3.40734">
        <ele>29.26</ele>
        <time>2020-07-10T11:25:39Z</time>
      </trkpt>
      <trkpt lat="47.81233" lon="-3.40734">
        <ele>29.26</ele>
        <time>2020-07-10T11:25:40Z</time>
      </trkpt>
      <trkpt lat="47.81233" lon="-3.40734">
        <ele>29.26</ele>
        <time>2020-07-10T11:25:41Z</time>
      </trkpt>
      <trkpt lat="47.81233" lon="-3.40734">
        <ele>29.26</ele>
        <time>2020-07-10T11:25:42Z</time>
      </trkpt>
      <trkpt lat="47.81233" lon="-3.40734">
        <ele>29.26</ele>
        <time>2020-07-10T11:25:43Z</time>
      </trkpt>
      <trkpt lat="47.81233" lon="-3.40734">
        <ele>29.26</ele>
        <time>2020-07-10T11:25:44Z</time>
      </trkpt>
      <trkpt lat="47.81233" lon="-3.40734">
        <ele>29.26</ele>
        <time>2020-07-10T11:25:45Z</time>
      </trkpt>
      <trkpt lat="47.81233" lon="-3.40734">
        <ele>29.26</ele>
        <time>2020-07-10T11:25:46Z</time>
      </trkpt>
      <trkpt lat="47.81233" lon="-3.40734">
        <ele>29.26</ele>
        <time>2020-07-10T11:25:47Z</time>
      </trkpt>
      <trkpt lat="47.81233" lon="-3.40734">
        <ele>29.26</ele>
        <time>2020-07-10T11:25:48Z</time>
      </trkpt>
      <trkpt lat="47.81233" lon="-3.40734">
        <ele>29.26</ele>
        <time>2020-07-10T11:25:49Z</time>
      </trkpt>
      <trkpt lat="47.81233" lon="-3.40734">
        <ele>29.26</ele>
        <time>2020-07-10T11:25:50Z</time>
      </trkpt>
      <trkpt lat="47.81233" lon="-3.40734">
        <ele>29.26</ele>
        <time>2020-07-10T11:25:51Z</time>
      </trkpt>
      <trkpt lat="47.81233" lon="-3.40734">
        <ele>29.26</ele>
        <time>2020-07-10T11:25:52Z</time>
      </trkpt>
      <trkpt lat="47.81233" lon="-3.40734">
        <ele>29.26</ele>
        <time>2020-07-10T11:25:53Z</time>
      </trkpt>
      <trkpt lat="47.81233" lon="-3.40734">
        <ele>29.26</ele>
        <time>2020-07-10T11:25:54Z</time>
      </trkpt>
      <trkpt lat="47.81233" lon="-3.40734">
        <ele>29.26</ele>
        <time>2020-07-10T11:25:55Z</time>
      </trkpt>
      <trkpt lat="47.81233" lon="-3.40734">
        <ele>29.26</ele>
        <time>2020-07-10T11:25:56Z</time>
      </trkpt>
      <trkpt lat="47.81233" lon="-3.40734">
        <ele>29.26</ele>
        <time>2020-07-10T11:25:57Z</time>
      </trkpt>
      <trkpt lat="47.81233" lon="-3.40734">
        <ele>29.26</ele>
        <time>2020-07-10T11:25:58Z</time>
      </trkpt>
      <trkpt lat="47.81233" lon="-3.40734">
        <ele>29.26</ele>
        <time>2020-07-10T11:25:59Z</time>
      </trkpt>
      <trkpt lat="47.81233" lon="-3.40734">
        <ele>29.26</ele>
        <time>2020-07-10T11:26:00Z</time>
      </trkpt>
      <trkpt lat="47.81233" lon="-3.40734">
        <ele>29.26</ele>
        <time>2020-07-10T11:26:01Z</time>
      </trkpt>
      <trkpt lat="47.81233" lon="-3.40734">
        <ele>29.26</ele>
        <time>2020-07-10T11:26:02Z</time>
      </trkpt>
      <trkpt lat="47.81233" lon="-3.40734">
        <ele>29.26</ele>
        <time>2020-07-10T11:26:03Z</time>
      </trkpt>
      <trkpt lat="47.81233" lon="-3.40734">
        <ele>29.26</ele>
        <time>2020-07-10T11:26:04Z</time>
      </trkpt>
      <trkpt lat="47.81233" lon="-3.40734">
        <ele>29.26</ele>
        <time>2020-07-10T11:26:05Z</time>
      </trkpt>
      <trkpt lat="47.81233" lon="-3.40734">
        <ele>29.26</ele>
        <time>2020-07-10T11:26:06Z</time>
      </trkpt>
      <trkpt lat="47.81233" lon="-3.40734">
        <ele>29.26</ele>
        <time>2020-07-10T11:26:07Z</time>
      </trkpt>
      <trkpt lat="47.81233" lon="-3.40734">
        <ele>29.26</ele>
        <time>2020-07-10T11:26:08Z</time>
      </trkpt>
      <trkpt lat="47.81233" lon="-3.40734">
        <ele>29.26</ele>
        <time>2020-07-10T11:26:09Z</time>
      </trkpt>
      <trkpt lat="47.81233" lon="-3.40734">
        <ele>29.26</ele>
        <time>2020-07-10T11:26:10Z</time>
      </trkpt>
      <trkpt lat="47.81233" lon="-3.40734">
        <ele>29.26</ele>
        <time>2020-07-10T11:26:11Z</time>
      </trkpt>
      <trkpt lat="47.81233" lon="-3.40734">
        <ele>29.26</ele>
        <time>2020-07-10T11:26:12Z</time>
      </trkpt>
      <trkpt lat="47.81233" lon="-3.40734">
        <ele>29.26</ele>
        <time>2020-07-10T11:26:13Z</time>
      </trkpt>
      <trkpt lat="47.81233" lon="-3.40734">
        <ele>29.26</ele>
        <time>2020-07-10T11:26:14Z</time>
      </trkpt>
      <trkpt lat="47.81233" lon="-3.40734">
        <ele>29.26</ele>
        <time>2020-07-10T11:26:15Z</time>
      </trkpt>
      <trkpt lat="47.81233" lon="-3.40734">
        <ele>29.26</ele>
        <time>2020-07-10T11:26:16Z</time>
      </trkpt>
      <trkpt lat="47.81233" lon="-3.40734">
        <ele>29.26</ele>
        <time>2020-07-10T11:26:17Z</time>
      </trkpt>
      <trkpt lat="47.81233" lon="-3.40734">
        <ele>29.26</ele>
        <time>2020-07-10T11:26:18Z</time>
      </trkpt>
      <trkpt lat="47.81233" lon="-3.40734">
        <ele>29.26</ele>
        <time>2020-07-10T11:26:19Z</time>
      </trkpt>
      <trkpt lat="47.81233" lon="-3.40734">
        <ele>29.26</ele>
        <time>2020-07-10T11:26:20Z</time>
      </trkpt>
      <trkpt lat="47.81233" lon="-3.40734">
        <ele>29.26</ele>
        <time>2020-07-10T11:26:21Z</time>
      </trkpt>
      <trkpt lat="47.81233" lon="-3.40734">
        <ele>29.26</ele>
        <time>2020-07-10T11:26:22Z</time>
      </trkpt>
      <trkpt lat="47.81233" lon="-3.40734">
        <ele>29.26</ele>
        <time>2020-07-10T11:26:23Z</time>
      </trkpt>
      <trkpt lat="47.81233" lon="-3.40734">
        <ele>29.26</ele>
        <time>2020-07-10T11:26:24Z</time>
      </trkpt>
      <trkpt lat="47.81233" lon="-3.40734">
        <ele>29.26</ele>
        <time>2020-07-10T11:26:25Z</time>
      </trkpt>
      <trkpt lat="47.81233" lon="-3.40734">
        <ele>29.26</ele>
        <time>2020-07-10T11:26:26Z</time>
      </trkpt>
      <trkpt lat="47.81233" lon="-3.40734">
        <ele>29.26</ele>
        <time>2020-07-10T11:26:27Z</time>
      </trkpt>
      <trkpt lat="47.81237" lon="-3.40743">
        <ele>29.32</ele>
        <time>2020-07-10T11:26:28Z</time>
      </trkpt>
      <trkpt lat="47.81239" lon="-3.40745">
        <ele>29.33</ele>
        <time>2020-07-10T11:26:29Z</time>
      </trkpt>
      <trkpt lat="47.81241" lon="-3.40748">
        <ele>29.32</ele>
        <time>2020-07-10T11:26:30Z</time>
      </trkpt>
      <trkpt lat="47.81242" lon="-3.40751">
        <ele>29.31</ele>
        <time>2020-07-10T11:26:31Z</time>
      </trkpt>
      <trkpt lat="47.81244" lon="-3.40754">
        <ele>29.34</ele>
        <time>2020-07-10T11:26:32Z</time>
      </trkpt>
      <trkpt lat="47.81245" lon="-3.40757">
        <ele>29.39</ele>
        <time>2020-07-10T11:26:33Z</time>
      </trkpt>
      <trkpt lat="47.81246" lon="-3.4076">
        <ele>29.47</ele>
        <time>2020-07-10T11:26:34Z</time>
      </trkpt>
      <trkpt lat="47.81248" lon="-3.40764">
        <ele>29.56</ele>
        <time>2020-07-10T11:26:35Z</time>
      </trkpt>
      <trkpt lat="47.81249" lon="-3.40769">
        <ele>29.69</ele>
        <time>2020-07-10T11:26:36Z</time>
      </trkpt>
      <trkpt lat="47.8125" lon="-3.40774">
        <ele>29.82</ele>
        <time>2020-07-10T11:26:37Z</time>
      </trkpt>
      <trkpt lat="47.81252" lon="-3.40778">
        <ele>30.01</ele>
        <time>2020-07-10T11:26:38Z</time>
      </trkpt>
      <trkpt lat="47.81254" lon="-3.40783">
        <ele>30.22</ele>
        <time>2020-07-10T11:26:39Z</time>
      </trkpt>
      <trkpt lat="47.81256" lon="-3.40787">
        <ele>30.41</ele>
        <time>2020-07-10T11:26:40Z</time>
      </trkpt>
      <trkpt lat="47.81258" lon="-3.40792">
        <ele>30.57</ele>
        <time>2020-07-10T11:26:41Z</time>
      </trkpt>
      <trkpt lat="47.8126" lon="-3.40796">
        <ele>30.72</ele>
        <time>2020-07-10T11:26:42Z</time>
      </trkpt>
      <trkpt lat="47.81262" lon="-3.40801">
        <ele>30.85</ele>
        <time>2020-07-10T11:26:43Z</time>
      </trkpt>
      <trkpt lat="47.81264" lon="-3.40805">
        <ele>30.95</ele>
        <time>2020-07-10T11:26:44Z</time>
      </trkpt>
      <trkpt lat="47.81265" lon="-3.4081">
        <ele>31.04</ele>
        <time>2020-07-10T11:26:45Z</time>
      </trkpt>
      <trkpt lat="47.81267" lon="-3.40814">
        <ele>31.14</ele>
        <time>2020-07-10T11:26:46Z</time>
      </trkpt>
      <trkpt lat="47.81268" lon="-3.40819">
        <ele>31.26</ele>
        <time>2020-07-10T11:26:47Z</time>
      </trkpt>
      <trkpt lat="47.8127" lon="-3.40822">
        <ele>31.37</ele>
        <time>2020-07-10T11:26:48Z</time>
      </trkpt>
      <trkpt lat="47.81271" lon="-3.40824">
        <ele>31.47</ele>
        <time>2020-07-10T11:26:49Z</time>
      </trkpt>
      <trkpt lat="47.81272" lon="-3.40828">
        <ele>31.59</ele>
        <time>2020-07-10T11:26:50Z</time>
      </trkpt>
      <trkpt lat="47.81271" lon="-3.40832">
        <ele>31.68</ele>
        <time>2020-07-10T11:26:51Z</time>
      </trkpt>
      <trkpt lat="47.81269" lon="-3.40836">
        <ele>31.75</ele>
        <time>2020-07-10T11:26:52Z</time>
      </trkpt>
      <trkpt lat="47.81267" lon="-3.40839">
        <ele>31.78</ele>
        <time>2020-07-10T11:26:53Z</time>
      </trkpt>
      <trkpt lat="47.81263" lon="-3.40841">
        <ele>31.75</ele>
        <time>2020-07-10T11:26:54Z</time>
      </trkpt>
      <trkpt lat="47.81258" lon="-3.40843">
        <ele>31.7</ele>
        <time>2020-07-10T11:26:55Z</time>
      </trkpt>
      <trkpt lat="47.81255" lon="-3.40846">
        <ele>31.65</ele>
        <time>2020-07-10T11:26:56Z</time>
      </trkpt>
      <trkpt lat="47.81251" lon="-3.40849">
        <ele>31.61</ele>
        <time>2020-07-10T11:26:57Z</time>
      </trkpt>
      <trkpt lat="47.81247" lon="-3.40852">
        <ele>31.54</ele>
        <time>2020-07-10T11:26:58Z</time>
      </trkpt>
      <trkpt lat="47.81242" lon="-3.40855">
        <ele>31.39</ele>
        <time>2020-07-10T11:26:59Z</time>
      </trkpt>
      <trkpt lat="47.81238" lon="-3.40858">
        <ele>31.18</ele>
        <time>2020-07-10T11:27:00Z</time>
      </trkpt>
      <trkpt lat="47.81233" lon="-3.40861">
        <ele>30.92</ele>
        <time>2020-07-10T11:27:01Z</time>
      </trkpt>
      <trkpt lat="47.81228" lon="-3.40863">
        <ele>30.6</ele>
        <time>2020-07-10T11:27:02Z</time>
      </trkpt>
      <trkpt lat="47.81223" lon="-3.40866">
        <ele>30.22</ele>
        <time>2020-07-10T11:27:03Z</time>
      </trkpt>
      <trkpt lat="47.81218" lon="-3.40869">
        <ele>30.11</ele>
        <time>2020-07-10T11:27:04Z</time>
      </trkpt>
      <trkpt lat="47.81213" lon="-3.40873">
        <ele>30.07</ele>
        <time>2020-07-10T11:27:05Z</time>
      </trkpt>
      <trkpt lat="47.81208" lon="-3.40877">
        <ele>29.98</ele>
        <time>2020-07-10T11:27:06Z</time>
      </trkpt>
      <trkpt lat="47.81203" lon="-3.4088">
        <ele>29.83</ele>
        <time>2020-07-10T11:27:07Z</time>
      </trkpt>
      <trkpt lat="47.81197" lon="-3.40884">
        <ele>29.55</ele>
        <time>2020-07-10T11:27:08Z</time>
      </trkpt>
      <trkpt lat="47.81192" lon="-3.40889">
        <ele>29.22</ele>
        <time>2020-07-10T11:27:09Z</time>
      </trkpt>
      <trkpt lat="47.81187" lon="-3.40894">
        <ele>29.05</ele>
        <time>2020-07-10T11:27:10Z</time>
      </trkpt>
      <trkpt lat="47.81181" lon="-3.40899">
        <ele>28.85</ele>
        <time>2020-07-10T11:27:11Z</time>
      </trkpt>
      <trkpt lat="47.81175" lon="-3.40904">
        <ele>28.51</ele>
        <time>2020-07-10T11:27:12Z</time>
      </trkpt>
      <trkpt lat="47.81169" lon="-3.4091">
        <ele>27.99</ele>
        <time>2020-07-10T11:27:13Z</time>
      </trkpt>
      <trkpt lat="47.81163" lon="-3.40915">
        <ele>27.45</ele>
        <time>2020-07-10T11:27:14Z</time>
      </trkpt>
      <trkpt lat="47.81157" lon="-3.4092">
        <ele>27.11</ele>
        <time>2020-07-10T11:27:15Z</time>
      </trkpt>
      <trkpt lat="47.81152" lon="-3.40924">
        <ele>26.93</ele>
        <time>2020-07-10T11:27:16Z</time>
      </trkpt>
      <trkpt lat="47.81148" lon="-3.40928">
        <ele>26.79</ele>
        <time>2020-07-10T11:27:17Z</time>
      </trkpt>
      <trkpt lat="47.81144" lon="-3.40934">
        <ele>26.57</ele>
        <time>2020-07-10T11:27:18Z</time>
      </trkpt>
      <trkpt lat="47.81142" lon="-3.40941">
        <ele>26.33</ele>
        <time>2020-07-10T11:27:19Z</time>
      </trkpt>
      <trkpt lat="47.8114" lon="-3.40951">
        <ele>25.83</ele>
        <time>2020-07-10T11:27:20Z</time>
      </trkpt>
      <trkpt lat="47.8114" lon="-3.40958">
        <ele>25.3</ele>
        <time>2020-07-10T11:27:21Z</time>
      </trkpt>
      <trkpt lat="47.81139" lon="-3.40965">
        <ele>24.78</ele>
        <time>2020-07-10T11:27:22Z</time>
      </trkpt>
      <trkpt lat="47.81139" lon="-3.40972">
        <ele>24.25</ele>
        <time>2020-07-10T11:27:23Z</time>
      </trkpt>
      <trkpt lat="47.81138" lon="-3.40979">
        <ele>24.07</ele>
        <time>2020-07-10T11:27:24Z</time>
      </trkpt>
      <trkpt lat="47.81137" lon="-3.40987">
        <ele>23.99</ele>
        <time>2020-07-10T11:27:25Z</time>
      </trkpt>
      <trkpt lat="47.81136" lon="-3.40994">
        <ele>23.94</ele>
        <time>2020-07-10T11:27:26Z</time>
      </trkpt>
      <trkpt lat="47.81135" lon="-3.41">
        <ele>23.88</ele>
        <time>2020-07-10T11:27:27Z</time>
      </trkpt>
      <trkpt lat="47.81134" lon="-3.41008">
        <ele>23.85</ele>
        <time>2020-07-10T11:27:28Z</time>
      </trkpt>
      <trkpt lat="47.81133" lon="-3.41016">
        <ele>23.81</ele>
        <time>2020-07-10T11:27:29Z</time>
      </trkpt>
      <trkpt lat="47.81132" lon="-3.41025">
        <ele>23.77</ele>
        <time>2020-07-10T11:27:30Z</time>
      </trkpt>
      <trkpt lat="47.81132" lon="-3.41034">
        <ele>23.83</ele>
        <time>2020-07-10T11:27:31Z</time>
      </trkpt>
      <trkpt lat="47.81131" lon="-3.41042">
        <ele>23.95</ele>
        <time>2020-07-10T11:27:32Z</time>
      </trkpt>
      <trkpt lat="47.81131" lon="-3.41049">
        <ele>24.1</ele>
        <time>2020-07-10T11:27:33Z</time>
      </trkpt>
      <trkpt lat="47.81131" lon="-3.41056">
        <ele>24.25</ele>
        <time>2020-07-10T11:27:34Z</time>
      </trkpt>
      <trkpt lat="47.81131" lon="-3.41064">
        <ele>24.49</ele>
        <time>2020-07-10T11:27:35Z</time>
      </trkpt>
      <trkpt lat="47.8113" lon="-3.41073">
        <ele>24.8</ele>
        <time>2020-07-10T11:27:36Z</time>
      </trkpt>
      <trkpt lat="47.8113" lon="-3.41081">
        <ele>25.09</ele>
        <time>2020-07-10T11:27:37Z</time>
      </trkpt>
      <trkpt lat="47.8113" lon="-3.41089">
        <ele>25.24</ele>
        <time>2020-07-10T11:27:38Z</time>
      </trkpt>
      <trkpt lat="47.81131" lon="-3.41097">
        <ele>25.27</ele>
        <time>2020-07-10T11:27:39Z</time>
      </trkpt>
      <trkpt lat="47.8113" lon="-3.41105">
        <ele>25.29</ele>
        <time>2020-07-10T11:27:40Z</time>
      </trkpt>
      <trkpt lat="47.8113" lon="-3.41113">
        <ele>25.29</ele>
        <time>2020-07-10T11:27:41Z</time>
      </trkpt>
      <trkpt lat="47.8113" lon="-3.41121">
        <ele>25.24</ele>
        <time>2020-07-10T11:27:42Z</time>
      </trkpt>
      <trkpt lat="47.81129" lon="-3.41128">
        <ele>25.16</ele>
        <time>2020-07-10T11:27:43Z</time>
      </trkpt>
      <trkpt lat="47.81129" lon="-3.41136">
        <ele>25.07</ele>
        <time>2020-07-10T11:27:44Z</time>
      </trkpt>
      <trkpt lat="47.81129" lon="-3.41145">
        <ele>24.86</ele>
        <time>2020-07-10T11:27:45Z</time>
      </trkpt>
      <trkpt lat="47.81128" lon="-3.41154">
        <ele>24.58</ele>
        <time>2020-07-10T11:27:46Z</time>
      </trkpt>
      <trkpt lat="47.81127" lon="-3.41163">
        <ele>24.27</ele>
        <time>2020-07-10T11:27:47Z</time>
      </trkpt>
      <trkpt lat="47.81126" lon="-3.41172">
        <ele>23.74</ele>
        <time>2020-07-10T11:27:48Z</time>
      </trkpt>
      <trkpt lat="47.81126" lon="-3.41183">
        <ele>22.95</ele>
        <time>2020-07-10T11:27:49Z</time>
      </trkpt>
      <trkpt lat="47.81126" lon="-3.41193">
        <ele>22.13</ele>
        <time>2020-07-10T11:27:50Z</time>
      </trkpt>
      <trkpt lat="47.81127" lon="-3.41204">
        <ele>21.19</ele>
        <time>2020-07-10T11:27:51Z</time>
      </trkpt>
      <trkpt lat="47.81128" lon="-3.41213">
        <ele>20.33</ele>
        <time>2020-07-10T11:27:52Z</time>
      </trkpt>
      <trkpt lat="47.81129" lon="-3.41222">
        <ele>19.59</ele>
        <time>2020-07-10T11:27:53Z</time>
      </trkpt>
      <trkpt lat="47.81131" lon="-3.4123">
        <ele>19.32</ele>
        <time>2020-07-10T11:27:54Z</time>
      </trkpt>
      <trkpt lat="47.81132" lon="-3.41236">
        <ele>19.21</ele>
        <time>2020-07-10T11:27:55Z</time>
      </trkpt>
      <trkpt lat="47.81137" lon="-3.41252">
        <ele>19.24</ele>
        <time>2020-07-10T11:27:56Z</time>
      </trkpt>
      <trkpt lat="47.81137" lon="-3.41259">
        <ele>18.92</ele>
        <time>2020-07-10T11:27:57Z</time>
      </trkpt>
      <trkpt lat="47.81138" lon="-3.41264">
        <ele>18.47</ele>
        <time>2020-07-10T11:27:58Z</time>
      </trkpt>
      <trkpt lat="47.81138" lon="-3.4127">
        <ele>17.91</ele>
        <time>2020-07-10T11:27:59Z</time>
      </trkpt>
      <trkpt lat="47.81138" lon="-3.41276">
        <ele>17.28</ele>
        <time>2020-07-10T11:28:00Z</time>
      </trkpt>
      <trkpt lat="47.81138" lon="-3.4128">
        <ele>17.02</ele>
        <time>2020-07-10T11:28:01Z</time>
      </trkpt>
      <trkpt lat="47.81137" lon="-3.41282">
        <ele>16.9</ele>
        <time>2020-07-10T11:28:02Z</time>
      </trkpt>
      <trkpt lat="47.81136" lon="-3.41286">
        <ele>16.78</ele>
        <time>2020-07-10T11:28:03Z</time>
      </trkpt>
      <trkpt lat="47.81134" lon="-3.4129">
        <ele>16.61</ele>
        <time>2020-07-10T11:28:04Z</time>
      </trkpt>
      <trkpt lat="47.81132" lon="-3.41292">
        <ele>16.31</ele>
        <time>2020-07-10T11:28:05Z</time>
      </trkpt>
      <trkpt lat="47.81128" lon="-3.41294">
        <ele>15.74</ele>
        <time>2020-07-10T11:28:06Z</time>
      </trkpt>
      <trkpt lat="47.81126" lon="-3.41295">
        <ele>15.21</ele>
        <time>2020-07-10T11:28:07Z</time>
      </trkpt>
      <trkpt lat="47.81124" lon="-3.41298">
        <ele>14.86</ele>
        <time>2020-07-10T11:28:08Z</time>
      </trkpt>
      <trkpt lat="47.81123" lon="-3.41299">
        <ele>14.51</ele>
        <time>2020-07-10T11:28:09Z</time>
      </trkpt>
      <trkpt lat="47.8112" lon="-3.41301">
        <ele>14.04</ele>
        <time>2020-07-10T11:28:10Z</time>
      </trkpt>
      <trkpt lat="47.81117" lon="-3.41303">
        <ele>13.47</ele>
        <time>2020-07-10T11:28:11Z</time>
      </trkpt>
      <trkpt lat="47.81114" lon="-3.41305">
        <ele>12.95</ele>
        <time>2020-07-10T11:28:12Z</time>
      </trkpt>
      <trkpt lat="47.81113" lon="-3.41308">
        <ele>12.61</ele>
        <time>2020-07-10T11:28:13Z</time>
      </trkpt>
      <trkpt lat="47.81111" lon="-3.41312">
        <ele>12.25</ele>
        <time>2020-07-10T11:28:14Z</time>
      </trkpt>
      <trkpt lat="47.8111" lon="-3.41318">
        <ele>12.06</ele>
        <time>2020-07-10T11:28:15Z</time>
      </trkpt>
      <trkpt lat="47.81111" lon="-3.41324">
        <ele>12.01</ele>
        <time>2020-07-10T11:28:16Z</time>
      </trkpt>
      <trkpt lat="47.81111" lon="-3.41331">
        <ele>12.08</ele>
        <time>2020-07-10T11:28:17Z</time>
      </trkpt>
      <trkpt lat="47.81113" lon="-3.41337">
        <ele>12.44</ele>
        <time>2020-07-10T11:28:18Z</time>
      </trkpt>
      <trkpt lat="47.81114" lon="-3.41343">
        <ele>12.91</ele>
        <time>2020-07-10T11:28:19Z</time>
      </trkpt>
      <trkpt lat="47.81114" lon="-3.41349">
        <ele>13.37</ele>
        <time>2020-07-10T11:28:20Z</time>
      </trkpt>
      <trkpt lat="47.81115" lon="-3.41354">
        <ele>13.82</ele>
        <time>2020-07-10T11:28:21Z</time>
      </trkpt>
      <trkpt lat="47.81115" lon="-3.41357">
        <ele>14.18</ele>
        <time>2020-07-10T11:28:22Z</time>
      </trkpt>
      <trkpt lat="47.81115" lon="-3.41361">
        <ele>14.37</ele>
        <time>2020-07-10T11:28:23Z</time>
      </trkpt>
      <trkpt lat="47.81116" lon="-3.41366">
        <ele>14.56</ele>
        <time>2020-07-10T11:28:24Z</time>
      </trkpt>
      <trkpt lat="47.81116" lon="-3.41369">
        <ele>14.66</ele>
        <time>2020-07-10T11:28:25Z</time>
      </trkpt>
      <trkpt lat="47.81117" lon="-3.41373">
        <ele>14.86</ele>
        <time>2020-07-10T11:28:26Z</time>
      </trkpt>
      <trkpt lat="47.81117" lon="-3.41376">
        <ele>15.08</ele>
        <time>2020-07-10T11:28:27Z</time>
      </trkpt>
      <trkpt lat="47.81118" lon="-3.41378">
        <ele>15.4</ele>
        <time>2020-07-10T11:28:28Z</time>
      </trkpt>
      <trkpt lat="47.81119" lon="-3.41381">
        <ele>15.79</ele>
        <time>2020-07-10T11:28:29Z</time>
      </trkpt>
      <trkpt lat="47.8112" lon="-3.41382">
        <ele>16.08</ele>
        <time>2020-07-10T11:28:30Z</time>
      </trkpt>
      <trkpt lat="47.81121" lon="-3.41382">
        <ele>16.42</ele>
        <time>2020-07-10T11:28:31Z</time>
      </trkpt>
      <trkpt lat="47.81122" lon="-3.41382">
        <ele>16.68</ele>
        <time>2020-07-10T11:28:32Z</time>
      </trkpt>
      <trkpt lat="47.81122" lon="-3.41382">
        <ele>16.89</ele>
        <time>2020-07-10T11:28:33Z</time>
      </trkpt>
      <trkpt lat="47.81123" lon="-3.41382">
        <ele>17.08</ele>
        <time>2020-07-10T11:28:34Z</time>
      </trkpt>
      <trkpt lat="47.81122" lon="-3.41383">
        <ele>16.97</ele>
        <time>2020-07-10T11:28:35Z</time>
      </trkpt>
      <trkpt lat="47.81123" lon="-3.41383">
        <ele>17.1</ele>
        <time>2020-07-10T11:28:36Z</time>
      </trkpt>
      <trkpt lat="47.81123" lon="-3.41383">
        <ele>17.14</ele>
        <time>2020-07-10T11:28:37Z</time>
      </trkpt>
      <trkpt lat="47.81123" lon="-3.41383">
        <ele>17.15</ele>
        <time>2020-07-10T11:28:38Z</time>
      </trkpt>
      <trkpt lat="47.81123" lon="-3.41383">
        <ele>17.16</ele>
        <time>2020-07-10T11:28:39Z</time>
      </trkpt>
      <trkpt lat="47.81128" lon="-3.41384">
        <ele>18.46</ele>
        <time>2020-07-10T11:28:40Z</time>
      </trkpt>
      <trkpt lat="47.81129" lon="-3.41385">
        <ele>19.06</ele>
        <time>2020-07-10T11:28:41Z</time>
      </trkpt>
      <trkpt lat="47.8113" lon="-3.41388">
        <ele>19.58</ele>
        <time>2020-07-10T11:28:42Z</time>
      </trkpt>
      <trkpt lat="47.81131" lon="-3.41391">
        <ele>19.78</ele>
        <time>2020-07-10T11:28:43Z</time>
      </trkpt>
      <trkpt lat="47.81131" lon="-3.41394">
        <ele>19.63</ele>
        <time>2020-07-10T11:28:44Z</time>
      </trkpt>
      <trkpt lat="47.81133" lon="-3.41397">
        <ele>19.66</ele>
        <time>2020-07-10T11:28:45Z</time>
      </trkpt>
      <trkpt lat="47.81135" lon="-3.41399">
        <ele>19.96</ele>
        <time>2020-07-10T11:28:46Z</time>
      </trkpt>
      <trkpt lat="47.81137" lon="-3.41401">
        <ele>20.31</ele>
        <time>2020-07-10T11:28:47Z</time>
      </trkpt>
      <trkpt lat="47.81139" lon="-3.41402">
        <ele>20.52</ele>
        <time>2020-07-10T11:28:48Z</time>
      </trkpt>
      <trkpt lat="47.81141" lon="-3.41403">
        <ele>20.66</ele>
        <time>2020-07-10T11:28:49Z</time>
      </trkpt>
      <trkpt lat="47.81142" lon="-3.41404">
        <ele>20.8</ele>
        <time>2020-07-10T11:28:50Z</time>
      </trkpt>
      <trkpt lat="47.81143" lon="-3.41406">
        <ele>20.79</ele>
        <time>2020-07-10T11:28:51Z</time>
      </trkpt>
      <trkpt lat="47.81145" lon="-3.41408">
        <ele>20.72</ele>
        <time>2020-07-10T11:28:52Z</time>
      </trkpt>
      <trkpt lat="47.81147" lon="-3.4141">
        <ele>20.82</ele>
        <time>2020-07-10T11:28:53Z</time>
      </trkpt>
      <trkpt lat="47.8115" lon="-3.41412">
        <ele>20.86</ele>
        <time>2020-07-10T11:28:54Z</time>
      </trkpt>
      <trkpt lat="47.81152" lon="-3.41414">
        <ele>20.81</ele>
        <time>2020-07-10T11:28:55Z</time>
      </trkpt>
      <trkpt lat="47.81152" lon="-3.41415">
        <ele>20.72</ele>
        <time>2020-07-10T11:28:56Z</time>
      </trkpt>
      <trkpt lat="47.81153" lon="-3.41415">
        <ele>20.83</ele>
        <time>2020-07-10T11:28:57Z</time>
      </trkpt>
      <trkpt lat="47.81153" lon="-3.41415">
        <ele>20.9</ele>
        <time>2020-07-10T11:28:58Z</time>
      </trkpt>
      <trkpt lat="47.81153" lon="-3.41415">
        <ele>20.92</ele>
        <time>2020-07-10T11:28:59Z</time>
      </trkpt>
      <trkpt lat="47.81153" lon="-3.41415">
        <ele>20.93</ele>
        <time>2020-07-10T11:29:00Z</time>
      </trkpt>
      <trkpt lat="47.81153" lon="-3.41415">
        <ele>20.93</ele>
        <time>2020-07-10T11:29:01Z</time>
      </trkpt>
      <trkpt lat="47.81153" lon="-3.41415">
        <ele>20.93</ele>
        <time>2020-07-10T11:29:02Z</time>
      </trkpt>
      <trkpt lat="47.81153" lon="-3.41415">
        <ele>20.93</ele>
        <time>2020-07-10T11:29:03Z</time>
      </trkpt>
      <trkpt lat="47.81153" lon="-3.41415">
        <ele>20.93</ele>
        <time>2020-07-10T11:29:04Z</time>
      </trkpt>
      <trkpt lat="47.81153" lon="-3.41415">
        <ele>20.93</ele>
        <time>2020-07-10T11:29:05Z</time>
      </trkpt>
      <trkpt lat="47.81153" lon="-3.41415">
        <ele>20.93</ele>
        <time>2020-07-10T11:29:06Z</time>
      </trkpt>
      <trkpt lat="47.81153" lon="-3.41415">
        <ele>20.93</ele>
        <time>2020-07-10T11:29:07Z</time>
      </trkpt>
      <trkpt lat="47.81153" lon="-3.41415">
        <ele>20.93</ele>
        <time>2020-07-10T11:29:08Z</time>
      </trkpt>
      <trkpt lat="47.81153" lon="-3.41415">
        <ele>20.93</ele>
        <time>2020-07-10T11:29:09Z</time>
      </trkpt>
      <trkpt lat="47.81153" lon="-3.41415">
        <ele>20.93</ele>
        <time>2020-07-10T11:29:10Z</time>
      </trkpt>
      <trkpt lat="47.81163" lon="-3.41415">
        <ele>22.23</ele>
        <time>2020-07-10T11:29:11Z</time>
      </trkpt>
      <trkpt lat="47.81165" lon="-3.41416">
        <ele>22.63</ele>
        <time>2020-07-10T11:29:12Z</time>
      </trkpt>
      <trkpt lat="47.81167" lon="-3.41417">
        <ele>22.84</ele>
        <time>2020-07-10T11:29:13Z</time>
      </trkpt>
      <trkpt lat="47.8117" lon="-3.41418">
        <ele>22.97</ele>
        <time>2020-07-10T11:29:14Z</time>
      </trkpt>
      <trkpt lat="47.81173" lon="-3.41419">
        <ele>23.17</ele>
        <time>2020-07-10T11:29:15Z</time>
      </trkpt>
      <trkpt lat="47.81175" lon="-3.4142">
        <ele>23.14</ele>
        <time>2020-07-10T11:29:16Z</time>
      </trkpt>
      <trkpt lat="47.81178" lon="-3.41421">
        <ele>23.18</ele>
        <time>2020-07-10T11:29:17Z</time>
      </trkpt>
      <trkpt lat="47.8118" lon="-3.41421">
        <ele>23.25</ele>
        <time>2020-07-10T11:29:18Z</time>
      </trkpt>
      <trkpt lat="47.81181" lon="-3.41422">
        <ele>23.3</ele>
        <time>2020-07-10T11:29:19Z</time>
      </trkpt>
      <trkpt lat="47.81184" lon="-3.4142">
        <ele>24.04</ele>
        <time>2020-07-10T11:29:20Z</time>
      </trkpt>
      <trkpt lat="47.81187" lon="-3.4142">
        <ele>24.47</ele>
        <time>2020-07-10T11:29:21Z</time>
      </trkpt>
      <trkpt lat="47.81189" lon="-3.41421">
        <ele>24.57</ele>
        <time>2020-07-10T11:29:22Z</time>
      </trkpt>
      <trkpt lat="47.8119" lon="-3.41422">
        <ele>24.43</ele>
        <time>2020-07-10T11:29:23Z</time>
      </trkpt>
      <trkpt lat="47.81191" lon="-3.41424">
        <ele>24.07</ele>
        <time>2020-07-10T11:29:24Z</time>
      </trkpt>
      <trkpt lat="47.81193" lon="-3.41425">
        <ele>23.77</ele>
        <time>2020-07-10T11:29:25Z</time>
      </trkpt>
      <trkpt lat="47.81194" lon="-3.41426">
        <ele>23.57</ele>
        <time>2020-07-10T11:29:26Z</time>
      </trkpt>
      <trkpt lat="47.81195" lon="-3.41428">
        <ele>23.18</ele>
        <time>2020-07-10T11:29:27Z</time>
      </trkpt>
      <trkpt lat="47.81195" lon="-3.41429">
        <ele>22.77</ele>
        <time>2020-07-10T11:29:28Z</time>
      </trkpt>
      <trkpt lat="47.81196" lon="-3.4143">
        <ele>22.5</ele>
        <time>2020-07-10T11:29:29Z</time>
      </trkpt>
      <trkpt lat="47.81196" lon="-3.4143">
        <ele>22.42</ele>
        <time>2020-07-10T11:29:30Z</time>
      </trkpt>
      <trkpt lat="47.81196" lon="-3.4143">
        <ele>22.4</ele>
        <time>2020-07-10T11:29:31Z</time>
      </trkpt>
      <trkpt lat="47.81196" lon="-3.4143">
        <ele>22.39</ele>
        <time>2020-07-10T11:29:32Z</time>
      </trkpt>
      <trkpt lat="47.81196" lon="-3.4143">
        <ele>22.39</ele>
        <time>2020-07-10T11:29:33Z</time>
      </trkpt>
      <trkpt lat="47.81196" lon="-3.4143">
        <ele>22.38</ele>
        <time>2020-07-10T11:29:34Z</time>
      </trkpt>
      <trkpt lat="47.81196" lon="-3.4143">
        <ele>22.38</ele>
        <time>2020-07-10T11:29:35Z</time>
      </trkpt>
      <trkpt lat="47.81196" lon="-3.4143">
        <ele>22.38</ele>
        <time>2020-07-10T11:29:36Z</time>
      </trkpt>
      <trkpt lat="47.81196" lon="-3.4143">
        <ele>22.38</ele>
        <time>2020-07-10T11:29:37Z</time>
      </trkpt>
      <trkpt lat="47.81196" lon="-3.4143">
        <ele>22.38</ele>
        <time>2020-07-10T11:29:38Z</time>
      </trkpt>
      <trkpt lat="47.81196" lon="-3.4143">
        <ele>22.38</ele>
        <time>2020-07-10T11:29:39Z</time>
      </trkpt>
      <trkpt lat="47.81196" lon="-3.4143">
        <ele>22.38</ele>
        <time>2020-07-10T11:29:40Z</time>
      </trkpt>
      <trkpt lat="47.81196" lon="-3.4143">
        <ele>22.38</ele>
        <time>2020-07-10T11:29:41Z</time>
      </trkpt>
      <trkpt lat="47.81205" lon="-3.41435">
        <ele>21.41</ele>
        <time>2020-07-10T11:29:42Z</time>
      </trkpt>
      <trkpt lat="47.81208" lon="-3.41435">
        <ele>21.3</ele>
        <time>2020-07-10T11:29:43Z</time>
      </trkpt>
      <trkpt lat="47.81209" lon="-3.41435">
        <ele>21.31</ele>
        <time>2020-07-10T11:29:44Z</time>
      </trkpt>
      <trkpt lat="47.8121" lon="-3.41436">
        <ele>21.13</ele>
        <time>2020-07-10T11:29:45Z</time>
      </trkpt>
      <trkpt lat="47.81212" lon="-3.41436">
        <ele>21.1</ele>
        <time>2020-07-10T11:29:46Z</time>
      </trkpt>
      <trkpt lat="47.81213" lon="-3.41436">
        <ele>21.03</ele>
        <time>2020-07-10T11:29:47Z</time>
      </trkpt>
      <trkpt lat="47.81214" lon="-3.41436">
        <ele>21.26</ele>
        <time>2020-07-10T11:29:48Z</time>
      </trkpt>
      <trkpt lat="47.81215" lon="-3.41436">
        <ele>21.25</ele>
        <time>2020-07-10T11:29:49Z</time>
      </trkpt>
      <trkpt lat="47.81215" lon="-3.41436">
        <ele>21.24</ele>
        <time>2020-07-10T11:29:50Z</time>
      </trkpt>
      <trkpt lat="47.81215" lon="-3.41436">
        <ele>21.24</ele>
        <time>2020-07-10T11:29:51Z</time>
      </trkpt>
      <trkpt lat="47.81215" lon="-3.41436">
        <ele>21.24</ele>
        <time>2020-07-10T11:29:52Z</time>
      </trkpt>
      <trkpt lat="47.81215" lon="-3.41436">
        <ele>21.24</ele>
        <time>2020-07-10T11:29:53Z</time>
      </trkpt>
      <trkpt lat="47.81215" lon="-3.41436">
        <ele>21.24</ele>
        <time>2020-07-10T11:29:54Z</time>
      </trkpt>
      <trkpt lat="47.81215" lon="-3.41436">
        <ele>21.24</ele>
        <time>2020-07-10T11:29:55Z</time>
      </trkpt>
      <trkpt lat="47.81215" lon="-3.41436">
        <ele>21.24</ele>
        <time>2020-07-10T11:29:56Z</time>
      </trkpt>
      <trkpt lat="47.81215" lon="-3.41436">
        <ele>21.24</ele>
        <time>2020-07-10T11:29:57Z</time>
      </trkpt>
      <trkpt lat="47.81221" lon="-3.41439">
        <ele>20.83</ele>
        <time>2020-07-10T11:29:58Z</time>
      </trkpt>
      <trkpt lat="47.81223" lon="-3.4144">
        <ele>20.65</ele>
        <time>2020-07-10T11:29:59Z</time>
      </trkpt>
      <trkpt lat="47.81224" lon="-3.4144">
        <ele>20.48</ele>
        <time>2020-07-10T11:30:00Z</time>
      </trkpt>
      <trkpt lat="47.81226" lon="-3.4144">
        <ele>20.62</ele>
        <time>2020-07-10T11:30:01Z</time>
      </trkpt>
      <trkpt lat="47.81228" lon="-3.4144">
        <ele>20.56</ele>
        <time>2020-07-10T11:30:02Z</time>
      </trkpt>
      <trkpt lat="47.81229" lon="-3.4144">
        <ele>20.58</ele>
        <time>2020-07-10T11:30:03Z</time>
      </trkpt>
      <trkpt lat="47.81232" lon="-3.4144">
        <ele>20.72</ele>
        <time>2020-07-10T11:30:04Z</time>
      </trkpt>
      <trkpt lat="47.81235" lon="-3.4144">
        <ele>20.83</ele>
        <time>2020-07-10T11:30:05Z</time>
      </trkpt>
      <trkpt lat="47.81237" lon="-3.4144">
        <ele>20.93</ele>
        <time>2020-07-10T11:30:06Z</time>
      </trkpt>
      <trkpt lat="47.81242" lon="-3.41441">
        <ele>20.84</ele>
        <time>2020-07-10T11:30:07Z</time>
      </trkpt>
      <trkpt lat="47.81244" lon="-3.4144">
        <ele>21.19</ele>
        <time>2020-07-10T11:30:08Z</time>
      </trkpt>
      <trkpt lat="47.81246" lon="-3.41439">
        <ele>21.46</ele>
        <time>2020-07-10T11:30:09Z</time>
      </trkpt>
      <trkpt lat="47.81247" lon="-3.41439">
        <ele>21.56</ele>
        <time>2020-07-10T11:30:10Z</time>
      </trkpt>
      <trkpt lat="47.81248" lon="-3.41439">
        <ele>21.78</ele>
        <time>2020-07-10T11:30:11Z</time>
      </trkpt>
      <trkpt lat="47.81251" lon="-3.41438">
        <ele>22.08</ele>
        <time>2020-07-10T11:30:12Z</time>
      </trkpt>
      <trkpt lat="47.81253" lon="-3.41437">
        <ele>22.45</ele>
        <time>2020-07-10T11:30:13Z</time>
      </trkpt>
      <trkpt lat="47.81256" lon="-3.41437">
        <ele>22.84</ele>
        <time>2020-07-10T11:30:14Z</time>
      </trkpt>
      <trkpt lat="47.81259" lon="-3.41437">
        <ele>23.01</ele>
        <time>2020-07-10T11:30:15Z</time>
      </trkpt>
      <trkpt lat="47.81261" lon="-3.41438">
        <ele>23.1</ele>
        <time>2020-07-10T11:30:16Z</time>
      </trkpt>
      <trkpt lat="47.81263" lon="-3.41439">
        <ele>23.11</ele>
        <time>2020-07-10T11:30:17Z</time>
      </trkpt>
      <trkpt lat="47.81265" lon="-3.41439">
        <ele>23.09</ele>
        <time>2020-07-10T11:30:18Z</time>
      </trkpt>
      <trkpt lat="47.81266" lon="-3.4144">
        <ele>23.09</ele>
        <time>2020-07-10T11:30:19Z</time>
      </trkpt>
      <trkpt lat="47.81268" lon="-3.4144">
        <ele>23.17</ele>
        <time>2020-07-10T11:30:20Z</time>
      </trkpt>
      <trkpt lat="47.8127" lon="-3.4144">
        <ele>23.35</ele>
        <time>2020-07-10T11:30:21Z</time>
      </trkpt>
      <trkpt lat="47.81272" lon="-3.4144">
        <ele>23.46</ele>
        <time>2020-07-10T11:30:22Z</time>
      </trkpt>
      <trkpt lat="47.81273" lon="-3.41441">
        <ele>23.48</ele>
        <time>2020-07-10T11:30:23Z</time>
      </trkpt>
      <trkpt lat="47.81275" lon="-3.41441">
        <ele>23.58</ele>
        <time>2020-07-10T11:30:24Z</time>
      </trkpt>
      <trkpt lat="47.81276" lon="-3.4144">
        <ele>23.78</ele>
        <time>2020-07-10T11:30:25Z</time>
      </trkpt>
      <trkpt lat="47.81278" lon="-3.4144">
        <ele>24.08</ele>
        <time>2020-07-10T11:30:26Z</time>
      </trkpt>
      <trkpt lat="47.8128" lon="-3.41441">
        <ele>24.1</ele>
        <time>2020-07-10T11:30:27Z</time>
      </trkpt>
      <trkpt lat="47.81281" lon="-3.41442">
        <ele>24.06</ele>
        <time>2020-07-10T11:30:28Z</time>
      </trkpt>
      <trkpt lat="47.81282" lon="-3.41442">
        <ele>24.11</ele>
        <time>2020-07-10T11:30:29Z</time>
      </trkpt>
      <trkpt lat="47.81282" lon="-3.41442">
        <ele>24.09</ele>
        <time>2020-07-10T11:30:30Z</time>
      </trkpt>
      <trkpt lat="47.81283" lon="-3.41443">
        <ele>24.07</ele>
        <time>2020-07-10T11:30:31Z</time>
      </trkpt>
      <trkpt lat="47.81283" lon="-3.41443">
        <ele>24.06</ele>
        <time>2020-07-10T11:30:32Z</time>
      </trkpt>
      <trkpt lat="47.81287" lon="-3.41442">
        <ele>24.35</ele>
        <time>2020-07-10T11:30:33Z</time>
      </trkpt>
      <trkpt lat="47.81288" lon="-3.41443">
        <ele>24.55</ele>
        <time>2020-07-10T11:30:34Z</time>
      </trkpt>
      <trkpt lat="47.8129" lon="-3.41442">
        <ele>24.75</ele>
        <time>2020-07-10T11:30:35Z</time>
      </trkpt>
      <trkpt lat="47.81292" lon="-3.41442">
        <ele>24.96</ele>
        <time>2020-07-10T11:30:36Z</time>
      </trkpt>
      <trkpt lat="47.81293" lon="-3.41443">
        <ele>25.06</ele>
        <time>2020-07-10T11:30:37Z</time>
      </trkpt>
      <trkpt lat="47.81294" lon="-3.41443">
        <ele>24.97</ele>
        <time>2020-07-10T11:30:38Z</time>
      </trkpt>
      <trkpt lat="47.81295" lon="-3.41445">
        <ele>24.89</ele>
        <time>2020-07-10T11:30:39Z</time>
      </trkpt>
      <trkpt lat="47.81298" lon="-3.41446">
        <ele>24.74</ele>
        <time>2020-07-10T11:30:40Z</time>
      </trkpt>
      <trkpt lat="47.813" lon="-3.41447">
        <ele>24.68</ele>
        <time>2020-07-10T11:30:41Z</time>
      </trkpt>
      <trkpt lat="47.81301" lon="-3.41448">
        <ele>24.57</ele>
        <time>2020-07-10T11:30:42Z</time>
      </trkpt>
      <trkpt lat="47.81302" lon="-3.4145">
        <ele>24.27</ele>
        <time>2020-07-10T11:30:43Z</time>
      </trkpt>
      <trkpt lat="47.81303" lon="-3.41451">
        <ele>24.06</ele>
        <time>2020-07-10T11:30:44Z</time>
      </trkpt>
      <trkpt lat="47.81305" lon="-3.41452">
        <ele>23.92</ele>
        <time>2020-07-10T11:30:45Z</time>
      </trkpt>
      <trkpt lat="47.81305" lon="-3.41453">
        <ele>23.82</ele>
        <time>2020-07-10T11:30:46Z</time>
      </trkpt>
      <trkpt lat="47.81305" lon="-3.41454">
        <ele>23.62</ele>
        <time>2020-07-10T11:30:47Z</time>
      </trkpt>
      <trkpt lat="47.81306" lon="-3.41455">
        <ele>23.43</ele>
        <time>2020-07-10T11:30:48Z</time>
      </trkpt>
      <trkpt lat="47.81306" lon="-3.41455">
        <ele>23.38</ele>
        <time>2020-07-10T11:30:49Z</time>
      </trkpt>
      <trkpt lat="47.81306" lon="-3.41455">
        <ele>23.36</ele>
        <time>2020-07-10T11:30:50Z</time>
      </trkpt>
      <trkpt lat="47.81306" lon="-3.41455">
        <ele>23.35</ele>
        <time>2020-07-10T11:30:51Z</time>
      </trkpt>
      <trkpt lat="47.81306" lon="-3.41455">
        <ele>23.35</ele>
        <time>2020-07-10T11:30:52Z</time>
      </trkpt>
      <trkpt lat="47.81306" lon="-3.41455">
        <ele>23.35</ele>
        <time>2020-07-10T11:30:53Z</time>
      </trkpt>
      <trkpt lat="47.81306" lon="-3.41455">
        <ele>23.35</ele>
        <time>2020-07-10T11:30:54Z</time>
      </trkpt>
      <trkpt lat="47.81306" lon="-3.41455">
        <ele>23.35</ele>
        <time>2020-07-10T11:30:55Z</time>
      </trkpt>
      <trkpt lat="47.81306" lon="-3.41455">
        <ele>23.35</ele>
        <time>2020-07-10T11:30:56Z</time>
      </trkpt>
      <trkpt lat="47.81306" lon="-3.41455">
        <ele>23.35</ele>
        <time>2020-07-10T11:30:57Z</time>
      </trkpt>
      <trkpt lat="47.81306" lon="-3.41455">
        <ele>23.35</ele>
        <time>2020-07-10T11:30:58Z</time>
      </trkpt>
      <trkpt lat="47.81306" lon="-3.41455">
        <ele>23.35</ele>
        <time>2020-07-10T11:30:59Z</time>
      </trkpt>
      <trkpt lat="47.81306" lon="-3.41471">
        <ele>20.61</ele>
        <time>2020-07-10T11:31:00Z</time>
      </trkpt>
      <trkpt lat="47.81306" lon="-3.41473">
        <ele>19.45</ele>
        <time>2020-07-10T11:31:01Z</time>
      </trkpt>
      <trkpt lat="47.81305" lon="-3.41476">
        <ele>18.87</ele>
        <time>2020-07-10T11:31:02Z</time>
      </trkpt>
      <trkpt lat="47.81305" lon="-3.41478">
        <ele>18.52</ele>
        <time>2020-07-10T11:31:03Z</time>
      </trkpt>
      <trkpt lat="47.81305" lon="-3.41478">
        <ele>18.42</ele>
        <time>2020-07-10T11:31:04Z</time>
      </trkpt>
      <trkpt lat="47.81305" lon="-3.41478">
        <ele>18.39</ele>
        <time>2020-07-10T11:31:05Z</time>
      </trkpt>
      <trkpt lat="47.81305" lon="-3.41478">
        <ele>18.38</ele>
        <time>2020-07-10T11:31:06Z</time>
      </trkpt>
      <trkpt lat="47.81305" lon="-3.41478">
        <ele>18.37</ele>
        <time>2020-07-10T11:31:07Z</time>
      </trkpt>
      <trkpt lat="47.81305" lon="-3.41478">
        <ele>18.37</ele>
        <time>2020-07-10T11:31:08Z</time>
      </trkpt>
      <trkpt lat="47.81305" lon="-3.41478">
        <ele>18.37</ele>
        <time>2020-07-10T11:31:09Z</time>
      </trkpt>
      <trkpt lat="47.81305" lon="-3.41478">
        <ele>18.37</ele>
        <time>2020-07-10T11:31:10Z</time>
      </trkpt>
      <trkpt lat="47.81305" lon="-3.41478">
        <ele>18.37</ele>
        <time>2020-07-10T11:31:11Z</time>
      </trkpt>
      <trkpt lat="47.81305" lon="-3.41478">
        <ele>18.37</ele>
        <time>2020-07-10T11:31:12Z</time>
      </trkpt>
      <trkpt lat="47.8131" lon="-3.41489">
        <ele>18.11</ele>
        <time>2020-07-10T11:31:13Z</time>
      </trkpt>
      <trkpt lat="47.81311" lon="-3.41491">
        <ele>18.14</ele>
        <time>2020-07-10T11:31:14Z</time>
      </trkpt>
      <trkpt lat="47.81313" lon="-3.41491">
        <ele>18.42</ele>
        <time>2020-07-10T11:31:15Z</time>
      </trkpt>
      <trkpt lat="47.81314" lon="-3.41493">
        <ele>18.67</ele>
        <time>2020-07-10T11:31:16Z</time>
      </trkpt>
      <trkpt lat="47.81315" lon="-3.41494">
        <ele>18.84</ele>
        <time>2020-07-10T11:31:17Z</time>
      </trkpt>
      <trkpt lat="47.81316" lon="-3.41495">
        <ele>18.95</ele>
        <time>2020-07-10T11:31:18Z</time>
      </trkpt>
      <trkpt lat="47.81318" lon="-3.41496">
        <ele>19.18</ele>
        <time>2020-07-10T11:31:19Z</time>
      </trkpt>
      <trkpt lat="47.81319" lon="-3.41498">
        <ele>19.41</ele>
        <time>2020-07-10T11:31:20Z</time>
      </trkpt>
      <trkpt lat="47.81321" lon="-3.41501">
        <ele>19.72</ele>
        <time>2020-07-10T11:31:21Z</time>
      </trkpt>
      <trkpt lat="47.81323" lon="-3.41503">
        <ele>19.88</ele>
        <time>2020-07-10T11:31:22Z</time>
      </trkpt>
      <trkpt lat="47.81325" lon="-3.41505">
        <ele>19.99</ele>
        <time>2020-07-10T11:31:23Z</time>
      </trkpt>
      <trkpt lat="47.81326" lon="-3.41507">
        <ele>19.95</ele>
        <time>2020-07-10T11:31:24Z</time>
      </trkpt>
      <trkpt lat="47.81327" lon="-3.41508">
        <ele>19.92</ele>
        <time>2020-07-10T11:31:25Z</time>
      </trkpt>
      <trkpt lat="47.81328" lon="-3.41511">
        <ele>19.86</ele>
        <time>2020-07-10T11:31:26Z</time>
      </trkpt>
      <trkpt lat="47.8133" lon="-3.41512">
        <ele>19.9</ele>
        <time>2020-07-10T11:31:27Z</time>
      </trkpt>
      <trkpt lat="47.8133" lon="-3.41513">
        <ele>19.91</ele>
        <time>2020-07-10T11:31:28Z</time>
      </trkpt>
      <trkpt lat="47.8133" lon="-3.41513">
        <ele>19.9</ele>
        <time>2020-07-10T11:31:29Z</time>
      </trkpt>
      <trkpt lat="47.8133" lon="-3.41513">
        <ele>19.9</ele>
        <time>2020-07-10T11:31:30Z</time>
      </trkpt>
      <trkpt lat="47.8133" lon="-3.41513">
        <ele>19.9</ele>
        <time>2020-07-10T11:31:31Z</time>
      </trkpt>
      <trkpt lat="47.8133" lon="-3.41513">
        <ele>19.9</ele>
        <time>2020-07-10T11:31:32Z</time>
      </trkpt>
      <trkpt lat="47.8133" lon="-3.41513">
        <ele>19.9</ele>
        <time>2020-07-10T11:31:33Z</time>
      </trkpt>
      <trkpt lat="47.8133" lon="-3.41513">
        <ele>19.9</ele>
        <time>2020-07-10T11:31:34Z</time>
      </trkpt>
      <trkpt lat="47.8133" lon="-3.41513">
        <ele>19.9</ele>
        <time>2020-07-10T11:31:35Z</time>
      </trkpt>
      <trkpt lat="47.8133" lon="-3.41513">
        <ele>19.9</ele>
        <time>2020-07-10T11:31:36Z</time>
      </trkpt>
      <trkpt lat="47.81334" lon="-3.41521">
        <ele>19.71</ele>
        <time>2020-07-10T11:31:37Z</time>
      </trkpt>
      <trkpt lat="47.81335" lon="-3.41523">
        <ele>19.54</ele>
        <time>2020-07-10T11:31:38Z</time>
      </trkpt>
      <trkpt lat="47.81335" lon="-3.41525">
        <ele>19.32</ele>
        <time>2020-07-10T11:31:39Z</time>
      </trkpt>
      <trkpt lat="47.81335" lon="-3.41528">
        <ele>19.13</ele>
        <time>2020-07-10T11:31:40Z</time>
      </trkpt>
      <trkpt lat="47.81337" lon="-3.41531">
        <ele>19.23</ele>
        <time>2020-07-10T11:31:41Z</time>
      </trkpt>
      <trkpt lat="47.81337" lon="-3.41531">
        <ele>19.16</ele>
        <time>2020-07-10T11:31:42Z</time>
      </trkpt>
      <trkpt lat="47.81337" lon="-3.41533">
        <ele>18.96</ele>
        <time>2020-07-10T11:31:43Z</time>
      </trkpt>
      <trkpt lat="47.81337" lon="-3.41533">
        <ele>18.9</ele>
        <time>2020-07-10T11:31:44Z</time>
      </trkpt>
      <trkpt lat="47.81337" lon="-3.41533">
        <ele>18.88</ele>
        <time>2020-07-10T11:31:45Z</time>
      </trkpt>
      <trkpt lat="47.81337" lon="-3.41533">
        <ele>18.87</ele>
        <time>2020-07-10T11:31:46Z</time>
      </trkpt>
      <trkpt lat="47.81337" lon="-3.41533">
        <ele>18.87</ele>
        <time>2020-07-10T11:31:47Z</time>
      </trkpt>
      <trkpt lat="47.81337" lon="-3.41533">
        <ele>18.87</ele>
        <time>2020-07-10T11:31:48Z</time>
      </trkpt>
      <trkpt lat="47.81337" lon="-3.41533">
        <ele>18.87</ele>
        <time>2020-07-10T11:31:49Z</time>
      </trkpt>
      <trkpt lat="47.81337" lon="-3.41533">
        <ele>18.87</ele>
        <time>2020-07-10T11:31:50Z</time>
      </trkpt>
      <trkpt lat="47.81337" lon="-3.41533">
        <ele>18.87</ele>
        <time>2020-07-10T11:31:51Z</time>
      </trkpt>
      <trkpt lat="47.81337" lon="-3.41533">
        <ele>18.87</ele>
        <time>2020-07-10T11:31:52Z</time>
      </trkpt>
      <trkpt lat="47.81338" lon="-3.41546">
        <ele>18.11</ele>
        <time>2020-07-10T11:31:53Z</time>
      </trkpt>
      <trkpt lat="47.8134" lon="-3.41548">
        <ele>18.11</ele>
        <time>2020-07-10T11:31:54Z</time>
      </trkpt>
      <trkpt lat="47.81343" lon="-3.41553">
        <ele>18.79</ele>
        <time>2020-07-10T11:31:55Z</time>
      </trkpt>
      <trkpt lat="47.81345" lon="-3.41554">
        <ele>19.3</ele>
        <time>2020-07-10T11:31:56Z</time>
      </trkpt>
      <trkpt lat="47.81346" lon="-3.41556">
        <ele>19.66</ele>
        <time>2020-07-10T11:31:57Z</time>
      </trkpt>
      <trkpt lat="47.81347" lon="-3.41557">
        <ele>20.21</ele>
        <time>2020-07-10T11:31:58Z</time>
      </trkpt>
      <trkpt lat="47.81349" lon="-3.41558">
        <ele>20.73</ele>
        <time>2020-07-10T11:31:59Z</time>
      </trkpt>
      <trkpt lat="47.8135" lon="-3.4156">
        <ele>20.99</ele>
        <time>2020-07-10T11:32:00Z</time>
      </trkpt>
      <trkpt lat="47.81351" lon="-3.41561">
        <ele>21.25</ele>
        <time>2020-07-10T11:32:01Z</time>
      </trkpt>
      <trkpt lat="47.81351" lon="-3.41562">
        <ele>21.24</ele>
        <time>2020-07-10T11:32:02Z</time>
      </trkpt>
      <trkpt lat="47.81351" lon="-3.41563">
        <ele>21.13</ele>
        <time>2020-07-10T11:32:03Z</time>
      </trkpt>
      <trkpt lat="47.81351" lon="-3.41563">
        <ele>21</ele>
        <time>2020-07-10T11:32:04Z</time>
      </trkpt>
      <trkpt lat="47.81351" lon="-3.41563">
        <ele>20.97</ele>
        <time>2020-07-10T11:32:05Z</time>
      </trkpt>
      <trkpt lat="47.81351" lon="-3.41563">
        <ele>20.95</ele>
        <time>2020-07-10T11:32:06Z</time>
      </trkpt>
      <trkpt lat="47.81351" lon="-3.41563">
        <ele>20.95</ele>
        <time>2020-07-10T11:32:07Z</time>
      </trkpt>
      <trkpt lat="47.81351" lon="-3.41563">
        <ele>20.95</ele>
        <time>2020-07-10T11:32:08Z</time>
      </trkpt>
      <trkpt lat="47.81351" lon="-3.41563">
        <ele>20.95</ele>
        <time>2020-07-10T11:32:09Z</time>
      </trkpt>
      <trkpt lat="47.81351" lon="-3.41563">
        <ele>20.95</ele>
        <time>2020-07-10T11:32:10Z</time>
      </trkpt>
      <trkpt lat="47.81351" lon="-3.41563">
        <ele>20.95</ele>
        <time>2020-07-10T11:32:11Z</time>
      </trkpt>
      <trkpt lat="47.81351" lon="-3.41563">
        <ele>20.95</ele>
        <time>2020-07-10T11:32:12Z</time>
      </trkpt>
      <trkpt lat="47.81351" lon="-3.41563">
        <ele>20.95</ele>
        <time>2020-07-10T11:32:13Z</time>
      </trkpt>
      <trkpt lat="47.81351" lon="-3.41563">
        <ele>20.95</ele>
        <time>2020-07-10T11:32:14Z</time>
      </trkpt>
      <trkpt lat="47.81351" lon="-3.41563">
        <ele>20.95</ele>
        <time>2020-07-10T11:32:15Z</time>
      </trkpt>
      <trkpt lat="47.81351" lon="-3.41563">
        <ele>20.95</ele>
        <time>2020-07-10T11:32:16Z</time>
      </trkpt>
      <trkpt lat="47.81351" lon="-3.41563">
        <ele>20.95</ele>
        <time>2020-07-10T11:32:17Z</time>
      </trkpt>
      <trkpt lat="47.81351" lon="-3.41563">
        <ele>20.95</ele>
        <time>2020-07-10T11:32:18Z</time>
      </trkpt>
      <trkpt lat="47.81351" lon="-3.41563">
        <ele>20.95</ele>
        <time>2020-07-10T11:32:19Z</time>
      </trkpt>
      <trkpt lat="47.81351" lon="-3.41563">
        <ele>20.95</ele>
        <time>2020-07-10T11:32:20Z</time>
      </trkpt>
      <trkpt lat="47.81351" lon="-3.41563">
        <ele>20.95</ele>
        <time>2020-07-10T11:32:21Z</time>
      </trkpt>
      <trkpt lat="47.8135" lon="-3.41577">
        <ele>19</ele>
        <time>2020-07-10T11:32:22Z</time>
      </trkpt>
      <trkpt lat="47.8135" lon="-3.41577">
        <ele>18.39</ele>
        <time>2020-07-10T11:32:23Z</time>
      </trkpt>
      <trkpt lat="47.81351" lon="-3.41577">
        <ele>18.45</ele>
        <time>2020-07-10T11:32:24Z</time>
      </trkpt>
      <trkpt lat="47.81352" lon="-3.41577">
        <ele>18.5</ele>
        <time>2020-07-10T11:32:25Z</time>
      </trkpt>
      <trkpt lat="47.81352" lon="-3.41577">
        <ele>18.51</ele>
        <time>2020-07-10T11:32:26Z</time>
      </trkpt>
      <trkpt lat="47.81352" lon="-3.41577">
        <ele>18.52</ele>
        <time>2020-07-10T11:32:27Z</time>
      </trkpt>
      <trkpt lat="47.81352" lon="-3.41577">
        <ele>18.52</ele>
        <time>2020-07-10T11:32:28Z</time>
      </trkpt>
      <trkpt lat="47.81352" lon="-3.41577">
        <ele>18.52</ele>
        <time>2020-07-10T11:32:29Z</time>
      </trkpt>
      <trkpt lat="47.81352" lon="-3.41577">
        <ele>18.52</ele>
        <time>2020-07-10T11:32:30Z</time>
      </trkpt>
      <trkpt lat="47.81352" lon="-3.41577">
        <ele>18.52</ele>
        <time>2020-07-10T11:32:31Z</time>
      </trkpt>
      <trkpt lat="47.81352" lon="-3.41577">
        <ele>18.52</ele>
        <time>2020-07-10T11:32:32Z</time>
      </trkpt>
      <trkpt lat="47.81352" lon="-3.41577">
        <ele>18.52</ele>
        <time>2020-07-10T11:32:33Z</time>
      </trkpt>
      <trkpt lat="47.81352" lon="-3.41577">
        <ele>18.52</ele>
        <time>2020-07-10T11:32:34Z</time>
      </trkpt>
      <trkpt lat="47.81352" lon="-3.41577">
        <ele>18.52</ele>
        <time>2020-07-10T11:32:35Z</time>
      </trkpt>
      <trkpt lat="47.81352" lon="-3.41577">
        <ele>18.52</ele>
        <time>2020-07-10T11:32:36Z</time>
      </trkpt>
      <trkpt lat="47.81352" lon="-3.41577">
        <ele>18.52</ele>
        <time>2020-07-10T11:32:37Z</time>
      </trkpt>
      <trkpt lat="47.81352" lon="-3.41577">
        <ele>18.52</ele>
        <time>2020-07-10T11:32:38Z</time>
      </trkpt>
      <trkpt lat="47.81352" lon="-3.41577">
        <ele>18.52</ele>
        <time>2020-07-10T11:32:39Z</time>
      </trkpt>
      <trkpt lat="47.81352" lon="-3.41577">
        <ele>18.52</ele>
        <time>2020-07-10T11:32:40Z</time>
      </trkpt>
      <trkpt lat="47.81352" lon="-3.41577">
        <ele>18.52</ele>
        <time>2020-07-10T11:32:41Z</time>
      </trkpt>
      <trkpt lat="47.81352" lon="-3.41577">
        <ele>18.52</ele>
        <time>2020-07-10T11:32:42Z</time>
      </trkpt>
      <trkpt lat="47.81352" lon="-3.41577">
        <ele>18.52</ele>
        <time>2020-07-10T11:32:43Z</time>
      </trkpt>
      <trkpt lat="47.81352" lon="-3.41577">
        <ele>18.52</ele>
        <time>2020-07-10T11:32:44Z</time>
      </trkpt>
      <trkpt lat="47.81352" lon="-3.41577">
        <ele>18.52</ele>
        <time>2020-07-10T11:32:45Z</time>
      </trkpt>
      <trkpt lat="47.81352" lon="-3.41577">
        <ele>18.52</ele>
        <time>2020-07-10T11:32:46Z</time>
      </trkpt>
      <trkpt lat="47.81352" lon="-3.41577">
        <ele>18.52</ele>
        <time>2020-07-10T11:32:47Z</time>
      </trkpt>
      <trkpt lat="47.81352" lon="-3.41577">
        <ele>18.52</ele>
        <time>2020-07-10T11:32:48Z</time>
      </trkpt>
      <trkpt lat="47.81352" lon="-3.41577">
        <ele>18.52</ele>
        <time>2020-07-10T11:32:49Z</time>
      </trkpt>
      <trkpt lat="47.81352" lon="-3.41577">
        <ele>18.52</ele>
        <time>2020-07-10T11:32:50Z</time>
      </trkpt>
      <trkpt lat="47.81352" lon="-3.41577">
        <ele>18.52</ele>
        <time>2020-07-10T11:32:51Z</time>
      </trkpt>
      <trkpt lat="47.81352" lon="-3.41577">
        <ele>18.52</ele>
        <time>2020-07-10T11:32:52Z</time>
      </trkpt>
      <trkpt lat="47.81352" lon="-3.41577">
        <ele>18.52</ele>
        <time>2020-07-10T11:32:53Z</time>
      </trkpt>
      <trkpt lat="47.81352" lon="-3.41577">
        <ele>18.52</ele>
        <time>2020-07-10T11:32:54Z</time>
      </trkpt>
      <trkpt lat="47.81352" lon="-3.41577">
        <ele>18.52</ele>
        <time>2020-07-10T11:32:55Z</time>
      </trkpt>
      <trkpt lat="47.81352" lon="-3.41577">
        <ele>18.52</ele>
        <time>2020-07-10T11:32:56Z</time>
      </trkpt>
      <trkpt lat="47.81352" lon="-3.41577">
        <ele>18.52</ele>
        <time>2020-07-10T11:32:57Z</time>
      </trkpt>
      <trkpt lat="47.81353" lon="-3.4159">
        <ele>17.28</ele>
        <time>2020-07-10T11:32:58Z</time>
      </trkpt>
      <trkpt lat="47.81352" lon="-3.41591">
        <ele>16.72</ele>
        <time>2020-07-10T11:32:59Z</time>
      </trkpt>
      <trkpt lat="47.8135" lon="-3.41591">
        <ele>16.35</ele>
        <time>2020-07-10T11:33:00Z</time>
      </trkpt>
      <trkpt lat="47.8135" lon="-3.41591">
        <ele>16.19</ele>
        <time>2020-07-10T11:33:01Z</time>
      </trkpt>
      <trkpt lat="47.8135" lon="-3.41591">
        <ele>16.14</ele>
        <time>2020-07-10T11:33:02Z</time>
      </trkpt>
      <trkpt lat="47.8135" lon="-3.41591">
        <ele>16.13</ele>
        <time>2020-07-10T11:33:03Z</time>
      </trkpt>
      <trkpt lat="47.8135" lon="-3.41591">
        <ele>16.12</ele>
        <time>2020-07-10T11:33:04Z</time>
      </trkpt>
      <trkpt lat="47.8135" lon="-3.41591">
        <ele>16.12</ele>
        <time>2020-07-10T11:33:05Z</time>
      </trkpt>
      <trkpt lat="47.8135" lon="-3.41591">
        <ele>16.12</ele>
        <time>2020-07-10T11:33:06Z</time>
      </trkpt>
      <trkpt lat="47.8135" lon="-3.41591">
        <ele>16.12</ele>
        <time>2020-07-10T11:33:07Z</time>
      </trkpt>
      <trkpt lat="47.8135" lon="-3.41591">
        <ele>16.12</ele>
        <time>2020-07-10T11:33:08Z</time>
      </trkpt>
      <trkpt lat="47.8135" lon="-3.41591">
        <ele>16.12</ele>
        <time>2020-07-10T11:33:09Z</time>
      </trkpt>
      <trkpt lat="47.8135" lon="-3.41591">
        <ele>16.12</ele>
        <time>2020-07-10T11:33:10Z</time>
      </trkpt>
      <trkpt lat="47.8135" lon="-3.41591">
        <ele>16.12</ele>
        <time>2020-07-10T11:33:11Z</time>
      </trkpt>
      <trkpt lat="47.81347" lon="-3.41606">
        <ele>14.86</ele>
        <time>2020-07-10T11:33:12Z</time>
      </trkpt>
      <trkpt lat="47.81346" lon="-3.41609">
        <ele>14.27</ele>
        <time>2020-07-10T11:33:13Z</time>
      </trkpt>
      <trkpt lat="47.81343" lon="-3.41613">
        <ele>13.92</ele>
        <time>2020-07-10T11:33:14Z</time>
      </trkpt>
      <trkpt lat="47.81342" lon="-3.41617">
        <ele>13.82</ele>
        <time>2020-07-10T11:33:15Z</time>
      </trkpt>
      <trkpt lat="47.81342" lon="-3.4162">
        <ele>13.82</ele>
        <time>2020-07-10T11:33:16Z</time>
      </trkpt>
      <trkpt lat="47.8134" lon="-3.41622">
        <ele>13.81</ele>
        <time>2020-07-10T11:33:17Z</time>
      </trkpt>
      <trkpt lat="47.81339" lon="-3.41626">
        <ele>13.83</ele>
        <time>2020-07-10T11:33:18Z</time>
      </trkpt>
      <trkpt lat="47.81338" lon="-3.41629">
        <ele>13.85</ele>
        <time>2020-07-10T11:33:19Z</time>
      </trkpt>
      <trkpt lat="47.81336" lon="-3.41632">
        <ele>13.87</ele>
        <time>2020-07-10T11:33:20Z</time>
      </trkpt>
      <trkpt lat="47.81334" lon="-3.41636">
        <ele>13.92</ele>
        <time>2020-07-10T11:33:21Z</time>
      </trkpt>
      <trkpt lat="47.81333" lon="-3.4164">
        <ele>13.99</ele>
        <time>2020-07-10T11:33:22Z</time>
      </trkpt>
      <trkpt lat="47.81332" lon="-3.41643">
        <ele>14.04</ele>
        <time>2020-07-10T11:33:23Z</time>
      </trkpt>
      <trkpt lat="47.81331" lon="-3.41646">
        <ele>14.09</ele>
        <time>2020-07-10T11:33:24Z</time>
      </trkpt>
      <trkpt lat="47.8133" lon="-3.41649">
        <ele>14.13</ele>
        <time>2020-07-10T11:33:25Z</time>
      </trkpt>
      <trkpt lat="47.81331" lon="-3.41656">
        <ele>14.14</ele>
        <time>2020-07-10T11:33:26Z</time>
      </trkpt>
      <trkpt lat="47.81329" lon="-3.41659">
        <ele>14.22</ele>
        <time>2020-07-10T11:33:27Z</time>
      </trkpt>
      <trkpt lat="47.81328" lon="-3.41664">
        <ele>14.32</ele>
        <time>2020-07-10T11:33:28Z</time>
      </trkpt>
      <trkpt lat="47.81327" lon="-3.41669">
        <ele>14.4</ele>
        <time>2020-07-10T11:33:29Z</time>
      </trkpt>
      <trkpt lat="47.81327" lon="-3.41673">
        <ele>14.42</ele>
        <time>2020-07-10T11:33:30Z</time>
      </trkpt>
      <trkpt lat="47.81325" lon="-3.41677">
        <ele>14.48</ele>
        <time>2020-07-10T11:33:31Z</time>
      </trkpt>
      <trkpt lat="47.81323" lon="-3.4168">
        <ele>14.53</ele>
        <time>2020-07-10T11:33:32Z</time>
      </trkpt>
      <trkpt lat="47.81323" lon="-3.41683">
        <ele>14.54</ele>
        <time>2020-07-10T11:33:33Z</time>
      </trkpt>
      <trkpt lat="47.81322" lon="-3.41687">
        <ele>14.54</ele>
        <time>2020-07-10T11:33:34Z</time>
      </trkpt>
      <trkpt lat="47.8132" lon="-3.41691">
        <ele>14.53</ele>
        <time>2020-07-10T11:33:35Z</time>
      </trkpt>
      <trkpt lat="47.81318" lon="-3.41696">
        <ele>14.56</ele>
        <time>2020-07-10T11:33:36Z</time>
      </trkpt>
      <trkpt lat="47.81316" lon="-3.41699">
        <ele>14.64</ele>
        <time>2020-07-10T11:33:37Z</time>
      </trkpt>
      <trkpt lat="47.81314" lon="-3.41704">
        <ele>14.64</ele>
        <time>2020-07-10T11:33:38Z</time>
      </trkpt>
      <trkpt lat="47.81311" lon="-3.41708">
        <ele>14.49</ele>
        <time>2020-07-10T11:33:39Z</time>
      </trkpt>
      <trkpt lat="47.8131" lon="-3.41712">
        <ele>14.29</ele>
        <time>2020-07-10T11:33:40Z</time>
      </trkpt>
      <trkpt lat="47.81309" lon="-3.41716">
        <ele>14</ele>
        <time>2020-07-10T11:33:41Z</time>
      </trkpt>
      <trkpt lat="47.81308" lon="-3.4172">
        <ele>13.64</ele>
        <time>2020-07-10T11:33:42Z</time>
      </trkpt>
      <trkpt lat="47.81306" lon="-3.41725">
        <ele>13.32</ele>
        <time>2020-07-10T11:33:43Z</time>
      </trkpt>
      <trkpt lat="47.81304" lon="-3.41729">
        <ele>13.47</ele>
        <time>2020-07-10T11:33:44Z</time>
      </trkpt>
      <trkpt lat="47.81302" lon="-3.41733">
        <ele>13.76</ele>
        <time>2020-07-10T11:33:45Z</time>
      </trkpt>
      <trkpt lat="47.81301" lon="-3.41737">
        <ele>14.02</ele>
        <time>2020-07-10T11:33:46Z</time>
      </trkpt>
      <trkpt lat="47.81299" lon="-3.4174">
        <ele>14.2</ele>
        <time>2020-07-10T11:33:47Z</time>
      </trkpt>
      <trkpt lat="47.81298" lon="-3.41742">
        <ele>14.34</ele>
        <time>2020-07-10T11:33:48Z</time>
      </trkpt>
      <trkpt lat="47.81297" lon="-3.41745">
        <ele>14.44</ele>
        <time>2020-07-10T11:33:49Z</time>
      </trkpt>
      <trkpt lat="47.81295" lon="-3.41747">
        <ele>14.5</ele>
        <time>2020-07-10T11:33:50Z</time>
      </trkpt>
      <trkpt lat="47.81294" lon="-3.41749">
        <ele>14.55</ele>
        <time>2020-07-10T11:33:51Z</time>
      </trkpt>
      <trkpt lat="47.81292" lon="-3.41753">
        <ele>14.59</ele>
        <time>2020-07-10T11:33:52Z</time>
      </trkpt>
      <trkpt lat="47.8129" lon="-3.41758">
        <ele>14.64</ele>
        <time>2020-07-10T11:33:53Z</time>
      </trkpt>
      <trkpt lat="47.81289" lon="-3.41762">
        <ele>14.67</ele>
        <time>2020-07-10T11:33:54Z</time>
      </trkpt>
      <trkpt lat="47.81289" lon="-3.41767">
        <ele>14.74</ele>
        <time>2020-07-10T11:33:55Z</time>
      </trkpt>
      <trkpt lat="47.81289" lon="-3.41774">
        <ele>14.88</ele>
        <time>2020-07-10T11:33:56Z</time>
      </trkpt>
      <trkpt lat="47.8129" lon="-3.41781">
        <ele>15.22</ele>
        <time>2020-07-10T11:33:57Z</time>
      </trkpt>
      <trkpt lat="47.81292" lon="-3.4179">
        <ele>15.94</ele>
        <time>2020-07-10T11:33:58Z</time>
      </trkpt>
      <trkpt lat="47.81293" lon="-3.41796">
        <ele>16.6</ele>
        <time>2020-07-10T11:33:59Z</time>
      </trkpt>
      <trkpt lat="47.81295" lon="-3.418">
        <ele>17.31</ele>
        <time>2020-07-10T11:34:00Z</time>
      </trkpt>
      <trkpt lat="47.81297" lon="-3.41806">
        <ele>18.16</ele>
        <time>2020-07-10T11:34:01Z</time>
      </trkpt>
      <trkpt lat="47.81299" lon="-3.4181">
        <ele>18.71</ele>
        <time>2020-07-10T11:34:02Z</time>
      </trkpt>
      <trkpt lat="47.813" lon="-3.41814">
        <ele>19.08</ele>
        <time>2020-07-10T11:34:03Z</time>
      </trkpt>
      <trkpt lat="47.81303" lon="-3.41818">
        <ele>19.66</ele>
        <time>2020-07-10T11:34:04Z</time>
      </trkpt>
      <trkpt lat="47.81306" lon="-3.41822">
        <ele>20.22</ele>
        <time>2020-07-10T11:34:05Z</time>
      </trkpt>
      <trkpt lat="47.8131" lon="-3.41826">
        <ele>20.78</ele>
        <time>2020-07-10T11:34:06Z</time>
      </trkpt>
      <trkpt lat="47.81313" lon="-3.4183">
        <ele>21.24</ele>
        <time>2020-07-10T11:34:07Z</time>
      </trkpt>
      <trkpt lat="47.81315" lon="-3.41836">
        <ele>21.38</ele>
        <time>2020-07-10T11:34:08Z</time>
      </trkpt>
      <trkpt lat="47.81318" lon="-3.41841">
        <ele>21.33</ele>
        <time>2020-07-10T11:34:09Z</time>
      </trkpt>
      <trkpt lat="47.81321" lon="-3.41845">
        <ele>21.39</ele>
        <time>2020-07-10T11:34:10Z</time>
      </trkpt>
      <trkpt lat="47.81325" lon="-3.41849">
        <ele>21.54</ele>
        <time>2020-07-10T11:34:11Z</time>
      </trkpt>
      <trkpt lat="47.81328" lon="-3.41851">
        <ele>21.82</ele>
        <time>2020-07-10T11:34:12Z</time>
      </trkpt>
      <trkpt lat="47.81331" lon="-3.41853">
        <ele>22.2</ele>
        <time>2020-07-10T11:34:13Z</time>
      </trkpt>
      <trkpt lat="47.81334" lon="-3.41854">
        <ele>22.65</ele>
        <time>2020-07-10T11:34:14Z</time>
      </trkpt>
      <trkpt lat="47.81337" lon="-3.41855">
        <ele>22.85</ele>
        <time>2020-07-10T11:34:15Z</time>
      </trkpt>
      <trkpt lat="47.8134" lon="-3.41858">
        <ele>22.98</ele>
        <time>2020-07-10T11:34:16Z</time>
      </trkpt>
      <trkpt lat="47.81344" lon="-3.4186">
        <ele>23.15</ele>
        <time>2020-07-10T11:34:17Z</time>
      </trkpt>
      <trkpt lat="47.81346" lon="-3.41863">
        <ele>22.98</ele>
        <time>2020-07-10T11:34:18Z</time>
      </trkpt>
      <trkpt lat="47.81348" lon="-3.41866">
        <ele>22.68</ele>
        <time>2020-07-10T11:34:19Z</time>
      </trkpt>
      <trkpt lat="47.8135" lon="-3.4187">
        <ele>22.28</ele>
        <time>2020-07-10T11:34:20Z</time>
      </trkpt>
      <trkpt lat="47.81352" lon="-3.41876">
        <ele>21.47</ele>
        <time>2020-07-10T11:34:21Z</time>
      </trkpt>
      <trkpt lat="47.81354" lon="-3.41879">
        <ele>21.07</ele>
        <time>2020-07-10T11:34:22Z</time>
      </trkpt>
      <trkpt lat="47.81356" lon="-3.41881">
        <ele>20.79</ele>
        <time>2020-07-10T11:34:23Z</time>
      </trkpt>
      <trkpt lat="47.81358" lon="-3.41883">
        <ele>20.59</ele>
        <time>2020-07-10T11:34:24Z</time>
      </trkpt>
      <trkpt lat="47.8136" lon="-3.41885">
        <ele>20.53</ele>
        <time>2020-07-10T11:34:25Z</time>
      </trkpt>
      <trkpt lat="47.81363" lon="-3.41887">
        <ele>20.58</ele>
        <time>2020-07-10T11:34:26Z</time>
      </trkpt>
      <trkpt lat="47.81366" lon="-3.4189">
        <ele>20.72</ele>
        <time>2020-07-10T11:34:27Z</time>
      </trkpt>
      <trkpt lat="47.81369" lon="-3.41893">
        <ele>20.88</ele>
        <time>2020-07-10T11:34:28Z</time>
      </trkpt>
      <trkpt lat="47.81372" lon="-3.41897">
        <ele>20.82</ele>
        <time>2020-07-10T11:34:29Z</time>
      </trkpt>
      <trkpt lat="47.81375" lon="-3.41902">
        <ele>20.78</ele>
        <time>2020-07-10T11:34:30Z</time>
      </trkpt>
      <trkpt lat="47.8138" lon="-3.41905">
        <ele>20.99</ele>
        <time>2020-07-10T11:34:31Z</time>
      </trkpt>
      <trkpt lat="47.81383" lon="-3.41909">
        <ele>21.1</ele>
        <time>2020-07-10T11:34:32Z</time>
      </trkpt>
      <trkpt lat="47.81387" lon="-3.41913">
        <ele>21.23</ele>
        <time>2020-07-10T11:34:33Z</time>
      </trkpt>
      <trkpt lat="47.8139" lon="-3.41917">
        <ele>21.18</ele>
        <time>2020-07-10T11:34:34Z</time>
      </trkpt>
      <trkpt lat="47.81394" lon="-3.41921">
        <ele>20.83</ele>
        <time>2020-07-10T11:34:35Z</time>
      </trkpt>
      <trkpt lat="47.81398" lon="-3.41926">
        <ele>20.36</ele>
        <time>2020-07-10T11:34:36Z</time>
      </trkpt>
      <trkpt lat="47.81402" lon="-3.41929">
        <ele>19.92</ele>
        <time>2020-07-10T11:34:37Z</time>
      </trkpt>
      <trkpt lat="47.81404" lon="-3.41932">
        <ele>19.39</ele>
        <time>2020-07-10T11:34:38Z</time>
      </trkpt>
      <trkpt lat="47.81409" lon="-3.41936">
        <ele>18.85</ele>
        <time>2020-07-10T11:34:39Z</time>
      </trkpt>
      <trkpt lat="47.81412" lon="-3.41939">
        <ele>18.38</ele>
        <time>2020-07-10T11:34:40Z</time>
      </trkpt>
      <trkpt lat="47.81415" lon="-3.41942">
        <ele>17.77</ele>
        <time>2020-07-10T11:34:41Z</time>
      </trkpt>
      <trkpt lat="47.81419" lon="-3.41946">
        <ele>17.37</ele>
        <time>2020-07-10T11:34:42Z</time>
      </trkpt>
      <trkpt lat="47.81422" lon="-3.41949">
        <ele>17.44</ele>
        <time>2020-07-10T11:34:43Z</time>
      </trkpt>
      <trkpt lat="47.81425" lon="-3.41951">
        <ele>17.73</ele>
        <time>2020-07-10T11:34:44Z</time>
      </trkpt>
      <trkpt lat="47.81429" lon="-3.41951">
        <ele>18.29</ele>
        <time>2020-07-10T11:34:45Z</time>
      </trkpt>
      <trkpt lat="47.81433" lon="-3.41952">
        <ele>18.77</ele>
        <time>2020-07-10T11:34:46Z</time>
      </trkpt>
      <trkpt lat="47.81435" lon="-3.41954">
        <ele>19.01</ele>
        <time>2020-07-10T11:34:47Z</time>
      </trkpt>
      <trkpt lat="47.81438" lon="-3.41956">
        <ele>19.01</ele>
        <time>2020-07-10T11:34:48Z</time>
      </trkpt>
      <trkpt lat="47.81439" lon="-3.41957">
        <ele>18.93</ele>
        <time>2020-07-10T11:34:49Z</time>
      </trkpt>
      <trkpt lat="47.81439" lon="-3.41957">
        <ele>18.96</ele>
        <time>2020-07-10T11:34:50Z</time>
      </trkpt>
      <trkpt lat="47.81439" lon="-3.41957">
        <ele>18.98</ele>
        <time>2020-07-10T11:34:51Z</time>
      </trkpt>
      <trkpt lat="47.81439" lon="-3.41957">
        <ele>18.99</ele>
        <time>2020-07-10T11:34:52Z</time>
      </trkpt>
      <trkpt lat="47.81439" lon="-3.41957">
        <ele>18.99</ele>
        <time>2020-07-10T11:34:53Z</time>
      </trkpt>
      <trkpt lat="47.81439" lon="-3.41957">
        <ele>18.99</ele>
        <time>2020-07-10T11:34:54Z</time>
      </trkpt>
      <trkpt lat="47.81439" lon="-3.41957">
        <ele>18.99</ele>
        <time>2020-07-10T11:34:55Z</time>
      </trkpt>
      <trkpt lat="47.81439" lon="-3.41957">
        <ele>18.99</ele>
        <time>2020-07-10T11:34:56Z</time>
      </trkpt>
      <trkpt lat="47.81439" lon="-3.41957">
        <ele>18.99</ele>
        <time>2020-07-10T11:34:57Z</time>
      </trkpt>
      <trkpt lat="47.81439" lon="-3.41957">
        <ele>18.99</ele>
        <time>2020-07-10T11:34:58Z</time>
      </trkpt>
      <trkpt lat="47.81439" lon="-3.41957">
        <ele>18.99</ele>
        <time>2020-07-10T11:34:59Z</time>
      </trkpt>
      <trkpt lat="47.81439" lon="-3.41957">
        <ele>18.99</ele>
        <time>2020-07-10T11:35:00Z</time>
      </trkpt>
      <trkpt lat="47.81439" lon="-3.41957">
        <ele>18.99</ele>
        <time>2020-07-10T11:35:01Z</time>
      </trkpt>
      <trkpt lat="47.81439" lon="-3.41957">
        <ele>18.99</ele>
        <time>2020-07-10T11:35:02Z</time>
      </trkpt>
      <trkpt lat="47.81439" lon="-3.41957">
        <ele>18.99</ele>
        <time>2020-07-10T11:35:03Z</time>
      </trkpt>
      <trkpt lat="47.81439" lon="-3.41957">
        <ele>18.99</ele>
        <time>2020-07-10T11:35:04Z</time>
      </trkpt>
      <trkpt lat="47.81439" lon="-3.41957">
        <ele>18.99</ele>
        <time>2020-07-10T11:35:05Z</time>
      </trkpt>
      <trkpt lat="47.81439" lon="-3.41957">
        <ele>18.99</ele>
        <time>2020-07-10T11:35:06Z</time>
      </trkpt>
      <trkpt lat="47.81439" lon="-3.41957">
        <ele>18.99</ele>
        <time>2020-07-10T11:35:07Z</time>
      </trkpt>
      <trkpt lat="47.81439" lon="-3.41957">
        <ele>18.99</ele>
        <time>2020-07-10T11:35:08Z</time>
      </trkpt>
      <trkpt lat="47.81439" lon="-3.41957">
        <ele>18.99</ele>
        <time>2020-07-10T11:35:09Z</time>
      </trkpt>
      <trkpt lat="47.81439" lon="-3.41957">
        <ele>18.99</ele>
        <time>2020-07-10T11:35:10Z</time>
      </trkpt>
      <trkpt lat="47.81439" lon="-3.41957">
        <ele>18.99</ele>
        <time>2020-07-10T11:35:11Z</time>
      </trkpt>
      <trkpt lat="47.81439" lon="-3.41957">
        <ele>18.99</ele>
        <time>2020-07-10T11:35:12Z</time>
      </trkpt>
      <trkpt lat="47.81446" lon="-3.41968">
        <ele>17.78</ele>
        <time>2020-07-10T11:35:13Z</time>
      </trkpt>
      <trkpt lat="47.81448" lon="-3.41969">
        <ele>17.23</ele>
        <time>2020-07-10T11:35:14Z</time>
      </trkpt>
      <trkpt lat="47.81448" lon="-3.4197">
        <ele>16.99</ele>
        <time>2020-07-10T11:35:15Z</time>
      </trkpt>
      <trkpt lat="47.81448" lon="-3.4197">
        <ele>16.97</ele>
        <time>2020-07-10T11:35:16Z</time>
      </trkpt>
      <trkpt lat="47.81448" lon="-3.4197">
        <ele>16.96</ele>
        <time>2020-07-10T11:35:17Z</time>
      </trkpt>
      <trkpt lat="47.81448" lon="-3.4197">
        <ele>16.96</ele>
        <time>2020-07-10T11:35:18Z</time>
      </trkpt>
      <trkpt lat="47.81448" lon="-3.4197">
        <ele>16.95</ele>
        <time>2020-07-10T11:35:19Z</time>
      </trkpt>
      <trkpt lat="47.81448" lon="-3.4197">
        <ele>16.95</ele>
        <time>2020-07-10T11:35:20Z</time>
      </trkpt>
      <trkpt lat="47.81448" lon="-3.4197">
        <ele>16.95</ele>
        <time>2020-07-10T11:35:21Z</time>
      </trkpt>
      <trkpt lat="47.81448" lon="-3.4197">
        <ele>16.95</ele>
        <time>2020-07-10T11:35:22Z</time>
      </trkpt>
      <trkpt lat="47.81448" lon="-3.4197">
        <ele>16.95</ele>
        <time>2020-07-10T11:35:23Z</time>
      </trkpt>
      <trkpt lat="47.81454" lon="-3.41966">
        <ele>17.87</ele>
        <time>2020-07-10T11:35:24Z</time>
      </trkpt>
      <trkpt lat="47.81455" lon="-3.41966">
        <ele>18.23</ele>
        <time>2020-07-10T11:35:25Z</time>
      </trkpt>
      <trkpt lat="47.81455" lon="-3.41966">
        <ele>18.36</ele>
        <time>2020-07-10T11:35:26Z</time>
      </trkpt>
      <trkpt lat="47.81455" lon="-3.41966">
        <ele>18.44</ele>
        <time>2020-07-10T11:35:27Z</time>
      </trkpt>
      <trkpt lat="47.81455" lon="-3.41966">
        <ele>18.46</ele>
        <time>2020-07-10T11:35:28Z</time>
      </trkpt>
      <trkpt lat="47.81455" lon="-3.41966">
        <ele>18.47</ele>
        <time>2020-07-10T11:35:29Z</time>
      </trkpt>
      <trkpt lat="47.81455" lon="-3.41966">
        <ele>18.47</ele>
        <time>2020-07-10T11:35:30Z</time>
      </trkpt>
      <trkpt lat="47.81455" lon="-3.41966">
        <ele>18.47</ele>
        <time>2020-07-10T11:35:31Z</time>
      </trkpt>
      <trkpt lat="47.81455" lon="-3.41966">
        <ele>18.47</ele>
        <time>2020-07-10T11:35:32Z</time>
      </trkpt>
      <trkpt lat="47.81455" lon="-3.41966">
        <ele>18.47</ele>
        <time>2020-07-10T11:35:33Z</time>
      </trkpt>
      <trkpt lat="47.81455" lon="-3.41966">
        <ele>18.47</ele>
        <time>2020-07-10T11:35:34Z</time>
      </trkpt>
      <trkpt lat="47.81455" lon="-3.41966">
        <ele>18.47</ele>
        <time>2020-07-10T11:35:35Z</time>
      </trkpt>
      <trkpt lat="47.81455" lon="-3.41966">
        <ele>18.47</ele>
        <time>2020-07-10T11:35:36Z</time>
      </trkpt>
      <trkpt lat="47.81455" lon="-3.41966">
        <ele>18.47</ele>
        <time>2020-07-10T11:35:37Z</time>
      </trkpt>
      <trkpt lat="47.81455" lon="-3.41966">
        <ele>18.47</ele>
        <time>2020-07-10T11:35:38Z</time>
      </trkpt>
      <trkpt lat="47.81455" lon="-3.41966">
        <ele>18.47</ele>
        <time>2020-07-10T11:35:39Z</time>
      </trkpt>
      <trkpt lat="47.81455" lon="-3.41966">
        <ele>18.47</ele>
        <time>2020-07-10T11:35:40Z</time>
      </trkpt>
      <trkpt lat="47.81455" lon="-3.41966">
        <ele>18.47</ele>
        <time>2020-07-10T11:35:41Z</time>
      </trkpt>
      <trkpt lat="47.81455" lon="-3.41966">
        <ele>18.47</ele>
        <time>2020-07-10T11:35:42Z</time>
      </trkpt>
      <trkpt lat="47.81455" lon="-3.41966">
        <ele>18.47</ele>
        <time>2020-07-10T11:35:43Z</time>
      </trkpt>
      <trkpt lat="47.81455" lon="-3.41966">
        <ele>18.47</ele>
        <time>2020-07-10T11:35:44Z</time>
      </trkpt>
      <trkpt lat="47.81455" lon="-3.41966">
        <ele>18.47</ele>
        <time>2020-07-10T11:35:45Z</time>
      </trkpt>
      <trkpt lat="47.81455" lon="-3.41966">
        <ele>18.47</ele>
        <time>2020-07-10T11:35:46Z</time>
      </trkpt>
      <trkpt lat="47.81455" lon="-3.41966">
        <ele>18.47</ele>
        <time>2020-07-10T11:35:47Z</time>
      </trkpt>
      <trkpt lat="47.81455" lon="-3.41966">
        <ele>18.47</ele>
        <time>2020-07-10T11:35:48Z</time>
      </trkpt>
      <trkpt lat="47.81455" lon="-3.41966">
        <ele>18.47</ele>
        <time>2020-07-10T11:35:49Z</time>
      </trkpt>
      <trkpt lat="47.81455" lon="-3.41966">
        <ele>18.47</ele>
        <time>2020-07-10T11:35:50Z</time>
      </trkpt>
      <trkpt lat="47.81455" lon="-3.41966">
        <ele>18.47</ele>
        <time>2020-07-10T11:35:51Z</time>
      </trkpt>
      <trkpt lat="47.81455" lon="-3.41966">
        <ele>18.47</ele>
        <time>2020-07-10T11:35:52Z</time>
      </trkpt>
      <trkpt lat="47.81455" lon="-3.41966">
        <ele>18.47</ele>
        <time>2020-07-10T11:35:53Z</time>
      </trkpt>
      <trkpt lat="47.81455" lon="-3.41966">
        <ele>18.47</ele>
        <time>2020-07-10T11:35:54Z</time>
      </trkpt>
      <trkpt lat="47.81463" lon="-3.41959">
        <ele>20.21</ele>
        <time>2020-07-10T11:35:55Z</time>
      </trkpt>
      <trkpt lat="47.81464" lon="-3.41959">
        <ele>20.84</ele>
        <time>2020-07-10T11:35:56Z</time>
      </trkpt>
      <trkpt lat="47.81465" lon="-3.41959">
        <ele>21.1</ele>
        <time>2020-07-10T11:35:57Z</time>
      </trkpt>
      <trkpt lat="47.81464" lon="-3.41959">
        <ele>21.14</ele>
        <time>2020-07-10T11:35:58Z</time>
      </trkpt>
      <trkpt lat="47.81464" lon="-3.41959">
        <ele>21.15</ele>
        <time>2020-07-10T11:35:59Z</time>
      </trkpt>
      <trkpt lat="47.81464" lon="-3.41959">
        <ele>21.15</ele>
        <time>2020-07-10T11:36:00Z</time>
      </trkpt>
      <trkpt lat="47.81464" lon="-3.41959">
        <ele>21.15</ele>
        <time>2020-07-10T11:36:01Z</time>
      </trkpt>
      <trkpt lat="47.81464" lon="-3.41959">
        <ele>21.15</ele>
        <time>2020-07-10T11:36:02Z</time>
      </trkpt>
      <trkpt lat="47.81464" lon="-3.41959">
        <ele>21.15</ele>
        <time>2020-07-10T11:36:03Z</time>
      </trkpt>
      <trkpt lat="47.81464" lon="-3.41959">
        <ele>21.15</ele>
        <time>2020-07-10T11:36:04Z</time>
      </trkpt>
      <trkpt lat="47.81464" lon="-3.41959">
        <ele>21.15</ele>
        <time>2020-07-10T11:36:05Z</time>
      </trkpt>
      <trkpt lat="47.81464" lon="-3.41959">
        <ele>21.15</ele>
        <time>2020-07-10T11:36:06Z</time>
      </trkpt>
      <trkpt lat="47.81464" lon="-3.41959">
        <ele>21.15</ele>
        <time>2020-07-10T11:36:07Z</time>
      </trkpt>
      <trkpt lat="47.81464" lon="-3.41959">
        <ele>21.15</ele>
        <time>2020-07-10T11:36:08Z</time>
      </trkpt>
      <trkpt lat="47.81464" lon="-3.41959">
        <ele>21.15</ele>
        <time>2020-07-10T11:36:09Z</time>
      </trkpt>
      <trkpt lat="47.81464" lon="-3.41959">
        <ele>21.15</ele>
        <time>2020-07-10T11:36:10Z</time>
      </trkpt>
      <trkpt lat="47.81464" lon="-3.41959">
        <ele>21.15</ele>
        <time>2020-07-10T11:36:11Z</time>
      </trkpt>
      <trkpt lat="47.81464" lon="-3.41959">
        <ele>21.15</ele>
        <time>2020-07-10T11:36:12Z</time>
      </trkpt>
      <trkpt lat="47.81464" lon="-3.41959">
        <ele>21.15</ele>
        <time>2020-07-10T11:36:13Z</time>
      </trkpt>
      <trkpt lat="47.81464" lon="-3.41959">
        <ele>21.15</ele>
        <time>2020-07-10T11:36:14Z</time>
      </trkpt>
      <trkpt lat="47.81464" lon="-3.41959">
        <ele>21.15</ele>
        <time>2020-07-10T11:36:15Z</time>
      </trkpt>
      <trkpt lat="47.81469" lon="-3.41958">
        <ele>21.5</ele>
        <time>2020-07-10T11:36:16Z</time>
      </trkpt>
      <trkpt lat="47.8147" lon="-3.41958">
        <ele>21.68</ele>
        <time>2020-07-10T11:36:17Z</time>
      </trkpt>
      <trkpt lat="47.81471" lon="-3.41958">
        <ele>21.88</ele>
        <time>2020-07-10T11:36:18Z</time>
      </trkpt>
      <trkpt lat="47.81472" lon="-3.41957">
        <ele>22.17</ele>
        <time>2020-07-10T11:36:19Z</time>
      </trkpt>
      <trkpt lat="47.81473" lon="-3.41957">
        <ele>22.28</ele>
        <time>2020-07-10T11:36:20Z</time>
      </trkpt>
      <trkpt lat="47.81474" lon="-3.41959">
        <ele>21.97</ele>
        <time>2020-07-10T11:36:21Z</time>
      </trkpt>
      <trkpt lat="47.81475" lon="-3.4196">
        <ele>21.65</ele>
        <time>2020-07-10T11:36:22Z</time>
      </trkpt>
      <trkpt lat="47.81477" lon="-3.41961">
        <ele>21.3</ele>
        <time>2020-07-10T11:36:23Z</time>
      </trkpt>
      <trkpt lat="47.81477" lon="-3.41963">
        <ele>20.81</ele>
        <time>2020-07-10T11:36:24Z</time>
      </trkpt>
      <trkpt lat="47.81476" lon="-3.41965">
        <ele>20.25</ele>
        <time>2020-07-10T11:36:25Z</time>
      </trkpt>
      <trkpt lat="47.81476" lon="-3.41967">
        <ele>19.7</ele>
        <time>2020-07-10T11:36:26Z</time>
      </trkpt>
      <trkpt lat="47.81476" lon="-3.41969">
        <ele>19.14</ele>
        <time>2020-07-10T11:36:27Z</time>
      </trkpt>
      <trkpt lat="47.81477" lon="-3.41971">
        <ele>18.51</ele>
        <time>2020-07-10T11:36:28Z</time>
      </trkpt>
      <trkpt lat="47.81479" lon="-3.41972">
        <ele>18.16</ele>
        <time>2020-07-10T11:36:29Z</time>
      </trkpt>
      <trkpt lat="47.81481" lon="-3.41973">
        <ele>18</ele>
        <time>2020-07-10T11:36:30Z</time>
      </trkpt>
      <trkpt lat="47.81483" lon="-3.41973">
        <ele>17.91</ele>
        <time>2020-07-10T11:36:31Z</time>
      </trkpt>
      <trkpt lat="47.81485" lon="-3.41975">
        <ele>17.76</ele>
        <time>2020-07-10T11:36:32Z</time>
      </trkpt>
      <trkpt lat="47.81486" lon="-3.41977">
        <ele>17.57</ele>
        <time>2020-07-10T11:36:33Z</time>
      </trkpt>
      <trkpt lat="47.81488" lon="-3.41979">
        <ele>17.41</ele>
        <time>2020-07-10T11:36:34Z</time>
      </trkpt>
      <trkpt lat="47.8149" lon="-3.4198">
        <ele>17.26</ele>
        <time>2020-07-10T11:36:35Z</time>
      </trkpt>
      <trkpt lat="47.81492" lon="-3.41982">
        <ele>17.16</ele>
        <time>2020-07-10T11:36:36Z</time>
      </trkpt>
      <trkpt lat="47.81494" lon="-3.41983">
        <ele>17.08</ele>
        <time>2020-07-10T11:36:37Z</time>
      </trkpt>
      <trkpt lat="47.81495" lon="-3.41985">
        <ele>16.97</ele>
        <time>2020-07-10T11:36:38Z</time>
      </trkpt>
      <trkpt lat="47.81495" lon="-3.41985">
        <ele>16.92</ele>
        <time>2020-07-10T11:36:39Z</time>
      </trkpt>
      <trkpt lat="47.81495" lon="-3.41985">
        <ele>16.9</ele>
        <time>2020-07-10T11:36:40Z</time>
      </trkpt>
      <trkpt lat="47.81495" lon="-3.41985">
        <ele>16.89</ele>
        <time>2020-07-10T11:36:41Z</time>
      </trkpt>
      <trkpt lat="47.81495" lon="-3.41985">
        <ele>16.89</ele>
        <time>2020-07-10T11:36:42Z</time>
      </trkpt>
      <trkpt lat="47.81495" lon="-3.41985">
        <ele>16.89</ele>
        <time>2020-07-10T11:36:43Z</time>
      </trkpt>
      <trkpt lat="47.81495" lon="-3.41985">
        <ele>16.89</ele>
        <time>2020-07-10T11:36:44Z</time>
      </trkpt>
      <trkpt lat="47.81495" lon="-3.41985">
        <ele>16.89</ele>
        <time>2020-07-10T11:36:45Z</time>
      </trkpt>
      <trkpt lat="47.81495" lon="-3.41985">
        <ele>16.89</ele>
        <time>2020-07-10T11:36:46Z</time>
      </trkpt>
      <trkpt lat="47.81495" lon="-3.41985">
        <ele>16.89</ele>
        <time>2020-07-10T11:36:47Z</time>
      </trkpt>
      <trkpt lat="47.81495" lon="-3.41985">
        <ele>16.89</ele>
        <time>2020-07-10T11:36:48Z</time>
      </trkpt>
      <trkpt lat="47.81495" lon="-3.41985">
        <ele>16.89</ele>
        <time>2020-07-10T11:36:49Z</time>
      </trkpt>
      <trkpt lat="47.81495" lon="-3.41985">
        <ele>16.89</ele>
        <time>2020-07-10T11:36:50Z</time>
      </trkpt>
      <trkpt lat="47.81495" lon="-3.41985">
        <ele>16.89</ele>
        <time>2020-07-10T11:36:51Z</time>
      </trkpt>
      <trkpt lat="47.81495" lon="-3.41985">
        <ele>16.89</ele>
        <time>2020-07-10T11:36:52Z</time>
      </trkpt>
      <trkpt lat="47.81495" lon="-3.41985">
        <ele>16.89</ele>
        <time>2020-07-10T11:36:53Z</time>
      </trkpt>
      <trkpt lat="47.81495" lon="-3.41985">
        <ele>16.89</ele>
        <time>2020-07-10T11:36:54Z</time>
      </trkpt>
      <trkpt lat="47.81495" lon="-3.41985">
        <ele>16.89</ele>
        <time>2020-07-10T11:36:55Z</time>
      </trkpt>
      <trkpt lat="47.81495" lon="-3.41985">
        <ele>16.89</ele>
        <time>2020-07-10T11:36:56Z</time>
      </trkpt>
      <trkpt lat="47.81495" lon="-3.41985">
        <ele>16.89</ele>
        <time>2020-07-10T11:36:57Z</time>
      </trkpt>
      <trkpt lat="47.81503" lon="-3.41994">
        <ele>16.81</ele>
        <time>2020-07-10T11:36:58Z</time>
      </trkpt>
      <trkpt lat="47.81504" lon="-3.41994">
        <ele>16.81</ele>
        <time>2020-07-10T11:36:59Z</time>
      </trkpt>
      <trkpt lat="47.81504" lon="-3.41995">
        <ele>16.79</ele>
        <time>2020-07-10T11:37:00Z</time>
      </trkpt>
      <trkpt lat="47.81504" lon="-3.41996">
        <ele>16.72</ele>
        <time>2020-07-10T11:37:01Z</time>
      </trkpt>
      <trkpt lat="47.81504" lon="-3.41996">
        <ele>16.7</ele>
        <time>2020-07-10T11:37:02Z</time>
      </trkpt>
      <trkpt lat="47.81504" lon="-3.41996">
        <ele>16.7</ele>
        <time>2020-07-10T11:37:03Z</time>
      </trkpt>
      <trkpt lat="47.81504" lon="-3.41996">
        <ele>16.69</ele>
        <time>2020-07-10T11:37:04Z</time>
      </trkpt>
      <trkpt lat="47.81504" lon="-3.41996">
        <ele>16.69</ele>
        <time>2020-07-10T11:37:05Z</time>
      </trkpt>
      <trkpt lat="47.81504" lon="-3.41996">
        <ele>16.69</ele>
        <time>2020-07-10T11:37:06Z</time>
      </trkpt>
      <trkpt lat="47.81504" lon="-3.41996">
        <ele>16.69</ele>
        <time>2020-07-10T11:37:07Z</time>
      </trkpt>
      <trkpt lat="47.81504" lon="-3.41996">
        <ele>16.69</ele>
        <time>2020-07-10T11:37:08Z</time>
      </trkpt>
      <trkpt lat="47.81504" lon="-3.41996">
        <ele>16.69</ele>
        <time>2020-07-10T11:37:09Z</time>
      </trkpt>
      <trkpt lat="47.81504" lon="-3.41996">
        <ele>16.69</ele>
        <time>2020-07-10T11:37:10Z</time>
      </trkpt>
      <trkpt lat="47.81504" lon="-3.41996">
        <ele>16.69</ele>
        <time>2020-07-10T11:37:11Z</time>
      </trkpt>
      <trkpt lat="47.81511" lon="-3.42006">
        <ele>16.95</ele>
        <time>2020-07-10T11:37:12Z</time>
      </trkpt>
      <trkpt lat="47.81511" lon="-3.42007">
        <ele>17.04</ele>
        <time>2020-07-10T11:37:13Z</time>
      </trkpt>
      <trkpt lat="47.81512" lon="-3.42007">
        <ele>17.12</ele>
        <time>2020-07-10T11:37:14Z</time>
      </trkpt>
      <trkpt lat="47.81512" lon="-3.42008">
        <ele>17.16</ele>
        <time>2020-07-10T11:37:15Z</time>
      </trkpt>
      <trkpt lat="47.81512" lon="-3.42008">
        <ele>17.17</ele>
        <time>2020-07-10T11:37:16Z</time>
      </trkpt>
      <trkpt lat="47.81514" lon="-3.4201">
        <ele>17.3</ele>
        <time>2020-07-10T11:37:17Z</time>
      </trkpt>
      <trkpt lat="47.81515" lon="-3.42014">
        <ele>17.37</ele>
        <time>2020-07-10T11:37:18Z</time>
      </trkpt>
      <trkpt lat="47.81517" lon="-3.42016">
        <ele>17.44</ele>
        <time>2020-07-10T11:37:19Z</time>
      </trkpt>
      <trkpt lat="47.81518" lon="-3.42018">
        <ele>17.52</ele>
        <time>2020-07-10T11:37:20Z</time>
      </trkpt>
      <trkpt lat="47.8152" lon="-3.4202">
        <ele>17.6</ele>
        <time>2020-07-10T11:37:21Z</time>
      </trkpt>
      <trkpt lat="47.81521" lon="-3.42023">
        <ele>17.66</ele>
        <time>2020-07-10T11:37:22Z</time>
      </trkpt>
      <trkpt lat="47.81524" lon="-3.42025">
        <ele>17.74</ele>
        <time>2020-07-10T11:37:23Z</time>
      </trkpt>
      <trkpt lat="47.81526" lon="-3.42028">
        <ele>17.81</ele>
        <time>2020-07-10T11:37:24Z</time>
      </trkpt>
      <trkpt lat="47.81528" lon="-3.42031">
        <ele>17.82</ele>
        <time>2020-07-10T11:37:25Z</time>
      </trkpt>
      <trkpt lat="47.81531" lon="-3.42035">
        <ele>18.28</ele>
        <time>2020-07-10T11:37:26Z</time>
      </trkpt>
      <trkpt lat="47.81533" lon="-3.42037">
        <ele>18.63</ele>
        <time>2020-07-10T11:37:27Z</time>
      </trkpt>
      <trkpt lat="47.81534" lon="-3.42037">
        <ele>19.01</ele>
        <time>2020-07-10T11:37:28Z</time>
      </trkpt>
      <trkpt lat="47.81534" lon="-3.42039">
        <ele>19.01</ele>
        <time>2020-07-10T11:37:29Z</time>
      </trkpt>
      <trkpt lat="47.81534" lon="-3.42039">
        <ele>18.98</ele>
        <time>2020-07-10T11:37:30Z</time>
      </trkpt>
      <trkpt lat="47.81534" lon="-3.42039">
        <ele>18.98</ele>
        <time>2020-07-10T11:37:31Z</time>
      </trkpt>
      <trkpt lat="47.81534" lon="-3.42039">
        <ele>18.97</ele>
        <time>2020-07-10T11:37:32Z</time>
      </trkpt>
      <trkpt lat="47.81534" lon="-3.42039">
        <ele>18.97</ele>
        <time>2020-07-10T11:37:33Z</time>
      </trkpt>
      <trkpt lat="47.81534" lon="-3.42039">
        <ele>18.97</ele>
        <time>2020-07-10T11:37:34Z</time>
      </trkpt>
      <trkpt lat="47.81534" lon="-3.42039">
        <ele>18.97</ele>
        <time>2020-07-10T11:37:35Z</time>
      </trkpt>
      <trkpt lat="47.81534" lon="-3.42039">
        <ele>18.97</ele>
        <time>2020-07-10T11:37:36Z</time>
      </trkpt>
      <trkpt lat="47.81539" lon="-3.42049">
        <ele>19.53</ele>
        <time>2020-07-10T11:37:37Z</time>
      </trkpt>
      <trkpt lat="47.81541" lon="-3.42052">
        <ele>19.95</ele>
        <time>2020-07-10T11:37:38Z</time>
      </trkpt>
      <trkpt lat="47.81543" lon="-3.42053">
        <ele>20.44</ele>
        <time>2020-07-10T11:37:39Z</time>
      </trkpt>
      <trkpt lat="47.81545" lon="-3.42054">
        <ele>20.82</ele>
        <time>2020-07-10T11:37:40Z</time>
      </trkpt>
      <trkpt lat="47.81546" lon="-3.42056">
        <ele>21.09</ele>
        <time>2020-07-10T11:37:41Z</time>
      </trkpt>
      <trkpt lat="47.81548" lon="-3.42057">
        <ele>21.43</ele>
        <time>2020-07-10T11:37:42Z</time>
      </trkpt>
      <trkpt lat="47.8155" lon="-3.42058">
        <ele>21.87</ele>
        <time>2020-07-10T11:37:43Z</time>
      </trkpt>
      <trkpt lat="47.81552" lon="-3.4206">
        <ele>22.27</ele>
        <time>2020-07-10T11:37:44Z</time>
      </trkpt>
      <trkpt lat="47.81554" lon="-3.42062">
        <ele>22.48</ele>
        <time>2020-07-10T11:37:45Z</time>
      </trkpt>
      <trkpt lat="47.81555" lon="-3.42064">
        <ele>22.6</ele>
        <time>2020-07-10T11:37:46Z</time>
      </trkpt>
      <trkpt lat="47.81556" lon="-3.42067">
        <ele>22.46</ele>
        <time>2020-07-10T11:37:47Z</time>
      </trkpt>
      <trkpt lat="47.81558" lon="-3.42071">
        <ele>22.46</ele>
        <time>2020-07-10T11:37:48Z</time>
      </trkpt>
      <trkpt lat="47.8156" lon="-3.42072">
        <ele>22.64</ele>
        <time>2020-07-10T11:37:49Z</time>
      </trkpt>
      <trkpt lat="47.81562" lon="-3.42074">
        <ele>23.02</ele>
        <time>2020-07-10T11:37:50Z</time>
      </trkpt>
      <trkpt lat="47.81565" lon="-3.42076">
        <ele>23.46</ele>
        <time>2020-07-10T11:37:51Z</time>
      </trkpt>
      <trkpt lat="47.81567" lon="-3.42077">
        <ele>23.85</ele>
        <time>2020-07-10T11:37:52Z</time>
      </trkpt>
      <trkpt lat="47.81569" lon="-3.42079">
        <ele>24.26</ele>
        <time>2020-07-10T11:37:53Z</time>
      </trkpt>
      <trkpt lat="47.81572" lon="-3.42082">
        <ele>24.71</ele>
        <time>2020-07-10T11:37:54Z</time>
      </trkpt>
      <trkpt lat="47.81574" lon="-3.42084">
        <ele>25.11</ele>
        <time>2020-07-10T11:37:55Z</time>
      </trkpt>
      <trkpt lat="47.81576" lon="-3.42086">
        <ele>25.34</ele>
        <time>2020-07-10T11:37:56Z</time>
      </trkpt>
      <trkpt lat="47.8158" lon="-3.42089">
        <ele>25.84</ele>
        <time>2020-07-10T11:37:58Z</time>
      </trkpt>
      <trkpt lat="47.81582" lon="-3.42092">
        <ele>25.99</ele>
        <time>2020-07-10T11:37:59Z</time>
      </trkpt>
      <trkpt lat="47.81585" lon="-3.42094">
        <ele>26.27</ele>
        <time>2020-07-10T11:38:00Z</time>
      </trkpt>
      <trkpt lat="47.81586" lon="-3.42096">
        <ele>26.39</ele>
        <time>2020-07-10T11:38:01Z</time>
      </trkpt>
      <trkpt lat="47.81588" lon="-3.42099">
        <ele>26.5</ele>
        <time>2020-07-10T11:38:02Z</time>
      </trkpt>
      <trkpt lat="47.8159" lon="-3.42102">
        <ele>26.65</ele>
        <time>2020-07-10T11:38:03Z</time>
      </trkpt>
      <trkpt lat="47.81593" lon="-3.42105">
        <ele>26.9</ele>
        <time>2020-07-10T11:38:04Z</time>
      </trkpt>
      <trkpt lat="47.81595" lon="-3.42107">
        <ele>27.24</ele>
        <time>2020-07-10T11:38:05Z</time>
      </trkpt>
      <trkpt lat="47.81597" lon="-3.42109">
        <ele>27.75</ele>
        <time>2020-07-10T11:38:06Z</time>
      </trkpt>
      <trkpt lat="47.816" lon="-3.4211">
        <ele>28.2</ele>
        <time>2020-07-10T11:38:07Z</time>
      </trkpt>
      <trkpt lat="47.81602" lon="-3.42112">
        <ele>28.65</ele>
        <time>2020-07-10T11:38:08Z</time>
      </trkpt>
      <trkpt lat="47.81605" lon="-3.42114">
        <ele>29.18</ele>
        <time>2020-07-10T11:38:09Z</time>
      </trkpt>
      <trkpt lat="47.81606" lon="-3.42118">
        <ele>29.11</ele>
        <time>2020-07-10T11:38:10Z</time>
      </trkpt>
      <trkpt lat="47.81609" lon="-3.42123">
        <ele>28.8</ele>
        <time>2020-07-10T11:38:11Z</time>
      </trkpt>
      <trkpt lat="47.8161" lon="-3.42127">
        <ele>28.5</ele>
        <time>2020-07-10T11:38:12Z</time>
      </trkpt>
      <trkpt lat="47.81611" lon="-3.42133">
        <ele>27.54</ele>
        <time>2020-07-10T11:38:13Z</time>
      </trkpt>
      <trkpt lat="47.81613" lon="-3.42138">
        <ele>26.84</ele>
        <time>2020-07-10T11:38:14Z</time>
      </trkpt>
      <trkpt lat="47.81613" lon="-3.42143">
        <ele>26.28</ele>
        <time>2020-07-10T11:38:15Z</time>
      </trkpt>
      <trkpt lat="47.81615" lon="-3.42149">
        <ele>25.81</ele>
        <time>2020-07-10T11:38:16Z</time>
      </trkpt>
      <trkpt lat="47.81616" lon="-3.42154">
        <ele>25.46</ele>
        <time>2020-07-10T11:38:17Z</time>
      </trkpt>
      <trkpt lat="47.81617" lon="-3.42157">
        <ele>25.25</ele>
        <time>2020-07-10T11:38:18Z</time>
      </trkpt>
      <trkpt lat="47.81618" lon="-3.42161">
        <ele>25.08</ele>
        <time>2020-07-10T11:38:19Z</time>
      </trkpt>
      <trkpt lat="47.81619" lon="-3.42167">
        <ele>24.82</ele>
        <time>2020-07-10T11:38:20Z</time>
      </trkpt>
      <trkpt lat="47.8162" lon="-3.42172">
        <ele>24.62</ele>
        <time>2020-07-10T11:38:21Z</time>
      </trkpt>
      <trkpt lat="47.81621" lon="-3.42176">
        <ele>24.45</ele>
        <time>2020-07-10T11:38:22Z</time>
      </trkpt>
      <trkpt lat="47.81622" lon="-3.4218">
        <ele>24.53</ele>
        <time>2020-07-10T11:38:23Z</time>
      </trkpt>
      <trkpt lat="47.81624" lon="-3.42184">
        <ele>24.75</ele>
        <time>2020-07-10T11:38:24Z</time>
      </trkpt>
      <trkpt lat="47.81625" lon="-3.42187">
        <ele>24.98</ele>
        <time>2020-07-10T11:38:25Z</time>
      </trkpt>
      <trkpt lat="47.81626" lon="-3.42192">
        <ele>25.12</ele>
        <time>2020-07-10T11:38:26Z</time>
      </trkpt>
      <trkpt lat="47.81628" lon="-3.42199">
        <ele>25.26</ele>
        <time>2020-07-10T11:38:27Z</time>
      </trkpt>
      <trkpt lat="47.81629" lon="-3.42205">
        <ele>25.36</ele>
        <time>2020-07-10T11:38:28Z</time>
      </trkpt>
      <trkpt lat="47.81631" lon="-3.42211">
        <ele>25.45</ele>
        <time>2020-07-10T11:38:29Z</time>
      </trkpt>
      <trkpt lat="47.81632" lon="-3.42216">
        <ele>25.49</ele>
        <time>2020-07-10T11:38:30Z</time>
      </trkpt>
      <trkpt lat="47.81633" lon="-3.42222">
        <ele>25.54</ele>
        <time>2020-07-10T11:38:31Z</time>
      </trkpt>
      <trkpt lat="47.81635" lon="-3.42227">
        <ele>25.56</ele>
        <time>2020-07-10T11:38:32Z</time>
      </trkpt>
      <trkpt lat="47.81636" lon="-3.42233">
        <ele>25.49</ele>
        <time>2020-07-10T11:38:33Z</time>
      </trkpt>
      <trkpt lat="47.81637" lon="-3.42238">
        <ele>25.18</ele>
        <time>2020-07-10T11:38:34Z</time>
      </trkpt>
      <trkpt lat="47.81639" lon="-3.42243">
        <ele>25.12</ele>
        <time>2020-07-10T11:38:35Z</time>
      </trkpt>
      <trkpt lat="47.8164" lon="-3.42248">
        <ele>24.75</ele>
        <time>2020-07-10T11:38:36Z</time>
      </trkpt>
      <trkpt lat="47.8164" lon="-3.42252">
        <ele>24.36</ele>
        <time>2020-07-10T11:38:37Z</time>
      </trkpt>
      <trkpt lat="47.81641" lon="-3.42257">
        <ele>23.99</ele>
        <time>2020-07-10T11:38:38Z</time>
      </trkpt>
      <trkpt lat="47.81643" lon="-3.42261">
        <ele>23.85</ele>
        <time>2020-07-10T11:38:39Z</time>
      </trkpt>
      <trkpt lat="47.81645" lon="-3.42266">
        <ele>23.87</ele>
        <time>2020-07-10T11:38:40Z</time>
      </trkpt>
      <trkpt lat="47.81647" lon="-3.42271">
        <ele>23.94</ele>
        <time>2020-07-10T11:38:41Z</time>
      </trkpt>
      <trkpt lat="47.81648" lon="-3.42276">
        <ele>23.95</ele>
        <time>2020-07-10T11:38:42Z</time>
      </trkpt>
      <trkpt lat="47.81649" lon="-3.4228">
        <ele>23.93</ele>
        <time>2020-07-10T11:38:43Z</time>
      </trkpt>
      <trkpt lat="47.81652" lon="-3.42286">
        <ele>24.16</ele>
        <time>2020-07-10T11:38:44Z</time>
      </trkpt>
      <trkpt lat="47.81654" lon="-3.42291">
        <ele>24.36</ele>
        <time>2020-07-10T11:38:45Z</time>
      </trkpt>
      <trkpt lat="47.81655" lon="-3.42295">
        <ele>24.53</ele>
        <time>2020-07-10T11:38:46Z</time>
      </trkpt>
      <trkpt lat="47.81657" lon="-3.42298">
        <ele>24.86</ele>
        <time>2020-07-10T11:38:47Z</time>
      </trkpt>
      <trkpt lat="47.81659" lon="-3.42303">
        <ele>25.03</ele>
        <time>2020-07-10T11:38:48Z</time>
      </trkpt>
      <trkpt lat="47.81661" lon="-3.42307">
        <ele>25.24</ele>
        <time>2020-07-10T11:38:49Z</time>
      </trkpt>
      <trkpt lat="47.81663" lon="-3.42314">
        <ele>25.36</ele>
        <time>2020-07-10T11:38:50Z</time>
      </trkpt>
      <trkpt lat="47.81666" lon="-3.42319">
        <ele>25.62</ele>
        <time>2020-07-10T11:38:51Z</time>
      </trkpt>
      <trkpt lat="47.81667" lon="-3.42325">
        <ele>25.47</ele>
        <time>2020-07-10T11:38:52Z</time>
      </trkpt>
      <trkpt lat="47.81669" lon="-3.4233">
        <ele>25.2</ele>
        <time>2020-07-10T11:38:53Z</time>
      </trkpt>
      <trkpt lat="47.81671" lon="-3.42335">
        <ele>24.79</ele>
        <time>2020-07-10T11:38:54Z</time>
      </trkpt>
      <trkpt lat="47.81672" lon="-3.4234">
        <ele>24.38</ele>
        <time>2020-07-10T11:38:55Z</time>
      </trkpt>
      <trkpt lat="47.81674" lon="-3.42345">
        <ele>23.95</ele>
        <time>2020-07-10T11:38:56Z</time>
      </trkpt>
      <trkpt lat="47.81676" lon="-3.42351">
        <ele>23.65</ele>
        <time>2020-07-10T11:38:57Z</time>
      </trkpt>
      <trkpt lat="47.81678" lon="-3.42356">
        <ele>23.44</ele>
        <time>2020-07-10T11:38:58Z</time>
      </trkpt>
      <trkpt lat="47.8168" lon="-3.42361">
        <ele>23.32</ele>
        <time>2020-07-10T11:38:59Z</time>
      </trkpt>
      <trkpt lat="47.81682" lon="-3.42364">
        <ele>23.49</ele>
        <time>2020-07-10T11:39:00Z</time>
      </trkpt>
      <trkpt lat="47.81684" lon="-3.42367">
        <ele>23.76</ele>
        <time>2020-07-10T11:39:01Z</time>
      </trkpt>
      <trkpt lat="47.81685" lon="-3.42369">
        <ele>24.01</ele>
        <time>2020-07-10T11:39:02Z</time>
      </trkpt>
      <trkpt lat="47.81686" lon="-3.42372">
        <ele>24.08</ele>
        <time>2020-07-10T11:39:03Z</time>
      </trkpt>
      <trkpt lat="47.81688" lon="-3.42376">
        <ele>24.21</ele>
        <time>2020-07-10T11:39:04Z</time>
      </trkpt>
      <trkpt lat="47.81692" lon="-3.42383">
        <ele>24.57</ele>
        <time>2020-07-10T11:39:05Z</time>
      </trkpt>
      <trkpt lat="47.81694" lon="-3.42388">
        <ele>24.87</ele>
        <time>2020-07-10T11:39:06Z</time>
      </trkpt>
      <trkpt lat="47.81695" lon="-3.4239">
        <ele>24.85</ele>
        <time>2020-07-10T11:39:07Z</time>
      </trkpt>
      <trkpt lat="47.81698" lon="-3.42394">
        <ele>24.5</ele>
        <time>2020-07-10T11:39:08Z</time>
      </trkpt>
      <trkpt lat="47.817" lon="-3.42397">
        <ele>24</ele>
        <time>2020-07-10T11:39:09Z</time>
      </trkpt>
      <trkpt lat="47.81702" lon="-3.42401">
        <ele>23.6</ele>
        <time>2020-07-10T11:39:10Z</time>
      </trkpt>
      <trkpt lat="47.81704" lon="-3.42404">
        <ele>23.32</ele>
        <time>2020-07-10T11:39:11Z</time>
      </trkpt>
      <trkpt lat="47.81706" lon="-3.42407">
        <ele>23.14</ele>
        <time>2020-07-10T11:39:12Z</time>
      </trkpt>
      <trkpt lat="47.81707" lon="-3.42408">
        <ele>23.04</ele>
        <time>2020-07-10T11:39:13Z</time>
      </trkpt>
      <trkpt lat="47.8171" lon="-3.4241">
        <ele>23.14</ele>
        <time>2020-07-10T11:39:14Z</time>
      </trkpt>
      <trkpt lat="47.81712" lon="-3.42412">
        <ele>23.35</ele>
        <time>2020-07-10T11:39:15Z</time>
      </trkpt>
      <trkpt lat="47.81715" lon="-3.42413">
        <ele>23.62</ele>
        <time>2020-07-10T11:39:16Z</time>
      </trkpt>
      <trkpt lat="47.81718" lon="-3.42417">
        <ele>23.83</ele>
        <time>2020-07-10T11:39:17Z</time>
      </trkpt>
      <trkpt lat="47.81719" lon="-3.4242">
        <ele>23.97</ele>
        <time>2020-07-10T11:39:18Z</time>
      </trkpt>
      <trkpt lat="47.81721" lon="-3.42424">
        <ele>23.94</ele>
        <time>2020-07-10T11:39:19Z</time>
      </trkpt>
      <trkpt lat="47.81723" lon="-3.42428">
        <ele>23.81</ele>
        <time>2020-07-10T11:39:20Z</time>
      </trkpt>
      <trkpt lat="47.81724" lon="-3.42432">
        <ele>23.57</ele>
        <time>2020-07-10T11:39:21Z</time>
      </trkpt>
      <trkpt lat="47.81726" lon="-3.42435">
        <ele>23.41</ele>
        <time>2020-07-10T11:39:22Z</time>
      </trkpt>
      <trkpt lat="47.81728" lon="-3.42437">
        <ele>23.3</ele>
        <time>2020-07-10T11:39:23Z</time>
      </trkpt>
      <trkpt lat="47.81729" lon="-3.42439">
        <ele>23.25</ele>
        <time>2020-07-10T11:39:24Z</time>
      </trkpt>
      <trkpt lat="47.8173" lon="-3.4244">
        <ele>23.22</ele>
        <time>2020-07-10T11:39:25Z</time>
      </trkpt>
      <trkpt lat="47.81731" lon="-3.42441">
        <ele>23.23</ele>
        <time>2020-07-10T11:39:26Z</time>
      </trkpt>
      <trkpt lat="47.81732" lon="-3.42443">
        <ele>23.2</ele>
        <time>2020-07-10T11:39:27Z</time>
      </trkpt>
      <trkpt lat="47.81733" lon="-3.42447">
        <ele>22.94</ele>
        <time>2020-07-10T11:39:28Z</time>
      </trkpt>
      <trkpt lat="47.81734" lon="-3.42452">
        <ele>22.46</ele>
        <time>2020-07-10T11:39:29Z</time>
      </trkpt>
      <trkpt lat="47.81734" lon="-3.42456">
        <ele>22.06</ele>
        <time>2020-07-10T11:39:30Z</time>
      </trkpt>
      <trkpt lat="47.81735" lon="-3.4246">
        <ele>21.81</ele>
        <time>2020-07-10T11:39:31Z</time>
      </trkpt>
      <trkpt lat="47.81737" lon="-3.42463">
        <ele>21.76</ele>
        <time>2020-07-10T11:39:32Z</time>
      </trkpt>
      <trkpt lat="47.81739" lon="-3.42466">
        <ele>21.78</ele>
        <time>2020-07-10T11:39:33Z</time>
      </trkpt>
      <trkpt lat="47.81741" lon="-3.4247">
        <ele>21.79</ele>
        <time>2020-07-10T11:39:34Z</time>
      </trkpt>
      <trkpt lat="47.81742" lon="-3.42473">
        <ele>21.91</ele>
        <time>2020-07-10T11:39:35Z</time>
      </trkpt>
      <trkpt lat="47.81745" lon="-3.42477">
        <ele>22.12</ele>
        <time>2020-07-10T11:39:36Z</time>
      </trkpt>
      <trkpt lat="47.81747" lon="-3.42482">
        <ele>22.25</ele>
        <time>2020-07-10T11:39:37Z</time>
      </trkpt>
      <trkpt lat="47.8175" lon="-3.42487">
        <ele>22.31</ele>
        <time>2020-07-10T11:39:38Z</time>
      </trkpt>
      <trkpt lat="47.81752" lon="-3.42491">
        <ele>22.43</ele>
        <time>2020-07-10T11:39:39Z</time>
      </trkpt>
      <trkpt lat="47.81754" lon="-3.42496">
        <ele>22.59</ele>
        <time>2020-07-10T11:39:40Z</time>
      </trkpt>
      <trkpt lat="47.81755" lon="-3.425">
        <ele>22.7</ele>
        <time>2020-07-10T11:39:41Z</time>
      </trkpt>
      <trkpt lat="47.81757" lon="-3.42505">
        <ele>22.84</ele>
        <time>2020-07-10T11:39:42Z</time>
      </trkpt>
      <trkpt lat="47.81758" lon="-3.42509">
        <ele>23.01</ele>
        <time>2020-07-10T11:39:43Z</time>
      </trkpt>
      <trkpt lat="47.81759" lon="-3.42513">
        <ele>23</ele>
        <time>2020-07-10T11:39:44Z</time>
      </trkpt>
      <trkpt lat="47.81761" lon="-3.42516">
        <ele>23.05</ele>
        <time>2020-07-10T11:39:45Z</time>
      </trkpt>
      <trkpt lat="47.81762" lon="-3.42521">
        <ele>23.16</ele>
        <time>2020-07-10T11:39:46Z</time>
      </trkpt>
      <trkpt lat="47.81765" lon="-3.42526">
        <ele>23.53</ele>
        <time>2020-07-10T11:39:47Z</time>
      </trkpt>
      <trkpt lat="47.81767" lon="-3.4253">
        <ele>23.81</ele>
        <time>2020-07-10T11:39:48Z</time>
      </trkpt>
      <trkpt lat="47.81769" lon="-3.42535">
        <ele>23.95</ele>
        <time>2020-07-10T11:39:49Z</time>
      </trkpt>
      <trkpt lat="47.8177" lon="-3.42542">
        <ele>23.87</ele>
        <time>2020-07-10T11:39:50Z</time>
      </trkpt>
      <trkpt lat="47.81772" lon="-3.42547">
        <ele>23.98</ele>
        <time>2020-07-10T11:39:51Z</time>
      </trkpt>
      <trkpt lat="47.81774" lon="-3.4255">
        <ele>24.17</ele>
        <time>2020-07-10T11:39:52Z</time>
      </trkpt>
      <trkpt lat="47.81776" lon="-3.42554">
        <ele>24.38</ele>
        <time>2020-07-10T11:39:53Z</time>
      </trkpt>
      <trkpt lat="47.81777" lon="-3.42558">
        <ele>24.39</ele>
        <time>2020-07-10T11:39:54Z</time>
      </trkpt>
      <trkpt lat="47.81778" lon="-3.42561">
        <ele>24.15</ele>
        <time>2020-07-10T11:39:55Z</time>
      </trkpt>
      <trkpt lat="47.8178" lon="-3.42564">
        <ele>23.96</ele>
        <time>2020-07-10T11:39:56Z</time>
      </trkpt>
      <trkpt lat="47.81782" lon="-3.42568">
        <ele>24.04</ele>
        <time>2020-07-10T11:39:57Z</time>
      </trkpt>
      <trkpt lat="47.81784" lon="-3.4257">
        <ele>24.13</ele>
        <time>2020-07-10T11:39:58Z</time>
      </trkpt>
      <trkpt lat="47.81785" lon="-3.42574">
        <ele>24.13</ele>
        <time>2020-07-10T11:39:59Z</time>
      </trkpt>
      <trkpt lat="47.81786" lon="-3.42576">
        <ele>24.17</ele>
        <time>2020-07-10T11:40:00Z</time>
      </trkpt>
      <trkpt lat="47.81788" lon="-3.42579">
        <ele>24.29</ele>
        <time>2020-07-10T11:40:01Z</time>
      </trkpt>
      <trkpt lat="47.81789" lon="-3.42582">
        <ele>24.29</ele>
        <time>2020-07-10T11:40:02Z</time>
      </trkpt>
      <trkpt lat="47.8179" lon="-3.42584">
        <ele>24.35</ele>
        <time>2020-07-10T11:40:03Z</time>
      </trkpt>
      <trkpt lat="47.81791" lon="-3.42588">
        <ele>24.51</ele>
        <time>2020-07-10T11:40:04Z</time>
      </trkpt>
      <trkpt lat="47.81791" lon="-3.42589">
        <ele>24.71</ele>
        <time>2020-07-10T11:40:05Z</time>
      </trkpt>
      <trkpt lat="47.81792" lon="-3.42591">
        <ele>24.9</ele>
        <time>2020-07-10T11:40:06Z</time>
      </trkpt>
      <trkpt lat="47.81793" lon="-3.42592">
        <ele>25.17</ele>
        <time>2020-07-10T11:40:07Z</time>
      </trkpt>
      <trkpt lat="47.81794" lon="-3.42594">
        <ele>25.3</ele>
        <time>2020-07-10T11:40:08Z</time>
      </trkpt>
      <trkpt lat="47.81795" lon="-3.42597">
        <ele>25.3</ele>
        <time>2020-07-10T11:40:09Z</time>
      </trkpt>
      <trkpt lat="47.81796" lon="-3.42601">
        <ele>25.31</ele>
        <time>2020-07-10T11:40:10Z</time>
      </trkpt>
      <trkpt lat="47.81797" lon="-3.42604">
        <ele>25.39</ele>
        <time>2020-07-10T11:40:11Z</time>
      </trkpt>
      <trkpt lat="47.81798" lon="-3.42607">
        <ele>25.45</ele>
        <time>2020-07-10T11:40:12Z</time>
      </trkpt>
      <trkpt lat="47.81799" lon="-3.42611">
        <ele>25.35</ele>
        <time>2020-07-10T11:40:13Z</time>
      </trkpt>
      <trkpt lat="47.81799" lon="-3.42614">
        <ele>25.2</ele>
        <time>2020-07-10T11:40:14Z</time>
      </trkpt>
      <trkpt lat="47.818" lon="-3.42616">
        <ele>25.32</ele>
        <time>2020-07-10T11:40:15Z</time>
      </trkpt>
      <trkpt lat="47.81801" lon="-3.42618">
        <ele>25.41</ele>
        <time>2020-07-10T11:40:16Z</time>
      </trkpt>
      <trkpt lat="47.81802" lon="-3.4262">
        <ele>25.47</ele>
        <time>2020-07-10T11:40:17Z</time>
      </trkpt>
      <trkpt lat="47.81803" lon="-3.42623">
        <ele>25.52</ele>
        <time>2020-07-10T11:40:18Z</time>
      </trkpt>
      <trkpt lat="47.81804" lon="-3.42625">
        <ele>25.39</ele>
        <time>2020-07-10T11:40:19Z</time>
      </trkpt>
      <trkpt lat="47.81804" lon="-3.42627">
        <ele>25.37</ele>
        <time>2020-07-10T11:40:20Z</time>
      </trkpt>
      <trkpt lat="47.81806" lon="-3.4263">
        <ele>25.38</ele>
        <time>2020-07-10T11:40:21Z</time>
      </trkpt>
      <trkpt lat="47.81806" lon="-3.42634">
        <ele>25</ele>
        <time>2020-07-10T11:40:22Z</time>
      </trkpt>
      <trkpt lat="47.81807" lon="-3.42637">
        <ele>24.85</ele>
        <time>2020-07-10T11:40:23Z</time>
      </trkpt>
      <trkpt lat="47.8181" lon="-3.42641">
        <ele>25.09</ele>
        <time>2020-07-10T11:40:24Z</time>
      </trkpt>
      <trkpt lat="47.8181" lon="-3.42644">
        <ele>25.16</ele>
        <time>2020-07-10T11:40:25Z</time>
      </trkpt>
      <trkpt lat="47.81812" lon="-3.42647">
        <ele>25.38</ele>
        <time>2020-07-10T11:40:26Z</time>
      </trkpt>
      <trkpt lat="47.81813" lon="-3.42652">
        <ele>25.26</ele>
        <time>2020-07-10T11:40:27Z</time>
      </trkpt>
      <trkpt lat="47.81814" lon="-3.4266">
        <ele>24.95</ele>
        <time>2020-07-10T11:40:28Z</time>
      </trkpt>
      <trkpt lat="47.81815" lon="-3.42663">
        <ele>24.6</ele>
        <time>2020-07-10T11:40:29Z</time>
      </trkpt>
      <trkpt lat="47.81815" lon="-3.42667">
        <ele>24.22</ele>
        <time>2020-07-10T11:40:30Z</time>
      </trkpt>
      <trkpt lat="47.81815" lon="-3.4267">
        <ele>23.83</ele>
        <time>2020-07-10T11:40:31Z</time>
      </trkpt>
      <trkpt lat="47.81816" lon="-3.42675">
        <ele>23.82</ele>
        <time>2020-07-10T11:40:32Z</time>
      </trkpt>
      <trkpt lat="47.81816" lon="-3.42678">
        <ele>23.79</ele>
        <time>2020-07-10T11:40:33Z</time>
      </trkpt>
      <trkpt lat="47.81817" lon="-3.42681">
        <ele>23.84</ele>
        <time>2020-07-10T11:40:34Z</time>
      </trkpt>
      <trkpt lat="47.81816" lon="-3.42683">
        <ele>23.66</ele>
        <time>2020-07-10T11:40:35Z</time>
      </trkpt>
      <trkpt lat="47.81817" lon="-3.42686">
        <ele>23.54</ele>
        <time>2020-07-10T11:40:36Z</time>
      </trkpt>
      <trkpt lat="47.81817" lon="-3.42689">
        <ele>23.53</ele>
        <time>2020-07-10T11:40:37Z</time>
      </trkpt>
      <trkpt lat="47.81818" lon="-3.42692">
        <ele>23.58</ele>
        <time>2020-07-10T11:40:38Z</time>
      </trkpt>
      <trkpt lat="47.81817" lon="-3.42697">
        <ele>23.11</ele>
        <time>2020-07-10T11:40:39Z</time>
      </trkpt>
      <trkpt lat="47.81816" lon="-3.427">
        <ele>22.91</ele>
        <time>2020-07-10T11:40:40Z</time>
      </trkpt>
      <trkpt lat="47.81816" lon="-3.42703">
        <ele>22.85</ele>
        <time>2020-07-10T11:40:41Z</time>
      </trkpt>
      <trkpt lat="47.81815" lon="-3.42707">
        <ele>22.67</ele>
        <time>2020-07-10T11:40:42Z</time>
      </trkpt>
      <trkpt lat="47.81813" lon="-3.42712">
        <ele>22.31</ele>
        <time>2020-07-10T11:40:43Z</time>
      </trkpt>
      <trkpt lat="47.81811" lon="-3.42717">
        <ele>21.94</ele>
        <time>2020-07-10T11:40:44Z</time>
      </trkpt>
      <trkpt lat="47.81809" lon="-3.42724">
        <ele>21.56</ele>
        <time>2020-07-10T11:40:45Z</time>
      </trkpt>
      <trkpt lat="47.81809" lon="-3.42729">
        <ele>21.56</ele>
        <time>2020-07-10T11:40:46Z</time>
      </trkpt>
      <trkpt lat="47.81809" lon="-3.42734">
        <ele>21.84</ele>
        <time>2020-07-10T11:40:47Z</time>
      </trkpt>
      <trkpt lat="47.81808" lon="-3.42739">
        <ele>22.03</ele>
        <time>2020-07-10T11:40:48Z</time>
      </trkpt>
      <trkpt lat="47.81808" lon="-3.42744">
        <ele>22.19</ele>
        <time>2020-07-10T11:40:49Z</time>
      </trkpt>
      <trkpt lat="47.81807" lon="-3.42752">
        <ele>22.54</ele>
        <time>2020-07-10T11:40:50Z</time>
      </trkpt>
      <trkpt lat="47.81806" lon="-3.42758">
        <ele>22.49</ele>
        <time>2020-07-10T11:40:51Z</time>
      </trkpt>
      <trkpt lat="47.81805" lon="-3.42762">
        <ele>22.36</ele>
        <time>2020-07-10T11:40:52Z</time>
      </trkpt>
      <trkpt lat="47.81804" lon="-3.42766">
        <ele>22.33</ele>
        <time>2020-07-10T11:40:53Z</time>
      </trkpt>
      <trkpt lat="47.81803" lon="-3.42772">
        <ele>22.26</ele>
        <time>2020-07-10T11:40:54Z</time>
      </trkpt>
      <trkpt lat="47.81802" lon="-3.42775">
        <ele>22.15</ele>
        <time>2020-07-10T11:40:55Z</time>
      </trkpt>
      <trkpt lat="47.81801" lon="-3.42779">
        <ele>21.97</ele>
        <time>2020-07-10T11:40:56Z</time>
      </trkpt>
      <trkpt lat="47.818" lon="-3.42781">
        <ele>21.76</ele>
        <time>2020-07-10T11:40:57Z</time>
      </trkpt>
      <trkpt lat="47.81799" lon="-3.42785">
        <ele>21.66</ele>
        <time>2020-07-10T11:40:58Z</time>
      </trkpt>
      <trkpt lat="47.81797" lon="-3.42788">
        <ele>21.5</ele>
        <time>2020-07-10T11:40:59Z</time>
      </trkpt>
      <trkpt lat="47.81795" lon="-3.42792">
        <ele>21.19</ele>
        <time>2020-07-10T11:41:00Z</time>
      </trkpt>
      <trkpt lat="47.81795" lon="-3.42796">
        <ele>21.15</ele>
        <time>2020-07-10T11:41:01Z</time>
      </trkpt>
      <trkpt lat="47.81793" lon="-3.42801">
        <ele>20.97</ele>
        <time>2020-07-10T11:41:02Z</time>
      </trkpt>
      <trkpt lat="47.81792" lon="-3.42804">
        <ele>20.61</ele>
        <time>2020-07-10T11:41:03Z</time>
      </trkpt>
      <trkpt lat="47.81789" lon="-3.42809">
        <ele>20.13</ele>
        <time>2020-07-10T11:41:04Z</time>
      </trkpt>
      <trkpt lat="47.81786" lon="-3.42811">
        <ele>19.48</ele>
        <time>2020-07-10T11:41:05Z</time>
      </trkpt>
      <trkpt lat="47.81783" lon="-3.42817">
        <ele>18.91</ele>
        <time>2020-07-10T11:41:06Z</time>
      </trkpt>
      <trkpt lat="47.81781" lon="-3.42821">
        <ele>18.52</ele>
        <time>2020-07-10T11:41:07Z</time>
      </trkpt>
      <trkpt lat="47.81779" lon="-3.42826">
        <ele>18.02</ele>
        <time>2020-07-10T11:41:08Z</time>
      </trkpt>
      <trkpt lat="47.81776" lon="-3.42832">
        <ele>17.8</ele>
        <time>2020-07-10T11:41:09Z</time>
      </trkpt>
      <trkpt lat="47.81773" lon="-3.42836">
        <ele>17.81</ele>
        <time>2020-07-10T11:41:10Z</time>
      </trkpt>
      <trkpt lat="47.8177" lon="-3.42841">
        <ele>17.95</ele>
        <time>2020-07-10T11:41:11Z</time>
      </trkpt>
      <trkpt lat="47.81768" lon="-3.42848">
        <ele>18.14</ele>
        <time>2020-07-10T11:41:12Z</time>
      </trkpt>
      <trkpt lat="47.81765" lon="-3.42854">
        <ele>18.19</ele>
        <time>2020-07-10T11:41:13Z</time>
      </trkpt>
      <trkpt lat="47.81761" lon="-3.42862">
        <ele>17.99</ele>
        <time>2020-07-10T11:41:14Z</time>
      </trkpt>
      <trkpt lat="47.81759" lon="-3.42867">
        <ele>17.84</ele>
        <time>2020-07-10T11:41:15Z</time>
      </trkpt>
      <trkpt lat="47.81757" lon="-3.42874">
        <ele>17.7</ele>
        <time>2020-07-10T11:41:16Z</time>
      </trkpt>
      <trkpt lat="47.81754" lon="-3.4288">
        <ele>17.43</ele>
        <time>2020-07-10T11:41:17Z</time>
      </trkpt>
      <trkpt lat="47.81751" lon="-3.42884">
        <ele>17.14</ele>
        <time>2020-07-10T11:41:18Z</time>
      </trkpt>
      <trkpt lat="47.8175" lon="-3.42888">
        <ele>16.98</ele>
        <time>2020-07-10T11:41:19Z</time>
      </trkpt>
      <trkpt lat="47.81748" lon="-3.42892">
        <ele>16.98</ele>
        <time>2020-07-10T11:41:20Z</time>
      </trkpt>
      <trkpt lat="47.81747" lon="-3.42895">
        <ele>17.01</ele>
        <time>2020-07-10T11:41:21Z</time>
      </trkpt>
      <trkpt lat="47.81746" lon="-3.429">
        <ele>17.04</ele>
        <time>2020-07-10T11:41:22Z</time>
      </trkpt>
      <trkpt lat="47.81745" lon="-3.42905">
        <ele>17.1</ele>
        <time>2020-07-10T11:41:23Z</time>
      </trkpt>
      <trkpt lat="47.81744" lon="-3.42911">
        <ele>17.15</ele>
        <time>2020-07-10T11:41:24Z</time>
      </trkpt>
      <trkpt lat="47.81744" lon="-3.42917">
        <ele>17.27</ele>
        <time>2020-07-10T11:41:25Z</time>
      </trkpt>
      <trkpt lat="47.81743" lon="-3.42923">
        <ele>17.48</ele>
        <time>2020-07-10T11:41:26Z</time>
      </trkpt>
      <trkpt lat="47.81742" lon="-3.42929">
        <ele>17.71</ele>
        <time>2020-07-10T11:41:27Z</time>
      </trkpt>
      <trkpt lat="47.81741" lon="-3.42934">
        <ele>17.86</ele>
        <time>2020-07-10T11:41:28Z</time>
      </trkpt>
      <trkpt lat="47.81741" lon="-3.42939">
        <ele>18.11</ele>
        <time>2020-07-10T11:41:29Z</time>
      </trkpt>
      <trkpt lat="47.81742" lon="-3.42945">
        <ele>18.41</ele>
        <time>2020-07-10T11:41:30Z</time>
      </trkpt>
      <trkpt lat="47.81742" lon="-3.4295">
        <ele>18.59</ele>
        <time>2020-07-10T11:41:31Z</time>
      </trkpt>
      <trkpt lat="47.81742" lon="-3.42954">
        <ele>18.64</ele>
        <time>2020-07-10T11:41:32Z</time>
      </trkpt>
      <trkpt lat="47.81742" lon="-3.42961">
        <ele>18.72</ele>
        <time>2020-07-10T11:41:33Z</time>
      </trkpt>
      <trkpt lat="47.81743" lon="-3.42966">
        <ele>18.87</ele>
        <time>2020-07-10T11:41:34Z</time>
      </trkpt>
      <trkpt lat="47.81743" lon="-3.42971">
        <ele>18.98</ele>
        <time>2020-07-10T11:41:35Z</time>
      </trkpt>
      <trkpt lat="47.81744" lon="-3.42975">
        <ele>19.09</ele>
        <time>2020-07-10T11:41:36Z</time>
      </trkpt>
      <trkpt lat="47.81745" lon="-3.42978">
        <ele>19.26</ele>
        <time>2020-07-10T11:41:37Z</time>
      </trkpt>
      <trkpt lat="47.81747" lon="-3.42981">
        <ele>19.49</ele>
        <time>2020-07-10T11:41:38Z</time>
      </trkpt>
      <trkpt lat="47.8175" lon="-3.42983">
        <ele>19.81</ele>
        <time>2020-07-10T11:41:39Z</time>
      </trkpt>
      <trkpt lat="47.81752" lon="-3.42985">
        <ele>20.15</ele>
        <time>2020-07-10T11:41:40Z</time>
      </trkpt>
      <trkpt lat="47.81755" lon="-3.42988">
        <ele>20.45</ele>
        <time>2020-07-10T11:41:41Z</time>
      </trkpt>
      <trkpt lat="47.81757" lon="-3.42989">
        <ele>20.71</ele>
        <time>2020-07-10T11:41:42Z</time>
      </trkpt>
      <trkpt lat="47.8176" lon="-3.42991">
        <ele>20.94</ele>
        <time>2020-07-10T11:41:43Z</time>
      </trkpt>
      <trkpt lat="47.81761" lon="-3.42993">
        <ele>21.09</ele>
        <time>2020-07-10T11:41:44Z</time>
      </trkpt>
      <trkpt lat="47.81764" lon="-3.42995">
        <ele>21.19</ele>
        <time>2020-07-10T11:41:45Z</time>
      </trkpt>
      <trkpt lat="47.81766" lon="-3.42998">
        <ele>21.26</ele>
        <time>2020-07-10T11:41:46Z</time>
      </trkpt>
      <trkpt lat="47.81768" lon="-3.42999">
        <ele>21.32</ele>
        <time>2020-07-10T11:41:47Z</time>
      </trkpt>
      <trkpt lat="47.8177" lon="-3.42999">
        <ele>21.47</ele>
        <time>2020-07-10T11:41:48Z</time>
      </trkpt>
      <trkpt lat="47.81773" lon="-3.42999">
        <ele>21.64</ele>
        <time>2020-07-10T11:41:49Z</time>
      </trkpt>
      <trkpt lat="47.81775" lon="-3.42998">
        <ele>21.88</ele>
        <time>2020-07-10T11:41:50Z</time>
      </trkpt>
      <trkpt lat="47.81777" lon="-3.42998">
        <ele>22.12</ele>
        <time>2020-07-10T11:41:51Z</time>
      </trkpt>
      <trkpt lat="47.81778" lon="-3.42997">
        <ele>22.28</ele>
        <time>2020-07-10T11:41:52Z</time>
      </trkpt>
      <trkpt lat="47.8178" lon="-3.42997">
        <ele>22.43</ele>
        <time>2020-07-10T11:41:53Z</time>
      </trkpt>
      <trkpt lat="47.81782" lon="-3.42996">
        <ele>22.64</ele>
        <time>2020-07-10T11:41:54Z</time>
      </trkpt>
      <trkpt lat="47.81784" lon="-3.42995">
        <ele>22.89</ele>
        <time>2020-07-10T11:41:55Z</time>
      </trkpt>
      <trkpt lat="47.81787" lon="-3.42995">
        <ele>23.13</ele>
        <time>2020-07-10T11:41:56Z</time>
      </trkpt>
      <trkpt lat="47.8179" lon="-3.42994">
        <ele>23.42</ele>
        <time>2020-07-10T11:41:57Z</time>
      </trkpt>
      <trkpt lat="47.81793" lon="-3.42992">
        <ele>23.75</ele>
        <time>2020-07-10T11:41:58Z</time>
      </trkpt>
      <trkpt lat="47.81796" lon="-3.42992">
        <ele>24.05</ele>
        <time>2020-07-10T11:41:59Z</time>
      </trkpt>
      <trkpt lat="47.81797" lon="-3.42991">
        <ele>24.29</ele>
        <time>2020-07-10T11:42:00Z</time>
      </trkpt>
      <trkpt lat="47.818" lon="-3.42989">
        <ele>24.61</ele>
        <time>2020-07-10T11:42:01Z</time>
      </trkpt>
      <trkpt lat="47.81803" lon="-3.42988">
        <ele>24.94</ele>
        <time>2020-07-10T11:42:02Z</time>
      </trkpt>
      <trkpt lat="47.81805" lon="-3.42986">
        <ele>25.32</ele>
        <time>2020-07-10T11:42:03Z</time>
      </trkpt>
      <trkpt lat="47.81808" lon="-3.42985">
        <ele>25.49</ele>
        <time>2020-07-10T11:42:04Z</time>
      </trkpt>
      <trkpt lat="47.81811" lon="-3.42985">
        <ele>25.48</ele>
        <time>2020-07-10T11:42:05Z</time>
      </trkpt>
      <trkpt lat="47.81813" lon="-3.42985">
        <ele>25.39</ele>
        <time>2020-07-10T11:42:06Z</time>
      </trkpt>
      <trkpt lat="47.81817" lon="-3.42984">
        <ele>25.35</ele>
        <time>2020-07-10T11:42:07Z</time>
      </trkpt>
      <trkpt lat="47.8182" lon="-3.42984">
        <ele>25.31</ele>
        <time>2020-07-10T11:42:08Z</time>
      </trkpt>
      <trkpt lat="47.81822" lon="-3.42984">
        <ele>25.23</ele>
        <time>2020-07-10T11:42:09Z</time>
      </trkpt>
      <trkpt lat="47.81824" lon="-3.42984">
        <ele>25.2</ele>
        <time>2020-07-10T11:42:10Z</time>
      </trkpt>
      <trkpt lat="47.81826" lon="-3.42982">
        <ele>25.3</ele>
        <time>2020-07-10T11:42:11Z</time>
      </trkpt>
      <trkpt lat="47.81828" lon="-3.42981">
        <ele>25.43</ele>
        <time>2020-07-10T11:42:12Z</time>
      </trkpt>
      <trkpt lat="47.8183" lon="-3.4298">
        <ele>25.56</ele>
        <time>2020-07-10T11:42:13Z</time>
      </trkpt>
      <trkpt lat="47.81832" lon="-3.42979">
        <ele>25.67</ele>
        <time>2020-07-10T11:42:14Z</time>
      </trkpt>
      <trkpt lat="47.81833" lon="-3.42979">
        <ele>25.81</ele>
        <time>2020-07-10T11:42:15Z</time>
      </trkpt>
      <trkpt lat="47.81835" lon="-3.42979">
        <ele>25.86</ele>
        <time>2020-07-10T11:42:16Z</time>
      </trkpt>
      <trkpt lat="47.81838" lon="-3.42979">
        <ele>25.91</ele>
        <time>2020-07-10T11:42:17Z</time>
      </trkpt>
      <trkpt lat="47.8184" lon="-3.42978">
        <ele>26</ele>
        <time>2020-07-10T11:42:18Z</time>
      </trkpt>
      <trkpt lat="47.81843" lon="-3.42978">
        <ele>26.09</ele>
        <time>2020-07-10T11:42:19Z</time>
      </trkpt>
      <trkpt lat="47.81845" lon="-3.42978">
        <ele>26.13</ele>
        <time>2020-07-10T11:42:20Z</time>
      </trkpt>
      <trkpt lat="47.81848" lon="-3.42979">
        <ele>26.12</ele>
        <time>2020-07-10T11:42:21Z</time>
      </trkpt>
      <trkpt lat="47.81849" lon="-3.42979">
        <ele>26.14</ele>
        <time>2020-07-10T11:42:22Z</time>
      </trkpt>
      <trkpt lat="47.81851" lon="-3.42978">
        <ele>26.24</ele>
        <time>2020-07-10T11:42:23Z</time>
      </trkpt>
      <trkpt lat="47.81853" lon="-3.42978">
        <ele>26.31</ele>
        <time>2020-07-10T11:42:24Z</time>
      </trkpt>
      <trkpt lat="47.81856" lon="-3.42979">
        <ele>26.32</ele>
        <time>2020-07-10T11:42:25Z</time>
      </trkpt>
      <trkpt lat="47.81859" lon="-3.42978">
        <ele>26.38</ele>
        <time>2020-07-10T11:42:26Z</time>
      </trkpt>
      <trkpt lat="47.81861" lon="-3.42979">
        <ele>26.4</ele>
        <time>2020-07-10T11:42:27Z</time>
      </trkpt>
      <trkpt lat="47.81863" lon="-3.42979">
        <ele>26.33</ele>
        <time>2020-07-10T11:42:28Z</time>
      </trkpt>
      <trkpt lat="47.81865" lon="-3.42978">
        <ele>26.37</ele>
        <time>2020-07-10T11:42:29Z</time>
      </trkpt>
      <trkpt lat="47.81868" lon="-3.42977">
        <ele>26.45</ele>
        <time>2020-07-10T11:42:30Z</time>
      </trkpt>
      <trkpt lat="47.8187" lon="-3.42977">
        <ele>26.49</ele>
        <time>2020-07-10T11:42:31Z</time>
      </trkpt>
      <trkpt lat="47.81873" lon="-3.42976">
        <ele>26.5</ele>
        <time>2020-07-10T11:42:32Z</time>
      </trkpt>
      <trkpt lat="47.81875" lon="-3.42977">
        <ele>26.34</ele>
        <time>2020-07-10T11:42:33Z</time>
      </trkpt>
      <trkpt lat="47.81878" lon="-3.42978">
        <ele>26.02</ele>
        <time>2020-07-10T11:42:34Z</time>
      </trkpt>
      <trkpt lat="47.81882" lon="-3.42978">
        <ele>25.92</ele>
        <time>2020-07-10T11:42:35Z</time>
      </trkpt>
      <trkpt lat="47.81885" lon="-3.42979">
        <ele>25.63</ele>
        <time>2020-07-10T11:42:36Z</time>
      </trkpt>
      <trkpt lat="47.81888" lon="-3.4298">
        <ele>25.23</ele>
        <time>2020-07-10T11:42:37Z</time>
      </trkpt>
      <trkpt lat="47.81893" lon="-3.4298">
        <ele>25.49</ele>
        <time>2020-07-10T11:42:38Z</time>
      </trkpt>
      <trkpt lat="47.81898" lon="-3.4298">
        <ele>25.9</ele>
        <time>2020-07-10T11:42:39Z</time>
      </trkpt>
      <trkpt lat="47.81904" lon="-3.42981">
        <ele>26.24</ele>
        <time>2020-07-10T11:42:40Z</time>
      </trkpt>
      <trkpt lat="47.81907" lon="-3.42983">
        <ele>26.23</ele>
        <time>2020-07-10T11:42:41Z</time>
      </trkpt>
      <trkpt lat="47.8191" lon="-3.42985">
        <ele>26.05</ele>
        <time>2020-07-10T11:42:42Z</time>
      </trkpt>
      <trkpt lat="47.81913" lon="-3.42988">
        <ele>25.8</ele>
        <time>2020-07-10T11:42:43Z</time>
      </trkpt>
      <trkpt lat="47.81918" lon="-3.42989">
        <ele>25.9</ele>
        <time>2020-07-10T11:42:44Z</time>
      </trkpt>
      <trkpt lat="47.81923" lon="-3.42992">
        <ele>25.96</ele>
        <time>2020-07-10T11:42:45Z</time>
      </trkpt>
      <trkpt lat="47.81926" lon="-3.42995">
        <ele>25.64</ele>
        <time>2020-07-10T11:42:46Z</time>
      </trkpt>
      <trkpt lat="47.81929" lon="-3.42999">
        <ele>25.29</ele>
        <time>2020-07-10T11:42:47Z</time>
      </trkpt>
      <trkpt lat="47.81933" lon="-3.43002">
        <ele>24.99</ele>
        <time>2020-07-10T11:42:48Z</time>
      </trkpt>
      <trkpt lat="47.81937" lon="-3.43005">
        <ele>24.72</ele>
        <time>2020-07-10T11:42:49Z</time>
      </trkpt>
      <trkpt lat="47.8194" lon="-3.43008">
        <ele>24.45</ele>
        <time>2020-07-10T11:42:50Z</time>
      </trkpt>
      <trkpt lat="47.81943" lon="-3.43011">
        <ele>24.13</ele>
        <time>2020-07-10T11:42:51Z</time>
      </trkpt>
      <trkpt lat="47.81946" lon="-3.43014">
        <ele>23.95</ele>
        <time>2020-07-10T11:42:52Z</time>
      </trkpt>
      <trkpt lat="47.81948" lon="-3.43017">
        <ele>23.69</ele>
        <time>2020-07-10T11:42:53Z</time>
      </trkpt>
      <trkpt lat="47.81952" lon="-3.4302">
        <ele>23.49</ele>
        <time>2020-07-10T11:42:54Z</time>
      </trkpt>
      <trkpt lat="47.81957" lon="-3.43024">
        <ele>23.52</ele>
        <time>2020-07-10T11:42:55Z</time>
      </trkpt>
      <trkpt lat="47.81961" lon="-3.43027">
        <ele>23.56</ele>
        <time>2020-07-10T11:42:56Z</time>
      </trkpt>
      <trkpt lat="47.81967" lon="-3.43035">
        <ele>23.23</ele>
        <time>2020-07-10T11:42:57Z</time>
      </trkpt>
      <trkpt lat="47.81976" lon="-3.43038">
        <ele>23.66</ele>
        <time>2020-07-10T11:42:58Z</time>
      </trkpt>
      <trkpt lat="47.81982" lon="-3.4304">
        <ele>23.99</ele>
        <time>2020-07-10T11:42:59Z</time>
      </trkpt>
      <trkpt lat="47.81987" lon="-3.43043">
        <ele>24.22</ele>
        <time>2020-07-10T11:43:00Z</time>
      </trkpt>
      <trkpt lat="47.81992" lon="-3.43046">
        <ele>24.24</ele>
        <time>2020-07-10T11:43:01Z</time>
      </trkpt>
      <trkpt lat="47.82" lon="-3.43051">
        <ele>24.15</ele>
        <time>2020-07-10T11:43:02Z</time>
      </trkpt>
      <trkpt lat="47.82006" lon="-3.43056">
        <ele>23.87</ele>
        <time>2020-07-10T11:43:03Z</time>
      </trkpt>
      <trkpt lat="47.82013" lon="-3.43061">
        <ele>23.45</ele>
        <time>2020-07-10T11:43:04Z</time>
      </trkpt>
      <trkpt lat="47.82019" lon="-3.43066">
        <ele>22.97</ele>
        <time>2020-07-10T11:43:05Z</time>
      </trkpt>
      <trkpt lat="47.82023" lon="-3.4307">
        <ele>22.47</ele>
        <time>2020-07-10T11:43:06Z</time>
      </trkpt>
      <trkpt lat="47.82027" lon="-3.43073">
        <ele>22.07</ele>
        <time>2020-07-10T11:43:07Z</time>
      </trkpt>
      <trkpt lat="47.8203" lon="-3.43075">
        <ele>21.81</ele>
        <time>2020-07-10T11:43:08Z</time>
      </trkpt>
      <trkpt lat="47.82034" lon="-3.43075">
        <ele>21.97</ele>
        <time>2020-07-10T11:43:09Z</time>
      </trkpt>
      <trkpt lat="47.82037" lon="-3.43077">
        <ele>22.01</ele>
        <time>2020-07-10T11:43:10Z</time>
      </trkpt>
      <trkpt lat="47.8204" lon="-3.43077">
        <ele>22.1</ele>
        <time>2020-07-10T11:43:11Z</time>
      </trkpt>
      <trkpt lat="47.82042" lon="-3.43077">
        <ele>22.34</ele>
        <time>2020-07-10T11:43:12Z</time>
      </trkpt>
      <trkpt lat="47.82044" lon="-3.43077">
        <ele>22.78</ele>
        <time>2020-07-10T11:43:13Z</time>
      </trkpt>
      <trkpt lat="47.82045" lon="-3.43077">
        <ele>22.94</ele>
        <time>2020-07-10T11:43:14Z</time>
      </trkpt>
      <trkpt lat="47.82047" lon="-3.43078">
        <ele>22.92</ele>
        <time>2020-07-10T11:43:15Z</time>
      </trkpt>
      <trkpt lat="47.8205" lon="-3.43079">
        <ele>22.91</ele>
        <time>2020-07-10T11:43:16Z</time>
      </trkpt>
      <trkpt lat="47.82054" lon="-3.43081">
        <ele>22.76</ele>
        <time>2020-07-10T11:43:17Z</time>
      </trkpt>
      <trkpt lat="47.82058" lon="-3.43083">
        <ele>22.43</ele>
        <time>2020-07-10T11:43:18Z</time>
      </trkpt>
      <trkpt lat="47.82062" lon="-3.43086">
        <ele>22.25</ele>
        <time>2020-07-10T11:43:19Z</time>
      </trkpt>
      <trkpt lat="47.82066" lon="-3.43087">
        <ele>22.23</ele>
        <time>2020-07-10T11:43:20Z</time>
      </trkpt>
      <trkpt lat="47.82069" lon="-3.43088">
        <ele>22.22</ele>
        <time>2020-07-10T11:43:21Z</time>
      </trkpt>
      <trkpt lat="47.82072" lon="-3.4309">
        <ele>22.24</ele>
        <time>2020-07-10T11:43:22Z</time>
      </trkpt>
      <trkpt lat="47.82075" lon="-3.43092">
        <ele>22.07</ele>
        <time>2020-07-10T11:43:23Z</time>
      </trkpt>
      <trkpt lat="47.82081" lon="-3.43095">
        <ele>21.95</ele>
        <time>2020-07-10T11:43:24Z</time>
      </trkpt>
      <trkpt lat="47.82085" lon="-3.43096">
        <ele>21.95</ele>
        <time>2020-07-10T11:43:25Z</time>
      </trkpt>
      <trkpt lat="47.82091" lon="-3.43098">
        <ele>22.22</ele>
        <time>2020-07-10T11:43:26Z</time>
      </trkpt>
      <trkpt lat="47.82095" lon="-3.43098">
        <ele>22.58</ele>
        <time>2020-07-10T11:43:27Z</time>
      </trkpt>
      <trkpt lat="47.82099" lon="-3.43098">
        <ele>23.01</ele>
        <time>2020-07-10T11:43:28Z</time>
      </trkpt>
      <trkpt lat="47.82103" lon="-3.43097">
        <ele>23.69</ele>
        <time>2020-07-10T11:43:29Z</time>
      </trkpt>
      <trkpt lat="47.82107" lon="-3.43096">
        <ele>24.54</ele>
        <time>2020-07-10T11:43:30Z</time>
      </trkpt>
      <trkpt lat="47.82111" lon="-3.43095">
        <ele>25.34</ele>
        <time>2020-07-10T11:43:31Z</time>
      </trkpt>
      <trkpt lat="47.82116" lon="-3.43094">
        <ele>25.65</ele>
        <time>2020-07-10T11:43:32Z</time>
      </trkpt>
      <trkpt lat="47.8212" lon="-3.43093">
        <ele>25.87</ele>
        <time>2020-07-10T11:43:33Z</time>
      </trkpt>
      <trkpt lat="47.82123" lon="-3.43092">
        <ele>26.11</ele>
        <time>2020-07-10T11:43:34Z</time>
      </trkpt>
      <trkpt lat="47.82127" lon="-3.43091">
        <ele>26.33</ele>
        <time>2020-07-10T11:43:35Z</time>
      </trkpt>
      <trkpt lat="47.8213" lon="-3.4309">
        <ele>26.46</ele>
        <time>2020-07-10T11:43:36Z</time>
      </trkpt>
      <trkpt lat="47.82134" lon="-3.4309">
        <ele>26.47</ele>
        <time>2020-07-10T11:43:37Z</time>
      </trkpt>
      <trkpt lat="47.82138" lon="-3.43089">
        <ele>26.59</ele>
        <time>2020-07-10T11:43:38Z</time>
      </trkpt>
      <trkpt lat="47.82143" lon="-3.43088">
        <ele>26.5</ele>
        <time>2020-07-10T11:43:39Z</time>
      </trkpt>
      <trkpt lat="47.82145" lon="-3.4309">
        <ele>25.91</ele>
        <time>2020-07-10T11:43:40Z</time>
      </trkpt>
      <trkpt lat="47.8215" lon="-3.43093">
        <ele>25.04</ele>
        <time>2020-07-10T11:43:41Z</time>
      </trkpt>
      <trkpt lat="47.82154" lon="-3.43094">
        <ele>24.18</ele>
        <time>2020-07-10T11:43:42Z</time>
      </trkpt>
      <trkpt lat="47.82157" lon="-3.43097">
        <ele>23.2</ele>
        <time>2020-07-10T11:43:43Z</time>
      </trkpt>
      <trkpt lat="47.82161" lon="-3.43101">
        <ele>22.13</ele>
        <time>2020-07-10T11:43:44Z</time>
      </trkpt>
      <trkpt lat="47.82165" lon="-3.43105">
        <ele>20.97</ele>
        <time>2020-07-10T11:43:45Z</time>
      </trkpt>
      <trkpt lat="47.82169" lon="-3.4311">
        <ele>19.83</ele>
        <time>2020-07-10T11:43:46Z</time>
      </trkpt>
      <trkpt lat="47.82171" lon="-3.43115">
        <ele>19</ele>
        <time>2020-07-10T11:43:47Z</time>
      </trkpt>
      <trkpt lat="47.82171" lon="-3.4312">
        <ele>18.39</ele>
        <time>2020-07-10T11:43:48Z</time>
      </trkpt>
      <trkpt lat="47.82174" lon="-3.43127">
        <ele>17.8</ele>
        <time>2020-07-10T11:43:49Z</time>
      </trkpt>
      <trkpt lat="47.82178" lon="-3.43134">
        <ele>17.36</ele>
        <time>2020-07-10T11:43:50Z</time>
      </trkpt>
      <trkpt lat="47.82181" lon="-3.4314">
        <ele>17.07</ele>
        <time>2020-07-10T11:43:51Z</time>
      </trkpt>
      <trkpt lat="47.82185" lon="-3.43143">
        <ele>17.08</ele>
        <time>2020-07-10T11:43:52Z</time>
      </trkpt>
      <trkpt lat="47.82188" lon="-3.43146">
        <ele>17.08</ele>
        <time>2020-07-10T11:43:53Z</time>
      </trkpt>
      <trkpt lat="47.8219" lon="-3.43147">
        <ele>17.09</ele>
        <time>2020-07-10T11:43:54Z</time>
      </trkpt>
      <trkpt lat="47.8219" lon="-3.43148">
        <ele>17.1</ele>
        <time>2020-07-10T11:43:55Z</time>
      </trkpt>
      <trkpt lat="47.82191" lon="-3.43148">
        <ele>17.11</ele>
        <time>2020-07-10T11:43:56Z</time>
      </trkpt>
      <trkpt lat="47.82191" lon="-3.43148">
        <ele>17.13</ele>
        <time>2020-07-10T11:43:57Z</time>
      </trkpt>
      <trkpt lat="47.82191" lon="-3.43148">
        <ele>17.14</ele>
        <time>2020-07-10T11:43:58Z</time>
      </trkpt>
      <trkpt lat="47.82191" lon="-3.43148">
        <ele>17.14</ele>
        <time>2020-07-10T11:43:59Z</time>
      </trkpt>
      <trkpt lat="47.82191" lon="-3.43148">
        <ele>17.14</ele>
        <time>2020-07-10T11:44:00Z</time>
      </trkpt>
      <trkpt lat="47.82191" lon="-3.43148">
        <ele>17.14</ele>
        <time>2020-07-10T11:44:01Z</time>
      </trkpt>
      <trkpt lat="47.82191" lon="-3.43148">
        <ele>17.14</ele>
        <time>2020-07-10T11:44:02Z</time>
      </trkpt>
      <trkpt lat="47.82191" lon="-3.43148">
        <ele>17.14</ele>
        <time>2020-07-10T11:44:03Z</time>
      </trkpt>
      <trkpt lat="47.82191" lon="-3.43148">
        <ele>17.14</ele>
        <time>2020-07-10T11:44:04Z</time>
      </trkpt>
      <trkpt lat="47.82191" lon="-3.43148">
        <ele>17.14</ele>
        <time>2020-07-10T11:44:05Z</time>
      </trkpt>
      <trkpt lat="47.82191" lon="-3.43148">
        <ele>17.14</ele>
        <time>2020-07-10T11:44:06Z</time>
      </trkpt>
      <trkpt lat="47.82191" lon="-3.43148">
        <ele>17.14</ele>
        <time>2020-07-10T11:44:07Z</time>
      </trkpt>
      <trkpt lat="47.82191" lon="-3.43148">
        <ele>17.14</ele>
        <time>2020-07-10T11:44:08Z</time>
      </trkpt>
      <trkpt lat="47.82191" lon="-3.43148">
        <ele>17.14</ele>
        <time>2020-07-10T11:44:09Z</time>
      </trkpt>
      <trkpt lat="47.82191" lon="-3.43148">
        <ele>17.14</ele>
        <time>2020-07-10T11:44:10Z</time>
      </trkpt>
      <trkpt lat="47.82191" lon="-3.43148">
        <ele>17.14</ele>
        <time>2020-07-10T11:44:11Z</time>
      </trkpt>
      <trkpt lat="47.82191" lon="-3.43148">
        <ele>17.14</ele>
        <time>2020-07-10T11:44:12Z</time>
      </trkpt>
      <trkpt lat="47.82191" lon="-3.43148">
        <ele>17.14</ele>
        <time>2020-07-10T11:44:13Z</time>
      </trkpt>
      <trkpt lat="47.82191" lon="-3.43148">
        <ele>17.14</ele>
        <time>2020-07-10T11:44:14Z</time>
      </trkpt>
      <trkpt lat="47.82191" lon="-3.43148">
        <ele>17.14</ele>
        <time>2020-07-10T11:44:15Z</time>
      </trkpt>
      <trkpt lat="47.82191" lon="-3.43148">
        <ele>17.14</ele>
        <time>2020-07-10T11:44:16Z</time>
      </trkpt>
      <trkpt lat="47.82191" lon="-3.43148">
        <ele>17.14</ele>
        <time>2020-07-10T11:44:17Z</time>
      </trkpt>
      <trkpt lat="47.82191" lon="-3.43148">
        <ele>17.14</ele>
        <time>2020-07-10T11:44:18Z</time>
      </trkpt>
      <trkpt lat="47.822" lon="-3.43152">
        <ele>17.24</ele>
        <time>2020-07-10T11:44:19Z</time>
      </trkpt>
      <trkpt lat="47.82201" lon="-3.43153">
        <ele>17.21</ele>
        <time>2020-07-10T11:44:20Z</time>
      </trkpt>
      <trkpt lat="47.82202" lon="-3.43155">
        <ele>17.14</ele>
        <time>2020-07-10T11:44:21Z</time>
      </trkpt>
      <trkpt lat="47.82203" lon="-3.43157">
        <ele>17.02</ele>
        <time>2020-07-10T11:44:22Z</time>
      </trkpt>
      <trkpt lat="47.82202" lon="-3.43159">
        <ele>16.89</ele>
        <time>2020-07-10T11:44:23Z</time>
      </trkpt>
      <trkpt lat="47.82203" lon="-3.43161">
        <ele>16.78</ele>
        <time>2020-07-10T11:44:24Z</time>
      </trkpt>
      <trkpt lat="47.82203" lon="-3.43163">
        <ele>16.61</ele>
        <time>2020-07-10T11:44:25Z</time>
      </trkpt>
      <trkpt lat="47.82204" lon="-3.43165">
        <ele>16.49</ele>
        <time>2020-07-10T11:44:26Z</time>
      </trkpt>
      <trkpt lat="47.82206" lon="-3.43168">
        <ele>16.4</ele>
        <time>2020-07-10T11:44:27Z</time>
      </trkpt>
      <trkpt lat="47.82208" lon="-3.43171">
        <ele>16.39</ele>
        <time>2020-07-10T11:44:28Z</time>
      </trkpt>
      <trkpt lat="47.82208" lon="-3.43174">
        <ele>16.37</ele>
        <time>2020-07-10T11:44:29Z</time>
      </trkpt>
      <trkpt lat="47.82207" lon="-3.43177">
        <ele>16.27</ele>
        <time>2020-07-10T11:44:30Z</time>
      </trkpt>
      <trkpt lat="47.82206" lon="-3.4318">
        <ele>16.16</ele>
        <time>2020-07-10T11:44:31Z</time>
      </trkpt>
      <trkpt lat="47.82204" lon="-3.43183">
        <ele>16.03</ele>
        <time>2020-07-10T11:44:32Z</time>
      </trkpt>
      <trkpt lat="47.82203" lon="-3.43186">
        <ele>15.87</ele>
        <time>2020-07-10T11:44:33Z</time>
      </trkpt>
      <trkpt lat="47.82201" lon="-3.43189">
        <ele>15.7</ele>
        <time>2020-07-10T11:44:34Z</time>
      </trkpt>
      <trkpt lat="47.822" lon="-3.43192">
        <ele>15.52</ele>
        <time>2020-07-10T11:44:35Z</time>
      </trkpt>
      <trkpt lat="47.82198" lon="-3.43195">
        <ele>15.35</ele>
        <time>2020-07-10T11:44:36Z</time>
      </trkpt>
      <trkpt lat="47.82197" lon="-3.43197">
        <ele>15.34</ele>
        <time>2020-07-10T11:44:37Z</time>
      </trkpt>
      <trkpt lat="47.82195" lon="-3.432">
        <ele>15.39</ele>
        <time>2020-07-10T11:44:38Z</time>
      </trkpt>
      <trkpt lat="47.82194" lon="-3.43202">
        <ele>15.5</ele>
        <time>2020-07-10T11:44:39Z</time>
      </trkpt>
      <trkpt lat="47.82193" lon="-3.43204">
        <ele>15.65</ele>
        <time>2020-07-10T11:44:40Z</time>
      </trkpt>
      <trkpt lat="47.82192" lon="-3.43206">
        <ele>15.81</ele>
        <time>2020-07-10T11:44:41Z</time>
      </trkpt>
      <trkpt lat="47.82191" lon="-3.43208">
        <ele>15.96</ele>
        <time>2020-07-10T11:44:42Z</time>
      </trkpt>
      <trkpt lat="47.8219" lon="-3.43209">
        <ele>16.09</ele>
        <time>2020-07-10T11:44:43Z</time>
      </trkpt>
      <trkpt lat="47.82188" lon="-3.4321">
        <ele>16.18</ele>
        <time>2020-07-10T11:44:44Z</time>
      </trkpt>
      <trkpt lat="47.82187" lon="-3.43211">
        <ele>16.28</ele>
        <time>2020-07-10T11:44:45Z</time>
      </trkpt>
      <trkpt lat="47.82186" lon="-3.43213">
        <ele>16.39</ele>
        <time>2020-07-10T11:44:46Z</time>
      </trkpt>
      <trkpt lat="47.82184" lon="-3.43213">
        <ele>16.43</ele>
        <time>2020-07-10T11:44:47Z</time>
      </trkpt>
      <trkpt lat="47.82183" lon="-3.43212">
        <ele>16.41</ele>
        <time>2020-07-10T11:44:48Z</time>
      </trkpt>
      <trkpt lat="47.82181" lon="-3.43209">
        <ele>16.31</ele>
        <time>2020-07-10T11:44:49Z</time>
      </trkpt>
      <trkpt lat="47.82181" lon="-3.43207">
        <ele>16.19</ele>
        <time>2020-07-10T11:44:50Z</time>
      </trkpt>
      <trkpt lat="47.82183" lon="-3.43204">
        <ele>16.03</ele>
        <time>2020-07-10T11:44:51Z</time>
      </trkpt>
      <trkpt lat="47.82185" lon="-3.43202">
        <ele>15.84</ele>
        <time>2020-07-10T11:44:52Z</time>
      </trkpt>
      <trkpt lat="47.82188" lon="-3.43198">
        <ele>15.58</ele>
        <time>2020-07-10T11:44:53Z</time>
      </trkpt>
      <trkpt lat="47.8219" lon="-3.43194">
        <ele>15.27</ele>
        <time>2020-07-10T11:44:54Z</time>
      </trkpt>
      <trkpt lat="47.82194" lon="-3.43191">
        <ele>15.19</ele>
        <time>2020-07-10T11:44:55Z</time>
      </trkpt>
      <trkpt lat="47.82197" lon="-3.43187">
        <ele>15.33</ele>
        <time>2020-07-10T11:44:56Z</time>
      </trkpt>
      <trkpt lat="47.82199" lon="-3.43183">
        <ele>15.58</ele>
        <time>2020-07-10T11:44:57Z</time>
      </trkpt>
      <trkpt lat="47.82202" lon="-3.43179">
        <ele>15.84</ele>
        <time>2020-07-10T11:44:58Z</time>
      </trkpt>
      <trkpt lat="47.82205" lon="-3.43174">
        <ele>16.09</ele>
        <time>2020-07-10T11:44:59Z</time>
      </trkpt>
      <trkpt lat="47.82207" lon="-3.4317">
        <ele>16.31</ele>
        <time>2020-07-10T11:45:00Z</time>
      </trkpt>
      <trkpt lat="47.82209" lon="-3.43164">
        <ele>16.59</ele>
        <time>2020-07-10T11:45:01Z</time>
      </trkpt>
      <trkpt lat="47.82212" lon="-3.43159">
        <ele>17.02</ele>
        <time>2020-07-10T11:45:02Z</time>
      </trkpt>
      <trkpt lat="47.82214" lon="-3.43154">
        <ele>17.45</ele>
        <time>2020-07-10T11:45:03Z</time>
      </trkpt>
      <trkpt lat="47.82216" lon="-3.43148">
        <ele>17.91</ele>
        <time>2020-07-10T11:45:04Z</time>
      </trkpt>
      <trkpt lat="47.82218" lon="-3.43143">
        <ele>18.39</ele>
        <time>2020-07-10T11:45:05Z</time>
      </trkpt>
      <trkpt lat="47.8222" lon="-3.43137">
        <ele>18.85</ele>
        <time>2020-07-10T11:45:06Z</time>
      </trkpt>
      <trkpt lat="47.82222" lon="-3.43131">
        <ele>19.34</ele>
        <time>2020-07-10T11:45:07Z</time>
      </trkpt>
      <trkpt lat="47.82224" lon="-3.43126">
        <ele>19.67</ele>
        <time>2020-07-10T11:45:08Z</time>
      </trkpt>
      <trkpt lat="47.82227" lon="-3.4312">
        <ele>19.97</ele>
        <time>2020-07-10T11:45:09Z</time>
      </trkpt>
      <trkpt lat="47.8223" lon="-3.43115">
        <ele>20.28</ele>
        <time>2020-07-10T11:45:10Z</time>
      </trkpt>
      <trkpt lat="47.82233" lon="-3.4311">
        <ele>20.67</ele>
        <time>2020-07-10T11:45:11Z</time>
      </trkpt>
      <trkpt lat="47.82236" lon="-3.43105">
        <ele>21.24</ele>
        <time>2020-07-10T11:45:12Z</time>
      </trkpt>
      <trkpt lat="47.8224" lon="-3.43101">
        <ele>21.9</ele>
        <time>2020-07-10T11:45:13Z</time>
      </trkpt>
      <trkpt lat="47.82243" lon="-3.43097">
        <ele>22.65</ele>
        <time>2020-07-10T11:45:14Z</time>
      </trkpt>
      <trkpt lat="47.82247" lon="-3.43093">
        <ele>23.46</ele>
        <time>2020-07-10T11:45:15Z</time>
      </trkpt>
      <trkpt lat="47.82251" lon="-3.4309">
        <ele>24.18</ele>
        <time>2020-07-10T11:45:16Z</time>
      </trkpt>
      <trkpt lat="47.82255" lon="-3.43087">
        <ele>24.35</ele>
        <time>2020-07-10T11:45:17Z</time>
      </trkpt>
      <trkpt lat="47.82259" lon="-3.43084">
        <ele>24.35</ele>
        <time>2020-07-10T11:45:18Z</time>
      </trkpt>
      <trkpt lat="47.82263" lon="-3.43081">
        <ele>24.18</ele>
        <time>2020-07-10T11:45:19Z</time>
      </trkpt>
      <trkpt lat="47.82267" lon="-3.43078">
        <ele>24.03</ele>
        <time>2020-07-10T11:45:20Z</time>
      </trkpt>
      <trkpt lat="47.8227" lon="-3.43074">
        <ele>24.19</ele>
        <time>2020-07-10T11:45:21Z</time>
      </trkpt>
      <trkpt lat="47.82273" lon="-3.43071">
        <ele>24.49</ele>
        <time>2020-07-10T11:45:22Z</time>
      </trkpt>
      <trkpt lat="47.82277" lon="-3.43068">
        <ele>24.84</ele>
        <time>2020-07-10T11:45:23Z</time>
      </trkpt>
      <trkpt lat="47.8228" lon="-3.43065">
        <ele>25.07</ele>
        <time>2020-07-10T11:45:24Z</time>
      </trkpt>
      <trkpt lat="47.82284" lon="-3.43062">
        <ele>25.11</ele>
        <time>2020-07-10T11:45:25Z</time>
      </trkpt>
      <trkpt lat="47.82288" lon="-3.43059">
        <ele>25.14</ele>
        <time>2020-07-10T11:45:26Z</time>
      </trkpt>
      <trkpt lat="47.82292" lon="-3.43055">
        <ele>25.1</ele>
        <time>2020-07-10T11:45:27Z</time>
      </trkpt>
      <trkpt lat="47.82295" lon="-3.43051">
        <ele>24.84</ele>
        <time>2020-07-10T11:45:28Z</time>
      </trkpt>
      <trkpt lat="47.82299" lon="-3.43048">
        <ele>24.64</ele>
        <time>2020-07-10T11:45:29Z</time>
      </trkpt>
      <trkpt lat="47.82303" lon="-3.43043">
        <ele>24.57</ele>
        <time>2020-07-10T11:45:30Z</time>
      </trkpt>
      <trkpt lat="47.82308" lon="-3.43039">
        <ele>24.5</ele>
        <time>2020-07-10T11:45:31Z</time>
      </trkpt>
      <trkpt lat="47.82312" lon="-3.43036">
        <ele>24.27</ele>
        <time>2020-07-10T11:45:32Z</time>
      </trkpt>
      <trkpt lat="47.82316" lon="-3.43031">
        <ele>24.17</ele>
        <time>2020-07-10T11:45:33Z</time>
      </trkpt>
      <trkpt lat="47.8232" lon="-3.43027">
        <ele>24</ele>
        <time>2020-07-10T11:45:34Z</time>
      </trkpt>
      <trkpt lat="47.82324" lon="-3.43021">
        <ele>23.85</ele>
        <time>2020-07-10T11:45:35Z</time>
      </trkpt>
      <trkpt lat="47.82327" lon="-3.43016">
        <ele>23.81</ele>
        <time>2020-07-10T11:45:36Z</time>
      </trkpt>
      <trkpt lat="47.8233" lon="-3.43011">
        <ele>23.93</ele>
        <time>2020-07-10T11:45:37Z</time>
      </trkpt>
      <trkpt lat="47.82332" lon="-3.43005">
        <ele>24.25</ele>
        <time>2020-07-10T11:45:38Z</time>
      </trkpt>
      <trkpt lat="47.82334" lon="-3.43">
        <ele>24.67</ele>
        <time>2020-07-10T11:45:39Z</time>
      </trkpt>
      <trkpt lat="47.82335" lon="-3.42993">
        <ele>24.59</ele>
        <time>2020-07-10T11:45:40Z</time>
      </trkpt>
      <trkpt lat="47.82337" lon="-3.42987">
        <ele>24.41</ele>
        <time>2020-07-10T11:45:41Z</time>
      </trkpt>
      <trkpt lat="47.82338" lon="-3.4298">
        <ele>24.2</ele>
        <time>2020-07-10T11:45:42Z</time>
      </trkpt>
      <trkpt lat="47.82338" lon="-3.42974">
        <ele>24.12</ele>
        <time>2020-07-10T11:45:43Z</time>
      </trkpt>
      <trkpt lat="47.82338" lon="-3.42967">
        <ele>24.08</ele>
        <time>2020-07-10T11:45:44Z</time>
      </trkpt>
      <trkpt lat="47.82336" lon="-3.4296">
        <ele>24.07</ele>
        <time>2020-07-10T11:45:45Z</time>
      </trkpt>
      <trkpt lat="47.82335" lon="-3.42954">
        <ele>24.01</ele>
        <time>2020-07-10T11:45:46Z</time>
      </trkpt>
      <trkpt lat="47.82335" lon="-3.42948">
        <ele>23.92</ele>
        <time>2020-07-10T11:45:47Z</time>
      </trkpt>
      <trkpt lat="47.82334" lon="-3.42942">
        <ele>23.8</ele>
        <time>2020-07-10T11:45:48Z</time>
      </trkpt>
      <trkpt lat="47.82334" lon="-3.42935">
        <ele>23.66</ele>
        <time>2020-07-10T11:45:49Z</time>
      </trkpt>
      <trkpt lat="47.82333" lon="-3.42928">
        <ele>23.51</ele>
        <time>2020-07-10T11:45:50Z</time>
      </trkpt>
      <trkpt lat="47.82333" lon="-3.42922">
        <ele>23.33</ele>
        <time>2020-07-10T11:45:51Z</time>
      </trkpt>
      <trkpt lat="47.82332" lon="-3.42915">
        <ele>23.26</ele>
        <time>2020-07-10T11:45:52Z</time>
      </trkpt>
      <trkpt lat="47.82332" lon="-3.42909">
        <ele>23.54</ele>
        <time>2020-07-10T11:45:53Z</time>
      </trkpt>
      <trkpt lat="47.82332" lon="-3.42903">
        <ele>23.91</ele>
        <time>2020-07-10T11:45:54Z</time>
      </trkpt>
      <trkpt lat="47.82331" lon="-3.42897">
        <ele>24.32</ele>
        <time>2020-07-10T11:45:55Z</time>
      </trkpt>
      <trkpt lat="47.82332" lon="-3.4289">
        <ele>24.73</ele>
        <time>2020-07-10T11:45:56Z</time>
      </trkpt>
      <trkpt lat="47.82333" lon="-3.42884">
        <ele>25.47</ele>
        <time>2020-07-10T11:45:57Z</time>
      </trkpt>
      <trkpt lat="47.82335" lon="-3.42879">
        <ele>26.31</ele>
        <time>2020-07-10T11:45:58Z</time>
      </trkpt>
      <trkpt lat="47.82338" lon="-3.42874">
        <ele>27.09</ele>
        <time>2020-07-10T11:45:59Z</time>
      </trkpt>
      <trkpt lat="47.8234" lon="-3.42869">
        <ele>27.81</ele>
        <time>2020-07-10T11:46:00Z</time>
      </trkpt>
      <trkpt lat="47.82342" lon="-3.42865">
        <ele>28.46</ele>
        <time>2020-07-10T11:46:01Z</time>
      </trkpt>
      <trkpt lat="47.82345" lon="-3.42861">
        <ele>29.02</ele>
        <time>2020-07-10T11:46:02Z</time>
      </trkpt>
      <trkpt lat="47.82348" lon="-3.42858">
        <ele>29.51</ele>
        <time>2020-07-10T11:46:03Z</time>
      </trkpt>
      <trkpt lat="47.82351" lon="-3.42854">
        <ele>30.08</ele>
        <time>2020-07-10T11:46:04Z</time>
      </trkpt>
      <trkpt lat="47.82354" lon="-3.42851">
        <ele>30.55</ele>
        <time>2020-07-10T11:46:05Z</time>
      </trkpt>
      <trkpt lat="47.82358" lon="-3.4285">
        <ele>30.92</ele>
        <time>2020-07-10T11:46:06Z</time>
      </trkpt>
      <trkpt lat="47.82361" lon="-3.42848">
        <ele>31.15</ele>
        <time>2020-07-10T11:46:07Z</time>
      </trkpt>
      <trkpt lat="47.82364" lon="-3.42846">
        <ele>31.6</ele>
        <time>2020-07-10T11:46:08Z</time>
      </trkpt>
      <trkpt lat="47.82368" lon="-3.42845">
        <ele>31.86</ele>
        <time>2020-07-10T11:46:09Z</time>
      </trkpt>
      <trkpt lat="47.82372" lon="-3.42844">
        <ele>32.01</ele>
        <time>2020-07-10T11:46:10Z</time>
      </trkpt>
      <trkpt lat="47.82375" lon="-3.42843">
        <ele>32.16</ele>
        <time>2020-07-10T11:46:11Z</time>
      </trkpt>
      <trkpt lat="47.82379" lon="-3.42842">
        <ele>32.36</ele>
        <time>2020-07-10T11:46:12Z</time>
      </trkpt>
      <trkpt lat="47.82383" lon="-3.42841">
        <ele>32.39</ele>
        <time>2020-07-10T11:46:13Z</time>
      </trkpt>
      <trkpt lat="47.82386" lon="-3.4284">
        <ele>32.51</ele>
        <time>2020-07-10T11:46:14Z</time>
      </trkpt>
      <trkpt lat="47.82389" lon="-3.4284">
        <ele>32.57</ele>
        <time>2020-07-10T11:46:15Z</time>
      </trkpt>
      <trkpt lat="47.82392" lon="-3.42839">
        <ele>32.6</ele>
        <time>2020-07-10T11:46:16Z</time>
      </trkpt>
      <trkpt lat="47.82396" lon="-3.42839">
        <ele>32.61</ele>
        <time>2020-07-10T11:46:17Z</time>
      </trkpt>
      <trkpt lat="47.82399" lon="-3.42838">
        <ele>32.59</ele>
        <time>2020-07-10T11:46:18Z</time>
      </trkpt>
      <trkpt lat="47.82403" lon="-3.42838">
        <ele>32.55</ele>
        <time>2020-07-10T11:46:19Z</time>
      </trkpt>
      <trkpt lat="47.82406" lon="-3.42838">
        <ele>32.56</ele>
        <time>2020-07-10T11:46:20Z</time>
      </trkpt>
      <trkpt lat="47.8241" lon="-3.42837">
        <ele>32.54</ele>
        <time>2020-07-10T11:46:21Z</time>
      </trkpt>
      <trkpt lat="47.82414" lon="-3.42836">
        <ele>32.56</ele>
        <time>2020-07-10T11:46:22Z</time>
      </trkpt>
      <trkpt lat="47.82418" lon="-3.42835">
        <ele>32.63</ele>
        <time>2020-07-10T11:46:23Z</time>
      </trkpt>
      <trkpt lat="47.82422" lon="-3.42834">
        <ele>32.67</ele>
        <time>2020-07-10T11:46:24Z</time>
      </trkpt>
      <trkpt lat="47.82425" lon="-3.42834">
        <ele>32.66</ele>
        <time>2020-07-10T11:46:25Z</time>
      </trkpt>
      <trkpt lat="47.82429" lon="-3.42833">
        <ele>32.69</ele>
        <time>2020-07-10T11:46:26Z</time>
      </trkpt>
      <trkpt lat="47.82432" lon="-3.42832">
        <ele>32.74</ele>
        <time>2020-07-10T11:46:27Z</time>
      </trkpt>
      <trkpt lat="47.82436" lon="-3.42831">
        <ele>32.77</ele>
        <time>2020-07-10T11:46:28Z</time>
      </trkpt>
      <trkpt lat="47.82439" lon="-3.4283">
        <ele>32.87</ele>
        <time>2020-07-10T11:46:29Z</time>
      </trkpt>
      <trkpt lat="47.82443" lon="-3.42828">
        <ele>32.97</ele>
        <time>2020-07-10T11:46:30Z</time>
      </trkpt>
      <trkpt lat="47.82446" lon="-3.42826">
        <ele>33.24</ele>
        <time>2020-07-10T11:46:31Z</time>
      </trkpt>
      <trkpt lat="47.8245" lon="-3.42824">
        <ele>33.55</ele>
        <time>2020-07-10T11:46:32Z</time>
      </trkpt>
      <trkpt lat="47.82453" lon="-3.42822">
        <ele>33.83</ele>
        <time>2020-07-10T11:46:33Z</time>
      </trkpt>
      <trkpt lat="47.82456" lon="-3.4282">
        <ele>34.08</ele>
        <time>2020-07-10T11:46:34Z</time>
      </trkpt>
      <trkpt lat="47.82458" lon="-3.42818">
        <ele>34.3</ele>
        <time>2020-07-10T11:46:35Z</time>
      </trkpt>
      <trkpt lat="47.8246" lon="-3.42817">
        <ele>34.43</ele>
        <time>2020-07-10T11:46:36Z</time>
      </trkpt>
      <trkpt lat="47.82463" lon="-3.42817">
        <ele>34.47</ele>
        <time>2020-07-10T11:46:37Z</time>
      </trkpt>
      <trkpt lat="47.82465" lon="-3.42818">
        <ele>34.35</ele>
        <time>2020-07-10T11:46:38Z</time>
      </trkpt>
      <trkpt lat="47.82466" lon="-3.4282">
        <ele>34.12</ele>
        <time>2020-07-10T11:46:39Z</time>
      </trkpt>
      <trkpt lat="47.82467" lon="-3.42824">
        <ele>33.83</ele>
        <time>2020-07-10T11:46:40Z</time>
      </trkpt>
      <trkpt lat="47.82467" lon="-3.42827">
        <ele>33.54</ele>
        <time>2020-07-10T11:46:41Z</time>
      </trkpt>
      <trkpt lat="47.82467" lon="-3.4283">
        <ele>33.25</ele>
        <time>2020-07-10T11:46:42Z</time>
      </trkpt>
      <trkpt lat="47.82466" lon="-3.42834">
        <ele>32.91</ele>
        <time>2020-07-10T11:46:43Z</time>
      </trkpt>
      <trkpt lat="47.82465" lon="-3.42837">
        <ele>32.6</ele>
        <time>2020-07-10T11:46:44Z</time>
      </trkpt>
      <trkpt lat="47.82464" lon="-3.42841">
        <ele>32.28</ele>
        <time>2020-07-10T11:46:45Z</time>
      </trkpt>
      <trkpt lat="47.82462" lon="-3.42846">
        <ele>31.86</ele>
        <time>2020-07-10T11:46:46Z</time>
      </trkpt>
      <trkpt lat="47.82461" lon="-3.42852">
        <ele>31.35</ele>
        <time>2020-07-10T11:46:47Z</time>
      </trkpt>
      <trkpt lat="47.82459" lon="-3.42859">
        <ele>30.64</ele>
        <time>2020-07-10T11:46:48Z</time>
      </trkpt>
      <trkpt lat="47.82458" lon="-3.42864">
        <ele>30.09</ele>
        <time>2020-07-10T11:46:49Z</time>
      </trkpt>
      <trkpt lat="47.82456" lon="-3.42869">
        <ele>29.64</ele>
        <time>2020-07-10T11:46:50Z</time>
      </trkpt>
      <trkpt lat="47.82454" lon="-3.42873">
        <ele>29.26</ele>
        <time>2020-07-10T11:46:51Z</time>
      </trkpt>
      <trkpt lat="47.82453" lon="-3.42877">
        <ele>28.95</ele>
        <time>2020-07-10T11:46:52Z</time>
      </trkpt>
      <trkpt lat="47.82452" lon="-3.42881">
        <ele>28.67</ele>
        <time>2020-07-10T11:46:53Z</time>
      </trkpt>
      <trkpt lat="47.82452" lon="-3.42886">
        <ele>28.47</ele>
        <time>2020-07-10T11:46:54Z</time>
      </trkpt>
      <trkpt lat="47.82452" lon="-3.42889">
        <ele>28.38</ele>
        <time>2020-07-10T11:46:55Z</time>
      </trkpt>
      <trkpt lat="47.82451" lon="-3.42891">
        <ele>28.3</ele>
        <time>2020-07-10T11:46:56Z</time>
      </trkpt>
      <trkpt lat="47.8245" lon="-3.42893">
        <ele>28.21</ele>
        <time>2020-07-10T11:46:57Z</time>
      </trkpt>
      <trkpt lat="47.82449" lon="-3.42895">
        <ele>28.07</ele>
        <time>2020-07-10T11:46:58Z</time>
      </trkpt>
      <trkpt lat="47.82447" lon="-3.42897">
        <ele>27.9</ele>
        <time>2020-07-10T11:46:59Z</time>
      </trkpt>
      <trkpt lat="47.82446" lon="-3.42901">
        <ele>27.81</ele>
        <time>2020-07-10T11:47:00Z</time>
      </trkpt>
      <trkpt lat="47.82446" lon="-3.42904">
        <ele>27.73</ele>
        <time>2020-07-10T11:47:01Z</time>
      </trkpt>
      <trkpt lat="47.82444" lon="-3.42906">
        <ele>27.64</ele>
        <time>2020-07-10T11:47:02Z</time>
      </trkpt>
      <trkpt lat="47.82443" lon="-3.42909">
        <ele>27.55</ele>
        <time>2020-07-10T11:47:03Z</time>
      </trkpt>
      <trkpt lat="47.82442" lon="-3.4291">
        <ele>27.45</ele>
        <time>2020-07-10T11:47:04Z</time>
      </trkpt>
      <trkpt lat="47.82442" lon="-3.4291">
        <ele>27.43</ele>
        <time>2020-07-10T11:47:05Z</time>
      </trkpt>
      <trkpt lat="47.82442" lon="-3.42911">
        <ele>27.45</ele>
        <time>2020-07-10T11:47:06Z</time>
      </trkpt>
      <trkpt lat="47.82442" lon="-3.42911">
        <ele>27.45</ele>
        <time>2020-07-10T11:47:07Z</time>
      </trkpt>
      <trkpt lat="47.82442" lon="-3.42911">
        <ele>27.46</ele>
        <time>2020-07-10T11:47:08Z</time>
      </trkpt>
      <trkpt lat="47.82442" lon="-3.42911">
        <ele>27.46</ele>
        <time>2020-07-10T11:47:09Z</time>
      </trkpt>
      <trkpt lat="47.82442" lon="-3.42911">
        <ele>27.46</ele>
        <time>2020-07-10T11:47:10Z</time>
      </trkpt>
      <trkpt lat="47.82442" lon="-3.42911">
        <ele>27.46</ele>
        <time>2020-07-10T11:47:11Z</time>
      </trkpt>
      <trkpt lat="47.82442" lon="-3.42911">
        <ele>27.46</ele>
        <time>2020-07-10T11:47:12Z</time>
      </trkpt>
      <trkpt lat="47.82442" lon="-3.42911">
        <ele>27.46</ele>
        <time>2020-07-10T11:47:13Z</time>
      </trkpt>
      <trkpt lat="47.82442" lon="-3.42911">
        <ele>27.46</ele>
        <time>2020-07-10T11:47:14Z</time>
      </trkpt>
      <trkpt lat="47.82442" lon="-3.42911">
        <ele>27.46</ele>
        <time>2020-07-10T11:47:15Z</time>
      </trkpt>
      <trkpt lat="47.82442" lon="-3.42911">
        <ele>27.46</ele>
        <time>2020-07-10T11:47:16Z</time>
      </trkpt>
      <trkpt lat="47.82442" lon="-3.42911">
        <ele>27.46</ele>
        <time>2020-07-10T11:47:17Z</time>
      </trkpt>
      <trkpt lat="47.82442" lon="-3.42911">
        <ele>27.46</ele>
        <time>2020-07-10T11:47:18Z</time>
      </trkpt>
      <trkpt lat="47.82442" lon="-3.42911">
        <ele>27.46</ele>
        <time>2020-07-10T11:47:19Z</time>
      </trkpt>
      <trkpt lat="47.82442" lon="-3.42911">
        <ele>27.46</ele>
        <time>2020-07-10T11:47:20Z</time>
      </trkpt>
      <trkpt lat="47.82442" lon="-3.42911">
        <ele>27.46</ele>
        <time>2020-07-10T11:47:21Z</time>
      </trkpt>
      <trkpt lat="47.82442" lon="-3.42911">
        <ele>27.46</ele>
        <time>2020-07-10T11:47:22Z</time>
      </trkpt>
      <trkpt lat="47.82442" lon="-3.42911">
        <ele>27.46</ele>
        <time>2020-07-10T11:47:23Z</time>
      </trkpt>
      <trkpt lat="47.82445" lon="-3.42906">
        <ele>27.6</ele>
        <time>2020-07-10T11:47:24Z</time>
      </trkpt>
      <trkpt lat="47.82445" lon="-3.42903">
        <ele>27.65</ele>
        <time>2020-07-10T11:47:25Z</time>
      </trkpt>
      <trkpt lat="47.82446" lon="-3.42902">
        <ele>27.72</ele>
        <time>2020-07-10T11:47:26Z</time>
      </trkpt>
      <trkpt lat="47.82448" lon="-3.42901">
        <ele>27.89</ele>
        <time>2020-07-10T11:47:27Z</time>
      </trkpt>
      <trkpt lat="47.82449" lon="-3.429">
        <ele>28.05</ele>
        <time>2020-07-10T11:47:28Z</time>
      </trkpt>
      <trkpt lat="47.8245" lon="-3.42901">
        <ele>28.23</ele>
        <time>2020-07-10T11:47:29Z</time>
      </trkpt>
      <trkpt lat="47.8245" lon="-3.42903">
        <ele>28.41</ele>
        <time>2020-07-10T11:47:30Z</time>
      </trkpt>
      <trkpt lat="47.82451" lon="-3.42905">
        <ele>28.56</ele>
        <time>2020-07-10T11:47:31Z</time>
      </trkpt>
      <trkpt lat="47.82452" lon="-3.42908">
        <ele>28.81</ele>
        <time>2020-07-10T11:47:32Z</time>
      </trkpt>
      <trkpt lat="47.82454" lon="-3.4291">
        <ele>29.16</ele>
        <time>2020-07-10T11:47:33Z</time>
      </trkpt>
      <trkpt lat="47.82456" lon="-3.42912">
        <ele>29.48</ele>
        <time>2020-07-10T11:47:34Z</time>
      </trkpt>
      <trkpt lat="47.82459" lon="-3.42914">
        <ele>29.84</ele>
        <time>2020-07-10T11:47:35Z</time>
      </trkpt>
      <trkpt lat="47.82461" lon="-3.42915">
        <ele>30.22</ele>
        <time>2020-07-10T11:47:36Z</time>
      </trkpt>
      <trkpt lat="47.82463" lon="-3.42916">
        <ele>30.56</ele>
        <time>2020-07-10T11:47:37Z</time>
      </trkpt>
      <trkpt lat="47.82465" lon="-3.42916">
        <ele>30.87</ele>
        <time>2020-07-10T11:47:38Z</time>
      </trkpt>
      <trkpt lat="47.82468" lon="-3.42916">
        <ele>31.2</ele>
        <time>2020-07-10T11:47:39Z</time>
      </trkpt>
      <trkpt lat="47.8247" lon="-3.42917">
        <ele>31.52</ele>
        <time>2020-07-10T11:47:40Z</time>
      </trkpt>
      <trkpt lat="47.82471" lon="-3.42918">
        <ele>31.66</ele>
        <time>2020-07-10T11:47:41Z</time>
      </trkpt>
      <trkpt lat="47.82473" lon="-3.42919">
        <ele>31.78</ele>
        <time>2020-07-10T11:47:42Z</time>
      </trkpt>
      <trkpt lat="47.82474" lon="-3.4292">
        <ele>31.85</ele>
        <time>2020-07-10T11:47:43Z</time>
      </trkpt>
      <trkpt lat="47.82475" lon="-3.42922">
        <ele>31.89</ele>
        <time>2020-07-10T11:47:44Z</time>
      </trkpt>
      <trkpt lat="47.82477" lon="-3.42922">
        <ele>32.03</ele>
        <time>2020-07-10T11:47:45Z</time>
      </trkpt>
      <trkpt lat="47.82477" lon="-3.42923">
        <ele>32.11</ele>
        <time>2020-07-10T11:47:46Z</time>
      </trkpt>
      <trkpt lat="47.82477" lon="-3.42922">
        <ele>32.16</ele>
        <time>2020-07-10T11:47:47Z</time>
      </trkpt>
      <trkpt lat="47.82477" lon="-3.42922">
        <ele>32.18</ele>
        <time>2020-07-10T11:47:48Z</time>
      </trkpt>
      <trkpt lat="47.82477" lon="-3.42922">
        <ele>32.18</ele>
        <time>2020-07-10T11:47:49Z</time>
      </trkpt>
      <trkpt lat="47.82477" lon="-3.42922">
        <ele>32.19</ele>
        <time>2020-07-10T11:47:50Z</time>
      </trkpt>
      <trkpt lat="47.82477" lon="-3.42922">
        <ele>32.19</ele>
        <time>2020-07-10T11:47:51Z</time>
      </trkpt>
      <trkpt lat="47.82477" lon="-3.42922">
        <ele>32.19</ele>
        <time>2020-07-10T11:47:52Z</time>
      </trkpt>
      <trkpt lat="47.82477" lon="-3.42922">
        <ele>32.19</ele>
        <time>2020-07-10T11:47:53Z</time>
      </trkpt>
      <trkpt lat="47.82477" lon="-3.42922">
        <ele>32.19</ele>
        <time>2020-07-10T11:47:54Z</time>
      </trkpt>
      <trkpt lat="47.82477" lon="-3.42922">
        <ele>32.19</ele>
        <time>2020-07-10T11:47:55Z</time>
      </trkpt>
      <trkpt lat="47.82476" lon="-3.42919">
        <ele>32.25</ele>
        <time>2020-07-10T11:47:56Z</time>
      </trkpt>
      <trkpt lat="47.82475" lon="-3.42918">
        <ele>32.25</ele>
        <time>2020-07-10T11:47:57Z</time>
      </trkpt>
      <trkpt lat="47.82473" lon="-3.42917">
        <ele>32.15</ele>
        <time>2020-07-10T11:47:58Z</time>
      </trkpt>
      <trkpt lat="47.82472" lon="-3.42917">
        <ele>31.99</ele>
        <time>2020-07-10T11:47:59Z</time>
      </trkpt>
      <trkpt lat="47.8247" lon="-3.42917">
        <ele>31.71</ele>
        <time>2020-07-10T11:48:00Z</time>
      </trkpt>
      <trkpt lat="47.82467" lon="-3.42917">
        <ele>31.42</ele>
        <time>2020-07-10T11:48:01Z</time>
      </trkpt>
      <trkpt lat="47.82464" lon="-3.42915">
        <ele>31.04</ele>
        <time>2020-07-10T11:48:02Z</time>
      </trkpt>
      <trkpt lat="47.82462" lon="-3.42912">
        <ele>30.66</ele>
        <time>2020-07-10T11:48:03Z</time>
      </trkpt>
      <trkpt lat="47.8246" lon="-3.42908">
        <ele>30.21</ele>
        <time>2020-07-10T11:48:04Z</time>
      </trkpt>
      <trkpt lat="47.82457" lon="-3.42903">
        <ele>29.8</ele>
        <time>2020-07-10T11:48:05Z</time>
      </trkpt>
      <trkpt lat="47.82456" lon="-3.42899">
        <ele>29.41</ele>
        <time>2020-07-10T11:48:06Z</time>
      </trkpt>
      <trkpt lat="47.82455" lon="-3.42895">
        <ele>29.13</ele>
        <time>2020-07-10T11:48:07Z</time>
      </trkpt>
      <trkpt lat="47.82455" lon="-3.42891">
        <ele>28.97</ele>
        <time>2020-07-10T11:48:08Z</time>
      </trkpt>
      <trkpt lat="47.82455" lon="-3.42888">
        <ele>28.96</ele>
        <time>2020-07-10T11:48:09Z</time>
      </trkpt>
      <trkpt lat="47.82456" lon="-3.42884">
        <ele>29.15</ele>
        <time>2020-07-10T11:48:10Z</time>
      </trkpt>
      <trkpt lat="47.82457" lon="-3.42882">
        <ele>29.35</ele>
        <time>2020-07-10T11:48:11Z</time>
      </trkpt>
      <trkpt lat="47.82458" lon="-3.42878">
        <ele>29.59</ele>
        <time>2020-07-10T11:48:12Z</time>
      </trkpt>
      <trkpt lat="47.8246" lon="-3.42873">
        <ele>29.88</ele>
        <time>2020-07-10T11:48:13Z</time>
      </trkpt>
      <trkpt lat="47.82461" lon="-3.42868">
        <ele>30.16</ele>
        <time>2020-07-10T11:48:14Z</time>
      </trkpt>
      <trkpt lat="47.82462" lon="-3.42864">
        <ele>30.41</ele>
        <time>2020-07-10T11:48:15Z</time>
      </trkpt>
      <trkpt lat="47.82463" lon="-3.42859">
        <ele>30.69</ele>
        <time>2020-07-10T11:48:16Z</time>
      </trkpt>
      <trkpt lat="47.82464" lon="-3.42855">
        <ele>31.05</ele>
        <time>2020-07-10T11:48:17Z</time>
      </trkpt>
      <trkpt lat="47.82465" lon="-3.42851">
        <ele>31.43</ele>
        <time>2020-07-10T11:48:18Z</time>
      </trkpt>
      <trkpt lat="47.82466" lon="-3.42847">
        <ele>31.77</ele>
        <time>2020-07-10T11:48:19Z</time>
      </trkpt>
      <trkpt lat="47.82467" lon="-3.42843">
        <ele>32.13</ele>
        <time>2020-07-10T11:48:20Z</time>
      </trkpt>
      <trkpt lat="47.82469" lon="-3.42839">
        <ele>32.47</ele>
        <time>2020-07-10T11:48:21Z</time>
      </trkpt>
      <trkpt lat="47.8247" lon="-3.42834">
        <ele>32.75</ele>
        <time>2020-07-10T11:48:22Z</time>
      </trkpt>
      <trkpt lat="47.8247" lon="-3.4283">
        <ele>33.05</ele>
        <time>2020-07-10T11:48:23Z</time>
      </trkpt>
      <trkpt lat="47.82472" lon="-3.42826">
        <ele>33.39</ele>
        <time>2020-07-10T11:48:24Z</time>
      </trkpt>
      <trkpt lat="47.82472" lon="-3.42822">
        <ele>33.69</ele>
        <time>2020-07-10T11:48:25Z</time>
      </trkpt>
      <trkpt lat="47.82473" lon="-3.42818">
        <ele>34</ele>
        <time>2020-07-10T11:48:26Z</time>
      </trkpt>
      <trkpt lat="47.82475" lon="-3.42815">
        <ele>34.25</ele>
        <time>2020-07-10T11:48:27Z</time>
      </trkpt>
      <trkpt lat="47.82476" lon="-3.42812">
        <ele>34.41</ele>
        <time>2020-07-10T11:48:28Z</time>
      </trkpt>
      <trkpt lat="47.82477" lon="-3.4281">
        <ele>34.55</ele>
        <time>2020-07-10T11:48:29Z</time>
      </trkpt>
      <trkpt lat="47.82478" lon="-3.42809">
        <ele>34.59</ele>
        <time>2020-07-10T11:48:30Z</time>
      </trkpt>
      <trkpt lat="47.82479" lon="-3.42809">
        <ele>34.59</ele>
        <time>2020-07-10T11:48:31Z</time>
      </trkpt>
      <trkpt lat="47.82479" lon="-3.42809">
        <ele>34.59</ele>
        <time>2020-07-10T11:48:32Z</time>
      </trkpt>
      <trkpt lat="47.8248" lon="-3.42808">
        <ele>34.6</ele>
        <time>2020-07-10T11:48:33Z</time>
      </trkpt>
      <trkpt lat="47.8248" lon="-3.42808">
        <ele>34.6</ele>
        <time>2020-07-10T11:48:34Z</time>
      </trkpt>
      <trkpt lat="47.8248" lon="-3.42808">
        <ele>34.6</ele>
        <time>2020-07-10T11:48:35Z</time>
      </trkpt>
      <trkpt lat="47.8248" lon="-3.42808">
        <ele>34.6</ele>
        <time>2020-07-10T11:48:36Z</time>
      </trkpt>
      <trkpt lat="47.8248" lon="-3.42808">
        <ele>34.6</ele>
        <time>2020-07-10T11:48:37Z</time>
      </trkpt>
      <trkpt lat="47.8248" lon="-3.42808">
        <ele>34.6</ele>
        <time>2020-07-10T11:48:38Z</time>
      </trkpt>
      <trkpt lat="47.8248" lon="-3.42808">
        <ele>34.6</ele>
        <time>2020-07-10T11:48:39Z</time>
      </trkpt>
      <trkpt lat="47.8248" lon="-3.42808">
        <ele>34.6</ele>
        <time>2020-07-10T11:48:40Z</time>
      </trkpt>
      <trkpt lat="47.8248" lon="-3.42808">
        <ele>34.6</ele>
        <time>2020-07-10T11:48:41Z</time>
      </trkpt>
      <trkpt lat="47.8248" lon="-3.42808">
        <ele>34.6</ele>
        <time>2020-07-10T11:48:42Z</time>
      </trkpt>
      <trkpt lat="47.8248" lon="-3.42808">
        <ele>34.6</ele>
        <time>2020-07-10T11:48:43Z</time>
      </trkpt>
      <trkpt lat="47.82489" lon="-3.42814">
        <ele>34.42</ele>
        <time>2020-07-10T11:48:44Z</time>
      </trkpt>
      <trkpt lat="47.82489" lon="-3.42816">
        <ele>34.35</ele>
        <time>2020-07-10T11:48:45Z</time>
      </trkpt>
      <trkpt lat="47.82489" lon="-3.42818">
        <ele>34.33</ele>
        <time>2020-07-10T11:48:46Z</time>
      </trkpt>
      <trkpt lat="47.82489" lon="-3.42819">
        <ele>34.31</ele>
        <time>2020-07-10T11:48:47Z</time>
      </trkpt>
      <trkpt lat="47.82488" lon="-3.42821">
        <ele>34.27</ele>
        <time>2020-07-10T11:48:48Z</time>
      </trkpt>
      <trkpt lat="47.82487" lon="-3.42822">
        <ele>34.24</ele>
        <time>2020-07-10T11:48:49Z</time>
      </trkpt>
      <trkpt lat="47.82487" lon="-3.42825">
        <ele>34.22</ele>
        <time>2020-07-10T11:48:50Z</time>
      </trkpt>
      <trkpt lat="47.82486" lon="-3.42828">
        <ele>34.13</ele>
        <time>2020-07-10T11:48:51Z</time>
      </trkpt>
      <trkpt lat="47.82484" lon="-3.42834">
        <ele>33.95</ele>
        <time>2020-07-10T11:48:52Z</time>
      </trkpt>
      <trkpt lat="47.82483" lon="-3.42837">
        <ele>33.78</ele>
        <time>2020-07-10T11:48:53Z</time>
      </trkpt>
      <trkpt lat="47.82481" lon="-3.42839">
        <ele>33.62</ele>
        <time>2020-07-10T11:48:54Z</time>
      </trkpt>
      <trkpt lat="47.82479" lon="-3.42842">
        <ele>33.41</ele>
        <time>2020-07-10T11:48:55Z</time>
      </trkpt>
      <trkpt lat="47.82477" lon="-3.42847">
        <ele>33.17</ele>
        <time>2020-07-10T11:48:56Z</time>
      </trkpt>
      <trkpt lat="47.82475" lon="-3.42851">
        <ele>32.81</ele>
        <time>2020-07-10T11:48:57Z</time>
      </trkpt>
      <trkpt lat="47.82473" lon="-3.42856">
        <ele>32.43</ele>
        <time>2020-07-10T11:48:58Z</time>
      </trkpt>
      <trkpt lat="47.82471" lon="-3.4286">
        <ele>32.01</ele>
        <time>2020-07-10T11:48:59Z</time>
      </trkpt>
      <trkpt lat="47.82469" lon="-3.42864">
        <ele>31.67</ele>
        <time>2020-07-10T11:49:00Z</time>
      </trkpt>
      <trkpt lat="47.82468" lon="-3.42868">
        <ele>31.41</ele>
        <time>2020-07-10T11:49:01Z</time>
      </trkpt>
      <trkpt lat="47.82467" lon="-3.42871">
        <ele>31.23</ele>
        <time>2020-07-10T11:49:02Z</time>
      </trkpt>
      <trkpt lat="47.82467" lon="-3.42875">
        <ele>31.21</ele>
        <time>2020-07-10T11:49:03Z</time>
      </trkpt>
      <trkpt lat="47.82469" lon="-3.42879">
        <ele>31.37</ele>
        <time>2020-07-10T11:49:04Z</time>
      </trkpt>
      <trkpt lat="47.8247" lon="-3.42884">
        <ele>31.54</ele>
        <time>2020-07-10T11:49:05Z</time>
      </trkpt>
      <trkpt lat="47.82471" lon="-3.42888">
        <ele>31.75</ele>
        <time>2020-07-10T11:49:06Z</time>
      </trkpt>
      <trkpt lat="47.82473" lon="-3.42893">
        <ele>31.95</ele>
        <time>2020-07-10T11:49:07Z</time>
      </trkpt>
      <trkpt lat="47.82474" lon="-3.42897">
        <ele>32.13</ele>
        <time>2020-07-10T11:49:08Z</time>
      </trkpt>
      <trkpt lat="47.82475" lon="-3.42902">
        <ele>32.35</ele>
        <time>2020-07-10T11:49:09Z</time>
      </trkpt>
      <trkpt lat="47.82477" lon="-3.42907">
        <ele>32.64</ele>
        <time>2020-07-10T11:49:10Z</time>
      </trkpt>
      <trkpt lat="47.82479" lon="-3.42911">
        <ele>32.92</ele>
        <time>2020-07-10T11:49:11Z</time>
      </trkpt>
      <trkpt lat="47.82481" lon="-3.42915">
        <ele>33.18</ele>
        <time>2020-07-10T11:49:12Z</time>
      </trkpt>
      <trkpt lat="47.82483" lon="-3.42919">
        <ele>33.25</ele>
        <time>2020-07-10T11:49:13Z</time>
      </trkpt>
      <trkpt lat="47.82483" lon="-3.42923">
        <ele>33.13</ele>
        <time>2020-07-10T11:49:14Z</time>
      </trkpt>
      <trkpt lat="47.82484" lon="-3.42926">
        <ele>32.87</ele>
        <time>2020-07-10T11:49:15Z</time>
      </trkpt>
      <trkpt lat="47.82484" lon="-3.4293">
        <ele>32.61</ele>
        <time>2020-07-10T11:49:16Z</time>
      </trkpt>
      <trkpt lat="47.82485" lon="-3.42933">
        <ele>32.45</ele>
        <time>2020-07-10T11:49:17Z</time>
      </trkpt>
      <trkpt lat="47.82487" lon="-3.42934">
        <ele>32.55</ele>
        <time>2020-07-10T11:49:18Z</time>
      </trkpt>
      <trkpt lat="47.82489" lon="-3.42935">
        <ele>32.74</ele>
        <time>2020-07-10T11:49:19Z</time>
      </trkpt>
      <trkpt lat="47.8249" lon="-3.42936">
        <ele>32.92</ele>
        <time>2020-07-10T11:49:20Z</time>
      </trkpt>
      <trkpt lat="47.82492" lon="-3.42938">
        <ele>33.08</ele>
        <time>2020-07-10T11:49:21Z</time>
      </trkpt>
      <trkpt lat="47.82493" lon="-3.42942">
        <ele>33.01</ele>
        <time>2020-07-10T11:49:22Z</time>
      </trkpt>
      <trkpt lat="47.82494" lon="-3.42945">
        <ele>32.96</ele>
        <time>2020-07-10T11:49:23Z</time>
      </trkpt>
      <trkpt lat="47.82496" lon="-3.42946">
        <ele>33.07</ele>
        <time>2020-07-10T11:49:24Z</time>
      </trkpt>
      <trkpt lat="47.82498" lon="-3.42947">
        <ele>33.3</ele>
        <time>2020-07-10T11:49:25Z</time>
      </trkpt>
      <trkpt lat="47.825" lon="-3.42949">
        <ele>33.55</ele>
        <time>2020-07-10T11:49:26Z</time>
      </trkpt>
      <trkpt lat="47.82501" lon="-3.4295">
        <ele>33.7</ele>
        <time>2020-07-10T11:49:27Z</time>
      </trkpt>
      <trkpt lat="47.82503" lon="-3.4295">
        <ele>33.93</ele>
        <time>2020-07-10T11:49:28Z</time>
      </trkpt>
      <trkpt lat="47.82505" lon="-3.4295">
        <ele>34.19</ele>
        <time>2020-07-10T11:49:29Z</time>
      </trkpt>
      <trkpt lat="47.82507" lon="-3.4295">
        <ele>34.49</ele>
        <time>2020-07-10T11:49:30Z</time>
      </trkpt>
      <trkpt lat="47.82509" lon="-3.42949">
        <ele>34.84</ele>
        <time>2020-07-10T11:49:31Z</time>
      </trkpt>
      <trkpt lat="47.8251" lon="-3.42949">
        <ele>35.05</ele>
        <time>2020-07-10T11:49:32Z</time>
      </trkpt>
      <trkpt lat="47.82512" lon="-3.42949">
        <ele>35.33</ele>
        <time>2020-07-10T11:49:33Z</time>
      </trkpt>
      <trkpt lat="47.82514" lon="-3.42948">
        <ele>35.69</ele>
        <time>2020-07-10T11:49:34Z</time>
      </trkpt>
      <trkpt lat="47.82516" lon="-3.42947">
        <ele>36.04</ele>
        <time>2020-07-10T11:49:35Z</time>
      </trkpt>
      <trkpt lat="47.82518" lon="-3.42946">
        <ele>36.34</ele>
        <time>2020-07-10T11:49:36Z</time>
      </trkpt>
      <trkpt lat="47.82519" lon="-3.42945">
        <ele>36.6</ele>
        <time>2020-07-10T11:49:37Z</time>
      </trkpt>
      <trkpt lat="47.82521" lon="-3.42947">
        <ele>36.85</ele>
        <time>2020-07-10T11:49:38Z</time>
      </trkpt>
      <trkpt lat="47.82522" lon="-3.42948">
        <ele>37.01</ele>
        <time>2020-07-10T11:49:39Z</time>
      </trkpt>
      <trkpt lat="47.82525" lon="-3.4295">
        <ele>37.21</ele>
        <time>2020-07-10T11:49:40Z</time>
      </trkpt>
      <trkpt lat="47.82526" lon="-3.42953">
        <ele>37.38</ele>
        <time>2020-07-10T11:49:41Z</time>
      </trkpt>
      <trkpt lat="47.82528" lon="-3.42955">
        <ele>37.54</ele>
        <time>2020-07-10T11:49:42Z</time>
      </trkpt>
      <trkpt lat="47.82529" lon="-3.42957">
        <ele>37.68</ele>
        <time>2020-07-10T11:49:43Z</time>
      </trkpt>
      <trkpt lat="47.82532" lon="-3.4296">
        <ele>37.83</ele>
        <time>2020-07-10T11:49:44Z</time>
      </trkpt>
      <trkpt lat="47.82535" lon="-3.42963">
        <ele>37.99</ele>
        <time>2020-07-10T11:49:45Z</time>
      </trkpt>
      <trkpt lat="47.82537" lon="-3.42967">
        <ele>38.13</ele>
        <time>2020-07-10T11:49:46Z</time>
      </trkpt>
      <trkpt lat="47.82538" lon="-3.4297">
        <ele>38.21</ele>
        <time>2020-07-10T11:49:47Z</time>
      </trkpt>
      <trkpt lat="47.8254" lon="-3.42973">
        <ele>38.29</ele>
        <time>2020-07-10T11:49:48Z</time>
      </trkpt>
      <trkpt lat="47.82541" lon="-3.42977">
        <ele>38.37</ele>
        <time>2020-07-10T11:49:49Z</time>
      </trkpt>
      <trkpt lat="47.82542" lon="-3.42981">
        <ele>38.49</ele>
        <time>2020-07-10T11:49:50Z</time>
      </trkpt>
      <trkpt lat="47.82544" lon="-3.42985">
        <ele>38.66</ele>
        <time>2020-07-10T11:49:51Z</time>
      </trkpt>
      <trkpt lat="47.82546" lon="-3.42987">
        <ele>38.89</ele>
        <time>2020-07-10T11:49:52Z</time>
      </trkpt>
      <trkpt lat="47.8255" lon="-3.42989">
        <ele>39.23</ele>
        <time>2020-07-10T11:49:53Z</time>
      </trkpt>
      <trkpt lat="47.82553" lon="-3.42991">
        <ele>39.56</ele>
        <time>2020-07-10T11:49:54Z</time>
      </trkpt>
      <trkpt lat="47.82555" lon="-3.42993">
        <ele>39.87</ele>
        <time>2020-07-10T11:49:55Z</time>
      </trkpt>
      <trkpt lat="47.82558" lon="-3.42996">
        <ele>40.08</ele>
        <time>2020-07-10T11:49:56Z</time>
      </trkpt>
      <trkpt lat="47.8256" lon="-3.42999">
        <ele>40.24</ele>
        <time>2020-07-10T11:49:57Z</time>
      </trkpt>
      <trkpt lat="47.82562" lon="-3.43003">
        <ele>40.37</ele>
        <time>2020-07-10T11:49:58Z</time>
      </trkpt>
      <trkpt lat="47.82564" lon="-3.43007">
        <ele>40.48</ele>
        <time>2020-07-10T11:49:59Z</time>
      </trkpt>
      <trkpt lat="47.82565" lon="-3.43011">
        <ele>40.54</ele>
        <time>2020-07-10T11:50:00Z</time>
      </trkpt>
      <trkpt lat="47.82565" lon="-3.43014">
        <ele>40.53</ele>
        <time>2020-07-10T11:50:01Z</time>
      </trkpt>
      <trkpt lat="47.82566" lon="-3.43018">
        <ele>40.51</ele>
        <time>2020-07-10T11:50:02Z</time>
      </trkpt>
      <trkpt lat="47.82566" lon="-3.43023">
        <ele>40.45</ele>
        <time>2020-07-10T11:50:03Z</time>
      </trkpt>
      <trkpt lat="47.82566" lon="-3.43027">
        <ele>40.42</ele>
        <time>2020-07-10T11:50:04Z</time>
      </trkpt>
      <trkpt lat="47.82567" lon="-3.43031">
        <ele>40.41</ele>
        <time>2020-07-10T11:50:05Z</time>
      </trkpt>
      <trkpt lat="47.82567" lon="-3.43035">
        <ele>40.4</ele>
        <time>2020-07-10T11:50:06Z</time>
      </trkpt>
      <trkpt lat="47.82566" lon="-3.4304">
        <ele>40.37</ele>
        <time>2020-07-10T11:50:07Z</time>
      </trkpt>
      <trkpt lat="47.82565" lon="-3.43045">
        <ele>40.35</ele>
        <time>2020-07-10T11:50:08Z</time>
      </trkpt>
      <trkpt lat="47.82565" lon="-3.4305">
        <ele>40.33</ele>
        <time>2020-07-10T11:50:09Z</time>
      </trkpt>
      <trkpt lat="47.82564" lon="-3.43056">
        <ele>40.32</ele>
        <time>2020-07-10T11:50:10Z</time>
      </trkpt>
      <trkpt lat="47.82564" lon="-3.43061">
        <ele>40.3</ele>
        <time>2020-07-10T11:50:11Z</time>
      </trkpt>
      <trkpt lat="47.82562" lon="-3.43066">
        <ele>40.26</ele>
        <time>2020-07-10T11:50:12Z</time>
      </trkpt>
      <trkpt lat="47.82562" lon="-3.43071">
        <ele>40.24</ele>
        <time>2020-07-10T11:50:13Z</time>
      </trkpt>
      <trkpt lat="47.82561" lon="-3.43076">
        <ele>40.22</ele>
        <time>2020-07-10T11:50:14Z</time>
      </trkpt>
      <trkpt lat="47.82561" lon="-3.43081">
        <ele>40.21</ele>
        <time>2020-07-10T11:50:15Z</time>
      </trkpt>
      <trkpt lat="47.82562" lon="-3.43087">
        <ele>40.28</ele>
        <time>2020-07-10T11:50:16Z</time>
      </trkpt>
      <trkpt lat="47.82561" lon="-3.43092">
        <ele>40.4</ele>
        <time>2020-07-10T11:50:17Z</time>
      </trkpt>
      <trkpt lat="47.8256" lon="-3.43098">
        <ele>40.53</ele>
        <time>2020-07-10T11:50:18Z</time>
      </trkpt>
      <trkpt lat="47.82559" lon="-3.43103">
        <ele>40.67</ele>
        <time>2020-07-10T11:50:19Z</time>
      </trkpt>
      <trkpt lat="47.82558" lon="-3.43107">
        <ele>40.81</ele>
        <time>2020-07-10T11:50:20Z</time>
      </trkpt>
      <trkpt lat="47.82559" lon="-3.43113">
        <ele>40.94</ele>
        <time>2020-07-10T11:50:21Z</time>
      </trkpt>
      <trkpt lat="47.82559" lon="-3.43118">
        <ele>40.96</ele>
        <time>2020-07-10T11:50:22Z</time>
      </trkpt>
      <trkpt lat="47.82559" lon="-3.43124">
        <ele>40.94</ele>
        <time>2020-07-10T11:50:23Z</time>
      </trkpt>
      <trkpt lat="47.82559" lon="-3.43129">
        <ele>40.92</ele>
        <time>2020-07-10T11:50:24Z</time>
      </trkpt>
      <trkpt lat="47.82559" lon="-3.43135">
        <ele>40.89</ele>
        <time>2020-07-10T11:50:25Z</time>
      </trkpt>
      <trkpt lat="47.82559" lon="-3.43141">
        <ele>40.82</ele>
        <time>2020-07-10T11:50:26Z</time>
      </trkpt>
      <trkpt lat="47.82559" lon="-3.43146">
        <ele>40.7</ele>
        <time>2020-07-10T11:50:27Z</time>
      </trkpt>
      <trkpt lat="47.82559" lon="-3.43151">
        <ele>40.56</ele>
        <time>2020-07-10T11:50:28Z</time>
      </trkpt>
      <trkpt lat="47.82557" lon="-3.43155">
        <ele>40.45</ele>
        <time>2020-07-10T11:50:29Z</time>
      </trkpt>
      <trkpt lat="47.82555" lon="-3.43159">
        <ele>40.32</ele>
        <time>2020-07-10T11:50:30Z</time>
      </trkpt>
      <trkpt lat="47.82554" lon="-3.43165">
        <ele>40.01</ele>
        <time>2020-07-10T11:50:31Z</time>
      </trkpt>
      <trkpt lat="47.82554" lon="-3.4317">
        <ele>39.73</ele>
        <time>2020-07-10T11:50:32Z</time>
      </trkpt>
      <trkpt lat="47.82554" lon="-3.43176">
        <ele>39.53</ele>
        <time>2020-07-10T11:50:33Z</time>
      </trkpt>
      <trkpt lat="47.82555" lon="-3.43181">
        <ele>39.42</ele>
        <time>2020-07-10T11:50:34Z</time>
      </trkpt>
      <trkpt lat="47.82556" lon="-3.43186">
        <ele>39.33</ele>
        <time>2020-07-10T11:50:35Z</time>
      </trkpt>
      <trkpt lat="47.82558" lon="-3.4319">
        <ele>39.22</ele>
        <time>2020-07-10T11:50:36Z</time>
      </trkpt>
      <trkpt lat="47.82561" lon="-3.43193">
        <ele>39.11</ele>
        <time>2020-07-10T11:50:37Z</time>
      </trkpt>
      <trkpt lat="47.82565" lon="-3.43195">
        <ele>39.03</ele>
        <time>2020-07-10T11:50:38Z</time>
      </trkpt>
      <trkpt lat="47.82568" lon="-3.43195">
        <ele>39</ele>
        <time>2020-07-10T11:50:39Z</time>
      </trkpt>
      <trkpt lat="47.82572" lon="-3.43197">
        <ele>38.98</ele>
        <time>2020-07-10T11:50:40Z</time>
      </trkpt>
      <trkpt lat="47.82574" lon="-3.43196">
        <ele>38.98</ele>
        <time>2020-07-10T11:50:41Z</time>
      </trkpt>
      <trkpt lat="47.82578" lon="-3.43196">
        <ele>38.98</ele>
        <time>2020-07-10T11:50:42Z</time>
      </trkpt>
      <trkpt lat="47.82581" lon="-3.43196">
        <ele>38.99</ele>
        <time>2020-07-10T11:50:43Z</time>
      </trkpt>
      <trkpt lat="47.82585" lon="-3.43197">
        <ele>39.04</ele>
        <time>2020-07-10T11:50:44Z</time>
      </trkpt>
      <trkpt lat="47.82589" lon="-3.43199">
        <ele>39.15</ele>
        <time>2020-07-10T11:50:45Z</time>
      </trkpt>
      <trkpt lat="47.82592" lon="-3.43201">
        <ele>39.28</ele>
        <time>2020-07-10T11:50:46Z</time>
      </trkpt>
      <trkpt lat="47.82597" lon="-3.43202">
        <ele>39.42</ele>
        <time>2020-07-10T11:50:47Z</time>
      </trkpt>
      <trkpt lat="47.82601" lon="-3.43204">
        <ele>39.56</ele>
        <time>2020-07-10T11:50:48Z</time>
      </trkpt>
      <trkpt lat="47.82604" lon="-3.43205">
        <ele>39.7</ele>
        <time>2020-07-10T11:50:49Z</time>
      </trkpt>
      <trkpt lat="47.82607" lon="-3.43207">
        <ele>39.82</ele>
        <time>2020-07-10T11:50:50Z</time>
      </trkpt>
      <trkpt lat="47.82612" lon="-3.43211">
        <ele>39.96</ele>
        <time>2020-07-10T11:50:51Z</time>
      </trkpt>
      <trkpt lat="47.82616" lon="-3.43214">
        <ele>40.1</ele>
        <time>2020-07-10T11:50:52Z</time>
      </trkpt>
      <trkpt lat="47.8262" lon="-3.43216">
        <ele>40.24</ele>
        <time>2020-07-10T11:50:53Z</time>
      </trkpt>
      <trkpt lat="47.82624" lon="-3.43218">
        <ele>40.38</ele>
        <time>2020-07-10T11:50:54Z</time>
      </trkpt>
      <trkpt lat="47.82627" lon="-3.4322">
        <ele>40.52</ele>
        <time>2020-07-10T11:50:55Z</time>
      </trkpt>
      <trkpt lat="47.82631" lon="-3.43221">
        <ele>40.67</ele>
        <time>2020-07-10T11:50:56Z</time>
      </trkpt>
      <trkpt lat="47.82636" lon="-3.43222">
        <ele>40.82</ele>
        <time>2020-07-10T11:50:57Z</time>
      </trkpt>
      <trkpt lat="47.82639" lon="-3.4322">
        <ele>40.95</ele>
        <time>2020-07-10T11:50:58Z</time>
      </trkpt>
      <trkpt lat="47.82641" lon="-3.43218">
        <ele>40.99</ele>
        <time>2020-07-10T11:50:59Z</time>
      </trkpt>
      <trkpt lat="47.82642" lon="-3.43214">
        <ele>41.02</ele>
        <time>2020-07-10T11:51:00Z</time>
      </trkpt>
      <trkpt lat="47.82644" lon="-3.43211">
        <ele>41.06</ele>
        <time>2020-07-10T11:51:01Z</time>
      </trkpt>
      <trkpt lat="47.82646" lon="-3.43207">
        <ele>41.12</ele>
        <time>2020-07-10T11:51:02Z</time>
      </trkpt>
      <trkpt lat="47.82648" lon="-3.43202">
        <ele>41.19</ele>
        <time>2020-07-10T11:51:03Z</time>
      </trkpt>
      <trkpt lat="47.82649" lon="-3.43197">
        <ele>41.28</ele>
        <time>2020-07-10T11:51:04Z</time>
      </trkpt>
      <trkpt lat="47.8265" lon="-3.43192">
        <ele>41.43</ele>
        <time>2020-07-10T11:51:05Z</time>
      </trkpt>
      <trkpt lat="47.82652" lon="-3.43188">
        <ele>41.63</ele>
        <time>2020-07-10T11:51:06Z</time>
      </trkpt>
      <trkpt lat="47.82653" lon="-3.43183">
        <ele>41.82</ele>
        <time>2020-07-10T11:51:07Z</time>
      </trkpt>
      <trkpt lat="47.82653" lon="-3.43177">
        <ele>42.06</ele>
        <time>2020-07-10T11:51:08Z</time>
      </trkpt>
      <trkpt lat="47.82655" lon="-3.43169">
        <ele>42.36</ele>
        <time>2020-07-10T11:51:09Z</time>
      </trkpt>
      <trkpt lat="47.82656" lon="-3.43164">
        <ele>42.58</ele>
        <time>2020-07-10T11:51:10Z</time>
      </trkpt>
      <trkpt lat="47.82657" lon="-3.43158">
        <ele>42.78</ele>
        <time>2020-07-10T11:51:11Z</time>
      </trkpt>
      <trkpt lat="47.82659" lon="-3.43152">
        <ele>43.01</ele>
        <time>2020-07-10T11:51:12Z</time>
      </trkpt>
      <trkpt lat="47.8266" lon="-3.43148">
        <ele>43.22</ele>
        <time>2020-07-10T11:51:13Z</time>
      </trkpt>
      <trkpt lat="47.82663" lon="-3.43144">
        <ele>43.46</ele>
        <time>2020-07-10T11:51:14Z</time>
      </trkpt>
      <trkpt lat="47.82666" lon="-3.43143">
        <ele>43.74</ele>
        <time>2020-07-10T11:51:15Z</time>
      </trkpt>
      <trkpt lat="47.82669" lon="-3.43141">
        <ele>43.94</ele>
        <time>2020-07-10T11:51:16Z</time>
      </trkpt>
      <trkpt lat="47.82673" lon="-3.43141">
        <ele>44.09</ele>
        <time>2020-07-10T11:51:17Z</time>
      </trkpt>
      <trkpt lat="47.82675" lon="-3.4314">
        <ele>44.22</ele>
        <time>2020-07-10T11:51:18Z</time>
      </trkpt>
      <trkpt lat="47.82678" lon="-3.4314">
        <ele>44.34</ele>
        <time>2020-07-10T11:51:19Z</time>
      </trkpt>
      <trkpt lat="47.8268" lon="-3.43139">
        <ele>44.44</ele>
        <time>2020-07-10T11:51:20Z</time>
      </trkpt>
      <trkpt lat="47.82683" lon="-3.43138">
        <ele>44.57</ele>
        <time>2020-07-10T11:51:21Z</time>
      </trkpt>
      <trkpt lat="47.82686" lon="-3.43138">
        <ele>44.7</ele>
        <time>2020-07-10T11:51:22Z</time>
      </trkpt>
      <trkpt lat="47.82689" lon="-3.43138">
        <ele>44.79</ele>
        <time>2020-07-10T11:51:23Z</time>
      </trkpt>
      <trkpt lat="47.82691" lon="-3.4314">
        <ele>44.83</ele>
        <time>2020-07-10T11:51:24Z</time>
      </trkpt>
      <trkpt lat="47.82694" lon="-3.43142">
        <ele>44.86</ele>
        <time>2020-07-10T11:51:25Z</time>
      </trkpt>
      <trkpt lat="47.82696" lon="-3.43143">
        <ele>44.88</ele>
        <time>2020-07-10T11:51:26Z</time>
      </trkpt>
      <trkpt lat="47.82699" lon="-3.43144">
        <ele>44.95</ele>
        <time>2020-07-10T11:51:27Z</time>
      </trkpt>
      <trkpt lat="47.82702" lon="-3.43144">
        <ele>45.04</ele>
        <time>2020-07-10T11:51:28Z</time>
      </trkpt>
      <trkpt lat="47.82705" lon="-3.43145">
        <ele>45.11</ele>
        <time>2020-07-10T11:51:29Z</time>
      </trkpt>
      <trkpt lat="47.82708" lon="-3.43146">
        <ele>45.21</ele>
        <time>2020-07-10T11:51:30Z</time>
      </trkpt>
      <trkpt lat="47.82711" lon="-3.43146">
        <ele>45.31</ele>
        <time>2020-07-10T11:51:31Z</time>
      </trkpt>
      <trkpt lat="47.82714" lon="-3.43146">
        <ele>45.4</ele>
        <time>2020-07-10T11:51:32Z</time>
      </trkpt>
      <trkpt lat="47.82716" lon="-3.43146">
        <ele>45.48</ele>
        <time>2020-07-10T11:51:33Z</time>
      </trkpt>
      <trkpt lat="47.82719" lon="-3.43147">
        <ele>45.55</ele>
        <time>2020-07-10T11:51:34Z</time>
      </trkpt>
      <trkpt lat="47.82721" lon="-3.43147">
        <ele>45.64</ele>
        <time>2020-07-10T11:51:35Z</time>
      </trkpt>
      <trkpt lat="47.82725" lon="-3.43146">
        <ele>45.7</ele>
        <time>2020-07-10T11:51:36Z</time>
      </trkpt>
      <trkpt lat="47.82729" lon="-3.43145">
        <ele>45.75</ele>
        <time>2020-07-10T11:51:37Z</time>
      </trkpt>
      <trkpt lat="47.82734" lon="-3.43143">
        <ele>45.82</ele>
        <time>2020-07-10T11:51:38Z</time>
      </trkpt>
      <trkpt lat="47.82739" lon="-3.43141">
        <ele>45.9</ele>
        <time>2020-07-10T11:51:39Z</time>
      </trkpt>
      <trkpt lat="47.82743" lon="-3.43139">
        <ele>45.98</ele>
        <time>2020-07-10T11:51:40Z</time>
      </trkpt>
      <trkpt lat="47.82746" lon="-3.43136">
        <ele>46.07</ele>
        <time>2020-07-10T11:51:41Z</time>
      </trkpt>
      <trkpt lat="47.82748" lon="-3.43131">
        <ele>46.21</ele>
        <time>2020-07-10T11:51:42Z</time>
      </trkpt>
      <trkpt lat="47.8275" lon="-3.43127">
        <ele>46.35</ele>
        <time>2020-07-10T11:51:43Z</time>
      </trkpt>
      <trkpt lat="47.82752" lon="-3.43123">
        <ele>46.45</ele>
        <time>2020-07-10T11:51:44Z</time>
      </trkpt>
      <trkpt lat="47.82755" lon="-3.4312">
        <ele>46.51</ele>
        <time>2020-07-10T11:51:45Z</time>
      </trkpt>
      <trkpt lat="47.82758" lon="-3.43115">
        <ele>46.56</ele>
        <time>2020-07-10T11:51:46Z</time>
      </trkpt>
      <trkpt lat="47.82761" lon="-3.4311">
        <ele>46.64</ele>
        <time>2020-07-10T11:51:47Z</time>
      </trkpt>
      <trkpt lat="47.82763" lon="-3.43107">
        <ele>46.79</ele>
        <time>2020-07-10T11:51:48Z</time>
      </trkpt>
      <trkpt lat="47.82766" lon="-3.43102">
        <ele>46.97</ele>
        <time>2020-07-10T11:51:49Z</time>
      </trkpt>
      <trkpt lat="47.82769" lon="-3.43099">
        <ele>47.1</ele>
        <time>2020-07-10T11:51:50Z</time>
      </trkpt>
      <trkpt lat="47.82772" lon="-3.43099">
        <ele>47.09</ele>
        <time>2020-07-10T11:51:51Z</time>
      </trkpt>
      <trkpt lat="47.82776" lon="-3.43098">
        <ele>47.01</ele>
        <time>2020-07-10T11:51:52Z</time>
      </trkpt>
      <trkpt lat="47.82778" lon="-3.43098">
        <ele>46.98</ele>
        <time>2020-07-10T11:51:53Z</time>
      </trkpt>
      <trkpt lat="47.8278" lon="-3.43095">
        <ele>47.08</ele>
        <time>2020-07-10T11:51:54Z</time>
      </trkpt>
      <trkpt lat="47.82781" lon="-3.43091">
        <ele>47.27</ele>
        <time>2020-07-10T11:51:55Z</time>
      </trkpt>
      <trkpt lat="47.82782" lon="-3.43087">
        <ele>47.51</ele>
        <time>2020-07-10T11:51:56Z</time>
      </trkpt>
      <trkpt lat="47.82784" lon="-3.4308">
        <ele>47.9</ele>
        <time>2020-07-10T11:51:57Z</time>
      </trkpt>
      <trkpt lat="47.82785" lon="-3.43075">
        <ele>48.24</ele>
        <time>2020-07-10T11:51:58Z</time>
      </trkpt>
      <trkpt lat="47.82786" lon="-3.4307">
        <ele>48.53</ele>
        <time>2020-07-10T11:51:59Z</time>
      </trkpt>
      <trkpt lat="47.82787" lon="-3.43067">
        <ele>48.73</ele>
        <time>2020-07-10T11:52:00Z</time>
      </trkpt>
      <trkpt lat="47.8279" lon="-3.43065">
        <ele>48.86</ele>
        <time>2020-07-10T11:52:01Z</time>
      </trkpt>
      <trkpt lat="47.82792" lon="-3.43061">
        <ele>49.01</ele>
        <time>2020-07-10T11:52:02Z</time>
      </trkpt>
      <trkpt lat="47.82795" lon="-3.43058">
        <ele>49.16</ele>
        <time>2020-07-10T11:52:03Z</time>
      </trkpt>
      <trkpt lat="47.82798" lon="-3.43053">
        <ele>49.3</ele>
        <time>2020-07-10T11:52:04Z</time>
      </trkpt>
      <trkpt lat="47.828" lon="-3.43049">
        <ele>49.39</ele>
        <time>2020-07-10T11:52:05Z</time>
      </trkpt>
      <trkpt lat="47.82802" lon="-3.43046">
        <ele>49.44</ele>
        <time>2020-07-10T11:52:06Z</time>
      </trkpt>
      <trkpt lat="47.82805" lon="-3.43041">
        <ele>49.51</ele>
        <time>2020-07-10T11:52:07Z</time>
      </trkpt>
      <trkpt lat="47.82808" lon="-3.43038">
        <ele>49.53</ele>
        <time>2020-07-10T11:52:08Z</time>
      </trkpt>
      <trkpt lat="47.8281" lon="-3.43034">
        <ele>49.56</ele>
        <time>2020-07-10T11:52:09Z</time>
      </trkpt>
      <trkpt lat="47.82814" lon="-3.43031">
        <ele>49.55</ele>
        <time>2020-07-10T11:52:10Z</time>
      </trkpt>
      <trkpt lat="47.82817" lon="-3.43027">
        <ele>49.61</ele>
        <time>2020-07-10T11:52:11Z</time>
      </trkpt>
      <trkpt lat="47.82821" lon="-3.43024">
        <ele>49.63</ele>
        <time>2020-07-10T11:52:12Z</time>
      </trkpt>
      <trkpt lat="47.82825" lon="-3.43019">
        <ele>49.67</ele>
        <time>2020-07-10T11:52:13Z</time>
      </trkpt>
      <trkpt lat="47.82829" lon="-3.43015">
        <ele>49.69</ele>
        <time>2020-07-10T11:52:14Z</time>
      </trkpt>
      <trkpt lat="47.82832" lon="-3.4301">
        <ele>49.7</ele>
        <time>2020-07-10T11:52:15Z</time>
      </trkpt>
      <trkpt lat="47.82835" lon="-3.43005">
        <ele>49.64</ele>
        <time>2020-07-10T11:52:16Z</time>
      </trkpt>
      <trkpt lat="47.82838" lon="-3.43001">
        <ele>49.53</ele>
        <time>2020-07-10T11:52:17Z</time>
      </trkpt>
      <trkpt lat="47.82841" lon="-3.42997">
        <ele>49.34</ele>
        <time>2020-07-10T11:52:18Z</time>
      </trkpt>
      <trkpt lat="47.82845" lon="-3.42995">
        <ele>49.12</ele>
        <time>2020-07-10T11:52:19Z</time>
      </trkpt>
      <trkpt lat="47.82849" lon="-3.4299">
        <ele>48.95</ele>
        <time>2020-07-10T11:52:20Z</time>
      </trkpt>
      <trkpt lat="47.82851" lon="-3.42985">
        <ele>48.94</ele>
        <time>2020-07-10T11:52:21Z</time>
      </trkpt>
      <trkpt lat="47.82853" lon="-3.4298">
        <ele>49.02</ele>
        <time>2020-07-10T11:52:22Z</time>
      </trkpt>
      <trkpt lat="47.82855" lon="-3.42974">
        <ele>49.26</ele>
        <time>2020-07-10T11:52:23Z</time>
      </trkpt>
      <trkpt lat="47.82855" lon="-3.42967">
        <ele>49.49</ele>
        <time>2020-07-10T11:52:24Z</time>
      </trkpt>
      <trkpt lat="47.82856" lon="-3.42961">
        <ele>49.7</ele>
        <time>2020-07-10T11:52:25Z</time>
      </trkpt>
      <trkpt lat="47.82856" lon="-3.42956">
        <ele>49.87</ele>
        <time>2020-07-10T11:52:26Z</time>
      </trkpt>
      <trkpt lat="47.82858" lon="-3.4295">
        <ele>49.98</ele>
        <time>2020-07-10T11:52:27Z</time>
      </trkpt>
      <trkpt lat="47.82861" lon="-3.42943">
        <ele>50.06</ele>
        <time>2020-07-10T11:52:28Z</time>
      </trkpt>
      <trkpt lat="47.82863" lon="-3.42935">
        <ele>50.04</ele>
        <time>2020-07-10T11:52:29Z</time>
      </trkpt>
      <trkpt lat="47.82864" lon="-3.42927">
        <ele>50.04</ele>
        <time>2020-07-10T11:52:30Z</time>
      </trkpt>
      <trkpt lat="47.82866" lon="-3.42919">
        <ele>50.06</ele>
        <time>2020-07-10T11:52:31Z</time>
      </trkpt>
      <trkpt lat="47.82867" lon="-3.42912">
        <ele>50.05</ele>
        <time>2020-07-10T11:52:32Z</time>
      </trkpt>
      <trkpt lat="47.82868" lon="-3.42905">
        <ele>50.02</ele>
        <time>2020-07-10T11:52:33Z</time>
      </trkpt>
      <trkpt lat="47.82869" lon="-3.42898">
        <ele>50.02</ele>
        <time>2020-07-10T11:52:34Z</time>
      </trkpt>
      <trkpt lat="47.8287" lon="-3.42892">
        <ele>50.03</ele>
        <time>2020-07-10T11:52:35Z</time>
      </trkpt>
      <trkpt lat="47.82872" lon="-3.42886">
        <ele>49.96</ele>
        <time>2020-07-10T11:52:36Z</time>
      </trkpt>
      <trkpt lat="47.82874" lon="-3.4288">
        <ele>49.92</ele>
        <time>2020-07-10T11:52:37Z</time>
      </trkpt>
      <trkpt lat="47.82875" lon="-3.42874">
        <ele>49.99</ele>
        <time>2020-07-10T11:52:38Z</time>
      </trkpt>
      <trkpt lat="47.82876" lon="-3.42869">
        <ele>50.09</ele>
        <time>2020-07-10T11:52:39Z</time>
      </trkpt>
      <trkpt lat="47.82877" lon="-3.42865">
        <ele>50.2</ele>
        <time>2020-07-10T11:52:40Z</time>
      </trkpt>
      <trkpt lat="47.82878" lon="-3.42862">
        <ele>50.29</ele>
        <time>2020-07-10T11:52:41Z</time>
      </trkpt>
      <trkpt lat="47.82879" lon="-3.4286">
        <ele>50.36</ele>
        <time>2020-07-10T11:52:42Z</time>
      </trkpt>
      <trkpt lat="47.82882" lon="-3.42858">
        <ele>50.38</ele>
        <time>2020-07-10T11:52:43Z</time>
      </trkpt>
      <trkpt lat="47.82884" lon="-3.42857">
        <ele>50.34</ele>
        <time>2020-07-10T11:52:44Z</time>
      </trkpt>
      <trkpt lat="47.82887" lon="-3.42857">
        <ele>50.24</ele>
        <time>2020-07-10T11:52:45Z</time>
      </trkpt>
      <trkpt lat="47.82891" lon="-3.42858">
        <ele>50.04</ele>
        <time>2020-07-10T11:52:46Z</time>
      </trkpt>
      <trkpt lat="47.82894" lon="-3.4286">
        <ele>49.77</ele>
        <time>2020-07-10T11:52:47Z</time>
      </trkpt>
      <trkpt lat="47.82898" lon="-3.42863">
        <ele>49.33</ele>
        <time>2020-07-10T11:52:48Z</time>
      </trkpt>
      <trkpt lat="47.82903" lon="-3.42867">
        <ele>48.69</ele>
        <time>2020-07-10T11:52:49Z</time>
      </trkpt>
      <trkpt lat="47.82908" lon="-3.42871">
        <ele>47.96</ele>
        <time>2020-07-10T11:52:50Z</time>
      </trkpt>
      <trkpt lat="47.82912" lon="-3.42876">
        <ele>47.16</ele>
        <time>2020-07-10T11:52:51Z</time>
      </trkpt>
      <trkpt lat="47.82916" lon="-3.4288">
        <ele>46.37</ele>
        <time>2020-07-10T11:52:52Z</time>
      </trkpt>
      <trkpt lat="47.82917" lon="-3.42885">
        <ele>45.73</ele>
        <time>2020-07-10T11:52:53Z</time>
      </trkpt>
      <trkpt lat="47.82919" lon="-3.42887">
        <ele>45.34</ele>
        <time>2020-07-10T11:52:54Z</time>
      </trkpt>
      <trkpt lat="47.8292" lon="-3.4289">
        <ele>45.05</ele>
        <time>2020-07-10T11:52:55Z</time>
      </trkpt>
      <trkpt lat="47.82923" lon="-3.42892">
        <ele>44.79</ele>
        <time>2020-07-10T11:52:56Z</time>
      </trkpt>
      <trkpt lat="47.82926" lon="-3.42895">
        <ele>44.48</ele>
        <time>2020-07-10T11:52:57Z</time>
      </trkpt>
      <trkpt lat="47.82929" lon="-3.42899">
        <ele>44.05</ele>
        <time>2020-07-10T11:52:58Z</time>
      </trkpt>
      <trkpt lat="47.82933" lon="-3.42904">
        <ele>43.56</ele>
        <time>2020-07-10T11:52:59Z</time>
      </trkpt>
      <trkpt lat="47.82937" lon="-3.42909">
        <ele>43.07</ele>
        <time>2020-07-10T11:53:00Z</time>
      </trkpt>
      <trkpt lat="47.82941" lon="-3.42913">
        <ele>42.59</ele>
        <time>2020-07-10T11:53:01Z</time>
      </trkpt>
      <trkpt lat="47.82944" lon="-3.42917">
        <ele>42.09</ele>
        <time>2020-07-10T11:53:02Z</time>
      </trkpt>
      <trkpt lat="47.82946" lon="-3.4292">
        <ele>41.74</ele>
        <time>2020-07-10T11:53:03Z</time>
      </trkpt>
      <trkpt lat="47.82947" lon="-3.42922">
        <ele>41.55</ele>
        <time>2020-07-10T11:53:04Z</time>
      </trkpt>
      <trkpt lat="47.82948" lon="-3.42922">
        <ele>41.56</ele>
        <time>2020-07-10T11:53:05Z</time>
      </trkpt>
      <trkpt lat="47.82949" lon="-3.42922">
        <ele>41.54</ele>
        <time>2020-07-10T11:53:06Z</time>
      </trkpt>
      <trkpt lat="47.82949" lon="-3.42922">
        <ele>41.61</ele>
        <time>2020-07-10T11:53:07Z</time>
      </trkpt>
      <trkpt lat="47.82949" lon="-3.42921">
        <ele>41.67</ele>
        <time>2020-07-10T11:53:08Z</time>
      </trkpt>
      <trkpt lat="47.82949" lon="-3.42921">
        <ele>41.68</ele>
        <time>2020-07-10T11:53:09Z</time>
      </trkpt>
      <trkpt lat="47.82949" lon="-3.42921">
        <ele>41.69</ele>
        <time>2020-07-10T11:53:10Z</time>
      </trkpt>
      <trkpt lat="47.82949" lon="-3.42921">
        <ele>41.69</ele>
        <time>2020-07-10T11:53:11Z</time>
      </trkpt>
      <trkpt lat="47.82949" lon="-3.42921">
        <ele>41.69</ele>
        <time>2020-07-10T11:53:12Z</time>
      </trkpt>
      <trkpt lat="47.82949" lon="-3.42921">
        <ele>41.69</ele>
        <time>2020-07-10T11:53:13Z</time>
      </trkpt>
      <trkpt lat="47.82949" lon="-3.42921">
        <ele>41.69</ele>
        <time>2020-07-10T11:53:14Z</time>
      </trkpt>
      <trkpt lat="47.82949" lon="-3.42921">
        <ele>41.69</ele>
        <time>2020-07-10T11:53:15Z</time>
      </trkpt>
      <trkpt lat="47.82949" lon="-3.42921">
        <ele>41.69</ele>
        <time>2020-07-10T11:53:16Z</time>
      </trkpt>
      <trkpt lat="47.82949" lon="-3.42921">
        <ele>41.69</ele>
        <time>2020-07-10T11:53:17Z</time>
      </trkpt>
      <trkpt lat="47.82948" lon="-3.42916">
        <ele>42.16</ele>
        <time>2020-07-10T11:53:18Z</time>
      </trkpt>
      <trkpt lat="47.82947" lon="-3.42914">
        <ele>42.38</ele>
        <time>2020-07-10T11:53:19Z</time>
      </trkpt>
      <trkpt lat="47.82946" lon="-3.42912">
        <ele>42.54</ele>
        <time>2020-07-10T11:53:20Z</time>
      </trkpt>
      <trkpt lat="47.82945" lon="-3.4291">
        <ele>42.66</ele>
        <time>2020-07-10T11:53:21Z</time>
      </trkpt>
      <trkpt lat="47.82943" lon="-3.42908">
        <ele>42.84</ele>
        <time>2020-07-10T11:53:22Z</time>
      </trkpt>
      <trkpt lat="47.82942" lon="-3.42906">
        <ele>43.05</ele>
        <time>2020-07-10T11:53:23Z</time>
      </trkpt>
      <trkpt lat="47.8294" lon="-3.42903">
        <ele>43.35</ele>
        <time>2020-07-10T11:53:24Z</time>
      </trkpt>
      <trkpt lat="47.82938" lon="-3.429">
        <ele>43.64</ele>
        <time>2020-07-10T11:53:25Z</time>
      </trkpt>
      <trkpt lat="47.82936" lon="-3.42898">
        <ele>43.93</ele>
        <time>2020-07-10T11:53:26Z</time>
      </trkpt>
      <trkpt lat="47.82934" lon="-3.42896">
        <ele>44.17</ele>
        <time>2020-07-10T11:53:27Z</time>
      </trkpt>
      <trkpt lat="47.82933" lon="-3.42893">
        <ele>44.43</ele>
        <time>2020-07-10T11:53:28Z</time>
      </trkpt>
      <trkpt lat="47.82931" lon="-3.4289">
        <ele>44.73</ele>
        <time>2020-07-10T11:53:29Z</time>
      </trkpt>
      <trkpt lat="47.82928" lon="-3.42887">
        <ele>45.04</ele>
        <time>2020-07-10T11:53:30Z</time>
      </trkpt>
      <trkpt lat="47.82926" lon="-3.42885">
        <ele>45.31</ele>
        <time>2020-07-10T11:53:31Z</time>
      </trkpt>
      <trkpt lat="47.82925" lon="-3.42882">
        <ele>45.59</ele>
        <time>2020-07-10T11:53:32Z</time>
      </trkpt>
      <trkpt lat="47.82923" lon="-3.4288">
        <ele>45.87</ele>
        <time>2020-07-10T11:53:33Z</time>
      </trkpt>
      <trkpt lat="47.82923" lon="-3.42879">
        <ele>46</ele>
        <time>2020-07-10T11:53:34Z</time>
      </trkpt>
      <trkpt lat="47.82924" lon="-3.42879">
        <ele>46.03</ele>
        <time>2020-07-10T11:53:35Z</time>
      </trkpt>
      <trkpt lat="47.82926" lon="-3.4288">
        <ele>45.98</ele>
        <time>2020-07-10T11:53:36Z</time>
      </trkpt>
      <trkpt lat="47.82927" lon="-3.42881">
        <ele>45.88</ele>
        <time>2020-07-10T11:53:37Z</time>
      </trkpt>
      <trkpt lat="47.82928" lon="-3.42882">
        <ele>45.8</ele>
        <time>2020-07-10T11:53:38Z</time>
      </trkpt>
      <trkpt lat="47.8293" lon="-3.42883">
        <ele>45.72</ele>
        <time>2020-07-10T11:53:39Z</time>
      </trkpt>
      <trkpt lat="47.82931" lon="-3.42884">
        <ele>45.62</ele>
        <time>2020-07-10T11:53:40Z</time>
      </trkpt>
      <trkpt lat="47.82932" lon="-3.42884">
        <ele>45.53</ele>
        <time>2020-07-10T11:53:41Z</time>
      </trkpt>
      <trkpt lat="47.82934" lon="-3.42885">
        <ele>45.44</ele>
        <time>2020-07-10T11:53:42Z</time>
      </trkpt>
      <trkpt lat="47.82936" lon="-3.42887">
        <ele>45.31</ele>
        <time>2020-07-10T11:53:43Z</time>
      </trkpt>
      <trkpt lat="47.82939" lon="-3.42887">
        <ele>45.22</ele>
        <time>2020-07-10T11:53:44Z</time>
      </trkpt>
      <trkpt lat="47.82941" lon="-3.42888">
        <ele>45.13</ele>
        <time>2020-07-10T11:53:45Z</time>
      </trkpt>
      <trkpt lat="47.82943" lon="-3.42889">
        <ele>45.03</ele>
        <time>2020-07-10T11:53:46Z</time>
      </trkpt>
      <trkpt lat="47.82946" lon="-3.4289">
        <ele>44.99</ele>
        <time>2020-07-10T11:53:47Z</time>
      </trkpt>
      <trkpt lat="47.82947" lon="-3.4289">
        <ele>44.99</ele>
        <time>2020-07-10T11:53:48Z</time>
      </trkpt>
      <trkpt lat="47.82949" lon="-3.4289">
        <ele>45.04</ele>
        <time>2020-07-10T11:53:49Z</time>
      </trkpt>
      <trkpt lat="47.82952" lon="-3.4289">
        <ele>45.12</ele>
        <time>2020-07-10T11:53:50Z</time>
      </trkpt>
      <trkpt lat="47.82955" lon="-3.4289">
        <ele>45.25</ele>
        <time>2020-07-10T11:53:51Z</time>
      </trkpt>
      <trkpt lat="47.82958" lon="-3.4289">
        <ele>45.35</ele>
        <time>2020-07-10T11:53:52Z</time>
      </trkpt>
      <trkpt lat="47.82961" lon="-3.4289">
        <ele>45.46</ele>
        <time>2020-07-10T11:53:53Z</time>
      </trkpt>
      <trkpt lat="47.82964" lon="-3.4289">
        <ele>45.56</ele>
        <time>2020-07-10T11:53:54Z</time>
      </trkpt>
      <trkpt lat="47.82967" lon="-3.42891">
        <ele>45.64</ele>
        <time>2020-07-10T11:53:55Z</time>
      </trkpt>
      <trkpt lat="47.8297" lon="-3.42892">
        <ele>45.67</ele>
        <time>2020-07-10T11:53:56Z</time>
      </trkpt>
      <trkpt lat="47.82973" lon="-3.42893">
        <ele>45.68</ele>
        <time>2020-07-10T11:53:57Z</time>
      </trkpt>
      <trkpt lat="47.82976" lon="-3.42894">
        <ele>45.58</ele>
        <time>2020-07-10T11:53:58Z</time>
      </trkpt>
      <trkpt lat="47.8298" lon="-3.42894">
        <ele>45.46</ele>
        <time>2020-07-10T11:53:59Z</time>
      </trkpt>
      <trkpt lat="47.82983" lon="-3.42894">
        <ele>45.36</ele>
        <time>2020-07-10T11:54:00Z</time>
      </trkpt>
      <trkpt lat="47.82986" lon="-3.42893">
        <ele>45.29</ele>
        <time>2020-07-10T11:54:01Z</time>
      </trkpt>
      <trkpt lat="47.82989" lon="-3.42893">
        <ele>45.24</ele>
        <time>2020-07-10T11:54:02Z</time>
      </trkpt>
      <trkpt lat="47.82992" lon="-3.42891">
        <ele>45.21</ele>
        <time>2020-07-10T11:54:03Z</time>
      </trkpt>
      <trkpt lat="47.82994" lon="-3.4289">
        <ele>45.19</ele>
        <time>2020-07-10T11:54:04Z</time>
      </trkpt>
      <trkpt lat="47.82997" lon="-3.42888">
        <ele>45.14</ele>
        <time>2020-07-10T11:54:05Z</time>
      </trkpt>
      <trkpt lat="47.83001" lon="-3.42888">
        <ele>45.09</ele>
        <time>2020-07-10T11:54:06Z</time>
      </trkpt>
      <trkpt lat="47.83003" lon="-3.42887">
        <ele>45.04</ele>
        <time>2020-07-10T11:54:07Z</time>
      </trkpt>
      <trkpt lat="47.83006" lon="-3.42886">
        <ele>45.02</ele>
        <time>2020-07-10T11:54:08Z</time>
      </trkpt>
      <trkpt lat="47.83009" lon="-3.42884">
        <ele>44.99</ele>
        <time>2020-07-10T11:54:09Z</time>
      </trkpt>
      <trkpt lat="47.83012" lon="-3.42883">
        <ele>44.94</ele>
        <time>2020-07-10T11:54:10Z</time>
      </trkpt>
      <trkpt lat="47.83015" lon="-3.42881">
        <ele>44.89</ele>
        <time>2020-07-10T11:54:11Z</time>
      </trkpt>
      <trkpt lat="47.83018" lon="-3.42878">
        <ele>44.85</ele>
        <time>2020-07-10T11:54:12Z</time>
      </trkpt>
      <trkpt lat="47.83022" lon="-3.42877">
        <ele>44.78</ele>
        <time>2020-07-10T11:54:13Z</time>
      </trkpt>
      <trkpt lat="47.83025" lon="-3.42876">
        <ele>44.65</ele>
        <time>2020-07-10T11:54:14Z</time>
      </trkpt>
      <trkpt lat="47.83029" lon="-3.42876">
        <ele>44.5</ele>
        <time>2020-07-10T11:54:15Z</time>
      </trkpt>
      <trkpt lat="47.83032" lon="-3.42875">
        <ele>44.34</ele>
        <time>2020-07-10T11:54:16Z</time>
      </trkpt>
      <trkpt lat="47.83035" lon="-3.42873">
        <ele>44.23</ele>
        <time>2020-07-10T11:54:17Z</time>
      </trkpt>
      <trkpt lat="47.83037" lon="-3.4287">
        <ele>44.16</ele>
        <time>2020-07-10T11:54:18Z</time>
      </trkpt>
      <trkpt lat="47.83039" lon="-3.42868">
        <ele>44.07</ele>
        <time>2020-07-10T11:54:19Z</time>
      </trkpt>
      <trkpt lat="47.83043" lon="-3.42866">
        <ele>43.89</ele>
        <time>2020-07-10T11:54:20Z</time>
      </trkpt>
      <trkpt lat="47.83047" lon="-3.42864">
        <ele>43.7</ele>
        <time>2020-07-10T11:54:21Z</time>
      </trkpt>
      <trkpt lat="47.8305" lon="-3.42861">
        <ele>43.49</ele>
        <time>2020-07-10T11:54:22Z</time>
      </trkpt>
      <trkpt lat="47.83053" lon="-3.42856">
        <ele>43.27</ele>
        <time>2020-07-10T11:54:23Z</time>
      </trkpt>
      <trkpt lat="47.83056" lon="-3.4285">
        <ele>43</ele>
        <time>2020-07-10T11:54:24Z</time>
      </trkpt>
      <trkpt lat="47.83058" lon="-3.42844">
        <ele>42.71</ele>
        <time>2020-07-10T11:54:25Z</time>
      </trkpt>
      <trkpt lat="47.83059" lon="-3.42838">
        <ele>42.44</ele>
        <time>2020-07-10T11:54:26Z</time>
      </trkpt>
      <trkpt lat="47.8306" lon="-3.42831">
        <ele>42.18</ele>
        <time>2020-07-10T11:54:27Z</time>
      </trkpt>
      <trkpt lat="47.83062" lon="-3.42825">
        <ele>41.8</ele>
        <time>2020-07-10T11:54:28Z</time>
      </trkpt>
      <trkpt lat="47.83064" lon="-3.42818">
        <ele>41.36</ele>
        <time>2020-07-10T11:54:29Z</time>
      </trkpt>
      <trkpt lat="47.83065" lon="-3.4281">
        <ele>40.95</ele>
        <time>2020-07-10T11:54:30Z</time>
      </trkpt>
      <trkpt lat="47.83066" lon="-3.428">
        <ele>40.73</ele>
        <time>2020-07-10T11:54:31Z</time>
      </trkpt>
      <trkpt lat="47.83066" lon="-3.42791">
        <ele>40.72</ele>
        <time>2020-07-10T11:54:32Z</time>
      </trkpt>
      <trkpt lat="47.83066" lon="-3.42784">
        <ele>40.74</ele>
        <time>2020-07-10T11:54:33Z</time>
      </trkpt>
      <trkpt lat="47.83067" lon="-3.42776">
        <ele>40.77</ele>
        <time>2020-07-10T11:54:34Z</time>
      </trkpt>
      <trkpt lat="47.83068" lon="-3.42771">
        <ele>40.78</ele>
        <time>2020-07-10T11:54:35Z</time>
      </trkpt>
      <trkpt lat="47.83069" lon="-3.42765">
        <ele>40.77</ele>
        <time>2020-07-10T11:54:36Z</time>
      </trkpt>
      <trkpt lat="47.8307" lon="-3.4276">
        <ele>40.74</ele>
        <time>2020-07-10T11:54:37Z</time>
      </trkpt>
      <trkpt lat="47.83071" lon="-3.42756">
        <ele>40.68</ele>
        <time>2020-07-10T11:54:38Z</time>
      </trkpt>
      <trkpt lat="47.83071" lon="-3.42752">
        <ele>40.68</ele>
        <time>2020-07-10T11:54:39Z</time>
      </trkpt>
      <trkpt lat="47.83072" lon="-3.42747">
        <ele>40.76</ele>
        <time>2020-07-10T11:54:40Z</time>
      </trkpt>
      <trkpt lat="47.83072" lon="-3.42743">
        <ele>40.88</ele>
        <time>2020-07-10T11:54:41Z</time>
      </trkpt>
      <trkpt lat="47.83072" lon="-3.42739">
        <ele>41</ele>
        <time>2020-07-10T11:54:42Z</time>
      </trkpt>
      <trkpt lat="47.83072" lon="-3.42736">
        <ele>41.11</ele>
        <time>2020-07-10T11:54:43Z</time>
      </trkpt>
      <trkpt lat="47.83073" lon="-3.42732">
        <ele>41.19</ele>
        <time>2020-07-10T11:54:44Z</time>
      </trkpt>
      <trkpt lat="47.83073" lon="-3.42726">
        <ele>41.29</ele>
        <time>2020-07-10T11:54:45Z</time>
      </trkpt>
      <trkpt lat="47.83073" lon="-3.42722">
        <ele>41.41</ele>
        <time>2020-07-10T11:54:46Z</time>
      </trkpt>
      <trkpt lat="47.83073" lon="-3.42717">
        <ele>41.57</ele>
        <time>2020-07-10T11:54:47Z</time>
      </trkpt>
      <trkpt lat="47.83073" lon="-3.42712">
        <ele>41.75</ele>
        <time>2020-07-10T11:54:48Z</time>
      </trkpt>
      <trkpt lat="47.83073" lon="-3.42707">
        <ele>41.94</ele>
        <time>2020-07-10T11:54:49Z</time>
      </trkpt>
      <trkpt lat="47.83073" lon="-3.42702">
        <ele>42.1</ele>
        <time>2020-07-10T11:54:50Z</time>
      </trkpt>
      <trkpt lat="47.83073" lon="-3.42695">
        <ele>42.36</ele>
        <time>2020-07-10T11:54:51Z</time>
      </trkpt>
      <trkpt lat="47.83073" lon="-3.42689">
        <ele>42.45</ele>
        <time>2020-07-10T11:54:52Z</time>
      </trkpt>
      <trkpt lat="47.83073" lon="-3.42682">
        <ele>42.48</ele>
        <time>2020-07-10T11:54:53Z</time>
      </trkpt>
      <trkpt lat="47.83074" lon="-3.42674">
        <ele>42.38</ele>
        <time>2020-07-10T11:54:54Z</time>
      </trkpt>
      <trkpt lat="47.83075" lon="-3.42667">
        <ele>42.26</ele>
        <time>2020-07-10T11:54:55Z</time>
      </trkpt>
      <trkpt lat="47.83076" lon="-3.42659">
        <ele>41.91</ele>
        <time>2020-07-10T11:54:56Z</time>
      </trkpt>
      <trkpt lat="47.83077" lon="-3.42652">
        <ele>41.56</ele>
        <time>2020-07-10T11:54:57Z</time>
      </trkpt>
      <trkpt lat="47.83077" lon="-3.42644">
        <ele>41.25</ele>
        <time>2020-07-10T11:54:58Z</time>
      </trkpt>
      <trkpt lat="47.83077" lon="-3.42635">
        <ele>40.85</ele>
        <time>2020-07-10T11:54:59Z</time>
      </trkpt>
      <trkpt lat="47.83077" lon="-3.42627">
        <ele>40.22</ele>
        <time>2020-07-10T11:55:00Z</time>
      </trkpt>
      <trkpt lat="47.83078" lon="-3.42619">
        <ele>39.53</ele>
        <time>2020-07-10T11:55:01Z</time>
      </trkpt>
      <trkpt lat="47.83078" lon="-3.42612">
        <ele>38.9</ele>
        <time>2020-07-10T11:55:02Z</time>
      </trkpt>
      <trkpt lat="47.8308" lon="-3.42607">
        <ele>38.33</ele>
        <time>2020-07-10T11:55:03Z</time>
      </trkpt>
      <trkpt lat="47.83081" lon="-3.42602">
        <ele>37.86</ele>
        <time>2020-07-10T11:55:04Z</time>
      </trkpt>
      <trkpt lat="47.83083" lon="-3.42597">
        <ele>37.29</ele>
        <time>2020-07-10T11:55:05Z</time>
      </trkpt>
      <trkpt lat="47.83084" lon="-3.42592">
        <ele>36.75</ele>
        <time>2020-07-10T11:55:06Z</time>
      </trkpt>
      <trkpt lat="47.83087" lon="-3.42588">
        <ele>36.25</ele>
        <time>2020-07-10T11:55:07Z</time>
      </trkpt>
      <trkpt lat="47.83089" lon="-3.42582">
        <ele>35.77</ele>
        <time>2020-07-10T11:55:08Z</time>
      </trkpt>
      <trkpt lat="47.83091" lon="-3.42575">
        <ele>35.4</ele>
        <time>2020-07-10T11:55:09Z</time>
      </trkpt>
      <trkpt lat="47.83091" lon="-3.42569">
        <ele>35.16</ele>
        <time>2020-07-10T11:55:10Z</time>
      </trkpt>
      <trkpt lat="47.83091" lon="-3.42564">
        <ele>35.02</ele>
        <time>2020-07-10T11:55:11Z</time>
      </trkpt>
      <trkpt lat="47.8309" lon="-3.42559">
        <ele>34.91</ele>
        <time>2020-07-10T11:55:12Z</time>
      </trkpt>
      <trkpt lat="47.83088" lon="-3.42553">
        <ele>34.79</ele>
        <time>2020-07-10T11:55:13Z</time>
      </trkpt>
      <trkpt lat="47.83086" lon="-3.42548">
        <ele>34.67</ele>
        <time>2020-07-10T11:55:14Z</time>
      </trkpt>
      <trkpt lat="47.83085" lon="-3.42542">
        <ele>34.51</ele>
        <time>2020-07-10T11:55:15Z</time>
      </trkpt>
      <trkpt lat="47.83085" lon="-3.42536">
        <ele>34.34</ele>
        <time>2020-07-10T11:55:16Z</time>
      </trkpt>
      <trkpt lat="47.83086" lon="-3.42531">
        <ele>34.12</ele>
        <time>2020-07-10T11:55:17Z</time>
      </trkpt>
      <trkpt lat="47.83088" lon="-3.42526">
        <ele>33.93</ele>
        <time>2020-07-10T11:55:18Z</time>
      </trkpt>
      <trkpt lat="47.83091" lon="-3.42523">
        <ele>33.82</ele>
        <time>2020-07-10T11:55:19Z</time>
      </trkpt>
      <trkpt lat="47.83094" lon="-3.42519">
        <ele>33.76</ele>
        <time>2020-07-10T11:55:20Z</time>
      </trkpt>
      <trkpt lat="47.83098" lon="-3.42514">
        <ele>33.74</ele>
        <time>2020-07-10T11:55:21Z</time>
      </trkpt>
      <trkpt lat="47.83101" lon="-3.4251">
        <ele>33.76</ele>
        <time>2020-07-10T11:55:22Z</time>
      </trkpt>
      <trkpt lat="47.83104" lon="-3.42506">
        <ele>33.8</ele>
        <time>2020-07-10T11:55:23Z</time>
      </trkpt>
      <trkpt lat="47.83107" lon="-3.42503">
        <ele>33.89</ele>
        <time>2020-07-10T11:55:24Z</time>
      </trkpt>
      <trkpt lat="47.8311" lon="-3.42498">
        <ele>34.06</ele>
        <time>2020-07-10T11:55:25Z</time>
      </trkpt>
      <trkpt lat="47.83112" lon="-3.42494">
        <ele>34.34</ele>
        <time>2020-07-10T11:55:26Z</time>
      </trkpt>
      <trkpt lat="47.83113" lon="-3.4249">
        <ele>34.7</ele>
        <time>2020-07-10T11:55:27Z</time>
      </trkpt>
      <trkpt lat="47.83115" lon="-3.42486">
        <ele>35.1</ele>
        <time>2020-07-10T11:55:28Z</time>
      </trkpt>
      <trkpt lat="47.83116" lon="-3.42482">
        <ele>35.5</ele>
        <time>2020-07-10T11:55:29Z</time>
      </trkpt>
      <trkpt lat="47.83117" lon="-3.42478">
        <ele>35.89</ele>
        <time>2020-07-10T11:55:30Z</time>
      </trkpt>
      <trkpt lat="47.83118" lon="-3.42473">
        <ele>36.25</ele>
        <time>2020-07-10T11:55:31Z</time>
      </trkpt>
      <trkpt lat="47.83118" lon="-3.42469">
        <ele>36.57</ele>
        <time>2020-07-10T11:55:32Z</time>
      </trkpt>
      <trkpt lat="47.83118" lon="-3.42465">
        <ele>36.86</ele>
        <time>2020-07-10T11:55:33Z</time>
      </trkpt>
      <trkpt lat="47.83118" lon="-3.42461">
        <ele>37.14</ele>
        <time>2020-07-10T11:55:34Z</time>
      </trkpt>
      <trkpt lat="47.83118" lon="-3.42457">
        <ele>37.46</ele>
        <time>2020-07-10T11:55:35Z</time>
      </trkpt>
      <trkpt lat="47.83119" lon="-3.42453">
        <ele>37.79</ele>
        <time>2020-07-10T11:55:36Z</time>
      </trkpt>
      <trkpt lat="47.83119" lon="-3.42449">
        <ele>38.1</ele>
        <time>2020-07-10T11:55:37Z</time>
      </trkpt>
      <trkpt lat="47.83119" lon="-3.42445">
        <ele>38.4</ele>
        <time>2020-07-10T11:55:38Z</time>
      </trkpt>
      <trkpt lat="47.83119" lon="-3.4244">
        <ele>38.75</ele>
        <time>2020-07-10T11:55:39Z</time>
      </trkpt>
      <trkpt lat="47.83119" lon="-3.42436">
        <ele>39.09</ele>
        <time>2020-07-10T11:55:40Z</time>
      </trkpt>
      <trkpt lat="47.83119" lon="-3.42432">
        <ele>39.42</ele>
        <time>2020-07-10T11:55:41Z</time>
      </trkpt>
      <trkpt lat="47.83119" lon="-3.42428">
        <ele>39.75</ele>
        <time>2020-07-10T11:55:42Z</time>
      </trkpt>
      <trkpt lat="47.83119" lon="-3.42424">
        <ele>40.11</ele>
        <time>2020-07-10T11:55:43Z</time>
      </trkpt>
      <trkpt lat="47.83121" lon="-3.42421">
        <ele>40.48</ele>
        <time>2020-07-10T11:55:44Z</time>
      </trkpt>
      <trkpt lat="47.83122" lon="-3.42418">
        <ele>40.84</ele>
        <time>2020-07-10T11:55:45Z</time>
      </trkpt>
      <trkpt lat="47.83122" lon="-3.42415">
        <ele>41.2</ele>
        <time>2020-07-10T11:55:46Z</time>
      </trkpt>
      <trkpt lat="47.83122" lon="-3.42412">
        <ele>41.56</ele>
        <time>2020-07-10T11:55:47Z</time>
      </trkpt>
      <trkpt lat="47.83122" lon="-3.42409">
        <ele>41.95</ele>
        <time>2020-07-10T11:55:48Z</time>
      </trkpt>
      <trkpt lat="47.83121" lon="-3.42405">
        <ele>42.3</ele>
        <time>2020-07-10T11:55:49Z</time>
      </trkpt>
      <trkpt lat="47.83122" lon="-3.42402">
        <ele>42.7</ele>
        <time>2020-07-10T11:55:50Z</time>
      </trkpt>
      <trkpt lat="47.83122" lon="-3.42399">
        <ele>43.08</ele>
        <time>2020-07-10T11:55:51Z</time>
      </trkpt>
      <trkpt lat="47.83122" lon="-3.42395">
        <ele>43.5</ele>
        <time>2020-07-10T11:55:52Z</time>
      </trkpt>
      <trkpt lat="47.83122" lon="-3.42392">
        <ele>43.86</ele>
        <time>2020-07-10T11:55:53Z</time>
      </trkpt>
      <trkpt lat="47.83122" lon="-3.42388">
        <ele>44.27</ele>
        <time>2020-07-10T11:55:54Z</time>
      </trkpt>
      <trkpt lat="47.83123" lon="-3.42386">
        <ele>44.61</ele>
        <time>2020-07-10T11:55:55Z</time>
      </trkpt>
      <trkpt lat="47.83123" lon="-3.42383">
        <ele>44.94</ele>
        <time>2020-07-10T11:55:56Z</time>
      </trkpt>
      <trkpt lat="47.83123" lon="-3.42381">
        <ele>45.25</ele>
        <time>2020-07-10T11:55:57Z</time>
      </trkpt>
      <trkpt lat="47.83124" lon="-3.42378">
        <ele>45.58</ele>
        <time>2020-07-10T11:55:58Z</time>
      </trkpt>
      <trkpt lat="47.83123" lon="-3.42375">
        <ele>45.9</ele>
        <time>2020-07-10T11:55:59Z</time>
      </trkpt>
      <trkpt lat="47.83122" lon="-3.42372">
        <ele>46.25</ele>
        <time>2020-07-10T11:56:00Z</time>
      </trkpt>
      <trkpt lat="47.83122" lon="-3.42369">
        <ele>46.59</ele>
        <time>2020-07-10T11:56:01Z</time>
      </trkpt>
      <trkpt lat="47.83122" lon="-3.42365">
        <ele>46.96</ele>
        <time>2020-07-10T11:56:02Z</time>
      </trkpt>
      <trkpt lat="47.83122" lon="-3.42362">
        <ele>47.34</ele>
        <time>2020-07-10T11:56:03Z</time>
      </trkpt>
      <trkpt lat="47.83122" lon="-3.42359">
        <ele>47.59</ele>
        <time>2020-07-10T11:56:04Z</time>
      </trkpt>
      <trkpt lat="47.83122" lon="-3.42354">
        <ele>47.78</ele>
        <time>2020-07-10T11:56:05Z</time>
      </trkpt>
      <trkpt lat="47.83122" lon="-3.4235">
        <ele>47.96</ele>
        <time>2020-07-10T11:56:06Z</time>
      </trkpt>
      <trkpt lat="47.83122" lon="-3.42346">
        <ele>48.11</ele>
        <time>2020-07-10T11:56:07Z</time>
      </trkpt>
      <trkpt lat="47.83122" lon="-3.42341">
        <ele>48.26</ele>
        <time>2020-07-10T11:56:08Z</time>
      </trkpt>
      <trkpt lat="47.83123" lon="-3.42337">
        <ele>48.38</ele>
        <time>2020-07-10T11:56:09Z</time>
      </trkpt>
      <trkpt lat="47.83124" lon="-3.42333">
        <ele>48.5</ele>
        <time>2020-07-10T11:56:10Z</time>
      </trkpt>
      <trkpt lat="47.83124" lon="-3.42329">
        <ele>48.57</ele>
        <time>2020-07-10T11:56:11Z</time>
      </trkpt>
      <trkpt lat="47.83125" lon="-3.42324">
        <ele>48.64</ele>
        <time>2020-07-10T11:56:12Z</time>
      </trkpt>
      <trkpt lat="47.83125" lon="-3.4232">
        <ele>48.7</ele>
        <time>2020-07-10T11:56:13Z</time>
      </trkpt>
      <trkpt lat="47.83126" lon="-3.42316">
        <ele>48.77</ele>
        <time>2020-07-10T11:56:14Z</time>
      </trkpt>
      <trkpt lat="47.83127" lon="-3.42313">
        <ele>48.83</ele>
        <time>2020-07-10T11:56:15Z</time>
      </trkpt>
      <trkpt lat="47.83127" lon="-3.42309">
        <ele>48.9</ele>
        <time>2020-07-10T11:56:16Z</time>
      </trkpt>
      <trkpt lat="47.83127" lon="-3.42304">
        <ele>48.99</ele>
        <time>2020-07-10T11:56:17Z</time>
      </trkpt>
      <trkpt lat="47.83128" lon="-3.423">
        <ele>49.05</ele>
        <time>2020-07-10T11:56:18Z</time>
      </trkpt>
      <trkpt lat="47.83128" lon="-3.42296">
        <ele>49.11</ele>
        <time>2020-07-10T11:56:19Z</time>
      </trkpt>
      <trkpt lat="47.83128" lon="-3.42293">
        <ele>49.16</ele>
        <time>2020-07-10T11:56:20Z</time>
      </trkpt>
      <trkpt lat="47.83128" lon="-3.42289">
        <ele>49.22</ele>
        <time>2020-07-10T11:56:21Z</time>
      </trkpt>
      <trkpt lat="47.83127" lon="-3.42284">
        <ele>49.29</ele>
        <time>2020-07-10T11:56:22Z</time>
      </trkpt>
      <trkpt lat="47.83127" lon="-3.4228">
        <ele>49.37</ele>
        <time>2020-07-10T11:56:23Z</time>
      </trkpt>
      <trkpt lat="47.83127" lon="-3.42276">
        <ele>49.41</ele>
        <time>2020-07-10T11:56:24Z</time>
      </trkpt>
      <trkpt lat="47.83127" lon="-3.4227">
        <ele>49.42</ele>
        <time>2020-07-10T11:56:25Z</time>
      </trkpt>
      <trkpt lat="47.83127" lon="-3.42267">
        <ele>49.43</ele>
        <time>2020-07-10T11:56:26Z</time>
      </trkpt>
      <trkpt lat="47.83126" lon="-3.42263">
        <ele>49.45</ele>
        <time>2020-07-10T11:56:27Z</time>
      </trkpt>
      <trkpt lat="47.83126" lon="-3.4226">
        <ele>49.46</ele>
        <time>2020-07-10T11:56:28Z</time>
      </trkpt>
      <trkpt lat="47.83127" lon="-3.42259">
        <ele>49.43</ele>
        <time>2020-07-10T11:56:29Z</time>
      </trkpt>
      <trkpt lat="47.83128" lon="-3.4226">
        <ele>49.41</ele>
        <time>2020-07-10T11:56:30Z</time>
      </trkpt>
      <trkpt lat="47.83127" lon="-3.42263">
        <ele>49.41</ele>
        <time>2020-07-10T11:56:31Z</time>
      </trkpt>
      <trkpt lat="47.83127" lon="-3.42266">
        <ele>49.42</ele>
        <time>2020-07-10T11:56:32Z</time>
      </trkpt>
      <trkpt lat="47.83127" lon="-3.4227">
        <ele>49.43</ele>
        <time>2020-07-10T11:56:33Z</time>
      </trkpt>
      <trkpt lat="47.83128" lon="-3.42274">
        <ele>49.4</ele>
        <time>2020-07-10T11:56:34Z</time>
      </trkpt>
      <trkpt lat="47.8313" lon="-3.42277">
        <ele>49.35</ele>
        <time>2020-07-10T11:56:35Z</time>
      </trkpt>
      <trkpt lat="47.83132" lon="-3.4228">
        <ele>49.27</ele>
        <time>2020-07-10T11:56:36Z</time>
      </trkpt>
      <trkpt lat="47.83136" lon="-3.42282">
        <ele>49.15</ele>
        <time>2020-07-10T11:56:37Z</time>
      </trkpt>
      <trkpt lat="47.8314" lon="-3.42282">
        <ele>48.96</ele>
        <time>2020-07-10T11:56:38Z</time>
      </trkpt>
      <trkpt lat="47.83145" lon="-3.42283">
        <ele>48.67</ele>
        <time>2020-07-10T11:56:39Z</time>
      </trkpt>
      <trkpt lat="47.83149" lon="-3.42283">
        <ele>48.31</ele>
        <time>2020-07-10T11:56:40Z</time>
      </trkpt>
      <trkpt lat="47.83155" lon="-3.42284">
        <ele>47.9</ele>
        <time>2020-07-10T11:56:41Z</time>
      </trkpt>
      <trkpt lat="47.83162" lon="-3.42284">
        <ele>47.38</ele>
        <time>2020-07-10T11:56:42Z</time>
      </trkpt>
      <trkpt lat="47.83169" lon="-3.42285">
        <ele>46.85</ele>
        <time>2020-07-10T11:56:43Z</time>
      </trkpt>
      <trkpt lat="47.83174" lon="-3.42286">
        <ele>46.42</ele>
        <time>2020-07-10T11:56:44Z</time>
      </trkpt>
      <trkpt lat="47.8318" lon="-3.42287">
        <ele>46.02</ele>
        <time>2020-07-10T11:56:45Z</time>
      </trkpt>
      <trkpt lat="47.83186" lon="-3.42286">
        <ele>45.65</ele>
        <time>2020-07-10T11:56:46Z</time>
      </trkpt>
      <trkpt lat="47.83192" lon="-3.42286">
        <ele>45.28</ele>
        <time>2020-07-10T11:56:47Z</time>
      </trkpt>
      <trkpt lat="47.83198" lon="-3.42286">
        <ele>44.95</ele>
        <time>2020-07-10T11:56:48Z</time>
      </trkpt>
      <trkpt lat="47.83205" lon="-3.42287">
        <ele>44.65</ele>
        <time>2020-07-10T11:56:49Z</time>
      </trkpt>
      <trkpt lat="47.83211" lon="-3.42288">
        <ele>44.33</ele>
        <time>2020-07-10T11:56:50Z</time>
      </trkpt>
      <trkpt lat="47.83218" lon="-3.42288">
        <ele>43.99</ele>
        <time>2020-07-10T11:56:51Z</time>
      </trkpt>
      <trkpt lat="47.83225" lon="-3.42289">
        <ele>43.66</ele>
        <time>2020-07-10T11:56:52Z</time>
      </trkpt>
      <trkpt lat="47.83232" lon="-3.42289">
        <ele>43.39</ele>
        <time>2020-07-10T11:56:53Z</time>
      </trkpt>
      <trkpt lat="47.83239" lon="-3.42289">
        <ele>43.13</ele>
        <time>2020-07-10T11:56:54Z</time>
      </trkpt>
      <trkpt lat="47.83245" lon="-3.42289">
        <ele>42.88</ele>
        <time>2020-07-10T11:56:55Z</time>
      </trkpt>
      <trkpt lat="47.83253" lon="-3.42288">
        <ele>42.64</ele>
        <time>2020-07-10T11:56:56Z</time>
      </trkpt>
      <trkpt lat="47.8326" lon="-3.42288">
        <ele>42.4</ele>
        <time>2020-07-10T11:56:57Z</time>
      </trkpt>
      <trkpt lat="47.83267" lon="-3.42288">
        <ele>42.15</ele>
        <time>2020-07-10T11:56:58Z</time>
      </trkpt>
      <trkpt lat="47.83274" lon="-3.42288">
        <ele>41.9</ele>
        <time>2020-07-10T11:56:59Z</time>
      </trkpt>
      <trkpt lat="47.8328" lon="-3.42288">
        <ele>41.65</ele>
        <time>2020-07-10T11:57:00Z</time>
      </trkpt>
      <trkpt lat="47.83287" lon="-3.42289">
        <ele>41.4</ele>
        <time>2020-07-10T11:57:01Z</time>
      </trkpt>
      <trkpt lat="47.83293" lon="-3.4229">
        <ele>41.11</ele>
        <time>2020-07-10T11:57:02Z</time>
      </trkpt>
      <trkpt lat="47.833" lon="-3.42292">
        <ele>40.83</ele>
        <time>2020-07-10T11:57:03Z</time>
      </trkpt>
      <trkpt lat="47.83306" lon="-3.42294">
        <ele>40.52</ele>
        <time>2020-07-10T11:57:04Z</time>
      </trkpt>
      <trkpt lat="47.83313" lon="-3.42298">
        <ele>40.17</ele>
        <time>2020-07-10T11:57:05Z</time>
      </trkpt>
      <trkpt lat="47.8332" lon="-3.423">
        <ele>39.83</ele>
        <time>2020-07-10T11:57:06Z</time>
      </trkpt>
      <trkpt lat="47.83326" lon="-3.42302">
        <ele>39.52</ele>
        <time>2020-07-10T11:57:07Z</time>
      </trkpt>
      <trkpt lat="47.83332" lon="-3.42305">
        <ele>39.2</ele>
        <time>2020-07-10T11:57:08Z</time>
      </trkpt>
      <trkpt lat="47.83339" lon="-3.42309">
        <ele>39.04</ele>
        <time>2020-07-10T11:57:09Z</time>
      </trkpt>
      <trkpt lat="47.83345" lon="-3.42312">
        <ele>38.94</ele>
        <time>2020-07-10T11:57:10Z</time>
      </trkpt>
      <trkpt lat="47.8335" lon="-3.42316">
        <ele>38.83</ele>
        <time>2020-07-10T11:57:11Z</time>
      </trkpt>
      <trkpt lat="47.83356" lon="-3.42319">
        <ele>38.67</ele>
        <time>2020-07-10T11:57:12Z</time>
      </trkpt>
      <trkpt lat="47.83361" lon="-3.42322">
        <ele>38.5</ele>
        <time>2020-07-10T11:57:13Z</time>
      </trkpt>
      <trkpt lat="47.83366" lon="-3.42324">
        <ele>38.39</ele>
        <time>2020-07-10T11:57:14Z</time>
      </trkpt>
      <trkpt lat="47.83371" lon="-3.42326">
        <ele>38.3</ele>
        <time>2020-07-10T11:57:15Z</time>
      </trkpt>
      <trkpt lat="47.83377" lon="-3.42329">
        <ele>38.21</ele>
        <time>2020-07-10T11:57:16Z</time>
      </trkpt>
      <trkpt lat="47.83382" lon="-3.4233">
        <ele>38.13</ele>
        <time>2020-07-10T11:57:17Z</time>
      </trkpt>
      <trkpt lat="47.83386" lon="-3.42332">
        <ele>38.07</ele>
        <time>2020-07-10T11:57:18Z</time>
      </trkpt>
      <trkpt lat="47.83392" lon="-3.42334">
        <ele>38.07</ele>
        <time>2020-07-10T11:57:19Z</time>
      </trkpt>
      <trkpt lat="47.83396" lon="-3.42335">
        <ele>38.17</ele>
        <time>2020-07-10T11:57:20Z</time>
      </trkpt>
      <trkpt lat="47.83402" lon="-3.42335">
        <ele>38.31</ele>
        <time>2020-07-10T11:57:21Z</time>
      </trkpt>
      <trkpt lat="47.83405" lon="-3.42336">
        <ele>38.45</ele>
        <time>2020-07-10T11:57:22Z</time>
      </trkpt>
      <trkpt lat="47.83408" lon="-3.42335">
        <ele>38.55</ele>
        <time>2020-07-10T11:57:23Z</time>
      </trkpt>
      <trkpt lat="47.83408" lon="-3.42336">
        <ele>38.59</ele>
        <time>2020-07-10T11:57:24Z</time>
      </trkpt>
      <trkpt lat="47.83408" lon="-3.42336">
        <ele>38.59</ele>
        <time>2020-07-10T11:57:25Z</time>
      </trkpt>
      <trkpt lat="47.83408" lon="-3.42336">
        <ele>38.59</ele>
        <time>2020-07-10T11:57:26Z</time>
      </trkpt>
      <trkpt lat="47.83408" lon="-3.42336">
        <ele>38.59</ele>
        <time>2020-07-10T11:57:27Z</time>
      </trkpt>
      <trkpt lat="47.83408" lon="-3.42336">
        <ele>38.59</ele>
        <time>2020-07-10T11:57:28Z</time>
      </trkpt>
      <trkpt lat="47.83408" lon="-3.42336">
        <ele>38.59</ele>
        <time>2020-07-10T11:57:29Z</time>
      </trkpt>
      <trkpt lat="47.83408" lon="-3.42336">
        <ele>38.59</ele>
        <time>2020-07-10T11:57:30Z</time>
      </trkpt>
      <trkpt lat="47.83408" lon="-3.42336">
        <ele>38.59</ele>
        <time>2020-07-10T11:57:31Z</time>
      </trkpt>
      <trkpt lat="47.83408" lon="-3.42336">
        <ele>38.59</ele>
        <time>2020-07-10T11:57:32Z</time>
      </trkpt>
      <trkpt lat="47.83408" lon="-3.42336">
        <ele>38.59</ele>
        <time>2020-07-10T11:57:33Z</time>
      </trkpt>
      <trkpt lat="47.83408" lon="-3.42336">
        <ele>38.59</ele>
        <time>2020-07-10T11:57:34Z</time>
      </trkpt>
      <trkpt lat="47.83408" lon="-3.42336">
        <ele>38.59</ele>
        <time>2020-07-10T11:57:35Z</time>
      </trkpt>
      <trkpt lat="47.83408" lon="-3.42336">
        <ele>38.59</ele>
        <time>2020-07-10T11:57:36Z</time>
      </trkpt>
      <trkpt lat="47.83408" lon="-3.42336">
        <ele>38.59</ele>
        <time>2020-07-10T11:57:37Z</time>
      </trkpt>
      <trkpt lat="47.83408" lon="-3.42336">
        <ele>38.59</ele>
        <time>2020-07-10T11:57:38Z</time>
      </trkpt>
      <trkpt lat="47.83408" lon="-3.42336">
        <ele>38.59</ele>
        <time>2020-07-10T11:57:39Z</time>
      </trkpt>
      <trkpt lat="47.83408" lon="-3.42336">
        <ele>38.59</ele>
        <time>2020-07-10T11:57:40Z</time>
      </trkpt>
      <trkpt lat="47.83408" lon="-3.42336">
        <ele>38.59</ele>
        <time>2020-07-10T11:57:41Z</time>
      </trkpt>
      <trkpt lat="47.83408" lon="-3.42336">
        <ele>38.59</ele>
        <time>2020-07-10T11:57:42Z</time>
      </trkpt>
      <trkpt lat="47.83408" lon="-3.42336">
        <ele>38.59</ele>
        <time>2020-07-10T11:57:43Z</time>
      </trkpt>
      <trkpt lat="47.83408" lon="-3.42336">
        <ele>38.59</ele>
        <time>2020-07-10T11:57:44Z</time>
      </trkpt>
      <trkpt lat="47.83408" lon="-3.42336">
        <ele>38.59</ele>
        <time>2020-07-10T11:57:45Z</time>
      </trkpt>
      <trkpt lat="47.83408" lon="-3.42336">
        <ele>38.59</ele>
        <time>2020-07-10T11:57:46Z</time>
      </trkpt>
      <trkpt lat="47.83408" lon="-3.42336">
        <ele>38.59</ele>
        <time>2020-07-10T11:57:47Z</time>
      </trkpt>
      <trkpt lat="47.83408" lon="-3.42336">
        <ele>38.59</ele>
        <time>2020-07-10T11:57:48Z</time>
      </trkpt>
      <trkpt lat="47.83408" lon="-3.42336">
        <ele>38.59</ele>
        <time>2020-07-10T11:57:49Z</time>
      </trkpt>
      <trkpt lat="47.83408" lon="-3.42336">
        <ele>38.59</ele>
        <time>2020-07-10T11:57:50Z</time>
      </trkpt>
      <trkpt lat="47.83408" lon="-3.42336">
        <ele>38.59</ele>
        <time>2020-07-10T11:57:51Z</time>
      </trkpt>
      <trkpt lat="47.83408" lon="-3.42336">
        <ele>38.59</ele>
        <time>2020-07-10T11:57:52Z</time>
      </trkpt>
      <trkpt lat="47.83408" lon="-3.42336">
        <ele>38.59</ele>
        <time>2020-07-10T11:57:53Z</time>
      </trkpt>
      <trkpt lat="47.83408" lon="-3.42336">
        <ele>38.59</ele>
        <time>2020-07-10T11:57:54Z</time>
      </trkpt>
      <trkpt lat="47.83408" lon="-3.42336">
        <ele>38.59</ele>
        <time>2020-07-10T11:57:55Z</time>
      </trkpt>
      <trkpt lat="47.83408" lon="-3.42336">
        <ele>38.59</ele>
        <time>2020-07-10T11:57:56Z</time>
      </trkpt>
      <trkpt lat="47.83408" lon="-3.42336">
        <ele>38.59</ele>
        <time>2020-07-10T11:57:57Z</time>
      </trkpt>
      <trkpt lat="47.83408" lon="-3.42336">
        <ele>38.59</ele>
        <time>2020-07-10T11:57:58Z</time>
      </trkpt>
      <trkpt lat="47.83408" lon="-3.42336">
        <ele>38.59</ele>
        <time>2020-07-10T11:57:59Z</time>
      </trkpt>
      <trkpt lat="47.83408" lon="-3.42336">
        <ele>38.59</ele>
        <time>2020-07-10T11:58:00Z</time>
      </trkpt>
      <trkpt lat="47.83408" lon="-3.42336">
        <ele>38.59</ele>
        <time>2020-07-10T11:58:01Z</time>
      </trkpt>
      <trkpt lat="47.83408" lon="-3.42336">
        <ele>38.59</ele>
        <time>2020-07-10T11:58:02Z</time>
      </trkpt>
      <trkpt lat="47.83408" lon="-3.42336">
        <ele>38.59</ele>
        <time>2020-07-10T11:58:03Z</time>
      </trkpt>
      <trkpt lat="47.83413" lon="-3.42338">
        <ele>38.67</ele>
        <time>2020-07-10T11:58:04Z</time>
      </trkpt>
      <trkpt lat="47.83416" lon="-3.42341">
        <ele>38.69</ele>
        <time>2020-07-10T11:58:05Z</time>
      </trkpt>
      <trkpt lat="47.83419" lon="-3.42346">
        <ele>38.53</ele>
        <time>2020-07-10T11:58:06Z</time>
      </trkpt>
      <trkpt lat="47.83421" lon="-3.42352">
        <ele>38.26</ele>
        <time>2020-07-10T11:58:07Z</time>
      </trkpt>
      <trkpt lat="47.83423" lon="-3.4236">
        <ele>37.95</ele>
        <time>2020-07-10T11:58:08Z</time>
      </trkpt>
      <trkpt lat="47.83426" lon="-3.42366">
        <ele>37.68</ele>
        <time>2020-07-10T11:58:09Z</time>
      </trkpt>
      <trkpt lat="47.83428" lon="-3.42372">
        <ele>37.45</ele>
        <time>2020-07-10T11:58:10Z</time>
      </trkpt>
      <trkpt lat="47.83431" lon="-3.42378">
        <ele>37.27</ele>
        <time>2020-07-10T11:58:11Z</time>
      </trkpt>
      <trkpt lat="47.83433" lon="-3.42384">
        <ele>37.13</ele>
        <time>2020-07-10T11:58:12Z</time>
      </trkpt>
      <trkpt lat="47.83436" lon="-3.4239">
        <ele>37.01</ele>
        <time>2020-07-10T11:58:13Z</time>
      </trkpt>
      <trkpt lat="47.83439" lon="-3.42395">
        <ele>36.84</ele>
        <time>2020-07-10T11:58:14Z</time>
      </trkpt>
      <trkpt lat="47.83442" lon="-3.42401">
        <ele>36.65</ele>
        <time>2020-07-10T11:58:15Z</time>
      </trkpt>
      <trkpt lat="47.83445" lon="-3.42406">
        <ele>36.45</ele>
        <time>2020-07-10T11:58:16Z</time>
      </trkpt>
      <trkpt lat="47.83448" lon="-3.42411">
        <ele>36.25</ele>
        <time>2020-07-10T11:58:17Z</time>
      </trkpt>
      <trkpt lat="47.83451" lon="-3.42417">
        <ele>36.07</ele>
        <time>2020-07-10T11:58:18Z</time>
      </trkpt>
      <trkpt lat="47.83453" lon="-3.42422">
        <ele>36.02</ele>
        <time>2020-07-10T11:58:19Z</time>
      </trkpt>
      <trkpt lat="47.83455" lon="-3.42426">
        <ele>36.01</ele>
        <time>2020-07-10T11:58:20Z</time>
      </trkpt>
      <trkpt lat="47.83458" lon="-3.42431">
        <ele>36</ele>
        <time>2020-07-10T11:58:21Z</time>
      </trkpt>
      <trkpt lat="47.83461" lon="-3.42435">
        <ele>36</ele>
        <time>2020-07-10T11:58:22Z</time>
      </trkpt>
      <trkpt lat="47.83464" lon="-3.42438">
        <ele>36</ele>
        <time>2020-07-10T11:58:23Z</time>
      </trkpt>
      <trkpt lat="47.83467" lon="-3.42443">
        <ele>36</ele>
        <time>2020-07-10T11:58:24Z</time>
      </trkpt>
      <trkpt lat="47.8347" lon="-3.42447">
        <ele>35.93</ele>
        <time>2020-07-10T11:58:25Z</time>
      </trkpt>
      <trkpt lat="47.83471" lon="-3.42452">
        <ele>35.78</ele>
        <time>2020-07-10T11:58:26Z</time>
      </trkpt>
      <trkpt lat="47.83474" lon="-3.42457">
        <ele>35.6</ele>
        <time>2020-07-10T11:58:27Z</time>
      </trkpt>
      <trkpt lat="47.83476" lon="-3.42462">
        <ele>35.41</ele>
        <time>2020-07-10T11:58:28Z</time>
      </trkpt>
      <trkpt lat="47.83478" lon="-3.42467">
        <ele>35.24</ele>
        <time>2020-07-10T11:58:29Z</time>
      </trkpt>
      <trkpt lat="47.8348" lon="-3.42471">
        <ele>35.09</ele>
        <time>2020-07-10T11:58:30Z</time>
      </trkpt>
      <trkpt lat="47.83482" lon="-3.42476">
        <ele>35.03</ele>
        <time>2020-07-10T11:58:31Z</time>
      </trkpt>
      <trkpt lat="47.83485" lon="-3.42481">
        <ele>35.01</ele>
        <time>2020-07-10T11:58:32Z</time>
      </trkpt>
      <trkpt lat="47.83488" lon="-3.42485">
        <ele>35</ele>
        <time>2020-07-10T11:58:33Z</time>
      </trkpt>
      <trkpt lat="47.8349" lon="-3.4249">
        <ele>35</ele>
        <time>2020-07-10T11:58:34Z</time>
      </trkpt>
      <trkpt lat="47.83494" lon="-3.42495">
        <ele>35</ele>
        <time>2020-07-10T11:58:35Z</time>
      </trkpt>
      <trkpt lat="47.83497" lon="-3.425">
        <ele>35</ele>
        <time>2020-07-10T11:58:36Z</time>
      </trkpt>
      <trkpt lat="47.835" lon="-3.42505">
        <ele>35</ele>
        <time>2020-07-10T11:58:37Z</time>
      </trkpt>
      <trkpt lat="47.83503" lon="-3.42511">
        <ele>35</ele>
        <time>2020-07-10T11:58:38Z</time>
      </trkpt>
      <trkpt lat="47.83506" lon="-3.42516">
        <ele>35</ele>
        <time>2020-07-10T11:58:39Z</time>
      </trkpt>
      <trkpt lat="47.83509" lon="-3.42522">
        <ele>35</ele>
        <time>2020-07-10T11:58:40Z</time>
      </trkpt>
      <trkpt lat="47.83512" lon="-3.42527">
        <ele>35</ele>
        <time>2020-07-10T11:58:41Z</time>
      </trkpt>
      <trkpt lat="47.83515" lon="-3.42533">
        <ele>35</ele>
        <time>2020-07-10T11:58:42Z</time>
      </trkpt>
      <trkpt lat="47.83518" lon="-3.42538">
        <ele>35</ele>
        <time>2020-07-10T11:58:43Z</time>
      </trkpt>
      <trkpt lat="47.83521" lon="-3.42543">
        <ele>35</ele>
        <time>2020-07-10T11:58:44Z</time>
      </trkpt>
      <trkpt lat="47.83524" lon="-3.42548">
        <ele>35</ele>
        <time>2020-07-10T11:58:45Z</time>
      </trkpt>
      <trkpt lat="47.83527" lon="-3.42553">
        <ele>35</ele>
        <time>2020-07-10T11:58:46Z</time>
      </trkpt>
      <trkpt lat="47.8353" lon="-3.42558">
        <ele>34.95</ele>
        <time>2020-07-10T11:58:47Z</time>
      </trkpt>
      <trkpt lat="47.83532" lon="-3.42564">
        <ele>34.87</ele>
        <time>2020-07-10T11:58:48Z</time>
      </trkpt>
      <trkpt lat="47.83535" lon="-3.42569">
        <ele>34.78</ele>
        <time>2020-07-10T11:58:49Z</time>
      </trkpt>
      <trkpt lat="47.83538" lon="-3.42574">
        <ele>34.68</ele>
        <time>2020-07-10T11:58:50Z</time>
      </trkpt>
      <trkpt lat="47.83541" lon="-3.4258">
        <ele>34.57</ele>
        <time>2020-07-10T11:58:51Z</time>
      </trkpt>
      <trkpt lat="47.83545" lon="-3.42585">
        <ele>34.48</ele>
        <time>2020-07-10T11:58:52Z</time>
      </trkpt>
      <trkpt lat="47.83548" lon="-3.42591">
        <ele>34.48</ele>
        <time>2020-07-10T11:58:53Z</time>
      </trkpt>
      <trkpt lat="47.8355" lon="-3.42597">
        <ele>34.54</ele>
        <time>2020-07-10T11:58:54Z</time>
      </trkpt>
      <trkpt lat="47.83553" lon="-3.42602">
        <ele>34.65</ele>
        <time>2020-07-10T11:58:55Z</time>
      </trkpt>
      <trkpt lat="47.83556" lon="-3.42607">
        <ele>34.77</ele>
        <time>2020-07-10T11:58:56Z</time>
      </trkpt>
      <trkpt lat="47.83559" lon="-3.42613">
        <ele>34.84</ele>
        <time>2020-07-10T11:58:57Z</time>
      </trkpt>
      <trkpt lat="47.83562" lon="-3.42619">
        <ele>34.79</ele>
        <time>2020-07-10T11:58:58Z</time>
      </trkpt>
      <trkpt lat="47.83565" lon="-3.42625">
        <ele>34.7</ele>
        <time>2020-07-10T11:58:59Z</time>
      </trkpt>
      <trkpt lat="47.83569" lon="-3.42631">
        <ele>34.58</ele>
        <time>2020-07-10T11:59:00Z</time>
      </trkpt>
      <trkpt lat="47.83572" lon="-3.42637">
        <ele>34.46</ele>
        <time>2020-07-10T11:59:01Z</time>
      </trkpt>
      <trkpt lat="47.83575" lon="-3.42643">
        <ele>34.41</ele>
        <time>2020-07-10T11:59:02Z</time>
      </trkpt>
      <trkpt lat="47.83579" lon="-3.4265">
        <ele>34.47</ele>
        <time>2020-07-10T11:59:03Z</time>
      </trkpt>
      <trkpt lat="47.83582" lon="-3.42656">
        <ele>34.58</ele>
        <time>2020-07-10T11:59:04Z</time>
      </trkpt>
      <trkpt lat="47.83586" lon="-3.42662">
        <ele>34.71</ele>
        <time>2020-07-10T11:59:05Z</time>
      </trkpt>
      <trkpt lat="47.83589" lon="-3.42668">
        <ele>34.77</ele>
        <time>2020-07-10T11:59:06Z</time>
      </trkpt>
      <trkpt lat="47.83593" lon="-3.42674">
        <ele>34.75</ele>
        <time>2020-07-10T11:59:07Z</time>
      </trkpt>
      <trkpt lat="47.83597" lon="-3.4268">
        <ele>34.75</ele>
        <time>2020-07-10T11:59:08Z</time>
      </trkpt>
      <trkpt lat="47.83601" lon="-3.42687">
        <ele>34.8</ele>
        <time>2020-07-10T11:59:09Z</time>
      </trkpt>
      <trkpt lat="47.83605" lon="-3.42693">
        <ele>34.92</ele>
        <time>2020-07-10T11:59:10Z</time>
      </trkpt>
      <trkpt lat="47.83609" lon="-3.42699">
        <ele>35.09</ele>
        <time>2020-07-10T11:59:11Z</time>
      </trkpt>
      <trkpt lat="47.83612" lon="-3.42705">
        <ele>35.3</ele>
        <time>2020-07-10T11:59:12Z</time>
      </trkpt>
      <trkpt lat="47.83615" lon="-3.42711">
        <ele>35.51</ele>
        <time>2020-07-10T11:59:13Z</time>
      </trkpt>
      <trkpt lat="47.83618" lon="-3.42717">
        <ele>35.73</ele>
        <time>2020-07-10T11:59:14Z</time>
      </trkpt>
      <trkpt lat="47.83622" lon="-3.42723">
        <ele>35.92</ele>
        <time>2020-07-10T11:59:15Z</time>
      </trkpt>
      <trkpt lat="47.83626" lon="-3.4273">
        <ele>35.98</ele>
        <time>2020-07-10T11:59:16Z</time>
      </trkpt>
      <trkpt lat="47.83629" lon="-3.42736">
        <ele>35.99</ele>
        <time>2020-07-10T11:59:17Z</time>
      </trkpt>
      <trkpt lat="47.83633" lon="-3.42743">
        <ele>36</ele>
        <time>2020-07-10T11:59:18Z</time>
      </trkpt>
      <trkpt lat="47.83637" lon="-3.42749">
        <ele>36</ele>
        <time>2020-07-10T11:59:19Z</time>
      </trkpt>
      <trkpt lat="47.8364" lon="-3.42756">
        <ele>36.15</ele>
        <time>2020-07-10T11:59:20Z</time>
      </trkpt>
      <trkpt lat="47.83644" lon="-3.42762">
        <ele>36.36</ele>
        <time>2020-07-10T11:59:21Z</time>
      </trkpt>
      <trkpt lat="47.83648" lon="-3.42769">
        <ele>36.59</ele>
        <time>2020-07-10T11:59:22Z</time>
      </trkpt>
      <trkpt lat="47.83651" lon="-3.42775">
        <ele>36.81</ele>
        <time>2020-07-10T11:59:23Z</time>
      </trkpt>
      <trkpt lat="47.83655" lon="-3.42782">
        <ele>36.94</ele>
        <time>2020-07-10T11:59:24Z</time>
      </trkpt>
      <trkpt lat="47.83659" lon="-3.42788">
        <ele>36.98</ele>
        <time>2020-07-10T11:59:25Z</time>
      </trkpt>
      <trkpt lat="47.83663" lon="-3.42794">
        <ele>36.99</ele>
        <time>2020-07-10T11:59:26Z</time>
      </trkpt>
      <trkpt lat="47.83667" lon="-3.428">
        <ele>37</ele>
        <time>2020-07-10T11:59:27Z</time>
      </trkpt>
      <trkpt lat="47.8367" lon="-3.42806">
        <ele>37</ele>
        <time>2020-07-10T11:59:28Z</time>
      </trkpt>
      <trkpt lat="47.83673" lon="-3.42812">
        <ele>37.15</ele>
        <time>2020-07-10T11:59:29Z</time>
      </trkpt>
      <trkpt lat="47.83677" lon="-3.42818">
        <ele>37.35</ele>
        <time>2020-07-10T11:59:30Z</time>
      </trkpt>
      <trkpt lat="47.8368" lon="-3.42824">
        <ele>37.56</ele>
        <time>2020-07-10T11:59:31Z</time>
      </trkpt>
      <trkpt lat="47.83684" lon="-3.4283">
        <ele>37.79</ele>
        <time>2020-07-10T11:59:32Z</time>
      </trkpt>
      <trkpt lat="47.83687" lon="-3.42837">
        <ele>37.87</ele>
        <time>2020-07-10T11:59:33Z</time>
      </trkpt>
      <trkpt lat="47.8369" lon="-3.42844">
        <ele>37.74</ele>
        <time>2020-07-10T11:59:34Z</time>
      </trkpt>
      <trkpt lat="47.83692" lon="-3.42851">
        <ele>37.51</ele>
        <time>2020-07-10T11:59:35Z</time>
      </trkpt>
      <trkpt lat="47.83695" lon="-3.42859">
        <ele>37.21</ele>
        <time>2020-07-10T11:59:36Z</time>
      </trkpt>
      <trkpt lat="47.83698" lon="-3.42866">
        <ele>37.05</ele>
        <time>2020-07-10T11:59:37Z</time>
      </trkpt>
      <trkpt lat="47.837" lon="-3.42874">
        <ele>36.94</ele>
        <time>2020-07-10T11:59:38Z</time>
      </trkpt>
      <trkpt lat="47.83704" lon="-3.42881">
        <ele>36.82</ele>
        <time>2020-07-10T11:59:39Z</time>
      </trkpt>
      <trkpt lat="47.83707" lon="-3.42889">
        <ele>36.64</ele>
        <time>2020-07-10T11:59:40Z</time>
      </trkpt>
      <trkpt lat="47.8371" lon="-3.42896">
        <ele>36.4</ele>
        <time>2020-07-10T11:59:41Z</time>
      </trkpt>
      <trkpt lat="47.83713" lon="-3.42904">
        <ele>36.1</ele>
        <time>2020-07-10T11:59:42Z</time>
      </trkpt>
      <trkpt lat="47.83717" lon="-3.42911">
        <ele>35.72</ele>
        <time>2020-07-10T11:59:43Z</time>
      </trkpt>
      <trkpt lat="47.8372" lon="-3.42918">
        <ele>35.28</ele>
        <time>2020-07-10T11:59:44Z</time>
      </trkpt>
      <trkpt lat="47.83723" lon="-3.42926">
        <ele>34.85</ele>
        <time>2020-07-10T11:59:45Z</time>
      </trkpt>
      <trkpt lat="47.83727" lon="-3.42933">
        <ele>34.47</ele>
        <time>2020-07-10T11:59:46Z</time>
      </trkpt>
      <trkpt lat="47.8373" lon="-3.42942">
        <ele>34.04</ele>
        <time>2020-07-10T11:59:47Z</time>
      </trkpt>
      <trkpt lat="47.83733" lon="-3.42949">
        <ele>33.6</ele>
        <time>2020-07-10T11:59:48Z</time>
      </trkpt>
      <trkpt lat="47.83737" lon="-3.42957">
        <ele>33.19</ele>
        <time>2020-07-10T11:59:49Z</time>
      </trkpt>
      <trkpt lat="47.83741" lon="-3.42965">
        <ele>32.77</ele>
        <time>2020-07-10T11:59:50Z</time>
      </trkpt>
      <trkpt lat="47.83744" lon="-3.42973">
        <ele>32.34</ele>
        <time>2020-07-10T11:59:51Z</time>
      </trkpt>
      <trkpt lat="47.83747" lon="-3.42982">
        <ele>31.91</ele>
        <time>2020-07-10T11:59:52Z</time>
      </trkpt>
      <trkpt lat="47.83751" lon="-3.4299">
        <ele>31.47</ele>
        <time>2020-07-10T11:59:53Z</time>
      </trkpt>
      <trkpt lat="47.83755" lon="-3.42998">
        <ele>30.93</ele>
        <time>2020-07-10T11:59:54Z</time>
      </trkpt>
      <trkpt lat="47.8376" lon="-3.43007">
        <ele>30.31</ele>
        <time>2020-07-10T11:59:55Z</time>
      </trkpt>
      <trkpt lat="47.83764" lon="-3.43015">
        <ele>29.9</ele>
        <time>2020-07-10T11:59:56Z</time>
      </trkpt>
      <trkpt lat="47.83767" lon="-3.43024">
        <ele>29.72</ele>
        <time>2020-07-10T11:59:57Z</time>
      </trkpt>
      <trkpt lat="47.83771" lon="-3.43032">
        <ele>29.62</ele>
        <time>2020-07-10T11:59:58Z</time>
      </trkpt>
      <trkpt lat="47.83775" lon="-3.4304">
        <ele>29.47</ele>
        <time>2020-07-10T11:59:59Z</time>
      </trkpt>
      <trkpt lat="47.83779" lon="-3.43049">
        <ele>29.3</ele>
        <time>2020-07-10T12:00:00Z</time>
      </trkpt>
      <trkpt lat="47.83782" lon="-3.43058">
        <ele>29.05</ele>
        <time>2020-07-10T12:00:01Z</time>
      </trkpt>
      <trkpt lat="47.83786" lon="-3.43067">
        <ele>28.9</ele>
        <time>2020-07-10T12:00:02Z</time>
      </trkpt>
      <trkpt lat="47.8379" lon="-3.43075">
        <ele>28.91</ele>
        <time>2020-07-10T12:00:03Z</time>
      </trkpt>
      <trkpt lat="47.83793" lon="-3.43083">
        <ele>29.05</ele>
        <time>2020-07-10T12:00:04Z</time>
      </trkpt>
      <trkpt lat="47.83797" lon="-3.4309">
        <ele>29.27</ele>
        <time>2020-07-10T12:00:05Z</time>
      </trkpt>
      <trkpt lat="47.83799" lon="-3.43097">
        <ele>29.47</ele>
        <time>2020-07-10T12:00:06Z</time>
      </trkpt>
      <trkpt lat="47.83802" lon="-3.43103">
        <ele>29.68</ele>
        <time>2020-07-10T12:00:07Z</time>
      </trkpt>
      <trkpt lat="47.83805" lon="-3.43109">
        <ele>29.87</ele>
        <time>2020-07-10T12:00:08Z</time>
      </trkpt>
      <trkpt lat="47.83807" lon="-3.43114">
        <ele>29.91</ele>
        <time>2020-07-10T12:00:09Z</time>
      </trkpt>
      <trkpt lat="47.83809" lon="-3.43119">
        <ele>29.89</ele>
        <time>2020-07-10T12:00:10Z</time>
      </trkpt>
      <trkpt lat="47.83811" lon="-3.43123">
        <ele>29.86</ele>
        <time>2020-07-10T12:00:11Z</time>
      </trkpt>
      <trkpt lat="47.83813" lon="-3.43127">
        <ele>29.86</ele>
        <time>2020-07-10T12:00:12Z</time>
      </trkpt>
      <trkpt lat="47.83816" lon="-3.43131">
        <ele>29.92</ele>
        <time>2020-07-10T12:00:13Z</time>
      </trkpt>
      <trkpt lat="47.83819" lon="-3.43134">
        <ele>30.02</ele>
        <time>2020-07-10T12:00:14Z</time>
      </trkpt>
      <trkpt lat="47.83822" lon="-3.43138">
        <ele>30.16</ele>
        <time>2020-07-10T12:00:15Z</time>
      </trkpt>
      <trkpt lat="47.83826" lon="-3.43141">
        <ele>30.36</ele>
        <time>2020-07-10T12:00:16Z</time>
      </trkpt>
      <trkpt lat="47.83831" lon="-3.43144">
        <ele>30.56</ele>
        <time>2020-07-10T12:00:17Z</time>
      </trkpt>
      <trkpt lat="47.83836" lon="-3.43145">
        <ele>30.72</ele>
        <time>2020-07-10T12:00:18Z</time>
      </trkpt>
      <trkpt lat="47.83841" lon="-3.43146">
        <ele>30.78</ele>
        <time>2020-07-10T12:00:19Z</time>
      </trkpt>
      <trkpt lat="47.83845" lon="-3.43146">
        <ele>30.84</ele>
        <time>2020-07-10T12:00:20Z</time>
      </trkpt>
      <trkpt lat="47.83849" lon="-3.43145">
        <ele>30.88</ele>
        <time>2020-07-10T12:00:21Z</time>
      </trkpt>
      <trkpt lat="47.83853" lon="-3.43144">
        <ele>30.93</ele>
        <time>2020-07-10T12:00:22Z</time>
      </trkpt>
      <trkpt lat="47.83857" lon="-3.43143">
        <ele>30.96</ele>
        <time>2020-07-10T12:00:23Z</time>
      </trkpt>
      <trkpt lat="47.8386" lon="-3.43142">
        <ele>30.99</ele>
        <time>2020-07-10T12:00:24Z</time>
      </trkpt>
      <trkpt lat="47.83863" lon="-3.4314">
        <ele>31</ele>
        <time>2020-07-10T12:00:25Z</time>
      </trkpt>
      <trkpt lat="47.83865" lon="-3.43139">
        <ele>31</ele>
        <time>2020-07-10T12:00:26Z</time>
      </trkpt>
      <trkpt lat="47.83869" lon="-3.43138">
        <ele>31</ele>
        <time>2020-07-10T12:00:27Z</time>
      </trkpt>
      <trkpt lat="47.83872" lon="-3.43136">
        <ele>31</ele>
        <time>2020-07-10T12:00:28Z</time>
      </trkpt>
      <trkpt lat="47.83875" lon="-3.43136">
        <ele>31</ele>
        <time>2020-07-10T12:00:29Z</time>
      </trkpt>
      <trkpt lat="47.83878" lon="-3.43135">
        <ele>31</ele>
        <time>2020-07-10T12:00:30Z</time>
      </trkpt>
      <trkpt lat="47.83881" lon="-3.43134">
        <ele>31</ele>
        <time>2020-07-10T12:00:31Z</time>
      </trkpt>
      <trkpt lat="47.83884" lon="-3.43132">
        <ele>31</ele>
        <time>2020-07-10T12:00:32Z</time>
      </trkpt>
      <trkpt lat="47.83888" lon="-3.4313">
        <ele>31</ele>
        <time>2020-07-10T12:00:33Z</time>
      </trkpt>
      <trkpt lat="47.83892" lon="-3.43129">
        <ele>31</ele>
        <time>2020-07-10T12:00:34Z</time>
      </trkpt>
      <trkpt lat="47.83897" lon="-3.43127">
        <ele>31</ele>
        <time>2020-07-10T12:00:35Z</time>
      </trkpt>
      <trkpt lat="47.83901" lon="-3.43125">
        <ele>31</ele>
        <time>2020-07-10T12:00:36Z</time>
      </trkpt>
      <trkpt lat="47.83906" lon="-3.43124">
        <ele>31</ele>
        <time>2020-07-10T12:00:37Z</time>
      </trkpt>
      <trkpt lat="47.83911" lon="-3.43124">
        <ele>31</ele>
        <time>2020-07-10T12:00:38Z</time>
      </trkpt>
      <trkpt lat="47.83916" lon="-3.43123">
        <ele>31</ele>
        <time>2020-07-10T12:00:39Z</time>
      </trkpt>
      <trkpt lat="47.8392" lon="-3.43122">
        <ele>31</ele>
        <time>2020-07-10T12:00:40Z</time>
      </trkpt>
      <trkpt lat="47.83924" lon="-3.43122">
        <ele>31</ele>
        <time>2020-07-10T12:00:41Z</time>
      </trkpt>
      <trkpt lat="47.83928" lon="-3.43122">
        <ele>31</ele>
        <time>2020-07-10T12:00:42Z</time>
      </trkpt>
      <trkpt lat="47.83932" lon="-3.43121">
        <ele>31</ele>
        <time>2020-07-10T12:00:43Z</time>
      </trkpt>
      <trkpt lat="47.83935" lon="-3.43121">
        <ele>31</ele>
        <time>2020-07-10T12:00:44Z</time>
      </trkpt>
      <trkpt lat="47.83939" lon="-3.43121">
        <ele>31</ele>
        <time>2020-07-10T12:00:45Z</time>
      </trkpt>
      <trkpt lat="47.83943" lon="-3.43122">
        <ele>31</ele>
        <time>2020-07-10T12:00:46Z</time>
      </trkpt>
      <trkpt lat="47.83947" lon="-3.43123">
        <ele>31</ele>
        <time>2020-07-10T12:00:47Z</time>
      </trkpt>
      <trkpt lat="47.83951" lon="-3.43124">
        <ele>31</ele>
        <time>2020-07-10T12:00:48Z</time>
      </trkpt>
      <trkpt lat="47.83955" lon="-3.43126">
        <ele>31</ele>
        <time>2020-07-10T12:00:49Z</time>
      </trkpt>
      <trkpt lat="47.8396" lon="-3.43127">
        <ele>31</ele>
        <time>2020-07-10T12:00:50Z</time>
      </trkpt>
      <trkpt lat="47.83964" lon="-3.43129">
        <ele>31</ele>
        <time>2020-07-10T12:00:51Z</time>
      </trkpt>
      <trkpt lat="47.83969" lon="-3.43132">
        <ele>31</ele>
        <time>2020-07-10T12:00:52Z</time>
      </trkpt>
      <trkpt lat="47.83973" lon="-3.43134">
        <ele>31.02</ele>
        <time>2020-07-10T12:00:53Z</time>
      </trkpt>
      <trkpt lat="47.83978" lon="-3.43136">
        <ele>31.15</ele>
        <time>2020-07-10T12:00:54Z</time>
      </trkpt>
      <trkpt lat="47.83983" lon="-3.43139">
        <ele>31.31</ele>
        <time>2020-07-10T12:00:55Z</time>
      </trkpt>
      <trkpt lat="47.83987" lon="-3.43142">
        <ele>31.46</ele>
        <time>2020-07-10T12:00:56Z</time>
      </trkpt>
      <trkpt lat="47.83991" lon="-3.43144">
        <ele>31.6</ele>
        <time>2020-07-10T12:00:57Z</time>
      </trkpt>
      <trkpt lat="47.83994" lon="-3.43146">
        <ele>31.72</ele>
        <time>2020-07-10T12:00:58Z</time>
      </trkpt>
      <trkpt lat="47.83995" lon="-3.43147">
        <ele>31.8</ele>
        <time>2020-07-10T12:00:59Z</time>
      </trkpt>
      <trkpt lat="47.83996" lon="-3.43147">
        <ele>31.83</ele>
        <time>2020-07-10T12:01:00Z</time>
      </trkpt>
      <trkpt lat="47.83996" lon="-3.43147">
        <ele>31.84</ele>
        <time>2020-07-10T12:01:01Z</time>
      </trkpt>
      <trkpt lat="47.83995" lon="-3.43147">
        <ele>31.83</ele>
        <time>2020-07-10T12:01:02Z</time>
      </trkpt>
      <trkpt lat="47.83995" lon="-3.43147">
        <ele>31.83</ele>
        <time>2020-07-10T12:01:03Z</time>
      </trkpt>
      <trkpt lat="47.83995" lon="-3.43147">
        <ele>31.83</ele>
        <time>2020-07-10T12:01:04Z</time>
      </trkpt>
      <trkpt lat="47.83995" lon="-3.43147">
        <ele>31.83</ele>
        <time>2020-07-10T12:01:05Z</time>
      </trkpt>
      <trkpt lat="47.83995" lon="-3.43147">
        <ele>31.83</ele>
        <time>2020-07-10T12:01:06Z</time>
      </trkpt>
      <trkpt lat="47.83995" lon="-3.43147">
        <ele>31.83</ele>
        <time>2020-07-10T12:01:07Z</time>
      </trkpt>
      <trkpt lat="47.83995" lon="-3.43147">
        <ele>31.83</ele>
        <time>2020-07-10T12:01:08Z</time>
      </trkpt>
      <trkpt lat="47.83995" lon="-3.43147">
        <ele>31.83</ele>
        <time>2020-07-10T12:01:09Z</time>
      </trkpt>
      <trkpt lat="47.83995" lon="-3.43147">
        <ele>31.83</ele>
        <time>2020-07-10T12:01:10Z</time>
      </trkpt>
      <trkpt lat="47.83995" lon="-3.43147">
        <ele>31.83</ele>
        <time>2020-07-10T12:01:11Z</time>
      </trkpt>
      <trkpt lat="47.83995" lon="-3.43147">
        <ele>31.83</ele>
        <time>2020-07-10T12:01:12Z</time>
      </trkpt>
      <trkpt lat="47.83995" lon="-3.43147">
        <ele>31.83</ele>
        <time>2020-07-10T12:01:13Z</time>
      </trkpt>
      <trkpt lat="47.83995" lon="-3.43147">
        <ele>31.83</ele>
        <time>2020-07-10T12:01:14Z</time>
      </trkpt>
      <trkpt lat="47.83995" lon="-3.43147">
        <ele>31.83</ele>
        <time>2020-07-10T12:01:15Z</time>
      </trkpt>
      <trkpt lat="47.83995" lon="-3.43147">
        <ele>31.83</ele>
        <time>2020-07-10T12:01:16Z</time>
      </trkpt>
      <trkpt lat="47.83989" lon="-3.43147">
        <ele>31.67</ele>
        <time>2020-07-10T12:01:17Z</time>
      </trkpt>
      <trkpt lat="47.83987" lon="-3.43145">
        <ele>31.57</ele>
        <time>2020-07-10T12:01:18Z</time>
      </trkpt>
      <trkpt lat="47.83985" lon="-3.43142">
        <ele>31.48</ele>
        <time>2020-07-10T12:01:19Z</time>
      </trkpt>
      <trkpt lat="47.83982" lon="-3.4314">
        <ele>31.38</ele>
        <time>2020-07-10T12:01:20Z</time>
      </trkpt>
      <trkpt lat="47.83979" lon="-3.43137">
        <ele>31.27</ele>
        <time>2020-07-10T12:01:21Z</time>
      </trkpt>
      <trkpt lat="47.83975" lon="-3.43135">
        <ele>31.15</ele>
        <time>2020-07-10T12:01:22Z</time>
      </trkpt>
      <trkpt lat="47.83972" lon="-3.43133">
        <ele>31.05</ele>
        <time>2020-07-10T12:01:23Z</time>
      </trkpt>
      <trkpt lat="47.83968" lon="-3.4313">
        <ele>31.01</ele>
        <time>2020-07-10T12:01:24Z</time>
      </trkpt>
      <trkpt lat="47.83964" lon="-3.43128">
        <ele>31</ele>
        <time>2020-07-10T12:01:25Z</time>
      </trkpt>
      <trkpt lat="47.8396" lon="-3.43126">
        <ele>31</ele>
        <time>2020-07-10T12:01:26Z</time>
      </trkpt>
      <trkpt lat="47.83956" lon="-3.43123">
        <ele>31</ele>
        <time>2020-07-10T12:01:27Z</time>
      </trkpt>
      <trkpt lat="47.83952" lon="-3.43121">
        <ele>31</ele>
        <time>2020-07-10T12:01:28Z</time>
      </trkpt>
      <trkpt lat="47.83948" lon="-3.43119">
        <ele>31</ele>
        <time>2020-07-10T12:01:29Z</time>
      </trkpt>
      <trkpt lat="47.83944" lon="-3.43118">
        <ele>31</ele>
        <time>2020-07-10T12:01:30Z</time>
      </trkpt>
      <trkpt lat="47.8394" lon="-3.43117">
        <ele>31</ele>
        <time>2020-07-10T12:01:31Z</time>
      </trkpt>
      <trkpt lat="47.83936" lon="-3.43118">
        <ele>31</ele>
        <time>2020-07-10T12:01:32Z</time>
      </trkpt>
      <trkpt lat="47.83931" lon="-3.43118">
        <ele>31</ele>
        <time>2020-07-10T12:01:33Z</time>
      </trkpt>
      <trkpt lat="47.83927" lon="-3.43119">
        <ele>31</ele>
        <time>2020-07-10T12:01:34Z</time>
      </trkpt>
      <trkpt lat="47.83922" lon="-3.4312">
        <ele>31</ele>
        <time>2020-07-10T12:01:35Z</time>
      </trkpt>
      <trkpt lat="47.83917" lon="-3.43121">
        <ele>31</ele>
        <time>2020-07-10T12:01:36Z</time>
      </trkpt>
      <trkpt lat="47.83912" lon="-3.43122">
        <ele>31</ele>
        <time>2020-07-10T12:01:37Z</time>
      </trkpt>
      <trkpt lat="47.83908" lon="-3.43124">
        <ele>31</ele>
        <time>2020-07-10T12:01:38Z</time>
      </trkpt>
      <trkpt lat="47.83904" lon="-3.43125">
        <ele>31</ele>
        <time>2020-07-10T12:01:39Z</time>
      </trkpt>
      <trkpt lat="47.83899" lon="-3.43127">
        <ele>31</ele>
        <time>2020-07-10T12:01:40Z</time>
      </trkpt>
      <trkpt lat="47.83895" lon="-3.43128">
        <ele>31</ele>
        <time>2020-07-10T12:01:41Z</time>
      </trkpt>
      <trkpt lat="47.8389" lon="-3.43129">
        <ele>31</ele>
        <time>2020-07-10T12:01:42Z</time>
      </trkpt>
      <trkpt lat="47.83886" lon="-3.43131">
        <ele>31</ele>
        <time>2020-07-10T12:01:43Z</time>
      </trkpt>
      <trkpt lat="47.83882" lon="-3.43132">
        <ele>31</ele>
        <time>2020-07-10T12:01:44Z</time>
      </trkpt>
      <trkpt lat="47.83878" lon="-3.43134">
        <ele>31</ele>
        <time>2020-07-10T12:01:45Z</time>
      </trkpt>
      <trkpt lat="47.83874" lon="-3.43136">
        <ele>31</ele>
        <time>2020-07-10T12:01:46Z</time>
      </trkpt>
      <trkpt lat="47.83871" lon="-3.43137">
        <ele>31</ele>
        <time>2020-07-10T12:01:47Z</time>
      </trkpt>
      <trkpt lat="47.83867" lon="-3.43139">
        <ele>31</ele>
        <time>2020-07-10T12:01:48Z</time>
      </trkpt>
      <trkpt lat="47.83862" lon="-3.43141">
        <ele>31</ele>
        <time>2020-07-10T12:01:49Z</time>
      </trkpt>
      <trkpt lat="47.83858" lon="-3.43143">
        <ele>30.99</ele>
        <time>2020-07-10T12:01:50Z</time>
      </trkpt>
      <trkpt lat="47.83854" lon="-3.43145">
        <ele>30.96</ele>
        <time>2020-07-10T12:01:51Z</time>
      </trkpt>
      <trkpt lat="47.8385" lon="-3.43148">
        <ele>30.9</ele>
        <time>2020-07-10T12:01:52Z</time>
      </trkpt>
      <trkpt lat="47.83846" lon="-3.43152">
        <ele>30.79</ele>
        <time>2020-07-10T12:01:53Z</time>
      </trkpt>
      <trkpt lat="47.83842" lon="-3.43158">
        <ele>30.61</ele>
        <time>2020-07-10T12:01:54Z</time>
      </trkpt>
      <trkpt lat="47.8384" lon="-3.43166">
        <ele>30.37</ele>
        <time>2020-07-10T12:01:55Z</time>
      </trkpt>
      <trkpt lat="47.8384" lon="-3.43174">
        <ele>30.41</ele>
        <time>2020-07-10T12:01:56Z</time>
      </trkpt>
      <trkpt lat="47.83841" lon="-3.43181">
        <ele>30.58</ele>
        <time>2020-07-10T12:01:57Z</time>
      </trkpt>
      <trkpt lat="47.83843" lon="-3.43188">
        <ele>30.77</ele>
        <time>2020-07-10T12:01:58Z</time>
      </trkpt>
      <trkpt lat="47.83846" lon="-3.43195">
        <ele>30.92</ele>
        <time>2020-07-10T12:01:59Z</time>
      </trkpt>
      <trkpt lat="47.83848" lon="-3.43202">
        <ele>30.89</ele>
        <time>2020-07-10T12:02:00Z</time>
      </trkpt>
      <trkpt lat="47.83851" lon="-3.43209">
        <ele>30.84</ele>
        <time>2020-07-10T12:02:01Z</time>
      </trkpt>
      <trkpt lat="47.83855" lon="-3.43216">
        <ele>30.82</ele>
        <time>2020-07-10T12:02:02Z</time>
      </trkpt>
      <trkpt lat="47.83857" lon="-3.43224">
        <ele>30.85</ele>
        <time>2020-07-10T12:02:03Z</time>
      </trkpt>
      <trkpt lat="47.8386" lon="-3.43231">
        <ele>30.93</ele>
        <time>2020-07-10T12:02:04Z</time>
      </trkpt>
      <trkpt lat="47.83863" lon="-3.43238">
        <ele>30.96</ele>
        <time>2020-07-10T12:02:05Z</time>
      </trkpt>
      <trkpt lat="47.83867" lon="-3.43245">
        <ele>30.96</ele>
        <time>2020-07-10T12:02:06Z</time>
      </trkpt>
      <trkpt lat="47.8387" lon="-3.43252">
        <ele>30.99</ele>
        <time>2020-07-10T12:02:07Z</time>
      </trkpt>
      <trkpt lat="47.83873" lon="-3.43258">
        <ele>31</ele>
        <time>2020-07-10T12:02:08Z</time>
      </trkpt>
      <trkpt lat="47.83876" lon="-3.43265">
        <ele>31</ele>
        <time>2020-07-10T12:02:09Z</time>
      </trkpt>
      <trkpt lat="47.83878" lon="-3.4327">
        <ele>31</ele>
        <time>2020-07-10T12:02:10Z</time>
      </trkpt>
      <trkpt lat="47.83881" lon="-3.43275">
        <ele>31</ele>
        <time>2020-07-10T12:02:11Z</time>
      </trkpt>
      <trkpt lat="47.83884" lon="-3.43281">
        <ele>31.07</ele>
        <time>2020-07-10T12:02:12Z</time>
      </trkpt>
      <trkpt lat="47.83887" lon="-3.43287">
        <ele>31.24</ele>
        <time>2020-07-10T12:02:13Z</time>
      </trkpt>
      <trkpt lat="47.8389" lon="-3.43293">
        <ele>31.46</ele>
        <time>2020-07-10T12:02:14Z</time>
      </trkpt>
      <trkpt lat="47.83893" lon="-3.43299">
        <ele>31.68</ele>
        <time>2020-07-10T12:02:15Z</time>
      </trkpt>
      <trkpt lat="47.83896" lon="-3.43306">
        <ele>31.9</ele>
        <time>2020-07-10T12:02:16Z</time>
      </trkpt>
      <trkpt lat="47.83899" lon="-3.43312">
        <ele>31.97</ele>
        <time>2020-07-10T12:02:17Z</time>
      </trkpt>
      <trkpt lat="47.83902" lon="-3.43318">
        <ele>31.99</ele>
        <time>2020-07-10T12:02:18Z</time>
      </trkpt>
      <trkpt lat="47.83905" lon="-3.43324">
        <ele>32</ele>
        <time>2020-07-10T12:02:19Z</time>
      </trkpt>
      <trkpt lat="47.83908" lon="-3.43331">
        <ele>32</ele>
        <time>2020-07-10T12:02:20Z</time>
      </trkpt>
      <trkpt lat="47.83911" lon="-3.43338">
        <ele>32.11</ele>
        <time>2020-07-10T12:02:21Z</time>
      </trkpt>
      <trkpt lat="47.83915" lon="-3.43344">
        <ele>32.3</ele>
        <time>2020-07-10T12:02:22Z</time>
      </trkpt>
      <trkpt lat="47.83918" lon="-3.4335">
        <ele>32.52</ele>
        <time>2020-07-10T12:02:23Z</time>
      </trkpt>
      <trkpt lat="47.83921" lon="-3.43357">
        <ele>32.75</ele>
        <time>2020-07-10T12:02:24Z</time>
      </trkpt>
      <trkpt lat="47.83924" lon="-3.43364">
        <ele>32.94</ele>
        <time>2020-07-10T12:02:25Z</time>
      </trkpt>
      <trkpt lat="47.83927" lon="-3.43371">
        <ele>33.08</ele>
        <time>2020-07-10T12:02:26Z</time>
      </trkpt>
      <trkpt lat="47.83931" lon="-3.43378">
        <ele>33.24</ele>
        <time>2020-07-10T12:02:27Z</time>
      </trkpt>
      <trkpt lat="47.83934" lon="-3.43385">
        <ele>33.44</ele>
        <time>2020-07-10T12:02:28Z</time>
      </trkpt>
      <trkpt lat="47.83937" lon="-3.43391">
        <ele>33.66</ele>
        <time>2020-07-10T12:02:29Z</time>
      </trkpt>
      <trkpt lat="47.8394" lon="-3.43398">
        <ele>33.82</ele>
        <time>2020-07-10T12:02:30Z</time>
      </trkpt>
      <trkpt lat="47.83943" lon="-3.43404">
        <ele>33.93</ele>
        <time>2020-07-10T12:02:31Z</time>
      </trkpt>
      <trkpt lat="47.83946" lon="-3.4341">
        <ele>34.01</ele>
        <time>2020-07-10T12:02:32Z</time>
      </trkpt>
      <trkpt lat="47.83949" lon="-3.43416">
        <ele>34.11</ele>
        <time>2020-07-10T12:02:33Z</time>
      </trkpt>
      <trkpt lat="47.83951" lon="-3.43422">
        <ele>34.35</ele>
        <time>2020-07-10T12:02:34Z</time>
      </trkpt>
      <trkpt lat="47.83954" lon="-3.43428">
        <ele>34.65</ele>
        <time>2020-07-10T12:02:35Z</time>
      </trkpt>
      <trkpt lat="47.83957" lon="-3.43435">
        <ele>34.97</ele>
        <time>2020-07-10T12:02:36Z</time>
      </trkpt>
      <trkpt lat="47.8396" lon="-3.43441">
        <ele>35.3</ele>
        <time>2020-07-10T12:02:37Z</time>
      </trkpt>
      <trkpt lat="47.83963" lon="-3.43447">
        <ele>35.56</ele>
        <time>2020-07-10T12:02:38Z</time>
      </trkpt>
      <trkpt lat="47.83966" lon="-3.43454">
        <ele>35.7</ele>
        <time>2020-07-10T12:02:39Z</time>
      </trkpt>
      <trkpt lat="47.83969" lon="-3.4346">
        <ele>35.82</ele>
        <time>2020-07-10T12:02:40Z</time>
      </trkpt>
      <trkpt lat="47.83972" lon="-3.43466">
        <ele>35.93</ele>
        <time>2020-07-10T12:02:41Z</time>
      </trkpt>
      <trkpt lat="47.83975" lon="-3.43472">
        <ele>36.11</ele>
        <time>2020-07-10T12:02:42Z</time>
      </trkpt>
      <trkpt lat="47.83978" lon="-3.43479">
        <ele>36.32</ele>
        <time>2020-07-10T12:02:43Z</time>
      </trkpt>
      <trkpt lat="47.83981" lon="-3.43485">
        <ele>36.56</ele>
        <time>2020-07-10T12:02:44Z</time>
      </trkpt>
      <trkpt lat="47.83984" lon="-3.43492">
        <ele>36.78</ele>
        <time>2020-07-10T12:02:45Z</time>
      </trkpt>
      <trkpt lat="47.83988" lon="-3.43498">
        <ele>37.02</ele>
        <time>2020-07-10T12:02:46Z</time>
      </trkpt>
      <trkpt lat="47.83991" lon="-3.43504">
        <ele>37.2</ele>
        <time>2020-07-10T12:02:47Z</time>
      </trkpt>
      <trkpt lat="47.83995" lon="-3.4351">
        <ele>37.29</ele>
        <time>2020-07-10T12:02:48Z</time>
      </trkpt>
      <trkpt lat="47.83998" lon="-3.43516">
        <ele>37.32</ele>
        <time>2020-07-10T12:02:49Z</time>
      </trkpt>
      <trkpt lat="47.84001" lon="-3.43522">
        <ele>37.31</ele>
        <time>2020-07-10T12:02:50Z</time>
      </trkpt>
      <trkpt lat="47.84005" lon="-3.43527">
        <ele>37.33</ele>
        <time>2020-07-10T12:02:51Z</time>
      </trkpt>
      <trkpt lat="47.84007" lon="-3.43534">
        <ele>37.46</ele>
        <time>2020-07-10T12:02:52Z</time>
      </trkpt>
      <trkpt lat="47.8401" lon="-3.43539">
        <ele>37.65</ele>
        <time>2020-07-10T12:02:53Z</time>
      </trkpt>
      <trkpt lat="47.84013" lon="-3.43544">
        <ele>37.87</ele>
        <time>2020-07-10T12:02:54Z</time>
      </trkpt>
      <trkpt lat="47.84016" lon="-3.4355">
        <ele>38.08</ele>
        <time>2020-07-10T12:02:55Z</time>
      </trkpt>
      <trkpt lat="47.8402" lon="-3.43556">
        <ele>38.31</ele>
        <time>2020-07-10T12:02:56Z</time>
      </trkpt>
      <trkpt lat="47.84022" lon="-3.43562">
        <ele>38.41</ele>
        <time>2020-07-10T12:02:57Z</time>
      </trkpt>
      <trkpt lat="47.84025" lon="-3.43567">
        <ele>38.42</ele>
        <time>2020-07-10T12:02:58Z</time>
      </trkpt>
      <trkpt lat="47.84028" lon="-3.43573">
        <ele>38.4</ele>
        <time>2020-07-10T12:02:59Z</time>
      </trkpt>
      <trkpt lat="47.84031" lon="-3.43578">
        <ele>38.33</ele>
        <time>2020-07-10T12:03:00Z</time>
      </trkpt>
      <trkpt lat="47.84033" lon="-3.43582">
        <ele>38.27</ele>
        <time>2020-07-10T12:03:01Z</time>
      </trkpt>
      <trkpt lat="47.84037" lon="-3.43587">
        <ele>38.31</ele>
        <time>2020-07-10T12:03:02Z</time>
      </trkpt>
      <trkpt lat="47.8404" lon="-3.43591">
        <ele>38.4</ele>
        <time>2020-07-10T12:03:03Z</time>
      </trkpt>
      <trkpt lat="47.84044" lon="-3.43596">
        <ele>38.52</ele>
        <time>2020-07-10T12:03:04Z</time>
      </trkpt>
      <trkpt lat="47.84047" lon="-3.43601">
        <ele>38.64</ele>
        <time>2020-07-10T12:03:05Z</time>
      </trkpt>
      <trkpt lat="47.84051" lon="-3.43606">
        <ele>38.79</ele>
        <time>2020-07-10T12:03:06Z</time>
      </trkpt>
      <trkpt lat="47.84055" lon="-3.43612">
        <ele>38.93</ele>
        <time>2020-07-10T12:03:07Z</time>
      </trkpt>
      <trkpt lat="47.84059" lon="-3.43617">
        <ele>39.05</ele>
        <time>2020-07-10T12:03:08Z</time>
      </trkpt>
      <trkpt lat="47.84063" lon="-3.43623">
        <ele>39.12</ele>
        <time>2020-07-10T12:03:09Z</time>
      </trkpt>
      <trkpt lat="47.84067" lon="-3.43629">
        <ele>39.14</ele>
        <time>2020-07-10T12:03:10Z</time>
      </trkpt>
      <trkpt lat="47.84071" lon="-3.43635">
        <ele>39.1</ele>
        <time>2020-07-10T12:03:11Z</time>
      </trkpt>
      <trkpt lat="47.84075" lon="-3.43641">
        <ele>38.97</ele>
        <time>2020-07-10T12:03:12Z</time>
      </trkpt>
      <trkpt lat="47.84078" lon="-3.43647">
        <ele>38.78</ele>
        <time>2020-07-10T12:03:13Z</time>
      </trkpt>
      <trkpt lat="47.84082" lon="-3.43654">
        <ele>38.56</ele>
        <time>2020-07-10T12:03:14Z</time>
      </trkpt>
      <trkpt lat="47.84086" lon="-3.4366">
        <ele>38.4</ele>
        <time>2020-07-10T12:03:15Z</time>
      </trkpt>
      <trkpt lat="47.8409" lon="-3.43665">
        <ele>38.31</ele>
        <time>2020-07-10T12:03:16Z</time>
      </trkpt>
      <trkpt lat="47.84094" lon="-3.43671">
        <ele>38.25</ele>
        <time>2020-07-10T12:03:17Z</time>
      </trkpt>
      <trkpt lat="47.84098" lon="-3.43676">
        <ele>38.19</ele>
        <time>2020-07-10T12:03:18Z</time>
      </trkpt>
      <trkpt lat="47.84101" lon="-3.43682">
        <ele>38.12</ele>
        <time>2020-07-10T12:03:19Z</time>
      </trkpt>
      <trkpt lat="47.84105" lon="-3.43689">
        <ele>38.03</ele>
        <time>2020-07-10T12:03:20Z</time>
      </trkpt>
      <trkpt lat="47.84108" lon="-3.43695">
        <ele>37.93</ele>
        <time>2020-07-10T12:03:21Z</time>
      </trkpt>
      <trkpt lat="47.84111" lon="-3.43701">
        <ele>37.82</ele>
        <time>2020-07-10T12:03:22Z</time>
      </trkpt>
      <trkpt lat="47.84115" lon="-3.43706">
        <ele>37.74</ele>
        <time>2020-07-10T12:03:23Z</time>
      </trkpt>
      <trkpt lat="47.84118" lon="-3.43712">
        <ele>37.66</ele>
        <time>2020-07-10T12:03:24Z</time>
      </trkpt>
      <trkpt lat="47.84121" lon="-3.43717">
        <ele>37.58</ele>
        <time>2020-07-10T12:03:25Z</time>
      </trkpt>
      <trkpt lat="47.84125" lon="-3.43724">
        <ele>37.49</ele>
        <time>2020-07-10T12:03:26Z</time>
      </trkpt>
      <trkpt lat="47.84129" lon="-3.4373">
        <ele>37.41</ele>
        <time>2020-07-10T12:03:27Z</time>
      </trkpt>
      <trkpt lat="47.84133" lon="-3.43736">
        <ele>37.34</ele>
        <time>2020-07-10T12:03:28Z</time>
      </trkpt>
      <trkpt lat="47.84137" lon="-3.43741">
        <ele>37.27</ele>
        <time>2020-07-10T12:03:29Z</time>
      </trkpt>
      <trkpt lat="47.84141" lon="-3.43745">
        <ele>37.24</ele>
        <time>2020-07-10T12:03:30Z</time>
      </trkpt>
      <trkpt lat="47.84146" lon="-3.43752">
        <ele>37.24</ele>
        <time>2020-07-10T12:03:31Z</time>
      </trkpt>
      <trkpt lat="47.84151" lon="-3.43759">
        <ele>37.29</ele>
        <time>2020-07-10T12:03:32Z</time>
      </trkpt>
      <trkpt lat="47.84157" lon="-3.43764">
        <ele>37.3</ele>
        <time>2020-07-10T12:03:33Z</time>
      </trkpt>
      <trkpt lat="47.84161" lon="-3.4377">
        <ele>37.26</ele>
        <time>2020-07-10T12:03:34Z</time>
      </trkpt>
      <trkpt lat="47.84166" lon="-3.43773">
        <ele>37.19</ele>
        <time>2020-07-10T12:03:35Z</time>
      </trkpt>
      <trkpt lat="47.84172" lon="-3.43775">
        <ele>37.13</ele>
        <time>2020-07-10T12:03:36Z</time>
      </trkpt>
      <trkpt lat="47.84178" lon="-3.43773">
        <ele>37.16</ele>
        <time>2020-07-10T12:03:37Z</time>
      </trkpt>
      <trkpt lat="47.84183" lon="-3.4377">
        <ele>37.26</ele>
        <time>2020-07-10T12:03:38Z</time>
      </trkpt>
      <trkpt lat="47.84187" lon="-3.43765">
        <ele>37.39</ele>
        <time>2020-07-10T12:03:39Z</time>
      </trkpt>
      <trkpt lat="47.84192" lon="-3.43761">
        <ele>37.55</ele>
        <time>2020-07-10T12:03:40Z</time>
      </trkpt>
      <trkpt lat="47.84196" lon="-3.43756">
        <ele>37.73</ele>
        <time>2020-07-10T12:03:41Z</time>
      </trkpt>
      <trkpt lat="47.84201" lon="-3.43751">
        <ele>37.9</ele>
        <time>2020-07-10T12:03:42Z</time>
      </trkpt>
      <trkpt lat="47.84206" lon="-3.43746">
        <ele>37.97</ele>
        <time>2020-07-10T12:03:43Z</time>
      </trkpt>
      <trkpt lat="47.8421" lon="-3.43741">
        <ele>37.99</ele>
        <time>2020-07-10T12:03:44Z</time>
      </trkpt>
      <trkpt lat="47.84215" lon="-3.43737">
        <ele>38</ele>
        <time>2020-07-10T12:03:45Z</time>
      </trkpt>
      <trkpt lat="47.84219" lon="-3.43732">
        <ele>38</ele>
        <time>2020-07-10T12:03:46Z</time>
      </trkpt>
      <trkpt lat="47.84224" lon="-3.43727">
        <ele>38.04</ele>
        <time>2020-07-10T12:03:47Z</time>
      </trkpt>
      <trkpt lat="47.84228" lon="-3.43722">
        <ele>38.17</ele>
        <time>2020-07-10T12:03:48Z</time>
      </trkpt>
      <trkpt lat="47.84233" lon="-3.43717">
        <ele>38.44</ele>
        <time>2020-07-10T12:03:49Z</time>
      </trkpt>
      <trkpt lat="47.84237" lon="-3.43713">
        <ele>38.75</ele>
        <time>2020-07-10T12:03:50Z</time>
      </trkpt>
      <trkpt lat="47.84242" lon="-3.43708">
        <ele>39.06</ele>
        <time>2020-07-10T12:03:51Z</time>
      </trkpt>
      <trkpt lat="47.84246" lon="-3.43704">
        <ele>39.38</ele>
        <time>2020-07-10T12:03:52Z</time>
      </trkpt>
      <trkpt lat="47.84251" lon="-3.43699">
        <ele>39.71</ele>
        <time>2020-07-10T12:03:53Z</time>
      </trkpt>
      <trkpt lat="47.84255" lon="-3.43695">
        <ele>40.03</ele>
        <time>2020-07-10T12:03:54Z</time>
      </trkpt>
      <trkpt lat="47.84259" lon="-3.4369">
        <ele>40.24</ele>
        <time>2020-07-10T12:03:55Z</time>
      </trkpt>
      <trkpt lat="47.84263" lon="-3.43685">
        <ele>40.41</ele>
        <time>2020-07-10T12:03:56Z</time>
      </trkpt>
      <trkpt lat="47.84267" lon="-3.4368">
        <ele>40.56</ele>
        <time>2020-07-10T12:03:57Z</time>
      </trkpt>
      <trkpt lat="47.84271" lon="-3.43674">
        <ele>40.71</ele>
        <time>2020-07-10T12:03:58Z</time>
      </trkpt>
      <trkpt lat="47.84275" lon="-3.43669">
        <ele>40.85</ele>
        <time>2020-07-10T12:03:59Z</time>
      </trkpt>
      <trkpt lat="47.84279" lon="-3.43664">
        <ele>40.98</ele>
        <time>2020-07-10T12:04:00Z</time>
      </trkpt>
      <trkpt lat="47.84283" lon="-3.4366">
        <ele>41.13</ele>
        <time>2020-07-10T12:04:01Z</time>
      </trkpt>
      <trkpt lat="47.84288" lon="-3.43656">
        <ele>41.29</ele>
        <time>2020-07-10T12:04:02Z</time>
      </trkpt>
      <trkpt lat="47.84293" lon="-3.43653">
        <ele>41.47</ele>
        <time>2020-07-10T12:04:03Z</time>
      </trkpt>
      <trkpt lat="47.84298" lon="-3.43652">
        <ele>41.65</ele>
        <time>2020-07-10T12:04:04Z</time>
      </trkpt>
      <trkpt lat="47.84303" lon="-3.43651">
        <ele>41.82</ele>
        <time>2020-07-10T12:04:05Z</time>
      </trkpt>
      <trkpt lat="47.84308" lon="-3.43652">
        <ele>42</ele>
        <time>2020-07-10T12:04:06Z</time>
      </trkpt>
      <trkpt lat="47.84313" lon="-3.43654">
        <ele>42.18</ele>
        <time>2020-07-10T12:04:07Z</time>
      </trkpt>
      <trkpt lat="47.84317" lon="-3.43657">
        <ele>42.35</ele>
        <time>2020-07-10T12:04:08Z</time>
      </trkpt>
      <trkpt lat="47.84322" lon="-3.4366">
        <ele>42.52</ele>
        <time>2020-07-10T12:04:09Z</time>
      </trkpt>
      <trkpt lat="47.84326" lon="-3.43662">
        <ele>42.68</ele>
        <time>2020-07-10T12:04:10Z</time>
      </trkpt>
      <trkpt lat="47.84331" lon="-3.43665">
        <ele>42.84</ele>
        <time>2020-07-10T12:04:11Z</time>
      </trkpt>
      <trkpt lat="47.84336" lon="-3.43668">
        <ele>43.01</ele>
        <time>2020-07-10T12:04:12Z</time>
      </trkpt>
      <trkpt lat="47.8434" lon="-3.4367">
        <ele>43.18</ele>
        <time>2020-07-10T12:04:13Z</time>
      </trkpt>
      <trkpt lat="47.84345" lon="-3.43673">
        <ele>43.34</ele>
        <time>2020-07-10T12:04:14Z</time>
      </trkpt>
      <trkpt lat="47.8435" lon="-3.43675">
        <ele>43.51</ele>
        <time>2020-07-10T12:04:15Z</time>
      </trkpt>
      <trkpt lat="47.84354" lon="-3.43678">
        <ele>43.68</ele>
        <time>2020-07-10T12:04:16Z</time>
      </trkpt>
      <trkpt lat="47.84359" lon="-3.4368">
        <ele>43.85</ele>
        <time>2020-07-10T12:04:17Z</time>
      </trkpt>
      <trkpt lat="47.84364" lon="-3.43683">
        <ele>43.95</ele>
        <time>2020-07-10T12:04:18Z</time>
      </trkpt>
      <trkpt lat="47.84369" lon="-3.43685">
        <ele>43.99</ele>
        <time>2020-07-10T12:04:19Z</time>
      </trkpt>
      <trkpt lat="47.84374" lon="-3.43687">
        <ele>44</ele>
        <time>2020-07-10T12:04:20Z</time>
      </trkpt>
      <trkpt lat="47.84379" lon="-3.4369">
        <ele>44</ele>
        <time>2020-07-10T12:04:21Z</time>
      </trkpt>
      <trkpt lat="47.84383" lon="-3.43692">
        <ele>44</ele>
        <time>2020-07-10T12:04:22Z</time>
      </trkpt>
      <trkpt lat="47.84389" lon="-3.43695">
        <ele>44.01</ele>
        <time>2020-07-10T12:04:23Z</time>
      </trkpt>
      <trkpt lat="47.84393" lon="-3.43698">
        <ele>44.19</ele>
        <time>2020-07-10T12:04:24Z</time>
      </trkpt>
      <trkpt lat="47.84399" lon="-3.43701">
        <ele>44.4</ele>
        <time>2020-07-10T12:04:25Z</time>
      </trkpt>
      <trkpt lat="47.84404" lon="-3.43704">
        <ele>44.61</ele>
        <time>2020-07-10T12:04:26Z</time>
      </trkpt>
      <trkpt lat="47.84409" lon="-3.43707">
        <ele>44.78</ele>
        <time>2020-07-10T12:04:27Z</time>
      </trkpt>
      <trkpt lat="47.84413" lon="-3.43709">
        <ele>44.9</ele>
        <time>2020-07-10T12:04:28Z</time>
      </trkpt>
      <trkpt lat="47.84418" lon="-3.43711">
        <ele>44.96</ele>
        <time>2020-07-10T12:04:29Z</time>
      </trkpt>
      <trkpt lat="47.84422" lon="-3.43714">
        <ele>44.95</ele>
        <time>2020-07-10T12:04:30Z</time>
      </trkpt>
      <trkpt lat="47.84426" lon="-3.43716">
        <ele>44.93</ele>
        <time>2020-07-10T12:04:31Z</time>
      </trkpt>
      <trkpt lat="47.84429" lon="-3.43717">
        <ele>44.92</ele>
        <time>2020-07-10T12:04:32Z</time>
      </trkpt>
      <trkpt lat="47.84433" lon="-3.43719">
        <ele>44.93</ele>
        <time>2020-07-10T12:04:33Z</time>
      </trkpt>
      <trkpt lat="47.84438" lon="-3.43721">
        <ele>44.96</ele>
        <time>2020-07-10T12:04:34Z</time>
      </trkpt>
      <trkpt lat="47.84442" lon="-3.43723">
        <ele>44.99</ele>
        <time>2020-07-10T12:04:35Z</time>
      </trkpt>
      <trkpt lat="47.84446" lon="-3.43725">
        <ele>44.9</ele>
        <time>2020-07-10T12:04:36Z</time>
      </trkpt>
      <trkpt lat="47.84451" lon="-3.43727">
        <ele>44.61</ele>
        <time>2020-07-10T12:04:37Z</time>
      </trkpt>
      <trkpt lat="47.84456" lon="-3.4373">
        <ele>44.22</ele>
        <time>2020-07-10T12:04:38Z</time>
      </trkpt>
      <trkpt lat="47.84462" lon="-3.43732">
        <ele>43.74</ele>
        <time>2020-07-10T12:04:39Z</time>
      </trkpt>
      <trkpt lat="47.84468" lon="-3.43735">
        <ele>43.16</ele>
        <time>2020-07-10T12:04:40Z</time>
      </trkpt>
      <trkpt lat="47.84474" lon="-3.43737">
        <ele>42.54</ele>
        <time>2020-07-10T12:04:41Z</time>
      </trkpt>
      <trkpt lat="47.84482" lon="-3.4374">
        <ele>41.87</ele>
        <time>2020-07-10T12:04:42Z</time>
      </trkpt>
      <trkpt lat="47.84488" lon="-3.43742">
        <ele>41.22</ele>
        <time>2020-07-10T12:04:43Z</time>
      </trkpt>
      <trkpt lat="47.84496" lon="-3.43744">
        <ele>40.61</ele>
        <time>2020-07-10T12:04:44Z</time>
      </trkpt>
      <trkpt lat="47.84503" lon="-3.43746">
        <ele>40.12</ele>
        <time>2020-07-10T12:04:45Z</time>
      </trkpt>
      <trkpt lat="47.8451" lon="-3.43748">
        <ele>39.81</ele>
        <time>2020-07-10T12:04:46Z</time>
      </trkpt>
      <trkpt lat="47.84517" lon="-3.4375">
        <ele>39.52</ele>
        <time>2020-07-10T12:04:47Z</time>
      </trkpt>
      <trkpt lat="47.84524" lon="-3.43751">
        <ele>39.23</ele>
        <time>2020-07-10T12:04:48Z</time>
      </trkpt>
      <trkpt lat="47.8453" lon="-3.43752">
        <ele>39.07</ele>
        <time>2020-07-10T12:04:49Z</time>
      </trkpt>
      <trkpt lat="47.84536" lon="-3.43754">
        <ele>39.16</ele>
        <time>2020-07-10T12:04:50Z</time>
      </trkpt>
      <trkpt lat="47.84542" lon="-3.43756">
        <ele>39.33</ele>
        <time>2020-07-10T12:04:51Z</time>
      </trkpt>
      <trkpt lat="47.84547" lon="-3.43757">
        <ele>39.53</ele>
        <time>2020-07-10T12:04:52Z</time>
      </trkpt>
      <trkpt lat="47.84552" lon="-3.43759">
        <ele>39.74</ele>
        <time>2020-07-10T12:04:53Z</time>
      </trkpt>
      <trkpt lat="47.84557" lon="-3.4376">
        <ele>39.99</ele>
        <time>2020-07-10T12:04:54Z</time>
      </trkpt>
      <trkpt lat="47.84562" lon="-3.43761">
        <ele>40.31</ele>
        <time>2020-07-10T12:04:55Z</time>
      </trkpt>
      <trkpt lat="47.84567" lon="-3.43763">
        <ele>40.64</ele>
        <time>2020-07-10T12:04:56Z</time>
      </trkpt>
      <trkpt lat="47.84571" lon="-3.43764">
        <ele>40.97</ele>
        <time>2020-07-10T12:04:57Z</time>
      </trkpt>
      <trkpt lat="47.84576" lon="-3.43764">
        <ele>41.3</ele>
        <time>2020-07-10T12:04:58Z</time>
      </trkpt>
      <trkpt lat="47.8458" lon="-3.43764">
        <ele>41.62</ele>
        <time>2020-07-10T12:04:59Z</time>
      </trkpt>
      <trkpt lat="47.84584" lon="-3.43765">
        <ele>41.94</ele>
        <time>2020-07-10T12:05:00Z</time>
      </trkpt>
      <trkpt lat="47.84589" lon="-3.43766">
        <ele>42.24</ele>
        <time>2020-07-10T12:05:01Z</time>
      </trkpt>
      <trkpt lat="47.84593" lon="-3.43767">
        <ele>42.54</ele>
        <time>2020-07-10T12:05:02Z</time>
      </trkpt>
      <trkpt lat="47.84597" lon="-3.43767">
        <ele>42.84</ele>
        <time>2020-07-10T12:05:03Z</time>
      </trkpt>
      <trkpt lat="47.84601" lon="-3.43768">
        <ele>43.13</ele>
        <time>2020-07-10T12:05:04Z</time>
      </trkpt>
      <trkpt lat="47.84605" lon="-3.43769">
        <ele>43.42</ele>
        <time>2020-07-10T12:05:05Z</time>
      </trkpt>
      <trkpt lat="47.84609" lon="-3.4377">
        <ele>43.72</ele>
        <time>2020-07-10T12:05:06Z</time>
      </trkpt>
      <trkpt lat="47.84613" lon="-3.43771">
        <ele>43.97</ele>
        <time>2020-07-10T12:05:07Z</time>
      </trkpt>
      <trkpt lat="47.84617" lon="-3.43772">
        <ele>44.15</ele>
        <time>2020-07-10T12:05:08Z</time>
      </trkpt>
      <trkpt lat="47.84622" lon="-3.43773">
        <ele>44.32</ele>
        <time>2020-07-10T12:05:09Z</time>
      </trkpt>
      <trkpt lat="47.84626" lon="-3.43774">
        <ele>44.48</ele>
        <time>2020-07-10T12:05:10Z</time>
      </trkpt>
      <trkpt lat="47.84631" lon="-3.43775">
        <ele>44.64</ele>
        <time>2020-07-10T12:05:11Z</time>
      </trkpt>
      <trkpt lat="47.84636" lon="-3.43776">
        <ele>44.81</ele>
        <time>2020-07-10T12:05:12Z</time>
      </trkpt>
      <trkpt lat="47.8464" lon="-3.43778">
        <ele>44.94</ele>
        <time>2020-07-10T12:05:13Z</time>
      </trkpt>
      <trkpt lat="47.84644" lon="-3.43779">
        <ele>44.95</ele>
        <time>2020-07-10T12:05:14Z</time>
      </trkpt>
      <trkpt lat="47.84648" lon="-3.43781">
        <ele>44.94</ele>
        <time>2020-07-10T12:05:15Z</time>
      </trkpt>
      <trkpt lat="47.84652" lon="-3.43783">
        <ele>44.92</ele>
        <time>2020-07-10T12:05:16Z</time>
      </trkpt>
      <trkpt lat="47.84657" lon="-3.43783">
        <ele>44.92</ele>
        <time>2020-07-10T12:05:17Z</time>
      </trkpt>
      <trkpt lat="47.84661" lon="-3.43784">
        <ele>44.94</ele>
        <time>2020-07-10T12:05:18Z</time>
      </trkpt>
      <trkpt lat="47.84666" lon="-3.43786">
        <ele>44.98</ele>
        <time>2020-07-10T12:05:19Z</time>
      </trkpt>
      <trkpt lat="47.84671" lon="-3.43787">
        <ele>44.89</ele>
        <time>2020-07-10T12:05:20Z</time>
      </trkpt>
      <trkpt lat="47.84675" lon="-3.43789">
        <ele>44.75</ele>
        <time>2020-07-10T12:05:21Z</time>
      </trkpt>
      <trkpt lat="47.8468" lon="-3.4379">
        <ele>44.6</ele>
        <time>2020-07-10T12:05:22Z</time>
      </trkpt>
      <trkpt lat="47.84684" lon="-3.43791">
        <ele>44.43</ele>
        <time>2020-07-10T12:05:23Z</time>
      </trkpt>
      <trkpt lat="47.84689" lon="-3.43792">
        <ele>44.26</ele>
        <time>2020-07-10T12:05:24Z</time>
      </trkpt>
      <trkpt lat="47.84694" lon="-3.43793">
        <ele>44.08</ele>
        <time>2020-07-10T12:05:25Z</time>
      </trkpt>
      <trkpt lat="47.84699" lon="-3.43794">
        <ele>44.02</ele>
        <time>2020-07-10T12:05:26Z</time>
      </trkpt>
      <trkpt lat="47.84705" lon="-3.43795">
        <ele>44.01</ele>
        <time>2020-07-10T12:05:27Z</time>
      </trkpt>
      <trkpt lat="47.8471" lon="-3.43797">
        <ele>44</ele>
        <time>2020-07-10T12:05:28Z</time>
      </trkpt>
      <trkpt lat="47.84715" lon="-3.43798">
        <ele>44</ele>
        <time>2020-07-10T12:05:29Z</time>
      </trkpt>
      <trkpt lat="47.84721" lon="-3.438">
        <ele>44</ele>
        <time>2020-07-10T12:05:30Z</time>
      </trkpt>
      <trkpt lat="47.84726" lon="-3.43801">
        <ele>44</ele>
        <time>2020-07-10T12:05:31Z</time>
      </trkpt>
      <trkpt lat="47.84731" lon="-3.43802">
        <ele>44</ele>
        <time>2020-07-10T12:05:32Z</time>
      </trkpt>
      <trkpt lat="47.84736" lon="-3.43803">
        <ele>44</ele>
        <time>2020-07-10T12:05:33Z</time>
      </trkpt>
      <trkpt lat="47.84741" lon="-3.43804">
        <ele>44</ele>
        <time>2020-07-10T12:05:34Z</time>
      </trkpt>
      <trkpt lat="47.84747" lon="-3.43806">
        <ele>44</ele>
        <time>2020-07-10T12:05:35Z</time>
      </trkpt>
      <trkpt lat="47.84752" lon="-3.43807">
        <ele>43.97</ele>
        <time>2020-07-10T12:05:36Z</time>
      </trkpt>
      <trkpt lat="47.84758" lon="-3.43808">
        <ele>43.92</ele>
        <time>2020-07-10T12:05:37Z</time>
      </trkpt>
      <trkpt lat="47.84763" lon="-3.4381">
        <ele>43.87</ele>
        <time>2020-07-10T12:05:38Z</time>
      </trkpt>
      <trkpt lat="47.84768" lon="-3.43811">
        <ele>43.82</ele>
        <time>2020-07-10T12:05:39Z</time>
      </trkpt>
      <trkpt lat="47.84774" lon="-3.43813">
        <ele>43.77</ele>
        <time>2020-07-10T12:05:40Z</time>
      </trkpt>
      <trkpt lat="47.8478" lon="-3.43814">
        <ele>43.72</ele>
        <time>2020-07-10T12:05:41Z</time>
      </trkpt>
      <trkpt lat="47.84785" lon="-3.43816">
        <ele>43.66</ele>
        <time>2020-07-10T12:05:42Z</time>
      </trkpt>
      <trkpt lat="47.84791" lon="-3.43817">
        <ele>43.61</ele>
        <time>2020-07-10T12:05:43Z</time>
      </trkpt>
      <trkpt lat="47.84796" lon="-3.43819">
        <ele>43.56</ele>
        <time>2020-07-10T12:05:44Z</time>
      </trkpt>
      <trkpt lat="47.84801" lon="-3.4382">
        <ele>43.5</ele>
        <time>2020-07-10T12:05:45Z</time>
      </trkpt>
      <trkpt lat="47.84806" lon="-3.43822">
        <ele>43.44</ele>
        <time>2020-07-10T12:05:46Z</time>
      </trkpt>
      <trkpt lat="47.84811" lon="-3.43823">
        <ele>43.39</ele>
        <time>2020-07-10T12:05:47Z</time>
      </trkpt>
      <trkpt lat="47.84816" lon="-3.43825">
        <ele>43.32</ele>
        <time>2020-07-10T12:05:48Z</time>
      </trkpt>
      <trkpt lat="47.84821" lon="-3.43828">
        <ele>43.24</ele>
        <time>2020-07-10T12:05:49Z</time>
      </trkpt>
      <trkpt lat="47.84826" lon="-3.43831">
        <ele>43.13</ele>
        <time>2020-07-10T12:05:50Z</time>
      </trkpt>
      <trkpt lat="47.8483" lon="-3.43836">
        <ele>42.97</ele>
        <time>2020-07-10T12:05:51Z</time>
      </trkpt>
      <trkpt lat="47.84834" lon="-3.43842">
        <ele>42.81</ele>
        <time>2020-07-10T12:05:52Z</time>
      </trkpt>
      <trkpt lat="47.84838" lon="-3.43848">
        <ele>42.75</ele>
        <time>2020-07-10T12:05:53Z</time>
      </trkpt>
      <trkpt lat="47.84841" lon="-3.43855">
        <ele>42.74</ele>
        <time>2020-07-10T12:05:54Z</time>
      </trkpt>
      <trkpt lat="47.84844" lon="-3.43862">
        <ele>42.76</ele>
        <time>2020-07-10T12:05:55Z</time>
      </trkpt>
      <trkpt lat="47.84848" lon="-3.43868">
        <ele>42.68</ele>
        <time>2020-07-10T12:05:56Z</time>
      </trkpt>
      <trkpt lat="47.84851" lon="-3.43875">
        <ele>42.53</ele>
        <time>2020-07-10T12:05:57Z</time>
      </trkpt>
      <trkpt lat="47.84855" lon="-3.43881">
        <ele>42.36</ele>
        <time>2020-07-10T12:05:58Z</time>
      </trkpt>
      <trkpt lat="47.84859" lon="-3.43887">
        <ele>42.14</ele>
        <time>2020-07-10T12:05:59Z</time>
      </trkpt>
      <trkpt lat="47.84863" lon="-3.43894">
        <ele>42</ele>
        <time>2020-07-10T12:06:00Z</time>
      </trkpt>
      <trkpt lat="47.84866" lon="-3.43901">
        <ele>41.97</ele>
        <time>2020-07-10T12:06:01Z</time>
      </trkpt>
      <trkpt lat="47.8487" lon="-3.43907">
        <ele>42</ele>
        <time>2020-07-10T12:06:02Z</time>
      </trkpt>
      <trkpt lat="47.84875" lon="-3.43915">
        <ele>42.03</ele>
        <time>2020-07-10T12:06:03Z</time>
      </trkpt>
      <trkpt lat="47.84879" lon="-3.43922">
        <ele>41.98</ele>
        <time>2020-07-10T12:06:04Z</time>
      </trkpt>
      <trkpt lat="47.84883" lon="-3.43928">
        <ele>41.86</ele>
        <time>2020-07-10T12:06:05Z</time>
      </trkpt>
      <trkpt lat="47.84887" lon="-3.43935">
        <ele>41.66</ele>
        <time>2020-07-10T12:06:06Z</time>
      </trkpt>
      <trkpt lat="47.84891" lon="-3.43941">
        <ele>41.45</ele>
        <time>2020-07-10T12:06:07Z</time>
      </trkpt>
      <trkpt lat="47.84895" lon="-3.43947">
        <ele>41.36</ele>
        <time>2020-07-10T12:06:08Z</time>
      </trkpt>
      <trkpt lat="47.84898" lon="-3.43954">
        <ele>41.36</ele>
        <time>2020-07-10T12:06:09Z</time>
      </trkpt>
      <trkpt lat="47.84902" lon="-3.4396">
        <ele>41.39</ele>
        <time>2020-07-10T12:06:10Z</time>
      </trkpt>
      <trkpt lat="47.84906" lon="-3.43966">
        <ele>41.44</ele>
        <time>2020-07-10T12:06:11Z</time>
      </trkpt>
      <trkpt lat="47.8491" lon="-3.43972">
        <ele>41.48</ele>
        <time>2020-07-10T12:06:12Z</time>
      </trkpt>
      <trkpt lat="47.84913" lon="-3.43979">
        <ele>41.36</ele>
        <time>2020-07-10T12:06:13Z</time>
      </trkpt>
      <trkpt lat="47.84916" lon="-3.43985">
        <ele>41.15</ele>
        <time>2020-07-10T12:06:14Z</time>
      </trkpt>
      <trkpt lat="47.84919" lon="-3.43991">
        <ele>40.83</ele>
        <time>2020-07-10T12:06:15Z</time>
      </trkpt>
      <trkpt lat="47.84923" lon="-3.43998">
        <ele>40.52</ele>
        <time>2020-07-10T12:06:16Z</time>
      </trkpt>
      <trkpt lat="47.84926" lon="-3.44004">
        <ele>40.33</ele>
        <time>2020-07-10T12:06:17Z</time>
      </trkpt>
      <trkpt lat="47.84929" lon="-3.4401">
        <ele>40.28</ele>
        <time>2020-07-10T12:06:18Z</time>
      </trkpt>
      <trkpt lat="47.84933" lon="-3.44016">
        <ele>40.34</ele>
        <time>2020-07-10T12:06:19Z</time>
      </trkpt>
      <trkpt lat="47.84936" lon="-3.44022">
        <ele>40.44</ele>
        <time>2020-07-10T12:06:20Z</time>
      </trkpt>
      <trkpt lat="47.8494" lon="-3.44027">
        <ele>40.59</ele>
        <time>2020-07-10T12:06:21Z</time>
      </trkpt>
      <trkpt lat="47.84943" lon="-3.44032">
        <ele>40.8</ele>
        <time>2020-07-10T12:06:22Z</time>
      </trkpt>
      <trkpt lat="47.84946" lon="-3.44036">
        <ele>40.98</ele>
        <time>2020-07-10T12:06:23Z</time>
      </trkpt>
      <trkpt lat="47.84949" lon="-3.44041">
        <ele>41.11</ele>
        <time>2020-07-10T12:06:24Z</time>
      </trkpt>
      <trkpt lat="47.84951" lon="-3.44045">
        <ele>41.2</ele>
        <time>2020-07-10T12:06:25Z</time>
      </trkpt>
      <trkpt lat="47.84954" lon="-3.44049">
        <ele>41.3</ele>
        <time>2020-07-10T12:06:26Z</time>
      </trkpt>
      <trkpt lat="47.84956" lon="-3.44054">
        <ele>41.38</ele>
        <time>2020-07-10T12:06:27Z</time>
      </trkpt>
      <trkpt lat="47.84958" lon="-3.44059">
        <ele>41.51</ele>
        <time>2020-07-10T12:06:28Z</time>
      </trkpt>
      <trkpt lat="47.84961" lon="-3.44063">
        <ele>41.64</ele>
        <time>2020-07-10T12:06:29Z</time>
      </trkpt>
      <trkpt lat="47.84963" lon="-3.44069">
        <ele>41.76</ele>
        <time>2020-07-10T12:06:30Z</time>
      </trkpt>
      <trkpt lat="47.84966" lon="-3.44074">
        <ele>41.88</ele>
        <time>2020-07-10T12:06:31Z</time>
      </trkpt>
      <trkpt lat="47.84969" lon="-3.4408">
        <ele>41.95</ele>
        <time>2020-07-10T12:06:32Z</time>
      </trkpt>
      <trkpt lat="47.84971" lon="-3.44085">
        <ele>42.03</ele>
        <time>2020-07-10T12:06:33Z</time>
      </trkpt>
      <trkpt lat="47.84973" lon="-3.44089">
        <ele>42.18</ele>
        <time>2020-07-10T12:06:34Z</time>
      </trkpt>
      <trkpt lat="47.84974" lon="-3.44094">
        <ele>42.4</ele>
        <time>2020-07-10T12:06:35Z</time>
      </trkpt>
      <trkpt lat="47.84976" lon="-3.44099">
        <ele>42.67</ele>
        <time>2020-07-10T12:06:36Z</time>
      </trkpt>
      <trkpt lat="47.84978" lon="-3.44105">
        <ele>42.93</ele>
        <time>2020-07-10T12:06:37Z</time>
      </trkpt>
      <trkpt lat="47.84981" lon="-3.44109">
        <ele>43.17</ele>
        <time>2020-07-10T12:06:38Z</time>
      </trkpt>
      <trkpt lat="47.84983" lon="-3.44114">
        <ele>43.38</ele>
        <time>2020-07-10T12:06:39Z</time>
      </trkpt>
      <trkpt lat="47.84986" lon="-3.4412">
        <ele>43.57</ele>
        <time>2020-07-10T12:06:40Z</time>
      </trkpt>
      <trkpt lat="47.84989" lon="-3.44124">
        <ele>43.73</ele>
        <time>2020-07-10T12:06:41Z</time>
      </trkpt>
      <trkpt lat="47.84992" lon="-3.4413">
        <ele>43.85</ele>
        <time>2020-07-10T12:06:42Z</time>
      </trkpt>
      <trkpt lat="47.84995" lon="-3.44135">
        <ele>43.94</ele>
        <time>2020-07-10T12:06:43Z</time>
      </trkpt>
      <trkpt lat="47.84998" lon="-3.4414">
        <ele>44.01</ele>
        <time>2020-07-10T12:06:44Z</time>
      </trkpt>
      <trkpt lat="47.85001" lon="-3.44145">
        <ele>44.21</ele>
        <time>2020-07-10T12:06:45Z</time>
      </trkpt>
      <trkpt lat="47.85004" lon="-3.4415">
        <ele>44.52</ele>
        <time>2020-07-10T12:06:46Z</time>
      </trkpt>
      <trkpt lat="47.85007" lon="-3.44155">
        <ele>44.83</ele>
        <time>2020-07-10T12:06:47Z</time>
      </trkpt>
      <trkpt lat="47.85011" lon="-3.4416">
        <ele>45.11</ele>
        <time>2020-07-10T12:06:48Z</time>
      </trkpt>
      <trkpt lat="47.85013" lon="-3.44164">
        <ele>45.32</ele>
        <time>2020-07-10T12:06:49Z</time>
      </trkpt>
      <trkpt lat="47.85016" lon="-3.44169">
        <ele>45.49</ele>
        <time>2020-07-10T12:06:50Z</time>
      </trkpt>
      <trkpt lat="47.85018" lon="-3.44174">
        <ele>45.61</ele>
        <time>2020-07-10T12:06:51Z</time>
      </trkpt>
      <trkpt lat="47.85022" lon="-3.44181">
        <ele>45.74</ele>
        <time>2020-07-10T12:06:52Z</time>
      </trkpt>
      <trkpt lat="47.85025" lon="-3.44186">
        <ele>45.86</ele>
        <time>2020-07-10T12:06:53Z</time>
      </trkpt>
      <trkpt lat="47.85029" lon="-3.44192">
        <ele>45.99</ele>
        <time>2020-07-10T12:06:54Z</time>
      </trkpt>
      <trkpt lat="47.85033" lon="-3.44198">
        <ele>46.2</ele>
        <time>2020-07-10T12:06:55Z</time>
      </trkpt>
      <trkpt lat="47.85037" lon="-3.44204">
        <ele>46.44</ele>
        <time>2020-07-10T12:06:56Z</time>
      </trkpt>
      <trkpt lat="47.85041" lon="-3.44209">
        <ele>46.66</ele>
        <time>2020-07-10T12:06:57Z</time>
      </trkpt>
      <trkpt lat="47.85044" lon="-3.44214">
        <ele>46.82</ele>
        <time>2020-07-10T12:06:58Z</time>
      </trkpt>
      <trkpt lat="47.85048" lon="-3.4422">
        <ele>46.93</ele>
        <time>2020-07-10T12:06:59Z</time>
      </trkpt>
      <trkpt lat="47.85051" lon="-3.44224">
        <ele>46.98</ele>
        <time>2020-07-10T12:07:00Z</time>
      </trkpt>
      <trkpt lat="47.85054" lon="-3.44229">
        <ele>46.99</ele>
        <time>2020-07-10T12:07:01Z</time>
      </trkpt>
      <trkpt lat="47.85057" lon="-3.44233">
        <ele>47.03</ele>
        <time>2020-07-10T12:07:02Z</time>
      </trkpt>
      <trkpt lat="47.8506" lon="-3.44237">
        <ele>47.12</ele>
        <time>2020-07-10T12:07:03Z</time>
      </trkpt>
      <trkpt lat="47.85063" lon="-3.44241">
        <ele>47.22</ele>
        <time>2020-07-10T12:07:04Z</time>
      </trkpt>
      <trkpt lat="47.85065" lon="-3.44245">
        <ele>47.31</ele>
        <time>2020-07-10T12:07:05Z</time>
      </trkpt>
      <trkpt lat="47.85069" lon="-3.44247">
        <ele>47.43</ele>
        <time>2020-07-10T12:07:06Z</time>
      </trkpt>
      <trkpt lat="47.85071" lon="-3.44248">
        <ele>47.53</ele>
        <time>2020-07-10T12:07:07Z</time>
      </trkpt>
      <trkpt lat="47.85074" lon="-3.44247">
        <ele>47.62</ele>
        <time>2020-07-10T12:07:08Z</time>
      </trkpt>
      <trkpt lat="47.85077" lon="-3.44245">
        <ele>47.72</ele>
        <time>2020-07-10T12:07:09Z</time>
      </trkpt>
      <trkpt lat="47.8508" lon="-3.44242">
        <ele>47.83</ele>
        <time>2020-07-10T12:07:10Z</time>
      </trkpt>
      <trkpt lat="47.85083" lon="-3.44239">
        <ele>47.94</ele>
        <time>2020-07-10T12:07:11Z</time>
      </trkpt>
      <trkpt lat="47.85086" lon="-3.44237">
        <ele>48.04</ele>
        <time>2020-07-10T12:07:12Z</time>
      </trkpt>
      <trkpt lat="47.85087" lon="-3.44237">
        <ele>48.1</ele>
        <time>2020-07-10T12:07:13Z</time>
      </trkpt>
      <trkpt lat="47.85087" lon="-3.44238">
        <ele>48.13</ele>
        <time>2020-07-10T12:07:14Z</time>
      </trkpt>
      <trkpt lat="47.85087" lon="-3.44239">
        <ele>48.13</ele>
        <time>2020-07-10T12:07:15Z</time>
      </trkpt>
      <trkpt lat="47.85086" lon="-3.4424">
        <ele>48.11</ele>
        <time>2020-07-10T12:07:16Z</time>
      </trkpt>
      <trkpt lat="47.85086" lon="-3.44242">
        <ele>48.1</ele>
        <time>2020-07-10T12:07:17Z</time>
      </trkpt>
      <trkpt lat="47.85084" lon="-3.44243">
        <ele>48.05</ele>
        <time>2020-07-10T12:07:18Z</time>
      </trkpt>
      <trkpt lat="47.85082" lon="-3.44244">
        <ele>47.99</ele>
        <time>2020-07-10T12:07:19Z</time>
      </trkpt>
      <trkpt lat="47.8508" lon="-3.44246">
        <ele>47.92</ele>
        <time>2020-07-10T12:07:20Z</time>
      </trkpt>
      <trkpt lat="47.85079" lon="-3.44249">
        <ele>47.86</ele>
        <time>2020-07-10T12:07:21Z</time>
      </trkpt>
      <trkpt lat="47.85079" lon="-3.44254">
        <ele>47.94</ele>
        <time>2020-07-10T12:07:22Z</time>
      </trkpt>
      <trkpt lat="47.8508" lon="-3.44259">
        <ele>48.12</ele>
        <time>2020-07-10T12:07:23Z</time>
      </trkpt>
      <trkpt lat="47.85082" lon="-3.44265">
        <ele>48.37</ele>
        <time>2020-07-10T12:07:24Z</time>
      </trkpt>
      <trkpt lat="47.85084" lon="-3.4427">
        <ele>48.63</ele>
        <time>2020-07-10T12:07:25Z</time>
      </trkpt>
      <trkpt lat="47.85086" lon="-3.44276">
        <ele>48.84</ele>
        <time>2020-07-10T12:07:26Z</time>
      </trkpt>
      <trkpt lat="47.85089" lon="-3.44281">
        <ele>48.95</ele>
        <time>2020-07-10T12:07:27Z</time>
      </trkpt>
      <trkpt lat="47.85091" lon="-3.44287">
        <ele>48.99</ele>
        <time>2020-07-10T12:07:28Z</time>
      </trkpt>
      <trkpt lat="47.85092" lon="-3.44294">
        <ele>49</ele>
        <time>2020-07-10T12:07:29Z</time>
      </trkpt>
      <trkpt lat="47.85093" lon="-3.44301">
        <ele>49</ele>
        <time>2020-07-10T12:07:30Z</time>
      </trkpt>
      <trkpt lat="47.85093" lon="-3.44309">
        <ele>49</ele>
        <time>2020-07-10T12:07:31Z</time>
      </trkpt>
      <trkpt lat="47.85094" lon="-3.44316">
        <ele>49</ele>
        <time>2020-07-10T12:07:32Z</time>
      </trkpt>
      <trkpt lat="47.85094" lon="-3.44323">
        <ele>49</ele>
        <time>2020-07-10T12:07:33Z</time>
      </trkpt>
      <trkpt lat="47.85095" lon="-3.44331">
        <ele>49</ele>
        <time>2020-07-10T12:07:34Z</time>
      </trkpt>
      <trkpt lat="47.85095" lon="-3.44338">
        <ele>49</ele>
        <time>2020-07-10T12:07:35Z</time>
      </trkpt>
      <trkpt lat="47.85095" lon="-3.44345">
        <ele>49</ele>
        <time>2020-07-10T12:07:36Z</time>
      </trkpt>
      <trkpt lat="47.85095" lon="-3.44352">
        <ele>49</ele>
        <time>2020-07-10T12:07:37Z</time>
      </trkpt>
      <trkpt lat="47.85095" lon="-3.44359">
        <ele>49</ele>
        <time>2020-07-10T12:07:38Z</time>
      </trkpt>
      <trkpt lat="47.85095" lon="-3.44365">
        <ele>49.04</ele>
        <time>2020-07-10T12:07:39Z</time>
      </trkpt>
      <trkpt lat="47.85095" lon="-3.44372">
        <ele>49.13</ele>
        <time>2020-07-10T12:07:40Z</time>
      </trkpt>
      <trkpt lat="47.85096" lon="-3.44378">
        <ele>49.23</ele>
        <time>2020-07-10T12:07:41Z</time>
      </trkpt>
      <trkpt lat="47.85099" lon="-3.44383">
        <ele>49.37</ele>
        <time>2020-07-10T12:07:42Z</time>
      </trkpt>
      <trkpt lat="47.85102" lon="-3.44384">
        <ele>49.51</ele>
        <time>2020-07-10T12:07:43Z</time>
      </trkpt>
      <trkpt lat="47.85108" lon="-3.44383">
        <ele>49.63</ele>
        <time>2020-07-10T12:07:44Z</time>
      </trkpt>
      <trkpt lat="47.85113" lon="-3.4438">
        <ele>49.68</ele>
        <time>2020-07-10T12:07:45Z</time>
      </trkpt>
      <trkpt lat="47.85119" lon="-3.44377">
        <ele>49.69</ele>
        <time>2020-07-10T12:07:46Z</time>
      </trkpt>
      <trkpt lat="47.85124" lon="-3.44374">
        <ele>49.71</ele>
        <time>2020-07-10T12:07:47Z</time>
      </trkpt>
      <trkpt lat="47.85129" lon="-3.44371">
        <ele>49.75</ele>
        <time>2020-07-10T12:07:48Z</time>
      </trkpt>
      <trkpt lat="47.85135" lon="-3.44368">
        <ele>49.84</ele>
        <time>2020-07-10T12:07:49Z</time>
      </trkpt>
      <trkpt lat="47.85139" lon="-3.44365">
        <ele>49.96</ele>
        <time>2020-07-10T12:07:50Z</time>
      </trkpt>
      <trkpt lat="47.85145" lon="-3.44363">
        <ele>50</ele>
        <time>2020-07-10T12:07:51Z</time>
      </trkpt>
      <trkpt lat="47.8515" lon="-3.44361">
        <ele>50</ele>
        <time>2020-07-10T12:07:52Z</time>
      </trkpt>
      <trkpt lat="47.85154" lon="-3.44358">
        <ele>50</ele>
        <time>2020-07-10T12:07:53Z</time>
      </trkpt>
      <trkpt lat="47.85159" lon="-3.44355">
        <ele>50</ele>
        <time>2020-07-10T12:07:54Z</time>
      </trkpt>
      <trkpt lat="47.85164" lon="-3.44352">
        <ele>50</ele>
        <time>2020-07-10T12:07:55Z</time>
      </trkpt>
      <trkpt lat="47.85169" lon="-3.4435">
        <ele>50.06</ele>
        <time>2020-07-10T12:07:56Z</time>
      </trkpt>
      <trkpt lat="47.85174" lon="-3.44348">
        <ele>50.19</ele>
        <time>2020-07-10T12:07:57Z</time>
      </trkpt>
      <trkpt lat="47.85178" lon="-3.44345">
        <ele>50.35</ele>
        <time>2020-07-10T12:07:58Z</time>
      </trkpt>
      <trkpt lat="47.85183" lon="-3.44343">
        <ele>50.52</ele>
        <time>2020-07-10T12:07:59Z</time>
      </trkpt>
      <trkpt lat="47.85188" lon="-3.4434">
        <ele>50.69</ele>
        <time>2020-07-10T12:08:00Z</time>
      </trkpt>
      <trkpt lat="47.85193" lon="-3.44338">
        <ele>50.86</ele>
        <time>2020-07-10T12:08:01Z</time>
      </trkpt>
      <trkpt lat="47.85197" lon="-3.44335">
        <ele>50.96</ele>
        <time>2020-07-10T12:08:02Z</time>
      </trkpt>
      <trkpt lat="47.85202" lon="-3.44333">
        <ele>50.98</ele>
        <time>2020-07-10T12:08:03Z</time>
      </trkpt>
      <trkpt lat="47.85207" lon="-3.4433">
        <ele>50.95</ele>
        <time>2020-07-10T12:08:04Z</time>
      </trkpt>
      <trkpt lat="47.85213" lon="-3.44328">
        <ele>50.93</ele>
        <time>2020-07-10T12:08:05Z</time>
      </trkpt>
      <trkpt lat="47.85218" lon="-3.44325">
        <ele>50.94</ele>
        <time>2020-07-10T12:08:06Z</time>
      </trkpt>
      <trkpt lat="47.85223" lon="-3.44322">
        <ele>50.99</ele>
        <time>2020-07-10T12:08:07Z</time>
      </trkpt>
      <trkpt lat="47.85227" lon="-3.44319">
        <ele>51.06</ele>
        <time>2020-07-10T12:08:08Z</time>
      </trkpt>
      <trkpt lat="47.85232" lon="-3.44317">
        <ele>51.12</ele>
        <time>2020-07-10T12:08:09Z</time>
      </trkpt>
      <trkpt lat="47.85237" lon="-3.44315">
        <ele>51.16</ele>
        <time>2020-07-10T12:08:10Z</time>
      </trkpt>
      <trkpt lat="47.85242" lon="-3.44312">
        <ele>51.17</ele>
        <time>2020-07-10T12:08:11Z</time>
      </trkpt>
      <trkpt lat="47.85247" lon="-3.4431">
        <ele>51.15</ele>
        <time>2020-07-10T12:08:12Z</time>
      </trkpt>
      <trkpt lat="47.85252" lon="-3.44308">
        <ele>51.15</ele>
        <time>2020-07-10T12:08:13Z</time>
      </trkpt>
      <trkpt lat="47.85257" lon="-3.44306">
        <ele>51.24</ele>
        <time>2020-07-10T12:08:14Z</time>
      </trkpt>
      <trkpt lat="47.85263" lon="-3.44305">
        <ele>51.39</ele>
        <time>2020-07-10T12:08:15Z</time>
      </trkpt>
      <trkpt lat="47.85267" lon="-3.44304">
        <ele>51.56</ele>
        <time>2020-07-10T12:08:16Z</time>
      </trkpt>
      <trkpt lat="47.85273" lon="-3.44302">
        <ele>51.74</ele>
        <time>2020-07-10T12:08:17Z</time>
      </trkpt>
      <trkpt lat="47.85278" lon="-3.443">
        <ele>51.92</ele>
        <time>2020-07-10T12:08:18Z</time>
      </trkpt>
      <trkpt lat="47.85283" lon="-3.44298">
        <ele>51.98</ele>
        <time>2020-07-10T12:08:19Z</time>
      </trkpt>
      <trkpt lat="47.85288" lon="-3.44296">
        <ele>51.99</ele>
        <time>2020-07-10T12:08:20Z</time>
      </trkpt>
      <trkpt lat="47.85293" lon="-3.44294">
        <ele>52</ele>
        <time>2020-07-10T12:08:21Z</time>
      </trkpt>
      <trkpt lat="47.85299" lon="-3.44291">
        <ele>52</ele>
        <time>2020-07-10T12:08:22Z</time>
      </trkpt>
      <trkpt lat="47.85304" lon="-3.44289">
        <ele>52</ele>
        <time>2020-07-10T12:08:23Z</time>
      </trkpt>
      <trkpt lat="47.8531" lon="-3.44287">
        <ele>52.1</ele>
        <time>2020-07-10T12:08:24Z</time>
      </trkpt>
      <trkpt lat="47.85315" lon="-3.44285">
        <ele>52.27</ele>
        <time>2020-07-10T12:08:25Z</time>
      </trkpt>
      <trkpt lat="47.8532" lon="-3.44284">
        <ele>52.44</ele>
        <time>2020-07-10T12:08:26Z</time>
      </trkpt>
      <trkpt lat="47.85325" lon="-3.44282">
        <ele>52.62</ele>
        <time>2020-07-10T12:08:27Z</time>
      </trkpt>
      <trkpt lat="47.8533" lon="-3.4428">
        <ele>52.79</ele>
        <time>2020-07-10T12:08:28Z</time>
      </trkpt>
      <trkpt lat="47.85335" lon="-3.44278">
        <ele>53.01</ele>
        <time>2020-07-10T12:08:29Z</time>
      </trkpt>
      <trkpt lat="47.8534" lon="-3.44276">
        <ele>53.4</ele>
        <time>2020-07-10T12:08:30Z</time>
      </trkpt>
      <trkpt lat="47.85346" lon="-3.44274">
        <ele>53.84</ele>
        <time>2020-07-10T12:08:31Z</time>
      </trkpt>
      <trkpt lat="47.85351" lon="-3.44272">
        <ele>54.27</ele>
        <time>2020-07-10T12:08:32Z</time>
      </trkpt>
      <trkpt lat="47.85356" lon="-3.44271">
        <ele>54.69</ele>
        <time>2020-07-10T12:08:33Z</time>
      </trkpt>
      <trkpt lat="47.85361" lon="-3.4427">
        <ele>55.08</ele>
        <time>2020-07-10T12:08:34Z</time>
      </trkpt>
      <trkpt lat="47.85365" lon="-3.4427">
        <ele>55.41</ele>
        <time>2020-07-10T12:08:35Z</time>
      </trkpt>
      <trkpt lat="47.85369" lon="-3.44269">
        <ele>55.74</ele>
        <time>2020-07-10T12:08:36Z</time>
      </trkpt>
      <trkpt lat="47.85374" lon="-3.44269">
        <ele>56.08</ele>
        <time>2020-07-10T12:08:37Z</time>
      </trkpt>
      <trkpt lat="47.85379" lon="-3.44269">
        <ele>56.43</ele>
        <time>2020-07-10T12:08:38Z</time>
      </trkpt>
      <trkpt lat="47.85384" lon="-3.44269">
        <ele>56.79</ele>
        <time>2020-07-10T12:08:39Z</time>
      </trkpt>
      <trkpt lat="47.85388" lon="-3.44269">
        <ele>57.13</ele>
        <time>2020-07-10T12:08:40Z</time>
      </trkpt>
      <trkpt lat="47.85393" lon="-3.4427">
        <ele>57.13</ele>
        <time>2020-07-10T12:08:41Z</time>
      </trkpt>
      <trkpt lat="47.85398" lon="-3.44271">
        <ele>57</ele>
        <time>2020-07-10T12:08:42Z</time>
      </trkpt>
      <trkpt lat="47.85402" lon="-3.44271">
        <ele>56.83</ele>
        <time>2020-07-10T12:08:43Z</time>
      </trkpt>
      <trkpt lat="47.85406" lon="-3.44272">
        <ele>56.66</ele>
        <time>2020-07-10T12:08:44Z</time>
      </trkpt>
      <trkpt lat="47.8541" lon="-3.44273">
        <ele>56.48</ele>
        <time>2020-07-10T12:08:45Z</time>
      </trkpt>
      <trkpt lat="47.85415" lon="-3.44274">
        <ele>56.27</ele>
        <time>2020-07-10T12:08:46Z</time>
      </trkpt>
      <trkpt lat="47.8542" lon="-3.44275">
        <ele>55.89</ele>
        <time>2020-07-10T12:08:47Z</time>
      </trkpt>
      <trkpt lat="47.85426" lon="-3.44276">
        <ele>55.33</ele>
        <time>2020-07-10T12:08:48Z</time>
      </trkpt>
      <trkpt lat="47.85431" lon="-3.44277">
        <ele>54.7</ele>
        <time>2020-07-10T12:08:49Z</time>
      </trkpt>
      <trkpt lat="47.85438" lon="-3.44278">
        <ele>53.97</ele>
        <time>2020-07-10T12:08:50Z</time>
      </trkpt>
      <trkpt lat="47.85445" lon="-3.44279">
        <ele>53.24</ele>
        <time>2020-07-10T12:08:51Z</time>
      </trkpt>
      <trkpt lat="47.85453" lon="-3.4428">
        <ele>52.43</ele>
        <time>2020-07-10T12:08:52Z</time>
      </trkpt>
      <trkpt lat="47.8546" lon="-3.44281">
        <ele>51.62</ele>
        <time>2020-07-10T12:08:53Z</time>
      </trkpt>
      <trkpt lat="47.85468" lon="-3.44282">
        <ele>50.79</ele>
        <time>2020-07-10T12:08:54Z</time>
      </trkpt>
      <trkpt lat="47.85476" lon="-3.44283">
        <ele>50.13</ele>
        <time>2020-07-10T12:08:55Z</time>
      </trkpt>
      <trkpt lat="47.85485" lon="-3.44284">
        <ele>49.72</ele>
        <time>2020-07-10T12:08:56Z</time>
      </trkpt>
      <trkpt lat="47.85493" lon="-3.44285">
        <ele>49.39</ele>
        <time>2020-07-10T12:08:57Z</time>
      </trkpt>
      <trkpt lat="47.85502" lon="-3.44287">
        <ele>49.07</ele>
        <time>2020-07-10T12:08:58Z</time>
      </trkpt>
      <trkpt lat="47.8551" lon="-3.44288">
        <ele>48.77</ele>
        <time>2020-07-10T12:08:59Z</time>
      </trkpt>
      <trkpt lat="47.85518" lon="-3.44289">
        <ele>48.48</ele>
        <time>2020-07-10T12:09:00Z</time>
      </trkpt>
      <trkpt lat="47.85526" lon="-3.44289">
        <ele>48.2</ele>
        <time>2020-07-10T12:09:01Z</time>
      </trkpt>
      <trkpt lat="47.85533" lon="-3.4429">
        <ele>48.14</ele>
        <time>2020-07-10T12:09:02Z</time>
      </trkpt>
      <trkpt lat="47.85541" lon="-3.44291">
        <ele>48.22</ele>
        <time>2020-07-10T12:09:03Z</time>
      </trkpt>
      <trkpt lat="47.85548" lon="-3.44292">
        <ele>48.32</ele>
        <time>2020-07-10T12:09:04Z</time>
      </trkpt>
      <trkpt lat="47.85555" lon="-3.44292">
        <ele>48.42</ele>
        <time>2020-07-10T12:09:05Z</time>
      </trkpt>
      <trkpt lat="47.85561" lon="-3.44293">
        <ele>48.64</ele>
        <time>2020-07-10T12:09:06Z</time>
      </trkpt>
      <trkpt lat="47.85567" lon="-3.44294">
        <ele>48.93</ele>
        <time>2020-07-10T12:09:07Z</time>
      </trkpt>
      <trkpt lat="47.85572" lon="-3.44294">
        <ele>49.24</ele>
        <time>2020-07-10T12:09:08Z</time>
      </trkpt>
      <trkpt lat="47.85578" lon="-3.44295">
        <ele>49.56</ele>
        <time>2020-07-10T12:09:09Z</time>
      </trkpt>
      <trkpt lat="47.85584" lon="-3.44295">
        <ele>49.88</ele>
        <time>2020-07-10T12:09:10Z</time>
      </trkpt>
      <trkpt lat="47.85589" lon="-3.44295">
        <ele>50.11</ele>
        <time>2020-07-10T12:09:11Z</time>
      </trkpt>
      <trkpt lat="47.85595" lon="-3.44296">
        <ele>50.33</ele>
        <time>2020-07-10T12:09:12Z</time>
      </trkpt>
      <trkpt lat="47.856" lon="-3.44297">
        <ele>50.53</ele>
        <time>2020-07-10T12:09:13Z</time>
      </trkpt>
      <trkpt lat="47.85606" lon="-3.44298">
        <ele>50.73</ele>
        <time>2020-07-10T12:09:14Z</time>
      </trkpt>
      <trkpt lat="47.85611" lon="-3.44298">
        <ele>50.91</ele>
        <time>2020-07-10T12:09:15Z</time>
      </trkpt>
      <trkpt lat="47.85616" lon="-3.44299">
        <ele>51.25</ele>
        <time>2020-07-10T12:09:16Z</time>
      </trkpt>
      <trkpt lat="47.85621" lon="-3.44299">
        <ele>51.62</ele>
        <time>2020-07-10T12:09:17Z</time>
      </trkpt>
      <trkpt lat="47.85626" lon="-3.44299">
        <ele>52</ele>
        <time>2020-07-10T12:09:18Z</time>
      </trkpt>
      <trkpt lat="47.8563" lon="-3.443">
        <ele>52.36</ele>
        <time>2020-07-10T12:09:19Z</time>
      </trkpt>
      <trkpt lat="47.85634" lon="-3.44301">
        <ele>52.7</ele>
        <time>2020-07-10T12:09:20Z</time>
      </trkpt>
      <trkpt lat="47.85639" lon="-3.44301">
        <ele>53.01</ele>
        <time>2020-07-10T12:09:21Z</time>
      </trkpt>
      <trkpt lat="47.85643" lon="-3.44302">
        <ele>53.3</ele>
        <time>2020-07-10T12:09:22Z</time>
      </trkpt>
      <trkpt lat="47.85647" lon="-3.44302">
        <ele>53.58</ele>
        <time>2020-07-10T12:09:23Z</time>
      </trkpt>
      <trkpt lat="47.85651" lon="-3.44303">
        <ele>53.85</ele>
        <time>2020-07-10T12:09:24Z</time>
      </trkpt>
      <trkpt lat="47.85655" lon="-3.44304">
        <ele>54.13</ele>
        <time>2020-07-10T12:09:25Z</time>
      </trkpt>
      <trkpt lat="47.85659" lon="-3.44304">
        <ele>54.4</ele>
        <time>2020-07-10T12:09:26Z</time>
      </trkpt>
      <trkpt lat="47.85663" lon="-3.44305">
        <ele>54.65</ele>
        <time>2020-07-10T12:09:27Z</time>
      </trkpt>
      <trkpt lat="47.85667" lon="-3.44306">
        <ele>54.92</ele>
        <time>2020-07-10T12:09:28Z</time>
      </trkpt>
      <trkpt lat="47.85671" lon="-3.44306">
        <ele>55.29</ele>
        <time>2020-07-10T12:09:29Z</time>
      </trkpt>
      <trkpt lat="47.85675" lon="-3.44307">
        <ele>55.7</ele>
        <time>2020-07-10T12:09:30Z</time>
      </trkpt>
      <trkpt lat="47.85679" lon="-3.44307">
        <ele>56.12</ele>
        <time>2020-07-10T12:09:31Z</time>
      </trkpt>
      <trkpt lat="47.85683" lon="-3.44308">
        <ele>56.55</ele>
        <time>2020-07-10T12:09:32Z</time>
      </trkpt>
      <trkpt lat="47.85687" lon="-3.44308">
        <ele>56.98</ele>
        <time>2020-07-10T12:09:33Z</time>
      </trkpt>
      <trkpt lat="47.85691" lon="-3.44309">
        <ele>57.41</ele>
        <time>2020-07-10T12:09:34Z</time>
      </trkpt>
      <trkpt lat="47.85695" lon="-3.44309">
        <ele>57.84</ele>
        <time>2020-07-10T12:09:35Z</time>
      </trkpt>
      <trkpt lat="47.85699" lon="-3.44309">
        <ele>58.07</ele>
        <time>2020-07-10T12:09:36Z</time>
      </trkpt>
      <trkpt lat="47.85703" lon="-3.44309">
        <ele>58.25</ele>
        <time>2020-07-10T12:09:37Z</time>
      </trkpt>
      <trkpt lat="47.85708" lon="-3.4431">
        <ele>58.41</ele>
        <time>2020-07-10T12:09:38Z</time>
      </trkpt>
      <trkpt lat="47.85712" lon="-3.44311">
        <ele>58.57</ele>
        <time>2020-07-10T12:09:39Z</time>
      </trkpt>
      <trkpt lat="47.85717" lon="-3.44311">
        <ele>58.74</ele>
        <time>2020-07-10T12:09:40Z</time>
      </trkpt>
      <trkpt lat="47.85722" lon="-3.44312">
        <ele>58.9</ele>
        <time>2020-07-10T12:09:41Z</time>
      </trkpt>
      <trkpt lat="47.85726" lon="-3.44313">
        <ele>59.09</ele>
        <time>2020-07-10T12:09:42Z</time>
      </trkpt>
      <trkpt lat="47.8573" lon="-3.44313">
        <ele>59.28</ele>
        <time>2020-07-10T12:09:43Z</time>
      </trkpt>
      <trkpt lat="47.85734" lon="-3.44314">
        <ele>59.47</ele>
        <time>2020-07-10T12:09:44Z</time>
      </trkpt>
      <trkpt lat="47.85738" lon="-3.44315">
        <ele>59.67</ele>
        <time>2020-07-10T12:09:45Z</time>
      </trkpt>
      <trkpt lat="47.85742" lon="-3.44315">
        <ele>59.87</ele>
        <time>2020-07-10T12:09:46Z</time>
      </trkpt>
      <trkpt lat="47.85746" lon="-3.44315">
        <ele>60.08</ele>
        <time>2020-07-10T12:09:47Z</time>
      </trkpt>
      <trkpt lat="47.85751" lon="-3.44316">
        <ele>60.3</ele>
        <time>2020-07-10T12:09:48Z</time>
      </trkpt>
      <trkpt lat="47.85755" lon="-3.44316">
        <ele>60.55</ele>
        <time>2020-07-10T12:09:49Z</time>
      </trkpt>
      <trkpt lat="47.85759" lon="-3.44317">
        <ele>60.8</ele>
        <time>2020-07-10T12:09:50Z</time>
      </trkpt>
      <trkpt lat="47.85762" lon="-3.44318">
        <ele>61.04</ele>
        <time>2020-07-10T12:09:51Z</time>
      </trkpt>
      <trkpt lat="47.85767" lon="-3.44319">
        <ele>61.29</ele>
        <time>2020-07-10T12:09:52Z</time>
      </trkpt>
      <trkpt lat="47.85771" lon="-3.4432">
        <ele>61.53</ele>
        <time>2020-07-10T12:09:53Z</time>
      </trkpt>
      <trkpt lat="47.85775" lon="-3.44321">
        <ele>61.77</ele>
        <time>2020-07-10T12:09:54Z</time>
      </trkpt>
      <trkpt lat="47.8578" lon="-3.44321">
        <ele>62.03</ele>
        <time>2020-07-10T12:09:55Z</time>
      </trkpt>
      <trkpt lat="47.85784" lon="-3.44321">
        <ele>62.31</ele>
        <time>2020-07-10T12:09:56Z</time>
      </trkpt>
      <trkpt lat="47.85788" lon="-3.44321">
        <ele>62.61</ele>
        <time>2020-07-10T12:09:57Z</time>
      </trkpt>
      <trkpt lat="47.85792" lon="-3.44321">
        <ele>62.92</ele>
        <time>2020-07-10T12:09:58Z</time>
      </trkpt>
      <trkpt lat="47.85797" lon="-3.4432">
        <ele>63.24</ele>
        <time>2020-07-10T12:09:59Z</time>
      </trkpt>
      <trkpt lat="47.85801" lon="-3.4432">
        <ele>63.56</ele>
        <time>2020-07-10T12:10:00Z</time>
      </trkpt>
      <trkpt lat="47.85805" lon="-3.4432">
        <ele>63.85</ele>
        <time>2020-07-10T12:10:01Z</time>
      </trkpt>
      <trkpt lat="47.85809" lon="-3.4432">
        <ele>64.18</ele>
        <time>2020-07-10T12:10:02Z</time>
      </trkpt>
      <trkpt lat="47.85813" lon="-3.4432">
        <ele>64.52</ele>
        <time>2020-07-10T12:10:03Z</time>
      </trkpt>
      <trkpt lat="47.85817" lon="-3.4432">
        <ele>64.87</ele>
        <time>2020-07-10T12:10:04Z</time>
      </trkpt>
      <trkpt lat="47.85821" lon="-3.4432">
        <ele>65.23</ele>
        <time>2020-07-10T12:10:05Z</time>
      </trkpt>
      <trkpt lat="47.85825" lon="-3.44319">
        <ele>65.58</ele>
        <time>2020-07-10T12:10:06Z</time>
      </trkpt>
      <trkpt lat="47.85828" lon="-3.44318">
        <ele>65.92</ele>
        <time>2020-07-10T12:10:07Z</time>
      </trkpt>
      <trkpt lat="47.85831" lon="-3.44316">
        <ele>66.28</ele>
        <time>2020-07-10T12:10:08Z</time>
      </trkpt>
      <trkpt lat="47.85835" lon="-3.44315">
        <ele>66.6</ele>
        <time>2020-07-10T12:10:09Z</time>
      </trkpt>
      <trkpt lat="47.85839" lon="-3.44314">
        <ele>66.85</ele>
        <time>2020-07-10T12:10:10Z</time>
      </trkpt>
      <trkpt lat="47.85843" lon="-3.44314">
        <ele>67.05</ele>
        <time>2020-07-10T12:10:11Z</time>
      </trkpt>
      <trkpt lat="47.85847" lon="-3.44314">
        <ele>67.25</ele>
        <time>2020-07-10T12:10:12Z</time>
      </trkpt>
      <trkpt lat="47.85851" lon="-3.44315">
        <ele>67.43</ele>
        <time>2020-07-10T12:10:13Z</time>
      </trkpt>
      <trkpt lat="47.85854" lon="-3.44318">
        <ele>67.56</ele>
        <time>2020-07-10T12:10:14Z</time>
      </trkpt>
      <trkpt lat="47.85857" lon="-3.44323">
        <ele>67.69</ele>
        <time>2020-07-10T12:10:15Z</time>
      </trkpt>
      <trkpt lat="47.8586" lon="-3.44327">
        <ele>67.84</ele>
        <time>2020-07-10T12:10:16Z</time>
      </trkpt>
      <trkpt lat="47.85863" lon="-3.44332">
        <ele>67.99</ele>
        <time>2020-07-10T12:10:17Z</time>
      </trkpt>
      <trkpt lat="47.85866" lon="-3.44335">
        <ele>68.06</ele>
        <time>2020-07-10T12:10:18Z</time>
      </trkpt>
      <trkpt lat="47.85869" lon="-3.4434">
        <ele>68.04</ele>
        <time>2020-07-10T12:10:19Z</time>
      </trkpt>
      <trkpt lat="47.85873" lon="-3.44344">
        <ele>68.05</ele>
        <time>2020-07-10T12:10:20Z</time>
      </trkpt>
      <trkpt lat="47.85877" lon="-3.44349">
        <ele>68.01</ele>
        <time>2020-07-10T12:10:21Z</time>
      </trkpt>
      <trkpt lat="47.8588" lon="-3.44354">
        <ele>67.95</ele>
        <time>2020-07-10T12:10:22Z</time>
      </trkpt>
      <trkpt lat="47.85883" lon="-3.44358">
        <ele>67.9</ele>
        <time>2020-07-10T12:10:23Z</time>
      </trkpt>
      <trkpt lat="47.85885" lon="-3.44364">
        <ele>67.87</ele>
        <time>2020-07-10T12:10:24Z</time>
      </trkpt>
      <trkpt lat="47.85887" lon="-3.4437">
        <ele>67.91</ele>
        <time>2020-07-10T12:10:25Z</time>
      </trkpt>
      <trkpt lat="47.85888" lon="-3.44375">
        <ele>67.95</ele>
        <time>2020-07-10T12:10:26Z</time>
      </trkpt>
      <trkpt lat="47.85889" lon="-3.44382">
        <ele>67.97</ele>
        <time>2020-07-10T12:10:27Z</time>
      </trkpt>
      <trkpt lat="47.85888" lon="-3.44389">
        <ele>67.97</ele>
        <time>2020-07-10T12:10:28Z</time>
      </trkpt>
      <trkpt lat="47.85888" lon="-3.44396">
        <ele>67.79</ele>
        <time>2020-07-10T12:10:29Z</time>
      </trkpt>
      <trkpt lat="47.85887" lon="-3.44403">
        <ele>67.54</ele>
        <time>2020-07-10T12:10:30Z</time>
      </trkpt>
      <trkpt lat="47.85885" lon="-3.44411">
        <ele>67.29</ele>
        <time>2020-07-10T12:10:31Z</time>
      </trkpt>
      <trkpt lat="47.85884" lon="-3.44418">
        <ele>67.09</ele>
        <time>2020-07-10T12:10:32Z</time>
      </trkpt>
      <trkpt lat="47.85882" lon="-3.44426">
        <ele>67.03</ele>
        <time>2020-07-10T12:10:33Z</time>
      </trkpt>
      <trkpt lat="47.85881" lon="-3.44433">
        <ele>67.01</ele>
        <time>2020-07-10T12:10:34Z</time>
      </trkpt>
      <trkpt lat="47.85879" lon="-3.44441">
        <ele>67</ele>
        <time>2020-07-10T12:10:35Z</time>
      </trkpt>
      <trkpt lat="47.85878" lon="-3.44449">
        <ele>67</ele>
        <time>2020-07-10T12:10:36Z</time>
      </trkpt>
      <trkpt lat="47.85877" lon="-3.44457">
        <ele>67</ele>
        <time>2020-07-10T12:10:37Z</time>
      </trkpt>
      <trkpt lat="47.85876" lon="-3.44465">
        <ele>67</ele>
        <time>2020-07-10T12:10:38Z</time>
      </trkpt>
      <trkpt lat="47.85874" lon="-3.44473">
        <ele>67</ele>
        <time>2020-07-10T12:10:39Z</time>
      </trkpt>
      <trkpt lat="47.85873" lon="-3.44481">
        <ele>67</ele>
        <time>2020-07-10T12:10:40Z</time>
      </trkpt>
      <trkpt lat="47.85872" lon="-3.44489">
        <ele>67</ele>
        <time>2020-07-10T12:10:41Z</time>
      </trkpt>
      <trkpt lat="47.85871" lon="-3.44496">
        <ele>67</ele>
        <time>2020-07-10T12:10:42Z</time>
      </trkpt>
      <trkpt lat="47.85869" lon="-3.44505">
        <ele>67</ele>
        <time>2020-07-10T12:10:43Z</time>
      </trkpt>
      <trkpt lat="47.85868" lon="-3.44512">
        <ele>67</ele>
        <time>2020-07-10T12:10:44Z</time>
      </trkpt>
      <trkpt lat="47.85867" lon="-3.4452">
        <ele>67</ele>
        <time>2020-07-10T12:10:45Z</time>
      </trkpt>
      <trkpt lat="47.85866" lon="-3.44528">
        <ele>67</ele>
        <time>2020-07-10T12:10:46Z</time>
      </trkpt>
      <trkpt lat="47.85865" lon="-3.44536">
        <ele>67</ele>
        <time>2020-07-10T12:10:47Z</time>
      </trkpt>
      <trkpt lat="47.85864" lon="-3.44543">
        <ele>67</ele>
        <time>2020-07-10T12:10:48Z</time>
      </trkpt>
      <trkpt lat="47.85864" lon="-3.44551">
        <ele>67</ele>
        <time>2020-07-10T12:10:49Z</time>
      </trkpt>
      <trkpt lat="47.85863" lon="-3.44558">
        <ele>67</ele>
        <time>2020-07-10T12:10:50Z</time>
      </trkpt>
      <trkpt lat="47.85863" lon="-3.44566">
        <ele>67</ele>
        <time>2020-07-10T12:10:51Z</time>
      </trkpt>
      <trkpt lat="47.85862" lon="-3.44574">
        <ele>67</ele>
        <time>2020-07-10T12:10:52Z</time>
      </trkpt>
      <trkpt lat="47.85861" lon="-3.4459">
        <ele>67</ele>
        <time>2020-07-10T12:10:54Z</time>
      </trkpt>
      <trkpt lat="47.85861" lon="-3.44598">
        <ele>67</ele>
        <time>2020-07-10T12:10:55Z</time>
      </trkpt>
      <trkpt lat="47.85861" lon="-3.44606">
        <ele>66.99</ele>
        <time>2020-07-10T12:10:56Z</time>
      </trkpt>
      <trkpt lat="47.8586" lon="-3.44614">
        <ele>66.98</ele>
        <time>2020-07-10T12:10:57Z</time>
      </trkpt>
      <trkpt lat="47.8586" lon="-3.44622">
        <ele>66.96</ele>
        <time>2020-07-10T12:10:58Z</time>
      </trkpt>
      <trkpt lat="47.85859" lon="-3.4463">
        <ele>66.94</ele>
        <time>2020-07-10T12:10:59Z</time>
      </trkpt>
      <trkpt lat="47.85859" lon="-3.44637">
        <ele>66.93</ele>
        <time>2020-07-10T12:11:00Z</time>
      </trkpt>
      <trkpt lat="47.85859" lon="-3.44645">
        <ele>66.93</ele>
        <time>2020-07-10T12:11:01Z</time>
      </trkpt>
      <trkpt lat="47.85858" lon="-3.44652">
        <ele>66.94</ele>
        <time>2020-07-10T12:11:02Z</time>
      </trkpt>
      <trkpt lat="47.85858" lon="-3.44659">
        <ele>66.96</ele>
        <time>2020-07-10T12:11:03Z</time>
      </trkpt>
      <trkpt lat="47.85857" lon="-3.44666">
        <ele>66.99</ele>
        <time>2020-07-10T12:11:04Z</time>
      </trkpt>
      <trkpt lat="47.85857" lon="-3.44673">
        <ele>67</ele>
        <time>2020-07-10T12:11:05Z</time>
      </trkpt>
      <trkpt lat="47.85857" lon="-3.4468">
        <ele>67</ele>
        <time>2020-07-10T12:11:06Z</time>
      </trkpt>
      <trkpt lat="47.85857" lon="-3.44686">
        <ele>67</ele>
        <time>2020-07-10T12:11:07Z</time>
      </trkpt>
      <trkpt lat="47.85856" lon="-3.44692">
        <ele>67</ele>
        <time>2020-07-10T12:11:08Z</time>
      </trkpt>
      <trkpt lat="47.85856" lon="-3.44698">
        <ele>67.08</ele>
        <time>2020-07-10T12:11:09Z</time>
      </trkpt>
      <trkpt lat="47.85857" lon="-3.44702">
        <ele>67.22</ele>
        <time>2020-07-10T12:11:10Z</time>
      </trkpt>
      <trkpt lat="47.85858" lon="-3.44705">
        <ele>67.33</ele>
        <time>2020-07-10T12:11:11Z</time>
      </trkpt>
      <trkpt lat="47.85859" lon="-3.44706">
        <ele>67.39</ele>
        <time>2020-07-10T12:11:12Z</time>
      </trkpt>
      <trkpt lat="47.85859" lon="-3.44706">
        <ele>67.4</ele>
        <time>2020-07-10T12:11:13Z</time>
      </trkpt>
      <trkpt lat="47.85858" lon="-3.44706">
        <ele>67.41</ele>
        <time>2020-07-10T12:11:14Z</time>
      </trkpt>
      <trkpt lat="47.85858" lon="-3.44706">
        <ele>67.41</ele>
        <time>2020-07-10T12:11:15Z</time>
      </trkpt>
      <trkpt lat="47.85858" lon="-3.44706">
        <ele>67.41</ele>
        <time>2020-07-10T12:11:16Z</time>
      </trkpt>
      <trkpt lat="47.85858" lon="-3.44706">
        <ele>67.41</ele>
        <time>2020-07-10T12:11:17Z</time>
      </trkpt>
      <trkpt lat="47.85858" lon="-3.44706">
        <ele>67.41</ele>
        <time>2020-07-10T12:11:18Z</time>
      </trkpt>
      <trkpt lat="47.85858" lon="-3.44706">
        <ele>67.41</ele>
        <time>2020-07-10T12:11:19Z</time>
      </trkpt>
      <trkpt lat="47.85862" lon="-3.44707">
        <ele>67.44</ele>
        <time>2020-07-10T12:11:20Z</time>
      </trkpt>
      <trkpt lat="47.85864" lon="-3.44708">
        <ele>67.46</ele>
        <time>2020-07-10T12:11:21Z</time>
      </trkpt>
      <trkpt lat="47.85865" lon="-3.44708">
        <ele>67.48</ele>
        <time>2020-07-10T12:11:22Z</time>
      </trkpt>
      <trkpt lat="47.85867" lon="-3.44708">
        <ele>67.47</ele>
        <time>2020-07-10T12:11:23Z</time>
      </trkpt>
      <trkpt lat="47.85869" lon="-3.44707">
        <ele>67.45</ele>
        <time>2020-07-10T12:11:24Z</time>
      </trkpt>
      <trkpt lat="47.8587" lon="-3.44706">
        <ele>67.44</ele>
        <time>2020-07-10T12:11:25Z</time>
      </trkpt>
      <trkpt lat="47.85872" lon="-3.44706">
        <ele>67.42</ele>
        <time>2020-07-10T12:11:26Z</time>
      </trkpt>
      <trkpt lat="47.85874" lon="-3.44706">
        <ele>67.43</ele>
        <time>2020-07-10T12:11:27Z</time>
      </trkpt>
      <trkpt lat="47.85877" lon="-3.44707">
        <ele>67.44</ele>
        <time>2020-07-10T12:11:28Z</time>
      </trkpt>
      <trkpt lat="47.85879" lon="-3.44708">
        <ele>67.47</ele>
        <time>2020-07-10T12:11:29Z</time>
      </trkpt>
      <trkpt lat="47.85881" lon="-3.44709">
        <ele>67.51</ele>
        <time>2020-07-10T12:11:30Z</time>
      </trkpt>
      <trkpt lat="47.85883" lon="-3.44709">
        <ele>67.53</ele>
        <time>2020-07-10T12:11:31Z</time>
      </trkpt>
      <trkpt lat="47.85886" lon="-3.44709">
        <ele>67.53</ele>
        <time>2020-07-10T12:11:32Z</time>
      </trkpt>
      <trkpt lat="47.85888" lon="-3.44709">
        <ele>67.52</ele>
        <time>2020-07-10T12:11:33Z</time>
      </trkpt>
      <trkpt lat="47.8589" lon="-3.44709">
        <ele>67.49</ele>
        <time>2020-07-10T12:11:34Z</time>
      </trkpt>
      <trkpt lat="47.85893" lon="-3.44709">
        <ele>67.46</ele>
        <time>2020-07-10T12:11:35Z</time>
      </trkpt>
      <trkpt lat="47.85897" lon="-3.44708">
        <ele>67.38</ele>
        <time>2020-07-10T12:11:36Z</time>
      </trkpt>
      <trkpt lat="47.85901" lon="-3.44708">
        <ele>67.32</ele>
        <time>2020-07-10T12:11:37Z</time>
      </trkpt>
      <trkpt lat="47.85904" lon="-3.44709">
        <ele>67.26</ele>
        <time>2020-07-10T12:11:38Z</time>
      </trkpt>
      <trkpt lat="47.85907" lon="-3.44711">
        <ele>67.22</ele>
        <time>2020-07-10T12:11:39Z</time>
      </trkpt>
      <trkpt lat="47.85911" lon="-3.44713">
        <ele>67.17</ele>
        <time>2020-07-10T12:11:40Z</time>
      </trkpt>
      <trkpt lat="47.85915" lon="-3.44716">
        <ele>67.09</ele>
        <time>2020-07-10T12:11:41Z</time>
      </trkpt>
      <trkpt lat="47.85917" lon="-3.4472">
        <ele>67.01</ele>
        <time>2020-07-10T12:11:42Z</time>
      </trkpt>
      <trkpt lat="47.85922" lon="-3.44724">
        <ele>66.87</ele>
        <time>2020-07-10T12:11:43Z</time>
      </trkpt>
      <trkpt lat="47.85925" lon="-3.44728">
        <ele>66.71</ele>
        <time>2020-07-10T12:11:44Z</time>
      </trkpt>
      <trkpt lat="47.85928" lon="-3.44734">
        <ele>66.49</ele>
        <time>2020-07-10T12:11:45Z</time>
      </trkpt>
      <trkpt lat="47.85932" lon="-3.44741">
        <ele>66.2</ele>
        <time>2020-07-10T12:11:46Z</time>
      </trkpt>
      <trkpt lat="47.85934" lon="-3.44748">
        <ele>65.93</ele>
        <time>2020-07-10T12:11:47Z</time>
      </trkpt>
      <trkpt lat="47.85936" lon="-3.44757">
        <ele>65.54</ele>
        <time>2020-07-10T12:11:48Z</time>
      </trkpt>
      <trkpt lat="47.85938" lon="-3.44766">
        <ele>65.07</ele>
        <time>2020-07-10T12:11:49Z</time>
      </trkpt>
      <trkpt lat="47.8594" lon="-3.44775">
        <ele>64.58</ele>
        <time>2020-07-10T12:11:50Z</time>
      </trkpt>
      <trkpt lat="47.85942" lon="-3.44785">
        <ele>64.15</ele>
        <time>2020-07-10T12:11:51Z</time>
      </trkpt>
      <trkpt lat="47.85943" lon="-3.44794">
        <ele>63.74</ele>
        <time>2020-07-10T12:11:52Z</time>
      </trkpt>
      <trkpt lat="47.85945" lon="-3.44804">
        <ele>63.25</ele>
        <time>2020-07-10T12:11:53Z</time>
      </trkpt>
      <trkpt lat="47.85945" lon="-3.44813">
        <ele>62.85</ele>
        <time>2020-07-10T12:11:54Z</time>
      </trkpt>
      <trkpt lat="47.85946" lon="-3.44822">
        <ele>62.48</ele>
        <time>2020-07-10T12:11:55Z</time>
      </trkpt>
      <trkpt lat="47.85946" lon="-3.44831">
        <ele>62.13</ele>
        <time>2020-07-10T12:11:56Z</time>
      </trkpt>
      <trkpt lat="47.85946" lon="-3.44839">
        <ele>61.82</ele>
        <time>2020-07-10T12:11:57Z</time>
      </trkpt>
      <trkpt lat="47.85945" lon="-3.44848">
        <ele>61.54</ele>
        <time>2020-07-10T12:11:58Z</time>
      </trkpt>
      <trkpt lat="47.85945" lon="-3.44856">
        <ele>61.26</ele>
        <time>2020-07-10T12:11:59Z</time>
      </trkpt>
      <trkpt lat="47.85945" lon="-3.44866">
        <ele>60.94</ele>
        <time>2020-07-10T12:12:00Z</time>
      </trkpt>
      <trkpt lat="47.85946" lon="-3.44876">
        <ele>60.54</ele>
        <time>2020-07-10T12:12:01Z</time>
      </trkpt>
      <trkpt lat="47.85946" lon="-3.44886">
        <ele>60.14</ele>
        <time>2020-07-10T12:12:02Z</time>
      </trkpt>
      <trkpt lat="47.85947" lon="-3.44897">
        <ele>59.7</ele>
        <time>2020-07-10T12:12:03Z</time>
      </trkpt>
      <trkpt lat="47.85949" lon="-3.44907">
        <ele>59.22</ele>
        <time>2020-07-10T12:12:04Z</time>
      </trkpt>
      <trkpt lat="47.8595" lon="-3.44919">
        <ele>58.73</ele>
        <time>2020-07-10T12:12:05Z</time>
      </trkpt>
      <trkpt lat="47.85951" lon="-3.4493">
        <ele>58.24</ele>
        <time>2020-07-10T12:12:06Z</time>
      </trkpt>
      <trkpt lat="47.85951" lon="-3.4494">
        <ele>57.84</ele>
        <time>2020-07-10T12:12:07Z</time>
      </trkpt>
      <trkpt lat="47.85951" lon="-3.4495">
        <ele>57.61</ele>
        <time>2020-07-10T12:12:08Z</time>
      </trkpt>
      <trkpt lat="47.85951" lon="-3.44959">
        <ele>57.55</ele>
        <time>2020-07-10T12:12:09Z</time>
      </trkpt>
      <trkpt lat="47.85951" lon="-3.44967">
        <ele>57.55</ele>
        <time>2020-07-10T12:12:10Z</time>
      </trkpt>
      <trkpt lat="47.85951" lon="-3.44976">
        <ele>57.42</ele>
        <time>2020-07-10T12:12:11Z</time>
      </trkpt>
      <trkpt lat="47.85952" lon="-3.44985">
        <ele>57.06</ele>
        <time>2020-07-10T12:12:12Z</time>
      </trkpt>
      <trkpt lat="47.85952" lon="-3.44993">
        <ele>56.63</ele>
        <time>2020-07-10T12:12:13Z</time>
      </trkpt>
      <trkpt lat="47.85952" lon="-3.45001">
        <ele>56.23</ele>
        <time>2020-07-10T12:12:14Z</time>
      </trkpt>
      <trkpt lat="47.85952" lon="-3.45008">
        <ele>55.8</ele>
        <time>2020-07-10T12:12:15Z</time>
      </trkpt>
      <trkpt lat="47.85952" lon="-3.45013">
        <ele>55.41</ele>
        <time>2020-07-10T12:12:16Z</time>
      </trkpt>
      <trkpt lat="47.85955" lon="-3.45015">
        <ele>54.93</ele>
        <time>2020-07-10T12:12:17Z</time>
      </trkpt>
      <trkpt lat="47.85958" lon="-3.45017">
        <ele>54.49</ele>
        <time>2020-07-10T12:12:18Z</time>
      </trkpt>
      <trkpt lat="47.8596" lon="-3.45016">
        <ele>54.22</ele>
        <time>2020-07-10T12:12:19Z</time>
      </trkpt>
      <trkpt lat="47.85962" lon="-3.45017">
        <ele>54.02</ele>
        <time>2020-07-10T12:12:20Z</time>
      </trkpt>
      <trkpt lat="47.85963" lon="-3.45017">
        <ele>53.84</ele>
        <time>2020-07-10T12:12:21Z</time>
      </trkpt>
      <trkpt lat="47.85965" lon="-3.45017">
        <ele>53.65</ele>
        <time>2020-07-10T12:12:22Z</time>
      </trkpt>
      <trkpt lat="47.85965" lon="-3.45018">
        <ele>53.51</ele>
        <time>2020-07-10T12:12:23Z</time>
      </trkpt>
      <trkpt lat="47.85965" lon="-3.45018">
        <ele>53.46</ele>
        <time>2020-07-10T12:12:24Z</time>
      </trkpt>
      <trkpt lat="47.85965" lon="-3.45018">
        <ele>53.45</ele>
        <time>2020-07-10T12:12:25Z</time>
      </trkpt>
      <trkpt lat="47.85965" lon="-3.45018">
        <ele>53.44</ele>
        <time>2020-07-10T12:12:26Z</time>
      </trkpt>
      <trkpt lat="47.85965" lon="-3.45018">
        <ele>53.44</ele>
        <time>2020-07-10T12:12:27Z</time>
      </trkpt>
      <trkpt lat="47.85965" lon="-3.45018">
        <ele>53.44</ele>
        <time>2020-07-10T12:12:28Z</time>
      </trkpt>
      <trkpt lat="47.85965" lon="-3.45018">
        <ele>53.44</ele>
        <time>2020-07-10T12:12:29Z</time>
      </trkpt>
      <trkpt lat="47.85965" lon="-3.45018">
        <ele>53.44</ele>
        <time>2020-07-10T12:12:30Z</time>
      </trkpt>
      <trkpt lat="47.85965" lon="-3.45018">
        <ele>53.44</ele>
        <time>2020-07-10T12:12:31Z</time>
      </trkpt>
      <trkpt lat="47.85965" lon="-3.45018">
        <ele>53.44</ele>
        <time>2020-07-10T12:12:32Z</time>
      </trkpt>
      <trkpt lat="47.85965" lon="-3.45018">
        <ele>53.44</ele>
        <time>2020-07-10T12:12:33Z</time>
      </trkpt>
      <trkpt lat="47.85965" lon="-3.45018">
        <ele>53.44</ele>
        <time>2020-07-10T12:12:34Z</time>
      </trkpt>
      <trkpt lat="47.85965" lon="-3.45018">
        <ele>53.44</ele>
        <time>2020-07-10T12:12:35Z</time>
      </trkpt>
      <trkpt lat="47.85965" lon="-3.45018">
        <ele>53.44</ele>
        <time>2020-07-10T12:12:36Z</time>
      </trkpt>
      <trkpt lat="47.85965" lon="-3.45018">
        <ele>53.44</ele>
        <time>2020-07-10T12:12:37Z</time>
      </trkpt>
      <trkpt lat="47.85965" lon="-3.45018">
        <ele>53.44</ele>
        <time>2020-07-10T12:12:38Z</time>
      </trkpt>
      <trkpt lat="47.85965" lon="-3.45018">
        <ele>53.44</ele>
        <time>2020-07-10T12:12:39Z</time>
      </trkpt>
      <trkpt lat="47.85965" lon="-3.45018">
        <ele>53.44</ele>
        <time>2020-07-10T12:12:40Z</time>
      </trkpt>
      <trkpt lat="47.85965" lon="-3.45018">
        <ele>53.44</ele>
        <time>2020-07-10T12:12:41Z</time>
      </trkpt>
      <trkpt lat="47.85965" lon="-3.45018">
        <ele>53.44</ele>
        <time>2020-07-10T12:12:42Z</time>
      </trkpt>
      <trkpt lat="47.85965" lon="-3.45018">
        <ele>53.44</ele>
        <time>2020-07-10T12:12:43Z</time>
      </trkpt>
      <trkpt lat="47.85965" lon="-3.45018">
        <ele>53.44</ele>
        <time>2020-07-10T12:12:44Z</time>
      </trkpt>
      <trkpt lat="47.85965" lon="-3.45018">
        <ele>53.44</ele>
        <time>2020-07-10T12:12:45Z</time>
      </trkpt>
      <trkpt lat="47.85965" lon="-3.45018">
        <ele>53.44</ele>
        <time>2020-07-10T12:12:46Z</time>
      </trkpt>
      <trkpt lat="47.85965" lon="-3.45018">
        <ele>53.44</ele>
        <time>2020-07-10T12:12:47Z</time>
      </trkpt>
      <trkpt lat="47.85965" lon="-3.45018">
        <ele>53.44</ele>
        <time>2020-07-10T12:12:48Z</time>
      </trkpt>
      <trkpt lat="47.85965" lon="-3.45018">
        <ele>53.44</ele>
        <time>2020-07-10T12:12:49Z</time>
      </trkpt>
      <trkpt lat="47.85975" lon="-3.45019">
        <ele>52.82</ele>
        <time>2020-07-10T12:12:50Z</time>
      </trkpt>
      <trkpt lat="47.85977" lon="-3.45021">
        <ele>52.49</ele>
        <time>2020-07-10T12:12:51Z</time>
      </trkpt>
      <trkpt lat="47.85979" lon="-3.45023">
        <ele>52.22</ele>
        <time>2020-07-10T12:12:52Z</time>
      </trkpt>
      <trkpt lat="47.85981" lon="-3.45026">
        <ele>51.93</ele>
        <time>2020-07-10T12:12:53Z</time>
      </trkpt>
      <trkpt lat="47.85982" lon="-3.4503">
        <ele>51.7</ele>
        <time>2020-07-10T12:12:54Z</time>
      </trkpt>
      <trkpt lat="47.85984" lon="-3.45033">
        <ele>51.54</ele>
        <time>2020-07-10T12:12:55Z</time>
      </trkpt>
      <trkpt lat="47.85986" lon="-3.45035">
        <ele>51.43</ele>
        <time>2020-07-10T12:12:56Z</time>
      </trkpt>
      <trkpt lat="47.85989" lon="-3.45037">
        <ele>51.31</ele>
        <time>2020-07-10T12:12:57Z</time>
      </trkpt>
      <trkpt lat="47.85992" lon="-3.4504">
        <ele>51.21</ele>
        <time>2020-07-10T12:12:58Z</time>
      </trkpt>
      <trkpt lat="47.85993" lon="-3.45043">
        <ele>51.15</ele>
        <time>2020-07-10T12:12:59Z</time>
      </trkpt>
      <trkpt lat="47.85992" lon="-3.45047">
        <ele>51.11</ele>
        <time>2020-07-10T12:13:00Z</time>
      </trkpt>
      <trkpt lat="47.8599" lon="-3.45051">
        <ele>51.07</ele>
        <time>2020-07-10T12:13:01Z</time>
      </trkpt>
      <trkpt lat="47.85988" lon="-3.45056">
        <ele>51.02</ele>
        <time>2020-07-10T12:13:02Z</time>
      </trkpt>
      <trkpt lat="47.85985" lon="-3.45059">
        <ele>51.09</ele>
        <time>2020-07-10T12:13:03Z</time>
      </trkpt>
      <trkpt lat="47.85983" lon="-3.45062">
        <ele>51.16</ele>
        <time>2020-07-10T12:13:04Z</time>
      </trkpt>
      <trkpt lat="47.8598" lon="-3.45066">
        <ele>51.19</ele>
        <time>2020-07-10T12:13:05Z</time>
      </trkpt>
      <trkpt lat="47.85977" lon="-3.45069">
        <ele>51.18</ele>
        <time>2020-07-10T12:13:06Z</time>
      </trkpt>
      <trkpt lat="47.85975" lon="-3.45073">
        <ele>51.13</ele>
        <time>2020-07-10T12:13:07Z</time>
      </trkpt>
      <trkpt lat="47.85973" lon="-3.45078">
        <ele>51.08</ele>
        <time>2020-07-10T12:13:08Z</time>
      </trkpt>
      <trkpt lat="47.85972" lon="-3.45083">
        <ele>51.02</ele>
        <time>2020-07-10T12:13:09Z</time>
      </trkpt>
      <trkpt lat="47.85971" lon="-3.45087">
        <ele>51.1</ele>
        <time>2020-07-10T12:13:10Z</time>
      </trkpt>
      <trkpt lat="47.85972" lon="-3.45092">
        <ele>51.23</ele>
        <time>2020-07-10T12:13:11Z</time>
      </trkpt>
      <trkpt lat="47.85972" lon="-3.45095">
        <ele>51.37</ele>
        <time>2020-07-10T12:13:12Z</time>
      </trkpt>
      <trkpt lat="47.85974" lon="-3.45099">
        <ele>51.57</ele>
        <time>2020-07-10T12:13:13Z</time>
      </trkpt>
      <trkpt lat="47.85975" lon="-3.45101">
        <ele>51.77</ele>
        <time>2020-07-10T12:13:14Z</time>
      </trkpt>
      <trkpt lat="47.85976" lon="-3.45104">
        <ele>51.93</ele>
        <time>2020-07-10T12:13:15Z</time>
      </trkpt>
      <trkpt lat="47.85976" lon="-3.45107">
        <ele>52.05</ele>
        <time>2020-07-10T12:13:16Z</time>
      </trkpt>
      <trkpt lat="47.85976" lon="-3.45111">
        <ele>52.19</ele>
        <time>2020-07-10T12:13:17Z</time>
      </trkpt>
      <trkpt lat="47.85977" lon="-3.45115">
        <ele>52.22</ele>
        <time>2020-07-10T12:13:18Z</time>
      </trkpt>
      <trkpt lat="47.85977" lon="-3.4512">
        <ele>52.14</ele>
        <time>2020-07-10T12:13:19Z</time>
      </trkpt>
      <trkpt lat="47.85977" lon="-3.45125">
        <ele>52.03</ele>
        <time>2020-07-10T12:13:20Z</time>
      </trkpt>
      <trkpt lat="47.85977" lon="-3.45129">
        <ele>51.93</ele>
        <time>2020-07-10T12:13:21Z</time>
      </trkpt>
      <trkpt lat="47.85977" lon="-3.45133">
        <ele>51.83</ele>
        <time>2020-07-10T12:13:22Z</time>
      </trkpt>
      <trkpt lat="47.85977" lon="-3.45137">
        <ele>51.75</ele>
        <time>2020-07-10T12:13:23Z</time>
      </trkpt>
      <trkpt lat="47.85977" lon="-3.45141">
        <ele>51.78</ele>
        <time>2020-07-10T12:13:24Z</time>
      </trkpt>
      <trkpt lat="47.85978" lon="-3.45145">
        <ele>51.91</ele>
        <time>2020-07-10T12:13:25Z</time>
      </trkpt>
      <trkpt lat="47.85978" lon="-3.45149">
        <ele>52.14</ele>
        <time>2020-07-10T12:13:26Z</time>
      </trkpt>
      <trkpt lat="47.85979" lon="-3.45153">
        <ele>52.43</ele>
        <time>2020-07-10T12:13:27Z</time>
      </trkpt>
      <trkpt lat="47.85981" lon="-3.45156">
        <ele>52.72</ele>
        <time>2020-07-10T12:13:28Z</time>
      </trkpt>
      <trkpt lat="47.85981" lon="-3.45159">
        <ele>52.95</ele>
        <time>2020-07-10T12:13:29Z</time>
      </trkpt>
      <trkpt lat="47.85981" lon="-3.45163">
        <ele>53.11</ele>
        <time>2020-07-10T12:13:30Z</time>
      </trkpt>
      <trkpt lat="47.85981" lon="-3.45166">
        <ele>53.24</ele>
        <time>2020-07-10T12:13:31Z</time>
      </trkpt>
      <trkpt lat="47.85981" lon="-3.4517">
        <ele>53.35</ele>
        <time>2020-07-10T12:13:32Z</time>
      </trkpt>
      <trkpt lat="47.85981" lon="-3.45173">
        <ele>53.42</ele>
        <time>2020-07-10T12:13:33Z</time>
      </trkpt>
      <trkpt lat="47.8598" lon="-3.45177">
        <ele>53.47</ele>
        <time>2020-07-10T12:13:34Z</time>
      </trkpt>
      <trkpt lat="47.85979" lon="-3.45181">
        <ele>53.49</ele>
        <time>2020-07-10T12:13:35Z</time>
      </trkpt>
      <trkpt lat="47.85978" lon="-3.45184">
        <ele>53.46</ele>
        <time>2020-07-10T12:13:36Z</time>
      </trkpt>
      <trkpt lat="47.85977" lon="-3.45188">
        <ele>53.42</ele>
        <time>2020-07-10T12:13:37Z</time>
      </trkpt>
      <trkpt lat="47.85975" lon="-3.45191">
        <ele>53.37</ele>
        <time>2020-07-10T12:13:38Z</time>
      </trkpt>
      <trkpt lat="47.85975" lon="-3.45195">
        <ele>53.46</ele>
        <time>2020-07-10T12:13:39Z</time>
      </trkpt>
      <trkpt lat="47.85975" lon="-3.45199">
        <ele>53.73</ele>
        <time>2020-07-10T12:13:40Z</time>
      </trkpt>
      <trkpt lat="47.85975" lon="-3.45204">
        <ele>54.2</ele>
        <time>2020-07-10T12:13:41Z</time>
      </trkpt>
      <trkpt lat="47.85976" lon="-3.45208">
        <ele>54.71</ele>
        <time>2020-07-10T12:13:42Z</time>
      </trkpt>
      <trkpt lat="47.85977" lon="-3.45211">
        <ele>55.21</ele>
        <time>2020-07-10T12:13:43Z</time>
      </trkpt>
      <trkpt lat="47.85979" lon="-3.45214">
        <ele>55.72</ele>
        <time>2020-07-10T12:13:44Z</time>
      </trkpt>
      <trkpt lat="47.85981" lon="-3.45215">
        <ele>56.15</ele>
        <time>2020-07-10T12:13:45Z</time>
      </trkpt>
      <trkpt lat="47.85985" lon="-3.45218">
        <ele>56.72</ele>
        <time>2020-07-10T12:13:46Z</time>
      </trkpt>
      <trkpt lat="47.85987" lon="-3.45221">
        <ele>57.27</ele>
        <time>2020-07-10T12:13:47Z</time>
      </trkpt>
      <trkpt lat="47.85989" lon="-3.45223">
        <ele>57.74</ele>
        <time>2020-07-10T12:13:48Z</time>
      </trkpt>
      <trkpt lat="47.85991" lon="-3.45226">
        <ele>58.22</ele>
        <time>2020-07-10T12:13:49Z</time>
      </trkpt>
      <trkpt lat="47.85991" lon="-3.45229">
        <ele>58.63</ele>
        <time>2020-07-10T12:13:50Z</time>
      </trkpt>
      <trkpt lat="47.85991" lon="-3.45232">
        <ele>59</ele>
        <time>2020-07-10T12:13:51Z</time>
      </trkpt>
      <trkpt lat="47.85991" lon="-3.45234">
        <ele>59.3</ele>
        <time>2020-07-10T12:13:52Z</time>
      </trkpt>
      <trkpt lat="47.85991" lon="-3.45236">
        <ele>59.56</ele>
        <time>2020-07-10T12:13:53Z</time>
      </trkpt>
      <trkpt lat="47.8599" lon="-3.45238">
        <ele>59.8</ele>
        <time>2020-07-10T12:13:54Z</time>
      </trkpt>
      <trkpt lat="47.8599" lon="-3.45241">
        <ele>60.04</ele>
        <time>2020-07-10T12:13:55Z</time>
      </trkpt>
      <trkpt lat="47.85989" lon="-3.45244">
        <ele>60.3</ele>
        <time>2020-07-10T12:13:56Z</time>
      </trkpt>
      <trkpt lat="47.85988" lon="-3.45246">
        <ele>60.53</ele>
        <time>2020-07-10T12:13:57Z</time>
      </trkpt>
      <trkpt lat="47.85987" lon="-3.45249">
        <ele>60.81</ele>
        <time>2020-07-10T12:13:58Z</time>
      </trkpt>
      <trkpt lat="47.85985" lon="-3.45252">
        <ele>61.03</ele>
        <time>2020-07-10T12:13:59Z</time>
      </trkpt>
      <trkpt lat="47.85984" lon="-3.45255">
        <ele>61.15</ele>
        <time>2020-07-10T12:14:00Z</time>
      </trkpt>
      <trkpt lat="47.85983" lon="-3.45258">
        <ele>61.28</ele>
        <time>2020-07-10T12:14:01Z</time>
      </trkpt>
      <trkpt lat="47.85982" lon="-3.45261">
        <ele>61.42</ele>
        <time>2020-07-10T12:14:02Z</time>
      </trkpt>
      <trkpt lat="47.85982" lon="-3.45263">
        <ele>61.6</ele>
        <time>2020-07-10T12:14:03Z</time>
      </trkpt>
      <trkpt lat="47.85982" lon="-3.45266">
        <ele>61.76</ele>
        <time>2020-07-10T12:14:04Z</time>
      </trkpt>
      <trkpt lat="47.85982" lon="-3.45269">
        <ele>61.99</ele>
        <time>2020-07-10T12:14:05Z</time>
      </trkpt>
      <trkpt lat="47.85983" lon="-3.45272">
        <ele>62.22</ele>
        <time>2020-07-10T12:14:06Z</time>
      </trkpt>
      <trkpt lat="47.85984" lon="-3.45275">
        <ele>62.5</ele>
        <time>2020-07-10T12:14:07Z</time>
      </trkpt>
      <trkpt lat="47.85985" lon="-3.45278">
        <ele>62.81</ele>
        <time>2020-07-10T12:14:08Z</time>
      </trkpt>
      <trkpt lat="47.85987" lon="-3.45283">
        <ele>63.16</ele>
        <time>2020-07-10T12:14:09Z</time>
      </trkpt>
      <trkpt lat="47.85988" lon="-3.45286">
        <ele>63.46</ele>
        <time>2020-07-10T12:14:10Z</time>
      </trkpt>
      <trkpt lat="47.85989" lon="-3.4529">
        <ele>63.73</ele>
        <time>2020-07-10T12:14:11Z</time>
      </trkpt>
      <trkpt lat="47.85988" lon="-3.45293">
        <ele>63.88</ele>
        <time>2020-07-10T12:14:12Z</time>
      </trkpt>
      <trkpt lat="47.85988" lon="-3.45297">
        <ele>64.04</ele>
        <time>2020-07-10T12:14:13Z</time>
      </trkpt>
      <trkpt lat="47.85988" lon="-3.45302">
        <ele>64.26</ele>
        <time>2020-07-10T12:14:14Z</time>
      </trkpt>
      <trkpt lat="47.85988" lon="-3.45306">
        <ele>64.49</ele>
        <time>2020-07-10T12:14:15Z</time>
      </trkpt>
      <trkpt lat="47.85988" lon="-3.4531">
        <ele>64.82</ele>
        <time>2020-07-10T12:14:16Z</time>
      </trkpt>
      <trkpt lat="47.85987" lon="-3.45314">
        <ele>65.12</ele>
        <time>2020-07-10T12:14:17Z</time>
      </trkpt>
      <trkpt lat="47.85986" lon="-3.45317">
        <ele>65.42</ele>
        <time>2020-07-10T12:14:18Z</time>
      </trkpt>
      <trkpt lat="47.85985" lon="-3.4532">
        <ele>65.69</ele>
        <time>2020-07-10T12:14:19Z</time>
      </trkpt>
      <trkpt lat="47.85984" lon="-3.45323">
        <ele>65.96</ele>
        <time>2020-07-10T12:14:20Z</time>
      </trkpt>
      <trkpt lat="47.85983" lon="-3.45327">
        <ele>66.27</ele>
        <time>2020-07-10T12:14:21Z</time>
      </trkpt>
      <trkpt lat="47.85982" lon="-3.45331">
        <ele>66.61</ele>
        <time>2020-07-10T12:14:22Z</time>
      </trkpt>
      <trkpt lat="47.85981" lon="-3.45334">
        <ele>66.93</ele>
        <time>2020-07-10T12:14:23Z</time>
      </trkpt>
      <trkpt lat="47.8598" lon="-3.45338">
        <ele>67.22</ele>
        <time>2020-07-10T12:14:24Z</time>
      </trkpt>
      <trkpt lat="47.85978" lon="-3.45342">
        <ele>67.52</ele>
        <time>2020-07-10T12:14:25Z</time>
      </trkpt>
      <trkpt lat="47.85978" lon="-3.45347">
        <ele>67.86</ele>
        <time>2020-07-10T12:14:26Z</time>
      </trkpt>
      <trkpt lat="47.85976" lon="-3.45352">
        <ele>68.19</ele>
        <time>2020-07-10T12:14:27Z</time>
      </trkpt>
      <trkpt lat="47.85975" lon="-3.45356">
        <ele>68.48</ele>
        <time>2020-07-10T12:14:28Z</time>
      </trkpt>
      <trkpt lat="47.85974" lon="-3.45359">
        <ele>68.76</ele>
        <time>2020-07-10T12:14:29Z</time>
      </trkpt>
      <trkpt lat="47.85972" lon="-3.45364">
        <ele>68.98</ele>
        <time>2020-07-10T12:14:30Z</time>
      </trkpt>
      <trkpt lat="47.8597" lon="-3.45367">
        <ele>68.99</ele>
        <time>2020-07-10T12:14:31Z</time>
      </trkpt>
      <trkpt lat="47.85968" lon="-3.4537">
        <ele>68.92</ele>
        <time>2020-07-10T12:14:32Z</time>
      </trkpt>
      <trkpt lat="47.85966" lon="-3.45371">
        <ele>68.77</ele>
        <time>2020-07-10T12:14:33Z</time>
      </trkpt>
      <trkpt lat="47.85964" lon="-3.45373">
        <ele>68.62</ele>
        <time>2020-07-10T12:14:34Z</time>
      </trkpt>
      <trkpt lat="47.85962" lon="-3.45376">
        <ele>68.45</ele>
        <time>2020-07-10T12:14:35Z</time>
      </trkpt>
      <trkpt lat="47.85959" lon="-3.45378">
        <ele>68.27</ele>
        <time>2020-07-10T12:14:36Z</time>
      </trkpt>
      <trkpt lat="47.85957" lon="-3.45378">
        <ele>68.07</ele>
        <time>2020-07-10T12:14:37Z</time>
      </trkpt>
      <trkpt lat="47.85955" lon="-3.45378">
        <ele>67.86</ele>
        <time>2020-07-10T12:14:38Z</time>
      </trkpt>
      <trkpt lat="47.85953" lon="-3.45376">
        <ele>67.58</ele>
        <time>2020-07-10T12:14:39Z</time>
      </trkpt>
      <trkpt lat="47.8595" lon="-3.45375">
        <ele>67.21</ele>
        <time>2020-07-10T12:14:40Z</time>
      </trkpt>
      <trkpt lat="47.85947" lon="-3.45373">
        <ele>66.82</ele>
        <time>2020-07-10T12:14:41Z</time>
      </trkpt>
      <trkpt lat="47.85943" lon="-3.4537">
        <ele>66.41</ele>
        <time>2020-07-10T12:14:42Z</time>
      </trkpt>
      <trkpt lat="47.8594" lon="-3.45368">
        <ele>66.08</ele>
        <time>2020-07-10T12:14:43Z</time>
      </trkpt>
      <trkpt lat="47.85938" lon="-3.45365">
        <ele>65.76</ele>
        <time>2020-07-10T12:14:44Z</time>
      </trkpt>
      <trkpt lat="47.85936" lon="-3.45361">
        <ele>65.5</ele>
        <time>2020-07-10T12:14:45Z</time>
      </trkpt>
      <trkpt lat="47.85933" lon="-3.45359">
        <ele>65.18</ele>
        <time>2020-07-10T12:14:46Z</time>
      </trkpt>
      <trkpt lat="47.85929" lon="-3.45357">
        <ele>64.8</ele>
        <time>2020-07-10T12:14:47Z</time>
      </trkpt>
      <trkpt lat="47.85923" lon="-3.45355">
        <ele>64.4</ele>
        <time>2020-07-10T12:14:48Z</time>
      </trkpt>
      <trkpt lat="47.85919" lon="-3.45355">
        <ele>64.06</ele>
        <time>2020-07-10T12:14:49Z</time>
      </trkpt>
      <trkpt lat="47.85915" lon="-3.45354">
        <ele>63.81</ele>
        <time>2020-07-10T12:14:50Z</time>
      </trkpt>
      <trkpt lat="47.8591" lon="-3.45353">
        <ele>63.64</ele>
        <time>2020-07-10T12:14:51Z</time>
      </trkpt>
      <trkpt lat="47.85906" lon="-3.45352">
        <ele>63.49</ele>
        <time>2020-07-10T12:14:52Z</time>
      </trkpt>
      <trkpt lat="47.85902" lon="-3.45351">
        <ele>63.35</ele>
        <time>2020-07-10T12:14:53Z</time>
      </trkpt>
      <trkpt lat="47.85896" lon="-3.45351">
        <ele>63.23</ele>
        <time>2020-07-10T12:14:54Z</time>
      </trkpt>
      <trkpt lat="47.85892" lon="-3.45352">
        <ele>63.12</ele>
        <time>2020-07-10T12:14:55Z</time>
      </trkpt>
      <trkpt lat="47.85887" lon="-3.45352">
        <ele>62.95</ele>
        <time>2020-07-10T12:14:56Z</time>
      </trkpt>
      <trkpt lat="47.85881" lon="-3.45353">
        <ele>62.74</ele>
        <time>2020-07-10T12:14:57Z</time>
      </trkpt>
      <trkpt lat="47.85877" lon="-3.45355">
        <ele>62.55</ele>
        <time>2020-07-10T12:14:58Z</time>
      </trkpt>
      <trkpt lat="47.85871" lon="-3.4536">
        <ele>62.41</ele>
        <time>2020-07-10T12:14:59Z</time>
      </trkpt>
      <trkpt lat="47.85867" lon="-3.45365">
        <ele>62.37</ele>
        <time>2020-07-10T12:15:00Z</time>
      </trkpt>
      <trkpt lat="47.85863" lon="-3.45371">
        <ele>62.4</ele>
        <time>2020-07-10T12:15:01Z</time>
      </trkpt>
      <trkpt lat="47.8586" lon="-3.45376">
        <ele>62.47</ele>
        <time>2020-07-10T12:15:02Z</time>
      </trkpt>
      <trkpt lat="47.85858" lon="-3.45382">
        <ele>62.61</ele>
        <time>2020-07-10T12:15:03Z</time>
      </trkpt>
      <trkpt lat="47.85857" lon="-3.45389">
        <ele>62.78</ele>
        <time>2020-07-10T12:15:04Z</time>
      </trkpt>
      <trkpt lat="47.85854" lon="-3.45397">
        <ele>62.92</ele>
        <time>2020-07-10T12:15:05Z</time>
      </trkpt>
      <trkpt lat="47.85853" lon="-3.45405">
        <ele>63.05</ele>
        <time>2020-07-10T12:15:06Z</time>
      </trkpt>
      <trkpt lat="47.85852" lon="-3.4541">
        <ele>63.16</ele>
        <time>2020-07-10T12:15:07Z</time>
      </trkpt>
      <trkpt lat="47.85852" lon="-3.45417">
        <ele>63.3</ele>
        <time>2020-07-10T12:15:08Z</time>
      </trkpt>
      <trkpt lat="47.85852" lon="-3.45423">
        <ele>63.39</ele>
        <time>2020-07-10T12:15:09Z</time>
      </trkpt>
      <trkpt lat="47.85852" lon="-3.45429">
        <ele>63.46</ele>
        <time>2020-07-10T12:15:10Z</time>
      </trkpt>
      <trkpt lat="47.85851" lon="-3.45436">
        <ele>63.51</ele>
        <time>2020-07-10T12:15:11Z</time>
      </trkpt>
      <trkpt lat="47.8585" lon="-3.45442">
        <ele>63.55</ele>
        <time>2020-07-10T12:15:12Z</time>
      </trkpt>
      <trkpt lat="47.85848" lon="-3.45449">
        <ele>63.55</ele>
        <time>2020-07-10T12:15:13Z</time>
      </trkpt>
      <trkpt lat="47.85847" lon="-3.45455">
        <ele>63.5</ele>
        <time>2020-07-10T12:15:14Z</time>
      </trkpt>
      <trkpt lat="47.85846" lon="-3.45461">
        <ele>63.46</ele>
        <time>2020-07-10T12:15:15Z</time>
      </trkpt>
      <trkpt lat="47.85845" lon="-3.45467">
        <ele>63.44</ele>
        <time>2020-07-10T12:15:16Z</time>
      </trkpt>
      <trkpt lat="47.85844" lon="-3.45473">
        <ele>63.4</ele>
        <time>2020-07-10T12:15:17Z</time>
      </trkpt>
      <trkpt lat="47.85842" lon="-3.4548">
        <ele>63.21</ele>
        <time>2020-07-10T12:15:18Z</time>
      </trkpt>
      <trkpt lat="47.8584" lon="-3.45486">
        <ele>62.99</ele>
        <time>2020-07-10T12:15:19Z</time>
      </trkpt>
      <trkpt lat="47.85841" lon="-3.45491">
        <ele>62.83</ele>
        <time>2020-07-10T12:15:20Z</time>
      </trkpt>
      <trkpt lat="47.85841" lon="-3.45496">
        <ele>62.72</ele>
        <time>2020-07-10T12:15:21Z</time>
      </trkpt>
      <trkpt lat="47.85841" lon="-3.45502">
        <ele>62.59</ele>
        <time>2020-07-10T12:15:22Z</time>
      </trkpt>
      <trkpt lat="47.8584" lon="-3.45508">
        <ele>62.5</ele>
        <time>2020-07-10T12:15:23Z</time>
      </trkpt>
      <trkpt lat="47.85839" lon="-3.45513">
        <ele>62.42</ele>
        <time>2020-07-10T12:15:24Z</time>
      </trkpt>
      <trkpt lat="47.85838" lon="-3.45519">
        <ele>62.34</ele>
        <time>2020-07-10T12:15:25Z</time>
      </trkpt>
      <trkpt lat="47.85837" lon="-3.45524">
        <ele>62.28</ele>
        <time>2020-07-10T12:15:26Z</time>
      </trkpt>
      <trkpt lat="47.85836" lon="-3.4553">
        <ele>62.22</ele>
        <time>2020-07-10T12:15:27Z</time>
      </trkpt>
      <trkpt lat="47.85835" lon="-3.45536">
        <ele>62.15</ele>
        <time>2020-07-10T12:15:28Z</time>
      </trkpt>
      <trkpt lat="47.85834" lon="-3.45542">
        <ele>62.06</ele>
        <time>2020-07-10T12:15:29Z</time>
      </trkpt>
      <trkpt lat="47.85834" lon="-3.45549">
        <ele>62.03</ele>
        <time>2020-07-10T12:15:30Z</time>
      </trkpt>
      <trkpt lat="47.85834" lon="-3.45556">
        <ele>62.02</ele>
        <time>2020-07-10T12:15:31Z</time>
      </trkpt>
      <trkpt lat="47.85834" lon="-3.45562">
        <ele>61.85</ele>
        <time>2020-07-10T12:15:32Z</time>
      </trkpt>
      <trkpt lat="47.85834" lon="-3.45569">
        <ele>61.65</ele>
        <time>2020-07-10T12:15:33Z</time>
      </trkpt>
      <trkpt lat="47.85835" lon="-3.45576">
        <ele>61.43</ele>
        <time>2020-07-10T12:15:34Z</time>
      </trkpt>
      <trkpt lat="47.85834" lon="-3.45584">
        <ele>61.18</ele>
        <time>2020-07-10T12:15:35Z</time>
      </trkpt>
      <trkpt lat="47.85834" lon="-3.45592">
        <ele>60.91</ele>
        <time>2020-07-10T12:15:36Z</time>
      </trkpt>
      <trkpt lat="47.85835" lon="-3.45599">
        <ele>60.67</ele>
        <time>2020-07-10T12:15:37Z</time>
      </trkpt>
      <trkpt lat="47.85835" lon="-3.45606">
        <ele>60.42</ele>
        <time>2020-07-10T12:15:38Z</time>
      </trkpt>
      <trkpt lat="47.85835" lon="-3.45614">
        <ele>60.24</ele>
        <time>2020-07-10T12:15:39Z</time>
      </trkpt>
      <trkpt lat="47.85836" lon="-3.45621">
        <ele>60.21</ele>
        <time>2020-07-10T12:15:40Z</time>
      </trkpt>
      <trkpt lat="47.85836" lon="-3.45629">
        <ele>60.2</ele>
        <time>2020-07-10T12:15:41Z</time>
      </trkpt>
      <trkpt lat="47.85837" lon="-3.45637">
        <ele>60.22</ele>
        <time>2020-07-10T12:15:42Z</time>
      </trkpt>
      <trkpt lat="47.85836" lon="-3.45646">
        <ele>60.21</ele>
        <time>2020-07-10T12:15:43Z</time>
      </trkpt>
      <trkpt lat="47.85835" lon="-3.45654">
        <ele>60.16</ele>
        <time>2020-07-10T12:15:44Z</time>
      </trkpt>
      <trkpt lat="47.85835" lon="-3.45661">
        <ele>60.12</ele>
        <time>2020-07-10T12:15:45Z</time>
      </trkpt>
      <trkpt lat="47.85834" lon="-3.4567">
        <ele>60.08</ele>
        <time>2020-07-10T12:15:46Z</time>
      </trkpt>
      <trkpt lat="47.85834" lon="-3.45677">
        <ele>60.05</ele>
        <time>2020-07-10T12:15:47Z</time>
      </trkpt>
      <trkpt lat="47.85834" lon="-3.45684">
        <ele>60.03</ele>
        <time>2020-07-10T12:15:48Z</time>
      </trkpt>
      <trkpt lat="47.85833" lon="-3.45692">
        <ele>59.99</ele>
        <time>2020-07-10T12:15:49Z</time>
      </trkpt>
      <trkpt lat="47.85832" lon="-3.45699">
        <ele>59.94</ele>
        <time>2020-07-10T12:15:50Z</time>
      </trkpt>
      <trkpt lat="47.85831" lon="-3.45707">
        <ele>59.9</ele>
        <time>2020-07-10T12:15:51Z</time>
      </trkpt>
      <trkpt lat="47.85831" lon="-3.45714">
        <ele>59.88</ele>
        <time>2020-07-10T12:15:52Z</time>
      </trkpt>
      <trkpt lat="47.85829" lon="-3.45721">
        <ele>59.86</ele>
        <time>2020-07-10T12:15:53Z</time>
      </trkpt>
      <trkpt lat="47.85828" lon="-3.45728">
        <ele>59.94</ele>
        <time>2020-07-10T12:15:54Z</time>
      </trkpt>
      <trkpt lat="47.85827" lon="-3.45734">
        <ele>60.04</ele>
        <time>2020-07-10T12:15:55Z</time>
      </trkpt>
      <trkpt lat="47.85825" lon="-3.45741">
        <ele>60.15</ele>
        <time>2020-07-10T12:15:56Z</time>
      </trkpt>
      <trkpt lat="47.85824" lon="-3.45747">
        <ele>60.25</ele>
        <time>2020-07-10T12:15:57Z</time>
      </trkpt>
      <trkpt lat="47.85823" lon="-3.45754">
        <ele>60.36</ele>
        <time>2020-07-10T12:15:58Z</time>
      </trkpt>
      <trkpt lat="47.85822" lon="-3.4576">
        <ele>60.49</ele>
        <time>2020-07-10T12:15:59Z</time>
      </trkpt>
      <trkpt lat="47.85821" lon="-3.45767">
        <ele>60.63</ele>
        <time>2020-07-10T12:16:00Z</time>
      </trkpt>
      <trkpt lat="47.8582" lon="-3.45774">
        <ele>60.8</ele>
        <time>2020-07-10T12:16:01Z</time>
      </trkpt>
      <trkpt lat="47.85818" lon="-3.45781">
        <ele>60.98</ele>
        <time>2020-07-10T12:16:02Z</time>
      </trkpt>
      <trkpt lat="47.85818" lon="-3.45788">
        <ele>61.17</ele>
        <time>2020-07-10T12:16:03Z</time>
      </trkpt>
      <trkpt lat="47.85817" lon="-3.45794">
        <ele>61.31</ele>
        <time>2020-07-10T12:16:04Z</time>
      </trkpt>
      <trkpt lat="47.85815" lon="-3.45799">
        <ele>61.42</ele>
        <time>2020-07-10T12:16:05Z</time>
      </trkpt>
      <trkpt lat="47.85813" lon="-3.45805">
        <ele>61.5</ele>
        <time>2020-07-10T12:16:06Z</time>
      </trkpt>
      <trkpt lat="47.85811" lon="-3.45811">
        <ele>61.53</ele>
        <time>2020-07-10T12:16:07Z</time>
      </trkpt>
      <trkpt lat="47.85808" lon="-3.45816">
        <ele>61.53</ele>
        <time>2020-07-10T12:16:08Z</time>
      </trkpt>
      <trkpt lat="47.85804" lon="-3.45821">
        <ele>61.47</ele>
        <time>2020-07-10T12:16:09Z</time>
      </trkpt>
      <trkpt lat="47.858" lon="-3.45826">
        <ele>61.37</ele>
        <time>2020-07-10T12:16:10Z</time>
      </trkpt>
      <trkpt lat="47.85797" lon="-3.45831">
        <ele>61.3</ele>
        <time>2020-07-10T12:16:11Z</time>
      </trkpt>
      <trkpt lat="47.85793" lon="-3.45836">
        <ele>61.19</ele>
        <time>2020-07-10T12:16:12Z</time>
      </trkpt>
      <trkpt lat="47.85789" lon="-3.45842">
        <ele>61.07</ele>
        <time>2020-07-10T12:16:13Z</time>
      </trkpt>
      <trkpt lat="47.85786" lon="-3.45848">
        <ele>60.99</ele>
        <time>2020-07-10T12:16:14Z</time>
      </trkpt>
      <trkpt lat="47.85782" lon="-3.45855">
        <ele>60.96</ele>
        <time>2020-07-10T12:16:15Z</time>
      </trkpt>
      <trkpt lat="47.85778" lon="-3.45861">
        <ele>61</ele>
        <time>2020-07-10T12:16:16Z</time>
      </trkpt>
      <trkpt lat="47.85775" lon="-3.45869">
        <ele>60.87</ele>
        <time>2020-07-10T12:16:17Z</time>
      </trkpt>
      <trkpt lat="47.85772" lon="-3.45876">
        <ele>60.73</ele>
        <time>2020-07-10T12:16:18Z</time>
      </trkpt>
      <trkpt lat="47.85768" lon="-3.45884">
        <ele>60.63</ele>
        <time>2020-07-10T12:16:19Z</time>
      </trkpt>
      <trkpt lat="47.85765" lon="-3.45892">
        <ele>60.64</ele>
        <time>2020-07-10T12:16:20Z</time>
      </trkpt>
      <trkpt lat="47.85762" lon="-3.45899">
        <ele>60.75</ele>
        <time>2020-07-10T12:16:21Z</time>
      </trkpt>
      <trkpt lat="47.85758" lon="-3.45907">
        <ele>60.89</ele>
        <time>2020-07-10T12:16:22Z</time>
      </trkpt>
      <trkpt lat="47.85755" lon="-3.45915">
        <ele>61.05</ele>
        <time>2020-07-10T12:16:23Z</time>
      </trkpt>
      <trkpt lat="47.85752" lon="-3.45922">
        <ele>61.08</ele>
        <time>2020-07-10T12:16:24Z</time>
      </trkpt>
      <trkpt lat="47.85749" lon="-3.45931">
        <ele>60.98</ele>
        <time>2020-07-10T12:16:25Z</time>
      </trkpt>
      <trkpt lat="47.85747" lon="-3.45939">
        <ele>60.83</ele>
        <time>2020-07-10T12:16:26Z</time>
      </trkpt>
      <trkpt lat="47.85745" lon="-3.45947">
        <ele>60.68</ele>
        <time>2020-07-10T12:16:27Z</time>
      </trkpt>
      <trkpt lat="47.85742" lon="-3.45955">
        <ele>60.59</ele>
        <time>2020-07-10T12:16:28Z</time>
      </trkpt>
      <trkpt lat="47.8574" lon="-3.45962">
        <ele>60.52</ele>
        <time>2020-07-10T12:16:29Z</time>
      </trkpt>
      <trkpt lat="47.85737" lon="-3.45969">
        <ele>60.49</ele>
        <time>2020-07-10T12:16:30Z</time>
      </trkpt>
      <trkpt lat="47.85735" lon="-3.45976">
        <ele>60.51</ele>
        <time>2020-07-10T12:16:31Z</time>
      </trkpt>
      <trkpt lat="47.85733" lon="-3.45983">
        <ele>60.53</ele>
        <time>2020-07-10T12:16:32Z</time>
      </trkpt>
      <trkpt lat="47.85731" lon="-3.45992">
        <ele>60.54</ele>
        <time>2020-07-10T12:16:33Z</time>
      </trkpt>
      <trkpt lat="47.85729" lon="-3.45999">
        <ele>60.52</ele>
        <time>2020-07-10T12:16:34Z</time>
      </trkpt>
      <trkpt lat="47.85728" lon="-3.46008">
        <ele>60.43</ele>
        <time>2020-07-10T12:16:35Z</time>
      </trkpt>
      <trkpt lat="47.85726" lon="-3.46016">
        <ele>60.33</ele>
        <time>2020-07-10T12:16:36Z</time>
      </trkpt>
      <trkpt lat="47.85725" lon="-3.46026">
        <ele>60.24</ele>
        <time>2020-07-10T12:16:37Z</time>
      </trkpt>
      <trkpt lat="47.85724" lon="-3.46035">
        <ele>60.17</ele>
        <time>2020-07-10T12:16:38Z</time>
      </trkpt>
      <trkpt lat="47.85724" lon="-3.46045">
        <ele>60.14</ele>
        <time>2020-07-10T12:16:39Z</time>
      </trkpt>
      <trkpt lat="47.85724" lon="-3.46054">
        <ele>60.11</ele>
        <time>2020-07-10T12:16:40Z</time>
      </trkpt>
      <trkpt lat="47.85724" lon="-3.46064">
        <ele>60.1</ele>
        <time>2020-07-10T12:16:41Z</time>
      </trkpt>
      <trkpt lat="47.85724" lon="-3.46073">
        <ele>60.09</ele>
        <time>2020-07-10T12:16:42Z</time>
      </trkpt>
      <trkpt lat="47.85725" lon="-3.46082">
        <ele>60.09</ele>
        <time>2020-07-10T12:16:43Z</time>
      </trkpt>
      <trkpt lat="47.85725" lon="-3.46091">
        <ele>59.92</ele>
        <time>2020-07-10T12:16:44Z</time>
      </trkpt>
      <trkpt lat="47.85726" lon="-3.461">
        <ele>59.69</ele>
        <time>2020-07-10T12:16:45Z</time>
      </trkpt>
      <trkpt lat="47.85726" lon="-3.4611">
        <ele>59.46</ele>
        <time>2020-07-10T12:16:46Z</time>
      </trkpt>
      <trkpt lat="47.85728" lon="-3.46118">
        <ele>59.38</ele>
        <time>2020-07-10T12:16:47Z</time>
      </trkpt>
      <trkpt lat="47.85729" lon="-3.46127">
        <ele>59.35</ele>
        <time>2020-07-10T12:16:48Z</time>
      </trkpt>
      <trkpt lat="47.85729" lon="-3.46135">
        <ele>59.31</ele>
        <time>2020-07-10T12:16:49Z</time>
      </trkpt>
      <trkpt lat="47.8573" lon="-3.46143">
        <ele>59.22</ele>
        <time>2020-07-10T12:16:50Z</time>
      </trkpt>
      <trkpt lat="47.85731" lon="-3.46151">
        <ele>59.07</ele>
        <time>2020-07-10T12:16:51Z</time>
      </trkpt>
      <trkpt lat="47.85732" lon="-3.46159">
        <ele>58.92</ele>
        <time>2020-07-10T12:16:52Z</time>
      </trkpt>
      <trkpt lat="47.85733" lon="-3.46167">
        <ele>58.79</ele>
        <time>2020-07-10T12:16:53Z</time>
      </trkpt>
      <trkpt lat="47.85734" lon="-3.46176">
        <ele>58.59</ele>
        <time>2020-07-10T12:16:54Z</time>
      </trkpt>
      <trkpt lat="47.85735" lon="-3.46184">
        <ele>58.39</ele>
        <time>2020-07-10T12:16:55Z</time>
      </trkpt>
      <trkpt lat="47.85736" lon="-3.46192">
        <ele>58.18</ele>
        <time>2020-07-10T12:16:56Z</time>
      </trkpt>
      <trkpt lat="47.85737" lon="-3.46201">
        <ele>57.84</ele>
        <time>2020-07-10T12:16:57Z</time>
      </trkpt>
      <trkpt lat="47.85738" lon="-3.4621">
        <ele>57.42</ele>
        <time>2020-07-10T12:16:58Z</time>
      </trkpt>
      <trkpt lat="47.85738" lon="-3.46218">
        <ele>56.99</ele>
        <time>2020-07-10T12:16:59Z</time>
      </trkpt>
      <trkpt lat="47.85738" lon="-3.46226">
        <ele>56.61</ele>
        <time>2020-07-10T12:17:00Z</time>
      </trkpt>
      <trkpt lat="47.85738" lon="-3.46232">
        <ele>56.33</ele>
        <time>2020-07-10T12:17:01Z</time>
      </trkpt>
      <trkpt lat="47.85736" lon="-3.46238">
        <ele>56.06</ele>
        <time>2020-07-10T12:17:02Z</time>
      </trkpt>
      <trkpt lat="47.85733" lon="-3.46243">
        <ele>55.77</ele>
        <time>2020-07-10T12:17:03Z</time>
      </trkpt>
      <trkpt lat="47.85729" lon="-3.46248">
        <ele>55.47</ele>
        <time>2020-07-10T12:17:04Z</time>
      </trkpt>
      <trkpt lat="47.85724" lon="-3.46252">
        <ele>55.1</ele>
        <time>2020-07-10T12:17:05Z</time>
      </trkpt>
      <trkpt lat="47.85718" lon="-3.46255">
        <ele>54.65</ele>
        <time>2020-07-10T12:17:06Z</time>
      </trkpt>
      <trkpt lat="47.85712" lon="-3.46259">
        <ele>54.08</ele>
        <time>2020-07-10T12:17:07Z</time>
      </trkpt>
      <trkpt lat="47.85705" lon="-3.46264">
        <ele>53.37</ele>
        <time>2020-07-10T12:17:08Z</time>
      </trkpt>
      <trkpt lat="47.85698" lon="-3.46269">
        <ele>52.53</ele>
        <time>2020-07-10T12:17:09Z</time>
      </trkpt>
      <trkpt lat="47.8569" lon="-3.46275">
        <ele>51.48</ele>
        <time>2020-07-10T12:17:10Z</time>
      </trkpt>
      <trkpt lat="47.85683" lon="-3.46281">
        <ele>50.41</ele>
        <time>2020-07-10T12:17:11Z</time>
      </trkpt>
      <trkpt lat="47.85675" lon="-3.46288">
        <ele>49.36</ele>
        <time>2020-07-10T12:17:12Z</time>
      </trkpt>
      <trkpt lat="47.85667" lon="-3.46295">
        <ele>48.29</ele>
        <time>2020-07-10T12:17:13Z</time>
      </trkpt>
      <trkpt lat="47.85659" lon="-3.46301">
        <ele>47.36</ele>
        <time>2020-07-10T12:17:14Z</time>
      </trkpt>
      <trkpt lat="47.85649" lon="-3.46311">
        <ele>46.52</ele>
        <time>2020-07-10T12:17:15Z</time>
      </trkpt>
      <trkpt lat="47.85642" lon="-3.4632">
        <ele>45.88</ele>
        <time>2020-07-10T12:17:16Z</time>
      </trkpt>
      <trkpt lat="47.85634" lon="-3.46327">
        <ele>45.15</ele>
        <time>2020-07-10T12:17:17Z</time>
      </trkpt>
      <trkpt lat="47.85626" lon="-3.46334">
        <ele>44.38</ele>
        <time>2020-07-10T12:17:18Z</time>
      </trkpt>
      <trkpt lat="47.85617" lon="-3.46341">
        <ele>43.49</ele>
        <time>2020-07-10T12:17:19Z</time>
      </trkpt>
      <trkpt lat="47.85609" lon="-3.4635">
        <ele>42.71</ele>
        <time>2020-07-10T12:17:20Z</time>
      </trkpt>
      <trkpt lat="47.85601" lon="-3.46358">
        <ele>42.26</ele>
        <time>2020-07-10T12:17:21Z</time>
      </trkpt>
      <trkpt lat="47.85594" lon="-3.46366">
        <ele>41.99</ele>
        <time>2020-07-10T12:17:22Z</time>
      </trkpt>
      <trkpt lat="47.85587" lon="-3.46378">
        <ele>41.63</ele>
        <time>2020-07-10T12:17:23Z</time>
      </trkpt>
      <trkpt lat="47.85574" lon="-3.46386">
        <ele>41.23</ele>
        <time>2020-07-10T12:17:24Z</time>
      </trkpt>
      <trkpt lat="47.85567" lon="-3.46393">
        <ele>41.01</ele>
        <time>2020-07-10T12:17:25Z</time>
      </trkpt>
      <trkpt lat="47.85559" lon="-3.464">
        <ele>40.76</ele>
        <time>2020-07-10T12:17:26Z</time>
      </trkpt>
      <trkpt lat="47.85553" lon="-3.46405">
        <ele>40.49</ele>
        <time>2020-07-10T12:17:27Z</time>
      </trkpt>
      <trkpt lat="47.85547" lon="-3.46412">
        <ele>40.22</ele>
        <time>2020-07-10T12:17:28Z</time>
      </trkpt>
      <trkpt lat="47.8554" lon="-3.46418">
        <ele>40.04</ele>
        <time>2020-07-10T12:17:29Z</time>
      </trkpt>
      <trkpt lat="47.85532" lon="-3.46424">
        <ele>39.86</ele>
        <time>2020-07-10T12:17:30Z</time>
      </trkpt>
      <trkpt lat="47.85525" lon="-3.4643">
        <ele>39.6</ele>
        <time>2020-07-10T12:17:31Z</time>
      </trkpt>
      <trkpt lat="47.85519" lon="-3.46435">
        <ele>39.33</ele>
        <time>2020-07-10T12:17:32Z</time>
      </trkpt>
      <trkpt lat="47.85512" lon="-3.4644">
        <ele>39.15</ele>
        <time>2020-07-10T12:17:33Z</time>
      </trkpt>
      <trkpt lat="47.85505" lon="-3.46444">
        <ele>39.05</ele>
        <time>2020-07-10T12:17:34Z</time>
      </trkpt>
      <trkpt lat="47.85498" lon="-3.46448">
        <ele>39.16</ele>
        <time>2020-07-10T12:17:35Z</time>
      </trkpt>
      <trkpt lat="47.85492" lon="-3.46452">
        <ele>39.44</ele>
        <time>2020-07-10T12:17:36Z</time>
      </trkpt>
      <trkpt lat="47.85485" lon="-3.46454">
        <ele>39.75</ele>
        <time>2020-07-10T12:17:37Z</time>
      </trkpt>
      <trkpt lat="47.8548" lon="-3.46457">
        <ele>40.05</ele>
        <time>2020-07-10T12:17:38Z</time>
      </trkpt>
      <trkpt lat="47.85474" lon="-3.46459">
        <ele>40.33</ele>
        <time>2020-07-10T12:17:39Z</time>
      </trkpt>
      <trkpt lat="47.85469" lon="-3.46461">
        <ele>40.62</ele>
        <time>2020-07-10T12:17:40Z</time>
      </trkpt>
      <trkpt lat="47.85464" lon="-3.46462">
        <ele>40.92</ele>
        <time>2020-07-10T12:17:41Z</time>
      </trkpt>
      <trkpt lat="47.85459" lon="-3.46463">
        <ele>41.2</ele>
        <time>2020-07-10T12:17:42Z</time>
      </trkpt>
      <trkpt lat="47.85453" lon="-3.46465">
        <ele>41.47</ele>
        <time>2020-07-10T12:17:43Z</time>
      </trkpt>
      <trkpt lat="47.85448" lon="-3.46466">
        <ele>41.72</ele>
        <time>2020-07-10T12:17:44Z</time>
      </trkpt>
      <trkpt lat="47.85443" lon="-3.46467">
        <ele>42.01</ele>
        <time>2020-07-10T12:17:45Z</time>
      </trkpt>
      <trkpt lat="47.85437" lon="-3.46468">
        <ele>42.38</ele>
        <time>2020-07-10T12:17:46Z</time>
      </trkpt>
      <trkpt lat="47.85432" lon="-3.46469">
        <ele>42.75</ele>
        <time>2020-07-10T12:17:47Z</time>
      </trkpt>
      <trkpt lat="47.85427" lon="-3.4647">
        <ele>43.11</ele>
        <time>2020-07-10T12:17:48Z</time>
      </trkpt>
      <trkpt lat="47.85422" lon="-3.46471">
        <ele>43.48</ele>
        <time>2020-07-10T12:17:49Z</time>
      </trkpt>
      <trkpt lat="47.85417" lon="-3.46472">
        <ele>43.83</ele>
        <time>2020-07-10T12:17:50Z</time>
      </trkpt>
      <trkpt lat="47.85413" lon="-3.46473">
        <ele>44.16</ele>
        <time>2020-07-10T12:17:51Z</time>
      </trkpt>
      <trkpt lat="47.85408" lon="-3.46473">
        <ele>44.48</ele>
        <time>2020-07-10T12:17:52Z</time>
      </trkpt>
      <trkpt lat="47.85404" lon="-3.46474">
        <ele>44.78</ele>
        <time>2020-07-10T12:17:53Z</time>
      </trkpt>
      <trkpt lat="47.854" lon="-3.46474">
        <ele>45.07</ele>
        <time>2020-07-10T12:17:54Z</time>
      </trkpt>
      <trkpt lat="47.85396" lon="-3.46475">
        <ele>45.36</ele>
        <time>2020-07-10T12:17:55Z</time>
      </trkpt>
      <trkpt lat="47.85392" lon="-3.46475">
        <ele>45.67</ele>
        <time>2020-07-10T12:17:56Z</time>
      </trkpt>
      <trkpt lat="47.85387" lon="-3.46476">
        <ele>45.98</ele>
        <time>2020-07-10T12:17:57Z</time>
      </trkpt>
      <trkpt lat="47.85383" lon="-3.46477">
        <ele>46.29</ele>
        <time>2020-07-10T12:17:58Z</time>
      </trkpt>
      <trkpt lat="47.85379" lon="-3.46477">
        <ele>46.59</ele>
        <time>2020-07-10T12:17:59Z</time>
      </trkpt>
      <trkpt lat="47.85375" lon="-3.46477">
        <ele>46.89</ele>
        <time>2020-07-10T12:18:00Z</time>
      </trkpt>
      <trkpt lat="47.85371" lon="-3.46478">
        <ele>47.2</ele>
        <time>2020-07-10T12:18:01Z</time>
      </trkpt>
      <trkpt lat="47.85366" lon="-3.46478">
        <ele>47.5</ele>
        <time>2020-07-10T12:18:02Z</time>
      </trkpt>
      <trkpt lat="47.85362" lon="-3.46479">
        <ele>47.8</ele>
        <time>2020-07-10T12:18:03Z</time>
      </trkpt>
      <trkpt lat="47.85358" lon="-3.46479">
        <ele>48.04</ele>
        <time>2020-07-10T12:18:04Z</time>
      </trkpt>
      <trkpt lat="47.85354" lon="-3.4648">
        <ele>48.26</ele>
        <time>2020-07-10T12:18:05Z</time>
      </trkpt>
      <trkpt lat="47.85349" lon="-3.4648">
        <ele>48.45</ele>
        <time>2020-07-10T12:18:06Z</time>
      </trkpt>
      <trkpt lat="47.85345" lon="-3.4648">
        <ele>48.65</ele>
        <time>2020-07-10T12:18:07Z</time>
      </trkpt>
      <trkpt lat="47.85341" lon="-3.4648">
        <ele>48.83</ele>
        <time>2020-07-10T12:18:08Z</time>
      </trkpt>
      <trkpt lat="47.85337" lon="-3.46481">
        <ele>49.04</ele>
        <time>2020-07-10T12:18:09Z</time>
      </trkpt>
      <trkpt lat="47.85333" lon="-3.46482">
        <ele>49.26</ele>
        <time>2020-07-10T12:18:10Z</time>
      </trkpt>
      <trkpt lat="47.85329" lon="-3.46484">
        <ele>49.44</ele>
        <time>2020-07-10T12:18:11Z</time>
      </trkpt>
      <trkpt lat="47.85324" lon="-3.46485">
        <ele>49.57</ele>
        <time>2020-07-10T12:18:12Z</time>
      </trkpt>
      <trkpt lat="47.85319" lon="-3.46486">
        <ele>49.7</ele>
        <time>2020-07-10T12:18:13Z</time>
      </trkpt>
      <trkpt lat="47.85315" lon="-3.46487">
        <ele>49.8</ele>
        <time>2020-07-10T12:18:14Z</time>
      </trkpt>
      <trkpt lat="47.8531" lon="-3.46488">
        <ele>49.89</ele>
        <time>2020-07-10T12:18:15Z</time>
      </trkpt>
      <trkpt lat="47.85306" lon="-3.4649">
        <ele>49.97</ele>
        <time>2020-07-10T12:18:16Z</time>
      </trkpt>
      <trkpt lat="47.85301" lon="-3.46492">
        <ele>49.99</ele>
        <time>2020-07-10T12:18:17Z</time>
      </trkpt>
      <trkpt lat="47.85297" lon="-3.46494">
        <ele>50</ele>
        <time>2020-07-10T12:18:18Z</time>
      </trkpt>
      <trkpt lat="47.85292" lon="-3.46496">
        <ele>50</ele>
        <time>2020-07-10T12:18:19Z</time>
      </trkpt>
      <trkpt lat="47.85288" lon="-3.46498">
        <ele>50</ele>
        <time>2020-07-10T12:18:20Z</time>
      </trkpt>
      <trkpt lat="47.85283" lon="-3.465">
        <ele>50</ele>
        <time>2020-07-10T12:18:21Z</time>
      </trkpt>
      <trkpt lat="47.85277" lon="-3.46502">
        <ele>50</ele>
        <time>2020-07-10T12:18:22Z</time>
      </trkpt>
      <trkpt lat="47.85273" lon="-3.46505">
        <ele>49.98</ele>
        <time>2020-07-10T12:18:23Z</time>
      </trkpt>
      <trkpt lat="47.85268" lon="-3.46507">
        <ele>49.93</ele>
        <time>2020-07-10T12:18:24Z</time>
      </trkpt>
      <trkpt lat="47.85263" lon="-3.4651">
        <ele>49.85</ele>
        <time>2020-07-10T12:18:25Z</time>
      </trkpt>
      <trkpt lat="47.85258" lon="-3.46512">
        <ele>49.74</ele>
        <time>2020-07-10T12:18:26Z</time>
      </trkpt>
      <trkpt lat="47.85253" lon="-3.46514">
        <ele>49.6</ele>
        <time>2020-07-10T12:18:27Z</time>
      </trkpt>
      <trkpt lat="47.85247" lon="-3.46517">
        <ele>49.43</ele>
        <time>2020-07-10T12:18:28Z</time>
      </trkpt>
      <trkpt lat="47.85242" lon="-3.46518">
        <ele>49.3</ele>
        <time>2020-07-10T12:18:29Z</time>
      </trkpt>
      <trkpt lat="47.85237" lon="-3.4652">
        <ele>49.19</ele>
        <time>2020-07-10T12:18:30Z</time>
      </trkpt>
      <trkpt lat="47.85232" lon="-3.46522">
        <ele>49.11</ele>
        <time>2020-07-10T12:18:31Z</time>
      </trkpt>
      <trkpt lat="47.85227" lon="-3.46524">
        <ele>49.05</ele>
        <time>2020-07-10T12:18:32Z</time>
      </trkpt>
      <trkpt lat="47.85222" lon="-3.46527">
        <ele>49.03</ele>
        <time>2020-07-10T12:18:33Z</time>
      </trkpt>
      <trkpt lat="47.85217" lon="-3.4653">
        <ele>49.14</ele>
        <time>2020-07-10T12:18:34Z</time>
      </trkpt>
      <trkpt lat="47.85211" lon="-3.46532">
        <ele>49.27</ele>
        <time>2020-07-10T12:18:35Z</time>
      </trkpt>
      <trkpt lat="47.85206" lon="-3.46535">
        <ele>49.39</ele>
        <time>2020-07-10T12:18:36Z</time>
      </trkpt>
      <trkpt lat="47.852" lon="-3.46537">
        <ele>49.47</ele>
        <time>2020-07-10T12:18:37Z</time>
      </trkpt>
      <trkpt lat="47.85195" lon="-3.4654">
        <ele>49.52</ele>
        <time>2020-07-10T12:18:38Z</time>
      </trkpt>
      <trkpt lat="47.8519" lon="-3.46543">
        <ele>49.42</ele>
        <time>2020-07-10T12:18:39Z</time>
      </trkpt>
      <trkpt lat="47.85184" lon="-3.46545">
        <ele>49.3</ele>
        <time>2020-07-10T12:18:40Z</time>
      </trkpt>
      <trkpt lat="47.85179" lon="-3.46547">
        <ele>49.19</ele>
        <time>2020-07-10T12:18:41Z</time>
      </trkpt>
      <trkpt lat="47.85174" lon="-3.46548">
        <ele>49.1</ele>
        <time>2020-07-10T12:18:42Z</time>
      </trkpt>
      <trkpt lat="47.85168" lon="-3.4655">
        <ele>49.04</ele>
        <time>2020-07-10T12:18:43Z</time>
      </trkpt>
      <trkpt lat="47.85162" lon="-3.46551">
        <ele>49.01</ele>
        <time>2020-07-10T12:18:44Z</time>
      </trkpt>
      <trkpt lat="47.85156" lon="-3.46552">
        <ele>49</ele>
        <time>2020-07-10T12:18:45Z</time>
      </trkpt>
      <trkpt lat="47.8515" lon="-3.46552">
        <ele>49</ele>
        <time>2020-07-10T12:18:46Z</time>
      </trkpt>
      <trkpt lat="47.85144" lon="-3.46553">
        <ele>49</ele>
        <time>2020-07-10T12:18:47Z</time>
      </trkpt>
      <trkpt lat="47.85138" lon="-3.46553">
        <ele>49</ele>
        <time>2020-07-10T12:18:48Z</time>
      </trkpt>
      <trkpt lat="47.85132" lon="-3.46554">
        <ele>49</ele>
        <time>2020-07-10T12:18:49Z</time>
      </trkpt>
      <trkpt lat="47.85126" lon="-3.46555">
        <ele>49</ele>
        <time>2020-07-10T12:18:50Z</time>
      </trkpt>
      <trkpt lat="47.85119" lon="-3.46555">
        <ele>49</ele>
        <time>2020-07-10T12:18:51Z</time>
      </trkpt>
      <trkpt lat="47.85113" lon="-3.46555">
        <ele>49</ele>
        <time>2020-07-10T12:18:52Z</time>
      </trkpt>
      <trkpt lat="47.85108" lon="-3.46555">
        <ele>48.91</ele>
        <time>2020-07-10T12:18:53Z</time>
      </trkpt>
      <trkpt lat="47.85102" lon="-3.46554">
        <ele>48.75</ele>
        <time>2020-07-10T12:18:54Z</time>
      </trkpt>
      <trkpt lat="47.85096" lon="-3.46554">
        <ele>48.56</ele>
        <time>2020-07-10T12:18:55Z</time>
      </trkpt>
      <trkpt lat="47.85091" lon="-3.46554">
        <ele>48.36</ele>
        <time>2020-07-10T12:18:56Z</time>
      </trkpt>
      <trkpt lat="47.85085" lon="-3.46553">
        <ele>48.16</ele>
        <time>2020-07-10T12:18:57Z</time>
      </trkpt>
      <trkpt lat="47.8508" lon="-3.46551">
        <ele>47.96</ele>
        <time>2020-07-10T12:18:58Z</time>
      </trkpt>
      <trkpt lat="47.85074" lon="-3.46548">
        <ele>47.76</ele>
        <time>2020-07-10T12:18:59Z</time>
      </trkpt>
      <trkpt lat="47.85069" lon="-3.46545">
        <ele>47.55</ele>
        <time>2020-07-10T12:19:00Z</time>
      </trkpt>
      <trkpt lat="47.85063" lon="-3.46542">
        <ele>47.35</ele>
        <time>2020-07-10T12:19:01Z</time>
      </trkpt>
      <trkpt lat="47.85057" lon="-3.46539">
        <ele>47.13</ele>
        <time>2020-07-10T12:19:02Z</time>
      </trkpt>
      <trkpt lat="47.8505" lon="-3.46536">
        <ele>46.78</ele>
        <time>2020-07-10T12:19:03Z</time>
      </trkpt>
      <trkpt lat="47.85044" lon="-3.46534">
        <ele>46.35</ele>
        <time>2020-07-10T12:19:04Z</time>
      </trkpt>
      <trkpt lat="47.85038" lon="-3.46534">
        <ele>45.9</ele>
        <time>2020-07-10T12:19:05Z</time>
      </trkpt>
      <trkpt lat="47.85032" lon="-3.46536">
        <ele>45.48</ele>
        <time>2020-07-10T12:19:06Z</time>
      </trkpt>
      <trkpt lat="47.85027" lon="-3.46541">
        <ele>45.13</ele>
        <time>2020-07-10T12:19:07Z</time>
      </trkpt>
      <trkpt lat="47.85024" lon="-3.46548">
        <ele>45.01</ele>
        <time>2020-07-10T12:19:08Z</time>
      </trkpt>
      <trkpt lat="47.85022" lon="-3.46555">
        <ele>45</ele>
        <time>2020-07-10T12:19:09Z</time>
      </trkpt>
      <trkpt lat="47.85022" lon="-3.46563">
        <ele>45.15</ele>
        <time>2020-07-10T12:19:10Z</time>
      </trkpt>
      <trkpt lat="47.85023" lon="-3.4657">
        <ele>45.36</ele>
        <time>2020-07-10T12:19:11Z</time>
      </trkpt>
      <trkpt lat="47.85024" lon="-3.46578">
        <ele>45.58</ele>
        <time>2020-07-10T12:19:12Z</time>
      </trkpt>
      <trkpt lat="47.85025" lon="-3.46585">
        <ele>45.79</ele>
        <time>2020-07-10T12:19:13Z</time>
      </trkpt>
      <trkpt lat="47.85026" lon="-3.46592">
        <ele>45.86</ele>
        <time>2020-07-10T12:19:14Z</time>
      </trkpt>
      <trkpt lat="47.85027" lon="-3.466">
        <ele>45.93</ele>
        <time>2020-07-10T12:19:15Z</time>
      </trkpt>
      <trkpt lat="47.85028" lon="-3.46607">
        <ele>46.01</ele>
        <time>2020-07-10T12:19:16Z</time>
      </trkpt>
      <trkpt lat="47.85029" lon="-3.46614">
        <ele>46.07</ele>
        <time>2020-07-10T12:19:17Z</time>
      </trkpt>
      <trkpt lat="47.8503" lon="-3.46621">
        <ele>46.13</ele>
        <time>2020-07-10T12:19:18Z</time>
      </trkpt>
      <trkpt lat="47.8503" lon="-3.46628">
        <ele>46.17</ele>
        <time>2020-07-10T12:19:19Z</time>
      </trkpt>
      <trkpt lat="47.85031" lon="-3.46635">
        <ele>46.21</ele>
        <time>2020-07-10T12:19:20Z</time>
      </trkpt>
      <trkpt lat="47.8503" lon="-3.46642">
        <ele>46.18</ele>
        <time>2020-07-10T12:19:21Z</time>
      </trkpt>
      <trkpt lat="47.85028" lon="-3.46648">
        <ele>46.07</ele>
        <time>2020-07-10T12:19:22Z</time>
      </trkpt>
      <trkpt lat="47.85025" lon="-3.46653">
        <ele>45.91</ele>
        <time>2020-07-10T12:19:23Z</time>
      </trkpt>
      <trkpt lat="47.8502" lon="-3.46654">
        <ele>45.7</ele>
        <time>2020-07-10T12:19:24Z</time>
      </trkpt>
      <trkpt lat="47.85016" lon="-3.46652">
        <ele>45.44</ele>
        <time>2020-07-10T12:19:25Z</time>
      </trkpt>
      <trkpt lat="47.8501" lon="-3.46648">
        <ele>45.09</ele>
        <time>2020-07-10T12:19:26Z</time>
      </trkpt>
      <trkpt lat="47.85005" lon="-3.46642">
        <ele>44.64</ele>
        <time>2020-07-10T12:19:27Z</time>
      </trkpt>
      <trkpt lat="47.85" lon="-3.46636">
        <ele>44.18</ele>
        <time>2020-07-10T12:19:28Z</time>
      </trkpt>
      <trkpt lat="47.84994" lon="-3.46629">
        <ele>43.78</ele>
        <time>2020-07-10T12:19:29Z</time>
      </trkpt>
      <trkpt lat="47.84988" lon="-3.46623">
        <ele>43.35</ele>
        <time>2020-07-10T12:19:30Z</time>
      </trkpt>
      <trkpt lat="47.84983" lon="-3.46616">
        <ele>42.94</ele>
        <time>2020-07-10T12:19:31Z</time>
      </trkpt>
      <trkpt lat="47.84977" lon="-3.46609">
        <ele>42.51</ele>
        <time>2020-07-10T12:19:32Z</time>
      </trkpt>
      <trkpt lat="47.8497" lon="-3.46602">
        <ele>42.03</ele>
        <time>2020-07-10T12:19:33Z</time>
      </trkpt>
      <trkpt lat="47.84963" lon="-3.46595">
        <ele>41.52</ele>
        <time>2020-07-10T12:19:34Z</time>
      </trkpt>
      <trkpt lat="47.84955" lon="-3.46589">
        <ele>40.97</ele>
        <time>2020-07-10T12:19:35Z</time>
      </trkpt>
      <trkpt lat="47.84947" lon="-3.46583">
        <ele>40.41</ele>
        <time>2020-07-10T12:19:36Z</time>
      </trkpt>
      <trkpt lat="47.84939" lon="-3.46578">
        <ele>39.74</ele>
        <time>2020-07-10T12:19:37Z</time>
      </trkpt>
      <trkpt lat="47.84931" lon="-3.46575">
        <ele>39.03</ele>
        <time>2020-07-10T12:19:38Z</time>
      </trkpt>
      <trkpt lat="47.84924" lon="-3.46574">
        <ele>38.35</ele>
        <time>2020-07-10T12:19:39Z</time>
      </trkpt>
      <trkpt lat="47.84919" lon="-3.46573">
        <ele>37.8</ele>
        <time>2020-07-10T12:19:40Z</time>
      </trkpt>
      <trkpt lat="47.84914" lon="-3.46572">
        <ele>37.39</ele>
        <time>2020-07-10T12:19:41Z</time>
      </trkpt>
      <trkpt lat="47.84909" lon="-3.46572">
        <ele>36.93</ele>
        <time>2020-07-10T12:19:42Z</time>
      </trkpt>
      <trkpt lat="47.84902" lon="-3.46572">
        <ele>36.4</ele>
        <time>2020-07-10T12:19:43Z</time>
      </trkpt>
      <trkpt lat="47.84895" lon="-3.46573">
        <ele>35.81</ele>
        <time>2020-07-10T12:19:44Z</time>
      </trkpt>
      <trkpt lat="47.84889" lon="-3.46575">
        <ele>35.23</ele>
        <time>2020-07-10T12:19:45Z</time>
      </trkpt>
      <trkpt lat="47.84881" lon="-3.46576">
        <ele>34.73</ele>
        <time>2020-07-10T12:19:46Z</time>
      </trkpt>
      <trkpt lat="47.84873" lon="-3.46578">
        <ele>34.2</ele>
        <time>2020-07-10T12:19:47Z</time>
      </trkpt>
      <trkpt lat="47.84865" lon="-3.4658">
        <ele>33.63</ele>
        <time>2020-07-10T12:19:48Z</time>
      </trkpt>
      <trkpt lat="47.84856" lon="-3.46583">
        <ele>32.96</ele>
        <time>2020-07-10T12:19:49Z</time>
      </trkpt>
      <trkpt lat="47.84848" lon="-3.46586">
        <ele>32.29</ele>
        <time>2020-07-10T12:19:50Z</time>
      </trkpt>
      <trkpt lat="47.84839" lon="-3.46588">
        <ele>31.55</ele>
        <time>2020-07-10T12:19:51Z</time>
      </trkpt>
      <trkpt lat="47.84829" lon="-3.46593">
        <ele>30.73</ele>
        <time>2020-07-10T12:19:52Z</time>
      </trkpt>
      <trkpt lat="47.84819" lon="-3.46596">
        <ele>30.05</ele>
        <time>2020-07-10T12:19:53Z</time>
      </trkpt>
      <trkpt lat="47.84811" lon="-3.466">
        <ele>29.5</ele>
        <time>2020-07-10T12:19:54Z</time>
      </trkpt>
      <trkpt lat="47.84801" lon="-3.46606">
        <ele>29.07</ele>
        <time>2020-07-10T12:19:55Z</time>
      </trkpt>
      <trkpt lat="47.84792" lon="-3.46612">
        <ele>28.66</ele>
        <time>2020-07-10T12:19:56Z</time>
      </trkpt>
      <trkpt lat="47.84784" lon="-3.46618">
        <ele>28.17</ele>
        <time>2020-07-10T12:19:57Z</time>
      </trkpt>
      <trkpt lat="47.84777" lon="-3.46626">
        <ele>27.66</ele>
        <time>2020-07-10T12:19:58Z</time>
      </trkpt>
      <trkpt lat="47.8477" lon="-3.46633">
        <ele>27.35</ele>
        <time>2020-07-10T12:19:59Z</time>
      </trkpt>
      <trkpt lat="47.84764" lon="-3.46642">
        <ele>27.11</ele>
        <time>2020-07-10T12:20:00Z</time>
      </trkpt>
      <trkpt lat="47.84757" lon="-3.4665">
        <ele>27.03</ele>
        <time>2020-07-10T12:20:01Z</time>
      </trkpt>
      <trkpt lat="47.84752" lon="-3.46658">
        <ele>27.01</ele>
        <time>2020-07-10T12:20:02Z</time>
      </trkpt>
      <trkpt lat="47.84746" lon="-3.46666">
        <ele>26.9</ele>
        <time>2020-07-10T12:20:03Z</time>
      </trkpt>
      <trkpt lat="47.84741" lon="-3.46673">
        <ele>26.79</ele>
        <time>2020-07-10T12:20:04Z</time>
      </trkpt>
      <trkpt lat="47.84735" lon="-3.46679">
        <ele>26.74</ele>
        <time>2020-07-10T12:20:05Z</time>
      </trkpt>
      <trkpt lat="47.84731" lon="-3.46685">
        <ele>26.77</ele>
        <time>2020-07-10T12:20:06Z</time>
      </trkpt>
      <trkpt lat="47.84727" lon="-3.46692">
        <ele>26.87</ele>
        <time>2020-07-10T12:20:07Z</time>
      </trkpt>
      <trkpt lat="47.84722" lon="-3.46698">
        <ele>27.13</ele>
        <time>2020-07-10T12:20:08Z</time>
      </trkpt>
      <trkpt lat="47.84718" lon="-3.46704">
        <ele>27.68</ele>
        <time>2020-07-10T12:20:09Z</time>
      </trkpt>
      <trkpt lat="47.84714" lon="-3.46709">
        <ele>28.26</ele>
        <time>2020-07-10T12:20:10Z</time>
      </trkpt>
      <trkpt lat="47.84709" lon="-3.46715">
        <ele>28.82</ele>
        <time>2020-07-10T12:20:11Z</time>
      </trkpt>
      <trkpt lat="47.84705" lon="-3.46721">
        <ele>29.33</ele>
        <time>2020-07-10T12:20:12Z</time>
      </trkpt>
      <trkpt lat="47.84701" lon="-3.46726">
        <ele>29.74</ele>
        <time>2020-07-10T12:20:13Z</time>
      </trkpt>
      <trkpt lat="47.84697" lon="-3.46731">
        <ele>30.09</ele>
        <time>2020-07-10T12:20:14Z</time>
      </trkpt>
      <trkpt lat="47.84692" lon="-3.46736">
        <ele>30.42</ele>
        <time>2020-07-10T12:20:15Z</time>
      </trkpt>
      <trkpt lat="47.84688" lon="-3.46741">
        <ele>30.75</ele>
        <time>2020-07-10T12:20:16Z</time>
      </trkpt>
      <trkpt lat="47.84685" lon="-3.46746">
        <ele>31.07</ele>
        <time>2020-07-10T12:20:17Z</time>
      </trkpt>
      <trkpt lat="47.84681" lon="-3.46751">
        <ele>31.38</ele>
        <time>2020-07-10T12:20:18Z</time>
      </trkpt>
      <trkpt lat="47.84676" lon="-3.46757">
        <ele>31.64</ele>
        <time>2020-07-10T12:20:19Z</time>
      </trkpt>
      <trkpt lat="47.84672" lon="-3.46763">
        <ele>31.82</ele>
        <time>2020-07-10T12:20:20Z</time>
      </trkpt>
      <trkpt lat="47.84668" lon="-3.46768">
        <ele>31.93</ele>
        <time>2020-07-10T12:20:21Z</time>
      </trkpt>
      <trkpt lat="47.84664" lon="-3.46773">
        <ele>32.03</ele>
        <time>2020-07-10T12:20:22Z</time>
      </trkpt>
      <trkpt lat="47.8466" lon="-3.46777">
        <ele>32.17</ele>
        <time>2020-07-10T12:20:23Z</time>
      </trkpt>
      <trkpt lat="47.84656" lon="-3.46782">
        <ele>32.43</ele>
        <time>2020-07-10T12:20:24Z</time>
      </trkpt>
      <trkpt lat="47.84652" lon="-3.46787">
        <ele>32.73</ele>
        <time>2020-07-10T12:20:25Z</time>
      </trkpt>
      <trkpt lat="47.84649" lon="-3.46792">
        <ele>33.03</ele>
        <time>2020-07-10T12:20:26Z</time>
      </trkpt>
      <trkpt lat="47.84645" lon="-3.46796">
        <ele>33.3</ele>
        <time>2020-07-10T12:20:27Z</time>
      </trkpt>
      <trkpt lat="47.84641" lon="-3.468">
        <ele>33.6</ele>
        <time>2020-07-10T12:20:28Z</time>
      </trkpt>
      <trkpt lat="47.84637" lon="-3.46807">
        <ele>33.88</ele>
        <time>2020-07-10T12:20:29Z</time>
      </trkpt>
      <trkpt lat="47.84633" lon="-3.46813">
        <ele>33.96</ele>
        <time>2020-07-10T12:20:30Z</time>
      </trkpt>
      <trkpt lat="47.84629" lon="-3.46819">
        <ele>33.99</ele>
        <time>2020-07-10T12:20:31Z</time>
      </trkpt>
      <trkpt lat="47.84624" lon="-3.46826">
        <ele>34</ele>
        <time>2020-07-10T12:20:32Z</time>
      </trkpt>
      <trkpt lat="47.84619" lon="-3.46832">
        <ele>34</ele>
        <time>2020-07-10T12:20:33Z</time>
      </trkpt>
      <trkpt lat="47.84615" lon="-3.46838">
        <ele>33.91</ele>
        <time>2020-07-10T12:20:34Z</time>
      </trkpt>
      <trkpt lat="47.8461" lon="-3.46845">
        <ele>33.66</ele>
        <time>2020-07-10T12:20:35Z</time>
      </trkpt>
      <trkpt lat="47.84606" lon="-3.46852">
        <ele>33.29</ele>
        <time>2020-07-10T12:20:36Z</time>
      </trkpt>
      <trkpt lat="47.84602" lon="-3.46861">
        <ele>32.86</ele>
        <time>2020-07-10T12:20:37Z</time>
      </trkpt>
      <trkpt lat="47.84597" lon="-3.46869">
        <ele>32.51</ele>
        <time>2020-07-10T12:20:38Z</time>
      </trkpt>
      <trkpt lat="47.84593" lon="-3.46877">
        <ele>32.14</ele>
        <time>2020-07-10T12:20:39Z</time>
      </trkpt>
      <trkpt lat="47.8459" lon="-3.46886">
        <ele>31.71</ele>
        <time>2020-07-10T12:20:40Z</time>
      </trkpt>
      <trkpt lat="47.84586" lon="-3.46895">
        <ele>31.5</ele>
        <time>2020-07-10T12:20:41Z</time>
      </trkpt>
      <trkpt lat="47.84583" lon="-3.46904">
        <ele>31.52</ele>
        <time>2020-07-10T12:20:42Z</time>
      </trkpt>
      <trkpt lat="47.8458" lon="-3.46912">
        <ele>31.67</ele>
        <time>2020-07-10T12:20:43Z</time>
      </trkpt>
      <trkpt lat="47.84578" lon="-3.46921">
        <ele>31.86</ele>
        <time>2020-07-10T12:20:44Z</time>
      </trkpt>
      <trkpt lat="47.84575" lon="-3.4693">
        <ele>31.98</ele>
        <time>2020-07-10T12:20:45Z</time>
      </trkpt>
      <trkpt lat="47.84572" lon="-3.46938">
        <ele>32.01</ele>
        <time>2020-07-10T12:20:46Z</time>
      </trkpt>
      <trkpt lat="47.84569" lon="-3.46945">
        <ele>31.99</ele>
        <time>2020-07-10T12:20:47Z</time>
      </trkpt>
      <trkpt lat="47.84566" lon="-3.46954">
        <ele>32.04</ele>
        <time>2020-07-10T12:20:48Z</time>
      </trkpt>
      <trkpt lat="47.84563" lon="-3.46962">
        <ele>32.13</ele>
        <time>2020-07-10T12:20:49Z</time>
      </trkpt>
      <trkpt lat="47.8456" lon="-3.4697">
        <ele>32.2</ele>
        <time>2020-07-10T12:20:50Z</time>
      </trkpt>
      <trkpt lat="47.84557" lon="-3.46978">
        <ele>32.25</ele>
        <time>2020-07-10T12:20:51Z</time>
      </trkpt>
      <trkpt lat="47.84553" lon="-3.46985">
        <ele>32.33</ele>
        <time>2020-07-10T12:20:52Z</time>
      </trkpt>
      <trkpt lat="47.84549" lon="-3.46991">
        <ele>32.41</ele>
        <time>2020-07-10T12:20:53Z</time>
      </trkpt>
      <trkpt lat="47.84544" lon="-3.46998">
        <ele>32.48</ele>
        <time>2020-07-10T12:20:54Z</time>
      </trkpt>
      <trkpt lat="47.8454" lon="-3.47003">
        <ele>32.53</ele>
        <time>2020-07-10T12:20:55Z</time>
      </trkpt>
      <trkpt lat="47.84534" lon="-3.47009">
        <ele>32.56</ele>
        <time>2020-07-10T12:20:56Z</time>
      </trkpt>
      <trkpt lat="47.8453" lon="-3.47015">
        <ele>32.58</ele>
        <time>2020-07-10T12:20:57Z</time>
      </trkpt>
      <trkpt lat="47.84525" lon="-3.47019">
        <ele>32.49</ele>
        <time>2020-07-10T12:20:58Z</time>
      </trkpt>
      <trkpt lat="47.8452" lon="-3.47022">
        <ele>32.3</ele>
        <time>2020-07-10T12:20:59Z</time>
      </trkpt>
      <trkpt lat="47.84514" lon="-3.47025">
        <ele>32.05</ele>
        <time>2020-07-10T12:21:00Z</time>
      </trkpt>
      <trkpt lat="47.84509" lon="-3.47027">
        <ele>31.75</ele>
        <time>2020-07-10T12:21:01Z</time>
      </trkpt>
      <trkpt lat="47.84504" lon="-3.47028">
        <ele>31.46</ele>
        <time>2020-07-10T12:21:02Z</time>
      </trkpt>
      <trkpt lat="47.84499" lon="-3.4703">
        <ele>31.23</ele>
        <time>2020-07-10T12:21:03Z</time>
      </trkpt>
      <trkpt lat="47.84494" lon="-3.47031">
        <ele>31.08</ele>
        <time>2020-07-10T12:21:04Z</time>
      </trkpt>
      <trkpt lat="47.84488" lon="-3.4703">
        <ele>30.9</ele>
        <time>2020-07-10T12:21:05Z</time>
      </trkpt>
      <trkpt lat="47.84482" lon="-3.4703">
        <ele>30.66</ele>
        <time>2020-07-10T12:21:06Z</time>
      </trkpt>
      <trkpt lat="47.84476" lon="-3.47029">
        <ele>30.39</ele>
        <time>2020-07-10T12:21:07Z</time>
      </trkpt>
      <trkpt lat="47.8447" lon="-3.47029">
        <ele>30.06</ele>
        <time>2020-07-10T12:21:08Z</time>
      </trkpt>
      <trkpt lat="47.84463" lon="-3.47028">
        <ele>29.58</ele>
        <time>2020-07-10T12:21:09Z</time>
      </trkpt>
      <trkpt lat="47.84456" lon="-3.47029">
        <ele>29.11</ele>
        <time>2020-07-10T12:21:10Z</time>
      </trkpt>
      <trkpt lat="47.84449" lon="-3.47029">
        <ele>28.65</ele>
        <time>2020-07-10T12:21:11Z</time>
      </trkpt>
      <trkpt lat="47.84441" lon="-3.47032">
        <ele>28.29</ele>
        <time>2020-07-10T12:21:12Z</time>
      </trkpt>
      <trkpt lat="47.84432" lon="-3.47036">
        <ele>28.03</ele>
        <time>2020-07-10T12:21:13Z</time>
      </trkpt>
      <trkpt lat="47.84425" lon="-3.47042">
        <ele>27.72</ele>
        <time>2020-07-10T12:21:14Z</time>
      </trkpt>
      <trkpt lat="47.84419" lon="-3.47048">
        <ele>27.33</ele>
        <time>2020-07-10T12:21:15Z</time>
      </trkpt>
      <trkpt lat="47.84413" lon="-3.47055">
        <ele>27.01</ele>
        <time>2020-07-10T12:21:16Z</time>
      </trkpt>
      <trkpt lat="47.84408" lon="-3.47062">
        <ele>26.99</ele>
        <time>2020-07-10T12:21:17Z</time>
      </trkpt>
      <trkpt lat="47.84402" lon="-3.47068">
        <ele>26.93</ele>
        <time>2020-07-10T12:21:18Z</time>
      </trkpt>
      <trkpt lat="47.84397" lon="-3.47075">
        <ele>26.75</ele>
        <time>2020-07-10T12:21:19Z</time>
      </trkpt>
      <trkpt lat="47.84392" lon="-3.47082">
        <ele>26.42</ele>
        <time>2020-07-10T12:21:20Z</time>
      </trkpt>
      <trkpt lat="47.84387" lon="-3.47088">
        <ele>26.23</ele>
        <time>2020-07-10T12:21:21Z</time>
      </trkpt>
      <trkpt lat="47.84383" lon="-3.47095">
        <ele>26.43</ele>
        <time>2020-07-10T12:21:22Z</time>
      </trkpt>
      <trkpt lat="47.84379" lon="-3.47103">
        <ele>26.78</ele>
        <time>2020-07-10T12:21:23Z</time>
      </trkpt>
      <trkpt lat="47.84377" lon="-3.47111">
        <ele>27.14</ele>
        <time>2020-07-10T12:21:24Z</time>
      </trkpt>
      <trkpt lat="47.84374" lon="-3.4712">
        <ele>28.09</ele>
        <time>2020-07-10T12:21:25Z</time>
      </trkpt>
      <trkpt lat="47.84373" lon="-3.47128">
        <ele>29.28</ele>
        <time>2020-07-10T12:21:26Z</time>
      </trkpt>
      <trkpt lat="47.84373" lon="-3.47138">
        <ele>30.37</ele>
        <time>2020-07-10T12:21:27Z</time>
      </trkpt>
      <trkpt lat="47.84375" lon="-3.47147">
        <ele>30.81</ele>
        <time>2020-07-10T12:21:28Z</time>
      </trkpt>
      <trkpt lat="47.84376" lon="-3.47155">
        <ele>31.25</ele>
        <time>2020-07-10T12:21:29Z</time>
      </trkpt>
      <trkpt lat="47.84376" lon="-3.47164">
        <ele>31.75</ele>
        <time>2020-07-10T12:21:30Z</time>
      </trkpt>
      <trkpt lat="47.84377" lon="-3.47174">
        <ele>31.78</ele>
        <time>2020-07-10T12:21:31Z</time>
      </trkpt>
      <trkpt lat="47.84378" lon="-3.47183">
        <ele>31.53</ele>
        <time>2020-07-10T12:21:32Z</time>
      </trkpt>
      <trkpt lat="47.84379" lon="-3.47191">
        <ele>31.23</ele>
        <time>2020-07-10T12:21:33Z</time>
      </trkpt>
      <trkpt lat="47.8438" lon="-3.472">
        <ele>31.13</ele>
        <time>2020-07-10T12:21:34Z</time>
      </trkpt>
      <trkpt lat="47.84382" lon="-3.47209">
        <ele>31.26</ele>
        <time>2020-07-10T12:21:35Z</time>
      </trkpt>
      <trkpt lat="47.84382" lon="-3.47217">
        <ele>31.59</ele>
        <time>2020-07-10T12:21:36Z</time>
      </trkpt>
      <trkpt lat="47.84382" lon="-3.47225">
        <ele>31.94</ele>
        <time>2020-07-10T12:21:37Z</time>
      </trkpt>
      <trkpt lat="47.84383" lon="-3.47234">
        <ele>31.99</ele>
        <time>2020-07-10T12:21:38Z</time>
      </trkpt>
      <trkpt lat="47.84384" lon="-3.47242">
        <ele>32.08</ele>
        <time>2020-07-10T12:21:39Z</time>
      </trkpt>
      <trkpt lat="47.84385" lon="-3.4725">
        <ele>32.17</ele>
        <time>2020-07-10T12:21:40Z</time>
      </trkpt>
      <trkpt lat="47.84386" lon="-3.47258">
        <ele>32.09</ele>
        <time>2020-07-10T12:21:41Z</time>
      </trkpt>
      <trkpt lat="47.84386" lon="-3.47266">
        <ele>32.03</ele>
        <time>2020-07-10T12:21:42Z</time>
      </trkpt>
      <trkpt lat="47.84386" lon="-3.47273">
        <ele>31.93</ele>
        <time>2020-07-10T12:21:43Z</time>
      </trkpt>
      <trkpt lat="47.84387" lon="-3.47281">
        <ele>31.95</ele>
        <time>2020-07-10T12:21:44Z</time>
      </trkpt>
      <trkpt lat="47.84388" lon="-3.47288">
        <ele>32.24</ele>
        <time>2020-07-10T12:21:45Z</time>
      </trkpt>
      <trkpt lat="47.84389" lon="-3.47295">
        <ele>32.63</ele>
        <time>2020-07-10T12:21:46Z</time>
      </trkpt>
      <trkpt lat="47.8439" lon="-3.47303">
        <ele>33.24</ele>
        <time>2020-07-10T12:21:47Z</time>
      </trkpt>
      <trkpt lat="47.84391" lon="-3.47311">
        <ele>33.77</ele>
        <time>2020-07-10T12:21:48Z</time>
      </trkpt>
      <trkpt lat="47.84392" lon="-3.47319">
        <ele>34.2</ele>
        <time>2020-07-10T12:21:49Z</time>
      </trkpt>
      <trkpt lat="47.84393" lon="-3.47327">
        <ele>34.57</ele>
        <time>2020-07-10T12:21:50Z</time>
      </trkpt>
      <trkpt lat="47.84394" lon="-3.47334">
        <ele>34.81</ele>
        <time>2020-07-10T12:21:51Z</time>
      </trkpt>
      <trkpt lat="47.84396" lon="-3.47342">
        <ele>35.05</ele>
        <time>2020-07-10T12:21:52Z</time>
      </trkpt>
      <trkpt lat="47.84396" lon="-3.47351">
        <ele>35.34</ele>
        <time>2020-07-10T12:21:53Z</time>
      </trkpt>
      <trkpt lat="47.84398" lon="-3.47361">
        <ele>35.55</ele>
        <time>2020-07-10T12:21:54Z</time>
      </trkpt>
      <trkpt lat="47.844" lon="-3.4737">
        <ele>35.5</ele>
        <time>2020-07-10T12:21:55Z</time>
      </trkpt>
      <trkpt lat="47.84402" lon="-3.47379">
        <ele>35.44</ele>
        <time>2020-07-10T12:21:56Z</time>
      </trkpt>
      <trkpt lat="47.84404" lon="-3.47387">
        <ele>35.21</ele>
        <time>2020-07-10T12:21:57Z</time>
      </trkpt>
      <trkpt lat="47.84405" lon="-3.47395">
        <ele>35.23</ele>
        <time>2020-07-10T12:21:58Z</time>
      </trkpt>
      <trkpt lat="47.84406" lon="-3.47403">
        <ele>35.11</ele>
        <time>2020-07-10T12:21:59Z</time>
      </trkpt>
      <trkpt lat="47.84407" lon="-3.47411">
        <ele>35.16</ele>
        <time>2020-07-10T12:22:00Z</time>
      </trkpt>
      <trkpt lat="47.84408" lon="-3.47419">
        <ele>35.19</ele>
        <time>2020-07-10T12:22:01Z</time>
      </trkpt>
      <trkpt lat="47.84409" lon="-3.47426">
        <ele>35.03</ele>
        <time>2020-07-10T12:22:02Z</time>
      </trkpt>
      <trkpt lat="47.84409" lon="-3.47434">
        <ele>34.87</ele>
        <time>2020-07-10T12:22:03Z</time>
      </trkpt>
      <trkpt lat="47.84409" lon="-3.47442">
        <ele>34.71</ele>
        <time>2020-07-10T12:22:04Z</time>
      </trkpt>
      <trkpt lat="47.84409" lon="-3.4745">
        <ele>34.66</ele>
        <time>2020-07-10T12:22:05Z</time>
      </trkpt>
      <trkpt lat="47.84409" lon="-3.47458">
        <ele>34.76</ele>
        <time>2020-07-10T12:22:06Z</time>
      </trkpt>
      <trkpt lat="47.84408" lon="-3.47465">
        <ele>35.02</ele>
        <time>2020-07-10T12:22:07Z</time>
      </trkpt>
      <trkpt lat="47.84407" lon="-3.47473">
        <ele>35.3</ele>
        <time>2020-07-10T12:22:08Z</time>
      </trkpt>
      <trkpt lat="47.84405" lon="-3.47481">
        <ele>35.29</ele>
        <time>2020-07-10T12:22:09Z</time>
      </trkpt>
      <trkpt lat="47.84402" lon="-3.47488">
        <ele>35.27</ele>
        <time>2020-07-10T12:22:10Z</time>
      </trkpt>
      <trkpt lat="47.84398" lon="-3.47495">
        <ele>35.28</ele>
        <time>2020-07-10T12:22:11Z</time>
      </trkpt>
      <trkpt lat="47.84395" lon="-3.47501">
        <ele>35.28</ele>
        <time>2020-07-10T12:22:12Z</time>
      </trkpt>
      <trkpt lat="47.84392" lon="-3.47508">
        <ele>35.39</ele>
        <time>2020-07-10T12:22:13Z</time>
      </trkpt>
      <trkpt lat="47.84388" lon="-3.47515">
        <ele>35.47</ele>
        <time>2020-07-10T12:22:14Z</time>
      </trkpt>
      <trkpt lat="47.84384" lon="-3.47521">
        <ele>35.42</ele>
        <time>2020-07-10T12:22:15Z</time>
      </trkpt>
      <trkpt lat="47.8438" lon="-3.47527">
        <ele>35.36</ele>
        <time>2020-07-10T12:22:16Z</time>
      </trkpt>
      <trkpt lat="47.84376" lon="-3.47534">
        <ele>35.44</ele>
        <time>2020-07-10T12:22:17Z</time>
      </trkpt>
      <trkpt lat="47.84372" lon="-3.4754">
        <ele>35.57</ele>
        <time>2020-07-10T12:22:18Z</time>
      </trkpt>
      <trkpt lat="47.84369" lon="-3.47546">
        <ele>35.68</ele>
        <time>2020-07-10T12:22:19Z</time>
      </trkpt>
      <trkpt lat="47.84366" lon="-3.47553">
        <ele>35.79</ele>
        <time>2020-07-10T12:22:20Z</time>
      </trkpt>
      <trkpt lat="47.84362" lon="-3.47559">
        <ele>35.91</ele>
        <time>2020-07-10T12:22:21Z</time>
      </trkpt>
      <trkpt lat="47.84358" lon="-3.47566">
        <ele>36.05</ele>
        <time>2020-07-10T12:22:22Z</time>
      </trkpt>
      <trkpt lat="47.84354" lon="-3.47573">
        <ele>36.19</ele>
        <time>2020-07-10T12:22:23Z</time>
      </trkpt>
      <trkpt lat="47.84351" lon="-3.4758">
        <ele>36.31</ele>
        <time>2020-07-10T12:22:24Z</time>
      </trkpt>
      <trkpt lat="47.84348" lon="-3.47588">
        <ele>36.37</ele>
        <time>2020-07-10T12:22:25Z</time>
      </trkpt>
      <trkpt lat="47.84345" lon="-3.47595">
        <ele>36.4</ele>
        <time>2020-07-10T12:22:26Z</time>
      </trkpt>
      <trkpt lat="47.84342" lon="-3.47603">
        <ele>36.46</ele>
        <time>2020-07-10T12:22:27Z</time>
      </trkpt>
      <trkpt lat="47.84339" lon="-3.47611">
        <ele>36.56</ele>
        <time>2020-07-10T12:22:28Z</time>
      </trkpt>
      <trkpt lat="47.84337" lon="-3.47619">
        <ele>36.69</ele>
        <time>2020-07-10T12:22:29Z</time>
      </trkpt>
      <trkpt lat="47.84335" lon="-3.47627">
        <ele>36.84</ele>
        <time>2020-07-10T12:22:30Z</time>
      </trkpt>
      <trkpt lat="47.84333" lon="-3.47636">
        <ele>37</ele>
        <time>2020-07-10T12:22:31Z</time>
      </trkpt>
      <trkpt lat="47.84331" lon="-3.47644">
        <ele>37.21</ele>
        <time>2020-07-10T12:22:32Z</time>
      </trkpt>
      <trkpt lat="47.84328" lon="-3.47652">
        <ele>37.45</ele>
        <time>2020-07-10T12:22:33Z</time>
      </trkpt>
      <trkpt lat="47.84326" lon="-3.4766">
        <ele>37.68</ele>
        <time>2020-07-10T12:22:34Z</time>
      </trkpt>
      <trkpt lat="47.84324" lon="-3.47669">
        <ele>37.86</ele>
        <time>2020-07-10T12:22:35Z</time>
      </trkpt>
      <trkpt lat="47.84321" lon="-3.47676">
        <ele>37.91</ele>
        <time>2020-07-10T12:22:36Z</time>
      </trkpt>
      <trkpt lat="47.84319" lon="-3.47684">
        <ele>37.94</ele>
        <time>2020-07-10T12:22:37Z</time>
      </trkpt>
      <trkpt lat="47.84316" lon="-3.47692">
        <ele>37.99</ele>
        <time>2020-07-10T12:22:38Z</time>
      </trkpt>
      <trkpt lat="47.84312" lon="-3.47698">
        <ele>38.05</ele>
        <time>2020-07-10T12:22:39Z</time>
      </trkpt>
      <trkpt lat="47.84308" lon="-3.47705">
        <ele>38.04</ele>
        <time>2020-07-10T12:22:40Z</time>
      </trkpt>
      <trkpt lat="47.84304" lon="-3.47711">
        <ele>38</ele>
        <time>2020-07-10T12:22:41Z</time>
      </trkpt>
      <trkpt lat="47.84299" lon="-3.47717">
        <ele>38</ele>
        <time>2020-07-10T12:22:42Z</time>
      </trkpt>
      <trkpt lat="47.84295" lon="-3.47723">
        <ele>38.08</ele>
        <time>2020-07-10T12:22:43Z</time>
      </trkpt>
      <trkpt lat="47.84291" lon="-3.47728">
        <ele>38.22</ele>
        <time>2020-07-10T12:22:44Z</time>
      </trkpt>
      <trkpt lat="47.84286" lon="-3.47734">
        <ele>38.35</ele>
        <time>2020-07-10T12:22:45Z</time>
      </trkpt>
      <trkpt lat="47.84281" lon="-3.4774">
        <ele>38.41</ele>
        <time>2020-07-10T12:22:46Z</time>
      </trkpt>
      <trkpt lat="47.84277" lon="-3.47745">
        <ele>38.42</ele>
        <time>2020-07-10T12:22:47Z</time>
      </trkpt>
      <trkpt lat="47.84272" lon="-3.47751">
        <ele>38.39</ele>
        <time>2020-07-10T12:22:48Z</time>
      </trkpt>
      <trkpt lat="47.84267" lon="-3.47757">
        <ele>38.4</ele>
        <time>2020-07-10T12:22:49Z</time>
      </trkpt>
      <trkpt lat="47.84262" lon="-3.47763">
        <ele>38.38</ele>
        <time>2020-07-10T12:22:50Z</time>
      </trkpt>
      <trkpt lat="47.84258" lon="-3.47769">
        <ele>38.26</ele>
        <time>2020-07-10T12:22:51Z</time>
      </trkpt>
      <trkpt lat="47.84254" lon="-3.47776">
        <ele>38.05</ele>
        <time>2020-07-10T12:22:52Z</time>
      </trkpt>
      <trkpt lat="47.8425" lon="-3.47783">
        <ele>37.9</ele>
        <time>2020-07-10T12:22:53Z</time>
      </trkpt>
      <trkpt lat="47.84246" lon="-3.4779">
        <ele>37.86</ele>
        <time>2020-07-10T12:22:54Z</time>
      </trkpt>
      <trkpt lat="47.84242" lon="-3.47798">
        <ele>37.85</ele>
        <time>2020-07-10T12:22:55Z</time>
      </trkpt>
      <trkpt lat="47.84238" lon="-3.47807">
        <ele>37.82</ele>
        <time>2020-07-10T12:22:56Z</time>
      </trkpt>
      <trkpt lat="47.84234" lon="-3.47815">
        <ele>37.66</ele>
        <time>2020-07-10T12:22:57Z</time>
      </trkpt>
      <trkpt lat="47.84231" lon="-3.47824">
        <ele>37.41</ele>
        <time>2020-07-10T12:22:58Z</time>
      </trkpt>
      <trkpt lat="47.84227" lon="-3.47832">
        <ele>37.06</ele>
        <time>2020-07-10T12:22:59Z</time>
      </trkpt>
      <trkpt lat="47.84224" lon="-3.47841">
        <ele>36.79</ele>
        <time>2020-07-10T12:23:00Z</time>
      </trkpt>
      <trkpt lat="47.84221" lon="-3.47849">
        <ele>36.6</ele>
        <time>2020-07-10T12:23:01Z</time>
      </trkpt>
      <trkpt lat="47.84218" lon="-3.47858">
        <ele>36.48</ele>
        <time>2020-07-10T12:23:02Z</time>
      </trkpt>
      <trkpt lat="47.84215" lon="-3.47867">
        <ele>36.48</ele>
        <time>2020-07-10T12:23:03Z</time>
      </trkpt>
      <trkpt lat="47.84212" lon="-3.47876">
        <ele>36.52</ele>
        <time>2020-07-10T12:23:04Z</time>
      </trkpt>
      <trkpt lat="47.84209" lon="-3.47885">
        <ele>36.53</ele>
        <time>2020-07-10T12:23:05Z</time>
      </trkpt>
      <trkpt lat="47.84207" lon="-3.47893">
        <ele>36.55</ele>
        <time>2020-07-10T12:23:06Z</time>
      </trkpt>
      <trkpt lat="47.84204" lon="-3.47901">
        <ele>36.62</ele>
        <time>2020-07-10T12:23:07Z</time>
      </trkpt>
      <trkpt lat="47.84202" lon="-3.47908">
        <ele>36.71</ele>
        <time>2020-07-10T12:23:08Z</time>
      </trkpt>
      <trkpt lat="47.84199" lon="-3.47916">
        <ele>36.79</ele>
        <time>2020-07-10T12:23:09Z</time>
      </trkpt>
      <trkpt lat="47.84197" lon="-3.47923">
        <ele>36.88</ele>
        <time>2020-07-10T12:23:10Z</time>
      </trkpt>
      <trkpt lat="47.84194" lon="-3.4793">
        <ele>36.98</ele>
        <time>2020-07-10T12:23:11Z</time>
      </trkpt>
      <trkpt lat="47.84191" lon="-3.47938">
        <ele>37.1</ele>
        <time>2020-07-10T12:23:12Z</time>
      </trkpt>
      <trkpt lat="47.84188" lon="-3.47946">
        <ele>37.18</ele>
        <time>2020-07-10T12:23:13Z</time>
      </trkpt>
      <trkpt lat="47.84186" lon="-3.47955">
        <ele>37.28</ele>
        <time>2020-07-10T12:23:14Z</time>
      </trkpt>
      <trkpt lat="47.84183" lon="-3.47964">
        <ele>37.37</ele>
        <time>2020-07-10T12:23:15Z</time>
      </trkpt>
      <trkpt lat="47.84181" lon="-3.47973">
        <ele>37.46</ele>
        <time>2020-07-10T12:23:16Z</time>
      </trkpt>
      <trkpt lat="47.84178" lon="-3.47982">
        <ele>37.55</ele>
        <time>2020-07-10T12:23:17Z</time>
      </trkpt>
      <trkpt lat="47.84175" lon="-3.47992">
        <ele>37.65</ele>
        <time>2020-07-10T12:23:18Z</time>
      </trkpt>
      <trkpt lat="47.84173" lon="-3.48">
        <ele>37.74</ele>
        <time>2020-07-10T12:23:19Z</time>
      </trkpt>
      <trkpt lat="47.8417" lon="-3.48009">
        <ele>37.84</ele>
        <time>2020-07-10T12:23:20Z</time>
      </trkpt>
      <trkpt lat="47.84167" lon="-3.48017">
        <ele>37.94</ele>
        <time>2020-07-10T12:23:21Z</time>
      </trkpt>
      <trkpt lat="47.84164" lon="-3.48026">
        <ele>38.04</ele>
        <time>2020-07-10T12:23:22Z</time>
      </trkpt>
      <trkpt lat="47.84161" lon="-3.48034">
        <ele>38.01</ele>
        <time>2020-07-10T12:23:23Z</time>
      </trkpt>
      <trkpt lat="47.84159" lon="-3.48043">
        <ele>37.93</ele>
        <time>2020-07-10T12:23:24Z</time>
      </trkpt>
      <trkpt lat="47.84156" lon="-3.48052">
        <ele>37.89</ele>
        <time>2020-07-10T12:23:25Z</time>
      </trkpt>
      <trkpt lat="47.84153" lon="-3.48061">
        <ele>37.91</ele>
        <time>2020-07-10T12:23:26Z</time>
      </trkpt>
      <trkpt lat="47.8415" lon="-3.4807">
        <ele>37.89</ele>
        <time>2020-07-10T12:23:27Z</time>
      </trkpt>
      <trkpt lat="47.84147" lon="-3.48079">
        <ele>37.83</ele>
        <time>2020-07-10T12:23:28Z</time>
      </trkpt>
      <trkpt lat="47.84144" lon="-3.48088">
        <ele>37.71</ele>
        <time>2020-07-10T12:23:29Z</time>
      </trkpt>
      <trkpt lat="47.84141" lon="-3.48097">
        <ele>37.55</ele>
        <time>2020-07-10T12:23:30Z</time>
      </trkpt>
      <trkpt lat="47.84138" lon="-3.48105">
        <ele>37.33</ele>
        <time>2020-07-10T12:23:31Z</time>
      </trkpt>
      <trkpt lat="47.84135" lon="-3.48114">
        <ele>37.19</ele>
        <time>2020-07-10T12:23:32Z</time>
      </trkpt>
      <trkpt lat="47.84132" lon="-3.48123">
        <ele>37.16</ele>
        <time>2020-07-10T12:23:33Z</time>
      </trkpt>
      <trkpt lat="47.84129" lon="-3.48132">
        <ele>37.11</ele>
        <time>2020-07-10T12:23:34Z</time>
      </trkpt>
      <trkpt lat="47.84126" lon="-3.48141">
        <ele>37.03</ele>
        <time>2020-07-10T12:23:35Z</time>
      </trkpt>
      <trkpt lat="47.84123" lon="-3.48149">
        <ele>37.01</ele>
        <time>2020-07-10T12:23:36Z</time>
      </trkpt>
      <trkpt lat="47.8412" lon="-3.48158">
        <ele>37</ele>
        <time>2020-07-10T12:23:37Z</time>
      </trkpt>
      <trkpt lat="47.84117" lon="-3.48166">
        <ele>37</ele>
        <time>2020-07-10T12:23:38Z</time>
      </trkpt>
      <trkpt lat="47.84114" lon="-3.48174">
        <ele>37</ele>
        <time>2020-07-10T12:23:39Z</time>
      </trkpt>
      <trkpt lat="47.84111" lon="-3.48182">
        <ele>37</ele>
        <time>2020-07-10T12:23:40Z</time>
      </trkpt>
      <trkpt lat="47.84108" lon="-3.48189">
        <ele>37.01</ele>
        <time>2020-07-10T12:23:41Z</time>
      </trkpt>
      <trkpt lat="47.84106" lon="-3.48198">
        <ele>37</ele>
        <time>2020-07-10T12:23:42Z</time>
      </trkpt>
      <trkpt lat="47.84104" lon="-3.48206">
        <ele>37</ele>
        <time>2020-07-10T12:23:43Z</time>
      </trkpt>
      <trkpt lat="47.84101" lon="-3.48214">
        <ele>37</ele>
        <time>2020-07-10T12:23:44Z</time>
      </trkpt>
      <trkpt lat="47.84099" lon="-3.48222">
        <ele>37</ele>
        <time>2020-07-10T12:23:45Z</time>
      </trkpt>
      <trkpt lat="47.84096" lon="-3.4823">
        <ele>37.2</ele>
        <time>2020-07-10T12:23:46Z</time>
      </trkpt>
      <trkpt lat="47.84093" lon="-3.48238">
        <ele>37.46</ele>
        <time>2020-07-10T12:23:47Z</time>
      </trkpt>
      <trkpt lat="47.84091" lon="-3.48246">
        <ele>37.75</ele>
        <time>2020-07-10T12:23:48Z</time>
      </trkpt>
      <trkpt lat="47.84088" lon="-3.48255">
        <ele>38.04</ele>
        <time>2020-07-10T12:23:49Z</time>
      </trkpt>
      <trkpt lat="47.84085" lon="-3.48263">
        <ele>38.34</ele>
        <time>2020-07-10T12:23:50Z</time>
      </trkpt>
      <trkpt lat="47.84082" lon="-3.48271">
        <ele>38.65</ele>
        <time>2020-07-10T12:23:51Z</time>
      </trkpt>
      <trkpt lat="47.8408" lon="-3.4828">
        <ele>38.95</ele>
        <time>2020-07-10T12:23:52Z</time>
      </trkpt>
      <trkpt lat="47.84077" lon="-3.48288">
        <ele>39.3</ele>
        <time>2020-07-10T12:23:53Z</time>
      </trkpt>
      <trkpt lat="47.84074" lon="-3.48296">
        <ele>39.69</ele>
        <time>2020-07-10T12:23:54Z</time>
      </trkpt>
      <trkpt lat="47.84071" lon="-3.48304">
        <ele>40.14</ele>
        <time>2020-07-10T12:23:55Z</time>
      </trkpt>
      <trkpt lat="47.84069" lon="-3.48312">
        <ele>40.48</ele>
        <time>2020-07-10T12:23:56Z</time>
      </trkpt>
      <trkpt lat="47.84066" lon="-3.4832">
        <ele>40.72</ele>
        <time>2020-07-10T12:23:57Z</time>
      </trkpt>
      <trkpt lat="47.84064" lon="-3.48328">
        <ele>40.87</ele>
        <time>2020-07-10T12:23:58Z</time>
      </trkpt>
      <trkpt lat="47.84061" lon="-3.48336">
        <ele>41.01</ele>
        <time>2020-07-10T12:23:59Z</time>
      </trkpt>
      <trkpt lat="47.84058" lon="-3.48343">
        <ele>41.22</ele>
        <time>2020-07-10T12:24:00Z</time>
      </trkpt>
      <trkpt lat="47.84055" lon="-3.48351">
        <ele>41.51</ele>
        <time>2020-07-10T12:24:01Z</time>
      </trkpt>
      <trkpt lat="47.84053" lon="-3.48359">
        <ele>41.86</ele>
        <time>2020-07-10T12:24:02Z</time>
      </trkpt>
      <trkpt lat="47.84051" lon="-3.48366">
        <ele>42.21</ele>
        <time>2020-07-10T12:24:03Z</time>
      </trkpt>
      <trkpt lat="47.84048" lon="-3.48374">
        <ele>42.56</ele>
        <time>2020-07-10T12:24:04Z</time>
      </trkpt>
      <trkpt lat="47.84046" lon="-3.48381">
        <ele>42.92</ele>
        <time>2020-07-10T12:24:05Z</time>
      </trkpt>
      <trkpt lat="47.84043" lon="-3.48389">
        <ele>43.28</ele>
        <time>2020-07-10T12:24:06Z</time>
      </trkpt>
      <trkpt lat="47.84041" lon="-3.48396">
        <ele>43.45</ele>
        <time>2020-07-10T12:24:07Z</time>
      </trkpt>
      <trkpt lat="47.84039" lon="-3.48404">
        <ele>43.56</ele>
        <time>2020-07-10T12:24:08Z</time>
      </trkpt>
      <trkpt lat="47.84036" lon="-3.48411">
        <ele>43.65</ele>
        <time>2020-07-10T12:24:09Z</time>
      </trkpt>
      <trkpt lat="47.84034" lon="-3.48418">
        <ele>43.77</ele>
        <time>2020-07-10T12:24:10Z</time>
      </trkpt>
      <trkpt lat="47.84032" lon="-3.48425">
        <ele>44.04</ele>
        <time>2020-07-10T12:24:11Z</time>
      </trkpt>
      <trkpt lat="47.84029" lon="-3.48432">
        <ele>44.35</ele>
        <time>2020-07-10T12:24:12Z</time>
      </trkpt>
      <trkpt lat="47.84027" lon="-3.48438">
        <ele>44.72</ele>
        <time>2020-07-10T12:24:13Z</time>
      </trkpt>
      <trkpt lat="47.84024" lon="-3.48445">
        <ele>45.09</ele>
        <time>2020-07-10T12:24:14Z</time>
      </trkpt>
      <trkpt lat="47.84022" lon="-3.48452">
        <ele>45.33</ele>
        <time>2020-07-10T12:24:15Z</time>
      </trkpt>
      <trkpt lat="47.84019" lon="-3.48459">
        <ele>45.52</ele>
        <time>2020-07-10T12:24:16Z</time>
      </trkpt>
      <trkpt lat="47.84017" lon="-3.48466">
        <ele>45.72</ele>
        <time>2020-07-10T12:24:17Z</time>
      </trkpt>
      <trkpt lat="47.84014" lon="-3.48473">
        <ele>45.91</ele>
        <time>2020-07-10T12:24:18Z</time>
      </trkpt>
      <trkpt lat="47.84012" lon="-3.4848">
        <ele>46.16</ele>
        <time>2020-07-10T12:24:19Z</time>
      </trkpt>
      <trkpt lat="47.84009" lon="-3.48487">
        <ele>46.42</ele>
        <time>2020-07-10T12:24:20Z</time>
      </trkpt>
      <trkpt lat="47.84006" lon="-3.48493">
        <ele>46.64</ele>
        <time>2020-07-10T12:24:21Z</time>
      </trkpt>
      <trkpt lat="47.84003" lon="-3.48501">
        <ele>46.81</ele>
        <time>2020-07-10T12:24:22Z</time>
      </trkpt>
      <trkpt lat="47.84001" lon="-3.48509">
        <ele>46.92</ele>
        <time>2020-07-10T12:24:23Z</time>
      </trkpt>
      <trkpt lat="47.83999" lon="-3.48516">
        <ele>46.99</ele>
        <time>2020-07-10T12:24:24Z</time>
      </trkpt>
      <trkpt lat="47.83996" lon="-3.48523">
        <ele>47.01</ele>
        <time>2020-07-10T12:24:25Z</time>
      </trkpt>
      <trkpt lat="47.83993" lon="-3.48529">
        <ele>46.98</ele>
        <time>2020-07-10T12:24:26Z</time>
      </trkpt>
      <trkpt lat="47.83991" lon="-3.48535">
        <ele>46.82</ele>
        <time>2020-07-10T12:24:27Z</time>
      </trkpt>
      <trkpt lat="47.83988" lon="-3.48541">
        <ele>46.61</ele>
        <time>2020-07-10T12:24:28Z</time>
      </trkpt>
      <trkpt lat="47.83985" lon="-3.48547">
        <ele>46.39</ele>
        <time>2020-07-10T12:24:29Z</time>
      </trkpt>
      <trkpt lat="47.83981" lon="-3.48554">
        <ele>46.15</ele>
        <time>2020-07-10T12:24:30Z</time>
      </trkpt>
      <trkpt lat="47.83977" lon="-3.48561">
        <ele>45.94</ele>
        <time>2020-07-10T12:24:31Z</time>
      </trkpt>
      <trkpt lat="47.83973" lon="-3.48567">
        <ele>45.69</ele>
        <time>2020-07-10T12:24:32Z</time>
      </trkpt>
      <trkpt lat="47.83968" lon="-3.48574">
        <ele>45.45</ele>
        <time>2020-07-10T12:24:33Z</time>
      </trkpt>
      <trkpt lat="47.83963" lon="-3.48581">
        <ele>45.19</ele>
        <time>2020-07-10T12:24:34Z</time>
      </trkpt>
      <trkpt lat="47.83958" lon="-3.48588">
        <ele>44.94</ele>
        <time>2020-07-10T12:24:35Z</time>
      </trkpt>
      <trkpt lat="47.83953" lon="-3.48595">
        <ele>44.69</ele>
        <time>2020-07-10T12:24:36Z</time>
      </trkpt>
      <trkpt lat="47.83947" lon="-3.48602">
        <ele>44.45</ele>
        <time>2020-07-10T12:24:37Z</time>
      </trkpt>
      <trkpt lat="47.83942" lon="-3.48608">
        <ele>44.22</ele>
        <time>2020-07-10T12:24:38Z</time>
      </trkpt>
      <trkpt lat="47.83936" lon="-3.48613">
        <ele>44.01</ele>
        <time>2020-07-10T12:24:39Z</time>
      </trkpt>
      <trkpt lat="47.8393" lon="-3.48619">
        <ele>43.81</ele>
        <time>2020-07-10T12:24:40Z</time>
      </trkpt>
      <trkpt lat="47.83924" lon="-3.48624">
        <ele>43.62</ele>
        <time>2020-07-10T12:24:41Z</time>
      </trkpt>
      <trkpt lat="47.83918" lon="-3.48629">
        <ele>43.43</ele>
        <time>2020-07-10T12:24:42Z</time>
      </trkpt>
      <trkpt lat="47.83912" lon="-3.48634">
        <ele>43.25</ele>
        <time>2020-07-10T12:24:43Z</time>
      </trkpt>
      <trkpt lat="47.83906" lon="-3.48639">
        <ele>43.08</ele>
        <time>2020-07-10T12:24:44Z</time>
      </trkpt>
      <trkpt lat="47.839" lon="-3.48643">
        <ele>42.87</ele>
        <time>2020-07-10T12:24:45Z</time>
      </trkpt>
      <trkpt lat="47.83893" lon="-3.48647">
        <ele>42.71</ele>
        <time>2020-07-10T12:24:46Z</time>
      </trkpt>
      <trkpt lat="47.83887" lon="-3.48651">
        <ele>42.67</ele>
        <time>2020-07-10T12:24:47Z</time>
      </trkpt>
      <trkpt lat="47.83881" lon="-3.48654">
        <ele>42.73</ele>
        <time>2020-07-10T12:24:48Z</time>
      </trkpt>
      <trkpt lat="47.83874" lon="-3.48657">
        <ele>42.82</ele>
        <time>2020-07-10T12:24:49Z</time>
      </trkpt>
      <trkpt lat="47.83868" lon="-3.48661">
        <ele>42.91</ele>
        <time>2020-07-10T12:24:50Z</time>
      </trkpt>
      <trkpt lat="47.83862" lon="-3.48664">
        <ele>43.03</ele>
        <time>2020-07-10T12:24:51Z</time>
      </trkpt>
      <trkpt lat="47.83855" lon="-3.48667">
        <ele>43.16</ele>
        <time>2020-07-10T12:24:52Z</time>
      </trkpt>
      <trkpt lat="47.83848" lon="-3.48669">
        <ele>43.31</ele>
        <time>2020-07-10T12:24:53Z</time>
      </trkpt>
      <trkpt lat="47.83842" lon="-3.48671">
        <ele>43.46</ele>
        <time>2020-07-10T12:24:54Z</time>
      </trkpt>
      <trkpt lat="47.83835" lon="-3.48674">
        <ele>43.63</ele>
        <time>2020-07-10T12:24:55Z</time>
      </trkpt>
      <trkpt lat="47.83828" lon="-3.48676">
        <ele>43.7</ele>
        <time>2020-07-10T12:24:56Z</time>
      </trkpt>
      <trkpt lat="47.83822" lon="-3.48678">
        <ele>43.73</ele>
        <time>2020-07-10T12:24:57Z</time>
      </trkpt>
      <trkpt lat="47.83817" lon="-3.4868">
        <ele>43.78</ele>
        <time>2020-07-10T12:24:58Z</time>
      </trkpt>
      <trkpt lat="47.83811" lon="-3.48682">
        <ele>43.86</ele>
        <time>2020-07-10T12:24:59Z</time>
      </trkpt>
      <trkpt lat="47.83805" lon="-3.48683">
        <ele>43.96</ele>
        <time>2020-07-10T12:25:00Z</time>
      </trkpt>
      <trkpt lat="47.83799" lon="-3.48685">
        <ele>43.99</ele>
        <time>2020-07-10T12:25:01Z</time>
      </trkpt>
      <trkpt lat="47.83793" lon="-3.48686">
        <ele>44</ele>
        <time>2020-07-10T12:25:02Z</time>
      </trkpt>
      <trkpt lat="47.83786" lon="-3.48687">
        <ele>44</ele>
        <time>2020-07-10T12:25:03Z</time>
      </trkpt>
      <trkpt lat="47.8378" lon="-3.48689">
        <ele>44</ele>
        <time>2020-07-10T12:25:04Z</time>
      </trkpt>
      <trkpt lat="47.83774" lon="-3.4869">
        <ele>44.01</ele>
        <time>2020-07-10T12:25:05Z</time>
      </trkpt>
      <trkpt lat="47.83768" lon="-3.48691">
        <ele>44.03</ele>
        <time>2020-07-10T12:25:06Z</time>
      </trkpt>
      <trkpt lat="47.83761" lon="-3.48693">
        <ele>44.03</ele>
        <time>2020-07-10T12:25:07Z</time>
      </trkpt>
      <trkpt lat="47.83754" lon="-3.48694">
        <ele>44.01</ele>
        <time>2020-07-10T12:25:08Z</time>
      </trkpt>
      <trkpt lat="47.83748" lon="-3.48696">
        <ele>44.05</ele>
        <time>2020-07-10T12:25:09Z</time>
      </trkpt>
      <trkpt lat="47.83741" lon="-3.48697">
        <ele>44.21</ele>
        <time>2020-07-10T12:25:10Z</time>
      </trkpt>
      <trkpt lat="47.83735" lon="-3.48698">
        <ele>44.4</ele>
        <time>2020-07-10T12:25:11Z</time>
      </trkpt>
      <trkpt lat="47.83728" lon="-3.48699">
        <ele>44.57</ele>
        <time>2020-07-10T12:25:12Z</time>
      </trkpt>
      <trkpt lat="47.83722" lon="-3.487">
        <ele>44.73</ele>
        <time>2020-07-10T12:25:13Z</time>
      </trkpt>
      <trkpt lat="47.83715" lon="-3.487">
        <ele>44.81</ele>
        <time>2020-07-10T12:25:14Z</time>
      </trkpt>
      <trkpt lat="47.83708" lon="-3.48701">
        <ele>44.86</ele>
        <time>2020-07-10T12:25:15Z</time>
      </trkpt>
      <trkpt lat="47.83701" lon="-3.48702">
        <ele>44.91</ele>
        <time>2020-07-10T12:25:16Z</time>
      </trkpt>
      <trkpt lat="47.83695" lon="-3.48703">
        <ele>44.97</ele>
        <time>2020-07-10T12:25:17Z</time>
      </trkpt>
      <trkpt lat="47.83688" lon="-3.48703">
        <ele>44.94</ele>
        <time>2020-07-10T12:25:18Z</time>
      </trkpt>
      <trkpt lat="47.83682" lon="-3.48704">
        <ele>44.87</ele>
        <time>2020-07-10T12:25:19Z</time>
      </trkpt>
      <trkpt lat="47.83676" lon="-3.48705">
        <ele>44.79</ele>
        <time>2020-07-10T12:25:20Z</time>
      </trkpt>
      <trkpt lat="47.8367" lon="-3.48705">
        <ele>44.7</ele>
        <time>2020-07-10T12:25:21Z</time>
      </trkpt>
      <trkpt lat="47.83663" lon="-3.48706">
        <ele>44.58</ele>
        <time>2020-07-10T12:25:22Z</time>
      </trkpt>
      <trkpt lat="47.83658" lon="-3.48706">
        <ele>44.45</ele>
        <time>2020-07-10T12:25:23Z</time>
      </trkpt>
      <trkpt lat="47.83651" lon="-3.48706">
        <ele>44.32</ele>
        <time>2020-07-10T12:25:24Z</time>
      </trkpt>
      <trkpt lat="47.83645" lon="-3.48706">
        <ele>44.18</ele>
        <time>2020-07-10T12:25:25Z</time>
      </trkpt>
      <trkpt lat="47.83639" lon="-3.48706">
        <ele>44.06</ele>
        <time>2020-07-10T12:25:26Z</time>
      </trkpt>
      <trkpt lat="47.83632" lon="-3.48706">
        <ele>44.23</ele>
        <time>2020-07-10T12:25:27Z</time>
      </trkpt>
      <trkpt lat="47.83626" lon="-3.48707">
        <ele>44.51</ele>
        <time>2020-07-10T12:25:28Z</time>
      </trkpt>
      <trkpt lat="47.83619" lon="-3.48708">
        <ele>44.86</ele>
        <time>2020-07-10T12:25:29Z</time>
      </trkpt>
      <trkpt lat="47.83614" lon="-3.48709">
        <ele>45.23</ele>
        <time>2020-07-10T12:25:30Z</time>
      </trkpt>
      <trkpt lat="47.83608" lon="-3.48709">
        <ele>45.44</ele>
        <time>2020-07-10T12:25:31Z</time>
      </trkpt>
      <trkpt lat="47.83602" lon="-3.4871">
        <ele>45.53</ele>
        <time>2020-07-10T12:25:32Z</time>
      </trkpt>
      <trkpt lat="47.83597" lon="-3.48711">
        <ele>45.6</ele>
        <time>2020-07-10T12:25:33Z</time>
      </trkpt>
      <trkpt lat="47.83592" lon="-3.48713">
        <ele>45.71</ele>
        <time>2020-07-10T12:25:34Z</time>
      </trkpt>
      <trkpt lat="47.83587" lon="-3.48714">
        <ele>45.86</ele>
        <time>2020-07-10T12:25:35Z</time>
      </trkpt>
      <trkpt lat="47.83581" lon="-3.48717">
        <ele>45.86</ele>
        <time>2020-07-10T12:25:36Z</time>
      </trkpt>
      <trkpt lat="47.83575" lon="-3.48719">
        <ele>45.42</ele>
        <time>2020-07-10T12:25:37Z</time>
      </trkpt>
      <trkpt lat="47.83569" lon="-3.48721">
        <ele>44.73</ele>
        <time>2020-07-10T12:25:38Z</time>
      </trkpt>
      <trkpt lat="47.83564" lon="-3.48723">
        <ele>43.9</ele>
        <time>2020-07-10T12:25:39Z</time>
      </trkpt>
      <trkpt lat="47.83558" lon="-3.48725">
        <ele>43.08</ele>
        <time>2020-07-10T12:25:40Z</time>
      </trkpt>
      <trkpt lat="47.83552" lon="-3.48728">
        <ele>42.6</ele>
        <time>2020-07-10T12:25:41Z</time>
      </trkpt>
      <trkpt lat="47.83547" lon="-3.4873">
        <ele>42.35</ele>
        <time>2020-07-10T12:25:42Z</time>
      </trkpt>
      <trkpt lat="47.83541" lon="-3.48732">
        <ele>42.07</ele>
        <time>2020-07-10T12:25:43Z</time>
      </trkpt>
      <trkpt lat="47.83536" lon="-3.48733">
        <ele>41.75</ele>
        <time>2020-07-10T12:25:44Z</time>
      </trkpt>
      <trkpt lat="47.8353" lon="-3.48735">
        <ele>41.37</ele>
        <time>2020-07-10T12:25:45Z</time>
      </trkpt>
      <trkpt lat="47.83525" lon="-3.48737">
        <ele>41.15</ele>
        <time>2020-07-10T12:25:46Z</time>
      </trkpt>
      <trkpt lat="47.83519" lon="-3.48739">
        <ele>41.18</ele>
        <time>2020-07-10T12:25:47Z</time>
      </trkpt>
      <trkpt lat="47.83513" lon="-3.48741">
        <ele>41.3</ele>
        <time>2020-07-10T12:25:48Z</time>
      </trkpt>
      <trkpt lat="47.83507" lon="-3.48743">
        <ele>41.47</ele>
        <time>2020-07-10T12:25:49Z</time>
      </trkpt>
      <trkpt lat="47.83502" lon="-3.48745">
        <ele>41.67</ele>
        <time>2020-07-10T12:25:50Z</time>
      </trkpt>
      <trkpt lat="47.83496" lon="-3.48747">
        <ele>41.82</ele>
        <time>2020-07-10T12:25:51Z</time>
      </trkpt>
      <trkpt lat="47.8349" lon="-3.48749">
        <ele>41.93</ele>
        <time>2020-07-10T12:25:52Z</time>
      </trkpt>
      <trkpt lat="47.83483" lon="-3.48752">
        <ele>42</ele>
        <time>2020-07-10T12:25:53Z</time>
      </trkpt>
      <trkpt lat="47.83476" lon="-3.48753">
        <ele>42.01</ele>
        <time>2020-07-10T12:25:54Z</time>
      </trkpt>
      <trkpt lat="47.8347" lon="-3.48756">
        <ele>41.95</ele>
        <time>2020-07-10T12:25:55Z</time>
      </trkpt>
      <trkpt lat="47.83463" lon="-3.48758">
        <ele>41.82</ele>
        <time>2020-07-10T12:25:56Z</time>
      </trkpt>
      <trkpt lat="47.83457" lon="-3.4876">
        <ele>41.7</ele>
        <time>2020-07-10T12:25:57Z</time>
      </trkpt>
      <trkpt lat="47.8345" lon="-3.48762">
        <ele>41.6</ele>
        <time>2020-07-10T12:25:58Z</time>
      </trkpt>
      <trkpt lat="47.83443" lon="-3.48764">
        <ele>41.54</ele>
        <time>2020-07-10T12:25:59Z</time>
      </trkpt>
      <trkpt lat="47.83436" lon="-3.48767">
        <ele>41.58</ele>
        <time>2020-07-10T12:26:00Z</time>
      </trkpt>
      <trkpt lat="47.83429" lon="-3.48769">
        <ele>41.65</ele>
        <time>2020-07-10T12:26:01Z</time>
      </trkpt>
      <trkpt lat="47.83423" lon="-3.48771">
        <ele>41.73</ele>
        <time>2020-07-10T12:26:02Z</time>
      </trkpt>
      <trkpt lat="47.83416" lon="-3.48773">
        <ele>41.81</ele>
        <time>2020-07-10T12:26:03Z</time>
      </trkpt>
      <trkpt lat="47.83409" lon="-3.48776">
        <ele>41.91</ele>
        <time>2020-07-10T12:26:04Z</time>
      </trkpt>
      <trkpt lat="47.83402" lon="-3.48778">
        <ele>41.97</ele>
        <time>2020-07-10T12:26:05Z</time>
      </trkpt>
      <trkpt lat="47.83396" lon="-3.4878">
        <ele>41.99</ele>
        <time>2020-07-10T12:26:06Z</time>
      </trkpt>
      <trkpt lat="47.83389" lon="-3.48783">
        <ele>42</ele>
        <time>2020-07-10T12:26:07Z</time>
      </trkpt>
      <trkpt lat="47.83384" lon="-3.48786">
        <ele>42.04</ele>
        <time>2020-07-10T12:26:08Z</time>
      </trkpt>
      <trkpt lat="47.83379" lon="-3.48791">
        <ele>42.14</ele>
        <time>2020-07-10T12:26:09Z</time>
      </trkpt>
      <trkpt lat="47.83374" lon="-3.48798">
        <ele>42.31</ele>
        <time>2020-07-10T12:26:10Z</time>
      </trkpt>
      <trkpt lat="47.8337" lon="-3.48805">
        <ele>42.56</ele>
        <time>2020-07-10T12:26:11Z</time>
      </trkpt>
      <trkpt lat="47.83365" lon="-3.48812">
        <ele>42.76</ele>
        <time>2020-07-10T12:26:12Z</time>
      </trkpt>
      <trkpt lat="47.83361" lon="-3.48819">
        <ele>42.94</ele>
        <time>2020-07-10T12:26:13Z</time>
      </trkpt>
      <trkpt lat="47.83356" lon="-3.48825">
        <ele>43.11</ele>
        <time>2020-07-10T12:26:14Z</time>
      </trkpt>
      <trkpt lat="47.83351" lon="-3.48831">
        <ele>43.28</ele>
        <time>2020-07-10T12:26:15Z</time>
      </trkpt>
      <trkpt lat="47.83346" lon="-3.48838">
        <ele>43.45</ele>
        <time>2020-07-10T12:26:16Z</time>
      </trkpt>
      <trkpt lat="47.83342" lon="-3.48844">
        <ele>43.62</ele>
        <time>2020-07-10T12:26:17Z</time>
      </trkpt>
      <trkpt lat="47.83337" lon="-3.4885">
        <ele>43.78</ele>
        <time>2020-07-10T12:26:18Z</time>
      </trkpt>
      <trkpt lat="47.83333" lon="-3.48857">
        <ele>43.94</ele>
        <time>2020-07-10T12:26:19Z</time>
      </trkpt>
      <trkpt lat="47.83329" lon="-3.48862">
        <ele>43.98</ele>
        <time>2020-07-10T12:26:20Z</time>
      </trkpt>
      <trkpt lat="47.83325" lon="-3.48869">
        <ele>43.99</ele>
        <time>2020-07-10T12:26:21Z</time>
      </trkpt>
      <trkpt lat="47.83321" lon="-3.48874">
        <ele>44</ele>
        <time>2020-07-10T12:26:22Z</time>
      </trkpt>
      <trkpt lat="47.83318" lon="-3.4888">
        <ele>44</ele>
        <time>2020-07-10T12:26:23Z</time>
      </trkpt>
      <trkpt lat="47.83315" lon="-3.48885">
        <ele>44</ele>
        <time>2020-07-10T12:26:24Z</time>
      </trkpt>
      <trkpt lat="47.83311" lon="-3.4889">
        <ele>44.03</ele>
        <time>2020-07-10T12:26:25Z</time>
      </trkpt>
      <trkpt lat="47.83307" lon="-3.48896">
        <ele>44.17</ele>
        <time>2020-07-10T12:26:26Z</time>
      </trkpt>
      <trkpt lat="47.83303" lon="-3.48901">
        <ele>44.45</ele>
        <time>2020-07-10T12:26:27Z</time>
      </trkpt>
      <trkpt lat="47.833" lon="-3.48907">
        <ele>44.78</ele>
        <time>2020-07-10T12:26:28Z</time>
      </trkpt>
      <trkpt lat="47.83297" lon="-3.48913">
        <ele>45.09</ele>
        <time>2020-07-10T12:26:29Z</time>
      </trkpt>
      <trkpt lat="47.83293" lon="-3.48919">
        <ele>45.33</ele>
        <time>2020-07-10T12:26:30Z</time>
      </trkpt>
      <trkpt lat="47.8329" lon="-3.48925">
        <ele>45.49</ele>
        <time>2020-07-10T12:26:31Z</time>
      </trkpt>
      <trkpt lat="47.83287" lon="-3.48931">
        <ele>45.61</ele>
        <time>2020-07-10T12:26:32Z</time>
      </trkpt>
      <trkpt lat="47.83284" lon="-3.48937">
        <ele>45.73</ele>
        <time>2020-07-10T12:26:33Z</time>
      </trkpt>
      <trkpt lat="47.83282" lon="-3.48943">
        <ele>45.8</ele>
        <time>2020-07-10T12:26:34Z</time>
      </trkpt>
      <trkpt lat="47.83282" lon="-3.48949">
        <ele>45.74</ele>
        <time>2020-07-10T12:26:35Z</time>
      </trkpt>
      <trkpt lat="47.83283" lon="-3.48955">
        <ele>45.57</ele>
        <time>2020-07-10T12:26:36Z</time>
      </trkpt>
      <trkpt lat="47.83284" lon="-3.4896">
        <ele>45.42</ele>
        <time>2020-07-10T12:26:37Z</time>
      </trkpt>
      <trkpt lat="47.83285" lon="-3.48963">
        <ele>45.31</ele>
        <time>2020-07-10T12:26:38Z</time>
      </trkpt>
      <trkpt lat="47.83287" lon="-3.48964">
        <ele>45.24</ele>
        <time>2020-07-10T12:26:39Z</time>
      </trkpt>
      <trkpt lat="47.83287" lon="-3.48965">
        <ele>45.19</ele>
        <time>2020-07-10T12:26:40Z</time>
      </trkpt>
      <trkpt lat="47.83286" lon="-3.48966">
        <ele>45.16</ele>
        <time>2020-07-10T12:26:41Z</time>
      </trkpt>
      <trkpt lat="47.83284" lon="-3.48966">
        <ele>45.18</ele>
        <time>2020-07-10T12:26:42Z</time>
      </trkpt>
      <trkpt lat="47.83283" lon="-3.48963">
        <ele>45.24</ele>
        <time>2020-07-10T12:26:43Z</time>
      </trkpt>
      <trkpt lat="47.83284" lon="-3.48959">
        <ele>45.33</ele>
        <time>2020-07-10T12:26:44Z</time>
      </trkpt>
      <trkpt lat="47.83284" lon="-3.48955">
        <ele>45.43</ele>
        <time>2020-07-10T12:26:45Z</time>
      </trkpt>
      <trkpt lat="47.83284" lon="-3.4895">
        <ele>45.56</ele>
        <time>2020-07-10T12:26:46Z</time>
      </trkpt>
      <trkpt lat="47.83284" lon="-3.48945">
        <ele>45.71</ele>
        <time>2020-07-10T12:26:47Z</time>
      </trkpt>
      <trkpt lat="47.83284" lon="-3.48939">
        <ele>45.75</ele>
        <time>2020-07-10T12:26:48Z</time>
      </trkpt>
      <trkpt lat="47.83286" lon="-3.48933">
        <ele>45.72</ele>
        <time>2020-07-10T12:26:49Z</time>
      </trkpt>
      <trkpt lat="47.83289" lon="-3.48927">
        <ele>45.64</ele>
        <time>2020-07-10T12:26:50Z</time>
      </trkpt>
      <trkpt lat="47.83291" lon="-3.48921">
        <ele>45.55</ele>
        <time>2020-07-10T12:26:51Z</time>
      </trkpt>
      <trkpt lat="47.83295" lon="-3.48915">
        <ele>45.41</ele>
        <time>2020-07-10T12:26:52Z</time>
      </trkpt>
      <trkpt lat="47.83298" lon="-3.48908">
        <ele>45.17</ele>
        <time>2020-07-10T12:26:53Z</time>
      </trkpt>
      <trkpt lat="47.83301" lon="-3.48902">
        <ele>44.85</ele>
        <time>2020-07-10T12:26:54Z</time>
      </trkpt>
      <trkpt lat="47.83304" lon="-3.48896">
        <ele>44.48</ele>
        <time>2020-07-10T12:26:55Z</time>
      </trkpt>
      <trkpt lat="47.83309" lon="-3.48891">
        <ele>44.2</ele>
        <time>2020-07-10T12:26:56Z</time>
      </trkpt>
      <trkpt lat="47.83313" lon="-3.48889">
        <ele>44.07</ele>
        <time>2020-07-10T12:26:57Z</time>
      </trkpt>
      <trkpt lat="47.83318" lon="-3.4889">
        <ele>44.03</ele>
        <time>2020-07-10T12:26:58Z</time>
      </trkpt>
      <trkpt lat="47.83323" lon="-3.48893">
        <ele>44.04</ele>
        <time>2020-07-10T12:26:59Z</time>
      </trkpt>
      <trkpt lat="47.83329" lon="-3.48897">
        <ele>44.05</ele>
        <time>2020-07-10T12:27:00Z</time>
      </trkpt>
      <trkpt lat="47.83332" lon="-3.48901">
        <ele>44.03</ele>
        <time>2020-07-10T12:27:01Z</time>
      </trkpt>
      <trkpt lat="47.83334" lon="-3.48907">
        <ele>43.99</ele>
        <time>2020-07-10T12:27:02Z</time>
      </trkpt>
      <trkpt lat="47.83334" lon="-3.48914">
        <ele>43.97</ele>
        <time>2020-07-10T12:27:03Z</time>
      </trkpt>
      <trkpt lat="47.83333" lon="-3.4892">
        <ele>44</ele>
        <time>2020-07-10T12:27:04Z</time>
      </trkpt>
      <trkpt lat="47.83332" lon="-3.48927">
        <ele>44.04</ele>
        <time>2020-07-10T12:27:05Z</time>
      </trkpt>
      <trkpt lat="47.83331" lon="-3.48933">
        <ele>44.08</ele>
        <time>2020-07-10T12:27:06Z</time>
      </trkpt>
      <trkpt lat="47.8333" lon="-3.4894">
        <ele>44.12</ele>
        <time>2020-07-10T12:27:07Z</time>
      </trkpt>
      <trkpt lat="47.8333" lon="-3.48946">
        <ele>44.13</ele>
        <time>2020-07-10T12:27:08Z</time>
      </trkpt>
      <trkpt lat="47.8333" lon="-3.48953">
        <ele>44.13</ele>
        <time>2020-07-10T12:27:09Z</time>
      </trkpt>
      <trkpt lat="47.8333" lon="-3.4896">
        <ele>44.13</ele>
        <time>2020-07-10T12:27:10Z</time>
      </trkpt>
      <trkpt lat="47.83329" lon="-3.48968">
        <ele>44.14</ele>
        <time>2020-07-10T12:27:11Z</time>
      </trkpt>
      <trkpt lat="47.83329" lon="-3.48975">
        <ele>44.13</ele>
        <time>2020-07-10T12:27:12Z</time>
      </trkpt>
      <trkpt lat="47.8333" lon="-3.48983">
        <ele>44.1</ele>
        <time>2020-07-10T12:27:13Z</time>
      </trkpt>
      <trkpt lat="47.8333" lon="-3.48991">
        <ele>44.06</ele>
        <time>2020-07-10T12:27:14Z</time>
      </trkpt>
      <trkpt lat="47.8333" lon="-3.48999">
        <ele>44.02</ele>
        <time>2020-07-10T12:27:15Z</time>
      </trkpt>
      <trkpt lat="47.83331" lon="-3.49008">
        <ele>43.65</ele>
        <time>2020-07-10T12:27:16Z</time>
      </trkpt>
      <trkpt lat="47.83332" lon="-3.49016">
        <ele>43.08</ele>
        <time>2020-07-10T12:27:17Z</time>
      </trkpt>
      <trkpt lat="47.83333" lon="-3.49026">
        <ele>42.42</ele>
        <time>2020-07-10T12:27:18Z</time>
      </trkpt>
      <trkpt lat="47.83334" lon="-3.49036">
        <ele>41.95</ele>
        <time>2020-07-10T12:27:19Z</time>
      </trkpt>
      <trkpt lat="47.83335" lon="-3.49045">
        <ele>41.6</ele>
        <time>2020-07-10T12:27:20Z</time>
      </trkpt>
      <trkpt lat="47.83337" lon="-3.49055">
        <ele>41.29</ele>
        <time>2020-07-10T12:27:21Z</time>
      </trkpt>
      <trkpt lat="47.83339" lon="-3.49065">
        <ele>41.13</ele>
        <time>2020-07-10T12:27:22Z</time>
      </trkpt>
      <trkpt lat="47.83339" lon="-3.49075">
        <ele>40.98</ele>
        <time>2020-07-10T12:27:23Z</time>
      </trkpt>
      <trkpt lat="47.8334" lon="-3.49084">
        <ele>40.83</ele>
        <time>2020-07-10T12:27:24Z</time>
      </trkpt>
      <trkpt lat="47.83339" lon="-3.49094">
        <ele>40.8</ele>
        <time>2020-07-10T12:27:25Z</time>
      </trkpt>
      <trkpt lat="47.83338" lon="-3.49104">
        <ele>40.82</ele>
        <time>2020-07-10T12:27:26Z</time>
      </trkpt>
      <trkpt lat="47.83336" lon="-3.49113">
        <ele>40.89</ele>
        <time>2020-07-10T12:27:27Z</time>
      </trkpt>
      <trkpt lat="47.83333" lon="-3.4912">
        <ele>40.97</ele>
        <time>2020-07-10T12:27:28Z</time>
      </trkpt>
      <trkpt lat="47.8333" lon="-3.49127">
        <ele>41.03</ele>
        <time>2020-07-10T12:27:29Z</time>
      </trkpt>
      <trkpt lat="47.83327" lon="-3.49134">
        <ele>41.13</ele>
        <time>2020-07-10T12:27:30Z</time>
      </trkpt>
      <trkpt lat="47.83325" lon="-3.49141">
        <ele>41.37</ele>
        <time>2020-07-10T12:27:31Z</time>
      </trkpt>
      <trkpt lat="47.83323" lon="-3.49149">
        <ele>41.8</ele>
        <time>2020-07-10T12:27:32Z</time>
      </trkpt>
      <trkpt lat="47.8332" lon="-3.49156">
        <ele>42.23</ele>
        <time>2020-07-10T12:27:33Z</time>
      </trkpt>
      <trkpt lat="47.83317" lon="-3.49162">
        <ele>42.61</ele>
        <time>2020-07-10T12:27:34Z</time>
      </trkpt>
      <trkpt lat="47.83315" lon="-3.49169">
        <ele>42.92</ele>
        <time>2020-07-10T12:27:35Z</time>
      </trkpt>
      <trkpt lat="47.83312" lon="-3.49176">
        <ele>43.09</ele>
        <time>2020-07-10T12:27:36Z</time>
      </trkpt>
      <trkpt lat="47.8331" lon="-3.49183">
        <ele>43.15</ele>
        <time>2020-07-10T12:27:37Z</time>
      </trkpt>
      <trkpt lat="47.83307" lon="-3.4919">
        <ele>43.12</ele>
        <time>2020-07-10T12:27:38Z</time>
      </trkpt>
      <trkpt lat="47.83304" lon="-3.49197">
        <ele>43.25</ele>
        <time>2020-07-10T12:27:39Z</time>
      </trkpt>
      <trkpt lat="47.83301" lon="-3.49204">
        <ele>43.75</ele>
        <time>2020-07-10T12:27:40Z</time>
      </trkpt>
      <trkpt lat="47.83298" lon="-3.49211">
        <ele>44.33</ele>
        <time>2020-07-10T12:27:41Z</time>
      </trkpt>
      <trkpt lat="47.83295" lon="-3.49218">
        <ele>44.87</ele>
        <time>2020-07-10T12:27:42Z</time>
      </trkpt>
      <trkpt lat="47.83292" lon="-3.49224">
        <ele>45.35</ele>
        <time>2020-07-10T12:27:43Z</time>
      </trkpt>
      <trkpt lat="47.8329" lon="-3.4923">
        <ele>45.78</ele>
        <time>2020-07-10T12:27:44Z</time>
      </trkpt>
      <trkpt lat="47.83287" lon="-3.49235">
        <ele>46.15</ele>
        <time>2020-07-10T12:27:45Z</time>
      </trkpt>
      <trkpt lat="47.83285" lon="-3.49241">
        <ele>46.44</ele>
        <time>2020-07-10T12:27:46Z</time>
      </trkpt>
      <trkpt lat="47.83282" lon="-3.49246">
        <ele>46.71</ele>
        <time>2020-07-10T12:27:47Z</time>
      </trkpt>
      <trkpt lat="47.8328" lon="-3.49251">
        <ele>46.95</ele>
        <time>2020-07-10T12:27:48Z</time>
      </trkpt>
      <trkpt lat="47.83278" lon="-3.49256">
        <ele>47.13</ele>
        <time>2020-07-10T12:27:49Z</time>
      </trkpt>
      <trkpt lat="47.83276" lon="-3.49261">
        <ele>47.33</ele>
        <time>2020-07-10T12:27:50Z</time>
      </trkpt>
      <trkpt lat="47.83274" lon="-3.49267">
        <ele>47.52</ele>
        <time>2020-07-10T12:27:51Z</time>
      </trkpt>
      <trkpt lat="47.83273" lon="-3.49272">
        <ele>47.72</ele>
        <time>2020-07-10T12:27:52Z</time>
      </trkpt>
      <trkpt lat="47.83272" lon="-3.49277">
        <ele>47.9</ele>
        <time>2020-07-10T12:27:53Z</time>
      </trkpt>
      <trkpt lat="47.83271" lon="-3.49283">
        <ele>47.97</ele>
        <time>2020-07-10T12:27:54Z</time>
      </trkpt>
      <trkpt lat="47.83271" lon="-3.49289">
        <ele>47.99</ele>
        <time>2020-07-10T12:27:55Z</time>
      </trkpt>
      <trkpt lat="47.8327" lon="-3.49295">
        <ele>48</ele>
        <time>2020-07-10T12:27:56Z</time>
      </trkpt>
      <trkpt lat="47.83269" lon="-3.49301">
        <ele>48</ele>
        <time>2020-07-10T12:27:57Z</time>
      </trkpt>
      <trkpt lat="47.83268" lon="-3.49307">
        <ele>48</ele>
        <time>2020-07-10T12:27:58Z</time>
      </trkpt>
      <trkpt lat="47.83267" lon="-3.49314">
        <ele>48</ele>
        <time>2020-07-10T12:27:59Z</time>
      </trkpt>
      <trkpt lat="47.83266" lon="-3.4932">
        <ele>48</ele>
        <time>2020-07-10T12:28:00Z</time>
      </trkpt>
      <trkpt lat="47.83265" lon="-3.49327">
        <ele>48</ele>
        <time>2020-07-10T12:28:01Z</time>
      </trkpt>
      <trkpt lat="47.83264" lon="-3.49334">
        <ele>48</ele>
        <time>2020-07-10T12:28:02Z</time>
      </trkpt>
      <trkpt lat="47.83262" lon="-3.49341">
        <ele>47.91</ele>
        <time>2020-07-10T12:28:03Z</time>
      </trkpt>
      <trkpt lat="47.83261" lon="-3.49349">
        <ele>47.83</ele>
        <time>2020-07-10T12:28:04Z</time>
      </trkpt>
      <trkpt lat="47.83259" lon="-3.49357">
        <ele>47.75</ele>
        <time>2020-07-10T12:28:05Z</time>
      </trkpt>
      <trkpt lat="47.83257" lon="-3.49365">
        <ele>47.66</ele>
        <time>2020-07-10T12:28:06Z</time>
      </trkpt>
      <trkpt lat="47.83255" lon="-3.49373">
        <ele>47.47</ele>
        <time>2020-07-10T12:28:07Z</time>
      </trkpt>
      <trkpt lat="47.83253" lon="-3.49382">
        <ele>47.25</ele>
        <time>2020-07-10T12:28:08Z</time>
      </trkpt>
      <trkpt lat="47.83251" lon="-3.4939">
        <ele>47.01</ele>
        <time>2020-07-10T12:28:09Z</time>
      </trkpt>
      <trkpt lat="47.83249" lon="-3.49399">
        <ele>46.77</ele>
        <time>2020-07-10T12:28:10Z</time>
      </trkpt>
      <trkpt lat="47.83247" lon="-3.49407">
        <ele>46.5</ele>
        <time>2020-07-10T12:28:11Z</time>
      </trkpt>
      <trkpt lat="47.83245" lon="-3.49416">
        <ele>46.18</ele>
        <time>2020-07-10T12:28:12Z</time>
      </trkpt>
      <trkpt lat="47.83244" lon="-3.49425">
        <ele>45.85</ele>
        <time>2020-07-10T12:28:13Z</time>
      </trkpt>
      <trkpt lat="47.83242" lon="-3.49435">
        <ele>45.49</ele>
        <time>2020-07-10T12:28:14Z</time>
      </trkpt>
      <trkpt lat="47.83241" lon="-3.49445">
        <ele>45.13</ele>
        <time>2020-07-10T12:28:15Z</time>
      </trkpt>
      <trkpt lat="47.8324" lon="-3.49455">
        <ele>44.61</ele>
        <time>2020-07-10T12:28:16Z</time>
      </trkpt>
      <trkpt lat="47.83238" lon="-3.49465">
        <ele>44.07</ele>
        <time>2020-07-10T12:28:17Z</time>
      </trkpt>
      <trkpt lat="47.83237" lon="-3.49475">
        <ele>43.57</ele>
        <time>2020-07-10T12:28:18Z</time>
      </trkpt>
      <trkpt lat="47.83236" lon="-3.49486">
        <ele>43.19</ele>
        <time>2020-07-10T12:28:19Z</time>
      </trkpt>
      <trkpt lat="47.83234" lon="-3.49496">
        <ele>42.85</ele>
        <time>2020-07-10T12:28:20Z</time>
      </trkpt>
      <trkpt lat="47.83231" lon="-3.49506">
        <ele>42.64</ele>
        <time>2020-07-10T12:28:21Z</time>
      </trkpt>
      <trkpt lat="47.83226" lon="-3.49512">
        <ele>42.52</ele>
        <time>2020-07-10T12:28:22Z</time>
      </trkpt>
      <trkpt lat="47.8322" lon="-3.49517">
        <ele>42.44</ele>
        <time>2020-07-10T12:28:23Z</time>
      </trkpt>
      <trkpt lat="47.83214" lon="-3.4952">
        <ele>42.34</ele>
        <time>2020-07-10T12:28:24Z</time>
      </trkpt>
      <trkpt lat="47.83207" lon="-3.49521">
        <ele>42.26</ele>
        <time>2020-07-10T12:28:25Z</time>
      </trkpt>
      <trkpt lat="47.83201" lon="-3.49522">
        <ele>42.21</ele>
        <time>2020-07-10T12:28:26Z</time>
      </trkpt>
      <trkpt lat="47.83195" lon="-3.49524">
        <ele>42.17</ele>
        <time>2020-07-10T12:28:27Z</time>
      </trkpt>
      <trkpt lat="47.83188" lon="-3.49525">
        <ele>42.26</ele>
        <time>2020-07-10T12:28:28Z</time>
      </trkpt>
      <trkpt lat="47.83183" lon="-3.49527">
        <ele>42.38</ele>
        <time>2020-07-10T12:28:29Z</time>
      </trkpt>
      <trkpt lat="47.83177" lon="-3.49529">
        <ele>42.57</ele>
        <time>2020-07-10T12:28:30Z</time>
      </trkpt>
      <trkpt lat="47.83171" lon="-3.4953">
        <ele>42.78</ele>
        <time>2020-07-10T12:28:31Z</time>
      </trkpt>
      <trkpt lat="47.83165" lon="-3.49531">
        <ele>42.93</ele>
        <time>2020-07-10T12:28:32Z</time>
      </trkpt>
      <trkpt lat="47.83159" lon="-3.49532">
        <ele>42.98</ele>
        <time>2020-07-10T12:28:33Z</time>
      </trkpt>
      <trkpt lat="47.83153" lon="-3.49532">
        <ele>42.99</ele>
        <time>2020-07-10T12:28:34Z</time>
      </trkpt>
      <trkpt lat="47.83148" lon="-3.49532">
        <ele>43</ele>
        <time>2020-07-10T12:28:35Z</time>
      </trkpt>
      <trkpt lat="47.83142" lon="-3.49531">
        <ele>43</ele>
        <time>2020-07-10T12:28:36Z</time>
      </trkpt>
      <trkpt lat="47.83137" lon="-3.4953">
        <ele>43</ele>
        <time>2020-07-10T12:28:37Z</time>
      </trkpt>
      <trkpt lat="47.83131" lon="-3.49529">
        <ele>43.01</ele>
        <time>2020-07-10T12:28:38Z</time>
      </trkpt>
      <trkpt lat="47.83126" lon="-3.4953">
        <ele>43.03</ele>
        <time>2020-07-10T12:28:39Z</time>
      </trkpt>
      <trkpt lat="47.83121" lon="-3.49534">
        <ele>43.11</ele>
        <time>2020-07-10T12:28:40Z</time>
      </trkpt>
      <trkpt lat="47.83119" lon="-3.4954">
        <ele>43.25</ele>
        <time>2020-07-10T12:28:41Z</time>
      </trkpt>
      <trkpt lat="47.8312" lon="-3.49545">
        <ele>43.36</ele>
        <time>2020-07-10T12:28:42Z</time>
      </trkpt>
      <trkpt lat="47.83124" lon="-3.49549">
        <ele>43.4</ele>
        <time>2020-07-10T12:28:43Z</time>
      </trkpt>
      <trkpt lat="47.83126" lon="-3.49555">
        <ele>43.42</ele>
        <time>2020-07-10T12:28:44Z</time>
      </trkpt>
      <trkpt lat="47.83129" lon="-3.4956">
        <ele>43.37</ele>
        <time>2020-07-10T12:28:45Z</time>
      </trkpt>
      <trkpt lat="47.83131" lon="-3.49567">
        <ele>43.32</ele>
        <time>2020-07-10T12:28:46Z</time>
      </trkpt>
      <trkpt lat="47.83133" lon="-3.49573">
        <ele>43.25</ele>
        <time>2020-07-10T12:28:47Z</time>
      </trkpt>
      <trkpt lat="47.83133" lon="-3.49578">
        <ele>43.22</ele>
        <time>2020-07-10T12:28:48Z</time>
      </trkpt>
      <trkpt lat="47.83134" lon="-3.49583">
        <ele>43.19</ele>
        <time>2020-07-10T12:28:49Z</time>
      </trkpt>
      <trkpt lat="47.83135" lon="-3.49588">
        <ele>43.27</ele>
        <time>2020-07-10T12:28:50Z</time>
      </trkpt>
      <trkpt lat="47.83137" lon="-3.49593">
        <ele>43.36</ele>
        <time>2020-07-10T12:28:51Z</time>
      </trkpt>
      <trkpt lat="47.83139" lon="-3.49598">
        <ele>43.48</ele>
        <time>2020-07-10T12:28:52Z</time>
      </trkpt>
      <trkpt lat="47.83142" lon="-3.49603">
        <ele>43.6</ele>
        <time>2020-07-10T12:28:53Z</time>
      </trkpt>
      <trkpt lat="47.83144" lon="-3.49608">
        <ele>43.69</ele>
        <time>2020-07-10T12:28:54Z</time>
      </trkpt>
      <trkpt lat="47.83146" lon="-3.49613">
        <ele>43.77</ele>
        <time>2020-07-10T12:28:55Z</time>
      </trkpt>
      <trkpt lat="47.83149" lon="-3.49619">
        <ele>43.85</ele>
        <time>2020-07-10T12:28:56Z</time>
      </trkpt>
      <trkpt lat="47.83153" lon="-3.49625">
        <ele>43.94</ele>
        <time>2020-07-10T12:28:57Z</time>
      </trkpt>
      <trkpt lat="47.83156" lon="-3.4963">
        <ele>44.03</ele>
        <time>2020-07-10T12:28:58Z</time>
      </trkpt>
      <trkpt lat="47.8316" lon="-3.49636">
        <ele>44.11</ele>
        <time>2020-07-10T12:28:59Z</time>
      </trkpt>
      <trkpt lat="47.83163" lon="-3.49642">
        <ele>44.18</ele>
        <time>2020-07-10T12:29:00Z</time>
      </trkpt>
      <trkpt lat="47.83167" lon="-3.49648">
        <ele>44.28</ele>
        <time>2020-07-10T12:29:01Z</time>
      </trkpt>
      <trkpt lat="47.8317" lon="-3.49654">
        <ele>44.39</ele>
        <time>2020-07-10T12:29:02Z</time>
      </trkpt>
      <trkpt lat="47.83172" lon="-3.49661">
        <ele>44.52</ele>
        <time>2020-07-10T12:29:03Z</time>
      </trkpt>
      <trkpt lat="47.83176" lon="-3.49666">
        <ele>44.62</ele>
        <time>2020-07-10T12:29:04Z</time>
      </trkpt>
      <trkpt lat="47.83179" lon="-3.49673">
        <ele>44.74</ele>
        <time>2020-07-10T12:29:05Z</time>
      </trkpt>
      <trkpt lat="47.83182" lon="-3.4968">
        <ele>44.87</ele>
        <time>2020-07-10T12:29:06Z</time>
      </trkpt>
      <trkpt lat="47.83185" lon="-3.49686">
        <ele>44.99</ele>
        <time>2020-07-10T12:29:07Z</time>
      </trkpt>
      <trkpt lat="47.83188" lon="-3.49693">
        <ele>45.11</ele>
        <time>2020-07-10T12:29:08Z</time>
      </trkpt>
      <trkpt lat="47.83192" lon="-3.497">
        <ele>45.09</ele>
        <time>2020-07-10T12:29:09Z</time>
      </trkpt>
      <trkpt lat="47.83196" lon="-3.49707">
        <ele>45</ele>
        <time>2020-07-10T12:29:10Z</time>
      </trkpt>
      <trkpt lat="47.83199" lon="-3.49714">
        <ele>44.88</ele>
        <time>2020-07-10T12:29:11Z</time>
      </trkpt>
      <trkpt lat="47.83203" lon="-3.49721">
        <ele>44.74</ele>
        <time>2020-07-10T12:29:12Z</time>
      </trkpt>
      <trkpt lat="47.83207" lon="-3.49728">
        <ele>44.75</ele>
        <time>2020-07-10T12:29:13Z</time>
      </trkpt>
      <trkpt lat="47.83211" lon="-3.49735">
        <ele>44.83</ele>
        <time>2020-07-10T12:29:14Z</time>
      </trkpt>
      <trkpt lat="47.83214" lon="-3.49742">
        <ele>44.94</ele>
        <time>2020-07-10T12:29:15Z</time>
      </trkpt>
      <trkpt lat="47.83218" lon="-3.49749">
        <ele>45.06</ele>
        <time>2020-07-10T12:29:16Z</time>
      </trkpt>
      <trkpt lat="47.83221" lon="-3.49756">
        <ele>45.04</ele>
        <time>2020-07-10T12:29:17Z</time>
      </trkpt>
      <trkpt lat="47.83224" lon="-3.49763">
        <ele>44.95</ele>
        <time>2020-07-10T12:29:18Z</time>
      </trkpt>
      <trkpt lat="47.83228" lon="-3.4977">
        <ele>44.85</ele>
        <time>2020-07-10T12:29:19Z</time>
      </trkpt>
      <trkpt lat="47.83231" lon="-3.49777">
        <ele>44.74</ele>
        <time>2020-07-10T12:29:20Z</time>
      </trkpt>
      <trkpt lat="47.83234" lon="-3.49783">
        <ele>44.71</ele>
        <time>2020-07-10T12:29:21Z</time>
      </trkpt>
      <trkpt lat="47.83237" lon="-3.4979">
        <ele>44.68</ele>
        <time>2020-07-10T12:29:22Z</time>
      </trkpt>
      <trkpt lat="47.8324" lon="-3.49798">
        <ele>44.62</ele>
        <time>2020-07-10T12:29:23Z</time>
      </trkpt>
      <trkpt lat="47.83243" lon="-3.49805">
        <ele>44.53</ele>
        <time>2020-07-10T12:29:24Z</time>
      </trkpt>
      <trkpt lat="47.83246" lon="-3.49811">
        <ele>44.47</ele>
        <time>2020-07-10T12:29:25Z</time>
      </trkpt>
      <trkpt lat="47.83249" lon="-3.49817">
        <ele>44.46</ele>
        <time>2020-07-10T12:29:26Z</time>
      </trkpt>
      <trkpt lat="47.83252" lon="-3.49823">
        <ele>44.49</ele>
        <time>2020-07-10T12:29:27Z</time>
      </trkpt>
      <trkpt lat="47.83255" lon="-3.49829">
        <ele>44.51</ele>
        <time>2020-07-10T12:29:28Z</time>
      </trkpt>
      <trkpt lat="47.83261" lon="-3.49837">
        <ele>44.32</ele>
        <time>2020-07-10T12:29:29Z</time>
      </trkpt>
      <trkpt lat="47.83266" lon="-3.49845">
        <ele>44.01</ele>
        <time>2020-07-10T12:29:30Z</time>
      </trkpt>
      <trkpt lat="47.8327" lon="-3.49852">
        <ele>43.69</ele>
        <time>2020-07-10T12:29:31Z</time>
      </trkpt>
      <trkpt lat="47.83274" lon="-3.49859">
        <ele>43.42</ele>
        <time>2020-07-10T12:29:32Z</time>
      </trkpt>
      <trkpt lat="47.83277" lon="-3.49868">
        <ele>43.17</ele>
        <time>2020-07-10T12:29:33Z</time>
      </trkpt>
      <trkpt lat="47.8328" lon="-3.49876">
        <ele>42.98</ele>
        <time>2020-07-10T12:29:34Z</time>
      </trkpt>
      <trkpt lat="47.83282" lon="-3.49884">
        <ele>42.78</ele>
        <time>2020-07-10T12:29:35Z</time>
      </trkpt>
      <trkpt lat="47.83284" lon="-3.49893">
        <ele>42.54</ele>
        <time>2020-07-10T12:29:36Z</time>
      </trkpt>
      <trkpt lat="47.83285" lon="-3.49902">
        <ele>42.26</ele>
        <time>2020-07-10T12:29:37Z</time>
      </trkpt>
      <trkpt lat="47.83286" lon="-3.49911">
        <ele>41.99</ele>
        <time>2020-07-10T12:29:38Z</time>
      </trkpt>
      <trkpt lat="47.83285" lon="-3.4992">
        <ele>41.81</ele>
        <time>2020-07-10T12:29:39Z</time>
      </trkpt>
      <trkpt lat="47.83284" lon="-3.49929">
        <ele>41.78</ele>
        <time>2020-07-10T12:29:40Z</time>
      </trkpt>
      <trkpt lat="47.83284" lon="-3.49938">
        <ele>41.78</ele>
        <time>2020-07-10T12:29:41Z</time>
      </trkpt>
      <trkpt lat="47.83284" lon="-3.49946">
        <ele>41.77</ele>
        <time>2020-07-10T12:29:42Z</time>
      </trkpt>
      <trkpt lat="47.83285" lon="-3.49954">
        <ele>41.75</ele>
        <time>2020-07-10T12:29:43Z</time>
      </trkpt>
      <trkpt lat="47.83287" lon="-3.49962">
        <ele>41.69</ele>
        <time>2020-07-10T12:29:44Z</time>
      </trkpt>
      <trkpt lat="47.83288" lon="-3.4997">
        <ele>41.64</ele>
        <time>2020-07-10T12:29:45Z</time>
      </trkpt>
      <trkpt lat="47.83288" lon="-3.49978">
        <ele>41.63</ele>
        <time>2020-07-10T12:29:46Z</time>
      </trkpt>
      <trkpt lat="47.83287" lon="-3.49987">
        <ele>41.65</ele>
        <time>2020-07-10T12:29:47Z</time>
      </trkpt>
      <trkpt lat="47.83285" lon="-3.49994">
        <ele>41.71</ele>
        <time>2020-07-10T12:29:48Z</time>
      </trkpt>
      <trkpt lat="47.83283" lon="-3.50001">
        <ele>41.78</ele>
        <time>2020-07-10T12:29:49Z</time>
      </trkpt>
      <trkpt lat="47.8328" lon="-3.50008">
        <ele>41.88</ele>
        <time>2020-07-10T12:29:50Z</time>
      </trkpt>
      <trkpt lat="47.83277" lon="-3.50014">
        <ele>42.01</ele>
        <time>2020-07-10T12:29:51Z</time>
      </trkpt>
      <trkpt lat="47.83273" lon="-3.50019">
        <ele>42.16</ele>
        <time>2020-07-10T12:29:52Z</time>
      </trkpt>
      <trkpt lat="47.8327" lon="-3.50023">
        <ele>42.29</ele>
        <time>2020-07-10T12:29:53Z</time>
      </trkpt>
      <trkpt lat="47.83267" lon="-3.50025">
        <ele>42.39</ele>
        <time>2020-07-10T12:29:54Z</time>
      </trkpt>
      <trkpt lat="47.83264" lon="-3.50026">
        <ele>42.48</ele>
        <time>2020-07-10T12:29:55Z</time>
      </trkpt>
      <trkpt lat="47.83262" lon="-3.50027">
        <ele>42.56</ele>
        <time>2020-07-10T12:29:56Z</time>
      </trkpt>
      <trkpt lat="47.83259" lon="-3.50027">
        <ele>42.66</ele>
        <time>2020-07-10T12:29:57Z</time>
      </trkpt>
      <trkpt lat="47.83255" lon="-3.50025">
        <ele>42.83</ele>
        <time>2020-07-10T12:29:58Z</time>
      </trkpt>
      <trkpt lat="47.83252" lon="-3.50022">
        <ele>43.02</ele>
        <time>2020-07-10T12:29:59Z</time>
      </trkpt>
      <trkpt lat="47.83249" lon="-3.50019">
        <ele>43.24</ele>
        <time>2020-07-10T12:30:00Z</time>
      </trkpt>
      <trkpt lat="47.83246" lon="-3.50016">
        <ele>43.45</ele>
        <time>2020-07-10T12:30:01Z</time>
      </trkpt>
      <trkpt lat="47.83243" lon="-3.50014">
        <ele>43.67</ele>
        <time>2020-07-10T12:30:02Z</time>
      </trkpt>
      <trkpt lat="47.83239" lon="-3.5001">
        <ele>43.91</ele>
        <time>2020-07-10T12:30:03Z</time>
      </trkpt>
      <trkpt lat="47.83234" lon="-3.50007">
        <ele>44.2</ele>
        <time>2020-07-10T12:30:04Z</time>
      </trkpt>
      <trkpt lat="47.8323" lon="-3.50003">
        <ele>44.5</ele>
        <time>2020-07-10T12:30:05Z</time>
      </trkpt>
      <trkpt lat="47.83226" lon="-3.49999">
        <ele>44.77</ele>
        <time>2020-07-10T12:30:06Z</time>
      </trkpt>
      <trkpt lat="47.83221" lon="-3.49996">
        <ele>45.07</ele>
        <time>2020-07-10T12:30:07Z</time>
      </trkpt>
      <trkpt lat="47.83217" lon="-3.49992">
        <ele>45.35</ele>
        <time>2020-07-10T12:30:08Z</time>
      </trkpt>
      <trkpt lat="47.83213" lon="-3.49989">
        <ele>45.63</ele>
        <time>2020-07-10T12:30:09Z</time>
      </trkpt>
      <trkpt lat="47.83208" lon="-3.49985">
        <ele>45.91</ele>
        <time>2020-07-10T12:30:10Z</time>
      </trkpt>
      <trkpt lat="47.83205" lon="-3.49981">
        <ele>46.19</ele>
        <time>2020-07-10T12:30:11Z</time>
      </trkpt>
      <trkpt lat="47.83201" lon="-3.49978">
        <ele>46.45</ele>
        <time>2020-07-10T12:30:12Z</time>
      </trkpt>
      <trkpt lat="47.83197" lon="-3.49975">
        <ele>46.71</ele>
        <time>2020-07-10T12:30:13Z</time>
      </trkpt>
      <trkpt lat="47.83193" lon="-3.49971">
        <ele>46.93</ele>
        <time>2020-07-10T12:30:14Z</time>
      </trkpt>
      <trkpt lat="47.83189" lon="-3.49968">
        <ele>47.06</ele>
        <time>2020-07-10T12:30:15Z</time>
      </trkpt>
      <trkpt lat="47.83185" lon="-3.49964">
        <ele>47.15</ele>
        <time>2020-07-10T12:30:16Z</time>
      </trkpt>
      <trkpt lat="47.83181" lon="-3.49961">
        <ele>47.19</ele>
        <time>2020-07-10T12:30:17Z</time>
      </trkpt>
      <trkpt lat="47.83177" lon="-3.49959">
        <ele>47.18</ele>
        <time>2020-07-10T12:30:18Z</time>
      </trkpt>
      <trkpt lat="47.83173" lon="-3.49957">
        <ele>47.15</ele>
        <time>2020-07-10T12:30:19Z</time>
      </trkpt>
      <trkpt lat="47.83169" lon="-3.49954">
        <ele>47.09</ele>
        <time>2020-07-10T12:30:20Z</time>
      </trkpt>
      <trkpt lat="47.83165" lon="-3.49951">
        <ele>47.06</ele>
        <time>2020-07-10T12:30:21Z</time>
      </trkpt>
      <trkpt lat="47.83161" lon="-3.49949">
        <ele>47.14</ele>
        <time>2020-07-10T12:30:22Z</time>
      </trkpt>
      <trkpt lat="47.83156" lon="-3.49949">
        <ele>47.26</ele>
        <time>2020-07-10T12:30:23Z</time>
      </trkpt>
      <trkpt lat="47.83152" lon="-3.49951">
        <ele>47.37</ele>
        <time>2020-07-10T12:30:24Z</time>
      </trkpt>
      <trkpt lat="47.83148" lon="-3.49955">
        <ele>47.4</ele>
        <time>2020-07-10T12:30:25Z</time>
      </trkpt>
      <trkpt lat="47.83145" lon="-3.4996">
        <ele>47.35</ele>
        <time>2020-07-10T12:30:26Z</time>
      </trkpt>
      <trkpt lat="47.83142" lon="-3.49965">
        <ele>47.26</ele>
        <time>2020-07-10T12:30:27Z</time>
      </trkpt>
      <trkpt lat="47.83139" lon="-3.4997">
        <ele>47.15</ele>
        <time>2020-07-10T12:30:28Z</time>
      </trkpt>
      <trkpt lat="47.83135" lon="-3.49974">
        <ele>47.13</ele>
        <time>2020-07-10T12:30:29Z</time>
      </trkpt>
      <trkpt lat="47.83132" lon="-3.49977">
        <ele>47.2</ele>
        <time>2020-07-10T12:30:30Z</time>
      </trkpt>
      <trkpt lat="47.83129" lon="-3.4998">
        <ele>47.24</ele>
        <time>2020-07-10T12:30:31Z</time>
      </trkpt>
      <trkpt lat="47.83128" lon="-3.49981">
        <ele>47.27</ele>
        <time>2020-07-10T12:30:32Z</time>
      </trkpt>
      <trkpt lat="47.83127" lon="-3.49982">
        <ele>47.27</ele>
        <time>2020-07-10T12:30:33Z</time>
      </trkpt>
      <trkpt lat="47.83128" lon="-3.49981">
        <ele>47.27</ele>
        <time>2020-07-10T12:30:34Z</time>
      </trkpt>
      <trkpt lat="47.83128" lon="-3.49981">
        <ele>47.27</ele>
        <time>2020-07-10T12:30:35Z</time>
      </trkpt>
      <trkpt lat="47.83128" lon="-3.49981">
        <ele>47.28</ele>
        <time>2020-07-10T12:30:36Z</time>
      </trkpt>
      <trkpt lat="47.83128" lon="-3.49981">
        <ele>47.28</ele>
        <time>2020-07-10T12:30:37Z</time>
      </trkpt>
      <trkpt lat="47.83128" lon="-3.49981">
        <ele>47.28</ele>
        <time>2020-07-10T12:30:38Z</time>
      </trkpt>
      <trkpt lat="47.83128" lon="-3.49981">
        <ele>47.28</ele>
        <time>2020-07-10T12:30:39Z</time>
      </trkpt>
      <trkpt lat="47.83128" lon="-3.49981">
        <ele>47.28</ele>
        <time>2020-07-10T12:30:40Z</time>
      </trkpt>
      <trkpt lat="47.83128" lon="-3.49981">
        <ele>47.28</ele>
        <time>2020-07-10T12:30:41Z</time>
      </trkpt>
      <trkpt lat="47.83128" lon="-3.49981">
        <ele>47.28</ele>
        <time>2020-07-10T12:30:42Z</time>
      </trkpt>
      <trkpt lat="47.83128" lon="-3.49981">
        <ele>47.28</ele>
        <time>2020-07-10T12:30:43Z</time>
      </trkpt>
      <trkpt lat="47.83128" lon="-3.49981">
        <ele>47.28</ele>
        <time>2020-07-10T12:30:44Z</time>
      </trkpt>
      <trkpt lat="47.83128" lon="-3.49981">
        <ele>47.28</ele>
        <time>2020-07-10T12:30:45Z</time>
      </trkpt>
      <trkpt lat="47.83128" lon="-3.49981">
        <ele>47.28</ele>
        <time>2020-07-10T12:30:46Z</time>
      </trkpt>
      <trkpt lat="47.83128" lon="-3.49981">
        <ele>47.28</ele>
        <time>2020-07-10T12:30:47Z</time>
      </trkpt>
      <trkpt lat="47.83128" lon="-3.49981">
        <ele>47.28</ele>
        <time>2020-07-10T12:30:48Z</time>
      </trkpt>
      <trkpt lat="47.83128" lon="-3.49981">
        <ele>47.28</ele>
        <time>2020-07-10T12:30:49Z</time>
      </trkpt>
      <trkpt lat="47.83128" lon="-3.49981">
        <ele>47.28</ele>
        <time>2020-07-10T12:30:50Z</time>
      </trkpt>
      <trkpt lat="47.83128" lon="-3.49981">
        <ele>47.28</ele>
        <time>2020-07-10T12:30:51Z</time>
      </trkpt>
      <trkpt lat="47.83128" lon="-3.49981">
        <ele>47.28</ele>
        <time>2020-07-10T12:30:52Z</time>
      </trkpt>
      <trkpt lat="47.83128" lon="-3.49981">
        <ele>47.28</ele>
        <time>2020-07-10T12:30:53Z</time>
      </trkpt>
      <trkpt lat="47.83128" lon="-3.49981">
        <ele>47.28</ele>
        <time>2020-07-10T12:30:54Z</time>
      </trkpt>
      <trkpt lat="47.83128" lon="-3.49981">
        <ele>47.28</ele>
        <time>2020-07-10T12:30:55Z</time>
      </trkpt>
      <trkpt lat="47.83128" lon="-3.49981">
        <ele>47.28</ele>
        <time>2020-07-10T12:30:56Z</time>
      </trkpt>
      <trkpt lat="47.83128" lon="-3.49981">
        <ele>47.28</ele>
        <time>2020-07-10T12:30:57Z</time>
      </trkpt>
      <trkpt lat="47.83128" lon="-3.49981">
        <ele>47.28</ele>
        <time>2020-07-10T12:30:58Z</time>
      </trkpt>
      <trkpt lat="47.83128" lon="-3.49981">
        <ele>47.28</ele>
        <time>2020-07-10T12:30:59Z</time>
      </trkpt>
      <trkpt lat="47.83128" lon="-3.49981">
        <ele>47.28</ele>
        <time>2020-07-10T12:31:00Z</time>
      </trkpt>
      <trkpt lat="47.83128" lon="-3.49981">
        <ele>47.28</ele>
        <time>2020-07-10T12:31:01Z</time>
      </trkpt>
      <trkpt lat="47.83128" lon="-3.49981">
        <ele>47.28</ele>
        <time>2020-07-10T12:31:02Z</time>
      </trkpt>
      <trkpt lat="47.83128" lon="-3.49981">
        <ele>47.28</ele>
        <time>2020-07-10T12:31:03Z</time>
      </trkpt>
      <trkpt lat="47.83128" lon="-3.49981">
        <ele>47.28</ele>
        <time>2020-07-10T12:31:04Z</time>
      </trkpt>
      <trkpt lat="47.83128" lon="-3.49981">
        <ele>47.28</ele>
        <time>2020-07-10T12:31:05Z</time>
      </trkpt>
      <trkpt lat="47.83128" lon="-3.49981">
        <ele>47.28</ele>
        <time>2020-07-10T12:31:06Z</time>
      </trkpt>
      <trkpt lat="47.83128" lon="-3.49981">
        <ele>47.28</ele>
        <time>2020-07-10T12:31:07Z</time>
      </trkpt>
      <trkpt lat="47.83128" lon="-3.49981">
        <ele>47.28</ele>
        <time>2020-07-10T12:31:08Z</time>
      </trkpt>
      <trkpt lat="47.83128" lon="-3.49981">
        <ele>47.28</ele>
        <time>2020-07-10T12:31:09Z</time>
      </trkpt>
      <trkpt lat="47.83128" lon="-3.49981">
        <ele>47.28</ele>
        <time>2020-07-10T12:31:10Z</time>
      </trkpt>
      <trkpt lat="47.83128" lon="-3.49981">
        <ele>47.28</ele>
        <time>2020-07-10T12:31:11Z</time>
      </trkpt>
      <trkpt lat="47.83128" lon="-3.49981">
        <ele>47.28</ele>
        <time>2020-07-10T12:31:12Z</time>
      </trkpt>
      <trkpt lat="47.83128" lon="-3.49981">
        <ele>47.28</ele>
        <time>2020-07-10T12:31:13Z</time>
      </trkpt>
      <trkpt lat="47.83128" lon="-3.49981">
        <ele>47.28</ele>
        <time>2020-07-10T12:31:14Z</time>
      </trkpt>
      <trkpt lat="47.83128" lon="-3.49981">
        <ele>47.28</ele>
        <time>2020-07-10T12:31:15Z</time>
      </trkpt>
      <trkpt lat="47.83128" lon="-3.49981">
        <ele>47.28</ele>
        <time>2020-07-10T12:31:16Z</time>
      </trkpt>
      <trkpt lat="47.83128" lon="-3.49981">
        <ele>47.28</ele>
        <time>2020-07-10T12:31:17Z</time>
      </trkpt>
      <trkpt lat="47.83128" lon="-3.49981">
        <ele>47.28</ele>
        <time>2020-07-10T12:31:18Z</time>
      </trkpt>
      <trkpt lat="47.83128" lon="-3.49981">
        <ele>47.28</ele>
        <time>2020-07-10T12:31:19Z</time>
      </trkpt>
      <trkpt lat="47.83128" lon="-3.49981">
        <ele>47.28</ele>
        <time>2020-07-10T12:31:20Z</time>
      </trkpt>
      <trkpt lat="47.83128" lon="-3.49981">
        <ele>47.28</ele>
        <time>2020-07-10T12:31:21Z</time>
      </trkpt>
      <trkpt lat="47.83128" lon="-3.49981">
        <ele>47.28</ele>
        <time>2020-07-10T12:31:22Z</time>
      </trkpt>
      <trkpt lat="47.83128" lon="-3.49981">
        <ele>47.28</ele>
        <time>2020-07-10T12:31:23Z</time>
      </trkpt>
      <trkpt lat="47.83128" lon="-3.49981">
        <ele>47.28</ele>
        <time>2020-07-10T12:31:24Z</time>
      </trkpt>
      <trkpt lat="47.83128" lon="-3.49981">
        <ele>47.28</ele>
        <time>2020-07-10T12:31:25Z</time>
      </trkpt>
      <trkpt lat="47.83128" lon="-3.49981">
        <ele>47.28</ele>
        <time>2020-07-10T12:31:26Z</time>
      </trkpt>
      <trkpt lat="47.83128" lon="-3.49981">
        <ele>47.28</ele>
        <time>2020-07-10T12:31:27Z</time>
      </trkpt>
      <trkpt lat="47.83128" lon="-3.49981">
        <ele>47.28</ele>
        <time>2020-07-10T12:31:28Z</time>
      </trkpt>
      <trkpt lat="47.83128" lon="-3.49981">
        <ele>47.28</ele>
        <time>2020-07-10T12:31:29Z</time>
      </trkpt>
      <trkpt lat="47.83128" lon="-3.49981">
        <ele>47.28</ele>
        <time>2020-07-10T12:31:30Z</time>
      </trkpt>
      <trkpt lat="47.83128" lon="-3.49981">
        <ele>47.28</ele>
        <time>2020-07-10T12:31:31Z</time>
      </trkpt>
      <trkpt lat="47.83128" lon="-3.49981">
        <ele>47.28</ele>
        <time>2020-07-10T12:31:32Z</time>
      </trkpt>
      <trkpt lat="47.83128" lon="-3.49981">
        <ele>47.28</ele>
        <time>2020-07-10T12:31:33Z</time>
      </trkpt>
      <trkpt lat="47.83128" lon="-3.49981">
        <ele>47.28</ele>
        <time>2020-07-10T12:31:34Z</time>
      </trkpt>
      <trkpt lat="47.83128" lon="-3.49981">
        <ele>47.28</ele>
        <time>2020-07-10T12:31:35Z</time>
      </trkpt>
      <trkpt lat="47.83128" lon="-3.49981">
        <ele>47.28</ele>
        <time>2020-07-10T12:31:36Z</time>
      </trkpt>
      <trkpt lat="47.83128" lon="-3.49981">
        <ele>47.28</ele>
        <time>2020-07-10T12:31:37Z</time>
      </trkpt>
      <trkpt lat="47.83128" lon="-3.49981">
        <ele>47.28</ele>
        <time>2020-07-10T12:31:38Z</time>
      </trkpt>
      <trkpt lat="47.83128" lon="-3.49981">
        <ele>47.28</ele>
        <time>2020-07-10T12:31:39Z</time>
      </trkpt>
      <trkpt lat="47.83128" lon="-3.49981">
        <ele>47.28</ele>
        <time>2020-07-10T12:31:40Z</time>
      </trkpt>
      <trkpt lat="47.83128" lon="-3.49981">
        <ele>47.28</ele>
        <time>2020-07-10T12:31:41Z</time>
      </trkpt>
      <trkpt lat="47.83128" lon="-3.49981">
        <ele>47.28</ele>
        <time>2020-07-10T12:31:42Z</time>
      </trkpt>
      <trkpt lat="47.83128" lon="-3.49981">
        <ele>47.28</ele>
        <time>2020-07-10T12:31:43Z</time>
      </trkpt>
      <trkpt lat="47.83128" lon="-3.49981">
        <ele>47.28</ele>
        <time>2020-07-10T12:31:44Z</time>
      </trkpt>
      <trkpt lat="47.83128" lon="-3.49981">
        <ele>47.28</ele>
        <time>2020-07-10T12:31:45Z</time>
      </trkpt>
      <trkpt lat="47.83128" lon="-3.49981">
        <ele>47.28</ele>
        <time>2020-07-10T12:31:46Z</time>
      </trkpt>
      <trkpt lat="47.83128" lon="-3.49981">
        <ele>47.28</ele>
        <time>2020-07-10T12:31:47Z</time>
      </trkpt>
      <trkpt lat="47.83128" lon="-3.49981">
        <ele>47.28</ele>
        <time>2020-07-10T12:31:48Z</time>
      </trkpt>
      <trkpt lat="47.83128" lon="-3.49981">
        <ele>47.28</ele>
        <time>2020-07-10T12:31:49Z</time>
      </trkpt>
      <trkpt lat="47.83128" lon="-3.49981">
        <ele>47.28</ele>
        <time>2020-07-10T12:31:50Z</time>
      </trkpt>
      <trkpt lat="47.83128" lon="-3.49981">
        <ele>47.28</ele>
        <time>2020-07-10T12:31:51Z</time>
      </trkpt>
      <trkpt lat="47.83128" lon="-3.49981">
        <ele>47.28</ele>
        <time>2020-07-10T12:31:52Z</time>
      </trkpt>
      <trkpt lat="47.83128" lon="-3.49981">
        <ele>47.28</ele>
        <time>2020-07-10T12:31:53Z</time>
      </trkpt>
      <trkpt lat="47.83128" lon="-3.49981">
        <ele>47.28</ele>
        <time>2020-07-10T12:31:54Z</time>
      </trkpt>
      <trkpt lat="47.83128" lon="-3.49981">
        <ele>47.28</ele>
        <time>2020-07-10T12:31:55Z</time>
      </trkpt>
      <trkpt lat="47.83128" lon="-3.49981">
        <ele>47.28</ele>
        <time>2020-07-10T12:31:56Z</time>
      </trkpt>
      <trkpt lat="47.83128" lon="-3.49981">
        <ele>47.28</ele>
        <time>2020-07-10T12:31:57Z</time>
      </trkpt>
      <trkpt lat="47.83128" lon="-3.49981">
        <ele>47.28</ele>
        <time>2020-07-10T12:31:58Z</time>
      </trkpt>
      <trkpt lat="47.83128" lon="-3.49981">
        <ele>47.28</ele>
        <time>2020-07-10T12:31:59Z</time>
      </trkpt>
      <trkpt lat="47.83128" lon="-3.49981">
        <ele>47.28</ele>
        <time>2020-07-10T12:32:00Z</time>
      </trkpt>
      <trkpt lat="47.83128" lon="-3.49981">
        <ele>47.28</ele>
        <time>2020-07-10T12:32:01Z</time>
      </trkpt>
      <trkpt lat="47.83128" lon="-3.49981">
        <ele>47.28</ele>
        <time>2020-07-10T12:32:02Z</time>
      </trkpt>
      <trkpt lat="47.83128" lon="-3.49981">
        <ele>47.28</ele>
        <time>2020-07-10T12:32:03Z</time>
      </trkpt>
      <trkpt lat="47.83128" lon="-3.49981">
        <ele>47.28</ele>
        <time>2020-07-10T12:32:04Z</time>
      </trkpt>
      <trkpt lat="47.83128" lon="-3.49981">
        <ele>47.28</ele>
        <time>2020-07-10T12:32:05Z</time>
      </trkpt>
      <trkpt lat="47.83128" lon="-3.49981">
        <ele>47.28</ele>
        <time>2020-07-10T12:32:06Z</time>
      </trkpt>
      <trkpt lat="47.83128" lon="-3.49981">
        <ele>47.28</ele>
        <time>2020-07-10T12:32:07Z</time>
      </trkpt>
      <trkpt lat="47.83128" lon="-3.49981">
        <ele>47.28</ele>
        <time>2020-07-10T12:32:08Z</time>
      </trkpt>
      <trkpt lat="47.83128" lon="-3.49981">
        <ele>47.28</ele>
        <time>2020-07-10T12:32:09Z</time>
      </trkpt>
      <trkpt lat="47.83128" lon="-3.49981">
        <ele>47.28</ele>
        <time>2020-07-10T12:32:10Z</time>
      </trkpt>
      <trkpt lat="47.83128" lon="-3.49981">
        <ele>47.28</ele>
        <time>2020-07-10T12:32:11Z</time>
      </trkpt>
      <trkpt lat="47.83128" lon="-3.49981">
        <ele>47.28</ele>
        <time>2020-07-10T12:32:12Z</time>
      </trkpt>
      <trkpt lat="47.83128" lon="-3.49981">
        <ele>47.28</ele>
        <time>2020-07-10T12:32:13Z</time>
      </trkpt>
      <trkpt lat="47.83128" lon="-3.49981">
        <ele>47.28</ele>
        <time>2020-07-10T12:32:14Z</time>
      </trkpt>
      <trkpt lat="47.83128" lon="-3.49981">
        <ele>47.28</ele>
        <time>2020-07-10T12:32:15Z</time>
      </trkpt>
      <trkpt lat="47.83128" lon="-3.49981">
        <ele>47.28</ele>
        <time>2020-07-10T12:32:16Z</time>
      </trkpt>
      <trkpt lat="47.83128" lon="-3.49981">
        <ele>47.28</ele>
        <time>2020-07-10T12:32:17Z</time>
      </trkpt>
      <trkpt lat="47.83128" lon="-3.49981">
        <ele>47.28</ele>
        <time>2020-07-10T12:32:18Z</time>
      </trkpt>
      <trkpt lat="47.83128" lon="-3.49981">
        <ele>47.28</ele>
        <time>2020-07-10T12:32:19Z</time>
      </trkpt>
      <trkpt lat="47.83128" lon="-3.49981">
        <ele>47.28</ele>
        <time>2020-07-10T12:32:20Z</time>
      </trkpt>
      <trkpt lat="47.83128" lon="-3.49981">
        <ele>47.28</ele>
        <time>2020-07-10T12:32:21Z</time>
      </trkpt>
      <trkpt lat="47.83128" lon="-3.49981">
        <ele>47.28</ele>
        <time>2020-07-10T12:32:22Z</time>
      </trkpt>
      <trkpt lat="47.83128" lon="-3.49981">
        <ele>47.28</ele>
        <time>2020-07-10T12:32:23Z</time>
      </trkpt>
      <trkpt lat="47.83128" lon="-3.49981">
        <ele>47.28</ele>
        <time>2020-07-10T12:32:24Z</time>
      </trkpt>
      <trkpt lat="47.83128" lon="-3.49981">
        <ele>47.28</ele>
        <time>2020-07-10T12:32:25Z</time>
      </trkpt>
      <trkpt lat="47.83128" lon="-3.49981">
        <ele>47.28</ele>
        <time>2020-07-10T12:32:26Z</time>
      </trkpt>
      <trkpt lat="47.83128" lon="-3.49981">
        <ele>47.28</ele>
        <time>2020-07-10T12:32:27Z</time>
      </trkpt>
      <trkpt lat="47.83128" lon="-3.49981">
        <ele>47.28</ele>
        <time>2020-07-10T12:32:28Z</time>
      </trkpt>
      <trkpt lat="47.83128" lon="-3.49981">
        <ele>47.28</ele>
        <time>2020-07-10T12:32:29Z</time>
      </trkpt>
      <trkpt lat="47.83128" lon="-3.49981">
        <ele>47.28</ele>
        <time>2020-07-10T12:32:30Z</time>
      </trkpt>
      <trkpt lat="47.83128" lon="-3.49981">
        <ele>47.28</ele>
        <time>2020-07-10T12:32:31Z</time>
      </trkpt>
      <trkpt lat="47.83128" lon="-3.49981">
        <ele>47.28</ele>
        <time>2020-07-10T12:32:32Z</time>
      </trkpt>
      <trkpt lat="47.83128" lon="-3.49981">
        <ele>47.28</ele>
        <time>2020-07-10T12:32:33Z</time>
      </trkpt>
      <trkpt lat="47.83128" lon="-3.49981">
        <ele>47.28</ele>
        <time>2020-07-10T12:32:34Z</time>
      </trkpt>
      <trkpt lat="47.83128" lon="-3.49981">
        <ele>47.28</ele>
        <time>2020-07-10T12:32:35Z</time>
      </trkpt>
      <trkpt lat="47.83128" lon="-3.49981">
        <ele>47.28</ele>
        <time>2020-07-10T12:32:36Z</time>
      </trkpt>
      <trkpt lat="47.83128" lon="-3.49981">
        <ele>47.28</ele>
        <time>2020-07-10T12:32:37Z</time>
      </trkpt>
      <trkpt lat="47.83124" lon="-3.4998">
        <ele>47.34</ele>
        <time>2020-07-10T12:32:38Z</time>
      </trkpt>
      <trkpt lat="47.83124" lon="-3.49984">
        <ele>47.33</ele>
        <time>2020-07-10T12:32:39Z</time>
      </trkpt>
      <trkpt lat="47.83123" lon="-3.49988">
        <ele>47.27</ele>
        <time>2020-07-10T12:32:40Z</time>
      </trkpt>
      <trkpt lat="47.83122" lon="-3.49992">
        <ele>47.21</ele>
        <time>2020-07-10T12:32:41Z</time>
      </trkpt>
      <trkpt lat="47.8312" lon="-3.49996">
        <ele>47.13</ele>
        <time>2020-07-10T12:32:42Z</time>
      </trkpt>
      <trkpt lat="47.83118" lon="-3.5">
        <ele>47.03</ele>
        <time>2020-07-10T12:32:43Z</time>
      </trkpt>
      <trkpt lat="47.83116" lon="-3.50004">
        <ele>46.9</ele>
        <time>2020-07-10T12:32:44Z</time>
      </trkpt>
      <trkpt lat="47.83113" lon="-3.50008">
        <ele>46.76</ele>
        <time>2020-07-10T12:32:45Z</time>
      </trkpt>
      <trkpt lat="47.83111" lon="-3.50013">
        <ele>46.61</ele>
        <time>2020-07-10T12:32:46Z</time>
      </trkpt>
      <trkpt lat="47.83109" lon="-3.50016">
        <ele>46.48</ele>
        <time>2020-07-10T12:32:47Z</time>
      </trkpt>
      <trkpt lat="47.83107" lon="-3.5002">
        <ele>46.33</ele>
        <time>2020-07-10T12:32:48Z</time>
      </trkpt>
      <trkpt lat="47.83105" lon="-3.50024">
        <ele>46.2</ele>
        <time>2020-07-10T12:32:49Z</time>
      </trkpt>
      <trkpt lat="47.83103" lon="-3.50027">
        <ele>46.07</ele>
        <time>2020-07-10T12:32:50Z</time>
      </trkpt>
      <trkpt lat="47.83102" lon="-3.5003">
        <ele>46.02</ele>
        <time>2020-07-10T12:32:51Z</time>
      </trkpt>
      <trkpt lat="47.831" lon="-3.50034">
        <ele>46.01</ele>
        <time>2020-07-10T12:32:52Z</time>
      </trkpt>
      <trkpt lat="47.83099" lon="-3.50037">
        <ele>46</ele>
        <time>2020-07-10T12:32:53Z</time>
      </trkpt>
      <trkpt lat="47.83097" lon="-3.50039">
        <ele>46</ele>
        <time>2020-07-10T12:32:54Z</time>
      </trkpt>
      <trkpt lat="47.83096" lon="-3.50043">
        <ele>46</ele>
        <time>2020-07-10T12:32:55Z</time>
      </trkpt>
      <trkpt lat="47.83094" lon="-3.50046">
        <ele>46</ele>
        <time>2020-07-10T12:32:56Z</time>
      </trkpt>
      <trkpt lat="47.83092" lon="-3.50049">
        <ele>46</ele>
        <time>2020-07-10T12:32:57Z</time>
      </trkpt>
      <trkpt lat="47.83089" lon="-3.50053">
        <ele>46</ele>
        <time>2020-07-10T12:32:58Z</time>
      </trkpt>
      <trkpt lat="47.83087" lon="-3.50057">
        <ele>46</ele>
        <time>2020-07-10T12:32:59Z</time>
      </trkpt>
      <trkpt lat="47.83085" lon="-3.50061">
        <ele>45.99</ele>
        <time>2020-07-10T12:33:00Z</time>
      </trkpt>
      <trkpt lat="47.83084" lon="-3.50065">
        <ele>45.99</ele>
        <time>2020-07-10T12:33:01Z</time>
      </trkpt>
      <trkpt lat="47.83082" lon="-3.50068">
        <ele>46.02</ele>
        <time>2020-07-10T12:33:02Z</time>
      </trkpt>
      <trkpt lat="47.8308" lon="-3.50072">
        <ele>46.05</ele>
        <time>2020-07-10T12:33:03Z</time>
      </trkpt>
      <trkpt lat="47.83077" lon="-3.50076">
        <ele>46.05</ele>
        <time>2020-07-10T12:33:04Z</time>
      </trkpt>
      <trkpt lat="47.83075" lon="-3.5008">
        <ele>46.04</ele>
        <time>2020-07-10T12:33:05Z</time>
      </trkpt>
      <trkpt lat="47.83073" lon="-3.50084">
        <ele>46</ele>
        <time>2020-07-10T12:33:06Z</time>
      </trkpt>
      <trkpt lat="47.8307" lon="-3.50087">
        <ele>45.95</ele>
        <time>2020-07-10T12:33:07Z</time>
      </trkpt>
      <trkpt lat="47.83068" lon="-3.5009">
        <ele>45.91</ele>
        <time>2020-07-10T12:33:08Z</time>
      </trkpt>
      <trkpt lat="47.83066" lon="-3.50093">
        <ele>45.87</ele>
        <time>2020-07-10T12:33:09Z</time>
      </trkpt>
      <trkpt lat="47.83065" lon="-3.50097">
        <ele>45.85</ele>
        <time>2020-07-10T12:33:10Z</time>
      </trkpt>
      <trkpt lat="47.83063" lon="-3.501">
        <ele>45.85</ele>
        <time>2020-07-10T12:33:11Z</time>
      </trkpt>
      <trkpt lat="47.83061" lon="-3.50103">
        <ele>45.86</ele>
        <time>2020-07-10T12:33:12Z</time>
      </trkpt>
      <trkpt lat="47.83058" lon="-3.50106">
        <ele>45.9</ele>
        <time>2020-07-10T12:33:13Z</time>
      </trkpt>
      <trkpt lat="47.83056" lon="-3.5011">
        <ele>45.96</ele>
        <time>2020-07-10T12:33:14Z</time>
      </trkpt>
      <trkpt lat="47.83053" lon="-3.50115">
        <ele>46.14</ele>
        <time>2020-07-10T12:33:15Z</time>
      </trkpt>
      <trkpt lat="47.83051" lon="-3.5012">
        <ele>46.34</ele>
        <time>2020-07-10T12:33:16Z</time>
      </trkpt>
      <trkpt lat="47.83048" lon="-3.50125">
        <ele>46.54</ele>
        <time>2020-07-10T12:33:17Z</time>
      </trkpt>
      <trkpt lat="47.83046" lon="-3.50129">
        <ele>46.7</ele>
        <time>2020-07-10T12:33:18Z</time>
      </trkpt>
      <trkpt lat="47.83043" lon="-3.50135">
        <ele>46.86</ele>
        <time>2020-07-10T12:33:19Z</time>
      </trkpt>
      <trkpt lat="47.83041" lon="-3.5014">
        <ele>46.99</ele>
        <time>2020-07-10T12:33:20Z</time>
      </trkpt>
      <trkpt lat="47.83039" lon="-3.50146">
        <ele>47.17</ele>
        <time>2020-07-10T12:33:21Z</time>
      </trkpt>
      <trkpt lat="47.83037" lon="-3.50151">
        <ele>47.36</ele>
        <time>2020-07-10T12:33:22Z</time>
      </trkpt>
      <trkpt lat="47.83035" lon="-3.50156">
        <ele>47.53</ele>
        <time>2020-07-10T12:33:23Z</time>
      </trkpt>
      <trkpt lat="47.83033" lon="-3.50161">
        <ele>47.7</ele>
        <time>2020-07-10T12:33:24Z</time>
      </trkpt>
      <trkpt lat="47.83031" lon="-3.50165">
        <ele>47.87</ele>
        <time>2020-07-10T12:33:25Z</time>
      </trkpt>
      <trkpt lat="47.8303" lon="-3.50169">
        <ele>48.09</ele>
        <time>2020-07-10T12:33:26Z</time>
      </trkpt>
      <trkpt lat="47.83029" lon="-3.50174">
        <ele>48.4</ele>
        <time>2020-07-10T12:33:27Z</time>
      </trkpt>
      <trkpt lat="47.83028" lon="-3.50179">
        <ele>48.73</ele>
        <time>2020-07-10T12:33:28Z</time>
      </trkpt>
      <trkpt lat="47.83028" lon="-3.50184">
        <ele>49.08</ele>
        <time>2020-07-10T12:33:29Z</time>
      </trkpt>
      <trkpt lat="47.83027" lon="-3.50188">
        <ele>49.42</ele>
        <time>2020-07-10T12:33:30Z</time>
      </trkpt>
      <trkpt lat="47.83027" lon="-3.50194">
        <ele>49.8</ele>
        <time>2020-07-10T12:33:31Z</time>
      </trkpt>
      <trkpt lat="47.83026" lon="-3.50198">
        <ele>50.02</ele>
        <time>2020-07-10T12:33:32Z</time>
      </trkpt>
      <trkpt lat="47.83027" lon="-3.50201">
        <ele>50.16</ele>
        <time>2020-07-10T12:33:33Z</time>
      </trkpt>
      <trkpt lat="47.83027" lon="-3.50202">
        <ele>50.23</ele>
        <time>2020-07-10T12:33:34Z</time>
      </trkpt>
      <trkpt lat="47.83027" lon="-3.50202">
        <ele>50.25</ele>
        <time>2020-07-10T12:33:35Z</time>
      </trkpt>
      <trkpt lat="47.83027" lon="-3.50202">
        <ele>50.26</ele>
        <time>2020-07-10T12:33:36Z</time>
      </trkpt>
      <trkpt lat="47.83027" lon="-3.50202">
        <ele>50.26</ele>
        <time>2020-07-10T12:33:37Z</time>
      </trkpt>
      <trkpt lat="47.83027" lon="-3.50202">
        <ele>50.26</ele>
        <time>2020-07-10T12:33:38Z</time>
      </trkpt>
      <trkpt lat="47.83027" lon="-3.50202">
        <ele>50.26</ele>
        <time>2020-07-10T12:33:39Z</time>
      </trkpt>
      <trkpt lat="47.83027" lon="-3.50202">
        <ele>50.26</ele>
        <time>2020-07-10T12:33:40Z</time>
      </trkpt>
      <trkpt lat="47.83027" lon="-3.50202">
        <ele>50.26</ele>
        <time>2020-07-10T12:33:41Z</time>
      </trkpt>
      <trkpt lat="47.83027" lon="-3.50202">
        <ele>50.26</ele>
        <time>2020-07-10T12:33:42Z</time>
      </trkpt>
      <trkpt lat="47.83027" lon="-3.50202">
        <ele>50.26</ele>
        <time>2020-07-10T12:33:43Z</time>
      </trkpt>
      <trkpt lat="47.83027" lon="-3.50202">
        <ele>50.26</ele>
        <time>2020-07-10T12:33:44Z</time>
      </trkpt>
      <trkpt lat="47.83026" lon="-3.50207">
        <ele>50.38</ele>
        <time>2020-07-10T12:33:45Z</time>
      </trkpt>
      <trkpt lat="47.83025" lon="-3.50209">
        <ele>50.49</ele>
        <time>2020-07-10T12:33:46Z</time>
      </trkpt>
      <trkpt lat="47.83024" lon="-3.50212">
        <ele>50.58</ele>
        <time>2020-07-10T12:33:47Z</time>
      </trkpt>
      <trkpt lat="47.83023" lon="-3.50215">
        <ele>50.68</ele>
        <time>2020-07-10T12:33:48Z</time>
      </trkpt>
      <trkpt lat="47.83022" lon="-3.50218">
        <ele>50.8</ele>
        <time>2020-07-10T12:33:49Z</time>
      </trkpt>
      <trkpt lat="47.83021" lon="-3.50221">
        <ele>50.92</ele>
        <time>2020-07-10T12:33:50Z</time>
      </trkpt>
      <trkpt lat="47.8302" lon="-3.50225">
        <ele>51.09</ele>
        <time>2020-07-10T12:33:51Z</time>
      </trkpt>
      <trkpt lat="47.83019" lon="-3.50228">
        <ele>51.28</ele>
        <time>2020-07-10T12:33:52Z</time>
      </trkpt>
      <trkpt lat="47.83018" lon="-3.50232">
        <ele>51.49</ele>
        <time>2020-07-10T12:33:53Z</time>
      </trkpt>
      <trkpt lat="47.83017" lon="-3.50235">
        <ele>51.65</ele>
        <time>2020-07-10T12:33:54Z</time>
      </trkpt>
      <trkpt lat="47.83014" lon="-3.50237">
        <ele>51.76</ele>
        <time>2020-07-10T12:33:55Z</time>
      </trkpt>
      <trkpt lat="47.83012" lon="-3.50238">
        <ele>51.81</ele>
        <time>2020-07-10T12:33:56Z</time>
      </trkpt>
      <trkpt lat="47.8301" lon="-3.50238">
        <ele>51.79</ele>
        <time>2020-07-10T12:33:57Z</time>
      </trkpt>
      <trkpt lat="47.83008" lon="-3.50239">
        <ele>51.77</ele>
        <time>2020-07-10T12:33:58Z</time>
      </trkpt>
      <trkpt lat="47.83006" lon="-3.50238">
        <ele>51.72</ele>
        <time>2020-07-10T12:33:59Z</time>
      </trkpt>
      <trkpt lat="47.83003" lon="-3.50238">
        <ele>51.66</ele>
        <time>2020-07-10T12:34:00Z</time>
      </trkpt>
      <trkpt lat="47.83" lon="-3.50238">
        <ele>51.59</ele>
        <time>2020-07-10T12:34:01Z</time>
      </trkpt>
      <trkpt lat="47.82997" lon="-3.50237">
        <ele>51.55</ele>
        <time>2020-07-10T12:34:02Z</time>
      </trkpt>
      <trkpt lat="47.82994" lon="-3.50236">
        <ele>51.5</ele>
        <time>2020-07-10T12:34:03Z</time>
      </trkpt>
      <trkpt lat="47.8299" lon="-3.50235">
        <ele>51.46</ele>
        <time>2020-07-10T12:34:04Z</time>
      </trkpt>
      <trkpt lat="47.82986" lon="-3.50234">
        <ele>51.44</ele>
        <time>2020-07-10T12:34:05Z</time>
      </trkpt>
      <trkpt lat="47.82981" lon="-3.50234">
        <ele>51.44</ele>
        <time>2020-07-10T12:34:06Z</time>
      </trkpt>
      <trkpt lat="47.82977" lon="-3.50234">
        <ele>51.42</ele>
        <time>2020-07-10T12:34:07Z</time>
      </trkpt>
      <trkpt lat="47.82972" lon="-3.50233">
        <ele>51.4</ele>
        <time>2020-07-10T12:34:08Z</time>
      </trkpt>
      <trkpt lat="47.82967" lon="-3.50232">
        <ele>51.45</ele>
        <time>2020-07-10T12:34:09Z</time>
      </trkpt>
      <trkpt lat="47.82962" lon="-3.5023">
        <ele>51.52</ele>
        <time>2020-07-10T12:34:10Z</time>
      </trkpt>
      <trkpt lat="47.82957" lon="-3.50228">
        <ele>51.61</ele>
        <time>2020-07-10T12:34:11Z</time>
      </trkpt>
      <trkpt lat="47.82952" lon="-3.50227">
        <ele>51.73</ele>
        <time>2020-07-10T12:34:12Z</time>
      </trkpt>
      <trkpt lat="47.82947" lon="-3.50226">
        <ele>51.87</ele>
        <time>2020-07-10T12:34:13Z</time>
      </trkpt>
      <trkpt lat="47.82942" lon="-3.50224">
        <ele>51.9</ele>
        <time>2020-07-10T12:34:14Z</time>
      </trkpt>
      <trkpt lat="47.82936" lon="-3.50223">
        <ele>51.77</ele>
        <time>2020-07-10T12:34:15Z</time>
      </trkpt>
      <trkpt lat="47.82931" lon="-3.50221">
        <ele>51.57</ele>
        <time>2020-07-10T12:34:16Z</time>
      </trkpt>
      <trkpt lat="47.82926" lon="-3.5022">
        <ele>51.34</ele>
        <time>2020-07-10T12:34:17Z</time>
      </trkpt>
      <trkpt lat="47.8292" lon="-3.50219">
        <ele>51.11</ele>
        <time>2020-07-10T12:34:18Z</time>
      </trkpt>
      <trkpt lat="47.82914" lon="-3.50217">
        <ele>50.86</ele>
        <time>2020-07-10T12:34:19Z</time>
      </trkpt>
      <trkpt lat="47.82909" lon="-3.50217">
        <ele>50.66</ele>
        <time>2020-07-10T12:34:20Z</time>
      </trkpt>
      <trkpt lat="47.82904" lon="-3.50216">
        <ele>50.49</ele>
        <time>2020-07-10T12:34:21Z</time>
      </trkpt>
      <trkpt lat="47.82899" lon="-3.50214">
        <ele>50.33</ele>
        <time>2020-07-10T12:34:22Z</time>
      </trkpt>
      <trkpt lat="47.82894" lon="-3.50213">
        <ele>50.18</ele>
        <time>2020-07-10T12:34:23Z</time>
      </trkpt>
      <trkpt lat="47.82889" lon="-3.50211">
        <ele>50.04</ele>
        <time>2020-07-10T12:34:24Z</time>
      </trkpt>
      <trkpt lat="47.82883" lon="-3.5021">
        <ele>49.82</ele>
        <time>2020-07-10T12:34:25Z</time>
      </trkpt>
      <trkpt lat="47.82878" lon="-3.50209">
        <ele>49.55</ele>
        <time>2020-07-10T12:34:26Z</time>
      </trkpt>
      <trkpt lat="47.82873" lon="-3.50208">
        <ele>49.24</ele>
        <time>2020-07-10T12:34:27Z</time>
      </trkpt>
      <trkpt lat="47.82867" lon="-3.50206">
        <ele>48.92</ele>
        <time>2020-07-10T12:34:28Z</time>
      </trkpt>
      <trkpt lat="47.82862" lon="-3.50204">
        <ele>48.57</ele>
        <time>2020-07-10T12:34:29Z</time>
      </trkpt>
      <trkpt lat="47.82857" lon="-3.50203">
        <ele>48.28</ele>
        <time>2020-07-10T12:34:30Z</time>
      </trkpt>
      <trkpt lat="47.82851" lon="-3.50201">
        <ele>48</ele>
        <time>2020-07-10T12:34:31Z</time>
      </trkpt>
      <trkpt lat="47.82845" lon="-3.502">
        <ele>47.73</ele>
        <time>2020-07-10T12:34:32Z</time>
      </trkpt>
      <trkpt lat="47.82839" lon="-3.50197">
        <ele>47.44</ele>
        <time>2020-07-10T12:34:33Z</time>
      </trkpt>
      <trkpt lat="47.82833" lon="-3.50196">
        <ele>47.16</ele>
        <time>2020-07-10T12:34:34Z</time>
      </trkpt>
      <trkpt lat="47.82827" lon="-3.50194">
        <ele>47.05</ele>
        <time>2020-07-10T12:34:35Z</time>
      </trkpt>
      <trkpt lat="47.82822" lon="-3.50194">
        <ele>47.01</ele>
        <time>2020-07-10T12:34:36Z</time>
      </trkpt>
      <trkpt lat="47.82816" lon="-3.50193">
        <ele>46.97</ele>
        <time>2020-07-10T12:34:37Z</time>
      </trkpt>
      <trkpt lat="47.8281" lon="-3.50191">
        <ele>46.93</ele>
        <time>2020-07-10T12:34:38Z</time>
      </trkpt>
      <trkpt lat="47.82804" lon="-3.50191">
        <ele>46.86</ele>
        <time>2020-07-10T12:34:39Z</time>
      </trkpt>
      <trkpt lat="47.82798" lon="-3.5019">
        <ele>46.69</ele>
        <time>2020-07-10T12:34:40Z</time>
      </trkpt>
      <trkpt lat="47.82793" lon="-3.50188">
        <ele>46.5</ele>
        <time>2020-07-10T12:34:41Z</time>
      </trkpt>
      <trkpt lat="47.82787" lon="-3.50186">
        <ele>46.31</ele>
        <time>2020-07-10T12:34:42Z</time>
      </trkpt>
      <trkpt lat="47.82781" lon="-3.50185">
        <ele>46.15</ele>
        <time>2020-07-10T12:34:43Z</time>
      </trkpt>
      <trkpt lat="47.82775" lon="-3.50183">
        <ele>46.05</ele>
        <time>2020-07-10T12:34:44Z</time>
      </trkpt>
      <trkpt lat="47.8277" lon="-3.50182">
        <ele>46.01</ele>
        <time>2020-07-10T12:34:45Z</time>
      </trkpt>
      <trkpt lat="47.82764" lon="-3.5018">
        <ele>46</ele>
        <time>2020-07-10T12:34:46Z</time>
      </trkpt>
      <trkpt lat="47.82758" lon="-3.50179">
        <ele>46</ele>
        <time>2020-07-10T12:34:47Z</time>
      </trkpt>
      <trkpt lat="47.82752" lon="-3.50177">
        <ele>46</ele>
        <time>2020-07-10T12:34:48Z</time>
      </trkpt>
      <trkpt lat="47.82746" lon="-3.50176">
        <ele>46</ele>
        <time>2020-07-10T12:34:49Z</time>
      </trkpt>
      <trkpt lat="47.8274" lon="-3.50175">
        <ele>46</ele>
        <time>2020-07-10T12:34:50Z</time>
      </trkpt>
      <trkpt lat="47.82734" lon="-3.50174">
        <ele>46</ele>
        <time>2020-07-10T12:34:51Z</time>
      </trkpt>
      <trkpt lat="47.82728" lon="-3.50174">
        <ele>46</ele>
        <time>2020-07-10T12:34:52Z</time>
      </trkpt>
      <trkpt lat="47.82722" lon="-3.50173">
        <ele>46</ele>
        <time>2020-07-10T12:34:53Z</time>
      </trkpt>
      <trkpt lat="47.82716" lon="-3.50173">
        <ele>46</ele>
        <time>2020-07-10T12:34:54Z</time>
      </trkpt>
      <trkpt lat="47.82711" lon="-3.50172">
        <ele>46</ele>
        <time>2020-07-10T12:34:55Z</time>
      </trkpt>
      <trkpt lat="47.82705" lon="-3.50171">
        <ele>46</ele>
        <time>2020-07-10T12:34:56Z</time>
      </trkpt>
      <trkpt lat="47.82699" lon="-3.5017">
        <ele>46</ele>
        <time>2020-07-10T12:34:57Z</time>
      </trkpt>
      <trkpt lat="47.82693" lon="-3.50169">
        <ele>45.97</ele>
        <time>2020-07-10T12:34:58Z</time>
      </trkpt>
      <trkpt lat="47.82688" lon="-3.50168">
        <ele>45.81</ele>
        <time>2020-07-10T12:34:59Z</time>
      </trkpt>
      <trkpt lat="47.82682" lon="-3.50166">
        <ele>45.63</ele>
        <time>2020-07-10T12:35:00Z</time>
      </trkpt>
      <trkpt lat="47.82676" lon="-3.50165">
        <ele>45.44</ele>
        <time>2020-07-10T12:35:01Z</time>
      </trkpt>
      <trkpt lat="47.82671" lon="-3.50164">
        <ele>45.24</ele>
        <time>2020-07-10T12:35:02Z</time>
      </trkpt>
      <trkpt lat="47.82666" lon="-3.50162">
        <ele>45.04</ele>
        <time>2020-07-10T12:35:03Z</time>
      </trkpt>
      <trkpt lat="47.82662" lon="-3.50161">
        <ele>44.79</ele>
        <time>2020-07-10T12:35:04Z</time>
      </trkpt>
      <trkpt lat="47.82659" lon="-3.50162">
        <ele>44.57</ele>
        <time>2020-07-10T12:35:05Z</time>
      </trkpt>
      <trkpt lat="47.82657" lon="-3.50165">
        <ele>44.42</ele>
        <time>2020-07-10T12:35:06Z</time>
      </trkpt>
      <trkpt lat="47.82658" lon="-3.50169">
        <ele>44.36</ele>
        <time>2020-07-10T12:35:07Z</time>
      </trkpt>
      <trkpt lat="47.8266" lon="-3.50174">
        <ele>44.33</ele>
        <time>2020-07-10T12:35:08Z</time>
      </trkpt>
      <trkpt lat="47.82662" lon="-3.50179">
        <ele>44.3</ele>
        <time>2020-07-10T12:35:09Z</time>
      </trkpt>
      <trkpt lat="47.82664" lon="-3.50184">
        <ele>44.26</ele>
        <time>2020-07-10T12:35:10Z</time>
      </trkpt>
      <trkpt lat="47.82666" lon="-3.5019">
        <ele>44.18</ele>
        <time>2020-07-10T12:35:11Z</time>
      </trkpt>
      <trkpt lat="47.82668" lon="-3.50195">
        <ele>44.13</ele>
        <time>2020-07-10T12:35:12Z</time>
      </trkpt>
      <trkpt lat="47.8267" lon="-3.50201">
        <ele>44.19</ele>
        <time>2020-07-10T12:35:13Z</time>
      </trkpt>
      <trkpt lat="47.82672" lon="-3.50207">
        <ele>44.27</ele>
        <time>2020-07-10T12:35:14Z</time>
      </trkpt>
      <trkpt lat="47.82673" lon="-3.50213">
        <ele>44.31</ele>
        <time>2020-07-10T12:35:15Z</time>
      </trkpt>
      <trkpt lat="47.82674" lon="-3.50218">
        <ele>44.32</ele>
        <time>2020-07-10T12:35:16Z</time>
      </trkpt>
      <trkpt lat="47.82676" lon="-3.50223">
        <ele>44.32</ele>
        <time>2020-07-10T12:35:17Z</time>
      </trkpt>
      <trkpt lat="47.82676" lon="-3.50228">
        <ele>44.34</ele>
        <time>2020-07-10T12:35:18Z</time>
      </trkpt>
      <trkpt lat="47.82677" lon="-3.50233">
        <ele>44.37</ele>
        <time>2020-07-10T12:35:19Z</time>
      </trkpt>
      <trkpt lat="47.82678" lon="-3.50238">
        <ele>44.39</ele>
        <time>2020-07-10T12:35:20Z</time>
      </trkpt>
      <trkpt lat="47.82679" lon="-3.50243">
        <ele>44.42</ele>
        <time>2020-07-10T12:35:21Z</time>
      </trkpt>
      <trkpt lat="47.82679" lon="-3.50246">
        <ele>44.44</ele>
        <time>2020-07-10T12:35:22Z</time>
      </trkpt>
      <trkpt lat="47.82679" lon="-3.50246">
        <ele>44.44</ele>
        <time>2020-07-10T12:35:23Z</time>
      </trkpt>
      <trkpt lat="47.82679" lon="-3.50246">
        <ele>44.44</ele>
        <time>2020-07-10T12:35:24Z</time>
      </trkpt>
      <trkpt lat="47.82679" lon="-3.50246">
        <ele>44.44</ele>
        <time>2020-07-10T12:35:25Z</time>
      </trkpt>
      <trkpt lat="47.82679" lon="-3.50246">
        <ele>44.44</ele>
        <time>2020-07-10T12:35:26Z</time>
      </trkpt>
      <trkpt lat="47.82679" lon="-3.50246">
        <ele>44.44</ele>
        <time>2020-07-10T12:35:27Z</time>
      </trkpt>
      <trkpt lat="47.82679" lon="-3.50246">
        <ele>44.44</ele>
        <time>2020-07-10T12:35:28Z</time>
      </trkpt>
      <trkpt lat="47.82679" lon="-3.50246">
        <ele>44.44</ele>
        <time>2020-07-10T12:35:29Z</time>
      </trkpt>
      <trkpt lat="47.82679" lon="-3.50246">
        <ele>44.44</ele>
        <time>2020-07-10T12:35:30Z</time>
      </trkpt>
      <trkpt lat="47.82679" lon="-3.50246">
        <ele>44.44</ele>
        <time>2020-07-10T12:35:31Z</time>
      </trkpt>
      <trkpt lat="47.82679" lon="-3.5025">
        <ele>44.45</ele>
        <time>2020-07-10T12:35:32Z</time>
      </trkpt>
      <trkpt lat="47.82679" lon="-3.50253">
        <ele>44.5</ele>
        <time>2020-07-10T12:35:33Z</time>
      </trkpt>
      <trkpt lat="47.82679" lon="-3.50258">
        <ele>44.57</ele>
        <time>2020-07-10T12:35:34Z</time>
      </trkpt>
      <trkpt lat="47.82679" lon="-3.50263">
        <ele>44.66</ele>
        <time>2020-07-10T12:35:35Z</time>
      </trkpt>
      <trkpt lat="47.8268" lon="-3.50268">
        <ele>44.77</ele>
        <time>2020-07-10T12:35:36Z</time>
      </trkpt>
      <trkpt lat="47.8268" lon="-3.50274">
        <ele>44.88</ele>
        <time>2020-07-10T12:35:37Z</time>
      </trkpt>
      <trkpt lat="47.8268" lon="-3.5028">
        <ele>45.02</ele>
        <time>2020-07-10T12:35:38Z</time>
      </trkpt>
      <trkpt lat="47.8268" lon="-3.50287">
        <ele>45.23</ele>
        <time>2020-07-10T12:35:39Z</time>
      </trkpt>
      <trkpt lat="47.8268" lon="-3.50293">
        <ele>45.45</ele>
        <time>2020-07-10T12:35:40Z</time>
      </trkpt>
      <trkpt lat="47.8268" lon="-3.50299">
        <ele>45.67</ele>
        <time>2020-07-10T12:35:41Z</time>
      </trkpt>
      <trkpt lat="47.82679" lon="-3.50305">
        <ele>45.9</ele>
        <time>2020-07-10T12:35:42Z</time>
      </trkpt>
      <trkpt lat="47.82679" lon="-3.50312">
        <ele>46.13</ele>
        <time>2020-07-10T12:35:43Z</time>
      </trkpt>
      <trkpt lat="47.82679" lon="-3.50318">
        <ele>46.37</ele>
        <time>2020-07-10T12:35:44Z</time>
      </trkpt>
      <trkpt lat="47.82678" lon="-3.50325">
        <ele>46.6</ele>
        <time>2020-07-10T12:35:45Z</time>
      </trkpt>
      <trkpt lat="47.82677" lon="-3.50332">
        <ele>46.84</ele>
        <time>2020-07-10T12:35:46Z</time>
      </trkpt>
      <trkpt lat="47.82677" lon="-3.50338">
        <ele>46.95</ele>
        <time>2020-07-10T12:35:47Z</time>
      </trkpt>
      <trkpt lat="47.82676" lon="-3.50345">
        <ele>46.99</ele>
        <time>2020-07-10T12:35:48Z</time>
      </trkpt>
      <trkpt lat="47.82675" lon="-3.50351">
        <ele>47</ele>
        <time>2020-07-10T12:35:49Z</time>
      </trkpt>
      <trkpt lat="47.82674" lon="-3.50358">
        <ele>47</ele>
        <time>2020-07-10T12:35:50Z</time>
      </trkpt>
      <trkpt lat="47.82673" lon="-3.50364">
        <ele>47.02</ele>
        <time>2020-07-10T12:35:51Z</time>
      </trkpt>
      <trkpt lat="47.82673" lon="-3.50371">
        <ele>47.06</ele>
        <time>2020-07-10T12:35:52Z</time>
      </trkpt>
      <trkpt lat="47.82672" lon="-3.50377">
        <ele>47.09</ele>
        <time>2020-07-10T12:35:53Z</time>
      </trkpt>
      <trkpt lat="47.82671" lon="-3.50384">
        <ele>47.11</ele>
        <time>2020-07-10T12:35:54Z</time>
      </trkpt>
      <trkpt lat="47.8267" lon="-3.5039">
        <ele>47.14</ele>
        <time>2020-07-10T12:35:55Z</time>
      </trkpt>
      <trkpt lat="47.82668" lon="-3.50397">
        <ele>47.27</ele>
        <time>2020-07-10T12:35:56Z</time>
      </trkpt>
      <trkpt lat="47.82667" lon="-3.50404">
        <ele>47.46</ele>
        <time>2020-07-10T12:35:57Z</time>
      </trkpt>
      <trkpt lat="47.82665" lon="-3.5041">
        <ele>47.65</ele>
        <time>2020-07-10T12:35:58Z</time>
      </trkpt>
      <trkpt lat="47.82664" lon="-3.50417">
        <ele>47.84</ele>
        <time>2020-07-10T12:35:59Z</time>
      </trkpt>
      <trkpt lat="47.82663" lon="-3.50423">
        <ele>47.86</ele>
        <time>2020-07-10T12:36:00Z</time>
      </trkpt>
      <trkpt lat="47.82662" lon="-3.50428">
        <ele>47.84</ele>
        <time>2020-07-10T12:36:01Z</time>
      </trkpt>
      <trkpt lat="47.82661" lon="-3.50434">
        <ele>47.81</ele>
        <time>2020-07-10T12:36:02Z</time>
      </trkpt>
      <trkpt lat="47.82661" lon="-3.5044">
        <ele>47.8</ele>
        <time>2020-07-10T12:36:03Z</time>
      </trkpt>
      <trkpt lat="47.8266" lon="-3.50446">
        <ele>47.77</ele>
        <time>2020-07-10T12:36:04Z</time>
      </trkpt>
      <trkpt lat="47.82659" lon="-3.50453">
        <ele>47.73</ele>
        <time>2020-07-10T12:36:05Z</time>
      </trkpt>
      <trkpt lat="47.82658" lon="-3.50458">
        <ele>47.7</ele>
        <time>2020-07-10T12:36:06Z</time>
      </trkpt>
      <trkpt lat="47.82657" lon="-3.50464">
        <ele>47.67</ele>
        <time>2020-07-10T12:36:07Z</time>
      </trkpt>
      <trkpt lat="47.82656" lon="-3.5047">
        <ele>47.64</ele>
        <time>2020-07-10T12:36:08Z</time>
      </trkpt>
      <trkpt lat="47.82655" lon="-3.50477">
        <ele>47.53</ele>
        <time>2020-07-10T12:36:09Z</time>
      </trkpt>
      <trkpt lat="47.82655" lon="-3.50483">
        <ele>47.41</ele>
        <time>2020-07-10T12:36:10Z</time>
      </trkpt>
      <trkpt lat="47.82654" lon="-3.50488">
        <ele>47.28</ele>
        <time>2020-07-10T12:36:11Z</time>
      </trkpt>
      <trkpt lat="47.82655" lon="-3.50493">
        <ele>47.18</ele>
        <time>2020-07-10T12:36:12Z</time>
      </trkpt>
      <trkpt lat="47.82654" lon="-3.505">
        <ele>47.06</ele>
        <time>2020-07-10T12:36:13Z</time>
      </trkpt>
      <trkpt lat="47.82654" lon="-3.50506">
        <ele>47.02</ele>
        <time>2020-07-10T12:36:14Z</time>
      </trkpt>
      <trkpt lat="47.82651" lon="-3.50512">
        <ele>47.01</ele>
        <time>2020-07-10T12:36:15Z</time>
      </trkpt>
      <trkpt lat="47.82652" lon="-3.50521">
        <ele>47</ele>
        <time>2020-07-10T12:36:16Z</time>
      </trkpt>
      <trkpt lat="47.82652" lon="-3.50529">
        <ele>46.99</ele>
        <time>2020-07-10T12:36:17Z</time>
      </trkpt>
      <trkpt lat="47.82652" lon="-3.50537">
        <ele>46.87</ele>
        <time>2020-07-10T12:36:18Z</time>
      </trkpt>
      <trkpt lat="47.8265" lon="-3.50546">
        <ele>46.7</ele>
        <time>2020-07-10T12:36:19Z</time>
      </trkpt>
      <trkpt lat="47.82649" lon="-3.50554">
        <ele>46.48</ele>
        <time>2020-07-10T12:36:20Z</time>
      </trkpt>
      <trkpt lat="47.82647" lon="-3.50562">
        <ele>46.29</ele>
        <time>2020-07-10T12:36:21Z</time>
      </trkpt>
      <trkpt lat="47.82644" lon="-3.5057">
        <ele>46.14</ele>
        <time>2020-07-10T12:36:22Z</time>
      </trkpt>
      <trkpt lat="47.82644" lon="-3.5058">
        <ele>46.06</ele>
        <time>2020-07-10T12:36:23Z</time>
      </trkpt>
      <trkpt lat="47.82641" lon="-3.50587">
        <ele>46.02</ele>
        <time>2020-07-10T12:36:24Z</time>
      </trkpt>
      <trkpt lat="47.82639" lon="-3.50594">
        <ele>46</ele>
        <time>2020-07-10T12:36:25Z</time>
      </trkpt>
      <trkpt lat="47.82636" lon="-3.50601">
        <ele>45.91</ele>
        <time>2020-07-10T12:36:26Z</time>
      </trkpt>
      <trkpt lat="47.82632" lon="-3.50608">
        <ele>45.81</ele>
        <time>2020-07-10T12:36:27Z</time>
      </trkpt>
      <trkpt lat="47.82629" lon="-3.50615">
        <ele>45.62</ele>
        <time>2020-07-10T12:36:28Z</time>
      </trkpt>
      <trkpt lat="47.82626" lon="-3.50622">
        <ele>45.41</ele>
        <time>2020-07-10T12:36:29Z</time>
      </trkpt>
      <trkpt lat="47.82623" lon="-3.5063">
        <ele>45.21</ele>
        <time>2020-07-10T12:36:30Z</time>
      </trkpt>
      <trkpt lat="47.8262" lon="-3.50638">
        <ele>45.07</ele>
        <time>2020-07-10T12:36:31Z</time>
      </trkpt>
      <trkpt lat="47.82618" lon="-3.50646">
        <ele>45.07</ele>
        <time>2020-07-10T12:36:32Z</time>
      </trkpt>
      <trkpt lat="47.82616" lon="-3.50653">
        <ele>45.08</ele>
        <time>2020-07-10T12:36:33Z</time>
      </trkpt>
      <trkpt lat="47.82614" lon="-3.50662">
        <ele>45.09</ele>
        <time>2020-07-10T12:36:34Z</time>
      </trkpt>
      <trkpt lat="47.82613" lon="-3.5067">
        <ele>45.08</ele>
        <time>2020-07-10T12:36:35Z</time>
      </trkpt>
      <trkpt lat="47.82612" lon="-3.50678">
        <ele>45.04</ele>
        <time>2020-07-10T12:36:36Z</time>
      </trkpt>
      <trkpt lat="47.8261" lon="-3.50686">
        <ele>45.01</ele>
        <time>2020-07-10T12:36:37Z</time>
      </trkpt>
      <trkpt lat="47.82609" lon="-3.50694">
        <ele>45</ele>
        <time>2020-07-10T12:36:38Z</time>
      </trkpt>
      <trkpt lat="47.82607" lon="-3.50702">
        <ele>45.16</ele>
        <time>2020-07-10T12:36:39Z</time>
      </trkpt>
      <trkpt lat="47.82606" lon="-3.5071">
        <ele>45.36</ele>
        <time>2020-07-10T12:36:40Z</time>
      </trkpt>
      <trkpt lat="47.82604" lon="-3.50718">
        <ele>45.55</ele>
        <time>2020-07-10T12:36:41Z</time>
      </trkpt>
      <trkpt lat="47.82603" lon="-3.50725">
        <ele>45.63</ele>
        <time>2020-07-10T12:36:42Z</time>
      </trkpt>
      <trkpt lat="47.82602" lon="-3.50733">
        <ele>45.57</ele>
        <time>2020-07-10T12:36:43Z</time>
      </trkpt>
      <trkpt lat="47.82601" lon="-3.50741">
        <ele>45.49</ele>
        <time>2020-07-10T12:36:44Z</time>
      </trkpt>
      <trkpt lat="47.826" lon="-3.50749">
        <ele>45.43</ele>
        <time>2020-07-10T12:36:45Z</time>
      </trkpt>
      <trkpt lat="47.82599" lon="-3.50758">
        <ele>45.43</ele>
        <time>2020-07-10T12:36:46Z</time>
      </trkpt>
      <trkpt lat="47.82599" lon="-3.50767">
        <ele>45.44</ele>
        <time>2020-07-10T12:36:47Z</time>
      </trkpt>
      <trkpt lat="47.82597" lon="-3.50775">
        <ele>45.47</ele>
        <time>2020-07-10T12:36:48Z</time>
      </trkpt>
      <trkpt lat="47.82596" lon="-3.50783">
        <ele>45.57</ele>
        <time>2020-07-10T12:36:49Z</time>
      </trkpt>
      <trkpt lat="47.82595" lon="-3.50791">
        <ele>45.71</ele>
        <time>2020-07-10T12:36:50Z</time>
      </trkpt>
      <trkpt lat="47.82593" lon="-3.50798">
        <ele>45.85</ele>
        <time>2020-07-10T12:36:51Z</time>
      </trkpt>
      <trkpt lat="47.82592" lon="-3.50807">
        <ele>45.94</ele>
        <time>2020-07-10T12:36:52Z</time>
      </trkpt>
      <trkpt lat="47.82591" lon="-3.50815">
        <ele>45.92</ele>
        <time>2020-07-10T12:36:53Z</time>
      </trkpt>
      <trkpt lat="47.82589" lon="-3.50824">
        <ele>45.89</ele>
        <time>2020-07-10T12:36:54Z</time>
      </trkpt>
      <trkpt lat="47.82587" lon="-3.50833">
        <ele>45.87</ele>
        <time>2020-07-10T12:36:55Z</time>
      </trkpt>
      <trkpt lat="47.82586" lon="-3.50841">
        <ele>45.71</ele>
        <time>2020-07-10T12:36:56Z</time>
      </trkpt>
      <trkpt lat="47.82585" lon="-3.5085">
        <ele>45.47</ele>
        <time>2020-07-10T12:36:57Z</time>
      </trkpt>
      <trkpt lat="47.82583" lon="-3.50859">
        <ele>45.19</ele>
        <time>2020-07-10T12:36:58Z</time>
      </trkpt>
      <trkpt lat="47.82582" lon="-3.50867">
        <ele>45.1</ele>
        <time>2020-07-10T12:36:59Z</time>
      </trkpt>
      <trkpt lat="47.8258" lon="-3.50876">
        <ele>45.11</ele>
        <time>2020-07-10T12:37:00Z</time>
      </trkpt>
      <trkpt lat="47.82578" lon="-3.50884">
        <ele>45.15</ele>
        <time>2020-07-10T12:37:01Z</time>
      </trkpt>
      <trkpt lat="47.82577" lon="-3.50893">
        <ele>45.21</ele>
        <time>2020-07-10T12:37:02Z</time>
      </trkpt>
      <trkpt lat="47.82575" lon="-3.50902">
        <ele>45.26</ele>
        <time>2020-07-10T12:37:03Z</time>
      </trkpt>
      <trkpt lat="47.82574" lon="-3.5091">
        <ele>45.32</ele>
        <time>2020-07-10T12:37:04Z</time>
      </trkpt>
      <trkpt lat="47.82572" lon="-3.50919">
        <ele>45.38</ele>
        <time>2020-07-10T12:37:05Z</time>
      </trkpt>
      <trkpt lat="47.82571" lon="-3.50928">
        <ele>45.43</ele>
        <time>2020-07-10T12:37:06Z</time>
      </trkpt>
      <trkpt lat="47.82569" lon="-3.50937">
        <ele>45.48</ele>
        <time>2020-07-10T12:37:07Z</time>
      </trkpt>
      <trkpt lat="47.82568" lon="-3.50946">
        <ele>45.5</ele>
        <time>2020-07-10T12:37:08Z</time>
      </trkpt>
      <trkpt lat="47.82567" lon="-3.50954">
        <ele>45.32</ele>
        <time>2020-07-10T12:37:09Z</time>
      </trkpt>
      <trkpt lat="47.82566" lon="-3.50963">
        <ele>45.07</ele>
        <time>2020-07-10T12:37:10Z</time>
      </trkpt>
      <trkpt lat="47.82565" lon="-3.50972">
        <ele>44.8</ele>
        <time>2020-07-10T12:37:11Z</time>
      </trkpt>
      <trkpt lat="47.82563" lon="-3.50981">
        <ele>44.68</ele>
        <time>2020-07-10T12:37:12Z</time>
      </trkpt>
      <trkpt lat="47.82562" lon="-3.5099">
        <ele>44.65</ele>
        <time>2020-07-10T12:37:13Z</time>
      </trkpt>
      <trkpt lat="47.82559" lon="-3.50999">
        <ele>44.71</ele>
        <time>2020-07-10T12:37:14Z</time>
      </trkpt>
      <trkpt lat="47.82556" lon="-3.51007">
        <ele>44.54</ele>
        <time>2020-07-10T12:37:15Z</time>
      </trkpt>
      <trkpt lat="47.82551" lon="-3.51014">
        <ele>44.42</ele>
        <time>2020-07-10T12:37:16Z</time>
      </trkpt>
      <trkpt lat="47.82545" lon="-3.51018">
        <ele>44.48</ele>
        <time>2020-07-10T12:37:17Z</time>
      </trkpt>
      <trkpt lat="47.8254" lon="-3.51022">
        <ele>44.75</ele>
        <time>2020-07-10T12:37:18Z</time>
      </trkpt>
      <trkpt lat="47.82534" lon="-3.51024">
        <ele>45.2</ele>
        <time>2020-07-10T12:37:19Z</time>
      </trkpt>
      <trkpt lat="47.82528" lon="-3.51026">
        <ele>45.73</ele>
        <time>2020-07-10T12:37:20Z</time>
      </trkpt>
      <trkpt lat="47.82523" lon="-3.51027">
        <ele>45.92</ele>
        <time>2020-07-10T12:37:21Z</time>
      </trkpt>
      <trkpt lat="47.82518" lon="-3.51027">
        <ele>45.98</ele>
        <time>2020-07-10T12:37:22Z</time>
      </trkpt>
      <trkpt lat="47.82513" lon="-3.51028">
        <ele>45.99</ele>
        <time>2020-07-10T12:37:23Z</time>
      </trkpt>
      <trkpt lat="47.82508" lon="-3.51028">
        <ele>45.98</ele>
        <time>2020-07-10T12:37:24Z</time>
      </trkpt>
      <trkpt lat="47.82503" lon="-3.51029">
        <ele>45.96</ele>
        <time>2020-07-10T12:37:25Z</time>
      </trkpt>
      <trkpt lat="47.82498" lon="-3.51029">
        <ele>45.89</ele>
        <time>2020-07-10T12:37:26Z</time>
      </trkpt>
      <trkpt lat="47.82492" lon="-3.51029">
        <ele>45.73</ele>
        <time>2020-07-10T12:37:27Z</time>
      </trkpt>
      <trkpt lat="47.82486" lon="-3.5103">
        <ele>45.53</ele>
        <time>2020-07-10T12:37:28Z</time>
      </trkpt>
      <trkpt lat="47.82481" lon="-3.51031">
        <ele>45.3</ele>
        <time>2020-07-10T12:37:29Z</time>
      </trkpt>
      <trkpt lat="47.82476" lon="-3.51033">
        <ele>45.05</ele>
        <time>2020-07-10T12:37:30Z</time>
      </trkpt>
      <trkpt lat="47.8247" lon="-3.51036">
        <ele>44.78</ele>
        <time>2020-07-10T12:37:31Z</time>
      </trkpt>
      <trkpt lat="47.82465" lon="-3.51039">
        <ele>44.53</ele>
        <time>2020-07-10T12:37:32Z</time>
      </trkpt>
      <trkpt lat="47.8246" lon="-3.51044">
        <ele>44.32</ele>
        <time>2020-07-10T12:37:33Z</time>
      </trkpt>
      <trkpt lat="47.82455" lon="-3.51049">
        <ele>44.16</ele>
        <time>2020-07-10T12:37:34Z</time>
      </trkpt>
      <trkpt lat="47.8245" lon="-3.51055">
        <ele>44.05</ele>
        <time>2020-07-10T12:37:35Z</time>
      </trkpt>
      <trkpt lat="47.82446" lon="-3.51062">
        <ele>43.69</ele>
        <time>2020-07-10T12:37:36Z</time>
      </trkpt>
      <trkpt lat="47.82442" lon="-3.5107">
        <ele>43.13</ele>
        <time>2020-07-10T12:37:37Z</time>
      </trkpt>
      <trkpt lat="47.82438" lon="-3.51079">
        <ele>42.52</ele>
        <time>2020-07-10T12:37:38Z</time>
      </trkpt>
      <trkpt lat="47.82434" lon="-3.51089">
        <ele>42.01</ele>
        <time>2020-07-10T12:37:39Z</time>
      </trkpt>
      <trkpt lat="47.8243" lon="-3.511">
        <ele>41.57</ele>
        <time>2020-07-10T12:37:40Z</time>
      </trkpt>
      <trkpt lat="47.82427" lon="-3.51112">
        <ele>41.16</ele>
        <time>2020-07-10T12:37:41Z</time>
      </trkpt>
      <trkpt lat="47.82424" lon="-3.51123">
        <ele>40.76</ele>
        <time>2020-07-10T12:37:42Z</time>
      </trkpt>
      <trkpt lat="47.82421" lon="-3.51134">
        <ele>40.35</ele>
        <time>2020-07-10T12:37:43Z</time>
      </trkpt>
      <trkpt lat="47.82419" lon="-3.51145">
        <ele>39.96</ele>
        <time>2020-07-10T12:37:44Z</time>
      </trkpt>
      <trkpt lat="47.82416" lon="-3.51155">
        <ele>39.57</ele>
        <time>2020-07-10T12:37:45Z</time>
      </trkpt>
      <trkpt lat="47.82413" lon="-3.51166">
        <ele>39.18</ele>
        <time>2020-07-10T12:37:46Z</time>
      </trkpt>
      <trkpt lat="47.8241" lon="-3.51178">
        <ele>38.77</ele>
        <time>2020-07-10T12:37:47Z</time>
      </trkpt>
      <trkpt lat="47.82407" lon="-3.51189">
        <ele>38.36</ele>
        <time>2020-07-10T12:37:48Z</time>
      </trkpt>
      <trkpt lat="47.82405" lon="-3.51201">
        <ele>37.76</ele>
        <time>2020-07-10T12:37:49Z</time>
      </trkpt>
      <trkpt lat="47.82402" lon="-3.51213">
        <ele>36.99</ele>
        <time>2020-07-10T12:37:50Z</time>
      </trkpt>
      <trkpt lat="47.82398" lon="-3.51225">
        <ele>36.22</ele>
        <time>2020-07-10T12:37:51Z</time>
      </trkpt>
      <trkpt lat="47.82395" lon="-3.51238">
        <ele>35.66</ele>
        <time>2020-07-10T12:37:52Z</time>
      </trkpt>
      <trkpt lat="47.82393" lon="-3.51251">
        <ele>35.17</ele>
        <time>2020-07-10T12:37:53Z</time>
      </trkpt>
      <trkpt lat="47.82391" lon="-3.51265">
        <ele>34.67</ele>
        <time>2020-07-10T12:37:54Z</time>
      </trkpt>
      <trkpt lat="47.82389" lon="-3.51279">
        <ele>34.2</ele>
        <time>2020-07-10T12:37:55Z</time>
      </trkpt>
      <trkpt lat="47.82388" lon="-3.51291">
        <ele>34.06</ele>
        <time>2020-07-10T12:37:56Z</time>
      </trkpt>
      <trkpt lat="47.82387" lon="-3.51302">
        <ele>34.02</ele>
        <time>2020-07-10T12:37:57Z</time>
      </trkpt>
      <trkpt lat="47.82385" lon="-3.51312">
        <ele>34.17</ele>
        <time>2020-07-10T12:37:58Z</time>
      </trkpt>
      <trkpt lat="47.82383" lon="-3.51321">
        <ele>34.45</ele>
        <time>2020-07-10T12:37:59Z</time>
      </trkpt>
      <trkpt lat="47.82381" lon="-3.51329">
        <ele>34.74</ele>
        <time>2020-07-10T12:38:00Z</time>
      </trkpt>
      <trkpt lat="47.8238" lon="-3.51337">
        <ele>34.95</ele>
        <time>2020-07-10T12:38:01Z</time>
      </trkpt>
      <trkpt lat="47.82378" lon="-3.51344">
        <ele>35.09</ele>
        <time>2020-07-10T12:38:02Z</time>
      </trkpt>
      <trkpt lat="47.82377" lon="-3.51351">
        <ele>35.23</ele>
        <time>2020-07-10T12:38:03Z</time>
      </trkpt>
      <trkpt lat="47.82376" lon="-3.51357">
        <ele>35.34</ele>
        <time>2020-07-10T12:38:04Z</time>
      </trkpt>
      <trkpt lat="47.82374" lon="-3.51363">
        <ele>35.54</ele>
        <time>2020-07-10T12:38:05Z</time>
      </trkpt>
      <trkpt lat="47.82371" lon="-3.51369">
        <ele>35.81</ele>
        <time>2020-07-10T12:38:06Z</time>
      </trkpt>
      <trkpt lat="47.8237" lon="-3.51376">
        <ele>36.1</ele>
        <time>2020-07-10T12:38:07Z</time>
      </trkpt>
      <trkpt lat="47.82368" lon="-3.51382">
        <ele>36.37</ele>
        <time>2020-07-10T12:38:08Z</time>
      </trkpt>
      <trkpt lat="47.82367" lon="-3.51388">
        <ele>36.63</ele>
        <time>2020-07-10T12:38:09Z</time>
      </trkpt>
      <trkpt lat="47.82367" lon="-3.51394">
        <ele>36.91</ele>
        <time>2020-07-10T12:38:10Z</time>
      </trkpt>
      <trkpt lat="47.82366" lon="-3.514">
        <ele>37.19</ele>
        <time>2020-07-10T12:38:11Z</time>
      </trkpt>
      <trkpt lat="47.82365" lon="-3.51407">
        <ele>37.47</ele>
        <time>2020-07-10T12:38:12Z</time>
      </trkpt>
      <trkpt lat="47.82364" lon="-3.51413">
        <ele>37.74</ele>
        <time>2020-07-10T12:38:13Z</time>
      </trkpt>
      <trkpt lat="47.82364" lon="-3.51419">
        <ele>37.99</ele>
        <time>2020-07-10T12:38:14Z</time>
      </trkpt>
      <trkpt lat="47.82362" lon="-3.51425">
        <ele>38.22</ele>
        <time>2020-07-10T12:38:15Z</time>
      </trkpt>
      <trkpt lat="47.82361" lon="-3.51432">
        <ele>38.46</ele>
        <time>2020-07-10T12:38:16Z</time>
      </trkpt>
      <trkpt lat="47.82361" lon="-3.51439">
        <ele>38.71</ele>
        <time>2020-07-10T12:38:17Z</time>
      </trkpt>
      <trkpt lat="47.8236" lon="-3.51446">
        <ele>38.96</ele>
        <time>2020-07-10T12:38:18Z</time>
      </trkpt>
      <trkpt lat="47.8236" lon="-3.51454">
        <ele>39.23</ele>
        <time>2020-07-10T12:38:19Z</time>
      </trkpt>
      <trkpt lat="47.82359" lon="-3.51461">
        <ele>39.51</ele>
        <time>2020-07-10T12:38:20Z</time>
      </trkpt>
      <trkpt lat="47.82359" lon="-3.51468">
        <ele>39.79</ele>
        <time>2020-07-10T12:38:21Z</time>
      </trkpt>
      <trkpt lat="47.82358" lon="-3.51474">
        <ele>40.07</ele>
        <time>2020-07-10T12:38:22Z</time>
      </trkpt>
      <trkpt lat="47.82357" lon="-3.51481">
        <ele>40.32</ele>
        <time>2020-07-10T12:38:23Z</time>
      </trkpt>
      <trkpt lat="47.82356" lon="-3.51487">
        <ele>40.54</ele>
        <time>2020-07-10T12:38:24Z</time>
      </trkpt>
      <trkpt lat="47.82355" lon="-3.51494">
        <ele>40.73</ele>
        <time>2020-07-10T12:38:25Z</time>
      </trkpt>
      <trkpt lat="47.82354" lon="-3.515">
        <ele>40.92</ele>
        <time>2020-07-10T12:38:26Z</time>
      </trkpt>
      <trkpt lat="47.82354" lon="-3.51506">
        <ele>41.02</ele>
        <time>2020-07-10T12:38:27Z</time>
      </trkpt>
      <trkpt lat="47.82353" lon="-3.51513">
        <ele>41.1</ele>
        <time>2020-07-10T12:38:28Z</time>
      </trkpt>
      <trkpt lat="47.82352" lon="-3.51519">
        <ele>41.18</ele>
        <time>2020-07-10T12:38:29Z</time>
      </trkpt>
      <trkpt lat="47.82352" lon="-3.51526">
        <ele>41.27</ele>
        <time>2020-07-10T12:38:30Z</time>
      </trkpt>
      <trkpt lat="47.82351" lon="-3.51533">
        <ele>41.48</ele>
        <time>2020-07-10T12:38:31Z</time>
      </trkpt>
      <trkpt lat="47.82351" lon="-3.5154">
        <ele>41.78</ele>
        <time>2020-07-10T12:38:32Z</time>
      </trkpt>
      <trkpt lat="47.82351" lon="-3.51546">
        <ele>42.09</ele>
        <time>2020-07-10T12:38:33Z</time>
      </trkpt>
      <trkpt lat="47.82351" lon="-3.51554">
        <ele>42.41</ele>
        <time>2020-07-10T12:38:34Z</time>
      </trkpt>
      <trkpt lat="47.8235" lon="-3.51561">
        <ele>42.6</ele>
        <time>2020-07-10T12:38:35Z</time>
      </trkpt>
      <trkpt lat="47.8235" lon="-3.51568">
        <ele>42.72</ele>
        <time>2020-07-10T12:38:36Z</time>
      </trkpt>
      <trkpt lat="47.82349" lon="-3.51574">
        <ele>42.82</ele>
        <time>2020-07-10T12:38:37Z</time>
      </trkpt>
      <trkpt lat="47.82348" lon="-3.51581">
        <ele>42.92</ele>
        <time>2020-07-10T12:38:38Z</time>
      </trkpt>
      <trkpt lat="47.82348" lon="-3.51587">
        <ele>43.06</ele>
        <time>2020-07-10T12:38:39Z</time>
      </trkpt>
      <trkpt lat="47.82348" lon="-3.51593">
        <ele>43.26</ele>
        <time>2020-07-10T12:38:40Z</time>
      </trkpt>
      <trkpt lat="47.82347" lon="-3.51599">
        <ele>43.48</ele>
        <time>2020-07-10T12:38:41Z</time>
      </trkpt>
      <trkpt lat="47.82347" lon="-3.51605">
        <ele>43.7</ele>
        <time>2020-07-10T12:38:42Z</time>
      </trkpt>
      <trkpt lat="47.82346" lon="-3.51612">
        <ele>43.92</ele>
        <time>2020-07-10T12:38:43Z</time>
      </trkpt>
      <trkpt lat="47.82346" lon="-3.51619">
        <ele>44.06</ele>
        <time>2020-07-10T12:38:44Z</time>
      </trkpt>
      <trkpt lat="47.82345" lon="-3.51625">
        <ele>44.17</ele>
        <time>2020-07-10T12:38:45Z</time>
      </trkpt>
      <trkpt lat="47.82345" lon="-3.51631">
        <ele>44.26</ele>
        <time>2020-07-10T12:38:46Z</time>
      </trkpt>
      <trkpt lat="47.82345" lon="-3.51638">
        <ele>44.35</ele>
        <time>2020-07-10T12:38:47Z</time>
      </trkpt>
      <trkpt lat="47.82344" lon="-3.51644">
        <ele>44.51</ele>
        <time>2020-07-10T12:38:48Z</time>
      </trkpt>
      <trkpt lat="47.82344" lon="-3.5165">
        <ele>44.7</ele>
        <time>2020-07-10T12:38:49Z</time>
      </trkpt>
      <trkpt lat="47.82344" lon="-3.51657">
        <ele>44.92</ele>
        <time>2020-07-10T12:38:50Z</time>
      </trkpt>
      <trkpt lat="47.82343" lon="-3.51663">
        <ele>45.14</ele>
        <time>2020-07-10T12:38:51Z</time>
      </trkpt>
      <trkpt lat="47.82343" lon="-3.5167">
        <ele>45.37</ele>
        <time>2020-07-10T12:38:52Z</time>
      </trkpt>
      <trkpt lat="47.82343" lon="-3.51677">
        <ele>45.59</ele>
        <time>2020-07-10T12:38:53Z</time>
      </trkpt>
      <trkpt lat="47.82342" lon="-3.51683">
        <ele>45.81</ele>
        <time>2020-07-10T12:38:54Z</time>
      </trkpt>
      <trkpt lat="47.82342" lon="-3.5169">
        <ele>46.05</ele>
        <time>2020-07-10T12:38:55Z</time>
      </trkpt>
      <trkpt lat="47.82342" lon="-3.51697">
        <ele>46.25</ele>
        <time>2020-07-10T12:38:56Z</time>
      </trkpt>
      <trkpt lat="47.82342" lon="-3.51704">
        <ele>46.35</ele>
        <time>2020-07-10T12:38:57Z</time>
      </trkpt>
      <trkpt lat="47.82341" lon="-3.51711">
        <ele>46.43</ele>
        <time>2020-07-10T12:38:58Z</time>
      </trkpt>
      <trkpt lat="47.82342" lon="-3.51717">
        <ele>46.51</ele>
        <time>2020-07-10T12:38:59Z</time>
      </trkpt>
      <trkpt lat="47.82342" lon="-3.51724">
        <ele>46.58</ele>
        <time>2020-07-10T12:39:00Z</time>
      </trkpt>
      <trkpt lat="47.82342" lon="-3.5173">
        <ele>46.6</ele>
        <time>2020-07-10T12:39:01Z</time>
      </trkpt>
      <trkpt lat="47.82341" lon="-3.51736">
        <ele>46.59</ele>
        <time>2020-07-10T12:39:02Z</time>
      </trkpt>
      <trkpt lat="47.82341" lon="-3.51742">
        <ele>46.59</ele>
        <time>2020-07-10T12:39:03Z</time>
      </trkpt>
      <trkpt lat="47.82341" lon="-3.51747">
        <ele>46.58</ele>
        <time>2020-07-10T12:39:04Z</time>
      </trkpt>
      <trkpt lat="47.82341" lon="-3.51752">
        <ele>46.59</ele>
        <time>2020-07-10T12:39:05Z</time>
      </trkpt>
      <trkpt lat="47.82339" lon="-3.51756">
        <ele>46.64</ele>
        <time>2020-07-10T12:39:06Z</time>
      </trkpt>
      <trkpt lat="47.82336" lon="-3.51761">
        <ele>46.63</ele>
        <time>2020-07-10T12:39:07Z</time>
      </trkpt>
      <trkpt lat="47.82333" lon="-3.51764">
        <ele>46.52</ele>
        <time>2020-07-10T12:39:08Z</time>
      </trkpt>
      <trkpt lat="47.82328" lon="-3.51767">
        <ele>46.34</ele>
        <time>2020-07-10T12:39:09Z</time>
      </trkpt>
      <trkpt lat="47.82324" lon="-3.51767">
        <ele>46.05</ele>
        <time>2020-07-10T12:39:10Z</time>
      </trkpt>
      <trkpt lat="47.82319" lon="-3.51766">
        <ele>45.73</ele>
        <time>2020-07-10T12:39:11Z</time>
      </trkpt>
      <trkpt lat="47.82315" lon="-3.51764">
        <ele>45.32</ele>
        <time>2020-07-10T12:39:12Z</time>
      </trkpt>
      <trkpt lat="47.82309" lon="-3.51762">
        <ele>44.88</ele>
        <time>2020-07-10T12:39:13Z</time>
      </trkpt>
      <trkpt lat="47.82304" lon="-3.51762">
        <ele>44.5</ele>
        <time>2020-07-10T12:39:14Z</time>
      </trkpt>
      <trkpt lat="47.82299" lon="-3.51765">
        <ele>44.28</ele>
        <time>2020-07-10T12:39:15Z</time>
      </trkpt>
      <trkpt lat="47.82296" lon="-3.5177">
        <ele>44.29</ele>
        <time>2020-07-10T12:39:16Z</time>
      </trkpt>
      <trkpt lat="47.82294" lon="-3.51777">
        <ele>44.47</ele>
        <time>2020-07-10T12:39:17Z</time>
      </trkpt>
      <trkpt lat="47.82293" lon="-3.51785">
        <ele>44.64</ele>
        <time>2020-07-10T12:39:18Z</time>
      </trkpt>
      <trkpt lat="47.82293" lon="-3.51793">
        <ele>44.78</ele>
        <time>2020-07-10T12:39:19Z</time>
      </trkpt>
      <trkpt lat="47.82292" lon="-3.51801">
        <ele>44.9</ele>
        <time>2020-07-10T12:39:20Z</time>
      </trkpt>
      <trkpt lat="47.82292" lon="-3.51808">
        <ele>45.05</ele>
        <time>2020-07-10T12:39:21Z</time>
      </trkpt>
      <trkpt lat="47.82292" lon="-3.51815">
        <ele>45.26</ele>
        <time>2020-07-10T12:39:22Z</time>
      </trkpt>
      <trkpt lat="47.82292" lon="-3.51822">
        <ele>45.51</ele>
        <time>2020-07-10T12:39:23Z</time>
      </trkpt>
      <trkpt lat="47.82291" lon="-3.5183">
        <ele>45.73</ele>
        <time>2020-07-10T12:39:24Z</time>
      </trkpt>
      <trkpt lat="47.82291" lon="-3.51837">
        <ele>45.91</ele>
        <time>2020-07-10T12:39:25Z</time>
      </trkpt>
      <trkpt lat="47.8229" lon="-3.51845">
        <ele>46.03</ele>
        <time>2020-07-10T12:39:26Z</time>
      </trkpt>
      <trkpt lat="47.8229" lon="-3.51852">
        <ele>46.12</ele>
        <time>2020-07-10T12:39:27Z</time>
      </trkpt>
      <trkpt lat="47.82289" lon="-3.5186">
        <ele>46.21</ele>
        <time>2020-07-10T12:39:28Z</time>
      </trkpt>
      <trkpt lat="47.82289" lon="-3.51867">
        <ele>46.35</ele>
        <time>2020-07-10T12:39:29Z</time>
      </trkpt>
      <trkpt lat="47.82288" lon="-3.51874">
        <ele>46.53</ele>
        <time>2020-07-10T12:39:30Z</time>
      </trkpt>
      <trkpt lat="47.82288" lon="-3.51881">
        <ele>46.71</ele>
        <time>2020-07-10T12:39:31Z</time>
      </trkpt>
      <trkpt lat="47.82287" lon="-3.51888">
        <ele>46.88</ele>
        <time>2020-07-10T12:39:32Z</time>
      </trkpt>
      <trkpt lat="47.82286" lon="-3.51895">
        <ele>47.07</ele>
        <time>2020-07-10T12:39:33Z</time>
      </trkpt>
      <trkpt lat="47.82286" lon="-3.51902">
        <ele>47.32</ele>
        <time>2020-07-10T12:39:34Z</time>
      </trkpt>
      <trkpt lat="47.82287" lon="-3.5191">
        <ele>47.59</ele>
        <time>2020-07-10T12:39:35Z</time>
      </trkpt>
      <trkpt lat="47.82286" lon="-3.51917">
        <ele>47.84</ele>
        <time>2020-07-10T12:39:36Z</time>
      </trkpt>
      <trkpt lat="47.82287" lon="-3.51925">
        <ele>47.94</ele>
        <time>2020-07-10T12:39:37Z</time>
      </trkpt>
      <trkpt lat="47.82286" lon="-3.51933">
        <ele>47.94</ele>
        <time>2020-07-10T12:39:38Z</time>
      </trkpt>
      <trkpt lat="47.82286" lon="-3.5194">
        <ele>47.89</ele>
        <time>2020-07-10T12:39:39Z</time>
      </trkpt>
      <trkpt lat="47.82285" lon="-3.51948">
        <ele>47.8</ele>
        <time>2020-07-10T12:39:40Z</time>
      </trkpt>
      <trkpt lat="47.82285" lon="-3.51956">
        <ele>47.69</ele>
        <time>2020-07-10T12:39:41Z</time>
      </trkpt>
      <trkpt lat="47.82284" lon="-3.51963">
        <ele>47.59</ele>
        <time>2020-07-10T12:39:42Z</time>
      </trkpt>
      <trkpt lat="47.82285" lon="-3.51971">
        <ele>47.52</ele>
        <time>2020-07-10T12:39:43Z</time>
      </trkpt>
      <trkpt lat="47.82284" lon="-3.51979">
        <ele>47.48</ele>
        <time>2020-07-10T12:39:44Z</time>
      </trkpt>
      <trkpt lat="47.82284" lon="-3.51987">
        <ele>47.46</ele>
        <time>2020-07-10T12:39:45Z</time>
      </trkpt>
      <trkpt lat="47.82283" lon="-3.51995">
        <ele>47.43</ele>
        <time>2020-07-10T12:39:46Z</time>
      </trkpt>
      <trkpt lat="47.82283" lon="-3.52003">
        <ele>47.39</ele>
        <time>2020-07-10T12:39:47Z</time>
      </trkpt>
      <trkpt lat="47.82283" lon="-3.52011">
        <ele>47.36</ele>
        <time>2020-07-10T12:39:48Z</time>
      </trkpt>
      <trkpt lat="47.82282" lon="-3.52019">
        <ele>47.32</ele>
        <time>2020-07-10T12:39:49Z</time>
      </trkpt>
      <trkpt lat="47.82282" lon="-3.52026">
        <ele>47.3</ele>
        <time>2020-07-10T12:39:50Z</time>
      </trkpt>
      <trkpt lat="47.82282" lon="-3.52033">
        <ele>47.29</ele>
        <time>2020-07-10T12:39:51Z</time>
      </trkpt>
      <trkpt lat="47.82281" lon="-3.52041">
        <ele>47.27</ele>
        <time>2020-07-10T12:39:52Z</time>
      </trkpt>
      <trkpt lat="47.82281" lon="-3.52049">
        <ele>47.26</ele>
        <time>2020-07-10T12:39:53Z</time>
      </trkpt>
      <trkpt lat="47.82282" lon="-3.52056">
        <ele>47.28</ele>
        <time>2020-07-10T12:39:54Z</time>
      </trkpt>
      <trkpt lat="47.82283" lon="-3.52064">
        <ele>47.14</ele>
        <time>2020-07-10T12:39:55Z</time>
      </trkpt>
      <trkpt lat="47.82284" lon="-3.52071">
        <ele>46.98</ele>
        <time>2020-07-10T12:39:56Z</time>
      </trkpt>
      <trkpt lat="47.82286" lon="-3.52077">
        <ele>46.87</ele>
        <time>2020-07-10T12:39:57Z</time>
      </trkpt>
      <trkpt lat="47.82288" lon="-3.52084">
        <ele>46.74</ele>
        <time>2020-07-10T12:39:58Z</time>
      </trkpt>
      <trkpt lat="47.82289" lon="-3.52091">
        <ele>46.69</ele>
        <time>2020-07-10T12:39:59Z</time>
      </trkpt>
      <trkpt lat="47.82291" lon="-3.52099">
        <ele>46.69</ele>
        <time>2020-07-10T12:40:00Z</time>
      </trkpt>
      <trkpt lat="47.82293" lon="-3.52106">
        <ele>46.75</ele>
        <time>2020-07-10T12:40:01Z</time>
      </trkpt>
      <trkpt lat="47.82296" lon="-3.52113">
        <ele>46.82</ele>
        <time>2020-07-10T12:40:02Z</time>
      </trkpt>
      <trkpt lat="47.82298" lon="-3.5212">
        <ele>46.88</ele>
        <time>2020-07-10T12:40:03Z</time>
      </trkpt>
      <trkpt lat="47.82301" lon="-3.52127">
        <ele>46.92</ele>
        <time>2020-07-10T12:40:04Z</time>
      </trkpt>
      <trkpt lat="47.82303" lon="-3.52134">
        <ele>46.92</ele>
        <time>2020-07-10T12:40:05Z</time>
      </trkpt>
      <trkpt lat="47.82305" lon="-3.52142">
        <ele>46.97</ele>
        <time>2020-07-10T12:40:06Z</time>
      </trkpt>
      <trkpt lat="47.82308" lon="-3.5215">
        <ele>47.16</ele>
        <time>2020-07-10T12:40:07Z</time>
      </trkpt>
      <trkpt lat="47.82309" lon="-3.52158">
        <ele>47.41</ele>
        <time>2020-07-10T12:40:08Z</time>
      </trkpt>
      <trkpt lat="47.82312" lon="-3.52165">
        <ele>47.72</ele>
        <time>2020-07-10T12:40:09Z</time>
      </trkpt>
      <trkpt lat="47.82313" lon="-3.52173">
        <ele>47.85</ele>
        <time>2020-07-10T12:40:10Z</time>
      </trkpt>
      <trkpt lat="47.82315" lon="-3.5218">
        <ele>47.92</ele>
        <time>2020-07-10T12:40:11Z</time>
      </trkpt>
      <trkpt lat="47.82318" lon="-3.52188">
        <ele>47.96</ele>
        <time>2020-07-10T12:40:12Z</time>
      </trkpt>
      <trkpt lat="47.82319" lon="-3.52196">
        <ele>47.93</ele>
        <time>2020-07-10T12:40:13Z</time>
      </trkpt>
      <trkpt lat="47.82322" lon="-3.52203">
        <ele>47.74</ele>
        <time>2020-07-10T12:40:14Z</time>
      </trkpt>
      <trkpt lat="47.82324" lon="-3.52211">
        <ele>47.5</ele>
        <time>2020-07-10T12:40:15Z</time>
      </trkpt>
      <trkpt lat="47.82326" lon="-3.52218">
        <ele>47.29</ele>
        <time>2020-07-10T12:40:16Z</time>
      </trkpt>
      <trkpt lat="47.82328" lon="-3.52226">
        <ele>47.12</ele>
        <time>2020-07-10T12:40:17Z</time>
      </trkpt>
      <trkpt lat="47.8233" lon="-3.52234">
        <ele>47.1</ele>
        <time>2020-07-10T12:40:18Z</time>
      </trkpt>
      <trkpt lat="47.82332" lon="-3.52241">
        <ele>47.1</ele>
        <time>2020-07-10T12:40:19Z</time>
      </trkpt>
      <trkpt lat="47.82334" lon="-3.52249">
        <ele>47.1</ele>
        <time>2020-07-10T12:40:20Z</time>
      </trkpt>
      <trkpt lat="47.82336" lon="-3.52257">
        <ele>46.94</ele>
        <time>2020-07-10T12:40:21Z</time>
      </trkpt>
      <trkpt lat="47.82338" lon="-3.52265">
        <ele>46.7</ele>
        <time>2020-07-10T12:40:22Z</time>
      </trkpt>
      <trkpt lat="47.82341" lon="-3.52272">
        <ele>46.43</ele>
        <time>2020-07-10T12:40:23Z</time>
      </trkpt>
      <trkpt lat="47.82344" lon="-3.5228">
        <ele>46.22</ele>
        <time>2020-07-10T12:40:24Z</time>
      </trkpt>
      <trkpt lat="47.82346" lon="-3.52288">
        <ele>46.31</ele>
        <time>2020-07-10T12:40:25Z</time>
      </trkpt>
      <trkpt lat="47.82348" lon="-3.52296">
        <ele>46.49</ele>
        <time>2020-07-10T12:40:26Z</time>
      </trkpt>
      <trkpt lat="47.8235" lon="-3.52304">
        <ele>46.72</ele>
        <time>2020-07-10T12:40:27Z</time>
      </trkpt>
      <trkpt lat="47.82353" lon="-3.52311">
        <ele>46.7</ele>
        <time>2020-07-10T12:40:28Z</time>
      </trkpt>
      <trkpt lat="47.82356" lon="-3.52319">
        <ele>46.52</ele>
        <time>2020-07-10T12:40:29Z</time>
      </trkpt>
      <trkpt lat="47.82359" lon="-3.52327">
        <ele>46.31</ele>
        <time>2020-07-10T12:40:30Z</time>
      </trkpt>
      <trkpt lat="47.82362" lon="-3.52335">
        <ele>46.13</ele>
        <time>2020-07-10T12:40:31Z</time>
      </trkpt>
      <trkpt lat="47.82366" lon="-3.52342">
        <ele>46.11</ele>
        <time>2020-07-10T12:40:32Z</time>
      </trkpt>
      <trkpt lat="47.8237" lon="-3.52349">
        <ele>46.18</ele>
        <time>2020-07-10T12:40:33Z</time>
      </trkpt>
      <trkpt lat="47.82373" lon="-3.52357">
        <ele>46.29</ele>
        <time>2020-07-10T12:40:34Z</time>
      </trkpt>
      <trkpt lat="47.82377" lon="-3.52365">
        <ele>46.49</ele>
        <time>2020-07-10T12:40:35Z</time>
      </trkpt>
      <trkpt lat="47.8238" lon="-3.52373">
        <ele>46.67</ele>
        <time>2020-07-10T12:40:36Z</time>
      </trkpt>
      <trkpt lat="47.82384" lon="-3.52381">
        <ele>46.8</ele>
        <time>2020-07-10T12:40:37Z</time>
      </trkpt>
      <trkpt lat="47.82387" lon="-3.52389">
        <ele>46.84</ele>
        <time>2020-07-10T12:40:38Z</time>
      </trkpt>
      <trkpt lat="47.8239" lon="-3.52398">
        <ele>47.02</ele>
        <time>2020-07-10T12:40:39Z</time>
      </trkpt>
      <trkpt lat="47.82393" lon="-3.52406">
        <ele>47.21</ele>
        <time>2020-07-10T12:40:40Z</time>
      </trkpt>
      <trkpt lat="47.82396" lon="-3.52414">
        <ele>47.4</ele>
        <time>2020-07-10T12:40:41Z</time>
      </trkpt>
      <trkpt lat="47.82398" lon="-3.52422">
        <ele>47.54</ele>
        <time>2020-07-10T12:40:42Z</time>
      </trkpt>
      <trkpt lat="47.82401" lon="-3.5243">
        <ele>47.61</ele>
        <time>2020-07-10T12:40:43Z</time>
      </trkpt>
      <trkpt lat="47.82403" lon="-3.52438">
        <ele>47.62</ele>
        <time>2020-07-10T12:40:44Z</time>
      </trkpt>
      <trkpt lat="47.82405" lon="-3.52446">
        <ele>47.57</ele>
        <time>2020-07-10T12:40:45Z</time>
      </trkpt>
      <trkpt lat="47.82407" lon="-3.52454">
        <ele>47.47</ele>
        <time>2020-07-10T12:40:46Z</time>
      </trkpt>
      <trkpt lat="47.8241" lon="-3.52462">
        <ele>47.34</ele>
        <time>2020-07-10T12:40:47Z</time>
      </trkpt>
      <trkpt lat="47.82413" lon="-3.5247">
        <ele>47.16</ele>
        <time>2020-07-10T12:40:48Z</time>
      </trkpt>
      <trkpt lat="47.82415" lon="-3.52477">
        <ele>47.04</ele>
        <time>2020-07-10T12:40:49Z</time>
      </trkpt>
      <trkpt lat="47.82417" lon="-3.52485">
        <ele>47.01</ele>
        <time>2020-07-10T12:40:50Z</time>
      </trkpt>
      <trkpt lat="47.82419" lon="-3.52493">
        <ele>47.08</ele>
        <time>2020-07-10T12:40:51Z</time>
      </trkpt>
      <trkpt lat="47.82422" lon="-3.52501">
        <ele>47.13</ele>
        <time>2020-07-10T12:40:52Z</time>
      </trkpt>
      <trkpt lat="47.82424" lon="-3.52509">
        <ele>47.08</ele>
        <time>2020-07-10T12:40:53Z</time>
      </trkpt>
      <trkpt lat="47.82428" lon="-3.52517">
        <ele>47.04</ele>
        <time>2020-07-10T12:40:54Z</time>
      </trkpt>
      <trkpt lat="47.8243" lon="-3.52525">
        <ele>47.04</ele>
        <time>2020-07-10T12:40:55Z</time>
      </trkpt>
      <trkpt lat="47.82434" lon="-3.52532">
        <ele>47.11</ele>
        <time>2020-07-10T12:40:56Z</time>
      </trkpt>
      <trkpt lat="47.82437" lon="-3.52541">
        <ele>47.1</ele>
        <time>2020-07-10T12:40:57Z</time>
      </trkpt>
      <trkpt lat="47.82439" lon="-3.52548">
        <ele>47.04</ele>
        <time>2020-07-10T12:40:58Z</time>
      </trkpt>
      <trkpt lat="47.82442" lon="-3.52555">
        <ele>46.95</ele>
        <time>2020-07-10T12:40:59Z</time>
      </trkpt>
      <trkpt lat="47.82445" lon="-3.52562">
        <ele>47.01</ele>
        <time>2020-07-10T12:41:00Z</time>
      </trkpt>
      <trkpt lat="47.82448" lon="-3.52569">
        <ele>47.17</ele>
        <time>2020-07-10T12:41:01Z</time>
      </trkpt>
      <trkpt lat="47.82451" lon="-3.52576">
        <ele>47.39</ele>
        <time>2020-07-10T12:41:02Z</time>
      </trkpt>
      <trkpt lat="47.82455" lon="-3.52583">
        <ele>47.63</ele>
        <time>2020-07-10T12:41:03Z</time>
      </trkpt>
      <trkpt lat="47.82458" lon="-3.5259">
        <ele>47.8</ele>
        <time>2020-07-10T12:41:04Z</time>
      </trkpt>
      <trkpt lat="47.82462" lon="-3.52597">
        <ele>47.91</ele>
        <time>2020-07-10T12:41:05Z</time>
      </trkpt>
      <trkpt lat="47.82466" lon="-3.52604">
        <ele>47.95</ele>
        <time>2020-07-10T12:41:06Z</time>
      </trkpt>
      <trkpt lat="47.8247" lon="-3.5261">
        <ele>47.94</ele>
        <time>2020-07-10T12:41:07Z</time>
      </trkpt>
      <trkpt lat="47.82474" lon="-3.52617">
        <ele>48.02</ele>
        <time>2020-07-10T12:41:08Z</time>
      </trkpt>
      <trkpt lat="47.82477" lon="-3.52623">
        <ele>48.14</ele>
        <time>2020-07-10T12:41:09Z</time>
      </trkpt>
      <trkpt lat="47.82481" lon="-3.5263">
        <ele>48.27</ele>
        <time>2020-07-10T12:41:10Z</time>
      </trkpt>
      <trkpt lat="47.82484" lon="-3.52636">
        <ele>48.39</ele>
        <time>2020-07-10T12:41:11Z</time>
      </trkpt>
      <trkpt lat="47.82488" lon="-3.52643">
        <ele>48.34</ele>
        <time>2020-07-10T12:41:12Z</time>
      </trkpt>
      <trkpt lat="47.82492" lon="-3.52649">
        <ele>48.16</ele>
        <time>2020-07-10T12:41:13Z</time>
      </trkpt>
      <trkpt lat="47.82496" lon="-3.52655">
        <ele>47.88</ele>
        <time>2020-07-10T12:41:14Z</time>
      </trkpt>
      <trkpt lat="47.82499" lon="-3.52662">
        <ele>47.48</ele>
        <time>2020-07-10T12:41:15Z</time>
      </trkpt>
      <trkpt lat="47.82502" lon="-3.5267">
        <ele>47.13</ele>
        <time>2020-07-10T12:41:16Z</time>
      </trkpt>
      <trkpt lat="47.82506" lon="-3.52677">
        <ele>46.98</ele>
        <time>2020-07-10T12:41:17Z</time>
      </trkpt>
      <trkpt lat="47.82509" lon="-3.52685">
        <ele>46.91</ele>
        <time>2020-07-10T12:41:18Z</time>
      </trkpt>
      <trkpt lat="47.82512" lon="-3.52692">
        <ele>46.9</ele>
        <time>2020-07-10T12:41:19Z</time>
      </trkpt>
      <trkpt lat="47.82515" lon="-3.527">
        <ele>46.81</ele>
        <time>2020-07-10T12:41:20Z</time>
      </trkpt>
      <trkpt lat="47.82519" lon="-3.52708">
        <ele>46.61</ele>
        <time>2020-07-10T12:41:21Z</time>
      </trkpt>
      <trkpt lat="47.82522" lon="-3.52716">
        <ele>46.33</ele>
        <time>2020-07-10T12:41:22Z</time>
      </trkpt>
      <trkpt lat="47.82526" lon="-3.52724">
        <ele>46.01</ele>
        <time>2020-07-10T12:41:23Z</time>
      </trkpt>
      <trkpt lat="47.82529" lon="-3.52731">
        <ele>45.81</ele>
        <time>2020-07-10T12:41:24Z</time>
      </trkpt>
      <trkpt lat="47.82534" lon="-3.5274">
        <ele>45.65</ele>
        <time>2020-07-10T12:41:25Z</time>
      </trkpt>
      <trkpt lat="47.82537" lon="-3.52747">
        <ele>45.5</ele>
        <time>2020-07-10T12:41:26Z</time>
      </trkpt>
      <trkpt lat="47.82542" lon="-3.52755">
        <ele>45.22</ele>
        <time>2020-07-10T12:41:27Z</time>
      </trkpt>
      <trkpt lat="47.82545" lon="-3.52764">
        <ele>44.8</ele>
        <time>2020-07-10T12:41:28Z</time>
      </trkpt>
      <trkpt lat="47.82549" lon="-3.52772">
        <ele>44.35</ele>
        <time>2020-07-10T12:41:29Z</time>
      </trkpt>
      <trkpt lat="47.82553" lon="-3.52781">
        <ele>43.97</ele>
        <time>2020-07-10T12:41:30Z</time>
      </trkpt>
      <trkpt lat="47.82557" lon="-3.52789">
        <ele>43.75</ele>
        <time>2020-07-10T12:41:31Z</time>
      </trkpt>
      <trkpt lat="47.82561" lon="-3.52798">
        <ele>43.56</ele>
        <time>2020-07-10T12:41:32Z</time>
      </trkpt>
      <trkpt lat="47.82565" lon="-3.52807">
        <ele>43.39</ele>
        <time>2020-07-10T12:41:33Z</time>
      </trkpt>
      <trkpt lat="47.82569" lon="-3.52815">
        <ele>43.22</ele>
        <time>2020-07-10T12:41:34Z</time>
      </trkpt>
      <trkpt lat="47.82574" lon="-3.52824">
        <ele>43.06</ele>
        <time>2020-07-10T12:41:35Z</time>
      </trkpt>
      <trkpt lat="47.82578" lon="-3.52833">
        <ele>42.9</ele>
        <time>2020-07-10T12:41:36Z</time>
      </trkpt>
      <trkpt lat="47.82582" lon="-3.52841">
        <ele>42.74</ele>
        <time>2020-07-10T12:41:37Z</time>
      </trkpt>
      <trkpt lat="47.82586" lon="-3.5285">
        <ele>42.63</ele>
        <time>2020-07-10T12:41:38Z</time>
      </trkpt>
      <trkpt lat="47.82591" lon="-3.52858">
        <ele>42.62</ele>
        <time>2020-07-10T12:41:39Z</time>
      </trkpt>
      <trkpt lat="47.82596" lon="-3.52865">
        <ele>42.82</ele>
        <time>2020-07-10T12:41:40Z</time>
      </trkpt>
      <trkpt lat="47.82601" lon="-3.52872">
        <ele>43.12</ele>
        <time>2020-07-10T12:41:41Z</time>
      </trkpt>
      <trkpt lat="47.82604" lon="-3.5288">
        <ele>43.39</ele>
        <time>2020-07-10T12:41:42Z</time>
      </trkpt>
      <trkpt lat="47.82608" lon="-3.52888">
        <ele>43.65</ele>
        <time>2020-07-10T12:41:43Z</time>
      </trkpt>
      <trkpt lat="47.82611" lon="-3.52894">
        <ele>43.77</ele>
        <time>2020-07-10T12:41:44Z</time>
      </trkpt>
      <trkpt lat="47.82615" lon="-3.52902">
        <ele>43.86</ele>
        <time>2020-07-10T12:41:45Z</time>
      </trkpt>
      <trkpt lat="47.82618" lon="-3.52909">
        <ele>43.95</ele>
        <time>2020-07-10T12:41:46Z</time>
      </trkpt>
      <trkpt lat="47.82621" lon="-3.52917">
        <ele>44.01</ele>
        <time>2020-07-10T12:41:47Z</time>
      </trkpt>
      <trkpt lat="47.82624" lon="-3.52924">
        <ele>44.27</ele>
        <time>2020-07-10T12:41:48Z</time>
      </trkpt>
      <trkpt lat="47.82627" lon="-3.52931">
        <ele>44.52</ele>
        <time>2020-07-10T12:41:49Z</time>
      </trkpt>
      <trkpt lat="47.8263" lon="-3.52938">
        <ele>44.69</ele>
        <time>2020-07-10T12:41:50Z</time>
      </trkpt>
      <trkpt lat="47.82633" lon="-3.52945">
        <ele>44.75</ele>
        <time>2020-07-10T12:41:51Z</time>
      </trkpt>
      <trkpt lat="47.82637" lon="-3.52954">
        <ele>44.85</ele>
        <time>2020-07-10T12:41:52Z</time>
      </trkpt>
      <trkpt lat="47.82639" lon="-3.52962">
        <ele>44.96</ele>
        <time>2020-07-10T12:41:53Z</time>
      </trkpt>
      <trkpt lat="47.82641" lon="-3.5297">
        <ele>45.09</ele>
        <time>2020-07-10T12:41:54Z</time>
      </trkpt>
      <trkpt lat="47.82642" lon="-3.52977">
        <ele>45.18</ele>
        <time>2020-07-10T12:41:55Z</time>
      </trkpt>
      <trkpt lat="47.82643" lon="-3.52984">
        <ele>45.25</ele>
        <time>2020-07-10T12:41:56Z</time>
      </trkpt>
      <trkpt lat="47.82643" lon="-3.52992">
        <ele>45.31</ele>
        <time>2020-07-10T12:41:57Z</time>
      </trkpt>
      <trkpt lat="47.82644" lon="-3.52999">
        <ele>45.33</ele>
        <time>2020-07-10T12:41:58Z</time>
      </trkpt>
      <trkpt lat="47.82643" lon="-3.53007">
        <ele>45.46</ele>
        <time>2020-07-10T12:41:59Z</time>
      </trkpt>
      <trkpt lat="47.82643" lon="-3.53014">
        <ele>45.65</ele>
        <time>2020-07-10T12:42:00Z</time>
      </trkpt>
      <trkpt lat="47.82643" lon="-3.53021">
        <ele>45.86</ele>
        <time>2020-07-10T12:42:01Z</time>
      </trkpt>
      <trkpt lat="47.82643" lon="-3.53029">
        <ele>46.08</ele>
        <time>2020-07-10T12:42:02Z</time>
      </trkpt>
      <trkpt lat="47.82643" lon="-3.53036">
        <ele>46.31</ele>
        <time>2020-07-10T12:42:03Z</time>
      </trkpt>
      <trkpt lat="47.82642" lon="-3.53043">
        <ele>46.56</ele>
        <time>2020-07-10T12:42:04Z</time>
      </trkpt>
      <trkpt lat="47.82641" lon="-3.53051">
        <ele>46.81</ele>
        <time>2020-07-10T12:42:05Z</time>
      </trkpt>
      <trkpt lat="47.8264" lon="-3.53058">
        <ele>47.06</ele>
        <time>2020-07-10T12:42:06Z</time>
      </trkpt>
      <trkpt lat="47.8264" lon="-3.53066">
        <ele>47.29</ele>
        <time>2020-07-10T12:42:07Z</time>
      </trkpt>
      <trkpt lat="47.82639" lon="-3.53073">
        <ele>47.51</ele>
        <time>2020-07-10T12:42:08Z</time>
      </trkpt>
      <trkpt lat="47.82637" lon="-3.5308">
        <ele>47.7</ele>
        <time>2020-07-10T12:42:09Z</time>
      </trkpt>
      <trkpt lat="47.82637" lon="-3.53087">
        <ele>47.81</ele>
        <time>2020-07-10T12:42:10Z</time>
      </trkpt>
      <trkpt lat="47.82636" lon="-3.53095">
        <ele>47.8</ele>
        <time>2020-07-10T12:42:11Z</time>
      </trkpt>
      <trkpt lat="47.82636" lon="-3.53102">
        <ele>47.77</ele>
        <time>2020-07-10T12:42:12Z</time>
      </trkpt>
      <trkpt lat="47.82635" lon="-3.5311">
        <ele>47.72</ele>
        <time>2020-07-10T12:42:13Z</time>
      </trkpt>
      <trkpt lat="47.82634" lon="-3.53118">
        <ele>47.67</ele>
        <time>2020-07-10T12:42:14Z</time>
      </trkpt>
      <trkpt lat="47.82634" lon="-3.53125">
        <ele>47.63</ele>
        <time>2020-07-10T12:42:15Z</time>
      </trkpt>
      <trkpt lat="47.82633" lon="-3.53132">
        <ele>47.59</ele>
        <time>2020-07-10T12:42:16Z</time>
      </trkpt>
      <trkpt lat="47.82632" lon="-3.5314">
        <ele>47.55</ele>
        <time>2020-07-10T12:42:17Z</time>
      </trkpt>
      <trkpt lat="47.82632" lon="-3.53148">
        <ele>47.51</ele>
        <time>2020-07-10T12:42:18Z</time>
      </trkpt>
      <trkpt lat="47.82631" lon="-3.53156">
        <ele>47.45</ele>
        <time>2020-07-10T12:42:19Z</time>
      </trkpt>
      <trkpt lat="47.8263" lon="-3.53164">
        <ele>47.41</ele>
        <time>2020-07-10T12:42:20Z</time>
      </trkpt>
      <trkpt lat="47.82629" lon="-3.53172">
        <ele>47.34</ele>
        <time>2020-07-10T12:42:21Z</time>
      </trkpt>
      <trkpt lat="47.82628" lon="-3.53181">
        <ele>47.27</ele>
        <time>2020-07-10T12:42:22Z</time>
      </trkpt>
      <trkpt lat="47.82627" lon="-3.53189">
        <ele>47.2</ele>
        <time>2020-07-10T12:42:23Z</time>
      </trkpt>
      <trkpt lat="47.82626" lon="-3.53197">
        <ele>47.08</ele>
        <time>2020-07-10T12:42:24Z</time>
      </trkpt>
      <trkpt lat="47.82625" lon="-3.53206">
        <ele>46.9</ele>
        <time>2020-07-10T12:42:25Z</time>
      </trkpt>
      <trkpt lat="47.82624" lon="-3.53214">
        <ele>46.7</ele>
        <time>2020-07-10T12:42:26Z</time>
      </trkpt>
      <trkpt lat="47.82624" lon="-3.53223">
        <ele>46.52</ele>
        <time>2020-07-10T12:42:27Z</time>
      </trkpt>
      <trkpt lat="47.82623" lon="-3.53231">
        <ele>46.32</ele>
        <time>2020-07-10T12:42:28Z</time>
      </trkpt>
      <trkpt lat="47.82622" lon="-3.5324">
        <ele>46.1</ele>
        <time>2020-07-10T12:42:29Z</time>
      </trkpt>
      <trkpt lat="47.82621" lon="-3.53249">
        <ele>45.85</ele>
        <time>2020-07-10T12:42:30Z</time>
      </trkpt>
      <trkpt lat="47.8262" lon="-3.53257">
        <ele>45.54</ele>
        <time>2020-07-10T12:42:31Z</time>
      </trkpt>
      <trkpt lat="47.82619" lon="-3.53267">
        <ele>45.16</ele>
        <time>2020-07-10T12:42:32Z</time>
      </trkpt>
      <trkpt lat="47.82618" lon="-3.53276">
        <ele>44.75</ele>
        <time>2020-07-10T12:42:33Z</time>
      </trkpt>
      <trkpt lat="47.82617" lon="-3.53285">
        <ele>44.33</ele>
        <time>2020-07-10T12:42:34Z</time>
      </trkpt>
      <trkpt lat="47.82616" lon="-3.53295">
        <ele>43.91</ele>
        <time>2020-07-10T12:42:35Z</time>
      </trkpt>
      <trkpt lat="47.82615" lon="-3.53304">
        <ele>43.5</ele>
        <time>2020-07-10T12:42:36Z</time>
      </trkpt>
      <trkpt lat="47.82614" lon="-3.53313">
        <ele>43.08</ele>
        <time>2020-07-10T12:42:37Z</time>
      </trkpt>
      <trkpt lat="47.82612" lon="-3.53322">
        <ele>42.65</ele>
        <time>2020-07-10T12:42:38Z</time>
      </trkpt>
      <trkpt lat="47.82611" lon="-3.53332">
        <ele>42.22</ele>
        <time>2020-07-10T12:42:39Z</time>
      </trkpt>
      <trkpt lat="47.8261" lon="-3.53341">
        <ele>41.82</ele>
        <time>2020-07-10T12:42:40Z</time>
      </trkpt>
      <trkpt lat="47.82609" lon="-3.53351">
        <ele>41.37</ele>
        <time>2020-07-10T12:42:41Z</time>
      </trkpt>
      <trkpt lat="47.82607" lon="-3.53362">
        <ele>40.8</ele>
        <time>2020-07-10T12:42:42Z</time>
      </trkpt>
      <trkpt lat="47.82605" lon="-3.53372">
        <ele>40.24</ele>
        <time>2020-07-10T12:42:43Z</time>
      </trkpt>
      <trkpt lat="47.82604" lon="-3.53383">
        <ele>39.69</ele>
        <time>2020-07-10T12:42:44Z</time>
      </trkpt>
      <trkpt lat="47.82603" lon="-3.53393">
        <ele>39.27</ele>
        <time>2020-07-10T12:42:45Z</time>
      </trkpt>
      <trkpt lat="47.82601" lon="-3.53403">
        <ele>39.05</ele>
        <time>2020-07-10T12:42:46Z</time>
      </trkpt>
      <trkpt lat="47.826" lon="-3.53412">
        <ele>38.9</ele>
        <time>2020-07-10T12:42:47Z</time>
      </trkpt>
      <trkpt lat="47.826" lon="-3.53422">
        <ele>38.79</ele>
        <time>2020-07-10T12:42:48Z</time>
      </trkpt>
      <trkpt lat="47.82599" lon="-3.53432">
        <ele>38.73</ele>
        <time>2020-07-10T12:42:49Z</time>
      </trkpt>
      <trkpt lat="47.82598" lon="-3.53442">
        <ele>38.65</ele>
        <time>2020-07-10T12:42:50Z</time>
      </trkpt>
      <trkpt lat="47.82597" lon="-3.53452">
        <ele>38.67</ele>
        <time>2020-07-10T12:42:51Z</time>
      </trkpt>
      <trkpt lat="47.82597" lon="-3.53462">
        <ele>38.73</ele>
        <time>2020-07-10T12:42:52Z</time>
      </trkpt>
      <trkpt lat="47.82596" lon="-3.53471">
        <ele>38.75</ele>
        <time>2020-07-10T12:42:53Z</time>
      </trkpt>
      <trkpt lat="47.82594" lon="-3.53481">
        <ele>38.78</ele>
        <time>2020-07-10T12:42:54Z</time>
      </trkpt>
      <trkpt lat="47.82594" lon="-3.5349">
        <ele>38.89</ele>
        <time>2020-07-10T12:42:55Z</time>
      </trkpt>
      <trkpt lat="47.82594" lon="-3.53499">
        <ele>39.03</ele>
        <time>2020-07-10T12:42:56Z</time>
      </trkpt>
      <trkpt lat="47.82593" lon="-3.53509">
        <ele>39.25</ele>
        <time>2020-07-10T12:42:57Z</time>
      </trkpt>
      <trkpt lat="47.82592" lon="-3.53519">
        <ele>39.49</ele>
        <time>2020-07-10T12:42:58Z</time>
      </trkpt>
      <trkpt lat="47.82591" lon="-3.53527">
        <ele>39.7</ele>
        <time>2020-07-10T12:42:59Z</time>
      </trkpt>
      <trkpt lat="47.8259" lon="-3.53537">
        <ele>39.69</ele>
        <time>2020-07-10T12:43:00Z</time>
      </trkpt>
      <trkpt lat="47.82589" lon="-3.53546">
        <ele>39.62</ele>
        <time>2020-07-10T12:43:01Z</time>
      </trkpt>
      <trkpt lat="47.82588" lon="-3.53555">
        <ele>39.54</ele>
        <time>2020-07-10T12:43:02Z</time>
      </trkpt>
      <trkpt lat="47.82587" lon="-3.53565">
        <ele>39.45</ele>
        <time>2020-07-10T12:43:03Z</time>
      </trkpt>
      <trkpt lat="47.82585" lon="-3.53573">
        <ele>39.26</ele>
        <time>2020-07-10T12:43:04Z</time>
      </trkpt>
      <trkpt lat="47.82582" lon="-3.53581">
        <ele>38.99</ele>
        <time>2020-07-10T12:43:05Z</time>
      </trkpt>
      <trkpt lat="47.82578" lon="-3.53588">
        <ele>38.83</ele>
        <time>2020-07-10T12:43:06Z</time>
      </trkpt>
      <trkpt lat="47.82572" lon="-3.53594">
        <ele>38.64</ele>
        <time>2020-07-10T12:43:07Z</time>
      </trkpt>
      <trkpt lat="47.82567" lon="-3.53598">
        <ele>38.41</ele>
        <time>2020-07-10T12:43:08Z</time>
      </trkpt>
      <trkpt lat="47.82561" lon="-3.53601">
        <ele>38.13</ele>
        <time>2020-07-10T12:43:09Z</time>
      </trkpt>
      <trkpt lat="47.82555" lon="-3.53602">
        <ele>37.79</ele>
        <time>2020-07-10T12:43:10Z</time>
      </trkpt>
      <trkpt lat="47.82549" lon="-3.53604">
        <ele>37.44</ele>
        <time>2020-07-10T12:43:11Z</time>
      </trkpt>
      <trkpt lat="47.82545" lon="-3.53604">
        <ele>37.11</ele>
        <time>2020-07-10T12:43:12Z</time>
      </trkpt>
      <trkpt lat="47.82542" lon="-3.53604">
        <ele>36.86</ele>
        <time>2020-07-10T12:43:13Z</time>
      </trkpt>
      <trkpt lat="47.8254" lon="-3.53604">
        <ele>36.71</ele>
        <time>2020-07-10T12:43:14Z</time>
      </trkpt>
      <trkpt lat="47.82539" lon="-3.53604">
        <ele>36.62</ele>
        <time>2020-07-10T12:43:15Z</time>
      </trkpt>
      <trkpt lat="47.82539" lon="-3.53603">
        <ele>36.57</ele>
        <time>2020-07-10T12:43:16Z</time>
      </trkpt>
      <trkpt lat="47.82539" lon="-3.53602">
        <ele>36.53</ele>
        <time>2020-07-10T12:43:17Z</time>
      </trkpt>
      <trkpt lat="47.8254" lon="-3.53602">
        <ele>36.52</ele>
        <time>2020-07-10T12:43:18Z</time>
      </trkpt>
      <trkpt lat="47.8254" lon="-3.53602">
        <ele>36.52</ele>
        <time>2020-07-10T12:43:19Z</time>
      </trkpt>
      <trkpt lat="47.8254" lon="-3.53602">
        <ele>36.52</ele>
        <time>2020-07-10T12:43:20Z</time>
      </trkpt>
      <trkpt lat="47.8254" lon="-3.53602">
        <ele>36.52</ele>
        <time>2020-07-10T12:43:21Z</time>
      </trkpt>
      <trkpt lat="47.82545" lon="-3.53602">
        <ele>36.8</ele>
        <time>2020-07-10T12:43:22Z</time>
      </trkpt>
      <trkpt lat="47.82547" lon="-3.53602">
        <ele>36.97</ele>
        <time>2020-07-10T12:43:23Z</time>
      </trkpt>
      <trkpt lat="47.8255" lon="-3.53602">
        <ele>37.16</ele>
        <time>2020-07-10T12:43:24Z</time>
      </trkpt>
      <trkpt lat="47.82553" lon="-3.53602">
        <ele>37.37</ele>
        <time>2020-07-10T12:43:25Z</time>
      </trkpt>
      <trkpt lat="47.82556" lon="-3.53602">
        <ele>37.58</ele>
        <time>2020-07-10T12:43:26Z</time>
      </trkpt>
      <trkpt lat="47.82559" lon="-3.53602">
        <ele>37.83</ele>
        <time>2020-07-10T12:43:27Z</time>
      </trkpt>
      <trkpt lat="47.82562" lon="-3.53601">
        <ele>38.05</ele>
        <time>2020-07-10T12:43:28Z</time>
      </trkpt>
      <trkpt lat="47.82565" lon="-3.53601">
        <ele>38.26</ele>
        <time>2020-07-10T12:43:29Z</time>
      </trkpt>
      <trkpt lat="47.82568" lon="-3.536">
        <ele>38.45</ele>
        <time>2020-07-10T12:43:30Z</time>
      </trkpt>
      <trkpt lat="47.82571" lon="-3.53599">
        <ele>38.63</ele>
        <time>2020-07-10T12:43:31Z</time>
      </trkpt>
      <trkpt lat="47.82574" lon="-3.53597">
        <ele>38.76</ele>
        <time>2020-07-10T12:43:32Z</time>
      </trkpt>
      <trkpt lat="47.82577" lon="-3.53594">
        <ele>38.87</ele>
        <time>2020-07-10T12:43:33Z</time>
      </trkpt>
      <trkpt lat="47.8258" lon="-3.5359">
        <ele>38.95</ele>
        <time>2020-07-10T12:43:34Z</time>
      </trkpt>
      <trkpt lat="47.82581" lon="-3.53587">
        <ele>38.99</ele>
        <time>2020-07-10T12:43:35Z</time>
      </trkpt>
      <trkpt lat="47.82583" lon="-3.53584">
        <ele>39.01</ele>
        <time>2020-07-10T12:43:36Z</time>
      </trkpt>
      <trkpt lat="47.82585" lon="-3.53583">
        <ele>39.22</ele>
        <time>2020-07-10T12:43:37Z</time>
      </trkpt>
      <trkpt lat="47.82588" lon="-3.53582">
        <ele>39.58</ele>
        <time>2020-07-10T12:43:38Z</time>
      </trkpt>
      <trkpt lat="47.82591" lon="-3.53583">
        <ele>39.93</ele>
        <time>2020-07-10T12:43:39Z</time>
      </trkpt>
      <trkpt lat="47.82593" lon="-3.53586">
        <ele>40.26</ele>
        <time>2020-07-10T12:43:40Z</time>
      </trkpt>
      <trkpt lat="47.82594" lon="-3.53588">
        <ele>40.51</ele>
        <time>2020-07-10T12:43:41Z</time>
      </trkpt>
      <trkpt lat="47.82595" lon="-3.53591">
        <ele>40.76</ele>
        <time>2020-07-10T12:43:42Z</time>
      </trkpt>
      <trkpt lat="47.82597" lon="-3.53594">
        <ele>41</ele>
        <time>2020-07-10T12:43:43Z</time>
      </trkpt>
      <trkpt lat="47.82597" lon="-3.53598">
        <ele>41.2</ele>
        <time>2020-07-10T12:43:44Z</time>
      </trkpt>
      <trkpt lat="47.82598" lon="-3.53601">
        <ele>41.4</ele>
        <time>2020-07-10T12:43:45Z</time>
      </trkpt>
      <trkpt lat="47.82598" lon="-3.53606">
        <ele>41.51</ele>
        <time>2020-07-10T12:43:46Z</time>
      </trkpt>
      <trkpt lat="47.82598" lon="-3.5361">
        <ele>41.55</ele>
        <time>2020-07-10T12:43:47Z</time>
      </trkpt>
      <trkpt lat="47.82596" lon="-3.53614">
        <ele>41.38</ele>
        <time>2020-07-10T12:43:48Z</time>
      </trkpt>
      <trkpt lat="47.82594" lon="-3.53618">
        <ele>41.03</ele>
        <time>2020-07-10T12:43:49Z</time>
      </trkpt>
      <trkpt lat="47.82592" lon="-3.53623">
        <ele>40.66</ele>
        <time>2020-07-10T12:43:50Z</time>
      </trkpt>
      <trkpt lat="47.8259" lon="-3.53627">
        <ele>40.26</ele>
        <time>2020-07-10T12:43:51Z</time>
      </trkpt>
      <trkpt lat="47.82587" lon="-3.53633">
        <ele>39.84</ele>
        <time>2020-07-10T12:43:52Z</time>
      </trkpt>
      <trkpt lat="47.82585" lon="-3.53639">
        <ele>39.42</ele>
        <time>2020-07-10T12:43:53Z</time>
      </trkpt>
      <trkpt lat="47.82584" lon="-3.53644">
        <ele>39.01</ele>
        <time>2020-07-10T12:43:54Z</time>
      </trkpt>
      <trkpt lat="47.82582" lon="-3.53651">
        <ele>38.66</ele>
        <time>2020-07-10T12:43:55Z</time>
      </trkpt>
      <trkpt lat="47.82582" lon="-3.53657">
        <ele>38.36</ele>
        <time>2020-07-10T12:43:56Z</time>
      </trkpt>
      <trkpt lat="47.82581" lon="-3.53665">
        <ele>38.02</ele>
        <time>2020-07-10T12:43:57Z</time>
      </trkpt>
      <trkpt lat="47.8258" lon="-3.53671">
        <ele>37.73</ele>
        <time>2020-07-10T12:43:58Z</time>
      </trkpt>
      <trkpt lat="47.8258" lon="-3.53676">
        <ele>37.51</ele>
        <time>2020-07-10T12:43:59Z</time>
      </trkpt>
      <trkpt lat="47.8258" lon="-3.5368">
        <ele>37.34</ele>
        <time>2020-07-10T12:44:00Z</time>
      </trkpt>
      <trkpt lat="47.82581" lon="-3.53683">
        <ele>37.26</ele>
        <time>2020-07-10T12:44:01Z</time>
      </trkpt>
      <trkpt lat="47.82581" lon="-3.53686">
        <ele>37.17</ele>
        <time>2020-07-10T12:44:02Z</time>
      </trkpt>
      <trkpt lat="47.82581" lon="-3.53689">
        <ele>37.08</ele>
        <time>2020-07-10T12:44:03Z</time>
      </trkpt>
      <trkpt lat="47.82582" lon="-3.53693">
        <ele>36.99</ele>
        <time>2020-07-10T12:44:04Z</time>
      </trkpt>
      <trkpt lat="47.82582" lon="-3.53697">
        <ele>36.79</ele>
        <time>2020-07-10T12:44:05Z</time>
      </trkpt>
      <trkpt lat="47.82584" lon="-3.53703">
        <ele>36.52</ele>
        <time>2020-07-10T12:44:06Z</time>
      </trkpt>
      <trkpt lat="47.82585" lon="-3.53708">
        <ele>36.36</ele>
        <time>2020-07-10T12:44:07Z</time>
      </trkpt>
      <trkpt lat="47.82586" lon="-3.53712">
        <ele>36.18</ele>
        <time>2020-07-10T12:44:08Z</time>
      </trkpt>
      <trkpt lat="47.82587" lon="-3.53715">
        <ele>36.09</ele>
        <time>2020-07-10T12:44:09Z</time>
      </trkpt>
      <trkpt lat="47.82586" lon="-3.53719">
        <ele>35.8</ele>
        <time>2020-07-10T12:44:10Z</time>
      </trkpt>
      <trkpt lat="47.82586" lon="-3.53723">
        <ele>35.49</ele>
        <time>2020-07-10T12:44:11Z</time>
      </trkpt>
      <trkpt lat="47.82584" lon="-3.53729">
        <ele>35.08</ele>
        <time>2020-07-10T12:44:12Z</time>
      </trkpt>
      <trkpt lat="47.82583" lon="-3.53734">
        <ele>34.72</ele>
        <time>2020-07-10T12:44:13Z</time>
      </trkpt>
      <trkpt lat="47.82581" lon="-3.53738">
        <ele>34.4</ele>
        <time>2020-07-10T12:44:14Z</time>
      </trkpt>
      <trkpt lat="47.82578" lon="-3.53742">
        <ele>34.09</ele>
        <time>2020-07-10T12:44:15Z</time>
      </trkpt>
      <trkpt lat="47.82574" lon="-3.53748">
        <ele>33.65</ele>
        <time>2020-07-10T12:44:16Z</time>
      </trkpt>
      <trkpt lat="47.82572" lon="-3.53749">
        <ele>33.34</ele>
        <time>2020-07-10T12:44:17Z</time>
      </trkpt>
      <trkpt lat="47.82569" lon="-3.53751">
        <ele>33.08</ele>
        <time>2020-07-10T12:44:18Z</time>
      </trkpt>
      <trkpt lat="47.82567" lon="-3.53752">
        <ele>32.82</ele>
        <time>2020-07-10T12:44:19Z</time>
      </trkpt>
      <trkpt lat="47.82564" lon="-3.53753">
        <ele>32.56</ele>
        <time>2020-07-10T12:44:20Z</time>
      </trkpt>
      <trkpt lat="47.8256" lon="-3.53754">
        <ele>32.21</ele>
        <time>2020-07-10T12:44:21Z</time>
      </trkpt>
      <trkpt lat="47.82556" lon="-3.53756">
        <ele>31.78</ele>
        <time>2020-07-10T12:44:22Z</time>
      </trkpt>
      <trkpt lat="47.82552" lon="-3.53759">
        <ele>31.39</ele>
        <time>2020-07-10T12:44:23Z</time>
      </trkpt>
      <trkpt lat="47.82549" lon="-3.53763">
        <ele>31</ele>
        <time>2020-07-10T12:44:24Z</time>
      </trkpt>
      <trkpt lat="47.82548" lon="-3.53768">
        <ele>30.61</ele>
        <time>2020-07-10T12:44:25Z</time>
      </trkpt>
      <trkpt lat="47.82547" lon="-3.53773">
        <ele>30.22</ele>
        <time>2020-07-10T12:44:26Z</time>
      </trkpt>
      <trkpt lat="47.82546" lon="-3.53778">
        <ele>29.78</ele>
        <time>2020-07-10T12:44:27Z</time>
      </trkpt>
      <trkpt lat="47.82543" lon="-3.53784">
        <ele>28.8</ele>
        <time>2020-07-10T12:44:28Z</time>
      </trkpt>
      <trkpt lat="47.82541" lon="-3.5379">
        <ele>27.61</ele>
        <time>2020-07-10T12:44:29Z</time>
      </trkpt>
      <trkpt lat="47.82539" lon="-3.53797">
        <ele>26.31</ele>
        <time>2020-07-10T12:44:30Z</time>
      </trkpt>
      <trkpt lat="47.82538" lon="-3.53803">
        <ele>25.04</ele>
        <time>2020-07-10T12:44:31Z</time>
      </trkpt>
      <trkpt lat="47.82537" lon="-3.53807">
        <ele>24.14</ele>
        <time>2020-07-10T12:44:32Z</time>
      </trkpt>
      <trkpt lat="47.82536" lon="-3.53809">
        <ele>23.38</ele>
        <time>2020-07-10T12:44:33Z</time>
      </trkpt>
      <trkpt lat="47.82536" lon="-3.53812">
        <ele>22.57</ele>
        <time>2020-07-10T12:44:34Z</time>
      </trkpt>
      <trkpt lat="47.82535" lon="-3.53816">
        <ele>21.63</ele>
        <time>2020-07-10T12:44:35Z</time>
      </trkpt>
      <trkpt lat="47.82532" lon="-3.53821">
        <ele>20.59</ele>
        <time>2020-07-10T12:44:36Z</time>
      </trkpt>
      <trkpt lat="47.82531" lon="-3.53825">
        <ele>19.55</ele>
        <time>2020-07-10T12:44:37Z</time>
      </trkpt>
      <trkpt lat="47.82531" lon="-3.53829">
        <ele>18.53</ele>
        <time>2020-07-10T12:44:38Z</time>
      </trkpt>
      <trkpt lat="47.8253" lon="-3.53833">
        <ele>17.43</ele>
        <time>2020-07-10T12:44:39Z</time>
      </trkpt>
      <trkpt lat="47.8253" lon="-3.53838">
        <ele>16.32</ele>
        <time>2020-07-10T12:44:40Z</time>
      </trkpt>
      <trkpt lat="47.82528" lon="-3.53843">
        <ele>15.27</ele>
        <time>2020-07-10T12:44:41Z</time>
      </trkpt>
      <trkpt lat="47.82526" lon="-3.53848">
        <ele>14.18</ele>
        <time>2020-07-10T12:44:42Z</time>
      </trkpt>
      <trkpt lat="47.82525" lon="-3.53852">
        <ele>13.21</ele>
        <time>2020-07-10T12:44:43Z</time>
      </trkpt>
      <trkpt lat="47.82524" lon="-3.53856">
        <ele>12.32</ele>
        <time>2020-07-10T12:44:44Z</time>
      </trkpt>
      <trkpt lat="47.82523" lon="-3.5386">
        <ele>11.42</ele>
        <time>2020-07-10T12:44:45Z</time>
      </trkpt>
      <trkpt lat="47.82523" lon="-3.53865">
        <ele>10.46</ele>
        <time>2020-07-10T12:44:46Z</time>
      </trkpt>
      <trkpt lat="47.82522" lon="-3.53867">
        <ele>9.74</ele>
        <time>2020-07-10T12:44:47Z</time>
      </trkpt>
      <trkpt lat="47.8252" lon="-3.53869">
        <ele>9.17</ele>
        <time>2020-07-10T12:44:48Z</time>
      </trkpt>
      <trkpt lat="47.82516" lon="-3.5387">
        <ele>8.9</ele>
        <time>2020-07-10T12:44:49Z</time>
      </trkpt>
      <trkpt lat="47.82514" lon="-3.53869">
        <ele>8.77</ele>
        <time>2020-07-10T12:44:50Z</time>
      </trkpt>
      <trkpt lat="47.82511" lon="-3.5387">
        <ele>8.62</ele>
        <time>2020-07-10T12:44:51Z</time>
      </trkpt>
      <trkpt lat="47.82509" lon="-3.5387">
        <ele>8.49</ele>
        <time>2020-07-10T12:44:52Z</time>
      </trkpt>
      <trkpt lat="47.82506" lon="-3.5387">
        <ele>8.4</ele>
        <time>2020-07-10T12:44:53Z</time>
      </trkpt>
      <trkpt lat="47.82503" lon="-3.5387">
        <ele>8.24</ele>
        <time>2020-07-10T12:44:54Z</time>
      </trkpt>
      <trkpt lat="47.82499" lon="-3.5387">
        <ele>8.06</ele>
        <time>2020-07-10T12:44:55Z</time>
      </trkpt>
      <trkpt lat="47.82496" lon="-3.5387">
        <ele>8.02</ele>
        <time>2020-07-10T12:44:56Z</time>
      </trkpt>
      <trkpt lat="47.82492" lon="-3.53869">
        <ele>7.97</ele>
        <time>2020-07-10T12:44:57Z</time>
      </trkpt>
      <trkpt lat="47.82489" lon="-3.53869">
        <ele>7.88</ele>
        <time>2020-07-10T12:44:58Z</time>
      </trkpt>
      <trkpt lat="47.82485" lon="-3.53869">
        <ele>7.8</ele>
        <time>2020-07-10T12:44:59Z</time>
      </trkpt>
      <trkpt lat="47.82481" lon="-3.5387">
        <ele>7.6</ele>
        <time>2020-07-10T12:45:00Z</time>
      </trkpt>
      <trkpt lat="47.82478" lon="-3.5387">
        <ele>7.43</ele>
        <time>2020-07-10T12:45:01Z</time>
      </trkpt>
      <trkpt lat="47.82474" lon="-3.5387">
        <ele>7.25</ele>
        <time>2020-07-10T12:45:02Z</time>
      </trkpt>
      <trkpt lat="47.8247" lon="-3.5387">
        <ele>7.16</ele>
        <time>2020-07-10T12:45:03Z</time>
      </trkpt>
      <trkpt lat="47.82466" lon="-3.5387">
        <ele>7.09</ele>
        <time>2020-07-10T12:45:04Z</time>
      </trkpt>
      <trkpt lat="47.82462" lon="-3.53869">
        <ele>7.07</ele>
        <time>2020-07-10T12:45:05Z</time>
      </trkpt>
      <trkpt lat="47.82458" lon="-3.53869">
        <ele>7.05</ele>
        <time>2020-07-10T12:45:06Z</time>
      </trkpt>
      <trkpt lat="47.82454" lon="-3.53869">
        <ele>7.02</ele>
        <time>2020-07-10T12:45:07Z</time>
      </trkpt>
      <trkpt lat="47.8245" lon="-3.53868">
        <ele>7.05</ele>
        <time>2020-07-10T12:45:08Z</time>
      </trkpt>
      <trkpt lat="47.82446" lon="-3.53868">
        <ele>7.08</ele>
        <time>2020-07-10T12:45:09Z</time>
      </trkpt>
      <trkpt lat="47.82445" lon="-3.53867">
        <ele>7.12</ele>
        <time>2020-07-10T12:45:10Z</time>
      </trkpt>
      <trkpt lat="47.82443" lon="-3.53867">
        <ele>7.08</ele>
        <time>2020-07-10T12:45:11Z</time>
      </trkpt>
      <trkpt lat="47.82443" lon="-3.53867">
        <ele>7.09</ele>
        <time>2020-07-10T12:45:12Z</time>
      </trkpt>
      <trkpt lat="47.82443" lon="-3.53866">
        <ele>7.13</ele>
        <time>2020-07-10T12:45:13Z</time>
      </trkpt>
      <trkpt lat="47.82443" lon="-3.53866">
        <ele>7.14</ele>
        <time>2020-07-10T12:45:14Z</time>
      </trkpt>
      <trkpt lat="47.82443" lon="-3.53866">
        <ele>7.15</ele>
        <time>2020-07-10T12:45:15Z</time>
      </trkpt>
      <trkpt lat="47.82443" lon="-3.53866">
        <ele>7.15</ele>
        <time>2020-07-10T12:45:16Z</time>
      </trkpt>
      <trkpt lat="47.82443" lon="-3.53866">
        <ele>7.15</ele>
        <time>2020-07-10T12:45:17Z</time>
      </trkpt>
      <trkpt lat="47.82443" lon="-3.53866">
        <ele>7.15</ele>
        <time>2020-07-10T12:45:18Z</time>
      </trkpt>
      <trkpt lat="47.82443" lon="-3.53866">
        <ele>7.15</ele>
        <time>2020-07-10T12:45:19Z</time>
      </trkpt>
      <trkpt lat="47.82443" lon="-3.53866">
        <ele>7.15</ele>
        <time>2020-07-10T12:45:20Z</time>
      </trkpt>
      <trkpt lat="47.82443" lon="-3.53866">
        <ele>7.15</ele>
        <time>2020-07-10T12:45:21Z</time>
      </trkpt>
      <trkpt lat="47.82443" lon="-3.53866">
        <ele>7.15</ele>
        <time>2020-07-10T12:45:22Z</time>
      </trkpt>
      <trkpt lat="47.82443" lon="-3.53866">
        <ele>7.15</ele>
        <time>2020-07-10T12:45:23Z</time>
      </trkpt>
      <trkpt lat="47.82443" lon="-3.53866">
        <ele>7.15</ele>
        <time>2020-07-10T12:45:24Z</time>
      </trkpt>
      <trkpt lat="47.82443" lon="-3.53866">
        <ele>7.15</ele>
        <time>2020-07-10T12:45:25Z</time>
      </trkpt>
      <trkpt lat="47.82443" lon="-3.53866">
        <ele>7.15</ele>
        <time>2020-07-10T12:45:26Z</time>
      </trkpt>
      <trkpt lat="47.82443" lon="-3.53866">
        <ele>7.15</ele>
        <time>2020-07-10T12:45:27Z</time>
      </trkpt>
      <trkpt lat="47.82443" lon="-3.53866">
        <ele>7.15</ele>
        <time>2020-07-10T12:45:28Z</time>
      </trkpt>
      <trkpt lat="47.82443" lon="-3.53866">
        <ele>7.15</ele>
        <time>2020-07-10T12:45:29Z</time>
      </trkpt>
      <trkpt lat="47.82443" lon="-3.53866">
        <ele>7.15</ele>
        <time>2020-07-10T12:45:30Z</time>
      </trkpt>
      <trkpt lat="47.82443" lon="-3.53866">
        <ele>7.15</ele>
        <time>2020-07-10T12:45:31Z</time>
      </trkpt>
      <trkpt lat="47.82443" lon="-3.53866">
        <ele>7.15</ele>
        <time>2020-07-10T12:45:32Z</time>
      </trkpt>
      <trkpt lat="47.82443" lon="-3.53866">
        <ele>7.15</ele>
        <time>2020-07-10T12:45:33Z</time>
      </trkpt>
      <trkpt lat="47.82443" lon="-3.53866">
        <ele>7.15</ele>
        <time>2020-07-10T12:45:34Z</time>
      </trkpt>
      <trkpt lat="47.82443" lon="-3.53866">
        <ele>7.15</ele>
        <time>2020-07-10T12:45:35Z</time>
      </trkpt>
      <trkpt lat="47.82443" lon="-3.53866">
        <ele>7.15</ele>
        <time>2020-07-10T12:45:36Z</time>
      </trkpt>
      <trkpt lat="47.82443" lon="-3.53866">
        <ele>7.15</ele>
        <time>2020-07-10T12:45:37Z</time>
      </trkpt>
      <trkpt lat="47.82443" lon="-3.53866">
        <ele>7.15</ele>
        <time>2020-07-10T12:45:38Z</time>
      </trkpt>
      <trkpt lat="47.82443" lon="-3.53866">
        <ele>7.15</ele>
        <time>2020-07-10T12:45:39Z</time>
      </trkpt>
      <trkpt lat="47.82443" lon="-3.53866">
        <ele>7.15</ele>
        <time>2020-07-10T12:45:40Z</time>
      </trkpt>
      <trkpt lat="47.82443" lon="-3.53866">
        <ele>7.15</ele>
        <time>2020-07-10T12:45:41Z</time>
      </trkpt>
      <trkpt lat="47.82443" lon="-3.53866">
        <ele>7.15</ele>
        <time>2020-07-10T12:45:42Z</time>
      </trkpt>
      <trkpt lat="47.82443" lon="-3.53866">
        <ele>7.15</ele>
        <time>2020-07-10T12:45:43Z</time>
      </trkpt>
      <trkpt lat="47.82443" lon="-3.53866">
        <ele>7.15</ele>
        <time>2020-07-10T12:45:44Z</time>
      </trkpt>
      <trkpt lat="47.82443" lon="-3.53866">
        <ele>7.15</ele>
        <time>2020-07-10T12:45:45Z</time>
      </trkpt>
      <trkpt lat="47.82443" lon="-3.53866">
        <ele>7.15</ele>
        <time>2020-07-10T12:45:46Z</time>
      </trkpt>
      <trkpt lat="47.82443" lon="-3.53866">
        <ele>7.15</ele>
        <time>2020-07-10T12:45:47Z</time>
      </trkpt>
      <trkpt lat="47.82443" lon="-3.53866">
        <ele>7.15</ele>
        <time>2020-07-10T12:45:48Z</time>
      </trkpt>
      <trkpt lat="47.82443" lon="-3.53866">
        <ele>7.15</ele>
        <time>2020-07-10T12:45:49Z</time>
      </trkpt>
      <trkpt lat="47.82443" lon="-3.53866">
        <ele>7.15</ele>
        <time>2020-07-10T12:45:50Z</time>
      </trkpt>
      <trkpt lat="47.82443" lon="-3.53866">
        <ele>7.15</ele>
        <time>2020-07-10T12:45:51Z</time>
      </trkpt>
      <trkpt lat="47.82443" lon="-3.53866">
        <ele>7.15</ele>
        <time>2020-07-10T12:45:52Z</time>
      </trkpt>
      <trkpt lat="47.82443" lon="-3.53866">
        <ele>7.15</ele>
        <time>2020-07-10T12:45:53Z</time>
      </trkpt>
      <trkpt lat="47.82443" lon="-3.53866">
        <ele>7.15</ele>
        <time>2020-07-10T12:45:54Z</time>
      </trkpt>
      <trkpt lat="47.82443" lon="-3.53866">
        <ele>7.15</ele>
        <time>2020-07-10T12:45:55Z</time>
      </trkpt>
      <trkpt lat="47.82443" lon="-3.53866">
        <ele>7.15</ele>
        <time>2020-07-10T12:45:56Z</time>
      </trkpt>
      <trkpt lat="47.82443" lon="-3.53866">
        <ele>7.15</ele>
        <time>2020-07-10T12:45:57Z</time>
      </trkpt>
      <trkpt lat="47.82443" lon="-3.53866">
        <ele>7.15</ele>
        <time>2020-07-10T12:45:58Z</time>
      </trkpt>
      <trkpt lat="47.82443" lon="-3.53866">
        <ele>7.15</ele>
        <time>2020-07-10T12:45:59Z</time>
      </trkpt>
      <trkpt lat="47.82443" lon="-3.53866">
        <ele>7.15</ele>
        <time>2020-07-10T12:46:00Z</time>
      </trkpt>
      <trkpt lat="47.82443" lon="-3.53866">
        <ele>7.15</ele>
        <time>2020-07-10T12:46:01Z</time>
      </trkpt>
      <trkpt lat="47.82443" lon="-3.53866">
        <ele>7.15</ele>
        <time>2020-07-10T12:46:02Z</time>
      </trkpt>
      <trkpt lat="47.82443" lon="-3.53866">
        <ele>7.15</ele>
        <time>2020-07-10T12:46:03Z</time>
      </trkpt>
      <trkpt lat="47.82443" lon="-3.53866">
        <ele>7.15</ele>
        <time>2020-07-10T12:46:04Z</time>
      </trkpt>
      <trkpt lat="47.82443" lon="-3.53866">
        <ele>7.15</ele>
        <time>2020-07-10T12:46:05Z</time>
      </trkpt>
      <trkpt lat="47.82443" lon="-3.53866">
        <ele>7.15</ele>
        <time>2020-07-10T12:46:06Z</time>
      </trkpt>
      <trkpt lat="47.82443" lon="-3.53866">
        <ele>7.15</ele>
        <time>2020-07-10T12:46:07Z</time>
      </trkpt>
      <trkpt lat="47.82443" lon="-3.53866">
        <ele>7.15</ele>
        <time>2020-07-10T12:46:08Z</time>
      </trkpt>
      <trkpt lat="47.82443" lon="-3.53866">
        <ele>7.15</ele>
        <time>2020-07-10T12:46:09Z</time>
      </trkpt>
      <trkpt lat="47.82443" lon="-3.53866">
        <ele>7.15</ele>
        <time>2020-07-10T12:46:10Z</time>
      </trkpt>
      <trkpt lat="47.82443" lon="-3.53866">
        <ele>7.15</ele>
        <time>2020-07-10T12:46:11Z</time>
      </trkpt>
      <trkpt lat="47.82443" lon="-3.53866">
        <ele>7.15</ele>
        <time>2020-07-10T12:46:12Z</time>
      </trkpt>
      <trkpt lat="47.82443" lon="-3.53866">
        <ele>7.15</ele>
        <time>2020-07-10T12:46:13Z</time>
      </trkpt>
      <trkpt lat="47.82443" lon="-3.53866">
        <ele>7.15</ele>
        <time>2020-07-10T12:46:14Z</time>
      </trkpt>
      <trkpt lat="47.82443" lon="-3.53866">
        <ele>7.15</ele>
        <time>2020-07-10T12:46:15Z</time>
      </trkpt>
      <trkpt lat="47.82443" lon="-3.53866">
        <ele>7.15</ele>
        <time>2020-07-10T12:46:16Z</time>
      </trkpt>
      <trkpt lat="47.82443" lon="-3.53866">
        <ele>7.15</ele>
        <time>2020-07-10T12:46:17Z</time>
      </trkpt>
      <trkpt lat="47.82443" lon="-3.53866">
        <ele>7.15</ele>
        <time>2020-07-10T12:46:18Z</time>
      </trkpt>
      <trkpt lat="47.82443" lon="-3.53866">
        <ele>7.15</ele>
        <time>2020-07-10T12:46:19Z</time>
      </trkpt>
      <trkpt lat="47.82443" lon="-3.53866">
        <ele>7.15</ele>
        <time>2020-07-10T12:46:20Z</time>
      </trkpt>
      <trkpt lat="47.82443" lon="-3.53866">
        <ele>7.15</ele>
        <time>2020-07-10T12:46:21Z</time>
      </trkpt>
      <trkpt lat="47.82443" lon="-3.53866">
        <ele>7.15</ele>
        <time>2020-07-10T12:46:22Z</time>
      </trkpt>
      <trkpt lat="47.82443" lon="-3.53866">
        <ele>7.15</ele>
        <time>2020-07-10T12:46:23Z</time>
      </trkpt>
      <trkpt lat="47.82443" lon="-3.53866">
        <ele>7.15</ele>
        <time>2020-07-10T12:46:24Z</time>
      </trkpt>
      <trkpt lat="47.82443" lon="-3.53866">
        <ele>7.15</ele>
        <time>2020-07-10T12:46:25Z</time>
      </trkpt>
      <trkpt lat="47.82443" lon="-3.53866">
        <ele>7.15</ele>
        <time>2020-07-10T12:46:26Z</time>
      </trkpt>
      <trkpt lat="47.82443" lon="-3.53866">
        <ele>7.15</ele>
        <time>2020-07-10T12:46:27Z</time>
      </trkpt>
      <trkpt lat="47.82443" lon="-3.53866">
        <ele>7.15</ele>
        <time>2020-07-10T12:46:28Z</time>
      </trkpt>
      <trkpt lat="47.82443" lon="-3.53866">
        <ele>7.15</ele>
        <time>2020-07-10T12:46:29Z</time>
      </trkpt>
      <trkpt lat="47.82443" lon="-3.53866">
        <ele>7.15</ele>
        <time>2020-07-10T12:46:30Z</time>
      </trkpt>
      <trkpt lat="47.82443" lon="-3.53866">
        <ele>7.15</ele>
        <time>2020-07-10T12:46:31Z</time>
      </trkpt>
      <trkpt lat="47.82443" lon="-3.53866">
        <ele>7.15</ele>
        <time>2020-07-10T12:46:32Z</time>
      </trkpt>
      <trkpt lat="47.82443" lon="-3.53866">
        <ele>7.15</ele>
        <time>2020-07-10T12:46:33Z</time>
      </trkpt>
      <trkpt lat="47.82443" lon="-3.53866">
        <ele>7.15</ele>
        <time>2020-07-10T12:46:34Z</time>
      </trkpt>
      <trkpt lat="47.82443" lon="-3.53866">
        <ele>7.15</ele>
        <time>2020-07-10T12:46:35Z</time>
      </trkpt>
      <trkpt lat="47.82443" lon="-3.53866">
        <ele>7.15</ele>
        <time>2020-07-10T12:46:36Z</time>
      </trkpt>
      <trkpt lat="47.82443" lon="-3.53866">
        <ele>7.15</ele>
        <time>2020-07-10T12:46:37Z</time>
      </trkpt>
      <trkpt lat="47.82443" lon="-3.53866">
        <ele>7.15</ele>
        <time>2020-07-10T12:46:38Z</time>
      </trkpt>
      <trkpt lat="47.82443" lon="-3.53866">
        <ele>7.15</ele>
        <time>2020-07-10T12:46:39Z</time>
      </trkpt>
      <trkpt lat="47.82443" lon="-3.53866">
        <ele>7.15</ele>
        <time>2020-07-10T12:46:40Z</time>
      </trkpt>
      <trkpt lat="47.82443" lon="-3.53866">
        <ele>7.15</ele>
        <time>2020-07-10T12:46:41Z</time>
      </trkpt>
      <trkpt lat="47.82443" lon="-3.53866">
        <ele>7.15</ele>
        <time>2020-07-10T12:46:42Z</time>
      </trkpt>
      <trkpt lat="47.82443" lon="-3.53866">
        <ele>7.15</ele>
        <time>2020-07-10T12:46:43Z</time>
      </trkpt>
      <trkpt lat="47.82443" lon="-3.53866">
        <ele>7.15</ele>
        <time>2020-07-10T12:46:44Z</time>
      </trkpt>
      <trkpt lat="47.82443" lon="-3.53866">
        <ele>7.15</ele>
        <time>2020-07-10T12:46:45Z</time>
      </trkpt>
      <trkpt lat="47.82443" lon="-3.53866">
        <ele>7.15</ele>
        <time>2020-07-10T12:46:46Z</time>
      </trkpt>
      <trkpt lat="47.82443" lon="-3.53866">
        <ele>7.15</ele>
        <time>2020-07-10T12:46:47Z</time>
      </trkpt>
      <trkpt lat="47.82443" lon="-3.53866">
        <ele>7.15</ele>
        <time>2020-07-10T12:46:48Z</time>
      </trkpt>
      <trkpt lat="47.82443" lon="-3.53866">
        <ele>7.15</ele>
        <time>2020-07-10T12:46:49Z</time>
      </trkpt>
      <trkpt lat="47.82443" lon="-3.53866">
        <ele>7.15</ele>
        <time>2020-07-10T12:46:50Z</time>
      </trkpt>
      <trkpt lat="47.82443" lon="-3.53866">
        <ele>7.15</ele>
        <time>2020-07-10T12:46:51Z</time>
      </trkpt>
      <trkpt lat="47.82443" lon="-3.53866">
        <ele>7.15</ele>
        <time>2020-07-10T12:46:52Z</time>
      </trkpt>
      <trkpt lat="47.82443" lon="-3.53866">
        <ele>7.15</ele>
        <time>2020-07-10T12:46:53Z</time>
      </trkpt>
      <trkpt lat="47.82443" lon="-3.53866">
        <ele>7.15</ele>
        <time>2020-07-10T12:46:54Z</time>
      </trkpt>
      <trkpt lat="47.82443" lon="-3.53866">
        <ele>7.15</ele>
        <time>2020-07-10T12:46:55Z</time>
      </trkpt>
      <trkpt lat="47.82443" lon="-3.53866">
        <ele>7.15</ele>
        <time>2020-07-10T12:46:56Z</time>
      </trkpt>
      <trkpt lat="47.82436" lon="-3.53869">
        <ele>6.54</ele>
        <time>2020-07-10T12:46:57Z</time>
      </trkpt>
      <trkpt lat="47.82434" lon="-3.53869">
        <ele>6.21</ele>
        <time>2020-07-10T12:46:58Z</time>
      </trkpt>
      <trkpt lat="47.82432" lon="-3.53868">
        <ele>6.04</ele>
        <time>2020-07-10T12:46:59Z</time>
      </trkpt>
      <trkpt lat="47.82429" lon="-3.53868">
        <ele>5.84</ele>
        <time>2020-07-10T12:47:00Z</time>
      </trkpt>
      <trkpt lat="47.82425" lon="-3.53867">
        <ele>5.63</ele>
        <time>2020-07-10T12:47:01Z</time>
      </trkpt>
      <trkpt lat="47.82421" lon="-3.53866">
        <ele>5.35</ele>
        <time>2020-07-10T12:47:02Z</time>
      </trkpt>
      <trkpt lat="47.82418" lon="-3.53866">
        <ele>5.07</ele>
        <time>2020-07-10T12:47:03Z</time>
      </trkpt>
      <trkpt lat="47.82414" lon="-3.53864">
        <ele>4.87</ele>
        <time>2020-07-10T12:47:04Z</time>
      </trkpt>
      <trkpt lat="47.8241" lon="-3.53863">
        <ele>4.75</ele>
        <time>2020-07-10T12:47:05Z</time>
      </trkpt>
      <trkpt lat="47.82406" lon="-3.53861">
        <ele>4.7</ele>
        <time>2020-07-10T12:47:06Z</time>
      </trkpt>
      <trkpt lat="47.82403" lon="-3.53858">
        <ele>4.81</ele>
        <time>2020-07-10T12:47:07Z</time>
      </trkpt>
      <trkpt lat="47.82401" lon="-3.53856">
        <ele>4.97</ele>
        <time>2020-07-10T12:47:08Z</time>
      </trkpt>
      <trkpt lat="47.82399" lon="-3.53853">
        <ele>5.17</ele>
        <time>2020-07-10T12:47:09Z</time>
      </trkpt>
      <trkpt lat="47.82397" lon="-3.53851">
        <ele>5.34</ele>
        <time>2020-07-10T12:47:10Z</time>
      </trkpt>
      <trkpt lat="47.82396" lon="-3.53848">
        <ele>5.46</ele>
        <time>2020-07-10T12:47:11Z</time>
      </trkpt>
      <trkpt lat="47.82394" lon="-3.53846">
        <ele>5.58</ele>
        <time>2020-07-10T12:47:12Z</time>
      </trkpt>
      <trkpt lat="47.82393" lon="-3.53843">
        <ele>5.64</ele>
        <time>2020-07-10T12:47:13Z</time>
      </trkpt>
      <trkpt lat="47.82391" lon="-3.5384">
        <ele>5.7</ele>
        <time>2020-07-10T12:47:14Z</time>
      </trkpt>
      <trkpt lat="47.8239" lon="-3.53837">
        <ele>5.8</ele>
        <time>2020-07-10T12:47:15Z</time>
      </trkpt>
      <trkpt lat="47.82388" lon="-3.53834">
        <ele>5.9</ele>
        <time>2020-07-10T12:47:16Z</time>
      </trkpt>
      <trkpt lat="47.82386" lon="-3.53831">
        <ele>6.07</ele>
        <time>2020-07-10T12:47:17Z</time>
      </trkpt>
      <trkpt lat="47.82384" lon="-3.53827">
        <ele>6.44</ele>
        <time>2020-07-10T12:47:18Z</time>
      </trkpt>
      <trkpt lat="47.82382" lon="-3.53825">
        <ele>6.74</ele>
        <time>2020-07-10T12:47:19Z</time>
      </trkpt>
      <trkpt lat="47.8238" lon="-3.53822">
        <ele>6.97</ele>
        <time>2020-07-10T12:47:20Z</time>
      </trkpt>
      <trkpt lat="47.82378" lon="-3.53819">
        <ele>7.14</ele>
        <time>2020-07-10T12:47:21Z</time>
      </trkpt>
      <trkpt lat="47.82376" lon="-3.53817">
        <ele>7.16</ele>
        <time>2020-07-10T12:47:22Z</time>
      </trkpt>
      <trkpt lat="47.82374" lon="-3.53814">
        <ele>7.17</ele>
        <time>2020-07-10T12:47:23Z</time>
      </trkpt>
      <trkpt lat="47.82371" lon="-3.53812">
        <ele>7.14</ele>
        <time>2020-07-10T12:47:24Z</time>
      </trkpt>
      <trkpt lat="47.8237" lon="-3.53809">
        <ele>7.14</ele>
        <time>2020-07-10T12:47:25Z</time>
      </trkpt>
      <trkpt lat="47.82368" lon="-3.53807">
        <ele>7.13</ele>
        <time>2020-07-10T12:47:26Z</time>
      </trkpt>
      <trkpt lat="47.82367" lon="-3.53805">
        <ele>7.11</ele>
        <time>2020-07-10T12:47:27Z</time>
      </trkpt>
      <trkpt lat="47.82364" lon="-3.53802">
        <ele>7.17</ele>
        <time>2020-07-10T12:47:28Z</time>
      </trkpt>
      <trkpt lat="47.82362" lon="-3.538">
        <ele>7.22</ele>
        <time>2020-07-10T12:47:29Z</time>
      </trkpt>
      <trkpt lat="47.82361" lon="-3.53798">
        <ele>7.28</ele>
        <time>2020-07-10T12:47:30Z</time>
      </trkpt>
      <trkpt lat="47.8236" lon="-3.53797">
        <ele>7.37</ele>
        <time>2020-07-10T12:47:31Z</time>
      </trkpt>
      <trkpt lat="47.82357" lon="-3.53796">
        <ele>7.32</ele>
        <time>2020-07-10T12:47:32Z</time>
      </trkpt>
      <trkpt lat="47.82355" lon="-3.53795">
        <ele>7.1</ele>
        <time>2020-07-10T12:47:33Z</time>
      </trkpt>
      <trkpt lat="47.82352" lon="-3.53795">
        <ele>6.83</ele>
        <time>2020-07-10T12:47:34Z</time>
      </trkpt>
      <trkpt lat="47.82349" lon="-3.53794">
        <ele>6.63</ele>
        <time>2020-07-10T12:47:35Z</time>
      </trkpt>
      <trkpt lat="47.82346" lon="-3.53792">
        <ele>6.35</ele>
        <time>2020-07-10T12:47:36Z</time>
      </trkpt>
      <trkpt lat="47.82342" lon="-3.5379">
        <ele>6.06</ele>
        <time>2020-07-10T12:47:37Z</time>
      </trkpt>
      <trkpt lat="47.82339" lon="-3.53787">
        <ele>5.74</ele>
        <time>2020-07-10T12:47:38Z</time>
      </trkpt>
      <trkpt lat="47.82335" lon="-3.53783">
        <ele>5.32</ele>
        <time>2020-07-10T12:47:39Z</time>
      </trkpt>
      <trkpt lat="47.82332" lon="-3.53778">
        <ele>5.07</ele>
        <time>2020-07-10T12:47:40Z</time>
      </trkpt>
      <trkpt lat="47.82329" lon="-3.53771">
        <ele>5.22</ele>
        <time>2020-07-10T12:47:41Z</time>
      </trkpt>
      <trkpt lat="47.82326" lon="-3.53765">
        <ele>5.38</ele>
        <time>2020-07-10T12:47:42Z</time>
      </trkpt>
      <trkpt lat="47.82324" lon="-3.53761">
        <ele>5.42</ele>
        <time>2020-07-10T12:47:43Z</time>
      </trkpt>
      <trkpt lat="47.8232" lon="-3.53754">
        <ele>5.38</ele>
        <time>2020-07-10T12:47:44Z</time>
      </trkpt>
      <trkpt lat="47.82316" lon="-3.53749">
        <ele>5.29</ele>
        <time>2020-07-10T12:47:45Z</time>
      </trkpt>
      <trkpt lat="47.82313" lon="-3.53745">
        <ele>5.13</ele>
        <time>2020-07-10T12:47:46Z</time>
      </trkpt>
      <trkpt lat="47.82309" lon="-3.53742">
        <ele>4.88</ele>
        <time>2020-07-10T12:47:47Z</time>
      </trkpt>
      <trkpt lat="47.82305" lon="-3.53738">
        <ele>4.56</ele>
        <time>2020-07-10T12:47:48Z</time>
      </trkpt>
      <trkpt lat="47.82301" lon="-3.53736">
        <ele>4.47</ele>
        <time>2020-07-10T12:47:49Z</time>
      </trkpt>
      <trkpt lat="47.82297" lon="-3.53733">
        <ele>4.44</ele>
        <time>2020-07-10T12:47:50Z</time>
      </trkpt>
      <trkpt lat="47.82294" lon="-3.5373">
        <ele>4.42</ele>
        <time>2020-07-10T12:47:51Z</time>
      </trkpt>
      <trkpt lat="47.8229" lon="-3.53728">
        <ele>4.38</ele>
        <time>2020-07-10T12:47:52Z</time>
      </trkpt>
      <trkpt lat="47.82289" lon="-3.53725">
        <ele>4.36</ele>
        <time>2020-07-10T12:47:53Z</time>
      </trkpt>
      <trkpt lat="47.82286" lon="-3.53722">
        <ele>4.33</ele>
        <time>2020-07-10T12:47:54Z</time>
      </trkpt>
      <trkpt lat="47.82285" lon="-3.53719">
        <ele>4.41</ele>
        <time>2020-07-10T12:47:55Z</time>
      </trkpt>
      <trkpt lat="47.82284" lon="-3.53716">
        <ele>4.51</ele>
        <time>2020-07-10T12:47:56Z</time>
      </trkpt>
      <trkpt lat="47.82283" lon="-3.53712">
        <ele>4.64</ele>
        <time>2020-07-10T12:47:57Z</time>
      </trkpt>
      <trkpt lat="47.82283" lon="-3.53708">
        <ele>4.79</ele>
        <time>2020-07-10T12:47:58Z</time>
      </trkpt>
      <trkpt lat="47.82283" lon="-3.53705">
        <ele>4.99</ele>
        <time>2020-07-10T12:47:59Z</time>
      </trkpt>
      <trkpt lat="47.82282" lon="-3.53701">
        <ele>5.12</ele>
        <time>2020-07-10T12:48:00Z</time>
      </trkpt>
      <trkpt lat="47.82281" lon="-3.53697">
        <ele>5.24</ele>
        <time>2020-07-10T12:48:01Z</time>
      </trkpt>
      <trkpt lat="47.8228" lon="-3.53692">
        <ele>5.22</ele>
        <time>2020-07-10T12:48:02Z</time>
      </trkpt>
      <trkpt lat="47.82279" lon="-3.53688">
        <ele>5.15</ele>
        <time>2020-07-10T12:48:03Z</time>
      </trkpt>
      <trkpt lat="47.82279" lon="-3.53684">
        <ele>5.12</ele>
        <time>2020-07-10T12:48:04Z</time>
      </trkpt>
      <trkpt lat="47.82279" lon="-3.53681">
        <ele>5.1</ele>
        <time>2020-07-10T12:48:05Z</time>
      </trkpt>
      <trkpt lat="47.82278" lon="-3.53678">
        <ele>5.08</ele>
        <time>2020-07-10T12:48:06Z</time>
      </trkpt>
      <trkpt lat="47.82278" lon="-3.53675">
        <ele>5.02</ele>
        <time>2020-07-10T12:48:07Z</time>
      </trkpt>
      <trkpt lat="47.82277" lon="-3.53671">
        <ele>4.99</ele>
        <time>2020-07-10T12:48:08Z</time>
      </trkpt>
      <trkpt lat="47.82278" lon="-3.53669">
        <ele>4.99</ele>
        <time>2020-07-10T12:48:09Z</time>
      </trkpt>
      <trkpt lat="47.82279" lon="-3.53665">
        <ele>5.07</ele>
        <time>2020-07-10T12:48:10Z</time>
      </trkpt>
      <trkpt lat="47.8228" lon="-3.53662">
        <ele>5.11</ele>
        <time>2020-07-10T12:48:11Z</time>
      </trkpt>
      <trkpt lat="47.82281" lon="-3.5366">
        <ele>5.19</ele>
        <time>2020-07-10T12:48:12Z</time>
      </trkpt>
      <trkpt lat="47.82282" lon="-3.53658">
        <ele>5.25</ele>
        <time>2020-07-10T12:48:13Z</time>
      </trkpt>
      <trkpt lat="47.82282" lon="-3.53655">
        <ele>5.32</ele>
        <time>2020-07-10T12:48:14Z</time>
      </trkpt>
      <trkpt lat="47.82283" lon="-3.53653">
        <ele>5.33</ele>
        <time>2020-07-10T12:48:15Z</time>
      </trkpt>
      <trkpt lat="47.82284" lon="-3.5365">
        <ele>5.37</ele>
        <time>2020-07-10T12:48:16Z</time>
      </trkpt>
      <trkpt lat="47.82284" lon="-3.53647">
        <ele>5.34</ele>
        <time>2020-07-10T12:48:17Z</time>
      </trkpt>
      <trkpt lat="47.82284" lon="-3.53645">
        <ele>5.33</ele>
        <time>2020-07-10T12:48:18Z</time>
      </trkpt>
      <trkpt lat="47.82285" lon="-3.53643">
        <ele>5.35</ele>
        <time>2020-07-10T12:48:19Z</time>
      </trkpt>
      <trkpt lat="47.82286" lon="-3.53641">
        <ele>5.44</ele>
        <time>2020-07-10T12:48:20Z</time>
      </trkpt>
      <trkpt lat="47.82287" lon="-3.5364">
        <ele>5.58</ele>
        <time>2020-07-10T12:48:21Z</time>
      </trkpt>
      <trkpt lat="47.82288" lon="-3.53638">
        <ele>5.72</ele>
        <time>2020-07-10T12:48:22Z</time>
      </trkpt>
      <trkpt lat="47.82289" lon="-3.53635">
        <ele>5.81</ele>
        <time>2020-07-10T12:48:23Z</time>
      </trkpt>
      <trkpt lat="47.8229" lon="-3.53631">
        <ele>5.88</ele>
        <time>2020-07-10T12:48:24Z</time>
      </trkpt>
      <trkpt lat="47.82291" lon="-3.53628">
        <ele>5.98</ele>
        <time>2020-07-10T12:48:25Z</time>
      </trkpt>
      <trkpt lat="47.82292" lon="-3.53624">
        <ele>6</ele>
        <time>2020-07-10T12:48:26Z</time>
      </trkpt>
      <trkpt lat="47.82293" lon="-3.53619">
        <ele>6.05</ele>
        <time>2020-07-10T12:48:27Z</time>
      </trkpt>
      <trkpt lat="47.82295" lon="-3.53614">
        <ele>6.13</ele>
        <time>2020-07-10T12:48:28Z</time>
      </trkpt>
      <trkpt lat="47.82296" lon="-3.5361">
        <ele>6.27</ele>
        <time>2020-07-10T12:48:29Z</time>
      </trkpt>
      <trkpt lat="47.82297" lon="-3.53606">
        <ele>6.61</ele>
        <time>2020-07-10T12:48:30Z</time>
      </trkpt>
      <trkpt lat="47.82298" lon="-3.53602">
        <ele>7.02</ele>
        <time>2020-07-10T12:48:31Z</time>
      </trkpt>
      <trkpt lat="47.82299" lon="-3.53598">
        <ele>7.46</ele>
        <time>2020-07-10T12:48:32Z</time>
      </trkpt>
      <trkpt lat="47.823" lon="-3.53594">
        <ele>7.94</ele>
        <time>2020-07-10T12:48:33Z</time>
      </trkpt>
      <trkpt lat="47.82301" lon="-3.5359">
        <ele>8.37</ele>
        <time>2020-07-10T12:48:34Z</time>
      </trkpt>
      <trkpt lat="47.82301" lon="-3.53586">
        <ele>8.75</ele>
        <time>2020-07-10T12:48:35Z</time>
      </trkpt>
      <trkpt lat="47.82302" lon="-3.53583">
        <ele>9.08</ele>
        <time>2020-07-10T12:48:36Z</time>
      </trkpt>
      <trkpt lat="47.82303" lon="-3.5358">
        <ele>9.21</ele>
        <time>2020-07-10T12:48:37Z</time>
      </trkpt>
      <trkpt lat="47.82305" lon="-3.53579">
        <ele>9.32</ele>
        <time>2020-07-10T12:48:38Z</time>
      </trkpt>
      <trkpt lat="47.82306" lon="-3.53578">
        <ele>9.43</ele>
        <time>2020-07-10T12:48:39Z</time>
      </trkpt>
      <trkpt lat="47.82307" lon="-3.53578">
        <ele>9.58</ele>
        <time>2020-07-10T12:48:40Z</time>
      </trkpt>
      <trkpt lat="47.82307" lon="-3.53578">
        <ele>9.64</ele>
        <time>2020-07-10T12:48:41Z</time>
      </trkpt>
      <trkpt lat="47.82307" lon="-3.53579">
        <ele>9.73</ele>
        <time>2020-07-10T12:48:42Z</time>
      </trkpt>
      <trkpt lat="47.82307" lon="-3.53579">
        <ele>9.75</ele>
        <time>2020-07-10T12:48:43Z</time>
      </trkpt>
      <trkpt lat="47.82307" lon="-3.53579">
        <ele>9.76</ele>
        <time>2020-07-10T12:48:44Z</time>
      </trkpt>
      <trkpt lat="47.82307" lon="-3.53579">
        <ele>9.76</ele>
        <time>2020-07-10T12:48:45Z</time>
      </trkpt>
      <trkpt lat="47.82307" lon="-3.53579">
        <ele>9.76</ele>
        <time>2020-07-10T12:48:46Z</time>
      </trkpt>
      <trkpt lat="47.82307" lon="-3.53579">
        <ele>9.76</ele>
        <time>2020-07-10T12:48:47Z</time>
      </trkpt>
      <trkpt lat="47.82307" lon="-3.53579">
        <ele>9.76</ele>
        <time>2020-07-10T12:48:48Z</time>
      </trkpt>
      <trkpt lat="47.82307" lon="-3.53579">
        <ele>9.76</ele>
        <time>2020-07-10T12:48:49Z</time>
      </trkpt>
      <trkpt lat="47.82307" lon="-3.53579">
        <ele>9.76</ele>
        <time>2020-07-10T12:48:50Z</time>
      </trkpt>
      <trkpt lat="47.82307" lon="-3.53579">
        <ele>9.76</ele>
        <time>2020-07-10T12:48:51Z</time>
      </trkpt>
      <trkpt lat="47.82307" lon="-3.53579">
        <ele>9.76</ele>
        <time>2020-07-10T12:48:52Z</time>
      </trkpt>
      <trkpt lat="47.82307" lon="-3.53579">
        <ele>9.76</ele>
        <time>2020-07-10T12:48:53Z</time>
      </trkpt>
      <trkpt lat="47.82312" lon="-3.53565">
        <ele>9.15</ele>
        <time>2020-07-10T12:48:54Z</time>
      </trkpt>
      <trkpt lat="47.82314" lon="-3.53562">
        <ele>8.99</ele>
        <time>2020-07-10T12:48:55Z</time>
      </trkpt>
      <trkpt lat="47.82315" lon="-3.5356">
        <ele>8.91</ele>
        <time>2020-07-10T12:48:56Z</time>
      </trkpt>
      <trkpt lat="47.82316" lon="-3.53559">
        <ele>8.83</ele>
        <time>2020-07-10T12:48:57Z</time>
      </trkpt>
      <trkpt lat="47.82316" lon="-3.53559">
        <ele>8.8</ele>
        <time>2020-07-10T12:48:58Z</time>
      </trkpt>
      <trkpt lat="47.82316" lon="-3.53559">
        <ele>8.8</ele>
        <time>2020-07-10T12:48:59Z</time>
      </trkpt>
      <trkpt lat="47.82316" lon="-3.53559">
        <ele>8.79</ele>
        <time>2020-07-10T12:49:00Z</time>
      </trkpt>
      <trkpt lat="47.82316" lon="-3.53559">
        <ele>8.79</ele>
        <time>2020-07-10T12:49:01Z</time>
      </trkpt>
      <trkpt lat="47.82316" lon="-3.53559">
        <ele>8.79</ele>
        <time>2020-07-10T12:49:02Z</time>
      </trkpt>
      <trkpt lat="47.82316" lon="-3.53559">
        <ele>8.79</ele>
        <time>2020-07-10T12:49:03Z</time>
      </trkpt>
      <trkpt lat="47.82316" lon="-3.53559">
        <ele>8.79</ele>
        <time>2020-07-10T12:49:04Z</time>
      </trkpt>
      <trkpt lat="47.82316" lon="-3.53559">
        <ele>8.79</ele>
        <time>2020-07-10T12:49:05Z</time>
      </trkpt>
      <trkpt lat="47.82316" lon="-3.53559">
        <ele>8.79</ele>
        <time>2020-07-10T12:49:06Z</time>
      </trkpt>
      <trkpt lat="47.82316" lon="-3.53559">
        <ele>8.79</ele>
        <time>2020-07-10T12:49:07Z</time>
      </trkpt>
      <trkpt lat="47.82316" lon="-3.53559">
        <ele>8.79</ele>
        <time>2020-07-10T12:49:08Z</time>
      </trkpt>
      <trkpt lat="47.82316" lon="-3.53559">
        <ele>8.79</ele>
        <time>2020-07-10T12:49:09Z</time>
      </trkpt>
      <trkpt lat="47.82315" lon="-3.53546">
        <ele>9.32</ele>
        <time>2020-07-10T12:49:10Z</time>
      </trkpt>
      <trkpt lat="47.82314" lon="-3.53544">
        <ele>9.55</ele>
        <time>2020-07-10T12:49:11Z</time>
      </trkpt>
      <trkpt lat="47.82314" lon="-3.53543">
        <ele>9.65</ele>
        <time>2020-07-10T12:49:12Z</time>
      </trkpt>
      <trkpt lat="47.82313" lon="-3.5354">
        <ele>9.96</ele>
        <time>2020-07-10T12:49:13Z</time>
      </trkpt>
      <trkpt lat="47.82313" lon="-3.53539">
        <ele>10.12</ele>
        <time>2020-07-10T12:49:14Z</time>
      </trkpt>
      <trkpt lat="47.82314" lon="-3.53539">
        <ele>10.2</ele>
        <time>2020-07-10T12:49:15Z</time>
      </trkpt>
      <trkpt lat="47.82314" lon="-3.53539">
        <ele>10.17</ele>
        <time>2020-07-10T12:49:16Z</time>
      </trkpt>
      <trkpt lat="47.82313" lon="-3.5354">
        <ele>10.1</ele>
        <time>2020-07-10T12:49:17Z</time>
      </trkpt>
      <trkpt lat="47.82312" lon="-3.5354">
        <ele>9.96</ele>
        <time>2020-07-10T12:49:18Z</time>
      </trkpt>
      <trkpt lat="47.82312" lon="-3.5354">
        <ele>9.92</ele>
        <time>2020-07-10T12:49:19Z</time>
      </trkpt>
      <trkpt lat="47.82308" lon="-3.5354">
        <ele>9.68</ele>
        <time>2020-07-10T12:49:20Z</time>
      </trkpt>
      <trkpt lat="47.82306" lon="-3.5354">
        <ele>9.43</ele>
        <time>2020-07-10T12:49:21Z</time>
      </trkpt>
      <trkpt lat="47.82304" lon="-3.53541">
        <ele>9.17</ele>
        <time>2020-07-10T12:49:22Z</time>
      </trkpt>
      <trkpt lat="47.82302" lon="-3.53542">
        <ele>8.78</ele>
        <time>2020-07-10T12:49:23Z</time>
      </trkpt>
      <trkpt lat="47.82296" lon="-3.53543">
        <ele>8.27</ele>
        <time>2020-07-10T12:49:24Z</time>
      </trkpt>
      <trkpt lat="47.82294" lon="-3.53543">
        <ele>7.95</ele>
        <time>2020-07-10T12:49:25Z</time>
      </trkpt>
      <trkpt lat="47.82292" lon="-3.53545">
        <ele>7.62</ele>
        <time>2020-07-10T12:49:26Z</time>
      </trkpt>
      <trkpt lat="47.82289" lon="-3.53548">
        <ele>7.23</ele>
        <time>2020-07-10T12:49:27Z</time>
      </trkpt>
      <trkpt lat="47.82287" lon="-3.5355">
        <ele>6.86</ele>
        <time>2020-07-10T12:49:28Z</time>
      </trkpt>
      <trkpt lat="47.82284" lon="-3.53553">
        <ele>6.52</ele>
        <time>2020-07-10T12:49:29Z</time>
      </trkpt>
      <trkpt lat="47.82282" lon="-3.53556">
        <ele>6.23</ele>
        <time>2020-07-10T12:49:30Z</time>
      </trkpt>
      <trkpt lat="47.82279" lon="-3.53559">
        <ele>5.95</ele>
        <time>2020-07-10T12:49:31Z</time>
      </trkpt>
      <trkpt lat="47.82277" lon="-3.53562">
        <ele>5.64</ele>
        <time>2020-07-10T12:49:32Z</time>
      </trkpt>
      <trkpt lat="47.82275" lon="-3.53564">
        <ele>5.34</ele>
        <time>2020-07-10T12:49:33Z</time>
      </trkpt>
      <trkpt lat="47.82272" lon="-3.53567">
        <ele>5.04</ele>
        <time>2020-07-10T12:49:34Z</time>
      </trkpt>
      <trkpt lat="47.82269" lon="-3.53569">
        <ele>4.78</ele>
        <time>2020-07-10T12:49:35Z</time>
      </trkpt>
      <trkpt lat="47.82265" lon="-3.53571">
        <ele>4.56</ele>
        <time>2020-07-10T12:49:36Z</time>
      </trkpt>
      <trkpt lat="47.82262" lon="-3.53572">
        <ele>4.41</ele>
        <time>2020-07-10T12:49:37Z</time>
      </trkpt>
      <trkpt lat="47.82259" lon="-3.53573">
        <ele>4.29</ele>
        <time>2020-07-10T12:49:38Z</time>
      </trkpt>
      <trkpt lat="47.82257" lon="-3.53573">
        <ele>4.22</ele>
        <time>2020-07-10T12:49:39Z</time>
      </trkpt>
      <trkpt lat="47.82256" lon="-3.53574">
        <ele>4.18</ele>
        <time>2020-07-10T12:49:40Z</time>
      </trkpt>
      <trkpt lat="47.82255" lon="-3.53574">
        <ele>4.13</ele>
        <time>2020-07-10T12:49:41Z</time>
      </trkpt>
      <trkpt lat="47.82253" lon="-3.53573">
        <ele>4.1</ele>
        <time>2020-07-10T12:49:42Z</time>
      </trkpt>
      <trkpt lat="47.82252" lon="-3.53573">
        <ele>4.06</ele>
        <time>2020-07-10T12:49:43Z</time>
      </trkpt>
      <trkpt lat="47.8225" lon="-3.53573">
        <ele>4.02</ele>
        <time>2020-07-10T12:49:44Z</time>
      </trkpt>
      <trkpt lat="47.82249" lon="-3.53572">
        <ele>3.99</ele>
        <time>2020-07-10T12:49:45Z</time>
      </trkpt>
      <trkpt lat="47.8225" lon="-3.53569">
        <ele>3.99</ele>
        <time>2020-07-10T12:49:46Z</time>
      </trkpt>
      <trkpt lat="47.8225" lon="-3.53566">
        <ele>3.99</ele>
        <time>2020-07-10T12:49:47Z</time>
      </trkpt>
      <trkpt lat="47.82249" lon="-3.53563">
        <ele>3.97</ele>
        <time>2020-07-10T12:49:48Z</time>
      </trkpt>
      <trkpt lat="47.82249" lon="-3.53559">
        <ele>3.96</ele>
        <time>2020-07-10T12:49:49Z</time>
      </trkpt>
      <trkpt lat="47.82247" lon="-3.53556">
        <ele>3.92</ele>
        <time>2020-07-10T12:49:50Z</time>
      </trkpt>
      <trkpt lat="47.82246" lon="-3.53552">
        <ele>3.97</ele>
        <time>2020-07-10T12:49:51Z</time>
      </trkpt>
      <trkpt lat="47.82245" lon="-3.53548">
        <ele>4.05</ele>
        <time>2020-07-10T12:49:52Z</time>
      </trkpt>
      <trkpt lat="47.82244" lon="-3.53544">
        <ele>4.14</ele>
        <time>2020-07-10T12:49:53Z</time>
      </trkpt>
      <trkpt lat="47.82241" lon="-3.53541">
        <ele>4.19</ele>
        <time>2020-07-10T12:49:54Z</time>
      </trkpt>
      <trkpt lat="47.82239" lon="-3.53537">
        <ele>4.25</ele>
        <time>2020-07-10T12:49:55Z</time>
      </trkpt>
      <trkpt lat="47.82237" lon="-3.53533">
        <ele>4.3</ele>
        <time>2020-07-10T12:49:56Z</time>
      </trkpt>
      <trkpt lat="47.82234" lon="-3.5353">
        <ele>4.33</ele>
        <time>2020-07-10T12:49:57Z</time>
      </trkpt>
      <trkpt lat="47.82231" lon="-3.53527">
        <ele>4.33</ele>
        <time>2020-07-10T12:49:58Z</time>
      </trkpt>
      <trkpt lat="47.82229" lon="-3.53524">
        <ele>4.28</ele>
        <time>2020-07-10T12:49:59Z</time>
      </trkpt>
      <trkpt lat="47.82226" lon="-3.5352">
        <ele>4.21</ele>
        <time>2020-07-10T12:50:00Z</time>
      </trkpt>
      <trkpt lat="47.82224" lon="-3.53516">
        <ele>4.15</ele>
        <time>2020-07-10T12:50:01Z</time>
      </trkpt>
      <trkpt lat="47.82222" lon="-3.53512">
        <ele>4.04</ele>
        <time>2020-07-10T12:50:02Z</time>
      </trkpt>
      <trkpt lat="47.82219" lon="-3.53509">
        <ele>3.98</ele>
        <time>2020-07-10T12:50:03Z</time>
      </trkpt>
      <trkpt lat="47.82217" lon="-3.53506">
        <ele>3.97</ele>
        <time>2020-07-10T12:50:04Z</time>
      </trkpt>
      <trkpt lat="47.82216" lon="-3.53503">
        <ele>3.97</ele>
        <time>2020-07-10T12:50:05Z</time>
      </trkpt>
      <trkpt lat="47.82215" lon="-3.53499">
        <ele>4</ele>
        <time>2020-07-10T12:50:06Z</time>
      </trkpt>
      <trkpt lat="47.82215" lon="-3.53496">
        <ele>4.08</ele>
        <time>2020-07-10T12:50:07Z</time>
      </trkpt>
      <trkpt lat="47.82215" lon="-3.53494">
        <ele>4.14</ele>
        <time>2020-07-10T12:50:08Z</time>
      </trkpt>
      <trkpt lat="47.82216" lon="-3.53492">
        <ele>4.19</ele>
        <time>2020-07-10T12:50:09Z</time>
      </trkpt>
      <trkpt lat="47.82217" lon="-3.5349">
        <ele>4.25</ele>
        <time>2020-07-10T12:50:10Z</time>
      </trkpt>
      <trkpt lat="47.82216" lon="-3.53489">
        <ele>4.3</ele>
        <time>2020-07-10T12:50:11Z</time>
      </trkpt>
      <trkpt lat="47.82216" lon="-3.53487">
        <ele>4.34</ele>
        <time>2020-07-10T12:50:12Z</time>
      </trkpt>
      <trkpt lat="47.82217" lon="-3.53486">
        <ele>4.4</ele>
        <time>2020-07-10T12:50:13Z</time>
      </trkpt>
      <trkpt lat="47.82217" lon="-3.53485">
        <ele>4.44</ele>
        <time>2020-07-10T12:50:14Z</time>
      </trkpt>
      <trkpt lat="47.82218" lon="-3.53484">
        <ele>4.48</ele>
        <time>2020-07-10T12:50:15Z</time>
      </trkpt>
      <trkpt lat="47.82219" lon="-3.53483">
        <ele>4.51</ele>
        <time>2020-07-10T12:50:16Z</time>
      </trkpt>
      <trkpt lat="47.82219" lon="-3.53483">
        <ele>4.52</ele>
        <time>2020-07-10T12:50:17Z</time>
      </trkpt>
      <trkpt lat="47.82221" lon="-3.53482">
        <ele>4.59</ele>
        <time>2020-07-10T12:50:18Z</time>
      </trkpt>
      <trkpt lat="47.82223" lon="-3.53482">
        <ele>4.66</ele>
        <time>2020-07-10T12:50:19Z</time>
      </trkpt>
      <trkpt lat="47.82224" lon="-3.5348">
        <ele>4.8</ele>
        <time>2020-07-10T12:50:20Z</time>
      </trkpt>
      <trkpt lat="47.82225" lon="-3.5348">
        <ele>4.92</ele>
        <time>2020-07-10T12:50:21Z</time>
      </trkpt>
      <trkpt lat="47.82226" lon="-3.53478">
        <ele>5.06</ele>
        <time>2020-07-10T12:50:22Z</time>
      </trkpt>
      <trkpt lat="47.82228" lon="-3.53476">
        <ele>5.3</ele>
        <time>2020-07-10T12:50:23Z</time>
      </trkpt>
      <trkpt lat="47.82229" lon="-3.53473">
        <ele>5.57</ele>
        <time>2020-07-10T12:50:24Z</time>
      </trkpt>
      <trkpt lat="47.8223" lon="-3.5347">
        <ele>5.78</ele>
        <time>2020-07-10T12:50:25Z</time>
      </trkpt>
      <trkpt lat="47.82232" lon="-3.53467">
        <ele>6.01</ele>
        <time>2020-07-10T12:50:26Z</time>
      </trkpt>
      <trkpt lat="47.82234" lon="-3.53463">
        <ele>6.26</ele>
        <time>2020-07-10T12:50:27Z</time>
      </trkpt>
      <trkpt lat="47.82237" lon="-3.53458">
        <ele>6.69</ele>
        <time>2020-07-10T12:50:28Z</time>
      </trkpt>
      <trkpt lat="47.82239" lon="-3.53455">
        <ele>7.07</ele>
        <time>2020-07-10T12:50:29Z</time>
      </trkpt>
      <trkpt lat="47.82241" lon="-3.53451">
        <ele>7.36</ele>
        <time>2020-07-10T12:50:30Z</time>
      </trkpt>
      <trkpt lat="47.82242" lon="-3.53449">
        <ele>7.59</ele>
        <time>2020-07-10T12:50:31Z</time>
      </trkpt>
      <trkpt lat="47.82242" lon="-3.53446">
        <ele>7.75</ele>
        <time>2020-07-10T12:50:32Z</time>
      </trkpt>
      <trkpt lat="47.82242" lon="-3.53443">
        <ele>7.84</ele>
        <time>2020-07-10T12:50:33Z</time>
      </trkpt>
      <trkpt lat="47.82243" lon="-3.5344">
        <ele>7.98</ele>
        <time>2020-07-10T12:50:34Z</time>
      </trkpt>
      <trkpt lat="47.82242" lon="-3.53438">
        <ele>8.02</ele>
        <time>2020-07-10T12:50:35Z</time>
      </trkpt>
      <trkpt lat="47.82241" lon="-3.53435">
        <ele>8.02</ele>
        <time>2020-07-10T12:50:36Z</time>
      </trkpt>
      <trkpt lat="47.82241" lon="-3.53434">
        <ele>8.03</ele>
        <time>2020-07-10T12:50:37Z</time>
      </trkpt>
      <trkpt lat="47.8224" lon="-3.53434">
        <ele>8.03</ele>
        <time>2020-07-10T12:50:38Z</time>
      </trkpt>
      <trkpt lat="47.8224" lon="-3.53433">
        <ele>8.02</ele>
        <time>2020-07-10T12:50:39Z</time>
      </trkpt>
      <trkpt lat="47.8224" lon="-3.53433">
        <ele>8.01</ele>
        <time>2020-07-10T12:50:40Z</time>
      </trkpt>
      <trkpt lat="47.8224" lon="-3.53433">
        <ele>8.01</ele>
        <time>2020-07-10T12:50:41Z</time>
      </trkpt>
      <trkpt lat="47.8224" lon="-3.53433">
        <ele>8.01</ele>
        <time>2020-07-10T12:50:42Z</time>
      </trkpt>
      <trkpt lat="47.8224" lon="-3.53433">
        <ele>8.01</ele>
        <time>2020-07-10T12:50:43Z</time>
      </trkpt>
      <trkpt lat="47.8224" lon="-3.53433">
        <ele>8.01</ele>
        <time>2020-07-10T12:50:44Z</time>
      </trkpt>
      <trkpt lat="47.8224" lon="-3.53433">
        <ele>8.01</ele>
        <time>2020-07-10T12:50:45Z</time>
      </trkpt>
      <trkpt lat="47.8224" lon="-3.53433">
        <ele>8.01</ele>
        <time>2020-07-10T12:50:46Z</time>
      </trkpt>
      <trkpt lat="47.8224" lon="-3.53433">
        <ele>8.01</ele>
        <time>2020-07-10T12:50:47Z</time>
      </trkpt>
      <trkpt lat="47.8224" lon="-3.53433">
        <ele>8.01</ele>
        <time>2020-07-10T12:50:48Z</time>
      </trkpt>
      <trkpt lat="47.8224" lon="-3.53433">
        <ele>8.01</ele>
        <time>2020-07-10T12:50:49Z</time>
      </trkpt>
      <trkpt lat="47.8224" lon="-3.53433">
        <ele>8.01</ele>
        <time>2020-07-10T12:50:50Z</time>
      </trkpt>
      <trkpt lat="47.8224" lon="-3.53433">
        <ele>8.01</ele>
        <time>2020-07-10T12:50:51Z</time>
      </trkpt>
      <trkpt lat="47.8224" lon="-3.53433">
        <ele>8.01</ele>
        <time>2020-07-10T12:50:52Z</time>
      </trkpt>
      <trkpt lat="47.82243" lon="-3.53426">
        <ele>8.36</ele>
        <time>2020-07-10T12:50:53Z</time>
      </trkpt>
      <trkpt lat="47.82242" lon="-3.53427">
        <ele>8.37</ele>
        <time>2020-07-10T12:50:54Z</time>
      </trkpt>
      <trkpt lat="47.8224" lon="-3.53429">
        <ele>8.24</ele>
        <time>2020-07-10T12:50:55Z</time>
      </trkpt>
      <trkpt lat="47.82234" lon="-3.5343">
        <ele>7.81</ele>
        <time>2020-07-10T12:50:56Z</time>
      </trkpt>
      <trkpt lat="47.82228" lon="-3.53432">
        <ele>7.2</ele>
        <time>2020-07-10T12:50:57Z</time>
      </trkpt>
      <trkpt lat="47.82222" lon="-3.53433">
        <ele>6.52</ele>
        <time>2020-07-10T12:50:58Z</time>
      </trkpt>
      <trkpt lat="47.82215" lon="-3.53433">
        <ele>6.14</ele>
        <time>2020-07-10T12:50:59Z</time>
      </trkpt>
      <trkpt lat="47.82209" lon="-3.53434">
        <ele>5.82</ele>
        <time>2020-07-10T12:51:00Z</time>
      </trkpt>
      <trkpt lat="47.82205" lon="-3.53434">
        <ele>5.61</ele>
        <time>2020-07-10T12:51:01Z</time>
      </trkpt>
      <trkpt lat="47.82201" lon="-3.53433">
        <ele>5.52</ele>
        <time>2020-07-10T12:51:02Z</time>
      </trkpt>
      <trkpt lat="47.82197" lon="-3.53433">
        <ele>5.4</ele>
        <time>2020-07-10T12:51:03Z</time>
      </trkpt>
      <trkpt lat="47.82193" lon="-3.53433">
        <ele>5.22</ele>
        <time>2020-07-10T12:51:04Z</time>
      </trkpt>
      <trkpt lat="47.82189" lon="-3.53432">
        <ele>5.04</ele>
        <time>2020-07-10T12:51:05Z</time>
      </trkpt>
      <trkpt lat="47.82187" lon="-3.53433">
        <ele>4.88</ele>
        <time>2020-07-10T12:51:06Z</time>
      </trkpt>
      <trkpt lat="47.82186" lon="-3.5343">
        <ele>4.93</ele>
        <time>2020-07-10T12:51:07Z</time>
      </trkpt>
      <trkpt lat="47.82183" lon="-3.53425">
        <ele>5.06</ele>
        <time>2020-07-10T12:51:08Z</time>
      </trkpt>
      <trkpt lat="47.82181" lon="-3.5342">
        <ele>5.24</ele>
        <time>2020-07-10T12:51:09Z</time>
      </trkpt>
      <trkpt lat="47.8218" lon="-3.53415">
        <ele>5.55</ele>
        <time>2020-07-10T12:51:10Z</time>
      </trkpt>
      <trkpt lat="47.82178" lon="-3.53411">
        <ele>6.17</ele>
        <time>2020-07-10T12:51:11Z</time>
      </trkpt>
      <trkpt lat="47.82176" lon="-3.53406">
        <ele>6.79</ele>
        <time>2020-07-10T12:51:12Z</time>
      </trkpt>
      <trkpt lat="47.82175" lon="-3.53401">
        <ele>7.35</ele>
        <time>2020-07-10T12:51:13Z</time>
      </trkpt>
      <trkpt lat="47.82173" lon="-3.53396">
        <ele>7.7</ele>
        <time>2020-07-10T12:51:14Z</time>
      </trkpt>
      <trkpt lat="47.8217" lon="-3.53391">
        <ele>7.75</ele>
        <time>2020-07-10T12:51:15Z</time>
      </trkpt>
      <trkpt lat="47.82167" lon="-3.53387">
        <ele>7.74</ele>
        <time>2020-07-10T12:51:16Z</time>
      </trkpt>
      <trkpt lat="47.82164" lon="-3.53382">
        <ele>8.12</ele>
        <time>2020-07-10T12:51:17Z</time>
      </trkpt>
      <trkpt lat="47.82161" lon="-3.53378">
        <ele>8.48</ele>
        <time>2020-07-10T12:51:18Z</time>
      </trkpt>
      <trkpt lat="47.82158" lon="-3.53374">
        <ele>8.47</ele>
        <time>2020-07-10T12:51:19Z</time>
      </trkpt>
      <trkpt lat="47.82154" lon="-3.53371">
        <ele>8.27</ele>
        <time>2020-07-10T12:51:20Z</time>
      </trkpt>
      <trkpt lat="47.82151" lon="-3.53367">
        <ele>8.08</ele>
        <time>2020-07-10T12:51:21Z</time>
      </trkpt>
      <trkpt lat="47.82149" lon="-3.53363">
        <ele>7.74</ele>
        <time>2020-07-10T12:51:22Z</time>
      </trkpt>
      <trkpt lat="47.82147" lon="-3.53358">
        <ele>7.79</ele>
        <time>2020-07-10T12:51:23Z</time>
      </trkpt>
      <trkpt lat="47.82145" lon="-3.53353">
        <ele>8.33</ele>
        <time>2020-07-10T12:51:24Z</time>
      </trkpt>
      <trkpt lat="47.82143" lon="-3.53349">
        <ele>8.83</ele>
        <time>2020-07-10T12:51:25Z</time>
      </trkpt>
      <trkpt lat="47.82141" lon="-3.53345">
        <ele>9.02</ele>
        <time>2020-07-10T12:51:26Z</time>
      </trkpt>
      <trkpt lat="47.82138" lon="-3.53341">
        <ele>8.91</ele>
        <time>2020-07-10T12:51:27Z</time>
      </trkpt>
      <trkpt lat="47.82135" lon="-3.53338">
        <ele>8.93</ele>
        <time>2020-07-10T12:51:28Z</time>
      </trkpt>
      <trkpt lat="47.82133" lon="-3.53335">
        <ele>9.05</ele>
        <time>2020-07-10T12:51:29Z</time>
      </trkpt>
      <trkpt lat="47.82129" lon="-3.53332">
        <ele>9.08</ele>
        <time>2020-07-10T12:51:30Z</time>
      </trkpt>
      <trkpt lat="47.82125" lon="-3.53329">
        <ele>8.93</ele>
        <time>2020-07-10T12:51:31Z</time>
      </trkpt>
      <trkpt lat="47.82121" lon="-3.53327">
        <ele>8.61</ele>
        <time>2020-07-10T12:51:32Z</time>
      </trkpt>
      <trkpt lat="47.82118" lon="-3.53324">
        <ele>8.45</ele>
        <time>2020-07-10T12:51:33Z</time>
      </trkpt>
      <trkpt lat="47.82115" lon="-3.53321">
        <ele>8.35</ele>
        <time>2020-07-10T12:51:34Z</time>
      </trkpt>
      <trkpt lat="47.82111" lon="-3.53317">
        <ele>8.18</ele>
        <time>2020-07-10T12:51:35Z</time>
      </trkpt>
      <trkpt lat="47.82108" lon="-3.53313">
        <ele>8.21</ele>
        <time>2020-07-10T12:51:36Z</time>
      </trkpt>
      <trkpt lat="47.82105" lon="-3.53309">
        <ele>8.31</ele>
        <time>2020-07-10T12:51:37Z</time>
      </trkpt>
      <trkpt lat="47.82102" lon="-3.53305">
        <ele>8.58</ele>
        <time>2020-07-10T12:51:38Z</time>
      </trkpt>
      <trkpt lat="47.82099" lon="-3.53301">
        <ele>9.07</ele>
        <time>2020-07-10T12:51:39Z</time>
      </trkpt>
      <trkpt lat="47.82096" lon="-3.53297">
        <ele>9.56</ele>
        <time>2020-07-10T12:51:40Z</time>
      </trkpt>
      <trkpt lat="47.82093" lon="-3.53293">
        <ele>9.87</ele>
        <time>2020-07-10T12:51:41Z</time>
      </trkpt>
      <trkpt lat="47.8209" lon="-3.5329">
        <ele>10.08</ele>
        <time>2020-07-10T12:51:42Z</time>
      </trkpt>
      <trkpt lat="47.82088" lon="-3.53287">
        <ele>10.39</ele>
        <time>2020-07-10T12:51:43Z</time>
      </trkpt>
      <trkpt lat="47.82085" lon="-3.53284">
        <ele>10.47</ele>
        <time>2020-07-10T12:51:44Z</time>
      </trkpt>
      <trkpt lat="47.82082" lon="-3.53281">
        <ele>10.49</ele>
        <time>2020-07-10T12:51:45Z</time>
      </trkpt>
      <trkpt lat="47.82079" lon="-3.53279">
        <ele>10.32</ele>
        <time>2020-07-10T12:51:46Z</time>
      </trkpt>
      <trkpt lat="47.82076" lon="-3.53276">
        <ele>10.28</ele>
        <time>2020-07-10T12:51:47Z</time>
      </trkpt>
      <trkpt lat="47.82073" lon="-3.53274">
        <ele>10.44</ele>
        <time>2020-07-10T12:51:48Z</time>
      </trkpt>
      <trkpt lat="47.82071" lon="-3.53271">
        <ele>10.72</ele>
        <time>2020-07-10T12:51:49Z</time>
      </trkpt>
      <trkpt lat="47.82068" lon="-3.53268">
        <ele>10.91</ele>
        <time>2020-07-10T12:51:50Z</time>
      </trkpt>
      <trkpt lat="47.82065" lon="-3.53265">
        <ele>11.2</ele>
        <time>2020-07-10T12:51:51Z</time>
      </trkpt>
      <trkpt lat="47.82062" lon="-3.53262">
        <ele>11.63</ele>
        <time>2020-07-10T12:51:52Z</time>
      </trkpt>
      <trkpt lat="47.82059" lon="-3.53258">
        <ele>12.07</ele>
        <time>2020-07-10T12:51:53Z</time>
      </trkpt>
      <trkpt lat="47.82057" lon="-3.53255">
        <ele>12.47</ele>
        <time>2020-07-10T12:51:54Z</time>
      </trkpt>
      <trkpt lat="47.82054" lon="-3.53251">
        <ele>13.12</ele>
        <time>2020-07-10T12:51:55Z</time>
      </trkpt>
      <trkpt lat="47.8205" lon="-3.53247">
        <ele>13.75</ele>
        <time>2020-07-10T12:51:56Z</time>
      </trkpt>
      <trkpt lat="47.82046" lon="-3.53244">
        <ele>14.17</ele>
        <time>2020-07-10T12:51:57Z</time>
      </trkpt>
      <trkpt lat="47.82043" lon="-3.53243">
        <ele>14.37</ele>
        <time>2020-07-10T12:51:58Z</time>
      </trkpt>
      <trkpt lat="47.8204" lon="-3.53242">
        <ele>14.19</ele>
        <time>2020-07-10T12:51:59Z</time>
      </trkpt>
      <trkpt lat="47.82036" lon="-3.5324">
        <ele>14.09</ele>
        <time>2020-07-10T12:52:00Z</time>
      </trkpt>
      <trkpt lat="47.82034" lon="-3.53238">
        <ele>14.18</ele>
        <time>2020-07-10T12:52:01Z</time>
      </trkpt>
      <trkpt lat="47.82032" lon="-3.53236">
        <ele>14.19</ele>
        <time>2020-07-10T12:52:02Z</time>
      </trkpt>
      <trkpt lat="47.8203" lon="-3.53235">
        <ele>14.25</ele>
        <time>2020-07-10T12:52:03Z</time>
      </trkpt>
      <trkpt lat="47.8203" lon="-3.53234">
        <ele>14.33</ele>
        <time>2020-07-10T12:52:04Z</time>
      </trkpt>
      <trkpt lat="47.8203" lon="-3.53233">
        <ele>14.54</ele>
        <time>2020-07-10T12:52:05Z</time>
      </trkpt>
      <trkpt lat="47.8203" lon="-3.53234">
        <ele>14.4</ele>
        <time>2020-07-10T12:52:06Z</time>
      </trkpt>
      <trkpt lat="47.8203" lon="-3.53234">
        <ele>14.36</ele>
        <time>2020-07-10T12:52:07Z</time>
      </trkpt>
      <trkpt lat="47.8203" lon="-3.53234">
        <ele>14.35</ele>
        <time>2020-07-10T12:52:08Z</time>
      </trkpt>
      <trkpt lat="47.8203" lon="-3.53234">
        <ele>14.34</ele>
        <time>2020-07-10T12:52:09Z</time>
      </trkpt>
      <trkpt lat="47.8203" lon="-3.53234">
        <ele>14.34</ele>
        <time>2020-07-10T12:52:10Z</time>
      </trkpt>
      <trkpt lat="47.8203" lon="-3.53234">
        <ele>14.34</ele>
        <time>2020-07-10T12:52:11Z</time>
      </trkpt>
      <trkpt lat="47.8203" lon="-3.53234">
        <ele>14.34</ele>
        <time>2020-07-10T12:52:12Z</time>
      </trkpt>
      <trkpt lat="47.8203" lon="-3.53234">
        <ele>14.34</ele>
        <time>2020-07-10T12:52:13Z</time>
      </trkpt>
      <trkpt lat="47.8203" lon="-3.53234">
        <ele>14.34</ele>
        <time>2020-07-10T12:52:14Z</time>
      </trkpt>
      <trkpt lat="47.8203" lon="-3.53234">
        <ele>14.34</ele>
        <time>2020-07-10T12:52:15Z</time>
      </trkpt>
      <trkpt lat="47.8203" lon="-3.53234">
        <ele>14.34</ele>
        <time>2020-07-10T12:52:16Z</time>
      </trkpt>
      <trkpt lat="47.8203" lon="-3.53234">
        <ele>14.34</ele>
        <time>2020-07-10T12:52:17Z</time>
      </trkpt>
      <trkpt lat="47.8203" lon="-3.53234">
        <ele>14.34</ele>
        <time>2020-07-10T12:52:18Z</time>
      </trkpt>
      <trkpt lat="47.8203" lon="-3.53234">
        <ele>14.34</ele>
        <time>2020-07-10T12:52:19Z</time>
      </trkpt>
      <trkpt lat="47.8203" lon="-3.53234">
        <ele>14.34</ele>
        <time>2020-07-10T12:52:20Z</time>
      </trkpt>
      <trkpt lat="47.8203" lon="-3.53234">
        <ele>14.34</ele>
        <time>2020-07-10T12:52:21Z</time>
      </trkpt>
      <trkpt lat="47.8203" lon="-3.53234">
        <ele>14.34</ele>
        <time>2020-07-10T12:52:22Z</time>
      </trkpt>
      <trkpt lat="47.8203" lon="-3.53234">
        <ele>14.34</ele>
        <time>2020-07-10T12:52:23Z</time>
      </trkpt>
      <trkpt lat="47.8203" lon="-3.53234">
        <ele>14.34</ele>
        <time>2020-07-10T12:52:24Z</time>
      </trkpt>
      <trkpt lat="47.8203" lon="-3.53234">
        <ele>14.34</ele>
        <time>2020-07-10T12:52:25Z</time>
      </trkpt>
      <trkpt lat="47.8203" lon="-3.53234">
        <ele>14.34</ele>
        <time>2020-07-10T12:52:26Z</time>
      </trkpt>
      <trkpt lat="47.8203" lon="-3.53234">
        <ele>14.34</ele>
        <time>2020-07-10T12:52:27Z</time>
      </trkpt>
      <trkpt lat="47.8203" lon="-3.53234">
        <ele>14.34</ele>
        <time>2020-07-10T12:52:28Z</time>
      </trkpt>
      <trkpt lat="47.8203" lon="-3.53234">
        <ele>14.34</ele>
        <time>2020-07-10T12:52:29Z</time>
      </trkpt>
      <trkpt lat="47.8203" lon="-3.53234">
        <ele>14.34</ele>
        <time>2020-07-10T12:52:30Z</time>
      </trkpt>
      <trkpt lat="47.8203" lon="-3.53234">
        <ele>14.34</ele>
        <time>2020-07-10T12:52:31Z</time>
      </trkpt>
      <trkpt lat="47.82025" lon="-3.5322">
        <ele>16.62</ele>
        <time>2020-07-10T12:52:32Z</time>
      </trkpt>
      <trkpt lat="47.82022" lon="-3.53218">
        <ele>17.47</ele>
        <time>2020-07-10T12:52:33Z</time>
      </trkpt>
      <trkpt lat="47.82022" lon="-3.53216">
        <ele>18.15</ele>
        <time>2020-07-10T12:52:34Z</time>
      </trkpt>
      <trkpt lat="47.82021" lon="-3.53213">
        <ele>18.86</ele>
        <time>2020-07-10T12:52:35Z</time>
      </trkpt>
      <trkpt lat="47.8202" lon="-3.5321">
        <ele>19.53</ele>
        <time>2020-07-10T12:52:36Z</time>
      </trkpt>
      <trkpt lat="47.82019" lon="-3.53207">
        <ele>20.23</ele>
        <time>2020-07-10T12:52:37Z</time>
      </trkpt>
      <trkpt lat="47.82017" lon="-3.53204">
        <ele>20.82</ele>
        <time>2020-07-10T12:52:38Z</time>
      </trkpt>
      <trkpt lat="47.82016" lon="-3.53203">
        <ele>21.2</ele>
        <time>2020-07-10T12:52:39Z</time>
      </trkpt>
      <trkpt lat="47.82016" lon="-3.532">
        <ele>21.68</ele>
        <time>2020-07-10T12:52:40Z</time>
      </trkpt>
      <trkpt lat="47.82016" lon="-3.53198">
        <ele>22.18</ele>
        <time>2020-07-10T12:52:41Z</time>
      </trkpt>
      <trkpt lat="47.82016" lon="-3.53197">
        <ele>22.58</ele>
        <time>2020-07-10T12:52:42Z</time>
      </trkpt>
      <trkpt lat="47.82016" lon="-3.53195">
        <ele>22.94</ele>
        <time>2020-07-10T12:52:43Z</time>
      </trkpt>
      <trkpt lat="47.82016" lon="-3.53195">
        <ele>23.11</ele>
        <time>2020-07-10T12:52:44Z</time>
      </trkpt>
      <trkpt lat="47.82014" lon="-3.53194">
        <ele>23.16</ele>
        <time>2020-07-10T12:52:45Z</time>
      </trkpt>
      <trkpt lat="47.82013" lon="-3.53192">
        <ele>23.26</ele>
        <time>2020-07-10T12:52:46Z</time>
      </trkpt>
      <trkpt lat="47.82012" lon="-3.5319">
        <ele>23.45</ele>
        <time>2020-07-10T12:52:47Z</time>
      </trkpt>
      <trkpt lat="47.82012" lon="-3.53188">
        <ele>23.62</ele>
        <time>2020-07-10T12:52:48Z</time>
      </trkpt>
      <trkpt lat="47.82011" lon="-3.53187">
        <ele>23.88</ele>
        <time>2020-07-10T12:52:49Z</time>
      </trkpt>
      <trkpt lat="47.8201" lon="-3.53185">
        <ele>23.98</ele>
        <time>2020-07-10T12:52:50Z</time>
      </trkpt>
      <trkpt lat="47.82009" lon="-3.53184">
        <ele>24.09</ele>
        <time>2020-07-10T12:52:51Z</time>
      </trkpt>
      <trkpt lat="47.82008" lon="-3.53182">
        <ele>24.32</ele>
        <time>2020-07-10T12:52:52Z</time>
      </trkpt>
      <trkpt lat="47.82007" lon="-3.53181">
        <ele>24.47</ele>
        <time>2020-07-10T12:52:53Z</time>
      </trkpt>
      <trkpt lat="47.82006" lon="-3.5318">
        <ele>24.58</ele>
        <time>2020-07-10T12:52:54Z</time>
      </trkpt>
      <trkpt lat="47.82006" lon="-3.5318">
        <ele>24.62</ele>
        <time>2020-07-10T12:52:55Z</time>
      </trkpt>
      <trkpt lat="47.82006" lon="-3.5318">
        <ele>24.63</ele>
        <time>2020-07-10T12:52:56Z</time>
      </trkpt>
      <trkpt lat="47.82" lon="-3.53174">
        <ele>25.28</ele>
        <time>2020-07-10T12:52:57Z</time>
      </trkpt>
      <trkpt lat="47.81999" lon="-3.53171">
        <ele>25.86</ele>
        <time>2020-07-10T12:52:58Z</time>
      </trkpt>
      <trkpt lat="47.81999" lon="-3.5317">
        <ele>26.31</ele>
        <time>2020-07-10T12:52:59Z</time>
      </trkpt>
      <trkpt lat="47.81998" lon="-3.53169">
        <ele>26.58</ele>
        <time>2020-07-10T12:53:00Z</time>
      </trkpt>
      <trkpt lat="47.81999" lon="-3.53168">
        <ele>26.72</ele>
        <time>2020-07-10T12:53:01Z</time>
      </trkpt>
      <trkpt lat="47.81999" lon="-3.53168">
        <ele>26.79</ele>
        <time>2020-07-10T12:53:02Z</time>
      </trkpt>
      <trkpt lat="47.81999" lon="-3.53168">
        <ele>26.82</ele>
        <time>2020-07-10T12:53:03Z</time>
      </trkpt>
      <trkpt lat="47.81999" lon="-3.53168">
        <ele>26.82</ele>
        <time>2020-07-10T12:53:04Z</time>
      </trkpt>
      <trkpt lat="47.81999" lon="-3.53168">
        <ele>26.83</ele>
        <time>2020-07-10T12:53:05Z</time>
      </trkpt>
      <trkpt lat="47.81999" lon="-3.53168">
        <ele>26.83</ele>
        <time>2020-07-10T12:53:06Z</time>
      </trkpt>
      <trkpt lat="47.81999" lon="-3.53168">
        <ele>26.83</ele>
        <time>2020-07-10T12:53:07Z</time>
      </trkpt>
      <trkpt lat="47.81999" lon="-3.53168">
        <ele>26.83</ele>
        <time>2020-07-10T12:53:08Z</time>
      </trkpt>
      <trkpt lat="47.81999" lon="-3.53168">
        <ele>26.83</ele>
        <time>2020-07-10T12:53:09Z</time>
      </trkpt>
      <trkpt lat="47.81999" lon="-3.53168">
        <ele>26.83</ele>
        <time>2020-07-10T12:53:10Z</time>
      </trkpt>
      <trkpt lat="47.81999" lon="-3.53168">
        <ele>26.83</ele>
        <time>2020-07-10T12:53:11Z</time>
      </trkpt>
      <trkpt lat="47.81999" lon="-3.53168">
        <ele>26.83</ele>
        <time>2020-07-10T12:53:12Z</time>
      </trkpt>
      <trkpt lat="47.81999" lon="-3.53168">
        <ele>26.83</ele>
        <time>2020-07-10T12:53:13Z</time>
      </trkpt>
      <trkpt lat="47.81999" lon="-3.53168">
        <ele>26.83</ele>
        <time>2020-07-10T12:53:14Z</time>
      </trkpt>
      <trkpt lat="47.81999" lon="-3.53168">
        <ele>26.83</ele>
        <time>2020-07-10T12:53:15Z</time>
      </trkpt>
      <trkpt lat="47.81999" lon="-3.53168">
        <ele>26.83</ele>
        <time>2020-07-10T12:53:16Z</time>
      </trkpt>
      <trkpt lat="47.81999" lon="-3.53168">
        <ele>26.83</ele>
        <time>2020-07-10T12:53:17Z</time>
      </trkpt>
      <trkpt lat="47.81999" lon="-3.53168">
        <ele>26.83</ele>
        <time>2020-07-10T12:53:18Z</time>
      </trkpt>
      <trkpt lat="47.81999" lon="-3.53168">
        <ele>26.83</ele>
        <time>2020-07-10T12:53:19Z</time>
      </trkpt>
      <trkpt lat="47.81999" lon="-3.53168">
        <ele>26.83</ele>
        <time>2020-07-10T12:53:20Z</time>
      </trkpt>
      <trkpt lat="47.81999" lon="-3.53168">
        <ele>26.83</ele>
        <time>2020-07-10T12:53:21Z</time>
      </trkpt>
      <trkpt lat="47.81999" lon="-3.53168">
        <ele>26.83</ele>
        <time>2020-07-10T12:53:22Z</time>
      </trkpt>
      <trkpt lat="47.81993" lon="-3.53157">
        <ele>27.91</ele>
        <time>2020-07-10T12:53:23Z</time>
      </trkpt>
      <trkpt lat="47.8199" lon="-3.53156">
        <ele>28.41</ele>
        <time>2020-07-10T12:53:24Z</time>
      </trkpt>
      <trkpt lat="47.81989" lon="-3.53155">
        <ele>28.62</ele>
        <time>2020-07-10T12:53:25Z</time>
      </trkpt>
      <trkpt lat="47.81987" lon="-3.53155">
        <ele>28.76</ele>
        <time>2020-07-10T12:53:26Z</time>
      </trkpt>
      <trkpt lat="47.81987" lon="-3.53155">
        <ele>28.8</ele>
        <time>2020-07-10T12:53:27Z</time>
      </trkpt>
      <trkpt lat="47.81987" lon="-3.53155">
        <ele>28.81</ele>
        <time>2020-07-10T12:53:28Z</time>
      </trkpt>
      <trkpt lat="47.81987" lon="-3.53155">
        <ele>28.82</ele>
        <time>2020-07-10T12:53:29Z</time>
      </trkpt>
      <trkpt lat="47.81987" lon="-3.53155">
        <ele>28.82</ele>
        <time>2020-07-10T12:53:30Z</time>
      </trkpt>
      <trkpt lat="47.81987" lon="-3.53155">
        <ele>28.82</ele>
        <time>2020-07-10T12:53:31Z</time>
      </trkpt>
      <trkpt lat="47.81987" lon="-3.53155">
        <ele>28.82</ele>
        <time>2020-07-10T12:53:32Z</time>
      </trkpt>
      <trkpt lat="47.81987" lon="-3.53155">
        <ele>28.82</ele>
        <time>2020-07-10T12:53:33Z</time>
      </trkpt>
      <trkpt lat="47.81987" lon="-3.53155">
        <ele>28.82</ele>
        <time>2020-07-10T12:53:34Z</time>
      </trkpt>
      <trkpt lat="47.81978" lon="-3.53153">
        <ele>29.15</ele>
        <time>2020-07-10T12:53:35Z</time>
      </trkpt>
      <trkpt lat="47.81977" lon="-3.53153">
        <ele>29.27</ele>
        <time>2020-07-10T12:53:36Z</time>
      </trkpt>
      <trkpt lat="47.81976" lon="-3.53153">
        <ele>29.33</ele>
        <time>2020-07-10T12:53:37Z</time>
      </trkpt>
      <trkpt lat="47.81977" lon="-3.53152">
        <ele>29.37</ele>
        <time>2020-07-10T12:53:38Z</time>
      </trkpt>
      <trkpt lat="47.81977" lon="-3.53152">
        <ele>29.38</ele>
        <time>2020-07-10T12:53:39Z</time>
      </trkpt>
      <trkpt lat="47.81977" lon="-3.53152">
        <ele>29.38</ele>
        <time>2020-07-10T12:53:40Z</time>
      </trkpt>
      <trkpt lat="47.81977" lon="-3.53152">
        <ele>29.38</ele>
        <time>2020-07-10T12:53:41Z</time>
      </trkpt>
      <trkpt lat="47.81977" lon="-3.53152">
        <ele>29.38</ele>
        <time>2020-07-10T12:53:42Z</time>
      </trkpt>
      <trkpt lat="47.81977" lon="-3.53152">
        <ele>29.38</ele>
        <time>2020-07-10T12:53:43Z</time>
      </trkpt>
      <trkpt lat="47.81977" lon="-3.53152">
        <ele>29.38</ele>
        <time>2020-07-10T12:53:44Z</time>
      </trkpt>
      <trkpt lat="47.81977" lon="-3.53152">
        <ele>29.38</ele>
        <time>2020-07-10T12:53:45Z</time>
      </trkpt>
      <trkpt lat="47.81977" lon="-3.53152">
        <ele>29.38</ele>
        <time>2020-07-10T12:53:46Z</time>
      </trkpt>
      <trkpt lat="47.81977" lon="-3.53152">
        <ele>29.38</ele>
        <time>2020-07-10T12:53:47Z</time>
      </trkpt>
      <trkpt lat="47.81977" lon="-3.53152">
        <ele>29.38</ele>
        <time>2020-07-10T12:53:48Z</time>
      </trkpt>
      <trkpt lat="47.81977" lon="-3.53152">
        <ele>29.38</ele>
        <time>2020-07-10T12:53:49Z</time>
      </trkpt>
      <trkpt lat="47.81977" lon="-3.53152">
        <ele>29.38</ele>
        <time>2020-07-10T12:53:50Z</time>
      </trkpt>
      <trkpt lat="47.81977" lon="-3.53152">
        <ele>29.38</ele>
        <time>2020-07-10T12:53:51Z</time>
      </trkpt>
      <trkpt lat="47.81973" lon="-3.53155">
        <ele>29.38</ele>
        <time>2020-07-10T12:53:52Z</time>
      </trkpt>
      <trkpt lat="47.81972" lon="-3.53155">
        <ele>29.41</ele>
        <time>2020-07-10T12:53:53Z</time>
      </trkpt>
      <trkpt lat="47.81971" lon="-3.53155">
        <ele>29.44</ele>
        <time>2020-07-10T12:53:54Z</time>
      </trkpt>
      <trkpt lat="47.81971" lon="-3.53156">
        <ele>29.45</ele>
        <time>2020-07-10T12:53:55Z</time>
      </trkpt>
      <trkpt lat="47.81971" lon="-3.53156">
        <ele>29.46</ele>
        <time>2020-07-10T12:53:56Z</time>
      </trkpt>
      <trkpt lat="47.81971" lon="-3.53156">
        <ele>29.46</ele>
        <time>2020-07-10T12:53:57Z</time>
      </trkpt>
      <trkpt lat="47.81971" lon="-3.53156">
        <ele>29.46</ele>
        <time>2020-07-10T12:53:58Z</time>
      </trkpt>
      <trkpt lat="47.81971" lon="-3.53156">
        <ele>29.46</ele>
        <time>2020-07-10T12:53:59Z</time>
      </trkpt>
      <trkpt lat="47.81968" lon="-3.53162">
        <ele>29.47</ele>
        <time>2020-07-10T12:54:00Z</time>
      </trkpt>
      <trkpt lat="47.81967" lon="-3.53163">
        <ele>29.53</ele>
        <time>2020-07-10T12:54:01Z</time>
      </trkpt>
      <trkpt lat="47.81966" lon="-3.53164">
        <ele>29.55</ele>
        <time>2020-07-10T12:54:02Z</time>
      </trkpt>
      <trkpt lat="47.81965" lon="-3.53165">
        <ele>29.57</ele>
        <time>2020-07-10T12:54:03Z</time>
      </trkpt>
      <trkpt lat="47.81963" lon="-3.53167">
        <ele>29.63</ele>
        <time>2020-07-10T12:54:04Z</time>
      </trkpt>
      <trkpt lat="47.81961" lon="-3.53168">
        <ele>29.68</ele>
        <time>2020-07-10T12:54:05Z</time>
      </trkpt>
      <trkpt lat="47.8196" lon="-3.53169">
        <ele>29.75</ele>
        <time>2020-07-10T12:54:06Z</time>
      </trkpt>
      <trkpt lat="47.81958" lon="-3.5317">
        <ele>29.83</ele>
        <time>2020-07-10T12:54:07Z</time>
      </trkpt>
      <trkpt lat="47.81956" lon="-3.53171">
        <ele>29.93</ele>
        <time>2020-07-10T12:54:08Z</time>
      </trkpt>
      <trkpt lat="47.81954" lon="-3.53172">
        <ele>30.01</ele>
        <time>2020-07-10T12:54:09Z</time>
      </trkpt>
      <trkpt lat="47.81953" lon="-3.53174">
        <ele>30.01</ele>
        <time>2020-07-10T12:54:10Z</time>
      </trkpt>
      <trkpt lat="47.81952" lon="-3.53178">
        <ele>29.95</ele>
        <time>2020-07-10T12:54:11Z</time>
      </trkpt>
      <trkpt lat="47.81951" lon="-3.53182">
        <ele>29.88</ele>
        <time>2020-07-10T12:54:12Z</time>
      </trkpt>
      <trkpt lat="47.8195" lon="-3.53187">
        <ele>29.81</ele>
        <time>2020-07-10T12:54:13Z</time>
      </trkpt>
      <trkpt lat="47.81948" lon="-3.53192">
        <ele>29.77</ele>
        <time>2020-07-10T12:54:14Z</time>
      </trkpt>
      <trkpt lat="47.81945" lon="-3.53197">
        <ele>29.68</ele>
        <time>2020-07-10T12:54:15Z</time>
      </trkpt>
      <trkpt lat="47.81943" lon="-3.53203">
        <ele>29.38</ele>
        <time>2020-07-10T12:54:16Z</time>
      </trkpt>
      <trkpt lat="47.81942" lon="-3.53208">
        <ele>28.94</ele>
        <time>2020-07-10T12:54:17Z</time>
      </trkpt>
      <trkpt lat="47.81941" lon="-3.53214">
        <ele>28.44</ele>
        <time>2020-07-10T12:54:18Z</time>
      </trkpt>
      <trkpt lat="47.81938" lon="-3.5322">
        <ele>28.03</ele>
        <time>2020-07-10T12:54:19Z</time>
      </trkpt>
      <trkpt lat="47.81934" lon="-3.53225">
        <ele>27.95</ele>
        <time>2020-07-10T12:54:20Z</time>
      </trkpt>
      <trkpt lat="47.8193" lon="-3.53228">
        <ele>28.12</ele>
        <time>2020-07-10T12:54:21Z</time>
      </trkpt>
      <trkpt lat="47.81925" lon="-3.53232">
        <ele>28.42</ele>
        <time>2020-07-10T12:54:22Z</time>
      </trkpt>
      <trkpt lat="47.81921" lon="-3.53236">
        <ele>28.8</ele>
        <time>2020-07-10T12:54:23Z</time>
      </trkpt>
      <trkpt lat="47.81917" lon="-3.5324">
        <ele>29.22</ele>
        <time>2020-07-10T12:54:24Z</time>
      </trkpt>
      <trkpt lat="47.81911" lon="-3.53244">
        <ele>29.87</ele>
        <time>2020-07-10T12:54:25Z</time>
      </trkpt>
      <trkpt lat="47.81907" lon="-3.53247">
        <ele>30.57</ele>
        <time>2020-07-10T12:54:26Z</time>
      </trkpt>
      <trkpt lat="47.81902" lon="-3.5325">
        <ele>31.24</ele>
        <time>2020-07-10T12:54:27Z</time>
      </trkpt>
      <trkpt lat="47.81899" lon="-3.53253">
        <ele>31.55</ele>
        <time>2020-07-10T12:54:28Z</time>
      </trkpt>
      <trkpt lat="47.81897" lon="-3.53257">
        <ele>31.69</ele>
        <time>2020-07-10T12:54:29Z</time>
      </trkpt>
      <trkpt lat="47.81895" lon="-3.5326">
        <ele>31.75</ele>
        <time>2020-07-10T12:54:30Z</time>
      </trkpt>
      <trkpt lat="47.81893" lon="-3.53262">
        <ele>31.79</ele>
        <time>2020-07-10T12:54:31Z</time>
      </trkpt>
      <trkpt lat="47.81892" lon="-3.53264">
        <ele>31.88</ele>
        <time>2020-07-10T12:54:32Z</time>
      </trkpt>
      <trkpt lat="47.81891" lon="-3.53266">
        <ele>31.89</ele>
        <time>2020-07-10T12:54:33Z</time>
      </trkpt>
      <trkpt lat="47.81888" lon="-3.53269">
        <ele>32.02</ele>
        <time>2020-07-10T12:54:34Z</time>
      </trkpt>
      <trkpt lat="47.81886" lon="-3.53273">
        <ele>32.1</ele>
        <time>2020-07-10T12:54:35Z</time>
      </trkpt>
      <trkpt lat="47.81885" lon="-3.53275">
        <ele>32.08</ele>
        <time>2020-07-10T12:54:36Z</time>
      </trkpt>
      <trkpt lat="47.81884" lon="-3.53278">
        <ele>32.04</ele>
        <time>2020-07-10T12:54:37Z</time>
      </trkpt>
      <trkpt lat="47.81882" lon="-3.53281">
        <ele>32.05</ele>
        <time>2020-07-10T12:54:38Z</time>
      </trkpt>
      <trkpt lat="47.81879" lon="-3.53283">
        <ele>32.27</ele>
        <time>2020-07-10T12:54:39Z</time>
      </trkpt>
      <trkpt lat="47.81877" lon="-3.53285">
        <ele>32.47</ele>
        <time>2020-07-10T12:54:40Z</time>
      </trkpt>
      <trkpt lat="47.81875" lon="-3.53288">
        <ele>32.49</ele>
        <time>2020-07-10T12:54:41Z</time>
      </trkpt>
      <trkpt lat="47.81873" lon="-3.5329">
        <ele>32.66</ele>
        <time>2020-07-10T12:54:42Z</time>
      </trkpt>
      <trkpt lat="47.81871" lon="-3.53293">
        <ele>32.78</ele>
        <time>2020-07-10T12:54:43Z</time>
      </trkpt>
      <trkpt lat="47.81869" lon="-3.53295">
        <ele>32.85</ele>
        <time>2020-07-10T12:54:44Z</time>
      </trkpt>
      <trkpt lat="47.81867" lon="-3.53297">
        <ele>32.87</ele>
        <time>2020-07-10T12:54:45Z</time>
      </trkpt>
      <trkpt lat="47.81865" lon="-3.533">
        <ele>32.86</ele>
        <time>2020-07-10T12:54:46Z</time>
      </trkpt>
      <trkpt lat="47.81863" lon="-3.53302">
        <ele>32.95</ele>
        <time>2020-07-10T12:54:47Z</time>
      </trkpt>
      <trkpt lat="47.81861" lon="-3.53304">
        <ele>33.12</ele>
        <time>2020-07-10T12:54:48Z</time>
      </trkpt>
      <trkpt lat="47.81858" lon="-3.53306">
        <ele>33.31</ele>
        <time>2020-07-10T12:54:49Z</time>
      </trkpt>
      <trkpt lat="47.81855" lon="-3.53308">
        <ele>33.52</ele>
        <time>2020-07-10T12:54:50Z</time>
      </trkpt>
      <trkpt lat="47.81852" lon="-3.5331">
        <ele>33.68</ele>
        <time>2020-07-10T12:54:51Z</time>
      </trkpt>
      <trkpt lat="47.81849" lon="-3.53311">
        <ele>33.87</ele>
        <time>2020-07-10T12:54:52Z</time>
      </trkpt>
      <trkpt lat="47.81847" lon="-3.53312">
        <ele>34.1</ele>
        <time>2020-07-10T12:54:53Z</time>
      </trkpt>
      <trkpt lat="47.81845" lon="-3.53313">
        <ele>34.32</ele>
        <time>2020-07-10T12:54:54Z</time>
      </trkpt>
      <trkpt lat="47.81843" lon="-3.53313">
        <ele>34.59</ele>
        <time>2020-07-10T12:54:55Z</time>
      </trkpt>
      <trkpt lat="47.81842" lon="-3.53313">
        <ele>34.82</ele>
        <time>2020-07-10T12:54:56Z</time>
      </trkpt>
      <trkpt lat="47.81841" lon="-3.53313">
        <ele>34.99</ele>
        <time>2020-07-10T12:54:57Z</time>
      </trkpt>
      <trkpt lat="47.81841" lon="-3.53313">
        <ele>35.05</ele>
        <time>2020-07-10T12:54:58Z</time>
      </trkpt>
      <trkpt lat="47.81841" lon="-3.53313">
        <ele>35.06</ele>
        <time>2020-07-10T12:54:59Z</time>
      </trkpt>
      <trkpt lat="47.81841" lon="-3.53313">
        <ele>35.07</ele>
        <time>2020-07-10T12:55:00Z</time>
      </trkpt>
      <trkpt lat="47.81841" lon="-3.53313">
        <ele>35.07</ele>
        <time>2020-07-10T12:55:01Z</time>
      </trkpt>
      <trkpt lat="47.81841" lon="-3.53313">
        <ele>35.07</ele>
        <time>2020-07-10T12:55:02Z</time>
      </trkpt>
      <trkpt lat="47.81841" lon="-3.53313">
        <ele>35.07</ele>
        <time>2020-07-10T12:55:03Z</time>
      </trkpt>
      <trkpt lat="47.81841" lon="-3.53313">
        <ele>35.07</ele>
        <time>2020-07-10T12:55:04Z</time>
      </trkpt>
      <trkpt lat="47.81841" lon="-3.53313">
        <ele>35.07</ele>
        <time>2020-07-10T12:55:05Z</time>
      </trkpt>
      <trkpt lat="47.81841" lon="-3.53313">
        <ele>35.07</ele>
        <time>2020-07-10T12:55:06Z</time>
      </trkpt>
      <trkpt lat="47.81841" lon="-3.53313">
        <ele>35.07</ele>
        <time>2020-07-10T12:55:07Z</time>
      </trkpt>
      <trkpt lat="47.81841" lon="-3.53313">
        <ele>35.07</ele>
        <time>2020-07-10T12:55:08Z</time>
      </trkpt>
      <trkpt lat="47.81841" lon="-3.53313">
        <ele>35.07</ele>
        <time>2020-07-10T12:55:09Z</time>
      </trkpt>
      <trkpt lat="47.81841" lon="-3.53313">
        <ele>35.07</ele>
        <time>2020-07-10T12:55:10Z</time>
      </trkpt>
      <trkpt lat="47.81841" lon="-3.53313">
        <ele>35.07</ele>
        <time>2020-07-10T12:55:11Z</time>
      </trkpt>
      <trkpt lat="47.81841" lon="-3.53313">
        <ele>35.07</ele>
        <time>2020-07-10T12:55:12Z</time>
      </trkpt>
      <trkpt lat="47.81841" lon="-3.53313">
        <ele>35.07</ele>
        <time>2020-07-10T12:55:13Z</time>
      </trkpt>
      <trkpt lat="47.81841" lon="-3.53313">
        <ele>35.07</ele>
        <time>2020-07-10T12:55:14Z</time>
      </trkpt>
      <trkpt lat="47.81841" lon="-3.53313">
        <ele>35.07</ele>
        <time>2020-07-10T12:55:15Z</time>
      </trkpt>
      <trkpt lat="47.81842" lon="-3.53319">
        <ele>34.43</ele>
        <time>2020-07-10T12:55:16Z</time>
      </trkpt>
      <trkpt lat="47.81842" lon="-3.53322">
        <ele>33.99</ele>
        <time>2020-07-10T12:55:17Z</time>
      </trkpt>
      <trkpt lat="47.81842" lon="-3.53324">
        <ele>33.6</ele>
        <time>2020-07-10T12:55:18Z</time>
      </trkpt>
      <trkpt lat="47.81842" lon="-3.53327">
        <ele>33.28</ele>
        <time>2020-07-10T12:55:19Z</time>
      </trkpt>
      <trkpt lat="47.81843" lon="-3.5333">
        <ele>32.76</ele>
        <time>2020-07-10T12:55:20Z</time>
      </trkpt>
      <trkpt lat="47.81844" lon="-3.53333">
        <ele>32.26</ele>
        <time>2020-07-10T12:55:21Z</time>
      </trkpt>
      <trkpt lat="47.81845" lon="-3.53337">
        <ele>31.73</ele>
        <time>2020-07-10T12:55:22Z</time>
      </trkpt>
      <trkpt lat="47.81844" lon="-3.5334">
        <ele>31.34</ele>
        <time>2020-07-10T12:55:23Z</time>
      </trkpt>
      <trkpt lat="47.81843" lon="-3.53343">
        <ele>30.93</ele>
        <time>2020-07-10T12:55:24Z</time>
      </trkpt>
      <trkpt lat="47.81843" lon="-3.53347">
        <ele>30.49</ele>
        <time>2020-07-10T12:55:25Z</time>
      </trkpt>
      <trkpt lat="47.81842" lon="-3.53352">
        <ele>30.03</ele>
        <time>2020-07-10T12:55:26Z</time>
      </trkpt>
      <trkpt lat="47.8184" lon="-3.53355">
        <ele>29.71</ele>
        <time>2020-07-10T12:55:27Z</time>
      </trkpt>
      <trkpt lat="47.8184" lon="-3.53359">
        <ele>29.26</ele>
        <time>2020-07-10T12:55:28Z</time>
      </trkpt>
      <trkpt lat="47.81839" lon="-3.53363">
        <ele>28.6</ele>
        <time>2020-07-10T12:55:29Z</time>
      </trkpt>
      <trkpt lat="47.81838" lon="-3.53365">
        <ele>27.97</ele>
        <time>2020-07-10T12:55:30Z</time>
      </trkpt>
      <trkpt lat="47.81836" lon="-3.53368">
        <ele>27.41</ele>
        <time>2020-07-10T12:55:31Z</time>
      </trkpt>
      <trkpt lat="47.81835" lon="-3.53372">
        <ele>26.49</ele>
        <time>2020-07-10T12:55:32Z</time>
      </trkpt>
      <trkpt lat="47.81834" lon="-3.53377">
        <ele>25.37</ele>
        <time>2020-07-10T12:55:33Z</time>
      </trkpt>
      <trkpt lat="47.81833" lon="-3.53381">
        <ele>24.22</ele>
        <time>2020-07-10T12:55:34Z</time>
      </trkpt>
      <trkpt lat="47.81831" lon="-3.53384">
        <ele>23.24</ele>
        <time>2020-07-10T12:55:35Z</time>
      </trkpt>
      <trkpt lat="47.81829" lon="-3.53388">
        <ele>22.49</ele>
        <time>2020-07-10T12:55:36Z</time>
      </trkpt>
      <trkpt lat="47.81827" lon="-3.53391">
        <ele>22.02</ele>
        <time>2020-07-10T12:55:37Z</time>
      </trkpt>
      <trkpt lat="47.81823" lon="-3.53393">
        <ele>21.93</ele>
        <time>2020-07-10T12:55:38Z</time>
      </trkpt>
      <trkpt lat="47.8182" lon="-3.53394">
        <ele>22.06</ele>
        <time>2020-07-10T12:55:39Z</time>
      </trkpt>
      <trkpt lat="47.81817" lon="-3.53396">
        <ele>22.18</ele>
        <time>2020-07-10T12:55:40Z</time>
      </trkpt>
      <trkpt lat="47.81814" lon="-3.53398">
        <ele>22.21</ele>
        <time>2020-07-10T12:55:41Z</time>
      </trkpt>
      <trkpt lat="47.81812" lon="-3.534">
        <ele>22.14</ele>
        <time>2020-07-10T12:55:42Z</time>
      </trkpt>
      <trkpt lat="47.8181" lon="-3.53403">
        <ele>21.78</ele>
        <time>2020-07-10T12:55:43Z</time>
      </trkpt>
      <trkpt lat="47.81807" lon="-3.53405">
        <ele>21.4</ele>
        <time>2020-07-10T12:55:44Z</time>
      </trkpt>
      <trkpt lat="47.81806" lon="-3.53409">
        <ele>20.64</ele>
        <time>2020-07-10T12:55:45Z</time>
      </trkpt>
      <trkpt lat="47.81805" lon="-3.53413">
        <ele>19.65</ele>
        <time>2020-07-10T12:55:46Z</time>
      </trkpt>
      <trkpt lat="47.81803" lon="-3.53417">
        <ele>18.65</ele>
        <time>2020-07-10T12:55:47Z</time>
      </trkpt>
      <trkpt lat="47.81802" lon="-3.53419">
        <ele>17.89</ele>
        <time>2020-07-10T12:55:48Z</time>
      </trkpt>
      <trkpt lat="47.81802" lon="-3.53422">
        <ele>17.22</ele>
        <time>2020-07-10T12:55:49Z</time>
      </trkpt>
      <trkpt lat="47.81801" lon="-3.53424">
        <ele>16.49</ele>
        <time>2020-07-10T12:55:50Z</time>
      </trkpt>
      <trkpt lat="47.818" lon="-3.53427">
        <ele>15.78</ele>
        <time>2020-07-10T12:55:51Z</time>
      </trkpt>
      <trkpt lat="47.81798" lon="-3.53429">
        <ele>15.26</ele>
        <time>2020-07-10T12:55:52Z</time>
      </trkpt>
      <trkpt lat="47.81797" lon="-3.53431">
        <ele>14.75</ele>
        <time>2020-07-10T12:55:53Z</time>
      </trkpt>
      <trkpt lat="47.81795" lon="-3.53434">
        <ele>14.19</ele>
        <time>2020-07-10T12:55:54Z</time>
      </trkpt>
      <trkpt lat="47.81794" lon="-3.53436">
        <ele>13.67</ele>
        <time>2020-07-10T12:55:55Z</time>
      </trkpt>
      <trkpt lat="47.81793" lon="-3.53436">
        <ele>13.46</ele>
        <time>2020-07-10T12:55:56Z</time>
      </trkpt>
      <trkpt lat="47.81793" lon="-3.53437">
        <ele>13.16</ele>
        <time>2020-07-10T12:55:57Z</time>
      </trkpt>
      <trkpt lat="47.81793" lon="-3.53437">
        <ele>13.07</ele>
        <time>2020-07-10T12:55:58Z</time>
      </trkpt>
      <trkpt lat="47.81793" lon="-3.53437">
        <ele>13.04</ele>
        <time>2020-07-10T12:55:59Z</time>
      </trkpt>
      <trkpt lat="47.81793" lon="-3.53437">
        <ele>13.03</ele>
        <time>2020-07-10T12:56:00Z</time>
      </trkpt>
      <trkpt lat="47.81793" lon="-3.53437">
        <ele>13.03</ele>
        <time>2020-07-10T12:56:01Z</time>
      </trkpt>
      <trkpt lat="47.8179" lon="-3.53448">
        <ele>11.17</ele>
        <time>2020-07-10T12:56:02Z</time>
      </trkpt>
      <trkpt lat="47.8179" lon="-3.5345">
        <ele>10.35</ele>
        <time>2020-07-10T12:56:03Z</time>
      </trkpt>
      <trkpt lat="47.81791" lon="-3.5345">
        <ele>9.97</ele>
        <time>2020-07-10T12:56:04Z</time>
      </trkpt>
      <trkpt lat="47.81794" lon="-3.53451">
        <ele>9.63</ele>
        <time>2020-07-10T12:56:05Z</time>
      </trkpt>
      <trkpt lat="47.81796" lon="-3.53453">
        <ele>9.2</ele>
        <time>2020-07-10T12:56:06Z</time>
      </trkpt>
      <trkpt lat="47.81797" lon="-3.53454">
        <ele>8.85</ele>
        <time>2020-07-10T12:56:07Z</time>
      </trkpt>
      <trkpt lat="47.81798" lon="-3.53457">
        <ele>8.41</ele>
        <time>2020-07-10T12:56:08Z</time>
      </trkpt>
      <trkpt lat="47.81797" lon="-3.53458">
        <ele>8.11</ele>
        <time>2020-07-10T12:56:09Z</time>
      </trkpt>
      <trkpt lat="47.81797" lon="-3.53461">
        <ele>7.68</ele>
        <time>2020-07-10T12:56:10Z</time>
      </trkpt>
      <trkpt lat="47.81796" lon="-3.53463">
        <ele>7.24</ele>
        <time>2020-07-10T12:56:11Z</time>
      </trkpt>
      <trkpt lat="47.81793" lon="-3.53466">
        <ele>6.85</ele>
        <time>2020-07-10T12:56:12Z</time>
      </trkpt>
      <trkpt lat="47.81793" lon="-3.53469">
        <ele>6.33</ele>
        <time>2020-07-10T12:56:13Z</time>
      </trkpt>
      <trkpt lat="47.81791" lon="-3.53471">
        <ele>5.95</ele>
        <time>2020-07-10T12:56:14Z</time>
      </trkpt>
      <trkpt lat="47.8179" lon="-3.53472">
        <ele>5.75</ele>
        <time>2020-07-10T12:56:15Z</time>
      </trkpt>
      <trkpt lat="47.81789" lon="-3.53472">
        <ele>5.65</ele>
        <time>2020-07-10T12:56:16Z</time>
      </trkpt>
      <trkpt lat="47.81787" lon="-3.53474">
        <ele>5.56</ele>
        <time>2020-07-10T12:56:17Z</time>
      </trkpt>
      <trkpt lat="47.81785" lon="-3.53476">
        <ele>5.51</ele>
        <time>2020-07-10T12:56:18Z</time>
      </trkpt>
      <trkpt lat="47.81782" lon="-3.53478">
        <ele>5.49</ele>
        <time>2020-07-10T12:56:19Z</time>
      </trkpt>
      <trkpt lat="47.8178" lon="-3.53479">
        <ele>5.46</ele>
        <time>2020-07-10T12:56:20Z</time>
      </trkpt>
      <trkpt lat="47.81779" lon="-3.5348">
        <ele>5.44</ele>
        <time>2020-07-10T12:56:21Z</time>
      </trkpt>
      <trkpt lat="47.81779" lon="-3.53479">
        <ele>5.46</ele>
        <time>2020-07-10T12:56:22Z</time>
      </trkpt>
      <trkpt lat="47.81777" lon="-3.5348">
        <ele>5.48</ele>
        <time>2020-07-10T12:56:23Z</time>
      </trkpt>
      <trkpt lat="47.81775" lon="-3.53483">
        <ele>5.45</ele>
        <time>2020-07-10T12:56:24Z</time>
      </trkpt>
      <trkpt lat="47.81775" lon="-3.53486">
        <ele>5.32</ele>
        <time>2020-07-10T12:56:25Z</time>
      </trkpt>
      <trkpt lat="47.81773" lon="-3.53487">
        <ele>5.26</ele>
        <time>2020-07-10T12:56:26Z</time>
      </trkpt>
      <trkpt lat="47.81771" lon="-3.5349">
        <ele>5.21</ele>
        <time>2020-07-10T12:56:27Z</time>
      </trkpt>
      <trkpt lat="47.8177" lon="-3.53491">
        <ele>5.13</ele>
        <time>2020-07-10T12:56:28Z</time>
      </trkpt>
      <trkpt lat="47.8177" lon="-3.53493">
        <ele>5</ele>
        <time>2020-07-10T12:56:29Z</time>
      </trkpt>
      <trkpt lat="47.8177" lon="-3.53494">
        <ele>4.9</ele>
        <time>2020-07-10T12:56:30Z</time>
      </trkpt>
      <trkpt lat="47.81769" lon="-3.53494">
        <ele>4.86</ele>
        <time>2020-07-10T12:56:31Z</time>
      </trkpt>
      <trkpt lat="47.81769" lon="-3.53494">
        <ele>4.85</ele>
        <time>2020-07-10T12:56:32Z</time>
      </trkpt>
      <trkpt lat="47.81769" lon="-3.53494">
        <ele>4.85</ele>
        <time>2020-07-10T12:56:33Z</time>
      </trkpt>
      <trkpt lat="47.81769" lon="-3.53494">
        <ele>4.84</ele>
        <time>2020-07-10T12:56:34Z</time>
      </trkpt>
      <trkpt lat="47.81769" lon="-3.53494">
        <ele>4.84</ele>
        <time>2020-07-10T12:56:35Z</time>
      </trkpt>
      <trkpt lat="47.81759" lon="-3.53492">
        <ele>5.44</ele>
        <time>2020-07-10T12:56:36Z</time>
      </trkpt>
      <trkpt lat="47.81756" lon="-3.53492">
        <ele>5.74</ele>
        <time>2020-07-10T12:56:37Z</time>
      </trkpt>
      <trkpt lat="47.81753" lon="-3.53492">
        <ele>5.95</ele>
        <time>2020-07-10T12:56:38Z</time>
      </trkpt>
      <trkpt lat="47.81751" lon="-3.53492">
        <ele>6.02</ele>
        <time>2020-07-10T12:56:39Z</time>
      </trkpt>
      <trkpt lat="47.8175" lon="-3.53493">
        <ele>6.04</ele>
        <time>2020-07-10T12:56:40Z</time>
      </trkpt>
      <trkpt lat="47.81751" lon="-3.53496">
        <ele>5.73</ele>
        <time>2020-07-10T12:56:41Z</time>
      </trkpt>
      <trkpt lat="47.8175" lon="-3.53497">
        <ele>5.52</ele>
        <time>2020-07-10T12:56:42Z</time>
      </trkpt>
      <trkpt lat="47.81748" lon="-3.53498">
        <ele>5.47</ele>
        <time>2020-07-10T12:56:43Z</time>
      </trkpt>
      <trkpt lat="47.81748" lon="-3.53499">
        <ele>5.38</ele>
        <time>2020-07-10T12:56:44Z</time>
      </trkpt>
      <trkpt lat="47.81746" lon="-3.53499">
        <ele>5.38</ele>
        <time>2020-07-10T12:56:45Z</time>
      </trkpt>
      <trkpt lat="47.81745" lon="-3.535">
        <ele>5.33</ele>
        <time>2020-07-10T12:56:46Z</time>
      </trkpt>
      <trkpt lat="47.81744" lon="-3.53501">
        <ele>5.35</ele>
        <time>2020-07-10T12:56:47Z</time>
      </trkpt>
      <trkpt lat="47.81743" lon="-3.53502">
        <ele>5.38</ele>
        <time>2020-07-10T12:56:48Z</time>
      </trkpt>
      <trkpt lat="47.81741" lon="-3.53503">
        <ele>5.43</ele>
        <time>2020-07-10T12:56:49Z</time>
      </trkpt>
      <trkpt lat="47.8174" lon="-3.53503">
        <ele>5.48</ele>
        <time>2020-07-10T12:56:50Z</time>
      </trkpt>
      <trkpt lat="47.81738" lon="-3.53504">
        <ele>5.55</ele>
        <time>2020-07-10T12:56:51Z</time>
      </trkpt>
      <trkpt lat="47.81736" lon="-3.53504">
        <ele>5.65</ele>
        <time>2020-07-10T12:56:52Z</time>
      </trkpt>
      <trkpt lat="47.81734" lon="-3.53506">
        <ele>5.7</ele>
        <time>2020-07-10T12:56:53Z</time>
      </trkpt>
      <trkpt lat="47.81733" lon="-3.53509">
        <ele>5.54</ele>
        <time>2020-07-10T12:56:54Z</time>
      </trkpt>
      <trkpt lat="47.81732" lon="-3.5351">
        <ele>5.49</ele>
        <time>2020-07-10T12:56:55Z</time>
      </trkpt>
      <trkpt lat="47.81733" lon="-3.5351">
        <ele>5.42</ele>
        <time>2020-07-10T12:56:56Z</time>
      </trkpt>
      <trkpt lat="47.81733" lon="-3.53511">
        <ele>5.37</ele>
        <time>2020-07-10T12:56:57Z</time>
      </trkpt>
      <trkpt lat="47.81733" lon="-3.53511">
        <ele>5.36</ele>
        <time>2020-07-10T12:56:58Z</time>
      </trkpt>
      <trkpt lat="47.81733" lon="-3.53511">
        <ele>5.35</ele>
        <time>2020-07-10T12:56:59Z</time>
      </trkpt>
      <trkpt lat="47.81733" lon="-3.53511">
        <ele>5.35</ele>
        <time>2020-07-10T12:57:00Z</time>
      </trkpt>
      <trkpt lat="47.81733" lon="-3.53511">
        <ele>5.35</ele>
        <time>2020-07-10T12:57:01Z</time>
      </trkpt>
      <trkpt lat="47.81733" lon="-3.53511">
        <ele>5.35</ele>
        <time>2020-07-10T12:57:02Z</time>
      </trkpt>
      <trkpt lat="47.81731" lon="-3.5352">
        <ele>4.85</ele>
        <time>2020-07-10T12:57:03Z</time>
      </trkpt>
      <trkpt lat="47.8173" lon="-3.53523">
        <ele>4.53</ele>
        <time>2020-07-10T12:57:04Z</time>
      </trkpt>
      <trkpt lat="47.81728" lon="-3.53526">
        <ele>4.3</ele>
        <time>2020-07-10T12:57:05Z</time>
      </trkpt>
      <trkpt lat="47.81725" lon="-3.53527">
        <ele>4.14</ele>
        <time>2020-07-10T12:57:06Z</time>
      </trkpt>
      <trkpt lat="47.81722" lon="-3.53528">
        <ele>4.04</ele>
        <time>2020-07-10T12:57:07Z</time>
      </trkpt>
      <trkpt lat="47.8172" lon="-3.53528">
        <ele>4.05</ele>
        <time>2020-07-10T12:57:08Z</time>
      </trkpt>
      <trkpt lat="47.81718" lon="-3.5353">
        <ele>4.07</ele>
        <time>2020-07-10T12:57:09Z</time>
      </trkpt>
      <trkpt lat="47.81716" lon="-3.5353">
        <ele>4.12</ele>
        <time>2020-07-10T12:57:10Z</time>
      </trkpt>
      <trkpt lat="47.81715" lon="-3.53532">
        <ele>4.11</ele>
        <time>2020-07-10T12:57:11Z</time>
      </trkpt>
      <trkpt lat="47.81714" lon="-3.53532">
        <ele>4.13</ele>
        <time>2020-07-10T12:57:12Z</time>
      </trkpt>
      <trkpt lat="47.81711" lon="-3.53535">
        <ele>4.13</ele>
        <time>2020-07-10T12:57:14Z</time>
      </trkpt>
      <trkpt lat="47.81709" lon="-3.53537">
        <ele>4.14</ele>
        <time>2020-07-10T12:57:15Z</time>
      </trkpt>
      <trkpt lat="47.81707" lon="-3.53538">
        <ele>4.17</ele>
        <time>2020-07-10T12:57:16Z</time>
      </trkpt>
      <trkpt lat="47.81705" lon="-3.5354">
        <ele>4.16</ele>
        <time>2020-07-10T12:57:17Z</time>
      </trkpt>
      <trkpt lat="47.81703" lon="-3.53543">
        <ele>4.14</ele>
        <time>2020-07-10T12:57:18Z</time>
      </trkpt>
      <trkpt lat="47.81701" lon="-3.53546">
        <ele>4.11</ele>
        <time>2020-07-10T12:57:19Z</time>
      </trkpt>
      <trkpt lat="47.81699" lon="-3.53549">
        <ele>4.08</ele>
        <time>2020-07-10T12:57:20Z</time>
      </trkpt>
      <trkpt lat="47.81697" lon="-3.53552">
        <ele>4.03</ele>
        <time>2020-07-10T12:57:21Z</time>
      </trkpt>
      <trkpt lat="47.81695" lon="-3.53554">
        <ele>4.03</ele>
        <time>2020-07-10T12:57:22Z</time>
      </trkpt>
      <trkpt lat="47.81692" lon="-3.53555">
        <ele>4.07</ele>
        <time>2020-07-10T12:57:23Z</time>
      </trkpt>
      <trkpt lat="47.81689" lon="-3.53557">
        <ele>4.13</ele>
        <time>2020-07-10T12:57:24Z</time>
      </trkpt>
      <trkpt lat="47.81686" lon="-3.53558">
        <ele>4.19</ele>
        <time>2020-07-10T12:57:25Z</time>
      </trkpt>
      <trkpt lat="47.81683" lon="-3.53559">
        <ele>4.25</ele>
        <time>2020-07-10T12:57:26Z</time>
      </trkpt>
      <trkpt lat="47.8168" lon="-3.53561">
        <ele>4.31</ele>
        <time>2020-07-10T12:57:27Z</time>
      </trkpt>
      <trkpt lat="47.81676" lon="-3.53562">
        <ele>4.37</ele>
        <time>2020-07-10T12:57:28Z</time>
      </trkpt>
      <trkpt lat="47.81673" lon="-3.53565">
        <ele>4.42</ele>
        <time>2020-07-10T12:57:29Z</time>
      </trkpt>
      <trkpt lat="47.8167" lon="-3.53567">
        <ele>4.45</ele>
        <time>2020-07-10T12:57:30Z</time>
      </trkpt>
      <trkpt lat="47.81667" lon="-3.53568">
        <ele>4.5</ele>
        <time>2020-07-10T12:57:31Z</time>
      </trkpt>
      <trkpt lat="47.81664" lon="-3.53569">
        <ele>4.47</ele>
        <time>2020-07-10T12:57:32Z</time>
      </trkpt>
      <trkpt lat="47.81662" lon="-3.5357">
        <ele>4.41</ele>
        <time>2020-07-10T12:57:33Z</time>
      </trkpt>
      <trkpt lat="47.8166" lon="-3.53571">
        <ele>4.34</ele>
        <time>2020-07-10T12:57:34Z</time>
      </trkpt>
      <trkpt lat="47.81657" lon="-3.53571">
        <ele>4.26</ele>
        <time>2020-07-10T12:57:35Z</time>
      </trkpt>
      <trkpt lat="47.81654" lon="-3.53572">
        <ele>4.17</ele>
        <time>2020-07-10T12:57:36Z</time>
      </trkpt>
      <trkpt lat="47.81651" lon="-3.53574">
        <ele>4.03</ele>
        <time>2020-07-10T12:57:37Z</time>
      </trkpt>
      <trkpt lat="47.81648" lon="-3.53576">
        <ele>3.82</ele>
        <time>2020-07-10T12:57:38Z</time>
      </trkpt>
      <trkpt lat="47.81644" lon="-3.53578">
        <ele>3.59</ele>
        <time>2020-07-10T12:57:39Z</time>
      </trkpt>
      <trkpt lat="47.81639" lon="-3.5358">
        <ele>3.33</ele>
        <time>2020-07-10T12:57:40Z</time>
      </trkpt>
      <trkpt lat="47.81635" lon="-3.53582">
        <ele>3.16</ele>
        <time>2020-07-10T12:57:41Z</time>
      </trkpt>
      <trkpt lat="47.8163" lon="-3.53583">
        <ele>3.05</ele>
        <time>2020-07-10T12:57:42Z</time>
      </trkpt>
      <trkpt lat="47.81627" lon="-3.53584">
        <ele>3.01</ele>
        <time>2020-07-10T12:57:43Z</time>
      </trkpt>
      <trkpt lat="47.81624" lon="-3.53583">
        <ele>3.01</ele>
        <time>2020-07-10T12:57:44Z</time>
      </trkpt>
      <trkpt lat="47.81621" lon="-3.53582">
        <ele>3.04</ele>
        <time>2020-07-10T12:57:45Z</time>
      </trkpt>
      <trkpt lat="47.81616" lon="-3.53582">
        <ele>3.06</ele>
        <time>2020-07-10T12:57:46Z</time>
      </trkpt>
      <trkpt lat="47.81613" lon="-3.53581">
        <ele>3.08</ele>
        <time>2020-07-10T12:57:47Z</time>
      </trkpt>
      <trkpt lat="47.81609" lon="-3.5358">
        <ele>3.12</ele>
        <time>2020-07-10T12:57:48Z</time>
      </trkpt>
      <trkpt lat="47.81606" lon="-3.53579">
        <ele>3.17</ele>
        <time>2020-07-10T12:57:49Z</time>
      </trkpt>
      <trkpt lat="47.81603" lon="-3.53577">
        <ele>3.25</ele>
        <time>2020-07-10T12:57:50Z</time>
      </trkpt>
      <trkpt lat="47.816" lon="-3.53576">
        <ele>3.33</ele>
        <time>2020-07-10T12:57:51Z</time>
      </trkpt>
      <trkpt lat="47.81597" lon="-3.53574">
        <ele>3.46</ele>
        <time>2020-07-10T12:57:52Z</time>
      </trkpt>
      <trkpt lat="47.81594" lon="-3.53571">
        <ele>3.63</ele>
        <time>2020-07-10T12:57:53Z</time>
      </trkpt>
      <trkpt lat="47.81592" lon="-3.53568">
        <ele>3.83</ele>
        <time>2020-07-10T12:57:54Z</time>
      </trkpt>
      <trkpt lat="47.81589" lon="-3.53567">
        <ele>4.01</ele>
        <time>2020-07-10T12:57:55Z</time>
      </trkpt>
      <trkpt lat="47.81587" lon="-3.53563">
        <ele>4.26</ele>
        <time>2020-07-10T12:57:56Z</time>
      </trkpt>
      <trkpt lat="47.81585" lon="-3.53558">
        <ele>4.59</ele>
        <time>2020-07-10T12:57:57Z</time>
      </trkpt>
      <trkpt lat="47.81583" lon="-3.53555">
        <ele>4.95</ele>
        <time>2020-07-10T12:57:58Z</time>
      </trkpt>
      <trkpt lat="47.8158" lon="-3.53552">
        <ele>5.28</ele>
        <time>2020-07-10T12:57:59Z</time>
      </trkpt>
      <trkpt lat="47.81578" lon="-3.5355">
        <ele>5.53</ele>
        <time>2020-07-10T12:58:00Z</time>
      </trkpt>
      <trkpt lat="47.81574" lon="-3.53549">
        <ele>5.68</ele>
        <time>2020-07-10T12:58:01Z</time>
      </trkpt>
      <trkpt lat="47.81571" lon="-3.53547">
        <ele>5.81</ele>
        <time>2020-07-10T12:58:02Z</time>
      </trkpt>
      <trkpt lat="47.81567" lon="-3.53547">
        <ele>5.84</ele>
        <time>2020-07-10T12:58:03Z</time>
      </trkpt>
      <trkpt lat="47.81563" lon="-3.53546">
        <ele>5.83</ele>
        <time>2020-07-10T12:58:04Z</time>
      </trkpt>
      <trkpt lat="47.8156" lon="-3.53546">
        <ele>5.82</ele>
        <time>2020-07-10T12:58:05Z</time>
      </trkpt>
      <trkpt lat="47.81557" lon="-3.53545">
        <ele>5.92</ele>
        <time>2020-07-10T12:58:06Z</time>
      </trkpt>
      <trkpt lat="47.81554" lon="-3.53544">
        <ele>5.98</ele>
        <time>2020-07-10T12:58:07Z</time>
      </trkpt>
      <trkpt lat="47.81551" lon="-3.53542">
        <ele>6.08</ele>
        <time>2020-07-10T12:58:08Z</time>
      </trkpt>
      <trkpt lat="47.81547" lon="-3.53541">
        <ele>6.02</ele>
        <time>2020-07-10T12:58:09Z</time>
      </trkpt>
      <trkpt lat="47.81544" lon="-3.53539">
        <ele>5.98</ele>
        <time>2020-07-10T12:58:10Z</time>
      </trkpt>
      <trkpt lat="47.8154" lon="-3.53538">
        <ele>5.92</ele>
        <time>2020-07-10T12:58:11Z</time>
      </trkpt>
      <trkpt lat="47.81536" lon="-3.53536">
        <ele>5.89</ele>
        <time>2020-07-10T12:58:12Z</time>
      </trkpt>
      <trkpt lat="47.81533" lon="-3.53533">
        <ele>5.86</ele>
        <time>2020-07-10T12:58:13Z</time>
      </trkpt>
      <trkpt lat="47.81529" lon="-3.53531">
        <ele>5.84</ele>
        <time>2020-07-10T12:58:14Z</time>
      </trkpt>
      <trkpt lat="47.81526" lon="-3.53529">
        <ele>5.82</ele>
        <time>2020-07-10T12:58:15Z</time>
      </trkpt>
      <trkpt lat="47.81523" lon="-3.53526">
        <ele>5.89</ele>
        <time>2020-07-10T12:58:16Z</time>
      </trkpt>
      <trkpt lat="47.8152" lon="-3.53523">
        <ele>6.1</ele>
        <time>2020-07-10T12:58:17Z</time>
      </trkpt>
      <trkpt lat="47.81518" lon="-3.5352">
        <ele>6.27</ele>
        <time>2020-07-10T12:58:18Z</time>
      </trkpt>
      <trkpt lat="47.81514" lon="-3.53517">
        <ele>6.35</ele>
        <time>2020-07-10T12:58:19Z</time>
      </trkpt>
      <trkpt lat="47.81511" lon="-3.53513">
        <ele>6.42</ele>
        <time>2020-07-10T12:58:20Z</time>
      </trkpt>
      <trkpt lat="47.81506" lon="-3.53509">
        <ele>6.29</ele>
        <time>2020-07-10T12:58:21Z</time>
      </trkpt>
      <trkpt lat="47.81501" lon="-3.53506">
        <ele>5.94</ele>
        <time>2020-07-10T12:58:22Z</time>
      </trkpt>
      <trkpt lat="47.81497" lon="-3.53503">
        <ele>5.7</ele>
        <time>2020-07-10T12:58:23Z</time>
      </trkpt>
      <trkpt lat="47.81493" lon="-3.535">
        <ele>5.54</ele>
        <time>2020-07-10T12:58:24Z</time>
      </trkpt>
      <trkpt lat="47.81489" lon="-3.53498">
        <ele>5.58</ele>
        <time>2020-07-10T12:58:25Z</time>
      </trkpt>
      <trkpt lat="47.81484" lon="-3.53496">
        <ele>5.54</ele>
        <time>2020-07-10T12:58:26Z</time>
      </trkpt>
      <trkpt lat="47.8148" lon="-3.53494">
        <ele>5.41</ele>
        <time>2020-07-10T12:58:27Z</time>
      </trkpt>
      <trkpt lat="47.81475" lon="-3.53491">
        <ele>5.31</ele>
        <time>2020-07-10T12:58:28Z</time>
      </trkpt>
      <trkpt lat="47.81472" lon="-3.53487">
        <ele>5.31</ele>
        <time>2020-07-10T12:58:29Z</time>
      </trkpt>
      <trkpt lat="47.81469" lon="-3.53483">
        <ele>5.44</ele>
        <time>2020-07-10T12:58:30Z</time>
      </trkpt>
      <trkpt lat="47.81467" lon="-3.53478">
        <ele>5.62</ele>
        <time>2020-07-10T12:58:31Z</time>
      </trkpt>
      <trkpt lat="47.81465" lon="-3.53473">
        <ele>5.85</ele>
        <time>2020-07-10T12:58:32Z</time>
      </trkpt>
      <trkpt lat="47.81464" lon="-3.53468">
        <ele>6.28</ele>
        <time>2020-07-10T12:58:33Z</time>
      </trkpt>
      <trkpt lat="47.81463" lon="-3.53462">
        <ele>6.78</ele>
        <time>2020-07-10T12:58:34Z</time>
      </trkpt>
      <trkpt lat="47.81461" lon="-3.53457">
        <ele>7.13</ele>
        <time>2020-07-10T12:58:35Z</time>
      </trkpt>
      <trkpt lat="47.81459" lon="-3.53452">
        <ele>7.26</ele>
        <time>2020-07-10T12:58:36Z</time>
      </trkpt>
      <trkpt lat="47.81456" lon="-3.53448">
        <ele>7.16</ele>
        <time>2020-07-10T12:58:37Z</time>
      </trkpt>
      <trkpt lat="47.81453" lon="-3.53444">
        <ele>6.79</ele>
        <time>2020-07-10T12:58:38Z</time>
      </trkpt>
      <trkpt lat="47.81451" lon="-3.5344">
        <ele>6.3</ele>
        <time>2020-07-10T12:58:39Z</time>
      </trkpt>
      <trkpt lat="47.81448" lon="-3.53436">
        <ele>5.83</ele>
        <time>2020-07-10T12:58:40Z</time>
      </trkpt>
      <trkpt lat="47.81445" lon="-3.53432">
        <ele>5.38</ele>
        <time>2020-07-10T12:58:41Z</time>
      </trkpt>
      <trkpt lat="47.81443" lon="-3.53428">
        <ele>5.16</ele>
        <time>2020-07-10T12:58:42Z</time>
      </trkpt>
      <trkpt lat="47.81441" lon="-3.53425">
        <ele>5.11</ele>
        <time>2020-07-10T12:58:43Z</time>
      </trkpt>
      <trkpt lat="47.81439" lon="-3.53422">
        <ele>5.08</ele>
        <time>2020-07-10T12:58:44Z</time>
      </trkpt>
      <trkpt lat="47.81437" lon="-3.53421">
        <ele>5</ele>
        <time>2020-07-10T12:58:45Z</time>
      </trkpt>
      <trkpt lat="47.81435" lon="-3.53419">
        <ele>4.96</ele>
        <time>2020-07-10T12:58:46Z</time>
      </trkpt>
      <trkpt lat="47.81434" lon="-3.53416">
        <ele>4.94</ele>
        <time>2020-07-10T12:58:47Z</time>
      </trkpt>
      <trkpt lat="47.81432" lon="-3.53413">
        <ele>4.85</ele>
        <time>2020-07-10T12:58:48Z</time>
      </trkpt>
      <trkpt lat="47.8143" lon="-3.53408">
        <ele>4.75</ele>
        <time>2020-07-10T12:58:49Z</time>
      </trkpt>
      <trkpt lat="47.81427" lon="-3.53403">
        <ele>4.56</ele>
        <time>2020-07-10T12:58:50Z</time>
      </trkpt>
      <trkpt lat="47.81424" lon="-3.53397">
        <ele>4.3</ele>
        <time>2020-07-10T12:58:51Z</time>
      </trkpt>
      <trkpt lat="47.81421" lon="-3.53392">
        <ele>3.93</ele>
        <time>2020-07-10T12:58:52Z</time>
      </trkpt>
      <trkpt lat="47.81419" lon="-3.53388">
        <ele>3.61</ele>
        <time>2020-07-10T12:58:53Z</time>
      </trkpt>
      <trkpt lat="47.81417" lon="-3.53384">
        <ele>3.27</ele>
        <time>2020-07-10T12:58:54Z</time>
      </trkpt>
      <trkpt lat="47.81416" lon="-3.53379">
        <ele>3.06</ele>
        <time>2020-07-10T12:58:55Z</time>
      </trkpt>
      <trkpt lat="47.81414" lon="-3.53376">
        <ele>2.98</ele>
        <time>2020-07-10T12:58:56Z</time>
      </trkpt>
      <trkpt lat="47.81412" lon="-3.53372">
        <ele>2.95</ele>
        <time>2020-07-10T12:58:57Z</time>
      </trkpt>
      <trkpt lat="47.8141" lon="-3.53368">
        <ele>2.95</ele>
        <time>2020-07-10T12:58:58Z</time>
      </trkpt>
      <trkpt lat="47.81408" lon="-3.53363">
        <ele>2.97</ele>
        <time>2020-07-10T12:58:59Z</time>
      </trkpt>
      <trkpt lat="47.81406" lon="-3.53358">
        <ele>2.99</ele>
        <time>2020-07-10T12:59:00Z</time>
      </trkpt>
      <trkpt lat="47.81404" lon="-3.53354">
        <ele>3</ele>
        <time>2020-07-10T12:59:01Z</time>
      </trkpt>
      <trkpt lat="47.81403" lon="-3.53348">
        <ele>3</ele>
        <time>2020-07-10T12:59:02Z</time>
      </trkpt>
      <trkpt lat="47.81401" lon="-3.53343">
        <ele>3</ele>
        <time>2020-07-10T12:59:03Z</time>
      </trkpt>
      <trkpt lat="47.814" lon="-3.53338">
        <ele>3</ele>
        <time>2020-07-10T12:59:04Z</time>
      </trkpt>
      <trkpt lat="47.81399" lon="-3.53334">
        <ele>3</ele>
        <time>2020-07-10T12:59:05Z</time>
      </trkpt>
      <trkpt lat="47.81397" lon="-3.53328">
        <ele>3.05</ele>
        <time>2020-07-10T12:59:06Z</time>
      </trkpt>
      <trkpt lat="47.81397" lon="-3.53322">
        <ele>3.1</ele>
        <time>2020-07-10T12:59:07Z</time>
      </trkpt>
      <trkpt lat="47.81396" lon="-3.53316">
        <ele>3.14</ele>
        <time>2020-07-10T12:59:08Z</time>
      </trkpt>
      <trkpt lat="47.81395" lon="-3.53311">
        <ele>3.16</ele>
        <time>2020-07-10T12:59:09Z</time>
      </trkpt>
      <trkpt lat="47.81394" lon="-3.53305">
        <ele>3.19</ele>
        <time>2020-07-10T12:59:10Z</time>
      </trkpt>
      <trkpt lat="47.81393" lon="-3.53299">
        <ele>3.17</ele>
        <time>2020-07-10T12:59:11Z</time>
      </trkpt>
      <trkpt lat="47.81392" lon="-3.53293">
        <ele>3.13</ele>
        <time>2020-07-10T12:59:12Z</time>
      </trkpt>
      <trkpt lat="47.81392" lon="-3.53287">
        <ele>3.11</ele>
        <time>2020-07-10T12:59:13Z</time>
      </trkpt>
      <trkpt lat="47.81391" lon="-3.53282">
        <ele>3.08</ele>
        <time>2020-07-10T12:59:14Z</time>
      </trkpt>
      <trkpt lat="47.81389" lon="-3.53278">
        <ele>3.03</ele>
        <time>2020-07-10T12:59:15Z</time>
      </trkpt>
      <trkpt lat="47.81387" lon="-3.53273">
        <ele>3.01</ele>
        <time>2020-07-10T12:59:16Z</time>
      </trkpt>
      <trkpt lat="47.81384" lon="-3.53269">
        <ele>3</ele>
        <time>2020-07-10T12:59:17Z</time>
      </trkpt>
      <trkpt lat="47.81382" lon="-3.53266">
        <ele>3</ele>
        <time>2020-07-10T12:59:18Z</time>
      </trkpt>
      <trkpt lat="47.81379" lon="-3.53262">
        <ele>3</ele>
        <time>2020-07-10T12:59:19Z</time>
      </trkpt>
      <trkpt lat="47.81377" lon="-3.53257">
        <ele>3</ele>
        <time>2020-07-10T12:59:20Z</time>
      </trkpt>
      <trkpt lat="47.81375" lon="-3.53253">
        <ele>3</ele>
        <time>2020-07-10T12:59:21Z</time>
      </trkpt>
      <trkpt lat="47.81373" lon="-3.53248">
        <ele>3.03</ele>
        <time>2020-07-10T12:59:22Z</time>
      </trkpt>
      <trkpt lat="47.81372" lon="-3.53243">
        <ele>3.08</ele>
        <time>2020-07-10T12:59:23Z</time>
      </trkpt>
      <trkpt lat="47.8137" lon="-3.53237">
        <ele>3.12</ele>
        <time>2020-07-10T12:59:24Z</time>
      </trkpt>
      <trkpt lat="47.81369" lon="-3.53231">
        <ele>3.18</ele>
        <time>2020-07-10T12:59:25Z</time>
      </trkpt>
      <trkpt lat="47.81369" lon="-3.53223">
        <ele>3.24</ele>
        <time>2020-07-10T12:59:26Z</time>
      </trkpt>
      <trkpt lat="47.81369" lon="-3.53216">
        <ele>3.26</ele>
        <time>2020-07-10T12:59:27Z</time>
      </trkpt>
      <trkpt lat="47.81368" lon="-3.5321">
        <ele>3.26</ele>
        <time>2020-07-10T12:59:28Z</time>
      </trkpt>
      <trkpt lat="47.81367" lon="-3.53204">
        <ele>3.23</ele>
        <time>2020-07-10T12:59:29Z</time>
      </trkpt>
      <trkpt lat="47.81367" lon="-3.53198">
        <ele>3.22</ele>
        <time>2020-07-10T12:59:30Z</time>
      </trkpt>
      <trkpt lat="47.81367" lon="-3.53192">
        <ele>3.21</ele>
        <time>2020-07-10T12:59:31Z</time>
      </trkpt>
      <trkpt lat="47.81368" lon="-3.53188">
        <ele>3.27</ele>
        <time>2020-07-10T12:59:32Z</time>
      </trkpt>
      <trkpt lat="47.81369" lon="-3.53185">
        <ele>3.34</ele>
        <time>2020-07-10T12:59:33Z</time>
      </trkpt>
      <trkpt lat="47.8137" lon="-3.53183">
        <ele>3.44</ele>
        <time>2020-07-10T12:59:34Z</time>
      </trkpt>
      <trkpt lat="47.81372" lon="-3.5318">
        <ele>3.56</ele>
        <time>2020-07-10T12:59:35Z</time>
      </trkpt>
      <trkpt lat="47.81374" lon="-3.53177">
        <ele>3.71</ele>
        <time>2020-07-10T12:59:36Z</time>
      </trkpt>
      <trkpt lat="47.81376" lon="-3.53174">
        <ele>3.86</ele>
        <time>2020-07-10T12:59:37Z</time>
      </trkpt>
      <trkpt lat="47.81377" lon="-3.53171">
        <ele>4</ele>
        <time>2020-07-10T12:59:38Z</time>
      </trkpt>
      <trkpt lat="47.81377" lon="-3.53167">
        <ele>4.12</ele>
        <time>2020-07-10T12:59:39Z</time>
      </trkpt>
      <trkpt lat="47.81377" lon="-3.53164">
        <ele>4.21</ele>
        <time>2020-07-10T12:59:40Z</time>
      </trkpt>
      <trkpt lat="47.81376" lon="-3.53162">
        <ele>4.24</ele>
        <time>2020-07-10T12:59:41Z</time>
      </trkpt>
      <trkpt lat="47.81374" lon="-3.5316">
        <ele>4.21</ele>
        <time>2020-07-10T12:59:42Z</time>
      </trkpt>
      <trkpt lat="47.81373" lon="-3.53159">
        <ele>4.18</ele>
        <time>2020-07-10T12:59:43Z</time>
      </trkpt>
      <trkpt lat="47.81372" lon="-3.53158">
        <ele>4.12</ele>
        <time>2020-07-10T12:59:44Z</time>
      </trkpt>
      <trkpt lat="47.8137" lon="-3.53156">
        <ele>4.06</ele>
        <time>2020-07-10T12:59:45Z</time>
      </trkpt>
      <trkpt lat="47.81367" lon="-3.5315">
        <ele>4.01</ele>
        <time>2020-07-10T12:59:46Z</time>
      </trkpt>
      <trkpt lat="47.81365" lon="-3.53148">
        <ele>3.96</ele>
        <time>2020-07-10T12:59:47Z</time>
      </trkpt>
      <trkpt lat="47.81363" lon="-3.53145">
        <ele>3.9</ele>
        <time>2020-07-10T12:59:48Z</time>
      </trkpt>
      <trkpt lat="47.8136" lon="-3.53143">
        <ele>3.79</ele>
        <time>2020-07-10T12:59:49Z</time>
      </trkpt>
      <trkpt lat="47.81357" lon="-3.53139">
        <ele>3.65</ele>
        <time>2020-07-10T12:59:50Z</time>
      </trkpt>
      <trkpt lat="47.81354" lon="-3.53135">
        <ele>3.48</ele>
        <time>2020-07-10T12:59:51Z</time>
      </trkpt>
      <trkpt lat="47.81353" lon="-3.53132">
        <ele>3.33</ele>
        <time>2020-07-10T12:59:52Z</time>
      </trkpt>
      <trkpt lat="47.81351" lon="-3.53131">
        <ele>3.21</ele>
        <time>2020-07-10T12:59:53Z</time>
      </trkpt>
      <trkpt lat="47.8135" lon="-3.53128">
        <ele>3.1</ele>
        <time>2020-07-10T12:59:54Z</time>
      </trkpt>
      <trkpt lat="47.81349" lon="-3.53125">
        <ele>3</ele>
        <time>2020-07-10T12:59:55Z</time>
      </trkpt>
      <trkpt lat="47.81347" lon="-3.53121">
        <ele>2.86</ele>
        <time>2020-07-10T12:59:56Z</time>
      </trkpt>
      <trkpt lat="47.81346" lon="-3.53116">
        <ele>2.8</ele>
        <time>2020-07-10T12:59:57Z</time>
      </trkpt>
      <trkpt lat="47.81346" lon="-3.53112">
        <ele>2.79</ele>
        <time>2020-07-10T12:59:58Z</time>
      </trkpt>
      <trkpt lat="47.81345" lon="-3.53109">
        <ele>2.81</ele>
        <time>2020-07-10T12:59:59Z</time>
      </trkpt>
      <trkpt lat="47.81344" lon="-3.53105">
        <ele>2.81</ele>
        <time>2020-07-10T13:00:00Z</time>
      </trkpt>
      <trkpt lat="47.81343" lon="-3.531">
        <ele>2.89</ele>
        <time>2020-07-10T13:00:01Z</time>
      </trkpt>
      <trkpt lat="47.81342" lon="-3.53094">
        <ele>3.03</ele>
        <time>2020-07-10T13:00:02Z</time>
      </trkpt>
      <trkpt lat="47.81342" lon="-3.5309">
        <ele>3.21</ele>
        <time>2020-07-10T13:00:03Z</time>
      </trkpt>
      <trkpt lat="47.81341" lon="-3.53085">
        <ele>3.31</ele>
        <time>2020-07-10T13:00:04Z</time>
      </trkpt>
      <trkpt lat="47.8134" lon="-3.53081">
        <ele>3.41</ele>
        <time>2020-07-10T13:00:05Z</time>
      </trkpt>
      <trkpt lat="47.81339" lon="-3.53077">
        <ele>3.49</ele>
        <time>2020-07-10T13:00:06Z</time>
      </trkpt>
      <trkpt lat="47.81337" lon="-3.53073">
        <ele>3.52</ele>
        <time>2020-07-10T13:00:07Z</time>
      </trkpt>
      <trkpt lat="47.81337" lon="-3.5307">
        <ele>3.56</ele>
        <time>2020-07-10T13:00:08Z</time>
      </trkpt>
      <trkpt lat="47.81336" lon="-3.53069">
        <ele>3.6</ele>
        <time>2020-07-10T13:00:09Z</time>
      </trkpt>
      <trkpt lat="47.81336" lon="-3.53068">
        <ele>3.61</ele>
        <time>2020-07-10T13:00:10Z</time>
      </trkpt>
      <trkpt lat="47.81336" lon="-3.53068">
        <ele>3.61</ele>
        <time>2020-07-10T13:00:11Z</time>
      </trkpt>
      <trkpt lat="47.81336" lon="-3.53068">
        <ele>3.6</ele>
        <time>2020-07-10T13:00:12Z</time>
      </trkpt>
      <trkpt lat="47.81336" lon="-3.53068">
        <ele>3.6</ele>
        <time>2020-07-10T13:00:13Z</time>
      </trkpt>
      <trkpt lat="47.81336" lon="-3.53068">
        <ele>3.6</ele>
        <time>2020-07-10T13:00:14Z</time>
      </trkpt>
      <trkpt lat="47.81336" lon="-3.53068">
        <ele>3.6</ele>
        <time>2020-07-10T13:00:15Z</time>
      </trkpt>
      <trkpt lat="47.81336" lon="-3.53068">
        <ele>3.6</ele>
        <time>2020-07-10T13:00:16Z</time>
      </trkpt>
      <trkpt lat="47.81336" lon="-3.53068">
        <ele>3.6</ele>
        <time>2020-07-10T13:00:17Z</time>
      </trkpt>
      <trkpt lat="47.81336" lon="-3.53068">
        <ele>3.6</ele>
        <time>2020-07-10T13:00:18Z</time>
      </trkpt>
      <trkpt lat="47.81336" lon="-3.53068">
        <ele>3.6</ele>
        <time>2020-07-10T13:00:19Z</time>
      </trkpt>
      <trkpt lat="47.81336" lon="-3.53068">
        <ele>3.6</ele>
        <time>2020-07-10T13:00:20Z</time>
      </trkpt>
      <trkpt lat="47.81336" lon="-3.53068">
        <ele>3.6</ele>
        <time>2020-07-10T13:00:21Z</time>
      </trkpt>
      <trkpt lat="47.81336" lon="-3.53068">
        <ele>3.6</ele>
        <time>2020-07-10T13:00:22Z</time>
      </trkpt>
      <trkpt lat="47.81336" lon="-3.53068">
        <ele>3.6</ele>
        <time>2020-07-10T13:00:23Z</time>
      </trkpt>
      <trkpt lat="47.81336" lon="-3.53068">
        <ele>3.6</ele>
        <time>2020-07-10T13:00:24Z</time>
      </trkpt>
      <trkpt lat="47.81336" lon="-3.53068">
        <ele>3.6</ele>
        <time>2020-07-10T13:00:25Z</time>
      </trkpt>
      <trkpt lat="47.81336" lon="-3.53068">
        <ele>3.6</ele>
        <time>2020-07-10T13:00:26Z</time>
      </trkpt>
      <trkpt lat="47.81336" lon="-3.53068">
        <ele>3.6</ele>
        <time>2020-07-10T13:00:27Z</time>
      </trkpt>
      <trkpt lat="47.81336" lon="-3.53068">
        <ele>3.6</ele>
        <time>2020-07-10T13:00:28Z</time>
      </trkpt>
      <trkpt lat="47.81336" lon="-3.53068">
        <ele>3.6</ele>
        <time>2020-07-10T13:00:29Z</time>
      </trkpt>
      <trkpt lat="47.81336" lon="-3.53068">
        <ele>3.6</ele>
        <time>2020-07-10T13:00:30Z</time>
      </trkpt>
      <trkpt lat="47.81336" lon="-3.53068">
        <ele>3.6</ele>
        <time>2020-07-10T13:00:31Z</time>
      </trkpt>
      <trkpt lat="47.81336" lon="-3.53068">
        <ele>3.6</ele>
        <time>2020-07-10T13:00:32Z</time>
      </trkpt>
      <trkpt lat="47.81336" lon="-3.53068">
        <ele>3.6</ele>
        <time>2020-07-10T13:00:33Z</time>
      </trkpt>
      <trkpt lat="47.81336" lon="-3.53068">
        <ele>3.6</ele>
        <time>2020-07-10T13:00:34Z</time>
      </trkpt>
      <trkpt lat="47.81336" lon="-3.53068">
        <ele>3.6</ele>
        <time>2020-07-10T13:00:35Z</time>
      </trkpt>
      <trkpt lat="47.81336" lon="-3.53068">
        <ele>3.6</ele>
        <time>2020-07-10T13:00:36Z</time>
      </trkpt>
      <trkpt lat="47.81336" lon="-3.53068">
        <ele>3.6</ele>
        <time>2020-07-10T13:00:37Z</time>
      </trkpt>
      <trkpt lat="47.81336" lon="-3.53068">
        <ele>3.6</ele>
        <time>2020-07-10T13:00:38Z</time>
      </trkpt>
      <trkpt lat="47.81338" lon="-3.53054">
        <ele>4.73</ele>
        <time>2020-07-10T13:00:39Z</time>
      </trkpt>
      <trkpt lat="47.81338" lon="-3.53053">
        <ele>5.24</ele>
        <time>2020-07-10T13:00:40Z</time>
      </trkpt>
      <trkpt lat="47.81338" lon="-3.53052">
        <ele>5.45</ele>
        <time>2020-07-10T13:00:41Z</time>
      </trkpt>
      <trkpt lat="47.81338" lon="-3.53052">
        <ele>5.56</ele>
        <time>2020-07-10T13:00:42Z</time>
      </trkpt>
      <trkpt lat="47.81338" lon="-3.53052">
        <ele>5.59</ele>
        <time>2020-07-10T13:00:43Z</time>
      </trkpt>
      <trkpt lat="47.81338" lon="-3.53052">
        <ele>5.6</ele>
        <time>2020-07-10T13:00:44Z</time>
      </trkpt>
      <trkpt lat="47.81338" lon="-3.53052">
        <ele>5.6</ele>
        <time>2020-07-10T13:00:45Z</time>
      </trkpt>
      <trkpt lat="47.81338" lon="-3.53052">
        <ele>5.6</ele>
        <time>2020-07-10T13:00:46Z</time>
      </trkpt>
      <trkpt lat="47.81338" lon="-3.53052">
        <ele>5.6</ele>
        <time>2020-07-10T13:00:47Z</time>
      </trkpt>
      <trkpt lat="47.81338" lon="-3.53052">
        <ele>5.6</ele>
        <time>2020-07-10T13:00:48Z</time>
      </trkpt>
      <trkpt lat="47.81338" lon="-3.53052">
        <ele>5.6</ele>
        <time>2020-07-10T13:00:49Z</time>
      </trkpt>
      <trkpt lat="47.81338" lon="-3.53052">
        <ele>5.6</ele>
        <time>2020-07-10T13:00:50Z</time>
      </trkpt>
      <trkpt lat="47.81338" lon="-3.53052">
        <ele>5.6</ele>
        <time>2020-07-10T13:00:51Z</time>
      </trkpt>
      <trkpt lat="47.81338" lon="-3.53052">
        <ele>5.6</ele>
        <time>2020-07-10T13:00:52Z</time>
      </trkpt>
      <trkpt lat="47.81338" lon="-3.53052">
        <ele>5.6</ele>
        <time>2020-07-10T13:00:53Z</time>
      </trkpt>
      <trkpt lat="47.81338" lon="-3.53052">
        <ele>5.6</ele>
        <time>2020-07-10T13:00:54Z</time>
      </trkpt>
      <trkpt lat="47.81338" lon="-3.53052">
        <ele>5.6</ele>
        <time>2020-07-10T13:00:55Z</time>
      </trkpt>
      <trkpt lat="47.81338" lon="-3.53052">
        <ele>5.6</ele>
        <time>2020-07-10T13:00:56Z</time>
      </trkpt>
      <trkpt lat="47.81338" lon="-3.53052">
        <ele>5.6</ele>
        <time>2020-07-10T13:00:57Z</time>
      </trkpt>
      <trkpt lat="47.81338" lon="-3.53052">
        <ele>5.6</ele>
        <time>2020-07-10T13:00:58Z</time>
      </trkpt>
      <trkpt lat="47.8134" lon="-3.53047">
        <ele>6.33</ele>
        <time>2020-07-10T13:00:59Z</time>
      </trkpt>
      <trkpt lat="47.81339" lon="-3.53046">
        <ele>6.55</ele>
        <time>2020-07-10T13:01:00Z</time>
      </trkpt>
      <trkpt lat="47.8134" lon="-3.53045">
        <ele>6.75</ele>
        <time>2020-07-10T13:01:01Z</time>
      </trkpt>
      <trkpt lat="47.81339" lon="-3.53045">
        <ele>6.81</ele>
        <time>2020-07-10T13:01:02Z</time>
      </trkpt>
      <trkpt lat="47.8134" lon="-3.53045">
        <ele>6.87</ele>
        <time>2020-07-10T13:01:03Z</time>
      </trkpt>
      <trkpt lat="47.8134" lon="-3.53045">
        <ele>6.89</ele>
        <time>2020-07-10T13:01:04Z</time>
      </trkpt>
      <trkpt lat="47.8134" lon="-3.53045">
        <ele>6.9</ele>
        <time>2020-07-10T13:01:05Z</time>
      </trkpt>
      <trkpt lat="47.8134" lon="-3.53045">
        <ele>6.9</ele>
        <time>2020-07-10T13:01:06Z</time>
      </trkpt>
      <trkpt lat="47.8134" lon="-3.53045">
        <ele>6.9</ele>
        <time>2020-07-10T13:01:07Z</time>
      </trkpt>
      <trkpt lat="47.8134" lon="-3.53045">
        <ele>6.9</ele>
        <time>2020-07-10T13:01:08Z</time>
      </trkpt>
      <trkpt lat="47.8134" lon="-3.53045">
        <ele>6.9</ele>
        <time>2020-07-10T13:01:09Z</time>
      </trkpt>
      <trkpt lat="47.8134" lon="-3.53045">
        <ele>6.9</ele>
        <time>2020-07-10T13:01:10Z</time>
      </trkpt>
      <trkpt lat="47.8134" lon="-3.53045">
        <ele>6.9</ele>
        <time>2020-07-10T13:01:11Z</time>
      </trkpt>
      <trkpt lat="47.8134" lon="-3.53045">
        <ele>6.9</ele>
        <time>2020-07-10T13:01:12Z</time>
      </trkpt>
      <trkpt lat="47.8134" lon="-3.53045">
        <ele>6.9</ele>
        <time>2020-07-10T13:01:13Z</time>
      </trkpt>
      <trkpt lat="47.8134" lon="-3.53045">
        <ele>6.9</ele>
        <time>2020-07-10T13:01:14Z</time>
      </trkpt>
      <trkpt lat="47.8134" lon="-3.53045">
        <ele>6.9</ele>
        <time>2020-07-10T13:01:15Z</time>
      </trkpt>
      <trkpt lat="47.8134" lon="-3.53045">
        <ele>6.9</ele>
        <time>2020-07-10T13:01:16Z</time>
      </trkpt>
      <trkpt lat="47.8134" lon="-3.53045">
        <ele>6.9</ele>
        <time>2020-07-10T13:01:17Z</time>
      </trkpt>
      <trkpt lat="47.8134" lon="-3.53045">
        <ele>6.9</ele>
        <time>2020-07-10T13:01:18Z</time>
      </trkpt>
      <trkpt lat="47.8134" lon="-3.53045">
        <ele>6.9</ele>
        <time>2020-07-10T13:01:19Z</time>
      </trkpt>
      <trkpt lat="47.8134" lon="-3.53045">
        <ele>6.9</ele>
        <time>2020-07-10T13:01:20Z</time>
      </trkpt>
      <trkpt lat="47.8134" lon="-3.53045">
        <ele>6.9</ele>
        <time>2020-07-10T13:01:21Z</time>
      </trkpt>
      <trkpt lat="47.8134" lon="-3.53045">
        <ele>6.9</ele>
        <time>2020-07-10T13:01:22Z</time>
      </trkpt>
      <trkpt lat="47.8134" lon="-3.53045">
        <ele>6.9</ele>
        <time>2020-07-10T13:01:23Z</time>
      </trkpt>
      <trkpt lat="47.81344" lon="-3.53049">
        <ele>7.18</ele>
        <time>2020-07-10T13:01:24Z</time>
      </trkpt>
      <trkpt lat="47.81344" lon="-3.53049">
        <ele>7.12</ele>
        <time>2020-07-10T13:01:25Z</time>
      </trkpt>
      <trkpt lat="47.81344" lon="-3.5305">
        <ele>7.13</ele>
        <time>2020-07-10T13:01:26Z</time>
      </trkpt>
      <trkpt lat="47.81344" lon="-3.5305">
        <ele>7.14</ele>
        <time>2020-07-10T13:01:27Z</time>
      </trkpt>
      <trkpt lat="47.81344" lon="-3.5305">
        <ele>7.14</ele>
        <time>2020-07-10T13:01:28Z</time>
      </trkpt>
      <trkpt lat="47.81344" lon="-3.5305">
        <ele>7.14</ele>
        <time>2020-07-10T13:01:29Z</time>
      </trkpt>
      <trkpt lat="47.81344" lon="-3.5305">
        <ele>7.14</ele>
        <time>2020-07-10T13:01:30Z</time>
      </trkpt>
      <trkpt lat="47.81344" lon="-3.5305">
        <ele>7.14</ele>
        <time>2020-07-10T13:01:31Z</time>
      </trkpt>
      <trkpt lat="47.81344" lon="-3.5305">
        <ele>7.14</ele>
        <time>2020-07-10T13:01:32Z</time>
      </trkpt>
      <trkpt lat="47.81344" lon="-3.5305">
        <ele>7.14</ele>
        <time>2020-07-10T13:01:33Z</time>
      </trkpt>
      <trkpt lat="47.81344" lon="-3.5305">
        <ele>7.14</ele>
        <time>2020-07-10T13:01:34Z</time>
      </trkpt>
      <trkpt lat="47.81344" lon="-3.5305">
        <ele>7.14</ele>
        <time>2020-07-10T13:01:35Z</time>
      </trkpt>
      <trkpt lat="47.81344" lon="-3.5305">
        <ele>7.14</ele>
        <time>2020-07-10T13:01:36Z</time>
      </trkpt>
      <trkpt lat="47.81344" lon="-3.5305">
        <ele>7.14</ele>
        <time>2020-07-10T13:01:37Z</time>
      </trkpt>
      <trkpt lat="47.81344" lon="-3.5305">
        <ele>7.14</ele>
        <time>2020-07-10T13:01:38Z</time>
      </trkpt>
      <trkpt lat="47.81344" lon="-3.5305">
        <ele>7.14</ele>
        <time>2020-07-10T13:01:39Z</time>
      </trkpt>
      <trkpt lat="47.81344" lon="-3.5305">
        <ele>7.14</ele>
        <time>2020-07-10T13:01:40Z</time>
      </trkpt>
      <trkpt lat="47.81344" lon="-3.5305">
        <ele>7.14</ele>
        <time>2020-07-10T13:01:41Z</time>
      </trkpt>
      <trkpt lat="47.81344" lon="-3.5305">
        <ele>7.14</ele>
        <time>2020-07-10T13:01:42Z</time>
      </trkpt>
      <trkpt lat="47.81344" lon="-3.5305">
        <ele>7.14</ele>
        <time>2020-07-10T13:01:43Z</time>
      </trkpt>
      <trkpt lat="47.81354" lon="-3.53055">
        <ele>8.13</ele>
        <time>2020-07-10T13:01:44Z</time>
      </trkpt>
      <trkpt lat="47.81354" lon="-3.53055">
        <ele>8.48</ele>
        <time>2020-07-10T13:01:45Z</time>
      </trkpt>
      <trkpt lat="47.81355" lon="-3.53056">
        <ele>8.66</ele>
        <time>2020-07-10T13:01:46Z</time>
      </trkpt>
      <trkpt lat="47.81356" lon="-3.53056">
        <ele>8.75</ele>
        <time>2020-07-10T13:01:47Z</time>
      </trkpt>
      <trkpt lat="47.81356" lon="-3.53056">
        <ele>8.77</ele>
        <time>2020-07-10T13:01:48Z</time>
      </trkpt>
      <trkpt lat="47.81356" lon="-3.53056">
        <ele>8.78</ele>
        <time>2020-07-10T13:01:49Z</time>
      </trkpt>
      <trkpt lat="47.81356" lon="-3.53056">
        <ele>8.78</ele>
        <time>2020-07-10T13:01:50Z</time>
      </trkpt>
      <trkpt lat="47.81356" lon="-3.53056">
        <ele>8.78</ele>
        <time>2020-07-10T13:01:51Z</time>
      </trkpt>
      <trkpt lat="47.81356" lon="-3.53056">
        <ele>8.78</ele>
        <time>2020-07-10T13:01:52Z</time>
      </trkpt>
      <trkpt lat="47.81356" lon="-3.53056">
        <ele>8.78</ele>
        <time>2020-07-10T13:01:53Z</time>
      </trkpt>
      <trkpt lat="47.81356" lon="-3.53056">
        <ele>8.78</ele>
        <time>2020-07-10T13:01:54Z</time>
      </trkpt>
      <trkpt lat="47.81356" lon="-3.53056">
        <ele>8.78</ele>
        <time>2020-07-10T13:01:55Z</time>
      </trkpt>
      <trkpt lat="47.81356" lon="-3.53056">
        <ele>8.78</ele>
        <time>2020-07-10T13:01:56Z</time>
      </trkpt>
      <trkpt lat="47.81366" lon="-3.53056">
        <ele>10.2</ele>
        <time>2020-07-10T13:01:57Z</time>
      </trkpt>
      <trkpt lat="47.81366" lon="-3.53056">
        <ele>10.72</ele>
        <time>2020-07-10T13:01:58Z</time>
      </trkpt>
      <trkpt lat="47.81367" lon="-3.53055">
        <ele>11.02</ele>
        <time>2020-07-10T13:01:59Z</time>
      </trkpt>
      <trkpt lat="47.81368" lon="-3.53055">
        <ele>11.27</ele>
        <time>2020-07-10T13:02:00Z</time>
      </trkpt>
      <trkpt lat="47.81368" lon="-3.53055">
        <ele>11.34</ele>
        <time>2020-07-10T13:02:01Z</time>
      </trkpt>
      <trkpt lat="47.81368" lon="-3.53055">
        <ele>11.36</ele>
        <time>2020-07-10T13:02:02Z</time>
      </trkpt>
      <trkpt lat="47.81368" lon="-3.53055">
        <ele>11.37</ele>
        <time>2020-07-10T13:02:03Z</time>
      </trkpt>
      <trkpt lat="47.81368" lon="-3.53055">
        <ele>11.37</ele>
        <time>2020-07-10T13:02:04Z</time>
      </trkpt>
      <trkpt lat="47.81368" lon="-3.53055">
        <ele>11.37</ele>
        <time>2020-07-10T13:02:05Z</time>
      </trkpt>
      <trkpt lat="47.81368" lon="-3.53055">
        <ele>11.37</ele>
        <time>2020-07-10T13:02:06Z</time>
      </trkpt>
      <trkpt lat="47.81368" lon="-3.53055">
        <ele>11.37</ele>
        <time>2020-07-10T13:02:07Z</time>
      </trkpt>
      <trkpt lat="47.81368" lon="-3.53055">
        <ele>11.37</ele>
        <time>2020-07-10T13:02:08Z</time>
      </trkpt>
      <trkpt lat="47.81368" lon="-3.53055">
        <ele>11.37</ele>
        <time>2020-07-10T13:02:09Z</time>
      </trkpt>
      <trkpt lat="47.81368" lon="-3.53055">
        <ele>11.37</ele>
        <time>2020-07-10T13:02:10Z</time>
      </trkpt>
      <trkpt lat="47.81368" lon="-3.53055">
        <ele>11.37</ele>
        <time>2020-07-10T13:02:11Z</time>
      </trkpt>
      <trkpt lat="47.81368" lon="-3.53055">
        <ele>11.37</ele>
        <time>2020-07-10T13:02:12Z</time>
      </trkpt>
      <trkpt lat="47.81377" lon="-3.53056">
        <ele>12.35</ele>
        <time>2020-07-10T13:02:13Z</time>
      </trkpt>
      <trkpt lat="47.81378" lon="-3.53057">
        <ele>12.7</ele>
        <time>2020-07-10T13:02:14Z</time>
      </trkpt>
      <trkpt lat="47.81379" lon="-3.53056">
        <ele>12.98</ele>
        <time>2020-07-10T13:02:15Z</time>
      </trkpt>
      <trkpt lat="47.81379" lon="-3.53056">
        <ele>13.09</ele>
        <time>2020-07-10T13:02:16Z</time>
      </trkpt>
      <trkpt lat="47.81379" lon="-3.53056">
        <ele>13.13</ele>
        <time>2020-07-10T13:02:17Z</time>
      </trkpt>
      <trkpt lat="47.81379" lon="-3.53056">
        <ele>13.14</ele>
        <time>2020-07-10T13:02:18Z</time>
      </trkpt>
      <trkpt lat="47.81379" lon="-3.53056">
        <ele>13.14</ele>
        <time>2020-07-10T13:02:19Z</time>
      </trkpt>
      <trkpt lat="47.81379" lon="-3.53056">
        <ele>13.14</ele>
        <time>2020-07-10T13:02:20Z</time>
      </trkpt>
      <trkpt lat="47.81379" lon="-3.53056">
        <ele>13.14</ele>
        <time>2020-07-10T13:02:21Z</time>
      </trkpt>
      <trkpt lat="47.81379" lon="-3.53056">
        <ele>13.14</ele>
        <time>2020-07-10T13:02:22Z</time>
      </trkpt>
      <trkpt lat="47.81379" lon="-3.53056">
        <ele>13.14</ele>
        <time>2020-07-10T13:02:23Z</time>
      </trkpt>
      <trkpt lat="47.81379" lon="-3.53056">
        <ele>13.14</ele>
        <time>2020-07-10T13:02:24Z</time>
      </trkpt>
      <trkpt lat="47.81379" lon="-3.53056">
        <ele>13.14</ele>
        <time>2020-07-10T13:02:25Z</time>
      </trkpt>
      <trkpt lat="47.81379" lon="-3.53056">
        <ele>13.14</ele>
        <time>2020-07-10T13:02:26Z</time>
      </trkpt>
      <trkpt lat="47.81379" lon="-3.53056">
        <ele>13.14</ele>
        <time>2020-07-10T13:02:27Z</time>
      </trkpt>
      <trkpt lat="47.81379" lon="-3.53056">
        <ele>13.14</ele>
        <time>2020-07-10T13:02:28Z</time>
      </trkpt>
      <trkpt lat="47.81379" lon="-3.53056">
        <ele>13.14</ele>
        <time>2020-07-10T13:02:29Z</time>
      </trkpt>
      <trkpt lat="47.81379" lon="-3.53056">
        <ele>13.14</ele>
        <time>2020-07-10T13:02:30Z</time>
      </trkpt>
      <trkpt lat="47.81379" lon="-3.53056">
        <ele>13.14</ele>
        <time>2020-07-10T13:02:31Z</time>
      </trkpt>
      <trkpt lat="47.81379" lon="-3.53056">
        <ele>13.14</ele>
        <time>2020-07-10T13:02:32Z</time>
      </trkpt>
      <trkpt lat="47.81379" lon="-3.53056">
        <ele>13.14</ele>
        <time>2020-07-10T13:02:33Z</time>
      </trkpt>
      <trkpt lat="47.81379" lon="-3.53056">
        <ele>13.14</ele>
        <time>2020-07-10T13:02:34Z</time>
      </trkpt>
      <trkpt lat="47.81379" lon="-3.53056">
        <ele>13.14</ele>
        <time>2020-07-10T13:02:35Z</time>
      </trkpt>
      <trkpt lat="47.81379" lon="-3.53056">
        <ele>13.14</ele>
        <time>2020-07-10T13:02:36Z</time>
      </trkpt>
      <trkpt lat="47.81379" lon="-3.53056">
        <ele>13.14</ele>
        <time>2020-07-10T13:02:37Z</time>
      </trkpt>
      <trkpt lat="47.81379" lon="-3.53056">
        <ele>13.14</ele>
        <time>2020-07-10T13:02:38Z</time>
      </trkpt>
      <trkpt lat="47.81379" lon="-3.53056">
        <ele>13.14</ele>
        <time>2020-07-10T13:02:39Z</time>
      </trkpt>
      <trkpt lat="47.81379" lon="-3.53056">
        <ele>13.14</ele>
        <time>2020-07-10T13:02:40Z</time>
      </trkpt>
      <trkpt lat="47.81379" lon="-3.53056">
        <ele>13.14</ele>
        <time>2020-07-10T13:02:41Z</time>
      </trkpt>
      <trkpt lat="47.81379" lon="-3.53056">
        <ele>13.14</ele>
        <time>2020-07-10T13:02:42Z</time>
      </trkpt>
      <trkpt lat="47.81379" lon="-3.53056">
        <ele>13.14</ele>
        <time>2020-07-10T13:02:43Z</time>
      </trkpt>
      <trkpt lat="47.81377" lon="-3.5305">
        <ele>13.51</ele>
        <time>2020-07-10T13:02:44Z</time>
      </trkpt>
      <trkpt lat="47.81377" lon="-3.5305">
        <ele>13.57</ele>
        <time>2020-07-10T13:02:45Z</time>
      </trkpt>
      <trkpt lat="47.81376" lon="-3.53049">
        <ele>13.71</ele>
        <time>2020-07-10T13:02:46Z</time>
      </trkpt>
      <trkpt lat="47.81376" lon="-3.53047">
        <ele>13.85</ele>
        <time>2020-07-10T13:02:47Z</time>
      </trkpt>
      <trkpt lat="47.81376" lon="-3.53046">
        <ele>14.09</ele>
        <time>2020-07-10T13:02:48Z</time>
      </trkpt>
      <trkpt lat="47.81377" lon="-3.53044">
        <ele>14.38</ele>
        <time>2020-07-10T13:02:49Z</time>
      </trkpt>
      <trkpt lat="47.81377" lon="-3.53042">
        <ele>14.71</ele>
        <time>2020-07-10T13:02:50Z</time>
      </trkpt>
      <trkpt lat="47.81378" lon="-3.5304">
        <ele>15.08</ele>
        <time>2020-07-10T13:02:51Z</time>
      </trkpt>
      <trkpt lat="47.81378" lon="-3.53039">
        <ele>15.33</ele>
        <time>2020-07-10T13:02:52Z</time>
      </trkpt>
      <trkpt lat="47.81378" lon="-3.53037">
        <ele>15.59</ele>
        <time>2020-07-10T13:02:53Z</time>
      </trkpt>
      <trkpt lat="47.81379" lon="-3.53037">
        <ele>15.83</ele>
        <time>2020-07-10T13:02:54Z</time>
      </trkpt>
      <trkpt lat="47.81379" lon="-3.53036">
        <ele>16.05</ele>
        <time>2020-07-10T13:02:55Z</time>
      </trkpt>
      <trkpt lat="47.81379" lon="-3.53036">
        <ele>16.12</ele>
        <time>2020-07-10T13:02:56Z</time>
      </trkpt>
      <trkpt lat="47.81379" lon="-3.53036">
        <ele>16.14</ele>
        <time>2020-07-10T13:02:57Z</time>
      </trkpt>
      <trkpt lat="47.81379" lon="-3.53036">
        <ele>16.14</ele>
        <time>2020-07-10T13:02:58Z</time>
      </trkpt>
      <trkpt lat="47.81382" lon="-3.5303">
        <ele>17.01</ele>
        <time>2020-07-10T13:02:59Z</time>
      </trkpt>
      <trkpt lat="47.81383" lon="-3.53028">
        <ele>17.61</ele>
        <time>2020-07-10T13:03:00Z</time>
      </trkpt>
      <trkpt lat="47.81383" lon="-3.53027">
        <ele>18.01</ele>
        <time>2020-07-10T13:03:01Z</time>
      </trkpt>
      <trkpt lat="47.81384" lon="-3.53025">
        <ele>18.41</ele>
        <time>2020-07-10T13:03:02Z</time>
      </trkpt>
      <trkpt lat="47.81386" lon="-3.53024">
        <ele>18.76</ele>
        <time>2020-07-10T13:03:03Z</time>
      </trkpt>
      <trkpt lat="47.81386" lon="-3.53023">
        <ele>19.1</ele>
        <time>2020-07-10T13:03:04Z</time>
      </trkpt>
      <trkpt lat="47.81387" lon="-3.53021">
        <ele>19.52</ele>
        <time>2020-07-10T13:03:05Z</time>
      </trkpt>
      <trkpt lat="47.81388" lon="-3.53019">
        <ele>19.91</ele>
        <time>2020-07-10T13:03:06Z</time>
      </trkpt>
      <trkpt lat="47.81389" lon="-3.53017">
        <ele>20.28</ele>
        <time>2020-07-10T13:03:07Z</time>
      </trkpt>
      <trkpt lat="47.8139" lon="-3.53017">
        <ele>20.57</ele>
        <time>2020-07-10T13:03:08Z</time>
      </trkpt>
      <trkpt lat="47.81391" lon="-3.53015">
        <ele>20.84</ele>
        <time>2020-07-10T13:03:09Z</time>
      </trkpt>
      <trkpt lat="47.81392" lon="-3.53014">
        <ele>21.07</ele>
        <time>2020-07-10T13:03:10Z</time>
      </trkpt>
      <trkpt lat="47.81392" lon="-3.53014">
        <ele>21.24</ele>
        <time>2020-07-10T13:03:11Z</time>
      </trkpt>
      <trkpt lat="47.81393" lon="-3.53013">
        <ele>21.4</ele>
        <time>2020-07-10T13:03:12Z</time>
      </trkpt>
      <trkpt lat="47.81393" lon="-3.53012">
        <ele>21.55</ele>
        <time>2020-07-10T13:03:13Z</time>
      </trkpt>
      <trkpt lat="47.81393" lon="-3.53012">
        <ele>21.6</ele>
        <time>2020-07-10T13:03:14Z</time>
      </trkpt>
      <trkpt lat="47.81395" lon="-3.5301">
        <ele>21.89</ele>
        <time>2020-07-10T13:03:15Z</time>
      </trkpt>
      <trkpt lat="47.81396" lon="-3.5301">
        <ele>22.11</ele>
        <time>2020-07-10T13:03:16Z</time>
      </trkpt>
      <trkpt lat="47.81397" lon="-3.53009">
        <ele>22.31</ele>
        <time>2020-07-10T13:03:17Z</time>
      </trkpt>
      <trkpt lat="47.81398" lon="-3.53008">
        <ele>22.51</ele>
        <time>2020-07-10T13:03:18Z</time>
      </trkpt>
      <trkpt lat="47.81399" lon="-3.53008">
        <ele>22.69</ele>
        <time>2020-07-10T13:03:19Z</time>
      </trkpt>
      <trkpt lat="47.81401" lon="-3.53007">
        <ele>22.89</ele>
        <time>2020-07-10T13:03:20Z</time>
      </trkpt>
      <trkpt lat="47.81403" lon="-3.53006">
        <ele>23.14</ele>
        <time>2020-07-10T13:03:21Z</time>
      </trkpt>
      <trkpt lat="47.81404" lon="-3.53005">
        <ele>23.34</ele>
        <time>2020-07-10T13:03:22Z</time>
      </trkpt>
      <trkpt lat="47.81406" lon="-3.53005">
        <ele>23.51</ele>
        <time>2020-07-10T13:03:23Z</time>
      </trkpt>
      <trkpt lat="47.81407" lon="-3.53005">
        <ele>23.65</ele>
        <time>2020-07-10T13:03:24Z</time>
      </trkpt>
      <trkpt lat="47.81407" lon="-3.53004">
        <ele>23.83</ele>
        <time>2020-07-10T13:03:25Z</time>
      </trkpt>
      <trkpt lat="47.81409" lon="-3.53002">
        <ele>24.05</ele>
        <time>2020-07-10T13:03:26Z</time>
      </trkpt>
      <trkpt lat="47.81409" lon="-3.53002">
        <ele>24.12</ele>
        <time>2020-07-10T13:03:27Z</time>
      </trkpt>
      <trkpt lat="47.81412" lon="-3.53">
        <ele>24.45</ele>
        <time>2020-07-10T13:03:28Z</time>
      </trkpt>
      <trkpt lat="47.81413" lon="-3.52999">
        <ele>24.74</ele>
        <time>2020-07-10T13:03:29Z</time>
      </trkpt>
      <trkpt lat="47.81415" lon="-3.52998">
        <ele>25.01</ele>
        <time>2020-07-10T13:03:30Z</time>
      </trkpt>
      <trkpt lat="47.81417" lon="-3.52997">
        <ele>25.33</ele>
        <time>2020-07-10T13:03:31Z</time>
      </trkpt>
      <trkpt lat="47.81419" lon="-3.52996">
        <ele>25.77</ele>
        <time>2020-07-10T13:03:32Z</time>
      </trkpt>
      <trkpt lat="47.8142" lon="-3.52995">
        <ele>26.3</ele>
        <time>2020-07-10T13:03:33Z</time>
      </trkpt>
      <trkpt lat="47.81422" lon="-3.52994">
        <ele>26.83</ele>
        <time>2020-07-10T13:03:34Z</time>
      </trkpt>
      <trkpt lat="47.81424" lon="-3.52993">
        <ele>27.51</ele>
        <time>2020-07-10T13:03:35Z</time>
      </trkpt>
      <trkpt lat="47.81426" lon="-3.52991">
        <ele>28.19</ele>
        <time>2020-07-10T13:03:36Z</time>
      </trkpt>
      <trkpt lat="47.81429" lon="-3.52991">
        <ele>28.85</ele>
        <time>2020-07-10T13:03:37Z</time>
      </trkpt>
      <trkpt lat="47.81431" lon="-3.5299">
        <ele>29.59</ele>
        <time>2020-07-10T13:03:38Z</time>
      </trkpt>
      <trkpt lat="47.81433" lon="-3.52988">
        <ele>30.27</ele>
        <time>2020-07-10T13:03:39Z</time>
      </trkpt>
      <trkpt lat="47.81435" lon="-3.52987">
        <ele>30.85</ele>
        <time>2020-07-10T13:03:40Z</time>
      </trkpt>
      <trkpt lat="47.81437" lon="-3.52986">
        <ele>31.44</ele>
        <time>2020-07-10T13:03:41Z</time>
      </trkpt>
      <trkpt lat="47.81439" lon="-3.52985">
        <ele>32.05</ele>
        <time>2020-07-10T13:03:42Z</time>
      </trkpt>
      <trkpt lat="47.81442" lon="-3.52984">
        <ele>32.72</ele>
        <time>2020-07-10T13:03:43Z</time>
      </trkpt>
      <trkpt lat="47.81444" lon="-3.52984">
        <ele>33.2</ele>
        <time>2020-07-10T13:03:44Z</time>
      </trkpt>
      <trkpt lat="47.81446" lon="-3.52982">
        <ele>33.58</ele>
        <time>2020-07-10T13:03:45Z</time>
      </trkpt>
      <trkpt lat="47.81448" lon="-3.52981">
        <ele>33.82</ele>
        <time>2020-07-10T13:03:46Z</time>
      </trkpt>
      <trkpt lat="47.81449" lon="-3.5298">
        <ele>34.02</ele>
        <time>2020-07-10T13:03:47Z</time>
      </trkpt>
      <trkpt lat="47.81451" lon="-3.52979">
        <ele>34.2</ele>
        <time>2020-07-10T13:03:48Z</time>
      </trkpt>
      <trkpt lat="47.81452" lon="-3.52978">
        <ele>34.36</ele>
        <time>2020-07-10T13:03:49Z</time>
      </trkpt>
      <trkpt lat="47.81455" lon="-3.52977">
        <ele>34.54</ele>
        <time>2020-07-10T13:03:50Z</time>
      </trkpt>
      <trkpt lat="47.81456" lon="-3.52977">
        <ele>34.7</ele>
        <time>2020-07-10T13:03:51Z</time>
      </trkpt>
      <trkpt lat="47.81458" lon="-3.52977">
        <ele>34.85</ele>
        <time>2020-07-10T13:03:52Z</time>
      </trkpt>
      <trkpt lat="47.8146" lon="-3.52976">
        <ele>35</ele>
        <time>2020-07-10T13:03:53Z</time>
      </trkpt>
      <trkpt lat="47.81462" lon="-3.52975">
        <ele>35.19</ele>
        <time>2020-07-10T13:03:54Z</time>
      </trkpt>
      <trkpt lat="47.81464" lon="-3.52974">
        <ele>35.34</ele>
        <time>2020-07-10T13:03:55Z</time>
      </trkpt>
      <trkpt lat="47.81466" lon="-3.52973">
        <ele>35.49</ele>
        <time>2020-07-10T13:03:56Z</time>
      </trkpt>
      <trkpt lat="47.81468" lon="-3.52972">
        <ele>35.63</ele>
        <time>2020-07-10T13:03:57Z</time>
      </trkpt>
      <trkpt lat="47.81469" lon="-3.52971">
        <ele>35.75</ele>
        <time>2020-07-10T13:03:58Z</time>
      </trkpt>
      <trkpt lat="47.81471" lon="-3.5297">
        <ele>35.87</ele>
        <time>2020-07-10T13:03:59Z</time>
      </trkpt>
      <trkpt lat="47.81471" lon="-3.5297">
        <ele>35.92</ele>
        <time>2020-07-10T13:04:00Z</time>
      </trkpt>
      <trkpt lat="47.81471" lon="-3.5297">
        <ele>35.93</ele>
        <time>2020-07-10T13:04:01Z</time>
      </trkpt>
      <trkpt lat="47.81471" lon="-3.5297">
        <ele>35.94</ele>
        <time>2020-07-10T13:04:02Z</time>
      </trkpt>
      <trkpt lat="47.81471" lon="-3.5297">
        <ele>35.94</ele>
        <time>2020-07-10T13:04:03Z</time>
      </trkpt>
      <trkpt lat="47.81471" lon="-3.5297">
        <ele>35.94</ele>
        <time>2020-07-10T13:04:04Z</time>
      </trkpt>
      <trkpt lat="47.81471" lon="-3.5297">
        <ele>35.94</ele>
        <time>2020-07-10T13:04:05Z</time>
      </trkpt>
      <trkpt lat="47.81471" lon="-3.5297">
        <ele>35.94</ele>
        <time>2020-07-10T13:04:06Z</time>
      </trkpt>
      <trkpt lat="47.81471" lon="-3.5297">
        <ele>35.94</ele>
        <time>2020-07-10T13:04:07Z</time>
      </trkpt>
      <trkpt lat="47.81471" lon="-3.5297">
        <ele>35.94</ele>
        <time>2020-07-10T13:04:08Z</time>
      </trkpt>
      <trkpt lat="47.81471" lon="-3.5297">
        <ele>35.94</ele>
        <time>2020-07-10T13:04:09Z</time>
      </trkpt>
      <trkpt lat="47.81471" lon="-3.5297">
        <ele>35.94</ele>
        <time>2020-07-10T13:04:10Z</time>
      </trkpt>
      <trkpt lat="47.81471" lon="-3.5297">
        <ele>35.94</ele>
        <time>2020-07-10T13:04:11Z</time>
      </trkpt>
      <trkpt lat="47.81471" lon="-3.5297">
        <ele>35.94</ele>
        <time>2020-07-10T13:04:12Z</time>
      </trkpt>
      <trkpt lat="47.81472" lon="-3.52963">
        <ele>35.97</ele>
        <time>2020-07-10T13:04:13Z</time>
      </trkpt>
      <trkpt lat="47.81472" lon="-3.5296">
        <ele>35.97</ele>
        <time>2020-07-10T13:04:14Z</time>
      </trkpt>
      <trkpt lat="47.81471" lon="-3.52956">
        <ele>35.95</ele>
        <time>2020-07-10T13:04:15Z</time>
      </trkpt>
      <trkpt lat="47.81471" lon="-3.52951">
        <ele>35.94</ele>
        <time>2020-07-10T13:04:16Z</time>
      </trkpt>
      <trkpt lat="47.81469" lon="-3.52948">
        <ele>35.9</ele>
        <time>2020-07-10T13:04:17Z</time>
      </trkpt>
      <trkpt lat="47.81468" lon="-3.52943">
        <ele>35.88</ele>
        <time>2020-07-10T13:04:18Z</time>
      </trkpt>
      <trkpt lat="47.81468" lon="-3.52937">
        <ele>35.84</ele>
        <time>2020-07-10T13:04:19Z</time>
      </trkpt>
      <trkpt lat="47.81466" lon="-3.52931">
        <ele>35.8</ele>
        <time>2020-07-10T13:04:20Z</time>
      </trkpt>
      <trkpt lat="47.81465" lon="-3.52925">
        <ele>35.76</ele>
        <time>2020-07-10T13:04:21Z</time>
      </trkpt>
      <trkpt lat="47.81464" lon="-3.52921">
        <ele>35.71</ele>
        <time>2020-07-10T13:04:22Z</time>
      </trkpt>
      <trkpt lat="47.81462" lon="-3.52917">
        <ele>35.67</ele>
        <time>2020-07-10T13:04:23Z</time>
      </trkpt>
      <trkpt lat="47.81461" lon="-3.52913">
        <ele>35.62</ele>
        <time>2020-07-10T13:04:24Z</time>
      </trkpt>
      <trkpt lat="47.81461" lon="-3.5291">
        <ele>35.6</ele>
        <time>2020-07-10T13:04:25Z</time>
      </trkpt>
      <trkpt lat="47.81461" lon="-3.52906">
        <ele>35.58</ele>
        <time>2020-07-10T13:04:26Z</time>
      </trkpt>
      <trkpt lat="47.81461" lon="-3.52904">
        <ele>35.58</ele>
        <time>2020-07-10T13:04:27Z</time>
      </trkpt>
      <trkpt lat="47.81462" lon="-3.52902">
        <ele>35.61</ele>
        <time>2020-07-10T13:04:28Z</time>
      </trkpt>
      <trkpt lat="47.81462" lon="-3.52904">
        <ele>35.63</ele>
        <time>2020-07-10T13:04:29Z</time>
      </trkpt>
      <trkpt lat="47.81463" lon="-3.52905">
        <ele>35.65</ele>
        <time>2020-07-10T13:04:30Z</time>
      </trkpt>
      <trkpt lat="47.81462" lon="-3.52907">
        <ele>35.65</ele>
        <time>2020-07-10T13:04:31Z</time>
      </trkpt>
      <trkpt lat="47.81462" lon="-3.52911">
        <ele>35.64</ele>
        <time>2020-07-10T13:04:32Z</time>
      </trkpt>
      <trkpt lat="47.81462" lon="-3.52915">
        <ele>35.64</ele>
        <time>2020-07-10T13:04:33Z</time>
      </trkpt>
      <trkpt lat="47.81463" lon="-3.52919">
        <ele>35.65</ele>
        <time>2020-07-10T13:04:34Z</time>
      </trkpt>
      <trkpt lat="47.81464" lon="-3.52924">
        <ele>35.68</ele>
        <time>2020-07-10T13:04:35Z</time>
      </trkpt>
      <trkpt lat="47.81464" lon="-3.52928">
        <ele>35.7</ele>
        <time>2020-07-10T13:04:36Z</time>
      </trkpt>
      <trkpt lat="47.81465" lon="-3.52933">
        <ele>35.73</ele>
        <time>2020-07-10T13:04:37Z</time>
      </trkpt>
      <trkpt lat="47.81466" lon="-3.52938">
        <ele>35.76</ele>
        <time>2020-07-10T13:04:38Z</time>
      </trkpt>
      <trkpt lat="47.81466" lon="-3.52942">
        <ele>35.78</ele>
        <time>2020-07-10T13:04:39Z</time>
      </trkpt>
      <trkpt lat="47.81467" lon="-3.52947">
        <ele>35.8</ele>
        <time>2020-07-10T13:04:40Z</time>
      </trkpt>
      <trkpt lat="47.81468" lon="-3.52951">
        <ele>35.82</ele>
        <time>2020-07-10T13:04:41Z</time>
      </trkpt>
      <trkpt lat="47.81469" lon="-3.52954">
        <ele>35.85</ele>
        <time>2020-07-10T13:04:42Z</time>
      </trkpt>
      <trkpt lat="47.8147" lon="-3.52959">
        <ele>35.88</ele>
        <time>2020-07-10T13:04:43Z</time>
      </trkpt>
      <trkpt lat="47.81471" lon="-3.52964">
        <ele>35.92</ele>
        <time>2020-07-10T13:04:44Z</time>
      </trkpt>
      <trkpt lat="47.81473" lon="-3.5297">
        <ele>35.98</ele>
        <time>2020-07-10T13:04:45Z</time>
      </trkpt>
      <trkpt lat="47.81474" lon="-3.52975">
        <ele>35.99</ele>
        <time>2020-07-10T13:04:46Z</time>
      </trkpt>
      <trkpt lat="47.81476" lon="-3.52981">
        <ele>36</ele>
        <time>2020-07-10T13:04:47Z</time>
      </trkpt>
      <trkpt lat="47.81478" lon="-3.52987">
        <ele>36</ele>
        <time>2020-07-10T13:04:48Z</time>
      </trkpt>
      <trkpt lat="47.8148" lon="-3.52993">
        <ele>36</ele>
        <time>2020-07-10T13:04:49Z</time>
      </trkpt>
      <trkpt lat="47.81482" lon="-3.52998">
        <ele>36</ele>
        <time>2020-07-10T13:04:50Z</time>
      </trkpt>
      <trkpt lat="47.81485" lon="-3.53003">
        <ele>36</ele>
        <time>2020-07-10T13:04:51Z</time>
      </trkpt>
      <trkpt lat="47.81489" lon="-3.53008">
        <ele>36</ele>
        <time>2020-07-10T13:04:52Z</time>
      </trkpt>
      <trkpt lat="47.81493" lon="-3.53012">
        <ele>36</ele>
        <time>2020-07-10T13:04:53Z</time>
      </trkpt>
      <trkpt lat="47.81496" lon="-3.53017">
        <ele>36</ele>
        <time>2020-07-10T13:04:54Z</time>
      </trkpt>
      <trkpt lat="47.815" lon="-3.53021">
        <ele>36</ele>
        <time>2020-07-10T13:04:55Z</time>
      </trkpt>
      <trkpt lat="47.81503" lon="-3.53024">
        <ele>36.01</ele>
        <time>2020-07-10T13:04:56Z</time>
      </trkpt>
      <trkpt lat="47.81506" lon="-3.53027">
        <ele>36.01</ele>
        <time>2020-07-10T13:04:57Z</time>
      </trkpt>
      <trkpt lat="47.8151" lon="-3.5303">
        <ele>36</ele>
        <time>2020-07-10T13:04:58Z</time>
      </trkpt>
      <trkpt lat="47.81514" lon="-3.53033">
        <ele>36</ele>
        <time>2020-07-10T13:04:59Z</time>
      </trkpt>
      <trkpt lat="47.81518" lon="-3.53036">
        <ele>36</ele>
        <time>2020-07-10T13:05:00Z</time>
      </trkpt>
      <trkpt lat="47.81522" lon="-3.53041">
        <ele>36</ele>
        <time>2020-07-10T13:05:01Z</time>
      </trkpt>
      <trkpt lat="47.81526" lon="-3.53045">
        <ele>36</ele>
        <time>2020-07-10T13:05:02Z</time>
      </trkpt>
      <trkpt lat="47.8153" lon="-3.53049">
        <ele>36.07</ele>
        <time>2020-07-10T13:05:03Z</time>
      </trkpt>
      <trkpt lat="47.81535" lon="-3.53053">
        <ele>36.22</ele>
        <time>2020-07-10T13:05:04Z</time>
      </trkpt>
      <trkpt lat="47.8154" lon="-3.53056">
        <ele>36.35</ele>
        <time>2020-07-10T13:05:05Z</time>
      </trkpt>
      <trkpt lat="47.81544" lon="-3.53059">
        <ele>36.47</ele>
        <time>2020-07-10T13:05:06Z</time>
      </trkpt>
      <trkpt lat="47.81549" lon="-3.53062">
        <ele>36.55</ele>
        <time>2020-07-10T13:05:07Z</time>
      </trkpt>
      <trkpt lat="47.81554" lon="-3.53066">
        <ele>36.58</ele>
        <time>2020-07-10T13:05:08Z</time>
      </trkpt>
      <trkpt lat="47.81558" lon="-3.53069">
        <ele>36.6</ele>
        <time>2020-07-10T13:05:09Z</time>
      </trkpt>
      <trkpt lat="47.81563" lon="-3.53072">
        <ele>36.64</ele>
        <time>2020-07-10T13:05:10Z</time>
      </trkpt>
      <trkpt lat="47.81567" lon="-3.53075">
        <ele>36.69</ele>
        <time>2020-07-10T13:05:11Z</time>
      </trkpt>
      <trkpt lat="47.8157" lon="-3.53078">
        <ele>36.72</ele>
        <time>2020-07-10T13:05:12Z</time>
      </trkpt>
      <trkpt lat="47.81574" lon="-3.53082">
        <ele>36.73</ele>
        <time>2020-07-10T13:05:13Z</time>
      </trkpt>
      <trkpt lat="47.81578" lon="-3.53085">
        <ele>36.76</ele>
        <time>2020-07-10T13:05:14Z</time>
      </trkpt>
      <trkpt lat="47.81582" lon="-3.53088">
        <ele>36.79</ele>
        <time>2020-07-10T13:05:15Z</time>
      </trkpt>
      <trkpt lat="47.81586" lon="-3.5309">
        <ele>36.9</ele>
        <time>2020-07-10T13:05:16Z</time>
      </trkpt>
      <trkpt lat="47.81589" lon="-3.53093">
        <ele>37.09</ele>
        <time>2020-07-10T13:05:17Z</time>
      </trkpt>
      <trkpt lat="47.81593" lon="-3.53095">
        <ele>37.32</ele>
        <time>2020-07-10T13:05:18Z</time>
      </trkpt>
      <trkpt lat="47.81596" lon="-3.53098">
        <ele>37.57</ele>
        <time>2020-07-10T13:05:19Z</time>
      </trkpt>
      <trkpt lat="47.816" lon="-3.531">
        <ele>37.87</ele>
        <time>2020-07-10T13:05:20Z</time>
      </trkpt>
      <trkpt lat="47.81604" lon="-3.53101">
        <ele>38.2</ele>
        <time>2020-07-10T13:05:21Z</time>
      </trkpt>
      <trkpt lat="47.81607" lon="-3.53101">
        <ele>38.49</ele>
        <time>2020-07-10T13:05:22Z</time>
      </trkpt>
      <trkpt lat="47.8161" lon="-3.531">
        <ele>38.78</ele>
        <time>2020-07-10T13:05:23Z</time>
      </trkpt>
      <trkpt lat="47.81613" lon="-3.53098">
        <ele>38.99</ele>
        <time>2020-07-10T13:05:24Z</time>
      </trkpt>
      <trkpt lat="47.81616" lon="-3.53094">
        <ele>39.12</ele>
        <time>2020-07-10T13:05:25Z</time>
      </trkpt>
      <trkpt lat="47.81619" lon="-3.53091">
        <ele>39.22</ele>
        <time>2020-07-10T13:05:26Z</time>
      </trkpt>
      <trkpt lat="47.81621" lon="-3.53087">
        <ele>39.32</ele>
        <time>2020-07-10T13:05:27Z</time>
      </trkpt>
      <trkpt lat="47.81623" lon="-3.53082">
        <ele>39.41</ele>
        <time>2020-07-10T13:05:28Z</time>
      </trkpt>
      <trkpt lat="47.81625" lon="-3.53078">
        <ele>39.54</ele>
        <time>2020-07-10T13:05:29Z</time>
      </trkpt>
      <trkpt lat="47.81627" lon="-3.53072">
        <ele>39.72</ele>
        <time>2020-07-10T13:05:30Z</time>
      </trkpt>
      <trkpt lat="47.81629" lon="-3.53066">
        <ele>39.93</ele>
        <time>2020-07-10T13:05:31Z</time>
      </trkpt>
      <trkpt lat="47.8163" lon="-3.5306">
        <ele>40.15</ele>
        <time>2020-07-10T13:05:32Z</time>
      </trkpt>
      <trkpt lat="47.8163" lon="-3.53053">
        <ele>40.34</ele>
        <time>2020-07-10T13:05:33Z</time>
      </trkpt>
      <trkpt lat="47.81631" lon="-3.53046">
        <ele>40.47</ele>
        <time>2020-07-10T13:05:34Z</time>
      </trkpt>
      <trkpt lat="47.81631" lon="-3.53038">
        <ele>40.57</ele>
        <time>2020-07-10T13:05:35Z</time>
      </trkpt>
      <trkpt lat="47.81631" lon="-3.5303">
        <ele>40.64</ele>
        <time>2020-07-10T13:05:36Z</time>
      </trkpt>
      <trkpt lat="47.8163" lon="-3.53023">
        <ele>40.76</ele>
        <time>2020-07-10T13:05:37Z</time>
      </trkpt>
      <trkpt lat="47.8163" lon="-3.53016">
        <ele>40.91</ele>
        <time>2020-07-10T13:05:38Z</time>
      </trkpt>
      <trkpt lat="47.8163" lon="-3.53009">
        <ele>41.06</ele>
        <time>2020-07-10T13:05:39Z</time>
      </trkpt>
      <trkpt lat="47.8163" lon="-3.53003">
        <ele>41.22</ele>
        <time>2020-07-10T13:05:40Z</time>
      </trkpt>
      <trkpt lat="47.81629" lon="-3.52996">
        <ele>41.33</ele>
        <time>2020-07-10T13:05:41Z</time>
      </trkpt>
      <trkpt lat="47.81629" lon="-3.52988">
        <ele>41.41</ele>
        <time>2020-07-10T13:05:42Z</time>
      </trkpt>
      <trkpt lat="47.81629" lon="-3.52981">
        <ele>41.49</ele>
        <time>2020-07-10T13:05:43Z</time>
      </trkpt>
      <trkpt lat="47.81628" lon="-3.52974">
        <ele>41.57</ele>
        <time>2020-07-10T13:05:44Z</time>
      </trkpt>
      <trkpt lat="47.81628" lon="-3.52967">
        <ele>41.6</ele>
        <time>2020-07-10T13:05:45Z</time>
      </trkpt>
      <trkpt lat="47.81628" lon="-3.52959">
        <ele>41.61</ele>
        <time>2020-07-10T13:05:46Z</time>
      </trkpt>
      <trkpt lat="47.81628" lon="-3.52952">
        <ele>41.6</ele>
        <time>2020-07-10T13:05:47Z</time>
      </trkpt>
      <trkpt lat="47.81628" lon="-3.52945">
        <ele>41.6</ele>
        <time>2020-07-10T13:05:48Z</time>
      </trkpt>
      <trkpt lat="47.81627" lon="-3.52938">
        <ele>41.75</ele>
        <time>2020-07-10T13:05:49Z</time>
      </trkpt>
      <trkpt lat="47.81627" lon="-3.52931">
        <ele>41.98</ele>
        <time>2020-07-10T13:05:50Z</time>
      </trkpt>
      <trkpt lat="47.81627" lon="-3.52924">
        <ele>42.22</ele>
        <time>2020-07-10T13:05:51Z</time>
      </trkpt>
      <trkpt lat="47.81627" lon="-3.52916">
        <ele>42.46</ele>
        <time>2020-07-10T13:05:52Z</time>
      </trkpt>
      <trkpt lat="47.81627" lon="-3.52909">
        <ele>42.53</ele>
        <time>2020-07-10T13:05:53Z</time>
      </trkpt>
      <trkpt lat="47.81626" lon="-3.52901">
        <ele>42.55</ele>
        <time>2020-07-10T13:05:54Z</time>
      </trkpt>
      <trkpt lat="47.81626" lon="-3.52894">
        <ele>42.55</ele>
        <time>2020-07-10T13:05:55Z</time>
      </trkpt>
      <trkpt lat="47.81626" lon="-3.52886">
        <ele>42.54</ele>
        <time>2020-07-10T13:05:56Z</time>
      </trkpt>
      <trkpt lat="47.81626" lon="-3.52878">
        <ele>42.54</ele>
        <time>2020-07-10T13:05:57Z</time>
      </trkpt>
      <trkpt lat="47.81626" lon="-3.52871">
        <ele>42.53</ele>
        <time>2020-07-10T13:05:58Z</time>
      </trkpt>
      <trkpt lat="47.81626" lon="-3.52863">
        <ele>42.52</ele>
        <time>2020-07-10T13:05:59Z</time>
      </trkpt>
      <trkpt lat="47.81625" lon="-3.52856">
        <ele>42.57</ele>
        <time>2020-07-10T13:06:00Z</time>
      </trkpt>
      <trkpt lat="47.81625" lon="-3.5285">
        <ele>42.66</ele>
        <time>2020-07-10T13:06:01Z</time>
      </trkpt>
      <trkpt lat="47.81625" lon="-3.52843">
        <ele>42.77</ele>
        <time>2020-07-10T13:06:02Z</time>
      </trkpt>
      <trkpt lat="47.81625" lon="-3.52835">
        <ele>42.88</ele>
        <time>2020-07-10T13:06:03Z</time>
      </trkpt>
      <trkpt lat="47.81624" lon="-3.52827">
        <ele>42.93</ele>
        <time>2020-07-10T13:06:04Z</time>
      </trkpt>
      <trkpt lat="47.81624" lon="-3.52819">
        <ele>42.94</ele>
        <time>2020-07-10T13:06:05Z</time>
      </trkpt>
      <trkpt lat="47.81624" lon="-3.52812">
        <ele>42.92</ele>
        <time>2020-07-10T13:06:06Z</time>
      </trkpt>
      <trkpt lat="47.81624" lon="-3.52803">
        <ele>42.92</ele>
        <time>2020-07-10T13:06:07Z</time>
      </trkpt>
      <trkpt lat="47.81624" lon="-3.52796">
        <ele>42.91</ele>
        <time>2020-07-10T13:06:08Z</time>
      </trkpt>
      <trkpt lat="47.81624" lon="-3.52787">
        <ele>42.91</ele>
        <time>2020-07-10T13:06:09Z</time>
      </trkpt>
      <trkpt lat="47.81623" lon="-3.52779">
        <ele>42.89</ele>
        <time>2020-07-10T13:06:10Z</time>
      </trkpt>
      <trkpt lat="47.81623" lon="-3.52771">
        <ele>42.87</ele>
        <time>2020-07-10T13:06:11Z</time>
      </trkpt>
      <trkpt lat="47.81623" lon="-3.52764">
        <ele>42.85</ele>
        <time>2020-07-10T13:06:12Z</time>
      </trkpt>
      <trkpt lat="47.81622" lon="-3.52756">
        <ele>42.82</ele>
        <time>2020-07-10T13:06:13Z</time>
      </trkpt>
      <trkpt lat="47.81622" lon="-3.52748">
        <ele>42.79</ele>
        <time>2020-07-10T13:06:14Z</time>
      </trkpt>
      <trkpt lat="47.81622" lon="-3.52741">
        <ele>42.78</ele>
        <time>2020-07-10T13:06:15Z</time>
      </trkpt>
      <trkpt lat="47.81622" lon="-3.52733">
        <ele>42.77</ele>
        <time>2020-07-10T13:06:16Z</time>
      </trkpt>
      <trkpt lat="47.81622" lon="-3.52725">
        <ele>42.79</ele>
        <time>2020-07-10T13:06:17Z</time>
      </trkpt>
      <trkpt lat="47.81623" lon="-3.52718">
        <ele>42.87</ele>
        <time>2020-07-10T13:06:18Z</time>
      </trkpt>
      <trkpt lat="47.81623" lon="-3.5271">
        <ele>43</ele>
        <time>2020-07-10T13:06:19Z</time>
      </trkpt>
      <trkpt lat="47.81624" lon="-3.52703">
        <ele>43.16</ele>
        <time>2020-07-10T13:06:20Z</time>
      </trkpt>
      <trkpt lat="47.81624" lon="-3.52695">
        <ele>43.34</ele>
        <time>2020-07-10T13:06:21Z</time>
      </trkpt>
      <trkpt lat="47.81625" lon="-3.52688">
        <ele>43.33</ele>
        <time>2020-07-10T13:06:22Z</time>
      </trkpt>
      <trkpt lat="47.81625" lon="-3.5268">
        <ele>43.27</ele>
        <time>2020-07-10T13:06:23Z</time>
      </trkpt>
      <trkpt lat="47.81625" lon="-3.52673">
        <ele>43.15</ele>
        <time>2020-07-10T13:06:24Z</time>
      </trkpt>
      <trkpt lat="47.81625" lon="-3.52666">
        <ele>43.04</ele>
        <time>2020-07-10T13:06:25Z</time>
      </trkpt>
      <trkpt lat="47.81625" lon="-3.52658">
        <ele>43.03</ele>
        <time>2020-07-10T13:06:26Z</time>
      </trkpt>
      <trkpt lat="47.81626" lon="-3.52651">
        <ele>43.06</ele>
        <time>2020-07-10T13:06:27Z</time>
      </trkpt>
      <trkpt lat="47.81627" lon="-3.52643">
        <ele>43.1</ele>
        <time>2020-07-10T13:06:28Z</time>
      </trkpt>
      <trkpt lat="47.81628" lon="-3.52636">
        <ele>43.05</ele>
        <time>2020-07-10T13:06:29Z</time>
      </trkpt>
      <trkpt lat="47.81629" lon="-3.52629">
        <ele>42.77</ele>
        <time>2020-07-10T13:06:30Z</time>
      </trkpt>
      <trkpt lat="47.81629" lon="-3.52621">
        <ele>42.39</ele>
        <time>2020-07-10T13:06:31Z</time>
      </trkpt>
      <trkpt lat="47.81629" lon="-3.52613">
        <ele>41.98</ele>
        <time>2020-07-10T13:06:32Z</time>
      </trkpt>
      <trkpt lat="47.8163" lon="-3.52606">
        <ele>41.73</ele>
        <time>2020-07-10T13:06:33Z</time>
      </trkpt>
      <trkpt lat="47.81631" lon="-3.52599">
        <ele>41.63</ele>
        <time>2020-07-10T13:06:34Z</time>
      </trkpt>
      <trkpt lat="47.81633" lon="-3.52592">
        <ele>41.62</ele>
        <time>2020-07-10T13:06:35Z</time>
      </trkpt>
      <trkpt lat="47.81634" lon="-3.52585">
        <ele>41.66</ele>
        <time>2020-07-10T13:06:36Z</time>
      </trkpt>
      <trkpt lat="47.81636" lon="-3.52578">
        <ele>41.65</ele>
        <time>2020-07-10T13:06:37Z</time>
      </trkpt>
      <trkpt lat="47.81639" lon="-3.52572">
        <ele>41.62</ele>
        <time>2020-07-10T13:06:38Z</time>
      </trkpt>
      <trkpt lat="47.81641" lon="-3.52566">
        <ele>41.52</ele>
        <time>2020-07-10T13:06:39Z</time>
      </trkpt>
      <trkpt lat="47.81642" lon="-3.5256">
        <ele>41.41</ele>
        <time>2020-07-10T13:06:40Z</time>
      </trkpt>
      <trkpt lat="47.81643" lon="-3.52556">
        <ele>41.33</ele>
        <time>2020-07-10T13:06:41Z</time>
      </trkpt>
      <trkpt lat="47.81645" lon="-3.52553">
        <ele>41.29</ele>
        <time>2020-07-10T13:06:42Z</time>
      </trkpt>
      <trkpt lat="47.81646" lon="-3.52551">
        <ele>41.32</ele>
        <time>2020-07-10T13:06:43Z</time>
      </trkpt>
      <trkpt lat="47.81648" lon="-3.52552">
        <ele>41.41</ele>
        <time>2020-07-10T13:06:44Z</time>
      </trkpt>
      <trkpt lat="47.81647" lon="-3.52555">
        <ele>41.51</ele>
        <time>2020-07-10T13:06:45Z</time>
      </trkpt>
      <trkpt lat="47.81646" lon="-3.5256">
        <ele>41.61</ele>
        <time>2020-07-10T13:06:46Z</time>
      </trkpt>
      <trkpt lat="47.81645" lon="-3.52565">
        <ele>41.66</ele>
        <time>2020-07-10T13:06:47Z</time>
      </trkpt>
      <trkpt lat="47.81643" lon="-3.52569">
        <ele>41.69</ele>
        <time>2020-07-10T13:06:48Z</time>
      </trkpt>
      <trkpt lat="47.8164" lon="-3.52573">
        <ele>41.69</ele>
        <time>2020-07-10T13:06:49Z</time>
      </trkpt>
      <trkpt lat="47.81636" lon="-3.52577">
        <ele>41.63</ele>
        <time>2020-07-10T13:06:50Z</time>
      </trkpt>
      <trkpt lat="47.81632" lon="-3.52581">
        <ele>41.51</ele>
        <time>2020-07-10T13:06:51Z</time>
      </trkpt>
      <trkpt lat="47.81628" lon="-3.52583">
        <ele>41.31</ele>
        <time>2020-07-10T13:06:52Z</time>
      </trkpt>
      <trkpt lat="47.81623" lon="-3.52586">
        <ele>41.05</ele>
        <time>2020-07-10T13:06:53Z</time>
      </trkpt>
      <trkpt lat="47.81619" lon="-3.52587">
        <ele>40.75</ele>
        <time>2020-07-10T13:06:54Z</time>
      </trkpt>
      <trkpt lat="47.81613" lon="-3.52588">
        <ele>40.44</ele>
        <time>2020-07-10T13:06:55Z</time>
      </trkpt>
      <trkpt lat="47.81608" lon="-3.5259">
        <ele>40.13</ele>
        <time>2020-07-10T13:06:56Z</time>
      </trkpt>
      <trkpt lat="47.81603" lon="-3.52592">
        <ele>39.84</ele>
        <time>2020-07-10T13:06:57Z</time>
      </trkpt>
      <trkpt lat="47.81598" lon="-3.52594">
        <ele>39.55</ele>
        <time>2020-07-10T13:06:58Z</time>
      </trkpt>
      <trkpt lat="47.81592" lon="-3.52597">
        <ele>39.26</ele>
        <time>2020-07-10T13:06:59Z</time>
      </trkpt>
      <trkpt lat="47.81586" lon="-3.52599">
        <ele>38.93</ele>
        <time>2020-07-10T13:07:00Z</time>
      </trkpt>
      <trkpt lat="47.8158" lon="-3.52601">
        <ele>38.61</ele>
        <time>2020-07-10T13:07:01Z</time>
      </trkpt>
      <trkpt lat="47.81574" lon="-3.52603">
        <ele>38.3</ele>
        <time>2020-07-10T13:07:02Z</time>
      </trkpt>
      <trkpt lat="47.81568" lon="-3.52605">
        <ele>37.96</ele>
        <time>2020-07-10T13:07:03Z</time>
      </trkpt>
      <trkpt lat="47.81562" lon="-3.52607">
        <ele>37.59</ele>
        <time>2020-07-10T13:07:04Z</time>
      </trkpt>
      <trkpt lat="47.81556" lon="-3.5261">
        <ele>37.2</ele>
        <time>2020-07-10T13:07:05Z</time>
      </trkpt>
      <trkpt lat="47.8155" lon="-3.52612">
        <ele>36.92</ele>
        <time>2020-07-10T13:07:06Z</time>
      </trkpt>
      <trkpt lat="47.81543" lon="-3.52614">
        <ele>36.7</ele>
        <time>2020-07-10T13:07:07Z</time>
      </trkpt>
      <trkpt lat="47.81537" lon="-3.52616">
        <ele>36.48</ele>
        <time>2020-07-10T13:07:08Z</time>
      </trkpt>
      <trkpt lat="47.8153" lon="-3.52618">
        <ele>36.22</ele>
        <time>2020-07-10T13:07:09Z</time>
      </trkpt>
      <trkpt lat="47.81524" lon="-3.5262">
        <ele>35.87</ele>
        <time>2020-07-10T13:07:10Z</time>
      </trkpt>
      <trkpt lat="47.81517" lon="-3.52623">
        <ele>35.43</ele>
        <time>2020-07-10T13:07:11Z</time>
      </trkpt>
      <trkpt lat="47.81511" lon="-3.52625">
        <ele>34.98</ele>
        <time>2020-07-10T13:07:12Z</time>
      </trkpt>
      <trkpt lat="47.81504" lon="-3.52628">
        <ele>34.51</ele>
        <time>2020-07-10T13:07:13Z</time>
      </trkpt>
      <trkpt lat="47.81498" lon="-3.5263">
        <ele>34.01</ele>
        <time>2020-07-10T13:07:14Z</time>
      </trkpt>
      <trkpt lat="47.8149" lon="-3.52632">
        <ele>33.39</ele>
        <time>2020-07-10T13:07:15Z</time>
      </trkpt>
      <trkpt lat="47.81483" lon="-3.52635">
        <ele>32.68</ele>
        <time>2020-07-10T13:07:16Z</time>
      </trkpt>
      <trkpt lat="47.81475" lon="-3.52637">
        <ele>31.85</ele>
        <time>2020-07-10T13:07:17Z</time>
      </trkpt>
      <trkpt lat="47.81468" lon="-3.52639">
        <ele>30.94</ele>
        <time>2020-07-10T13:07:18Z</time>
      </trkpt>
      <trkpt lat="47.81459" lon="-3.52642">
        <ele>30.09</ele>
        <time>2020-07-10T13:07:19Z</time>
      </trkpt>
      <trkpt lat="47.81451" lon="-3.52645">
        <ele>29.19</ele>
        <time>2020-07-10T13:07:20Z</time>
      </trkpt>
      <trkpt lat="47.81442" lon="-3.52647">
        <ele>28.17</ele>
        <time>2020-07-10T13:07:21Z</time>
      </trkpt>
      <trkpt lat="47.81434" lon="-3.52649">
        <ele>27.06</ele>
        <time>2020-07-10T13:07:22Z</time>
      </trkpt>
      <trkpt lat="47.81426" lon="-3.52652">
        <ele>25.93</ele>
        <time>2020-07-10T13:07:23Z</time>
      </trkpt>
      <trkpt lat="47.81418" lon="-3.52653">
        <ele>24.67</ele>
        <time>2020-07-10T13:07:24Z</time>
      </trkpt>
      <trkpt lat="47.81409" lon="-3.52652">
        <ele>23.5</ele>
        <time>2020-07-10T13:07:25Z</time>
      </trkpt>
      <trkpt lat="47.81399" lon="-3.5265">
        <ele>22.33</ele>
        <time>2020-07-10T13:07:26Z</time>
      </trkpt>
      <trkpt lat="47.81391" lon="-3.52646">
        <ele>21.06</ele>
        <time>2020-07-10T13:07:27Z</time>
      </trkpt>
      <trkpt lat="47.81383" lon="-3.5264">
        <ele>19.6</ele>
        <time>2020-07-10T13:07:28Z</time>
      </trkpt>
      <trkpt lat="47.81374" lon="-3.52636">
        <ele>18.21</ele>
        <time>2020-07-10T13:07:29Z</time>
      </trkpt>
      <trkpt lat="47.81367" lon="-3.52631">
        <ele>17.08</ele>
        <time>2020-07-10T13:07:30Z</time>
      </trkpt>
      <trkpt lat="47.81362" lon="-3.52624">
        <ele>16.1</ele>
        <time>2020-07-10T13:07:31Z</time>
      </trkpt>
      <trkpt lat="47.81356" lon="-3.52617">
        <ele>14.96</ele>
        <time>2020-07-10T13:07:32Z</time>
      </trkpt>
      <trkpt lat="47.8135" lon="-3.5261">
        <ele>13.65</ele>
        <time>2020-07-10T13:07:33Z</time>
      </trkpt>
      <trkpt lat="47.81345" lon="-3.526">
        <ele>12.51</ele>
        <time>2020-07-10T13:07:34Z</time>
      </trkpt>
      <trkpt lat="47.81339" lon="-3.5259">
        <ele>11.03</ele>
        <time>2020-07-10T13:07:35Z</time>
      </trkpt>
      <trkpt lat="47.81335" lon="-3.52576">
        <ele>9.14</ele>
        <time>2020-07-10T13:07:36Z</time>
      </trkpt>
      <trkpt lat="47.81329" lon="-3.52564">
        <ele>7.54</ele>
        <time>2020-07-10T13:07:37Z</time>
      </trkpt>
      <trkpt lat="47.8132" lon="-3.52547">
        <ele>6.69</ele>
        <time>2020-07-10T13:07:38Z</time>
      </trkpt>
      <trkpt lat="47.81314" lon="-3.5253">
        <ele>6.57</ele>
        <time>2020-07-10T13:07:39Z</time>
      </trkpt>
      <trkpt lat="47.81308" lon="-3.52514">
        <ele>6.4</ele>
        <time>2020-07-10T13:07:40Z</time>
      </trkpt>
      <trkpt lat="47.81302" lon="-3.52502">
        <ele>6.31</ele>
        <time>2020-07-10T13:07:41Z</time>
      </trkpt>
      <trkpt lat="47.81296" lon="-3.52494">
        <ele>6.88</ele>
        <time>2020-07-10T13:07:42Z</time>
      </trkpt>
      <trkpt lat="47.81291" lon="-3.52485">
        <ele>7.53</ele>
        <time>2020-07-10T13:07:43Z</time>
      </trkpt>
      <trkpt lat="47.81282" lon="-3.52481">
        <ele>7.86</ele>
        <time>2020-07-10T13:07:44Z</time>
      </trkpt>
      <trkpt lat="47.81275" lon="-3.52478">
        <ele>8.12</ele>
        <time>2020-07-10T13:07:45Z</time>
      </trkpt>
      <trkpt lat="47.81269" lon="-3.52478">
        <ele>8.6</ele>
        <time>2020-07-10T13:07:46Z</time>
      </trkpt>
      <trkpt lat="47.81264" lon="-3.52476">
        <ele>9.01</ele>
        <time>2020-07-10T13:07:47Z</time>
      </trkpt>
      <trkpt lat="47.81259" lon="-3.52474">
        <ele>9.34</ele>
        <time>2020-07-10T13:07:48Z</time>
      </trkpt>
      <trkpt lat="47.81255" lon="-3.52472">
        <ele>9.54</ele>
        <time>2020-07-10T13:07:49Z</time>
      </trkpt>
      <trkpt lat="47.81251" lon="-3.52467">
        <ele>9.7</ele>
        <time>2020-07-10T13:07:50Z</time>
      </trkpt>
      <trkpt lat="47.81247" lon="-3.52462">
        <ele>10.15</ele>
        <time>2020-07-10T13:07:51Z</time>
      </trkpt>
      <trkpt lat="47.81244" lon="-3.52457">
        <ele>10.73</ele>
        <time>2020-07-10T13:07:52Z</time>
      </trkpt>
      <trkpt lat="47.81241" lon="-3.52451">
        <ele>11.25</ele>
        <time>2020-07-10T13:07:53Z</time>
      </trkpt>
      <trkpt lat="47.81239" lon="-3.52446">
        <ele>11.7</ele>
        <time>2020-07-10T13:07:54Z</time>
      </trkpt>
      <trkpt lat="47.81236" lon="-3.52441">
        <ele>12.13</ele>
        <time>2020-07-10T13:07:55Z</time>
      </trkpt>
      <trkpt lat="47.81235" lon="-3.52436">
        <ele>12.47</ele>
        <time>2020-07-10T13:07:56Z</time>
      </trkpt>
      <trkpt lat="47.81233" lon="-3.52432">
        <ele>12.72</ele>
        <time>2020-07-10T13:07:57Z</time>
      </trkpt>
      <trkpt lat="47.81232" lon="-3.52427">
        <ele>12.92</ele>
        <time>2020-07-10T13:07:58Z</time>
      </trkpt>
      <trkpt lat="47.8123" lon="-3.52423">
        <ele>13.13</ele>
        <time>2020-07-10T13:07:59Z</time>
      </trkpt>
      <trkpt lat="47.81229" lon="-3.52419">
        <ele>13.35</ele>
        <time>2020-07-10T13:08:00Z</time>
      </trkpt>
      <trkpt lat="47.81228" lon="-3.52415">
        <ele>13.49</ele>
        <time>2020-07-10T13:08:01Z</time>
      </trkpt>
      <trkpt lat="47.81227" lon="-3.52411">
        <ele>13.55</ele>
        <time>2020-07-10T13:08:02Z</time>
      </trkpt>
      <trkpt lat="47.81227" lon="-3.52407">
        <ele>13.62</ele>
        <time>2020-07-10T13:08:03Z</time>
      </trkpt>
      <trkpt lat="47.81226" lon="-3.52404">
        <ele>13.68</ele>
        <time>2020-07-10T13:08:04Z</time>
      </trkpt>
      <trkpt lat="47.81225" lon="-3.52401">
        <ele>13.74</ele>
        <time>2020-07-10T13:08:05Z</time>
      </trkpt>
      <trkpt lat="47.81224" lon="-3.52397">
        <ele>13.86</ele>
        <time>2020-07-10T13:08:06Z</time>
      </trkpt>
      <trkpt lat="47.81223" lon="-3.52394">
        <ele>13.97</ele>
        <time>2020-07-10T13:08:07Z</time>
      </trkpt>
      <trkpt lat="47.81222" lon="-3.52391">
        <ele>14.05</ele>
        <time>2020-07-10T13:08:08Z</time>
      </trkpt>
      <trkpt lat="47.81221" lon="-3.52388">
        <ele>14.12</ele>
        <time>2020-07-10T13:08:09Z</time>
      </trkpt>
      <trkpt lat="47.8122" lon="-3.52384">
        <ele>14.24</ele>
        <time>2020-07-10T13:08:10Z</time>
      </trkpt>
      <trkpt lat="47.81219" lon="-3.52381">
        <ele>14.4</ele>
        <time>2020-07-10T13:08:11Z</time>
      </trkpt>
      <trkpt lat="47.81218" lon="-3.52377">
        <ele>14.52</ele>
        <time>2020-07-10T13:08:12Z</time>
      </trkpt>
      <trkpt lat="47.81217" lon="-3.52374">
        <ele>14.64</ele>
        <time>2020-07-10T13:08:13Z</time>
      </trkpt>
      <trkpt lat="47.81216" lon="-3.52371">
        <ele>14.78</ele>
        <time>2020-07-10T13:08:14Z</time>
      </trkpt>
      <trkpt lat="47.81216" lon="-3.52368">
        <ele>14.83</ele>
        <time>2020-07-10T13:08:15Z</time>
      </trkpt>
      <trkpt lat="47.81215" lon="-3.52365">
        <ele>14.9</ele>
        <time>2020-07-10T13:08:16Z</time>
      </trkpt>
      <trkpt lat="47.81214" lon="-3.52363">
        <ele>15.02</ele>
        <time>2020-07-10T13:08:17Z</time>
      </trkpt>
      <trkpt lat="47.81213" lon="-3.52359">
        <ele>15.23</ele>
        <time>2020-07-10T13:08:18Z</time>
      </trkpt>
      <trkpt lat="47.81212" lon="-3.52356">
        <ele>15.45</ele>
        <time>2020-07-10T13:08:19Z</time>
      </trkpt>
      <trkpt lat="47.8121" lon="-3.52353">
        <ele>15.68</ele>
        <time>2020-07-10T13:08:20Z</time>
      </trkpt>
      <trkpt lat="47.81209" lon="-3.52349">
        <ele>16</ele>
        <time>2020-07-10T13:08:21Z</time>
      </trkpt>
      <trkpt lat="47.81208" lon="-3.52346">
        <ele>16.31</ele>
        <time>2020-07-10T13:08:22Z</time>
      </trkpt>
      <trkpt lat="47.81206" lon="-3.52342">
        <ele>16.69</ele>
        <time>2020-07-10T13:08:23Z</time>
      </trkpt>
      <trkpt lat="47.81204" lon="-3.52338">
        <ele>17.18</ele>
        <time>2020-07-10T13:08:24Z</time>
      </trkpt>
      <trkpt lat="47.81202" lon="-3.52334">
        <ele>17.63</ele>
        <time>2020-07-10T13:08:25Z</time>
      </trkpt>
      <trkpt lat="47.812" lon="-3.5233">
        <ele>18.2</ele>
        <time>2020-07-10T13:08:26Z</time>
      </trkpt>
      <trkpt lat="47.81198" lon="-3.52325">
        <ele>18.78</ele>
        <time>2020-07-10T13:08:27Z</time>
      </trkpt>
      <trkpt lat="47.81196" lon="-3.52322">
        <ele>19.35</ele>
        <time>2020-07-10T13:08:28Z</time>
      </trkpt>
      <trkpt lat="47.81194" lon="-3.52318">
        <ele>19.82</ele>
        <time>2020-07-10T13:08:29Z</time>
      </trkpt>
      <trkpt lat="47.81192" lon="-3.52315">
        <ele>20.03</ele>
        <time>2020-07-10T13:08:30Z</time>
      </trkpt>
      <trkpt lat="47.8119" lon="-3.52311">
        <ele>20.18</ele>
        <time>2020-07-10T13:08:31Z</time>
      </trkpt>
      <trkpt lat="47.81189" lon="-3.52308">
        <ele>20.31</ele>
        <time>2020-07-10T13:08:32Z</time>
      </trkpt>
      <trkpt lat="47.81187" lon="-3.52305">
        <ele>20.47</ele>
        <time>2020-07-10T13:08:33Z</time>
      </trkpt>
      <trkpt lat="47.81185" lon="-3.52302">
        <ele>20.74</ele>
        <time>2020-07-10T13:08:34Z</time>
      </trkpt>
      <trkpt lat="47.81182" lon="-3.52299">
        <ele>21.09</ele>
        <time>2020-07-10T13:08:35Z</time>
      </trkpt>
      <trkpt lat="47.81179" lon="-3.52297">
        <ele>21.44</ele>
        <time>2020-07-10T13:08:36Z</time>
      </trkpt>
      <trkpt lat="47.81177" lon="-3.52294">
        <ele>21.79</ele>
        <time>2020-07-10T13:08:37Z</time>
      </trkpt>
      <trkpt lat="47.81174" lon="-3.52291">
        <ele>22.2</ele>
        <time>2020-07-10T13:08:38Z</time>
      </trkpt>
      <trkpt lat="47.81172" lon="-3.52289">
        <ele>22.57</ele>
        <time>2020-07-10T13:08:39Z</time>
      </trkpt>
      <trkpt lat="47.81169" lon="-3.52286">
        <ele>22.99</ele>
        <time>2020-07-10T13:08:40Z</time>
      </trkpt>
      <trkpt lat="47.81166" lon="-3.52284">
        <ele>23.4</ele>
        <time>2020-07-10T13:08:41Z</time>
      </trkpt>
      <trkpt lat="47.81164" lon="-3.52281">
        <ele>23.59</ele>
        <time>2020-07-10T13:08:42Z</time>
      </trkpt>
      <trkpt lat="47.81161" lon="-3.52278">
        <ele>23.72</ele>
        <time>2020-07-10T13:08:43Z</time>
      </trkpt>
      <trkpt lat="47.81158" lon="-3.52275">
        <ele>23.74</ele>
        <time>2020-07-10T13:08:44Z</time>
      </trkpt>
      <trkpt lat="47.81156" lon="-3.52273">
        <ele>23.74</ele>
        <time>2020-07-10T13:08:45Z</time>
      </trkpt>
      <trkpt lat="47.81153" lon="-3.5227">
        <ele>23.76</ele>
        <time>2020-07-10T13:08:46Z</time>
      </trkpt>
      <trkpt lat="47.8115" lon="-3.52267">
        <ele>23.82</ele>
        <time>2020-07-10T13:08:47Z</time>
      </trkpt>
      <trkpt lat="47.81147" lon="-3.52265">
        <ele>23.92</ele>
        <time>2020-07-10T13:08:48Z</time>
      </trkpt>
      <trkpt lat="47.81144" lon="-3.52262">
        <ele>24.07</ele>
        <time>2020-07-10T13:08:49Z</time>
      </trkpt>
      <trkpt lat="47.81142" lon="-3.52258">
        <ele>24.26</ele>
        <time>2020-07-10T13:08:50Z</time>
      </trkpt>
      <trkpt lat="47.8114" lon="-3.52256">
        <ele>24.48</ele>
        <time>2020-07-10T13:08:51Z</time>
      </trkpt>
      <trkpt lat="47.81137" lon="-3.52253">
        <ele>24.69</ele>
        <time>2020-07-10T13:08:52Z</time>
      </trkpt>
      <trkpt lat="47.81134" lon="-3.5225">
        <ele>24.9</ele>
        <time>2020-07-10T13:08:53Z</time>
      </trkpt>
      <trkpt lat="47.81132" lon="-3.52247">
        <ele>25.04</ele>
        <time>2020-07-10T13:08:54Z</time>
      </trkpt>
      <trkpt lat="47.81129" lon="-3.52244">
        <ele>25.15</ele>
        <time>2020-07-10T13:08:55Z</time>
      </trkpt>
      <trkpt lat="47.81126" lon="-3.52241">
        <ele>25.26</ele>
        <time>2020-07-10T13:08:56Z</time>
      </trkpt>
      <trkpt lat="47.81124" lon="-3.52239">
        <ele>25.36</ele>
        <time>2020-07-10T13:08:57Z</time>
      </trkpt>
      <trkpt lat="47.81121" lon="-3.52236">
        <ele>25.47</ele>
        <time>2020-07-10T13:08:58Z</time>
      </trkpt>
      <trkpt lat="47.81118" lon="-3.52233">
        <ele>25.57</ele>
        <time>2020-07-10T13:08:59Z</time>
      </trkpt>
      <trkpt lat="47.81115" lon="-3.5223">
        <ele>25.68</ele>
        <time>2020-07-10T13:09:00Z</time>
      </trkpt>
      <trkpt lat="47.81112" lon="-3.52227">
        <ele>25.77</ele>
        <time>2020-07-10T13:09:01Z</time>
      </trkpt>
      <trkpt lat="47.8111" lon="-3.52225">
        <ele>25.86</ele>
        <time>2020-07-10T13:09:02Z</time>
      </trkpt>
      <trkpt lat="47.81107" lon="-3.52222">
        <ele>25.96</ele>
        <time>2020-07-10T13:09:03Z</time>
      </trkpt>
      <trkpt lat="47.81104" lon="-3.52219">
        <ele>26.13</ele>
        <time>2020-07-10T13:09:04Z</time>
      </trkpt>
      <trkpt lat="47.81101" lon="-3.52217">
        <ele>26.32</ele>
        <time>2020-07-10T13:09:05Z</time>
      </trkpt>
      <trkpt lat="47.81098" lon="-3.52214">
        <ele>26.51</ele>
        <time>2020-07-10T13:09:06Z</time>
      </trkpt>
      <trkpt lat="47.81095" lon="-3.52212">
        <ele>26.69</ele>
        <time>2020-07-10T13:09:07Z</time>
      </trkpt>
      <trkpt lat="47.81093" lon="-3.52209">
        <ele>26.89</ele>
        <time>2020-07-10T13:09:08Z</time>
      </trkpt>
      <trkpt lat="47.8109" lon="-3.52205">
        <ele>27.13</ele>
        <time>2020-07-10T13:09:09Z</time>
      </trkpt>
      <trkpt lat="47.81088" lon="-3.52203">
        <ele>27.33</ele>
        <time>2020-07-10T13:09:10Z</time>
      </trkpt>
      <trkpt lat="47.81085" lon="-3.522">
        <ele>27.53</ele>
        <time>2020-07-10T13:09:11Z</time>
      </trkpt>
      <trkpt lat="47.81083" lon="-3.52197">
        <ele>27.75</ele>
        <time>2020-07-10T13:09:12Z</time>
      </trkpt>
      <trkpt lat="47.8108" lon="-3.52194">
        <ele>28.06</ele>
        <time>2020-07-10T13:09:13Z</time>
      </trkpt>
      <trkpt lat="47.81078" lon="-3.5219">
        <ele>28.44</ele>
        <time>2020-07-10T13:09:14Z</time>
      </trkpt>
      <trkpt lat="47.81075" lon="-3.52187">
        <ele>28.83</ele>
        <time>2020-07-10T13:09:15Z</time>
      </trkpt>
      <trkpt lat="47.81072" lon="-3.52184">
        <ele>29.21</ele>
        <time>2020-07-10T13:09:16Z</time>
      </trkpt>
      <trkpt lat="47.81069" lon="-3.52181">
        <ele>29.58</ele>
        <time>2020-07-10T13:09:17Z</time>
      </trkpt>
      <trkpt lat="47.81066" lon="-3.52178">
        <ele>29.91</ele>
        <time>2020-07-10T13:09:18Z</time>
      </trkpt>
      <trkpt lat="47.81063" lon="-3.52175">
        <ele>30.2</ele>
        <time>2020-07-10T13:09:19Z</time>
      </trkpt>
      <trkpt lat="47.8106" lon="-3.52172">
        <ele>30.45</ele>
        <time>2020-07-10T13:09:20Z</time>
      </trkpt>
      <trkpt lat="47.81058" lon="-3.5217">
        <ele>30.68</ele>
        <time>2020-07-10T13:09:21Z</time>
      </trkpt>
      <trkpt lat="47.81055" lon="-3.52167">
        <ele>30.89</ele>
        <time>2020-07-10T13:09:22Z</time>
      </trkpt>
      <trkpt lat="47.81053" lon="-3.52164">
        <ele>31.2</ele>
        <time>2020-07-10T13:09:23Z</time>
      </trkpt>
      <trkpt lat="47.8105" lon="-3.52161">
        <ele>31.59</ele>
        <time>2020-07-10T13:09:24Z</time>
      </trkpt>
      <trkpt lat="47.81048" lon="-3.52159">
        <ele>31.98</ele>
        <time>2020-07-10T13:09:25Z</time>
      </trkpt>
      <trkpt lat="47.81046" lon="-3.52156">
        <ele>32.37</ele>
        <time>2020-07-10T13:09:26Z</time>
      </trkpt>
      <trkpt lat="47.81044" lon="-3.52153">
        <ele>32.76</ele>
        <time>2020-07-10T13:09:27Z</time>
      </trkpt>
      <trkpt lat="47.81042" lon="-3.5215">
        <ele>33.15</ele>
        <time>2020-07-10T13:09:28Z</time>
      </trkpt>
      <trkpt lat="47.8104" lon="-3.52147">
        <ele>33.54</ele>
        <time>2020-07-10T13:09:29Z</time>
      </trkpt>
      <trkpt lat="47.81039" lon="-3.52143">
        <ele>33.96</ele>
        <time>2020-07-10T13:09:30Z</time>
      </trkpt>
      <trkpt lat="47.81037" lon="-3.5214">
        <ele>34.41</ele>
        <time>2020-07-10T13:09:31Z</time>
      </trkpt>
      <trkpt lat="47.81036" lon="-3.52136">
        <ele>34.7</ele>
        <time>2020-07-10T13:09:32Z</time>
      </trkpt>
      <trkpt lat="47.81035" lon="-3.52131">
        <ele>34.93</ele>
        <time>2020-07-10T13:09:33Z</time>
      </trkpt>
      <trkpt lat="47.81035" lon="-3.52127">
        <ele>35.11</ele>
        <time>2020-07-10T13:09:34Z</time>
      </trkpt>
      <trkpt lat="47.81035" lon="-3.52123">
        <ele>35.26</ele>
        <time>2020-07-10T13:09:35Z</time>
      </trkpt>
      <trkpt lat="47.81036" lon="-3.52118">
        <ele>35.4</ele>
        <time>2020-07-10T13:09:36Z</time>
      </trkpt>
      <trkpt lat="47.81037" lon="-3.52114">
        <ele>35.53</ele>
        <time>2020-07-10T13:09:37Z</time>
      </trkpt>
      <trkpt lat="47.81038" lon="-3.5211">
        <ele>35.63</ele>
        <time>2020-07-10T13:09:38Z</time>
      </trkpt>
      <trkpt lat="47.81038" lon="-3.52105">
        <ele>35.72</ele>
        <time>2020-07-10T13:09:39Z</time>
      </trkpt>
      <trkpt lat="47.81039" lon="-3.52101">
        <ele>35.79</ele>
        <time>2020-07-10T13:09:40Z</time>
      </trkpt>
      <trkpt lat="47.81039" lon="-3.52097">
        <ele>35.86</ele>
        <time>2020-07-10T13:09:41Z</time>
      </trkpt>
      <trkpt lat="47.8104" lon="-3.52092">
        <ele>35.92</ele>
        <time>2020-07-10T13:09:42Z</time>
      </trkpt>
      <trkpt lat="47.81041" lon="-3.52088">
        <ele>35.96</ele>
        <time>2020-07-10T13:09:43Z</time>
      </trkpt>
      <trkpt lat="47.81041" lon="-3.52083">
        <ele>36.03</ele>
        <time>2020-07-10T13:09:44Z</time>
      </trkpt>
      <trkpt lat="47.81041" lon="-3.52078">
        <ele>36.18</ele>
        <time>2020-07-10T13:09:45Z</time>
      </trkpt>
      <trkpt lat="47.81039" lon="-3.52074">
        <ele>36.4</ele>
        <time>2020-07-10T13:09:46Z</time>
      </trkpt>
      <trkpt lat="47.81038" lon="-3.52071">
        <ele>36.64</ele>
        <time>2020-07-10T13:09:47Z</time>
      </trkpt>
      <trkpt lat="47.81035" lon="-3.52068">
        <ele>36.93</ele>
        <time>2020-07-10T13:09:48Z</time>
      </trkpt>
      <trkpt lat="47.81032" lon="-3.52067">
        <ele>37.19</ele>
        <time>2020-07-10T13:09:49Z</time>
      </trkpt>
      <trkpt lat="47.81029" lon="-3.52065">
        <ele>37.46</ele>
        <time>2020-07-10T13:09:50Z</time>
      </trkpt>
      <trkpt lat="47.81026" lon="-3.52063">
        <ele>37.72</ele>
        <time>2020-07-10T13:09:51Z</time>
      </trkpt>
      <trkpt lat="47.81023" lon="-3.52062">
        <ele>37.99</ele>
        <time>2020-07-10T13:09:52Z</time>
      </trkpt>
      <trkpt lat="47.81021" lon="-3.5206">
        <ele>38.24</ele>
        <time>2020-07-10T13:09:53Z</time>
      </trkpt>
      <trkpt lat="47.81018" lon="-3.52058">
        <ele>38.5</ele>
        <time>2020-07-10T13:09:54Z</time>
      </trkpt>
      <trkpt lat="47.81015" lon="-3.52056">
        <ele>38.74</ele>
        <time>2020-07-10T13:09:55Z</time>
      </trkpt>
      <trkpt lat="47.81013" lon="-3.52055">
        <ele>38.97</ele>
        <time>2020-07-10T13:09:56Z</time>
      </trkpt>
      <trkpt lat="47.8101" lon="-3.52054">
        <ele>39.22</ele>
        <time>2020-07-10T13:09:57Z</time>
      </trkpt>
      <trkpt lat="47.81007" lon="-3.52052">
        <ele>39.43</ele>
        <time>2020-07-10T13:09:58Z</time>
      </trkpt>
      <trkpt lat="47.81004" lon="-3.52051">
        <ele>39.64</ele>
        <time>2020-07-10T13:09:59Z</time>
      </trkpt>
      <trkpt lat="47.81001" lon="-3.52049">
        <ele>39.83</ele>
        <time>2020-07-10T13:10:00Z</time>
      </trkpt>
      <trkpt lat="47.80999" lon="-3.52048">
        <ele>40</ele>
        <time>2020-07-10T13:10:01Z</time>
      </trkpt>
      <trkpt lat="47.80996" lon="-3.52046">
        <ele>40.14</ele>
        <time>2020-07-10T13:10:02Z</time>
      </trkpt>
      <trkpt lat="47.80993" lon="-3.52045">
        <ele>40.29</ele>
        <time>2020-07-10T13:10:03Z</time>
      </trkpt>
      <trkpt lat="47.8099" lon="-3.52044">
        <ele>40.44</ele>
        <time>2020-07-10T13:10:04Z</time>
      </trkpt>
      <trkpt lat="47.80988" lon="-3.52042">
        <ele>40.59</ele>
        <time>2020-07-10T13:10:05Z</time>
      </trkpt>
      <trkpt lat="47.80985" lon="-3.52041">
        <ele>40.77</ele>
        <time>2020-07-10T13:10:06Z</time>
      </trkpt>
      <trkpt lat="47.80982" lon="-3.5204">
        <ele>40.94</ele>
        <time>2020-07-10T13:10:07Z</time>
      </trkpt>
      <trkpt lat="47.80979" lon="-3.52039">
        <ele>41.13</ele>
        <time>2020-07-10T13:10:08Z</time>
      </trkpt>
      <trkpt lat="47.80976" lon="-3.52038">
        <ele>41.34</ele>
        <time>2020-07-10T13:10:09Z</time>
      </trkpt>
      <trkpt lat="47.80973" lon="-3.52037">
        <ele>41.54</ele>
        <time>2020-07-10T13:10:10Z</time>
      </trkpt>
      <trkpt lat="47.8097" lon="-3.52036">
        <ele>41.73</ele>
        <time>2020-07-10T13:10:11Z</time>
      </trkpt>
      <trkpt lat="47.80967" lon="-3.52034">
        <ele>41.94</ele>
        <time>2020-07-10T13:10:12Z</time>
      </trkpt>
      <trkpt lat="47.80963" lon="-3.52031">
        <ele>42.16</ele>
        <time>2020-07-10T13:10:13Z</time>
      </trkpt>
      <trkpt lat="47.80959" lon="-3.52029">
        <ele>42.36</ele>
        <time>2020-07-10T13:10:14Z</time>
      </trkpt>
      <trkpt lat="47.80956" lon="-3.52027">
        <ele>42.52</ele>
        <time>2020-07-10T13:10:15Z</time>
      </trkpt>
      <trkpt lat="47.80952" lon="-3.52025">
        <ele>42.65</ele>
        <time>2020-07-10T13:10:16Z</time>
      </trkpt>
      <trkpt lat="47.80948" lon="-3.52023">
        <ele>42.78</ele>
        <time>2020-07-10T13:10:17Z</time>
      </trkpt>
      <trkpt lat="47.80944" lon="-3.52022">
        <ele>42.93</ele>
        <time>2020-07-10T13:10:18Z</time>
      </trkpt>
      <trkpt lat="47.80941" lon="-3.52021">
        <ele>43.06</ele>
        <time>2020-07-10T13:10:19Z</time>
      </trkpt>
      <trkpt lat="47.80938" lon="-3.52019">
        <ele>43.17</ele>
        <time>2020-07-10T13:10:20Z</time>
      </trkpt>
      <trkpt lat="47.80936" lon="-3.52016">
        <ele>43.28</ele>
        <time>2020-07-10T13:10:21Z</time>
      </trkpt>
      <trkpt lat="47.80932" lon="-3.52015">
        <ele>43.39</ele>
        <time>2020-07-10T13:10:22Z</time>
      </trkpt>
      <trkpt lat="47.80929" lon="-3.52013">
        <ele>43.51</ele>
        <time>2020-07-10T13:10:23Z</time>
      </trkpt>
      <trkpt lat="47.80926" lon="-3.52012">
        <ele>43.62</ele>
        <time>2020-07-10T13:10:24Z</time>
      </trkpt>
      <trkpt lat="47.80923" lon="-3.52009">
        <ele>43.74</ele>
        <time>2020-07-10T13:10:25Z</time>
      </trkpt>
      <trkpt lat="47.80919" lon="-3.52006">
        <ele>43.85</ele>
        <time>2020-07-10T13:10:26Z</time>
      </trkpt>
      <trkpt lat="47.80916" lon="-3.52002">
        <ele>43.97</ele>
        <time>2020-07-10T13:10:27Z</time>
      </trkpt>
      <trkpt lat="47.80913" lon="-3.51999">
        <ele>44.09</ele>
        <time>2020-07-10T13:10:28Z</time>
      </trkpt>
      <trkpt lat="47.8091" lon="-3.51996">
        <ele>44.21</ele>
        <time>2020-07-10T13:10:29Z</time>
      </trkpt>
      <trkpt lat="47.80907" lon="-3.51993">
        <ele>44.32</ele>
        <time>2020-07-10T13:10:30Z</time>
      </trkpt>
      <trkpt lat="47.80903" lon="-3.51991">
        <ele>44.43</ele>
        <time>2020-07-10T13:10:31Z</time>
      </trkpt>
      <trkpt lat="47.809" lon="-3.51989">
        <ele>44.54</ele>
        <time>2020-07-10T13:10:32Z</time>
      </trkpt>
      <trkpt lat="47.80897" lon="-3.51986">
        <ele>44.66</ele>
        <time>2020-07-10T13:10:33Z</time>
      </trkpt>
      <trkpt lat="47.80894" lon="-3.51984">
        <ele>44.78</ele>
        <time>2020-07-10T13:10:34Z</time>
      </trkpt>
      <trkpt lat="47.8089" lon="-3.51982">
        <ele>44.9</ele>
        <time>2020-07-10T13:10:35Z</time>
      </trkpt>
      <trkpt lat="47.80887" lon="-3.51979">
        <ele>45.02</ele>
        <time>2020-07-10T13:10:36Z</time>
      </trkpt>
      <trkpt lat="47.80884" lon="-3.51977">
        <ele>45.13</ele>
        <time>2020-07-10T13:10:37Z</time>
      </trkpt>
      <trkpt lat="47.80881" lon="-3.51975">
        <ele>45.25</ele>
        <time>2020-07-10T13:10:38Z</time>
      </trkpt>
      <trkpt lat="47.80878" lon="-3.51972">
        <ele>45.36</ele>
        <time>2020-07-10T13:10:39Z</time>
      </trkpt>
      <trkpt lat="47.80874" lon="-3.5197">
        <ele>45.54</ele>
        <time>2020-07-10T13:10:40Z</time>
      </trkpt>
      <trkpt lat="47.80871" lon="-3.51967">
        <ele>45.75</ele>
        <time>2020-07-10T13:10:41Z</time>
      </trkpt>
      <trkpt lat="47.80868" lon="-3.51964">
        <ele>45.95</ele>
        <time>2020-07-10T13:10:42Z</time>
      </trkpt>
      <trkpt lat="47.80864" lon="-3.51962">
        <ele>46.16</ele>
        <time>2020-07-10T13:10:43Z</time>
      </trkpt>
      <trkpt lat="47.80861" lon="-3.51959">
        <ele>46.37</ele>
        <time>2020-07-10T13:10:44Z</time>
      </trkpt>
      <trkpt lat="47.80858" lon="-3.51956">
        <ele>46.54</ele>
        <time>2020-07-10T13:10:45Z</time>
      </trkpt>
      <trkpt lat="47.80855" lon="-3.51954">
        <ele>46.68</ele>
        <time>2020-07-10T13:10:46Z</time>
      </trkpt>
      <trkpt lat="47.80851" lon="-3.51952">
        <ele>46.79</ele>
        <time>2020-07-10T13:10:47Z</time>
      </trkpt>
      <trkpt lat="47.80848" lon="-3.51949">
        <ele>46.88</ele>
        <time>2020-07-10T13:10:48Z</time>
      </trkpt>
      <trkpt lat="47.80845" lon="-3.51946">
        <ele>46.95</ele>
        <time>2020-07-10T13:10:49Z</time>
      </trkpt>
      <trkpt lat="47.80842" lon="-3.51943">
        <ele>46.98</ele>
        <time>2020-07-10T13:10:50Z</time>
      </trkpt>
      <trkpt lat="47.80838" lon="-3.51941">
        <ele>47</ele>
        <time>2020-07-10T13:10:51Z</time>
      </trkpt>
      <trkpt lat="47.80835" lon="-3.51938">
        <ele>47</ele>
        <time>2020-07-10T13:10:52Z</time>
      </trkpt>
      <trkpt lat="47.80831" lon="-3.51936">
        <ele>47</ele>
        <time>2020-07-10T13:10:53Z</time>
      </trkpt>
      <trkpt lat="47.80828" lon="-3.51933">
        <ele>47</ele>
        <time>2020-07-10T13:10:54Z</time>
      </trkpt>
      <trkpt lat="47.80824" lon="-3.5193">
        <ele>47</ele>
        <time>2020-07-10T13:10:55Z</time>
      </trkpt>
      <trkpt lat="47.8082" lon="-3.51927">
        <ele>47</ele>
        <time>2020-07-10T13:10:56Z</time>
      </trkpt>
      <trkpt lat="47.80816" lon="-3.51924">
        <ele>47</ele>
        <time>2020-07-10T13:10:57Z</time>
      </trkpt>
      <trkpt lat="47.80812" lon="-3.51921">
        <ele>47</ele>
        <time>2020-07-10T13:10:58Z</time>
      </trkpt>
      <trkpt lat="47.80809" lon="-3.51918">
        <ele>47</ele>
        <time>2020-07-10T13:10:59Z</time>
      </trkpt>
      <trkpt lat="47.80805" lon="-3.51915">
        <ele>47.03</ele>
        <time>2020-07-10T13:11:00Z</time>
      </trkpt>
      <trkpt lat="47.80801" lon="-3.51913">
        <ele>47.12</ele>
        <time>2020-07-10T13:11:01Z</time>
      </trkpt>
      <trkpt lat="47.80797" lon="-3.51909">
        <ele>47.22</ele>
        <time>2020-07-10T13:11:02Z</time>
      </trkpt>
      <trkpt lat="47.80793" lon="-3.51906">
        <ele>47.33</ele>
        <time>2020-07-10T13:11:03Z</time>
      </trkpt>
      <trkpt lat="47.80789" lon="-3.51903">
        <ele>47.43</ele>
        <time>2020-07-10T13:11:04Z</time>
      </trkpt>
      <trkpt lat="47.80785" lon="-3.519">
        <ele>47.55</ele>
        <time>2020-07-10T13:11:05Z</time>
      </trkpt>
      <trkpt lat="47.80781" lon="-3.51896">
        <ele>47.68</ele>
        <time>2020-07-10T13:11:06Z</time>
      </trkpt>
      <trkpt lat="47.80777" lon="-3.51893">
        <ele>47.8</ele>
        <time>2020-07-10T13:11:07Z</time>
      </trkpt>
      <trkpt lat="47.80774" lon="-3.51889">
        <ele>47.84</ele>
        <time>2020-07-10T13:11:08Z</time>
      </trkpt>
      <trkpt lat="47.8077" lon="-3.51885">
        <ele>47.79</ele>
        <time>2020-07-10T13:11:09Z</time>
      </trkpt>
      <trkpt lat="47.80767" lon="-3.51881">
        <ele>47.74</ele>
        <time>2020-07-10T13:11:10Z</time>
      </trkpt>
      <trkpt lat="47.80763" lon="-3.51877">
        <ele>47.71</ele>
        <time>2020-07-10T13:11:11Z</time>
      </trkpt>
      <trkpt lat="47.8076" lon="-3.51873">
        <ele>47.72</ele>
        <time>2020-07-10T13:11:12Z</time>
      </trkpt>
      <trkpt lat="47.80756" lon="-3.51869">
        <ele>47.75</ele>
        <time>2020-07-10T13:11:13Z</time>
      </trkpt>
      <trkpt lat="47.80753" lon="-3.51866">
        <ele>47.82</ele>
        <time>2020-07-10T13:11:14Z</time>
      </trkpt>
      <trkpt lat="47.80749" lon="-3.51862">
        <ele>47.91</ele>
        <time>2020-07-10T13:11:15Z</time>
      </trkpt>
      <trkpt lat="47.80746" lon="-3.51858">
        <ele>47.88</ele>
        <time>2020-07-10T13:11:16Z</time>
      </trkpt>
      <trkpt lat="47.80743" lon="-3.51854">
        <ele>47.79</ele>
        <time>2020-07-10T13:11:17Z</time>
      </trkpt>
      <trkpt lat="47.8074" lon="-3.5185">
        <ele>47.68</ele>
        <time>2020-07-10T13:11:18Z</time>
      </trkpt>
      <trkpt lat="47.80736" lon="-3.51847">
        <ele>47.55</ele>
        <time>2020-07-10T13:11:19Z</time>
      </trkpt>
      <trkpt lat="47.80733" lon="-3.51844">
        <ele>47.43</ele>
        <time>2020-07-10T13:11:20Z</time>
      </trkpt>
      <trkpt lat="47.80729" lon="-3.5184">
        <ele>47.29</ele>
        <time>2020-07-10T13:11:21Z</time>
      </trkpt>
      <trkpt lat="47.80725" lon="-3.51836">
        <ele>47.16</ele>
        <time>2020-07-10T13:11:22Z</time>
      </trkpt>
      <trkpt lat="47.80721" lon="-3.51832">
        <ele>47.05</ele>
        <time>2020-07-10T13:11:23Z</time>
      </trkpt>
      <trkpt lat="47.80718" lon="-3.51827">
        <ele>46.96</ele>
        <time>2020-07-10T13:11:24Z</time>
      </trkpt>
      <trkpt lat="47.80714" lon="-3.51822">
        <ele>46.87</ele>
        <time>2020-07-10T13:11:25Z</time>
      </trkpt>
      <trkpt lat="47.80711" lon="-3.51818">
        <ele>46.78</ele>
        <time>2020-07-10T13:11:26Z</time>
      </trkpt>
      <trkpt lat="47.80707" lon="-3.51814">
        <ele>46.69</ele>
        <time>2020-07-10T13:11:27Z</time>
      </trkpt>
      <trkpt lat="47.80704" lon="-3.5181">
        <ele>46.6</ele>
        <time>2020-07-10T13:11:28Z</time>
      </trkpt>
      <trkpt lat="47.807" lon="-3.51806">
        <ele>46.47</ele>
        <time>2020-07-10T13:11:29Z</time>
      </trkpt>
      <trkpt lat="47.80696" lon="-3.51803">
        <ele>46.23</ele>
        <time>2020-07-10T13:11:30Z</time>
      </trkpt>
      <trkpt lat="47.80692" lon="-3.51801">
        <ele>45.94</ele>
        <time>2020-07-10T13:11:31Z</time>
      </trkpt>
      <trkpt lat="47.80687" lon="-3.51799">
        <ele>45.66</ele>
        <time>2020-07-10T13:11:32Z</time>
      </trkpt>
      <trkpt lat="47.80682" lon="-3.51797">
        <ele>45.36</ele>
        <time>2020-07-10T13:11:33Z</time>
      </trkpt>
      <trkpt lat="47.80677" lon="-3.51795">
        <ele>45.08</ele>
        <time>2020-07-10T13:11:34Z</time>
      </trkpt>
      <trkpt lat="47.80671" lon="-3.51793">
        <ele>44.8</ele>
        <time>2020-07-10T13:11:35Z</time>
      </trkpt>
      <trkpt lat="47.80666" lon="-3.51792">
        <ele>44.54</ele>
        <time>2020-07-10T13:11:36Z</time>
      </trkpt>
      <trkpt lat="47.80661" lon="-3.5179">
        <ele>44.05</ele>
        <time>2020-07-10T13:11:37Z</time>
      </trkpt>
      <trkpt lat="47.80655" lon="-3.51788">
        <ele>43.39</ele>
        <time>2020-07-10T13:11:38Z</time>
      </trkpt>
      <trkpt lat="47.80649" lon="-3.51786">
        <ele>42.69</ele>
        <time>2020-07-10T13:11:39Z</time>
      </trkpt>
      <trkpt lat="47.80644" lon="-3.51783">
        <ele>41.95</ele>
        <time>2020-07-10T13:11:40Z</time>
      </trkpt>
      <trkpt lat="47.80638" lon="-3.5178">
        <ele>41.19</ele>
        <time>2020-07-10T13:11:41Z</time>
      </trkpt>
      <trkpt lat="47.80631" lon="-3.51778">
        <ele>40.49</ele>
        <time>2020-07-10T13:11:42Z</time>
      </trkpt>
      <trkpt lat="47.80625" lon="-3.51776">
        <ele>39.88</ele>
        <time>2020-07-10T13:11:43Z</time>
      </trkpt>
      <trkpt lat="47.80619" lon="-3.51775">
        <ele>39.27</ele>
        <time>2020-07-10T13:11:44Z</time>
      </trkpt>
      <trkpt lat="47.80613" lon="-3.51773">
        <ele>38.64</ele>
        <time>2020-07-10T13:11:45Z</time>
      </trkpt>
      <trkpt lat="47.80608" lon="-3.51772">
        <ele>37.62</ele>
        <time>2020-07-10T13:11:46Z</time>
      </trkpt>
      <trkpt lat="47.80604" lon="-3.51771">
        <ele>36.42</ele>
        <time>2020-07-10T13:11:47Z</time>
      </trkpt>
      <trkpt lat="47.80602" lon="-3.5177">
        <ele>35.41</ele>
        <time>2020-07-10T13:11:48Z</time>
      </trkpt>
      <trkpt lat="47.806" lon="-3.5177">
        <ele>34.82</ele>
        <time>2020-07-10T13:11:49Z</time>
      </trkpt>
      <trkpt lat="47.806" lon="-3.51769">
        <ele>34.59</ele>
        <time>2020-07-10T13:11:50Z</time>
      </trkpt>
      <trkpt lat="47.806" lon="-3.5177">
        <ele>34.55</ele>
        <time>2020-07-10T13:11:51Z</time>
      </trkpt>
      <trkpt lat="47.806" lon="-3.5177">
        <ele>34.56</ele>
        <time>2020-07-10T13:11:52Z</time>
      </trkpt>
      <trkpt lat="47.806" lon="-3.5177">
        <ele>34.56</ele>
        <time>2020-07-10T13:11:53Z</time>
      </trkpt>
      <trkpt lat="47.806" lon="-3.5177">
        <ele>34.56</ele>
        <time>2020-07-10T13:11:54Z</time>
      </trkpt>
      <trkpt lat="47.806" lon="-3.5177">
        <ele>34.56</ele>
        <time>2020-07-10T13:11:55Z</time>
      </trkpt>
      <trkpt lat="47.806" lon="-3.5177">
        <ele>34.56</ele>
        <time>2020-07-10T13:11:56Z</time>
      </trkpt>
      <trkpt lat="47.806" lon="-3.5177">
        <ele>34.56</ele>
        <time>2020-07-10T13:11:57Z</time>
      </trkpt>
      <trkpt lat="47.806" lon="-3.5177">
        <ele>34.56</ele>
        <time>2020-07-10T13:11:58Z</time>
      </trkpt>
      <trkpt lat="47.806" lon="-3.5177">
        <ele>34.56</ele>
        <time>2020-07-10T13:11:59Z</time>
      </trkpt>
      <trkpt lat="47.80599" lon="-3.51775">
        <ele>34.14</ele>
        <time>2020-07-10T13:12:00Z</time>
      </trkpt>
      <trkpt lat="47.80599" lon="-3.51779">
        <ele>33.65</ele>
        <time>2020-07-10T13:12:01Z</time>
      </trkpt>
      <trkpt lat="47.80598" lon="-3.51783">
        <ele>33.27</ele>
        <time>2020-07-10T13:12:02Z</time>
      </trkpt>
      <trkpt lat="47.80598" lon="-3.51789">
        <ele>32.74</ele>
        <time>2020-07-10T13:12:03Z</time>
      </trkpt>
      <trkpt lat="47.80597" lon="-3.51795">
        <ele>32.18</ele>
        <time>2020-07-10T13:12:04Z</time>
      </trkpt>
      <trkpt lat="47.80596" lon="-3.51801">
        <ele>31.54</ele>
        <time>2020-07-10T13:12:05Z</time>
      </trkpt>
      <trkpt lat="47.80595" lon="-3.51807">
        <ele>30.87</ele>
        <time>2020-07-10T13:12:06Z</time>
      </trkpt>
      <trkpt lat="47.80593" lon="-3.51813">
        <ele>30.11</ele>
        <time>2020-07-10T13:12:07Z</time>
      </trkpt>
      <trkpt lat="47.80591" lon="-3.51821">
        <ele>29.08</ele>
        <time>2020-07-10T13:12:08Z</time>
      </trkpt>
      <trkpt lat="47.8059" lon="-3.51828">
        <ele>28.23</ele>
        <time>2020-07-10T13:12:09Z</time>
      </trkpt>
      <trkpt lat="47.80589" lon="-3.51837">
        <ele>27.56</ele>
        <time>2020-07-10T13:12:10Z</time>
      </trkpt>
      <trkpt lat="47.80589" lon="-3.51847">
        <ele>27.31</ele>
        <time>2020-07-10T13:12:11Z</time>
      </trkpt>
      <trkpt lat="47.80589" lon="-3.51858">
        <ele>27.33</ele>
        <time>2020-07-10T13:12:12Z</time>
      </trkpt>
      <trkpt lat="47.8059" lon="-3.51868">
        <ele>27.24</ele>
        <time>2020-07-10T13:12:13Z</time>
      </trkpt>
      <trkpt lat="47.80591" lon="-3.5188">
        <ele>27.24</ele>
        <time>2020-07-10T13:12:14Z</time>
      </trkpt>
      <trkpt lat="47.80593" lon="-3.51891">
        <ele>27.27</ele>
        <time>2020-07-10T13:12:15Z</time>
      </trkpt>
      <trkpt lat="47.80595" lon="-3.51903">
        <ele>27.44</ele>
        <time>2020-07-10T13:12:16Z</time>
      </trkpt>
      <trkpt lat="47.80596" lon="-3.51914">
        <ele>27.39</ele>
        <time>2020-07-10T13:12:17Z</time>
      </trkpt>
      <trkpt lat="47.80597" lon="-3.51925">
        <ele>26.98</ele>
        <time>2020-07-10T13:12:18Z</time>
      </trkpt>
      <trkpt lat="47.80598" lon="-3.51935">
        <ele>26.37</ele>
        <time>2020-07-10T13:12:19Z</time>
      </trkpt>
      <trkpt lat="47.80599" lon="-3.51945">
        <ele>25.8</ele>
        <time>2020-07-10T13:12:20Z</time>
      </trkpt>
      <trkpt lat="47.806" lon="-3.51955">
        <ele>25.35</ele>
        <time>2020-07-10T13:12:21Z</time>
      </trkpt>
      <trkpt lat="47.80601" lon="-3.51965">
        <ele>24.97</ele>
        <time>2020-07-10T13:12:22Z</time>
      </trkpt>
      <trkpt lat="47.80601" lon="-3.51975">
        <ele>24.32</ele>
        <time>2020-07-10T13:12:23Z</time>
      </trkpt>
      <trkpt lat="47.80601" lon="-3.51987">
        <ele>23.57</ele>
        <time>2020-07-10T13:12:24Z</time>
      </trkpt>
      <trkpt lat="47.80601" lon="-3.51999">
        <ele>22.86</ele>
        <time>2020-07-10T13:12:25Z</time>
      </trkpt>
      <trkpt lat="47.80601" lon="-3.52011">
        <ele>22.13</ele>
        <time>2020-07-10T13:12:26Z</time>
      </trkpt>
      <trkpt lat="47.806" lon="-3.52022">
        <ele>21.16</ele>
        <time>2020-07-10T13:12:27Z</time>
      </trkpt>
      <trkpt lat="47.806" lon="-3.52035">
        <ele>20.54</ele>
        <time>2020-07-10T13:12:28Z</time>
      </trkpt>
      <trkpt lat="47.80598" lon="-3.52046">
        <ele>19.76</ele>
        <time>2020-07-10T13:12:29Z</time>
      </trkpt>
      <trkpt lat="47.80595" lon="-3.52056">
        <ele>18.63</ele>
        <time>2020-07-10T13:12:30Z</time>
      </trkpt>
      <trkpt lat="47.80591" lon="-3.52065">
        <ele>17.44</ele>
        <time>2020-07-10T13:12:31Z</time>
      </trkpt>
      <trkpt lat="47.80587" lon="-3.52073">
        <ele>16.16</ele>
        <time>2020-07-10T13:12:32Z</time>
      </trkpt>
      <trkpt lat="47.80583" lon="-3.52081">
        <ele>15.25</ele>
        <time>2020-07-10T13:12:33Z</time>
      </trkpt>
      <trkpt lat="47.8058" lon="-3.52087">
        <ele>14.46</ele>
        <time>2020-07-10T13:12:34Z</time>
      </trkpt>
      <trkpt lat="47.80577" lon="-3.52093">
        <ele>13.84</ele>
        <time>2020-07-10T13:12:35Z</time>
      </trkpt>
      <trkpt lat="47.80574" lon="-3.521">
        <ele>13.29</ele>
        <time>2020-07-10T13:12:36Z</time>
      </trkpt>
      <trkpt lat="47.80571" lon="-3.52108">
        <ele>12.91</ele>
        <time>2020-07-10T13:12:37Z</time>
      </trkpt>
      <trkpt lat="47.80568" lon="-3.52116">
        <ele>12.64</ele>
        <time>2020-07-10T13:12:38Z</time>
      </trkpt>
      <trkpt lat="47.80567" lon="-3.52126">
        <ele>12.85</ele>
        <time>2020-07-10T13:12:39Z</time>
      </trkpt>
      <trkpt lat="47.80565" lon="-3.52134">
        <ele>13.08</ele>
        <time>2020-07-10T13:12:40Z</time>
      </trkpt>
      <trkpt lat="47.80564" lon="-3.52141">
        <ele>13.37</ele>
        <time>2020-07-10T13:12:41Z</time>
      </trkpt>
      <trkpt lat="47.80564" lon="-3.52148">
        <ele>13.66</ele>
        <time>2020-07-10T13:12:42Z</time>
      </trkpt>
      <trkpt lat="47.80564" lon="-3.52154">
        <ele>13.93</ele>
        <time>2020-07-10T13:12:43Z</time>
      </trkpt>
      <trkpt lat="47.80563" lon="-3.52161">
        <ele>14.11</ele>
        <time>2020-07-10T13:12:44Z</time>
      </trkpt>
      <trkpt lat="47.80563" lon="-3.52165">
        <ele>14.21</ele>
        <time>2020-07-10T13:12:45Z</time>
      </trkpt>
      <trkpt lat="47.80562" lon="-3.52169">
        <ele>14.17</ele>
        <time>2020-07-10T13:12:46Z</time>
      </trkpt>
      <trkpt lat="47.80562" lon="-3.52173">
        <ele>14.02</ele>
        <time>2020-07-10T13:12:47Z</time>
      </trkpt>
      <trkpt lat="47.80562" lon="-3.52176">
        <ele>13.93</ele>
        <time>2020-07-10T13:12:48Z</time>
      </trkpt>
      <trkpt lat="47.80562" lon="-3.52176">
        <ele>13.84</ele>
        <time>2020-07-10T13:12:49Z</time>
      </trkpt>
      <trkpt lat="47.80562" lon="-3.52176">
        <ele>13.8</ele>
        <time>2020-07-10T13:12:50Z</time>
      </trkpt>
      <trkpt lat="47.80562" lon="-3.52178">
        <ele>13.77</ele>
        <time>2020-07-10T13:12:51Z</time>
      </trkpt>
      <trkpt lat="47.80562" lon="-3.52178">
        <ele>13.76</ele>
        <time>2020-07-10T13:12:52Z</time>
      </trkpt>
      <trkpt lat="47.80562" lon="-3.52178">
        <ele>13.76</ele>
        <time>2020-07-10T13:12:53Z</time>
      </trkpt>
      <trkpt lat="47.80563" lon="-3.52187">
        <ele>13.72</ele>
        <time>2020-07-10T13:12:54Z</time>
      </trkpt>
      <trkpt lat="47.80563" lon="-3.5219">
        <ele>13.6</ele>
        <time>2020-07-10T13:12:55Z</time>
      </trkpt>
      <trkpt lat="47.80563" lon="-3.52194">
        <ele>13.48</ele>
        <time>2020-07-10T13:12:56Z</time>
      </trkpt>
      <trkpt lat="47.80563" lon="-3.52197">
        <ele>13.28</ele>
        <time>2020-07-10T13:12:57Z</time>
      </trkpt>
      <trkpt lat="47.80563" lon="-3.52201">
        <ele>13.07</ele>
        <time>2020-07-10T13:12:58Z</time>
      </trkpt>
      <trkpt lat="47.80562" lon="-3.52205">
        <ele>12.8</ele>
        <time>2020-07-10T13:12:59Z</time>
      </trkpt>
      <trkpt lat="47.80562" lon="-3.52208">
        <ele>12.57</ele>
        <time>2020-07-10T13:13:00Z</time>
      </trkpt>
      <trkpt lat="47.8056" lon="-3.52212">
        <ele>12.23</ele>
        <time>2020-07-10T13:13:01Z</time>
      </trkpt>
      <trkpt lat="47.8056" lon="-3.52214">
        <ele>12.1</ele>
        <time>2020-07-10T13:13:02Z</time>
      </trkpt>
      <trkpt lat="47.8056" lon="-3.52215">
        <ele>12.04</ele>
        <time>2020-07-10T13:13:03Z</time>
      </trkpt>
      <trkpt lat="47.80561" lon="-3.52215">
        <ele>12.05</ele>
        <time>2020-07-10T13:13:04Z</time>
      </trkpt>
      <trkpt lat="47.80561" lon="-3.52215">
        <ele>12.05</ele>
        <time>2020-07-10T13:13:05Z</time>
      </trkpt>
      <trkpt lat="47.80561" lon="-3.52215">
        <ele>12.05</ele>
        <time>2020-07-10T13:13:06Z</time>
      </trkpt>
      <trkpt lat="47.80561" lon="-3.52215">
        <ele>12.05</ele>
        <time>2020-07-10T13:13:07Z</time>
      </trkpt>
      <trkpt lat="47.80561" lon="-3.52215">
        <ele>12.06</ele>
        <time>2020-07-10T13:13:08Z</time>
      </trkpt>
      <trkpt lat="47.80561" lon="-3.52215">
        <ele>12.06</ele>
        <time>2020-07-10T13:13:09Z</time>
      </trkpt>
      <trkpt lat="47.80561" lon="-3.52215">
        <ele>12.06</ele>
        <time>2020-07-10T13:13:10Z</time>
      </trkpt>
      <trkpt lat="47.80561" lon="-3.52215">
        <ele>12.06</ele>
        <time>2020-07-10T13:13:11Z</time>
      </trkpt>
      <trkpt lat="47.80561" lon="-3.52215">
        <ele>12.06</ele>
        <time>2020-07-10T13:13:12Z</time>
      </trkpt>
      <trkpt lat="47.80561" lon="-3.52215">
        <ele>12.06</ele>
        <time>2020-07-10T13:13:13Z</time>
      </trkpt>
      <trkpt lat="47.80561" lon="-3.52215">
        <ele>12.06</ele>
        <time>2020-07-10T13:13:14Z</time>
      </trkpt>
      <trkpt lat="47.80561" lon="-3.52215">
        <ele>12.06</ele>
        <time>2020-07-10T13:13:15Z</time>
      </trkpt>
      <trkpt lat="47.80561" lon="-3.52215">
        <ele>12.06</ele>
        <time>2020-07-10T13:13:16Z</time>
      </trkpt>
      <trkpt lat="47.80561" lon="-3.52215">
        <ele>12.06</ele>
        <time>2020-07-10T13:13:17Z</time>
      </trkpt>
      <trkpt lat="47.80561" lon="-3.52215">
        <ele>12.06</ele>
        <time>2020-07-10T13:13:18Z</time>
      </trkpt>
      <trkpt lat="47.80561" lon="-3.52215">
        <ele>12.06</ele>
        <time>2020-07-10T13:13:19Z</time>
      </trkpt>
      <trkpt lat="47.80561" lon="-3.52215">
        <ele>12.06</ele>
        <time>2020-07-10T13:13:20Z</time>
      </trkpt>
      <trkpt lat="47.80565" lon="-3.52209">
        <ele>12.66</ele>
        <time>2020-07-10T13:13:21Z</time>
      </trkpt>
      <trkpt lat="47.80564" lon="-3.52206">
        <ele>12.9</ele>
        <time>2020-07-10T13:13:22Z</time>
      </trkpt>
      <trkpt lat="47.80564" lon="-3.52203">
        <ele>13.08</ele>
        <time>2020-07-10T13:13:23Z</time>
      </trkpt>
      <trkpt lat="47.80564" lon="-3.52201">
        <ele>13.22</ele>
        <time>2020-07-10T13:13:24Z</time>
      </trkpt>
      <trkpt lat="47.80564" lon="-3.52198">
        <ele>13.31</ele>
        <time>2020-07-10T13:13:25Z</time>
      </trkpt>
      <trkpt lat="47.80564" lon="-3.52196">
        <ele>13.4</ele>
        <time>2020-07-10T13:13:26Z</time>
      </trkpt>
      <trkpt lat="47.80564" lon="-3.52196">
        <ele>13.49</ele>
        <time>2020-07-10T13:13:27Z</time>
      </trkpt>
      <trkpt lat="47.80564" lon="-3.52194">
        <ele>13.54</ele>
        <time>2020-07-10T13:13:28Z</time>
      </trkpt>
      <trkpt lat="47.80564" lon="-3.52194">
        <ele>13.56</ele>
        <time>2020-07-10T13:13:29Z</time>
      </trkpt>
      <trkpt lat="47.80564" lon="-3.52194">
        <ele>13.56</ele>
        <time>2020-07-10T13:13:30Z</time>
      </trkpt>
      <trkpt lat="47.80563" lon="-3.52188">
        <ele>13.64</ele>
        <time>2020-07-10T13:13:31Z</time>
      </trkpt>
      <trkpt lat="47.80564" lon="-3.52185">
        <ele>13.77</ele>
        <time>2020-07-10T13:13:32Z</time>
      </trkpt>
      <trkpt lat="47.80564" lon="-3.52182">
        <ele>13.92</ele>
        <time>2020-07-10T13:13:33Z</time>
      </trkpt>
      <trkpt lat="47.80564" lon="-3.52178">
        <ele>14.08</ele>
        <time>2020-07-10T13:13:34Z</time>
      </trkpt>
      <trkpt lat="47.80564" lon="-3.52174">
        <ele>14.25</ele>
        <time>2020-07-10T13:13:35Z</time>
      </trkpt>
      <trkpt lat="47.80565" lon="-3.5217">
        <ele>14.42</ele>
        <time>2020-07-10T13:13:36Z</time>
      </trkpt>
      <trkpt lat="47.80564" lon="-3.52167">
        <ele>14.5</ele>
        <time>2020-07-10T13:13:37Z</time>
      </trkpt>
      <trkpt lat="47.80564" lon="-3.52165">
        <ele>14.42</ele>
        <time>2020-07-10T13:13:38Z</time>
      </trkpt>
      <trkpt lat="47.80562" lon="-3.52163">
        <ele>14.13</ele>
        <time>2020-07-10T13:13:39Z</time>
      </trkpt>
      <trkpt lat="47.80561" lon="-3.52161">
        <ele>13.8</ele>
        <time>2020-07-10T13:13:40Z</time>
      </trkpt>
      <trkpt lat="47.80559" lon="-3.52159">
        <ele>13.44</ele>
        <time>2020-07-10T13:13:41Z</time>
      </trkpt>
      <trkpt lat="47.80558" lon="-3.52158">
        <ele>13.05</ele>
        <time>2020-07-10T13:13:42Z</time>
      </trkpt>
      <trkpt lat="47.80556" lon="-3.52156">
        <ele>12.56</ele>
        <time>2020-07-10T13:13:43Z</time>
      </trkpt>
      <trkpt lat="47.80554" lon="-3.52154">
        <ele>11.84</ele>
        <time>2020-07-10T13:13:44Z</time>
      </trkpt>
      <trkpt lat="47.80551" lon="-3.5215">
        <ele>10.72</ele>
        <time>2020-07-10T13:13:45Z</time>
      </trkpt>
      <trkpt lat="47.80547" lon="-3.52148">
        <ele>9.46</ele>
        <time>2020-07-10T13:13:46Z</time>
      </trkpt>
      <trkpt lat="47.80544" lon="-3.52146">
        <ele>8.27</ele>
        <time>2020-07-10T13:13:47Z</time>
      </trkpt>
      <trkpt lat="47.80541" lon="-3.52142">
        <ele>6.98</ele>
        <time>2020-07-10T13:13:48Z</time>
      </trkpt>
      <trkpt lat="47.80538" lon="-3.52138">
        <ele>5.72</ele>
        <time>2020-07-10T13:13:49Z</time>
      </trkpt>
      <trkpt lat="47.80535" lon="-3.52134">
        <ele>4.49</ele>
        <time>2020-07-10T13:13:50Z</time>
      </trkpt>
      <trkpt lat="47.80534" lon="-3.5213">
        <ele>3.59</ele>
        <time>2020-07-10T13:13:51Z</time>
      </trkpt>
      <trkpt lat="47.80533" lon="-3.52127">
        <ele>2.97</ele>
        <time>2020-07-10T13:13:52Z</time>
      </trkpt>
      <trkpt lat="47.80533" lon="-3.52125">
        <ele>2.62</ele>
        <time>2020-07-10T13:13:53Z</time>
      </trkpt>
      <trkpt lat="47.80533" lon="-3.52124">
        <ele>2.53</ele>
        <time>2020-07-10T13:13:54Z</time>
      </trkpt>
      <trkpt lat="47.80533" lon="-3.52122">
        <ele>2.42</ele>
        <time>2020-07-10T13:13:55Z</time>
      </trkpt>
      <trkpt lat="47.80533" lon="-3.52121">
        <ele>2.35</ele>
        <time>2020-07-10T13:13:56Z</time>
      </trkpt>
      <trkpt lat="47.80533" lon="-3.52121">
        <ele>2.25</ele>
        <time>2020-07-10T13:13:57Z</time>
      </trkpt>
      <trkpt lat="47.80533" lon="-3.52121">
        <ele>2.22</ele>
        <time>2020-07-10T13:13:58Z</time>
      </trkpt>
      <trkpt lat="47.80533" lon="-3.52121">
        <ele>2.21</ele>
        <time>2020-07-10T13:13:59Z</time>
      </trkpt>
      <trkpt lat="47.80533" lon="-3.52121">
        <ele>2.21</ele>
        <time>2020-07-10T13:14:00Z</time>
      </trkpt>
      <trkpt lat="47.80533" lon="-3.52121">
        <ele>2.21</ele>
        <time>2020-07-10T13:14:01Z</time>
      </trkpt>
      <trkpt lat="47.80533" lon="-3.52121">
        <ele>2.21</ele>
        <time>2020-07-10T13:14:02Z</time>
      </trkpt>
      <trkpt lat="47.80533" lon="-3.52121">
        <ele>2.21</ele>
        <time>2020-07-10T13:14:03Z</time>
      </trkpt>
      <trkpt lat="47.80533" lon="-3.52121">
        <ele>2.21</ele>
        <time>2020-07-10T13:14:04Z</time>
      </trkpt>
      <trkpt lat="47.80535" lon="-3.52119">
        <ele>2.32</ele>
        <time>2020-07-10T13:14:05Z</time>
      </trkpt>
      <trkpt lat="47.80536" lon="-3.52118">
        <ele>2.48</ele>
        <time>2020-07-10T13:14:06Z</time>
      </trkpt>
      <trkpt lat="47.80537" lon="-3.52117">
        <ele>2.67</ele>
        <time>2020-07-10T13:14:07Z</time>
      </trkpt>
      <trkpt lat="47.80539" lon="-3.52115">
        <ele>3.03</ele>
        <time>2020-07-10T13:14:08Z</time>
      </trkpt>
      <trkpt lat="47.8054" lon="-3.52114">
        <ele>3.32</ele>
        <time>2020-07-10T13:14:09Z</time>
      </trkpt>
      <trkpt lat="47.80542" lon="-3.52113">
        <ele>3.55</ele>
        <time>2020-07-10T13:14:10Z</time>
      </trkpt>
      <trkpt lat="47.80543" lon="-3.52111">
        <ele>3.78</ele>
        <time>2020-07-10T13:14:11Z</time>
      </trkpt>
      <trkpt lat="47.80544" lon="-3.52109">
        <ele>3.91</ele>
        <time>2020-07-10T13:14:12Z</time>
      </trkpt>
      <trkpt lat="47.80546" lon="-3.52108">
        <ele>4.19</ele>
        <time>2020-07-10T13:14:13Z</time>
      </trkpt>
      <trkpt lat="47.80547" lon="-3.52107">
        <ele>4.38</ele>
        <time>2020-07-10T13:14:14Z</time>
      </trkpt>
      <trkpt lat="47.80548" lon="-3.52105">
        <ele>4.52</ele>
        <time>2020-07-10T13:14:15Z</time>
      </trkpt>
      <trkpt lat="47.8055" lon="-3.52104">
        <ele>4.86</ele>
        <time>2020-07-10T13:14:16Z</time>
      </trkpt>
      <trkpt lat="47.80551" lon="-3.52101">
        <ele>4.85</ele>
        <time>2020-07-10T13:14:17Z</time>
      </trkpt>
      <trkpt lat="47.80551" lon="-3.52099">
        <ele>4.73</ele>
        <time>2020-07-10T13:14:18Z</time>
      </trkpt>
      <trkpt lat="47.80552" lon="-3.52096">
        <ele>4.58</ele>
        <time>2020-07-10T13:14:19Z</time>
      </trkpt>
      <trkpt lat="47.80552" lon="-3.52094">
        <ele>4.48</ele>
        <time>2020-07-10T13:14:20Z</time>
      </trkpt>
      <trkpt lat="47.80553" lon="-3.52089">
        <ele>4.25</ele>
        <time>2020-07-10T13:14:21Z</time>
      </trkpt>
      <trkpt lat="47.80553" lon="-3.52086">
        <ele>4.03</ele>
        <time>2020-07-10T13:14:22Z</time>
      </trkpt>
      <trkpt lat="47.80555" lon="-3.52082">
        <ele>3.94</ele>
        <time>2020-07-10T13:14:23Z</time>
      </trkpt>
      <trkpt lat="47.80557" lon="-3.52079">
        <ele>4.28</ele>
        <time>2020-07-10T13:14:24Z</time>
      </trkpt>
      <trkpt lat="47.80559" lon="-3.52076">
        <ele>4.86</ele>
        <time>2020-07-10T13:14:25Z</time>
      </trkpt>
      <trkpt lat="47.8056" lon="-3.52073">
        <ele>5.4</ele>
        <time>2020-07-10T13:14:26Z</time>
      </trkpt>
      <trkpt lat="47.80561" lon="-3.52069">
        <ele>5.71</ele>
        <time>2020-07-10T13:14:27Z</time>
      </trkpt>
      <trkpt lat="47.80561" lon="-3.52066">
        <ele>5.81</ele>
        <time>2020-07-10T13:14:28Z</time>
      </trkpt>
      <trkpt lat="47.8056" lon="-3.52062">
        <ele>5.72</ele>
        <time>2020-07-10T13:14:29Z</time>
      </trkpt>
      <trkpt lat="47.80561" lon="-3.52058">
        <ele>5.77</ele>
        <time>2020-07-10T13:14:30Z</time>
      </trkpt>
      <trkpt lat="47.80562" lon="-3.52053">
        <ele>5.87</ele>
        <time>2020-07-10T13:14:31Z</time>
      </trkpt>
      <trkpt lat="47.80562" lon="-3.52049">
        <ele>5.87</ele>
        <time>2020-07-10T13:14:32Z</time>
      </trkpt>
      <trkpt lat="47.80562" lon="-3.52047">
        <ele>5.97</ele>
        <time>2020-07-10T13:14:33Z</time>
      </trkpt>
      <trkpt lat="47.80563" lon="-3.52044">
        <ele>6.17</ele>
        <time>2020-07-10T13:14:34Z</time>
      </trkpt>
      <trkpt lat="47.80564" lon="-3.5204">
        <ele>6.45</ele>
        <time>2020-07-10T13:14:35Z</time>
      </trkpt>
      <trkpt lat="47.80565" lon="-3.52036">
        <ele>6.75</ele>
        <time>2020-07-10T13:14:36Z</time>
      </trkpt>
      <trkpt lat="47.80566" lon="-3.52033">
        <ele>7.05</ele>
        <time>2020-07-10T13:14:37Z</time>
      </trkpt>
      <trkpt lat="47.80567" lon="-3.52029">
        <ele>7.2</ele>
        <time>2020-07-10T13:14:38Z</time>
      </trkpt>
      <trkpt lat="47.80566" lon="-3.52025">
        <ele>7.08</ele>
        <time>2020-07-10T13:14:39Z</time>
      </trkpt>
      <trkpt lat="47.80565" lon="-3.5202">
        <ele>6.91</ele>
        <time>2020-07-10T13:14:40Z</time>
      </trkpt>
      <trkpt lat="47.80564" lon="-3.52017">
        <ele>6.83</ele>
        <time>2020-07-10T13:14:41Z</time>
      </trkpt>
      <trkpt lat="47.80563" lon="-3.52012">
        <ele>6.67</ele>
        <time>2020-07-10T13:14:42Z</time>
      </trkpt>
      <trkpt lat="47.80562" lon="-3.52007">
        <ele>6.55</ele>
        <time>2020-07-10T13:14:43Z</time>
      </trkpt>
      <trkpt lat="47.80563" lon="-3.52002">
        <ele>6.7</ele>
        <time>2020-07-10T13:14:44Z</time>
      </trkpt>
      <trkpt lat="47.80564" lon="-3.51998">
        <ele>7.2</ele>
        <time>2020-07-10T13:14:45Z</time>
      </trkpt>
      <trkpt lat="47.80564" lon="-3.51992">
        <ele>7.48</ele>
        <time>2020-07-10T13:14:46Z</time>
      </trkpt>
      <trkpt lat="47.80563" lon="-3.51987">
        <ele>7.52</ele>
        <time>2020-07-10T13:14:47Z</time>
      </trkpt>
      <trkpt lat="47.80563" lon="-3.51983">
        <ele>7.4</ele>
        <time>2020-07-10T13:14:48Z</time>
      </trkpt>
      <trkpt lat="47.80563" lon="-3.51981">
        <ele>7.37</ele>
        <time>2020-07-10T13:14:49Z</time>
      </trkpt>
      <trkpt lat="47.80562" lon="-3.51977">
        <ele>7.26</ele>
        <time>2020-07-10T13:14:50Z</time>
      </trkpt>
      <trkpt lat="47.80563" lon="-3.51975">
        <ele>7.44</ele>
        <time>2020-07-10T13:14:51Z</time>
      </trkpt>
      <trkpt lat="47.80562" lon="-3.51973">
        <ele>7.46</ele>
        <time>2020-07-10T13:14:52Z</time>
      </trkpt>
      <trkpt lat="47.80562" lon="-3.51972">
        <ele>7.48</ele>
        <time>2020-07-10T13:14:53Z</time>
      </trkpt>
      <trkpt lat="47.80562" lon="-3.51972">
        <ele>7.49</ele>
        <time>2020-07-10T13:14:54Z</time>
      </trkpt>
      <trkpt lat="47.80562" lon="-3.51972">
        <ele>7.5</ele>
        <time>2020-07-10T13:14:55Z</time>
      </trkpt>
      <trkpt lat="47.80562" lon="-3.51972">
        <ele>7.5</ele>
        <time>2020-07-10T13:14:56Z</time>
      </trkpt>
      <trkpt lat="47.80562" lon="-3.51972">
        <ele>7.5</ele>
        <time>2020-07-10T13:14:57Z</time>
      </trkpt>
      <trkpt lat="47.80562" lon="-3.51972">
        <ele>7.5</ele>
        <time>2020-07-10T13:14:58Z</time>
      </trkpt>
      <trkpt lat="47.80562" lon="-3.51972">
        <ele>7.5</ele>
        <time>2020-07-10T13:14:59Z</time>
      </trkpt>
      <trkpt lat="47.80562" lon="-3.51972">
        <ele>7.5</ele>
        <time>2020-07-10T13:15:00Z</time>
      </trkpt>
      <trkpt lat="47.80562" lon="-3.51972">
        <ele>7.5</ele>
        <time>2020-07-10T13:15:01Z</time>
      </trkpt>
      <trkpt lat="47.80562" lon="-3.51972">
        <ele>7.5</ele>
        <time>2020-07-10T13:15:02Z</time>
      </trkpt>
      <trkpt lat="47.80562" lon="-3.51972">
        <ele>7.5</ele>
        <time>2020-07-10T13:15:03Z</time>
      </trkpt>
      <trkpt lat="47.80562" lon="-3.51972">
        <ele>7.5</ele>
        <time>2020-07-10T13:15:04Z</time>
      </trkpt>
      <trkpt lat="47.80562" lon="-3.51972">
        <ele>7.5</ele>
        <time>2020-07-10T13:15:05Z</time>
      </trkpt>
      <trkpt lat="47.80562" lon="-3.51957">
        <ele>8.07</ele>
        <time>2020-07-10T13:15:06Z</time>
      </trkpt>
      <trkpt lat="47.80561" lon="-3.51954">
        <ele>8.04</ele>
        <time>2020-07-10T13:15:07Z</time>
      </trkpt>
      <trkpt lat="47.8056" lon="-3.51952">
        <ele>7.97</ele>
        <time>2020-07-10T13:15:08Z</time>
      </trkpt>
      <trkpt lat="47.80559" lon="-3.51948">
        <ele>7.88</ele>
        <time>2020-07-10T13:15:09Z</time>
      </trkpt>
      <trkpt lat="47.80558" lon="-3.51945">
        <ele>7.48</ele>
        <time>2020-07-10T13:15:10Z</time>
      </trkpt>
      <trkpt lat="47.80558" lon="-3.51942">
        <ele>7.6</ele>
        <time>2020-07-10T13:15:11Z</time>
      </trkpt>
      <trkpt lat="47.80559" lon="-3.5194">
        <ele>7.83</ele>
        <time>2020-07-10T13:15:12Z</time>
      </trkpt>
      <trkpt lat="47.80558" lon="-3.51937">
        <ele>7.91</ele>
        <time>2020-07-10T13:15:13Z</time>
      </trkpt>
      <trkpt lat="47.80558" lon="-3.51935">
        <ele>8.08</ele>
        <time>2020-07-10T13:15:14Z</time>
      </trkpt>
      <trkpt lat="47.80558" lon="-3.51931">
        <ele>8.29</ele>
        <time>2020-07-10T13:15:15Z</time>
      </trkpt>
      <trkpt lat="47.80558" lon="-3.5193">
        <ele>8.46</ele>
        <time>2020-07-10T13:15:16Z</time>
      </trkpt>
      <trkpt lat="47.80558" lon="-3.51929">
        <ele>8.57</ele>
        <time>2020-07-10T13:15:17Z</time>
      </trkpt>
      <trkpt lat="47.80558" lon="-3.51927">
        <ele>8.65</ele>
        <time>2020-07-10T13:15:18Z</time>
      </trkpt>
      <trkpt lat="47.80558" lon="-3.51927">
        <ele>8.68</ele>
        <time>2020-07-10T13:15:19Z</time>
      </trkpt>
      <trkpt lat="47.80558" lon="-3.51927">
        <ele>8.68</ele>
        <time>2020-07-10T13:15:20Z</time>
      </trkpt>
      <trkpt lat="47.80558" lon="-3.51927">
        <ele>8.69</ele>
        <time>2020-07-10T13:15:21Z</time>
      </trkpt>
      <trkpt lat="47.80558" lon="-3.51927">
        <ele>8.69</ele>
        <time>2020-07-10T13:15:22Z</time>
      </trkpt>
      <trkpt lat="47.80558" lon="-3.51927">
        <ele>8.69</ele>
        <time>2020-07-10T13:15:23Z</time>
      </trkpt>
      <trkpt lat="47.80558" lon="-3.51927">
        <ele>8.69</ele>
        <time>2020-07-10T13:15:24Z</time>
      </trkpt>
      <trkpt lat="47.80558" lon="-3.51927">
        <ele>8.69</ele>
        <time>2020-07-10T13:15:25Z</time>
      </trkpt>
      <trkpt lat="47.80558" lon="-3.51927">
        <ele>8.69</ele>
        <time>2020-07-10T13:15:26Z</time>
      </trkpt>
      <trkpt lat="47.80558" lon="-3.51927">
        <ele>8.69</ele>
        <time>2020-07-10T13:15:27Z</time>
      </trkpt>
      <trkpt lat="47.80558" lon="-3.51927">
        <ele>8.69</ele>
        <time>2020-07-10T13:15:28Z</time>
      </trkpt>
      <trkpt lat="47.80558" lon="-3.51927">
        <ele>8.69</ele>
        <time>2020-07-10T13:15:29Z</time>
      </trkpt>
      <trkpt lat="47.80558" lon="-3.51927">
        <ele>8.69</ele>
        <time>2020-07-10T13:15:30Z</time>
      </trkpt>
      <trkpt lat="47.80558" lon="-3.51927">
        <ele>8.69</ele>
        <time>2020-07-10T13:15:31Z</time>
      </trkpt>
      <trkpt lat="47.80558" lon="-3.51927">
        <ele>8.69</ele>
        <time>2020-07-10T13:15:32Z</time>
      </trkpt>
      <trkpt lat="47.80558" lon="-3.51927">
        <ele>8.69</ele>
        <time>2020-07-10T13:15:33Z</time>
      </trkpt>
      <trkpt lat="47.80558" lon="-3.51927">
        <ele>8.69</ele>
        <time>2020-07-10T13:15:34Z</time>
      </trkpt>
      <trkpt lat="47.80558" lon="-3.51927">
        <ele>8.69</ele>
        <time>2020-07-10T13:15:35Z</time>
      </trkpt>
      <trkpt lat="47.80558" lon="-3.51927">
        <ele>8.69</ele>
        <time>2020-07-10T13:15:36Z</time>
      </trkpt>
      <trkpt lat="47.80558" lon="-3.51927">
        <ele>8.69</ele>
        <time>2020-07-10T13:15:37Z</time>
      </trkpt>
      <trkpt lat="47.80558" lon="-3.51927">
        <ele>8.69</ele>
        <time>2020-07-10T13:15:38Z</time>
      </trkpt>
      <trkpt lat="47.80558" lon="-3.51927">
        <ele>8.69</ele>
        <time>2020-07-10T13:15:39Z</time>
      </trkpt>
      <trkpt lat="47.80558" lon="-3.51927">
        <ele>8.69</ele>
        <time>2020-07-10T13:15:40Z</time>
      </trkpt>
      <trkpt lat="47.80558" lon="-3.51927">
        <ele>8.69</ele>
        <time>2020-07-10T13:15:41Z</time>
      </trkpt>
      <trkpt lat="47.80558" lon="-3.51927">
        <ele>8.69</ele>
        <time>2020-07-10T13:15:42Z</time>
      </trkpt>
      <trkpt lat="47.80558" lon="-3.51927">
        <ele>8.69</ele>
        <time>2020-07-10T13:15:43Z</time>
      </trkpt>
      <trkpt lat="47.80558" lon="-3.51927">
        <ele>8.69</ele>
        <time>2020-07-10T13:15:44Z</time>
      </trkpt>
      <trkpt lat="47.80558" lon="-3.51927">
        <ele>8.69</ele>
        <time>2020-07-10T13:15:45Z</time>
      </trkpt>
      <trkpt lat="47.80558" lon="-3.51927">
        <ele>8.69</ele>
        <time>2020-07-10T13:15:46Z</time>
      </trkpt>
      <trkpt lat="47.80558" lon="-3.51914">
        <ele>9.12</ele>
        <time>2020-07-10T13:15:47Z</time>
      </trkpt>
      <trkpt lat="47.80558" lon="-3.51913">
        <ele>9.12</ele>
        <time>2020-07-10T13:15:48Z</time>
      </trkpt>
      <trkpt lat="47.80557" lon="-3.51912">
        <ele>8.92</ele>
        <time>2020-07-10T13:15:49Z</time>
      </trkpt>
      <trkpt lat="47.80556" lon="-3.51911">
        <ele>8.66</ele>
        <time>2020-07-10T13:15:50Z</time>
      </trkpt>
      <trkpt lat="47.80556" lon="-3.51911">
        <ele>8.58</ele>
        <time>2020-07-10T13:15:51Z</time>
      </trkpt>
      <trkpt lat="47.80556" lon="-3.51911">
        <ele>8.55</ele>
        <time>2020-07-10T13:15:52Z</time>
      </trkpt>
      <trkpt lat="47.80556" lon="-3.51911">
        <ele>8.55</ele>
        <time>2020-07-10T13:15:53Z</time>
      </trkpt>
      <trkpt lat="47.80556" lon="-3.51911">
        <ele>8.54</ele>
        <time>2020-07-10T13:15:54Z</time>
      </trkpt>
      <trkpt lat="47.80556" lon="-3.51911">
        <ele>8.54</ele>
        <time>2020-07-10T13:15:55Z</time>
      </trkpt>
      <trkpt lat="47.80553" lon="-3.51899">
        <ele>7.74</ele>
        <time>2020-07-10T13:15:56Z</time>
      </trkpt>
      <trkpt lat="47.80552" lon="-3.51897">
        <ele>7.35</ele>
        <time>2020-07-10T13:15:57Z</time>
      </trkpt>
      <trkpt lat="47.80552" lon="-3.51897">
        <ele>7.21</ele>
        <time>2020-07-10T13:15:58Z</time>
      </trkpt>
      <trkpt lat="47.80552" lon="-3.51895">
        <ele>7.08</ele>
        <time>2020-07-10T13:15:59Z</time>
      </trkpt>
      <trkpt lat="47.80552" lon="-3.51895">
        <ele>7.04</ele>
        <time>2020-07-10T13:16:00Z</time>
      </trkpt>
      <trkpt lat="47.80552" lon="-3.51895">
        <ele>7.03</ele>
        <time>2020-07-10T13:16:01Z</time>
      </trkpt>
      <trkpt lat="47.80552" lon="-3.51895">
        <ele>7.02</ele>
        <time>2020-07-10T13:16:02Z</time>
      </trkpt>
      <trkpt lat="47.80552" lon="-3.51895">
        <ele>7.02</ele>
        <time>2020-07-10T13:16:03Z</time>
      </trkpt>
      <trkpt lat="47.80552" lon="-3.51895">
        <ele>7.02</ele>
        <time>2020-07-10T13:16:04Z</time>
      </trkpt>
      <trkpt lat="47.80552" lon="-3.51895">
        <ele>7.02</ele>
        <time>2020-07-10T13:16:05Z</time>
      </trkpt>
      <trkpt lat="47.80552" lon="-3.51895">
        <ele>7.02</ele>
        <time>2020-07-10T13:16:06Z</time>
      </trkpt>
      <trkpt lat="47.80552" lon="-3.51895">
        <ele>7.02</ele>
        <time>2020-07-10T13:16:07Z</time>
      </trkpt>
      <trkpt lat="47.80552" lon="-3.51895">
        <ele>7.02</ele>
        <time>2020-07-10T13:16:08Z</time>
      </trkpt>
      <trkpt lat="47.80552" lon="-3.51895">
        <ele>7.02</ele>
        <time>2020-07-10T13:16:09Z</time>
      </trkpt>
      <trkpt lat="47.80552" lon="-3.51895">
        <ele>7.02</ele>
        <time>2020-07-10T13:16:10Z</time>
      </trkpt>
      <trkpt lat="47.80552" lon="-3.51895">
        <ele>7.02</ele>
        <time>2020-07-10T13:16:11Z</time>
      </trkpt>
      <trkpt lat="47.80545" lon="-3.51886">
        <ele>5.77</ele>
        <time>2020-07-10T13:16:12Z</time>
      </trkpt>
      <trkpt lat="47.80544" lon="-3.51885">
        <ele>5.26</ele>
        <time>2020-07-10T13:16:13Z</time>
      </trkpt>
      <trkpt lat="47.80543" lon="-3.51883">
        <ele>4.96</ele>
        <time>2020-07-10T13:16:14Z</time>
      </trkpt>
      <trkpt lat="47.80543" lon="-3.51882">
        <ele>4.83</ele>
        <time>2020-07-10T13:16:15Z</time>
      </trkpt>
      <trkpt lat="47.80543" lon="-3.51882">
        <ele>4.79</ele>
        <time>2020-07-10T13:16:16Z</time>
      </trkpt>
      <trkpt lat="47.80543" lon="-3.51882">
        <ele>4.78</ele>
        <time>2020-07-10T13:16:17Z</time>
      </trkpt>
      <trkpt lat="47.80543" lon="-3.51882">
        <ele>4.78</ele>
        <time>2020-07-10T13:16:18Z</time>
      </trkpt>
      <trkpt lat="47.80543" lon="-3.51882">
        <ele>4.78</ele>
        <time>2020-07-10T13:16:19Z</time>
      </trkpt>
      <trkpt lat="47.80543" lon="-3.51882">
        <ele>4.78</ele>
        <time>2020-07-10T13:16:20Z</time>
      </trkpt>
      <trkpt lat="47.80543" lon="-3.51882">
        <ele>4.78</ele>
        <time>2020-07-10T13:16:21Z</time>
      </trkpt>
      <trkpt lat="47.80543" lon="-3.51882">
        <ele>4.78</ele>
        <time>2020-07-10T13:16:22Z</time>
      </trkpt>
      <trkpt lat="47.80543" lon="-3.51882">
        <ele>4.78</ele>
        <time>2020-07-10T13:16:23Z</time>
      </trkpt>
      <trkpt lat="47.80543" lon="-3.51882">
        <ele>4.78</ele>
        <time>2020-07-10T13:16:24Z</time>
      </trkpt>
      <trkpt lat="47.80543" lon="-3.51882">
        <ele>4.78</ele>
        <time>2020-07-10T13:16:25Z</time>
      </trkpt>
      <trkpt lat="47.80543" lon="-3.51882">
        <ele>4.78</ele>
        <time>2020-07-10T13:16:26Z</time>
      </trkpt>
      <trkpt lat="47.80543" lon="-3.51882">
        <ele>4.78</ele>
        <time>2020-07-10T13:16:27Z</time>
      </trkpt>
      <trkpt lat="47.80548" lon="-3.5187">
        <ele>5.29</ele>
        <time>2020-07-10T13:16:28Z</time>
      </trkpt>
      <trkpt lat="47.80547" lon="-3.51865">
        <ele>5.27</ele>
        <time>2020-07-10T13:16:29Z</time>
      </trkpt>
      <trkpt lat="47.80547" lon="-3.51861">
        <ele>5.14</ele>
        <time>2020-07-10T13:16:30Z</time>
      </trkpt>
      <trkpt lat="47.80547" lon="-3.51857">
        <ele>5.15</ele>
        <time>2020-07-10T13:16:31Z</time>
      </trkpt>
      <trkpt lat="47.80547" lon="-3.51853">
        <ele>5.18</ele>
        <time>2020-07-10T13:16:32Z</time>
      </trkpt>
      <trkpt lat="47.80548" lon="-3.51851">
        <ele>5.29</ele>
        <time>2020-07-10T13:16:33Z</time>
      </trkpt>
      <trkpt lat="47.80548" lon="-3.51848">
        <ele>5.34</ele>
        <time>2020-07-10T13:16:34Z</time>
      </trkpt>
      <trkpt lat="47.80548" lon="-3.51846">
        <ele>5.41</ele>
        <time>2020-07-10T13:16:35Z</time>
      </trkpt>
      <trkpt lat="47.80549" lon="-3.51844">
        <ele>5.46</ele>
        <time>2020-07-10T13:16:36Z</time>
      </trkpt>
      <trkpt lat="47.80549" lon="-3.51841">
        <ele>5.55</ele>
        <time>2020-07-10T13:16:37Z</time>
      </trkpt>
      <trkpt lat="47.8055" lon="-3.5184">
        <ele>5.67</ele>
        <time>2020-07-10T13:16:38Z</time>
      </trkpt>
      <trkpt lat="47.8055" lon="-3.51838">
        <ele>5.79</ele>
        <time>2020-07-10T13:16:39Z</time>
      </trkpt>
      <trkpt lat="47.80551" lon="-3.51836">
        <ele>5.95</ele>
        <time>2020-07-10T13:16:40Z</time>
      </trkpt>
      <trkpt lat="47.80551" lon="-3.51834">
        <ele>5.97</ele>
        <time>2020-07-10T13:16:41Z</time>
      </trkpt>
      <trkpt lat="47.8055" lon="-3.51831">
        <ele>5.94</ele>
        <time>2020-07-10T13:16:42Z</time>
      </trkpt>
      <trkpt lat="47.8055" lon="-3.51829">
        <ele>6.03</ele>
        <time>2020-07-10T13:16:43Z</time>
      </trkpt>
      <trkpt lat="47.8055" lon="-3.51826">
        <ele>6.19</ele>
        <time>2020-07-10T13:16:44Z</time>
      </trkpt>
      <trkpt lat="47.80551" lon="-3.51825">
        <ele>6.46</ele>
        <time>2020-07-10T13:16:45Z</time>
      </trkpt>
      <trkpt lat="47.80552" lon="-3.51824">
        <ele>6.68</ele>
        <time>2020-07-10T13:16:46Z</time>
      </trkpt>
      <trkpt lat="47.80552" lon="-3.51821">
        <ele>6.93</ele>
        <time>2020-07-10T13:16:47Z</time>
      </trkpt>
      <trkpt lat="47.80552" lon="-3.51818">
        <ele>7.22</ele>
        <time>2020-07-10T13:16:48Z</time>
      </trkpt>
      <trkpt lat="47.80552" lon="-3.51814">
        <ele>7.52</ele>
        <time>2020-07-10T13:16:49Z</time>
      </trkpt>
      <trkpt lat="47.80553" lon="-3.5181">
        <ele>7.85</ele>
        <time>2020-07-10T13:16:50Z</time>
      </trkpt>
      <trkpt lat="47.80552" lon="-3.51807">
        <ele>8.05</ele>
        <time>2020-07-10T13:16:51Z</time>
      </trkpt>
      <trkpt lat="47.80552" lon="-3.51803">
        <ele>8.22</ele>
        <time>2020-07-10T13:16:52Z</time>
      </trkpt>
      <trkpt lat="47.80551" lon="-3.518">
        <ele>8.32</ele>
        <time>2020-07-10T13:16:53Z</time>
      </trkpt>
      <trkpt lat="47.8055" lon="-3.51797">
        <ele>8.36</ele>
        <time>2020-07-10T13:16:54Z</time>
      </trkpt>
      <trkpt lat="47.80549" lon="-3.51793">
        <ele>8.38</ele>
        <time>2020-07-10T13:16:55Z</time>
      </trkpt>
      <trkpt lat="47.80548" lon="-3.5179">
        <ele>8.41</ele>
        <time>2020-07-10T13:16:56Z</time>
      </trkpt>
      <trkpt lat="47.80547" lon="-3.51786">
        <ele>8.49</ele>
        <time>2020-07-10T13:16:57Z</time>
      </trkpt>
      <trkpt lat="47.80546" lon="-3.51782">
        <ele>8.45</ele>
        <time>2020-07-10T13:16:58Z</time>
      </trkpt>
      <trkpt lat="47.80544" lon="-3.51778">
        <ele>8.34</ele>
        <time>2020-07-10T13:16:59Z</time>
      </trkpt>
      <trkpt lat="47.80542" lon="-3.51774">
        <ele>8.12</ele>
        <time>2020-07-10T13:17:00Z</time>
      </trkpt>
      <trkpt lat="47.80541" lon="-3.51771">
        <ele>8.03</ele>
        <time>2020-07-10T13:17:01Z</time>
      </trkpt>
      <trkpt lat="47.8054" lon="-3.51765">
        <ele>8.03</ele>
        <time>2020-07-10T13:17:02Z</time>
      </trkpt>
      <trkpt lat="47.80539" lon="-3.51761">
        <ele>7.97</ele>
        <time>2020-07-10T13:17:03Z</time>
      </trkpt>
      <trkpt lat="47.80536" lon="-3.51756">
        <ele>7.72</ele>
        <time>2020-07-10T13:17:04Z</time>
      </trkpt>
      <trkpt lat="47.80535" lon="-3.51751">
        <ele>7.48</ele>
        <time>2020-07-10T13:17:05Z</time>
      </trkpt>
      <trkpt lat="47.80533" lon="-3.51746">
        <ele>7.31</ele>
        <time>2020-07-10T13:17:06Z</time>
      </trkpt>
      <trkpt lat="47.80532" lon="-3.51742">
        <ele>7.35</ele>
        <time>2020-07-10T13:17:07Z</time>
      </trkpt>
      <trkpt lat="47.80531" lon="-3.51737">
        <ele>7.42</ele>
        <time>2020-07-10T13:17:08Z</time>
      </trkpt>
      <trkpt lat="47.8053" lon="-3.51734">
        <ele>7.6</ele>
        <time>2020-07-10T13:17:09Z</time>
      </trkpt>
      <trkpt lat="47.80529" lon="-3.51729">
        <ele>7.58</ele>
        <time>2020-07-10T13:17:10Z</time>
      </trkpt>
      <trkpt lat="47.80529" lon="-3.51726">
        <ele>7.77</ele>
        <time>2020-07-10T13:17:11Z</time>
      </trkpt>
      <trkpt lat="47.80529" lon="-3.51723">
        <ele>8.26</ele>
        <time>2020-07-10T13:17:12Z</time>
      </trkpt>
      <trkpt lat="47.8053" lon="-3.5172">
        <ele>8.87</ele>
        <time>2020-07-10T13:17:13Z</time>
      </trkpt>
      <trkpt lat="47.80531" lon="-3.51717">
        <ele>9.47</ele>
        <time>2020-07-10T13:17:14Z</time>
      </trkpt>
      <trkpt lat="47.8053" lon="-3.51714">
        <ele>9.85</ele>
        <time>2020-07-10T13:17:15Z</time>
      </trkpt>
      <trkpt lat="47.8053" lon="-3.5171">
        <ele>10.26</ele>
        <time>2020-07-10T13:17:16Z</time>
      </trkpt>
      <trkpt lat="47.8053" lon="-3.51707">
        <ele>10.47</ele>
        <time>2020-07-10T13:17:17Z</time>
      </trkpt>
      <trkpt lat="47.8053" lon="-3.51704">
        <ele>10.96</ele>
        <time>2020-07-10T13:17:18Z</time>
      </trkpt>
      <trkpt lat="47.8053" lon="-3.51701">
        <ele>11.15</ele>
        <time>2020-07-10T13:17:19Z</time>
      </trkpt>
      <trkpt lat="47.8053" lon="-3.51699">
        <ele>11.48</ele>
        <time>2020-07-10T13:17:20Z</time>
      </trkpt>
      <trkpt lat="47.8053" lon="-3.51696">
        <ele>11.68</ele>
        <time>2020-07-10T13:17:21Z</time>
      </trkpt>
      <trkpt lat="47.80529" lon="-3.51693">
        <ele>11.59</ele>
        <time>2020-07-10T13:17:22Z</time>
      </trkpt>
      <trkpt lat="47.80529" lon="-3.5169">
        <ele>11.86</ele>
        <time>2020-07-10T13:17:23Z</time>
      </trkpt>
      <trkpt lat="47.80527" lon="-3.51687">
        <ele>11.89</ele>
        <time>2020-07-10T13:17:24Z</time>
      </trkpt>
      <trkpt lat="47.80527" lon="-3.51684">
        <ele>12.13</ele>
        <time>2020-07-10T13:17:25Z</time>
      </trkpt>
      <trkpt lat="47.80526" lon="-3.51681">
        <ele>12.37</ele>
        <time>2020-07-10T13:17:26Z</time>
      </trkpt>
      <trkpt lat="47.80525" lon="-3.51679">
        <ele>12.35</ele>
        <time>2020-07-10T13:17:27Z</time>
      </trkpt>
      <trkpt lat="47.80524" lon="-3.51677">
        <ele>12.31</ele>
        <time>2020-07-10T13:17:28Z</time>
      </trkpt>
      <trkpt lat="47.80524" lon="-3.51673">
        <ele>12.72</ele>
        <time>2020-07-10T13:17:29Z</time>
      </trkpt>
      <trkpt lat="47.80523" lon="-3.51669">
        <ele>12.88</ele>
        <time>2020-07-10T13:17:30Z</time>
      </trkpt>
      <trkpt lat="47.80522" lon="-3.51666">
        <ele>13.01</ele>
        <time>2020-07-10T13:17:31Z</time>
      </trkpt>
      <trkpt lat="47.8052" lon="-3.51662">
        <ele>12.86</ele>
        <time>2020-07-10T13:17:32Z</time>
      </trkpt>
      <trkpt lat="47.80519" lon="-3.5166">
        <ele>12.75</ele>
        <time>2020-07-10T13:17:33Z</time>
      </trkpt>
      <trkpt lat="47.80518" lon="-3.51657">
        <ele>12.67</ele>
        <time>2020-07-10T13:17:34Z</time>
      </trkpt>
      <trkpt lat="47.8052" lon="-3.51657">
        <ele>13.31</ele>
        <time>2020-07-10T13:17:35Z</time>
      </trkpt>
      <trkpt lat="47.80519" lon="-3.51654">
        <ele>13.2</ele>
        <time>2020-07-10T13:17:36Z</time>
      </trkpt>
      <trkpt lat="47.80518" lon="-3.51651">
        <ele>13.19</ele>
        <time>2020-07-10T13:17:37Z</time>
      </trkpt>
      <trkpt lat="47.80516" lon="-3.51646">
        <ele>13.25</ele>
        <time>2020-07-10T13:17:38Z</time>
      </trkpt>
      <trkpt lat="47.8052" lon="-3.51639">
        <ele>14.79</ele>
        <time>2020-07-10T13:17:39Z</time>
      </trkpt>
      <trkpt lat="47.80519" lon="-3.51637">
        <ele>15.17</ele>
        <time>2020-07-10T13:17:40Z</time>
      </trkpt>
      <trkpt lat="47.80518" lon="-3.51633">
        <ele>15.42</ele>
        <time>2020-07-10T13:17:41Z</time>
      </trkpt>
      <trkpt lat="47.80518" lon="-3.51633">
        <ele>15.43</ele>
        <time>2020-07-10T13:17:42Z</time>
      </trkpt>
      <trkpt lat="47.80518" lon="-3.51632">
        <ele>15.6</ele>
        <time>2020-07-10T13:17:43Z</time>
      </trkpt>
      <trkpt lat="47.80518" lon="-3.51632">
        <ele>15.65</ele>
        <time>2020-07-10T13:17:44Z</time>
      </trkpt>
      <trkpt lat="47.80518" lon="-3.51632">
        <ele>15.66</ele>
        <time>2020-07-10T13:17:45Z</time>
      </trkpt>
      <trkpt lat="47.80518" lon="-3.51632">
        <ele>15.67</ele>
        <time>2020-07-10T13:17:46Z</time>
      </trkpt>
      <trkpt lat="47.80518" lon="-3.51632">
        <ele>15.67</ele>
        <time>2020-07-10T13:17:47Z</time>
      </trkpt>
      <trkpt lat="47.80512" lon="-3.51628">
        <ele>14.1</ele>
        <time>2020-07-10T13:17:48Z</time>
      </trkpt>
      <trkpt lat="47.80509" lon="-3.51627">
        <ele>12.53</ele>
        <time>2020-07-10T13:17:49Z</time>
      </trkpt>
      <trkpt lat="47.80507" lon="-3.51628">
        <ele>11.42</ele>
        <time>2020-07-10T13:17:50Z</time>
      </trkpt>
      <trkpt lat="47.80506" lon="-3.51628">
        <ele>10.63</ele>
        <time>2020-07-10T13:17:51Z</time>
      </trkpt>
      <trkpt lat="47.80504" lon="-3.51628">
        <ele>10</ele>
        <time>2020-07-10T13:17:52Z</time>
      </trkpt>
      <trkpt lat="47.80503" lon="-3.51628">
        <ele>9.3</ele>
        <time>2020-07-10T13:17:53Z</time>
      </trkpt>
      <trkpt lat="47.80502" lon="-3.51628">
        <ele>8.92</ele>
        <time>2020-07-10T13:17:54Z</time>
      </trkpt>
      <trkpt lat="47.80502" lon="-3.51628">
        <ele>8.74</ele>
        <time>2020-07-10T13:17:55Z</time>
      </trkpt>
      <trkpt lat="47.80502" lon="-3.51628">
        <ele>8.69</ele>
        <time>2020-07-10T13:17:56Z</time>
      </trkpt>
      <trkpt lat="47.80502" lon="-3.51628">
        <ele>8.67</ele>
        <time>2020-07-10T13:17:57Z</time>
      </trkpt>
      <trkpt lat="47.80502" lon="-3.51628">
        <ele>8.67</ele>
        <time>2020-07-10T13:17:58Z</time>
      </trkpt>
      <trkpt lat="47.80502" lon="-3.51628">
        <ele>8.67</ele>
        <time>2020-07-10T13:17:59Z</time>
      </trkpt>
      <trkpt lat="47.80502" lon="-3.51628">
        <ele>8.67</ele>
        <time>2020-07-10T13:18:00Z</time>
      </trkpt>
      <trkpt lat="47.80502" lon="-3.51628">
        <ele>8.67</ele>
        <time>2020-07-10T13:18:01Z</time>
      </trkpt>
      <trkpt lat="47.80495" lon="-3.51631">
        <ele>7.78</ele>
        <time>2020-07-10T13:18:02Z</time>
      </trkpt>
      <trkpt lat="47.80493" lon="-3.51631">
        <ele>7.45</ele>
        <time>2020-07-10T13:18:03Z</time>
      </trkpt>
      <trkpt lat="47.80489" lon="-3.51631">
        <ele>7.24</ele>
        <time>2020-07-10T13:18:04Z</time>
      </trkpt>
      <trkpt lat="47.80487" lon="-3.51633">
        <ele>7.04</ele>
        <time>2020-07-10T13:18:05Z</time>
      </trkpt>
      <trkpt lat="47.80485" lon="-3.51636">
        <ele>6.79</ele>
        <time>2020-07-10T13:18:06Z</time>
      </trkpt>
      <trkpt lat="47.80483" lon="-3.51638">
        <ele>6.54</ele>
        <time>2020-07-10T13:18:07Z</time>
      </trkpt>
      <trkpt lat="47.80481" lon="-3.5164">
        <ele>6.37</ele>
        <time>2020-07-10T13:18:08Z</time>
      </trkpt>
      <trkpt lat="47.8048" lon="-3.51642">
        <ele>6.25</ele>
        <time>2020-07-10T13:18:09Z</time>
      </trkpt>
      <trkpt lat="47.80478" lon="-3.51645">
        <ele>6.15</ele>
        <time>2020-07-10T13:18:10Z</time>
      </trkpt>
      <trkpt lat="47.80476" lon="-3.51647">
        <ele>6.08</ele>
        <time>2020-07-10T13:18:11Z</time>
      </trkpt>
      <trkpt lat="47.80474" lon="-3.51648">
        <ele>6.04</ele>
        <time>2020-07-10T13:18:12Z</time>
      </trkpt>
      <trkpt lat="47.80473" lon="-3.51649">
        <ele>6.02</ele>
        <time>2020-07-10T13:18:13Z</time>
      </trkpt>
      <trkpt lat="47.80473" lon="-3.5165">
        <ele>6.01</ele>
        <time>2020-07-10T13:18:14Z</time>
      </trkpt>
      <trkpt lat="47.80473" lon="-3.5165">
        <ele>6.01</ele>
        <time>2020-07-10T13:18:15Z</time>
      </trkpt>
      <trkpt lat="47.80473" lon="-3.5165">
        <ele>6</ele>
        <time>2020-07-10T13:18:16Z</time>
      </trkpt>
      <trkpt lat="47.80473" lon="-3.5165">
        <ele>6</ele>
        <time>2020-07-10T13:18:17Z</time>
      </trkpt>
      <trkpt lat="47.80473" lon="-3.5165">
        <ele>6</ele>
        <time>2020-07-10T13:18:18Z</time>
      </trkpt>
      <trkpt lat="47.80473" lon="-3.5165">
        <ele>6</ele>
        <time>2020-07-10T13:18:19Z</time>
      </trkpt>
      <trkpt lat="47.80473" lon="-3.5165">
        <ele>6</ele>
        <time>2020-07-10T13:18:20Z</time>
      </trkpt>
      <trkpt lat="47.80473" lon="-3.5165">
        <ele>6</ele>
        <time>2020-07-10T13:18:21Z</time>
      </trkpt>
      <trkpt lat="47.80473" lon="-3.5165">
        <ele>6</ele>
        <time>2020-07-10T13:18:22Z</time>
      </trkpt>
      <trkpt lat="47.80473" lon="-3.5165">
        <ele>6</ele>
        <time>2020-07-10T13:18:23Z</time>
      </trkpt>
      <trkpt lat="47.80473" lon="-3.5165">
        <ele>6</ele>
        <time>2020-07-10T13:18:24Z</time>
      </trkpt>
      <trkpt lat="47.80473" lon="-3.5165">
        <ele>6</ele>
        <time>2020-07-10T13:18:25Z</time>
      </trkpt>
      <trkpt lat="47.80473" lon="-3.5165">
        <ele>6</ele>
        <time>2020-07-10T13:18:26Z</time>
      </trkpt>
      <trkpt lat="47.80473" lon="-3.5165">
        <ele>6</ele>
        <time>2020-07-10T13:18:27Z</time>
      </trkpt>
      <trkpt lat="47.80473" lon="-3.5165">
        <ele>6</ele>
        <time>2020-07-10T13:18:28Z</time>
      </trkpt>
      <trkpt lat="47.80473" lon="-3.5165">
        <ele>6</ele>
        <time>2020-07-10T13:18:29Z</time>
      </trkpt>
      <trkpt lat="47.80473" lon="-3.5165">
        <ele>6</ele>
        <time>2020-07-10T13:18:30Z</time>
      </trkpt>
      <trkpt lat="47.80473" lon="-3.5165">
        <ele>6</ele>
        <time>2020-07-10T13:18:31Z</time>
      </trkpt>
      <trkpt lat="47.80473" lon="-3.5165">
        <ele>6</ele>
        <time>2020-07-10T13:18:32Z</time>
      </trkpt>
      <trkpt lat="47.80473" lon="-3.5165">
        <ele>6</ele>
        <time>2020-07-10T13:18:33Z</time>
      </trkpt>
      <trkpt lat="47.80473" lon="-3.5165">
        <ele>6</ele>
        <time>2020-07-10T13:18:34Z</time>
      </trkpt>
      <trkpt lat="47.80473" lon="-3.5165">
        <ele>6</ele>
        <time>2020-07-10T13:18:35Z</time>
      </trkpt>
      <trkpt lat="47.80473" lon="-3.5165">
        <ele>6</ele>
        <time>2020-07-10T13:18:36Z</time>
      </trkpt>
      <trkpt lat="47.80473" lon="-3.5165">
        <ele>6</ele>
        <time>2020-07-10T13:18:37Z</time>
      </trkpt>
      <trkpt lat="47.80473" lon="-3.5165">
        <ele>6</ele>
        <time>2020-07-10T13:18:38Z</time>
      </trkpt>
      <trkpt lat="47.80473" lon="-3.5165">
        <ele>6</ele>
        <time>2020-07-10T13:18:39Z</time>
      </trkpt>
      <trkpt lat="47.80473" lon="-3.5165">
        <ele>6</ele>
        <time>2020-07-10T13:18:40Z</time>
      </trkpt>
      <trkpt lat="47.80473" lon="-3.5165">
        <ele>6</ele>
        <time>2020-07-10T13:18:41Z</time>
      </trkpt>
      <trkpt lat="47.80473" lon="-3.5165">
        <ele>6</ele>
        <time>2020-07-10T13:18:42Z</time>
      </trkpt>
      <trkpt lat="47.80473" lon="-3.5165">
        <ele>6</ele>
        <time>2020-07-10T13:18:43Z</time>
      </trkpt>
      <trkpt lat="47.80473" lon="-3.5165">
        <ele>6</ele>
        <time>2020-07-10T13:18:44Z</time>
      </trkpt>
      <trkpt lat="47.80473" lon="-3.5165">
        <ele>6</ele>
        <time>2020-07-10T13:18:45Z</time>
      </trkpt>
      <trkpt lat="47.80473" lon="-3.5165">
        <ele>6</ele>
        <time>2020-07-10T13:18:46Z</time>
      </trkpt>
      <trkpt lat="47.80473" lon="-3.5165">
        <ele>6</ele>
        <time>2020-07-10T13:18:47Z</time>
      </trkpt>
      <trkpt lat="47.80473" lon="-3.5165">
        <ele>6</ele>
        <time>2020-07-10T13:18:48Z</time>
      </trkpt>
      <trkpt lat="47.80473" lon="-3.5165">
        <ele>6</ele>
        <time>2020-07-10T13:18:49Z</time>
      </trkpt>
      <trkpt lat="47.80473" lon="-3.5165">
        <ele>6</ele>
        <time>2020-07-10T13:18:50Z</time>
      </trkpt>
      <trkpt lat="47.80473" lon="-3.5165">
        <ele>6</ele>
        <time>2020-07-10T13:18:51Z</time>
      </trkpt>
      <trkpt lat="47.80473" lon="-3.5165">
        <ele>6</ele>
        <time>2020-07-10T13:18:52Z</time>
      </trkpt>
      <trkpt lat="47.80473" lon="-3.5165">
        <ele>6</ele>
        <time>2020-07-10T13:18:53Z</time>
      </trkpt>
      <trkpt lat="47.80473" lon="-3.5165">
        <ele>6</ele>
        <time>2020-07-10T13:18:54Z</time>
      </trkpt>
      <trkpt lat="47.80473" lon="-3.5165">
        <ele>6</ele>
        <time>2020-07-10T13:18:55Z</time>
      </trkpt>
      <trkpt lat="47.80473" lon="-3.5165">
        <ele>6</ele>
        <time>2020-07-10T13:18:56Z</time>
      </trkpt>
      <trkpt lat="47.80473" lon="-3.5165">
        <ele>6</ele>
        <time>2020-07-10T13:18:57Z</time>
      </trkpt>
      <trkpt lat="47.80473" lon="-3.5165">
        <ele>6</ele>
        <time>2020-07-10T13:18:58Z</time>
      </trkpt>
      <trkpt lat="47.80473" lon="-3.5165">
        <ele>6</ele>
        <time>2020-07-10T13:18:59Z</time>
      </trkpt>
      <trkpt lat="47.80473" lon="-3.5165">
        <ele>6</ele>
        <time>2020-07-10T13:19:00Z</time>
      </trkpt>
      <trkpt lat="47.80473" lon="-3.5165">
        <ele>6</ele>
        <time>2020-07-10T13:19:01Z</time>
      </trkpt>
      <trkpt lat="47.80473" lon="-3.5165">
        <ele>6</ele>
        <time>2020-07-10T13:19:02Z</time>
      </trkpt>
      <trkpt lat="47.80473" lon="-3.5165">
        <ele>6</ele>
        <time>2020-07-10T13:19:03Z</time>
      </trkpt>
      <trkpt lat="47.80473" lon="-3.5165">
        <ele>6</ele>
        <time>2020-07-10T13:19:04Z</time>
      </trkpt>
      <trkpt lat="47.80473" lon="-3.5165">
        <ele>6</ele>
        <time>2020-07-10T13:19:05Z</time>
      </trkpt>
      <trkpt lat="47.80473" lon="-3.5165">
        <ele>6</ele>
        <time>2020-07-10T13:19:06Z</time>
      </trkpt>
      <trkpt lat="47.80473" lon="-3.5165">
        <ele>6</ele>
        <time>2020-07-10T13:19:07Z</time>
      </trkpt>
      <trkpt lat="47.80473" lon="-3.5165">
        <ele>6</ele>
        <time>2020-07-10T13:19:08Z</time>
      </trkpt>
      <trkpt lat="47.80473" lon="-3.5165">
        <ele>6</ele>
        <time>2020-07-10T13:19:09Z</time>
      </trkpt>
      <trkpt lat="47.80473" lon="-3.5165">
        <ele>6</ele>
        <time>2020-07-10T13:19:10Z</time>
      </trkpt>
      <trkpt lat="47.80473" lon="-3.5165">
        <ele>6</ele>
        <time>2020-07-10T13:19:11Z</time>
      </trkpt>
      <trkpt lat="47.80473" lon="-3.5165">
        <ele>6</ele>
        <time>2020-07-10T13:19:12Z</time>
      </trkpt>
      <trkpt lat="47.80473" lon="-3.5165">
        <ele>6</ele>
        <time>2020-07-10T13:19:13Z</time>
      </trkpt>
      <trkpt lat="47.80473" lon="-3.5165">
        <ele>6</ele>
        <time>2020-07-10T13:19:14Z</time>
      </trkpt>
      <trkpt lat="47.80473" lon="-3.5165">
        <ele>6</ele>
        <time>2020-07-10T13:19:15Z</time>
      </trkpt>
      <trkpt lat="47.80465" lon="-3.51657">
        <ele>7.45</ele>
        <time>2020-07-10T13:19:16Z</time>
      </trkpt>
      <trkpt lat="47.80465" lon="-3.51656">
        <ele>7.89</ele>
        <time>2020-07-10T13:19:17Z</time>
      </trkpt>
      <trkpt lat="47.80465" lon="-3.51656">
        <ele>8.02</ele>
        <time>2020-07-10T13:19:18Z</time>
      </trkpt>
      <trkpt lat="47.80465" lon="-3.51656">
        <ele>7.96</ele>
        <time>2020-07-10T13:19:19Z</time>
      </trkpt>
      <trkpt lat="47.80465" lon="-3.51656">
        <ele>7.94</ele>
        <time>2020-07-10T13:19:20Z</time>
      </trkpt>
      <trkpt lat="47.80465" lon="-3.51656">
        <ele>7.94</ele>
        <time>2020-07-10T13:19:21Z</time>
      </trkpt>
      <trkpt lat="47.80465" lon="-3.51656">
        <ele>7.94</ele>
        <time>2020-07-10T13:19:22Z</time>
      </trkpt>
      <trkpt lat="47.80465" lon="-3.51656">
        <ele>7.93</ele>
        <time>2020-07-10T13:19:23Z</time>
      </trkpt>
      <trkpt lat="47.80465" lon="-3.51656">
        <ele>7.93</ele>
        <time>2020-07-10T13:19:24Z</time>
      </trkpt>
      <trkpt lat="47.80465" lon="-3.51656">
        <ele>7.93</ele>
        <time>2020-07-10T13:19:25Z</time>
      </trkpt>
      <trkpt lat="47.80465" lon="-3.51656">
        <ele>7.93</ele>
        <time>2020-07-10T13:19:26Z</time>
      </trkpt>
      <trkpt lat="47.80465" lon="-3.51656">
        <ele>7.93</ele>
        <time>2020-07-10T13:19:27Z</time>
      </trkpt>
      <trkpt lat="47.80465" lon="-3.51656">
        <ele>7.93</ele>
        <time>2020-07-10T13:19:28Z</time>
      </trkpt>
      <trkpt lat="47.80465" lon="-3.51656">
        <ele>7.93</ele>
        <time>2020-07-10T13:19:29Z</time>
      </trkpt>
      <trkpt lat="47.80465" lon="-3.51656">
        <ele>7.93</ele>
        <time>2020-07-10T13:19:30Z</time>
      </trkpt>
      <trkpt lat="47.80465" lon="-3.51656">
        <ele>7.93</ele>
        <time>2020-07-10T13:19:31Z</time>
      </trkpt>
      <trkpt lat="47.80465" lon="-3.51656">
        <ele>7.93</ele>
        <time>2020-07-10T13:19:32Z</time>
      </trkpt>
      <trkpt lat="47.80465" lon="-3.51656">
        <ele>7.93</ele>
        <time>2020-07-10T13:19:33Z</time>
      </trkpt>
      <trkpt lat="47.80465" lon="-3.51656">
        <ele>7.93</ele>
        <time>2020-07-10T13:19:34Z</time>
      </trkpt>
      <trkpt lat="47.80465" lon="-3.51656">
        <ele>7.93</ele>
        <time>2020-07-10T13:19:35Z</time>
      </trkpt>
      <trkpt lat="47.80465" lon="-3.51656">
        <ele>7.93</ele>
        <time>2020-07-10T13:19:36Z</time>
      </trkpt>
      <trkpt lat="47.80465" lon="-3.51656">
        <ele>7.93</ele>
        <time>2020-07-10T13:19:37Z</time>
      </trkpt>
      <trkpt lat="47.80465" lon="-3.51656">
        <ele>7.93</ele>
        <time>2020-07-10T13:19:38Z</time>
      </trkpt>
      <trkpt lat="47.80465" lon="-3.51656">
        <ele>7.93</ele>
        <time>2020-07-10T13:19:39Z</time>
      </trkpt>
      <trkpt lat="47.80465" lon="-3.51656">
        <ele>7.93</ele>
        <time>2020-07-10T13:19:40Z</time>
      </trkpt>
      <trkpt lat="47.80465" lon="-3.51656">
        <ele>7.93</ele>
        <time>2020-07-10T13:19:41Z</time>
      </trkpt>
      <trkpt lat="47.80465" lon="-3.51656">
        <ele>7.93</ele>
        <time>2020-07-10T13:19:42Z</time>
      </trkpt>
      <trkpt lat="47.80465" lon="-3.51656">
        <ele>7.93</ele>
        <time>2020-07-10T13:19:43Z</time>
      </trkpt>
      <trkpt lat="47.80465" lon="-3.51656">
        <ele>7.93</ele>
        <time>2020-07-10T13:19:44Z</time>
      </trkpt>
      <trkpt lat="47.80465" lon="-3.51656">
        <ele>7.93</ele>
        <time>2020-07-10T13:19:45Z</time>
      </trkpt>
      <trkpt lat="47.80456" lon="-3.51659">
        <ele>9.7</ele>
        <time>2020-07-10T13:19:46Z</time>
      </trkpt>
      <trkpt lat="47.80456" lon="-3.51659">
        <ele>10.33</ele>
        <time>2020-07-10T13:19:47Z</time>
      </trkpt>
      <trkpt lat="47.80456" lon="-3.5166">
        <ele>10.5</ele>
        <time>2020-07-10T13:19:48Z</time>
      </trkpt>
      <trkpt lat="47.80456" lon="-3.5166">
        <ele>10.52</ele>
        <time>2020-07-10T13:19:49Z</time>
      </trkpt>
      <trkpt lat="47.80456" lon="-3.5166">
        <ele>10.52</ele>
        <time>2020-07-10T13:19:50Z</time>
      </trkpt>
      <trkpt lat="47.80456" lon="-3.5166">
        <ele>10.52</ele>
        <time>2020-07-10T13:19:51Z</time>
      </trkpt>
      <trkpt lat="47.80456" lon="-3.5166">
        <ele>10.52</ele>
        <time>2020-07-10T13:19:52Z</time>
      </trkpt>
      <trkpt lat="47.80456" lon="-3.5166">
        <ele>10.52</ele>
        <time>2020-07-10T13:19:53Z</time>
      </trkpt>
      <trkpt lat="47.80456" lon="-3.5166">
        <ele>10.52</ele>
        <time>2020-07-10T13:19:54Z</time>
      </trkpt>
      <trkpt lat="47.80456" lon="-3.5166">
        <ele>10.52</ele>
        <time>2020-07-10T13:19:55Z</time>
      </trkpt>
      <trkpt lat="47.80456" lon="-3.5166">
        <ele>10.52</ele>
        <time>2020-07-10T13:19:56Z</time>
      </trkpt>
      <trkpt lat="47.80456" lon="-3.5166">
        <ele>10.52</ele>
        <time>2020-07-10T13:19:57Z</time>
      </trkpt>
      <trkpt lat="47.80456" lon="-3.5166">
        <ele>10.52</ele>
        <time>2020-07-10T13:19:58Z</time>
      </trkpt>
      <trkpt lat="47.80456" lon="-3.5166">
        <ele>10.52</ele>
        <time>2020-07-10T13:19:59Z</time>
      </trkpt>
      <trkpt lat="47.80456" lon="-3.5166">
        <ele>10.52</ele>
        <time>2020-07-10T13:20:00Z</time>
      </trkpt>
      <trkpt lat="47.80456" lon="-3.5166">
        <ele>10.52</ele>
        <time>2020-07-10T13:20:01Z</time>
      </trkpt>
      <trkpt lat="47.80456" lon="-3.5166">
        <ele>10.52</ele>
        <time>2020-07-10T13:20:02Z</time>
      </trkpt>
      <trkpt lat="47.80456" lon="-3.5166">
        <ele>10.52</ele>
        <time>2020-07-10T13:20:03Z</time>
      </trkpt>
      <trkpt lat="47.80452" lon="-3.51659">
        <ele>11.3</ele>
        <time>2020-07-10T13:20:04Z</time>
      </trkpt>
      <trkpt lat="47.80452" lon="-3.51657">
        <ele>11.56</ele>
        <time>2020-07-10T13:20:05Z</time>
      </trkpt>
      <trkpt lat="47.80451" lon="-3.51655">
        <ele>11.73</ele>
        <time>2020-07-10T13:20:06Z</time>
      </trkpt>
      <trkpt lat="47.80451" lon="-3.51655">
        <ele>11.7</ele>
        <time>2020-07-10T13:20:07Z</time>
      </trkpt>
      <trkpt lat="47.80452" lon="-3.51654">
        <ele>11.61</ele>
        <time>2020-07-10T13:20:08Z</time>
      </trkpt>
      <trkpt lat="47.80451" lon="-3.51652">
        <ele>11.59</ele>
        <time>2020-07-10T13:20:09Z</time>
      </trkpt>
      <trkpt lat="47.80452" lon="-3.51651">
        <ele>11.53</ele>
        <time>2020-07-10T13:20:10Z</time>
      </trkpt>
      <trkpt lat="47.80452" lon="-3.51651">
        <ele>11.51</ele>
        <time>2020-07-10T13:20:11Z</time>
      </trkpt>
      <trkpt lat="47.80452" lon="-3.51651">
        <ele>11.51</ele>
        <time>2020-07-10T13:20:12Z</time>
      </trkpt>
      <trkpt lat="47.80452" lon="-3.51651">
        <ele>11.51</ele>
        <time>2020-07-10T13:20:13Z</time>
      </trkpt>
      <trkpt lat="47.80452" lon="-3.51651">
        <ele>11.51</ele>
        <time>2020-07-10T13:20:14Z</time>
      </trkpt>
      <trkpt lat="47.80452" lon="-3.51651">
        <ele>11.51</ele>
        <time>2020-07-10T13:20:15Z</time>
      </trkpt>
      <trkpt lat="47.80452" lon="-3.51651">
        <ele>11.51</ele>
        <time>2020-07-10T13:20:16Z</time>
      </trkpt>
      <trkpt lat="47.80452" lon="-3.51651">
        <ele>11.51</ele>
        <time>2020-07-10T13:20:17Z</time>
      </trkpt>
      <trkpt lat="47.80452" lon="-3.51651">
        <ele>11.51</ele>
        <time>2020-07-10T13:20:18Z</time>
      </trkpt>
      <trkpt lat="47.80452" lon="-3.51651">
        <ele>11.51</ele>
        <time>2020-07-10T13:20:19Z</time>
      </trkpt>
      <trkpt lat="47.80452" lon="-3.51651">
        <ele>11.51</ele>
        <time>2020-07-10T13:20:20Z</time>
      </trkpt>
      <trkpt lat="47.80452" lon="-3.51651">
        <ele>11.51</ele>
        <time>2020-07-10T13:20:21Z</time>
      </trkpt>
      <trkpt lat="47.80452" lon="-3.51651">
        <ele>11.51</ele>
        <time>2020-07-10T13:20:22Z</time>
      </trkpt>
      <trkpt lat="47.80452" lon="-3.51651">
        <ele>11.51</ele>
        <time>2020-07-10T13:20:23Z</time>
      </trkpt>
      <trkpt lat="47.80452" lon="-3.51651">
        <ele>11.51</ele>
        <time>2020-07-10T13:20:24Z</time>
      </trkpt>
      <trkpt lat="47.80452" lon="-3.51651">
        <ele>11.51</ele>
        <time>2020-07-10T13:20:25Z</time>
      </trkpt>
      <trkpt lat="47.80452" lon="-3.51651">
        <ele>11.51</ele>
        <time>2020-07-10T13:20:26Z</time>
      </trkpt>
      <trkpt lat="47.80452" lon="-3.51651">
        <ele>11.51</ele>
        <time>2020-07-10T13:20:27Z</time>
      </trkpt>
      <trkpt lat="47.80452" lon="-3.51651">
        <ele>11.51</ele>
        <time>2020-07-10T13:20:28Z</time>
      </trkpt>
      <trkpt lat="47.80452" lon="-3.51651">
        <ele>11.51</ele>
        <time>2020-07-10T13:20:29Z</time>
      </trkpt>
      <trkpt lat="47.80452" lon="-3.51651">
        <ele>11.51</ele>
        <time>2020-07-10T13:20:30Z</time>
      </trkpt>
      <trkpt lat="47.80454" lon="-3.51638">
        <ele>10.79</ele>
        <time>2020-07-10T13:20:31Z</time>
      </trkpt>
      <trkpt lat="47.80454" lon="-3.51637">
        <ele>10.77</ele>
        <time>2020-07-10T13:20:32Z</time>
      </trkpt>
      <trkpt lat="47.80452" lon="-3.51635">
        <ele>11.08</ele>
        <time>2020-07-10T13:20:33Z</time>
      </trkpt>
      <trkpt lat="47.80451" lon="-3.51633">
        <ele>11.49</ele>
        <time>2020-07-10T13:20:34Z</time>
      </trkpt>
      <trkpt lat="47.8045" lon="-3.51631">
        <ele>11.75</ele>
        <time>2020-07-10T13:20:35Z</time>
      </trkpt>
      <trkpt lat="47.8045" lon="-3.51628">
        <ele>12.02</ele>
        <time>2020-07-10T13:20:36Z</time>
      </trkpt>
      <trkpt lat="47.8045" lon="-3.51626">
        <ele>12.15</ele>
        <time>2020-07-10T13:20:37Z</time>
      </trkpt>
      <trkpt lat="47.8045" lon="-3.51624">
        <ele>12.23</ele>
        <time>2020-07-10T13:20:38Z</time>
      </trkpt>
      <trkpt lat="47.80449" lon="-3.51622">
        <ele>12.49</ele>
        <time>2020-07-10T13:20:39Z</time>
      </trkpt>
      <trkpt lat="47.80449" lon="-3.51621">
        <ele>12.6</ele>
        <time>2020-07-10T13:20:40Z</time>
      </trkpt>
      <trkpt lat="47.80448" lon="-3.5162">
        <ele>12.71</ele>
        <time>2020-07-10T13:20:41Z</time>
      </trkpt>
      <trkpt lat="47.80448" lon="-3.51619">
        <ele>12.9</ele>
        <time>2020-07-10T13:20:42Z</time>
      </trkpt>
      <trkpt lat="47.80447" lon="-3.51618">
        <ele>13.02</ele>
        <time>2020-07-10T13:20:43Z</time>
      </trkpt>
      <trkpt lat="47.80448" lon="-3.51617">
        <ele>13.01</ele>
        <time>2020-07-10T13:20:44Z</time>
      </trkpt>
      <trkpt lat="47.80448" lon="-3.51615">
        <ele>12.99</ele>
        <time>2020-07-10T13:20:45Z</time>
      </trkpt>
      <trkpt lat="47.80449" lon="-3.51614">
        <ele>12.91</ele>
        <time>2020-07-10T13:20:46Z</time>
      </trkpt>
      <trkpt lat="47.8045" lon="-3.51613">
        <ele>12.83</ele>
        <time>2020-07-10T13:20:47Z</time>
      </trkpt>
      <trkpt lat="47.8045" lon="-3.51612">
        <ele>12.87</ele>
        <time>2020-07-10T13:20:48Z</time>
      </trkpt>
      <trkpt lat="47.8045" lon="-3.51612">
        <ele>12.88</ele>
        <time>2020-07-10T13:20:49Z</time>
      </trkpt>
      <trkpt lat="47.8045" lon="-3.51612">
        <ele>12.88</ele>
        <time>2020-07-10T13:20:50Z</time>
      </trkpt>
      <trkpt lat="47.80447" lon="-3.51608">
        <ele>13.24</ele>
        <time>2020-07-10T13:20:51Z</time>
      </trkpt>
      <trkpt lat="47.80447" lon="-3.51606">
        <ele>13.44</ele>
        <time>2020-07-10T13:20:52Z</time>
      </trkpt>
      <trkpt lat="47.80446" lon="-3.51605">
        <ele>13.61</ele>
        <time>2020-07-10T13:20:53Z</time>
      </trkpt>
      <trkpt lat="47.80447" lon="-3.51604">
        <ele>13.56</ele>
        <time>2020-07-10T13:20:54Z</time>
      </trkpt>
      <trkpt lat="47.80448" lon="-3.51603">
        <ele>13.33</ele>
        <time>2020-07-10T13:20:55Z</time>
      </trkpt>
      <trkpt lat="47.80448" lon="-3.51601">
        <ele>13.25</ele>
        <time>2020-07-10T13:20:56Z</time>
      </trkpt>
      <trkpt lat="47.80448" lon="-3.51599">
        <ele>13.25</ele>
        <time>2020-07-10T13:20:57Z</time>
      </trkpt>
      <trkpt lat="47.80449" lon="-3.51598">
        <ele>13.17</ele>
        <time>2020-07-10T13:20:58Z</time>
      </trkpt>
      <trkpt lat="47.80449" lon="-3.51597">
        <ele>13.14</ele>
        <time>2020-07-10T13:20:59Z</time>
      </trkpt>
      <trkpt lat="47.80449" lon="-3.51596">
        <ele>13.14</ele>
        <time>2020-07-10T13:21:00Z</time>
      </trkpt>
      <trkpt lat="47.80449" lon="-3.51596">
        <ele>13.14</ele>
        <time>2020-07-10T13:21:01Z</time>
      </trkpt>
      <trkpt lat="47.80449" lon="-3.51596">
        <ele>13.14</ele>
        <time>2020-07-10T13:21:02Z</time>
      </trkpt>
      <trkpt lat="47.80449" lon="-3.51596">
        <ele>13.14</ele>
        <time>2020-07-10T13:21:03Z</time>
      </trkpt>
      <trkpt lat="47.80449" lon="-3.51596">
        <ele>13.14</ele>
        <time>2020-07-10T13:21:04Z</time>
      </trkpt>
      <trkpt lat="47.80449" lon="-3.51596">
        <ele>13.14</ele>
        <time>2020-07-10T13:21:05Z</time>
      </trkpt>
      <trkpt lat="47.80449" lon="-3.51596">
        <ele>13.14</ele>
        <time>2020-07-10T13:21:06Z</time>
      </trkpt>
      <trkpt lat="47.80449" lon="-3.51596">
        <ele>13.14</ele>
        <time>2020-07-10T13:21:07Z</time>
      </trkpt>
      <trkpt lat="47.80449" lon="-3.51596">
        <ele>13.14</ele>
        <time>2020-07-10T13:21:08Z</time>
      </trkpt>
      <trkpt lat="47.80449" lon="-3.51596">
        <ele>13.14</ele>
        <time>2020-07-10T13:21:09Z</time>
      </trkpt>
      <trkpt lat="47.80449" lon="-3.51596">
        <ele>13.14</ele>
        <time>2020-07-10T13:21:10Z</time>
      </trkpt>
      <trkpt lat="47.80449" lon="-3.51596">
        <ele>13.14</ele>
        <time>2020-07-10T13:21:11Z</time>
      </trkpt>
      <trkpt lat="47.80449" lon="-3.51596">
        <ele>13.14</ele>
        <time>2020-07-10T13:21:12Z</time>
      </trkpt>
      <trkpt lat="47.80449" lon="-3.51596">
        <ele>13.14</ele>
        <time>2020-07-10T13:21:13Z</time>
      </trkpt>
      <trkpt lat="47.80449" lon="-3.51596">
        <ele>13.14</ele>
        <time>2020-07-10T13:21:14Z</time>
      </trkpt>
      <trkpt lat="47.80449" lon="-3.51596">
        <ele>13.14</ele>
        <time>2020-07-10T13:21:15Z</time>
      </trkpt>
      <trkpt lat="47.80449" lon="-3.51596">
        <ele>13.14</ele>
        <time>2020-07-10T13:21:16Z</time>
      </trkpt>
      <trkpt lat="47.80449" lon="-3.51596">
        <ele>13.14</ele>
        <time>2020-07-10T13:21:17Z</time>
      </trkpt>
      <trkpt lat="47.80449" lon="-3.51596">
        <ele>13.14</ele>
        <time>2020-07-10T13:21:18Z</time>
      </trkpt>
      <trkpt lat="47.80449" lon="-3.51596">
        <ele>13.14</ele>
        <time>2020-07-10T13:21:19Z</time>
      </trkpt>
      <trkpt lat="47.80449" lon="-3.51596">
        <ele>13.14</ele>
        <time>2020-07-10T13:21:20Z</time>
      </trkpt>
      <trkpt lat="47.80441" lon="-3.5159">
        <ele>15</ele>
        <time>2020-07-10T13:21:21Z</time>
      </trkpt>
      <trkpt lat="47.8044" lon="-3.5159">
        <ele>15.78</ele>
        <time>2020-07-10T13:21:22Z</time>
      </trkpt>
      <trkpt lat="47.8044" lon="-3.5159">
        <ele>16.18</ele>
        <time>2020-07-10T13:21:23Z</time>
      </trkpt>
      <trkpt lat="47.80439" lon="-3.51589">
        <ele>16.58</ele>
        <time>2020-07-10T13:21:24Z</time>
      </trkpt>
      <trkpt lat="47.80439" lon="-3.51589">
        <ele>16.7</ele>
        <time>2020-07-10T13:21:25Z</time>
      </trkpt>
      <trkpt lat="47.80439" lon="-3.51589">
        <ele>16.73</ele>
        <time>2020-07-10T13:21:26Z</time>
      </trkpt>
      <trkpt lat="47.80439" lon="-3.51589">
        <ele>16.74</ele>
        <time>2020-07-10T13:21:27Z</time>
      </trkpt>
      <trkpt lat="47.80439" lon="-3.51589">
        <ele>16.75</ele>
        <time>2020-07-10T13:21:28Z</time>
      </trkpt>
      <trkpt lat="47.80439" lon="-3.51589">
        <ele>16.75</ele>
        <time>2020-07-10T13:21:29Z</time>
      </trkpt>
      <trkpt lat="47.80439" lon="-3.51589">
        <ele>16.75</ele>
        <time>2020-07-10T13:21:30Z</time>
      </trkpt>
      <trkpt lat="47.80439" lon="-3.51589">
        <ele>16.75</ele>
        <time>2020-07-10T13:21:31Z</time>
      </trkpt>
      <trkpt lat="47.80439" lon="-3.51589">
        <ele>16.75</ele>
        <time>2020-07-10T13:21:32Z</time>
      </trkpt>
      <trkpt lat="47.80439" lon="-3.51589">
        <ele>16.75</ele>
        <time>2020-07-10T13:21:33Z</time>
      </trkpt>
      <trkpt lat="47.80439" lon="-3.51589">
        <ele>16.75</ele>
        <time>2020-07-10T13:21:34Z</time>
      </trkpt>
      <trkpt lat="47.80439" lon="-3.51589">
        <ele>16.75</ele>
        <time>2020-07-10T13:21:35Z</time>
      </trkpt>
      <trkpt lat="47.80439" lon="-3.51589">
        <ele>16.75</ele>
        <time>2020-07-10T13:21:36Z</time>
      </trkpt>
      <trkpt lat="47.80439" lon="-3.51589">
        <ele>16.75</ele>
        <time>2020-07-10T13:21:37Z</time>
      </trkpt>
      <trkpt lat="47.80439" lon="-3.51589">
        <ele>16.75</ele>
        <time>2020-07-10T13:21:38Z</time>
      </trkpt>
      <trkpt lat="47.80439" lon="-3.51589">
        <ele>16.75</ele>
        <time>2020-07-10T13:21:39Z</time>
      </trkpt>
      <trkpt lat="47.80439" lon="-3.51589">
        <ele>16.75</ele>
        <time>2020-07-10T13:21:40Z</time>
      </trkpt>
      <trkpt lat="47.80439" lon="-3.51589">
        <ele>16.75</ele>
        <time>2020-07-10T13:21:41Z</time>
      </trkpt>
      <trkpt lat="47.80439" lon="-3.51589">
        <ele>16.75</ele>
        <time>2020-07-10T13:21:42Z</time>
      </trkpt>
      <trkpt lat="47.80439" lon="-3.51589">
        <ele>16.75</ele>
        <time>2020-07-10T13:21:43Z</time>
      </trkpt>
      <trkpt lat="47.80439" lon="-3.51589">
        <ele>16.75</ele>
        <time>2020-07-10T13:21:44Z</time>
      </trkpt>
      <trkpt lat="47.80439" lon="-3.51589">
        <ele>16.75</ele>
        <time>2020-07-10T13:21:45Z</time>
      </trkpt>
      <trkpt lat="47.80435" lon="-3.51576">
        <ele>18.17</ele>
        <time>2020-07-10T13:21:46Z</time>
      </trkpt>
      <trkpt lat="47.80436" lon="-3.51575">
        <ele>18.54</ele>
        <time>2020-07-10T13:21:47Z</time>
      </trkpt>
      <trkpt lat="47.80435" lon="-3.51575">
        <ele>18.89</ele>
        <time>2020-07-10T13:21:48Z</time>
      </trkpt>
      <trkpt lat="47.80435" lon="-3.51575">
        <ele>19.12</ele>
        <time>2020-07-10T13:21:49Z</time>
      </trkpt>
      <trkpt lat="47.80435" lon="-3.51575">
        <ele>19.18</ele>
        <time>2020-07-10T13:21:50Z</time>
      </trkpt>
      <trkpt lat="47.80435" lon="-3.51575">
        <ele>19.2</ele>
        <time>2020-07-10T13:21:51Z</time>
      </trkpt>
      <trkpt lat="47.80435" lon="-3.51575">
        <ele>19.21</ele>
        <time>2020-07-10T13:21:52Z</time>
      </trkpt>
      <trkpt lat="47.80435" lon="-3.51575">
        <ele>19.21</ele>
        <time>2020-07-10T13:21:53Z</time>
      </trkpt>
      <trkpt lat="47.80435" lon="-3.51575">
        <ele>19.21</ele>
        <time>2020-07-10T13:21:54Z</time>
      </trkpt>
      <trkpt lat="47.80435" lon="-3.51575">
        <ele>19.21</ele>
        <time>2020-07-10T13:21:55Z</time>
      </trkpt>
      <trkpt lat="47.80435" lon="-3.51575">
        <ele>19.21</ele>
        <time>2020-07-10T13:21:56Z</time>
      </trkpt>
      <trkpt lat="47.80435" lon="-3.51575">
        <ele>19.21</ele>
        <time>2020-07-10T13:21:57Z</time>
      </trkpt>
      <trkpt lat="47.80435" lon="-3.51575">
        <ele>19.21</ele>
        <time>2020-07-10T13:21:58Z</time>
      </trkpt>
      <trkpt lat="47.80435" lon="-3.51575">
        <ele>19.21</ele>
        <time>2020-07-10T13:21:59Z</time>
      </trkpt>
      <trkpt lat="47.80435" lon="-3.51575">
        <ele>19.21</ele>
        <time>2020-07-10T13:22:00Z</time>
      </trkpt>
      <trkpt lat="47.80435" lon="-3.51575">
        <ele>19.21</ele>
        <time>2020-07-10T13:22:01Z</time>
      </trkpt>
      <trkpt lat="47.80435" lon="-3.51575">
        <ele>19.21</ele>
        <time>2020-07-10T13:22:02Z</time>
      </trkpt>
      <trkpt lat="47.80435" lon="-3.51575">
        <ele>19.21</ele>
        <time>2020-07-10T13:22:03Z</time>
      </trkpt>
      <trkpt lat="47.80435" lon="-3.51575">
        <ele>19.21</ele>
        <time>2020-07-10T13:22:04Z</time>
      </trkpt>
      <trkpt lat="47.80435" lon="-3.51575">
        <ele>19.21</ele>
        <time>2020-07-10T13:22:05Z</time>
      </trkpt>
      <trkpt lat="47.80435" lon="-3.51575">
        <ele>19.21</ele>
        <time>2020-07-10T13:22:06Z</time>
      </trkpt>
      <trkpt lat="47.80435" lon="-3.51575">
        <ele>19.21</ele>
        <time>2020-07-10T13:22:07Z</time>
      </trkpt>
      <trkpt lat="47.80435" lon="-3.51575">
        <ele>19.21</ele>
        <time>2020-07-10T13:22:08Z</time>
      </trkpt>
      <trkpt lat="47.80435" lon="-3.51575">
        <ele>19.21</ele>
        <time>2020-07-10T13:22:09Z</time>
      </trkpt>
      <trkpt lat="47.80435" lon="-3.51575">
        <ele>19.21</ele>
        <time>2020-07-10T13:22:10Z</time>
      </trkpt>
      <trkpt lat="47.80428" lon="-3.51566">
        <ele>21.83</ele>
        <time>2020-07-10T13:22:11Z</time>
      </trkpt>
      <trkpt lat="47.80428" lon="-3.51566">
        <ele>22.8</ele>
        <time>2020-07-10T13:22:12Z</time>
      </trkpt>
      <trkpt lat="47.80427" lon="-3.51565">
        <ele>23.29</ele>
        <time>2020-07-10T13:22:13Z</time>
      </trkpt>
      <trkpt lat="47.80427" lon="-3.51565">
        <ele>23.48</ele>
        <time>2020-07-10T13:22:14Z</time>
      </trkpt>
      <trkpt lat="47.80427" lon="-3.51565">
        <ele>23.54</ele>
        <time>2020-07-10T13:22:15Z</time>
      </trkpt>
      <trkpt lat="47.80427" lon="-3.51565">
        <ele>23.55</ele>
        <time>2020-07-10T13:22:16Z</time>
      </trkpt>
      <trkpt lat="47.80427" lon="-3.51565">
        <ele>23.56</ele>
        <time>2020-07-10T13:22:17Z</time>
      </trkpt>
      <trkpt lat="47.80427" lon="-3.51565">
        <ele>23.56</ele>
        <time>2020-07-10T13:22:18Z</time>
      </trkpt>
      <trkpt lat="47.80427" lon="-3.51565">
        <ele>23.56</ele>
        <time>2020-07-10T13:22:19Z</time>
      </trkpt>
      <trkpt lat="47.80427" lon="-3.51565">
        <ele>23.56</ele>
        <time>2020-07-10T13:22:20Z</time>
      </trkpt>
      <trkpt lat="47.80427" lon="-3.51565">
        <ele>23.56</ele>
        <time>2020-07-10T13:22:21Z</time>
      </trkpt>
      <trkpt lat="47.80427" lon="-3.51565">
        <ele>23.56</ele>
        <time>2020-07-10T13:22:22Z</time>
      </trkpt>
      <trkpt lat="47.80427" lon="-3.51565">
        <ele>23.56</ele>
        <time>2020-07-10T13:22:23Z</time>
      </trkpt>
      <trkpt lat="47.80427" lon="-3.51565">
        <ele>23.56</ele>
        <time>2020-07-10T13:22:24Z</time>
      </trkpt>
      <trkpt lat="47.80427" lon="-3.51565">
        <ele>23.56</ele>
        <time>2020-07-10T13:22:25Z</time>
      </trkpt>
      <trkpt lat="47.80427" lon="-3.51565">
        <ele>23.56</ele>
        <time>2020-07-10T13:22:26Z</time>
      </trkpt>
      <trkpt lat="47.80427" lon="-3.51565">
        <ele>23.56</ele>
        <time>2020-07-10T13:22:27Z</time>
      </trkpt>
      <trkpt lat="47.80427" lon="-3.51565">
        <ele>23.56</ele>
        <time>2020-07-10T13:22:28Z</time>
      </trkpt>
      <trkpt lat="47.80427" lon="-3.51565">
        <ele>23.56</ele>
        <time>2020-07-10T13:22:29Z</time>
      </trkpt>
      <trkpt lat="47.80427" lon="-3.51565">
        <ele>23.56</ele>
        <time>2020-07-10T13:22:30Z</time>
      </trkpt>
      <trkpt lat="47.80427" lon="-3.51565">
        <ele>23.56</ele>
        <time>2020-07-10T13:22:31Z</time>
      </trkpt>
      <trkpt lat="47.80427" lon="-3.51565">
        <ele>23.56</ele>
        <time>2020-07-10T13:22:32Z</time>
      </trkpt>
      <trkpt lat="47.80427" lon="-3.51565">
        <ele>23.56</ele>
        <time>2020-07-10T13:22:33Z</time>
      </trkpt>
      <trkpt lat="47.80427" lon="-3.51565">
        <ele>23.56</ele>
        <time>2020-07-10T13:22:34Z</time>
      </trkpt>
      <trkpt lat="47.80427" lon="-3.51565">
        <ele>23.56</ele>
        <time>2020-07-10T13:22:35Z</time>
      </trkpt>
      <trkpt lat="47.80427" lon="-3.51565">
        <ele>23.56</ele>
        <time>2020-07-10T13:22:36Z</time>
      </trkpt>
      <trkpt lat="47.80427" lon="-3.51565">
        <ele>23.56</ele>
        <time>2020-07-10T13:22:37Z</time>
      </trkpt>
      <trkpt lat="47.80427" lon="-3.51565">
        <ele>23.56</ele>
        <time>2020-07-10T13:22:38Z</time>
      </trkpt>
      <trkpt lat="47.80427" lon="-3.51565">
        <ele>23.56</ele>
        <time>2020-07-10T13:22:39Z</time>
      </trkpt>
      <trkpt lat="47.80427" lon="-3.51565">
        <ele>23.56</ele>
        <time>2020-07-10T13:22:40Z</time>
      </trkpt>
      <trkpt lat="47.80427" lon="-3.51565">
        <ele>23.56</ele>
        <time>2020-07-10T13:22:41Z</time>
      </trkpt>
      <trkpt lat="47.80427" lon="-3.51565">
        <ele>23.56</ele>
        <time>2020-07-10T13:22:42Z</time>
      </trkpt>
      <trkpt lat="47.80427" lon="-3.51565">
        <ele>23.56</ele>
        <time>2020-07-10T13:22:43Z</time>
      </trkpt>
      <trkpt lat="47.80427" lon="-3.51565">
        <ele>23.56</ele>
        <time>2020-07-10T13:22:44Z</time>
      </trkpt>
      <trkpt lat="47.80427" lon="-3.51565">
        <ele>23.56</ele>
        <time>2020-07-10T13:22:45Z</time>
      </trkpt>
      <trkpt lat="47.80427" lon="-3.51565">
        <ele>23.56</ele>
        <time>2020-07-10T13:22:46Z</time>
      </trkpt>
      <trkpt lat="47.80427" lon="-3.51565">
        <ele>23.56</ele>
        <time>2020-07-10T13:22:47Z</time>
      </trkpt>
      <trkpt lat="47.80427" lon="-3.51565">
        <ele>23.56</ele>
        <time>2020-07-10T13:22:48Z</time>
      </trkpt>
      <trkpt lat="47.80427" lon="-3.51565">
        <ele>23.56</ele>
        <time>2020-07-10T13:22:49Z</time>
      </trkpt>
      <trkpt lat="47.80427" lon="-3.51565">
        <ele>23.56</ele>
        <time>2020-07-10T13:22:50Z</time>
      </trkpt>
      <trkpt lat="47.80427" lon="-3.51565">
        <ele>23.56</ele>
        <time>2020-07-10T13:22:51Z</time>
      </trkpt>
      <trkpt lat="47.80427" lon="-3.51565">
        <ele>23.56</ele>
        <time>2020-07-10T13:22:52Z</time>
      </trkpt>
      <trkpt lat="47.80427" lon="-3.51565">
        <ele>23.56</ele>
        <time>2020-07-10T13:22:53Z</time>
      </trkpt>
      <trkpt lat="47.80427" lon="-3.51565">
        <ele>23.56</ele>
        <time>2020-07-10T13:22:54Z</time>
      </trkpt>
      <trkpt lat="47.80427" lon="-3.51565">
        <ele>23.56</ele>
        <time>2020-07-10T13:22:55Z</time>
      </trkpt>
      <trkpt lat="47.80427" lon="-3.51565">
        <ele>23.56</ele>
        <time>2020-07-10T13:22:56Z</time>
      </trkpt>
      <trkpt lat="47.80427" lon="-3.51565">
        <ele>23.56</ele>
        <time>2020-07-10T13:22:57Z</time>
      </trkpt>
      <trkpt lat="47.80427" lon="-3.51565">
        <ele>23.56</ele>
        <time>2020-07-10T13:22:58Z</time>
      </trkpt>
      <trkpt lat="47.80427" lon="-3.51565">
        <ele>23.56</ele>
        <time>2020-07-10T13:22:59Z</time>
      </trkpt>
      <trkpt lat="47.80427" lon="-3.51565">
        <ele>23.56</ele>
        <time>2020-07-10T13:23:00Z</time>
      </trkpt>
      <trkpt lat="47.80427" lon="-3.51565">
        <ele>23.56</ele>
        <time>2020-07-10T13:23:01Z</time>
      </trkpt>
      <trkpt lat="47.80424" lon="-3.51552">
        <ele>25.29</ele>
        <time>2020-07-10T13:23:02Z</time>
      </trkpt>
      <trkpt lat="47.80424" lon="-3.51552">
        <ele>25.84</ele>
        <time>2020-07-10T13:23:03Z</time>
      </trkpt>
      <trkpt lat="47.80424" lon="-3.51553">
        <ele>25.99</ele>
        <time>2020-07-10T13:23:04Z</time>
      </trkpt>
      <trkpt lat="47.80424" lon="-3.51553">
        <ele>26.09</ele>
        <time>2020-07-10T13:23:05Z</time>
      </trkpt>
      <trkpt lat="47.80424" lon="-3.51553">
        <ele>26.12</ele>
        <time>2020-07-10T13:23:06Z</time>
      </trkpt>
      <trkpt lat="47.80424" lon="-3.51553">
        <ele>26.13</ele>
        <time>2020-07-10T13:23:07Z</time>
      </trkpt>
      <trkpt lat="47.80424" lon="-3.51553">
        <ele>26.14</ele>
        <time>2020-07-10T13:23:08Z</time>
      </trkpt>
      <trkpt lat="47.80424" lon="-3.51553">
        <ele>26.14</ele>
        <time>2020-07-10T13:23:09Z</time>
      </trkpt>
      <trkpt lat="47.80424" lon="-3.51553">
        <ele>26.14</ele>
        <time>2020-07-10T13:23:10Z</time>
      </trkpt>
      <trkpt lat="47.80424" lon="-3.51553">
        <ele>26.14</ele>
        <time>2020-07-10T13:23:11Z</time>
      </trkpt>
      <trkpt lat="47.80424" lon="-3.51553">
        <ele>26.14</ele>
        <time>2020-07-10T13:23:12Z</time>
      </trkpt>
      <trkpt lat="47.80424" lon="-3.51553">
        <ele>26.14</ele>
        <time>2020-07-10T13:23:13Z</time>
      </trkpt>
      <trkpt lat="47.80424" lon="-3.51553">
        <ele>26.14</ele>
        <time>2020-07-10T13:23:14Z</time>
      </trkpt>
      <trkpt lat="47.80424" lon="-3.51553">
        <ele>26.14</ele>
        <time>2020-07-10T13:23:15Z</time>
      </trkpt>
      <trkpt lat="47.80424" lon="-3.51553">
        <ele>26.14</ele>
        <time>2020-07-10T13:23:16Z</time>
      </trkpt>
      <trkpt lat="47.80424" lon="-3.51553">
        <ele>26.14</ele>
        <time>2020-07-10T13:23:17Z</time>
      </trkpt>
      <trkpt lat="47.80424" lon="-3.51553">
        <ele>26.14</ele>
        <time>2020-07-10T13:23:18Z</time>
      </trkpt>
      <trkpt lat="47.80424" lon="-3.51553">
        <ele>26.14</ele>
        <time>2020-07-10T13:23:19Z</time>
      </trkpt>
      <trkpt lat="47.80424" lon="-3.51553">
        <ele>26.14</ele>
        <time>2020-07-10T13:23:20Z</time>
      </trkpt>
      <trkpt lat="47.80424" lon="-3.51553">
        <ele>26.14</ele>
        <time>2020-07-10T13:23:21Z</time>
      </trkpt>
      <trkpt lat="47.80424" lon="-3.51553">
        <ele>26.14</ele>
        <time>2020-07-10T13:23:22Z</time>
      </trkpt>
      <trkpt lat="47.80424" lon="-3.51553">
        <ele>26.14</ele>
        <time>2020-07-10T13:23:23Z</time>
      </trkpt>
      <trkpt lat="47.80424" lon="-3.51553">
        <ele>26.14</ele>
        <time>2020-07-10T13:23:24Z</time>
      </trkpt>
      <trkpt lat="47.80424" lon="-3.51553">
        <ele>26.14</ele>
        <time>2020-07-10T13:23:25Z</time>
      </trkpt>
      <trkpt lat="47.80424" lon="-3.51543">
        <ele>27.07</ele>
        <time>2020-07-10T13:23:26Z</time>
      </trkpt>
      <trkpt lat="47.80423" lon="-3.51542">
        <ele>27.54</ele>
        <time>2020-07-10T13:23:27Z</time>
      </trkpt>
      <trkpt lat="47.80423" lon="-3.51541">
        <ele>27.89</ele>
        <time>2020-07-10T13:23:28Z</time>
      </trkpt>
      <trkpt lat="47.80423" lon="-3.5154">
        <ele>28.18</ele>
        <time>2020-07-10T13:23:29Z</time>
      </trkpt>
      <trkpt lat="47.80423" lon="-3.5154">
        <ele>28.27</ele>
        <time>2020-07-10T13:23:30Z</time>
      </trkpt>
      <trkpt lat="47.80423" lon="-3.5154">
        <ele>28.3</ele>
        <time>2020-07-10T13:23:31Z</time>
      </trkpt>
      <trkpt lat="47.80423" lon="-3.5154">
        <ele>28.31</ele>
        <time>2020-07-10T13:23:32Z</time>
      </trkpt>
      <trkpt lat="47.80423" lon="-3.5154">
        <ele>28.31</ele>
        <time>2020-07-10T13:23:33Z</time>
      </trkpt>
      <trkpt lat="47.80423" lon="-3.5154">
        <ele>28.31</ele>
        <time>2020-07-10T13:23:34Z</time>
      </trkpt>
      <trkpt lat="47.80423" lon="-3.5154">
        <ele>28.31</ele>
        <time>2020-07-10T13:23:35Z</time>
      </trkpt>
      <trkpt lat="47.80423" lon="-3.5154">
        <ele>28.31</ele>
        <time>2020-07-10T13:23:36Z</time>
      </trkpt>
      <trkpt lat="47.80423" lon="-3.5154">
        <ele>28.31</ele>
        <time>2020-07-10T13:23:37Z</time>
      </trkpt>
      <trkpt lat="47.80423" lon="-3.5154">
        <ele>28.31</ele>
        <time>2020-07-10T13:23:38Z</time>
      </trkpt>
      <trkpt lat="47.80423" lon="-3.5154">
        <ele>28.31</ele>
        <time>2020-07-10T13:23:39Z</time>
      </trkpt>
      <trkpt lat="47.80423" lon="-3.5154">
        <ele>28.31</ele>
        <time>2020-07-10T13:23:40Z</time>
      </trkpt>
      <trkpt lat="47.80423" lon="-3.5154">
        <ele>28.31</ele>
        <time>2020-07-10T13:23:41Z</time>
      </trkpt>
      <trkpt lat="47.80423" lon="-3.5154">
        <ele>28.31</ele>
        <time>2020-07-10T13:23:42Z</time>
      </trkpt>
      <trkpt lat="47.80423" lon="-3.5154">
        <ele>28.31</ele>
        <time>2020-07-10T13:23:43Z</time>
      </trkpt>
      <trkpt lat="47.80423" lon="-3.5154">
        <ele>28.31</ele>
        <time>2020-07-10T13:23:44Z</time>
      </trkpt>
      <trkpt lat="47.80423" lon="-3.5154">
        <ele>28.31</ele>
        <time>2020-07-10T13:23:45Z</time>
      </trkpt>
      <trkpt lat="47.80423" lon="-3.5154">
        <ele>28.31</ele>
        <time>2020-07-10T13:23:46Z</time>
      </trkpt>
      <trkpt lat="47.80422" lon="-3.51526">
        <ele>29.92</ele>
        <time>2020-07-10T13:23:47Z</time>
      </trkpt>
      <trkpt lat="47.80422" lon="-3.51526">
        <ele>30.42</ele>
        <time>2020-07-10T13:23:48Z</time>
      </trkpt>
      <trkpt lat="47.80422" lon="-3.51524">
        <ele>30.57</ele>
        <time>2020-07-10T13:23:49Z</time>
      </trkpt>
      <trkpt lat="47.80423" lon="-3.51523">
        <ele>30.67</ele>
        <time>2020-07-10T13:23:50Z</time>
      </trkpt>
      <trkpt lat="47.80423" lon="-3.51523">
        <ele>30.7</ele>
        <time>2020-07-10T13:23:51Z</time>
      </trkpt>
      <trkpt lat="47.80423" lon="-3.51523">
        <ele>30.71</ele>
        <time>2020-07-10T13:23:52Z</time>
      </trkpt>
      <trkpt lat="47.80423" lon="-3.51523">
        <ele>30.71</ele>
        <time>2020-07-10T13:23:53Z</time>
      </trkpt>
      <trkpt lat="47.80423" lon="-3.51523">
        <ele>30.71</ele>
        <time>2020-07-10T13:23:54Z</time>
      </trkpt>
      <trkpt lat="47.80423" lon="-3.51523">
        <ele>30.71</ele>
        <time>2020-07-10T13:23:55Z</time>
      </trkpt>
      <trkpt lat="47.80423" lon="-3.51523">
        <ele>30.71</ele>
        <time>2020-07-10T13:23:56Z</time>
      </trkpt>
      <trkpt lat="47.80423" lon="-3.51523">
        <ele>30.71</ele>
        <time>2020-07-10T13:23:57Z</time>
      </trkpt>
      <trkpt lat="47.80423" lon="-3.51523">
        <ele>30.71</ele>
        <time>2020-07-10T13:23:58Z</time>
      </trkpt>
      <trkpt lat="47.80423" lon="-3.51523">
        <ele>30.71</ele>
        <time>2020-07-10T13:23:59Z</time>
      </trkpt>
      <trkpt lat="47.80423" lon="-3.51523">
        <ele>30.71</ele>
        <time>2020-07-10T13:24:00Z</time>
      </trkpt>
      <trkpt lat="47.80423" lon="-3.51523">
        <ele>30.71</ele>
        <time>2020-07-10T13:24:01Z</time>
      </trkpt>
      <trkpt lat="47.80423" lon="-3.51523">
        <ele>30.71</ele>
        <time>2020-07-10T13:24:02Z</time>
      </trkpt>
      <trkpt lat="47.80423" lon="-3.51523">
        <ele>30.71</ele>
        <time>2020-07-10T13:24:03Z</time>
      </trkpt>
      <trkpt lat="47.80423" lon="-3.51523">
        <ele>30.71</ele>
        <time>2020-07-10T13:24:04Z</time>
      </trkpt>
      <trkpt lat="47.80423" lon="-3.51523">
        <ele>30.71</ele>
        <time>2020-07-10T13:24:05Z</time>
      </trkpt>
      <trkpt lat="47.80423" lon="-3.51523">
        <ele>30.71</ele>
        <time>2020-07-10T13:24:06Z</time>
      </trkpt>
      <trkpt lat="47.80423" lon="-3.51523">
        <ele>30.71</ele>
        <time>2020-07-10T13:24:07Z</time>
      </trkpt>
      <trkpt lat="47.80423" lon="-3.51523">
        <ele>30.71</ele>
        <time>2020-07-10T13:24:08Z</time>
      </trkpt>
      <trkpt lat="47.80423" lon="-3.51523">
        <ele>30.71</ele>
        <time>2020-07-10T13:24:09Z</time>
      </trkpt>
      <trkpt lat="47.80423" lon="-3.51523">
        <ele>30.71</ele>
        <time>2020-07-10T13:24:10Z</time>
      </trkpt>
      <trkpt lat="47.80423" lon="-3.51523">
        <ele>30.71</ele>
        <time>2020-07-10T13:24:11Z</time>
      </trkpt>
      <trkpt lat="47.80423" lon="-3.51523">
        <ele>30.71</ele>
        <time>2020-07-10T13:24:12Z</time>
      </trkpt>
      <trkpt lat="47.80423" lon="-3.51523">
        <ele>30.71</ele>
        <time>2020-07-10T13:24:13Z</time>
      </trkpt>
      <trkpt lat="47.80423" lon="-3.51523">
        <ele>30.71</ele>
        <time>2020-07-10T13:24:14Z</time>
      </trkpt>
      <trkpt lat="47.80423" lon="-3.51523">
        <ele>30.71</ele>
        <time>2020-07-10T13:24:15Z</time>
      </trkpt>
      <trkpt lat="47.80423" lon="-3.51523">
        <ele>30.71</ele>
        <time>2020-07-10T13:24:16Z</time>
      </trkpt>
      <trkpt lat="47.80423" lon="-3.51523">
        <ele>30.71</ele>
        <time>2020-07-10T13:24:17Z</time>
      </trkpt>
      <trkpt lat="47.80423" lon="-3.51523">
        <ele>30.71</ele>
        <time>2020-07-10T13:24:18Z</time>
      </trkpt>
      <trkpt lat="47.80423" lon="-3.51523">
        <ele>30.71</ele>
        <time>2020-07-10T13:24:19Z</time>
      </trkpt>
      <trkpt lat="47.80423" lon="-3.51523">
        <ele>30.71</ele>
        <time>2020-07-10T13:24:20Z</time>
      </trkpt>
      <trkpt lat="47.80423" lon="-3.51523">
        <ele>30.71</ele>
        <time>2020-07-10T13:24:21Z</time>
      </trkpt>
      <trkpt lat="47.80423" lon="-3.51523">
        <ele>30.71</ele>
        <time>2020-07-10T13:24:22Z</time>
      </trkpt>
      <trkpt lat="47.80423" lon="-3.51523">
        <ele>30.71</ele>
        <time>2020-07-10T13:24:23Z</time>
      </trkpt>
      <trkpt lat="47.80423" lon="-3.51523">
        <ele>30.71</ele>
        <time>2020-07-10T13:24:24Z</time>
      </trkpt>
      <trkpt lat="47.80423" lon="-3.51523">
        <ele>30.71</ele>
        <time>2020-07-10T13:24:25Z</time>
      </trkpt>
      <trkpt lat="47.80423" lon="-3.51523">
        <ele>30.71</ele>
        <time>2020-07-10T13:24:26Z</time>
      </trkpt>
      <trkpt lat="47.80423" lon="-3.51523">
        <ele>30.71</ele>
        <time>2020-07-10T13:24:27Z</time>
      </trkpt>
      <trkpt lat="47.80423" lon="-3.51523">
        <ele>30.71</ele>
        <time>2020-07-10T13:24:28Z</time>
      </trkpt>
      <trkpt lat="47.80416" lon="-3.51513">
        <ele>33.95</ele>
        <time>2020-07-10T13:24:29Z</time>
      </trkpt>
      <trkpt lat="47.80416" lon="-3.51514">
        <ele>34.88</ele>
        <time>2020-07-10T13:24:30Z</time>
      </trkpt>
      <trkpt lat="47.80416" lon="-3.51513">
        <ele>35.22</ele>
        <time>2020-07-10T13:24:31Z</time>
      </trkpt>
      <trkpt lat="47.80415" lon="-3.51513">
        <ele>35.35</ele>
        <time>2020-07-10T13:24:32Z</time>
      </trkpt>
      <trkpt lat="47.80415" lon="-3.51513">
        <ele>35.39</ele>
        <time>2020-07-10T13:24:33Z</time>
      </trkpt>
      <trkpt lat="47.80415" lon="-3.51513">
        <ele>35.41</ele>
        <time>2020-07-10T13:24:34Z</time>
      </trkpt>
      <trkpt lat="47.80415" lon="-3.51513">
        <ele>35.41</ele>
        <time>2020-07-10T13:24:35Z</time>
      </trkpt>
      <trkpt lat="47.80415" lon="-3.51513">
        <ele>35.41</ele>
        <time>2020-07-10T13:24:36Z</time>
      </trkpt>
      <trkpt lat="47.80415" lon="-3.51513">
        <ele>35.41</ele>
        <time>2020-07-10T13:24:37Z</time>
      </trkpt>
      <trkpt lat="47.80415" lon="-3.51513">
        <ele>35.41</ele>
        <time>2020-07-10T13:24:38Z</time>
      </trkpt>
      <trkpt lat="47.80415" lon="-3.51513">
        <ele>35.41</ele>
        <time>2020-07-10T13:24:39Z</time>
      </trkpt>
      <trkpt lat="47.80415" lon="-3.51513">
        <ele>35.41</ele>
        <time>2020-07-10T13:24:40Z</time>
      </trkpt>
      <trkpt lat="47.80415" lon="-3.51513">
        <ele>35.41</ele>
        <time>2020-07-10T13:24:41Z</time>
      </trkpt>
      <trkpt lat="47.80415" lon="-3.51513">
        <ele>35.41</ele>
        <time>2020-07-10T13:24:42Z</time>
      </trkpt>
      <trkpt lat="47.80415" lon="-3.51513">
        <ele>35.41</ele>
        <time>2020-07-10T13:24:43Z</time>
      </trkpt>
      <trkpt lat="47.80415" lon="-3.51513">
        <ele>35.41</ele>
        <time>2020-07-10T13:24:44Z</time>
      </trkpt>
      <trkpt lat="47.80415" lon="-3.51513">
        <ele>35.41</ele>
        <time>2020-07-10T13:24:45Z</time>
      </trkpt>
      <trkpt lat="47.80415" lon="-3.51513">
        <ele>35.41</ele>
        <time>2020-07-10T13:24:46Z</time>
      </trkpt>
      <trkpt lat="47.80415" lon="-3.51513">
        <ele>35.41</ele>
        <time>2020-07-10T13:24:47Z</time>
      </trkpt>
      <trkpt lat="47.80415" lon="-3.51513">
        <ele>35.41</ele>
        <time>2020-07-10T13:24:48Z</time>
      </trkpt>
      <trkpt lat="47.80415" lon="-3.51513">
        <ele>35.41</ele>
        <time>2020-07-10T13:24:49Z</time>
      </trkpt>
      <trkpt lat="47.80415" lon="-3.51513">
        <ele>35.41</ele>
        <time>2020-07-10T13:24:50Z</time>
      </trkpt>
      <trkpt lat="47.80415" lon="-3.51513">
        <ele>35.41</ele>
        <time>2020-07-10T13:24:51Z</time>
      </trkpt>
      <trkpt lat="47.80415" lon="-3.51513">
        <ele>35.41</ele>
        <time>2020-07-10T13:24:52Z</time>
      </trkpt>
      <trkpt lat="47.80415" lon="-3.51513">
        <ele>35.41</ele>
        <time>2020-07-10T13:24:53Z</time>
      </trkpt>
      <trkpt lat="47.80415" lon="-3.51513">
        <ele>35.41</ele>
        <time>2020-07-10T13:24:54Z</time>
      </trkpt>
      <trkpt lat="47.80415" lon="-3.51513">
        <ele>35.41</ele>
        <time>2020-07-10T13:24:55Z</time>
      </trkpt>
      <trkpt lat="47.80415" lon="-3.51513">
        <ele>35.41</ele>
        <time>2020-07-10T13:24:56Z</time>
      </trkpt>
      <trkpt lat="47.80415" lon="-3.51513">
        <ele>35.41</ele>
        <time>2020-07-10T13:24:57Z</time>
      </trkpt>
      <trkpt lat="47.80415" lon="-3.51513">
        <ele>35.41</ele>
        <time>2020-07-10T13:24:58Z</time>
      </trkpt>
      <trkpt lat="47.80415" lon="-3.51513">
        <ele>35.41</ele>
        <time>2020-07-10T13:24:59Z</time>
      </trkpt>
      <trkpt lat="47.80415" lon="-3.51513">
        <ele>35.41</ele>
        <time>2020-07-10T13:25:00Z</time>
      </trkpt>
      <trkpt lat="47.80415" lon="-3.51513">
        <ele>35.41</ele>
        <time>2020-07-10T13:25:01Z</time>
      </trkpt>
      <trkpt lat="47.80415" lon="-3.51513">
        <ele>35.41</ele>
        <time>2020-07-10T13:25:02Z</time>
      </trkpt>
      <trkpt lat="47.80415" lon="-3.51513">
        <ele>35.41</ele>
        <time>2020-07-10T13:25:03Z</time>
      </trkpt>
      <trkpt lat="47.80415" lon="-3.51513">
        <ele>35.41</ele>
        <time>2020-07-10T13:25:04Z</time>
      </trkpt>
      <trkpt lat="47.80415" lon="-3.51513">
        <ele>35.41</ele>
        <time>2020-07-10T13:25:05Z</time>
      </trkpt>
      <trkpt lat="47.80415" lon="-3.51513">
        <ele>35.41</ele>
        <time>2020-07-10T13:25:06Z</time>
      </trkpt>
      <trkpt lat="47.80415" lon="-3.51513">
        <ele>35.41</ele>
        <time>2020-07-10T13:25:07Z</time>
      </trkpt>
      <trkpt lat="47.80415" lon="-3.51513">
        <ele>35.41</ele>
        <time>2020-07-10T13:25:08Z</time>
      </trkpt>
      <trkpt lat="47.80415" lon="-3.51513">
        <ele>35.41</ele>
        <time>2020-07-10T13:25:09Z</time>
      </trkpt>
      <trkpt lat="47.80415" lon="-3.51513">
        <ele>35.41</ele>
        <time>2020-07-10T13:25:10Z</time>
      </trkpt>
      <trkpt lat="47.80415" lon="-3.51513">
        <ele>35.41</ele>
        <time>2020-07-10T13:25:11Z</time>
      </trkpt>
      <trkpt lat="47.80415" lon="-3.51513">
        <ele>35.41</ele>
        <time>2020-07-10T13:25:12Z</time>
      </trkpt>
      <trkpt lat="47.80415" lon="-3.51513">
        <ele>35.41</ele>
        <time>2020-07-10T13:25:13Z</time>
      </trkpt>
      <trkpt lat="47.80415" lon="-3.51513">
        <ele>35.41</ele>
        <time>2020-07-10T13:25:14Z</time>
      </trkpt>
      <trkpt lat="47.80415" lon="-3.51513">
        <ele>35.41</ele>
        <time>2020-07-10T13:25:15Z</time>
      </trkpt>
      <trkpt lat="47.80415" lon="-3.51513">
        <ele>35.41</ele>
        <time>2020-07-10T13:25:16Z</time>
      </trkpt>
      <trkpt lat="47.8041" lon="-3.51524">
        <ele>35.68</ele>
        <time>2020-07-10T13:25:17Z</time>
      </trkpt>
      <trkpt lat="47.80409" lon="-3.51525">
        <ele>35.76</ele>
        <time>2020-07-10T13:25:18Z</time>
      </trkpt>
      <trkpt lat="47.80409" lon="-3.51526">
        <ele>35.71</ele>
        <time>2020-07-10T13:25:19Z</time>
      </trkpt>
      <trkpt lat="47.80409" lon="-3.51526">
        <ele>35.72</ele>
        <time>2020-07-10T13:25:20Z</time>
      </trkpt>
      <trkpt lat="47.80409" lon="-3.51526">
        <ele>35.72</ele>
        <time>2020-07-10T13:25:21Z</time>
      </trkpt>
      <trkpt lat="47.80409" lon="-3.51526">
        <ele>35.72</ele>
        <time>2020-07-10T13:25:22Z</time>
      </trkpt>
      <trkpt lat="47.80409" lon="-3.51526">
        <ele>35.72</ele>
        <time>2020-07-10T13:25:23Z</time>
      </trkpt>
      <trkpt lat="47.80409" lon="-3.51526">
        <ele>35.72</ele>
        <time>2020-07-10T13:25:24Z</time>
      </trkpt>
      <trkpt lat="47.80409" lon="-3.51526">
        <ele>35.72</ele>
        <time>2020-07-10T13:25:25Z</time>
      </trkpt>
      <trkpt lat="47.80409" lon="-3.51526">
        <ele>35.72</ele>
        <time>2020-07-10T13:25:26Z</time>
      </trkpt>
      <trkpt lat="47.80409" lon="-3.51526">
        <ele>35.72</ele>
        <time>2020-07-10T13:25:27Z</time>
      </trkpt>
      <trkpt lat="47.80404" lon="-3.51537">
        <ele>35.96</ele>
        <time>2020-07-10T13:25:28Z</time>
      </trkpt>
      <trkpt lat="47.80404" lon="-3.5154">
        <ele>35.88</ele>
        <time>2020-07-10T13:25:29Z</time>
      </trkpt>
      <trkpt lat="47.80403" lon="-3.51543">
        <ele>35.81</ele>
        <time>2020-07-10T13:25:30Z</time>
      </trkpt>
      <trkpt lat="47.80402" lon="-3.51546">
        <ele>35.9</ele>
        <time>2020-07-10T13:25:31Z</time>
      </trkpt>
      <trkpt lat="47.80401" lon="-3.51547">
        <ele>36.04</ele>
        <time>2020-07-10T13:25:32Z</time>
      </trkpt>
      <trkpt lat="47.804" lon="-3.51549">
        <ele>36.26</ele>
        <time>2020-07-10T13:25:33Z</time>
      </trkpt>
      <trkpt lat="47.80399" lon="-3.51552">
        <ele>36.42</ele>
        <time>2020-07-10T13:25:34Z</time>
      </trkpt>
      <trkpt lat="47.80398" lon="-3.51555">
        <ele>36.52</ele>
        <time>2020-07-10T13:25:35Z</time>
      </trkpt>
      <trkpt lat="47.80397" lon="-3.51557">
        <ele>36.6</ele>
        <time>2020-07-10T13:25:36Z</time>
      </trkpt>
      <trkpt lat="47.80397" lon="-3.5156">
        <ele>36.68</ele>
        <time>2020-07-10T13:25:37Z</time>
      </trkpt>
      <trkpt lat="47.80397" lon="-3.51563">
        <ele>36.56</ele>
        <time>2020-07-10T13:25:38Z</time>
      </trkpt>
      <trkpt lat="47.80397" lon="-3.51565">
        <ele>36.41</ele>
        <time>2020-07-10T13:25:39Z</time>
      </trkpt>
      <trkpt lat="47.80396" lon="-3.51567">
        <ele>36.48</ele>
        <time>2020-07-10T13:25:40Z</time>
      </trkpt>
      <trkpt lat="47.80395" lon="-3.51569">
        <ele>36.73</ele>
        <time>2020-07-10T13:25:41Z</time>
      </trkpt>
      <trkpt lat="47.80395" lon="-3.51572">
        <ele>36.71</ele>
        <time>2020-07-10T13:25:42Z</time>
      </trkpt>
      <trkpt lat="47.80396" lon="-3.51576">
        <ele>36.5</ele>
        <time>2020-07-10T13:25:43Z</time>
      </trkpt>
      <trkpt lat="47.80396" lon="-3.51579">
        <ele>36.35</ele>
        <time>2020-07-10T13:25:44Z</time>
      </trkpt>
      <trkpt lat="47.80395" lon="-3.51581">
        <ele>36.28</ele>
        <time>2020-07-10T13:25:45Z</time>
      </trkpt>
      <trkpt lat="47.80395" lon="-3.51585">
        <ele>36.22</ele>
        <time>2020-07-10T13:25:46Z</time>
      </trkpt>
      <trkpt lat="47.80395" lon="-3.51588">
        <ele>36.21</ele>
        <time>2020-07-10T13:25:47Z</time>
      </trkpt>
      <trkpt lat="47.80396" lon="-3.51591">
        <ele>35.97</ele>
        <time>2020-07-10T13:25:48Z</time>
      </trkpt>
      <trkpt lat="47.80395" lon="-3.51595">
        <ele>35.94</ele>
        <time>2020-07-10T13:25:49Z</time>
      </trkpt>
      <trkpt lat="47.80395" lon="-3.51599">
        <ele>35.92</ele>
        <time>2020-07-10T13:25:50Z</time>
      </trkpt>
      <trkpt lat="47.80395" lon="-3.51602">
        <ele>36</ele>
        <time>2020-07-10T13:25:51Z</time>
      </trkpt>
      <trkpt lat="47.80394" lon="-3.51606">
        <ele>36.1</ele>
        <time>2020-07-10T13:25:52Z</time>
      </trkpt>
      <trkpt lat="47.80394" lon="-3.5161">
        <ele>36.16</ele>
        <time>2020-07-10T13:25:53Z</time>
      </trkpt>
      <trkpt lat="47.80394" lon="-3.51614">
        <ele>36.21</ele>
        <time>2020-07-10T13:25:54Z</time>
      </trkpt>
      <trkpt lat="47.80393" lon="-3.51617">
        <ele>36.46</ele>
        <time>2020-07-10T13:25:55Z</time>
      </trkpt>
      <trkpt lat="47.80393" lon="-3.5162">
        <ele>36.74</ele>
        <time>2020-07-10T13:25:56Z</time>
      </trkpt>
      <trkpt lat="47.80392" lon="-3.51623">
        <ele>36.98</ele>
        <time>2020-07-10T13:25:57Z</time>
      </trkpt>
      <trkpt lat="47.80392" lon="-3.51627">
        <ele>37.18</ele>
        <time>2020-07-10T13:25:58Z</time>
      </trkpt>
      <trkpt lat="47.80392" lon="-3.51631">
        <ele>37.32</ele>
        <time>2020-07-10T13:25:59Z</time>
      </trkpt>
      <trkpt lat="47.80393" lon="-3.51634">
        <ele>37.35</ele>
        <time>2020-07-10T13:26:00Z</time>
      </trkpt>
      <trkpt lat="47.80392" lon="-3.51638">
        <ele>37.61</ele>
        <time>2020-07-10T13:26:01Z</time>
      </trkpt>
      <trkpt lat="47.80392" lon="-3.51641">
        <ele>37.86</ele>
        <time>2020-07-10T13:26:02Z</time>
      </trkpt>
      <trkpt lat="47.80392" lon="-3.51644">
        <ele>38.02</ele>
        <time>2020-07-10T13:26:03Z</time>
      </trkpt>
      <trkpt lat="47.80392" lon="-3.51648">
        <ele>38.21</ele>
        <time>2020-07-10T13:26:04Z</time>
      </trkpt>
      <trkpt lat="47.80391" lon="-3.51651">
        <ele>38.4</ele>
        <time>2020-07-10T13:26:05Z</time>
      </trkpt>
      <trkpt lat="47.80391" lon="-3.51654">
        <ele>38.68</ele>
        <time>2020-07-10T13:26:06Z</time>
      </trkpt>
      <trkpt lat="47.8039" lon="-3.51657">
        <ele>39.11</ele>
        <time>2020-07-10T13:26:07Z</time>
      </trkpt>
      <trkpt lat="47.80389" lon="-3.51661">
        <ele>39.55</ele>
        <time>2020-07-10T13:26:08Z</time>
      </trkpt>
      <trkpt lat="47.80388" lon="-3.51664">
        <ele>39.89</ele>
        <time>2020-07-10T13:26:09Z</time>
      </trkpt>
      <trkpt lat="47.80387" lon="-3.51667">
        <ele>40.17</ele>
        <time>2020-07-10T13:26:10Z</time>
      </trkpt>
      <trkpt lat="47.80385" lon="-3.51669">
        <ele>40.32</ele>
        <time>2020-07-10T13:26:11Z</time>
      </trkpt>
      <trkpt lat="47.80384" lon="-3.51671">
        <ele>40.46</ele>
        <time>2020-07-10T13:26:12Z</time>
      </trkpt>
      <trkpt lat="47.80382" lon="-3.51674">
        <ele>40.6</ele>
        <time>2020-07-10T13:26:13Z</time>
      </trkpt>
      <trkpt lat="47.8038" lon="-3.51676">
        <ele>40.76</ele>
        <time>2020-07-10T13:26:14Z</time>
      </trkpt>
      <trkpt lat="47.80379" lon="-3.51679">
        <ele>40.85</ele>
        <time>2020-07-10T13:26:15Z</time>
      </trkpt>
      <trkpt lat="47.80377" lon="-3.51681">
        <ele>40.92</ele>
        <time>2020-07-10T13:26:16Z</time>
      </trkpt>
      <trkpt lat="47.80375" lon="-3.51683">
        <ele>41.02</ele>
        <time>2020-07-10T13:26:17Z</time>
      </trkpt>
      <trkpt lat="47.80372" lon="-3.51685">
        <ele>41.24</ele>
        <time>2020-07-10T13:26:18Z</time>
      </trkpt>
      <trkpt lat="47.8037" lon="-3.51687">
        <ele>41.45</ele>
        <time>2020-07-10T13:26:19Z</time>
      </trkpt>
      <trkpt lat="47.80368" lon="-3.51688">
        <ele>41.65</ele>
        <time>2020-07-10T13:26:20Z</time>
      </trkpt>
      <trkpt lat="47.80366" lon="-3.5169">
        <ele>41.77</ele>
        <time>2020-07-10T13:26:21Z</time>
      </trkpt>
      <trkpt lat="47.80364" lon="-3.51692">
        <ele>41.82</ele>
        <time>2020-07-10T13:26:22Z</time>
      </trkpt>
      <trkpt lat="47.80363" lon="-3.51694">
        <ele>41.85</ele>
        <time>2020-07-10T13:26:23Z</time>
      </trkpt>
      <trkpt lat="47.80361" lon="-3.51696">
        <ele>41.88</ele>
        <time>2020-07-10T13:26:24Z</time>
      </trkpt>
      <trkpt lat="47.8036" lon="-3.51698">
        <ele>41.78</ele>
        <time>2020-07-10T13:26:25Z</time>
      </trkpt>
      <trkpt lat="47.80357" lon="-3.517">
        <ele>41.65</ele>
        <time>2020-07-10T13:26:26Z</time>
      </trkpt>
      <trkpt lat="47.80355" lon="-3.51701">
        <ele>41.49</ele>
        <time>2020-07-10T13:26:27Z</time>
      </trkpt>
      <trkpt lat="47.80354" lon="-3.51703">
        <ele>41.3</ele>
        <time>2020-07-10T13:26:28Z</time>
      </trkpt>
      <trkpt lat="47.80352" lon="-3.51705">
        <ele>41.08</ele>
        <time>2020-07-10T13:26:29Z</time>
      </trkpt>
      <trkpt lat="47.80348" lon="-3.51707">
        <ele>40.83</ele>
        <time>2020-07-10T13:26:30Z</time>
      </trkpt>
      <trkpt lat="47.80344" lon="-3.51708">
        <ele>40.55</ele>
        <time>2020-07-10T13:26:31Z</time>
      </trkpt>
      <trkpt lat="47.8034" lon="-3.51708">
        <ele>40.31</ele>
        <time>2020-07-10T13:26:32Z</time>
      </trkpt>
      <trkpt lat="47.80335" lon="-3.51709">
        <ele>40.07</ele>
        <time>2020-07-10T13:26:33Z</time>
      </trkpt>
      <trkpt lat="47.80331" lon="-3.51709">
        <ele>39.94</ele>
        <time>2020-07-10T13:26:34Z</time>
      </trkpt>
      <trkpt lat="47.80326" lon="-3.51708">
        <ele>39.96</ele>
        <time>2020-07-10T13:26:35Z</time>
      </trkpt>
      <trkpt lat="47.80322" lon="-3.51706">
        <ele>40.03</ele>
        <time>2020-07-10T13:26:36Z</time>
      </trkpt>
      <trkpt lat="47.80318" lon="-3.51705">
        <ele>40.13</ele>
        <time>2020-07-10T13:26:37Z</time>
      </trkpt>
      <trkpt lat="47.80315" lon="-3.51704">
        <ele>40.19</ele>
        <time>2020-07-10T13:26:38Z</time>
      </trkpt>
      <trkpt lat="47.80311" lon="-3.51702">
        <ele>40.27</ele>
        <time>2020-07-10T13:26:39Z</time>
      </trkpt>
      <trkpt lat="47.80307" lon="-3.51701">
        <ele>40.35</ele>
        <time>2020-07-10T13:26:40Z</time>
      </trkpt>
      <trkpt lat="47.80304" lon="-3.517">
        <ele>40.39</ele>
        <time>2020-07-10T13:26:41Z</time>
      </trkpt>
      <trkpt lat="47.80301" lon="-3.51698">
        <ele>40.54</ele>
        <time>2020-07-10T13:26:42Z</time>
      </trkpt>
      <trkpt lat="47.80298" lon="-3.51697">
        <ele>40.69</ele>
        <time>2020-07-10T13:26:43Z</time>
      </trkpt>
      <trkpt lat="47.80295" lon="-3.51696">
        <ele>40.8</ele>
        <time>2020-07-10T13:26:44Z</time>
      </trkpt>
      <trkpt lat="47.80292" lon="-3.51695">
        <ele>40.88</ele>
        <time>2020-07-10T13:26:45Z</time>
      </trkpt>
      <trkpt lat="47.80289" lon="-3.51695">
        <ele>40.94</ele>
        <time>2020-07-10T13:26:46Z</time>
      </trkpt>
      <trkpt lat="47.80286" lon="-3.51694">
        <ele>41.02</ele>
        <time>2020-07-10T13:26:47Z</time>
      </trkpt>
      <trkpt lat="47.80281" lon="-3.51693">
        <ele>41.08</ele>
        <time>2020-07-10T13:26:48Z</time>
      </trkpt>
      <trkpt lat="47.80277" lon="-3.51692">
        <ele>41.12</ele>
        <time>2020-07-10T13:26:49Z</time>
      </trkpt>
      <trkpt lat="47.80274" lon="-3.5169">
        <ele>40.85</ele>
        <time>2020-07-10T13:26:50Z</time>
      </trkpt>
      <trkpt lat="47.80271" lon="-3.51688">
        <ele>40.58</ele>
        <time>2020-07-10T13:26:51Z</time>
      </trkpt>
      <trkpt lat="47.80267" lon="-3.51687">
        <ele>40.26</ele>
        <time>2020-07-10T13:26:52Z</time>
      </trkpt>
      <trkpt lat="47.80264" lon="-3.51686">
        <ele>39.96</ele>
        <time>2020-07-10T13:26:53Z</time>
      </trkpt>
      <trkpt lat="47.8026" lon="-3.51684">
        <ele>39.59</ele>
        <time>2020-07-10T13:26:54Z</time>
      </trkpt>
      <trkpt lat="47.80255" lon="-3.51684">
        <ele>39.02</ele>
        <time>2020-07-10T13:26:55Z</time>
      </trkpt>
      <trkpt lat="47.80248" lon="-3.51684">
        <ele>38.3</ele>
        <time>2020-07-10T13:26:56Z</time>
      </trkpt>
      <trkpt lat="47.80243" lon="-3.51684">
        <ele>37.69</ele>
        <time>2020-07-10T13:26:57Z</time>
      </trkpt>
      <trkpt lat="47.80237" lon="-3.51686">
        <ele>37</ele>
        <time>2020-07-10T13:26:58Z</time>
      </trkpt>
      <trkpt lat="47.80231" lon="-3.51688">
        <ele>36.14</ele>
        <time>2020-07-10T13:26:59Z</time>
      </trkpt>
      <trkpt lat="47.80224" lon="-3.5169">
        <ele>35.18</ele>
        <time>2020-07-10T13:27:00Z</time>
      </trkpt>
      <trkpt lat="47.80217" lon="-3.51694">
        <ele>34.43</ele>
        <time>2020-07-10T13:27:01Z</time>
      </trkpt>
      <trkpt lat="47.80211" lon="-3.51696">
        <ele>34.02</ele>
        <time>2020-07-10T13:27:02Z</time>
      </trkpt>
      <trkpt lat="47.80205" lon="-3.51697">
        <ele>33.85</ele>
        <time>2020-07-10T13:27:03Z</time>
      </trkpt>
      <trkpt lat="47.802" lon="-3.51696">
        <ele>33.86</ele>
        <time>2020-07-10T13:27:04Z</time>
      </trkpt>
      <trkpt lat="47.80195" lon="-3.51693">
        <ele>34.07</ele>
        <time>2020-07-10T13:27:05Z</time>
      </trkpt>
      <trkpt lat="47.80191" lon="-3.51691">
        <ele>34.48</ele>
        <time>2020-07-10T13:27:06Z</time>
      </trkpt>
      <trkpt lat="47.80186" lon="-3.5169">
        <ele>34.86</ele>
        <time>2020-07-10T13:27:07Z</time>
      </trkpt>
      <trkpt lat="47.80181" lon="-3.51689">
        <ele>35.24</ele>
        <time>2020-07-10T13:27:08Z</time>
      </trkpt>
      <trkpt lat="47.80176" lon="-3.51687">
        <ele>35.59</ele>
        <time>2020-07-10T13:27:09Z</time>
      </trkpt>
      <trkpt lat="47.80173" lon="-3.51686">
        <ele>35.88</ele>
        <time>2020-07-10T13:27:10Z</time>
      </trkpt>
      <trkpt lat="47.80169" lon="-3.51684">
        <ele>36.13</ele>
        <time>2020-07-10T13:27:11Z</time>
      </trkpt>
      <trkpt lat="47.80165" lon="-3.51684">
        <ele>36.32</ele>
        <time>2020-07-10T13:27:12Z</time>
      </trkpt>
      <trkpt lat="47.80162" lon="-3.51683">
        <ele>36.46</ele>
        <time>2020-07-10T13:27:13Z</time>
      </trkpt>
      <trkpt lat="47.80159" lon="-3.51681">
        <ele>36.57</ele>
        <time>2020-07-10T13:27:14Z</time>
      </trkpt>
      <trkpt lat="47.80155" lon="-3.5168">
        <ele>36.68</ele>
        <time>2020-07-10T13:27:15Z</time>
      </trkpt>
      <trkpt lat="47.80151" lon="-3.51678">
        <ele>36.78</ele>
        <time>2020-07-10T13:27:16Z</time>
      </trkpt>
      <trkpt lat="47.80146" lon="-3.51678">
        <ele>36.86</ele>
        <time>2020-07-10T13:27:17Z</time>
      </trkpt>
      <trkpt lat="47.80143" lon="-3.51678">
        <ele>36.92</ele>
        <time>2020-07-10T13:27:18Z</time>
      </trkpt>
      <trkpt lat="47.8014" lon="-3.5168">
        <ele>36.96</ele>
        <time>2020-07-10T13:27:19Z</time>
      </trkpt>
      <trkpt lat="47.80139" lon="-3.51682">
        <ele>36.99</ele>
        <time>2020-07-10T13:27:20Z</time>
      </trkpt>
      <trkpt lat="47.80138" lon="-3.51682">
        <ele>37.01</ele>
        <time>2020-07-10T13:27:21Z</time>
      </trkpt>
      <trkpt lat="47.80138" lon="-3.51686">
        <ele>37.03</ele>
        <time>2020-07-10T13:27:22Z</time>
      </trkpt>
      <trkpt lat="47.80137" lon="-3.5169">
        <ele>37.04</ele>
        <time>2020-07-10T13:27:23Z</time>
      </trkpt>
      <trkpt lat="47.80137" lon="-3.51693">
        <ele>37.06</ele>
        <time>2020-07-10T13:27:24Z</time>
      </trkpt>
      <trkpt lat="47.80136" lon="-3.51697">
        <ele>37.1</ele>
        <time>2020-07-10T13:27:25Z</time>
      </trkpt>
      <trkpt lat="47.80135" lon="-3.517">
        <ele>37.15</ele>
        <time>2020-07-10T13:27:26Z</time>
      </trkpt>
      <trkpt lat="47.80134" lon="-3.51702">
        <ele>37.21</ele>
        <time>2020-07-10T13:27:27Z</time>
      </trkpt>
      <trkpt lat="47.80133" lon="-3.51704">
        <ele>37.28</ele>
        <time>2020-07-10T13:27:28Z</time>
      </trkpt>
      <trkpt lat="47.80132" lon="-3.51708">
        <ele>37.36</ele>
        <time>2020-07-10T13:27:29Z</time>
      </trkpt>
      <trkpt lat="47.8013" lon="-3.51711">
        <ele>37.45</ele>
        <time>2020-07-10T13:27:30Z</time>
      </trkpt>
      <trkpt lat="47.80129" lon="-3.51715">
        <ele>37.54</ele>
        <time>2020-07-10T13:27:31Z</time>
      </trkpt>
      <trkpt lat="47.80129" lon="-3.51719">
        <ele>37.65</ele>
        <time>2020-07-10T13:27:32Z</time>
      </trkpt>
      <trkpt lat="47.80128" lon="-3.51723">
        <ele>37.74</ele>
        <time>2020-07-10T13:27:33Z</time>
      </trkpt>
      <trkpt lat="47.80127" lon="-3.51727">
        <ele>37.74</ele>
        <time>2020-07-10T13:27:34Z</time>
      </trkpt>
      <trkpt lat="47.80126" lon="-3.51731">
        <ele>37.75</ele>
        <time>2020-07-10T13:27:35Z</time>
      </trkpt>
      <trkpt lat="47.80125" lon="-3.51734">
        <ele>37.77</ele>
        <time>2020-07-10T13:27:36Z</time>
      </trkpt>
      <trkpt lat="47.80125" lon="-3.51737">
        <ele>37.76</ele>
        <time>2020-07-10T13:27:37Z</time>
      </trkpt>
      <trkpt lat="47.80124" lon="-3.5174">
        <ele>37.79</ele>
        <time>2020-07-10T13:27:38Z</time>
      </trkpt>
      <trkpt lat="47.80122" lon="-3.51743">
        <ele>37.85</ele>
        <time>2020-07-10T13:27:39Z</time>
      </trkpt>
      <trkpt lat="47.8012" lon="-3.51746">
        <ele>37.99</ele>
        <time>2020-07-10T13:27:40Z</time>
      </trkpt>
      <trkpt lat="47.80119" lon="-3.51749">
        <ele>38.12</ele>
        <time>2020-07-10T13:27:41Z</time>
      </trkpt>
      <trkpt lat="47.80117" lon="-3.51751">
        <ele>38.23</ele>
        <time>2020-07-10T13:27:42Z</time>
      </trkpt>
      <trkpt lat="47.80117" lon="-3.51753">
        <ele>38.27</ele>
        <time>2020-07-10T13:27:43Z</time>
      </trkpt>
      <trkpt lat="47.80116" lon="-3.51755">
        <ele>38.31</ele>
        <time>2020-07-10T13:27:44Z</time>
      </trkpt>
      <trkpt lat="47.80113" lon="-3.51758">
        <ele>38.43</ele>
        <time>2020-07-10T13:27:45Z</time>
      </trkpt>
      <trkpt lat="47.8011" lon="-3.51762">
        <ele>38.55</ele>
        <time>2020-07-10T13:27:46Z</time>
      </trkpt>
      <trkpt lat="47.80107" lon="-3.51766">
        <ele>38.55</ele>
        <time>2020-07-10T13:27:47Z</time>
      </trkpt>
      <trkpt lat="47.80106" lon="-3.51772">
        <ele>38.46</ele>
        <time>2020-07-10T13:27:48Z</time>
      </trkpt>
      <trkpt lat="47.80103" lon="-3.51776">
        <ele>38.36</ele>
        <time>2020-07-10T13:27:49Z</time>
      </trkpt>
      <trkpt lat="47.801" lon="-3.51781">
        <ele>38.11</ele>
        <time>2020-07-10T13:27:50Z</time>
      </trkpt>
      <trkpt lat="47.80097" lon="-3.51786">
        <ele>37.75</ele>
        <time>2020-07-10T13:27:51Z</time>
      </trkpt>
      <trkpt lat="47.80092" lon="-3.51792">
        <ele>37.36</ele>
        <time>2020-07-10T13:27:52Z</time>
      </trkpt>
      <trkpt lat="47.80087" lon="-3.51797">
        <ele>36.98</ele>
        <time>2020-07-10T13:27:53Z</time>
      </trkpt>
      <trkpt lat="47.80082" lon="-3.51802">
        <ele>36.52</ele>
        <time>2020-07-10T13:27:54Z</time>
      </trkpt>
      <trkpt lat="47.80077" lon="-3.51807">
        <ele>36.02</ele>
        <time>2020-07-10T13:27:55Z</time>
      </trkpt>
      <trkpt lat="47.80073" lon="-3.51811">
        <ele>35.42</ele>
        <time>2020-07-10T13:27:56Z</time>
      </trkpt>
      <trkpt lat="47.80069" lon="-3.51815">
        <ele>34.77</ele>
        <time>2020-07-10T13:27:57Z</time>
      </trkpt>
      <trkpt lat="47.80065" lon="-3.51818">
        <ele>34.19</ele>
        <time>2020-07-10T13:27:58Z</time>
      </trkpt>
      <trkpt lat="47.80061" lon="-3.5182">
        <ele>33.73</ele>
        <time>2020-07-10T13:27:59Z</time>
      </trkpt>
      <trkpt lat="47.80058" lon="-3.51822">
        <ele>33.28</ele>
        <time>2020-07-10T13:28:00Z</time>
      </trkpt>
      <trkpt lat="47.80054" lon="-3.51824">
        <ele>32.87</ele>
        <time>2020-07-10T13:28:01Z</time>
      </trkpt>
      <trkpt lat="47.8005" lon="-3.51824">
        <ele>32.65</ele>
        <time>2020-07-10T13:28:02Z</time>
      </trkpt>
      <trkpt lat="47.80047" lon="-3.51824">
        <ele>32.46</ele>
        <time>2020-07-10T13:28:03Z</time>
      </trkpt>
      <trkpt lat="47.80044" lon="-3.51823">
        <ele>32.42</ele>
        <time>2020-07-10T13:28:04Z</time>
      </trkpt>
      <trkpt lat="47.8004" lon="-3.51822">
        <ele>32.53</ele>
        <time>2020-07-10T13:28:05Z</time>
      </trkpt>
      <trkpt lat="47.80037" lon="-3.5182">
        <ele>32.67</ele>
        <time>2020-07-10T13:28:06Z</time>
      </trkpt>
      <trkpt lat="47.80034" lon="-3.51818">
        <ele>32.92</ele>
        <time>2020-07-10T13:28:07Z</time>
      </trkpt>
      <trkpt lat="47.80031" lon="-3.51816">
        <ele>33.12</ele>
        <time>2020-07-10T13:28:08Z</time>
      </trkpt>
      <trkpt lat="47.80028" lon="-3.51814">
        <ele>33.37</ele>
        <time>2020-07-10T13:28:09Z</time>
      </trkpt>
      <trkpt lat="47.80026" lon="-3.51812">
        <ele>33.7</ele>
        <time>2020-07-10T13:28:10Z</time>
      </trkpt>
      <trkpt lat="47.80023" lon="-3.5181">
        <ele>34.05</ele>
        <time>2020-07-10T13:28:11Z</time>
      </trkpt>
      <trkpt lat="47.8002" lon="-3.51808">
        <ele>34.47</ele>
        <time>2020-07-10T13:28:12Z</time>
      </trkpt>
      <trkpt lat="47.80017" lon="-3.51805">
        <ele>34.87</ele>
        <time>2020-07-10T13:28:13Z</time>
      </trkpt>
      <trkpt lat="47.80013" lon="-3.51803">
        <ele>35.25</ele>
        <time>2020-07-10T13:28:14Z</time>
      </trkpt>
      <trkpt lat="47.8001" lon="-3.51801">
        <ele>35.61</ele>
        <time>2020-07-10T13:28:15Z</time>
      </trkpt>
      <trkpt lat="47.80007" lon="-3.51799">
        <ele>36.01</ele>
        <time>2020-07-10T13:28:16Z</time>
      </trkpt>
      <trkpt lat="47.80004" lon="-3.51796">
        <ele>36.43</ele>
        <time>2020-07-10T13:28:17Z</time>
      </trkpt>
      <trkpt lat="47.80002" lon="-3.51795">
        <ele>36.78</ele>
        <time>2020-07-10T13:28:18Z</time>
      </trkpt>
      <trkpt lat="47.79999" lon="-3.51793">
        <ele>37.14</ele>
        <time>2020-07-10T13:28:19Z</time>
      </trkpt>
      <trkpt lat="47.79997" lon="-3.51791">
        <ele>37.52</ele>
        <time>2020-07-10T13:28:20Z</time>
      </trkpt>
      <trkpt lat="47.79994" lon="-3.5179">
        <ele>37.85</ele>
        <time>2020-07-10T13:28:21Z</time>
      </trkpt>
      <trkpt lat="47.79992" lon="-3.51789">
        <ele>38.11</ele>
        <time>2020-07-10T13:28:22Z</time>
      </trkpt>
      <trkpt lat="47.7999" lon="-3.51788">
        <ele>38.36</ele>
        <time>2020-07-10T13:28:23Z</time>
      </trkpt>
      <trkpt lat="47.79987" lon="-3.51788">
        <ele>38.57</ele>
        <time>2020-07-10T13:28:24Z</time>
      </trkpt>
      <trkpt lat="47.79984" lon="-3.51788">
        <ele>38.68</ele>
        <time>2020-07-10T13:28:25Z</time>
      </trkpt>
      <trkpt lat="47.79982" lon="-3.51788">
        <ele>38.76</ele>
        <time>2020-07-10T13:28:26Z</time>
      </trkpt>
      <trkpt lat="47.79981" lon="-3.51788">
        <ele>38.88</ele>
        <time>2020-07-10T13:28:27Z</time>
      </trkpt>
      <trkpt lat="47.79979" lon="-3.51787">
        <ele>39.01</ele>
        <time>2020-07-10T13:28:28Z</time>
      </trkpt>
      <trkpt lat="47.79977" lon="-3.51787">
        <ele>39.11</ele>
        <time>2020-07-10T13:28:29Z</time>
      </trkpt>
      <trkpt lat="47.79975" lon="-3.51787">
        <ele>39.24</ele>
        <time>2020-07-10T13:28:30Z</time>
      </trkpt>
      <trkpt lat="47.79973" lon="-3.51786">
        <ele>39.38</ele>
        <time>2020-07-10T13:28:31Z</time>
      </trkpt>
      <trkpt lat="47.7997" lon="-3.51786">
        <ele>39.48</ele>
        <time>2020-07-10T13:28:32Z</time>
      </trkpt>
      <trkpt lat="47.79968" lon="-3.51786">
        <ele>39.55</ele>
        <time>2020-07-10T13:28:33Z</time>
      </trkpt>
      <trkpt lat="47.79965" lon="-3.51786">
        <ele>39.49</ele>
        <time>2020-07-10T13:28:34Z</time>
      </trkpt>
      <trkpt lat="47.79963" lon="-3.51787">
        <ele>39.43</ele>
        <time>2020-07-10T13:28:35Z</time>
      </trkpt>
      <trkpt lat="47.79961" lon="-3.51787">
        <ele>39.32</ele>
        <time>2020-07-10T13:28:36Z</time>
      </trkpt>
      <trkpt lat="47.79959" lon="-3.51788">
        <ele>39.27</ele>
        <time>2020-07-10T13:28:37Z</time>
      </trkpt>
      <trkpt lat="47.79957" lon="-3.51787">
        <ele>39.28</ele>
        <time>2020-07-10T13:28:38Z</time>
      </trkpt>
      <trkpt lat="47.79954" lon="-3.51787">
        <ele>39.3</ele>
        <time>2020-07-10T13:28:39Z</time>
      </trkpt>
      <trkpt lat="47.79952" lon="-3.51787">
        <ele>39.35</ele>
        <time>2020-07-10T13:28:40Z</time>
      </trkpt>
      <trkpt lat="47.79949" lon="-3.51786">
        <ele>39.47</ele>
        <time>2020-07-10T13:28:41Z</time>
      </trkpt>
      <trkpt lat="47.79945" lon="-3.51786">
        <ele>39.53</ele>
        <time>2020-07-10T13:28:42Z</time>
      </trkpt>
      <trkpt lat="47.79942" lon="-3.51786">
        <ele>39.64</ele>
        <time>2020-07-10T13:28:43Z</time>
      </trkpt>
      <trkpt lat="47.79939" lon="-3.51786">
        <ele>39.79</ele>
        <time>2020-07-10T13:28:44Z</time>
      </trkpt>
      <trkpt lat="47.79937" lon="-3.51787">
        <ele>39.88</ele>
        <time>2020-07-10T13:28:45Z</time>
      </trkpt>
      <trkpt lat="47.79935" lon="-3.51787">
        <ele>40.01</ele>
        <time>2020-07-10T13:28:46Z</time>
      </trkpt>
      <trkpt lat="47.79932" lon="-3.51788">
        <ele>40.13</ele>
        <time>2020-07-10T13:28:47Z</time>
      </trkpt>
      <trkpt lat="47.79928" lon="-3.51788">
        <ele>40.3</ele>
        <time>2020-07-10T13:28:48Z</time>
      </trkpt>
      <trkpt lat="47.79925" lon="-3.51789">
        <ele>40.38</ele>
        <time>2020-07-10T13:28:49Z</time>
      </trkpt>
      <trkpt lat="47.79922" lon="-3.5179">
        <ele>40.39</ele>
        <time>2020-07-10T13:28:50Z</time>
      </trkpt>
      <trkpt lat="47.79919" lon="-3.51792">
        <ele>40.38</ele>
        <time>2020-07-10T13:28:51Z</time>
      </trkpt>
      <trkpt lat="47.79915" lon="-3.51794">
        <ele>40.21</ele>
        <time>2020-07-10T13:28:52Z</time>
      </trkpt>
      <trkpt lat="47.79912" lon="-3.51797">
        <ele>39.94</ele>
        <time>2020-07-10T13:28:53Z</time>
      </trkpt>
      <trkpt lat="47.79909" lon="-3.51799">
        <ele>39.69</ele>
        <time>2020-07-10T13:28:54Z</time>
      </trkpt>
      <trkpt lat="47.79905" lon="-3.51802">
        <ele>39.51</ele>
        <time>2020-07-10T13:28:55Z</time>
      </trkpt>
      <trkpt lat="47.79902" lon="-3.51804">
        <ele>39.36</ele>
        <time>2020-07-10T13:28:56Z</time>
      </trkpt>
      <trkpt lat="47.79899" lon="-3.51806">
        <ele>39.3</ele>
        <time>2020-07-10T13:28:57Z</time>
      </trkpt>
      <trkpt lat="47.79895" lon="-3.51809">
        <ele>39.22</ele>
        <time>2020-07-10T13:28:58Z</time>
      </trkpt>
      <trkpt lat="47.7989" lon="-3.51813">
        <ele>39.15</ele>
        <time>2020-07-10T13:28:59Z</time>
      </trkpt>
      <trkpt lat="47.79886" lon="-3.51815">
        <ele>39.02</ele>
        <time>2020-07-10T13:29:00Z</time>
      </trkpt>
      <trkpt lat="47.79881" lon="-3.51819">
        <ele>38.82</ele>
        <time>2020-07-10T13:29:01Z</time>
      </trkpt>
      <trkpt lat="47.79877" lon="-3.51821">
        <ele>38.64</ele>
        <time>2020-07-10T13:29:02Z</time>
      </trkpt>
      <trkpt lat="47.79873" lon="-3.51825">
        <ele>38.41</ele>
        <time>2020-07-10T13:29:03Z</time>
      </trkpt>
      <trkpt lat="47.79869" lon="-3.51828">
        <ele>38.22</ele>
        <time>2020-07-10T13:29:04Z</time>
      </trkpt>
      <trkpt lat="47.79864" lon="-3.51831">
        <ele>38.14</ele>
        <time>2020-07-10T13:29:05Z</time>
      </trkpt>
      <trkpt lat="47.7986" lon="-3.51834">
        <ele>38.05</ele>
        <time>2020-07-10T13:29:06Z</time>
      </trkpt>
      <trkpt lat="47.79856" lon="-3.51837">
        <ele>37.95</ele>
        <time>2020-07-10T13:29:07Z</time>
      </trkpt>
      <trkpt lat="47.79853" lon="-3.51841">
        <ele>37.88</ele>
        <time>2020-07-10T13:29:08Z</time>
      </trkpt>
      <trkpt lat="47.79849" lon="-3.51844">
        <ele>37.84</ele>
        <time>2020-07-10T13:29:09Z</time>
      </trkpt>
      <trkpt lat="47.79846" lon="-3.51847">
        <ele>37.84</ele>
        <time>2020-07-10T13:29:10Z</time>
      </trkpt>
      <trkpt lat="47.79842" lon="-3.51851">
        <ele>37.87</ele>
        <time>2020-07-10T13:29:11Z</time>
      </trkpt>
      <trkpt lat="47.79838" lon="-3.51854">
        <ele>37.95</ele>
        <time>2020-07-10T13:29:12Z</time>
      </trkpt>
      <trkpt lat="47.79834" lon="-3.51857">
        <ele>38.07</ele>
        <time>2020-07-10T13:29:13Z</time>
      </trkpt>
      <trkpt lat="47.7983" lon="-3.5186">
        <ele>38.22</ele>
        <time>2020-07-10T13:29:14Z</time>
      </trkpt>
      <trkpt lat="47.79826" lon="-3.51864">
        <ele>38.36</ele>
        <time>2020-07-10T13:29:15Z</time>
      </trkpt>
      <trkpt lat="47.79821" lon="-3.51867">
        <ele>38.53</ele>
        <time>2020-07-10T13:29:16Z</time>
      </trkpt>
      <trkpt lat="47.79815" lon="-3.5187">
        <ele>38.69</ele>
        <time>2020-07-10T13:29:17Z</time>
      </trkpt>
      <trkpt lat="47.7981" lon="-3.51873">
        <ele>38.87</ele>
        <time>2020-07-10T13:29:18Z</time>
      </trkpt>
      <trkpt lat="47.79803" lon="-3.51875">
        <ele>38.98</ele>
        <time>2020-07-10T13:29:19Z</time>
      </trkpt>
      <trkpt lat="47.79797" lon="-3.51878">
        <ele>38.95</ele>
        <time>2020-07-10T13:29:20Z</time>
      </trkpt>
      <trkpt lat="47.79791" lon="-3.5188">
        <ele>38.83</ele>
        <time>2020-07-10T13:29:21Z</time>
      </trkpt>
      <trkpt lat="47.79785" lon="-3.51883">
        <ele>38.68</ele>
        <time>2020-07-10T13:29:22Z</time>
      </trkpt>
      <trkpt lat="47.79779" lon="-3.51885">
        <ele>38.52</ele>
        <time>2020-07-10T13:29:23Z</time>
      </trkpt>
      <trkpt lat="47.79774" lon="-3.51886">
        <ele>38.45</ele>
        <time>2020-07-10T13:29:24Z</time>
      </trkpt>
      <trkpt lat="47.7977" lon="-3.51888">
        <ele>38.37</ele>
        <time>2020-07-10T13:29:25Z</time>
      </trkpt>
      <trkpt lat="47.79767" lon="-3.51889">
        <ele>38.36</ele>
        <time>2020-07-10T13:29:26Z</time>
      </trkpt>
      <trkpt lat="47.79763" lon="-3.5189">
        <ele>38.42</ele>
        <time>2020-07-10T13:29:27Z</time>
      </trkpt>
      <trkpt lat="47.79761" lon="-3.51891">
        <ele>38.35</ele>
        <time>2020-07-10T13:29:28Z</time>
      </trkpt>
      <trkpt lat="47.79759" lon="-3.51892">
        <ele>38.23</ele>
        <time>2020-07-10T13:29:29Z</time>
      </trkpt>
      <trkpt lat="47.79757" lon="-3.51894">
        <ele>38.12</ele>
        <time>2020-07-10T13:29:30Z</time>
      </trkpt>
      <trkpt lat="47.79754" lon="-3.51895">
        <ele>38</ele>
        <time>2020-07-10T13:29:31Z</time>
      </trkpt>
      <trkpt lat="47.79752" lon="-3.51897">
        <ele>37.79</ele>
        <time>2020-07-10T13:29:32Z</time>
      </trkpt>
      <trkpt lat="47.79749" lon="-3.51901">
        <ele>37.53</ele>
        <time>2020-07-10T13:29:33Z</time>
      </trkpt>
      <trkpt lat="47.79747" lon="-3.51904">
        <ele>37.27</ele>
        <time>2020-07-10T13:29:34Z</time>
      </trkpt>
      <trkpt lat="47.79744" lon="-3.51907">
        <ele>37.18</ele>
        <time>2020-07-10T13:29:35Z</time>
      </trkpt>
      <trkpt lat="47.79741" lon="-3.5191">
        <ele>37.13</ele>
        <time>2020-07-10T13:29:36Z</time>
      </trkpt>
      <trkpt lat="47.79738" lon="-3.51913">
        <ele>37.19</ele>
        <time>2020-07-10T13:29:37Z</time>
      </trkpt>
      <trkpt lat="47.79734" lon="-3.51915">
        <ele>37.43</ele>
        <time>2020-07-10T13:29:38Z</time>
      </trkpt>
      <trkpt lat="47.79729" lon="-3.51917">
        <ele>37.8</ele>
        <time>2020-07-10T13:29:39Z</time>
      </trkpt>
      <trkpt lat="47.79726" lon="-3.51918">
        <ele>38.09</ele>
        <time>2020-07-10T13:29:40Z</time>
      </trkpt>
      <trkpt lat="47.79722" lon="-3.51921">
        <ele>38.18</ele>
        <time>2020-07-10T13:29:41Z</time>
      </trkpt>
      <trkpt lat="47.79719" lon="-3.51924">
        <ele>38.16</ele>
        <time>2020-07-10T13:29:42Z</time>
      </trkpt>
      <trkpt lat="47.79716" lon="-3.51926">
        <ele>38.22</ele>
        <time>2020-07-10T13:29:43Z</time>
      </trkpt>
      <trkpt lat="47.79712" lon="-3.51927">
        <ele>38.51</ele>
        <time>2020-07-10T13:29:44Z</time>
      </trkpt>
      <trkpt lat="47.79709" lon="-3.51929">
        <ele>38.79</ele>
        <time>2020-07-10T13:29:45Z</time>
      </trkpt>
      <trkpt lat="47.79706" lon="-3.51932">
        <ele>38.86</ele>
        <time>2020-07-10T13:29:46Z</time>
      </trkpt>
      <trkpt lat="47.79704" lon="-3.51936">
        <ele>38.87</ele>
        <time>2020-07-10T13:29:47Z</time>
      </trkpt>
      <trkpt lat="47.79702" lon="-3.5194">
        <ele>38.88</ele>
        <time>2020-07-10T13:29:48Z</time>
      </trkpt>
      <trkpt lat="47.79699" lon="-3.51945">
        <ele>38.92</ele>
        <time>2020-07-10T13:29:49Z</time>
      </trkpt>
      <trkpt lat="47.79696" lon="-3.5195">
        <ele>38.77</ele>
        <time>2020-07-10T13:29:50Z</time>
      </trkpt>
      <trkpt lat="47.79693" lon="-3.51956">
        <ele>38.62</ele>
        <time>2020-07-10T13:29:51Z</time>
      </trkpt>
      <trkpt lat="47.79689" lon="-3.51962">
        <ele>38.49</ele>
        <time>2020-07-10T13:29:52Z</time>
      </trkpt>
      <trkpt lat="47.79686" lon="-3.51966">
        <ele>38.55</ele>
        <time>2020-07-10T13:29:53Z</time>
      </trkpt>
      <trkpt lat="47.79681" lon="-3.5197">
        <ele>38.9</ele>
        <time>2020-07-10T13:29:54Z</time>
      </trkpt>
      <trkpt lat="47.79677" lon="-3.51972">
        <ele>39.45</ele>
        <time>2020-07-10T13:29:55Z</time>
      </trkpt>
      <trkpt lat="47.79674" lon="-3.51973">
        <ele>40.05</ele>
        <time>2020-07-10T13:29:56Z</time>
      </trkpt>
      <trkpt lat="47.7967" lon="-3.51975">
        <ele>40.58</ele>
        <time>2020-07-10T13:29:57Z</time>
      </trkpt>
      <trkpt lat="47.79667" lon="-3.51976">
        <ele>41.11</ele>
        <time>2020-07-10T13:29:58Z</time>
      </trkpt>
      <trkpt lat="47.79664" lon="-3.51979">
        <ele>41.25</ele>
        <time>2020-07-10T13:29:59Z</time>
      </trkpt>
      <trkpt lat="47.79661" lon="-3.5198">
        <ele>41.35</ele>
        <time>2020-07-10T13:30:00Z</time>
      </trkpt>
      <trkpt lat="47.79657" lon="-3.51983">
        <ele>41.32</ele>
        <time>2020-07-10T13:30:01Z</time>
      </trkpt>
      <trkpt lat="47.79654" lon="-3.51987">
        <ele>41.28</ele>
        <time>2020-07-10T13:30:02Z</time>
      </trkpt>
      <trkpt lat="47.7965" lon="-3.51992">
        <ele>41.23</ele>
        <time>2020-07-10T13:30:03Z</time>
      </trkpt>
      <trkpt lat="47.79647" lon="-3.51996">
        <ele>41.21</ele>
        <time>2020-07-10T13:30:04Z</time>
      </trkpt>
      <trkpt lat="47.79642" lon="-3.52002">
        <ele>41.23</ele>
        <time>2020-07-10T13:30:05Z</time>
      </trkpt>
      <trkpt lat="47.79638" lon="-3.52007">
        <ele>41.25</ele>
        <time>2020-07-10T13:30:06Z</time>
      </trkpt>
      <trkpt lat="47.79635" lon="-3.52011">
        <ele>40.96</ele>
        <time>2020-07-10T13:30:07Z</time>
      </trkpt>
      <trkpt lat="47.79632" lon="-3.52015">
        <ele>40.53</ele>
        <time>2020-07-10T13:30:08Z</time>
      </trkpt>
      <trkpt lat="47.79628" lon="-3.52021">
        <ele>39.98</ele>
        <time>2020-07-10T13:30:09Z</time>
      </trkpt>
      <trkpt lat="47.79625" lon="-3.52029">
        <ele>39.23</ele>
        <time>2020-07-10T13:30:10Z</time>
      </trkpt>
      <trkpt lat="47.79622" lon="-3.52036">
        <ele>38.48</ele>
        <time>2020-07-10T13:30:11Z</time>
      </trkpt>
      <trkpt lat="47.79619" lon="-3.52047">
        <ele>37.61</ele>
        <time>2020-07-10T13:30:12Z</time>
      </trkpt>
      <trkpt lat="47.79617" lon="-3.52056">
        <ele>36.86</ele>
        <time>2020-07-10T13:30:13Z</time>
      </trkpt>
      <trkpt lat="47.79614" lon="-3.52065">
        <ele>36.32</ele>
        <time>2020-07-10T13:30:14Z</time>
      </trkpt>
      <trkpt lat="47.79611" lon="-3.52074">
        <ele>35.88</ele>
        <time>2020-07-10T13:30:15Z</time>
      </trkpt>
      <trkpt lat="47.79606" lon="-3.52082">
        <ele>35.44</ele>
        <time>2020-07-10T13:30:16Z</time>
      </trkpt>
      <trkpt lat="47.79603" lon="-3.52091">
        <ele>34.95</ele>
        <time>2020-07-10T13:30:17Z</time>
      </trkpt>
      <trkpt lat="47.79599" lon="-3.52101">
        <ele>34.39</ele>
        <time>2020-07-10T13:30:18Z</time>
      </trkpt>
      <trkpt lat="47.79595" lon="-3.52111">
        <ele>33.81</ele>
        <time>2020-07-10T13:30:19Z</time>
      </trkpt>
      <trkpt lat="47.79593" lon="-3.52121">
        <ele>33.12</ele>
        <time>2020-07-10T13:30:20Z</time>
      </trkpt>
      <trkpt lat="47.79591" lon="-3.52132">
        <ele>32.37</ele>
        <time>2020-07-10T13:30:21Z</time>
      </trkpt>
      <trkpt lat="47.7959" lon="-3.52142">
        <ele>31.67</ele>
        <time>2020-07-10T13:30:22Z</time>
      </trkpt>
      <trkpt lat="47.7959" lon="-3.52151">
        <ele>31.17</ele>
        <time>2020-07-10T13:30:23Z</time>
      </trkpt>
      <trkpt lat="47.79591" lon="-3.5216">
        <ele>30.73</ele>
        <time>2020-07-10T13:30:24Z</time>
      </trkpt>
      <trkpt lat="47.79591" lon="-3.5217">
        <ele>30.17</ele>
        <time>2020-07-10T13:30:25Z</time>
      </trkpt>
      <trkpt lat="47.79592" lon="-3.5218">
        <ele>29.35</ele>
        <time>2020-07-10T13:30:26Z</time>
      </trkpt>
      <trkpt lat="47.79593" lon="-3.52191">
        <ele>28.36</ele>
        <time>2020-07-10T13:30:27Z</time>
      </trkpt>
      <trkpt lat="47.79595" lon="-3.522">
        <ele>27.26</ele>
        <time>2020-07-10T13:30:28Z</time>
      </trkpt>
      <trkpt lat="47.79597" lon="-3.5221">
        <ele>26.18</ele>
        <time>2020-07-10T13:30:29Z</time>
      </trkpt>
      <trkpt lat="47.79598" lon="-3.52216">
        <ele>25.31</ele>
        <time>2020-07-10T13:30:30Z</time>
      </trkpt>
      <trkpt lat="47.79598" lon="-3.52222">
        <ele>24.58</ele>
        <time>2020-07-10T13:30:31Z</time>
      </trkpt>
      <trkpt lat="47.79598" lon="-3.52228">
        <ele>24.19</ele>
        <time>2020-07-10T13:30:32Z</time>
      </trkpt>
      <trkpt lat="47.79599" lon="-3.52233">
        <ele>23.77</ele>
        <time>2020-07-10T13:30:33Z</time>
      </trkpt>
      <trkpt lat="47.79599" lon="-3.52239">
        <ele>23.37</ele>
        <time>2020-07-10T13:30:34Z</time>
      </trkpt>
      <trkpt lat="47.796" lon="-3.52247">
        <ele>22.89</ele>
        <time>2020-07-10T13:30:35Z</time>
      </trkpt>
      <trkpt lat="47.79599" lon="-3.52255">
        <ele>22.75</ele>
        <time>2020-07-10T13:30:36Z</time>
      </trkpt>
      <trkpt lat="47.79598" lon="-3.52264">
        <ele>22.91</ele>
        <time>2020-07-10T13:30:37Z</time>
      </trkpt>
      <trkpt lat="47.79597" lon="-3.52272">
        <ele>23.29</ele>
        <time>2020-07-10T13:30:38Z</time>
      </trkpt>
      <trkpt lat="47.79596" lon="-3.5228">
        <ele>23.63</ele>
        <time>2020-07-10T13:30:39Z</time>
      </trkpt>
      <trkpt lat="47.79595" lon="-3.52289">
        <ele>23.68</ele>
        <time>2020-07-10T13:30:40Z</time>
      </trkpt>
      <trkpt lat="47.79594" lon="-3.52297">
        <ele>23.63</ele>
        <time>2020-07-10T13:30:41Z</time>
      </trkpt>
      <trkpt lat="47.79593" lon="-3.52306">
        <ele>23.63</ele>
        <time>2020-07-10T13:30:42Z</time>
      </trkpt>
      <trkpt lat="47.79592" lon="-3.52316">
        <ele>23.29</ele>
        <time>2020-07-10T13:30:43Z</time>
      </trkpt>
      <trkpt lat="47.79591" lon="-3.52324">
        <ele>22.92</ele>
        <time>2020-07-10T13:30:44Z</time>
      </trkpt>
      <trkpt lat="47.7959" lon="-3.52332">
        <ele>22.6</ele>
        <time>2020-07-10T13:30:45Z</time>
      </trkpt>
      <trkpt lat="47.79589" lon="-3.52337">
        <ele>22.47</ele>
        <time>2020-07-10T13:30:46Z</time>
      </trkpt>
      <trkpt lat="47.79588" lon="-3.52342">
        <ele>22.41</ele>
        <time>2020-07-10T13:30:47Z</time>
      </trkpt>
      <trkpt lat="47.79589" lon="-3.52346">
        <ele>22.24</ele>
        <time>2020-07-10T13:30:48Z</time>
      </trkpt>
      <trkpt lat="47.79591" lon="-3.5235">
        <ele>21.69</ele>
        <time>2020-07-10T13:30:49Z</time>
      </trkpt>
      <trkpt lat="47.79594" lon="-3.52356">
        <ele>20.9</ele>
        <time>2020-07-10T13:30:50Z</time>
      </trkpt>
      <trkpt lat="47.79596" lon="-3.52359">
        <ele>20.24</ele>
        <time>2020-07-10T13:30:51Z</time>
      </trkpt>
      <trkpt lat="47.79597" lon="-3.52362">
        <ele>19.79</ele>
        <time>2020-07-10T13:30:52Z</time>
      </trkpt>
      <trkpt lat="47.79597" lon="-3.52364">
        <ele>19.49</ele>
        <time>2020-07-10T13:30:53Z</time>
      </trkpt>
      <trkpt lat="47.79595" lon="-3.52365">
        <ele>19.48</ele>
        <time>2020-07-10T13:30:54Z</time>
      </trkpt>
      <trkpt lat="47.79594" lon="-3.52366">
        <ele>19.71</ele>
        <time>2020-07-10T13:30:55Z</time>
      </trkpt>
      <trkpt lat="47.79592" lon="-3.52367">
        <ele>19.93</ele>
        <time>2020-07-10T13:30:56Z</time>
      </trkpt>
      <trkpt lat="47.7959" lon="-3.52369">
        <ele>20.07</ele>
        <time>2020-07-10T13:30:57Z</time>
      </trkpt>
      <trkpt lat="47.79588" lon="-3.5237">
        <ele>20.27</ele>
        <time>2020-07-10T13:30:58Z</time>
      </trkpt>
      <trkpt lat="47.79587" lon="-3.52371">
        <ele>20.44</ele>
        <time>2020-07-10T13:30:59Z</time>
      </trkpt>
      <trkpt lat="47.79586" lon="-3.52372">
        <ele>20.58</ele>
        <time>2020-07-10T13:31:00Z</time>
      </trkpt>
      <trkpt lat="47.79585" lon="-3.52372">
        <ele>20.63</ele>
        <time>2020-07-10T13:31:01Z</time>
      </trkpt>
      <trkpt lat="47.79585" lon="-3.52373">
        <ele>20.54</ele>
        <time>2020-07-10T13:31:02Z</time>
      </trkpt>
      <trkpt lat="47.79586" lon="-3.52374">
        <ele>20.35</ele>
        <time>2020-07-10T13:31:03Z</time>
      </trkpt>
      <trkpt lat="47.79586" lon="-3.52374">
        <ele>20.3</ele>
        <time>2020-07-10T13:31:04Z</time>
      </trkpt>
      <trkpt lat="47.79586" lon="-3.52374">
        <ele>20.28</ele>
        <time>2020-07-10T13:31:06Z</time>
      </trkpt>
      <trkpt lat="47.7959" lon="-3.52375">
        <ele>19.59</ele>
        <time>2020-07-10T13:31:07Z</time>
      </trkpt>
      <trkpt lat="47.79594" lon="-3.52374">
        <ele>18.88</ele>
        <time>2020-07-10T13:31:08Z</time>
      </trkpt>
      <trkpt lat="47.79599" lon="-3.52374">
        <ele>18.03</ele>
        <time>2020-07-10T13:31:09Z</time>
      </trkpt>
      <trkpt lat="47.79604" lon="-3.52374">
        <ele>17.2</ele>
        <time>2020-07-10T13:31:10Z</time>
      </trkpt>
      <trkpt lat="47.79609" lon="-3.52373">
        <ele>16.35</ele>
        <time>2020-07-10T13:31:11Z</time>
      </trkpt>
      <trkpt lat="47.79614" lon="-3.52373">
        <ele>15.4</ele>
        <time>2020-07-10T13:31:12Z</time>
      </trkpt>
      <trkpt lat="47.79618" lon="-3.52371">
        <ele>14.26</ele>
        <time>2020-07-10T13:31:13Z</time>
      </trkpt>
      <trkpt lat="47.79623" lon="-3.52369">
        <ele>13.08</ele>
        <time>2020-07-10T13:31:14Z</time>
      </trkpt>
      <trkpt lat="47.79627" lon="-3.52367">
        <ele>11.85</ele>
        <time>2020-07-10T13:31:15Z</time>
      </trkpt>
      <trkpt lat="47.79631" lon="-3.52366">
        <ele>10.53</ele>
        <time>2020-07-10T13:31:16Z</time>
      </trkpt>
      <trkpt lat="47.79635" lon="-3.52364">
        <ele>9.08</ele>
        <time>2020-07-10T13:31:17Z</time>
      </trkpt>
      <trkpt lat="47.7964" lon="-3.52362">
        <ele>7.61</ele>
        <time>2020-07-10T13:31:18Z</time>
      </trkpt>
      <trkpt lat="47.79645" lon="-3.5236">
        <ele>6.54</ele>
        <time>2020-07-10T13:31:19Z</time>
      </trkpt>
      <trkpt lat="47.7965" lon="-3.52358">
        <ele>5.64</ele>
        <time>2020-07-10T13:31:20Z</time>
      </trkpt>
      <trkpt lat="47.79656" lon="-3.52356">
        <ele>4.71</ele>
        <time>2020-07-10T13:31:21Z</time>
      </trkpt>
      <trkpt lat="47.7966" lon="-3.52354">
        <ele>3.75</ele>
        <time>2020-07-10T13:31:22Z</time>
      </trkpt>
      <trkpt lat="47.79666" lon="-3.52353">
        <ele>2.73</ele>
        <time>2020-07-10T13:31:23Z</time>
      </trkpt>
      <trkpt lat="47.7967" lon="-3.52351">
        <ele>2.38</ele>
        <time>2020-07-10T13:31:24Z</time>
      </trkpt>
      <trkpt lat="47.79675" lon="-3.5235">
        <ele>2.46</ele>
        <time>2020-07-10T13:31:25Z</time>
      </trkpt>
      <trkpt lat="47.7968" lon="-3.52348">
        <ele>2.68</ele>
        <time>2020-07-10T13:31:26Z</time>
      </trkpt>
      <trkpt lat="47.79685" lon="-3.52346">
        <ele>2.93</ele>
        <time>2020-07-10T13:31:27Z</time>
      </trkpt>
      <trkpt lat="47.7969" lon="-3.52344">
        <ele>3.2</ele>
        <time>2020-07-10T13:31:28Z</time>
      </trkpt>
      <trkpt lat="47.79694" lon="-3.52342">
        <ele>3.49</ele>
        <time>2020-07-10T13:31:29Z</time>
      </trkpt>
      <trkpt lat="47.79699" lon="-3.5234">
        <ele>3.57</ele>
        <time>2020-07-10T13:31:30Z</time>
      </trkpt>
      <trkpt lat="47.79704" lon="-3.52338">
        <ele>3.6</ele>
        <time>2020-07-10T13:31:31Z</time>
      </trkpt>
      <trkpt lat="47.79709" lon="-3.52336">
        <ele>3.66</ele>
        <time>2020-07-10T13:31:32Z</time>
      </trkpt>
      <trkpt lat="47.79714" lon="-3.52334">
        <ele>3.73</ele>
        <time>2020-07-10T13:31:33Z</time>
      </trkpt>
      <trkpt lat="47.79719" lon="-3.52333">
        <ele>3.81</ele>
        <time>2020-07-10T13:31:34Z</time>
      </trkpt>
      <trkpt lat="47.79724" lon="-3.52331">
        <ele>3.8</ele>
        <time>2020-07-10T13:31:35Z</time>
      </trkpt>
      <trkpt lat="47.79729" lon="-3.52329">
        <ele>3.82</ele>
        <time>2020-07-10T13:31:36Z</time>
      </trkpt>
      <trkpt lat="47.79734" lon="-3.52327">
        <ele>3.81</ele>
        <time>2020-07-10T13:31:37Z</time>
      </trkpt>
      <trkpt lat="47.79739" lon="-3.52326">
        <ele>3.78</ele>
        <time>2020-07-10T13:31:38Z</time>
      </trkpt>
      <trkpt lat="47.79744" lon="-3.52324">
        <ele>3.66</ele>
        <time>2020-07-10T13:31:39Z</time>
      </trkpt>
      <trkpt lat="47.79749" lon="-3.52321">
        <ele>3.47</ele>
        <time>2020-07-10T13:31:40Z</time>
      </trkpt>
      <trkpt lat="47.79754" lon="-3.5232">
        <ele>3.1</ele>
        <time>2020-07-10T13:31:41Z</time>
      </trkpt>
      <trkpt lat="47.79759" lon="-3.52317">
        <ele>2.62</ele>
        <time>2020-07-10T13:31:42Z</time>
      </trkpt>
      <trkpt lat="47.79764" lon="-3.52315">
        <ele>2.11</ele>
        <time>2020-07-10T13:31:43Z</time>
      </trkpt>
      <trkpt lat="47.7977" lon="-3.52313">
        <ele>1.67</ele>
        <time>2020-07-10T13:31:44Z</time>
      </trkpt>
      <trkpt lat="47.79775" lon="-3.52311">
        <ele>1.24</ele>
        <time>2020-07-10T13:31:45Z</time>
      </trkpt>
      <trkpt lat="47.79781" lon="-3.5231">
        <ele>1.24</ele>
        <time>2020-07-10T13:31:46Z</time>
      </trkpt>
      <trkpt lat="47.79786" lon="-3.52309">
        <ele>1.74</ele>
        <time>2020-07-10T13:31:47Z</time>
      </trkpt>
      <trkpt lat="47.79791" lon="-3.52308">
        <ele>2.45</ele>
        <time>2020-07-10T13:31:48Z</time>
      </trkpt>
      <trkpt lat="47.79797" lon="-3.52306">
        <ele>3.14</ele>
        <time>2020-07-10T13:31:49Z</time>
      </trkpt>
      <trkpt lat="47.79802" lon="-3.52304">
        <ele>3.87</ele>
        <time>2020-07-10T13:31:50Z</time>
      </trkpt>
      <trkpt lat="47.79807" lon="-3.52303">
        <ele>4.75</ele>
        <time>2020-07-10T13:31:51Z</time>
      </trkpt>
      <trkpt lat="47.79813" lon="-3.52302">
        <ele>5.95</ele>
        <time>2020-07-10T13:31:52Z</time>
      </trkpt>
      <trkpt lat="47.79818" lon="-3.52301">
        <ele>7.27</ele>
        <time>2020-07-10T13:31:53Z</time>
      </trkpt>
      <trkpt lat="47.79824" lon="-3.52299">
        <ele>8.63</ele>
        <time>2020-07-10T13:31:54Z</time>
      </trkpt>
      <trkpt lat="47.7983" lon="-3.52298">
        <ele>9.94</ele>
        <time>2020-07-10T13:31:55Z</time>
      </trkpt>
      <trkpt lat="47.79835" lon="-3.52297">
        <ele>10.96</ele>
        <time>2020-07-10T13:31:56Z</time>
      </trkpt>
      <trkpt lat="47.79839" lon="-3.52298">
        <ele>11.63</ele>
        <time>2020-07-10T13:31:57Z</time>
      </trkpt>
      <trkpt lat="47.79843" lon="-3.52299">
        <ele>12.24</ele>
        <time>2020-07-10T13:31:58Z</time>
      </trkpt>
      <trkpt lat="47.79842" lon="-3.52305">
        <ele>13.16</ele>
        <time>2020-07-10T13:31:59Z</time>
      </trkpt>
      <trkpt lat="47.7984" lon="-3.5231">
        <ele>13.66</ele>
        <time>2020-07-10T13:32:00Z</time>
      </trkpt>
      <trkpt lat="47.79837" lon="-3.52315">
        <ele>13.92</ele>
        <time>2020-07-10T13:32:01Z</time>
      </trkpt>
      <trkpt lat="47.79834" lon="-3.5232">
        <ele>14.01</ele>
        <time>2020-07-10T13:32:02Z</time>
      </trkpt>
      <trkpt lat="47.7983" lon="-3.52324">
        <ele>13.71</ele>
        <time>2020-07-10T13:32:03Z</time>
      </trkpt>
      <trkpt lat="47.79827" lon="-3.52328">
        <ele>13.3</ele>
        <time>2020-07-10T13:32:04Z</time>
      </trkpt>
      <trkpt lat="47.79824" lon="-3.52334">
        <ele>13.08</ele>
        <time>2020-07-10T13:32:05Z</time>
      </trkpt>
      <trkpt lat="47.79821" lon="-3.52339">
        <ele>12.77</ele>
        <time>2020-07-10T13:32:06Z</time>
      </trkpt>
      <trkpt lat="47.79818" lon="-3.52345">
        <ele>12.53</ele>
        <time>2020-07-10T13:32:07Z</time>
      </trkpt>
      <trkpt lat="47.79817" lon="-3.52351">
        <ele>12.43</ele>
        <time>2020-07-10T13:32:08Z</time>
      </trkpt>
      <trkpt lat="47.79814" lon="-3.52357">
        <ele>12.38</ele>
        <time>2020-07-10T13:32:09Z</time>
      </trkpt>
      <trkpt lat="47.79813" lon="-3.52363">
        <ele>12.4</ele>
        <time>2020-07-10T13:32:10Z</time>
      </trkpt>
      <trkpt lat="47.79812" lon="-3.52368">
        <ele>12.43</ele>
        <time>2020-07-10T13:32:11Z</time>
      </trkpt>
      <trkpt lat="47.79811" lon="-3.52372">
        <ele>12.45</ele>
        <time>2020-07-10T13:32:12Z</time>
      </trkpt>
      <trkpt lat="47.79811" lon="-3.52374">
        <ele>12.48</ele>
        <time>2020-07-10T13:32:13Z</time>
      </trkpt>
      <trkpt lat="47.79811" lon="-3.52375">
        <ele>12.45</ele>
        <time>2020-07-10T13:32:14Z</time>
      </trkpt>
      <trkpt lat="47.79811" lon="-3.52376">
        <ele>12.42</ele>
        <time>2020-07-10T13:32:15Z</time>
      </trkpt>
      <trkpt lat="47.79811" lon="-3.52376">
        <ele>12.42</ele>
        <time>2020-07-10T13:32:16Z</time>
      </trkpt>
      <trkpt lat="47.79811" lon="-3.52376">
        <ele>12.41</ele>
        <time>2020-07-10T13:32:17Z</time>
      </trkpt>
      <trkpt lat="47.79811" lon="-3.52376">
        <ele>12.41</ele>
        <time>2020-07-10T13:32:18Z</time>
      </trkpt>
      <trkpt lat="47.79811" lon="-3.52376">
        <ele>12.41</ele>
        <time>2020-07-10T13:32:19Z</time>
      </trkpt>
      <trkpt lat="47.79811" lon="-3.52376">
        <ele>12.41</ele>
        <time>2020-07-10T13:32:20Z</time>
      </trkpt>
      <trkpt lat="47.79811" lon="-3.52376">
        <ele>12.41</ele>
        <time>2020-07-10T13:32:21Z</time>
      </trkpt>
      <trkpt lat="47.79811" lon="-3.52376">
        <ele>12.41</ele>
        <time>2020-07-10T13:32:22Z</time>
      </trkpt>
      <trkpt lat="47.79811" lon="-3.52376">
        <ele>12.41</ele>
        <time>2020-07-10T13:32:23Z</time>
      </trkpt>
      <trkpt lat="47.79811" lon="-3.52376">
        <ele>12.41</ele>
        <time>2020-07-10T13:32:24Z</time>
      </trkpt>
      <trkpt lat="47.79811" lon="-3.52376">
        <ele>12.41</ele>
        <time>2020-07-10T13:32:25Z</time>
      </trkpt>
      <trkpt lat="47.79811" lon="-3.52376">
        <ele>12.41</ele>
        <time>2020-07-10T13:32:26Z</time>
      </trkpt>
      <trkpt lat="47.79811" lon="-3.52376">
        <ele>12.41</ele>
        <time>2020-07-10T13:32:27Z</time>
      </trkpt>
      <trkpt lat="47.79811" lon="-3.52376">
        <ele>12.41</ele>
        <time>2020-07-10T13:32:28Z</time>
      </trkpt>
      <trkpt lat="47.79811" lon="-3.52376">
        <ele>12.41</ele>
        <time>2020-07-10T13:32:29Z</time>
      </trkpt>
      <trkpt lat="47.79811" lon="-3.52376">
        <ele>12.41</ele>
        <time>2020-07-10T13:32:30Z</time>
      </trkpt>
      <trkpt lat="47.79811" lon="-3.52376">
        <ele>12.41</ele>
        <time>2020-07-10T13:32:31Z</time>
      </trkpt>
      <trkpt lat="47.79811" lon="-3.52376">
        <ele>12.41</ele>
        <time>2020-07-10T13:32:32Z</time>
      </trkpt>
      <trkpt lat="47.79811" lon="-3.52376">
        <ele>12.41</ele>
        <time>2020-07-10T13:32:33Z</time>
      </trkpt>
      <trkpt lat="47.79811" lon="-3.52376">
        <ele>12.41</ele>
        <time>2020-07-10T13:32:34Z</time>
      </trkpt>
      <trkpt lat="47.79811" lon="-3.52376">
        <ele>12.41</ele>
        <time>2020-07-10T13:32:35Z</time>
      </trkpt>
      <trkpt lat="47.79811" lon="-3.52376">
        <ele>12.41</ele>
        <time>2020-07-10T13:32:36Z</time>
      </trkpt>
      <trkpt lat="47.79811" lon="-3.52376">
        <ele>12.41</ele>
        <time>2020-07-10T13:32:37Z</time>
      </trkpt>
      <trkpt lat="47.7981" lon="-3.52372">
        <ele>12.26</ele>
        <time>2020-07-10T13:32:38Z</time>
      </trkpt>
      <trkpt lat="47.7981" lon="-3.5237">
        <ele>12.19</ele>
        <time>2020-07-10T13:32:39Z</time>
      </trkpt>
      <trkpt lat="47.79811" lon="-3.52367">
        <ele>12.16</ele>
        <time>2020-07-10T13:32:40Z</time>
      </trkpt>
      <trkpt lat="47.79812" lon="-3.52363">
        <ele>12.16</ele>
        <time>2020-07-10T13:32:41Z</time>
      </trkpt>
      <trkpt lat="47.79813" lon="-3.52358">
        <ele>12.11</ele>
        <time>2020-07-10T13:32:42Z</time>
      </trkpt>
      <trkpt lat="47.79814" lon="-3.52354">
        <ele>12.12</ele>
        <time>2020-07-10T13:32:43Z</time>
      </trkpt>
      <trkpt lat="47.79815" lon="-3.5235">
        <ele>12.12</ele>
        <time>2020-07-10T13:32:44Z</time>
      </trkpt>
      <trkpt lat="47.79817" lon="-3.52347">
        <ele>12.28</ele>
        <time>2020-07-10T13:32:45Z</time>
      </trkpt>
      <trkpt lat="47.7982" lon="-3.52344">
        <ele>12.53</ele>
        <time>2020-07-10T13:32:46Z</time>
      </trkpt>
      <trkpt lat="47.79822" lon="-3.52341">
        <ele>12.81</ele>
        <time>2020-07-10T13:32:47Z</time>
      </trkpt>
      <trkpt lat="47.79825" lon="-3.52337">
        <ele>13.22</ele>
        <time>2020-07-10T13:32:48Z</time>
      </trkpt>
      <trkpt lat="47.79828" lon="-3.52334">
        <ele>13.63</ele>
        <time>2020-07-10T13:32:49Z</time>
      </trkpt>
      <trkpt lat="47.7983" lon="-3.52331">
        <ele>13.98</ele>
        <time>2020-07-10T13:32:50Z</time>
      </trkpt>
      <trkpt lat="47.79833" lon="-3.52328">
        <ele>14.27</ele>
        <time>2020-07-10T13:32:51Z</time>
      </trkpt>
      <trkpt lat="47.79834" lon="-3.52324">
        <ele>14.35</ele>
        <time>2020-07-10T13:32:52Z</time>
      </trkpt>
      <trkpt lat="47.79836" lon="-3.5232">
        <ele>14.32</ele>
        <time>2020-07-10T13:32:53Z</time>
      </trkpt>
      <trkpt lat="47.79838" lon="-3.52317">
        <ele>14.28</ele>
        <time>2020-07-10T13:32:54Z</time>
      </trkpt>
      <trkpt lat="47.7984" lon="-3.52314">
        <ele>14.23</ele>
        <time>2020-07-10T13:32:55Z</time>
      </trkpt>
      <trkpt lat="47.79842" lon="-3.52311">
        <ele>14.15</ele>
        <time>2020-07-10T13:32:56Z</time>
      </trkpt>
      <trkpt lat="47.79844" lon="-3.52308">
        <ele>14.04</ele>
        <time>2020-07-10T13:32:57Z</time>
      </trkpt>
      <trkpt lat="47.79845" lon="-3.52306">
        <ele>13.92</ele>
        <time>2020-07-10T13:32:58Z</time>
      </trkpt>
      <trkpt lat="47.79846" lon="-3.52303">
        <ele>13.64</ele>
        <time>2020-07-10T13:32:59Z</time>
      </trkpt>
      <trkpt lat="47.79847" lon="-3.52302">
        <ele>13.5</ele>
        <time>2020-07-10T13:33:00Z</time>
      </trkpt>
      <trkpt lat="47.79847" lon="-3.52303">
        <ele>13.54</ele>
        <time>2020-07-10T13:33:01Z</time>
      </trkpt>
      <trkpt lat="47.79847" lon="-3.52304">
        <ele>13.69</ele>
        <time>2020-07-10T13:33:02Z</time>
      </trkpt>
      <trkpt lat="47.79846" lon="-3.52305">
        <ele>13.83</ele>
        <time>2020-07-10T13:33:03Z</time>
      </trkpt>
      <trkpt lat="47.79845" lon="-3.52307">
        <ele>13.92</ele>
        <time>2020-07-10T13:33:04Z</time>
      </trkpt>
      <trkpt lat="47.79843" lon="-3.52308">
        <ele>13.95</ele>
        <time>2020-07-10T13:33:05Z</time>
      </trkpt>
      <trkpt lat="47.79842" lon="-3.52309">
        <ele>13.94</ele>
        <time>2020-07-10T13:33:06Z</time>
      </trkpt>
      <trkpt lat="47.79842" lon="-3.5231">
        <ele>13.96</ele>
        <time>2020-07-10T13:33:07Z</time>
      </trkpt>
      <trkpt lat="47.79841" lon="-3.5231">
        <ele>13.98</ele>
        <time>2020-07-10T13:33:08Z</time>
      </trkpt>
      <trkpt lat="47.79841" lon="-3.5231">
        <ele>13.98</ele>
        <time>2020-07-10T13:33:09Z</time>
      </trkpt>
      <trkpt lat="47.7984" lon="-3.52313">
        <ele>14.06</ele>
        <time>2020-07-10T13:33:10Z</time>
      </trkpt>
      <trkpt lat="47.79838" lon="-3.52316">
        <ele>14.14</ele>
        <time>2020-07-10T13:33:11Z</time>
      </trkpt>
      <trkpt lat="47.79837" lon="-3.52318">
        <ele>14.21</ele>
        <time>2020-07-10T13:33:12Z</time>
      </trkpt>
      <trkpt lat="47.79836" lon="-3.5232">
        <ele>14.24</ele>
        <time>2020-07-10T13:33:13Z</time>
      </trkpt>
      <trkpt lat="47.79834" lon="-3.52322">
        <ele>14.24</ele>
        <time>2020-07-10T13:33:14Z</time>
      </trkpt>
      <trkpt lat="47.79833" lon="-3.52324">
        <ele>14.17</ele>
        <time>2020-07-10T13:33:15Z</time>
      </trkpt>
      <trkpt lat="47.79831" lon="-3.52326">
        <ele>14.01</ele>
        <time>2020-07-10T13:33:16Z</time>
      </trkpt>
      <trkpt lat="47.7983" lon="-3.52328">
        <ele>13.89</ele>
        <time>2020-07-10T13:33:17Z</time>
      </trkpt>
      <trkpt lat="47.79828" lon="-3.52329">
        <ele>13.67</ele>
        <time>2020-07-10T13:33:18Z</time>
      </trkpt>
      <trkpt lat="47.79827" lon="-3.5233">
        <ele>13.49</ele>
        <time>2020-07-10T13:33:19Z</time>
      </trkpt>
      <trkpt lat="47.79826" lon="-3.52331">
        <ele>13.34</ele>
        <time>2020-07-10T13:33:20Z</time>
      </trkpt>
      <trkpt lat="47.79825" lon="-3.52333">
        <ele>13.25</ele>
        <time>2020-07-10T13:33:21Z</time>
      </trkpt>
      <trkpt lat="47.79824" lon="-3.52334">
        <ele>13.16</ele>
        <time>2020-07-10T13:33:22Z</time>
      </trkpt>
      <trkpt lat="47.79824" lon="-3.52335">
        <ele>13.08</ele>
        <time>2020-07-10T13:33:23Z</time>
      </trkpt>
      <trkpt lat="47.79823" lon="-3.52336">
        <ele>12.99</ele>
        <time>2020-07-10T13:33:24Z</time>
      </trkpt>
      <trkpt lat="47.79822" lon="-3.52337">
        <ele>12.86</ele>
        <time>2020-07-10T13:33:25Z</time>
      </trkpt>
      <trkpt lat="47.79821" lon="-3.52337">
        <ele>12.64</ele>
        <time>2020-07-10T13:33:26Z</time>
      </trkpt>
      <trkpt lat="47.7982" lon="-3.52335">
        <ele>12.29</ele>
        <time>2020-07-10T13:33:27Z</time>
      </trkpt>
      <trkpt lat="47.79818" lon="-3.52334">
        <ele>11.91</ele>
        <time>2020-07-10T13:33:28Z</time>
      </trkpt>
      <trkpt lat="47.79816" lon="-3.52335">
        <ele>11.56</ele>
        <time>2020-07-10T13:33:29Z</time>
      </trkpt>
      <trkpt lat="47.79815" lon="-3.52337">
        <ele>11.4</ele>
        <time>2020-07-10T13:33:30Z</time>
      </trkpt>
      <trkpt lat="47.79814" lon="-3.5234">
        <ele>11.37</ele>
        <time>2020-07-10T13:33:31Z</time>
      </trkpt>
      <trkpt lat="47.79814" lon="-3.52345">
        <ele>11.47</ele>
        <time>2020-07-10T13:33:32Z</time>
      </trkpt>
      <trkpt lat="47.79813" lon="-3.52349">
        <ele>11.58</ele>
        <time>2020-07-10T13:33:33Z</time>
      </trkpt>
      <trkpt lat="47.79812" lon="-3.52354">
        <ele>11.73</ele>
        <time>2020-07-10T13:33:34Z</time>
      </trkpt>
      <trkpt lat="47.79811" lon="-3.5236">
        <ele>11.85</ele>
        <time>2020-07-10T13:33:35Z</time>
      </trkpt>
      <trkpt lat="47.7981" lon="-3.52365">
        <ele>11.88</ele>
        <time>2020-07-10T13:33:36Z</time>
      </trkpt>
      <trkpt lat="47.79808" lon="-3.5237">
        <ele>11.86</ele>
        <time>2020-07-10T13:33:37Z</time>
      </trkpt>
      <trkpt lat="47.79807" lon="-3.52375">
        <ele>11.77</ele>
        <time>2020-07-10T13:33:38Z</time>
      </trkpt>
      <trkpt lat="47.79806" lon="-3.5238">
        <ele>11.72</ele>
        <time>2020-07-10T13:33:39Z</time>
      </trkpt>
      <trkpt lat="47.79805" lon="-3.52384">
        <ele>11.6</ele>
        <time>2020-07-10T13:33:40Z</time>
      </trkpt>
      <trkpt lat="47.79805" lon="-3.52388">
        <ele>11.65</ele>
        <time>2020-07-10T13:33:41Z</time>
      </trkpt>
      <trkpt lat="47.79805" lon="-3.5239">
        <ele>11.7</ele>
        <time>2020-07-10T13:33:42Z</time>
      </trkpt>
      <trkpt lat="47.79805" lon="-3.52391">
        <ele>11.8</ele>
        <time>2020-07-10T13:33:43Z</time>
      </trkpt>
      <trkpt lat="47.79805" lon="-3.52392">
        <ele>11.83</ele>
        <time>2020-07-10T13:33:44Z</time>
      </trkpt>
      <trkpt lat="47.79806" lon="-3.52392">
        <ele>12.01</ele>
        <time>2020-07-10T13:33:45Z</time>
      </trkpt>
      <trkpt lat="47.79806" lon="-3.52392">
        <ele>12.06</ele>
        <time>2020-07-10T13:33:46Z</time>
      </trkpt>
      <trkpt lat="47.79806" lon="-3.52392">
        <ele>12.08</ele>
        <time>2020-07-10T13:33:47Z</time>
      </trkpt>
      <trkpt lat="47.79806" lon="-3.52392">
        <ele>12.08</ele>
        <time>2020-07-10T13:33:48Z</time>
      </trkpt>
      <trkpt lat="47.79806" lon="-3.52392">
        <ele>12.08</ele>
        <time>2020-07-10T13:33:49Z</time>
      </trkpt>
      <trkpt lat="47.79806" lon="-3.52392">
        <ele>12.08</ele>
        <time>2020-07-10T13:33:50Z</time>
      </trkpt>
      <trkpt lat="47.79806" lon="-3.52392">
        <ele>12.08</ele>
        <time>2020-07-10T13:33:51Z</time>
      </trkpt>
      <trkpt lat="47.79803" lon="-3.52401">
        <ele>11.26</ele>
        <time>2020-07-10T13:33:52Z</time>
      </trkpt>
      <trkpt lat="47.79801" lon="-3.52404">
        <ele>10.62</ele>
        <time>2020-07-10T13:33:53Z</time>
      </trkpt>
      <trkpt lat="47.798" lon="-3.52408">
        <ele>10.1</ele>
        <time>2020-07-10T13:33:54Z</time>
      </trkpt>
      <trkpt lat="47.79798" lon="-3.52412">
        <ele>9.58</ele>
        <time>2020-07-10T13:33:55Z</time>
      </trkpt>
      <trkpt lat="47.79797" lon="-3.52416">
        <ele>9.24</ele>
        <time>2020-07-10T13:33:56Z</time>
      </trkpt>
      <trkpt lat="47.79797" lon="-3.52419">
        <ele>8.94</ele>
        <time>2020-07-10T13:33:57Z</time>
      </trkpt>
      <trkpt lat="47.79795" lon="-3.52422">
        <ele>8.6</ele>
        <time>2020-07-10T13:33:58Z</time>
      </trkpt>
      <trkpt lat="47.79793" lon="-3.52427">
        <ele>8.03</ele>
        <time>2020-07-10T13:33:59Z</time>
      </trkpt>
      <trkpt lat="47.79791" lon="-3.52432">
        <ele>7.43</ele>
        <time>2020-07-10T13:34:00Z</time>
      </trkpt>
      <trkpt lat="47.79789" lon="-3.52438">
        <ele>7.07</ele>
        <time>2020-07-10T13:34:01Z</time>
      </trkpt>
      <trkpt lat="47.79787" lon="-3.52443">
        <ele>6.48</ele>
        <time>2020-07-10T13:34:02Z</time>
      </trkpt>
      <trkpt lat="47.79784" lon="-3.52449">
        <ele>5.98</ele>
        <time>2020-07-10T13:34:03Z</time>
      </trkpt>
      <trkpt lat="47.79782" lon="-3.52455">
        <ele>5.63</ele>
        <time>2020-07-10T13:34:04Z</time>
      </trkpt>
      <trkpt lat="47.7978" lon="-3.5246">
        <ele>5.26</ele>
        <time>2020-07-10T13:34:05Z</time>
      </trkpt>
      <trkpt lat="47.79778" lon="-3.52467">
        <ele>4.99</ele>
        <time>2020-07-10T13:34:06Z</time>
      </trkpt>
      <trkpt lat="47.79776" lon="-3.52475">
        <ele>4.93</ele>
        <time>2020-07-10T13:34:07Z</time>
      </trkpt>
      <trkpt lat="47.79774" lon="-3.52482">
        <ele>5.1</ele>
        <time>2020-07-10T13:34:08Z</time>
      </trkpt>
      <trkpt lat="47.79772" lon="-3.5249">
        <ele>5.36</ele>
        <time>2020-07-10T13:34:09Z</time>
      </trkpt>
      <trkpt lat="47.7977" lon="-3.52497">
        <ele>5.46</ele>
        <time>2020-07-10T13:34:10Z</time>
      </trkpt>
      <trkpt lat="47.79768" lon="-3.52504">
        <ele>5.38</ele>
        <time>2020-07-10T13:34:11Z</time>
      </trkpt>
      <trkpt lat="47.79767" lon="-3.52509">
        <ele>5.25</ele>
        <time>2020-07-10T13:34:12Z</time>
      </trkpt>
      <trkpt lat="47.79765" lon="-3.52514">
        <ele>5.07</ele>
        <time>2020-07-10T13:34:13Z</time>
      </trkpt>
      <trkpt lat="47.79764" lon="-3.5252">
        <ele>4.76</ele>
        <time>2020-07-10T13:34:14Z</time>
      </trkpt>
      <trkpt lat="47.79762" lon="-3.52525">
        <ele>4.47</ele>
        <time>2020-07-10T13:34:15Z</time>
      </trkpt>
      <trkpt lat="47.7976" lon="-3.52531">
        <ele>4.2</ele>
        <time>2020-07-10T13:34:16Z</time>
      </trkpt>
      <trkpt lat="47.79759" lon="-3.52537">
        <ele>4.17</ele>
        <time>2020-07-10T13:34:17Z</time>
      </trkpt>
      <trkpt lat="47.79757" lon="-3.52543">
        <ele>4.04</ele>
        <time>2020-07-10T13:34:18Z</time>
      </trkpt>
      <trkpt lat="47.79755" lon="-3.52548">
        <ele>3.89</ele>
        <time>2020-07-10T13:34:19Z</time>
      </trkpt>
      <trkpt lat="47.79754" lon="-3.52555">
        <ele>3.91</ele>
        <time>2020-07-10T13:34:20Z</time>
      </trkpt>
      <trkpt lat="47.79753" lon="-3.52561">
        <ele>3.88</ele>
        <time>2020-07-10T13:34:21Z</time>
      </trkpt>
      <trkpt lat="47.79752" lon="-3.52566">
        <ele>3.8</ele>
        <time>2020-07-10T13:34:22Z</time>
      </trkpt>
      <trkpt lat="47.79751" lon="-3.52571">
        <ele>3.73</ele>
        <time>2020-07-10T13:34:23Z</time>
      </trkpt>
      <trkpt lat="47.79751" lon="-3.52577">
        <ele>4.09</ele>
        <time>2020-07-10T13:34:24Z</time>
      </trkpt>
      <trkpt lat="47.79752" lon="-3.52583">
        <ele>4.66</ele>
        <time>2020-07-10T13:34:25Z</time>
      </trkpt>
      <trkpt lat="47.79752" lon="-3.52589">
        <ele>5.39</ele>
        <time>2020-07-10T13:34:26Z</time>
      </trkpt>
      <trkpt lat="47.79753" lon="-3.52594">
        <ele>6.29</ele>
        <time>2020-07-10T13:34:27Z</time>
      </trkpt>
      <trkpt lat="47.79755" lon="-3.52599">
        <ele>7.34</ele>
        <time>2020-07-10T13:34:28Z</time>
      </trkpt>
      <trkpt lat="47.79756" lon="-3.52604">
        <ele>8.51</ele>
        <time>2020-07-10T13:34:29Z</time>
      </trkpt>
      <trkpt lat="47.79757" lon="-3.52609">
        <ele>9.35</ele>
        <time>2020-07-10T13:34:30Z</time>
      </trkpt>
      <trkpt lat="47.79757" lon="-3.52614">
        <ele>9.97</ele>
        <time>2020-07-10T13:34:31Z</time>
      </trkpt>
      <trkpt lat="47.79757" lon="-3.52619">
        <ele>10.23</ele>
        <time>2020-07-10T13:34:32Z</time>
      </trkpt>
      <trkpt lat="47.79757" lon="-3.52624">
        <ele>10.59</ele>
        <time>2020-07-10T13:34:33Z</time>
      </trkpt>
      <trkpt lat="47.79757" lon="-3.52629">
        <ele>10.98</ele>
        <time>2020-07-10T13:34:34Z</time>
      </trkpt>
      <trkpt lat="47.79756" lon="-3.52633">
        <ele>11.03</ele>
        <time>2020-07-10T13:34:35Z</time>
      </trkpt>
      <trkpt lat="47.79756" lon="-3.52638">
        <ele>11.12</ele>
        <time>2020-07-10T13:34:36Z</time>
      </trkpt>
      <trkpt lat="47.79755" lon="-3.52641">
        <ele>11.14</ele>
        <time>2020-07-10T13:34:37Z</time>
      </trkpt>
      <trkpt lat="47.79754" lon="-3.52644">
        <ele>10.94</ele>
        <time>2020-07-10T13:34:38Z</time>
      </trkpt>
      <trkpt lat="47.79752" lon="-3.52647">
        <ele>10.68</ele>
        <time>2020-07-10T13:34:39Z</time>
      </trkpt>
      <trkpt lat="47.79751" lon="-3.5265">
        <ele>10.55</ele>
        <time>2020-07-10T13:34:40Z</time>
      </trkpt>
      <trkpt lat="47.7975" lon="-3.52653">
        <ele>10.62</ele>
        <time>2020-07-10T13:34:41Z</time>
      </trkpt>
      <trkpt lat="47.79748" lon="-3.52656">
        <ele>10.41</ele>
        <time>2020-07-10T13:34:42Z</time>
      </trkpt>
      <trkpt lat="47.79747" lon="-3.52659">
        <ele>10.48</ele>
        <time>2020-07-10T13:34:43Z</time>
      </trkpt>
      <trkpt lat="47.79746" lon="-3.52661">
        <ele>10.32</ele>
        <time>2020-07-10T13:34:44Z</time>
      </trkpt>
      <trkpt lat="47.79745" lon="-3.52663">
        <ele>10.36</ele>
        <time>2020-07-10T13:34:45Z</time>
      </trkpt>
      <trkpt lat="47.79745" lon="-3.52666">
        <ele>10.41</ele>
        <time>2020-07-10T13:34:46Z</time>
      </trkpt>
      <trkpt lat="47.79745" lon="-3.52669">
        <ele>10.85</ele>
        <time>2020-07-10T13:34:47Z</time>
      </trkpt>
      <trkpt lat="47.79744" lon="-3.52672">
        <ele>11.28</ele>
        <time>2020-07-10T13:34:48Z</time>
      </trkpt>
      <trkpt lat="47.79744" lon="-3.52674">
        <ele>11.49</ele>
        <time>2020-07-10T13:34:49Z</time>
      </trkpt>
      <trkpt lat="47.79743" lon="-3.52676">
        <ele>11.66</ele>
        <time>2020-07-10T13:34:50Z</time>
      </trkpt>
      <trkpt lat="47.79742" lon="-3.52678">
        <ele>11.76</ele>
        <time>2020-07-10T13:34:51Z</time>
      </trkpt>
      <trkpt lat="47.79742" lon="-3.5268">
        <ele>11.97</ele>
        <time>2020-07-10T13:34:52Z</time>
      </trkpt>
      <trkpt lat="47.79741" lon="-3.52683">
        <ele>12.26</ele>
        <time>2020-07-10T13:34:53Z</time>
      </trkpt>
      <trkpt lat="47.79741" lon="-3.52686">
        <ele>12.92</ele>
        <time>2020-07-10T13:34:54Z</time>
      </trkpt>
      <trkpt lat="47.79741" lon="-3.52689">
        <ele>13.24</ele>
        <time>2020-07-10T13:34:55Z</time>
      </trkpt>
      <trkpt lat="47.7974" lon="-3.52691">
        <ele>13.52</ele>
        <time>2020-07-10T13:34:56Z</time>
      </trkpt>
      <trkpt lat="47.79739" lon="-3.52694">
        <ele>13.51</ele>
        <time>2020-07-10T13:34:57Z</time>
      </trkpt>
      <trkpt lat="47.79738" lon="-3.52697">
        <ele>13.58</ele>
        <time>2020-07-10T13:34:58Z</time>
      </trkpt>
      <trkpt lat="47.79737" lon="-3.527">
        <ele>13.63</ele>
        <time>2020-07-10T13:34:59Z</time>
      </trkpt>
      <trkpt lat="47.79736" lon="-3.52703">
        <ele>13.67</ele>
        <time>2020-07-10T13:35:00Z</time>
      </trkpt>
      <trkpt lat="47.79734" lon="-3.52706">
        <ele>13.37</ele>
        <time>2020-07-10T13:35:01Z</time>
      </trkpt>
      <trkpt lat="47.79732" lon="-3.52709">
        <ele>12.86</ele>
        <time>2020-07-10T13:35:02Z</time>
      </trkpt>
      <trkpt lat="47.7973" lon="-3.52711">
        <ele>12.35</ele>
        <time>2020-07-10T13:35:03Z</time>
      </trkpt>
      <trkpt lat="47.79729" lon="-3.52714">
        <ele>12.1</ele>
        <time>2020-07-10T13:35:04Z</time>
      </trkpt>
      <trkpt lat="47.79728" lon="-3.52717">
        <ele>12.09</ele>
        <time>2020-07-10T13:35:05Z</time>
      </trkpt>
      <trkpt lat="47.79727" lon="-3.52719">
        <ele>12.25</ele>
        <time>2020-07-10T13:35:06Z</time>
      </trkpt>
      <trkpt lat="47.79727" lon="-3.52722">
        <ele>12.43</ele>
        <time>2020-07-10T13:35:07Z</time>
      </trkpt>
      <trkpt lat="47.79726" lon="-3.52724">
        <ele>12.51</ele>
        <time>2020-07-10T13:35:08Z</time>
      </trkpt>
      <trkpt lat="47.79725" lon="-3.52727">
        <ele>12.49</ele>
        <time>2020-07-10T13:35:09Z</time>
      </trkpt>
      <trkpt lat="47.79724" lon="-3.52729">
        <ele>12.35</ele>
        <time>2020-07-10T13:35:10Z</time>
      </trkpt>
      <trkpt lat="47.79723" lon="-3.52732">
        <ele>12.15</ele>
        <time>2020-07-10T13:35:11Z</time>
      </trkpt>
      <trkpt lat="47.79721" lon="-3.52736">
        <ele>12.05</ele>
        <time>2020-07-10T13:35:12Z</time>
      </trkpt>
      <trkpt lat="47.7972" lon="-3.5274">
        <ele>12</ele>
        <time>2020-07-10T13:35:13Z</time>
      </trkpt>
      <trkpt lat="47.79718" lon="-3.52744">
        <ele>11.92</ele>
        <time>2020-07-10T13:35:14Z</time>
      </trkpt>
      <trkpt lat="47.79716" lon="-3.52747">
        <ele>11.65</ele>
        <time>2020-07-10T13:35:15Z</time>
      </trkpt>
      <trkpt lat="47.79715" lon="-3.52751">
        <ele>11.47</ele>
        <time>2020-07-10T13:35:16Z</time>
      </trkpt>
      <trkpt lat="47.79713" lon="-3.52755">
        <ele>11.49</ele>
        <time>2020-07-10T13:35:17Z</time>
      </trkpt>
      <trkpt lat="47.79711" lon="-3.52757">
        <ele>11.32</ele>
        <time>2020-07-10T13:35:18Z</time>
      </trkpt>
      <trkpt lat="47.7971" lon="-3.5276">
        <ele>11.34</ele>
        <time>2020-07-10T13:35:19Z</time>
      </trkpt>
      <trkpt lat="47.79708" lon="-3.52761">
        <ele>11.15</ele>
        <time>2020-07-10T13:35:20Z</time>
      </trkpt>
      <trkpt lat="47.79706" lon="-3.52763">
        <ele>11.01</ele>
        <time>2020-07-10T13:35:21Z</time>
      </trkpt>
      <trkpt lat="47.79704" lon="-3.52765">
        <ele>10.73</ele>
        <time>2020-07-10T13:35:22Z</time>
      </trkpt>
      <trkpt lat="47.79702" lon="-3.52766">
        <ele>10.41</ele>
        <time>2020-07-10T13:35:23Z</time>
      </trkpt>
      <trkpt lat="47.79699" lon="-3.52767">
        <ele>10.06</ele>
        <time>2020-07-10T13:35:24Z</time>
      </trkpt>
      <trkpt lat="47.79697" lon="-3.52767">
        <ele>9.23</ele>
        <time>2020-07-10T13:35:25Z</time>
      </trkpt>
      <trkpt lat="47.79695" lon="-3.52767">
        <ele>8.34</ele>
        <time>2020-07-10T13:35:26Z</time>
      </trkpt>
      <trkpt lat="47.79692" lon="-3.52766">
        <ele>7.44</ele>
        <time>2020-07-10T13:35:27Z</time>
      </trkpt>
      <trkpt lat="47.7969" lon="-3.52766">
        <ele>6.99</ele>
        <time>2020-07-10T13:35:28Z</time>
      </trkpt>
      <trkpt lat="47.79687" lon="-3.52767">
        <ele>6.74</ele>
        <time>2020-07-10T13:35:29Z</time>
      </trkpt>
      <trkpt lat="47.79685" lon="-3.52768">
        <ele>6.53</ele>
        <time>2020-07-10T13:35:30Z</time>
      </trkpt>
      <trkpt lat="47.79683" lon="-3.52768">
        <ele>6.3</ele>
        <time>2020-07-10T13:35:31Z</time>
      </trkpt>
      <trkpt lat="47.79679" lon="-3.52768">
        <ele>5.78</ele>
        <time>2020-07-10T13:35:32Z</time>
      </trkpt>
      <trkpt lat="47.79676" lon="-3.52768">
        <ele>5.14</ele>
        <time>2020-07-10T13:35:33Z</time>
      </trkpt>
      <trkpt lat="47.79673" lon="-3.52768">
        <ele>4.43</ele>
        <time>2020-07-10T13:35:34Z</time>
      </trkpt>
      <trkpt lat="47.7967" lon="-3.52767">
        <ele>3.67</ele>
        <time>2020-07-10T13:35:35Z</time>
      </trkpt>
      <trkpt lat="47.79666" lon="-3.52768">
        <ele>3.03</ele>
        <time>2020-07-10T13:35:36Z</time>
      </trkpt>
      <trkpt lat="47.7966" lon="-3.5277">
        <ele>2.63</ele>
        <time>2020-07-10T13:35:37Z</time>
      </trkpt>
      <trkpt lat="47.79656" lon="-3.52773">
        <ele>2.44</ele>
        <time>2020-07-10T13:35:38Z</time>
      </trkpt>
      <trkpt lat="47.79651" lon="-3.52778">
        <ele>2.37</ele>
        <time>2020-07-10T13:35:39Z</time>
      </trkpt>
      <trkpt lat="47.79647" lon="-3.52783">
        <ele>2.73</ele>
        <time>2020-07-10T13:35:40Z</time>
      </trkpt>
      <trkpt lat="47.79644" lon="-3.52788">
        <ele>3.37</ele>
        <time>2020-07-10T13:35:41Z</time>
      </trkpt>
      <trkpt lat="47.79641" lon="-3.52792">
        <ele>3.78</ele>
        <time>2020-07-10T13:35:42Z</time>
      </trkpt>
      <trkpt lat="47.79638" lon="-3.52794">
        <ele>4.04</ele>
        <time>2020-07-10T13:35:43Z</time>
      </trkpt>
      <trkpt lat="47.79634" lon="-3.52797">
        <ele>4.5</ele>
        <time>2020-07-10T13:35:44Z</time>
      </trkpt>
      <trkpt lat="47.79631" lon="-3.52799">
        <ele>4.96</ele>
        <time>2020-07-10T13:35:45Z</time>
      </trkpt>
      <trkpt lat="47.79628" lon="-3.52802">
        <ele>5.52</ele>
        <time>2020-07-10T13:35:46Z</time>
      </trkpt>
      <trkpt lat="47.79624" lon="-3.52804">
        <ele>5.97</ele>
        <time>2020-07-10T13:35:47Z</time>
      </trkpt>
      <trkpt lat="47.79622" lon="-3.52807">
        <ele>6.46</ele>
        <time>2020-07-10T13:35:48Z</time>
      </trkpt>
      <trkpt lat="47.79619" lon="-3.52808">
        <ele>6.77</ele>
        <time>2020-07-10T13:35:49Z</time>
      </trkpt>
      <trkpt lat="47.79617" lon="-3.52809">
        <ele>7.02</ele>
        <time>2020-07-10T13:35:50Z</time>
      </trkpt>
      <trkpt lat="47.79615" lon="-3.52811">
        <ele>7.33</ele>
        <time>2020-07-10T13:35:51Z</time>
      </trkpt>
      <trkpt lat="47.79613" lon="-3.52812">
        <ele>7.5</ele>
        <time>2020-07-10T13:35:52Z</time>
      </trkpt>
      <trkpt lat="47.79611" lon="-3.52813">
        <ele>7.47</ele>
        <time>2020-07-10T13:35:53Z</time>
      </trkpt>
      <trkpt lat="47.79608" lon="-3.52813">
        <ele>7.24</ele>
        <time>2020-07-10T13:35:54Z</time>
      </trkpt>
      <trkpt lat="47.79606" lon="-3.52813">
        <ele>6.87</ele>
        <time>2020-07-10T13:35:55Z</time>
      </trkpt>
      <trkpt lat="47.79604" lon="-3.52813">
        <ele>6.45</ele>
        <time>2020-07-10T13:35:56Z</time>
      </trkpt>
      <trkpt lat="47.79601" lon="-3.52814">
        <ele>6.11</ele>
        <time>2020-07-10T13:35:57Z</time>
      </trkpt>
      <trkpt lat="47.79599" lon="-3.52814">
        <ele>5.77</ele>
        <time>2020-07-10T13:35:58Z</time>
      </trkpt>
      <trkpt lat="47.79596" lon="-3.52819">
        <ele>6.01</ele>
        <time>2020-07-10T13:35:59Z</time>
      </trkpt>
      <trkpt lat="47.79594" lon="-3.52821">
        <ele>6.21</ele>
        <time>2020-07-10T13:36:00Z</time>
      </trkpt>
      <trkpt lat="47.79592" lon="-3.52823">
        <ele>6.22</ele>
        <time>2020-07-10T13:36:01Z</time>
      </trkpt>
      <trkpt lat="47.7959" lon="-3.52825">
        <ele>6.33</ele>
        <time>2020-07-10T13:36:02Z</time>
      </trkpt>
      <trkpt lat="47.79587" lon="-3.52828">
        <ele>6.57</ele>
        <time>2020-07-10T13:36:03Z</time>
      </trkpt>
      <trkpt lat="47.79585" lon="-3.5283">
        <ele>6.62</ele>
        <time>2020-07-10T13:36:04Z</time>
      </trkpt>
      <trkpt lat="47.79583" lon="-3.52832">
        <ele>6.68</ele>
        <time>2020-07-10T13:36:05Z</time>
      </trkpt>
      <trkpt lat="47.79582" lon="-3.52835">
        <ele>6.87</ele>
        <time>2020-07-10T13:36:06Z</time>
      </trkpt>
      <trkpt lat="47.7958" lon="-3.52837">
        <ele>7.14</ele>
        <time>2020-07-10T13:36:07Z</time>
      </trkpt>
      <trkpt lat="47.79579" lon="-3.52841">
        <ele>7.58</ele>
        <time>2020-07-10T13:36:08Z</time>
      </trkpt>
      <trkpt lat="47.79578" lon="-3.52843">
        <ele>7.88</ele>
        <time>2020-07-10T13:36:09Z</time>
      </trkpt>
      <trkpt lat="47.79578" lon="-3.52845">
        <ele>8.15</ele>
        <time>2020-07-10T13:36:10Z</time>
      </trkpt>
      <trkpt lat="47.79578" lon="-3.52846">
        <ele>8.44</ele>
        <time>2020-07-10T13:36:11Z</time>
      </trkpt>
      <trkpt lat="47.79578" lon="-3.52848">
        <ele>8.89</ele>
        <time>2020-07-10T13:36:12Z</time>
      </trkpt>
      <trkpt lat="47.79578" lon="-3.52851">
        <ele>9.45</ele>
        <time>2020-07-10T13:36:13Z</time>
      </trkpt>
      <trkpt lat="47.79577" lon="-3.52853">
        <ele>9.81</ele>
        <time>2020-07-10T13:36:14Z</time>
      </trkpt>
      <trkpt lat="47.79577" lon="-3.52855">
        <ele>10.35</ele>
        <time>2020-07-10T13:36:15Z</time>
      </trkpt>
      <trkpt lat="47.79577" lon="-3.52858">
        <ele>10.79</ele>
        <time>2020-07-10T13:36:16Z</time>
      </trkpt>
      <trkpt lat="47.79576" lon="-3.52859">
        <ele>11.06</ele>
        <time>2020-07-10T13:36:17Z</time>
      </trkpt>
      <trkpt lat="47.79576" lon="-3.52862">
        <ele>11.68</ele>
        <time>2020-07-10T13:36:18Z</time>
      </trkpt>
      <trkpt lat="47.79576" lon="-3.52864">
        <ele>12.16</ele>
        <time>2020-07-10T13:36:19Z</time>
      </trkpt>
      <trkpt lat="47.79576" lon="-3.52866">
        <ele>12.38</ele>
        <time>2020-07-10T13:36:20Z</time>
      </trkpt>
      <trkpt lat="47.79575" lon="-3.52867">
        <ele>12.59</ele>
        <time>2020-07-10T13:36:21Z</time>
      </trkpt>
      <trkpt lat="47.79575" lon="-3.5287">
        <ele>13</ele>
        <time>2020-07-10T13:36:22Z</time>
      </trkpt>
      <trkpt lat="47.79576" lon="-3.52872">
        <ele>13.53</ele>
        <time>2020-07-10T13:36:23Z</time>
      </trkpt>
      <trkpt lat="47.79575" lon="-3.52876">
        <ele>14.15</ele>
        <time>2020-07-10T13:36:24Z</time>
      </trkpt>
      <trkpt lat="47.79575" lon="-3.52879">
        <ele>14.8</ele>
        <time>2020-07-10T13:36:25Z</time>
      </trkpt>
      <trkpt lat="47.79576" lon="-3.52882">
        <ele>15.45</ele>
        <time>2020-07-10T13:36:26Z</time>
      </trkpt>
      <trkpt lat="47.79576" lon="-3.52885">
        <ele>16.13</ele>
        <time>2020-07-10T13:36:27Z</time>
      </trkpt>
      <trkpt lat="47.79576" lon="-3.52888">
        <ele>16.74</ele>
        <time>2020-07-10T13:36:28Z</time>
      </trkpt>
      <trkpt lat="47.79575" lon="-3.52892">
        <ele>17.15</ele>
        <time>2020-07-10T13:36:29Z</time>
      </trkpt>
      <trkpt lat="47.79574" lon="-3.52895">
        <ele>17.46</ele>
        <time>2020-07-10T13:36:30Z</time>
      </trkpt>
      <trkpt lat="47.79574" lon="-3.52898">
        <ele>17.72</ele>
        <time>2020-07-10T13:36:31Z</time>
      </trkpt>
      <trkpt lat="47.79573" lon="-3.52902">
        <ele>17.98</ele>
        <time>2020-07-10T13:36:32Z</time>
      </trkpt>
      <trkpt lat="47.79571" lon="-3.52903">
        <ele>18.09</ele>
        <time>2020-07-10T13:36:33Z</time>
      </trkpt>
      <trkpt lat="47.7957" lon="-3.52904">
        <ele>18.11</ele>
        <time>2020-07-10T13:36:34Z</time>
      </trkpt>
      <trkpt lat="47.79569" lon="-3.52904">
        <ele>17.95</ele>
        <time>2020-07-10T13:36:35Z</time>
      </trkpt>
      <trkpt lat="47.79568" lon="-3.52902">
        <ele>17.59</ele>
        <time>2020-07-10T13:36:36Z</time>
      </trkpt>
      <trkpt lat="47.79567" lon="-3.52901">
        <ele>17.16</ele>
        <time>2020-07-10T13:36:37Z</time>
      </trkpt>
      <trkpt lat="47.79566" lon="-3.52898">
        <ele>16.57</ele>
        <time>2020-07-10T13:36:38Z</time>
      </trkpt>
      <trkpt lat="47.79565" lon="-3.52895">
        <ele>15.9</ele>
        <time>2020-07-10T13:36:39Z</time>
      </trkpt>
      <trkpt lat="47.79564" lon="-3.52893">
        <ele>15.21</ele>
        <time>2020-07-10T13:36:40Z</time>
      </trkpt>
      <trkpt lat="47.79563" lon="-3.5289">
        <ele>14.44</ele>
        <time>2020-07-10T13:36:41Z</time>
      </trkpt>
      <trkpt lat="47.7956" lon="-3.52888">
        <ele>13.34</ele>
        <time>2020-07-10T13:36:42Z</time>
      </trkpt>
      <trkpt lat="47.79558" lon="-3.52885">
        <ele>12.28</ele>
        <time>2020-07-10T13:36:43Z</time>
      </trkpt>
      <trkpt lat="47.79556" lon="-3.52883">
        <ele>11.19</ele>
        <time>2020-07-10T13:36:44Z</time>
      </trkpt>
      <trkpt lat="47.79552" lon="-3.52882">
        <ele>10.88</ele>
        <time>2020-07-10T13:36:45Z</time>
      </trkpt>
      <trkpt lat="47.79547" lon="-3.52881">
        <ele>11.04</ele>
        <time>2020-07-10T13:36:46Z</time>
      </trkpt>
      <trkpt lat="47.79543" lon="-3.52881">
        <ele>11.43</ele>
        <time>2020-07-10T13:36:47Z</time>
      </trkpt>
      <trkpt lat="47.79541" lon="-3.52881">
        <ele>11.9</ele>
        <time>2020-07-10T13:36:48Z</time>
      </trkpt>
      <trkpt lat="47.79537" lon="-3.52882">
        <ele>12.46</ele>
        <time>2020-07-10T13:36:49Z</time>
      </trkpt>
      <trkpt lat="47.79534" lon="-3.52882">
        <ele>12.85</ele>
        <time>2020-07-10T13:36:50Z</time>
      </trkpt>
      <trkpt lat="47.79533" lon="-3.52881">
        <ele>12.97</ele>
        <time>2020-07-10T13:36:51Z</time>
      </trkpt>
      <trkpt lat="47.79531" lon="-3.5288">
        <ele>12.98</ele>
        <time>2020-07-10T13:36:52Z</time>
      </trkpt>
      <trkpt lat="47.79529" lon="-3.52879">
        <ele>12.94</ele>
        <time>2020-07-10T13:36:53Z</time>
      </trkpt>
      <trkpt lat="47.79528" lon="-3.52878">
        <ele>12.72</ele>
        <time>2020-07-10T13:36:54Z</time>
      </trkpt>
      <trkpt lat="47.79528" lon="-3.52876">
        <ele>12.36</ele>
        <time>2020-07-10T13:36:55Z</time>
      </trkpt>
      <trkpt lat="47.79527" lon="-3.52875">
        <ele>12.09</ele>
        <time>2020-07-10T13:36:56Z</time>
      </trkpt>
      <trkpt lat="47.79526" lon="-3.52873">
        <ele>11.88</ele>
        <time>2020-07-10T13:36:57Z</time>
      </trkpt>
      <trkpt lat="47.79526" lon="-3.52873">
        <ele>11.76</ele>
        <time>2020-07-10T13:36:58Z</time>
      </trkpt>
      <trkpt lat="47.79525" lon="-3.52872">
        <ele>11.77</ele>
        <time>2020-07-10T13:36:59Z</time>
      </trkpt>
      <trkpt lat="47.79525" lon="-3.52872">
        <ele>11.77</ele>
        <time>2020-07-10T13:37:00Z</time>
      </trkpt>
      <trkpt lat="47.79522" lon="-3.52869">
        <ele>11.57</ele>
        <time>2020-07-10T13:37:01Z</time>
      </trkpt>
      <trkpt lat="47.79521" lon="-3.52868">
        <ele>11.37</ele>
        <time>2020-07-10T13:37:02Z</time>
      </trkpt>
      <trkpt lat="47.7952" lon="-3.52865">
        <ele>11.12</ele>
        <time>2020-07-10T13:37:03Z</time>
      </trkpt>
      <trkpt lat="47.79518" lon="-3.52864">
        <ele>11.11</ele>
        <time>2020-07-10T13:37:04Z</time>
      </trkpt>
      <trkpt lat="47.79517" lon="-3.52861">
        <ele>10.93</ele>
        <time>2020-07-10T13:37:05Z</time>
      </trkpt>
      <trkpt lat="47.79515" lon="-3.52858">
        <ele>10.53</ele>
        <time>2020-07-10T13:37:06Z</time>
      </trkpt>
      <trkpt lat="47.79514" lon="-3.52856">
        <ele>10.18</ele>
        <time>2020-07-10T13:37:07Z</time>
      </trkpt>
      <trkpt lat="47.79512" lon="-3.52853">
        <ele>9.97</ele>
        <time>2020-07-10T13:37:08Z</time>
      </trkpt>
      <trkpt lat="47.79509" lon="-3.52852">
        <ele>9.95</ele>
        <time>2020-07-10T13:37:09Z</time>
      </trkpt>
      <trkpt lat="47.79507" lon="-3.52851">
        <ele>10.06</ele>
        <time>2020-07-10T13:37:10Z</time>
      </trkpt>
      <trkpt lat="47.79505" lon="-3.5285">
        <ele>10.35</ele>
        <time>2020-07-10T13:37:11Z</time>
      </trkpt>
      <trkpt lat="47.79502" lon="-3.5285">
        <ele>10.74</ele>
        <time>2020-07-10T13:37:12Z</time>
      </trkpt>
      <trkpt lat="47.79499" lon="-3.5285">
        <ele>11.35</ele>
        <time>2020-07-10T13:37:13Z</time>
      </trkpt>
      <trkpt lat="47.79496" lon="-3.52849">
        <ele>11.73</ele>
        <time>2020-07-10T13:37:14Z</time>
      </trkpt>
      <trkpt lat="47.79492" lon="-3.52847">
        <ele>11.84</ele>
        <time>2020-07-10T13:37:15Z</time>
      </trkpt>
      <trkpt lat="47.79489" lon="-3.52843">
        <ele>11.66</ele>
        <time>2020-07-10T13:37:16Z</time>
      </trkpt>
      <trkpt lat="47.79486" lon="-3.52839">
        <ele>11.35</ele>
        <time>2020-07-10T13:37:17Z</time>
      </trkpt>
      <trkpt lat="47.79483" lon="-3.52835">
        <ele>11.17</ele>
        <time>2020-07-10T13:37:18Z</time>
      </trkpt>
      <trkpt lat="47.79482" lon="-3.52832">
        <ele>10.93</ele>
        <time>2020-07-10T13:37:19Z</time>
      </trkpt>
      <trkpt lat="47.7948" lon="-3.52829">
        <ele>10.47</ele>
        <time>2020-07-10T13:37:20Z</time>
      </trkpt>
      <trkpt lat="47.79478" lon="-3.52828">
        <ele>10.24</ele>
        <time>2020-07-10T13:37:21Z</time>
      </trkpt>
      <trkpt lat="47.79476" lon="-3.52826">
        <ele>10.2</ele>
        <time>2020-07-10T13:37:22Z</time>
      </trkpt>
      <trkpt lat="47.79473" lon="-3.52826">
        <ele>10.39</ele>
        <time>2020-07-10T13:37:23Z</time>
      </trkpt>
      <trkpt lat="47.7947" lon="-3.52825">
        <ele>10.41</ele>
        <time>2020-07-10T13:37:24Z</time>
      </trkpt>
      <trkpt lat="47.79467" lon="-3.52824">
        <ele>10.28</ele>
        <time>2020-07-10T13:37:25Z</time>
      </trkpt>
      <trkpt lat="47.79466" lon="-3.52823">
        <ele>9.98</ele>
        <time>2020-07-10T13:37:26Z</time>
      </trkpt>
      <trkpt lat="47.79463" lon="-3.52823">
        <ele>9.78</ele>
        <time>2020-07-10T13:37:27Z</time>
      </trkpt>
      <trkpt lat="47.79461" lon="-3.52823">
        <ele>9.7</ele>
        <time>2020-07-10T13:37:28Z</time>
      </trkpt>
      <trkpt lat="47.79458" lon="-3.52823">
        <ele>9.64</ele>
        <time>2020-07-10T13:37:29Z</time>
      </trkpt>
      <trkpt lat="47.79453" lon="-3.52821">
        <ele>9.33</ele>
        <time>2020-07-10T13:37:30Z</time>
      </trkpt>
      <trkpt lat="47.79448" lon="-3.52819">
        <ele>8.8</ele>
        <time>2020-07-10T13:37:31Z</time>
      </trkpt>
      <trkpt lat="47.79443" lon="-3.52815">
        <ele>8.11</ele>
        <time>2020-07-10T13:37:32Z</time>
      </trkpt>
      <trkpt lat="47.79439" lon="-3.5281">
        <ele>7.29</ele>
        <time>2020-07-10T13:37:33Z</time>
      </trkpt>
      <trkpt lat="47.79435" lon="-3.52802">
        <ele>6.4</ele>
        <time>2020-07-10T13:37:34Z</time>
      </trkpt>
      <trkpt lat="47.79431" lon="-3.52793">
        <ele>5.39</ele>
        <time>2020-07-10T13:37:35Z</time>
      </trkpt>
      <trkpt lat="47.79429" lon="-3.52786">
        <ele>4.28</ele>
        <time>2020-07-10T13:37:36Z</time>
      </trkpt>
      <trkpt lat="47.79426" lon="-3.52781">
        <ele>3.57</ele>
        <time>2020-07-10T13:37:37Z</time>
      </trkpt>
      <trkpt lat="47.79423" lon="-3.52778">
        <ele>3.28</ele>
        <time>2020-07-10T13:37:38Z</time>
      </trkpt>
      <trkpt lat="47.79419" lon="-3.52777">
        <ele>3.51</ele>
        <time>2020-07-10T13:37:39Z</time>
      </trkpt>
      <trkpt lat="47.79416" lon="-3.52778">
        <ele>3.81</ele>
        <time>2020-07-10T13:37:40Z</time>
      </trkpt>
      <trkpt lat="47.79412" lon="-3.52779">
        <ele>3.79</ele>
        <time>2020-07-10T13:37:41Z</time>
      </trkpt>
      <trkpt lat="47.79407" lon="-3.52781">
        <ele>3.6</ele>
        <time>2020-07-10T13:37:42Z</time>
      </trkpt>
      <trkpt lat="47.79402" lon="-3.52783">
        <ele>3.45</ele>
        <time>2020-07-10T13:37:43Z</time>
      </trkpt>
      <trkpt lat="47.79398" lon="-3.52786">
        <ele>3.34</ele>
        <time>2020-07-10T13:37:44Z</time>
      </trkpt>
      <trkpt lat="47.79393" lon="-3.52788">
        <ele>3.1</ele>
        <time>2020-07-10T13:37:45Z</time>
      </trkpt>
      <trkpt lat="47.7939" lon="-3.52789">
        <ele>2.88</ele>
        <time>2020-07-10T13:37:46Z</time>
      </trkpt>
      <trkpt lat="47.79388" lon="-3.5279">
        <ele>2.8</ele>
        <time>2020-07-10T13:37:47Z</time>
      </trkpt>
      <trkpt lat="47.79387" lon="-3.52791">
        <ele>2.81</ele>
        <time>2020-07-10T13:37:48Z</time>
      </trkpt>
      <trkpt lat="47.79385" lon="-3.52792">
        <ele>2.82</ele>
        <time>2020-07-10T13:37:49Z</time>
      </trkpt>
      <trkpt lat="47.79383" lon="-3.52794">
        <ele>2.85</ele>
        <time>2020-07-10T13:37:50Z</time>
      </trkpt>
      <trkpt lat="47.79381" lon="-3.52796">
        <ele>2.92</ele>
        <time>2020-07-10T13:37:51Z</time>
      </trkpt>
      <trkpt lat="47.79378" lon="-3.528">
        <ele>3.1</ele>
        <time>2020-07-10T13:37:52Z</time>
      </trkpt>
      <trkpt lat="47.79376" lon="-3.52805">
        <ele>3.39</ele>
        <time>2020-07-10T13:37:53Z</time>
      </trkpt>
      <trkpt lat="47.79374" lon="-3.52811">
        <ele>3.73</ele>
        <time>2020-07-10T13:37:54Z</time>
      </trkpt>
      <trkpt lat="47.79372" lon="-3.52816">
        <ele>3.97</ele>
        <time>2020-07-10T13:37:55Z</time>
      </trkpt>
      <trkpt lat="47.79371" lon="-3.52818">
        <ele>4.06</ele>
        <time>2020-07-10T13:37:56Z</time>
      </trkpt>
      <trkpt lat="47.79369" lon="-3.52819">
        <ele>3.99</ele>
        <time>2020-07-10T13:37:57Z</time>
      </trkpt>
      <trkpt lat="47.79368" lon="-3.52819">
        <ele>3.88</ele>
        <time>2020-07-10T13:37:58Z</time>
      </trkpt>
      <trkpt lat="47.79367" lon="-3.5282">
        <ele>3.83</ele>
        <time>2020-07-10T13:37:59Z</time>
      </trkpt>
      <trkpt lat="47.79366" lon="-3.52821">
        <ele>3.74</ele>
        <time>2020-07-10T13:38:00Z</time>
      </trkpt>
      <trkpt lat="47.79364" lon="-3.52821">
        <ele>3.59</ele>
        <time>2020-07-10T13:38:01Z</time>
      </trkpt>
      <trkpt lat="47.79362" lon="-3.52821">
        <ele>3.34</ele>
        <time>2020-07-10T13:38:02Z</time>
      </trkpt>
      <trkpt lat="47.79359" lon="-3.52822">
        <ele>3.15</ele>
        <time>2020-07-10T13:38:03Z</time>
      </trkpt>
      <trkpt lat="47.79355" lon="-3.52824">
        <ele>3.06</ele>
        <time>2020-07-10T13:38:04Z</time>
      </trkpt>
      <trkpt lat="47.79351" lon="-3.52827">
        <ele>3.12</ele>
        <time>2020-07-10T13:38:05Z</time>
      </trkpt>
      <trkpt lat="47.79348" lon="-3.52831">
        <ele>3.25</ele>
        <time>2020-07-10T13:38:06Z</time>
      </trkpt>
      <trkpt lat="47.79345" lon="-3.52833">
        <ele>3.4</ele>
        <time>2020-07-10T13:38:07Z</time>
      </trkpt>
      <trkpt lat="47.79343" lon="-3.52835">
        <ele>3.45</ele>
        <time>2020-07-10T13:38:08Z</time>
      </trkpt>
      <trkpt lat="47.79341" lon="-3.52835">
        <ele>3.43</ele>
        <time>2020-07-10T13:38:09Z</time>
      </trkpt>
      <trkpt lat="47.79338" lon="-3.52836">
        <ele>3.44</ele>
        <time>2020-07-10T13:38:10Z</time>
      </trkpt>
      <trkpt lat="47.79335" lon="-3.52837">
        <ele>3.47</ele>
        <time>2020-07-10T13:38:11Z</time>
      </trkpt>
      <trkpt lat="47.79333" lon="-3.52839">
        <ele>3.55</ele>
        <time>2020-07-10T13:38:12Z</time>
      </trkpt>
      <trkpt lat="47.79331" lon="-3.52842">
        <ele>3.74</ele>
        <time>2020-07-10T13:38:13Z</time>
      </trkpt>
      <trkpt lat="47.79329" lon="-3.52845">
        <ele>3.92</ele>
        <time>2020-07-10T13:38:14Z</time>
      </trkpt>
      <trkpt lat="47.79327" lon="-3.52846">
        <ele>4.02</ele>
        <time>2020-07-10T13:38:15Z</time>
      </trkpt>
      <trkpt lat="47.79325" lon="-3.52848">
        <ele>4.13</ele>
        <time>2020-07-10T13:38:16Z</time>
      </trkpt>
      <trkpt lat="47.79323" lon="-3.52851">
        <ele>4.22</ele>
        <time>2020-07-10T13:38:17Z</time>
      </trkpt>
      <trkpt lat="47.7932" lon="-3.52853">
        <ele>4.28</ele>
        <time>2020-07-10T13:38:18Z</time>
      </trkpt>
      <trkpt lat="47.79317" lon="-3.52855">
        <ele>4.3</ele>
        <time>2020-07-10T13:38:19Z</time>
      </trkpt>
      <trkpt lat="47.79314" lon="-3.52857">
        <ele>4.27</ele>
        <time>2020-07-10T13:38:20Z</time>
      </trkpt>
      <trkpt lat="47.79308" lon="-3.52858">
        <ele>4.03</ele>
        <time>2020-07-10T13:38:21Z</time>
      </trkpt>
      <trkpt lat="47.79303" lon="-3.5286">
        <ele>3.87</ele>
        <time>2020-07-10T13:38:22Z</time>
      </trkpt>
      <trkpt lat="47.79297" lon="-3.5286">
        <ele>3.71</ele>
        <time>2020-07-10T13:38:23Z</time>
      </trkpt>
      <trkpt lat="47.79292" lon="-3.5286">
        <ele>3.5</ele>
        <time>2020-07-10T13:38:24Z</time>
      </trkpt>
      <trkpt lat="47.79287" lon="-3.5286">
        <ele>3.34</ele>
        <time>2020-07-10T13:38:25Z</time>
      </trkpt>
      <trkpt lat="47.79282" lon="-3.52862">
        <ele>3.24</ele>
        <time>2020-07-10T13:38:26Z</time>
      </trkpt>
      <trkpt lat="47.79277" lon="-3.52863">
        <ele>3.18</ele>
        <time>2020-07-10T13:38:27Z</time>
      </trkpt>
      <trkpt lat="47.79272" lon="-3.52866">
        <ele>3.07</ele>
        <time>2020-07-10T13:38:28Z</time>
      </trkpt>
      <trkpt lat="47.79268" lon="-3.52868">
        <ele>3.02</ele>
        <time>2020-07-10T13:38:29Z</time>
      </trkpt>
      <trkpt lat="47.79264" lon="-3.52871">
        <ele>3.03</ele>
        <time>2020-07-10T13:38:30Z</time>
      </trkpt>
      <trkpt lat="47.7926" lon="-3.52875">
        <ele>3.17</ele>
        <time>2020-07-10T13:38:31Z</time>
      </trkpt>
      <trkpt lat="47.79256" lon="-3.52878">
        <ele>3.25</ele>
        <time>2020-07-10T13:38:32Z</time>
      </trkpt>
      <trkpt lat="47.79252" lon="-3.52881">
        <ele>3.27</ele>
        <time>2020-07-10T13:38:33Z</time>
      </trkpt>
      <trkpt lat="47.79247" lon="-3.52885">
        <ele>3.15</ele>
        <time>2020-07-10T13:38:34Z</time>
      </trkpt>
      <trkpt lat="47.79242" lon="-3.52889">
        <ele>3</ele>
        <time>2020-07-10T13:38:35Z</time>
      </trkpt>
      <trkpt lat="47.79238" lon="-3.52894">
        <ele>2.76</ele>
        <time>2020-07-10T13:38:36Z</time>
      </trkpt>
      <trkpt lat="47.79235" lon="-3.52897">
        <ele>2.57</ele>
        <time>2020-07-10T13:38:37Z</time>
      </trkpt>
      <trkpt lat="47.79233" lon="-3.529">
        <ele>2.38</ele>
        <time>2020-07-10T13:38:38Z</time>
      </trkpt>
      <trkpt lat="47.7923" lon="-3.52904">
        <ele>2.18</ele>
        <time>2020-07-10T13:38:39Z</time>
      </trkpt>
      <trkpt lat="47.79226" lon="-3.52908">
        <ele>1.97</ele>
        <time>2020-07-10T13:38:40Z</time>
      </trkpt>
      <trkpt lat="47.79223" lon="-3.52911">
        <ele>1.8</ele>
        <time>2020-07-10T13:38:41Z</time>
      </trkpt>
      <trkpt lat="47.7922" lon="-3.52915">
        <ele>1.77</ele>
        <time>2020-07-10T13:38:42Z</time>
      </trkpt>
      <trkpt lat="47.79218" lon="-3.52919">
        <ele>1.86</ele>
        <time>2020-07-10T13:38:43Z</time>
      </trkpt>
      <trkpt lat="47.79215" lon="-3.52924">
        <ele>2</ele>
        <time>2020-07-10T13:38:44Z</time>
      </trkpt>
      <trkpt lat="47.79213" lon="-3.52929">
        <ele>2.13</ele>
        <time>2020-07-10T13:38:45Z</time>
      </trkpt>
      <trkpt lat="47.7921" lon="-3.52934">
        <ele>2.2</ele>
        <time>2020-07-10T13:38:46Z</time>
      </trkpt>
      <trkpt lat="47.79208" lon="-3.52939">
        <ele>2.18</ele>
        <time>2020-07-10T13:38:47Z</time>
      </trkpt>
      <trkpt lat="47.79206" lon="-3.52945">
        <ele>2.12</ele>
        <time>2020-07-10T13:38:48Z</time>
      </trkpt>
      <trkpt lat="47.79204" lon="-3.52951">
        <ele>2.01</ele>
        <time>2020-07-10T13:38:49Z</time>
      </trkpt>
      <trkpt lat="47.79203" lon="-3.52957">
        <ele>1.89</ele>
        <time>2020-07-10T13:38:50Z</time>
      </trkpt>
      <trkpt lat="47.79201" lon="-3.52962">
        <ele>1.74</ele>
        <time>2020-07-10T13:38:51Z</time>
      </trkpt>
      <trkpt lat="47.792" lon="-3.52967">
        <ele>1.66</ele>
        <time>2020-07-10T13:38:52Z</time>
      </trkpt>
      <trkpt lat="47.79199" lon="-3.52973">
        <ele>1.67</ele>
        <time>2020-07-10T13:38:53Z</time>
      </trkpt>
      <trkpt lat="47.79198" lon="-3.52978">
        <ele>1.83</ele>
        <time>2020-07-10T13:38:54Z</time>
      </trkpt>
      <trkpt lat="47.79197" lon="-3.52985">
        <ele>2.11</ele>
        <time>2020-07-10T13:38:55Z</time>
      </trkpt>
      <trkpt lat="47.79195" lon="-3.52992">
        <ele>2.4</ele>
        <time>2020-07-10T13:38:56Z</time>
      </trkpt>
      <trkpt lat="47.79194" lon="-3.52999">
        <ele>2.72</ele>
        <time>2020-07-10T13:38:57Z</time>
      </trkpt>
      <trkpt lat="47.79193" lon="-3.53005">
        <ele>3.04</ele>
        <time>2020-07-10T13:38:58Z</time>
      </trkpt>
      <trkpt lat="47.7919" lon="-3.53011">
        <ele>3.26</ele>
        <time>2020-07-10T13:38:59Z</time>
      </trkpt>
      <trkpt lat="47.79188" lon="-3.53016">
        <ele>3.36</ele>
        <time>2020-07-10T13:39:00Z</time>
      </trkpt>
      <trkpt lat="47.79184" lon="-3.5302">
        <ele>3.34</ele>
        <time>2020-07-10T13:39:01Z</time>
      </trkpt>
      <trkpt lat="47.79181" lon="-3.53022">
        <ele>3.24</ele>
        <time>2020-07-10T13:39:02Z</time>
      </trkpt>
      <trkpt lat="47.79178" lon="-3.53024">
        <ele>3.07</ele>
        <time>2020-07-10T13:39:03Z</time>
      </trkpt>
      <trkpt lat="47.79175" lon="-3.53025">
        <ele>2.82</ele>
        <time>2020-07-10T13:39:04Z</time>
      </trkpt>
      <trkpt lat="47.79172" lon="-3.53026">
        <ele>2.55</ele>
        <time>2020-07-10T13:39:05Z</time>
      </trkpt>
      <trkpt lat="47.79168" lon="-3.53027">
        <ele>2.23</ele>
        <time>2020-07-10T13:39:06Z</time>
      </trkpt>
      <trkpt lat="47.79164" lon="-3.53028">
        <ele>1.96</ele>
        <time>2020-07-10T13:39:07Z</time>
      </trkpt>
      <trkpt lat="47.7916" lon="-3.53029">
        <ele>1.75</ele>
        <time>2020-07-10T13:39:08Z</time>
      </trkpt>
      <trkpt lat="47.79156" lon="-3.53031">
        <ele>1.58</ele>
        <time>2020-07-10T13:39:09Z</time>
      </trkpt>
      <trkpt lat="47.79152" lon="-3.53033">
        <ele>1.44</ele>
        <time>2020-07-10T13:39:10Z</time>
      </trkpt>
      <trkpt lat="47.7915" lon="-3.53035">
        <ele>1.42</ele>
        <time>2020-07-10T13:39:11Z</time>
      </trkpt>
      <trkpt lat="47.79147" lon="-3.53039">
        <ele>1.46</ele>
        <time>2020-07-10T13:39:12Z</time>
      </trkpt>
      <trkpt lat="47.79144" lon="-3.53043">
        <ele>1.54</ele>
        <time>2020-07-10T13:39:13Z</time>
      </trkpt>
      <trkpt lat="47.79142" lon="-3.53047">
        <ele>1.63</ele>
        <time>2020-07-10T13:39:14Z</time>
      </trkpt>
      <trkpt lat="47.79139" lon="-3.53053">
        <ele>1.75</ele>
        <time>2020-07-10T13:39:15Z</time>
      </trkpt>
      <trkpt lat="47.79137" lon="-3.53058">
        <ele>1.84</ele>
        <time>2020-07-10T13:39:16Z</time>
      </trkpt>
      <trkpt lat="47.79136" lon="-3.53063">
        <ele>1.82</ele>
        <time>2020-07-10T13:39:17Z</time>
      </trkpt>
      <trkpt lat="47.79136" lon="-3.53068">
        <ele>1.78</ele>
        <time>2020-07-10T13:39:18Z</time>
      </trkpt>
      <trkpt lat="47.79136" lon="-3.53073">
        <ele>1.78</ele>
        <time>2020-07-10T13:39:19Z</time>
      </trkpt>
      <trkpt lat="47.79137" lon="-3.5308">
        <ele>1.81</ele>
        <time>2020-07-10T13:39:20Z</time>
      </trkpt>
      <trkpt lat="47.79138" lon="-3.53086">
        <ele>1.87</ele>
        <time>2020-07-10T13:39:21Z</time>
      </trkpt>
      <trkpt lat="47.79139" lon="-3.53093">
        <ele>1.95</ele>
        <time>2020-07-10T13:39:22Z</time>
      </trkpt>
      <trkpt lat="47.7914" lon="-3.53099">
        <ele>2.17</ele>
        <time>2020-07-10T13:39:23Z</time>
      </trkpt>
      <trkpt lat="47.79142" lon="-3.53106">
        <ele>2.56</ele>
        <time>2020-07-10T13:39:24Z</time>
      </trkpt>
      <trkpt lat="47.79144" lon="-3.53112">
        <ele>2.99</ele>
        <time>2020-07-10T13:39:25Z</time>
      </trkpt>
      <trkpt lat="47.79145" lon="-3.53118">
        <ele>3.26</ele>
        <time>2020-07-10T13:39:26Z</time>
      </trkpt>
      <trkpt lat="47.79147" lon="-3.53125">
        <ele>3.38</ele>
        <time>2020-07-10T13:39:27Z</time>
      </trkpt>
      <trkpt lat="47.79147" lon="-3.5313">
        <ele>3.37</ele>
        <time>2020-07-10T13:39:28Z</time>
      </trkpt>
      <trkpt lat="47.79146" lon="-3.53135">
        <ele>3.01</ele>
        <time>2020-07-10T13:39:29Z</time>
      </trkpt>
      <trkpt lat="47.79144" lon="-3.53139">
        <ele>2.42</ele>
        <time>2020-07-10T13:39:30Z</time>
      </trkpt>
      <trkpt lat="47.79139" lon="-3.53142">
        <ele>1.59</ele>
        <time>2020-07-10T13:39:31Z</time>
      </trkpt>
      <trkpt lat="47.79135" lon="-3.53147">
        <ele>1.26</ele>
        <time>2020-07-10T13:39:32Z</time>
      </trkpt>
      <trkpt lat="47.7913" lon="-3.53151">
        <ele>1.15</ele>
        <time>2020-07-10T13:39:33Z</time>
      </trkpt>
      <trkpt lat="47.79125" lon="-3.53154">
        <ele>1.09</ele>
        <time>2020-07-10T13:39:34Z</time>
      </trkpt>
      <trkpt lat="47.79121" lon="-3.53156">
        <ele>1</ele>
        <time>2020-07-10T13:39:35Z</time>
      </trkpt>
      <trkpt lat="47.79116" lon="-3.53159">
        <ele>0.93</ele>
        <time>2020-07-10T13:39:36Z</time>
      </trkpt>
      <trkpt lat="47.79112" lon="-3.53161">
        <ele>0.87</ele>
        <time>2020-07-10T13:39:37Z</time>
      </trkpt>
      <trkpt lat="47.79109" lon="-3.53164">
        <ele>0.9</ele>
        <time>2020-07-10T13:39:38Z</time>
      </trkpt>
      <trkpt lat="47.79105" lon="-3.53167">
        <ele>0.97</ele>
        <time>2020-07-10T13:39:39Z</time>
      </trkpt>
      <trkpt lat="47.79101" lon="-3.53169">
        <ele>1.04</ele>
        <time>2020-07-10T13:39:40Z</time>
      </trkpt>
      <trkpt lat="47.79097" lon="-3.53171">
        <ele>1.12</ele>
        <time>2020-07-10T13:39:41Z</time>
      </trkpt>
      <trkpt lat="47.79093" lon="-3.53174">
        <ele>1.21</ele>
        <time>2020-07-10T13:39:42Z</time>
      </trkpt>
      <trkpt lat="47.79088" lon="-3.53176">
        <ele>1.3</ele>
        <time>2020-07-10T13:39:43Z</time>
      </trkpt>
      <trkpt lat="47.79084" lon="-3.53179">
        <ele>1.4</ele>
        <time>2020-07-10T13:39:44Z</time>
      </trkpt>
      <trkpt lat="47.79079" lon="-3.53182">
        <ele>1.45</ele>
        <time>2020-07-10T13:39:45Z</time>
      </trkpt>
      <trkpt lat="47.79075" lon="-3.53185">
        <ele>1.51</ele>
        <time>2020-07-10T13:39:46Z</time>
      </trkpt>
      <trkpt lat="47.79071" lon="-3.53187">
        <ele>1.59</ele>
        <time>2020-07-10T13:39:47Z</time>
      </trkpt>
      <trkpt lat="47.79067" lon="-3.5319">
        <ele>1.69</ele>
        <time>2020-07-10T13:39:48Z</time>
      </trkpt>
      <trkpt lat="47.79063" lon="-3.53192">
        <ele>1.78</ele>
        <time>2020-07-10T13:39:49Z</time>
      </trkpt>
      <trkpt lat="47.79059" lon="-3.53194">
        <ele>1.91</ele>
        <time>2020-07-10T13:39:50Z</time>
      </trkpt>
      <trkpt lat="47.79056" lon="-3.53196">
        <ele>2.05</ele>
        <time>2020-07-10T13:39:51Z</time>
      </trkpt>
      <trkpt lat="47.79054" lon="-3.53197">
        <ele>2.26</ele>
        <time>2020-07-10T13:39:52Z</time>
      </trkpt>
      <trkpt lat="47.79051" lon="-3.53198">
        <ele>2.55</ele>
        <time>2020-07-10T13:39:53Z</time>
      </trkpt>
      <trkpt lat="47.79048" lon="-3.53199">
        <ele>2.84</ele>
        <time>2020-07-10T13:39:54Z</time>
      </trkpt>
      <trkpt lat="47.79044" lon="-3.53199">
        <ele>3.1</ele>
        <time>2020-07-10T13:39:55Z</time>
      </trkpt>
      <trkpt lat="47.79041" lon="-3.53198">
        <ele>3.25</ele>
        <time>2020-07-10T13:39:56Z</time>
      </trkpt>
      <trkpt lat="47.79039" lon="-3.53196">
        <ele>3.32</ele>
        <time>2020-07-10T13:39:57Z</time>
      </trkpt>
      <trkpt lat="47.79036" lon="-3.53195">
        <ele>3.38</ele>
        <time>2020-07-10T13:39:58Z</time>
      </trkpt>
      <trkpt lat="47.79034" lon="-3.53194">
        <ele>3.42</ele>
        <time>2020-07-10T13:39:59Z</time>
      </trkpt>
      <trkpt lat="47.79032" lon="-3.53192">
        <ele>3.45</ele>
        <time>2020-07-10T13:40:00Z</time>
      </trkpt>
      <trkpt lat="47.7903" lon="-3.53191">
        <ele>3.46</ele>
        <time>2020-07-10T13:40:01Z</time>
      </trkpt>
      <trkpt lat="47.79028" lon="-3.53189">
        <ele>3.4</ele>
        <time>2020-07-10T13:40:02Z</time>
      </trkpt>
      <trkpt lat="47.79026" lon="-3.53187">
        <ele>3.45</ele>
        <time>2020-07-10T13:40:03Z</time>
      </trkpt>
      <trkpt lat="47.79024" lon="-3.53186">
        <ele>3.61</ele>
        <time>2020-07-10T13:40:04Z</time>
      </trkpt>
      <trkpt lat="47.79021" lon="-3.53185">
        <ele>3.83</ele>
        <time>2020-07-10T13:40:05Z</time>
      </trkpt>
      <trkpt lat="47.79019" lon="-3.53184">
        <ele>3.98</ele>
        <time>2020-07-10T13:40:06Z</time>
      </trkpt>
      <trkpt lat="47.79016" lon="-3.53182">
        <ele>4.11</ele>
        <time>2020-07-10T13:40:07Z</time>
      </trkpt>
      <trkpt lat="47.79014" lon="-3.53181">
        <ele>4.25</ele>
        <time>2020-07-10T13:40:08Z</time>
      </trkpt>
      <trkpt lat="47.79012" lon="-3.5318">
        <ele>4.34</ele>
        <time>2020-07-10T13:40:09Z</time>
      </trkpt>
      <trkpt lat="47.7901" lon="-3.53178">
        <ele>4.3</ele>
        <time>2020-07-10T13:40:10Z</time>
      </trkpt>
      <trkpt lat="47.79009" lon="-3.53177">
        <ele>4.24</ele>
        <time>2020-07-10T13:40:11Z</time>
      </trkpt>
      <trkpt lat="47.79006" lon="-3.53176">
        <ele>4.27</ele>
        <time>2020-07-10T13:40:12Z</time>
      </trkpt>
      <trkpt lat="47.79003" lon="-3.53174">
        <ele>4.24</ele>
        <time>2020-07-10T13:40:13Z</time>
      </trkpt>
      <trkpt lat="47.79001" lon="-3.53173">
        <ele>4.22</ele>
        <time>2020-07-10T13:40:14Z</time>
      </trkpt>
      <trkpt lat="47.78998" lon="-3.53171">
        <ele>4.39</ele>
        <time>2020-07-10T13:40:15Z</time>
      </trkpt>
      <trkpt lat="47.78996" lon="-3.5317">
        <ele>4.6</ele>
        <time>2020-07-10T13:40:16Z</time>
      </trkpt>
      <trkpt lat="47.78994" lon="-3.53168">
        <ele>4.85</ele>
        <time>2020-07-10T13:40:17Z</time>
      </trkpt>
      <trkpt lat="47.78991" lon="-3.53167">
        <ele>5.14</ele>
        <time>2020-07-10T13:40:18Z</time>
      </trkpt>
      <trkpt lat="47.78988" lon="-3.53166">
        <ele>5.58</ele>
        <time>2020-07-10T13:40:19Z</time>
      </trkpt>
      <trkpt lat="47.78986" lon="-3.53165">
        <ele>6.08</ele>
        <time>2020-07-10T13:40:20Z</time>
      </trkpt>
      <trkpt lat="47.78983" lon="-3.53163">
        <ele>6.45</ele>
        <time>2020-07-10T13:40:21Z</time>
      </trkpt>
      <trkpt lat="47.7898" lon="-3.53161">
        <ele>6.8</ele>
        <time>2020-07-10T13:40:22Z</time>
      </trkpt>
      <trkpt lat="47.78977" lon="-3.5316">
        <ele>7.06</ele>
        <time>2020-07-10T13:40:23Z</time>
      </trkpt>
      <trkpt lat="47.78974" lon="-3.53158">
        <ele>7.28</ele>
        <time>2020-07-10T13:40:24Z</time>
      </trkpt>
      <trkpt lat="47.78971" lon="-3.53155">
        <ele>7.25</ele>
        <time>2020-07-10T13:40:25Z</time>
      </trkpt>
      <trkpt lat="47.78968" lon="-3.53152">
        <ele>7.16</ele>
        <time>2020-07-10T13:40:26Z</time>
      </trkpt>
      <trkpt lat="47.78965" lon="-3.53149">
        <ele>7.06</ele>
        <time>2020-07-10T13:40:27Z</time>
      </trkpt>
      <trkpt lat="47.78963" lon="-3.53148">
        <ele>6.99</ele>
        <time>2020-07-10T13:40:28Z</time>
      </trkpt>
      <trkpt lat="47.78962" lon="-3.53147">
        <ele>6.94</ele>
        <time>2020-07-10T13:40:29Z</time>
      </trkpt>
      <trkpt lat="47.78961" lon="-3.53147">
        <ele>7</ele>
        <time>2020-07-10T13:40:30Z</time>
      </trkpt>
      <trkpt lat="47.78961" lon="-3.53147">
        <ele>7.13</ele>
        <time>2020-07-10T13:40:31Z</time>
      </trkpt>
      <trkpt lat="47.78961" lon="-3.53147">
        <ele>7.17</ele>
        <time>2020-07-10T13:40:32Z</time>
      </trkpt>
      <trkpt lat="47.78961" lon="-3.53147">
        <ele>7.18</ele>
        <time>2020-07-10T13:40:33Z</time>
      </trkpt>
      <trkpt lat="47.78955" lon="-3.53147">
        <ele>7.85</ele>
        <time>2020-07-10T13:40:34Z</time>
      </trkpt>
      <trkpt lat="47.78953" lon="-3.53147">
        <ele>8.35</ele>
        <time>2020-07-10T13:40:35Z</time>
      </trkpt>
      <trkpt lat="47.78951" lon="-3.53146">
        <ele>8.69</ele>
        <time>2020-07-10T13:40:36Z</time>
      </trkpt>
      <trkpt lat="47.78949" lon="-3.53146">
        <ele>9.15</ele>
        <time>2020-07-10T13:40:37Z</time>
      </trkpt>
      <trkpt lat="47.78946" lon="-3.53145">
        <ele>9.41</ele>
        <time>2020-07-10T13:40:38Z</time>
      </trkpt>
      <trkpt lat="47.78943" lon="-3.53145">
        <ele>9.95</ele>
        <time>2020-07-10T13:40:39Z</time>
      </trkpt>
      <trkpt lat="47.78939" lon="-3.53145">
        <ele>10.88</ele>
        <time>2020-07-10T13:40:40Z</time>
      </trkpt>
      <trkpt lat="47.78936" lon="-3.53146">
        <ele>11.98</ele>
        <time>2020-07-10T13:40:41Z</time>
      </trkpt>
      <trkpt lat="47.78934" lon="-3.53146">
        <ele>12.87</ele>
        <time>2020-07-10T13:40:42Z</time>
      </trkpt>
      <trkpt lat="47.78931" lon="-3.53147">
        <ele>13.9</ele>
        <time>2020-07-10T13:40:43Z</time>
      </trkpt>
      <trkpt lat="47.78928" lon="-3.53145">
        <ele>14.38</ele>
        <time>2020-07-10T13:40:44Z</time>
      </trkpt>
      <trkpt lat="47.78926" lon="-3.53144">
        <ele>14.71</ele>
        <time>2020-07-10T13:40:45Z</time>
      </trkpt>
      <trkpt lat="47.78924" lon="-3.53143">
        <ele>15.07</ele>
        <time>2020-07-10T13:40:46Z</time>
      </trkpt>
      <trkpt lat="47.78922" lon="-3.53141">
        <ele>15.29</ele>
        <time>2020-07-10T13:40:47Z</time>
      </trkpt>
      <trkpt lat="47.7892" lon="-3.5314">
        <ele>15.43</ele>
        <time>2020-07-10T13:40:48Z</time>
      </trkpt>
      <trkpt lat="47.78917" lon="-3.53138">
        <ele>15.54</ele>
        <time>2020-07-10T13:40:49Z</time>
      </trkpt>
      <trkpt lat="47.78915" lon="-3.53137">
        <ele>15.7</ele>
        <time>2020-07-10T13:40:50Z</time>
      </trkpt>
      <trkpt lat="47.78912" lon="-3.53137">
        <ele>16.55</ele>
        <time>2020-07-10T13:40:51Z</time>
      </trkpt>
      <trkpt lat="47.78909" lon="-3.53136">
        <ele>17.29</ele>
        <time>2020-07-10T13:40:52Z</time>
      </trkpt>
      <trkpt lat="47.78906" lon="-3.53135">
        <ele>17.97</ele>
        <time>2020-07-10T13:40:53Z</time>
      </trkpt>
      <trkpt lat="47.78904" lon="-3.53135">
        <ele>18.7</ele>
        <time>2020-07-10T13:40:54Z</time>
      </trkpt>
      <trkpt lat="47.78901" lon="-3.53134">
        <ele>19.42</ele>
        <time>2020-07-10T13:40:55Z</time>
      </trkpt>
      <trkpt lat="47.78898" lon="-3.53134">
        <ele>20.02</ele>
        <time>2020-07-10T13:40:56Z</time>
      </trkpt>
      <trkpt lat="47.78896" lon="-3.53133">
        <ele>20.69</ele>
        <time>2020-07-10T13:40:57Z</time>
      </trkpt>
      <trkpt lat="47.78895" lon="-3.53133">
        <ele>21.24</ele>
        <time>2020-07-10T13:40:58Z</time>
      </trkpt>
      <trkpt lat="47.78893" lon="-3.53132">
        <ele>21.67</ele>
        <time>2020-07-10T13:40:59Z</time>
      </trkpt>
      <trkpt lat="47.78892" lon="-3.53131">
        <ele>21.78</ele>
        <time>2020-07-10T13:41:00Z</time>
      </trkpt>
      <trkpt lat="47.7889" lon="-3.53129">
        <ele>21.58</ele>
        <time>2020-07-10T13:41:01Z</time>
      </trkpt>
      <trkpt lat="47.78888" lon="-3.53128">
        <ele>21.51</ele>
        <time>2020-07-10T13:41:02Z</time>
      </trkpt>
      <trkpt lat="47.78887" lon="-3.53127">
        <ele>21.53</ele>
        <time>2020-07-10T13:41:03Z</time>
      </trkpt>
      <trkpt lat="47.78885" lon="-3.53126">
        <ele>21.55</ele>
        <time>2020-07-10T13:41:04Z</time>
      </trkpt>
      <trkpt lat="47.78884" lon="-3.53124">
        <ele>21.38</ele>
        <time>2020-07-10T13:41:05Z</time>
      </trkpt>
      <trkpt lat="47.78882" lon="-3.53123">
        <ele>21.37</ele>
        <time>2020-07-10T13:41:06Z</time>
      </trkpt>
      <trkpt lat="47.78881" lon="-3.53122">
        <ele>21.38</ele>
        <time>2020-07-10T13:41:07Z</time>
      </trkpt>
      <trkpt lat="47.78881" lon="-3.53122">
        <ele>21.59</ele>
        <time>2020-07-10T13:41:08Z</time>
      </trkpt>
      <trkpt lat="47.7888" lon="-3.53121">
        <ele>21.56</ele>
        <time>2020-07-10T13:41:09Z</time>
      </trkpt>
      <trkpt lat="47.7888" lon="-3.53121">
        <ele>21.55</ele>
        <time>2020-07-10T13:41:10Z</time>
      </trkpt>
      <trkpt lat="47.7888" lon="-3.53121">
        <ele>21.55</ele>
        <time>2020-07-10T13:41:11Z</time>
      </trkpt>
      <trkpt lat="47.78877" lon="-3.53114">
        <ele>20.63</ele>
        <time>2020-07-10T13:41:12Z</time>
      </trkpt>
      <trkpt lat="47.78876" lon="-3.53112">
        <ele>19.91</ele>
        <time>2020-07-10T13:41:13Z</time>
      </trkpt>
      <trkpt lat="47.78875" lon="-3.53108">
        <ele>19.1</ele>
        <time>2020-07-10T13:41:14Z</time>
      </trkpt>
      <trkpt lat="47.78874" lon="-3.53105">
        <ele>18.53</ele>
        <time>2020-07-10T13:41:15Z</time>
      </trkpt>
      <trkpt lat="47.78873" lon="-3.53102">
        <ele>17.81</ele>
        <time>2020-07-10T13:41:16Z</time>
      </trkpt>
      <trkpt lat="47.78872" lon="-3.531">
        <ele>17.21</ele>
        <time>2020-07-10T13:41:17Z</time>
      </trkpt>
      <trkpt lat="47.78871" lon="-3.53097">
        <ele>16.75</ele>
        <time>2020-07-10T13:41:18Z</time>
      </trkpt>
      <trkpt lat="47.78869" lon="-3.53094">
        <ele>16.5</ele>
        <time>2020-07-10T13:41:19Z</time>
      </trkpt>
      <trkpt lat="47.78868" lon="-3.53092">
        <ele>16.25</ele>
        <time>2020-07-10T13:41:20Z</time>
      </trkpt>
      <trkpt lat="47.78866" lon="-3.53088">
        <ele>15.91</ele>
        <time>2020-07-10T13:41:21Z</time>
      </trkpt>
      <trkpt lat="47.78865" lon="-3.53084">
        <ele>15.56</ele>
        <time>2020-07-10T13:41:22Z</time>
      </trkpt>
      <trkpt lat="47.78862" lon="-3.53079">
        <ele>15.33</ele>
        <time>2020-07-10T13:41:23Z</time>
      </trkpt>
      <trkpt lat="47.78859" lon="-3.53072">
        <ele>14.66</ele>
        <time>2020-07-10T13:41:24Z</time>
      </trkpt>
      <trkpt lat="47.78855" lon="-3.53064">
        <ele>13.75</ele>
        <time>2020-07-10T13:41:25Z</time>
      </trkpt>
      <trkpt lat="47.78852" lon="-3.53055">
        <ele>12.8</ele>
        <time>2020-07-10T13:41:26Z</time>
      </trkpt>
      <trkpt lat="47.78848" lon="-3.53046">
        <ele>12.29</ele>
        <time>2020-07-10T13:41:27Z</time>
      </trkpt>
      <trkpt lat="47.78845" lon="-3.53037">
        <ele>11.9</ele>
        <time>2020-07-10T13:41:28Z</time>
      </trkpt>
      <trkpt lat="47.78843" lon="-3.5303">
        <ele>11.46</ele>
        <time>2020-07-10T13:41:29Z</time>
      </trkpt>
      <trkpt lat="47.78841" lon="-3.53024">
        <ele>11.11</ele>
        <time>2020-07-10T13:41:30Z</time>
      </trkpt>
      <trkpt lat="47.78839" lon="-3.53018">
        <ele>10.41</ele>
        <time>2020-07-10T13:41:31Z</time>
      </trkpt>
      <trkpt lat="47.78836" lon="-3.53013">
        <ele>9.84</ele>
        <time>2020-07-10T13:41:32Z</time>
      </trkpt>
      <trkpt lat="47.78834" lon="-3.53008">
        <ele>9.32</ele>
        <time>2020-07-10T13:41:33Z</time>
      </trkpt>
      <trkpt lat="47.78832" lon="-3.53003">
        <ele>8.43</ele>
        <time>2020-07-10T13:41:34Z</time>
      </trkpt>
      <trkpt lat="47.78829" lon="-3.52998">
        <ele>7.37</ele>
        <time>2020-07-10T13:41:35Z</time>
      </trkpt>
      <trkpt lat="47.78827" lon="-3.52995">
        <ele>6.57</ele>
        <time>2020-07-10T13:41:36Z</time>
      </trkpt>
      <trkpt lat="47.78825" lon="-3.52992">
        <ele>5.9</ele>
        <time>2020-07-10T13:41:37Z</time>
      </trkpt>
      <trkpt lat="47.78821" lon="-3.5299">
        <ele>5.54</ele>
        <time>2020-07-10T13:41:38Z</time>
      </trkpt>
      <trkpt lat="47.78818" lon="-3.52988">
        <ele>5.29</ele>
        <time>2020-07-10T13:41:39Z</time>
      </trkpt>
      <trkpt lat="47.78814" lon="-3.52987">
        <ele>5.16</ele>
        <time>2020-07-10T13:41:40Z</time>
      </trkpt>
      <trkpt lat="47.78809" lon="-3.52986">
        <ele>5.21</ele>
        <time>2020-07-10T13:41:41Z</time>
      </trkpt>
      <trkpt lat="47.78805" lon="-3.52984">
        <ele>5.04</ele>
        <time>2020-07-10T13:41:42Z</time>
      </trkpt>
      <trkpt lat="47.788" lon="-3.52981">
        <ele>4.94</ele>
        <time>2020-07-10T13:41:43Z</time>
      </trkpt>
      <trkpt lat="47.78796" lon="-3.5298">
        <ele>4.92</ele>
        <time>2020-07-10T13:41:44Z</time>
      </trkpt>
      <trkpt lat="47.78793" lon="-3.52979">
        <ele>4.93</ele>
        <time>2020-07-10T13:41:45Z</time>
      </trkpt>
      <trkpt lat="47.7879" lon="-3.52978">
        <ele>4.94</ele>
        <time>2020-07-10T13:41:46Z</time>
      </trkpt>
      <trkpt lat="47.78788" lon="-3.52975">
        <ele>4.71</ele>
        <time>2020-07-10T13:41:47Z</time>
      </trkpt>
      <trkpt lat="47.78785" lon="-3.52973">
        <ele>4.46</ele>
        <time>2020-07-10T13:41:48Z</time>
      </trkpt>
      <trkpt lat="47.78782" lon="-3.52972">
        <ele>4.47</ele>
        <time>2020-07-10T13:41:49Z</time>
      </trkpt>
      <trkpt lat="47.7878" lon="-3.52971">
        <ele>4.59</ele>
        <time>2020-07-10T13:41:50Z</time>
      </trkpt>
      <trkpt lat="47.78777" lon="-3.5297">
        <ele>4.83</ele>
        <time>2020-07-10T13:41:51Z</time>
      </trkpt>
      <trkpt lat="47.78776" lon="-3.52969">
        <ele>5.29</ele>
        <time>2020-07-10T13:41:52Z</time>
      </trkpt>
      <trkpt lat="47.78774" lon="-3.52968">
        <ele>5.63</ele>
        <time>2020-07-10T13:41:53Z</time>
      </trkpt>
      <trkpt lat="47.78773" lon="-3.52966">
        <ele>6.05</ele>
        <time>2020-07-10T13:41:54Z</time>
      </trkpt>
      <trkpt lat="47.78771" lon="-3.52964">
        <ele>6.35</ele>
        <time>2020-07-10T13:41:55Z</time>
      </trkpt>
      <trkpt lat="47.7877" lon="-3.52962">
        <ele>6.55</ele>
        <time>2020-07-10T13:41:56Z</time>
      </trkpt>
      <trkpt lat="47.78769" lon="-3.52959">
        <ele>6.72</ele>
        <time>2020-07-10T13:41:57Z</time>
      </trkpt>
      <trkpt lat="47.78767" lon="-3.52958">
        <ele>7.09</ele>
        <time>2020-07-10T13:41:58Z</time>
      </trkpt>
      <trkpt lat="47.78765" lon="-3.52956">
        <ele>7.42</ele>
        <time>2020-07-10T13:41:59Z</time>
      </trkpt>
      <trkpt lat="47.78765" lon="-3.52954">
        <ele>7.42</ele>
        <time>2020-07-10T13:42:00Z</time>
      </trkpt>
      <trkpt lat="47.78764" lon="-3.52952">
        <ele>7.53</ele>
        <time>2020-07-10T13:42:01Z</time>
      </trkpt>
      <trkpt lat="47.78763" lon="-3.52951">
        <ele>7.7</ele>
        <time>2020-07-10T13:42:02Z</time>
      </trkpt>
      <trkpt lat="47.78762" lon="-3.5295">
        <ele>7.85</ele>
        <time>2020-07-10T13:42:03Z</time>
      </trkpt>
      <trkpt lat="47.78761" lon="-3.52947">
        <ele>7.81</ele>
        <time>2020-07-10T13:42:04Z</time>
      </trkpt>
      <trkpt lat="47.78761" lon="-3.52946">
        <ele>7.78</ele>
        <time>2020-07-10T13:42:05Z</time>
      </trkpt>
      <trkpt lat="47.7876" lon="-3.52945">
        <ele>7.79</ele>
        <time>2020-07-10T13:42:06Z</time>
      </trkpt>
      <trkpt lat="47.78758" lon="-3.52942">
        <ele>7.83</ele>
        <time>2020-07-10T13:42:07Z</time>
      </trkpt>
      <trkpt lat="47.78757" lon="-3.5294">
        <ele>7.85</ele>
        <time>2020-07-10T13:42:08Z</time>
      </trkpt>
      <trkpt lat="47.78755" lon="-3.52937">
        <ele>7.76</ele>
        <time>2020-07-10T13:42:09Z</time>
      </trkpt>
      <trkpt lat="47.78753" lon="-3.52933">
        <ele>7.51</ele>
        <time>2020-07-10T13:42:10Z</time>
      </trkpt>
      <trkpt lat="47.7875" lon="-3.52929">
        <ele>7.21</ele>
        <time>2020-07-10T13:42:11Z</time>
      </trkpt>
      <trkpt lat="47.78748" lon="-3.52926">
        <ele>6.93</ele>
        <time>2020-07-10T13:42:12Z</time>
      </trkpt>
      <trkpt lat="47.78746" lon="-3.52923">
        <ele>6.77</ele>
        <time>2020-07-10T13:42:13Z</time>
      </trkpt>
      <trkpt lat="47.78744" lon="-3.5292">
        <ele>6.65</ele>
        <time>2020-07-10T13:42:14Z</time>
      </trkpt>
      <trkpt lat="47.78743" lon="-3.52917">
        <ele>6.55</ele>
        <time>2020-07-10T13:42:15Z</time>
      </trkpt>
      <trkpt lat="47.78741" lon="-3.52914">
        <ele>6.55</ele>
        <time>2020-07-10T13:42:16Z</time>
      </trkpt>
      <trkpt lat="47.78739" lon="-3.52911">
        <ele>6.58</ele>
        <time>2020-07-10T13:42:17Z</time>
      </trkpt>
      <trkpt lat="47.78738" lon="-3.52908">
        <ele>6.47</ele>
        <time>2020-07-10T13:42:18Z</time>
      </trkpt>
      <trkpt lat="47.78737" lon="-3.52904">
        <ele>6.28</ele>
        <time>2020-07-10T13:42:19Z</time>
      </trkpt>
      <trkpt lat="47.78735" lon="-3.529">
        <ele>6.18</ele>
        <time>2020-07-10T13:42:20Z</time>
      </trkpt>
      <trkpt lat="47.78734" lon="-3.52897">
        <ele>6.03</ele>
        <time>2020-07-10T13:42:21Z</time>
      </trkpt>
      <trkpt lat="47.78732" lon="-3.52893">
        <ele>5.92</ele>
        <time>2020-07-10T13:42:22Z</time>
      </trkpt>
      <trkpt lat="47.7873" lon="-3.5289">
        <ele>6.01</ele>
        <time>2020-07-10T13:42:23Z</time>
      </trkpt>
      <trkpt lat="47.78727" lon="-3.52887">
        <ele>6.2</ele>
        <time>2020-07-10T13:42:24Z</time>
      </trkpt>
      <trkpt lat="47.78725" lon="-3.52884">
        <ele>6.5</ele>
        <time>2020-07-10T13:42:25Z</time>
      </trkpt>
      <trkpt lat="47.78722" lon="-3.52881">
        <ele>6.79</ele>
        <time>2020-07-10T13:42:26Z</time>
      </trkpt>
      <trkpt lat="47.7872" lon="-3.52879">
        <ele>7.28</ele>
        <time>2020-07-10T13:42:27Z</time>
      </trkpt>
      <trkpt lat="47.78717" lon="-3.52877">
        <ele>7.81</ele>
        <time>2020-07-10T13:42:28Z</time>
      </trkpt>
      <trkpt lat="47.78714" lon="-3.52875">
        <ele>8.43</ele>
        <time>2020-07-10T13:42:29Z</time>
      </trkpt>
      <trkpt lat="47.78712" lon="-3.52874">
        <ele>8.95</ele>
        <time>2020-07-10T13:42:30Z</time>
      </trkpt>
      <trkpt lat="47.78711" lon="-3.52873">
        <ele>9.43</ele>
        <time>2020-07-10T13:42:31Z</time>
      </trkpt>
      <trkpt lat="47.78708" lon="-3.52872">
        <ele>9.94</ele>
        <time>2020-07-10T13:42:32Z</time>
      </trkpt>
      <trkpt lat="47.78706" lon="-3.5287">
        <ele>10.45</ele>
        <time>2020-07-10T13:42:33Z</time>
      </trkpt>
      <trkpt lat="47.78705" lon="-3.52868">
        <ele>10.7</ele>
        <time>2020-07-10T13:42:34Z</time>
      </trkpt>
      <trkpt lat="47.78703" lon="-3.52866">
        <ele>10.85</ele>
        <time>2020-07-10T13:42:35Z</time>
      </trkpt>
      <trkpt lat="47.78702" lon="-3.52863">
        <ele>10.9</ele>
        <time>2020-07-10T13:42:36Z</time>
      </trkpt>
      <trkpt lat="47.78701" lon="-3.52861">
        <ele>10.82</ele>
        <time>2020-07-10T13:42:37Z</time>
      </trkpt>
      <trkpt lat="47.787" lon="-3.52858">
        <ele>10.7</ele>
        <time>2020-07-10T13:42:38Z</time>
      </trkpt>
      <trkpt lat="47.78699" lon="-3.52856">
        <ele>10.61</ele>
        <time>2020-07-10T13:42:39Z</time>
      </trkpt>
      <trkpt lat="47.78698" lon="-3.52856">
        <ele>10.59</ele>
        <time>2020-07-10T13:42:40Z</time>
      </trkpt>
      <trkpt lat="47.78698" lon="-3.52855">
        <ele>10.57</ele>
        <time>2020-07-10T13:42:41Z</time>
      </trkpt>
      <trkpt lat="47.78698" lon="-3.52855">
        <ele>10.54</ele>
        <time>2020-07-10T13:42:42Z</time>
      </trkpt>
      <trkpt lat="47.78698" lon="-3.52855">
        <ele>10.53</ele>
        <time>2020-07-10T13:42:43Z</time>
      </trkpt>
      <trkpt lat="47.78698" lon="-3.52855">
        <ele>10.53</ele>
        <time>2020-07-10T13:42:44Z</time>
      </trkpt>
      <trkpt lat="47.78698" lon="-3.52855">
        <ele>10.53</ele>
        <time>2020-07-10T13:42:45Z</time>
      </trkpt>
      <trkpt lat="47.78698" lon="-3.52855">
        <ele>10.53</ele>
        <time>2020-07-10T13:42:46Z</time>
      </trkpt>
      <trkpt lat="47.78698" lon="-3.52855">
        <ele>10.53</ele>
        <time>2020-07-10T13:42:47Z</time>
      </trkpt>
      <trkpt lat="47.78698" lon="-3.52855">
        <ele>10.53</ele>
        <time>2020-07-10T13:42:48Z</time>
      </trkpt>
      <trkpt lat="47.78698" lon="-3.52855">
        <ele>10.53</ele>
        <time>2020-07-10T13:42:49Z</time>
      </trkpt>
      <trkpt lat="47.78698" lon="-3.52855">
        <ele>10.53</ele>
        <time>2020-07-10T13:42:50Z</time>
      </trkpt>
      <trkpt lat="47.78698" lon="-3.52855">
        <ele>10.53</ele>
        <time>2020-07-10T13:42:51Z</time>
      </trkpt>
      <trkpt lat="47.78698" lon="-3.52855">
        <ele>10.53</ele>
        <time>2020-07-10T13:42:52Z</time>
      </trkpt>
      <trkpt lat="47.78698" lon="-3.52855">
        <ele>10.53</ele>
        <time>2020-07-10T13:42:53Z</time>
      </trkpt>
      <trkpt lat="47.78698" lon="-3.52855">
        <ele>10.53</ele>
        <time>2020-07-10T13:42:54Z</time>
      </trkpt>
      <trkpt lat="47.78698" lon="-3.52855">
        <ele>10.53</ele>
        <time>2020-07-10T13:42:55Z</time>
      </trkpt>
      <trkpt lat="47.78698" lon="-3.52855">
        <ele>10.53</ele>
        <time>2020-07-10T13:42:56Z</time>
      </trkpt>
      <trkpt lat="47.78698" lon="-3.52855">
        <ele>10.53</ele>
        <time>2020-07-10T13:42:57Z</time>
      </trkpt>
      <trkpt lat="47.78698" lon="-3.52855">
        <ele>10.53</ele>
        <time>2020-07-10T13:42:58Z</time>
      </trkpt>
      <trkpt lat="47.78698" lon="-3.52855">
        <ele>10.53</ele>
        <time>2020-07-10T13:42:59Z</time>
      </trkpt>
      <trkpt lat="47.78698" lon="-3.52855">
        <ele>10.53</ele>
        <time>2020-07-10T13:43:00Z</time>
      </trkpt>
      <trkpt lat="47.78698" lon="-3.52855">
        <ele>10.53</ele>
        <time>2020-07-10T13:43:01Z</time>
      </trkpt>
      <trkpt lat="47.78698" lon="-3.52855">
        <ele>10.53</ele>
        <time>2020-07-10T13:43:02Z</time>
      </trkpt>
      <trkpt lat="47.78698" lon="-3.52855">
        <ele>10.53</ele>
        <time>2020-07-10T13:43:03Z</time>
      </trkpt>
      <trkpt lat="47.78698" lon="-3.52855">
        <ele>10.53</ele>
        <time>2020-07-10T13:43:04Z</time>
      </trkpt>
      <trkpt lat="47.78698" lon="-3.52855">
        <ele>10.53</ele>
        <time>2020-07-10T13:43:05Z</time>
      </trkpt>
      <trkpt lat="47.78698" lon="-3.52855">
        <ele>10.53</ele>
        <time>2020-07-10T13:43:06Z</time>
      </trkpt>
      <trkpt lat="47.78698" lon="-3.52855">
        <ele>10.53</ele>
        <time>2020-07-10T13:43:07Z</time>
      </trkpt>
      <trkpt lat="47.78698" lon="-3.52855">
        <ele>10.53</ele>
        <time>2020-07-10T13:43:08Z</time>
      </trkpt>
      <trkpt lat="47.78698" lon="-3.52855">
        <ele>10.53</ele>
        <time>2020-07-10T13:43:09Z</time>
      </trkpt>
      <trkpt lat="47.78698" lon="-3.52855">
        <ele>10.53</ele>
        <time>2020-07-10T13:43:10Z</time>
      </trkpt>
      <trkpt lat="47.78698" lon="-3.52855">
        <ele>10.53</ele>
        <time>2020-07-10T13:43:11Z</time>
      </trkpt>
      <trkpt lat="47.78698" lon="-3.52855">
        <ele>10.53</ele>
        <time>2020-07-10T13:43:12Z</time>
      </trkpt>
      <trkpt lat="47.78698" lon="-3.52855">
        <ele>10.53</ele>
        <time>2020-07-10T13:43:13Z</time>
      </trkpt>
      <trkpt lat="47.78698" lon="-3.52855">
        <ele>10.53</ele>
        <time>2020-07-10T13:43:14Z</time>
      </trkpt>
      <trkpt lat="47.78698" lon="-3.52855">
        <ele>10.53</ele>
        <time>2020-07-10T13:43:15Z</time>
      </trkpt>
      <trkpt lat="47.78698" lon="-3.52855">
        <ele>10.53</ele>
        <time>2020-07-10T13:43:16Z</time>
      </trkpt>
      <trkpt lat="47.78698" lon="-3.52855">
        <ele>10.53</ele>
        <time>2020-07-10T13:43:17Z</time>
      </trkpt>
      <trkpt lat="47.78697" lon="-3.52863">
        <ele>11.86</ele>
        <time>2020-07-10T13:43:18Z</time>
      </trkpt>
      <trkpt lat="47.78698" lon="-3.52865">
        <ele>12.3</ele>
        <time>2020-07-10T13:43:19Z</time>
      </trkpt>
      <trkpt lat="47.78698" lon="-3.52867">
        <ele>12.79</ele>
        <time>2020-07-10T13:43:20Z</time>
      </trkpt>
      <trkpt lat="47.78698" lon="-3.52869">
        <ele>12.96</ele>
        <time>2020-07-10T13:43:21Z</time>
      </trkpt>
      <trkpt lat="47.78699" lon="-3.5287">
        <ele>13.1</ele>
        <time>2020-07-10T13:43:22Z</time>
      </trkpt>
      <trkpt lat="47.78699" lon="-3.52871">
        <ele>13.06</ele>
        <time>2020-07-10T13:43:23Z</time>
      </trkpt>
      <trkpt lat="47.787" lon="-3.52872">
        <ele>13.18</ele>
        <time>2020-07-10T13:43:24Z</time>
      </trkpt>
      <trkpt lat="47.787" lon="-3.52875">
        <ele>13.43</ele>
        <time>2020-07-10T13:43:25Z</time>
      </trkpt>
      <trkpt lat="47.787" lon="-3.52876">
        <ele>13.63</ele>
        <time>2020-07-10T13:43:26Z</time>
      </trkpt>
      <trkpt lat="47.787" lon="-3.52878">
        <ele>13.95</ele>
        <time>2020-07-10T13:43:27Z</time>
      </trkpt>
      <trkpt lat="47.787" lon="-3.52879">
        <ele>14.33</ele>
        <time>2020-07-10T13:43:28Z</time>
      </trkpt>
      <trkpt lat="47.78699" lon="-3.52881">
        <ele>14.83</ele>
        <time>2020-07-10T13:43:29Z</time>
      </trkpt>
      <trkpt lat="47.78699" lon="-3.52883">
        <ele>15.29</ele>
        <time>2020-07-10T13:43:30Z</time>
      </trkpt>
      <trkpt lat="47.78698" lon="-3.52885">
        <ele>15.65</ele>
        <time>2020-07-10T13:43:31Z</time>
      </trkpt>
      <trkpt lat="47.78699" lon="-3.52886">
        <ele>15.82</ele>
        <time>2020-07-10T13:43:32Z</time>
      </trkpt>
      <trkpt lat="47.78699" lon="-3.52886">
        <ele>15.91</ele>
        <time>2020-07-10T13:43:33Z</time>
      </trkpt>
      <trkpt lat="47.78699" lon="-3.52887">
        <ele>15.95</ele>
        <time>2020-07-10T13:43:34Z</time>
      </trkpt>
      <trkpt lat="47.78699" lon="-3.52887">
        <ele>15.97</ele>
        <time>2020-07-10T13:43:35Z</time>
      </trkpt>
      <trkpt lat="47.78699" lon="-3.52887">
        <ele>15.97</ele>
        <time>2020-07-10T13:43:36Z</time>
      </trkpt>
      <trkpt lat="47.78699" lon="-3.52887">
        <ele>15.97</ele>
        <time>2020-07-10T13:43:37Z</time>
      </trkpt>
      <trkpt lat="47.78699" lon="-3.52887">
        <ele>15.97</ele>
        <time>2020-07-10T13:43:38Z</time>
      </trkpt>
      <trkpt lat="47.78699" lon="-3.52887">
        <ele>15.97</ele>
        <time>2020-07-10T13:43:39Z</time>
      </trkpt>
      <trkpt lat="47.78699" lon="-3.52887">
        <ele>15.97</ele>
        <time>2020-07-10T13:43:40Z</time>
      </trkpt>
      <trkpt lat="47.78699" lon="-3.52887">
        <ele>15.97</ele>
        <time>2020-07-10T13:43:41Z</time>
      </trkpt>
      <trkpt lat="47.78699" lon="-3.52887">
        <ele>15.97</ele>
        <time>2020-07-10T13:43:42Z</time>
      </trkpt>
      <trkpt lat="47.78699" lon="-3.52887">
        <ele>15.97</ele>
        <time>2020-07-10T13:43:43Z</time>
      </trkpt>
      <trkpt lat="47.78699" lon="-3.52887">
        <ele>15.97</ele>
        <time>2020-07-10T13:43:44Z</time>
      </trkpt>
      <trkpt lat="47.78701" lon="-3.52886">
        <ele>15.35</ele>
        <time>2020-07-10T13:43:45Z</time>
      </trkpt>
      <trkpt lat="47.78701" lon="-3.52883">
        <ele>14.95</ele>
        <time>2020-07-10T13:43:46Z</time>
      </trkpt>
      <trkpt lat="47.78701" lon="-3.52878">
        <ele>14.19</ele>
        <time>2020-07-10T13:43:47Z</time>
      </trkpt>
      <trkpt lat="47.78701" lon="-3.52873">
        <ele>13.34</ele>
        <time>2020-07-10T13:43:48Z</time>
      </trkpt>
      <trkpt lat="47.78701" lon="-3.52869">
        <ele>12.56</ele>
        <time>2020-07-10T13:43:49Z</time>
      </trkpt>
      <trkpt lat="47.78701" lon="-3.52865">
        <ele>11.91</ele>
        <time>2020-07-10T13:43:50Z</time>
      </trkpt>
      <trkpt lat="47.787" lon="-3.52861">
        <ele>11.32</ele>
        <time>2020-07-10T13:43:51Z</time>
      </trkpt>
      <trkpt lat="47.78699" lon="-3.52857">
        <ele>10.84</ele>
        <time>2020-07-10T13:43:52Z</time>
      </trkpt>
      <trkpt lat="47.78697" lon="-3.52852">
        <ele>10.34</ele>
        <time>2020-07-10T13:43:53Z</time>
      </trkpt>
      <trkpt lat="47.78695" lon="-3.52848">
        <ele>9.85</ele>
        <time>2020-07-10T13:43:54Z</time>
      </trkpt>
      <trkpt lat="47.78692" lon="-3.52844">
        <ele>9.11</ele>
        <time>2020-07-10T13:43:55Z</time>
      </trkpt>
      <trkpt lat="47.7869" lon="-3.52841">
        <ele>8.48</ele>
        <time>2020-07-10T13:43:56Z</time>
      </trkpt>
      <trkpt lat="47.78689" lon="-3.52841">
        <ele>8.25</ele>
        <time>2020-07-10T13:43:57Z</time>
      </trkpt>
      <trkpt lat="47.78689" lon="-3.52841">
        <ele>8.18</ele>
        <time>2020-07-10T13:43:58Z</time>
      </trkpt>
      <trkpt lat="47.78688" lon="-3.52841">
        <ele>8.26</ele>
        <time>2020-07-10T13:43:59Z</time>
      </trkpt>
      <trkpt lat="47.78688" lon="-3.52841">
        <ele>8.28</ele>
        <time>2020-07-10T13:44:00Z</time>
      </trkpt>
      <trkpt lat="47.78688" lon="-3.52841">
        <ele>8.29</ele>
        <time>2020-07-10T13:44:01Z</time>
      </trkpt>
      <trkpt lat="47.78688" lon="-3.52841">
        <ele>8.29</ele>
        <time>2020-07-10T13:44:02Z</time>
      </trkpt>
      <trkpt lat="47.78688" lon="-3.52841">
        <ele>8.29</ele>
        <time>2020-07-10T13:44:03Z</time>
      </trkpt>
      <trkpt lat="47.78688" lon="-3.52841">
        <ele>8.29</ele>
        <time>2020-07-10T13:44:04Z</time>
      </trkpt>
      <trkpt lat="47.78688" lon="-3.52841">
        <ele>8.29</ele>
        <time>2020-07-10T13:44:05Z</time>
      </trkpt>
      <trkpt lat="47.78688" lon="-3.52841">
        <ele>8.29</ele>
        <time>2020-07-10T13:44:06Z</time>
      </trkpt>
      <trkpt lat="47.78688" lon="-3.52841">
        <ele>8.29</ele>
        <time>2020-07-10T13:44:07Z</time>
      </trkpt>
      <trkpt lat="47.78688" lon="-3.52841">
        <ele>8.29</ele>
        <time>2020-07-10T13:44:08Z</time>
      </trkpt>
      <trkpt lat="47.78688" lon="-3.52841">
        <ele>8.29</ele>
        <time>2020-07-10T13:44:09Z</time>
      </trkpt>
      <trkpt lat="47.78688" lon="-3.52841">
        <ele>8.29</ele>
        <time>2020-07-10T13:44:10Z</time>
      </trkpt>
      <trkpt lat="47.78688" lon="-3.52841">
        <ele>8.29</ele>
        <time>2020-07-10T13:44:11Z</time>
      </trkpt>
      <trkpt lat="47.78688" lon="-3.52841">
        <ele>8.29</ele>
        <time>2020-07-10T13:44:12Z</time>
      </trkpt>
      <trkpt lat="47.78688" lon="-3.52841">
        <ele>8.29</ele>
        <time>2020-07-10T13:44:13Z</time>
      </trkpt>
      <trkpt lat="47.78688" lon="-3.52841">
        <ele>8.29</ele>
        <time>2020-07-10T13:44:14Z</time>
      </trkpt>
      <trkpt lat="47.78688" lon="-3.52841">
        <ele>8.29</ele>
        <time>2020-07-10T13:44:15Z</time>
      </trkpt>
      <trkpt lat="47.78688" lon="-3.52841">
        <ele>8.29</ele>
        <time>2020-07-10T13:44:16Z</time>
      </trkpt>
      <trkpt lat="47.78688" lon="-3.52841">
        <ele>8.29</ele>
        <time>2020-07-10T13:44:17Z</time>
      </trkpt>
      <trkpt lat="47.78688" lon="-3.52841">
        <ele>8.29</ele>
        <time>2020-07-10T13:44:18Z</time>
      </trkpt>
      <trkpt lat="47.78688" lon="-3.52841">
        <ele>8.29</ele>
        <time>2020-07-10T13:44:19Z</time>
      </trkpt>
      <trkpt lat="47.78688" lon="-3.52841">
        <ele>8.29</ele>
        <time>2020-07-10T13:44:20Z</time>
      </trkpt>
      <trkpt lat="47.78688" lon="-3.52841">
        <ele>8.29</ele>
        <time>2020-07-10T13:44:21Z</time>
      </trkpt>
      <trkpt lat="47.78688" lon="-3.52841">
        <ele>8.29</ele>
        <time>2020-07-10T13:44:22Z</time>
      </trkpt>
      <trkpt lat="47.78688" lon="-3.52841">
        <ele>8.29</ele>
        <time>2020-07-10T13:44:23Z</time>
      </trkpt>
      <trkpt lat="47.78688" lon="-3.52841">
        <ele>8.29</ele>
        <time>2020-07-10T13:44:24Z</time>
      </trkpt>
      <trkpt lat="47.78688" lon="-3.52841">
        <ele>8.29</ele>
        <time>2020-07-10T13:44:25Z</time>
      </trkpt>
      <trkpt lat="47.78688" lon="-3.52841">
        <ele>8.29</ele>
        <time>2020-07-10T13:44:26Z</time>
      </trkpt>
      <trkpt lat="47.78681" lon="-3.52841">
        <ele>8.46</ele>
        <time>2020-07-10T13:44:27Z</time>
      </trkpt>
      <trkpt lat="47.78678" lon="-3.5284">
        <ele>8.51</ele>
        <time>2020-07-10T13:44:28Z</time>
      </trkpt>
      <trkpt lat="47.78675" lon="-3.5284">
        <ele>8.55</ele>
        <time>2020-07-10T13:44:29Z</time>
      </trkpt>
      <trkpt lat="47.7867" lon="-3.5284">
        <ele>8.73</ele>
        <time>2020-07-10T13:44:30Z</time>
      </trkpt>
      <trkpt lat="47.78665" lon="-3.52841">
        <ele>8.94</ele>
        <time>2020-07-10T13:44:31Z</time>
      </trkpt>
      <trkpt lat="47.78661" lon="-3.52841">
        <ele>8.7</ele>
        <time>2020-07-10T13:44:32Z</time>
      </trkpt>
      <trkpt lat="47.78655" lon="-3.52841">
        <ele>8.2</ele>
        <time>2020-07-10T13:44:33Z</time>
      </trkpt>
      <trkpt lat="47.78649" lon="-3.52841">
        <ele>7.66</ele>
        <time>2020-07-10T13:44:34Z</time>
      </trkpt>
      <trkpt lat="47.78643" lon="-3.52842">
        <ele>7.12</ele>
        <time>2020-07-10T13:44:35Z</time>
      </trkpt>
      <trkpt lat="47.78637" lon="-3.52843">
        <ele>6.63</ele>
        <time>2020-07-10T13:44:36Z</time>
      </trkpt>
      <trkpt lat="47.7863" lon="-3.52844">
        <ele>6.06</ele>
        <time>2020-07-10T13:44:37Z</time>
      </trkpt>
      <trkpt lat="47.78624" lon="-3.52846">
        <ele>5.47</ele>
        <time>2020-07-10T13:44:38Z</time>
      </trkpt>
      <trkpt lat="47.78618" lon="-3.52847">
        <ele>4.87</ele>
        <time>2020-07-10T13:44:39Z</time>
      </trkpt>
      <trkpt lat="47.78613" lon="-3.52849">
        <ele>4.34</ele>
        <time>2020-07-10T13:44:40Z</time>
      </trkpt>
      <trkpt lat="47.78609" lon="-3.52851">
        <ele>4.08</ele>
        <time>2020-07-10T13:44:41Z</time>
      </trkpt>
      <trkpt lat="47.78606" lon="-3.52852">
        <ele>3.98</ele>
        <time>2020-07-10T13:44:42Z</time>
      </trkpt>
      <trkpt lat="47.78603" lon="-3.52853">
        <ele>3.85</ele>
        <time>2020-07-10T13:44:43Z</time>
      </trkpt>
      <trkpt lat="47.786" lon="-3.52853">
        <ele>3.69</ele>
        <time>2020-07-10T13:44:44Z</time>
      </trkpt>
      <trkpt lat="47.78598" lon="-3.52854">
        <ele>3.54</ele>
        <time>2020-07-10T13:44:45Z</time>
      </trkpt>
      <trkpt lat="47.78596" lon="-3.52856">
        <ele>3.57</ele>
        <time>2020-07-10T13:44:46Z</time>
      </trkpt>
      <trkpt lat="47.78593" lon="-3.52857">
        <ele>3.58</ele>
        <time>2020-07-10T13:44:47Z</time>
      </trkpt>
      <trkpt lat="47.78592" lon="-3.52859">
        <ele>3.67</ele>
        <time>2020-07-10T13:44:48Z</time>
      </trkpt>
      <trkpt lat="47.7859" lon="-3.52863">
        <ele>3.92</ele>
        <time>2020-07-10T13:44:49Z</time>
      </trkpt>
      <trkpt lat="47.78588" lon="-3.52865">
        <ele>4.02</ele>
        <time>2020-07-10T13:44:50Z</time>
      </trkpt>
      <trkpt lat="47.78585" lon="-3.52868">
        <ele>4.09</ele>
        <time>2020-07-10T13:44:51Z</time>
      </trkpt>
      <trkpt lat="47.78582" lon="-3.52869">
        <ele>4.04</ele>
        <time>2020-07-10T13:44:52Z</time>
      </trkpt>
      <trkpt lat="47.78579" lon="-3.52871">
        <ele>3.92</ele>
        <time>2020-07-10T13:44:53Z</time>
      </trkpt>
      <trkpt lat="47.78576" lon="-3.52873">
        <ele>3.71</ele>
        <time>2020-07-10T13:44:54Z</time>
      </trkpt>
      <trkpt lat="47.78572" lon="-3.52876">
        <ele>3.5</ele>
        <time>2020-07-10T13:44:55Z</time>
      </trkpt>
      <trkpt lat="47.78569" lon="-3.52879">
        <ele>3.36</ele>
        <time>2020-07-10T13:44:56Z</time>
      </trkpt>
      <trkpt lat="47.78566" lon="-3.52882">
        <ele>3.31</ele>
        <time>2020-07-10T13:44:57Z</time>
      </trkpt>
      <trkpt lat="47.78564" lon="-3.52885">
        <ele>3.29</ele>
        <time>2020-07-10T13:44:58Z</time>
      </trkpt>
      <trkpt lat="47.78563" lon="-3.52889">
        <ele>3.28</ele>
        <time>2020-07-10T13:44:59Z</time>
      </trkpt>
      <trkpt lat="47.7856" lon="-3.52892">
        <ele>3.25</ele>
        <time>2020-07-10T13:45:00Z</time>
      </trkpt>
      <trkpt lat="47.78557" lon="-3.52896">
        <ele>3.38</ele>
        <time>2020-07-10T13:45:01Z</time>
      </trkpt>
      <trkpt lat="47.78554" lon="-3.52901">
        <ele>3.48</ele>
        <time>2020-07-10T13:45:02Z</time>
      </trkpt>
      <trkpt lat="47.78552" lon="-3.52904">
        <ele>3.49</ele>
        <time>2020-07-10T13:45:03Z</time>
      </trkpt>
      <trkpt lat="47.78551" lon="-3.52908">
        <ele>3.65</ele>
        <time>2020-07-10T13:45:04Z</time>
      </trkpt>
      <trkpt lat="47.7855" lon="-3.52911">
        <ele>3.9</ele>
        <time>2020-07-10T13:45:05Z</time>
      </trkpt>
      <trkpt lat="47.7855" lon="-3.52915">
        <ele>4.23</ele>
        <time>2020-07-10T13:45:06Z</time>
      </trkpt>
      <trkpt lat="47.7855" lon="-3.52918">
        <ele>4.5</ele>
        <time>2020-07-10T13:45:07Z</time>
      </trkpt>
      <trkpt lat="47.78549" lon="-3.52921">
        <ele>4.7</ele>
        <time>2020-07-10T13:45:08Z</time>
      </trkpt>
      <trkpt lat="47.78548" lon="-3.52925">
        <ele>4.77</ele>
        <time>2020-07-10T13:45:09Z</time>
      </trkpt>
      <trkpt lat="47.78547" lon="-3.52928">
        <ele>4.72</ele>
        <time>2020-07-10T13:45:10Z</time>
      </trkpt>
      <trkpt lat="47.78546" lon="-3.52931">
        <ele>4.7</ele>
        <time>2020-07-10T13:45:11Z</time>
      </trkpt>
      <trkpt lat="47.78544" lon="-3.52934">
        <ele>4.53</ele>
        <time>2020-07-10T13:45:12Z</time>
      </trkpt>
      <trkpt lat="47.78543" lon="-3.52937">
        <ele>4.35</ele>
        <time>2020-07-10T13:45:13Z</time>
      </trkpt>
      <trkpt lat="47.78541" lon="-3.5294">
        <ele>4.08</ele>
        <time>2020-07-10T13:45:14Z</time>
      </trkpt>
      <trkpt lat="47.78539" lon="-3.52943">
        <ele>3.7</ele>
        <time>2020-07-10T13:45:15Z</time>
      </trkpt>
      <trkpt lat="47.78536" lon="-3.52947">
        <ele>3.16</ele>
        <time>2020-07-10T13:45:16Z</time>
      </trkpt>
      <trkpt lat="47.78533" lon="-3.52951">
        <ele>2.72</ele>
        <time>2020-07-10T13:45:17Z</time>
      </trkpt>
      <trkpt lat="47.78529" lon="-3.52954">
        <ele>2.13</ele>
        <time>2020-07-10T13:45:18Z</time>
      </trkpt>
      <trkpt lat="47.78525" lon="-3.52958">
        <ele>1.88</ele>
        <time>2020-07-10T13:45:19Z</time>
      </trkpt>
      <trkpt lat="47.78521" lon="-3.52962">
        <ele>1.84</ele>
        <time>2020-07-10T13:45:20Z</time>
      </trkpt>
      <trkpt lat="47.78517" lon="-3.52966">
        <ele>1.85</ele>
        <time>2020-07-10T13:45:21Z</time>
      </trkpt>
      <trkpt lat="47.78514" lon="-3.5297">
        <ele>1.81</ele>
        <time>2020-07-10T13:45:22Z</time>
      </trkpt>
      <trkpt lat="47.78511" lon="-3.52974">
        <ele>1.84</ele>
        <time>2020-07-10T13:45:23Z</time>
      </trkpt>
      <trkpt lat="47.78508" lon="-3.52977">
        <ele>1.84</ele>
        <time>2020-07-10T13:45:24Z</time>
      </trkpt>
      <trkpt lat="47.78505" lon="-3.5298">
        <ele>1.71</ele>
        <time>2020-07-10T13:45:25Z</time>
      </trkpt>
      <trkpt lat="47.78502" lon="-3.52982">
        <ele>1.49</ele>
        <time>2020-07-10T13:45:26Z</time>
      </trkpt>
      <trkpt lat="47.78499" lon="-3.52987">
        <ele>1.48</ele>
        <time>2020-07-10T13:45:27Z</time>
      </trkpt>
      <trkpt lat="47.78496" lon="-3.52992">
        <ele>1.66</ele>
        <time>2020-07-10T13:45:28Z</time>
      </trkpt>
      <trkpt lat="47.78494" lon="-3.52997">
        <ele>1.84</ele>
        <time>2020-07-10T13:45:29Z</time>
      </trkpt>
      <trkpt lat="47.78492" lon="-3.53002">
        <ele>2.12</ele>
        <time>2020-07-10T13:45:30Z</time>
      </trkpt>
      <trkpt lat="47.7849" lon="-3.53007">
        <ele>2.39</ele>
        <time>2020-07-10T13:45:31Z</time>
      </trkpt>
      <trkpt lat="47.78486" lon="-3.53011">
        <ele>2.38</ele>
        <time>2020-07-10T13:45:32Z</time>
      </trkpt>
      <trkpt lat="47.78483" lon="-3.53016">
        <ele>2.38</ele>
        <time>2020-07-10T13:45:33Z</time>
      </trkpt>
      <trkpt lat="47.7848" lon="-3.5302">
        <ele>2.18</ele>
        <time>2020-07-10T13:45:34Z</time>
      </trkpt>
      <trkpt lat="47.78477" lon="-3.53025">
        <ele>2</ele>
        <time>2020-07-10T13:45:35Z</time>
      </trkpt>
      <trkpt lat="47.78474" lon="-3.53031">
        <ele>1.99</ele>
        <time>2020-07-10T13:45:36Z</time>
      </trkpt>
      <trkpt lat="47.78471" lon="-3.53037">
        <ele>2.11</ele>
        <time>2020-07-10T13:45:37Z</time>
      </trkpt>
      <trkpt lat="47.78469" lon="-3.53042">
        <ele>2.47</ele>
        <time>2020-07-10T13:45:38Z</time>
      </trkpt>
      <trkpt lat="47.78468" lon="-3.53046">
        <ele>2.79</ele>
        <time>2020-07-10T13:45:39Z</time>
      </trkpt>
      <trkpt lat="47.78466" lon="-3.5305">
        <ele>2.97</ele>
        <time>2020-07-10T13:45:40Z</time>
      </trkpt>
      <trkpt lat="47.78465" lon="-3.53053">
        <ele>3.12</ele>
        <time>2020-07-10T13:45:41Z</time>
      </trkpt>
      <trkpt lat="47.78464" lon="-3.53056">
        <ele>3.19</ele>
        <time>2020-07-10T13:45:42Z</time>
      </trkpt>
      <trkpt lat="47.78462" lon="-3.53058">
        <ele>3.21</ele>
        <time>2020-07-10T13:45:43Z</time>
      </trkpt>
      <trkpt lat="47.78462" lon="-3.5306">
        <ele>3.28</ele>
        <time>2020-07-10T13:45:44Z</time>
      </trkpt>
      <trkpt lat="47.7846" lon="-3.53062">
        <ele>3.12</ele>
        <time>2020-07-10T13:45:45Z</time>
      </trkpt>
      <trkpt lat="47.78458" lon="-3.53063">
        <ele>2.9</ele>
        <time>2020-07-10T13:45:46Z</time>
      </trkpt>
      <trkpt lat="47.78456" lon="-3.53066">
        <ele>2.84</ele>
        <time>2020-07-10T13:45:47Z</time>
      </trkpt>
      <trkpt lat="47.78455" lon="-3.53069">
        <ele>2.83</ele>
        <time>2020-07-10T13:45:48Z</time>
      </trkpt>
      <trkpt lat="47.78453" lon="-3.53072">
        <ele>2.78</ele>
        <time>2020-07-10T13:45:49Z</time>
      </trkpt>
      <trkpt lat="47.78452" lon="-3.53076">
        <ele>2.84</ele>
        <time>2020-07-10T13:45:50Z</time>
      </trkpt>
      <trkpt lat="47.7845" lon="-3.53079">
        <ele>2.84</ele>
        <time>2020-07-10T13:45:51Z</time>
      </trkpt>
      <trkpt lat="47.78448" lon="-3.53082">
        <ele>2.86</ele>
        <time>2020-07-10T13:45:52Z</time>
      </trkpt>
      <trkpt lat="47.78447" lon="-3.53085">
        <ele>2.8</ele>
        <time>2020-07-10T13:45:53Z</time>
      </trkpt>
      <trkpt lat="47.78445" lon="-3.53089">
        <ele>2.79</ele>
        <time>2020-07-10T13:45:54Z</time>
      </trkpt>
      <trkpt lat="47.78444" lon="-3.53092">
        <ele>2.84</ele>
        <time>2020-07-10T13:45:55Z</time>
      </trkpt>
      <trkpt lat="47.78442" lon="-3.53096">
        <ele>3.01</ele>
        <time>2020-07-10T13:45:56Z</time>
      </trkpt>
      <trkpt lat="47.78441" lon="-3.531">
        <ele>3.16</ele>
        <time>2020-07-10T13:45:57Z</time>
      </trkpt>
      <trkpt lat="47.78439" lon="-3.53103">
        <ele>3.31</ele>
        <time>2020-07-10T13:45:58Z</time>
      </trkpt>
      <trkpt lat="47.78438" lon="-3.53105">
        <ele>3.37</ele>
        <time>2020-07-10T13:45:59Z</time>
      </trkpt>
      <trkpt lat="47.78436" lon="-3.53109">
        <ele>3.36</ele>
        <time>2020-07-10T13:46:00Z</time>
      </trkpt>
      <trkpt lat="47.78434" lon="-3.53112">
        <ele>3.31</ele>
        <time>2020-07-10T13:46:01Z</time>
      </trkpt>
      <trkpt lat="47.78432" lon="-3.53114">
        <ele>3.35</ele>
        <time>2020-07-10T13:46:02Z</time>
      </trkpt>
      <trkpt lat="47.78429" lon="-3.53117">
        <ele>3.35</ele>
        <time>2020-07-10T13:46:03Z</time>
      </trkpt>
      <trkpt lat="47.78425" lon="-3.53121">
        <ele>3.24</ele>
        <time>2020-07-10T13:46:04Z</time>
      </trkpt>
      <trkpt lat="47.78422" lon="-3.53125">
        <ele>2.9</ele>
        <time>2020-07-10T13:46:05Z</time>
      </trkpt>
      <trkpt lat="47.78417" lon="-3.53129">
        <ele>2.33</ele>
        <time>2020-07-10T13:46:06Z</time>
      </trkpt>
      <trkpt lat="47.78412" lon="-3.53133">
        <ele>2.07</ele>
        <time>2020-07-10T13:46:07Z</time>
      </trkpt>
      <trkpt lat="47.78407" lon="-3.53138">
        <ele>1.92</ele>
        <time>2020-07-10T13:46:08Z</time>
      </trkpt>
      <trkpt lat="47.78402" lon="-3.53142">
        <ele>2.19</ele>
        <time>2020-07-10T13:46:09Z</time>
      </trkpt>
      <trkpt lat="47.78397" lon="-3.53147">
        <ele>2.48</ele>
        <time>2020-07-10T13:46:10Z</time>
      </trkpt>
      <trkpt lat="47.78393" lon="-3.53151">
        <ele>2.59</ele>
        <time>2020-07-10T13:46:11Z</time>
      </trkpt>
      <trkpt lat="47.78387" lon="-3.53154">
        <ele>2.59</ele>
        <time>2020-07-10T13:46:12Z</time>
      </trkpt>
      <trkpt lat="47.78383" lon="-3.53156">
        <ele>2.48</ele>
        <time>2020-07-10T13:46:13Z</time>
      </trkpt>
      <trkpt lat="47.78378" lon="-3.53159">
        <ele>2.4</ele>
        <time>2020-07-10T13:46:14Z</time>
      </trkpt>
      <trkpt lat="47.78374" lon="-3.53161">
        <ele>2.26</ele>
        <time>2020-07-10T13:46:15Z</time>
      </trkpt>
      <trkpt lat="47.7837" lon="-3.53165">
        <ele>2.17</ele>
        <time>2020-07-10T13:46:16Z</time>
      </trkpt>
      <trkpt lat="47.78367" lon="-3.5317">
        <ele>2.3</ele>
        <time>2020-07-10T13:46:17Z</time>
      </trkpt>
      <trkpt lat="47.78364" lon="-3.53175">
        <ele>2.45</ele>
        <time>2020-07-10T13:46:18Z</time>
      </trkpt>
      <trkpt lat="47.78363" lon="-3.53179">
        <ele>2.61</ele>
        <time>2020-07-10T13:46:19Z</time>
      </trkpt>
      <trkpt lat="47.7836" lon="-3.53183">
        <ele>2.68</ele>
        <time>2020-07-10T13:46:20Z</time>
      </trkpt>
      <trkpt lat="47.78359" lon="-3.53188">
        <ele>2.9</ele>
        <time>2020-07-10T13:46:21Z</time>
      </trkpt>
      <trkpt lat="47.78357" lon="-3.53193">
        <ele>3.16</ele>
        <time>2020-07-10T13:46:22Z</time>
      </trkpt>
      <trkpt lat="47.78356" lon="-3.53197">
        <ele>3.44</ele>
        <time>2020-07-10T13:46:23Z</time>
      </trkpt>
      <trkpt lat="47.78356" lon="-3.53202">
        <ele>3.77</ele>
        <time>2020-07-10T13:46:24Z</time>
      </trkpt>
      <trkpt lat="47.78356" lon="-3.53206">
        <ele>4.1</ele>
        <time>2020-07-10T13:46:25Z</time>
      </trkpt>
      <trkpt lat="47.78355" lon="-3.53209">
        <ele>4.36</ele>
        <time>2020-07-10T13:46:26Z</time>
      </trkpt>
      <trkpt lat="47.78355" lon="-3.53212">
        <ele>4.58</ele>
        <time>2020-07-10T13:46:27Z</time>
      </trkpt>
      <trkpt lat="47.78355" lon="-3.53214">
        <ele>4.82</ele>
        <time>2020-07-10T13:46:28Z</time>
      </trkpt>
      <trkpt lat="47.78355" lon="-3.53218">
        <ele>5.14</ele>
        <time>2020-07-10T13:46:29Z</time>
      </trkpt>
      <trkpt lat="47.78355" lon="-3.53221">
        <ele>5.42</ele>
        <time>2020-07-10T13:46:30Z</time>
      </trkpt>
      <trkpt lat="47.78355" lon="-3.53226">
        <ele>5.86</ele>
        <time>2020-07-10T13:46:31Z</time>
      </trkpt>
      <trkpt lat="47.78356" lon="-3.5323">
        <ele>6.29</ele>
        <time>2020-07-10T13:46:32Z</time>
      </trkpt>
      <trkpt lat="47.78355" lon="-3.53231">
        <ele>6.45</ele>
        <time>2020-07-10T13:46:33Z</time>
      </trkpt>
      <trkpt lat="47.78354" lon="-3.53233">
        <ele>6.46</ele>
        <time>2020-07-10T13:46:34Z</time>
      </trkpt>
      <trkpt lat="47.78353" lon="-3.53234">
        <ele>6.38</ele>
        <time>2020-07-10T13:46:35Z</time>
      </trkpt>
      <trkpt lat="47.78351" lon="-3.53234">
        <ele>6.24</ele>
        <time>2020-07-10T13:46:36Z</time>
      </trkpt>
      <trkpt lat="47.78351" lon="-3.53234">
        <ele>6.19</ele>
        <time>2020-07-10T13:46:37Z</time>
      </trkpt>
      <trkpt lat="47.78351" lon="-3.53234">
        <ele>6.17</ele>
        <time>2020-07-10T13:46:38Z</time>
      </trkpt>
      <trkpt lat="47.78351" lon="-3.53234">
        <ele>6.17</ele>
        <time>2020-07-10T13:46:39Z</time>
      </trkpt>
      <trkpt lat="47.78351" lon="-3.53234">
        <ele>6.17</ele>
        <time>2020-07-10T13:46:40Z</time>
      </trkpt>
      <trkpt lat="47.78351" lon="-3.53234">
        <ele>6.17</ele>
        <time>2020-07-10T13:46:41Z</time>
      </trkpt>
      <trkpt lat="47.78351" lon="-3.53234">
        <ele>6.17</ele>
        <time>2020-07-10T13:46:42Z</time>
      </trkpt>
      <trkpt lat="47.78351" lon="-3.53234">
        <ele>6.17</ele>
        <time>2020-07-10T13:46:43Z</time>
      </trkpt>
      <trkpt lat="47.78351" lon="-3.53234">
        <ele>6.17</ele>
        <time>2020-07-10T13:46:44Z</time>
      </trkpt>
      <trkpt lat="47.78351" lon="-3.53234">
        <ele>6.17</ele>
        <time>2020-07-10T13:46:45Z</time>
      </trkpt>
      <trkpt lat="47.78351" lon="-3.53234">
        <ele>6.17</ele>
        <time>2020-07-10T13:46:46Z</time>
      </trkpt>
      <trkpt lat="47.78351" lon="-3.53234">
        <ele>6.17</ele>
        <time>2020-07-10T13:46:47Z</time>
      </trkpt>
      <trkpt lat="47.78351" lon="-3.53234">
        <ele>6.17</ele>
        <time>2020-07-10T13:46:48Z</time>
      </trkpt>
      <trkpt lat="47.78351" lon="-3.53234">
        <ele>6.17</ele>
        <time>2020-07-10T13:46:49Z</time>
      </trkpt>
      <trkpt lat="47.78351" lon="-3.53234">
        <ele>6.17</ele>
        <time>2020-07-10T13:46:50Z</time>
      </trkpt>
      <trkpt lat="47.78351" lon="-3.53234">
        <ele>6.17</ele>
        <time>2020-07-10T13:46:51Z</time>
      </trkpt>
      <trkpt lat="47.78351" lon="-3.53234">
        <ele>6.17</ele>
        <time>2020-07-10T13:46:52Z</time>
      </trkpt>
      <trkpt lat="47.78351" lon="-3.53234">
        <ele>6.17</ele>
        <time>2020-07-10T13:46:53Z</time>
      </trkpt>
      <trkpt lat="47.78351" lon="-3.53234">
        <ele>6.17</ele>
        <time>2020-07-10T13:46:54Z</time>
      </trkpt>
      <trkpt lat="47.78351" lon="-3.53234">
        <ele>6.17</ele>
        <time>2020-07-10T13:46:55Z</time>
      </trkpt>
      <trkpt lat="47.78351" lon="-3.53234">
        <ele>6.17</ele>
        <time>2020-07-10T13:46:56Z</time>
      </trkpt>
      <trkpt lat="47.78351" lon="-3.53234">
        <ele>6.17</ele>
        <time>2020-07-10T13:46:57Z</time>
      </trkpt>
      <trkpt lat="47.78351" lon="-3.53234">
        <ele>6.17</ele>
        <time>2020-07-10T13:46:58Z</time>
      </trkpt>
      <trkpt lat="47.78351" lon="-3.53234">
        <ele>6.17</ele>
        <time>2020-07-10T13:46:59Z</time>
      </trkpt>
      <trkpt lat="47.78351" lon="-3.53234">
        <ele>6.17</ele>
        <time>2020-07-10T13:47:00Z</time>
      </trkpt>
      <trkpt lat="47.78351" lon="-3.53234">
        <ele>6.17</ele>
        <time>2020-07-10T13:47:01Z</time>
      </trkpt>
      <trkpt lat="47.78351" lon="-3.53234">
        <ele>6.17</ele>
        <time>2020-07-10T13:47:02Z</time>
      </trkpt>
      <trkpt lat="47.78351" lon="-3.53234">
        <ele>6.17</ele>
        <time>2020-07-10T13:47:03Z</time>
      </trkpt>
      <trkpt lat="47.78351" lon="-3.53234">
        <ele>6.17</ele>
        <time>2020-07-10T13:47:04Z</time>
      </trkpt>
      <trkpt lat="47.78351" lon="-3.53234">
        <ele>6.17</ele>
        <time>2020-07-10T13:47:05Z</time>
      </trkpt>
      <trkpt lat="47.78351" lon="-3.53234">
        <ele>6.17</ele>
        <time>2020-07-10T13:47:06Z</time>
      </trkpt>
      <trkpt lat="47.78351" lon="-3.53234">
        <ele>6.17</ele>
        <time>2020-07-10T13:47:07Z</time>
      </trkpt>
      <trkpt lat="47.78351" lon="-3.53234">
        <ele>6.17</ele>
        <time>2020-07-10T13:47:08Z</time>
      </trkpt>
      <trkpt lat="47.78351" lon="-3.53234">
        <ele>6.17</ele>
        <time>2020-07-10T13:47:09Z</time>
      </trkpt>
      <trkpt lat="47.78351" lon="-3.53234">
        <ele>6.17</ele>
        <time>2020-07-10T13:47:10Z</time>
      </trkpt>
      <trkpt lat="47.78351" lon="-3.53234">
        <ele>6.17</ele>
        <time>2020-07-10T13:47:11Z</time>
      </trkpt>
      <trkpt lat="47.78351" lon="-3.53234">
        <ele>6.17</ele>
        <time>2020-07-10T13:47:12Z</time>
      </trkpt>
      <trkpt lat="47.78351" lon="-3.53234">
        <ele>6.17</ele>
        <time>2020-07-10T13:47:13Z</time>
      </trkpt>
      <trkpt lat="47.78351" lon="-3.53234">
        <ele>6.17</ele>
        <time>2020-07-10T13:47:14Z</time>
      </trkpt>
      <trkpt lat="47.78351" lon="-3.53234">
        <ele>6.17</ele>
        <time>2020-07-10T13:47:15Z</time>
      </trkpt>
      <trkpt lat="47.78351" lon="-3.53234">
        <ele>6.17</ele>
        <time>2020-07-10T13:47:16Z</time>
      </trkpt>
      <trkpt lat="47.78351" lon="-3.53234">
        <ele>6.17</ele>
        <time>2020-07-10T13:47:17Z</time>
      </trkpt>
      <trkpt lat="47.78351" lon="-3.53234">
        <ele>6.17</ele>
        <time>2020-07-10T13:47:18Z</time>
      </trkpt>
      <trkpt lat="47.78351" lon="-3.53234">
        <ele>6.17</ele>
        <time>2020-07-10T13:47:19Z</time>
      </trkpt>
      <trkpt lat="47.78351" lon="-3.53234">
        <ele>6.17</ele>
        <time>2020-07-10T13:47:20Z</time>
      </trkpt>
      <trkpt lat="47.78351" lon="-3.53234">
        <ele>6.17</ele>
        <time>2020-07-10T13:47:21Z</time>
      </trkpt>
      <trkpt lat="47.78351" lon="-3.53234">
        <ele>6.17</ele>
        <time>2020-07-10T13:47:22Z</time>
      </trkpt>
      <trkpt lat="47.78351" lon="-3.53234">
        <ele>6.17</ele>
        <time>2020-07-10T13:47:23Z</time>
      </trkpt>
      <trkpt lat="47.78351" lon="-3.53234">
        <ele>6.17</ele>
        <time>2020-07-10T13:47:24Z</time>
      </trkpt>
      <trkpt lat="47.78345" lon="-3.53242">
        <ele>6.15</ele>
        <time>2020-07-10T13:47:25Z</time>
      </trkpt>
      <trkpt lat="47.78345" lon="-3.53244">
        <ele>6.38</ele>
        <time>2020-07-10T13:47:26Z</time>
      </trkpt>
      <trkpt lat="47.78344" lon="-3.53247">
        <ele>6.65</ele>
        <time>2020-07-10T13:47:27Z</time>
      </trkpt>
      <trkpt lat="47.78344" lon="-3.53249">
        <ele>6.95</ele>
        <time>2020-07-10T13:47:28Z</time>
      </trkpt>
      <trkpt lat="47.78344" lon="-3.53251">
        <ele>7.26</ele>
        <time>2020-07-10T13:47:29Z</time>
      </trkpt>
      <trkpt lat="47.78345" lon="-3.53253">
        <ele>7.64</ele>
        <time>2020-07-10T13:47:30Z</time>
      </trkpt>
      <trkpt lat="47.78346" lon="-3.53255">
        <ele>7.98</ele>
        <time>2020-07-10T13:47:31Z</time>
      </trkpt>
      <trkpt lat="47.78346" lon="-3.53257">
        <ele>8.26</ele>
        <time>2020-07-10T13:47:32Z</time>
      </trkpt>
      <trkpt lat="47.78346" lon="-3.53258">
        <ele>8.51</ele>
        <time>2020-07-10T13:47:33Z</time>
      </trkpt>
      <trkpt lat="47.78347" lon="-3.5326">
        <ele>8.85</ele>
        <time>2020-07-10T13:47:34Z</time>
      </trkpt>
      <trkpt lat="47.78347" lon="-3.53263">
        <ele>9.25</ele>
        <time>2020-07-10T13:47:35Z</time>
      </trkpt>
      <trkpt lat="47.78347" lon="-3.53266">
        <ele>9.68</ele>
        <time>2020-07-10T13:47:36Z</time>
      </trkpt>
      <trkpt lat="47.78347" lon="-3.53269">
        <ele>10.1</ele>
        <time>2020-07-10T13:47:37Z</time>
      </trkpt>
      <trkpt lat="47.78347" lon="-3.53272">
        <ele>10.5</ele>
        <time>2020-07-10T13:47:38Z</time>
      </trkpt>
      <trkpt lat="47.78348" lon="-3.53274">
        <ele>10.8</ele>
        <time>2020-07-10T13:47:39Z</time>
      </trkpt>
      <trkpt lat="47.78349" lon="-3.53277">
        <ele>11.06</ele>
        <time>2020-07-10T13:47:40Z</time>
      </trkpt>
      <trkpt lat="47.7835" lon="-3.53279">
        <ele>11.31</ele>
        <time>2020-07-10T13:47:41Z</time>
      </trkpt>
      <trkpt lat="47.78351" lon="-3.53281">
        <ele>11.56</ele>
        <time>2020-07-10T13:47:42Z</time>
      </trkpt>
      <trkpt lat="47.78351" lon="-3.53283">
        <ele>11.84</ele>
        <time>2020-07-10T13:47:43Z</time>
      </trkpt>
      <trkpt lat="47.78352" lon="-3.53285">
        <ele>12.07</ele>
        <time>2020-07-10T13:47:44Z</time>
      </trkpt>
      <trkpt lat="47.78353" lon="-3.53288">
        <ele>12.38</ele>
        <time>2020-07-10T13:47:45Z</time>
      </trkpt>
      <trkpt lat="47.78354" lon="-3.53292">
        <ele>12.7</ele>
        <time>2020-07-10T13:47:46Z</time>
      </trkpt>
      <trkpt lat="47.78356" lon="-3.53296">
        <ele>12.9</ele>
        <time>2020-07-10T13:47:47Z</time>
      </trkpt>
      <trkpt lat="47.78358" lon="-3.53298">
        <ele>12.98</ele>
        <time>2020-07-10T13:47:48Z</time>
      </trkpt>
      <trkpt lat="47.78359" lon="-3.533">
        <ele>12.96</ele>
        <time>2020-07-10T13:47:49Z</time>
      </trkpt>
      <trkpt lat="47.7836" lon="-3.53302">
        <ele>12.94</ele>
        <time>2020-07-10T13:47:50Z</time>
      </trkpt>
      <trkpt lat="47.78361" lon="-3.53304">
        <ele>12.92</ele>
        <time>2020-07-10T13:47:51Z</time>
      </trkpt>
      <trkpt lat="47.78362" lon="-3.53306">
        <ele>13.25</ele>
        <time>2020-07-10T13:47:52Z</time>
      </trkpt>
      <trkpt lat="47.78363" lon="-3.53309">
        <ele>14.12</ele>
        <time>2020-07-10T13:47:53Z</time>
      </trkpt>
      <trkpt lat="47.78364" lon="-3.53312">
        <ele>15</ele>
        <time>2020-07-10T13:47:54Z</time>
      </trkpt>
      <trkpt lat="47.78364" lon="-3.53314">
        <ele>15.84</ele>
        <time>2020-07-10T13:47:55Z</time>
      </trkpt>
      <trkpt lat="47.78365" lon="-3.53317">
        <ele>16.74</ele>
        <time>2020-07-10T13:47:56Z</time>
      </trkpt>
      <trkpt lat="47.78365" lon="-3.53319">
        <ele>17.46</ele>
        <time>2020-07-10T13:47:57Z</time>
      </trkpt>
      <trkpt lat="47.78366" lon="-3.53322">
        <ele>18.24</ele>
        <time>2020-07-10T13:47:58Z</time>
      </trkpt>
      <trkpt lat="47.78367" lon="-3.53325">
        <ele>18.99</ele>
        <time>2020-07-10T13:47:59Z</time>
      </trkpt>
      <trkpt lat="47.78369" lon="-3.53328">
        <ele>19.92</ele>
        <time>2020-07-10T13:48:00Z</time>
      </trkpt>
      <trkpt lat="47.7837" lon="-3.53331">
        <ele>20.65</ele>
        <time>2020-07-10T13:48:01Z</time>
      </trkpt>
      <trkpt lat="47.78372" lon="-3.53334">
        <ele>21.18</ele>
        <time>2020-07-10T13:48:02Z</time>
      </trkpt>
      <trkpt lat="47.78373" lon="-3.53337">
        <ele>21.42</ele>
        <time>2020-07-10T13:48:03Z</time>
      </trkpt>
      <trkpt lat="47.78373" lon="-3.5334">
        <ele>21.56</ele>
        <time>2020-07-10T13:48:04Z</time>
      </trkpt>
      <trkpt lat="47.78374" lon="-3.53343">
        <ele>21.67</ele>
        <time>2020-07-10T13:48:05Z</time>
      </trkpt>
      <trkpt lat="47.78374" lon="-3.53346">
        <ele>21.74</ele>
        <time>2020-07-10T13:48:06Z</time>
      </trkpt>
      <trkpt lat="47.78375" lon="-3.53349">
        <ele>21.78</ele>
        <time>2020-07-10T13:48:07Z</time>
      </trkpt>
      <trkpt lat="47.78376" lon="-3.53351">
        <ele>21.76</ele>
        <time>2020-07-10T13:48:08Z</time>
      </trkpt>
      <trkpt lat="47.78377" lon="-3.53354">
        <ele>21.73</ele>
        <time>2020-07-10T13:48:09Z</time>
      </trkpt>
      <trkpt lat="47.78378" lon="-3.53358">
        <ele>21.65</ele>
        <time>2020-07-10T13:48:10Z</time>
      </trkpt>
      <trkpt lat="47.78379" lon="-3.53361">
        <ele>21.51</ele>
        <time>2020-07-10T13:48:11Z</time>
      </trkpt>
      <trkpt lat="47.7838" lon="-3.53365">
        <ele>21.38</ele>
        <time>2020-07-10T13:48:12Z</time>
      </trkpt>
      <trkpt lat="47.78381" lon="-3.53368">
        <ele>21.26</ele>
        <time>2020-07-10T13:48:13Z</time>
      </trkpt>
      <trkpt lat="47.78381" lon="-3.5337">
        <ele>21.2</ele>
        <time>2020-07-10T13:48:14Z</time>
      </trkpt>
      <trkpt lat="47.78382" lon="-3.53373">
        <ele>21.09</ele>
        <time>2020-07-10T13:48:15Z</time>
      </trkpt>
      <trkpt lat="47.78383" lon="-3.53377">
        <ele>20.97</ele>
        <time>2020-07-10T13:48:16Z</time>
      </trkpt>
      <trkpt lat="47.78384" lon="-3.53379">
        <ele>20.88</ele>
        <time>2020-07-10T13:48:17Z</time>
      </trkpt>
      <trkpt lat="47.78385" lon="-3.53382">
        <ele>20.79</ele>
        <time>2020-07-10T13:48:18Z</time>
      </trkpt>
      <trkpt lat="47.78385" lon="-3.53385">
        <ele>20.69</ele>
        <time>2020-07-10T13:48:19Z</time>
      </trkpt>
      <trkpt lat="47.78386" lon="-3.53388">
        <ele>20.61</ele>
        <time>2020-07-10T13:48:20Z</time>
      </trkpt>
      <trkpt lat="47.78386" lon="-3.53391">
        <ele>20.63</ele>
        <time>2020-07-10T13:48:21Z</time>
      </trkpt>
      <trkpt lat="47.78387" lon="-3.53394">
        <ele>20.7</ele>
        <time>2020-07-10T13:48:22Z</time>
      </trkpt>
      <trkpt lat="47.78387" lon="-3.53397">
        <ele>20.81</ele>
        <time>2020-07-10T13:48:23Z</time>
      </trkpt>
      <trkpt lat="47.78388" lon="-3.534">
        <ele>20.91</ele>
        <time>2020-07-10T13:48:24Z</time>
      </trkpt>
      <trkpt lat="47.78389" lon="-3.53403">
        <ele>20.98</ele>
        <time>2020-07-10T13:48:25Z</time>
      </trkpt>
      <trkpt lat="47.7839" lon="-3.53406">
        <ele>21.15</ele>
        <time>2020-07-10T13:48:26Z</time>
      </trkpt>
      <trkpt lat="47.78391" lon="-3.53409">
        <ele>21.36</ele>
        <time>2020-07-10T13:48:27Z</time>
      </trkpt>
      <trkpt lat="47.78391" lon="-3.53411">
        <ele>21.56</ele>
        <time>2020-07-10T13:48:28Z</time>
      </trkpt>
      <trkpt lat="47.78392" lon="-3.53414">
        <ele>21.76</ele>
        <time>2020-07-10T13:48:29Z</time>
      </trkpt>
      <trkpt lat="47.78392" lon="-3.53417">
        <ele>21.93</ele>
        <time>2020-07-10T13:48:30Z</time>
      </trkpt>
      <trkpt lat="47.78393" lon="-3.53419">
        <ele>22.07</ele>
        <time>2020-07-10T13:48:31Z</time>
      </trkpt>
      <trkpt lat="47.78394" lon="-3.53423">
        <ele>22.22</ele>
        <time>2020-07-10T13:48:32Z</time>
      </trkpt>
      <trkpt lat="47.78395" lon="-3.53425">
        <ele>22.37</ele>
        <time>2020-07-10T13:48:33Z</time>
      </trkpt>
      <trkpt lat="47.78395" lon="-3.53428">
        <ele>22.53</ele>
        <time>2020-07-10T13:48:34Z</time>
      </trkpt>
      <trkpt lat="47.78396" lon="-3.53431">
        <ele>22.7</ele>
        <time>2020-07-10T13:48:35Z</time>
      </trkpt>
      <trkpt lat="47.78396" lon="-3.53434">
        <ele>22.86</ele>
        <time>2020-07-10T13:48:36Z</time>
      </trkpt>
      <trkpt lat="47.78396" lon="-3.53437">
        <ele>23.05</ele>
        <time>2020-07-10T13:48:37Z</time>
      </trkpt>
      <trkpt lat="47.78397" lon="-3.5344">
        <ele>23.27</ele>
        <time>2020-07-10T13:48:38Z</time>
      </trkpt>
      <trkpt lat="47.78397" lon="-3.53444">
        <ele>23.47</ele>
        <time>2020-07-10T13:48:39Z</time>
      </trkpt>
      <trkpt lat="47.78397" lon="-3.53448">
        <ele>23.72</ele>
        <time>2020-07-10T13:48:40Z</time>
      </trkpt>
      <trkpt lat="47.78397" lon="-3.53451">
        <ele>23.96</ele>
        <time>2020-07-10T13:48:41Z</time>
      </trkpt>
      <trkpt lat="47.78397" lon="-3.53455">
        <ele>24.22</ele>
        <time>2020-07-10T13:48:42Z</time>
      </trkpt>
      <trkpt lat="47.78397" lon="-3.53458">
        <ele>24.47</ele>
        <time>2020-07-10T13:48:43Z</time>
      </trkpt>
      <trkpt lat="47.78397" lon="-3.53462">
        <ele>24.74</ele>
        <time>2020-07-10T13:48:44Z</time>
      </trkpt>
      <trkpt lat="47.78397" lon="-3.53465">
        <ele>24.99</ele>
        <time>2020-07-10T13:48:45Z</time>
      </trkpt>
      <trkpt lat="47.78397" lon="-3.53469">
        <ele>25.22</ele>
        <time>2020-07-10T13:48:46Z</time>
      </trkpt>
      <trkpt lat="47.78397" lon="-3.53472">
        <ele>25.42</ele>
        <time>2020-07-10T13:48:47Z</time>
      </trkpt>
      <trkpt lat="47.78396" lon="-3.53475">
        <ele>25.61</ele>
        <time>2020-07-10T13:48:48Z</time>
      </trkpt>
      <trkpt lat="47.78396" lon="-3.53478">
        <ele>25.77</ele>
        <time>2020-07-10T13:48:49Z</time>
      </trkpt>
      <trkpt lat="47.78396" lon="-3.53481">
        <ele>25.92</ele>
        <time>2020-07-10T13:48:50Z</time>
      </trkpt>
      <trkpt lat="47.78396" lon="-3.53483">
        <ele>26.03</ele>
        <time>2020-07-10T13:48:51Z</time>
      </trkpt>
      <trkpt lat="47.78395" lon="-3.53486">
        <ele>26.09</ele>
        <time>2020-07-10T13:48:52Z</time>
      </trkpt>
      <trkpt lat="47.78395" lon="-3.53489">
        <ele>26.22</ele>
        <time>2020-07-10T13:48:53Z</time>
      </trkpt>
      <trkpt lat="47.78395" lon="-3.53492">
        <ele>26.38</ele>
        <time>2020-07-10T13:48:54Z</time>
      </trkpt>
      <trkpt lat="47.78395" lon="-3.53496">
        <ele>26.54</ele>
        <time>2020-07-10T13:48:55Z</time>
      </trkpt>
      <trkpt lat="47.78394" lon="-3.53499">
        <ele>26.65</ele>
        <time>2020-07-10T13:48:56Z</time>
      </trkpt>
      <trkpt lat="47.78393" lon="-3.53501">
        <ele>26.78</ele>
        <time>2020-07-10T13:48:57Z</time>
      </trkpt>
      <trkpt lat="47.78393" lon="-3.53504">
        <ele>27.02</ele>
        <time>2020-07-10T13:48:58Z</time>
      </trkpt>
      <trkpt lat="47.78393" lon="-3.53506">
        <ele>27.22</ele>
        <time>2020-07-10T13:48:59Z</time>
      </trkpt>
      <trkpt lat="47.78392" lon="-3.53509">
        <ele>27.48</ele>
        <time>2020-07-10T13:49:00Z</time>
      </trkpt>
      <trkpt lat="47.78391" lon="-3.53512">
        <ele>27.79</ele>
        <time>2020-07-10T13:49:01Z</time>
      </trkpt>
      <trkpt lat="47.7839" lon="-3.53513">
        <ele>27.99</ele>
        <time>2020-07-10T13:49:02Z</time>
      </trkpt>
      <trkpt lat="47.7839" lon="-3.53516">
        <ele>28.25</ele>
        <time>2020-07-10T13:49:03Z</time>
      </trkpt>
      <trkpt lat="47.78389" lon="-3.53519">
        <ele>28.59</ele>
        <time>2020-07-10T13:49:04Z</time>
      </trkpt>
      <trkpt lat="47.78389" lon="-3.53521">
        <ele>28.92</ele>
        <time>2020-07-10T13:49:05Z</time>
      </trkpt>
      <trkpt lat="47.78388" lon="-3.53524">
        <ele>29.31</ele>
        <time>2020-07-10T13:49:06Z</time>
      </trkpt>
      <trkpt lat="47.78387" lon="-3.53527">
        <ele>29.7</ele>
        <time>2020-07-10T13:49:07Z</time>
      </trkpt>
      <trkpt lat="47.78387" lon="-3.5353">
        <ele>30.07</ele>
        <time>2020-07-10T13:49:08Z</time>
      </trkpt>
      <trkpt lat="47.78387" lon="-3.53533">
        <ele>30.46</ele>
        <time>2020-07-10T13:49:09Z</time>
      </trkpt>
      <trkpt lat="47.78386" lon="-3.53535">
        <ele>30.86</ele>
        <time>2020-07-10T13:49:10Z</time>
      </trkpt>
      <trkpt lat="47.78386" lon="-3.53539">
        <ele>31.28</ele>
        <time>2020-07-10T13:49:11Z</time>
      </trkpt>
      <trkpt lat="47.78386" lon="-3.53542">
        <ele>31.72</ele>
        <time>2020-07-10T13:49:12Z</time>
      </trkpt>
      <trkpt lat="47.78386" lon="-3.53545">
        <ele>32.2</ele>
        <time>2020-07-10T13:49:13Z</time>
      </trkpt>
      <trkpt lat="47.78385" lon="-3.53549">
        <ele>32.69</ele>
        <time>2020-07-10T13:49:14Z</time>
      </trkpt>
      <trkpt lat="47.78385" lon="-3.53552">
        <ele>33.16</ele>
        <time>2020-07-10T13:49:15Z</time>
      </trkpt>
      <trkpt lat="47.78385" lon="-3.53555">
        <ele>33.59</ele>
        <time>2020-07-10T13:49:16Z</time>
      </trkpt>
      <trkpt lat="47.78385" lon="-3.53558">
        <ele>33.91</ele>
        <time>2020-07-10T13:49:17Z</time>
      </trkpt>
      <trkpt lat="47.78385" lon="-3.53561">
        <ele>34.15</ele>
        <time>2020-07-10T13:49:18Z</time>
      </trkpt>
      <trkpt lat="47.78385" lon="-3.53564">
        <ele>34.36</ele>
        <time>2020-07-10T13:49:19Z</time>
      </trkpt>
      <trkpt lat="47.78384" lon="-3.53567">
        <ele>34.56</ele>
        <time>2020-07-10T13:49:20Z</time>
      </trkpt>
      <trkpt lat="47.78384" lon="-3.53571">
        <ele>34.81</ele>
        <time>2020-07-10T13:49:21Z</time>
      </trkpt>
      <trkpt lat="47.78384" lon="-3.53574">
        <ele>35.02</ele>
        <time>2020-07-10T13:49:22Z</time>
      </trkpt>
      <trkpt lat="47.78383" lon="-3.53576">
        <ele>35.21</ele>
        <time>2020-07-10T13:49:23Z</time>
      </trkpt>
      <trkpt lat="47.78384" lon="-3.5358">
        <ele>35.45</ele>
        <time>2020-07-10T13:49:24Z</time>
      </trkpt>
      <trkpt lat="47.78384" lon="-3.53581">
        <ele>35.62</ele>
        <time>2020-07-10T13:49:25Z</time>
      </trkpt>
      <trkpt lat="47.78385" lon="-3.53583">
        <ele>35.77</ele>
        <time>2020-07-10T13:49:26Z</time>
      </trkpt>
      <trkpt lat="47.78386" lon="-3.53585">
        <ele>35.94</ele>
        <time>2020-07-10T13:49:27Z</time>
      </trkpt>
      <trkpt lat="47.78388" lon="-3.53585">
        <ele>36.04</ele>
        <time>2020-07-10T13:49:28Z</time>
      </trkpt>
      <trkpt lat="47.7839" lon="-3.53585">
        <ele>36.06</ele>
        <time>2020-07-10T13:49:29Z</time>
      </trkpt>
      <trkpt lat="47.78392" lon="-3.53585">
        <ele>36.03</ele>
        <time>2020-07-10T13:49:30Z</time>
      </trkpt>
      <trkpt lat="47.78394" lon="-3.53585">
        <ele>35.95</ele>
        <time>2020-07-10T13:49:31Z</time>
      </trkpt>
      <trkpt lat="47.78396" lon="-3.53585">
        <ele>35.87</ele>
        <time>2020-07-10T13:49:32Z</time>
      </trkpt>
      <trkpt lat="47.78398" lon="-3.53585">
        <ele>35.78</ele>
        <time>2020-07-10T13:49:33Z</time>
      </trkpt>
      <trkpt lat="47.78401" lon="-3.53584">
        <ele>35.69</ele>
        <time>2020-07-10T13:49:34Z</time>
      </trkpt>
      <trkpt lat="47.78403" lon="-3.53584">
        <ele>35.58</ele>
        <time>2020-07-10T13:49:35Z</time>
      </trkpt>
      <trkpt lat="47.78406" lon="-3.53584">
        <ele>35.47</ele>
        <time>2020-07-10T13:49:36Z</time>
      </trkpt>
      <trkpt lat="47.78409" lon="-3.53583">
        <ele>35.34</ele>
        <time>2020-07-10T13:49:37Z</time>
      </trkpt>
      <trkpt lat="47.78411" lon="-3.53583">
        <ele>35.21</ele>
        <time>2020-07-10T13:49:38Z</time>
      </trkpt>
      <trkpt lat="47.78414" lon="-3.53583">
        <ele>35.13</ele>
        <time>2020-07-10T13:49:39Z</time>
      </trkpt>
      <trkpt lat="47.78417" lon="-3.53585">
        <ele>35.15</ele>
        <time>2020-07-10T13:49:40Z</time>
      </trkpt>
      <trkpt lat="47.7842" lon="-3.53587">
        <ele>35.35</ele>
        <time>2020-07-10T13:49:41Z</time>
      </trkpt>
      <trkpt lat="47.78422" lon="-3.53588">
        <ele>35.6</ele>
        <time>2020-07-10T13:49:42Z</time>
      </trkpt>
      <trkpt lat="47.78425" lon="-3.5359">
        <ele>35.86</ele>
        <time>2020-07-10T13:49:43Z</time>
      </trkpt>
      <trkpt lat="47.78427" lon="-3.53591">
        <ele>36.11</ele>
        <time>2020-07-10T13:49:44Z</time>
      </trkpt>
      <trkpt lat="47.78429" lon="-3.53593">
        <ele>36.35</ele>
        <time>2020-07-10T13:49:45Z</time>
      </trkpt>
      <trkpt lat="47.78431" lon="-3.53596">
        <ele>36.6</ele>
        <time>2020-07-10T13:49:46Z</time>
      </trkpt>
      <trkpt lat="47.78432" lon="-3.53599">
        <ele>36.83</ele>
        <time>2020-07-10T13:49:47Z</time>
      </trkpt>
      <trkpt lat="47.78434" lon="-3.53601">
        <ele>37.04</ele>
        <time>2020-07-10T13:49:48Z</time>
      </trkpt>
      <trkpt lat="47.78435" lon="-3.53603">
        <ele>37.23</ele>
        <time>2020-07-10T13:49:49Z</time>
      </trkpt>
      <trkpt lat="47.78437" lon="-3.53605">
        <ele>37.4</ele>
        <time>2020-07-10T13:49:50Z</time>
      </trkpt>
      <trkpt lat="47.78439" lon="-3.53608">
        <ele>37.57</ele>
        <time>2020-07-10T13:49:51Z</time>
      </trkpt>
      <trkpt lat="47.7844" lon="-3.5361">
        <ele>37.74</ele>
        <time>2020-07-10T13:49:52Z</time>
      </trkpt>
      <trkpt lat="47.78442" lon="-3.53614">
        <ele>37.99</ele>
        <time>2020-07-10T13:49:53Z</time>
      </trkpt>
      <trkpt lat="47.78443" lon="-3.53618">
        <ele>38.31</ele>
        <time>2020-07-10T13:49:54Z</time>
      </trkpt>
      <trkpt lat="47.78442" lon="-3.53623">
        <ele>38.64</ele>
        <time>2020-07-10T13:49:55Z</time>
      </trkpt>
      <trkpt lat="47.78442" lon="-3.53627">
        <ele>38.94</ele>
        <time>2020-07-10T13:49:56Z</time>
      </trkpt>
      <trkpt lat="47.78442" lon="-3.53632">
        <ele>39.27</ele>
        <time>2020-07-10T13:49:57Z</time>
      </trkpt>
      <trkpt lat="47.78443" lon="-3.53636">
        <ele>39.6</ele>
        <time>2020-07-10T13:49:58Z</time>
      </trkpt>
      <trkpt lat="47.78444" lon="-3.53641">
        <ele>39.91</ele>
        <time>2020-07-10T13:49:59Z</time>
      </trkpt>
      <trkpt lat="47.78445" lon="-3.53645">
        <ele>40.15</ele>
        <time>2020-07-10T13:50:00Z</time>
      </trkpt>
      <trkpt lat="47.78446" lon="-3.5365">
        <ele>40.37</ele>
        <time>2020-07-10T13:50:01Z</time>
      </trkpt>
      <trkpt lat="47.78448" lon="-3.53654">
        <ele>40.58</ele>
        <time>2020-07-10T13:50:02Z</time>
      </trkpt>
      <trkpt lat="47.78449" lon="-3.53658">
        <ele>40.77</ele>
        <time>2020-07-10T13:50:03Z</time>
      </trkpt>
      <trkpt lat="47.7845" lon="-3.53662">
        <ele>40.95</ele>
        <time>2020-07-10T13:50:04Z</time>
      </trkpt>
      <trkpt lat="47.78452" lon="-3.53665">
        <ele>41.14</ele>
        <time>2020-07-10T13:50:05Z</time>
      </trkpt>
      <trkpt lat="47.78454" lon="-3.53668">
        <ele>41.29</ele>
        <time>2020-07-10T13:50:06Z</time>
      </trkpt>
      <trkpt lat="47.78456" lon="-3.5367">
        <ele>41.39</ele>
        <time>2020-07-10T13:50:07Z</time>
      </trkpt>
      <trkpt lat="47.78458" lon="-3.53673">
        <ele>41.47</ele>
        <time>2020-07-10T13:50:08Z</time>
      </trkpt>
      <trkpt lat="47.78461" lon="-3.53676">
        <ele>41.55</ele>
        <time>2020-07-10T13:50:09Z</time>
      </trkpt>
      <trkpt lat="47.78463" lon="-3.53678">
        <ele>41.63</ele>
        <time>2020-07-10T13:50:10Z</time>
      </trkpt>
      <trkpt lat="47.78465" lon="-3.53681">
        <ele>41.72</ele>
        <time>2020-07-10T13:50:11Z</time>
      </trkpt>
      <trkpt lat="47.78468" lon="-3.53683">
        <ele>41.81</ele>
        <time>2020-07-10T13:50:12Z</time>
      </trkpt>
      <trkpt lat="47.78471" lon="-3.53685">
        <ele>41.91</ele>
        <time>2020-07-10T13:50:13Z</time>
      </trkpt>
      <trkpt lat="47.78474" lon="-3.53686">
        <ele>41.97</ele>
        <time>2020-07-10T13:50:14Z</time>
      </trkpt>
      <trkpt lat="47.78477" lon="-3.53689">
        <ele>41.99</ele>
        <time>2020-07-10T13:50:15Z</time>
      </trkpt>
      <trkpt lat="47.78481" lon="-3.5369">
        <ele>42</ele>
        <time>2020-07-10T13:50:16Z</time>
      </trkpt>
      <trkpt lat="47.78484" lon="-3.53692">
        <ele>42</ele>
        <time>2020-07-10T13:50:17Z</time>
      </trkpt>
      <trkpt lat="47.78488" lon="-3.53694">
        <ele>42</ele>
        <time>2020-07-10T13:50:18Z</time>
      </trkpt>
      <trkpt lat="47.78491" lon="-3.53695">
        <ele>42</ele>
        <time>2020-07-10T13:50:19Z</time>
      </trkpt>
      <trkpt lat="47.78495" lon="-3.53696">
        <ele>42</ele>
        <time>2020-07-10T13:50:20Z</time>
      </trkpt>
      <trkpt lat="47.785" lon="-3.53696">
        <ele>42</ele>
        <time>2020-07-10T13:50:21Z</time>
      </trkpt>
      <trkpt lat="47.78504" lon="-3.53696">
        <ele>42</ele>
        <time>2020-07-10T13:50:22Z</time>
      </trkpt>
      <trkpt lat="47.78508" lon="-3.53696">
        <ele>42</ele>
        <time>2020-07-10T13:50:23Z</time>
      </trkpt>
      <trkpt lat="47.78513" lon="-3.53696">
        <ele>42</ele>
        <time>2020-07-10T13:50:24Z</time>
      </trkpt>
      <trkpt lat="47.78517" lon="-3.53695">
        <ele>42</ele>
        <time>2020-07-10T13:50:25Z</time>
      </trkpt>
      <trkpt lat="47.78521" lon="-3.53695">
        <ele>42</ele>
        <time>2020-07-10T13:50:26Z</time>
      </trkpt>
      <trkpt lat="47.78525" lon="-3.53695">
        <ele>42</ele>
        <time>2020-07-10T13:50:27Z</time>
      </trkpt>
      <trkpt lat="47.78529" lon="-3.53695">
        <ele>42</ele>
        <time>2020-07-10T13:50:28Z</time>
      </trkpt>
      <trkpt lat="47.78534" lon="-3.53695">
        <ele>42</ele>
        <time>2020-07-10T13:50:29Z</time>
      </trkpt>
      <trkpt lat="47.78538" lon="-3.53694">
        <ele>42</ele>
        <time>2020-07-10T13:50:30Z</time>
      </trkpt>
      <trkpt lat="47.78543" lon="-3.53693">
        <ele>42</ele>
        <time>2020-07-10T13:50:31Z</time>
      </trkpt>
      <trkpt lat="47.78548" lon="-3.53693">
        <ele>42</ele>
        <time>2020-07-10T13:50:32Z</time>
      </trkpt>
      <trkpt lat="47.78553" lon="-3.53692">
        <ele>42</ele>
        <time>2020-07-10T13:50:33Z</time>
      </trkpt>
      <trkpt lat="47.78559" lon="-3.5369">
        <ele>41.93</ele>
        <time>2020-07-10T13:50:34Z</time>
      </trkpt>
      <trkpt lat="47.78563" lon="-3.5369">
        <ele>41.78</ele>
        <time>2020-07-10T13:50:35Z</time>
      </trkpt>
      <trkpt lat="47.78569" lon="-3.53688">
        <ele>41.61</ele>
        <time>2020-07-10T13:50:36Z</time>
      </trkpt>
      <trkpt lat="47.78573" lon="-3.53687">
        <ele>41.43</ele>
        <time>2020-07-10T13:50:37Z</time>
      </trkpt>
      <trkpt lat="47.78578" lon="-3.53685">
        <ele>41.25</ele>
        <time>2020-07-10T13:50:38Z</time>
      </trkpt>
      <trkpt lat="47.78583" lon="-3.53684">
        <ele>41.08</ele>
        <time>2020-07-10T13:50:39Z</time>
      </trkpt>
      <trkpt lat="47.78589" lon="-3.53683">
        <ele>41.02</ele>
        <time>2020-07-10T13:50:40Z</time>
      </trkpt>
      <trkpt lat="47.78594" lon="-3.53681">
        <ele>41.01</ele>
        <time>2020-07-10T13:50:41Z</time>
      </trkpt>
      <trkpt lat="47.78599" lon="-3.5368">
        <ele>41</ele>
        <time>2020-07-10T13:50:42Z</time>
      </trkpt>
      <trkpt lat="47.78604" lon="-3.53678">
        <ele>41</ele>
        <time>2020-07-10T13:50:43Z</time>
      </trkpt>
      <trkpt lat="47.78609" lon="-3.53675">
        <ele>41</ele>
        <time>2020-07-10T13:50:44Z</time>
      </trkpt>
      <trkpt lat="47.78614" lon="-3.53673">
        <ele>41</ele>
        <time>2020-07-10T13:50:45Z</time>
      </trkpt>
      <trkpt lat="47.78619" lon="-3.5367">
        <ele>41</ele>
        <time>2020-07-10T13:50:46Z</time>
      </trkpt>
      <trkpt lat="47.78624" lon="-3.53667">
        <ele>41</ele>
        <time>2020-07-10T13:50:47Z</time>
      </trkpt>
      <trkpt lat="47.78628" lon="-3.53663">
        <ele>41</ele>
        <time>2020-07-10T13:50:48Z</time>
      </trkpt>
      <trkpt lat="47.78633" lon="-3.5366">
        <ele>41</ele>
        <time>2020-07-10T13:50:49Z</time>
      </trkpt>
      <trkpt lat="47.78637" lon="-3.53658">
        <ele>41</ele>
        <time>2020-07-10T13:50:50Z</time>
      </trkpt>
      <trkpt lat="47.78642" lon="-3.53657">
        <ele>41.07</ele>
        <time>2020-07-10T13:50:51Z</time>
      </trkpt>
      <trkpt lat="47.78646" lon="-3.53658">
        <ele>41.2</ele>
        <time>2020-07-10T13:50:52Z</time>
      </trkpt>
      <trkpt lat="47.7865" lon="-3.53661">
        <ele>41.34</ele>
        <time>2020-07-10T13:50:53Z</time>
      </trkpt>
      <trkpt lat="47.78652" lon="-3.53667">
        <ele>41.42</ele>
        <time>2020-07-10T13:50:54Z</time>
      </trkpt>
      <trkpt lat="47.78652" lon="-3.53673">
        <ele>41.38</ele>
        <time>2020-07-10T13:50:55Z</time>
      </trkpt>
      <trkpt lat="47.78652" lon="-3.5368">
        <ele>41.28</ele>
        <time>2020-07-10T13:50:56Z</time>
      </trkpt>
      <trkpt lat="47.7865" lon="-3.53687">
        <ele>41.16</ele>
        <time>2020-07-10T13:50:57Z</time>
      </trkpt>
      <trkpt lat="47.78649" lon="-3.53694">
        <ele>41.05</ele>
        <time>2020-07-10T13:50:58Z</time>
      </trkpt>
      <trkpt lat="47.78648" lon="-3.53702">
        <ele>40.83</ele>
        <time>2020-07-10T13:50:59Z</time>
      </trkpt>
      <trkpt lat="47.78647" lon="-3.53709">
        <ele>40.58</ele>
        <time>2020-07-10T13:51:00Z</time>
      </trkpt>
      <trkpt lat="47.78646" lon="-3.53717">
        <ele>40.31</ele>
        <time>2020-07-10T13:51:01Z</time>
      </trkpt>
      <trkpt lat="47.78646" lon="-3.53724">
        <ele>40.04</ele>
        <time>2020-07-10T13:51:02Z</time>
      </trkpt>
      <trkpt lat="47.78645" lon="-3.53732">
        <ele>39.77</ele>
        <time>2020-07-10T13:51:03Z</time>
      </trkpt>
      <trkpt lat="47.78644" lon="-3.53739">
        <ele>39.49</ele>
        <time>2020-07-10T13:51:04Z</time>
      </trkpt>
      <trkpt lat="47.78644" lon="-3.53747">
        <ele>39.22</ele>
        <time>2020-07-10T13:51:05Z</time>
      </trkpt>
      <trkpt lat="47.78643" lon="-3.53755">
        <ele>39.07</ele>
        <time>2020-07-10T13:51:06Z</time>
      </trkpt>
      <trkpt lat="47.78642" lon="-3.53762">
        <ele>39.02</ele>
        <time>2020-07-10T13:51:07Z</time>
      </trkpt>
      <trkpt lat="47.78642" lon="-3.53771">
        <ele>39.01</ele>
        <time>2020-07-10T13:51:08Z</time>
      </trkpt>
      <trkpt lat="47.78641" lon="-3.53779">
        <ele>38.97</ele>
        <time>2020-07-10T13:51:09Z</time>
      </trkpt>
      <trkpt lat="47.7864" lon="-3.53788">
        <ele>38.73</ele>
        <time>2020-07-10T13:51:10Z</time>
      </trkpt>
      <trkpt lat="47.78639" lon="-3.53796">
        <ele>38.46</ele>
        <time>2020-07-10T13:51:11Z</time>
      </trkpt>
      <trkpt lat="47.78637" lon="-3.53805">
        <ele>38.19</ele>
        <time>2020-07-10T13:51:12Z</time>
      </trkpt>
      <trkpt lat="47.78636" lon="-3.53814">
        <ele>37.92</ele>
        <time>2020-07-10T13:51:13Z</time>
      </trkpt>
      <trkpt lat="47.78634" lon="-3.53823">
        <ele>37.65</ele>
        <time>2020-07-10T13:51:14Z</time>
      </trkpt>
      <trkpt lat="47.78633" lon="-3.53832">
        <ele>37.38</ele>
        <time>2020-07-10T13:51:15Z</time>
      </trkpt>
      <trkpt lat="47.78631" lon="-3.53841">
        <ele>37.1</ele>
        <time>2020-07-10T13:51:16Z</time>
      </trkpt>
      <trkpt lat="47.7863" lon="-3.5385">
        <ele>36.83</ele>
        <time>2020-07-10T13:51:17Z</time>
      </trkpt>
      <trkpt lat="47.78629" lon="-3.53859">
        <ele>36.56</ele>
        <time>2020-07-10T13:51:18Z</time>
      </trkpt>
      <trkpt lat="47.78627" lon="-3.53868">
        <ele>36.3</ele>
        <time>2020-07-10T13:51:19Z</time>
      </trkpt>
      <trkpt lat="47.78626" lon="-3.53876">
        <ele>36.03</ele>
        <time>2020-07-10T13:51:20Z</time>
      </trkpt>
      <trkpt lat="47.78625" lon="-3.53885">
        <ele>35.76</ele>
        <time>2020-07-10T13:51:21Z</time>
      </trkpt>
      <trkpt lat="47.78624" lon="-3.53894">
        <ele>35.49</ele>
        <time>2020-07-10T13:51:22Z</time>
      </trkpt>
      <trkpt lat="47.78623" lon="-3.53902">
        <ele>35.22</ele>
        <time>2020-07-10T13:51:23Z</time>
      </trkpt>
      <trkpt lat="47.78622" lon="-3.53911">
        <ele>34.92</ele>
        <time>2020-07-10T13:51:24Z</time>
      </trkpt>
      <trkpt lat="47.78621" lon="-3.53921">
        <ele>34.63</ele>
        <time>2020-07-10T13:51:25Z</time>
      </trkpt>
      <trkpt lat="47.7862" lon="-3.5393">
        <ele>34.32</ele>
        <time>2020-07-10T13:51:26Z</time>
      </trkpt>
      <trkpt lat="47.78619" lon="-3.5394">
        <ele>34.01</ele>
        <time>2020-07-10T13:51:27Z</time>
      </trkpt>
      <trkpt lat="47.78618" lon="-3.53949">
        <ele>33.73</ele>
        <time>2020-07-10T13:51:28Z</time>
      </trkpt>
      <trkpt lat="47.78617" lon="-3.53959">
        <ele>33.48</ele>
        <time>2020-07-10T13:51:29Z</time>
      </trkpt>
      <trkpt lat="47.78616" lon="-3.53969">
        <ele>33.21</ele>
        <time>2020-07-10T13:51:30Z</time>
      </trkpt>
      <trkpt lat="47.78616" lon="-3.53978">
        <ele>33.04</ele>
        <time>2020-07-10T13:51:31Z</time>
      </trkpt>
      <trkpt lat="47.78615" lon="-3.53987">
        <ele>32.95</ele>
        <time>2020-07-10T13:51:32Z</time>
      </trkpt>
      <trkpt lat="47.78615" lon="-3.53996">
        <ele>32.91</ele>
        <time>2020-07-10T13:51:33Z</time>
      </trkpt>
      <trkpt lat="47.78613" lon="-3.54005">
        <ele>32.8</ele>
        <time>2020-07-10T13:51:34Z</time>
      </trkpt>
      <trkpt lat="47.78612" lon="-3.54013">
        <ele>32.6</ele>
        <time>2020-07-10T13:51:35Z</time>
      </trkpt>
      <trkpt lat="47.78609" lon="-3.54021">
        <ele>32.35</ele>
        <time>2020-07-10T13:51:36Z</time>
      </trkpt>
      <trkpt lat="47.78606" lon="-3.54029">
        <ele>32.08</ele>
        <time>2020-07-10T13:51:37Z</time>
      </trkpt>
      <trkpt lat="47.78602" lon="-3.54035">
        <ele>31.9</ele>
        <time>2020-07-10T13:51:38Z</time>
      </trkpt>
      <trkpt lat="47.78597" lon="-3.54041">
        <ele>31.8</ele>
        <time>2020-07-10T13:51:39Z</time>
      </trkpt>
      <trkpt lat="47.78593" lon="-3.54046">
        <ele>31.79</ele>
        <time>2020-07-10T13:51:40Z</time>
      </trkpt>
      <trkpt lat="47.78587" lon="-3.54051">
        <ele>31.85</ele>
        <time>2020-07-10T13:51:41Z</time>
      </trkpt>
      <trkpt lat="47.78582" lon="-3.54055">
        <ele>31.95</ele>
        <time>2020-07-10T13:51:42Z</time>
      </trkpt>
      <trkpt lat="47.78577" lon="-3.54059">
        <ele>31.91</ele>
        <time>2020-07-10T13:51:43Z</time>
      </trkpt>
      <trkpt lat="47.78573" lon="-3.54064">
        <ele>31.84</ele>
        <time>2020-07-10T13:51:44Z</time>
      </trkpt>
      <trkpt lat="47.78568" lon="-3.5407">
        <ele>31.8</ele>
        <time>2020-07-10T13:51:45Z</time>
      </trkpt>
      <trkpt lat="47.78563" lon="-3.54075">
        <ele>31.81</ele>
        <time>2020-07-10T13:51:46Z</time>
      </trkpt>
      <trkpt lat="47.78559" lon="-3.54081">
        <ele>31.87</ele>
        <time>2020-07-10T13:51:47Z</time>
      </trkpt>
      <trkpt lat="47.78554" lon="-3.54086">
        <ele>31.96</ele>
        <time>2020-07-10T13:51:48Z</time>
      </trkpt>
      <trkpt lat="47.7855" lon="-3.54091">
        <ele>31.99</ele>
        <time>2020-07-10T13:51:49Z</time>
      </trkpt>
      <trkpt lat="47.78545" lon="-3.54097">
        <ele>32</ele>
        <time>2020-07-10T13:51:50Z</time>
      </trkpt>
      <trkpt lat="47.78541" lon="-3.54102">
        <ele>32</ele>
        <time>2020-07-10T13:51:51Z</time>
      </trkpt>
      <trkpt lat="47.78537" lon="-3.54107">
        <ele>32</ele>
        <time>2020-07-10T13:51:52Z</time>
      </trkpt>
      <trkpt lat="47.78532" lon="-3.54112">
        <ele>32</ele>
        <time>2020-07-10T13:51:53Z</time>
      </trkpt>
      <trkpt lat="47.78528" lon="-3.54117">
        <ele>32</ele>
        <time>2020-07-10T13:51:54Z</time>
      </trkpt>
      <trkpt lat="47.78524" lon="-3.54122">
        <ele>32.11</ele>
        <time>2020-07-10T13:51:55Z</time>
      </trkpt>
      <trkpt lat="47.78519" lon="-3.54127">
        <ele>32.25</ele>
        <time>2020-07-10T13:51:56Z</time>
      </trkpt>
      <trkpt lat="47.78515" lon="-3.54133">
        <ele>32.4</ele>
        <time>2020-07-10T13:51:57Z</time>
      </trkpt>
      <trkpt lat="47.78511" lon="-3.54138">
        <ele>32.55</ele>
        <time>2020-07-10T13:51:58Z</time>
      </trkpt>
      <trkpt lat="47.78507" lon="-3.54143">
        <ele>32.85</ele>
        <time>2020-07-10T13:51:59Z</time>
      </trkpt>
      <trkpt lat="47.78503" lon="-3.54149">
        <ele>33.16</ele>
        <time>2020-07-10T13:52:00Z</time>
      </trkpt>
      <trkpt lat="47.78499" lon="-3.54155">
        <ele>33.48</ele>
        <time>2020-07-10T13:52:01Z</time>
      </trkpt>
      <trkpt lat="47.78495" lon="-3.5416">
        <ele>33.82</ele>
        <time>2020-07-10T13:52:02Z</time>
      </trkpt>
      <trkpt lat="47.78492" lon="-3.54166">
        <ele>34.13</ele>
        <time>2020-07-10T13:52:03Z</time>
      </trkpt>
      <trkpt lat="47.78488" lon="-3.54172">
        <ele>34.46</ele>
        <time>2020-07-10T13:52:04Z</time>
      </trkpt>
      <trkpt lat="47.78485" lon="-3.54177">
        <ele>34.78</ele>
        <time>2020-07-10T13:52:05Z</time>
      </trkpt>
      <trkpt lat="47.78482" lon="-3.54183">
        <ele>35.09</ele>
        <time>2020-07-10T13:52:06Z</time>
      </trkpt>
      <trkpt lat="47.78479" lon="-3.54189">
        <ele>35.4</ele>
        <time>2020-07-10T13:52:07Z</time>
      </trkpt>
      <trkpt lat="47.78477" lon="-3.54194">
        <ele>35.71</ele>
        <time>2020-07-10T13:52:08Z</time>
      </trkpt>
      <trkpt lat="47.78474" lon="-3.542">
        <ele>35.88</ele>
        <time>2020-07-10T13:52:09Z</time>
      </trkpt>
      <trkpt lat="47.78471" lon="-3.54206">
        <ele>36</ele>
        <time>2020-07-10T13:52:10Z</time>
      </trkpt>
      <trkpt lat="47.78468" lon="-3.54212">
        <ele>36.11</ele>
        <time>2020-07-10T13:52:11Z</time>
      </trkpt>
      <trkpt lat="47.78465" lon="-3.54217">
        <ele>36.21</ele>
        <time>2020-07-10T13:52:12Z</time>
      </trkpt>
      <trkpt lat="47.78462" lon="-3.54223">
        <ele>36.33</ele>
        <time>2020-07-10T13:52:13Z</time>
      </trkpt>
      <trkpt lat="47.78459" lon="-3.54228">
        <ele>36.57</ele>
        <time>2020-07-10T13:52:14Z</time>
      </trkpt>
      <trkpt lat="47.78457" lon="-3.54234">
        <ele>36.85</ele>
        <time>2020-07-10T13:52:15Z</time>
      </trkpt>
      <trkpt lat="47.78454" lon="-3.54239">
        <ele>37.14</ele>
        <time>2020-07-10T13:52:16Z</time>
      </trkpt>
      <trkpt lat="47.78451" lon="-3.54244">
        <ele>37.43</ele>
        <time>2020-07-10T13:52:17Z</time>
      </trkpt>
      <trkpt lat="47.78449" lon="-3.5425">
        <ele>37.71</ele>
        <time>2020-07-10T13:52:18Z</time>
      </trkpt>
      <trkpt lat="47.78446" lon="-3.54255">
        <ele>37.99</ele>
        <time>2020-07-10T13:52:19Z</time>
      </trkpt>
      <trkpt lat="47.78444" lon="-3.5426">
        <ele>38.27</ele>
        <time>2020-07-10T13:52:20Z</time>
      </trkpt>
      <trkpt lat="47.78441" lon="-3.54265">
        <ele>38.56</ele>
        <time>2020-07-10T13:52:21Z</time>
      </trkpt>
      <trkpt lat="47.78438" lon="-3.54271">
        <ele>38.84</ele>
        <time>2020-07-10T13:52:22Z</time>
      </trkpt>
      <trkpt lat="47.78436" lon="-3.54276">
        <ele>39.13</ele>
        <time>2020-07-10T13:52:23Z</time>
      </trkpt>
      <trkpt lat="47.78433" lon="-3.54281">
        <ele>39.42</ele>
        <time>2020-07-10T13:52:24Z</time>
      </trkpt>
      <trkpt lat="47.7843" lon="-3.54287">
        <ele>39.71</ele>
        <time>2020-07-10T13:52:25Z</time>
      </trkpt>
      <trkpt lat="47.78428" lon="-3.54292">
        <ele>39.99</ele>
        <time>2020-07-10T13:52:26Z</time>
      </trkpt>
      <trkpt lat="47.78425" lon="-3.54297">
        <ele>40.27</ele>
        <time>2020-07-10T13:52:27Z</time>
      </trkpt>
      <trkpt lat="47.78422" lon="-3.54302">
        <ele>40.55</ele>
        <time>2020-07-10T13:52:28Z</time>
      </trkpt>
      <trkpt lat="47.7842" lon="-3.54307">
        <ele>40.78</ele>
        <time>2020-07-10T13:52:29Z</time>
      </trkpt>
      <trkpt lat="47.78417" lon="-3.54312">
        <ele>40.92</ele>
        <time>2020-07-10T13:52:30Z</time>
      </trkpt>
      <trkpt lat="47.78415" lon="-3.54317">
        <ele>41.02</ele>
        <time>2020-07-10T13:52:31Z</time>
      </trkpt>
      <trkpt lat="47.78412" lon="-3.54322">
        <ele>41.11</ele>
        <time>2020-07-10T13:52:32Z</time>
      </trkpt>
      <trkpt lat="47.7841" lon="-3.54326">
        <ele>41.21</ele>
        <time>2020-07-10T13:52:33Z</time>
      </trkpt>
      <trkpt lat="47.78407" lon="-3.54331">
        <ele>41.31</ele>
        <time>2020-07-10T13:52:34Z</time>
      </trkpt>
      <trkpt lat="47.78404" lon="-3.54336">
        <ele>41.4</ele>
        <time>2020-07-10T13:52:35Z</time>
      </trkpt>
      <trkpt lat="47.78402" lon="-3.54342">
        <ele>41.49</ele>
        <time>2020-07-10T13:52:36Z</time>
      </trkpt>
      <trkpt lat="47.78399" lon="-3.54347">
        <ele>41.58</ele>
        <time>2020-07-10T13:52:37Z</time>
      </trkpt>
      <trkpt lat="47.78397" lon="-3.54354">
        <ele>41.66</ele>
        <time>2020-07-10T13:52:38Z</time>
      </trkpt>
      <trkpt lat="47.78395" lon="-3.5436">
        <ele>41.74</ele>
        <time>2020-07-10T13:52:39Z</time>
      </trkpt>
      <trkpt lat="47.78393" lon="-3.54367">
        <ele>41.82</ele>
        <time>2020-07-10T13:52:40Z</time>
      </trkpt>
      <trkpt lat="47.78391" lon="-3.54373">
        <ele>41.9</ele>
        <time>2020-07-10T13:52:41Z</time>
      </trkpt>
      <trkpt lat="47.78389" lon="-3.54379">
        <ele>41.96</ele>
        <time>2020-07-10T13:52:42Z</time>
      </trkpt>
      <trkpt lat="47.78388" lon="-3.54385">
        <ele>42.01</ele>
        <time>2020-07-10T13:52:43Z</time>
      </trkpt>
      <trkpt lat="47.78388" lon="-3.54392">
        <ele>42.02</ele>
        <time>2020-07-10T13:52:44Z</time>
      </trkpt>
      <trkpt lat="47.78389" lon="-3.544">
        <ele>42</ele>
        <time>2020-07-10T13:52:45Z</time>
      </trkpt>
      <trkpt lat="47.78389" lon="-3.54408">
        <ele>41.98</ele>
        <time>2020-07-10T13:52:46Z</time>
      </trkpt>
      <trkpt lat="47.78389" lon="-3.54416">
        <ele>41.99</ele>
        <time>2020-07-10T13:52:47Z</time>
      </trkpt>
      <trkpt lat="47.78389" lon="-3.54424">
        <ele>42</ele>
        <time>2020-07-10T13:52:48Z</time>
      </trkpt>
      <trkpt lat="47.78389" lon="-3.54432">
        <ele>42</ele>
        <time>2020-07-10T13:52:49Z</time>
      </trkpt>
      <trkpt lat="47.78389" lon="-3.54439">
        <ele>41.97</ele>
        <time>2020-07-10T13:52:50Z</time>
      </trkpt>
      <trkpt lat="47.7839" lon="-3.54447">
        <ele>41.87</ele>
        <time>2020-07-10T13:52:51Z</time>
      </trkpt>
      <trkpt lat="47.7839" lon="-3.54454">
        <ele>41.66</ele>
        <time>2020-07-10T13:52:52Z</time>
      </trkpt>
      <trkpt lat="47.7839" lon="-3.54462">
        <ele>41.4</ele>
        <time>2020-07-10T13:52:53Z</time>
      </trkpt>
      <trkpt lat="47.7839" lon="-3.5447">
        <ele>41.12</ele>
        <time>2020-07-10T13:52:54Z</time>
      </trkpt>
      <trkpt lat="47.7839" lon="-3.54477">
        <ele>40.95</ele>
        <time>2020-07-10T13:52:55Z</time>
      </trkpt>
      <trkpt lat="47.78391" lon="-3.54485">
        <ele>40.9</ele>
        <time>2020-07-10T13:52:56Z</time>
      </trkpt>
      <trkpt lat="47.78391" lon="-3.54492">
        <ele>40.86</ele>
        <time>2020-07-10T13:52:57Z</time>
      </trkpt>
      <trkpt lat="47.78391" lon="-3.545">
        <ele>40.84</ele>
        <time>2020-07-10T13:52:58Z</time>
      </trkpt>
      <trkpt lat="47.78391" lon="-3.54507">
        <ele>40.68</ele>
        <time>2020-07-10T13:52:59Z</time>
      </trkpt>
      <trkpt lat="47.78391" lon="-3.54515">
        <ele>40.44</ele>
        <time>2020-07-10T13:53:00Z</time>
      </trkpt>
      <trkpt lat="47.78392" lon="-3.54523">
        <ele>40.18</ele>
        <time>2020-07-10T13:53:01Z</time>
      </trkpt>
      <trkpt lat="47.78392" lon="-3.5453">
        <ele>39.92</ele>
        <time>2020-07-10T13:53:02Z</time>
      </trkpt>
      <trkpt lat="47.78393" lon="-3.54539">
        <ele>39.61</ele>
        <time>2020-07-10T13:53:03Z</time>
      </trkpt>
      <trkpt lat="47.78393" lon="-3.54546">
        <ele>39.32</ele>
        <time>2020-07-10T13:53:04Z</time>
      </trkpt>
      <trkpt lat="47.78393" lon="-3.54554">
        <ele>39.02</ele>
        <time>2020-07-10T13:53:05Z</time>
      </trkpt>
      <trkpt lat="47.78394" lon="-3.54563">
        <ele>38.88</ele>
        <time>2020-07-10T13:53:06Z</time>
      </trkpt>
      <trkpt lat="47.78394" lon="-3.54572">
        <ele>38.84</ele>
        <time>2020-07-10T13:53:07Z</time>
      </trkpt>
      <trkpt lat="47.78393" lon="-3.54581">
        <ele>38.84</ele>
        <time>2020-07-10T13:53:08Z</time>
      </trkpt>
      <trkpt lat="47.78393" lon="-3.5459">
        <ele>38.84</ele>
        <time>2020-07-10T13:53:09Z</time>
      </trkpt>
      <trkpt lat="47.78394" lon="-3.54598">
        <ele>38.82</ele>
        <time>2020-07-10T13:53:10Z</time>
      </trkpt>
      <trkpt lat="47.78396" lon="-3.54607">
        <ele>38.77</ele>
        <time>2020-07-10T13:53:11Z</time>
      </trkpt>
      <trkpt lat="47.78398" lon="-3.54614">
        <ele>38.7</ele>
        <time>2020-07-10T13:53:12Z</time>
      </trkpt>
      <trkpt lat="47.78402" lon="-3.5462">
        <ele>38.59</ele>
        <time>2020-07-10T13:53:13Z</time>
      </trkpt>
      <trkpt lat="47.78408" lon="-3.54622">
        <ele>38.4</ele>
        <time>2020-07-10T13:53:14Z</time>
      </trkpt>
      <trkpt lat="47.78414" lon="-3.54624">
        <ele>38.18</ele>
        <time>2020-07-10T13:53:15Z</time>
      </trkpt>
      <trkpt lat="47.7842" lon="-3.54624">
        <ele>37.97</ele>
        <time>2020-07-10T13:53:16Z</time>
      </trkpt>
      <trkpt lat="47.78426" lon="-3.54624">
        <ele>37.75</ele>
        <time>2020-07-10T13:53:17Z</time>
      </trkpt>
      <trkpt lat="47.78432" lon="-3.54625">
        <ele>37.53</ele>
        <time>2020-07-10T13:53:18Z</time>
      </trkpt>
      <trkpt lat="47.78438" lon="-3.54626">
        <ele>37.31</ele>
        <time>2020-07-10T13:53:19Z</time>
      </trkpt>
      <trkpt lat="47.78444" lon="-3.54628">
        <ele>37.11</ele>
        <time>2020-07-10T13:53:20Z</time>
      </trkpt>
      <trkpt lat="47.78452" lon="-3.54634">
        <ele>36.84</ele>
        <time>2020-07-10T13:53:21Z</time>
      </trkpt>
      <trkpt lat="47.78458" lon="-3.54638">
        <ele>36.61</ele>
        <time>2020-07-10T13:53:22Z</time>
      </trkpt>
      <trkpt lat="47.78465" lon="-3.54642">
        <ele>36.4</ele>
        <time>2020-07-10T13:53:23Z</time>
      </trkpt>
      <trkpt lat="47.78471" lon="-3.54645">
        <ele>36.3</ele>
        <time>2020-07-10T13:53:24Z</time>
      </trkpt>
      <trkpt lat="47.78477" lon="-3.54647">
        <ele>36.23</ele>
        <time>2020-07-10T13:53:25Z</time>
      </trkpt>
      <trkpt lat="47.78482" lon="-3.5465">
        <ele>36.14</ele>
        <time>2020-07-10T13:53:26Z</time>
      </trkpt>
      <trkpt lat="47.78488" lon="-3.54652">
        <ele>36</ele>
        <time>2020-07-10T13:53:27Z</time>
      </trkpt>
      <trkpt lat="47.78493" lon="-3.54656">
        <ele>35.78</ele>
        <time>2020-07-10T13:53:28Z</time>
      </trkpt>
      <trkpt lat="47.78498" lon="-3.54661">
        <ele>35.45</ele>
        <time>2020-07-10T13:53:29Z</time>
      </trkpt>
      <trkpt lat="47.78501" lon="-3.54668">
        <ele>35.1</ele>
        <time>2020-07-10T13:53:30Z</time>
      </trkpt>
      <trkpt lat="47.78504" lon="-3.54676">
        <ele>34.79</ele>
        <time>2020-07-10T13:53:31Z</time>
      </trkpt>
      <trkpt lat="47.78505" lon="-3.54685">
        <ele>34.48</ele>
        <time>2020-07-10T13:53:32Z</time>
      </trkpt>
      <trkpt lat="47.78505" lon="-3.54693">
        <ele>34.18</ele>
        <time>2020-07-10T13:53:33Z</time>
      </trkpt>
      <trkpt lat="47.78503" lon="-3.547">
        <ele>34.07</ele>
        <time>2020-07-10T13:53:34Z</time>
      </trkpt>
      <trkpt lat="47.78501" lon="-3.54707">
        <ele>34.03</ele>
        <time>2020-07-10T13:53:35Z</time>
      </trkpt>
      <trkpt lat="47.78499" lon="-3.54714">
        <ele>34.04</ele>
        <time>2020-07-10T13:53:36Z</time>
      </trkpt>
      <trkpt lat="47.78497" lon="-3.54721">
        <ele>34.09</ele>
        <time>2020-07-10T13:53:37Z</time>
      </trkpt>
      <trkpt lat="47.78495" lon="-3.54728">
        <ele>34.24</ele>
        <time>2020-07-10T13:53:38Z</time>
      </trkpt>
      <trkpt lat="47.78494" lon="-3.54735">
        <ele>34.41</ele>
        <time>2020-07-10T13:53:39Z</time>
      </trkpt>
      <trkpt lat="47.78492" lon="-3.54743">
        <ele>34.54</ele>
        <time>2020-07-10T13:53:40Z</time>
      </trkpt>
      <trkpt lat="47.7849" lon="-3.5475">
        <ele>34.62</ele>
        <time>2020-07-10T13:53:41Z</time>
      </trkpt>
      <trkpt lat="47.78489" lon="-3.54757">
        <ele>34.5</ele>
        <time>2020-07-10T13:53:42Z</time>
      </trkpt>
      <trkpt lat="47.78488" lon="-3.54764">
        <ele>34.34</ele>
        <time>2020-07-10T13:53:43Z</time>
      </trkpt>
      <trkpt lat="47.78487" lon="-3.54769">
        <ele>34.23</ele>
        <time>2020-07-10T13:53:44Z</time>
      </trkpt>
      <trkpt lat="47.78486" lon="-3.54771">
        <ele>34.15</ele>
        <time>2020-07-10T13:53:45Z</time>
      </trkpt>
      <trkpt lat="47.78485" lon="-3.54773">
        <ele>34.11</ele>
        <time>2020-07-10T13:53:46Z</time>
      </trkpt>
      <trkpt lat="47.78485" lon="-3.54774">
        <ele>34.08</ele>
        <time>2020-07-10T13:53:47Z</time>
      </trkpt>
      <trkpt lat="47.78486" lon="-3.54776">
        <ele>34.05</ele>
        <time>2020-07-10T13:53:48Z</time>
      </trkpt>
      <trkpt lat="47.78488" lon="-3.54776">
        <ele>34.04</ele>
        <time>2020-07-10T13:53:49Z</time>
      </trkpt>
      <trkpt lat="47.7849" lon="-3.54777">
        <ele>34.02</ele>
        <time>2020-07-10T13:53:50Z</time>
      </trkpt>
      <trkpt lat="47.78492" lon="-3.54779">
        <ele>33.99</ele>
        <time>2020-07-10T13:53:51Z</time>
      </trkpt>
      <trkpt lat="47.78495" lon="-3.54781">
        <ele>33.94</ele>
        <time>2020-07-10T13:53:52Z</time>
      </trkpt>
      <trkpt lat="47.78498" lon="-3.54783">
        <ele>33.87</ele>
        <time>2020-07-10T13:53:53Z</time>
      </trkpt>
      <trkpt lat="47.78501" lon="-3.54785">
        <ele>33.79</ele>
        <time>2020-07-10T13:53:54Z</time>
      </trkpt>
      <trkpt lat="47.78504" lon="-3.54787">
        <ele>33.73</ele>
        <time>2020-07-10T13:53:55Z</time>
      </trkpt>
      <trkpt lat="47.78506" lon="-3.5479">
        <ele>33.67</ele>
        <time>2020-07-10T13:53:56Z</time>
      </trkpt>
      <trkpt lat="47.78508" lon="-3.54795">
        <ele>33.6</ele>
        <time>2020-07-10T13:53:57Z</time>
      </trkpt>
      <trkpt lat="47.78511" lon="-3.548">
        <ele>33.53</ele>
        <time>2020-07-10T13:53:58Z</time>
      </trkpt>
      <trkpt lat="47.78513" lon="-3.54806">
        <ele>33.49</ele>
        <time>2020-07-10T13:53:59Z</time>
      </trkpt>
      <trkpt lat="47.78515" lon="-3.54812">
        <ele>33.36</ele>
        <time>2020-07-10T13:54:00Z</time>
      </trkpt>
      <trkpt lat="47.78517" lon="-3.54819">
        <ele>33.12</ele>
        <time>2020-07-10T13:54:01Z</time>
      </trkpt>
      <trkpt lat="47.78517" lon="-3.54827">
        <ele>32.81</ele>
        <time>2020-07-10T13:54:02Z</time>
      </trkpt>
      <trkpt lat="47.78517" lon="-3.54834">
        <ele>32.54</ele>
        <time>2020-07-10T13:54:03Z</time>
      </trkpt>
      <trkpt lat="47.78515" lon="-3.54842">
        <ele>32.6</ele>
        <time>2020-07-10T13:54:04Z</time>
      </trkpt>
      <trkpt lat="47.78513" lon="-3.5485">
        <ele>32.74</ele>
        <time>2020-07-10T13:54:05Z</time>
      </trkpt>
      <trkpt lat="47.78511" lon="-3.54858">
        <ele>32.89</ele>
        <time>2020-07-10T13:54:06Z</time>
      </trkpt>
      <trkpt lat="47.78509" lon="-3.54865">
        <ele>32.97</ele>
        <time>2020-07-10T13:54:07Z</time>
      </trkpt>
      <trkpt lat="47.78507" lon="-3.54872">
        <ele>32.99</ele>
        <time>2020-07-10T13:54:08Z</time>
      </trkpt>
      <trkpt lat="47.78504" lon="-3.54878">
        <ele>33</ele>
        <time>2020-07-10T13:54:09Z</time>
      </trkpt>
      <trkpt lat="47.78504" lon="-3.54886">
        <ele>33</ele>
        <time>2020-07-10T13:54:10Z</time>
      </trkpt>
      <trkpt lat="47.78502" lon="-3.54892">
        <ele>33.08</ele>
        <time>2020-07-10T13:54:11Z</time>
      </trkpt>
      <trkpt lat="47.785" lon="-3.54899">
        <ele>33.28</ele>
        <time>2020-07-10T13:54:12Z</time>
      </trkpt>
      <trkpt lat="47.78498" lon="-3.54905">
        <ele>33.47</ele>
        <time>2020-07-10T13:54:13Z</time>
      </trkpt>
      <trkpt lat="47.78496" lon="-3.54912">
        <ele>33.64</ele>
        <time>2020-07-10T13:54:14Z</time>
      </trkpt>
      <trkpt lat="47.78494" lon="-3.54917">
        <ele>33.74</ele>
        <time>2020-07-10T13:54:15Z</time>
      </trkpt>
      <trkpt lat="47.78492" lon="-3.54922">
        <ele>33.71</ele>
        <time>2020-07-10T13:54:16Z</time>
      </trkpt>
      <trkpt lat="47.7849" lon="-3.54928">
        <ele>33.65</ele>
        <time>2020-07-10T13:54:17Z</time>
      </trkpt>
      <trkpt lat="47.78488" lon="-3.54934">
        <ele>33.58</ele>
        <time>2020-07-10T13:54:18Z</time>
      </trkpt>
      <trkpt lat="47.78486" lon="-3.54939">
        <ele>33.52</ele>
        <time>2020-07-10T13:54:19Z</time>
      </trkpt>
      <trkpt lat="47.78485" lon="-3.54944">
        <ele>33.48</ele>
        <time>2020-07-10T13:54:20Z</time>
      </trkpt>
      <trkpt lat="47.78484" lon="-3.54947">
        <ele>33.49</ele>
        <time>2020-07-10T13:54:21Z</time>
      </trkpt>
      <trkpt lat="47.78483" lon="-3.54951">
        <ele>33.52</ele>
        <time>2020-07-10T13:54:22Z</time>
      </trkpt>
      <trkpt lat="47.78482" lon="-3.54955">
        <ele>33.58</ele>
        <time>2020-07-10T13:54:23Z</time>
      </trkpt>
      <trkpt lat="47.78482" lon="-3.54958">
        <ele>33.64</ele>
        <time>2020-07-10T13:54:24Z</time>
      </trkpt>
      <trkpt lat="47.78481" lon="-3.54961">
        <ele>33.7</ele>
        <time>2020-07-10T13:54:25Z</time>
      </trkpt>
      <trkpt lat="47.78481" lon="-3.54965">
        <ele>33.79</ele>
        <time>2020-07-10T13:54:26Z</time>
      </trkpt>
      <trkpt lat="47.7848" lon="-3.5497">
        <ele>33.89</ele>
        <time>2020-07-10T13:54:27Z</time>
      </trkpt>
      <trkpt lat="47.78479" lon="-3.54973">
        <ele>33.97</ele>
        <time>2020-07-10T13:54:28Z</time>
      </trkpt>
      <trkpt lat="47.78478" lon="-3.54978">
        <ele>33.99</ele>
        <time>2020-07-10T13:54:29Z</time>
      </trkpt>
      <trkpt lat="47.78477" lon="-3.54984">
        <ele>34</ele>
        <time>2020-07-10T13:54:30Z</time>
      </trkpt>
      <trkpt lat="47.78475" lon="-3.5499">
        <ele>34</ele>
        <time>2020-07-10T13:54:31Z</time>
      </trkpt>
      <trkpt lat="47.78474" lon="-3.54996">
        <ele>34</ele>
        <time>2020-07-10T13:54:32Z</time>
      </trkpt>
      <trkpt lat="47.78472" lon="-3.55002">
        <ele>33.95</ele>
        <time>2020-07-10T13:54:33Z</time>
      </trkpt>
      <trkpt lat="47.78471" lon="-3.55007">
        <ele>33.77</ele>
        <time>2020-07-10T13:54:34Z</time>
      </trkpt>
      <trkpt lat="47.7847" lon="-3.55012">
        <ele>33.57</ele>
        <time>2020-07-10T13:54:35Z</time>
      </trkpt>
      <trkpt lat="47.78469" lon="-3.55016">
        <ele>33.37</ele>
        <time>2020-07-10T13:54:36Z</time>
      </trkpt>
      <trkpt lat="47.78468" lon="-3.55022">
        <ele>33.13</ele>
        <time>2020-07-10T13:54:37Z</time>
      </trkpt>
      <trkpt lat="47.78467" lon="-3.55028">
        <ele>32.89</ele>
        <time>2020-07-10T13:54:38Z</time>
      </trkpt>
      <trkpt lat="47.78465" lon="-3.55033">
        <ele>32.74</ele>
        <time>2020-07-10T13:54:39Z</time>
      </trkpt>
      <trkpt lat="47.78462" lon="-3.55038">
        <ele>32.58</ele>
        <time>2020-07-10T13:54:40Z</time>
      </trkpt>
      <trkpt lat="47.78461" lon="-3.55043">
        <ele>32.42</ele>
        <time>2020-07-10T13:54:41Z</time>
      </trkpt>
      <trkpt lat="47.78459" lon="-3.55048">
        <ele>32.25</ele>
        <time>2020-07-10T13:54:42Z</time>
      </trkpt>
      <trkpt lat="47.78457" lon="-3.55052">
        <ele>32.04</ele>
        <time>2020-07-10T13:54:43Z</time>
      </trkpt>
      <trkpt lat="47.78455" lon="-3.55057">
        <ele>31.84</ele>
        <time>2020-07-10T13:54:44Z</time>
      </trkpt>
      <trkpt lat="47.78454" lon="-3.55062">
        <ele>31.66</ele>
        <time>2020-07-10T13:54:45Z</time>
      </trkpt>
      <trkpt lat="47.78452" lon="-3.55068">
        <ele>31.47</ele>
        <time>2020-07-10T13:54:46Z</time>
      </trkpt>
      <trkpt lat="47.78449" lon="-3.55074">
        <ele>31.3</ele>
        <time>2020-07-10T13:54:47Z</time>
      </trkpt>
      <trkpt lat="47.78447" lon="-3.5508">
        <ele>31.17</ele>
        <time>2020-07-10T13:54:48Z</time>
      </trkpt>
      <trkpt lat="47.78445" lon="-3.55087">
        <ele>30.87</ele>
        <time>2020-07-10T13:54:49Z</time>
      </trkpt>
      <trkpt lat="47.78444" lon="-3.55095">
        <ele>30.28</ele>
        <time>2020-07-10T13:54:50Z</time>
      </trkpt>
      <trkpt lat="47.78442" lon="-3.55104">
        <ele>29.48</ele>
        <time>2020-07-10T13:54:51Z</time>
      </trkpt>
      <trkpt lat="47.7844" lon="-3.55112">
        <ele>28.76</ele>
        <time>2020-07-10T13:54:52Z</time>
      </trkpt>
      <trkpt lat="47.78437" lon="-3.55118">
        <ele>28.21</ele>
        <time>2020-07-10T13:54:53Z</time>
      </trkpt>
      <trkpt lat="47.78435" lon="-3.55124">
        <ele>27.73</ele>
        <time>2020-07-10T13:54:54Z</time>
      </trkpt>
      <trkpt lat="47.78432" lon="-3.55128">
        <ele>27.27</ele>
        <time>2020-07-10T13:54:55Z</time>
      </trkpt>
      <trkpt lat="47.78429" lon="-3.55133">
        <ele>26.79</ele>
        <time>2020-07-10T13:54:56Z</time>
      </trkpt>
      <trkpt lat="47.78426" lon="-3.55136">
        <ele>26.36</ele>
        <time>2020-07-10T13:54:57Z</time>
      </trkpt>
      <trkpt lat="47.78424" lon="-3.55137">
        <ele>25.99</ele>
        <time>2020-07-10T13:54:58Z</time>
      </trkpt>
      <trkpt lat="47.78421" lon="-3.55141">
        <ele>25.42</ele>
        <time>2020-07-10T13:54:59Z</time>
      </trkpt>
      <trkpt lat="47.78417" lon="-3.55145">
        <ele>24.52</ele>
        <time>2020-07-10T13:55:00Z</time>
      </trkpt>
      <trkpt lat="47.78412" lon="-3.55146">
        <ele>24.07</ele>
        <time>2020-07-10T13:55:01Z</time>
      </trkpt>
      <trkpt lat="47.78407" lon="-3.55147">
        <ele>23.76</ele>
        <time>2020-07-10T13:55:02Z</time>
      </trkpt>
      <trkpt lat="47.78401" lon="-3.55147">
        <ele>23.57</ele>
        <time>2020-07-10T13:55:03Z</time>
      </trkpt>
      <trkpt lat="47.78396" lon="-3.55146">
        <ele>23.45</ele>
        <time>2020-07-10T13:55:04Z</time>
      </trkpt>
      <trkpt lat="47.78391" lon="-3.55146">
        <ele>23.38</ele>
        <time>2020-07-10T13:55:05Z</time>
      </trkpt>
      <trkpt lat="47.78386" lon="-3.55146">
        <ele>23.33</ele>
        <time>2020-07-10T13:55:06Z</time>
      </trkpt>
      <trkpt lat="47.7838" lon="-3.55145">
        <ele>23.41</ele>
        <time>2020-07-10T13:55:07Z</time>
      </trkpt>
      <trkpt lat="47.78375" lon="-3.55143">
        <ele>23.54</ele>
        <time>2020-07-10T13:55:08Z</time>
      </trkpt>
      <trkpt lat="47.78368" lon="-3.55144">
        <ele>23.55</ele>
        <time>2020-07-10T13:55:09Z</time>
      </trkpt>
      <trkpt lat="47.78364" lon="-3.55144">
        <ele>23.59</ele>
        <time>2020-07-10T13:55:10Z</time>
      </trkpt>
      <trkpt lat="47.78359" lon="-3.55144">
        <ele>23.59</ele>
        <time>2020-07-10T13:55:11Z</time>
      </trkpt>
      <trkpt lat="47.78355" lon="-3.55144">
        <ele>23.6</ele>
        <time>2020-07-10T13:55:12Z</time>
      </trkpt>
      <trkpt lat="47.78352" lon="-3.55146">
        <ele>23.53</ele>
        <time>2020-07-10T13:55:13Z</time>
      </trkpt>
      <trkpt lat="47.78348" lon="-3.55148">
        <ele>23.41</ele>
        <time>2020-07-10T13:55:14Z</time>
      </trkpt>
      <trkpt lat="47.78344" lon="-3.5515">
        <ele>23.26</ele>
        <time>2020-07-10T13:55:15Z</time>
      </trkpt>
      <trkpt lat="47.7834" lon="-3.55153">
        <ele>23.07</ele>
        <time>2020-07-10T13:55:16Z</time>
      </trkpt>
      <trkpt lat="47.78336" lon="-3.55155">
        <ele>22.91</ele>
        <time>2020-07-10T13:55:17Z</time>
      </trkpt>
      <trkpt lat="47.78332" lon="-3.55157">
        <ele>22.8</ele>
        <time>2020-07-10T13:55:18Z</time>
      </trkpt>
      <trkpt lat="47.78329" lon="-3.5516">
        <ele>22.81</ele>
        <time>2020-07-10T13:55:19Z</time>
      </trkpt>
      <trkpt lat="47.78326" lon="-3.55161">
        <ele>22.88</ele>
        <time>2020-07-10T13:55:20Z</time>
      </trkpt>
      <trkpt lat="47.78322" lon="-3.55164">
        <ele>22.93</ele>
        <time>2020-07-10T13:55:21Z</time>
      </trkpt>
      <trkpt lat="47.78318" lon="-3.55167">
        <ele>23.03</ele>
        <time>2020-07-10T13:55:22Z</time>
      </trkpt>
      <trkpt lat="47.78315" lon="-3.5517">
        <ele>23.27</ele>
        <time>2020-07-10T13:55:23Z</time>
      </trkpt>
      <trkpt lat="47.78312" lon="-3.55173">
        <ele>23.48</ele>
        <time>2020-07-10T13:55:24Z</time>
      </trkpt>
      <trkpt lat="47.78308" lon="-3.55177">
        <ele>23.72</ele>
        <time>2020-07-10T13:55:25Z</time>
      </trkpt>
      <trkpt lat="47.78305" lon="-3.5518">
        <ele>23.92</ele>
        <time>2020-07-10T13:55:26Z</time>
      </trkpt>
      <trkpt lat="47.78301" lon="-3.55183">
        <ele>24.02</ele>
        <time>2020-07-10T13:55:27Z</time>
      </trkpt>
      <trkpt lat="47.78298" lon="-3.55186">
        <ele>24.06</ele>
        <time>2020-07-10T13:55:28Z</time>
      </trkpt>
      <trkpt lat="47.78295" lon="-3.55189">
        <ele>24.07</ele>
        <time>2020-07-10T13:55:29Z</time>
      </trkpt>
      <trkpt lat="47.78291" lon="-3.55193">
        <ele>24.05</ele>
        <time>2020-07-10T13:55:30Z</time>
      </trkpt>
      <trkpt lat="47.78287" lon="-3.55196">
        <ele>24.03</ele>
        <time>2020-07-10T13:55:31Z</time>
      </trkpt>
      <trkpt lat="47.78283" lon="-3.55198">
        <ele>24.09</ele>
        <time>2020-07-10T13:55:32Z</time>
      </trkpt>
      <trkpt lat="47.7828" lon="-3.55202">
        <ele>24.19</ele>
        <time>2020-07-10T13:55:33Z</time>
      </trkpt>
      <trkpt lat="47.78276" lon="-3.55206">
        <ele>24.52</ele>
        <time>2020-07-10T13:55:34Z</time>
      </trkpt>
      <trkpt lat="47.78272" lon="-3.5521">
        <ele>25.06</ele>
        <time>2020-07-10T13:55:35Z</time>
      </trkpt>
      <trkpt lat="47.78268" lon="-3.55214">
        <ele>25.61</ele>
        <time>2020-07-10T13:55:36Z</time>
      </trkpt>
      <trkpt lat="47.78265" lon="-3.55217">
        <ele>26.08</ele>
        <time>2020-07-10T13:55:37Z</time>
      </trkpt>
      <trkpt lat="47.78262" lon="-3.5522">
        <ele>26.47</ele>
        <time>2020-07-10T13:55:38Z</time>
      </trkpt>
      <trkpt lat="47.78259" lon="-3.55224">
        <ele>26.82</ele>
        <time>2020-07-10T13:55:39Z</time>
      </trkpt>
      <trkpt lat="47.78256" lon="-3.55228">
        <ele>27.19</ele>
        <time>2020-07-10T13:55:40Z</time>
      </trkpt>
      <trkpt lat="47.7825" lon="-3.55233">
        <ele>27.73</ele>
        <time>2020-07-10T13:55:41Z</time>
      </trkpt>
      <trkpt lat="47.78246" lon="-3.55236">
        <ele>28.31</ele>
        <time>2020-07-10T13:55:42Z</time>
      </trkpt>
      <trkpt lat="47.78242" lon="-3.5524">
        <ele>28.9</ele>
        <time>2020-07-10T13:55:43Z</time>
      </trkpt>
      <trkpt lat="47.78238" lon="-3.55243">
        <ele>29.45</ele>
        <time>2020-07-10T13:55:44Z</time>
      </trkpt>
      <trkpt lat="47.78235" lon="-3.55245">
        <ele>29.95</ele>
        <time>2020-07-10T13:55:45Z</time>
      </trkpt>
      <trkpt lat="47.78232" lon="-3.55247">
        <ele>30.38</ele>
        <time>2020-07-10T13:55:46Z</time>
      </trkpt>
      <trkpt lat="47.78229" lon="-3.55248">
        <ele>30.78</ele>
        <time>2020-07-10T13:55:47Z</time>
      </trkpt>
      <trkpt lat="47.78226" lon="-3.5525">
        <ele>31.27</ele>
        <time>2020-07-10T13:55:48Z</time>
      </trkpt>
      <trkpt lat="47.78222" lon="-3.55252">
        <ele>31.67</ele>
        <time>2020-07-10T13:55:49Z</time>
      </trkpt>
      <trkpt lat="47.78219" lon="-3.55254">
        <ele>31.83</ele>
        <time>2020-07-10T13:55:50Z</time>
      </trkpt>
      <trkpt lat="47.78216" lon="-3.55256">
        <ele>31.97</ele>
        <time>2020-07-10T13:55:51Z</time>
      </trkpt>
      <trkpt lat="47.78214" lon="-3.55257">
        <ele>32.09</ele>
        <time>2020-07-10T13:55:52Z</time>
      </trkpt>
      <trkpt lat="47.78212" lon="-3.55259">
        <ele>32.18</ele>
        <time>2020-07-10T13:55:53Z</time>
      </trkpt>
      <trkpt lat="47.78209" lon="-3.55261">
        <ele>32.28</ele>
        <time>2020-07-10T13:55:54Z</time>
      </trkpt>
      <trkpt lat="47.78206" lon="-3.55263">
        <ele>32.4</ele>
        <time>2020-07-10T13:55:55Z</time>
      </trkpt>
      <trkpt lat="47.78205" lon="-3.55265">
        <ele>32.5</ele>
        <time>2020-07-10T13:55:56Z</time>
      </trkpt>
      <trkpt lat="47.78202" lon="-3.55268">
        <ele>32.57</ele>
        <time>2020-07-10T13:55:57Z</time>
      </trkpt>
      <trkpt lat="47.78199" lon="-3.5527">
        <ele>32.74</ele>
        <time>2020-07-10T13:55:58Z</time>
      </trkpt>
      <trkpt lat="47.78196" lon="-3.55272">
        <ele>32.92</ele>
        <time>2020-07-10T13:55:59Z</time>
      </trkpt>
      <trkpt lat="47.78193" lon="-3.55275">
        <ele>33.11</ele>
        <time>2020-07-10T13:56:00Z</time>
      </trkpt>
      <trkpt lat="47.7819" lon="-3.55279">
        <ele>33.22</ele>
        <time>2020-07-10T13:56:01Z</time>
      </trkpt>
      <trkpt lat="47.78188" lon="-3.55282">
        <ele>33.32</ele>
        <time>2020-07-10T13:56:02Z</time>
      </trkpt>
      <trkpt lat="47.78184" lon="-3.55284">
        <ele>33.44</ele>
        <time>2020-07-10T13:56:03Z</time>
      </trkpt>
      <trkpt lat="47.78181" lon="-3.55287">
        <ele>33.57</ele>
        <time>2020-07-10T13:56:04Z</time>
      </trkpt>
      <trkpt lat="47.78178" lon="-3.55289">
        <ele>33.73</ele>
        <time>2020-07-10T13:56:05Z</time>
      </trkpt>
      <trkpt lat="47.78174" lon="-3.5529">
        <ele>33.95</ele>
        <time>2020-07-10T13:56:06Z</time>
      </trkpt>
      <trkpt lat="47.7817" lon="-3.55291">
        <ele>34.18</ele>
        <time>2020-07-10T13:56:07Z</time>
      </trkpt>
      <trkpt lat="47.78166" lon="-3.55291">
        <ele>34.44</ele>
        <time>2020-07-10T13:56:08Z</time>
      </trkpt>
      <trkpt lat="47.78163" lon="-3.55291">
        <ele>34.68</ele>
        <time>2020-07-10T13:56:09Z</time>
      </trkpt>
      <trkpt lat="47.7816" lon="-3.55292">
        <ele>34.87</ele>
        <time>2020-07-10T13:56:10Z</time>
      </trkpt>
      <trkpt lat="47.78157" lon="-3.55292">
        <ele>35.06</ele>
        <time>2020-07-10T13:56:11Z</time>
      </trkpt>
      <trkpt lat="47.78154" lon="-3.55293">
        <ele>35.26</ele>
        <time>2020-07-10T13:56:12Z</time>
      </trkpt>
      <trkpt lat="47.78151" lon="-3.55294">
        <ele>35.44</ele>
        <time>2020-07-10T13:56:13Z</time>
      </trkpt>
      <trkpt lat="47.78149" lon="-3.55295">
        <ele>35.61</ele>
        <time>2020-07-10T13:56:14Z</time>
      </trkpt>
      <trkpt lat="47.78146" lon="-3.55296">
        <ele>35.78</ele>
        <time>2020-07-10T13:56:15Z</time>
      </trkpt>
      <trkpt lat="47.78143" lon="-3.55298">
        <ele>35.91</ele>
        <time>2020-07-10T13:56:16Z</time>
      </trkpt>
      <trkpt lat="47.78141" lon="-3.55298">
        <ele>36.04</ele>
        <time>2020-07-10T13:56:17Z</time>
      </trkpt>
      <trkpt lat="47.78139" lon="-3.55299">
        <ele>36.17</ele>
        <time>2020-07-10T13:56:18Z</time>
      </trkpt>
      <trkpt lat="47.78137" lon="-3.55301">
        <ele>36.22</ele>
        <time>2020-07-10T13:56:19Z</time>
      </trkpt>
      <trkpt lat="47.78134" lon="-3.55302">
        <ele>36.27</ele>
        <time>2020-07-10T13:56:20Z</time>
      </trkpt>
      <trkpt lat="47.78132" lon="-3.55304">
        <ele>36.31</ele>
        <time>2020-07-10T13:56:21Z</time>
      </trkpt>
      <trkpt lat="47.78129" lon="-3.55305">
        <ele>36.35</ele>
        <time>2020-07-10T13:56:22Z</time>
      </trkpt>
      <trkpt lat="47.78126" lon="-3.55307">
        <ele>36.42</ele>
        <time>2020-07-10T13:56:23Z</time>
      </trkpt>
      <trkpt lat="47.78124" lon="-3.55309">
        <ele>36.51</ele>
        <time>2020-07-10T13:56:24Z</time>
      </trkpt>
      <trkpt lat="47.78121" lon="-3.55311">
        <ele>36.6</ele>
        <time>2020-07-10T13:56:25Z</time>
      </trkpt>
      <trkpt lat="47.78118" lon="-3.55312">
        <ele>36.7</ele>
        <time>2020-07-10T13:56:26Z</time>
      </trkpt>
      <trkpt lat="47.78115" lon="-3.55314">
        <ele>36.81</ele>
        <time>2020-07-10T13:56:27Z</time>
      </trkpt>
      <trkpt lat="47.78112" lon="-3.55315">
        <ele>36.93</ele>
        <time>2020-07-10T13:56:28Z</time>
      </trkpt>
      <trkpt lat="47.78109" lon="-3.55315">
        <ele>37.04</ele>
        <time>2020-07-10T13:56:29Z</time>
      </trkpt>
      <trkpt lat="47.78106" lon="-3.55316">
        <ele>37.14</ele>
        <time>2020-07-10T13:56:30Z</time>
      </trkpt>
      <trkpt lat="47.78103" lon="-3.55317">
        <ele>37.25</ele>
        <time>2020-07-10T13:56:31Z</time>
      </trkpt>
      <trkpt lat="47.781" lon="-3.55319">
        <ele>37.37</ele>
        <time>2020-07-10T13:56:32Z</time>
      </trkpt>
      <trkpt lat="47.78095" lon="-3.55321">
        <ele>37.5</ele>
        <time>2020-07-10T13:56:33Z</time>
      </trkpt>
      <trkpt lat="47.78093" lon="-3.55322">
        <ele>37.62</ele>
        <time>2020-07-10T13:56:34Z</time>
      </trkpt>
      <trkpt lat="47.78089" lon="-3.55323">
        <ele>37.74</ele>
        <time>2020-07-10T13:56:35Z</time>
      </trkpt>
      <trkpt lat="47.78085" lon="-3.55324">
        <ele>37.88</ele>
        <time>2020-07-10T13:56:36Z</time>
      </trkpt>
      <trkpt lat="47.78081" lon="-3.55325">
        <ele>38.07</ele>
        <time>2020-07-10T13:56:37Z</time>
      </trkpt>
      <trkpt lat="47.78078" lon="-3.55325">
        <ele>38.31</ele>
        <time>2020-07-10T13:56:38Z</time>
      </trkpt>
      <trkpt lat="47.78074" lon="-3.55326">
        <ele>38.59</ele>
        <time>2020-07-10T13:56:39Z</time>
      </trkpt>
      <trkpt lat="47.78069" lon="-3.55327">
        <ele>38.89</ele>
        <time>2020-07-10T13:56:40Z</time>
      </trkpt>
      <trkpt lat="47.78065" lon="-3.55328">
        <ele>39.21</ele>
        <time>2020-07-10T13:56:41Z</time>
      </trkpt>
      <trkpt lat="47.78061" lon="-3.55329">
        <ele>39.5</ele>
        <time>2020-07-10T13:56:42Z</time>
      </trkpt>
      <trkpt lat="47.78057" lon="-3.5533">
        <ele>39.77</ele>
        <time>2020-07-10T13:56:43Z</time>
      </trkpt>
      <trkpt lat="47.78054" lon="-3.55331">
        <ele>39.97</ele>
        <time>2020-07-10T13:56:44Z</time>
      </trkpt>
      <trkpt lat="47.78049" lon="-3.55332">
        <ele>40.14</ele>
        <time>2020-07-10T13:56:45Z</time>
      </trkpt>
      <trkpt lat="47.78044" lon="-3.55333">
        <ele>40.32</ele>
        <time>2020-07-10T13:56:46Z</time>
      </trkpt>
      <trkpt lat="47.7804" lon="-3.55333">
        <ele>40.49</ele>
        <time>2020-07-10T13:56:47Z</time>
      </trkpt>
      <trkpt lat="47.78035" lon="-3.55333">
        <ele>40.66</ele>
        <time>2020-07-10T13:56:48Z</time>
      </trkpt>
      <trkpt lat="47.78031" lon="-3.55333">
        <ele>40.81</ele>
        <time>2020-07-10T13:56:49Z</time>
      </trkpt>
      <trkpt lat="47.78027" lon="-3.55332">
        <ele>40.91</ele>
        <time>2020-07-10T13:56:50Z</time>
      </trkpt>
      <trkpt lat="47.78024" lon="-3.55332">
        <ele>40.85</ele>
        <time>2020-07-10T13:56:51Z</time>
      </trkpt>
      <trkpt lat="47.7802" lon="-3.55332">
        <ele>40.73</ele>
        <time>2020-07-10T13:56:52Z</time>
      </trkpt>
      <trkpt lat="47.78017" lon="-3.55332">
        <ele>40.62</ele>
        <time>2020-07-10T13:56:53Z</time>
      </trkpt>
      <trkpt lat="47.78014" lon="-3.55332">
        <ele>40.52</ele>
        <time>2020-07-10T13:56:54Z</time>
      </trkpt>
      <trkpt lat="47.78011" lon="-3.55332">
        <ele>40.43</ele>
        <time>2020-07-10T13:56:55Z</time>
      </trkpt>
      <trkpt lat="47.78009" lon="-3.55332">
        <ele>40.34</ele>
        <time>2020-07-10T13:56:56Z</time>
      </trkpt>
      <trkpt lat="47.78007" lon="-3.55332">
        <ele>40.26</ele>
        <time>2020-07-10T13:56:57Z</time>
      </trkpt>
      <trkpt lat="47.78003" lon="-3.55332">
        <ele>40.16</ele>
        <time>2020-07-10T13:56:58Z</time>
      </trkpt>
      <trkpt lat="47.78" lon="-3.55332">
        <ele>40.04</ele>
        <time>2020-07-10T13:56:59Z</time>
      </trkpt>
      <trkpt lat="47.77995" lon="-3.55331">
        <ele>39.9</ele>
        <time>2020-07-10T13:57:00Z</time>
      </trkpt>
      <trkpt lat="47.77991" lon="-3.55331">
        <ele>39.73</ele>
        <time>2020-07-10T13:57:01Z</time>
      </trkpt>
      <trkpt lat="47.77986" lon="-3.55331">
        <ele>39.56</ele>
        <time>2020-07-10T13:57:02Z</time>
      </trkpt>
      <trkpt lat="47.77981" lon="-3.55331">
        <ele>39.38</ele>
        <time>2020-07-10T13:57:03Z</time>
      </trkpt>
      <trkpt lat="47.77976" lon="-3.5533">
        <ele>39.2</ele>
        <time>2020-07-10T13:57:04Z</time>
      </trkpt>
      <trkpt lat="47.77971" lon="-3.5533">
        <ele>39.06</ele>
        <time>2020-07-10T13:57:05Z</time>
      </trkpt>
      <trkpt lat="47.77966" lon="-3.5533">
        <ele>39.02</ele>
        <time>2020-07-10T13:57:06Z</time>
      </trkpt>
      <trkpt lat="47.77962" lon="-3.5533">
        <ele>39.01</ele>
        <time>2020-07-10T13:57:07Z</time>
      </trkpt>
      <trkpt lat="47.77957" lon="-3.5533">
        <ele>39</ele>
        <time>2020-07-10T13:57:08Z</time>
      </trkpt>
      <trkpt lat="47.77953" lon="-3.55329">
        <ele>39</ele>
        <time>2020-07-10T13:57:09Z</time>
      </trkpt>
      <trkpt lat="47.77948" lon="-3.55328">
        <ele>39</ele>
        <time>2020-07-10T13:57:10Z</time>
      </trkpt>
      <trkpt lat="47.77943" lon="-3.55327">
        <ele>39</ele>
        <time>2020-07-10T13:57:11Z</time>
      </trkpt>
      <trkpt lat="47.77939" lon="-3.55327">
        <ele>39</ele>
        <time>2020-07-10T13:57:12Z</time>
      </trkpt>
      <trkpt lat="47.77933" lon="-3.55327">
        <ele>39</ele>
        <time>2020-07-10T13:57:13Z</time>
      </trkpt>
      <trkpt lat="47.77928" lon="-3.55326">
        <ele>39</ele>
        <time>2020-07-10T13:57:14Z</time>
      </trkpt>
      <trkpt lat="47.77923" lon="-3.55326">
        <ele>39</ele>
        <time>2020-07-10T13:57:15Z</time>
      </trkpt>
      <trkpt lat="47.77918" lon="-3.55326">
        <ele>39</ele>
        <time>2020-07-10T13:57:16Z</time>
      </trkpt>
      <trkpt lat="47.77913" lon="-3.55327">
        <ele>38.9</ele>
        <time>2020-07-10T13:57:17Z</time>
      </trkpt>
      <trkpt lat="47.77907" lon="-3.55329">
        <ele>38.73</ele>
        <time>2020-07-10T13:57:18Z</time>
      </trkpt>
      <trkpt lat="47.77902" lon="-3.5533">
        <ele>38.56</ele>
        <time>2020-07-10T13:57:19Z</time>
      </trkpt>
      <trkpt lat="47.77897" lon="-3.55331">
        <ele>38.37</ele>
        <time>2020-07-10T13:57:20Z</time>
      </trkpt>
      <trkpt lat="47.77891" lon="-3.55331">
        <ele>38.18</ele>
        <time>2020-07-10T13:57:21Z</time>
      </trkpt>
      <trkpt lat="47.77886" lon="-3.55332">
        <ele>38.05</ele>
        <time>2020-07-10T13:57:22Z</time>
      </trkpt>
      <trkpt lat="47.7788" lon="-3.55333">
        <ele>38.02</ele>
        <time>2020-07-10T13:57:23Z</time>
      </trkpt>
      <trkpt lat="47.77874" lon="-3.55334">
        <ele>38.01</ele>
        <time>2020-07-10T13:57:24Z</time>
      </trkpt>
      <trkpt lat="47.77867" lon="-3.55334">
        <ele>38</ele>
        <time>2020-07-10T13:57:25Z</time>
      </trkpt>
      <trkpt lat="47.77861" lon="-3.55333">
        <ele>38</ele>
        <time>2020-07-10T13:57:26Z</time>
      </trkpt>
      <trkpt lat="47.77855" lon="-3.55333">
        <ele>37.85</ele>
        <time>2020-07-10T13:57:27Z</time>
      </trkpt>
      <trkpt lat="47.7785" lon="-3.55333">
        <ele>37.67</ele>
        <time>2020-07-10T13:57:28Z</time>
      </trkpt>
      <trkpt lat="47.77844" lon="-3.55333">
        <ele>37.47</ele>
        <time>2020-07-10T13:57:29Z</time>
      </trkpt>
      <trkpt lat="47.77838" lon="-3.55333">
        <ele>37.27</ele>
        <time>2020-07-10T13:57:30Z</time>
      </trkpt>
      <trkpt lat="47.77832" lon="-3.55332">
        <ele>37.11</ele>
        <time>2020-07-10T13:57:31Z</time>
      </trkpt>
      <trkpt lat="47.77826" lon="-3.55332">
        <ele>37.06</ele>
        <time>2020-07-10T13:57:32Z</time>
      </trkpt>
      <trkpt lat="47.77821" lon="-3.55333">
        <ele>37.03</ele>
        <time>2020-07-10T13:57:33Z</time>
      </trkpt>
      <trkpt lat="47.77816" lon="-3.55333">
        <ele>37.02</ele>
        <time>2020-07-10T13:57:34Z</time>
      </trkpt>
      <trkpt lat="47.77811" lon="-3.55333">
        <ele>37.02</ele>
        <time>2020-07-10T13:57:35Z</time>
      </trkpt>
      <trkpt lat="47.77806" lon="-3.55333">
        <ele>37.02</ele>
        <time>2020-07-10T13:57:36Z</time>
      </trkpt>
      <trkpt lat="47.77801" lon="-3.55331">
        <ele>37.07</ele>
        <time>2020-07-10T13:57:37Z</time>
      </trkpt>
      <trkpt lat="47.77798" lon="-3.55327">
        <ele>37.18</ele>
        <time>2020-07-10T13:57:38Z</time>
      </trkpt>
      <trkpt lat="47.77796" lon="-3.55322">
        <ele>37.33</ele>
        <time>2020-07-10T13:57:39Z</time>
      </trkpt>
      <trkpt lat="47.77793" lon="-3.55318">
        <ele>37.49</ele>
        <time>2020-07-10T13:57:40Z</time>
      </trkpt>
      <trkpt lat="47.7779" lon="-3.55315">
        <ele>37.6</ele>
        <time>2020-07-10T13:57:41Z</time>
      </trkpt>
      <trkpt lat="47.77786" lon="-3.55315">
        <ele>37.63</ele>
        <time>2020-07-10T13:57:42Z</time>
      </trkpt>
      <trkpt lat="47.77781" lon="-3.55316">
        <ele>37.62</ele>
        <time>2020-07-10T13:57:43Z</time>
      </trkpt>
      <trkpt lat="47.77777" lon="-3.55318">
        <ele>37.58</ele>
        <time>2020-07-10T13:57:44Z</time>
      </trkpt>
      <trkpt lat="47.77773" lon="-3.55318">
        <ele>37.55</ele>
        <time>2020-07-10T13:57:45Z</time>
      </trkpt>
      <trkpt lat="47.7777" lon="-3.5532">
        <ele>37.5</ele>
        <time>2020-07-10T13:57:46Z</time>
      </trkpt>
      <trkpt lat="47.77766" lon="-3.55321">
        <ele>37.46</ele>
        <time>2020-07-10T13:57:47Z</time>
      </trkpt>
      <trkpt lat="47.77763" lon="-3.55323">
        <ele>37.41</ele>
        <time>2020-07-10T13:57:48Z</time>
      </trkpt>
      <trkpt lat="47.77758" lon="-3.55327">
        <ele>37.29</ele>
        <time>2020-07-10T13:57:49Z</time>
      </trkpt>
      <trkpt lat="47.77754" lon="-3.5533">
        <ele>37.18</ele>
        <time>2020-07-10T13:57:50Z</time>
      </trkpt>
      <trkpt lat="47.77751" lon="-3.55333">
        <ele>37.06</ele>
        <time>2020-07-10T13:57:51Z</time>
      </trkpt>
      <trkpt lat="47.77748" lon="-3.55337">
        <ele>36.93</ele>
        <time>2020-07-10T13:57:52Z</time>
      </trkpt>
      <trkpt lat="47.77745" lon="-3.55341">
        <ele>36.78</ele>
        <time>2020-07-10T13:57:53Z</time>
      </trkpt>
      <trkpt lat="47.77741" lon="-3.55344">
        <ele>36.66</ele>
        <time>2020-07-10T13:57:54Z</time>
      </trkpt>
      <trkpt lat="47.77736" lon="-3.55347">
        <ele>36.55</ele>
        <time>2020-07-10T13:57:55Z</time>
      </trkpt>
      <trkpt lat="47.77728" lon="-3.5535">
        <ele>36.45</ele>
        <time>2020-07-10T13:57:56Z</time>
      </trkpt>
      <trkpt lat="47.77721" lon="-3.55351">
        <ele>36.35</ele>
        <time>2020-07-10T13:57:57Z</time>
      </trkpt>
      <trkpt lat="47.77715" lon="-3.55353">
        <ele>36.13</ele>
        <time>2020-07-10T13:57:58Z</time>
      </trkpt>
      <trkpt lat="47.77709" lon="-3.55353">
        <ele>35.91</ele>
        <time>2020-07-10T13:57:59Z</time>
      </trkpt>
      <trkpt lat="47.77704" lon="-3.55353">
        <ele>35.71</ele>
        <time>2020-07-10T13:58:00Z</time>
      </trkpt>
      <trkpt lat="47.77698" lon="-3.55353">
        <ele>35.52</ele>
        <time>2020-07-10T13:58:01Z</time>
      </trkpt>
      <trkpt lat="47.77693" lon="-3.55353">
        <ele>35.38</ele>
        <time>2020-07-10T13:58:02Z</time>
      </trkpt>
      <trkpt lat="47.77688" lon="-3.55353">
        <ele>35.42</ele>
        <time>2020-07-10T13:58:03Z</time>
      </trkpt>
      <trkpt lat="47.77684" lon="-3.55355">
        <ele>35.5</ele>
        <time>2020-07-10T13:58:04Z</time>
      </trkpt>
      <trkpt lat="47.77679" lon="-3.55355">
        <ele>35.6</ele>
        <time>2020-07-10T13:58:05Z</time>
      </trkpt>
      <trkpt lat="47.77676" lon="-3.55355">
        <ele>35.7</ele>
        <time>2020-07-10T13:58:06Z</time>
      </trkpt>
      <trkpt lat="47.77672" lon="-3.55355">
        <ele>35.81</ele>
        <time>2020-07-10T13:58:07Z</time>
      </trkpt>
      <trkpt lat="47.77668" lon="-3.55354">
        <ele>35.92</ele>
        <time>2020-07-10T13:58:08Z</time>
      </trkpt>
      <trkpt lat="47.77664" lon="-3.55354">
        <ele>36.06</ele>
        <time>2020-07-10T13:58:09Z</time>
      </trkpt>
      <trkpt lat="47.77659" lon="-3.55353">
        <ele>36.22</ele>
        <time>2020-07-10T13:58:10Z</time>
      </trkpt>
      <trkpt lat="47.77654" lon="-3.55353">
        <ele>36.39</ele>
        <time>2020-07-10T13:58:11Z</time>
      </trkpt>
      <trkpt lat="47.7765" lon="-3.55353">
        <ele>36.55</ele>
        <time>2020-07-10T13:58:12Z</time>
      </trkpt>
      <trkpt lat="47.77645" lon="-3.55355">
        <ele>36.7</ele>
        <time>2020-07-10T13:58:13Z</time>
      </trkpt>
      <trkpt lat="47.77641" lon="-3.55357">
        <ele>36.85</ele>
        <time>2020-07-10T13:58:14Z</time>
      </trkpt>
      <trkpt lat="47.77637" lon="-3.55359">
        <ele>36.96</ele>
        <time>2020-07-10T13:58:15Z</time>
      </trkpt>
      <trkpt lat="47.77634" lon="-3.55361">
        <ele>36.99</ele>
        <time>2020-07-10T13:58:16Z</time>
      </trkpt>
      <trkpt lat="47.7763" lon="-3.55362">
        <ele>36.97</ele>
        <time>2020-07-10T13:58:17Z</time>
      </trkpt>
      <trkpt lat="47.77626" lon="-3.55363">
        <ele>36.93</ele>
        <time>2020-07-10T13:58:18Z</time>
      </trkpt>
      <trkpt lat="47.77621" lon="-3.55364">
        <ele>36.9</ele>
        <time>2020-07-10T13:58:19Z</time>
      </trkpt>
      <trkpt lat="47.77617" lon="-3.55366">
        <ele>36.86</ele>
        <time>2020-07-10T13:58:20Z</time>
      </trkpt>
      <trkpt lat="47.77612" lon="-3.55367">
        <ele>36.82</ele>
        <time>2020-07-10T13:58:21Z</time>
      </trkpt>
      <trkpt lat="47.77608" lon="-3.55368">
        <ele>36.86</ele>
        <time>2020-07-10T13:58:22Z</time>
      </trkpt>
      <trkpt lat="47.77604" lon="-3.55368">
        <ele>36.95</ele>
        <time>2020-07-10T13:58:23Z</time>
      </trkpt>
      <trkpt lat="47.77599" lon="-3.5537">
        <ele>37.07</ele>
        <time>2020-07-10T13:58:24Z</time>
      </trkpt>
      <trkpt lat="47.77595" lon="-3.55371">
        <ele>37.18</ele>
        <time>2020-07-10T13:58:25Z</time>
      </trkpt>
      <trkpt lat="47.7759" lon="-3.55372">
        <ele>37.32</ele>
        <time>2020-07-10T13:58:26Z</time>
      </trkpt>
      <trkpt lat="47.77585" lon="-3.55372">
        <ele>37.48</ele>
        <time>2020-07-10T13:58:27Z</time>
      </trkpt>
      <trkpt lat="47.7758" lon="-3.55373">
        <ele>37.68</ele>
        <time>2020-07-10T13:58:28Z</time>
      </trkpt>
      <trkpt lat="47.77574" lon="-3.55373">
        <ele>37.93</ele>
        <time>2020-07-10T13:58:29Z</time>
      </trkpt>
      <trkpt lat="47.77569" lon="-3.55373">
        <ele>38.19</ele>
        <time>2020-07-10T13:58:30Z</time>
      </trkpt>
      <trkpt lat="47.77564" lon="-3.55373">
        <ele>38.44</ele>
        <time>2020-07-10T13:58:31Z</time>
      </trkpt>
      <trkpt lat="47.77559" lon="-3.55374">
        <ele>38.72</ele>
        <time>2020-07-10T13:58:32Z</time>
      </trkpt>
      <trkpt lat="47.77553" lon="-3.55375">
        <ele>38.86</ele>
        <time>2020-07-10T13:58:33Z</time>
      </trkpt>
      <trkpt lat="47.77548" lon="-3.55376">
        <ele>38.76</ele>
        <time>2020-07-10T13:58:34Z</time>
      </trkpt>
      <trkpt lat="47.77542" lon="-3.55378">
        <ele>38.6</ele>
        <time>2020-07-10T13:58:35Z</time>
      </trkpt>
      <trkpt lat="47.77538" lon="-3.55379">
        <ele>38.43</ele>
        <time>2020-07-10T13:58:36Z</time>
      </trkpt>
      <trkpt lat="47.77533" lon="-3.55381">
        <ele>38.25</ele>
        <time>2020-07-10T13:58:37Z</time>
      </trkpt>
      <trkpt lat="47.77528" lon="-3.55382">
        <ele>38.07</ele>
        <time>2020-07-10T13:58:38Z</time>
      </trkpt>
      <trkpt lat="47.77523" lon="-3.55383">
        <ele>37.9</ele>
        <time>2020-07-10T13:58:39Z</time>
      </trkpt>
      <trkpt lat="47.77518" lon="-3.55382">
        <ele>37.72</ele>
        <time>2020-07-10T13:58:40Z</time>
      </trkpt>
      <trkpt lat="47.77512" lon="-3.5538">
        <ele>37.51</ele>
        <time>2020-07-10T13:58:41Z</time>
      </trkpt>
      <trkpt lat="47.77506" lon="-3.55377">
        <ele>37.32</ele>
        <time>2020-07-10T13:58:42Z</time>
      </trkpt>
      <trkpt lat="47.77502" lon="-3.55373">
        <ele>37.14</ele>
        <time>2020-07-10T13:58:43Z</time>
      </trkpt>
      <trkpt lat="47.77497" lon="-3.55369">
        <ele>37.1</ele>
        <time>2020-07-10T13:58:44Z</time>
      </trkpt>
      <trkpt lat="47.77492" lon="-3.55365">
        <ele>37.2</ele>
        <time>2020-07-10T13:58:45Z</time>
      </trkpt>
      <trkpt lat="47.77488" lon="-3.5536">
        <ele>37.38</ele>
        <time>2020-07-10T13:58:46Z</time>
      </trkpt>
      <trkpt lat="47.77483" lon="-3.55356">
        <ele>37.6</ele>
        <time>2020-07-10T13:58:47Z</time>
      </trkpt>
      <trkpt lat="47.77478" lon="-3.55352">
        <ele>37.78</ele>
        <time>2020-07-10T13:58:48Z</time>
      </trkpt>
      <trkpt lat="47.77473" lon="-3.55347">
        <ele>37.92</ele>
        <time>2020-07-10T13:58:49Z</time>
      </trkpt>
      <trkpt lat="47.77469" lon="-3.55343">
        <ele>37.95</ele>
        <time>2020-07-10T13:58:50Z</time>
      </trkpt>
      <trkpt lat="47.77464" lon="-3.55338">
        <ele>37.95</ele>
        <time>2020-07-10T13:58:51Z</time>
      </trkpt>
      <trkpt lat="47.7746" lon="-3.55333">
        <ele>37.99</ele>
        <time>2020-07-10T13:58:52Z</time>
      </trkpt>
      <trkpt lat="47.77455" lon="-3.55328">
        <ele>38</ele>
        <time>2020-07-10T13:58:53Z</time>
      </trkpt>
      <trkpt lat="47.7745" lon="-3.55324">
        <ele>38</ele>
        <time>2020-07-10T13:58:54Z</time>
      </trkpt>
      <trkpt lat="47.77445" lon="-3.5532">
        <ele>38</ele>
        <time>2020-07-10T13:58:55Z</time>
      </trkpt>
      <trkpt lat="47.77441" lon="-3.55316">
        <ele>38.06</ele>
        <time>2020-07-10T13:58:56Z</time>
      </trkpt>
      <trkpt lat="47.77436" lon="-3.55311">
        <ele>38.18</ele>
        <time>2020-07-10T13:58:57Z</time>
      </trkpt>
      <trkpt lat="47.77432" lon="-3.55307">
        <ele>38.35</ele>
        <time>2020-07-10T13:58:58Z</time>
      </trkpt>
      <trkpt lat="47.77428" lon="-3.55302">
        <ele>38.56</ele>
        <time>2020-07-10T13:58:59Z</time>
      </trkpt>
      <trkpt lat="47.77423" lon="-3.55298">
        <ele>38.76</ele>
        <time>2020-07-10T13:59:00Z</time>
      </trkpt>
      <trkpt lat="47.77418" lon="-3.55293">
        <ele>38.9</ele>
        <time>2020-07-10T13:59:01Z</time>
      </trkpt>
      <trkpt lat="47.77414" lon="-3.55288">
        <ele>38.99</ele>
        <time>2020-07-10T13:59:02Z</time>
      </trkpt>
      <trkpt lat="47.7741" lon="-3.55284">
        <ele>39.03</ele>
        <time>2020-07-10T13:59:03Z</time>
      </trkpt>
      <trkpt lat="47.77405" lon="-3.55279">
        <ele>39.02</ele>
        <time>2020-07-10T13:59:04Z</time>
      </trkpt>
      <trkpt lat="47.77401" lon="-3.55275">
        <ele>38.95</ele>
        <time>2020-07-10T13:59:05Z</time>
      </trkpt>
      <trkpt lat="47.77395" lon="-3.55271">
        <ele>38.81</ele>
        <time>2020-07-10T13:59:06Z</time>
      </trkpt>
      <trkpt lat="47.77391" lon="-3.55267">
        <ele>38.66</ele>
        <time>2020-07-10T13:59:07Z</time>
      </trkpt>
      <trkpt lat="47.77386" lon="-3.55262">
        <ele>38.55</ele>
        <time>2020-07-10T13:59:08Z</time>
      </trkpt>
      <trkpt lat="47.77381" lon="-3.55258">
        <ele>38.51</ele>
        <time>2020-07-10T13:59:09Z</time>
      </trkpt>
      <trkpt lat="47.77376" lon="-3.55254">
        <ele>38.53</ele>
        <time>2020-07-10T13:59:10Z</time>
      </trkpt>
      <trkpt lat="47.77371" lon="-3.55251">
        <ele>38.61</ele>
        <time>2020-07-10T13:59:11Z</time>
      </trkpt>
      <trkpt lat="47.77367" lon="-3.55246">
        <ele>38.66</ele>
        <time>2020-07-10T13:59:12Z</time>
      </trkpt>
      <trkpt lat="47.77362" lon="-3.55242">
        <ele>38.67</ele>
        <time>2020-07-10T13:59:13Z</time>
      </trkpt>
      <trkpt lat="47.77358" lon="-3.55238">
        <ele>38.62</ele>
        <time>2020-07-10T13:59:14Z</time>
      </trkpt>
      <trkpt lat="47.77353" lon="-3.55234">
        <ele>38.59</ele>
        <time>2020-07-10T13:59:15Z</time>
      </trkpt>
      <trkpt lat="47.77349" lon="-3.5523">
        <ele>38.6</ele>
        <time>2020-07-10T13:59:16Z</time>
      </trkpt>
      <trkpt lat="47.77344" lon="-3.55226">
        <ele>38.66</ele>
        <time>2020-07-10T13:59:17Z</time>
      </trkpt>
      <trkpt lat="47.77339" lon="-3.55223">
        <ele>38.75</ele>
        <time>2020-07-10T13:59:18Z</time>
      </trkpt>
      <trkpt lat="47.77335" lon="-3.55219">
        <ele>38.81</ele>
        <time>2020-07-10T13:59:19Z</time>
      </trkpt>
      <trkpt lat="47.77331" lon="-3.55215">
        <ele>38.77</ele>
        <time>2020-07-10T13:59:20Z</time>
      </trkpt>
      <trkpt lat="47.77325" lon="-3.55208">
        <ele>38.58</ele>
        <time>2020-07-10T13:59:22Z</time>
      </trkpt>
      <trkpt lat="47.77322" lon="-3.55206">
        <ele>38.48</ele>
        <time>2020-07-10T13:59:23Z</time>
      </trkpt>
      <trkpt lat="47.77318" lon="-3.55205">
        <ele>38.4</ele>
        <time>2020-07-10T13:59:24Z</time>
      </trkpt>
      <trkpt lat="47.77314" lon="-3.55202">
        <ele>38.31</ele>
        <time>2020-07-10T13:59:25Z</time>
      </trkpt>
      <trkpt lat="47.77312" lon="-3.552">
        <ele>38.23</ele>
        <time>2020-07-10T13:59:26Z</time>
      </trkpt>
      <trkpt lat="47.77308" lon="-3.55198">
        <ele>38.16</ele>
        <time>2020-07-10T13:59:27Z</time>
      </trkpt>
      <trkpt lat="47.77304" lon="-3.55196">
        <ele>38.1</ele>
        <time>2020-07-10T13:59:28Z</time>
      </trkpt>
      <trkpt lat="47.773" lon="-3.55193">
        <ele>38.02</ele>
        <time>2020-07-10T13:59:29Z</time>
      </trkpt>
      <trkpt lat="47.77296" lon="-3.55191">
        <ele>37.98</ele>
        <time>2020-07-10T13:59:30Z</time>
      </trkpt>
      <trkpt lat="47.77293" lon="-3.55189">
        <ele>37.92</ele>
        <time>2020-07-10T13:59:31Z</time>
      </trkpt>
      <trkpt lat="47.77288" lon="-3.55187">
        <ele>37.86</ele>
        <time>2020-07-10T13:59:32Z</time>
      </trkpt>
      <trkpt lat="47.77284" lon="-3.55185">
        <ele>37.78</ele>
        <time>2020-07-10T13:59:33Z</time>
      </trkpt>
      <trkpt lat="47.77282" lon="-3.55182">
        <ele>37.65</ele>
        <time>2020-07-10T13:59:34Z</time>
      </trkpt>
      <trkpt lat="47.77281" lon="-3.55177">
        <ele>37.52</ele>
        <time>2020-07-10T13:59:35Z</time>
      </trkpt>
      <trkpt lat="47.77281" lon="-3.55172">
        <ele>37.35</ele>
        <time>2020-07-10T13:59:36Z</time>
      </trkpt>
      <trkpt lat="47.77281" lon="-3.55166">
        <ele>37.19</ele>
        <time>2020-07-10T13:59:37Z</time>
      </trkpt>
      <trkpt lat="47.77282" lon="-3.5516">
        <ele>37.13</ele>
        <time>2020-07-10T13:59:38Z</time>
      </trkpt>
      <trkpt lat="47.77282" lon="-3.55154">
        <ele>37.09</ele>
        <time>2020-07-10T13:59:39Z</time>
      </trkpt>
      <trkpt lat="47.77281" lon="-3.55147">
        <ele>37.05</ele>
        <time>2020-07-10T13:59:40Z</time>
      </trkpt>
      <trkpt lat="47.7728" lon="-3.5514">
        <ele>37.02</ele>
        <time>2020-07-10T13:59:41Z</time>
      </trkpt>
      <trkpt lat="47.7728" lon="-3.55132">
        <ele>36.82</ele>
        <time>2020-07-10T13:59:42Z</time>
      </trkpt>
      <trkpt lat="47.77281" lon="-3.55123">
        <ele>36.5</ele>
        <time>2020-07-10T13:59:43Z</time>
      </trkpt>
      <trkpt lat="47.77281" lon="-3.55115">
        <ele>36.17</ele>
        <time>2020-07-10T13:59:44Z</time>
      </trkpt>
      <trkpt lat="47.77281" lon="-3.55107">
        <ele>35.76</ele>
        <time>2020-07-10T13:59:45Z</time>
      </trkpt>
      <trkpt lat="47.77282" lon="-3.55099">
        <ele>35.25</ele>
        <time>2020-07-10T13:59:46Z</time>
      </trkpt>
      <trkpt lat="47.77283" lon="-3.55092">
        <ele>34.78</ele>
        <time>2020-07-10T13:59:47Z</time>
      </trkpt>
      <trkpt lat="47.77283" lon="-3.55087">
        <ele>34.4</ele>
        <time>2020-07-10T13:59:48Z</time>
      </trkpt>
      <trkpt lat="47.77283" lon="-3.55084">
        <ele>34.17</ele>
        <time>2020-07-10T13:59:49Z</time>
      </trkpt>
      <trkpt lat="47.77281" lon="-3.55084">
        <ele>34.07</ele>
        <time>2020-07-10T13:59:50Z</time>
      </trkpt>
      <trkpt lat="47.77279" lon="-3.55085">
        <ele>34.09</ele>
        <time>2020-07-10T13:59:51Z</time>
      </trkpt>
      <trkpt lat="47.77277" lon="-3.55087">
        <ele>34.22</ele>
        <time>2020-07-10T13:59:52Z</time>
      </trkpt>
      <trkpt lat="47.77276" lon="-3.55091">
        <ele>34.46</ele>
        <time>2020-07-10T13:59:53Z</time>
      </trkpt>
      <trkpt lat="47.77276" lon="-3.55096">
        <ele>34.74</ele>
        <time>2020-07-10T13:59:54Z</time>
      </trkpt>
      <trkpt lat="47.77276" lon="-3.551">
        <ele>35.04</ele>
        <time>2020-07-10T13:59:55Z</time>
      </trkpt>
      <trkpt lat="47.77276" lon="-3.55103">
        <ele>35.27</ele>
        <time>2020-07-10T13:59:56Z</time>
      </trkpt>
      <trkpt lat="47.77273" lon="-3.55104">
        <ele>35.34</ele>
        <time>2020-07-10T13:59:57Z</time>
      </trkpt>
      <trkpt lat="47.7727" lon="-3.55104">
        <ele>35.32</ele>
        <time>2020-07-10T13:59:58Z</time>
      </trkpt>
      <trkpt lat="47.77268" lon="-3.55104">
        <ele>35.25</ele>
        <time>2020-07-10T13:59:59Z</time>
      </trkpt>
      <trkpt lat="47.77267" lon="-3.55104">
        <ele>35.21</ele>
        <time>2020-07-10T14:00:00Z</time>
      </trkpt>
      <trkpt lat="47.77265" lon="-3.55104">
        <ele>35.16</ele>
        <time>2020-07-10T14:00:01Z</time>
      </trkpt>
      <trkpt lat="47.77264" lon="-3.55103">
        <ele>35.09</ele>
        <time>2020-07-10T14:00:02Z</time>
      </trkpt>
      <trkpt lat="47.77263" lon="-3.55104">
        <ele>35.07</ele>
        <time>2020-07-10T14:00:03Z</time>
      </trkpt>
      <trkpt lat="47.77262" lon="-3.55105">
        <ele>35.1</ele>
        <time>2020-07-10T14:00:04Z</time>
      </trkpt>
      <trkpt lat="47.77261" lon="-3.55105">
        <ele>35.11</ele>
        <time>2020-07-10T14:00:05Z</time>
      </trkpt>
      <trkpt lat="47.77261" lon="-3.55106">
        <ele>35.12</ele>
        <time>2020-07-10T14:00:06Z</time>
      </trkpt>
      <trkpt lat="47.77261" lon="-3.55107">
        <ele>35.16</ele>
        <time>2020-07-10T14:00:07Z</time>
      </trkpt>
      <trkpt lat="47.77261" lon="-3.55107">
        <ele>35.17</ele>
        <time>2020-07-10T14:00:08Z</time>
      </trkpt>
      <trkpt lat="47.77261" lon="-3.55107">
        <ele>35.17</ele>
        <time>2020-07-10T14:00:09Z</time>
      </trkpt>
      <trkpt lat="47.77261" lon="-3.55107">
        <ele>35.17</ele>
        <time>2020-07-10T14:00:10Z</time>
      </trkpt>
      <trkpt lat="47.77261" lon="-3.55107">
        <ele>35.17</ele>
        <time>2020-07-10T14:00:11Z</time>
      </trkpt>
      <trkpt lat="47.77261" lon="-3.55107">
        <ele>35.17</ele>
        <time>2020-07-10T14:00:12Z</time>
      </trkpt>
      <trkpt lat="47.77261" lon="-3.55107">
        <ele>35.17</ele>
        <time>2020-07-10T14:00:13Z</time>
      </trkpt>
      <trkpt lat="47.77261" lon="-3.55107">
        <ele>35.17</ele>
        <time>2020-07-10T14:00:14Z</time>
      </trkpt>
      <trkpt lat="47.77261" lon="-3.55107">
        <ele>35.17</ele>
        <time>2020-07-10T14:00:15Z</time>
      </trkpt>
      <trkpt lat="47.77261" lon="-3.55107">
        <ele>35.17</ele>
        <time>2020-07-10T14:00:16Z</time>
      </trkpt>
      <trkpt lat="47.77261" lon="-3.55107">
        <ele>35.17</ele>
        <time>2020-07-10T14:00:17Z</time>
      </trkpt>
      <trkpt lat="47.77261" lon="-3.55107">
        <ele>35.17</ele>
        <time>2020-07-10T14:00:18Z</time>
      </trkpt>
      <trkpt lat="47.77261" lon="-3.55107">
        <ele>35.17</ele>
        <time>2020-07-10T14:00:19Z</time>
      </trkpt>
    </trkseg>
  </trk>
  <trk>
    <name><![CDATA[8 Pont Scorff]]></name>
    <trkseg>
      <trkpt lat="47.7727" lon="-3.551">
        <ele>45</ele>
        <time>2019-07-17T13:22:00Z</time>
      </trkpt>
      <trkpt lat="47.7727" lon="-3.551">
        <ele>45</ele>
        <time>2019-07-17T13:22:01Z</time>
      </trkpt>
      <trkpt lat="47.7727" lon="-3.551">
        <ele>45</ele>
        <time>2019-07-17T13:22:02Z</time>
      </trkpt>
      <trkpt lat="47.7727" lon="-3.551">
        <ele>44</ele>
        <time>2019-07-17T13:22:03Z</time>
      </trkpt>
      <trkpt lat="47.77271" lon="-3.551">
        <ele>44</ele>
        <time>2019-07-17T13:22:04Z</time>
      </trkpt>
      <trkpt lat="47.77271" lon="-3.551">
        <ele>43</ele>
        <time>2019-07-17T13:22:05Z</time>
      </trkpt>
      <trkpt lat="47.7727" lon="-3.55099">
        <ele>43</ele>
        <time>2019-07-17T13:22:06Z</time>
      </trkpt>
      <trkpt lat="47.7727" lon="-3.55099">
        <ele>43</ele>
        <time>2019-07-17T13:22:07Z</time>
      </trkpt>
      <trkpt lat="47.7727" lon="-3.55098">
        <ele>42</ele>
        <time>2019-07-17T13:22:08Z</time>
      </trkpt>
      <trkpt lat="47.77271" lon="-3.55097">
        <ele>42</ele>
        <time>2019-07-17T13:22:09Z</time>
      </trkpt>
      <trkpt lat="47.77272" lon="-3.55096">
        <ele>41</ele>
        <time>2019-07-17T13:22:10Z</time>
      </trkpt>
      <trkpt lat="47.77273" lon="-3.55094">
        <ele>41</ele>
        <time>2019-07-17T13:22:11Z</time>
      </trkpt>
      <trkpt lat="47.77274" lon="-3.55093">
        <ele>41</ele>
        <time>2019-07-17T13:22:12Z</time>
      </trkpt>
      <trkpt lat="47.77275" lon="-3.55091">
        <ele>41</ele>
        <time>2019-07-17T13:22:13Z</time>
      </trkpt>
      <trkpt lat="47.77276" lon="-3.55088">
        <ele>40</ele>
        <time>2019-07-17T13:22:14Z</time>
      </trkpt>
      <trkpt lat="47.77277" lon="-3.55085">
        <ele>40</ele>
        <time>2019-07-17T13:22:15Z</time>
      </trkpt>
      <trkpt lat="47.77278" lon="-3.55084">
        <ele>40</ele>
        <time>2019-07-17T13:22:16Z</time>
      </trkpt>
      <trkpt lat="47.77279" lon="-3.55082">
        <ele>40</ele>
        <time>2019-07-17T13:22:17Z</time>
      </trkpt>
      <trkpt lat="47.7728" lon="-3.55081">
        <ele>40</ele>
        <time>2019-07-17T13:22:18Z</time>
      </trkpt>
      <trkpt lat="47.7728" lon="-3.55081">
        <ele>40</ele>
        <time>2019-07-17T13:22:19Z</time>
      </trkpt>
      <trkpt lat="47.77282" lon="-3.55081">
        <ele>40</ele>
        <time>2019-07-17T13:22:20Z</time>
      </trkpt>
      <trkpt lat="47.77283" lon="-3.55081">
        <ele>40</ele>
        <time>2019-07-17T13:22:21Z</time>
      </trkpt>
      <trkpt lat="47.77284" lon="-3.55082">
        <ele>40</ele>
        <time>2019-07-17T13:22:22Z</time>
      </trkpt>
      <trkpt lat="47.77285" lon="-3.55082">
        <ele>40</ele>
        <time>2019-07-17T13:22:23Z</time>
      </trkpt>
      <trkpt lat="47.77286" lon="-3.55082">
        <ele>40</ele>
        <time>2019-07-17T13:22:24Z</time>
      </trkpt>
      <trkpt lat="47.77286" lon="-3.55082">
        <ele>39</ele>
        <time>2019-07-17T13:22:25Z</time>
      </trkpt>
      <trkpt lat="47.77287" lon="-3.55082">
        <ele>39</ele>
        <time>2019-07-17T13:22:26Z</time>
      </trkpt>
      <trkpt lat="47.77287" lon="-3.55082">
        <ele>39</ele>
        <time>2019-07-17T13:22:27Z</time>
      </trkpt>
      <trkpt lat="47.77287" lon="-3.55082">
        <ele>39</ele>
        <time>2019-07-17T13:22:28Z</time>
      </trkpt>
      <trkpt lat="47.77287" lon="-3.55082">
        <ele>38</ele>
        <time>2019-07-17T13:22:29Z</time>
      </trkpt>
      <trkpt lat="47.77287" lon="-3.55082">
        <ele>38</ele>
        <time>2019-07-17T13:22:30Z</time>
      </trkpt>
      <trkpt lat="47.77283" lon="-3.55085">
        <ele>38</ele>
        <time>2019-07-17T13:22:31Z</time>
      </trkpt>
      <trkpt lat="47.77282" lon="-3.55087">
        <ele>37</ele>
        <time>2019-07-17T13:22:32Z</time>
      </trkpt>
      <trkpt lat="47.77281" lon="-3.55091">
        <ele>37</ele>
        <time>2019-07-17T13:22:33Z</time>
      </trkpt>
      <trkpt lat="47.7728" lon="-3.55094">
        <ele>37</ele>
        <time>2019-07-17T13:22:34Z</time>
      </trkpt>
      <trkpt lat="47.7728" lon="-3.55098">
        <ele>37</ele>
        <time>2019-07-17T13:22:35Z</time>
      </trkpt>
      <trkpt lat="47.7728" lon="-3.55102">
        <ele>37</ele>
        <time>2019-07-17T13:22:36Z</time>
      </trkpt>
      <trkpt lat="47.7728" lon="-3.55106">
        <ele>37</ele>
        <time>2019-07-17T13:22:37Z</time>
      </trkpt>
      <trkpt lat="47.7728" lon="-3.5511">
        <ele>36</ele>
        <time>2019-07-17T13:22:38Z</time>
      </trkpt>
      <trkpt lat="47.7728" lon="-3.55114">
        <ele>36</ele>
        <time>2019-07-17T13:22:39Z</time>
      </trkpt>
      <trkpt lat="47.7728" lon="-3.55117">
        <ele>36</ele>
        <time>2019-07-17T13:22:40Z</time>
      </trkpt>
      <trkpt lat="47.7728" lon="-3.55121">
        <ele>36</ele>
        <time>2019-07-17T13:22:41Z</time>
      </trkpt>
      <trkpt lat="47.77279" lon="-3.55124">
        <ele>36</ele>
        <time>2019-07-17T13:22:42Z</time>
      </trkpt>
      <trkpt lat="47.77279" lon="-3.55127">
        <ele>36</ele>
        <time>2019-07-17T13:22:43Z</time>
      </trkpt>
      <trkpt lat="47.77279" lon="-3.55131">
        <ele>36</ele>
        <time>2019-07-17T13:22:44Z</time>
      </trkpt>
      <trkpt lat="47.77279" lon="-3.55134">
        <ele>36</ele>
        <time>2019-07-17T13:22:45Z</time>
      </trkpt>
      <trkpt lat="47.77278" lon="-3.55137">
        <ele>35</ele>
        <time>2019-07-17T13:22:46Z</time>
      </trkpt>
      <trkpt lat="47.77278" lon="-3.55141">
        <ele>35</ele>
        <time>2019-07-17T13:22:47Z</time>
      </trkpt>
      <trkpt lat="47.77278" lon="-3.55144">
        <ele>35</ele>
        <time>2019-07-17T13:22:48Z</time>
      </trkpt>
      <trkpt lat="47.77278" lon="-3.55148">
        <ele>35</ele>
        <time>2019-07-17T13:22:49Z</time>
      </trkpt>
      <trkpt lat="47.77278" lon="-3.55153">
        <ele>35</ele>
        <time>2019-07-17T13:22:50Z</time>
      </trkpt>
      <trkpt lat="47.77278" lon="-3.55157">
        <ele>35</ele>
        <time>2019-07-17T13:22:51Z</time>
      </trkpt>
      <trkpt lat="47.77278" lon="-3.5516">
        <ele>35</ele>
        <time>2019-07-17T13:22:52Z</time>
      </trkpt>
      <trkpt lat="47.77278" lon="-3.55164">
        <ele>35</ele>
        <time>2019-07-17T13:22:53Z</time>
      </trkpt>
      <trkpt lat="47.77279" lon="-3.55169">
        <ele>35</ele>
        <time>2019-07-17T13:22:54Z</time>
      </trkpt>
      <trkpt lat="47.7728" lon="-3.55173">
        <ele>35</ele>
        <time>2019-07-17T13:22:55Z</time>
      </trkpt>
      <trkpt lat="47.7728" lon="-3.55177">
        <ele>35</ele>
        <time>2019-07-17T13:22:56Z</time>
      </trkpt>
      <trkpt lat="47.77282" lon="-3.5518">
        <ele>35</ele>
        <time>2019-07-17T13:22:57Z</time>
      </trkpt>
      <trkpt lat="47.77283" lon="-3.55183">
        <ele>35</ele>
        <time>2019-07-17T13:22:58Z</time>
      </trkpt>
      <trkpt lat="47.77284" lon="-3.55184">
        <ele>35</ele>
        <time>2019-07-17T13:22:59Z</time>
      </trkpt>
      <trkpt lat="47.77286" lon="-3.55186">
        <ele>35</ele>
        <time>2019-07-17T13:23:00Z</time>
      </trkpt>
      <trkpt lat="47.77287" lon="-3.55187">
        <ele>35</ele>
        <time>2019-07-17T13:23:01Z</time>
      </trkpt>
      <trkpt lat="47.7729" lon="-3.55189">
        <ele>36</ele>
        <time>2019-07-17T13:23:02Z</time>
      </trkpt>
      <trkpt lat="47.77292" lon="-3.55191">
        <ele>36</ele>
        <time>2019-07-17T13:23:03Z</time>
      </trkpt>
      <trkpt lat="47.77295" lon="-3.55192">
        <ele>36</ele>
        <time>2019-07-17T13:23:04Z</time>
      </trkpt>
      <trkpt lat="47.77297" lon="-3.55193">
        <ele>36</ele>
        <time>2019-07-17T13:23:05Z</time>
      </trkpt>
      <trkpt lat="47.77299" lon="-3.55195">
        <ele>36</ele>
        <time>2019-07-17T13:23:06Z</time>
      </trkpt>
      <trkpt lat="47.77301" lon="-3.55196">
        <ele>36</ele>
        <time>2019-07-17T13:23:07Z</time>
      </trkpt>
      <trkpt lat="47.77304" lon="-3.55198">
        <ele>37</ele>
        <time>2019-07-17T13:23:08Z</time>
      </trkpt>
      <trkpt lat="47.77306" lon="-3.552">
        <ele>37</ele>
        <time>2019-07-17T13:23:09Z</time>
      </trkpt>
      <trkpt lat="47.77308" lon="-3.55201">
        <ele>37</ele>
        <time>2019-07-17T13:23:10Z</time>
      </trkpt>
      <trkpt lat="47.7731" lon="-3.55203">
        <ele>37</ele>
        <time>2019-07-17T13:23:11Z</time>
      </trkpt>
      <trkpt lat="47.77313" lon="-3.55204">
        <ele>37</ele>
        <time>2019-07-17T13:23:12Z</time>
      </trkpt>
      <trkpt lat="47.77316" lon="-3.55206">
        <ele>37</ele>
        <time>2019-07-17T13:23:13Z</time>
      </trkpt>
      <trkpt lat="47.77319" lon="-3.55208">
        <ele>37</ele>
        <time>2019-07-17T13:23:14Z</time>
      </trkpt>
      <trkpt lat="47.77322" lon="-3.5521">
        <ele>38</ele>
        <time>2019-07-17T13:23:15Z</time>
      </trkpt>
      <trkpt lat="47.77324" lon="-3.55212">
        <ele>38</ele>
        <time>2019-07-17T13:23:16Z</time>
      </trkpt>
      <trkpt lat="47.77327" lon="-3.55214">
        <ele>38</ele>
        <time>2019-07-17T13:23:17Z</time>
      </trkpt>
      <trkpt lat="47.7733" lon="-3.55216">
        <ele>38</ele>
        <time>2019-07-17T13:23:18Z</time>
      </trkpt>
      <trkpt lat="47.77333" lon="-3.55219">
        <ele>38</ele>
        <time>2019-07-17T13:23:19Z</time>
      </trkpt>
      <trkpt lat="47.77337" lon="-3.55221">
        <ele>38</ele>
        <time>2019-07-17T13:23:20Z</time>
      </trkpt>
      <trkpt lat="47.77341" lon="-3.55224">
        <ele>38</ele>
        <time>2019-07-17T13:23:21Z</time>
      </trkpt>
      <trkpt lat="47.77344" lon="-3.55227">
        <ele>38</ele>
        <time>2019-07-17T13:23:22Z</time>
      </trkpt>
      <trkpt lat="47.77348" lon="-3.5523">
        <ele>38</ele>
        <time>2019-07-17T13:23:23Z</time>
      </trkpt>
      <trkpt lat="47.77352" lon="-3.55234">
        <ele>38</ele>
        <time>2019-07-17T13:23:24Z</time>
      </trkpt>
      <trkpt lat="47.77355" lon="-3.55238">
        <ele>38</ele>
        <time>2019-07-17T13:23:25Z</time>
      </trkpt>
      <trkpt lat="47.77359" lon="-3.55241">
        <ele>38</ele>
        <time>2019-07-17T13:23:26Z</time>
      </trkpt>
      <trkpt lat="47.77363" lon="-3.55245">
        <ele>38</ele>
        <time>2019-07-17T13:23:27Z</time>
      </trkpt>
      <trkpt lat="47.77366" lon="-3.55248">
        <ele>38</ele>
        <time>2019-07-17T13:23:28Z</time>
      </trkpt>
      <trkpt lat="47.77371" lon="-3.55252">
        <ele>38</ele>
        <time>2019-07-17T13:23:29Z</time>
      </trkpt>
      <trkpt lat="47.77375" lon="-3.55256">
        <ele>38</ele>
        <time>2019-07-17T13:23:30Z</time>
      </trkpt>
      <trkpt lat="47.77379" lon="-3.5526">
        <ele>38</ele>
        <time>2019-07-17T13:23:31Z</time>
      </trkpt>
      <trkpt lat="47.77383" lon="-3.55264">
        <ele>38</ele>
        <time>2019-07-17T13:23:32Z</time>
      </trkpt>
      <trkpt lat="47.77387" lon="-3.55267">
        <ele>38</ele>
        <time>2019-07-17T13:23:33Z</time>
      </trkpt>
      <trkpt lat="47.77391" lon="-3.55271">
        <ele>38</ele>
        <time>2019-07-17T13:23:34Z</time>
      </trkpt>
      <trkpt lat="47.77395" lon="-3.55274">
        <ele>38</ele>
        <time>2019-07-17T13:23:35Z</time>
      </trkpt>
      <trkpt lat="47.77399" lon="-3.55278">
        <ele>38</ele>
        <time>2019-07-17T13:23:36Z</time>
      </trkpt>
      <trkpt lat="47.77403" lon="-3.55281">
        <ele>38</ele>
        <time>2019-07-17T13:23:37Z</time>
      </trkpt>
      <trkpt lat="47.77407" lon="-3.55284">
        <ele>38</ele>
        <time>2019-07-17T13:23:38Z</time>
      </trkpt>
      <trkpt lat="47.77411" lon="-3.55288">
        <ele>38</ele>
        <time>2019-07-17T13:23:39Z</time>
      </trkpt>
      <trkpt lat="47.77414" lon="-3.55291">
        <ele>38</ele>
        <time>2019-07-17T13:23:40Z</time>
      </trkpt>
      <trkpt lat="47.77418" lon="-3.55295">
        <ele>38</ele>
        <time>2019-07-17T13:23:41Z</time>
      </trkpt>
      <trkpt lat="47.77422" lon="-3.55299">
        <ele>38</ele>
        <time>2019-07-17T13:23:42Z</time>
      </trkpt>
      <trkpt lat="47.77427" lon="-3.55303">
        <ele>38</ele>
        <time>2019-07-17T13:23:43Z</time>
      </trkpt>
      <trkpt lat="47.77431" lon="-3.55307">
        <ele>38</ele>
        <time>2019-07-17T13:23:44Z</time>
      </trkpt>
      <trkpt lat="47.77435" lon="-3.55311">
        <ele>38</ele>
        <time>2019-07-17T13:23:45Z</time>
      </trkpt>
      <trkpt lat="47.7744" lon="-3.55315">
        <ele>38</ele>
        <time>2019-07-17T13:23:46Z</time>
      </trkpt>
      <trkpt lat="47.77444" lon="-3.55319">
        <ele>38</ele>
        <time>2019-07-17T13:23:47Z</time>
      </trkpt>
      <trkpt lat="47.77449" lon="-3.55323">
        <ele>38</ele>
        <time>2019-07-17T13:23:48Z</time>
      </trkpt>
      <trkpt lat="47.77453" lon="-3.55327">
        <ele>38</ele>
        <time>2019-07-17T13:23:49Z</time>
      </trkpt>
      <trkpt lat="47.77458" lon="-3.55332">
        <ele>38</ele>
        <time>2019-07-17T13:23:50Z</time>
      </trkpt>
      <trkpt lat="47.77463" lon="-3.55336">
        <ele>38</ele>
        <time>2019-07-17T13:23:51Z</time>
      </trkpt>
      <trkpt lat="47.77467" lon="-3.55341">
        <ele>38</ele>
        <time>2019-07-17T13:23:52Z</time>
      </trkpt>
      <trkpt lat="47.77472" lon="-3.55345">
        <ele>38</ele>
        <time>2019-07-17T13:23:53Z</time>
      </trkpt>
      <trkpt lat="47.77476" lon="-3.55348">
        <ele>37</ele>
        <time>2019-07-17T13:23:54Z</time>
      </trkpt>
      <trkpt lat="47.7748" lon="-3.55352">
        <ele>37</ele>
        <time>2019-07-17T13:23:55Z</time>
      </trkpt>
      <trkpt lat="47.77484" lon="-3.55356">
        <ele>37</ele>
        <time>2019-07-17T13:23:56Z</time>
      </trkpt>
      <trkpt lat="47.77488" lon="-3.5536">
        <ele>37</ele>
        <time>2019-07-17T13:23:57Z</time>
      </trkpt>
      <trkpt lat="47.77492" lon="-3.55364">
        <ele>37</ele>
        <time>2019-07-17T13:23:58Z</time>
      </trkpt>
      <trkpt lat="47.77496" lon="-3.55368">
        <ele>37</ele>
        <time>2019-07-17T13:23:59Z</time>
      </trkpt>
      <trkpt lat="47.77499" lon="-3.55371">
        <ele>37</ele>
        <time>2019-07-17T13:24:00Z</time>
      </trkpt>
      <trkpt lat="47.77503" lon="-3.55375">
        <ele>37</ele>
        <time>2019-07-17T13:24:01Z</time>
      </trkpt>
      <trkpt lat="47.77509" lon="-3.55379">
        <ele>37</ele>
        <time>2019-07-17T13:24:02Z</time>
      </trkpt>
      <trkpt lat="47.77514" lon="-3.55383">
        <ele>37</ele>
        <time>2019-07-17T13:24:03Z</time>
      </trkpt>
      <trkpt lat="47.77521" lon="-3.55386">
        <ele>37</ele>
        <time>2019-07-17T13:24:04Z</time>
      </trkpt>
      <trkpt lat="47.77527" lon="-3.55387">
        <ele>37</ele>
        <time>2019-07-17T13:24:05Z</time>
      </trkpt>
      <trkpt lat="47.77533" lon="-3.55387">
        <ele>37</ele>
        <time>2019-07-17T13:24:06Z</time>
      </trkpt>
      <trkpt lat="47.77539" lon="-3.55386">
        <ele>38</ele>
        <time>2019-07-17T13:24:07Z</time>
      </trkpt>
      <trkpt lat="47.77545" lon="-3.55386">
        <ele>38</ele>
        <time>2019-07-17T13:24:08Z</time>
      </trkpt>
      <trkpt lat="47.7755" lon="-3.55384">
        <ele>38</ele>
        <time>2019-07-17T13:24:09Z</time>
      </trkpt>
      <trkpt lat="47.77556" lon="-3.55383">
        <ele>38</ele>
        <time>2019-07-17T13:24:10Z</time>
      </trkpt>
      <trkpt lat="47.77561" lon="-3.55382">
        <ele>38</ele>
        <time>2019-07-17T13:24:11Z</time>
      </trkpt>
      <trkpt lat="47.77566" lon="-3.55382">
        <ele>39</ele>
        <time>2019-07-17T13:24:12Z</time>
      </trkpt>
      <trkpt lat="47.77572" lon="-3.55381">
        <ele>39</ele>
        <time>2019-07-17T13:24:13Z</time>
      </trkpt>
      <trkpt lat="47.77577" lon="-3.55381">
        <ele>39</ele>
        <time>2019-07-17T13:24:14Z</time>
      </trkpt>
      <trkpt lat="47.77582" lon="-3.55381">
        <ele>39</ele>
        <time>2019-07-17T13:24:15Z</time>
      </trkpt>
      <trkpt lat="47.77588" lon="-3.5538">
        <ele>39</ele>
        <time>2019-07-17T13:24:16Z</time>
      </trkpt>
      <trkpt lat="47.77593" lon="-3.5538">
        <ele>39</ele>
        <time>2019-07-17T13:24:17Z</time>
      </trkpt>
      <trkpt lat="47.77598" lon="-3.55379">
        <ele>39</ele>
        <time>2019-07-17T13:24:18Z</time>
      </trkpt>
      <trkpt lat="47.77604" lon="-3.55377">
        <ele>40</ele>
        <time>2019-07-17T13:24:19Z</time>
      </trkpt>
      <trkpt lat="47.77608" lon="-3.55376">
        <ele>40</ele>
        <time>2019-07-17T13:24:20Z</time>
      </trkpt>
      <trkpt lat="47.77614" lon="-3.55374">
        <ele>40</ele>
        <time>2019-07-17T13:24:21Z</time>
      </trkpt>
      <trkpt lat="47.77618" lon="-3.55373">
        <ele>40</ele>
        <time>2019-07-17T13:24:22Z</time>
      </trkpt>
      <trkpt lat="47.77624" lon="-3.55371">
        <ele>40</ele>
        <time>2019-07-17T13:24:23Z</time>
      </trkpt>
      <trkpt lat="47.77628" lon="-3.55369">
        <ele>40</ele>
        <time>2019-07-17T13:24:24Z</time>
      </trkpt>
      <trkpt lat="47.77633" lon="-3.55367">
        <ele>40</ele>
        <time>2019-07-17T13:24:25Z</time>
      </trkpt>
      <trkpt lat="47.77638" lon="-3.55365">
        <ele>40</ele>
        <time>2019-07-17T13:24:26Z</time>
      </trkpt>
      <trkpt lat="47.77643" lon="-3.55363">
        <ele>40</ele>
        <time>2019-07-17T13:24:27Z</time>
      </trkpt>
      <trkpt lat="47.77648" lon="-3.5536">
        <ele>40</ele>
        <time>2019-07-17T13:24:28Z</time>
      </trkpt>
      <trkpt lat="47.77653" lon="-3.55358">
        <ele>40</ele>
        <time>2019-07-17T13:24:29Z</time>
      </trkpt>
      <trkpt lat="47.77657" lon="-3.55357">
        <ele>40</ele>
        <time>2019-07-17T13:24:30Z</time>
      </trkpt>
      <trkpt lat="47.77662" lon="-3.55357">
        <ele>39</ele>
        <time>2019-07-17T13:24:31Z</time>
      </trkpt>
      <trkpt lat="47.77666" lon="-3.55357">
        <ele>39</ele>
        <time>2019-07-17T13:24:32Z</time>
      </trkpt>
      <trkpt lat="47.7767" lon="-3.55358">
        <ele>39</ele>
        <time>2019-07-17T13:24:33Z</time>
      </trkpt>
      <trkpt lat="47.77674" lon="-3.55358">
        <ele>39</ele>
        <time>2019-07-17T13:24:34Z</time>
      </trkpt>
      <trkpt lat="47.77679" lon="-3.55358">
        <ele>38</ele>
        <time>2019-07-17T13:24:35Z</time>
      </trkpt>
      <trkpt lat="47.77684" lon="-3.55357">
        <ele>38</ele>
        <time>2019-07-17T13:24:36Z</time>
      </trkpt>
      <trkpt lat="47.77688" lon="-3.55357">
        <ele>38</ele>
        <time>2019-07-17T13:24:37Z</time>
      </trkpt>
      <trkpt lat="47.77693" lon="-3.55356">
        <ele>38</ele>
        <time>2019-07-17T13:24:38Z</time>
      </trkpt>
      <trkpt lat="47.77698" lon="-3.55355">
        <ele>38</ele>
        <time>2019-07-17T13:24:39Z</time>
      </trkpt>
      <trkpt lat="47.77702" lon="-3.55354">
        <ele>38</ele>
        <time>2019-07-17T13:24:40Z</time>
      </trkpt>
      <trkpt lat="47.77707" lon="-3.55354">
        <ele>38</ele>
        <time>2019-07-17T13:24:41Z</time>
      </trkpt>
      <trkpt lat="47.77712" lon="-3.55353">
        <ele>38</ele>
        <time>2019-07-17T13:24:42Z</time>
      </trkpt>
      <trkpt lat="47.77716" lon="-3.55353">
        <ele>38</ele>
        <time>2019-07-17T13:24:43Z</time>
      </trkpt>
      <trkpt lat="47.77721" lon="-3.55352">
        <ele>37</ele>
        <time>2019-07-17T13:24:44Z</time>
      </trkpt>
      <trkpt lat="47.77726" lon="-3.55351">
        <ele>37</ele>
        <time>2019-07-17T13:24:45Z</time>
      </trkpt>
      <trkpt lat="47.7773" lon="-3.55349">
        <ele>37</ele>
        <time>2019-07-17T13:24:46Z</time>
      </trkpt>
      <trkpt lat="47.77735" lon="-3.55347">
        <ele>37</ele>
        <time>2019-07-17T13:24:47Z</time>
      </trkpt>
      <trkpt lat="47.77739" lon="-3.55344">
        <ele>37</ele>
        <time>2019-07-17T13:24:48Z</time>
      </trkpt>
      <trkpt lat="47.77743" lon="-3.5534">
        <ele>37</ele>
        <time>2019-07-17T13:24:49Z</time>
      </trkpt>
      <trkpt lat="47.77747" lon="-3.55335">
        <ele>38</ele>
        <time>2019-07-17T13:24:50Z</time>
      </trkpt>
      <trkpt lat="47.77751" lon="-3.55331">
        <ele>38</ele>
        <time>2019-07-17T13:24:51Z</time>
      </trkpt>
      <trkpt lat="47.77755" lon="-3.55327">
        <ele>38</ele>
        <time>2019-07-17T13:24:52Z</time>
      </trkpt>
      <trkpt lat="47.77759" lon="-3.55322">
        <ele>38</ele>
        <time>2019-07-17T13:24:53Z</time>
      </trkpt>
      <trkpt lat="47.77762" lon="-3.55319">
        <ele>38</ele>
        <time>2019-07-17T13:24:54Z</time>
      </trkpt>
      <trkpt lat="47.77766" lon="-3.55316">
        <ele>38</ele>
        <time>2019-07-17T13:24:55Z</time>
      </trkpt>
      <trkpt lat="47.77771" lon="-3.55314">
        <ele>38</ele>
        <time>2019-07-17T13:24:56Z</time>
      </trkpt>
      <trkpt lat="47.77776" lon="-3.55312">
        <ele>38</ele>
        <time>2019-07-17T13:24:57Z</time>
      </trkpt>
      <trkpt lat="47.77781" lon="-3.55311">
        <ele>38</ele>
        <time>2019-07-17T13:24:58Z</time>
      </trkpt>
      <trkpt lat="47.77786" lon="-3.5531">
        <ele>38</ele>
        <time>2019-07-17T13:24:59Z</time>
      </trkpt>
      <trkpt lat="47.77792" lon="-3.5531">
        <ele>38</ele>
        <time>2019-07-17T13:25:00Z</time>
      </trkpt>
      <trkpt lat="47.77797" lon="-3.55312">
        <ele>38</ele>
        <time>2019-07-17T13:25:01Z</time>
      </trkpt>
      <trkpt lat="47.77801" lon="-3.55317">
        <ele>38</ele>
        <time>2019-07-17T13:25:02Z</time>
      </trkpt>
      <trkpt lat="47.77805" lon="-3.5532">
        <ele>38</ele>
        <time>2019-07-17T13:25:03Z</time>
      </trkpt>
      <trkpt lat="47.7781" lon="-3.55322">
        <ele>38</ele>
        <time>2019-07-17T13:25:04Z</time>
      </trkpt>
      <trkpt lat="47.77815" lon="-3.55324">
        <ele>38</ele>
        <time>2019-07-17T13:25:05Z</time>
      </trkpt>
      <trkpt lat="47.77819" lon="-3.55325">
        <ele>38</ele>
        <time>2019-07-17T13:25:06Z</time>
      </trkpt>
      <trkpt lat="47.77824" lon="-3.55326">
        <ele>38</ele>
        <time>2019-07-17T13:25:07Z</time>
      </trkpt>
      <trkpt lat="47.77829" lon="-3.55327">
        <ele>38</ele>
        <time>2019-07-17T13:25:08Z</time>
      </trkpt>
      <trkpt lat="47.77834" lon="-3.55328">
        <ele>38</ele>
        <time>2019-07-17T13:25:09Z</time>
      </trkpt>
      <trkpt lat="47.77839" lon="-3.55329">
        <ele>38</ele>
        <time>2019-07-17T13:25:10Z</time>
      </trkpt>
      <trkpt lat="47.77844" lon="-3.5533">
        <ele>38</ele>
        <time>2019-07-17T13:25:11Z</time>
      </trkpt>
      <trkpt lat="47.77849" lon="-3.5533">
        <ele>38</ele>
        <time>2019-07-17T13:25:12Z</time>
      </trkpt>
      <trkpt lat="47.77854" lon="-3.55331">
        <ele>38</ele>
        <time>2019-07-17T13:25:13Z</time>
      </trkpt>
      <trkpt lat="47.77859" lon="-3.55331">
        <ele>38</ele>
        <time>2019-07-17T13:25:14Z</time>
      </trkpt>
      <trkpt lat="47.77864" lon="-3.55331">
        <ele>38</ele>
        <time>2019-07-17T13:25:15Z</time>
      </trkpt>
      <trkpt lat="47.77869" lon="-3.55332">
        <ele>38</ele>
        <time>2019-07-17T13:25:16Z</time>
      </trkpt>
      <trkpt lat="47.77875" lon="-3.55332">
        <ele>38</ele>
        <time>2019-07-17T13:25:17Z</time>
      </trkpt>
      <trkpt lat="47.7788" lon="-3.55331">
        <ele>38</ele>
        <time>2019-07-17T13:25:18Z</time>
      </trkpt>
      <trkpt lat="47.77885" lon="-3.55331">
        <ele>38</ele>
        <time>2019-07-17T13:25:19Z</time>
      </trkpt>
      <trkpt lat="47.7789" lon="-3.5533">
        <ele>37</ele>
        <time>2019-07-17T13:25:20Z</time>
      </trkpt>
      <trkpt lat="47.77895" lon="-3.5533">
        <ele>37</ele>
        <time>2019-07-17T13:25:21Z</time>
      </trkpt>
      <trkpt lat="47.779" lon="-3.55329">
        <ele>37</ele>
        <time>2019-07-17T13:25:22Z</time>
      </trkpt>
      <trkpt lat="47.77905" lon="-3.55328">
        <ele>38</ele>
        <time>2019-07-17T13:25:23Z</time>
      </trkpt>
      <trkpt lat="47.7791" lon="-3.55328">
        <ele>38</ele>
        <time>2019-07-17T13:25:24Z</time>
      </trkpt>
      <trkpt lat="47.77915" lon="-3.55326">
        <ele>38</ele>
        <time>2019-07-17T13:25:25Z</time>
      </trkpt>
      <trkpt lat="47.7792" lon="-3.55325">
        <ele>38</ele>
        <time>2019-07-17T13:25:26Z</time>
      </trkpt>
      <trkpt lat="47.77926" lon="-3.55325">
        <ele>38</ele>
        <time>2019-07-17T13:25:27Z</time>
      </trkpt>
      <trkpt lat="47.77931" lon="-3.55325">
        <ele>38</ele>
        <time>2019-07-17T13:25:28Z</time>
      </trkpt>
      <trkpt lat="47.77936" lon="-3.55325">
        <ele>38</ele>
        <time>2019-07-17T13:25:29Z</time>
      </trkpt>
      <trkpt lat="47.77941" lon="-3.55326">
        <ele>38</ele>
        <time>2019-07-17T13:25:30Z</time>
      </trkpt>
      <trkpt lat="47.77946" lon="-3.55326">
        <ele>38</ele>
        <time>2019-07-17T13:25:31Z</time>
      </trkpt>
      <trkpt lat="47.77951" lon="-3.55327">
        <ele>38</ele>
        <time>2019-07-17T13:25:32Z</time>
      </trkpt>
      <trkpt lat="47.77956" lon="-3.55327">
        <ele>38</ele>
        <time>2019-07-17T13:25:33Z</time>
      </trkpt>
      <trkpt lat="47.77961" lon="-3.55328">
        <ele>38</ele>
        <time>2019-07-17T13:25:34Z</time>
      </trkpt>
      <trkpt lat="47.77966" lon="-3.55329">
        <ele>38</ele>
        <time>2019-07-17T13:25:35Z</time>
      </trkpt>
      <trkpt lat="47.77971" lon="-3.5533">
        <ele>38</ele>
        <time>2019-07-17T13:25:36Z</time>
      </trkpt>
      <trkpt lat="47.77976" lon="-3.55331">
        <ele>39</ele>
        <time>2019-07-17T13:25:37Z</time>
      </trkpt>
      <trkpt lat="47.7798" lon="-3.55331">
        <ele>39</ele>
        <time>2019-07-17T13:25:38Z</time>
      </trkpt>
      <trkpt lat="47.77985" lon="-3.55331">
        <ele>39</ele>
        <time>2019-07-17T13:25:39Z</time>
      </trkpt>
      <trkpt lat="47.77989" lon="-3.55331">
        <ele>39</ele>
        <time>2019-07-17T13:25:40Z</time>
      </trkpt>
      <trkpt lat="47.77992" lon="-3.55331">
        <ele>39</ele>
        <time>2019-07-17T13:25:41Z</time>
      </trkpt>
      <trkpt lat="47.77995" lon="-3.55332">
        <ele>39</ele>
        <time>2019-07-17T13:25:42Z</time>
      </trkpt>
      <trkpt lat="47.77995" lon="-3.55331">
        <ele>39</ele>
        <time>2019-07-17T13:25:43Z</time>
      </trkpt>
      <trkpt lat="47.77995" lon="-3.55331">
        <ele>39</ele>
        <time>2019-07-17T13:25:44Z</time>
      </trkpt>
      <trkpt lat="47.77995" lon="-3.55331">
        <ele>39</ele>
        <time>2019-07-17T13:25:45Z</time>
      </trkpt>
      <trkpt lat="47.77994" lon="-3.55331">
        <ele>39</ele>
        <time>2019-07-17T13:25:46Z</time>
      </trkpt>
      <trkpt lat="47.77997" lon="-3.55331">
        <ele>39</ele>
        <time>2019-07-17T13:25:47Z</time>
      </trkpt>
      <trkpt lat="47.77999" lon="-3.55331">
        <ele>39</ele>
        <time>2019-07-17T13:25:48Z</time>
      </trkpt>
      <trkpt lat="47.78002" lon="-3.55332">
        <ele>39</ele>
        <time>2019-07-17T13:25:49Z</time>
      </trkpt>
      <trkpt lat="47.78004" lon="-3.55332">
        <ele>39</ele>
        <time>2019-07-17T13:25:50Z</time>
      </trkpt>
      <trkpt lat="47.78007" lon="-3.55332">
        <ele>39</ele>
        <time>2019-07-17T13:25:51Z</time>
      </trkpt>
      <trkpt lat="47.78009" lon="-3.55333">
        <ele>39</ele>
        <time>2019-07-17T13:25:52Z</time>
      </trkpt>
      <trkpt lat="47.78012" lon="-3.55333">
        <ele>39</ele>
        <time>2019-07-17T13:25:53Z</time>
      </trkpt>
      <trkpt lat="47.78015" lon="-3.55333">
        <ele>39</ele>
        <time>2019-07-17T13:25:54Z</time>
      </trkpt>
      <trkpt lat="47.78018" lon="-3.55333">
        <ele>39</ele>
        <time>2019-07-17T13:25:55Z</time>
      </trkpt>
      <trkpt lat="47.78022" lon="-3.55334">
        <ele>39</ele>
        <time>2019-07-17T13:25:56Z</time>
      </trkpt>
      <trkpt lat="47.78025" lon="-3.55334">
        <ele>39</ele>
        <time>2019-07-17T13:25:57Z</time>
      </trkpt>
      <trkpt lat="47.78028" lon="-3.55334">
        <ele>39</ele>
        <time>2019-07-17T13:25:58Z</time>
      </trkpt>
      <trkpt lat="47.78032" lon="-3.55334">
        <ele>39</ele>
        <time>2019-07-17T13:25:59Z</time>
      </trkpt>
      <trkpt lat="47.78035" lon="-3.55334">
        <ele>39</ele>
        <time>2019-07-17T13:26:00Z</time>
      </trkpt>
      <trkpt lat="47.78039" lon="-3.55333">
        <ele>39</ele>
        <time>2019-07-17T13:26:01Z</time>
      </trkpt>
      <trkpt lat="47.78043" lon="-3.55333">
        <ele>40</ele>
        <time>2019-07-17T13:26:02Z</time>
      </trkpt>
      <trkpt lat="47.78048" lon="-3.55333">
        <ele>40</ele>
        <time>2019-07-17T13:26:03Z</time>
      </trkpt>
      <trkpt lat="47.78052" lon="-3.55332">
        <ele>40</ele>
        <time>2019-07-17T13:26:04Z</time>
      </trkpt>
      <trkpt lat="47.78057" lon="-3.55331">
        <ele>40</ele>
        <time>2019-07-17T13:26:05Z</time>
      </trkpt>
      <trkpt lat="47.78061" lon="-3.5533">
        <ele>40</ele>
        <time>2019-07-17T13:26:06Z</time>
      </trkpt>
      <trkpt lat="47.78066" lon="-3.55329">
        <ele>40</ele>
        <time>2019-07-17T13:26:07Z</time>
      </trkpt>
      <trkpt lat="47.78071" lon="-3.55328">
        <ele>40</ele>
        <time>2019-07-17T13:26:08Z</time>
      </trkpt>
      <trkpt lat="47.78076" lon="-3.55327">
        <ele>40</ele>
        <time>2019-07-17T13:26:09Z</time>
      </trkpt>
      <trkpt lat="47.78081" lon="-3.55325">
        <ele>40</ele>
        <time>2019-07-17T13:26:10Z</time>
      </trkpt>
      <trkpt lat="47.78087" lon="-3.55323">
        <ele>40</ele>
        <time>2019-07-17T13:26:11Z</time>
      </trkpt>
      <trkpt lat="47.78093" lon="-3.55322">
        <ele>40</ele>
        <time>2019-07-17T13:26:12Z</time>
      </trkpt>
      <trkpt lat="47.78098" lon="-3.5532">
        <ele>40</ele>
        <time>2019-07-17T13:26:13Z</time>
      </trkpt>
      <trkpt lat="47.78104" lon="-3.55317">
        <ele>40</ele>
        <time>2019-07-17T13:26:14Z</time>
      </trkpt>
      <trkpt lat="47.7811" lon="-3.55314">
        <ele>41</ele>
        <time>2019-07-17T13:26:15Z</time>
      </trkpt>
      <trkpt lat="47.78117" lon="-3.5531">
        <ele>41</ele>
        <time>2019-07-17T13:26:16Z</time>
      </trkpt>
      <trkpt lat="47.78123" lon="-3.55307">
        <ele>41</ele>
        <time>2019-07-17T13:26:17Z</time>
      </trkpt>
      <trkpt lat="47.7813" lon="-3.55304">
        <ele>41</ele>
        <time>2019-07-17T13:26:18Z</time>
      </trkpt>
      <trkpt lat="47.78137" lon="-3.55301">
        <ele>41</ele>
        <time>2019-07-17T13:26:19Z</time>
      </trkpt>
      <trkpt lat="47.78144" lon="-3.55299">
        <ele>40</ele>
        <time>2019-07-17T13:26:20Z</time>
      </trkpt>
      <trkpt lat="47.78152" lon="-3.55298">
        <ele>40</ele>
        <time>2019-07-17T13:26:21Z</time>
      </trkpt>
      <trkpt lat="47.78159" lon="-3.55295">
        <ele>40</ele>
        <time>2019-07-17T13:26:22Z</time>
      </trkpt>
      <trkpt lat="47.78167" lon="-3.55291">
        <ele>40</ele>
        <time>2019-07-17T13:26:23Z</time>
      </trkpt>
      <trkpt lat="47.78175" lon="-3.55288">
        <ele>40</ele>
        <time>2019-07-17T13:26:24Z</time>
      </trkpt>
      <trkpt lat="47.78183" lon="-3.55284">
        <ele>40</ele>
        <time>2019-07-17T13:26:25Z</time>
      </trkpt>
      <trkpt lat="47.7819" lon="-3.55281">
        <ele>40</ele>
        <time>2019-07-17T13:26:26Z</time>
      </trkpt>
      <trkpt lat="47.78198" lon="-3.55277">
        <ele>40</ele>
        <time>2019-07-17T13:26:27Z</time>
      </trkpt>
      <trkpt lat="47.78206" lon="-3.55273">
        <ele>40</ele>
        <time>2019-07-17T13:26:28Z</time>
      </trkpt>
      <trkpt lat="47.78214" lon="-3.55269">
        <ele>39</ele>
        <time>2019-07-17T13:26:29Z</time>
      </trkpt>
      <trkpt lat="47.78222" lon="-3.55263">
        <ele>39</ele>
        <time>2019-07-17T13:26:30Z</time>
      </trkpt>
      <trkpt lat="47.78229" lon="-3.55257">
        <ele>39</ele>
        <time>2019-07-17T13:26:31Z</time>
      </trkpt>
      <trkpt lat="47.78236" lon="-3.55251">
        <ele>39</ele>
        <time>2019-07-17T13:26:32Z</time>
      </trkpt>
      <trkpt lat="47.78243" lon="-3.55243">
        <ele>38</ele>
        <time>2019-07-17T13:26:33Z</time>
      </trkpt>
      <trkpt lat="47.78251" lon="-3.55237">
        <ele>38</ele>
        <time>2019-07-17T13:26:34Z</time>
      </trkpt>
      <trkpt lat="47.78258" lon="-3.5523">
        <ele>38</ele>
        <time>2019-07-17T13:26:35Z</time>
      </trkpt>
      <trkpt lat="47.78265" lon="-3.55223">
        <ele>37</ele>
        <time>2019-07-17T13:26:36Z</time>
      </trkpt>
      <trkpt lat="47.78272" lon="-3.55215">
        <ele>37</ele>
        <time>2019-07-17T13:26:37Z</time>
      </trkpt>
      <trkpt lat="47.78279" lon="-3.55209">
        <ele>36</ele>
        <time>2019-07-17T13:26:38Z</time>
      </trkpt>
      <trkpt lat="47.78287" lon="-3.55204">
        <ele>36</ele>
        <time>2019-07-17T13:26:39Z</time>
      </trkpt>
      <trkpt lat="47.78294" lon="-3.55199">
        <ele>35</ele>
        <time>2019-07-17T13:26:40Z</time>
      </trkpt>
      <trkpt lat="47.78302" lon="-3.55194">
        <ele>35</ele>
        <time>2019-07-17T13:26:41Z</time>
      </trkpt>
      <trkpt lat="47.7831" lon="-3.55189">
        <ele>34</ele>
        <time>2019-07-17T13:26:42Z</time>
      </trkpt>
      <trkpt lat="47.78317" lon="-3.55183">
        <ele>34</ele>
        <time>2019-07-17T13:26:43Z</time>
      </trkpt>
      <trkpt lat="47.78324" lon="-3.55178">
        <ele>34</ele>
        <time>2019-07-17T13:26:44Z</time>
      </trkpt>
      <trkpt lat="47.78329" lon="-3.55172">
        <ele>33</ele>
        <time>2019-07-17T13:26:45Z</time>
      </trkpt>
      <trkpt lat="47.78334" lon="-3.55167">
        <ele>33</ele>
        <time>2019-07-17T13:26:46Z</time>
      </trkpt>
      <trkpt lat="47.78337" lon="-3.55163">
        <ele>32</ele>
        <time>2019-07-17T13:26:47Z</time>
      </trkpt>
      <trkpt lat="47.78338" lon="-3.55158">
        <ele>32</ele>
        <time>2019-07-17T13:26:48Z</time>
      </trkpt>
      <trkpt lat="47.7834" lon="-3.55154">
        <ele>31</ele>
        <time>2019-07-17T13:26:49Z</time>
      </trkpt>
      <trkpt lat="47.78342" lon="-3.5515">
        <ele>31</ele>
        <time>2019-07-17T13:26:50Z</time>
      </trkpt>
      <trkpt lat="47.78343" lon="-3.55146">
        <ele>30</ele>
        <time>2019-07-17T13:26:51Z</time>
      </trkpt>
      <trkpt lat="47.78344" lon="-3.55141">
        <ele>30</ele>
        <time>2019-07-17T13:26:52Z</time>
      </trkpt>
      <trkpt lat="47.78346" lon="-3.55138">
        <ele>30</ele>
        <time>2019-07-17T13:26:53Z</time>
      </trkpt>
      <trkpt lat="47.78347" lon="-3.55134">
        <ele>29</ele>
        <time>2019-07-17T13:26:54Z</time>
      </trkpt>
      <trkpt lat="47.78349" lon="-3.55131">
        <ele>29</ele>
        <time>2019-07-17T13:26:55Z</time>
      </trkpt>
      <trkpt lat="47.7835" lon="-3.55129">
        <ele>29</ele>
        <time>2019-07-17T13:26:56Z</time>
      </trkpt>
      <trkpt lat="47.78352" lon="-3.55126">
        <ele>28</ele>
        <time>2019-07-17T13:26:57Z</time>
      </trkpt>
      <trkpt lat="47.78355" lon="-3.55123">
        <ele>28</ele>
        <time>2019-07-17T13:26:58Z</time>
      </trkpt>
      <trkpt lat="47.78358" lon="-3.55118">
        <ele>28</ele>
        <time>2019-07-17T13:26:59Z</time>
      </trkpt>
      <trkpt lat="47.78361" lon="-3.55112">
        <ele>28</ele>
        <time>2019-07-17T13:27:00Z</time>
      </trkpt>
      <trkpt lat="47.78363" lon="-3.55107">
        <ele>27</ele>
        <time>2019-07-17T13:27:01Z</time>
      </trkpt>
      <trkpt lat="47.78365" lon="-3.55102">
        <ele>27</ele>
        <time>2019-07-17T13:27:02Z</time>
      </trkpt>
      <trkpt lat="47.78367" lon="-3.55098">
        <ele>27</ele>
        <time>2019-07-17T13:27:03Z</time>
      </trkpt>
      <trkpt lat="47.78369" lon="-3.55093">
        <ele>27</ele>
        <time>2019-07-17T13:27:04Z</time>
      </trkpt>
      <trkpt lat="47.78371" lon="-3.55088">
        <ele>27</ele>
        <time>2019-07-17T13:27:05Z</time>
      </trkpt>
      <trkpt lat="47.78373" lon="-3.55084">
        <ele>27</ele>
        <time>2019-07-17T13:27:06Z</time>
      </trkpt>
      <trkpt lat="47.78375" lon="-3.55079">
        <ele>27</ele>
        <time>2019-07-17T13:27:07Z</time>
      </trkpt>
      <trkpt lat="47.78377" lon="-3.55075">
        <ele>27</ele>
        <time>2019-07-17T13:27:08Z</time>
      </trkpt>
      <trkpt lat="47.78379" lon="-3.55072">
        <ele>27</ele>
        <time>2019-07-17T13:27:09Z</time>
      </trkpt>
      <trkpt lat="47.78382" lon="-3.55068">
        <ele>27</ele>
        <time>2019-07-17T13:27:10Z</time>
      </trkpt>
      <trkpt lat="47.78385" lon="-3.55065">
        <ele>27</ele>
        <time>2019-07-17T13:27:11Z</time>
      </trkpt>
      <trkpt lat="47.78388" lon="-3.55062">
        <ele>27</ele>
        <time>2019-07-17T13:27:12Z</time>
      </trkpt>
      <trkpt lat="47.78391" lon="-3.55058">
        <ele>27</ele>
        <time>2019-07-17T13:27:13Z</time>
      </trkpt>
      <trkpt lat="47.78394" lon="-3.55056">
        <ele>27</ele>
        <time>2019-07-17T13:27:14Z</time>
      </trkpt>
      <trkpt lat="47.78397" lon="-3.55054">
        <ele>27</ele>
        <time>2019-07-17T13:27:15Z</time>
      </trkpt>
      <trkpt lat="47.784" lon="-3.55051">
        <ele>27</ele>
        <time>2019-07-17T13:27:16Z</time>
      </trkpt>
      <trkpt lat="47.78403" lon="-3.55048">
        <ele>27</ele>
        <time>2019-07-17T13:27:17Z</time>
      </trkpt>
      <trkpt lat="47.78406" lon="-3.55045">
        <ele>27</ele>
        <time>2019-07-17T13:27:18Z</time>
      </trkpt>
      <trkpt lat="47.78408" lon="-3.55042">
        <ele>28</ele>
        <time>2019-07-17T13:27:19Z</time>
      </trkpt>
      <trkpt lat="47.78409" lon="-3.5504">
        <ele>28</ele>
        <time>2019-07-17T13:27:20Z</time>
      </trkpt>
      <trkpt lat="47.78411" lon="-3.55036">
        <ele>28</ele>
        <time>2019-07-17T13:27:21Z</time>
      </trkpt>
      <trkpt lat="47.78414" lon="-3.55032">
        <ele>28</ele>
        <time>2019-07-17T13:27:22Z</time>
      </trkpt>
      <trkpt lat="47.78416" lon="-3.55029">
        <ele>28</ele>
        <time>2019-07-17T13:27:23Z</time>
      </trkpt>
      <trkpt lat="47.78419" lon="-3.55025">
        <ele>29</ele>
        <time>2019-07-17T13:27:24Z</time>
      </trkpt>
      <trkpt lat="47.7842" lon="-3.55022">
        <ele>29</ele>
        <time>2019-07-17T13:27:25Z</time>
      </trkpt>
      <trkpt lat="47.78421" lon="-3.55018">
        <ele>29</ele>
        <time>2019-07-17T13:27:26Z</time>
      </trkpt>
      <trkpt lat="47.78421" lon="-3.55015">
        <ele>29</ele>
        <time>2019-07-17T13:27:27Z</time>
      </trkpt>
      <trkpt lat="47.78421" lon="-3.55011">
        <ele>29</ele>
        <time>2019-07-17T13:27:28Z</time>
      </trkpt>
      <trkpt lat="47.78421" lon="-3.55007">
        <ele>29</ele>
        <time>2019-07-17T13:27:29Z</time>
      </trkpt>
      <trkpt lat="47.78421" lon="-3.55002">
        <ele>30</ele>
        <time>2019-07-17T13:27:30Z</time>
      </trkpt>
      <trkpt lat="47.78421" lon="-3.54997">
        <ele>30</ele>
        <time>2019-07-17T13:27:31Z</time>
      </trkpt>
      <trkpt lat="47.78421" lon="-3.54992">
        <ele>30</ele>
        <time>2019-07-17T13:27:32Z</time>
      </trkpt>
      <trkpt lat="47.78421" lon="-3.54988">
        <ele>30</ele>
        <time>2019-07-17T13:27:33Z</time>
      </trkpt>
      <trkpt lat="47.78421" lon="-3.54984">
        <ele>30</ele>
        <time>2019-07-17T13:27:34Z</time>
      </trkpt>
      <trkpt lat="47.78422" lon="-3.5498">
        <ele>30</ele>
        <time>2019-07-17T13:27:35Z</time>
      </trkpt>
      <trkpt lat="47.78423" lon="-3.54976">
        <ele>30</ele>
        <time>2019-07-17T13:27:36Z</time>
      </trkpt>
      <trkpt lat="47.78425" lon="-3.54971">
        <ele>30</ele>
        <time>2019-07-17T13:27:37Z</time>
      </trkpt>
      <trkpt lat="47.78427" lon="-3.54966">
        <ele>30</ele>
        <time>2019-07-17T13:27:38Z</time>
      </trkpt>
      <trkpt lat="47.78428" lon="-3.5496">
        <ele>30</ele>
        <time>2019-07-17T13:27:39Z</time>
      </trkpt>
      <trkpt lat="47.7843" lon="-3.54955">
        <ele>30</ele>
        <time>2019-07-17T13:27:40Z</time>
      </trkpt>
      <trkpt lat="47.78432" lon="-3.5495">
        <ele>30</ele>
        <time>2019-07-17T13:27:41Z</time>
      </trkpt>
      <trkpt lat="47.78434" lon="-3.54945">
        <ele>30</ele>
        <time>2019-07-17T13:27:42Z</time>
      </trkpt>
      <trkpt lat="47.78436" lon="-3.5494">
        <ele>30</ele>
        <time>2019-07-17T13:27:43Z</time>
      </trkpt>
      <trkpt lat="47.78438" lon="-3.54934">
        <ele>30</ele>
        <time>2019-07-17T13:27:44Z</time>
      </trkpt>
      <trkpt lat="47.78439" lon="-3.5493">
        <ele>30</ele>
        <time>2019-07-17T13:27:45Z</time>
      </trkpt>
      <trkpt lat="47.78439" lon="-3.54924">
        <ele>31</ele>
        <time>2019-07-17T13:27:46Z</time>
      </trkpt>
      <trkpt lat="47.78439" lon="-3.54919">
        <ele>31</ele>
        <time>2019-07-17T13:27:47Z</time>
      </trkpt>
      <trkpt lat="47.7844" lon="-3.54913">
        <ele>31</ele>
        <time>2019-07-17T13:27:48Z</time>
      </trkpt>
      <trkpt lat="47.78442" lon="-3.54907">
        <ele>31</ele>
        <time>2019-07-17T13:27:49Z</time>
      </trkpt>
      <trkpt lat="47.78445" lon="-3.54901">
        <ele>31</ele>
        <time>2019-07-17T13:27:50Z</time>
      </trkpt>
      <trkpt lat="47.78446" lon="-3.54896">
        <ele>31</ele>
        <time>2019-07-17T13:27:51Z</time>
      </trkpt>
      <trkpt lat="47.78447" lon="-3.54891">
        <ele>31</ele>
        <time>2019-07-17T13:27:52Z</time>
      </trkpt>
      <trkpt lat="47.78448" lon="-3.54885">
        <ele>31</ele>
        <time>2019-07-17T13:27:53Z</time>
      </trkpt>
      <trkpt lat="47.78448" lon="-3.54878">
        <ele>31</ele>
        <time>2019-07-17T13:27:54Z</time>
      </trkpt>
      <trkpt lat="47.78449" lon="-3.54872">
        <ele>31</ele>
        <time>2019-07-17T13:27:55Z</time>
      </trkpt>
      <trkpt lat="47.78451" lon="-3.54867">
        <ele>31</ele>
        <time>2019-07-17T13:27:56Z</time>
      </trkpt>
      <trkpt lat="47.78452" lon="-3.54861">
        <ele>31</ele>
        <time>2019-07-17T13:27:57Z</time>
      </trkpt>
      <trkpt lat="47.78455" lon="-3.54855">
        <ele>31</ele>
        <time>2019-07-17T13:27:58Z</time>
      </trkpt>
      <trkpt lat="47.78456" lon="-3.54848">
        <ele>31</ele>
        <time>2019-07-17T13:27:59Z</time>
      </trkpt>
      <trkpt lat="47.78458" lon="-3.54841">
        <ele>31</ele>
        <time>2019-07-17T13:28:00Z</time>
      </trkpt>
      <trkpt lat="47.78461" lon="-3.54834">
        <ele>31</ele>
        <time>2019-07-17T13:28:01Z</time>
      </trkpt>
      <trkpt lat="47.78463" lon="-3.54827">
        <ele>31</ele>
        <time>2019-07-17T13:28:02Z</time>
      </trkpt>
      <trkpt lat="47.78464" lon="-3.5482">
        <ele>30</ele>
        <time>2019-07-17T13:28:03Z</time>
      </trkpt>
      <trkpt lat="47.78466" lon="-3.54813">
        <ele>30</ele>
        <time>2019-07-17T13:28:04Z</time>
      </trkpt>
      <trkpt lat="47.78468" lon="-3.54806">
        <ele>30</ele>
        <time>2019-07-17T13:28:05Z</time>
      </trkpt>
      <trkpt lat="47.7847" lon="-3.548">
        <ele>30</ele>
        <time>2019-07-17T13:28:06Z</time>
      </trkpt>
      <trkpt lat="47.78472" lon="-3.54794">
        <ele>30</ele>
        <time>2019-07-17T13:28:07Z</time>
      </trkpt>
      <trkpt lat="47.78474" lon="-3.54788">
        <ele>30</ele>
        <time>2019-07-17T13:28:08Z</time>
      </trkpt>
      <trkpt lat="47.78476" lon="-3.54783">
        <ele>30</ele>
        <time>2019-07-17T13:28:09Z</time>
      </trkpt>
      <trkpt lat="47.78478" lon="-3.54778">
        <ele>30</ele>
        <time>2019-07-17T13:28:10Z</time>
      </trkpt>
      <trkpt lat="47.7848" lon="-3.54773">
        <ele>30</ele>
        <time>2019-07-17T13:28:11Z</time>
      </trkpt>
      <trkpt lat="47.78483" lon="-3.54768">
        <ele>31</ele>
        <time>2019-07-17T13:28:12Z</time>
      </trkpt>
      <trkpt lat="47.78485" lon="-3.54762">
        <ele>31</ele>
        <time>2019-07-17T13:28:13Z</time>
      </trkpt>
      <trkpt lat="47.78486" lon="-3.54756">
        <ele>31</ele>
        <time>2019-07-17T13:28:14Z</time>
      </trkpt>
      <trkpt lat="47.78488" lon="-3.5475">
        <ele>31</ele>
        <time>2019-07-17T13:28:15Z</time>
      </trkpt>
      <trkpt lat="47.78489" lon="-3.54744">
        <ele>31</ele>
        <time>2019-07-17T13:28:16Z</time>
      </trkpt>
      <trkpt lat="47.78491" lon="-3.54738">
        <ele>31</ele>
        <time>2019-07-17T13:28:17Z</time>
      </trkpt>
      <trkpt lat="47.78492" lon="-3.54731">
        <ele>31</ele>
        <time>2019-07-17T13:28:18Z</time>
      </trkpt>
      <trkpt lat="47.78494" lon="-3.54725">
        <ele>31</ele>
        <time>2019-07-17T13:28:19Z</time>
      </trkpt>
      <trkpt lat="47.78496" lon="-3.54718">
        <ele>31</ele>
        <time>2019-07-17T13:28:20Z</time>
      </trkpt>
      <trkpt lat="47.78497" lon="-3.54711">
        <ele>31</ele>
        <time>2019-07-17T13:28:21Z</time>
      </trkpt>
      <trkpt lat="47.78499" lon="-3.54704">
        <ele>31</ele>
        <time>2019-07-17T13:28:22Z</time>
      </trkpt>
      <trkpt lat="47.78501" lon="-3.54698">
        <ele>31</ele>
        <time>2019-07-17T13:28:23Z</time>
      </trkpt>
      <trkpt lat="47.78503" lon="-3.54691">
        <ele>31</ele>
        <time>2019-07-17T13:28:24Z</time>
      </trkpt>
      <trkpt lat="47.78504" lon="-3.54683">
        <ele>31</ele>
        <time>2019-07-17T13:28:25Z</time>
      </trkpt>
      <trkpt lat="47.78503" lon="-3.54676">
        <ele>31</ele>
        <time>2019-07-17T13:28:26Z</time>
      </trkpt>
      <trkpt lat="47.785" lon="-3.5467">
        <ele>31</ele>
        <time>2019-07-17T13:28:27Z</time>
      </trkpt>
      <trkpt lat="47.78497" lon="-3.54664">
        <ele>31</ele>
        <time>2019-07-17T13:28:28Z</time>
      </trkpt>
      <trkpt lat="47.78494" lon="-3.54661">
        <ele>32</ele>
        <time>2019-07-17T13:28:29Z</time>
      </trkpt>
      <trkpt lat="47.78491" lon="-3.54658">
        <ele>32</ele>
        <time>2019-07-17T13:28:30Z</time>
      </trkpt>
      <trkpt lat="47.78488" lon="-3.54655">
        <ele>32</ele>
        <time>2019-07-17T13:28:31Z</time>
      </trkpt>
      <trkpt lat="47.78484" lon="-3.54652">
        <ele>32</ele>
        <time>2019-07-17T13:28:32Z</time>
      </trkpt>
      <trkpt lat="47.7848" lon="-3.5465">
        <ele>32</ele>
        <time>2019-07-17T13:28:33Z</time>
      </trkpt>
      <trkpt lat="47.78476" lon="-3.54647">
        <ele>32</ele>
        <time>2019-07-17T13:28:34Z</time>
      </trkpt>
      <trkpt lat="47.78472" lon="-3.54645">
        <ele>32</ele>
        <time>2019-07-17T13:28:35Z</time>
      </trkpt>
      <trkpt lat="47.78468" lon="-3.54642">
        <ele>32</ele>
        <time>2019-07-17T13:28:36Z</time>
      </trkpt>
      <trkpt lat="47.78463" lon="-3.5464">
        <ele>32</ele>
        <time>2019-07-17T13:28:37Z</time>
      </trkpt>
      <trkpt lat="47.78459" lon="-3.54638">
        <ele>32</ele>
        <time>2019-07-17T13:28:38Z</time>
      </trkpt>
      <trkpt lat="47.78455" lon="-3.54635">
        <ele>32</ele>
        <time>2019-07-17T13:28:39Z</time>
      </trkpt>
      <trkpt lat="47.78451" lon="-3.54633">
        <ele>33</ele>
        <time>2019-07-17T13:28:40Z</time>
      </trkpt>
      <trkpt lat="47.78446" lon="-3.54632">
        <ele>33</ele>
        <time>2019-07-17T13:28:41Z</time>
      </trkpt>
      <trkpt lat="47.78442" lon="-3.5463">
        <ele>33</ele>
        <time>2019-07-17T13:28:42Z</time>
      </trkpt>
      <trkpt lat="47.78437" lon="-3.54628">
        <ele>33</ele>
        <time>2019-07-17T13:28:43Z</time>
      </trkpt>
      <trkpt lat="47.78433" lon="-3.54627">
        <ele>33</ele>
        <time>2019-07-17T13:28:44Z</time>
      </trkpt>
      <trkpt lat="47.78428" lon="-3.54625">
        <ele>33</ele>
        <time>2019-07-17T13:28:45Z</time>
      </trkpt>
      <trkpt lat="47.78423" lon="-3.54624">
        <ele>33</ele>
        <time>2019-07-17T13:28:46Z</time>
      </trkpt>
      <trkpt lat="47.78419" lon="-3.54623">
        <ele>33</ele>
        <time>2019-07-17T13:28:47Z</time>
      </trkpt>
      <trkpt lat="47.78414" lon="-3.54622">
        <ele>33</ele>
        <time>2019-07-17T13:28:48Z</time>
      </trkpt>
      <trkpt lat="47.7841" lon="-3.5462">
        <ele>33</ele>
        <time>2019-07-17T13:28:49Z</time>
      </trkpt>
      <trkpt lat="47.78406" lon="-3.54618">
        <ele>34</ele>
        <time>2019-07-17T13:28:50Z</time>
      </trkpt>
      <trkpt lat="47.78402" lon="-3.54613">
        <ele>34</ele>
        <time>2019-07-17T13:28:51Z</time>
      </trkpt>
      <trkpt lat="47.78399" lon="-3.54609">
        <ele>34</ele>
        <time>2019-07-17T13:28:52Z</time>
      </trkpt>
      <trkpt lat="47.78398" lon="-3.54603">
        <ele>34</ele>
        <time>2019-07-17T13:28:53Z</time>
      </trkpt>
      <trkpt lat="47.78396" lon="-3.54597">
        <ele>34</ele>
        <time>2019-07-17T13:28:54Z</time>
      </trkpt>
      <trkpt lat="47.78396" lon="-3.5459">
        <ele>34</ele>
        <time>2019-07-17T13:28:55Z</time>
      </trkpt>
      <trkpt lat="47.78395" lon="-3.54583">
        <ele>34</ele>
        <time>2019-07-17T13:28:56Z</time>
      </trkpt>
      <trkpt lat="47.78394" lon="-3.54576">
        <ele>34</ele>
        <time>2019-07-17T13:28:57Z</time>
      </trkpt>
      <trkpt lat="47.78394" lon="-3.5457">
        <ele>34</ele>
        <time>2019-07-17T13:28:58Z</time>
      </trkpt>
      <trkpt lat="47.78394" lon="-3.54563">
        <ele>34</ele>
        <time>2019-07-17T13:28:59Z</time>
      </trkpt>
      <trkpt lat="47.78393" lon="-3.54556">
        <ele>34</ele>
        <time>2019-07-17T13:29:00Z</time>
      </trkpt>
      <trkpt lat="47.78393" lon="-3.54549">
        <ele>34</ele>
        <time>2019-07-17T13:29:01Z</time>
      </trkpt>
      <trkpt lat="47.78393" lon="-3.54543">
        <ele>34</ele>
        <time>2019-07-17T13:29:02Z</time>
      </trkpt>
      <trkpt lat="47.78393" lon="-3.54536">
        <ele>34</ele>
        <time>2019-07-17T13:29:03Z</time>
      </trkpt>
      <trkpt lat="47.78393" lon="-3.5453">
        <ele>34</ele>
        <time>2019-07-17T13:29:04Z</time>
      </trkpt>
      <trkpt lat="47.78392" lon="-3.54523">
        <ele>34</ele>
        <time>2019-07-17T13:29:05Z</time>
      </trkpt>
      <trkpt lat="47.78392" lon="-3.54516">
        <ele>34</ele>
        <time>2019-07-17T13:29:06Z</time>
      </trkpt>
      <trkpt lat="47.78392" lon="-3.54509">
        <ele>34</ele>
        <time>2019-07-17T13:29:07Z</time>
      </trkpt>
      <trkpt lat="47.78392" lon="-3.54503">
        <ele>34</ele>
        <time>2019-07-17T13:29:08Z</time>
      </trkpt>
      <trkpt lat="47.78392" lon="-3.54497">
        <ele>34</ele>
        <time>2019-07-17T13:29:09Z</time>
      </trkpt>
      <trkpt lat="47.78392" lon="-3.54491">
        <ele>34</ele>
        <time>2019-07-17T13:29:10Z</time>
      </trkpt>
      <trkpt lat="47.78392" lon="-3.54485">
        <ele>34</ele>
        <time>2019-07-17T13:29:11Z</time>
      </trkpt>
      <trkpt lat="47.78392" lon="-3.5448">
        <ele>34</ele>
        <time>2019-07-17T13:29:12Z</time>
      </trkpt>
      <trkpt lat="47.78392" lon="-3.54474">
        <ele>34</ele>
        <time>2019-07-17T13:29:13Z</time>
      </trkpt>
      <trkpt lat="47.78392" lon="-3.54467">
        <ele>34</ele>
        <time>2019-07-17T13:29:14Z</time>
      </trkpt>
      <trkpt lat="47.78392" lon="-3.54461">
        <ele>34</ele>
        <time>2019-07-17T13:29:15Z</time>
      </trkpt>
      <trkpt lat="47.78393" lon="-3.54454">
        <ele>34</ele>
        <time>2019-07-17T13:29:16Z</time>
      </trkpt>
      <trkpt lat="47.78393" lon="-3.54448">
        <ele>34</ele>
        <time>2019-07-17T13:29:17Z</time>
      </trkpt>
      <trkpt lat="47.78393" lon="-3.54441">
        <ele>34</ele>
        <time>2019-07-17T13:29:18Z</time>
      </trkpt>
      <trkpt lat="47.78393" lon="-3.54433">
        <ele>34</ele>
        <time>2019-07-17T13:29:19Z</time>
      </trkpt>
      <trkpt lat="47.78393" lon="-3.54426">
        <ele>34</ele>
        <time>2019-07-17T13:29:20Z</time>
      </trkpt>
      <trkpt lat="47.78393" lon="-3.54418">
        <ele>34</ele>
        <time>2019-07-17T13:29:21Z</time>
      </trkpt>
      <trkpt lat="47.78393" lon="-3.54411">
        <ele>34</ele>
        <time>2019-07-17T13:29:22Z</time>
      </trkpt>
      <trkpt lat="47.78394" lon="-3.54403">
        <ele>34</ele>
        <time>2019-07-17T13:29:23Z</time>
      </trkpt>
      <trkpt lat="47.78395" lon="-3.54395">
        <ele>34</ele>
        <time>2019-07-17T13:29:24Z</time>
      </trkpt>
      <trkpt lat="47.78395" lon="-3.54387">
        <ele>34</ele>
        <time>2019-07-17T13:29:25Z</time>
      </trkpt>
      <trkpt lat="47.78396" lon="-3.54378">
        <ele>34</ele>
        <time>2019-07-17T13:29:26Z</time>
      </trkpt>
      <trkpt lat="47.78396" lon="-3.5437">
        <ele>34</ele>
        <time>2019-07-17T13:29:27Z</time>
      </trkpt>
      <trkpt lat="47.78397" lon="-3.54362">
        <ele>34</ele>
        <time>2019-07-17T13:29:28Z</time>
      </trkpt>
      <trkpt lat="47.78399" lon="-3.54354">
        <ele>35</ele>
        <time>2019-07-17T13:29:29Z</time>
      </trkpt>
      <trkpt lat="47.78401" lon="-3.54346">
        <ele>35</ele>
        <time>2019-07-17T13:29:30Z</time>
      </trkpt>
      <trkpt lat="47.78403" lon="-3.54339">
        <ele>35</ele>
        <time>2019-07-17T13:29:31Z</time>
      </trkpt>
      <trkpt lat="47.78406" lon="-3.54331">
        <ele>35</ele>
        <time>2019-07-17T13:29:32Z</time>
      </trkpt>
      <trkpt lat="47.78409" lon="-3.54325">
        <ele>35</ele>
        <time>2019-07-17T13:29:33Z</time>
      </trkpt>
      <trkpt lat="47.78412" lon="-3.54318">
        <ele>35</ele>
        <time>2019-07-17T13:29:34Z</time>
      </trkpt>
      <trkpt lat="47.78416" lon="-3.54312">
        <ele>35</ele>
        <time>2019-07-17T13:29:35Z</time>
      </trkpt>
      <trkpt lat="47.7842" lon="-3.54305">
        <ele>35</ele>
        <time>2019-07-17T13:29:36Z</time>
      </trkpt>
      <trkpt lat="47.78424" lon="-3.54298">
        <ele>35</ele>
        <time>2019-07-17T13:29:37Z</time>
      </trkpt>
      <trkpt lat="47.78428" lon="-3.54291">
        <ele>35</ele>
        <time>2019-07-17T13:29:38Z</time>
      </trkpt>
      <trkpt lat="47.78432" lon="-3.54283">
        <ele>35</ele>
        <time>2019-07-17T13:29:39Z</time>
      </trkpt>
      <trkpt lat="47.78436" lon="-3.54276">
        <ele>35</ele>
        <time>2019-07-17T13:29:40Z</time>
      </trkpt>
      <trkpt lat="47.7844" lon="-3.54268">
        <ele>35</ele>
        <time>2019-07-17T13:29:41Z</time>
      </trkpt>
      <trkpt lat="47.78444" lon="-3.54259">
        <ele>35</ele>
        <time>2019-07-17T13:29:42Z</time>
      </trkpt>
      <trkpt lat="47.78449" lon="-3.54251">
        <ele>34</ele>
        <time>2019-07-17T13:29:43Z</time>
      </trkpt>
      <trkpt lat="47.78453" lon="-3.54242">
        <ele>34</ele>
        <time>2019-07-17T13:29:44Z</time>
      </trkpt>
      <trkpt lat="47.78458" lon="-3.54234">
        <ele>34</ele>
        <time>2019-07-17T13:29:45Z</time>
      </trkpt>
      <trkpt lat="47.78463" lon="-3.54224">
        <ele>34</ele>
        <time>2019-07-17T13:29:46Z</time>
      </trkpt>
      <trkpt lat="47.78468" lon="-3.54215">
        <ele>33</ele>
        <time>2019-07-17T13:29:47Z</time>
      </trkpt>
      <trkpt lat="47.78472" lon="-3.54205">
        <ele>33</ele>
        <time>2019-07-17T13:29:48Z</time>
      </trkpt>
      <trkpt lat="47.78478" lon="-3.54195">
        <ele>33</ele>
        <time>2019-07-17T13:29:49Z</time>
      </trkpt>
      <trkpt lat="47.78483" lon="-3.54185">
        <ele>32</ele>
        <time>2019-07-17T13:29:50Z</time>
      </trkpt>
      <trkpt lat="47.78489" lon="-3.54174">
        <ele>32</ele>
        <time>2019-07-17T13:29:51Z</time>
      </trkpt>
      <trkpt lat="47.78495" lon="-3.54164">
        <ele>31</ele>
        <time>2019-07-17T13:29:52Z</time>
      </trkpt>
      <trkpt lat="47.78501" lon="-3.54153">
        <ele>31</ele>
        <time>2019-07-17T13:29:53Z</time>
      </trkpt>
      <trkpt lat="47.78508" lon="-3.54143">
        <ele>31</ele>
        <time>2019-07-17T13:29:54Z</time>
      </trkpt>
      <trkpt lat="47.78515" lon="-3.54134">
        <ele>30</ele>
        <time>2019-07-17T13:29:55Z</time>
      </trkpt>
      <trkpt lat="47.78523" lon="-3.54125">
        <ele>30</ele>
        <time>2019-07-17T13:29:56Z</time>
      </trkpt>
      <trkpt lat="47.78531" lon="-3.54116">
        <ele>30</ele>
        <time>2019-07-17T13:29:57Z</time>
      </trkpt>
      <trkpt lat="47.78539" lon="-3.54107">
        <ele>30</ele>
        <time>2019-07-17T13:29:58Z</time>
      </trkpt>
      <trkpt lat="47.78547" lon="-3.54099">
        <ele>29</ele>
        <time>2019-07-17T13:29:59Z</time>
      </trkpt>
      <trkpt lat="47.78554" lon="-3.5409">
        <ele>29</ele>
        <time>2019-07-17T13:30:00Z</time>
      </trkpt>
      <trkpt lat="47.78562" lon="-3.54082">
        <ele>29</ele>
        <time>2019-07-17T13:30:01Z</time>
      </trkpt>
      <trkpt lat="47.7857" lon="-3.54074">
        <ele>29</ele>
        <time>2019-07-17T13:30:02Z</time>
      </trkpt>
      <trkpt lat="47.78577" lon="-3.54065">
        <ele>29</ele>
        <time>2019-07-17T13:30:03Z</time>
      </trkpt>
      <trkpt lat="47.78584" lon="-3.54057">
        <ele>29</ele>
        <time>2019-07-17T13:30:04Z</time>
      </trkpt>
      <trkpt lat="47.78592" lon="-3.5405">
        <ele>29</ele>
        <time>2019-07-17T13:30:05Z</time>
      </trkpt>
      <trkpt lat="47.78599" lon="-3.54044">
        <ele>29</ele>
        <time>2019-07-17T13:30:06Z</time>
      </trkpt>
      <trkpt lat="47.78606" lon="-3.54037">
        <ele>29</ele>
        <time>2019-07-17T13:30:07Z</time>
      </trkpt>
      <trkpt lat="47.78612" lon="-3.54028">
        <ele>29</ele>
        <time>2019-07-17T13:30:08Z</time>
      </trkpt>
      <trkpt lat="47.78617" lon="-3.54019">
        <ele>29</ele>
        <time>2019-07-17T13:30:09Z</time>
      </trkpt>
      <trkpt lat="47.7862" lon="-3.54008">
        <ele>29</ele>
        <time>2019-07-17T13:30:10Z</time>
      </trkpt>
      <trkpt lat="47.78621" lon="-3.53998">
        <ele>29</ele>
        <time>2019-07-17T13:30:11Z</time>
      </trkpt>
      <trkpt lat="47.78622" lon="-3.53988">
        <ele>29</ele>
        <time>2019-07-17T13:30:12Z</time>
      </trkpt>
      <trkpt lat="47.78622" lon="-3.53978">
        <ele>29</ele>
        <time>2019-07-17T13:30:13Z</time>
      </trkpt>
      <trkpt lat="47.78623" lon="-3.53969">
        <ele>29</ele>
        <time>2019-07-17T13:30:14Z</time>
      </trkpt>
      <trkpt lat="47.78623" lon="-3.53961">
        <ele>29</ele>
        <time>2019-07-17T13:30:15Z</time>
      </trkpt>
      <trkpt lat="47.78624" lon="-3.53952">
        <ele>29</ele>
        <time>2019-07-17T13:30:16Z</time>
      </trkpt>
      <trkpt lat="47.78625" lon="-3.53944">
        <ele>29</ele>
        <time>2019-07-17T13:30:17Z</time>
      </trkpt>
      <trkpt lat="47.78625" lon="-3.53936">
        <ele>29</ele>
        <time>2019-07-17T13:30:18Z</time>
      </trkpt>
      <trkpt lat="47.78626" lon="-3.53927">
        <ele>29</ele>
        <time>2019-07-17T13:30:19Z</time>
      </trkpt>
      <trkpt lat="47.78627" lon="-3.53919">
        <ele>30</ele>
        <time>2019-07-17T13:30:20Z</time>
      </trkpt>
      <trkpt lat="47.78628" lon="-3.53911">
        <ele>30</ele>
        <time>2019-07-17T13:30:21Z</time>
      </trkpt>
      <trkpt lat="47.78628" lon="-3.53903">
        <ele>30</ele>
        <time>2019-07-17T13:30:22Z</time>
      </trkpt>
      <trkpt lat="47.78629" lon="-3.53894">
        <ele>30</ele>
        <time>2019-07-17T13:30:23Z</time>
      </trkpt>
      <trkpt lat="47.78629" lon="-3.53886">
        <ele>30</ele>
        <time>2019-07-17T13:30:24Z</time>
      </trkpt>
      <trkpt lat="47.7863" lon="-3.53878">
        <ele>30</ele>
        <time>2019-07-17T13:30:25Z</time>
      </trkpt>
      <trkpt lat="47.78631" lon="-3.5387">
        <ele>30</ele>
        <time>2019-07-17T13:30:26Z</time>
      </trkpt>
      <trkpt lat="47.78632" lon="-3.53862">
        <ele>30</ele>
        <time>2019-07-17T13:30:27Z</time>
      </trkpt>
      <trkpt lat="47.78633" lon="-3.53854">
        <ele>31</ele>
        <time>2019-07-17T13:30:28Z</time>
      </trkpt>
      <trkpt lat="47.78634" lon="-3.53847">
        <ele>31</ele>
        <time>2019-07-17T13:30:29Z</time>
      </trkpt>
      <trkpt lat="47.78635" lon="-3.53839">
        <ele>31</ele>
        <time>2019-07-17T13:30:30Z</time>
      </trkpt>
      <trkpt lat="47.78636" lon="-3.53831">
        <ele>31</ele>
        <time>2019-07-17T13:30:31Z</time>
      </trkpt>
      <trkpt lat="47.78638" lon="-3.53824">
        <ele>32</ele>
        <time>2019-07-17T13:30:32Z</time>
      </trkpt>
      <trkpt lat="47.78639" lon="-3.53816">
        <ele>32</ele>
        <time>2019-07-17T13:30:33Z</time>
      </trkpt>
      <trkpt lat="47.78641" lon="-3.53809">
        <ele>32</ele>
        <time>2019-07-17T13:30:34Z</time>
      </trkpt>
      <trkpt lat="47.78642" lon="-3.53802">
        <ele>32</ele>
        <time>2019-07-17T13:30:35Z</time>
      </trkpt>
      <trkpt lat="47.78643" lon="-3.53796">
        <ele>33</ele>
        <time>2019-07-17T13:30:36Z</time>
      </trkpt>
      <trkpt lat="47.78643" lon="-3.5379">
        <ele>33</ele>
        <time>2019-07-17T13:30:37Z</time>
      </trkpt>
      <trkpt lat="47.78644" lon="-3.53784">
        <ele>33</ele>
        <time>2019-07-17T13:30:38Z</time>
      </trkpt>
      <trkpt lat="47.78644" lon="-3.53778">
        <ele>33</ele>
        <time>2019-07-17T13:30:39Z</time>
      </trkpt>
      <trkpt lat="47.78645" lon="-3.53771">
        <ele>33</ele>
        <time>2019-07-17T13:30:40Z</time>
      </trkpt>
      <trkpt lat="47.78645" lon="-3.53765">
        <ele>33</ele>
        <time>2019-07-17T13:30:41Z</time>
      </trkpt>
      <trkpt lat="47.78646" lon="-3.53758">
        <ele>33</ele>
        <time>2019-07-17T13:30:42Z</time>
      </trkpt>
      <trkpt lat="47.78646" lon="-3.53751">
        <ele>34</ele>
        <time>2019-07-17T13:30:43Z</time>
      </trkpt>
      <trkpt lat="47.78647" lon="-3.53743">
        <ele>34</ele>
        <time>2019-07-17T13:30:44Z</time>
      </trkpt>
      <trkpt lat="47.78647" lon="-3.53736">
        <ele>34</ele>
        <time>2019-07-17T13:30:45Z</time>
      </trkpt>
      <trkpt lat="47.78648" lon="-3.53729">
        <ele>34</ele>
        <time>2019-07-17T13:30:46Z</time>
      </trkpt>
      <trkpt lat="47.78649" lon="-3.53722">
        <ele>34</ele>
        <time>2019-07-17T13:30:47Z</time>
      </trkpt>
      <trkpt lat="47.78649" lon="-3.53714">
        <ele>34</ele>
        <time>2019-07-17T13:30:48Z</time>
      </trkpt>
      <trkpt lat="47.7865" lon="-3.53707">
        <ele>35</ele>
        <time>2019-07-17T13:30:49Z</time>
      </trkpt>
      <trkpt lat="47.78651" lon="-3.537">
        <ele>35</ele>
        <time>2019-07-17T13:30:50Z</time>
      </trkpt>
      <trkpt lat="47.78651" lon="-3.53693">
        <ele>35</ele>
        <time>2019-07-17T13:30:51Z</time>
      </trkpt>
      <trkpt lat="47.78651" lon="-3.53686">
        <ele>35</ele>
        <time>2019-07-17T13:30:52Z</time>
      </trkpt>
      <trkpt lat="47.78651" lon="-3.5368">
        <ele>35</ele>
        <time>2019-07-17T13:30:53Z</time>
      </trkpt>
      <trkpt lat="47.78652" lon="-3.53675">
        <ele>35</ele>
        <time>2019-07-17T13:30:54Z</time>
      </trkpt>
      <trkpt lat="47.78651" lon="-3.5367">
        <ele>35</ele>
        <time>2019-07-17T13:30:55Z</time>
      </trkpt>
      <trkpt lat="47.78651" lon="-3.53665">
        <ele>35</ele>
        <time>2019-07-17T13:30:56Z</time>
      </trkpt>
      <trkpt lat="47.78651" lon="-3.5366">
        <ele>35</ele>
        <time>2019-07-17T13:30:57Z</time>
      </trkpt>
      <trkpt lat="47.78652" lon="-3.53654">
        <ele>35</ele>
        <time>2019-07-17T13:30:58Z</time>
      </trkpt>
      <trkpt lat="47.78652" lon="-3.53649">
        <ele>35</ele>
        <time>2019-07-17T13:30:59Z</time>
      </trkpt>
      <trkpt lat="47.78653" lon="-3.53644">
        <ele>35</ele>
        <time>2019-07-17T13:31:00Z</time>
      </trkpt>
      <trkpt lat="47.78653" lon="-3.53638">
        <ele>35</ele>
        <time>2019-07-17T13:31:01Z</time>
      </trkpt>
      <trkpt lat="47.78655" lon="-3.53632">
        <ele>36</ele>
        <time>2019-07-17T13:31:02Z</time>
      </trkpt>
      <trkpt lat="47.78656" lon="-3.53627">
        <ele>36</ele>
        <time>2019-07-17T13:31:03Z</time>
      </trkpt>
      <trkpt lat="47.78658" lon="-3.53621">
        <ele>36</ele>
        <time>2019-07-17T13:31:04Z</time>
      </trkpt>
      <trkpt lat="47.7866" lon="-3.53618">
        <ele>36</ele>
        <time>2019-07-17T13:31:05Z</time>
      </trkpt>
      <trkpt lat="47.78663" lon="-3.53617">
        <ele>36</ele>
        <time>2019-07-17T13:31:06Z</time>
      </trkpt>
      <trkpt lat="47.78665" lon="-3.53615">
        <ele>36</ele>
        <time>2019-07-17T13:31:07Z</time>
      </trkpt>
      <trkpt lat="47.78666" lon="-3.53615">
        <ele>36</ele>
        <time>2019-07-17T13:31:08Z</time>
      </trkpt>
      <trkpt lat="47.78667" lon="-3.53614">
        <ele>36</ele>
        <time>2019-07-17T13:31:09Z</time>
      </trkpt>
      <trkpt lat="47.78667" lon="-3.53614">
        <ele>36</ele>
        <time>2019-07-17T13:31:10Z</time>
      </trkpt>
      <trkpt lat="47.78666" lon="-3.53617">
        <ele>36</ele>
        <time>2019-07-17T13:31:11Z</time>
      </trkpt>
      <trkpt lat="47.78664" lon="-3.53618">
        <ele>36</ele>
        <time>2019-07-17T13:31:12Z</time>
      </trkpt>
      <trkpt lat="47.78662" lon="-3.53619">
        <ele>36</ele>
        <time>2019-07-17T13:31:13Z</time>
      </trkpt>
      <trkpt lat="47.78659" lon="-3.53622">
        <ele>36</ele>
        <time>2019-07-17T13:31:14Z</time>
      </trkpt>
      <trkpt lat="47.78658" lon="-3.53626">
        <ele>36</ele>
        <time>2019-07-17T13:31:15Z</time>
      </trkpt>
      <trkpt lat="47.78656" lon="-3.5363">
        <ele>36</ele>
        <time>2019-07-17T13:31:16Z</time>
      </trkpt>
      <trkpt lat="47.78655" lon="-3.53635">
        <ele>36</ele>
        <time>2019-07-17T13:31:17Z</time>
      </trkpt>
      <trkpt lat="47.78655" lon="-3.5364">
        <ele>36</ele>
        <time>2019-07-17T13:31:18Z</time>
      </trkpt>
      <trkpt lat="47.78654" lon="-3.53645">
        <ele>36</ele>
        <time>2019-07-17T13:31:19Z</time>
      </trkpt>
      <trkpt lat="47.78654" lon="-3.5365">
        <ele>36</ele>
        <time>2019-07-17T13:31:20Z</time>
      </trkpt>
      <trkpt lat="47.78654" lon="-3.53657">
        <ele>36</ele>
        <time>2019-07-17T13:31:21Z</time>
      </trkpt>
      <trkpt lat="47.78653" lon="-3.53663">
        <ele>36</ele>
        <time>2019-07-17T13:31:22Z</time>
      </trkpt>
      <trkpt lat="47.78653" lon="-3.5367">
        <ele>36</ele>
        <time>2019-07-17T13:31:23Z</time>
      </trkpt>
      <trkpt lat="47.78653" lon="-3.53678">
        <ele>36</ele>
        <time>2019-07-17T13:31:24Z</time>
      </trkpt>
      <trkpt lat="47.78652" lon="-3.53685">
        <ele>36</ele>
        <time>2019-07-17T13:31:25Z</time>
      </trkpt>
      <trkpt lat="47.78651" lon="-3.53693">
        <ele>36</ele>
        <time>2019-07-17T13:31:26Z</time>
      </trkpt>
      <trkpt lat="47.78651" lon="-3.53701">
        <ele>36</ele>
        <time>2019-07-17T13:31:27Z</time>
      </trkpt>
      <trkpt lat="47.7865" lon="-3.53709">
        <ele>36</ele>
        <time>2019-07-17T13:31:28Z</time>
      </trkpt>
      <trkpt lat="47.7865" lon="-3.53717">
        <ele>36</ele>
        <time>2019-07-17T13:31:29Z</time>
      </trkpt>
      <trkpt lat="47.78649" lon="-3.53725">
        <ele>36</ele>
        <time>2019-07-17T13:31:30Z</time>
      </trkpt>
      <trkpt lat="47.78648" lon="-3.53733">
        <ele>36</ele>
        <time>2019-07-17T13:31:31Z</time>
      </trkpt>
      <trkpt lat="47.78647" lon="-3.53741">
        <ele>36</ele>
        <time>2019-07-17T13:31:32Z</time>
      </trkpt>
      <trkpt lat="47.78646" lon="-3.53749">
        <ele>36</ele>
        <time>2019-07-17T13:31:33Z</time>
      </trkpt>
      <trkpt lat="47.78645" lon="-3.53756">
        <ele>36</ele>
        <time>2019-07-17T13:31:34Z</time>
      </trkpt>
      <trkpt lat="47.78644" lon="-3.53764">
        <ele>35</ele>
        <time>2019-07-17T13:31:35Z</time>
      </trkpt>
      <trkpt lat="47.78643" lon="-3.53772">
        <ele>35</ele>
        <time>2019-07-17T13:31:36Z</time>
      </trkpt>
      <trkpt lat="47.78642" lon="-3.53779">
        <ele>35</ele>
        <time>2019-07-17T13:31:37Z</time>
      </trkpt>
      <trkpt lat="47.78642" lon="-3.53786">
        <ele>35</ele>
        <time>2019-07-17T13:31:38Z</time>
      </trkpt>
      <trkpt lat="47.78645" lon="-3.5379">
        <ele>35</ele>
        <time>2019-07-17T13:31:39Z</time>
      </trkpt>
      <trkpt lat="47.78648" lon="-3.53791">
        <ele>35</ele>
        <time>2019-07-17T13:31:40Z</time>
      </trkpt>
      <trkpt lat="47.78651" lon="-3.5379">
        <ele>35</ele>
        <time>2019-07-17T13:31:41Z</time>
      </trkpt>
      <trkpt lat="47.78653" lon="-3.53787">
        <ele>35</ele>
        <time>2019-07-17T13:31:42Z</time>
      </trkpt>
      <trkpt lat="47.78656" lon="-3.53785">
        <ele>35</ele>
        <time>2019-07-17T13:31:43Z</time>
      </trkpt>
      <trkpt lat="47.78659" lon="-3.53782">
        <ele>35</ele>
        <time>2019-07-17T13:31:44Z</time>
      </trkpt>
      <trkpt lat="47.78662" lon="-3.53779">
        <ele>35</ele>
        <time>2019-07-17T13:31:45Z</time>
      </trkpt>
      <trkpt lat="47.78665" lon="-3.53777">
        <ele>35</ele>
        <time>2019-07-17T13:31:46Z</time>
      </trkpt>
      <trkpt lat="47.78668" lon="-3.53774">
        <ele>35</ele>
        <time>2019-07-17T13:31:47Z</time>
      </trkpt>
      <trkpt lat="47.78672" lon="-3.53772">
        <ele>35</ele>
        <time>2019-07-17T13:31:48Z</time>
      </trkpt>
      <trkpt lat="47.78675" lon="-3.53772">
        <ele>35</ele>
        <time>2019-07-17T13:31:49Z</time>
      </trkpt>
      <trkpt lat="47.78679" lon="-3.53773">
        <ele>35</ele>
        <time>2019-07-17T13:31:50Z</time>
      </trkpt>
      <trkpt lat="47.78682" lon="-3.53774">
        <ele>35</ele>
        <time>2019-07-17T13:31:51Z</time>
      </trkpt>
      <trkpt lat="47.78686" lon="-3.53774">
        <ele>35</ele>
        <time>2019-07-17T13:31:52Z</time>
      </trkpt>
      <trkpt lat="47.7869" lon="-3.53774">
        <ele>35</ele>
        <time>2019-07-17T13:31:53Z</time>
      </trkpt>
      <trkpt lat="47.78695" lon="-3.53774">
        <ele>35</ele>
        <time>2019-07-17T13:31:54Z</time>
      </trkpt>
      <trkpt lat="47.78699" lon="-3.53775">
        <ele>35</ele>
        <time>2019-07-17T13:31:55Z</time>
      </trkpt>
      <trkpt lat="47.78703" lon="-3.53775">
        <ele>35</ele>
        <time>2019-07-17T13:31:56Z</time>
      </trkpt>
      <trkpt lat="47.78707" lon="-3.53774">
        <ele>35</ele>
        <time>2019-07-17T13:31:57Z</time>
      </trkpt>
      <trkpt lat="47.78711" lon="-3.53771">
        <ele>35</ele>
        <time>2019-07-17T13:31:58Z</time>
      </trkpt>
      <trkpt lat="47.78713" lon="-3.53768">
        <ele>35</ele>
        <time>2019-07-17T13:31:59Z</time>
      </trkpt>
      <trkpt lat="47.78716" lon="-3.53764">
        <ele>35</ele>
        <time>2019-07-17T13:32:00Z</time>
      </trkpt>
      <trkpt lat="47.78719" lon="-3.5376">
        <ele>35</ele>
        <time>2019-07-17T13:32:01Z</time>
      </trkpt>
      <trkpt lat="47.78722" lon="-3.53756">
        <ele>35</ele>
        <time>2019-07-17T13:32:02Z</time>
      </trkpt>
      <trkpt lat="47.78726" lon="-3.53753">
        <ele>35</ele>
        <time>2019-07-17T13:32:03Z</time>
      </trkpt>
      <trkpt lat="47.7873" lon="-3.53749">
        <ele>35</ele>
        <time>2019-07-17T13:32:04Z</time>
      </trkpt>
      <trkpt lat="47.78733" lon="-3.53746">
        <ele>35</ele>
        <time>2019-07-17T13:32:05Z</time>
      </trkpt>
      <trkpt lat="47.78737" lon="-3.53744">
        <ele>35</ele>
        <time>2019-07-17T13:32:06Z</time>
      </trkpt>
      <trkpt lat="47.78741" lon="-3.53742">
        <ele>35</ele>
        <time>2019-07-17T13:32:07Z</time>
      </trkpt>
      <trkpt lat="47.78744" lon="-3.53741">
        <ele>35</ele>
        <time>2019-07-17T13:32:08Z</time>
      </trkpt>
      <trkpt lat="47.78748" lon="-3.53741">
        <ele>35</ele>
        <time>2019-07-17T13:32:09Z</time>
      </trkpt>
      <trkpt lat="47.78752" lon="-3.53742">
        <ele>35</ele>
        <time>2019-07-17T13:32:10Z</time>
      </trkpt>
      <trkpt lat="47.78756" lon="-3.53744">
        <ele>35</ele>
        <time>2019-07-17T13:32:11Z</time>
      </trkpt>
      <trkpt lat="47.78761" lon="-3.53746">
        <ele>35</ele>
        <time>2019-07-17T13:32:12Z</time>
      </trkpt>
      <trkpt lat="47.78765" lon="-3.53748">
        <ele>35</ele>
        <time>2019-07-17T13:32:13Z</time>
      </trkpt>
      <trkpt lat="47.78769" lon="-3.53751">
        <ele>35</ele>
        <time>2019-07-17T13:32:14Z</time>
      </trkpt>
      <trkpt lat="47.78773" lon="-3.53754">
        <ele>35</ele>
        <time>2019-07-17T13:32:15Z</time>
      </trkpt>
      <trkpt lat="47.78777" lon="-3.53757">
        <ele>35</ele>
        <time>2019-07-17T13:32:16Z</time>
      </trkpt>
      <trkpt lat="47.78781" lon="-3.53759">
        <ele>35</ele>
        <time>2019-07-17T13:32:17Z</time>
      </trkpt>
      <trkpt lat="47.78784" lon="-3.53761">
        <ele>34</ele>
        <time>2019-07-17T13:32:18Z</time>
      </trkpt>
      <trkpt lat="47.78785" lon="-3.53761">
        <ele>34</ele>
        <time>2019-07-17T13:32:19Z</time>
      </trkpt>
      <trkpt lat="47.78785" lon="-3.53761">
        <ele>34</ele>
        <time>2019-07-17T13:32:20Z</time>
      </trkpt>
      <trkpt lat="47.78785" lon="-3.53761">
        <ele>34</ele>
        <time>2019-07-17T13:32:21Z</time>
      </trkpt>
      <trkpt lat="47.78785" lon="-3.53761">
        <ele>34</ele>
        <time>2019-07-17T13:32:22Z</time>
      </trkpt>
      <trkpt lat="47.78788" lon="-3.53758">
        <ele>33</ele>
        <time>2019-07-17T13:32:23Z</time>
      </trkpt>
      <trkpt lat="47.78788" lon="-3.53758">
        <ele>33</ele>
        <time>2019-07-17T13:32:24Z</time>
      </trkpt>
      <trkpt lat="47.78789" lon="-3.53753">
        <ele>33</ele>
        <time>2019-07-17T13:32:25Z</time>
      </trkpt>
      <trkpt lat="47.7879" lon="-3.5375">
        <ele>33</ele>
        <time>2019-07-17T13:32:26Z</time>
      </trkpt>
      <trkpt lat="47.7879" lon="-3.53747">
        <ele>33</ele>
        <time>2019-07-17T13:32:27Z</time>
      </trkpt>
      <trkpt lat="47.78791" lon="-3.53744">
        <ele>33</ele>
        <time>2019-07-17T13:32:28Z</time>
      </trkpt>
      <trkpt lat="47.78792" lon="-3.5374">
        <ele>33</ele>
        <time>2019-07-17T13:32:29Z</time>
      </trkpt>
      <trkpt lat="47.78793" lon="-3.53736">
        <ele>34</ele>
        <time>2019-07-17T13:32:30Z</time>
      </trkpt>
      <trkpt lat="47.78794" lon="-3.53733">
        <ele>34</ele>
        <time>2019-07-17T13:32:31Z</time>
      </trkpt>
      <trkpt lat="47.78794" lon="-3.53729">
        <ele>34</ele>
        <time>2019-07-17T13:32:32Z</time>
      </trkpt>
      <trkpt lat="47.78796" lon="-3.53725">
        <ele>34</ele>
        <time>2019-07-17T13:32:33Z</time>
      </trkpt>
      <trkpt lat="47.78796" lon="-3.5372">
        <ele>34</ele>
        <time>2019-07-17T13:32:34Z</time>
      </trkpt>
      <trkpt lat="47.78797" lon="-3.53716">
        <ele>35</ele>
        <time>2019-07-17T13:32:35Z</time>
      </trkpt>
      <trkpt lat="47.78798" lon="-3.53712">
        <ele>35</ele>
        <time>2019-07-17T13:32:36Z</time>
      </trkpt>
      <trkpt lat="47.78799" lon="-3.53707">
        <ele>35</ele>
        <time>2019-07-17T13:32:37Z</time>
      </trkpt>
      <trkpt lat="47.788" lon="-3.53703">
        <ele>35</ele>
        <time>2019-07-17T13:32:38Z</time>
      </trkpt>
      <trkpt lat="47.788" lon="-3.53699">
        <ele>35</ele>
        <time>2019-07-17T13:32:39Z</time>
      </trkpt>
      <trkpt lat="47.78801" lon="-3.53695">
        <ele>36</ele>
        <time>2019-07-17T13:32:40Z</time>
      </trkpt>
      <trkpt lat="47.78802" lon="-3.5369">
        <ele>36</ele>
        <time>2019-07-17T13:32:41Z</time>
      </trkpt>
      <trkpt lat="47.78802" lon="-3.53686">
        <ele>36</ele>
        <time>2019-07-17T13:32:42Z</time>
      </trkpt>
      <trkpt lat="47.78803" lon="-3.53682">
        <ele>36</ele>
        <time>2019-07-17T13:32:43Z</time>
      </trkpt>
      <trkpt lat="47.78803" lon="-3.53677">
        <ele>37</ele>
        <time>2019-07-17T13:32:44Z</time>
      </trkpt>
      <trkpt lat="47.78803" lon="-3.53672">
        <ele>37</ele>
        <time>2019-07-17T13:32:45Z</time>
      </trkpt>
      <trkpt lat="47.78804" lon="-3.53667">
        <ele>37</ele>
        <time>2019-07-17T13:32:46Z</time>
      </trkpt>
      <trkpt lat="47.78804" lon="-3.53662">
        <ele>37</ele>
        <time>2019-07-17T13:32:47Z</time>
      </trkpt>
      <trkpt lat="47.78804" lon="-3.53658">
        <ele>38</ele>
        <time>2019-07-17T13:32:48Z</time>
      </trkpt>
      <trkpt lat="47.78804" lon="-3.53653">
        <ele>38</ele>
        <time>2019-07-17T13:32:49Z</time>
      </trkpt>
      <trkpt lat="47.78804" lon="-3.53648">
        <ele>38</ele>
        <time>2019-07-17T13:32:50Z</time>
      </trkpt>
      <trkpt lat="47.78805" lon="-3.53643">
        <ele>38</ele>
        <time>2019-07-17T13:32:51Z</time>
      </trkpt>
      <trkpt lat="47.78805" lon="-3.53639">
        <ele>38</ele>
        <time>2019-07-17T13:32:52Z</time>
      </trkpt>
      <trkpt lat="47.78805" lon="-3.53634">
        <ele>39</ele>
        <time>2019-07-17T13:32:53Z</time>
      </trkpt>
      <trkpt lat="47.78805" lon="-3.53629">
        <ele>39</ele>
        <time>2019-07-17T13:32:54Z</time>
      </trkpt>
      <trkpt lat="47.78806" lon="-3.53625">
        <ele>39</ele>
        <time>2019-07-17T13:32:55Z</time>
      </trkpt>
      <trkpt lat="47.78806" lon="-3.5362">
        <ele>39</ele>
        <time>2019-07-17T13:32:56Z</time>
      </trkpt>
      <trkpt lat="47.78806" lon="-3.53615">
        <ele>40</ele>
        <time>2019-07-17T13:32:57Z</time>
      </trkpt>
      <trkpt lat="47.78806" lon="-3.5361">
        <ele>40</ele>
        <time>2019-07-17T13:32:58Z</time>
      </trkpt>
      <trkpt lat="47.78806" lon="-3.53605">
        <ele>40</ele>
        <time>2019-07-17T13:32:59Z</time>
      </trkpt>
      <trkpt lat="47.78807" lon="-3.53599">
        <ele>40</ele>
        <time>2019-07-17T13:33:00Z</time>
      </trkpt>
      <trkpt lat="47.78807" lon="-3.53594">
        <ele>40</ele>
        <time>2019-07-17T13:33:01Z</time>
      </trkpt>
      <trkpt lat="47.78807" lon="-3.53589">
        <ele>40</ele>
        <time>2019-07-17T13:33:02Z</time>
      </trkpt>
      <trkpt lat="47.78807" lon="-3.53584">
        <ele>40</ele>
        <time>2019-07-17T13:33:03Z</time>
      </trkpt>
      <trkpt lat="47.78807" lon="-3.53578">
        <ele>41</ele>
        <time>2019-07-17T13:33:04Z</time>
      </trkpt>
      <trkpt lat="47.78808" lon="-3.53573">
        <ele>41</ele>
        <time>2019-07-17T13:33:05Z</time>
      </trkpt>
      <trkpt lat="47.78808" lon="-3.53568">
        <ele>41</ele>
        <time>2019-07-17T13:33:06Z</time>
      </trkpt>
      <trkpt lat="47.78808" lon="-3.53563">
        <ele>41</ele>
        <time>2019-07-17T13:33:07Z</time>
      </trkpt>
      <trkpt lat="47.78809" lon="-3.53558">
        <ele>41</ele>
        <time>2019-07-17T13:33:08Z</time>
      </trkpt>
      <trkpt lat="47.78809" lon="-3.53554">
        <ele>41</ele>
        <time>2019-07-17T13:33:09Z</time>
      </trkpt>
      <trkpt lat="47.78809" lon="-3.53549">
        <ele>41</ele>
        <time>2019-07-17T13:33:10Z</time>
      </trkpt>
      <trkpt lat="47.78809" lon="-3.53545">
        <ele>41</ele>
        <time>2019-07-17T13:33:11Z</time>
      </trkpt>
      <trkpt lat="47.78809" lon="-3.5354">
        <ele>41</ele>
        <time>2019-07-17T13:33:12Z</time>
      </trkpt>
      <trkpt lat="47.7881" lon="-3.53535">
        <ele>42</ele>
        <time>2019-07-17T13:33:13Z</time>
      </trkpt>
      <trkpt lat="47.78811" lon="-3.5353">
        <ele>42</ele>
        <time>2019-07-17T13:33:14Z</time>
      </trkpt>
      <trkpt lat="47.78811" lon="-3.53525">
        <ele>42</ele>
        <time>2019-07-17T13:33:15Z</time>
      </trkpt>
      <trkpt lat="47.78812" lon="-3.53521">
        <ele>42</ele>
        <time>2019-07-17T13:33:16Z</time>
      </trkpt>
      <trkpt lat="47.78812" lon="-3.53517">
        <ele>42</ele>
        <time>2019-07-17T13:33:17Z</time>
      </trkpt>
      <trkpt lat="47.78812" lon="-3.53514">
        <ele>42</ele>
        <time>2019-07-17T13:33:18Z</time>
      </trkpt>
      <trkpt lat="47.78812" lon="-3.53513">
        <ele>42</ele>
        <time>2019-07-17T13:33:19Z</time>
      </trkpt>
      <trkpt lat="47.78812" lon="-3.53513">
        <ele>42</ele>
        <time>2019-07-17T13:33:20Z</time>
      </trkpt>
      <trkpt lat="47.78812" lon="-3.53513">
        <ele>42</ele>
        <time>2019-07-17T13:33:21Z</time>
      </trkpt>
      <trkpt lat="47.78812" lon="-3.53519">
        <ele>42</ele>
        <time>2019-07-17T13:33:22Z</time>
      </trkpt>
      <trkpt lat="47.78811" lon="-3.53521">
        <ele>42</ele>
        <time>2019-07-17T13:33:23Z</time>
      </trkpt>
      <trkpt lat="47.78811" lon="-3.53525">
        <ele>42</ele>
        <time>2019-07-17T13:33:24Z</time>
      </trkpt>
      <trkpt lat="47.78811" lon="-3.53529">
        <ele>42</ele>
        <time>2019-07-17T13:33:25Z</time>
      </trkpt>
      <trkpt lat="47.78811" lon="-3.53535">
        <ele>41</ele>
        <time>2019-07-17T13:33:26Z</time>
      </trkpt>
      <trkpt lat="47.7881" lon="-3.5354">
        <ele>41</ele>
        <time>2019-07-17T13:33:27Z</time>
      </trkpt>
      <trkpt lat="47.7881" lon="-3.53546">
        <ele>41</ele>
        <time>2019-07-17T13:33:28Z</time>
      </trkpt>
      <trkpt lat="47.7881" lon="-3.53553">
        <ele>41</ele>
        <time>2019-07-17T13:33:29Z</time>
      </trkpt>
      <trkpt lat="47.7881" lon="-3.5356">
        <ele>41</ele>
        <time>2019-07-17T13:33:30Z</time>
      </trkpt>
      <trkpt lat="47.7881" lon="-3.53567">
        <ele>41</ele>
        <time>2019-07-17T13:33:31Z</time>
      </trkpt>
      <trkpt lat="47.78809" lon="-3.53573">
        <ele>40</ele>
        <time>2019-07-17T13:33:32Z</time>
      </trkpt>
      <trkpt lat="47.78809" lon="-3.53579">
        <ele>40</ele>
        <time>2019-07-17T13:33:33Z</time>
      </trkpt>
      <trkpt lat="47.78809" lon="-3.53586">
        <ele>40</ele>
        <time>2019-07-17T13:33:34Z</time>
      </trkpt>
      <trkpt lat="47.78809" lon="-3.53592">
        <ele>40</ele>
        <time>2019-07-17T13:33:35Z</time>
      </trkpt>
      <trkpt lat="47.78809" lon="-3.53598">
        <ele>40</ele>
        <time>2019-07-17T13:33:36Z</time>
      </trkpt>
      <trkpt lat="47.78809" lon="-3.53605">
        <ele>40</ele>
        <time>2019-07-17T13:33:37Z</time>
      </trkpt>
      <trkpt lat="47.78809" lon="-3.53612">
        <ele>39</ele>
        <time>2019-07-17T13:33:38Z</time>
      </trkpt>
      <trkpt lat="47.78808" lon="-3.53619">
        <ele>39</ele>
        <time>2019-07-17T13:33:39Z</time>
      </trkpt>
      <trkpt lat="47.78808" lon="-3.53626">
        <ele>39</ele>
        <time>2019-07-17T13:33:40Z</time>
      </trkpt>
      <trkpt lat="47.78808" lon="-3.53633">
        <ele>39</ele>
        <time>2019-07-17T13:33:41Z</time>
      </trkpt>
      <trkpt lat="47.78807" lon="-3.53641">
        <ele>39</ele>
        <time>2019-07-17T13:33:42Z</time>
      </trkpt>
      <trkpt lat="47.78807" lon="-3.53649">
        <ele>38</ele>
        <time>2019-07-17T13:33:43Z</time>
      </trkpt>
      <trkpt lat="47.78807" lon="-3.53657">
        <ele>38</ele>
        <time>2019-07-17T13:33:44Z</time>
      </trkpt>
      <trkpt lat="47.78807" lon="-3.53664">
        <ele>38</ele>
        <time>2019-07-17T13:33:45Z</time>
      </trkpt>
      <trkpt lat="47.78806" lon="-3.53672">
        <ele>37</ele>
        <time>2019-07-17T13:33:46Z</time>
      </trkpt>
      <trkpt lat="47.78806" lon="-3.53678">
        <ele>37</ele>
        <time>2019-07-17T13:33:47Z</time>
      </trkpt>
      <trkpt lat="47.78806" lon="-3.53684">
        <ele>37</ele>
        <time>2019-07-17T13:33:48Z</time>
      </trkpt>
      <trkpt lat="47.78805" lon="-3.5369">
        <ele>36</ele>
        <time>2019-07-17T13:33:49Z</time>
      </trkpt>
      <trkpt lat="47.78803" lon="-3.53697">
        <ele>36</ele>
        <time>2019-07-17T13:33:50Z</time>
      </trkpt>
      <trkpt lat="47.78802" lon="-3.53705">
        <ele>36</ele>
        <time>2019-07-17T13:33:51Z</time>
      </trkpt>
      <trkpt lat="47.788" lon="-3.53712">
        <ele>35</ele>
        <time>2019-07-17T13:33:52Z</time>
      </trkpt>
      <trkpt lat="47.78798" lon="-3.5372">
        <ele>35</ele>
        <time>2019-07-17T13:33:53Z</time>
      </trkpt>
      <trkpt lat="47.78796" lon="-3.53728">
        <ele>35</ele>
        <time>2019-07-17T13:33:54Z</time>
      </trkpt>
      <trkpt lat="47.78794" lon="-3.53736">
        <ele>35</ele>
        <time>2019-07-17T13:33:55Z</time>
      </trkpt>
      <trkpt lat="47.78793" lon="-3.53743">
        <ele>34</ele>
        <time>2019-07-17T13:33:56Z</time>
      </trkpt>
      <trkpt lat="47.78791" lon="-3.53749">
        <ele>34</ele>
        <time>2019-07-17T13:33:57Z</time>
      </trkpt>
      <trkpt lat="47.7879" lon="-3.53755">
        <ele>34</ele>
        <time>2019-07-17T13:33:58Z</time>
      </trkpt>
      <trkpt lat="47.78789" lon="-3.53759">
        <ele>33</ele>
        <time>2019-07-17T13:33:59Z</time>
      </trkpt>
      <trkpt lat="47.78789" lon="-3.5376">
        <ele>33</ele>
        <time>2019-07-17T13:34:00Z</time>
      </trkpt>
      <trkpt lat="47.78789" lon="-3.53761">
        <ele>33</ele>
        <time>2019-07-17T13:34:01Z</time>
      </trkpt>
      <trkpt lat="47.78789" lon="-3.53761">
        <ele>33</ele>
        <time>2019-07-17T13:34:02Z</time>
      </trkpt>
      <trkpt lat="47.78789" lon="-3.53761">
        <ele>33</ele>
        <time>2019-07-17T13:34:03Z</time>
      </trkpt>
      <trkpt lat="47.78789" lon="-3.53762">
        <ele>33</ele>
        <time>2019-07-17T13:34:04Z</time>
      </trkpt>
      <trkpt lat="47.78794" lon="-3.53758">
        <ele>33</ele>
        <time>2019-07-17T13:34:05Z</time>
      </trkpt>
      <trkpt lat="47.78797" lon="-3.53756">
        <ele>32</ele>
        <time>2019-07-17T13:34:06Z</time>
      </trkpt>
      <trkpt lat="47.788" lon="-3.53753">
        <ele>32</ele>
        <time>2019-07-17T13:34:07Z</time>
      </trkpt>
      <trkpt lat="47.78804" lon="-3.53751">
        <ele>32</ele>
        <time>2019-07-17T13:34:08Z</time>
      </trkpt>
      <trkpt lat="47.78808" lon="-3.53748">
        <ele>32</ele>
        <time>2019-07-17T13:34:09Z</time>
      </trkpt>
      <trkpt lat="47.78811" lon="-3.53745">
        <ele>31</ele>
        <time>2019-07-17T13:34:10Z</time>
      </trkpt>
      <trkpt lat="47.78815" lon="-3.53742">
        <ele>31</ele>
        <time>2019-07-17T13:34:11Z</time>
      </trkpt>
      <trkpt lat="47.78819" lon="-3.5374">
        <ele>31</ele>
        <time>2019-07-17T13:34:12Z</time>
      </trkpt>
      <trkpt lat="47.78822" lon="-3.53737">
        <ele>31</ele>
        <time>2019-07-17T13:34:13Z</time>
      </trkpt>
      <trkpt lat="47.78826" lon="-3.53734">
        <ele>31</ele>
        <time>2019-07-17T13:34:14Z</time>
      </trkpt>
      <trkpt lat="47.78829" lon="-3.53732">
        <ele>30</ele>
        <time>2019-07-17T13:34:15Z</time>
      </trkpt>
      <trkpt lat="47.78833" lon="-3.53729">
        <ele>30</ele>
        <time>2019-07-17T13:34:16Z</time>
      </trkpt>
      <trkpt lat="47.78836" lon="-3.53725">
        <ele>30</ele>
        <time>2019-07-17T13:34:17Z</time>
      </trkpt>
      <trkpt lat="47.78839" lon="-3.53722">
        <ele>30</ele>
        <time>2019-07-17T13:34:18Z</time>
      </trkpt>
      <trkpt lat="47.78843" lon="-3.5372">
        <ele>30</ele>
        <time>2019-07-17T13:34:19Z</time>
      </trkpt>
      <trkpt lat="47.78846" lon="-3.53717">
        <ele>30</ele>
        <time>2019-07-17T13:34:20Z</time>
      </trkpt>
      <trkpt lat="47.78849" lon="-3.53715">
        <ele>30</ele>
        <time>2019-07-17T13:34:21Z</time>
      </trkpt>
      <trkpt lat="47.78852" lon="-3.53712">
        <ele>30</ele>
        <time>2019-07-17T13:34:22Z</time>
      </trkpt>
      <trkpt lat="47.78855" lon="-3.53709">
        <ele>29</ele>
        <time>2019-07-17T13:34:23Z</time>
      </trkpt>
      <trkpt lat="47.78858" lon="-3.53706">
        <ele>29</ele>
        <time>2019-07-17T13:34:24Z</time>
      </trkpt>
      <trkpt lat="47.78861" lon="-3.53703">
        <ele>29</ele>
        <time>2019-07-17T13:34:25Z</time>
      </trkpt>
      <trkpt lat="47.78865" lon="-3.53701">
        <ele>29</ele>
        <time>2019-07-17T13:34:26Z</time>
      </trkpt>
      <trkpt lat="47.78868" lon="-3.53699">
        <ele>30</ele>
        <time>2019-07-17T13:34:27Z</time>
      </trkpt>
      <trkpt lat="47.78872" lon="-3.53696">
        <ele>29</ele>
        <time>2019-07-17T13:34:28Z</time>
      </trkpt>
      <trkpt lat="47.78876" lon="-3.53695">
        <ele>29</ele>
        <time>2019-07-17T13:34:29Z</time>
      </trkpt>
      <trkpt lat="47.7888" lon="-3.53693">
        <ele>29</ele>
        <time>2019-07-17T13:34:30Z</time>
      </trkpt>
      <trkpt lat="47.78884" lon="-3.53693">
        <ele>29</ele>
        <time>2019-07-17T13:34:31Z</time>
      </trkpt>
      <trkpt lat="47.78888" lon="-3.53693">
        <ele>29</ele>
        <time>2019-07-17T13:34:32Z</time>
      </trkpt>
      <trkpt lat="47.78893" lon="-3.53693">
        <ele>29</ele>
        <time>2019-07-17T13:34:33Z</time>
      </trkpt>
      <trkpt lat="47.78897" lon="-3.53693">
        <ele>29</ele>
        <time>2019-07-17T13:34:34Z</time>
      </trkpt>
      <trkpt lat="47.78901" lon="-3.53693">
        <ele>29</ele>
        <time>2019-07-17T13:34:35Z</time>
      </trkpt>
      <trkpt lat="47.78906" lon="-3.53693">
        <ele>29</ele>
        <time>2019-07-17T13:34:36Z</time>
      </trkpt>
      <trkpt lat="47.78911" lon="-3.53693">
        <ele>29</ele>
        <time>2019-07-17T13:34:37Z</time>
      </trkpt>
      <trkpt lat="47.78916" lon="-3.53693">
        <ele>29</ele>
        <time>2019-07-17T13:34:38Z</time>
      </trkpt>
      <trkpt lat="47.78921" lon="-3.53693">
        <ele>28</ele>
        <time>2019-07-17T13:34:39Z</time>
      </trkpt>
      <trkpt lat="47.78927" lon="-3.53694">
        <ele>28</ele>
        <time>2019-07-17T13:34:40Z</time>
      </trkpt>
      <trkpt lat="47.78932" lon="-3.53694">
        <ele>28</ele>
        <time>2019-07-17T13:34:41Z</time>
      </trkpt>
      <trkpt lat="47.78937" lon="-3.53693">
        <ele>28</ele>
        <time>2019-07-17T13:34:42Z</time>
      </trkpt>
      <trkpt lat="47.78942" lon="-3.53693">
        <ele>27</ele>
        <time>2019-07-17T13:34:43Z</time>
      </trkpt>
      <trkpt lat="47.78947" lon="-3.53693">
        <ele>27</ele>
        <time>2019-07-17T13:34:44Z</time>
      </trkpt>
      <trkpt lat="47.78953" lon="-3.53694">
        <ele>27</ele>
        <time>2019-07-17T13:34:45Z</time>
      </trkpt>
      <trkpt lat="47.78958" lon="-3.53695">
        <ele>27</ele>
        <time>2019-07-17T13:34:46Z</time>
      </trkpt>
      <trkpt lat="47.78964" lon="-3.53696">
        <ele>27</ele>
        <time>2019-07-17T13:34:47Z</time>
      </trkpt>
      <trkpt lat="47.78968" lon="-3.53696">
        <ele>27</ele>
        <time>2019-07-17T13:34:48Z</time>
      </trkpt>
      <trkpt lat="47.78972" lon="-3.53694">
        <ele>27</ele>
        <time>2019-07-17T13:34:49Z</time>
      </trkpt>
      <trkpt lat="47.78976" lon="-3.5369">
        <ele>27</ele>
        <time>2019-07-17T13:34:50Z</time>
      </trkpt>
      <trkpt lat="47.78978" lon="-3.53687">
        <ele>27</ele>
        <time>2019-07-17T13:34:51Z</time>
      </trkpt>
      <trkpt lat="47.7898" lon="-3.53682">
        <ele>27</ele>
        <time>2019-07-17T13:34:52Z</time>
      </trkpt>
      <trkpt lat="47.78981" lon="-3.53678">
        <ele>27</ele>
        <time>2019-07-17T13:34:53Z</time>
      </trkpt>
      <trkpt lat="47.78983" lon="-3.53673">
        <ele>28</ele>
        <time>2019-07-17T13:34:54Z</time>
      </trkpt>
      <trkpt lat="47.78984" lon="-3.53667">
        <ele>28</ele>
        <time>2019-07-17T13:34:55Z</time>
      </trkpt>
      <trkpt lat="47.78985" lon="-3.53662">
        <ele>28</ele>
        <time>2019-07-17T13:34:56Z</time>
      </trkpt>
      <trkpt lat="47.78986" lon="-3.53656">
        <ele>28</ele>
        <time>2019-07-17T13:34:57Z</time>
      </trkpt>
      <trkpt lat="47.78987" lon="-3.5365">
        <ele>28</ele>
        <time>2019-07-17T13:34:58Z</time>
      </trkpt>
      <trkpt lat="47.78988" lon="-3.53645">
        <ele>28</ele>
        <time>2019-07-17T13:34:59Z</time>
      </trkpt>
      <trkpt lat="47.78989" lon="-3.5364">
        <ele>28</ele>
        <time>2019-07-17T13:35:00Z</time>
      </trkpt>
      <trkpt lat="47.78989" lon="-3.53634">
        <ele>28</ele>
        <time>2019-07-17T13:35:01Z</time>
      </trkpt>
      <trkpt lat="47.78989" lon="-3.53628">
        <ele>28</ele>
        <time>2019-07-17T13:35:02Z</time>
      </trkpt>
      <trkpt lat="47.78989" lon="-3.53623">
        <ele>28</ele>
        <time>2019-07-17T13:35:03Z</time>
      </trkpt>
      <trkpt lat="47.7899" lon="-3.53617">
        <ele>28</ele>
        <time>2019-07-17T13:35:04Z</time>
      </trkpt>
      <trkpt lat="47.78991" lon="-3.53612">
        <ele>28</ele>
        <time>2019-07-17T13:35:05Z</time>
      </trkpt>
      <trkpt lat="47.78992" lon="-3.53607">
        <ele>28</ele>
        <time>2019-07-17T13:35:06Z</time>
      </trkpt>
      <trkpt lat="47.78992" lon="-3.53602">
        <ele>28</ele>
        <time>2019-07-17T13:35:07Z</time>
      </trkpt>
      <trkpt lat="47.78993" lon="-3.53597">
        <ele>28</ele>
        <time>2019-07-17T13:35:08Z</time>
      </trkpt>
      <trkpt lat="47.78994" lon="-3.53591">
        <ele>27</ele>
        <time>2019-07-17T13:35:09Z</time>
      </trkpt>
      <trkpt lat="47.78994" lon="-3.53585">
        <ele>27</ele>
        <time>2019-07-17T13:35:10Z</time>
      </trkpt>
      <trkpt lat="47.78995" lon="-3.53579">
        <ele>27</ele>
        <time>2019-07-17T13:35:11Z</time>
      </trkpt>
      <trkpt lat="47.78995" lon="-3.53573">
        <ele>27</ele>
        <time>2019-07-17T13:35:12Z</time>
      </trkpt>
      <trkpt lat="47.78995" lon="-3.53567">
        <ele>27</ele>
        <time>2019-07-17T13:35:13Z</time>
      </trkpt>
      <trkpt lat="47.78995" lon="-3.53561">
        <ele>27</ele>
        <time>2019-07-17T13:35:14Z</time>
      </trkpt>
      <trkpt lat="47.78995" lon="-3.53555">
        <ele>27</ele>
        <time>2019-07-17T13:35:15Z</time>
      </trkpt>
      <trkpt lat="47.78996" lon="-3.53549">
        <ele>27</ele>
        <time>2019-07-17T13:35:16Z</time>
      </trkpt>
      <trkpt lat="47.78997" lon="-3.53542">
        <ele>27</ele>
        <time>2019-07-17T13:35:17Z</time>
      </trkpt>
      <trkpt lat="47.79" lon="-3.53535">
        <ele>26</ele>
        <time>2019-07-17T13:35:18Z</time>
      </trkpt>
      <trkpt lat="47.79001" lon="-3.53528">
        <ele>26</ele>
        <time>2019-07-17T13:35:19Z</time>
      </trkpt>
      <trkpt lat="47.79003" lon="-3.5352">
        <ele>26</ele>
        <time>2019-07-17T13:35:20Z</time>
      </trkpt>
      <trkpt lat="47.79005" lon="-3.53512">
        <ele>26</ele>
        <time>2019-07-17T13:35:21Z</time>
      </trkpt>
      <trkpt lat="47.79007" lon="-3.53504">
        <ele>26</ele>
        <time>2019-07-17T13:35:22Z</time>
      </trkpt>
      <trkpt lat="47.79009" lon="-3.53496">
        <ele>26</ele>
        <time>2019-07-17T13:35:23Z</time>
      </trkpt>
      <trkpt lat="47.79012" lon="-3.53487">
        <ele>26</ele>
        <time>2019-07-17T13:35:24Z</time>
      </trkpt>
      <trkpt lat="47.79014" lon="-3.53479">
        <ele>26</ele>
        <time>2019-07-17T13:35:25Z</time>
      </trkpt>
      <trkpt lat="47.79016" lon="-3.53469">
        <ele>26</ele>
        <time>2019-07-17T13:35:26Z</time>
      </trkpt>
      <trkpt lat="47.79016" lon="-3.5346">
        <ele>26</ele>
        <time>2019-07-17T13:35:27Z</time>
      </trkpt>
      <trkpt lat="47.79017" lon="-3.5345">
        <ele>26</ele>
        <time>2019-07-17T13:35:28Z</time>
      </trkpt>
      <trkpt lat="47.79018" lon="-3.53439">
        <ele>26</ele>
        <time>2019-07-17T13:35:29Z</time>
      </trkpt>
      <trkpt lat="47.7902" lon="-3.53429">
        <ele>26</ele>
        <time>2019-07-17T13:35:30Z</time>
      </trkpt>
      <trkpt lat="47.79023" lon="-3.53419">
        <ele>26</ele>
        <time>2019-07-17T13:35:31Z</time>
      </trkpt>
      <trkpt lat="47.79026" lon="-3.53408">
        <ele>26</ele>
        <time>2019-07-17T13:35:32Z</time>
      </trkpt>
      <trkpt lat="47.79029" lon="-3.53397">
        <ele>26</ele>
        <time>2019-07-17T13:35:33Z</time>
      </trkpt>
      <trkpt lat="47.79031" lon="-3.53386">
        <ele>26</ele>
        <time>2019-07-17T13:35:34Z</time>
      </trkpt>
      <trkpt lat="47.79033" lon="-3.53375">
        <ele>26</ele>
        <time>2019-07-17T13:35:35Z</time>
      </trkpt>
      <trkpt lat="47.79036" lon="-3.53364">
        <ele>26</ele>
        <time>2019-07-17T13:35:36Z</time>
      </trkpt>
      <trkpt lat="47.79039" lon="-3.53354">
        <ele>26</ele>
        <time>2019-07-17T13:35:37Z</time>
      </trkpt>
      <trkpt lat="47.79042" lon="-3.53344">
        <ele>26</ele>
        <time>2019-07-17T13:35:38Z</time>
      </trkpt>
      <trkpt lat="47.79045" lon="-3.53333">
        <ele>26</ele>
        <time>2019-07-17T13:35:39Z</time>
      </trkpt>
      <trkpt lat="47.79048" lon="-3.53322">
        <ele>26</ele>
        <time>2019-07-17T13:35:40Z</time>
      </trkpt>
      <trkpt lat="47.79049" lon="-3.53311">
        <ele>25</ele>
        <time>2019-07-17T13:35:41Z</time>
      </trkpt>
      <trkpt lat="47.79051" lon="-3.53299">
        <ele>25</ele>
        <time>2019-07-17T13:35:42Z</time>
      </trkpt>
      <trkpt lat="47.79053" lon="-3.53289">
        <ele>25</ele>
        <time>2019-07-17T13:35:43Z</time>
      </trkpt>
      <trkpt lat="47.79055" lon="-3.53278">
        <ele>25</ele>
        <time>2019-07-17T13:35:44Z</time>
      </trkpt>
      <trkpt lat="47.79056" lon="-3.53267">
        <ele>24</ele>
        <time>2019-07-17T13:35:45Z</time>
      </trkpt>
      <trkpt lat="47.79058" lon="-3.53258">
        <ele>24</ele>
        <time>2019-07-17T13:35:46Z</time>
      </trkpt>
      <trkpt lat="47.7906" lon="-3.53249">
        <ele>24</ele>
        <time>2019-07-17T13:35:47Z</time>
      </trkpt>
      <trkpt lat="47.79062" lon="-3.53242">
        <ele>23</ele>
        <time>2019-07-17T13:35:48Z</time>
      </trkpt>
      <trkpt lat="47.79063" lon="-3.53236">
        <ele>23</ele>
        <time>2019-07-17T13:35:49Z</time>
      </trkpt>
      <trkpt lat="47.79063" lon="-3.53233">
        <ele>22</ele>
        <time>2019-07-17T13:35:50Z</time>
      </trkpt>
      <trkpt lat="47.79062" lon="-3.53232">
        <ele>22</ele>
        <time>2019-07-17T13:35:51Z</time>
      </trkpt>
      <trkpt lat="47.79061" lon="-3.53231">
        <ele>22</ele>
        <time>2019-07-17T13:35:52Z</time>
      </trkpt>
      <trkpt lat="47.79061" lon="-3.5323">
        <ele>21</ele>
        <time>2019-07-17T13:35:53Z</time>
      </trkpt>
      <trkpt lat="47.7906" lon="-3.53229">
        <ele>21</ele>
        <time>2019-07-17T13:35:54Z</time>
      </trkpt>
      <trkpt lat="47.79059" lon="-3.53229">
        <ele>21</ele>
        <time>2019-07-17T13:35:55Z</time>
      </trkpt>
      <trkpt lat="47.79058" lon="-3.53228">
        <ele>20</ele>
        <time>2019-07-17T13:35:56Z</time>
      </trkpt>
      <trkpt lat="47.79058" lon="-3.53227">
        <ele>20</ele>
        <time>2019-07-17T13:35:57Z</time>
      </trkpt>
      <trkpt lat="47.79057" lon="-3.53227">
        <ele>20</ele>
        <time>2019-07-17T13:35:58Z</time>
      </trkpt>
      <trkpt lat="47.79056" lon="-3.53226">
        <ele>20</ele>
        <time>2019-07-17T13:35:59Z</time>
      </trkpt>
      <trkpt lat="47.79056" lon="-3.53224">
        <ele>19</ele>
        <time>2019-07-17T13:36:00Z</time>
      </trkpt>
      <trkpt lat="47.79057" lon="-3.53222">
        <ele>19</ele>
        <time>2019-07-17T13:36:01Z</time>
      </trkpt>
      <trkpt lat="47.79057" lon="-3.53219">
        <ele>19</ele>
        <time>2019-07-17T13:36:02Z</time>
      </trkpt>
      <trkpt lat="47.79058" lon="-3.53216">
        <ele>19</ele>
        <time>2019-07-17T13:36:03Z</time>
      </trkpt>
      <trkpt lat="47.7906" lon="-3.53213">
        <ele>18</ele>
        <time>2019-07-17T13:36:04Z</time>
      </trkpt>
      <trkpt lat="47.79062" lon="-3.53209">
        <ele>18</ele>
        <time>2019-07-17T13:36:05Z</time>
      </trkpt>
      <trkpt lat="47.79065" lon="-3.53206">
        <ele>17</ele>
        <time>2019-07-17T13:36:06Z</time>
      </trkpt>
      <trkpt lat="47.79069" lon="-3.53204">
        <ele>16</ele>
        <time>2019-07-17T13:36:07Z</time>
      </trkpt>
      <trkpt lat="47.79072" lon="-3.53201">
        <ele>15</ele>
        <time>2019-07-17T13:36:08Z</time>
      </trkpt>
      <trkpt lat="47.79076" lon="-3.53198">
        <ele>14</ele>
        <time>2019-07-17T13:36:09Z</time>
      </trkpt>
      <trkpt lat="47.79079" lon="-3.53195">
        <ele>14</ele>
        <time>2019-07-17T13:36:10Z</time>
      </trkpt>
      <trkpt lat="47.79083" lon="-3.53192">
        <ele>13</ele>
        <time>2019-07-17T13:36:11Z</time>
      </trkpt>
      <trkpt lat="47.79086" lon="-3.5319">
        <ele>12</ele>
        <time>2019-07-17T13:36:12Z</time>
      </trkpt>
      <trkpt lat="47.7909" lon="-3.53187">
        <ele>11</ele>
        <time>2019-07-17T13:36:13Z</time>
      </trkpt>
      <trkpt lat="47.79094" lon="-3.53184">
        <ele>11</ele>
        <time>2019-07-17T13:36:14Z</time>
      </trkpt>
      <trkpt lat="47.79097" lon="-3.53181">
        <ele>10</ele>
        <time>2019-07-17T13:36:15Z</time>
      </trkpt>
      <trkpt lat="47.79101" lon="-3.53178">
        <ele>10</ele>
        <time>2019-07-17T13:36:16Z</time>
      </trkpt>
      <trkpt lat="47.79104" lon="-3.53175">
        <ele>9</ele>
        <time>2019-07-17T13:36:17Z</time>
      </trkpt>
      <trkpt lat="47.79107" lon="-3.53172">
        <ele>8</ele>
        <time>2019-07-17T13:36:18Z</time>
      </trkpt>
      <trkpt lat="47.79111" lon="-3.5317">
        <ele>8</ele>
        <time>2019-07-17T13:36:19Z</time>
      </trkpt>
      <trkpt lat="47.79114" lon="-3.53167">
        <ele>7</ele>
        <time>2019-07-17T13:36:20Z</time>
      </trkpt>
      <trkpt lat="47.79118" lon="-3.53164">
        <ele>7</ele>
        <time>2019-07-17T13:36:21Z</time>
      </trkpt>
      <trkpt lat="47.79121" lon="-3.53162">
        <ele>6</ele>
        <time>2019-07-17T13:36:22Z</time>
      </trkpt>
      <trkpt lat="47.79125" lon="-3.5316">
        <ele>6</ele>
        <time>2019-07-17T13:36:23Z</time>
      </trkpt>
      <trkpt lat="47.79129" lon="-3.53158">
        <ele>5</ele>
        <time>2019-07-17T13:36:24Z</time>
      </trkpt>
      <trkpt lat="47.79133" lon="-3.53155">
        <ele>5</ele>
        <time>2019-07-17T13:36:25Z</time>
      </trkpt>
      <trkpt lat="47.79137" lon="-3.53152">
        <ele>5</ele>
        <time>2019-07-17T13:36:26Z</time>
      </trkpt>
      <trkpt lat="47.79141" lon="-3.53149">
        <ele>5</ele>
        <time>2019-07-17T13:36:27Z</time>
      </trkpt>
      <trkpt lat="47.79145" lon="-3.53146">
        <ele>4</ele>
        <time>2019-07-17T13:36:28Z</time>
      </trkpt>
      <trkpt lat="47.79149" lon="-3.53142">
        <ele>4</ele>
        <time>2019-07-17T13:36:29Z</time>
      </trkpt>
      <trkpt lat="47.79152" lon="-3.53138">
        <ele>4</ele>
        <time>2019-07-17T13:36:30Z</time>
      </trkpt>
      <trkpt lat="47.79153" lon="-3.53135">
        <ele>4</ele>
        <time>2019-07-17T13:36:31Z</time>
      </trkpt>
      <trkpt lat="47.79153" lon="-3.53131">
        <ele>4</ele>
        <time>2019-07-17T13:36:32Z</time>
      </trkpt>
      <trkpt lat="47.79153" lon="-3.53128">
        <ele>4</ele>
        <time>2019-07-17T13:36:33Z</time>
      </trkpt>
      <trkpt lat="47.79152" lon="-3.53123">
        <ele>3</ele>
        <time>2019-07-17T13:36:34Z</time>
      </trkpt>
      <trkpt lat="47.79151" lon="-3.53119">
        <ele>3</ele>
        <time>2019-07-17T13:36:35Z</time>
      </trkpt>
      <trkpt lat="47.7915" lon="-3.53115">
        <ele>3</ele>
        <time>2019-07-17T13:36:36Z</time>
      </trkpt>
      <trkpt lat="47.79148" lon="-3.5311">
        <ele>3</ele>
        <time>2019-07-17T13:36:37Z</time>
      </trkpt>
      <trkpt lat="47.79147" lon="-3.53104">
        <ele>3</ele>
        <time>2019-07-17T13:36:38Z</time>
      </trkpt>
      <trkpt lat="47.79146" lon="-3.53099">
        <ele>3</ele>
        <time>2019-07-17T13:36:39Z</time>
      </trkpt>
      <trkpt lat="47.79144" lon="-3.53093">
        <ele>3</ele>
        <time>2019-07-17T13:36:40Z</time>
      </trkpt>
      <trkpt lat="47.79143" lon="-3.53087">
        <ele>3</ele>
        <time>2019-07-17T13:36:41Z</time>
      </trkpt>
      <trkpt lat="47.79142" lon="-3.53081">
        <ele>3</ele>
        <time>2019-07-17T13:36:42Z</time>
      </trkpt>
      <trkpt lat="47.79141" lon="-3.53075">
        <ele>3</ele>
        <time>2019-07-17T13:36:43Z</time>
      </trkpt>
      <trkpt lat="47.79142" lon="-3.53068">
        <ele>3</ele>
        <time>2019-07-17T13:36:44Z</time>
      </trkpt>
      <trkpt lat="47.79143" lon="-3.53061">
        <ele>3</ele>
        <time>2019-07-17T13:36:45Z</time>
      </trkpt>
      <trkpt lat="47.79144" lon="-3.53055">
        <ele>3</ele>
        <time>2019-07-17T13:36:46Z</time>
      </trkpt>
      <trkpt lat="47.79147" lon="-3.5305">
        <ele>2</ele>
        <time>2019-07-17T13:36:47Z</time>
      </trkpt>
      <trkpt lat="47.7915" lon="-3.53045">
        <ele>2</ele>
        <time>2019-07-17T13:36:48Z</time>
      </trkpt>
      <trkpt lat="47.79153" lon="-3.53041">
        <ele>2</ele>
        <time>2019-07-17T13:36:49Z</time>
      </trkpt>
      <trkpt lat="47.79157" lon="-3.53038">
        <ele>2</ele>
        <time>2019-07-17T13:36:50Z</time>
      </trkpt>
      <trkpt lat="47.79161" lon="-3.53036">
        <ele>2</ele>
        <time>2019-07-17T13:36:51Z</time>
      </trkpt>
      <trkpt lat="47.79164" lon="-3.53034">
        <ele>3</ele>
        <time>2019-07-17T13:36:52Z</time>
      </trkpt>
      <trkpt lat="47.79168" lon="-3.53032">
        <ele>3</ele>
        <time>2019-07-17T13:36:53Z</time>
      </trkpt>
      <trkpt lat="47.79173" lon="-3.5303">
        <ele>3</ele>
        <time>2019-07-17T13:36:54Z</time>
      </trkpt>
      <trkpt lat="47.79177" lon="-3.53029">
        <ele>3</ele>
        <time>2019-07-17T13:36:55Z</time>
      </trkpt>
      <trkpt lat="47.7918" lon="-3.53027">
        <ele>3</ele>
        <time>2019-07-17T13:36:56Z</time>
      </trkpt>
      <trkpt lat="47.79184" lon="-3.53025">
        <ele>3</ele>
        <time>2019-07-17T13:36:57Z</time>
      </trkpt>
      <trkpt lat="47.79187" lon="-3.53023">
        <ele>3</ele>
        <time>2019-07-17T13:36:58Z</time>
      </trkpt>
      <trkpt lat="47.7919" lon="-3.53019">
        <ele>2</ele>
        <time>2019-07-17T13:36:59Z</time>
      </trkpt>
      <trkpt lat="47.79193" lon="-3.53013">
        <ele>2</ele>
        <time>2019-07-17T13:37:00Z</time>
      </trkpt>
      <trkpt lat="47.79196" lon="-3.53007">
        <ele>2</ele>
        <time>2019-07-17T13:37:01Z</time>
      </trkpt>
      <trkpt lat="47.79197" lon="-3.52999">
        <ele>2</ele>
        <time>2019-07-17T13:37:02Z</time>
      </trkpt>
      <trkpt lat="47.79198" lon="-3.52992">
        <ele>2</ele>
        <time>2019-07-17T13:37:03Z</time>
      </trkpt>
      <trkpt lat="47.79199" lon="-3.52986">
        <ele>2</ele>
        <time>2019-07-17T13:37:04Z</time>
      </trkpt>
      <trkpt lat="47.79199" lon="-3.5298">
        <ele>2</ele>
        <time>2019-07-17T13:37:05Z</time>
      </trkpt>
      <trkpt lat="47.792" lon="-3.52974">
        <ele>2</ele>
        <time>2019-07-17T13:37:06Z</time>
      </trkpt>
      <trkpt lat="47.79201" lon="-3.52968">
        <ele>2</ele>
        <time>2019-07-17T13:37:07Z</time>
      </trkpt>
      <trkpt lat="47.79202" lon="-3.52961">
        <ele>2</ele>
        <time>2019-07-17T13:37:08Z</time>
      </trkpt>
      <trkpt lat="47.79204" lon="-3.52954">
        <ele>2</ele>
        <time>2019-07-17T13:37:09Z</time>
      </trkpt>
      <trkpt lat="47.79206" lon="-3.52947">
        <ele>1</ele>
        <time>2019-07-17T13:37:10Z</time>
      </trkpt>
      <trkpt lat="47.79207" lon="-3.52941">
        <ele>1</ele>
        <time>2019-07-17T13:37:11Z</time>
      </trkpt>
      <trkpt lat="47.79209" lon="-3.52935">
        <ele>2</ele>
        <time>2019-07-17T13:37:12Z</time>
      </trkpt>
      <trkpt lat="47.79211" lon="-3.5293">
        <ele>2</ele>
        <time>2019-07-17T13:37:13Z</time>
      </trkpt>
      <trkpt lat="47.79213" lon="-3.52925">
        <ele>2</ele>
        <time>2019-07-17T13:37:14Z</time>
      </trkpt>
      <trkpt lat="47.79215" lon="-3.5292">
        <ele>2</ele>
        <time>2019-07-17T13:37:15Z</time>
      </trkpt>
      <trkpt lat="47.79218" lon="-3.52916">
        <ele>2</ele>
        <time>2019-07-17T13:37:16Z</time>
      </trkpt>
      <trkpt lat="47.79222" lon="-3.52912">
        <ele>2</ele>
        <time>2019-07-17T13:37:17Z</time>
      </trkpt>
      <trkpt lat="47.79226" lon="-3.52907">
        <ele>2</ele>
        <time>2019-07-17T13:37:18Z</time>
      </trkpt>
      <trkpt lat="47.79229" lon="-3.52903">
        <ele>2</ele>
        <time>2019-07-17T13:37:19Z</time>
      </trkpt>
      <trkpt lat="47.79233" lon="-3.529">
        <ele>2</ele>
        <time>2019-07-17T13:37:20Z</time>
      </trkpt>
      <trkpt lat="47.79238" lon="-3.52896">
        <ele>2</ele>
        <time>2019-07-17T13:37:21Z</time>
      </trkpt>
      <trkpt lat="47.79242" lon="-3.52892">
        <ele>3</ele>
        <time>2019-07-17T13:37:22Z</time>
      </trkpt>
      <trkpt lat="47.79245" lon="-3.52888">
        <ele>3</ele>
        <time>2019-07-17T13:37:23Z</time>
      </trkpt>
      <trkpt lat="47.79247" lon="-3.52883">
        <ele>3</ele>
        <time>2019-07-17T13:37:24Z</time>
      </trkpt>
      <trkpt lat="47.7925" lon="-3.5288">
        <ele>3</ele>
        <time>2019-07-17T13:37:25Z</time>
      </trkpt>
      <trkpt lat="47.79254" lon="-3.52877">
        <ele>3</ele>
        <time>2019-07-17T13:37:26Z</time>
      </trkpt>
      <trkpt lat="47.79258" lon="-3.52873">
        <ele>3</ele>
        <time>2019-07-17T13:37:27Z</time>
      </trkpt>
      <trkpt lat="47.79261" lon="-3.52871">
        <ele>3</ele>
        <time>2019-07-17T13:37:28Z</time>
      </trkpt>
      <trkpt lat="47.79265" lon="-3.52869">
        <ele>3</ele>
        <time>2019-07-17T13:37:29Z</time>
      </trkpt>
      <trkpt lat="47.79269" lon="-3.52867">
        <ele>3</ele>
        <time>2019-07-17T13:37:30Z</time>
      </trkpt>
      <trkpt lat="47.79273" lon="-3.52866">
        <ele>3</ele>
        <time>2019-07-17T13:37:31Z</time>
      </trkpt>
      <trkpt lat="47.79277" lon="-3.52866">
        <ele>3</ele>
        <time>2019-07-17T13:37:32Z</time>
      </trkpt>
      <trkpt lat="47.79282" lon="-3.52865">
        <ele>4</ele>
        <time>2019-07-17T13:37:33Z</time>
      </trkpt>
      <trkpt lat="47.79286" lon="-3.52865">
        <ele>4</ele>
        <time>2019-07-17T13:37:34Z</time>
      </trkpt>
      <trkpt lat="47.7929" lon="-3.52863">
        <ele>4</ele>
        <time>2019-07-17T13:37:35Z</time>
      </trkpt>
      <trkpt lat="47.79294" lon="-3.52862">
        <ele>4</ele>
        <time>2019-07-17T13:37:36Z</time>
      </trkpt>
      <trkpt lat="47.79297" lon="-3.5286">
        <ele>4</ele>
        <time>2019-07-17T13:37:37Z</time>
      </trkpt>
      <trkpt lat="47.793" lon="-3.52857">
        <ele>4</ele>
        <time>2019-07-17T13:37:38Z</time>
      </trkpt>
      <trkpt lat="47.79304" lon="-3.52854">
        <ele>4</ele>
        <time>2019-07-17T13:37:39Z</time>
      </trkpt>
      <trkpt lat="47.79308" lon="-3.52852">
        <ele>5</ele>
        <time>2019-07-17T13:37:40Z</time>
      </trkpt>
      <trkpt lat="47.79311" lon="-3.52849">
        <ele>5</ele>
        <time>2019-07-17T13:37:41Z</time>
      </trkpt>
      <trkpt lat="47.79315" lon="-3.52845">
        <ele>5</ele>
        <time>2019-07-17T13:37:42Z</time>
      </trkpt>
      <trkpt lat="47.79318" lon="-3.52841">
        <ele>5</ele>
        <time>2019-07-17T13:37:43Z</time>
      </trkpt>
      <trkpt lat="47.79321" lon="-3.52839">
        <ele>5</ele>
        <time>2019-07-17T13:37:44Z</time>
      </trkpt>
      <trkpt lat="47.79325" lon="-3.52837">
        <ele>5</ele>
        <time>2019-07-17T13:37:45Z</time>
      </trkpt>
      <trkpt lat="47.7933" lon="-3.52836">
        <ele>5</ele>
        <time>2019-07-17T13:37:46Z</time>
      </trkpt>
      <trkpt lat="47.79334" lon="-3.52833">
        <ele>5</ele>
        <time>2019-07-17T13:37:47Z</time>
      </trkpt>
      <trkpt lat="47.79337" lon="-3.5283">
        <ele>5</ele>
        <time>2019-07-17T13:37:48Z</time>
      </trkpt>
      <trkpt lat="47.7934" lon="-3.52828">
        <ele>5</ele>
        <time>2019-07-17T13:37:49Z</time>
      </trkpt>
      <trkpt lat="47.79342" lon="-3.52827">
        <ele>5</ele>
        <time>2019-07-17T13:37:50Z</time>
      </trkpt>
      <trkpt lat="47.79345" lon="-3.52826">
        <ele>5</ele>
        <time>2019-07-17T13:37:51Z</time>
      </trkpt>
      <trkpt lat="47.79348" lon="-3.52826">
        <ele>6</ele>
        <time>2019-07-17T13:37:52Z</time>
      </trkpt>
      <trkpt lat="47.79351" lon="-3.52827">
        <ele>6</ele>
        <time>2019-07-17T13:37:53Z</time>
      </trkpt>
      <trkpt lat="47.79354" lon="-3.52827">
        <ele>6</ele>
        <time>2019-07-17T13:37:54Z</time>
      </trkpt>
      <trkpt lat="47.79356" lon="-3.52826">
        <ele>6</ele>
        <time>2019-07-17T13:37:55Z</time>
      </trkpt>
      <trkpt lat="47.7936" lon="-3.52824">
        <ele>6</ele>
        <time>2019-07-17T13:37:56Z</time>
      </trkpt>
      <trkpt lat="47.79363" lon="-3.52821">
        <ele>6</ele>
        <time>2019-07-17T13:37:57Z</time>
      </trkpt>
      <trkpt lat="47.79367" lon="-3.52816">
        <ele>6</ele>
        <time>2019-07-17T13:37:58Z</time>
      </trkpt>
      <trkpt lat="47.7937" lon="-3.52811">
        <ele>6</ele>
        <time>2019-07-17T13:37:59Z</time>
      </trkpt>
      <trkpt lat="47.79373" lon="-3.52806">
        <ele>7</ele>
        <time>2019-07-17T13:38:00Z</time>
      </trkpt>
      <trkpt lat="47.79376" lon="-3.52801">
        <ele>7</ele>
        <time>2019-07-17T13:38:01Z</time>
      </trkpt>
      <trkpt lat="47.79378" lon="-3.52799">
        <ele>7</ele>
        <time>2019-07-17T13:38:02Z</time>
      </trkpt>
      <trkpt lat="47.7938" lon="-3.52797">
        <ele>7</ele>
        <time>2019-07-17T13:38:03Z</time>
      </trkpt>
      <trkpt lat="47.79382" lon="-3.52795">
        <ele>7</ele>
        <time>2019-07-17T13:38:04Z</time>
      </trkpt>
      <trkpt lat="47.79384" lon="-3.52793">
        <ele>7</ele>
        <time>2019-07-17T13:38:05Z</time>
      </trkpt>
      <trkpt lat="47.79385" lon="-3.52793">
        <ele>7</ele>
        <time>2019-07-17T13:38:06Z</time>
      </trkpt>
      <trkpt lat="47.79385" lon="-3.52791">
        <ele>7</ele>
        <time>2019-07-17T13:38:07Z</time>
      </trkpt>
      <trkpt lat="47.79387" lon="-3.5279">
        <ele>7</ele>
        <time>2019-07-17T13:38:08Z</time>
      </trkpt>
      <trkpt lat="47.79387" lon="-3.52789">
        <ele>7</ele>
        <time>2019-07-17T13:38:09Z</time>
      </trkpt>
      <trkpt lat="47.79389" lon="-3.52787">
        <ele>8</ele>
        <time>2019-07-17T13:38:10Z</time>
      </trkpt>
      <trkpt lat="47.79391" lon="-3.52786">
        <ele>8</ele>
        <time>2019-07-17T13:38:11Z</time>
      </trkpt>
      <trkpt lat="47.79393" lon="-3.52784">
        <ele>8</ele>
        <time>2019-07-17T13:38:12Z</time>
      </trkpt>
      <trkpt lat="47.79394" lon="-3.52783">
        <ele>8</ele>
        <time>2019-07-17T13:38:13Z</time>
      </trkpt>
      <trkpt lat="47.79396" lon="-3.52781">
        <ele>8</ele>
        <time>2019-07-17T13:38:14Z</time>
      </trkpt>
      <trkpt lat="47.79398" lon="-3.5278">
        <ele>8</ele>
        <time>2019-07-17T13:38:15Z</time>
      </trkpt>
      <trkpt lat="47.794" lon="-3.52779">
        <ele>8</ele>
        <time>2019-07-17T13:38:16Z</time>
      </trkpt>
      <trkpt lat="47.79402" lon="-3.52778">
        <ele>8</ele>
        <time>2019-07-17T13:38:17Z</time>
      </trkpt>
      <trkpt lat="47.79404" lon="-3.52777">
        <ele>8</ele>
        <time>2019-07-17T13:38:18Z</time>
      </trkpt>
      <trkpt lat="47.79406" lon="-3.52776">
        <ele>8</ele>
        <time>2019-07-17T13:38:19Z</time>
      </trkpt>
      <trkpt lat="47.79408" lon="-3.52776">
        <ele>8</ele>
        <time>2019-07-17T13:38:20Z</time>
      </trkpt>
      <trkpt lat="47.7941" lon="-3.52775">
        <ele>8</ele>
        <time>2019-07-17T13:38:21Z</time>
      </trkpt>
      <trkpt lat="47.79411" lon="-3.52774">
        <ele>8</ele>
        <time>2019-07-17T13:38:22Z</time>
      </trkpt>
      <trkpt lat="47.79413" lon="-3.52774">
        <ele>8</ele>
        <time>2019-07-17T13:38:23Z</time>
      </trkpt>
      <trkpt lat="47.79414" lon="-3.52774">
        <ele>8</ele>
        <time>2019-07-17T13:38:24Z</time>
      </trkpt>
      <trkpt lat="47.79416" lon="-3.52775">
        <ele>8</ele>
        <time>2019-07-17T13:38:25Z</time>
      </trkpt>
      <trkpt lat="47.79418" lon="-3.52776">
        <ele>8</ele>
        <time>2019-07-17T13:38:26Z</time>
      </trkpt>
      <trkpt lat="47.79419" lon="-3.52778">
        <ele>8</ele>
        <time>2019-07-17T13:38:27Z</time>
      </trkpt>
      <trkpt lat="47.7942" lon="-3.52781">
        <ele>9</ele>
        <time>2019-07-17T13:38:28Z</time>
      </trkpt>
      <trkpt lat="47.7942" lon="-3.52783">
        <ele>9</ele>
        <time>2019-07-17T13:38:29Z</time>
      </trkpt>
      <trkpt lat="47.79421" lon="-3.52786">
        <ele>9</ele>
        <time>2019-07-17T13:38:30Z</time>
      </trkpt>
      <trkpt lat="47.79421" lon="-3.52789">
        <ele>9</ele>
        <time>2019-07-17T13:38:31Z</time>
      </trkpt>
      <trkpt lat="47.79422" lon="-3.52792">
        <ele>9</ele>
        <time>2019-07-17T13:38:32Z</time>
      </trkpt>
      <trkpt lat="47.79423" lon="-3.52795">
        <ele>9</ele>
        <time>2019-07-17T13:38:33Z</time>
      </trkpt>
      <trkpt lat="47.79424" lon="-3.52797">
        <ele>9</ele>
        <time>2019-07-17T13:38:34Z</time>
      </trkpt>
      <trkpt lat="47.79424" lon="-3.52799">
        <ele>9</ele>
        <time>2019-07-17T13:38:35Z</time>
      </trkpt>
      <trkpt lat="47.79426" lon="-3.52801">
        <ele>9</ele>
        <time>2019-07-17T13:38:36Z</time>
      </trkpt>
      <trkpt lat="47.79427" lon="-3.52803">
        <ele>9</ele>
        <time>2019-07-17T13:38:37Z</time>
      </trkpt>
      <trkpt lat="47.79428" lon="-3.52805">
        <ele>9</ele>
        <time>2019-07-17T13:38:38Z</time>
      </trkpt>
      <trkpt lat="47.7943" lon="-3.52807">
        <ele>10</ele>
        <time>2019-07-17T13:38:39Z</time>
      </trkpt>
      <trkpt lat="47.79433" lon="-3.52809">
        <ele>10</ele>
        <time>2019-07-17T13:38:40Z</time>
      </trkpt>
      <trkpt lat="47.79434" lon="-3.5281">
        <ele>10</ele>
        <time>2019-07-17T13:38:41Z</time>
      </trkpt>
      <trkpt lat="47.79435" lon="-3.52812">
        <ele>10</ele>
        <time>2019-07-17T13:38:42Z</time>
      </trkpt>
      <trkpt lat="47.79437" lon="-3.52813">
        <ele>10</ele>
        <time>2019-07-17T13:38:43Z</time>
      </trkpt>
      <trkpt lat="47.79439" lon="-3.52814">
        <ele>11</ele>
        <time>2019-07-17T13:38:44Z</time>
      </trkpt>
      <trkpt lat="47.7944" lon="-3.52815">
        <ele>11</ele>
        <time>2019-07-17T13:38:45Z</time>
      </trkpt>
      <trkpt lat="47.79442" lon="-3.52815">
        <ele>11</ele>
        <time>2019-07-17T13:38:46Z</time>
      </trkpt>
      <trkpt lat="47.79443" lon="-3.52815">
        <ele>12</ele>
        <time>2019-07-17T13:38:47Z</time>
      </trkpt>
      <trkpt lat="47.79444" lon="-3.52816">
        <ele>12</ele>
        <time>2019-07-17T13:38:48Z</time>
      </trkpt>
      <trkpt lat="47.79445" lon="-3.52817">
        <ele>12</ele>
        <time>2019-07-17T13:38:49Z</time>
      </trkpt>
      <trkpt lat="47.79446" lon="-3.52817">
        <ele>12</ele>
        <time>2019-07-17T13:38:50Z</time>
      </trkpt>
      <trkpt lat="47.79448" lon="-3.52817">
        <ele>12</ele>
        <time>2019-07-17T13:38:51Z</time>
      </trkpt>
      <trkpt lat="47.7945" lon="-3.52817">
        <ele>13</ele>
        <time>2019-07-17T13:38:52Z</time>
      </trkpt>
      <trkpt lat="47.79453" lon="-3.52819">
        <ele>13</ele>
        <time>2019-07-17T13:38:53Z</time>
      </trkpt>
      <trkpt lat="47.79456" lon="-3.52821">
        <ele>13</ele>
        <time>2019-07-17T13:38:54Z</time>
      </trkpt>
      <trkpt lat="47.79458" lon="-3.52824">
        <ele>13</ele>
        <time>2019-07-17T13:38:55Z</time>
      </trkpt>
      <trkpt lat="47.79461" lon="-3.52827">
        <ele>13</ele>
        <time>2019-07-17T13:38:56Z</time>
      </trkpt>
      <trkpt lat="47.79464" lon="-3.52831">
        <ele>13</ele>
        <time>2019-07-17T13:38:57Z</time>
      </trkpt>
      <trkpt lat="47.79467" lon="-3.52836">
        <ele>13</ele>
        <time>2019-07-17T13:38:58Z</time>
      </trkpt>
      <trkpt lat="47.79471" lon="-3.52839">
        <ele>13</ele>
        <time>2019-07-17T13:38:59Z</time>
      </trkpt>
      <trkpt lat="47.79475" lon="-3.5284">
        <ele>13</ele>
        <time>2019-07-17T13:39:00Z</time>
      </trkpt>
      <trkpt lat="47.79477" lon="-3.52841">
        <ele>13</ele>
        <time>2019-07-17T13:39:01Z</time>
      </trkpt>
      <trkpt lat="47.7948" lon="-3.52841">
        <ele>13</ele>
        <time>2019-07-17T13:39:02Z</time>
      </trkpt>
      <trkpt lat="47.79483" lon="-3.52842">
        <ele>13</ele>
        <time>2019-07-17T13:39:03Z</time>
      </trkpt>
      <trkpt lat="47.79487" lon="-3.52842">
        <ele>13</ele>
        <time>2019-07-17T13:39:04Z</time>
      </trkpt>
      <trkpt lat="47.7949" lon="-3.52843">
        <ele>13</ele>
        <time>2019-07-17T13:39:05Z</time>
      </trkpt>
      <trkpt lat="47.79492" lon="-3.52845">
        <ele>14</ele>
        <time>2019-07-17T13:39:06Z</time>
      </trkpt>
      <trkpt lat="47.79495" lon="-3.52847">
        <ele>14</ele>
        <time>2019-07-17T13:39:07Z</time>
      </trkpt>
      <trkpt lat="47.79497" lon="-3.5285">
        <ele>14</ele>
        <time>2019-07-17T13:39:08Z</time>
      </trkpt>
      <trkpt lat="47.79499" lon="-3.52854">
        <ele>14</ele>
        <time>2019-07-17T13:39:09Z</time>
      </trkpt>
      <trkpt lat="47.79502" lon="-3.52858">
        <ele>14</ele>
        <time>2019-07-17T13:39:10Z</time>
      </trkpt>
      <trkpt lat="47.79503" lon="-3.52861">
        <ele>15</ele>
        <time>2019-07-17T13:39:11Z</time>
      </trkpt>
      <trkpt lat="47.79506" lon="-3.52865">
        <ele>15</ele>
        <time>2019-07-17T13:39:12Z</time>
      </trkpt>
      <trkpt lat="47.79508" lon="-3.52868">
        <ele>15</ele>
        <time>2019-07-17T13:39:13Z</time>
      </trkpt>
      <trkpt lat="47.79512" lon="-3.5287">
        <ele>15</ele>
        <time>2019-07-17T13:39:14Z</time>
      </trkpt>
      <trkpt lat="47.79516" lon="-3.52871">
        <ele>15</ele>
        <time>2019-07-17T13:39:15Z</time>
      </trkpt>
      <trkpt lat="47.79521" lon="-3.52872">
        <ele>15</ele>
        <time>2019-07-17T13:39:16Z</time>
      </trkpt>
      <trkpt lat="47.79526" lon="-3.52872">
        <ele>14</ele>
        <time>2019-07-17T13:39:17Z</time>
      </trkpt>
      <trkpt lat="47.7953" lon="-3.52873">
        <ele>14</ele>
        <time>2019-07-17T13:39:18Z</time>
      </trkpt>
      <trkpt lat="47.79533" lon="-3.52875">
        <ele>14</ele>
        <time>2019-07-17T13:39:19Z</time>
      </trkpt>
      <trkpt lat="47.79535" lon="-3.52877">
        <ele>14</ele>
        <time>2019-07-17T13:39:20Z</time>
      </trkpt>
      <trkpt lat="47.79537" lon="-3.52879">
        <ele>14</ele>
        <time>2019-07-17T13:39:21Z</time>
      </trkpt>
      <trkpt lat="47.79539" lon="-3.5288">
        <ele>14</ele>
        <time>2019-07-17T13:39:22Z</time>
      </trkpt>
      <trkpt lat="47.7954" lon="-3.52881">
        <ele>15</ele>
        <time>2019-07-17T13:39:23Z</time>
      </trkpt>
      <trkpt lat="47.79541" lon="-3.52882">
        <ele>15</ele>
        <time>2019-07-17T13:39:24Z</time>
      </trkpt>
      <trkpt lat="47.79543" lon="-3.52883">
        <ele>15</ele>
        <time>2019-07-17T13:39:25Z</time>
      </trkpt>
      <trkpt lat="47.79544" lon="-3.52884">
        <ele>15</ele>
        <time>2019-07-17T13:39:26Z</time>
      </trkpt>
      <trkpt lat="47.79545" lon="-3.52885">
        <ele>15</ele>
        <time>2019-07-17T13:39:27Z</time>
      </trkpt>
      <trkpt lat="47.79546" lon="-3.52885">
        <ele>15</ele>
        <time>2019-07-17T13:39:28Z</time>
      </trkpt>
      <trkpt lat="47.79547" lon="-3.52887">
        <ele>15</ele>
        <time>2019-07-17T13:39:29Z</time>
      </trkpt>
      <trkpt lat="47.79548" lon="-3.52888">
        <ele>15</ele>
        <time>2019-07-17T13:39:30Z</time>
      </trkpt>
      <trkpt lat="47.79549" lon="-3.52889">
        <ele>15</ele>
        <time>2019-07-17T13:39:31Z</time>
      </trkpt>
      <trkpt lat="47.7955" lon="-3.5289">
        <ele>15</ele>
        <time>2019-07-17T13:39:32Z</time>
      </trkpt>
      <trkpt lat="47.79551" lon="-3.52892">
        <ele>16</ele>
        <time>2019-07-17T13:39:33Z</time>
      </trkpt>
      <trkpt lat="47.79552" lon="-3.52893">
        <ele>16</ele>
        <time>2019-07-17T13:39:34Z</time>
      </trkpt>
      <trkpt lat="47.79553" lon="-3.52894">
        <ele>16</ele>
        <time>2019-07-17T13:39:35Z</time>
      </trkpt>
      <trkpt lat="47.79554" lon="-3.52895">
        <ele>16</ele>
        <time>2019-07-17T13:39:36Z</time>
      </trkpt>
      <trkpt lat="47.79554" lon="-3.52896">
        <ele>16</ele>
        <time>2019-07-17T13:39:37Z</time>
      </trkpt>
      <trkpt lat="47.79555" lon="-3.52897">
        <ele>16</ele>
        <time>2019-07-17T13:39:38Z</time>
      </trkpt>
      <trkpt lat="47.79556" lon="-3.52898">
        <ele>16</ele>
        <time>2019-07-17T13:39:39Z</time>
      </trkpt>
      <trkpt lat="47.79556" lon="-3.52898">
        <ele>16</ele>
        <time>2019-07-17T13:39:40Z</time>
      </trkpt>
      <trkpt lat="47.79557" lon="-3.52899">
        <ele>16</ele>
        <time>2019-07-17T13:39:41Z</time>
      </trkpt>
      <trkpt lat="47.79558" lon="-3.529">
        <ele>16</ele>
        <time>2019-07-17T13:39:42Z</time>
      </trkpt>
      <trkpt lat="47.79558" lon="-3.52902">
        <ele>16</ele>
        <time>2019-07-17T13:39:43Z</time>
      </trkpt>
      <trkpt lat="47.79559" lon="-3.52903">
        <ele>16</ele>
        <time>2019-07-17T13:39:44Z</time>
      </trkpt>
      <trkpt lat="47.79559" lon="-3.52904">
        <ele>16</ele>
        <time>2019-07-17T13:39:45Z</time>
      </trkpt>
      <trkpt lat="47.7956" lon="-3.52905">
        <ele>16</ele>
        <time>2019-07-17T13:39:46Z</time>
      </trkpt>
      <trkpt lat="47.79561" lon="-3.52906">
        <ele>16</ele>
        <time>2019-07-17T13:39:47Z</time>
      </trkpt>
      <trkpt lat="47.79562" lon="-3.52907">
        <ele>17</ele>
        <time>2019-07-17T13:39:48Z</time>
      </trkpt>
      <trkpt lat="47.79562" lon="-3.52908">
        <ele>17</ele>
        <time>2019-07-17T13:39:49Z</time>
      </trkpt>
      <trkpt lat="47.79563" lon="-3.52909">
        <ele>17</ele>
        <time>2019-07-17T13:39:50Z</time>
      </trkpt>
      <trkpt lat="47.79564" lon="-3.5291">
        <ele>17</ele>
        <time>2019-07-17T13:39:51Z</time>
      </trkpt>
      <trkpt lat="47.79564" lon="-3.5291">
        <ele>17</ele>
        <time>2019-07-17T13:39:52Z</time>
      </trkpt>
      <trkpt lat="47.79565" lon="-3.5291">
        <ele>17</ele>
        <time>2019-07-17T13:39:53Z</time>
      </trkpt>
      <trkpt lat="47.79565" lon="-3.5291">
        <ele>17</ele>
        <time>2019-07-17T13:39:54Z</time>
      </trkpt>
      <trkpt lat="47.79565" lon="-3.5291">
        <ele>17</ele>
        <time>2019-07-17T13:39:55Z</time>
      </trkpt>
      <trkpt lat="47.79565" lon="-3.52909">
        <ele>17</ele>
        <time>2019-07-17T13:39:56Z</time>
      </trkpt>
      <trkpt lat="47.79566" lon="-3.52909">
        <ele>17</ele>
        <time>2019-07-17T13:39:57Z</time>
      </trkpt>
      <trkpt lat="47.79566" lon="-3.52909">
        <ele>17</ele>
        <time>2019-07-17T13:39:58Z</time>
      </trkpt>
      <trkpt lat="47.79571" lon="-3.52889">
        <ele>19</ele>
        <time>2019-07-17T13:39:59Z</time>
      </trkpt>
      <trkpt lat="47.79571" lon="-3.52885">
        <ele>19</ele>
        <time>2019-07-17T13:40:00Z</time>
      </trkpt>
      <trkpt lat="47.79571" lon="-3.52882">
        <ele>19</ele>
        <time>2019-07-17T13:40:01Z</time>
      </trkpt>
      <trkpt lat="47.79571" lon="-3.5288">
        <ele>19</ele>
        <time>2019-07-17T13:40:02Z</time>
      </trkpt>
      <trkpt lat="47.79572" lon="-3.52877">
        <ele>19</ele>
        <time>2019-07-17T13:40:03Z</time>
      </trkpt>
      <trkpt lat="47.79571" lon="-3.52874">
        <ele>20</ele>
        <time>2019-07-17T13:40:04Z</time>
      </trkpt>
      <trkpt lat="47.79572" lon="-3.52871">
        <ele>20</ele>
        <time>2019-07-17T13:40:05Z</time>
      </trkpt>
      <trkpt lat="47.79573" lon="-3.52868">
        <ele>20</ele>
        <time>2019-07-17T13:40:06Z</time>
      </trkpt>
      <trkpt lat="47.79574" lon="-3.52864">
        <ele>20</ele>
        <time>2019-07-17T13:40:07Z</time>
      </trkpt>
      <trkpt lat="47.79576" lon="-3.52859">
        <ele>20</ele>
        <time>2019-07-17T13:40:08Z</time>
      </trkpt>
      <trkpt lat="47.79577" lon="-3.52855">
        <ele>19</ele>
        <time>2019-07-17T13:40:09Z</time>
      </trkpt>
      <trkpt lat="47.79579" lon="-3.5285">
        <ele>19</ele>
        <time>2019-07-17T13:40:10Z</time>
      </trkpt>
      <trkpt lat="47.79581" lon="-3.52845">
        <ele>19</ele>
        <time>2019-07-17T13:40:11Z</time>
      </trkpt>
      <trkpt lat="47.79584" lon="-3.52839">
        <ele>19</ele>
        <time>2019-07-17T13:40:12Z</time>
      </trkpt>
      <trkpt lat="47.79587" lon="-3.52836">
        <ele>19</ele>
        <time>2019-07-17T13:40:13Z</time>
      </trkpt>
      <trkpt lat="47.79591" lon="-3.52834">
        <ele>19</ele>
        <time>2019-07-17T13:40:14Z</time>
      </trkpt>
      <trkpt lat="47.79595" lon="-3.52832">
        <ele>19</ele>
        <time>2019-07-17T13:40:15Z</time>
      </trkpt>
      <trkpt lat="47.796" lon="-3.5283">
        <ele>18</ele>
        <time>2019-07-17T13:40:16Z</time>
      </trkpt>
      <trkpt lat="47.79607" lon="-3.52827">
        <ele>18</ele>
        <time>2019-07-17T13:40:17Z</time>
      </trkpt>
      <trkpt lat="47.79613" lon="-3.52823">
        <ele>18</ele>
        <time>2019-07-17T13:40:18Z</time>
      </trkpt>
      <trkpt lat="47.7962" lon="-3.52817">
        <ele>18</ele>
        <time>2019-07-17T13:40:19Z</time>
      </trkpt>
      <trkpt lat="47.79626" lon="-3.52811">
        <ele>18</ele>
        <time>2019-07-17T13:40:20Z</time>
      </trkpt>
      <trkpt lat="47.79633" lon="-3.52806">
        <ele>17</ele>
        <time>2019-07-17T13:40:21Z</time>
      </trkpt>
      <trkpt lat="47.79639" lon="-3.52801">
        <ele>17</ele>
        <time>2019-07-17T13:40:22Z</time>
      </trkpt>
      <trkpt lat="47.79644" lon="-3.52797">
        <ele>17</ele>
        <time>2019-07-17T13:40:23Z</time>
      </trkpt>
      <trkpt lat="47.79649" lon="-3.52794">
        <ele>17</ele>
        <time>2019-07-17T13:40:24Z</time>
      </trkpt>
      <trkpt lat="47.79654" lon="-3.52792">
        <ele>17</ele>
        <time>2019-07-17T13:40:25Z</time>
      </trkpt>
      <trkpt lat="47.79657" lon="-3.5279">
        <ele>16</ele>
        <time>2019-07-17T13:40:26Z</time>
      </trkpt>
      <trkpt lat="47.7966" lon="-3.52789">
        <ele>16</ele>
        <time>2019-07-17T13:40:27Z</time>
      </trkpt>
      <trkpt lat="47.79662" lon="-3.52789">
        <ele>16</ele>
        <time>2019-07-17T13:40:28Z</time>
      </trkpt>
      <trkpt lat="47.79665" lon="-3.52789">
        <ele>16</ele>
        <time>2019-07-17T13:40:29Z</time>
      </trkpt>
      <trkpt lat="47.79667" lon="-3.52788">
        <ele>17</ele>
        <time>2019-07-17T13:40:30Z</time>
      </trkpt>
      <trkpt lat="47.79668" lon="-3.52788">
        <ele>17</ele>
        <time>2019-07-17T13:40:31Z</time>
      </trkpt>
      <trkpt lat="47.79669" lon="-3.52788">
        <ele>17</ele>
        <time>2019-07-17T13:40:32Z</time>
      </trkpt>
      <trkpt lat="47.79671" lon="-3.52788">
        <ele>17</ele>
        <time>2019-07-17T13:40:33Z</time>
      </trkpt>
      <trkpt lat="47.79672" lon="-3.52788">
        <ele>17</ele>
        <time>2019-07-17T13:40:34Z</time>
      </trkpt>
      <trkpt lat="47.79673" lon="-3.52787">
        <ele>17</ele>
        <time>2019-07-17T13:40:35Z</time>
      </trkpt>
      <trkpt lat="47.79673" lon="-3.52787">
        <ele>17</ele>
        <time>2019-07-17T13:40:36Z</time>
      </trkpt>
      <trkpt lat="47.79675" lon="-3.52784">
        <ele>17</ele>
        <time>2019-07-17T13:40:37Z</time>
      </trkpt>
      <trkpt lat="47.79676" lon="-3.52782">
        <ele>17</ele>
        <time>2019-07-17T13:40:38Z</time>
      </trkpt>
      <trkpt lat="47.79677" lon="-3.52782">
        <ele>17</ele>
        <time>2019-07-17T13:40:39Z</time>
      </trkpt>
      <trkpt lat="47.79678" lon="-3.52781">
        <ele>17</ele>
        <time>2019-07-17T13:40:40Z</time>
      </trkpt>
      <trkpt lat="47.79678" lon="-3.52781">
        <ele>17</ele>
        <time>2019-07-17T13:40:41Z</time>
      </trkpt>
      <trkpt lat="47.79679" lon="-3.52782">
        <ele>17</ele>
        <time>2019-07-17T13:40:42Z</time>
      </trkpt>
      <trkpt lat="47.79679" lon="-3.52781">
        <ele>18</ele>
        <time>2019-07-17T13:40:43Z</time>
      </trkpt>
      <trkpt lat="47.7968" lon="-3.52781">
        <ele>18</ele>
        <time>2019-07-17T13:40:44Z</time>
      </trkpt>
      <trkpt lat="47.79694" lon="-3.52779">
        <ele>20</ele>
        <time>2019-07-17T13:40:45Z</time>
      </trkpt>
      <trkpt lat="47.79695" lon="-3.52779">
        <ele>21</ele>
        <time>2019-07-17T13:40:46Z</time>
      </trkpt>
      <trkpt lat="47.79695" lon="-3.52779">
        <ele>21</ele>
        <time>2019-07-17T13:40:47Z</time>
      </trkpt>
      <trkpt lat="47.79696" lon="-3.52779">
        <ele>21</ele>
        <time>2019-07-17T13:40:48Z</time>
      </trkpt>
      <trkpt lat="47.797" lon="-3.52776">
        <ele>22</ele>
        <time>2019-07-17T13:40:49Z</time>
      </trkpt>
      <trkpt lat="47.79701" lon="-3.52775">
        <ele>22</ele>
        <time>2019-07-17T13:40:50Z</time>
      </trkpt>
      <trkpt lat="47.79702" lon="-3.52773">
        <ele>22</ele>
        <time>2019-07-17T13:40:51Z</time>
      </trkpt>
      <trkpt lat="47.79705" lon="-3.52771">
        <ele>23</ele>
        <time>2019-07-17T13:40:52Z</time>
      </trkpt>
      <trkpt lat="47.79707" lon="-3.52768">
        <ele>23</ele>
        <time>2019-07-17T13:40:53Z</time>
      </trkpt>
      <trkpt lat="47.7971" lon="-3.52765">
        <ele>23</ele>
        <time>2019-07-17T13:40:54Z</time>
      </trkpt>
      <trkpt lat="47.79712" lon="-3.52761">
        <ele>23</ele>
        <time>2019-07-17T13:40:55Z</time>
      </trkpt>
      <trkpt lat="47.79713" lon="-3.52758">
        <ele>23</ele>
        <time>2019-07-17T13:40:56Z</time>
      </trkpt>
      <trkpt lat="47.79715" lon="-3.52754">
        <ele>23</ele>
        <time>2019-07-17T13:40:57Z</time>
      </trkpt>
      <trkpt lat="47.79717" lon="-3.52751">
        <ele>22</ele>
        <time>2019-07-17T13:40:58Z</time>
      </trkpt>
      <trkpt lat="47.79718" lon="-3.52747">
        <ele>22</ele>
        <time>2019-07-17T13:40:59Z</time>
      </trkpt>
      <trkpt lat="47.7972" lon="-3.52743">
        <ele>22</ele>
        <time>2019-07-17T13:41:00Z</time>
      </trkpt>
      <trkpt lat="47.79721" lon="-3.52739">
        <ele>22</ele>
        <time>2019-07-17T13:41:01Z</time>
      </trkpt>
      <trkpt lat="47.79721" lon="-3.52735">
        <ele>22</ele>
        <time>2019-07-17T13:41:02Z</time>
      </trkpt>
      <trkpt lat="47.79722" lon="-3.52732">
        <ele>22</ele>
        <time>2019-07-17T13:41:03Z</time>
      </trkpt>
      <trkpt lat="47.79723" lon="-3.52728">
        <ele>22</ele>
        <time>2019-07-17T13:41:04Z</time>
      </trkpt>
      <trkpt lat="47.79724" lon="-3.52722">
        <ele>22</ele>
        <time>2019-07-17T13:41:05Z</time>
      </trkpt>
      <trkpt lat="47.79725" lon="-3.52716">
        <ele>22</ele>
        <time>2019-07-17T13:41:06Z</time>
      </trkpt>
      <trkpt lat="47.79727" lon="-3.52709">
        <ele>22</ele>
        <time>2019-07-17T13:41:07Z</time>
      </trkpt>
      <trkpt lat="47.79729" lon="-3.52702">
        <ele>21</ele>
        <time>2019-07-17T13:41:08Z</time>
      </trkpt>
      <trkpt lat="47.79732" lon="-3.52695">
        <ele>21</ele>
        <time>2019-07-17T13:41:09Z</time>
      </trkpt>
      <trkpt lat="47.79734" lon="-3.52688">
        <ele>21</ele>
        <time>2019-07-17T13:41:10Z</time>
      </trkpt>
      <trkpt lat="47.79736" lon="-3.52683">
        <ele>21</ele>
        <time>2019-07-17T13:41:11Z</time>
      </trkpt>
      <trkpt lat="47.79737" lon="-3.52677">
        <ele>21</ele>
        <time>2019-07-17T13:41:12Z</time>
      </trkpt>
      <trkpt lat="47.79739" lon="-3.52672">
        <ele>21</ele>
        <time>2019-07-17T13:41:13Z</time>
      </trkpt>
      <trkpt lat="47.79742" lon="-3.52666">
        <ele>20</ele>
        <time>2019-07-17T13:41:14Z</time>
      </trkpt>
      <trkpt lat="47.79745" lon="-3.52658">
        <ele>20</ele>
        <time>2019-07-17T13:41:15Z</time>
      </trkpt>
      <trkpt lat="47.79748" lon="-3.5265">
        <ele>20</ele>
        <time>2019-07-17T13:41:16Z</time>
      </trkpt>
      <trkpt lat="47.79752" lon="-3.5264">
        <ele>20</ele>
        <time>2019-07-17T13:41:17Z</time>
      </trkpt>
      <trkpt lat="47.79756" lon="-3.52631">
        <ele>19</ele>
        <time>2019-07-17T13:41:18Z</time>
      </trkpt>
      <trkpt lat="47.79758" lon="-3.52622">
        <ele>19</ele>
        <time>2019-07-17T13:41:19Z</time>
      </trkpt>
      <trkpt lat="47.79759" lon="-3.52612">
        <ele>19</ele>
        <time>2019-07-17T13:41:20Z</time>
      </trkpt>
      <trkpt lat="47.79758" lon="-3.52603">
        <ele>18</ele>
        <time>2019-07-17T13:41:21Z</time>
      </trkpt>
      <trkpt lat="47.79756" lon="-3.52593">
        <ele>18</ele>
        <time>2019-07-17T13:41:22Z</time>
      </trkpt>
      <trkpt lat="47.79756" lon="-3.52584">
        <ele>18</ele>
        <time>2019-07-17T13:41:23Z</time>
      </trkpt>
      <trkpt lat="47.79757" lon="-3.52574">
        <ele>17</ele>
        <time>2019-07-17T13:41:24Z</time>
      </trkpt>
      <trkpt lat="47.79758" lon="-3.52564">
        <ele>17</ele>
        <time>2019-07-17T13:41:25Z</time>
      </trkpt>
      <trkpt lat="47.7976" lon="-3.52554">
        <ele>16</ele>
        <time>2019-07-17T13:41:26Z</time>
      </trkpt>
      <trkpt lat="47.79763" lon="-3.52544">
        <ele>16</ele>
        <time>2019-07-17T13:41:27Z</time>
      </trkpt>
      <trkpt lat="47.79765" lon="-3.52535">
        <ele>15</ele>
        <time>2019-07-17T13:41:28Z</time>
      </trkpt>
      <trkpt lat="47.79768" lon="-3.52527">
        <ele>15</ele>
        <time>2019-07-17T13:41:29Z</time>
      </trkpt>
      <trkpt lat="47.79769" lon="-3.52518">
        <ele>15</ele>
        <time>2019-07-17T13:41:30Z</time>
      </trkpt>
      <trkpt lat="47.79771" lon="-3.5251">
        <ele>14</ele>
        <time>2019-07-17T13:41:31Z</time>
      </trkpt>
      <trkpt lat="47.79773" lon="-3.52501">
        <ele>14</ele>
        <time>2019-07-17T13:41:32Z</time>
      </trkpt>
      <trkpt lat="47.79774" lon="-3.52493">
        <ele>14</ele>
        <time>2019-07-17T13:41:33Z</time>
      </trkpt>
      <trkpt lat="47.79776" lon="-3.52485">
        <ele>14</ele>
        <time>2019-07-17T13:41:34Z</time>
      </trkpt>
      <trkpt lat="47.79777" lon="-3.52478">
        <ele>14</ele>
        <time>2019-07-17T13:41:35Z</time>
      </trkpt>
      <trkpt lat="47.79779" lon="-3.52471">
        <ele>14</ele>
        <time>2019-07-17T13:41:36Z</time>
      </trkpt>
      <trkpt lat="47.7978" lon="-3.52465">
        <ele>14</ele>
        <time>2019-07-17T13:41:37Z</time>
      </trkpt>
      <trkpt lat="47.79782" lon="-3.52461">
        <ele>13</ele>
        <time>2019-07-17T13:41:38Z</time>
      </trkpt>
      <trkpt lat="47.79783" lon="-3.52456">
        <ele>13</ele>
        <time>2019-07-17T13:41:39Z</time>
      </trkpt>
      <trkpt lat="47.79784" lon="-3.52451">
        <ele>13</ele>
        <time>2019-07-17T13:41:40Z</time>
      </trkpt>
      <trkpt lat="47.79786" lon="-3.52446">
        <ele>13</ele>
        <time>2019-07-17T13:41:41Z</time>
      </trkpt>
      <trkpt lat="47.79788" lon="-3.5244">
        <ele>13</ele>
        <time>2019-07-17T13:41:42Z</time>
      </trkpt>
      <trkpt lat="47.79789" lon="-3.52435">
        <ele>13</ele>
        <time>2019-07-17T13:41:43Z</time>
      </trkpt>
      <trkpt lat="47.79791" lon="-3.5243">
        <ele>13</ele>
        <time>2019-07-17T13:41:44Z</time>
      </trkpt>
      <trkpt lat="47.79792" lon="-3.52425">
        <ele>13</ele>
        <time>2019-07-17T13:41:45Z</time>
      </trkpt>
      <trkpt lat="47.79794" lon="-3.5242">
        <ele>13</ele>
        <time>2019-07-17T13:41:46Z</time>
      </trkpt>
      <trkpt lat="47.79795" lon="-3.52415">
        <ele>13</ele>
        <time>2019-07-17T13:41:47Z</time>
      </trkpt>
      <trkpt lat="47.79797" lon="-3.5241">
        <ele>13</ele>
        <time>2019-07-17T13:41:48Z</time>
      </trkpt>
      <trkpt lat="47.79799" lon="-3.52406">
        <ele>13</ele>
        <time>2019-07-17T13:41:49Z</time>
      </trkpt>
      <trkpt lat="47.798" lon="-3.52403">
        <ele>13</ele>
        <time>2019-07-17T13:41:50Z</time>
      </trkpt>
      <trkpt lat="47.798" lon="-3.52402">
        <ele>13</ele>
        <time>2019-07-17T13:41:51Z</time>
      </trkpt>
      <trkpt lat="47.798" lon="-3.52402">
        <ele>13</ele>
        <time>2019-07-17T13:41:52Z</time>
      </trkpt>
      <trkpt lat="47.798" lon="-3.52401">
        <ele>13</ele>
        <time>2019-07-17T13:41:53Z</time>
      </trkpt>
      <trkpt lat="47.798" lon="-3.52393">
        <ele>13</ele>
        <time>2019-07-17T13:41:54Z</time>
      </trkpt>
      <trkpt lat="47.798" lon="-3.52391">
        <ele>13</ele>
        <time>2019-07-17T13:41:55Z</time>
      </trkpt>
      <trkpt lat="47.79801" lon="-3.52387">
        <ele>13</ele>
        <time>2019-07-17T13:41:56Z</time>
      </trkpt>
      <trkpt lat="47.79801" lon="-3.52384">
        <ele>13</ele>
        <time>2019-07-17T13:41:57Z</time>
      </trkpt>
      <trkpt lat="47.79802" lon="-3.5238">
        <ele>13</ele>
        <time>2019-07-17T13:41:58Z</time>
      </trkpt>
      <trkpt lat="47.79804" lon="-3.52376">
        <ele>13</ele>
        <time>2019-07-17T13:41:59Z</time>
      </trkpt>
      <trkpt lat="47.79805" lon="-3.52371">
        <ele>13</ele>
        <time>2019-07-17T13:42:00Z</time>
      </trkpt>
      <trkpt lat="47.79807" lon="-3.52367">
        <ele>13</ele>
        <time>2019-07-17T13:42:01Z</time>
      </trkpt>
      <trkpt lat="47.79809" lon="-3.52363">
        <ele>13</ele>
        <time>2019-07-17T13:42:02Z</time>
      </trkpt>
      <trkpt lat="47.79811" lon="-3.52358">
        <ele>13</ele>
        <time>2019-07-17T13:42:03Z</time>
      </trkpt>
      <trkpt lat="47.79813" lon="-3.52354">
        <ele>13</ele>
        <time>2019-07-17T13:42:04Z</time>
      </trkpt>
      <trkpt lat="47.79815" lon="-3.52349">
        <ele>13</ele>
        <time>2019-07-17T13:42:05Z</time>
      </trkpt>
      <trkpt lat="47.79817" lon="-3.52345">
        <ele>12</ele>
        <time>2019-07-17T13:42:06Z</time>
      </trkpt>
      <trkpt lat="47.7982" lon="-3.52341">
        <ele>12</ele>
        <time>2019-07-17T13:42:07Z</time>
      </trkpt>
      <trkpt lat="47.79822" lon="-3.52337">
        <ele>12</ele>
        <time>2019-07-17T13:42:08Z</time>
      </trkpt>
      <trkpt lat="47.79824" lon="-3.52333">
        <ele>12</ele>
        <time>2019-07-17T13:42:09Z</time>
      </trkpt>
      <trkpt lat="47.79826" lon="-3.52329">
        <ele>12</ele>
        <time>2019-07-17T13:42:10Z</time>
      </trkpt>
      <trkpt lat="47.79828" lon="-3.52325">
        <ele>12</ele>
        <time>2019-07-17T13:42:11Z</time>
      </trkpt>
      <trkpt lat="47.79831" lon="-3.52321">
        <ele>13</ele>
        <time>2019-07-17T13:42:12Z</time>
      </trkpt>
      <trkpt lat="47.79834" lon="-3.52318">
        <ele>13</ele>
        <time>2019-07-17T13:42:13Z</time>
      </trkpt>
      <trkpt lat="47.79837" lon="-3.52314">
        <ele>13</ele>
        <time>2019-07-17T13:42:14Z</time>
      </trkpt>
      <trkpt lat="47.79839" lon="-3.5231">
        <ele>13</ele>
        <time>2019-07-17T13:42:15Z</time>
      </trkpt>
      <trkpt lat="47.7984" lon="-3.52305">
        <ele>13</ele>
        <time>2019-07-17T13:42:16Z</time>
      </trkpt>
      <trkpt lat="47.7984" lon="-3.523">
        <ele>13</ele>
        <time>2019-07-17T13:42:17Z</time>
      </trkpt>
      <trkpt lat="47.79837" lon="-3.52298">
        <ele>13</ele>
        <time>2019-07-17T13:42:18Z</time>
      </trkpt>
      <trkpt lat="47.79834" lon="-3.52298">
        <ele>13</ele>
        <time>2019-07-17T13:42:19Z</time>
      </trkpt>
      <trkpt lat="47.7983" lon="-3.52299">
        <ele>13</ele>
        <time>2019-07-17T13:42:20Z</time>
      </trkpt>
      <trkpt lat="47.79826" lon="-3.523">
        <ele>13</ele>
        <time>2019-07-17T13:42:21Z</time>
      </trkpt>
      <trkpt lat="47.79822" lon="-3.52301">
        <ele>13</ele>
        <time>2019-07-17T13:42:22Z</time>
      </trkpt>
      <trkpt lat="47.79817" lon="-3.52302">
        <ele>13</ele>
        <time>2019-07-17T13:42:23Z</time>
      </trkpt>
      <trkpt lat="47.79813" lon="-3.52304">
        <ele>14</ele>
        <time>2019-07-17T13:42:24Z</time>
      </trkpt>
      <trkpt lat="47.79808" lon="-3.52305">
        <ele>14</ele>
        <time>2019-07-17T13:42:25Z</time>
      </trkpt>
      <trkpt lat="47.79804" lon="-3.52306">
        <ele>14</ele>
        <time>2019-07-17T13:42:26Z</time>
      </trkpt>
      <trkpt lat="47.79799" lon="-3.52308">
        <ele>14</ele>
        <time>2019-07-17T13:42:27Z</time>
      </trkpt>
      <trkpt lat="47.79794" lon="-3.5231">
        <ele>14</ele>
        <time>2019-07-17T13:42:28Z</time>
      </trkpt>
      <trkpt lat="47.7979" lon="-3.52311">
        <ele>14</ele>
        <time>2019-07-17T13:42:29Z</time>
      </trkpt>
      <trkpt lat="47.79786" lon="-3.52313">
        <ele>15</ele>
        <time>2019-07-17T13:42:30Z</time>
      </trkpt>
      <trkpt lat="47.79782" lon="-3.52314">
        <ele>15</ele>
        <time>2019-07-17T13:42:31Z</time>
      </trkpt>
      <trkpt lat="47.79777" lon="-3.52316">
        <ele>15</ele>
        <time>2019-07-17T13:42:32Z</time>
      </trkpt>
      <trkpt lat="47.79773" lon="-3.52318">
        <ele>15</ele>
        <time>2019-07-17T13:42:33Z</time>
      </trkpt>
      <trkpt lat="47.79768" lon="-3.5232">
        <ele>15</ele>
        <time>2019-07-17T13:42:34Z</time>
      </trkpt>
      <trkpt lat="47.79764" lon="-3.52321">
        <ele>16</ele>
        <time>2019-07-17T13:42:35Z</time>
      </trkpt>
      <trkpt lat="47.79759" lon="-3.52323">
        <ele>16</ele>
        <time>2019-07-17T13:42:36Z</time>
      </trkpt>
      <trkpt lat="47.79754" lon="-3.52325">
        <ele>16</ele>
        <time>2019-07-17T13:42:37Z</time>
      </trkpt>
      <trkpt lat="47.79749" lon="-3.52327">
        <ele>16</ele>
        <time>2019-07-17T13:42:38Z</time>
      </trkpt>
      <trkpt lat="47.79745" lon="-3.52328">
        <ele>16</ele>
        <time>2019-07-17T13:42:39Z</time>
      </trkpt>
      <trkpt lat="47.7974" lon="-3.5233">
        <ele>17</ele>
        <time>2019-07-17T13:42:40Z</time>
      </trkpt>
      <trkpt lat="47.79735" lon="-3.52331">
        <ele>17</ele>
        <time>2019-07-17T13:42:41Z</time>
      </trkpt>
      <trkpt lat="47.7973" lon="-3.52333">
        <ele>17</ele>
        <time>2019-07-17T13:42:42Z</time>
      </trkpt>
      <trkpt lat="47.79725" lon="-3.52335">
        <ele>17</ele>
        <time>2019-07-17T13:42:43Z</time>
      </trkpt>
      <trkpt lat="47.79721" lon="-3.52337">
        <ele>17</ele>
        <time>2019-07-17T13:42:44Z</time>
      </trkpt>
      <trkpt lat="47.79716" lon="-3.52338">
        <ele>17</ele>
        <time>2019-07-17T13:42:45Z</time>
      </trkpt>
      <trkpt lat="47.7971" lon="-3.5234">
        <ele>18</ele>
        <time>2019-07-17T13:42:46Z</time>
      </trkpt>
      <trkpt lat="47.79705" lon="-3.52342">
        <ele>18</ele>
        <time>2019-07-17T13:42:47Z</time>
      </trkpt>
      <trkpt lat="47.797" lon="-3.52344">
        <ele>18</ele>
        <time>2019-07-17T13:42:48Z</time>
      </trkpt>
      <trkpt lat="47.79695" lon="-3.52346">
        <ele>18</ele>
        <time>2019-07-17T13:42:49Z</time>
      </trkpt>
      <trkpt lat="47.7969" lon="-3.52348">
        <ele>18</ele>
        <time>2019-07-17T13:42:50Z</time>
      </trkpt>
      <trkpt lat="47.79685" lon="-3.5235">
        <ele>18</ele>
        <time>2019-07-17T13:42:51Z</time>
      </trkpt>
      <trkpt lat="47.7968" lon="-3.52352">
        <ele>18</ele>
        <time>2019-07-17T13:42:52Z</time>
      </trkpt>
      <trkpt lat="47.79675" lon="-3.52354">
        <ele>18</ele>
        <time>2019-07-17T13:42:53Z</time>
      </trkpt>
      <trkpt lat="47.79669" lon="-3.52356">
        <ele>18</ele>
        <time>2019-07-17T13:42:54Z</time>
      </trkpt>
      <trkpt lat="47.79664" lon="-3.52358">
        <ele>19</ele>
        <time>2019-07-17T13:42:55Z</time>
      </trkpt>
      <trkpt lat="47.79658" lon="-3.5236">
        <ele>19</ele>
        <time>2019-07-17T13:42:56Z</time>
      </trkpt>
      <trkpt lat="47.79653" lon="-3.52362">
        <ele>19</ele>
        <time>2019-07-17T13:42:57Z</time>
      </trkpt>
      <trkpt lat="47.79647" lon="-3.52364">
        <ele>19</ele>
        <time>2019-07-17T13:42:58Z</time>
      </trkpt>
      <trkpt lat="47.79641" lon="-3.52366">
        <ele>19</ele>
        <time>2019-07-17T13:42:59Z</time>
      </trkpt>
      <trkpt lat="47.79636" lon="-3.52368">
        <ele>19</ele>
        <time>2019-07-17T13:43:00Z</time>
      </trkpt>
      <trkpt lat="47.7963" lon="-3.5237">
        <ele>19</ele>
        <time>2019-07-17T13:43:01Z</time>
      </trkpt>
      <trkpt lat="47.79625" lon="-3.52372">
        <ele>19</ele>
        <time>2019-07-17T13:43:02Z</time>
      </trkpt>
      <trkpt lat="47.79619" lon="-3.52374">
        <ele>19</ele>
        <time>2019-07-17T13:43:03Z</time>
      </trkpt>
      <trkpt lat="47.79613" lon="-3.52376">
        <ele>19</ele>
        <time>2019-07-17T13:43:04Z</time>
      </trkpt>
      <trkpt lat="47.79608" lon="-3.52378">
        <ele>19</ele>
        <time>2019-07-17T13:43:05Z</time>
      </trkpt>
      <trkpt lat="47.79602" lon="-3.5238">
        <ele>19</ele>
        <time>2019-07-17T13:43:06Z</time>
      </trkpt>
      <trkpt lat="47.79597" lon="-3.52382">
        <ele>19</ele>
        <time>2019-07-17T13:43:07Z</time>
      </trkpt>
      <trkpt lat="47.79592" lon="-3.52384">
        <ele>19</ele>
        <time>2019-07-17T13:43:08Z</time>
      </trkpt>
      <trkpt lat="47.79587" lon="-3.52386">
        <ele>20</ele>
        <time>2019-07-17T13:43:09Z</time>
      </trkpt>
      <trkpt lat="47.79581" lon="-3.52388">
        <ele>20</ele>
        <time>2019-07-17T13:43:10Z</time>
      </trkpt>
      <trkpt lat="47.79577" lon="-3.5239">
        <ele>20</ele>
        <time>2019-07-17T13:43:11Z</time>
      </trkpt>
      <trkpt lat="47.79571" lon="-3.52391">
        <ele>20</ele>
        <time>2019-07-17T13:43:12Z</time>
      </trkpt>
      <trkpt lat="47.79567" lon="-3.52393">
        <ele>20</ele>
        <time>2019-07-17T13:43:13Z</time>
      </trkpt>
      <trkpt lat="47.79562" lon="-3.52395">
        <ele>21</ele>
        <time>2019-07-17T13:43:14Z</time>
      </trkpt>
      <trkpt lat="47.79557" lon="-3.52396">
        <ele>21</ele>
        <time>2019-07-17T13:43:15Z</time>
      </trkpt>
      <trkpt lat="47.79553" lon="-3.52398">
        <ele>21</ele>
        <time>2019-07-17T13:43:16Z</time>
      </trkpt>
      <trkpt lat="47.79548" lon="-3.524">
        <ele>21</ele>
        <time>2019-07-17T13:43:17Z</time>
      </trkpt>
      <trkpt lat="47.79544" lon="-3.52402">
        <ele>21</ele>
        <time>2019-07-17T13:43:18Z</time>
      </trkpt>
      <trkpt lat="47.79539" lon="-3.52403">
        <ele>21</ele>
        <time>2019-07-17T13:43:19Z</time>
      </trkpt>
      <trkpt lat="47.79535" lon="-3.52405">
        <ele>22</ele>
        <time>2019-07-17T13:43:20Z</time>
      </trkpt>
      <trkpt lat="47.7953" lon="-3.52406">
        <ele>22</ele>
        <time>2019-07-17T13:43:21Z</time>
      </trkpt>
      <trkpt lat="47.79526" lon="-3.52408">
        <ele>22</ele>
        <time>2019-07-17T13:43:22Z</time>
      </trkpt>
      <trkpt lat="47.79522" lon="-3.52409">
        <ele>22</ele>
        <time>2019-07-17T13:43:23Z</time>
      </trkpt>
      <trkpt lat="47.79517" lon="-3.5241">
        <ele>22</ele>
        <time>2019-07-17T13:43:24Z</time>
      </trkpt>
      <trkpt lat="47.79513" lon="-3.52412">
        <ele>22</ele>
        <time>2019-07-17T13:43:25Z</time>
      </trkpt>
      <trkpt lat="47.79509" lon="-3.52413">
        <ele>23</ele>
        <time>2019-07-17T13:43:26Z</time>
      </trkpt>
      <trkpt lat="47.79505" lon="-3.52415">
        <ele>23</ele>
        <time>2019-07-17T13:43:27Z</time>
      </trkpt>
      <trkpt lat="47.79501" lon="-3.52416">
        <ele>23</ele>
        <time>2019-07-17T13:43:28Z</time>
      </trkpt>
      <trkpt lat="47.79496" lon="-3.52417">
        <ele>23</ele>
        <time>2019-07-17T13:43:29Z</time>
      </trkpt>
      <trkpt lat="47.79492" lon="-3.52419">
        <ele>24</ele>
        <time>2019-07-17T13:43:30Z</time>
      </trkpt>
      <trkpt lat="47.79488" lon="-3.5242">
        <ele>24</ele>
        <time>2019-07-17T13:43:31Z</time>
      </trkpt>
      <trkpt lat="47.79484" lon="-3.52421">
        <ele>24</ele>
        <time>2019-07-17T13:43:32Z</time>
      </trkpt>
      <trkpt lat="47.7948" lon="-3.52423">
        <ele>24</ele>
        <time>2019-07-17T13:43:33Z</time>
      </trkpt>
      <trkpt lat="47.79476" lon="-3.52424">
        <ele>25</ele>
        <time>2019-07-17T13:43:34Z</time>
      </trkpt>
      <trkpt lat="47.79472" lon="-3.52425">
        <ele>25</ele>
        <time>2019-07-17T13:43:35Z</time>
      </trkpt>
      <trkpt lat="47.79467" lon="-3.52425">
        <ele>25</ele>
        <time>2019-07-17T13:43:36Z</time>
      </trkpt>
      <trkpt lat="47.79463" lon="-3.52426">
        <ele>26</ele>
        <time>2019-07-17T13:43:37Z</time>
      </trkpt>
      <trkpt lat="47.79459" lon="-3.52427">
        <ele>26</ele>
        <time>2019-07-17T13:43:38Z</time>
      </trkpt>
      <trkpt lat="47.79455" lon="-3.52428">
        <ele>27</ele>
        <time>2019-07-17T13:43:39Z</time>
      </trkpt>
      <trkpt lat="47.79451" lon="-3.52428">
        <ele>27</ele>
        <time>2019-07-17T13:43:40Z</time>
      </trkpt>
      <trkpt lat="47.79447" lon="-3.52429">
        <ele>28</ele>
        <time>2019-07-17T13:43:41Z</time>
      </trkpt>
      <trkpt lat="47.79444" lon="-3.52429">
        <ele>28</ele>
        <time>2019-07-17T13:43:42Z</time>
      </trkpt>
      <trkpt lat="47.7944" lon="-3.52429">
        <ele>29</ele>
        <time>2019-07-17T13:43:43Z</time>
      </trkpt>
      <trkpt lat="47.79436" lon="-3.5243">
        <ele>29</ele>
        <time>2019-07-17T13:43:44Z</time>
      </trkpt>
      <trkpt lat="47.79432" lon="-3.5243">
        <ele>30</ele>
        <time>2019-07-17T13:43:45Z</time>
      </trkpt>
      <trkpt lat="47.79428" lon="-3.5243">
        <ele>30</ele>
        <time>2019-07-17T13:43:46Z</time>
      </trkpt>
      <trkpt lat="47.79424" lon="-3.5243">
        <ele>30</ele>
        <time>2019-07-17T13:43:47Z</time>
      </trkpt>
      <trkpt lat="47.7942" lon="-3.5243">
        <ele>31</ele>
        <time>2019-07-17T13:43:48Z</time>
      </trkpt>
      <trkpt lat="47.79417" lon="-3.5243">
        <ele>31</ele>
        <time>2019-07-17T13:43:49Z</time>
      </trkpt>
      <trkpt lat="47.79413" lon="-3.5243">
        <ele>32</ele>
        <time>2019-07-17T13:43:50Z</time>
      </trkpt>
      <trkpt lat="47.79409" lon="-3.5243">
        <ele>32</ele>
        <time>2019-07-17T13:43:51Z</time>
      </trkpt>
      <trkpt lat="47.79405" lon="-3.5243">
        <ele>32</ele>
        <time>2019-07-17T13:43:52Z</time>
      </trkpt>
      <trkpt lat="47.79401" lon="-3.5243">
        <ele>33</ele>
        <time>2019-07-17T13:43:53Z</time>
      </trkpt>
      <trkpt lat="47.79397" lon="-3.52429">
        <ele>33</ele>
        <time>2019-07-17T13:43:54Z</time>
      </trkpt>
      <trkpt lat="47.79394" lon="-3.52429">
        <ele>34</ele>
        <time>2019-07-17T13:43:55Z</time>
      </trkpt>
      <trkpt lat="47.7939" lon="-3.52429">
        <ele>34</ele>
        <time>2019-07-17T13:43:56Z</time>
      </trkpt>
      <trkpt lat="47.79386" lon="-3.52429">
        <ele>34</ele>
        <time>2019-07-17T13:43:57Z</time>
      </trkpt>
      <trkpt lat="47.79382" lon="-3.52428">
        <ele>35</ele>
        <time>2019-07-17T13:43:58Z</time>
      </trkpt>
      <trkpt lat="47.79378" lon="-3.52428">
        <ele>35</ele>
        <time>2019-07-17T13:43:59Z</time>
      </trkpt>
      <trkpt lat="47.79374" lon="-3.52427">
        <ele>35</ele>
        <time>2019-07-17T13:44:00Z</time>
      </trkpt>
      <trkpt lat="47.7937" lon="-3.52426">
        <ele>35</ele>
        <time>2019-07-17T13:44:01Z</time>
      </trkpt>
      <trkpt lat="47.79366" lon="-3.52425">
        <ele>36</ele>
        <time>2019-07-17T13:44:02Z</time>
      </trkpt>
      <trkpt lat="47.79362" lon="-3.52424">
        <ele>36</ele>
        <time>2019-07-17T13:44:03Z</time>
      </trkpt>
      <trkpt lat="47.79358" lon="-3.52423">
        <ele>36</ele>
        <time>2019-07-17T13:44:04Z</time>
      </trkpt>
      <trkpt lat="47.79354" lon="-3.52422">
        <ele>36</ele>
        <time>2019-07-17T13:44:05Z</time>
      </trkpt>
      <trkpt lat="47.7935" lon="-3.5242">
        <ele>36</ele>
        <time>2019-07-17T13:44:06Z</time>
      </trkpt>
      <trkpt lat="47.79346" lon="-3.52419">
        <ele>37</ele>
        <time>2019-07-17T13:44:07Z</time>
      </trkpt>
      <trkpt lat="47.79342" lon="-3.52417">
        <ele>37</ele>
        <time>2019-07-17T13:44:08Z</time>
      </trkpt>
      <trkpt lat="47.79338" lon="-3.52415">
        <ele>37</ele>
        <time>2019-07-17T13:44:09Z</time>
      </trkpt>
      <trkpt lat="47.79334" lon="-3.52413">
        <ele>37</ele>
        <time>2019-07-17T13:44:10Z</time>
      </trkpt>
      <trkpt lat="47.7933" lon="-3.52411">
        <ele>37</ele>
        <time>2019-07-17T13:44:11Z</time>
      </trkpt>
      <trkpt lat="47.79326" lon="-3.52409">
        <ele>38</ele>
        <time>2019-07-17T13:44:12Z</time>
      </trkpt>
      <trkpt lat="47.79322" lon="-3.52406">
        <ele>38</ele>
        <time>2019-07-17T13:44:13Z</time>
      </trkpt>
      <trkpt lat="47.79318" lon="-3.52403">
        <ele>38</ele>
        <time>2019-07-17T13:44:14Z</time>
      </trkpt>
      <trkpt lat="47.79314" lon="-3.524">
        <ele>39</ele>
        <time>2019-07-17T13:44:15Z</time>
      </trkpt>
      <trkpt lat="47.7931" lon="-3.52397">
        <ele>39</ele>
        <time>2019-07-17T13:44:16Z</time>
      </trkpt>
      <trkpt lat="47.79306" lon="-3.52394">
        <ele>39</ele>
        <time>2019-07-17T13:44:17Z</time>
      </trkpt>
      <trkpt lat="47.79302" lon="-3.52391">
        <ele>39</ele>
        <time>2019-07-17T13:44:18Z</time>
      </trkpt>
      <trkpt lat="47.79298" lon="-3.52388">
        <ele>39</ele>
        <time>2019-07-17T13:44:19Z</time>
      </trkpt>
      <trkpt lat="47.79295" lon="-3.52384">
        <ele>39</ele>
        <time>2019-07-17T13:44:20Z</time>
      </trkpt>
      <trkpt lat="47.79291" lon="-3.5238">
        <ele>39</ele>
        <time>2019-07-17T13:44:21Z</time>
      </trkpt>
      <trkpt lat="47.79287" lon="-3.52377">
        <ele>39</ele>
        <time>2019-07-17T13:44:22Z</time>
      </trkpt>
      <trkpt lat="47.79283" lon="-3.52373">
        <ele>40</ele>
        <time>2019-07-17T13:44:23Z</time>
      </trkpt>
      <trkpt lat="47.79279" lon="-3.52369">
        <ele>40</ele>
        <time>2019-07-17T13:44:24Z</time>
      </trkpt>
      <trkpt lat="47.79276" lon="-3.52364">
        <ele>40</ele>
        <time>2019-07-17T13:44:25Z</time>
      </trkpt>
      <trkpt lat="47.79272" lon="-3.52359">
        <ele>40</ele>
        <time>2019-07-17T13:44:26Z</time>
      </trkpt>
      <trkpt lat="47.79268" lon="-3.52354">
        <ele>40</ele>
        <time>2019-07-17T13:44:27Z</time>
      </trkpt>
      <trkpt lat="47.79265" lon="-3.52349">
        <ele>40</ele>
        <time>2019-07-17T13:44:28Z</time>
      </trkpt>
      <trkpt lat="47.79261" lon="-3.52344">
        <ele>40</ele>
        <time>2019-07-17T13:44:29Z</time>
      </trkpt>
      <trkpt lat="47.79258" lon="-3.52338">
        <ele>40</ele>
        <time>2019-07-17T13:44:30Z</time>
      </trkpt>
      <trkpt lat="47.79254" lon="-3.52333">
        <ele>40</ele>
        <time>2019-07-17T13:44:31Z</time>
      </trkpt>
      <trkpt lat="47.79251" lon="-3.52327">
        <ele>40</ele>
        <time>2019-07-17T13:44:32Z</time>
      </trkpt>
      <trkpt lat="47.79247" lon="-3.52321">
        <ele>40</ele>
        <time>2019-07-17T13:44:33Z</time>
      </trkpt>
      <trkpt lat="47.79245" lon="-3.52315">
        <ele>40</ele>
        <time>2019-07-17T13:44:34Z</time>
      </trkpt>
      <trkpt lat="47.79242" lon="-3.52309">
        <ele>40</ele>
        <time>2019-07-17T13:44:35Z</time>
      </trkpt>
      <trkpt lat="47.79239" lon="-3.52302">
        <ele>40</ele>
        <time>2019-07-17T13:44:36Z</time>
      </trkpt>
      <trkpt lat="47.79236" lon="-3.52296">
        <ele>40</ele>
        <time>2019-07-17T13:44:37Z</time>
      </trkpt>
      <trkpt lat="47.79233" lon="-3.52289">
        <ele>40</ele>
        <time>2019-07-17T13:44:38Z</time>
      </trkpt>
      <trkpt lat="47.7923" lon="-3.52282">
        <ele>39</ele>
        <time>2019-07-17T13:44:39Z</time>
      </trkpt>
      <trkpt lat="47.79228" lon="-3.52275">
        <ele>39</ele>
        <time>2019-07-17T13:44:40Z</time>
      </trkpt>
      <trkpt lat="47.79225" lon="-3.52268">
        <ele>39</ele>
        <time>2019-07-17T13:44:41Z</time>
      </trkpt>
      <trkpt lat="47.79223" lon="-3.52261">
        <ele>38</ele>
        <time>2019-07-17T13:44:42Z</time>
      </trkpt>
      <trkpt lat="47.79221" lon="-3.52253">
        <ele>38</ele>
        <time>2019-07-17T13:44:43Z</time>
      </trkpt>
      <trkpt lat="47.79219" lon="-3.52245">
        <ele>38</ele>
        <time>2019-07-17T13:44:44Z</time>
      </trkpt>
      <trkpt lat="47.79217" lon="-3.52237">
        <ele>38</ele>
        <time>2019-07-17T13:44:45Z</time>
      </trkpt>
      <trkpt lat="47.79216" lon="-3.52229">
        <ele>37</ele>
        <time>2019-07-17T13:44:46Z</time>
      </trkpt>
      <trkpt lat="47.79214" lon="-3.5222">
        <ele>37</ele>
        <time>2019-07-17T13:44:47Z</time>
      </trkpt>
      <trkpt lat="47.79213" lon="-3.52212">
        <ele>37</ele>
        <time>2019-07-17T13:44:48Z</time>
      </trkpt>
      <trkpt lat="47.79212" lon="-3.52204">
        <ele>37</ele>
        <time>2019-07-17T13:44:49Z</time>
      </trkpt>
      <trkpt lat="47.7921" lon="-3.52195">
        <ele>37</ele>
        <time>2019-07-17T13:44:50Z</time>
      </trkpt>
      <trkpt lat="47.7921" lon="-3.52187">
        <ele>36</ele>
        <time>2019-07-17T13:44:51Z</time>
      </trkpt>
      <trkpt lat="47.79209" lon="-3.52178">
        <ele>36</ele>
        <time>2019-07-17T13:44:52Z</time>
      </trkpt>
      <trkpt lat="47.79208" lon="-3.5217">
        <ele>36</ele>
        <time>2019-07-17T13:44:53Z</time>
      </trkpt>
      <trkpt lat="47.79207" lon="-3.5216">
        <ele>36</ele>
        <time>2019-07-17T13:44:54Z</time>
      </trkpt>
      <trkpt lat="47.79207" lon="-3.52152">
        <ele>35</ele>
        <time>2019-07-17T13:44:55Z</time>
      </trkpt>
      <trkpt lat="47.79207" lon="-3.52143">
        <ele>35</ele>
        <time>2019-07-17T13:44:56Z</time>
      </trkpt>
      <trkpt lat="47.79207" lon="-3.52134">
        <ele>35</ele>
        <time>2019-07-17T13:44:57Z</time>
      </trkpt>
      <trkpt lat="47.79207" lon="-3.52125">
        <ele>35</ele>
        <time>2019-07-17T13:44:58Z</time>
      </trkpt>
      <trkpt lat="47.79207" lon="-3.52116">
        <ele>35</ele>
        <time>2019-07-17T13:44:59Z</time>
      </trkpt>
      <trkpt lat="47.79207" lon="-3.52107">
        <ele>35</ele>
        <time>2019-07-17T13:45:00Z</time>
      </trkpt>
      <trkpt lat="47.79207" lon="-3.52098">
        <ele>35</ele>
        <time>2019-07-17T13:45:01Z</time>
      </trkpt>
      <trkpt lat="47.79207" lon="-3.52089">
        <ele>34</ele>
        <time>2019-07-17T13:45:02Z</time>
      </trkpt>
      <trkpt lat="47.79207" lon="-3.52081">
        <ele>34</ele>
        <time>2019-07-17T13:45:03Z</time>
      </trkpt>
      <trkpt lat="47.79207" lon="-3.52072">
        <ele>34</ele>
        <time>2019-07-17T13:45:04Z</time>
      </trkpt>
      <trkpt lat="47.79207" lon="-3.52063">
        <ele>34</ele>
        <time>2019-07-17T13:45:05Z</time>
      </trkpt>
      <trkpt lat="47.79207" lon="-3.52054">
        <ele>34</ele>
        <time>2019-07-17T13:45:06Z</time>
      </trkpt>
      <trkpt lat="47.79207" lon="-3.52045">
        <ele>34</ele>
        <time>2019-07-17T13:45:07Z</time>
      </trkpt>
      <trkpt lat="47.79208" lon="-3.52036">
        <ele>34</ele>
        <time>2019-07-17T13:45:08Z</time>
      </trkpt>
      <trkpt lat="47.79208" lon="-3.52028">
        <ele>34</ele>
        <time>2019-07-17T13:45:09Z</time>
      </trkpt>
      <trkpt lat="47.79209" lon="-3.52019">
        <ele>34</ele>
        <time>2019-07-17T13:45:10Z</time>
      </trkpt>
      <trkpt lat="47.79209" lon="-3.5201">
        <ele>34</ele>
        <time>2019-07-17T13:45:11Z</time>
      </trkpt>
      <trkpt lat="47.79209" lon="-3.52002">
        <ele>35</ele>
        <time>2019-07-17T13:45:12Z</time>
      </trkpt>
      <trkpt lat="47.79209" lon="-3.51993">
        <ele>35</ele>
        <time>2019-07-17T13:45:13Z</time>
      </trkpt>
      <trkpt lat="47.7921" lon="-3.51984">
        <ele>35</ele>
        <time>2019-07-17T13:45:14Z</time>
      </trkpt>
      <trkpt lat="47.7921" lon="-3.51975">
        <ele>35</ele>
        <time>2019-07-17T13:45:15Z</time>
      </trkpt>
      <trkpt lat="47.7921" lon="-3.51967">
        <ele>35</ele>
        <time>2019-07-17T13:45:16Z</time>
      </trkpt>
      <trkpt lat="47.79211" lon="-3.51958">
        <ele>35</ele>
        <time>2019-07-17T13:45:17Z</time>
      </trkpt>
      <trkpt lat="47.79211" lon="-3.51949">
        <ele>35</ele>
        <time>2019-07-17T13:45:18Z</time>
      </trkpt>
      <trkpt lat="47.79212" lon="-3.5194">
        <ele>35</ele>
        <time>2019-07-17T13:45:19Z</time>
      </trkpt>
      <trkpt lat="47.79213" lon="-3.51931">
        <ele>35</ele>
        <time>2019-07-17T13:45:20Z</time>
      </trkpt>
      <trkpt lat="47.79214" lon="-3.51922">
        <ele>35</ele>
        <time>2019-07-17T13:45:21Z</time>
      </trkpt>
      <trkpt lat="47.79215" lon="-3.51914">
        <ele>35</ele>
        <time>2019-07-17T13:45:22Z</time>
      </trkpt>
      <trkpt lat="47.79216" lon="-3.51905">
        <ele>35</ele>
        <time>2019-07-17T13:45:23Z</time>
      </trkpt>
      <trkpt lat="47.79218" lon="-3.51896">
        <ele>35</ele>
        <time>2019-07-17T13:45:24Z</time>
      </trkpt>
      <trkpt lat="47.79219" lon="-3.51888">
        <ele>35</ele>
        <time>2019-07-17T13:45:25Z</time>
      </trkpt>
      <trkpt lat="47.79221" lon="-3.5188">
        <ele>35</ele>
        <time>2019-07-17T13:45:26Z</time>
      </trkpt>
      <trkpt lat="47.79224" lon="-3.51872">
        <ele>35</ele>
        <time>2019-07-17T13:45:27Z</time>
      </trkpt>
      <trkpt lat="47.79226" lon="-3.51864">
        <ele>36</ele>
        <time>2019-07-17T13:45:28Z</time>
      </trkpt>
      <trkpt lat="47.79229" lon="-3.51856">
        <ele>36</ele>
        <time>2019-07-17T13:45:29Z</time>
      </trkpt>
      <trkpt lat="47.79231" lon="-3.51849">
        <ele>36</ele>
        <time>2019-07-17T13:45:30Z</time>
      </trkpt>
      <trkpt lat="47.79235" lon="-3.51842">
        <ele>36</ele>
        <time>2019-07-17T13:45:31Z</time>
      </trkpt>
      <trkpt lat="47.79238" lon="-3.51835">
        <ele>36</ele>
        <time>2019-07-17T13:45:32Z</time>
      </trkpt>
      <trkpt lat="47.79242" lon="-3.51829">
        <ele>36</ele>
        <time>2019-07-17T13:45:33Z</time>
      </trkpt>
      <trkpt lat="47.79246" lon="-3.51822">
        <ele>36</ele>
        <time>2019-07-17T13:45:34Z</time>
      </trkpt>
      <trkpt lat="47.79249" lon="-3.51816">
        <ele>36</ele>
        <time>2019-07-17T13:45:35Z</time>
      </trkpt>
      <trkpt lat="47.79253" lon="-3.51809">
        <ele>37</ele>
        <time>2019-07-17T13:45:36Z</time>
      </trkpt>
      <trkpt lat="47.79257" lon="-3.51803">
        <ele>37</ele>
        <time>2019-07-17T13:45:37Z</time>
      </trkpt>
      <trkpt lat="47.79261" lon="-3.51797">
        <ele>37</ele>
        <time>2019-07-17T13:45:38Z</time>
      </trkpt>
      <trkpt lat="47.79265" lon="-3.51791">
        <ele>37</ele>
        <time>2019-07-17T13:45:39Z</time>
      </trkpt>
      <trkpt lat="47.79269" lon="-3.51785">
        <ele>37</ele>
        <time>2019-07-17T13:45:40Z</time>
      </trkpt>
      <trkpt lat="47.79272" lon="-3.51779">
        <ele>37</ele>
        <time>2019-07-17T13:45:41Z</time>
      </trkpt>
      <trkpt lat="47.79276" lon="-3.51773">
        <ele>37</ele>
        <time>2019-07-17T13:45:42Z</time>
      </trkpt>
      <trkpt lat="47.7928" lon="-3.51767">
        <ele>37</ele>
        <time>2019-07-17T13:45:43Z</time>
      </trkpt>
      <trkpt lat="47.79284" lon="-3.51761">
        <ele>37</ele>
        <time>2019-07-17T13:45:44Z</time>
      </trkpt>
      <trkpt lat="47.79288" lon="-3.51755">
        <ele>37</ele>
        <time>2019-07-17T13:45:45Z</time>
      </trkpt>
      <trkpt lat="47.79292" lon="-3.51749">
        <ele>37</ele>
        <time>2019-07-17T13:45:46Z</time>
      </trkpt>
      <trkpt lat="47.79297" lon="-3.51743">
        <ele>37</ele>
        <time>2019-07-17T13:45:47Z</time>
      </trkpt>
      <trkpt lat="47.79301" lon="-3.51736">
        <ele>37</ele>
        <time>2019-07-17T13:45:48Z</time>
      </trkpt>
      <trkpt lat="47.79305" lon="-3.5173">
        <ele>37</ele>
        <time>2019-07-17T13:45:49Z</time>
      </trkpt>
      <trkpt lat="47.79309" lon="-3.51724">
        <ele>37</ele>
        <time>2019-07-17T13:45:50Z</time>
      </trkpt>
      <trkpt lat="47.79313" lon="-3.51719">
        <ele>37</ele>
        <time>2019-07-17T13:45:51Z</time>
      </trkpt>
      <trkpt lat="47.79317" lon="-3.51713">
        <ele>37</ele>
        <time>2019-07-17T13:45:52Z</time>
      </trkpt>
      <trkpt lat="47.79321" lon="-3.51706">
        <ele>36</ele>
        <time>2019-07-17T13:45:53Z</time>
      </trkpt>
      <trkpt lat="47.79325" lon="-3.517">
        <ele>36</ele>
        <time>2019-07-17T13:45:54Z</time>
      </trkpt>
      <trkpt lat="47.79329" lon="-3.51694">
        <ele>36</ele>
        <time>2019-07-17T13:45:55Z</time>
      </trkpt>
      <trkpt lat="47.79333" lon="-3.51688">
        <ele>36</ele>
        <time>2019-07-17T13:45:56Z</time>
      </trkpt>
      <trkpt lat="47.79338" lon="-3.51681">
        <ele>36</ele>
        <time>2019-07-17T13:45:57Z</time>
      </trkpt>
      <trkpt lat="47.79342" lon="-3.51675">
        <ele>36</ele>
        <time>2019-07-17T13:45:58Z</time>
      </trkpt>
      <trkpt lat="47.79347" lon="-3.51668">
        <ele>36</ele>
        <time>2019-07-17T13:45:59Z</time>
      </trkpt>
      <trkpt lat="47.79351" lon="-3.51661">
        <ele>36</ele>
        <time>2019-07-17T13:46:00Z</time>
      </trkpt>
      <trkpt lat="47.79356" lon="-3.51655">
        <ele>36</ele>
        <time>2019-07-17T13:46:01Z</time>
      </trkpt>
      <trkpt lat="47.7936" lon="-3.51648">
        <ele>36</ele>
        <time>2019-07-17T13:46:02Z</time>
      </trkpt>
      <trkpt lat="47.79365" lon="-3.51641">
        <ele>36</ele>
        <time>2019-07-17T13:46:03Z</time>
      </trkpt>
      <trkpt lat="47.7937" lon="-3.51634">
        <ele>36</ele>
        <time>2019-07-17T13:46:04Z</time>
      </trkpt>
      <trkpt lat="47.79374" lon="-3.51627">
        <ele>36</ele>
        <time>2019-07-17T13:46:05Z</time>
      </trkpt>
      <trkpt lat="47.79378" lon="-3.5162">
        <ele>37</ele>
        <time>2019-07-17T13:46:06Z</time>
      </trkpt>
      <trkpt lat="47.79383" lon="-3.51613">
        <ele>37</ele>
        <time>2019-07-17T13:46:07Z</time>
      </trkpt>
      <trkpt lat="47.79387" lon="-3.51606">
        <ele>37</ele>
        <time>2019-07-17T13:46:08Z</time>
      </trkpt>
      <trkpt lat="47.79391" lon="-3.51599">
        <ele>37</ele>
        <time>2019-07-17T13:46:09Z</time>
      </trkpt>
      <trkpt lat="47.79396" lon="-3.51592">
        <ele>37</ele>
        <time>2019-07-17T13:46:10Z</time>
      </trkpt>
      <trkpt lat="47.794" lon="-3.51584">
        <ele>38</ele>
        <time>2019-07-17T13:46:11Z</time>
      </trkpt>
      <trkpt lat="47.79403" lon="-3.51577">
        <ele>38</ele>
        <time>2019-07-17T13:46:12Z</time>
      </trkpt>
      <trkpt lat="47.79407" lon="-3.51569">
        <ele>38</ele>
        <time>2019-07-17T13:46:13Z</time>
      </trkpt>
      <trkpt lat="47.7941" lon="-3.51562">
        <ele>38</ele>
        <time>2019-07-17T13:46:14Z</time>
      </trkpt>
      <trkpt lat="47.79414" lon="-3.51555">
        <ele>39</ele>
        <time>2019-07-17T13:46:15Z</time>
      </trkpt>
      <trkpt lat="47.79417" lon="-3.51548">
        <ele>39</ele>
        <time>2019-07-17T13:46:16Z</time>
      </trkpt>
      <trkpt lat="47.7942" lon="-3.51541">
        <ele>39</ele>
        <time>2019-07-17T13:46:17Z</time>
      </trkpt>
      <trkpt lat="47.79423" lon="-3.51533">
        <ele>40</ele>
        <time>2019-07-17T13:46:18Z</time>
      </trkpt>
      <trkpt lat="47.79425" lon="-3.51526">
        <ele>40</ele>
        <time>2019-07-17T13:46:19Z</time>
      </trkpt>
      <trkpt lat="47.79428" lon="-3.51519">
        <ele>40</ele>
        <time>2019-07-17T13:46:20Z</time>
      </trkpt>
      <trkpt lat="47.7943" lon="-3.51511">
        <ele>40</ele>
        <time>2019-07-17T13:46:21Z</time>
      </trkpt>
      <trkpt lat="47.79433" lon="-3.51504">
        <ele>41</ele>
        <time>2019-07-17T13:46:22Z</time>
      </trkpt>
      <trkpt lat="47.79435" lon="-3.51497">
        <ele>41</ele>
        <time>2019-07-17T13:46:23Z</time>
      </trkpt>
      <trkpt lat="47.79437" lon="-3.5149">
        <ele>41</ele>
        <time>2019-07-17T13:46:24Z</time>
      </trkpt>
      <trkpt lat="47.7944" lon="-3.51483">
        <ele>41</ele>
        <time>2019-07-17T13:46:25Z</time>
      </trkpt>
      <trkpt lat="47.79441" lon="-3.51475">
        <ele>42</ele>
        <time>2019-07-17T13:46:26Z</time>
      </trkpt>
      <trkpt lat="47.79443" lon="-3.51468">
        <ele>42</ele>
        <time>2019-07-17T13:46:27Z</time>
      </trkpt>
      <trkpt lat="47.79444" lon="-3.5146">
        <ele>42</ele>
        <time>2019-07-17T13:46:28Z</time>
      </trkpt>
      <trkpt lat="47.79445" lon="-3.51452">
        <ele>42</ele>
        <time>2019-07-17T13:46:29Z</time>
      </trkpt>
      <trkpt lat="47.79446" lon="-3.51444">
        <ele>43</ele>
        <time>2019-07-17T13:46:30Z</time>
      </trkpt>
      <trkpt lat="47.79447" lon="-3.51436">
        <ele>43</ele>
        <time>2019-07-17T13:46:31Z</time>
      </trkpt>
      <trkpt lat="47.79449" lon="-3.51428">
        <ele>43</ele>
        <time>2019-07-17T13:46:32Z</time>
      </trkpt>
      <trkpt lat="47.7945" lon="-3.5142">
        <ele>43</ele>
        <time>2019-07-17T13:46:33Z</time>
      </trkpt>
      <trkpt lat="47.7945" lon="-3.51411">
        <ele>43</ele>
        <time>2019-07-17T13:46:34Z</time>
      </trkpt>
      <trkpt lat="47.79451" lon="-3.51402">
        <ele>44</ele>
        <time>2019-07-17T13:46:35Z</time>
      </trkpt>
      <trkpt lat="47.79452" lon="-3.51394">
        <ele>44</ele>
        <time>2019-07-17T13:46:36Z</time>
      </trkpt>
      <trkpt lat="47.79453" lon="-3.51385">
        <ele>44</ele>
        <time>2019-07-17T13:46:37Z</time>
      </trkpt>
      <trkpt lat="47.79454" lon="-3.51376">
        <ele>44</ele>
        <time>2019-07-17T13:46:38Z</time>
      </trkpt>
      <trkpt lat="47.79455" lon="-3.51368">
        <ele>44</ele>
        <time>2019-07-17T13:46:39Z</time>
      </trkpt>
      <trkpt lat="47.79455" lon="-3.51359">
        <ele>44</ele>
        <time>2019-07-17T13:46:40Z</time>
      </trkpt>
      <trkpt lat="47.79456" lon="-3.5135">
        <ele>44</ele>
        <time>2019-07-17T13:46:41Z</time>
      </trkpt>
      <trkpt lat="47.79457" lon="-3.51341">
        <ele>44</ele>
        <time>2019-07-17T13:46:42Z</time>
      </trkpt>
      <trkpt lat="47.79458" lon="-3.51332">
        <ele>44</ele>
        <time>2019-07-17T13:46:43Z</time>
      </trkpt>
      <trkpt lat="47.79459" lon="-3.51324">
        <ele>44</ele>
        <time>2019-07-17T13:46:44Z</time>
      </trkpt>
      <trkpt lat="47.79459" lon="-3.51315">
        <ele>44</ele>
        <time>2019-07-17T13:46:45Z</time>
      </trkpt>
      <trkpt lat="47.7946" lon="-3.51306">
        <ele>44</ele>
        <time>2019-07-17T13:46:46Z</time>
      </trkpt>
      <trkpt lat="47.79461" lon="-3.51298">
        <ele>44</ele>
        <time>2019-07-17T13:46:47Z</time>
      </trkpt>
      <trkpt lat="47.79462" lon="-3.51289">
        <ele>45</ele>
        <time>2019-07-17T13:46:48Z</time>
      </trkpt>
      <trkpt lat="47.79463" lon="-3.51281">
        <ele>45</ele>
        <time>2019-07-17T13:46:49Z</time>
      </trkpt>
      <trkpt lat="47.79463" lon="-3.51272">
        <ele>45</ele>
        <time>2019-07-17T13:46:50Z</time>
      </trkpt>
      <trkpt lat="47.79464" lon="-3.51263">
        <ele>45</ele>
        <time>2019-07-17T13:46:51Z</time>
      </trkpt>
      <trkpt lat="47.79465" lon="-3.51255">
        <ele>45</ele>
        <time>2019-07-17T13:46:52Z</time>
      </trkpt>
      <trkpt lat="47.79466" lon="-3.51246">
        <ele>45</ele>
        <time>2019-07-17T13:46:53Z</time>
      </trkpt>
      <trkpt lat="47.79466" lon="-3.51237">
        <ele>46</ele>
        <time>2019-07-17T13:46:54Z</time>
      </trkpt>
      <trkpt lat="47.79467" lon="-3.51228">
        <ele>46</ele>
        <time>2019-07-17T13:46:55Z</time>
      </trkpt>
      <trkpt lat="47.79468" lon="-3.51219">
        <ele>46</ele>
        <time>2019-07-17T13:46:56Z</time>
      </trkpt>
      <trkpt lat="47.79468" lon="-3.51211">
        <ele>46</ele>
        <time>2019-07-17T13:46:57Z</time>
      </trkpt>
      <trkpt lat="47.79469" lon="-3.51201">
        <ele>46</ele>
        <time>2019-07-17T13:46:58Z</time>
      </trkpt>
      <trkpt lat="47.79469" lon="-3.51193">
        <ele>47</ele>
        <time>2019-07-17T13:46:59Z</time>
      </trkpt>
      <trkpt lat="47.79469" lon="-3.51184">
        <ele>47</ele>
        <time>2019-07-17T13:47:00Z</time>
      </trkpt>
      <trkpt lat="47.7947" lon="-3.51175">
        <ele>47</ele>
        <time>2019-07-17T13:47:01Z</time>
      </trkpt>
      <trkpt lat="47.7947" lon="-3.51165">
        <ele>47</ele>
        <time>2019-07-17T13:47:02Z</time>
      </trkpt>
      <trkpt lat="47.7947" lon="-3.51156">
        <ele>47</ele>
        <time>2019-07-17T13:47:03Z</time>
      </trkpt>
      <trkpt lat="47.7947" lon="-3.51147">
        <ele>48</ele>
        <time>2019-07-17T13:47:04Z</time>
      </trkpt>
      <trkpt lat="47.79471" lon="-3.51138">
        <ele>48</ele>
        <time>2019-07-17T13:47:05Z</time>
      </trkpt>
      <trkpt lat="47.79471" lon="-3.51128">
        <ele>48</ele>
        <time>2019-07-17T13:47:06Z</time>
      </trkpt>
      <trkpt lat="47.79471" lon="-3.51119">
        <ele>48</ele>
        <time>2019-07-17T13:47:07Z</time>
      </trkpt>
      <trkpt lat="47.79472" lon="-3.5111">
        <ele>48</ele>
        <time>2019-07-17T13:47:08Z</time>
      </trkpt>
      <trkpt lat="47.79472" lon="-3.51101">
        <ele>49</ele>
        <time>2019-07-17T13:47:09Z</time>
      </trkpt>
      <trkpt lat="47.79473" lon="-3.51092">
        <ele>49</ele>
        <time>2019-07-17T13:47:10Z</time>
      </trkpt>
      <trkpt lat="47.79473" lon="-3.51083">
        <ele>49</ele>
        <time>2019-07-17T13:47:11Z</time>
      </trkpt>
      <trkpt lat="47.79473" lon="-3.51074">
        <ele>49</ele>
        <time>2019-07-17T13:47:12Z</time>
      </trkpt>
      <trkpt lat="47.79474" lon="-3.51065">
        <ele>49</ele>
        <time>2019-07-17T13:47:13Z</time>
      </trkpt>
      <trkpt lat="47.79475" lon="-3.51056">
        <ele>50</ele>
        <time>2019-07-17T13:47:14Z</time>
      </trkpt>
      <trkpt lat="47.79476" lon="-3.51047">
        <ele>50</ele>
        <time>2019-07-17T13:47:15Z</time>
      </trkpt>
      <trkpt lat="47.79476" lon="-3.51037">
        <ele>50</ele>
        <time>2019-07-17T13:47:16Z</time>
      </trkpt>
      <trkpt lat="47.79477" lon="-3.51028">
        <ele>50</ele>
        <time>2019-07-17T13:47:17Z</time>
      </trkpt>
      <trkpt lat="47.79478" lon="-3.51019">
        <ele>50</ele>
        <time>2019-07-17T13:47:18Z</time>
      </trkpt>
      <trkpt lat="47.79479" lon="-3.5101">
        <ele>51</ele>
        <time>2019-07-17T13:47:19Z</time>
      </trkpt>
      <trkpt lat="47.79479" lon="-3.51001">
        <ele>51</ele>
        <time>2019-07-17T13:47:20Z</time>
      </trkpt>
      <trkpt lat="47.7948" lon="-3.50991">
        <ele>51</ele>
        <time>2019-07-17T13:47:21Z</time>
      </trkpt>
      <trkpt lat="47.79481" lon="-3.50982">
        <ele>51</ele>
        <time>2019-07-17T13:47:22Z</time>
      </trkpt>
      <trkpt lat="47.79482" lon="-3.50973">
        <ele>51</ele>
        <time>2019-07-17T13:47:23Z</time>
      </trkpt>
      <trkpt lat="47.79482" lon="-3.50964">
        <ele>52</ele>
        <time>2019-07-17T13:47:24Z</time>
      </trkpt>
      <trkpt lat="47.79483" lon="-3.50955">
        <ele>52</ele>
        <time>2019-07-17T13:47:25Z</time>
      </trkpt>
      <trkpt lat="47.79484" lon="-3.50946">
        <ele>52</ele>
        <time>2019-07-17T13:47:26Z</time>
      </trkpt>
      <trkpt lat="47.79485" lon="-3.50937">
        <ele>52</ele>
        <time>2019-07-17T13:47:27Z</time>
      </trkpt>
      <trkpt lat="47.79486" lon="-3.50928">
        <ele>52</ele>
        <time>2019-07-17T13:47:28Z</time>
      </trkpt>
      <trkpt lat="47.79486" lon="-3.50918">
        <ele>52</ele>
        <time>2019-07-17T13:47:29Z</time>
      </trkpt>
      <trkpt lat="47.79487" lon="-3.50909">
        <ele>53</ele>
        <time>2019-07-17T13:47:30Z</time>
      </trkpt>
      <trkpt lat="47.79488" lon="-3.509">
        <ele>53</ele>
        <time>2019-07-17T13:47:31Z</time>
      </trkpt>
      <trkpt lat="47.79488" lon="-3.50891">
        <ele>53</ele>
        <time>2019-07-17T13:47:32Z</time>
      </trkpt>
      <trkpt lat="47.79489" lon="-3.50882">
        <ele>53</ele>
        <time>2019-07-17T13:47:33Z</time>
      </trkpt>
      <trkpt lat="47.79489" lon="-3.50872">
        <ele>53</ele>
        <time>2019-07-17T13:47:34Z</time>
      </trkpt>
      <trkpt lat="47.7949" lon="-3.50863">
        <ele>53</ele>
        <time>2019-07-17T13:47:35Z</time>
      </trkpt>
      <trkpt lat="47.7949" lon="-3.50854">
        <ele>53</ele>
        <time>2019-07-17T13:47:36Z</time>
      </trkpt>
      <trkpt lat="47.7949" lon="-3.50844">
        <ele>53</ele>
        <time>2019-07-17T13:47:37Z</time>
      </trkpt>
      <trkpt lat="47.7949" lon="-3.50835">
        <ele>53</ele>
        <time>2019-07-17T13:47:38Z</time>
      </trkpt>
      <trkpt lat="47.79491" lon="-3.50825">
        <ele>53</ele>
        <time>2019-07-17T13:47:39Z</time>
      </trkpt>
      <trkpt lat="47.79491" lon="-3.50816">
        <ele>53</ele>
        <time>2019-07-17T13:47:40Z</time>
      </trkpt>
      <trkpt lat="47.79491" lon="-3.50806">
        <ele>53</ele>
        <time>2019-07-17T13:47:41Z</time>
      </trkpt>
      <trkpt lat="47.79491" lon="-3.50797">
        <ele>53</ele>
        <time>2019-07-17T13:47:42Z</time>
      </trkpt>
      <trkpt lat="47.79491" lon="-3.50787">
        <ele>53</ele>
        <time>2019-07-17T13:47:43Z</time>
      </trkpt>
      <trkpt lat="47.79492" lon="-3.50777">
        <ele>53</ele>
        <time>2019-07-17T13:47:44Z</time>
      </trkpt>
      <trkpt lat="47.79492" lon="-3.50768">
        <ele>53</ele>
        <time>2019-07-17T13:47:45Z</time>
      </trkpt>
      <trkpt lat="47.79492" lon="-3.50758">
        <ele>53</ele>
        <time>2019-07-17T13:47:46Z</time>
      </trkpt>
      <trkpt lat="47.79492" lon="-3.50748">
        <ele>52</ele>
        <time>2019-07-17T13:47:47Z</time>
      </trkpt>
      <trkpt lat="47.79492" lon="-3.50738">
        <ele>52</ele>
        <time>2019-07-17T13:47:48Z</time>
      </trkpt>
      <trkpt lat="47.79492" lon="-3.50727">
        <ele>52</ele>
        <time>2019-07-17T13:47:49Z</time>
      </trkpt>
      <trkpt lat="47.79492" lon="-3.50717">
        <ele>52</ele>
        <time>2019-07-17T13:47:50Z</time>
      </trkpt>
      <trkpt lat="47.79492" lon="-3.50706">
        <ele>52</ele>
        <time>2019-07-17T13:47:51Z</time>
      </trkpt>
      <trkpt lat="47.79492" lon="-3.50696">
        <ele>52</ele>
        <time>2019-07-17T13:47:52Z</time>
      </trkpt>
      <trkpt lat="47.79492" lon="-3.50686">
        <ele>52</ele>
        <time>2019-07-17T13:47:53Z</time>
      </trkpt>
      <trkpt lat="47.79492" lon="-3.50675">
        <ele>52</ele>
        <time>2019-07-17T13:47:54Z</time>
      </trkpt>
      <trkpt lat="47.79492" lon="-3.50664">
        <ele>51</ele>
        <time>2019-07-17T13:47:55Z</time>
      </trkpt>
      <trkpt lat="47.79492" lon="-3.50653">
        <ele>51</ele>
        <time>2019-07-17T13:47:56Z</time>
      </trkpt>
      <trkpt lat="47.79492" lon="-3.50642">
        <ele>51</ele>
        <time>2019-07-17T13:47:57Z</time>
      </trkpt>
      <trkpt lat="47.79492" lon="-3.5063">
        <ele>50</ele>
        <time>2019-07-17T13:47:58Z</time>
      </trkpt>
      <trkpt lat="47.79491" lon="-3.50618">
        <ele>50</ele>
        <time>2019-07-17T13:47:59Z</time>
      </trkpt>
      <trkpt lat="47.79489" lon="-3.50605">
        <ele>49</ele>
        <time>2019-07-17T13:48:00Z</time>
      </trkpt>
      <trkpt lat="47.79487" lon="-3.50592">
        <ele>49</ele>
        <time>2019-07-17T13:48:01Z</time>
      </trkpt>
      <trkpt lat="47.79484" lon="-3.50579">
        <ele>48</ele>
        <time>2019-07-17T13:48:02Z</time>
      </trkpt>
      <trkpt lat="47.7948" lon="-3.50565">
        <ele>48</ele>
        <time>2019-07-17T13:48:03Z</time>
      </trkpt>
      <trkpt lat="47.79477" lon="-3.50552">
        <ele>47</ele>
        <time>2019-07-17T13:48:04Z</time>
      </trkpt>
      <trkpt lat="47.79473" lon="-3.50538">
        <ele>46</ele>
        <time>2019-07-17T13:48:05Z</time>
      </trkpt>
      <trkpt lat="47.79468" lon="-3.50523">
        <ele>45</ele>
        <time>2019-07-17T13:48:06Z</time>
      </trkpt>
      <trkpt lat="47.79463" lon="-3.50509">
        <ele>45</ele>
        <time>2019-07-17T13:48:07Z</time>
      </trkpt>
      <trkpt lat="47.79458" lon="-3.50495">
        <ele>44</ele>
        <time>2019-07-17T13:48:08Z</time>
      </trkpt>
      <trkpt lat="47.79453" lon="-3.50481">
        <ele>43</ele>
        <time>2019-07-17T13:48:09Z</time>
      </trkpt>
      <trkpt lat="47.79447" lon="-3.50467">
        <ele>42</ele>
        <time>2019-07-17T13:48:10Z</time>
      </trkpt>
      <trkpt lat="47.79442" lon="-3.50452">
        <ele>41</ele>
        <time>2019-07-17T13:48:11Z</time>
      </trkpt>
      <trkpt lat="47.79436" lon="-3.50436">
        <ele>40</ele>
        <time>2019-07-17T13:48:12Z</time>
      </trkpt>
      <trkpt lat="47.79431" lon="-3.5042">
        <ele>40</ele>
        <time>2019-07-17T13:48:13Z</time>
      </trkpt>
      <trkpt lat="47.79425" lon="-3.50404">
        <ele>39</ele>
        <time>2019-07-17T13:48:14Z</time>
      </trkpt>
      <trkpt lat="47.79419" lon="-3.50388">
        <ele>38</ele>
        <time>2019-07-17T13:48:15Z</time>
      </trkpt>
      <trkpt lat="47.79413" lon="-3.50372">
        <ele>37</ele>
        <time>2019-07-17T13:48:16Z</time>
      </trkpt>
      <trkpt lat="47.79408" lon="-3.50355">
        <ele>36</ele>
        <time>2019-07-17T13:48:17Z</time>
      </trkpt>
      <trkpt lat="47.79403" lon="-3.50339">
        <ele>35</ele>
        <time>2019-07-17T13:48:18Z</time>
      </trkpt>
      <trkpt lat="47.79399" lon="-3.50322">
        <ele>35</ele>
        <time>2019-07-17T13:48:19Z</time>
      </trkpt>
      <trkpt lat="47.79396" lon="-3.50306">
        <ele>34</ele>
        <time>2019-07-17T13:48:20Z</time>
      </trkpt>
      <trkpt lat="47.79394" lon="-3.5029">
        <ele>33</ele>
        <time>2019-07-17T13:48:21Z</time>
      </trkpt>
      <trkpt lat="47.79391" lon="-3.50274">
        <ele>33</ele>
        <time>2019-07-17T13:48:22Z</time>
      </trkpt>
      <trkpt lat="47.79389" lon="-3.5026">
        <ele>33</ele>
        <time>2019-07-17T13:48:23Z</time>
      </trkpt>
      <trkpt lat="47.79387" lon="-3.50245">
        <ele>33</ele>
        <time>2019-07-17T13:48:24Z</time>
      </trkpt>
      <trkpt lat="47.79385" lon="-3.50232">
        <ele>32</ele>
        <time>2019-07-17T13:48:25Z</time>
      </trkpt>
      <trkpt lat="47.79383" lon="-3.50219">
        <ele>32</ele>
        <time>2019-07-17T13:48:26Z</time>
      </trkpt>
      <trkpt lat="47.79382" lon="-3.50207">
        <ele>32</ele>
        <time>2019-07-17T13:48:27Z</time>
      </trkpt>
      <trkpt lat="47.79381" lon="-3.50195">
        <ele>32</ele>
        <time>2019-07-17T13:48:28Z</time>
      </trkpt>
      <trkpt lat="47.79379" lon="-3.50184">
        <ele>33</ele>
        <time>2019-07-17T13:48:29Z</time>
      </trkpt>
      <trkpt lat="47.79378" lon="-3.50174">
        <ele>33</ele>
        <time>2019-07-17T13:48:30Z</time>
      </trkpt>
      <trkpt lat="47.79377" lon="-3.50164">
        <ele>33</ele>
        <time>2019-07-17T13:48:31Z</time>
      </trkpt>
      <trkpt lat="47.79375" lon="-3.50155">
        <ele>33</ele>
        <time>2019-07-17T13:48:32Z</time>
      </trkpt>
      <trkpt lat="47.79374" lon="-3.50146">
        <ele>33</ele>
        <time>2019-07-17T13:48:33Z</time>
      </trkpt>
      <trkpt lat="47.79374" lon="-3.50138">
        <ele>33</ele>
        <time>2019-07-17T13:48:34Z</time>
      </trkpt>
      <trkpt lat="47.79374" lon="-3.5013">
        <ele>33</ele>
        <time>2019-07-17T13:48:35Z</time>
      </trkpt>
      <trkpt lat="47.79373" lon="-3.50122">
        <ele>34</ele>
        <time>2019-07-17T13:48:36Z</time>
      </trkpt>
      <trkpt lat="47.79372" lon="-3.50116">
        <ele>34</ele>
        <time>2019-07-17T13:48:37Z</time>
      </trkpt>
      <trkpt lat="47.79371" lon="-3.50109">
        <ele>34</ele>
        <time>2019-07-17T13:48:38Z</time>
      </trkpt>
      <trkpt lat="47.79369" lon="-3.50103">
        <ele>34</ele>
        <time>2019-07-17T13:48:39Z</time>
      </trkpt>
      <trkpt lat="47.7937" lon="-3.50096">
        <ele>34</ele>
        <time>2019-07-17T13:48:40Z</time>
      </trkpt>
      <trkpt lat="47.79372" lon="-3.50091">
        <ele>35</ele>
        <time>2019-07-17T13:48:41Z</time>
      </trkpt>
      <trkpt lat="47.79375" lon="-3.50088">
        <ele>35</ele>
        <time>2019-07-17T13:48:42Z</time>
      </trkpt>
      <trkpt lat="47.7938" lon="-3.50084">
        <ele>35</ele>
        <time>2019-07-17T13:48:43Z</time>
      </trkpt>
      <trkpt lat="47.79384" lon="-3.50081">
        <ele>35</ele>
        <time>2019-07-17T13:48:44Z</time>
      </trkpt>
      <trkpt lat="47.79388" lon="-3.50077">
        <ele>35</ele>
        <time>2019-07-17T13:48:45Z</time>
      </trkpt>
      <trkpt lat="47.79392" lon="-3.50074">
        <ele>35</ele>
        <time>2019-07-17T13:48:46Z</time>
      </trkpt>
      <trkpt lat="47.79396" lon="-3.5007">
        <ele>36</ele>
        <time>2019-07-17T13:48:47Z</time>
      </trkpt>
      <trkpt lat="47.79399" lon="-3.50067">
        <ele>36</ele>
        <time>2019-07-17T13:48:48Z</time>
      </trkpt>
      <trkpt lat="47.79402" lon="-3.50063">
        <ele>37</ele>
        <time>2019-07-17T13:48:49Z</time>
      </trkpt>
      <trkpt lat="47.79405" lon="-3.50059">
        <ele>37</ele>
        <time>2019-07-17T13:48:50Z</time>
      </trkpt>
      <trkpt lat="47.79407" lon="-3.50056">
        <ele>37</ele>
        <time>2019-07-17T13:48:51Z</time>
      </trkpt>
      <trkpt lat="47.7941" lon="-3.50054">
        <ele>38</ele>
        <time>2019-07-17T13:48:52Z</time>
      </trkpt>
      <trkpt lat="47.79413" lon="-3.50051">
        <ele>38</ele>
        <time>2019-07-17T13:48:53Z</time>
      </trkpt>
      <trkpt lat="47.79415" lon="-3.50047">
        <ele>38</ele>
        <time>2019-07-17T13:48:54Z</time>
      </trkpt>
      <trkpt lat="47.79417" lon="-3.50043">
        <ele>39</ele>
        <time>2019-07-17T13:48:55Z</time>
      </trkpt>
      <trkpt lat="47.79419" lon="-3.50039">
        <ele>39</ele>
        <time>2019-07-17T13:48:56Z</time>
      </trkpt>
      <trkpt lat="47.7942" lon="-3.50035">
        <ele>39</ele>
        <time>2019-07-17T13:48:57Z</time>
      </trkpt>
      <trkpt lat="47.79421" lon="-3.5003">
        <ele>40</ele>
        <time>2019-07-17T13:48:58Z</time>
      </trkpt>
      <trkpt lat="47.79422" lon="-3.50026">
        <ele>40</ele>
        <time>2019-07-17T13:48:59Z</time>
      </trkpt>
      <trkpt lat="47.79423" lon="-3.50022">
        <ele>40</ele>
        <time>2019-07-17T13:49:00Z</time>
      </trkpt>
      <trkpt lat="47.79424" lon="-3.50018">
        <ele>40</ele>
        <time>2019-07-17T13:49:01Z</time>
      </trkpt>
      <trkpt lat="47.79425" lon="-3.50014">
        <ele>41</ele>
        <time>2019-07-17T13:49:02Z</time>
      </trkpt>
      <trkpt lat="47.79426" lon="-3.5001">
        <ele>41</ele>
        <time>2019-07-17T13:49:03Z</time>
      </trkpt>
      <trkpt lat="47.79427" lon="-3.50006">
        <ele>41</ele>
        <time>2019-07-17T13:49:04Z</time>
      </trkpt>
      <trkpt lat="47.79428" lon="-3.50002">
        <ele>41</ele>
        <time>2019-07-17T13:49:05Z</time>
      </trkpt>
      <trkpt lat="47.79429" lon="-3.49998">
        <ele>42</ele>
        <time>2019-07-17T13:49:06Z</time>
      </trkpt>
      <trkpt lat="47.7943" lon="-3.49994">
        <ele>42</ele>
        <time>2019-07-17T13:49:07Z</time>
      </trkpt>
      <trkpt lat="47.7943" lon="-3.49991">
        <ele>42</ele>
        <time>2019-07-17T13:49:08Z</time>
      </trkpt>
      <trkpt lat="47.79431" lon="-3.49987">
        <ele>42</ele>
        <time>2019-07-17T13:49:09Z</time>
      </trkpt>
      <trkpt lat="47.79433" lon="-3.49984">
        <ele>42</ele>
        <time>2019-07-17T13:49:10Z</time>
      </trkpt>
      <trkpt lat="47.79434" lon="-3.49981">
        <ele>42</ele>
        <time>2019-07-17T13:49:11Z</time>
      </trkpt>
      <trkpt lat="47.79436" lon="-3.49977">
        <ele>43</ele>
        <time>2019-07-17T13:49:12Z</time>
      </trkpt>
      <trkpt lat="47.79438" lon="-3.49974">
        <ele>43</ele>
        <time>2019-07-17T13:49:13Z</time>
      </trkpt>
      <trkpt lat="47.79439" lon="-3.4997">
        <ele>43</ele>
        <time>2019-07-17T13:49:14Z</time>
      </trkpt>
      <trkpt lat="47.7944" lon="-3.49966">
        <ele>43</ele>
        <time>2019-07-17T13:49:15Z</time>
      </trkpt>
      <trkpt lat="47.79441" lon="-3.49962">
        <ele>43</ele>
        <time>2019-07-17T13:49:16Z</time>
      </trkpt>
      <trkpt lat="47.79443" lon="-3.49958">
        <ele>43</ele>
        <time>2019-07-17T13:49:17Z</time>
      </trkpt>
      <trkpt lat="47.79444" lon="-3.49955">
        <ele>43</ele>
        <time>2019-07-17T13:49:18Z</time>
      </trkpt>
      <trkpt lat="47.79446" lon="-3.49951">
        <ele>43</ele>
        <time>2019-07-17T13:49:19Z</time>
      </trkpt>
      <trkpt lat="47.79448" lon="-3.49948">
        <ele>43</ele>
        <time>2019-07-17T13:49:20Z</time>
      </trkpt>
      <trkpt lat="47.7945" lon="-3.49944">
        <ele>43</ele>
        <time>2019-07-17T13:49:21Z</time>
      </trkpt>
      <trkpt lat="47.7945" lon="-3.4994">
        <ele>43</ele>
        <time>2019-07-17T13:49:22Z</time>
      </trkpt>
      <trkpt lat="47.79451" lon="-3.49935">
        <ele>43</ele>
        <time>2019-07-17T13:49:23Z</time>
      </trkpt>
      <trkpt lat="47.79453" lon="-3.49932">
        <ele>44</ele>
        <time>2019-07-17T13:49:24Z</time>
      </trkpt>
      <trkpt lat="47.79454" lon="-3.49928">
        <ele>44</ele>
        <time>2019-07-17T13:49:25Z</time>
      </trkpt>
      <trkpt lat="47.79456" lon="-3.49924">
        <ele>44</ele>
        <time>2019-07-17T13:49:26Z</time>
      </trkpt>
      <trkpt lat="47.79457" lon="-3.4992">
        <ele>44</ele>
        <time>2019-07-17T13:49:27Z</time>
      </trkpt>
      <trkpt lat="47.79458" lon="-3.49916">
        <ele>44</ele>
        <time>2019-07-17T13:49:28Z</time>
      </trkpt>
      <trkpt lat="47.79459" lon="-3.49912">
        <ele>45</ele>
        <time>2019-07-17T13:49:29Z</time>
      </trkpt>
      <trkpt lat="47.7946" lon="-3.49908">
        <ele>45</ele>
        <time>2019-07-17T13:49:30Z</time>
      </trkpt>
      <trkpt lat="47.79461" lon="-3.49903">
        <ele>45</ele>
        <time>2019-07-17T13:49:31Z</time>
      </trkpt>
      <trkpt lat="47.79462" lon="-3.49898">
        <ele>45</ele>
        <time>2019-07-17T13:49:32Z</time>
      </trkpt>
      <trkpt lat="47.79462" lon="-3.49893">
        <ele>46</ele>
        <time>2019-07-17T13:49:33Z</time>
      </trkpt>
      <trkpt lat="47.79462" lon="-3.49888">
        <ele>46</ele>
        <time>2019-07-17T13:49:34Z</time>
      </trkpt>
      <trkpt lat="47.79462" lon="-3.49882">
        <ele>46</ele>
        <time>2019-07-17T13:49:35Z</time>
      </trkpt>
      <trkpt lat="47.79463" lon="-3.49878">
        <ele>47</ele>
        <time>2019-07-17T13:49:36Z</time>
      </trkpt>
      <trkpt lat="47.79463" lon="-3.49874">
        <ele>47</ele>
        <time>2019-07-17T13:49:37Z</time>
      </trkpt>
      <trkpt lat="47.79464" lon="-3.49869">
        <ele>47</ele>
        <time>2019-07-17T13:49:38Z</time>
      </trkpt>
      <trkpt lat="47.79465" lon="-3.49863">
        <ele>47</ele>
        <time>2019-07-17T13:49:39Z</time>
      </trkpt>
      <trkpt lat="47.79465" lon="-3.49858">
        <ele>47</ele>
        <time>2019-07-17T13:49:40Z</time>
      </trkpt>
      <trkpt lat="47.79466" lon="-3.49853">
        <ele>47</ele>
        <time>2019-07-17T13:49:41Z</time>
      </trkpt>
      <trkpt lat="47.79467" lon="-3.49848">
        <ele>47</ele>
        <time>2019-07-17T13:49:42Z</time>
      </trkpt>
      <trkpt lat="47.79468" lon="-3.49842">
        <ele>47</ele>
        <time>2019-07-17T13:49:43Z</time>
      </trkpt>
      <trkpt lat="47.79469" lon="-3.49836">
        <ele>47</ele>
        <time>2019-07-17T13:49:44Z</time>
      </trkpt>
      <trkpt lat="47.7947" lon="-3.49831">
        <ele>47</ele>
        <time>2019-07-17T13:49:45Z</time>
      </trkpt>
      <trkpt lat="47.79471" lon="-3.49825">
        <ele>47</ele>
        <time>2019-07-17T13:49:46Z</time>
      </trkpt>
      <trkpt lat="47.79473" lon="-3.49819">
        <ele>47</ele>
        <time>2019-07-17T13:49:47Z</time>
      </trkpt>
      <trkpt lat="47.79475" lon="-3.49813">
        <ele>47</ele>
        <time>2019-07-17T13:49:48Z</time>
      </trkpt>
      <trkpt lat="47.79477" lon="-3.49808">
        <ele>47</ele>
        <time>2019-07-17T13:49:49Z</time>
      </trkpt>
      <trkpt lat="47.79479" lon="-3.49802">
        <ele>47</ele>
        <time>2019-07-17T13:49:50Z</time>
      </trkpt>
      <trkpt lat="47.79481" lon="-3.49794">
        <ele>48</ele>
        <time>2019-07-17T13:49:51Z</time>
      </trkpt>
      <trkpt lat="47.79483" lon="-3.49787">
        <ele>48</ele>
        <time>2019-07-17T13:49:52Z</time>
      </trkpt>
      <trkpt lat="47.79484" lon="-3.4978">
        <ele>48</ele>
        <time>2019-07-17T13:49:53Z</time>
      </trkpt>
      <trkpt lat="47.79485" lon="-3.49772">
        <ele>48</ele>
        <time>2019-07-17T13:49:54Z</time>
      </trkpt>
      <trkpt lat="47.79485" lon="-3.49765">
        <ele>48</ele>
        <time>2019-07-17T13:49:55Z</time>
      </trkpt>
      <trkpt lat="47.79486" lon="-3.49757">
        <ele>48</ele>
        <time>2019-07-17T13:49:56Z</time>
      </trkpt>
      <trkpt lat="47.79486" lon="-3.49749">
        <ele>48</ele>
        <time>2019-07-17T13:49:57Z</time>
      </trkpt>
      <trkpt lat="47.79486" lon="-3.49741">
        <ele>49</ele>
        <time>2019-07-17T13:49:58Z</time>
      </trkpt>
      <trkpt lat="47.79486" lon="-3.49734">
        <ele>49</ele>
        <time>2019-07-17T13:49:59Z</time>
      </trkpt>
      <trkpt lat="47.79486" lon="-3.49728">
        <ele>49</ele>
        <time>2019-07-17T13:50:00Z</time>
      </trkpt>
      <trkpt lat="47.79486" lon="-3.49721">
        <ele>49</ele>
        <time>2019-07-17T13:50:01Z</time>
      </trkpt>
      <trkpt lat="47.79485" lon="-3.49714">
        <ele>49</ele>
        <time>2019-07-17T13:50:02Z</time>
      </trkpt>
      <trkpt lat="47.79484" lon="-3.49707">
        <ele>49</ele>
        <time>2019-07-17T13:50:03Z</time>
      </trkpt>
      <trkpt lat="47.79482" lon="-3.49701">
        <ele>49</ele>
        <time>2019-07-17T13:50:04Z</time>
      </trkpt>
      <trkpt lat="47.79482" lon="-3.49693">
        <ele>50</ele>
        <time>2019-07-17T13:50:05Z</time>
      </trkpt>
      <trkpt lat="47.7948" lon="-3.49686">
        <ele>50</ele>
        <time>2019-07-17T13:50:06Z</time>
      </trkpt>
      <trkpt lat="47.79481" lon="-3.4968">
        <ele>50</ele>
        <time>2019-07-17T13:50:07Z</time>
      </trkpt>
      <trkpt lat="47.79482" lon="-3.49675">
        <ele>50</ele>
        <time>2019-07-17T13:50:08Z</time>
      </trkpt>
      <trkpt lat="47.79485" lon="-3.49671">
        <ele>50</ele>
        <time>2019-07-17T13:50:09Z</time>
      </trkpt>
      <trkpt lat="47.79488" lon="-3.49665">
        <ele>50</ele>
        <time>2019-07-17T13:50:10Z</time>
      </trkpt>
      <trkpt lat="47.79492" lon="-3.49659">
        <ele>50</ele>
        <time>2019-07-17T13:50:11Z</time>
      </trkpt>
      <trkpt lat="47.79496" lon="-3.49652">
        <ele>50</ele>
        <time>2019-07-17T13:50:12Z</time>
      </trkpt>
      <trkpt lat="47.79498" lon="-3.49645">
        <ele>51</ele>
        <time>2019-07-17T13:50:13Z</time>
      </trkpt>
      <trkpt lat="47.79499" lon="-3.49638">
        <ele>51</ele>
        <time>2019-07-17T13:50:14Z</time>
      </trkpt>
      <trkpt lat="47.795" lon="-3.4963">
        <ele>51</ele>
        <time>2019-07-17T13:50:15Z</time>
      </trkpt>
      <trkpt lat="47.79501" lon="-3.49622">
        <ele>51</ele>
        <time>2019-07-17T13:50:16Z</time>
      </trkpt>
      <trkpt lat="47.79501" lon="-3.49613">
        <ele>51</ele>
        <time>2019-07-17T13:50:17Z</time>
      </trkpt>
      <trkpt lat="47.79501" lon="-3.49605">
        <ele>51</ele>
        <time>2019-07-17T13:50:18Z</time>
      </trkpt>
      <trkpt lat="47.79501" lon="-3.49596">
        <ele>51</ele>
        <time>2019-07-17T13:50:19Z</time>
      </trkpt>
      <trkpt lat="47.79501" lon="-3.49587">
        <ele>51</ele>
        <time>2019-07-17T13:50:20Z</time>
      </trkpt>
      <trkpt lat="47.79501" lon="-3.49579">
        <ele>51</ele>
        <time>2019-07-17T13:50:21Z</time>
      </trkpt>
      <trkpt lat="47.79502" lon="-3.4957">
        <ele>51</ele>
        <time>2019-07-17T13:50:22Z</time>
      </trkpt>
      <trkpt lat="47.79503" lon="-3.49562">
        <ele>51</ele>
        <time>2019-07-17T13:50:23Z</time>
      </trkpt>
      <trkpt lat="47.79503" lon="-3.49553">
        <ele>51</ele>
        <time>2019-07-17T13:50:24Z</time>
      </trkpt>
      <trkpt lat="47.79505" lon="-3.49545">
        <ele>51</ele>
        <time>2019-07-17T13:50:25Z</time>
      </trkpt>
      <trkpt lat="47.79506" lon="-3.49536">
        <ele>51</ele>
        <time>2019-07-17T13:50:26Z</time>
      </trkpt>
      <trkpt lat="47.79507" lon="-3.49528">
        <ele>51</ele>
        <time>2019-07-17T13:50:27Z</time>
      </trkpt>
      <trkpt lat="47.79507" lon="-3.49519">
        <ele>51</ele>
        <time>2019-07-17T13:50:28Z</time>
      </trkpt>
      <trkpt lat="47.79508" lon="-3.49511">
        <ele>50</ele>
        <time>2019-07-17T13:50:29Z</time>
      </trkpt>
      <trkpt lat="47.79508" lon="-3.49502">
        <ele>50</ele>
        <time>2019-07-17T13:50:30Z</time>
      </trkpt>
      <trkpt lat="47.79509" lon="-3.49494">
        <ele>50</ele>
        <time>2019-07-17T13:50:31Z</time>
      </trkpt>
      <trkpt lat="47.79509" lon="-3.49485">
        <ele>50</ele>
        <time>2019-07-17T13:50:32Z</time>
      </trkpt>
      <trkpt lat="47.79509" lon="-3.49477">
        <ele>50</ele>
        <time>2019-07-17T13:50:33Z</time>
      </trkpt>
      <trkpt lat="47.79511" lon="-3.49468">
        <ele>50</ele>
        <time>2019-07-17T13:50:34Z</time>
      </trkpt>
      <trkpt lat="47.79512" lon="-3.4946">
        <ele>50</ele>
        <time>2019-07-17T13:50:35Z</time>
      </trkpt>
      <trkpt lat="47.79513" lon="-3.4945">
        <ele>50</ele>
        <time>2019-07-17T13:50:36Z</time>
      </trkpt>
      <trkpt lat="47.79514" lon="-3.49441">
        <ele>50</ele>
        <time>2019-07-17T13:50:37Z</time>
      </trkpt>
      <trkpt lat="47.79515" lon="-3.49431">
        <ele>50</ele>
        <time>2019-07-17T13:50:38Z</time>
      </trkpt>
      <trkpt lat="47.79515" lon="-3.49422">
        <ele>49</ele>
        <time>2019-07-17T13:50:39Z</time>
      </trkpt>
      <trkpt lat="47.79515" lon="-3.49412">
        <ele>49</ele>
        <time>2019-07-17T13:50:40Z</time>
      </trkpt>
      <trkpt lat="47.79514" lon="-3.49402">
        <ele>49</ele>
        <time>2019-07-17T13:50:41Z</time>
      </trkpt>
      <trkpt lat="47.79513" lon="-3.49392">
        <ele>49</ele>
        <time>2019-07-17T13:50:42Z</time>
      </trkpt>
      <trkpt lat="47.79513" lon="-3.49382">
        <ele>48</ele>
        <time>2019-07-17T13:50:43Z</time>
      </trkpt>
      <trkpt lat="47.79514" lon="-3.49371">
        <ele>48</ele>
        <time>2019-07-17T13:50:44Z</time>
      </trkpt>
      <trkpt lat="47.79515" lon="-3.49361">
        <ele>48</ele>
        <time>2019-07-17T13:50:45Z</time>
      </trkpt>
      <trkpt lat="47.79517" lon="-3.4935">
        <ele>47</ele>
        <time>2019-07-17T13:50:46Z</time>
      </trkpt>
      <trkpt lat="47.79516" lon="-3.4934">
        <ele>47</ele>
        <time>2019-07-17T13:50:47Z</time>
      </trkpt>
      <trkpt lat="47.79513" lon="-3.4933">
        <ele>47</ele>
        <time>2019-07-17T13:50:48Z</time>
      </trkpt>
      <trkpt lat="47.79509" lon="-3.49321">
        <ele>46</ele>
        <time>2019-07-17T13:50:49Z</time>
      </trkpt>
      <trkpt lat="47.79507" lon="-3.49313">
        <ele>46</ele>
        <time>2019-07-17T13:50:50Z</time>
      </trkpt>
      <trkpt lat="47.79506" lon="-3.49305">
        <ele>46</ele>
        <time>2019-07-17T13:50:51Z</time>
      </trkpt>
      <trkpt lat="47.79505" lon="-3.493">
        <ele>46</ele>
        <time>2019-07-17T13:50:52Z</time>
      </trkpt>
      <trkpt lat="47.79506" lon="-3.49294">
        <ele>45</ele>
        <time>2019-07-17T13:50:53Z</time>
      </trkpt>
      <trkpt lat="47.79507" lon="-3.49288">
        <ele>45</ele>
        <time>2019-07-17T13:50:54Z</time>
      </trkpt>
      <trkpt lat="47.7951" lon="-3.49282">
        <ele>45</ele>
        <time>2019-07-17T13:50:55Z</time>
      </trkpt>
      <trkpt lat="47.79513" lon="-3.49277">
        <ele>45</ele>
        <time>2019-07-17T13:50:56Z</time>
      </trkpt>
      <trkpt lat="47.79517" lon="-3.49272">
        <ele>45</ele>
        <time>2019-07-17T13:50:57Z</time>
      </trkpt>
      <trkpt lat="47.79521" lon="-3.49267">
        <ele>45</ele>
        <time>2019-07-17T13:50:58Z</time>
      </trkpt>
      <trkpt lat="47.79524" lon="-3.4926">
        <ele>45</ele>
        <time>2019-07-17T13:50:59Z</time>
      </trkpt>
      <trkpt lat="47.79526" lon="-3.49252">
        <ele>45</ele>
        <time>2019-07-17T13:51:00Z</time>
      </trkpt>
      <trkpt lat="47.79526" lon="-3.49243">
        <ele>44</ele>
        <time>2019-07-17T13:51:01Z</time>
      </trkpt>
      <trkpt lat="47.79527" lon="-3.49234">
        <ele>44</ele>
        <time>2019-07-17T13:51:02Z</time>
      </trkpt>
      <trkpt lat="47.79526" lon="-3.49224">
        <ele>44</ele>
        <time>2019-07-17T13:51:03Z</time>
      </trkpt>
      <trkpt lat="47.79526" lon="-3.49215">
        <ele>44</ele>
        <time>2019-07-17T13:51:04Z</time>
      </trkpt>
      <trkpt lat="47.79525" lon="-3.49206">
        <ele>44</ele>
        <time>2019-07-17T13:51:05Z</time>
      </trkpt>
      <trkpt lat="47.79525" lon="-3.49196">
        <ele>44</ele>
        <time>2019-07-17T13:51:06Z</time>
      </trkpt>
      <trkpt lat="47.79524" lon="-3.49186">
        <ele>43</ele>
        <time>2019-07-17T13:51:07Z</time>
      </trkpt>
      <trkpt lat="47.79525" lon="-3.49176">
        <ele>43</ele>
        <time>2019-07-17T13:51:08Z</time>
      </trkpt>
      <trkpt lat="47.79527" lon="-3.49166">
        <ele>42</ele>
        <time>2019-07-17T13:51:09Z</time>
      </trkpt>
      <trkpt lat="47.7953" lon="-3.49157">
        <ele>42</ele>
        <time>2019-07-17T13:51:10Z</time>
      </trkpt>
      <trkpt lat="47.79533" lon="-3.49147">
        <ele>42</ele>
        <time>2019-07-17T13:51:11Z</time>
      </trkpt>
      <trkpt lat="47.79534" lon="-3.49137">
        <ele>41</ele>
        <time>2019-07-17T13:51:12Z</time>
      </trkpt>
      <trkpt lat="47.79534" lon="-3.49127">
        <ele>41</ele>
        <time>2019-07-17T13:51:13Z</time>
      </trkpt>
      <trkpt lat="47.79534" lon="-3.49118">
        <ele>40</ele>
        <time>2019-07-17T13:51:14Z</time>
      </trkpt>
      <trkpt lat="47.79534" lon="-3.4911">
        <ele>40</ele>
        <time>2019-07-17T13:51:15Z</time>
      </trkpt>
      <trkpt lat="47.79534" lon="-3.49101">
        <ele>40</ele>
        <time>2019-07-17T13:51:16Z</time>
      </trkpt>
      <trkpt lat="47.79534" lon="-3.49093">
        <ele>40</ele>
        <time>2019-07-17T13:51:17Z</time>
      </trkpt>
      <trkpt lat="47.79534" lon="-3.49086">
        <ele>40</ele>
        <time>2019-07-17T13:51:18Z</time>
      </trkpt>
      <trkpt lat="47.79534" lon="-3.49078">
        <ele>40</ele>
        <time>2019-07-17T13:51:19Z</time>
      </trkpt>
      <trkpt lat="47.79534" lon="-3.49071">
        <ele>40</ele>
        <time>2019-07-17T13:51:20Z</time>
      </trkpt>
      <trkpt lat="47.79534" lon="-3.49064">
        <ele>40</ele>
        <time>2019-07-17T13:51:21Z</time>
      </trkpt>
      <trkpt lat="47.79534" lon="-3.49057">
        <ele>40</ele>
        <time>2019-07-17T13:51:22Z</time>
      </trkpt>
      <trkpt lat="47.79533" lon="-3.4905">
        <ele>40</ele>
        <time>2019-07-17T13:51:23Z</time>
      </trkpt>
      <trkpt lat="47.79532" lon="-3.49042">
        <ele>40</ele>
        <time>2019-07-17T13:51:24Z</time>
      </trkpt>
      <trkpt lat="47.79532" lon="-3.49035">
        <ele>40</ele>
        <time>2019-07-17T13:51:25Z</time>
      </trkpt>
      <trkpt lat="47.79533" lon="-3.49028">
        <ele>40</ele>
        <time>2019-07-17T13:51:26Z</time>
      </trkpt>
      <trkpt lat="47.79534" lon="-3.49021">
        <ele>40</ele>
        <time>2019-07-17T13:51:27Z</time>
      </trkpt>
      <trkpt lat="47.79534" lon="-3.49013">
        <ele>40</ele>
        <time>2019-07-17T13:51:28Z</time>
      </trkpt>
      <trkpt lat="47.79535" lon="-3.49005">
        <ele>41</ele>
        <time>2019-07-17T13:51:29Z</time>
      </trkpt>
      <trkpt lat="47.79535" lon="-3.48996">
        <ele>41</ele>
        <time>2019-07-17T13:51:30Z</time>
      </trkpt>
      <trkpt lat="47.79534" lon="-3.48988">
        <ele>41</ele>
        <time>2019-07-17T13:51:31Z</time>
      </trkpt>
      <trkpt lat="47.79534" lon="-3.4898">
        <ele>41</ele>
        <time>2019-07-17T13:51:32Z</time>
      </trkpt>
      <trkpt lat="47.79533" lon="-3.48972">
        <ele>41</ele>
        <time>2019-07-17T13:51:33Z</time>
      </trkpt>
      <trkpt lat="47.79532" lon="-3.48964">
        <ele>41</ele>
        <time>2019-07-17T13:51:34Z</time>
      </trkpt>
      <trkpt lat="47.79531" lon="-3.48957">
        <ele>41</ele>
        <time>2019-07-17T13:51:35Z</time>
      </trkpt>
      <trkpt lat="47.79531" lon="-3.48949">
        <ele>41</ele>
        <time>2019-07-17T13:51:36Z</time>
      </trkpt>
      <trkpt lat="47.79532" lon="-3.48942">
        <ele>41</ele>
        <time>2019-07-17T13:51:37Z</time>
      </trkpt>
      <trkpt lat="47.79532" lon="-3.48934">
        <ele>42</ele>
        <time>2019-07-17T13:51:38Z</time>
      </trkpt>
      <trkpt lat="47.79532" lon="-3.48927">
        <ele>42</ele>
        <time>2019-07-17T13:51:39Z</time>
      </trkpt>
      <trkpt lat="47.79532" lon="-3.4892">
        <ele>42</ele>
        <time>2019-07-17T13:51:40Z</time>
      </trkpt>
      <trkpt lat="47.79531" lon="-3.48913">
        <ele>43</ele>
        <time>2019-07-17T13:51:41Z</time>
      </trkpt>
      <trkpt lat="47.79531" lon="-3.48906">
        <ele>43</ele>
        <time>2019-07-17T13:51:42Z</time>
      </trkpt>
      <trkpt lat="47.79532" lon="-3.489">
        <ele>43</ele>
        <time>2019-07-17T13:51:43Z</time>
      </trkpt>
      <trkpt lat="47.79533" lon="-3.48894">
        <ele>44</ele>
        <time>2019-07-17T13:51:44Z</time>
      </trkpt>
      <trkpt lat="47.79534" lon="-3.48888">
        <ele>44</ele>
        <time>2019-07-17T13:51:45Z</time>
      </trkpt>
      <trkpt lat="47.79536" lon="-3.48882">
        <ele>44</ele>
        <time>2019-07-17T13:51:46Z</time>
      </trkpt>
      <trkpt lat="47.79538" lon="-3.48878">
        <ele>45</ele>
        <time>2019-07-17T13:51:47Z</time>
      </trkpt>
      <trkpt lat="47.79541" lon="-3.48874">
        <ele>45</ele>
        <time>2019-07-17T13:51:48Z</time>
      </trkpt>
      <trkpt lat="47.79543" lon="-3.4887">
        <ele>45</ele>
        <time>2019-07-17T13:51:49Z</time>
      </trkpt>
      <trkpt lat="47.79545" lon="-3.48865">
        <ele>45</ele>
        <time>2019-07-17T13:51:50Z</time>
      </trkpt>
      <trkpt lat="47.79545" lon="-3.48861">
        <ele>45</ele>
        <time>2019-07-17T13:51:51Z</time>
      </trkpt>
      <trkpt lat="47.79546" lon="-3.48856">
        <ele>45</ele>
        <time>2019-07-17T13:51:52Z</time>
      </trkpt>
      <trkpt lat="47.79546" lon="-3.48851">
        <ele>45</ele>
        <time>2019-07-17T13:51:53Z</time>
      </trkpt>
      <trkpt lat="47.79545" lon="-3.48846">
        <ele>45</ele>
        <time>2019-07-17T13:51:54Z</time>
      </trkpt>
      <trkpt lat="47.79543" lon="-3.48843">
        <ele>46</ele>
        <time>2019-07-17T13:51:55Z</time>
      </trkpt>
      <trkpt lat="47.79541" lon="-3.4884">
        <ele>46</ele>
        <time>2019-07-17T13:51:56Z</time>
      </trkpt>
      <trkpt lat="47.79538" lon="-3.48837">
        <ele>46</ele>
        <time>2019-07-17T13:51:57Z</time>
      </trkpt>
      <trkpt lat="47.79535" lon="-3.48832">
        <ele>46</ele>
        <time>2019-07-17T13:51:58Z</time>
      </trkpt>
      <trkpt lat="47.79534" lon="-3.48827">
        <ele>46</ele>
        <time>2019-07-17T13:51:59Z</time>
      </trkpt>
      <trkpt lat="47.79533" lon="-3.48822">
        <ele>46</ele>
        <time>2019-07-17T13:52:00Z</time>
      </trkpt>
      <trkpt lat="47.79533" lon="-3.48816">
        <ele>46</ele>
        <time>2019-07-17T13:52:01Z</time>
      </trkpt>
      <trkpt lat="47.79534" lon="-3.48811">
        <ele>47</ele>
        <time>2019-07-17T13:52:02Z</time>
      </trkpt>
      <trkpt lat="47.79534" lon="-3.48805">
        <ele>47</ele>
        <time>2019-07-17T13:52:03Z</time>
      </trkpt>
      <trkpt lat="47.79534" lon="-3.48801">
        <ele>47</ele>
        <time>2019-07-17T13:52:04Z</time>
      </trkpt>
      <trkpt lat="47.79534" lon="-3.48797">
        <ele>47</ele>
        <time>2019-07-17T13:52:05Z</time>
      </trkpt>
      <trkpt lat="47.79532" lon="-3.48792">
        <ele>47</ele>
        <time>2019-07-17T13:52:06Z</time>
      </trkpt>
      <trkpt lat="47.79532" lon="-3.48788">
        <ele>47</ele>
        <time>2019-07-17T13:52:07Z</time>
      </trkpt>
      <trkpt lat="47.79532" lon="-3.48783">
        <ele>48</ele>
        <time>2019-07-17T13:52:08Z</time>
      </trkpt>
      <trkpt lat="47.79532" lon="-3.48778">
        <ele>48</ele>
        <time>2019-07-17T13:52:09Z</time>
      </trkpt>
      <trkpt lat="47.79532" lon="-3.48774">
        <ele>48</ele>
        <time>2019-07-17T13:52:10Z</time>
      </trkpt>
      <trkpt lat="47.79532" lon="-3.4877">
        <ele>48</ele>
        <time>2019-07-17T13:52:11Z</time>
      </trkpt>
      <trkpt lat="47.79533" lon="-3.48766">
        <ele>48</ele>
        <time>2019-07-17T13:52:12Z</time>
      </trkpt>
      <trkpt lat="47.79533" lon="-3.48761">
        <ele>48</ele>
        <time>2019-07-17T13:52:13Z</time>
      </trkpt>
      <trkpt lat="47.79533" lon="-3.48757">
        <ele>48</ele>
        <time>2019-07-17T13:52:14Z</time>
      </trkpt>
      <trkpt lat="47.79533" lon="-3.48752">
        <ele>48</ele>
        <time>2019-07-17T13:52:15Z</time>
      </trkpt>
      <trkpt lat="47.79533" lon="-3.48747">
        <ele>48</ele>
        <time>2019-07-17T13:52:16Z</time>
      </trkpt>
      <trkpt lat="47.79533" lon="-3.48742">
        <ele>48</ele>
        <time>2019-07-17T13:52:17Z</time>
      </trkpt>
      <trkpt lat="47.79533" lon="-3.48737">
        <ele>48</ele>
        <time>2019-07-17T13:52:18Z</time>
      </trkpt>
      <trkpt lat="47.79532" lon="-3.48731">
        <ele>48</ele>
        <time>2019-07-17T13:52:19Z</time>
      </trkpt>
      <trkpt lat="47.79533" lon="-3.48726">
        <ele>48</ele>
        <time>2019-07-17T13:52:20Z</time>
      </trkpt>
      <trkpt lat="47.79534" lon="-3.4872">
        <ele>48</ele>
        <time>2019-07-17T13:52:21Z</time>
      </trkpt>
      <trkpt lat="47.79535" lon="-3.48713">
        <ele>49</ele>
        <time>2019-07-17T13:52:22Z</time>
      </trkpt>
      <trkpt lat="47.79536" lon="-3.48704">
        <ele>49</ele>
        <time>2019-07-17T13:52:23Z</time>
      </trkpt>
      <trkpt lat="47.79536" lon="-3.48696">
        <ele>49</ele>
        <time>2019-07-17T13:52:24Z</time>
      </trkpt>
      <trkpt lat="47.79536" lon="-3.48686">
        <ele>49</ele>
        <time>2019-07-17T13:52:25Z</time>
      </trkpt>
      <trkpt lat="47.79536" lon="-3.48676">
        <ele>49</ele>
        <time>2019-07-17T13:52:26Z</time>
      </trkpt>
      <trkpt lat="47.79537" lon="-3.48666">
        <ele>48</ele>
        <time>2019-07-17T13:52:27Z</time>
      </trkpt>
      <trkpt lat="47.79536" lon="-3.48655">
        <ele>48</ele>
        <time>2019-07-17T13:52:28Z</time>
      </trkpt>
      <trkpt lat="47.79537" lon="-3.48644">
        <ele>48</ele>
        <time>2019-07-17T13:52:29Z</time>
      </trkpt>
      <trkpt lat="47.79537" lon="-3.48635">
        <ele>48</ele>
        <time>2019-07-17T13:52:30Z</time>
      </trkpt>
      <trkpt lat="47.79537" lon="-3.48627">
        <ele>48</ele>
        <time>2019-07-17T13:52:31Z</time>
      </trkpt>
      <trkpt lat="47.79536" lon="-3.4862">
        <ele>48</ele>
        <time>2019-07-17T13:52:32Z</time>
      </trkpt>
      <trkpt lat="47.79535" lon="-3.48613">
        <ele>48</ele>
        <time>2019-07-17T13:52:33Z</time>
      </trkpt>
      <trkpt lat="47.79534" lon="-3.48605">
        <ele>48</ele>
        <time>2019-07-17T13:52:34Z</time>
      </trkpt>
      <trkpt lat="47.79534" lon="-3.48597">
        <ele>48</ele>
        <time>2019-07-17T13:52:35Z</time>
      </trkpt>
      <trkpt lat="47.79532" lon="-3.48589">
        <ele>48</ele>
        <time>2019-07-17T13:52:36Z</time>
      </trkpt>
      <trkpt lat="47.79529" lon="-3.48581">
        <ele>48</ele>
        <time>2019-07-17T13:52:37Z</time>
      </trkpt>
      <trkpt lat="47.79528" lon="-3.48572">
        <ele>47</ele>
        <time>2019-07-17T13:52:38Z</time>
      </trkpt>
      <trkpt lat="47.79527" lon="-3.48564">
        <ele>47</ele>
        <time>2019-07-17T13:52:39Z</time>
      </trkpt>
      <trkpt lat="47.79528" lon="-3.48555">
        <ele>47</ele>
        <time>2019-07-17T13:52:40Z</time>
      </trkpt>
      <trkpt lat="47.79529" lon="-3.48546">
        <ele>47</ele>
        <time>2019-07-17T13:52:41Z</time>
      </trkpt>
      <trkpt lat="47.79529" lon="-3.48537">
        <ele>47</ele>
        <time>2019-07-17T13:52:42Z</time>
      </trkpt>
      <trkpt lat="47.79528" lon="-3.48529">
        <ele>47</ele>
        <time>2019-07-17T13:52:43Z</time>
      </trkpt>
      <trkpt lat="47.79527" lon="-3.4852">
        <ele>47</ele>
        <time>2019-07-17T13:52:44Z</time>
      </trkpt>
      <trkpt lat="47.79525" lon="-3.48512">
        <ele>46</ele>
        <time>2019-07-17T13:52:45Z</time>
      </trkpt>
      <trkpt lat="47.79524" lon="-3.48504">
        <ele>46</ele>
        <time>2019-07-17T13:52:46Z</time>
      </trkpt>
      <trkpt lat="47.79524" lon="-3.48495">
        <ele>46</ele>
        <time>2019-07-17T13:52:47Z</time>
      </trkpt>
      <trkpt lat="47.79524" lon="-3.48487">
        <ele>46</ele>
        <time>2019-07-17T13:52:48Z</time>
      </trkpt>
      <trkpt lat="47.79523" lon="-3.48478">
        <ele>46</ele>
        <time>2019-07-17T13:52:49Z</time>
      </trkpt>
      <trkpt lat="47.79524" lon="-3.4847">
        <ele>46</ele>
        <time>2019-07-17T13:52:50Z</time>
      </trkpt>
      <trkpt lat="47.79525" lon="-3.48462">
        <ele>45</ele>
        <time>2019-07-17T13:52:51Z</time>
      </trkpt>
      <trkpt lat="47.79524" lon="-3.48455">
        <ele>45</ele>
        <time>2019-07-17T13:52:52Z</time>
      </trkpt>
      <trkpt lat="47.79523" lon="-3.48448">
        <ele>45</ele>
        <time>2019-07-17T13:52:53Z</time>
      </trkpt>
      <trkpt lat="47.79522" lon="-3.48442">
        <ele>45</ele>
        <time>2019-07-17T13:52:54Z</time>
      </trkpt>
      <trkpt lat="47.79521" lon="-3.48436">
        <ele>45</ele>
        <time>2019-07-17T13:52:55Z</time>
      </trkpt>
      <trkpt lat="47.79521" lon="-3.4843">
        <ele>45</ele>
        <time>2019-07-17T13:52:56Z</time>
      </trkpt>
      <trkpt lat="47.79522" lon="-3.48424">
        <ele>45</ele>
        <time>2019-07-17T13:52:57Z</time>
      </trkpt>
      <trkpt lat="47.79522" lon="-3.48418">
        <ele>45</ele>
        <time>2019-07-17T13:52:58Z</time>
      </trkpt>
      <trkpt lat="47.79521" lon="-3.48412">
        <ele>45</ele>
        <time>2019-07-17T13:52:59Z</time>
      </trkpt>
      <trkpt lat="47.79521" lon="-3.48405">
        <ele>45</ele>
        <time>2019-07-17T13:53:00Z</time>
      </trkpt>
      <trkpt lat="47.79519" lon="-3.48397">
        <ele>46</ele>
        <time>2019-07-17T13:53:01Z</time>
      </trkpt>
      <trkpt lat="47.79518" lon="-3.48391">
        <ele>46</ele>
        <time>2019-07-17T13:53:02Z</time>
      </trkpt>
      <trkpt lat="47.79516" lon="-3.48383">
        <ele>46</ele>
        <time>2019-07-17T13:53:03Z</time>
      </trkpt>
      <trkpt lat="47.79517" lon="-3.48376">
        <ele>46</ele>
        <time>2019-07-17T13:53:04Z</time>
      </trkpt>
      <trkpt lat="47.79518" lon="-3.48368">
        <ele>46</ele>
        <time>2019-07-17T13:53:05Z</time>
      </trkpt>
      <trkpt lat="47.7952" lon="-3.48362">
        <ele>46</ele>
        <time>2019-07-17T13:53:06Z</time>
      </trkpt>
      <trkpt lat="47.79521" lon="-3.48356">
        <ele>47</ele>
        <time>2019-07-17T13:53:07Z</time>
      </trkpt>
      <trkpt lat="47.79523" lon="-3.48352">
        <ele>47</ele>
        <time>2019-07-17T13:53:08Z</time>
      </trkpt>
      <trkpt lat="47.79526" lon="-3.48347">
        <ele>47</ele>
        <time>2019-07-17T13:53:09Z</time>
      </trkpt>
      <trkpt lat="47.7953" lon="-3.48341">
        <ele>47</ele>
        <time>2019-07-17T13:53:10Z</time>
      </trkpt>
      <trkpt lat="47.79535" lon="-3.48336">
        <ele>47</ele>
        <time>2019-07-17T13:53:11Z</time>
      </trkpt>
      <trkpt lat="47.7954" lon="-3.48331">
        <ele>48</ele>
        <time>2019-07-17T13:53:12Z</time>
      </trkpt>
      <trkpt lat="47.79545" lon="-3.48327">
        <ele>48</ele>
        <time>2019-07-17T13:53:13Z</time>
      </trkpt>
      <trkpt lat="47.7955" lon="-3.48324">
        <ele>48</ele>
        <time>2019-07-17T13:53:14Z</time>
      </trkpt>
      <trkpt lat="47.79556" lon="-3.4832">
        <ele>48</ele>
        <time>2019-07-17T13:53:15Z</time>
      </trkpt>
      <trkpt lat="47.79561" lon="-3.48317">
        <ele>48</ele>
        <time>2019-07-17T13:53:16Z</time>
      </trkpt>
      <trkpt lat="47.79567" lon="-3.48313">
        <ele>48</ele>
        <time>2019-07-17T13:53:17Z</time>
      </trkpt>
      <trkpt lat="47.79573" lon="-3.48309">
        <ele>48</ele>
        <time>2019-07-17T13:53:18Z</time>
      </trkpt>
      <trkpt lat="47.79579" lon="-3.48307">
        <ele>48</ele>
        <time>2019-07-17T13:53:19Z</time>
      </trkpt>
      <trkpt lat="47.79585" lon="-3.48308">
        <ele>48</ele>
        <time>2019-07-17T13:53:20Z</time>
      </trkpt>
      <trkpt lat="47.79591" lon="-3.48311">
        <ele>48</ele>
        <time>2019-07-17T13:53:21Z</time>
      </trkpt>
      <trkpt lat="47.79596" lon="-3.48312">
        <ele>48</ele>
        <time>2019-07-17T13:53:22Z</time>
      </trkpt>
      <trkpt lat="47.79601" lon="-3.4831">
        <ele>48</ele>
        <time>2019-07-17T13:53:23Z</time>
      </trkpt>
      <trkpt lat="47.79604" lon="-3.48307">
        <ele>48</ele>
        <time>2019-07-17T13:53:24Z</time>
      </trkpt>
      <trkpt lat="47.79608" lon="-3.48304">
        <ele>48</ele>
        <time>2019-07-17T13:53:25Z</time>
      </trkpt>
      <trkpt lat="47.7961" lon="-3.483">
        <ele>48</ele>
        <time>2019-07-17T13:53:26Z</time>
      </trkpt>
      <trkpt lat="47.7961" lon="-3.48296">
        <ele>48</ele>
        <time>2019-07-17T13:53:27Z</time>
      </trkpt>
      <trkpt lat="47.7961" lon="-3.48292">
        <ele>48</ele>
        <time>2019-07-17T13:53:28Z</time>
      </trkpt>
      <trkpt lat="47.7961" lon="-3.48288">
        <ele>48</ele>
        <time>2019-07-17T13:53:29Z</time>
      </trkpt>
      <trkpt lat="47.7961" lon="-3.48283">
        <ele>48</ele>
        <time>2019-07-17T13:53:30Z</time>
      </trkpt>
      <trkpt lat="47.79611" lon="-3.48279">
        <ele>48</ele>
        <time>2019-07-17T13:53:31Z</time>
      </trkpt>
      <trkpt lat="47.79611" lon="-3.48273">
        <ele>48</ele>
        <time>2019-07-17T13:53:32Z</time>
      </trkpt>
      <trkpt lat="47.79612" lon="-3.48267">
        <ele>48</ele>
        <time>2019-07-17T13:53:33Z</time>
      </trkpt>
      <trkpt lat="47.79614" lon="-3.48261">
        <ele>47</ele>
        <time>2019-07-17T13:53:34Z</time>
      </trkpt>
      <trkpt lat="47.79617" lon="-3.48256">
        <ele>47</ele>
        <time>2019-07-17T13:53:35Z</time>
      </trkpt>
      <trkpt lat="47.7962" lon="-3.48251">
        <ele>47</ele>
        <time>2019-07-17T13:53:36Z</time>
      </trkpt>
      <trkpt lat="47.79623" lon="-3.48248">
        <ele>47</ele>
        <time>2019-07-17T13:53:37Z</time>
      </trkpt>
      <trkpt lat="47.79627" lon="-3.48246">
        <ele>47</ele>
        <time>2019-07-17T13:53:38Z</time>
      </trkpt>
      <trkpt lat="47.79631" lon="-3.48245">
        <ele>47</ele>
        <time>2019-07-17T13:53:39Z</time>
      </trkpt>
      <trkpt lat="47.79634" lon="-3.48246">
        <ele>47</ele>
        <time>2019-07-17T13:53:40Z</time>
      </trkpt>
      <trkpt lat="47.79639" lon="-3.48247">
        <ele>47</ele>
        <time>2019-07-17T13:53:41Z</time>
      </trkpt>
      <trkpt lat="47.79643" lon="-3.48247">
        <ele>47</ele>
        <time>2019-07-17T13:53:42Z</time>
      </trkpt>
      <trkpt lat="47.79647" lon="-3.48247">
        <ele>47</ele>
        <time>2019-07-17T13:53:43Z</time>
      </trkpt>
      <trkpt lat="47.79651" lon="-3.48249">
        <ele>46</ele>
        <time>2019-07-17T13:53:44Z</time>
      </trkpt>
      <trkpt lat="47.79655" lon="-3.48252">
        <ele>46</ele>
        <time>2019-07-17T13:53:45Z</time>
      </trkpt>
      <trkpt lat="47.79659" lon="-3.48253">
        <ele>46</ele>
        <time>2019-07-17T13:53:46Z</time>
      </trkpt>
      <trkpt lat="47.79664" lon="-3.48252">
        <ele>46</ele>
        <time>2019-07-17T13:53:47Z</time>
      </trkpt>
      <trkpt lat="47.79669" lon="-3.48249">
        <ele>46</ele>
        <time>2019-07-17T13:53:48Z</time>
      </trkpt>
      <trkpt lat="47.79673" lon="-3.48245">
        <ele>46</ele>
        <time>2019-07-17T13:53:49Z</time>
      </trkpt>
      <trkpt lat="47.79677" lon="-3.4824">
        <ele>46</ele>
        <time>2019-07-17T13:53:50Z</time>
      </trkpt>
      <trkpt lat="47.79681" lon="-3.48234">
        <ele>46</ele>
        <time>2019-07-17T13:53:51Z</time>
      </trkpt>
      <trkpt lat="47.79685" lon="-3.48227">
        <ele>46</ele>
        <time>2019-07-17T13:53:52Z</time>
      </trkpt>
      <trkpt lat="47.79687" lon="-3.48219">
        <ele>46</ele>
        <time>2019-07-17T13:53:53Z</time>
      </trkpt>
      <trkpt lat="47.7969" lon="-3.48211">
        <ele>46</ele>
        <time>2019-07-17T13:53:54Z</time>
      </trkpt>
      <trkpt lat="47.79692" lon="-3.48203">
        <ele>46</ele>
        <time>2019-07-17T13:53:55Z</time>
      </trkpt>
      <trkpt lat="47.79694" lon="-3.48195">
        <ele>45</ele>
        <time>2019-07-17T13:53:56Z</time>
      </trkpt>
      <trkpt lat="47.79696" lon="-3.48187">
        <ele>45</ele>
        <time>2019-07-17T13:53:57Z</time>
      </trkpt>
      <trkpt lat="47.79698" lon="-3.48178">
        <ele>45</ele>
        <time>2019-07-17T13:53:58Z</time>
      </trkpt>
      <trkpt lat="47.797" lon="-3.48169">
        <ele>45</ele>
        <time>2019-07-17T13:53:59Z</time>
      </trkpt>
      <trkpt lat="47.79702" lon="-3.48161">
        <ele>45</ele>
        <time>2019-07-17T13:54:00Z</time>
      </trkpt>
      <trkpt lat="47.79705" lon="-3.48152">
        <ele>45</ele>
        <time>2019-07-17T13:54:01Z</time>
      </trkpt>
      <trkpt lat="47.79707" lon="-3.48143">
        <ele>44</ele>
        <time>2019-07-17T13:54:02Z</time>
      </trkpt>
      <trkpt lat="47.79709" lon="-3.48134">
        <ele>44</ele>
        <time>2019-07-17T13:54:03Z</time>
      </trkpt>
      <trkpt lat="47.7971" lon="-3.48126">
        <ele>44</ele>
        <time>2019-07-17T13:54:04Z</time>
      </trkpt>
      <trkpt lat="47.79712" lon="-3.48118">
        <ele>44</ele>
        <time>2019-07-17T13:54:05Z</time>
      </trkpt>
      <trkpt lat="47.79715" lon="-3.4811">
        <ele>44</ele>
        <time>2019-07-17T13:54:06Z</time>
      </trkpt>
      <trkpt lat="47.79716" lon="-3.48102">
        <ele>44</ele>
        <time>2019-07-17T13:54:07Z</time>
      </trkpt>
      <trkpt lat="47.79719" lon="-3.48095">
        <ele>44</ele>
        <time>2019-07-17T13:54:08Z</time>
      </trkpt>
      <trkpt lat="47.79721" lon="-3.48087">
        <ele>44</ele>
        <time>2019-07-17T13:54:09Z</time>
      </trkpt>
      <trkpt lat="47.79724" lon="-3.4808">
        <ele>44</ele>
        <time>2019-07-17T13:54:10Z</time>
      </trkpt>
      <trkpt lat="47.79727" lon="-3.48074">
        <ele>44</ele>
        <time>2019-07-17T13:54:11Z</time>
      </trkpt>
      <trkpt lat="47.7973" lon="-3.48068">
        <ele>44</ele>
        <time>2019-07-17T13:54:12Z</time>
      </trkpt>
      <trkpt lat="47.79734" lon="-3.48063">
        <ele>44</ele>
        <time>2019-07-17T13:54:13Z</time>
      </trkpt>
      <trkpt lat="47.79738" lon="-3.48059">
        <ele>44</ele>
        <time>2019-07-17T13:54:14Z</time>
      </trkpt>
      <trkpt lat="47.79742" lon="-3.48054">
        <ele>44</ele>
        <time>2019-07-17T13:54:15Z</time>
      </trkpt>
      <trkpt lat="47.79746" lon="-3.4805">
        <ele>44</ele>
        <time>2019-07-17T13:54:16Z</time>
      </trkpt>
      <trkpt lat="47.79751" lon="-3.48046">
        <ele>44</ele>
        <time>2019-07-17T13:54:17Z</time>
      </trkpt>
      <trkpt lat="47.79756" lon="-3.48042">
        <ele>44</ele>
        <time>2019-07-17T13:54:18Z</time>
      </trkpt>
      <trkpt lat="47.79761" lon="-3.48038">
        <ele>44</ele>
        <time>2019-07-17T13:54:19Z</time>
      </trkpt>
      <trkpt lat="47.79765" lon="-3.48033">
        <ele>44</ele>
        <time>2019-07-17T13:54:20Z</time>
      </trkpt>
      <trkpt lat="47.7977" lon="-3.48029">
        <ele>44</ele>
        <time>2019-07-17T13:54:21Z</time>
      </trkpt>
      <trkpt lat="47.79775" lon="-3.48024">
        <ele>44</ele>
        <time>2019-07-17T13:54:22Z</time>
      </trkpt>
      <trkpt lat="47.79779" lon="-3.4802">
        <ele>45</ele>
        <time>2019-07-17T13:54:23Z</time>
      </trkpt>
      <trkpt lat="47.79783" lon="-3.48015">
        <ele>45</ele>
        <time>2019-07-17T13:54:24Z</time>
      </trkpt>
      <trkpt lat="47.79787" lon="-3.4801">
        <ele>45</ele>
        <time>2019-07-17T13:54:25Z</time>
      </trkpt>
      <trkpt lat="47.7979" lon="-3.48005">
        <ele>45</ele>
        <time>2019-07-17T13:54:26Z</time>
      </trkpt>
      <trkpt lat="47.79794" lon="-3.48001">
        <ele>44</ele>
        <time>2019-07-17T13:54:27Z</time>
      </trkpt>
      <trkpt lat="47.79798" lon="-3.47998">
        <ele>45</ele>
        <time>2019-07-17T13:54:28Z</time>
      </trkpt>
      <trkpt lat="47.79803" lon="-3.47994">
        <ele>45</ele>
        <time>2019-07-17T13:54:29Z</time>
      </trkpt>
      <trkpt lat="47.79808" lon="-3.47991">
        <ele>45</ele>
        <time>2019-07-17T13:54:30Z</time>
      </trkpt>
      <trkpt lat="47.79813" lon="-3.47987">
        <ele>45</ele>
        <time>2019-07-17T13:54:31Z</time>
      </trkpt>
      <trkpt lat="47.79817" lon="-3.47984">
        <ele>45</ele>
        <time>2019-07-17T13:54:32Z</time>
      </trkpt>
      <trkpt lat="47.7982" lon="-3.4798">
        <ele>45</ele>
        <time>2019-07-17T13:54:33Z</time>
      </trkpt>
      <trkpt lat="47.79824" lon="-3.47978">
        <ele>45</ele>
        <time>2019-07-17T13:54:34Z</time>
      </trkpt>
      <trkpt lat="47.79827" lon="-3.47975">
        <ele>45</ele>
        <time>2019-07-17T13:54:35Z</time>
      </trkpt>
      <trkpt lat="47.79831" lon="-3.47971">
        <ele>45</ele>
        <time>2019-07-17T13:54:36Z</time>
      </trkpt>
      <trkpt lat="47.79835" lon="-3.47968">
        <ele>45</ele>
        <time>2019-07-17T13:54:37Z</time>
      </trkpt>
      <trkpt lat="47.79839" lon="-3.47964">
        <ele>45</ele>
        <time>2019-07-17T13:54:38Z</time>
      </trkpt>
      <trkpt lat="47.79843" lon="-3.4796">
        <ele>45</ele>
        <time>2019-07-17T13:54:39Z</time>
      </trkpt>
      <trkpt lat="47.79847" lon="-3.47957">
        <ele>45</ele>
        <time>2019-07-17T13:54:40Z</time>
      </trkpt>
      <trkpt lat="47.79852" lon="-3.47953">
        <ele>45</ele>
        <time>2019-07-17T13:54:41Z</time>
      </trkpt>
      <trkpt lat="47.79856" lon="-3.47949">
        <ele>45</ele>
        <time>2019-07-17T13:54:42Z</time>
      </trkpt>
      <trkpt lat="47.79861" lon="-3.47945">
        <ele>45</ele>
        <time>2019-07-17T13:54:43Z</time>
      </trkpt>
      <trkpt lat="47.79866" lon="-3.47941">
        <ele>45</ele>
        <time>2019-07-17T13:54:44Z</time>
      </trkpt>
      <trkpt lat="47.79871" lon="-3.47937">
        <ele>45</ele>
        <time>2019-07-17T13:54:45Z</time>
      </trkpt>
      <trkpt lat="47.79876" lon="-3.47933">
        <ele>45</ele>
        <time>2019-07-17T13:54:46Z</time>
      </trkpt>
      <trkpt lat="47.79881" lon="-3.47929">
        <ele>45</ele>
        <time>2019-07-17T13:54:47Z</time>
      </trkpt>
      <trkpt lat="47.79886" lon="-3.47926">
        <ele>45</ele>
        <time>2019-07-17T13:54:48Z</time>
      </trkpt>
      <trkpt lat="47.7989" lon="-3.47922">
        <ele>45</ele>
        <time>2019-07-17T13:54:49Z</time>
      </trkpt>
      <trkpt lat="47.79895" lon="-3.47917">
        <ele>45</ele>
        <time>2019-07-17T13:54:50Z</time>
      </trkpt>
      <trkpt lat="47.799" lon="-3.47914">
        <ele>45</ele>
        <time>2019-07-17T13:54:51Z</time>
      </trkpt>
      <trkpt lat="47.79905" lon="-3.4791">
        <ele>45</ele>
        <time>2019-07-17T13:54:52Z</time>
      </trkpt>
      <trkpt lat="47.7991" lon="-3.47905">
        <ele>45</ele>
        <time>2019-07-17T13:54:53Z</time>
      </trkpt>
      <trkpt lat="47.79914" lon="-3.479">
        <ele>45</ele>
        <time>2019-07-17T13:54:54Z</time>
      </trkpt>
      <trkpt lat="47.79918" lon="-3.47895">
        <ele>45</ele>
        <time>2019-07-17T13:54:55Z</time>
      </trkpt>
      <trkpt lat="47.7992" lon="-3.47888">
        <ele>45</ele>
        <time>2019-07-17T13:54:56Z</time>
      </trkpt>
      <trkpt lat="47.79922" lon="-3.47882">
        <ele>45</ele>
        <time>2019-07-17T13:54:57Z</time>
      </trkpt>
      <trkpt lat="47.79924" lon="-3.47875">
        <ele>45</ele>
        <time>2019-07-17T13:54:58Z</time>
      </trkpt>
      <trkpt lat="47.79925" lon="-3.47867">
        <ele>45</ele>
        <time>2019-07-17T13:54:59Z</time>
      </trkpt>
      <trkpt lat="47.79926" lon="-3.4786">
        <ele>45</ele>
        <time>2019-07-17T13:55:00Z</time>
      </trkpt>
      <trkpt lat="47.79927" lon="-3.47852">
        <ele>45</ele>
        <time>2019-07-17T13:55:01Z</time>
      </trkpt>
      <trkpt lat="47.79928" lon="-3.47844">
        <ele>45</ele>
        <time>2019-07-17T13:55:02Z</time>
      </trkpt>
      <trkpt lat="47.79928" lon="-3.47837">
        <ele>45</ele>
        <time>2019-07-17T13:55:03Z</time>
      </trkpt>
      <trkpt lat="47.79928" lon="-3.47829">
        <ele>45</ele>
        <time>2019-07-17T13:55:04Z</time>
      </trkpt>
      <trkpt lat="47.79929" lon="-3.47821">
        <ele>45</ele>
        <time>2019-07-17T13:55:05Z</time>
      </trkpt>
      <trkpt lat="47.79929" lon="-3.47813">
        <ele>45</ele>
        <time>2019-07-17T13:55:06Z</time>
      </trkpt>
      <trkpt lat="47.79929" lon="-3.47806">
        <ele>46</ele>
        <time>2019-07-17T13:55:07Z</time>
      </trkpt>
      <trkpt lat="47.7993" lon="-3.47798">
        <ele>46</ele>
        <time>2019-07-17T13:55:08Z</time>
      </trkpt>
      <trkpt lat="47.79931" lon="-3.47792">
        <ele>46</ele>
        <time>2019-07-17T13:55:09Z</time>
      </trkpt>
      <trkpt lat="47.79932" lon="-3.47785">
        <ele>46</ele>
        <time>2019-07-17T13:55:10Z</time>
      </trkpt>
      <trkpt lat="47.79933" lon="-3.47778">
        <ele>46</ele>
        <time>2019-07-17T13:55:11Z</time>
      </trkpt>
      <trkpt lat="47.79933" lon="-3.47771">
        <ele>46</ele>
        <time>2019-07-17T13:55:12Z</time>
      </trkpt>
      <trkpt lat="47.79933" lon="-3.47763">
        <ele>46</ele>
        <time>2019-07-17T13:55:13Z</time>
      </trkpt>
      <trkpt lat="47.79934" lon="-3.47756">
        <ele>46</ele>
        <time>2019-07-17T13:55:14Z</time>
      </trkpt>
      <trkpt lat="47.79935" lon="-3.47749">
        <ele>46</ele>
        <time>2019-07-17T13:55:15Z</time>
      </trkpt>
      <trkpt lat="47.79936" lon="-3.47742">
        <ele>46</ele>
        <time>2019-07-17T13:55:16Z</time>
      </trkpt>
      <trkpt lat="47.79938" lon="-3.47735">
        <ele>46</ele>
        <time>2019-07-17T13:55:17Z</time>
      </trkpt>
      <trkpt lat="47.7994" lon="-3.47729">
        <ele>46</ele>
        <time>2019-07-17T13:55:18Z</time>
      </trkpt>
      <trkpt lat="47.79942" lon="-3.47722">
        <ele>46</ele>
        <time>2019-07-17T13:55:19Z</time>
      </trkpt>
      <trkpt lat="47.79945" lon="-3.47716">
        <ele>46</ele>
        <time>2019-07-17T13:55:20Z</time>
      </trkpt>
      <trkpt lat="47.79947" lon="-3.4771">
        <ele>46</ele>
        <time>2019-07-17T13:55:21Z</time>
      </trkpt>
      <trkpt lat="47.79949" lon="-3.47705">
        <ele>46</ele>
        <time>2019-07-17T13:55:22Z</time>
      </trkpt>
      <trkpt lat="47.79953" lon="-3.47701">
        <ele>46</ele>
        <time>2019-07-17T13:55:23Z</time>
      </trkpt>
      <trkpt lat="47.79957" lon="-3.47699">
        <ele>47</ele>
        <time>2019-07-17T13:55:24Z</time>
      </trkpt>
      <trkpt lat="47.79961" lon="-3.477">
        <ele>47</ele>
        <time>2019-07-17T13:55:25Z</time>
      </trkpt>
      <trkpt lat="47.79964" lon="-3.47704">
        <ele>47</ele>
        <time>2019-07-17T13:55:26Z</time>
      </trkpt>
      <trkpt lat="47.79966" lon="-3.4771">
        <ele>47</ele>
        <time>2019-07-17T13:55:27Z</time>
      </trkpt>
      <trkpt lat="47.79968" lon="-3.47716">
        <ele>47</ele>
        <time>2019-07-17T13:55:28Z</time>
      </trkpt>
      <trkpt lat="47.79969" lon="-3.47723">
        <ele>47</ele>
        <time>2019-07-17T13:55:29Z</time>
      </trkpt>
      <trkpt lat="47.79971" lon="-3.4773">
        <ele>47</ele>
        <time>2019-07-17T13:55:30Z</time>
      </trkpt>
      <trkpt lat="47.79973" lon="-3.47737">
        <ele>47</ele>
        <time>2019-07-17T13:55:31Z</time>
      </trkpt>
      <trkpt lat="47.79976" lon="-3.47744">
        <ele>47</ele>
        <time>2019-07-17T13:55:32Z</time>
      </trkpt>
      <trkpt lat="47.79978" lon="-3.47751">
        <ele>47</ele>
        <time>2019-07-17T13:55:33Z</time>
      </trkpt>
      <trkpt lat="47.79981" lon="-3.47758">
        <ele>47</ele>
        <time>2019-07-17T13:55:34Z</time>
      </trkpt>
      <trkpt lat="47.79984" lon="-3.47764">
        <ele>47</ele>
        <time>2019-07-17T13:55:35Z</time>
      </trkpt>
      <trkpt lat="47.79987" lon="-3.47771">
        <ele>47</ele>
        <time>2019-07-17T13:55:36Z</time>
      </trkpt>
      <trkpt lat="47.79991" lon="-3.47777">
        <ele>47</ele>
        <time>2019-07-17T13:55:37Z</time>
      </trkpt>
      <trkpt lat="47.79994" lon="-3.47783">
        <ele>47</ele>
        <time>2019-07-17T13:55:38Z</time>
      </trkpt>
      <trkpt lat="47.79998" lon="-3.47789">
        <ele>47</ele>
        <time>2019-07-17T13:55:39Z</time>
      </trkpt>
      <trkpt lat="47.80003" lon="-3.47794">
        <ele>47</ele>
        <time>2019-07-17T13:55:40Z</time>
      </trkpt>
      <trkpt lat="47.80008" lon="-3.478">
        <ele>47</ele>
        <time>2019-07-17T13:55:41Z</time>
      </trkpt>
      <trkpt lat="47.80013" lon="-3.47804">
        <ele>47</ele>
        <time>2019-07-17T13:55:42Z</time>
      </trkpt>
      <trkpt lat="47.80018" lon="-3.47809">
        <ele>47</ele>
        <time>2019-07-17T13:55:43Z</time>
      </trkpt>
      <trkpt lat="47.80024" lon="-3.47813">
        <ele>47</ele>
        <time>2019-07-17T13:55:44Z</time>
      </trkpt>
      <trkpt lat="47.80029" lon="-3.47817">
        <ele>47</ele>
        <time>2019-07-17T13:55:45Z</time>
      </trkpt>
      <trkpt lat="47.80035" lon="-3.4782">
        <ele>47</ele>
        <time>2019-07-17T13:55:46Z</time>
      </trkpt>
      <trkpt lat="47.80041" lon="-3.47821">
        <ele>46</ele>
        <time>2019-07-17T13:55:47Z</time>
      </trkpt>
      <trkpt lat="47.80047" lon="-3.47823">
        <ele>46</ele>
        <time>2019-07-17T13:55:48Z</time>
      </trkpt>
      <trkpt lat="47.80054" lon="-3.47824">
        <ele>46</ele>
        <time>2019-07-17T13:55:49Z</time>
      </trkpt>
      <trkpt lat="47.80061" lon="-3.47825">
        <ele>46</ele>
        <time>2019-07-17T13:55:50Z</time>
      </trkpt>
      <trkpt lat="47.80067" lon="-3.47826">
        <ele>46</ele>
        <time>2019-07-17T13:55:51Z</time>
      </trkpt>
      <trkpt lat="47.80074" lon="-3.47827">
        <ele>45</ele>
        <time>2019-07-17T13:55:52Z</time>
      </trkpt>
      <trkpt lat="47.80081" lon="-3.47828">
        <ele>45</ele>
        <time>2019-07-17T13:55:53Z</time>
      </trkpt>
      <trkpt lat="47.80087" lon="-3.47829">
        <ele>45</ele>
        <time>2019-07-17T13:55:54Z</time>
      </trkpt>
      <trkpt lat="47.80093" lon="-3.47829">
        <ele>45</ele>
        <time>2019-07-17T13:55:55Z</time>
      </trkpt>
      <trkpt lat="47.80099" lon="-3.4783">
        <ele>45</ele>
        <time>2019-07-17T13:55:56Z</time>
      </trkpt>
      <trkpt lat="47.80106" lon="-3.4783">
        <ele>45</ele>
        <time>2019-07-17T13:55:57Z</time>
      </trkpt>
      <trkpt lat="47.80112" lon="-3.47831">
        <ele>45</ele>
        <time>2019-07-17T13:55:58Z</time>
      </trkpt>
      <trkpt lat="47.80119" lon="-3.47832">
        <ele>45</ele>
        <time>2019-07-17T13:55:59Z</time>
      </trkpt>
      <trkpt lat="47.80125" lon="-3.47833">
        <ele>45</ele>
        <time>2019-07-17T13:56:00Z</time>
      </trkpt>
      <trkpt lat="47.80132" lon="-3.47834">
        <ele>44</ele>
        <time>2019-07-17T13:56:01Z</time>
      </trkpt>
      <trkpt lat="47.80138" lon="-3.47834">
        <ele>45</ele>
        <time>2019-07-17T13:56:02Z</time>
      </trkpt>
      <trkpt lat="47.80144" lon="-3.47835">
        <ele>44</ele>
        <time>2019-07-17T13:56:03Z</time>
      </trkpt>
      <trkpt lat="47.80151" lon="-3.47836">
        <ele>44</ele>
        <time>2019-07-17T13:56:04Z</time>
      </trkpt>
      <trkpt lat="47.80157" lon="-3.47837">
        <ele>44</ele>
        <time>2019-07-17T13:56:05Z</time>
      </trkpt>
      <trkpt lat="47.80164" lon="-3.47837">
        <ele>44</ele>
        <time>2019-07-17T13:56:06Z</time>
      </trkpt>
      <trkpt lat="47.8017" lon="-3.47838">
        <ele>44</ele>
        <time>2019-07-17T13:56:07Z</time>
      </trkpt>
      <trkpt lat="47.80176" lon="-3.47837">
        <ele>44</ele>
        <time>2019-07-17T13:56:08Z</time>
      </trkpt>
      <trkpt lat="47.80181" lon="-3.47834">
        <ele>44</ele>
        <time>2019-07-17T13:56:09Z</time>
      </trkpt>
      <trkpt lat="47.80186" lon="-3.4783">
        <ele>45</ele>
        <time>2019-07-17T13:56:10Z</time>
      </trkpt>
      <trkpt lat="47.80191" lon="-3.47826">
        <ele>45</ele>
        <time>2019-07-17T13:56:11Z</time>
      </trkpt>
      <trkpt lat="47.80195" lon="-3.47822">
        <ele>45</ele>
        <time>2019-07-17T13:56:12Z</time>
      </trkpt>
      <trkpt lat="47.802" lon="-3.47817">
        <ele>45</ele>
        <time>2019-07-17T13:56:13Z</time>
      </trkpt>
      <trkpt lat="47.80205" lon="-3.47812">
        <ele>45</ele>
        <time>2019-07-17T13:56:14Z</time>
      </trkpt>
      <trkpt lat="47.8021" lon="-3.47806">
        <ele>45</ele>
        <time>2019-07-17T13:56:15Z</time>
      </trkpt>
      <trkpt lat="47.80214" lon="-3.47799">
        <ele>44</ele>
        <time>2019-07-17T13:56:16Z</time>
      </trkpt>
      <trkpt lat="47.80219" lon="-3.47792">
        <ele>44</ele>
        <time>2019-07-17T13:56:17Z</time>
      </trkpt>
      <trkpt lat="47.80224" lon="-3.47785">
        <ele>44</ele>
        <time>2019-07-17T13:56:18Z</time>
      </trkpt>
      <trkpt lat="47.80229" lon="-3.47777">
        <ele>44</ele>
        <time>2019-07-17T13:56:19Z</time>
      </trkpt>
      <trkpt lat="47.80234" lon="-3.47769">
        <ele>44</ele>
        <time>2019-07-17T13:56:20Z</time>
      </trkpt>
      <trkpt lat="47.8024" lon="-3.47762">
        <ele>44</ele>
        <time>2019-07-17T13:56:21Z</time>
      </trkpt>
      <trkpt lat="47.80245" lon="-3.47755">
        <ele>43</ele>
        <time>2019-07-17T13:56:22Z</time>
      </trkpt>
      <trkpt lat="47.80251" lon="-3.47747">
        <ele>43</ele>
        <time>2019-07-17T13:56:23Z</time>
      </trkpt>
      <trkpt lat="47.80256" lon="-3.47739">
        <ele>43</ele>
        <time>2019-07-17T13:56:24Z</time>
      </trkpt>
      <trkpt lat="47.80262" lon="-3.47732">
        <ele>43</ele>
        <time>2019-07-17T13:56:25Z</time>
      </trkpt>
      <trkpt lat="47.80267" lon="-3.47724">
        <ele>43</ele>
        <time>2019-07-17T13:56:26Z</time>
      </trkpt>
      <trkpt lat="47.80272" lon="-3.47716">
        <ele>43</ele>
        <time>2019-07-17T13:56:27Z</time>
      </trkpt>
      <trkpt lat="47.80276" lon="-3.47709">
        <ele>43</ele>
        <time>2019-07-17T13:56:28Z</time>
      </trkpt>
      <trkpt lat="47.80281" lon="-3.47701">
        <ele>43</ele>
        <time>2019-07-17T13:56:29Z</time>
      </trkpt>
      <trkpt lat="47.80285" lon="-3.47694">
        <ele>42</ele>
        <time>2019-07-17T13:56:30Z</time>
      </trkpt>
      <trkpt lat="47.8029" lon="-3.47687">
        <ele>42</ele>
        <time>2019-07-17T13:56:31Z</time>
      </trkpt>
      <trkpt lat="47.80294" lon="-3.47679">
        <ele>42</ele>
        <time>2019-07-17T13:56:32Z</time>
      </trkpt>
      <trkpt lat="47.80298" lon="-3.47673">
        <ele>42</ele>
        <time>2019-07-17T13:56:33Z</time>
      </trkpt>
      <trkpt lat="47.80302" lon="-3.47666">
        <ele>42</ele>
        <time>2019-07-17T13:56:34Z</time>
      </trkpt>
      <trkpt lat="47.80306" lon="-3.4766">
        <ele>42</ele>
        <time>2019-07-17T13:56:35Z</time>
      </trkpt>
      <trkpt lat="47.8031" lon="-3.47653">
        <ele>42</ele>
        <time>2019-07-17T13:56:36Z</time>
      </trkpt>
      <trkpt lat="47.80314" lon="-3.47646">
        <ele>42</ele>
        <time>2019-07-17T13:56:37Z</time>
      </trkpt>
      <trkpt lat="47.80318" lon="-3.47639">
        <ele>42</ele>
        <time>2019-07-17T13:56:38Z</time>
      </trkpt>
      <trkpt lat="47.80322" lon="-3.47633">
        <ele>43</ele>
        <time>2019-07-17T13:56:39Z</time>
      </trkpt>
      <trkpt lat="47.80326" lon="-3.47627">
        <ele>43</ele>
        <time>2019-07-17T13:56:40Z</time>
      </trkpt>
      <trkpt lat="47.80329" lon="-3.4762">
        <ele>43</ele>
        <time>2019-07-17T13:56:41Z</time>
      </trkpt>
      <trkpt lat="47.80334" lon="-3.47614">
        <ele>43</ele>
        <time>2019-07-17T13:56:42Z</time>
      </trkpt>
      <trkpt lat="47.80338" lon="-3.47607">
        <ele>43</ele>
        <time>2019-07-17T13:56:43Z</time>
      </trkpt>
      <trkpt lat="47.80342" lon="-3.476">
        <ele>43</ele>
        <time>2019-07-17T13:56:44Z</time>
      </trkpt>
      <trkpt lat="47.80346" lon="-3.47593">
        <ele>43</ele>
        <time>2019-07-17T13:56:45Z</time>
      </trkpt>
      <trkpt lat="47.80351" lon="-3.47586">
        <ele>43</ele>
        <time>2019-07-17T13:56:46Z</time>
      </trkpt>
      <trkpt lat="47.80355" lon="-3.47579">
        <ele>43</ele>
        <time>2019-07-17T13:56:47Z</time>
      </trkpt>
      <trkpt lat="47.80359" lon="-3.47572">
        <ele>43</ele>
        <time>2019-07-17T13:56:48Z</time>
      </trkpt>
      <trkpt lat="47.80364" lon="-3.47565">
        <ele>43</ele>
        <time>2019-07-17T13:56:49Z</time>
      </trkpt>
      <trkpt lat="47.80368" lon="-3.47559">
        <ele>43</ele>
        <time>2019-07-17T13:56:50Z</time>
      </trkpt>
      <trkpt lat="47.80373" lon="-3.47552">
        <ele>43</ele>
        <time>2019-07-17T13:56:51Z</time>
      </trkpt>
      <trkpt lat="47.80377" lon="-3.47545">
        <ele>44</ele>
        <time>2019-07-17T13:56:52Z</time>
      </trkpt>
      <trkpt lat="47.80381" lon="-3.47538">
        <ele>44</ele>
        <time>2019-07-17T13:56:53Z</time>
      </trkpt>
      <trkpt lat="47.80385" lon="-3.47531">
        <ele>44</ele>
        <time>2019-07-17T13:56:54Z</time>
      </trkpt>
      <trkpt lat="47.80389" lon="-3.47524">
        <ele>44</ele>
        <time>2019-07-17T13:56:55Z</time>
      </trkpt>
      <trkpt lat="47.80394" lon="-3.47517">
        <ele>44</ele>
        <time>2019-07-17T13:56:56Z</time>
      </trkpt>
      <trkpt lat="47.80398" lon="-3.4751">
        <ele>44</ele>
        <time>2019-07-17T13:56:57Z</time>
      </trkpt>
      <trkpt lat="47.80402" lon="-3.47502">
        <ele>44</ele>
        <time>2019-07-17T13:56:58Z</time>
      </trkpt>
      <trkpt lat="47.80406" lon="-3.47495">
        <ele>44</ele>
        <time>2019-07-17T13:56:59Z</time>
      </trkpt>
      <trkpt lat="47.8041" lon="-3.47488">
        <ele>44</ele>
        <time>2019-07-17T13:57:00Z</time>
      </trkpt>
      <trkpt lat="47.80414" lon="-3.47481">
        <ele>44</ele>
        <time>2019-07-17T13:57:01Z</time>
      </trkpt>
      <trkpt lat="47.80418" lon="-3.47474">
        <ele>44</ele>
        <time>2019-07-17T13:57:02Z</time>
      </trkpt>
      <trkpt lat="47.80421" lon="-3.47467">
        <ele>44</ele>
        <time>2019-07-17T13:57:03Z</time>
      </trkpt>
      <trkpt lat="47.80425" lon="-3.4746">
        <ele>44</ele>
        <time>2019-07-17T13:57:04Z</time>
      </trkpt>
      <trkpt lat="47.80429" lon="-3.47453">
        <ele>45</ele>
        <time>2019-07-17T13:57:05Z</time>
      </trkpt>
      <trkpt lat="47.80433" lon="-3.47445">
        <ele>45</ele>
        <time>2019-07-17T13:57:06Z</time>
      </trkpt>
      <trkpt lat="47.80437" lon="-3.47438">
        <ele>45</ele>
        <time>2019-07-17T13:57:07Z</time>
      </trkpt>
      <trkpt lat="47.80441" lon="-3.4743">
        <ele>45</ele>
        <time>2019-07-17T13:57:08Z</time>
      </trkpt>
      <trkpt lat="47.80445" lon="-3.47423">
        <ele>45</ele>
        <time>2019-07-17T13:57:09Z</time>
      </trkpt>
      <trkpt lat="47.80449" lon="-3.47416">
        <ele>45</ele>
        <time>2019-07-17T13:57:10Z</time>
      </trkpt>
      <trkpt lat="47.80453" lon="-3.47408">
        <ele>45</ele>
        <time>2019-07-17T13:57:11Z</time>
      </trkpt>
      <trkpt lat="47.80457" lon="-3.47401">
        <ele>45</ele>
        <time>2019-07-17T13:57:12Z</time>
      </trkpt>
      <trkpt lat="47.80461" lon="-3.47393">
        <ele>45</ele>
        <time>2019-07-17T13:57:13Z</time>
      </trkpt>
      <trkpt lat="47.80465" lon="-3.47385">
        <ele>45</ele>
        <time>2019-07-17T13:57:14Z</time>
      </trkpt>
      <trkpt lat="47.80469" lon="-3.47378">
        <ele>45</ele>
        <time>2019-07-17T13:57:15Z</time>
      </trkpt>
      <trkpt lat="47.80473" lon="-3.4737">
        <ele>45</ele>
        <time>2019-07-17T13:57:16Z</time>
      </trkpt>
      <trkpt lat="47.80477" lon="-3.47362">
        <ele>45</ele>
        <time>2019-07-17T13:57:17Z</time>
      </trkpt>
      <trkpt lat="47.80481" lon="-3.47354">
        <ele>45</ele>
        <time>2019-07-17T13:57:18Z</time>
      </trkpt>
      <trkpt lat="47.80486" lon="-3.47346">
        <ele>45</ele>
        <time>2019-07-17T13:57:19Z</time>
      </trkpt>
      <trkpt lat="47.8049" lon="-3.47338">
        <ele>45</ele>
        <time>2019-07-17T13:57:20Z</time>
      </trkpt>
      <trkpt lat="47.80494" lon="-3.47329">
        <ele>44</ele>
        <time>2019-07-17T13:57:21Z</time>
      </trkpt>
      <trkpt lat="47.80498" lon="-3.47321">
        <ele>44</ele>
        <time>2019-07-17T13:57:22Z</time>
      </trkpt>
      <trkpt lat="47.80501" lon="-3.47312">
        <ele>44</ele>
        <time>2019-07-17T13:57:23Z</time>
      </trkpt>
      <trkpt lat="47.80505" lon="-3.47303">
        <ele>44</ele>
        <time>2019-07-17T13:57:24Z</time>
      </trkpt>
      <trkpt lat="47.80508" lon="-3.47294">
        <ele>44</ele>
        <time>2019-07-17T13:57:25Z</time>
      </trkpt>
      <trkpt lat="47.80512" lon="-3.47285">
        <ele>43</ele>
        <time>2019-07-17T13:57:26Z</time>
      </trkpt>
      <trkpt lat="47.80514" lon="-3.47275">
        <ele>43</ele>
        <time>2019-07-17T13:57:27Z</time>
      </trkpt>
      <trkpt lat="47.80517" lon="-3.47265">
        <ele>43</ele>
        <time>2019-07-17T13:57:28Z</time>
      </trkpt>
      <trkpt lat="47.8052" lon="-3.47255">
        <ele>43</ele>
        <time>2019-07-17T13:57:29Z</time>
      </trkpt>
      <trkpt lat="47.80522" lon="-3.47245">
        <ele>43</ele>
        <time>2019-07-17T13:57:30Z</time>
      </trkpt>
      <trkpt lat="47.80524" lon="-3.47234">
        <ele>42</ele>
        <time>2019-07-17T13:57:31Z</time>
      </trkpt>
      <trkpt lat="47.80526" lon="-3.47224">
        <ele>42</ele>
        <time>2019-07-17T13:57:32Z</time>
      </trkpt>
      <trkpt lat="47.80528" lon="-3.47214">
        <ele>42</ele>
        <time>2019-07-17T13:57:33Z</time>
      </trkpt>
      <trkpt lat="47.8053" lon="-3.47203">
        <ele>42</ele>
        <time>2019-07-17T13:57:34Z</time>
      </trkpt>
      <trkpt lat="47.80532" lon="-3.47193">
        <ele>42</ele>
        <time>2019-07-17T13:57:35Z</time>
      </trkpt>
      <trkpt lat="47.80533" lon="-3.47183">
        <ele>42</ele>
        <time>2019-07-17T13:57:36Z</time>
      </trkpt>
      <trkpt lat="47.80535" lon="-3.47173">
        <ele>42</ele>
        <time>2019-07-17T13:57:37Z</time>
      </trkpt>
      <trkpt lat="47.80537" lon="-3.47163">
        <ele>42</ele>
        <time>2019-07-17T13:57:38Z</time>
      </trkpt>
      <trkpt lat="47.80539" lon="-3.47152">
        <ele>42</ele>
        <time>2019-07-17T13:57:39Z</time>
      </trkpt>
      <trkpt lat="47.8054" lon="-3.47142">
        <ele>42</ele>
        <time>2019-07-17T13:57:40Z</time>
      </trkpt>
      <trkpt lat="47.80542" lon="-3.47132">
        <ele>42</ele>
        <time>2019-07-17T13:57:41Z</time>
      </trkpt>
      <trkpt lat="47.80544" lon="-3.47121">
        <ele>42</ele>
        <time>2019-07-17T13:57:42Z</time>
      </trkpt>
      <trkpt lat="47.80546" lon="-3.47111">
        <ele>42</ele>
        <time>2019-07-17T13:57:43Z</time>
      </trkpt>
      <trkpt lat="47.80547" lon="-3.47101">
        <ele>42</ele>
        <time>2019-07-17T13:57:44Z</time>
      </trkpt>
      <trkpt lat="47.80549" lon="-3.47091">
        <ele>42</ele>
        <time>2019-07-17T13:57:45Z</time>
      </trkpt>
      <trkpt lat="47.80551" lon="-3.47081">
        <ele>42</ele>
        <time>2019-07-17T13:57:46Z</time>
      </trkpt>
      <trkpt lat="47.80552" lon="-3.47071">
        <ele>42</ele>
        <time>2019-07-17T13:57:47Z</time>
      </trkpt>
      <trkpt lat="47.80554" lon="-3.47061">
        <ele>42</ele>
        <time>2019-07-17T13:57:48Z</time>
      </trkpt>
      <trkpt lat="47.80556" lon="-3.47051">
        <ele>43</ele>
        <time>2019-07-17T13:57:49Z</time>
      </trkpt>
      <trkpt lat="47.80558" lon="-3.47041">
        <ele>43</ele>
        <time>2019-07-17T13:57:50Z</time>
      </trkpt>
      <trkpt lat="47.80559" lon="-3.47032">
        <ele>43</ele>
        <time>2019-07-17T13:57:51Z</time>
      </trkpt>
      <trkpt lat="47.80561" lon="-3.47022">
        <ele>43</ele>
        <time>2019-07-17T13:57:52Z</time>
      </trkpt>
      <trkpt lat="47.80562" lon="-3.47013">
        <ele>43</ele>
        <time>2019-07-17T13:57:53Z</time>
      </trkpt>
      <trkpt lat="47.80564" lon="-3.47004">
        <ele>43</ele>
        <time>2019-07-17T13:57:54Z</time>
      </trkpt>
      <trkpt lat="47.80565" lon="-3.46994">
        <ele>43</ele>
        <time>2019-07-17T13:57:55Z</time>
      </trkpt>
      <trkpt lat="47.80567" lon="-3.46986">
        <ele>44</ele>
        <time>2019-07-17T13:57:56Z</time>
      </trkpt>
      <trkpt lat="47.80569" lon="-3.46977">
        <ele>44</ele>
        <time>2019-07-17T13:57:57Z</time>
      </trkpt>
      <trkpt lat="47.8057" lon="-3.46968">
        <ele>44</ele>
        <time>2019-07-17T13:57:58Z</time>
      </trkpt>
      <trkpt lat="47.80572" lon="-3.46959">
        <ele>44</ele>
        <time>2019-07-17T13:57:59Z</time>
      </trkpt>
      <trkpt lat="47.80573" lon="-3.46951">
        <ele>45</ele>
        <time>2019-07-17T13:58:00Z</time>
      </trkpt>
      <trkpt lat="47.80575" lon="-3.46942">
        <ele>45</ele>
        <time>2019-07-17T13:58:01Z</time>
      </trkpt>
      <trkpt lat="47.80577" lon="-3.46933">
        <ele>45</ele>
        <time>2019-07-17T13:58:02Z</time>
      </trkpt>
      <trkpt lat="47.80579" lon="-3.46924">
        <ele>45</ele>
        <time>2019-07-17T13:58:03Z</time>
      </trkpt>
      <trkpt lat="47.80581" lon="-3.46916">
        <ele>46</ele>
        <time>2019-07-17T13:58:04Z</time>
      </trkpt>
      <trkpt lat="47.80582" lon="-3.46907">
        <ele>46</ele>
        <time>2019-07-17T13:58:05Z</time>
      </trkpt>
      <trkpt lat="47.80584" lon="-3.46898">
        <ele>46</ele>
        <time>2019-07-17T13:58:06Z</time>
      </trkpt>
      <trkpt lat="47.80586" lon="-3.46889">
        <ele>46</ele>
        <time>2019-07-17T13:58:07Z</time>
      </trkpt>
      <trkpt lat="47.80588" lon="-3.46881">
        <ele>46</ele>
        <time>2019-07-17T13:58:08Z</time>
      </trkpt>
      <trkpt lat="47.80591" lon="-3.46872">
        <ele>47</ele>
        <time>2019-07-17T13:58:09Z</time>
      </trkpt>
      <trkpt lat="47.80593" lon="-3.46863">
        <ele>47</ele>
        <time>2019-07-17T13:58:10Z</time>
      </trkpt>
      <trkpt lat="47.80595" lon="-3.46855">
        <ele>47</ele>
        <time>2019-07-17T13:58:11Z</time>
      </trkpt>
      <trkpt lat="47.80598" lon="-3.46846">
        <ele>47</ele>
        <time>2019-07-17T13:58:12Z</time>
      </trkpt>
      <trkpt lat="47.806" lon="-3.46836">
        <ele>47</ele>
        <time>2019-07-17T13:58:13Z</time>
      </trkpt>
      <trkpt lat="47.80603" lon="-3.46828">
        <ele>47</ele>
        <time>2019-07-17T13:58:14Z</time>
      </trkpt>
      <trkpt lat="47.80605" lon="-3.46819">
        <ele>47</ele>
        <time>2019-07-17T13:58:15Z</time>
      </trkpt>
      <trkpt lat="47.80608" lon="-3.4681">
        <ele>47</ele>
        <time>2019-07-17T13:58:16Z</time>
      </trkpt>
      <trkpt lat="47.80611" lon="-3.46801">
        <ele>47</ele>
        <time>2019-07-17T13:58:17Z</time>
      </trkpt>
      <trkpt lat="47.80613" lon="-3.46792">
        <ele>48</ele>
        <time>2019-07-17T13:58:18Z</time>
      </trkpt>
      <trkpt lat="47.80616" lon="-3.46782">
        <ele>48</ele>
        <time>2019-07-17T13:58:19Z</time>
      </trkpt>
      <trkpt lat="47.80618" lon="-3.46773">
        <ele>48</ele>
        <time>2019-07-17T13:58:20Z</time>
      </trkpt>
      <trkpt lat="47.80621" lon="-3.46764">
        <ele>48</ele>
        <time>2019-07-17T13:58:21Z</time>
      </trkpt>
      <trkpt lat="47.80623" lon="-3.46754">
        <ele>48</ele>
        <time>2019-07-17T13:58:22Z</time>
      </trkpt>
      <trkpt lat="47.80626" lon="-3.46745">
        <ele>47</ele>
        <time>2019-07-17T13:58:23Z</time>
      </trkpt>
      <trkpt lat="47.80629" lon="-3.46736">
        <ele>47</ele>
        <time>2019-07-17T13:58:24Z</time>
      </trkpt>
      <trkpt lat="47.80631" lon="-3.46726">
        <ele>47</ele>
        <time>2019-07-17T13:58:25Z</time>
      </trkpt>
      <trkpt lat="47.80634" lon="-3.46717">
        <ele>47</ele>
        <time>2019-07-17T13:58:26Z</time>
      </trkpt>
      <trkpt lat="47.80637" lon="-3.46707">
        <ele>47</ele>
        <time>2019-07-17T13:58:27Z</time>
      </trkpt>
      <trkpt lat="47.80639" lon="-3.46698">
        <ele>47</ele>
        <time>2019-07-17T13:58:28Z</time>
      </trkpt>
      <trkpt lat="47.80642" lon="-3.46688">
        <ele>47</ele>
        <time>2019-07-17T13:58:29Z</time>
      </trkpt>
      <trkpt lat="47.80645" lon="-3.46678">
        <ele>47</ele>
        <time>2019-07-17T13:58:30Z</time>
      </trkpt>
      <trkpt lat="47.80647" lon="-3.46669">
        <ele>47</ele>
        <time>2019-07-17T13:58:31Z</time>
      </trkpt>
      <trkpt lat="47.8065" lon="-3.4666">
        <ele>47</ele>
        <time>2019-07-17T13:58:32Z</time>
      </trkpt>
      <trkpt lat="47.80652" lon="-3.4665">
        <ele>47</ele>
        <time>2019-07-17T13:58:33Z</time>
      </trkpt>
      <trkpt lat="47.80655" lon="-3.46641">
        <ele>47</ele>
        <time>2019-07-17T13:58:34Z</time>
      </trkpt>
      <trkpt lat="47.80658" lon="-3.46631">
        <ele>47</ele>
        <time>2019-07-17T13:58:35Z</time>
      </trkpt>
      <trkpt lat="47.8066" lon="-3.46621">
        <ele>46</ele>
        <time>2019-07-17T13:58:36Z</time>
      </trkpt>
      <trkpt lat="47.80663" lon="-3.46611">
        <ele>46</ele>
        <time>2019-07-17T13:58:37Z</time>
      </trkpt>
      <trkpt lat="47.80665" lon="-3.46601">
        <ele>46</ele>
        <time>2019-07-17T13:58:38Z</time>
      </trkpt>
      <trkpt lat="47.80667" lon="-3.4659">
        <ele>46</ele>
        <time>2019-07-17T13:58:39Z</time>
      </trkpt>
      <trkpt lat="47.80669" lon="-3.46579">
        <ele>46</ele>
        <time>2019-07-17T13:58:40Z</time>
      </trkpt>
      <trkpt lat="47.80671" lon="-3.46567">
        <ele>45</ele>
        <time>2019-07-17T13:58:41Z</time>
      </trkpt>
      <trkpt lat="47.80672" lon="-3.46556">
        <ele>45</ele>
        <time>2019-07-17T13:58:42Z</time>
      </trkpt>
      <trkpt lat="47.80674" lon="-3.46544">
        <ele>45</ele>
        <time>2019-07-17T13:58:43Z</time>
      </trkpt>
      <trkpt lat="47.80674" lon="-3.46531">
        <ele>44</ele>
        <time>2019-07-17T13:58:44Z</time>
      </trkpt>
      <trkpt lat="47.80675" lon="-3.46518">
        <ele>44</ele>
        <time>2019-07-17T13:58:45Z</time>
      </trkpt>
      <trkpt lat="47.80674" lon="-3.46505">
        <ele>43</ele>
        <time>2019-07-17T13:58:46Z</time>
      </trkpt>
      <trkpt lat="47.80673" lon="-3.46492">
        <ele>43</ele>
        <time>2019-07-17T13:58:47Z</time>
      </trkpt>
      <trkpt lat="47.8067" lon="-3.46481">
        <ele>43</ele>
        <time>2019-07-17T13:58:48Z</time>
      </trkpt>
      <trkpt lat="47.80665" lon="-3.46471">
        <ele>43</ele>
        <time>2019-07-17T13:58:49Z</time>
      </trkpt>
      <trkpt lat="47.80661" lon="-3.4646">
        <ele>43</ele>
        <time>2019-07-17T13:58:50Z</time>
      </trkpt>
      <trkpt lat="47.80658" lon="-3.46449">
        <ele>42</ele>
        <time>2019-07-17T13:58:51Z</time>
      </trkpt>
      <trkpt lat="47.80657" lon="-3.46436">
        <ele>42</ele>
        <time>2019-07-17T13:58:52Z</time>
      </trkpt>
      <trkpt lat="47.80658" lon="-3.46425">
        <ele>42</ele>
        <time>2019-07-17T13:58:53Z</time>
      </trkpt>
      <trkpt lat="47.80661" lon="-3.46413">
        <ele>42</ele>
        <time>2019-07-17T13:58:54Z</time>
      </trkpt>
      <trkpt lat="47.80664" lon="-3.46403">
        <ele>41</ele>
        <time>2019-07-17T13:58:55Z</time>
      </trkpt>
      <trkpt lat="47.80668" lon="-3.46392">
        <ele>41</ele>
        <time>2019-07-17T13:58:56Z</time>
      </trkpt>
      <trkpt lat="47.80669" lon="-3.4638">
        <ele>41</ele>
        <time>2019-07-17T13:58:57Z</time>
      </trkpt>
      <trkpt lat="47.8067" lon="-3.46369">
        <ele>41</ele>
        <time>2019-07-17T13:58:58Z</time>
      </trkpt>
      <trkpt lat="47.80669" lon="-3.46357">
        <ele>41</ele>
        <time>2019-07-17T13:58:59Z</time>
      </trkpt>
      <trkpt lat="47.80669" lon="-3.46346">
        <ele>41</ele>
        <time>2019-07-17T13:59:00Z</time>
      </trkpt>
      <trkpt lat="47.80669" lon="-3.46336">
        <ele>41</ele>
        <time>2019-07-17T13:59:01Z</time>
      </trkpt>
      <trkpt lat="47.80668" lon="-3.46325">
        <ele>41</ele>
        <time>2019-07-17T13:59:02Z</time>
      </trkpt>
      <trkpt lat="47.80668" lon="-3.46315">
        <ele>41</ele>
        <time>2019-07-17T13:59:03Z</time>
      </trkpt>
      <trkpt lat="47.80668" lon="-3.46305">
        <ele>41</ele>
        <time>2019-07-17T13:59:04Z</time>
      </trkpt>
      <trkpt lat="47.80668" lon="-3.46296">
        <ele>41</ele>
        <time>2019-07-17T13:59:05Z</time>
      </trkpt>
      <trkpt lat="47.80668" lon="-3.46286">
        <ele>42</ele>
        <time>2019-07-17T13:59:06Z</time>
      </trkpt>
      <trkpt lat="47.80668" lon="-3.46277">
        <ele>42</ele>
        <time>2019-07-17T13:59:07Z</time>
      </trkpt>
      <trkpt lat="47.80667" lon="-3.46267">
        <ele>42</ele>
        <time>2019-07-17T13:59:08Z</time>
      </trkpt>
      <trkpt lat="47.80667" lon="-3.46257">
        <ele>42</ele>
        <time>2019-07-17T13:59:09Z</time>
      </trkpt>
      <trkpt lat="47.80666" lon="-3.46248">
        <ele>42</ele>
        <time>2019-07-17T13:59:10Z</time>
      </trkpt>
      <trkpt lat="47.80665" lon="-3.46238">
        <ele>42</ele>
        <time>2019-07-17T13:59:11Z</time>
      </trkpt>
      <trkpt lat="47.80664" lon="-3.46229">
        <ele>42</ele>
        <time>2019-07-17T13:59:12Z</time>
      </trkpt>
      <trkpt lat="47.80663" lon="-3.46219">
        <ele>42</ele>
        <time>2019-07-17T13:59:13Z</time>
      </trkpt>
      <trkpt lat="47.80662" lon="-3.46209">
        <ele>43</ele>
        <time>2019-07-17T13:59:14Z</time>
      </trkpt>
      <trkpt lat="47.80661" lon="-3.462">
        <ele>43</ele>
        <time>2019-07-17T13:59:15Z</time>
      </trkpt>
      <trkpt lat="47.8066" lon="-3.46191">
        <ele>43</ele>
        <time>2019-07-17T13:59:16Z</time>
      </trkpt>
      <trkpt lat="47.80659" lon="-3.46181">
        <ele>43</ele>
        <time>2019-07-17T13:59:17Z</time>
      </trkpt>
      <trkpt lat="47.80658" lon="-3.46172">
        <ele>43</ele>
        <time>2019-07-17T13:59:18Z</time>
      </trkpt>
      <trkpt lat="47.80656" lon="-3.46163">
        <ele>43</ele>
        <time>2019-07-17T13:59:19Z</time>
      </trkpt>
      <trkpt lat="47.80654" lon="-3.46153">
        <ele>43</ele>
        <time>2019-07-17T13:59:20Z</time>
      </trkpt>
      <trkpt lat="47.80653" lon="-3.46144">
        <ele>43</ele>
        <time>2019-07-17T13:59:21Z</time>
      </trkpt>
      <trkpt lat="47.80651" lon="-3.46135">
        <ele>43</ele>
        <time>2019-07-17T13:59:22Z</time>
      </trkpt>
      <trkpt lat="47.8065" lon="-3.46126">
        <ele>43</ele>
        <time>2019-07-17T13:59:23Z</time>
      </trkpt>
      <trkpt lat="47.80648" lon="-3.46116">
        <ele>44</ele>
        <time>2019-07-17T13:59:24Z</time>
      </trkpt>
      <trkpt lat="47.80647" lon="-3.46107">
        <ele>44</ele>
        <time>2019-07-17T13:59:25Z</time>
      </trkpt>
      <trkpt lat="47.80645" lon="-3.46098">
        <ele>44</ele>
        <time>2019-07-17T13:59:26Z</time>
      </trkpt>
      <trkpt lat="47.80643" lon="-3.46088">
        <ele>44</ele>
        <time>2019-07-17T13:59:27Z</time>
      </trkpt>
      <trkpt lat="47.80642" lon="-3.46079">
        <ele>43</ele>
        <time>2019-07-17T13:59:28Z</time>
      </trkpt>
      <trkpt lat="47.8064" lon="-3.4607">
        <ele>43</ele>
        <time>2019-07-17T13:59:29Z</time>
      </trkpt>
      <trkpt lat="47.80638" lon="-3.46061">
        <ele>44</ele>
        <time>2019-07-17T13:59:30Z</time>
      </trkpt>
      <trkpt lat="47.80637" lon="-3.46051">
        <ele>44</ele>
        <time>2019-07-17T13:59:31Z</time>
      </trkpt>
      <trkpt lat="47.80635" lon="-3.46042">
        <ele>44</ele>
        <time>2019-07-17T13:59:32Z</time>
      </trkpt>
      <trkpt lat="47.80634" lon="-3.46033">
        <ele>44</ele>
        <time>2019-07-17T13:59:33Z</time>
      </trkpt>
      <trkpt lat="47.80632" lon="-3.46024">
        <ele>44</ele>
        <time>2019-07-17T13:59:34Z</time>
      </trkpt>
      <trkpt lat="47.80631" lon="-3.46015">
        <ele>44</ele>
        <time>2019-07-17T13:59:35Z</time>
      </trkpt>
      <trkpt lat="47.80629" lon="-3.46006">
        <ele>44</ele>
        <time>2019-07-17T13:59:36Z</time>
      </trkpt>
      <trkpt lat="47.80627" lon="-3.45997">
        <ele>44</ele>
        <time>2019-07-17T13:59:37Z</time>
      </trkpt>
      <trkpt lat="47.80625" lon="-3.45987">
        <ele>44</ele>
        <time>2019-07-17T13:59:38Z</time>
      </trkpt>
      <trkpt lat="47.80624" lon="-3.45978">
        <ele>44</ele>
        <time>2019-07-17T13:59:39Z</time>
      </trkpt>
      <trkpt lat="47.80622" lon="-3.45968">
        <ele>44</ele>
        <time>2019-07-17T13:59:40Z</time>
      </trkpt>
      <trkpt lat="47.8062" lon="-3.45959">
        <ele>43</ele>
        <time>2019-07-17T13:59:41Z</time>
      </trkpt>
      <trkpt lat="47.80618" lon="-3.45949">
        <ele>43</ele>
        <time>2019-07-17T13:59:42Z</time>
      </trkpt>
      <trkpt lat="47.80617" lon="-3.4594">
        <ele>43</ele>
        <time>2019-07-17T13:59:43Z</time>
      </trkpt>
      <trkpt lat="47.80615" lon="-3.45931">
        <ele>43</ele>
        <time>2019-07-17T13:59:44Z</time>
      </trkpt>
      <trkpt lat="47.80613" lon="-3.45922">
        <ele>43</ele>
        <time>2019-07-17T13:59:45Z</time>
      </trkpt>
      <trkpt lat="47.80612" lon="-3.45914">
        <ele>43</ele>
        <time>2019-07-17T13:59:46Z</time>
      </trkpt>
      <trkpt lat="47.8061" lon="-3.45906">
        <ele>43</ele>
        <time>2019-07-17T13:59:47Z</time>
      </trkpt>
      <trkpt lat="47.80608" lon="-3.45897">
        <ele>43</ele>
        <time>2019-07-17T13:59:48Z</time>
      </trkpt>
      <trkpt lat="47.80606" lon="-3.45889">
        <ele>43</ele>
        <time>2019-07-17T13:59:49Z</time>
      </trkpt>
      <trkpt lat="47.80605" lon="-3.4588">
        <ele>43</ele>
        <time>2019-07-17T13:59:50Z</time>
      </trkpt>
      <trkpt lat="47.80603" lon="-3.45872">
        <ele>43</ele>
        <time>2019-07-17T13:59:51Z</time>
      </trkpt>
      <trkpt lat="47.80602" lon="-3.45863">
        <ele>43</ele>
        <time>2019-07-17T13:59:52Z</time>
      </trkpt>
      <trkpt lat="47.80601" lon="-3.45854">
        <ele>43</ele>
        <time>2019-07-17T13:59:53Z</time>
      </trkpt>
      <trkpt lat="47.80599" lon="-3.45844">
        <ele>43</ele>
        <time>2019-07-17T13:59:54Z</time>
      </trkpt>
      <trkpt lat="47.80598" lon="-3.45835">
        <ele>43</ele>
        <time>2019-07-17T13:59:55Z</time>
      </trkpt>
      <trkpt lat="47.80596" lon="-3.45826">
        <ele>43</ele>
        <time>2019-07-17T13:59:56Z</time>
      </trkpt>
      <trkpt lat="47.80594" lon="-3.45818">
        <ele>43</ele>
        <time>2019-07-17T13:59:57Z</time>
      </trkpt>
      <trkpt lat="47.80592" lon="-3.45809">
        <ele>43</ele>
        <time>2019-07-17T13:59:58Z</time>
      </trkpt>
      <trkpt lat="47.80591" lon="-3.45801">
        <ele>43</ele>
        <time>2019-07-17T13:59:59Z</time>
      </trkpt>
      <trkpt lat="47.80589" lon="-3.45792">
        <ele>42</ele>
        <time>2019-07-17T14:00:00Z</time>
      </trkpt>
      <trkpt lat="47.80588" lon="-3.45784">
        <ele>42</ele>
        <time>2019-07-17T14:00:01Z</time>
      </trkpt>
      <trkpt lat="47.80586" lon="-3.45775">
        <ele>42</ele>
        <time>2019-07-17T14:00:02Z</time>
      </trkpt>
      <trkpt lat="47.80584" lon="-3.45766">
        <ele>42</ele>
        <time>2019-07-17T14:00:03Z</time>
      </trkpt>
      <trkpt lat="47.80582" lon="-3.45757">
        <ele>42</ele>
        <time>2019-07-17T14:00:04Z</time>
      </trkpt>
      <trkpt lat="47.8058" lon="-3.45747">
        <ele>42</ele>
        <time>2019-07-17T14:00:05Z</time>
      </trkpt>
      <trkpt lat="47.80579" lon="-3.45738">
        <ele>42</ele>
        <time>2019-07-17T14:00:06Z</time>
      </trkpt>
      <trkpt lat="47.80577" lon="-3.45728">
        <ele>42</ele>
        <time>2019-07-17T14:00:07Z</time>
      </trkpt>
      <trkpt lat="47.80575" lon="-3.45718">
        <ele>42</ele>
        <time>2019-07-17T14:00:08Z</time>
      </trkpt>
      <trkpt lat="47.80573" lon="-3.45708">
        <ele>42</ele>
        <time>2019-07-17T14:00:09Z</time>
      </trkpt>
      <trkpt lat="47.80572" lon="-3.45698">
        <ele>42</ele>
        <time>2019-07-17T14:00:10Z</time>
      </trkpt>
      <trkpt lat="47.8057" lon="-3.45688">
        <ele>42</ele>
        <time>2019-07-17T14:00:11Z</time>
      </trkpt>
      <trkpt lat="47.80568" lon="-3.45677">
        <ele>42</ele>
        <time>2019-07-17T14:00:12Z</time>
      </trkpt>
      <trkpt lat="47.80566" lon="-3.45667">
        <ele>42</ele>
        <time>2019-07-17T14:00:13Z</time>
      </trkpt>
      <trkpt lat="47.80565" lon="-3.45657">
        <ele>42</ele>
        <time>2019-07-17T14:00:14Z</time>
      </trkpt>
      <trkpt lat="47.80563" lon="-3.45646">
        <ele>42</ele>
        <time>2019-07-17T14:00:15Z</time>
      </trkpt>
      <trkpt lat="47.80561" lon="-3.45636">
        <ele>42</ele>
        <time>2019-07-17T14:00:16Z</time>
      </trkpt>
      <trkpt lat="47.80559" lon="-3.45625">
        <ele>42</ele>
        <time>2019-07-17T14:00:17Z</time>
      </trkpt>
      <trkpt lat="47.80558" lon="-3.45614">
        <ele>42</ele>
        <time>2019-07-17T14:00:18Z</time>
      </trkpt>
      <trkpt lat="47.80556" lon="-3.45603">
        <ele>42</ele>
        <time>2019-07-17T14:00:19Z</time>
      </trkpt>
      <trkpt lat="47.80555" lon="-3.45592">
        <ele>42</ele>
        <time>2019-07-17T14:00:20Z</time>
      </trkpt>
      <trkpt lat="47.80553" lon="-3.45582">
        <ele>42</ele>
        <time>2019-07-17T14:00:21Z</time>
      </trkpt>
      <trkpt lat="47.80552" lon="-3.45571">
        <ele>42</ele>
        <time>2019-07-17T14:00:22Z</time>
      </trkpt>
      <trkpt lat="47.80551" lon="-3.4556">
        <ele>42</ele>
        <time>2019-07-17T14:00:23Z</time>
      </trkpt>
      <trkpt lat="47.8055" lon="-3.45549">
        <ele>42</ele>
        <time>2019-07-17T14:00:24Z</time>
      </trkpt>
      <trkpt lat="47.80549" lon="-3.45538">
        <ele>42</ele>
        <time>2019-07-17T14:00:25Z</time>
      </trkpt>
      <trkpt lat="47.80547" lon="-3.45527">
        <ele>42</ele>
        <time>2019-07-17T14:00:26Z</time>
      </trkpt>
      <trkpt lat="47.80546" lon="-3.45516">
        <ele>42</ele>
        <time>2019-07-17T14:00:27Z</time>
      </trkpt>
      <trkpt lat="47.80545" lon="-3.45506">
        <ele>42</ele>
        <time>2019-07-17T14:00:28Z</time>
      </trkpt>
      <trkpt lat="47.80544" lon="-3.45495">
        <ele>42</ele>
        <time>2019-07-17T14:00:29Z</time>
      </trkpt>
      <trkpt lat="47.80543" lon="-3.45485">
        <ele>42</ele>
        <time>2019-07-17T14:00:30Z</time>
      </trkpt>
      <trkpt lat="47.80542" lon="-3.45474">
        <ele>41</ele>
        <time>2019-07-17T14:00:31Z</time>
      </trkpt>
      <trkpt lat="47.80541" lon="-3.45464">
        <ele>41</ele>
        <time>2019-07-17T14:00:32Z</time>
      </trkpt>
      <trkpt lat="47.8054" lon="-3.45454">
        <ele>41</ele>
        <time>2019-07-17T14:00:33Z</time>
      </trkpt>
      <trkpt lat="47.80539" lon="-3.45444">
        <ele>41</ele>
        <time>2019-07-17T14:00:34Z</time>
      </trkpt>
      <trkpt lat="47.80537" lon="-3.45434">
        <ele>41</ele>
        <time>2019-07-17T14:00:35Z</time>
      </trkpt>
      <trkpt lat="47.80536" lon="-3.45424">
        <ele>41</ele>
        <time>2019-07-17T14:00:36Z</time>
      </trkpt>
      <trkpt lat="47.80535" lon="-3.45414">
        <ele>41</ele>
        <time>2019-07-17T14:00:37Z</time>
      </trkpt>
      <trkpt lat="47.80533" lon="-3.45405">
        <ele>41</ele>
        <time>2019-07-17T14:00:38Z</time>
      </trkpt>
      <trkpt lat="47.80532" lon="-3.45395">
        <ele>41</ele>
        <time>2019-07-17T14:00:39Z</time>
      </trkpt>
      <trkpt lat="47.80531" lon="-3.45384">
        <ele>41</ele>
        <time>2019-07-17T14:00:40Z</time>
      </trkpt>
      <trkpt lat="47.80529" lon="-3.45373">
        <ele>40</ele>
        <time>2019-07-17T14:00:41Z</time>
      </trkpt>
      <trkpt lat="47.80528" lon="-3.45362">
        <ele>40</ele>
        <time>2019-07-17T14:00:42Z</time>
      </trkpt>
      <trkpt lat="47.80526" lon="-3.45351">
        <ele>40</ele>
        <time>2019-07-17T14:00:43Z</time>
      </trkpt>
      <trkpt lat="47.80524" lon="-3.4534">
        <ele>40</ele>
        <time>2019-07-17T14:00:44Z</time>
      </trkpt>
      <trkpt lat="47.80522" lon="-3.45329">
        <ele>40</ele>
        <time>2019-07-17T14:00:45Z</time>
      </trkpt>
      <trkpt lat="47.8052" lon="-3.45318">
        <ele>39</ele>
        <time>2019-07-17T14:00:46Z</time>
      </trkpt>
      <trkpt lat="47.80518" lon="-3.45307">
        <ele>39</ele>
        <time>2019-07-17T14:00:47Z</time>
      </trkpt>
      <trkpt lat="47.80517" lon="-3.45296">
        <ele>39</ele>
        <time>2019-07-17T14:00:48Z</time>
      </trkpt>
      <trkpt lat="47.80514" lon="-3.45286">
        <ele>39</ele>
        <time>2019-07-17T14:00:49Z</time>
      </trkpt>
      <trkpt lat="47.80512" lon="-3.45275">
        <ele>39</ele>
        <time>2019-07-17T14:00:50Z</time>
      </trkpt>
      <trkpt lat="47.80509" lon="-3.45264">
        <ele>39</ele>
        <time>2019-07-17T14:00:51Z</time>
      </trkpt>
      <trkpt lat="47.80506" lon="-3.45254">
        <ele>38</ele>
        <time>2019-07-17T14:00:52Z</time>
      </trkpt>
      <trkpt lat="47.80503" lon="-3.45244">
        <ele>38</ele>
        <time>2019-07-17T14:00:53Z</time>
      </trkpt>
      <trkpt lat="47.805" lon="-3.45234">
        <ele>38</ele>
        <time>2019-07-17T14:00:54Z</time>
      </trkpt>
      <trkpt lat="47.80496" lon="-3.45224">
        <ele>38</ele>
        <time>2019-07-17T14:00:55Z</time>
      </trkpt>
      <trkpt lat="47.80493" lon="-3.45215">
        <ele>38</ele>
        <time>2019-07-17T14:00:56Z</time>
      </trkpt>
      <trkpt lat="47.8049" lon="-3.45206">
        <ele>38</ele>
        <time>2019-07-17T14:00:57Z</time>
      </trkpt>
      <trkpt lat="47.80488" lon="-3.45196">
        <ele>38</ele>
        <time>2019-07-17T14:00:58Z</time>
      </trkpt>
      <trkpt lat="47.80486" lon="-3.45186">
        <ele>38</ele>
        <time>2019-07-17T14:00:59Z</time>
      </trkpt>
      <trkpt lat="47.80483" lon="-3.45176">
        <ele>38</ele>
        <time>2019-07-17T14:01:00Z</time>
      </trkpt>
      <trkpt lat="47.80481" lon="-3.45166">
        <ele>38</ele>
        <time>2019-07-17T14:01:01Z</time>
      </trkpt>
      <trkpt lat="47.80478" lon="-3.45156">
        <ele>37</ele>
        <time>2019-07-17T14:01:02Z</time>
      </trkpt>
      <trkpt lat="47.80475" lon="-3.45145">
        <ele>37</ele>
        <time>2019-07-17T14:01:03Z</time>
      </trkpt>
      <trkpt lat="47.80473" lon="-3.45135">
        <ele>37</ele>
        <time>2019-07-17T14:01:04Z</time>
      </trkpt>
      <trkpt lat="47.8047" lon="-3.45124">
        <ele>37</ele>
        <time>2019-07-17T14:01:05Z</time>
      </trkpt>
      <trkpt lat="47.80467" lon="-3.45113">
        <ele>37</ele>
        <time>2019-07-17T14:01:06Z</time>
      </trkpt>
      <trkpt lat="47.80464" lon="-3.45103">
        <ele>37</ele>
        <time>2019-07-17T14:01:07Z</time>
      </trkpt>
      <trkpt lat="47.80462" lon="-3.45092">
        <ele>37</ele>
        <time>2019-07-17T14:01:08Z</time>
      </trkpt>
      <trkpt lat="47.80459" lon="-3.45081">
        <ele>37</ele>
        <time>2019-07-17T14:01:09Z</time>
      </trkpt>
      <trkpt lat="47.80456" lon="-3.45071">
        <ele>37</ele>
        <time>2019-07-17T14:01:10Z</time>
      </trkpt>
      <trkpt lat="47.80453" lon="-3.4506">
        <ele>37</ele>
        <time>2019-07-17T14:01:11Z</time>
      </trkpt>
      <trkpt lat="47.80451" lon="-3.45049">
        <ele>36</ele>
        <time>2019-07-17T14:01:12Z</time>
      </trkpt>
      <trkpt lat="47.80448" lon="-3.45038">
        <ele>36</ele>
        <time>2019-07-17T14:01:13Z</time>
      </trkpt>
      <trkpt lat="47.80446" lon="-3.45027">
        <ele>36</ele>
        <time>2019-07-17T14:01:14Z</time>
      </trkpt>
      <trkpt lat="47.80444" lon="-3.45016">
        <ele>36</ele>
        <time>2019-07-17T14:01:15Z</time>
      </trkpt>
      <trkpt lat="47.80442" lon="-3.45004">
        <ele>36</ele>
        <time>2019-07-17T14:01:16Z</time>
      </trkpt>
      <trkpt lat="47.8044" lon="-3.44993">
        <ele>36</ele>
        <time>2019-07-17T14:01:17Z</time>
      </trkpt>
      <trkpt lat="47.80438" lon="-3.44981">
        <ele>36</ele>
        <time>2019-07-17T14:01:18Z</time>
      </trkpt>
      <trkpt lat="47.80437" lon="-3.44969">
        <ele>36</ele>
        <time>2019-07-17T14:01:19Z</time>
      </trkpt>
      <trkpt lat="47.80435" lon="-3.44958">
        <ele>36</ele>
        <time>2019-07-17T14:01:20Z</time>
      </trkpt>
      <trkpt lat="47.80434" lon="-3.44946">
        <ele>36</ele>
        <time>2019-07-17T14:01:21Z</time>
      </trkpt>
      <trkpt lat="47.80432" lon="-3.44935">
        <ele>36</ele>
        <time>2019-07-17T14:01:22Z</time>
      </trkpt>
      <trkpt lat="47.80431" lon="-3.44923">
        <ele>36</ele>
        <time>2019-07-17T14:01:23Z</time>
      </trkpt>
      <trkpt lat="47.8043" lon="-3.44912">
        <ele>36</ele>
        <time>2019-07-17T14:01:24Z</time>
      </trkpt>
      <trkpt lat="47.80429" lon="-3.44901">
        <ele>35</ele>
        <time>2019-07-17T14:01:25Z</time>
      </trkpt>
      <trkpt lat="47.80428" lon="-3.44889">
        <ele>36</ele>
        <time>2019-07-17T14:01:26Z</time>
      </trkpt>
      <trkpt lat="47.80427" lon="-3.44878">
        <ele>36</ele>
        <time>2019-07-17T14:01:27Z</time>
      </trkpt>
      <trkpt lat="47.80427" lon="-3.44867">
        <ele>36</ele>
        <time>2019-07-17T14:01:28Z</time>
      </trkpt>
      <trkpt lat="47.80426" lon="-3.44856">
        <ele>36</ele>
        <time>2019-07-17T14:01:29Z</time>
      </trkpt>
      <trkpt lat="47.80425" lon="-3.44845">
        <ele>36</ele>
        <time>2019-07-17T14:01:30Z</time>
      </trkpt>
      <trkpt lat="47.80424" lon="-3.44835">
        <ele>36</ele>
        <time>2019-07-17T14:01:31Z</time>
      </trkpt>
      <trkpt lat="47.80423" lon="-3.44824">
        <ele>37</ele>
        <time>2019-07-17T14:01:32Z</time>
      </trkpt>
      <trkpt lat="47.80422" lon="-3.44814">
        <ele>37</ele>
        <time>2019-07-17T14:01:33Z</time>
      </trkpt>
      <trkpt lat="47.80421" lon="-3.44804">
        <ele>37</ele>
        <time>2019-07-17T14:01:34Z</time>
      </trkpt>
      <trkpt lat="47.8042" lon="-3.44794">
        <ele>37</ele>
        <time>2019-07-17T14:01:35Z</time>
      </trkpt>
      <trkpt lat="47.80419" lon="-3.44785">
        <ele>38</ele>
        <time>2019-07-17T14:01:36Z</time>
      </trkpt>
      <trkpt lat="47.80419" lon="-3.44776">
        <ele>38</ele>
        <time>2019-07-17T14:01:37Z</time>
      </trkpt>
      <trkpt lat="47.80418" lon="-3.44767">
        <ele>38</ele>
        <time>2019-07-17T14:01:38Z</time>
      </trkpt>
      <trkpt lat="47.80418" lon="-3.44758">
        <ele>38</ele>
        <time>2019-07-17T14:01:39Z</time>
      </trkpt>
      <trkpt lat="47.80417" lon="-3.44749">
        <ele>39</ele>
        <time>2019-07-17T14:01:40Z</time>
      </trkpt>
      <trkpt lat="47.80416" lon="-3.44739">
        <ele>39</ele>
        <time>2019-07-17T14:01:41Z</time>
      </trkpt>
      <trkpt lat="47.80415" lon="-3.44731">
        <ele>39</ele>
        <time>2019-07-17T14:01:42Z</time>
      </trkpt>
      <trkpt lat="47.80414" lon="-3.44722">
        <ele>39</ele>
        <time>2019-07-17T14:01:43Z</time>
      </trkpt>
      <trkpt lat="47.80413" lon="-3.44713">
        <ele>40</ele>
        <time>2019-07-17T14:01:44Z</time>
      </trkpt>
      <trkpt lat="47.80413" lon="-3.44704">
        <ele>40</ele>
        <time>2019-07-17T14:01:45Z</time>
      </trkpt>
      <trkpt lat="47.80412" lon="-3.44696">
        <ele>40</ele>
        <time>2019-07-17T14:01:46Z</time>
      </trkpt>
      <trkpt lat="47.80412" lon="-3.44688">
        <ele>41</ele>
        <time>2019-07-17T14:01:47Z</time>
      </trkpt>
      <trkpt lat="47.80411" lon="-3.44679">
        <ele>41</ele>
        <time>2019-07-17T14:01:48Z</time>
      </trkpt>
      <trkpt lat="47.80411" lon="-3.44671">
        <ele>41</ele>
        <time>2019-07-17T14:01:49Z</time>
      </trkpt>
      <trkpt lat="47.8041" lon="-3.44662">
        <ele>41</ele>
        <time>2019-07-17T14:01:50Z</time>
      </trkpt>
      <trkpt lat="47.80409" lon="-3.44654">
        <ele>41</ele>
        <time>2019-07-17T14:01:51Z</time>
      </trkpt>
      <trkpt lat="47.80408" lon="-3.44646">
        <ele>42</ele>
        <time>2019-07-17T14:01:52Z</time>
      </trkpt>
      <trkpt lat="47.80408" lon="-3.44637">
        <ele>42</ele>
        <time>2019-07-17T14:01:53Z</time>
      </trkpt>
      <trkpt lat="47.80407" lon="-3.44629">
        <ele>42</ele>
        <time>2019-07-17T14:01:54Z</time>
      </trkpt>
      <trkpt lat="47.80406" lon="-3.44621">
        <ele>42</ele>
        <time>2019-07-17T14:01:55Z</time>
      </trkpt>
      <trkpt lat="47.80406" lon="-3.44612">
        <ele>42</ele>
        <time>2019-07-17T14:01:56Z</time>
      </trkpt>
      <trkpt lat="47.80405" lon="-3.44604">
        <ele>42</ele>
        <time>2019-07-17T14:01:57Z</time>
      </trkpt>
      <trkpt lat="47.80404" lon="-3.44595">
        <ele>42</ele>
        <time>2019-07-17T14:01:58Z</time>
      </trkpt>
      <trkpt lat="47.80404" lon="-3.44587">
        <ele>43</ele>
        <time>2019-07-17T14:01:59Z</time>
      </trkpt>
      <trkpt lat="47.80403" lon="-3.44578">
        <ele>43</ele>
        <time>2019-07-17T14:02:00Z</time>
      </trkpt>
      <trkpt lat="47.80402" lon="-3.4457">
        <ele>43</ele>
        <time>2019-07-17T14:02:01Z</time>
      </trkpt>
      <trkpt lat="47.80401" lon="-3.44561">
        <ele>43</ele>
        <time>2019-07-17T14:02:02Z</time>
      </trkpt>
      <trkpt lat="47.80401" lon="-3.44552">
        <ele>43</ele>
        <time>2019-07-17T14:02:03Z</time>
      </trkpt>
      <trkpt lat="47.804" lon="-3.44544">
        <ele>43</ele>
        <time>2019-07-17T14:02:04Z</time>
      </trkpt>
      <trkpt lat="47.80399" lon="-3.44536">
        <ele>43</ele>
        <time>2019-07-17T14:02:05Z</time>
      </trkpt>
      <trkpt lat="47.80398" lon="-3.44527">
        <ele>43</ele>
        <time>2019-07-17T14:02:06Z</time>
      </trkpt>
      <trkpt lat="47.80397" lon="-3.44519">
        <ele>43</ele>
        <time>2019-07-17T14:02:07Z</time>
      </trkpt>
      <trkpt lat="47.80396" lon="-3.44511">
        <ele>43</ele>
        <time>2019-07-17T14:02:08Z</time>
      </trkpt>
      <trkpt lat="47.80395" lon="-3.44502">
        <ele>43</ele>
        <time>2019-07-17T14:02:09Z</time>
      </trkpt>
      <trkpt lat="47.80393" lon="-3.44494">
        <ele>43</ele>
        <time>2019-07-17T14:02:10Z</time>
      </trkpt>
      <trkpt lat="47.80392" lon="-3.44486">
        <ele>43</ele>
        <time>2019-07-17T14:02:11Z</time>
      </trkpt>
      <trkpt lat="47.80391" lon="-3.44478">
        <ele>43</ele>
        <time>2019-07-17T14:02:12Z</time>
      </trkpt>
      <trkpt lat="47.80389" lon="-3.4447">
        <ele>43</ele>
        <time>2019-07-17T14:02:13Z</time>
      </trkpt>
      <trkpt lat="47.80387" lon="-3.44462">
        <ele>43</ele>
        <time>2019-07-17T14:02:14Z</time>
      </trkpt>
      <trkpt lat="47.80385" lon="-3.44453">
        <ele>43</ele>
        <time>2019-07-17T14:02:15Z</time>
      </trkpt>
      <trkpt lat="47.80382" lon="-3.44445">
        <ele>43</ele>
        <time>2019-07-17T14:02:16Z</time>
      </trkpt>
      <trkpt lat="47.80381" lon="-3.44437">
        <ele>43</ele>
        <time>2019-07-17T14:02:17Z</time>
      </trkpt>
      <trkpt lat="47.80379" lon="-3.44428">
        <ele>43</ele>
        <time>2019-07-17T14:02:18Z</time>
      </trkpt>
      <trkpt lat="47.80377" lon="-3.4442">
        <ele>43</ele>
        <time>2019-07-17T14:02:19Z</time>
      </trkpt>
      <trkpt lat="47.80375" lon="-3.44412">
        <ele>43</ele>
        <time>2019-07-17T14:02:20Z</time>
      </trkpt>
      <trkpt lat="47.80373" lon="-3.44404">
        <ele>43</ele>
        <time>2019-07-17T14:02:21Z</time>
      </trkpt>
      <trkpt lat="47.80371" lon="-3.44396">
        <ele>42</ele>
        <time>2019-07-17T14:02:22Z</time>
      </trkpt>
      <trkpt lat="47.80369" lon="-3.44388">
        <ele>42</ele>
        <time>2019-07-17T14:02:23Z</time>
      </trkpt>
      <trkpt lat="47.80367" lon="-3.4438">
        <ele>42</ele>
        <time>2019-07-17T14:02:24Z</time>
      </trkpt>
      <trkpt lat="47.80366" lon="-3.44371">
        <ele>42</ele>
        <time>2019-07-17T14:02:25Z</time>
      </trkpt>
      <trkpt lat="47.80366" lon="-3.44363">
        <ele>42</ele>
        <time>2019-07-17T14:02:26Z</time>
      </trkpt>
      <trkpt lat="47.80367" lon="-3.44354">
        <ele>42</ele>
        <time>2019-07-17T14:02:27Z</time>
      </trkpt>
      <trkpt lat="47.80368" lon="-3.44345">
        <ele>42</ele>
        <time>2019-07-17T14:02:28Z</time>
      </trkpt>
      <trkpt lat="47.80369" lon="-3.44337">
        <ele>42</ele>
        <time>2019-07-17T14:02:29Z</time>
      </trkpt>
      <trkpt lat="47.80371" lon="-3.44329">
        <ele>42</ele>
        <time>2019-07-17T14:02:30Z</time>
      </trkpt>
      <trkpt lat="47.80372" lon="-3.44321">
        <ele>42</ele>
        <time>2019-07-17T14:02:31Z</time>
      </trkpt>
      <trkpt lat="47.80373" lon="-3.44313">
        <ele>42</ele>
        <time>2019-07-17T14:02:32Z</time>
      </trkpt>
      <trkpt lat="47.80373" lon="-3.44305">
        <ele>42</ele>
        <time>2019-07-17T14:02:33Z</time>
      </trkpt>
      <trkpt lat="47.80371" lon="-3.44297">
        <ele>42</ele>
        <time>2019-07-17T14:02:34Z</time>
      </trkpt>
      <trkpt lat="47.80368" lon="-3.44291">
        <ele>42</ele>
        <time>2019-07-17T14:02:35Z</time>
      </trkpt>
      <trkpt lat="47.80364" lon="-3.44285">
        <ele>42</ele>
        <time>2019-07-17T14:02:36Z</time>
      </trkpt>
      <trkpt lat="47.80359" lon="-3.4428">
        <ele>42</ele>
        <time>2019-07-17T14:02:37Z</time>
      </trkpt>
      <trkpt lat="47.80354" lon="-3.44276">
        <ele>42</ele>
        <time>2019-07-17T14:02:38Z</time>
      </trkpt>
      <trkpt lat="47.80348" lon="-3.44273">
        <ele>42</ele>
        <time>2019-07-17T14:02:39Z</time>
      </trkpt>
      <trkpt lat="47.80342" lon="-3.44271">
        <ele>42</ele>
        <time>2019-07-17T14:02:40Z</time>
      </trkpt>
      <trkpt lat="47.80336" lon="-3.44268">
        <ele>42</ele>
        <time>2019-07-17T14:02:41Z</time>
      </trkpt>
      <trkpt lat="47.80329" lon="-3.44265">
        <ele>41</ele>
        <time>2019-07-17T14:02:42Z</time>
      </trkpt>
      <trkpt lat="47.80323" lon="-3.44262">
        <ele>41</ele>
        <time>2019-07-17T14:02:43Z</time>
      </trkpt>
      <trkpt lat="47.80317" lon="-3.44259">
        <ele>41</ele>
        <time>2019-07-17T14:02:44Z</time>
      </trkpt>
      <trkpt lat="47.8031" lon="-3.44256">
        <ele>41</ele>
        <time>2019-07-17T14:02:45Z</time>
      </trkpt>
      <trkpt lat="47.80304" lon="-3.44254">
        <ele>41</ele>
        <time>2019-07-17T14:02:46Z</time>
      </trkpt>
      <trkpt lat="47.80298" lon="-3.44251">
        <ele>41</ele>
        <time>2019-07-17T14:02:47Z</time>
      </trkpt>
      <trkpt lat="47.80291" lon="-3.44248">
        <ele>41</ele>
        <time>2019-07-17T14:02:48Z</time>
      </trkpt>
      <trkpt lat="47.80285" lon="-3.44246">
        <ele>41</ele>
        <time>2019-07-17T14:02:49Z</time>
      </trkpt>
      <trkpt lat="47.80278" lon="-3.44243">
        <ele>41</ele>
        <time>2019-07-17T14:02:50Z</time>
      </trkpt>
      <trkpt lat="47.80271" lon="-3.4424">
        <ele>41</ele>
        <time>2019-07-17T14:02:51Z</time>
      </trkpt>
      <trkpt lat="47.80265" lon="-3.44237">
        <ele>41</ele>
        <time>2019-07-17T14:02:52Z</time>
      </trkpt>
      <trkpt lat="47.80258" lon="-3.44234">
        <ele>41</ele>
        <time>2019-07-17T14:02:53Z</time>
      </trkpt>
      <trkpt lat="47.80252" lon="-3.44231">
        <ele>40</ele>
        <time>2019-07-17T14:02:54Z</time>
      </trkpt>
      <trkpt lat="47.80245" lon="-3.44228">
        <ele>40</ele>
        <time>2019-07-17T14:02:55Z</time>
      </trkpt>
      <trkpt lat="47.80238" lon="-3.44225">
        <ele>40</ele>
        <time>2019-07-17T14:02:56Z</time>
      </trkpt>
      <trkpt lat="47.80231" lon="-3.44223">
        <ele>40</ele>
        <time>2019-07-17T14:02:57Z</time>
      </trkpt>
      <trkpt lat="47.80224" lon="-3.4422">
        <ele>40</ele>
        <time>2019-07-17T14:02:58Z</time>
      </trkpt>
      <trkpt lat="47.80217" lon="-3.44218">
        <ele>40</ele>
        <time>2019-07-17T14:02:59Z</time>
      </trkpt>
      <trkpt lat="47.8021" lon="-3.44216">
        <ele>40</ele>
        <time>2019-07-17T14:03:00Z</time>
      </trkpt>
      <trkpt lat="47.80202" lon="-3.44215">
        <ele>40</ele>
        <time>2019-07-17T14:03:01Z</time>
      </trkpt>
      <trkpt lat="47.80195" lon="-3.44213">
        <ele>40</ele>
        <time>2019-07-17T14:03:02Z</time>
      </trkpt>
      <trkpt lat="47.80187" lon="-3.44211">
        <ele>40</ele>
        <time>2019-07-17T14:03:03Z</time>
      </trkpt>
      <trkpt lat="47.8018" lon="-3.4421">
        <ele>40</ele>
        <time>2019-07-17T14:03:04Z</time>
      </trkpt>
      <trkpt lat="47.80172" lon="-3.44208">
        <ele>40</ele>
        <time>2019-07-17T14:03:05Z</time>
      </trkpt>
      <trkpt lat="47.80165" lon="-3.44206">
        <ele>39</ele>
        <time>2019-07-17T14:03:06Z</time>
      </trkpt>
      <trkpt lat="47.80159" lon="-3.44203">
        <ele>39</ele>
        <time>2019-07-17T14:03:07Z</time>
      </trkpt>
      <trkpt lat="47.80152" lon="-3.44199">
        <ele>39</ele>
        <time>2019-07-17T14:03:08Z</time>
      </trkpt>
      <trkpt lat="47.80146" lon="-3.44195">
        <ele>40</ele>
        <time>2019-07-17T14:03:09Z</time>
      </trkpt>
      <trkpt lat="47.8014" lon="-3.4419">
        <ele>40</ele>
        <time>2019-07-17T14:03:10Z</time>
      </trkpt>
      <trkpt lat="47.80134" lon="-3.44184">
        <ele>40</ele>
        <time>2019-07-17T14:03:11Z</time>
      </trkpt>
      <trkpt lat="47.80128" lon="-3.44178">
        <ele>40</ele>
        <time>2019-07-17T14:03:12Z</time>
      </trkpt>
      <trkpt lat="47.80122" lon="-3.44171">
        <ele>39</ele>
        <time>2019-07-17T14:03:13Z</time>
      </trkpt>
      <trkpt lat="47.80117" lon="-3.44164">
        <ele>39</ele>
        <time>2019-07-17T14:03:14Z</time>
      </trkpt>
      <trkpt lat="47.80111" lon="-3.44157">
        <ele>39</ele>
        <time>2019-07-17T14:03:15Z</time>
      </trkpt>
      <trkpt lat="47.80105" lon="-3.44149">
        <ele>39</ele>
        <time>2019-07-17T14:03:16Z</time>
      </trkpt>
      <trkpt lat="47.80099" lon="-3.44141">
        <ele>39</ele>
        <time>2019-07-17T14:03:17Z</time>
      </trkpt>
      <trkpt lat="47.80093" lon="-3.44134">
        <ele>39</ele>
        <time>2019-07-17T14:03:18Z</time>
      </trkpt>
      <trkpt lat="47.80088" lon="-3.44125">
        <ele>39</ele>
        <time>2019-07-17T14:03:19Z</time>
      </trkpt>
      <trkpt lat="47.80083" lon="-3.44116">
        <ele>39</ele>
        <time>2019-07-17T14:03:20Z</time>
      </trkpt>
      <trkpt lat="47.80077" lon="-3.44107">
        <ele>39</ele>
        <time>2019-07-17T14:03:21Z</time>
      </trkpt>
      <trkpt lat="47.80073" lon="-3.44097">
        <ele>39</ele>
        <time>2019-07-17T14:03:22Z</time>
      </trkpt>
      <trkpt lat="47.8007" lon="-3.44088">
        <ele>39</ele>
        <time>2019-07-17T14:03:23Z</time>
      </trkpt>
      <trkpt lat="47.80067" lon="-3.44077">
        <ele>38</ele>
        <time>2019-07-17T14:03:24Z</time>
      </trkpt>
      <trkpt lat="47.80065" lon="-3.44066">
        <ele>38</ele>
        <time>2019-07-17T14:03:25Z</time>
      </trkpt>
      <trkpt lat="47.80063" lon="-3.44055">
        <ele>38</ele>
        <time>2019-07-17T14:03:26Z</time>
      </trkpt>
      <trkpt lat="47.80061" lon="-3.44045">
        <ele>38</ele>
        <time>2019-07-17T14:03:27Z</time>
      </trkpt>
      <trkpt lat="47.80061" lon="-3.44034">
        <ele>38</ele>
        <time>2019-07-17T14:03:28Z</time>
      </trkpt>
      <trkpt lat="47.8006" lon="-3.44023">
        <ele>38</ele>
        <time>2019-07-17T14:03:29Z</time>
      </trkpt>
      <trkpt lat="47.80061" lon="-3.44014">
        <ele>38</ele>
        <time>2019-07-17T14:03:30Z</time>
      </trkpt>
      <trkpt lat="47.80062" lon="-3.44004">
        <ele>37</ele>
        <time>2019-07-17T14:03:31Z</time>
      </trkpt>
      <trkpt lat="47.80063" lon="-3.43994">
        <ele>37</ele>
        <time>2019-07-17T14:03:32Z</time>
      </trkpt>
      <trkpt lat="47.80064" lon="-3.43984">
        <ele>37</ele>
        <time>2019-07-17T14:03:33Z</time>
      </trkpt>
      <trkpt lat="47.80066" lon="-3.43974">
        <ele>37</ele>
        <time>2019-07-17T14:03:34Z</time>
      </trkpt>
      <trkpt lat="47.80067" lon="-3.43965">
        <ele>37</ele>
        <time>2019-07-17T14:03:35Z</time>
      </trkpt>
      <trkpt lat="47.80068" lon="-3.43956">
        <ele>37</ele>
        <time>2019-07-17T14:03:36Z</time>
      </trkpt>
      <trkpt lat="47.80069" lon="-3.43947">
        <ele>37</ele>
        <time>2019-07-17T14:03:37Z</time>
      </trkpt>
      <trkpt lat="47.8007" lon="-3.43938">
        <ele>38</ele>
        <time>2019-07-17T14:03:38Z</time>
      </trkpt>
      <trkpt lat="47.80072" lon="-3.43929">
        <ele>38</ele>
        <time>2019-07-17T14:03:39Z</time>
      </trkpt>
      <trkpt lat="47.80073" lon="-3.4392">
        <ele>38</ele>
        <time>2019-07-17T14:03:40Z</time>
      </trkpt>
      <trkpt lat="47.80074" lon="-3.43911">
        <ele>38</ele>
        <time>2019-07-17T14:03:41Z</time>
      </trkpt>
      <trkpt lat="47.80075" lon="-3.43902">
        <ele>39</ele>
        <time>2019-07-17T14:03:42Z</time>
      </trkpt>
      <trkpt lat="47.80076" lon="-3.43894">
        <ele>39</ele>
        <time>2019-07-17T14:03:43Z</time>
      </trkpt>
      <trkpt lat="47.80077" lon="-3.43885">
        <ele>39</ele>
        <time>2019-07-17T14:03:44Z</time>
      </trkpt>
      <trkpt lat="47.80078" lon="-3.43876">
        <ele>39</ele>
        <time>2019-07-17T14:03:45Z</time>
      </trkpt>
      <trkpt lat="47.8008" lon="-3.43867">
        <ele>39</ele>
        <time>2019-07-17T14:03:46Z</time>
      </trkpt>
      <trkpt lat="47.80081" lon="-3.43858">
        <ele>39</ele>
        <time>2019-07-17T14:03:47Z</time>
      </trkpt>
      <trkpt lat="47.80082" lon="-3.43849">
        <ele>39</ele>
        <time>2019-07-17T14:03:48Z</time>
      </trkpt>
      <trkpt lat="47.80082" lon="-3.4384">
        <ele>39</ele>
        <time>2019-07-17T14:03:49Z</time>
      </trkpt>
      <trkpt lat="47.80082" lon="-3.43831">
        <ele>39</ele>
        <time>2019-07-17T14:03:50Z</time>
      </trkpt>
      <trkpt lat="47.80083" lon="-3.43822">
        <ele>39</ele>
        <time>2019-07-17T14:03:51Z</time>
      </trkpt>
      <trkpt lat="47.80082" lon="-3.43812">
        <ele>40</ele>
        <time>2019-07-17T14:03:52Z</time>
      </trkpt>
      <trkpt lat="47.80082" lon="-3.43802">
        <ele>40</ele>
        <time>2019-07-17T14:03:53Z</time>
      </trkpt>
      <trkpt lat="47.80081" lon="-3.43793">
        <ele>40</ele>
        <time>2019-07-17T14:03:54Z</time>
      </trkpt>
      <trkpt lat="47.80079" lon="-3.43784">
        <ele>40</ele>
        <time>2019-07-17T14:03:55Z</time>
      </trkpt>
      <trkpt lat="47.80077" lon="-3.43775">
        <ele>40</ele>
        <time>2019-07-17T14:03:56Z</time>
      </trkpt>
      <trkpt lat="47.80075" lon="-3.43767">
        <ele>40</ele>
        <time>2019-07-17T14:03:57Z</time>
      </trkpt>
      <trkpt lat="47.80073" lon="-3.43758">
        <ele>40</ele>
        <time>2019-07-17T14:03:58Z</time>
      </trkpt>
      <trkpt lat="47.80071" lon="-3.43749">
        <ele>40</ele>
        <time>2019-07-17T14:03:59Z</time>
      </trkpt>
      <trkpt lat="47.80069" lon="-3.4374">
        <ele>40</ele>
        <time>2019-07-17T14:04:00Z</time>
      </trkpt>
      <trkpt lat="47.80066" lon="-3.43731">
        <ele>40</ele>
        <time>2019-07-17T14:04:01Z</time>
      </trkpt>
      <trkpt lat="47.80063" lon="-3.43722">
        <ele>39</ele>
        <time>2019-07-17T14:04:02Z</time>
      </trkpt>
      <trkpt lat="47.8006" lon="-3.43712">
        <ele>39</ele>
        <time>2019-07-17T14:04:03Z</time>
      </trkpt>
      <trkpt lat="47.80057" lon="-3.43703">
        <ele>39</ele>
        <time>2019-07-17T14:04:04Z</time>
      </trkpt>
      <trkpt lat="47.80054" lon="-3.43693">
        <ele>39</ele>
        <time>2019-07-17T14:04:05Z</time>
      </trkpt>
      <trkpt lat="47.80051" lon="-3.43684">
        <ele>39</ele>
        <time>2019-07-17T14:04:06Z</time>
      </trkpt>
      <trkpt lat="47.80048" lon="-3.43674">
        <ele>39</ele>
        <time>2019-07-17T14:04:07Z</time>
      </trkpt>
      <trkpt lat="47.80045" lon="-3.43665">
        <ele>39</ele>
        <time>2019-07-17T14:04:08Z</time>
      </trkpt>
      <trkpt lat="47.80042" lon="-3.43656">
        <ele>39</ele>
        <time>2019-07-17T14:04:09Z</time>
      </trkpt>
      <trkpt lat="47.80039" lon="-3.43647">
        <ele>39</ele>
        <time>2019-07-17T14:04:10Z</time>
      </trkpt>
      <trkpt lat="47.80036" lon="-3.43639">
        <ele>39</ele>
        <time>2019-07-17T14:04:11Z</time>
      </trkpt>
      <trkpt lat="47.80033" lon="-3.4363">
        <ele>39</ele>
        <time>2019-07-17T14:04:12Z</time>
      </trkpt>
      <trkpt lat="47.8003" lon="-3.43621">
        <ele>39</ele>
        <time>2019-07-17T14:04:13Z</time>
      </trkpt>
      <trkpt lat="47.80027" lon="-3.43612">
        <ele>39</ele>
        <time>2019-07-17T14:04:14Z</time>
      </trkpt>
      <trkpt lat="47.80024" lon="-3.43604">
        <ele>39</ele>
        <time>2019-07-17T14:04:15Z</time>
      </trkpt>
      <trkpt lat="47.80021" lon="-3.43596">
        <ele>39</ele>
        <time>2019-07-17T14:04:16Z</time>
      </trkpt>
      <trkpt lat="47.80018" lon="-3.43588">
        <ele>39</ele>
        <time>2019-07-17T14:04:17Z</time>
      </trkpt>
      <trkpt lat="47.80015" lon="-3.4358">
        <ele>39</ele>
        <time>2019-07-17T14:04:18Z</time>
      </trkpt>
      <trkpt lat="47.80012" lon="-3.43572">
        <ele>40</ele>
        <time>2019-07-17T14:04:19Z</time>
      </trkpt>
      <trkpt lat="47.80009" lon="-3.43564">
        <ele>40</ele>
        <time>2019-07-17T14:04:20Z</time>
      </trkpt>
      <trkpt lat="47.80005" lon="-3.43557">
        <ele>40</ele>
        <time>2019-07-17T14:04:21Z</time>
      </trkpt>
      <trkpt lat="47.80002" lon="-3.4355">
        <ele>40</ele>
        <time>2019-07-17T14:04:22Z</time>
      </trkpt>
      <trkpt lat="47.79999" lon="-3.43542">
        <ele>40</ele>
        <time>2019-07-17T14:04:23Z</time>
      </trkpt>
      <trkpt lat="47.79995" lon="-3.43535">
        <ele>40</ele>
        <time>2019-07-17T14:04:24Z</time>
      </trkpt>
      <trkpt lat="47.79992" lon="-3.43528">
        <ele>40</ele>
        <time>2019-07-17T14:04:25Z</time>
      </trkpt>
      <trkpt lat="47.79988" lon="-3.43521">
        <ele>40</ele>
        <time>2019-07-17T14:04:26Z</time>
      </trkpt>
      <trkpt lat="47.79984" lon="-3.43515">
        <ele>40</ele>
        <time>2019-07-17T14:04:27Z</time>
      </trkpt>
      <trkpt lat="47.7998" lon="-3.4351">
        <ele>40</ele>
        <time>2019-07-17T14:04:28Z</time>
      </trkpt>
      <trkpt lat="47.79975" lon="-3.43504">
        <ele>41</ele>
        <time>2019-07-17T14:04:29Z</time>
      </trkpt>
      <trkpt lat="47.79971" lon="-3.43499">
        <ele>41</ele>
        <time>2019-07-17T14:04:30Z</time>
      </trkpt>
      <trkpt lat="47.79967" lon="-3.43495">
        <ele>41</ele>
        <time>2019-07-17T14:04:31Z</time>
      </trkpt>
      <trkpt lat="47.79962" lon="-3.43496">
        <ele>41</ele>
        <time>2019-07-17T14:04:32Z</time>
      </trkpt>
      <trkpt lat="47.79958" lon="-3.43497">
        <ele>40</ele>
        <time>2019-07-17T14:04:33Z</time>
      </trkpt>
      <trkpt lat="47.79955" lon="-3.43495">
        <ele>40</ele>
        <time>2019-07-17T14:04:34Z</time>
      </trkpt>
      <trkpt lat="47.79954" lon="-3.4349">
        <ele>40</ele>
        <time>2019-07-17T14:04:35Z</time>
      </trkpt>
      <trkpt lat="47.79952" lon="-3.43484">
        <ele>40</ele>
        <time>2019-07-17T14:04:36Z</time>
      </trkpt>
      <trkpt lat="47.7995" lon="-3.43477">
        <ele>40</ele>
        <time>2019-07-17T14:04:37Z</time>
      </trkpt>
      <trkpt lat="47.79947" lon="-3.43469">
        <ele>40</ele>
        <time>2019-07-17T14:04:38Z</time>
      </trkpt>
      <trkpt lat="47.79943" lon="-3.43461">
        <ele>39</ele>
        <time>2019-07-17T14:04:39Z</time>
      </trkpt>
      <trkpt lat="47.79939" lon="-3.43454">
        <ele>39</ele>
        <time>2019-07-17T14:04:40Z</time>
      </trkpt>
      <trkpt lat="47.79934" lon="-3.43447">
        <ele>39</ele>
        <time>2019-07-17T14:04:41Z</time>
      </trkpt>
      <trkpt lat="47.79929" lon="-3.4344">
        <ele>39</ele>
        <time>2019-07-17T14:04:42Z</time>
      </trkpt>
      <trkpt lat="47.79923" lon="-3.43433">
        <ele>38</ele>
        <time>2019-07-17T14:04:43Z</time>
      </trkpt>
      <trkpt lat="47.79917" lon="-3.43426">
        <ele>38</ele>
        <time>2019-07-17T14:04:44Z</time>
      </trkpt>
      <trkpt lat="47.79911" lon="-3.43419">
        <ele>38</ele>
        <time>2019-07-17T14:04:45Z</time>
      </trkpt>
      <trkpt lat="47.79905" lon="-3.43412">
        <ele>38</ele>
        <time>2019-07-17T14:04:46Z</time>
      </trkpt>
      <trkpt lat="47.79899" lon="-3.43406">
        <ele>38</ele>
        <time>2019-07-17T14:04:47Z</time>
      </trkpt>
      <trkpt lat="47.79892" lon="-3.434">
        <ele>38</ele>
        <time>2019-07-17T14:04:48Z</time>
      </trkpt>
      <trkpt lat="47.79886" lon="-3.43395">
        <ele>38</ele>
        <time>2019-07-17T14:04:49Z</time>
      </trkpt>
      <trkpt lat="47.79879" lon="-3.4339">
        <ele>39</ele>
        <time>2019-07-17T14:04:50Z</time>
      </trkpt>
      <trkpt lat="47.79873" lon="-3.43385">
        <ele>39</ele>
        <time>2019-07-17T14:04:51Z</time>
      </trkpt>
      <trkpt lat="47.79866" lon="-3.4338">
        <ele>39</ele>
        <time>2019-07-17T14:04:52Z</time>
      </trkpt>
      <trkpt lat="47.7986" lon="-3.43376">
        <ele>39</ele>
        <time>2019-07-17T14:04:53Z</time>
      </trkpt>
      <trkpt lat="47.79853" lon="-3.43372">
        <ele>39</ele>
        <time>2019-07-17T14:04:54Z</time>
      </trkpt>
      <trkpt lat="47.79847" lon="-3.43367">
        <ele>39</ele>
        <time>2019-07-17T14:04:55Z</time>
      </trkpt>
      <trkpt lat="47.7984" lon="-3.43363">
        <ele>39</ele>
        <time>2019-07-17T14:04:56Z</time>
      </trkpt>
      <trkpt lat="47.79833" lon="-3.43359">
        <ele>38</ele>
        <time>2019-07-17T14:04:57Z</time>
      </trkpt>
      <trkpt lat="47.79826" lon="-3.43355">
        <ele>38</ele>
        <time>2019-07-17T14:04:58Z</time>
      </trkpt>
      <trkpt lat="47.79819" lon="-3.4335">
        <ele>38</ele>
        <time>2019-07-17T14:04:59Z</time>
      </trkpt>
      <trkpt lat="47.79811" lon="-3.43346">
        <ele>38</ele>
        <time>2019-07-17T14:05:00Z</time>
      </trkpt>
      <trkpt lat="47.79804" lon="-3.43341">
        <ele>37</ele>
        <time>2019-07-17T14:05:01Z</time>
      </trkpt>
      <trkpt lat="47.79797" lon="-3.43337">
        <ele>37</ele>
        <time>2019-07-17T14:05:02Z</time>
      </trkpt>
      <trkpt lat="47.79789" lon="-3.43333">
        <ele>37</ele>
        <time>2019-07-17T14:05:03Z</time>
      </trkpt>
      <trkpt lat="47.79782" lon="-3.43329">
        <ele>37</ele>
        <time>2019-07-17T14:05:04Z</time>
      </trkpt>
      <trkpt lat="47.79775" lon="-3.43324">
        <ele>37</ele>
        <time>2019-07-17T14:05:05Z</time>
      </trkpt>
      <trkpt lat="47.79768" lon="-3.4332">
        <ele>37</ele>
        <time>2019-07-17T14:05:06Z</time>
      </trkpt>
      <trkpt lat="47.79761" lon="-3.43317">
        <ele>37</ele>
        <time>2019-07-17T14:05:07Z</time>
      </trkpt>
      <trkpt lat="47.79754" lon="-3.43314">
        <ele>37</ele>
        <time>2019-07-17T14:05:08Z</time>
      </trkpt>
      <trkpt lat="47.79747" lon="-3.4331">
        <ele>37</ele>
        <time>2019-07-17T14:05:09Z</time>
      </trkpt>
      <trkpt lat="47.79741" lon="-3.43306">
        <ele>37</ele>
        <time>2019-07-17T14:05:10Z</time>
      </trkpt>
      <trkpt lat="47.79736" lon="-3.433">
        <ele>37</ele>
        <time>2019-07-17T14:05:11Z</time>
      </trkpt>
      <trkpt lat="47.79731" lon="-3.43294">
        <ele>37</ele>
        <time>2019-07-17T14:05:12Z</time>
      </trkpt>
      <trkpt lat="47.79726" lon="-3.43287">
        <ele>37</ele>
        <time>2019-07-17T14:05:13Z</time>
      </trkpt>
      <trkpt lat="47.79722" lon="-3.4328">
        <ele>37</ele>
        <time>2019-07-17T14:05:14Z</time>
      </trkpt>
      <trkpt lat="47.79716" lon="-3.43272">
        <ele>37</ele>
        <time>2019-07-17T14:05:15Z</time>
      </trkpt>
      <trkpt lat="47.7971" lon="-3.43264">
        <ele>37</ele>
        <time>2019-07-17T14:05:16Z</time>
      </trkpt>
      <trkpt lat="47.79705" lon="-3.43256">
        <ele>37</ele>
        <time>2019-07-17T14:05:17Z</time>
      </trkpt>
      <trkpt lat="47.79699" lon="-3.43247">
        <ele>37</ele>
        <time>2019-07-17T14:05:18Z</time>
      </trkpt>
      <trkpt lat="47.79693" lon="-3.43238">
        <ele>37</ele>
        <time>2019-07-17T14:05:19Z</time>
      </trkpt>
      <trkpt lat="47.79688" lon="-3.4323">
        <ele>37</ele>
        <time>2019-07-17T14:05:20Z</time>
      </trkpt>
      <trkpt lat="47.79682" lon="-3.43221">
        <ele>38</ele>
        <time>2019-07-17T14:05:21Z</time>
      </trkpt>
      <trkpt lat="47.79676" lon="-3.43212">
        <ele>38</ele>
        <time>2019-07-17T14:05:22Z</time>
      </trkpt>
      <trkpt lat="47.79671" lon="-3.43204">
        <ele>38</ele>
        <time>2019-07-17T14:05:23Z</time>
      </trkpt>
      <trkpt lat="47.79665" lon="-3.43196">
        <ele>38</ele>
        <time>2019-07-17T14:05:24Z</time>
      </trkpt>
      <trkpt lat="47.79659" lon="-3.43189">
        <ele>38</ele>
        <time>2019-07-17T14:05:25Z</time>
      </trkpt>
      <trkpt lat="47.79653" lon="-3.4318">
        <ele>38</ele>
        <time>2019-07-17T14:05:26Z</time>
      </trkpt>
      <trkpt lat="47.79647" lon="-3.43172">
        <ele>38</ele>
        <time>2019-07-17T14:05:27Z</time>
      </trkpt>
      <trkpt lat="47.79642" lon="-3.43165">
        <ele>39</ele>
        <time>2019-07-17T14:05:28Z</time>
      </trkpt>
      <trkpt lat="47.79636" lon="-3.43158">
        <ele>39</ele>
        <time>2019-07-17T14:05:29Z</time>
      </trkpt>
      <trkpt lat="47.79631" lon="-3.43152">
        <ele>39</ele>
        <time>2019-07-17T14:05:30Z</time>
      </trkpt>
      <trkpt lat="47.79625" lon="-3.43146">
        <ele>40</ele>
        <time>2019-07-17T14:05:31Z</time>
      </trkpt>
      <trkpt lat="47.79619" lon="-3.43142">
        <ele>40</ele>
        <time>2019-07-17T14:05:32Z</time>
      </trkpt>
      <trkpt lat="47.79613" lon="-3.43138">
        <ele>40</ele>
        <time>2019-07-17T14:05:33Z</time>
      </trkpt>
      <trkpt lat="47.79607" lon="-3.43135">
        <ele>40</ele>
        <time>2019-07-17T14:05:34Z</time>
      </trkpt>
      <trkpt lat="47.79601" lon="-3.43133">
        <ele>40</ele>
        <time>2019-07-17T14:05:35Z</time>
      </trkpt>
      <trkpt lat="47.79595" lon="-3.43131">
        <ele>40</ele>
        <time>2019-07-17T14:05:36Z</time>
      </trkpt>
      <trkpt lat="47.79589" lon="-3.43129">
        <ele>41</ele>
        <time>2019-07-17T14:05:37Z</time>
      </trkpt>
      <trkpt lat="47.79583" lon="-3.43128">
        <ele>41</ele>
        <time>2019-07-17T14:05:38Z</time>
      </trkpt>
      <trkpt lat="47.79578" lon="-3.43128">
        <ele>41</ele>
        <time>2019-07-17T14:05:39Z</time>
      </trkpt>
      <trkpt lat="47.79572" lon="-3.43127">
        <ele>42</ele>
        <time>2019-07-17T14:05:40Z</time>
      </trkpt>
      <trkpt lat="47.79567" lon="-3.43128">
        <ele>42</ele>
        <time>2019-07-17T14:05:41Z</time>
      </trkpt>
      <trkpt lat="47.79561" lon="-3.43129">
        <ele>42</ele>
        <time>2019-07-17T14:05:42Z</time>
      </trkpt>
      <trkpt lat="47.79556" lon="-3.43129">
        <ele>43</ele>
        <time>2019-07-17T14:05:43Z</time>
      </trkpt>
      <trkpt lat="47.79551" lon="-3.43129">
        <ele>43</ele>
        <time>2019-07-17T14:05:44Z</time>
      </trkpt>
      <trkpt lat="47.79545" lon="-3.43129">
        <ele>43</ele>
        <time>2019-07-17T14:05:45Z</time>
      </trkpt>
      <trkpt lat="47.7954" lon="-3.4313">
        <ele>43</ele>
        <time>2019-07-17T14:05:46Z</time>
      </trkpt>
      <trkpt lat="47.79535" lon="-3.4313">
        <ele>44</ele>
        <time>2019-07-17T14:05:47Z</time>
      </trkpt>
      <trkpt lat="47.79529" lon="-3.4313">
        <ele>44</ele>
        <time>2019-07-17T14:05:48Z</time>
      </trkpt>
      <trkpt lat="47.79523" lon="-3.43131">
        <ele>44</ele>
        <time>2019-07-17T14:05:49Z</time>
      </trkpt>
      <trkpt lat="47.79518" lon="-3.43131">
        <ele>44</ele>
        <time>2019-07-17T14:05:50Z</time>
      </trkpt>
      <trkpt lat="47.79512" lon="-3.43131">
        <ele>44</ele>
        <time>2019-07-17T14:05:51Z</time>
      </trkpt>
      <trkpt lat="47.79506" lon="-3.43131">
        <ele>44</ele>
        <time>2019-07-17T14:05:52Z</time>
      </trkpt>
      <trkpt lat="47.795" lon="-3.43131">
        <ele>44</ele>
        <time>2019-07-17T14:05:53Z</time>
      </trkpt>
      <trkpt lat="47.79494" lon="-3.4313">
        <ele>44</ele>
        <time>2019-07-17T14:05:54Z</time>
      </trkpt>
      <trkpt lat="47.79488" lon="-3.43129">
        <ele>45</ele>
        <time>2019-07-17T14:05:55Z</time>
      </trkpt>
      <trkpt lat="47.79482" lon="-3.43129">
        <ele>45</ele>
        <time>2019-07-17T14:05:56Z</time>
      </trkpt>
      <trkpt lat="47.79477" lon="-3.43128">
        <ele>45</ele>
        <time>2019-07-17T14:05:57Z</time>
      </trkpt>
      <trkpt lat="47.79471" lon="-3.43127">
        <ele>45</ele>
        <time>2019-07-17T14:05:58Z</time>
      </trkpt>
      <trkpt lat="47.79466" lon="-3.43126">
        <ele>45</ele>
        <time>2019-07-17T14:05:59Z</time>
      </trkpt>
      <trkpt lat="47.79461" lon="-3.43124">
        <ele>45</ele>
        <time>2019-07-17T14:06:00Z</time>
      </trkpt>
      <trkpt lat="47.79457" lon="-3.43119">
        <ele>45</ele>
        <time>2019-07-17T14:06:01Z</time>
      </trkpt>
      <trkpt lat="47.79454" lon="-3.43113">
        <ele>45</ele>
        <time>2019-07-17T14:06:02Z</time>
      </trkpt>
      <trkpt lat="47.79451" lon="-3.43107">
        <ele>45</ele>
        <time>2019-07-17T14:06:03Z</time>
      </trkpt>
      <trkpt lat="47.79448" lon="-3.431">
        <ele>45</ele>
        <time>2019-07-17T14:06:04Z</time>
      </trkpt>
      <trkpt lat="47.79444" lon="-3.43094">
        <ele>45</ele>
        <time>2019-07-17T14:06:05Z</time>
      </trkpt>
      <trkpt lat="47.7944" lon="-3.43088">
        <ele>46</ele>
        <time>2019-07-17T14:06:06Z</time>
      </trkpt>
      <trkpt lat="47.79436" lon="-3.43082">
        <ele>46</ele>
        <time>2019-07-17T14:06:07Z</time>
      </trkpt>
      <trkpt lat="47.79432" lon="-3.43075">
        <ele>46</ele>
        <time>2019-07-17T14:06:08Z</time>
      </trkpt>
      <trkpt lat="47.79428" lon="-3.43068">
        <ele>45</ele>
        <time>2019-07-17T14:06:09Z</time>
      </trkpt>
      <trkpt lat="47.79424" lon="-3.43061">
        <ele>45</ele>
        <time>2019-07-17T14:06:10Z</time>
      </trkpt>
      <trkpt lat="47.7942" lon="-3.43054">
        <ele>45</ele>
        <time>2019-07-17T14:06:11Z</time>
      </trkpt>
      <trkpt lat="47.79416" lon="-3.43046">
        <ele>45</ele>
        <time>2019-07-17T14:06:12Z</time>
      </trkpt>
      <trkpt lat="47.79412" lon="-3.43038">
        <ele>45</ele>
        <time>2019-07-17T14:06:13Z</time>
      </trkpt>
      <trkpt lat="47.79408" lon="-3.4303">
        <ele>45</ele>
        <time>2019-07-17T14:06:14Z</time>
      </trkpt>
      <trkpt lat="47.79404" lon="-3.43022">
        <ele>45</ele>
        <time>2019-07-17T14:06:15Z</time>
      </trkpt>
      <trkpt lat="47.79401" lon="-3.43014">
        <ele>45</ele>
        <time>2019-07-17T14:06:16Z</time>
      </trkpt>
      <trkpt lat="47.79398" lon="-3.43007">
        <ele>45</ele>
        <time>2019-07-17T14:06:17Z</time>
      </trkpt>
      <trkpt lat="47.79395" lon="-3.42999">
        <ele>45</ele>
        <time>2019-07-17T14:06:18Z</time>
      </trkpt>
      <trkpt lat="47.79391" lon="-3.42992">
        <ele>45</ele>
        <time>2019-07-17T14:06:19Z</time>
      </trkpt>
      <trkpt lat="47.79388" lon="-3.42985">
        <ele>45</ele>
        <time>2019-07-17T14:06:20Z</time>
      </trkpt>
      <trkpt lat="47.79385" lon="-3.42978">
        <ele>45</ele>
        <time>2019-07-17T14:06:21Z</time>
      </trkpt>
      <trkpt lat="47.79383" lon="-3.42971">
        <ele>46</ele>
        <time>2019-07-17T14:06:22Z</time>
      </trkpt>
      <trkpt lat="47.7938" lon="-3.42964">
        <ele>46</ele>
        <time>2019-07-17T14:06:23Z</time>
      </trkpt>
      <trkpt lat="47.79377" lon="-3.42958">
        <ele>46</ele>
        <time>2019-07-17T14:06:24Z</time>
      </trkpt>
      <trkpt lat="47.79374" lon="-3.42951">
        <ele>46</ele>
        <time>2019-07-17T14:06:25Z</time>
      </trkpt>
      <trkpt lat="47.79371" lon="-3.42945">
        <ele>47</ele>
        <time>2019-07-17T14:06:26Z</time>
      </trkpt>
      <trkpt lat="47.79369" lon="-3.42938">
        <ele>47</ele>
        <time>2019-07-17T14:06:27Z</time>
      </trkpt>
      <trkpt lat="47.79366" lon="-3.42932">
        <ele>47</ele>
        <time>2019-07-17T14:06:28Z</time>
      </trkpt>
      <trkpt lat="47.79363" lon="-3.42925">
        <ele>47</ele>
        <time>2019-07-17T14:06:29Z</time>
      </trkpt>
      <trkpt lat="47.7936" lon="-3.42919">
        <ele>48</ele>
        <time>2019-07-17T14:06:30Z</time>
      </trkpt>
      <trkpt lat="47.79356" lon="-3.42914">
        <ele>48</ele>
        <time>2019-07-17T14:06:31Z</time>
      </trkpt>
      <trkpt lat="47.79352" lon="-3.4291">
        <ele>48</ele>
        <time>2019-07-17T14:06:32Z</time>
      </trkpt>
      <trkpt lat="47.79349" lon="-3.42906">
        <ele>48</ele>
        <time>2019-07-17T14:06:33Z</time>
      </trkpt>
      <trkpt lat="47.79345" lon="-3.42901">
        <ele>48</ele>
        <time>2019-07-17T14:06:34Z</time>
      </trkpt>
      <trkpt lat="47.79342" lon="-3.42896">
        <ele>48</ele>
        <time>2019-07-17T14:06:35Z</time>
      </trkpt>
      <trkpt lat="47.79339" lon="-3.4289">
        <ele>48</ele>
        <time>2019-07-17T14:06:36Z</time>
      </trkpt>
      <trkpt lat="47.79337" lon="-3.42883">
        <ele>48</ele>
        <time>2019-07-17T14:06:37Z</time>
      </trkpt>
      <trkpt lat="47.79336" lon="-3.42876">
        <ele>48</ele>
        <time>2019-07-17T14:06:38Z</time>
      </trkpt>
      <trkpt lat="47.79336" lon="-3.42867">
        <ele>48</ele>
        <time>2019-07-17T14:06:39Z</time>
      </trkpt>
      <trkpt lat="47.79335" lon="-3.4286">
        <ele>48</ele>
        <time>2019-07-17T14:06:40Z</time>
      </trkpt>
      <trkpt lat="47.79333" lon="-3.42852">
        <ele>48</ele>
        <time>2019-07-17T14:06:41Z</time>
      </trkpt>
      <trkpt lat="47.79329" lon="-3.42845">
        <ele>48</ele>
        <time>2019-07-17T14:06:42Z</time>
      </trkpt>
      <trkpt lat="47.79326" lon="-3.42838">
        <ele>48</ele>
        <time>2019-07-17T14:06:43Z</time>
      </trkpt>
      <trkpt lat="47.79322" lon="-3.4283">
        <ele>48</ele>
        <time>2019-07-17T14:06:44Z</time>
      </trkpt>
      <trkpt lat="47.79318" lon="-3.42823">
        <ele>48</ele>
        <time>2019-07-17T14:06:45Z</time>
      </trkpt>
      <trkpt lat="47.79314" lon="-3.42816">
        <ele>48</ele>
        <time>2019-07-17T14:06:46Z</time>
      </trkpt>
      <trkpt lat="47.79309" lon="-3.42809">
        <ele>47</ele>
        <time>2019-07-17T14:06:47Z</time>
      </trkpt>
      <trkpt lat="47.79305" lon="-3.42802">
        <ele>47</ele>
        <time>2019-07-17T14:06:48Z</time>
      </trkpt>
      <trkpt lat="47.79301" lon="-3.42795">
        <ele>47</ele>
        <time>2019-07-17T14:06:49Z</time>
      </trkpt>
      <trkpt lat="47.79297" lon="-3.42789">
        <ele>47</ele>
        <time>2019-07-17T14:06:50Z</time>
      </trkpt>
      <trkpt lat="47.79293" lon="-3.42782">
        <ele>47</ele>
        <time>2019-07-17T14:06:51Z</time>
      </trkpt>
      <trkpt lat="47.79289" lon="-3.42776">
        <ele>47</ele>
        <time>2019-07-17T14:06:52Z</time>
      </trkpt>
      <trkpt lat="47.79285" lon="-3.42769">
        <ele>47</ele>
        <time>2019-07-17T14:06:53Z</time>
      </trkpt>
      <trkpt lat="47.79281" lon="-3.42764">
        <ele>47</ele>
        <time>2019-07-17T14:06:54Z</time>
      </trkpt>
      <trkpt lat="47.79277" lon="-3.42758">
        <ele>47</ele>
        <time>2019-07-17T14:06:55Z</time>
      </trkpt>
      <trkpt lat="47.79273" lon="-3.42751">
        <ele>47</ele>
        <time>2019-07-17T14:06:56Z</time>
      </trkpt>
      <trkpt lat="47.79269" lon="-3.42745">
        <ele>47</ele>
        <time>2019-07-17T14:06:57Z</time>
      </trkpt>
      <trkpt lat="47.79266" lon="-3.42739">
        <ele>47</ele>
        <time>2019-07-17T14:06:58Z</time>
      </trkpt>
      <trkpt lat="47.79261" lon="-3.42732">
        <ele>47</ele>
        <time>2019-07-17T14:06:59Z</time>
      </trkpt>
      <trkpt lat="47.79257" lon="-3.42726">
        <ele>47</ele>
        <time>2019-07-17T14:07:00Z</time>
      </trkpt>
      <trkpt lat="47.79253" lon="-3.42719">
        <ele>47</ele>
        <time>2019-07-17T14:07:01Z</time>
      </trkpt>
      <trkpt lat="47.79248" lon="-3.42712">
        <ele>47</ele>
        <time>2019-07-17T14:07:02Z</time>
      </trkpt>
      <trkpt lat="47.79243" lon="-3.42706">
        <ele>47</ele>
        <time>2019-07-17T14:07:03Z</time>
      </trkpt>
      <trkpt lat="47.79239" lon="-3.42699">
        <ele>47</ele>
        <time>2019-07-17T14:07:04Z</time>
      </trkpt>
      <trkpt lat="47.79234" lon="-3.42693">
        <ele>47</ele>
        <time>2019-07-17T14:07:05Z</time>
      </trkpt>
      <trkpt lat="47.79229" lon="-3.42687">
        <ele>47</ele>
        <time>2019-07-17T14:07:06Z</time>
      </trkpt>
      <trkpt lat="47.79223" lon="-3.4268">
        <ele>47</ele>
        <time>2019-07-17T14:07:07Z</time>
      </trkpt>
      <trkpt lat="47.79218" lon="-3.42675">
        <ele>47</ele>
        <time>2019-07-17T14:07:08Z</time>
      </trkpt>
      <trkpt lat="47.79213" lon="-3.42669">
        <ele>47</ele>
        <time>2019-07-17T14:07:09Z</time>
      </trkpt>
      <trkpt lat="47.79207" lon="-3.42664">
        <ele>47</ele>
        <time>2019-07-17T14:07:10Z</time>
      </trkpt>
      <trkpt lat="47.79201" lon="-3.42658">
        <ele>46</ele>
        <time>2019-07-17T14:07:11Z</time>
      </trkpt>
      <trkpt lat="47.79196" lon="-3.42652">
        <ele>46</ele>
        <time>2019-07-17T14:07:12Z</time>
      </trkpt>
      <trkpt lat="47.7919" lon="-3.42647">
        <ele>46</ele>
        <time>2019-07-17T14:07:13Z</time>
      </trkpt>
      <trkpt lat="47.79184" lon="-3.42641">
        <ele>46</ele>
        <time>2019-07-17T14:07:14Z</time>
      </trkpt>
      <trkpt lat="47.79179" lon="-3.42635">
        <ele>46</ele>
        <time>2019-07-17T14:07:15Z</time>
      </trkpt>
      <trkpt lat="47.79174" lon="-3.42627">
        <ele>45</ele>
        <time>2019-07-17T14:07:16Z</time>
      </trkpt>
      <trkpt lat="47.79169" lon="-3.42621">
        <ele>45</ele>
        <time>2019-07-17T14:07:17Z</time>
      </trkpt>
      <trkpt lat="47.79164" lon="-3.42617">
        <ele>45</ele>
        <time>2019-07-17T14:07:18Z</time>
      </trkpt>
      <trkpt lat="47.79158" lon="-3.42615">
        <ele>45</ele>
        <time>2019-07-17T14:07:19Z</time>
      </trkpt>
      <trkpt lat="47.79152" lon="-3.42612">
        <ele>45</ele>
        <time>2019-07-17T14:07:20Z</time>
      </trkpt>
      <trkpt lat="47.79148" lon="-3.42608">
        <ele>45</ele>
        <time>2019-07-17T14:07:21Z</time>
      </trkpt>
      <trkpt lat="47.79144" lon="-3.42602">
        <ele>45</ele>
        <time>2019-07-17T14:07:22Z</time>
      </trkpt>
      <trkpt lat="47.79143" lon="-3.42595">
        <ele>45</ele>
        <time>2019-07-17T14:07:23Z</time>
      </trkpt>
      <trkpt lat="47.79142" lon="-3.42587">
        <ele>45</ele>
        <time>2019-07-17T14:07:24Z</time>
      </trkpt>
      <trkpt lat="47.79141" lon="-3.42579">
        <ele>44</ele>
        <time>2019-07-17T14:07:25Z</time>
      </trkpt>
      <trkpt lat="47.79138" lon="-3.42572">
        <ele>45</ele>
        <time>2019-07-17T14:07:26Z</time>
      </trkpt>
      <trkpt lat="47.79135" lon="-3.42564">
        <ele>44</ele>
        <time>2019-07-17T14:07:27Z</time>
      </trkpt>
      <trkpt lat="47.79132" lon="-3.42557">
        <ele>44</ele>
        <time>2019-07-17T14:07:28Z</time>
      </trkpt>
      <trkpt lat="47.79129" lon="-3.4255">
        <ele>45</ele>
        <time>2019-07-17T14:07:29Z</time>
      </trkpt>
      <trkpt lat="47.79126" lon="-3.42542">
        <ele>45</ele>
        <time>2019-07-17T14:07:30Z</time>
      </trkpt>
      <trkpt lat="47.79123" lon="-3.42536">
        <ele>45</ele>
        <time>2019-07-17T14:07:31Z</time>
      </trkpt>
      <trkpt lat="47.7912" lon="-3.42529">
        <ele>45</ele>
        <time>2019-07-17T14:07:32Z</time>
      </trkpt>
      <trkpt lat="47.79117" lon="-3.42522">
        <ele>45</ele>
        <time>2019-07-17T14:07:33Z</time>
      </trkpt>
      <trkpt lat="47.79114" lon="-3.42515">
        <ele>45</ele>
        <time>2019-07-17T14:07:34Z</time>
      </trkpt>
      <trkpt lat="47.79111" lon="-3.42508">
        <ele>45</ele>
        <time>2019-07-17T14:07:35Z</time>
      </trkpt>
      <trkpt lat="47.79108" lon="-3.42501">
        <ele>46</ele>
        <time>2019-07-17T14:07:36Z</time>
      </trkpt>
      <trkpt lat="47.79105" lon="-3.42494">
        <ele>46</ele>
        <time>2019-07-17T14:07:37Z</time>
      </trkpt>
      <trkpt lat="47.79102" lon="-3.42487">
        <ele>46</ele>
        <time>2019-07-17T14:07:38Z</time>
      </trkpt>
      <trkpt lat="47.79099" lon="-3.4248">
        <ele>46</ele>
        <time>2019-07-17T14:07:39Z</time>
      </trkpt>
      <trkpt lat="47.79096" lon="-3.42473">
        <ele>46</ele>
        <time>2019-07-17T14:07:40Z</time>
      </trkpt>
      <trkpt lat="47.79093" lon="-3.42466">
        <ele>46</ele>
        <time>2019-07-17T14:07:41Z</time>
      </trkpt>
      <trkpt lat="47.7909" lon="-3.42459">
        <ele>46</ele>
        <time>2019-07-17T14:07:42Z</time>
      </trkpt>
      <trkpt lat="47.79087" lon="-3.42452">
        <ele>46</ele>
        <time>2019-07-17T14:07:43Z</time>
      </trkpt>
      <trkpt lat="47.79084" lon="-3.42445">
        <ele>47</ele>
        <time>2019-07-17T14:07:44Z</time>
      </trkpt>
      <trkpt lat="47.79081" lon="-3.42438">
        <ele>47</ele>
        <time>2019-07-17T14:07:45Z</time>
      </trkpt>
      <trkpt lat="47.79078" lon="-3.42431">
        <ele>47</ele>
        <time>2019-07-17T14:07:46Z</time>
      </trkpt>
      <trkpt lat="47.79074" lon="-3.42424">
        <ele>47</ele>
        <time>2019-07-17T14:07:47Z</time>
      </trkpt>
      <trkpt lat="47.79071" lon="-3.42417">
        <ele>47</ele>
        <time>2019-07-17T14:07:48Z</time>
      </trkpt>
      <trkpt lat="47.79068" lon="-3.42409">
        <ele>48</ele>
        <time>2019-07-17T14:07:49Z</time>
      </trkpt>
      <trkpt lat="47.79065" lon="-3.42402">
        <ele>48</ele>
        <time>2019-07-17T14:07:50Z</time>
      </trkpt>
      <trkpt lat="47.79062" lon="-3.42395">
        <ele>48</ele>
        <time>2019-07-17T14:07:51Z</time>
      </trkpt>
      <trkpt lat="47.79059" lon="-3.42387">
        <ele>48</ele>
        <time>2019-07-17T14:07:52Z</time>
      </trkpt>
      <trkpt lat="47.79056" lon="-3.42379">
        <ele>48</ele>
        <time>2019-07-17T14:07:53Z</time>
      </trkpt>
      <trkpt lat="47.79053" lon="-3.42372">
        <ele>49</ele>
        <time>2019-07-17T14:07:54Z</time>
      </trkpt>
      <trkpt lat="47.7905" lon="-3.42365">
        <ele>49</ele>
        <time>2019-07-17T14:07:55Z</time>
      </trkpt>
      <trkpt lat="47.79047" lon="-3.42358">
        <ele>49</ele>
        <time>2019-07-17T14:07:56Z</time>
      </trkpt>
      <trkpt lat="47.79044" lon="-3.4235">
        <ele>49</ele>
        <time>2019-07-17T14:07:57Z</time>
      </trkpt>
      <trkpt lat="47.79042" lon="-3.42342">
        <ele>49</ele>
        <time>2019-07-17T14:07:58Z</time>
      </trkpt>
      <trkpt lat="47.79039" lon="-3.42334">
        <ele>50</ele>
        <time>2019-07-17T14:07:59Z</time>
      </trkpt>
      <trkpt lat="47.79036" lon="-3.42326">
        <ele>50</ele>
        <time>2019-07-17T14:08:00Z</time>
      </trkpt>
      <trkpt lat="47.79034" lon="-3.42319">
        <ele>50</ele>
        <time>2019-07-17T14:08:01Z</time>
      </trkpt>
      <trkpt lat="47.79032" lon="-3.4231">
        <ele>50</ele>
        <time>2019-07-17T14:08:02Z</time>
      </trkpt>
      <trkpt lat="47.79029" lon="-3.42303">
        <ele>50</ele>
        <time>2019-07-17T14:08:03Z</time>
      </trkpt>
      <trkpt lat="47.79026" lon="-3.42295">
        <ele>50</ele>
        <time>2019-07-17T14:08:04Z</time>
      </trkpt>
      <trkpt lat="47.79023" lon="-3.42287">
        <ele>50</ele>
        <time>2019-07-17T14:08:05Z</time>
      </trkpt>
      <trkpt lat="47.7902" lon="-3.42279">
        <ele>50</ele>
        <time>2019-07-17T14:08:06Z</time>
      </trkpt>
      <trkpt lat="47.79018" lon="-3.4227">
        <ele>51</ele>
        <time>2019-07-17T14:08:07Z</time>
      </trkpt>
      <trkpt lat="47.79015" lon="-3.42262">
        <ele>51</ele>
        <time>2019-07-17T14:08:08Z</time>
      </trkpt>
      <trkpt lat="47.79012" lon="-3.42254">
        <ele>51</ele>
        <time>2019-07-17T14:08:09Z</time>
      </trkpt>
      <trkpt lat="47.79009" lon="-3.42246">
        <ele>51</ele>
        <time>2019-07-17T14:08:10Z</time>
      </trkpt>
      <trkpt lat="47.79006" lon="-3.42237">
        <ele>51</ele>
        <time>2019-07-17T14:08:11Z</time>
      </trkpt>
      <trkpt lat="47.79003" lon="-3.4223">
        <ele>51</ele>
        <time>2019-07-17T14:08:12Z</time>
      </trkpt>
      <trkpt lat="47.78999" lon="-3.42222">
        <ele>50</ele>
        <time>2019-07-17T14:08:13Z</time>
      </trkpt>
      <trkpt lat="47.78996" lon="-3.42214">
        <ele>50</ele>
        <time>2019-07-17T14:08:14Z</time>
      </trkpt>
      <trkpt lat="47.78993" lon="-3.42206">
        <ele>50</ele>
        <time>2019-07-17T14:08:15Z</time>
      </trkpt>
      <trkpt lat="47.78989" lon="-3.42198">
        <ele>50</ele>
        <time>2019-07-17T14:08:16Z</time>
      </trkpt>
      <trkpt lat="47.78985" lon="-3.42191">
        <ele>50</ele>
        <time>2019-07-17T14:08:17Z</time>
      </trkpt>
      <trkpt lat="47.78981" lon="-3.42184">
        <ele>50</ele>
        <time>2019-07-17T14:08:18Z</time>
      </trkpt>
      <trkpt lat="47.78977" lon="-3.42177">
        <ele>50</ele>
        <time>2019-07-17T14:08:19Z</time>
      </trkpt>
      <trkpt lat="47.78973" lon="-3.42169">
        <ele>50</ele>
        <time>2019-07-17T14:08:20Z</time>
      </trkpt>
      <trkpt lat="47.78968" lon="-3.42163">
        <ele>49</ele>
        <time>2019-07-17T14:08:21Z</time>
      </trkpt>
      <trkpt lat="47.78964" lon="-3.42158">
        <ele>49</ele>
        <time>2019-07-17T14:08:22Z</time>
      </trkpt>
      <trkpt lat="47.78959" lon="-3.42154">
        <ele>49</ele>
        <time>2019-07-17T14:08:23Z</time>
      </trkpt>
      <trkpt lat="47.78956" lon="-3.42148">
        <ele>49</ele>
        <time>2019-07-17T14:08:24Z</time>
      </trkpt>
      <trkpt lat="47.78955" lon="-3.42142">
        <ele>49</ele>
        <time>2019-07-17T14:08:25Z</time>
      </trkpt>
      <trkpt lat="47.78956" lon="-3.42135">
        <ele>49</ele>
        <time>2019-07-17T14:08:26Z</time>
      </trkpt>
      <trkpt lat="47.78957" lon="-3.4213">
        <ele>48</ele>
        <time>2019-07-17T14:08:27Z</time>
      </trkpt>
      <trkpt lat="47.7896" lon="-3.42126">
        <ele>48</ele>
        <time>2019-07-17T14:08:28Z</time>
      </trkpt>
      <trkpt lat="47.78964" lon="-3.42122">
        <ele>48</ele>
        <time>2019-07-17T14:08:29Z</time>
      </trkpt>
      <trkpt lat="47.78968" lon="-3.42116">
        <ele>48</ele>
        <time>2019-07-17T14:08:30Z</time>
      </trkpt>
      <trkpt lat="47.78972" lon="-3.4211">
        <ele>48</ele>
        <time>2019-07-17T14:08:31Z</time>
      </trkpt>
      <trkpt lat="47.78976" lon="-3.42103">
        <ele>48</ele>
        <time>2019-07-17T14:08:32Z</time>
      </trkpt>
      <trkpt lat="47.7898" lon="-3.42097">
        <ele>47</ele>
        <time>2019-07-17T14:08:33Z</time>
      </trkpt>
      <trkpt lat="47.78984" lon="-3.4209">
        <ele>47</ele>
        <time>2019-07-17T14:08:34Z</time>
      </trkpt>
      <trkpt lat="47.78988" lon="-3.42084">
        <ele>47</ele>
        <time>2019-07-17T14:08:35Z</time>
      </trkpt>
      <trkpt lat="47.78992" lon="-3.42077">
        <ele>47</ele>
        <time>2019-07-17T14:08:36Z</time>
      </trkpt>
      <trkpt lat="47.78996" lon="-3.42071">
        <ele>47</ele>
        <time>2019-07-17T14:08:37Z</time>
      </trkpt>
      <trkpt lat="47.79" lon="-3.42064">
        <ele>46</ele>
        <time>2019-07-17T14:08:38Z</time>
      </trkpt>
      <trkpt lat="47.79003" lon="-3.42058">
        <ele>46</ele>
        <time>2019-07-17T14:08:39Z</time>
      </trkpt>
      <trkpt lat="47.79007" lon="-3.42052">
        <ele>46</ele>
        <time>2019-07-17T14:08:40Z</time>
      </trkpt>
      <trkpt lat="47.79011" lon="-3.42045">
        <ele>46</ele>
        <time>2019-07-17T14:08:41Z</time>
      </trkpt>
      <trkpt lat="47.79015" lon="-3.42038">
        <ele>46</ele>
        <time>2019-07-17T14:08:42Z</time>
      </trkpt>
      <trkpt lat="47.7902" lon="-3.42031">
        <ele>45</ele>
        <time>2019-07-17T14:08:43Z</time>
      </trkpt>
      <trkpt lat="47.79024" lon="-3.42023">
        <ele>45</ele>
        <time>2019-07-17T14:08:44Z</time>
      </trkpt>
      <trkpt lat="47.79029" lon="-3.42015">
        <ele>45</ele>
        <time>2019-07-17T14:08:45Z</time>
      </trkpt>
      <trkpt lat="47.79034" lon="-3.42007">
        <ele>44</ele>
        <time>2019-07-17T14:08:46Z</time>
      </trkpt>
      <trkpt lat="47.79039" lon="-3.41998">
        <ele>44</ele>
        <time>2019-07-17T14:08:47Z</time>
      </trkpt>
      <trkpt lat="47.79043" lon="-3.4199">
        <ele>44</ele>
        <time>2019-07-17T14:08:48Z</time>
      </trkpt>
      <trkpt lat="47.79048" lon="-3.41981">
        <ele>44</ele>
        <time>2019-07-17T14:08:49Z</time>
      </trkpt>
      <trkpt lat="47.79053" lon="-3.41973">
        <ele>43</ele>
        <time>2019-07-17T14:08:50Z</time>
      </trkpt>
      <trkpt lat="47.79058" lon="-3.41965">
        <ele>43</ele>
        <time>2019-07-17T14:08:51Z</time>
      </trkpt>
      <trkpt lat="47.79063" lon="-3.41957">
        <ele>43</ele>
        <time>2019-07-17T14:08:52Z</time>
      </trkpt>
      <trkpt lat="47.79068" lon="-3.41949">
        <ele>43</ele>
        <time>2019-07-17T14:08:53Z</time>
      </trkpt>
      <trkpt lat="47.79072" lon="-3.41941">
        <ele>43</ele>
        <time>2019-07-17T14:08:54Z</time>
      </trkpt>
      <trkpt lat="47.79077" lon="-3.41933">
        <ele>42</ele>
        <time>2019-07-17T14:08:55Z</time>
      </trkpt>
      <trkpt lat="47.79081" lon="-3.41925">
        <ele>42</ele>
        <time>2019-07-17T14:08:56Z</time>
      </trkpt>
      <trkpt lat="47.79086" lon="-3.41918">
        <ele>42</ele>
        <time>2019-07-17T14:08:57Z</time>
      </trkpt>
      <trkpt lat="47.7909" lon="-3.41911">
        <ele>42</ele>
        <time>2019-07-17T14:08:58Z</time>
      </trkpt>
      <trkpt lat="47.79093" lon="-3.41903">
        <ele>42</ele>
        <time>2019-07-17T14:08:59Z</time>
      </trkpt>
      <trkpt lat="47.79096" lon="-3.41896">
        <ele>42</ele>
        <time>2019-07-17T14:09:00Z</time>
      </trkpt>
      <trkpt lat="47.79099" lon="-3.41889">
        <ele>42</ele>
        <time>2019-07-17T14:09:01Z</time>
      </trkpt>
      <trkpt lat="47.79103" lon="-3.41883">
        <ele>42</ele>
        <time>2019-07-17T14:09:02Z</time>
      </trkpt>
      <trkpt lat="47.79107" lon="-3.41878">
        <ele>42</ele>
        <time>2019-07-17T14:09:03Z</time>
      </trkpt>
      <trkpt lat="47.79112" lon="-3.41872">
        <ele>42</ele>
        <time>2019-07-17T14:09:04Z</time>
      </trkpt>
      <trkpt lat="47.79116" lon="-3.41866">
        <ele>42</ele>
        <time>2019-07-17T14:09:05Z</time>
      </trkpt>
      <trkpt lat="47.7912" lon="-3.4186">
        <ele>42</ele>
        <time>2019-07-17T14:09:06Z</time>
      </trkpt>
      <trkpt lat="47.79124" lon="-3.41853">
        <ele>42</ele>
        <time>2019-07-17T14:09:07Z</time>
      </trkpt>
      <trkpt lat="47.79128" lon="-3.41846">
        <ele>42</ele>
        <time>2019-07-17T14:09:08Z</time>
      </trkpt>
      <trkpt lat="47.79131" lon="-3.41839">
        <ele>42</ele>
        <time>2019-07-17T14:09:09Z</time>
      </trkpt>
      <trkpt lat="47.79135" lon="-3.41831">
        <ele>42</ele>
        <time>2019-07-17T14:09:10Z</time>
      </trkpt>
      <trkpt lat="47.79138" lon="-3.41824">
        <ele>42</ele>
        <time>2019-07-17T14:09:11Z</time>
      </trkpt>
      <trkpt lat="47.79142" lon="-3.41817">
        <ele>42</ele>
        <time>2019-07-17T14:09:12Z</time>
      </trkpt>
      <trkpt lat="47.79144" lon="-3.41808">
        <ele>42</ele>
        <time>2019-07-17T14:09:13Z</time>
      </trkpt>
      <trkpt lat="47.79147" lon="-3.41801">
        <ele>42</ele>
        <time>2019-07-17T14:09:14Z</time>
      </trkpt>
      <trkpt lat="47.7915" lon="-3.41793">
        <ele>42</ele>
        <time>2019-07-17T14:09:15Z</time>
      </trkpt>
      <trkpt lat="47.79152" lon="-3.41784">
        <ele>42</ele>
        <time>2019-07-17T14:09:16Z</time>
      </trkpt>
      <trkpt lat="47.79154" lon="-3.41776">
        <ele>42</ele>
        <time>2019-07-17T14:09:17Z</time>
      </trkpt>
      <trkpt lat="47.79156" lon="-3.41767">
        <ele>42</ele>
        <time>2019-07-17T14:09:18Z</time>
      </trkpt>
      <trkpt lat="47.79157" lon="-3.41758">
        <ele>43</ele>
        <time>2019-07-17T14:09:19Z</time>
      </trkpt>
      <trkpt lat="47.79158" lon="-3.41749">
        <ele>43</ele>
        <time>2019-07-17T14:09:20Z</time>
      </trkpt>
      <trkpt lat="47.7916" lon="-3.4174">
        <ele>43</ele>
        <time>2019-07-17T14:09:21Z</time>
      </trkpt>
      <trkpt lat="47.79161" lon="-3.41732">
        <ele>43</ele>
        <time>2019-07-17T14:09:22Z</time>
      </trkpt>
      <trkpt lat="47.79162" lon="-3.41723">
        <ele>43</ele>
        <time>2019-07-17T14:09:23Z</time>
      </trkpt>
      <trkpt lat="47.79163" lon="-3.41714">
        <ele>43</ele>
        <time>2019-07-17T14:09:24Z</time>
      </trkpt>
      <trkpt lat="47.79164" lon="-3.41705">
        <ele>44</ele>
        <time>2019-07-17T14:09:25Z</time>
      </trkpt>
      <trkpt lat="47.79165" lon="-3.41696">
        <ele>44</ele>
        <time>2019-07-17T14:09:26Z</time>
      </trkpt>
      <trkpt lat="47.79166" lon="-3.41688">
        <ele>44</ele>
        <time>2019-07-17T14:09:27Z</time>
      </trkpt>
      <trkpt lat="47.79167" lon="-3.4168">
        <ele>44</ele>
        <time>2019-07-17T14:09:28Z</time>
      </trkpt>
      <trkpt lat="47.79168" lon="-3.41672">
        <ele>44</ele>
        <time>2019-07-17T14:09:29Z</time>
      </trkpt>
      <trkpt lat="47.79169" lon="-3.41663">
        <ele>45</ele>
        <time>2019-07-17T14:09:30Z</time>
      </trkpt>
      <trkpt lat="47.79171" lon="-3.41655">
        <ele>45</ele>
        <time>2019-07-17T14:09:31Z</time>
      </trkpt>
      <trkpt lat="47.79171" lon="-3.41646">
        <ele>45</ele>
        <time>2019-07-17T14:09:32Z</time>
      </trkpt>
      <trkpt lat="47.79173" lon="-3.41638">
        <ele>45</ele>
        <time>2019-07-17T14:09:33Z</time>
      </trkpt>
      <trkpt lat="47.79174" lon="-3.41629">
        <ele>45</ele>
        <time>2019-07-17T14:09:34Z</time>
      </trkpt>
      <trkpt lat="47.79175" lon="-3.41621">
        <ele>46</ele>
        <time>2019-07-17T14:09:35Z</time>
      </trkpt>
      <trkpt lat="47.79176" lon="-3.41613">
        <ele>46</ele>
        <time>2019-07-17T14:09:36Z</time>
      </trkpt>
      <trkpt lat="47.79177" lon="-3.41604">
        <ele>46</ele>
        <time>2019-07-17T14:09:37Z</time>
      </trkpt>
      <trkpt lat="47.79178" lon="-3.41597">
        <ele>46</ele>
        <time>2019-07-17T14:09:38Z</time>
      </trkpt>
      <trkpt lat="47.79179" lon="-3.41589">
        <ele>47</ele>
        <time>2019-07-17T14:09:39Z</time>
      </trkpt>
      <trkpt lat="47.7918" lon="-3.41582">
        <ele>47</ele>
        <time>2019-07-17T14:09:40Z</time>
      </trkpt>
      <trkpt lat="47.7918" lon="-3.41574">
        <ele>47</ele>
        <time>2019-07-17T14:09:41Z</time>
      </trkpt>
      <trkpt lat="47.79181" lon="-3.41567">
        <ele>47</ele>
        <time>2019-07-17T14:09:42Z</time>
      </trkpt>
      <trkpt lat="47.79181" lon="-3.41561">
        <ele>48</ele>
        <time>2019-07-17T14:09:43Z</time>
      </trkpt>
      <trkpt lat="47.79181" lon="-3.41554">
        <ele>48</ele>
        <time>2019-07-17T14:09:44Z</time>
      </trkpt>
      <trkpt lat="47.7918" lon="-3.41548">
        <ele>48</ele>
        <time>2019-07-17T14:09:45Z</time>
      </trkpt>
      <trkpt lat="47.79179" lon="-3.41542">
        <ele>48</ele>
        <time>2019-07-17T14:09:46Z</time>
      </trkpt>
      <trkpt lat="47.79177" lon="-3.41537">
        <ele>48</ele>
        <time>2019-07-17T14:09:47Z</time>
      </trkpt>
      <trkpt lat="47.79175" lon="-3.41535">
        <ele>48</ele>
        <time>2019-07-17T14:09:48Z</time>
      </trkpt>
      <trkpt lat="47.79174" lon="-3.41534">
        <ele>48</ele>
        <time>2019-07-17T14:09:49Z</time>
      </trkpt>
      <trkpt lat="47.79174" lon="-3.41534">
        <ele>48</ele>
        <time>2019-07-17T14:09:50Z</time>
      </trkpt>
      <trkpt lat="47.79174" lon="-3.41533">
        <ele>48</ele>
        <time>2019-07-17T14:09:51Z</time>
      </trkpt>
      <trkpt lat="47.79175" lon="-3.41525">
        <ele>48</ele>
        <time>2019-07-17T14:09:52Z</time>
      </trkpt>
      <trkpt lat="47.79174" lon="-3.41518">
        <ele>48</ele>
        <time>2019-07-17T14:09:53Z</time>
      </trkpt>
      <trkpt lat="47.79174" lon="-3.41518">
        <ele>48</ele>
        <time>2019-07-17T14:09:54Z</time>
      </trkpt>
      <trkpt lat="47.79173" lon="-3.41514">
        <ele>48</ele>
        <time>2019-07-17T14:09:55Z</time>
      </trkpt>
      <trkpt lat="47.79171" lon="-3.41509">
        <ele>49</ele>
        <time>2019-07-17T14:09:56Z</time>
      </trkpt>
      <trkpt lat="47.7917" lon="-3.41505">
        <ele>49</ele>
        <time>2019-07-17T14:09:57Z</time>
      </trkpt>
      <trkpt lat="47.7917" lon="-3.415">
        <ele>49</ele>
        <time>2019-07-17T14:09:58Z</time>
      </trkpt>
      <trkpt lat="47.79172" lon="-3.41495">
        <ele>49</ele>
        <time>2019-07-17T14:09:59Z</time>
      </trkpt>
      <trkpt lat="47.79175" lon="-3.41492">
        <ele>49</ele>
        <time>2019-07-17T14:10:00Z</time>
      </trkpt>
      <trkpt lat="47.79179" lon="-3.41489">
        <ele>49</ele>
        <time>2019-07-17T14:10:01Z</time>
      </trkpt>
      <trkpt lat="47.79183" lon="-3.41487">
        <ele>49</ele>
        <time>2019-07-17T14:10:02Z</time>
      </trkpt>
      <trkpt lat="47.79188" lon="-3.41485">
        <ele>49</ele>
        <time>2019-07-17T14:10:03Z</time>
      </trkpt>
      <trkpt lat="47.79192" lon="-3.41482">
        <ele>49</ele>
        <time>2019-07-17T14:10:04Z</time>
      </trkpt>
      <trkpt lat="47.79197" lon="-3.41479">
        <ele>49</ele>
        <time>2019-07-17T14:10:05Z</time>
      </trkpt>
      <trkpt lat="47.79207" lon="-3.41473">
        <ele>50</ele>
        <time>2019-07-17T14:10:06Z</time>
      </trkpt>
      <trkpt lat="47.79213" lon="-3.4147">
        <ele>50</ele>
        <time>2019-07-17T14:10:07Z</time>
      </trkpt>
      <trkpt lat="47.79219" lon="-3.41466">
        <ele>49</ele>
        <time>2019-07-17T14:10:08Z</time>
      </trkpt>
      <trkpt lat="47.79224" lon="-3.41463">
        <ele>49</ele>
        <time>2019-07-17T14:10:09Z</time>
      </trkpt>
      <trkpt lat="47.7923" lon="-3.41459">
        <ele>49</ele>
        <time>2019-07-17T14:10:10Z</time>
      </trkpt>
      <trkpt lat="47.7923" lon="-3.41459">
        <ele>49</ele>
        <time>2019-07-17T14:10:11Z</time>
      </trkpt>
      <trkpt lat="47.79241" lon="-3.41451">
        <ele>49</ele>
        <time>2019-07-17T14:10:12Z</time>
      </trkpt>
      <trkpt lat="47.79241" lon="-3.41451">
        <ele>49</ele>
        <time>2019-07-17T14:10:13Z</time>
      </trkpt>
      <trkpt lat="47.79254" lon="-3.41442">
        <ele>49</ele>
        <time>2019-07-17T14:10:14Z</time>
      </trkpt>
      <trkpt lat="47.7926" lon="-3.41439">
        <ele>49</ele>
        <time>2019-07-17T14:10:15Z</time>
      </trkpt>
      <trkpt lat="47.79267" lon="-3.41435">
        <ele>49</ele>
        <time>2019-07-17T14:10:16Z</time>
      </trkpt>
      <trkpt lat="47.79267" lon="-3.41435">
        <ele>49</ele>
        <time>2019-07-17T14:10:17Z</time>
      </trkpt>
      <trkpt lat="47.79273" lon="-3.4143">
        <ele>49</ele>
        <time>2019-07-17T14:10:18Z</time>
      </trkpt>
      <trkpt lat="47.7928" lon="-3.41426">
        <ele>48</ele>
        <time>2019-07-17T14:10:19Z</time>
      </trkpt>
      <trkpt lat="47.79286" lon="-3.41421">
        <ele>48</ele>
        <time>2019-07-17T14:10:20Z</time>
      </trkpt>
      <trkpt lat="47.79292" lon="-3.41404">
        <ele>48</ele>
        <time>2019-07-17T14:10:21Z</time>
      </trkpt>
      <trkpt lat="47.79292" lon="-3.41404">
        <ele>48</ele>
        <time>2019-07-17T14:10:22Z</time>
      </trkpt>
      <trkpt lat="47.79293" lon="-3.41387">
        <ele>47</ele>
        <time>2019-07-17T14:10:23Z</time>
      </trkpt>
      <trkpt lat="47.79293" lon="-3.41387">
        <ele>47</ele>
        <time>2019-07-17T14:10:24Z</time>
      </trkpt>
      <trkpt lat="47.79294" lon="-3.41371">
        <ele>47</ele>
        <time>2019-07-17T14:10:25Z</time>
      </trkpt>
      <trkpt lat="47.79294" lon="-3.41363">
        <ele>47</ele>
        <time>2019-07-17T14:10:26Z</time>
      </trkpt>
      <trkpt lat="47.79294" lon="-3.41363">
        <ele>47</ele>
        <time>2019-07-17T14:10:27Z</time>
      </trkpt>
      <trkpt lat="47.79294" lon="-3.41355">
        <ele>47</ele>
        <time>2019-07-17T14:10:28Z</time>
      </trkpt>
      <trkpt lat="47.79294" lon="-3.4134">
        <ele>47</ele>
        <time>2019-07-17T14:10:29Z</time>
      </trkpt>
      <trkpt lat="47.79294" lon="-3.4134">
        <ele>47</ele>
        <time>2019-07-17T14:10:30Z</time>
      </trkpt>
      <trkpt lat="47.79295" lon="-3.41332">
        <ele>47</ele>
        <time>2019-07-17T14:10:31Z</time>
      </trkpt>
      <trkpt lat="47.79298" lon="-3.41326">
        <ele>47</ele>
        <time>2019-07-17T14:10:32Z</time>
      </trkpt>
      <trkpt lat="47.79302" lon="-3.41322">
        <ele>47</ele>
        <time>2019-07-17T14:10:33Z</time>
      </trkpt>
      <trkpt lat="47.79308" lon="-3.41319">
        <ele>47</ele>
        <time>2019-07-17T14:10:34Z</time>
      </trkpt>
      <trkpt lat="47.79313" lon="-3.41316">
        <ele>46</ele>
        <time>2019-07-17T14:10:35Z</time>
      </trkpt>
      <trkpt lat="47.79319" lon="-3.41313">
        <ele>46</ele>
        <time>2019-07-17T14:10:36Z</time>
      </trkpt>
      <trkpt lat="47.79325" lon="-3.4131">
        <ele>46</ele>
        <time>2019-07-17T14:10:37Z</time>
      </trkpt>
      <trkpt lat="47.79331" lon="-3.41306">
        <ele>46</ele>
        <time>2019-07-17T14:10:38Z</time>
      </trkpt>
      <trkpt lat="47.79338" lon="-3.41303">
        <ele>46</ele>
        <time>2019-07-17T14:10:39Z</time>
      </trkpt>
      <trkpt lat="47.79344" lon="-3.41299">
        <ele>45</ele>
        <time>2019-07-17T14:10:40Z</time>
      </trkpt>
      <trkpt lat="47.7935" lon="-3.41293">
        <ele>45</ele>
        <time>2019-07-17T14:10:41Z</time>
      </trkpt>
      <trkpt lat="47.79354" lon="-3.41285">
        <ele>45</ele>
        <time>2019-07-17T14:10:42Z</time>
      </trkpt>
      <trkpt lat="47.79357" lon="-3.41276">
        <ele>45</ele>
        <time>2019-07-17T14:10:43Z</time>
      </trkpt>
      <trkpt lat="47.79358" lon="-3.41266">
        <ele>45</ele>
        <time>2019-07-17T14:10:44Z</time>
      </trkpt>
      <trkpt lat="47.79358" lon="-3.41256">
        <ele>44</ele>
        <time>2019-07-17T14:10:45Z</time>
      </trkpt>
      <trkpt lat="47.79358" lon="-3.41247">
        <ele>44</ele>
        <time>2019-07-17T14:10:46Z</time>
      </trkpt>
      <trkpt lat="47.79361" lon="-3.41234">
        <ele>44</ele>
        <time>2019-07-17T14:10:47Z</time>
      </trkpt>
      <trkpt lat="47.79361" lon="-3.41234">
        <ele>44</ele>
        <time>2019-07-17T14:10:48Z</time>
      </trkpt>
      <trkpt lat="47.79365" lon="-3.41231">
        <ele>43</ele>
        <time>2019-07-17T14:10:49Z</time>
      </trkpt>
      <trkpt lat="47.79369" lon="-3.41231">
        <ele>43</ele>
        <time>2019-07-17T14:10:50Z</time>
      </trkpt>
      <trkpt lat="47.79374" lon="-3.41232">
        <ele>43</ele>
        <time>2019-07-17T14:10:51Z</time>
      </trkpt>
      <trkpt lat="47.7938" lon="-3.41233">
        <ele>43</ele>
        <time>2019-07-17T14:10:52Z</time>
      </trkpt>
      <trkpt lat="47.79385" lon="-3.41233">
        <ele>42</ele>
        <time>2019-07-17T14:10:53Z</time>
      </trkpt>
      <trkpt lat="47.79392" lon="-3.41232">
        <ele>42</ele>
        <time>2019-07-17T14:10:54Z</time>
      </trkpt>
      <trkpt lat="47.79398" lon="-3.41232">
        <ele>42</ele>
        <time>2019-07-17T14:10:55Z</time>
      </trkpt>
      <trkpt lat="47.79404" lon="-3.41233">
        <ele>41</ele>
        <time>2019-07-17T14:10:56Z</time>
      </trkpt>
      <trkpt lat="47.79411" lon="-3.41233">
        <ele>41</ele>
        <time>2019-07-17T14:10:57Z</time>
      </trkpt>
      <trkpt lat="47.79416" lon="-3.41233">
        <ele>40</ele>
        <time>2019-07-17T14:10:58Z</time>
      </trkpt>
      <trkpt lat="47.79426" lon="-3.41233">
        <ele>40</ele>
        <time>2019-07-17T14:10:59Z</time>
      </trkpt>
      <trkpt lat="47.79426" lon="-3.41233">
        <ele>40</ele>
        <time>2019-07-17T14:11:00Z</time>
      </trkpt>
      <trkpt lat="47.7943" lon="-3.41233">
        <ele>40</ele>
        <time>2019-07-17T14:11:01Z</time>
      </trkpt>
      <trkpt lat="47.79434" lon="-3.4123">
        <ele>39</ele>
        <time>2019-07-17T14:11:02Z</time>
      </trkpt>
      <trkpt lat="47.79436" lon="-3.41225">
        <ele>39</ele>
        <time>2019-07-17T14:11:03Z</time>
      </trkpt>
      <trkpt lat="47.79436" lon="-3.41218">
        <ele>39</ele>
        <time>2019-07-17T14:11:04Z</time>
      </trkpt>
      <trkpt lat="47.79437" lon="-3.41211">
        <ele>39</ele>
        <time>2019-07-17T14:11:05Z</time>
      </trkpt>
      <trkpt lat="47.79436" lon="-3.41204">
        <ele>39</ele>
        <time>2019-07-17T14:11:06Z</time>
      </trkpt>
      <trkpt lat="47.79436" lon="-3.4119">
        <ele>39</ele>
        <time>2019-07-17T14:11:07Z</time>
      </trkpt>
      <trkpt lat="47.79436" lon="-3.4119">
        <ele>39</ele>
        <time>2019-07-17T14:11:08Z</time>
      </trkpt>
      <trkpt lat="47.79437" lon="-3.41183">
        <ele>39</ele>
        <time>2019-07-17T14:11:09Z</time>
      </trkpt>
      <trkpt lat="47.79437" lon="-3.41169">
        <ele>39</ele>
        <time>2019-07-17T14:11:10Z</time>
      </trkpt>
      <trkpt lat="47.79437" lon="-3.41169">
        <ele>39</ele>
        <time>2019-07-17T14:11:11Z</time>
      </trkpt>
      <trkpt lat="47.79436" lon="-3.41161">
        <ele>39</ele>
        <time>2019-07-17T14:11:12Z</time>
      </trkpt>
      <trkpt lat="47.79435" lon="-3.41154">
        <ele>40</ele>
        <time>2019-07-17T14:11:13Z</time>
      </trkpt>
      <trkpt lat="47.79432" lon="-3.41148">
        <ele>40</ele>
        <time>2019-07-17T14:11:14Z</time>
      </trkpt>
      <trkpt lat="47.79429" lon="-3.41143">
        <ele>40</ele>
        <time>2019-07-17T14:11:15Z</time>
      </trkpt>
      <trkpt lat="47.79424" lon="-3.41139">
        <ele>40</ele>
        <time>2019-07-17T14:11:16Z</time>
      </trkpt>
      <trkpt lat="47.7942" lon="-3.41136">
        <ele>40</ele>
        <time>2019-07-17T14:11:17Z</time>
      </trkpt>
      <trkpt lat="47.79415" lon="-3.41133">
        <ele>40</ele>
        <time>2019-07-17T14:11:18Z</time>
      </trkpt>
      <trkpt lat="47.7941" lon="-3.4113">
        <ele>40</ele>
        <time>2019-07-17T14:11:19Z</time>
      </trkpt>
      <trkpt lat="47.79405" lon="-3.41127">
        <ele>40</ele>
        <time>2019-07-17T14:11:20Z</time>
      </trkpt>
      <trkpt lat="47.794" lon="-3.41125">
        <ele>40</ele>
        <time>2019-07-17T14:11:21Z</time>
      </trkpt>
      <trkpt lat="47.79394" lon="-3.41122">
        <ele>40</ele>
        <time>2019-07-17T14:11:22Z</time>
      </trkpt>
      <trkpt lat="47.79389" lon="-3.4112">
        <ele>40</ele>
        <time>2019-07-17T14:11:23Z</time>
      </trkpt>
      <trkpt lat="47.79384" lon="-3.41118">
        <ele>41</ele>
        <time>2019-07-17T14:11:24Z</time>
      </trkpt>
      <trkpt lat="47.79379" lon="-3.41115">
        <ele>41</ele>
        <time>2019-07-17T14:11:25Z</time>
      </trkpt>
      <trkpt lat="47.79374" lon="-3.41113">
        <ele>41</ele>
        <time>2019-07-17T14:11:26Z</time>
      </trkpt>
      <trkpt lat="47.79369" lon="-3.4111">
        <ele>41</ele>
        <time>2019-07-17T14:11:27Z</time>
      </trkpt>
      <trkpt lat="47.79364" lon="-3.41108">
        <ele>41</ele>
        <time>2019-07-17T14:11:28Z</time>
      </trkpt>
      <trkpt lat="47.7936" lon="-3.41106">
        <ele>41</ele>
        <time>2019-07-17T14:11:29Z</time>
      </trkpt>
      <trkpt lat="47.79355" lon="-3.41104">
        <ele>42</ele>
        <time>2019-07-17T14:11:30Z</time>
      </trkpt>
      <trkpt lat="47.7935" lon="-3.41102">
        <ele>42</ele>
        <time>2019-07-17T14:11:31Z</time>
      </trkpt>
      <trkpt lat="47.79345" lon="-3.41099">
        <ele>42</ele>
        <time>2019-07-17T14:11:32Z</time>
      </trkpt>
      <trkpt lat="47.79341" lon="-3.41097">
        <ele>42</ele>
        <time>2019-07-17T14:11:33Z</time>
      </trkpt>
      <trkpt lat="47.79336" lon="-3.41095">
        <ele>42</ele>
        <time>2019-07-17T14:11:34Z</time>
      </trkpt>
      <trkpt lat="47.79331" lon="-3.41093">
        <ele>43</ele>
        <time>2019-07-17T14:11:35Z</time>
      </trkpt>
      <trkpt lat="47.79327" lon="-3.4109">
        <ele>43</ele>
        <time>2019-07-17T14:11:36Z</time>
      </trkpt>
      <trkpt lat="47.79322" lon="-3.41088">
        <ele>43</ele>
        <time>2019-07-17T14:11:37Z</time>
      </trkpt>
      <trkpt lat="47.79317" lon="-3.41087">
        <ele>43</ele>
        <time>2019-07-17T14:11:38Z</time>
      </trkpt>
      <trkpt lat="47.79312" lon="-3.41085">
        <ele>44</ele>
        <time>2019-07-17T14:11:39Z</time>
      </trkpt>
      <trkpt lat="47.79308" lon="-3.41083">
        <ele>44</ele>
        <time>2019-07-17T14:11:40Z</time>
      </trkpt>
      <trkpt lat="47.79303" lon="-3.41081">
        <ele>44</ele>
        <time>2019-07-17T14:11:41Z</time>
      </trkpt>
      <trkpt lat="47.79298" lon="-3.41079">
        <ele>44</ele>
        <time>2019-07-17T14:11:42Z</time>
      </trkpt>
      <trkpt lat="47.79293" lon="-3.41077">
        <ele>45</ele>
        <time>2019-07-17T14:11:43Z</time>
      </trkpt>
      <trkpt lat="47.79288" lon="-3.41075">
        <ele>45</ele>
        <time>2019-07-17T14:11:44Z</time>
      </trkpt>
      <trkpt lat="47.79283" lon="-3.41072">
        <ele>45</ele>
        <time>2019-07-17T14:11:45Z</time>
      </trkpt>
      <trkpt lat="47.79278" lon="-3.4107">
        <ele>45</ele>
        <time>2019-07-17T14:11:46Z</time>
      </trkpt>
      <trkpt lat="47.79273" lon="-3.41068">
        <ele>45</ele>
        <time>2019-07-17T14:11:47Z</time>
      </trkpt>
      <trkpt lat="47.79268" lon="-3.41066">
        <ele>45</ele>
        <time>2019-07-17T14:11:48Z</time>
      </trkpt>
      <trkpt lat="47.79262" lon="-3.41063">
        <ele>45</ele>
        <time>2019-07-17T14:11:49Z</time>
      </trkpt>
      <trkpt lat="47.79256" lon="-3.41061">
        <ele>45</ele>
        <time>2019-07-17T14:11:50Z</time>
      </trkpt>
      <trkpt lat="47.79251" lon="-3.41058">
        <ele>45</ele>
        <time>2019-07-17T14:11:51Z</time>
      </trkpt>
      <trkpt lat="47.79245" lon="-3.41055">
        <ele>45</ele>
        <time>2019-07-17T14:11:52Z</time>
      </trkpt>
      <trkpt lat="47.79239" lon="-3.41052">
        <ele>45</ele>
        <time>2019-07-17T14:11:53Z</time>
      </trkpt>
      <trkpt lat="47.79233" lon="-3.4105">
        <ele>45</ele>
        <time>2019-07-17T14:11:54Z</time>
      </trkpt>
      <trkpt lat="47.79227" lon="-3.41047">
        <ele>45</ele>
        <time>2019-07-17T14:11:55Z</time>
      </trkpt>
      <trkpt lat="47.79221" lon="-3.41045">
        <ele>45</ele>
        <time>2019-07-17T14:11:56Z</time>
      </trkpt>
      <trkpt lat="47.79215" lon="-3.41043">
        <ele>44</ele>
        <time>2019-07-17T14:11:57Z</time>
      </trkpt>
      <trkpt lat="47.79209" lon="-3.41042">
        <ele>45</ele>
        <time>2019-07-17T14:11:58Z</time>
      </trkpt>
      <trkpt lat="47.79202" lon="-3.41042">
        <ele>45</ele>
        <time>2019-07-17T14:11:59Z</time>
      </trkpt>
      <trkpt lat="47.79196" lon="-3.41042">
        <ele>45</ele>
        <time>2019-07-17T14:12:00Z</time>
      </trkpt>
      <trkpt lat="47.7919" lon="-3.4104">
        <ele>45</ele>
        <time>2019-07-17T14:12:01Z</time>
      </trkpt>
      <trkpt lat="47.79184" lon="-3.41038">
        <ele>45</ele>
        <time>2019-07-17T14:12:02Z</time>
      </trkpt>
      <trkpt lat="47.79172" lon="-3.41034">
        <ele>45</ele>
        <time>2019-07-17T14:12:03Z</time>
      </trkpt>
      <trkpt lat="47.79172" lon="-3.41034">
        <ele>45</ele>
        <time>2019-07-17T14:12:04Z</time>
      </trkpt>
      <trkpt lat="47.79166" lon="-3.41036">
        <ele>45</ele>
        <time>2019-07-17T14:12:05Z</time>
      </trkpt>
      <trkpt lat="47.79157" lon="-3.41045">
        <ele>45</ele>
        <time>2019-07-17T14:12:06Z</time>
      </trkpt>
      <trkpt lat="47.79157" lon="-3.41045">
        <ele>45</ele>
        <time>2019-07-17T14:12:07Z</time>
      </trkpt>
      <trkpt lat="47.79155" lon="-3.4105">
        <ele>45</ele>
        <time>2019-07-17T14:12:08Z</time>
      </trkpt>
      <trkpt lat="47.79153" lon="-3.41054">
        <ele>45</ele>
        <time>2019-07-17T14:12:09Z</time>
      </trkpt>
      <trkpt lat="47.7915" lon="-3.41058">
        <ele>45</ele>
        <time>2019-07-17T14:12:10Z</time>
      </trkpt>
      <trkpt lat="47.79147" lon="-3.4106">
        <ele>45</ele>
        <time>2019-07-17T14:12:11Z</time>
      </trkpt>
      <trkpt lat="47.79143" lon="-3.41061">
        <ele>45</ele>
        <time>2019-07-17T14:12:12Z</time>
      </trkpt>
      <trkpt lat="47.7914" lon="-3.4106">
        <ele>45</ele>
        <time>2019-07-17T14:12:13Z</time>
      </trkpt>
      <trkpt lat="47.79137" lon="-3.41057">
        <ele>45</ele>
        <time>2019-07-17T14:12:14Z</time>
      </trkpt>
      <trkpt lat="47.79135" lon="-3.41054">
        <ele>45</ele>
        <time>2019-07-17T14:12:15Z</time>
      </trkpt>
      <trkpt lat="47.79134" lon="-3.4105">
        <ele>45</ele>
        <time>2019-07-17T14:12:16Z</time>
      </trkpt>
      <trkpt lat="47.79133" lon="-3.41048">
        <ele>45</ele>
        <time>2019-07-17T14:12:17Z</time>
      </trkpt>
      <trkpt lat="47.79132" lon="-3.41044">
        <ele>45</ele>
        <time>2019-07-17T14:12:18Z</time>
      </trkpt>
      <trkpt lat="47.79131" lon="-3.4104">
        <ele>45</ele>
        <time>2019-07-17T14:12:19Z</time>
      </trkpt>
      <trkpt lat="47.79129" lon="-3.41036">
        <ele>45</ele>
        <time>2019-07-17T14:12:20Z</time>
      </trkpt>
      <trkpt lat="47.79127" lon="-3.41031">
        <ele>44</ele>
        <time>2019-07-17T14:12:21Z</time>
      </trkpt>
      <trkpt lat="47.79123" lon="-3.41027">
        <ele>44</ele>
        <time>2019-07-17T14:12:22Z</time>
      </trkpt>
      <trkpt lat="47.79119" lon="-3.41024">
        <ele>44</ele>
        <time>2019-07-17T14:12:23Z</time>
      </trkpt>
      <trkpt lat="47.79115" lon="-3.41022">
        <ele>44</ele>
        <time>2019-07-17T14:12:24Z</time>
      </trkpt>
      <trkpt lat="47.7911" lon="-3.4102">
        <ele>44</ele>
        <time>2019-07-17T14:12:25Z</time>
      </trkpt>
      <trkpt lat="47.79106" lon="-3.41018">
        <ele>44</ele>
        <time>2019-07-17T14:12:26Z</time>
      </trkpt>
      <trkpt lat="47.79101" lon="-3.41016">
        <ele>44</ele>
        <time>2019-07-17T14:12:27Z</time>
      </trkpt>
      <trkpt lat="47.79096" lon="-3.41014">
        <ele>44</ele>
        <time>2019-07-17T14:12:28Z</time>
      </trkpt>
      <trkpt lat="47.79092" lon="-3.41012">
        <ele>44</ele>
        <time>2019-07-17T14:12:29Z</time>
      </trkpt>
      <trkpt lat="47.79087" lon="-3.41009">
        <ele>44</ele>
        <time>2019-07-17T14:12:30Z</time>
      </trkpt>
      <trkpt lat="47.79082" lon="-3.41007">
        <ele>44</ele>
        <time>2019-07-17T14:12:31Z</time>
      </trkpt>
      <trkpt lat="47.79076" lon="-3.41005">
        <ele>43</ele>
        <time>2019-07-17T14:12:32Z</time>
      </trkpt>
      <trkpt lat="47.79071" lon="-3.41002">
        <ele>43</ele>
        <time>2019-07-17T14:12:33Z</time>
      </trkpt>
      <trkpt lat="47.79066" lon="-3.41">
        <ele>43</ele>
        <time>2019-07-17T14:12:34Z</time>
      </trkpt>
      <trkpt lat="47.79061" lon="-3.40997">
        <ele>43</ele>
        <time>2019-07-17T14:12:35Z</time>
      </trkpt>
      <trkpt lat="47.79056" lon="-3.40995">
        <ele>43</ele>
        <time>2019-07-17T14:12:36Z</time>
      </trkpt>
      <trkpt lat="47.79051" lon="-3.40993">
        <ele>43</ele>
        <time>2019-07-17T14:12:37Z</time>
      </trkpt>
      <trkpt lat="47.79047" lon="-3.4099">
        <ele>43</ele>
        <time>2019-07-17T14:12:38Z</time>
      </trkpt>
      <trkpt lat="47.79042" lon="-3.40988">
        <ele>42</ele>
        <time>2019-07-17T14:12:39Z</time>
      </trkpt>
      <trkpt lat="47.79037" lon="-3.40986">
        <ele>42</ele>
        <time>2019-07-17T14:12:40Z</time>
      </trkpt>
      <trkpt lat="47.79033" lon="-3.40983">
        <ele>42</ele>
        <time>2019-07-17T14:12:41Z</time>
      </trkpt>
      <trkpt lat="47.79029" lon="-3.40981">
        <ele>42</ele>
        <time>2019-07-17T14:12:42Z</time>
      </trkpt>
      <trkpt lat="47.79024" lon="-3.40979">
        <ele>42</ele>
        <time>2019-07-17T14:12:43Z</time>
      </trkpt>
      <trkpt lat="47.7902" lon="-3.40976">
        <ele>42</ele>
        <time>2019-07-17T14:12:44Z</time>
      </trkpt>
      <trkpt lat="47.79017" lon="-3.40972">
        <ele>42</ele>
        <time>2019-07-17T14:12:45Z</time>
      </trkpt>
      <trkpt lat="47.79014" lon="-3.40967">
        <ele>42</ele>
        <time>2019-07-17T14:12:46Z</time>
      </trkpt>
      <trkpt lat="47.79011" lon="-3.40962">
        <ele>42</ele>
        <time>2019-07-17T14:12:47Z</time>
      </trkpt>
      <trkpt lat="47.79009" lon="-3.40956">
        <ele>42</ele>
        <time>2019-07-17T14:12:48Z</time>
      </trkpt>
      <trkpt lat="47.79006" lon="-3.40951">
        <ele>42</ele>
        <time>2019-07-17T14:12:49Z</time>
      </trkpt>
      <trkpt lat="47.79002" lon="-3.40947">
        <ele>42</ele>
        <time>2019-07-17T14:12:50Z</time>
      </trkpt>
      <trkpt lat="47.78998" lon="-3.40943">
        <ele>42</ele>
        <time>2019-07-17T14:12:51Z</time>
      </trkpt>
      <trkpt lat="47.78993" lon="-3.4094">
        <ele>42</ele>
        <time>2019-07-17T14:12:52Z</time>
      </trkpt>
      <trkpt lat="47.78988" lon="-3.40937">
        <ele>42</ele>
        <time>2019-07-17T14:12:53Z</time>
      </trkpt>
      <trkpt lat="47.78983" lon="-3.40934">
        <ele>41</ele>
        <time>2019-07-17T14:12:54Z</time>
      </trkpt>
      <trkpt lat="47.78977" lon="-3.40931">
        <ele>41</ele>
        <time>2019-07-17T14:12:55Z</time>
      </trkpt>
      <trkpt lat="47.78971" lon="-3.40928">
        <ele>41</ele>
        <time>2019-07-17T14:12:56Z</time>
      </trkpt>
      <trkpt lat="47.78966" lon="-3.40924">
        <ele>40</ele>
        <time>2019-07-17T14:12:57Z</time>
      </trkpt>
      <trkpt lat="47.78961" lon="-3.40918">
        <ele>40</ele>
        <time>2019-07-17T14:12:58Z</time>
      </trkpt>
      <trkpt lat="47.78957" lon="-3.40913">
        <ele>39</ele>
        <time>2019-07-17T14:12:59Z</time>
      </trkpt>
      <trkpt lat="47.78953" lon="-3.40909">
        <ele>39</ele>
        <time>2019-07-17T14:13:00Z</time>
      </trkpt>
      <trkpt lat="47.7895" lon="-3.40906">
        <ele>38</ele>
        <time>2019-07-17T14:13:01Z</time>
      </trkpt>
      <trkpt lat="47.78947" lon="-3.40904">
        <ele>38</ele>
        <time>2019-07-17T14:13:02Z</time>
      </trkpt>
      <trkpt lat="47.78943" lon="-3.40902">
        <ele>38</ele>
        <time>2019-07-17T14:13:03Z</time>
      </trkpt>
      <trkpt lat="47.78939" lon="-3.40899">
        <ele>38</ele>
        <time>2019-07-17T14:13:04Z</time>
      </trkpt>
      <trkpt lat="47.78935" lon="-3.40895">
        <ele>37</ele>
        <time>2019-07-17T14:13:05Z</time>
      </trkpt>
      <trkpt lat="47.78932" lon="-3.4089">
        <ele>37</ele>
        <time>2019-07-17T14:13:06Z</time>
      </trkpt>
      <trkpt lat="47.7893" lon="-3.40885">
        <ele>37</ele>
        <time>2019-07-17T14:13:07Z</time>
      </trkpt>
      <trkpt lat="47.78928" lon="-3.40882">
        <ele>37</ele>
        <time>2019-07-17T14:13:08Z</time>
      </trkpt>
      <trkpt lat="47.78928" lon="-3.40879">
        <ele>37</ele>
        <time>2019-07-17T14:13:09Z</time>
      </trkpt>
      <trkpt lat="47.78927" lon="-3.40875">
        <ele>37</ele>
        <time>2019-07-17T14:13:10Z</time>
      </trkpt>
      <trkpt lat="47.78925" lon="-3.40872">
        <ele>37</ele>
        <time>2019-07-17T14:13:11Z</time>
      </trkpt>
      <trkpt lat="47.78922" lon="-3.40868">
        <ele>37</ele>
        <time>2019-07-17T14:13:12Z</time>
      </trkpt>
      <trkpt lat="47.78918" lon="-3.40864">
        <ele>37</ele>
        <time>2019-07-17T14:13:13Z</time>
      </trkpt>
      <trkpt lat="47.78913" lon="-3.4086">
        <ele>37</ele>
        <time>2019-07-17T14:13:14Z</time>
      </trkpt>
      <trkpt lat="47.78907" lon="-3.40857">
        <ele>37</ele>
        <time>2019-07-17T14:13:15Z</time>
      </trkpt>
      <trkpt lat="47.78901" lon="-3.40855">
        <ele>37</ele>
        <time>2019-07-17T14:13:16Z</time>
      </trkpt>
      <trkpt lat="47.78894" lon="-3.40854">
        <ele>37</ele>
        <time>2019-07-17T14:13:17Z</time>
      </trkpt>
      <trkpt lat="47.78888" lon="-3.40852">
        <ele>37</ele>
        <time>2019-07-17T14:13:18Z</time>
      </trkpt>
      <trkpt lat="47.78881" lon="-3.40849">
        <ele>37</ele>
        <time>2019-07-17T14:13:19Z</time>
      </trkpt>
      <trkpt lat="47.78875" lon="-3.40848">
        <ele>37</ele>
        <time>2019-07-17T14:13:20Z</time>
      </trkpt>
      <trkpt lat="47.78869" lon="-3.40845">
        <ele>37</ele>
        <time>2019-07-17T14:13:21Z</time>
      </trkpt>
      <trkpt lat="47.78863" lon="-3.40843">
        <ele>37</ele>
        <time>2019-07-17T14:13:22Z</time>
      </trkpt>
      <trkpt lat="47.78857" lon="-3.40842">
        <ele>37</ele>
        <time>2019-07-17T14:13:23Z</time>
      </trkpt>
      <trkpt lat="47.7885" lon="-3.40841">
        <ele>37</ele>
        <time>2019-07-17T14:13:24Z</time>
      </trkpt>
      <trkpt lat="47.78842" lon="-3.4084">
        <ele>37</ele>
        <time>2019-07-17T14:13:25Z</time>
      </trkpt>
      <trkpt lat="47.78835" lon="-3.40838">
        <ele>37</ele>
        <time>2019-07-17T14:13:26Z</time>
      </trkpt>
      <trkpt lat="47.78829" lon="-3.40835">
        <ele>37</ele>
        <time>2019-07-17T14:13:27Z</time>
      </trkpt>
      <trkpt lat="47.78824" lon="-3.4083">
        <ele>37</ele>
        <time>2019-07-17T14:13:28Z</time>
      </trkpt>
      <trkpt lat="47.78819" lon="-3.40826">
        <ele>37</ele>
        <time>2019-07-17T14:13:29Z</time>
      </trkpt>
      <trkpt lat="47.78814" lon="-3.40822">
        <ele>37</ele>
        <time>2019-07-17T14:13:30Z</time>
      </trkpt>
      <trkpt lat="47.78809" lon="-3.40818">
        <ele>37</ele>
        <time>2019-07-17T14:13:31Z</time>
      </trkpt>
      <trkpt lat="47.78805" lon="-3.40815">
        <ele>37</ele>
        <time>2019-07-17T14:13:32Z</time>
      </trkpt>
      <trkpt lat="47.788" lon="-3.40814">
        <ele>38</ele>
        <time>2019-07-17T14:13:33Z</time>
      </trkpt>
      <trkpt lat="47.78795" lon="-3.40813">
        <ele>38</ele>
        <time>2019-07-17T14:13:34Z</time>
      </trkpt>
      <trkpt lat="47.7879" lon="-3.40811">
        <ele>38</ele>
        <time>2019-07-17T14:13:35Z</time>
      </trkpt>
      <trkpt lat="47.78786" lon="-3.40809">
        <ele>38</ele>
        <time>2019-07-17T14:13:36Z</time>
      </trkpt>
      <trkpt lat="47.78782" lon="-3.40806">
        <ele>39</ele>
        <time>2019-07-17T14:13:37Z</time>
      </trkpt>
      <trkpt lat="47.78778" lon="-3.40805">
        <ele>39</ele>
        <time>2019-07-17T14:13:38Z</time>
      </trkpt>
      <trkpt lat="47.78774" lon="-3.40803">
        <ele>39</ele>
        <time>2019-07-17T14:13:39Z</time>
      </trkpt>
      <trkpt lat="47.7877" lon="-3.40801">
        <ele>39</ele>
        <time>2019-07-17T14:13:40Z</time>
      </trkpt>
      <trkpt lat="47.78765" lon="-3.408">
        <ele>39</ele>
        <time>2019-07-17T14:13:41Z</time>
      </trkpt>
      <trkpt lat="47.78761" lon="-3.40799">
        <ele>39</ele>
        <time>2019-07-17T14:13:42Z</time>
      </trkpt>
      <trkpt lat="47.78757" lon="-3.40797">
        <ele>39</ele>
        <time>2019-07-17T14:13:43Z</time>
      </trkpt>
      <trkpt lat="47.78753" lon="-3.40796">
        <ele>39</ele>
        <time>2019-07-17T14:13:44Z</time>
      </trkpt>
      <trkpt lat="47.78748" lon="-3.40795">
        <ele>39</ele>
        <time>2019-07-17T14:13:45Z</time>
      </trkpt>
      <trkpt lat="47.78744" lon="-3.40793">
        <ele>39</ele>
        <time>2019-07-17T14:13:46Z</time>
      </trkpt>
      <trkpt lat="47.7874" lon="-3.4079">
        <ele>39</ele>
        <time>2019-07-17T14:13:47Z</time>
      </trkpt>
      <trkpt lat="47.78736" lon="-3.40788">
        <ele>40</ele>
        <time>2019-07-17T14:13:48Z</time>
      </trkpt>
      <trkpt lat="47.78731" lon="-3.40785">
        <ele>40</ele>
        <time>2019-07-17T14:13:49Z</time>
      </trkpt>
      <trkpt lat="47.78727" lon="-3.40782">
        <ele>40</ele>
        <time>2019-07-17T14:13:50Z</time>
      </trkpt>
      <trkpt lat="47.78723" lon="-3.40779">
        <ele>40</ele>
        <time>2019-07-17T14:13:51Z</time>
      </trkpt>
      <trkpt lat="47.78718" lon="-3.40777">
        <ele>40</ele>
        <time>2019-07-17T14:13:52Z</time>
      </trkpt>
      <trkpt lat="47.78713" lon="-3.40775">
        <ele>40</ele>
        <time>2019-07-17T14:13:53Z</time>
      </trkpt>
      <trkpt lat="47.78708" lon="-3.40773">
        <ele>40</ele>
        <time>2019-07-17T14:13:54Z</time>
      </trkpt>
      <trkpt lat="47.78703" lon="-3.40771">
        <ele>40</ele>
        <time>2019-07-17T14:13:55Z</time>
      </trkpt>
      <trkpt lat="47.78698" lon="-3.40768">
        <ele>40</ele>
        <time>2019-07-17T14:13:56Z</time>
      </trkpt>
      <trkpt lat="47.78693" lon="-3.40765">
        <ele>40</ele>
        <time>2019-07-17T14:13:57Z</time>
      </trkpt>
      <trkpt lat="47.78688" lon="-3.40762">
        <ele>40</ele>
        <time>2019-07-17T14:13:58Z</time>
      </trkpt>
      <trkpt lat="47.78683" lon="-3.40758">
        <ele>40</ele>
        <time>2019-07-17T14:13:59Z</time>
      </trkpt>
      <trkpt lat="47.78678" lon="-3.40754">
        <ele>40</ele>
        <time>2019-07-17T14:14:00Z</time>
      </trkpt>
      <trkpt lat="47.78674" lon="-3.4075">
        <ele>40</ele>
        <time>2019-07-17T14:14:01Z</time>
      </trkpt>
      <trkpt lat="47.78669" lon="-3.40747">
        <ele>40</ele>
        <time>2019-07-17T14:14:02Z</time>
      </trkpt>
      <trkpt lat="47.78665" lon="-3.40743">
        <ele>40</ele>
        <time>2019-07-17T14:14:03Z</time>
      </trkpt>
      <trkpt lat="47.7866" lon="-3.40738">
        <ele>40</ele>
        <time>2019-07-17T14:14:04Z</time>
      </trkpt>
      <trkpt lat="47.78655" lon="-3.40733">
        <ele>40</ele>
        <time>2019-07-17T14:14:05Z</time>
      </trkpt>
      <trkpt lat="47.7865" lon="-3.4073">
        <ele>40</ele>
        <time>2019-07-17T14:14:06Z</time>
      </trkpt>
      <trkpt lat="47.78646" lon="-3.40725">
        <ele>40</ele>
        <time>2019-07-17T14:14:07Z</time>
      </trkpt>
      <trkpt lat="47.78642" lon="-3.40721">
        <ele>40</ele>
        <time>2019-07-17T14:14:08Z</time>
      </trkpt>
      <trkpt lat="47.78638" lon="-3.40717">
        <ele>40</ele>
        <time>2019-07-17T14:14:09Z</time>
      </trkpt>
      <trkpt lat="47.78633" lon="-3.40713">
        <ele>40</ele>
        <time>2019-07-17T14:14:10Z</time>
      </trkpt>
      <trkpt lat="47.78629" lon="-3.40708">
        <ele>40</ele>
        <time>2019-07-17T14:14:11Z</time>
      </trkpt>
      <trkpt lat="47.78625" lon="-3.40704">
        <ele>40</ele>
        <time>2019-07-17T14:14:12Z</time>
      </trkpt>
      <trkpt lat="47.78619" lon="-3.40699">
        <ele>40</ele>
        <time>2019-07-17T14:14:13Z</time>
      </trkpt>
      <trkpt lat="47.78614" lon="-3.40694">
        <ele>40</ele>
        <time>2019-07-17T14:14:14Z</time>
      </trkpt>
      <trkpt lat="47.78609" lon="-3.40688">
        <ele>40</ele>
        <time>2019-07-17T14:14:15Z</time>
      </trkpt>
      <trkpt lat="47.78604" lon="-3.40682">
        <ele>40</ele>
        <time>2019-07-17T14:14:16Z</time>
      </trkpt>
      <trkpt lat="47.78599" lon="-3.40677">
        <ele>40</ele>
        <time>2019-07-17T14:14:17Z</time>
      </trkpt>
      <trkpt lat="47.78594" lon="-3.40672">
        <ele>39</ele>
        <time>2019-07-17T14:14:18Z</time>
      </trkpt>
      <trkpt lat="47.7859" lon="-3.40667">
        <ele>39</ele>
        <time>2019-07-17T14:14:19Z</time>
      </trkpt>
      <trkpt lat="47.78587" lon="-3.40663">
        <ele>39</ele>
        <time>2019-07-17T14:14:20Z</time>
      </trkpt>
      <trkpt lat="47.78586" lon="-3.40658">
        <ele>39</ele>
        <time>2019-07-17T14:14:21Z</time>
      </trkpt>
      <trkpt lat="47.78585" lon="-3.40652">
        <ele>38</ele>
        <time>2019-07-17T14:14:22Z</time>
      </trkpt>
      <trkpt lat="47.78587" lon="-3.40646">
        <ele>38</ele>
        <time>2019-07-17T14:14:23Z</time>
      </trkpt>
      <trkpt lat="47.78592" lon="-3.40635">
        <ele>37</ele>
        <time>2019-07-17T14:14:24Z</time>
      </trkpt>
      <trkpt lat="47.78592" lon="-3.40635">
        <ele>37</ele>
        <time>2019-07-17T14:14:25Z</time>
      </trkpt>
      <trkpt lat="47.78595" lon="-3.40629">
        <ele>37</ele>
        <time>2019-07-17T14:14:26Z</time>
      </trkpt>
      <trkpt lat="47.78597" lon="-3.40621">
        <ele>37</ele>
        <time>2019-07-17T14:14:27Z</time>
      </trkpt>
      <trkpt lat="47.786" lon="-3.40613">
        <ele>36</ele>
        <time>2019-07-17T14:14:28Z</time>
      </trkpt>
      <trkpt lat="47.78602" lon="-3.40606">
        <ele>36</ele>
        <time>2019-07-17T14:14:29Z</time>
      </trkpt>
      <trkpt lat="47.78606" lon="-3.40599">
        <ele>36</ele>
        <time>2019-07-17T14:14:30Z</time>
      </trkpt>
      <trkpt lat="47.78609" lon="-3.40594">
        <ele>36</ele>
        <time>2019-07-17T14:14:31Z</time>
      </trkpt>
      <trkpt lat="47.78615" lon="-3.40582">
        <ele>35</ele>
        <time>2019-07-17T14:14:32Z</time>
      </trkpt>
      <trkpt lat="47.78615" lon="-3.40582">
        <ele>35</ele>
        <time>2019-07-17T14:14:33Z</time>
      </trkpt>
      <trkpt lat="47.7862" lon="-3.40572">
        <ele>35</ele>
        <time>2019-07-17T14:14:34Z</time>
      </trkpt>
      <trkpt lat="47.78622" lon="-3.40569">
        <ele>35</ele>
        <time>2019-07-17T14:14:35Z</time>
      </trkpt>
      <trkpt lat="47.78624" lon="-3.40568">
        <ele>35</ele>
        <time>2019-07-17T14:14:36Z</time>
      </trkpt>
      <trkpt lat="47.78626" lon="-3.40566">
        <ele>35</ele>
        <time>2019-07-17T14:14:37Z</time>
      </trkpt>
      <trkpt lat="47.78628" lon="-3.40563">
        <ele>34</ele>
        <time>2019-07-17T14:14:38Z</time>
      </trkpt>
      <trkpt lat="47.7863" lon="-3.40561">
        <ele>34</ele>
        <time>2019-07-17T14:14:39Z</time>
      </trkpt>
      <trkpt lat="47.78631" lon="-3.4056">
        <ele>34</ele>
        <time>2019-07-17T14:14:40Z</time>
      </trkpt>
      <trkpt lat="47.78631" lon="-3.4056">
        <ele>34</ele>
        <time>2019-07-17T14:14:41Z</time>
      </trkpt>
      <trkpt lat="47.78633" lon="-3.40562">
        <ele>34</ele>
        <time>2019-07-17T14:14:42Z</time>
      </trkpt>
      <trkpt lat="47.78635" lon="-3.40563">
        <ele>34</ele>
        <time>2019-07-17T14:14:43Z</time>
      </trkpt>
      <trkpt lat="47.78637" lon="-3.40566">
        <ele>34</ele>
        <time>2019-07-17T14:14:44Z</time>
      </trkpt>
      <trkpt lat="47.78639" lon="-3.40567">
        <ele>34</ele>
        <time>2019-07-17T14:14:45Z</time>
      </trkpt>
      <trkpt lat="47.78641" lon="-3.40566">
        <ele>34</ele>
        <time>2019-07-17T14:14:46Z</time>
      </trkpt>
      <trkpt lat="47.78643" lon="-3.40565">
        <ele>34</ele>
        <time>2019-07-17T14:14:47Z</time>
      </trkpt>
      <trkpt lat="47.78645" lon="-3.40564">
        <ele>34</ele>
        <time>2019-07-17T14:14:48Z</time>
      </trkpt>
      <trkpt lat="47.78647" lon="-3.40563">
        <ele>34</ele>
        <time>2019-07-17T14:14:49Z</time>
      </trkpt>
      <trkpt lat="47.7865" lon="-3.40561">
        <ele>34</ele>
        <time>2019-07-17T14:14:50Z</time>
      </trkpt>
      <trkpt lat="47.78653" lon="-3.40558">
        <ele>34</ele>
        <time>2019-07-17T14:14:51Z</time>
      </trkpt>
      <trkpt lat="47.78655" lon="-3.40555">
        <ele>34</ele>
        <time>2019-07-17T14:14:52Z</time>
      </trkpt>
      <trkpt lat="47.78658" lon="-3.40553">
        <ele>34</ele>
        <time>2019-07-17T14:14:53Z</time>
      </trkpt>
      <trkpt lat="47.7866" lon="-3.40552">
        <ele>34</ele>
        <time>2019-07-17T14:14:54Z</time>
      </trkpt>
      <trkpt lat="47.78662" lon="-3.40551">
        <ele>34</ele>
        <time>2019-07-17T14:14:55Z</time>
      </trkpt>
      <trkpt lat="47.78664" lon="-3.4055">
        <ele>34</ele>
        <time>2019-07-17T14:14:56Z</time>
      </trkpt>
      <trkpt lat="47.78665" lon="-3.40547">
        <ele>34</ele>
        <time>2019-07-17T14:14:57Z</time>
      </trkpt>
      <trkpt lat="47.78668" lon="-3.40544">
        <ele>34</ele>
        <time>2019-07-17T14:14:58Z</time>
      </trkpt>
      <trkpt lat="47.7867" lon="-3.4054">
        <ele>34</ele>
        <time>2019-07-17T14:14:59Z</time>
      </trkpt>
      <trkpt lat="47.78673" lon="-3.40536">
        <ele>34</ele>
        <time>2019-07-17T14:15:00Z</time>
      </trkpt>
      <trkpt lat="47.78676" lon="-3.40531">
        <ele>33</ele>
        <time>2019-07-17T14:15:01Z</time>
      </trkpt>
      <trkpt lat="47.78679" lon="-3.40525">
        <ele>33</ele>
        <time>2019-07-17T14:15:02Z</time>
      </trkpt>
      <trkpt lat="47.78681" lon="-3.40519">
        <ele>33</ele>
        <time>2019-07-17T14:15:03Z</time>
      </trkpt>
      <trkpt lat="47.78684" lon="-3.40513">
        <ele>33</ele>
        <time>2019-07-17T14:15:04Z</time>
      </trkpt>
      <trkpt lat="47.78686" lon="-3.40507">
        <ele>33</ele>
        <time>2019-07-17T14:15:05Z</time>
      </trkpt>
      <trkpt lat="47.78688" lon="-3.40502">
        <ele>33</ele>
        <time>2019-07-17T14:15:06Z</time>
      </trkpt>
      <trkpt lat="47.78689" lon="-3.4049">
        <ele>33</ele>
        <time>2019-07-17T14:15:07Z</time>
      </trkpt>
      <trkpt lat="47.78689" lon="-3.4049">
        <ele>33</ele>
        <time>2019-07-17T14:15:08Z</time>
      </trkpt>
      <trkpt lat="47.78689" lon="-3.40484">
        <ele>33</ele>
        <time>2019-07-17T14:15:09Z</time>
      </trkpt>
      <trkpt lat="47.7869" lon="-3.40479">
        <ele>33</ele>
        <time>2019-07-17T14:15:10Z</time>
      </trkpt>
      <trkpt lat="47.7869" lon="-3.40474">
        <ele>32</ele>
        <time>2019-07-17T14:15:11Z</time>
      </trkpt>
      <trkpt lat="47.78689" lon="-3.40469">
        <ele>32</ele>
        <time>2019-07-17T14:15:12Z</time>
      </trkpt>
      <trkpt lat="47.78689" lon="-3.40463">
        <ele>32</ele>
        <time>2019-07-17T14:15:13Z</time>
      </trkpt>
      <trkpt lat="47.78688" lon="-3.40457">
        <ele>32</ele>
        <time>2019-07-17T14:15:14Z</time>
      </trkpt>
      <trkpt lat="47.78687" lon="-3.40451">
        <ele>32</ele>
        <time>2019-07-17T14:15:15Z</time>
      </trkpt>
      <trkpt lat="47.78686" lon="-3.40445">
        <ele>32</ele>
        <time>2019-07-17T14:15:16Z</time>
      </trkpt>
      <trkpt lat="47.78685" lon="-3.40439">
        <ele>32</ele>
        <time>2019-07-17T14:15:17Z</time>
      </trkpt>
      <trkpt lat="47.78685" lon="-3.40432">
        <ele>32</ele>
        <time>2019-07-17T14:15:18Z</time>
      </trkpt>
      <trkpt lat="47.78685" lon="-3.40426">
        <ele>31</ele>
        <time>2019-07-17T14:15:19Z</time>
      </trkpt>
      <trkpt lat="47.78685" lon="-3.4042">
        <ele>31</ele>
        <time>2019-07-17T14:15:20Z</time>
      </trkpt>
      <trkpt lat="47.78685" lon="-3.40413">
        <ele>31</ele>
        <time>2019-07-17T14:15:21Z</time>
      </trkpt>
      <trkpt lat="47.78684" lon="-3.40407">
        <ele>31</ele>
        <time>2019-07-17T14:15:22Z</time>
      </trkpt>
      <trkpt lat="47.78684" lon="-3.40402">
        <ele>31</ele>
        <time>2019-07-17T14:15:23Z</time>
      </trkpt>
      <trkpt lat="47.78682" lon="-3.40396">
        <ele>31</ele>
        <time>2019-07-17T14:15:24Z</time>
      </trkpt>
      <trkpt lat="47.78681" lon="-3.40389">
        <ele>31</ele>
        <time>2019-07-17T14:15:25Z</time>
      </trkpt>
      <trkpt lat="47.78681" lon="-3.40382">
        <ele>30</ele>
        <time>2019-07-17T14:15:26Z</time>
      </trkpt>
      <trkpt lat="47.78679" lon="-3.40375">
        <ele>30</ele>
        <time>2019-07-17T14:15:27Z</time>
      </trkpt>
      <trkpt lat="47.78679" lon="-3.40367">
        <ele>30</ele>
        <time>2019-07-17T14:15:28Z</time>
      </trkpt>
      <trkpt lat="47.78678" lon="-3.40361">
        <ele>30</ele>
        <time>2019-07-17T14:15:29Z</time>
      </trkpt>
      <trkpt lat="47.78677" lon="-3.40354">
        <ele>30</ele>
        <time>2019-07-17T14:15:30Z</time>
      </trkpt>
      <trkpt lat="47.78676" lon="-3.40347">
        <ele>29</ele>
        <time>2019-07-17T14:15:31Z</time>
      </trkpt>
      <trkpt lat="47.78676" lon="-3.40339">
        <ele>29</ele>
        <time>2019-07-17T14:15:32Z</time>
      </trkpt>
      <trkpt lat="47.78675" lon="-3.40331">
        <ele>29</ele>
        <time>2019-07-17T14:15:33Z</time>
      </trkpt>
      <trkpt lat="47.78673" lon="-3.40323">
        <ele>29</ele>
        <time>2019-07-17T14:15:34Z</time>
      </trkpt>
      <trkpt lat="47.78672" lon="-3.40315">
        <ele>29</ele>
        <time>2019-07-17T14:15:35Z</time>
      </trkpt>
      <trkpt lat="47.7867" lon="-3.40307">
        <ele>28</ele>
        <time>2019-07-17T14:15:36Z</time>
      </trkpt>
      <trkpt lat="47.78668" lon="-3.40298">
        <ele>28</ele>
        <time>2019-07-17T14:15:37Z</time>
      </trkpt>
      <trkpt lat="47.78667" lon="-3.4029">
        <ele>28</ele>
        <time>2019-07-17T14:15:38Z</time>
      </trkpt>
      <trkpt lat="47.78665" lon="-3.40281">
        <ele>28</ele>
        <time>2019-07-17T14:15:39Z</time>
      </trkpt>
      <trkpt lat="47.78664" lon="-3.40273">
        <ele>28</ele>
        <time>2019-07-17T14:15:40Z</time>
      </trkpt>
      <trkpt lat="47.78663" lon="-3.40266">
        <ele>28</ele>
        <time>2019-07-17T14:15:41Z</time>
      </trkpt>
      <trkpt lat="47.78662" lon="-3.40259">
        <ele>27</ele>
        <time>2019-07-17T14:15:42Z</time>
      </trkpt>
      <trkpt lat="47.78662" lon="-3.40253">
        <ele>27</ele>
        <time>2019-07-17T14:15:43Z</time>
      </trkpt>
      <trkpt lat="47.78661" lon="-3.40246">
        <ele>27</ele>
        <time>2019-07-17T14:15:44Z</time>
      </trkpt>
      <trkpt lat="47.7866" lon="-3.4024">
        <ele>27</ele>
        <time>2019-07-17T14:15:45Z</time>
      </trkpt>
      <trkpt lat="47.78659" lon="-3.40232">
        <ele>27</ele>
        <time>2019-07-17T14:15:46Z</time>
      </trkpt>
      <trkpt lat="47.78658" lon="-3.40226">
        <ele>27</ele>
        <time>2019-07-17T14:15:47Z</time>
      </trkpt>
      <trkpt lat="47.78658" lon="-3.40218">
        <ele>27</ele>
        <time>2019-07-17T14:15:48Z</time>
      </trkpt>
      <trkpt lat="47.78657" lon="-3.40211">
        <ele>27</ele>
        <time>2019-07-17T14:15:49Z</time>
      </trkpt>
      <trkpt lat="47.78655" lon="-3.40202">
        <ele>27</ele>
        <time>2019-07-17T14:15:50Z</time>
      </trkpt>
      <trkpt lat="47.78654" lon="-3.40194">
        <ele>27</ele>
        <time>2019-07-17T14:15:51Z</time>
      </trkpt>
      <trkpt lat="47.78653" lon="-3.40186">
        <ele>26</ele>
        <time>2019-07-17T14:15:52Z</time>
      </trkpt>
      <trkpt lat="47.7865" lon="-3.40178">
        <ele>26</ele>
        <time>2019-07-17T14:15:53Z</time>
      </trkpt>
      <trkpt lat="47.78648" lon="-3.40169">
        <ele>26</ele>
        <time>2019-07-17T14:15:54Z</time>
      </trkpt>
      <trkpt lat="47.78646" lon="-3.40161">
        <ele>26</ele>
        <time>2019-07-17T14:15:55Z</time>
      </trkpt>
      <trkpt lat="47.78643" lon="-3.40154">
        <ele>26</ele>
        <time>2019-07-17T14:15:56Z</time>
      </trkpt>
      <trkpt lat="47.78641" lon="-3.40147">
        <ele>26</ele>
        <time>2019-07-17T14:15:57Z</time>
      </trkpt>
      <trkpt lat="47.78638" lon="-3.40139">
        <ele>26</ele>
        <time>2019-07-17T14:15:58Z</time>
      </trkpt>
      <trkpt lat="47.78635" lon="-3.40132">
        <ele>26</ele>
        <time>2019-07-17T14:15:59Z</time>
      </trkpt>
      <trkpt lat="47.78633" lon="-3.40125">
        <ele>26</ele>
        <time>2019-07-17T14:16:00Z</time>
      </trkpt>
      <trkpt lat="47.7863" lon="-3.40118">
        <ele>26</ele>
        <time>2019-07-17T14:16:01Z</time>
      </trkpt>
      <trkpt lat="47.78628" lon="-3.40111">
        <ele>26</ele>
        <time>2019-07-17T14:16:02Z</time>
      </trkpt>
      <trkpt lat="47.78626" lon="-3.40104">
        <ele>26</ele>
        <time>2019-07-17T14:16:03Z</time>
      </trkpt>
      <trkpt lat="47.78624" lon="-3.40097">
        <ele>26</ele>
        <time>2019-07-17T14:16:04Z</time>
      </trkpt>
      <trkpt lat="47.78623" lon="-3.4009">
        <ele>26</ele>
        <time>2019-07-17T14:16:05Z</time>
      </trkpt>
      <trkpt lat="47.78622" lon="-3.40084">
        <ele>26</ele>
        <time>2019-07-17T14:16:06Z</time>
      </trkpt>
      <trkpt lat="47.78622" lon="-3.4008">
        <ele>26</ele>
        <time>2019-07-17T14:16:07Z</time>
      </trkpt>
      <trkpt lat="47.7862" lon="-3.40076">
        <ele>26</ele>
        <time>2019-07-17T14:16:08Z</time>
      </trkpt>
      <trkpt lat="47.78619" lon="-3.40073">
        <ele>26</ele>
        <time>2019-07-17T14:16:09Z</time>
      </trkpt>
      <trkpt lat="47.78616" lon="-3.4007">
        <ele>26</ele>
        <time>2019-07-17T14:16:10Z</time>
      </trkpt>
      <trkpt lat="47.78612" lon="-3.40068">
        <ele>26</ele>
        <time>2019-07-17T14:16:11Z</time>
      </trkpt>
      <trkpt lat="47.78607" lon="-3.40067">
        <ele>26</ele>
        <time>2019-07-17T14:16:12Z</time>
      </trkpt>
      <trkpt lat="47.78603" lon="-3.40068">
        <ele>26</ele>
        <time>2019-07-17T14:16:13Z</time>
      </trkpt>
      <trkpt lat="47.78598" lon="-3.40068">
        <ele>26</ele>
        <time>2019-07-17T14:16:14Z</time>
      </trkpt>
      <trkpt lat="47.78593" lon="-3.40067">
        <ele>26</ele>
        <time>2019-07-17T14:16:15Z</time>
      </trkpt>
      <trkpt lat="47.78589" lon="-3.40065">
        <ele>26</ele>
        <time>2019-07-17T14:16:16Z</time>
      </trkpt>
      <trkpt lat="47.78587" lon="-3.40062">
        <ele>26</ele>
        <time>2019-07-17T14:16:17Z</time>
      </trkpt>
      <trkpt lat="47.78587" lon="-3.40058">
        <ele>26</ele>
        <time>2019-07-17T14:16:18Z</time>
      </trkpt>
      <trkpt lat="47.78586" lon="-3.40054">
        <ele>26</ele>
        <time>2019-07-17T14:16:19Z</time>
      </trkpt>
      <trkpt lat="47.78585" lon="-3.40049">
        <ele>26</ele>
        <time>2019-07-17T14:16:20Z</time>
      </trkpt>
      <trkpt lat="47.78584" lon="-3.40044">
        <ele>27</ele>
        <time>2019-07-17T14:16:21Z</time>
      </trkpt>
      <trkpt lat="47.78583" lon="-3.4004">
        <ele>27</ele>
        <time>2019-07-17T14:16:22Z</time>
      </trkpt>
      <trkpt lat="47.78582" lon="-3.40036">
        <ele>27</ele>
        <time>2019-07-17T14:16:23Z</time>
      </trkpt>
      <trkpt lat="47.78582" lon="-3.40033">
        <ele>27</ele>
        <time>2019-07-17T14:16:24Z</time>
      </trkpt>
      <trkpt lat="47.78581" lon="-3.4003">
        <ele>28</ele>
        <time>2019-07-17T14:16:25Z</time>
      </trkpt>
      <trkpt lat="47.78581" lon="-3.40028">
        <ele>28</ele>
        <time>2019-07-17T14:16:26Z</time>
      </trkpt>
      <trkpt lat="47.78581" lon="-3.40027">
        <ele>28</ele>
        <time>2019-07-17T14:16:27Z</time>
      </trkpt>
      <trkpt lat="47.7858" lon="-3.40025">
        <ele>29</ele>
        <time>2019-07-17T14:16:28Z</time>
      </trkpt>
      <trkpt lat="47.7858" lon="-3.40025">
        <ele>29</ele>
        <time>2019-07-17T14:16:29Z</time>
      </trkpt>
      <trkpt lat="47.7858" lon="-3.40023">
        <ele>29</ele>
        <time>2019-07-17T14:16:30Z</time>
      </trkpt>
      <trkpt lat="47.7858" lon="-3.40022">
        <ele>29</ele>
        <time>2019-07-17T14:16:31Z</time>
      </trkpt>
      <trkpt lat="47.78579" lon="-3.4002">
        <ele>29</ele>
        <time>2019-07-17T14:16:32Z</time>
      </trkpt>
      <trkpt lat="47.78579" lon="-3.40018">
        <ele>30</ele>
        <time>2019-07-17T14:16:33Z</time>
      </trkpt>
      <trkpt lat="47.78579" lon="-3.40016">
        <ele>30</ele>
        <time>2019-07-17T14:16:34Z</time>
      </trkpt>
      <trkpt lat="47.78578" lon="-3.40013">
        <ele>30</ele>
        <time>2019-07-17T14:16:35Z</time>
      </trkpt>
      <trkpt lat="47.78577" lon="-3.4001">
        <ele>31</ele>
        <time>2019-07-17T14:16:36Z</time>
      </trkpt>
      <trkpt lat="47.78577" lon="-3.40006">
        <ele>31</ele>
        <time>2019-07-17T14:16:37Z</time>
      </trkpt>
      <trkpt lat="47.78576" lon="-3.40002">
        <ele>31</ele>
        <time>2019-07-17T14:16:38Z</time>
      </trkpt>
      <trkpt lat="47.78576" lon="-3.39996">
        <ele>31</ele>
        <time>2019-07-17T14:16:39Z</time>
      </trkpt>
      <trkpt lat="47.78576" lon="-3.3999">
        <ele>31</ele>
        <time>2019-07-17T14:16:40Z</time>
      </trkpt>
      <trkpt lat="47.78575" lon="-3.39982">
        <ele>32</ele>
        <time>2019-07-17T14:16:41Z</time>
      </trkpt>
      <trkpt lat="47.78574" lon="-3.39973">
        <ele>32</ele>
        <time>2019-07-17T14:16:42Z</time>
      </trkpt>
      <trkpt lat="47.78573" lon="-3.39965">
        <ele>32</ele>
        <time>2019-07-17T14:16:43Z</time>
      </trkpt>
      <trkpt lat="47.78572" lon="-3.39956">
        <ele>33</ele>
        <time>2019-07-17T14:16:44Z</time>
      </trkpt>
      <trkpt lat="47.7857" lon="-3.39948">
        <ele>33</ele>
        <time>2019-07-17T14:16:45Z</time>
      </trkpt>
      <trkpt lat="47.78569" lon="-3.39939">
        <ele>33</ele>
        <time>2019-07-17T14:16:46Z</time>
      </trkpt>
      <trkpt lat="47.78567" lon="-3.39932">
        <ele>33</ele>
        <time>2019-07-17T14:16:47Z</time>
      </trkpt>
      <trkpt lat="47.78566" lon="-3.39924">
        <ele>33</ele>
        <time>2019-07-17T14:16:48Z</time>
      </trkpt>
      <trkpt lat="47.78565" lon="-3.39917">
        <ele>33</ele>
        <time>2019-07-17T14:16:49Z</time>
      </trkpt>
      <trkpt lat="47.78564" lon="-3.3991">
        <ele>32</ele>
        <time>2019-07-17T14:16:50Z</time>
      </trkpt>
      <trkpt lat="47.78565" lon="-3.39903">
        <ele>32</ele>
        <time>2019-07-17T14:16:51Z</time>
      </trkpt>
      <trkpt lat="47.78565" lon="-3.39896">
        <ele>32</ele>
        <time>2019-07-17T14:16:52Z</time>
      </trkpt>
      <trkpt lat="47.78566" lon="-3.39883">
        <ele>32</ele>
        <time>2019-07-17T14:16:53Z</time>
      </trkpt>
      <trkpt lat="47.78566" lon="-3.39883">
        <ele>32</ele>
        <time>2019-07-17T14:16:54Z</time>
      </trkpt>
      <trkpt lat="47.78567" lon="-3.39876">
        <ele>31</ele>
        <time>2019-07-17T14:16:55Z</time>
      </trkpt>
      <trkpt lat="47.78568" lon="-3.3987">
        <ele>31</ele>
        <time>2019-07-17T14:16:56Z</time>
      </trkpt>
      <trkpt lat="47.7857" lon="-3.39863">
        <ele>31</ele>
        <time>2019-07-17T14:16:57Z</time>
      </trkpt>
      <trkpt lat="47.78571" lon="-3.39857">
        <ele>31</ele>
        <time>2019-07-17T14:16:58Z</time>
      </trkpt>
      <trkpt lat="47.78571" lon="-3.3985">
        <ele>30</ele>
        <time>2019-07-17T14:16:59Z</time>
      </trkpt>
      <trkpt lat="47.7857" lon="-3.39843">
        <ele>30</ele>
        <time>2019-07-17T14:17:00Z</time>
      </trkpt>
      <trkpt lat="47.78569" lon="-3.39839">
        <ele>30</ele>
        <time>2019-07-17T14:17:01Z</time>
      </trkpt>
      <trkpt lat="47.78569" lon="-3.39835">
        <ele>30</ele>
        <time>2019-07-17T14:17:02Z</time>
      </trkpt>
      <trkpt lat="47.7857" lon="-3.39832">
        <ele>30</ele>
        <time>2019-07-17T14:17:03Z</time>
      </trkpt>
      <trkpt lat="47.7857" lon="-3.39828">
        <ele>30</ele>
        <time>2019-07-17T14:17:04Z</time>
      </trkpt>
      <trkpt lat="47.78572" lon="-3.39824">
        <ele>30</ele>
        <time>2019-07-17T14:17:05Z</time>
      </trkpt>
      <trkpt lat="47.78573" lon="-3.39818">
        <ele>30</ele>
        <time>2019-07-17T14:17:06Z</time>
      </trkpt>
      <trkpt lat="47.78575" lon="-3.39814">
        <ele>29</ele>
        <time>2019-07-17T14:17:07Z</time>
      </trkpt>
      <trkpt lat="47.78577" lon="-3.39808">
        <ele>29</ele>
        <time>2019-07-17T14:17:08Z</time>
      </trkpt>
      <trkpt lat="47.78579" lon="-3.39803">
        <ele>29</ele>
        <time>2019-07-17T14:17:09Z</time>
      </trkpt>
      <trkpt lat="47.7858" lon="-3.39797">
        <ele>29</ele>
        <time>2019-07-17T14:17:10Z</time>
      </trkpt>
      <trkpt lat="47.78581" lon="-3.3979">
        <ele>29</ele>
        <time>2019-07-17T14:17:11Z</time>
      </trkpt>
      <trkpt lat="47.78582" lon="-3.39785">
        <ele>29</ele>
        <time>2019-07-17T14:17:12Z</time>
      </trkpt>
      <trkpt lat="47.78583" lon="-3.39781">
        <ele>29</ele>
        <time>2019-07-17T14:17:13Z</time>
      </trkpt>
      <trkpt lat="47.78584" lon="-3.39775">
        <ele>29</ele>
        <time>2019-07-17T14:17:14Z</time>
      </trkpt>
      <trkpt lat="47.78585" lon="-3.3977">
        <ele>29</ele>
        <time>2019-07-17T14:17:15Z</time>
      </trkpt>
      <trkpt lat="47.78584" lon="-3.39764">
        <ele>29</ele>
        <time>2019-07-17T14:17:16Z</time>
      </trkpt>
      <trkpt lat="47.78583" lon="-3.39759">
        <ele>29</ele>
        <time>2019-07-17T14:17:17Z</time>
      </trkpt>
      <trkpt lat="47.78582" lon="-3.39753">
        <ele>29</ele>
        <time>2019-07-17T14:17:18Z</time>
      </trkpt>
      <trkpt lat="47.78582" lon="-3.39748">
        <ele>29</ele>
        <time>2019-07-17T14:17:19Z</time>
      </trkpt>
      <trkpt lat="47.7858" lon="-3.39743">
        <ele>29</ele>
        <time>2019-07-17T14:17:20Z</time>
      </trkpt>
      <trkpt lat="47.78578" lon="-3.39738">
        <ele>29</ele>
        <time>2019-07-17T14:17:21Z</time>
      </trkpt>
      <trkpt lat="47.78576" lon="-3.39733">
        <ele>29</ele>
        <time>2019-07-17T14:17:22Z</time>
      </trkpt>
      <trkpt lat="47.78576" lon="-3.39729">
        <ele>29</ele>
        <time>2019-07-17T14:17:23Z</time>
      </trkpt>
      <trkpt lat="47.78576" lon="-3.39723">
        <ele>29</ele>
        <time>2019-07-17T14:17:24Z</time>
      </trkpt>
      <trkpt lat="47.78574" lon="-3.39718">
        <ele>29</ele>
        <time>2019-07-17T14:17:25Z</time>
      </trkpt>
      <trkpt lat="47.78572" lon="-3.39713">
        <ele>29</ele>
        <time>2019-07-17T14:17:26Z</time>
      </trkpt>
      <trkpt lat="47.78569" lon="-3.39709">
        <ele>29</ele>
        <time>2019-07-17T14:17:27Z</time>
      </trkpt>
      <trkpt lat="47.78565" lon="-3.39706">
        <ele>29</ele>
        <time>2019-07-17T14:17:28Z</time>
      </trkpt>
      <trkpt lat="47.78563" lon="-3.397">
        <ele>29</ele>
        <time>2019-07-17T14:17:29Z</time>
      </trkpt>
      <trkpt lat="47.78561" lon="-3.39695">
        <ele>29</ele>
        <time>2019-07-17T14:17:30Z</time>
      </trkpt>
      <trkpt lat="47.7856" lon="-3.3969">
        <ele>29</ele>
        <time>2019-07-17T14:17:31Z</time>
      </trkpt>
      <trkpt lat="47.78557" lon="-3.39685">
        <ele>29</ele>
        <time>2019-07-17T14:17:32Z</time>
      </trkpt>
      <trkpt lat="47.78555" lon="-3.39679">
        <ele>29</ele>
        <time>2019-07-17T14:17:33Z</time>
      </trkpt>
      <trkpt lat="47.78552" lon="-3.39673">
        <ele>29</ele>
        <time>2019-07-17T14:17:34Z</time>
      </trkpt>
      <trkpt lat="47.7855" lon="-3.39667">
        <ele>29</ele>
        <time>2019-07-17T14:17:35Z</time>
      </trkpt>
      <trkpt lat="47.78549" lon="-3.39662">
        <ele>29</ele>
        <time>2019-07-17T14:17:36Z</time>
      </trkpt>
      <trkpt lat="47.78548" lon="-3.39657">
        <ele>29</ele>
        <time>2019-07-17T14:17:37Z</time>
      </trkpt>
      <trkpt lat="47.78548" lon="-3.39652">
        <ele>29</ele>
        <time>2019-07-17T14:17:38Z</time>
      </trkpt>
      <trkpt lat="47.78549" lon="-3.39647">
        <ele>29</ele>
        <time>2019-07-17T14:17:39Z</time>
      </trkpt>
      <trkpt lat="47.7855" lon="-3.39639">
        <ele>29</ele>
        <time>2019-07-17T14:17:40Z</time>
      </trkpt>
      <trkpt lat="47.7855" lon="-3.3963">
        <ele>29</ele>
        <time>2019-07-17T14:17:41Z</time>
      </trkpt>
      <trkpt lat="47.7855" lon="-3.39621">
        <ele>29</ele>
        <time>2019-07-17T14:17:42Z</time>
      </trkpt>
      <trkpt lat="47.78549" lon="-3.39612">
        <ele>29</ele>
        <time>2019-07-17T14:17:43Z</time>
      </trkpt>
      <trkpt lat="47.78547" lon="-3.39604">
        <ele>29</ele>
        <time>2019-07-17T14:17:44Z</time>
      </trkpt>
      <trkpt lat="47.78545" lon="-3.39595">
        <ele>29</ele>
        <time>2019-07-17T14:17:45Z</time>
      </trkpt>
      <trkpt lat="47.78542" lon="-3.39588">
        <ele>29</ele>
        <time>2019-07-17T14:17:46Z</time>
      </trkpt>
      <trkpt lat="47.7854" lon="-3.39581">
        <ele>29</ele>
        <time>2019-07-17T14:17:47Z</time>
      </trkpt>
      <trkpt lat="47.78538" lon="-3.39574">
        <ele>29</ele>
        <time>2019-07-17T14:17:48Z</time>
      </trkpt>
      <trkpt lat="47.78537" lon="-3.39569">
        <ele>29</ele>
        <time>2019-07-17T14:17:49Z</time>
      </trkpt>
      <trkpt lat="47.78537" lon="-3.39565">
        <ele>29</ele>
        <time>2019-07-17T14:17:50Z</time>
      </trkpt>
      <trkpt lat="47.78536" lon="-3.39562">
        <ele>29</ele>
        <time>2019-07-17T14:17:51Z</time>
      </trkpt>
      <trkpt lat="47.78535" lon="-3.39558">
        <ele>29</ele>
        <time>2019-07-17T14:17:52Z</time>
      </trkpt>
      <trkpt lat="47.78535" lon="-3.39553">
        <ele>29</ele>
        <time>2019-07-17T14:17:53Z</time>
      </trkpt>
      <trkpt lat="47.78536" lon="-3.3955">
        <ele>29</ele>
        <time>2019-07-17T14:17:54Z</time>
      </trkpt>
      <trkpt lat="47.78536" lon="-3.39548">
        <ele>29</ele>
        <time>2019-07-17T14:17:55Z</time>
      </trkpt>
      <trkpt lat="47.78536" lon="-3.39548">
        <ele>29</ele>
        <time>2019-07-17T14:17:56Z</time>
      </trkpt>
      <trkpt lat="47.78536" lon="-3.39547">
        <ele>29</ele>
        <time>2019-07-17T14:17:57Z</time>
      </trkpt>
      <trkpt lat="47.78536" lon="-3.39543">
        <ele>30</ele>
        <time>2019-07-17T14:17:58Z</time>
      </trkpt>
      <trkpt lat="47.78535" lon="-3.3954">
        <ele>31</ele>
        <time>2019-07-17T14:17:59Z</time>
      </trkpt>
      <trkpt lat="47.78534" lon="-3.39537">
        <ele>31</ele>
        <time>2019-07-17T14:18:00Z</time>
      </trkpt>
      <trkpt lat="47.78532" lon="-3.39533">
        <ele>31</ele>
        <time>2019-07-17T14:18:01Z</time>
      </trkpt>
      <trkpt lat="47.78531" lon="-3.39531">
        <ele>31</ele>
        <time>2019-07-17T14:18:02Z</time>
      </trkpt>
      <trkpt lat="47.7853" lon="-3.3953">
        <ele>31</ele>
        <time>2019-07-17T14:18:03Z</time>
      </trkpt>
      <trkpt lat="47.7853" lon="-3.39529">
        <ele>31</ele>
        <time>2019-07-17T14:18:04Z</time>
      </trkpt>
      <trkpt lat="47.7853" lon="-3.39529">
        <ele>31</ele>
        <time>2019-07-17T14:18:05Z</time>
      </trkpt>
      <trkpt lat="47.7853" lon="-3.39528">
        <ele>31</ele>
        <time>2019-07-17T14:18:06Z</time>
      </trkpt>
      <trkpt lat="47.7853" lon="-3.39528">
        <ele>31</ele>
        <time>2019-07-17T14:18:07Z</time>
      </trkpt>
      <trkpt lat="47.78535" lon="-3.39531">
        <ele>32</ele>
        <time>2019-07-17T14:18:08Z</time>
      </trkpt>
      <trkpt lat="47.78537" lon="-3.39533">
        <ele>32</ele>
        <time>2019-07-17T14:18:09Z</time>
      </trkpt>
      <trkpt lat="47.78539" lon="-3.39535">
        <ele>32</ele>
        <time>2019-07-17T14:18:10Z</time>
      </trkpt>
      <trkpt lat="47.7854" lon="-3.39536">
        <ele>32</ele>
        <time>2019-07-17T14:18:11Z</time>
      </trkpt>
      <trkpt lat="47.78543" lon="-3.39536">
        <ele>32</ele>
        <time>2019-07-17T14:18:12Z</time>
      </trkpt>
      <trkpt lat="47.78545" lon="-3.39535">
        <ele>32</ele>
        <time>2019-07-17T14:18:13Z</time>
      </trkpt>
      <trkpt lat="47.78547" lon="-3.39535">
        <ele>32</ele>
        <time>2019-07-17T14:18:14Z</time>
      </trkpt>
      <trkpt lat="47.78549" lon="-3.39534">
        <ele>32</ele>
        <time>2019-07-17T14:18:15Z</time>
      </trkpt>
      <trkpt lat="47.78551" lon="-3.39533">
        <ele>32</ele>
        <time>2019-07-17T14:18:16Z</time>
      </trkpt>
      <trkpt lat="47.78553" lon="-3.39533">
        <ele>32</ele>
        <time>2019-07-17T14:18:17Z</time>
      </trkpt>
      <trkpt lat="47.78555" lon="-3.39532">
        <ele>32</ele>
        <time>2019-07-17T14:18:18Z</time>
      </trkpt>
      <trkpt lat="47.78557" lon="-3.39532">
        <ele>32</ele>
        <time>2019-07-17T14:18:19Z</time>
      </trkpt>
      <trkpt lat="47.78559" lon="-3.39531">
        <ele>32</ele>
        <time>2019-07-17T14:18:20Z</time>
      </trkpt>
      <trkpt lat="47.78561" lon="-3.3953">
        <ele>32</ele>
        <time>2019-07-17T14:18:21Z</time>
      </trkpt>
      <trkpt lat="47.78563" lon="-3.39528">
        <ele>32</ele>
        <time>2019-07-17T14:18:22Z</time>
      </trkpt>
      <trkpt lat="47.78565" lon="-3.39526">
        <ele>32</ele>
        <time>2019-07-17T14:18:23Z</time>
      </trkpt>
      <trkpt lat="47.78567" lon="-3.39523">
        <ele>32</ele>
        <time>2019-07-17T14:18:24Z</time>
      </trkpt>
      <trkpt lat="47.78567" lon="-3.39521">
        <ele>32</ele>
        <time>2019-07-17T14:18:25Z</time>
      </trkpt>
      <trkpt lat="47.78567" lon="-3.39519">
        <ele>33</ele>
        <time>2019-07-17T14:18:26Z</time>
      </trkpt>
      <trkpt lat="47.78566" lon="-3.39517">
        <ele>33</ele>
        <time>2019-07-17T14:18:27Z</time>
      </trkpt>
      <trkpt lat="47.78565" lon="-3.39515">
        <ele>33</ele>
        <time>2019-07-17T14:18:28Z</time>
      </trkpt>
      <trkpt lat="47.78564" lon="-3.39513">
        <ele>33</ele>
        <time>2019-07-17T14:18:29Z</time>
      </trkpt>
      <trkpt lat="47.78563" lon="-3.3951">
        <ele>33</ele>
        <time>2019-07-17T14:18:30Z</time>
      </trkpt>
      <trkpt lat="47.78562" lon="-3.39508">
        <ele>33</ele>
        <time>2019-07-17T14:18:31Z</time>
      </trkpt>
      <trkpt lat="47.78561" lon="-3.39506">
        <ele>33</ele>
        <time>2019-07-17T14:18:32Z</time>
      </trkpt>
      <trkpt lat="47.7856" lon="-3.39503">
        <ele>33</ele>
        <time>2019-07-17T14:18:33Z</time>
      </trkpt>
      <trkpt lat="47.78559" lon="-3.395">
        <ele>33</ele>
        <time>2019-07-17T14:18:34Z</time>
      </trkpt>
      <trkpt lat="47.78558" lon="-3.39496">
        <ele>33</ele>
        <time>2019-07-17T14:18:35Z</time>
      </trkpt>
      <trkpt lat="47.78557" lon="-3.39493">
        <ele>33</ele>
        <time>2019-07-17T14:18:36Z</time>
      </trkpt>
      <trkpt lat="47.78555" lon="-3.3949">
        <ele>33</ele>
        <time>2019-07-17T14:18:37Z</time>
      </trkpt>
      <trkpt lat="47.78553" lon="-3.39486">
        <ele>33</ele>
        <time>2019-07-17T14:18:38Z</time>
      </trkpt>
      <trkpt lat="47.7855" lon="-3.39483">
        <ele>33</ele>
        <time>2019-07-17T14:18:39Z</time>
      </trkpt>
      <trkpt lat="47.78548" lon="-3.39479">
        <ele>33</ele>
        <time>2019-07-17T14:18:40Z</time>
      </trkpt>
      <trkpt lat="47.78546" lon="-3.39474">
        <ele>33</ele>
        <time>2019-07-17T14:18:41Z</time>
      </trkpt>
      <trkpt lat="47.78544" lon="-3.3947">
        <ele>33</ele>
        <time>2019-07-17T14:18:42Z</time>
      </trkpt>
      <trkpt lat="47.78541" lon="-3.39465">
        <ele>33</ele>
        <time>2019-07-17T14:18:43Z</time>
      </trkpt>
      <trkpt lat="47.7854" lon="-3.3946">
        <ele>33</ele>
        <time>2019-07-17T14:18:44Z</time>
      </trkpt>
      <trkpt lat="47.78537" lon="-3.39454">
        <ele>33</ele>
        <time>2019-07-17T14:18:45Z</time>
      </trkpt>
      <trkpt lat="47.78535" lon="-3.39449">
        <ele>33</ele>
        <time>2019-07-17T14:18:46Z</time>
      </trkpt>
      <trkpt lat="47.78531" lon="-3.39443">
        <ele>32</ele>
        <time>2019-07-17T14:18:47Z</time>
      </trkpt>
      <trkpt lat="47.78528" lon="-3.39437">
        <ele>32</ele>
        <time>2019-07-17T14:18:48Z</time>
      </trkpt>
      <trkpt lat="47.78526" lon="-3.39432">
        <ele>33</ele>
        <time>2019-07-17T14:18:49Z</time>
      </trkpt>
      <trkpt lat="47.78524" lon="-3.39427">
        <ele>33</ele>
        <time>2019-07-17T14:18:50Z</time>
      </trkpt>
      <trkpt lat="47.78523" lon="-3.39424">
        <ele>33</ele>
        <time>2019-07-17T14:18:51Z</time>
      </trkpt>
      <trkpt lat="47.78522" lon="-3.3942">
        <ele>33</ele>
        <time>2019-07-17T14:18:52Z</time>
      </trkpt>
      <trkpt lat="47.78519" lon="-3.39416">
        <ele>33</ele>
        <time>2019-07-17T14:18:53Z</time>
      </trkpt>
      <trkpt lat="47.78517" lon="-3.39412">
        <ele>33</ele>
        <time>2019-07-17T14:18:54Z</time>
      </trkpt>
      <trkpt lat="47.78514" lon="-3.39408">
        <ele>33</ele>
        <time>2019-07-17T14:18:55Z</time>
      </trkpt>
      <trkpt lat="47.7851" lon="-3.39403">
        <ele>33</ele>
        <time>2019-07-17T14:18:56Z</time>
      </trkpt>
      <trkpt lat="47.78507" lon="-3.39397">
        <ele>33</ele>
        <time>2019-07-17T14:18:57Z</time>
      </trkpt>
      <trkpt lat="47.78505" lon="-3.39392">
        <ele>33</ele>
        <time>2019-07-17T14:18:58Z</time>
      </trkpt>
      <trkpt lat="47.78502" lon="-3.39387">
        <ele>33</ele>
        <time>2019-07-17T14:18:59Z</time>
      </trkpt>
      <trkpt lat="47.785" lon="-3.39381">
        <ele>33</ele>
        <time>2019-07-17T14:19:00Z</time>
      </trkpt>
      <trkpt lat="47.78497" lon="-3.39374">
        <ele>33</ele>
        <time>2019-07-17T14:19:01Z</time>
      </trkpt>
      <trkpt lat="47.78495" lon="-3.39367">
        <ele>33</ele>
        <time>2019-07-17T14:19:02Z</time>
      </trkpt>
      <trkpt lat="47.78494" lon="-3.39361">
        <ele>33</ele>
        <time>2019-07-17T14:19:03Z</time>
      </trkpt>
      <trkpt lat="47.78493" lon="-3.39355">
        <ele>33</ele>
        <time>2019-07-17T14:19:04Z</time>
      </trkpt>
      <trkpt lat="47.78492" lon="-3.39347">
        <ele>33</ele>
        <time>2019-07-17T14:19:05Z</time>
      </trkpt>
      <trkpt lat="47.7849" lon="-3.39339">
        <ele>33</ele>
        <time>2019-07-17T14:19:06Z</time>
      </trkpt>
      <trkpt lat="47.78489" lon="-3.39332">
        <ele>33</ele>
        <time>2019-07-17T14:19:07Z</time>
      </trkpt>
      <trkpt lat="47.78487" lon="-3.39323">
        <ele>32</ele>
        <time>2019-07-17T14:19:08Z</time>
      </trkpt>
      <trkpt lat="47.78485" lon="-3.39313">
        <ele>32</ele>
        <time>2019-07-17T14:19:09Z</time>
      </trkpt>
      <trkpt lat="47.78481" lon="-3.39303">
        <ele>32</ele>
        <time>2019-07-17T14:19:10Z</time>
      </trkpt>
      <trkpt lat="47.78478" lon="-3.39293">
        <ele>32</ele>
        <time>2019-07-17T14:19:11Z</time>
      </trkpt>
      <trkpt lat="47.78473" lon="-3.39286">
        <ele>32</ele>
        <time>2019-07-17T14:19:12Z</time>
      </trkpt>
      <trkpt lat="47.78469" lon="-3.39279">
        <ele>32</ele>
        <time>2019-07-17T14:19:13Z</time>
      </trkpt>
      <trkpt lat="47.78466" lon="-3.39273">
        <ele>32</ele>
        <time>2019-07-17T14:19:14Z</time>
      </trkpt>
      <trkpt lat="47.78463" lon="-3.3927">
        <ele>32</ele>
        <time>2019-07-17T14:19:15Z</time>
      </trkpt>
      <trkpt lat="47.78461" lon="-3.39266">
        <ele>32</ele>
        <time>2019-07-17T14:19:16Z</time>
      </trkpt>
      <trkpt lat="47.78455" lon="-3.39259">
        <ele>32</ele>
        <time>2019-07-17T14:19:17Z</time>
      </trkpt>
      <trkpt lat="47.78455" lon="-3.39259">
        <ele>32</ele>
        <time>2019-07-17T14:19:18Z</time>
      </trkpt>
      <trkpt lat="47.7845" lon="-3.39252">
        <ele>31</ele>
        <time>2019-07-17T14:19:19Z</time>
      </trkpt>
      <trkpt lat="47.7845" lon="-3.39252">
        <ele>31</ele>
        <time>2019-07-17T14:19:20Z</time>
      </trkpt>
      <trkpt lat="47.78448" lon="-3.39247">
        <ele>31</ele>
        <time>2019-07-17T14:19:21Z</time>
      </trkpt>
      <trkpt lat="47.78446" lon="-3.39243">
        <ele>31</ele>
        <time>2019-07-17T14:19:22Z</time>
      </trkpt>
      <trkpt lat="47.78444" lon="-3.39238">
        <ele>31</ele>
        <time>2019-07-17T14:19:23Z</time>
      </trkpt>
      <trkpt lat="47.78441" lon="-3.39233">
        <ele>31</ele>
        <time>2019-07-17T14:19:24Z</time>
      </trkpt>
      <trkpt lat="47.78437" lon="-3.39229">
        <ele>31</ele>
        <time>2019-07-17T14:19:25Z</time>
      </trkpt>
      <trkpt lat="47.78433" lon="-3.39225">
        <ele>31</ele>
        <time>2019-07-17T14:19:26Z</time>
      </trkpt>
      <trkpt lat="47.78429" lon="-3.3922">
        <ele>31</ele>
        <time>2019-07-17T14:19:27Z</time>
      </trkpt>
      <trkpt lat="47.78424" lon="-3.39215">
        <ele>31</ele>
        <time>2019-07-17T14:19:28Z</time>
      </trkpt>
      <trkpt lat="47.7842" lon="-3.39209">
        <ele>31</ele>
        <time>2019-07-17T14:19:29Z</time>
      </trkpt>
      <trkpt lat="47.78417" lon="-3.39203">
        <ele>30</ele>
        <time>2019-07-17T14:19:30Z</time>
      </trkpt>
      <trkpt lat="47.78415" lon="-3.39195">
        <ele>30</ele>
        <time>2019-07-17T14:19:31Z</time>
      </trkpt>
      <trkpt lat="47.78414" lon="-3.39187">
        <ele>30</ele>
        <time>2019-07-17T14:19:32Z</time>
      </trkpt>
      <trkpt lat="47.78412" lon="-3.39179">
        <ele>30</ele>
        <time>2019-07-17T14:19:33Z</time>
      </trkpt>
      <trkpt lat="47.78411" lon="-3.39172">
        <ele>30</ele>
        <time>2019-07-17T14:19:34Z</time>
      </trkpt>
      <trkpt lat="47.78411" lon="-3.39165">
        <ele>30</ele>
        <time>2019-07-17T14:19:35Z</time>
      </trkpt>
      <trkpt lat="47.78411" lon="-3.39159">
        <ele>30</ele>
        <time>2019-07-17T14:19:36Z</time>
      </trkpt>
      <trkpt lat="47.7841" lon="-3.39152">
        <ele>30</ele>
        <time>2019-07-17T14:19:37Z</time>
      </trkpt>
      <trkpt lat="47.78411" lon="-3.39143">
        <ele>30</ele>
        <time>2019-07-17T14:19:38Z</time>
      </trkpt>
      <trkpt lat="47.7841" lon="-3.39135">
        <ele>30</ele>
        <time>2019-07-17T14:19:39Z</time>
      </trkpt>
      <trkpt lat="47.7841" lon="-3.39127">
        <ele>30</ele>
        <time>2019-07-17T14:19:40Z</time>
      </trkpt>
      <trkpt lat="47.7841" lon="-3.39119">
        <ele>30</ele>
        <time>2019-07-17T14:19:41Z</time>
      </trkpt>
      <trkpt lat="47.78409" lon="-3.39113">
        <ele>30</ele>
        <time>2019-07-17T14:19:42Z</time>
      </trkpt>
      <trkpt lat="47.78409" lon="-3.39108">
        <ele>30</ele>
        <time>2019-07-17T14:19:43Z</time>
      </trkpt>
      <trkpt lat="47.78409" lon="-3.39102">
        <ele>30</ele>
        <time>2019-07-17T14:19:44Z</time>
      </trkpt>
      <trkpt lat="47.7841" lon="-3.39097">
        <ele>30</ele>
        <time>2019-07-17T14:19:45Z</time>
      </trkpt>
      <trkpt lat="47.7841" lon="-3.39092">
        <ele>30</ele>
        <time>2019-07-17T14:19:46Z</time>
      </trkpt>
      <trkpt lat="47.7841" lon="-3.39086">
        <ele>30</ele>
        <time>2019-07-17T14:19:47Z</time>
      </trkpt>
      <trkpt lat="47.7841" lon="-3.39081">
        <ele>30</ele>
        <time>2019-07-17T14:19:48Z</time>
      </trkpt>
      <trkpt lat="47.7841" lon="-3.39076">
        <ele>30</ele>
        <time>2019-07-17T14:19:49Z</time>
      </trkpt>
      <trkpt lat="47.78411" lon="-3.3907">
        <ele>30</ele>
        <time>2019-07-17T14:19:50Z</time>
      </trkpt>
      <trkpt lat="47.78412" lon="-3.39065">
        <ele>30</ele>
        <time>2019-07-17T14:19:51Z</time>
      </trkpt>
      <trkpt lat="47.78413" lon="-3.3906">
        <ele>30</ele>
        <time>2019-07-17T14:19:52Z</time>
      </trkpt>
      <trkpt lat="47.78415" lon="-3.39056">
        <ele>30</ele>
        <time>2019-07-17T14:19:53Z</time>
      </trkpt>
      <trkpt lat="47.78416" lon="-3.3905">
        <ele>30</ele>
        <time>2019-07-17T14:19:54Z</time>
      </trkpt>
      <trkpt lat="47.78417" lon="-3.39045">
        <ele>30</ele>
        <time>2019-07-17T14:19:55Z</time>
      </trkpt>
      <trkpt lat="47.78418" lon="-3.3904">
        <ele>30</ele>
        <time>2019-07-17T14:19:56Z</time>
      </trkpt>
      <trkpt lat="47.7842" lon="-3.39035">
        <ele>30</ele>
        <time>2019-07-17T14:19:57Z</time>
      </trkpt>
      <trkpt lat="47.78422" lon="-3.39029">
        <ele>30</ele>
        <time>2019-07-17T14:19:58Z</time>
      </trkpt>
      <trkpt lat="47.78424" lon="-3.39022">
        <ele>30</ele>
        <time>2019-07-17T14:19:59Z</time>
      </trkpt>
      <trkpt lat="47.78427" lon="-3.39014">
        <ele>30</ele>
        <time>2019-07-17T14:20:00Z</time>
      </trkpt>
      <trkpt lat="47.7843" lon="-3.39007">
        <ele>30</ele>
        <time>2019-07-17T14:20:01Z</time>
      </trkpt>
      <trkpt lat="47.78432" lon="-3.38999">
        <ele>30</ele>
        <time>2019-07-17T14:20:02Z</time>
      </trkpt>
      <trkpt lat="47.78434" lon="-3.38993">
        <ele>30</ele>
        <time>2019-07-17T14:20:03Z</time>
      </trkpt>
      <trkpt lat="47.78436" lon="-3.38985">
        <ele>30</ele>
        <time>2019-07-17T14:20:04Z</time>
      </trkpt>
      <trkpt lat="47.78437" lon="-3.38976">
        <ele>30</ele>
        <time>2019-07-17T14:20:05Z</time>
      </trkpt>
      <trkpt lat="47.78436" lon="-3.38968">
        <ele>30</ele>
        <time>2019-07-17T14:20:06Z</time>
      </trkpt>
      <trkpt lat="47.78436" lon="-3.38961">
        <ele>30</ele>
        <time>2019-07-17T14:20:07Z</time>
      </trkpt>
      <trkpt lat="47.78434" lon="-3.38955">
        <ele>29</ele>
        <time>2019-07-17T14:20:08Z</time>
      </trkpt>
      <trkpt lat="47.78433" lon="-3.3895">
        <ele>29</ele>
        <time>2019-07-17T14:20:09Z</time>
      </trkpt>
      <trkpt lat="47.78432" lon="-3.38946">
        <ele>29</ele>
        <time>2019-07-17T14:20:10Z</time>
      </trkpt>
      <trkpt lat="47.7843" lon="-3.38941">
        <ele>29</ele>
        <time>2019-07-17T14:20:11Z</time>
      </trkpt>
      <trkpt lat="47.78429" lon="-3.38937">
        <ele>29</ele>
        <time>2019-07-17T14:20:12Z</time>
      </trkpt>
      <trkpt lat="47.78428" lon="-3.38933">
        <ele>29</ele>
        <time>2019-07-17T14:20:13Z</time>
      </trkpt>
      <trkpt lat="47.78426" lon="-3.38929">
        <ele>29</ele>
        <time>2019-07-17T14:20:14Z</time>
      </trkpt>
      <trkpt lat="47.78425" lon="-3.38924">
        <ele>29</ele>
        <time>2019-07-17T14:20:15Z</time>
      </trkpt>
      <trkpt lat="47.78424" lon="-3.38918">
        <ele>29</ele>
        <time>2019-07-17T14:20:16Z</time>
      </trkpt>
      <trkpt lat="47.78424" lon="-3.38913">
        <ele>29</ele>
        <time>2019-07-17T14:20:17Z</time>
      </trkpt>
      <trkpt lat="47.78423" lon="-3.38907">
        <ele>29</ele>
        <time>2019-07-17T14:20:18Z</time>
      </trkpt>
      <trkpt lat="47.78423" lon="-3.38901">
        <ele>29</ele>
        <time>2019-07-17T14:20:19Z</time>
      </trkpt>
      <trkpt lat="47.78423" lon="-3.38895">
        <ele>29</ele>
        <time>2019-07-17T14:20:20Z</time>
      </trkpt>
      <trkpt lat="47.78423" lon="-3.3889">
        <ele>29</ele>
        <time>2019-07-17T14:20:21Z</time>
      </trkpt>
      <trkpt lat="47.78424" lon="-3.38885">
        <ele>29</ele>
        <time>2019-07-17T14:20:22Z</time>
      </trkpt>
      <trkpt lat="47.78424" lon="-3.38881">
        <ele>29</ele>
        <time>2019-07-17T14:20:23Z</time>
      </trkpt>
      <trkpt lat="47.78425" lon="-3.38876">
        <ele>29</ele>
        <time>2019-07-17T14:20:24Z</time>
      </trkpt>
      <trkpt lat="47.78425" lon="-3.38871">
        <ele>29</ele>
        <time>2019-07-17T14:20:25Z</time>
      </trkpt>
      <trkpt lat="47.78426" lon="-3.38865">
        <ele>29</ele>
        <time>2019-07-17T14:20:26Z</time>
      </trkpt>
      <trkpt lat="47.78426" lon="-3.3886">
        <ele>29</ele>
        <time>2019-07-17T14:20:27Z</time>
      </trkpt>
      <trkpt lat="47.78426" lon="-3.38854">
        <ele>29</ele>
        <time>2019-07-17T14:20:28Z</time>
      </trkpt>
      <trkpt lat="47.78426" lon="-3.38848">
        <ele>29</ele>
        <time>2019-07-17T14:20:29Z</time>
      </trkpt>
      <trkpt lat="47.78426" lon="-3.38842">
        <ele>29</ele>
        <time>2019-07-17T14:20:30Z</time>
      </trkpt>
      <trkpt lat="47.78425" lon="-3.38836">
        <ele>29</ele>
        <time>2019-07-17T14:20:31Z</time>
      </trkpt>
      <trkpt lat="47.78424" lon="-3.3883">
        <ele>29</ele>
        <time>2019-07-17T14:20:32Z</time>
      </trkpt>
      <trkpt lat="47.78422" lon="-3.38824">
        <ele>29</ele>
        <time>2019-07-17T14:20:33Z</time>
      </trkpt>
      <trkpt lat="47.78421" lon="-3.38818">
        <ele>29</ele>
        <time>2019-07-17T14:20:34Z</time>
      </trkpt>
      <trkpt lat="47.78419" lon="-3.38811">
        <ele>29</ele>
        <time>2019-07-17T14:20:35Z</time>
      </trkpt>
      <trkpt lat="47.78418" lon="-3.38804">
        <ele>29</ele>
        <time>2019-07-17T14:20:36Z</time>
      </trkpt>
      <trkpt lat="47.78418" lon="-3.38797">
        <ele>30</ele>
        <time>2019-07-17T14:20:37Z</time>
      </trkpt>
      <trkpt lat="47.78417" lon="-3.3879">
        <ele>30</ele>
        <time>2019-07-17T14:20:38Z</time>
      </trkpt>
      <trkpt lat="47.78416" lon="-3.38783">
        <ele>30</ele>
        <time>2019-07-17T14:20:39Z</time>
      </trkpt>
      <trkpt lat="47.78416" lon="-3.38776">
        <ele>30</ele>
        <time>2019-07-17T14:20:40Z</time>
      </trkpt>
      <trkpt lat="47.78416" lon="-3.38769">
        <ele>30</ele>
        <time>2019-07-17T14:20:41Z</time>
      </trkpt>
      <trkpt lat="47.78415" lon="-3.38762">
        <ele>30</ele>
        <time>2019-07-17T14:20:42Z</time>
      </trkpt>
      <trkpt lat="47.78415" lon="-3.38754">
        <ele>30</ele>
        <time>2019-07-17T14:20:43Z</time>
      </trkpt>
      <trkpt lat="47.78415" lon="-3.38745">
        <ele>30</ele>
        <time>2019-07-17T14:20:44Z</time>
      </trkpt>
      <trkpt lat="47.78415" lon="-3.38736">
        <ele>30</ele>
        <time>2019-07-17T14:20:45Z</time>
      </trkpt>
      <trkpt lat="47.78415" lon="-3.38728">
        <ele>30</ele>
        <time>2019-07-17T14:20:46Z</time>
      </trkpt>
      <trkpt lat="47.78415" lon="-3.3872">
        <ele>31</ele>
        <time>2019-07-17T14:20:47Z</time>
      </trkpt>
      <trkpt lat="47.78415" lon="-3.3871">
        <ele>31</ele>
        <time>2019-07-17T14:20:48Z</time>
      </trkpt>
      <trkpt lat="47.78414" lon="-3.38702">
        <ele>31</ele>
        <time>2019-07-17T14:20:49Z</time>
      </trkpt>
      <trkpt lat="47.78413" lon="-3.38693">
        <ele>31</ele>
        <time>2019-07-17T14:20:50Z</time>
      </trkpt>
      <trkpt lat="47.78413" lon="-3.38687">
        <ele>31</ele>
        <time>2019-07-17T14:20:51Z</time>
      </trkpt>
      <trkpt lat="47.78414" lon="-3.38683">
        <ele>30</ele>
        <time>2019-07-17T14:20:52Z</time>
      </trkpt>
      <trkpt lat="47.78416" lon="-3.38681">
        <ele>30</ele>
        <time>2019-07-17T14:20:53Z</time>
      </trkpt>
      <trkpt lat="47.7842" lon="-3.3868">
        <ele>30</ele>
        <time>2019-07-17T14:20:54Z</time>
      </trkpt>
      <trkpt lat="47.78425" lon="-3.38678">
        <ele>30</ele>
        <time>2019-07-17T14:20:55Z</time>
      </trkpt>
      <trkpt lat="47.78429" lon="-3.38677">
        <ele>30</ele>
        <time>2019-07-17T14:20:56Z</time>
      </trkpt>
      <trkpt lat="47.78434" lon="-3.38675">
        <ele>30</ele>
        <time>2019-07-17T14:20:57Z</time>
      </trkpt>
      <trkpt lat="47.78439" lon="-3.38675">
        <ele>30</ele>
        <time>2019-07-17T14:20:58Z</time>
      </trkpt>
      <trkpt lat="47.78444" lon="-3.38674">
        <ele>30</ele>
        <time>2019-07-17T14:20:59Z</time>
      </trkpt>
      <trkpt lat="47.78448" lon="-3.38673">
        <ele>30</ele>
        <time>2019-07-17T14:21:00Z</time>
      </trkpt>
      <trkpt lat="47.78452" lon="-3.38672">
        <ele>30</ele>
        <time>2019-07-17T14:21:01Z</time>
      </trkpt>
      <trkpt lat="47.78455" lon="-3.38671">
        <ele>30</ele>
        <time>2019-07-17T14:21:02Z</time>
      </trkpt>
      <trkpt lat="47.78459" lon="-3.38668">
        <ele>30</ele>
        <time>2019-07-17T14:21:03Z</time>
      </trkpt>
      <trkpt lat="47.78462" lon="-3.38665">
        <ele>30</ele>
        <time>2019-07-17T14:21:04Z</time>
      </trkpt>
      <trkpt lat="47.78464" lon="-3.3866">
        <ele>30</ele>
        <time>2019-07-17T14:21:05Z</time>
      </trkpt>
      <trkpt lat="47.78466" lon="-3.38656">
        <ele>30</ele>
        <time>2019-07-17T14:21:06Z</time>
      </trkpt>
      <trkpt lat="47.78468" lon="-3.38654">
        <ele>30</ele>
        <time>2019-07-17T14:21:07Z</time>
      </trkpt>
      <trkpt lat="47.78468" lon="-3.38653">
        <ele>30</ele>
        <time>2019-07-17T14:21:08Z</time>
      </trkpt>
      <trkpt lat="47.78469" lon="-3.38653">
        <ele>30</ele>
        <time>2019-07-17T14:21:09Z</time>
      </trkpt>
      <trkpt lat="47.78469" lon="-3.38652">
        <ele>30</ele>
        <time>2019-07-17T14:21:10Z</time>
      </trkpt>
      <trkpt lat="47.78474" lon="-3.38649">
        <ele>30</ele>
        <time>2019-07-17T14:21:11Z</time>
      </trkpt>
      <trkpt lat="47.78477" lon="-3.38649">
        <ele>30</ele>
        <time>2019-07-17T14:21:12Z</time>
      </trkpt>
      <trkpt lat="47.7848" lon="-3.3865">
        <ele>30</ele>
        <time>2019-07-17T14:21:13Z</time>
      </trkpt>
      <trkpt lat="47.78484" lon="-3.38651">
        <ele>30</ele>
        <time>2019-07-17T14:21:14Z</time>
      </trkpt>
      <trkpt lat="47.78487" lon="-3.38652">
        <ele>30</ele>
        <time>2019-07-17T14:21:15Z</time>
      </trkpt>
      <trkpt lat="47.7849" lon="-3.38653">
        <ele>30</ele>
        <time>2019-07-17T14:21:16Z</time>
      </trkpt>
      <trkpt lat="47.78494" lon="-3.38654">
        <ele>30</ele>
        <time>2019-07-17T14:21:17Z</time>
      </trkpt>
      <trkpt lat="47.78497" lon="-3.38656">
        <ele>29</ele>
        <time>2019-07-17T14:21:18Z</time>
      </trkpt>
      <trkpt lat="47.78501" lon="-3.38656">
        <ele>29</ele>
        <time>2019-07-17T14:21:19Z</time>
      </trkpt>
      <trkpt lat="47.78505" lon="-3.38657">
        <ele>29</ele>
        <time>2019-07-17T14:21:20Z</time>
      </trkpt>
      <trkpt lat="47.78509" lon="-3.38657">
        <ele>29</ele>
        <time>2019-07-17T14:21:21Z</time>
      </trkpt>
      <trkpt lat="47.78512" lon="-3.38658">
        <ele>29</ele>
        <time>2019-07-17T14:21:22Z</time>
      </trkpt>
      <trkpt lat="47.78515" lon="-3.3866">
        <ele>29</ele>
        <time>2019-07-17T14:21:23Z</time>
      </trkpt>
      <trkpt lat="47.78518" lon="-3.38662">
        <ele>29</ele>
        <time>2019-07-17T14:21:24Z</time>
      </trkpt>
      <trkpt lat="47.78521" lon="-3.38663">
        <ele>29</ele>
        <time>2019-07-17T14:21:25Z</time>
      </trkpt>
      <trkpt lat="47.78523" lon="-3.38666">
        <ele>29</ele>
        <time>2019-07-17T14:21:26Z</time>
      </trkpt>
      <trkpt lat="47.78525" lon="-3.38668">
        <ele>29</ele>
        <time>2019-07-17T14:21:27Z</time>
      </trkpt>
      <trkpt lat="47.78528" lon="-3.3867">
        <ele>29</ele>
        <time>2019-07-17T14:21:28Z</time>
      </trkpt>
      <trkpt lat="47.78531" lon="-3.38673">
        <ele>29</ele>
        <time>2019-07-17T14:21:29Z</time>
      </trkpt>
      <trkpt lat="47.78534" lon="-3.38675">
        <ele>29</ele>
        <time>2019-07-17T14:21:30Z</time>
      </trkpt>
      <trkpt lat="47.78537" lon="-3.38678">
        <ele>29</ele>
        <time>2019-07-17T14:21:31Z</time>
      </trkpt>
      <trkpt lat="47.7854" lon="-3.3868">
        <ele>29</ele>
        <time>2019-07-17T14:21:32Z</time>
      </trkpt>
      <trkpt lat="47.78542" lon="-3.38683">
        <ele>29</ele>
        <time>2019-07-17T14:21:33Z</time>
      </trkpt>
      <trkpt lat="47.78545" lon="-3.38686">
        <ele>29</ele>
        <time>2019-07-17T14:21:34Z</time>
      </trkpt>
      <trkpt lat="47.78548" lon="-3.38689">
        <ele>29</ele>
        <time>2019-07-17T14:21:35Z</time>
      </trkpt>
      <trkpt lat="47.78552" lon="-3.38692">
        <ele>29</ele>
        <time>2019-07-17T14:21:36Z</time>
      </trkpt>
      <trkpt lat="47.78555" lon="-3.38696">
        <ele>29</ele>
        <time>2019-07-17T14:21:37Z</time>
      </trkpt>
      <trkpt lat="47.78558" lon="-3.38699">
        <ele>29</ele>
        <time>2019-07-17T14:21:38Z</time>
      </trkpt>
      <trkpt lat="47.78561" lon="-3.38702">
        <ele>29</ele>
        <time>2019-07-17T14:21:39Z</time>
      </trkpt>
      <trkpt lat="47.78564" lon="-3.38705">
        <ele>28</ele>
        <time>2019-07-17T14:21:40Z</time>
      </trkpt>
      <trkpt lat="47.78568" lon="-3.38709">
        <ele>28</ele>
        <time>2019-07-17T14:21:41Z</time>
      </trkpt>
      <trkpt lat="47.78571" lon="-3.38713">
        <ele>28</ele>
        <time>2019-07-17T14:21:42Z</time>
      </trkpt>
      <trkpt lat="47.78574" lon="-3.38716">
        <ele>28</ele>
        <time>2019-07-17T14:21:43Z</time>
      </trkpt>
      <trkpt lat="47.78577" lon="-3.38719">
        <ele>28</ele>
        <time>2019-07-17T14:21:44Z</time>
      </trkpt>
      <trkpt lat="47.78581" lon="-3.38722">
        <ele>29</ele>
        <time>2019-07-17T14:21:45Z</time>
      </trkpt>
      <trkpt lat="47.78584" lon="-3.38725">
        <ele>29</ele>
        <time>2019-07-17T14:21:46Z</time>
      </trkpt>
      <trkpt lat="47.78588" lon="-3.38728">
        <ele>29</ele>
        <time>2019-07-17T14:21:47Z</time>
      </trkpt>
      <trkpt lat="47.78592" lon="-3.38732">
        <ele>29</ele>
        <time>2019-07-17T14:21:48Z</time>
      </trkpt>
      <trkpt lat="47.78596" lon="-3.38734">
        <ele>29</ele>
        <time>2019-07-17T14:21:49Z</time>
      </trkpt>
      <trkpt lat="47.78599" lon="-3.38737">
        <ele>29</ele>
        <time>2019-07-17T14:21:50Z</time>
      </trkpt>
      <trkpt lat="47.78603" lon="-3.38741">
        <ele>29</ele>
        <time>2019-07-17T14:21:51Z</time>
      </trkpt>
      <trkpt lat="47.78608" lon="-3.38744">
        <ele>29</ele>
        <time>2019-07-17T14:21:52Z</time>
      </trkpt>
      <trkpt lat="47.78612" lon="-3.38747">
        <ele>29</ele>
        <time>2019-07-17T14:21:53Z</time>
      </trkpt>
      <trkpt lat="47.78616" lon="-3.38749">
        <ele>29</ele>
        <time>2019-07-17T14:21:54Z</time>
      </trkpt>
      <trkpt lat="47.78619" lon="-3.38752">
        <ele>29</ele>
        <time>2019-07-17T14:21:55Z</time>
      </trkpt>
      <trkpt lat="47.78623" lon="-3.38755">
        <ele>29</ele>
        <time>2019-07-17T14:21:56Z</time>
      </trkpt>
      <trkpt lat="47.78627" lon="-3.38758">
        <ele>29</ele>
        <time>2019-07-17T14:21:57Z</time>
      </trkpt>
      <trkpt lat="47.78631" lon="-3.38761">
        <ele>29</ele>
        <time>2019-07-17T14:21:58Z</time>
      </trkpt>
      <trkpt lat="47.78635" lon="-3.38763">
        <ele>30</ele>
        <time>2019-07-17T14:21:59Z</time>
      </trkpt>
      <trkpt lat="47.78638" lon="-3.38765">
        <ele>30</ele>
        <time>2019-07-17T14:22:00Z</time>
      </trkpt>
      <trkpt lat="47.78642" lon="-3.38767">
        <ele>30</ele>
        <time>2019-07-17T14:22:01Z</time>
      </trkpt>
      <trkpt lat="47.78645" lon="-3.38768">
        <ele>30</ele>
        <time>2019-07-17T14:22:02Z</time>
      </trkpt>
      <trkpt lat="47.78649" lon="-3.38771">
        <ele>30</ele>
        <time>2019-07-17T14:22:03Z</time>
      </trkpt>
      <trkpt lat="47.78653" lon="-3.38773">
        <ele>30</ele>
        <time>2019-07-17T14:22:04Z</time>
      </trkpt>
      <trkpt lat="47.78656" lon="-3.38776">
        <ele>30</ele>
        <time>2019-07-17T14:22:05Z</time>
      </trkpt>
      <trkpt lat="47.7866" lon="-3.38778">
        <ele>30</ele>
        <time>2019-07-17T14:22:06Z</time>
      </trkpt>
      <trkpt lat="47.78664" lon="-3.3878">
        <ele>30</ele>
        <time>2019-07-17T14:22:07Z</time>
      </trkpt>
      <trkpt lat="47.78666" lon="-3.3878">
        <ele>30</ele>
        <time>2019-07-17T14:22:08Z</time>
      </trkpt>
      <trkpt lat="47.78669" lon="-3.38779">
        <ele>31</ele>
        <time>2019-07-17T14:22:09Z</time>
      </trkpt>
      <trkpt lat="47.78672" lon="-3.38778">
        <ele>30</ele>
        <time>2019-07-17T14:22:10Z</time>
      </trkpt>
      <trkpt lat="47.78675" lon="-3.38777">
        <ele>30</ele>
        <time>2019-07-17T14:22:11Z</time>
      </trkpt>
      <trkpt lat="47.78678" lon="-3.38778">
        <ele>30</ele>
        <time>2019-07-17T14:22:12Z</time>
      </trkpt>
      <trkpt lat="47.78681" lon="-3.38778">
        <ele>30</ele>
        <time>2019-07-17T14:22:13Z</time>
      </trkpt>
      <trkpt lat="47.78684" lon="-3.38778">
        <ele>30</ele>
        <time>2019-07-17T14:22:14Z</time>
      </trkpt>
      <trkpt lat="47.78687" lon="-3.38777">
        <ele>30</ele>
        <time>2019-07-17T14:22:15Z</time>
      </trkpt>
      <trkpt lat="47.7869" lon="-3.38772">
        <ele>30</ele>
        <time>2019-07-17T14:22:16Z</time>
      </trkpt>
      <trkpt lat="47.78692" lon="-3.38766">
        <ele>30</ele>
        <time>2019-07-17T14:22:17Z</time>
      </trkpt>
      <trkpt lat="47.78693" lon="-3.38759">
        <ele>29</ele>
        <time>2019-07-17T14:22:18Z</time>
      </trkpt>
      <trkpt lat="47.78694" lon="-3.38752">
        <ele>29</ele>
        <time>2019-07-17T14:22:19Z</time>
      </trkpt>
      <trkpt lat="47.78695" lon="-3.38747">
        <ele>28</ele>
        <time>2019-07-17T14:22:20Z</time>
      </trkpt>
      <trkpt lat="47.78696" lon="-3.38741">
        <ele>28</ele>
        <time>2019-07-17T14:22:21Z</time>
      </trkpt>
      <trkpt lat="47.78697" lon="-3.38735">
        <ele>27</ele>
        <time>2019-07-17T14:22:22Z</time>
      </trkpt>
      <trkpt lat="47.78698" lon="-3.38729">
        <ele>27</ele>
        <time>2019-07-17T14:22:23Z</time>
      </trkpt>
      <trkpt lat="47.78699" lon="-3.38721">
        <ele>26</ele>
        <time>2019-07-17T14:22:24Z</time>
      </trkpt>
      <trkpt lat="47.787" lon="-3.38712">
        <ele>25</ele>
        <time>2019-07-17T14:22:25Z</time>
      </trkpt>
      <trkpt lat="47.78701" lon="-3.38703">
        <ele>24</ele>
        <time>2019-07-17T14:22:26Z</time>
      </trkpt>
      <trkpt lat="47.78702" lon="-3.38694">
        <ele>24</ele>
        <time>2019-07-17T14:22:27Z</time>
      </trkpt>
      <trkpt lat="47.78704" lon="-3.38685">
        <ele>23</ele>
        <time>2019-07-17T14:22:28Z</time>
      </trkpt>
      <trkpt lat="47.78706" lon="-3.38676">
        <ele>22</ele>
        <time>2019-07-17T14:22:29Z</time>
      </trkpt>
      <trkpt lat="47.78708" lon="-3.38668">
        <ele>22</ele>
        <time>2019-07-17T14:22:30Z</time>
      </trkpt>
      <trkpt lat="47.7871" lon="-3.38659">
        <ele>21</ele>
        <time>2019-07-17T14:22:31Z</time>
      </trkpt>
      <trkpt lat="47.7871" lon="-3.38651">
        <ele>21</ele>
        <time>2019-07-17T14:22:32Z</time>
      </trkpt>
      <trkpt lat="47.7871" lon="-3.38643">
        <ele>20</ele>
        <time>2019-07-17T14:22:33Z</time>
      </trkpt>
      <trkpt lat="47.7871" lon="-3.38635">
        <ele>20</ele>
        <time>2019-07-17T14:22:34Z</time>
      </trkpt>
      <trkpt lat="47.7871" lon="-3.38627">
        <ele>20</ele>
        <time>2019-07-17T14:22:35Z</time>
      </trkpt>
      <trkpt lat="47.7871" lon="-3.38619">
        <ele>20</ele>
        <time>2019-07-17T14:22:36Z</time>
      </trkpt>
      <trkpt lat="47.7871" lon="-3.38612">
        <ele>20</ele>
        <time>2019-07-17T14:22:37Z</time>
      </trkpt>
      <trkpt lat="47.7871" lon="-3.38604">
        <ele>19</ele>
        <time>2019-07-17T14:22:38Z</time>
      </trkpt>
      <trkpt lat="47.7871" lon="-3.38596">
        <ele>19</ele>
        <time>2019-07-17T14:22:39Z</time>
      </trkpt>
      <trkpt lat="47.7871" lon="-3.38587">
        <ele>19</ele>
        <time>2019-07-17T14:22:40Z</time>
      </trkpt>
      <trkpt lat="47.78709" lon="-3.38579">
        <ele>19</ele>
        <time>2019-07-17T14:22:41Z</time>
      </trkpt>
      <trkpt lat="47.78708" lon="-3.3857">
        <ele>19</ele>
        <time>2019-07-17T14:22:42Z</time>
      </trkpt>
      <trkpt lat="47.78707" lon="-3.3856">
        <ele>18</ele>
        <time>2019-07-17T14:22:43Z</time>
      </trkpt>
      <trkpt lat="47.78707" lon="-3.38549">
        <ele>18</ele>
        <time>2019-07-17T14:22:44Z</time>
      </trkpt>
      <trkpt lat="47.78707" lon="-3.3854">
        <ele>18</ele>
        <time>2019-07-17T14:22:45Z</time>
      </trkpt>
      <trkpt lat="47.78707" lon="-3.3853">
        <ele>18</ele>
        <time>2019-07-17T14:22:46Z</time>
      </trkpt>
      <trkpt lat="47.78706" lon="-3.38519">
        <ele>18</ele>
        <time>2019-07-17T14:22:47Z</time>
      </trkpt>
      <trkpt lat="47.78705" lon="-3.38508">
        <ele>17</ele>
        <time>2019-07-17T14:22:48Z</time>
      </trkpt>
      <trkpt lat="47.78705" lon="-3.38497">
        <ele>17</ele>
        <time>2019-07-17T14:22:49Z</time>
      </trkpt>
      <trkpt lat="47.78705" lon="-3.38486">
        <ele>17</ele>
        <time>2019-07-17T14:22:50Z</time>
      </trkpt>
      <trkpt lat="47.78706" lon="-3.38474">
        <ele>17</ele>
        <time>2019-07-17T14:22:51Z</time>
      </trkpt>
      <trkpt lat="47.78705" lon="-3.38462">
        <ele>16</ele>
        <time>2019-07-17T14:22:52Z</time>
      </trkpt>
      <trkpt lat="47.78705" lon="-3.38452">
        <ele>16</ele>
        <time>2019-07-17T14:22:53Z</time>
      </trkpt>
      <trkpt lat="47.78704" lon="-3.38444">
        <ele>16</ele>
        <time>2019-07-17T14:22:54Z</time>
      </trkpt>
      <trkpt lat="47.78704" lon="-3.38437">
        <ele>15</ele>
        <time>2019-07-17T14:22:55Z</time>
      </trkpt>
      <trkpt lat="47.78703" lon="-3.3843">
        <ele>15</ele>
        <time>2019-07-17T14:22:56Z</time>
      </trkpt>
      <trkpt lat="47.78702" lon="-3.38425">
        <ele>15</ele>
        <time>2019-07-17T14:22:57Z</time>
      </trkpt>
      <trkpt lat="47.78699" lon="-3.3842">
        <ele>14</ele>
        <time>2019-07-17T14:22:58Z</time>
      </trkpt>
      <trkpt lat="47.78696" lon="-3.38415">
        <ele>14</ele>
        <time>2019-07-17T14:22:59Z</time>
      </trkpt>
      <trkpt lat="47.78693" lon="-3.38412">
        <ele>14</ele>
        <time>2019-07-17T14:23:00Z</time>
      </trkpt>
      <trkpt lat="47.78691" lon="-3.38407">
        <ele>13</ele>
        <time>2019-07-17T14:23:01Z</time>
      </trkpt>
      <trkpt lat="47.7869" lon="-3.38401">
        <ele>13</ele>
        <time>2019-07-17T14:23:02Z</time>
      </trkpt>
      <trkpt lat="47.78691" lon="-3.38396">
        <ele>13</ele>
        <time>2019-07-17T14:23:03Z</time>
      </trkpt>
      <trkpt lat="47.78693" lon="-3.38393">
        <ele>12</ele>
        <time>2019-07-17T14:23:04Z</time>
      </trkpt>
      <trkpt lat="47.78695" lon="-3.38393">
        <ele>12</ele>
        <time>2019-07-17T14:23:05Z</time>
      </trkpt>
      <trkpt lat="47.78697" lon="-3.38394">
        <ele>12</ele>
        <time>2019-07-17T14:23:06Z</time>
      </trkpt>
      <trkpt lat="47.787" lon="-3.38395">
        <ele>12</ele>
        <time>2019-07-17T14:23:07Z</time>
      </trkpt>
      <trkpt lat="47.78702" lon="-3.38395">
        <ele>11</ele>
        <time>2019-07-17T14:23:08Z</time>
      </trkpt>
      <trkpt lat="47.78705" lon="-3.38395">
        <ele>11</ele>
        <time>2019-07-17T14:23:09Z</time>
      </trkpt>
      <trkpt lat="47.78707" lon="-3.38396">
        <ele>11</ele>
        <time>2019-07-17T14:23:10Z</time>
      </trkpt>
      <trkpt lat="47.78709" lon="-3.38398">
        <ele>10</ele>
        <time>2019-07-17T14:23:11Z</time>
      </trkpt>
      <trkpt lat="47.7871" lon="-3.38398">
        <ele>10</ele>
        <time>2019-07-17T14:23:12Z</time>
      </trkpt>
      <trkpt lat="47.78711" lon="-3.38398">
        <ele>10</ele>
        <time>2019-07-17T14:23:13Z</time>
      </trkpt>
      <trkpt lat="47.78712" lon="-3.38398">
        <ele>10</ele>
        <time>2019-07-17T14:23:14Z</time>
      </trkpt>
      <trkpt lat="47.78713" lon="-3.38398">
        <ele>9</ele>
        <time>2019-07-17T14:23:15Z</time>
      </trkpt>
      <trkpt lat="47.78713" lon="-3.38398">
        <ele>9</ele>
        <time>2019-07-17T14:23:16Z</time>
      </trkpt>
      <trkpt lat="47.78718" lon="-3.38396">
        <ele>8</ele>
        <time>2019-07-17T14:23:17Z</time>
      </trkpt>
      <trkpt lat="47.7872" lon="-3.38396">
        <ele>8</ele>
        <time>2019-07-17T14:23:18Z</time>
      </trkpt>
      <trkpt lat="47.78721" lon="-3.38397">
        <ele>8</ele>
        <time>2019-07-17T14:23:19Z</time>
      </trkpt>
      <trkpt lat="47.78723" lon="-3.384">
        <ele>7</ele>
        <time>2019-07-17T14:23:20Z</time>
      </trkpt>
      <trkpt lat="47.78724" lon="-3.38403">
        <ele>7</ele>
        <time>2019-07-17T14:23:21Z</time>
      </trkpt>
      <trkpt lat="47.78725" lon="-3.38406">
        <ele>7</ele>
        <time>2019-07-17T14:23:22Z</time>
      </trkpt>
      <trkpt lat="47.78725" lon="-3.38408">
        <ele>7</ele>
        <time>2019-07-17T14:23:23Z</time>
      </trkpt>
      <trkpt lat="47.78725" lon="-3.38411">
        <ele>7</ele>
        <time>2019-07-17T14:23:24Z</time>
      </trkpt>
      <trkpt lat="47.78727" lon="-3.38413">
        <ele>7</ele>
        <time>2019-07-17T14:23:25Z</time>
      </trkpt>
      <trkpt lat="47.78727" lon="-3.38416">
        <ele>7</ele>
        <time>2019-07-17T14:23:26Z</time>
      </trkpt>
      <trkpt lat="47.78727" lon="-3.38418">
        <ele>7</ele>
        <time>2019-07-17T14:23:27Z</time>
      </trkpt>
      <trkpt lat="47.78726" lon="-3.3842">
        <ele>7</ele>
        <time>2019-07-17T14:23:28Z</time>
      </trkpt>
      <trkpt lat="47.78725" lon="-3.38422">
        <ele>7</ele>
        <time>2019-07-17T14:23:29Z</time>
      </trkpt>
      <trkpt lat="47.78724" lon="-3.38425">
        <ele>7</ele>
        <time>2019-07-17T14:23:30Z</time>
      </trkpt>
      <trkpt lat="47.78725" lon="-3.38428">
        <ele>6</ele>
        <time>2019-07-17T14:23:31Z</time>
      </trkpt>
      <trkpt lat="47.78725" lon="-3.38431">
        <ele>6</ele>
        <time>2019-07-17T14:23:32Z</time>
      </trkpt>
      <trkpt lat="47.78725" lon="-3.38435">
        <ele>6</ele>
        <time>2019-07-17T14:23:33Z</time>
      </trkpt>
      <trkpt lat="47.78726" lon="-3.38439">
        <ele>6</ele>
        <time>2019-07-17T14:23:34Z</time>
      </trkpt>
      <trkpt lat="47.78726" lon="-3.38442">
        <ele>6</ele>
        <time>2019-07-17T14:23:35Z</time>
      </trkpt>
      <trkpt lat="47.78727" lon="-3.38443">
        <ele>6</ele>
        <time>2019-07-17T14:23:36Z</time>
      </trkpt>
      <trkpt lat="47.78729" lon="-3.38445">
        <ele>6</ele>
        <time>2019-07-17T14:23:37Z</time>
      </trkpt>
      <trkpt lat="47.78732" lon="-3.38448">
        <ele>6</ele>
        <time>2019-07-17T14:23:38Z</time>
      </trkpt>
      <trkpt lat="47.78735" lon="-3.38452">
        <ele>6</ele>
        <time>2019-07-17T14:23:39Z</time>
      </trkpt>
      <trkpt lat="47.78739" lon="-3.38455">
        <ele>6</ele>
        <time>2019-07-17T14:23:40Z</time>
      </trkpt>
      <trkpt lat="47.78742" lon="-3.38457">
        <ele>6</ele>
        <time>2019-07-17T14:23:41Z</time>
      </trkpt>
      <trkpt lat="47.78744" lon="-3.38459">
        <ele>6</ele>
        <time>2019-07-17T14:23:42Z</time>
      </trkpt>
      <trkpt lat="47.78747" lon="-3.38461">
        <ele>7</ele>
        <time>2019-07-17T14:23:43Z</time>
      </trkpt>
      <trkpt lat="47.78749" lon="-3.38461">
        <ele>7</ele>
        <time>2019-07-17T14:23:44Z</time>
      </trkpt>
      <trkpt lat="47.7875" lon="-3.38461">
        <ele>7</ele>
        <time>2019-07-17T14:23:45Z</time>
      </trkpt>
      <trkpt lat="47.78751" lon="-3.38459">
        <ele>7</ele>
        <time>2019-07-17T14:23:46Z</time>
      </trkpt>
      <trkpt lat="47.78753" lon="-3.38458">
        <ele>7</ele>
        <time>2019-07-17T14:23:47Z</time>
      </trkpt>
      <trkpt lat="47.78754" lon="-3.38456">
        <ele>7</ele>
        <time>2019-07-17T14:23:48Z</time>
      </trkpt>
      <trkpt lat="47.78756" lon="-3.38456">
        <ele>7</ele>
        <time>2019-07-17T14:23:49Z</time>
      </trkpt>
      <trkpt lat="47.78758" lon="-3.38457">
        <ele>8</ele>
        <time>2019-07-17T14:23:50Z</time>
      </trkpt>
      <trkpt lat="47.78759" lon="-3.38458">
        <ele>8</ele>
        <time>2019-07-17T14:23:51Z</time>
      </trkpt>
      <trkpt lat="47.7876" lon="-3.38459">
        <ele>8</ele>
        <time>2019-07-17T14:23:52Z</time>
      </trkpt>
      <trkpt lat="47.78762" lon="-3.3846">
        <ele>8</ele>
        <time>2019-07-17T14:23:53Z</time>
      </trkpt>
      <trkpt lat="47.78763" lon="-3.3846">
        <ele>9</ele>
        <time>2019-07-17T14:23:54Z</time>
      </trkpt>
      <trkpt lat="47.78764" lon="-3.3846">
        <ele>9</ele>
        <time>2019-07-17T14:23:55Z</time>
      </trkpt>
      <trkpt lat="47.78766" lon="-3.38461">
        <ele>9</ele>
        <time>2019-07-17T14:23:56Z</time>
      </trkpt>
      <trkpt lat="47.78766" lon="-3.38462">
        <ele>9</ele>
        <time>2019-07-17T14:23:57Z</time>
      </trkpt>
      <trkpt lat="47.78767" lon="-3.38462">
        <ele>9</ele>
        <time>2019-07-17T14:23:58Z</time>
      </trkpt>
      <trkpt lat="47.78767" lon="-3.38462">
        <ele>9</ele>
        <time>2019-07-17T14:23:59Z</time>
      </trkpt>
      <trkpt lat="47.78768" lon="-3.38462">
        <ele>10</ele>
        <time>2019-07-17T14:24:00Z</time>
      </trkpt>
      <trkpt lat="47.78769" lon="-3.38462">
        <ele>10</ele>
        <time>2019-07-17T14:24:01Z</time>
      </trkpt>
      <trkpt lat="47.7877" lon="-3.38462">
        <ele>10</ele>
        <time>2019-07-17T14:24:02Z</time>
      </trkpt>
      <trkpt lat="47.7877" lon="-3.38462">
        <ele>11</ele>
        <time>2019-07-17T14:24:03Z</time>
      </trkpt>
      <trkpt lat="47.78772" lon="-3.38462">
        <ele>11</ele>
        <time>2019-07-17T14:24:04Z</time>
      </trkpt>
      <trkpt lat="47.78773" lon="-3.38461">
        <ele>11</ele>
        <time>2019-07-17T14:24:05Z</time>
      </trkpt>
      <trkpt lat="47.78774" lon="-3.38461">
        <ele>12</ele>
        <time>2019-07-17T14:24:06Z</time>
      </trkpt>
      <trkpt lat="47.78775" lon="-3.3846">
        <ele>12</ele>
        <time>2019-07-17T14:24:07Z</time>
      </trkpt>
      <trkpt lat="47.78776" lon="-3.3846">
        <ele>12</ele>
        <time>2019-07-17T14:24:08Z</time>
      </trkpt>
      <trkpt lat="47.78777" lon="-3.3846">
        <ele>13</ele>
        <time>2019-07-17T14:24:09Z</time>
      </trkpt>
      <trkpt lat="47.78777" lon="-3.38459">
        <ele>13</ele>
        <time>2019-07-17T14:24:10Z</time>
      </trkpt>
      <trkpt lat="47.78779" lon="-3.38457">
        <ele>13</ele>
        <time>2019-07-17T14:24:11Z</time>
      </trkpt>
      <trkpt lat="47.78781" lon="-3.38455">
        <ele>13</ele>
        <time>2019-07-17T14:24:12Z</time>
      </trkpt>
      <trkpt lat="47.78783" lon="-3.38452">
        <ele>13</ele>
        <time>2019-07-17T14:24:13Z</time>
      </trkpt>
      <trkpt lat="47.78785" lon="-3.3845">
        <ele>13</ele>
        <time>2019-07-17T14:24:14Z</time>
      </trkpt>
      <trkpt lat="47.78786" lon="-3.38448">
        <ele>14</ele>
        <time>2019-07-17T14:24:15Z</time>
      </trkpt>
      <trkpt lat="47.78788" lon="-3.38445">
        <ele>14</ele>
        <time>2019-07-17T14:24:16Z</time>
      </trkpt>
      <trkpt lat="47.78789" lon="-3.38442">
        <ele>14</ele>
        <time>2019-07-17T14:24:17Z</time>
      </trkpt>
      <trkpt lat="47.7879" lon="-3.3844">
        <ele>14</ele>
        <time>2019-07-17T14:24:18Z</time>
      </trkpt>
      <trkpt lat="47.7879" lon="-3.38439">
        <ele>14</ele>
        <time>2019-07-17T14:24:19Z</time>
      </trkpt>
      <trkpt lat="47.78791" lon="-3.38437">
        <ele>14</ele>
        <time>2019-07-17T14:24:20Z</time>
      </trkpt>
      <trkpt lat="47.78792" lon="-3.38434">
        <ele>14</ele>
        <time>2019-07-17T14:24:21Z</time>
      </trkpt>
      <trkpt lat="47.78792" lon="-3.38431">
        <ele>14</ele>
        <time>2019-07-17T14:24:22Z</time>
      </trkpt>
      <trkpt lat="47.78793" lon="-3.38427">
        <ele>14</ele>
        <time>2019-07-17T14:24:23Z</time>
      </trkpt>
      <trkpt lat="47.78794" lon="-3.38424">
        <ele>14</ele>
        <time>2019-07-17T14:24:24Z</time>
      </trkpt>
      <trkpt lat="47.78797" lon="-3.38419">
        <ele>14</ele>
        <time>2019-07-17T14:24:25Z</time>
      </trkpt>
      <trkpt lat="47.78799" lon="-3.38414">
        <ele>14</ele>
        <time>2019-07-17T14:24:26Z</time>
      </trkpt>
      <trkpt lat="47.78802" lon="-3.38409">
        <ele>14</ele>
        <time>2019-07-17T14:24:27Z</time>
      </trkpt>
      <trkpt lat="47.78805" lon="-3.38404">
        <ele>14</ele>
        <time>2019-07-17T14:24:28Z</time>
      </trkpt>
      <trkpt lat="47.78807" lon="-3.38399">
        <ele>14</ele>
        <time>2019-07-17T14:24:29Z</time>
      </trkpt>
      <trkpt lat="47.7881" lon="-3.38393">
        <ele>14</ele>
        <time>2019-07-17T14:24:30Z</time>
      </trkpt>
      <trkpt lat="47.78813" lon="-3.38388">
        <ele>15</ele>
        <time>2019-07-17T14:24:31Z</time>
      </trkpt>
      <trkpt lat="47.78815" lon="-3.38383">
        <ele>15</ele>
        <time>2019-07-17T14:24:32Z</time>
      </trkpt>
      <trkpt lat="47.78816" lon="-3.38379">
        <ele>15</ele>
        <time>2019-07-17T14:24:33Z</time>
      </trkpt>
      <trkpt lat="47.78818" lon="-3.38374">
        <ele>15</ele>
        <time>2019-07-17T14:24:34Z</time>
      </trkpt>
      <trkpt lat="47.7882" lon="-3.38371">
        <ele>15</ele>
        <time>2019-07-17T14:24:35Z</time>
      </trkpt>
      <trkpt lat="47.78822" lon="-3.38368">
        <ele>15</ele>
        <time>2019-07-17T14:24:36Z</time>
      </trkpt>
      <trkpt lat="47.78823" lon="-3.38365">
        <ele>15</ele>
        <time>2019-07-17T14:24:37Z</time>
      </trkpt>
      <trkpt lat="47.78823" lon="-3.38362">
        <ele>15</ele>
        <time>2019-07-17T14:24:38Z</time>
      </trkpt>
      <trkpt lat="47.78825" lon="-3.38358">
        <ele>15</ele>
        <time>2019-07-17T14:24:39Z</time>
      </trkpt>
      <trkpt lat="47.78826" lon="-3.38355">
        <ele>15</ele>
        <time>2019-07-17T14:24:40Z</time>
      </trkpt>
      <trkpt lat="47.78828" lon="-3.38352">
        <ele>15</ele>
        <time>2019-07-17T14:24:41Z</time>
      </trkpt>
      <trkpt lat="47.7883" lon="-3.38349">
        <ele>15</ele>
        <time>2019-07-17T14:24:42Z</time>
      </trkpt>
      <trkpt lat="47.78831" lon="-3.38346">
        <ele>15</ele>
        <time>2019-07-17T14:24:43Z</time>
      </trkpt>
      <trkpt lat="47.78832" lon="-3.38343">
        <ele>15</ele>
        <time>2019-07-17T14:24:44Z</time>
      </trkpt>
      <trkpt lat="47.78833" lon="-3.38341">
        <ele>15</ele>
        <time>2019-07-17T14:24:45Z</time>
      </trkpt>
      <trkpt lat="47.78834" lon="-3.3834">
        <ele>15</ele>
        <time>2019-07-17T14:24:46Z</time>
      </trkpt>
      <trkpt lat="47.78834" lon="-3.3834">
        <ele>15</ele>
        <time>2019-07-17T14:24:47Z</time>
      </trkpt>
      <trkpt lat="47.78835" lon="-3.3834">
        <ele>15</ele>
        <time>2019-07-17T14:24:48Z</time>
      </trkpt>
      <trkpt lat="47.78835" lon="-3.38339">
        <ele>15</ele>
        <time>2019-07-17T14:24:49Z</time>
      </trkpt>
      <trkpt lat="47.78841" lon="-3.38335">
        <ele>15</ele>
        <time>2019-07-17T14:24:50Z</time>
      </trkpt>
      <trkpt lat="47.78843" lon="-3.38336">
        <ele>15</ele>
        <time>2019-07-17T14:24:51Z</time>
      </trkpt>
      <trkpt lat="47.78844" lon="-3.38337">
        <ele>15</ele>
        <time>2019-07-17T14:24:52Z</time>
      </trkpt>
      <trkpt lat="47.78846" lon="-3.38337">
        <ele>15</ele>
        <time>2019-07-17T14:24:53Z</time>
      </trkpt>
      <trkpt lat="47.78847" lon="-3.38337">
        <ele>15</ele>
        <time>2019-07-17T14:24:54Z</time>
      </trkpt>
      <trkpt lat="47.78849" lon="-3.38339">
        <ele>15</ele>
        <time>2019-07-17T14:24:55Z</time>
      </trkpt>
      <trkpt lat="47.7885" lon="-3.3834">
        <ele>15</ele>
        <time>2019-07-17T14:24:56Z</time>
      </trkpt>
      <trkpt lat="47.78852" lon="-3.38342">
        <ele>15</ele>
        <time>2019-07-17T14:24:57Z</time>
      </trkpt>
      <trkpt lat="47.78854" lon="-3.38344">
        <ele>15</ele>
        <time>2019-07-17T14:24:58Z</time>
      </trkpt>
      <trkpt lat="47.78855" lon="-3.38345">
        <ele>15</ele>
        <time>2019-07-17T14:24:59Z</time>
      </trkpt>
      <trkpt lat="47.78857" lon="-3.38347">
        <ele>15</ele>
        <time>2019-07-17T14:25:00Z</time>
      </trkpt>
      <trkpt lat="47.78858" lon="-3.38348">
        <ele>15</ele>
        <time>2019-07-17T14:25:01Z</time>
      </trkpt>
      <trkpt lat="47.7886" lon="-3.38349">
        <ele>15</ele>
        <time>2019-07-17T14:25:02Z</time>
      </trkpt>
      <trkpt lat="47.78861" lon="-3.3835">
        <ele>15</ele>
        <time>2019-07-17T14:25:03Z</time>
      </trkpt>
      <trkpt lat="47.78863" lon="-3.38351">
        <ele>15</ele>
        <time>2019-07-17T14:25:04Z</time>
      </trkpt>
      <trkpt lat="47.78864" lon="-3.38352">
        <ele>15</ele>
        <time>2019-07-17T14:25:05Z</time>
      </trkpt>
      <trkpt lat="47.78866" lon="-3.38354">
        <ele>15</ele>
        <time>2019-07-17T14:25:06Z</time>
      </trkpt>
      <trkpt lat="47.78868" lon="-3.38355">
        <ele>15</ele>
        <time>2019-07-17T14:25:07Z</time>
      </trkpt>
      <trkpt lat="47.78869" lon="-3.38356">
        <ele>15</ele>
        <time>2019-07-17T14:25:08Z</time>
      </trkpt>
      <trkpt lat="47.78871" lon="-3.38358">
        <ele>15</ele>
        <time>2019-07-17T14:25:09Z</time>
      </trkpt>
      <trkpt lat="47.78873" lon="-3.38359">
        <ele>15</ele>
        <time>2019-07-17T14:25:10Z</time>
      </trkpt>
      <trkpt lat="47.78875" lon="-3.3836">
        <ele>15</ele>
        <time>2019-07-17T14:25:11Z</time>
      </trkpt>
      <trkpt lat="47.78877" lon="-3.38361">
        <ele>15</ele>
        <time>2019-07-17T14:25:12Z</time>
      </trkpt>
      <trkpt lat="47.78879" lon="-3.38363">
        <ele>15</ele>
        <time>2019-07-17T14:25:13Z</time>
      </trkpt>
      <trkpt lat="47.78881" lon="-3.38366">
        <ele>15</ele>
        <time>2019-07-17T14:25:14Z</time>
      </trkpt>
      <trkpt lat="47.78883" lon="-3.38367">
        <ele>15</ele>
        <time>2019-07-17T14:25:15Z</time>
      </trkpt>
      <trkpt lat="47.78885" lon="-3.3837">
        <ele>15</ele>
        <time>2019-07-17T14:25:16Z</time>
      </trkpt>
      <trkpt lat="47.78887" lon="-3.38371">
        <ele>15</ele>
        <time>2019-07-17T14:25:17Z</time>
      </trkpt>
      <trkpt lat="47.78889" lon="-3.38373">
        <ele>15</ele>
        <time>2019-07-17T14:25:18Z</time>
      </trkpt>
      <trkpt lat="47.78891" lon="-3.38375">
        <ele>15</ele>
        <time>2019-07-17T14:25:19Z</time>
      </trkpt>
      <trkpt lat="47.78893" lon="-3.38378">
        <ele>15</ele>
        <time>2019-07-17T14:25:20Z</time>
      </trkpt>
      <trkpt lat="47.78895" lon="-3.3838">
        <ele>16</ele>
        <time>2019-07-17T14:25:21Z</time>
      </trkpt>
      <trkpt lat="47.78897" lon="-3.38382">
        <ele>16</ele>
        <time>2019-07-17T14:25:22Z</time>
      </trkpt>
      <trkpt lat="47.78899" lon="-3.38385">
        <ele>16</ele>
        <time>2019-07-17T14:25:23Z</time>
      </trkpt>
      <trkpt lat="47.789" lon="-3.38387">
        <ele>16</ele>
        <time>2019-07-17T14:25:24Z</time>
      </trkpt>
      <trkpt lat="47.78902" lon="-3.3839">
        <ele>16</ele>
        <time>2019-07-17T14:25:25Z</time>
      </trkpt>
      <trkpt lat="47.78904" lon="-3.38394">
        <ele>16</ele>
        <time>2019-07-17T14:25:26Z</time>
      </trkpt>
      <trkpt lat="47.78906" lon="-3.38396">
        <ele>16</ele>
        <time>2019-07-17T14:25:27Z</time>
      </trkpt>
      <trkpt lat="47.78907" lon="-3.38397">
        <ele>16</ele>
        <time>2019-07-17T14:25:28Z</time>
      </trkpt>
      <trkpt lat="47.78907" lon="-3.38398">
        <ele>16</ele>
        <time>2019-07-17T14:25:29Z</time>
      </trkpt>
      <trkpt lat="47.78907" lon="-3.38398">
        <ele>16</ele>
        <time>2019-07-17T14:25:30Z</time>
      </trkpt>
      <trkpt lat="47.78907" lon="-3.38397">
        <ele>16</ele>
        <time>2019-07-17T14:25:31Z</time>
      </trkpt>
      <trkpt lat="47.78911" lon="-3.38402">
        <ele>17</ele>
        <time>2019-07-17T14:25:32Z</time>
      </trkpt>
      <trkpt lat="47.78912" lon="-3.38404">
        <ele>17</ele>
        <time>2019-07-17T14:25:33Z</time>
      </trkpt>
      <trkpt lat="47.78914" lon="-3.38407">
        <ele>17</ele>
        <time>2019-07-17T14:25:34Z</time>
      </trkpt>
      <trkpt lat="47.78916" lon="-3.38409">
        <ele>17</ele>
        <time>2019-07-17T14:25:35Z</time>
      </trkpt>
      <trkpt lat="47.78918" lon="-3.3841">
        <ele>17</ele>
        <time>2019-07-17T14:25:36Z</time>
      </trkpt>
      <trkpt lat="47.7892" lon="-3.38412">
        <ele>17</ele>
        <time>2019-07-17T14:25:37Z</time>
      </trkpt>
      <trkpt lat="47.78923" lon="-3.38413">
        <ele>17</ele>
        <time>2019-07-17T14:25:38Z</time>
      </trkpt>
      <trkpt lat="47.78925" lon="-3.38415">
        <ele>18</ele>
        <time>2019-07-17T14:25:39Z</time>
      </trkpt>
      <trkpt lat="47.78928" lon="-3.38417">
        <ele>18</ele>
        <time>2019-07-17T14:25:40Z</time>
      </trkpt>
      <trkpt lat="47.7893" lon="-3.38419">
        <ele>18</ele>
        <time>2019-07-17T14:25:41Z</time>
      </trkpt>
      <trkpt lat="47.78932" lon="-3.3842">
        <ele>18</ele>
        <time>2019-07-17T14:25:42Z</time>
      </trkpt>
      <trkpt lat="47.78934" lon="-3.38422">
        <ele>18</ele>
        <time>2019-07-17T14:25:43Z</time>
      </trkpt>
      <trkpt lat="47.78936" lon="-3.38424">
        <ele>18</ele>
        <time>2019-07-17T14:25:44Z</time>
      </trkpt>
      <trkpt lat="47.78938" lon="-3.38426">
        <ele>19</ele>
        <time>2019-07-17T14:25:45Z</time>
      </trkpt>
      <trkpt lat="47.78941" lon="-3.38428">
        <ele>19</ele>
        <time>2019-07-17T14:25:46Z</time>
      </trkpt>
      <trkpt lat="47.78943" lon="-3.3843">
        <ele>19</ele>
        <time>2019-07-17T14:25:47Z</time>
      </trkpt>
      <trkpt lat="47.78946" lon="-3.38431">
        <ele>19</ele>
        <time>2019-07-17T14:25:48Z</time>
      </trkpt>
      <trkpt lat="47.78949" lon="-3.38433">
        <ele>19</ele>
        <time>2019-07-17T14:25:49Z</time>
      </trkpt>
      <trkpt lat="47.78951" lon="-3.38435">
        <ele>19</ele>
        <time>2019-07-17T14:25:50Z</time>
      </trkpt>
      <trkpt lat="47.78954" lon="-3.38438">
        <ele>20</ele>
        <time>2019-07-17T14:25:51Z</time>
      </trkpt>
      <trkpt lat="47.78957" lon="-3.3844">
        <ele>20</ele>
        <time>2019-07-17T14:25:52Z</time>
      </trkpt>
      <trkpt lat="47.7896" lon="-3.38442">
        <ele>20</ele>
        <time>2019-07-17T14:25:53Z</time>
      </trkpt>
      <trkpt lat="47.78962" lon="-3.38444">
        <ele>20</ele>
        <time>2019-07-17T14:25:54Z</time>
      </trkpt>
      <trkpt lat="47.78965" lon="-3.38446">
        <ele>21</ele>
        <time>2019-07-17T14:25:55Z</time>
      </trkpt>
      <trkpt lat="47.78968" lon="-3.38449">
        <ele>21</ele>
        <time>2019-07-17T14:25:56Z</time>
      </trkpt>
      <trkpt lat="47.78971" lon="-3.38451">
        <ele>21</ele>
        <time>2019-07-17T14:25:57Z</time>
      </trkpt>
      <trkpt lat="47.78974" lon="-3.38453">
        <ele>21</ele>
        <time>2019-07-17T14:25:58Z</time>
      </trkpt>
      <trkpt lat="47.78976" lon="-3.38455">
        <ele>22</ele>
        <time>2019-07-17T14:25:59Z</time>
      </trkpt>
      <trkpt lat="47.78979" lon="-3.38457">
        <ele>22</ele>
        <time>2019-07-17T14:26:00Z</time>
      </trkpt>
      <trkpt lat="47.78982" lon="-3.3846">
        <ele>22</ele>
        <time>2019-07-17T14:26:01Z</time>
      </trkpt>
      <trkpt lat="47.78985" lon="-3.38462">
        <ele>22</ele>
        <time>2019-07-17T14:26:02Z</time>
      </trkpt>
      <trkpt lat="47.78988" lon="-3.38464">
        <ele>22</ele>
        <time>2019-07-17T14:26:03Z</time>
      </trkpt>
      <trkpt lat="47.78991" lon="-3.38466">
        <ele>23</ele>
        <time>2019-07-17T14:26:04Z</time>
      </trkpt>
      <trkpt lat="47.78994" lon="-3.38469">
        <ele>23</ele>
        <time>2019-07-17T14:26:05Z</time>
      </trkpt>
      <trkpt lat="47.78998" lon="-3.3847">
        <ele>23</ele>
        <time>2019-07-17T14:26:06Z</time>
      </trkpt>
      <trkpt lat="47.79002" lon="-3.3847">
        <ele>23</ele>
        <time>2019-07-17T14:26:07Z</time>
      </trkpt>
      <trkpt lat="47.79005" lon="-3.38469">
        <ele>23</ele>
        <time>2019-07-17T14:26:08Z</time>
      </trkpt>
      <trkpt lat="47.79009" lon="-3.38468">
        <ele>23</ele>
        <time>2019-07-17T14:26:09Z</time>
      </trkpt>
      <trkpt lat="47.79012" lon="-3.38466">
        <ele>23</ele>
        <time>2019-07-17T14:26:10Z</time>
      </trkpt>
      <trkpt lat="47.79016" lon="-3.38463">
        <ele>23</ele>
        <time>2019-07-17T14:26:11Z</time>
      </trkpt>
      <trkpt lat="47.79019" lon="-3.38461">
        <ele>24</ele>
        <time>2019-07-17T14:26:12Z</time>
      </trkpt>
      <trkpt lat="47.79023" lon="-3.38459">
        <ele>24</ele>
        <time>2019-07-17T14:26:13Z</time>
      </trkpt>
      <trkpt lat="47.79026" lon="-3.38458">
        <ele>24</ele>
        <time>2019-07-17T14:26:14Z</time>
      </trkpt>
      <trkpt lat="47.79029" lon="-3.38456">
        <ele>24</ele>
        <time>2019-07-17T14:26:15Z</time>
      </trkpt>
      <trkpt lat="47.79033" lon="-3.38455">
        <ele>24</ele>
        <time>2019-07-17T14:26:16Z</time>
      </trkpt>
      <trkpt lat="47.79036" lon="-3.38454">
        <ele>25</ele>
        <time>2019-07-17T14:26:17Z</time>
      </trkpt>
      <trkpt lat="47.7904" lon="-3.38454">
        <ele>25</ele>
        <time>2019-07-17T14:26:18Z</time>
      </trkpt>
      <trkpt lat="47.79044" lon="-3.38453">
        <ele>25</ele>
        <time>2019-07-17T14:26:19Z</time>
      </trkpt>
      <trkpt lat="47.79048" lon="-3.38454">
        <ele>25</ele>
        <time>2019-07-17T14:26:20Z</time>
      </trkpt>
      <trkpt lat="47.79051" lon="-3.38454">
        <ele>25</ele>
        <time>2019-07-17T14:26:21Z</time>
      </trkpt>
      <trkpt lat="47.79055" lon="-3.38454">
        <ele>25</ele>
        <time>2019-07-17T14:26:22Z</time>
      </trkpt>
      <trkpt lat="47.79058" lon="-3.38455">
        <ele>26</ele>
        <time>2019-07-17T14:26:23Z</time>
      </trkpt>
      <trkpt lat="47.79062" lon="-3.38455">
        <ele>26</ele>
        <time>2019-07-17T14:26:24Z</time>
      </trkpt>
      <trkpt lat="47.79066" lon="-3.38456">
        <ele>26</ele>
        <time>2019-07-17T14:26:25Z</time>
      </trkpt>
      <trkpt lat="47.79069" lon="-3.38456">
        <ele>26</ele>
        <time>2019-07-17T14:26:26Z</time>
      </trkpt>
      <trkpt lat="47.79073" lon="-3.38457">
        <ele>26</ele>
        <time>2019-07-17T14:26:27Z</time>
      </trkpt>
      <trkpt lat="47.79077" lon="-3.38457">
        <ele>26</ele>
        <time>2019-07-17T14:26:28Z</time>
      </trkpt>
      <trkpt lat="47.7908" lon="-3.38458">
        <ele>27</ele>
        <time>2019-07-17T14:26:29Z</time>
      </trkpt>
      <trkpt lat="47.79084" lon="-3.38458">
        <ele>27</ele>
        <time>2019-07-17T14:26:30Z</time>
      </trkpt>
      <trkpt lat="47.79088" lon="-3.38459">
        <ele>27</ele>
        <time>2019-07-17T14:26:31Z</time>
      </trkpt>
      <trkpt lat="47.79092" lon="-3.3846">
        <ele>27</ele>
        <time>2019-07-17T14:26:32Z</time>
      </trkpt>
      <trkpt lat="47.79096" lon="-3.38461">
        <ele>28</ele>
        <time>2019-07-17T14:26:33Z</time>
      </trkpt>
      <trkpt lat="47.791" lon="-3.38461">
        <ele>28</ele>
        <time>2019-07-17T14:26:34Z</time>
      </trkpt>
      <trkpt lat="47.79104" lon="-3.38461">
        <ele>28</ele>
        <time>2019-07-17T14:26:35Z</time>
      </trkpt>
      <trkpt lat="47.79108" lon="-3.38461">
        <ele>28</ele>
        <time>2019-07-17T14:26:36Z</time>
      </trkpt>
      <trkpt lat="47.79112" lon="-3.38462">
        <ele>29</ele>
        <time>2019-07-17T14:26:37Z</time>
      </trkpt>
      <trkpt lat="47.79117" lon="-3.38462">
        <ele>29</ele>
        <time>2019-07-17T14:26:38Z</time>
      </trkpt>
      <trkpt lat="47.79121" lon="-3.38461">
        <ele>29</ele>
        <time>2019-07-17T14:26:39Z</time>
      </trkpt>
      <trkpt lat="47.79125" lon="-3.38461">
        <ele>29</ele>
        <time>2019-07-17T14:26:40Z</time>
      </trkpt>
      <trkpt lat="47.79129" lon="-3.3846">
        <ele>29</ele>
        <time>2019-07-17T14:26:41Z</time>
      </trkpt>
      <trkpt lat="47.79133" lon="-3.38459">
        <ele>29</ele>
        <time>2019-07-17T14:26:42Z</time>
      </trkpt>
      <trkpt lat="47.79138" lon="-3.38458">
        <ele>30</ele>
        <time>2019-07-17T14:26:43Z</time>
      </trkpt>
      <trkpt lat="47.79142" lon="-3.38456">
        <ele>30</ele>
        <time>2019-07-17T14:26:44Z</time>
      </trkpt>
      <trkpt lat="47.79146" lon="-3.38455">
        <ele>30</ele>
        <time>2019-07-17T14:26:45Z</time>
      </trkpt>
      <trkpt lat="47.79151" lon="-3.38454">
        <ele>30</ele>
        <time>2019-07-17T14:26:46Z</time>
      </trkpt>
      <trkpt lat="47.79155" lon="-3.38454">
        <ele>30</ele>
        <time>2019-07-17T14:26:47Z</time>
      </trkpt>
      <trkpt lat="47.79159" lon="-3.38454">
        <ele>30</ele>
        <time>2019-07-17T14:26:48Z</time>
      </trkpt>
      <trkpt lat="47.79164" lon="-3.38455">
        <ele>30</ele>
        <time>2019-07-17T14:26:49Z</time>
      </trkpt>
      <trkpt lat="47.79168" lon="-3.38455">
        <ele>30</ele>
        <time>2019-07-17T14:26:50Z</time>
      </trkpt>
      <trkpt lat="47.79173" lon="-3.38454">
        <ele>30</ele>
        <time>2019-07-17T14:26:51Z</time>
      </trkpt>
      <trkpt lat="47.79178" lon="-3.38453">
        <ele>30</ele>
        <time>2019-07-17T14:26:52Z</time>
      </trkpt>
      <trkpt lat="47.79183" lon="-3.38453">
        <ele>30</ele>
        <time>2019-07-17T14:26:53Z</time>
      </trkpt>
      <trkpt lat="47.79188" lon="-3.38453">
        <ele>30</ele>
        <time>2019-07-17T14:26:54Z</time>
      </trkpt>
      <trkpt lat="47.79194" lon="-3.38452">
        <ele>30</ele>
        <time>2019-07-17T14:26:55Z</time>
      </trkpt>
      <trkpt lat="47.792" lon="-3.38452">
        <ele>30</ele>
        <time>2019-07-17T14:26:56Z</time>
      </trkpt>
      <trkpt lat="47.79208" lon="-3.38451">
        <ele>30</ele>
        <time>2019-07-17T14:26:57Z</time>
      </trkpt>
      <trkpt lat="47.79215" lon="-3.38449">
        <ele>30</ele>
        <time>2019-07-17T14:26:58Z</time>
      </trkpt>
      <trkpt lat="47.79223" lon="-3.38449">
        <ele>30</ele>
        <time>2019-07-17T14:26:59Z</time>
      </trkpt>
      <trkpt lat="47.7923" lon="-3.38449">
        <ele>30</ele>
        <time>2019-07-17T14:27:00Z</time>
      </trkpt>
      <trkpt lat="47.79237" lon="-3.3845">
        <ele>30</ele>
        <time>2019-07-17T14:27:01Z</time>
      </trkpt>
      <trkpt lat="47.79244" lon="-3.3845">
        <ele>30</ele>
        <time>2019-07-17T14:27:02Z</time>
      </trkpt>
      <trkpt lat="47.7925" lon="-3.38452">
        <ele>30</ele>
        <time>2019-07-17T14:27:03Z</time>
      </trkpt>
      <trkpt lat="47.79256" lon="-3.38454">
        <ele>30</ele>
        <time>2019-07-17T14:27:04Z</time>
      </trkpt>
      <trkpt lat="47.79262" lon="-3.38455">
        <ele>30</ele>
        <time>2019-07-17T14:27:05Z</time>
      </trkpt>
      <trkpt lat="47.79266" lon="-3.38456">
        <ele>30</ele>
        <time>2019-07-17T14:27:06Z</time>
      </trkpt>
      <trkpt lat="47.79272" lon="-3.38456">
        <ele>30</ele>
        <time>2019-07-17T14:27:07Z</time>
      </trkpt>
      <trkpt lat="47.79276" lon="-3.38457">
        <ele>30</ele>
        <time>2019-07-17T14:27:08Z</time>
      </trkpt>
      <trkpt lat="47.7928" lon="-3.38458">
        <ele>30</ele>
        <time>2019-07-17T14:27:09Z</time>
      </trkpt>
      <trkpt lat="47.79285" lon="-3.38459">
        <ele>30</ele>
        <time>2019-07-17T14:27:10Z</time>
      </trkpt>
      <trkpt lat="47.79289" lon="-3.3846">
        <ele>30</ele>
        <time>2019-07-17T14:27:11Z</time>
      </trkpt>
      <trkpt lat="47.79294" lon="-3.38461">
        <ele>30</ele>
        <time>2019-07-17T14:27:12Z</time>
      </trkpt>
      <trkpt lat="47.79299" lon="-3.38461">
        <ele>30</ele>
        <time>2019-07-17T14:27:13Z</time>
      </trkpt>
      <trkpt lat="47.79303" lon="-3.3846">
        <ele>30</ele>
        <time>2019-07-17T14:27:14Z</time>
      </trkpt>
      <trkpt lat="47.79308" lon="-3.38461">
        <ele>30</ele>
        <time>2019-07-17T14:27:15Z</time>
      </trkpt>
      <trkpt lat="47.79312" lon="-3.3846">
        <ele>30</ele>
        <time>2019-07-17T14:27:16Z</time>
      </trkpt>
      <trkpt lat="47.79317" lon="-3.38459">
        <ele>30</ele>
        <time>2019-07-17T14:27:17Z</time>
      </trkpt>
      <trkpt lat="47.79321" lon="-3.38459">
        <ele>30</ele>
        <time>2019-07-17T14:27:18Z</time>
      </trkpt>
      <trkpt lat="47.79325" lon="-3.38458">
        <ele>30</ele>
        <time>2019-07-17T14:27:19Z</time>
      </trkpt>
      <trkpt lat="47.79328" lon="-3.38457">
        <ele>30</ele>
        <time>2019-07-17T14:27:20Z</time>
      </trkpt>
      <trkpt lat="47.79332" lon="-3.38457">
        <ele>30</ele>
        <time>2019-07-17T14:27:21Z</time>
      </trkpt>
      <trkpt lat="47.79336" lon="-3.38456">
        <ele>29</ele>
        <time>2019-07-17T14:27:22Z</time>
      </trkpt>
      <trkpt lat="47.7934" lon="-3.38455">
        <ele>29</ele>
        <time>2019-07-17T14:27:23Z</time>
      </trkpt>
      <trkpt lat="47.79344" lon="-3.38455">
        <ele>29</ele>
        <time>2019-07-17T14:27:24Z</time>
      </trkpt>
      <trkpt lat="47.79348" lon="-3.38456">
        <ele>29</ele>
        <time>2019-07-17T14:27:25Z</time>
      </trkpt>
      <trkpt lat="47.79352" lon="-3.38456">
        <ele>29</ele>
        <time>2019-07-17T14:27:26Z</time>
      </trkpt>
      <trkpt lat="47.79357" lon="-3.38456">
        <ele>30</ele>
        <time>2019-07-17T14:27:27Z</time>
      </trkpt>
      <trkpt lat="47.79362" lon="-3.38456">
        <ele>30</ele>
        <time>2019-07-17T14:27:28Z</time>
      </trkpt>
      <trkpt lat="47.79367" lon="-3.38456">
        <ele>30</ele>
        <time>2019-07-17T14:27:29Z</time>
      </trkpt>
      <trkpt lat="47.79372" lon="-3.38455">
        <ele>30</ele>
        <time>2019-07-17T14:27:30Z</time>
      </trkpt>
      <trkpt lat="47.79377" lon="-3.38455">
        <ele>30</ele>
        <time>2019-07-17T14:27:31Z</time>
      </trkpt>
      <trkpt lat="47.79381" lon="-3.38453">
        <ele>30</ele>
        <time>2019-07-17T14:27:32Z</time>
      </trkpt>
      <trkpt lat="47.79384" lon="-3.38453">
        <ele>30</ele>
        <time>2019-07-17T14:27:33Z</time>
      </trkpt>
      <trkpt lat="47.79386" lon="-3.38453">
        <ele>30</ele>
        <time>2019-07-17T14:27:34Z</time>
      </trkpt>
      <trkpt lat="47.79387" lon="-3.38454">
        <ele>30</ele>
        <time>2019-07-17T14:27:35Z</time>
      </trkpt>
      <trkpt lat="47.79387" lon="-3.38454">
        <ele>30</ele>
        <time>2019-07-17T14:27:36Z</time>
      </trkpt>
      <trkpt lat="47.79387" lon="-3.38455">
        <ele>30</ele>
        <time>2019-07-17T14:27:37Z</time>
      </trkpt>
      <trkpt lat="47.7939" lon="-3.38453">
        <ele>31</ele>
        <time>2019-07-17T14:27:38Z</time>
      </trkpt>
      <trkpt lat="47.79392" lon="-3.38453">
        <ele>31</ele>
        <time>2019-07-17T14:27:39Z</time>
      </trkpt>
      <trkpt lat="47.79394" lon="-3.38452">
        <ele>31</ele>
        <time>2019-07-17T14:27:40Z</time>
      </trkpt>
      <trkpt lat="47.79397" lon="-3.38452">
        <ele>31</ele>
        <time>2019-07-17T14:27:41Z</time>
      </trkpt>
      <trkpt lat="47.794" lon="-3.38451">
        <ele>31</ele>
        <time>2019-07-17T14:27:42Z</time>
      </trkpt>
      <trkpt lat="47.79403" lon="-3.3845">
        <ele>31</ele>
        <time>2019-07-17T14:27:43Z</time>
      </trkpt>
      <trkpt lat="47.79407" lon="-3.38449">
        <ele>31</ele>
        <time>2019-07-17T14:27:44Z</time>
      </trkpt>
      <trkpt lat="47.7941" lon="-3.38447">
        <ele>31</ele>
        <time>2019-07-17T14:27:45Z</time>
      </trkpt>
      <trkpt lat="47.79414" lon="-3.38446">
        <ele>31</ele>
        <time>2019-07-17T14:27:46Z</time>
      </trkpt>
      <trkpt lat="47.79417" lon="-3.38446">
        <ele>31</ele>
        <time>2019-07-17T14:27:47Z</time>
      </trkpt>
      <trkpt lat="47.7942" lon="-3.38445">
        <ele>31</ele>
        <time>2019-07-17T14:27:48Z</time>
      </trkpt>
      <trkpt lat="47.79422" lon="-3.38445">
        <ele>31</ele>
        <time>2019-07-17T14:27:49Z</time>
      </trkpt>
      <trkpt lat="47.79424" lon="-3.38443">
        <ele>31</ele>
        <time>2019-07-17T14:27:50Z</time>
      </trkpt>
      <trkpt lat="47.79427" lon="-3.38442">
        <ele>31</ele>
        <time>2019-07-17T14:27:51Z</time>
      </trkpt>
      <trkpt lat="47.7943" lon="-3.38443">
        <ele>31</ele>
        <time>2019-07-17T14:27:52Z</time>
      </trkpt>
      <trkpt lat="47.79432" lon="-3.38445">
        <ele>31</ele>
        <time>2019-07-17T14:27:53Z</time>
      </trkpt>
      <trkpt lat="47.79434" lon="-3.38447">
        <ele>31</ele>
        <time>2019-07-17T14:27:54Z</time>
      </trkpt>
      <trkpt lat="47.79437" lon="-3.3845">
        <ele>31</ele>
        <time>2019-07-17T14:27:55Z</time>
      </trkpt>
      <trkpt lat="47.7944" lon="-3.38452">
        <ele>31</ele>
        <time>2019-07-17T14:27:56Z</time>
      </trkpt>
      <trkpt lat="47.79442" lon="-3.38455">
        <ele>31</ele>
        <time>2019-07-17T14:27:57Z</time>
      </trkpt>
      <trkpt lat="47.79444" lon="-3.38458">
        <ele>30</ele>
        <time>2019-07-17T14:27:58Z</time>
      </trkpt>
      <trkpt lat="47.79447" lon="-3.3846">
        <ele>30</ele>
        <time>2019-07-17T14:27:59Z</time>
      </trkpt>
      <trkpt lat="47.79451" lon="-3.38464">
        <ele>30</ele>
        <time>2019-07-17T14:28:00Z</time>
      </trkpt>
      <trkpt lat="47.79456" lon="-3.38468">
        <ele>29</ele>
        <time>2019-07-17T14:28:01Z</time>
      </trkpt>
      <trkpt lat="47.7946" lon="-3.38471">
        <ele>29</ele>
        <time>2019-07-17T14:28:02Z</time>
      </trkpt>
      <trkpt lat="47.79465" lon="-3.38473">
        <ele>29</ele>
        <time>2019-07-17T14:28:03Z</time>
      </trkpt>
      <trkpt lat="47.79469" lon="-3.38478">
        <ele>28</ele>
        <time>2019-07-17T14:28:04Z</time>
      </trkpt>
      <trkpt lat="47.79473" lon="-3.38482">
        <ele>28</ele>
        <time>2019-07-17T14:28:05Z</time>
      </trkpt>
      <trkpt lat="47.79478" lon="-3.38486">
        <ele>28</ele>
        <time>2019-07-17T14:28:06Z</time>
      </trkpt>
      <trkpt lat="47.79482" lon="-3.38491">
        <ele>27</ele>
        <time>2019-07-17T14:28:07Z</time>
      </trkpt>
      <trkpt lat="47.79486" lon="-3.38495">
        <ele>27</ele>
        <time>2019-07-17T14:28:08Z</time>
      </trkpt>
      <trkpt lat="47.79489" lon="-3.38499">
        <ele>27</ele>
        <time>2019-07-17T14:28:09Z</time>
      </trkpt>
      <trkpt lat="47.79493" lon="-3.38504">
        <ele>27</ele>
        <time>2019-07-17T14:28:10Z</time>
      </trkpt>
      <trkpt lat="47.79497" lon="-3.38509">
        <ele>27</ele>
        <time>2019-07-17T14:28:11Z</time>
      </trkpt>
      <trkpt lat="47.79501" lon="-3.38514">
        <ele>27</ele>
        <time>2019-07-17T14:28:12Z</time>
      </trkpt>
      <trkpt lat="47.79505" lon="-3.38518">
        <ele>27</ele>
        <time>2019-07-17T14:28:13Z</time>
      </trkpt>
      <trkpt lat="47.7951" lon="-3.38523">
        <ele>27</ele>
        <time>2019-07-17T14:28:14Z</time>
      </trkpt>
      <trkpt lat="47.79514" lon="-3.38527">
        <ele>27</ele>
        <time>2019-07-17T14:28:15Z</time>
      </trkpt>
      <trkpt lat="47.79518" lon="-3.38531">
        <ele>26</ele>
        <time>2019-07-17T14:28:16Z</time>
      </trkpt>
      <trkpt lat="47.79521" lon="-3.38535">
        <ele>26</ele>
        <time>2019-07-17T14:28:17Z</time>
      </trkpt>
      <trkpt lat="47.79525" lon="-3.3854">
        <ele>26</ele>
        <time>2019-07-17T14:28:18Z</time>
      </trkpt>
      <trkpt lat="47.79529" lon="-3.38545">
        <ele>26</ele>
        <time>2019-07-17T14:28:19Z</time>
      </trkpt>
      <trkpt lat="47.79534" lon="-3.3855">
        <ele>26</ele>
        <time>2019-07-17T14:28:20Z</time>
      </trkpt>
      <trkpt lat="47.79539" lon="-3.38556">
        <ele>26</ele>
        <time>2019-07-17T14:28:21Z</time>
      </trkpt>
      <trkpt lat="47.79543" lon="-3.38561">
        <ele>26</ele>
        <time>2019-07-17T14:28:22Z</time>
      </trkpt>
      <trkpt lat="47.79547" lon="-3.38567">
        <ele>26</ele>
        <time>2019-07-17T14:28:23Z</time>
      </trkpt>
      <trkpt lat="47.7955" lon="-3.38573">
        <ele>26</ele>
        <time>2019-07-17T14:28:24Z</time>
      </trkpt>
      <trkpt lat="47.79554" lon="-3.38577">
        <ele>26</ele>
        <time>2019-07-17T14:28:25Z</time>
      </trkpt>
      <trkpt lat="47.79557" lon="-3.38582">
        <ele>26</ele>
        <time>2019-07-17T14:28:26Z</time>
      </trkpt>
      <trkpt lat="47.7956" lon="-3.38586">
        <ele>26</ele>
        <time>2019-07-17T14:28:27Z</time>
      </trkpt>
      <trkpt lat="47.79563" lon="-3.38591">
        <ele>26</ele>
        <time>2019-07-17T14:28:28Z</time>
      </trkpt>
      <trkpt lat="47.79566" lon="-3.38596">
        <ele>25</ele>
        <time>2019-07-17T14:28:29Z</time>
      </trkpt>
      <trkpt lat="47.79569" lon="-3.386">
        <ele>25</ele>
        <time>2019-07-17T14:28:30Z</time>
      </trkpt>
      <trkpt lat="47.79571" lon="-3.38605">
        <ele>25</ele>
        <time>2019-07-17T14:28:31Z</time>
      </trkpt>
      <trkpt lat="47.79574" lon="-3.38611">
        <ele>25</ele>
        <time>2019-07-17T14:28:32Z</time>
      </trkpt>
      <trkpt lat="47.79577" lon="-3.38619">
        <ele>25</ele>
        <time>2019-07-17T14:28:33Z</time>
      </trkpt>
      <trkpt lat="47.79581" lon="-3.38626">
        <ele>25</ele>
        <time>2019-07-17T14:28:34Z</time>
      </trkpt>
      <trkpt lat="47.79584" lon="-3.38633">
        <ele>25</ele>
        <time>2019-07-17T14:28:35Z</time>
      </trkpt>
      <trkpt lat="47.79587" lon="-3.38639">
        <ele>25</ele>
        <time>2019-07-17T14:28:36Z</time>
      </trkpt>
      <trkpt lat="47.79591" lon="-3.38644">
        <ele>25</ele>
        <time>2019-07-17T14:28:37Z</time>
      </trkpt>
      <trkpt lat="47.79594" lon="-3.38649">
        <ele>25</ele>
        <time>2019-07-17T14:28:38Z</time>
      </trkpt>
      <trkpt lat="47.79598" lon="-3.38654">
        <ele>25</ele>
        <time>2019-07-17T14:28:39Z</time>
      </trkpt>
      <trkpt lat="47.79602" lon="-3.38658">
        <ele>25</ele>
        <time>2019-07-17T14:28:40Z</time>
      </trkpt>
      <trkpt lat="47.79606" lon="-3.38662">
        <ele>25</ele>
        <time>2019-07-17T14:28:41Z</time>
      </trkpt>
      <trkpt lat="47.7961" lon="-3.38666">
        <ele>24</ele>
        <time>2019-07-17T14:28:42Z</time>
      </trkpt>
      <trkpt lat="47.79613" lon="-3.38671">
        <ele>24</ele>
        <time>2019-07-17T14:28:43Z</time>
      </trkpt>
      <trkpt lat="47.79616" lon="-3.38676">
        <ele>24</ele>
        <time>2019-07-17T14:28:44Z</time>
      </trkpt>
      <trkpt lat="47.79618" lon="-3.38682">
        <ele>24</ele>
        <time>2019-07-17T14:28:45Z</time>
      </trkpt>
      <trkpt lat="47.7962" lon="-3.38688">
        <ele>24</ele>
        <time>2019-07-17T14:28:46Z</time>
      </trkpt>
      <trkpt lat="47.79622" lon="-3.38694">
        <ele>24</ele>
        <time>2019-07-17T14:28:47Z</time>
      </trkpt>
      <trkpt lat="47.79623" lon="-3.387">
        <ele>24</ele>
        <time>2019-07-17T14:28:48Z</time>
      </trkpt>
      <trkpt lat="47.79624" lon="-3.38706">
        <ele>24</ele>
        <time>2019-07-17T14:28:49Z</time>
      </trkpt>
      <trkpt lat="47.79627" lon="-3.38713">
        <ele>24</ele>
        <time>2019-07-17T14:28:50Z</time>
      </trkpt>
      <trkpt lat="47.79629" lon="-3.3872">
        <ele>24</ele>
        <time>2019-07-17T14:28:51Z</time>
      </trkpt>
      <trkpt lat="47.79631" lon="-3.38727">
        <ele>23</ele>
        <time>2019-07-17T14:28:52Z</time>
      </trkpt>
      <trkpt lat="47.79634" lon="-3.38734">
        <ele>23</ele>
        <time>2019-07-17T14:28:53Z</time>
      </trkpt>
      <trkpt lat="47.79637" lon="-3.38742">
        <ele>23</ele>
        <time>2019-07-17T14:28:54Z</time>
      </trkpt>
      <trkpt lat="47.7964" lon="-3.38749">
        <ele>23</ele>
        <time>2019-07-17T14:28:55Z</time>
      </trkpt>
      <trkpt lat="47.79642" lon="-3.38756">
        <ele>23</ele>
        <time>2019-07-17T14:28:56Z</time>
      </trkpt>
      <trkpt lat="47.79645" lon="-3.38762">
        <ele>22</ele>
        <time>2019-07-17T14:28:57Z</time>
      </trkpt>
      <trkpt lat="47.79648" lon="-3.38768">
        <ele>22</ele>
        <time>2019-07-17T14:28:58Z</time>
      </trkpt>
      <trkpt lat="47.79651" lon="-3.38774">
        <ele>22</ele>
        <time>2019-07-17T14:28:59Z</time>
      </trkpt>
      <trkpt lat="47.79654" lon="-3.38779">
        <ele>22</ele>
        <time>2019-07-17T14:29:00Z</time>
      </trkpt>
      <trkpt lat="47.79657" lon="-3.38785">
        <ele>22</ele>
        <time>2019-07-17T14:29:01Z</time>
      </trkpt>
      <trkpt lat="47.7966" lon="-3.38791">
        <ele>22</ele>
        <time>2019-07-17T14:29:02Z</time>
      </trkpt>
      <trkpt lat="47.79663" lon="-3.38798">
        <ele>21</ele>
        <time>2019-07-17T14:29:03Z</time>
      </trkpt>
      <trkpt lat="47.79666" lon="-3.38804">
        <ele>21</ele>
        <time>2019-07-17T14:29:04Z</time>
      </trkpt>
      <trkpt lat="47.79668" lon="-3.38811">
        <ele>21</ele>
        <time>2019-07-17T14:29:05Z</time>
      </trkpt>
      <trkpt lat="47.79671" lon="-3.38817">
        <ele>21</ele>
        <time>2019-07-17T14:29:06Z</time>
      </trkpt>
      <trkpt lat="47.79674" lon="-3.38823">
        <ele>21</ele>
        <time>2019-07-17T14:29:07Z</time>
      </trkpt>
      <trkpt lat="47.79677" lon="-3.3883">
        <ele>21</ele>
        <time>2019-07-17T14:29:08Z</time>
      </trkpt>
      <trkpt lat="47.79679" lon="-3.38837">
        <ele>21</ele>
        <time>2019-07-17T14:29:09Z</time>
      </trkpt>
      <trkpt lat="47.79681" lon="-3.38843">
        <ele>21</ele>
        <time>2019-07-17T14:29:10Z</time>
      </trkpt>
      <trkpt lat="47.79684" lon="-3.3885">
        <ele>21</ele>
        <time>2019-07-17T14:29:11Z</time>
      </trkpt>
      <trkpt lat="47.79687" lon="-3.38856">
        <ele>21</ele>
        <time>2019-07-17T14:29:12Z</time>
      </trkpt>
      <trkpt lat="47.79691" lon="-3.38863">
        <ele>21</ele>
        <time>2019-07-17T14:29:13Z</time>
      </trkpt>
      <trkpt lat="47.79695" lon="-3.38868">
        <ele>21</ele>
        <time>2019-07-17T14:29:14Z</time>
      </trkpt>
      <trkpt lat="47.797" lon="-3.38874">
        <ele>21</ele>
        <time>2019-07-17T14:29:15Z</time>
      </trkpt>
      <trkpt lat="47.79704" lon="-3.38879">
        <ele>21</ele>
        <time>2019-07-17T14:29:16Z</time>
      </trkpt>
      <trkpt lat="47.79709" lon="-3.38884">
        <ele>21</ele>
        <time>2019-07-17T14:29:17Z</time>
      </trkpt>
      <trkpt lat="47.79715" lon="-3.38889">
        <ele>21</ele>
        <time>2019-07-17T14:29:18Z</time>
      </trkpt>
      <trkpt lat="47.79719" lon="-3.38894">
        <ele>21</ele>
        <time>2019-07-17T14:29:19Z</time>
      </trkpt>
      <trkpt lat="47.79724" lon="-3.38899">
        <ele>21</ele>
        <time>2019-07-17T14:29:20Z</time>
      </trkpt>
      <trkpt lat="47.79729" lon="-3.38903">
        <ele>21</ele>
        <time>2019-07-17T14:29:21Z</time>
      </trkpt>
      <trkpt lat="47.79734" lon="-3.38907">
        <ele>21</ele>
        <time>2019-07-17T14:29:22Z</time>
      </trkpt>
      <trkpt lat="47.79738" lon="-3.38911">
        <ele>21</ele>
        <time>2019-07-17T14:29:23Z</time>
      </trkpt>
      <trkpt lat="47.79741" lon="-3.38913">
        <ele>21</ele>
        <time>2019-07-17T14:29:24Z</time>
      </trkpt>
      <trkpt lat="47.79745" lon="-3.38917">
        <ele>21</ele>
        <time>2019-07-17T14:29:25Z</time>
      </trkpt>
      <trkpt lat="47.79748" lon="-3.38921">
        <ele>21</ele>
        <time>2019-07-17T14:29:26Z</time>
      </trkpt>
      <trkpt lat="47.79751" lon="-3.38925">
        <ele>21</ele>
        <time>2019-07-17T14:29:27Z</time>
      </trkpt>
      <trkpt lat="47.79754" lon="-3.3893">
        <ele>21</ele>
        <time>2019-07-17T14:29:28Z</time>
      </trkpt>
      <trkpt lat="47.79758" lon="-3.38934">
        <ele>21</ele>
        <time>2019-07-17T14:29:29Z</time>
      </trkpt>
      <trkpt lat="47.79764" lon="-3.38937">
        <ele>21</ele>
        <time>2019-07-17T14:29:30Z</time>
      </trkpt>
      <trkpt lat="47.7977" lon="-3.38941">
        <ele>21</ele>
        <time>2019-07-17T14:29:31Z</time>
      </trkpt>
      <trkpt lat="47.79775" lon="-3.38944">
        <ele>21</ele>
        <time>2019-07-17T14:29:32Z</time>
      </trkpt>
      <trkpt lat="47.79781" lon="-3.38948">
        <ele>21</ele>
        <time>2019-07-17T14:29:33Z</time>
      </trkpt>
      <trkpt lat="47.79787" lon="-3.38952">
        <ele>21</ele>
        <time>2019-07-17T14:29:34Z</time>
      </trkpt>
      <trkpt lat="47.79792" lon="-3.38955">
        <ele>21</ele>
        <time>2019-07-17T14:29:35Z</time>
      </trkpt>
      <trkpt lat="47.79798" lon="-3.38959">
        <ele>21</ele>
        <time>2019-07-17T14:29:36Z</time>
      </trkpt>
      <trkpt lat="47.79804" lon="-3.38963">
        <ele>21</ele>
        <time>2019-07-17T14:29:37Z</time>
      </trkpt>
      <trkpt lat="47.79809" lon="-3.38965">
        <ele>21</ele>
        <time>2019-07-17T14:29:38Z</time>
      </trkpt>
      <trkpt lat="47.79814" lon="-3.38967">
        <ele>21</ele>
        <time>2019-07-17T14:29:39Z</time>
      </trkpt>
      <trkpt lat="47.79818" lon="-3.3897">
        <ele>21</ele>
        <time>2019-07-17T14:29:40Z</time>
      </trkpt>
      <trkpt lat="47.79823" lon="-3.38972">
        <ele>21</ele>
        <time>2019-07-17T14:29:41Z</time>
      </trkpt>
      <trkpt lat="47.79827" lon="-3.38975">
        <ele>21</ele>
        <time>2019-07-17T14:29:42Z</time>
      </trkpt>
      <trkpt lat="47.7983" lon="-3.38978">
        <ele>21</ele>
        <time>2019-07-17T14:29:43Z</time>
      </trkpt>
      <trkpt lat="47.79833" lon="-3.38981">
        <ele>21</ele>
        <time>2019-07-17T14:29:44Z</time>
      </trkpt>
      <trkpt lat="47.79837" lon="-3.38984">
        <ele>22</ele>
        <time>2019-07-17T14:29:45Z</time>
      </trkpt>
      <trkpt lat="47.79841" lon="-3.38986">
        <ele>22</ele>
        <time>2019-07-17T14:29:46Z</time>
      </trkpt>
      <trkpt lat="47.79846" lon="-3.38988">
        <ele>22</ele>
        <time>2019-07-17T14:29:47Z</time>
      </trkpt>
      <trkpt lat="47.7985" lon="-3.38991">
        <ele>22</ele>
        <time>2019-07-17T14:29:48Z</time>
      </trkpt>
      <trkpt lat="47.79855" lon="-3.38994">
        <ele>22</ele>
        <time>2019-07-17T14:29:49Z</time>
      </trkpt>
      <trkpt lat="47.7986" lon="-3.38997">
        <ele>22</ele>
        <time>2019-07-17T14:29:50Z</time>
      </trkpt>
      <trkpt lat="47.79865" lon="-3.39001">
        <ele>22</ele>
        <time>2019-07-17T14:29:51Z</time>
      </trkpt>
      <trkpt lat="47.7987" lon="-3.39004">
        <ele>22</ele>
        <time>2019-07-17T14:29:52Z</time>
      </trkpt>
      <trkpt lat="47.79875" lon="-3.39006">
        <ele>22</ele>
        <time>2019-07-17T14:29:53Z</time>
      </trkpt>
      <trkpt lat="47.79879" lon="-3.3901">
        <ele>23</ele>
        <time>2019-07-17T14:29:54Z</time>
      </trkpt>
      <trkpt lat="47.79883" lon="-3.39014">
        <ele>23</ele>
        <time>2019-07-17T14:29:55Z</time>
      </trkpt>
      <trkpt lat="47.79886" lon="-3.39019">
        <ele>23</ele>
        <time>2019-07-17T14:29:56Z</time>
      </trkpt>
      <trkpt lat="47.7989" lon="-3.39024">
        <ele>23</ele>
        <time>2019-07-17T14:29:57Z</time>
      </trkpt>
      <trkpt lat="47.79893" lon="-3.3903">
        <ele>23</ele>
        <time>2019-07-17T14:29:58Z</time>
      </trkpt>
      <trkpt lat="47.79895" lon="-3.39034">
        <ele>23</ele>
        <time>2019-07-17T14:29:59Z</time>
      </trkpt>
      <trkpt lat="47.79897" lon="-3.39036">
        <ele>23</ele>
        <time>2019-07-17T14:30:00Z</time>
      </trkpt>
      <trkpt lat="47.79899" lon="-3.39036">
        <ele>23</ele>
        <time>2019-07-17T14:30:01Z</time>
      </trkpt>
      <trkpt lat="47.79902" lon="-3.39036">
        <ele>23</ele>
        <time>2019-07-17T14:30:02Z</time>
      </trkpt>
      <trkpt lat="47.79905" lon="-3.39034">
        <ele>23</ele>
        <time>2019-07-17T14:30:03Z</time>
      </trkpt>
      <trkpt lat="47.79908" lon="-3.3903">
        <ele>23</ele>
        <time>2019-07-17T14:30:04Z</time>
      </trkpt>
      <trkpt lat="47.79912" lon="-3.39027">
        <ele>23</ele>
        <time>2019-07-17T14:30:05Z</time>
      </trkpt>
      <trkpt lat="47.79916" lon="-3.39024">
        <ele>23</ele>
        <time>2019-07-17T14:30:06Z</time>
      </trkpt>
      <trkpt lat="47.79919" lon="-3.3902">
        <ele>23</ele>
        <time>2019-07-17T14:30:07Z</time>
      </trkpt>
      <trkpt lat="47.79923" lon="-3.39016">
        <ele>23</ele>
        <time>2019-07-17T14:30:08Z</time>
      </trkpt>
      <trkpt lat="47.79928" lon="-3.39012">
        <ele>24</ele>
        <time>2019-07-17T14:30:09Z</time>
      </trkpt>
      <trkpt lat="47.79932" lon="-3.39008">
        <ele>24</ele>
        <time>2019-07-17T14:30:10Z</time>
      </trkpt>
      <trkpt lat="47.79937" lon="-3.39007">
        <ele>24</ele>
        <time>2019-07-17T14:30:11Z</time>
      </trkpt>
      <trkpt lat="47.79943" lon="-3.39007">
        <ele>24</ele>
        <time>2019-07-17T14:30:12Z</time>
      </trkpt>
      <trkpt lat="47.79948" lon="-3.39007">
        <ele>24</ele>
        <time>2019-07-17T14:30:13Z</time>
      </trkpt>
      <trkpt lat="47.79952" lon="-3.39006">
        <ele>24</ele>
        <time>2019-07-17T14:30:14Z</time>
      </trkpt>
      <trkpt lat="47.79956" lon="-3.39004">
        <ele>24</ele>
        <time>2019-07-17T14:30:15Z</time>
      </trkpt>
      <trkpt lat="47.7996" lon="-3.39">
        <ele>24</ele>
        <time>2019-07-17T14:30:16Z</time>
      </trkpt>
      <trkpt lat="47.79964" lon="-3.38997">
        <ele>24</ele>
        <time>2019-07-17T14:30:17Z</time>
      </trkpt>
      <trkpt lat="47.79967" lon="-3.38993">
        <ele>24</ele>
        <time>2019-07-17T14:30:18Z</time>
      </trkpt>
      <trkpt lat="47.79971" lon="-3.38991">
        <ele>24</ele>
        <time>2019-07-17T14:30:19Z</time>
      </trkpt>
      <trkpt lat="47.79974" lon="-3.38989">
        <ele>23</ele>
        <time>2019-07-17T14:30:20Z</time>
      </trkpt>
      <trkpt lat="47.79975" lon="-3.38988">
        <ele>23</ele>
        <time>2019-07-17T14:30:21Z</time>
      </trkpt>
      <trkpt lat="47.79976" lon="-3.38988">
        <ele>23</ele>
        <time>2019-07-17T14:30:22Z</time>
      </trkpt>
      <trkpt lat="47.79977" lon="-3.38986">
        <ele>23</ele>
        <time>2019-07-17T14:30:23Z</time>
      </trkpt>
      <trkpt lat="47.79979" lon="-3.38983">
        <ele>23</ele>
        <time>2019-07-17T14:30:24Z</time>
      </trkpt>
      <trkpt lat="47.79981" lon="-3.38979">
        <ele>23</ele>
        <time>2019-07-17T14:30:25Z</time>
      </trkpt>
      <trkpt lat="47.79984" lon="-3.38975">
        <ele>23</ele>
        <time>2019-07-17T14:30:26Z</time>
      </trkpt>
      <trkpt lat="47.79987" lon="-3.38973">
        <ele>23</ele>
        <time>2019-07-17T14:30:27Z</time>
      </trkpt>
      <trkpt lat="47.79991" lon="-3.38971">
        <ele>23</ele>
        <time>2019-07-17T14:30:28Z</time>
      </trkpt>
      <trkpt lat="47.79995" lon="-3.3897">
        <ele>23</ele>
        <time>2019-07-17T14:30:29Z</time>
      </trkpt>
      <trkpt lat="47.8" lon="-3.38968">
        <ele>23</ele>
        <time>2019-07-17T14:30:30Z</time>
      </trkpt>
      <trkpt lat="47.80004" lon="-3.38964">
        <ele>23</ele>
        <time>2019-07-17T14:30:31Z</time>
      </trkpt>
      <trkpt lat="47.80008" lon="-3.3896">
        <ele>22</ele>
        <time>2019-07-17T14:30:32Z</time>
      </trkpt>
      <trkpt lat="47.80013" lon="-3.38955">
        <ele>22</ele>
        <time>2019-07-17T14:30:33Z</time>
      </trkpt>
      <trkpt lat="47.80017" lon="-3.3895">
        <ele>22</ele>
        <time>2019-07-17T14:30:34Z</time>
      </trkpt>
      <trkpt lat="47.80022" lon="-3.38946">
        <ele>22</ele>
        <time>2019-07-17T14:30:35Z</time>
      </trkpt>
      <trkpt lat="47.80028" lon="-3.38943">
        <ele>22</ele>
        <time>2019-07-17T14:30:36Z</time>
      </trkpt>
      <trkpt lat="47.80033" lon="-3.38942">
        <ele>21</ele>
        <time>2019-07-17T14:30:37Z</time>
      </trkpt>
      <trkpt lat="47.8004" lon="-3.38942">
        <ele>21</ele>
        <time>2019-07-17T14:30:38Z</time>
      </trkpt>
      <trkpt lat="47.80045" lon="-3.38947">
        <ele>21</ele>
        <time>2019-07-17T14:30:39Z</time>
      </trkpt>
      <trkpt lat="47.80049" lon="-3.38953">
        <ele>20</ele>
        <time>2019-07-17T14:30:40Z</time>
      </trkpt>
      <trkpt lat="47.80053" lon="-3.3896">
        <ele>20</ele>
        <time>2019-07-17T14:30:41Z</time>
      </trkpt>
      <trkpt lat="47.80057" lon="-3.38964">
        <ele>19</ele>
        <time>2019-07-17T14:30:42Z</time>
      </trkpt>
      <trkpt lat="47.80061" lon="-3.38968">
        <ele>18</ele>
        <time>2019-07-17T14:30:43Z</time>
      </trkpt>
      <trkpt lat="47.80065" lon="-3.38972">
        <ele>18</ele>
        <time>2019-07-17T14:30:44Z</time>
      </trkpt>
      <trkpt lat="47.80069" lon="-3.38974">
        <ele>17</ele>
        <time>2019-07-17T14:30:45Z</time>
      </trkpt>
      <trkpt lat="47.80074" lon="-3.38975">
        <ele>16</ele>
        <time>2019-07-17T14:30:46Z</time>
      </trkpt>
      <trkpt lat="47.80079" lon="-3.38974">
        <ele>16</ele>
        <time>2019-07-17T14:30:47Z</time>
      </trkpt>
      <trkpt lat="47.80084" lon="-3.38972">
        <ele>15</ele>
        <time>2019-07-17T14:30:48Z</time>
      </trkpt>
      <trkpt lat="47.80089" lon="-3.38971">
        <ele>15</ele>
        <time>2019-07-17T14:30:49Z</time>
      </trkpt>
      <trkpt lat="47.80094" lon="-3.38969">
        <ele>14</ele>
        <time>2019-07-17T14:30:50Z</time>
      </trkpt>
      <trkpt lat="47.80099" lon="-3.38968">
        <ele>14</ele>
        <time>2019-07-17T14:30:51Z</time>
      </trkpt>
      <trkpt lat="47.80104" lon="-3.38966">
        <ele>13</ele>
        <time>2019-07-17T14:30:52Z</time>
      </trkpt>
      <trkpt lat="47.80109" lon="-3.38964">
        <ele>13</ele>
        <time>2019-07-17T14:30:53Z</time>
      </trkpt>
      <trkpt lat="47.80113" lon="-3.38962">
        <ele>12</ele>
        <time>2019-07-17T14:30:54Z</time>
      </trkpt>
      <trkpt lat="47.80118" lon="-3.38961">
        <ele>12</ele>
        <time>2019-07-17T14:30:55Z</time>
      </trkpt>
      <trkpt lat="47.80123" lon="-3.38959">
        <ele>12</ele>
        <time>2019-07-17T14:30:56Z</time>
      </trkpt>
      <trkpt lat="47.80127" lon="-3.38957">
        <ele>11</ele>
        <time>2019-07-17T14:30:57Z</time>
      </trkpt>
      <trkpt lat="47.80131" lon="-3.38956">
        <ele>11</ele>
        <time>2019-07-17T14:30:58Z</time>
      </trkpt>
      <trkpt lat="47.80135" lon="-3.38955">
        <ele>11</ele>
        <time>2019-07-17T14:30:59Z</time>
      </trkpt>
      <trkpt lat="47.80138" lon="-3.38955">
        <ele>11</ele>
        <time>2019-07-17T14:31:00Z</time>
      </trkpt>
      <trkpt lat="47.8014" lon="-3.38956">
        <ele>10</ele>
        <time>2019-07-17T14:31:01Z</time>
      </trkpt>
      <trkpt lat="47.80142" lon="-3.38956">
        <ele>10</ele>
        <time>2019-07-17T14:31:02Z</time>
      </trkpt>
      <trkpt lat="47.80144" lon="-3.38954">
        <ele>10</ele>
        <time>2019-07-17T14:31:03Z</time>
      </trkpt>
      <trkpt lat="47.80146" lon="-3.38951">
        <ele>9</ele>
        <time>2019-07-17T14:31:04Z</time>
      </trkpt>
      <trkpt lat="47.80148" lon="-3.38947">
        <ele>9</ele>
        <time>2019-07-17T14:31:05Z</time>
      </trkpt>
      <trkpt lat="47.8015" lon="-3.38941">
        <ele>9</ele>
        <time>2019-07-17T14:31:06Z</time>
      </trkpt>
      <trkpt lat="47.80152" lon="-3.38935">
        <ele>8</ele>
        <time>2019-07-17T14:31:07Z</time>
      </trkpt>
      <trkpt lat="47.80155" lon="-3.38929">
        <ele>8</ele>
        <time>2019-07-17T14:31:08Z</time>
      </trkpt>
      <trkpt lat="47.80159" lon="-3.38922">
        <ele>7</ele>
        <time>2019-07-17T14:31:09Z</time>
      </trkpt>
      <trkpt lat="47.80163" lon="-3.38915">
        <ele>7</ele>
        <time>2019-07-17T14:31:10Z</time>
      </trkpt>
      <trkpt lat="47.80167" lon="-3.38908">
        <ele>6</ele>
        <time>2019-07-17T14:31:11Z</time>
      </trkpt>
      <trkpt lat="47.80171" lon="-3.38902">
        <ele>6</ele>
        <time>2019-07-17T14:31:12Z</time>
      </trkpt>
      <trkpt lat="47.80175" lon="-3.38895">
        <ele>5</ele>
        <time>2019-07-17T14:31:13Z</time>
      </trkpt>
      <trkpt lat="47.80179" lon="-3.38888">
        <ele>5</ele>
        <time>2019-07-17T14:31:14Z</time>
      </trkpt>
      <trkpt lat="47.80183" lon="-3.38883">
        <ele>5</ele>
        <time>2019-07-17T14:31:15Z</time>
      </trkpt>
      <trkpt lat="47.80187" lon="-3.38878">
        <ele>5</ele>
        <time>2019-07-17T14:31:16Z</time>
      </trkpt>
      <trkpt lat="47.80191" lon="-3.38875">
        <ele>4</ele>
        <time>2019-07-17T14:31:17Z</time>
      </trkpt>
      <trkpt lat="47.80194" lon="-3.38872">
        <ele>4</ele>
        <time>2019-07-17T14:31:18Z</time>
      </trkpt>
      <trkpt lat="47.80196" lon="-3.3887">
        <ele>4</ele>
        <time>2019-07-17T14:31:19Z</time>
      </trkpt>
      <trkpt lat="47.80198" lon="-3.3887">
        <ele>4</ele>
        <time>2019-07-17T14:31:20Z</time>
      </trkpt>
      <trkpt lat="47.80199" lon="-3.3887">
        <ele>4</ele>
        <time>2019-07-17T14:31:21Z</time>
      </trkpt>
      <trkpt lat="47.80201" lon="-3.38872">
        <ele>4</ele>
        <time>2019-07-17T14:31:22Z</time>
      </trkpt>
      <trkpt lat="47.80203" lon="-3.38873">
        <ele>4</ele>
        <time>2019-07-17T14:31:23Z</time>
      </trkpt>
      <trkpt lat="47.80205" lon="-3.38874">
        <ele>4</ele>
        <time>2019-07-17T14:31:24Z</time>
      </trkpt>
      <trkpt lat="47.80207" lon="-3.38873">
        <ele>5</ele>
        <time>2019-07-17T14:31:25Z</time>
      </trkpt>
      <trkpt lat="47.8021" lon="-3.38873">
        <ele>5</ele>
        <time>2019-07-17T14:31:26Z</time>
      </trkpt>
      <trkpt lat="47.80211" lon="-3.38874">
        <ele>5</ele>
        <time>2019-07-17T14:31:27Z</time>
      </trkpt>
      <trkpt lat="47.80213" lon="-3.38875">
        <ele>5</ele>
        <time>2019-07-17T14:31:28Z</time>
      </trkpt>
      <trkpt lat="47.80215" lon="-3.38876">
        <ele>6</ele>
        <time>2019-07-17T14:31:29Z</time>
      </trkpt>
      <trkpt lat="47.80216" lon="-3.38877">
        <ele>6</ele>
        <time>2019-07-17T14:31:30Z</time>
      </trkpt>
      <trkpt lat="47.80218" lon="-3.38879">
        <ele>6</ele>
        <time>2019-07-17T14:31:31Z</time>
      </trkpt>
      <trkpt lat="47.8022" lon="-3.38881">
        <ele>6</ele>
        <time>2019-07-17T14:31:32Z</time>
      </trkpt>
      <trkpt lat="47.80221" lon="-3.38883">
        <ele>6</ele>
        <time>2019-07-17T14:31:33Z</time>
      </trkpt>
      <trkpt lat="47.80223" lon="-3.38886">
        <ele>7</ele>
        <time>2019-07-17T14:31:34Z</time>
      </trkpt>
      <trkpt lat="47.80224" lon="-3.38888">
        <ele>7</ele>
        <time>2019-07-17T14:31:35Z</time>
      </trkpt>
      <trkpt lat="47.80225" lon="-3.3889">
        <ele>7</ele>
        <time>2019-07-17T14:31:36Z</time>
      </trkpt>
      <trkpt lat="47.80226" lon="-3.38893">
        <ele>7</ele>
        <time>2019-07-17T14:31:37Z</time>
      </trkpt>
      <trkpt lat="47.80228" lon="-3.38895">
        <ele>8</ele>
        <time>2019-07-17T14:31:38Z</time>
      </trkpt>
      <trkpt lat="47.80229" lon="-3.38898">
        <ele>8</ele>
        <time>2019-07-17T14:31:39Z</time>
      </trkpt>
      <trkpt lat="47.8023" lon="-3.38901">
        <ele>8</ele>
        <time>2019-07-17T14:31:40Z</time>
      </trkpt>
      <trkpt lat="47.80231" lon="-3.38904">
        <ele>8</ele>
        <time>2019-07-17T14:31:41Z</time>
      </trkpt>
      <trkpt lat="47.80232" lon="-3.38908">
        <ele>8</ele>
        <time>2019-07-17T14:31:42Z</time>
      </trkpt>
      <trkpt lat="47.80234" lon="-3.38911">
        <ele>8</ele>
        <time>2019-07-17T14:31:43Z</time>
      </trkpt>
      <trkpt lat="47.80234" lon="-3.38914">
        <ele>8</ele>
        <time>2019-07-17T14:31:44Z</time>
      </trkpt>
      <trkpt lat="47.80235" lon="-3.38917">
        <ele>8</ele>
        <time>2019-07-17T14:31:45Z</time>
      </trkpt>
      <trkpt lat="47.80237" lon="-3.38921">
        <ele>9</ele>
        <time>2019-07-17T14:31:46Z</time>
      </trkpt>
      <trkpt lat="47.80238" lon="-3.38924">
        <ele>9</ele>
        <time>2019-07-17T14:31:47Z</time>
      </trkpt>
      <trkpt lat="47.80239" lon="-3.38928">
        <ele>9</ele>
        <time>2019-07-17T14:31:48Z</time>
      </trkpt>
      <trkpt lat="47.8024" lon="-3.3893">
        <ele>9</ele>
        <time>2019-07-17T14:31:49Z</time>
      </trkpt>
      <trkpt lat="47.80242" lon="-3.38934">
        <ele>10</ele>
        <time>2019-07-17T14:31:50Z</time>
      </trkpt>
      <trkpt lat="47.80243" lon="-3.38936">
        <ele>10</ele>
        <time>2019-07-17T14:31:51Z</time>
      </trkpt>
      <trkpt lat="47.80244" lon="-3.38938">
        <ele>10</ele>
        <time>2019-07-17T14:31:52Z</time>
      </trkpt>
      <trkpt lat="47.80245" lon="-3.38941">
        <ele>10</ele>
        <time>2019-07-17T14:31:53Z</time>
      </trkpt>
      <trkpt lat="47.80247" lon="-3.38945">
        <ele>11</ele>
        <time>2019-07-17T14:31:54Z</time>
      </trkpt>
      <trkpt lat="47.80248" lon="-3.38947">
        <ele>11</ele>
        <time>2019-07-17T14:31:55Z</time>
      </trkpt>
      <trkpt lat="47.8025" lon="-3.3895">
        <ele>11</ele>
        <time>2019-07-17T14:31:56Z</time>
      </trkpt>
      <trkpt lat="47.80252" lon="-3.38954">
        <ele>12</ele>
        <time>2019-07-17T14:31:57Z</time>
      </trkpt>
      <trkpt lat="47.80254" lon="-3.38957">
        <ele>12</ele>
        <time>2019-07-17T14:31:58Z</time>
      </trkpt>
      <trkpt lat="47.80256" lon="-3.3896">
        <ele>13</ele>
        <time>2019-07-17T14:31:59Z</time>
      </trkpt>
      <trkpt lat="47.80258" lon="-3.38963">
        <ele>13</ele>
        <time>2019-07-17T14:32:00Z</time>
      </trkpt>
      <trkpt lat="47.8026" lon="-3.38966">
        <ele>13</ele>
        <time>2019-07-17T14:32:01Z</time>
      </trkpt>
      <trkpt lat="47.80262" lon="-3.38969">
        <ele>13</ele>
        <time>2019-07-17T14:32:02Z</time>
      </trkpt>
      <trkpt lat="47.80264" lon="-3.38971">
        <ele>14</ele>
        <time>2019-07-17T14:32:03Z</time>
      </trkpt>
      <trkpt lat="47.80266" lon="-3.38973">
        <ele>14</ele>
        <time>2019-07-17T14:32:04Z</time>
      </trkpt>
      <trkpt lat="47.80268" lon="-3.38974">
        <ele>15</ele>
        <time>2019-07-17T14:32:05Z</time>
      </trkpt>
      <trkpt lat="47.80271" lon="-3.38975">
        <ele>15</ele>
        <time>2019-07-17T14:32:06Z</time>
      </trkpt>
      <trkpt lat="47.80273" lon="-3.38976">
        <ele>15</ele>
        <time>2019-07-17T14:32:07Z</time>
      </trkpt>
      <trkpt lat="47.80276" lon="-3.38976">
        <ele>16</ele>
        <time>2019-07-17T14:32:08Z</time>
      </trkpt>
      <trkpt lat="47.80279" lon="-3.38977">
        <ele>16</ele>
        <time>2019-07-17T14:32:09Z</time>
      </trkpt>
      <trkpt lat="47.80282" lon="-3.38977">
        <ele>16</ele>
        <time>2019-07-17T14:32:10Z</time>
      </trkpt>
      <trkpt lat="47.80284" lon="-3.38978">
        <ele>17</ele>
        <time>2019-07-17T14:32:11Z</time>
      </trkpt>
      <trkpt lat="47.80286" lon="-3.38979">
        <ele>17</ele>
        <time>2019-07-17T14:32:12Z</time>
      </trkpt>
      <trkpt lat="47.80289" lon="-3.3898">
        <ele>18</ele>
        <time>2019-07-17T14:32:13Z</time>
      </trkpt>
      <trkpt lat="47.80291" lon="-3.3898">
        <ele>18</ele>
        <time>2019-07-17T14:32:14Z</time>
      </trkpt>
      <trkpt lat="47.80294" lon="-3.38981">
        <ele>18</ele>
        <time>2019-07-17T14:32:15Z</time>
      </trkpt>
      <trkpt lat="47.80297" lon="-3.38981">
        <ele>19</ele>
        <time>2019-07-17T14:32:16Z</time>
      </trkpt>
      <trkpt lat="47.803" lon="-3.38981">
        <ele>19</ele>
        <time>2019-07-17T14:32:17Z</time>
      </trkpt>
      <trkpt lat="47.80303" lon="-3.38983">
        <ele>19</ele>
        <time>2019-07-17T14:32:18Z</time>
      </trkpt>
      <trkpt lat="47.80306" lon="-3.38985">
        <ele>20</ele>
        <time>2019-07-17T14:32:19Z</time>
      </trkpt>
      <trkpt lat="47.80308" lon="-3.38988">
        <ele>20</ele>
        <time>2019-07-17T14:32:20Z</time>
      </trkpt>
      <trkpt lat="47.8031" lon="-3.38991">
        <ele>20</ele>
        <time>2019-07-17T14:32:21Z</time>
      </trkpt>
      <trkpt lat="47.80312" lon="-3.38994">
        <ele>20</ele>
        <time>2019-07-17T14:32:22Z</time>
      </trkpt>
      <trkpt lat="47.80313" lon="-3.38997">
        <ele>20</ele>
        <time>2019-07-17T14:32:23Z</time>
      </trkpt>
      <trkpt lat="47.80314" lon="-3.39001">
        <ele>21</ele>
        <time>2019-07-17T14:32:24Z</time>
      </trkpt>
      <trkpt lat="47.80315" lon="-3.39006">
        <ele>21</ele>
        <time>2019-07-17T14:32:25Z</time>
      </trkpt>
      <trkpt lat="47.80316" lon="-3.3901">
        <ele>21</ele>
        <time>2019-07-17T14:32:26Z</time>
      </trkpt>
      <trkpt lat="47.80316" lon="-3.39015">
        <ele>22</ele>
        <time>2019-07-17T14:32:27Z</time>
      </trkpt>
      <trkpt lat="47.80316" lon="-3.39019">
        <ele>22</ele>
        <time>2019-07-17T14:32:28Z</time>
      </trkpt>
      <trkpt lat="47.80316" lon="-3.39023">
        <ele>22</ele>
        <time>2019-07-17T14:32:29Z</time>
      </trkpt>
      <trkpt lat="47.80316" lon="-3.39028">
        <ele>23</ele>
        <time>2019-07-17T14:32:30Z</time>
      </trkpt>
      <trkpt lat="47.80316" lon="-3.39033">
        <ele>23</ele>
        <time>2019-07-17T14:32:31Z</time>
      </trkpt>
      <trkpt lat="47.80318" lon="-3.39039">
        <ele>23</ele>
        <time>2019-07-17T14:32:32Z</time>
      </trkpt>
      <trkpt lat="47.80319" lon="-3.39043">
        <ele>23</ele>
        <time>2019-07-17T14:32:33Z</time>
      </trkpt>
      <trkpt lat="47.80322" lon="-3.39048">
        <ele>23</ele>
        <time>2019-07-17T14:32:34Z</time>
      </trkpt>
      <trkpt lat="47.80323" lon="-3.39052">
        <ele>23</ele>
        <time>2019-07-17T14:32:35Z</time>
      </trkpt>
      <trkpt lat="47.80326" lon="-3.39055">
        <ele>23</ele>
        <time>2019-07-17T14:32:36Z</time>
      </trkpt>
      <trkpt lat="47.80329" lon="-3.39057">
        <ele>24</ele>
        <time>2019-07-17T14:32:37Z</time>
      </trkpt>
      <trkpt lat="47.80332" lon="-3.3906">
        <ele>24</ele>
        <time>2019-07-17T14:32:38Z</time>
      </trkpt>
      <trkpt lat="47.80336" lon="-3.39062">
        <ele>24</ele>
        <time>2019-07-17T14:32:39Z</time>
      </trkpt>
      <trkpt lat="47.80339" lon="-3.39065">
        <ele>24</ele>
        <time>2019-07-17T14:32:40Z</time>
      </trkpt>
      <trkpt lat="47.80343" lon="-3.39068">
        <ele>24</ele>
        <time>2019-07-17T14:32:41Z</time>
      </trkpt>
      <trkpt lat="47.80347" lon="-3.39073">
        <ele>25</ele>
        <time>2019-07-17T14:32:42Z</time>
      </trkpt>
      <trkpt lat="47.80349" lon="-3.39078">
        <ele>25</ele>
        <time>2019-07-17T14:32:43Z</time>
      </trkpt>
      <trkpt lat="47.80351" lon="-3.39083">
        <ele>25</ele>
        <time>2019-07-17T14:32:44Z</time>
      </trkpt>
      <trkpt lat="47.80353" lon="-3.39089">
        <ele>25</ele>
        <time>2019-07-17T14:32:45Z</time>
      </trkpt>
      <trkpt lat="47.80355" lon="-3.39093">
        <ele>25</ele>
        <time>2019-07-17T14:32:46Z</time>
      </trkpt>
      <trkpt lat="47.80357" lon="-3.39098">
        <ele>25</ele>
        <time>2019-07-17T14:32:47Z</time>
      </trkpt>
      <trkpt lat="47.80358" lon="-3.39104">
        <ele>25</ele>
        <time>2019-07-17T14:32:48Z</time>
      </trkpt>
      <trkpt lat="47.80357" lon="-3.3911">
        <ele>26</ele>
        <time>2019-07-17T14:32:49Z</time>
      </trkpt>
      <trkpt lat="47.80356" lon="-3.39115">
        <ele>26</ele>
        <time>2019-07-17T14:32:50Z</time>
      </trkpt>
      <trkpt lat="47.80354" lon="-3.39119">
        <ele>26</ele>
        <time>2019-07-17T14:32:51Z</time>
      </trkpt>
      <trkpt lat="47.80352" lon="-3.39125">
        <ele>26</ele>
        <time>2019-07-17T14:32:52Z</time>
      </trkpt>
      <trkpt lat="47.80351" lon="-3.39131">
        <ele>26</ele>
        <time>2019-07-17T14:32:53Z</time>
      </trkpt>
      <trkpt lat="47.80352" lon="-3.39135">
        <ele>26</ele>
        <time>2019-07-17T14:32:54Z</time>
      </trkpt>
      <trkpt lat="47.80353" lon="-3.39141">
        <ele>26</ele>
        <time>2019-07-17T14:32:55Z</time>
      </trkpt>
      <trkpt lat="47.80353" lon="-3.39145">
        <ele>26</ele>
        <time>2019-07-17T14:32:56Z</time>
      </trkpt>
      <trkpt lat="47.80353" lon="-3.39149">
        <ele>26</ele>
        <time>2019-07-17T14:32:57Z</time>
      </trkpt>
      <trkpt lat="47.80353" lon="-3.39152">
        <ele>26</ele>
        <time>2019-07-17T14:32:58Z</time>
      </trkpt>
      <trkpt lat="47.80352" lon="-3.39156">
        <ele>25</ele>
        <time>2019-07-17T14:32:59Z</time>
      </trkpt>
      <trkpt lat="47.80351" lon="-3.3916">
        <ele>25</ele>
        <time>2019-07-17T14:33:00Z</time>
      </trkpt>
      <trkpt lat="47.80349" lon="-3.39165">
        <ele>25</ele>
        <time>2019-07-17T14:33:01Z</time>
      </trkpt>
      <trkpt lat="47.80348" lon="-3.39168">
        <ele>25</ele>
        <time>2019-07-17T14:33:02Z</time>
      </trkpt>
      <trkpt lat="47.80347" lon="-3.39172">
        <ele>24</ele>
        <time>2019-07-17T14:33:03Z</time>
      </trkpt>
      <trkpt lat="47.80346" lon="-3.39175">
        <ele>24</ele>
        <time>2019-07-17T14:33:04Z</time>
      </trkpt>
      <trkpt lat="47.80346" lon="-3.39179">
        <ele>24</ele>
        <time>2019-07-17T14:33:05Z</time>
      </trkpt>
      <trkpt lat="47.80345" lon="-3.39182">
        <ele>24</ele>
        <time>2019-07-17T14:33:06Z</time>
      </trkpt>
      <trkpt lat="47.80343" lon="-3.39184">
        <ele>24</ele>
        <time>2019-07-17T14:33:07Z</time>
      </trkpt>
      <trkpt lat="47.80341" lon="-3.39186">
        <ele>24</ele>
        <time>2019-07-17T14:33:08Z</time>
      </trkpt>
      <trkpt lat="47.80339" lon="-3.39189">
        <ele>24</ele>
        <time>2019-07-17T14:33:09Z</time>
      </trkpt>
      <trkpt lat="47.80337" lon="-3.39194">
        <ele>24</ele>
        <time>2019-07-17T14:33:10Z</time>
      </trkpt>
      <trkpt lat="47.80336" lon="-3.39197">
        <ele>23</ele>
        <time>2019-07-17T14:33:11Z</time>
      </trkpt>
      <trkpt lat="47.80335" lon="-3.39201">
        <ele>23</ele>
        <time>2019-07-17T14:33:12Z</time>
      </trkpt>
      <trkpt lat="47.80335" lon="-3.39205">
        <ele>23</ele>
        <time>2019-07-17T14:33:13Z</time>
      </trkpt>
      <trkpt lat="47.80334" lon="-3.39209">
        <ele>23</ele>
        <time>2019-07-17T14:33:14Z</time>
      </trkpt>
      <trkpt lat="47.80332" lon="-3.39211">
        <ele>23</ele>
        <time>2019-07-17T14:33:15Z</time>
      </trkpt>
      <trkpt lat="47.8033" lon="-3.39214">
        <ele>23</ele>
        <time>2019-07-17T14:33:16Z</time>
      </trkpt>
      <trkpt lat="47.80328" lon="-3.39218">
        <ele>23</ele>
        <time>2019-07-17T14:33:17Z</time>
      </trkpt>
      <trkpt lat="47.80324" lon="-3.39222">
        <ele>23</ele>
        <time>2019-07-17T14:33:18Z</time>
      </trkpt>
      <trkpt lat="47.80322" lon="-3.39226">
        <ele>23</ele>
        <time>2019-07-17T14:33:19Z</time>
      </trkpt>
      <trkpt lat="47.8032" lon="-3.39231">
        <ele>23</ele>
        <time>2019-07-17T14:33:20Z</time>
      </trkpt>
      <trkpt lat="47.80318" lon="-3.39236">
        <ele>23</ele>
        <time>2019-07-17T14:33:21Z</time>
      </trkpt>
      <trkpt lat="47.80317" lon="-3.39241">
        <ele>23</ele>
        <time>2019-07-17T14:33:22Z</time>
      </trkpt>
      <trkpt lat="47.80316" lon="-3.39247">
        <ele>23</ele>
        <time>2019-07-17T14:33:23Z</time>
      </trkpt>
      <trkpt lat="47.80316" lon="-3.39253">
        <ele>23</ele>
        <time>2019-07-17T14:33:24Z</time>
      </trkpt>
      <trkpt lat="47.80316" lon="-3.39259">
        <ele>22</ele>
        <time>2019-07-17T14:33:25Z</time>
      </trkpt>
      <trkpt lat="47.80316" lon="-3.39264">
        <ele>22</ele>
        <time>2019-07-17T14:33:26Z</time>
      </trkpt>
      <trkpt lat="47.80317" lon="-3.39269">
        <ele>22</ele>
        <time>2019-07-17T14:33:27Z</time>
      </trkpt>
      <trkpt lat="47.80317" lon="-3.39273">
        <ele>22</ele>
        <time>2019-07-17T14:33:28Z</time>
      </trkpt>
      <trkpt lat="47.80319" lon="-3.39276">
        <ele>22</ele>
        <time>2019-07-17T14:33:29Z</time>
      </trkpt>
      <trkpt lat="47.80321" lon="-3.39279">
        <ele>22</ele>
        <time>2019-07-17T14:33:30Z</time>
      </trkpt>
      <trkpt lat="47.80323" lon="-3.39282">
        <ele>22</ele>
        <time>2019-07-17T14:33:31Z</time>
      </trkpt>
      <trkpt lat="47.80327" lon="-3.39285">
        <ele>22</ele>
        <time>2019-07-17T14:33:32Z</time>
      </trkpt>
      <trkpt lat="47.8033" lon="-3.39288">
        <ele>22</ele>
        <time>2019-07-17T14:33:33Z</time>
      </trkpt>
      <trkpt lat="47.80333" lon="-3.3929">
        <ele>22</ele>
        <time>2019-07-17T14:33:34Z</time>
      </trkpt>
      <trkpt lat="47.80336" lon="-3.39293">
        <ele>22</ele>
        <time>2019-07-17T14:33:35Z</time>
      </trkpt>
      <trkpt lat="47.80339" lon="-3.39296">
        <ele>22</ele>
        <time>2019-07-17T14:33:36Z</time>
      </trkpt>
      <trkpt lat="47.80342" lon="-3.39299">
        <ele>22</ele>
        <time>2019-07-17T14:33:37Z</time>
      </trkpt>
      <trkpt lat="47.80345" lon="-3.39303">
        <ele>22</ele>
        <time>2019-07-17T14:33:38Z</time>
      </trkpt>
      <trkpt lat="47.80348" lon="-3.39306">
        <ele>22</ele>
        <time>2019-07-17T14:33:39Z</time>
      </trkpt>
      <trkpt lat="47.80351" lon="-3.3931">
        <ele>22</ele>
        <time>2019-07-17T14:33:40Z</time>
      </trkpt>
      <trkpt lat="47.80353" lon="-3.39315">
        <ele>22</ele>
        <time>2019-07-17T14:33:41Z</time>
      </trkpt>
      <trkpt lat="47.80355" lon="-3.39319">
        <ele>22</ele>
        <time>2019-07-17T14:33:42Z</time>
      </trkpt>
      <trkpt lat="47.80358" lon="-3.39324">
        <ele>22</ele>
        <time>2019-07-17T14:33:43Z</time>
      </trkpt>
      <trkpt lat="47.80361" lon="-3.39329">
        <ele>22</ele>
        <time>2019-07-17T14:33:44Z</time>
      </trkpt>
      <trkpt lat="47.80364" lon="-3.39333">
        <ele>21</ele>
        <time>2019-07-17T14:33:45Z</time>
      </trkpt>
      <trkpt lat="47.80367" lon="-3.39336">
        <ele>21</ele>
        <time>2019-07-17T14:33:46Z</time>
      </trkpt>
      <trkpt lat="47.8037" lon="-3.39339">
        <ele>21</ele>
        <time>2019-07-17T14:33:47Z</time>
      </trkpt>
      <trkpt lat="47.80373" lon="-3.39343">
        <ele>21</ele>
        <time>2019-07-17T14:33:48Z</time>
      </trkpt>
      <trkpt lat="47.80375" lon="-3.39347">
        <ele>21</ele>
        <time>2019-07-17T14:33:49Z</time>
      </trkpt>
      <trkpt lat="47.80378" lon="-3.39352">
        <ele>21</ele>
        <time>2019-07-17T14:33:50Z</time>
      </trkpt>
      <trkpt lat="47.80381" lon="-3.39356">
        <ele>21</ele>
        <time>2019-07-17T14:33:51Z</time>
      </trkpt>
      <trkpt lat="47.80384" lon="-3.39361">
        <ele>21</ele>
        <time>2019-07-17T14:33:52Z</time>
      </trkpt>
      <trkpt lat="47.80387" lon="-3.39364">
        <ele>21</ele>
        <time>2019-07-17T14:33:53Z</time>
      </trkpt>
      <trkpt lat="47.80391" lon="-3.39368">
        <ele>21</ele>
        <time>2019-07-17T14:33:54Z</time>
      </trkpt>
      <trkpt lat="47.80395" lon="-3.39372">
        <ele>21</ele>
        <time>2019-07-17T14:33:55Z</time>
      </trkpt>
      <trkpt lat="47.80398" lon="-3.39376">
        <ele>21</ele>
        <time>2019-07-17T14:33:56Z</time>
      </trkpt>
      <trkpt lat="47.80401" lon="-3.3938">
        <ele>21</ele>
        <time>2019-07-17T14:33:57Z</time>
      </trkpt>
      <trkpt lat="47.80404" lon="-3.39384">
        <ele>21</ele>
        <time>2019-07-17T14:33:58Z</time>
      </trkpt>
      <trkpt lat="47.80407" lon="-3.39388">
        <ele>21</ele>
        <time>2019-07-17T14:33:59Z</time>
      </trkpt>
      <trkpt lat="47.8041" lon="-3.39392">
        <ele>21</ele>
        <time>2019-07-17T14:34:00Z</time>
      </trkpt>
      <trkpt lat="47.80413" lon="-3.39396">
        <ele>21</ele>
        <time>2019-07-17T14:34:01Z</time>
      </trkpt>
      <trkpt lat="47.80416" lon="-3.39398">
        <ele>21</ele>
        <time>2019-07-17T14:34:02Z</time>
      </trkpt>
      <trkpt lat="47.80419" lon="-3.39401">
        <ele>22</ele>
        <time>2019-07-17T14:34:03Z</time>
      </trkpt>
      <trkpt lat="47.80422" lon="-3.39404">
        <ele>22</ele>
        <time>2019-07-17T14:34:04Z</time>
      </trkpt>
      <trkpt lat="47.80426" lon="-3.39407">
        <ele>22</ele>
        <time>2019-07-17T14:34:05Z</time>
      </trkpt>
      <trkpt lat="47.80429" lon="-3.3941">
        <ele>22</ele>
        <time>2019-07-17T14:34:06Z</time>
      </trkpt>
      <trkpt lat="47.80433" lon="-3.39413">
        <ele>22</ele>
        <time>2019-07-17T14:34:07Z</time>
      </trkpt>
      <trkpt lat="47.80436" lon="-3.39416">
        <ele>22</ele>
        <time>2019-07-17T14:34:08Z</time>
      </trkpt>
      <trkpt lat="47.8044" lon="-3.39419">
        <ele>22</ele>
        <time>2019-07-17T14:34:09Z</time>
      </trkpt>
      <trkpt lat="47.80444" lon="-3.39422">
        <ele>22</ele>
        <time>2019-07-17T14:34:10Z</time>
      </trkpt>
      <trkpt lat="47.80448" lon="-3.39425">
        <ele>22</ele>
        <time>2019-07-17T14:34:11Z</time>
      </trkpt>
      <trkpt lat="47.80452" lon="-3.39428">
        <ele>22</ele>
        <time>2019-07-17T14:34:12Z</time>
      </trkpt>
      <trkpt lat="47.80455" lon="-3.39431">
        <ele>22</ele>
        <time>2019-07-17T14:34:13Z</time>
      </trkpt>
      <trkpt lat="47.80457" lon="-3.39434">
        <ele>22</ele>
        <time>2019-07-17T14:34:14Z</time>
      </trkpt>
      <trkpt lat="47.8046" lon="-3.39437">
        <ele>22</ele>
        <time>2019-07-17T14:34:15Z</time>
      </trkpt>
      <trkpt lat="47.80464" lon="-3.39439">
        <ele>22</ele>
        <time>2019-07-17T14:34:16Z</time>
      </trkpt>
      <trkpt lat="47.80467" lon="-3.39441">
        <ele>22</ele>
        <time>2019-07-17T14:34:17Z</time>
      </trkpt>
      <trkpt lat="47.80471" lon="-3.39444">
        <ele>22</ele>
        <time>2019-07-17T14:34:18Z</time>
      </trkpt>
      <trkpt lat="47.80476" lon="-3.39447">
        <ele>23</ele>
        <time>2019-07-17T14:34:19Z</time>
      </trkpt>
      <trkpt lat="47.8048" lon="-3.39449">
        <ele>23</ele>
        <time>2019-07-17T14:34:20Z</time>
      </trkpt>
      <trkpt lat="47.80483" lon="-3.39452">
        <ele>23</ele>
        <time>2019-07-17T14:34:21Z</time>
      </trkpt>
      <trkpt lat="47.80488" lon="-3.39454">
        <ele>23</ele>
        <time>2019-07-17T14:34:22Z</time>
      </trkpt>
      <trkpt lat="47.80492" lon="-3.39456">
        <ele>23</ele>
        <time>2019-07-17T14:34:23Z</time>
      </trkpt>
      <trkpt lat="47.80498" lon="-3.39456">
        <ele>23</ele>
        <time>2019-07-17T14:34:24Z</time>
      </trkpt>
      <trkpt lat="47.80503" lon="-3.39456">
        <ele>23</ele>
        <time>2019-07-17T14:34:25Z</time>
      </trkpt>
      <trkpt lat="47.80508" lon="-3.39456">
        <ele>23</ele>
        <time>2019-07-17T14:34:26Z</time>
      </trkpt>
      <trkpt lat="47.80513" lon="-3.39456">
        <ele>23</ele>
        <time>2019-07-17T14:34:27Z</time>
      </trkpt>
      <trkpt lat="47.80517" lon="-3.39457">
        <ele>23</ele>
        <time>2019-07-17T14:34:28Z</time>
      </trkpt>
      <trkpt lat="47.80521" lon="-3.3946">
        <ele>23</ele>
        <time>2019-07-17T14:34:29Z</time>
      </trkpt>
      <trkpt lat="47.80526" lon="-3.39462">
        <ele>23</ele>
        <time>2019-07-17T14:34:30Z</time>
      </trkpt>
      <trkpt lat="47.8053" lon="-3.39465">
        <ele>24</ele>
        <time>2019-07-17T14:34:31Z</time>
      </trkpt>
      <trkpt lat="47.80535" lon="-3.39468">
        <ele>23</ele>
        <time>2019-07-17T14:34:32Z</time>
      </trkpt>
      <trkpt lat="47.8054" lon="-3.39471">
        <ele>23</ele>
        <time>2019-07-17T14:34:33Z</time>
      </trkpt>
      <trkpt lat="47.80545" lon="-3.39474">
        <ele>23</ele>
        <time>2019-07-17T14:34:34Z</time>
      </trkpt>
      <trkpt lat="47.80549" lon="-3.39477">
        <ele>23</ele>
        <time>2019-07-17T14:34:35Z</time>
      </trkpt>
      <trkpt lat="47.80554" lon="-3.3948">
        <ele>23</ele>
        <time>2019-07-17T14:34:36Z</time>
      </trkpt>
      <trkpt lat="47.80558" lon="-3.39483">
        <ele>23</ele>
        <time>2019-07-17T14:34:37Z</time>
      </trkpt>
      <trkpt lat="47.80563" lon="-3.39486">
        <ele>23</ele>
        <time>2019-07-17T14:34:38Z</time>
      </trkpt>
      <trkpt lat="47.80566" lon="-3.39489">
        <ele>23</ele>
        <time>2019-07-17T14:34:39Z</time>
      </trkpt>
      <trkpt lat="47.8057" lon="-3.39493">
        <ele>23</ele>
        <time>2019-07-17T14:34:40Z</time>
      </trkpt>
      <trkpt lat="47.80574" lon="-3.39498">
        <ele>23</ele>
        <time>2019-07-17T14:34:41Z</time>
      </trkpt>
      <trkpt lat="47.80578" lon="-3.39502">
        <ele>23</ele>
        <time>2019-07-17T14:34:42Z</time>
      </trkpt>
      <trkpt lat="47.80582" lon="-3.39505">
        <ele>23</ele>
        <time>2019-07-17T14:34:43Z</time>
      </trkpt>
      <trkpt lat="47.80587" lon="-3.39506">
        <ele>23</ele>
        <time>2019-07-17T14:34:44Z</time>
      </trkpt>
      <trkpt lat="47.80591" lon="-3.39508">
        <ele>23</ele>
        <time>2019-07-17T14:34:45Z</time>
      </trkpt>
      <trkpt lat="47.80595" lon="-3.3951">
        <ele>23</ele>
        <time>2019-07-17T14:34:46Z</time>
      </trkpt>
      <trkpt lat="47.80598" lon="-3.39512">
        <ele>23</ele>
        <time>2019-07-17T14:34:47Z</time>
      </trkpt>
      <trkpt lat="47.80601" lon="-3.39515">
        <ele>23</ele>
        <time>2019-07-17T14:34:48Z</time>
      </trkpt>
      <trkpt lat="47.80604" lon="-3.39516">
        <ele>23</ele>
        <time>2019-07-17T14:34:49Z</time>
      </trkpt>
      <trkpt lat="47.80608" lon="-3.39518">
        <ele>23</ele>
        <time>2019-07-17T14:34:50Z</time>
      </trkpt>
      <trkpt lat="47.80612" lon="-3.3952">
        <ele>23</ele>
        <time>2019-07-17T14:34:51Z</time>
      </trkpt>
      <trkpt lat="47.80616" lon="-3.39523">
        <ele>23</ele>
        <time>2019-07-17T14:34:52Z</time>
      </trkpt>
      <trkpt lat="47.80621" lon="-3.39525">
        <ele>23</ele>
        <time>2019-07-17T14:34:53Z</time>
      </trkpt>
      <trkpt lat="47.80625" lon="-3.39526">
        <ele>23</ele>
        <time>2019-07-17T14:34:54Z</time>
      </trkpt>
      <trkpt lat="47.80628" lon="-3.39529">
        <ele>24</ele>
        <time>2019-07-17T14:34:55Z</time>
      </trkpt>
      <trkpt lat="47.80632" lon="-3.39531">
        <ele>24</ele>
        <time>2019-07-17T14:34:56Z</time>
      </trkpt>
      <trkpt lat="47.80635" lon="-3.39532">
        <ele>24</ele>
        <time>2019-07-17T14:34:57Z</time>
      </trkpt>
      <trkpt lat="47.80638" lon="-3.39534">
        <ele>24</ele>
        <time>2019-07-17T14:34:58Z</time>
      </trkpt>
      <trkpt lat="47.80641" lon="-3.39537">
        <ele>24</ele>
        <time>2019-07-17T14:34:59Z</time>
      </trkpt>
      <trkpt lat="47.80645" lon="-3.3954">
        <ele>24</ele>
        <time>2019-07-17T14:35:00Z</time>
      </trkpt>
      <trkpt lat="47.80648" lon="-3.39545">
        <ele>24</ele>
        <time>2019-07-17T14:35:01Z</time>
      </trkpt>
      <trkpt lat="47.80651" lon="-3.3955">
        <ele>24</ele>
        <time>2019-07-17T14:35:02Z</time>
      </trkpt>
      <trkpt lat="47.80653" lon="-3.39556">
        <ele>24</ele>
        <time>2019-07-17T14:35:03Z</time>
      </trkpt>
      <trkpt lat="47.80655" lon="-3.39562">
        <ele>24</ele>
        <time>2019-07-17T14:35:04Z</time>
      </trkpt>
      <trkpt lat="47.80657" lon="-3.39566">
        <ele>23</ele>
        <time>2019-07-17T14:35:05Z</time>
      </trkpt>
      <trkpt lat="47.80658" lon="-3.39571">
        <ele>23</ele>
        <time>2019-07-17T14:35:06Z</time>
      </trkpt>
      <trkpt lat="47.8066" lon="-3.39575">
        <ele>23</ele>
        <time>2019-07-17T14:35:07Z</time>
      </trkpt>
      <trkpt lat="47.80661" lon="-3.3958">
        <ele>23</ele>
        <time>2019-07-17T14:35:08Z</time>
      </trkpt>
      <trkpt lat="47.80661" lon="-3.39585">
        <ele>23</ele>
        <time>2019-07-17T14:35:09Z</time>
      </trkpt>
      <trkpt lat="47.80661" lon="-3.39589">
        <ele>23</ele>
        <time>2019-07-17T14:35:10Z</time>
      </trkpt>
      <trkpt lat="47.80661" lon="-3.39594">
        <ele>22</ele>
        <time>2019-07-17T14:35:11Z</time>
      </trkpt>
      <trkpt lat="47.80661" lon="-3.396">
        <ele>22</ele>
        <time>2019-07-17T14:35:12Z</time>
      </trkpt>
      <trkpt lat="47.80661" lon="-3.39606">
        <ele>22</ele>
        <time>2019-07-17T14:35:13Z</time>
      </trkpt>
      <trkpt lat="47.8066" lon="-3.39613">
        <ele>22</ele>
        <time>2019-07-17T14:35:14Z</time>
      </trkpt>
      <trkpt lat="47.8066" lon="-3.39621">
        <ele>22</ele>
        <time>2019-07-17T14:35:15Z</time>
      </trkpt>
      <trkpt lat="47.80659" lon="-3.39628">
        <ele>22</ele>
        <time>2019-07-17T14:35:16Z</time>
      </trkpt>
      <trkpt lat="47.80658" lon="-3.39635">
        <ele>22</ele>
        <time>2019-07-17T14:35:17Z</time>
      </trkpt>
      <trkpt lat="47.80657" lon="-3.39641">
        <ele>22</ele>
        <time>2019-07-17T14:35:18Z</time>
      </trkpt>
      <trkpt lat="47.80656" lon="-3.39647">
        <ele>22</ele>
        <time>2019-07-17T14:35:19Z</time>
      </trkpt>
      <trkpt lat="47.80655" lon="-3.39653">
        <ele>22</ele>
        <time>2019-07-17T14:35:20Z</time>
      </trkpt>
      <trkpt lat="47.80653" lon="-3.39658">
        <ele>22</ele>
        <time>2019-07-17T14:35:21Z</time>
      </trkpt>
      <trkpt lat="47.80651" lon="-3.39664">
        <ele>22</ele>
        <time>2019-07-17T14:35:22Z</time>
      </trkpt>
      <trkpt lat="47.80649" lon="-3.39669">
        <ele>22</ele>
        <time>2019-07-17T14:35:23Z</time>
      </trkpt>
      <trkpt lat="47.80647" lon="-3.39675">
        <ele>23</ele>
        <time>2019-07-17T14:35:24Z</time>
      </trkpt>
      <trkpt lat="47.80645" lon="-3.3968">
        <ele>23</ele>
        <time>2019-07-17T14:35:25Z</time>
      </trkpt>
      <trkpt lat="47.80643" lon="-3.39685">
        <ele>23</ele>
        <time>2019-07-17T14:35:26Z</time>
      </trkpt>
      <trkpt lat="47.80642" lon="-3.39689">
        <ele>23</ele>
        <time>2019-07-17T14:35:27Z</time>
      </trkpt>
      <trkpt lat="47.80641" lon="-3.39695">
        <ele>24</ele>
        <time>2019-07-17T14:35:28Z</time>
      </trkpt>
      <trkpt lat="47.8064" lon="-3.39701">
        <ele>24</ele>
        <time>2019-07-17T14:35:29Z</time>
      </trkpt>
      <trkpt lat="47.80639" lon="-3.39708">
        <ele>24</ele>
        <time>2019-07-17T14:35:30Z</time>
      </trkpt>
      <trkpt lat="47.80639" lon="-3.39714">
        <ele>24</ele>
        <time>2019-07-17T14:35:31Z</time>
      </trkpt>
      <trkpt lat="47.80641" lon="-3.39722">
        <ele>24</ele>
        <time>2019-07-17T14:35:32Z</time>
      </trkpt>
      <trkpt lat="47.80644" lon="-3.39729">
        <ele>24</ele>
        <time>2019-07-17T14:35:33Z</time>
      </trkpt>
      <trkpt lat="47.80648" lon="-3.39737">
        <ele>24</ele>
        <time>2019-07-17T14:35:34Z</time>
      </trkpt>
      <trkpt lat="47.80652" lon="-3.39744">
        <ele>24</ele>
        <time>2019-07-17T14:35:35Z</time>
      </trkpt>
      <trkpt lat="47.80657" lon="-3.39749">
        <ele>24</ele>
        <time>2019-07-17T14:35:36Z</time>
      </trkpt>
      <trkpt lat="47.80662" lon="-3.39751">
        <ele>23</ele>
        <time>2019-07-17T14:35:37Z</time>
      </trkpt>
      <trkpt lat="47.80667" lon="-3.39754">
        <ele>23</ele>
        <time>2019-07-17T14:35:38Z</time>
      </trkpt>
      <trkpt lat="47.80671" lon="-3.39759">
        <ele>23</ele>
        <time>2019-07-17T14:35:39Z</time>
      </trkpt>
      <trkpt lat="47.80674" lon="-3.39764">
        <ele>22</ele>
        <time>2019-07-17T14:35:40Z</time>
      </trkpt>
      <trkpt lat="47.80677" lon="-3.39768">
        <ele>22</ele>
        <time>2019-07-17T14:35:41Z</time>
      </trkpt>
      <trkpt lat="47.80678" lon="-3.39769">
        <ele>22</ele>
        <time>2019-07-17T14:35:42Z</time>
      </trkpt>
      <trkpt lat="47.80678" lon="-3.3977">
        <ele>21</ele>
        <time>2019-07-17T14:35:43Z</time>
      </trkpt>
      <trkpt lat="47.8068" lon="-3.39769">
        <ele>21</ele>
        <time>2019-07-17T14:35:44Z</time>
      </trkpt>
      <trkpt lat="47.80682" lon="-3.39768">
        <ele>21</ele>
        <time>2019-07-17T14:35:45Z</time>
      </trkpt>
      <trkpt lat="47.80686" lon="-3.39767">
        <ele>21</ele>
        <time>2019-07-17T14:35:46Z</time>
      </trkpt>
      <trkpt lat="47.8069" lon="-3.39768">
        <ele>20</ele>
        <time>2019-07-17T14:35:47Z</time>
      </trkpt>
      <trkpt lat="47.80693" lon="-3.3977">
        <ele>20</ele>
        <time>2019-07-17T14:35:48Z</time>
      </trkpt>
      <trkpt lat="47.80696" lon="-3.39774">
        <ele>20</ele>
        <time>2019-07-17T14:35:49Z</time>
      </trkpt>
      <trkpt lat="47.80699" lon="-3.39779">
        <ele>20</ele>
        <time>2019-07-17T14:35:50Z</time>
      </trkpt>
      <trkpt lat="47.80701" lon="-3.39784">
        <ele>20</ele>
        <time>2019-07-17T14:35:51Z</time>
      </trkpt>
      <trkpt lat="47.80704" lon="-3.39788">
        <ele>20</ele>
        <time>2019-07-17T14:35:52Z</time>
      </trkpt>
      <trkpt lat="47.80707" lon="-3.39792">
        <ele>20</ele>
        <time>2019-07-17T14:35:53Z</time>
      </trkpt>
      <trkpt lat="47.80709" lon="-3.39798">
        <ele>19</ele>
        <time>2019-07-17T14:35:54Z</time>
      </trkpt>
      <trkpt lat="47.80711" lon="-3.39805">
        <ele>19</ele>
        <time>2019-07-17T14:35:55Z</time>
      </trkpt>
      <trkpt lat="47.80713" lon="-3.39812">
        <ele>19</ele>
        <time>2019-07-17T14:35:56Z</time>
      </trkpt>
      <trkpt lat="47.80715" lon="-3.39818">
        <ele>19</ele>
        <time>2019-07-17T14:35:57Z</time>
      </trkpt>
      <trkpt lat="47.80717" lon="-3.39825">
        <ele>19</ele>
        <time>2019-07-17T14:35:58Z</time>
      </trkpt>
      <trkpt lat="47.80719" lon="-3.39834">
        <ele>19</ele>
        <time>2019-07-17T14:35:59Z</time>
      </trkpt>
      <trkpt lat="47.80722" lon="-3.39843">
        <ele>18</ele>
        <time>2019-07-17T14:36:00Z</time>
      </trkpt>
      <trkpt lat="47.80725" lon="-3.39851">
        <ele>18</ele>
        <time>2019-07-17T14:36:01Z</time>
      </trkpt>
      <trkpt lat="47.80729" lon="-3.39858">
        <ele>18</ele>
        <time>2019-07-17T14:36:02Z</time>
      </trkpt>
      <trkpt lat="47.80734" lon="-3.39864">
        <ele>18</ele>
        <time>2019-07-17T14:36:03Z</time>
      </trkpt>
      <trkpt lat="47.80739" lon="-3.3987">
        <ele>18</ele>
        <time>2019-07-17T14:36:04Z</time>
      </trkpt>
      <trkpt lat="47.80744" lon="-3.39874">
        <ele>17</ele>
        <time>2019-07-17T14:36:05Z</time>
      </trkpt>
      <trkpt lat="47.80749" lon="-3.39878">
        <ele>17</ele>
        <time>2019-07-17T14:36:06Z</time>
      </trkpt>
      <trkpt lat="47.80753" lon="-3.39881">
        <ele>17</ele>
        <time>2019-07-17T14:36:07Z</time>
      </trkpt>
      <trkpt lat="47.80757" lon="-3.39885">
        <ele>16</ele>
        <time>2019-07-17T14:36:08Z</time>
      </trkpt>
      <trkpt lat="47.80761" lon="-3.39888">
        <ele>16</ele>
        <time>2019-07-17T14:36:09Z</time>
      </trkpt>
      <trkpt lat="47.80765" lon="-3.39892">
        <ele>16</ele>
        <time>2019-07-17T14:36:10Z</time>
      </trkpt>
      <trkpt lat="47.80769" lon="-3.39896">
        <ele>16</ele>
        <time>2019-07-17T14:36:11Z</time>
      </trkpt>
      <trkpt lat="47.80773" lon="-3.39899">
        <ele>16</ele>
        <time>2019-07-17T14:36:12Z</time>
      </trkpt>
      <trkpt lat="47.80778" lon="-3.39901">
        <ele>15</ele>
        <time>2019-07-17T14:36:13Z</time>
      </trkpt>
      <trkpt lat="47.80782" lon="-3.39903">
        <ele>15</ele>
        <time>2019-07-17T14:36:14Z</time>
      </trkpt>
      <trkpt lat="47.80786" lon="-3.39906">
        <ele>15</ele>
        <time>2019-07-17T14:36:15Z</time>
      </trkpt>
      <trkpt lat="47.8079" lon="-3.39908">
        <ele>15</ele>
        <time>2019-07-17T14:36:16Z</time>
      </trkpt>
      <trkpt lat="47.80793" lon="-3.39911">
        <ele>15</ele>
        <time>2019-07-17T14:36:17Z</time>
      </trkpt>
      <trkpt lat="47.80797" lon="-3.39916">
        <ele>15</ele>
        <time>2019-07-17T14:36:18Z</time>
      </trkpt>
      <trkpt lat="47.808" lon="-3.39921">
        <ele>15</ele>
        <time>2019-07-17T14:36:19Z</time>
      </trkpt>
      <trkpt lat="47.80803" lon="-3.39924">
        <ele>15</ele>
        <time>2019-07-17T14:36:20Z</time>
      </trkpt>
      <trkpt lat="47.80807" lon="-3.39928">
        <ele>15</ele>
        <time>2019-07-17T14:36:21Z</time>
      </trkpt>
      <trkpt lat="47.8081" lon="-3.39931">
        <ele>15</ele>
        <time>2019-07-17T14:36:22Z</time>
      </trkpt>
      <trkpt lat="47.80813" lon="-3.39934">
        <ele>15</ele>
        <time>2019-07-17T14:36:23Z</time>
      </trkpt>
      <trkpt lat="47.80817" lon="-3.39936">
        <ele>15</ele>
        <time>2019-07-17T14:36:24Z</time>
      </trkpt>
      <trkpt lat="47.80821" lon="-3.39939">
        <ele>15</ele>
        <time>2019-07-17T14:36:25Z</time>
      </trkpt>
      <trkpt lat="47.80824" lon="-3.39942">
        <ele>15</ele>
        <time>2019-07-17T14:36:26Z</time>
      </trkpt>
      <trkpt lat="47.80828" lon="-3.39944">
        <ele>15</ele>
        <time>2019-07-17T14:36:27Z</time>
      </trkpt>
      <trkpt lat="47.80833" lon="-3.39947">
        <ele>15</ele>
        <time>2019-07-17T14:36:28Z</time>
      </trkpt>
      <trkpt lat="47.80837" lon="-3.3995">
        <ele>15</ele>
        <time>2019-07-17T14:36:29Z</time>
      </trkpt>
      <trkpt lat="47.80841" lon="-3.39953">
        <ele>15</ele>
        <time>2019-07-17T14:36:30Z</time>
      </trkpt>
      <trkpt lat="47.80846" lon="-3.39956">
        <ele>16</ele>
        <time>2019-07-17T14:36:31Z</time>
      </trkpt>
      <trkpt lat="47.8085" lon="-3.39958">
        <ele>16</ele>
        <time>2019-07-17T14:36:32Z</time>
      </trkpt>
      <trkpt lat="47.80854" lon="-3.3996">
        <ele>16</ele>
        <time>2019-07-17T14:36:33Z</time>
      </trkpt>
      <trkpt lat="47.80858" lon="-3.39961">
        <ele>16</ele>
        <time>2019-07-17T14:36:34Z</time>
      </trkpt>
      <trkpt lat="47.80863" lon="-3.39962">
        <ele>16</ele>
        <time>2019-07-17T14:36:35Z</time>
      </trkpt>
      <trkpt lat="47.80868" lon="-3.39964">
        <ele>16</ele>
        <time>2019-07-17T14:36:36Z</time>
      </trkpt>
      <trkpt lat="47.80872" lon="-3.39967">
        <ele>16</ele>
        <time>2019-07-17T14:36:37Z</time>
      </trkpt>
      <trkpt lat="47.80876" lon="-3.39972">
        <ele>16</ele>
        <time>2019-07-17T14:36:38Z</time>
      </trkpt>
      <trkpt lat="47.8088" lon="-3.39978">
        <ele>16</ele>
        <time>2019-07-17T14:36:39Z</time>
      </trkpt>
      <trkpt lat="47.80883" lon="-3.39984">
        <ele>16</ele>
        <time>2019-07-17T14:36:40Z</time>
      </trkpt>
      <trkpt lat="47.80886" lon="-3.3999">
        <ele>16</ele>
        <time>2019-07-17T14:36:41Z</time>
      </trkpt>
      <trkpt lat="47.80888" lon="-3.39996">
        <ele>16</ele>
        <time>2019-07-17T14:36:42Z</time>
      </trkpt>
      <trkpt lat="47.8089" lon="-3.40001">
        <ele>16</ele>
        <time>2019-07-17T14:36:43Z</time>
      </trkpt>
      <trkpt lat="47.80892" lon="-3.40005">
        <ele>16</ele>
        <time>2019-07-17T14:36:44Z</time>
      </trkpt>
      <trkpt lat="47.80896" lon="-3.40012">
        <ele>16</ele>
        <time>2019-07-17T14:36:45Z</time>
      </trkpt>
      <trkpt lat="47.80899" lon="-3.40019">
        <ele>16</ele>
        <time>2019-07-17T14:36:46Z</time>
      </trkpt>
      <trkpt lat="47.80902" lon="-3.40028">
        <ele>15</ele>
        <time>2019-07-17T14:36:47Z</time>
      </trkpt>
      <trkpt lat="47.80904" lon="-3.40035">
        <ele>15</ele>
        <time>2019-07-17T14:36:48Z</time>
      </trkpt>
      <trkpt lat="47.80905" lon="-3.40042">
        <ele>15</ele>
        <time>2019-07-17T14:36:49Z</time>
      </trkpt>
      <trkpt lat="47.80907" lon="-3.40049">
        <ele>15</ele>
        <time>2019-07-17T14:36:50Z</time>
      </trkpt>
      <trkpt lat="47.80908" lon="-3.40056">
        <ele>15</ele>
        <time>2019-07-17T14:36:51Z</time>
      </trkpt>
      <trkpt lat="47.80909" lon="-3.40063">
        <ele>14</ele>
        <time>2019-07-17T14:36:52Z</time>
      </trkpt>
      <trkpt lat="47.8091" lon="-3.4007">
        <ele>14</ele>
        <time>2019-07-17T14:36:53Z</time>
      </trkpt>
      <trkpt lat="47.80911" lon="-3.40078">
        <ele>14</ele>
        <time>2019-07-17T14:36:54Z</time>
      </trkpt>
      <trkpt lat="47.80913" lon="-3.40087">
        <ele>14</ele>
        <time>2019-07-17T14:36:55Z</time>
      </trkpt>
      <trkpt lat="47.80913" lon="-3.40095">
        <ele>14</ele>
        <time>2019-07-17T14:36:56Z</time>
      </trkpt>
      <trkpt lat="47.80913" lon="-3.40104">
        <ele>13</ele>
        <time>2019-07-17T14:36:57Z</time>
      </trkpt>
      <trkpt lat="47.80913" lon="-3.40112">
        <ele>13</ele>
        <time>2019-07-17T14:36:58Z</time>
      </trkpt>
      <trkpt lat="47.80913" lon="-3.40119">
        <ele>13</ele>
        <time>2019-07-17T14:36:59Z</time>
      </trkpt>
      <trkpt lat="47.80912" lon="-3.40126">
        <ele>12</ele>
        <time>2019-07-17T14:37:00Z</time>
      </trkpt>
      <trkpt lat="47.80911" lon="-3.40132">
        <ele>12</ele>
        <time>2019-07-17T14:37:01Z</time>
      </trkpt>
      <trkpt lat="47.8091" lon="-3.40139">
        <ele>12</ele>
        <time>2019-07-17T14:37:02Z</time>
      </trkpt>
      <trkpt lat="47.80909" lon="-3.40146">
        <ele>12</ele>
        <time>2019-07-17T14:37:03Z</time>
      </trkpt>
      <trkpt lat="47.80907" lon="-3.40153">
        <ele>12</ele>
        <time>2019-07-17T14:37:04Z</time>
      </trkpt>
      <trkpt lat="47.80905" lon="-3.4016">
        <ele>11</ele>
        <time>2019-07-17T14:37:05Z</time>
      </trkpt>
      <trkpt lat="47.80903" lon="-3.40167">
        <ele>11</ele>
        <time>2019-07-17T14:37:06Z</time>
      </trkpt>
      <trkpt lat="47.80901" lon="-3.40175">
        <ele>11</ele>
        <time>2019-07-17T14:37:07Z</time>
      </trkpt>
      <trkpt lat="47.80899" lon="-3.40182">
        <ele>11</ele>
        <time>2019-07-17T14:37:08Z</time>
      </trkpt>
      <trkpt lat="47.80897" lon="-3.4019">
        <ele>11</ele>
        <time>2019-07-17T14:37:09Z</time>
      </trkpt>
      <trkpt lat="47.80894" lon="-3.40198">
        <ele>11</ele>
        <time>2019-07-17T14:37:10Z</time>
      </trkpt>
      <trkpt lat="47.80892" lon="-3.40204">
        <ele>11</ele>
        <time>2019-07-17T14:37:11Z</time>
      </trkpt>
      <trkpt lat="47.8089" lon="-3.40211">
        <ele>11</ele>
        <time>2019-07-17T14:37:12Z</time>
      </trkpt>
      <trkpt lat="47.80887" lon="-3.40217">
        <ele>11</ele>
        <time>2019-07-17T14:37:13Z</time>
      </trkpt>
      <trkpt lat="47.80884" lon="-3.40224">
        <ele>11</ele>
        <time>2019-07-17T14:37:14Z</time>
      </trkpt>
      <trkpt lat="47.80882" lon="-3.4023">
        <ele>10</ele>
        <time>2019-07-17T14:37:15Z</time>
      </trkpt>
      <trkpt lat="47.8088" lon="-3.40236">
        <ele>10</ele>
        <time>2019-07-17T14:37:16Z</time>
      </trkpt>
      <trkpt lat="47.80877" lon="-3.40244">
        <ele>10</ele>
        <time>2019-07-17T14:37:17Z</time>
      </trkpt>
      <trkpt lat="47.80874" lon="-3.40251">
        <ele>10</ele>
        <time>2019-07-17T14:37:18Z</time>
      </trkpt>
      <trkpt lat="47.8087" lon="-3.40258">
        <ele>10</ele>
        <time>2019-07-17T14:37:19Z</time>
      </trkpt>
      <trkpt lat="47.80867" lon="-3.40266">
        <ele>10</ele>
        <time>2019-07-17T14:37:20Z</time>
      </trkpt>
      <trkpt lat="47.80863" lon="-3.40275">
        <ele>10</ele>
        <time>2019-07-17T14:37:21Z</time>
      </trkpt>
      <trkpt lat="47.80858" lon="-3.40283">
        <ele>10</ele>
        <time>2019-07-17T14:37:22Z</time>
      </trkpt>
      <trkpt lat="47.80854" lon="-3.4029">
        <ele>10</ele>
        <time>2019-07-17T14:37:23Z</time>
      </trkpt>
      <trkpt lat="47.80851" lon="-3.40298">
        <ele>10</ele>
        <time>2019-07-17T14:37:24Z</time>
      </trkpt>
      <trkpt lat="47.80848" lon="-3.40305">
        <ele>10</ele>
        <time>2019-07-17T14:37:25Z</time>
      </trkpt>
      <trkpt lat="47.80845" lon="-3.40311">
        <ele>10</ele>
        <time>2019-07-17T14:37:26Z</time>
      </trkpt>
      <trkpt lat="47.80843" lon="-3.40317">
        <ele>10</ele>
        <time>2019-07-17T14:37:27Z</time>
      </trkpt>
      <trkpt lat="47.80841" lon="-3.40323">
        <ele>9</ele>
        <time>2019-07-17T14:37:28Z</time>
      </trkpt>
      <trkpt lat="47.80839" lon="-3.40328">
        <ele>9</ele>
        <time>2019-07-17T14:37:29Z</time>
      </trkpt>
      <trkpt lat="47.80838" lon="-3.40332">
        <ele>9</ele>
        <time>2019-07-17T14:37:30Z</time>
      </trkpt>
      <trkpt lat="47.80835" lon="-3.40336">
        <ele>9</ele>
        <time>2019-07-17T14:37:31Z</time>
      </trkpt>
      <trkpt lat="47.80832" lon="-3.40342">
        <ele>9</ele>
        <time>2019-07-17T14:37:32Z</time>
      </trkpt>
      <trkpt lat="47.8083" lon="-3.40347">
        <ele>9</ele>
        <time>2019-07-17T14:37:33Z</time>
      </trkpt>
      <trkpt lat="47.80828" lon="-3.40353">
        <ele>9</ele>
        <time>2019-07-17T14:37:34Z</time>
      </trkpt>
      <trkpt lat="47.80826" lon="-3.4036">
        <ele>10</ele>
        <time>2019-07-17T14:37:35Z</time>
      </trkpt>
      <trkpt lat="47.80825" lon="-3.40366">
        <ele>10</ele>
        <time>2019-07-17T14:37:36Z</time>
      </trkpt>
      <trkpt lat="47.80823" lon="-3.40371">
        <ele>10</ele>
        <time>2019-07-17T14:37:37Z</time>
      </trkpt>
      <trkpt lat="47.80821" lon="-3.40376">
        <ele>10</ele>
        <time>2019-07-17T14:37:38Z</time>
      </trkpt>
      <trkpt lat="47.80819" lon="-3.40382">
        <ele>10</ele>
        <time>2019-07-17T14:37:39Z</time>
      </trkpt>
      <trkpt lat="47.80818" lon="-3.40387">
        <ele>10</ele>
        <time>2019-07-17T14:37:40Z</time>
      </trkpt>
      <trkpt lat="47.80815" lon="-3.40391">
        <ele>10</ele>
        <time>2019-07-17T14:37:41Z</time>
      </trkpt>
      <trkpt lat="47.80814" lon="-3.40394">
        <ele>10</ele>
        <time>2019-07-17T14:37:42Z</time>
      </trkpt>
      <trkpt lat="47.80812" lon="-3.40397">
        <ele>10</ele>
        <time>2019-07-17T14:37:43Z</time>
      </trkpt>
      <trkpt lat="47.80811" lon="-3.40402">
        <ele>10</ele>
        <time>2019-07-17T14:37:44Z</time>
      </trkpt>
      <trkpt lat="47.80809" lon="-3.40406">
        <ele>10</ele>
        <time>2019-07-17T14:37:45Z</time>
      </trkpt>
      <trkpt lat="47.80807" lon="-3.40412">
        <ele>10</ele>
        <time>2019-07-17T14:37:46Z</time>
      </trkpt>
      <trkpt lat="47.80806" lon="-3.40417">
        <ele>10</ele>
        <time>2019-07-17T14:37:47Z</time>
      </trkpt>
      <trkpt lat="47.80808" lon="-3.40421">
        <ele>10</ele>
        <time>2019-07-17T14:37:48Z</time>
      </trkpt>
      <trkpt lat="47.80811" lon="-3.40424">
        <ele>10</ele>
        <time>2019-07-17T14:37:49Z</time>
      </trkpt>
      <trkpt lat="47.80815" lon="-3.40426">
        <ele>10</ele>
        <time>2019-07-17T14:37:50Z</time>
      </trkpt>
      <trkpt lat="47.80819" lon="-3.40428">
        <ele>10</ele>
        <time>2019-07-17T14:37:51Z</time>
      </trkpt>
      <trkpt lat="47.80824" lon="-3.40429">
        <ele>10</ele>
        <time>2019-07-17T14:37:52Z</time>
      </trkpt>
      <trkpt lat="47.80829" lon="-3.40431">
        <ele>10</ele>
        <time>2019-07-17T14:37:53Z</time>
      </trkpt>
      <trkpt lat="47.80834" lon="-3.40433">
        <ele>10</ele>
        <time>2019-07-17T14:37:54Z</time>
      </trkpt>
      <trkpt lat="47.80839" lon="-3.40435">
        <ele>10</ele>
        <time>2019-07-17T14:37:55Z</time>
      </trkpt>
      <trkpt lat="47.80844" lon="-3.40436">
        <ele>10</ele>
        <time>2019-07-17T14:37:56Z</time>
      </trkpt>
      <trkpt lat="47.80848" lon="-3.40438">
        <ele>10</ele>
        <time>2019-07-17T14:37:57Z</time>
      </trkpt>
      <trkpt lat="47.80853" lon="-3.40441">
        <ele>10</ele>
        <time>2019-07-17T14:37:58Z</time>
      </trkpt>
      <trkpt lat="47.80857" lon="-3.40443">
        <ele>10</ele>
        <time>2019-07-17T14:37:59Z</time>
      </trkpt>
      <trkpt lat="47.80862" lon="-3.40445">
        <ele>10</ele>
        <time>2019-07-17T14:38:00Z</time>
      </trkpt>
      <trkpt lat="47.80867" lon="-3.40447">
        <ele>10</ele>
        <time>2019-07-17T14:38:01Z</time>
      </trkpt>
      <trkpt lat="47.80872" lon="-3.40449">
        <ele>10</ele>
        <time>2019-07-17T14:38:02Z</time>
      </trkpt>
      <trkpt lat="47.80877" lon="-3.40451">
        <ele>10</ele>
        <time>2019-07-17T14:38:03Z</time>
      </trkpt>
      <trkpt lat="47.80882" lon="-3.40452">
        <ele>10</ele>
        <time>2019-07-17T14:38:04Z</time>
      </trkpt>
      <trkpt lat="47.80887" lon="-3.40454">
        <ele>10</ele>
        <time>2019-07-17T14:38:05Z</time>
      </trkpt>
      <trkpt lat="47.80891" lon="-3.40456">
        <ele>10</ele>
        <time>2019-07-17T14:38:06Z</time>
      </trkpt>
      <trkpt lat="47.80896" lon="-3.40456">
        <ele>10</ele>
        <time>2019-07-17T14:38:07Z</time>
      </trkpt>
      <trkpt lat="47.809" lon="-3.40455">
        <ele>10</ele>
        <time>2019-07-17T14:38:08Z</time>
      </trkpt>
      <trkpt lat="47.80905" lon="-3.40453">
        <ele>10</ele>
        <time>2019-07-17T14:38:09Z</time>
      </trkpt>
      <trkpt lat="47.80908" lon="-3.40449">
        <ele>10</ele>
        <time>2019-07-17T14:38:10Z</time>
      </trkpt>
      <trkpt lat="47.80912" lon="-3.40444">
        <ele>10</ele>
        <time>2019-07-17T14:38:11Z</time>
      </trkpt>
      <trkpt lat="47.80916" lon="-3.40439">
        <ele>10</ele>
        <time>2019-07-17T14:38:12Z</time>
      </trkpt>
      <trkpt lat="47.80919" lon="-3.40433">
        <ele>10</ele>
        <time>2019-07-17T14:38:13Z</time>
      </trkpt>
      <trkpt lat="47.80923" lon="-3.40427">
        <ele>11</ele>
        <time>2019-07-17T14:38:14Z</time>
      </trkpt>
      <trkpt lat="47.80926" lon="-3.40421">
        <ele>11</ele>
        <time>2019-07-17T14:38:15Z</time>
      </trkpt>
      <trkpt lat="47.8093" lon="-3.40415">
        <ele>11</ele>
        <time>2019-07-17T14:38:16Z</time>
      </trkpt>
      <trkpt lat="47.80933" lon="-3.40409">
        <ele>11</ele>
        <time>2019-07-17T14:38:17Z</time>
      </trkpt>
      <trkpt lat="47.80936" lon="-3.40403">
        <ele>11</ele>
        <time>2019-07-17T14:38:18Z</time>
      </trkpt>
      <trkpt lat="47.8094" lon="-3.40397">
        <ele>11</ele>
        <time>2019-07-17T14:38:19Z</time>
      </trkpt>
      <trkpt lat="47.80944" lon="-3.40391">
        <ele>11</ele>
        <time>2019-07-17T14:38:20Z</time>
      </trkpt>
      <trkpt lat="47.80948" lon="-3.40385">
        <ele>11</ele>
        <time>2019-07-17T14:38:21Z</time>
      </trkpt>
      <trkpt lat="47.80953" lon="-3.40379">
        <ele>11</ele>
        <time>2019-07-17T14:38:22Z</time>
      </trkpt>
      <trkpt lat="47.80957" lon="-3.40374">
        <ele>11</ele>
        <time>2019-07-17T14:38:23Z</time>
      </trkpt>
      <trkpt lat="47.80962" lon="-3.40368">
        <ele>11</ele>
        <time>2019-07-17T14:38:24Z</time>
      </trkpt>
      <trkpt lat="47.80967" lon="-3.40363">
        <ele>11</ele>
        <time>2019-07-17T14:38:25Z</time>
      </trkpt>
      <trkpt lat="47.80971" lon="-3.40359">
        <ele>11</ele>
        <time>2019-07-17T14:38:26Z</time>
      </trkpt>
      <trkpt lat="47.80975" lon="-3.40355">
        <ele>11</ele>
        <time>2019-07-17T14:38:27Z</time>
      </trkpt>
      <trkpt lat="47.80979" lon="-3.40351">
        <ele>11</ele>
        <time>2019-07-17T14:38:28Z</time>
      </trkpt>
      <trkpt lat="47.80983" lon="-3.40347">
        <ele>11</ele>
        <time>2019-07-17T14:38:29Z</time>
      </trkpt>
      <trkpt lat="47.80988" lon="-3.40344">
        <ele>11</ele>
        <time>2019-07-17T14:38:30Z</time>
      </trkpt>
      <trkpt lat="47.80992" lon="-3.4034">
        <ele>11</ele>
        <time>2019-07-17T14:38:31Z</time>
      </trkpt>
      <trkpt lat="47.80997" lon="-3.40336">
        <ele>12</ele>
        <time>2019-07-17T14:38:32Z</time>
      </trkpt>
      <trkpt lat="47.81002" lon="-3.40332">
        <ele>12</ele>
        <time>2019-07-17T14:38:33Z</time>
      </trkpt>
      <trkpt lat="47.81006" lon="-3.40329">
        <ele>12</ele>
        <time>2019-07-17T14:38:34Z</time>
      </trkpt>
      <trkpt lat="47.81011" lon="-3.40325">
        <ele>12</ele>
        <time>2019-07-17T14:38:35Z</time>
      </trkpt>
      <trkpt lat="47.81014" lon="-3.40323">
        <ele>12</ele>
        <time>2019-07-17T14:38:36Z</time>
      </trkpt>
      <trkpt lat="47.81018" lon="-3.4032">
        <ele>12</ele>
        <time>2019-07-17T14:38:37Z</time>
      </trkpt>
      <trkpt lat="47.81022" lon="-3.40317">
        <ele>12</ele>
        <time>2019-07-17T14:38:38Z</time>
      </trkpt>
      <trkpt lat="47.81025" lon="-3.40315">
        <ele>12</ele>
        <time>2019-07-17T14:38:39Z</time>
      </trkpt>
      <trkpt lat="47.81029" lon="-3.40313">
        <ele>13</ele>
        <time>2019-07-17T14:38:40Z</time>
      </trkpt>
      <trkpt lat="47.81033" lon="-3.4031">
        <ele>13</ele>
        <time>2019-07-17T14:38:41Z</time>
      </trkpt>
      <trkpt lat="47.81038" lon="-3.40307">
        <ele>13</ele>
        <time>2019-07-17T14:38:42Z</time>
      </trkpt>
      <trkpt lat="47.81043" lon="-3.40305">
        <ele>13</ele>
        <time>2019-07-17T14:38:43Z</time>
      </trkpt>
      <trkpt lat="47.81048" lon="-3.40304">
        <ele>13</ele>
        <time>2019-07-17T14:38:44Z</time>
      </trkpt>
      <trkpt lat="47.81053" lon="-3.40304">
        <ele>14</ele>
        <time>2019-07-17T14:38:45Z</time>
      </trkpt>
      <trkpt lat="47.81057" lon="-3.40307">
        <ele>14</ele>
        <time>2019-07-17T14:38:46Z</time>
      </trkpt>
      <trkpt lat="47.81061" lon="-3.40311">
        <ele>14</ele>
        <time>2019-07-17T14:38:47Z</time>
      </trkpt>
      <trkpt lat="47.81064" lon="-3.40315">
        <ele>15</ele>
        <time>2019-07-17T14:38:48Z</time>
      </trkpt>
      <trkpt lat="47.81066" lon="-3.4032">
        <ele>15</ele>
        <time>2019-07-17T14:38:49Z</time>
      </trkpt>
      <trkpt lat="47.81068" lon="-3.40326">
        <ele>15</ele>
        <time>2019-07-17T14:38:50Z</time>
      </trkpt>
      <trkpt lat="47.81071" lon="-3.40332">
        <ele>15</ele>
        <time>2019-07-17T14:38:51Z</time>
      </trkpt>
      <trkpt lat="47.81072" lon="-3.40338">
        <ele>15</ele>
        <time>2019-07-17T14:38:52Z</time>
      </trkpt>
      <trkpt lat="47.81074" lon="-3.40344">
        <ele>16</ele>
        <time>2019-07-17T14:38:53Z</time>
      </trkpt>
      <trkpt lat="47.81075" lon="-3.40349">
        <ele>16</ele>
        <time>2019-07-17T14:38:54Z</time>
      </trkpt>
      <trkpt lat="47.81077" lon="-3.40355">
        <ele>16</ele>
        <time>2019-07-17T14:38:55Z</time>
      </trkpt>
      <trkpt lat="47.81079" lon="-3.4036">
        <ele>17</ele>
        <time>2019-07-17T14:38:56Z</time>
      </trkpt>
      <trkpt lat="47.81081" lon="-3.40366">
        <ele>17</ele>
        <time>2019-07-17T14:38:57Z</time>
      </trkpt>
      <trkpt lat="47.81083" lon="-3.40372">
        <ele>17</ele>
        <time>2019-07-17T14:38:58Z</time>
      </trkpt>
      <trkpt lat="47.81085" lon="-3.40378">
        <ele>17</ele>
        <time>2019-07-17T14:38:59Z</time>
      </trkpt>
      <trkpt lat="47.81088" lon="-3.40382">
        <ele>18</ele>
        <time>2019-07-17T14:39:00Z</time>
      </trkpt>
      <trkpt lat="47.8109" lon="-3.40387">
        <ele>18</ele>
        <time>2019-07-17T14:39:01Z</time>
      </trkpt>
      <trkpt lat="47.81092" lon="-3.40392">
        <ele>18</ele>
        <time>2019-07-17T14:39:02Z</time>
      </trkpt>
      <trkpt lat="47.81095" lon="-3.40398">
        <ele>18</ele>
        <time>2019-07-17T14:39:03Z</time>
      </trkpt>
      <trkpt lat="47.81097" lon="-3.40402">
        <ele>19</ele>
        <time>2019-07-17T14:39:04Z</time>
      </trkpt>
      <trkpt lat="47.811" lon="-3.40407">
        <ele>19</ele>
        <time>2019-07-17T14:39:05Z</time>
      </trkpt>
      <trkpt lat="47.81102" lon="-3.40412">
        <ele>19</ele>
        <time>2019-07-17T14:39:06Z</time>
      </trkpt>
      <trkpt lat="47.81104" lon="-3.40417">
        <ele>20</ele>
        <time>2019-07-17T14:39:07Z</time>
      </trkpt>
      <trkpt lat="47.81107" lon="-3.40422">
        <ele>20</ele>
        <time>2019-07-17T14:39:08Z</time>
      </trkpt>
      <trkpt lat="47.8111" lon="-3.40427">
        <ele>20</ele>
        <time>2019-07-17T14:39:09Z</time>
      </trkpt>
      <trkpt lat="47.81113" lon="-3.40433">
        <ele>20</ele>
        <time>2019-07-17T14:39:10Z</time>
      </trkpt>
      <trkpt lat="47.81116" lon="-3.40439">
        <ele>20</ele>
        <time>2019-07-17T14:39:11Z</time>
      </trkpt>
      <trkpt lat="47.81119" lon="-3.40445">
        <ele>21</ele>
        <time>2019-07-17T14:39:12Z</time>
      </trkpt>
      <trkpt lat="47.81121" lon="-3.40451">
        <ele>21</ele>
        <time>2019-07-17T14:39:13Z</time>
      </trkpt>
      <trkpt lat="47.81124" lon="-3.40458">
        <ele>21</ele>
        <time>2019-07-17T14:39:14Z</time>
      </trkpt>
      <trkpt lat="47.81127" lon="-3.40465">
        <ele>21</ele>
        <time>2019-07-17T14:39:15Z</time>
      </trkpt>
      <trkpt lat="47.81129" lon="-3.40471">
        <ele>22</ele>
        <time>2019-07-17T14:39:16Z</time>
      </trkpt>
      <trkpt lat="47.81132" lon="-3.40478">
        <ele>22</ele>
        <time>2019-07-17T14:39:17Z</time>
      </trkpt>
      <trkpt lat="47.81136" lon="-3.40483">
        <ele>23</ele>
        <time>2019-07-17T14:39:18Z</time>
      </trkpt>
      <trkpt lat="47.81138" lon="-3.40489">
        <ele>23</ele>
        <time>2019-07-17T14:39:19Z</time>
      </trkpt>
      <trkpt lat="47.81141" lon="-3.40494">
        <ele>23</ele>
        <time>2019-07-17T14:39:20Z</time>
      </trkpt>
      <trkpt lat="47.81143" lon="-3.40498">
        <ele>24</ele>
        <time>2019-07-17T14:39:21Z</time>
      </trkpt>
      <trkpt lat="47.81146" lon="-3.40504">
        <ele>24</ele>
        <time>2019-07-17T14:39:22Z</time>
      </trkpt>
      <trkpt lat="47.81148" lon="-3.4051">
        <ele>24</ele>
        <time>2019-07-17T14:39:23Z</time>
      </trkpt>
      <trkpt lat="47.81149" lon="-3.40516">
        <ele>24</ele>
        <time>2019-07-17T14:39:24Z</time>
      </trkpt>
      <trkpt lat="47.81151" lon="-3.40523">
        <ele>25</ele>
        <time>2019-07-17T14:39:25Z</time>
      </trkpt>
      <trkpt lat="47.81152" lon="-3.40529">
        <ele>25</ele>
        <time>2019-07-17T14:39:26Z</time>
      </trkpt>
      <trkpt lat="47.81154" lon="-3.40536">
        <ele>25</ele>
        <time>2019-07-17T14:39:27Z</time>
      </trkpt>
      <trkpt lat="47.81156" lon="-3.40542">
        <ele>26</ele>
        <time>2019-07-17T14:39:28Z</time>
      </trkpt>
      <trkpt lat="47.81159" lon="-3.40549">
        <ele>26</ele>
        <time>2019-07-17T14:39:29Z</time>
      </trkpt>
      <trkpt lat="47.81162" lon="-3.40556">
        <ele>27</ele>
        <time>2019-07-17T14:39:30Z</time>
      </trkpt>
      <trkpt lat="47.81165" lon="-3.40563">
        <ele>27</ele>
        <time>2019-07-17T14:39:31Z</time>
      </trkpt>
      <trkpt lat="47.81168" lon="-3.40569">
        <ele>28</ele>
        <time>2019-07-17T14:39:32Z</time>
      </trkpt>
      <trkpt lat="47.8117" lon="-3.40576">
        <ele>28</ele>
        <time>2019-07-17T14:39:33Z</time>
      </trkpt>
      <trkpt lat="47.81173" lon="-3.40582">
        <ele>29</ele>
        <time>2019-07-17T14:39:34Z</time>
      </trkpt>
      <trkpt lat="47.81176" lon="-3.40587">
        <ele>29</ele>
        <time>2019-07-17T14:39:35Z</time>
      </trkpt>
      <trkpt lat="47.81179" lon="-3.40593">
        <ele>30</ele>
        <time>2019-07-17T14:39:36Z</time>
      </trkpt>
      <trkpt lat="47.81182" lon="-3.40599">
        <ele>30</ele>
        <time>2019-07-17T14:39:37Z</time>
      </trkpt>
      <trkpt lat="47.81185" lon="-3.40604">
        <ele>31</ele>
        <time>2019-07-17T14:39:38Z</time>
      </trkpt>
      <trkpt lat="47.81188" lon="-3.4061">
        <ele>31</ele>
        <time>2019-07-17T14:39:39Z</time>
      </trkpt>
      <trkpt lat="47.81191" lon="-3.40615">
        <ele>31</ele>
        <time>2019-07-17T14:39:40Z</time>
      </trkpt>
      <trkpt lat="47.81193" lon="-3.40621">
        <ele>32</ele>
        <time>2019-07-17T14:39:41Z</time>
      </trkpt>
      <trkpt lat="47.81196" lon="-3.40627">
        <ele>32</ele>
        <time>2019-07-17T14:39:42Z</time>
      </trkpt>
      <trkpt lat="47.81199" lon="-3.40633">
        <ele>32</ele>
        <time>2019-07-17T14:39:43Z</time>
      </trkpt>
      <trkpt lat="47.81202" lon="-3.40638">
        <ele>33</ele>
        <time>2019-07-17T14:39:44Z</time>
      </trkpt>
      <trkpt lat="47.81205" lon="-3.40644">
        <ele>33</ele>
        <time>2019-07-17T14:39:45Z</time>
      </trkpt>
      <trkpt lat="47.81208" lon="-3.40649">
        <ele>33</ele>
        <time>2019-07-17T14:39:46Z</time>
      </trkpt>
      <trkpt lat="47.81211" lon="-3.40655">
        <ele>33</ele>
        <time>2019-07-17T14:39:47Z</time>
      </trkpt>
      <trkpt lat="47.81213" lon="-3.40661">
        <ele>33</ele>
        <time>2019-07-17T14:39:48Z</time>
      </trkpt>
      <trkpt lat="47.81216" lon="-3.40667">
        <ele>34</ele>
        <time>2019-07-17T14:39:49Z</time>
      </trkpt>
      <trkpt lat="47.81218" lon="-3.40673">
        <ele>33</ele>
        <time>2019-07-17T14:39:50Z</time>
      </trkpt>
      <trkpt lat="47.8122" lon="-3.40679">
        <ele>33</ele>
        <time>2019-07-17T14:39:51Z</time>
      </trkpt>
      <trkpt lat="47.81222" lon="-3.40685">
        <ele>33</ele>
        <time>2019-07-17T14:39:52Z</time>
      </trkpt>
      <trkpt lat="47.81223" lon="-3.40691">
        <ele>33</ele>
        <time>2019-07-17T14:39:53Z</time>
      </trkpt>
      <trkpt lat="47.81224" lon="-3.40697">
        <ele>33</ele>
        <time>2019-07-17T14:39:54Z</time>
      </trkpt>
      <trkpt lat="47.81225" lon="-3.40704">
        <ele>33</ele>
        <time>2019-07-17T14:39:55Z</time>
      </trkpt>
      <trkpt lat="47.81227" lon="-3.40711">
        <ele>33</ele>
        <time>2019-07-17T14:39:56Z</time>
      </trkpt>
      <trkpt lat="47.81229" lon="-3.40718">
        <ele>33</ele>
        <time>2019-07-17T14:39:57Z</time>
      </trkpt>
      <trkpt lat="47.81231" lon="-3.40726">
        <ele>33</ele>
        <time>2019-07-17T14:39:58Z</time>
      </trkpt>
      <trkpt lat="47.81233" lon="-3.40733">
        <ele>33</ele>
        <time>2019-07-17T14:39:59Z</time>
      </trkpt>
      <trkpt lat="47.81235" lon="-3.4074">
        <ele>33</ele>
        <time>2019-07-17T14:40:00Z</time>
      </trkpt>
      <trkpt lat="47.81238" lon="-3.40746">
        <ele>33</ele>
        <time>2019-07-17T14:40:01Z</time>
      </trkpt>
      <trkpt lat="47.81241" lon="-3.40752">
        <ele>33</ele>
        <time>2019-07-17T14:40:02Z</time>
      </trkpt>
      <trkpt lat="47.81243" lon="-3.40758">
        <ele>33</ele>
        <time>2019-07-17T14:40:03Z</time>
      </trkpt>
      <trkpt lat="47.81246" lon="-3.40763">
        <ele>33</ele>
        <time>2019-07-17T14:40:04Z</time>
      </trkpt>
      <trkpt lat="47.81248" lon="-3.40768">
        <ele>32</ele>
        <time>2019-07-17T14:40:05Z</time>
      </trkpt>
      <trkpt lat="47.81251" lon="-3.40773">
        <ele>32</ele>
        <time>2019-07-17T14:40:06Z</time>
      </trkpt>
      <trkpt lat="47.81253" lon="-3.40777">
        <ele>32</ele>
        <time>2019-07-17T14:40:07Z</time>
      </trkpt>
      <trkpt lat="47.81255" lon="-3.40782">
        <ele>32</ele>
        <time>2019-07-17T14:40:08Z</time>
      </trkpt>
      <trkpt lat="47.81257" lon="-3.40787">
        <ele>32</ele>
        <time>2019-07-17T14:40:09Z</time>
      </trkpt>
      <trkpt lat="47.81259" lon="-3.40792">
        <ele>32</ele>
        <time>2019-07-17T14:40:10Z</time>
      </trkpt>
      <trkpt lat="47.81262" lon="-3.40797">
        <ele>32</ele>
        <time>2019-07-17T14:40:11Z</time>
      </trkpt>
      <trkpt lat="47.81264" lon="-3.40801">
        <ele>32</ele>
        <time>2019-07-17T14:40:12Z</time>
      </trkpt>
      <trkpt lat="47.81266" lon="-3.40806">
        <ele>32</ele>
        <time>2019-07-17T14:40:13Z</time>
      </trkpt>
      <trkpt lat="47.81267" lon="-3.40809">
        <ele>32</ele>
        <time>2019-07-17T14:40:14Z</time>
      </trkpt>
      <trkpt lat="47.81267" lon="-3.40812">
        <ele>32</ele>
        <time>2019-07-17T14:40:15Z</time>
      </trkpt>
      <trkpt lat="47.81265" lon="-3.40812">
        <ele>32</ele>
        <time>2019-07-17T14:40:16Z</time>
      </trkpt>
      <trkpt lat="47.81265" lon="-3.4081">
        <ele>32</ele>
        <time>2019-07-17T14:40:17Z</time>
      </trkpt>
      <trkpt lat="47.81264" lon="-3.40808">
        <ele>32</ele>
        <time>2019-07-17T14:40:18Z</time>
      </trkpt>
      <trkpt lat="47.81264" lon="-3.40804">
        <ele>32</ele>
        <time>2019-07-17T14:40:19Z</time>
      </trkpt>
      <trkpt lat="47.81263" lon="-3.40801">
        <ele>32</ele>
        <time>2019-07-17T14:40:20Z</time>
      </trkpt>
      <trkpt lat="47.81262" lon="-3.40797">
        <ele>32</ele>
        <time>2019-07-17T14:40:21Z</time>
      </trkpt>
      <trkpt lat="47.8126" lon="-3.40794">
        <ele>32</ele>
        <time>2019-07-17T14:40:22Z</time>
      </trkpt>
      <trkpt lat="47.8126" lon="-3.4079">
        <ele>32</ele>
        <time>2019-07-17T14:40:23Z</time>
      </trkpt>
      <trkpt lat="47.8126" lon="-3.40787">
        <ele>32</ele>
        <time>2019-07-17T14:40:24Z</time>
      </trkpt>
      <trkpt lat="47.81261" lon="-3.40783">
        <ele>32</ele>
        <time>2019-07-17T14:40:25Z</time>
      </trkpt>
      <trkpt lat="47.81263" lon="-3.4078">
        <ele>32</ele>
        <time>2019-07-17T14:40:26Z</time>
      </trkpt>
      <trkpt lat="47.81265" lon="-3.40778">
        <ele>32</ele>
        <time>2019-07-17T14:40:27Z</time>
      </trkpt>
      <trkpt lat="47.81269" lon="-3.40776">
        <ele>32</ele>
        <time>2019-07-17T14:40:28Z</time>
      </trkpt>
      <trkpt lat="47.81272" lon="-3.40774">
        <ele>32</ele>
        <time>2019-07-17T14:40:29Z</time>
      </trkpt>
      <trkpt lat="47.81276" lon="-3.40772">
        <ele>32</ele>
        <time>2019-07-17T14:40:30Z</time>
      </trkpt>
      <trkpt lat="47.81281" lon="-3.40771">
        <ele>32</ele>
        <time>2019-07-17T14:40:31Z</time>
      </trkpt>
      <trkpt lat="47.81285" lon="-3.4077">
        <ele>32</ele>
        <time>2019-07-17T14:40:32Z</time>
      </trkpt>
      <trkpt lat="47.8129" lon="-3.40768">
        <ele>32</ele>
        <time>2019-07-17T14:40:33Z</time>
      </trkpt>
      <trkpt lat="47.81295" lon="-3.40767">
        <ele>32</ele>
        <time>2019-07-17T14:40:34Z</time>
      </trkpt>
      <trkpt lat="47.813" lon="-3.40766">
        <ele>32</ele>
        <time>2019-07-17T14:40:35Z</time>
      </trkpt>
      <trkpt lat="47.81304" lon="-3.40766">
        <ele>32</ele>
        <time>2019-07-17T14:40:36Z</time>
      </trkpt>
      <trkpt lat="47.81308" lon="-3.40765">
        <ele>32</ele>
        <time>2019-07-17T14:40:37Z</time>
      </trkpt>
      <trkpt lat="47.81312" lon="-3.40764">
        <ele>32</ele>
        <time>2019-07-17T14:40:38Z</time>
      </trkpt>
      <trkpt lat="47.81316" lon="-3.40764">
        <ele>32</ele>
        <time>2019-07-17T14:40:39Z</time>
      </trkpt>
      <trkpt lat="47.8132" lon="-3.40764">
        <ele>32</ele>
        <time>2019-07-17T14:40:40Z</time>
      </trkpt>
      <trkpt lat="47.81324" lon="-3.40763">
        <ele>32</ele>
        <time>2019-07-17T14:40:41Z</time>
      </trkpt>
      <trkpt lat="47.81329" lon="-3.40763">
        <ele>32</ele>
        <time>2019-07-17T14:40:42Z</time>
      </trkpt>
      <trkpt lat="47.81334" lon="-3.40762">
        <ele>32</ele>
        <time>2019-07-17T14:40:43Z</time>
      </trkpt>
      <trkpt lat="47.81338" lon="-3.40762">
        <ele>32</ele>
        <time>2019-07-17T14:40:44Z</time>
      </trkpt>
      <trkpt lat="47.81344" lon="-3.40762">
        <ele>32</ele>
        <time>2019-07-17T14:40:45Z</time>
      </trkpt>
      <trkpt lat="47.81349" lon="-3.40762">
        <ele>32</ele>
        <time>2019-07-17T14:40:46Z</time>
      </trkpt>
      <trkpt lat="47.81353" lon="-3.40761">
        <ele>32</ele>
        <time>2019-07-17T14:40:47Z</time>
      </trkpt>
      <trkpt lat="47.81358" lon="-3.4076">
        <ele>32</ele>
        <time>2019-07-17T14:40:48Z</time>
      </trkpt>
      <trkpt lat="47.81363" lon="-3.4076">
        <ele>32</ele>
        <time>2019-07-17T14:40:49Z</time>
      </trkpt>
      <trkpt lat="47.81368" lon="-3.40761">
        <ele>32</ele>
        <time>2019-07-17T14:40:50Z</time>
      </trkpt>
      <trkpt lat="47.81372" lon="-3.40762">
        <ele>32</ele>
        <time>2019-07-17T14:40:51Z</time>
      </trkpt>
      <trkpt lat="47.81377" lon="-3.40762">
        <ele>32</ele>
        <time>2019-07-17T14:40:52Z</time>
      </trkpt>
      <trkpt lat="47.8138" lon="-3.40763">
        <ele>32</ele>
        <time>2019-07-17T14:40:53Z</time>
      </trkpt>
      <trkpt lat="47.81384" lon="-3.40763">
        <ele>32</ele>
        <time>2019-07-17T14:40:54Z</time>
      </trkpt>
      <trkpt lat="47.81388" lon="-3.40765">
        <ele>32</ele>
        <time>2019-07-17T14:40:55Z</time>
      </trkpt>
      <trkpt lat="47.81393" lon="-3.40765">
        <ele>32</ele>
        <time>2019-07-17T14:40:56Z</time>
      </trkpt>
      <trkpt lat="47.81397" lon="-3.40765">
        <ele>32</ele>
        <time>2019-07-17T14:40:57Z</time>
      </trkpt>
      <trkpt lat="47.81402" lon="-3.40764">
        <ele>33</ele>
        <time>2019-07-17T14:40:58Z</time>
      </trkpt>
      <trkpt lat="47.81407" lon="-3.40762">
        <ele>33</ele>
        <time>2019-07-17T14:40:59Z</time>
      </trkpt>
      <trkpt lat="47.81412" lon="-3.4076">
        <ele>33</ele>
        <time>2019-07-17T14:41:00Z</time>
      </trkpt>
      <trkpt lat="47.81417" lon="-3.40757">
        <ele>33</ele>
        <time>2019-07-17T14:41:01Z</time>
      </trkpt>
      <trkpt lat="47.81422" lon="-3.40756">
        <ele>33</ele>
        <time>2019-07-17T14:41:02Z</time>
      </trkpt>
      <trkpt lat="47.81427" lon="-3.40753">
        <ele>33</ele>
        <time>2019-07-17T14:41:03Z</time>
      </trkpt>
      <trkpt lat="47.81431" lon="-3.40751">
        <ele>33</ele>
        <time>2019-07-17T14:41:04Z</time>
      </trkpt>
      <trkpt lat="47.81436" lon="-3.40749">
        <ele>33</ele>
        <time>2019-07-17T14:41:05Z</time>
      </trkpt>
      <trkpt lat="47.81441" lon="-3.40748">
        <ele>33</ele>
        <time>2019-07-17T14:41:06Z</time>
      </trkpt>
      <trkpt lat="47.81446" lon="-3.40746">
        <ele>33</ele>
        <time>2019-07-17T14:41:07Z</time>
      </trkpt>
      <trkpt lat="47.81451" lon="-3.40743">
        <ele>33</ele>
        <time>2019-07-17T14:41:08Z</time>
      </trkpt>
      <trkpt lat="47.81456" lon="-3.40741">
        <ele>33</ele>
        <time>2019-07-17T14:41:09Z</time>
      </trkpt>
      <trkpt lat="47.81461" lon="-3.40739">
        <ele>33</ele>
        <time>2019-07-17T14:41:10Z</time>
      </trkpt>
      <trkpt lat="47.81466" lon="-3.40737">
        <ele>33</ele>
        <time>2019-07-17T14:41:11Z</time>
      </trkpt>
      <trkpt lat="47.81471" lon="-3.40735">
        <ele>33</ele>
        <time>2019-07-17T14:41:12Z</time>
      </trkpt>
      <trkpt lat="47.81477" lon="-3.40734">
        <ele>34</ele>
        <time>2019-07-17T14:41:13Z</time>
      </trkpt>
      <trkpt lat="47.81482" lon="-3.40732">
        <ele>34</ele>
        <time>2019-07-17T14:41:14Z</time>
      </trkpt>
      <trkpt lat="47.81488" lon="-3.40729">
        <ele>34</ele>
        <time>2019-07-17T14:41:15Z</time>
      </trkpt>
      <trkpt lat="47.81494" lon="-3.40727">
        <ele>34</ele>
        <time>2019-07-17T14:41:16Z</time>
      </trkpt>
      <trkpt lat="47.815" lon="-3.40724">
        <ele>34</ele>
        <time>2019-07-17T14:41:17Z</time>
      </trkpt>
      <trkpt lat="47.81505" lon="-3.40723">
        <ele>34</ele>
        <time>2019-07-17T14:41:18Z</time>
      </trkpt>
      <trkpt lat="47.8151" lon="-3.40721">
        <ele>34</ele>
        <time>2019-07-17T14:41:19Z</time>
      </trkpt>
      <trkpt lat="47.81515" lon="-3.4072">
        <ele>35</ele>
        <time>2019-07-17T14:41:20Z</time>
      </trkpt>
      <trkpt lat="47.8152" lon="-3.40718">
        <ele>35</ele>
        <time>2019-07-17T14:41:21Z</time>
      </trkpt>
      <trkpt lat="47.81525" lon="-3.40716">
        <ele>35</ele>
        <time>2019-07-17T14:41:22Z</time>
      </trkpt>
      <trkpt lat="47.8153" lon="-3.40714">
        <ele>35</ele>
        <time>2019-07-17T14:41:23Z</time>
      </trkpt>
      <trkpt lat="47.81535" lon="-3.40713">
        <ele>36</ele>
        <time>2019-07-17T14:41:24Z</time>
      </trkpt>
      <trkpt lat="47.8154" lon="-3.40711">
        <ele>36</ele>
        <time>2019-07-17T14:41:25Z</time>
      </trkpt>
      <trkpt lat="47.81545" lon="-3.40709">
        <ele>36</ele>
        <time>2019-07-17T14:41:26Z</time>
      </trkpt>
      <trkpt lat="47.8155" lon="-3.40707">
        <ele>36</ele>
        <time>2019-07-17T14:41:27Z</time>
      </trkpt>
      <trkpt lat="47.81555" lon="-3.40705">
        <ele>36</ele>
        <time>2019-07-17T14:41:28Z</time>
      </trkpt>
      <trkpt lat="47.81559" lon="-3.40704">
        <ele>37</ele>
        <time>2019-07-17T14:41:29Z</time>
      </trkpt>
      <trkpt lat="47.81565" lon="-3.40702">
        <ele>37</ele>
        <time>2019-07-17T14:41:30Z</time>
      </trkpt>
      <trkpt lat="47.81571" lon="-3.40701">
        <ele>37</ele>
        <time>2019-07-17T14:41:31Z</time>
      </trkpt>
      <trkpt lat="47.81577" lon="-3.40699">
        <ele>37</ele>
        <time>2019-07-17T14:41:32Z</time>
      </trkpt>
      <trkpt lat="47.81582" lon="-3.40697">
        <ele>37</ele>
        <time>2019-07-17T14:41:33Z</time>
      </trkpt>
      <trkpt lat="47.81588" lon="-3.40696">
        <ele>37</ele>
        <time>2019-07-17T14:41:34Z</time>
      </trkpt>
      <trkpt lat="47.81593" lon="-3.40694">
        <ele>38</ele>
        <time>2019-07-17T14:41:35Z</time>
      </trkpt>
      <trkpt lat="47.81599" lon="-3.40691">
        <ele>38</ele>
        <time>2019-07-17T14:41:36Z</time>
      </trkpt>
      <trkpt lat="47.81604" lon="-3.4069">
        <ele>38</ele>
        <time>2019-07-17T14:41:37Z</time>
      </trkpt>
      <trkpt lat="47.8161" lon="-3.40688">
        <ele>38</ele>
        <time>2019-07-17T14:41:38Z</time>
      </trkpt>
      <trkpt lat="47.81616" lon="-3.40687">
        <ele>38</ele>
        <time>2019-07-17T14:41:39Z</time>
      </trkpt>
      <trkpt lat="47.81621" lon="-3.40684">
        <ele>38</ele>
        <time>2019-07-17T14:41:40Z</time>
      </trkpt>
      <trkpt lat="47.81626" lon="-3.40682">
        <ele>38</ele>
        <time>2019-07-17T14:41:41Z</time>
      </trkpt>
      <trkpt lat="47.81632" lon="-3.4068">
        <ele>38</ele>
        <time>2019-07-17T14:41:42Z</time>
      </trkpt>
      <trkpt lat="47.81638" lon="-3.40678">
        <ele>38</ele>
        <time>2019-07-17T14:41:43Z</time>
      </trkpt>
      <trkpt lat="47.81643" lon="-3.40676">
        <ele>38</ele>
        <time>2019-07-17T14:41:44Z</time>
      </trkpt>
      <trkpt lat="47.81648" lon="-3.40674">
        <ele>38</ele>
        <time>2019-07-17T14:41:45Z</time>
      </trkpt>
      <trkpt lat="47.81653" lon="-3.40673">
        <ele>39</ele>
        <time>2019-07-17T14:41:46Z</time>
      </trkpt>
      <trkpt lat="47.81658" lon="-3.40671">
        <ele>39</ele>
        <time>2019-07-17T14:41:47Z</time>
      </trkpt>
      <trkpt lat="47.81664" lon="-3.40669">
        <ele>39</ele>
        <time>2019-07-17T14:41:48Z</time>
      </trkpt>
      <trkpt lat="47.8167" lon="-3.40668">
        <ele>39</ele>
        <time>2019-07-17T14:41:49Z</time>
      </trkpt>
      <trkpt lat="47.81676" lon="-3.40667">
        <ele>39</ele>
        <time>2019-07-17T14:41:50Z</time>
      </trkpt>
      <trkpt lat="47.81683" lon="-3.40664">
        <ele>39</ele>
        <time>2019-07-17T14:41:51Z</time>
      </trkpt>
      <trkpt lat="47.8169" lon="-3.40663">
        <ele>39</ele>
        <time>2019-07-17T14:41:52Z</time>
      </trkpt>
      <trkpt lat="47.81696" lon="-3.40662">
        <ele>39</ele>
        <time>2019-07-17T14:41:53Z</time>
      </trkpt>
      <trkpt lat="47.81702" lon="-3.40661">
        <ele>39</ele>
        <time>2019-07-17T14:41:54Z</time>
      </trkpt>
      <trkpt lat="47.81709" lon="-3.4066">
        <ele>39</ele>
        <time>2019-07-17T14:41:55Z</time>
      </trkpt>
      <trkpt lat="47.81717" lon="-3.40661">
        <ele>39</ele>
        <time>2019-07-17T14:41:56Z</time>
      </trkpt>
      <trkpt lat="47.81724" lon="-3.40661">
        <ele>39</ele>
        <time>2019-07-17T14:41:57Z</time>
      </trkpt>
      <trkpt lat="47.8173" lon="-3.40661">
        <ele>39</ele>
        <time>2019-07-17T14:41:58Z</time>
      </trkpt>
      <trkpt lat="47.81737" lon="-3.40661">
        <ele>39</ele>
        <time>2019-07-17T14:41:59Z</time>
      </trkpt>
      <trkpt lat="47.81744" lon="-3.40662">
        <ele>39</ele>
        <time>2019-07-17T14:42:00Z</time>
      </trkpt>
      <trkpt lat="47.8175" lon="-3.40662">
        <ele>39</ele>
        <time>2019-07-17T14:42:01Z</time>
      </trkpt>
      <trkpt lat="47.81757" lon="-3.40663">
        <ele>39</ele>
        <time>2019-07-17T14:42:02Z</time>
      </trkpt>
      <trkpt lat="47.81764" lon="-3.40664">
        <ele>40</ele>
        <time>2019-07-17T14:42:03Z</time>
      </trkpt>
      <trkpt lat="47.81771" lon="-3.40664">
        <ele>40</ele>
        <time>2019-07-17T14:42:04Z</time>
      </trkpt>
      <trkpt lat="47.81778" lon="-3.40665">
        <ele>40</ele>
        <time>2019-07-17T14:42:05Z</time>
      </trkpt>
      <trkpt lat="47.81785" lon="-3.40665">
        <ele>40</ele>
        <time>2019-07-17T14:42:06Z</time>
      </trkpt>
      <trkpt lat="47.81791" lon="-3.40667">
        <ele>40</ele>
        <time>2019-07-17T14:42:07Z</time>
      </trkpt>
      <trkpt lat="47.81798" lon="-3.40669">
        <ele>40</ele>
        <time>2019-07-17T14:42:08Z</time>
      </trkpt>
      <trkpt lat="47.81806" lon="-3.40671">
        <ele>39</ele>
        <time>2019-07-17T14:42:09Z</time>
      </trkpt>
      <trkpt lat="47.81813" lon="-3.40673">
        <ele>39</ele>
        <time>2019-07-17T14:42:10Z</time>
      </trkpt>
      <trkpt lat="47.8182" lon="-3.40675">
        <ele>39</ele>
        <time>2019-07-17T14:42:11Z</time>
      </trkpt>
      <trkpt lat="47.81826" lon="-3.40678">
        <ele>39</ele>
        <time>2019-07-17T14:42:12Z</time>
      </trkpt>
      <trkpt lat="47.81833" lon="-3.40681">
        <ele>39</ele>
        <time>2019-07-17T14:42:13Z</time>
      </trkpt>
      <trkpt lat="47.81839" lon="-3.40685">
        <ele>39</ele>
        <time>2019-07-17T14:42:14Z</time>
      </trkpt>
      <trkpt lat="47.81845" lon="-3.40689">
        <ele>39</ele>
        <time>2019-07-17T14:42:15Z</time>
      </trkpt>
      <trkpt lat="47.8185" lon="-3.40693">
        <ele>39</ele>
        <time>2019-07-17T14:42:16Z</time>
      </trkpt>
      <trkpt lat="47.81854" lon="-3.40697">
        <ele>39</ele>
        <time>2019-07-17T14:42:17Z</time>
      </trkpt>
      <trkpt lat="47.81859" lon="-3.40701">
        <ele>39</ele>
        <time>2019-07-17T14:42:18Z</time>
      </trkpt>
      <trkpt lat="47.81865" lon="-3.40702">
        <ele>39</ele>
        <time>2019-07-17T14:42:19Z</time>
      </trkpt>
      <trkpt lat="47.81871" lon="-3.40703">
        <ele>39</ele>
        <time>2019-07-17T14:42:20Z</time>
      </trkpt>
      <trkpt lat="47.81876" lon="-3.40703">
        <ele>39</ele>
        <time>2019-07-17T14:42:21Z</time>
      </trkpt>
      <trkpt lat="47.81881" lon="-3.40704">
        <ele>38</ele>
        <time>2019-07-17T14:42:22Z</time>
      </trkpt>
      <trkpt lat="47.81885" lon="-3.40704">
        <ele>38</ele>
        <time>2019-07-17T14:42:23Z</time>
      </trkpt>
      <trkpt lat="47.8189" lon="-3.40705">
        <ele>38</ele>
        <time>2019-07-17T14:42:24Z</time>
      </trkpt>
      <trkpt lat="47.81895" lon="-3.40706">
        <ele>38</ele>
        <time>2019-07-17T14:42:25Z</time>
      </trkpt>
      <trkpt lat="47.819" lon="-3.40707">
        <ele>37</ele>
        <time>2019-07-17T14:42:26Z</time>
      </trkpt>
      <trkpt lat="47.81905" lon="-3.40708">
        <ele>37</ele>
        <time>2019-07-17T14:42:27Z</time>
      </trkpt>
      <trkpt lat="47.81911" lon="-3.40708">
        <ele>37</ele>
        <time>2019-07-17T14:42:28Z</time>
      </trkpt>
      <trkpt lat="47.81918" lon="-3.40709">
        <ele>37</ele>
        <time>2019-07-17T14:42:29Z</time>
      </trkpt>
      <trkpt lat="47.81924" lon="-3.4071">
        <ele>36</ele>
        <time>2019-07-17T14:42:30Z</time>
      </trkpt>
      <trkpt lat="47.81931" lon="-3.40711">
        <ele>36</ele>
        <time>2019-07-17T14:42:31Z</time>
      </trkpt>
      <trkpt lat="47.81937" lon="-3.40712">
        <ele>36</ele>
        <time>2019-07-17T14:42:32Z</time>
      </trkpt>
      <trkpt lat="47.81943" lon="-3.40714">
        <ele>36</ele>
        <time>2019-07-17T14:42:33Z</time>
      </trkpt>
      <trkpt lat="47.81949" lon="-3.40716">
        <ele>36</ele>
        <time>2019-07-17T14:42:34Z</time>
      </trkpt>
      <trkpt lat="47.81955" lon="-3.40719">
        <ele>35</ele>
        <time>2019-07-17T14:42:35Z</time>
      </trkpt>
      <trkpt lat="47.81961" lon="-3.40722">
        <ele>35</ele>
        <time>2019-07-17T14:42:36Z</time>
      </trkpt>
      <trkpt lat="47.81964" lon="-3.40724">
        <ele>35</ele>
        <time>2019-07-17T14:42:37Z</time>
      </trkpt>
      <trkpt lat="47.81967" lon="-3.40724">
        <ele>35</ele>
        <time>2019-07-17T14:42:38Z</time>
      </trkpt>
      <trkpt lat="47.81971" lon="-3.40724">
        <ele>35</ele>
        <time>2019-07-17T14:42:39Z</time>
      </trkpt>
      <trkpt lat="47.81974" lon="-3.40724">
        <ele>34</ele>
        <time>2019-07-17T14:42:40Z</time>
      </trkpt>
      <trkpt lat="47.81978" lon="-3.40725">
        <ele>34</ele>
        <time>2019-07-17T14:42:41Z</time>
      </trkpt>
      <trkpt lat="47.81983" lon="-3.40727">
        <ele>34</ele>
        <time>2019-07-17T14:42:42Z</time>
      </trkpt>
      <trkpt lat="47.81988" lon="-3.4073">
        <ele>34</ele>
        <time>2019-07-17T14:42:43Z</time>
      </trkpt>
      <trkpt lat="47.81994" lon="-3.40732">
        <ele>33</ele>
        <time>2019-07-17T14:42:44Z</time>
      </trkpt>
      <trkpt lat="47.81999" lon="-3.40734">
        <ele>33</ele>
        <time>2019-07-17T14:42:45Z</time>
      </trkpt>
      <trkpt lat="47.82005" lon="-3.40737">
        <ele>33</ele>
        <time>2019-07-17T14:42:46Z</time>
      </trkpt>
      <trkpt lat="47.8201" lon="-3.4074">
        <ele>33</ele>
        <time>2019-07-17T14:42:47Z</time>
      </trkpt>
      <trkpt lat="47.82016" lon="-3.40744">
        <ele>33</ele>
        <time>2019-07-17T14:42:48Z</time>
      </trkpt>
      <trkpt lat="47.82023" lon="-3.40747">
        <ele>32</ele>
        <time>2019-07-17T14:42:49Z</time>
      </trkpt>
      <trkpt lat="47.82029" lon="-3.40752">
        <ele>32</ele>
        <time>2019-07-17T14:42:50Z</time>
      </trkpt>
      <trkpt lat="47.82036" lon="-3.40756">
        <ele>32</ele>
        <time>2019-07-17T14:42:51Z</time>
      </trkpt>
      <trkpt lat="47.82042" lon="-3.4076">
        <ele>32</ele>
        <time>2019-07-17T14:42:52Z</time>
      </trkpt>
      <trkpt lat="47.82048" lon="-3.40764">
        <ele>31</ele>
        <time>2019-07-17T14:42:53Z</time>
      </trkpt>
      <trkpt lat="47.82055" lon="-3.40769">
        <ele>31</ele>
        <time>2019-07-17T14:42:54Z</time>
      </trkpt>
      <trkpt lat="47.82061" lon="-3.40773">
        <ele>31</ele>
        <time>2019-07-17T14:42:55Z</time>
      </trkpt>
      <trkpt lat="47.82067" lon="-3.40778">
        <ele>30</ele>
        <time>2019-07-17T14:42:56Z</time>
      </trkpt>
      <trkpt lat="47.82073" lon="-3.40783">
        <ele>30</ele>
        <time>2019-07-17T14:42:57Z</time>
      </trkpt>
      <trkpt lat="47.82079" lon="-3.40787">
        <ele>30</ele>
        <time>2019-07-17T14:42:58Z</time>
      </trkpt>
      <trkpt lat="47.82085" lon="-3.40792">
        <ele>29</ele>
        <time>2019-07-17T14:42:59Z</time>
      </trkpt>
      <trkpt lat="47.82091" lon="-3.40797">
        <ele>29</ele>
        <time>2019-07-17T14:43:00Z</time>
      </trkpt>
      <trkpt lat="47.82096" lon="-3.40803">
        <ele>29</ele>
        <time>2019-07-17T14:43:01Z</time>
      </trkpt>
      <trkpt lat="47.82102" lon="-3.40809">
        <ele>29</ele>
        <time>2019-07-17T14:43:02Z</time>
      </trkpt>
      <trkpt lat="47.82108" lon="-3.40814">
        <ele>28</ele>
        <time>2019-07-17T14:43:03Z</time>
      </trkpt>
      <trkpt lat="47.82114" lon="-3.40818">
        <ele>28</ele>
        <time>2019-07-17T14:43:04Z</time>
      </trkpt>
      <trkpt lat="47.8212" lon="-3.40823">
        <ele>28</ele>
        <time>2019-07-17T14:43:05Z</time>
      </trkpt>
      <trkpt lat="47.82126" lon="-3.40829">
        <ele>28</ele>
        <time>2019-07-17T14:43:06Z</time>
      </trkpt>
      <trkpt lat="47.82132" lon="-3.40835">
        <ele>28</ele>
        <time>2019-07-17T14:43:07Z</time>
      </trkpt>
      <trkpt lat="47.82138" lon="-3.4084">
        <ele>27</ele>
        <time>2019-07-17T14:43:08Z</time>
      </trkpt>
      <trkpt lat="47.82144" lon="-3.40846">
        <ele>27</ele>
        <time>2019-07-17T14:43:09Z</time>
      </trkpt>
      <trkpt lat="47.82149" lon="-3.40852">
        <ele>27</ele>
        <time>2019-07-17T14:43:10Z</time>
      </trkpt>
      <trkpt lat="47.82154" lon="-3.40857">
        <ele>26</ele>
        <time>2019-07-17T14:43:11Z</time>
      </trkpt>
      <trkpt lat="47.8216" lon="-3.40862">
        <ele>26</ele>
        <time>2019-07-17T14:43:12Z</time>
      </trkpt>
      <trkpt lat="47.82165" lon="-3.40867">
        <ele>26</ele>
        <time>2019-07-17T14:43:13Z</time>
      </trkpt>
      <trkpt lat="47.8217" lon="-3.40872">
        <ele>25</ele>
        <time>2019-07-17T14:43:14Z</time>
      </trkpt>
      <trkpt lat="47.82175" lon="-3.40877">
        <ele>25</ele>
        <time>2019-07-17T14:43:15Z</time>
      </trkpt>
      <trkpt lat="47.8218" lon="-3.40882">
        <ele>25</ele>
        <time>2019-07-17T14:43:16Z</time>
      </trkpt>
      <trkpt lat="47.82185" lon="-3.40888">
        <ele>25</ele>
        <time>2019-07-17T14:43:17Z</time>
      </trkpt>
      <trkpt lat="47.8219" lon="-3.40894">
        <ele>24</ele>
        <time>2019-07-17T14:43:18Z</time>
      </trkpt>
      <trkpt lat="47.82196" lon="-3.40901">
        <ele>24</ele>
        <time>2019-07-17T14:43:19Z</time>
      </trkpt>
      <trkpt lat="47.82201" lon="-3.40908">
        <ele>24</ele>
        <time>2019-07-17T14:43:20Z</time>
      </trkpt>
      <trkpt lat="47.82206" lon="-3.40914">
        <ele>24</ele>
        <time>2019-07-17T14:43:21Z</time>
      </trkpt>
      <trkpt lat="47.82211" lon="-3.4092">
        <ele>24</ele>
        <time>2019-07-17T14:43:22Z</time>
      </trkpt>
      <trkpt lat="47.82217" lon="-3.40926">
        <ele>24</ele>
        <time>2019-07-17T14:43:23Z</time>
      </trkpt>
      <trkpt lat="47.82222" lon="-3.40932">
        <ele>24</ele>
        <time>2019-07-17T14:43:24Z</time>
      </trkpt>
      <trkpt lat="47.82227" lon="-3.40938">
        <ele>24</ele>
        <time>2019-07-17T14:43:25Z</time>
      </trkpt>
      <trkpt lat="47.82233" lon="-3.40944">
        <ele>24</ele>
        <time>2019-07-17T14:43:26Z</time>
      </trkpt>
      <trkpt lat="47.82238" lon="-3.4095">
        <ele>24</ele>
        <time>2019-07-17T14:43:27Z</time>
      </trkpt>
      <trkpt lat="47.82244" lon="-3.40956">
        <ele>24</ele>
        <time>2019-07-17T14:43:28Z</time>
      </trkpt>
      <trkpt lat="47.8225" lon="-3.40961">
        <ele>24</ele>
        <time>2019-07-17T14:43:29Z</time>
      </trkpt>
      <trkpt lat="47.82256" lon="-3.40967">
        <ele>24</ele>
        <time>2019-07-17T14:43:30Z</time>
      </trkpt>
      <trkpt lat="47.82262" lon="-3.40972">
        <ele>24</ele>
        <time>2019-07-17T14:43:31Z</time>
      </trkpt>
      <trkpt lat="47.82267" lon="-3.40978">
        <ele>24</ele>
        <time>2019-07-17T14:43:32Z</time>
      </trkpt>
      <trkpt lat="47.82273" lon="-3.40984">
        <ele>24</ele>
        <time>2019-07-17T14:43:33Z</time>
      </trkpt>
      <trkpt lat="47.82279" lon="-3.40991">
        <ele>24</ele>
        <time>2019-07-17T14:43:34Z</time>
      </trkpt>
      <trkpt lat="47.82284" lon="-3.40998">
        <ele>24</ele>
        <time>2019-07-17T14:43:35Z</time>
      </trkpt>
      <trkpt lat="47.82289" lon="-3.41004">
        <ele>23</ele>
        <time>2019-07-17T14:43:36Z</time>
      </trkpt>
      <trkpt lat="47.82295" lon="-3.4101">
        <ele>23</ele>
        <time>2019-07-17T14:43:37Z</time>
      </trkpt>
      <trkpt lat="47.82301" lon="-3.41017">
        <ele>23</ele>
        <time>2019-07-17T14:43:38Z</time>
      </trkpt>
      <trkpt lat="47.82306" lon="-3.41022">
        <ele>23</ele>
        <time>2019-07-17T14:43:39Z</time>
      </trkpt>
      <trkpt lat="47.8231" lon="-3.41026">
        <ele>23</ele>
        <time>2019-07-17T14:43:40Z</time>
      </trkpt>
      <trkpt lat="47.82315" lon="-3.4103">
        <ele>23</ele>
        <time>2019-07-17T14:43:41Z</time>
      </trkpt>
      <trkpt lat="47.82321" lon="-3.41035">
        <ele>23</ele>
        <time>2019-07-17T14:43:42Z</time>
      </trkpt>
      <trkpt lat="47.82326" lon="-3.41039">
        <ele>23</ele>
        <time>2019-07-17T14:43:43Z</time>
      </trkpt>
      <trkpt lat="47.82331" lon="-3.41043">
        <ele>23</ele>
        <time>2019-07-17T14:43:44Z</time>
      </trkpt>
      <trkpt lat="47.82336" lon="-3.41045">
        <ele>23</ele>
        <time>2019-07-17T14:43:45Z</time>
      </trkpt>
      <trkpt lat="47.82342" lon="-3.41045">
        <ele>23</ele>
        <time>2019-07-17T14:43:46Z</time>
      </trkpt>
      <trkpt lat="47.82347" lon="-3.41045">
        <ele>23</ele>
        <time>2019-07-17T14:43:47Z</time>
      </trkpt>
      <trkpt lat="47.82353" lon="-3.41046">
        <ele>23</ele>
        <time>2019-07-17T14:43:48Z</time>
      </trkpt>
      <trkpt lat="47.8236" lon="-3.41047">
        <ele>24</ele>
        <time>2019-07-17T14:43:49Z</time>
      </trkpt>
      <trkpt lat="47.82366" lon="-3.41047">
        <ele>24</ele>
        <time>2019-07-17T14:43:50Z</time>
      </trkpt>
      <trkpt lat="47.82372" lon="-3.41046">
        <ele>24</ele>
        <time>2019-07-17T14:43:51Z</time>
      </trkpt>
      <trkpt lat="47.82378" lon="-3.41045">
        <ele>24</ele>
        <time>2019-07-17T14:43:52Z</time>
      </trkpt>
      <trkpt lat="47.82383" lon="-3.41044">
        <ele>24</ele>
        <time>2019-07-17T14:43:53Z</time>
      </trkpt>
      <trkpt lat="47.82388" lon="-3.41041">
        <ele>24</ele>
        <time>2019-07-17T14:43:54Z</time>
      </trkpt>
      <trkpt lat="47.82394" lon="-3.41038">
        <ele>24</ele>
        <time>2019-07-17T14:43:55Z</time>
      </trkpt>
      <trkpt lat="47.82399" lon="-3.41036">
        <ele>24</ele>
        <time>2019-07-17T14:43:56Z</time>
      </trkpt>
      <trkpt lat="47.82405" lon="-3.41034">
        <ele>24</ele>
        <time>2019-07-17T14:43:57Z</time>
      </trkpt>
      <trkpt lat="47.8241" lon="-3.41031">
        <ele>24</ele>
        <time>2019-07-17T14:43:58Z</time>
      </trkpt>
      <trkpt lat="47.82416" lon="-3.41029">
        <ele>24</ele>
        <time>2019-07-17T14:43:59Z</time>
      </trkpt>
      <trkpt lat="47.82422" lon="-3.41026">
        <ele>24</ele>
        <time>2019-07-17T14:44:00Z</time>
      </trkpt>
      <trkpt lat="47.82428" lon="-3.41023">
        <ele>23</ele>
        <time>2019-07-17T14:44:01Z</time>
      </trkpt>
      <trkpt lat="47.82434" lon="-3.4102">
        <ele>23</ele>
        <time>2019-07-17T14:44:02Z</time>
      </trkpt>
      <trkpt lat="47.8244" lon="-3.41017">
        <ele>23</ele>
        <time>2019-07-17T14:44:03Z</time>
      </trkpt>
      <trkpt lat="47.82446" lon="-3.41014">
        <ele>23</ele>
        <time>2019-07-17T14:44:04Z</time>
      </trkpt>
      <trkpt lat="47.82451" lon="-3.4101">
        <ele>22</ele>
        <time>2019-07-17T14:44:05Z</time>
      </trkpt>
      <trkpt lat="47.82457" lon="-3.41007">
        <ele>22</ele>
        <time>2019-07-17T14:44:06Z</time>
      </trkpt>
      <trkpt lat="47.82463" lon="-3.41004">
        <ele>22</ele>
        <time>2019-07-17T14:44:07Z</time>
      </trkpt>
      <trkpt lat="47.82468" lon="-3.41002">
        <ele>22</ele>
        <time>2019-07-17T14:44:08Z</time>
      </trkpt>
      <trkpt lat="47.82474" lon="-3.40999">
        <ele>22</ele>
        <time>2019-07-17T14:44:09Z</time>
      </trkpt>
      <trkpt lat="47.82479" lon="-3.40996">
        <ele>22</ele>
        <time>2019-07-17T14:44:10Z</time>
      </trkpt>
      <trkpt lat="47.82483" lon="-3.40994">
        <ele>22</ele>
        <time>2019-07-17T14:44:11Z</time>
      </trkpt>
      <trkpt lat="47.82488" lon="-3.4099">
        <ele>22</ele>
        <time>2019-07-17T14:44:12Z</time>
      </trkpt>
      <trkpt lat="47.8249" lon="-3.40988">
        <ele>22</ele>
        <time>2019-07-17T14:44:13Z</time>
      </trkpt>
      <trkpt lat="47.82493" lon="-3.40987">
        <ele>22</ele>
        <time>2019-07-17T14:44:14Z</time>
      </trkpt>
      <trkpt lat="47.82496" lon="-3.40985">
        <ele>22</ele>
        <time>2019-07-17T14:44:15Z</time>
      </trkpt>
      <trkpt lat="47.82499" lon="-3.40983">
        <ele>21</ele>
        <time>2019-07-17T14:44:16Z</time>
      </trkpt>
      <trkpt lat="47.82502" lon="-3.40982">
        <ele>21</ele>
        <time>2019-07-17T14:44:17Z</time>
      </trkpt>
      <trkpt lat="47.82505" lon="-3.4098">
        <ele>21</ele>
        <time>2019-07-17T14:44:18Z</time>
      </trkpt>
      <trkpt lat="47.82508" lon="-3.40979">
        <ele>21</ele>
        <time>2019-07-17T14:44:19Z</time>
      </trkpt>
      <trkpt lat="47.82511" lon="-3.40976">
        <ele>21</ele>
        <time>2019-07-17T14:44:20Z</time>
      </trkpt>
      <trkpt lat="47.82514" lon="-3.40974">
        <ele>21</ele>
        <time>2019-07-17T14:44:21Z</time>
      </trkpt>
      <trkpt lat="47.82518" lon="-3.40972">
        <ele>21</ele>
        <time>2019-07-17T14:44:22Z</time>
      </trkpt>
      <trkpt lat="47.82523" lon="-3.4097">
        <ele>21</ele>
        <time>2019-07-17T14:44:23Z</time>
      </trkpt>
      <trkpt lat="47.82528" lon="-3.40968">
        <ele>20</ele>
        <time>2019-07-17T14:44:24Z</time>
      </trkpt>
      <trkpt lat="47.82534" lon="-3.40965">
        <ele>20</ele>
        <time>2019-07-17T14:44:25Z</time>
      </trkpt>
      <trkpt lat="47.82539" lon="-3.40963">
        <ele>20</ele>
        <time>2019-07-17T14:44:26Z</time>
      </trkpt>
      <trkpt lat="47.82545" lon="-3.4096">
        <ele>20</ele>
        <time>2019-07-17T14:44:27Z</time>
      </trkpt>
      <trkpt lat="47.8255" lon="-3.40957">
        <ele>20</ele>
        <time>2019-07-17T14:44:28Z</time>
      </trkpt>
      <trkpt lat="47.82555" lon="-3.40955">
        <ele>20</ele>
        <time>2019-07-17T14:44:29Z</time>
      </trkpt>
      <trkpt lat="47.8256" lon="-3.40953">
        <ele>20</ele>
        <time>2019-07-17T14:44:30Z</time>
      </trkpt>
      <trkpt lat="47.82565" lon="-3.40949">
        <ele>20</ele>
        <time>2019-07-17T14:44:31Z</time>
      </trkpt>
      <trkpt lat="47.82571" lon="-3.40946">
        <ele>20</ele>
        <time>2019-07-17T14:44:32Z</time>
      </trkpt>
      <trkpt lat="47.82576" lon="-3.40944">
        <ele>21</ele>
        <time>2019-07-17T14:44:33Z</time>
      </trkpt>
      <trkpt lat="47.82582" lon="-3.40942">
        <ele>21</ele>
        <time>2019-07-17T14:44:34Z</time>
      </trkpt>
      <trkpt lat="47.82588" lon="-3.4094">
        <ele>21</ele>
        <time>2019-07-17T14:44:35Z</time>
      </trkpt>
      <trkpt lat="47.82593" lon="-3.40937">
        <ele>21</ele>
        <time>2019-07-17T14:44:36Z</time>
      </trkpt>
      <trkpt lat="47.82598" lon="-3.40935">
        <ele>21</ele>
        <time>2019-07-17T14:44:37Z</time>
      </trkpt>
      <trkpt lat="47.82604" lon="-3.40933">
        <ele>22</ele>
        <time>2019-07-17T14:44:38Z</time>
      </trkpt>
      <trkpt lat="47.8261" lon="-3.4093">
        <ele>22</ele>
        <time>2019-07-17T14:44:39Z</time>
      </trkpt>
      <trkpt lat="47.82615" lon="-3.40928">
        <ele>22</ele>
        <time>2019-07-17T14:44:40Z</time>
      </trkpt>
      <trkpt lat="47.8262" lon="-3.40925">
        <ele>22</ele>
        <time>2019-07-17T14:44:41Z</time>
      </trkpt>
      <trkpt lat="47.82626" lon="-3.40923">
        <ele>23</ele>
        <time>2019-07-17T14:44:42Z</time>
      </trkpt>
      <trkpt lat="47.8263" lon="-3.4092">
        <ele>23</ele>
        <time>2019-07-17T14:44:43Z</time>
      </trkpt>
      <trkpt lat="47.82636" lon="-3.40918">
        <ele>23</ele>
        <time>2019-07-17T14:44:44Z</time>
      </trkpt>
      <trkpt lat="47.82642" lon="-3.40915">
        <ele>24</ele>
        <time>2019-07-17T14:44:45Z</time>
      </trkpt>
      <trkpt lat="47.82648" lon="-3.40913">
        <ele>24</ele>
        <time>2019-07-17T14:44:46Z</time>
      </trkpt>
      <trkpt lat="47.82653" lon="-3.40911">
        <ele>24</ele>
        <time>2019-07-17T14:44:47Z</time>
      </trkpt>
      <trkpt lat="47.82658" lon="-3.40909">
        <ele>24</ele>
        <time>2019-07-17T14:44:48Z</time>
      </trkpt>
      <trkpt lat="47.82663" lon="-3.40907">
        <ele>25</ele>
        <time>2019-07-17T14:44:49Z</time>
      </trkpt>
      <trkpt lat="47.82669" lon="-3.40905">
        <ele>25</ele>
        <time>2019-07-17T14:44:50Z</time>
      </trkpt>
      <trkpt lat="47.82674" lon="-3.40903">
        <ele>25</ele>
        <time>2019-07-17T14:44:51Z</time>
      </trkpt>
      <trkpt lat="47.82679" lon="-3.40901">
        <ele>25</ele>
        <time>2019-07-17T14:44:52Z</time>
      </trkpt>
      <trkpt lat="47.82685" lon="-3.40898">
        <ele>26</ele>
        <time>2019-07-17T14:44:53Z</time>
      </trkpt>
      <trkpt lat="47.8269" lon="-3.40896">
        <ele>26</ele>
        <time>2019-07-17T14:44:54Z</time>
      </trkpt>
      <trkpt lat="47.82697" lon="-3.40893">
        <ele>26</ele>
        <time>2019-07-17T14:44:55Z</time>
      </trkpt>
      <trkpt lat="47.82703" lon="-3.4089">
        <ele>26</ele>
        <time>2019-07-17T14:44:56Z</time>
      </trkpt>
      <trkpt lat="47.82708" lon="-3.40887">
        <ele>26</ele>
        <time>2019-07-17T14:44:57Z</time>
      </trkpt>
      <trkpt lat="47.82713" lon="-3.40885">
        <ele>26</ele>
        <time>2019-07-17T14:44:58Z</time>
      </trkpt>
      <trkpt lat="47.82719" lon="-3.40882">
        <ele>26</ele>
        <time>2019-07-17T14:44:59Z</time>
      </trkpt>
      <trkpt lat="47.82725" lon="-3.4088">
        <ele>26</ele>
        <time>2019-07-17T14:45:00Z</time>
      </trkpt>
      <trkpt lat="47.8273" lon="-3.40877">
        <ele>26</ele>
        <time>2019-07-17T14:45:01Z</time>
      </trkpt>
      <trkpt lat="47.82735" lon="-3.40874">
        <ele>27</ele>
        <time>2019-07-17T14:45:02Z</time>
      </trkpt>
      <trkpt lat="47.82741" lon="-3.40872">
        <ele>27</ele>
        <time>2019-07-17T14:45:03Z</time>
      </trkpt>
      <trkpt lat="47.82746" lon="-3.40869">
        <ele>27</ele>
        <time>2019-07-17T14:45:04Z</time>
      </trkpt>
      <trkpt lat="47.82751" lon="-3.40867">
        <ele>27</ele>
        <time>2019-07-17T14:45:05Z</time>
      </trkpt>
      <trkpt lat="47.82756" lon="-3.40864">
        <ele>27</ele>
        <time>2019-07-17T14:45:06Z</time>
      </trkpt>
      <trkpt lat="47.82762" lon="-3.40862">
        <ele>27</ele>
        <time>2019-07-17T14:45:07Z</time>
      </trkpt>
      <trkpt lat="47.82767" lon="-3.40859">
        <ele>27</ele>
        <time>2019-07-17T14:45:08Z</time>
      </trkpt>
      <trkpt lat="47.82772" lon="-3.40856">
        <ele>27</ele>
        <time>2019-07-17T14:45:09Z</time>
      </trkpt>
      <trkpt lat="47.82778" lon="-3.40853">
        <ele>27</ele>
        <time>2019-07-17T14:45:10Z</time>
      </trkpt>
      <trkpt lat="47.82783" lon="-3.4085">
        <ele>27</ele>
        <time>2019-07-17T14:45:11Z</time>
      </trkpt>
      <trkpt lat="47.82789" lon="-3.40847">
        <ele>27</ele>
        <time>2019-07-17T14:45:12Z</time>
      </trkpt>
      <trkpt lat="47.82794" lon="-3.40843">
        <ele>27</ele>
        <time>2019-07-17T14:45:13Z</time>
      </trkpt>
      <trkpt lat="47.828" lon="-3.4084">
        <ele>27</ele>
        <time>2019-07-17T14:45:14Z</time>
      </trkpt>
      <trkpt lat="47.82805" lon="-3.40835">
        <ele>27</ele>
        <time>2019-07-17T14:45:15Z</time>
      </trkpt>
      <trkpt lat="47.82809" lon="-3.40831">
        <ele>27</ele>
        <time>2019-07-17T14:45:16Z</time>
      </trkpt>
      <trkpt lat="47.82814" lon="-3.40826">
        <ele>27</ele>
        <time>2019-07-17T14:45:17Z</time>
      </trkpt>
      <trkpt lat="47.82819" lon="-3.40821">
        <ele>28</ele>
        <time>2019-07-17T14:45:18Z</time>
      </trkpt>
      <trkpt lat="47.82823" lon="-3.40815">
        <ele>28</ele>
        <time>2019-07-17T14:45:19Z</time>
      </trkpt>
      <trkpt lat="47.82827" lon="-3.40808">
        <ele>28</ele>
        <time>2019-07-17T14:45:20Z</time>
      </trkpt>
      <trkpt lat="47.82832" lon="-3.40803">
        <ele>28</ele>
        <time>2019-07-17T14:45:21Z</time>
      </trkpt>
      <trkpt lat="47.82836" lon="-3.40796">
        <ele>28</ele>
        <time>2019-07-17T14:45:22Z</time>
      </trkpt>
      <trkpt lat="47.8284" lon="-3.40791">
        <ele>29</ele>
        <time>2019-07-17T14:45:23Z</time>
      </trkpt>
      <trkpt lat="47.82844" lon="-3.40784">
        <ele>29</ele>
        <time>2019-07-17T14:45:24Z</time>
      </trkpt>
      <trkpt lat="47.82848" lon="-3.40777">
        <ele>29</ele>
        <time>2019-07-17T14:45:25Z</time>
      </trkpt>
      <trkpt lat="47.82852" lon="-3.40771">
        <ele>29</ele>
        <time>2019-07-17T14:45:26Z</time>
      </trkpt>
      <trkpt lat="47.82856" lon="-3.40764">
        <ele>29</ele>
        <time>2019-07-17T14:45:27Z</time>
      </trkpt>
      <trkpt lat="47.82861" lon="-3.40758">
        <ele>29</ele>
        <time>2019-07-17T14:45:28Z</time>
      </trkpt>
      <trkpt lat="47.82865" lon="-3.40751">
        <ele>29</ele>
        <time>2019-07-17T14:45:29Z</time>
      </trkpt>
      <trkpt lat="47.8287" lon="-3.40745">
        <ele>30</ele>
        <time>2019-07-17T14:45:30Z</time>
      </trkpt>
      <trkpt lat="47.82875" lon="-3.40737">
        <ele>30</ele>
        <time>2019-07-17T14:45:31Z</time>
      </trkpt>
      <trkpt lat="47.8288" lon="-3.4073">
        <ele>30</ele>
        <time>2019-07-17T14:45:32Z</time>
      </trkpt>
      <trkpt lat="47.82884" lon="-3.40723">
        <ele>30</ele>
        <time>2019-07-17T14:45:33Z</time>
      </trkpt>
      <trkpt lat="47.8289" lon="-3.40715">
        <ele>30</ele>
        <time>2019-07-17T14:45:34Z</time>
      </trkpt>
      <trkpt lat="47.82895" lon="-3.40708">
        <ele>30</ele>
        <time>2019-07-17T14:45:35Z</time>
      </trkpt>
      <trkpt lat="47.829" lon="-3.40701">
        <ele>30</ele>
        <time>2019-07-17T14:45:36Z</time>
      </trkpt>
      <trkpt lat="47.82904" lon="-3.40694">
        <ele>30</ele>
        <time>2019-07-17T14:45:37Z</time>
      </trkpt>
      <trkpt lat="47.82909" lon="-3.40688">
        <ele>30</ele>
        <time>2019-07-17T14:45:38Z</time>
      </trkpt>
      <trkpt lat="47.82913" lon="-3.40681">
        <ele>30</ele>
        <time>2019-07-17T14:45:39Z</time>
      </trkpt>
      <trkpt lat="47.82918" lon="-3.40674">
        <ele>31</ele>
        <time>2019-07-17T14:45:40Z</time>
      </trkpt>
      <trkpt lat="47.82923" lon="-3.40667">
        <ele>31</ele>
        <time>2019-07-17T14:45:41Z</time>
      </trkpt>
      <trkpt lat="47.82927" lon="-3.40659">
        <ele>31</ele>
        <time>2019-07-17T14:45:42Z</time>
      </trkpt>
      <trkpt lat="47.82932" lon="-3.40652">
        <ele>31</ele>
        <time>2019-07-17T14:45:43Z</time>
      </trkpt>
      <trkpt lat="47.82936" lon="-3.40645">
        <ele>31</ele>
        <time>2019-07-17T14:45:44Z</time>
      </trkpt>
      <trkpt lat="47.82941" lon="-3.40638">
        <ele>31</ele>
        <time>2019-07-17T14:45:45Z</time>
      </trkpt>
      <trkpt lat="47.82946" lon="-3.40631">
        <ele>31</ele>
        <time>2019-07-17T14:45:46Z</time>
      </trkpt>
      <trkpt lat="47.82951" lon="-3.40624">
        <ele>31</ele>
        <time>2019-07-17T14:45:47Z</time>
      </trkpt>
      <trkpt lat="47.82956" lon="-3.40618">
        <ele>31</ele>
        <time>2019-07-17T14:45:48Z</time>
      </trkpt>
      <trkpt lat="47.82961" lon="-3.40611">
        <ele>31</ele>
        <time>2019-07-17T14:45:49Z</time>
      </trkpt>
      <trkpt lat="47.82966" lon="-3.40604">
        <ele>31</ele>
        <time>2019-07-17T14:45:50Z</time>
      </trkpt>
      <trkpt lat="47.8297" lon="-3.40598">
        <ele>31</ele>
        <time>2019-07-17T14:45:51Z</time>
      </trkpt>
      <trkpt lat="47.82975" lon="-3.40591">
        <ele>32</ele>
        <time>2019-07-17T14:45:52Z</time>
      </trkpt>
      <trkpt lat="47.8298" lon="-3.40585">
        <ele>32</ele>
        <time>2019-07-17T14:45:53Z</time>
      </trkpt>
      <trkpt lat="47.82984" lon="-3.40578">
        <ele>32</ele>
        <time>2019-07-17T14:45:54Z</time>
      </trkpt>
      <trkpt lat="47.82989" lon="-3.40572">
        <ele>32</ele>
        <time>2019-07-17T14:45:55Z</time>
      </trkpt>
      <trkpt lat="47.82994" lon="-3.40566">
        <ele>32</ele>
        <time>2019-07-17T14:45:56Z</time>
      </trkpt>
      <trkpt lat="47.82998" lon="-3.40559">
        <ele>32</ele>
        <time>2019-07-17T14:45:57Z</time>
      </trkpt>
      <trkpt lat="47.83002" lon="-3.40553">
        <ele>32</ele>
        <time>2019-07-17T14:45:58Z</time>
      </trkpt>
      <trkpt lat="47.83006" lon="-3.40546">
        <ele>32</ele>
        <time>2019-07-17T14:45:59Z</time>
      </trkpt>
      <trkpt lat="47.8301" lon="-3.4054">
        <ele>32</ele>
        <time>2019-07-17T14:46:00Z</time>
      </trkpt>
      <trkpt lat="47.83014" lon="-3.40533">
        <ele>33</ele>
        <time>2019-07-17T14:46:01Z</time>
      </trkpt>
      <trkpt lat="47.83019" lon="-3.40527">
        <ele>33</ele>
        <time>2019-07-17T14:46:02Z</time>
      </trkpt>
      <trkpt lat="47.83023" lon="-3.4052">
        <ele>33</ele>
        <time>2019-07-17T14:46:03Z</time>
      </trkpt>
      <trkpt lat="47.83027" lon="-3.40514">
        <ele>33</ele>
        <time>2019-07-17T14:46:04Z</time>
      </trkpt>
      <trkpt lat="47.83031" lon="-3.40508">
        <ele>33</ele>
        <time>2019-07-17T14:46:05Z</time>
      </trkpt>
      <trkpt lat="47.83035" lon="-3.40501">
        <ele>33</ele>
        <time>2019-07-17T14:46:06Z</time>
      </trkpt>
      <trkpt lat="47.8304" lon="-3.40495">
        <ele>33</ele>
        <time>2019-07-17T14:46:07Z</time>
      </trkpt>
      <trkpt lat="47.83044" lon="-3.40489">
        <ele>33</ele>
        <time>2019-07-17T14:46:08Z</time>
      </trkpt>
      <trkpt lat="47.83047" lon="-3.40483">
        <ele>33</ele>
        <time>2019-07-17T14:46:09Z</time>
      </trkpt>
      <trkpt lat="47.8305" lon="-3.40478">
        <ele>34</ele>
        <time>2019-07-17T14:46:10Z</time>
      </trkpt>
      <trkpt lat="47.83054" lon="-3.40472">
        <ele>34</ele>
        <time>2019-07-17T14:46:11Z</time>
      </trkpt>
      <trkpt lat="47.83057" lon="-3.40466">
        <ele>34</ele>
        <time>2019-07-17T14:46:12Z</time>
      </trkpt>
      <trkpt lat="47.83061" lon="-3.40461">
        <ele>34</ele>
        <time>2019-07-17T14:46:13Z</time>
      </trkpt>
      <trkpt lat="47.83065" lon="-3.40455">
        <ele>34</ele>
        <time>2019-07-17T14:46:14Z</time>
      </trkpt>
      <trkpt lat="47.83068" lon="-3.40451">
        <ele>34</ele>
        <time>2019-07-17T14:46:15Z</time>
      </trkpt>
      <trkpt lat="47.83071" lon="-3.40447">
        <ele>34</ele>
        <time>2019-07-17T14:46:16Z</time>
      </trkpt>
      <trkpt lat="47.83073" lon="-3.40442">
        <ele>34</ele>
        <time>2019-07-17T14:46:17Z</time>
      </trkpt>
      <trkpt lat="47.83076" lon="-3.40438">
        <ele>34</ele>
        <time>2019-07-17T14:46:18Z</time>
      </trkpt>
      <trkpt lat="47.83078" lon="-3.40436">
        <ele>34</ele>
        <time>2019-07-17T14:46:19Z</time>
      </trkpt>
      <trkpt lat="47.83081" lon="-3.40434">
        <ele>34</ele>
        <time>2019-07-17T14:46:20Z</time>
      </trkpt>
      <trkpt lat="47.83085" lon="-3.40432">
        <ele>34</ele>
        <time>2019-07-17T14:46:21Z</time>
      </trkpt>
      <trkpt lat="47.83089" lon="-3.40429">
        <ele>34</ele>
        <time>2019-07-17T14:46:22Z</time>
      </trkpt>
      <trkpt lat="47.83093" lon="-3.40426">
        <ele>34</ele>
        <time>2019-07-17T14:46:23Z</time>
      </trkpt>
      <trkpt lat="47.83097" lon="-3.40423">
        <ele>34</ele>
        <time>2019-07-17T14:46:24Z</time>
      </trkpt>
      <trkpt lat="47.83101" lon="-3.4042">
        <ele>33</ele>
        <time>2019-07-17T14:46:25Z</time>
      </trkpt>
      <trkpt lat="47.83106" lon="-3.40417">
        <ele>33</ele>
        <time>2019-07-17T14:46:26Z</time>
      </trkpt>
      <trkpt lat="47.8311" lon="-3.40414">
        <ele>33</ele>
        <time>2019-07-17T14:46:27Z</time>
      </trkpt>
      <trkpt lat="47.83115" lon="-3.40412">
        <ele>33</ele>
        <time>2019-07-17T14:46:28Z</time>
      </trkpt>
      <trkpt lat="47.8312" lon="-3.4041">
        <ele>33</ele>
        <time>2019-07-17T14:46:29Z</time>
      </trkpt>
      <trkpt lat="47.83125" lon="-3.40408">
        <ele>33</ele>
        <time>2019-07-17T14:46:30Z</time>
      </trkpt>
      <trkpt lat="47.83129" lon="-3.40405">
        <ele>33</ele>
        <time>2019-07-17T14:46:31Z</time>
      </trkpt>
      <trkpt lat="47.83134" lon="-3.40403">
        <ele>33</ele>
        <time>2019-07-17T14:46:32Z</time>
      </trkpt>
      <trkpt lat="47.83139" lon="-3.40401">
        <ele>33</ele>
        <time>2019-07-17T14:46:33Z</time>
      </trkpt>
      <trkpt lat="47.83144" lon="-3.40401">
        <ele>33</ele>
        <time>2019-07-17T14:46:34Z</time>
      </trkpt>
      <trkpt lat="47.83149" lon="-3.404">
        <ele>33</ele>
        <time>2019-07-17T14:46:35Z</time>
      </trkpt>
      <trkpt lat="47.83155" lon="-3.40399">
        <ele>33</ele>
        <time>2019-07-17T14:46:36Z</time>
      </trkpt>
      <trkpt lat="47.8316" lon="-3.40399">
        <ele>33</ele>
        <time>2019-07-17T14:46:37Z</time>
      </trkpt>
      <trkpt lat="47.83165" lon="-3.40398">
        <ele>33</ele>
        <time>2019-07-17T14:46:38Z</time>
      </trkpt>
      <trkpt lat="47.83171" lon="-3.40398">
        <ele>33</ele>
        <time>2019-07-17T14:46:39Z</time>
      </trkpt>
      <trkpt lat="47.83175" lon="-3.40397">
        <ele>33</ele>
        <time>2019-07-17T14:46:40Z</time>
      </trkpt>
      <trkpt lat="47.8318" lon="-3.40396">
        <ele>33</ele>
        <time>2019-07-17T14:46:41Z</time>
      </trkpt>
      <trkpt lat="47.83184" lon="-3.40395">
        <ele>34</ele>
        <time>2019-07-17T14:46:42Z</time>
      </trkpt>
      <trkpt lat="47.83188" lon="-3.40396">
        <ele>34</ele>
        <time>2019-07-17T14:46:43Z</time>
      </trkpt>
      <trkpt lat="47.83193" lon="-3.40397">
        <ele>34</ele>
        <time>2019-07-17T14:46:44Z</time>
      </trkpt>
      <trkpt lat="47.83198" lon="-3.40399">
        <ele>34</ele>
        <time>2019-07-17T14:46:45Z</time>
      </trkpt>
      <trkpt lat="47.83203" lon="-3.40401">
        <ele>34</ele>
        <time>2019-07-17T14:46:46Z</time>
      </trkpt>
      <trkpt lat="47.83208" lon="-3.40403">
        <ele>34</ele>
        <time>2019-07-17T14:46:47Z</time>
      </trkpt>
      <trkpt lat="47.83213" lon="-3.40405">
        <ele>34</ele>
        <time>2019-07-17T14:46:48Z</time>
      </trkpt>
      <trkpt lat="47.83218" lon="-3.40408">
        <ele>34</ele>
        <time>2019-07-17T14:46:49Z</time>
      </trkpt>
      <trkpt lat="47.83223" lon="-3.4041">
        <ele>34</ele>
        <time>2019-07-17T14:46:50Z</time>
      </trkpt>
      <trkpt lat="47.83228" lon="-3.40412">
        <ele>35</ele>
        <time>2019-07-17T14:46:51Z</time>
      </trkpt>
      <trkpt lat="47.83234" lon="-3.40413">
        <ele>35</ele>
        <time>2019-07-17T14:46:52Z</time>
      </trkpt>
      <trkpt lat="47.83239" lon="-3.40415">
        <ele>35</ele>
        <time>2019-07-17T14:46:53Z</time>
      </trkpt>
      <trkpt lat="47.83244" lon="-3.40417">
        <ele>35</ele>
        <time>2019-07-17T14:46:54Z</time>
      </trkpt>
      <trkpt lat="47.8325" lon="-3.40419">
        <ele>35</ele>
        <time>2019-07-17T14:46:55Z</time>
      </trkpt>
      <trkpt lat="47.83255" lon="-3.40421">
        <ele>35</ele>
        <time>2019-07-17T14:46:56Z</time>
      </trkpt>
      <trkpt lat="47.8326" lon="-3.40424">
        <ele>36</ele>
        <time>2019-07-17T14:46:57Z</time>
      </trkpt>
      <trkpt lat="47.83265" lon="-3.40426">
        <ele>36</ele>
        <time>2019-07-17T14:46:58Z</time>
      </trkpt>
      <trkpt lat="47.8327" lon="-3.40428">
        <ele>36</ele>
        <time>2019-07-17T14:46:59Z</time>
      </trkpt>
      <trkpt lat="47.83276" lon="-3.40431">
        <ele>36</ele>
        <time>2019-07-17T14:47:00Z</time>
      </trkpt>
      <trkpt lat="47.83281" lon="-3.40433">
        <ele>37</ele>
        <time>2019-07-17T14:47:01Z</time>
      </trkpt>
      <trkpt lat="47.83286" lon="-3.40435">
        <ele>37</ele>
        <time>2019-07-17T14:47:02Z</time>
      </trkpt>
      <trkpt lat="47.83291" lon="-3.40437">
        <ele>37</ele>
        <time>2019-07-17T14:47:03Z</time>
      </trkpt>
      <trkpt lat="47.83297" lon="-3.40439">
        <ele>37</ele>
        <time>2019-07-17T14:47:04Z</time>
      </trkpt>
      <trkpt lat="47.83302" lon="-3.40442">
        <ele>37</ele>
        <time>2019-07-17T14:47:05Z</time>
      </trkpt>
      <trkpt lat="47.83307" lon="-3.40444">
        <ele>37</ele>
        <time>2019-07-17T14:47:06Z</time>
      </trkpt>
      <trkpt lat="47.83313" lon="-3.40446">
        <ele>38</ele>
        <time>2019-07-17T14:47:07Z</time>
      </trkpt>
      <trkpt lat="47.83318" lon="-3.40448">
        <ele>38</ele>
        <time>2019-07-17T14:47:08Z</time>
      </trkpt>
      <trkpt lat="47.83323" lon="-3.40451">
        <ele>38</ele>
        <time>2019-07-17T14:47:09Z</time>
      </trkpt>
      <trkpt lat="47.83329" lon="-3.40453">
        <ele>38</ele>
        <time>2019-07-17T14:47:10Z</time>
      </trkpt>
      <trkpt lat="47.83334" lon="-3.40455">
        <ele>38</ele>
        <time>2019-07-17T14:47:11Z</time>
      </trkpt>
      <trkpt lat="47.83339" lon="-3.40458">
        <ele>38</ele>
        <time>2019-07-17T14:47:12Z</time>
      </trkpt>
      <trkpt lat="47.83345" lon="-3.4046">
        <ele>38</ele>
        <time>2019-07-17T14:47:13Z</time>
      </trkpt>
      <trkpt lat="47.8335" lon="-3.40462">
        <ele>38</ele>
        <time>2019-07-17T14:47:14Z</time>
      </trkpt>
      <trkpt lat="47.83356" lon="-3.40465">
        <ele>39</ele>
        <time>2019-07-17T14:47:15Z</time>
      </trkpt>
      <trkpt lat="47.83361" lon="-3.40467">
        <ele>39</ele>
        <time>2019-07-17T14:47:16Z</time>
      </trkpt>
      <trkpt lat="47.83366" lon="-3.40469">
        <ele>39</ele>
        <time>2019-07-17T14:47:17Z</time>
      </trkpt>
      <trkpt lat="47.83372" lon="-3.40471">
        <ele>39</ele>
        <time>2019-07-17T14:47:18Z</time>
      </trkpt>
      <trkpt lat="47.83377" lon="-3.40474">
        <ele>39</ele>
        <time>2019-07-17T14:47:19Z</time>
      </trkpt>
      <trkpt lat="47.83382" lon="-3.40476">
        <ele>39</ele>
        <time>2019-07-17T14:47:20Z</time>
      </trkpt>
      <trkpt lat="47.83388" lon="-3.40479">
        <ele>40</ele>
        <time>2019-07-17T14:47:21Z</time>
      </trkpt>
      <trkpt lat="47.83394" lon="-3.40481">
        <ele>40</ele>
        <time>2019-07-17T14:47:22Z</time>
      </trkpt>
      <trkpt lat="47.83399" lon="-3.40484">
        <ele>40</ele>
        <time>2019-07-17T14:47:23Z</time>
      </trkpt>
      <trkpt lat="47.83405" lon="-3.40486">
        <ele>40</ele>
        <time>2019-07-17T14:47:24Z</time>
      </trkpt>
      <trkpt lat="47.8341" lon="-3.40488">
        <ele>40</ele>
        <time>2019-07-17T14:47:25Z</time>
      </trkpt>
      <trkpt lat="47.83414" lon="-3.4049">
        <ele>41</ele>
        <time>2019-07-17T14:47:26Z</time>
      </trkpt>
      <trkpt lat="47.83419" lon="-3.40492">
        <ele>41</ele>
        <time>2019-07-17T14:47:27Z</time>
      </trkpt>
      <trkpt lat="47.83423" lon="-3.40493">
        <ele>41</ele>
        <time>2019-07-17T14:47:28Z</time>
      </trkpt>
      <trkpt lat="47.83427" lon="-3.40495">
        <ele>41</ele>
        <time>2019-07-17T14:47:29Z</time>
      </trkpt>
      <trkpt lat="47.83431" lon="-3.40497">
        <ele>42</ele>
        <time>2019-07-17T14:47:30Z</time>
      </trkpt>
      <trkpt lat="47.83435" lon="-3.405">
        <ele>42</ele>
        <time>2019-07-17T14:47:31Z</time>
      </trkpt>
      <trkpt lat="47.8344" lon="-3.40503">
        <ele>42</ele>
        <time>2019-07-17T14:47:32Z</time>
      </trkpt>
      <trkpt lat="47.83444" lon="-3.40506">
        <ele>42</ele>
        <time>2019-07-17T14:47:33Z</time>
      </trkpt>
      <trkpt lat="47.8345" lon="-3.40508">
        <ele>42</ele>
        <time>2019-07-17T14:47:34Z</time>
      </trkpt>
      <trkpt lat="47.83455" lon="-3.4051">
        <ele>43</ele>
        <time>2019-07-17T14:47:35Z</time>
      </trkpt>
      <trkpt lat="47.8346" lon="-3.40513">
        <ele>43</ele>
        <time>2019-07-17T14:47:36Z</time>
      </trkpt>
      <trkpt lat="47.83465" lon="-3.40516">
        <ele>43</ele>
        <time>2019-07-17T14:47:37Z</time>
      </trkpt>
      <trkpt lat="47.83471" lon="-3.40519">
        <ele>43</ele>
        <time>2019-07-17T14:47:38Z</time>
      </trkpt>
      <trkpt lat="47.83476" lon="-3.40521">
        <ele>43</ele>
        <time>2019-07-17T14:47:39Z</time>
      </trkpt>
      <trkpt lat="47.83482" lon="-3.40524">
        <ele>44</ele>
        <time>2019-07-17T14:47:40Z</time>
      </trkpt>
      <trkpt lat="47.83487" lon="-3.40527">
        <ele>44</ele>
        <time>2019-07-17T14:47:41Z</time>
      </trkpt>
      <trkpt lat="47.83493" lon="-3.40529">
        <ele>44</ele>
        <time>2019-07-17T14:47:42Z</time>
      </trkpt>
      <trkpt lat="47.83498" lon="-3.40532">
        <ele>44</ele>
        <time>2019-07-17T14:47:43Z</time>
      </trkpt>
      <trkpt lat="47.83504" lon="-3.40535">
        <ele>44</ele>
        <time>2019-07-17T14:47:44Z</time>
      </trkpt>
      <trkpt lat="47.8351" lon="-3.40538">
        <ele>44</ele>
        <time>2019-07-17T14:47:45Z</time>
      </trkpt>
      <trkpt lat="47.83515" lon="-3.40541">
        <ele>45</ele>
        <time>2019-07-17T14:47:46Z</time>
      </trkpt>
      <trkpt lat="47.83521" lon="-3.40543">
        <ele>45</ele>
        <time>2019-07-17T14:47:47Z</time>
      </trkpt>
      <trkpt lat="47.83526" lon="-3.40546">
        <ele>45</ele>
        <time>2019-07-17T14:47:48Z</time>
      </trkpt>
      <trkpt lat="47.83532" lon="-3.40549">
        <ele>45</ele>
        <time>2019-07-17T14:47:49Z</time>
      </trkpt>
      <trkpt lat="47.83537" lon="-3.40552">
        <ele>46</ele>
        <time>2019-07-17T14:47:50Z</time>
      </trkpt>
      <trkpt lat="47.83543" lon="-3.40554">
        <ele>46</ele>
        <time>2019-07-17T14:47:51Z</time>
      </trkpt>
      <trkpt lat="47.83549" lon="-3.40557">
        <ele>46</ele>
        <time>2019-07-17T14:47:52Z</time>
      </trkpt>
      <trkpt lat="47.83554" lon="-3.4056">
        <ele>46</ele>
        <time>2019-07-17T14:47:53Z</time>
      </trkpt>
      <trkpt lat="47.8356" lon="-3.40562">
        <ele>46</ele>
        <time>2019-07-17T14:47:54Z</time>
      </trkpt>
      <trkpt lat="47.83565" lon="-3.40564">
        <ele>46</ele>
        <time>2019-07-17T14:47:55Z</time>
      </trkpt>
      <trkpt lat="47.83571" lon="-3.40566">
        <ele>46</ele>
        <time>2019-07-17T14:47:56Z</time>
      </trkpt>
      <trkpt lat="47.83576" lon="-3.40568">
        <ele>46</ele>
        <time>2019-07-17T14:47:57Z</time>
      </trkpt>
      <trkpt lat="47.8358" lon="-3.40572">
        <ele>46</ele>
        <time>2019-07-17T14:47:58Z</time>
      </trkpt>
      <trkpt lat="47.83585" lon="-3.40576">
        <ele>46</ele>
        <time>2019-07-17T14:47:59Z</time>
      </trkpt>
      <trkpt lat="47.83588" lon="-3.40578">
        <ele>46</ele>
        <time>2019-07-17T14:48:00Z</time>
      </trkpt>
      <trkpt lat="47.83591" lon="-3.40579">
        <ele>46</ele>
        <time>2019-07-17T14:48:01Z</time>
      </trkpt>
      <trkpt lat="47.83594" lon="-3.40579">
        <ele>45</ele>
        <time>2019-07-17T14:48:02Z</time>
      </trkpt>
      <trkpt lat="47.83596" lon="-3.40577">
        <ele>45</ele>
        <time>2019-07-17T14:48:03Z</time>
      </trkpt>
      <trkpt lat="47.83598" lon="-3.40575">
        <ele>45</ele>
        <time>2019-07-17T14:48:04Z</time>
      </trkpt>
      <trkpt lat="47.836" lon="-3.40573">
        <ele>45</ele>
        <time>2019-07-17T14:48:05Z</time>
      </trkpt>
      <trkpt lat="47.83602" lon="-3.40573">
        <ele>45</ele>
        <time>2019-07-17T14:48:06Z</time>
      </trkpt>
      <trkpt lat="47.83604" lon="-3.40573">
        <ele>45</ele>
        <time>2019-07-17T14:48:07Z</time>
      </trkpt>
      <trkpt lat="47.83605" lon="-3.40574">
        <ele>44</ele>
        <time>2019-07-17T14:48:08Z</time>
      </trkpt>
      <trkpt lat="47.83605" lon="-3.40574">
        <ele>44</ele>
        <time>2019-07-17T14:48:09Z</time>
      </trkpt>
      <trkpt lat="47.83611" lon="-3.40577">
        <ele>43</ele>
        <time>2019-07-17T14:48:10Z</time>
      </trkpt>
      <trkpt lat="47.83611" lon="-3.40577">
        <ele>43</ele>
        <time>2019-07-17T14:48:11Z</time>
      </trkpt>
      <trkpt lat="47.83613" lon="-3.40579">
        <ele>43</ele>
        <time>2019-07-17T14:48:12Z</time>
      </trkpt>
      <trkpt lat="47.83618" lon="-3.4058">
        <ele>43</ele>
        <time>2019-07-17T14:48:13Z</time>
      </trkpt>
      <trkpt lat="47.83621" lon="-3.40581">
        <ele>43</ele>
        <time>2019-07-17T14:48:14Z</time>
      </trkpt>
      <trkpt lat="47.83623" lon="-3.40582">
        <ele>43</ele>
        <time>2019-07-17T14:48:15Z</time>
      </trkpt>
      <trkpt lat="47.83623" lon="-3.40582">
        <ele>43</ele>
        <time>2019-07-17T14:48:16Z</time>
      </trkpt>
      <trkpt lat="47.8363" lon="-3.40585">
        <ele>43</ele>
        <time>2019-07-17T14:48:17Z</time>
      </trkpt>
      <trkpt lat="47.83634" lon="-3.40587">
        <ele>43</ele>
        <time>2019-07-17T14:48:18Z</time>
      </trkpt>
      <trkpt lat="47.83638" lon="-3.40589">
        <ele>42</ele>
        <time>2019-07-17T14:48:19Z</time>
      </trkpt>
      <trkpt lat="47.83642" lon="-3.40592">
        <ele>42</ele>
        <time>2019-07-17T14:48:20Z</time>
      </trkpt>
      <trkpt lat="47.83647" lon="-3.40596">
        <ele>42</ele>
        <time>2019-07-17T14:48:21Z</time>
      </trkpt>
      <trkpt lat="47.83647" lon="-3.40596">
        <ele>42</ele>
        <time>2019-07-17T14:48:22Z</time>
      </trkpt>
      <trkpt lat="47.83656" lon="-3.40601">
        <ele>42</ele>
        <time>2019-07-17T14:48:23Z</time>
      </trkpt>
      <trkpt lat="47.83656" lon="-3.40601">
        <ele>42</ele>
        <time>2019-07-17T14:48:24Z</time>
      </trkpt>
      <trkpt lat="47.83666" lon="-3.40606">
        <ele>42</ele>
        <time>2019-07-17T14:48:25Z</time>
      </trkpt>
      <trkpt lat="47.83671" lon="-3.40611">
        <ele>42</ele>
        <time>2019-07-17T14:48:26Z</time>
      </trkpt>
      <trkpt lat="47.83676" lon="-3.40614">
        <ele>42</ele>
        <time>2019-07-17T14:48:27Z</time>
      </trkpt>
      <trkpt lat="47.83676" lon="-3.40614">
        <ele>42</ele>
        <time>2019-07-17T14:48:28Z</time>
      </trkpt>
      <trkpt lat="47.83686" lon="-3.40622">
        <ele>42</ele>
        <time>2019-07-17T14:48:29Z</time>
      </trkpt>
      <trkpt lat="47.83691" lon="-3.40627">
        <ele>42</ele>
        <time>2019-07-17T14:48:30Z</time>
      </trkpt>
      <trkpt lat="47.83697" lon="-3.40632">
        <ele>42</ele>
        <time>2019-07-17T14:48:31Z</time>
      </trkpt>
      <trkpt lat="47.83702" lon="-3.40636">
        <ele>42</ele>
        <time>2019-07-17T14:48:32Z</time>
      </trkpt>
      <trkpt lat="47.83702" lon="-3.40636">
        <ele>42</ele>
        <time>2019-07-17T14:48:33Z</time>
      </trkpt>
      <trkpt lat="47.83712" lon="-3.40646">
        <ele>42</ele>
        <time>2019-07-17T14:48:34Z</time>
      </trkpt>
      <trkpt lat="47.83717" lon="-3.40651">
        <ele>42</ele>
        <time>2019-07-17T14:48:35Z</time>
      </trkpt>
      <trkpt lat="47.83722" lon="-3.40655">
        <ele>42</ele>
        <time>2019-07-17T14:48:36Z</time>
      </trkpt>
      <trkpt lat="47.83727" lon="-3.4066">
        <ele>42</ele>
        <time>2019-07-17T14:48:37Z</time>
      </trkpt>
      <trkpt lat="47.83727" lon="-3.4066">
        <ele>42</ele>
        <time>2019-07-17T14:48:38Z</time>
      </trkpt>
      <trkpt lat="47.83737" lon="-3.40669">
        <ele>42</ele>
        <time>2019-07-17T14:48:39Z</time>
      </trkpt>
      <trkpt lat="47.83737" lon="-3.40669">
        <ele>42</ele>
        <time>2019-07-17T14:48:40Z</time>
      </trkpt>
      <trkpt lat="47.83747" lon="-3.40678">
        <ele>42</ele>
        <time>2019-07-17T14:48:41Z</time>
      </trkpt>
      <trkpt lat="47.83747" lon="-3.40678">
        <ele>42</ele>
        <time>2019-07-17T14:48:42Z</time>
      </trkpt>
      <trkpt lat="47.83752" lon="-3.40682">
        <ele>42</ele>
        <time>2019-07-17T14:48:43Z</time>
      </trkpt>
      <trkpt lat="47.83757" lon="-3.40686">
        <ele>42</ele>
        <time>2019-07-17T14:48:44Z</time>
      </trkpt>
      <trkpt lat="47.83762" lon="-3.40691">
        <ele>42</ele>
        <time>2019-07-17T14:48:45Z</time>
      </trkpt>
      <trkpt lat="47.83772" lon="-3.40699">
        <ele>42</ele>
        <time>2019-07-17T14:48:46Z</time>
      </trkpt>
      <trkpt lat="47.83776" lon="-3.40703">
        <ele>42</ele>
        <time>2019-07-17T14:48:47Z</time>
      </trkpt>
      <trkpt lat="47.83776" lon="-3.40703">
        <ele>42</ele>
        <time>2019-07-17T14:48:48Z</time>
      </trkpt>
      <trkpt lat="47.83786" lon="-3.40711">
        <ele>42</ele>
        <time>2019-07-17T14:48:49Z</time>
      </trkpt>
      <trkpt lat="47.83791" lon="-3.40716">
        <ele>41</ele>
        <time>2019-07-17T14:48:50Z</time>
      </trkpt>
      <trkpt lat="47.83796" lon="-3.4072">
        <ele>41</ele>
        <time>2019-07-17T14:48:51Z</time>
      </trkpt>
      <trkpt lat="47.838" lon="-3.40724">
        <ele>41</ele>
        <time>2019-07-17T14:48:52Z</time>
      </trkpt>
      <trkpt lat="47.838" lon="-3.40724">
        <ele>41</ele>
        <time>2019-07-17T14:48:53Z</time>
      </trkpt>
      <trkpt lat="47.83805" lon="-3.40728">
        <ele>41</ele>
        <time>2019-07-17T14:48:54Z</time>
      </trkpt>
      <trkpt lat="47.8381" lon="-3.40733">
        <ele>41</ele>
        <time>2019-07-17T14:48:55Z</time>
      </trkpt>
      <trkpt lat="47.83819" lon="-3.4074">
        <ele>41</ele>
        <time>2019-07-17T14:48:56Z</time>
      </trkpt>
      <trkpt lat="47.83824" lon="-3.40744">
        <ele>41</ele>
        <time>2019-07-17T14:48:57Z</time>
      </trkpt>
      <trkpt lat="47.83824" lon="-3.40744">
        <ele>41</ele>
        <time>2019-07-17T14:48:58Z</time>
      </trkpt>
      <trkpt lat="47.83833" lon="-3.40753">
        <ele>41</ele>
        <time>2019-07-17T14:48:59Z</time>
      </trkpt>
      <trkpt lat="47.83838" lon="-3.40757">
        <ele>42</ele>
        <time>2019-07-17T14:49:00Z</time>
      </trkpt>
      <trkpt lat="47.83843" lon="-3.40762">
        <ele>42</ele>
        <time>2019-07-17T14:49:01Z</time>
      </trkpt>
      <trkpt lat="47.83847" lon="-3.40766">
        <ele>42</ele>
        <time>2019-07-17T14:49:02Z</time>
      </trkpt>
      <trkpt lat="47.83847" lon="-3.40766">
        <ele>42</ele>
        <time>2019-07-17T14:49:03Z</time>
      </trkpt>
      <trkpt lat="47.83852" lon="-3.4077">
        <ele>42</ele>
        <time>2019-07-17T14:49:04Z</time>
      </trkpt>
      <trkpt lat="47.83861" lon="-3.40778">
        <ele>42</ele>
        <time>2019-07-17T14:49:05Z</time>
      </trkpt>
      <trkpt lat="47.83866" lon="-3.40782">
        <ele>42</ele>
        <time>2019-07-17T14:49:06Z</time>
      </trkpt>
      <trkpt lat="47.83871" lon="-3.40786">
        <ele>42</ele>
        <time>2019-07-17T14:49:07Z</time>
      </trkpt>
      <trkpt lat="47.83876" lon="-3.4079">
        <ele>42</ele>
        <time>2019-07-17T14:49:08Z</time>
      </trkpt>
      <trkpt lat="47.8388" lon="-3.40795">
        <ele>41</ele>
        <time>2019-07-17T14:49:09Z</time>
      </trkpt>
      <trkpt lat="47.83884" lon="-3.40798">
        <ele>41</ele>
        <time>2019-07-17T14:49:10Z</time>
      </trkpt>
      <trkpt lat="47.83888" lon="-3.40803">
        <ele>42</ele>
        <time>2019-07-17T14:49:11Z</time>
      </trkpt>
      <trkpt lat="47.83892" lon="-3.40806">
        <ele>42</ele>
        <time>2019-07-17T14:49:12Z</time>
      </trkpt>
      <trkpt lat="47.83897" lon="-3.4081">
        <ele>42</ele>
        <time>2019-07-17T14:49:13Z</time>
      </trkpt>
      <trkpt lat="47.83901" lon="-3.40814">
        <ele>42</ele>
        <time>2019-07-17T14:49:14Z</time>
      </trkpt>
      <trkpt lat="47.83905" lon="-3.40818">
        <ele>42</ele>
        <time>2019-07-17T14:49:15Z</time>
      </trkpt>
      <trkpt lat="47.8391" lon="-3.40822">
        <ele>42</ele>
        <time>2019-07-17T14:49:16Z</time>
      </trkpt>
      <trkpt lat="47.83915" lon="-3.40827">
        <ele>42</ele>
        <time>2019-07-17T14:49:17Z</time>
      </trkpt>
      <trkpt lat="47.83915" lon="-3.40827">
        <ele>42</ele>
        <time>2019-07-17T14:49:18Z</time>
      </trkpt>
      <trkpt lat="47.83924" lon="-3.40835">
        <ele>42</ele>
        <time>2019-07-17T14:49:19Z</time>
      </trkpt>
      <trkpt lat="47.83929" lon="-3.40838">
        <ele>42</ele>
        <time>2019-07-17T14:49:20Z</time>
      </trkpt>
      <trkpt lat="47.83934" lon="-3.40842">
        <ele>42</ele>
        <time>2019-07-17T14:49:21Z</time>
      </trkpt>
      <trkpt lat="47.83939" lon="-3.40846">
        <ele>42</ele>
        <time>2019-07-17T14:49:22Z</time>
      </trkpt>
      <trkpt lat="47.83939" lon="-3.40846">
        <ele>42</ele>
        <time>2019-07-17T14:49:23Z</time>
      </trkpt>
      <trkpt lat="47.83944" lon="-3.40851">
        <ele>42</ele>
        <time>2019-07-17T14:49:24Z</time>
      </trkpt>
      <trkpt lat="47.83954" lon="-3.40858">
        <ele>42</ele>
        <time>2019-07-17T14:49:25Z</time>
      </trkpt>
      <trkpt lat="47.83959" lon="-3.40862">
        <ele>42</ele>
        <time>2019-07-17T14:49:26Z</time>
      </trkpt>
      <trkpt lat="47.83959" lon="-3.40862">
        <ele>42</ele>
        <time>2019-07-17T14:49:27Z</time>
      </trkpt>
      <trkpt lat="47.83963" lon="-3.40866">
        <ele>42</ele>
        <time>2019-07-17T14:49:28Z</time>
      </trkpt>
      <trkpt lat="47.83973" lon="-3.40871">
        <ele>42</ele>
        <time>2019-07-17T14:49:29Z</time>
      </trkpt>
      <trkpt lat="47.83973" lon="-3.40871">
        <ele>42</ele>
        <time>2019-07-17T14:49:30Z</time>
      </trkpt>
      <trkpt lat="47.83979" lon="-3.40874">
        <ele>42</ele>
        <time>2019-07-17T14:49:31Z</time>
      </trkpt>
      <trkpt lat="47.83988" lon="-3.40878">
        <ele>43</ele>
        <time>2019-07-17T14:49:32Z</time>
      </trkpt>
      <trkpt lat="47.83993" lon="-3.4088">
        <ele>43</ele>
        <time>2019-07-17T14:49:33Z</time>
      </trkpt>
      <trkpt lat="47.83993" lon="-3.4088">
        <ele>43</ele>
        <time>2019-07-17T14:49:34Z</time>
      </trkpt>
      <trkpt lat="47.84003" lon="-3.40882">
        <ele>43</ele>
        <time>2019-07-17T14:49:35Z</time>
      </trkpt>
      <trkpt lat="47.84008" lon="-3.40883">
        <ele>43</ele>
        <time>2019-07-17T14:49:36Z</time>
      </trkpt>
      <trkpt lat="47.84013" lon="-3.40883">
        <ele>43</ele>
        <time>2019-07-17T14:49:37Z</time>
      </trkpt>
      <trkpt lat="47.84019" lon="-3.40884">
        <ele>43</ele>
        <time>2019-07-17T14:49:38Z</time>
      </trkpt>
      <trkpt lat="47.84024" lon="-3.40885">
        <ele>43</ele>
        <time>2019-07-17T14:49:39Z</time>
      </trkpt>
      <trkpt lat="47.84029" lon="-3.40884">
        <ele>43</ele>
        <time>2019-07-17T14:49:40Z</time>
      </trkpt>
      <trkpt lat="47.84029" lon="-3.40884">
        <ele>43</ele>
        <time>2019-07-17T14:49:41Z</time>
      </trkpt>
      <trkpt lat="47.8404" lon="-3.40884">
        <ele>43</ele>
        <time>2019-07-17T14:49:42Z</time>
      </trkpt>
      <trkpt lat="47.84045" lon="-3.40883">
        <ele>43</ele>
        <time>2019-07-17T14:49:43Z</time>
      </trkpt>
      <trkpt lat="47.84045" lon="-3.40883">
        <ele>43</ele>
        <time>2019-07-17T14:49:44Z</time>
      </trkpt>
      <trkpt lat="47.84055" lon="-3.40882">
        <ele>44</ele>
        <time>2019-07-17T14:49:45Z</time>
      </trkpt>
      <trkpt lat="47.84055" lon="-3.40882">
        <ele>44</ele>
        <time>2019-07-17T14:49:46Z</time>
      </trkpt>
      <trkpt lat="47.8406" lon="-3.40881">
        <ele>44</ele>
        <time>2019-07-17T14:49:47Z</time>
      </trkpt>
      <trkpt lat="47.84065" lon="-3.40879">
        <ele>44</ele>
        <time>2019-07-17T14:49:48Z</time>
      </trkpt>
      <trkpt lat="47.8407" lon="-3.40877">
        <ele>44</ele>
        <time>2019-07-17T14:49:49Z</time>
      </trkpt>
      <trkpt lat="47.84074" lon="-3.40875">
        <ele>44</ele>
        <time>2019-07-17T14:49:50Z</time>
      </trkpt>
      <trkpt lat="47.84081" lon="-3.40872">
        <ele>45</ele>
        <time>2019-07-17T14:49:51Z</time>
      </trkpt>
      <trkpt lat="47.84084" lon="-3.40871">
        <ele>45</ele>
        <time>2019-07-17T14:49:52Z</time>
      </trkpt>
      <trkpt lat="47.84084" lon="-3.40871">
        <ele>45</ele>
        <time>2019-07-17T14:49:53Z</time>
      </trkpt>
      <trkpt lat="47.84087" lon="-3.40868">
        <ele>45</ele>
        <time>2019-07-17T14:49:54Z</time>
      </trkpt>
      <trkpt lat="47.84089" lon="-3.40868">
        <ele>45</ele>
        <time>2019-07-17T14:49:55Z</time>
      </trkpt>
      <trkpt lat="47.84089" lon="-3.40868">
        <ele>45</ele>
        <time>2019-07-17T14:49:56Z</time>
      </trkpt>
      <trkpt lat="47.84092" lon="-3.40869">
        <ele>46</ele>
        <time>2019-07-17T14:49:57Z</time>
      </trkpt>
      <trkpt lat="47.84094" lon="-3.40876">
        <ele>46</ele>
        <time>2019-07-17T14:49:58Z</time>
      </trkpt>
      <trkpt lat="47.84095" lon="-3.40881">
        <ele>46</ele>
        <time>2019-07-17T14:49:59Z</time>
      </trkpt>
      <trkpt lat="47.84095" lon="-3.40887">
        <ele>47</ele>
        <time>2019-07-17T14:50:00Z</time>
      </trkpt>
      <trkpt lat="47.84096" lon="-3.40892">
        <ele>47</ele>
        <time>2019-07-17T14:50:01Z</time>
      </trkpt>
      <trkpt lat="47.84096" lon="-3.40898">
        <ele>47</ele>
        <time>2019-07-17T14:50:02Z</time>
      </trkpt>
      <trkpt lat="47.84096" lon="-3.40904">
        <ele>47</ele>
        <time>2019-07-17T14:50:03Z</time>
      </trkpt>
      <trkpt lat="47.84097" lon="-3.40911">
        <ele>47</ele>
        <time>2019-07-17T14:50:04Z</time>
      </trkpt>
      <trkpt lat="47.84097" lon="-3.40917">
        <ele>47</ele>
        <time>2019-07-17T14:50:05Z</time>
      </trkpt>
      <trkpt lat="47.84098" lon="-3.40924">
        <ele>47</ele>
        <time>2019-07-17T14:50:06Z</time>
      </trkpt>
      <trkpt lat="47.84098" lon="-3.4093">
        <ele>48</ele>
        <time>2019-07-17T14:50:07Z</time>
      </trkpt>
      <trkpt lat="47.84098" lon="-3.40936">
        <ele>48</ele>
        <time>2019-07-17T14:50:08Z</time>
      </trkpt>
      <trkpt lat="47.84098" lon="-3.40943">
        <ele>48</ele>
        <time>2019-07-17T14:50:09Z</time>
      </trkpt>
      <trkpt lat="47.84098" lon="-3.40943">
        <ele>48</ele>
        <time>2019-07-17T14:50:10Z</time>
      </trkpt>
      <trkpt lat="47.84099" lon="-3.40956">
        <ele>48</ele>
        <time>2019-07-17T14:50:11Z</time>
      </trkpt>
      <trkpt lat="47.84099" lon="-3.40963">
        <ele>48</ele>
        <time>2019-07-17T14:50:12Z</time>
      </trkpt>
      <trkpt lat="47.841" lon="-3.4097">
        <ele>48</ele>
        <time>2019-07-17T14:50:13Z</time>
      </trkpt>
      <trkpt lat="47.841" lon="-3.40976">
        <ele>48</ele>
        <time>2019-07-17T14:50:14Z</time>
      </trkpt>
      <trkpt lat="47.841" lon="-3.40976">
        <ele>48</ele>
        <time>2019-07-17T14:50:15Z</time>
      </trkpt>
      <trkpt lat="47.841" lon="-3.40991">
        <ele>48</ele>
        <time>2019-07-17T14:50:16Z</time>
      </trkpt>
      <trkpt lat="47.841" lon="-3.40998">
        <ele>48</ele>
        <time>2019-07-17T14:50:17Z</time>
      </trkpt>
      <trkpt lat="47.841" lon="-3.41006">
        <ele>48</ele>
        <time>2019-07-17T14:50:18Z</time>
      </trkpt>
      <trkpt lat="47.841" lon="-3.41014">
        <ele>48</ele>
        <time>2019-07-17T14:50:19Z</time>
      </trkpt>
      <trkpt lat="47.84101" lon="-3.41021">
        <ele>48</ele>
        <time>2019-07-17T14:50:20Z</time>
      </trkpt>
      <trkpt lat="47.84101" lon="-3.41029">
        <ele>48</ele>
        <time>2019-07-17T14:50:21Z</time>
      </trkpt>
      <trkpt lat="47.84101" lon="-3.41036">
        <ele>48</ele>
        <time>2019-07-17T14:50:22Z</time>
      </trkpt>
      <trkpt lat="47.84101" lon="-3.41036">
        <ele>48</ele>
        <time>2019-07-17T14:50:23Z</time>
      </trkpt>
      <trkpt lat="47.84101" lon="-3.41051">
        <ele>48</ele>
        <time>2019-07-17T14:50:24Z</time>
      </trkpt>
      <trkpt lat="47.84101" lon="-3.41059">
        <ele>48</ele>
        <time>2019-07-17T14:50:25Z</time>
      </trkpt>
      <trkpt lat="47.84102" lon="-3.41067">
        <ele>48</ele>
        <time>2019-07-17T14:50:26Z</time>
      </trkpt>
      <trkpt lat="47.84102" lon="-3.41075">
        <ele>48</ele>
        <time>2019-07-17T14:50:27Z</time>
      </trkpt>
      <trkpt lat="47.84102" lon="-3.41075">
        <ele>48</ele>
        <time>2019-07-17T14:50:28Z</time>
      </trkpt>
      <trkpt lat="47.84102" lon="-3.41091">
        <ele>48</ele>
        <time>2019-07-17T14:50:29Z</time>
      </trkpt>
      <trkpt lat="47.84102" lon="-3.41098">
        <ele>48</ele>
        <time>2019-07-17T14:50:30Z</time>
      </trkpt>
      <trkpt lat="47.84102" lon="-3.41098">
        <ele>48</ele>
        <time>2019-07-17T14:50:31Z</time>
      </trkpt>
      <trkpt lat="47.84103" lon="-3.41106">
        <ele>48</ele>
        <time>2019-07-17T14:50:32Z</time>
      </trkpt>
      <trkpt lat="47.84105" lon="-3.41112">
        <ele>48</ele>
        <time>2019-07-17T14:50:33Z</time>
      </trkpt>
      <trkpt lat="47.84114" lon="-3.41113">
        <ele>49</ele>
        <time>2019-07-17T14:50:34Z</time>
      </trkpt>
      <trkpt lat="47.84114" lon="-3.41113">
        <ele>49</ele>
        <time>2019-07-17T14:50:35Z</time>
      </trkpt>
      <trkpt lat="47.84117" lon="-3.41112">
        <ele>49</ele>
        <time>2019-07-17T14:50:36Z</time>
      </trkpt>
      <trkpt lat="47.84127" lon="-3.4111">
        <ele>49</ele>
        <time>2019-07-17T14:50:37Z</time>
      </trkpt>
      <trkpt lat="47.84132" lon="-3.41108">
        <ele>49</ele>
        <time>2019-07-17T14:50:38Z</time>
      </trkpt>
      <trkpt lat="47.84137" lon="-3.41107">
        <ele>49</ele>
        <time>2019-07-17T14:50:39Z</time>
      </trkpt>
      <trkpt lat="47.84137" lon="-3.41107">
        <ele>49</ele>
        <time>2019-07-17T14:50:40Z</time>
      </trkpt>
      <trkpt lat="47.84141" lon="-3.41106">
        <ele>49</ele>
        <time>2019-07-17T14:50:41Z</time>
      </trkpt>
      <trkpt lat="47.84147" lon="-3.41105">
        <ele>50</ele>
        <time>2019-07-17T14:50:42Z</time>
      </trkpt>
      <trkpt lat="47.84157" lon="-3.41103">
        <ele>50</ele>
        <time>2019-07-17T14:50:43Z</time>
      </trkpt>
      <trkpt lat="47.84157" lon="-3.41103">
        <ele>50</ele>
        <time>2019-07-17T14:50:44Z</time>
      </trkpt>
      <trkpt lat="47.84163" lon="-3.41101">
        <ele>50</ele>
        <time>2019-07-17T14:50:45Z</time>
      </trkpt>
      <trkpt lat="47.84175" lon="-3.41098">
        <ele>50</ele>
        <time>2019-07-17T14:50:46Z</time>
      </trkpt>
      <trkpt lat="47.84175" lon="-3.41098">
        <ele>50</ele>
        <time>2019-07-17T14:50:47Z</time>
      </trkpt>
      <trkpt lat="47.84181" lon="-3.41096">
        <ele>50</ele>
        <time>2019-07-17T14:50:48Z</time>
      </trkpt>
      <trkpt lat="47.84187" lon="-3.41094">
        <ele>50</ele>
        <time>2019-07-17T14:50:49Z</time>
      </trkpt>
      <trkpt lat="47.84197" lon="-3.41091">
        <ele>50</ele>
        <time>2019-07-17T14:50:50Z</time>
      </trkpt>
      <trkpt lat="47.84197" lon="-3.41091">
        <ele>50</ele>
        <time>2019-07-17T14:50:51Z</time>
      </trkpt>
      <trkpt lat="47.84202" lon="-3.41089">
        <ele>50</ele>
        <time>2019-07-17T14:50:52Z</time>
      </trkpt>
      <trkpt lat="47.84207" lon="-3.41088">
        <ele>50</ele>
        <time>2019-07-17T14:50:53Z</time>
      </trkpt>
      <trkpt lat="47.84212" lon="-3.41086">
        <ele>50</ele>
        <time>2019-07-17T14:50:54Z</time>
      </trkpt>
      <trkpt lat="47.84217" lon="-3.41084">
        <ele>50</ele>
        <time>2019-07-17T14:50:55Z</time>
      </trkpt>
      <trkpt lat="47.84222" lon="-3.41082">
        <ele>51</ele>
        <time>2019-07-17T14:50:56Z</time>
      </trkpt>
      <trkpt lat="47.84228" lon="-3.41081">
        <ele>51</ele>
        <time>2019-07-17T14:50:57Z</time>
      </trkpt>
      <trkpt lat="47.84238" lon="-3.41076">
        <ele>51</ele>
        <time>2019-07-17T14:50:58Z</time>
      </trkpt>
      <trkpt lat="47.84238" lon="-3.41076">
        <ele>51</ele>
        <time>2019-07-17T14:50:59Z</time>
      </trkpt>
      <trkpt lat="47.84242" lon="-3.41074">
        <ele>51</ele>
        <time>2019-07-17T14:51:00Z</time>
      </trkpt>
      <trkpt lat="47.84252" lon="-3.41069">
        <ele>51</ele>
        <time>2019-07-17T14:51:01Z</time>
      </trkpt>
      <trkpt lat="47.84257" lon="-3.41066">
        <ele>51</ele>
        <time>2019-07-17T14:51:02Z</time>
      </trkpt>
      <trkpt lat="47.84257" lon="-3.41066">
        <ele>51</ele>
        <time>2019-07-17T14:51:03Z</time>
      </trkpt>
      <trkpt lat="47.84262" lon="-3.41063">
        <ele>52</ele>
        <time>2019-07-17T14:51:04Z</time>
      </trkpt>
      <trkpt lat="47.84267" lon="-3.4106">
        <ele>52</ele>
        <time>2019-07-17T14:51:05Z</time>
      </trkpt>
      <trkpt lat="47.84272" lon="-3.41057">
        <ele>52</ele>
        <time>2019-07-17T14:51:06Z</time>
      </trkpt>
      <trkpt lat="47.84277" lon="-3.41054">
        <ele>52</ele>
        <time>2019-07-17T14:51:07Z</time>
      </trkpt>
      <trkpt lat="47.84283" lon="-3.41052">
        <ele>52</ele>
        <time>2019-07-17T14:51:08Z</time>
      </trkpt>
      <trkpt lat="47.84294" lon="-3.41046">
        <ele>52</ele>
        <time>2019-07-17T14:51:09Z</time>
      </trkpt>
      <trkpt lat="47.843" lon="-3.41043">
        <ele>52</ele>
        <time>2019-07-17T14:51:10Z</time>
      </trkpt>
      <trkpt lat="47.843" lon="-3.41043">
        <ele>52</ele>
        <time>2019-07-17T14:51:11Z</time>
      </trkpt>
      <trkpt lat="47.84305" lon="-3.41041">
        <ele>52</ele>
        <time>2019-07-17T14:51:12Z</time>
      </trkpt>
      <trkpt lat="47.84318" lon="-3.41038">
        <ele>52</ele>
        <time>2019-07-17T14:51:13Z</time>
      </trkpt>
      <trkpt lat="47.84324" lon="-3.41036">
        <ele>52</ele>
        <time>2019-07-17T14:51:14Z</time>
      </trkpt>
      <trkpt lat="47.84324" lon="-3.41036">
        <ele>52</ele>
        <time>2019-07-17T14:51:15Z</time>
      </trkpt>
      <trkpt lat="47.84328" lon="-3.41036">
        <ele>51</ele>
        <time>2019-07-17T14:51:16Z</time>
      </trkpt>
      <trkpt lat="47.84341" lon="-3.41035">
        <ele>51</ele>
        <time>2019-07-17T14:51:17Z</time>
      </trkpt>
      <trkpt lat="47.84347" lon="-3.41035">
        <ele>51</ele>
        <time>2019-07-17T14:51:18Z</time>
      </trkpt>
      <trkpt lat="47.84353" lon="-3.41035">
        <ele>51</ele>
        <time>2019-07-17T14:51:19Z</time>
      </trkpt>
      <trkpt lat="47.84353" lon="-3.41035">
        <ele>51</ele>
        <time>2019-07-17T14:51:20Z</time>
      </trkpt>
      <trkpt lat="47.84359" lon="-3.41036">
        <ele>51</ele>
        <time>2019-07-17T14:51:21Z</time>
      </trkpt>
      <trkpt lat="47.8437" lon="-3.4104">
        <ele>51</ele>
        <time>2019-07-17T14:51:22Z</time>
      </trkpt>
      <trkpt lat="47.8437" lon="-3.4104">
        <ele>51</ele>
        <time>2019-07-17T14:51:23Z</time>
      </trkpt>
      <trkpt lat="47.84374" lon="-3.41044">
        <ele>51</ele>
        <time>2019-07-17T14:51:24Z</time>
      </trkpt>
      <trkpt lat="47.84379" lon="-3.41049">
        <ele>51</ele>
        <time>2019-07-17T14:51:25Z</time>
      </trkpt>
      <trkpt lat="47.84386" lon="-3.41062">
        <ele>51</ele>
        <time>2019-07-17T14:51:26Z</time>
      </trkpt>
      <trkpt lat="47.84386" lon="-3.41062">
        <ele>51</ele>
        <time>2019-07-17T14:51:27Z</time>
      </trkpt>
      <trkpt lat="47.84393" lon="-3.41077">
        <ele>51</ele>
        <time>2019-07-17T14:51:28Z</time>
      </trkpt>
      <trkpt lat="47.84393" lon="-3.41077">
        <ele>51</ele>
        <time>2019-07-17T14:51:29Z</time>
      </trkpt>
      <trkpt lat="47.84399" lon="-3.41092">
        <ele>50</ele>
        <time>2019-07-17T14:51:30Z</time>
      </trkpt>
      <trkpt lat="47.84402" lon="-3.411">
        <ele>50</ele>
        <time>2019-07-17T14:51:31Z</time>
      </trkpt>
      <trkpt lat="47.84404" lon="-3.41108">
        <ele>50</ele>
        <time>2019-07-17T14:51:32Z</time>
      </trkpt>
      <trkpt lat="47.84406" lon="-3.41116">
        <ele>50</ele>
        <time>2019-07-17T14:51:33Z</time>
      </trkpt>
      <trkpt lat="47.84409" lon="-3.41124">
        <ele>50</ele>
        <time>2019-07-17T14:51:34Z</time>
      </trkpt>
      <trkpt lat="47.84409" lon="-3.41124">
        <ele>50</ele>
        <time>2019-07-17T14:51:35Z</time>
      </trkpt>
      <trkpt lat="47.84413" lon="-3.41133">
        <ele>50</ele>
        <time>2019-07-17T14:51:36Z</time>
      </trkpt>
      <trkpt lat="47.84418" lon="-3.41149">
        <ele>49</ele>
        <time>2019-07-17T14:51:37Z</time>
      </trkpt>
      <trkpt lat="47.84418" lon="-3.41149">
        <ele>49</ele>
        <time>2019-07-17T14:51:38Z</time>
      </trkpt>
      <trkpt lat="47.84421" lon="-3.41157">
        <ele>49</ele>
        <time>2019-07-17T14:51:39Z</time>
      </trkpt>
      <trkpt lat="47.84427" lon="-3.41174">
        <ele>49</ele>
        <time>2019-07-17T14:51:40Z</time>
      </trkpt>
      <trkpt lat="47.84427" lon="-3.41174">
        <ele>49</ele>
        <time>2019-07-17T14:51:41Z</time>
      </trkpt>
      <trkpt lat="47.84432" lon="-3.41191">
        <ele>49</ele>
        <time>2019-07-17T14:51:42Z</time>
      </trkpt>
      <trkpt lat="47.84432" lon="-3.41191">
        <ele>49</ele>
        <time>2019-07-17T14:51:43Z</time>
      </trkpt>
      <trkpt lat="47.84438" lon="-3.41209">
        <ele>49</ele>
        <time>2019-07-17T14:51:44Z</time>
      </trkpt>
      <trkpt lat="47.84441" lon="-3.41218">
        <ele>49</ele>
        <time>2019-07-17T14:51:45Z</time>
      </trkpt>
      <trkpt lat="47.84441" lon="-3.41218">
        <ele>49</ele>
        <time>2019-07-17T14:51:46Z</time>
      </trkpt>
      <trkpt lat="47.84444" lon="-3.41227">
        <ele>49</ele>
        <time>2019-07-17T14:51:47Z</time>
      </trkpt>
      <trkpt lat="47.84447" lon="-3.41237">
        <ele>48</ele>
        <time>2019-07-17T14:51:48Z</time>
      </trkpt>
      <trkpt lat="47.84449" lon="-3.41246">
        <ele>48</ele>
        <time>2019-07-17T14:51:49Z</time>
      </trkpt>
      <trkpt lat="47.84454" lon="-3.41265">
        <ele>48</ele>
        <time>2019-07-17T14:51:50Z</time>
      </trkpt>
      <trkpt lat="47.84454" lon="-3.41265">
        <ele>48</ele>
        <time>2019-07-17T14:51:51Z</time>
      </trkpt>
      <trkpt lat="47.84456" lon="-3.41274">
        <ele>48</ele>
        <time>2019-07-17T14:51:52Z</time>
      </trkpt>
      <trkpt lat="47.84459" lon="-3.41284">
        <ele>47</ele>
        <time>2019-07-17T14:51:53Z</time>
      </trkpt>
      <trkpt lat="47.84461" lon="-3.41294">
        <ele>47</ele>
        <time>2019-07-17T14:51:54Z</time>
      </trkpt>
      <trkpt lat="47.84465" lon="-3.41313">
        <ele>47</ele>
        <time>2019-07-17T14:51:55Z</time>
      </trkpt>
      <trkpt lat="47.84467" lon="-3.41323">
        <ele>47</ele>
        <time>2019-07-17T14:51:56Z</time>
      </trkpt>
      <trkpt lat="47.84467" lon="-3.41323">
        <ele>47</ele>
        <time>2019-07-17T14:51:57Z</time>
      </trkpt>
      <trkpt lat="47.8447" lon="-3.41343">
        <ele>47</ele>
        <time>2019-07-17T14:51:58Z</time>
      </trkpt>
      <trkpt lat="47.8447" lon="-3.41343">
        <ele>47</ele>
        <time>2019-07-17T14:51:59Z</time>
      </trkpt>
      <trkpt lat="47.84473" lon="-3.41363">
        <ele>47</ele>
        <time>2019-07-17T14:52:00Z</time>
      </trkpt>
      <trkpt lat="47.84473" lon="-3.41363">
        <ele>47</ele>
        <time>2019-07-17T14:52:01Z</time>
      </trkpt>
      <trkpt lat="47.84475" lon="-3.41384">
        <ele>47</ele>
        <time>2019-07-17T14:52:02Z</time>
      </trkpt>
      <trkpt lat="47.84476" lon="-3.41394">
        <ele>47</ele>
        <time>2019-07-17T14:52:03Z</time>
      </trkpt>
      <trkpt lat="47.84476" lon="-3.41394">
        <ele>47</ele>
        <time>2019-07-17T14:52:04Z</time>
      </trkpt>
      <trkpt lat="47.84477" lon="-3.41413">
        <ele>47</ele>
        <time>2019-07-17T14:52:05Z</time>
      </trkpt>
      <trkpt lat="47.84477" lon="-3.41413">
        <ele>47</ele>
        <time>2019-07-17T14:52:06Z</time>
      </trkpt>
      <trkpt lat="47.84478" lon="-3.41423">
        <ele>47</ele>
        <time>2019-07-17T14:52:07Z</time>
      </trkpt>
      <trkpt lat="47.84479" lon="-3.41441">
        <ele>47</ele>
        <time>2019-07-17T14:52:08Z</time>
      </trkpt>
      <trkpt lat="47.8448" lon="-3.4145">
        <ele>47</ele>
        <time>2019-07-17T14:52:09Z</time>
      </trkpt>
      <trkpt lat="47.8448" lon="-3.4145">
        <ele>47</ele>
        <time>2019-07-17T14:52:10Z</time>
      </trkpt>
      <trkpt lat="47.8448" lon="-3.4146">
        <ele>47</ele>
        <time>2019-07-17T14:52:11Z</time>
      </trkpt>
      <trkpt lat="47.84481" lon="-3.41469">
        <ele>47</ele>
        <time>2019-07-17T14:52:12Z</time>
      </trkpt>
      <trkpt lat="47.84482" lon="-3.41479">
        <ele>47</ele>
        <time>2019-07-17T14:52:13Z</time>
      </trkpt>
      <trkpt lat="47.84483" lon="-3.41489">
        <ele>46</ele>
        <time>2019-07-17T14:52:14Z</time>
      </trkpt>
      <trkpt lat="47.84484" lon="-3.41499">
        <ele>46</ele>
        <time>2019-07-17T14:52:15Z</time>
      </trkpt>
      <trkpt lat="47.84485" lon="-3.41509">
        <ele>46</ele>
        <time>2019-07-17T14:52:16Z</time>
      </trkpt>
      <trkpt lat="47.84486" lon="-3.41518">
        <ele>46</ele>
        <time>2019-07-17T14:52:17Z</time>
      </trkpt>
      <trkpt lat="47.84489" lon="-3.41528">
        <ele>46</ele>
        <time>2019-07-17T14:52:18Z</time>
      </trkpt>
      <trkpt lat="47.84492" lon="-3.41537">
        <ele>46</ele>
        <time>2019-07-17T14:52:19Z</time>
      </trkpt>
      <trkpt lat="47.84495" lon="-3.41546">
        <ele>46</ele>
        <time>2019-07-17T14:52:20Z</time>
      </trkpt>
      <trkpt lat="47.84498" lon="-3.41555">
        <ele>46</ele>
        <time>2019-07-17T14:52:21Z</time>
      </trkpt>
      <trkpt lat="47.84504" lon="-3.41573">
        <ele>46</ele>
        <time>2019-07-17T14:52:22Z</time>
      </trkpt>
      <trkpt lat="47.84504" lon="-3.41573">
        <ele>46</ele>
        <time>2019-07-17T14:52:23Z</time>
      </trkpt>
      <trkpt lat="47.84507" lon="-3.41582">
        <ele>46</ele>
        <time>2019-07-17T14:52:24Z</time>
      </trkpt>
      <trkpt lat="47.84511" lon="-3.41591">
        <ele>45</ele>
        <time>2019-07-17T14:52:25Z</time>
      </trkpt>
      <trkpt lat="47.84514" lon="-3.416">
        <ele>45</ele>
        <time>2019-07-17T14:52:26Z</time>
      </trkpt>
      <trkpt lat="47.84517" lon="-3.41609">
        <ele>45</ele>
        <time>2019-07-17T14:52:27Z</time>
      </trkpt>
      <trkpt lat="47.8452" lon="-3.41618">
        <ele>45</ele>
        <time>2019-07-17T14:52:28Z</time>
      </trkpt>
      <trkpt lat="47.84524" lon="-3.41627">
        <ele>45</ele>
        <time>2019-07-17T14:52:29Z</time>
      </trkpt>
      <trkpt lat="47.84527" lon="-3.41636">
        <ele>45</ele>
        <time>2019-07-17T14:52:30Z</time>
      </trkpt>
      <trkpt lat="47.84531" lon="-3.41646">
        <ele>45</ele>
        <time>2019-07-17T14:52:31Z</time>
      </trkpt>
      <trkpt lat="47.84534" lon="-3.41655">
        <ele>45</ele>
        <time>2019-07-17T14:52:32Z</time>
      </trkpt>
      <trkpt lat="47.84537" lon="-3.41664">
        <ele>45</ele>
        <time>2019-07-17T14:52:33Z</time>
      </trkpt>
      <trkpt lat="47.84541" lon="-3.41674">
        <ele>45</ele>
        <time>2019-07-17T14:52:34Z</time>
      </trkpt>
      <trkpt lat="47.84544" lon="-3.41683">
        <ele>45</ele>
        <time>2019-07-17T14:52:35Z</time>
      </trkpt>
      <trkpt lat="47.84547" lon="-3.41692">
        <ele>45</ele>
        <time>2019-07-17T14:52:36Z</time>
      </trkpt>
      <trkpt lat="47.84551" lon="-3.41701">
        <ele>45</ele>
        <time>2019-07-17T14:52:37Z</time>
      </trkpt>
      <trkpt lat="47.84554" lon="-3.4171">
        <ele>45</ele>
        <time>2019-07-17T14:52:38Z</time>
      </trkpt>
      <trkpt lat="47.84557" lon="-3.41719">
        <ele>45</ele>
        <time>2019-07-17T14:52:39Z</time>
      </trkpt>
      <trkpt lat="47.84561" lon="-3.41728">
        <ele>45</ele>
        <time>2019-07-17T14:52:40Z</time>
      </trkpt>
      <trkpt lat="47.84564" lon="-3.41737">
        <ele>44</ele>
        <time>2019-07-17T14:52:41Z</time>
      </trkpt>
      <trkpt lat="47.84567" lon="-3.41746">
        <ele>44</ele>
        <time>2019-07-17T14:52:42Z</time>
      </trkpt>
      <trkpt lat="47.84569" lon="-3.41756">
        <ele>44</ele>
        <time>2019-07-17T14:52:43Z</time>
      </trkpt>
      <trkpt lat="47.84572" lon="-3.41765">
        <ele>44</ele>
        <time>2019-07-17T14:52:44Z</time>
      </trkpt>
      <trkpt lat="47.84574" lon="-3.41775">
        <ele>44</ele>
        <time>2019-07-17T14:52:45Z</time>
      </trkpt>
      <trkpt lat="47.84577" lon="-3.41785">
        <ele>44</ele>
        <time>2019-07-17T14:52:46Z</time>
      </trkpt>
      <trkpt lat="47.84579" lon="-3.41795">
        <ele>44</ele>
        <time>2019-07-17T14:52:47Z</time>
      </trkpt>
      <trkpt lat="47.84581" lon="-3.41805">
        <ele>44</ele>
        <time>2019-07-17T14:52:48Z</time>
      </trkpt>
      <trkpt lat="47.84584" lon="-3.41815">
        <ele>43</ele>
        <time>2019-07-17T14:52:49Z</time>
      </trkpt>
      <trkpt lat="47.84586" lon="-3.41826">
        <ele>43</ele>
        <time>2019-07-17T14:52:50Z</time>
      </trkpt>
      <trkpt lat="47.84589" lon="-3.41837">
        <ele>43</ele>
        <time>2019-07-17T14:52:51Z</time>
      </trkpt>
      <trkpt lat="47.84591" lon="-3.41848">
        <ele>43</ele>
        <time>2019-07-17T14:52:52Z</time>
      </trkpt>
      <trkpt lat="47.84594" lon="-3.41859">
        <ele>43</ele>
        <time>2019-07-17T14:52:53Z</time>
      </trkpt>
      <trkpt lat="47.84597" lon="-3.4187">
        <ele>42</ele>
        <time>2019-07-17T14:52:54Z</time>
      </trkpt>
      <trkpt lat="47.846" lon="-3.41881">
        <ele>42</ele>
        <time>2019-07-17T14:52:55Z</time>
      </trkpt>
      <trkpt lat="47.84602" lon="-3.41893">
        <ele>42</ele>
        <time>2019-07-17T14:52:56Z</time>
      </trkpt>
      <trkpt lat="47.84605" lon="-3.41904">
        <ele>41</ele>
        <time>2019-07-17T14:52:57Z</time>
      </trkpt>
      <trkpt lat="47.84607" lon="-3.41916">
        <ele>41</ele>
        <time>2019-07-17T14:52:58Z</time>
      </trkpt>
      <trkpt lat="47.8461" lon="-3.41927">
        <ele>41</ele>
        <time>2019-07-17T14:52:59Z</time>
      </trkpt>
      <trkpt lat="47.84612" lon="-3.41939">
        <ele>40</ele>
        <time>2019-07-17T14:53:00Z</time>
      </trkpt>
      <trkpt lat="47.84613" lon="-3.4195">
        <ele>40</ele>
        <time>2019-07-17T14:53:01Z</time>
      </trkpt>
      <trkpt lat="47.84614" lon="-3.41962">
        <ele>40</ele>
        <time>2019-07-17T14:53:02Z</time>
      </trkpt>
      <trkpt lat="47.84615" lon="-3.41974">
        <ele>39</ele>
        <time>2019-07-17T14:53:03Z</time>
      </trkpt>
      <trkpt lat="47.84615" lon="-3.41985">
        <ele>39</ele>
        <time>2019-07-17T14:53:04Z</time>
      </trkpt>
      <trkpt lat="47.84613" lon="-3.41997">
        <ele>39</ele>
        <time>2019-07-17T14:53:05Z</time>
      </trkpt>
      <trkpt lat="47.84612" lon="-3.4201">
        <ele>39</ele>
        <time>2019-07-17T14:53:06Z</time>
      </trkpt>
      <trkpt lat="47.8461" lon="-3.42021">
        <ele>38</ele>
        <time>2019-07-17T14:53:07Z</time>
      </trkpt>
      <trkpt lat="47.84609" lon="-3.42033">
        <ele>38</ele>
        <time>2019-07-17T14:53:08Z</time>
      </trkpt>
      <trkpt lat="47.84606" lon="-3.42059">
        <ele>38</ele>
        <time>2019-07-17T14:53:09Z</time>
      </trkpt>
      <trkpt lat="47.84606" lon="-3.42059">
        <ele>38</ele>
        <time>2019-07-17T14:53:10Z</time>
      </trkpt>
      <trkpt lat="47.84604" lon="-3.42071">
        <ele>38</ele>
        <time>2019-07-17T14:53:11Z</time>
      </trkpt>
      <trkpt lat="47.84603" lon="-3.42084">
        <ele>38</ele>
        <time>2019-07-17T14:53:12Z</time>
      </trkpt>
      <trkpt lat="47.84601" lon="-3.42097">
        <ele>37</ele>
        <time>2019-07-17T14:53:13Z</time>
      </trkpt>
      <trkpt lat="47.84599" lon="-3.4211">
        <ele>37</ele>
        <time>2019-07-17T14:53:14Z</time>
      </trkpt>
      <trkpt lat="47.84596" lon="-3.42123">
        <ele>37</ele>
        <time>2019-07-17T14:53:15Z</time>
      </trkpt>
      <trkpt lat="47.84592" lon="-3.42134">
        <ele>37</ele>
        <time>2019-07-17T14:53:16Z</time>
      </trkpt>
      <trkpt lat="47.84588" lon="-3.42145">
        <ele>37</ele>
        <time>2019-07-17T14:53:17Z</time>
      </trkpt>
      <trkpt lat="47.84583" lon="-3.42154">
        <ele>37</ele>
        <time>2019-07-17T14:53:18Z</time>
      </trkpt>
      <trkpt lat="47.84577" lon="-3.42161">
        <ele>37</ele>
        <time>2019-07-17T14:53:19Z</time>
      </trkpt>
      <trkpt lat="47.84571" lon="-3.42168">
        <ele>37</ele>
        <time>2019-07-17T14:53:20Z</time>
      </trkpt>
      <trkpt lat="47.84565" lon="-3.42175">
        <ele>37</ele>
        <time>2019-07-17T14:53:21Z</time>
      </trkpt>
      <trkpt lat="47.84559" lon="-3.42182">
        <ele>37</ele>
        <time>2019-07-17T14:53:22Z</time>
      </trkpt>
      <trkpt lat="47.84547" lon="-3.42196">
        <ele>37</ele>
        <time>2019-07-17T14:53:23Z</time>
      </trkpt>
      <trkpt lat="47.84547" lon="-3.42196">
        <ele>37</ele>
        <time>2019-07-17T14:53:24Z</time>
      </trkpt>
      <trkpt lat="47.84541" lon="-3.42204">
        <ele>37</ele>
        <time>2019-07-17T14:53:25Z</time>
      </trkpt>
      <trkpt lat="47.84536" lon="-3.42213">
        <ele>37</ele>
        <time>2019-07-17T14:53:26Z</time>
      </trkpt>
      <trkpt lat="47.8453" lon="-3.42222">
        <ele>37</ele>
        <time>2019-07-17T14:53:27Z</time>
      </trkpt>
      <trkpt lat="47.84525" lon="-3.42231">
        <ele>37</ele>
        <time>2019-07-17T14:53:28Z</time>
      </trkpt>
      <trkpt lat="47.84519" lon="-3.4224">
        <ele>37</ele>
        <time>2019-07-17T14:53:29Z</time>
      </trkpt>
      <trkpt lat="47.84514" lon="-3.42249">
        <ele>37</ele>
        <time>2019-07-17T14:53:30Z</time>
      </trkpt>
      <trkpt lat="47.84508" lon="-3.42258">
        <ele>37</ele>
        <time>2019-07-17T14:53:31Z</time>
      </trkpt>
      <trkpt lat="47.84503" lon="-3.42267">
        <ele>37</ele>
        <time>2019-07-17T14:53:32Z</time>
      </trkpt>
      <trkpt lat="47.84498" lon="-3.42276">
        <ele>37</ele>
        <time>2019-07-17T14:53:33Z</time>
      </trkpt>
      <trkpt lat="47.84488" lon="-3.42295">
        <ele>37</ele>
        <time>2019-07-17T14:53:34Z</time>
      </trkpt>
      <trkpt lat="47.84488" lon="-3.42295">
        <ele>37</ele>
        <time>2019-07-17T14:53:35Z</time>
      </trkpt>
      <trkpt lat="47.84482" lon="-3.42305">
        <ele>37</ele>
        <time>2019-07-17T14:53:36Z</time>
      </trkpt>
      <trkpt lat="47.84476" lon="-3.42314">
        <ele>37</ele>
        <time>2019-07-17T14:53:37Z</time>
      </trkpt>
      <trkpt lat="47.84471" lon="-3.42323">
        <ele>37</ele>
        <time>2019-07-17T14:53:38Z</time>
      </trkpt>
      <trkpt lat="47.84465" lon="-3.42333">
        <ele>37</ele>
        <time>2019-07-17T14:53:39Z</time>
      </trkpt>
      <trkpt lat="47.84453" lon="-3.42352">
        <ele>36</ele>
        <time>2019-07-17T14:53:40Z</time>
      </trkpt>
      <trkpt lat="47.84453" lon="-3.42352">
        <ele>36</ele>
        <time>2019-07-17T14:53:41Z</time>
      </trkpt>
      <trkpt lat="47.84448" lon="-3.42362">
        <ele>36</ele>
        <time>2019-07-17T14:53:42Z</time>
      </trkpt>
      <trkpt lat="47.84441" lon="-3.42372">
        <ele>36</ele>
        <time>2019-07-17T14:53:43Z</time>
      </trkpt>
      <trkpt lat="47.84436" lon="-3.42382">
        <ele>36</ele>
        <time>2019-07-17T14:53:44Z</time>
      </trkpt>
      <trkpt lat="47.8443" lon="-3.42392">
        <ele>37</ele>
        <time>2019-07-17T14:53:45Z</time>
      </trkpt>
      <trkpt lat="47.84426" lon="-3.42402">
        <ele>37</ele>
        <time>2019-07-17T14:53:46Z</time>
      </trkpt>
      <trkpt lat="47.84422" lon="-3.42411">
        <ele>37</ele>
        <time>2019-07-17T14:53:47Z</time>
      </trkpt>
      <trkpt lat="47.84418" lon="-3.4242">
        <ele>37</ele>
        <time>2019-07-17T14:53:48Z</time>
      </trkpt>
      <trkpt lat="47.84415" lon="-3.42427">
        <ele>37</ele>
        <time>2019-07-17T14:53:49Z</time>
      </trkpt>
      <trkpt lat="47.84412" lon="-3.42435">
        <ele>37</ele>
        <time>2019-07-17T14:53:50Z</time>
      </trkpt>
      <trkpt lat="47.8441" lon="-3.42442">
        <ele>37</ele>
        <time>2019-07-17T14:53:51Z</time>
      </trkpt>
      <trkpt lat="47.84408" lon="-3.42449">
        <ele>38</ele>
        <time>2019-07-17T14:53:52Z</time>
      </trkpt>
      <trkpt lat="47.84406" lon="-3.42457">
        <ele>38</ele>
        <time>2019-07-17T14:53:53Z</time>
      </trkpt>
      <trkpt lat="47.84405" lon="-3.42465">
        <ele>38</ele>
        <time>2019-07-17T14:53:54Z</time>
      </trkpt>
      <trkpt lat="47.84403" lon="-3.42473">
        <ele>38</ele>
        <time>2019-07-17T14:53:55Z</time>
      </trkpt>
      <trkpt lat="47.84403" lon="-3.42482">
        <ele>38</ele>
        <time>2019-07-17T14:53:56Z</time>
      </trkpt>
      <trkpt lat="47.84402" lon="-3.42491">
        <ele>38</ele>
        <time>2019-07-17T14:53:57Z</time>
      </trkpt>
      <trkpt lat="47.84402" lon="-3.425">
        <ele>38</ele>
        <time>2019-07-17T14:53:58Z</time>
      </trkpt>
      <trkpt lat="47.84402" lon="-3.42509">
        <ele>39</ele>
        <time>2019-07-17T14:53:59Z</time>
      </trkpt>
      <trkpt lat="47.84402" lon="-3.42518">
        <ele>39</ele>
        <time>2019-07-17T14:54:00Z</time>
      </trkpt>
      <trkpt lat="47.84402" lon="-3.42528">
        <ele>39</ele>
        <time>2019-07-17T14:54:01Z</time>
      </trkpt>
      <trkpt lat="47.84403" lon="-3.42537">
        <ele>39</ele>
        <time>2019-07-17T14:54:02Z</time>
      </trkpt>
      <trkpt lat="47.84404" lon="-3.42546">
        <ele>39</ele>
        <time>2019-07-17T14:54:03Z</time>
      </trkpt>
      <trkpt lat="47.84405" lon="-3.42556">
        <ele>39</ele>
        <time>2019-07-17T14:54:04Z</time>
      </trkpt>
      <trkpt lat="47.84405" lon="-3.42566">
        <ele>39</ele>
        <time>2019-07-17T14:54:05Z</time>
      </trkpt>
      <trkpt lat="47.84406" lon="-3.42575">
        <ele>40</ele>
        <time>2019-07-17T14:54:06Z</time>
      </trkpt>
      <trkpt lat="47.84406" lon="-3.42585">
        <ele>40</ele>
        <time>2019-07-17T14:54:07Z</time>
      </trkpt>
      <trkpt lat="47.84407" lon="-3.42595">
        <ele>40</ele>
        <time>2019-07-17T14:54:08Z</time>
      </trkpt>
      <trkpt lat="47.84408" lon="-3.42605">
        <ele>40</ele>
        <time>2019-07-17T14:54:09Z</time>
      </trkpt>
      <trkpt lat="47.84408" lon="-3.42615">
        <ele>40</ele>
        <time>2019-07-17T14:54:10Z</time>
      </trkpt>
      <trkpt lat="47.84409" lon="-3.42625">
        <ele>40</ele>
        <time>2019-07-17T14:54:11Z</time>
      </trkpt>
      <trkpt lat="47.8441" lon="-3.42635">
        <ele>40</ele>
        <time>2019-07-17T14:54:12Z</time>
      </trkpt>
      <trkpt lat="47.84411" lon="-3.42645">
        <ele>40</ele>
        <time>2019-07-17T14:54:13Z</time>
      </trkpt>
      <trkpt lat="47.84411" lon="-3.42655">
        <ele>40</ele>
        <time>2019-07-17T14:54:14Z</time>
      </trkpt>
      <trkpt lat="47.84412" lon="-3.42665">
        <ele>40</ele>
        <time>2019-07-17T14:54:15Z</time>
      </trkpt>
      <trkpt lat="47.84412" lon="-3.42676">
        <ele>39</ele>
        <time>2019-07-17T14:54:16Z</time>
      </trkpt>
      <trkpt lat="47.84412" lon="-3.42686">
        <ele>39</ele>
        <time>2019-07-17T14:54:17Z</time>
      </trkpt>
      <trkpt lat="47.84413" lon="-3.42696">
        <ele>39</ele>
        <time>2019-07-17T14:54:18Z</time>
      </trkpt>
      <trkpt lat="47.84413" lon="-3.42707">
        <ele>39</ele>
        <time>2019-07-17T14:54:19Z</time>
      </trkpt>
      <trkpt lat="47.84412" lon="-3.42717">
        <ele>39</ele>
        <time>2019-07-17T14:54:20Z</time>
      </trkpt>
      <trkpt lat="47.84412" lon="-3.42729">
        <ele>39</ele>
        <time>2019-07-17T14:54:21Z</time>
      </trkpt>
      <trkpt lat="47.84412" lon="-3.4274">
        <ele>38</ele>
        <time>2019-07-17T14:54:22Z</time>
      </trkpt>
      <trkpt lat="47.84412" lon="-3.42751">
        <ele>38</ele>
        <time>2019-07-17T14:54:23Z</time>
      </trkpt>
      <trkpt lat="47.84411" lon="-3.42762">
        <ele>38</ele>
        <time>2019-07-17T14:54:24Z</time>
      </trkpt>
      <trkpt lat="47.84411" lon="-3.42774">
        <ele>37</ele>
        <time>2019-07-17T14:54:25Z</time>
      </trkpt>
      <trkpt lat="47.8441" lon="-3.42786">
        <ele>37</ele>
        <time>2019-07-17T14:54:26Z</time>
      </trkpt>
      <trkpt lat="47.8441" lon="-3.42797">
        <ele>37</ele>
        <time>2019-07-17T14:54:27Z</time>
      </trkpt>
      <trkpt lat="47.8441" lon="-3.42809">
        <ele>36</ele>
        <time>2019-07-17T14:54:28Z</time>
      </trkpt>
      <trkpt lat="47.84409" lon="-3.42821">
        <ele>36</ele>
        <time>2019-07-17T14:54:29Z</time>
      </trkpt>
      <trkpt lat="47.84409" lon="-3.42832">
        <ele>36</ele>
        <time>2019-07-17T14:54:30Z</time>
      </trkpt>
      <trkpt lat="47.84408" lon="-3.42844">
        <ele>35</ele>
        <time>2019-07-17T14:54:31Z</time>
      </trkpt>
      <trkpt lat="47.84407" lon="-3.42856">
        <ele>35</ele>
        <time>2019-07-17T14:54:32Z</time>
      </trkpt>
      <trkpt lat="47.84406" lon="-3.42869">
        <ele>35</ele>
        <time>2019-07-17T14:54:33Z</time>
      </trkpt>
      <trkpt lat="47.84406" lon="-3.42881">
        <ele>35</ele>
        <time>2019-07-17T14:54:34Z</time>
      </trkpt>
      <trkpt lat="47.84406" lon="-3.42894">
        <ele>34</ele>
        <time>2019-07-17T14:54:35Z</time>
      </trkpt>
      <trkpt lat="47.84405" lon="-3.42907">
        <ele>34</ele>
        <time>2019-07-17T14:54:36Z</time>
      </trkpt>
      <trkpt lat="47.84405" lon="-3.4292">
        <ele>34</ele>
        <time>2019-07-17T14:54:37Z</time>
      </trkpt>
      <trkpt lat="47.84404" lon="-3.42933">
        <ele>33</ele>
        <time>2019-07-17T14:54:38Z</time>
      </trkpt>
      <trkpt lat="47.84403" lon="-3.42946">
        <ele>33</ele>
        <time>2019-07-17T14:54:39Z</time>
      </trkpt>
      <trkpt lat="47.84403" lon="-3.42959">
        <ele>33</ele>
        <time>2019-07-17T14:54:40Z</time>
      </trkpt>
      <trkpt lat="47.84403" lon="-3.42973">
        <ele>32</ele>
        <time>2019-07-17T14:54:41Z</time>
      </trkpt>
      <trkpt lat="47.84402" lon="-3.42987">
        <ele>32</ele>
        <time>2019-07-17T14:54:42Z</time>
      </trkpt>
      <trkpt lat="47.84402" lon="-3.43001">
        <ele>31</ele>
        <time>2019-07-17T14:54:43Z</time>
      </trkpt>
      <trkpt lat="47.84403" lon="-3.43015">
        <ele>31</ele>
        <time>2019-07-17T14:54:44Z</time>
      </trkpt>
      <trkpt lat="47.84403" lon="-3.43029">
        <ele>31</ele>
        <time>2019-07-17T14:54:45Z</time>
      </trkpt>
      <trkpt lat="47.84405" lon="-3.43043">
        <ele>30</ele>
        <time>2019-07-17T14:54:46Z</time>
      </trkpt>
      <trkpt lat="47.84407" lon="-3.43056">
        <ele>30</ele>
        <time>2019-07-17T14:54:47Z</time>
      </trkpt>
      <trkpt lat="47.84409" lon="-3.43068">
        <ele>30</ele>
        <time>2019-07-17T14:54:48Z</time>
      </trkpt>
      <trkpt lat="47.84411" lon="-3.4308">
        <ele>30</ele>
        <time>2019-07-17T14:54:49Z</time>
      </trkpt>
      <trkpt lat="47.84413" lon="-3.43091">
        <ele>30</ele>
        <time>2019-07-17T14:54:50Z</time>
      </trkpt>
      <trkpt lat="47.84415" lon="-3.43101">
        <ele>30</ele>
        <time>2019-07-17T14:54:51Z</time>
      </trkpt>
      <trkpt lat="47.84417" lon="-3.43112">
        <ele>31</ele>
        <time>2019-07-17T14:54:52Z</time>
      </trkpt>
      <trkpt lat="47.84419" lon="-3.43122">
        <ele>31</ele>
        <time>2019-07-17T14:54:53Z</time>
      </trkpt>
      <trkpt lat="47.84421" lon="-3.43132">
        <ele>31</ele>
        <time>2019-07-17T14:54:54Z</time>
      </trkpt>
      <trkpt lat="47.84423" lon="-3.43142">
        <ele>31</ele>
        <time>2019-07-17T14:54:55Z</time>
      </trkpt>
      <trkpt lat="47.84425" lon="-3.43152">
        <ele>31</ele>
        <time>2019-07-17T14:54:56Z</time>
      </trkpt>
      <trkpt lat="47.84427" lon="-3.43161">
        <ele>31</ele>
        <time>2019-07-17T14:54:57Z</time>
      </trkpt>
      <trkpt lat="47.8443" lon="-3.4318">
        <ele>31</ele>
        <time>2019-07-17T14:54:58Z</time>
      </trkpt>
      <trkpt lat="47.8443" lon="-3.4318">
        <ele>31</ele>
        <time>2019-07-17T14:54:59Z</time>
      </trkpt>
      <trkpt lat="47.84432" lon="-3.43189">
        <ele>31</ele>
        <time>2019-07-17T14:55:00Z</time>
      </trkpt>
      <trkpt lat="47.84434" lon="-3.43199">
        <ele>31</ele>
        <time>2019-07-17T14:55:01Z</time>
      </trkpt>
      <trkpt lat="47.84436" lon="-3.43208">
        <ele>31</ele>
        <time>2019-07-17T14:55:02Z</time>
      </trkpt>
      <trkpt lat="47.84437" lon="-3.43217">
        <ele>31</ele>
        <time>2019-07-17T14:55:03Z</time>
      </trkpt>
      <trkpt lat="47.84439" lon="-3.43227">
        <ele>31</ele>
        <time>2019-07-17T14:55:04Z</time>
      </trkpt>
      <trkpt lat="47.84441" lon="-3.43236">
        <ele>32</ele>
        <time>2019-07-17T14:55:05Z</time>
      </trkpt>
      <trkpt lat="47.84442" lon="-3.43245">
        <ele>32</ele>
        <time>2019-07-17T14:55:06Z</time>
      </trkpt>
      <trkpt lat="47.84444" lon="-3.43254">
        <ele>32</ele>
        <time>2019-07-17T14:55:07Z</time>
      </trkpt>
      <trkpt lat="47.84446" lon="-3.43264">
        <ele>32</ele>
        <time>2019-07-17T14:55:08Z</time>
      </trkpt>
      <trkpt lat="47.84447" lon="-3.43273">
        <ele>32</ele>
        <time>2019-07-17T14:55:09Z</time>
      </trkpt>
      <trkpt lat="47.84448" lon="-3.43283">
        <ele>32</ele>
        <time>2019-07-17T14:55:10Z</time>
      </trkpt>
      <trkpt lat="47.8445" lon="-3.43292">
        <ele>32</ele>
        <time>2019-07-17T14:55:11Z</time>
      </trkpt>
      <trkpt lat="47.84451" lon="-3.43301">
        <ele>32</ele>
        <time>2019-07-17T14:55:12Z</time>
      </trkpt>
      <trkpt lat="47.84452" lon="-3.43311">
        <ele>32</ele>
        <time>2019-07-17T14:55:13Z</time>
      </trkpt>
      <trkpt lat="47.84453" lon="-3.4332">
        <ele>32</ele>
        <time>2019-07-17T14:55:14Z</time>
      </trkpt>
      <trkpt lat="47.84454" lon="-3.43329">
        <ele>32</ele>
        <time>2019-07-17T14:55:15Z</time>
      </trkpt>
      <trkpt lat="47.84454" lon="-3.43339">
        <ele>32</ele>
        <time>2019-07-17T14:55:16Z</time>
      </trkpt>
      <trkpt lat="47.84455" lon="-3.43348">
        <ele>32</ele>
        <time>2019-07-17T14:55:17Z</time>
      </trkpt>
      <trkpt lat="47.84455" lon="-3.43357">
        <ele>32</ele>
        <time>2019-07-17T14:55:18Z</time>
      </trkpt>
      <trkpt lat="47.84455" lon="-3.43367">
        <ele>32</ele>
        <time>2019-07-17T14:55:19Z</time>
      </trkpt>
      <trkpt lat="47.84455" lon="-3.43376">
        <ele>32</ele>
        <time>2019-07-17T14:55:20Z</time>
      </trkpt>
      <trkpt lat="47.84455" lon="-3.43385">
        <ele>32</ele>
        <time>2019-07-17T14:55:21Z</time>
      </trkpt>
      <trkpt lat="47.84454" lon="-3.43394">
        <ele>32</ele>
        <time>2019-07-17T14:55:22Z</time>
      </trkpt>
      <trkpt lat="47.84452" lon="-3.43403">
        <ele>32</ele>
        <time>2019-07-17T14:55:23Z</time>
      </trkpt>
      <trkpt lat="47.84451" lon="-3.43412">
        <ele>32</ele>
        <time>2019-07-17T14:55:24Z</time>
      </trkpt>
      <trkpt lat="47.84449" lon="-3.43421">
        <ele>32</ele>
        <time>2019-07-17T14:55:25Z</time>
      </trkpt>
      <trkpt lat="47.84447" lon="-3.4343">
        <ele>32</ele>
        <time>2019-07-17T14:55:26Z</time>
      </trkpt>
      <trkpt lat="47.84445" lon="-3.43438">
        <ele>32</ele>
        <time>2019-07-17T14:55:27Z</time>
      </trkpt>
      <trkpt lat="47.84442" lon="-3.43447">
        <ele>33</ele>
        <time>2019-07-17T14:55:28Z</time>
      </trkpt>
      <trkpt lat="47.84439" lon="-3.43455">
        <ele>33</ele>
        <time>2019-07-17T14:55:29Z</time>
      </trkpt>
      <trkpt lat="47.84437" lon="-3.43463">
        <ele>33</ele>
        <time>2019-07-17T14:55:30Z</time>
      </trkpt>
      <trkpt lat="47.84434" lon="-3.43471">
        <ele>33</ele>
        <time>2019-07-17T14:55:31Z</time>
      </trkpt>
      <trkpt lat="47.84431" lon="-3.43479">
        <ele>33</ele>
        <time>2019-07-17T14:55:32Z</time>
      </trkpt>
      <trkpt lat="47.84428" lon="-3.43487">
        <ele>33</ele>
        <time>2019-07-17T14:55:33Z</time>
      </trkpt>
      <trkpt lat="47.84425" lon="-3.43495">
        <ele>33</ele>
        <time>2019-07-17T14:55:34Z</time>
      </trkpt>
      <trkpt lat="47.84422" lon="-3.43501">
        <ele>33</ele>
        <time>2019-07-17T14:55:35Z</time>
      </trkpt>
      <trkpt lat="47.84419" lon="-3.43508">
        <ele>33</ele>
        <time>2019-07-17T14:55:36Z</time>
      </trkpt>
      <trkpt lat="47.84415" lon="-3.43514">
        <ele>33</ele>
        <time>2019-07-17T14:55:37Z</time>
      </trkpt>
      <trkpt lat="47.84412" lon="-3.4352">
        <ele>33</ele>
        <time>2019-07-17T14:55:38Z</time>
      </trkpt>
      <trkpt lat="47.84407" lon="-3.43527">
        <ele>33</ele>
        <time>2019-07-17T14:55:39Z</time>
      </trkpt>
      <trkpt lat="47.84403" lon="-3.43533">
        <ele>33</ele>
        <time>2019-07-17T14:55:40Z</time>
      </trkpt>
      <trkpt lat="47.84398" lon="-3.43538">
        <ele>33</ele>
        <time>2019-07-17T14:55:41Z</time>
      </trkpt>
      <trkpt lat="47.84393" lon="-3.43543">
        <ele>33</ele>
        <time>2019-07-17T14:55:42Z</time>
      </trkpt>
      <trkpt lat="47.84388" lon="-3.43547">
        <ele>33</ele>
        <time>2019-07-17T14:55:43Z</time>
      </trkpt>
      <trkpt lat="47.84383" lon="-3.43551">
        <ele>33</ele>
        <time>2019-07-17T14:55:44Z</time>
      </trkpt>
      <trkpt lat="47.84378" lon="-3.43554">
        <ele>34</ele>
        <time>2019-07-17T14:55:45Z</time>
      </trkpt>
      <trkpt lat="47.84373" lon="-3.43556">
        <ele>34</ele>
        <time>2019-07-17T14:55:46Z</time>
      </trkpt>
      <trkpt lat="47.84368" lon="-3.43559">
        <ele>34</ele>
        <time>2019-07-17T14:55:47Z</time>
      </trkpt>
      <trkpt lat="47.84363" lon="-3.4356">
        <ele>34</ele>
        <time>2019-07-17T14:55:48Z</time>
      </trkpt>
      <trkpt lat="47.84357" lon="-3.43562">
        <ele>35</ele>
        <time>2019-07-17T14:55:49Z</time>
      </trkpt>
      <trkpt lat="47.84352" lon="-3.43563">
        <ele>35</ele>
        <time>2019-07-17T14:55:50Z</time>
      </trkpt>
      <trkpt lat="47.84347" lon="-3.43565">
        <ele>35</ele>
        <time>2019-07-17T14:55:51Z</time>
      </trkpt>
      <trkpt lat="47.84342" lon="-3.43568">
        <ele>36</ele>
        <time>2019-07-17T14:55:52Z</time>
      </trkpt>
      <trkpt lat="47.84336" lon="-3.4357">
        <ele>36</ele>
        <time>2019-07-17T14:55:53Z</time>
      </trkpt>
      <trkpt lat="47.84331" lon="-3.43574">
        <ele>36</ele>
        <time>2019-07-17T14:55:54Z</time>
      </trkpt>
      <trkpt lat="47.84326" lon="-3.43578">
        <ele>36</ele>
        <time>2019-07-17T14:55:55Z</time>
      </trkpt>
      <trkpt lat="47.84321" lon="-3.43583">
        <ele>37</ele>
        <time>2019-07-17T14:55:56Z</time>
      </trkpt>
      <trkpt lat="47.84316" lon="-3.43588">
        <ele>37</ele>
        <time>2019-07-17T14:55:57Z</time>
      </trkpt>
      <trkpt lat="47.84313" lon="-3.43594">
        <ele>37</ele>
        <time>2019-07-17T14:55:58Z</time>
      </trkpt>
      <trkpt lat="47.84314" lon="-3.43601">
        <ele>37</ele>
        <time>2019-07-17T14:55:59Z</time>
      </trkpt>
      <trkpt lat="47.84316" lon="-3.43605">
        <ele>37</ele>
        <time>2019-07-17T14:56:00Z</time>
      </trkpt>
      <trkpt lat="47.84319" lon="-3.43608">
        <ele>38</ele>
        <time>2019-07-17T14:56:01Z</time>
      </trkpt>
      <trkpt lat="47.84322" lon="-3.43609">
        <ele>38</ele>
        <time>2019-07-17T14:56:02Z</time>
      </trkpt>
      <trkpt lat="47.84323" lon="-3.4361">
        <ele>38</ele>
        <time>2019-07-17T14:56:03Z</time>
      </trkpt>
      <trkpt lat="47.84323" lon="-3.4361">
        <ele>39</ele>
        <time>2019-07-17T14:56:04Z</time>
      </trkpt>
      <trkpt lat="47.84323" lon="-3.4361">
        <ele>39</ele>
        <time>2019-07-17T14:56:05Z</time>
      </trkpt>
      <trkpt lat="47.84323" lon="-3.4361">
        <ele>39</ele>
        <time>2019-07-17T14:56:06Z</time>
      </trkpt>
      <trkpt lat="47.8432" lon="-3.43611">
        <ele>40</ele>
        <time>2019-07-17T14:56:07Z</time>
      </trkpt>
      <trkpt lat="47.84318" lon="-3.43609">
        <ele>40</ele>
        <time>2019-07-17T14:56:08Z</time>
      </trkpt>
      <trkpt lat="47.84315" lon="-3.43608">
        <ele>40</ele>
        <time>2019-07-17T14:56:09Z</time>
      </trkpt>
      <trkpt lat="47.84312" lon="-3.43607">
        <ele>40</ele>
        <time>2019-07-17T14:56:10Z</time>
      </trkpt>
      <trkpt lat="47.84308" lon="-3.43608">
        <ele>40</ele>
        <time>2019-07-17T14:56:11Z</time>
      </trkpt>
      <trkpt lat="47.84304" lon="-3.43611">
        <ele>40</ele>
        <time>2019-07-17T14:56:12Z</time>
      </trkpt>
      <trkpt lat="47.84301" lon="-3.43615">
        <ele>40</ele>
        <time>2019-07-17T14:56:13Z</time>
      </trkpt>
      <trkpt lat="47.84298" lon="-3.4362">
        <ele>39</ele>
        <time>2019-07-17T14:56:14Z</time>
      </trkpt>
      <trkpt lat="47.84297" lon="-3.43626">
        <ele>39</ele>
        <time>2019-07-17T14:56:15Z</time>
      </trkpt>
      <trkpt lat="47.84295" lon="-3.43633">
        <ele>39</ele>
        <time>2019-07-17T14:56:16Z</time>
      </trkpt>
      <trkpt lat="47.84295" lon="-3.4364">
        <ele>39</ele>
        <time>2019-07-17T14:56:17Z</time>
      </trkpt>
      <trkpt lat="47.84298" lon="-3.43645">
        <ele>39</ele>
        <time>2019-07-17T14:56:18Z</time>
      </trkpt>
      <trkpt lat="47.84301" lon="-3.43649">
        <ele>39</ele>
        <time>2019-07-17T14:56:19Z</time>
      </trkpt>
      <trkpt lat="47.84304" lon="-3.43652">
        <ele>39</ele>
        <time>2019-07-17T14:56:20Z</time>
      </trkpt>
      <trkpt lat="47.84308" lon="-3.43654">
        <ele>39</ele>
        <time>2019-07-17T14:56:21Z</time>
      </trkpt>
      <trkpt lat="47.84312" lon="-3.43656">
        <ele>39</ele>
        <time>2019-07-17T14:56:22Z</time>
      </trkpt>
      <trkpt lat="47.84316" lon="-3.43659">
        <ele>39</ele>
        <time>2019-07-17T14:56:23Z</time>
      </trkpt>
      <trkpt lat="47.8432" lon="-3.43662">
        <ele>39</ele>
        <time>2019-07-17T14:56:24Z</time>
      </trkpt>
      <trkpt lat="47.84324" lon="-3.43664">
        <ele>39</ele>
        <time>2019-07-17T14:56:25Z</time>
      </trkpt>
      <trkpt lat="47.84329" lon="-3.43667">
        <ele>39</ele>
        <time>2019-07-17T14:56:26Z</time>
      </trkpt>
      <trkpt lat="47.84334" lon="-3.43668">
        <ele>39</ele>
        <time>2019-07-17T14:56:27Z</time>
      </trkpt>
      <trkpt lat="47.84338" lon="-3.43671">
        <ele>39</ele>
        <time>2019-07-17T14:56:28Z</time>
      </trkpt>
      <trkpt lat="47.84343" lon="-3.43674">
        <ele>39</ele>
        <time>2019-07-17T14:56:29Z</time>
      </trkpt>
      <trkpt lat="47.84348" lon="-3.43676">
        <ele>39</ele>
        <time>2019-07-17T14:56:30Z</time>
      </trkpt>
      <trkpt lat="47.84353" lon="-3.43679">
        <ele>39</ele>
        <time>2019-07-17T14:56:31Z</time>
      </trkpt>
      <trkpt lat="47.84358" lon="-3.43681">
        <ele>39</ele>
        <time>2019-07-17T14:56:32Z</time>
      </trkpt>
      <trkpt lat="47.84363" lon="-3.43684">
        <ele>39</ele>
        <time>2019-07-17T14:56:33Z</time>
      </trkpt>
      <trkpt lat="47.84369" lon="-3.43686">
        <ele>39</ele>
        <time>2019-07-17T14:56:34Z</time>
      </trkpt>
      <trkpt lat="47.84374" lon="-3.43689">
        <ele>39</ele>
        <time>2019-07-17T14:56:35Z</time>
      </trkpt>
      <trkpt lat="47.84379" lon="-3.43692">
        <ele>39</ele>
        <time>2019-07-17T14:56:36Z</time>
      </trkpt>
      <trkpt lat="47.84384" lon="-3.43694">
        <ele>39</ele>
        <time>2019-07-17T14:56:37Z</time>
      </trkpt>
      <trkpt lat="47.84389" lon="-3.43697">
        <ele>39</ele>
        <time>2019-07-17T14:56:38Z</time>
      </trkpt>
      <trkpt lat="47.84395" lon="-3.437">
        <ele>39</ele>
        <time>2019-07-17T14:56:39Z</time>
      </trkpt>
      <trkpt lat="47.844" lon="-3.43703">
        <ele>39</ele>
        <time>2019-07-17T14:56:40Z</time>
      </trkpt>
      <trkpt lat="47.84405" lon="-3.43705">
        <ele>39</ele>
        <time>2019-07-17T14:56:41Z</time>
      </trkpt>
      <trkpt lat="47.8441" lon="-3.43707">
        <ele>39</ele>
        <time>2019-07-17T14:56:42Z</time>
      </trkpt>
      <trkpt lat="47.84416" lon="-3.43709">
        <ele>39</ele>
        <time>2019-07-17T14:56:43Z</time>
      </trkpt>
      <trkpt lat="47.8442" lon="-3.43711">
        <ele>39</ele>
        <time>2019-07-17T14:56:44Z</time>
      </trkpt>
      <trkpt lat="47.84429" lon="-3.43714">
        <ele>39</ele>
        <time>2019-07-17T14:56:45Z</time>
      </trkpt>
      <trkpt lat="47.84429" lon="-3.43714">
        <ele>39</ele>
        <time>2019-07-17T14:56:46Z</time>
      </trkpt>
      <trkpt lat="47.84434" lon="-3.43717">
        <ele>39</ele>
        <time>2019-07-17T14:56:47Z</time>
      </trkpt>
      <trkpt lat="47.84439" lon="-3.43721">
        <ele>39</ele>
        <time>2019-07-17T14:56:48Z</time>
      </trkpt>
      <trkpt lat="47.84444" lon="-3.43724">
        <ele>39</ele>
        <time>2019-07-17T14:56:49Z</time>
      </trkpt>
      <trkpt lat="47.84449" lon="-3.43727">
        <ele>39</ele>
        <time>2019-07-17T14:56:50Z</time>
      </trkpt>
      <trkpt lat="47.84455" lon="-3.4373">
        <ele>39</ele>
        <time>2019-07-17T14:56:51Z</time>
      </trkpt>
      <trkpt lat="47.8446" lon="-3.43733">
        <ele>39</ele>
        <time>2019-07-17T14:56:52Z</time>
      </trkpt>
      <trkpt lat="47.84466" lon="-3.43735">
        <ele>39</ele>
        <time>2019-07-17T14:56:53Z</time>
      </trkpt>
      <trkpt lat="47.84473" lon="-3.43738">
        <ele>39</ele>
        <time>2019-07-17T14:56:54Z</time>
      </trkpt>
      <trkpt lat="47.84479" lon="-3.43741">
        <ele>39</ele>
        <time>2019-07-17T14:56:55Z</time>
      </trkpt>
      <trkpt lat="47.84487" lon="-3.43744">
        <ele>39</ele>
        <time>2019-07-17T14:56:56Z</time>
      </trkpt>
      <trkpt lat="47.84494" lon="-3.43746">
        <ele>39</ele>
        <time>2019-07-17T14:56:57Z</time>
      </trkpt>
      <trkpt lat="47.84501" lon="-3.43747">
        <ele>39</ele>
        <time>2019-07-17T14:56:58Z</time>
      </trkpt>
      <trkpt lat="47.84508" lon="-3.43748">
        <ele>39</ele>
        <time>2019-07-17T14:56:59Z</time>
      </trkpt>
      <trkpt lat="47.84514" lon="-3.4375">
        <ele>39</ele>
        <time>2019-07-17T14:57:00Z</time>
      </trkpt>
      <trkpt lat="47.8452" lon="-3.43752">
        <ele>39</ele>
        <time>2019-07-17T14:57:01Z</time>
      </trkpt>
      <trkpt lat="47.84527" lon="-3.43754">
        <ele>39</ele>
        <time>2019-07-17T14:57:02Z</time>
      </trkpt>
      <trkpt lat="47.84533" lon="-3.43755">
        <ele>39</ele>
        <time>2019-07-17T14:57:03Z</time>
      </trkpt>
      <trkpt lat="47.84539" lon="-3.43756">
        <ele>39</ele>
        <time>2019-07-17T14:57:04Z</time>
      </trkpt>
      <trkpt lat="47.84545" lon="-3.43758">
        <ele>38</ele>
        <time>2019-07-17T14:57:05Z</time>
      </trkpt>
      <trkpt lat="47.8455" lon="-3.43759">
        <ele>38</ele>
        <time>2019-07-17T14:57:06Z</time>
      </trkpt>
      <trkpt lat="47.84555" lon="-3.43761">
        <ele>38</ele>
        <time>2019-07-17T14:57:07Z</time>
      </trkpt>
      <trkpt lat="47.8456" lon="-3.43762">
        <ele>38</ele>
        <time>2019-07-17T14:57:08Z</time>
      </trkpt>
      <trkpt lat="47.84564" lon="-3.43764">
        <ele>38</ele>
        <time>2019-07-17T14:57:09Z</time>
      </trkpt>
      <trkpt lat="47.84568" lon="-3.43765">
        <ele>38</ele>
        <time>2019-07-17T14:57:10Z</time>
      </trkpt>
      <trkpt lat="47.84573" lon="-3.43766">
        <ele>38</ele>
        <time>2019-07-17T14:57:11Z</time>
      </trkpt>
      <trkpt lat="47.84577" lon="-3.43767">
        <ele>38</ele>
        <time>2019-07-17T14:57:12Z</time>
      </trkpt>
      <trkpt lat="47.84582" lon="-3.43769">
        <ele>38</ele>
        <time>2019-07-17T14:57:13Z</time>
      </trkpt>
      <trkpt lat="47.84586" lon="-3.4377">
        <ele>38</ele>
        <time>2019-07-17T14:57:14Z</time>
      </trkpt>
      <trkpt lat="47.84591" lon="-3.43771">
        <ele>38</ele>
        <time>2019-07-17T14:57:15Z</time>
      </trkpt>
      <trkpt lat="47.84596" lon="-3.43772">
        <ele>39</ele>
        <time>2019-07-17T14:57:16Z</time>
      </trkpt>
      <trkpt lat="47.846" lon="-3.43773">
        <ele>39</ele>
        <time>2019-07-17T14:57:17Z</time>
      </trkpt>
      <trkpt lat="47.84605" lon="-3.43774">
        <ele>39</ele>
        <time>2019-07-17T14:57:18Z</time>
      </trkpt>
      <trkpt lat="47.8461" lon="-3.43776">
        <ele>39</ele>
        <time>2019-07-17T14:57:19Z</time>
      </trkpt>
      <trkpt lat="47.84614" lon="-3.43777">
        <ele>39</ele>
        <time>2019-07-17T14:57:20Z</time>
      </trkpt>
      <trkpt lat="47.84619" lon="-3.43777">
        <ele>39</ele>
        <time>2019-07-17T14:57:21Z</time>
      </trkpt>
      <trkpt lat="47.84623" lon="-3.43777">
        <ele>39</ele>
        <time>2019-07-17T14:57:22Z</time>
      </trkpt>
      <trkpt lat="47.84628" lon="-3.43778">
        <ele>39</ele>
        <time>2019-07-17T14:57:23Z</time>
      </trkpt>
      <trkpt lat="47.84633" lon="-3.4378">
        <ele>39</ele>
        <time>2019-07-17T14:57:24Z</time>
      </trkpt>
      <trkpt lat="47.84637" lon="-3.43781">
        <ele>39</ele>
        <time>2019-07-17T14:57:25Z</time>
      </trkpt>
      <trkpt lat="47.84642" lon="-3.43782">
        <ele>39</ele>
        <time>2019-07-17T14:57:26Z</time>
      </trkpt>
      <trkpt lat="47.84647" lon="-3.43783">
        <ele>39</ele>
        <time>2019-07-17T14:57:27Z</time>
      </trkpt>
      <trkpt lat="47.84652" lon="-3.43784">
        <ele>39</ele>
        <time>2019-07-17T14:57:28Z</time>
      </trkpt>
      <trkpt lat="47.84657" lon="-3.43786">
        <ele>39</ele>
        <time>2019-07-17T14:57:29Z</time>
      </trkpt>
      <trkpt lat="47.84662" lon="-3.43787">
        <ele>39</ele>
        <time>2019-07-17T14:57:30Z</time>
      </trkpt>
      <trkpt lat="47.84668" lon="-3.43788">
        <ele>38</ele>
        <time>2019-07-17T14:57:31Z</time>
      </trkpt>
      <trkpt lat="47.84673" lon="-3.43789">
        <ele>38</ele>
        <time>2019-07-17T14:57:32Z</time>
      </trkpt>
      <trkpt lat="47.84679" lon="-3.4379">
        <ele>38</ele>
        <time>2019-07-17T14:57:33Z</time>
      </trkpt>
      <trkpt lat="47.84685" lon="-3.43792">
        <ele>38</ele>
        <time>2019-07-17T14:57:34Z</time>
      </trkpt>
      <trkpt lat="47.8469" lon="-3.43793">
        <ele>38</ele>
        <time>2019-07-17T14:57:35Z</time>
      </trkpt>
      <trkpt lat="47.84695" lon="-3.43795">
        <ele>38</ele>
        <time>2019-07-17T14:57:36Z</time>
      </trkpt>
      <trkpt lat="47.84701" lon="-3.43796">
        <ele>38</ele>
        <time>2019-07-17T14:57:37Z</time>
      </trkpt>
      <trkpt lat="47.84706" lon="-3.43797">
        <ele>37</ele>
        <time>2019-07-17T14:57:38Z</time>
      </trkpt>
      <trkpt lat="47.84712" lon="-3.43799">
        <ele>37</ele>
        <time>2019-07-17T14:57:39Z</time>
      </trkpt>
      <trkpt lat="47.84717" lon="-3.438">
        <ele>37</ele>
        <time>2019-07-17T14:57:40Z</time>
      </trkpt>
      <trkpt lat="47.84723" lon="-3.43802">
        <ele>37</ele>
        <time>2019-07-17T14:57:41Z</time>
      </trkpt>
      <trkpt lat="47.84729" lon="-3.43803">
        <ele>37</ele>
        <time>2019-07-17T14:57:42Z</time>
      </trkpt>
      <trkpt lat="47.84734" lon="-3.43804">
        <ele>37</ele>
        <time>2019-07-17T14:57:43Z</time>
      </trkpt>
      <trkpt lat="47.8474" lon="-3.43806">
        <ele>37</ele>
        <time>2019-07-17T14:57:44Z</time>
      </trkpt>
      <trkpt lat="47.84746" lon="-3.43807">
        <ele>37</ele>
        <time>2019-07-17T14:57:45Z</time>
      </trkpt>
      <trkpt lat="47.84752" lon="-3.43809">
        <ele>37</ele>
        <time>2019-07-17T14:57:46Z</time>
      </trkpt>
      <trkpt lat="47.84758" lon="-3.4381">
        <ele>37</ele>
        <time>2019-07-17T14:57:47Z</time>
      </trkpt>
      <trkpt lat="47.84764" lon="-3.43812">
        <ele>37</ele>
        <time>2019-07-17T14:57:48Z</time>
      </trkpt>
      <trkpt lat="47.8477" lon="-3.43813">
        <ele>36</ele>
        <time>2019-07-17T14:57:49Z</time>
      </trkpt>
      <trkpt lat="47.84776" lon="-3.43815">
        <ele>36</ele>
        <time>2019-07-17T14:57:50Z</time>
      </trkpt>
      <trkpt lat="47.84782" lon="-3.43816">
        <ele>36</ele>
        <time>2019-07-17T14:57:51Z</time>
      </trkpt>
      <trkpt lat="47.84788" lon="-3.43818">
        <ele>36</ele>
        <time>2019-07-17T14:57:52Z</time>
      </trkpt>
      <trkpt lat="47.84794" lon="-3.43819">
        <ele>36</ele>
        <time>2019-07-17T14:57:53Z</time>
      </trkpt>
      <trkpt lat="47.848" lon="-3.43821">
        <ele>36</ele>
        <time>2019-07-17T14:57:54Z</time>
      </trkpt>
      <trkpt lat="47.84806" lon="-3.43823">
        <ele>36</ele>
        <time>2019-07-17T14:57:55Z</time>
      </trkpt>
      <trkpt lat="47.84812" lon="-3.43824">
        <ele>36</ele>
        <time>2019-07-17T14:57:56Z</time>
      </trkpt>
      <trkpt lat="47.84818" lon="-3.43827">
        <ele>36</ele>
        <time>2019-07-17T14:57:57Z</time>
      </trkpt>
      <trkpt lat="47.84823" lon="-3.4383">
        <ele>36</ele>
        <time>2019-07-17T14:57:58Z</time>
      </trkpt>
      <trkpt lat="47.84829" lon="-3.43835">
        <ele>35</ele>
        <time>2019-07-17T14:57:59Z</time>
      </trkpt>
      <trkpt lat="47.84833" lon="-3.4384">
        <ele>35</ele>
        <time>2019-07-17T14:58:00Z</time>
      </trkpt>
      <trkpt lat="47.84837" lon="-3.43847">
        <ele>36</ele>
        <time>2019-07-17T14:58:01Z</time>
      </trkpt>
      <trkpt lat="47.84841" lon="-3.43854">
        <ele>36</ele>
        <time>2019-07-17T14:58:02Z</time>
      </trkpt>
      <trkpt lat="47.84844" lon="-3.43861">
        <ele>36</ele>
        <time>2019-07-17T14:58:03Z</time>
      </trkpt>
      <trkpt lat="47.84848" lon="-3.43868">
        <ele>36</ele>
        <time>2019-07-17T14:58:04Z</time>
      </trkpt>
      <trkpt lat="47.84852" lon="-3.43875">
        <ele>36</ele>
        <time>2019-07-17T14:58:05Z</time>
      </trkpt>
      <trkpt lat="47.84856" lon="-3.43882">
        <ele>36</ele>
        <time>2019-07-17T14:58:06Z</time>
      </trkpt>
      <trkpt lat="47.8486" lon="-3.43889">
        <ele>36</ele>
        <time>2019-07-17T14:58:07Z</time>
      </trkpt>
      <trkpt lat="47.84863" lon="-3.43896">
        <ele>35</ele>
        <time>2019-07-17T14:58:08Z</time>
      </trkpt>
      <trkpt lat="47.84867" lon="-3.43902">
        <ele>35</ele>
        <time>2019-07-17T14:58:09Z</time>
      </trkpt>
      <trkpt lat="47.8487" lon="-3.43908">
        <ele>35</ele>
        <time>2019-07-17T14:58:10Z</time>
      </trkpt>
      <trkpt lat="47.84874" lon="-3.43915">
        <ele>35</ele>
        <time>2019-07-17T14:58:11Z</time>
      </trkpt>
      <trkpt lat="47.84878" lon="-3.43921">
        <ele>35</ele>
        <time>2019-07-17T14:58:12Z</time>
      </trkpt>
      <trkpt lat="47.84882" lon="-3.43928">
        <ele>35</ele>
        <time>2019-07-17T14:58:13Z</time>
      </trkpt>
      <trkpt lat="47.84885" lon="-3.43934">
        <ele>35</ele>
        <time>2019-07-17T14:58:14Z</time>
      </trkpt>
      <trkpt lat="47.84889" lon="-3.43941">
        <ele>35</ele>
        <time>2019-07-17T14:58:15Z</time>
      </trkpt>
      <trkpt lat="47.84893" lon="-3.43947">
        <ele>35</ele>
        <time>2019-07-17T14:58:16Z</time>
      </trkpt>
      <trkpt lat="47.84897" lon="-3.43954">
        <ele>35</ele>
        <time>2019-07-17T14:58:17Z</time>
      </trkpt>
      <trkpt lat="47.849" lon="-3.4396">
        <ele>35</ele>
        <time>2019-07-17T14:58:18Z</time>
      </trkpt>
      <trkpt lat="47.84903" lon="-3.43967">
        <ele>35</ele>
        <time>2019-07-17T14:58:19Z</time>
      </trkpt>
      <trkpt lat="47.84906" lon="-3.43973">
        <ele>35</ele>
        <time>2019-07-17T14:58:20Z</time>
      </trkpt>
      <trkpt lat="47.8491" lon="-3.4398">
        <ele>35</ele>
        <time>2019-07-17T14:58:21Z</time>
      </trkpt>
      <trkpt lat="47.84914" lon="-3.43986">
        <ele>35</ele>
        <time>2019-07-17T14:58:22Z</time>
      </trkpt>
      <trkpt lat="47.84917" lon="-3.43992">
        <ele>35</ele>
        <time>2019-07-17T14:58:23Z</time>
      </trkpt>
      <trkpt lat="47.8492" lon="-3.43998">
        <ele>35</ele>
        <time>2019-07-17T14:58:24Z</time>
      </trkpt>
      <trkpt lat="47.84924" lon="-3.44004">
        <ele>34</ele>
        <time>2019-07-17T14:58:25Z</time>
      </trkpt>
      <trkpt lat="47.84927" lon="-3.4401">
        <ele>34</ele>
        <time>2019-07-17T14:58:26Z</time>
      </trkpt>
      <trkpt lat="47.84931" lon="-3.44017">
        <ele>34</ele>
        <time>2019-07-17T14:58:27Z</time>
      </trkpt>
      <trkpt lat="47.84934" lon="-3.44023">
        <ele>34</ele>
        <time>2019-07-17T14:58:28Z</time>
      </trkpt>
      <trkpt lat="47.84937" lon="-3.44029">
        <ele>34</ele>
        <time>2019-07-17T14:58:29Z</time>
      </trkpt>
      <trkpt lat="47.8494" lon="-3.44036">
        <ele>35</ele>
        <time>2019-07-17T14:58:30Z</time>
      </trkpt>
      <trkpt lat="47.84943" lon="-3.44041">
        <ele>35</ele>
        <time>2019-07-17T14:58:31Z</time>
      </trkpt>
      <trkpt lat="47.84947" lon="-3.44046">
        <ele>35</ele>
        <time>2019-07-17T14:58:32Z</time>
      </trkpt>
      <trkpt lat="47.8495" lon="-3.44051">
        <ele>35</ele>
        <time>2019-07-17T14:58:33Z</time>
      </trkpt>
      <trkpt lat="47.84953" lon="-3.44056">
        <ele>35</ele>
        <time>2019-07-17T14:58:34Z</time>
      </trkpt>
      <trkpt lat="47.84956" lon="-3.44061">
        <ele>35</ele>
        <time>2019-07-17T14:58:35Z</time>
      </trkpt>
      <trkpt lat="47.84959" lon="-3.44066">
        <ele>35</ele>
        <time>2019-07-17T14:58:36Z</time>
      </trkpt>
      <trkpt lat="47.84962" lon="-3.44071">
        <ele>35</ele>
        <time>2019-07-17T14:58:37Z</time>
      </trkpt>
      <trkpt lat="47.84965" lon="-3.44076">
        <ele>35</ele>
        <time>2019-07-17T14:58:38Z</time>
      </trkpt>
      <trkpt lat="47.84968" lon="-3.44081">
        <ele>35</ele>
        <time>2019-07-17T14:58:39Z</time>
      </trkpt>
      <trkpt lat="47.84971" lon="-3.44085">
        <ele>35</ele>
        <time>2019-07-17T14:58:40Z</time>
      </trkpt>
      <trkpt lat="47.84975" lon="-3.4409">
        <ele>35</ele>
        <time>2019-07-17T14:58:41Z</time>
      </trkpt>
      <trkpt lat="47.84978" lon="-3.44095">
        <ele>36</ele>
        <time>2019-07-17T14:58:42Z</time>
      </trkpt>
      <trkpt lat="47.84981" lon="-3.44101">
        <ele>36</ele>
        <time>2019-07-17T14:58:43Z</time>
      </trkpt>
      <trkpt lat="47.84985" lon="-3.44106">
        <ele>36</ele>
        <time>2019-07-17T14:58:44Z</time>
      </trkpt>
      <trkpt lat="47.84988" lon="-3.44111">
        <ele>36</ele>
        <time>2019-07-17T14:58:45Z</time>
      </trkpt>
      <trkpt lat="47.84991" lon="-3.44116">
        <ele>36</ele>
        <time>2019-07-17T14:58:46Z</time>
      </trkpt>
      <trkpt lat="47.84994" lon="-3.44122">
        <ele>36</ele>
        <time>2019-07-17T14:58:47Z</time>
      </trkpt>
      <trkpt lat="47.84996" lon="-3.44127">
        <ele>36</ele>
        <time>2019-07-17T14:58:48Z</time>
      </trkpt>
      <trkpt lat="47.84999" lon="-3.44132">
        <ele>37</ele>
        <time>2019-07-17T14:58:49Z</time>
      </trkpt>
      <trkpt lat="47.85002" lon="-3.44138">
        <ele>37</ele>
        <time>2019-07-17T14:58:50Z</time>
      </trkpt>
      <trkpt lat="47.85005" lon="-3.44143">
        <ele>37</ele>
        <time>2019-07-17T14:58:51Z</time>
      </trkpt>
      <trkpt lat="47.85008" lon="-3.44149">
        <ele>37</ele>
        <time>2019-07-17T14:58:52Z</time>
      </trkpt>
      <trkpt lat="47.85011" lon="-3.44154">
        <ele>37</ele>
        <time>2019-07-17T14:58:53Z</time>
      </trkpt>
      <trkpt lat="47.85013" lon="-3.4416">
        <ele>37</ele>
        <time>2019-07-17T14:58:54Z</time>
      </trkpt>
      <trkpt lat="47.85017" lon="-3.44164">
        <ele>38</ele>
        <time>2019-07-17T14:58:55Z</time>
      </trkpt>
      <trkpt lat="47.85019" lon="-3.44169">
        <ele>38</ele>
        <time>2019-07-17T14:58:56Z</time>
      </trkpt>
      <trkpt lat="47.85022" lon="-3.44174">
        <ele>38</ele>
        <time>2019-07-17T14:58:57Z</time>
      </trkpt>
      <trkpt lat="47.85025" lon="-3.44178">
        <ele>38</ele>
        <time>2019-07-17T14:58:58Z</time>
      </trkpt>
      <trkpt lat="47.85028" lon="-3.44183">
        <ele>38</ele>
        <time>2019-07-17T14:58:59Z</time>
      </trkpt>
      <trkpt lat="47.85031" lon="-3.44188">
        <ele>38</ele>
        <time>2019-07-17T14:59:00Z</time>
      </trkpt>
      <trkpt lat="47.85034" lon="-3.44194">
        <ele>38</ele>
        <time>2019-07-17T14:59:01Z</time>
      </trkpt>
      <trkpt lat="47.85038" lon="-3.442">
        <ele>38</ele>
        <time>2019-07-17T14:59:02Z</time>
      </trkpt>
      <trkpt lat="47.85041" lon="-3.44205">
        <ele>39</ele>
        <time>2019-07-17T14:59:03Z</time>
      </trkpt>
      <trkpt lat="47.85044" lon="-3.4421">
        <ele>39</ele>
        <time>2019-07-17T14:59:04Z</time>
      </trkpt>
      <trkpt lat="47.85047" lon="-3.44215">
        <ele>39</ele>
        <time>2019-07-17T14:59:05Z</time>
      </trkpt>
      <trkpt lat="47.8505" lon="-3.4422">
        <ele>39</ele>
        <time>2019-07-17T14:59:06Z</time>
      </trkpt>
      <trkpt lat="47.85053" lon="-3.44225">
        <ele>39</ele>
        <time>2019-07-17T14:59:07Z</time>
      </trkpt>
      <trkpt lat="47.85056" lon="-3.44231">
        <ele>39</ele>
        <time>2019-07-17T14:59:08Z</time>
      </trkpt>
      <trkpt lat="47.85059" lon="-3.44236">
        <ele>39</ele>
        <time>2019-07-17T14:59:09Z</time>
      </trkpt>
      <trkpt lat="47.85063" lon="-3.4424">
        <ele>40</ele>
        <time>2019-07-17T14:59:10Z</time>
      </trkpt>
      <trkpt lat="47.85067" lon="-3.44243">
        <ele>40</ele>
        <time>2019-07-17T14:59:11Z</time>
      </trkpt>
      <trkpt lat="47.85071" lon="-3.44245">
        <ele>40</ele>
        <time>2019-07-17T14:59:12Z</time>
      </trkpt>
      <trkpt lat="47.85075" lon="-3.44244">
        <ele>40</ele>
        <time>2019-07-17T14:59:13Z</time>
      </trkpt>
      <trkpt lat="47.85078" lon="-3.44243">
        <ele>40</ele>
        <time>2019-07-17T14:59:14Z</time>
      </trkpt>
      <trkpt lat="47.85079" lon="-3.44243">
        <ele>40</ele>
        <time>2019-07-17T14:59:15Z</time>
      </trkpt>
      <trkpt lat="47.8508" lon="-3.44243">
        <ele>41</ele>
        <time>2019-07-17T14:59:16Z</time>
      </trkpt>
      <trkpt lat="47.8508" lon="-3.44244">
        <ele>41</ele>
        <time>2019-07-17T14:59:17Z</time>
      </trkpt>
      <trkpt lat="47.85081" lon="-3.44244">
        <ele>41</ele>
        <time>2019-07-17T14:59:18Z</time>
      </trkpt>
      <trkpt lat="47.8508" lon="-3.44251">
        <ele>42</ele>
        <time>2019-07-17T14:59:19Z</time>
      </trkpt>
      <trkpt lat="47.85079" lon="-3.44253">
        <ele>43</ele>
        <time>2019-07-17T14:59:20Z</time>
      </trkpt>
      <trkpt lat="47.85078" lon="-3.44257">
        <ele>43</ele>
        <time>2019-07-17T14:59:21Z</time>
      </trkpt>
      <trkpt lat="47.85078" lon="-3.44261">
        <ele>43</ele>
        <time>2019-07-17T14:59:22Z</time>
      </trkpt>
      <trkpt lat="47.85079" lon="-3.44266">
        <ele>43</ele>
        <time>2019-07-17T14:59:23Z</time>
      </trkpt>
      <trkpt lat="47.85081" lon="-3.44269">
        <ele>43</ele>
        <time>2019-07-17T14:59:24Z</time>
      </trkpt>
      <trkpt lat="47.85082" lon="-3.44272">
        <ele>43</ele>
        <time>2019-07-17T14:59:25Z</time>
      </trkpt>
      <trkpt lat="47.85084" lon="-3.44276">
        <ele>43</ele>
        <time>2019-07-17T14:59:26Z</time>
      </trkpt>
      <trkpt lat="47.85086" lon="-3.4428">
        <ele>43</ele>
        <time>2019-07-17T14:59:27Z</time>
      </trkpt>
      <trkpt lat="47.85087" lon="-3.44284">
        <ele>44</ele>
        <time>2019-07-17T14:59:28Z</time>
      </trkpt>
      <trkpt lat="47.85088" lon="-3.44289">
        <ele>44</ele>
        <time>2019-07-17T14:59:29Z</time>
      </trkpt>
      <trkpt lat="47.85089" lon="-3.44295">
        <ele>44</ele>
        <time>2019-07-17T14:59:30Z</time>
      </trkpt>
      <trkpt lat="47.8509" lon="-3.44301">
        <ele>44</ele>
        <time>2019-07-17T14:59:31Z</time>
      </trkpt>
      <trkpt lat="47.8509" lon="-3.44308">
        <ele>44</ele>
        <time>2019-07-17T14:59:32Z</time>
      </trkpt>
      <trkpt lat="47.85091" lon="-3.44315">
        <ele>44</ele>
        <time>2019-07-17T14:59:33Z</time>
      </trkpt>
      <trkpt lat="47.85092" lon="-3.44322">
        <ele>44</ele>
        <time>2019-07-17T14:59:34Z</time>
      </trkpt>
      <trkpt lat="47.85092" lon="-3.44328">
        <ele>44</ele>
        <time>2019-07-17T14:59:35Z</time>
      </trkpt>
      <trkpt lat="47.85092" lon="-3.44335">
        <ele>44</ele>
        <time>2019-07-17T14:59:36Z</time>
      </trkpt>
      <trkpt lat="47.85092" lon="-3.44341">
        <ele>44</ele>
        <time>2019-07-17T14:59:37Z</time>
      </trkpt>
      <trkpt lat="47.85093" lon="-3.44347">
        <ele>44</ele>
        <time>2019-07-17T14:59:38Z</time>
      </trkpt>
      <trkpt lat="47.85093" lon="-3.44352">
        <ele>44</ele>
        <time>2019-07-17T14:59:39Z</time>
      </trkpt>
      <trkpt lat="47.85093" lon="-3.44358">
        <ele>44</ele>
        <time>2019-07-17T14:59:40Z</time>
      </trkpt>
      <trkpt lat="47.85093" lon="-3.44365">
        <ele>44</ele>
        <time>2019-07-17T14:59:41Z</time>
      </trkpt>
      <trkpt lat="47.85094" lon="-3.44372">
        <ele>44</ele>
        <time>2019-07-17T14:59:42Z</time>
      </trkpt>
      <trkpt lat="47.85096" lon="-3.44377">
        <ele>44</ele>
        <time>2019-07-17T14:59:43Z</time>
      </trkpt>
      <trkpt lat="47.851" lon="-3.4438">
        <ele>44</ele>
        <time>2019-07-17T14:59:44Z</time>
      </trkpt>
      <trkpt lat="47.85104" lon="-3.4438">
        <ele>44</ele>
        <time>2019-07-17T14:59:45Z</time>
      </trkpt>
      <trkpt lat="47.85108" lon="-3.44378">
        <ele>45</ele>
        <time>2019-07-17T14:59:46Z</time>
      </trkpt>
      <trkpt lat="47.85112" lon="-3.44376">
        <ele>45</ele>
        <time>2019-07-17T14:59:47Z</time>
      </trkpt>
      <trkpt lat="47.85117" lon="-3.44374">
        <ele>45</ele>
        <time>2019-07-17T14:59:48Z</time>
      </trkpt>
      <trkpt lat="47.85121" lon="-3.44372">
        <ele>45</ele>
        <time>2019-07-17T14:59:49Z</time>
      </trkpt>
      <trkpt lat="47.85125" lon="-3.4437">
        <ele>45</ele>
        <time>2019-07-17T14:59:50Z</time>
      </trkpt>
      <trkpt lat="47.8513" lon="-3.44367">
        <ele>45</ele>
        <time>2019-07-17T14:59:51Z</time>
      </trkpt>
      <trkpt lat="47.85135" lon="-3.44365">
        <ele>45</ele>
        <time>2019-07-17T14:59:52Z</time>
      </trkpt>
      <trkpt lat="47.85139" lon="-3.44362">
        <ele>45</ele>
        <time>2019-07-17T14:59:53Z</time>
      </trkpt>
      <trkpt lat="47.85144" lon="-3.4436">
        <ele>46</ele>
        <time>2019-07-17T14:59:54Z</time>
      </trkpt>
      <trkpt lat="47.85148" lon="-3.44357">
        <ele>46</ele>
        <time>2019-07-17T14:59:55Z</time>
      </trkpt>
      <trkpt lat="47.85153" lon="-3.44354">
        <ele>46</ele>
        <time>2019-07-17T14:59:56Z</time>
      </trkpt>
      <trkpt lat="47.85158" lon="-3.44352">
        <ele>46</ele>
        <time>2019-07-17T14:59:57Z</time>
      </trkpt>
      <trkpt lat="47.85163" lon="-3.4435">
        <ele>46</ele>
        <time>2019-07-17T14:59:58Z</time>
      </trkpt>
      <trkpt lat="47.85168" lon="-3.44347">
        <ele>47</ele>
        <time>2019-07-17T14:59:59Z</time>
      </trkpt>
      <trkpt lat="47.85174" lon="-3.44344">
        <ele>47</ele>
        <time>2019-07-17T15:00:00Z</time>
      </trkpt>
      <trkpt lat="47.85179" lon="-3.44342">
        <ele>47</ele>
        <time>2019-07-17T15:00:01Z</time>
      </trkpt>
      <trkpt lat="47.85184" lon="-3.44339">
        <ele>47</ele>
        <time>2019-07-17T15:00:02Z</time>
      </trkpt>
      <trkpt lat="47.85189" lon="-3.44337">
        <ele>47</ele>
        <time>2019-07-17T15:00:03Z</time>
      </trkpt>
      <trkpt lat="47.85195" lon="-3.44334">
        <ele>48</ele>
        <time>2019-07-17T15:00:04Z</time>
      </trkpt>
      <trkpt lat="47.852" lon="-3.44331">
        <ele>48</ele>
        <time>2019-07-17T15:00:05Z</time>
      </trkpt>
      <trkpt lat="47.85205" lon="-3.44328">
        <ele>48</ele>
        <time>2019-07-17T15:00:06Z</time>
      </trkpt>
      <trkpt lat="47.8521" lon="-3.44325">
        <ele>48</ele>
        <time>2019-07-17T15:00:07Z</time>
      </trkpt>
      <trkpt lat="47.85216" lon="-3.44322">
        <ele>48</ele>
        <time>2019-07-17T15:00:08Z</time>
      </trkpt>
      <trkpt lat="47.85221" lon="-3.4432">
        <ele>49</ele>
        <time>2019-07-17T15:00:09Z</time>
      </trkpt>
      <trkpt lat="47.85227" lon="-3.44318">
        <ele>49</ele>
        <time>2019-07-17T15:00:10Z</time>
      </trkpt>
      <trkpt lat="47.85232" lon="-3.44315">
        <ele>49</ele>
        <time>2019-07-17T15:00:11Z</time>
      </trkpt>
      <trkpt lat="47.85237" lon="-3.44312">
        <ele>49</ele>
        <time>2019-07-17T15:00:12Z</time>
      </trkpt>
      <trkpt lat="47.85243" lon="-3.4431">
        <ele>49</ele>
        <time>2019-07-17T15:00:13Z</time>
      </trkpt>
      <trkpt lat="47.85249" lon="-3.44307">
        <ele>49</ele>
        <time>2019-07-17T15:00:14Z</time>
      </trkpt>
      <trkpt lat="47.85254" lon="-3.44305">
        <ele>49</ele>
        <time>2019-07-17T15:00:15Z</time>
      </trkpt>
      <trkpt lat="47.8526" lon="-3.44303">
        <ele>49</ele>
        <time>2019-07-17T15:00:16Z</time>
      </trkpt>
      <trkpt lat="47.85266" lon="-3.44301">
        <ele>50</ele>
        <time>2019-07-17T15:00:17Z</time>
      </trkpt>
      <trkpt lat="47.85271" lon="-3.44299">
        <ele>50</ele>
        <time>2019-07-17T15:00:18Z</time>
      </trkpt>
      <trkpt lat="47.85276" lon="-3.44298">
        <ele>50</ele>
        <time>2019-07-17T15:00:19Z</time>
      </trkpt>
      <trkpt lat="47.85282" lon="-3.44295">
        <ele>50</ele>
        <time>2019-07-17T15:00:20Z</time>
      </trkpt>
      <trkpt lat="47.85287" lon="-3.44293">
        <ele>50</ele>
        <time>2019-07-17T15:00:21Z</time>
      </trkpt>
      <trkpt lat="47.85292" lon="-3.44291">
        <ele>50</ele>
        <time>2019-07-17T15:00:22Z</time>
      </trkpt>
      <trkpt lat="47.85298" lon="-3.44289">
        <ele>50</ele>
        <time>2019-07-17T15:00:23Z</time>
      </trkpt>
      <trkpt lat="47.85304" lon="-3.44286">
        <ele>50</ele>
        <time>2019-07-17T15:00:24Z</time>
      </trkpt>
      <trkpt lat="47.85309" lon="-3.44284">
        <ele>50</ele>
        <time>2019-07-17T15:00:25Z</time>
      </trkpt>
      <trkpt lat="47.85315" lon="-3.44282">
        <ele>50</ele>
        <time>2019-07-17T15:00:26Z</time>
      </trkpt>
      <trkpt lat="47.8532" lon="-3.4428">
        <ele>50</ele>
        <time>2019-07-17T15:00:27Z</time>
      </trkpt>
      <trkpt lat="47.85325" lon="-3.44278">
        <ele>50</ele>
        <time>2019-07-17T15:00:28Z</time>
      </trkpt>
      <trkpt lat="47.85331" lon="-3.44276">
        <ele>51</ele>
        <time>2019-07-17T15:00:29Z</time>
      </trkpt>
      <trkpt lat="47.85336" lon="-3.44274">
        <ele>51</ele>
        <time>2019-07-17T15:00:30Z</time>
      </trkpt>
      <trkpt lat="47.85341" lon="-3.44273">
        <ele>51</ele>
        <time>2019-07-17T15:00:31Z</time>
      </trkpt>
      <trkpt lat="47.85346" lon="-3.44271">
        <ele>51</ele>
        <time>2019-07-17T15:00:32Z</time>
      </trkpt>
      <trkpt lat="47.85351" lon="-3.4427">
        <ele>51</ele>
        <time>2019-07-17T15:00:33Z</time>
      </trkpt>
      <trkpt lat="47.85356" lon="-3.44269">
        <ele>51</ele>
        <time>2019-07-17T15:00:34Z</time>
      </trkpt>
      <trkpt lat="47.85361" lon="-3.44268">
        <ele>51</ele>
        <time>2019-07-17T15:00:35Z</time>
      </trkpt>
      <trkpt lat="47.85367" lon="-3.44267">
        <ele>51</ele>
        <time>2019-07-17T15:00:36Z</time>
      </trkpt>
      <trkpt lat="47.85371" lon="-3.44267">
        <ele>51</ele>
        <time>2019-07-17T15:00:37Z</time>
      </trkpt>
      <trkpt lat="47.85377" lon="-3.44267">
        <ele>51</ele>
        <time>2019-07-17T15:00:38Z</time>
      </trkpt>
      <trkpt lat="47.85381" lon="-3.44267">
        <ele>51</ele>
        <time>2019-07-17T15:00:39Z</time>
      </trkpt>
      <trkpt lat="47.85386" lon="-3.44267">
        <ele>51</ele>
        <time>2019-07-17T15:00:40Z</time>
      </trkpt>
      <trkpt lat="47.85391" lon="-3.44266">
        <ele>51</ele>
        <time>2019-07-17T15:00:41Z</time>
      </trkpt>
      <trkpt lat="47.85396" lon="-3.44267">
        <ele>51</ele>
        <time>2019-07-17T15:00:42Z</time>
      </trkpt>
      <trkpt lat="47.85401" lon="-3.44268">
        <ele>51</ele>
        <time>2019-07-17T15:00:43Z</time>
      </trkpt>
      <trkpt lat="47.85407" lon="-3.44269">
        <ele>51</ele>
        <time>2019-07-17T15:00:44Z</time>
      </trkpt>
      <trkpt lat="47.85413" lon="-3.4427">
        <ele>51</ele>
        <time>2019-07-17T15:00:45Z</time>
      </trkpt>
      <trkpt lat="47.85418" lon="-3.44271">
        <ele>51</ele>
        <time>2019-07-17T15:00:46Z</time>
      </trkpt>
      <trkpt lat="47.85425" lon="-3.44272">
        <ele>50</ele>
        <time>2019-07-17T15:00:47Z</time>
      </trkpt>
      <trkpt lat="47.85431" lon="-3.44273">
        <ele>50</ele>
        <time>2019-07-17T15:00:48Z</time>
      </trkpt>
      <trkpt lat="47.85438" lon="-3.44274">
        <ele>50</ele>
        <time>2019-07-17T15:00:49Z</time>
      </trkpt>
      <trkpt lat="47.85445" lon="-3.44275">
        <ele>50</ele>
        <time>2019-07-17T15:00:50Z</time>
      </trkpt>
      <trkpt lat="47.85453" lon="-3.44276">
        <ele>50</ele>
        <time>2019-07-17T15:00:51Z</time>
      </trkpt>
      <trkpt lat="47.85461" lon="-3.44277">
        <ele>50</ele>
        <time>2019-07-17T15:00:52Z</time>
      </trkpt>
      <trkpt lat="47.85469" lon="-3.44278">
        <ele>49</ele>
        <time>2019-07-17T15:00:53Z</time>
      </trkpt>
      <trkpt lat="47.85478" lon="-3.44279">
        <ele>49</ele>
        <time>2019-07-17T15:00:54Z</time>
      </trkpt>
      <trkpt lat="47.85486" lon="-3.44281">
        <ele>49</ele>
        <time>2019-07-17T15:00:55Z</time>
      </trkpt>
      <trkpt lat="47.85495" lon="-3.44282">
        <ele>49</ele>
        <time>2019-07-17T15:00:56Z</time>
      </trkpt>
      <trkpt lat="47.85503" lon="-3.44283">
        <ele>48</ele>
        <time>2019-07-17T15:00:57Z</time>
      </trkpt>
      <trkpt lat="47.85511" lon="-3.44284">
        <ele>48</ele>
        <time>2019-07-17T15:00:58Z</time>
      </trkpt>
      <trkpt lat="47.85519" lon="-3.44285">
        <ele>48</ele>
        <time>2019-07-17T15:00:59Z</time>
      </trkpt>
      <trkpt lat="47.85527" lon="-3.44286">
        <ele>47</ele>
        <time>2019-07-17T15:01:00Z</time>
      </trkpt>
      <trkpt lat="47.85535" lon="-3.44288">
        <ele>47</ele>
        <time>2019-07-17T15:01:01Z</time>
      </trkpt>
      <trkpt lat="47.85542" lon="-3.44289">
        <ele>47</ele>
        <time>2019-07-17T15:01:02Z</time>
      </trkpt>
      <trkpt lat="47.85548" lon="-3.44289">
        <ele>47</ele>
        <time>2019-07-17T15:01:03Z</time>
      </trkpt>
      <trkpt lat="47.85554" lon="-3.4429">
        <ele>47</ele>
        <time>2019-07-17T15:01:04Z</time>
      </trkpt>
      <trkpt lat="47.8556" lon="-3.44291">
        <ele>47</ele>
        <time>2019-07-17T15:01:05Z</time>
      </trkpt>
      <trkpt lat="47.85566" lon="-3.44292">
        <ele>47</ele>
        <time>2019-07-17T15:01:06Z</time>
      </trkpt>
      <trkpt lat="47.85571" lon="-3.44292">
        <ele>47</ele>
        <time>2019-07-17T15:01:07Z</time>
      </trkpt>
      <trkpt lat="47.85576" lon="-3.44293">
        <ele>46</ele>
        <time>2019-07-17T15:01:08Z</time>
      </trkpt>
      <trkpt lat="47.85581" lon="-3.44294">
        <ele>46</ele>
        <time>2019-07-17T15:01:09Z</time>
      </trkpt>
      <trkpt lat="47.85586" lon="-3.44294">
        <ele>46</ele>
        <time>2019-07-17T15:01:10Z</time>
      </trkpt>
      <trkpt lat="47.85591" lon="-3.44295">
        <ele>46</ele>
        <time>2019-07-17T15:01:11Z</time>
      </trkpt>
      <trkpt lat="47.85596" lon="-3.44295">
        <ele>46</ele>
        <time>2019-07-17T15:01:12Z</time>
      </trkpt>
      <trkpt lat="47.85601" lon="-3.44296">
        <ele>46</ele>
        <time>2019-07-17T15:01:13Z</time>
      </trkpt>
      <trkpt lat="47.85606" lon="-3.44297">
        <ele>46</ele>
        <time>2019-07-17T15:01:14Z</time>
      </trkpt>
      <trkpt lat="47.85611" lon="-3.44298">
        <ele>46</ele>
        <time>2019-07-17T15:01:15Z</time>
      </trkpt>
      <trkpt lat="47.85615" lon="-3.44298">
        <ele>46</ele>
        <time>2019-07-17T15:01:16Z</time>
      </trkpt>
      <trkpt lat="47.85619" lon="-3.44299">
        <ele>46</ele>
        <time>2019-07-17T15:01:17Z</time>
      </trkpt>
      <trkpt lat="47.85624" lon="-3.44299">
        <ele>46</ele>
        <time>2019-07-17T15:01:18Z</time>
      </trkpt>
      <trkpt lat="47.85628" lon="-3.44299">
        <ele>46</ele>
        <time>2019-07-17T15:01:19Z</time>
      </trkpt>
      <trkpt lat="47.85632" lon="-3.443">
        <ele>46</ele>
        <time>2019-07-17T15:01:20Z</time>
      </trkpt>
      <trkpt lat="47.85636" lon="-3.443">
        <ele>46</ele>
        <time>2019-07-17T15:01:21Z</time>
      </trkpt>
      <trkpt lat="47.8564" lon="-3.44301">
        <ele>46</ele>
        <time>2019-07-17T15:01:22Z</time>
      </trkpt>
      <trkpt lat="47.85645" lon="-3.44301">
        <ele>46</ele>
        <time>2019-07-17T15:01:23Z</time>
      </trkpt>
      <trkpt lat="47.85649" lon="-3.44302">
        <ele>45</ele>
        <time>2019-07-17T15:01:24Z</time>
      </trkpt>
      <trkpt lat="47.85653" lon="-3.44302">
        <ele>45</ele>
        <time>2019-07-17T15:01:25Z</time>
      </trkpt>
      <trkpt lat="47.85657" lon="-3.44303">
        <ele>45</ele>
        <time>2019-07-17T15:01:26Z</time>
      </trkpt>
      <trkpt lat="47.85661" lon="-3.44303">
        <ele>45</ele>
        <time>2019-07-17T15:01:27Z</time>
      </trkpt>
      <trkpt lat="47.85666" lon="-3.44304">
        <ele>45</ele>
        <time>2019-07-17T15:01:28Z</time>
      </trkpt>
      <trkpt lat="47.8567" lon="-3.44304">
        <ele>45</ele>
        <time>2019-07-17T15:01:29Z</time>
      </trkpt>
      <trkpt lat="47.85674" lon="-3.44305">
        <ele>45</ele>
        <time>2019-07-17T15:01:30Z</time>
      </trkpt>
      <trkpt lat="47.85679" lon="-3.44305">
        <ele>45</ele>
        <time>2019-07-17T15:01:31Z</time>
      </trkpt>
      <trkpt lat="47.85683" lon="-3.44306">
        <ele>45</ele>
        <time>2019-07-17T15:01:32Z</time>
      </trkpt>
      <trkpt lat="47.85687" lon="-3.44306">
        <ele>45</ele>
        <time>2019-07-17T15:01:33Z</time>
      </trkpt>
      <trkpt lat="47.85691" lon="-3.44306">
        <ele>45</ele>
        <time>2019-07-17T15:01:34Z</time>
      </trkpt>
      <trkpt lat="47.85695" lon="-3.44307">
        <ele>45</ele>
        <time>2019-07-17T15:01:35Z</time>
      </trkpt>
      <trkpt lat="47.85699" lon="-3.44308">
        <ele>45</ele>
        <time>2019-07-17T15:01:36Z</time>
      </trkpt>
      <trkpt lat="47.85703" lon="-3.44308">
        <ele>45</ele>
        <time>2019-07-17T15:01:37Z</time>
      </trkpt>
      <trkpt lat="47.85707" lon="-3.44309">
        <ele>45</ele>
        <time>2019-07-17T15:01:38Z</time>
      </trkpt>
      <trkpt lat="47.85712" lon="-3.4431">
        <ele>45</ele>
        <time>2019-07-17T15:01:39Z</time>
      </trkpt>
      <trkpt lat="47.85716" lon="-3.44311">
        <ele>45</ele>
        <time>2019-07-17T15:01:40Z</time>
      </trkpt>
      <trkpt lat="47.8572" lon="-3.44312">
        <ele>46</ele>
        <time>2019-07-17T15:01:41Z</time>
      </trkpt>
      <trkpt lat="47.85724" lon="-3.44312">
        <ele>46</ele>
        <time>2019-07-17T15:01:42Z</time>
      </trkpt>
      <trkpt lat="47.85728" lon="-3.44313">
        <ele>46</ele>
        <time>2019-07-17T15:01:43Z</time>
      </trkpt>
      <trkpt lat="47.85732" lon="-3.44314">
        <ele>46</ele>
        <time>2019-07-17T15:01:44Z</time>
      </trkpt>
      <trkpt lat="47.85736" lon="-3.44314">
        <ele>47</ele>
        <time>2019-07-17T15:01:45Z</time>
      </trkpt>
      <trkpt lat="47.85741" lon="-3.44315">
        <ele>47</ele>
        <time>2019-07-17T15:01:46Z</time>
      </trkpt>
      <trkpt lat="47.85745" lon="-3.44315">
        <ele>47</ele>
        <time>2019-07-17T15:01:47Z</time>
      </trkpt>
      <trkpt lat="47.85749" lon="-3.44316">
        <ele>48</ele>
        <time>2019-07-17T15:01:48Z</time>
      </trkpt>
      <trkpt lat="47.85753" lon="-3.44317">
        <ele>48</ele>
        <time>2019-07-17T15:01:49Z</time>
      </trkpt>
      <trkpt lat="47.85757" lon="-3.44318">
        <ele>48</ele>
        <time>2019-07-17T15:01:50Z</time>
      </trkpt>
      <trkpt lat="47.85761" lon="-3.44318">
        <ele>48</ele>
        <time>2019-07-17T15:01:51Z</time>
      </trkpt>
      <trkpt lat="47.85765" lon="-3.44319">
        <ele>49</ele>
        <time>2019-07-17T15:01:52Z</time>
      </trkpt>
      <trkpt lat="47.85769" lon="-3.44319">
        <ele>49</ele>
        <time>2019-07-17T15:01:53Z</time>
      </trkpt>
      <trkpt lat="47.85773" lon="-3.4432">
        <ele>49</ele>
        <time>2019-07-17T15:01:54Z</time>
      </trkpt>
      <trkpt lat="47.85777" lon="-3.44321">
        <ele>49</ele>
        <time>2019-07-17T15:01:55Z</time>
      </trkpt>
      <trkpt lat="47.85781" lon="-3.44321">
        <ele>49</ele>
        <time>2019-07-17T15:01:56Z</time>
      </trkpt>
      <trkpt lat="47.85785" lon="-3.44321">
        <ele>49</ele>
        <time>2019-07-17T15:01:57Z</time>
      </trkpt>
      <trkpt lat="47.85789" lon="-3.44322">
        <ele>49</ele>
        <time>2019-07-17T15:01:58Z</time>
      </trkpt>
      <trkpt lat="47.85793" lon="-3.44322">
        <ele>49</ele>
        <time>2019-07-17T15:01:59Z</time>
      </trkpt>
      <trkpt lat="47.85798" lon="-3.44322">
        <ele>49</ele>
        <time>2019-07-17T15:02:00Z</time>
      </trkpt>
      <trkpt lat="47.85802" lon="-3.44322">
        <ele>49</ele>
        <time>2019-07-17T15:02:01Z</time>
      </trkpt>
      <trkpt lat="47.85806" lon="-3.44323">
        <ele>49</ele>
        <time>2019-07-17T15:02:02Z</time>
      </trkpt>
      <trkpt lat="47.8581" lon="-3.44323">
        <ele>50</ele>
        <time>2019-07-17T15:02:03Z</time>
      </trkpt>
      <trkpt lat="47.85814" lon="-3.44323">
        <ele>50</ele>
        <time>2019-07-17T15:02:04Z</time>
      </trkpt>
      <trkpt lat="47.85818" lon="-3.44323">
        <ele>50</ele>
        <time>2019-07-17T15:02:05Z</time>
      </trkpt>
      <trkpt lat="47.85823" lon="-3.44322">
        <ele>50</ele>
        <time>2019-07-17T15:02:06Z</time>
      </trkpt>
      <trkpt lat="47.85827" lon="-3.44321">
        <ele>50</ele>
        <time>2019-07-17T15:02:07Z</time>
      </trkpt>
      <trkpt lat="47.85831" lon="-3.4432">
        <ele>50</ele>
        <time>2019-07-17T15:02:08Z</time>
      </trkpt>
      <trkpt lat="47.85835" lon="-3.44319">
        <ele>50</ele>
        <time>2019-07-17T15:02:09Z</time>
      </trkpt>
      <trkpt lat="47.85838" lon="-3.44317">
        <ele>50</ele>
        <time>2019-07-17T15:02:10Z</time>
      </trkpt>
      <trkpt lat="47.85843" lon="-3.44315">
        <ele>50</ele>
        <time>2019-07-17T15:02:11Z</time>
      </trkpt>
      <trkpt lat="47.85846" lon="-3.44314">
        <ele>50</ele>
        <time>2019-07-17T15:02:12Z</time>
      </trkpt>
      <trkpt lat="47.8585" lon="-3.44315">
        <ele>50</ele>
        <time>2019-07-17T15:02:13Z</time>
      </trkpt>
      <trkpt lat="47.85853" lon="-3.44318">
        <ele>50</ele>
        <time>2019-07-17T15:02:14Z</time>
      </trkpt>
      <trkpt lat="47.85856" lon="-3.44321">
        <ele>50</ele>
        <time>2019-07-17T15:02:15Z</time>
      </trkpt>
      <trkpt lat="47.85859" lon="-3.44325">
        <ele>51</ele>
        <time>2019-07-17T15:02:16Z</time>
      </trkpt>
      <trkpt lat="47.85861" lon="-3.44329">
        <ele>51</ele>
        <time>2019-07-17T15:02:17Z</time>
      </trkpt>
      <trkpt lat="47.85865" lon="-3.44333">
        <ele>51</ele>
        <time>2019-07-17T15:02:18Z</time>
      </trkpt>
      <trkpt lat="47.85868" lon="-3.44337">
        <ele>51</ele>
        <time>2019-07-17T15:02:19Z</time>
      </trkpt>
      <trkpt lat="47.85871" lon="-3.44341">
        <ele>52</ele>
        <time>2019-07-17T15:02:20Z</time>
      </trkpt>
      <trkpt lat="47.85874" lon="-3.44346">
        <ele>52</ele>
        <time>2019-07-17T15:02:21Z</time>
      </trkpt>
      <trkpt lat="47.85877" lon="-3.44351">
        <ele>52</ele>
        <time>2019-07-17T15:02:22Z</time>
      </trkpt>
      <trkpt lat="47.8588" lon="-3.44356">
        <ele>53</ele>
        <time>2019-07-17T15:02:23Z</time>
      </trkpt>
      <trkpt lat="47.85883" lon="-3.44361">
        <ele>53</ele>
        <time>2019-07-17T15:02:24Z</time>
      </trkpt>
      <trkpt lat="47.85885" lon="-3.44367">
        <ele>53</ele>
        <time>2019-07-17T15:02:25Z</time>
      </trkpt>
      <trkpt lat="47.85888" lon="-3.44371">
        <ele>53</ele>
        <time>2019-07-17T15:02:26Z</time>
      </trkpt>
      <trkpt lat="47.8589" lon="-3.44377">
        <ele>54</ele>
        <time>2019-07-17T15:02:27Z</time>
      </trkpt>
      <trkpt lat="47.8589" lon="-3.44384">
        <ele>54</ele>
        <time>2019-07-17T15:02:28Z</time>
      </trkpt>
      <trkpt lat="47.8589" lon="-3.4439">
        <ele>54</ele>
        <time>2019-07-17T15:02:29Z</time>
      </trkpt>
      <trkpt lat="47.85889" lon="-3.44397">
        <ele>55</ele>
        <time>2019-07-17T15:02:30Z</time>
      </trkpt>
      <trkpt lat="47.85888" lon="-3.44403">
        <ele>55</ele>
        <time>2019-07-17T15:02:31Z</time>
      </trkpt>
      <trkpt lat="47.85887" lon="-3.44409">
        <ele>55</ele>
        <time>2019-07-17T15:02:32Z</time>
      </trkpt>
      <trkpt lat="47.85887" lon="-3.44416">
        <ele>56</ele>
        <time>2019-07-17T15:02:33Z</time>
      </trkpt>
      <trkpt lat="47.85886" lon="-3.44423">
        <ele>56</ele>
        <time>2019-07-17T15:02:34Z</time>
      </trkpt>
      <trkpt lat="47.85885" lon="-3.4443">
        <ele>56</ele>
        <time>2019-07-17T15:02:35Z</time>
      </trkpt>
      <trkpt lat="47.85883" lon="-3.44437">
        <ele>57</ele>
        <time>2019-07-17T15:02:36Z</time>
      </trkpt>
      <trkpt lat="47.85882" lon="-3.44445">
        <ele>57</ele>
        <time>2019-07-17T15:02:37Z</time>
      </trkpt>
      <trkpt lat="47.8588" lon="-3.44452">
        <ele>57</ele>
        <time>2019-07-17T15:02:38Z</time>
      </trkpt>
      <trkpt lat="47.85879" lon="-3.4446">
        <ele>57</ele>
        <time>2019-07-17T15:02:39Z</time>
      </trkpt>
      <trkpt lat="47.85878" lon="-3.44467">
        <ele>58</ele>
        <time>2019-07-17T15:02:40Z</time>
      </trkpt>
      <trkpt lat="47.85877" lon="-3.44474">
        <ele>58</ele>
        <time>2019-07-17T15:02:41Z</time>
      </trkpt>
      <trkpt lat="47.85876" lon="-3.44481">
        <ele>58</ele>
        <time>2019-07-17T15:02:42Z</time>
      </trkpt>
      <trkpt lat="47.85875" lon="-3.44488">
        <ele>58</ele>
        <time>2019-07-17T15:02:43Z</time>
      </trkpt>
      <trkpt lat="47.85873" lon="-3.44495">
        <ele>58</ele>
        <time>2019-07-17T15:02:44Z</time>
      </trkpt>
      <trkpt lat="47.85872" lon="-3.44503">
        <ele>58</ele>
        <time>2019-07-17T15:02:45Z</time>
      </trkpt>
      <trkpt lat="47.85871" lon="-3.4451">
        <ele>58</ele>
        <time>2019-07-17T15:02:46Z</time>
      </trkpt>
      <trkpt lat="47.8587" lon="-3.44518">
        <ele>58</ele>
        <time>2019-07-17T15:02:47Z</time>
      </trkpt>
      <trkpt lat="47.85869" lon="-3.44526">
        <ele>59</ele>
        <time>2019-07-17T15:02:48Z</time>
      </trkpt>
      <trkpt lat="47.85868" lon="-3.44533">
        <ele>59</ele>
        <time>2019-07-17T15:02:49Z</time>
      </trkpt>
      <trkpt lat="47.85867" lon="-3.44541">
        <ele>59</ele>
        <time>2019-07-17T15:02:50Z</time>
      </trkpt>
      <trkpt lat="47.85866" lon="-3.44549">
        <ele>59</ele>
        <time>2019-07-17T15:02:51Z</time>
      </trkpt>
      <trkpt lat="47.85866" lon="-3.44557">
        <ele>59</ele>
        <time>2019-07-17T15:02:52Z</time>
      </trkpt>
      <trkpt lat="47.85865" lon="-3.44564">
        <ele>59</ele>
        <time>2019-07-17T15:02:53Z</time>
      </trkpt>
      <trkpt lat="47.85864" lon="-3.44572">
        <ele>59</ele>
        <time>2019-07-17T15:02:54Z</time>
      </trkpt>
      <trkpt lat="47.85864" lon="-3.4458">
        <ele>59</ele>
        <time>2019-07-17T15:02:55Z</time>
      </trkpt>
      <trkpt lat="47.85863" lon="-3.44588">
        <ele>60</ele>
        <time>2019-07-17T15:02:56Z</time>
      </trkpt>
      <trkpt lat="47.85863" lon="-3.44596">
        <ele>60</ele>
        <time>2019-07-17T15:02:57Z</time>
      </trkpt>
      <trkpt lat="47.85862" lon="-3.44604">
        <ele>60</ele>
        <time>2019-07-17T15:02:58Z</time>
      </trkpt>
      <trkpt lat="47.85862" lon="-3.44611">
        <ele>60</ele>
        <time>2019-07-17T15:02:59Z</time>
      </trkpt>
      <trkpt lat="47.85861" lon="-3.44619">
        <ele>60</ele>
        <time>2019-07-17T15:03:00Z</time>
      </trkpt>
      <trkpt lat="47.85861" lon="-3.44627">
        <ele>60</ele>
        <time>2019-07-17T15:03:01Z</time>
      </trkpt>
      <trkpt lat="47.8586" lon="-3.44635">
        <ele>60</ele>
        <time>2019-07-17T15:03:02Z</time>
      </trkpt>
      <trkpt lat="47.8586" lon="-3.44643">
        <ele>60</ele>
        <time>2019-07-17T15:03:03Z</time>
      </trkpt>
      <trkpt lat="47.85859" lon="-3.4465">
        <ele>60</ele>
        <time>2019-07-17T15:03:04Z</time>
      </trkpt>
      <trkpt lat="47.85859" lon="-3.44658">
        <ele>60</ele>
        <time>2019-07-17T15:03:05Z</time>
      </trkpt>
      <trkpt lat="47.85858" lon="-3.44665">
        <ele>61</ele>
        <time>2019-07-17T15:03:06Z</time>
      </trkpt>
      <trkpt lat="47.85858" lon="-3.44673">
        <ele>61</ele>
        <time>2019-07-17T15:03:07Z</time>
      </trkpt>
      <trkpt lat="47.85857" lon="-3.4468">
        <ele>61</ele>
        <time>2019-07-17T15:03:08Z</time>
      </trkpt>
      <trkpt lat="47.85857" lon="-3.44687">
        <ele>61</ele>
        <time>2019-07-17T15:03:09Z</time>
      </trkpt>
      <trkpt lat="47.85857" lon="-3.44693">
        <ele>61</ele>
        <time>2019-07-17T15:03:10Z</time>
      </trkpt>
      <trkpt lat="47.85857" lon="-3.44699">
        <ele>61</ele>
        <time>2019-07-17T15:03:11Z</time>
      </trkpt>
      <trkpt lat="47.85857" lon="-3.44703">
        <ele>61</ele>
        <time>2019-07-17T15:03:12Z</time>
      </trkpt>
      <trkpt lat="47.85859" lon="-3.44706">
        <ele>61</ele>
        <time>2019-07-17T15:03:13Z</time>
      </trkpt>
      <trkpt lat="47.85861" lon="-3.44708">
        <ele>61</ele>
        <time>2019-07-17T15:03:14Z</time>
      </trkpt>
      <trkpt lat="47.85863" lon="-3.44708">
        <ele>61</ele>
        <time>2019-07-17T15:03:15Z</time>
      </trkpt>
      <trkpt lat="47.85867" lon="-3.44709">
        <ele>61</ele>
        <time>2019-07-17T15:03:16Z</time>
      </trkpt>
      <trkpt lat="47.8587" lon="-3.4471">
        <ele>61</ele>
        <time>2019-07-17T15:03:17Z</time>
      </trkpt>
      <trkpt lat="47.85874" lon="-3.4471">
        <ele>62</ele>
        <time>2019-07-17T15:03:18Z</time>
      </trkpt>
      <trkpt lat="47.85878" lon="-3.44711">
        <ele>62</ele>
        <time>2019-07-17T15:03:19Z</time>
      </trkpt>
      <trkpt lat="47.85882" lon="-3.44712">
        <ele>62</ele>
        <time>2019-07-17T15:03:20Z</time>
      </trkpt>
      <trkpt lat="47.85885" lon="-3.44712">
        <ele>62</ele>
        <time>2019-07-17T15:03:21Z</time>
      </trkpt>
      <trkpt lat="47.85889" lon="-3.44712">
        <ele>62</ele>
        <time>2019-07-17T15:03:22Z</time>
      </trkpt>
      <trkpt lat="47.85892" lon="-3.44712">
        <ele>62</ele>
        <time>2019-07-17T15:03:23Z</time>
      </trkpt>
      <trkpt lat="47.85895" lon="-3.44712">
        <ele>62</ele>
        <time>2019-07-17T15:03:24Z</time>
      </trkpt>
      <trkpt lat="47.85898" lon="-3.44712">
        <ele>62</ele>
        <time>2019-07-17T15:03:25Z</time>
      </trkpt>
      <trkpt lat="47.85902" lon="-3.44713">
        <ele>62</ele>
        <time>2019-07-17T15:03:26Z</time>
      </trkpt>
      <trkpt lat="47.85905" lon="-3.44713">
        <ele>62</ele>
        <time>2019-07-17T15:03:27Z</time>
      </trkpt>
      <trkpt lat="47.85909" lon="-3.44713">
        <ele>62</ele>
        <time>2019-07-17T15:03:28Z</time>
      </trkpt>
      <trkpt lat="47.85912" lon="-3.44714">
        <ele>62</ele>
        <time>2019-07-17T15:03:29Z</time>
      </trkpt>
      <trkpt lat="47.85916" lon="-3.44716">
        <ele>62</ele>
        <time>2019-07-17T15:03:30Z</time>
      </trkpt>
      <trkpt lat="47.8592" lon="-3.4472">
        <ele>62</ele>
        <time>2019-07-17T15:03:31Z</time>
      </trkpt>
      <trkpt lat="47.85923" lon="-3.44724">
        <ele>62</ele>
        <time>2019-07-17T15:03:32Z</time>
      </trkpt>
      <trkpt lat="47.85927" lon="-3.44728">
        <ele>62</ele>
        <time>2019-07-17T15:03:33Z</time>
      </trkpt>
      <trkpt lat="47.8593" lon="-3.44734">
        <ele>62</ele>
        <time>2019-07-17T15:03:34Z</time>
      </trkpt>
      <trkpt lat="47.85933" lon="-3.44739">
        <ele>62</ele>
        <time>2019-07-17T15:03:35Z</time>
      </trkpt>
      <trkpt lat="47.85935" lon="-3.44745">
        <ele>62</ele>
        <time>2019-07-17T15:03:36Z</time>
      </trkpt>
      <trkpt lat="47.85938" lon="-3.44752">
        <ele>62</ele>
        <time>2019-07-17T15:03:37Z</time>
      </trkpt>
      <trkpt lat="47.8594" lon="-3.4476">
        <ele>62</ele>
        <time>2019-07-17T15:03:38Z</time>
      </trkpt>
      <trkpt lat="47.85942" lon="-3.44769">
        <ele>62</ele>
        <time>2019-07-17T15:03:39Z</time>
      </trkpt>
      <trkpt lat="47.85942" lon="-3.44777">
        <ele>62</ele>
        <time>2019-07-17T15:03:40Z</time>
      </trkpt>
      <trkpt lat="47.85943" lon="-3.44785">
        <ele>62</ele>
        <time>2019-07-17T15:03:41Z</time>
      </trkpt>
      <trkpt lat="47.85944" lon="-3.44794">
        <ele>62</ele>
        <time>2019-07-17T15:03:42Z</time>
      </trkpt>
      <trkpt lat="47.85943" lon="-3.44804">
        <ele>62</ele>
        <time>2019-07-17T15:03:43Z</time>
      </trkpt>
      <trkpt lat="47.85944" lon="-3.44814">
        <ele>61</ele>
        <time>2019-07-17T15:03:44Z</time>
      </trkpt>
      <trkpt lat="47.85943" lon="-3.44824">
        <ele>61</ele>
        <time>2019-07-17T15:03:45Z</time>
      </trkpt>
      <trkpt lat="47.85943" lon="-3.44833">
        <ele>61</ele>
        <time>2019-07-17T15:03:46Z</time>
      </trkpt>
      <trkpt lat="47.85943" lon="-3.44843">
        <ele>61</ele>
        <time>2019-07-17T15:03:47Z</time>
      </trkpt>
      <trkpt lat="47.85943" lon="-3.44853">
        <ele>61</ele>
        <time>2019-07-17T15:03:48Z</time>
      </trkpt>
      <trkpt lat="47.85943" lon="-3.44865">
        <ele>61</ele>
        <time>2019-07-17T15:03:49Z</time>
      </trkpt>
      <trkpt lat="47.85944" lon="-3.44876">
        <ele>61</ele>
        <time>2019-07-17T15:03:50Z</time>
      </trkpt>
      <trkpt lat="47.85944" lon="-3.44887">
        <ele>61</ele>
        <time>2019-07-17T15:03:51Z</time>
      </trkpt>
      <trkpt lat="47.85945" lon="-3.449">
        <ele>60</ele>
        <time>2019-07-17T15:03:52Z</time>
      </trkpt>
      <trkpt lat="47.85947" lon="-3.44912">
        <ele>60</ele>
        <time>2019-07-17T15:03:53Z</time>
      </trkpt>
      <trkpt lat="47.85949" lon="-3.44924">
        <ele>60</ele>
        <time>2019-07-17T15:03:54Z</time>
      </trkpt>
      <trkpt lat="47.8595" lon="-3.44936">
        <ele>59</ele>
        <time>2019-07-17T15:03:55Z</time>
      </trkpt>
      <trkpt lat="47.8595" lon="-3.44948">
        <ele>59</ele>
        <time>2019-07-17T15:03:56Z</time>
      </trkpt>
      <trkpt lat="47.8595" lon="-3.44958">
        <ele>59</ele>
        <time>2019-07-17T15:03:57Z</time>
      </trkpt>
      <trkpt lat="47.85951" lon="-3.44969">
        <ele>58</ele>
        <time>2019-07-17T15:03:58Z</time>
      </trkpt>
      <trkpt lat="47.85951" lon="-3.44979">
        <ele>58</ele>
        <time>2019-07-17T15:03:59Z</time>
      </trkpt>
      <trkpt lat="47.85951" lon="-3.44989">
        <ele>58</ele>
        <time>2019-07-17T15:04:00Z</time>
      </trkpt>
      <trkpt lat="47.85951" lon="-3.44998">
        <ele>57</ele>
        <time>2019-07-17T15:04:01Z</time>
      </trkpt>
      <trkpt lat="47.8595" lon="-3.45006">
        <ele>57</ele>
        <time>2019-07-17T15:04:02Z</time>
      </trkpt>
      <trkpt lat="47.8595" lon="-3.45012">
        <ele>57</ele>
        <time>2019-07-17T15:04:03Z</time>
      </trkpt>
      <trkpt lat="47.8595" lon="-3.45016">
        <ele>57</ele>
        <time>2019-07-17T15:04:04Z</time>
      </trkpt>
      <trkpt lat="47.85952" lon="-3.45018">
        <ele>57</ele>
        <time>2019-07-17T15:04:05Z</time>
      </trkpt>
      <trkpt lat="47.85953" lon="-3.45017">
        <ele>56</ele>
        <time>2019-07-17T15:04:06Z</time>
      </trkpt>
      <trkpt lat="47.85955" lon="-3.45016">
        <ele>56</ele>
        <time>2019-07-17T15:04:07Z</time>
      </trkpt>
      <trkpt lat="47.85957" lon="-3.45017">
        <ele>56</ele>
        <time>2019-07-17T15:04:08Z</time>
      </trkpt>
      <trkpt lat="47.85958" lon="-3.45017">
        <ele>56</ele>
        <time>2019-07-17T15:04:09Z</time>
      </trkpt>
      <trkpt lat="47.8596" lon="-3.45018">
        <ele>56</ele>
        <time>2019-07-17T15:04:10Z</time>
      </trkpt>
      <trkpt lat="47.85961" lon="-3.45018">
        <ele>56</ele>
        <time>2019-07-17T15:04:11Z</time>
      </trkpt>
      <trkpt lat="47.85962" lon="-3.45019">
        <ele>56</ele>
        <time>2019-07-17T15:04:12Z</time>
      </trkpt>
      <trkpt lat="47.85962" lon="-3.45019">
        <ele>56</ele>
        <time>2019-07-17T15:04:13Z</time>
      </trkpt>
      <trkpt lat="47.85963" lon="-3.4502">
        <ele>56</ele>
        <time>2019-07-17T15:04:14Z</time>
      </trkpt>
      <trkpt lat="47.85964" lon="-3.45019">
        <ele>56</ele>
        <time>2019-07-17T15:04:15Z</time>
      </trkpt>
      <trkpt lat="47.85965" lon="-3.45019">
        <ele>56</ele>
        <time>2019-07-17T15:04:16Z</time>
      </trkpt>
      <trkpt lat="47.85965" lon="-3.45018">
        <ele>57</ele>
        <time>2019-07-17T15:04:17Z</time>
      </trkpt>
      <trkpt lat="47.85966" lon="-3.45019">
        <ele>57</ele>
        <time>2019-07-17T15:04:18Z</time>
      </trkpt>
      <trkpt lat="47.85966" lon="-3.45019">
        <ele>57</ele>
        <time>2019-07-17T15:04:19Z</time>
      </trkpt>
      <trkpt lat="47.85967" lon="-3.4502">
        <ele>57</ele>
        <time>2019-07-17T15:04:20Z</time>
      </trkpt>
      <trkpt lat="47.85968" lon="-3.4502">
        <ele>57</ele>
        <time>2019-07-17T15:04:21Z</time>
      </trkpt>
      <trkpt lat="47.85969" lon="-3.45021">
        <ele>57</ele>
        <time>2019-07-17T15:04:22Z</time>
      </trkpt>
      <trkpt lat="47.85969" lon="-3.45022">
        <ele>57</ele>
        <time>2019-07-17T15:04:23Z</time>
      </trkpt>
      <trkpt lat="47.8597" lon="-3.45023">
        <ele>57</ele>
        <time>2019-07-17T15:04:24Z</time>
      </trkpt>
      <trkpt lat="47.85971" lon="-3.45023">
        <ele>57</ele>
        <time>2019-07-17T15:04:25Z</time>
      </trkpt>
      <trkpt lat="47.85972" lon="-3.45025">
        <ele>57</ele>
        <time>2019-07-17T15:04:26Z</time>
      </trkpt>
      <trkpt lat="47.85974" lon="-3.45027">
        <ele>58</ele>
        <time>2019-07-17T15:04:27Z</time>
      </trkpt>
      <trkpt lat="47.85975" lon="-3.45028">
        <ele>58</ele>
        <time>2019-07-17T15:04:28Z</time>
      </trkpt>
      <trkpt lat="47.85976" lon="-3.4503">
        <ele>57</ele>
        <time>2019-07-17T15:04:29Z</time>
      </trkpt>
      <trkpt lat="47.85977" lon="-3.45031">
        <ele>57</ele>
        <time>2019-07-17T15:04:30Z</time>
      </trkpt>
      <trkpt lat="47.85979" lon="-3.45033">
        <ele>57</ele>
        <time>2019-07-17T15:04:31Z</time>
      </trkpt>
      <trkpt lat="47.85981" lon="-3.45034">
        <ele>57</ele>
        <time>2019-07-17T15:04:32Z</time>
      </trkpt>
      <trkpt lat="47.85984" lon="-3.45036">
        <ele>56</ele>
        <time>2019-07-17T15:04:33Z</time>
      </trkpt>
      <trkpt lat="47.85986" lon="-3.45038">
        <ele>56</ele>
        <time>2019-07-17T15:04:34Z</time>
      </trkpt>
      <trkpt lat="47.85989" lon="-3.45041">
        <ele>56</ele>
        <time>2019-07-17T15:04:35Z</time>
      </trkpt>
      <trkpt lat="47.8599" lon="-3.45044">
        <ele>56</ele>
        <time>2019-07-17T15:04:36Z</time>
      </trkpt>
      <trkpt lat="47.8599" lon="-3.45046">
        <ele>55</ele>
        <time>2019-07-17T15:04:37Z</time>
      </trkpt>
      <trkpt lat="47.85989" lon="-3.45049">
        <ele>55</ele>
        <time>2019-07-17T15:04:38Z</time>
      </trkpt>
      <trkpt lat="47.85988" lon="-3.45051">
        <ele>55</ele>
        <time>2019-07-17T15:04:39Z</time>
      </trkpt>
      <trkpt lat="47.85986" lon="-3.45054">
        <ele>55</ele>
        <time>2019-07-17T15:04:40Z</time>
      </trkpt>
      <trkpt lat="47.85984" lon="-3.45058">
        <ele>55</ele>
        <time>2019-07-17T15:04:41Z</time>
      </trkpt>
      <trkpt lat="47.85982" lon="-3.4506">
        <ele>55</ele>
        <time>2019-07-17T15:04:42Z</time>
      </trkpt>
      <trkpt lat="47.85979" lon="-3.45063">
        <ele>55</ele>
        <time>2019-07-17T15:04:43Z</time>
      </trkpt>
      <trkpt lat="47.85976" lon="-3.45066">
        <ele>55</ele>
        <time>2019-07-17T15:04:44Z</time>
      </trkpt>
      <trkpt lat="47.85974" lon="-3.4507">
        <ele>55</ele>
        <time>2019-07-17T15:04:45Z</time>
      </trkpt>
      <trkpt lat="47.85973" lon="-3.45074">
        <ele>55</ele>
        <time>2019-07-17T15:04:46Z</time>
      </trkpt>
      <trkpt lat="47.85972" lon="-3.45078">
        <ele>55</ele>
        <time>2019-07-17T15:04:47Z</time>
      </trkpt>
      <trkpt lat="47.85972" lon="-3.45082">
        <ele>55</ele>
        <time>2019-07-17T15:04:48Z</time>
      </trkpt>
      <trkpt lat="47.85973" lon="-3.45086">
        <ele>55</ele>
        <time>2019-07-17T15:04:49Z</time>
      </trkpt>
      <trkpt lat="47.85974" lon="-3.45089">
        <ele>55</ele>
        <time>2019-07-17T15:04:50Z</time>
      </trkpt>
      <trkpt lat="47.85975" lon="-3.45093">
        <ele>54</ele>
        <time>2019-07-17T15:04:51Z</time>
      </trkpt>
      <trkpt lat="47.85976" lon="-3.45095">
        <ele>54</ele>
        <time>2019-07-17T15:04:52Z</time>
      </trkpt>
      <trkpt lat="47.85976" lon="-3.45098">
        <ele>54</ele>
        <time>2019-07-17T15:04:53Z</time>
      </trkpt>
      <trkpt lat="47.85976" lon="-3.45102">
        <ele>54</ele>
        <time>2019-07-17T15:04:54Z</time>
      </trkpt>
      <trkpt lat="47.85976" lon="-3.45106">
        <ele>54</ele>
        <time>2019-07-17T15:04:55Z</time>
      </trkpt>
      <trkpt lat="47.85976" lon="-3.45111">
        <ele>54</ele>
        <time>2019-07-17T15:04:56Z</time>
      </trkpt>
      <trkpt lat="47.85976" lon="-3.45116">
        <ele>54</ele>
        <time>2019-07-17T15:04:57Z</time>
      </trkpt>
      <trkpt lat="47.85975" lon="-3.4512">
        <ele>54</ele>
        <time>2019-07-17T15:04:58Z</time>
      </trkpt>
      <trkpt lat="47.85974" lon="-3.45125">
        <ele>54</ele>
        <time>2019-07-17T15:04:59Z</time>
      </trkpt>
      <trkpt lat="47.85973" lon="-3.4513">
        <ele>54</ele>
        <time>2019-07-17T15:05:00Z</time>
      </trkpt>
      <trkpt lat="47.85972" lon="-3.45134">
        <ele>54</ele>
        <time>2019-07-17T15:05:01Z</time>
      </trkpt>
      <trkpt lat="47.85972" lon="-3.45139">
        <ele>54</ele>
        <time>2019-07-17T15:05:02Z</time>
      </trkpt>
      <trkpt lat="47.85972" lon="-3.45143">
        <ele>54</ele>
        <time>2019-07-17T15:05:03Z</time>
      </trkpt>
      <trkpt lat="47.85974" lon="-3.45148">
        <ele>54</ele>
        <time>2019-07-17T15:05:04Z</time>
      </trkpt>
      <trkpt lat="47.85975" lon="-3.45152">
        <ele>54</ele>
        <time>2019-07-17T15:05:05Z</time>
      </trkpt>
      <trkpt lat="47.85976" lon="-3.45156">
        <ele>55</ele>
        <time>2019-07-17T15:05:06Z</time>
      </trkpt>
      <trkpt lat="47.85978" lon="-3.45159">
        <ele>55</ele>
        <time>2019-07-17T15:05:07Z</time>
      </trkpt>
      <trkpt lat="47.85978" lon="-3.45162">
        <ele>55</ele>
        <time>2019-07-17T15:05:08Z</time>
      </trkpt>
      <trkpt lat="47.85978" lon="-3.45166">
        <ele>55</ele>
        <time>2019-07-17T15:05:09Z</time>
      </trkpt>
      <trkpt lat="47.85978" lon="-3.45169">
        <ele>55</ele>
        <time>2019-07-17T15:05:10Z</time>
      </trkpt>
      <trkpt lat="47.85976" lon="-3.45174">
        <ele>55</ele>
        <time>2019-07-17T15:05:11Z</time>
      </trkpt>
      <trkpt lat="47.85975" lon="-3.45178">
        <ele>55</ele>
        <time>2019-07-17T15:05:12Z</time>
      </trkpt>
      <trkpt lat="47.85974" lon="-3.45182">
        <ele>55</ele>
        <time>2019-07-17T15:05:13Z</time>
      </trkpt>
      <trkpt lat="47.85972" lon="-3.45186">
        <ele>56</ele>
        <time>2019-07-17T15:05:14Z</time>
      </trkpt>
      <trkpt lat="47.85971" lon="-3.4519">
        <ele>56</ele>
        <time>2019-07-17T15:05:15Z</time>
      </trkpt>
      <trkpt lat="47.8597" lon="-3.45195">
        <ele>56</ele>
        <time>2019-07-17T15:05:16Z</time>
      </trkpt>
      <trkpt lat="47.85969" lon="-3.452">
        <ele>56</ele>
        <time>2019-07-17T15:05:17Z</time>
      </trkpt>
      <trkpt lat="47.85969" lon="-3.45204">
        <ele>56</ele>
        <time>2019-07-17T15:05:18Z</time>
      </trkpt>
      <trkpt lat="47.8597" lon="-3.45209">
        <ele>57</ele>
        <time>2019-07-17T15:05:19Z</time>
      </trkpt>
      <trkpt lat="47.85972" lon="-3.45212">
        <ele>57</ele>
        <time>2019-07-17T15:05:20Z</time>
      </trkpt>
      <trkpt lat="47.85973" lon="-3.45214">
        <ele>57</ele>
        <time>2019-07-17T15:05:21Z</time>
      </trkpt>
      <trkpt lat="47.85975" lon="-3.45217">
        <ele>57</ele>
        <time>2019-07-17T15:05:22Z</time>
      </trkpt>
      <trkpt lat="47.85978" lon="-3.45219">
        <ele>57</ele>
        <time>2019-07-17T15:05:23Z</time>
      </trkpt>
      <trkpt lat="47.8598" lon="-3.4522">
        <ele>57</ele>
        <time>2019-07-17T15:05:24Z</time>
      </trkpt>
      <trkpt lat="47.85982" lon="-3.45221">
        <ele>57</ele>
        <time>2019-07-17T15:05:25Z</time>
      </trkpt>
      <trkpt lat="47.85984" lon="-3.45224">
        <ele>57</ele>
        <time>2019-07-17T15:05:26Z</time>
      </trkpt>
      <trkpt lat="47.85985" lon="-3.45228">
        <ele>57</ele>
        <time>2019-07-17T15:05:27Z</time>
      </trkpt>
      <trkpt lat="47.85985" lon="-3.45231">
        <ele>57</ele>
        <time>2019-07-17T15:05:28Z</time>
      </trkpt>
      <trkpt lat="47.85985" lon="-3.45234">
        <ele>58</ele>
        <time>2019-07-17T15:05:29Z</time>
      </trkpt>
      <trkpt lat="47.85984" lon="-3.45237">
        <ele>58</ele>
        <time>2019-07-17T15:05:30Z</time>
      </trkpt>
      <trkpt lat="47.85984" lon="-3.45239">
        <ele>58</ele>
        <time>2019-07-17T15:05:31Z</time>
      </trkpt>
      <trkpt lat="47.85983" lon="-3.45241">
        <ele>58</ele>
        <time>2019-07-17T15:05:32Z</time>
      </trkpt>
      <trkpt lat="47.85982" lon="-3.45244">
        <ele>58</ele>
        <time>2019-07-17T15:05:33Z</time>
      </trkpt>
      <trkpt lat="47.85982" lon="-3.45247">
        <ele>58</ele>
        <time>2019-07-17T15:05:34Z</time>
      </trkpt>
      <trkpt lat="47.85981" lon="-3.45249">
        <ele>58</ele>
        <time>2019-07-17T15:05:35Z</time>
      </trkpt>
      <trkpt lat="47.8598" lon="-3.45251">
        <ele>58</ele>
        <time>2019-07-17T15:05:36Z</time>
      </trkpt>
      <trkpt lat="47.85979" lon="-3.45254">
        <ele>58</ele>
        <time>2019-07-17T15:05:37Z</time>
      </trkpt>
      <trkpt lat="47.85979" lon="-3.45257">
        <ele>59</ele>
        <time>2019-07-17T15:05:38Z</time>
      </trkpt>
      <trkpt lat="47.85979" lon="-3.4526">
        <ele>59</ele>
        <time>2019-07-17T15:05:39Z</time>
      </trkpt>
      <trkpt lat="47.85979" lon="-3.45264">
        <ele>59</ele>
        <time>2019-07-17T15:05:40Z</time>
      </trkpt>
      <trkpt lat="47.85979" lon="-3.45267">
        <ele>59</ele>
        <time>2019-07-17T15:05:41Z</time>
      </trkpt>
      <trkpt lat="47.8598" lon="-3.45271">
        <ele>60</ele>
        <time>2019-07-17T15:05:42Z</time>
      </trkpt>
      <trkpt lat="47.8598" lon="-3.45277">
        <ele>60</ele>
        <time>2019-07-17T15:05:43Z</time>
      </trkpt>
      <trkpt lat="47.85981" lon="-3.45281">
        <ele>60</ele>
        <time>2019-07-17T15:05:44Z</time>
      </trkpt>
      <trkpt lat="47.85983" lon="-3.45286">
        <ele>60</ele>
        <time>2019-07-17T15:05:45Z</time>
      </trkpt>
      <trkpt lat="47.85985" lon="-3.4529">
        <ele>60</ele>
        <time>2019-07-17T15:05:46Z</time>
      </trkpt>
      <trkpt lat="47.85985" lon="-3.45294">
        <ele>60</ele>
        <time>2019-07-17T15:05:47Z</time>
      </trkpt>
      <trkpt lat="47.85985" lon="-3.45299">
        <ele>61</ele>
        <time>2019-07-17T15:05:48Z</time>
      </trkpt>
      <trkpt lat="47.85985" lon="-3.45303">
        <ele>61</ele>
        <time>2019-07-17T15:05:49Z</time>
      </trkpt>
      <trkpt lat="47.85986" lon="-3.45306">
        <ele>61</ele>
        <time>2019-07-17T15:05:50Z</time>
      </trkpt>
      <trkpt lat="47.85986" lon="-3.4531">
        <ele>61</ele>
        <time>2019-07-17T15:05:51Z</time>
      </trkpt>
      <trkpt lat="47.85986" lon="-3.45314">
        <ele>61</ele>
        <time>2019-07-17T15:05:52Z</time>
      </trkpt>
      <trkpt lat="47.85986" lon="-3.45318">
        <ele>61</ele>
        <time>2019-07-17T15:05:53Z</time>
      </trkpt>
      <trkpt lat="47.85985" lon="-3.45322">
        <ele>62</ele>
        <time>2019-07-17T15:05:54Z</time>
      </trkpt>
      <trkpt lat="47.85983" lon="-3.45325">
        <ele>62</ele>
        <time>2019-07-17T15:05:55Z</time>
      </trkpt>
      <trkpt lat="47.85982" lon="-3.45329">
        <ele>62</ele>
        <time>2019-07-17T15:05:56Z</time>
      </trkpt>
      <trkpt lat="47.8598" lon="-3.45333">
        <ele>62</ele>
        <time>2019-07-17T15:05:57Z</time>
      </trkpt>
      <trkpt lat="47.85979" lon="-3.45337">
        <ele>63</ele>
        <time>2019-07-17T15:05:58Z</time>
      </trkpt>
      <trkpt lat="47.85977" lon="-3.45342">
        <ele>63</ele>
        <time>2019-07-17T15:05:59Z</time>
      </trkpt>
      <trkpt lat="47.85976" lon="-3.45346">
        <ele>63</ele>
        <time>2019-07-17T15:06:00Z</time>
      </trkpt>
      <trkpt lat="47.85974" lon="-3.45352">
        <ele>64</ele>
        <time>2019-07-17T15:06:01Z</time>
      </trkpt>
      <trkpt lat="47.85972" lon="-3.45357">
        <ele>64</ele>
        <time>2019-07-17T15:06:02Z</time>
      </trkpt>
      <trkpt lat="47.85971" lon="-3.45361">
        <ele>64</ele>
        <time>2019-07-17T15:06:03Z</time>
      </trkpt>
      <trkpt lat="47.8597" lon="-3.45364">
        <ele>65</ele>
        <time>2019-07-17T15:06:04Z</time>
      </trkpt>
      <trkpt lat="47.85968" lon="-3.45367">
        <ele>65</ele>
        <time>2019-07-17T15:06:05Z</time>
      </trkpt>
      <trkpt lat="47.85966" lon="-3.4537">
        <ele>65</ele>
        <time>2019-07-17T15:06:06Z</time>
      </trkpt>
      <trkpt lat="47.85963" lon="-3.45372">
        <ele>66</ele>
        <time>2019-07-17T15:06:07Z</time>
      </trkpt>
      <trkpt lat="47.85959" lon="-3.45374">
        <ele>66</ele>
        <time>2019-07-17T15:06:08Z</time>
      </trkpt>
      <trkpt lat="47.85955" lon="-3.45377">
        <ele>66</ele>
        <time>2019-07-17T15:06:09Z</time>
      </trkpt>
      <trkpt lat="47.85952" lon="-3.45381">
        <ele>66</ele>
        <time>2019-07-17T15:06:10Z</time>
      </trkpt>
      <trkpt lat="47.85949" lon="-3.45383">
        <ele>66</ele>
        <time>2019-07-17T15:06:11Z</time>
      </trkpt>
      <trkpt lat="47.85947" lon="-3.45384">
        <ele>67</ele>
        <time>2019-07-17T15:06:12Z</time>
      </trkpt>
      <trkpt lat="47.85945" lon="-3.45382">
        <ele>67</ele>
        <time>2019-07-17T15:06:13Z</time>
      </trkpt>
      <trkpt lat="47.85942" lon="-3.4538">
        <ele>67</ele>
        <time>2019-07-17T15:06:14Z</time>
      </trkpt>
      <trkpt lat="47.8594" lon="-3.45378">
        <ele>67</ele>
        <time>2019-07-17T15:06:15Z</time>
      </trkpt>
      <trkpt lat="47.85937" lon="-3.45376">
        <ele>67</ele>
        <time>2019-07-17T15:06:16Z</time>
      </trkpt>
      <trkpt lat="47.85934" lon="-3.45373">
        <ele>67</ele>
        <time>2019-07-17T15:06:17Z</time>
      </trkpt>
      <trkpt lat="47.85931" lon="-3.45369">
        <ele>68</ele>
        <time>2019-07-17T15:06:18Z</time>
      </trkpt>
      <trkpt lat="47.85929" lon="-3.45365">
        <ele>68</ele>
        <time>2019-07-17T15:06:19Z</time>
      </trkpt>
      <trkpt lat="47.85926" lon="-3.45362">
        <ele>68</ele>
        <time>2019-07-17T15:06:20Z</time>
      </trkpt>
      <trkpt lat="47.85922" lon="-3.45359">
        <ele>68</ele>
        <time>2019-07-17T15:06:21Z</time>
      </trkpt>
      <trkpt lat="47.85918" lon="-3.45357">
        <ele>68</ele>
        <time>2019-07-17T15:06:22Z</time>
      </trkpt>
      <trkpt lat="47.85914" lon="-3.45357">
        <ele>68</ele>
        <time>2019-07-17T15:06:23Z</time>
      </trkpt>
      <trkpt lat="47.8591" lon="-3.45356">
        <ele>68</ele>
        <time>2019-07-17T15:06:24Z</time>
      </trkpt>
      <trkpt lat="47.85905" lon="-3.45355">
        <ele>68</ele>
        <time>2019-07-17T15:06:25Z</time>
      </trkpt>
      <trkpt lat="47.85899" lon="-3.45353">
        <ele>69</ele>
        <time>2019-07-17T15:06:26Z</time>
      </trkpt>
      <trkpt lat="47.85893" lon="-3.45352">
        <ele>69</ele>
        <time>2019-07-17T15:06:27Z</time>
      </trkpt>
      <trkpt lat="47.85888" lon="-3.45354">
        <ele>69</ele>
        <time>2019-07-17T15:06:28Z</time>
      </trkpt>
      <trkpt lat="47.85882" lon="-3.45355">
        <ele>69</ele>
        <time>2019-07-17T15:06:29Z</time>
      </trkpt>
      <trkpt lat="47.85877" lon="-3.45356">
        <ele>69</ele>
        <time>2019-07-17T15:06:30Z</time>
      </trkpt>
      <trkpt lat="47.85871" lon="-3.45356">
        <ele>69</ele>
        <time>2019-07-17T15:06:31Z</time>
      </trkpt>
      <trkpt lat="47.85867" lon="-3.45358">
        <ele>69</ele>
        <time>2019-07-17T15:06:32Z</time>
      </trkpt>
      <trkpt lat="47.85864" lon="-3.45362">
        <ele>69</ele>
        <time>2019-07-17T15:06:33Z</time>
      </trkpt>
      <trkpt lat="47.8586" lon="-3.45366">
        <ele>69</ele>
        <time>2019-07-17T15:06:34Z</time>
      </trkpt>
      <trkpt lat="47.85857" lon="-3.45371">
        <ele>69</ele>
        <time>2019-07-17T15:06:35Z</time>
      </trkpt>
      <trkpt lat="47.85855" lon="-3.45377">
        <ele>69</ele>
        <time>2019-07-17T15:06:36Z</time>
      </trkpt>
      <trkpt lat="47.85853" lon="-3.45383">
        <ele>68</ele>
        <time>2019-07-17T15:06:37Z</time>
      </trkpt>
      <trkpt lat="47.85852" lon="-3.45389">
        <ele>68</ele>
        <time>2019-07-17T15:06:38Z</time>
      </trkpt>
      <trkpt lat="47.85851" lon="-3.45396">
        <ele>68</ele>
        <time>2019-07-17T15:06:39Z</time>
      </trkpt>
      <trkpt lat="47.8585" lon="-3.45403">
        <ele>68</ele>
        <time>2019-07-17T15:06:40Z</time>
      </trkpt>
      <trkpt lat="47.85849" lon="-3.4541">
        <ele>68</ele>
        <time>2019-07-17T15:06:41Z</time>
      </trkpt>
      <trkpt lat="47.85849" lon="-3.45417">
        <ele>68</ele>
        <time>2019-07-17T15:06:42Z</time>
      </trkpt>
      <trkpt lat="47.85848" lon="-3.45424">
        <ele>68</ele>
        <time>2019-07-17T15:06:43Z</time>
      </trkpt>
      <trkpt lat="47.85848" lon="-3.4543">
        <ele>68</ele>
        <time>2019-07-17T15:06:44Z</time>
      </trkpt>
      <trkpt lat="47.85848" lon="-3.45436">
        <ele>68</ele>
        <time>2019-07-17T15:06:45Z</time>
      </trkpt>
      <trkpt lat="47.85847" lon="-3.45443">
        <ele>68</ele>
        <time>2019-07-17T15:06:46Z</time>
      </trkpt>
      <trkpt lat="47.85846" lon="-3.4545">
        <ele>68</ele>
        <time>2019-07-17T15:06:47Z</time>
      </trkpt>
      <trkpt lat="47.85846" lon="-3.45457">
        <ele>68</ele>
        <time>2019-07-17T15:06:48Z</time>
      </trkpt>
      <trkpt lat="47.85846" lon="-3.45464">
        <ele>68</ele>
        <time>2019-07-17T15:06:49Z</time>
      </trkpt>
      <trkpt lat="47.85845" lon="-3.4547">
        <ele>68</ele>
        <time>2019-07-17T15:06:50Z</time>
      </trkpt>
      <trkpt lat="47.85844" lon="-3.45477">
        <ele>68</ele>
        <time>2019-07-17T15:06:51Z</time>
      </trkpt>
      <trkpt lat="47.85843" lon="-3.45485">
        <ele>68</ele>
        <time>2019-07-17T15:06:52Z</time>
      </trkpt>
      <trkpt lat="47.85842" lon="-3.45493">
        <ele>68</ele>
        <time>2019-07-17T15:06:53Z</time>
      </trkpt>
      <trkpt lat="47.85842" lon="-3.45501">
        <ele>68</ele>
        <time>2019-07-17T15:06:54Z</time>
      </trkpt>
      <trkpt lat="47.85841" lon="-3.45508">
        <ele>67</ele>
        <time>2019-07-17T15:06:55Z</time>
      </trkpt>
      <trkpt lat="47.8584" lon="-3.45516">
        <ele>67</ele>
        <time>2019-07-17T15:06:56Z</time>
      </trkpt>
      <trkpt lat="47.85839" lon="-3.45525">
        <ele>67</ele>
        <time>2019-07-17T15:06:57Z</time>
      </trkpt>
      <trkpt lat="47.85838" lon="-3.45534">
        <ele>67</ele>
        <time>2019-07-17T15:06:58Z</time>
      </trkpt>
      <trkpt lat="47.85837" lon="-3.45542">
        <ele>66</ele>
        <time>2019-07-17T15:06:59Z</time>
      </trkpt>
      <trkpt lat="47.85837" lon="-3.45551">
        <ele>66</ele>
        <time>2019-07-17T15:07:00Z</time>
      </trkpt>
      <trkpt lat="47.85836" lon="-3.45559">
        <ele>66</ele>
        <time>2019-07-17T15:07:01Z</time>
      </trkpt>
      <trkpt lat="47.85836" lon="-3.45568">
        <ele>65</ele>
        <time>2019-07-17T15:07:02Z</time>
      </trkpt>
      <trkpt lat="47.85835" lon="-3.45577">
        <ele>65</ele>
        <time>2019-07-17T15:07:03Z</time>
      </trkpt>
      <trkpt lat="47.85834" lon="-3.45586">
        <ele>65</ele>
        <time>2019-07-17T15:07:04Z</time>
      </trkpt>
      <trkpt lat="47.85835" lon="-3.45595">
        <ele>65</ele>
        <time>2019-07-17T15:07:05Z</time>
      </trkpt>
      <trkpt lat="47.85835" lon="-3.45604">
        <ele>64</ele>
        <time>2019-07-17T15:07:06Z</time>
      </trkpt>
      <trkpt lat="47.85835" lon="-3.45613">
        <ele>64</ele>
        <time>2019-07-17T15:07:07Z</time>
      </trkpt>
      <trkpt lat="47.85835" lon="-3.45621">
        <ele>64</ele>
        <time>2019-07-17T15:07:08Z</time>
      </trkpt>
      <trkpt lat="47.85835" lon="-3.4563">
        <ele>64</ele>
        <time>2019-07-17T15:07:09Z</time>
      </trkpt>
      <trkpt lat="47.85835" lon="-3.45639">
        <ele>63</ele>
        <time>2019-07-17T15:07:10Z</time>
      </trkpt>
      <trkpt lat="47.85834" lon="-3.45647">
        <ele>63</ele>
        <time>2019-07-17T15:07:11Z</time>
      </trkpt>
      <trkpt lat="47.85834" lon="-3.45655">
        <ele>63</ele>
        <time>2019-07-17T15:07:12Z</time>
      </trkpt>
      <trkpt lat="47.85834" lon="-3.45664">
        <ele>62</ele>
        <time>2019-07-17T15:07:13Z</time>
      </trkpt>
      <trkpt lat="47.85834" lon="-3.45671">
        <ele>62</ele>
        <time>2019-07-17T15:07:14Z</time>
      </trkpt>
      <trkpt lat="47.85833" lon="-3.45679">
        <ele>62</ele>
        <time>2019-07-17T15:07:15Z</time>
      </trkpt>
      <trkpt lat="47.85833" lon="-3.45687">
        <ele>62</ele>
        <time>2019-07-17T15:07:16Z</time>
      </trkpt>
      <trkpt lat="47.85831" lon="-3.45694">
        <ele>61</ele>
        <time>2019-07-17T15:07:17Z</time>
      </trkpt>
      <trkpt lat="47.8583" lon="-3.45702">
        <ele>61</ele>
        <time>2019-07-17T15:07:18Z</time>
      </trkpt>
      <trkpt lat="47.85829" lon="-3.45709">
        <ele>61</ele>
        <time>2019-07-17T15:07:19Z</time>
      </trkpt>
      <trkpt lat="47.85827" lon="-3.45717">
        <ele>61</ele>
        <time>2019-07-17T15:07:20Z</time>
      </trkpt>
      <trkpt lat="47.85826" lon="-3.45725">
        <ele>61</ele>
        <time>2019-07-17T15:07:21Z</time>
      </trkpt>
      <trkpt lat="47.85825" lon="-3.45732">
        <ele>60</ele>
        <time>2019-07-17T15:07:22Z</time>
      </trkpt>
      <trkpt lat="47.85824" lon="-3.45739">
        <ele>60</ele>
        <time>2019-07-17T15:07:23Z</time>
      </trkpt>
      <trkpt lat="47.85823" lon="-3.45746">
        <ele>60</ele>
        <time>2019-07-17T15:07:24Z</time>
      </trkpt>
      <trkpt lat="47.85821" lon="-3.45753">
        <ele>60</ele>
        <time>2019-07-17T15:07:25Z</time>
      </trkpt>
      <trkpt lat="47.8582" lon="-3.45759">
        <ele>60</ele>
        <time>2019-07-17T15:07:26Z</time>
      </trkpt>
      <trkpt lat="47.8582" lon="-3.45765">
        <ele>60</ele>
        <time>2019-07-17T15:07:27Z</time>
      </trkpt>
      <trkpt lat="47.85819" lon="-3.45771">
        <ele>59</ele>
        <time>2019-07-17T15:07:28Z</time>
      </trkpt>
      <trkpt lat="47.85819" lon="-3.45777">
        <ele>59</ele>
        <time>2019-07-17T15:07:29Z</time>
      </trkpt>
      <trkpt lat="47.8582" lon="-3.45782">
        <ele>59</ele>
        <time>2019-07-17T15:07:30Z</time>
      </trkpt>
      <trkpt lat="47.85818" lon="-3.45787">
        <ele>60</ele>
        <time>2019-07-17T15:07:31Z</time>
      </trkpt>
      <trkpt lat="47.85817" lon="-3.45792">
        <ele>60</ele>
        <time>2019-07-17T15:07:32Z</time>
      </trkpt>
      <trkpt lat="47.85815" lon="-3.45798">
        <ele>60</ele>
        <time>2019-07-17T15:07:33Z</time>
      </trkpt>
      <trkpt lat="47.85814" lon="-3.45803">
        <ele>60</ele>
        <time>2019-07-17T15:07:34Z</time>
      </trkpt>
      <trkpt lat="47.85812" lon="-3.45809">
        <ele>60</ele>
        <time>2019-07-17T15:07:35Z</time>
      </trkpt>
      <trkpt lat="47.85811" lon="-3.45815">
        <ele>60</ele>
        <time>2019-07-17T15:07:36Z</time>
      </trkpt>
      <trkpt lat="47.85811" lon="-3.45822">
        <ele>60</ele>
        <time>2019-07-17T15:07:37Z</time>
      </trkpt>
      <trkpt lat="47.85811" lon="-3.45829">
        <ele>60</ele>
        <time>2019-07-17T15:07:38Z</time>
      </trkpt>
      <trkpt lat="47.85811" lon="-3.45835">
        <ele>60</ele>
        <time>2019-07-17T15:07:39Z</time>
      </trkpt>
      <trkpt lat="47.8581" lon="-3.45842">
        <ele>60</ele>
        <time>2019-07-17T15:07:40Z</time>
      </trkpt>
      <trkpt lat="47.8581" lon="-3.45848">
        <ele>60</ele>
        <time>2019-07-17T15:07:41Z</time>
      </trkpt>
      <trkpt lat="47.85809" lon="-3.45855">
        <ele>60</ele>
        <time>2019-07-17T15:07:42Z</time>
      </trkpt>
      <trkpt lat="47.85808" lon="-3.45862">
        <ele>60</ele>
        <time>2019-07-17T15:07:43Z</time>
      </trkpt>
      <trkpt lat="47.85808" lon="-3.45868">
        <ele>60</ele>
        <time>2019-07-17T15:07:44Z</time>
      </trkpt>
      <trkpt lat="47.85807" lon="-3.45875">
        <ele>60</ele>
        <time>2019-07-17T15:07:45Z</time>
      </trkpt>
      <trkpt lat="47.85806" lon="-3.45882">
        <ele>60</ele>
        <time>2019-07-17T15:07:46Z</time>
      </trkpt>
      <trkpt lat="47.85805" lon="-3.45888">
        <ele>60</ele>
        <time>2019-07-17T15:07:47Z</time>
      </trkpt>
      <trkpt lat="47.85805" lon="-3.45895">
        <ele>60</ele>
        <time>2019-07-17T15:07:48Z</time>
      </trkpt>
      <trkpt lat="47.85804" lon="-3.45902">
        <ele>60</ele>
        <time>2019-07-17T15:07:49Z</time>
      </trkpt>
      <trkpt lat="47.85803" lon="-3.45909">
        <ele>61</ele>
        <time>2019-07-17T15:07:50Z</time>
      </trkpt>
      <trkpt lat="47.85803" lon="-3.45916">
        <ele>61</ele>
        <time>2019-07-17T15:07:51Z</time>
      </trkpt>
      <trkpt lat="47.85802" lon="-3.45922">
        <ele>61</ele>
        <time>2019-07-17T15:07:52Z</time>
      </trkpt>
      <trkpt lat="47.85802" lon="-3.45929">
        <ele>61</ele>
        <time>2019-07-17T15:07:53Z</time>
      </trkpt>
      <trkpt lat="47.85801" lon="-3.45936">
        <ele>61</ele>
        <time>2019-07-17T15:07:54Z</time>
      </trkpt>
      <trkpt lat="47.85801" lon="-3.45943">
        <ele>61</ele>
        <time>2019-07-17T15:07:55Z</time>
      </trkpt>
      <trkpt lat="47.85801" lon="-3.45949">
        <ele>61</ele>
        <time>2019-07-17T15:07:56Z</time>
      </trkpt>
      <trkpt lat="47.858" lon="-3.45955">
        <ele>61</ele>
        <time>2019-07-17T15:07:57Z</time>
      </trkpt>
      <trkpt lat="47.858" lon="-3.45961">
        <ele>61</ele>
        <time>2019-07-17T15:07:58Z</time>
      </trkpt>
      <trkpt lat="47.858" lon="-3.45966">
        <ele>61</ele>
        <time>2019-07-17T15:07:59Z</time>
      </trkpt>
      <trkpt lat="47.858" lon="-3.45972">
        <ele>61</ele>
        <time>2019-07-17T15:08:00Z</time>
      </trkpt>
      <trkpt lat="47.858" lon="-3.45977">
        <ele>61</ele>
        <time>2019-07-17T15:08:01Z</time>
      </trkpt>
      <trkpt lat="47.858" lon="-3.45983">
        <ele>61</ele>
        <time>2019-07-17T15:08:02Z</time>
      </trkpt>
      <trkpt lat="47.85801" lon="-3.45989">
        <ele>61</ele>
        <time>2019-07-17T15:08:03Z</time>
      </trkpt>
      <trkpt lat="47.85801" lon="-3.45993">
        <ele>61</ele>
        <time>2019-07-17T15:08:04Z</time>
      </trkpt>
      <trkpt lat="47.85802" lon="-3.45996">
        <ele>61</ele>
        <time>2019-07-17T15:08:05Z</time>
      </trkpt>
      <trkpt lat="47.85802" lon="-3.45998">
        <ele>61</ele>
        <time>2019-07-17T15:08:06Z</time>
      </trkpt>
      <trkpt lat="47.85801" lon="-3.45999">
        <ele>61</ele>
        <time>2019-07-17T15:08:07Z</time>
      </trkpt>
      <trkpt lat="47.85799" lon="-3.46">
        <ele>61</ele>
        <time>2019-07-17T15:08:08Z</time>
      </trkpt>
      <trkpt lat="47.85798" lon="-3.45998">
        <ele>61</ele>
        <time>2019-07-17T15:08:09Z</time>
      </trkpt>
      <trkpt lat="47.85796" lon="-3.45994">
        <ele>61</ele>
        <time>2019-07-17T15:08:10Z</time>
      </trkpt>
      <trkpt lat="47.85794" lon="-3.4599">
        <ele>61</ele>
        <time>2019-07-17T15:08:11Z</time>
      </trkpt>
      <trkpt lat="47.85791" lon="-3.45986">
        <ele>61</ele>
        <time>2019-07-17T15:08:12Z</time>
      </trkpt>
      <trkpt lat="47.85787" lon="-3.45983">
        <ele>61</ele>
        <time>2019-07-17T15:08:13Z</time>
      </trkpt>
      <trkpt lat="47.85782" lon="-3.45979">
        <ele>61</ele>
        <time>2019-07-17T15:08:14Z</time>
      </trkpt>
      <trkpt lat="47.85778" lon="-3.45976">
        <ele>61</ele>
        <time>2019-07-17T15:08:15Z</time>
      </trkpt>
      <trkpt lat="47.85774" lon="-3.45974">
        <ele>61</ele>
        <time>2019-07-17T15:08:16Z</time>
      </trkpt>
      <trkpt lat="47.85769" lon="-3.4597">
        <ele>61</ele>
        <time>2019-07-17T15:08:17Z</time>
      </trkpt>
      <trkpt lat="47.85764" lon="-3.45966">
        <ele>61</ele>
        <time>2019-07-17T15:08:18Z</time>
      </trkpt>
      <trkpt lat="47.85759" lon="-3.45962">
        <ele>61</ele>
        <time>2019-07-17T15:08:19Z</time>
      </trkpt>
      <trkpt lat="47.85754" lon="-3.45958">
        <ele>61</ele>
        <time>2019-07-17T15:08:20Z</time>
      </trkpt>
      <trkpt lat="47.85749" lon="-3.45957">
        <ele>60</ele>
        <time>2019-07-17T15:08:21Z</time>
      </trkpt>
      <trkpt lat="47.85743" lon="-3.45959">
        <ele>60</ele>
        <time>2019-07-17T15:08:22Z</time>
      </trkpt>
      <trkpt lat="47.85739" lon="-3.45963">
        <ele>60</ele>
        <time>2019-07-17T15:08:23Z</time>
      </trkpt>
      <trkpt lat="47.85736" lon="-3.4597">
        <ele>60</ele>
        <time>2019-07-17T15:08:24Z</time>
      </trkpt>
      <trkpt lat="47.85734" lon="-3.45977">
        <ele>61</ele>
        <time>2019-07-17T15:08:25Z</time>
      </trkpt>
      <trkpt lat="47.85733" lon="-3.45983">
        <ele>61</ele>
        <time>2019-07-17T15:08:26Z</time>
      </trkpt>
      <trkpt lat="47.85731" lon="-3.4599">
        <ele>61</ele>
        <time>2019-07-17T15:08:27Z</time>
      </trkpt>
      <trkpt lat="47.85729" lon="-3.45998">
        <ele>60</ele>
        <time>2019-07-17T15:08:28Z</time>
      </trkpt>
      <trkpt lat="47.85728" lon="-3.46005">
        <ele>60</ele>
        <time>2019-07-17T15:08:29Z</time>
      </trkpt>
      <trkpt lat="47.85726" lon="-3.46014">
        <ele>60</ele>
        <time>2019-07-17T15:08:30Z</time>
      </trkpt>
      <trkpt lat="47.85726" lon="-3.46022">
        <ele>60</ele>
        <time>2019-07-17T15:08:31Z</time>
      </trkpt>
      <trkpt lat="47.85725" lon="-3.46031">
        <ele>60</ele>
        <time>2019-07-17T15:08:32Z</time>
      </trkpt>
      <trkpt lat="47.85724" lon="-3.46039">
        <ele>60</ele>
        <time>2019-07-17T15:08:33Z</time>
      </trkpt>
      <trkpt lat="47.85723" lon="-3.46048">
        <ele>60</ele>
        <time>2019-07-17T15:08:34Z</time>
      </trkpt>
      <trkpt lat="47.85723" lon="-3.46057">
        <ele>60</ele>
        <time>2019-07-17T15:08:35Z</time>
      </trkpt>
      <trkpt lat="47.85723" lon="-3.46066">
        <ele>60</ele>
        <time>2019-07-17T15:08:36Z</time>
      </trkpt>
      <trkpt lat="47.85723" lon="-3.46075">
        <ele>59</ele>
        <time>2019-07-17T15:08:37Z</time>
      </trkpt>
      <trkpt lat="47.85724" lon="-3.46084">
        <ele>59</ele>
        <time>2019-07-17T15:08:38Z</time>
      </trkpt>
      <trkpt lat="47.85724" lon="-3.46093">
        <ele>59</ele>
        <time>2019-07-17T15:08:39Z</time>
      </trkpt>
      <trkpt lat="47.85725" lon="-3.46102">
        <ele>59</ele>
        <time>2019-07-17T15:08:40Z</time>
      </trkpt>
      <trkpt lat="47.85726" lon="-3.46111">
        <ele>59</ele>
        <time>2019-07-17T15:08:41Z</time>
      </trkpt>
      <trkpt lat="47.85726" lon="-3.4612">
        <ele>59</ele>
        <time>2019-07-17T15:08:42Z</time>
      </trkpt>
      <trkpt lat="47.85727" lon="-3.46129">
        <ele>59</ele>
        <time>2019-07-17T15:08:43Z</time>
      </trkpt>
      <trkpt lat="47.85728" lon="-3.46139">
        <ele>59</ele>
        <time>2019-07-17T15:08:44Z</time>
      </trkpt>
      <trkpt lat="47.85729" lon="-3.46148">
        <ele>59</ele>
        <time>2019-07-17T15:08:45Z</time>
      </trkpt>
      <trkpt lat="47.8573" lon="-3.46157">
        <ele>59</ele>
        <time>2019-07-17T15:08:46Z</time>
      </trkpt>
      <trkpt lat="47.85731" lon="-3.46166">
        <ele>59</ele>
        <time>2019-07-17T15:08:47Z</time>
      </trkpt>
      <trkpt lat="47.85733" lon="-3.46175">
        <ele>59</ele>
        <time>2019-07-17T15:08:48Z</time>
      </trkpt>
      <trkpt lat="47.85734" lon="-3.46184">
        <ele>59</ele>
        <time>2019-07-17T15:08:49Z</time>
      </trkpt>
      <trkpt lat="47.85735" lon="-3.46193">
        <ele>59</ele>
        <time>2019-07-17T15:08:50Z</time>
      </trkpt>
      <trkpt lat="47.85735" lon="-3.46202">
        <ele>59</ele>
        <time>2019-07-17T15:08:51Z</time>
      </trkpt>
      <trkpt lat="47.85736" lon="-3.46212">
        <ele>59</ele>
        <time>2019-07-17T15:08:52Z</time>
      </trkpt>
      <trkpt lat="47.85735" lon="-3.4622">
        <ele>58</ele>
        <time>2019-07-17T15:08:53Z</time>
      </trkpt>
      <trkpt lat="47.85734" lon="-3.46228">
        <ele>58</ele>
        <time>2019-07-17T15:08:54Z</time>
      </trkpt>
      <trkpt lat="47.8573" lon="-3.46235">
        <ele>58</ele>
        <time>2019-07-17T15:08:55Z</time>
      </trkpt>
      <trkpt lat="47.85726" lon="-3.46241">
        <ele>57</ele>
        <time>2019-07-17T15:08:56Z</time>
      </trkpt>
      <trkpt lat="47.85719" lon="-3.46246">
        <ele>56</ele>
        <time>2019-07-17T15:08:57Z</time>
      </trkpt>
      <trkpt lat="47.85713" lon="-3.46251">
        <ele>56</ele>
        <time>2019-07-17T15:08:58Z</time>
      </trkpt>
      <trkpt lat="47.85707" lon="-3.46256">
        <ele>55</ele>
        <time>2019-07-17T15:08:59Z</time>
      </trkpt>
      <trkpt lat="47.857" lon="-3.46261">
        <ele>55</ele>
        <time>2019-07-17T15:09:00Z</time>
      </trkpt>
      <trkpt lat="47.85693" lon="-3.46267">
        <ele>54</ele>
        <time>2019-07-17T15:09:01Z</time>
      </trkpt>
      <trkpt lat="47.85685" lon="-3.46273">
        <ele>53</ele>
        <time>2019-07-17T15:09:02Z</time>
      </trkpt>
      <trkpt lat="47.85678" lon="-3.4628">
        <ele>52</ele>
        <time>2019-07-17T15:09:03Z</time>
      </trkpt>
      <trkpt lat="47.8567" lon="-3.46287">
        <ele>52</ele>
        <time>2019-07-17T15:09:04Z</time>
      </trkpt>
      <trkpt lat="47.85662" lon="-3.46294">
        <ele>51</ele>
        <time>2019-07-17T15:09:05Z</time>
      </trkpt>
      <trkpt lat="47.85654" lon="-3.46303">
        <ele>50</ele>
        <time>2019-07-17T15:09:06Z</time>
      </trkpt>
      <trkpt lat="47.85646" lon="-3.46311">
        <ele>49</ele>
        <time>2019-07-17T15:09:07Z</time>
      </trkpt>
      <trkpt lat="47.85638" lon="-3.46319">
        <ele>49</ele>
        <time>2019-07-17T15:09:08Z</time>
      </trkpt>
      <trkpt lat="47.8563" lon="-3.46327">
        <ele>48</ele>
        <time>2019-07-17T15:09:09Z</time>
      </trkpt>
      <trkpt lat="47.85622" lon="-3.46335">
        <ele>47</ele>
        <time>2019-07-17T15:09:10Z</time>
      </trkpt>
      <trkpt lat="47.85614" lon="-3.46342">
        <ele>47</ele>
        <time>2019-07-17T15:09:11Z</time>
      </trkpt>
      <trkpt lat="47.85605" lon="-3.4635">
        <ele>46</ele>
        <time>2019-07-17T15:09:12Z</time>
      </trkpt>
      <trkpt lat="47.85597" lon="-3.46357">
        <ele>46</ele>
        <time>2019-07-17T15:09:13Z</time>
      </trkpt>
      <trkpt lat="47.85589" lon="-3.46365">
        <ele>45</ele>
        <time>2019-07-17T15:09:14Z</time>
      </trkpt>
      <trkpt lat="47.85581" lon="-3.46373">
        <ele>45</ele>
        <time>2019-07-17T15:09:15Z</time>
      </trkpt>
      <trkpt lat="47.85574" lon="-3.46381">
        <ele>44</ele>
        <time>2019-07-17T15:09:16Z</time>
      </trkpt>
      <trkpt lat="47.85566" lon="-3.46389">
        <ele>44</ele>
        <time>2019-07-17T15:09:17Z</time>
      </trkpt>
      <trkpt lat="47.85558" lon="-3.46396">
        <ele>44</ele>
        <time>2019-07-17T15:09:18Z</time>
      </trkpt>
      <trkpt lat="47.8555" lon="-3.46403">
        <ele>43</ele>
        <time>2019-07-17T15:09:19Z</time>
      </trkpt>
      <trkpt lat="47.85542" lon="-3.4641">
        <ele>43</ele>
        <time>2019-07-17T15:09:20Z</time>
      </trkpt>
      <trkpt lat="47.85535" lon="-3.46416">
        <ele>43</ele>
        <time>2019-07-17T15:09:21Z</time>
      </trkpt>
      <trkpt lat="47.85527" lon="-3.46423">
        <ele>43</ele>
        <time>2019-07-17T15:09:22Z</time>
      </trkpt>
      <trkpt lat="47.85519" lon="-3.46429">
        <ele>42</ele>
        <time>2019-07-17T15:09:23Z</time>
      </trkpt>
      <trkpt lat="47.85512" lon="-3.46435">
        <ele>42</ele>
        <time>2019-07-17T15:09:24Z</time>
      </trkpt>
      <trkpt lat="47.85503" lon="-3.46439">
        <ele>42</ele>
        <time>2019-07-17T15:09:25Z</time>
      </trkpt>
      <trkpt lat="47.85496" lon="-3.46443">
        <ele>42</ele>
        <time>2019-07-17T15:09:26Z</time>
      </trkpt>
      <trkpt lat="47.85488" lon="-3.46446">
        <ele>41</ele>
        <time>2019-07-17T15:09:27Z</time>
      </trkpt>
      <trkpt lat="47.85481" lon="-3.46449">
        <ele>41</ele>
        <time>2019-07-17T15:09:28Z</time>
      </trkpt>
      <trkpt lat="47.85474" lon="-3.46452">
        <ele>41</ele>
        <time>2019-07-17T15:09:29Z</time>
      </trkpt>
      <trkpt lat="47.85467" lon="-3.46455">
        <ele>41</ele>
        <time>2019-07-17T15:09:30Z</time>
      </trkpt>
      <trkpt lat="47.8546" lon="-3.46457">
        <ele>42</ele>
        <time>2019-07-17T15:09:31Z</time>
      </trkpt>
      <trkpt lat="47.85454" lon="-3.46459">
        <ele>42</ele>
        <time>2019-07-17T15:09:32Z</time>
      </trkpt>
      <trkpt lat="47.85447" lon="-3.46462">
        <ele>42</ele>
        <time>2019-07-17T15:09:33Z</time>
      </trkpt>
      <trkpt lat="47.85441" lon="-3.46463">
        <ele>42</ele>
        <time>2019-07-17T15:09:34Z</time>
      </trkpt>
      <trkpt lat="47.85435" lon="-3.46465">
        <ele>42</ele>
        <time>2019-07-17T15:09:35Z</time>
      </trkpt>
      <trkpt lat="47.85428" lon="-3.46466">
        <ele>42</ele>
        <time>2019-07-17T15:09:36Z</time>
      </trkpt>
      <trkpt lat="47.85423" lon="-3.46468">
        <ele>42</ele>
        <time>2019-07-17T15:09:37Z</time>
      </trkpt>
      <trkpt lat="47.85417" lon="-3.46469">
        <ele>43</ele>
        <time>2019-07-17T15:09:38Z</time>
      </trkpt>
      <trkpt lat="47.85411" lon="-3.46471">
        <ele>43</ele>
        <time>2019-07-17T15:09:39Z</time>
      </trkpt>
      <trkpt lat="47.85405" lon="-3.46472">
        <ele>43</ele>
        <time>2019-07-17T15:09:40Z</time>
      </trkpt>
      <trkpt lat="47.854" lon="-3.46473">
        <ele>43</ele>
        <time>2019-07-17T15:09:41Z</time>
      </trkpt>
      <trkpt lat="47.85394" lon="-3.46474">
        <ele>44</ele>
        <time>2019-07-17T15:09:42Z</time>
      </trkpt>
      <trkpt lat="47.85389" lon="-3.46475">
        <ele>44</ele>
        <time>2019-07-17T15:09:43Z</time>
      </trkpt>
      <trkpt lat="47.85384" lon="-3.46475">
        <ele>44</ele>
        <time>2019-07-17T15:09:44Z</time>
      </trkpt>
      <trkpt lat="47.85379" lon="-3.46476">
        <ele>44</ele>
        <time>2019-07-17T15:09:45Z</time>
      </trkpt>
      <trkpt lat="47.85373" lon="-3.46477">
        <ele>44</ele>
        <time>2019-07-17T15:09:46Z</time>
      </trkpt>
      <trkpt lat="47.85368" lon="-3.46478">
        <ele>44</ele>
        <time>2019-07-17T15:09:47Z</time>
      </trkpt>
      <trkpt lat="47.85363" lon="-3.46478">
        <ele>44</ele>
        <time>2019-07-17T15:09:48Z</time>
      </trkpt>
      <trkpt lat="47.85358" lon="-3.46479">
        <ele>44</ele>
        <time>2019-07-17T15:09:49Z</time>
      </trkpt>
      <trkpt lat="47.85352" lon="-3.46479">
        <ele>45</ele>
        <time>2019-07-17T15:09:50Z</time>
      </trkpt>
      <trkpt lat="47.85348" lon="-3.46479">
        <ele>45</ele>
        <time>2019-07-17T15:09:51Z</time>
      </trkpt>
      <trkpt lat="47.85342" lon="-3.4648">
        <ele>45</ele>
        <time>2019-07-17T15:09:52Z</time>
      </trkpt>
      <trkpt lat="47.85338" lon="-3.4648">
        <ele>45</ele>
        <time>2019-07-17T15:09:53Z</time>
      </trkpt>
      <trkpt lat="47.85333" lon="-3.46481">
        <ele>45</ele>
        <time>2019-07-17T15:09:54Z</time>
      </trkpt>
      <trkpt lat="47.85328" lon="-3.46482">
        <ele>45</ele>
        <time>2019-07-17T15:09:55Z</time>
      </trkpt>
      <trkpt lat="47.85323" lon="-3.46483">
        <ele>45</ele>
        <time>2019-07-17T15:09:56Z</time>
      </trkpt>
      <trkpt lat="47.85319" lon="-3.46484">
        <ele>45</ele>
        <time>2019-07-17T15:09:57Z</time>
      </trkpt>
      <trkpt lat="47.85314" lon="-3.46485">
        <ele>45</ele>
        <time>2019-07-17T15:09:58Z</time>
      </trkpt>
      <trkpt lat="47.85309" lon="-3.46487">
        <ele>45</ele>
        <time>2019-07-17T15:09:59Z</time>
      </trkpt>
      <trkpt lat="47.85304" lon="-3.46488">
        <ele>45</ele>
        <time>2019-07-17T15:10:00Z</time>
      </trkpt>
      <trkpt lat="47.85299" lon="-3.4649">
        <ele>45</ele>
        <time>2019-07-17T15:10:01Z</time>
      </trkpt>
      <trkpt lat="47.85294" lon="-3.46492">
        <ele>45</ele>
        <time>2019-07-17T15:10:02Z</time>
      </trkpt>
      <trkpt lat="47.85289" lon="-3.46495">
        <ele>45</ele>
        <time>2019-07-17T15:10:03Z</time>
      </trkpt>
      <trkpt lat="47.85283" lon="-3.46497">
        <ele>45</ele>
        <time>2019-07-17T15:10:04Z</time>
      </trkpt>
      <trkpt lat="47.85278" lon="-3.46499">
        <ele>45</ele>
        <time>2019-07-17T15:10:05Z</time>
      </trkpt>
      <trkpt lat="47.85273" lon="-3.46502">
        <ele>45</ele>
        <time>2019-07-17T15:10:06Z</time>
      </trkpt>
      <trkpt lat="47.85267" lon="-3.46504">
        <ele>45</ele>
        <time>2019-07-17T15:10:07Z</time>
      </trkpt>
      <trkpt lat="47.85261" lon="-3.46507">
        <ele>45</ele>
        <time>2019-07-17T15:10:08Z</time>
      </trkpt>
      <trkpt lat="47.85256" lon="-3.4651">
        <ele>45</ele>
        <time>2019-07-17T15:10:09Z</time>
      </trkpt>
      <trkpt lat="47.8525" lon="-3.46513">
        <ele>45</ele>
        <time>2019-07-17T15:10:10Z</time>
      </trkpt>
      <trkpt lat="47.85244" lon="-3.46515">
        <ele>45</ele>
        <time>2019-07-17T15:10:11Z</time>
      </trkpt>
      <trkpt lat="47.85238" lon="-3.46518">
        <ele>45</ele>
        <time>2019-07-17T15:10:12Z</time>
      </trkpt>
      <trkpt lat="47.85233" lon="-3.4652">
        <ele>45</ele>
        <time>2019-07-17T15:10:13Z</time>
      </trkpt>
      <trkpt lat="47.85227" lon="-3.46523">
        <ele>45</ele>
        <time>2019-07-17T15:10:14Z</time>
      </trkpt>
      <trkpt lat="47.85221" lon="-3.46525">
        <ele>45</ele>
        <time>2019-07-17T15:10:15Z</time>
      </trkpt>
      <trkpt lat="47.85216" lon="-3.46528">
        <ele>45</ele>
        <time>2019-07-17T15:10:16Z</time>
      </trkpt>
      <trkpt lat="47.8521" lon="-3.46531">
        <ele>45</ele>
        <time>2019-07-17T15:10:17Z</time>
      </trkpt>
      <trkpt lat="47.85204" lon="-3.46534">
        <ele>45</ele>
        <time>2019-07-17T15:10:18Z</time>
      </trkpt>
      <trkpt lat="47.85198" lon="-3.46537">
        <ele>45</ele>
        <time>2019-07-17T15:10:19Z</time>
      </trkpt>
      <trkpt lat="47.85192" lon="-3.4654">
        <ele>45</ele>
        <time>2019-07-17T15:10:20Z</time>
      </trkpt>
      <trkpt lat="47.85186" lon="-3.46542">
        <ele>46</ele>
        <time>2019-07-17T15:10:21Z</time>
      </trkpt>
      <trkpt lat="47.8518" lon="-3.46544">
        <ele>46</ele>
        <time>2019-07-17T15:10:22Z</time>
      </trkpt>
      <trkpt lat="47.85174" lon="-3.46547">
        <ele>46</ele>
        <time>2019-07-17T15:10:23Z</time>
      </trkpt>
      <trkpt lat="47.85168" lon="-3.46548">
        <ele>46</ele>
        <time>2019-07-17T15:10:24Z</time>
      </trkpt>
      <trkpt lat="47.85161" lon="-3.46549">
        <ele>46</ele>
        <time>2019-07-17T15:10:25Z</time>
      </trkpt>
      <trkpt lat="47.85155" lon="-3.46551">
        <ele>46</ele>
        <time>2019-07-17T15:10:26Z</time>
      </trkpt>
      <trkpt lat="47.85149" lon="-3.46552">
        <ele>46</ele>
        <time>2019-07-17T15:10:27Z</time>
      </trkpt>
      <trkpt lat="47.85142" lon="-3.46553">
        <ele>45</ele>
        <time>2019-07-17T15:10:28Z</time>
      </trkpt>
      <trkpt lat="47.85136" lon="-3.46554">
        <ele>45</ele>
        <time>2019-07-17T15:10:29Z</time>
      </trkpt>
      <trkpt lat="47.85129" lon="-3.46554">
        <ele>45</ele>
        <time>2019-07-17T15:10:30Z</time>
      </trkpt>
      <trkpt lat="47.85123" lon="-3.46555">
        <ele>45</ele>
        <time>2019-07-17T15:10:31Z</time>
      </trkpt>
      <trkpt lat="47.85116" lon="-3.46555">
        <ele>45</ele>
        <time>2019-07-17T15:10:32Z</time>
      </trkpt>
      <trkpt lat="47.8511" lon="-3.46555">
        <ele>45</ele>
        <time>2019-07-17T15:10:33Z</time>
      </trkpt>
      <trkpt lat="47.85103" lon="-3.46555">
        <ele>45</ele>
        <time>2019-07-17T15:10:34Z</time>
      </trkpt>
      <trkpt lat="47.85097" lon="-3.46554">
        <ele>45</ele>
        <time>2019-07-17T15:10:35Z</time>
      </trkpt>
      <trkpt lat="47.85091" lon="-3.46553">
        <ele>45</ele>
        <time>2019-07-17T15:10:36Z</time>
      </trkpt>
      <trkpt lat="47.85085" lon="-3.46551">
        <ele>45</ele>
        <time>2019-07-17T15:10:37Z</time>
      </trkpt>
      <trkpt lat="47.85078" lon="-3.4655">
        <ele>44</ele>
        <time>2019-07-17T15:10:38Z</time>
      </trkpt>
      <trkpt lat="47.85072" lon="-3.46547">
        <ele>44</ele>
        <time>2019-07-17T15:10:39Z</time>
      </trkpt>
      <trkpt lat="47.85065" lon="-3.46544">
        <ele>44</ele>
        <time>2019-07-17T15:10:40Z</time>
      </trkpt>
      <trkpt lat="47.85059" lon="-3.4654">
        <ele>44</ele>
        <time>2019-07-17T15:10:41Z</time>
      </trkpt>
      <trkpt lat="47.85053" lon="-3.46537">
        <ele>43</ele>
        <time>2019-07-17T15:10:42Z</time>
      </trkpt>
      <trkpt lat="47.85047" lon="-3.46533">
        <ele>43</ele>
        <time>2019-07-17T15:10:43Z</time>
      </trkpt>
      <trkpt lat="47.8504" lon="-3.46531">
        <ele>43</ele>
        <time>2019-07-17T15:10:44Z</time>
      </trkpt>
      <trkpt lat="47.85034" lon="-3.46531">
        <ele>42</ele>
        <time>2019-07-17T15:10:45Z</time>
      </trkpt>
      <trkpt lat="47.85029" lon="-3.46533">
        <ele>42</ele>
        <time>2019-07-17T15:10:46Z</time>
      </trkpt>
      <trkpt lat="47.85025" lon="-3.46538">
        <ele>42</ele>
        <time>2019-07-17T15:10:47Z</time>
      </trkpt>
      <trkpt lat="47.85022" lon="-3.46544">
        <ele>42</ele>
        <time>2019-07-17T15:10:48Z</time>
      </trkpt>
      <trkpt lat="47.85021" lon="-3.4655">
        <ele>42</ele>
        <time>2019-07-17T15:10:49Z</time>
      </trkpt>
      <trkpt lat="47.8502" lon="-3.46557">
        <ele>42</ele>
        <time>2019-07-17T15:10:50Z</time>
      </trkpt>
      <trkpt lat="47.85021" lon="-3.46563">
        <ele>42</ele>
        <time>2019-07-17T15:10:51Z</time>
      </trkpt>
      <trkpt lat="47.85021" lon="-3.4657">
        <ele>42</ele>
        <time>2019-07-17T15:10:52Z</time>
      </trkpt>
      <trkpt lat="47.85022" lon="-3.46577">
        <ele>42</ele>
        <time>2019-07-17T15:10:53Z</time>
      </trkpt>
      <trkpt lat="47.85023" lon="-3.46584">
        <ele>43</ele>
        <time>2019-07-17T15:10:54Z</time>
      </trkpt>
      <trkpt lat="47.85023" lon="-3.46591">
        <ele>43</ele>
        <time>2019-07-17T15:10:55Z</time>
      </trkpt>
      <trkpt lat="47.85024" lon="-3.46598">
        <ele>43</ele>
        <time>2019-07-17T15:10:56Z</time>
      </trkpt>
      <trkpt lat="47.85024" lon="-3.46605">
        <ele>43</ele>
        <time>2019-07-17T15:10:57Z</time>
      </trkpt>
      <trkpt lat="47.85024" lon="-3.46612">
        <ele>43</ele>
        <time>2019-07-17T15:10:58Z</time>
      </trkpt>
      <trkpt lat="47.85025" lon="-3.46619">
        <ele>43</ele>
        <time>2019-07-17T15:10:59Z</time>
      </trkpt>
      <trkpt lat="47.85025" lon="-3.46626">
        <ele>43</ele>
        <time>2019-07-17T15:11:00Z</time>
      </trkpt>
      <trkpt lat="47.85025" lon="-3.46633">
        <ele>43</ele>
        <time>2019-07-17T15:11:01Z</time>
      </trkpt>
      <trkpt lat="47.85025" lon="-3.46641">
        <ele>43</ele>
        <time>2019-07-17T15:11:02Z</time>
      </trkpt>
      <trkpt lat="47.85023" lon="-3.46647">
        <ele>43</ele>
        <time>2019-07-17T15:11:03Z</time>
      </trkpt>
      <trkpt lat="47.85021" lon="-3.46651">
        <ele>43</ele>
        <time>2019-07-17T15:11:04Z</time>
      </trkpt>
      <trkpt lat="47.85017" lon="-3.46652">
        <ele>43</ele>
        <time>2019-07-17T15:11:05Z</time>
      </trkpt>
      <trkpt lat="47.85012" lon="-3.4665">
        <ele>43</ele>
        <time>2019-07-17T15:11:06Z</time>
      </trkpt>
      <trkpt lat="47.85007" lon="-3.46647">
        <ele>42</ele>
        <time>2019-07-17T15:11:07Z</time>
      </trkpt>
      <trkpt lat="47.85002" lon="-3.46643">
        <ele>42</ele>
        <time>2019-07-17T15:11:08Z</time>
      </trkpt>
      <trkpt lat="47.84997" lon="-3.46638">
        <ele>42</ele>
        <time>2019-07-17T15:11:09Z</time>
      </trkpt>
      <trkpt lat="47.84991" lon="-3.46632">
        <ele>41</ele>
        <time>2019-07-17T15:11:10Z</time>
      </trkpt>
      <trkpt lat="47.84986" lon="-3.46626">
        <ele>41</ele>
        <time>2019-07-17T15:11:11Z</time>
      </trkpt>
      <trkpt lat="47.8498" lon="-3.46619">
        <ele>41</ele>
        <time>2019-07-17T15:11:12Z</time>
      </trkpt>
      <trkpt lat="47.84975" lon="-3.46613">
        <ele>40</ele>
        <time>2019-07-17T15:11:13Z</time>
      </trkpt>
      <trkpt lat="47.84968" lon="-3.46606">
        <ele>40</ele>
        <time>2019-07-17T15:11:14Z</time>
      </trkpt>
      <trkpt lat="47.84962" lon="-3.46599">
        <ele>40</ele>
        <time>2019-07-17T15:11:15Z</time>
      </trkpt>
      <trkpt lat="47.84955" lon="-3.46593">
        <ele>40</ele>
        <time>2019-07-17T15:11:16Z</time>
      </trkpt>
      <trkpt lat="47.84948" lon="-3.46587">
        <ele>39</ele>
        <time>2019-07-17T15:11:17Z</time>
      </trkpt>
      <trkpt lat="47.8494" lon="-3.46582">
        <ele>39</ele>
        <time>2019-07-17T15:11:18Z</time>
      </trkpt>
      <trkpt lat="47.84932" lon="-3.46577">
        <ele>38</ele>
        <time>2019-07-17T15:11:19Z</time>
      </trkpt>
      <trkpt lat="47.84923" lon="-3.46574">
        <ele>38</ele>
        <time>2019-07-17T15:11:20Z</time>
      </trkpt>
      <trkpt lat="47.84913" lon="-3.46573">
        <ele>37</ele>
        <time>2019-07-17T15:11:21Z</time>
      </trkpt>
      <trkpt lat="47.84904" lon="-3.46573">
        <ele>37</ele>
        <time>2019-07-17T15:11:22Z</time>
      </trkpt>
      <trkpt lat="47.84894" lon="-3.46574">
        <ele>36</ele>
        <time>2019-07-17T15:11:23Z</time>
      </trkpt>
      <trkpt lat="47.84883" lon="-3.46577">
        <ele>35</ele>
        <time>2019-07-17T15:11:24Z</time>
      </trkpt>
      <trkpt lat="47.84873" lon="-3.46579">
        <ele>34</ele>
        <time>2019-07-17T15:11:25Z</time>
      </trkpt>
      <trkpt lat="47.84863" lon="-3.46581">
        <ele>33</ele>
        <time>2019-07-17T15:11:26Z</time>
      </trkpt>
      <trkpt lat="47.84852" lon="-3.46584">
        <ele>32</ele>
        <time>2019-07-17T15:11:27Z</time>
      </trkpt>
      <trkpt lat="47.84841" lon="-3.46587">
        <ele>31</ele>
        <time>2019-07-17T15:11:28Z</time>
      </trkpt>
      <trkpt lat="47.84831" lon="-3.4659">
        <ele>30</ele>
        <time>2019-07-17T15:11:29Z</time>
      </trkpt>
      <trkpt lat="47.8482" lon="-3.46593">
        <ele>29</ele>
        <time>2019-07-17T15:11:30Z</time>
      </trkpt>
      <trkpt lat="47.8481" lon="-3.46598">
        <ele>28</ele>
        <time>2019-07-17T15:11:31Z</time>
      </trkpt>
      <trkpt lat="47.848" lon="-3.46604">
        <ele>27</ele>
        <time>2019-07-17T15:11:32Z</time>
      </trkpt>
      <trkpt lat="47.84791" lon="-3.46611">
        <ele>26</ele>
        <time>2019-07-17T15:11:33Z</time>
      </trkpt>
      <trkpt lat="47.84782" lon="-3.46619">
        <ele>25</ele>
        <time>2019-07-17T15:11:34Z</time>
      </trkpt>
      <trkpt lat="47.84774" lon="-3.46628">
        <ele>25</ele>
        <time>2019-07-17T15:11:35Z</time>
      </trkpt>
      <trkpt lat="47.84767" lon="-3.46637">
        <ele>24</ele>
        <time>2019-07-17T15:11:36Z</time>
      </trkpt>
      <trkpt lat="47.8476" lon="-3.46647">
        <ele>24</ele>
        <time>2019-07-17T15:11:37Z</time>
      </trkpt>
      <trkpt lat="47.84753" lon="-3.46656">
        <ele>24</ele>
        <time>2019-07-17T15:11:38Z</time>
      </trkpt>
      <trkpt lat="47.84747" lon="-3.46664">
        <ele>24</ele>
        <time>2019-07-17T15:11:39Z</time>
      </trkpt>
      <trkpt lat="47.84741" lon="-3.46673">
        <ele>24</ele>
        <time>2019-07-17T15:11:40Z</time>
      </trkpt>
      <trkpt lat="47.84734" lon="-3.46681">
        <ele>24</ele>
        <time>2019-07-17T15:11:41Z</time>
      </trkpt>
      <trkpt lat="47.84729" lon="-3.46688">
        <ele>24</ele>
        <time>2019-07-17T15:11:42Z</time>
      </trkpt>
      <trkpt lat="47.84723" lon="-3.46695">
        <ele>24</ele>
        <time>2019-07-17T15:11:43Z</time>
      </trkpt>
      <trkpt lat="47.84718" lon="-3.46701">
        <ele>24</ele>
        <time>2019-07-17T15:11:44Z</time>
      </trkpt>
      <trkpt lat="47.84714" lon="-3.46706">
        <ele>24</ele>
        <time>2019-07-17T15:11:45Z</time>
      </trkpt>
      <trkpt lat="47.84709" lon="-3.46711">
        <ele>24</ele>
        <time>2019-07-17T15:11:46Z</time>
      </trkpt>
      <trkpt lat="47.84705" lon="-3.46716">
        <ele>24</ele>
        <time>2019-07-17T15:11:47Z</time>
      </trkpt>
      <trkpt lat="47.84701" lon="-3.46722">
        <ele>24</ele>
        <time>2019-07-17T15:11:48Z</time>
      </trkpt>
      <trkpt lat="47.84696" lon="-3.46727">
        <ele>24</ele>
        <time>2019-07-17T15:11:49Z</time>
      </trkpt>
      <trkpt lat="47.84691" lon="-3.46732">
        <ele>24</ele>
        <time>2019-07-17T15:11:50Z</time>
      </trkpt>
      <trkpt lat="47.84687" lon="-3.46737">
        <ele>24</ele>
        <time>2019-07-17T15:11:51Z</time>
      </trkpt>
      <trkpt lat="47.84683" lon="-3.46743">
        <ele>24</ele>
        <time>2019-07-17T15:11:52Z</time>
      </trkpt>
      <trkpt lat="47.84678" lon="-3.46748">
        <ele>24</ele>
        <time>2019-07-17T15:11:53Z</time>
      </trkpt>
      <trkpt lat="47.84674" lon="-3.46754">
        <ele>24</ele>
        <time>2019-07-17T15:11:54Z</time>
      </trkpt>
      <trkpt lat="47.8467" lon="-3.4676">
        <ele>25</ele>
        <time>2019-07-17T15:11:55Z</time>
      </trkpt>
      <trkpt lat="47.84666" lon="-3.46765">
        <ele>25</ele>
        <time>2019-07-17T15:11:56Z</time>
      </trkpt>
      <trkpt lat="47.84662" lon="-3.4677">
        <ele>25</ele>
        <time>2019-07-17T15:11:57Z</time>
      </trkpt>
      <trkpt lat="47.84658" lon="-3.46776">
        <ele>25</ele>
        <time>2019-07-17T15:11:58Z</time>
      </trkpt>
      <trkpt lat="47.84654" lon="-3.4678">
        <ele>26</ele>
        <time>2019-07-17T15:11:59Z</time>
      </trkpt>
      <trkpt lat="47.8465" lon="-3.46786">
        <ele>26</ele>
        <time>2019-07-17T15:12:00Z</time>
      </trkpt>
      <trkpt lat="47.84646" lon="-3.46791">
        <ele>26</ele>
        <time>2019-07-17T15:12:01Z</time>
      </trkpt>
      <trkpt lat="47.84642" lon="-3.46796">
        <ele>26</ele>
        <time>2019-07-17T15:12:02Z</time>
      </trkpt>
      <trkpt lat="47.84639" lon="-3.46802">
        <ele>26</ele>
        <time>2019-07-17T15:12:03Z</time>
      </trkpt>
      <trkpt lat="47.84635" lon="-3.46807">
        <ele>26</ele>
        <time>2019-07-17T15:12:04Z</time>
      </trkpt>
      <trkpt lat="47.8463" lon="-3.46812">
        <ele>27</ele>
        <time>2019-07-17T15:12:05Z</time>
      </trkpt>
      <trkpt lat="47.84626" lon="-3.46818">
        <ele>27</ele>
        <time>2019-07-17T15:12:06Z</time>
      </trkpt>
      <trkpt lat="47.84622" lon="-3.46824">
        <ele>27</ele>
        <time>2019-07-17T15:12:07Z</time>
      </trkpt>
      <trkpt lat="47.84617" lon="-3.46831">
        <ele>27</ele>
        <time>2019-07-17T15:12:08Z</time>
      </trkpt>
      <trkpt lat="47.84613" lon="-3.46837">
        <ele>27</ele>
        <time>2019-07-17T15:12:09Z</time>
      </trkpt>
      <trkpt lat="47.84608" lon="-3.46845">
        <ele>27</ele>
        <time>2019-07-17T15:12:10Z</time>
      </trkpt>
      <trkpt lat="47.84603" lon="-3.46852">
        <ele>27</ele>
        <time>2019-07-17T15:12:11Z</time>
      </trkpt>
      <trkpt lat="47.84599" lon="-3.4686">
        <ele>27</ele>
        <time>2019-07-17T15:12:12Z</time>
      </trkpt>
      <trkpt lat="47.84595" lon="-3.46868">
        <ele>27</ele>
        <time>2019-07-17T15:12:13Z</time>
      </trkpt>
      <trkpt lat="47.84591" lon="-3.46877">
        <ele>27</ele>
        <time>2019-07-17T15:12:14Z</time>
      </trkpt>
      <trkpt lat="47.84587" lon="-3.46886">
        <ele>27</ele>
        <time>2019-07-17T15:12:15Z</time>
      </trkpt>
      <trkpt lat="47.84584" lon="-3.46895">
        <ele>27</ele>
        <time>2019-07-17T15:12:16Z</time>
      </trkpt>
      <trkpt lat="47.84581" lon="-3.46905">
        <ele>27</ele>
        <time>2019-07-17T15:12:17Z</time>
      </trkpt>
      <trkpt lat="47.84578" lon="-3.46914">
        <ele>27</ele>
        <time>2019-07-17T15:12:18Z</time>
      </trkpt>
      <trkpt lat="47.84576" lon="-3.46923">
        <ele>28</ele>
        <time>2019-07-17T15:12:19Z</time>
      </trkpt>
      <trkpt lat="47.84573" lon="-3.46932">
        <ele>28</ele>
        <time>2019-07-17T15:12:20Z</time>
      </trkpt>
      <trkpt lat="47.8457" lon="-3.46941">
        <ele>28</ele>
        <time>2019-07-17T15:12:21Z</time>
      </trkpt>
      <trkpt lat="47.84567" lon="-3.4695">
        <ele>28</ele>
        <time>2019-07-17T15:12:22Z</time>
      </trkpt>
      <trkpt lat="47.84564" lon="-3.46958">
        <ele>28</ele>
        <time>2019-07-17T15:12:23Z</time>
      </trkpt>
      <trkpt lat="47.8456" lon="-3.46966">
        <ele>28</ele>
        <time>2019-07-17T15:12:24Z</time>
      </trkpt>
      <trkpt lat="47.84556" lon="-3.46974">
        <ele>28</ele>
        <time>2019-07-17T15:12:25Z</time>
      </trkpt>
      <trkpt lat="47.84552" lon="-3.46981">
        <ele>29</ele>
        <time>2019-07-17T15:12:26Z</time>
      </trkpt>
      <trkpt lat="47.84547" lon="-3.46988">
        <ele>29</ele>
        <time>2019-07-17T15:12:27Z</time>
      </trkpt>
      <trkpt lat="47.84542" lon="-3.46995">
        <ele>29</ele>
        <time>2019-07-17T15:12:28Z</time>
      </trkpt>
      <trkpt lat="47.84536" lon="-3.47001">
        <ele>29</ele>
        <time>2019-07-17T15:12:29Z</time>
      </trkpt>
      <trkpt lat="47.8453" lon="-3.47007">
        <ele>29</ele>
        <time>2019-07-17T15:12:30Z</time>
      </trkpt>
      <trkpt lat="47.84524" lon="-3.47012">
        <ele>29</ele>
        <time>2019-07-17T15:12:31Z</time>
      </trkpt>
      <trkpt lat="47.84518" lon="-3.47017">
        <ele>29</ele>
        <time>2019-07-17T15:12:32Z</time>
      </trkpt>
      <trkpt lat="47.84511" lon="-3.4702">
        <ele>29</ele>
        <time>2019-07-17T15:12:33Z</time>
      </trkpt>
      <trkpt lat="47.84505" lon="-3.47023">
        <ele>29</ele>
        <time>2019-07-17T15:12:34Z</time>
      </trkpt>
      <trkpt lat="47.84499" lon="-3.47025">
        <ele>29</ele>
        <time>2019-07-17T15:12:35Z</time>
      </trkpt>
      <trkpt lat="47.84492" lon="-3.47026">
        <ele>29</ele>
        <time>2019-07-17T15:12:36Z</time>
      </trkpt>
      <trkpt lat="47.84486" lon="-3.47026">
        <ele>29</ele>
        <time>2019-07-17T15:12:37Z</time>
      </trkpt>
      <trkpt lat="47.84478" lon="-3.47027">
        <ele>29</ele>
        <time>2019-07-17T15:12:38Z</time>
      </trkpt>
      <trkpt lat="47.84471" lon="-3.47027">
        <ele>29</ele>
        <time>2019-07-17T15:12:39Z</time>
      </trkpt>
      <trkpt lat="47.84463" lon="-3.47027">
        <ele>29</ele>
        <time>2019-07-17T15:12:40Z</time>
      </trkpt>
      <trkpt lat="47.84455" lon="-3.47027">
        <ele>29</ele>
        <time>2019-07-17T15:12:41Z</time>
      </trkpt>
      <trkpt lat="47.84446" lon="-3.47027">
        <ele>28</ele>
        <time>2019-07-17T15:12:42Z</time>
      </trkpt>
      <trkpt lat="47.84439" lon="-3.4703">
        <ele>28</ele>
        <time>2019-07-17T15:12:43Z</time>
      </trkpt>
      <trkpt lat="47.84432" lon="-3.47035">
        <ele>27</ele>
        <time>2019-07-17T15:12:44Z</time>
      </trkpt>
      <trkpt lat="47.84425" lon="-3.47041">
        <ele>27</ele>
        <time>2019-07-17T15:12:45Z</time>
      </trkpt>
      <trkpt lat="47.84418" lon="-3.47049">
        <ele>27</ele>
        <time>2019-07-17T15:12:46Z</time>
      </trkpt>
      <trkpt lat="47.84412" lon="-3.47056">
        <ele>27</ele>
        <time>2019-07-17T15:12:47Z</time>
      </trkpt>
      <trkpt lat="47.84406" lon="-3.47063">
        <ele>27</ele>
        <time>2019-07-17T15:12:48Z</time>
      </trkpt>
      <trkpt lat="47.844" lon="-3.47071">
        <ele>26</ele>
        <time>2019-07-17T15:12:49Z</time>
      </trkpt>
      <trkpt lat="47.84394" lon="-3.47079">
        <ele>26</ele>
        <time>2019-07-17T15:12:50Z</time>
      </trkpt>
      <trkpt lat="47.84388" lon="-3.47085">
        <ele>26</ele>
        <time>2019-07-17T15:12:51Z</time>
      </trkpt>
      <trkpt lat="47.84383" lon="-3.47093">
        <ele>26</ele>
        <time>2019-07-17T15:12:52Z</time>
      </trkpt>
      <trkpt lat="47.84378" lon="-3.47101">
        <ele>26</ele>
        <time>2019-07-17T15:12:53Z</time>
      </trkpt>
      <trkpt lat="47.84375" lon="-3.47109">
        <ele>26</ele>
        <time>2019-07-17T15:12:54Z</time>
      </trkpt>
      <trkpt lat="47.84373" lon="-3.47118">
        <ele>26</ele>
        <time>2019-07-17T15:12:55Z</time>
      </trkpt>
      <trkpt lat="47.84373" lon="-3.47127">
        <ele>26</ele>
        <time>2019-07-17T15:12:56Z</time>
      </trkpt>
      <trkpt lat="47.84373" lon="-3.47135">
        <ele>26</ele>
        <time>2019-07-17T15:12:57Z</time>
      </trkpt>
      <trkpt lat="47.84373" lon="-3.47144">
        <ele>27</ele>
        <time>2019-07-17T15:12:58Z</time>
      </trkpt>
      <trkpt lat="47.84374" lon="-3.47151">
        <ele>27</ele>
        <time>2019-07-17T15:12:59Z</time>
      </trkpt>
      <trkpt lat="47.84375" lon="-3.4716">
        <ele>27</ele>
        <time>2019-07-17T15:13:00Z</time>
      </trkpt>
      <trkpt lat="47.84375" lon="-3.47168">
        <ele>27</ele>
        <time>2019-07-17T15:13:01Z</time>
      </trkpt>
      <trkpt lat="47.84376" lon="-3.47176">
        <ele>27</ele>
        <time>2019-07-17T15:13:02Z</time>
      </trkpt>
      <trkpt lat="47.84376" lon="-3.47184">
        <ele>27</ele>
        <time>2019-07-17T15:13:03Z</time>
      </trkpt>
      <trkpt lat="47.84377" lon="-3.47193">
        <ele>26</ele>
        <time>2019-07-17T15:13:04Z</time>
      </trkpt>
      <trkpt lat="47.84378" lon="-3.47201">
        <ele>26</ele>
        <time>2019-07-17T15:13:05Z</time>
      </trkpt>
      <trkpt lat="47.84379" lon="-3.47209">
        <ele>27</ele>
        <time>2019-07-17T15:13:06Z</time>
      </trkpt>
      <trkpt lat="47.8438" lon="-3.47218">
        <ele>27</ele>
        <time>2019-07-17T15:13:07Z</time>
      </trkpt>
      <trkpt lat="47.84381" lon="-3.47226">
        <ele>27</ele>
        <time>2019-07-17T15:13:08Z</time>
      </trkpt>
      <trkpt lat="47.84382" lon="-3.47233">
        <ele>27</ele>
        <time>2019-07-17T15:13:09Z</time>
      </trkpt>
      <trkpt lat="47.84382" lon="-3.47241">
        <ele>27</ele>
        <time>2019-07-17T15:13:10Z</time>
      </trkpt>
      <trkpt lat="47.84383" lon="-3.47249">
        <ele>27</ele>
        <time>2019-07-17T15:13:11Z</time>
      </trkpt>
      <trkpt lat="47.84384" lon="-3.47257">
        <ele>27</ele>
        <time>2019-07-17T15:13:12Z</time>
      </trkpt>
      <trkpt lat="47.84384" lon="-3.47266">
        <ele>27</ele>
        <time>2019-07-17T15:13:13Z</time>
      </trkpt>
      <trkpt lat="47.84384" lon="-3.47274">
        <ele>28</ele>
        <time>2019-07-17T15:13:14Z</time>
      </trkpt>
      <trkpt lat="47.84385" lon="-3.47282">
        <ele>28</ele>
        <time>2019-07-17T15:13:15Z</time>
      </trkpt>
      <trkpt lat="47.84385" lon="-3.4729">
        <ele>28</ele>
        <time>2019-07-17T15:13:16Z</time>
      </trkpt>
      <trkpt lat="47.84386" lon="-3.47298">
        <ele>28</ele>
        <time>2019-07-17T15:13:17Z</time>
      </trkpt>
      <trkpt lat="47.84387" lon="-3.47305">
        <ele>29</ele>
        <time>2019-07-17T15:13:18Z</time>
      </trkpt>
      <trkpt lat="47.84388" lon="-3.47313">
        <ele>29</ele>
        <time>2019-07-17T15:13:19Z</time>
      </trkpt>
      <trkpt lat="47.84389" lon="-3.47321">
        <ele>29</ele>
        <time>2019-07-17T15:13:20Z</time>
      </trkpt>
      <trkpt lat="47.8439" lon="-3.47328">
        <ele>29</ele>
        <time>2019-07-17T15:13:21Z</time>
      </trkpt>
      <trkpt lat="47.84391" lon="-3.47337">
        <ele>29</ele>
        <time>2019-07-17T15:13:22Z</time>
      </trkpt>
      <trkpt lat="47.84392" lon="-3.47345">
        <ele>30</ele>
        <time>2019-07-17T15:13:23Z</time>
      </trkpt>
      <trkpt lat="47.84393" lon="-3.47353">
        <ele>30</ele>
        <time>2019-07-17T15:13:24Z</time>
      </trkpt>
      <trkpt lat="47.84394" lon="-3.47362">
        <ele>30</ele>
        <time>2019-07-17T15:13:25Z</time>
      </trkpt>
      <trkpt lat="47.84396" lon="-3.4737">
        <ele>30</ele>
        <time>2019-07-17T15:13:26Z</time>
      </trkpt>
      <trkpt lat="47.84397" lon="-3.47379">
        <ele>30</ele>
        <time>2019-07-17T15:13:27Z</time>
      </trkpt>
      <trkpt lat="47.84398" lon="-3.47387">
        <ele>30</ele>
        <time>2019-07-17T15:13:28Z</time>
      </trkpt>
      <trkpt lat="47.84399" lon="-3.47394">
        <ele>30</ele>
        <time>2019-07-17T15:13:29Z</time>
      </trkpt>
      <trkpt lat="47.844" lon="-3.47401">
        <ele>31</ele>
        <time>2019-07-17T15:13:30Z</time>
      </trkpt>
      <trkpt lat="47.84401" lon="-3.47409">
        <ele>31</ele>
        <time>2019-07-17T15:13:31Z</time>
      </trkpt>
      <trkpt lat="47.84402" lon="-3.47417">
        <ele>31</ele>
        <time>2019-07-17T15:13:32Z</time>
      </trkpt>
      <trkpt lat="47.84403" lon="-3.47425">
        <ele>31</ele>
        <time>2019-07-17T15:13:33Z</time>
      </trkpt>
      <trkpt lat="47.84403" lon="-3.47433">
        <ele>31</ele>
        <time>2019-07-17T15:13:34Z</time>
      </trkpt>
      <trkpt lat="47.84403" lon="-3.47441">
        <ele>31</ele>
        <time>2019-07-17T15:13:35Z</time>
      </trkpt>
      <trkpt lat="47.84403" lon="-3.47449">
        <ele>31</ele>
        <time>2019-07-17T15:13:36Z</time>
      </trkpt>
      <trkpt lat="47.84404" lon="-3.47458">
        <ele>31</ele>
        <time>2019-07-17T15:13:37Z</time>
      </trkpt>
      <trkpt lat="47.84403" lon="-3.47466">
        <ele>31</ele>
        <time>2019-07-17T15:13:38Z</time>
      </trkpt>
      <trkpt lat="47.84402" lon="-3.47473">
        <ele>32</ele>
        <time>2019-07-17T15:13:39Z</time>
      </trkpt>
      <trkpt lat="47.844" lon="-3.4748">
        <ele>32</ele>
        <time>2019-07-17T15:13:40Z</time>
      </trkpt>
      <trkpt lat="47.84398" lon="-3.47487">
        <ele>32</ele>
        <time>2019-07-17T15:13:41Z</time>
      </trkpt>
      <trkpt lat="47.84394" lon="-3.47495">
        <ele>32</ele>
        <time>2019-07-17T15:13:42Z</time>
      </trkpt>
      <trkpt lat="47.84391" lon="-3.47502">
        <ele>32</ele>
        <time>2019-07-17T15:13:43Z</time>
      </trkpt>
      <trkpt lat="47.84387" lon="-3.47509">
        <ele>32</ele>
        <time>2019-07-17T15:13:44Z</time>
      </trkpt>
      <trkpt lat="47.84383" lon="-3.47516">
        <ele>32</ele>
        <time>2019-07-17T15:13:45Z</time>
      </trkpt>
      <trkpt lat="47.84379" lon="-3.47522">
        <ele>32</ele>
        <time>2019-07-17T15:13:46Z</time>
      </trkpt>
      <trkpt lat="47.84375" lon="-3.47528">
        <ele>32</ele>
        <time>2019-07-17T15:13:47Z</time>
      </trkpt>
      <trkpt lat="47.84371" lon="-3.47535">
        <ele>33</ele>
        <time>2019-07-17T15:13:48Z</time>
      </trkpt>
      <trkpt lat="47.84367" lon="-3.47541">
        <ele>33</ele>
        <time>2019-07-17T15:13:49Z</time>
      </trkpt>
      <trkpt lat="47.84363" lon="-3.47548">
        <ele>33</ele>
        <time>2019-07-17T15:13:50Z</time>
      </trkpt>
      <trkpt lat="47.8436" lon="-3.47554">
        <ele>33</ele>
        <time>2019-07-17T15:13:51Z</time>
      </trkpt>
      <trkpt lat="47.84356" lon="-3.4756">
        <ele>34</ele>
        <time>2019-07-17T15:13:52Z</time>
      </trkpt>
      <trkpt lat="47.84353" lon="-3.47567">
        <ele>34</ele>
        <time>2019-07-17T15:13:53Z</time>
      </trkpt>
      <trkpt lat="47.84349" lon="-3.47574">
        <ele>34</ele>
        <time>2019-07-17T15:13:54Z</time>
      </trkpt>
      <trkpt lat="47.84346" lon="-3.47581">
        <ele>34</ele>
        <time>2019-07-17T15:13:55Z</time>
      </trkpt>
      <trkpt lat="47.84343" lon="-3.47589">
        <ele>34</ele>
        <time>2019-07-17T15:13:56Z</time>
      </trkpt>
      <trkpt lat="47.8434" lon="-3.47596">
        <ele>34</ele>
        <time>2019-07-17T15:13:57Z</time>
      </trkpt>
      <trkpt lat="47.84337" lon="-3.47604">
        <ele>35</ele>
        <time>2019-07-17T15:13:58Z</time>
      </trkpt>
      <trkpt lat="47.84335" lon="-3.47612">
        <ele>35</ele>
        <time>2019-07-17T15:13:59Z</time>
      </trkpt>
      <trkpt lat="47.84333" lon="-3.4762">
        <ele>35</ele>
        <time>2019-07-17T15:14:00Z</time>
      </trkpt>
      <trkpt lat="47.84331" lon="-3.47627">
        <ele>35</ele>
        <time>2019-07-17T15:14:01Z</time>
      </trkpt>
      <trkpt lat="47.84329" lon="-3.47635">
        <ele>35</ele>
        <time>2019-07-17T15:14:02Z</time>
      </trkpt>
      <trkpt lat="47.84327" lon="-3.47642">
        <ele>35</ele>
        <time>2019-07-17T15:14:03Z</time>
      </trkpt>
      <trkpt lat="47.84324" lon="-3.4765">
        <ele>35</ele>
        <time>2019-07-17T15:14:04Z</time>
      </trkpt>
      <trkpt lat="47.84323" lon="-3.47657">
        <ele>36</ele>
        <time>2019-07-17T15:14:05Z</time>
      </trkpt>
      <trkpt lat="47.84321" lon="-3.47664">
        <ele>36</ele>
        <time>2019-07-17T15:14:06Z</time>
      </trkpt>
      <trkpt lat="47.84318" lon="-3.4767">
        <ele>36</ele>
        <time>2019-07-17T15:14:07Z</time>
      </trkpt>
      <trkpt lat="47.84315" lon="-3.47677">
        <ele>36</ele>
        <time>2019-07-17T15:14:08Z</time>
      </trkpt>
      <trkpt lat="47.84312" lon="-3.47684">
        <ele>36</ele>
        <time>2019-07-17T15:14:09Z</time>
      </trkpt>
      <trkpt lat="47.84309" lon="-3.4769">
        <ele>36</ele>
        <time>2019-07-17T15:14:10Z</time>
      </trkpt>
      <trkpt lat="47.84305" lon="-3.47697">
        <ele>36</ele>
        <time>2019-07-17T15:14:11Z</time>
      </trkpt>
      <trkpt lat="47.84301" lon="-3.47702">
        <ele>37</ele>
        <time>2019-07-17T15:14:12Z</time>
      </trkpt>
      <trkpt lat="47.84297" lon="-3.47708">
        <ele>37</ele>
        <time>2019-07-17T15:14:13Z</time>
      </trkpt>
      <trkpt lat="47.84292" lon="-3.47714">
        <ele>37</ele>
        <time>2019-07-17T15:14:14Z</time>
      </trkpt>
      <trkpt lat="47.84288" lon="-3.4772">
        <ele>37</ele>
        <time>2019-07-17T15:14:15Z</time>
      </trkpt>
      <trkpt lat="47.84284" lon="-3.47725">
        <ele>37</ele>
        <time>2019-07-17T15:14:16Z</time>
      </trkpt>
      <trkpt lat="47.84279" lon="-3.47731">
        <ele>37</ele>
        <time>2019-07-17T15:14:17Z</time>
      </trkpt>
      <trkpt lat="47.84274" lon="-3.47737">
        <ele>38</ele>
        <time>2019-07-17T15:14:18Z</time>
      </trkpt>
      <trkpt lat="47.84269" lon="-3.47742">
        <ele>37</ele>
        <time>2019-07-17T15:14:19Z</time>
      </trkpt>
      <trkpt lat="47.84265" lon="-3.47749">
        <ele>37</ele>
        <time>2019-07-17T15:14:20Z</time>
      </trkpt>
      <trkpt lat="47.84261" lon="-3.47756">
        <ele>37</ele>
        <time>2019-07-17T15:14:21Z</time>
      </trkpt>
      <trkpt lat="47.84256" lon="-3.47762">
        <ele>37</ele>
        <time>2019-07-17T15:14:22Z</time>
      </trkpt>
      <trkpt lat="47.84252" lon="-3.47769">
        <ele>37</ele>
        <time>2019-07-17T15:14:23Z</time>
      </trkpt>
      <trkpt lat="47.84248" lon="-3.47777">
        <ele>37</ele>
        <time>2019-07-17T15:14:24Z</time>
      </trkpt>
      <trkpt lat="47.84244" lon="-3.47784">
        <ele>37</ele>
        <time>2019-07-17T15:14:25Z</time>
      </trkpt>
      <trkpt lat="47.8424" lon="-3.47791">
        <ele>37</ele>
        <time>2019-07-17T15:14:26Z</time>
      </trkpt>
      <trkpt lat="47.84236" lon="-3.47799">
        <ele>37</ele>
        <time>2019-07-17T15:14:27Z</time>
      </trkpt>
      <trkpt lat="47.84233" lon="-3.47807">
        <ele>37</ele>
        <time>2019-07-17T15:14:28Z</time>
      </trkpt>
      <trkpt lat="47.8423" lon="-3.47815">
        <ele>37</ele>
        <time>2019-07-17T15:14:29Z</time>
      </trkpt>
      <trkpt lat="47.84226" lon="-3.47824">
        <ele>37</ele>
        <time>2019-07-17T15:14:30Z</time>
      </trkpt>
      <trkpt lat="47.84223" lon="-3.47833">
        <ele>37</ele>
        <time>2019-07-17T15:14:31Z</time>
      </trkpt>
      <trkpt lat="47.8422" lon="-3.47841">
        <ele>37</ele>
        <time>2019-07-17T15:14:32Z</time>
      </trkpt>
      <trkpt lat="47.84217" lon="-3.47851">
        <ele>37</ele>
        <time>2019-07-17T15:14:33Z</time>
      </trkpt>
      <trkpt lat="47.84214" lon="-3.4786">
        <ele>37</ele>
        <time>2019-07-17T15:14:34Z</time>
      </trkpt>
      <trkpt lat="47.84211" lon="-3.47869">
        <ele>37</ele>
        <time>2019-07-17T15:14:35Z</time>
      </trkpt>
      <trkpt lat="47.84208" lon="-3.47878">
        <ele>37</ele>
        <time>2019-07-17T15:14:36Z</time>
      </trkpt>
      <trkpt lat="47.84205" lon="-3.47887">
        <ele>37</ele>
        <time>2019-07-17T15:14:37Z</time>
      </trkpt>
      <trkpt lat="47.84202" lon="-3.47896">
        <ele>37</ele>
        <time>2019-07-17T15:14:38Z</time>
      </trkpt>
      <trkpt lat="47.84199" lon="-3.47904">
        <ele>37</ele>
        <time>2019-07-17T15:14:39Z</time>
      </trkpt>
      <trkpt lat="47.84196" lon="-3.47913">
        <ele>37</ele>
        <time>2019-07-17T15:14:40Z</time>
      </trkpt>
      <trkpt lat="47.84193" lon="-3.47922">
        <ele>37</ele>
        <time>2019-07-17T15:14:41Z</time>
      </trkpt>
      <trkpt lat="47.84191" lon="-3.47931">
        <ele>37</ele>
        <time>2019-07-17T15:14:42Z</time>
      </trkpt>
      <trkpt lat="47.84188" lon="-3.47939">
        <ele>37</ele>
        <time>2019-07-17T15:14:43Z</time>
      </trkpt>
      <trkpt lat="47.84185" lon="-3.47948">
        <ele>37</ele>
        <time>2019-07-17T15:14:44Z</time>
      </trkpt>
      <trkpt lat="47.84182" lon="-3.47957">
        <ele>37</ele>
        <time>2019-07-17T15:14:45Z</time>
      </trkpt>
      <trkpt lat="47.84179" lon="-3.47965">
        <ele>37</ele>
        <time>2019-07-17T15:14:46Z</time>
      </trkpt>
      <trkpt lat="47.84176" lon="-3.47975">
        <ele>37</ele>
        <time>2019-07-17T15:14:47Z</time>
      </trkpt>
      <trkpt lat="47.84173" lon="-3.47984">
        <ele>37</ele>
        <time>2019-07-17T15:14:48Z</time>
      </trkpt>
      <trkpt lat="47.8417" lon="-3.47992">
        <ele>37</ele>
        <time>2019-07-17T15:14:49Z</time>
      </trkpt>
      <trkpt lat="47.84167" lon="-3.48001">
        <ele>37</ele>
        <time>2019-07-17T15:14:50Z</time>
      </trkpt>
      <trkpt lat="47.84165" lon="-3.48009">
        <ele>37</ele>
        <time>2019-07-17T15:14:51Z</time>
      </trkpt>
      <trkpt lat="47.84163" lon="-3.48017">
        <ele>37</ele>
        <time>2019-07-17T15:14:52Z</time>
      </trkpt>
      <trkpt lat="47.8416" lon="-3.48025">
        <ele>37</ele>
        <time>2019-07-17T15:14:53Z</time>
      </trkpt>
      <trkpt lat="47.84157" lon="-3.48033">
        <ele>37</ele>
        <time>2019-07-17T15:14:54Z</time>
      </trkpt>
      <trkpt lat="47.84155" lon="-3.48041">
        <ele>37</ele>
        <time>2019-07-17T15:14:55Z</time>
      </trkpt>
      <trkpt lat="47.84152" lon="-3.4805">
        <ele>37</ele>
        <time>2019-07-17T15:14:56Z</time>
      </trkpt>
      <trkpt lat="47.8415" lon="-3.48058">
        <ele>37</ele>
        <time>2019-07-17T15:14:57Z</time>
      </trkpt>
      <trkpt lat="47.84147" lon="-3.48066">
        <ele>37</ele>
        <time>2019-07-17T15:14:58Z</time>
      </trkpt>
      <trkpt lat="47.84144" lon="-3.48075">
        <ele>37</ele>
        <time>2019-07-17T15:14:59Z</time>
      </trkpt>
      <trkpt lat="47.84141" lon="-3.48083">
        <ele>37</ele>
        <time>2019-07-17T15:15:00Z</time>
      </trkpt>
      <trkpt lat="47.84138" lon="-3.48092">
        <ele>37</ele>
        <time>2019-07-17T15:15:01Z</time>
      </trkpt>
      <trkpt lat="47.84136" lon="-3.481">
        <ele>37</ele>
        <time>2019-07-17T15:15:02Z</time>
      </trkpt>
      <trkpt lat="47.84133" lon="-3.48109">
        <ele>37</ele>
        <time>2019-07-17T15:15:03Z</time>
      </trkpt>
      <trkpt lat="47.8413" lon="-3.48118">
        <ele>37</ele>
        <time>2019-07-17T15:15:04Z</time>
      </trkpt>
      <trkpt lat="47.84127" lon="-3.48127">
        <ele>37</ele>
        <time>2019-07-17T15:15:05Z</time>
      </trkpt>
      <trkpt lat="47.84124" lon="-3.48136">
        <ele>38</ele>
        <time>2019-07-17T15:15:06Z</time>
      </trkpt>
      <trkpt lat="47.84121" lon="-3.48145">
        <ele>38</ele>
        <time>2019-07-17T15:15:07Z</time>
      </trkpt>
      <trkpt lat="47.84118" lon="-3.48153">
        <ele>38</ele>
        <time>2019-07-17T15:15:08Z</time>
      </trkpt>
      <trkpt lat="47.84115" lon="-3.48162">
        <ele>38</ele>
        <time>2019-07-17T15:15:09Z</time>
      </trkpt>
      <trkpt lat="47.84112" lon="-3.48171">
        <ele>38</ele>
        <time>2019-07-17T15:15:10Z</time>
      </trkpt>
      <trkpt lat="47.84109" lon="-3.4818">
        <ele>38</ele>
        <time>2019-07-17T15:15:11Z</time>
      </trkpt>
      <trkpt lat="47.84106" lon="-3.48189">
        <ele>38</ele>
        <time>2019-07-17T15:15:12Z</time>
      </trkpt>
      <trkpt lat="47.84103" lon="-3.48198">
        <ele>38</ele>
        <time>2019-07-17T15:15:13Z</time>
      </trkpt>
      <trkpt lat="47.84101" lon="-3.48206">
        <ele>38</ele>
        <time>2019-07-17T15:15:14Z</time>
      </trkpt>
      <trkpt lat="47.84098" lon="-3.48215">
        <ele>38</ele>
        <time>2019-07-17T15:15:15Z</time>
      </trkpt>
      <trkpt lat="47.84095" lon="-3.48224">
        <ele>38</ele>
        <time>2019-07-17T15:15:16Z</time>
      </trkpt>
      <trkpt lat="47.84092" lon="-3.48232">
        <ele>38</ele>
        <time>2019-07-17T15:15:17Z</time>
      </trkpt>
      <trkpt lat="47.84089" lon="-3.4824">
        <ele>38</ele>
        <time>2019-07-17T15:15:18Z</time>
      </trkpt>
      <trkpt lat="47.84087" lon="-3.48249">
        <ele>38</ele>
        <time>2019-07-17T15:15:19Z</time>
      </trkpt>
      <trkpt lat="47.84084" lon="-3.48257">
        <ele>38</ele>
        <time>2019-07-17T15:15:20Z</time>
      </trkpt>
      <trkpt lat="47.84081" lon="-3.48264">
        <ele>38</ele>
        <time>2019-07-17T15:15:21Z</time>
      </trkpt>
      <trkpt lat="47.84079" lon="-3.48273">
        <ele>38</ele>
        <time>2019-07-17T15:15:22Z</time>
      </trkpt>
      <trkpt lat="47.84077" lon="-3.48281">
        <ele>39</ele>
        <time>2019-07-17T15:15:23Z</time>
      </trkpt>
      <trkpt lat="47.84074" lon="-3.48289">
        <ele>39</ele>
        <time>2019-07-17T15:15:24Z</time>
      </trkpt>
      <trkpt lat="47.84071" lon="-3.48296">
        <ele>39</ele>
        <time>2019-07-17T15:15:25Z</time>
      </trkpt>
      <trkpt lat="47.84069" lon="-3.48304">
        <ele>39</ele>
        <time>2019-07-17T15:15:26Z</time>
      </trkpt>
      <trkpt lat="47.84066" lon="-3.48312">
        <ele>39</ele>
        <time>2019-07-17T15:15:27Z</time>
      </trkpt>
      <trkpt lat="47.84064" lon="-3.48319">
        <ele>39</ele>
        <time>2019-07-17T15:15:28Z</time>
      </trkpt>
      <trkpt lat="47.84061" lon="-3.48327">
        <ele>39</ele>
        <time>2019-07-17T15:15:29Z</time>
      </trkpt>
      <trkpt lat="47.84058" lon="-3.48335">
        <ele>40</ele>
        <time>2019-07-17T15:15:30Z</time>
      </trkpt>
      <trkpt lat="47.84056" lon="-3.48343">
        <ele>40</ele>
        <time>2019-07-17T15:15:31Z</time>
      </trkpt>
      <trkpt lat="47.84054" lon="-3.48351">
        <ele>40</ele>
        <time>2019-07-17T15:15:32Z</time>
      </trkpt>
      <trkpt lat="47.84051" lon="-3.48359">
        <ele>40</ele>
        <time>2019-07-17T15:15:33Z</time>
      </trkpt>
      <trkpt lat="47.84048" lon="-3.48366">
        <ele>40</ele>
        <time>2019-07-17T15:15:34Z</time>
      </trkpt>
      <trkpt lat="47.84046" lon="-3.48374">
        <ele>40</ele>
        <time>2019-07-17T15:15:35Z</time>
      </trkpt>
      <trkpt lat="47.84044" lon="-3.48382">
        <ele>41</ele>
        <time>2019-07-17T15:15:36Z</time>
      </trkpt>
      <trkpt lat="47.84041" lon="-3.4839">
        <ele>41</ele>
        <time>2019-07-17T15:15:37Z</time>
      </trkpt>
      <trkpt lat="47.84038" lon="-3.48398">
        <ele>41</ele>
        <time>2019-07-17T15:15:38Z</time>
      </trkpt>
      <trkpt lat="47.84036" lon="-3.48405">
        <ele>41</ele>
        <time>2019-07-17T15:15:39Z</time>
      </trkpt>
      <trkpt lat="47.84033" lon="-3.48412">
        <ele>41</ele>
        <time>2019-07-17T15:15:40Z</time>
      </trkpt>
      <trkpt lat="47.84031" lon="-3.48418">
        <ele>42</ele>
        <time>2019-07-17T15:15:41Z</time>
      </trkpt>
      <trkpt lat="47.84028" lon="-3.48425">
        <ele>42</ele>
        <time>2019-07-17T15:15:42Z</time>
      </trkpt>
      <trkpt lat="47.84026" lon="-3.48431">
        <ele>42</ele>
        <time>2019-07-17T15:15:43Z</time>
      </trkpt>
      <trkpt lat="47.84023" lon="-3.48438">
        <ele>42</ele>
        <time>2019-07-17T15:15:44Z</time>
      </trkpt>
      <trkpt lat="47.84021" lon="-3.48445">
        <ele>42</ele>
        <time>2019-07-17T15:15:45Z</time>
      </trkpt>
      <trkpt lat="47.84018" lon="-3.48452">
        <ele>43</ele>
        <time>2019-07-17T15:15:46Z</time>
      </trkpt>
      <trkpt lat="47.84015" lon="-3.48459">
        <ele>43</ele>
        <time>2019-07-17T15:15:47Z</time>
      </trkpt>
      <trkpt lat="47.84012" lon="-3.48467">
        <ele>43</ele>
        <time>2019-07-17T15:15:48Z</time>
      </trkpt>
      <trkpt lat="47.84009" lon="-3.48474">
        <ele>43</ele>
        <time>2019-07-17T15:15:49Z</time>
      </trkpt>
      <trkpt lat="47.84006" lon="-3.4848">
        <ele>43</ele>
        <time>2019-07-17T15:15:50Z</time>
      </trkpt>
      <trkpt lat="47.84004" lon="-3.48487">
        <ele>43</ele>
        <time>2019-07-17T15:15:51Z</time>
      </trkpt>
      <trkpt lat="47.84001" lon="-3.48494">
        <ele>44</ele>
        <time>2019-07-17T15:15:52Z</time>
      </trkpt>
      <trkpt lat="47.83998" lon="-3.48501">
        <ele>44</ele>
        <time>2019-07-17T15:15:53Z</time>
      </trkpt>
      <trkpt lat="47.83995" lon="-3.48508">
        <ele>44</ele>
        <time>2019-07-17T15:15:54Z</time>
      </trkpt>
      <trkpt lat="47.83992" lon="-3.48515">
        <ele>44</ele>
        <time>2019-07-17T15:15:55Z</time>
      </trkpt>
      <trkpt lat="47.83989" lon="-3.48522">
        <ele>44</ele>
        <time>2019-07-17T15:15:56Z</time>
      </trkpt>
      <trkpt lat="47.83986" lon="-3.48529">
        <ele>45</ele>
        <time>2019-07-17T15:15:57Z</time>
      </trkpt>
      <trkpt lat="47.83982" lon="-3.48535">
        <ele>45</ele>
        <time>2019-07-17T15:15:58Z</time>
      </trkpt>
      <trkpt lat="47.83979" lon="-3.48542">
        <ele>45</ele>
        <time>2019-07-17T15:15:59Z</time>
      </trkpt>
      <trkpt lat="47.83976" lon="-3.48548">
        <ele>45</ele>
        <time>2019-07-17T15:16:00Z</time>
      </trkpt>
      <trkpt lat="47.83973" lon="-3.48555">
        <ele>45</ele>
        <time>2019-07-17T15:16:01Z</time>
      </trkpt>
      <trkpt lat="47.83969" lon="-3.4856">
        <ele>45</ele>
        <time>2019-07-17T15:16:02Z</time>
      </trkpt>
      <trkpt lat="47.83965" lon="-3.48566">
        <ele>45</ele>
        <time>2019-07-17T15:16:03Z</time>
      </trkpt>
      <trkpt lat="47.8396" lon="-3.48572">
        <ele>44</ele>
        <time>2019-07-17T15:16:04Z</time>
      </trkpt>
      <trkpt lat="47.83956" lon="-3.48579">
        <ele>44</ele>
        <time>2019-07-17T15:16:05Z</time>
      </trkpt>
      <trkpt lat="47.83951" lon="-3.48585">
        <ele>44</ele>
        <time>2019-07-17T15:16:06Z</time>
      </trkpt>
      <trkpt lat="47.83946" lon="-3.48592">
        <ele>44</ele>
        <time>2019-07-17T15:16:07Z</time>
      </trkpt>
      <trkpt lat="47.83941" lon="-3.48598">
        <ele>44</ele>
        <time>2019-07-17T15:16:08Z</time>
      </trkpt>
      <trkpt lat="47.83935" lon="-3.48604">
        <ele>43</ele>
        <time>2019-07-17T15:16:09Z</time>
      </trkpt>
      <trkpt lat="47.8393" lon="-3.4861">
        <ele>43</ele>
        <time>2019-07-17T15:16:10Z</time>
      </trkpt>
      <trkpt lat="47.83924" lon="-3.48616">
        <ele>43</ele>
        <time>2019-07-17T15:16:11Z</time>
      </trkpt>
      <trkpt lat="47.83918" lon="-3.48622">
        <ele>43</ele>
        <time>2019-07-17T15:16:12Z</time>
      </trkpt>
      <trkpt lat="47.83912" lon="-3.48627">
        <ele>42</ele>
        <time>2019-07-17T15:16:13Z</time>
      </trkpt>
      <trkpt lat="47.83905" lon="-3.48632">
        <ele>42</ele>
        <time>2019-07-17T15:16:14Z</time>
      </trkpt>
      <trkpt lat="47.83899" lon="-3.48637">
        <ele>42</ele>
        <time>2019-07-17T15:16:15Z</time>
      </trkpt>
      <trkpt lat="47.83893" lon="-3.48642">
        <ele>42</ele>
        <time>2019-07-17T15:16:16Z</time>
      </trkpt>
      <trkpt lat="47.83887" lon="-3.48646">
        <ele>42</ele>
        <time>2019-07-17T15:16:17Z</time>
      </trkpt>
      <trkpt lat="47.8388" lon="-3.4865">
        <ele>42</ele>
        <time>2019-07-17T15:16:18Z</time>
      </trkpt>
      <trkpt lat="47.83874" lon="-3.48653">
        <ele>42</ele>
        <time>2019-07-17T15:16:19Z</time>
      </trkpt>
      <trkpt lat="47.83867" lon="-3.48657">
        <ele>42</ele>
        <time>2019-07-17T15:16:20Z</time>
      </trkpt>
      <trkpt lat="47.8386" lon="-3.4866">
        <ele>42</ele>
        <time>2019-07-17T15:16:21Z</time>
      </trkpt>
      <trkpt lat="47.83854" lon="-3.48663">
        <ele>42</ele>
        <time>2019-07-17T15:16:22Z</time>
      </trkpt>
      <trkpt lat="47.83847" lon="-3.48666">
        <ele>42</ele>
        <time>2019-07-17T15:16:23Z</time>
      </trkpt>
      <trkpt lat="47.8384" lon="-3.48668">
        <ele>42</ele>
        <time>2019-07-17T15:16:24Z</time>
      </trkpt>
      <trkpt lat="47.83834" lon="-3.48671">
        <ele>42</ele>
        <time>2019-07-17T15:16:25Z</time>
      </trkpt>
      <trkpt lat="47.83827" lon="-3.48673">
        <ele>42</ele>
        <time>2019-07-17T15:16:26Z</time>
      </trkpt>
      <trkpt lat="47.8382" lon="-3.48675">
        <ele>42</ele>
        <time>2019-07-17T15:16:27Z</time>
      </trkpt>
      <trkpt lat="47.83813" lon="-3.48678">
        <ele>42</ele>
        <time>2019-07-17T15:16:28Z</time>
      </trkpt>
      <trkpt lat="47.83806" lon="-3.4868">
        <ele>42</ele>
        <time>2019-07-17T15:16:29Z</time>
      </trkpt>
      <trkpt lat="47.83799" lon="-3.48681">
        <ele>42</ele>
        <time>2019-07-17T15:16:30Z</time>
      </trkpt>
      <trkpt lat="47.83792" lon="-3.48684">
        <ele>42</ele>
        <time>2019-07-17T15:16:31Z</time>
      </trkpt>
      <trkpt lat="47.83785" lon="-3.48685">
        <ele>42</ele>
        <time>2019-07-17T15:16:32Z</time>
      </trkpt>
      <trkpt lat="47.83778" lon="-3.48687">
        <ele>42</ele>
        <time>2019-07-17T15:16:33Z</time>
      </trkpt>
      <trkpt lat="47.83771" lon="-3.48689">
        <ele>42</ele>
        <time>2019-07-17T15:16:34Z</time>
      </trkpt>
      <trkpt lat="47.83764" lon="-3.48691">
        <ele>42</ele>
        <time>2019-07-17T15:16:35Z</time>
      </trkpt>
      <trkpt lat="47.83757" lon="-3.48693">
        <ele>42</ele>
        <time>2019-07-17T15:16:36Z</time>
      </trkpt>
      <trkpt lat="47.8375" lon="-3.48695">
        <ele>42</ele>
        <time>2019-07-17T15:16:37Z</time>
      </trkpt>
      <trkpt lat="47.83743" lon="-3.48696">
        <ele>42</ele>
        <time>2019-07-17T15:16:38Z</time>
      </trkpt>
      <trkpt lat="47.83736" lon="-3.48697">
        <ele>42</ele>
        <time>2019-07-17T15:16:39Z</time>
      </trkpt>
      <trkpt lat="47.83729" lon="-3.48699">
        <ele>42</ele>
        <time>2019-07-17T15:16:40Z</time>
      </trkpt>
      <trkpt lat="47.83722" lon="-3.487">
        <ele>42</ele>
        <time>2019-07-17T15:16:41Z</time>
      </trkpt>
      <trkpt lat="47.83715" lon="-3.48701">
        <ele>42</ele>
        <time>2019-07-17T15:16:42Z</time>
      </trkpt>
      <trkpt lat="47.83708" lon="-3.48702">
        <ele>42</ele>
        <time>2019-07-17T15:16:43Z</time>
      </trkpt>
      <trkpt lat="47.83701" lon="-3.48703">
        <ele>42</ele>
        <time>2019-07-17T15:16:44Z</time>
      </trkpt>
      <trkpt lat="47.83695" lon="-3.48704">
        <ele>42</ele>
        <time>2019-07-17T15:16:45Z</time>
      </trkpt>
      <trkpt lat="47.83688" lon="-3.48704">
        <ele>42</ele>
        <time>2019-07-17T15:16:46Z</time>
      </trkpt>
      <trkpt lat="47.83681" lon="-3.48705">
        <ele>42</ele>
        <time>2019-07-17T15:16:47Z</time>
      </trkpt>
      <trkpt lat="47.83675" lon="-3.48705">
        <ele>43</ele>
        <time>2019-07-17T15:16:48Z</time>
      </trkpt>
      <trkpt lat="47.83669" lon="-3.48705">
        <ele>43</ele>
        <time>2019-07-17T15:16:49Z</time>
      </trkpt>
      <trkpt lat="47.83662" lon="-3.48705">
        <ele>43</ele>
        <time>2019-07-17T15:16:50Z</time>
      </trkpt>
      <trkpt lat="47.83656" lon="-3.48706">
        <ele>43</ele>
        <time>2019-07-17T15:16:51Z</time>
      </trkpt>
      <trkpt lat="47.8365" lon="-3.48706">
        <ele>43</ele>
        <time>2019-07-17T15:16:52Z</time>
      </trkpt>
      <trkpt lat="47.83644" lon="-3.48706">
        <ele>43</ele>
        <time>2019-07-17T15:16:53Z</time>
      </trkpt>
      <trkpt lat="47.83638" lon="-3.48707">
        <ele>44</ele>
        <time>2019-07-17T15:16:54Z</time>
      </trkpt>
      <trkpt lat="47.83632" lon="-3.48707">
        <ele>44</ele>
        <time>2019-07-17T15:16:55Z</time>
      </trkpt>
      <trkpt lat="47.83626" lon="-3.48708">
        <ele>44</ele>
        <time>2019-07-17T15:16:56Z</time>
      </trkpt>
      <trkpt lat="47.8362" lon="-3.48709">
        <ele>44</ele>
        <time>2019-07-17T15:16:57Z</time>
      </trkpt>
      <trkpt lat="47.83614" lon="-3.4871">
        <ele>44</ele>
        <time>2019-07-17T15:16:58Z</time>
      </trkpt>
      <trkpt lat="47.83608" lon="-3.48711">
        <ele>45</ele>
        <time>2019-07-17T15:16:59Z</time>
      </trkpt>
      <trkpt lat="47.83602" lon="-3.48712">
        <ele>45</ele>
        <time>2019-07-17T15:17:00Z</time>
      </trkpt>
      <trkpt lat="47.83596" lon="-3.48713">
        <ele>45</ele>
        <time>2019-07-17T15:17:01Z</time>
      </trkpt>
      <trkpt lat="47.8359" lon="-3.48714">
        <ele>45</ele>
        <time>2019-07-17T15:17:02Z</time>
      </trkpt>
      <trkpt lat="47.83584" lon="-3.48716">
        <ele>45</ele>
        <time>2019-07-17T15:17:03Z</time>
      </trkpt>
      <trkpt lat="47.83578" lon="-3.48718">
        <ele>45</ele>
        <time>2019-07-17T15:17:04Z</time>
      </trkpt>
      <trkpt lat="47.83572" lon="-3.4872">
        <ele>45</ele>
        <time>2019-07-17T15:17:05Z</time>
      </trkpt>
      <trkpt lat="47.83566" lon="-3.48722">
        <ele>45</ele>
        <time>2019-07-17T15:17:06Z</time>
      </trkpt>
      <trkpt lat="47.83559" lon="-3.48724">
        <ele>45</ele>
        <time>2019-07-17T15:17:07Z</time>
      </trkpt>
      <trkpt lat="47.83553" lon="-3.48726">
        <ele>45</ele>
        <time>2019-07-17T15:17:08Z</time>
      </trkpt>
      <trkpt lat="47.83547" lon="-3.48729">
        <ele>45</ele>
        <time>2019-07-17T15:17:09Z</time>
      </trkpt>
      <trkpt lat="47.8354" lon="-3.48731">
        <ele>44</ele>
        <time>2019-07-17T15:17:10Z</time>
      </trkpt>
      <trkpt lat="47.83534" lon="-3.48733">
        <ele>44</ele>
        <time>2019-07-17T15:17:11Z</time>
      </trkpt>
      <trkpt lat="47.83528" lon="-3.48736">
        <ele>44</ele>
        <time>2019-07-17T15:17:12Z</time>
      </trkpt>
      <trkpt lat="47.83521" lon="-3.48738">
        <ele>44</ele>
        <time>2019-07-17T15:17:13Z</time>
      </trkpt>
      <trkpt lat="47.83514" lon="-3.4874">
        <ele>44</ele>
        <time>2019-07-17T15:17:14Z</time>
      </trkpt>
      <trkpt lat="47.83508" lon="-3.48742">
        <ele>43</ele>
        <time>2019-07-17T15:17:15Z</time>
      </trkpt>
      <trkpt lat="47.83501" lon="-3.48745">
        <ele>43</ele>
        <time>2019-07-17T15:17:16Z</time>
      </trkpt>
      <trkpt lat="47.83494" lon="-3.48747">
        <ele>43</ele>
        <time>2019-07-17T15:17:17Z</time>
      </trkpt>
      <trkpt lat="47.83487" lon="-3.48749">
        <ele>43</ele>
        <time>2019-07-17T15:17:18Z</time>
      </trkpt>
      <trkpt lat="47.8348" lon="-3.48751">
        <ele>42</ele>
        <time>2019-07-17T15:17:19Z</time>
      </trkpt>
      <trkpt lat="47.83473" lon="-3.48754">
        <ele>42</ele>
        <time>2019-07-17T15:17:20Z</time>
      </trkpt>
      <trkpt lat="47.83465" lon="-3.48756">
        <ele>42</ele>
        <time>2019-07-17T15:17:21Z</time>
      </trkpt>
      <trkpt lat="47.83458" lon="-3.48759">
        <ele>42</ele>
        <time>2019-07-17T15:17:22Z</time>
      </trkpt>
      <trkpt lat="47.83451" lon="-3.48762">
        <ele>41</ele>
        <time>2019-07-17T15:17:23Z</time>
      </trkpt>
      <trkpt lat="47.83443" lon="-3.48765">
        <ele>41</ele>
        <time>2019-07-17T15:17:24Z</time>
      </trkpt>
      <trkpt lat="47.83435" lon="-3.48768">
        <ele>41</ele>
        <time>2019-07-17T15:17:25Z</time>
      </trkpt>
      <trkpt lat="47.83428" lon="-3.4877">
        <ele>41</ele>
        <time>2019-07-17T15:17:26Z</time>
      </trkpt>
      <trkpt lat="47.8342" lon="-3.48773">
        <ele>40</ele>
        <time>2019-07-17T15:17:27Z</time>
      </trkpt>
      <trkpt lat="47.83412" lon="-3.48776">
        <ele>40</ele>
        <time>2019-07-17T15:17:28Z</time>
      </trkpt>
      <trkpt lat="47.83404" lon="-3.48779">
        <ele>40</ele>
        <time>2019-07-17T15:17:29Z</time>
      </trkpt>
      <trkpt lat="47.83396" lon="-3.48781">
        <ele>40</ele>
        <time>2019-07-17T15:17:30Z</time>
      </trkpt>
      <trkpt lat="47.83388" lon="-3.48784">
        <ele>39</ele>
        <time>2019-07-17T15:17:31Z</time>
      </trkpt>
      <trkpt lat="47.83381" lon="-3.48787">
        <ele>39</ele>
        <time>2019-07-17T15:17:32Z</time>
      </trkpt>
      <trkpt lat="47.83373" lon="-3.48789">
        <ele>39</ele>
        <time>2019-07-17T15:17:33Z</time>
      </trkpt>
      <trkpt lat="47.83366" lon="-3.48792">
        <ele>40</ele>
        <time>2019-07-17T15:17:34Z</time>
      </trkpt>
      <trkpt lat="47.83359" lon="-3.48794">
        <ele>40</ele>
        <time>2019-07-17T15:17:35Z</time>
      </trkpt>
      <trkpt lat="47.83352" lon="-3.48797">
        <ele>40</ele>
        <time>2019-07-17T15:17:36Z</time>
      </trkpt>
      <trkpt lat="47.83345" lon="-3.488">
        <ele>40</ele>
        <time>2019-07-17T15:17:37Z</time>
      </trkpt>
      <trkpt lat="47.83339" lon="-3.48802">
        <ele>40</ele>
        <time>2019-07-17T15:17:38Z</time>
      </trkpt>
      <trkpt lat="47.83332" lon="-3.48805">
        <ele>40</ele>
        <time>2019-07-17T15:17:39Z</time>
      </trkpt>
      <trkpt lat="47.83325" lon="-3.48808">
        <ele>40</ele>
        <time>2019-07-17T15:17:40Z</time>
      </trkpt>
      <trkpt lat="47.83319" lon="-3.4881">
        <ele>41</ele>
        <time>2019-07-17T15:17:41Z</time>
      </trkpt>
      <trkpt lat="47.83312" lon="-3.48812">
        <ele>41</ele>
        <time>2019-07-17T15:17:42Z</time>
      </trkpt>
      <trkpt lat="47.83306" lon="-3.48814">
        <ele>41</ele>
        <time>2019-07-17T15:17:43Z</time>
      </trkpt>
      <trkpt lat="47.833" lon="-3.48817">
        <ele>41</ele>
        <time>2019-07-17T15:17:44Z</time>
      </trkpt>
      <trkpt lat="47.83293" lon="-3.48819">
        <ele>42</ele>
        <time>2019-07-17T15:17:45Z</time>
      </trkpt>
      <trkpt lat="47.83287" lon="-3.48822">
        <ele>42</ele>
        <time>2019-07-17T15:17:46Z</time>
      </trkpt>
      <trkpt lat="47.83281" lon="-3.48824">
        <ele>42</ele>
        <time>2019-07-17T15:17:47Z</time>
      </trkpt>
      <trkpt lat="47.83275" lon="-3.48826">
        <ele>42</ele>
        <time>2019-07-17T15:17:48Z</time>
      </trkpt>
      <trkpt lat="47.83268" lon="-3.48829">
        <ele>42</ele>
        <time>2019-07-17T15:17:49Z</time>
      </trkpt>
      <trkpt lat="47.83262" lon="-3.48831">
        <ele>43</ele>
        <time>2019-07-17T15:17:50Z</time>
      </trkpt>
      <trkpt lat="47.83255" lon="-3.48834">
        <ele>43</ele>
        <time>2019-07-17T15:17:51Z</time>
      </trkpt>
      <trkpt lat="47.83249" lon="-3.48836">
        <ele>43</ele>
        <time>2019-07-17T15:17:52Z</time>
      </trkpt>
      <trkpt lat="47.83242" lon="-3.48838">
        <ele>43</ele>
        <time>2019-07-17T15:17:53Z</time>
      </trkpt>
      <trkpt lat="47.83236" lon="-3.48841">
        <ele>43</ele>
        <time>2019-07-17T15:17:54Z</time>
      </trkpt>
      <trkpt lat="47.83229" lon="-3.48843">
        <ele>43</ele>
        <time>2019-07-17T15:17:55Z</time>
      </trkpt>
      <trkpt lat="47.83222" lon="-3.48846">
        <ele>43</ele>
        <time>2019-07-17T15:17:56Z</time>
      </trkpt>
      <trkpt lat="47.83215" lon="-3.48849">
        <ele>44</ele>
        <time>2019-07-17T15:17:57Z</time>
      </trkpt>
      <trkpt lat="47.83209" lon="-3.48851">
        <ele>44</ele>
        <time>2019-07-17T15:17:58Z</time>
      </trkpt>
      <trkpt lat="47.83202" lon="-3.48854">
        <ele>44</ele>
        <time>2019-07-17T15:17:59Z</time>
      </trkpt>
      <trkpt lat="47.83195" lon="-3.48856">
        <ele>44</ele>
        <time>2019-07-17T15:18:00Z</time>
      </trkpt>
      <trkpt lat="47.83188" lon="-3.48859">
        <ele>44</ele>
        <time>2019-07-17T15:18:01Z</time>
      </trkpt>
      <trkpt lat="47.83182" lon="-3.48861">
        <ele>44</ele>
        <time>2019-07-17T15:18:02Z</time>
      </trkpt>
      <trkpt lat="47.83175" lon="-3.48864">
        <ele>44</ele>
        <time>2019-07-17T15:18:03Z</time>
      </trkpt>
      <trkpt lat="47.83168" lon="-3.48866">
        <ele>44</ele>
        <time>2019-07-17T15:18:04Z</time>
      </trkpt>
      <trkpt lat="47.83162" lon="-3.48869">
        <ele>44</ele>
        <time>2019-07-17T15:18:05Z</time>
      </trkpt>
      <trkpt lat="47.83155" lon="-3.48871">
        <ele>44</ele>
        <time>2019-07-17T15:18:06Z</time>
      </trkpt>
      <trkpt lat="47.83148" lon="-3.48874">
        <ele>44</ele>
        <time>2019-07-17T15:18:07Z</time>
      </trkpt>
      <trkpt lat="47.83141" lon="-3.48876">
        <ele>44</ele>
        <time>2019-07-17T15:18:08Z</time>
      </trkpt>
      <trkpt lat="47.83134" lon="-3.48879">
        <ele>44</ele>
        <time>2019-07-17T15:18:09Z</time>
      </trkpt>
      <trkpt lat="47.83127" lon="-3.48882">
        <ele>44</ele>
        <time>2019-07-17T15:18:10Z</time>
      </trkpt>
      <trkpt lat="47.8312" lon="-3.48884">
        <ele>44</ele>
        <time>2019-07-17T15:18:11Z</time>
      </trkpt>
      <trkpt lat="47.83113" lon="-3.48887">
        <ele>45</ele>
        <time>2019-07-17T15:18:12Z</time>
      </trkpt>
      <trkpt lat="47.83107" lon="-3.48889">
        <ele>45</ele>
        <time>2019-07-17T15:18:13Z</time>
      </trkpt>
      <trkpt lat="47.831" lon="-3.48892">
        <ele>45</ele>
        <time>2019-07-17T15:18:14Z</time>
      </trkpt>
      <trkpt lat="47.83093" lon="-3.48894">
        <ele>45</ele>
        <time>2019-07-17T15:18:15Z</time>
      </trkpt>
      <trkpt lat="47.83087" lon="-3.48897">
        <ele>45</ele>
        <time>2019-07-17T15:18:16Z</time>
      </trkpt>
      <trkpt lat="47.8308" lon="-3.48899">
        <ele>45</ele>
        <time>2019-07-17T15:18:17Z</time>
      </trkpt>
      <trkpt lat="47.83074" lon="-3.48902">
        <ele>45</ele>
        <time>2019-07-17T15:18:18Z</time>
      </trkpt>
      <trkpt lat="47.83067" lon="-3.48904">
        <ele>45</ele>
        <time>2019-07-17T15:18:19Z</time>
      </trkpt>
      <trkpt lat="47.83061" lon="-3.48907">
        <ele>45</ele>
        <time>2019-07-17T15:18:20Z</time>
      </trkpt>
      <trkpt lat="47.83055" lon="-3.48909">
        <ele>45</ele>
        <time>2019-07-17T15:18:21Z</time>
      </trkpt>
      <trkpt lat="47.83048" lon="-3.48911">
        <ele>45</ele>
        <time>2019-07-17T15:18:22Z</time>
      </trkpt>
      <trkpt lat="47.83042" lon="-3.48914">
        <ele>45</ele>
        <time>2019-07-17T15:18:23Z</time>
      </trkpt>
      <trkpt lat="47.83035" lon="-3.48916">
        <ele>45</ele>
        <time>2019-07-17T15:18:24Z</time>
      </trkpt>
      <trkpt lat="47.83029" lon="-3.48919">
        <ele>45</ele>
        <time>2019-07-17T15:18:25Z</time>
      </trkpt>
      <trkpt lat="47.83022" lon="-3.48921">
        <ele>45</ele>
        <time>2019-07-17T15:18:26Z</time>
      </trkpt>
      <trkpt lat="47.83015" lon="-3.48924">
        <ele>45</ele>
        <time>2019-07-17T15:18:27Z</time>
      </trkpt>
      <trkpt lat="47.83009" lon="-3.48926">
        <ele>45</ele>
        <time>2019-07-17T15:18:28Z</time>
      </trkpt>
      <trkpt lat="47.83002" lon="-3.48929">
        <ele>45</ele>
        <time>2019-07-17T15:18:29Z</time>
      </trkpt>
      <trkpt lat="47.82995" lon="-3.48932">
        <ele>45</ele>
        <time>2019-07-17T15:18:30Z</time>
      </trkpt>
      <trkpt lat="47.82989" lon="-3.48934">
        <ele>44</ele>
        <time>2019-07-17T15:18:31Z</time>
      </trkpt>
      <trkpt lat="47.82982" lon="-3.48937">
        <ele>44</ele>
        <time>2019-07-17T15:18:32Z</time>
      </trkpt>
      <trkpt lat="47.82975" lon="-3.48939">
        <ele>44</ele>
        <time>2019-07-17T15:18:33Z</time>
      </trkpt>
      <trkpt lat="47.82968" lon="-3.48941">
        <ele>44</ele>
        <time>2019-07-17T15:18:34Z</time>
      </trkpt>
      <trkpt lat="47.82961" lon="-3.48944">
        <ele>44</ele>
        <time>2019-07-17T15:18:35Z</time>
      </trkpt>
      <trkpt lat="47.82954" lon="-3.48946">
        <ele>44</ele>
        <time>2019-07-17T15:18:36Z</time>
      </trkpt>
      <trkpt lat="47.82947" lon="-3.48949">
        <ele>44</ele>
        <time>2019-07-17T15:18:37Z</time>
      </trkpt>
      <trkpt lat="47.8294" lon="-3.48952">
        <ele>44</ele>
        <time>2019-07-17T15:18:38Z</time>
      </trkpt>
      <trkpt lat="47.82933" lon="-3.48954">
        <ele>44</ele>
        <time>2019-07-17T15:18:39Z</time>
      </trkpt>
      <trkpt lat="47.82926" lon="-3.48956">
        <ele>44</ele>
        <time>2019-07-17T15:18:40Z</time>
      </trkpt>
      <trkpt lat="47.82919" lon="-3.48958">
        <ele>44</ele>
        <time>2019-07-17T15:18:41Z</time>
      </trkpt>
      <trkpt lat="47.82912" lon="-3.4896">
        <ele>43</ele>
        <time>2019-07-17T15:18:42Z</time>
      </trkpt>
      <trkpt lat="47.82905" lon="-3.48962">
        <ele>43</ele>
        <time>2019-07-17T15:18:43Z</time>
      </trkpt>
      <trkpt lat="47.82898" lon="-3.48963">
        <ele>43</ele>
        <time>2019-07-17T15:18:44Z</time>
      </trkpt>
      <trkpt lat="47.82892" lon="-3.48965">
        <ele>43</ele>
        <time>2019-07-17T15:18:45Z</time>
      </trkpt>
      <trkpt lat="47.82885" lon="-3.48966">
        <ele>43</ele>
        <time>2019-07-17T15:18:46Z</time>
      </trkpt>
      <trkpt lat="47.82878" lon="-3.48967">
        <ele>43</ele>
        <time>2019-07-17T15:18:47Z</time>
      </trkpt>
      <trkpt lat="47.82871" lon="-3.48969">
        <ele>43</ele>
        <time>2019-07-17T15:18:48Z</time>
      </trkpt>
      <trkpt lat="47.82864" lon="-3.4897">
        <ele>43</ele>
        <time>2019-07-17T15:18:49Z</time>
      </trkpt>
      <trkpt lat="47.82857" lon="-3.48971">
        <ele>43</ele>
        <time>2019-07-17T15:18:50Z</time>
      </trkpt>
      <trkpt lat="47.8285" lon="-3.48972">
        <ele>43</ele>
        <time>2019-07-17T15:18:51Z</time>
      </trkpt>
      <trkpt lat="47.82844" lon="-3.48974">
        <ele>43</ele>
        <time>2019-07-17T15:18:52Z</time>
      </trkpt>
      <trkpt lat="47.82837" lon="-3.48975">
        <ele>43</ele>
        <time>2019-07-17T15:18:53Z</time>
      </trkpt>
      <trkpt lat="47.8283" lon="-3.48977">
        <ele>43</ele>
        <time>2019-07-17T15:18:54Z</time>
      </trkpt>
      <trkpt lat="47.82824" lon="-3.48978">
        <ele>43</ele>
        <time>2019-07-17T15:18:55Z</time>
      </trkpt>
      <trkpt lat="47.82817" lon="-3.48979">
        <ele>43</ele>
        <time>2019-07-17T15:18:56Z</time>
      </trkpt>
      <trkpt lat="47.82811" lon="-3.4898">
        <ele>43</ele>
        <time>2019-07-17T15:18:57Z</time>
      </trkpt>
      <trkpt lat="47.82804" lon="-3.48981">
        <ele>43</ele>
        <time>2019-07-17T15:18:58Z</time>
      </trkpt>
      <trkpt lat="47.82799" lon="-3.48982">
        <ele>43</ele>
        <time>2019-07-17T15:18:59Z</time>
      </trkpt>
      <trkpt lat="47.82793" lon="-3.48983">
        <ele>43</ele>
        <time>2019-07-17T15:19:00Z</time>
      </trkpt>
      <trkpt lat="47.82788" lon="-3.48985">
        <ele>43</ele>
        <time>2019-07-17T15:19:01Z</time>
      </trkpt>
      <trkpt lat="47.82783" lon="-3.48986">
        <ele>43</ele>
        <time>2019-07-17T15:19:02Z</time>
      </trkpt>
      <trkpt lat="47.82778" lon="-3.48988">
        <ele>44</ele>
        <time>2019-07-17T15:19:03Z</time>
      </trkpt>
      <trkpt lat="47.82774" lon="-3.48991">
        <ele>44</ele>
        <time>2019-07-17T15:19:04Z</time>
      </trkpt>
      <trkpt lat="47.82771" lon="-3.48997">
        <ele>44</ele>
        <time>2019-07-17T15:19:05Z</time>
      </trkpt>
      <trkpt lat="47.8277" lon="-3.49004">
        <ele>44</ele>
        <time>2019-07-17T15:19:06Z</time>
      </trkpt>
      <trkpt lat="47.82769" lon="-3.49011">
        <ele>44</ele>
        <time>2019-07-17T15:19:07Z</time>
      </trkpt>
      <trkpt lat="47.82769" lon="-3.49018">
        <ele>44</ele>
        <time>2019-07-17T15:19:08Z</time>
      </trkpt>
      <trkpt lat="47.82769" lon="-3.49024">
        <ele>44</ele>
        <time>2019-07-17T15:19:09Z</time>
      </trkpt>
      <trkpt lat="47.82768" lon="-3.49031">
        <ele>44</ele>
        <time>2019-07-17T15:19:10Z</time>
      </trkpt>
      <trkpt lat="47.82768" lon="-3.49038">
        <ele>44</ele>
        <time>2019-07-17T15:19:11Z</time>
      </trkpt>
      <trkpt lat="47.82768" lon="-3.49045">
        <ele>44</ele>
        <time>2019-07-17T15:19:12Z</time>
      </trkpt>
      <trkpt lat="47.82767" lon="-3.49052">
        <ele>44</ele>
        <time>2019-07-17T15:19:13Z</time>
      </trkpt>
      <trkpt lat="47.82767" lon="-3.49059">
        <ele>44</ele>
        <time>2019-07-17T15:19:14Z</time>
      </trkpt>
      <trkpt lat="47.82766" lon="-3.49065">
        <ele>45</ele>
        <time>2019-07-17T15:19:15Z</time>
      </trkpt>
      <trkpt lat="47.82766" lon="-3.49072">
        <ele>45</ele>
        <time>2019-07-17T15:19:16Z</time>
      </trkpt>
      <trkpt lat="47.82766" lon="-3.49079">
        <ele>45</ele>
        <time>2019-07-17T15:19:17Z</time>
      </trkpt>
      <trkpt lat="47.82766" lon="-3.49086">
        <ele>45</ele>
        <time>2019-07-17T15:19:18Z</time>
      </trkpt>
      <trkpt lat="47.82765" lon="-3.49093">
        <ele>45</ele>
        <time>2019-07-17T15:19:19Z</time>
      </trkpt>
      <trkpt lat="47.82765" lon="-3.49099">
        <ele>46</ele>
        <time>2019-07-17T15:19:20Z</time>
      </trkpt>
      <trkpt lat="47.82765" lon="-3.49106">
        <ele>46</ele>
        <time>2019-07-17T15:19:21Z</time>
      </trkpt>
      <trkpt lat="47.82764" lon="-3.49112">
        <ele>46</ele>
        <time>2019-07-17T15:19:22Z</time>
      </trkpt>
      <trkpt lat="47.82764" lon="-3.49118">
        <ele>46</ele>
        <time>2019-07-17T15:19:23Z</time>
      </trkpt>
      <trkpt lat="47.82764" lon="-3.49124">
        <ele>46</ele>
        <time>2019-07-17T15:19:24Z</time>
      </trkpt>
      <trkpt lat="47.82764" lon="-3.4913">
        <ele>46</ele>
        <time>2019-07-17T15:19:25Z</time>
      </trkpt>
      <trkpt lat="47.82764" lon="-3.49136">
        <ele>47</ele>
        <time>2019-07-17T15:19:26Z</time>
      </trkpt>
      <trkpt lat="47.82764" lon="-3.49142">
        <ele>47</ele>
        <time>2019-07-17T15:19:27Z</time>
      </trkpt>
      <trkpt lat="47.82763" lon="-3.49147">
        <ele>47</ele>
        <time>2019-07-17T15:19:28Z</time>
      </trkpt>
      <trkpt lat="47.82762" lon="-3.49152">
        <ele>47</ele>
        <time>2019-07-17T15:19:29Z</time>
      </trkpt>
      <trkpt lat="47.82761" lon="-3.49157">
        <ele>47</ele>
        <time>2019-07-17T15:19:30Z</time>
      </trkpt>
      <trkpt lat="47.82761" lon="-3.49161">
        <ele>47</ele>
        <time>2019-07-17T15:19:31Z</time>
      </trkpt>
      <trkpt lat="47.8276" lon="-3.49165">
        <ele>47</ele>
        <time>2019-07-17T15:19:32Z</time>
      </trkpt>
      <trkpt lat="47.82759" lon="-3.49168">
        <ele>47</ele>
        <time>2019-07-17T15:19:33Z</time>
      </trkpt>
      <trkpt lat="47.82759" lon="-3.49171">
        <ele>47</ele>
        <time>2019-07-17T15:19:34Z</time>
      </trkpt>
      <trkpt lat="47.82759" lon="-3.49172">
        <ele>48</ele>
        <time>2019-07-17T15:19:35Z</time>
      </trkpt>
      <trkpt lat="47.82759" lon="-3.49173">
        <ele>48</ele>
        <time>2019-07-17T15:19:36Z</time>
      </trkpt>
      <trkpt lat="47.82759" lon="-3.49173">
        <ele>48</ele>
        <time>2019-07-17T15:19:37Z</time>
      </trkpt>
      <trkpt lat="47.82759" lon="-3.49166">
        <ele>49</ele>
        <time>2019-07-17T15:19:38Z</time>
      </trkpt>
      <trkpt lat="47.82759" lon="-3.49163">
        <ele>49</ele>
        <time>2019-07-17T15:19:39Z</time>
      </trkpt>
      <trkpt lat="47.8276" lon="-3.49161">
        <ele>50</ele>
        <time>2019-07-17T15:19:40Z</time>
      </trkpt>
      <trkpt lat="47.82761" lon="-3.49157">
        <ele>50</ele>
        <time>2019-07-17T15:19:41Z</time>
      </trkpt>
      <trkpt lat="47.82762" lon="-3.49152">
        <ele>50</ele>
        <time>2019-07-17T15:19:42Z</time>
      </trkpt>
      <trkpt lat="47.82763" lon="-3.49141">
        <ele>50</ele>
        <time>2019-07-17T15:19:43Z</time>
      </trkpt>
      <trkpt lat="47.82763" lon="-3.49135">
        <ele>50</ele>
        <time>2019-07-17T15:19:44Z</time>
      </trkpt>
      <trkpt lat="47.82764" lon="-3.49129">
        <ele>50</ele>
        <time>2019-07-17T15:19:45Z</time>
      </trkpt>
      <trkpt lat="47.82765" lon="-3.49123">
        <ele>50</ele>
        <time>2019-07-17T15:19:46Z</time>
      </trkpt>
      <trkpt lat="47.82765" lon="-3.49123">
        <ele>50</ele>
        <time>2019-07-17T15:19:47Z</time>
      </trkpt>
      <trkpt lat="47.82765" lon="-3.49116">
        <ele>50</ele>
        <time>2019-07-17T15:19:48Z</time>
      </trkpt>
      <trkpt lat="47.82765" lon="-3.49109">
        <ele>50</ele>
        <time>2019-07-17T15:19:49Z</time>
      </trkpt>
      <trkpt lat="47.82765" lon="-3.49102">
        <ele>50</ele>
        <time>2019-07-17T15:19:50Z</time>
      </trkpt>
      <trkpt lat="47.82766" lon="-3.49095">
        <ele>50</ele>
        <time>2019-07-17T15:19:51Z</time>
      </trkpt>
      <trkpt lat="47.82766" lon="-3.49087">
        <ele>50</ele>
        <time>2019-07-17T15:19:52Z</time>
      </trkpt>
      <trkpt lat="47.82767" lon="-3.49079">
        <ele>49</ele>
        <time>2019-07-17T15:19:53Z</time>
      </trkpt>
      <trkpt lat="47.82768" lon="-3.49061">
        <ele>49</ele>
        <time>2019-07-17T15:19:54Z</time>
      </trkpt>
      <trkpt lat="47.82768" lon="-3.49061">
        <ele>49</ele>
        <time>2019-07-17T15:19:55Z</time>
      </trkpt>
      <trkpt lat="47.82769" lon="-3.49052">
        <ele>48</ele>
        <time>2019-07-17T15:19:56Z</time>
      </trkpt>
      <trkpt lat="47.8277" lon="-3.49043">
        <ele>48</ele>
        <time>2019-07-17T15:19:57Z</time>
      </trkpt>
      <trkpt lat="47.8277" lon="-3.49033">
        <ele>47</ele>
        <time>2019-07-17T15:19:58Z</time>
      </trkpt>
      <trkpt lat="47.82771" lon="-3.49022">
        <ele>47</ele>
        <time>2019-07-17T15:19:59Z</time>
      </trkpt>
      <trkpt lat="47.82771" lon="-3.49012">
        <ele>46</ele>
        <time>2019-07-17T15:20:00Z</time>
      </trkpt>
      <trkpt lat="47.8277" lon="-3.49002">
        <ele>46</ele>
        <time>2019-07-17T15:20:01Z</time>
      </trkpt>
      <trkpt lat="47.82767" lon="-3.48995">
        <ele>46</ele>
        <time>2019-07-17T15:20:02Z</time>
      </trkpt>
      <trkpt lat="47.82762" lon="-3.48989">
        <ele>46</ele>
        <time>2019-07-17T15:20:03Z</time>
      </trkpt>
      <trkpt lat="47.82757" lon="-3.48988">
        <ele>46</ele>
        <time>2019-07-17T15:20:04Z</time>
      </trkpt>
      <trkpt lat="47.82752" lon="-3.48988">
        <ele>46</ele>
        <time>2019-07-17T15:20:05Z</time>
      </trkpt>
      <trkpt lat="47.82747" lon="-3.48988">
        <ele>46</ele>
        <time>2019-07-17T15:20:06Z</time>
      </trkpt>
      <trkpt lat="47.82742" lon="-3.48989">
        <ele>46</ele>
        <time>2019-07-17T15:20:07Z</time>
      </trkpt>
      <trkpt lat="47.82732" lon="-3.4899">
        <ele>46</ele>
        <time>2019-07-17T15:20:08Z</time>
      </trkpt>
      <trkpt lat="47.82732" lon="-3.4899">
        <ele>46</ele>
        <time>2019-07-17T15:20:09Z</time>
      </trkpt>
      <trkpt lat="47.82726" lon="-3.48991">
        <ele>46</ele>
        <time>2019-07-17T15:20:10Z</time>
      </trkpt>
      <trkpt lat="47.8272" lon="-3.48992">
        <ele>46</ele>
        <time>2019-07-17T15:20:11Z</time>
      </trkpt>
      <trkpt lat="47.82715" lon="-3.48993">
        <ele>46</ele>
        <time>2019-07-17T15:20:12Z</time>
      </trkpt>
      <trkpt lat="47.82709" lon="-3.48994">
        <ele>46</ele>
        <time>2019-07-17T15:20:13Z</time>
      </trkpt>
      <trkpt lat="47.82703" lon="-3.48996">
        <ele>46</ele>
        <time>2019-07-17T15:20:14Z</time>
      </trkpt>
      <trkpt lat="47.82697" lon="-3.48996">
        <ele>46</ele>
        <time>2019-07-17T15:20:15Z</time>
      </trkpt>
      <trkpt lat="47.82692" lon="-3.48997">
        <ele>46</ele>
        <time>2019-07-17T15:20:16Z</time>
      </trkpt>
      <trkpt lat="47.82686" lon="-3.48998">
        <ele>47</ele>
        <time>2019-07-17T15:20:17Z</time>
      </trkpt>
      <trkpt lat="47.8268" lon="-3.48999">
        <ele>47</ele>
        <time>2019-07-17T15:20:18Z</time>
      </trkpt>
      <trkpt lat="47.82674" lon="-3.49">
        <ele>47</ele>
        <time>2019-07-17T15:20:19Z</time>
      </trkpt>
      <trkpt lat="47.82669" lon="-3.49001">
        <ele>47</ele>
        <time>2019-07-17T15:20:20Z</time>
      </trkpt>
      <trkpt lat="47.82663" lon="-3.49002">
        <ele>47</ele>
        <time>2019-07-17T15:20:21Z</time>
      </trkpt>
      <trkpt lat="47.82657" lon="-3.49003">
        <ele>47</ele>
        <time>2019-07-17T15:20:22Z</time>
      </trkpt>
      <trkpt lat="47.82651" lon="-3.49004">
        <ele>47</ele>
        <time>2019-07-17T15:20:23Z</time>
      </trkpt>
      <trkpt lat="47.82645" lon="-3.49005">
        <ele>47</ele>
        <time>2019-07-17T15:20:24Z</time>
      </trkpt>
      <trkpt lat="47.82639" lon="-3.49006">
        <ele>47</ele>
        <time>2019-07-17T15:20:25Z</time>
      </trkpt>
      <trkpt lat="47.82633" lon="-3.49008">
        <ele>47</ele>
        <time>2019-07-17T15:20:26Z</time>
      </trkpt>
      <trkpt lat="47.82627" lon="-3.49009">
        <ele>48</ele>
        <time>2019-07-17T15:20:27Z</time>
      </trkpt>
      <trkpt lat="47.82621" lon="-3.4901">
        <ele>48</ele>
        <time>2019-07-17T15:20:28Z</time>
      </trkpt>
      <trkpt lat="47.82615" lon="-3.49011">
        <ele>48</ele>
        <time>2019-07-17T15:20:29Z</time>
      </trkpt>
      <trkpt lat="47.8261" lon="-3.49012">
        <ele>48</ele>
        <time>2019-07-17T15:20:30Z</time>
      </trkpt>
      <trkpt lat="47.82604" lon="-3.49012">
        <ele>48</ele>
        <time>2019-07-17T15:20:31Z</time>
      </trkpt>
      <trkpt lat="47.82598" lon="-3.49014">
        <ele>48</ele>
        <time>2019-07-17T15:20:32Z</time>
      </trkpt>
      <trkpt lat="47.82592" lon="-3.49015">
        <ele>48</ele>
        <time>2019-07-17T15:20:33Z</time>
      </trkpt>
      <trkpt lat="47.82586" lon="-3.49016">
        <ele>48</ele>
        <time>2019-07-17T15:20:34Z</time>
      </trkpt>
      <trkpt lat="47.8258" lon="-3.49018">
        <ele>48</ele>
        <time>2019-07-17T15:20:35Z</time>
      </trkpt>
      <trkpt lat="47.82574" lon="-3.49019">
        <ele>48</ele>
        <time>2019-07-17T15:20:36Z</time>
      </trkpt>
      <trkpt lat="47.82568" lon="-3.49021">
        <ele>48</ele>
        <time>2019-07-17T15:20:37Z</time>
      </trkpt>
      <trkpt lat="47.82561" lon="-3.49022">
        <ele>48</ele>
        <time>2019-07-17T15:20:38Z</time>
      </trkpt>
      <trkpt lat="47.82555" lon="-3.49024">
        <ele>48</ele>
        <time>2019-07-17T15:20:39Z</time>
      </trkpt>
      <trkpt lat="47.82549" lon="-3.49026">
        <ele>48</ele>
        <time>2019-07-17T15:20:40Z</time>
      </trkpt>
      <trkpt lat="47.82543" lon="-3.49028">
        <ele>47</ele>
        <time>2019-07-17T15:20:41Z</time>
      </trkpt>
      <trkpt lat="47.82538" lon="-3.49031">
        <ele>47</ele>
        <time>2019-07-17T15:20:42Z</time>
      </trkpt>
      <trkpt lat="47.82532" lon="-3.49034">
        <ele>47</ele>
        <time>2019-07-17T15:20:43Z</time>
      </trkpt>
      <trkpt lat="47.82525" lon="-3.49038">
        <ele>47</ele>
        <time>2019-07-17T15:20:44Z</time>
      </trkpt>
      <trkpt lat="47.82519" lon="-3.49041">
        <ele>47</ele>
        <time>2019-07-17T15:20:45Z</time>
      </trkpt>
      <trkpt lat="47.82512" lon="-3.49045">
        <ele>46</ele>
        <time>2019-07-17T15:20:46Z</time>
      </trkpt>
      <trkpt lat="47.82506" lon="-3.4905">
        <ele>46</ele>
        <time>2019-07-17T15:20:47Z</time>
      </trkpt>
      <trkpt lat="47.82499" lon="-3.49055">
        <ele>46</ele>
        <time>2019-07-17T15:20:48Z</time>
      </trkpt>
      <trkpt lat="47.82486" lon="-3.49067">
        <ele>45</ele>
        <time>2019-07-17T15:20:49Z</time>
      </trkpt>
      <trkpt lat="47.82486" lon="-3.49067">
        <ele>45</ele>
        <time>2019-07-17T15:20:50Z</time>
      </trkpt>
      <trkpt lat="47.82479" lon="-3.49073">
        <ele>45</ele>
        <time>2019-07-17T15:20:51Z</time>
      </trkpt>
      <trkpt lat="47.82472" lon="-3.4908">
        <ele>45</ele>
        <time>2019-07-17T15:20:52Z</time>
      </trkpt>
      <trkpt lat="47.82466" lon="-3.49088">
        <ele>44</ele>
        <time>2019-07-17T15:20:53Z</time>
      </trkpt>
      <trkpt lat="47.8246" lon="-3.49097">
        <ele>44</ele>
        <time>2019-07-17T15:20:54Z</time>
      </trkpt>
      <trkpt lat="47.82454" lon="-3.49106">
        <ele>44</ele>
        <time>2019-07-17T15:20:55Z</time>
      </trkpt>
      <trkpt lat="47.82449" lon="-3.49115">
        <ele>43</ele>
        <time>2019-07-17T15:20:56Z</time>
      </trkpt>
      <trkpt lat="47.82444" lon="-3.49125">
        <ele>43</ele>
        <time>2019-07-17T15:20:57Z</time>
      </trkpt>
      <trkpt lat="47.82441" lon="-3.49136">
        <ele>43</ele>
        <time>2019-07-17T15:20:58Z</time>
      </trkpt>
      <trkpt lat="47.82437" lon="-3.49146">
        <ele>43</ele>
        <time>2019-07-17T15:20:59Z</time>
      </trkpt>
      <trkpt lat="47.82435" lon="-3.49156">
        <ele>43</ele>
        <time>2019-07-17T15:21:00Z</time>
      </trkpt>
      <trkpt lat="47.82433" lon="-3.49167">
        <ele>42</ele>
        <time>2019-07-17T15:21:01Z</time>
      </trkpt>
      <trkpt lat="47.82431" lon="-3.49177">
        <ele>42</ele>
        <time>2019-07-17T15:21:02Z</time>
      </trkpt>
      <trkpt lat="47.82431" lon="-3.49187">
        <ele>42</ele>
        <time>2019-07-17T15:21:03Z</time>
      </trkpt>
      <trkpt lat="47.82431" lon="-3.49198">
        <ele>42</ele>
        <time>2019-07-17T15:21:04Z</time>
      </trkpt>
      <trkpt lat="47.82433" lon="-3.49206">
        <ele>42</ele>
        <time>2019-07-17T15:21:05Z</time>
      </trkpt>
      <trkpt lat="47.82437" lon="-3.49211">
        <ele>42</ele>
        <time>2019-07-17T15:21:06Z</time>
      </trkpt>
      <trkpt lat="47.82442" lon="-3.49213">
        <ele>42</ele>
        <time>2019-07-17T15:21:07Z</time>
      </trkpt>
      <trkpt lat="47.82447" lon="-3.49216">
        <ele>41</ele>
        <time>2019-07-17T15:21:08Z</time>
      </trkpt>
      <trkpt lat="47.82453" lon="-3.49218">
        <ele>41</ele>
        <time>2019-07-17T15:21:09Z</time>
      </trkpt>
      <trkpt lat="47.82458" lon="-3.4922">
        <ele>41</ele>
        <time>2019-07-17T15:21:10Z</time>
      </trkpt>
      <trkpt lat="47.82464" lon="-3.49223">
        <ele>40</ele>
        <time>2019-07-17T15:21:11Z</time>
      </trkpt>
      <trkpt lat="47.82469" lon="-3.49225">
        <ele>40</ele>
        <time>2019-07-17T15:21:12Z</time>
      </trkpt>
      <trkpt lat="47.82475" lon="-3.49229">
        <ele>40</ele>
        <time>2019-07-17T15:21:13Z</time>
      </trkpt>
      <trkpt lat="47.8248" lon="-3.49233">
        <ele>40</ele>
        <time>2019-07-17T15:21:14Z</time>
      </trkpt>
      <trkpt lat="47.82486" lon="-3.49237">
        <ele>39</ele>
        <time>2019-07-17T15:21:15Z</time>
      </trkpt>
      <trkpt lat="47.82491" lon="-3.49241">
        <ele>39</ele>
        <time>2019-07-17T15:21:16Z</time>
      </trkpt>
      <trkpt lat="47.82496" lon="-3.49246">
        <ele>39</ele>
        <time>2019-07-17T15:21:17Z</time>
      </trkpt>
      <trkpt lat="47.82502" lon="-3.49251">
        <ele>38</ele>
        <time>2019-07-17T15:21:18Z</time>
      </trkpt>
      <trkpt lat="47.82507" lon="-3.49256">
        <ele>38</ele>
        <time>2019-07-17T15:21:19Z</time>
      </trkpt>
      <trkpt lat="47.82512" lon="-3.49261">
        <ele>38</ele>
        <time>2019-07-17T15:21:20Z</time>
      </trkpt>
      <trkpt lat="47.82517" lon="-3.49267">
        <ele>38</ele>
        <time>2019-07-17T15:21:21Z</time>
      </trkpt>
      <trkpt lat="47.82522" lon="-3.49273">
        <ele>38</ele>
        <time>2019-07-17T15:21:22Z</time>
      </trkpt>
      <trkpt lat="47.82528" lon="-3.49278">
        <ele>38</ele>
        <time>2019-07-17T15:21:23Z</time>
      </trkpt>
      <trkpt lat="47.82533" lon="-3.49284">
        <ele>38</ele>
        <time>2019-07-17T15:21:24Z</time>
      </trkpt>
      <trkpt lat="47.82538" lon="-3.49291">
        <ele>38</ele>
        <time>2019-07-17T15:21:25Z</time>
      </trkpt>
      <trkpt lat="47.82543" lon="-3.49297">
        <ele>38</ele>
        <time>2019-07-17T15:21:26Z</time>
      </trkpt>
      <trkpt lat="47.82549" lon="-3.49302">
        <ele>38</ele>
        <time>2019-07-17T15:21:27Z</time>
      </trkpt>
      <trkpt lat="47.82554" lon="-3.49308">
        <ele>38</ele>
        <time>2019-07-17T15:21:28Z</time>
      </trkpt>
      <trkpt lat="47.82559" lon="-3.49314">
        <ele>39</ele>
        <time>2019-07-17T15:21:29Z</time>
      </trkpt>
      <trkpt lat="47.82564" lon="-3.4932">
        <ele>39</ele>
        <time>2019-07-17T15:21:30Z</time>
      </trkpt>
      <trkpt lat="47.82569" lon="-3.49325">
        <ele>39</ele>
        <time>2019-07-17T15:21:31Z</time>
      </trkpt>
      <trkpt lat="47.82574" lon="-3.4933">
        <ele>39</ele>
        <time>2019-07-17T15:21:32Z</time>
      </trkpt>
      <trkpt lat="47.82579" lon="-3.49335">
        <ele>40</ele>
        <time>2019-07-17T15:21:33Z</time>
      </trkpt>
      <trkpt lat="47.82584" lon="-3.49341">
        <ele>40</ele>
        <time>2019-07-17T15:21:34Z</time>
      </trkpt>
      <trkpt lat="47.82589" lon="-3.49348">
        <ele>40</ele>
        <time>2019-07-17T15:21:35Z</time>
      </trkpt>
      <trkpt lat="47.82594" lon="-3.49354">
        <ele>40</ele>
        <time>2019-07-17T15:21:36Z</time>
      </trkpt>
      <trkpt lat="47.826" lon="-3.4936">
        <ele>40</ele>
        <time>2019-07-17T15:21:37Z</time>
      </trkpt>
      <trkpt lat="47.82605" lon="-3.49366">
        <ele>40</ele>
        <time>2019-07-17T15:21:38Z</time>
      </trkpt>
      <trkpt lat="47.82609" lon="-3.49372">
        <ele>40</ele>
        <time>2019-07-17T15:21:39Z</time>
      </trkpt>
      <trkpt lat="47.82613" lon="-3.49379">
        <ele>41</ele>
        <time>2019-07-17T15:21:40Z</time>
      </trkpt>
      <trkpt lat="47.82618" lon="-3.49384">
        <ele>41</ele>
        <time>2019-07-17T15:21:41Z</time>
      </trkpt>
      <trkpt lat="47.82623" lon="-3.49389">
        <ele>41</ele>
        <time>2019-07-17T15:21:42Z</time>
      </trkpt>
      <trkpt lat="47.82628" lon="-3.49395">
        <ele>41</ele>
        <time>2019-07-17T15:21:43Z</time>
      </trkpt>
      <trkpt lat="47.82633" lon="-3.49402">
        <ele>41</ele>
        <time>2019-07-17T15:21:44Z</time>
      </trkpt>
      <trkpt lat="47.82638" lon="-3.49408">
        <ele>42</ele>
        <time>2019-07-17T15:21:45Z</time>
      </trkpt>
      <trkpt lat="47.82643" lon="-3.49414">
        <ele>42</ele>
        <time>2019-07-17T15:21:46Z</time>
      </trkpt>
      <trkpt lat="47.82648" lon="-3.49419">
        <ele>42</ele>
        <time>2019-07-17T15:21:47Z</time>
      </trkpt>
      <trkpt lat="47.82653" lon="-3.49425">
        <ele>42</ele>
        <time>2019-07-17T15:21:48Z</time>
      </trkpt>
      <trkpt lat="47.82659" lon="-3.4943">
        <ele>42</ele>
        <time>2019-07-17T15:21:49Z</time>
      </trkpt>
      <trkpt lat="47.82663" lon="-3.49434">
        <ele>43</ele>
        <time>2019-07-17T15:21:50Z</time>
      </trkpt>
      <trkpt lat="47.82668" lon="-3.49439">
        <ele>43</ele>
        <time>2019-07-17T15:21:51Z</time>
      </trkpt>
      <trkpt lat="47.82673" lon="-3.49443">
        <ele>43</ele>
        <time>2019-07-17T15:21:52Z</time>
      </trkpt>
      <trkpt lat="47.82677" lon="-3.49447">
        <ele>43</ele>
        <time>2019-07-17T15:21:53Z</time>
      </trkpt>
      <trkpt lat="47.82682" lon="-3.49452">
        <ele>43</ele>
        <time>2019-07-17T15:21:54Z</time>
      </trkpt>
      <trkpt lat="47.82686" lon="-3.49456">
        <ele>43</ele>
        <time>2019-07-17T15:21:55Z</time>
      </trkpt>
      <trkpt lat="47.82691" lon="-3.49462">
        <ele>43</ele>
        <time>2019-07-17T15:21:56Z</time>
      </trkpt>
      <trkpt lat="47.82695" lon="-3.49468">
        <ele>43</ele>
        <time>2019-07-17T15:21:57Z</time>
      </trkpt>
      <trkpt lat="47.82696" lon="-3.49477">
        <ele>43</ele>
        <time>2019-07-17T15:21:58Z</time>
      </trkpt>
      <trkpt lat="47.82695" lon="-3.49485">
        <ele>43</ele>
        <time>2019-07-17T15:21:59Z</time>
      </trkpt>
      <trkpt lat="47.82693" lon="-3.49492">
        <ele>43</ele>
        <time>2019-07-17T15:22:00Z</time>
      </trkpt>
      <trkpt lat="47.8269" lon="-3.49498">
        <ele>43</ele>
        <time>2019-07-17T15:22:01Z</time>
      </trkpt>
      <trkpt lat="47.82687" lon="-3.49504">
        <ele>43</ele>
        <time>2019-07-17T15:22:02Z</time>
      </trkpt>
      <trkpt lat="47.82684" lon="-3.4951">
        <ele>43</ele>
        <time>2019-07-17T15:22:03Z</time>
      </trkpt>
      <trkpt lat="47.82681" lon="-3.49516">
        <ele>43</ele>
        <time>2019-07-17T15:22:04Z</time>
      </trkpt>
      <trkpt lat="47.82679" lon="-3.49522">
        <ele>43</ele>
        <time>2019-07-17T15:22:05Z</time>
      </trkpt>
      <trkpt lat="47.82676" lon="-3.49527">
        <ele>44</ele>
        <time>2019-07-17T15:22:06Z</time>
      </trkpt>
      <trkpt lat="47.82673" lon="-3.49532">
        <ele>44</ele>
        <time>2019-07-17T15:22:07Z</time>
      </trkpt>
      <trkpt lat="47.82673" lon="-3.49534">
        <ele>44</ele>
        <time>2019-07-17T15:22:08Z</time>
      </trkpt>
      <trkpt lat="47.82672" lon="-3.49534">
        <ele>44</ele>
        <time>2019-07-17T15:22:09Z</time>
      </trkpt>
      <trkpt lat="47.82672" lon="-3.49535">
        <ele>44</ele>
        <time>2019-07-17T15:22:10Z</time>
      </trkpt>
      <trkpt lat="47.82672" lon="-3.49535">
        <ele>44</ele>
        <time>2019-07-17T15:22:11Z</time>
      </trkpt>
      <trkpt lat="47.82672" lon="-3.49535">
        <ele>44</ele>
        <time>2019-07-17T15:22:12Z</time>
      </trkpt>
      <trkpt lat="47.82669" lon="-3.49538">
        <ele>46</ele>
        <time>2019-07-17T15:22:13Z</time>
      </trkpt>
      <trkpt lat="47.82667" lon="-3.49541">
        <ele>46</ele>
        <time>2019-07-17T15:22:14Z</time>
      </trkpt>
      <trkpt lat="47.82666" lon="-3.49544">
        <ele>46</ele>
        <time>2019-07-17T15:22:15Z</time>
      </trkpt>
      <trkpt lat="47.82663" lon="-3.49548">
        <ele>46</ele>
        <time>2019-07-17T15:22:16Z</time>
      </trkpt>
      <trkpt lat="47.82661" lon="-3.49553">
        <ele>46</ele>
        <time>2019-07-17T15:22:17Z</time>
      </trkpt>
      <trkpt lat="47.82658" lon="-3.49558">
        <ele>46</ele>
        <time>2019-07-17T15:22:18Z</time>
      </trkpt>
      <trkpt lat="47.82656" lon="-3.49564">
        <ele>46</ele>
        <time>2019-07-17T15:22:19Z</time>
      </trkpt>
      <trkpt lat="47.82653" lon="-3.4957">
        <ele>46</ele>
        <time>2019-07-17T15:22:20Z</time>
      </trkpt>
      <trkpt lat="47.8265" lon="-3.49576">
        <ele>46</ele>
        <time>2019-07-17T15:22:21Z</time>
      </trkpt>
      <trkpt lat="47.82647" lon="-3.49583">
        <ele>46</ele>
        <time>2019-07-17T15:22:22Z</time>
      </trkpt>
      <trkpt lat="47.82644" lon="-3.49589">
        <ele>46</ele>
        <time>2019-07-17T15:22:23Z</time>
      </trkpt>
      <trkpt lat="47.8264" lon="-3.49595">
        <ele>46</ele>
        <time>2019-07-17T15:22:24Z</time>
      </trkpt>
      <trkpt lat="47.82637" lon="-3.49603">
        <ele>45</ele>
        <time>2019-07-17T15:22:25Z</time>
      </trkpt>
      <trkpt lat="47.82633" lon="-3.49611">
        <ele>45</ele>
        <time>2019-07-17T15:22:26Z</time>
      </trkpt>
      <trkpt lat="47.82629" lon="-3.49619">
        <ele>45</ele>
        <time>2019-07-17T15:22:27Z</time>
      </trkpt>
      <trkpt lat="47.82624" lon="-3.49627">
        <ele>45</ele>
        <time>2019-07-17T15:22:28Z</time>
      </trkpt>
      <trkpt lat="47.8262" lon="-3.49636">
        <ele>44</ele>
        <time>2019-07-17T15:22:29Z</time>
      </trkpt>
      <trkpt lat="47.82616" lon="-3.49644">
        <ele>44</ele>
        <time>2019-07-17T15:22:30Z</time>
      </trkpt>
      <trkpt lat="47.82612" lon="-3.49652">
        <ele>43</ele>
        <time>2019-07-17T15:22:31Z</time>
      </trkpt>
      <trkpt lat="47.82609" lon="-3.49659">
        <ele>43</ele>
        <time>2019-07-17T15:22:32Z</time>
      </trkpt>
      <trkpt lat="47.82605" lon="-3.49667">
        <ele>43</ele>
        <time>2019-07-17T15:22:33Z</time>
      </trkpt>
      <trkpt lat="47.82601" lon="-3.49674">
        <ele>43</ele>
        <time>2019-07-17T15:22:34Z</time>
      </trkpt>
      <trkpt lat="47.82598" lon="-3.49681">
        <ele>43</ele>
        <time>2019-07-17T15:22:35Z</time>
      </trkpt>
      <trkpt lat="47.82595" lon="-3.49688">
        <ele>43</ele>
        <time>2019-07-17T15:22:36Z</time>
      </trkpt>
      <trkpt lat="47.82592" lon="-3.49695">
        <ele>43</ele>
        <time>2019-07-17T15:22:37Z</time>
      </trkpt>
      <trkpt lat="47.82589" lon="-3.49701">
        <ele>43</ele>
        <time>2019-07-17T15:22:38Z</time>
      </trkpt>
      <trkpt lat="47.82586" lon="-3.49708">
        <ele>43</ele>
        <time>2019-07-17T15:22:39Z</time>
      </trkpt>
      <trkpt lat="47.82583" lon="-3.49714">
        <ele>43</ele>
        <time>2019-07-17T15:22:40Z</time>
      </trkpt>
      <trkpt lat="47.8258" lon="-3.4972">
        <ele>43</ele>
        <time>2019-07-17T15:22:41Z</time>
      </trkpt>
      <trkpt lat="47.82578" lon="-3.49725">
        <ele>43</ele>
        <time>2019-07-17T15:22:42Z</time>
      </trkpt>
      <trkpt lat="47.82575" lon="-3.49731">
        <ele>43</ele>
        <time>2019-07-17T15:22:43Z</time>
      </trkpt>
      <trkpt lat="47.82573" lon="-3.49736">
        <ele>44</ele>
        <time>2019-07-17T15:22:44Z</time>
      </trkpt>
      <trkpt lat="47.82571" lon="-3.49741">
        <ele>44</ele>
        <time>2019-07-17T15:22:45Z</time>
      </trkpt>
      <trkpt lat="47.82569" lon="-3.49747">
        <ele>44</ele>
        <time>2019-07-17T15:22:46Z</time>
      </trkpt>
      <trkpt lat="47.82567" lon="-3.49752">
        <ele>44</ele>
        <time>2019-07-17T15:22:47Z</time>
      </trkpt>
      <trkpt lat="47.82564" lon="-3.49757">
        <ele>45</ele>
        <time>2019-07-17T15:22:48Z</time>
      </trkpt>
      <trkpt lat="47.82562" lon="-3.49762">
        <ele>45</ele>
        <time>2019-07-17T15:22:49Z</time>
      </trkpt>
      <trkpt lat="47.82561" lon="-3.49768">
        <ele>45</ele>
        <time>2019-07-17T15:22:50Z</time>
      </trkpt>
      <trkpt lat="47.82559" lon="-3.49774">
        <ele>45</ele>
        <time>2019-07-17T15:22:51Z</time>
      </trkpt>
      <trkpt lat="47.82558" lon="-3.49779">
        <ele>45</ele>
        <time>2019-07-17T15:22:52Z</time>
      </trkpt>
      <trkpt lat="47.82557" lon="-3.49785">
        <ele>45</ele>
        <time>2019-07-17T15:22:53Z</time>
      </trkpt>
      <trkpt lat="47.82556" lon="-3.49791">
        <ele>45</ele>
        <time>2019-07-17T15:22:54Z</time>
      </trkpt>
      <trkpt lat="47.82555" lon="-3.49797">
        <ele>45</ele>
        <time>2019-07-17T15:22:55Z</time>
      </trkpt>
      <trkpt lat="47.82555" lon="-3.49801">
        <ele>46</ele>
        <time>2019-07-17T15:22:56Z</time>
      </trkpt>
      <trkpt lat="47.82554" lon="-3.49805">
        <ele>46</ele>
        <time>2019-07-17T15:22:57Z</time>
      </trkpt>
      <trkpt lat="47.82554" lon="-3.49809">
        <ele>46</ele>
        <time>2019-07-17T15:22:58Z</time>
      </trkpt>
      <trkpt lat="47.82554" lon="-3.4981">
        <ele>46</ele>
        <time>2019-07-17T15:22:59Z</time>
      </trkpt>
      <trkpt lat="47.82554" lon="-3.49811">
        <ele>46</ele>
        <time>2019-07-17T15:23:00Z</time>
      </trkpt>
      <trkpt lat="47.82553" lon="-3.49811">
        <ele>45</ele>
        <time>2019-07-17T15:23:01Z</time>
      </trkpt>
      <trkpt lat="47.82554" lon="-3.49818">
        <ele>45</ele>
        <time>2019-07-17T15:23:02Z</time>
      </trkpt>
      <trkpt lat="47.82553" lon="-3.49821">
        <ele>45</ele>
        <time>2019-07-17T15:23:03Z</time>
      </trkpt>
      <trkpt lat="47.82552" lon="-3.49825">
        <ele>45</ele>
        <time>2019-07-17T15:23:04Z</time>
      </trkpt>
      <trkpt lat="47.82552" lon="-3.49829">
        <ele>45</ele>
        <time>2019-07-17T15:23:05Z</time>
      </trkpt>
      <trkpt lat="47.82551" lon="-3.49833">
        <ele>45</ele>
        <time>2019-07-17T15:23:06Z</time>
      </trkpt>
      <trkpt lat="47.82551" lon="-3.49837">
        <ele>45</ele>
        <time>2019-07-17T15:23:07Z</time>
      </trkpt>
      <trkpt lat="47.82551" lon="-3.49841">
        <ele>45</ele>
        <time>2019-07-17T15:23:08Z</time>
      </trkpt>
      <trkpt lat="47.82551" lon="-3.49846">
        <ele>45</ele>
        <time>2019-07-17T15:23:09Z</time>
      </trkpt>
      <trkpt lat="47.8255" lon="-3.49851">
        <ele>45</ele>
        <time>2019-07-17T15:23:10Z</time>
      </trkpt>
      <trkpt lat="47.8255" lon="-3.49856">
        <ele>45</ele>
        <time>2019-07-17T15:23:11Z</time>
      </trkpt>
      <trkpt lat="47.8255" lon="-3.49862">
        <ele>46</ele>
        <time>2019-07-17T15:23:12Z</time>
      </trkpt>
      <trkpt lat="47.8255" lon="-3.49867">
        <ele>46</ele>
        <time>2019-07-17T15:23:13Z</time>
      </trkpt>
      <trkpt lat="47.82551" lon="-3.49873">
        <ele>46</ele>
        <time>2019-07-17T15:23:14Z</time>
      </trkpt>
      <trkpt lat="47.82551" lon="-3.49879">
        <ele>46</ele>
        <time>2019-07-17T15:23:15Z</time>
      </trkpt>
      <trkpt lat="47.82551" lon="-3.49885">
        <ele>46</ele>
        <time>2019-07-17T15:23:16Z</time>
      </trkpt>
      <trkpt lat="47.82552" lon="-3.49891">
        <ele>46</ele>
        <time>2019-07-17T15:23:17Z</time>
      </trkpt>
      <trkpt lat="47.82552" lon="-3.49897">
        <ele>46</ele>
        <time>2019-07-17T15:23:18Z</time>
      </trkpt>
      <trkpt lat="47.82553" lon="-3.49903">
        <ele>46</ele>
        <time>2019-07-17T15:23:19Z</time>
      </trkpt>
      <trkpt lat="47.82553" lon="-3.4991">
        <ele>46</ele>
        <time>2019-07-17T15:23:20Z</time>
      </trkpt>
      <trkpt lat="47.82554" lon="-3.49916">
        <ele>46</ele>
        <time>2019-07-17T15:23:21Z</time>
      </trkpt>
      <trkpt lat="47.82555" lon="-3.49923">
        <ele>46</ele>
        <time>2019-07-17T15:23:22Z</time>
      </trkpt>
      <trkpt lat="47.82555" lon="-3.49929">
        <ele>46</ele>
        <time>2019-07-17T15:23:23Z</time>
      </trkpt>
      <trkpt lat="47.82556" lon="-3.49936">
        <ele>46</ele>
        <time>2019-07-17T15:23:24Z</time>
      </trkpt>
      <trkpt lat="47.82557" lon="-3.49942">
        <ele>46</ele>
        <time>2019-07-17T15:23:25Z</time>
      </trkpt>
      <trkpt lat="47.82558" lon="-3.49949">
        <ele>46</ele>
        <time>2019-07-17T15:23:26Z</time>
      </trkpt>
      <trkpt lat="47.82559" lon="-3.49956">
        <ele>46</ele>
        <time>2019-07-17T15:23:27Z</time>
      </trkpt>
      <trkpt lat="47.8256" lon="-3.49963">
        <ele>46</ele>
        <time>2019-07-17T15:23:28Z</time>
      </trkpt>
      <trkpt lat="47.82561" lon="-3.4997">
        <ele>46</ele>
        <time>2019-07-17T15:23:29Z</time>
      </trkpt>
      <trkpt lat="47.82562" lon="-3.49978">
        <ele>46</ele>
        <time>2019-07-17T15:23:30Z</time>
      </trkpt>
      <trkpt lat="47.82564" lon="-3.49987">
        <ele>45</ele>
        <time>2019-07-17T15:23:31Z</time>
      </trkpt>
      <trkpt lat="47.82564" lon="-3.49997">
        <ele>45</ele>
        <time>2019-07-17T15:23:32Z</time>
      </trkpt>
      <trkpt lat="47.82563" lon="-3.50006">
        <ele>45</ele>
        <time>2019-07-17T15:23:33Z</time>
      </trkpt>
      <trkpt lat="47.8256" lon="-3.50014">
        <ele>45</ele>
        <time>2019-07-17T15:23:34Z</time>
      </trkpt>
      <trkpt lat="47.82557" lon="-3.50021">
        <ele>45</ele>
        <time>2019-07-17T15:23:35Z</time>
      </trkpt>
      <trkpt lat="47.82554" lon="-3.50026">
        <ele>45</ele>
        <time>2019-07-17T15:23:36Z</time>
      </trkpt>
      <trkpt lat="47.82551" lon="-3.50033">
        <ele>45</ele>
        <time>2019-07-17T15:23:37Z</time>
      </trkpt>
      <trkpt lat="47.82547" lon="-3.50037">
        <ele>45</ele>
        <time>2019-07-17T15:23:38Z</time>
      </trkpt>
      <trkpt lat="47.82543" lon="-3.50039">
        <ele>45</ele>
        <time>2019-07-17T15:23:39Z</time>
      </trkpt>
      <trkpt lat="47.82538" lon="-3.50038">
        <ele>45</ele>
        <time>2019-07-17T15:23:40Z</time>
      </trkpt>
      <trkpt lat="47.82534" lon="-3.50036">
        <ele>45</ele>
        <time>2019-07-17T15:23:41Z</time>
      </trkpt>
      <trkpt lat="47.82529" lon="-3.50033">
        <ele>45</ele>
        <time>2019-07-17T15:23:42Z</time>
      </trkpt>
      <trkpt lat="47.82525" lon="-3.50031">
        <ele>45</ele>
        <time>2019-07-17T15:23:43Z</time>
      </trkpt>
      <trkpt lat="47.82521" lon="-3.50028">
        <ele>45</ele>
        <time>2019-07-17T15:23:44Z</time>
      </trkpt>
      <trkpt lat="47.82516" lon="-3.50026">
        <ele>45</ele>
        <time>2019-07-17T15:23:45Z</time>
      </trkpt>
      <trkpt lat="47.82511" lon="-3.50026">
        <ele>45</ele>
        <time>2019-07-17T15:23:46Z</time>
      </trkpt>
      <trkpt lat="47.82506" lon="-3.50026">
        <ele>44</ele>
        <time>2019-07-17T15:23:47Z</time>
      </trkpt>
      <trkpt lat="47.82502" lon="-3.50027">
        <ele>44</ele>
        <time>2019-07-17T15:23:48Z</time>
      </trkpt>
      <trkpt lat="47.82497" lon="-3.50029">
        <ele>44</ele>
        <time>2019-07-17T15:23:49Z</time>
      </trkpt>
      <trkpt lat="47.82492" lon="-3.50031">
        <ele>44</ele>
        <time>2019-07-17T15:23:50Z</time>
      </trkpt>
      <trkpt lat="47.82487" lon="-3.50033">
        <ele>44</ele>
        <time>2019-07-17T15:23:51Z</time>
      </trkpt>
      <trkpt lat="47.82482" lon="-3.50036">
        <ele>43</ele>
        <time>2019-07-17T15:23:52Z</time>
      </trkpt>
      <trkpt lat="47.82476" lon="-3.50038">
        <ele>43</ele>
        <time>2019-07-17T15:23:53Z</time>
      </trkpt>
      <trkpt lat="47.82471" lon="-3.5004">
        <ele>43</ele>
        <time>2019-07-17T15:23:54Z</time>
      </trkpt>
      <trkpt lat="47.82466" lon="-3.50043">
        <ele>43</ele>
        <time>2019-07-17T15:23:55Z</time>
      </trkpt>
      <trkpt lat="47.8246" lon="-3.50045">
        <ele>42</ele>
        <time>2019-07-17T15:23:56Z</time>
      </trkpt>
      <trkpt lat="47.82455" lon="-3.50047">
        <ele>42</ele>
        <time>2019-07-17T15:23:57Z</time>
      </trkpt>
      <trkpt lat="47.82449" lon="-3.5005">
        <ele>42</ele>
        <time>2019-07-17T15:23:58Z</time>
      </trkpt>
      <trkpt lat="47.82443" lon="-3.50053">
        <ele>42</ele>
        <time>2019-07-17T15:23:59Z</time>
      </trkpt>
      <trkpt lat="47.82438" lon="-3.50055">
        <ele>42</ele>
        <time>2019-07-17T15:24:00Z</time>
      </trkpt>
      <trkpt lat="47.82433" lon="-3.50058">
        <ele>41</ele>
        <time>2019-07-17T15:24:01Z</time>
      </trkpt>
      <trkpt lat="47.82427" lon="-3.5006">
        <ele>41</ele>
        <time>2019-07-17T15:24:02Z</time>
      </trkpt>
      <trkpt lat="47.82421" lon="-3.50062">
        <ele>41</ele>
        <time>2019-07-17T15:24:03Z</time>
      </trkpt>
      <trkpt lat="47.82416" lon="-3.50065">
        <ele>41</ele>
        <time>2019-07-17T15:24:04Z</time>
      </trkpt>
      <trkpt lat="47.82411" lon="-3.50068">
        <ele>41</ele>
        <time>2019-07-17T15:24:05Z</time>
      </trkpt>
      <trkpt lat="47.82406" lon="-3.50072">
        <ele>41</ele>
        <time>2019-07-17T15:24:06Z</time>
      </trkpt>
      <trkpt lat="47.82402" lon="-3.50078">
        <ele>41</ele>
        <time>2019-07-17T15:24:07Z</time>
      </trkpt>
      <trkpt lat="47.824" lon="-3.50085">
        <ele>40</ele>
        <time>2019-07-17T15:24:08Z</time>
      </trkpt>
      <trkpt lat="47.82398" lon="-3.50092">
        <ele>41</ele>
        <time>2019-07-17T15:24:09Z</time>
      </trkpt>
      <trkpt lat="47.82397" lon="-3.501">
        <ele>40</ele>
        <time>2019-07-17T15:24:10Z</time>
      </trkpt>
      <trkpt lat="47.82396" lon="-3.50108">
        <ele>40</ele>
        <time>2019-07-17T15:24:11Z</time>
      </trkpt>
      <trkpt lat="47.82395" lon="-3.50116">
        <ele>40</ele>
        <time>2019-07-17T15:24:12Z</time>
      </trkpt>
      <trkpt lat="47.82394" lon="-3.50125">
        <ele>40</ele>
        <time>2019-07-17T15:24:13Z</time>
      </trkpt>
      <trkpt lat="47.82394" lon="-3.50133">
        <ele>40</ele>
        <time>2019-07-17T15:24:14Z</time>
      </trkpt>
      <trkpt lat="47.82393" lon="-3.50141">
        <ele>40</ele>
        <time>2019-07-17T15:24:15Z</time>
      </trkpt>
      <trkpt lat="47.82393" lon="-3.50148">
        <ele>40</ele>
        <time>2019-07-17T15:24:16Z</time>
      </trkpt>
      <trkpt lat="47.82392" lon="-3.50155">
        <ele>40</ele>
        <time>2019-07-17T15:24:17Z</time>
      </trkpt>
      <trkpt lat="47.82392" lon="-3.5016">
        <ele>40</ele>
        <time>2019-07-17T15:24:18Z</time>
      </trkpt>
      <trkpt lat="47.82392" lon="-3.50162">
        <ele>40</ele>
        <time>2019-07-17T15:24:19Z</time>
      </trkpt>
      <trkpt lat="47.82392" lon="-3.50162">
        <ele>40</ele>
        <time>2019-07-17T15:24:20Z</time>
      </trkpt>
      <trkpt lat="47.82391" lon="-3.50162">
        <ele>40</ele>
        <time>2019-07-17T15:24:21Z</time>
      </trkpt>
      <trkpt lat="47.82391" lon="-3.50162">
        <ele>40</ele>
        <time>2019-07-17T15:24:22Z</time>
      </trkpt>
      <trkpt lat="47.82391" lon="-3.50162">
        <ele>40</ele>
        <time>2019-07-17T15:24:23Z</time>
      </trkpt>
      <trkpt lat="47.82392" lon="-3.50158">
        <ele>40</ele>
        <time>2019-07-17T15:24:24Z</time>
      </trkpt>
      <trkpt lat="47.82392" lon="-3.50155">
        <ele>40</ele>
        <time>2019-07-17T15:24:25Z</time>
      </trkpt>
      <trkpt lat="47.82392" lon="-3.50151">
        <ele>40</ele>
        <time>2019-07-17T15:24:26Z</time>
      </trkpt>
      <trkpt lat="47.82392" lon="-3.50147">
        <ele>40</ele>
        <time>2019-07-17T15:24:27Z</time>
      </trkpt>
      <trkpt lat="47.82392" lon="-3.50142">
        <ele>41</ele>
        <time>2019-07-17T15:24:28Z</time>
      </trkpt>
      <trkpt lat="47.82393" lon="-3.50138">
        <ele>41</ele>
        <time>2019-07-17T15:24:29Z</time>
      </trkpt>
      <trkpt lat="47.82393" lon="-3.50132">
        <ele>41</ele>
        <time>2019-07-17T15:24:30Z</time>
      </trkpt>
      <trkpt lat="47.82394" lon="-3.50127">
        <ele>41</ele>
        <time>2019-07-17T15:24:31Z</time>
      </trkpt>
      <trkpt lat="47.82395" lon="-3.50121">
        <ele>41</ele>
        <time>2019-07-17T15:24:32Z</time>
      </trkpt>
      <trkpt lat="47.82395" lon="-3.50115">
        <ele>41</ele>
        <time>2019-07-17T15:24:33Z</time>
      </trkpt>
      <trkpt lat="47.82395" lon="-3.50109">
        <ele>41</ele>
        <time>2019-07-17T15:24:34Z</time>
      </trkpt>
      <trkpt lat="47.82395" lon="-3.50103">
        <ele>41</ele>
        <time>2019-07-17T15:24:35Z</time>
      </trkpt>
      <trkpt lat="47.82396" lon="-3.50098">
        <ele>41</ele>
        <time>2019-07-17T15:24:36Z</time>
      </trkpt>
      <trkpt lat="47.82397" lon="-3.50092">
        <ele>41</ele>
        <time>2019-07-17T15:24:37Z</time>
      </trkpt>
      <trkpt lat="47.82397" lon="-3.50085">
        <ele>41</ele>
        <time>2019-07-17T15:24:38Z</time>
      </trkpt>
      <trkpt lat="47.82396" lon="-3.50078">
        <ele>41</ele>
        <time>2019-07-17T15:24:39Z</time>
      </trkpt>
      <trkpt lat="47.82393" lon="-3.50073">
        <ele>41</ele>
        <time>2019-07-17T15:24:40Z</time>
      </trkpt>
      <trkpt lat="47.82388" lon="-3.50071">
        <ele>41</ele>
        <time>2019-07-17T15:24:41Z</time>
      </trkpt>
      <trkpt lat="47.82383" lon="-3.50069">
        <ele>41</ele>
        <time>2019-07-17T15:24:42Z</time>
      </trkpt>
      <trkpt lat="47.82378" lon="-3.50067">
        <ele>41</ele>
        <time>2019-07-17T15:24:43Z</time>
      </trkpt>
      <trkpt lat="47.82372" lon="-3.50066">
        <ele>41</ele>
        <time>2019-07-17T15:24:44Z</time>
      </trkpt>
      <trkpt lat="47.82367" lon="-3.50065">
        <ele>41</ele>
        <time>2019-07-17T15:24:45Z</time>
      </trkpt>
      <trkpt lat="47.82361" lon="-3.50064">
        <ele>41</ele>
        <time>2019-07-17T15:24:46Z</time>
      </trkpt>
      <trkpt lat="47.82356" lon="-3.50062">
        <ele>41</ele>
        <time>2019-07-17T15:24:47Z</time>
      </trkpt>
      <trkpt lat="47.8235" lon="-3.50061">
        <ele>41</ele>
        <time>2019-07-17T15:24:48Z</time>
      </trkpt>
      <trkpt lat="47.82345" lon="-3.5006">
        <ele>41</ele>
        <time>2019-07-17T15:24:49Z</time>
      </trkpt>
      <trkpt lat="47.8234" lon="-3.50059">
        <ele>41</ele>
        <time>2019-07-17T15:24:50Z</time>
      </trkpt>
      <trkpt lat="47.82334" lon="-3.50058">
        <ele>41</ele>
        <time>2019-07-17T15:24:51Z</time>
      </trkpt>
      <trkpt lat="47.82329" lon="-3.50057">
        <ele>41</ele>
        <time>2019-07-17T15:24:52Z</time>
      </trkpt>
      <trkpt lat="47.82324" lon="-3.50056">
        <ele>41</ele>
        <time>2019-07-17T15:24:53Z</time>
      </trkpt>
      <trkpt lat="47.82318" lon="-3.50055">
        <ele>41</ele>
        <time>2019-07-17T15:24:54Z</time>
      </trkpt>
      <trkpt lat="47.82312" lon="-3.50053">
        <ele>41</ele>
        <time>2019-07-17T15:24:55Z</time>
      </trkpt>
      <trkpt lat="47.82306" lon="-3.50052">
        <ele>41</ele>
        <time>2019-07-17T15:24:56Z</time>
      </trkpt>
      <trkpt lat="47.82299" lon="-3.50051">
        <ele>41</ele>
        <time>2019-07-17T15:24:57Z</time>
      </trkpt>
      <trkpt lat="47.82293" lon="-3.5005">
        <ele>41</ele>
        <time>2019-07-17T15:24:58Z</time>
      </trkpt>
      <trkpt lat="47.82286" lon="-3.50049">
        <ele>41</ele>
        <time>2019-07-17T15:24:59Z</time>
      </trkpt>
      <trkpt lat="47.82279" lon="-3.50047">
        <ele>40</ele>
        <time>2019-07-17T15:25:00Z</time>
      </trkpt>
      <trkpt lat="47.82272" lon="-3.50046">
        <ele>40</ele>
        <time>2019-07-17T15:25:01Z</time>
      </trkpt>
      <trkpt lat="47.82265" lon="-3.50045">
        <ele>40</ele>
        <time>2019-07-17T15:25:02Z</time>
      </trkpt>
      <trkpt lat="47.82257" lon="-3.50043">
        <ele>40</ele>
        <time>2019-07-17T15:25:03Z</time>
      </trkpt>
      <trkpt lat="47.8225" lon="-3.50041">
        <ele>39</ele>
        <time>2019-07-17T15:25:04Z</time>
      </trkpt>
      <trkpt lat="47.82242" lon="-3.50039">
        <ele>39</ele>
        <time>2019-07-17T15:25:05Z</time>
      </trkpt>
      <trkpt lat="47.82234" lon="-3.50038">
        <ele>38</ele>
        <time>2019-07-17T15:25:06Z</time>
      </trkpt>
      <trkpt lat="47.82226" lon="-3.50037">
        <ele>38</ele>
        <time>2019-07-17T15:25:07Z</time>
      </trkpt>
      <trkpt lat="47.82218" lon="-3.50035">
        <ele>38</ele>
        <time>2019-07-17T15:25:08Z</time>
      </trkpt>
      <trkpt lat="47.82209" lon="-3.50033">
        <ele>37</ele>
        <time>2019-07-17T15:25:09Z</time>
      </trkpt>
      <trkpt lat="47.822" lon="-3.50032">
        <ele>37</ele>
        <time>2019-07-17T15:25:10Z</time>
      </trkpt>
      <trkpt lat="47.82192" lon="-3.5003">
        <ele>36</ele>
        <time>2019-07-17T15:25:11Z</time>
      </trkpt>
      <trkpt lat="47.82183" lon="-3.50029">
        <ele>36</ele>
        <time>2019-07-17T15:25:12Z</time>
      </trkpt>
      <trkpt lat="47.82174" lon="-3.50027">
        <ele>35</ele>
        <time>2019-07-17T15:25:13Z</time>
      </trkpt>
      <trkpt lat="47.82164" lon="-3.50025">
        <ele>35</ele>
        <time>2019-07-17T15:25:14Z</time>
      </trkpt>
      <trkpt lat="47.82155" lon="-3.50023">
        <ele>34</ele>
        <time>2019-07-17T15:25:15Z</time>
      </trkpt>
      <trkpt lat="47.82146" lon="-3.50022">
        <ele>34</ele>
        <time>2019-07-17T15:25:16Z</time>
      </trkpt>
      <trkpt lat="47.82137" lon="-3.5002">
        <ele>34</ele>
        <time>2019-07-17T15:25:17Z</time>
      </trkpt>
      <trkpt lat="47.82128" lon="-3.50018">
        <ele>33</ele>
        <time>2019-07-17T15:25:18Z</time>
      </trkpt>
      <trkpt lat="47.82119" lon="-3.50017">
        <ele>33</ele>
        <time>2019-07-17T15:25:19Z</time>
      </trkpt>
      <trkpt lat="47.82111" lon="-3.50015">
        <ele>33</ele>
        <time>2019-07-17T15:25:20Z</time>
      </trkpt>
      <trkpt lat="47.82102" lon="-3.50013">
        <ele>32</ele>
        <time>2019-07-17T15:25:21Z</time>
      </trkpt>
      <trkpt lat="47.82093" lon="-3.50011">
        <ele>32</ele>
        <time>2019-07-17T15:25:22Z</time>
      </trkpt>
      <trkpt lat="47.82084" lon="-3.5001">
        <ele>32</ele>
        <time>2019-07-17T15:25:23Z</time>
      </trkpt>
      <trkpt lat="47.82075" lon="-3.50008">
        <ele>31</ele>
        <time>2019-07-17T15:25:24Z</time>
      </trkpt>
      <trkpt lat="47.82066" lon="-3.50006">
        <ele>31</ele>
        <time>2019-07-17T15:25:25Z</time>
      </trkpt>
      <trkpt lat="47.82057" lon="-3.50004">
        <ele>31</ele>
        <time>2019-07-17T15:25:26Z</time>
      </trkpt>
      <trkpt lat="47.82049" lon="-3.50002">
        <ele>31</ele>
        <time>2019-07-17T15:25:27Z</time>
      </trkpt>
      <trkpt lat="47.8204" lon="-3.5">
        <ele>30</ele>
        <time>2019-07-17T15:25:28Z</time>
      </trkpt>
      <trkpt lat="47.82031" lon="-3.49999">
        <ele>30</ele>
        <time>2019-07-17T15:25:29Z</time>
      </trkpt>
      <trkpt lat="47.82023" lon="-3.49997">
        <ele>30</ele>
        <time>2019-07-17T15:25:30Z</time>
      </trkpt>
      <trkpt lat="47.82015" lon="-3.49996">
        <ele>30</ele>
        <time>2019-07-17T15:25:31Z</time>
      </trkpt>
      <trkpt lat="47.82007" lon="-3.49994">
        <ele>30</ele>
        <time>2019-07-17T15:25:32Z</time>
      </trkpt>
      <trkpt lat="47.82" lon="-3.49993">
        <ele>30</ele>
        <time>2019-07-17T15:25:33Z</time>
      </trkpt>
      <trkpt lat="47.81993" lon="-3.49992">
        <ele>30</ele>
        <time>2019-07-17T15:25:34Z</time>
      </trkpt>
      <trkpt lat="47.81987" lon="-3.49992">
        <ele>30</ele>
        <time>2019-07-17T15:25:35Z</time>
      </trkpt>
      <trkpt lat="47.81981" lon="-3.49991">
        <ele>31</ele>
        <time>2019-07-17T15:25:36Z</time>
      </trkpt>
      <trkpt lat="47.81975" lon="-3.49991">
        <ele>31</ele>
        <time>2019-07-17T15:25:37Z</time>
      </trkpt>
      <trkpt lat="47.81969" lon="-3.49991">
        <ele>31</ele>
        <time>2019-07-17T15:25:38Z</time>
      </trkpt>
      <trkpt lat="47.81964" lon="-3.49991">
        <ele>31</ele>
        <time>2019-07-17T15:25:39Z</time>
      </trkpt>
      <trkpt lat="47.81958" lon="-3.49992">
        <ele>31</ele>
        <time>2019-07-17T15:25:40Z</time>
      </trkpt>
      <trkpt lat="47.81953" lon="-3.49993">
        <ele>31</ele>
        <time>2019-07-17T15:25:41Z</time>
      </trkpt>
      <trkpt lat="47.81948" lon="-3.49994">
        <ele>31</ele>
        <time>2019-07-17T15:25:42Z</time>
      </trkpt>
      <trkpt lat="47.81944" lon="-3.49996">
        <ele>31</ele>
        <time>2019-07-17T15:25:43Z</time>
      </trkpt>
      <trkpt lat="47.81939" lon="-3.49997">
        <ele>31</ele>
        <time>2019-07-17T15:25:44Z</time>
      </trkpt>
      <trkpt lat="47.81934" lon="-3.49998">
        <ele>31</ele>
        <time>2019-07-17T15:25:45Z</time>
      </trkpt>
      <trkpt lat="47.8193" lon="-3.49999">
        <ele>31</ele>
        <time>2019-07-17T15:25:46Z</time>
      </trkpt>
      <trkpt lat="47.81925" lon="-3.49999">
        <ele>31</ele>
        <time>2019-07-17T15:25:47Z</time>
      </trkpt>
      <trkpt lat="47.81921" lon="-3.5">
        <ele>31</ele>
        <time>2019-07-17T15:25:48Z</time>
      </trkpt>
      <trkpt lat="47.81916" lon="-3.5">
        <ele>31</ele>
        <time>2019-07-17T15:25:49Z</time>
      </trkpt>
      <trkpt lat="47.81911" lon="-3.5">
        <ele>31</ele>
        <time>2019-07-17T15:25:50Z</time>
      </trkpt>
      <trkpt lat="47.81905" lon="-3.50001">
        <ele>31</ele>
        <time>2019-07-17T15:25:51Z</time>
      </trkpt>
      <trkpt lat="47.81901" lon="-3.50001">
        <ele>31</ele>
        <time>2019-07-17T15:25:52Z</time>
      </trkpt>
      <trkpt lat="47.81896" lon="-3.50002">
        <ele>31</ele>
        <time>2019-07-17T15:25:53Z</time>
      </trkpt>
      <trkpt lat="47.81892" lon="-3.50001">
        <ele>31</ele>
        <time>2019-07-17T15:25:54Z</time>
      </trkpt>
      <trkpt lat="47.81887" lon="-3.50001">
        <ele>31</ele>
        <time>2019-07-17T15:25:55Z</time>
      </trkpt>
      <trkpt lat="47.81884" lon="-3.50003">
        <ele>31</ele>
        <time>2019-07-17T15:25:56Z</time>
      </trkpt>
      <trkpt lat="47.81881" lon="-3.50006">
        <ele>31</ele>
        <time>2019-07-17T15:25:57Z</time>
      </trkpt>
      <trkpt lat="47.81878" lon="-3.5001">
        <ele>31</ele>
        <time>2019-07-17T15:25:58Z</time>
      </trkpt>
      <trkpt lat="47.81876" lon="-3.50014">
        <ele>31</ele>
        <time>2019-07-17T15:25:59Z</time>
      </trkpt>
      <trkpt lat="47.81874" lon="-3.50018">
        <ele>31</ele>
        <time>2019-07-17T15:26:00Z</time>
      </trkpt>
      <trkpt lat="47.81872" lon="-3.50022">
        <ele>31</ele>
        <time>2019-07-17T15:26:01Z</time>
      </trkpt>
      <trkpt lat="47.8187" lon="-3.50025">
        <ele>31</ele>
        <time>2019-07-17T15:26:02Z</time>
      </trkpt>
      <trkpt lat="47.81868" lon="-3.50029">
        <ele>31</ele>
        <time>2019-07-17T15:26:03Z</time>
      </trkpt>
      <trkpt lat="47.81866" lon="-3.50032">
        <ele>31</ele>
        <time>2019-07-17T15:26:04Z</time>
      </trkpt>
      <trkpt lat="47.81863" lon="-3.50037">
        <ele>32</ele>
        <time>2019-07-17T15:26:05Z</time>
      </trkpt>
      <trkpt lat="47.81861" lon="-3.50041">
        <ele>32</ele>
        <time>2019-07-17T15:26:06Z</time>
      </trkpt>
      <trkpt lat="47.81859" lon="-3.50046">
        <ele>32</ele>
        <time>2019-07-17T15:26:07Z</time>
      </trkpt>
      <trkpt lat="47.81856" lon="-3.50049">
        <ele>32</ele>
        <time>2019-07-17T15:26:08Z</time>
      </trkpt>
      <trkpt lat="47.81854" lon="-3.50053">
        <ele>32</ele>
        <time>2019-07-17T15:26:09Z</time>
      </trkpt>
      <trkpt lat="47.81852" lon="-3.50057">
        <ele>32</ele>
        <time>2019-07-17T15:26:10Z</time>
      </trkpt>
      <trkpt lat="47.81849" lon="-3.50062">
        <ele>32</ele>
        <time>2019-07-17T15:26:11Z</time>
      </trkpt>
      <trkpt lat="47.81846" lon="-3.50066">
        <ele>32</ele>
        <time>2019-07-17T15:26:12Z</time>
      </trkpt>
      <trkpt lat="47.81843" lon="-3.5007">
        <ele>32</ele>
        <time>2019-07-17T15:26:13Z</time>
      </trkpt>
      <trkpt lat="47.8184" lon="-3.50073">
        <ele>32</ele>
        <time>2019-07-17T15:26:14Z</time>
      </trkpt>
      <trkpt lat="47.81837" lon="-3.50077">
        <ele>33</ele>
        <time>2019-07-17T15:26:15Z</time>
      </trkpt>
      <trkpt lat="47.81833" lon="-3.5008">
        <ele>33</ele>
        <time>2019-07-17T15:26:16Z</time>
      </trkpt>
      <trkpt lat="47.81829" lon="-3.50084">
        <ele>33</ele>
        <time>2019-07-17T15:26:17Z</time>
      </trkpt>
      <trkpt lat="47.81826" lon="-3.50087">
        <ele>33</ele>
        <time>2019-07-17T15:26:18Z</time>
      </trkpt>
      <trkpt lat="47.81822" lon="-3.50091">
        <ele>33</ele>
        <time>2019-07-17T15:26:19Z</time>
      </trkpt>
      <trkpt lat="47.81818" lon="-3.50095">
        <ele>34</ele>
        <time>2019-07-17T15:26:20Z</time>
      </trkpt>
      <trkpt lat="47.81814" lon="-3.50099">
        <ele>34</ele>
        <time>2019-07-17T15:26:21Z</time>
      </trkpt>
      <trkpt lat="47.81811" lon="-3.50103">
        <ele>34</ele>
        <time>2019-07-17T15:26:22Z</time>
      </trkpt>
      <trkpt lat="47.81808" lon="-3.50108">
        <ele>34</ele>
        <time>2019-07-17T15:26:23Z</time>
      </trkpt>
      <trkpt lat="47.81804" lon="-3.50111">
        <ele>34</ele>
        <time>2019-07-17T15:26:24Z</time>
      </trkpt>
      <trkpt lat="47.818" lon="-3.50113">
        <ele>34</ele>
        <time>2019-07-17T15:26:25Z</time>
      </trkpt>
      <trkpt lat="47.81796" lon="-3.50115">
        <ele>35</ele>
        <time>2019-07-17T15:26:26Z</time>
      </trkpt>
      <trkpt lat="47.81793" lon="-3.50115">
        <ele>35</ele>
        <time>2019-07-17T15:26:27Z</time>
      </trkpt>
      <trkpt lat="47.8179" lon="-3.50116">
        <ele>35</ele>
        <time>2019-07-17T15:26:28Z</time>
      </trkpt>
      <trkpt lat="47.81787" lon="-3.50118">
        <ele>35</ele>
        <time>2019-07-17T15:26:29Z</time>
      </trkpt>
      <trkpt lat="47.81784" lon="-3.50121">
        <ele>35</ele>
        <time>2019-07-17T15:26:30Z</time>
      </trkpt>
      <trkpt lat="47.8178" lon="-3.50124">
        <ele>35</ele>
        <time>2019-07-17T15:26:31Z</time>
      </trkpt>
      <trkpt lat="47.81778" lon="-3.50127">
        <ele>36</ele>
        <time>2019-07-17T15:26:32Z</time>
      </trkpt>
      <trkpt lat="47.81774" lon="-3.50131">
        <ele>36</ele>
        <time>2019-07-17T15:26:33Z</time>
      </trkpt>
      <trkpt lat="47.81771" lon="-3.50133">
        <ele>36</ele>
        <time>2019-07-17T15:26:34Z</time>
      </trkpt>
      <trkpt lat="47.81768" lon="-3.50137">
        <ele>36</ele>
        <time>2019-07-17T15:26:35Z</time>
      </trkpt>
      <trkpt lat="47.81764" lon="-3.50141">
        <ele>37</ele>
        <time>2019-07-17T15:26:36Z</time>
      </trkpt>
      <trkpt lat="47.81761" lon="-3.50145">
        <ele>37</ele>
        <time>2019-07-17T15:26:37Z</time>
      </trkpt>
      <trkpt lat="47.81759" lon="-3.50149">
        <ele>37</ele>
        <time>2019-07-17T15:26:38Z</time>
      </trkpt>
      <trkpt lat="47.81757" lon="-3.50154">
        <ele>37</ele>
        <time>2019-07-17T15:26:39Z</time>
      </trkpt>
      <trkpt lat="47.81754" lon="-3.50158">
        <ele>38</ele>
        <time>2019-07-17T15:26:40Z</time>
      </trkpt>
      <trkpt lat="47.81752" lon="-3.50163">
        <ele>38</ele>
        <time>2019-07-17T15:26:41Z</time>
      </trkpt>
      <trkpt lat="47.8175" lon="-3.50168">
        <ele>38</ele>
        <time>2019-07-17T15:26:42Z</time>
      </trkpt>
      <trkpt lat="47.81747" lon="-3.50174">
        <ele>38</ele>
        <time>2019-07-17T15:26:43Z</time>
      </trkpt>
      <trkpt lat="47.81745" lon="-3.5018">
        <ele>39</ele>
        <time>2019-07-17T15:26:44Z</time>
      </trkpt>
      <trkpt lat="47.81743" lon="-3.50186">
        <ele>39</ele>
        <time>2019-07-17T15:26:45Z</time>
      </trkpt>
      <trkpt lat="47.81741" lon="-3.50192">
        <ele>39</ele>
        <time>2019-07-17T15:26:46Z</time>
      </trkpt>
      <trkpt lat="47.81739" lon="-3.50198">
        <ele>39</ele>
        <time>2019-07-17T15:26:47Z</time>
      </trkpt>
      <trkpt lat="47.81737" lon="-3.50206">
        <ele>39</ele>
        <time>2019-07-17T15:26:48Z</time>
      </trkpt>
      <trkpt lat="47.81736" lon="-3.50213">
        <ele>40</ele>
        <time>2019-07-17T15:26:49Z</time>
      </trkpt>
      <trkpt lat="47.81736" lon="-3.5022">
        <ele>40</ele>
        <time>2019-07-17T15:26:50Z</time>
      </trkpt>
      <trkpt lat="47.81736" lon="-3.50226">
        <ele>40</ele>
        <time>2019-07-17T15:26:51Z</time>
      </trkpt>
      <trkpt lat="47.81735" lon="-3.50233">
        <ele>40</ele>
        <time>2019-07-17T15:26:52Z</time>
      </trkpt>
      <trkpt lat="47.81733" lon="-3.50237">
        <ele>40</ele>
        <time>2019-07-17T15:26:53Z</time>
      </trkpt>
      <trkpt lat="47.81732" lon="-3.50243">
        <ele>40</ele>
        <time>2019-07-17T15:26:54Z</time>
      </trkpt>
      <trkpt lat="47.81731" lon="-3.50247">
        <ele>40</ele>
        <time>2019-07-17T15:26:55Z</time>
      </trkpt>
      <trkpt lat="47.8173" lon="-3.50253">
        <ele>40</ele>
        <time>2019-07-17T15:26:56Z</time>
      </trkpt>
      <trkpt lat="47.8173" lon="-3.50259">
        <ele>40</ele>
        <time>2019-07-17T15:26:57Z</time>
      </trkpt>
      <trkpt lat="47.81729" lon="-3.50264">
        <ele>40</ele>
        <time>2019-07-17T15:26:58Z</time>
      </trkpt>
      <trkpt lat="47.81727" lon="-3.50268">
        <ele>41</ele>
        <time>2019-07-17T15:26:59Z</time>
      </trkpt>
      <trkpt lat="47.81725" lon="-3.50272">
        <ele>41</ele>
        <time>2019-07-17T15:27:00Z</time>
      </trkpt>
      <trkpt lat="47.81722" lon="-3.50275">
        <ele>41</ele>
        <time>2019-07-17T15:27:01Z</time>
      </trkpt>
      <trkpt lat="47.81719" lon="-3.50279">
        <ele>41</ele>
        <time>2019-07-17T15:27:02Z</time>
      </trkpt>
      <trkpt lat="47.81716" lon="-3.50285">
        <ele>41</ele>
        <time>2019-07-17T15:27:03Z</time>
      </trkpt>
      <trkpt lat="47.81713" lon="-3.5029">
        <ele>42</ele>
        <time>2019-07-17T15:27:04Z</time>
      </trkpt>
      <trkpt lat="47.8171" lon="-3.50296">
        <ele>42</ele>
        <time>2019-07-17T15:27:05Z</time>
      </trkpt>
      <trkpt lat="47.81707" lon="-3.50302">
        <ele>42</ele>
        <time>2019-07-17T15:27:06Z</time>
      </trkpt>
      <trkpt lat="47.81704" lon="-3.50309">
        <ele>42</ele>
        <time>2019-07-17T15:27:07Z</time>
      </trkpt>
      <trkpt lat="47.81701" lon="-3.50315">
        <ele>42</ele>
        <time>2019-07-17T15:27:08Z</time>
      </trkpt>
      <trkpt lat="47.81699" lon="-3.50322">
        <ele>43</ele>
        <time>2019-07-17T15:27:09Z</time>
      </trkpt>
      <trkpt lat="47.81699" lon="-3.5033">
        <ele>43</ele>
        <time>2019-07-17T15:27:10Z</time>
      </trkpt>
      <trkpt lat="47.81699" lon="-3.50339">
        <ele>43</ele>
        <time>2019-07-17T15:27:11Z</time>
      </trkpt>
      <trkpt lat="47.81699" lon="-3.50346">
        <ele>43</ele>
        <time>2019-07-17T15:27:12Z</time>
      </trkpt>
      <trkpt lat="47.81698" lon="-3.50352">
        <ele>43</ele>
        <time>2019-07-17T15:27:13Z</time>
      </trkpt>
      <trkpt lat="47.81697" lon="-3.50356">
        <ele>43</ele>
        <time>2019-07-17T15:27:14Z</time>
      </trkpt>
      <trkpt lat="47.81695" lon="-3.50359">
        <ele>44</ele>
        <time>2019-07-17T15:27:15Z</time>
      </trkpt>
      <trkpt lat="47.81691" lon="-3.50362">
        <ele>44</ele>
        <time>2019-07-17T15:27:16Z</time>
      </trkpt>
      <trkpt lat="47.81687" lon="-3.50368">
        <ele>44</ele>
        <time>2019-07-17T15:27:17Z</time>
      </trkpt>
      <trkpt lat="47.81684" lon="-3.50374">
        <ele>45</ele>
        <time>2019-07-17T15:27:18Z</time>
      </trkpt>
      <trkpt lat="47.81681" lon="-3.5038">
        <ele>45</ele>
        <time>2019-07-17T15:27:19Z</time>
      </trkpt>
      <trkpt lat="47.81679" lon="-3.50386">
        <ele>45</ele>
        <time>2019-07-17T15:27:20Z</time>
      </trkpt>
      <trkpt lat="47.81677" lon="-3.50394">
        <ele>45</ele>
        <time>2019-07-17T15:27:21Z</time>
      </trkpt>
      <trkpt lat="47.81675" lon="-3.50401">
        <ele>45</ele>
        <time>2019-07-17T15:27:22Z</time>
      </trkpt>
      <trkpt lat="47.81674" lon="-3.5041">
        <ele>45</ele>
        <time>2019-07-17T15:27:23Z</time>
      </trkpt>
      <trkpt lat="47.81672" lon="-3.50417">
        <ele>46</ele>
        <time>2019-07-17T15:27:24Z</time>
      </trkpt>
      <trkpt lat="47.8167" lon="-3.50425">
        <ele>46</ele>
        <time>2019-07-17T15:27:25Z</time>
      </trkpt>
      <trkpt lat="47.81669" lon="-3.50433">
        <ele>46</ele>
        <time>2019-07-17T15:27:26Z</time>
      </trkpt>
      <trkpt lat="47.81668" lon="-3.5044">
        <ele>45</ele>
        <time>2019-07-17T15:27:27Z</time>
      </trkpt>
      <trkpt lat="47.81667" lon="-3.50447">
        <ele>45</ele>
        <time>2019-07-17T15:27:28Z</time>
      </trkpt>
      <trkpt lat="47.81665" lon="-3.50456">
        <ele>45</ele>
        <time>2019-07-17T15:27:29Z</time>
      </trkpt>
      <trkpt lat="47.81662" lon="-3.50464">
        <ele>45</ele>
        <time>2019-07-17T15:27:30Z</time>
      </trkpt>
      <trkpt lat="47.8166" lon="-3.50473">
        <ele>44</ele>
        <time>2019-07-17T15:27:31Z</time>
      </trkpt>
      <trkpt lat="47.81658" lon="-3.50482">
        <ele>44</ele>
        <time>2019-07-17T15:27:32Z</time>
      </trkpt>
      <trkpt lat="47.81656" lon="-3.50492">
        <ele>44</ele>
        <time>2019-07-17T15:27:33Z</time>
      </trkpt>
      <trkpt lat="47.81655" lon="-3.50501">
        <ele>43</ele>
        <time>2019-07-17T15:27:34Z</time>
      </trkpt>
      <trkpt lat="47.81653" lon="-3.50511">
        <ele>43</ele>
        <time>2019-07-17T15:27:35Z</time>
      </trkpt>
      <trkpt lat="47.81651" lon="-3.5052">
        <ele>42</ele>
        <time>2019-07-17T15:27:36Z</time>
      </trkpt>
      <trkpt lat="47.81649" lon="-3.50529">
        <ele>42</ele>
        <time>2019-07-17T15:27:37Z</time>
      </trkpt>
      <trkpt lat="47.81647" lon="-3.50538">
        <ele>42</ele>
        <time>2019-07-17T15:27:38Z</time>
      </trkpt>
      <trkpt lat="47.81646" lon="-3.50548">
        <ele>41</ele>
        <time>2019-07-17T15:27:39Z</time>
      </trkpt>
      <trkpt lat="47.81644" lon="-3.50557">
        <ele>41</ele>
        <time>2019-07-17T15:27:40Z</time>
      </trkpt>
      <trkpt lat="47.81642" lon="-3.50567">
        <ele>40</ele>
        <time>2019-07-17T15:27:41Z</time>
      </trkpt>
      <trkpt lat="47.8164" lon="-3.50576">
        <ele>40</ele>
        <time>2019-07-17T15:27:42Z</time>
      </trkpt>
      <trkpt lat="47.81639" lon="-3.50585">
        <ele>39</ele>
        <time>2019-07-17T15:27:43Z</time>
      </trkpt>
      <trkpt lat="47.81637" lon="-3.50595">
        <ele>39</ele>
        <time>2019-07-17T15:27:44Z</time>
      </trkpt>
      <trkpt lat="47.81636" lon="-3.50604">
        <ele>39</ele>
        <time>2019-07-17T15:27:45Z</time>
      </trkpt>
      <trkpt lat="47.81634" lon="-3.50613">
        <ele>38</ele>
        <time>2019-07-17T15:27:46Z</time>
      </trkpt>
      <trkpt lat="47.81633" lon="-3.50621">
        <ele>38</ele>
        <time>2019-07-17T15:27:47Z</time>
      </trkpt>
      <trkpt lat="47.81631" lon="-3.5063">
        <ele>37</ele>
        <time>2019-07-17T15:27:48Z</time>
      </trkpt>
      <trkpt lat="47.81629" lon="-3.50638">
        <ele>37</ele>
        <time>2019-07-17T15:27:49Z</time>
      </trkpt>
      <trkpt lat="47.81628" lon="-3.50646">
        <ele>37</ele>
        <time>2019-07-17T15:27:50Z</time>
      </trkpt>
      <trkpt lat="47.81626" lon="-3.50654">
        <ele>36</ele>
        <time>2019-07-17T15:27:51Z</time>
      </trkpt>
      <trkpt lat="47.81624" lon="-3.50662">
        <ele>36</ele>
        <time>2019-07-17T15:27:52Z</time>
      </trkpt>
      <trkpt lat="47.81622" lon="-3.5067">
        <ele>36</ele>
        <time>2019-07-17T15:27:53Z</time>
      </trkpt>
      <trkpt lat="47.8162" lon="-3.50679">
        <ele>35</ele>
        <time>2019-07-17T15:27:54Z</time>
      </trkpt>
      <trkpt lat="47.81618" lon="-3.50687">
        <ele>35</ele>
        <time>2019-07-17T15:27:55Z</time>
      </trkpt>
      <trkpt lat="47.81615" lon="-3.50696">
        <ele>34</ele>
        <time>2019-07-17T15:27:56Z</time>
      </trkpt>
      <trkpt lat="47.81612" lon="-3.50703">
        <ele>34</ele>
        <time>2019-07-17T15:27:57Z</time>
      </trkpt>
      <trkpt lat="47.81608" lon="-3.5071">
        <ele>34</ele>
        <time>2019-07-17T15:27:58Z</time>
      </trkpt>
      <trkpt lat="47.81605" lon="-3.50717">
        <ele>34</ele>
        <time>2019-07-17T15:27:59Z</time>
      </trkpt>
      <trkpt lat="47.81601" lon="-3.50724">
        <ele>33</ele>
        <time>2019-07-17T15:28:00Z</time>
      </trkpt>
      <trkpt lat="47.81597" lon="-3.50731">
        <ele>33</ele>
        <time>2019-07-17T15:28:01Z</time>
      </trkpt>
      <trkpt lat="47.81593" lon="-3.50737">
        <ele>33</ele>
        <time>2019-07-17T15:28:02Z</time>
      </trkpt>
      <trkpt lat="47.81589" lon="-3.50743">
        <ele>33</ele>
        <time>2019-07-17T15:28:03Z</time>
      </trkpt>
      <trkpt lat="47.81586" lon="-3.5075">
        <ele>33</ele>
        <time>2019-07-17T15:28:04Z</time>
      </trkpt>
      <trkpt lat="47.81581" lon="-3.50756">
        <ele>33</ele>
        <time>2019-07-17T15:28:05Z</time>
      </trkpt>
      <trkpt lat="47.81577" lon="-3.50762">
        <ele>33</ele>
        <time>2019-07-17T15:28:06Z</time>
      </trkpt>
      <trkpt lat="47.81573" lon="-3.50768">
        <ele>32</ele>
        <time>2019-07-17T15:28:07Z</time>
      </trkpt>
      <trkpt lat="47.81569" lon="-3.50774">
        <ele>32</ele>
        <time>2019-07-17T15:28:08Z</time>
      </trkpt>
      <trkpt lat="47.81565" lon="-3.5078">
        <ele>32</ele>
        <time>2019-07-17T15:28:09Z</time>
      </trkpt>
      <trkpt lat="47.81561" lon="-3.50786">
        <ele>32</ele>
        <time>2019-07-17T15:28:10Z</time>
      </trkpt>
      <trkpt lat="47.81557" lon="-3.50793">
        <ele>32</ele>
        <time>2019-07-17T15:28:11Z</time>
      </trkpt>
      <trkpt lat="47.81553" lon="-3.50799">
        <ele>32</ele>
        <time>2019-07-17T15:28:12Z</time>
      </trkpt>
      <trkpt lat="47.81548" lon="-3.50805">
        <ele>32</ele>
        <time>2019-07-17T15:28:13Z</time>
      </trkpt>
      <trkpt lat="47.81544" lon="-3.50811">
        <ele>32</ele>
        <time>2019-07-17T15:28:14Z</time>
      </trkpt>
      <trkpt lat="47.81539" lon="-3.50817">
        <ele>32</ele>
        <time>2019-07-17T15:28:15Z</time>
      </trkpt>
      <trkpt lat="47.81534" lon="-3.50822">
        <ele>31</ele>
        <time>2019-07-17T15:28:16Z</time>
      </trkpt>
      <trkpt lat="47.8153" lon="-3.50828">
        <ele>31</ele>
        <time>2019-07-17T15:28:17Z</time>
      </trkpt>
      <trkpt lat="47.81525" lon="-3.50833">
        <ele>31</ele>
        <time>2019-07-17T15:28:18Z</time>
      </trkpt>
      <trkpt lat="47.8152" lon="-3.50838">
        <ele>31</ele>
        <time>2019-07-17T15:28:19Z</time>
      </trkpt>
      <trkpt lat="47.81515" lon="-3.50843">
        <ele>31</ele>
        <time>2019-07-17T15:28:20Z</time>
      </trkpt>
      <trkpt lat="47.8151" lon="-3.50848">
        <ele>30</ele>
        <time>2019-07-17T15:28:21Z</time>
      </trkpt>
      <trkpt lat="47.81505" lon="-3.50853">
        <ele>30</ele>
        <time>2019-07-17T15:28:22Z</time>
      </trkpt>
      <trkpt lat="47.815" lon="-3.50857">
        <ele>30</ele>
        <time>2019-07-17T15:28:23Z</time>
      </trkpt>
      <trkpt lat="47.81495" lon="-3.5086">
        <ele>30</ele>
        <time>2019-07-17T15:28:24Z</time>
      </trkpt>
      <trkpt lat="47.8149" lon="-3.50864">
        <ele>30</ele>
        <time>2019-07-17T15:28:25Z</time>
      </trkpt>
      <trkpt lat="47.81485" lon="-3.50868">
        <ele>30</ele>
        <time>2019-07-17T15:28:26Z</time>
      </trkpt>
      <trkpt lat="47.81481" lon="-3.5087">
        <ele>30</ele>
        <time>2019-07-17T15:28:27Z</time>
      </trkpt>
      <trkpt lat="47.81477" lon="-3.50873">
        <ele>30</ele>
        <time>2019-07-17T15:28:28Z</time>
      </trkpt>
      <trkpt lat="47.81472" lon="-3.50874">
        <ele>30</ele>
        <time>2019-07-17T15:28:29Z</time>
      </trkpt>
      <trkpt lat="47.81468" lon="-3.50874">
        <ele>30</ele>
        <time>2019-07-17T15:28:30Z</time>
      </trkpt>
      <trkpt lat="47.81463" lon="-3.50873">
        <ele>30</ele>
        <time>2019-07-17T15:28:31Z</time>
      </trkpt>
      <trkpt lat="47.81458" lon="-3.50872">
        <ele>30</ele>
        <time>2019-07-17T15:28:32Z</time>
      </trkpt>
      <trkpt lat="47.81453" lon="-3.5087">
        <ele>30</ele>
        <time>2019-07-17T15:28:33Z</time>
      </trkpt>
      <trkpt lat="47.81448" lon="-3.50869">
        <ele>30</ele>
        <time>2019-07-17T15:28:34Z</time>
      </trkpt>
      <trkpt lat="47.81443" lon="-3.50868">
        <ele>30</ele>
        <time>2019-07-17T15:28:35Z</time>
      </trkpt>
      <trkpt lat="47.81439" lon="-3.50867">
        <ele>30</ele>
        <time>2019-07-17T15:28:36Z</time>
      </trkpt>
      <trkpt lat="47.81434" lon="-3.50865">
        <ele>30</ele>
        <time>2019-07-17T15:28:37Z</time>
      </trkpt>
      <trkpt lat="47.81429" lon="-3.50864">
        <ele>30</ele>
        <time>2019-07-17T15:28:38Z</time>
      </trkpt>
      <trkpt lat="47.81425" lon="-3.50862">
        <ele>30</ele>
        <time>2019-07-17T15:28:39Z</time>
      </trkpt>
      <trkpt lat="47.81421" lon="-3.5086">
        <ele>30</ele>
        <time>2019-07-17T15:28:40Z</time>
      </trkpt>
      <trkpt lat="47.81417" lon="-3.50859">
        <ele>30</ele>
        <time>2019-07-17T15:28:41Z</time>
      </trkpt>
      <trkpt lat="47.81414" lon="-3.50857">
        <ele>30</ele>
        <time>2019-07-17T15:28:42Z</time>
      </trkpt>
      <trkpt lat="47.8141" lon="-3.50856">
        <ele>30</ele>
        <time>2019-07-17T15:28:43Z</time>
      </trkpt>
      <trkpt lat="47.81406" lon="-3.50855">
        <ele>30</ele>
        <time>2019-07-17T15:28:44Z</time>
      </trkpt>
      <trkpt lat="47.81403" lon="-3.50853">
        <ele>30</ele>
        <time>2019-07-17T15:28:45Z</time>
      </trkpt>
      <trkpt lat="47.81399" lon="-3.50851">
        <ele>30</ele>
        <time>2019-07-17T15:28:46Z</time>
      </trkpt>
      <trkpt lat="47.81395" lon="-3.50849">
        <ele>30</ele>
        <time>2019-07-17T15:28:47Z</time>
      </trkpt>
      <trkpt lat="47.81392" lon="-3.50846">
        <ele>30</ele>
        <time>2019-07-17T15:28:48Z</time>
      </trkpt>
      <trkpt lat="47.81388" lon="-3.50842">
        <ele>30</ele>
        <time>2019-07-17T15:28:49Z</time>
      </trkpt>
      <trkpt lat="47.81384" lon="-3.50839">
        <ele>30</ele>
        <time>2019-07-17T15:28:50Z</time>
      </trkpt>
      <trkpt lat="47.8138" lon="-3.50836">
        <ele>30</ele>
        <time>2019-07-17T15:28:51Z</time>
      </trkpt>
      <trkpt lat="47.81377" lon="-3.50832">
        <ele>30</ele>
        <time>2019-07-17T15:28:52Z</time>
      </trkpt>
      <trkpt lat="47.81373" lon="-3.50828">
        <ele>30</ele>
        <time>2019-07-17T15:28:53Z</time>
      </trkpt>
      <trkpt lat="47.81369" lon="-3.50825">
        <ele>30</ele>
        <time>2019-07-17T15:28:54Z</time>
      </trkpt>
      <trkpt lat="47.81366" lon="-3.50821">
        <ele>30</ele>
        <time>2019-07-17T15:28:55Z</time>
      </trkpt>
      <trkpt lat="47.81362" lon="-3.50817">
        <ele>30</ele>
        <time>2019-07-17T15:28:56Z</time>
      </trkpt>
      <trkpt lat="47.81358" lon="-3.50813">
        <ele>30</ele>
        <time>2019-07-17T15:28:57Z</time>
      </trkpt>
      <trkpt lat="47.81354" lon="-3.50809">
        <ele>30</ele>
        <time>2019-07-17T15:28:58Z</time>
      </trkpt>
      <trkpt lat="47.81351" lon="-3.50804">
        <ele>31</ele>
        <time>2019-07-17T15:28:59Z</time>
      </trkpt>
      <trkpt lat="47.81347" lon="-3.508">
        <ele>31</ele>
        <time>2019-07-17T15:29:00Z</time>
      </trkpt>
      <trkpt lat="47.81344" lon="-3.50796">
        <ele>31</ele>
        <time>2019-07-17T15:29:01Z</time>
      </trkpt>
      <trkpt lat="47.8134" lon="-3.50792">
        <ele>31</ele>
        <time>2019-07-17T15:29:02Z</time>
      </trkpt>
      <trkpt lat="47.81337" lon="-3.50788">
        <ele>31</ele>
        <time>2019-07-17T15:29:03Z</time>
      </trkpt>
      <trkpt lat="47.81334" lon="-3.50784">
        <ele>31</ele>
        <time>2019-07-17T15:29:04Z</time>
      </trkpt>
      <trkpt lat="47.81331" lon="-3.5078">
        <ele>31</ele>
        <time>2019-07-17T15:29:05Z</time>
      </trkpt>
      <trkpt lat="47.81328" lon="-3.50777">
        <ele>31</ele>
        <time>2019-07-17T15:29:06Z</time>
      </trkpt>
      <trkpt lat="47.81324" lon="-3.50775">
        <ele>31</ele>
        <time>2019-07-17T15:29:07Z</time>
      </trkpt>
      <trkpt lat="47.81321" lon="-3.50772">
        <ele>31</ele>
        <time>2019-07-17T15:29:08Z</time>
      </trkpt>
      <trkpt lat="47.81317" lon="-3.50769">
        <ele>31</ele>
        <time>2019-07-17T15:29:09Z</time>
      </trkpt>
      <trkpt lat="47.81313" lon="-3.50767">
        <ele>31</ele>
        <time>2019-07-17T15:29:10Z</time>
      </trkpt>
      <trkpt lat="47.81309" lon="-3.50765">
        <ele>31</ele>
        <time>2019-07-17T15:29:11Z</time>
      </trkpt>
      <trkpt lat="47.81304" lon="-3.50762">
        <ele>31</ele>
        <time>2019-07-17T15:29:12Z</time>
      </trkpt>
      <trkpt lat="47.81299" lon="-3.50759">
        <ele>31</ele>
        <time>2019-07-17T15:29:13Z</time>
      </trkpt>
      <trkpt lat="47.81295" lon="-3.50754">
        <ele>30</ele>
        <time>2019-07-17T15:29:14Z</time>
      </trkpt>
      <trkpt lat="47.81291" lon="-3.50749">
        <ele>30</ele>
        <time>2019-07-17T15:29:15Z</time>
      </trkpt>
      <trkpt lat="47.81288" lon="-3.50743">
        <ele>30</ele>
        <time>2019-07-17T15:29:16Z</time>
      </trkpt>
      <trkpt lat="47.81284" lon="-3.50738">
        <ele>30</ele>
        <time>2019-07-17T15:29:17Z</time>
      </trkpt>
      <trkpt lat="47.8128" lon="-3.50733">
        <ele>30</ele>
        <time>2019-07-17T15:29:18Z</time>
      </trkpt>
      <trkpt lat="47.81275" lon="-3.50727">
        <ele>30</ele>
        <time>2019-07-17T15:29:19Z</time>
      </trkpt>
      <trkpt lat="47.81271" lon="-3.50722">
        <ele>29</ele>
        <time>2019-07-17T15:29:20Z</time>
      </trkpt>
      <trkpt lat="47.81267" lon="-3.50716">
        <ele>29</ele>
        <time>2019-07-17T15:29:21Z</time>
      </trkpt>
      <trkpt lat="47.81263" lon="-3.50711">
        <ele>29</ele>
        <time>2019-07-17T15:29:22Z</time>
      </trkpt>
      <trkpt lat="47.81258" lon="-3.50705">
        <ele>29</ele>
        <time>2019-07-17T15:29:23Z</time>
      </trkpt>
      <trkpt lat="47.81254" lon="-3.50699">
        <ele>29</ele>
        <time>2019-07-17T15:29:24Z</time>
      </trkpt>
      <trkpt lat="47.81248" lon="-3.50693">
        <ele>29</ele>
        <time>2019-07-17T15:29:25Z</time>
      </trkpt>
      <trkpt lat="47.81243" lon="-3.50687">
        <ele>29</ele>
        <time>2019-07-17T15:29:26Z</time>
      </trkpt>
      <trkpt lat="47.81238" lon="-3.50682">
        <ele>29</ele>
        <time>2019-07-17T15:29:27Z</time>
      </trkpt>
      <trkpt lat="47.81232" lon="-3.50675">
        <ele>28</ele>
        <time>2019-07-17T15:29:28Z</time>
      </trkpt>
      <trkpt lat="47.81227" lon="-3.50669">
        <ele>28</ele>
        <time>2019-07-17T15:29:29Z</time>
      </trkpt>
      <trkpt lat="47.81221" lon="-3.50663">
        <ele>28</ele>
        <time>2019-07-17T15:29:30Z</time>
      </trkpt>
      <trkpt lat="47.81215" lon="-3.50657">
        <ele>28</ele>
        <time>2019-07-17T15:29:31Z</time>
      </trkpt>
      <trkpt lat="47.81209" lon="-3.5065">
        <ele>28</ele>
        <time>2019-07-17T15:29:32Z</time>
      </trkpt>
      <trkpt lat="47.81203" lon="-3.50644">
        <ele>28</ele>
        <time>2019-07-17T15:29:33Z</time>
      </trkpt>
      <trkpt lat="47.81198" lon="-3.50639">
        <ele>28</ele>
        <time>2019-07-17T15:29:34Z</time>
      </trkpt>
      <trkpt lat="47.81192" lon="-3.50633">
        <ele>28</ele>
        <time>2019-07-17T15:29:35Z</time>
      </trkpt>
      <trkpt lat="47.81186" lon="-3.50627">
        <ele>28</ele>
        <time>2019-07-17T15:29:36Z</time>
      </trkpt>
      <trkpt lat="47.81181" lon="-3.50621">
        <ele>28</ele>
        <time>2019-07-17T15:29:37Z</time>
      </trkpt>
      <trkpt lat="47.81175" lon="-3.50614">
        <ele>27</ele>
        <time>2019-07-17T15:29:38Z</time>
      </trkpt>
      <trkpt lat="47.8117" lon="-3.50608">
        <ele>27</ele>
        <time>2019-07-17T15:29:39Z</time>
      </trkpt>
      <trkpt lat="47.81164" lon="-3.50601">
        <ele>27</ele>
        <time>2019-07-17T15:29:40Z</time>
      </trkpt>
      <trkpt lat="47.81158" lon="-3.50595">
        <ele>27</ele>
        <time>2019-07-17T15:29:41Z</time>
      </trkpt>
      <trkpt lat="47.81152" lon="-3.50588">
        <ele>27</ele>
        <time>2019-07-17T15:29:42Z</time>
      </trkpt>
      <trkpt lat="47.81146" lon="-3.50582">
        <ele>27</ele>
        <time>2019-07-17T15:29:43Z</time>
      </trkpt>
      <trkpt lat="47.8114" lon="-3.50576">
        <ele>27</ele>
        <time>2019-07-17T15:29:44Z</time>
      </trkpt>
      <trkpt lat="47.81133" lon="-3.50571">
        <ele>27</ele>
        <time>2019-07-17T15:29:45Z</time>
      </trkpt>
      <trkpt lat="47.81127" lon="-3.50566">
        <ele>27</ele>
        <time>2019-07-17T15:29:46Z</time>
      </trkpt>
      <trkpt lat="47.8112" lon="-3.50562">
        <ele>27</ele>
        <time>2019-07-17T15:29:47Z</time>
      </trkpt>
      <trkpt lat="47.81114" lon="-3.50558">
        <ele>27</ele>
        <time>2019-07-17T15:29:48Z</time>
      </trkpt>
      <trkpt lat="47.81107" lon="-3.50554">
        <ele>27</ele>
        <time>2019-07-17T15:29:49Z</time>
      </trkpt>
      <trkpt lat="47.81101" lon="-3.5055">
        <ele>27</ele>
        <time>2019-07-17T15:29:50Z</time>
      </trkpt>
      <trkpt lat="47.81094" lon="-3.50546">
        <ele>27</ele>
        <time>2019-07-17T15:29:51Z</time>
      </trkpt>
      <trkpt lat="47.81088" lon="-3.50542">
        <ele>27</ele>
        <time>2019-07-17T15:29:52Z</time>
      </trkpt>
      <trkpt lat="47.81082" lon="-3.50538">
        <ele>27</ele>
        <time>2019-07-17T15:29:53Z</time>
      </trkpt>
      <trkpt lat="47.81076" lon="-3.50534">
        <ele>28</ele>
        <time>2019-07-17T15:29:54Z</time>
      </trkpt>
      <trkpt lat="47.8107" lon="-3.50529">
        <ele>28</ele>
        <time>2019-07-17T15:29:55Z</time>
      </trkpt>
      <trkpt lat="47.81064" lon="-3.50525">
        <ele>28</ele>
        <time>2019-07-17T15:29:56Z</time>
      </trkpt>
      <trkpt lat="47.81058" lon="-3.50521">
        <ele>28</ele>
        <time>2019-07-17T15:29:57Z</time>
      </trkpt>
      <trkpt lat="47.81052" lon="-3.50518">
        <ele>28</ele>
        <time>2019-07-17T15:29:58Z</time>
      </trkpt>
      <trkpt lat="47.81046" lon="-3.50514">
        <ele>29</ele>
        <time>2019-07-17T15:29:59Z</time>
      </trkpt>
      <trkpt lat="47.8104" lon="-3.5051">
        <ele>29</ele>
        <time>2019-07-17T15:30:00Z</time>
      </trkpt>
      <trkpt lat="47.81035" lon="-3.50506">
        <ele>29</ele>
        <time>2019-07-17T15:30:01Z</time>
      </trkpt>
      <trkpt lat="47.81029" lon="-3.50503">
        <ele>29</ele>
        <time>2019-07-17T15:30:02Z</time>
      </trkpt>
      <trkpt lat="47.81023" lon="-3.50499">
        <ele>30</ele>
        <time>2019-07-17T15:30:03Z</time>
      </trkpt>
      <trkpt lat="47.81018" lon="-3.50496">
        <ele>30</ele>
        <time>2019-07-17T15:30:04Z</time>
      </trkpt>
      <trkpt lat="47.81012" lon="-3.50492">
        <ele>30</ele>
        <time>2019-07-17T15:30:05Z</time>
      </trkpt>
      <trkpt lat="47.81007" lon="-3.50489">
        <ele>31</ele>
        <time>2019-07-17T15:30:06Z</time>
      </trkpt>
      <trkpt lat="47.81002" lon="-3.50486">
        <ele>31</ele>
        <time>2019-07-17T15:30:07Z</time>
      </trkpt>
      <trkpt lat="47.80997" lon="-3.50483">
        <ele>31</ele>
        <time>2019-07-17T15:30:08Z</time>
      </trkpt>
      <trkpt lat="47.80992" lon="-3.5048">
        <ele>32</ele>
        <time>2019-07-17T15:30:09Z</time>
      </trkpt>
      <trkpt lat="47.80986" lon="-3.50477">
        <ele>32</ele>
        <time>2019-07-17T15:30:10Z</time>
      </trkpt>
      <trkpt lat="47.80981" lon="-3.50474">
        <ele>32</ele>
        <time>2019-07-17T15:30:11Z</time>
      </trkpt>
      <trkpt lat="47.80976" lon="-3.50471">
        <ele>33</ele>
        <time>2019-07-17T15:30:12Z</time>
      </trkpt>
      <trkpt lat="47.8097" lon="-3.50468">
        <ele>33</ele>
        <time>2019-07-17T15:30:13Z</time>
      </trkpt>
      <trkpt lat="47.80965" lon="-3.50466">
        <ele>33</ele>
        <time>2019-07-17T15:30:14Z</time>
      </trkpt>
      <trkpt lat="47.8096" lon="-3.50463">
        <ele>34</ele>
        <time>2019-07-17T15:30:15Z</time>
      </trkpt>
      <trkpt lat="47.80956" lon="-3.50461">
        <ele>34</ele>
        <time>2019-07-17T15:30:16Z</time>
      </trkpt>
      <trkpt lat="47.80952" lon="-3.50459">
        <ele>34</ele>
        <time>2019-07-17T15:30:17Z</time>
      </trkpt>
      <trkpt lat="47.80947" lon="-3.50457">
        <ele>34</ele>
        <time>2019-07-17T15:30:18Z</time>
      </trkpt>
      <trkpt lat="47.80943" lon="-3.50456">
        <ele>34</ele>
        <time>2019-07-17T15:30:19Z</time>
      </trkpt>
      <trkpt lat="47.80939" lon="-3.50454">
        <ele>34</ele>
        <time>2019-07-17T15:30:20Z</time>
      </trkpt>
      <trkpt lat="47.80934" lon="-3.50452">
        <ele>35</ele>
        <time>2019-07-17T15:30:21Z</time>
      </trkpt>
      <trkpt lat="47.8093" lon="-3.50451">
        <ele>35</ele>
        <time>2019-07-17T15:30:22Z</time>
      </trkpt>
      <trkpt lat="47.80925" lon="-3.5045">
        <ele>35</ele>
        <time>2019-07-17T15:30:23Z</time>
      </trkpt>
      <trkpt lat="47.8092" lon="-3.50449">
        <ele>35</ele>
        <time>2019-07-17T15:30:24Z</time>
      </trkpt>
      <trkpt lat="47.80916" lon="-3.50447">
        <ele>35</ele>
        <time>2019-07-17T15:30:25Z</time>
      </trkpt>
      <trkpt lat="47.80912" lon="-3.50446">
        <ele>35</ele>
        <time>2019-07-17T15:30:26Z</time>
      </trkpt>
      <trkpt lat="47.80907" lon="-3.50444">
        <ele>35</ele>
        <time>2019-07-17T15:30:27Z</time>
      </trkpt>
      <trkpt lat="47.80904" lon="-3.50442">
        <ele>35</ele>
        <time>2019-07-17T15:30:28Z</time>
      </trkpt>
      <trkpt lat="47.809" lon="-3.50439">
        <ele>35</ele>
        <time>2019-07-17T15:30:29Z</time>
      </trkpt>
      <trkpt lat="47.80896" lon="-3.50436">
        <ele>35</ele>
        <time>2019-07-17T15:30:30Z</time>
      </trkpt>
      <trkpt lat="47.80892" lon="-3.50434">
        <ele>35</ele>
        <time>2019-07-17T15:30:31Z</time>
      </trkpt>
      <trkpt lat="47.80887" lon="-3.50434">
        <ele>35</ele>
        <time>2019-07-17T15:30:32Z</time>
      </trkpt>
      <trkpt lat="47.80884" lon="-3.50437">
        <ele>35</ele>
        <time>2019-07-17T15:30:33Z</time>
      </trkpt>
      <trkpt lat="47.8088" lon="-3.50441">
        <ele>35</ele>
        <time>2019-07-17T15:30:34Z</time>
      </trkpt>
      <trkpt lat="47.80877" lon="-3.50446">
        <ele>35</ele>
        <time>2019-07-17T15:30:35Z</time>
      </trkpt>
      <trkpt lat="47.80874" lon="-3.5045">
        <ele>35</ele>
        <time>2019-07-17T15:30:36Z</time>
      </trkpt>
      <trkpt lat="47.8087" lon="-3.50454">
        <ele>35</ele>
        <time>2019-07-17T15:30:37Z</time>
      </trkpt>
      <trkpt lat="47.80866" lon="-3.50459">
        <ele>36</ele>
        <time>2019-07-17T15:30:38Z</time>
      </trkpt>
      <trkpt lat="47.80863" lon="-3.50464">
        <ele>36</ele>
        <time>2019-07-17T15:30:39Z</time>
      </trkpt>
      <trkpt lat="47.80859" lon="-3.50469">
        <ele>36</ele>
        <time>2019-07-17T15:30:40Z</time>
      </trkpt>
      <trkpt lat="47.80855" lon="-3.50474">
        <ele>36</ele>
        <time>2019-07-17T15:30:41Z</time>
      </trkpt>
      <trkpt lat="47.80851" lon="-3.50479">
        <ele>37</ele>
        <time>2019-07-17T15:30:42Z</time>
      </trkpt>
      <trkpt lat="47.80847" lon="-3.50485">
        <ele>37</ele>
        <time>2019-07-17T15:30:43Z</time>
      </trkpt>
      <trkpt lat="47.80843" lon="-3.50491">
        <ele>37</ele>
        <time>2019-07-17T15:30:44Z</time>
      </trkpt>
      <trkpt lat="47.80838" lon="-3.50496">
        <ele>37</ele>
        <time>2019-07-17T15:30:45Z</time>
      </trkpt>
      <trkpt lat="47.80834" lon="-3.50502">
        <ele>38</ele>
        <time>2019-07-17T15:30:46Z</time>
      </trkpt>
      <trkpt lat="47.80831" lon="-3.50507">
        <ele>38</ele>
        <time>2019-07-17T15:30:47Z</time>
      </trkpt>
      <trkpt lat="47.80828" lon="-3.5051">
        <ele>38</ele>
        <time>2019-07-17T15:30:48Z</time>
      </trkpt>
      <trkpt lat="47.80827" lon="-3.50512">
        <ele>38</ele>
        <time>2019-07-17T15:30:49Z</time>
      </trkpt>
      <trkpt lat="47.80826" lon="-3.50512">
        <ele>38</ele>
        <time>2019-07-17T15:30:50Z</time>
      </trkpt>
      <trkpt lat="47.80826" lon="-3.50512">
        <ele>38</ele>
        <time>2019-07-17T15:30:51Z</time>
      </trkpt>
      <trkpt lat="47.80826" lon="-3.50512">
        <ele>38</ele>
        <time>2019-07-17T15:30:52Z</time>
      </trkpt>
      <trkpt lat="47.80826" lon="-3.50512">
        <ele>38</ele>
        <time>2019-07-17T15:30:53Z</time>
      </trkpt>
      <trkpt lat="47.80828" lon="-3.50509">
        <ele>39</ele>
        <time>2019-07-17T15:30:54Z</time>
      </trkpt>
      <trkpt lat="47.80829" lon="-3.50507">
        <ele>39</ele>
        <time>2019-07-17T15:30:55Z</time>
      </trkpt>
      <trkpt lat="47.80831" lon="-3.50506">
        <ele>39</ele>
        <time>2019-07-17T15:30:56Z</time>
      </trkpt>
      <trkpt lat="47.80832" lon="-3.50503">
        <ele>39</ele>
        <time>2019-07-17T15:30:57Z</time>
      </trkpt>
      <trkpt lat="47.80835" lon="-3.505">
        <ele>38</ele>
        <time>2019-07-17T15:30:58Z</time>
      </trkpt>
      <trkpt lat="47.80837" lon="-3.50496">
        <ele>38</ele>
        <time>2019-07-17T15:30:59Z</time>
      </trkpt>
      <trkpt lat="47.80839" lon="-3.50493">
        <ele>38</ele>
        <time>2019-07-17T15:31:00Z</time>
      </trkpt>
      <trkpt lat="47.80842" lon="-3.50489">
        <ele>38</ele>
        <time>2019-07-17T15:31:01Z</time>
      </trkpt>
      <trkpt lat="47.80845" lon="-3.50485">
        <ele>38</ele>
        <time>2019-07-17T15:31:02Z</time>
      </trkpt>
      <trkpt lat="47.80849" lon="-3.50482">
        <ele>38</ele>
        <time>2019-07-17T15:31:03Z</time>
      </trkpt>
      <trkpt lat="47.80852" lon="-3.50478">
        <ele>38</ele>
        <time>2019-07-17T15:31:04Z</time>
      </trkpt>
      <trkpt lat="47.80855" lon="-3.50473">
        <ele>38</ele>
        <time>2019-07-17T15:31:05Z</time>
      </trkpt>
      <trkpt lat="47.80858" lon="-3.50468">
        <ele>38</ele>
        <time>2019-07-17T15:31:06Z</time>
      </trkpt>
      <trkpt lat="47.80861" lon="-3.50463">
        <ele>38</ele>
        <time>2019-07-17T15:31:07Z</time>
      </trkpt>
      <trkpt lat="47.80865" lon="-3.50459">
        <ele>37</ele>
        <time>2019-07-17T15:31:08Z</time>
      </trkpt>
      <trkpt lat="47.80869" lon="-3.50454">
        <ele>37</ele>
        <time>2019-07-17T15:31:09Z</time>
      </trkpt>
      <trkpt lat="47.80873" lon="-3.50449">
        <ele>37</ele>
        <time>2019-07-17T15:31:10Z</time>
      </trkpt>
      <trkpt lat="47.80877" lon="-3.50443">
        <ele>37</ele>
        <time>2019-07-17T15:31:11Z</time>
      </trkpt>
      <trkpt lat="47.80881" lon="-3.50437">
        <ele>37</ele>
        <time>2019-07-17T15:31:12Z</time>
      </trkpt>
      <trkpt lat="47.80882" lon="-3.50429">
        <ele>36</ele>
        <time>2019-07-17T15:31:13Z</time>
      </trkpt>
      <trkpt lat="47.80883" lon="-3.5042">
        <ele>36</ele>
        <time>2019-07-17T15:31:14Z</time>
      </trkpt>
      <trkpt lat="47.80881" lon="-3.50411">
        <ele>36</ele>
        <time>2019-07-17T15:31:15Z</time>
      </trkpt>
      <trkpt lat="47.80879" lon="-3.50404">
        <ele>36</ele>
        <time>2019-07-17T15:31:16Z</time>
      </trkpt>
      <trkpt lat="47.80876" lon="-3.50395">
        <ele>35</ele>
        <time>2019-07-17T15:31:17Z</time>
      </trkpt>
      <trkpt lat="47.80873" lon="-3.50387">
        <ele>35</ele>
        <time>2019-07-17T15:31:18Z</time>
      </trkpt>
      <trkpt lat="47.8087" lon="-3.50379">
        <ele>35</ele>
        <time>2019-07-17T15:31:19Z</time>
      </trkpt>
      <trkpt lat="47.80867" lon="-3.50371">
        <ele>35</ele>
        <time>2019-07-17T15:31:20Z</time>
      </trkpt>
      <trkpt lat="47.80864" lon="-3.50362">
        <ele>34</ele>
        <time>2019-07-17T15:31:21Z</time>
      </trkpt>
      <trkpt lat="47.80861" lon="-3.50353">
        <ele>34</ele>
        <time>2019-07-17T15:31:22Z</time>
      </trkpt>
      <trkpt lat="47.80858" lon="-3.50345">
        <ele>34</ele>
        <time>2019-07-17T15:31:23Z</time>
      </trkpt>
      <trkpt lat="47.80854" lon="-3.50336">
        <ele>34</ele>
        <time>2019-07-17T15:31:24Z</time>
      </trkpt>
      <trkpt lat="47.80851" lon="-3.50328">
        <ele>34</ele>
        <time>2019-07-17T15:31:25Z</time>
      </trkpt>
      <trkpt lat="47.80848" lon="-3.50319">
        <ele>34</ele>
        <time>2019-07-17T15:31:26Z</time>
      </trkpt>
      <trkpt lat="47.80844" lon="-3.50308">
        <ele>34</ele>
        <time>2019-07-17T15:31:27Z</time>
      </trkpt>
      <trkpt lat="47.80839" lon="-3.50296">
        <ele>35</ele>
        <time>2019-07-17T15:31:28Z</time>
      </trkpt>
      <trkpt lat="47.80834" lon="-3.50284">
        <ele>35</ele>
        <time>2019-07-17T15:31:29Z</time>
      </trkpt>
      <trkpt lat="47.80828" lon="-3.50273">
        <ele>35</ele>
        <time>2019-07-17T15:31:30Z</time>
      </trkpt>
      <trkpt lat="47.80821" lon="-3.50262">
        <ele>35</ele>
        <time>2019-07-17T15:31:31Z</time>
      </trkpt>
      <trkpt lat="47.80814" lon="-3.50253">
        <ele>35</ele>
        <time>2019-07-17T15:31:32Z</time>
      </trkpt>
      <trkpt lat="47.80807" lon="-3.50244">
        <ele>35</ele>
        <time>2019-07-17T15:31:33Z</time>
      </trkpt>
      <trkpt lat="47.808" lon="-3.50236">
        <ele>35</ele>
        <time>2019-07-17T15:31:34Z</time>
      </trkpt>
      <trkpt lat="47.80793" lon="-3.50232">
        <ele>35</ele>
        <time>2019-07-17T15:31:35Z</time>
      </trkpt>
      <trkpt lat="47.80788" lon="-3.50232">
        <ele>35</ele>
        <time>2019-07-17T15:31:36Z</time>
      </trkpt>
      <trkpt lat="47.80783" lon="-3.50237">
        <ele>35</ele>
        <time>2019-07-17T15:31:37Z</time>
      </trkpt>
      <trkpt lat="47.80781" lon="-3.50244">
        <ele>35</ele>
        <time>2019-07-17T15:31:38Z</time>
      </trkpt>
      <trkpt lat="47.8078" lon="-3.50252">
        <ele>35</ele>
        <time>2019-07-17T15:31:39Z</time>
      </trkpt>
      <trkpt lat="47.80779" lon="-3.5026">
        <ele>35</ele>
        <time>2019-07-17T15:31:40Z</time>
      </trkpt>
      <trkpt lat="47.80778" lon="-3.50267">
        <ele>36</ele>
        <time>2019-07-17T15:31:41Z</time>
      </trkpt>
      <trkpt lat="47.80777" lon="-3.50276">
        <ele>36</ele>
        <time>2019-07-17T15:31:42Z</time>
      </trkpt>
      <trkpt lat="47.80776" lon="-3.50284">
        <ele>36</ele>
        <time>2019-07-17T15:31:43Z</time>
      </trkpt>
      <trkpt lat="47.80775" lon="-3.50292">
        <ele>36</ele>
        <time>2019-07-17T15:31:44Z</time>
      </trkpt>
      <trkpt lat="47.80773" lon="-3.50301">
        <ele>37</ele>
        <time>2019-07-17T15:31:45Z</time>
      </trkpt>
      <trkpt lat="47.80771" lon="-3.50309">
        <ele>37</ele>
        <time>2019-07-17T15:31:46Z</time>
      </trkpt>
      <trkpt lat="47.80769" lon="-3.50317">
        <ele>37</ele>
        <time>2019-07-17T15:31:47Z</time>
      </trkpt>
      <trkpt lat="47.80767" lon="-3.50324">
        <ele>37</ele>
        <time>2019-07-17T15:31:48Z</time>
      </trkpt>
      <trkpt lat="47.80764" lon="-3.50332">
        <ele>38</ele>
        <time>2019-07-17T15:31:49Z</time>
      </trkpt>
      <trkpt lat="47.80762" lon="-3.5034">
        <ele>38</ele>
        <time>2019-07-17T15:31:50Z</time>
      </trkpt>
      <trkpt lat="47.80759" lon="-3.50348">
        <ele>38</ele>
        <time>2019-07-17T15:31:51Z</time>
      </trkpt>
      <trkpt lat="47.80755" lon="-3.50356">
        <ele>39</ele>
        <time>2019-07-17T15:31:52Z</time>
      </trkpt>
      <trkpt lat="47.80752" lon="-3.50364">
        <ele>39</ele>
        <time>2019-07-17T15:31:53Z</time>
      </trkpt>
      <trkpt lat="47.80747" lon="-3.50371">
        <ele>39</ele>
        <time>2019-07-17T15:31:54Z</time>
      </trkpt>
      <trkpt lat="47.80743" lon="-3.5038">
        <ele>40</ele>
        <time>2019-07-17T15:31:55Z</time>
      </trkpt>
      <trkpt lat="47.80739" lon="-3.50387">
        <ele>40</ele>
        <time>2019-07-17T15:31:56Z</time>
      </trkpt>
      <trkpt lat="47.80734" lon="-3.50395">
        <ele>41</ele>
        <time>2019-07-17T15:31:57Z</time>
      </trkpt>
      <trkpt lat="47.80729" lon="-3.50402">
        <ele>41</ele>
        <time>2019-07-17T15:31:58Z</time>
      </trkpt>
      <trkpt lat="47.80722" lon="-3.5041">
        <ele>41</ele>
        <time>2019-07-17T15:31:59Z</time>
      </trkpt>
      <trkpt lat="47.80716" lon="-3.50417">
        <ele>42</ele>
        <time>2019-07-17T15:32:00Z</time>
      </trkpt>
      <trkpt lat="47.8071" lon="-3.50424">
        <ele>42</ele>
        <time>2019-07-17T15:32:01Z</time>
      </trkpt>
      <trkpt lat="47.80705" lon="-3.5043">
        <ele>42</ele>
        <time>2019-07-17T15:32:02Z</time>
      </trkpt>
      <trkpt lat="47.80699" lon="-3.50437">
        <ele>42</ele>
        <time>2019-07-17T15:32:03Z</time>
      </trkpt>
      <trkpt lat="47.80693" lon="-3.50444">
        <ele>42</ele>
        <time>2019-07-17T15:32:04Z</time>
      </trkpt>
      <trkpt lat="47.80687" lon="-3.5045">
        <ele>42</ele>
        <time>2019-07-17T15:32:05Z</time>
      </trkpt>
      <trkpt lat="47.80681" lon="-3.50456">
        <ele>42</ele>
        <time>2019-07-17T15:32:06Z</time>
      </trkpt>
      <trkpt lat="47.80675" lon="-3.50463">
        <ele>42</ele>
        <time>2019-07-17T15:32:07Z</time>
      </trkpt>
      <trkpt lat="47.8067" lon="-3.50469">
        <ele>42</ele>
        <time>2019-07-17T15:32:08Z</time>
      </trkpt>
      <trkpt lat="47.80664" lon="-3.50475">
        <ele>42</ele>
        <time>2019-07-17T15:32:09Z</time>
      </trkpt>
      <trkpt lat="47.80659" lon="-3.50482">
        <ele>42</ele>
        <time>2019-07-17T15:32:10Z</time>
      </trkpt>
      <trkpt lat="47.80653" lon="-3.50489">
        <ele>42</ele>
        <time>2019-07-17T15:32:11Z</time>
      </trkpt>
      <trkpt lat="47.80647" lon="-3.50495">
        <ele>42</ele>
        <time>2019-07-17T15:32:12Z</time>
      </trkpt>
      <trkpt lat="47.80641" lon="-3.50502">
        <ele>42</ele>
        <time>2019-07-17T15:32:13Z</time>
      </trkpt>
      <trkpt lat="47.80634" lon="-3.50509">
        <ele>42</ele>
        <time>2019-07-17T15:32:14Z</time>
      </trkpt>
      <trkpt lat="47.80628" lon="-3.50516">
        <ele>42</ele>
        <time>2019-07-17T15:32:15Z</time>
      </trkpt>
      <trkpt lat="47.80622" lon="-3.50524">
        <ele>42</ele>
        <time>2019-07-17T15:32:16Z</time>
      </trkpt>
      <trkpt lat="47.80617" lon="-3.5053">
        <ele>41</ele>
        <time>2019-07-17T15:32:17Z</time>
      </trkpt>
      <trkpt lat="47.80611" lon="-3.50537">
        <ele>41</ele>
        <time>2019-07-17T15:32:18Z</time>
      </trkpt>
      <trkpt lat="47.80606" lon="-3.50544">
        <ele>41</ele>
        <time>2019-07-17T15:32:19Z</time>
      </trkpt>
      <trkpt lat="47.806" lon="-3.50551">
        <ele>41</ele>
        <time>2019-07-17T15:32:20Z</time>
      </trkpt>
      <trkpt lat="47.80596" lon="-3.50558">
        <ele>41</ele>
        <time>2019-07-17T15:32:21Z</time>
      </trkpt>
      <trkpt lat="47.80592" lon="-3.50565">
        <ele>41</ele>
        <time>2019-07-17T15:32:22Z</time>
      </trkpt>
      <trkpt lat="47.80588" lon="-3.50572">
        <ele>41</ele>
        <time>2019-07-17T15:32:23Z</time>
      </trkpt>
      <trkpt lat="47.80585" lon="-3.5058">
        <ele>41</ele>
        <time>2019-07-17T15:32:24Z</time>
      </trkpt>
      <trkpt lat="47.80582" lon="-3.50588">
        <ele>41</ele>
        <time>2019-07-17T15:32:25Z</time>
      </trkpt>
      <trkpt lat="47.8058" lon="-3.50597">
        <ele>41</ele>
        <time>2019-07-17T15:32:26Z</time>
      </trkpt>
      <trkpt lat="47.80578" lon="-3.50607">
        <ele>41</ele>
        <time>2019-07-17T15:32:27Z</time>
      </trkpt>
      <trkpt lat="47.80576" lon="-3.50617">
        <ele>41</ele>
        <time>2019-07-17T15:32:28Z</time>
      </trkpt>
      <trkpt lat="47.80575" lon="-3.50627">
        <ele>41</ele>
        <time>2019-07-17T15:32:29Z</time>
      </trkpt>
      <trkpt lat="47.80574" lon="-3.50638">
        <ele>41</ele>
        <time>2019-07-17T15:32:30Z</time>
      </trkpt>
      <trkpt lat="47.80574" lon="-3.50648">
        <ele>40</ele>
        <time>2019-07-17T15:32:31Z</time>
      </trkpt>
      <trkpt lat="47.80575" lon="-3.50659">
        <ele>40</ele>
        <time>2019-07-17T15:32:32Z</time>
      </trkpt>
      <trkpt lat="47.80576" lon="-3.50669">
        <ele>40</ele>
        <time>2019-07-17T15:32:33Z</time>
      </trkpt>
      <trkpt lat="47.80578" lon="-3.5068">
        <ele>40</ele>
        <time>2019-07-17T15:32:34Z</time>
      </trkpt>
      <trkpt lat="47.80579" lon="-3.5069">
        <ele>39</ele>
        <time>2019-07-17T15:32:35Z</time>
      </trkpt>
      <trkpt lat="47.8058" lon="-3.507">
        <ele>39</ele>
        <time>2019-07-17T15:32:36Z</time>
      </trkpt>
      <trkpt lat="47.80581" lon="-3.5071">
        <ele>39</ele>
        <time>2019-07-17T15:32:37Z</time>
      </trkpt>
      <trkpt lat="47.80582" lon="-3.5072">
        <ele>39</ele>
        <time>2019-07-17T15:32:38Z</time>
      </trkpt>
      <trkpt lat="47.80583" lon="-3.50731">
        <ele>39</ele>
        <time>2019-07-17T15:32:39Z</time>
      </trkpt>
      <trkpt lat="47.80583" lon="-3.50742">
        <ele>38</ele>
        <time>2019-07-17T15:32:40Z</time>
      </trkpt>
      <trkpt lat="47.80583" lon="-3.50753">
        <ele>38</ele>
        <time>2019-07-17T15:32:41Z</time>
      </trkpt>
      <trkpt lat="47.80583" lon="-3.50764">
        <ele>38</ele>
        <time>2019-07-17T15:32:42Z</time>
      </trkpt>
      <trkpt lat="47.80583" lon="-3.50774">
        <ele>38</ele>
        <time>2019-07-17T15:32:43Z</time>
      </trkpt>
      <trkpt lat="47.80583" lon="-3.50785">
        <ele>38</ele>
        <time>2019-07-17T15:32:44Z</time>
      </trkpt>
      <trkpt lat="47.80582" lon="-3.50796">
        <ele>39</ele>
        <time>2019-07-17T15:32:45Z</time>
      </trkpt>
      <trkpt lat="47.80581" lon="-3.50807">
        <ele>39</ele>
        <time>2019-07-17T15:32:46Z</time>
      </trkpt>
      <trkpt lat="47.80579" lon="-3.50817">
        <ele>39</ele>
        <time>2019-07-17T15:32:47Z</time>
      </trkpt>
      <trkpt lat="47.80577" lon="-3.50827">
        <ele>39</ele>
        <time>2019-07-17T15:32:48Z</time>
      </trkpt>
      <trkpt lat="47.80575" lon="-3.50838">
        <ele>39</ele>
        <time>2019-07-17T15:32:49Z</time>
      </trkpt>
      <trkpt lat="47.80572" lon="-3.50847">
        <ele>39</ele>
        <time>2019-07-17T15:32:50Z</time>
      </trkpt>
      <trkpt lat="47.8057" lon="-3.50857">
        <ele>39</ele>
        <time>2019-07-17T15:32:51Z</time>
      </trkpt>
      <trkpt lat="47.80568" lon="-3.50867">
        <ele>38</ele>
        <time>2019-07-17T15:32:52Z</time>
      </trkpt>
      <trkpt lat="47.80566" lon="-3.50876">
        <ele>38</ele>
        <time>2019-07-17T15:32:53Z</time>
      </trkpt>
      <trkpt lat="47.80564" lon="-3.50886">
        <ele>38</ele>
        <time>2019-07-17T15:32:54Z</time>
      </trkpt>
      <trkpt lat="47.80563" lon="-3.50896">
        <ele>38</ele>
        <time>2019-07-17T15:32:55Z</time>
      </trkpt>
      <trkpt lat="47.80562" lon="-3.50906">
        <ele>38</ele>
        <time>2019-07-17T15:32:56Z</time>
      </trkpt>
      <trkpt lat="47.80562" lon="-3.50915">
        <ele>37</ele>
        <time>2019-07-17T15:32:57Z</time>
      </trkpt>
      <trkpt lat="47.80562" lon="-3.50923">
        <ele>37</ele>
        <time>2019-07-17T15:32:58Z</time>
      </trkpt>
      <trkpt lat="47.80561" lon="-3.5093">
        <ele>37</ele>
        <time>2019-07-17T15:32:59Z</time>
      </trkpt>
      <trkpt lat="47.80561" lon="-3.50932">
        <ele>37</ele>
        <time>2019-07-17T15:33:00Z</time>
      </trkpt>
      <trkpt lat="47.80561" lon="-3.50933">
        <ele>37</ele>
        <time>2019-07-17T15:33:01Z</time>
      </trkpt>
      <trkpt lat="47.80561" lon="-3.50933">
        <ele>37</ele>
        <time>2019-07-17T15:33:02Z</time>
      </trkpt>
      <trkpt lat="47.80561" lon="-3.50934">
        <ele>37</ele>
        <time>2019-07-17T15:33:03Z</time>
      </trkpt>
      <trkpt lat="47.80561" lon="-3.50934">
        <ele>37</ele>
        <time>2019-07-17T15:33:04Z</time>
      </trkpt>
      <trkpt lat="47.8056" lon="-3.50935">
        <ele>36</ele>
        <time>2019-07-17T15:33:05Z</time>
      </trkpt>
      <trkpt lat="47.8056" lon="-3.50933">
        <ele>36</ele>
        <time>2019-07-17T15:33:06Z</time>
      </trkpt>
      <trkpt lat="47.8056" lon="-3.50932">
        <ele>36</ele>
        <time>2019-07-17T15:33:07Z</time>
      </trkpt>
      <trkpt lat="47.8056" lon="-3.5093">
        <ele>35</ele>
        <time>2019-07-17T15:33:08Z</time>
      </trkpt>
      <trkpt lat="47.80562" lon="-3.50928">
        <ele>35</ele>
        <time>2019-07-17T15:33:09Z</time>
      </trkpt>
      <trkpt lat="47.80562" lon="-3.50925">
        <ele>35</ele>
        <time>2019-07-17T15:33:10Z</time>
      </trkpt>
      <trkpt lat="47.80562" lon="-3.50922">
        <ele>34</ele>
        <time>2019-07-17T15:33:11Z</time>
      </trkpt>
      <trkpt lat="47.80563" lon="-3.50919">
        <ele>34</ele>
        <time>2019-07-17T15:33:12Z</time>
      </trkpt>
      <trkpt lat="47.80563" lon="-3.50916">
        <ele>34</ele>
        <time>2019-07-17T15:33:13Z</time>
      </trkpt>
      <trkpt lat="47.80562" lon="-3.50913">
        <ele>33</ele>
        <time>2019-07-17T15:33:14Z</time>
      </trkpt>
      <trkpt lat="47.8056" lon="-3.50912">
        <ele>33</ele>
        <time>2019-07-17T15:33:15Z</time>
      </trkpt>
      <trkpt lat="47.80557" lon="-3.5091">
        <ele>33</ele>
        <time>2019-07-17T15:33:16Z</time>
      </trkpt>
      <trkpt lat="47.80554" lon="-3.5091">
        <ele>33</ele>
        <time>2019-07-17T15:33:17Z</time>
      </trkpt>
      <trkpt lat="47.80551" lon="-3.50909">
        <ele>32</ele>
        <time>2019-07-17T15:33:18Z</time>
      </trkpt>
      <trkpt lat="47.80548" lon="-3.50909">
        <ele>32</ele>
        <time>2019-07-17T15:33:19Z</time>
      </trkpt>
      <trkpt lat="47.80545" lon="-3.50909">
        <ele>32</ele>
        <time>2019-07-17T15:33:20Z</time>
      </trkpt>
      <trkpt lat="47.80542" lon="-3.50909">
        <ele>32</ele>
        <time>2019-07-17T15:33:21Z</time>
      </trkpt>
      <trkpt lat="47.8054" lon="-3.50909">
        <ele>32</ele>
        <time>2019-07-17T15:33:22Z</time>
      </trkpt>
      <trkpt lat="47.80537" lon="-3.50909">
        <ele>32</ele>
        <time>2019-07-17T15:33:23Z</time>
      </trkpt>
      <trkpt lat="47.80535" lon="-3.50909">
        <ele>32</ele>
        <time>2019-07-17T15:33:24Z</time>
      </trkpt>
      <trkpt lat="47.80532" lon="-3.50909">
        <ele>32</ele>
        <time>2019-07-17T15:33:25Z</time>
      </trkpt>
      <trkpt lat="47.8053" lon="-3.5091">
        <ele>32</ele>
        <time>2019-07-17T15:33:26Z</time>
      </trkpt>
      <trkpt lat="47.80527" lon="-3.50912">
        <ele>32</ele>
        <time>2019-07-17T15:33:27Z</time>
      </trkpt>
      <trkpt lat="47.80525" lon="-3.50913">
        <ele>32</ele>
        <time>2019-07-17T15:33:28Z</time>
      </trkpt>
      <trkpt lat="47.80522" lon="-3.50915">
        <ele>32</ele>
        <time>2019-07-17T15:33:29Z</time>
      </trkpt>
      <trkpt lat="47.80519" lon="-3.50918">
        <ele>32</ele>
        <time>2019-07-17T15:33:30Z</time>
      </trkpt>
      <trkpt lat="47.80516" lon="-3.50922">
        <ele>32</ele>
        <time>2019-07-17T15:33:31Z</time>
      </trkpt>
      <trkpt lat="47.80514" lon="-3.50925">
        <ele>33</ele>
        <time>2019-07-17T15:33:32Z</time>
      </trkpt>
      <trkpt lat="47.80512" lon="-3.50928">
        <ele>33</ele>
        <time>2019-07-17T15:33:33Z</time>
      </trkpt>
      <trkpt lat="47.8051" lon="-3.50932">
        <ele>33</ele>
        <time>2019-07-17T15:33:34Z</time>
      </trkpt>
      <trkpt lat="47.80509" lon="-3.50936">
        <ele>33</ele>
        <time>2019-07-17T15:33:35Z</time>
      </trkpt>
      <trkpt lat="47.80507" lon="-3.50941">
        <ele>33</ele>
        <time>2019-07-17T15:33:36Z</time>
      </trkpt>
      <trkpt lat="47.80505" lon="-3.50946">
        <ele>33</ele>
        <time>2019-07-17T15:33:37Z</time>
      </trkpt>
      <trkpt lat="47.80504" lon="-3.5095">
        <ele>33</ele>
        <time>2019-07-17T15:33:38Z</time>
      </trkpt>
      <trkpt lat="47.80502" lon="-3.50955">
        <ele>33</ele>
        <time>2019-07-17T15:33:39Z</time>
      </trkpt>
      <trkpt lat="47.80501" lon="-3.50958">
        <ele>33</ele>
        <time>2019-07-17T15:33:40Z</time>
      </trkpt>
      <trkpt lat="47.805" lon="-3.50962">
        <ele>33</ele>
        <time>2019-07-17T15:33:41Z</time>
      </trkpt>
      <trkpt lat="47.80499" lon="-3.50965">
        <ele>34</ele>
        <time>2019-07-17T15:33:42Z</time>
      </trkpt>
      <trkpt lat="47.80499" lon="-3.50968">
        <ele>34</ele>
        <time>2019-07-17T15:33:43Z</time>
      </trkpt>
      <trkpt lat="47.80498" lon="-3.50971">
        <ele>34</ele>
        <time>2019-07-17T15:33:44Z</time>
      </trkpt>
      <trkpt lat="47.80497" lon="-3.50975">
        <ele>34</ele>
        <time>2019-07-17T15:33:45Z</time>
      </trkpt>
      <trkpt lat="47.80497" lon="-3.50978">
        <ele>34</ele>
        <time>2019-07-17T15:33:46Z</time>
      </trkpt>
      <trkpt lat="47.80498" lon="-3.50982">
        <ele>34</ele>
        <time>2019-07-17T15:33:47Z</time>
      </trkpt>
      <trkpt lat="47.80498" lon="-3.50987">
        <ele>34</ele>
        <time>2019-07-17T15:33:48Z</time>
      </trkpt>
      <trkpt lat="47.80499" lon="-3.50992">
        <ele>34</ele>
        <time>2019-07-17T15:33:49Z</time>
      </trkpt>
      <trkpt lat="47.805" lon="-3.50997">
        <ele>34</ele>
        <time>2019-07-17T15:33:50Z</time>
      </trkpt>
      <trkpt lat="47.80501" lon="-3.51001">
        <ele>34</ele>
        <time>2019-07-17T15:33:51Z</time>
      </trkpt>
      <trkpt lat="47.80502" lon="-3.51005">
        <ele>34</ele>
        <time>2019-07-17T15:33:52Z</time>
      </trkpt>
      <trkpt lat="47.80503" lon="-3.51011">
        <ele>34</ele>
        <time>2019-07-17T15:33:53Z</time>
      </trkpt>
      <trkpt lat="47.80504" lon="-3.51019">
        <ele>34</ele>
        <time>2019-07-17T15:33:54Z</time>
      </trkpt>
      <trkpt lat="47.80504" lon="-3.51028">
        <ele>35</ele>
        <time>2019-07-17T15:33:55Z</time>
      </trkpt>
      <trkpt lat="47.80504" lon="-3.51037">
        <ele>35</ele>
        <time>2019-07-17T15:33:56Z</time>
      </trkpt>
      <trkpt lat="47.80503" lon="-3.51047">
        <ele>35</ele>
        <time>2019-07-17T15:33:57Z</time>
      </trkpt>
      <trkpt lat="47.80501" lon="-3.51057">
        <ele>35</ele>
        <time>2019-07-17T15:33:58Z</time>
      </trkpt>
      <trkpt lat="47.80499" lon="-3.51068">
        <ele>35</ele>
        <time>2019-07-17T15:33:59Z</time>
      </trkpt>
      <trkpt lat="47.80494" lon="-3.5108">
        <ele>34</ele>
        <time>2019-07-17T15:34:00Z</time>
      </trkpt>
      <trkpt lat="47.80489" lon="-3.5109">
        <ele>34</ele>
        <time>2019-07-17T15:34:01Z</time>
      </trkpt>
      <trkpt lat="47.80485" lon="-3.51101">
        <ele>35</ele>
        <time>2019-07-17T15:34:02Z</time>
      </trkpt>
      <trkpt lat="47.80481" lon="-3.51111">
        <ele>35</ele>
        <time>2019-07-17T15:34:03Z</time>
      </trkpt>
      <trkpt lat="47.80478" lon="-3.51121">
        <ele>35</ele>
        <time>2019-07-17T15:34:04Z</time>
      </trkpt>
      <trkpt lat="47.80476" lon="-3.51131">
        <ele>35</ele>
        <time>2019-07-17T15:34:05Z</time>
      </trkpt>
      <trkpt lat="47.80475" lon="-3.5114">
        <ele>35</ele>
        <time>2019-07-17T15:34:06Z</time>
      </trkpt>
      <trkpt lat="47.80475" lon="-3.5115">
        <ele>35</ele>
        <time>2019-07-17T15:34:07Z</time>
      </trkpt>
      <trkpt lat="47.80475" lon="-3.51158">
        <ele>35</ele>
        <time>2019-07-17T15:34:08Z</time>
      </trkpt>
      <trkpt lat="47.80475" lon="-3.51165">
        <ele>35</ele>
        <time>2019-07-17T15:34:09Z</time>
      </trkpt>
      <trkpt lat="47.80476" lon="-3.51171">
        <ele>35</ele>
        <time>2019-07-17T15:34:10Z</time>
      </trkpt>
      <trkpt lat="47.80477" lon="-3.51176">
        <ele>35</ele>
        <time>2019-07-17T15:34:11Z</time>
      </trkpt>
      <trkpt lat="47.80478" lon="-3.51181">
        <ele>35</ele>
        <time>2019-07-17T15:34:12Z</time>
      </trkpt>
      <trkpt lat="47.80478" lon="-3.51186">
        <ele>35</ele>
        <time>2019-07-17T15:34:13Z</time>
      </trkpt>
      <trkpt lat="47.80478" lon="-3.51193">
        <ele>35</ele>
        <time>2019-07-17T15:34:14Z</time>
      </trkpt>
      <trkpt lat="47.80478" lon="-3.51199">
        <ele>35</ele>
        <time>2019-07-17T15:34:15Z</time>
      </trkpt>
      <trkpt lat="47.80479" lon="-3.51205">
        <ele>35</ele>
        <time>2019-07-17T15:34:16Z</time>
      </trkpt>
      <trkpt lat="47.80479" lon="-3.51211">
        <ele>35</ele>
        <time>2019-07-17T15:34:17Z</time>
      </trkpt>
      <trkpt lat="47.8048" lon="-3.51217">
        <ele>35</ele>
        <time>2019-07-17T15:34:18Z</time>
      </trkpt>
      <trkpt lat="47.8048" lon="-3.51222">
        <ele>35</ele>
        <time>2019-07-17T15:34:19Z</time>
      </trkpt>
      <trkpt lat="47.80481" lon="-3.51229">
        <ele>35</ele>
        <time>2019-07-17T15:34:20Z</time>
      </trkpt>
      <trkpt lat="47.80481" lon="-3.51235">
        <ele>35</ele>
        <time>2019-07-17T15:34:21Z</time>
      </trkpt>
      <trkpt lat="47.80481" lon="-3.51241">
        <ele>35</ele>
        <time>2019-07-17T15:34:22Z</time>
      </trkpt>
      <trkpt lat="47.80481" lon="-3.51247">
        <ele>35</ele>
        <time>2019-07-17T15:34:23Z</time>
      </trkpt>
      <trkpt lat="47.8048" lon="-3.51252">
        <ele>35</ele>
        <time>2019-07-17T15:34:24Z</time>
      </trkpt>
      <trkpt lat="47.8048" lon="-3.51259">
        <ele>35</ele>
        <time>2019-07-17T15:34:25Z</time>
      </trkpt>
      <trkpt lat="47.8048" lon="-3.51265">
        <ele>35</ele>
        <time>2019-07-17T15:34:26Z</time>
      </trkpt>
      <trkpt lat="47.80479" lon="-3.5127">
        <ele>36</ele>
        <time>2019-07-17T15:34:27Z</time>
      </trkpt>
      <trkpt lat="47.80478" lon="-3.51276">
        <ele>36</ele>
        <time>2019-07-17T15:34:28Z</time>
      </trkpt>
      <trkpt lat="47.80478" lon="-3.51281">
        <ele>36</ele>
        <time>2019-07-17T15:34:29Z</time>
      </trkpt>
      <trkpt lat="47.80477" lon="-3.51288">
        <ele>36</ele>
        <time>2019-07-17T15:34:30Z</time>
      </trkpt>
      <trkpt lat="47.80477" lon="-3.51295">
        <ele>36</ele>
        <time>2019-07-17T15:34:31Z</time>
      </trkpt>
      <trkpt lat="47.80477" lon="-3.51301">
        <ele>36</ele>
        <time>2019-07-17T15:34:32Z</time>
      </trkpt>
      <trkpt lat="47.80476" lon="-3.51307">
        <ele>36</ele>
        <time>2019-07-17T15:34:33Z</time>
      </trkpt>
      <trkpt lat="47.80476" lon="-3.51313">
        <ele>36</ele>
        <time>2019-07-17T15:34:34Z</time>
      </trkpt>
      <trkpt lat="47.80474" lon="-3.5132">
        <ele>36</ele>
        <time>2019-07-17T15:34:35Z</time>
      </trkpt>
      <trkpt lat="47.80473" lon="-3.51326">
        <ele>36</ele>
        <time>2019-07-17T15:34:36Z</time>
      </trkpt>
      <trkpt lat="47.80472" lon="-3.51332">
        <ele>36</ele>
        <time>2019-07-17T15:34:37Z</time>
      </trkpt>
      <trkpt lat="47.8047" lon="-3.51337">
        <ele>35</ele>
        <time>2019-07-17T15:34:38Z</time>
      </trkpt>
      <trkpt lat="47.80469" lon="-3.51343">
        <ele>35</ele>
        <time>2019-07-17T15:34:39Z</time>
      </trkpt>
      <trkpt lat="47.80468" lon="-3.51349">
        <ele>35</ele>
        <time>2019-07-17T15:34:40Z</time>
      </trkpt>
      <trkpt lat="47.80467" lon="-3.51354">
        <ele>35</ele>
        <time>2019-07-17T15:34:41Z</time>
      </trkpt>
      <trkpt lat="47.80466" lon="-3.51359">
        <ele>35</ele>
        <time>2019-07-17T15:34:42Z</time>
      </trkpt>
      <trkpt lat="47.80464" lon="-3.51363">
        <ele>35</ele>
        <time>2019-07-17T15:34:43Z</time>
      </trkpt>
      <trkpt lat="47.80463" lon="-3.51368">
        <ele>36</ele>
        <time>2019-07-17T15:34:44Z</time>
      </trkpt>
      <trkpt lat="47.80461" lon="-3.51373">
        <ele>36</ele>
        <time>2019-07-17T15:34:45Z</time>
      </trkpt>
      <trkpt lat="47.8046" lon="-3.51379">
        <ele>36</ele>
        <time>2019-07-17T15:34:46Z</time>
      </trkpt>
      <trkpt lat="47.80458" lon="-3.51384">
        <ele>36</ele>
        <time>2019-07-17T15:34:47Z</time>
      </trkpt>
      <trkpt lat="47.80456" lon="-3.51388">
        <ele>36</ele>
        <time>2019-07-17T15:34:48Z</time>
      </trkpt>
      <trkpt lat="47.80455" lon="-3.51393">
        <ele>36</ele>
        <time>2019-07-17T15:34:49Z</time>
      </trkpt>
      <trkpt lat="47.80453" lon="-3.51399">
        <ele>36</ele>
        <time>2019-07-17T15:34:50Z</time>
      </trkpt>
      <trkpt lat="47.80451" lon="-3.51405">
        <ele>36</ele>
        <time>2019-07-17T15:34:51Z</time>
      </trkpt>
      <trkpt lat="47.80448" lon="-3.51411">
        <ele>36</ele>
        <time>2019-07-17T15:34:52Z</time>
      </trkpt>
      <trkpt lat="47.80446" lon="-3.51417">
        <ele>37</ele>
        <time>2019-07-17T15:34:53Z</time>
      </trkpt>
      <trkpt lat="47.80443" lon="-3.51424">
        <ele>37</ele>
        <time>2019-07-17T15:34:54Z</time>
      </trkpt>
      <trkpt lat="47.80441" lon="-3.51432">
        <ele>37</ele>
        <time>2019-07-17T15:34:55Z</time>
      </trkpt>
      <trkpt lat="47.80438" lon="-3.5144">
        <ele>37</ele>
        <time>2019-07-17T15:34:56Z</time>
      </trkpt>
      <trkpt lat="47.80436" lon="-3.51447">
        <ele>37</ele>
        <time>2019-07-17T15:34:57Z</time>
      </trkpt>
      <trkpt lat="47.80433" lon="-3.51454">
        <ele>37</ele>
        <time>2019-07-17T15:34:58Z</time>
      </trkpt>
      <trkpt lat="47.8043" lon="-3.5146">
        <ele>37</ele>
        <time>2019-07-17T15:34:59Z</time>
      </trkpt>
      <trkpt lat="47.80426" lon="-3.51466">
        <ele>37</ele>
        <time>2019-07-17T15:35:00Z</time>
      </trkpt>
      <trkpt lat="47.80423" lon="-3.51473">
        <ele>37</ele>
        <time>2019-07-17T15:35:01Z</time>
      </trkpt>
      <trkpt lat="47.80421" lon="-3.5148">
        <ele>37</ele>
        <time>2019-07-17T15:35:02Z</time>
      </trkpt>
      <trkpt lat="47.80419" lon="-3.51486">
        <ele>37</ele>
        <time>2019-07-17T15:35:03Z</time>
      </trkpt>
      <trkpt lat="47.80417" lon="-3.51493">
        <ele>37</ele>
        <time>2019-07-17T15:35:04Z</time>
      </trkpt>
      <trkpt lat="47.80414" lon="-3.515">
        <ele>37</ele>
        <time>2019-07-17T15:35:05Z</time>
      </trkpt>
      <trkpt lat="47.80412" lon="-3.51507">
        <ele>37</ele>
        <time>2019-07-17T15:35:06Z</time>
      </trkpt>
      <trkpt lat="47.8041" lon="-3.51514">
        <ele>37</ele>
        <time>2019-07-17T15:35:07Z</time>
      </trkpt>
      <trkpt lat="47.80408" lon="-3.51521">
        <ele>37</ele>
        <time>2019-07-17T15:35:08Z</time>
      </trkpt>
      <trkpt lat="47.80406" lon="-3.51528">
        <ele>38</ele>
        <time>2019-07-17T15:35:09Z</time>
      </trkpt>
      <trkpt lat="47.80404" lon="-3.51534">
        <ele>38</ele>
        <time>2019-07-17T15:35:10Z</time>
      </trkpt>
      <trkpt lat="47.80403" lon="-3.51541">
        <ele>38</ele>
        <time>2019-07-17T15:35:11Z</time>
      </trkpt>
      <trkpt lat="47.80401" lon="-3.51548">
        <ele>38</ele>
        <time>2019-07-17T15:35:12Z</time>
      </trkpt>
      <trkpt lat="47.80401" lon="-3.51554">
        <ele>38</ele>
        <time>2019-07-17T15:35:13Z</time>
      </trkpt>
      <trkpt lat="47.804" lon="-3.5156">
        <ele>38</ele>
        <time>2019-07-17T15:35:14Z</time>
      </trkpt>
      <trkpt lat="47.804" lon="-3.51567">
        <ele>38</ele>
        <time>2019-07-17T15:35:15Z</time>
      </trkpt>
      <trkpt lat="47.80399" lon="-3.51572">
        <ele>39</ele>
        <time>2019-07-17T15:35:16Z</time>
      </trkpt>
      <trkpt lat="47.80398" lon="-3.51577">
        <ele>39</ele>
        <time>2019-07-17T15:35:17Z</time>
      </trkpt>
      <trkpt lat="47.80398" lon="-3.51583">
        <ele>39</ele>
        <time>2019-07-17T15:35:18Z</time>
      </trkpt>
      <trkpt lat="47.80397" lon="-3.51588">
        <ele>39</ele>
        <time>2019-07-17T15:35:19Z</time>
      </trkpt>
      <trkpt lat="47.80396" lon="-3.51594">
        <ele>39</ele>
        <time>2019-07-17T15:35:20Z</time>
      </trkpt>
      <trkpt lat="47.80396" lon="-3.51601">
        <ele>40</ele>
        <time>2019-07-17T15:35:21Z</time>
      </trkpt>
      <trkpt lat="47.80396" lon="-3.51607">
        <ele>40</ele>
        <time>2019-07-17T15:35:22Z</time>
      </trkpt>
      <trkpt lat="47.80396" lon="-3.51614">
        <ele>40</ele>
        <time>2019-07-17T15:35:23Z</time>
      </trkpt>
      <trkpt lat="47.80395" lon="-3.51621">
        <ele>40</ele>
        <time>2019-07-17T15:35:24Z</time>
      </trkpt>
      <trkpt lat="47.80394" lon="-3.51627">
        <ele>40</ele>
        <time>2019-07-17T15:35:25Z</time>
      </trkpt>
      <trkpt lat="47.80393" lon="-3.51633">
        <ele>41</ele>
        <time>2019-07-17T15:35:26Z</time>
      </trkpt>
      <trkpt lat="47.80392" lon="-3.51639">
        <ele>41</ele>
        <time>2019-07-17T15:35:27Z</time>
      </trkpt>
      <trkpt lat="47.8039" lon="-3.51645">
        <ele>41</ele>
        <time>2019-07-17T15:35:28Z</time>
      </trkpt>
      <trkpt lat="47.80388" lon="-3.51649">
        <ele>41</ele>
        <time>2019-07-17T15:35:29Z</time>
      </trkpt>
      <trkpt lat="47.80386" lon="-3.51654">
        <ele>41</ele>
        <time>2019-07-17T15:35:30Z</time>
      </trkpt>
      <trkpt lat="47.80384" lon="-3.51658">
        <ele>41</ele>
        <time>2019-07-17T15:35:31Z</time>
      </trkpt>
      <trkpt lat="47.80382" lon="-3.51662">
        <ele>41</ele>
        <time>2019-07-17T15:35:32Z</time>
      </trkpt>
      <trkpt lat="47.80378" lon="-3.51665">
        <ele>42</ele>
        <time>2019-07-17T15:35:33Z</time>
      </trkpt>
      <trkpt lat="47.80375" lon="-3.51668">
        <ele>42</ele>
        <time>2019-07-17T15:35:34Z</time>
      </trkpt>
      <trkpt lat="47.80373" lon="-3.51671">
        <ele>42</ele>
        <time>2019-07-17T15:35:35Z</time>
      </trkpt>
      <trkpt lat="47.8037" lon="-3.51674">
        <ele>42</ele>
        <time>2019-07-17T15:35:36Z</time>
      </trkpt>
      <trkpt lat="47.80366" lon="-3.51677">
        <ele>42</ele>
        <time>2019-07-17T15:35:37Z</time>
      </trkpt>
      <trkpt lat="47.80363" lon="-3.5168">
        <ele>42</ele>
        <time>2019-07-17T15:35:38Z</time>
      </trkpt>
      <trkpt lat="47.80361" lon="-3.51683">
        <ele>42</ele>
        <time>2019-07-17T15:35:39Z</time>
      </trkpt>
      <trkpt lat="47.80358" lon="-3.51685">
        <ele>42</ele>
        <time>2019-07-17T15:35:40Z</time>
      </trkpt>
      <trkpt lat="47.80355" lon="-3.51688">
        <ele>42</ele>
        <time>2019-07-17T15:35:41Z</time>
      </trkpt>
      <trkpt lat="47.80352" lon="-3.5169">
        <ele>42</ele>
        <time>2019-07-17T15:35:42Z</time>
      </trkpt>
      <trkpt lat="47.80347" lon="-3.51692">
        <ele>42</ele>
        <time>2019-07-17T15:35:43Z</time>
      </trkpt>
      <trkpt lat="47.80343" lon="-3.51694">
        <ele>42</ele>
        <time>2019-07-17T15:35:44Z</time>
      </trkpt>
      <trkpt lat="47.80339" lon="-3.51696">
        <ele>42</ele>
        <time>2019-07-17T15:35:45Z</time>
      </trkpt>
      <trkpt lat="47.80334" lon="-3.51697">
        <ele>42</ele>
        <time>2019-07-17T15:35:46Z</time>
      </trkpt>
      <trkpt lat="47.80329" lon="-3.51697">
        <ele>42</ele>
        <time>2019-07-17T15:35:47Z</time>
      </trkpt>
      <trkpt lat="47.80324" lon="-3.51696">
        <ele>42</ele>
        <time>2019-07-17T15:35:48Z</time>
      </trkpt>
      <trkpt lat="47.80318" lon="-3.51695">
        <ele>42</ele>
        <time>2019-07-17T15:35:49Z</time>
      </trkpt>
      <trkpt lat="47.80313" lon="-3.51695">
        <ele>42</ele>
        <time>2019-07-17T15:35:50Z</time>
      </trkpt>
      <trkpt lat="47.80307" lon="-3.51695">
        <ele>42</ele>
        <time>2019-07-17T15:35:51Z</time>
      </trkpt>
      <trkpt lat="47.80303" lon="-3.51694">
        <ele>42</ele>
        <time>2019-07-17T15:35:52Z</time>
      </trkpt>
      <trkpt lat="47.80297" lon="-3.51694">
        <ele>42</ele>
        <time>2019-07-17T15:35:53Z</time>
      </trkpt>
      <trkpt lat="47.80292" lon="-3.51694">
        <ele>41</ele>
        <time>2019-07-17T15:35:54Z</time>
      </trkpt>
      <trkpt lat="47.80287" lon="-3.51693">
        <ele>41</ele>
        <time>2019-07-17T15:35:55Z</time>
      </trkpt>
      <trkpt lat="47.80283" lon="-3.51692">
        <ele>41</ele>
        <time>2019-07-17T15:35:56Z</time>
      </trkpt>
      <trkpt lat="47.80278" lon="-3.5169">
        <ele>41</ele>
        <time>2019-07-17T15:35:57Z</time>
      </trkpt>
      <trkpt lat="47.80273" lon="-3.51689">
        <ele>41</ele>
        <time>2019-07-17T15:35:58Z</time>
      </trkpt>
      <trkpt lat="47.80269" lon="-3.51687">
        <ele>41</ele>
        <time>2019-07-17T15:35:59Z</time>
      </trkpt>
      <trkpt lat="47.80264" lon="-3.51687">
        <ele>41</ele>
        <time>2019-07-17T15:36:00Z</time>
      </trkpt>
      <trkpt lat="47.8026" lon="-3.51685">
        <ele>41</ele>
        <time>2019-07-17T15:36:01Z</time>
      </trkpt>
      <trkpt lat="47.80253" lon="-3.51684">
        <ele>41</ele>
        <time>2019-07-17T15:36:02Z</time>
      </trkpt>
      <trkpt lat="47.80247" lon="-3.51683">
        <ele>40</ele>
        <time>2019-07-17T15:36:03Z</time>
      </trkpt>
      <trkpt lat="47.80239" lon="-3.51684">
        <ele>40</ele>
        <time>2019-07-17T15:36:04Z</time>
      </trkpt>
      <trkpt lat="47.80231" lon="-3.51686">
        <ele>40</ele>
        <time>2019-07-17T15:36:05Z</time>
      </trkpt>
      <trkpt lat="47.80222" lon="-3.51689">
        <ele>39</ele>
        <time>2019-07-17T15:36:06Z</time>
      </trkpt>
      <trkpt lat="47.80214" lon="-3.51693">
        <ele>39</ele>
        <time>2019-07-17T15:36:07Z</time>
      </trkpt>
      <trkpt lat="47.80206" lon="-3.51695">
        <ele>38</ele>
        <time>2019-07-17T15:36:08Z</time>
      </trkpt>
      <trkpt lat="47.80198" lon="-3.51696">
        <ele>38</ele>
        <time>2019-07-17T15:36:09Z</time>
      </trkpt>
      <trkpt lat="47.80192" lon="-3.51694">
        <ele>38</ele>
        <time>2019-07-17T15:36:10Z</time>
      </trkpt>
      <trkpt lat="47.80186" lon="-3.51691">
        <ele>38</ele>
        <time>2019-07-17T15:36:11Z</time>
      </trkpt>
      <trkpt lat="47.8018" lon="-3.51689">
        <ele>37</ele>
        <time>2019-07-17T15:36:12Z</time>
      </trkpt>
      <trkpt lat="47.80174" lon="-3.51687">
        <ele>37</ele>
        <time>2019-07-17T15:36:13Z</time>
      </trkpt>
      <trkpt lat="47.80168" lon="-3.51684">
        <ele>37</ele>
        <time>2019-07-17T15:36:14Z</time>
      </trkpt>
      <trkpt lat="47.80162" lon="-3.51683">
        <ele>37</ele>
        <time>2019-07-17T15:36:15Z</time>
      </trkpt>
      <trkpt lat="47.80158" lon="-3.5168">
        <ele>37</ele>
        <time>2019-07-17T15:36:16Z</time>
      </trkpt>
      <trkpt lat="47.80153" lon="-3.51677">
        <ele>37</ele>
        <time>2019-07-17T15:36:17Z</time>
      </trkpt>
      <trkpt lat="47.80148" lon="-3.51675">
        <ele>36</ele>
        <time>2019-07-17T15:36:18Z</time>
      </trkpt>
      <trkpt lat="47.80144" lon="-3.51675">
        <ele>36</ele>
        <time>2019-07-17T15:36:19Z</time>
      </trkpt>
      <trkpt lat="47.8014" lon="-3.51677">
        <ele>36</ele>
        <time>2019-07-17T15:36:20Z</time>
      </trkpt>
      <trkpt lat="47.80137" lon="-3.5168">
        <ele>36</ele>
        <time>2019-07-17T15:36:21Z</time>
      </trkpt>
      <trkpt lat="47.80136" lon="-3.51684">
        <ele>36</ele>
        <time>2019-07-17T15:36:22Z</time>
      </trkpt>
      <trkpt lat="47.80134" lon="-3.51689">
        <ele>36</ele>
        <time>2019-07-17T15:36:23Z</time>
      </trkpt>
      <trkpt lat="47.80133" lon="-3.51694">
        <ele>36</ele>
        <time>2019-07-17T15:36:24Z</time>
      </trkpt>
      <trkpt lat="47.80132" lon="-3.51698">
        <ele>36</ele>
        <time>2019-07-17T15:36:25Z</time>
      </trkpt>
      <trkpt lat="47.80131" lon="-3.51702">
        <ele>36</ele>
        <time>2019-07-17T15:36:26Z</time>
      </trkpt>
      <trkpt lat="47.8013" lon="-3.51705">
        <ele>36</ele>
        <time>2019-07-17T15:36:27Z</time>
      </trkpt>
      <trkpt lat="47.80129" lon="-3.51709">
        <ele>36</ele>
        <time>2019-07-17T15:36:28Z</time>
      </trkpt>
      <trkpt lat="47.80128" lon="-3.51713">
        <ele>37</ele>
        <time>2019-07-17T15:36:29Z</time>
      </trkpt>
      <trkpt lat="47.80127" lon="-3.51717">
        <ele>37</ele>
        <time>2019-07-17T15:36:30Z</time>
      </trkpt>
      <trkpt lat="47.80126" lon="-3.51721">
        <ele>37</ele>
        <time>2019-07-17T15:36:31Z</time>
      </trkpt>
      <trkpt lat="47.80125" lon="-3.51726">
        <ele>37</ele>
        <time>2019-07-17T15:36:32Z</time>
      </trkpt>
      <trkpt lat="47.80123" lon="-3.5173">
        <ele>38</ele>
        <time>2019-07-17T15:36:33Z</time>
      </trkpt>
      <trkpt lat="47.80121" lon="-3.51734">
        <ele>38</ele>
        <time>2019-07-17T15:36:34Z</time>
      </trkpt>
      <trkpt lat="47.80119" lon="-3.51737">
        <ele>38</ele>
        <time>2019-07-17T15:36:35Z</time>
      </trkpt>
      <trkpt lat="47.80116" lon="-3.51741">
        <ele>38</ele>
        <time>2019-07-17T15:36:36Z</time>
      </trkpt>
      <trkpt lat="47.80113" lon="-3.51744">
        <ele>38</ele>
        <time>2019-07-17T15:36:37Z</time>
      </trkpt>
      <trkpt lat="47.8011" lon="-3.51749">
        <ele>39</ele>
        <time>2019-07-17T15:36:38Z</time>
      </trkpt>
      <trkpt lat="47.80106" lon="-3.51755">
        <ele>39</ele>
        <time>2019-07-17T15:36:39Z</time>
      </trkpt>
      <trkpt lat="47.80103" lon="-3.51762">
        <ele>39</ele>
        <time>2019-07-17T15:36:40Z</time>
      </trkpt>
      <trkpt lat="47.80099" lon="-3.51768">
        <ele>39</ele>
        <time>2019-07-17T15:36:41Z</time>
      </trkpt>
      <trkpt lat="47.80094" lon="-3.51774">
        <ele>39</ele>
        <time>2019-07-17T15:36:42Z</time>
      </trkpt>
      <trkpt lat="47.80088" lon="-3.5178">
        <ele>39</ele>
        <time>2019-07-17T15:36:43Z</time>
      </trkpt>
      <trkpt lat="47.80081" lon="-3.51786">
        <ele>39</ele>
        <time>2019-07-17T15:36:44Z</time>
      </trkpt>
      <trkpt lat="47.80074" lon="-3.51791">
        <ele>40</ele>
        <time>2019-07-17T15:36:45Z</time>
      </trkpt>
      <trkpt lat="47.80066" lon="-3.51796">
        <ele>40</ele>
        <time>2019-07-17T15:36:46Z</time>
      </trkpt>
      <trkpt lat="47.8006" lon="-3.51801">
        <ele>40</ele>
        <time>2019-07-17T15:36:47Z</time>
      </trkpt>
      <trkpt lat="47.80056" lon="-3.51804">
        <ele>40</ele>
        <time>2019-07-17T15:36:48Z</time>
      </trkpt>
      <trkpt lat="47.80052" lon="-3.51806">
        <ele>40</ele>
        <time>2019-07-17T15:36:49Z</time>
      </trkpt>
      <trkpt lat="47.80049" lon="-3.51808">
        <ele>40</ele>
        <time>2019-07-17T15:36:50Z</time>
      </trkpt>
      <trkpt lat="47.80046" lon="-3.51809">
        <ele>40</ele>
        <time>2019-07-17T15:36:51Z</time>
      </trkpt>
      <trkpt lat="47.80043" lon="-3.51809">
        <ele>40</ele>
        <time>2019-07-17T15:36:52Z</time>
      </trkpt>
      <trkpt lat="47.80039" lon="-3.51809">
        <ele>40</ele>
        <time>2019-07-17T15:36:53Z</time>
      </trkpt>
      <trkpt lat="47.80036" lon="-3.51808">
        <ele>40</ele>
        <time>2019-07-17T15:36:54Z</time>
      </trkpt>
      <trkpt lat="47.80032" lon="-3.51807">
        <ele>40</ele>
        <time>2019-07-17T15:36:55Z</time>
      </trkpt>
      <trkpt lat="47.80029" lon="-3.51806">
        <ele>40</ele>
        <time>2019-07-17T15:36:56Z</time>
      </trkpt>
      <trkpt lat="47.80026" lon="-3.51804">
        <ele>40</ele>
        <time>2019-07-17T15:36:57Z</time>
      </trkpt>
      <trkpt lat="47.80023" lon="-3.51802">
        <ele>40</ele>
        <time>2019-07-17T15:36:58Z</time>
      </trkpt>
      <trkpt lat="47.80021" lon="-3.518">
        <ele>40</ele>
        <time>2019-07-17T15:36:59Z</time>
      </trkpt>
      <trkpt lat="47.80019" lon="-3.51798">
        <ele>40</ele>
        <time>2019-07-17T15:37:00Z</time>
      </trkpt>
      <trkpt lat="47.80017" lon="-3.51796">
        <ele>40</ele>
        <time>2019-07-17T15:37:01Z</time>
      </trkpt>
      <trkpt lat="47.80015" lon="-3.51794">
        <ele>40</ele>
        <time>2019-07-17T15:37:02Z</time>
      </trkpt>
      <trkpt lat="47.80013" lon="-3.51792">
        <ele>40</ele>
        <time>2019-07-17T15:37:03Z</time>
      </trkpt>
      <trkpt lat="47.80011" lon="-3.51791">
        <ele>40</ele>
        <time>2019-07-17T15:37:04Z</time>
      </trkpt>
      <trkpt lat="47.80008" lon="-3.5179">
        <ele>40</ele>
        <time>2019-07-17T15:37:05Z</time>
      </trkpt>
      <trkpt lat="47.80006" lon="-3.51789">
        <ele>40</ele>
        <time>2019-07-17T15:37:06Z</time>
      </trkpt>
      <trkpt lat="47.80003" lon="-3.51788">
        <ele>40</ele>
        <time>2019-07-17T15:37:07Z</time>
      </trkpt>
      <trkpt lat="47.8" lon="-3.51787">
        <ele>40</ele>
        <time>2019-07-17T15:37:08Z</time>
      </trkpt>
      <trkpt lat="47.79998" lon="-3.51786">
        <ele>40</ele>
        <time>2019-07-17T15:37:09Z</time>
      </trkpt>
      <trkpt lat="47.79995" lon="-3.51786">
        <ele>40</ele>
        <time>2019-07-17T15:37:10Z</time>
      </trkpt>
      <trkpt lat="47.79992" lon="-3.51786">
        <ele>40</ele>
        <time>2019-07-17T15:37:11Z</time>
      </trkpt>
      <trkpt lat="47.79989" lon="-3.51785">
        <ele>40</ele>
        <time>2019-07-17T15:37:12Z</time>
      </trkpt>
      <trkpt lat="47.79986" lon="-3.51784">
        <ele>40</ele>
        <time>2019-07-17T15:37:13Z</time>
      </trkpt>
      <trkpt lat="47.79983" lon="-3.51783">
        <ele>40</ele>
        <time>2019-07-17T15:37:14Z</time>
      </trkpt>
      <trkpt lat="47.79979" lon="-3.51783">
        <ele>40</ele>
        <time>2019-07-17T15:37:15Z</time>
      </trkpt>
      <trkpt lat="47.79977" lon="-3.51783">
        <ele>40</ele>
        <time>2019-07-17T15:37:16Z</time>
      </trkpt>
      <trkpt lat="47.79974" lon="-3.51783">
        <ele>40</ele>
        <time>2019-07-17T15:37:17Z</time>
      </trkpt>
      <trkpt lat="47.79971" lon="-3.51783">
        <ele>40</ele>
        <time>2019-07-17T15:37:18Z</time>
      </trkpt>
      <trkpt lat="47.79968" lon="-3.51783">
        <ele>41</ele>
        <time>2019-07-17T15:37:19Z</time>
      </trkpt>
      <trkpt lat="47.79965" lon="-3.51783">
        <ele>41</ele>
        <time>2019-07-17T15:37:20Z</time>
      </trkpt>
      <trkpt lat="47.79961" lon="-3.51783">
        <ele>41</ele>
        <time>2019-07-17T15:37:21Z</time>
      </trkpt>
      <trkpt lat="47.79958" lon="-3.51783">
        <ele>41</ele>
        <time>2019-07-17T15:37:22Z</time>
      </trkpt>
      <trkpt lat="47.79954" lon="-3.51783">
        <ele>41</ele>
        <time>2019-07-17T15:37:23Z</time>
      </trkpt>
      <trkpt lat="47.79951" lon="-3.51784">
        <ele>42</ele>
        <time>2019-07-17T15:37:24Z</time>
      </trkpt>
      <trkpt lat="47.79948" lon="-3.51784">
        <ele>42</ele>
        <time>2019-07-17T15:37:25Z</time>
      </trkpt>
      <trkpt lat="47.79946" lon="-3.51784">
        <ele>42</ele>
        <time>2019-07-17T15:37:26Z</time>
      </trkpt>
      <trkpt lat="47.79942" lon="-3.51785">
        <ele>42</ele>
        <time>2019-07-17T15:37:27Z</time>
      </trkpt>
      <trkpt lat="47.79939" lon="-3.51785">
        <ele>42</ele>
        <time>2019-07-17T15:37:28Z</time>
      </trkpt>
      <trkpt lat="47.79935" lon="-3.51785">
        <ele>42</ele>
        <time>2019-07-17T15:37:29Z</time>
      </trkpt>
      <trkpt lat="47.79932" lon="-3.51785">
        <ele>42</ele>
        <time>2019-07-17T15:37:30Z</time>
      </trkpt>
      <trkpt lat="47.79929" lon="-3.51786">
        <ele>42</ele>
        <time>2019-07-17T15:37:31Z</time>
      </trkpt>
      <trkpt lat="47.79926" lon="-3.51787">
        <ele>42</ele>
        <time>2019-07-17T15:37:32Z</time>
      </trkpt>
      <trkpt lat="47.79922" lon="-3.51788">
        <ele>42</ele>
        <time>2019-07-17T15:37:33Z</time>
      </trkpt>
      <trkpt lat="47.79918" lon="-3.51789">
        <ele>42</ele>
        <time>2019-07-17T15:37:34Z</time>
      </trkpt>
      <trkpt lat="47.79915" lon="-3.5179">
        <ele>43</ele>
        <time>2019-07-17T15:37:35Z</time>
      </trkpt>
      <trkpt lat="47.79911" lon="-3.51793">
        <ele>43</ele>
        <time>2019-07-17T15:37:36Z</time>
      </trkpt>
      <trkpt lat="47.79906" lon="-3.51796">
        <ele>43</ele>
        <time>2019-07-17T15:37:37Z</time>
      </trkpt>
      <trkpt lat="47.79902" lon="-3.51798">
        <ele>43</ele>
        <time>2019-07-17T15:37:38Z</time>
      </trkpt>
      <trkpt lat="47.79897" lon="-3.51801">
        <ele>43</ele>
        <time>2019-07-17T15:37:39Z</time>
      </trkpt>
      <trkpt lat="47.79892" lon="-3.51804">
        <ele>44</ele>
        <time>2019-07-17T15:37:40Z</time>
      </trkpt>
      <trkpt lat="47.79887" lon="-3.51806">
        <ele>44</ele>
        <time>2019-07-17T15:37:41Z</time>
      </trkpt>
      <trkpt lat="47.79883" lon="-3.51809">
        <ele>44</ele>
        <time>2019-07-17T15:37:42Z</time>
      </trkpt>
      <trkpt lat="47.79878" lon="-3.51812">
        <ele>44</ele>
        <time>2019-07-17T15:37:43Z</time>
      </trkpt>
      <trkpt lat="47.79873" lon="-3.51816">
        <ele>44</ele>
        <time>2019-07-17T15:37:44Z</time>
      </trkpt>
      <trkpt lat="47.79869" lon="-3.5182">
        <ele>44</ele>
        <time>2019-07-17T15:37:45Z</time>
      </trkpt>
      <trkpt lat="47.79865" lon="-3.51823">
        <ele>44</ele>
        <time>2019-07-17T15:37:46Z</time>
      </trkpt>
      <trkpt lat="47.79861" lon="-3.51825">
        <ele>44</ele>
        <time>2019-07-17T15:37:47Z</time>
      </trkpt>
      <trkpt lat="47.79858" lon="-3.51828">
        <ele>44</ele>
        <time>2019-07-17T15:37:48Z</time>
      </trkpt>
      <trkpt lat="47.79854" lon="-3.51831">
        <ele>45</ele>
        <time>2019-07-17T15:37:49Z</time>
      </trkpt>
      <trkpt lat="47.79849" lon="-3.51835">
        <ele>45</ele>
        <time>2019-07-17T15:37:50Z</time>
      </trkpt>
      <trkpt lat="47.79845" lon="-3.51838">
        <ele>45</ele>
        <time>2019-07-17T15:37:51Z</time>
      </trkpt>
      <trkpt lat="47.79841" lon="-3.51842">
        <ele>45</ele>
        <time>2019-07-17T15:37:52Z</time>
      </trkpt>
      <trkpt lat="47.79836" lon="-3.51846">
        <ele>45</ele>
        <time>2019-07-17T15:37:53Z</time>
      </trkpt>
      <trkpt lat="47.79831" lon="-3.5185">
        <ele>45</ele>
        <time>2019-07-17T15:37:54Z</time>
      </trkpt>
      <trkpt lat="47.79826" lon="-3.51853">
        <ele>45</ele>
        <time>2019-07-17T15:37:55Z</time>
      </trkpt>
      <trkpt lat="47.79821" lon="-3.51857">
        <ele>45</ele>
        <time>2019-07-17T15:37:56Z</time>
      </trkpt>
      <trkpt lat="47.79815" lon="-3.51859">
        <ele>45</ele>
        <time>2019-07-17T15:37:57Z</time>
      </trkpt>
      <trkpt lat="47.7981" lon="-3.51863">
        <ele>45</ele>
        <time>2019-07-17T15:37:58Z</time>
      </trkpt>
      <trkpt lat="47.79804" lon="-3.51867">
        <ele>45</ele>
        <time>2019-07-17T15:37:59Z</time>
      </trkpt>
      <trkpt lat="47.79799" lon="-3.51871">
        <ele>45</ele>
        <time>2019-07-17T15:38:00Z</time>
      </trkpt>
      <trkpt lat="47.79793" lon="-3.51875">
        <ele>45</ele>
        <time>2019-07-17T15:38:01Z</time>
      </trkpt>
      <trkpt lat="47.79786" lon="-3.51878">
        <ele>45</ele>
        <time>2019-07-17T15:38:02Z</time>
      </trkpt>
      <trkpt lat="47.79779" lon="-3.51881">
        <ele>45</ele>
        <time>2019-07-17T15:38:03Z</time>
      </trkpt>
      <trkpt lat="47.79773" lon="-3.51882">
        <ele>45</ele>
        <time>2019-07-17T15:38:04Z</time>
      </trkpt>
      <trkpt lat="47.79767" lon="-3.51884">
        <ele>45</ele>
        <time>2019-07-17T15:38:05Z</time>
      </trkpt>
      <trkpt lat="47.79762" lon="-3.51884">
        <ele>45</ele>
        <time>2019-07-17T15:38:06Z</time>
      </trkpt>
      <trkpt lat="47.79759" lon="-3.51885">
        <ele>45</ele>
        <time>2019-07-17T15:38:07Z</time>
      </trkpt>
      <trkpt lat="47.79755" lon="-3.51887">
        <ele>45</ele>
        <time>2019-07-17T15:38:08Z</time>
      </trkpt>
      <trkpt lat="47.79752" lon="-3.51889">
        <ele>45</ele>
        <time>2019-07-17T15:38:09Z</time>
      </trkpt>
      <trkpt lat="47.79747" lon="-3.51892">
        <ele>45</ele>
        <time>2019-07-17T15:38:10Z</time>
      </trkpt>
      <trkpt lat="47.79743" lon="-3.51895">
        <ele>45</ele>
        <time>2019-07-17T15:38:11Z</time>
      </trkpt>
      <trkpt lat="47.79738" lon="-3.51898">
        <ele>45</ele>
        <time>2019-07-17T15:38:12Z</time>
      </trkpt>
      <trkpt lat="47.79735" lon="-3.51903">
        <ele>45</ele>
        <time>2019-07-17T15:38:13Z</time>
      </trkpt>
      <trkpt lat="47.7973" lon="-3.51907">
        <ele>45</ele>
        <time>2019-07-17T15:38:14Z</time>
      </trkpt>
      <trkpt lat="47.79726" lon="-3.5191">
        <ele>45</ele>
        <time>2019-07-17T15:38:15Z</time>
      </trkpt>
      <trkpt lat="47.79722" lon="-3.51913">
        <ele>44</ele>
        <time>2019-07-17T15:38:16Z</time>
      </trkpt>
      <trkpt lat="47.79718" lon="-3.51916">
        <ele>44</ele>
        <time>2019-07-17T15:38:17Z</time>
      </trkpt>
      <trkpt lat="47.79714" lon="-3.51918">
        <ele>44</ele>
        <time>2019-07-17T15:38:18Z</time>
      </trkpt>
      <trkpt lat="47.7971" lon="-3.51921">
        <ele>44</ele>
        <time>2019-07-17T15:38:19Z</time>
      </trkpt>
      <trkpt lat="47.79706" lon="-3.51924">
        <ele>44</ele>
        <time>2019-07-17T15:38:20Z</time>
      </trkpt>
      <trkpt lat="47.79703" lon="-3.51927">
        <ele>44</ele>
        <time>2019-07-17T15:38:21Z</time>
      </trkpt>
      <trkpt lat="47.79699" lon="-3.5193">
        <ele>44</ele>
        <time>2019-07-17T15:38:22Z</time>
      </trkpt>
      <trkpt lat="47.79696" lon="-3.51933">
        <ele>44</ele>
        <time>2019-07-17T15:38:23Z</time>
      </trkpt>
      <trkpt lat="47.79693" lon="-3.51936">
        <ele>44</ele>
        <time>2019-07-17T15:38:24Z</time>
      </trkpt>
      <trkpt lat="47.7969" lon="-3.5194">
        <ele>44</ele>
        <time>2019-07-17T15:38:25Z</time>
      </trkpt>
      <trkpt lat="47.79686" lon="-3.51944">
        <ele>45</ele>
        <time>2019-07-17T15:38:26Z</time>
      </trkpt>
      <trkpt lat="47.79683" lon="-3.51949">
        <ele>45</ele>
        <time>2019-07-17T15:38:27Z</time>
      </trkpt>
      <trkpt lat="47.7968" lon="-3.51954">
        <ele>45</ele>
        <time>2019-07-17T15:38:28Z</time>
      </trkpt>
      <trkpt lat="47.79676" lon="-3.51957">
        <ele>45</ele>
        <time>2019-07-17T15:38:29Z</time>
      </trkpt>
      <trkpt lat="47.79672" lon="-3.5196">
        <ele>45</ele>
        <time>2019-07-17T15:38:30Z</time>
      </trkpt>
      <trkpt lat="47.79668" lon="-3.51962">
        <ele>45</ele>
        <time>2019-07-17T15:38:31Z</time>
      </trkpt>
      <trkpt lat="47.79664" lon="-3.51966">
        <ele>46</ele>
        <time>2019-07-17T15:38:32Z</time>
      </trkpt>
      <trkpt lat="47.7966" lon="-3.51969">
        <ele>46</ele>
        <time>2019-07-17T15:38:33Z</time>
      </trkpt>
      <trkpt lat="47.79656" lon="-3.51972">
        <ele>46</ele>
        <time>2019-07-17T15:38:34Z</time>
      </trkpt>
      <trkpt lat="47.79652" lon="-3.51976">
        <ele>46</ele>
        <time>2019-07-17T15:38:35Z</time>
      </trkpt>
      <trkpt lat="47.79647" lon="-3.51979">
        <ele>46</ele>
        <time>2019-07-17T15:38:36Z</time>
      </trkpt>
      <trkpt lat="47.79643" lon="-3.51983">
        <ele>46</ele>
        <time>2019-07-17T15:38:37Z</time>
      </trkpt>
      <trkpt lat="47.79639" lon="-3.51987">
        <ele>46</ele>
        <time>2019-07-17T15:38:38Z</time>
      </trkpt>
      <trkpt lat="47.79636" lon="-3.51992">
        <ele>46</ele>
        <time>2019-07-17T15:38:39Z</time>
      </trkpt>
      <trkpt lat="47.79632" lon="-3.51997">
        <ele>46</ele>
        <time>2019-07-17T15:38:40Z</time>
      </trkpt>
      <trkpt lat="47.79628" lon="-3.52002">
        <ele>46</ele>
        <time>2019-07-17T15:38:41Z</time>
      </trkpt>
      <trkpt lat="47.79624" lon="-3.52009">
        <ele>46</ele>
        <time>2019-07-17T15:38:42Z</time>
      </trkpt>
      <trkpt lat="47.7962" lon="-3.52016">
        <ele>46</ele>
        <time>2019-07-17T15:38:43Z</time>
      </trkpt>
      <trkpt lat="47.79617" lon="-3.52025">
        <ele>46</ele>
        <time>2019-07-17T15:38:44Z</time>
      </trkpt>
      <trkpt lat="47.79614" lon="-3.52033">
        <ele>46</ele>
        <time>2019-07-17T15:38:45Z</time>
      </trkpt>
      <trkpt lat="47.79613" lon="-3.52042">
        <ele>46</ele>
        <time>2019-07-17T15:38:46Z</time>
      </trkpt>
      <trkpt lat="47.79611" lon="-3.52052">
        <ele>45</ele>
        <time>2019-07-17T15:38:47Z</time>
      </trkpt>
      <trkpt lat="47.79608" lon="-3.52062">
        <ele>45</ele>
        <time>2019-07-17T15:38:48Z</time>
      </trkpt>
      <trkpt lat="47.79604" lon="-3.52071">
        <ele>45</ele>
        <time>2019-07-17T15:38:49Z</time>
      </trkpt>
      <trkpt lat="47.79601" lon="-3.5208">
        <ele>45</ele>
        <time>2019-07-17T15:38:50Z</time>
      </trkpt>
      <trkpt lat="47.79597" lon="-3.52088">
        <ele>45</ele>
        <time>2019-07-17T15:38:51Z</time>
      </trkpt>
      <trkpt lat="47.79594" lon="-3.52097">
        <ele>44</ele>
        <time>2019-07-17T15:38:52Z</time>
      </trkpt>
      <trkpt lat="47.7959" lon="-3.52107">
        <ele>44</ele>
        <time>2019-07-17T15:38:53Z</time>
      </trkpt>
      <trkpt lat="47.79587" lon="-3.52117">
        <ele>44</ele>
        <time>2019-07-17T15:38:54Z</time>
      </trkpt>
      <trkpt lat="47.79585" lon="-3.5213">
        <ele>44</ele>
        <time>2019-07-17T15:38:55Z</time>
      </trkpt>
      <trkpt lat="47.79585" lon="-3.52143">
        <ele>43</ele>
        <time>2019-07-17T15:38:56Z</time>
      </trkpt>
      <trkpt lat="47.79585" lon="-3.52157">
        <ele>43</ele>
        <time>2019-07-17T15:38:57Z</time>
      </trkpt>
      <trkpt lat="47.79586" lon="-3.5217">
        <ele>43</ele>
        <time>2019-07-17T15:38:58Z</time>
      </trkpt>
      <trkpt lat="47.79587" lon="-3.52184">
        <ele>42</ele>
        <time>2019-07-17T15:38:59Z</time>
      </trkpt>
      <trkpt lat="47.7959" lon="-3.52196">
        <ele>42</ele>
        <time>2019-07-17T15:39:00Z</time>
      </trkpt>
      <trkpt lat="47.79593" lon="-3.52208">
        <ele>41</ele>
        <time>2019-07-17T15:39:01Z</time>
      </trkpt>
      <trkpt lat="47.79595" lon="-3.52219">
        <ele>40</ele>
        <time>2019-07-17T15:39:02Z</time>
      </trkpt>
      <trkpt lat="47.79596" lon="-3.52227">
        <ele>40</ele>
        <time>2019-07-17T15:39:03Z</time>
      </trkpt>
      <trkpt lat="47.79598" lon="-3.52234">
        <ele>39</ele>
        <time>2019-07-17T15:39:04Z</time>
      </trkpt>
      <trkpt lat="47.796" lon="-3.5224">
        <ele>39</ele>
        <time>2019-07-17T15:39:05Z</time>
      </trkpt>
      <trkpt lat="47.79601" lon="-3.52247">
        <ele>38</ele>
        <time>2019-07-17T15:39:06Z</time>
      </trkpt>
      <trkpt lat="47.79602" lon="-3.52255">
        <ele>37</ele>
        <time>2019-07-17T15:39:07Z</time>
      </trkpt>
      <trkpt lat="47.79602" lon="-3.52263">
        <ele>37</ele>
        <time>2019-07-17T15:39:08Z</time>
      </trkpt>
      <trkpt lat="47.79601" lon="-3.52271">
        <ele>36</ele>
        <time>2019-07-17T15:39:09Z</time>
      </trkpt>
      <trkpt lat="47.796" lon="-3.52281">
        <ele>35</ele>
        <time>2019-07-17T15:39:10Z</time>
      </trkpt>
      <trkpt lat="47.79599" lon="-3.5229">
        <ele>35</ele>
        <time>2019-07-17T15:39:11Z</time>
      </trkpt>
      <trkpt lat="47.79598" lon="-3.52298">
        <ele>34</ele>
        <time>2019-07-17T15:39:12Z</time>
      </trkpt>
      <trkpt lat="47.79597" lon="-3.52306">
        <ele>34</ele>
        <time>2019-07-17T15:39:13Z</time>
      </trkpt>
      <trkpt lat="47.79597" lon="-3.52314">
        <ele>33</ele>
        <time>2019-07-17T15:39:14Z</time>
      </trkpt>
      <trkpt lat="47.79597" lon="-3.52322">
        <ele>33</ele>
        <time>2019-07-17T15:39:15Z</time>
      </trkpt>
      <trkpt lat="47.79595" lon="-3.52329">
        <ele>33</ele>
        <time>2019-07-17T15:39:16Z</time>
      </trkpt>
      <trkpt lat="47.79595" lon="-3.52333">
        <ele>32</ele>
        <time>2019-07-17T15:39:17Z</time>
      </trkpt>
      <trkpt lat="47.79597" lon="-3.52336">
        <ele>32</ele>
        <time>2019-07-17T15:39:18Z</time>
      </trkpt>
      <trkpt lat="47.79598" lon="-3.5234">
        <ele>32</ele>
        <time>2019-07-17T15:39:19Z</time>
      </trkpt>
      <trkpt lat="47.79601" lon="-3.52344">
        <ele>31</ele>
        <time>2019-07-17T15:39:20Z</time>
      </trkpt>
      <trkpt lat="47.79603" lon="-3.52349">
        <ele>31</ele>
        <time>2019-07-17T15:39:21Z</time>
      </trkpt>
      <trkpt lat="47.79605" lon="-3.52353">
        <ele>30</ele>
        <time>2019-07-17T15:39:22Z</time>
      </trkpt>
      <trkpt lat="47.79606" lon="-3.52356">
        <ele>29</ele>
        <time>2019-07-17T15:39:23Z</time>
      </trkpt>
      <trkpt lat="47.79606" lon="-3.52358">
        <ele>29</ele>
        <time>2019-07-17T15:39:24Z</time>
      </trkpt>
      <trkpt lat="47.79606" lon="-3.52359">
        <ele>28</ele>
        <time>2019-07-17T15:39:25Z</time>
      </trkpt>
      <trkpt lat="47.79606" lon="-3.52361">
        <ele>28</ele>
        <time>2019-07-17T15:39:26Z</time>
      </trkpt>
      <trkpt lat="47.79607" lon="-3.52362">
        <ele>28</ele>
        <time>2019-07-17T15:39:27Z</time>
      </trkpt>
      <trkpt lat="47.79607" lon="-3.52363">
        <ele>27</ele>
        <time>2019-07-17T15:39:28Z</time>
      </trkpt>
      <trkpt lat="47.79607" lon="-3.52364">
        <ele>27</ele>
        <time>2019-07-17T15:39:29Z</time>
      </trkpt>
      <trkpt lat="47.79608" lon="-3.52366">
        <ele>27</ele>
        <time>2019-07-17T15:39:30Z</time>
      </trkpt>
      <trkpt lat="47.79608" lon="-3.52367">
        <ele>27</ele>
        <time>2019-07-17T15:39:31Z</time>
      </trkpt>
      <trkpt lat="47.79608" lon="-3.52368">
        <ele>26</ele>
        <time>2019-07-17T15:39:32Z</time>
      </trkpt>
      <trkpt lat="47.79608" lon="-3.52369">
        <ele>26</ele>
        <time>2019-07-17T15:39:33Z</time>
      </trkpt>
      <trkpt lat="47.79606" lon="-3.52373">
        <ele>25</ele>
        <time>2019-07-17T15:39:34Z</time>
      </trkpt>
      <trkpt lat="47.79604" lon="-3.52374">
        <ele>24</ele>
        <time>2019-07-17T15:39:35Z</time>
      </trkpt>
      <trkpt lat="47.79602" lon="-3.52375">
        <ele>24</ele>
        <time>2019-07-17T15:39:36Z</time>
      </trkpt>
      <trkpt lat="47.796" lon="-3.52376">
        <ele>24</ele>
        <time>2019-07-17T15:39:37Z</time>
      </trkpt>
      <trkpt lat="47.79598" lon="-3.52377">
        <ele>23</ele>
        <time>2019-07-17T15:39:38Z</time>
      </trkpt>
      <trkpt lat="47.79595" lon="-3.52378">
        <ele>23</ele>
        <time>2019-07-17T15:39:39Z</time>
      </trkpt>
      <trkpt lat="47.79594" lon="-3.5238">
        <ele>22</ele>
        <time>2019-07-17T15:39:40Z</time>
      </trkpt>
      <trkpt lat="47.79594" lon="-3.5238">
        <ele>22</ele>
        <time>2019-07-17T15:39:41Z</time>
      </trkpt>
      <trkpt lat="47.79593" lon="-3.5238">
        <ele>22</ele>
        <time>2019-07-17T15:39:42Z</time>
      </trkpt>
      <trkpt lat="47.79596" lon="-3.52382">
        <ele>21</ele>
        <time>2019-07-17T15:39:43Z</time>
      </trkpt>
      <trkpt lat="47.79598" lon="-3.52381">
        <ele>21</ele>
        <time>2019-07-17T15:39:44Z</time>
      </trkpt>
      <trkpt lat="47.79601" lon="-3.5238">
        <ele>21</ele>
        <time>2019-07-17T15:39:45Z</time>
      </trkpt>
      <trkpt lat="47.79604" lon="-3.5238">
        <ele>21</ele>
        <time>2019-07-17T15:39:46Z</time>
      </trkpt>
      <trkpt lat="47.79608" lon="-3.52379">
        <ele>21</ele>
        <time>2019-07-17T15:39:47Z</time>
      </trkpt>
      <trkpt lat="47.79611" lon="-3.52377">
        <ele>21</ele>
        <time>2019-07-17T15:39:48Z</time>
      </trkpt>
      <trkpt lat="47.79615" lon="-3.52376">
        <ele>21</ele>
        <time>2019-07-17T15:39:49Z</time>
      </trkpt>
      <trkpt lat="47.79618" lon="-3.52375">
        <ele>21</ele>
        <time>2019-07-17T15:39:50Z</time>
      </trkpt>
      <trkpt lat="47.79622" lon="-3.52374">
        <ele>21</ele>
        <time>2019-07-17T15:39:51Z</time>
      </trkpt>
      <trkpt lat="47.79625" lon="-3.52373">
        <ele>21</ele>
        <time>2019-07-17T15:39:52Z</time>
      </trkpt>
      <trkpt lat="47.79628" lon="-3.52372">
        <ele>21</ele>
        <time>2019-07-17T15:39:53Z</time>
      </trkpt>
      <trkpt lat="47.79631" lon="-3.52371">
        <ele>21</ele>
        <time>2019-07-17T15:39:54Z</time>
      </trkpt>
      <trkpt lat="47.79634" lon="-3.5237">
        <ele>21</ele>
        <time>2019-07-17T15:39:55Z</time>
      </trkpt>
      <trkpt lat="47.79638" lon="-3.52369">
        <ele>20</ele>
        <time>2019-07-17T15:39:56Z</time>
      </trkpt>
      <trkpt lat="47.79641" lon="-3.52368">
        <ele>20</ele>
        <time>2019-07-17T15:39:57Z</time>
      </trkpt>
      <trkpt lat="47.79645" lon="-3.52366">
        <ele>20</ele>
        <time>2019-07-17T15:39:58Z</time>
      </trkpt>
      <trkpt lat="47.79649" lon="-3.52365">
        <ele>19</ele>
        <time>2019-07-17T15:39:59Z</time>
      </trkpt>
      <trkpt lat="47.79653" lon="-3.52363">
        <ele>19</ele>
        <time>2019-07-17T15:40:00Z</time>
      </trkpt>
      <trkpt lat="47.79657" lon="-3.52362">
        <ele>19</ele>
        <time>2019-07-17T15:40:01Z</time>
      </trkpt>
      <trkpt lat="47.79661" lon="-3.5236">
        <ele>19</ele>
        <time>2019-07-17T15:40:02Z</time>
      </trkpt>
      <trkpt lat="47.79665" lon="-3.52358">
        <ele>18</ele>
        <time>2019-07-17T15:40:03Z</time>
      </trkpt>
      <trkpt lat="47.7967" lon="-3.52356">
        <ele>18</ele>
        <time>2019-07-17T15:40:04Z</time>
      </trkpt>
      <trkpt lat="47.79674" lon="-3.52355">
        <ele>18</ele>
        <time>2019-07-17T15:40:05Z</time>
      </trkpt>
      <trkpt lat="47.79679" lon="-3.52353">
        <ele>18</ele>
        <time>2019-07-17T15:40:06Z</time>
      </trkpt>
      <trkpt lat="47.79683" lon="-3.52351">
        <ele>17</ele>
        <time>2019-07-17T15:40:07Z</time>
      </trkpt>
      <trkpt lat="47.79688" lon="-3.5235">
        <ele>17</ele>
        <time>2019-07-17T15:40:08Z</time>
      </trkpt>
      <trkpt lat="47.79692" lon="-3.52348">
        <ele>17</ele>
        <time>2019-07-17T15:40:09Z</time>
      </trkpt>
      <trkpt lat="47.79697" lon="-3.52346">
        <ele>17</ele>
        <time>2019-07-17T15:40:10Z</time>
      </trkpt>
      <trkpt lat="47.79702" lon="-3.52344">
        <ele>16</ele>
        <time>2019-07-17T15:40:11Z</time>
      </trkpt>
      <trkpt lat="47.79706" lon="-3.52342">
        <ele>16</ele>
        <time>2019-07-17T15:40:12Z</time>
      </trkpt>
      <trkpt lat="47.79711" lon="-3.5234">
        <ele>16</ele>
        <time>2019-07-17T15:40:13Z</time>
      </trkpt>
      <trkpt lat="47.79716" lon="-3.52339">
        <ele>16</ele>
        <time>2019-07-17T15:40:14Z</time>
      </trkpt>
      <trkpt lat="47.79721" lon="-3.52337">
        <ele>16</ele>
        <time>2019-07-17T15:40:15Z</time>
      </trkpt>
      <trkpt lat="47.79726" lon="-3.52335">
        <ele>15</ele>
        <time>2019-07-17T15:40:16Z</time>
      </trkpt>
      <trkpt lat="47.79731" lon="-3.52333">
        <ele>15</ele>
        <time>2019-07-17T15:40:17Z</time>
      </trkpt>
      <trkpt lat="47.79736" lon="-3.52331">
        <ele>15</ele>
        <time>2019-07-17T15:40:18Z</time>
      </trkpt>
      <trkpt lat="47.79741" lon="-3.52329">
        <ele>15</ele>
        <time>2019-07-17T15:40:19Z</time>
      </trkpt>
      <trkpt lat="47.79745" lon="-3.52327">
        <ele>15</ele>
        <time>2019-07-17T15:40:20Z</time>
      </trkpt>
      <trkpt lat="47.7975" lon="-3.52325">
        <ele>14</ele>
        <time>2019-07-17T15:40:21Z</time>
      </trkpt>
      <trkpt lat="47.79755" lon="-3.52324">
        <ele>14</ele>
        <time>2019-07-17T15:40:22Z</time>
      </trkpt>
      <trkpt lat="47.79761" lon="-3.52322">
        <ele>14</ele>
        <time>2019-07-17T15:40:23Z</time>
      </trkpt>
      <trkpt lat="47.79766" lon="-3.5232">
        <ele>14</ele>
        <time>2019-07-17T15:40:24Z</time>
      </trkpt>
      <trkpt lat="47.79771" lon="-3.52318">
        <ele>14</ele>
        <time>2019-07-17T15:40:25Z</time>
      </trkpt>
      <trkpt lat="47.79776" lon="-3.52316">
        <ele>14</ele>
        <time>2019-07-17T15:40:26Z</time>
      </trkpt>
      <trkpt lat="47.79781" lon="-3.52314">
        <ele>13</ele>
        <time>2019-07-17T15:40:27Z</time>
      </trkpt>
      <trkpt lat="47.79786" lon="-3.52312">
        <ele>13</ele>
        <time>2019-07-17T15:40:28Z</time>
      </trkpt>
      <trkpt lat="47.79791" lon="-3.5231">
        <ele>13</ele>
        <time>2019-07-17T15:40:29Z</time>
      </trkpt>
      <trkpt lat="47.79795" lon="-3.52308">
        <ele>13</ele>
        <time>2019-07-17T15:40:30Z</time>
      </trkpt>
      <trkpt lat="47.798" lon="-3.52306">
        <ele>13</ele>
        <time>2019-07-17T15:40:31Z</time>
      </trkpt>
      <trkpt lat="47.79805" lon="-3.52305">
        <ele>13</ele>
        <time>2019-07-17T15:40:32Z</time>
      </trkpt>
      <trkpt lat="47.79809" lon="-3.52303">
        <ele>13</ele>
        <time>2019-07-17T15:40:33Z</time>
      </trkpt>
      <trkpt lat="47.79814" lon="-3.52302">
        <ele>12</ele>
        <time>2019-07-17T15:40:34Z</time>
      </trkpt>
      <trkpt lat="47.79818" lon="-3.523">
        <ele>12</ele>
        <time>2019-07-17T15:40:35Z</time>
      </trkpt>
      <trkpt lat="47.79823" lon="-3.52299">
        <ele>12</ele>
        <time>2019-07-17T15:40:36Z</time>
      </trkpt>
      <trkpt lat="47.79827" lon="-3.52298">
        <ele>12</ele>
        <time>2019-07-17T15:40:37Z</time>
      </trkpt>
      <trkpt lat="47.79831" lon="-3.52297">
        <ele>12</ele>
        <time>2019-07-17T15:40:38Z</time>
      </trkpt>
      <trkpt lat="47.79836" lon="-3.52296">
        <ele>12</ele>
        <time>2019-07-17T15:40:39Z</time>
      </trkpt>
      <trkpt lat="47.7984" lon="-3.52298">
        <ele>12</ele>
        <time>2019-07-17T15:40:40Z</time>
      </trkpt>
      <trkpt lat="47.79843" lon="-3.52302">
        <ele>12</ele>
        <time>2019-07-17T15:40:41Z</time>
      </trkpt>
      <trkpt lat="47.79843" lon="-3.52307">
        <ele>11</ele>
        <time>2019-07-17T15:40:42Z</time>
      </trkpt>
      <trkpt lat="47.79842" lon="-3.52313">
        <ele>11</ele>
        <time>2019-07-17T15:40:43Z</time>
      </trkpt>
      <trkpt lat="47.79838" lon="-3.52318">
        <ele>11</ele>
        <time>2019-07-17T15:40:44Z</time>
      </trkpt>
      <trkpt lat="47.79834" lon="-3.52322">
        <ele>11</ele>
        <time>2019-07-17T15:40:45Z</time>
      </trkpt>
      <trkpt lat="47.7983" lon="-3.52327">
        <ele>11</ele>
        <time>2019-07-17T15:40:46Z</time>
      </trkpt>
      <trkpt lat="47.79826" lon="-3.52331">
        <ele>11</ele>
        <time>2019-07-17T15:40:47Z</time>
      </trkpt>
      <trkpt lat="47.79824" lon="-3.52336">
        <ele>11</ele>
        <time>2019-07-17T15:40:48Z</time>
      </trkpt>
      <trkpt lat="47.79823" lon="-3.5234">
        <ele>11</ele>
        <time>2019-07-17T15:40:49Z</time>
      </trkpt>
      <trkpt lat="47.79822" lon="-3.52341">
        <ele>11</ele>
        <time>2019-07-17T15:40:50Z</time>
      </trkpt>
      <trkpt lat="47.79821" lon="-3.52341">
        <ele>11</ele>
        <time>2019-07-17T15:40:51Z</time>
      </trkpt>
      <trkpt lat="47.79821" lon="-3.52341">
        <ele>11</ele>
        <time>2019-07-17T15:40:52Z</time>
      </trkpt>
      <trkpt lat="47.79817" lon="-3.52338">
        <ele>11</ele>
        <time>2019-07-17T15:40:53Z</time>
      </trkpt>
      <trkpt lat="47.79818" lon="-3.52334">
        <ele>11</ele>
        <time>2019-07-17T15:40:54Z</time>
      </trkpt>
      <trkpt lat="47.7982" lon="-3.52331">
        <ele>12</ele>
        <time>2019-07-17T15:40:55Z</time>
      </trkpt>
      <trkpt lat="47.79821" lon="-3.52329">
        <ele>12</ele>
        <time>2019-07-17T15:40:56Z</time>
      </trkpt>
      <trkpt lat="47.79824" lon="-3.52327">
        <ele>12</ele>
        <time>2019-07-17T15:40:57Z</time>
      </trkpt>
      <trkpt lat="47.79826" lon="-3.52325">
        <ele>12</ele>
        <time>2019-07-17T15:40:58Z</time>
      </trkpt>
      <trkpt lat="47.79828" lon="-3.52324">
        <ele>12</ele>
        <time>2019-07-17T15:40:59Z</time>
      </trkpt>
      <trkpt lat="47.7983" lon="-3.52323">
        <ele>12</ele>
        <time>2019-07-17T15:41:00Z</time>
      </trkpt>
      <trkpt lat="47.79831" lon="-3.52322">
        <ele>12</ele>
        <time>2019-07-17T15:41:01Z</time>
      </trkpt>
      <trkpt lat="47.79833" lon="-3.5232">
        <ele>12</ele>
        <time>2019-07-17T15:41:02Z</time>
      </trkpt>
      <trkpt lat="47.79833" lon="-3.5232">
        <ele>12</ele>
        <time>2019-07-17T15:41:03Z</time>
      </trkpt>
      <trkpt lat="47.79837" lon="-3.52316">
        <ele>12</ele>
        <time>2019-07-17T15:41:04Z</time>
      </trkpt>
      <trkpt lat="47.79838" lon="-3.52314">
        <ele>12</ele>
        <time>2019-07-17T15:41:05Z</time>
      </trkpt>
      <trkpt lat="47.7984" lon="-3.52312">
        <ele>12</ele>
        <time>2019-07-17T15:41:06Z</time>
      </trkpt>
      <trkpt lat="47.7984" lon="-3.52312">
        <ele>12</ele>
        <time>2019-07-17T15:41:07Z</time>
      </trkpt>
      <trkpt lat="47.79842" lon="-3.52308">
        <ele>12</ele>
        <time>2019-07-17T15:41:08Z</time>
      </trkpt>
      <trkpt lat="47.79845" lon="-3.52301">
        <ele>12</ele>
        <time>2019-07-17T15:41:09Z</time>
      </trkpt>
      <trkpt lat="47.79847" lon="-3.523">
        <ele>12</ele>
        <time>2019-07-17T15:41:10Z</time>
      </trkpt>
      <trkpt lat="47.79847" lon="-3.523">
        <ele>12</ele>
        <time>2019-07-17T15:41:11Z</time>
      </trkpt>
      <trkpt lat="47.79849" lon="-3.52297">
        <ele>13</ele>
        <time>2019-07-17T15:41:12Z</time>
      </trkpt>
      <trkpt lat="47.7985" lon="-3.52296">
        <ele>13</ele>
        <time>2019-07-17T15:41:13Z</time>
      </trkpt>
      <trkpt lat="47.79851" lon="-3.52293">
        <ele>13</ele>
        <time>2019-07-17T15:41:14Z</time>
      </trkpt>
      <trkpt lat="47.79853" lon="-3.52289">
        <ele>13</ele>
        <time>2019-07-17T15:41:15Z</time>
      </trkpt>
      <trkpt lat="47.79855" lon="-3.52287">
        <ele>13</ele>
        <time>2019-07-17T15:41:16Z</time>
      </trkpt>
      <trkpt lat="47.79855" lon="-3.52287">
        <ele>13</ele>
        <time>2019-07-17T15:41:17Z</time>
      </trkpt>
      <trkpt lat="47.79858" lon="-3.52285">
        <ele>13</ele>
        <time>2019-07-17T15:41:18Z</time>
      </trkpt>
      <trkpt lat="47.79861" lon="-3.52285">
        <ele>13</ele>
        <time>2019-07-17T15:41:19Z</time>
      </trkpt>
      <trkpt lat="47.79867" lon="-3.52284">
        <ele>13</ele>
        <time>2019-07-17T15:41:20Z</time>
      </trkpt>
      <trkpt lat="47.7987" lon="-3.52284">
        <ele>13</ele>
        <time>2019-07-17T15:41:21Z</time>
      </trkpt>
      <trkpt lat="47.79873" lon="-3.52284">
        <ele>14</ele>
        <time>2019-07-17T15:41:22Z</time>
      </trkpt>
      <trkpt lat="47.79877" lon="-3.52284">
        <ele>14</ele>
        <time>2019-07-17T15:41:23Z</time>
      </trkpt>
      <trkpt lat="47.79877" lon="-3.52284">
        <ele>14</ele>
        <time>2019-07-17T15:41:24Z</time>
      </trkpt>
      <trkpt lat="47.7988" lon="-3.52283">
        <ele>14</ele>
        <time>2019-07-17T15:41:25Z</time>
      </trkpt>
      <trkpt lat="47.79884" lon="-3.52283">
        <ele>14</ele>
        <time>2019-07-17T15:41:26Z</time>
      </trkpt>
      <trkpt lat="47.7989" lon="-3.52283">
        <ele>14</ele>
        <time>2019-07-17T15:41:27Z</time>
      </trkpt>
      <trkpt lat="47.7989" lon="-3.52283">
        <ele>14</ele>
        <time>2019-07-17T15:41:28Z</time>
      </trkpt>
      <trkpt lat="47.79894" lon="-3.52284">
        <ele>14</ele>
        <time>2019-07-17T15:41:29Z</time>
      </trkpt>
      <trkpt lat="47.79897" lon="-3.52284">
        <ele>14</ele>
        <time>2019-07-17T15:41:30Z</time>
      </trkpt>
      <trkpt lat="47.799" lon="-3.52285">
        <ele>14</ele>
        <time>2019-07-17T15:41:31Z</time>
      </trkpt>
      <trkpt lat="47.79904" lon="-3.52285">
        <ele>14</ele>
        <time>2019-07-17T15:41:32Z</time>
      </trkpt>
      <trkpt lat="47.7991" lon="-3.52286">
        <ele>14</ele>
        <time>2019-07-17T15:41:33Z</time>
      </trkpt>
      <trkpt lat="47.7991" lon="-3.52286">
        <ele>14</ele>
        <time>2019-07-17T15:41:34Z</time>
      </trkpt>
      <trkpt lat="47.79917" lon="-3.52288">
        <ele>14</ele>
        <time>2019-07-17T15:41:35Z</time>
      </trkpt>
      <trkpt lat="47.7992" lon="-3.52289">
        <ele>14</ele>
        <time>2019-07-17T15:41:36Z</time>
      </trkpt>
      <trkpt lat="47.79923" lon="-3.52291">
        <ele>14</ele>
        <time>2019-07-17T15:41:37Z</time>
      </trkpt>
      <trkpt lat="47.79923" lon="-3.52291">
        <ele>14</ele>
        <time>2019-07-17T15:41:38Z</time>
      </trkpt>
      <trkpt lat="47.79927" lon="-3.52292">
        <ele>14</ele>
        <time>2019-07-17T15:41:39Z</time>
      </trkpt>
      <trkpt lat="47.7993" lon="-3.52294">
        <ele>15</ele>
        <time>2019-07-17T15:41:40Z</time>
      </trkpt>
      <trkpt lat="47.79933" lon="-3.52295">
        <ele>15</ele>
        <time>2019-07-17T15:41:41Z</time>
      </trkpt>
      <trkpt lat="47.79936" lon="-3.52297">
        <ele>15</ele>
        <time>2019-07-17T15:41:42Z</time>
      </trkpt>
      <trkpt lat="47.79939" lon="-3.52298">
        <ele>15</ele>
        <time>2019-07-17T15:41:43Z</time>
      </trkpt>
      <trkpt lat="47.79942" lon="-3.523">
        <ele>15</ele>
        <time>2019-07-17T15:41:44Z</time>
      </trkpt>
      <trkpt lat="47.79946" lon="-3.52302">
        <ele>15</ele>
        <time>2019-07-17T15:41:45Z</time>
      </trkpt>
      <trkpt lat="47.79949" lon="-3.52304">
        <ele>16</ele>
        <time>2019-07-17T15:41:46Z</time>
      </trkpt>
      <trkpt lat="47.79952" lon="-3.52306">
        <ele>16</ele>
        <time>2019-07-17T15:41:47Z</time>
      </trkpt>
      <trkpt lat="47.79955" lon="-3.52308">
        <ele>16</ele>
        <time>2019-07-17T15:41:48Z</time>
      </trkpt>
      <trkpt lat="47.79959" lon="-3.5231">
        <ele>17</ele>
        <time>2019-07-17T15:41:49Z</time>
      </trkpt>
      <trkpt lat="47.79962" lon="-3.52312">
        <ele>17</ele>
        <time>2019-07-17T15:41:50Z</time>
      </trkpt>
      <trkpt lat="47.79965" lon="-3.52315">
        <ele>17</ele>
        <time>2019-07-17T15:41:51Z</time>
      </trkpt>
      <trkpt lat="47.79968" lon="-3.52317">
        <ele>17</ele>
        <time>2019-07-17T15:41:52Z</time>
      </trkpt>
      <trkpt lat="47.79974" lon="-3.52322">
        <ele>18</ele>
        <time>2019-07-17T15:41:53Z</time>
      </trkpt>
      <trkpt lat="47.79977" lon="-3.52325">
        <ele>18</ele>
        <time>2019-07-17T15:41:54Z</time>
      </trkpt>
      <trkpt lat="47.79977" lon="-3.52325">
        <ele>18</ele>
        <time>2019-07-17T15:41:55Z</time>
      </trkpt>
      <trkpt lat="47.79982" lon="-3.52331">
        <ele>18</ele>
        <time>2019-07-17T15:41:56Z</time>
      </trkpt>
      <trkpt lat="47.79982" lon="-3.52331">
        <ele>18</ele>
        <time>2019-07-17T15:41:57Z</time>
      </trkpt>
      <trkpt lat="47.79985" lon="-3.52334">
        <ele>19</ele>
        <time>2019-07-17T15:41:58Z</time>
      </trkpt>
      <trkpt lat="47.79987" lon="-3.52337">
        <ele>19</ele>
        <time>2019-07-17T15:41:59Z</time>
      </trkpt>
      <trkpt lat="47.7999" lon="-3.5234">
        <ele>19</ele>
        <time>2019-07-17T15:42:00Z</time>
      </trkpt>
      <trkpt lat="47.79993" lon="-3.52344">
        <ele>19</ele>
        <time>2019-07-17T15:42:01Z</time>
      </trkpt>
      <trkpt lat="47.79995" lon="-3.52347">
        <ele>19</ele>
        <time>2019-07-17T15:42:02Z</time>
      </trkpt>
      <trkpt lat="47.79998" lon="-3.5235">
        <ele>20</ele>
        <time>2019-07-17T15:42:03Z</time>
      </trkpt>
      <trkpt lat="47.80003" lon="-3.52357">
        <ele>20</ele>
        <time>2019-07-17T15:42:04Z</time>
      </trkpt>
      <trkpt lat="47.80005" lon="-3.5236">
        <ele>21</ele>
        <time>2019-07-17T15:42:05Z</time>
      </trkpt>
      <trkpt lat="47.80005" lon="-3.5236">
        <ele>21</ele>
        <time>2019-07-17T15:42:06Z</time>
      </trkpt>
      <trkpt lat="47.80009" lon="-3.52368">
        <ele>21</ele>
        <time>2019-07-17T15:42:07Z</time>
      </trkpt>
      <trkpt lat="47.80009" lon="-3.52368">
        <ele>21</ele>
        <time>2019-07-17T15:42:08Z</time>
      </trkpt>
      <trkpt lat="47.80011" lon="-3.52372">
        <ele>21</ele>
        <time>2019-07-17T15:42:09Z</time>
      </trkpt>
      <trkpt lat="47.80014" lon="-3.52376">
        <ele>21</ele>
        <time>2019-07-17T15:42:10Z</time>
      </trkpt>
      <trkpt lat="47.80015" lon="-3.5238">
        <ele>22</ele>
        <time>2019-07-17T15:42:11Z</time>
      </trkpt>
      <trkpt lat="47.80017" lon="-3.52384">
        <ele>22</ele>
        <time>2019-07-17T15:42:12Z</time>
      </trkpt>
      <trkpt lat="47.8002" lon="-3.52388">
        <ele>22</ele>
        <time>2019-07-17T15:42:13Z</time>
      </trkpt>
      <trkpt lat="47.80021" lon="-3.52392">
        <ele>22</ele>
        <time>2019-07-17T15:42:14Z</time>
      </trkpt>
      <trkpt lat="47.80023" lon="-3.52397">
        <ele>23</ele>
        <time>2019-07-17T15:42:15Z</time>
      </trkpt>
      <trkpt lat="47.80025" lon="-3.52401">
        <ele>23</ele>
        <time>2019-07-17T15:42:16Z</time>
      </trkpt>
      <trkpt lat="47.80027" lon="-3.52406">
        <ele>23</ele>
        <time>2019-07-17T15:42:17Z</time>
      </trkpt>
      <trkpt lat="47.80028" lon="-3.52411">
        <ele>23</ele>
        <time>2019-07-17T15:42:18Z</time>
      </trkpt>
      <trkpt lat="47.8003" lon="-3.52416">
        <ele>24</ele>
        <time>2019-07-17T15:42:19Z</time>
      </trkpt>
      <trkpt lat="47.80031" lon="-3.5242">
        <ele>24</ele>
        <time>2019-07-17T15:42:20Z</time>
      </trkpt>
      <trkpt lat="47.80033" lon="-3.52425">
        <ele>24</ele>
        <time>2019-07-17T15:42:21Z</time>
      </trkpt>
      <trkpt lat="47.80034" lon="-3.5243">
        <ele>24</ele>
        <time>2019-07-17T15:42:22Z</time>
      </trkpt>
      <trkpt lat="47.80035" lon="-3.52436">
        <ele>24</ele>
        <time>2019-07-17T15:42:23Z</time>
      </trkpt>
      <trkpt lat="47.80037" lon="-3.52441">
        <ele>24</ele>
        <time>2019-07-17T15:42:24Z</time>
      </trkpt>
      <trkpt lat="47.80037" lon="-3.52446">
        <ele>25</ele>
        <time>2019-07-17T15:42:25Z</time>
      </trkpt>
      <trkpt lat="47.80039" lon="-3.52451">
        <ele>25</ele>
        <time>2019-07-17T15:42:26Z</time>
      </trkpt>
      <trkpt lat="47.8004" lon="-3.52456">
        <ele>25</ele>
        <time>2019-07-17T15:42:27Z</time>
      </trkpt>
      <trkpt lat="47.80041" lon="-3.52461">
        <ele>25</ele>
        <time>2019-07-17T15:42:28Z</time>
      </trkpt>
      <trkpt lat="47.80042" lon="-3.52467">
        <ele>25</ele>
        <time>2019-07-17T15:42:29Z</time>
      </trkpt>
      <trkpt lat="47.80043" lon="-3.52472">
        <ele>26</ele>
        <time>2019-07-17T15:42:30Z</time>
      </trkpt>
      <trkpt lat="47.80044" lon="-3.52484">
        <ele>26</ele>
        <time>2019-07-17T15:42:31Z</time>
      </trkpt>
      <trkpt lat="47.80044" lon="-3.52484">
        <ele>26</ele>
        <time>2019-07-17T15:42:32Z</time>
      </trkpt>
      <trkpt lat="47.80044" lon="-3.5249">
        <ele>26</ele>
        <time>2019-07-17T15:42:33Z</time>
      </trkpt>
      <trkpt lat="47.80045" lon="-3.52496">
        <ele>26</ele>
        <time>2019-07-17T15:42:34Z</time>
      </trkpt>
      <trkpt lat="47.80046" lon="-3.52508">
        <ele>26</ele>
        <time>2019-07-17T15:42:35Z</time>
      </trkpt>
      <trkpt lat="47.80046" lon="-3.52508">
        <ele>26</ele>
        <time>2019-07-17T15:42:36Z</time>
      </trkpt>
      <trkpt lat="47.80046" lon="-3.52514">
        <ele>27</ele>
        <time>2019-07-17T15:42:37Z</time>
      </trkpt>
      <trkpt lat="47.80046" lon="-3.5252">
        <ele>27</ele>
        <time>2019-07-17T15:42:38Z</time>
      </trkpt>
      <trkpt lat="47.80046" lon="-3.52526">
        <ele>27</ele>
        <time>2019-07-17T15:42:39Z</time>
      </trkpt>
      <trkpt lat="47.80046" lon="-3.52532">
        <ele>27</ele>
        <time>2019-07-17T15:42:40Z</time>
      </trkpt>
      <trkpt lat="47.80046" lon="-3.52545">
        <ele>27</ele>
        <time>2019-07-17T15:42:41Z</time>
      </trkpt>
      <trkpt lat="47.80046" lon="-3.52545">
        <ele>27</ele>
        <time>2019-07-17T15:42:42Z</time>
      </trkpt>
      <trkpt lat="47.80046" lon="-3.52558">
        <ele>27</ele>
        <time>2019-07-17T15:42:43Z</time>
      </trkpt>
      <trkpt lat="47.80046" lon="-3.52564">
        <ele>28</ele>
        <time>2019-07-17T15:42:44Z</time>
      </trkpt>
      <trkpt lat="47.80047" lon="-3.52571">
        <ele>28</ele>
        <time>2019-07-17T15:42:45Z</time>
      </trkpt>
      <trkpt lat="47.80047" lon="-3.52571">
        <ele>28</ele>
        <time>2019-07-17T15:42:46Z</time>
      </trkpt>
      <trkpt lat="47.80047" lon="-3.52584">
        <ele>28</ele>
        <time>2019-07-17T15:42:47Z</time>
      </trkpt>
      <trkpt lat="47.80047" lon="-3.52584">
        <ele>28</ele>
        <time>2019-07-17T15:42:48Z</time>
      </trkpt>
      <trkpt lat="47.80047" lon="-3.52591">
        <ele>28</ele>
        <time>2019-07-17T15:42:49Z</time>
      </trkpt>
      <trkpt lat="47.80047" lon="-3.52604">
        <ele>28</ele>
        <time>2019-07-17T15:42:50Z</time>
      </trkpt>
      <trkpt lat="47.80047" lon="-3.52611">
        <ele>28</ele>
        <time>2019-07-17T15:42:51Z</time>
      </trkpt>
      <trkpt lat="47.80047" lon="-3.52611">
        <ele>28</ele>
        <time>2019-07-17T15:42:52Z</time>
      </trkpt>
      <trkpt lat="47.80047" lon="-3.52625">
        <ele>29</ele>
        <time>2019-07-17T15:42:53Z</time>
      </trkpt>
      <trkpt lat="47.80047" lon="-3.52632">
        <ele>29</ele>
        <time>2019-07-17T15:42:54Z</time>
      </trkpt>
      <trkpt lat="47.80047" lon="-3.52638">
        <ele>29</ele>
        <time>2019-07-17T15:42:55Z</time>
      </trkpt>
      <trkpt lat="47.80047" lon="-3.52645">
        <ele>29</ele>
        <time>2019-07-17T15:42:56Z</time>
      </trkpt>
      <trkpt lat="47.80047" lon="-3.52645">
        <ele>29</ele>
        <time>2019-07-17T15:42:57Z</time>
      </trkpt>
      <trkpt lat="47.80047" lon="-3.52658">
        <ele>29</ele>
        <time>2019-07-17T15:42:58Z</time>
      </trkpt>
      <trkpt lat="47.80047" lon="-3.52665">
        <ele>29</ele>
        <time>2019-07-17T15:42:59Z</time>
      </trkpt>
      <trkpt lat="47.80047" lon="-3.52665">
        <ele>29</ele>
        <time>2019-07-17T15:43:00Z</time>
      </trkpt>
      <trkpt lat="47.80047" lon="-3.52672">
        <ele>29</ele>
        <time>2019-07-17T15:43:01Z</time>
      </trkpt>
      <trkpt lat="47.80047" lon="-3.52685">
        <ele>29</ele>
        <time>2019-07-17T15:43:02Z</time>
      </trkpt>
      <trkpt lat="47.80047" lon="-3.52692">
        <ele>29</ele>
        <time>2019-07-17T15:43:03Z</time>
      </trkpt>
      <trkpt lat="47.80047" lon="-3.52698">
        <ele>29</ele>
        <time>2019-07-17T15:43:04Z</time>
      </trkpt>
      <trkpt lat="47.80047" lon="-3.52698">
        <ele>29</ele>
        <time>2019-07-17T15:43:05Z</time>
      </trkpt>
      <trkpt lat="47.80047" lon="-3.52705">
        <ele>29</ele>
        <time>2019-07-17T15:43:06Z</time>
      </trkpt>
      <trkpt lat="47.80047" lon="-3.5271">
        <ele>29</ele>
        <time>2019-07-17T15:43:07Z</time>
      </trkpt>
      <trkpt lat="47.80047" lon="-3.52716">
        <ele>30</ele>
        <time>2019-07-17T15:43:08Z</time>
      </trkpt>
      <trkpt lat="47.80047" lon="-3.52722">
        <ele>30</ele>
        <time>2019-07-17T15:43:09Z</time>
      </trkpt>
      <trkpt lat="47.80047" lon="-3.52728">
        <ele>30</ele>
        <time>2019-07-17T15:43:10Z</time>
      </trkpt>
      <trkpt lat="47.80047" lon="-3.52735">
        <ele>30</ele>
        <time>2019-07-17T15:43:11Z</time>
      </trkpt>
      <trkpt lat="47.80047" lon="-3.52748">
        <ele>30</ele>
        <time>2019-07-17T15:43:12Z</time>
      </trkpt>
      <trkpt lat="47.80047" lon="-3.52754">
        <ele>30</ele>
        <time>2019-07-17T15:43:13Z</time>
      </trkpt>
      <trkpt lat="47.80047" lon="-3.52754">
        <ele>30</ele>
        <time>2019-07-17T15:43:14Z</time>
      </trkpt>
      <trkpt lat="47.80047" lon="-3.52761">
        <ele>30</ele>
        <time>2019-07-17T15:43:15Z</time>
      </trkpt>
      <trkpt lat="47.80047" lon="-3.52768">
        <ele>30</ele>
        <time>2019-07-17T15:43:16Z</time>
      </trkpt>
      <trkpt lat="47.80047" lon="-3.52781">
        <ele>31</ele>
        <time>2019-07-17T15:43:17Z</time>
      </trkpt>
      <trkpt lat="47.80047" lon="-3.52781">
        <ele>31</ele>
        <time>2019-07-17T15:43:18Z</time>
      </trkpt>
      <trkpt lat="47.80047" lon="-3.52795">
        <ele>31</ele>
        <time>2019-07-17T15:43:19Z</time>
      </trkpt>
      <trkpt lat="47.80047" lon="-3.52802">
        <ele>31</ele>
        <time>2019-07-17T15:43:20Z</time>
      </trkpt>
      <trkpt lat="47.80047" lon="-3.52802">
        <ele>31</ele>
        <time>2019-07-17T15:43:21Z</time>
      </trkpt>
      <trkpt lat="47.80047" lon="-3.52809">
        <ele>31</ele>
        <time>2019-07-17T15:43:22Z</time>
      </trkpt>
      <trkpt lat="47.80047" lon="-3.52816">
        <ele>31</ele>
        <time>2019-07-17T15:43:23Z</time>
      </trkpt>
      <trkpt lat="47.80047" lon="-3.52823">
        <ele>31</ele>
        <time>2019-07-17T15:43:24Z</time>
      </trkpt>
      <trkpt lat="47.80047" lon="-3.52836">
        <ele>32</ele>
        <time>2019-07-17T15:43:25Z</time>
      </trkpt>
      <trkpt lat="47.80047" lon="-3.52836">
        <ele>32</ele>
        <time>2019-07-17T15:43:26Z</time>
      </trkpt>
      <trkpt lat="47.80047" lon="-3.5285">
        <ele>32</ele>
        <time>2019-07-17T15:43:27Z</time>
      </trkpt>
      <trkpt lat="47.80047" lon="-3.52857">
        <ele>32</ele>
        <time>2019-07-17T15:43:28Z</time>
      </trkpt>
      <trkpt lat="47.80047" lon="-3.52857">
        <ele>32</ele>
        <time>2019-07-17T15:43:29Z</time>
      </trkpt>
      <trkpt lat="47.80047" lon="-3.52864">
        <ele>32</ele>
        <time>2019-07-17T15:43:30Z</time>
      </trkpt>
      <trkpt lat="47.80047" lon="-3.52878">
        <ele>33</ele>
        <time>2019-07-17T15:43:31Z</time>
      </trkpt>
      <trkpt lat="47.80048" lon="-3.52885">
        <ele>33</ele>
        <time>2019-07-17T15:43:32Z</time>
      </trkpt>
      <trkpt lat="47.80048" lon="-3.52892">
        <ele>33</ele>
        <time>2019-07-17T15:43:33Z</time>
      </trkpt>
      <trkpt lat="47.80048" lon="-3.52892">
        <ele>33</ele>
        <time>2019-07-17T15:43:34Z</time>
      </trkpt>
      <trkpt lat="47.80048" lon="-3.52906">
        <ele>34</ele>
        <time>2019-07-17T15:43:35Z</time>
      </trkpt>
      <trkpt lat="47.80048" lon="-3.52914">
        <ele>34</ele>
        <time>2019-07-17T15:43:36Z</time>
      </trkpt>
      <trkpt lat="47.80048" lon="-3.52914">
        <ele>34</ele>
        <time>2019-07-17T15:43:37Z</time>
      </trkpt>
      <trkpt lat="47.80048" lon="-3.5293">
        <ele>34</ele>
        <time>2019-07-17T15:43:38Z</time>
      </trkpt>
      <trkpt lat="47.80048" lon="-3.5293">
        <ele>34</ele>
        <time>2019-07-17T15:43:39Z</time>
      </trkpt>
      <trkpt lat="47.80048" lon="-3.52947">
        <ele>34</ele>
        <time>2019-07-17T15:43:40Z</time>
      </trkpt>
      <trkpt lat="47.80048" lon="-3.52947">
        <ele>34</ele>
        <time>2019-07-17T15:43:41Z</time>
      </trkpt>
      <trkpt lat="47.80048" lon="-3.52955">
        <ele>34</ele>
        <time>2019-07-17T15:43:42Z</time>
      </trkpt>
      <trkpt lat="47.80048" lon="-3.52972">
        <ele>34</ele>
        <time>2019-07-17T15:43:43Z</time>
      </trkpt>
      <trkpt lat="47.80048" lon="-3.52972">
        <ele>34</ele>
        <time>2019-07-17T15:43:44Z</time>
      </trkpt>
      <trkpt lat="47.80048" lon="-3.52981">
        <ele>34</ele>
        <time>2019-07-17T15:43:45Z</time>
      </trkpt>
      <trkpt lat="47.80048" lon="-3.52989">
        <ele>34</ele>
        <time>2019-07-17T15:43:46Z</time>
      </trkpt>
      <trkpt lat="47.80048" lon="-3.52997">
        <ele>34</ele>
        <time>2019-07-17T15:43:47Z</time>
      </trkpt>
      <trkpt lat="47.80048" lon="-3.53005">
        <ele>34</ele>
        <time>2019-07-17T15:43:48Z</time>
      </trkpt>
      <trkpt lat="47.80048" lon="-3.53013">
        <ele>34</ele>
        <time>2019-07-17T15:43:49Z</time>
      </trkpt>
      <trkpt lat="47.80048" lon="-3.53021">
        <ele>34</ele>
        <time>2019-07-17T15:43:50Z</time>
      </trkpt>
      <trkpt lat="47.80048" lon="-3.53028">
        <ele>34</ele>
        <time>2019-07-17T15:43:51Z</time>
      </trkpt>
      <trkpt lat="47.80051" lon="-3.53034">
        <ele>34</ele>
        <time>2019-07-17T15:43:52Z</time>
      </trkpt>
      <trkpt lat="47.80056" lon="-3.53036">
        <ele>33</ele>
        <time>2019-07-17T15:43:53Z</time>
      </trkpt>
      <trkpt lat="47.80065" lon="-3.53032">
        <ele>33</ele>
        <time>2019-07-17T15:43:54Z</time>
      </trkpt>
      <trkpt lat="47.80065" lon="-3.53032">
        <ele>33</ele>
        <time>2019-07-17T15:43:55Z</time>
      </trkpt>
      <trkpt lat="47.80073" lon="-3.5302">
        <ele>32</ele>
        <time>2019-07-17T15:43:56Z</time>
      </trkpt>
      <trkpt lat="47.80077" lon="-3.53014">
        <ele>32</ele>
        <time>2019-07-17T15:43:57Z</time>
      </trkpt>
      <trkpt lat="47.80079" lon="-3.53007">
        <ele>32</ele>
        <time>2019-07-17T15:43:58Z</time>
      </trkpt>
      <trkpt lat="47.80082" lon="-3.52999">
        <ele>32</ele>
        <time>2019-07-17T15:43:59Z</time>
      </trkpt>
      <trkpt lat="47.80084" lon="-3.5299">
        <ele>32</ele>
        <time>2019-07-17T15:44:00Z</time>
      </trkpt>
      <trkpt lat="47.80087" lon="-3.52981">
        <ele>32</ele>
        <time>2019-07-17T15:44:01Z</time>
      </trkpt>
      <trkpt lat="47.80089" lon="-3.52971">
        <ele>32</ele>
        <time>2019-07-17T15:44:02Z</time>
      </trkpt>
      <trkpt lat="47.80092" lon="-3.52961">
        <ele>32</ele>
        <time>2019-07-17T15:44:03Z</time>
      </trkpt>
      <trkpt lat="47.80094" lon="-3.52952">
        <ele>31</ele>
        <time>2019-07-17T15:44:04Z</time>
      </trkpt>
      <trkpt lat="47.80098" lon="-3.52942">
        <ele>31</ele>
        <time>2019-07-17T15:44:05Z</time>
      </trkpt>
      <trkpt lat="47.80102" lon="-3.52932">
        <ele>31</ele>
        <time>2019-07-17T15:44:06Z</time>
      </trkpt>
      <trkpt lat="47.80107" lon="-3.52923">
        <ele>31</ele>
        <time>2019-07-17T15:44:07Z</time>
      </trkpt>
      <trkpt lat="47.80111" lon="-3.52913">
        <ele>31</ele>
        <time>2019-07-17T15:44:08Z</time>
      </trkpt>
      <trkpt lat="47.80116" lon="-3.52903">
        <ele>31</ele>
        <time>2019-07-17T15:44:09Z</time>
      </trkpt>
      <trkpt lat="47.80123" lon="-3.52893">
        <ele>31</ele>
        <time>2019-07-17T15:44:10Z</time>
      </trkpt>
      <trkpt lat="47.80129" lon="-3.52883">
        <ele>31</ele>
        <time>2019-07-17T15:44:11Z</time>
      </trkpt>
      <trkpt lat="47.80136" lon="-3.52874">
        <ele>31</ele>
        <time>2019-07-17T15:44:12Z</time>
      </trkpt>
      <trkpt lat="47.80136" lon="-3.52874">
        <ele>31</ele>
        <time>2019-07-17T15:44:13Z</time>
      </trkpt>
      <trkpt lat="47.80152" lon="-3.52856">
        <ele>31</ele>
        <time>2019-07-17T15:44:14Z</time>
      </trkpt>
      <trkpt lat="47.80159" lon="-3.52845">
        <ele>31</ele>
        <time>2019-07-17T15:44:15Z</time>
      </trkpt>
      <trkpt lat="47.80166" lon="-3.52835">
        <ele>31</ele>
        <time>2019-07-17T15:44:16Z</time>
      </trkpt>
      <trkpt lat="47.80172" lon="-3.52827">
        <ele>31</ele>
        <time>2019-07-17T15:44:17Z</time>
      </trkpt>
      <trkpt lat="47.80179" lon="-3.5282">
        <ele>31</ele>
        <time>2019-07-17T15:44:18Z</time>
      </trkpt>
      <trkpt lat="47.80185" lon="-3.52813">
        <ele>31</ele>
        <time>2019-07-17T15:44:19Z</time>
      </trkpt>
      <trkpt lat="47.80191" lon="-3.52807">
        <ele>31</ele>
        <time>2019-07-17T15:44:20Z</time>
      </trkpt>
      <trkpt lat="47.80196" lon="-3.52802">
        <ele>31</ele>
        <time>2019-07-17T15:44:21Z</time>
      </trkpt>
      <trkpt lat="47.80202" lon="-3.52799">
        <ele>31</ele>
        <time>2019-07-17T15:44:22Z</time>
      </trkpt>
      <trkpt lat="47.80207" lon="-3.52796">
        <ele>30</ele>
        <time>2019-07-17T15:44:23Z</time>
      </trkpt>
      <trkpt lat="47.80213" lon="-3.52793">
        <ele>30</ele>
        <time>2019-07-17T15:44:24Z</time>
      </trkpt>
      <trkpt lat="47.8022" lon="-3.5279">
        <ele>30</ele>
        <time>2019-07-17T15:44:25Z</time>
      </trkpt>
      <trkpt lat="47.80227" lon="-3.52787">
        <ele>30</ele>
        <time>2019-07-17T15:44:26Z</time>
      </trkpt>
      <trkpt lat="47.80234" lon="-3.52784">
        <ele>29</ele>
        <time>2019-07-17T15:44:27Z</time>
      </trkpt>
      <trkpt lat="47.80241" lon="-3.52781">
        <ele>29</ele>
        <time>2019-07-17T15:44:28Z</time>
      </trkpt>
      <trkpt lat="47.80249" lon="-3.52777">
        <ele>29</ele>
        <time>2019-07-17T15:44:29Z</time>
      </trkpt>
      <trkpt lat="47.80257" lon="-3.52773">
        <ele>29</ele>
        <time>2019-07-17T15:44:30Z</time>
      </trkpt>
      <trkpt lat="47.80264" lon="-3.52769">
        <ele>29</ele>
        <time>2019-07-17T15:44:31Z</time>
      </trkpt>
      <trkpt lat="47.80271" lon="-3.52764">
        <ele>28</ele>
        <time>2019-07-17T15:44:32Z</time>
      </trkpt>
      <trkpt lat="47.80277" lon="-3.52758">
        <ele>28</ele>
        <time>2019-07-17T15:44:33Z</time>
      </trkpt>
      <trkpt lat="47.80283" lon="-3.52752">
        <ele>28</ele>
        <time>2019-07-17T15:44:34Z</time>
      </trkpt>
      <trkpt lat="47.8029" lon="-3.52744">
        <ele>28</ele>
        <time>2019-07-17T15:44:35Z</time>
      </trkpt>
      <trkpt lat="47.80297" lon="-3.52738">
        <ele>28</ele>
        <time>2019-07-17T15:44:36Z</time>
      </trkpt>
      <trkpt lat="47.80304" lon="-3.52732">
        <ele>28</ele>
        <time>2019-07-17T15:44:37Z</time>
      </trkpt>
      <trkpt lat="47.8031" lon="-3.52726">
        <ele>27</ele>
        <time>2019-07-17T15:44:38Z</time>
      </trkpt>
      <trkpt lat="47.80316" lon="-3.52721">
        <ele>27</ele>
        <time>2019-07-17T15:44:39Z</time>
      </trkpt>
      <trkpt lat="47.80323" lon="-3.52717">
        <ele>27</ele>
        <time>2019-07-17T15:44:40Z</time>
      </trkpt>
      <trkpt lat="47.8033" lon="-3.52714">
        <ele>26</ele>
        <time>2019-07-17T15:44:41Z</time>
      </trkpt>
      <trkpt lat="47.80338" lon="-3.52714">
        <ele>26</ele>
        <time>2019-07-17T15:44:42Z</time>
      </trkpt>
      <trkpt lat="47.80345" lon="-3.52714">
        <ele>25</ele>
        <time>2019-07-17T15:44:43Z</time>
      </trkpt>
      <trkpt lat="47.80352" lon="-3.52715">
        <ele>25</ele>
        <time>2019-07-17T15:44:44Z</time>
      </trkpt>
      <trkpt lat="47.80359" lon="-3.52716">
        <ele>24</ele>
        <time>2019-07-17T15:44:45Z</time>
      </trkpt>
      <trkpt lat="47.80359" lon="-3.52716">
        <ele>24</ele>
        <time>2019-07-17T15:44:46Z</time>
      </trkpt>
      <trkpt lat="47.80364" lon="-3.52718">
        <ele>23</ele>
        <time>2019-07-17T15:44:47Z</time>
      </trkpt>
      <trkpt lat="47.80371" lon="-3.52721">
        <ele>22</ele>
        <time>2019-07-17T15:44:48Z</time>
      </trkpt>
      <trkpt lat="47.80377" lon="-3.52723">
        <ele>21</ele>
        <time>2019-07-17T15:44:49Z</time>
      </trkpt>
      <trkpt lat="47.80383" lon="-3.52725">
        <ele>20</ele>
        <time>2019-07-17T15:44:50Z</time>
      </trkpt>
      <trkpt lat="47.80396" lon="-3.52729">
        <ele>17</ele>
        <time>2019-07-17T15:44:51Z</time>
      </trkpt>
      <trkpt lat="47.80402" lon="-3.5273">
        <ele>16</ele>
        <time>2019-07-17T15:44:52Z</time>
      </trkpt>
      <trkpt lat="47.80408" lon="-3.52731">
        <ele>15</ele>
        <time>2019-07-17T15:44:53Z</time>
      </trkpt>
      <trkpt lat="47.80408" lon="-3.52731">
        <ele>15</ele>
        <time>2019-07-17T15:44:54Z</time>
      </trkpt>
      <trkpt lat="47.80415" lon="-3.52731">
        <ele>14</ele>
        <time>2019-07-17T15:44:55Z</time>
      </trkpt>
      <trkpt lat="47.80421" lon="-3.5273">
        <ele>13</ele>
        <time>2019-07-17T15:44:56Z</time>
      </trkpt>
      <trkpt lat="47.80433" lon="-3.52731">
        <ele>11</ele>
        <time>2019-07-17T15:44:57Z</time>
      </trkpt>
      <trkpt lat="47.80433" lon="-3.52731">
        <ele>11</ele>
        <time>2019-07-17T15:44:58Z</time>
      </trkpt>
      <trkpt lat="47.80439" lon="-3.52731">
        <ele>10</ele>
        <time>2019-07-17T15:44:59Z</time>
      </trkpt>
      <trkpt lat="47.80444" lon="-3.52732">
        <ele>10</ele>
        <time>2019-07-17T15:45:00Z</time>
      </trkpt>
      <trkpt lat="47.80455" lon="-3.52732">
        <ele>8</ele>
        <time>2019-07-17T15:45:01Z</time>
      </trkpt>
      <trkpt lat="47.80461" lon="-3.52733">
        <ele>7</ele>
        <time>2019-07-17T15:45:02Z</time>
      </trkpt>
      <trkpt lat="47.80466" lon="-3.52732">
        <ele>7</ele>
        <time>2019-07-17T15:45:03Z</time>
      </trkpt>
      <trkpt lat="47.80466" lon="-3.52732">
        <ele>7</ele>
        <time>2019-07-17T15:45:04Z</time>
      </trkpt>
      <trkpt lat="47.80475" lon="-3.52732">
        <ele>6</ele>
        <time>2019-07-17T15:45:05Z</time>
      </trkpt>
      <trkpt lat="47.8048" lon="-3.52733">
        <ele>5</ele>
        <time>2019-07-17T15:45:06Z</time>
      </trkpt>
      <trkpt lat="47.80484" lon="-3.52733">
        <ele>5</ele>
        <time>2019-07-17T15:45:07Z</time>
      </trkpt>
      <trkpt lat="47.80488" lon="-3.52734">
        <ele>4</ele>
        <time>2019-07-17T15:45:08Z</time>
      </trkpt>
      <trkpt lat="47.80492" lon="-3.52734">
        <ele>4</ele>
        <time>2019-07-17T15:45:09Z</time>
      </trkpt>
      <trkpt lat="47.80497" lon="-3.52734">
        <ele>3</ele>
        <time>2019-07-17T15:45:10Z</time>
      </trkpt>
      <trkpt lat="47.80501" lon="-3.52733">
        <ele>3</ele>
        <time>2019-07-17T15:45:11Z</time>
      </trkpt>
      <trkpt lat="47.80505" lon="-3.52732">
        <ele>3</ele>
        <time>2019-07-17T15:45:12Z</time>
      </trkpt>
      <trkpt lat="47.8051" lon="-3.52732">
        <ele>2</ele>
        <time>2019-07-17T15:45:13Z</time>
      </trkpt>
      <trkpt lat="47.80514" lon="-3.52731">
        <ele>2</ele>
        <time>2019-07-17T15:45:14Z</time>
      </trkpt>
      <trkpt lat="47.80518" lon="-3.52731">
        <ele>2</ele>
        <time>2019-07-17T15:45:15Z</time>
      </trkpt>
      <trkpt lat="47.80522" lon="-3.5273">
        <ele>2</ele>
        <time>2019-07-17T15:45:16Z</time>
      </trkpt>
      <trkpt lat="47.80525" lon="-3.52728">
        <ele>1</ele>
        <time>2019-07-17T15:45:17Z</time>
      </trkpt>
      <trkpt lat="47.80529" lon="-3.52727">
        <ele>1</ele>
        <time>2019-07-17T15:45:18Z</time>
      </trkpt>
      <trkpt lat="47.80533" lon="-3.52725">
        <ele>1</ele>
        <time>2019-07-17T15:45:19Z</time>
      </trkpt>
      <trkpt lat="47.80533" lon="-3.52725">
        <ele>1</ele>
        <time>2019-07-17T15:45:20Z</time>
      </trkpt>
      <trkpt lat="47.80539" lon="-3.52724">
        <ele>1</ele>
        <time>2019-07-17T15:45:21Z</time>
      </trkpt>
      <trkpt lat="47.80541" lon="-3.52724">
        <ele>1</ele>
        <time>2019-07-17T15:45:22Z</time>
      </trkpt>
      <trkpt lat="47.80542" lon="-3.52724">
        <ele>1</ele>
        <time>2019-07-17T15:45:23Z</time>
      </trkpt>
      <trkpt lat="47.80542" lon="-3.52724">
        <ele>1</ele>
        <time>2019-07-17T15:45:24Z</time>
      </trkpt>
      <trkpt lat="47.80545" lon="-3.52723">
        <ele>1</ele>
        <time>2019-07-17T15:45:25Z</time>
      </trkpt>
      <trkpt lat="47.80546" lon="-3.52723">
        <ele>1</ele>
        <time>2019-07-17T15:45:26Z</time>
      </trkpt>
      <trkpt lat="47.80548" lon="-3.52722">
        <ele>2</ele>
        <time>2019-07-17T15:45:27Z</time>
      </trkpt>
      <trkpt lat="47.8055" lon="-3.52722">
        <ele>2</ele>
        <time>2019-07-17T15:45:28Z</time>
      </trkpt>
      <trkpt lat="47.80551" lon="-3.52724">
        <ele>2</ele>
        <time>2019-07-17T15:45:29Z</time>
      </trkpt>
      <trkpt lat="47.80552" lon="-3.52726">
        <ele>2</ele>
        <time>2019-07-17T15:45:30Z</time>
      </trkpt>
      <trkpt lat="47.80552" lon="-3.52726">
        <ele>2</ele>
        <time>2019-07-17T15:45:31Z</time>
      </trkpt>
      <trkpt lat="47.80553" lon="-3.5273">
        <ele>2</ele>
        <time>2019-07-17T15:45:32Z</time>
      </trkpt>
      <trkpt lat="47.80555" lon="-3.52731">
        <ele>3</ele>
        <time>2019-07-17T15:45:33Z</time>
      </trkpt>
      <trkpt lat="47.80555" lon="-3.52731">
        <ele>3</ele>
        <time>2019-07-17T15:45:34Z</time>
      </trkpt>
      <trkpt lat="47.80557" lon="-3.52735">
        <ele>3</ele>
        <time>2019-07-17T15:45:35Z</time>
      </trkpt>
      <trkpt lat="47.80558" lon="-3.52737">
        <ele>3</ele>
        <time>2019-07-17T15:45:36Z</time>
      </trkpt>
      <trkpt lat="47.80559" lon="-3.52739">
        <ele>3</ele>
        <time>2019-07-17T15:45:37Z</time>
      </trkpt>
      <trkpt lat="47.8056" lon="-3.52741">
        <ele>4</ele>
        <time>2019-07-17T15:45:38Z</time>
      </trkpt>
      <trkpt lat="47.80562" lon="-3.52742">
        <ele>4</ele>
        <time>2019-07-17T15:45:39Z</time>
      </trkpt>
      <trkpt lat="47.80562" lon="-3.52742">
        <ele>4</ele>
        <time>2019-07-17T15:45:40Z</time>
      </trkpt>
      <trkpt lat="47.80565" lon="-3.52745">
        <ele>4</ele>
        <time>2019-07-17T15:45:41Z</time>
      </trkpt>
      <trkpt lat="47.80566" lon="-3.52746">
        <ele>4</ele>
        <time>2019-07-17T15:45:42Z</time>
      </trkpt>
      <trkpt lat="47.80566" lon="-3.52747">
        <ele>5</ele>
        <time>2019-07-17T15:45:43Z</time>
      </trkpt>
      <trkpt lat="47.80566" lon="-3.52747">
        <ele>5</ele>
        <time>2019-07-17T15:45:44Z</time>
      </trkpt>
      <trkpt lat="47.80567" lon="-3.52748">
        <ele>5</ele>
        <time>2019-07-17T15:45:45Z</time>
      </trkpt>
      <trkpt lat="47.80569" lon="-3.5275">
        <ele>5</ele>
        <time>2019-07-17T15:45:46Z</time>
      </trkpt>
      <trkpt lat="47.8057" lon="-3.52751">
        <ele>5</ele>
        <time>2019-07-17T15:45:47Z</time>
      </trkpt>
      <trkpt lat="47.8057" lon="-3.52751">
        <ele>5</ele>
        <time>2019-07-17T15:45:48Z</time>
      </trkpt>
      <trkpt lat="47.80573" lon="-3.52754">
        <ele>6</ele>
        <time>2019-07-17T15:45:49Z</time>
      </trkpt>
      <trkpt lat="47.80573" lon="-3.52754">
        <ele>6</ele>
        <time>2019-07-17T15:45:50Z</time>
      </trkpt>
      <trkpt lat="47.80575" lon="-3.52758">
        <ele>6</ele>
        <time>2019-07-17T15:45:51Z</time>
      </trkpt>
      <trkpt lat="47.80575" lon="-3.5276">
        <ele>7</ele>
        <time>2019-07-17T15:45:52Z</time>
      </trkpt>
      <trkpt lat="47.80575" lon="-3.5276">
        <ele>7</ele>
        <time>2019-07-17T15:45:53Z</time>
      </trkpt>
      <trkpt lat="47.80576" lon="-3.52762">
        <ele>7</ele>
        <time>2019-07-17T15:45:54Z</time>
      </trkpt>
      <trkpt lat="47.80576" lon="-3.52764">
        <ele>7</ele>
        <time>2019-07-17T15:45:55Z</time>
      </trkpt>
      <trkpt lat="47.80577" lon="-3.52768">
        <ele>8</ele>
        <time>2019-07-17T15:45:56Z</time>
      </trkpt>
      <trkpt lat="47.80577" lon="-3.5277">
        <ele>8</ele>
        <time>2019-07-17T15:45:57Z</time>
      </trkpt>
      <trkpt lat="47.80577" lon="-3.52772">
        <ele>8</ele>
        <time>2019-07-17T15:45:58Z</time>
      </trkpt>
      <trkpt lat="47.80578" lon="-3.52775">
        <ele>9</ele>
        <time>2019-07-17T15:45:59Z</time>
      </trkpt>
      <trkpt lat="47.80578" lon="-3.52777">
        <ele>9</ele>
        <time>2019-07-17T15:46:00Z</time>
      </trkpt>
      <trkpt lat="47.80578" lon="-3.5278">
        <ele>9</ele>
        <time>2019-07-17T15:46:01Z</time>
      </trkpt>
      <trkpt lat="47.80578" lon="-3.52782">
        <ele>10</ele>
        <time>2019-07-17T15:46:02Z</time>
      </trkpt>
      <trkpt lat="47.80578" lon="-3.52784">
        <ele>10</ele>
        <time>2019-07-17T15:46:03Z</time>
      </trkpt>
      <trkpt lat="47.80579" lon="-3.52786">
        <ele>10</ele>
        <time>2019-07-17T15:46:04Z</time>
      </trkpt>
      <trkpt lat="47.80579" lon="-3.52788">
        <ele>11</ele>
        <time>2019-07-17T15:46:05Z</time>
      </trkpt>
      <trkpt lat="47.80579" lon="-3.52788">
        <ele>11</ele>
        <time>2019-07-17T15:46:06Z</time>
      </trkpt>
      <trkpt lat="47.80581" lon="-3.52791">
        <ele>11</ele>
        <time>2019-07-17T15:46:07Z</time>
      </trkpt>
      <trkpt lat="47.80581" lon="-3.52794">
        <ele>12</ele>
        <time>2019-07-17T15:46:08Z</time>
      </trkpt>
      <trkpt lat="47.80581" lon="-3.52796">
        <ele>12</ele>
        <time>2019-07-17T15:46:09Z</time>
      </trkpt>
      <trkpt lat="47.80581" lon="-3.52796">
        <ele>12</ele>
        <time>2019-07-17T15:46:10Z</time>
      </trkpt>
      <trkpt lat="47.80582" lon="-3.52798">
        <ele>12</ele>
        <time>2019-07-17T15:46:11Z</time>
      </trkpt>
      <trkpt lat="47.80583" lon="-3.528">
        <ele>13</ele>
        <time>2019-07-17T15:46:12Z</time>
      </trkpt>
      <trkpt lat="47.80585" lon="-3.52807">
        <ele>13</ele>
        <time>2019-07-17T15:46:13Z</time>
      </trkpt>
      <trkpt lat="47.80585" lon="-3.52809">
        <ele>14</ele>
        <time>2019-07-17T15:46:14Z</time>
      </trkpt>
      <trkpt lat="47.80585" lon="-3.52809">
        <ele>14</ele>
        <time>2019-07-17T15:46:15Z</time>
      </trkpt>
      <trkpt lat="47.80585" lon="-3.52813">
        <ele>14</ele>
        <time>2019-07-17T15:46:16Z</time>
      </trkpt>
      <trkpt lat="47.80586" lon="-3.52818">
        <ele>15</ele>
        <time>2019-07-17T15:46:17Z</time>
      </trkpt>
      <trkpt lat="47.80587" lon="-3.52823">
        <ele>15</ele>
        <time>2019-07-17T15:46:18Z</time>
      </trkpt>
      <trkpt lat="47.80587" lon="-3.52828">
        <ele>15</ele>
        <time>2019-07-17T15:46:19Z</time>
      </trkpt>
      <trkpt lat="47.80588" lon="-3.52832">
        <ele>16</ele>
        <time>2019-07-17T15:46:20Z</time>
      </trkpt>
      <trkpt lat="47.80589" lon="-3.52837">
        <ele>16</ele>
        <time>2019-07-17T15:46:21Z</time>
      </trkpt>
      <trkpt lat="47.8059" lon="-3.52842">
        <ele>16</ele>
        <time>2019-07-17T15:46:22Z</time>
      </trkpt>
      <trkpt lat="47.80591" lon="-3.52846">
        <ele>17</ele>
        <time>2019-07-17T15:46:23Z</time>
      </trkpt>
      <trkpt lat="47.80592" lon="-3.52855">
        <ele>17</ele>
        <time>2019-07-17T15:46:24Z</time>
      </trkpt>
      <trkpt lat="47.80593" lon="-3.52858">
        <ele>18</ele>
        <time>2019-07-17T15:46:25Z</time>
      </trkpt>
      <trkpt lat="47.80594" lon="-3.52862">
        <ele>18</ele>
        <time>2019-07-17T15:46:26Z</time>
      </trkpt>
      <trkpt lat="47.80595" lon="-3.52866">
        <ele>18</ele>
        <time>2019-07-17T15:46:27Z</time>
      </trkpt>
      <trkpt lat="47.80595" lon="-3.5287">
        <ele>18</ele>
        <time>2019-07-17T15:46:28Z</time>
      </trkpt>
      <trkpt lat="47.80596" lon="-3.52874">
        <ele>18</ele>
        <time>2019-07-17T15:46:29Z</time>
      </trkpt>
      <trkpt lat="47.80597" lon="-3.52879">
        <ele>19</ele>
        <time>2019-07-17T15:46:30Z</time>
      </trkpt>
      <trkpt lat="47.80597" lon="-3.52885">
        <ele>19</ele>
        <time>2019-07-17T15:46:31Z</time>
      </trkpt>
      <trkpt lat="47.80598" lon="-3.52889">
        <ele>19</ele>
        <time>2019-07-17T15:46:32Z</time>
      </trkpt>
      <trkpt lat="47.80597" lon="-3.52893">
        <ele>19</ele>
        <time>2019-07-17T15:46:33Z</time>
      </trkpt>
      <trkpt lat="47.80596" lon="-3.52896">
        <ele>19</ele>
        <time>2019-07-17T15:46:34Z</time>
      </trkpt>
      <trkpt lat="47.80595" lon="-3.52899">
        <ele>19</ele>
        <time>2019-07-17T15:46:35Z</time>
      </trkpt>
      <trkpt lat="47.80595" lon="-3.52899">
        <ele>19</ele>
        <time>2019-07-17T15:46:36Z</time>
      </trkpt>
      <trkpt lat="47.80592" lon="-3.52906">
        <ele>20</ele>
        <time>2019-07-17T15:46:37Z</time>
      </trkpt>
      <trkpt lat="47.80591" lon="-3.52909">
        <ele>20</ele>
        <time>2019-07-17T15:46:38Z</time>
      </trkpt>
      <trkpt lat="47.80591" lon="-3.52914">
        <ele>20</ele>
        <time>2019-07-17T15:46:39Z</time>
      </trkpt>
      <trkpt lat="47.80592" lon="-3.52918">
        <ele>20</ele>
        <time>2019-07-17T15:46:40Z</time>
      </trkpt>
      <trkpt lat="47.80592" lon="-3.52921">
        <ele>20</ele>
        <time>2019-07-17T15:46:41Z</time>
      </trkpt>
      <trkpt lat="47.80591" lon="-3.52923">
        <ele>21</ele>
        <time>2019-07-17T15:46:42Z</time>
      </trkpt>
      <trkpt lat="47.80591" lon="-3.52927">
        <ele>21</ele>
        <time>2019-07-17T15:46:43Z</time>
      </trkpt>
      <trkpt lat="47.8059" lon="-3.5293">
        <ele>21</ele>
        <time>2019-07-17T15:46:44Z</time>
      </trkpt>
      <trkpt lat="47.8059" lon="-3.52933">
        <ele>22</ele>
        <time>2019-07-17T15:46:45Z</time>
      </trkpt>
      <trkpt lat="47.8059" lon="-3.52937">
        <ele>22</ele>
        <time>2019-07-17T15:46:46Z</time>
      </trkpt>
      <trkpt lat="47.8059" lon="-3.52941">
        <ele>22</ele>
        <time>2019-07-17T15:46:47Z</time>
      </trkpt>
      <trkpt lat="47.8059" lon="-3.52946">
        <ele>23</ele>
        <time>2019-07-17T15:46:48Z</time>
      </trkpt>
      <trkpt lat="47.8059" lon="-3.5295">
        <ele>23</ele>
        <time>2019-07-17T15:46:49Z</time>
      </trkpt>
      <trkpt lat="47.8059" lon="-3.5295">
        <ele>23</ele>
        <time>2019-07-17T15:46:50Z</time>
      </trkpt>
      <trkpt lat="47.80589" lon="-3.52954">
        <ele>23</ele>
        <time>2019-07-17T15:46:51Z</time>
      </trkpt>
      <trkpt lat="47.80586" lon="-3.52963">
        <ele>24</ele>
        <time>2019-07-17T15:46:52Z</time>
      </trkpt>
      <trkpt lat="47.80586" lon="-3.52967">
        <ele>24</ele>
        <time>2019-07-17T15:46:53Z</time>
      </trkpt>
      <trkpt lat="47.80585" lon="-3.52971">
        <ele>25</ele>
        <time>2019-07-17T15:46:54Z</time>
      </trkpt>
      <trkpt lat="47.80585" lon="-3.52976">
        <ele>25</ele>
        <time>2019-07-17T15:46:55Z</time>
      </trkpt>
      <trkpt lat="47.80583" lon="-3.52981">
        <ele>25</ele>
        <time>2019-07-17T15:46:56Z</time>
      </trkpt>
      <trkpt lat="47.80583" lon="-3.52985">
        <ele>25</ele>
        <time>2019-07-17T15:46:57Z</time>
      </trkpt>
      <trkpt lat="47.80582" lon="-3.5299">
        <ele>26</ele>
        <time>2019-07-17T15:46:58Z</time>
      </trkpt>
      <trkpt lat="47.80581" lon="-3.52995">
        <ele>26</ele>
        <time>2019-07-17T15:46:59Z</time>
      </trkpt>
      <trkpt lat="47.8058" lon="-3.53">
        <ele>26</ele>
        <time>2019-07-17T15:47:00Z</time>
      </trkpt>
      <trkpt lat="47.8058" lon="-3.53004">
        <ele>26</ele>
        <time>2019-07-17T15:47:01Z</time>
      </trkpt>
      <trkpt lat="47.80579" lon="-3.53009">
        <ele>27</ele>
        <time>2019-07-17T15:47:02Z</time>
      </trkpt>
      <trkpt lat="47.80579" lon="-3.53009">
        <ele>27</ele>
        <time>2019-07-17T15:47:03Z</time>
      </trkpt>
      <trkpt lat="47.80577" lon="-3.53018">
        <ele>27</ele>
        <time>2019-07-17T15:47:04Z</time>
      </trkpt>
      <trkpt lat="47.80576" lon="-3.53022">
        <ele>27</ele>
        <time>2019-07-17T15:47:05Z</time>
      </trkpt>
      <trkpt lat="47.80575" lon="-3.53029">
        <ele>27</ele>
        <time>2019-07-17T15:47:06Z</time>
      </trkpt>
      <trkpt lat="47.80573" lon="-3.53036">
        <ele>27</ele>
        <time>2019-07-17T15:47:07Z</time>
      </trkpt>
      <trkpt lat="47.8057" lon="-3.53043">
        <ele>27</ele>
        <time>2019-07-17T15:47:08Z</time>
      </trkpt>
      <trkpt lat="47.80569" lon="-3.5305">
        <ele>27</ele>
        <time>2019-07-17T15:47:09Z</time>
      </trkpt>
      <trkpt lat="47.80569" lon="-3.5305">
        <ele>27</ele>
        <time>2019-07-17T15:47:10Z</time>
      </trkpt>
      <trkpt lat="47.80568" lon="-3.53056">
        <ele>28</ele>
        <time>2019-07-17T15:47:11Z</time>
      </trkpt>
      <trkpt lat="47.80567" lon="-3.53071">
        <ele>28</ele>
        <time>2019-07-17T15:47:12Z</time>
      </trkpt>
      <trkpt lat="47.80567" lon="-3.53076">
        <ele>28</ele>
        <time>2019-07-17T15:47:13Z</time>
      </trkpt>
      <trkpt lat="47.80567" lon="-3.53076">
        <ele>28</ele>
        <time>2019-07-17T15:47:14Z</time>
      </trkpt>
      <trkpt lat="47.80567" lon="-3.53081">
        <ele>28</ele>
        <time>2019-07-17T15:47:15Z</time>
      </trkpt>
      <trkpt lat="47.80567" lon="-3.53085">
        <ele>28</ele>
        <time>2019-07-17T15:47:16Z</time>
      </trkpt>
      <trkpt lat="47.80568" lon="-3.53088">
        <ele>28</ele>
        <time>2019-07-17T15:47:17Z</time>
      </trkpt>
      <trkpt lat="47.80569" lon="-3.53097">
        <ele>28</ele>
        <time>2019-07-17T15:47:18Z</time>
      </trkpt>
      <trkpt lat="47.8057" lon="-3.53102">
        <ele>28</ele>
        <time>2019-07-17T15:47:19Z</time>
      </trkpt>
      <trkpt lat="47.8057" lon="-3.53106">
        <ele>28</ele>
        <time>2019-07-17T15:47:20Z</time>
      </trkpt>
      <trkpt lat="47.80571" lon="-3.53111">
        <ele>28</ele>
        <time>2019-07-17T15:47:21Z</time>
      </trkpt>
      <trkpt lat="47.80572" lon="-3.53115">
        <ele>28</ele>
        <time>2019-07-17T15:47:22Z</time>
      </trkpt>
      <trkpt lat="47.80572" lon="-3.53115">
        <ele>28</ele>
        <time>2019-07-17T15:47:23Z</time>
      </trkpt>
      <trkpt lat="47.80573" lon="-3.5312">
        <ele>28</ele>
        <time>2019-07-17T15:47:24Z</time>
      </trkpt>
      <trkpt lat="47.80574" lon="-3.53129">
        <ele>28</ele>
        <time>2019-07-17T15:47:25Z</time>
      </trkpt>
      <trkpt lat="47.80574" lon="-3.53134">
        <ele>29</ele>
        <time>2019-07-17T15:47:26Z</time>
      </trkpt>
      <trkpt lat="47.80574" lon="-3.53134">
        <ele>29</ele>
        <time>2019-07-17T15:47:27Z</time>
      </trkpt>
      <trkpt lat="47.80576" lon="-3.53144">
        <ele>29</ele>
        <time>2019-07-17T15:47:28Z</time>
      </trkpt>
      <trkpt lat="47.80576" lon="-3.53148">
        <ele>29</ele>
        <time>2019-07-17T15:47:29Z</time>
      </trkpt>
      <trkpt lat="47.80577" lon="-3.53153">
        <ele>29</ele>
        <time>2019-07-17T15:47:30Z</time>
      </trkpt>
      <trkpt lat="47.80578" lon="-3.53157">
        <ele>30</ele>
        <time>2019-07-17T15:47:31Z</time>
      </trkpt>
      <trkpt lat="47.80578" lon="-3.53157">
        <ele>30</ele>
        <time>2019-07-17T15:47:32Z</time>
      </trkpt>
      <trkpt lat="47.80578" lon="-3.53161">
        <ele>30</ele>
        <time>2019-07-17T15:47:33Z</time>
      </trkpt>
      <trkpt lat="47.80579" lon="-3.53165">
        <ele>30</ele>
        <time>2019-07-17T15:47:34Z</time>
      </trkpt>
      <trkpt lat="47.8058" lon="-3.53168">
        <ele>30</ele>
        <time>2019-07-17T15:47:35Z</time>
      </trkpt>
      <trkpt lat="47.80581" lon="-3.53171">
        <ele>31</ele>
        <time>2019-07-17T15:47:36Z</time>
      </trkpt>
      <trkpt lat="47.80582" lon="-3.53174">
        <ele>31</ele>
        <time>2019-07-17T15:47:37Z</time>
      </trkpt>
      <trkpt lat="47.80584" lon="-3.53176">
        <ele>31</ele>
        <time>2019-07-17T15:47:38Z</time>
      </trkpt>
      <trkpt lat="47.80585" lon="-3.53179">
        <ele>32</ele>
        <time>2019-07-17T15:47:39Z</time>
      </trkpt>
      <trkpt lat="47.80587" lon="-3.53187">
        <ele>32</ele>
        <time>2019-07-17T15:47:40Z</time>
      </trkpt>
      <trkpt lat="47.80587" lon="-3.53187">
        <ele>32</ele>
        <time>2019-07-17T15:47:41Z</time>
      </trkpt>
      <trkpt lat="47.80588" lon="-3.53199">
        <ele>32</ele>
        <time>2019-07-17T15:47:42Z</time>
      </trkpt>
      <trkpt lat="47.80588" lon="-3.53204">
        <ele>33</ele>
        <time>2019-07-17T15:47:43Z</time>
      </trkpt>
      <trkpt lat="47.80588" lon="-3.5321">
        <ele>33</ele>
        <time>2019-07-17T15:47:44Z</time>
      </trkpt>
      <trkpt lat="47.80589" lon="-3.53214">
        <ele>33</ele>
        <time>2019-07-17T15:47:45Z</time>
      </trkpt>
      <trkpt lat="47.80589" lon="-3.53217">
        <ele>33</ele>
        <time>2019-07-17T15:47:46Z</time>
      </trkpt>
      <trkpt lat="47.80589" lon="-3.53217">
        <ele>33</ele>
        <time>2019-07-17T15:47:47Z</time>
      </trkpt>
      <trkpt lat="47.80589" lon="-3.53224">
        <ele>34</ele>
        <time>2019-07-17T15:47:48Z</time>
      </trkpt>
      <trkpt lat="47.80589" lon="-3.53224">
        <ele>34</ele>
        <time>2019-07-17T15:47:49Z</time>
      </trkpt>
      <trkpt lat="47.80591" lon="-3.53231">
        <ele>34</ele>
        <time>2019-07-17T15:47:50Z</time>
      </trkpt>
      <trkpt lat="47.80592" lon="-3.53235">
        <ele>34</ele>
        <time>2019-07-17T15:47:51Z</time>
      </trkpt>
      <trkpt lat="47.80592" lon="-3.53235">
        <ele>34</ele>
        <time>2019-07-17T15:47:52Z</time>
      </trkpt>
      <trkpt lat="47.80592" lon="-3.53239">
        <ele>35</ele>
        <time>2019-07-17T15:47:53Z</time>
      </trkpt>
      <trkpt lat="47.80594" lon="-3.53245">
        <ele>35</ele>
        <time>2019-07-17T15:47:54Z</time>
      </trkpt>
      <trkpt lat="47.80595" lon="-3.53249">
        <ele>35</ele>
        <time>2019-07-17T15:47:55Z</time>
      </trkpt>
      <trkpt lat="47.80596" lon="-3.53253">
        <ele>36</ele>
        <time>2019-07-17T15:47:56Z</time>
      </trkpt>
      <trkpt lat="47.80596" lon="-3.53253">
        <ele>36</ele>
        <time>2019-07-17T15:47:57Z</time>
      </trkpt>
      <trkpt lat="47.80598" lon="-3.53262">
        <ele>36</ele>
        <time>2019-07-17T15:47:58Z</time>
      </trkpt>
      <trkpt lat="47.80598" lon="-3.53262">
        <ele>36</ele>
        <time>2019-07-17T15:47:59Z</time>
      </trkpt>
      <trkpt lat="47.80601" lon="-3.5327">
        <ele>37</ele>
        <time>2019-07-17T15:48:00Z</time>
      </trkpt>
      <trkpt lat="47.80602" lon="-3.53275">
        <ele>37</ele>
        <time>2019-07-17T15:48:01Z</time>
      </trkpt>
      <trkpt lat="47.80603" lon="-3.53279">
        <ele>37</ele>
        <time>2019-07-17T15:48:02Z</time>
      </trkpt>
      <trkpt lat="47.80603" lon="-3.53279">
        <ele>37</ele>
        <time>2019-07-17T15:48:03Z</time>
      </trkpt>
      <trkpt lat="47.80604" lon="-3.53283">
        <ele>37</ele>
        <time>2019-07-17T15:48:04Z</time>
      </trkpt>
      <trkpt lat="47.80604" lon="-3.53292">
        <ele>37</ele>
        <time>2019-07-17T15:48:05Z</time>
      </trkpt>
      <trkpt lat="47.80605" lon="-3.53296">
        <ele>37</ele>
        <time>2019-07-17T15:48:06Z</time>
      </trkpt>
      <trkpt lat="47.80605" lon="-3.53296">
        <ele>37</ele>
        <time>2019-07-17T15:48:07Z</time>
      </trkpt>
      <trkpt lat="47.80605" lon="-3.53303">
        <ele>38</ele>
        <time>2019-07-17T15:48:08Z</time>
      </trkpt>
      <trkpt lat="47.80605" lon="-3.53306">
        <ele>38</ele>
        <time>2019-07-17T15:48:09Z</time>
      </trkpt>
      <trkpt lat="47.80605" lon="-3.53306">
        <ele>38</ele>
        <time>2019-07-17T15:48:10Z</time>
      </trkpt>
      <trkpt lat="47.80608" lon="-3.53314">
        <ele>38</ele>
        <time>2019-07-17T15:48:11Z</time>
      </trkpt>
      <trkpt lat="47.80609" lon="-3.53318">
        <ele>38</ele>
        <time>2019-07-17T15:48:12Z</time>
      </trkpt>
      <trkpt lat="47.80609" lon="-3.53318">
        <ele>38</ele>
        <time>2019-07-17T15:48:13Z</time>
      </trkpt>
      <trkpt lat="47.8061" lon="-3.53322">
        <ele>39</ele>
        <time>2019-07-17T15:48:14Z</time>
      </trkpt>
      <trkpt lat="47.80611" lon="-3.53325">
        <ele>39</ele>
        <time>2019-07-17T15:48:15Z</time>
      </trkpt>
      <trkpt lat="47.80613" lon="-3.53332">
        <ele>39</ele>
        <time>2019-07-17T15:48:16Z</time>
      </trkpt>
      <trkpt lat="47.80613" lon="-3.53332">
        <ele>39</ele>
        <time>2019-07-17T15:48:17Z</time>
      </trkpt>
      <trkpt lat="47.80615" lon="-3.53337">
        <ele>39</ele>
        <time>2019-07-17T15:48:18Z</time>
      </trkpt>
      <trkpt lat="47.80616" lon="-3.53341">
        <ele>39</ele>
        <time>2019-07-17T15:48:19Z</time>
      </trkpt>
      <trkpt lat="47.80617" lon="-3.53345">
        <ele>40</ele>
        <time>2019-07-17T15:48:20Z</time>
      </trkpt>
      <trkpt lat="47.80619" lon="-3.53349">
        <ele>40</ele>
        <time>2019-07-17T15:48:21Z</time>
      </trkpt>
      <trkpt lat="47.8062" lon="-3.53354">
        <ele>40</ele>
        <time>2019-07-17T15:48:22Z</time>
      </trkpt>
      <trkpt lat="47.80624" lon="-3.53362">
        <ele>41</ele>
        <time>2019-07-17T15:48:23Z</time>
      </trkpt>
      <trkpt lat="47.80626" lon="-3.53367">
        <ele>41</ele>
        <time>2019-07-17T15:48:24Z</time>
      </trkpt>
      <trkpt lat="47.80628" lon="-3.53371">
        <ele>41</ele>
        <time>2019-07-17T15:48:25Z</time>
      </trkpt>
      <trkpt lat="47.80631" lon="-3.53374">
        <ele>41</ele>
        <time>2019-07-17T15:48:26Z</time>
      </trkpt>
      <trkpt lat="47.80634" lon="-3.53375">
        <ele>41</ele>
        <time>2019-07-17T15:48:27Z</time>
      </trkpt>
      <trkpt lat="47.80636" lon="-3.53374">
        <ele>41</ele>
        <time>2019-07-17T15:48:28Z</time>
      </trkpt>
      <trkpt lat="47.80637" lon="-3.53373">
        <ele>41</ele>
        <time>2019-07-17T15:48:29Z</time>
      </trkpt>
      <trkpt lat="47.80638" lon="-3.53372">
        <ele>41</ele>
        <time>2019-07-17T15:48:30Z</time>
      </trkpt>
      <trkpt lat="47.8064" lon="-3.53371">
        <ele>41</ele>
        <time>2019-07-17T15:48:31Z</time>
      </trkpt>
      <trkpt lat="47.80641" lon="-3.53369">
        <ele>41</ele>
        <time>2019-07-17T15:48:32Z</time>
      </trkpt>
      <trkpt lat="47.80643" lon="-3.53367">
        <ele>42</ele>
        <time>2019-07-17T15:48:33Z</time>
      </trkpt>
      <trkpt lat="47.80645" lon="-3.53364">
        <ele>42</ele>
        <time>2019-07-17T15:48:34Z</time>
      </trkpt>
      <trkpt lat="47.80646" lon="-3.53362">
        <ele>42</ele>
        <time>2019-07-17T15:48:35Z</time>
      </trkpt>
      <trkpt lat="47.80647" lon="-3.5336">
        <ele>42</ele>
        <time>2019-07-17T15:48:36Z</time>
      </trkpt>
      <trkpt lat="47.80648" lon="-3.53357">
        <ele>42</ele>
        <time>2019-07-17T15:48:37Z</time>
      </trkpt>
      <trkpt lat="47.8065" lon="-3.53355">
        <ele>42</ele>
        <time>2019-07-17T15:48:38Z</time>
      </trkpt>
      <trkpt lat="47.80651" lon="-3.53352">
        <ele>42</ele>
        <time>2019-07-17T15:48:39Z</time>
      </trkpt>
      <trkpt lat="47.80653" lon="-3.53348">
        <ele>42</ele>
        <time>2019-07-17T15:48:40Z</time>
      </trkpt>
      <trkpt lat="47.80655" lon="-3.53345">
        <ele>42</ele>
        <time>2019-07-17T15:48:41Z</time>
      </trkpt>
      <trkpt lat="47.80658" lon="-3.53342">
        <ele>42</ele>
        <time>2019-07-17T15:48:42Z</time>
      </trkpt>
      <trkpt lat="47.8066" lon="-3.53338">
        <ele>42</ele>
        <time>2019-07-17T15:48:43Z</time>
      </trkpt>
      <trkpt lat="47.80663" lon="-3.53334">
        <ele>42</ele>
        <time>2019-07-17T15:48:44Z</time>
      </trkpt>
      <trkpt lat="47.80666" lon="-3.5333">
        <ele>42</ele>
        <time>2019-07-17T15:48:45Z</time>
      </trkpt>
      <trkpt lat="47.80669" lon="-3.53327">
        <ele>42</ele>
        <time>2019-07-17T15:48:46Z</time>
      </trkpt>
      <trkpt lat="47.80672" lon="-3.53325">
        <ele>42</ele>
        <time>2019-07-17T15:48:47Z</time>
      </trkpt>
      <trkpt lat="47.80675" lon="-3.53325">
        <ele>42</ele>
        <time>2019-07-17T15:48:48Z</time>
      </trkpt>
      <trkpt lat="47.80679" lon="-3.53325">
        <ele>42</ele>
        <time>2019-07-17T15:48:49Z</time>
      </trkpt>
      <trkpt lat="47.80683" lon="-3.53328">
        <ele>42</ele>
        <time>2019-07-17T15:48:50Z</time>
      </trkpt>
      <trkpt lat="47.80687" lon="-3.53331">
        <ele>42</ele>
        <time>2019-07-17T15:48:51Z</time>
      </trkpt>
      <trkpt lat="47.80691" lon="-3.53334">
        <ele>42</ele>
        <time>2019-07-17T15:48:52Z</time>
      </trkpt>
      <trkpt lat="47.80695" lon="-3.53337">
        <ele>42</ele>
        <time>2019-07-17T15:48:53Z</time>
      </trkpt>
      <trkpt lat="47.80698" lon="-3.53341">
        <ele>42</ele>
        <time>2019-07-17T15:48:54Z</time>
      </trkpt>
      <trkpt lat="47.80702" lon="-3.53344">
        <ele>42</ele>
        <time>2019-07-17T15:48:55Z</time>
      </trkpt>
      <trkpt lat="47.80705" lon="-3.53348">
        <ele>42</ele>
        <time>2019-07-17T15:48:56Z</time>
      </trkpt>
      <trkpt lat="47.80709" lon="-3.53351">
        <ele>42</ele>
        <time>2019-07-17T15:48:57Z</time>
      </trkpt>
      <trkpt lat="47.80713" lon="-3.53355">
        <ele>42</ele>
        <time>2019-07-17T15:48:58Z</time>
      </trkpt>
      <trkpt lat="47.80717" lon="-3.53358">
        <ele>42</ele>
        <time>2019-07-17T15:48:59Z</time>
      </trkpt>
      <trkpt lat="47.80721" lon="-3.53363">
        <ele>42</ele>
        <time>2019-07-17T15:49:00Z</time>
      </trkpt>
      <trkpt lat="47.80725" lon="-3.53367">
        <ele>42</ele>
        <time>2019-07-17T15:49:01Z</time>
      </trkpt>
      <trkpt lat="47.80728" lon="-3.53371">
        <ele>42</ele>
        <time>2019-07-17T15:49:02Z</time>
      </trkpt>
      <trkpt lat="47.80731" lon="-3.53374">
        <ele>42</ele>
        <time>2019-07-17T15:49:03Z</time>
      </trkpt>
      <trkpt lat="47.80734" lon="-3.53378">
        <ele>42</ele>
        <time>2019-07-17T15:49:04Z</time>
      </trkpt>
      <trkpt lat="47.80737" lon="-3.53382">
        <ele>42</ele>
        <time>2019-07-17T15:49:05Z</time>
      </trkpt>
      <trkpt lat="47.8074" lon="-3.53387">
        <ele>42</ele>
        <time>2019-07-17T15:49:06Z</time>
      </trkpt>
      <trkpt lat="47.80743" lon="-3.53391">
        <ele>42</ele>
        <time>2019-07-17T15:49:07Z</time>
      </trkpt>
      <trkpt lat="47.80746" lon="-3.53395">
        <ele>42</ele>
        <time>2019-07-17T15:49:08Z</time>
      </trkpt>
      <trkpt lat="47.8075" lon="-3.534">
        <ele>42</ele>
        <time>2019-07-17T15:49:09Z</time>
      </trkpt>
      <trkpt lat="47.80753" lon="-3.53405">
        <ele>42</ele>
        <time>2019-07-17T15:49:10Z</time>
      </trkpt>
      <trkpt lat="47.80757" lon="-3.5341">
        <ele>42</ele>
        <time>2019-07-17T15:49:11Z</time>
      </trkpt>
      <trkpt lat="47.80761" lon="-3.53415">
        <ele>42</ele>
        <time>2019-07-17T15:49:12Z</time>
      </trkpt>
      <trkpt lat="47.80764" lon="-3.53421">
        <ele>42</ele>
        <time>2019-07-17T15:49:13Z</time>
      </trkpt>
      <trkpt lat="47.80768" lon="-3.53427">
        <ele>41</ele>
        <time>2019-07-17T15:49:14Z</time>
      </trkpt>
      <trkpt lat="47.80772" lon="-3.53433">
        <ele>41</ele>
        <time>2019-07-17T15:49:15Z</time>
      </trkpt>
      <trkpt lat="47.80775" lon="-3.5344">
        <ele>41</ele>
        <time>2019-07-17T15:49:16Z</time>
      </trkpt>
      <trkpt lat="47.80779" lon="-3.53446">
        <ele>41</ele>
        <time>2019-07-17T15:49:17Z</time>
      </trkpt>
      <trkpt lat="47.80782" lon="-3.53452">
        <ele>41</ele>
        <time>2019-07-17T15:49:18Z</time>
      </trkpt>
      <trkpt lat="47.80786" lon="-3.53459">
        <ele>41</ele>
        <time>2019-07-17T15:49:19Z</time>
      </trkpt>
      <trkpt lat="47.8079" lon="-3.53466">
        <ele>41</ele>
        <time>2019-07-17T15:49:20Z</time>
      </trkpt>
      <trkpt lat="47.80794" lon="-3.53473">
        <ele>41</ele>
        <time>2019-07-17T15:49:21Z</time>
      </trkpt>
      <trkpt lat="47.80798" lon="-3.5348">
        <ele>41</ele>
        <time>2019-07-17T15:49:22Z</time>
      </trkpt>
      <trkpt lat="47.80802" lon="-3.53486">
        <ele>41</ele>
        <time>2019-07-17T15:49:23Z</time>
      </trkpt>
      <trkpt lat="47.80806" lon="-3.53492">
        <ele>41</ele>
        <time>2019-07-17T15:49:24Z</time>
      </trkpt>
      <trkpt lat="47.80809" lon="-3.53498">
        <ele>41</ele>
        <time>2019-07-17T15:49:25Z</time>
      </trkpt>
      <trkpt lat="47.80813" lon="-3.53505">
        <ele>41</ele>
        <time>2019-07-17T15:49:26Z</time>
      </trkpt>
      <trkpt lat="47.80817" lon="-3.53512">
        <ele>41</ele>
        <time>2019-07-17T15:49:27Z</time>
      </trkpt>
      <trkpt lat="47.80821" lon="-3.53518">
        <ele>40</ele>
        <time>2019-07-17T15:49:28Z</time>
      </trkpt>
      <trkpt lat="47.80825" lon="-3.53523">
        <ele>40</ele>
        <time>2019-07-17T15:49:29Z</time>
      </trkpt>
      <trkpt lat="47.80828" lon="-3.53528">
        <ele>40</ele>
        <time>2019-07-17T15:49:30Z</time>
      </trkpt>
      <trkpt lat="47.80832" lon="-3.53533">
        <ele>40</ele>
        <time>2019-07-17T15:49:31Z</time>
      </trkpt>
      <trkpt lat="47.80836" lon="-3.53539">
        <ele>40</ele>
        <time>2019-07-17T15:49:32Z</time>
      </trkpt>
      <trkpt lat="47.80839" lon="-3.53546">
        <ele>40</ele>
        <time>2019-07-17T15:49:33Z</time>
      </trkpt>
      <trkpt lat="47.80842" lon="-3.53552">
        <ele>40</ele>
        <time>2019-07-17T15:49:34Z</time>
      </trkpt>
      <trkpt lat="47.80845" lon="-3.53559">
        <ele>40</ele>
        <time>2019-07-17T15:49:35Z</time>
      </trkpt>
      <trkpt lat="47.80849" lon="-3.53565">
        <ele>40</ele>
        <time>2019-07-17T15:49:36Z</time>
      </trkpt>
      <trkpt lat="47.80853" lon="-3.53571">
        <ele>40</ele>
        <time>2019-07-17T15:49:37Z</time>
      </trkpt>
      <trkpt lat="47.80857" lon="-3.53577">
        <ele>40</ele>
        <time>2019-07-17T15:49:38Z</time>
      </trkpt>
      <trkpt lat="47.80861" lon="-3.53581">
        <ele>40</ele>
        <time>2019-07-17T15:49:39Z</time>
      </trkpt>
      <trkpt lat="47.80865" lon="-3.53587">
        <ele>40</ele>
        <time>2019-07-17T15:49:40Z</time>
      </trkpt>
      <trkpt lat="47.80869" lon="-3.53592">
        <ele>40</ele>
        <time>2019-07-17T15:49:41Z</time>
      </trkpt>
      <trkpt lat="47.80873" lon="-3.53597">
        <ele>40</ele>
        <time>2019-07-17T15:49:42Z</time>
      </trkpt>
      <trkpt lat="47.80876" lon="-3.53602">
        <ele>40</ele>
        <time>2019-07-17T15:49:43Z</time>
      </trkpt>
      <trkpt lat="47.8088" lon="-3.53607">
        <ele>40</ele>
        <time>2019-07-17T15:49:44Z</time>
      </trkpt>
      <trkpt lat="47.80883" lon="-3.53611">
        <ele>40</ele>
        <time>2019-07-17T15:49:45Z</time>
      </trkpt>
      <trkpt lat="47.80887" lon="-3.53616">
        <ele>40</ele>
        <time>2019-07-17T15:49:46Z</time>
      </trkpt>
      <trkpt lat="47.80892" lon="-3.53621">
        <ele>40</ele>
        <time>2019-07-17T15:49:47Z</time>
      </trkpt>
      <trkpt lat="47.80897" lon="-3.53627">
        <ele>40</ele>
        <time>2019-07-17T15:49:48Z</time>
      </trkpt>
      <trkpt lat="47.80901" lon="-3.53632">
        <ele>40</ele>
        <time>2019-07-17T15:49:49Z</time>
      </trkpt>
      <trkpt lat="47.80905" lon="-3.53637">
        <ele>40</ele>
        <time>2019-07-17T15:49:50Z</time>
      </trkpt>
      <trkpt lat="47.8091" lon="-3.53643">
        <ele>40</ele>
        <time>2019-07-17T15:49:51Z</time>
      </trkpt>
      <trkpt lat="47.80914" lon="-3.53648">
        <ele>41</ele>
        <time>2019-07-17T15:49:52Z</time>
      </trkpt>
      <trkpt lat="47.80919" lon="-3.53653">
        <ele>41</ele>
        <time>2019-07-17T15:49:53Z</time>
      </trkpt>
      <trkpt lat="47.80923" lon="-3.53657">
        <ele>41</ele>
        <time>2019-07-17T15:49:54Z</time>
      </trkpt>
      <trkpt lat="47.80928" lon="-3.53662">
        <ele>41</ele>
        <time>2019-07-17T15:49:55Z</time>
      </trkpt>
      <trkpt lat="47.80932" lon="-3.53666">
        <ele>41</ele>
        <time>2019-07-17T15:49:56Z</time>
      </trkpt>
      <trkpt lat="47.80936" lon="-3.53672">
        <ele>41</ele>
        <time>2019-07-17T15:49:57Z</time>
      </trkpt>
      <trkpt lat="47.80941" lon="-3.53677">
        <ele>42</ele>
        <time>2019-07-17T15:49:58Z</time>
      </trkpt>
      <trkpt lat="47.80946" lon="-3.53682">
        <ele>42</ele>
        <time>2019-07-17T15:49:59Z</time>
      </trkpt>
      <trkpt lat="47.8095" lon="-3.53687">
        <ele>42</ele>
        <time>2019-07-17T15:50:00Z</time>
      </trkpt>
      <trkpt lat="47.80954" lon="-3.53691">
        <ele>42</ele>
        <time>2019-07-17T15:50:01Z</time>
      </trkpt>
      <trkpt lat="47.80959" lon="-3.53696">
        <ele>42</ele>
        <time>2019-07-17T15:50:02Z</time>
      </trkpt>
      <trkpt lat="47.80963" lon="-3.53701">
        <ele>42</ele>
        <time>2019-07-17T15:50:03Z</time>
      </trkpt>
      <trkpt lat="47.80967" lon="-3.53706">
        <ele>42</ele>
        <time>2019-07-17T15:50:04Z</time>
      </trkpt>
      <trkpt lat="47.80971" lon="-3.53711">
        <ele>42</ele>
        <time>2019-07-17T15:50:05Z</time>
      </trkpt>
      <trkpt lat="47.80975" lon="-3.53716">
        <ele>42</ele>
        <time>2019-07-17T15:50:06Z</time>
      </trkpt>
      <trkpt lat="47.80979" lon="-3.53721">
        <ele>42</ele>
        <time>2019-07-17T15:50:07Z</time>
      </trkpt>
      <trkpt lat="47.80983" lon="-3.53725">
        <ele>43</ele>
        <time>2019-07-17T15:50:08Z</time>
      </trkpt>
      <trkpt lat="47.80987" lon="-3.53731">
        <ele>43</ele>
        <time>2019-07-17T15:50:09Z</time>
      </trkpt>
      <trkpt lat="47.80991" lon="-3.53736">
        <ele>43</ele>
        <time>2019-07-17T15:50:10Z</time>
      </trkpt>
      <trkpt lat="47.80996" lon="-3.53741">
        <ele>43</ele>
        <time>2019-07-17T15:50:11Z</time>
      </trkpt>
      <trkpt lat="47.81" lon="-3.53745">
        <ele>43</ele>
        <time>2019-07-17T15:50:12Z</time>
      </trkpt>
      <trkpt lat="47.81004" lon="-3.53749">
        <ele>43</ele>
        <time>2019-07-17T15:50:13Z</time>
      </trkpt>
      <trkpt lat="47.81007" lon="-3.53753">
        <ele>43</ele>
        <time>2019-07-17T15:50:14Z</time>
      </trkpt>
      <trkpt lat="47.81011" lon="-3.53758">
        <ele>43</ele>
        <time>2019-07-17T15:50:15Z</time>
      </trkpt>
      <trkpt lat="47.81015" lon="-3.53763">
        <ele>43</ele>
        <time>2019-07-17T15:50:16Z</time>
      </trkpt>
      <trkpt lat="47.81019" lon="-3.53768">
        <ele>44</ele>
        <time>2019-07-17T15:50:17Z</time>
      </trkpt>
      <trkpt lat="47.81023" lon="-3.53773">
        <ele>44</ele>
        <time>2019-07-17T15:50:18Z</time>
      </trkpt>
      <trkpt lat="47.81027" lon="-3.53778">
        <ele>44</ele>
        <time>2019-07-17T15:50:19Z</time>
      </trkpt>
      <trkpt lat="47.81031" lon="-3.53781">
        <ele>44</ele>
        <time>2019-07-17T15:50:20Z</time>
      </trkpt>
      <trkpt lat="47.81034" lon="-3.53785">
        <ele>44</ele>
        <time>2019-07-17T15:50:21Z</time>
      </trkpt>
      <trkpt lat="47.81038" lon="-3.53788">
        <ele>44</ele>
        <time>2019-07-17T15:50:22Z</time>
      </trkpt>
      <trkpt lat="47.81041" lon="-3.53792">
        <ele>44</ele>
        <time>2019-07-17T15:50:23Z</time>
      </trkpt>
      <trkpt lat="47.81045" lon="-3.53797">
        <ele>44</ele>
        <time>2019-07-17T15:50:24Z</time>
      </trkpt>
      <trkpt lat="47.8105" lon="-3.53803">
        <ele>44</ele>
        <time>2019-07-17T15:50:25Z</time>
      </trkpt>
      <trkpt lat="47.81054" lon="-3.53809">
        <ele>44</ele>
        <time>2019-07-17T15:50:26Z</time>
      </trkpt>
      <trkpt lat="47.81058" lon="-3.53815">
        <ele>44</ele>
        <time>2019-07-17T15:50:27Z</time>
      </trkpt>
      <trkpt lat="47.81062" lon="-3.53821">
        <ele>44</ele>
        <time>2019-07-17T15:50:28Z</time>
      </trkpt>
      <trkpt lat="47.81067" lon="-3.53827">
        <ele>44</ele>
        <time>2019-07-17T15:50:29Z</time>
      </trkpt>
      <trkpt lat="47.81072" lon="-3.53833">
        <ele>44</ele>
        <time>2019-07-17T15:50:30Z</time>
      </trkpt>
      <trkpt lat="47.81078" lon="-3.5384">
        <ele>44</ele>
        <time>2019-07-17T15:50:31Z</time>
      </trkpt>
      <trkpt lat="47.81083" lon="-3.53847">
        <ele>44</ele>
        <time>2019-07-17T15:50:32Z</time>
      </trkpt>
      <trkpt lat="47.81088" lon="-3.53853">
        <ele>44</ele>
        <time>2019-07-17T15:50:33Z</time>
      </trkpt>
      <trkpt lat="47.81093" lon="-3.5386">
        <ele>44</ele>
        <time>2019-07-17T15:50:34Z</time>
      </trkpt>
      <trkpt lat="47.81097" lon="-3.53867">
        <ele>44</ele>
        <time>2019-07-17T15:50:35Z</time>
      </trkpt>
      <trkpt lat="47.81103" lon="-3.53873">
        <ele>44</ele>
        <time>2019-07-17T15:50:36Z</time>
      </trkpt>
      <trkpt lat="47.81107" lon="-3.5388">
        <ele>44</ele>
        <time>2019-07-17T15:50:37Z</time>
      </trkpt>
      <trkpt lat="47.81112" lon="-3.53887">
        <ele>44</ele>
        <time>2019-07-17T15:50:38Z</time>
      </trkpt>
      <trkpt lat="47.81116" lon="-3.53893">
        <ele>44</ele>
        <time>2019-07-17T15:50:39Z</time>
      </trkpt>
      <trkpt lat="47.81121" lon="-3.539">
        <ele>44</ele>
        <time>2019-07-17T15:50:40Z</time>
      </trkpt>
      <trkpt lat="47.81126" lon="-3.53907">
        <ele>44</ele>
        <time>2019-07-17T15:50:41Z</time>
      </trkpt>
      <trkpt lat="47.81131" lon="-3.53914">
        <ele>43</ele>
        <time>2019-07-17T15:50:42Z</time>
      </trkpt>
      <trkpt lat="47.81135" lon="-3.53921">
        <ele>43</ele>
        <time>2019-07-17T15:50:43Z</time>
      </trkpt>
      <trkpt lat="47.8114" lon="-3.53927">
        <ele>43</ele>
        <time>2019-07-17T15:50:44Z</time>
      </trkpt>
      <trkpt lat="47.81144" lon="-3.53934">
        <ele>43</ele>
        <time>2019-07-17T15:50:45Z</time>
      </trkpt>
      <trkpt lat="47.81149" lon="-3.53941">
        <ele>43</ele>
        <time>2019-07-17T15:50:46Z</time>
      </trkpt>
      <trkpt lat="47.81154" lon="-3.53948">
        <ele>43</ele>
        <time>2019-07-17T15:50:47Z</time>
      </trkpt>
      <trkpt lat="47.81159" lon="-3.53954">
        <ele>43</ele>
        <time>2019-07-17T15:50:48Z</time>
      </trkpt>
      <trkpt lat="47.81164" lon="-3.5396">
        <ele>43</ele>
        <time>2019-07-17T15:50:49Z</time>
      </trkpt>
      <trkpt lat="47.81169" lon="-3.53967">
        <ele>43</ele>
        <time>2019-07-17T15:50:50Z</time>
      </trkpt>
      <trkpt lat="47.81173" lon="-3.53973">
        <ele>43</ele>
        <time>2019-07-17T15:50:51Z</time>
      </trkpt>
      <trkpt lat="47.81177" lon="-3.53979">
        <ele>43</ele>
        <time>2019-07-17T15:50:52Z</time>
      </trkpt>
      <trkpt lat="47.81182" lon="-3.53984">
        <ele>43</ele>
        <time>2019-07-17T15:50:53Z</time>
      </trkpt>
      <trkpt lat="47.81186" lon="-3.5399">
        <ele>43</ele>
        <time>2019-07-17T15:50:54Z</time>
      </trkpt>
      <trkpt lat="47.81189" lon="-3.53996">
        <ele>43</ele>
        <time>2019-07-17T15:50:55Z</time>
      </trkpt>
      <trkpt lat="47.81192" lon="-3.54002">
        <ele>43</ele>
        <time>2019-07-17T15:50:56Z</time>
      </trkpt>
      <trkpt lat="47.81195" lon="-3.54008">
        <ele>43</ele>
        <time>2019-07-17T15:50:57Z</time>
      </trkpt>
      <trkpt lat="47.81199" lon="-3.54015">
        <ele>43</ele>
        <time>2019-07-17T15:50:58Z</time>
      </trkpt>
      <trkpt lat="47.81203" lon="-3.54022">
        <ele>43</ele>
        <time>2019-07-17T15:50:59Z</time>
      </trkpt>
      <trkpt lat="47.81208" lon="-3.54028">
        <ele>43</ele>
        <time>2019-07-17T15:51:00Z</time>
      </trkpt>
      <trkpt lat="47.81212" lon="-3.54035">
        <ele>43</ele>
        <time>2019-07-17T15:51:01Z</time>
      </trkpt>
      <trkpt lat="47.81217" lon="-3.54041">
        <ele>43</ele>
        <time>2019-07-17T15:51:02Z</time>
      </trkpt>
      <trkpt lat="47.81222" lon="-3.54047">
        <ele>43</ele>
        <time>2019-07-17T15:51:03Z</time>
      </trkpt>
      <trkpt lat="47.81227" lon="-3.54051">
        <ele>43</ele>
        <time>2019-07-17T15:51:04Z</time>
      </trkpt>
      <trkpt lat="47.81232" lon="-3.54057">
        <ele>42</ele>
        <time>2019-07-17T15:51:05Z</time>
      </trkpt>
      <trkpt lat="47.81237" lon="-3.54062">
        <ele>42</ele>
        <time>2019-07-17T15:51:06Z</time>
      </trkpt>
      <trkpt lat="47.81241" lon="-3.54066">
        <ele>42</ele>
        <time>2019-07-17T15:51:07Z</time>
      </trkpt>
      <trkpt lat="47.81245" lon="-3.5407">
        <ele>42</ele>
        <time>2019-07-17T15:51:08Z</time>
      </trkpt>
      <trkpt lat="47.8125" lon="-3.54074">
        <ele>42</ele>
        <time>2019-07-17T15:51:09Z</time>
      </trkpt>
      <trkpt lat="47.81254" lon="-3.54078">
        <ele>42</ele>
        <time>2019-07-17T15:51:10Z</time>
      </trkpt>
      <trkpt lat="47.81258" lon="-3.54083">
        <ele>42</ele>
        <time>2019-07-17T15:51:11Z</time>
      </trkpt>
      <trkpt lat="47.81263" lon="-3.54088">
        <ele>41</ele>
        <time>2019-07-17T15:51:12Z</time>
      </trkpt>
      <trkpt lat="47.81268" lon="-3.54092">
        <ele>41</ele>
        <time>2019-07-17T15:51:13Z</time>
      </trkpt>
      <trkpt lat="47.81272" lon="-3.54097">
        <ele>41</ele>
        <time>2019-07-17T15:51:14Z</time>
      </trkpt>
      <trkpt lat="47.81277" lon="-3.54101">
        <ele>41</ele>
        <time>2019-07-17T15:51:15Z</time>
      </trkpt>
      <trkpt lat="47.81281" lon="-3.54104">
        <ele>41</ele>
        <time>2019-07-17T15:51:16Z</time>
      </trkpt>
      <trkpt lat="47.81285" lon="-3.54106">
        <ele>41</ele>
        <time>2019-07-17T15:51:17Z</time>
      </trkpt>
      <trkpt lat="47.81289" lon="-3.54109">
        <ele>41</ele>
        <time>2019-07-17T15:51:18Z</time>
      </trkpt>
      <trkpt lat="47.81293" lon="-3.54111">
        <ele>41</ele>
        <time>2019-07-17T15:51:19Z</time>
      </trkpt>
      <trkpt lat="47.81297" lon="-3.54115">
        <ele>41</ele>
        <time>2019-07-17T15:51:20Z</time>
      </trkpt>
      <trkpt lat="47.81301" lon="-3.54119">
        <ele>41</ele>
        <time>2019-07-17T15:51:21Z</time>
      </trkpt>
      <trkpt lat="47.81306" lon="-3.54122">
        <ele>42</ele>
        <time>2019-07-17T15:51:22Z</time>
      </trkpt>
      <trkpt lat="47.81311" lon="-3.54125">
        <ele>42</ele>
        <time>2019-07-17T15:51:23Z</time>
      </trkpt>
      <trkpt lat="47.81315" lon="-3.54128">
        <ele>42</ele>
        <time>2019-07-17T15:51:24Z</time>
      </trkpt>
      <trkpt lat="47.81319" lon="-3.5413">
        <ele>42</ele>
        <time>2019-07-17T15:51:25Z</time>
      </trkpt>
      <trkpt lat="47.81324" lon="-3.54133">
        <ele>42</ele>
        <time>2019-07-17T15:51:26Z</time>
      </trkpt>
      <trkpt lat="47.81328" lon="-3.54134">
        <ele>42</ele>
        <time>2019-07-17T15:51:27Z</time>
      </trkpt>
      <trkpt lat="47.81333" lon="-3.54136">
        <ele>43</ele>
        <time>2019-07-17T15:51:28Z</time>
      </trkpt>
      <trkpt lat="47.81337" lon="-3.54138">
        <ele>43</ele>
        <time>2019-07-17T15:51:29Z</time>
      </trkpt>
      <trkpt lat="47.81341" lon="-3.54139">
        <ele>43</ele>
        <time>2019-07-17T15:51:30Z</time>
      </trkpt>
      <trkpt lat="47.81346" lon="-3.54141">
        <ele>43</ele>
        <time>2019-07-17T15:51:31Z</time>
      </trkpt>
      <trkpt lat="47.81351" lon="-3.54142">
        <ele>43</ele>
        <time>2019-07-17T15:51:32Z</time>
      </trkpt>
      <trkpt lat="47.81356" lon="-3.54143">
        <ele>43</ele>
        <time>2019-07-17T15:51:33Z</time>
      </trkpt>
      <trkpt lat="47.81362" lon="-3.54145">
        <ele>44</ele>
        <time>2019-07-17T15:51:34Z</time>
      </trkpt>
      <trkpt lat="47.81368" lon="-3.54146">
        <ele>44</ele>
        <time>2019-07-17T15:51:35Z</time>
      </trkpt>
      <trkpt lat="47.81374" lon="-3.54147">
        <ele>44</ele>
        <time>2019-07-17T15:51:36Z</time>
      </trkpt>
      <trkpt lat="47.81378" lon="-3.54149">
        <ele>44</ele>
        <time>2019-07-17T15:51:37Z</time>
      </trkpt>
      <trkpt lat="47.81382" lon="-3.5415">
        <ele>45</ele>
        <time>2019-07-17T15:51:38Z</time>
      </trkpt>
      <trkpt lat="47.81384" lon="-3.54151">
        <ele>45</ele>
        <time>2019-07-17T15:51:39Z</time>
      </trkpt>
      <trkpt lat="47.81386" lon="-3.54155">
        <ele>45</ele>
        <time>2019-07-17T15:51:40Z</time>
      </trkpt>
      <trkpt lat="47.81387" lon="-3.54158">
        <ele>45</ele>
        <time>2019-07-17T15:51:41Z</time>
      </trkpt>
      <trkpt lat="47.81389" lon="-3.54162">
        <ele>45</ele>
        <time>2019-07-17T15:51:42Z</time>
      </trkpt>
      <trkpt lat="47.81391" lon="-3.54167">
        <ele>45</ele>
        <time>2019-07-17T15:51:43Z</time>
      </trkpt>
      <trkpt lat="47.81393" lon="-3.54172">
        <ele>45</ele>
        <time>2019-07-17T15:51:44Z</time>
      </trkpt>
      <trkpt lat="47.81395" lon="-3.54178">
        <ele>45</ele>
        <time>2019-07-17T15:51:45Z</time>
      </trkpt>
      <trkpt lat="47.81397" lon="-3.54184">
        <ele>45</ele>
        <time>2019-07-17T15:51:46Z</time>
      </trkpt>
      <trkpt lat="47.81399" lon="-3.54191">
        <ele>45</ele>
        <time>2019-07-17T15:51:47Z</time>
      </trkpt>
      <trkpt lat="47.814" lon="-3.54197">
        <ele>45</ele>
        <time>2019-07-17T15:51:48Z</time>
      </trkpt>
      <trkpt lat="47.81402" lon="-3.54205">
        <ele>45</ele>
        <time>2019-07-17T15:51:49Z</time>
      </trkpt>
      <trkpt lat="47.81404" lon="-3.54211">
        <ele>45</ele>
        <time>2019-07-17T15:51:50Z</time>
      </trkpt>
      <trkpt lat="47.81406" lon="-3.54217">
        <ele>45</ele>
        <time>2019-07-17T15:51:51Z</time>
      </trkpt>
      <trkpt lat="47.81409" lon="-3.54223">
        <ele>45</ele>
        <time>2019-07-17T15:51:52Z</time>
      </trkpt>
      <trkpt lat="47.81411" lon="-3.54229">
        <ele>45</ele>
        <time>2019-07-17T15:51:53Z</time>
      </trkpt>
      <trkpt lat="47.81413" lon="-3.54235">
        <ele>45</ele>
        <time>2019-07-17T15:51:54Z</time>
      </trkpt>
      <trkpt lat="47.81415" lon="-3.54243">
        <ele>45</ele>
        <time>2019-07-17T15:51:55Z</time>
      </trkpt>
      <trkpt lat="47.81417" lon="-3.5425">
        <ele>45</ele>
        <time>2019-07-17T15:51:56Z</time>
      </trkpt>
      <trkpt lat="47.81419" lon="-3.54257">
        <ele>45</ele>
        <time>2019-07-17T15:51:57Z</time>
      </trkpt>
      <trkpt lat="47.81421" lon="-3.54264">
        <ele>45</ele>
        <time>2019-07-17T15:51:58Z</time>
      </trkpt>
      <trkpt lat="47.81424" lon="-3.54269">
        <ele>45</ele>
        <time>2019-07-17T15:51:59Z</time>
      </trkpt>
      <trkpt lat="47.81426" lon="-3.54273">
        <ele>45</ele>
        <time>2019-07-17T15:52:00Z</time>
      </trkpt>
      <trkpt lat="47.81428" lon="-3.54278">
        <ele>45</ele>
        <time>2019-07-17T15:52:01Z</time>
      </trkpt>
      <trkpt lat="47.81429" lon="-3.54284">
        <ele>45</ele>
        <time>2019-07-17T15:52:02Z</time>
      </trkpt>
      <trkpt lat="47.81432" lon="-3.5429">
        <ele>45</ele>
        <time>2019-07-17T15:52:03Z</time>
      </trkpt>
      <trkpt lat="47.81436" lon="-3.54295">
        <ele>45</ele>
        <time>2019-07-17T15:52:04Z</time>
      </trkpt>
      <trkpt lat="47.81438" lon="-3.543">
        <ele>45</ele>
        <time>2019-07-17T15:52:05Z</time>
      </trkpt>
      <trkpt lat="47.81441" lon="-3.54306">
        <ele>45</ele>
        <time>2019-07-17T15:52:06Z</time>
      </trkpt>
      <trkpt lat="47.81443" lon="-3.5431">
        <ele>45</ele>
        <time>2019-07-17T15:52:07Z</time>
      </trkpt>
      <trkpt lat="47.81445" lon="-3.54314">
        <ele>45</ele>
        <time>2019-07-17T15:52:08Z</time>
      </trkpt>
      <trkpt lat="47.81447" lon="-3.54318">
        <ele>45</ele>
        <time>2019-07-17T15:52:09Z</time>
      </trkpt>
      <trkpt lat="47.8145" lon="-3.54322">
        <ele>45</ele>
        <time>2019-07-17T15:52:10Z</time>
      </trkpt>
      <trkpt lat="47.81452" lon="-3.54325">
        <ele>45</ele>
        <time>2019-07-17T15:52:11Z</time>
      </trkpt>
      <trkpt lat="47.81455" lon="-3.54328">
        <ele>45</ele>
        <time>2019-07-17T15:52:12Z</time>
      </trkpt>
      <trkpt lat="47.81459" lon="-3.54331">
        <ele>45</ele>
        <time>2019-07-17T15:52:13Z</time>
      </trkpt>
      <trkpt lat="47.81463" lon="-3.54334">
        <ele>45</ele>
        <time>2019-07-17T15:52:14Z</time>
      </trkpt>
      <trkpt lat="47.81466" lon="-3.54336">
        <ele>45</ele>
        <time>2019-07-17T15:52:15Z</time>
      </trkpt>
      <trkpt lat="47.81469" lon="-3.5434">
        <ele>45</ele>
        <time>2019-07-17T15:52:16Z</time>
      </trkpt>
      <trkpt lat="47.81471" lon="-3.54344">
        <ele>45</ele>
        <time>2019-07-17T15:52:17Z</time>
      </trkpt>
      <trkpt lat="47.81474" lon="-3.54349">
        <ele>45</ele>
        <time>2019-07-17T15:52:18Z</time>
      </trkpt>
      <trkpt lat="47.81476" lon="-3.54353">
        <ele>45</ele>
        <time>2019-07-17T15:52:19Z</time>
      </trkpt>
      <trkpt lat="47.81479" lon="-3.54357">
        <ele>45</ele>
        <time>2019-07-17T15:52:20Z</time>
      </trkpt>
      <trkpt lat="47.81481" lon="-3.5436">
        <ele>45</ele>
        <time>2019-07-17T15:52:21Z</time>
      </trkpt>
      <trkpt lat="47.81483" lon="-3.54364">
        <ele>46</ele>
        <time>2019-07-17T15:52:22Z</time>
      </trkpt>
      <trkpt lat="47.81485" lon="-3.54368">
        <ele>46</ele>
        <time>2019-07-17T15:52:23Z</time>
      </trkpt>
      <trkpt lat="47.81487" lon="-3.54373">
        <ele>46</ele>
        <time>2019-07-17T15:52:24Z</time>
      </trkpt>
      <trkpt lat="47.81489" lon="-3.54378">
        <ele>46</ele>
        <time>2019-07-17T15:52:25Z</time>
      </trkpt>
      <trkpt lat="47.81491" lon="-3.54383">
        <ele>46</ele>
        <time>2019-07-17T15:52:26Z</time>
      </trkpt>
      <trkpt lat="47.81493" lon="-3.54388">
        <ele>47</ele>
        <time>2019-07-17T15:52:27Z</time>
      </trkpt>
      <trkpt lat="47.81495" lon="-3.54394">
        <ele>47</ele>
        <time>2019-07-17T15:52:28Z</time>
      </trkpt>
      <trkpt lat="47.81497" lon="-3.544">
        <ele>47</ele>
        <time>2019-07-17T15:52:29Z</time>
      </trkpt>
      <trkpt lat="47.81498" lon="-3.54406">
        <ele>47</ele>
        <time>2019-07-17T15:52:30Z</time>
      </trkpt>
      <trkpt lat="47.815" lon="-3.54413">
        <ele>47</ele>
        <time>2019-07-17T15:52:31Z</time>
      </trkpt>
      <trkpt lat="47.81502" lon="-3.54419">
        <ele>47</ele>
        <time>2019-07-17T15:52:32Z</time>
      </trkpt>
      <trkpt lat="47.81505" lon="-3.54425">
        <ele>47</ele>
        <time>2019-07-17T15:52:33Z</time>
      </trkpt>
      <trkpt lat="47.81507" lon="-3.54431">
        <ele>47</ele>
        <time>2019-07-17T15:52:34Z</time>
      </trkpt>
      <trkpt lat="47.8151" lon="-3.54435">
        <ele>48</ele>
        <time>2019-07-17T15:52:35Z</time>
      </trkpt>
      <trkpt lat="47.81512" lon="-3.5444">
        <ele>48</ele>
        <time>2019-07-17T15:52:36Z</time>
      </trkpt>
      <trkpt lat="47.81514" lon="-3.54445">
        <ele>48</ele>
        <time>2019-07-17T15:52:37Z</time>
      </trkpt>
      <trkpt lat="47.81516" lon="-3.54448">
        <ele>48</ele>
        <time>2019-07-17T15:52:38Z</time>
      </trkpt>
      <trkpt lat="47.81518" lon="-3.5445">
        <ele>48</ele>
        <time>2019-07-17T15:52:39Z</time>
      </trkpt>
      <trkpt lat="47.8152" lon="-3.54452">
        <ele>48</ele>
        <time>2019-07-17T15:52:40Z</time>
      </trkpt>
      <trkpt lat="47.81521" lon="-3.54455">
        <ele>48</ele>
        <time>2019-07-17T15:52:41Z</time>
      </trkpt>
      <trkpt lat="47.81523" lon="-3.54459">
        <ele>49</ele>
        <time>2019-07-17T15:52:42Z</time>
      </trkpt>
      <trkpt lat="47.81526" lon="-3.54462">
        <ele>49</ele>
        <time>2019-07-17T15:52:43Z</time>
      </trkpt>
      <trkpt lat="47.8153" lon="-3.54467">
        <ele>49</ele>
        <time>2019-07-17T15:52:44Z</time>
      </trkpt>
      <trkpt lat="47.81534" lon="-3.54471">
        <ele>49</ele>
        <time>2019-07-17T15:52:45Z</time>
      </trkpt>
      <trkpt lat="47.81539" lon="-3.54475">
        <ele>49</ele>
        <time>2019-07-17T15:52:46Z</time>
      </trkpt>
      <trkpt lat="47.81543" lon="-3.54479">
        <ele>49</ele>
        <time>2019-07-17T15:52:47Z</time>
      </trkpt>
      <trkpt lat="47.81543" lon="-3.54479">
        <ele>49</ele>
        <time>2019-07-17T15:52:48Z</time>
      </trkpt>
      <trkpt lat="47.8155" lon="-3.54486">
        <ele>49</ele>
        <time>2019-07-17T15:52:49Z</time>
      </trkpt>
      <trkpt lat="47.81554" lon="-3.5449">
        <ele>50</ele>
        <time>2019-07-17T15:52:50Z</time>
      </trkpt>
      <trkpt lat="47.81557" lon="-3.54493">
        <ele>50</ele>
        <time>2019-07-17T15:52:51Z</time>
      </trkpt>
      <trkpt lat="47.8156" lon="-3.54496">
        <ele>50</ele>
        <time>2019-07-17T15:52:52Z</time>
      </trkpt>
      <trkpt lat="47.81563" lon="-3.545">
        <ele>50</ele>
        <time>2019-07-17T15:52:53Z</time>
      </trkpt>
      <trkpt lat="47.81566" lon="-3.54504">
        <ele>50</ele>
        <time>2019-07-17T15:52:54Z</time>
      </trkpt>
      <trkpt lat="47.81569" lon="-3.54508">
        <ele>50</ele>
        <time>2019-07-17T15:52:55Z</time>
      </trkpt>
      <trkpt lat="47.81572" lon="-3.54513">
        <ele>50</ele>
        <time>2019-07-17T15:52:56Z</time>
      </trkpt>
      <trkpt lat="47.81576" lon="-3.54518">
        <ele>50</ele>
        <time>2019-07-17T15:52:57Z</time>
      </trkpt>
      <trkpt lat="47.8158" lon="-3.54523">
        <ele>50</ele>
        <time>2019-07-17T15:52:58Z</time>
      </trkpt>
      <trkpt lat="47.81584" lon="-3.54527">
        <ele>50</ele>
        <time>2019-07-17T15:52:59Z</time>
      </trkpt>
      <trkpt lat="47.81587" lon="-3.54533">
        <ele>50</ele>
        <time>2019-07-17T15:53:00Z</time>
      </trkpt>
      <trkpt lat="47.81591" lon="-3.54537">
        <ele>50</ele>
        <time>2019-07-17T15:53:01Z</time>
      </trkpt>
      <trkpt lat="47.81594" lon="-3.54542">
        <ele>50</ele>
        <time>2019-07-17T15:53:02Z</time>
      </trkpt>
      <trkpt lat="47.81598" lon="-3.54547">
        <ele>50</ele>
        <time>2019-07-17T15:53:03Z</time>
      </trkpt>
      <trkpt lat="47.81601" lon="-3.5455">
        <ele>50</ele>
        <time>2019-07-17T15:53:04Z</time>
      </trkpt>
      <trkpt lat="47.81604" lon="-3.54555">
        <ele>50</ele>
        <time>2019-07-17T15:53:05Z</time>
      </trkpt>
      <trkpt lat="47.81606" lon="-3.54559">
        <ele>50</ele>
        <time>2019-07-17T15:53:06Z</time>
      </trkpt>
      <trkpt lat="47.81609" lon="-3.54564">
        <ele>50</ele>
        <time>2019-07-17T15:53:07Z</time>
      </trkpt>
      <trkpt lat="47.81612" lon="-3.54568">
        <ele>50</ele>
        <time>2019-07-17T15:53:08Z</time>
      </trkpt>
      <trkpt lat="47.81615" lon="-3.54572">
        <ele>50</ele>
        <time>2019-07-17T15:53:09Z</time>
      </trkpt>
      <trkpt lat="47.81618" lon="-3.54575">
        <ele>50</ele>
        <time>2019-07-17T15:53:10Z</time>
      </trkpt>
      <trkpt lat="47.81621" lon="-3.54578">
        <ele>50</ele>
        <time>2019-07-17T15:53:11Z</time>
      </trkpt>
      <trkpt lat="47.81624" lon="-3.54581">
        <ele>49</ele>
        <time>2019-07-17T15:53:12Z</time>
      </trkpt>
      <trkpt lat="47.81627" lon="-3.54585">
        <ele>49</ele>
        <time>2019-07-17T15:53:13Z</time>
      </trkpt>
      <trkpt lat="47.81631" lon="-3.5459">
        <ele>49</ele>
        <time>2019-07-17T15:53:14Z</time>
      </trkpt>
      <trkpt lat="47.81634" lon="-3.54598">
        <ele>49</ele>
        <time>2019-07-17T15:53:15Z</time>
      </trkpt>
      <trkpt lat="47.81637" lon="-3.54604">
        <ele>49</ele>
        <time>2019-07-17T15:53:16Z</time>
      </trkpt>
      <trkpt lat="47.8164" lon="-3.54611">
        <ele>49</ele>
        <time>2019-07-17T15:53:17Z</time>
      </trkpt>
      <trkpt lat="47.81644" lon="-3.54617">
        <ele>49</ele>
        <time>2019-07-17T15:53:18Z</time>
      </trkpt>
      <trkpt lat="47.81647" lon="-3.54623">
        <ele>49</ele>
        <time>2019-07-17T15:53:19Z</time>
      </trkpt>
      <trkpt lat="47.81651" lon="-3.54629">
        <ele>49</ele>
        <time>2019-07-17T15:53:20Z</time>
      </trkpt>
      <trkpt lat="47.81653" lon="-3.54635">
        <ele>49</ele>
        <time>2019-07-17T15:53:21Z</time>
      </trkpt>
      <trkpt lat="47.81657" lon="-3.5464">
        <ele>49</ele>
        <time>2019-07-17T15:53:22Z</time>
      </trkpt>
      <trkpt lat="47.8166" lon="-3.54646">
        <ele>49</ele>
        <time>2019-07-17T15:53:23Z</time>
      </trkpt>
      <trkpt lat="47.81664" lon="-3.54653">
        <ele>49</ele>
        <time>2019-07-17T15:53:24Z</time>
      </trkpt>
      <trkpt lat="47.81668" lon="-3.54659">
        <ele>49</ele>
        <time>2019-07-17T15:53:25Z</time>
      </trkpt>
      <trkpt lat="47.81673" lon="-3.54665">
        <ele>49</ele>
        <time>2019-07-17T15:53:26Z</time>
      </trkpt>
      <trkpt lat="47.81678" lon="-3.54671">
        <ele>49</ele>
        <time>2019-07-17T15:53:27Z</time>
      </trkpt>
      <trkpt lat="47.81683" lon="-3.54676">
        <ele>49</ele>
        <time>2019-07-17T15:53:28Z</time>
      </trkpt>
      <trkpt lat="47.81687" lon="-3.54681">
        <ele>49</ele>
        <time>2019-07-17T15:53:29Z</time>
      </trkpt>
      <trkpt lat="47.81692" lon="-3.54686">
        <ele>49</ele>
        <time>2019-07-17T15:53:30Z</time>
      </trkpt>
      <trkpt lat="47.81697" lon="-3.54691">
        <ele>48</ele>
        <time>2019-07-17T15:53:31Z</time>
      </trkpt>
      <trkpt lat="47.81702" lon="-3.54698">
        <ele>48</ele>
        <time>2019-07-17T15:53:32Z</time>
      </trkpt>
      <trkpt lat="47.81705" lon="-3.54706">
        <ele>48</ele>
        <time>2019-07-17T15:53:33Z</time>
      </trkpt>
      <trkpt lat="47.81708" lon="-3.54713">
        <ele>48</ele>
        <time>2019-07-17T15:53:34Z</time>
      </trkpt>
      <trkpt lat="47.81711" lon="-3.54719">
        <ele>47</ele>
        <time>2019-07-17T15:53:35Z</time>
      </trkpt>
      <trkpt lat="47.81715" lon="-3.54723">
        <ele>47</ele>
        <time>2019-07-17T15:53:36Z</time>
      </trkpt>
      <trkpt lat="47.8172" lon="-3.54723">
        <ele>47</ele>
        <time>2019-07-17T15:53:37Z</time>
      </trkpt>
      <trkpt lat="47.81725" lon="-3.54722">
        <ele>47</ele>
        <time>2019-07-17T15:53:38Z</time>
      </trkpt>
      <trkpt lat="47.81729" lon="-3.54721">
        <ele>47</ele>
        <time>2019-07-17T15:53:39Z</time>
      </trkpt>
      <trkpt lat="47.81732" lon="-3.54719">
        <ele>47</ele>
        <time>2019-07-17T15:53:40Z</time>
      </trkpt>
      <trkpt lat="47.81736" lon="-3.54716">
        <ele>47</ele>
        <time>2019-07-17T15:53:41Z</time>
      </trkpt>
      <trkpt lat="47.81738" lon="-3.54713">
        <ele>47</ele>
        <time>2019-07-17T15:53:42Z</time>
      </trkpt>
      <trkpt lat="47.81741" lon="-3.54711">
        <ele>47</ele>
        <time>2019-07-17T15:53:43Z</time>
      </trkpt>
      <trkpt lat="47.81743" lon="-3.54708">
        <ele>47</ele>
        <time>2019-07-17T15:53:44Z</time>
      </trkpt>
      <trkpt lat="47.81746" lon="-3.54706">
        <ele>46</ele>
        <time>2019-07-17T15:53:45Z</time>
      </trkpt>
      <trkpt lat="47.81748" lon="-3.54703">
        <ele>46</ele>
        <time>2019-07-17T15:53:46Z</time>
      </trkpt>
      <trkpt lat="47.81751" lon="-3.54701">
        <ele>46</ele>
        <time>2019-07-17T15:53:47Z</time>
      </trkpt>
      <trkpt lat="47.81754" lon="-3.54698">
        <ele>46</ele>
        <time>2019-07-17T15:53:48Z</time>
      </trkpt>
      <trkpt lat="47.81757" lon="-3.54695">
        <ele>46</ele>
        <time>2019-07-17T15:53:49Z</time>
      </trkpt>
      <trkpt lat="47.8176" lon="-3.54691">
        <ele>46</ele>
        <time>2019-07-17T15:53:50Z</time>
      </trkpt>
      <trkpt lat="47.81763" lon="-3.54687">
        <ele>47</ele>
        <time>2019-07-17T15:53:51Z</time>
      </trkpt>
      <trkpt lat="47.81767" lon="-3.54683">
        <ele>47</ele>
        <time>2019-07-17T15:53:52Z</time>
      </trkpt>
      <trkpt lat="47.81771" lon="-3.54679">
        <ele>47</ele>
        <time>2019-07-17T15:53:53Z</time>
      </trkpt>
      <trkpt lat="47.81775" lon="-3.54675">
        <ele>47</ele>
        <time>2019-07-17T15:53:54Z</time>
      </trkpt>
      <trkpt lat="47.81779" lon="-3.54671">
        <ele>47</ele>
        <time>2019-07-17T15:53:55Z</time>
      </trkpt>
      <trkpt lat="47.81782" lon="-3.54667">
        <ele>47</ele>
        <time>2019-07-17T15:53:56Z</time>
      </trkpt>
      <trkpt lat="47.81786" lon="-3.54661">
        <ele>47</ele>
        <time>2019-07-17T15:53:57Z</time>
      </trkpt>
      <trkpt lat="47.8179" lon="-3.54657">
        <ele>48</ele>
        <time>2019-07-17T15:53:58Z</time>
      </trkpt>
      <trkpt lat="47.81793" lon="-3.54652">
        <ele>48</ele>
        <time>2019-07-17T15:53:59Z</time>
      </trkpt>
      <trkpt lat="47.81797" lon="-3.54648">
        <ele>48</ele>
        <time>2019-07-17T15:54:00Z</time>
      </trkpt>
      <trkpt lat="47.81801" lon="-3.54645">
        <ele>48</ele>
        <time>2019-07-17T15:54:01Z</time>
      </trkpt>
      <trkpt lat="47.81804" lon="-3.54642">
        <ele>48</ele>
        <time>2019-07-17T15:54:02Z</time>
      </trkpt>
      <trkpt lat="47.81807" lon="-3.54639">
        <ele>48</ele>
        <time>2019-07-17T15:54:03Z</time>
      </trkpt>
      <trkpt lat="47.8181" lon="-3.54635">
        <ele>48</ele>
        <time>2019-07-17T15:54:04Z</time>
      </trkpt>
      <trkpt lat="47.81812" lon="-3.54632">
        <ele>48</ele>
        <time>2019-07-17T15:54:05Z</time>
      </trkpt>
      <trkpt lat="47.81814" lon="-3.54628">
        <ele>48</ele>
        <time>2019-07-17T15:54:06Z</time>
      </trkpt>
      <trkpt lat="47.81817" lon="-3.54624">
        <ele>48</ele>
        <time>2019-07-17T15:54:07Z</time>
      </trkpt>
      <trkpt lat="47.81821" lon="-3.54621">
        <ele>48</ele>
        <time>2019-07-17T15:54:08Z</time>
      </trkpt>
      <trkpt lat="47.81825" lon="-3.54618">
        <ele>48</ele>
        <time>2019-07-17T15:54:09Z</time>
      </trkpt>
      <trkpt lat="47.81829" lon="-3.54615">
        <ele>48</ele>
        <time>2019-07-17T15:54:10Z</time>
      </trkpt>
      <trkpt lat="47.81832" lon="-3.54613">
        <ele>47</ele>
        <time>2019-07-17T15:54:11Z</time>
      </trkpt>
      <trkpt lat="47.81836" lon="-3.54611">
        <ele>47</ele>
        <time>2019-07-17T15:54:12Z</time>
      </trkpt>
      <trkpt lat="47.8184" lon="-3.54609">
        <ele>47</ele>
        <time>2019-07-17T15:54:13Z</time>
      </trkpt>
      <trkpt lat="47.81843" lon="-3.54607">
        <ele>47</ele>
        <time>2019-07-17T15:54:14Z</time>
      </trkpt>
      <trkpt lat="47.81846" lon="-3.54604">
        <ele>47</ele>
        <time>2019-07-17T15:54:15Z</time>
      </trkpt>
      <trkpt lat="47.81849" lon="-3.54602">
        <ele>47</ele>
        <time>2019-07-17T15:54:16Z</time>
      </trkpt>
      <trkpt lat="47.81852" lon="-3.54598">
        <ele>47</ele>
        <time>2019-07-17T15:54:17Z</time>
      </trkpt>
      <trkpt lat="47.81855" lon="-3.54593">
        <ele>47</ele>
        <time>2019-07-17T15:54:18Z</time>
      </trkpt>
      <trkpt lat="47.81857" lon="-3.54589">
        <ele>47</ele>
        <time>2019-07-17T15:54:19Z</time>
      </trkpt>
      <trkpt lat="47.8186" lon="-3.54586">
        <ele>47</ele>
        <time>2019-07-17T15:54:20Z</time>
      </trkpt>
      <trkpt lat="47.81863" lon="-3.54583">
        <ele>47</ele>
        <time>2019-07-17T15:54:21Z</time>
      </trkpt>
      <trkpt lat="47.81866" lon="-3.54581">
        <ele>47</ele>
        <time>2019-07-17T15:54:22Z</time>
      </trkpt>
      <trkpt lat="47.81869" lon="-3.54577">
        <ele>47</ele>
        <time>2019-07-17T15:54:23Z</time>
      </trkpt>
      <trkpt lat="47.81871" lon="-3.54573">
        <ele>47</ele>
        <time>2019-07-17T15:54:24Z</time>
      </trkpt>
      <trkpt lat="47.81873" lon="-3.54569">
        <ele>47</ele>
        <time>2019-07-17T15:54:25Z</time>
      </trkpt>
      <trkpt lat="47.81876" lon="-3.54566">
        <ele>47</ele>
        <time>2019-07-17T15:54:26Z</time>
      </trkpt>
      <trkpt lat="47.8188" lon="-3.54563">
        <ele>47</ele>
        <time>2019-07-17T15:54:27Z</time>
      </trkpt>
      <trkpt lat="47.81884" lon="-3.5456">
        <ele>47</ele>
        <time>2019-07-17T15:54:28Z</time>
      </trkpt>
      <trkpt lat="47.81889" lon="-3.54555">
        <ele>46</ele>
        <time>2019-07-17T15:54:29Z</time>
      </trkpt>
      <trkpt lat="47.81894" lon="-3.54549">
        <ele>46</ele>
        <time>2019-07-17T15:54:30Z</time>
      </trkpt>
      <trkpt lat="47.81899" lon="-3.54544">
        <ele>46</ele>
        <time>2019-07-17T15:54:31Z</time>
      </trkpt>
      <trkpt lat="47.81905" lon="-3.54539">
        <ele>46</ele>
        <time>2019-07-17T15:54:32Z</time>
      </trkpt>
      <trkpt lat="47.81911" lon="-3.54534">
        <ele>46</ele>
        <time>2019-07-17T15:54:33Z</time>
      </trkpt>
      <trkpt lat="47.81915" lon="-3.54529">
        <ele>46</ele>
        <time>2019-07-17T15:54:34Z</time>
      </trkpt>
      <trkpt lat="47.81919" lon="-3.54524">
        <ele>46</ele>
        <time>2019-07-17T15:54:35Z</time>
      </trkpt>
      <trkpt lat="47.81923" lon="-3.5452">
        <ele>46</ele>
        <time>2019-07-17T15:54:36Z</time>
      </trkpt>
      <trkpt lat="47.81925" lon="-3.54517">
        <ele>46</ele>
        <time>2019-07-17T15:54:37Z</time>
      </trkpt>
      <trkpt lat="47.81927" lon="-3.54515">
        <ele>45</ele>
        <time>2019-07-17T15:54:38Z</time>
      </trkpt>
      <trkpt lat="47.81928" lon="-3.54513">
        <ele>45</ele>
        <time>2019-07-17T15:54:39Z</time>
      </trkpt>
      <trkpt lat="47.81928" lon="-3.54512">
        <ele>45</ele>
        <time>2019-07-17T15:54:40Z</time>
      </trkpt>
      <trkpt lat="47.81929" lon="-3.54511">
        <ele>45</ele>
        <time>2019-07-17T15:54:41Z</time>
      </trkpt>
      <trkpt lat="47.8193" lon="-3.5451">
        <ele>45</ele>
        <time>2019-07-17T15:54:42Z</time>
      </trkpt>
      <trkpt lat="47.81931" lon="-3.5451">
        <ele>45</ele>
        <time>2019-07-17T15:54:43Z</time>
      </trkpt>
      <trkpt lat="47.81931" lon="-3.54509">
        <ele>44</ele>
        <time>2019-07-17T15:54:44Z</time>
      </trkpt>
      <trkpt lat="47.81932" lon="-3.54508">
        <ele>44</ele>
        <time>2019-07-17T15:54:45Z</time>
      </trkpt>
      <trkpt lat="47.81932" lon="-3.54507">
        <ele>44</ele>
        <time>2019-07-17T15:54:46Z</time>
      </trkpt>
      <trkpt lat="47.81933" lon="-3.54507">
        <ele>44</ele>
        <time>2019-07-17T15:54:47Z</time>
      </trkpt>
      <trkpt lat="47.81934" lon="-3.54506">
        <ele>44</ele>
        <time>2019-07-17T15:54:48Z</time>
      </trkpt>
      <trkpt lat="47.81935" lon="-3.54506">
        <ele>43</ele>
        <time>2019-07-17T15:54:49Z</time>
      </trkpt>
      <trkpt lat="47.81936" lon="-3.54505">
        <ele>43</ele>
        <time>2019-07-17T15:54:50Z</time>
      </trkpt>
      <trkpt lat="47.81937" lon="-3.54505">
        <ele>42</ele>
        <time>2019-07-17T15:54:51Z</time>
      </trkpt>
      <trkpt lat="47.81939" lon="-3.54504">
        <ele>42</ele>
        <time>2019-07-17T15:54:52Z</time>
      </trkpt>
      <trkpt lat="47.81941" lon="-3.54502">
        <ele>42</ele>
        <time>2019-07-17T15:54:53Z</time>
      </trkpt>
      <trkpt lat="47.81942" lon="-3.545">
        <ele>41</ele>
        <time>2019-07-17T15:54:54Z</time>
      </trkpt>
      <trkpt lat="47.81943" lon="-3.54499">
        <ele>41</ele>
        <time>2019-07-17T15:54:55Z</time>
      </trkpt>
      <trkpt lat="47.81944" lon="-3.54498">
        <ele>41</ele>
        <time>2019-07-17T15:54:56Z</time>
      </trkpt>
      <trkpt lat="47.81945" lon="-3.54497">
        <ele>40</ele>
        <time>2019-07-17T15:54:57Z</time>
      </trkpt>
      <trkpt lat="47.81946" lon="-3.54495">
        <ele>40</ele>
        <time>2019-07-17T15:54:58Z</time>
      </trkpt>
      <trkpt lat="47.81948" lon="-3.54493">
        <ele>40</ele>
        <time>2019-07-17T15:54:59Z</time>
      </trkpt>
      <trkpt lat="47.81949" lon="-3.5449">
        <ele>40</ele>
        <time>2019-07-17T15:55:00Z</time>
      </trkpt>
      <trkpt lat="47.81951" lon="-3.54487">
        <ele>39</ele>
        <time>2019-07-17T15:55:01Z</time>
      </trkpt>
      <trkpt lat="47.81953" lon="-3.54482">
        <ele>39</ele>
        <time>2019-07-17T15:55:02Z</time>
      </trkpt>
      <trkpt lat="47.81956" lon="-3.54478">
        <ele>39</ele>
        <time>2019-07-17T15:55:03Z</time>
      </trkpt>
      <trkpt lat="47.81958" lon="-3.54473">
        <ele>39</ele>
        <time>2019-07-17T15:55:04Z</time>
      </trkpt>
      <trkpt lat="47.81961" lon="-3.54468">
        <ele>39</ele>
        <time>2019-07-17T15:55:05Z</time>
      </trkpt>
      <trkpt lat="47.81964" lon="-3.54463">
        <ele>38</ele>
        <time>2019-07-17T15:55:06Z</time>
      </trkpt>
      <trkpt lat="47.81967" lon="-3.54459">
        <ele>38</ele>
        <time>2019-07-17T15:55:07Z</time>
      </trkpt>
      <trkpt lat="47.8197" lon="-3.54455">
        <ele>38</ele>
        <time>2019-07-17T15:55:08Z</time>
      </trkpt>
      <trkpt lat="47.81973" lon="-3.54453">
        <ele>38</ele>
        <time>2019-07-17T15:55:09Z</time>
      </trkpt>
      <trkpt lat="47.81976" lon="-3.54449">
        <ele>37</ele>
        <time>2019-07-17T15:55:10Z</time>
      </trkpt>
      <trkpt lat="47.81979" lon="-3.54446">
        <ele>37</ele>
        <time>2019-07-17T15:55:11Z</time>
      </trkpt>
      <trkpt lat="47.81982" lon="-3.54443">
        <ele>37</ele>
        <time>2019-07-17T15:55:12Z</time>
      </trkpt>
      <trkpt lat="47.81985" lon="-3.54439">
        <ele>37</ele>
        <time>2019-07-17T15:55:13Z</time>
      </trkpt>
      <trkpt lat="47.81988" lon="-3.54435">
        <ele>37</ele>
        <time>2019-07-17T15:55:14Z</time>
      </trkpt>
      <trkpt lat="47.81991" lon="-3.54431">
        <ele>37</ele>
        <time>2019-07-17T15:55:15Z</time>
      </trkpt>
      <trkpt lat="47.81993" lon="-3.54427">
        <ele>36</ele>
        <time>2019-07-17T15:55:16Z</time>
      </trkpt>
      <trkpt lat="47.81995" lon="-3.54423">
        <ele>36</ele>
        <time>2019-07-17T15:55:17Z</time>
      </trkpt>
      <trkpt lat="47.81997" lon="-3.54421">
        <ele>36</ele>
        <time>2019-07-17T15:55:18Z</time>
      </trkpt>
      <trkpt lat="47.81999" lon="-3.54418">
        <ele>36</ele>
        <time>2019-07-17T15:55:19Z</time>
      </trkpt>
      <trkpt lat="47.82001" lon="-3.54414">
        <ele>36</ele>
        <time>2019-07-17T15:55:20Z</time>
      </trkpt>
      <trkpt lat="47.82003" lon="-3.54411">
        <ele>36</ele>
        <time>2019-07-17T15:55:21Z</time>
      </trkpt>
      <trkpt lat="47.82005" lon="-3.54409">
        <ele>35</ele>
        <time>2019-07-17T15:55:22Z</time>
      </trkpt>
      <trkpt lat="47.82009" lon="-3.54407">
        <ele>35</ele>
        <time>2019-07-17T15:55:23Z</time>
      </trkpt>
      <trkpt lat="47.82013" lon="-3.54403">
        <ele>35</ele>
        <time>2019-07-17T15:55:24Z</time>
      </trkpt>
      <trkpt lat="47.82018" lon="-3.54399">
        <ele>35</ele>
        <time>2019-07-17T15:55:25Z</time>
      </trkpt>
      <trkpt lat="47.82023" lon="-3.54394">
        <ele>35</ele>
        <time>2019-07-17T15:55:26Z</time>
      </trkpt>
      <trkpt lat="47.82029" lon="-3.54389">
        <ele>35</ele>
        <time>2019-07-17T15:55:27Z</time>
      </trkpt>
      <trkpt lat="47.82034" lon="-3.54383">
        <ele>35</ele>
        <time>2019-07-17T15:55:28Z</time>
      </trkpt>
      <trkpt lat="47.8204" lon="-3.54379">
        <ele>35</ele>
        <time>2019-07-17T15:55:29Z</time>
      </trkpt>
      <trkpt lat="47.82047" lon="-3.54374">
        <ele>35</ele>
        <time>2019-07-17T15:55:30Z</time>
      </trkpt>
      <trkpt lat="47.82054" lon="-3.54369">
        <ele>35</ele>
        <time>2019-07-17T15:55:31Z</time>
      </trkpt>
      <trkpt lat="47.82062" lon="-3.54365">
        <ele>35</ele>
        <time>2019-07-17T15:55:32Z</time>
      </trkpt>
      <trkpt lat="47.82068" lon="-3.54361">
        <ele>35</ele>
        <time>2019-07-17T15:55:33Z</time>
      </trkpt>
      <trkpt lat="47.82074" lon="-3.54359">
        <ele>35</ele>
        <time>2019-07-17T15:55:34Z</time>
      </trkpt>
      <trkpt lat="47.82079" lon="-3.54356">
        <ele>35</ele>
        <time>2019-07-17T15:55:35Z</time>
      </trkpt>
      <trkpt lat="47.82085" lon="-3.54352">
        <ele>35</ele>
        <time>2019-07-17T15:55:36Z</time>
      </trkpt>
      <trkpt lat="47.8209" lon="-3.54349">
        <ele>35</ele>
        <time>2019-07-17T15:55:37Z</time>
      </trkpt>
      <trkpt lat="47.82095" lon="-3.54346">
        <ele>35</ele>
        <time>2019-07-17T15:55:38Z</time>
      </trkpt>
      <trkpt lat="47.82101" lon="-3.54344">
        <ele>35</ele>
        <time>2019-07-17T15:55:39Z</time>
      </trkpt>
      <trkpt lat="47.82107" lon="-3.54341">
        <ele>34</ele>
        <time>2019-07-17T15:55:40Z</time>
      </trkpt>
      <trkpt lat="47.82113" lon="-3.54337">
        <ele>34</ele>
        <time>2019-07-17T15:55:41Z</time>
      </trkpt>
      <trkpt lat="47.82119" lon="-3.54334">
        <ele>34</ele>
        <time>2019-07-17T15:55:42Z</time>
      </trkpt>
      <trkpt lat="47.82125" lon="-3.54332">
        <ele>34</ele>
        <time>2019-07-17T15:55:43Z</time>
      </trkpt>
      <trkpt lat="47.82131" lon="-3.5433">
        <ele>34</ele>
        <time>2019-07-17T15:55:44Z</time>
      </trkpt>
      <trkpt lat="47.82136" lon="-3.54328">
        <ele>34</ele>
        <time>2019-07-17T15:55:45Z</time>
      </trkpt>
      <trkpt lat="47.82139" lon="-3.54326">
        <ele>33</ele>
        <time>2019-07-17T15:55:46Z</time>
      </trkpt>
      <trkpt lat="47.82141" lon="-3.54325">
        <ele>33</ele>
        <time>2019-07-17T15:55:47Z</time>
      </trkpt>
      <trkpt lat="47.82143" lon="-3.54325">
        <ele>32</ele>
        <time>2019-07-17T15:55:48Z</time>
      </trkpt>
      <trkpt lat="47.82145" lon="-3.54324">
        <ele>32</ele>
        <time>2019-07-17T15:55:49Z</time>
      </trkpt>
      <trkpt lat="47.82148" lon="-3.54323">
        <ele>32</ele>
        <time>2019-07-17T15:55:50Z</time>
      </trkpt>
      <trkpt lat="47.8215" lon="-3.54322">
        <ele>31</ele>
        <time>2019-07-17T15:55:51Z</time>
      </trkpt>
      <trkpt lat="47.82152" lon="-3.54321">
        <ele>31</ele>
        <time>2019-07-17T15:55:52Z</time>
      </trkpt>
      <trkpt lat="47.82155" lon="-3.5432">
        <ele>30</ele>
        <time>2019-07-17T15:55:53Z</time>
      </trkpt>
      <trkpt lat="47.82158" lon="-3.5432">
        <ele>30</ele>
        <time>2019-07-17T15:55:54Z</time>
      </trkpt>
      <trkpt lat="47.82161" lon="-3.5432">
        <ele>29</ele>
        <time>2019-07-17T15:55:55Z</time>
      </trkpt>
      <trkpt lat="47.82163" lon="-3.54321">
        <ele>29</ele>
        <time>2019-07-17T15:55:56Z</time>
      </trkpt>
      <trkpt lat="47.82165" lon="-3.54323">
        <ele>28</ele>
        <time>2019-07-17T15:55:57Z</time>
      </trkpt>
      <trkpt lat="47.82167" lon="-3.54324">
        <ele>28</ele>
        <time>2019-07-17T15:55:58Z</time>
      </trkpt>
      <trkpt lat="47.8217" lon="-3.54325">
        <ele>27</ele>
        <time>2019-07-17T15:55:59Z</time>
      </trkpt>
      <trkpt lat="47.82171" lon="-3.54326">
        <ele>27</ele>
        <time>2019-07-17T15:56:00Z</time>
      </trkpt>
      <trkpt lat="47.82173" lon="-3.54325">
        <ele>27</ele>
        <time>2019-07-17T15:56:01Z</time>
      </trkpt>
      <trkpt lat="47.82175" lon="-3.54325">
        <ele>26</ele>
        <time>2019-07-17T15:56:02Z</time>
      </trkpt>
      <trkpt lat="47.82178" lon="-3.54325">
        <ele>26</ele>
        <time>2019-07-17T15:56:03Z</time>
      </trkpt>
      <trkpt lat="47.8218" lon="-3.54326">
        <ele>26</ele>
        <time>2019-07-17T15:56:04Z</time>
      </trkpt>
      <trkpt lat="47.82183" lon="-3.54327">
        <ele>25</ele>
        <time>2019-07-17T15:56:05Z</time>
      </trkpt>
      <trkpt lat="47.82186" lon="-3.54329">
        <ele>25</ele>
        <time>2019-07-17T15:56:06Z</time>
      </trkpt>
      <trkpt lat="47.82188" lon="-3.54331">
        <ele>25</ele>
        <time>2019-07-17T15:56:07Z</time>
      </trkpt>
      <trkpt lat="47.82191" lon="-3.54332">
        <ele>25</ele>
        <time>2019-07-17T15:56:08Z</time>
      </trkpt>
      <trkpt lat="47.82194" lon="-3.54333">
        <ele>25</ele>
        <time>2019-07-17T15:56:09Z</time>
      </trkpt>
      <trkpt lat="47.82196" lon="-3.54335">
        <ele>24</ele>
        <time>2019-07-17T15:56:10Z</time>
      </trkpt>
      <trkpt lat="47.82199" lon="-3.54337">
        <ele>24</ele>
        <time>2019-07-17T15:56:11Z</time>
      </trkpt>
      <trkpt lat="47.82202" lon="-3.54338">
        <ele>24</ele>
        <time>2019-07-17T15:56:12Z</time>
      </trkpt>
      <trkpt lat="47.82205" lon="-3.54339">
        <ele>24</ele>
        <time>2019-07-17T15:56:13Z</time>
      </trkpt>
      <trkpt lat="47.82207" lon="-3.5434">
        <ele>24</ele>
        <time>2019-07-17T15:56:14Z</time>
      </trkpt>
      <trkpt lat="47.82209" lon="-3.54342">
        <ele>23</ele>
        <time>2019-07-17T15:56:15Z</time>
      </trkpt>
      <trkpt lat="47.82211" lon="-3.54342">
        <ele>23</ele>
        <time>2019-07-17T15:56:16Z</time>
      </trkpt>
      <trkpt lat="47.82212" lon="-3.54343">
        <ele>23</ele>
        <time>2019-07-17T15:56:17Z</time>
      </trkpt>
      <trkpt lat="47.82214" lon="-3.54343">
        <ele>23</ele>
        <time>2019-07-17T15:56:18Z</time>
      </trkpt>
      <trkpt lat="47.82217" lon="-3.54344">
        <ele>23</ele>
        <time>2019-07-17T15:56:19Z</time>
      </trkpt>
      <trkpt lat="47.8222" lon="-3.54345">
        <ele>22</ele>
        <time>2019-07-17T15:56:20Z</time>
      </trkpt>
      <trkpt lat="47.82223" lon="-3.54344">
        <ele>22</ele>
        <time>2019-07-17T15:56:21Z</time>
      </trkpt>
      <trkpt lat="47.82225" lon="-3.54343">
        <ele>22</ele>
        <time>2019-07-17T15:56:22Z</time>
      </trkpt>
      <trkpt lat="47.82227" lon="-3.54343">
        <ele>22</ele>
        <time>2019-07-17T15:56:23Z</time>
      </trkpt>
      <trkpt lat="47.82229" lon="-3.54343">
        <ele>22</ele>
        <time>2019-07-17T15:56:24Z</time>
      </trkpt>
      <trkpt lat="47.8223" lon="-3.54344">
        <ele>21</ele>
        <time>2019-07-17T15:56:25Z</time>
      </trkpt>
      <trkpt lat="47.82233" lon="-3.54346">
        <ele>21</ele>
        <time>2019-07-17T15:56:26Z</time>
      </trkpt>
      <trkpt lat="47.82235" lon="-3.54347">
        <ele>21</ele>
        <time>2019-07-17T15:56:27Z</time>
      </trkpt>
      <trkpt lat="47.82237" lon="-3.54348">
        <ele>21</ele>
        <time>2019-07-17T15:56:28Z</time>
      </trkpt>
      <trkpt lat="47.8224" lon="-3.54349">
        <ele>20</ele>
        <time>2019-07-17T15:56:29Z</time>
      </trkpt>
      <trkpt lat="47.82243" lon="-3.5435">
        <ele>20</ele>
        <time>2019-07-17T15:56:30Z</time>
      </trkpt>
      <trkpt lat="47.82245" lon="-3.54352">
        <ele>20</ele>
        <time>2019-07-17T15:56:31Z</time>
      </trkpt>
      <trkpt lat="47.82247" lon="-3.54353">
        <ele>20</ele>
        <time>2019-07-17T15:56:32Z</time>
      </trkpt>
      <trkpt lat="47.82249" lon="-3.54353">
        <ele>19</ele>
        <time>2019-07-17T15:56:33Z</time>
      </trkpt>
      <trkpt lat="47.82251" lon="-3.54355">
        <ele>19</ele>
        <time>2019-07-17T15:56:34Z</time>
      </trkpt>
      <trkpt lat="47.82253" lon="-3.54356">
        <ele>19</ele>
        <time>2019-07-17T15:56:35Z</time>
      </trkpt>
      <trkpt lat="47.82255" lon="-3.54357">
        <ele>19</ele>
        <time>2019-07-17T15:56:36Z</time>
      </trkpt>
      <trkpt lat="47.82257" lon="-3.54357">
        <ele>18</ele>
        <time>2019-07-17T15:56:37Z</time>
      </trkpt>
      <trkpt lat="47.82258" lon="-3.54358">
        <ele>18</ele>
        <time>2019-07-17T15:56:38Z</time>
      </trkpt>
      <trkpt lat="47.8226" lon="-3.54359">
        <ele>18</ele>
        <time>2019-07-17T15:56:39Z</time>
      </trkpt>
      <trkpt lat="47.82261" lon="-3.54359">
        <ele>18</ele>
        <time>2019-07-17T15:56:40Z</time>
      </trkpt>
      <trkpt lat="47.82263" lon="-3.5436">
        <ele>18</ele>
        <time>2019-07-17T15:56:41Z</time>
      </trkpt>
      <trkpt lat="47.82264" lon="-3.5436">
        <ele>18</ele>
        <time>2019-07-17T15:56:42Z</time>
      </trkpt>
      <trkpt lat="47.82265" lon="-3.5436">
        <ele>18</ele>
        <time>2019-07-17T15:56:43Z</time>
      </trkpt>
      <trkpt lat="47.82266" lon="-3.54361">
        <ele>18</ele>
        <time>2019-07-17T15:56:44Z</time>
      </trkpt>
      <trkpt lat="47.82267" lon="-3.54362">
        <ele>18</ele>
        <time>2019-07-17T15:56:45Z</time>
      </trkpt>
      <trkpt lat="47.82268" lon="-3.54362">
        <ele>17</ele>
        <time>2019-07-17T15:56:46Z</time>
      </trkpt>
      <trkpt lat="47.82269" lon="-3.54362">
        <ele>17</ele>
        <time>2019-07-17T15:56:47Z</time>
      </trkpt>
      <trkpt lat="47.82269" lon="-3.54362">
        <ele>17</ele>
        <time>2019-07-17T15:56:48Z</time>
      </trkpt>
      <trkpt lat="47.82269" lon="-3.54363">
        <ele>17</ele>
        <time>2019-07-17T15:56:49Z</time>
      </trkpt>
      <trkpt lat="47.8228" lon="-3.54369">
        <ele>16</ele>
        <time>2019-07-17T15:56:50Z</time>
      </trkpt>
      <trkpt lat="47.82281" lon="-3.5437">
        <ele>16</ele>
        <time>2019-07-17T15:56:51Z</time>
      </trkpt>
      <trkpt lat="47.82282" lon="-3.5437">
        <ele>16</ele>
        <time>2019-07-17T15:56:52Z</time>
      </trkpt>
      <trkpt lat="47.82283" lon="-3.54371">
        <ele>16</ele>
        <time>2019-07-17T15:56:53Z</time>
      </trkpt>
      <trkpt lat="47.82286" lon="-3.54373">
        <ele>15</ele>
        <time>2019-07-17T15:56:54Z</time>
      </trkpt>
      <trkpt lat="47.82288" lon="-3.54373">
        <ele>15</ele>
        <time>2019-07-17T15:56:55Z</time>
      </trkpt>
      <trkpt lat="47.82288" lon="-3.54374">
        <ele>15</ele>
        <time>2019-07-17T15:56:56Z</time>
      </trkpt>
      <trkpt lat="47.82299" lon="-3.54394">
        <ele>9</ele>
        <time>2019-07-17T15:56:57Z</time>
      </trkpt>
      <trkpt lat="47.82301" lon="-3.54397">
        <ele>9</ele>
        <time>2019-07-17T15:56:58Z</time>
      </trkpt>
      <trkpt lat="47.82302" lon="-3.54399">
        <ele>9</ele>
        <time>2019-07-17T15:56:59Z</time>
      </trkpt>
      <trkpt lat="47.82302" lon="-3.54401">
        <ele>9</ele>
        <time>2019-07-17T15:57:00Z</time>
      </trkpt>
      <trkpt lat="47.82303" lon="-3.54404">
        <ele>9</ele>
        <time>2019-07-17T15:57:01Z</time>
      </trkpt>
      <trkpt lat="47.82305" lon="-3.54407">
        <ele>9</ele>
        <time>2019-07-17T15:57:02Z</time>
      </trkpt>
      <trkpt lat="47.82306" lon="-3.5441">
        <ele>9</ele>
        <time>2019-07-17T15:57:03Z</time>
      </trkpt>
      <trkpt lat="47.82309" lon="-3.54413">
        <ele>9</ele>
        <time>2019-07-17T15:57:04Z</time>
      </trkpt>
      <trkpt lat="47.82311" lon="-3.54418">
        <ele>9</ele>
        <time>2019-07-17T15:57:05Z</time>
      </trkpt>
      <trkpt lat="47.82313" lon="-3.54422">
        <ele>9</ele>
        <time>2019-07-17T15:57:06Z</time>
      </trkpt>
      <trkpt lat="47.82316" lon="-3.54427">
        <ele>9</ele>
        <time>2019-07-17T15:57:07Z</time>
      </trkpt>
      <trkpt lat="47.82319" lon="-3.54431">
        <ele>9</ele>
        <time>2019-07-17T15:57:08Z</time>
      </trkpt>
      <trkpt lat="47.82322" lon="-3.54436">
        <ele>9</ele>
        <time>2019-07-17T15:57:09Z</time>
      </trkpt>
      <trkpt lat="47.82325" lon="-3.54439">
        <ele>9</ele>
        <time>2019-07-17T15:57:10Z</time>
      </trkpt>
      <trkpt lat="47.82326" lon="-3.54443">
        <ele>9</ele>
        <time>2019-07-17T15:57:11Z</time>
      </trkpt>
      <trkpt lat="47.82327" lon="-3.54446">
        <ele>9</ele>
        <time>2019-07-17T15:57:12Z</time>
      </trkpt>
      <trkpt lat="47.82329" lon="-3.54448">
        <ele>9</ele>
        <time>2019-07-17T15:57:13Z</time>
      </trkpt>
      <trkpt lat="47.8233" lon="-3.54452">
        <ele>9</ele>
        <time>2019-07-17T15:57:14Z</time>
      </trkpt>
      <trkpt lat="47.82331" lon="-3.54456">
        <ele>9</ele>
        <time>2019-07-17T15:57:15Z</time>
      </trkpt>
      <trkpt lat="47.82331" lon="-3.5446">
        <ele>9</ele>
        <time>2019-07-17T15:57:16Z</time>
      </trkpt>
      <trkpt lat="47.82331" lon="-3.54464">
        <ele>9</ele>
        <time>2019-07-17T15:57:17Z</time>
      </trkpt>
      <trkpt lat="47.82331" lon="-3.54468">
        <ele>9</ele>
        <time>2019-07-17T15:57:18Z</time>
      </trkpt>
      <trkpt lat="47.82331" lon="-3.54472">
        <ele>10</ele>
        <time>2019-07-17T15:57:19Z</time>
      </trkpt>
      <trkpt lat="47.82333" lon="-3.54477">
        <ele>10</ele>
        <time>2019-07-17T15:57:20Z</time>
      </trkpt>
      <trkpt lat="47.82334" lon="-3.54481">
        <ele>10</ele>
        <time>2019-07-17T15:57:21Z</time>
      </trkpt>
      <trkpt lat="47.82335" lon="-3.54486">
        <ele>10</ele>
        <time>2019-07-17T15:57:22Z</time>
      </trkpt>
      <trkpt lat="47.82336" lon="-3.5449">
        <ele>10</ele>
        <time>2019-07-17T15:57:23Z</time>
      </trkpt>
      <trkpt lat="47.82338" lon="-3.54496">
        <ele>9</ele>
        <time>2019-07-17T15:57:24Z</time>
      </trkpt>
      <trkpt lat="47.82339" lon="-3.54503">
        <ele>9</ele>
        <time>2019-07-17T15:57:25Z</time>
      </trkpt>
      <trkpt lat="47.82339" lon="-3.5451">
        <ele>9</ele>
        <time>2019-07-17T15:57:26Z</time>
      </trkpt>
      <trkpt lat="47.8234" lon="-3.54516">
        <ele>9</ele>
        <time>2019-07-17T15:57:27Z</time>
      </trkpt>
      <trkpt lat="47.8234" lon="-3.54522">
        <ele>9</ele>
        <time>2019-07-17T15:57:28Z</time>
      </trkpt>
      <trkpt lat="47.82341" lon="-3.54528">
        <ele>9</ele>
        <time>2019-07-17T15:57:29Z</time>
      </trkpt>
      <trkpt lat="47.82342" lon="-3.54533">
        <ele>9</ele>
        <time>2019-07-17T15:57:30Z</time>
      </trkpt>
      <trkpt lat="47.82344" lon="-3.54539">
        <ele>9</ele>
        <time>2019-07-17T15:57:31Z</time>
      </trkpt>
      <trkpt lat="47.82345" lon="-3.54544">
        <ele>8</ele>
        <time>2019-07-17T15:57:32Z</time>
      </trkpt>
      <trkpt lat="47.82347" lon="-3.54549">
        <ele>8</ele>
        <time>2019-07-17T15:57:33Z</time>
      </trkpt>
      <trkpt lat="47.82348" lon="-3.54554">
        <ele>8</ele>
        <time>2019-07-17T15:57:34Z</time>
      </trkpt>
      <trkpt lat="47.82348" lon="-3.54559">
        <ele>8</ele>
        <time>2019-07-17T15:57:35Z</time>
      </trkpt>
      <trkpt lat="47.82349" lon="-3.54563">
        <ele>8</ele>
        <time>2019-07-17T15:57:36Z</time>
      </trkpt>
      <trkpt lat="47.82349" lon="-3.54567">
        <ele>8</ele>
        <time>2019-07-17T15:57:37Z</time>
      </trkpt>
      <trkpt lat="47.82349" lon="-3.54571">
        <ele>8</ele>
        <time>2019-07-17T15:57:38Z</time>
      </trkpt>
      <trkpt lat="47.8235" lon="-3.54576">
        <ele>8</ele>
        <time>2019-07-17T15:57:39Z</time>
      </trkpt>
      <trkpt lat="47.8235" lon="-3.5458">
        <ele>8</ele>
        <time>2019-07-17T15:57:40Z</time>
      </trkpt>
      <trkpt lat="47.8235" lon="-3.54585">
        <ele>8</ele>
        <time>2019-07-17T15:57:41Z</time>
      </trkpt>
      <trkpt lat="47.82351" lon="-3.54589">
        <ele>8</ele>
        <time>2019-07-17T15:57:42Z</time>
      </trkpt>
      <trkpt lat="47.82351" lon="-3.54593">
        <ele>9</ele>
        <time>2019-07-17T15:57:43Z</time>
      </trkpt>
      <trkpt lat="47.82351" lon="-3.54598">
        <ele>9</ele>
        <time>2019-07-17T15:57:44Z</time>
      </trkpt>
      <trkpt lat="47.82352" lon="-3.54601">
        <ele>9</ele>
        <time>2019-07-17T15:57:45Z</time>
      </trkpt>
      <trkpt lat="47.82354" lon="-3.54603">
        <ele>9</ele>
        <time>2019-07-17T15:57:46Z</time>
      </trkpt>
      <trkpt lat="47.82355" lon="-3.54605">
        <ele>9</ele>
        <time>2019-07-17T15:57:47Z</time>
      </trkpt>
      <trkpt lat="47.82358" lon="-3.54607">
        <ele>10</ele>
        <time>2019-07-17T15:57:48Z</time>
      </trkpt>
      <trkpt lat="47.8236" lon="-3.54608">
        <ele>10</ele>
        <time>2019-07-17T15:57:49Z</time>
      </trkpt>
      <trkpt lat="47.82364" lon="-3.54609">
        <ele>10</ele>
        <time>2019-07-17T15:57:50Z</time>
      </trkpt>
      <trkpt lat="47.82367" lon="-3.54609">
        <ele>11</ele>
        <time>2019-07-17T15:57:51Z</time>
      </trkpt>
      <trkpt lat="47.8237" lon="-3.54607">
        <ele>11</ele>
        <time>2019-07-17T15:57:52Z</time>
      </trkpt>
      <trkpt lat="47.82373" lon="-3.54606">
        <ele>11</ele>
        <time>2019-07-17T15:57:53Z</time>
      </trkpt>
      <trkpt lat="47.82375" lon="-3.54605">
        <ele>12</ele>
        <time>2019-07-17T15:57:54Z</time>
      </trkpt>
      <trkpt lat="47.82376" lon="-3.54602">
        <ele>12</ele>
        <time>2019-07-17T15:57:55Z</time>
      </trkpt>
      <trkpt lat="47.82377" lon="-3.54601">
        <ele>12</ele>
        <time>2019-07-17T15:57:56Z</time>
      </trkpt>
      <trkpt lat="47.82378" lon="-3.54598">
        <ele>12</ele>
        <time>2019-07-17T15:57:57Z</time>
      </trkpt>
      <trkpt lat="47.8238" lon="-3.54595">
        <ele>12</ele>
        <time>2019-07-17T15:57:58Z</time>
      </trkpt>
      <trkpt lat="47.82381" lon="-3.5459">
        <ele>13</ele>
        <time>2019-07-17T15:57:59Z</time>
      </trkpt>
      <trkpt lat="47.82382" lon="-3.54586">
        <ele>13</ele>
        <time>2019-07-17T15:58:00Z</time>
      </trkpt>
      <trkpt lat="47.82383" lon="-3.54581">
        <ele>13</ele>
        <time>2019-07-17T15:58:01Z</time>
      </trkpt>
      <trkpt lat="47.82385" lon="-3.54576">
        <ele>13</ele>
        <time>2019-07-17T15:58:02Z</time>
      </trkpt>
      <trkpt lat="47.82386" lon="-3.54572">
        <ele>13</ele>
        <time>2019-07-17T15:58:03Z</time>
      </trkpt>
      <trkpt lat="47.82387" lon="-3.54568">
        <ele>13</ele>
        <time>2019-07-17T15:58:04Z</time>
      </trkpt>
      <trkpt lat="47.82388" lon="-3.54564">
        <ele>13</ele>
        <time>2019-07-17T15:58:05Z</time>
      </trkpt>
      <trkpt lat="47.8239" lon="-3.5456">
        <ele>13</ele>
        <time>2019-07-17T15:58:06Z</time>
      </trkpt>
      <trkpt lat="47.82391" lon="-3.54556">
        <ele>13</ele>
        <time>2019-07-17T15:58:07Z</time>
      </trkpt>
      <trkpt lat="47.82393" lon="-3.54551">
        <ele>13</ele>
        <time>2019-07-17T15:58:08Z</time>
      </trkpt>
      <trkpt lat="47.82394" lon="-3.54546">
        <ele>12</ele>
        <time>2019-07-17T15:58:09Z</time>
      </trkpt>
      <trkpt lat="47.82394" lon="-3.54541">
        <ele>12</ele>
        <time>2019-07-17T15:58:10Z</time>
      </trkpt>
      <trkpt lat="47.82395" lon="-3.54535">
        <ele>12</ele>
        <time>2019-07-17T15:58:11Z</time>
      </trkpt>
      <trkpt lat="47.82397" lon="-3.54531">
        <ele>12</ele>
        <time>2019-07-17T15:58:12Z</time>
      </trkpt>
      <trkpt lat="47.82398" lon="-3.54526">
        <ele>12</ele>
        <time>2019-07-17T15:58:13Z</time>
      </trkpt>
      <trkpt lat="47.82399" lon="-3.54521">
        <ele>12</ele>
        <time>2019-07-17T15:58:14Z</time>
      </trkpt>
      <trkpt lat="47.824" lon="-3.54516">
        <ele>12</ele>
        <time>2019-07-17T15:58:15Z</time>
      </trkpt>
      <trkpt lat="47.82401" lon="-3.54512">
        <ele>13</ele>
        <time>2019-07-17T15:58:16Z</time>
      </trkpt>
      <trkpt lat="47.82401" lon="-3.54507">
        <ele>13</ele>
        <time>2019-07-17T15:58:17Z</time>
      </trkpt>
      <trkpt lat="47.82402" lon="-3.54503">
        <ele>13</ele>
        <time>2019-07-17T15:58:18Z</time>
      </trkpt>
      <trkpt lat="47.82403" lon="-3.54498">
        <ele>13</ele>
        <time>2019-07-17T15:58:19Z</time>
      </trkpt>
      <trkpt lat="47.82403" lon="-3.54493">
        <ele>13</ele>
        <time>2019-07-17T15:58:20Z</time>
      </trkpt>
      <trkpt lat="47.82404" lon="-3.54487">
        <ele>14</ele>
        <time>2019-07-17T15:58:21Z</time>
      </trkpt>
      <trkpt lat="47.82405" lon="-3.54482">
        <ele>14</ele>
        <time>2019-07-17T15:58:22Z</time>
      </trkpt>
      <trkpt lat="47.82406" lon="-3.54477">
        <ele>14</ele>
        <time>2019-07-17T15:58:23Z</time>
      </trkpt>
      <trkpt lat="47.82407" lon="-3.54471">
        <ele>14</ele>
        <time>2019-07-17T15:58:24Z</time>
      </trkpt>
      <trkpt lat="47.82407" lon="-3.54467">
        <ele>14</ele>
        <time>2019-07-17T15:58:25Z</time>
      </trkpt>
      <trkpt lat="47.82408" lon="-3.54461">
        <ele>14</ele>
        <time>2019-07-17T15:58:26Z</time>
      </trkpt>
      <trkpt lat="47.82408" lon="-3.54456">
        <ele>15</ele>
        <time>2019-07-17T15:58:27Z</time>
      </trkpt>
      <trkpt lat="47.82409" lon="-3.54452">
        <ele>15</ele>
        <time>2019-07-17T15:58:28Z</time>
      </trkpt>
      <trkpt lat="47.8241" lon="-3.54447">
        <ele>15</ele>
        <time>2019-07-17T15:58:29Z</time>
      </trkpt>
      <trkpt lat="47.82411" lon="-3.54443">
        <ele>15</ele>
        <time>2019-07-17T15:58:30Z</time>
      </trkpt>
      <trkpt lat="47.82412" lon="-3.54438">
        <ele>15</ele>
        <time>2019-07-17T15:58:31Z</time>
      </trkpt>
      <trkpt lat="47.82413" lon="-3.54433">
        <ele>15</ele>
        <time>2019-07-17T15:58:32Z</time>
      </trkpt>
      <trkpt lat="47.82414" lon="-3.54427">
        <ele>16</ele>
        <time>2019-07-17T15:58:33Z</time>
      </trkpt>
      <trkpt lat="47.82414" lon="-3.54422">
        <ele>16</ele>
        <time>2019-07-17T15:58:34Z</time>
      </trkpt>
      <trkpt lat="47.82414" lon="-3.54416">
        <ele>16</ele>
        <time>2019-07-17T15:58:35Z</time>
      </trkpt>
      <trkpt lat="47.82416" lon="-3.5441">
        <ele>16</ele>
        <time>2019-07-17T15:58:36Z</time>
      </trkpt>
      <trkpt lat="47.82416" lon="-3.54404">
        <ele>16</ele>
        <time>2019-07-17T15:58:37Z</time>
      </trkpt>
      <trkpt lat="47.82417" lon="-3.54398">
        <ele>16</ele>
        <time>2019-07-17T15:58:38Z</time>
      </trkpt>
      <trkpt lat="47.82417" lon="-3.54392">
        <ele>16</ele>
        <time>2019-07-17T15:58:39Z</time>
      </trkpt>
      <trkpt lat="47.82418" lon="-3.54386">
        <ele>17</ele>
        <time>2019-07-17T15:58:40Z</time>
      </trkpt>
      <trkpt lat="47.82417" lon="-3.5438">
        <ele>17</ele>
        <time>2019-07-17T15:58:41Z</time>
      </trkpt>
      <trkpt lat="47.82417" lon="-3.54374">
        <ele>17</ele>
        <time>2019-07-17T15:58:42Z</time>
      </trkpt>
      <trkpt lat="47.82417" lon="-3.54369">
        <ele>17</ele>
        <time>2019-07-17T15:58:43Z</time>
      </trkpt>
      <trkpt lat="47.82416" lon="-3.54364">
        <ele>18</ele>
        <time>2019-07-17T15:58:44Z</time>
      </trkpt>
      <trkpt lat="47.82413" lon="-3.54358">
        <ele>18</ele>
        <time>2019-07-17T15:58:45Z</time>
      </trkpt>
      <trkpt lat="47.82411" lon="-3.54353">
        <ele>18</ele>
        <time>2019-07-17T15:58:46Z</time>
      </trkpt>
      <trkpt lat="47.82408" lon="-3.54349">
        <ele>18</ele>
        <time>2019-07-17T15:58:47Z</time>
      </trkpt>
      <trkpt lat="47.82405" lon="-3.54344">
        <ele>19</ele>
        <time>2019-07-17T15:58:48Z</time>
      </trkpt>
      <trkpt lat="47.82402" lon="-3.5434">
        <ele>19</ele>
        <time>2019-07-17T15:58:49Z</time>
      </trkpt>
      <trkpt lat="47.82399" lon="-3.54335">
        <ele>19</ele>
        <time>2019-07-17T15:58:50Z</time>
      </trkpt>
      <trkpt lat="47.82396" lon="-3.5433">
        <ele>19</ele>
        <time>2019-07-17T15:58:51Z</time>
      </trkpt>
      <trkpt lat="47.82393" lon="-3.54325">
        <ele>19</ele>
        <time>2019-07-17T15:58:52Z</time>
      </trkpt>
      <trkpt lat="47.8239" lon="-3.5432">
        <ele>19</ele>
        <time>2019-07-17T15:58:53Z</time>
      </trkpt>
      <trkpt lat="47.82388" lon="-3.54314">
        <ele>20</ele>
        <time>2019-07-17T15:58:54Z</time>
      </trkpt>
      <trkpt lat="47.82387" lon="-3.54309">
        <ele>20</ele>
        <time>2019-07-17T15:58:55Z</time>
      </trkpt>
      <trkpt lat="47.82387" lon="-3.54304">
        <ele>20</ele>
        <time>2019-07-17T15:58:56Z</time>
      </trkpt>
      <trkpt lat="47.82388" lon="-3.54299">
        <ele>20</ele>
        <time>2019-07-17T15:58:57Z</time>
      </trkpt>
      <trkpt lat="47.8239" lon="-3.54295">
        <ele>20</ele>
        <time>2019-07-17T15:58:58Z</time>
      </trkpt>
      <trkpt lat="47.82391" lon="-3.5429">
        <ele>20</ele>
        <time>2019-07-17T15:58:59Z</time>
      </trkpt>
      <trkpt lat="47.82393" lon="-3.54287">
        <ele>20</ele>
        <time>2019-07-17T15:59:00Z</time>
      </trkpt>
      <trkpt lat="47.82395" lon="-3.54284">
        <ele>20</ele>
        <time>2019-07-17T15:59:01Z</time>
      </trkpt>
      <trkpt lat="47.82397" lon="-3.54281">
        <ele>20</ele>
        <time>2019-07-17T15:59:02Z</time>
      </trkpt>
      <trkpt lat="47.82399" lon="-3.54279">
        <ele>20</ele>
        <time>2019-07-17T15:59:03Z</time>
      </trkpt>
      <trkpt lat="47.82401" lon="-3.54277">
        <ele>20</ele>
        <time>2019-07-17T15:59:04Z</time>
      </trkpt>
      <trkpt lat="47.82404" lon="-3.54276">
        <ele>21</ele>
        <time>2019-07-17T15:59:05Z</time>
      </trkpt>
      <trkpt lat="47.82406" lon="-3.54273">
        <ele>21</ele>
        <time>2019-07-17T15:59:06Z</time>
      </trkpt>
      <trkpt lat="47.82409" lon="-3.54271">
        <ele>21</ele>
        <time>2019-07-17T15:59:07Z</time>
      </trkpt>
      <trkpt lat="47.82412" lon="-3.5427">
        <ele>21</ele>
        <time>2019-07-17T15:59:08Z</time>
      </trkpt>
      <trkpt lat="47.82415" lon="-3.54267">
        <ele>21</ele>
        <time>2019-07-17T15:59:09Z</time>
      </trkpt>
      <trkpt lat="47.82417" lon="-3.54265">
        <ele>22</ele>
        <time>2019-07-17T15:59:10Z</time>
      </trkpt>
      <trkpt lat="47.8242" lon="-3.54263">
        <ele>22</ele>
        <time>2019-07-17T15:59:11Z</time>
      </trkpt>
      <trkpt lat="47.82423" lon="-3.54261">
        <ele>22</ele>
        <time>2019-07-17T15:59:12Z</time>
      </trkpt>
      <trkpt lat="47.82425" lon="-3.54259">
        <ele>23</ele>
        <time>2019-07-17T15:59:13Z</time>
      </trkpt>
      <trkpt lat="47.82426" lon="-3.54258">
        <ele>23</ele>
        <time>2019-07-17T15:59:14Z</time>
      </trkpt>
      <trkpt lat="47.82426" lon="-3.54258">
        <ele>23</ele>
        <time>2019-07-17T15:59:15Z</time>
      </trkpt>
      <trkpt lat="47.82426" lon="-3.54257">
        <ele>23</ele>
        <time>2019-07-17T15:59:16Z</time>
      </trkpt>
      <trkpt lat="47.82426" lon="-3.54257">
        <ele>24</ele>
        <time>2019-07-17T15:59:17Z</time>
      </trkpt>
      <trkpt lat="47.82429" lon="-3.54253">
        <ele>25</ele>
        <time>2019-07-17T15:59:18Z</time>
      </trkpt>
      <trkpt lat="47.8243" lon="-3.54252">
        <ele>26</ele>
        <time>2019-07-17T15:59:19Z</time>
      </trkpt>
      <trkpt lat="47.82431" lon="-3.54251">
        <ele>26</ele>
        <time>2019-07-17T15:59:20Z</time>
      </trkpt>
      <trkpt lat="47.82433" lon="-3.54249">
        <ele>26</ele>
        <time>2019-07-17T15:59:21Z</time>
      </trkpt>
      <trkpt lat="47.82434" lon="-3.54248">
        <ele>26</ele>
        <time>2019-07-17T15:59:22Z</time>
      </trkpt>
      <trkpt lat="47.82436" lon="-3.54246">
        <ele>27</ele>
        <time>2019-07-17T15:59:23Z</time>
      </trkpt>
      <trkpt lat="47.82437" lon="-3.54244">
        <ele>27</ele>
        <time>2019-07-17T15:59:24Z</time>
      </trkpt>
      <trkpt lat="47.82439" lon="-3.54243">
        <ele>27</ele>
        <time>2019-07-17T15:59:25Z</time>
      </trkpt>
      <trkpt lat="47.82442" lon="-3.54241">
        <ele>27</ele>
        <time>2019-07-17T15:59:26Z</time>
      </trkpt>
      <trkpt lat="47.82445" lon="-3.54239">
        <ele>27</ele>
        <time>2019-07-17T15:59:27Z</time>
      </trkpt>
      <trkpt lat="47.82448" lon="-3.54237">
        <ele>28</ele>
        <time>2019-07-17T15:59:28Z</time>
      </trkpt>
      <trkpt lat="47.82451" lon="-3.54236">
        <ele>28</ele>
        <time>2019-07-17T15:59:29Z</time>
      </trkpt>
      <trkpt lat="47.82453" lon="-3.54234">
        <ele>28</ele>
        <time>2019-07-17T15:59:30Z</time>
      </trkpt>
      <trkpt lat="47.82456" lon="-3.54233">
        <ele>28</ele>
        <time>2019-07-17T15:59:31Z</time>
      </trkpt>
      <trkpt lat="47.82458" lon="-3.54232">
        <ele>29</ele>
        <time>2019-07-17T15:59:32Z</time>
      </trkpt>
      <trkpt lat="47.8246" lon="-3.5423">
        <ele>29</ele>
        <time>2019-07-17T15:59:33Z</time>
      </trkpt>
      <trkpt lat="47.82463" lon="-3.54229">
        <ele>29</ele>
        <time>2019-07-17T15:59:34Z</time>
      </trkpt>
      <trkpt lat="47.82466" lon="-3.54227">
        <ele>29</ele>
        <time>2019-07-17T15:59:35Z</time>
      </trkpt>
      <trkpt lat="47.82469" lon="-3.54227">
        <ele>30</ele>
        <time>2019-07-17T15:59:36Z</time>
      </trkpt>
      <trkpt lat="47.82473" lon="-3.54226">
        <ele>30</ele>
        <time>2019-07-17T15:59:37Z</time>
      </trkpt>
      <trkpt lat="47.82477" lon="-3.54226">
        <ele>30</ele>
        <time>2019-07-17T15:59:38Z</time>
      </trkpt>
      <trkpt lat="47.82483" lon="-3.54227">
        <ele>30</ele>
        <time>2019-07-17T15:59:39Z</time>
      </trkpt>
      <trkpt lat="47.82487" lon="-3.54228">
        <ele>30</ele>
        <time>2019-07-17T15:59:40Z</time>
      </trkpt>
      <trkpt lat="47.82492" lon="-3.54228">
        <ele>31</ele>
        <time>2019-07-17T15:59:41Z</time>
      </trkpt>
      <trkpt lat="47.82496" lon="-3.54231">
        <ele>31</ele>
        <time>2019-07-17T15:59:42Z</time>
      </trkpt>
      <trkpt lat="47.825" lon="-3.54232">
        <ele>31</ele>
        <time>2019-07-17T15:59:43Z</time>
      </trkpt>
      <trkpt lat="47.82505" lon="-3.54233">
        <ele>31</ele>
        <time>2019-07-17T15:59:44Z</time>
      </trkpt>
      <trkpt lat="47.82509" lon="-3.54235">
        <ele>31</ele>
        <time>2019-07-17T15:59:45Z</time>
      </trkpt>
      <trkpt lat="47.82512" lon="-3.54236">
        <ele>31</ele>
        <time>2019-07-17T15:59:46Z</time>
      </trkpt>
      <trkpt lat="47.82517" lon="-3.54237">
        <ele>31</ele>
        <time>2019-07-17T15:59:47Z</time>
      </trkpt>
      <trkpt lat="47.8252" lon="-3.54238">
        <ele>31</ele>
        <time>2019-07-17T15:59:48Z</time>
      </trkpt>
      <trkpt lat="47.82525" lon="-3.5424">
        <ele>31</ele>
        <time>2019-07-17T15:59:49Z</time>
      </trkpt>
      <trkpt lat="47.82529" lon="-3.54242">
        <ele>31</ele>
        <time>2019-07-17T15:59:50Z</time>
      </trkpt>
      <trkpt lat="47.82533" lon="-3.54245">
        <ele>31</ele>
        <time>2019-07-17T15:59:51Z</time>
      </trkpt>
      <trkpt lat="47.82537" lon="-3.54247">
        <ele>31</ele>
        <time>2019-07-17T15:59:52Z</time>
      </trkpt>
      <trkpt lat="47.8254" lon="-3.54248">
        <ele>31</ele>
        <time>2019-07-17T15:59:53Z</time>
      </trkpt>
      <trkpt lat="47.82544" lon="-3.5425">
        <ele>31</ele>
        <time>2019-07-17T15:59:54Z</time>
      </trkpt>
      <trkpt lat="47.82548" lon="-3.54252">
        <ele>31</ele>
        <time>2019-07-17T15:59:55Z</time>
      </trkpt>
      <trkpt lat="47.82552" lon="-3.54254">
        <ele>31</ele>
        <time>2019-07-17T15:59:56Z</time>
      </trkpt>
      <trkpt lat="47.82557" lon="-3.54256">
        <ele>31</ele>
        <time>2019-07-17T15:59:57Z</time>
      </trkpt>
      <trkpt lat="47.82562" lon="-3.54258">
        <ele>31</ele>
        <time>2019-07-17T15:59:58Z</time>
      </trkpt>
      <trkpt lat="47.82567" lon="-3.54259">
        <ele>31</ele>
        <time>2019-07-17T15:59:59Z</time>
      </trkpt>
      <trkpt lat="47.82571" lon="-3.54261">
        <ele>31</ele>
        <time>2019-07-17T16:00:00Z</time>
      </trkpt>
      <trkpt lat="47.82576" lon="-3.54263">
        <ele>31</ele>
        <time>2019-07-17T16:00:01Z</time>
      </trkpt>
      <trkpt lat="47.82581" lon="-3.54265">
        <ele>31</ele>
        <time>2019-07-17T16:00:02Z</time>
      </trkpt>
      <trkpt lat="47.82584" lon="-3.54267">
        <ele>31</ele>
        <time>2019-07-17T16:00:03Z</time>
      </trkpt>
      <trkpt lat="47.82588" lon="-3.54269">
        <ele>31</ele>
        <time>2019-07-17T16:00:04Z</time>
      </trkpt>
      <trkpt lat="47.82592" lon="-3.5427">
        <ele>31</ele>
        <time>2019-07-17T16:00:05Z</time>
      </trkpt>
      <trkpt lat="47.82596" lon="-3.54271">
        <ele>31</ele>
        <time>2019-07-17T16:00:06Z</time>
      </trkpt>
      <trkpt lat="47.82599" lon="-3.54272">
        <ele>31</ele>
        <time>2019-07-17T16:00:07Z</time>
      </trkpt>
      <trkpt lat="47.82601" lon="-3.54273">
        <ele>31</ele>
        <time>2019-07-17T16:00:08Z</time>
      </trkpt>
      <trkpt lat="47.82603" lon="-3.54274">
        <ele>31</ele>
        <time>2019-07-17T16:00:09Z</time>
      </trkpt>
      <trkpt lat="47.82605" lon="-3.54275">
        <ele>32</ele>
        <time>2019-07-17T16:00:10Z</time>
      </trkpt>
      <trkpt lat="47.82607" lon="-3.54276">
        <ele>32</ele>
        <time>2019-07-17T16:00:11Z</time>
      </trkpt>
      <trkpt lat="47.8261" lon="-3.54277">
        <ele>32</ele>
        <time>2019-07-17T16:00:12Z</time>
      </trkpt>
      <trkpt lat="47.82614" lon="-3.54278">
        <ele>32</ele>
        <time>2019-07-17T16:00:13Z</time>
      </trkpt>
      <trkpt lat="47.82617" lon="-3.54279">
        <ele>32</ele>
        <time>2019-07-17T16:00:14Z</time>
      </trkpt>
      <trkpt lat="47.82621" lon="-3.5428">
        <ele>32</ele>
        <time>2019-07-17T16:00:15Z</time>
      </trkpt>
      <trkpt lat="47.82626" lon="-3.54283">
        <ele>32</ele>
        <time>2019-07-17T16:00:16Z</time>
      </trkpt>
      <trkpt lat="47.8263" lon="-3.54285">
        <ele>32</ele>
        <time>2019-07-17T16:00:17Z</time>
      </trkpt>
      <trkpt lat="47.82635" lon="-3.54287">
        <ele>33</ele>
        <time>2019-07-17T16:00:18Z</time>
      </trkpt>
      <trkpt lat="47.82639" lon="-3.54288">
        <ele>33</ele>
        <time>2019-07-17T16:00:19Z</time>
      </trkpt>
      <trkpt lat="47.82643" lon="-3.54289">
        <ele>33</ele>
        <time>2019-07-17T16:00:20Z</time>
      </trkpt>
      <trkpt lat="47.82647" lon="-3.5429">
        <ele>33</ele>
        <time>2019-07-17T16:00:21Z</time>
      </trkpt>
      <trkpt lat="47.82651" lon="-3.54292">
        <ele>33</ele>
        <time>2019-07-17T16:00:22Z</time>
      </trkpt>
      <trkpt lat="47.82655" lon="-3.54294">
        <ele>34</ele>
        <time>2019-07-17T16:00:23Z</time>
      </trkpt>
      <trkpt lat="47.82659" lon="-3.54295">
        <ele>34</ele>
        <time>2019-07-17T16:00:24Z</time>
      </trkpt>
      <trkpt lat="47.82662" lon="-3.54297">
        <ele>34</ele>
        <time>2019-07-17T16:00:25Z</time>
      </trkpt>
      <trkpt lat="47.82666" lon="-3.54298">
        <ele>34</ele>
        <time>2019-07-17T16:00:26Z</time>
      </trkpt>
      <trkpt lat="47.82669" lon="-3.54299">
        <ele>34</ele>
        <time>2019-07-17T16:00:27Z</time>
      </trkpt>
      <trkpt lat="47.82673" lon="-3.54301">
        <ele>35</ele>
        <time>2019-07-17T16:00:28Z</time>
      </trkpt>
      <trkpt lat="47.82676" lon="-3.54302">
        <ele>35</ele>
        <time>2019-07-17T16:00:29Z</time>
      </trkpt>
      <trkpt lat="47.8268" lon="-3.54303">
        <ele>35</ele>
        <time>2019-07-17T16:00:30Z</time>
      </trkpt>
      <trkpt lat="47.82684" lon="-3.54304">
        <ele>35</ele>
        <time>2019-07-17T16:00:31Z</time>
      </trkpt>
      <trkpt lat="47.82687" lon="-3.54306">
        <ele>36</ele>
        <time>2019-07-17T16:00:32Z</time>
      </trkpt>
      <trkpt lat="47.82691" lon="-3.54308">
        <ele>36</ele>
        <time>2019-07-17T16:00:33Z</time>
      </trkpt>
      <trkpt lat="47.82694" lon="-3.54309">
        <ele>36</ele>
        <time>2019-07-17T16:00:34Z</time>
      </trkpt>
      <trkpt lat="47.82697" lon="-3.5431">
        <ele>36</ele>
        <time>2019-07-17T16:00:35Z</time>
      </trkpt>
      <trkpt lat="47.827" lon="-3.54312">
        <ele>36</ele>
        <time>2019-07-17T16:00:36Z</time>
      </trkpt>
      <trkpt lat="47.82704" lon="-3.54313">
        <ele>36</ele>
        <time>2019-07-17T16:00:37Z</time>
      </trkpt>
      <trkpt lat="47.82708" lon="-3.54314">
        <ele>36</ele>
        <time>2019-07-17T16:00:38Z</time>
      </trkpt>
      <trkpt lat="47.82712" lon="-3.54316">
        <ele>36</ele>
        <time>2019-07-17T16:00:39Z</time>
      </trkpt>
      <trkpt lat="47.82716" lon="-3.54317">
        <ele>36</ele>
        <time>2019-07-17T16:00:40Z</time>
      </trkpt>
      <trkpt lat="47.82719" lon="-3.54318">
        <ele>37</ele>
        <time>2019-07-17T16:00:41Z</time>
      </trkpt>
      <trkpt lat="47.82723" lon="-3.54319">
        <ele>37</ele>
        <time>2019-07-17T16:00:42Z</time>
      </trkpt>
      <trkpt lat="47.82727" lon="-3.5432">
        <ele>37</ele>
        <time>2019-07-17T16:00:43Z</time>
      </trkpt>
      <trkpt lat="47.82731" lon="-3.54321">
        <ele>37</ele>
        <time>2019-07-17T16:00:44Z</time>
      </trkpt>
      <trkpt lat="47.82735" lon="-3.54323">
        <ele>37</ele>
        <time>2019-07-17T16:00:45Z</time>
      </trkpt>
      <trkpt lat="47.82739" lon="-3.54324">
        <ele>37</ele>
        <time>2019-07-17T16:00:46Z</time>
      </trkpt>
      <trkpt lat="47.82743" lon="-3.54326">
        <ele>38</ele>
        <time>2019-07-17T16:00:47Z</time>
      </trkpt>
      <trkpt lat="47.82747" lon="-3.54327">
        <ele>38</ele>
        <time>2019-07-17T16:00:48Z</time>
      </trkpt>
      <trkpt lat="47.82751" lon="-3.54328">
        <ele>38</ele>
        <time>2019-07-17T16:00:49Z</time>
      </trkpt>
      <trkpt lat="47.82755" lon="-3.5433">
        <ele>38</ele>
        <time>2019-07-17T16:00:50Z</time>
      </trkpt>
      <trkpt lat="47.8276" lon="-3.54331">
        <ele>38</ele>
        <time>2019-07-17T16:00:51Z</time>
      </trkpt>
      <trkpt lat="47.82764" lon="-3.54332">
        <ele>39</ele>
        <time>2019-07-17T16:00:52Z</time>
      </trkpt>
      <trkpt lat="47.82768" lon="-3.54333">
        <ele>39</ele>
        <time>2019-07-17T16:00:53Z</time>
      </trkpt>
      <trkpt lat="47.82772" lon="-3.54335">
        <ele>39</ele>
        <time>2019-07-17T16:00:54Z</time>
      </trkpt>
      <trkpt lat="47.82776" lon="-3.54336">
        <ele>39</ele>
        <time>2019-07-17T16:00:55Z</time>
      </trkpt>
      <trkpt lat="47.82779" lon="-3.54337">
        <ele>39</ele>
        <time>2019-07-17T16:00:56Z</time>
      </trkpt>
      <trkpt lat="47.82783" lon="-3.54338">
        <ele>39</ele>
        <time>2019-07-17T16:00:57Z</time>
      </trkpt>
      <trkpt lat="47.82787" lon="-3.5434">
        <ele>40</ele>
        <time>2019-07-17T16:00:58Z</time>
      </trkpt>
      <trkpt lat="47.82791" lon="-3.54341">
        <ele>40</ele>
        <time>2019-07-17T16:00:59Z</time>
      </trkpt>
      <trkpt lat="47.82795" lon="-3.54342">
        <ele>40</ele>
        <time>2019-07-17T16:01:00Z</time>
      </trkpt>
      <trkpt lat="47.828" lon="-3.54343">
        <ele>40</ele>
        <time>2019-07-17T16:01:01Z</time>
      </trkpt>
      <trkpt lat="47.82804" lon="-3.54344">
        <ele>40</ele>
        <time>2019-07-17T16:01:02Z</time>
      </trkpt>
      <trkpt lat="47.82807" lon="-3.54345">
        <ele>40</ele>
        <time>2019-07-17T16:01:03Z</time>
      </trkpt>
      <trkpt lat="47.82811" lon="-3.54347">
        <ele>40</ele>
        <time>2019-07-17T16:01:04Z</time>
      </trkpt>
      <trkpt lat="47.82815" lon="-3.54349">
        <ele>40</ele>
        <time>2019-07-17T16:01:05Z</time>
      </trkpt>
      <trkpt lat="47.82819" lon="-3.5435">
        <ele>40</ele>
        <time>2019-07-17T16:01:06Z</time>
      </trkpt>
      <trkpt lat="47.82823" lon="-3.54351">
        <ele>40</ele>
        <time>2019-07-17T16:01:07Z</time>
      </trkpt>
      <trkpt lat="47.82827" lon="-3.54352">
        <ele>40</ele>
        <time>2019-07-17T16:01:08Z</time>
      </trkpt>
      <trkpt lat="47.82831" lon="-3.54353">
        <ele>40</ele>
        <time>2019-07-17T16:01:09Z</time>
      </trkpt>
      <trkpt lat="47.82835" lon="-3.54354">
        <ele>40</ele>
        <time>2019-07-17T16:01:10Z</time>
      </trkpt>
      <trkpt lat="47.8284" lon="-3.54356">
        <ele>40</ele>
        <time>2019-07-17T16:01:11Z</time>
      </trkpt>
      <trkpt lat="47.82844" lon="-3.54357">
        <ele>40</ele>
        <time>2019-07-17T16:01:12Z</time>
      </trkpt>
      <trkpt lat="47.82847" lon="-3.54357">
        <ele>40</ele>
        <time>2019-07-17T16:01:13Z</time>
      </trkpt>
      <trkpt lat="47.82852" lon="-3.54359">
        <ele>40</ele>
        <time>2019-07-17T16:01:14Z</time>
      </trkpt>
      <trkpt lat="47.82857" lon="-3.5436">
        <ele>40</ele>
        <time>2019-07-17T16:01:15Z</time>
      </trkpt>
      <trkpt lat="47.82862" lon="-3.54362">
        <ele>40</ele>
        <time>2019-07-17T16:01:16Z</time>
      </trkpt>
      <trkpt lat="47.82867" lon="-3.54363">
        <ele>40</ele>
        <time>2019-07-17T16:01:17Z</time>
      </trkpt>
      <trkpt lat="47.82872" lon="-3.54365">
        <ele>40</ele>
        <time>2019-07-17T16:01:18Z</time>
      </trkpt>
      <trkpt lat="47.82875" lon="-3.54367">
        <ele>40</ele>
        <time>2019-07-17T16:01:19Z</time>
      </trkpt>
      <trkpt lat="47.82879" lon="-3.54368">
        <ele>40</ele>
        <time>2019-07-17T16:01:20Z</time>
      </trkpt>
      <trkpt lat="47.82884" lon="-3.5437">
        <ele>40</ele>
        <time>2019-07-17T16:01:21Z</time>
      </trkpt>
      <trkpt lat="47.82889" lon="-3.54372">
        <ele>40</ele>
        <time>2019-07-17T16:01:22Z</time>
      </trkpt>
      <trkpt lat="47.82895" lon="-3.54373">
        <ele>40</ele>
        <time>2019-07-17T16:01:23Z</time>
      </trkpt>
      <trkpt lat="47.82901" lon="-3.54375">
        <ele>40</ele>
        <time>2019-07-17T16:01:24Z</time>
      </trkpt>
      <trkpt lat="47.82906" lon="-3.54376">
        <ele>40</ele>
        <time>2019-07-17T16:01:25Z</time>
      </trkpt>
      <trkpt lat="47.82912" lon="-3.54378">
        <ele>40</ele>
        <time>2019-07-17T16:01:26Z</time>
      </trkpt>
      <trkpt lat="47.82917" lon="-3.5438">
        <ele>40</ele>
        <time>2019-07-17T16:01:27Z</time>
      </trkpt>
      <trkpt lat="47.82922" lon="-3.54382">
        <ele>40</ele>
        <time>2019-07-17T16:01:28Z</time>
      </trkpt>
      <trkpt lat="47.82926" lon="-3.54384">
        <ele>40</ele>
        <time>2019-07-17T16:01:29Z</time>
      </trkpt>
      <trkpt lat="47.82931" lon="-3.54385">
        <ele>40</ele>
        <time>2019-07-17T16:01:30Z</time>
      </trkpt>
      <trkpt lat="47.82936" lon="-3.54386">
        <ele>40</ele>
        <time>2019-07-17T16:01:31Z</time>
      </trkpt>
      <trkpt lat="47.82939" lon="-3.54387">
        <ele>40</ele>
        <time>2019-07-17T16:01:32Z</time>
      </trkpt>
      <trkpt lat="47.82943" lon="-3.54389">
        <ele>40</ele>
        <time>2019-07-17T16:01:33Z</time>
      </trkpt>
      <trkpt lat="47.82948" lon="-3.54391">
        <ele>40</ele>
        <time>2019-07-17T16:01:34Z</time>
      </trkpt>
      <trkpt lat="47.82951" lon="-3.54392">
        <ele>41</ele>
        <time>2019-07-17T16:01:35Z</time>
      </trkpt>
      <trkpt lat="47.82955" lon="-3.54393">
        <ele>41</ele>
        <time>2019-07-17T16:01:36Z</time>
      </trkpt>
      <trkpt lat="47.82958" lon="-3.54393">
        <ele>41</ele>
        <time>2019-07-17T16:01:37Z</time>
      </trkpt>
      <trkpt lat="47.8296" lon="-3.54392">
        <ele>41</ele>
        <time>2019-07-17T16:01:38Z</time>
      </trkpt>
      <trkpt lat="47.82962" lon="-3.54388">
        <ele>41</ele>
        <time>2019-07-17T16:01:39Z</time>
      </trkpt>
      <trkpt lat="47.82963" lon="-3.54385">
        <ele>41</ele>
        <time>2019-07-17T16:01:40Z</time>
      </trkpt>
      <trkpt lat="47.82965" lon="-3.54381">
        <ele>41</ele>
        <time>2019-07-17T16:01:41Z</time>
      </trkpt>
      <trkpt lat="47.82966" lon="-3.54376">
        <ele>41</ele>
        <time>2019-07-17T16:01:42Z</time>
      </trkpt>
      <trkpt lat="47.82968" lon="-3.54371">
        <ele>41</ele>
        <time>2019-07-17T16:01:43Z</time>
      </trkpt>
      <trkpt lat="47.82971" lon="-3.54366">
        <ele>42</ele>
        <time>2019-07-17T16:01:44Z</time>
      </trkpt>
      <trkpt lat="47.82973" lon="-3.54359">
        <ele>42</ele>
        <time>2019-07-17T16:01:45Z</time>
      </trkpt>
      <trkpt lat="47.82975" lon="-3.54353">
        <ele>42</ele>
        <time>2019-07-17T16:01:46Z</time>
      </trkpt>
      <trkpt lat="47.82976" lon="-3.54347">
        <ele>42</ele>
        <time>2019-07-17T16:01:47Z</time>
      </trkpt>
      <trkpt lat="47.82978" lon="-3.54341">
        <ele>42</ele>
        <time>2019-07-17T16:01:48Z</time>
      </trkpt>
      <trkpt lat="47.82979" lon="-3.54336">
        <ele>42</ele>
        <time>2019-07-17T16:01:49Z</time>
      </trkpt>
      <trkpt lat="47.82981" lon="-3.5433">
        <ele>42</ele>
        <time>2019-07-17T16:01:50Z</time>
      </trkpt>
      <trkpt lat="47.82982" lon="-3.54326">
        <ele>43</ele>
        <time>2019-07-17T16:01:51Z</time>
      </trkpt>
      <trkpt lat="47.82984" lon="-3.54321">
        <ele>43</ele>
        <time>2019-07-17T16:01:52Z</time>
      </trkpt>
      <trkpt lat="47.82986" lon="-3.54316">
        <ele>43</ele>
        <time>2019-07-17T16:01:53Z</time>
      </trkpt>
      <trkpt lat="47.82989" lon="-3.54311">
        <ele>43</ele>
        <time>2019-07-17T16:01:54Z</time>
      </trkpt>
      <trkpt lat="47.82992" lon="-3.54306">
        <ele>43</ele>
        <time>2019-07-17T16:01:55Z</time>
      </trkpt>
      <trkpt lat="47.82995" lon="-3.54301">
        <ele>43</ele>
        <time>2019-07-17T16:01:56Z</time>
      </trkpt>
      <trkpt lat="47.82998" lon="-3.54296">
        <ele>43</ele>
        <time>2019-07-17T16:01:57Z</time>
      </trkpt>
      <trkpt lat="47.83001" lon="-3.54292">
        <ele>43</ele>
        <time>2019-07-17T16:01:58Z</time>
      </trkpt>
      <trkpt lat="47.83004" lon="-3.54287">
        <ele>43</ele>
        <time>2019-07-17T16:01:59Z</time>
      </trkpt>
      <trkpt lat="47.83008" lon="-3.54283">
        <ele>43</ele>
        <time>2019-07-17T16:02:00Z</time>
      </trkpt>
      <trkpt lat="47.83012" lon="-3.5428">
        <ele>44</ele>
        <time>2019-07-17T16:02:01Z</time>
      </trkpt>
      <trkpt lat="47.83018" lon="-3.54278">
        <ele>44</ele>
        <time>2019-07-17T16:02:02Z</time>
      </trkpt>
      <trkpt lat="47.83023" lon="-3.54277">
        <ele>43</ele>
        <time>2019-07-17T16:02:03Z</time>
      </trkpt>
      <trkpt lat="47.8303" lon="-3.54275">
        <ele>43</ele>
        <time>2019-07-17T16:02:04Z</time>
      </trkpt>
      <trkpt lat="47.83036" lon="-3.54274">
        <ele>43</ele>
        <time>2019-07-17T16:02:05Z</time>
      </trkpt>
      <trkpt lat="47.83043" lon="-3.54272">
        <ele>43</ele>
        <time>2019-07-17T16:02:06Z</time>
      </trkpt>
      <trkpt lat="47.8305" lon="-3.54271">
        <ele>43</ele>
        <time>2019-07-17T16:02:07Z</time>
      </trkpt>
      <trkpt lat="47.83058" lon="-3.54271">
        <ele>43</ele>
        <time>2019-07-17T16:02:08Z</time>
      </trkpt>
      <trkpt lat="47.83066" lon="-3.5427">
        <ele>43</ele>
        <time>2019-07-17T16:02:09Z</time>
      </trkpt>
      <trkpt lat="47.83074" lon="-3.54269">
        <ele>42</ele>
        <time>2019-07-17T16:02:10Z</time>
      </trkpt>
      <trkpt lat="47.83083" lon="-3.54267">
        <ele>42</ele>
        <time>2019-07-17T16:02:11Z</time>
      </trkpt>
      <trkpt lat="47.83091" lon="-3.54265">
        <ele>42</ele>
        <time>2019-07-17T16:02:12Z</time>
      </trkpt>
      <trkpt lat="47.83099" lon="-3.54265">
        <ele>41</ele>
        <time>2019-07-17T16:02:13Z</time>
      </trkpt>
      <trkpt lat="47.83108" lon="-3.54264">
        <ele>41</ele>
        <time>2019-07-17T16:02:14Z</time>
      </trkpt>
      <trkpt lat="47.83117" lon="-3.54262">
        <ele>40</ele>
        <time>2019-07-17T16:02:15Z</time>
      </trkpt>
      <trkpt lat="47.83126" lon="-3.5426">
        <ele>40</ele>
        <time>2019-07-17T16:02:16Z</time>
      </trkpt>
      <trkpt lat="47.83135" lon="-3.54255">
        <ele>40</ele>
        <time>2019-07-17T16:02:17Z</time>
      </trkpt>
      <trkpt lat="47.83142" lon="-3.54251">
        <ele>39</ele>
        <time>2019-07-17T16:02:18Z</time>
      </trkpt>
      <trkpt lat="47.83149" lon="-3.54247">
        <ele>39</ele>
        <time>2019-07-17T16:02:19Z</time>
      </trkpt>
      <trkpt lat="47.83156" lon="-3.54245">
        <ele>39</ele>
        <time>2019-07-17T16:02:20Z</time>
      </trkpt>
      <trkpt lat="47.83164" lon="-3.54242">
        <ele>39</ele>
        <time>2019-07-17T16:02:21Z</time>
      </trkpt>
      <trkpt lat="47.83171" lon="-3.54239">
        <ele>38</ele>
        <time>2019-07-17T16:02:22Z</time>
      </trkpt>
      <trkpt lat="47.83178" lon="-3.54237">
        <ele>38</ele>
        <time>2019-07-17T16:02:23Z</time>
      </trkpt>
      <trkpt lat="47.83184" lon="-3.54234">
        <ele>38</ele>
        <time>2019-07-17T16:02:24Z</time>
      </trkpt>
      <trkpt lat="47.83189" lon="-3.54232">
        <ele>38</ele>
        <time>2019-07-17T16:02:25Z</time>
      </trkpt>
      <trkpt lat="47.83194" lon="-3.54229">
        <ele>38</ele>
        <time>2019-07-17T16:02:26Z</time>
      </trkpt>
      <trkpt lat="47.83195" lon="-3.54227">
        <ele>38</ele>
        <time>2019-07-17T16:02:27Z</time>
      </trkpt>
      <trkpt lat="47.83196" lon="-3.54224">
        <ele>37</ele>
        <time>2019-07-17T16:02:28Z</time>
      </trkpt>
      <trkpt lat="47.83195" lon="-3.54222">
        <ele>37</ele>
        <time>2019-07-17T16:02:29Z</time>
      </trkpt>
      <trkpt lat="47.83192" lon="-3.54221">
        <ele>37</ele>
        <time>2019-07-17T16:02:30Z</time>
      </trkpt>
      <trkpt lat="47.83189" lon="-3.5422">
        <ele>36</ele>
        <time>2019-07-17T16:02:31Z</time>
      </trkpt>
      <trkpt lat="47.83185" lon="-3.5422">
        <ele>36</ele>
        <time>2019-07-17T16:02:32Z</time>
      </trkpt>
      <trkpt lat="47.83181" lon="-3.54219">
        <ele>35</ele>
        <time>2019-07-17T16:02:33Z</time>
      </trkpt>
      <trkpt lat="47.83178" lon="-3.54219">
        <ele>35</ele>
        <time>2019-07-17T16:02:34Z</time>
      </trkpt>
      <trkpt lat="47.83174" lon="-3.54218">
        <ele>35</ele>
        <time>2019-07-17T16:02:35Z</time>
      </trkpt>
      <trkpt lat="47.83171" lon="-3.54218">
        <ele>35</ele>
        <time>2019-07-17T16:02:36Z</time>
      </trkpt>
      <trkpt lat="47.83168" lon="-3.54217">
        <ele>34</ele>
        <time>2019-07-17T16:02:37Z</time>
      </trkpt>
      <trkpt lat="47.83163" lon="-3.54217">
        <ele>34</ele>
        <time>2019-07-17T16:02:38Z</time>
      </trkpt>
      <trkpt lat="47.8316" lon="-3.54216">
        <ele>34</ele>
        <time>2019-07-17T16:02:39Z</time>
      </trkpt>
      <trkpt lat="47.83155" lon="-3.54215">
        <ele>34</ele>
        <time>2019-07-17T16:02:40Z</time>
      </trkpt>
      <trkpt lat="47.83151" lon="-3.54214">
        <ele>33</ele>
        <time>2019-07-17T16:02:41Z</time>
      </trkpt>
      <trkpt lat="47.83146" lon="-3.54212">
        <ele>33</ele>
        <time>2019-07-17T16:02:42Z</time>
      </trkpt>
      <trkpt lat="47.83141" lon="-3.54211">
        <ele>33</ele>
        <time>2019-07-17T16:02:43Z</time>
      </trkpt>
      <trkpt lat="47.83134" lon="-3.54209">
        <ele>33</ele>
        <time>2019-07-17T16:02:44Z</time>
      </trkpt>
      <trkpt lat="47.83127" lon="-3.54206">
        <ele>32</ele>
        <time>2019-07-17T16:02:45Z</time>
      </trkpt>
      <trkpt lat="47.8312" lon="-3.54203">
        <ele>32</ele>
        <time>2019-07-17T16:02:46Z</time>
      </trkpt>
      <trkpt lat="47.83113" lon="-3.542">
        <ele>31</ele>
        <time>2019-07-17T16:02:47Z</time>
      </trkpt>
      <trkpt lat="47.83105" lon="-3.54196">
        <ele>31</ele>
        <time>2019-07-17T16:02:48Z</time>
      </trkpt>
      <trkpt lat="47.83099" lon="-3.54192">
        <ele>30</ele>
        <time>2019-07-17T16:02:49Z</time>
      </trkpt>
      <trkpt lat="47.83092" lon="-3.54188">
        <ele>29</ele>
        <time>2019-07-17T16:02:50Z</time>
      </trkpt>
      <trkpt lat="47.83085" lon="-3.54183">
        <ele>28</ele>
        <time>2019-07-17T16:02:51Z</time>
      </trkpt>
      <trkpt lat="47.83079" lon="-3.5418">
        <ele>28</ele>
        <time>2019-07-17T16:02:52Z</time>
      </trkpt>
      <trkpt lat="47.83072" lon="-3.54179">
        <ele>27</ele>
        <time>2019-07-17T16:02:53Z</time>
      </trkpt>
      <trkpt lat="47.83068" lon="-3.54178">
        <ele>26</ele>
        <time>2019-07-17T16:02:54Z</time>
      </trkpt>
      <trkpt lat="47.83067" lon="-3.54176">
        <ele>25</ele>
        <time>2019-07-17T16:02:55Z</time>
      </trkpt>
      <trkpt lat="47.83067" lon="-3.54174">
        <ele>25</ele>
        <time>2019-07-17T16:02:56Z</time>
      </trkpt>
      <trkpt lat="47.83069" lon="-3.54173">
        <ele>24</ele>
        <time>2019-07-17T16:02:57Z</time>
      </trkpt>
      <trkpt lat="47.8307" lon="-3.54172">
        <ele>24</ele>
        <time>2019-07-17T16:02:58Z</time>
      </trkpt>
      <trkpt lat="47.83072" lon="-3.54172">
        <ele>24</ele>
        <time>2019-07-17T16:02:59Z</time>
      </trkpt>
      <trkpt lat="47.83075" lon="-3.54173">
        <ele>23</ele>
        <time>2019-07-17T16:03:00Z</time>
      </trkpt>
      <trkpt lat="47.83078" lon="-3.54174">
        <ele>23</ele>
        <time>2019-07-17T16:03:01Z</time>
      </trkpt>
      <trkpt lat="47.83083" lon="-3.54175">
        <ele>23</ele>
        <time>2019-07-17T16:03:02Z</time>
      </trkpt>
      <trkpt lat="47.83088" lon="-3.54175">
        <ele>23</ele>
        <time>2019-07-17T16:03:03Z</time>
      </trkpt>
      <trkpt lat="47.83093" lon="-3.54176">
        <ele>23</ele>
        <time>2019-07-17T16:03:04Z</time>
      </trkpt>
      <trkpt lat="47.83098" lon="-3.54177">
        <ele>23</ele>
        <time>2019-07-17T16:03:05Z</time>
      </trkpt>
      <trkpt lat="47.83103" lon="-3.54177">
        <ele>23</ele>
        <time>2019-07-17T16:03:06Z</time>
      </trkpt>
      <trkpt lat="47.83108" lon="-3.54177">
        <ele>23</ele>
        <time>2019-07-17T16:03:07Z</time>
      </trkpt>
      <trkpt lat="47.83113" lon="-3.54176">
        <ele>22</ele>
        <time>2019-07-17T16:03:08Z</time>
      </trkpt>
      <trkpt lat="47.83119" lon="-3.54176">
        <ele>22</ele>
        <time>2019-07-17T16:03:09Z</time>
      </trkpt>
      <trkpt lat="47.83124" lon="-3.54176">
        <ele>22</ele>
        <time>2019-07-17T16:03:10Z</time>
      </trkpt>
      <trkpt lat="47.8313" lon="-3.54176">
        <ele>22</ele>
        <time>2019-07-17T16:03:11Z</time>
      </trkpt>
      <trkpt lat="47.83135" lon="-3.54175">
        <ele>22</ele>
        <time>2019-07-17T16:03:12Z</time>
      </trkpt>
      <trkpt lat="47.8314" lon="-3.54176">
        <ele>22</ele>
        <time>2019-07-17T16:03:13Z</time>
      </trkpt>
      <trkpt lat="47.83145" lon="-3.54176">
        <ele>22</ele>
        <time>2019-07-17T16:03:14Z</time>
      </trkpt>
      <trkpt lat="47.83149" lon="-3.54176">
        <ele>22</ele>
        <time>2019-07-17T16:03:15Z</time>
      </trkpt>
      <trkpt lat="47.83154" lon="-3.54176">
        <ele>22</ele>
        <time>2019-07-17T16:03:16Z</time>
      </trkpt>
      <trkpt lat="47.83159" lon="-3.54175">
        <ele>22</ele>
        <time>2019-07-17T16:03:17Z</time>
      </trkpt>
      <trkpt lat="47.83164" lon="-3.54175">
        <ele>22</ele>
        <time>2019-07-17T16:03:18Z</time>
      </trkpt>
      <trkpt lat="47.83169" lon="-3.54174">
        <ele>22</ele>
        <time>2019-07-17T16:03:19Z</time>
      </trkpt>
      <trkpt lat="47.83174" lon="-3.54174">
        <ele>22</ele>
        <time>2019-07-17T16:03:20Z</time>
      </trkpt>
      <trkpt lat="47.83179" lon="-3.54173">
        <ele>22</ele>
        <time>2019-07-17T16:03:21Z</time>
      </trkpt>
      <trkpt lat="47.83184" lon="-3.54173">
        <ele>22</ele>
        <time>2019-07-17T16:03:22Z</time>
      </trkpt>
      <trkpt lat="47.83189" lon="-3.54173">
        <ele>22</ele>
        <time>2019-07-17T16:03:23Z</time>
      </trkpt>
      <trkpt lat="47.83193" lon="-3.54174">
        <ele>22</ele>
        <time>2019-07-17T16:03:24Z</time>
      </trkpt>
      <trkpt lat="47.83197" lon="-3.54174">
        <ele>22</ele>
        <time>2019-07-17T16:03:25Z</time>
      </trkpt>
      <trkpt lat="47.83199" lon="-3.54174">
        <ele>22</ele>
        <time>2019-07-17T16:03:26Z</time>
      </trkpt>
      <trkpt lat="47.83201" lon="-3.54173">
        <ele>22</ele>
        <time>2019-07-17T16:03:27Z</time>
      </trkpt>
      <trkpt lat="47.83201" lon="-3.54173">
        <ele>22</ele>
        <time>2019-07-17T16:03:28Z</time>
      </trkpt>
      <trkpt lat="47.83202" lon="-3.54173">
        <ele>22</ele>
        <time>2019-07-17T16:03:29Z</time>
      </trkpt>
      <trkpt lat="47.83202" lon="-3.54173">
        <ele>22</ele>
        <time>2019-07-17T16:03:30Z</time>
      </trkpt>
      <trkpt lat="47.83203" lon="-3.54173">
        <ele>22</ele>
        <time>2019-07-17T16:03:31Z</time>
      </trkpt>
      <trkpt lat="47.83204" lon="-3.54172">
        <ele>22</ele>
        <time>2019-07-17T16:03:32Z</time>
      </trkpt>
      <trkpt lat="47.83206" lon="-3.54171">
        <ele>22</ele>
        <time>2019-07-17T16:03:33Z</time>
      </trkpt>
      <trkpt lat="47.83208" lon="-3.5417">
        <ele>22</ele>
        <time>2019-07-17T16:03:34Z</time>
      </trkpt>
      <trkpt lat="47.8321" lon="-3.5417">
        <ele>22</ele>
        <time>2019-07-17T16:03:35Z</time>
      </trkpt>
      <trkpt lat="47.83214" lon="-3.54169">
        <ele>22</ele>
        <time>2019-07-17T16:03:36Z</time>
      </trkpt>
      <trkpt lat="47.83217" lon="-3.54168">
        <ele>22</ele>
        <time>2019-07-17T16:03:37Z</time>
      </trkpt>
      <trkpt lat="47.8322" lon="-3.54166">
        <ele>22</ele>
        <time>2019-07-17T16:03:38Z</time>
      </trkpt>
      <trkpt lat="47.83224" lon="-3.54165">
        <ele>22</ele>
        <time>2019-07-17T16:03:39Z</time>
      </trkpt>
      <trkpt lat="47.83228" lon="-3.54163">
        <ele>22</ele>
        <time>2019-07-17T16:03:40Z</time>
      </trkpt>
      <trkpt lat="47.83231" lon="-3.54161">
        <ele>22</ele>
        <time>2019-07-17T16:03:41Z</time>
      </trkpt>
      <trkpt lat="47.83234" lon="-3.5416">
        <ele>22</ele>
        <time>2019-07-17T16:03:42Z</time>
      </trkpt>
      <trkpt lat="47.83238" lon="-3.54158">
        <ele>22</ele>
        <time>2019-07-17T16:03:43Z</time>
      </trkpt>
      <trkpt lat="47.83242" lon="-3.54156">
        <ele>22</ele>
        <time>2019-07-17T16:03:44Z</time>
      </trkpt>
      <trkpt lat="47.83245" lon="-3.54153">
        <ele>22</ele>
        <time>2019-07-17T16:03:45Z</time>
      </trkpt>
      <trkpt lat="47.83248" lon="-3.54151">
        <ele>22</ele>
        <time>2019-07-17T16:03:46Z</time>
      </trkpt>
      <trkpt lat="47.83252" lon="-3.54149">
        <ele>22</ele>
        <time>2019-07-17T16:03:47Z</time>
      </trkpt>
      <trkpt lat="47.83256" lon="-3.54147">
        <ele>21</ele>
        <time>2019-07-17T16:03:48Z</time>
      </trkpt>
      <trkpt lat="47.8326" lon="-3.54145">
        <ele>21</ele>
        <time>2019-07-17T16:03:49Z</time>
      </trkpt>
      <trkpt lat="47.83264" lon="-3.54143">
        <ele>21</ele>
        <time>2019-07-17T16:03:50Z</time>
      </trkpt>
      <trkpt lat="47.83268" lon="-3.54141">
        <ele>21</ele>
        <time>2019-07-17T16:03:51Z</time>
      </trkpt>
      <trkpt lat="47.83273" lon="-3.54139">
        <ele>21</ele>
        <time>2019-07-17T16:03:52Z</time>
      </trkpt>
      <trkpt lat="47.83277" lon="-3.54136">
        <ele>21</ele>
        <time>2019-07-17T16:03:53Z</time>
      </trkpt>
      <trkpt lat="47.83281" lon="-3.54133">
        <ele>21</ele>
        <time>2019-07-17T16:03:54Z</time>
      </trkpt>
      <trkpt lat="47.83286" lon="-3.54132">
        <ele>21</ele>
        <time>2019-07-17T16:03:55Z</time>
      </trkpt>
      <trkpt lat="47.8329" lon="-3.5413">
        <ele>21</ele>
        <time>2019-07-17T16:03:56Z</time>
      </trkpt>
      <trkpt lat="47.83294" lon="-3.54128">
        <ele>21</ele>
        <time>2019-07-17T16:03:57Z</time>
      </trkpt>
      <trkpt lat="47.83299" lon="-3.54127">
        <ele>21</ele>
        <time>2019-07-17T16:03:58Z</time>
      </trkpt>
      <trkpt lat="47.83304" lon="-3.54126">
        <ele>21</ele>
        <time>2019-07-17T16:03:59Z</time>
      </trkpt>
      <trkpt lat="47.83309" lon="-3.54124">
        <ele>21</ele>
        <time>2019-07-17T16:04:00Z</time>
      </trkpt>
      <trkpt lat="47.83313" lon="-3.54121">
        <ele>21</ele>
        <time>2019-07-17T16:04:01Z</time>
      </trkpt>
      <trkpt lat="47.83316" lon="-3.54118">
        <ele>21</ele>
        <time>2019-07-17T16:04:02Z</time>
      </trkpt>
      <trkpt lat="47.83321" lon="-3.54115">
        <ele>21</ele>
        <time>2019-07-17T16:04:03Z</time>
      </trkpt>
      <trkpt lat="47.83326" lon="-3.54112">
        <ele>21</ele>
        <time>2019-07-17T16:04:04Z</time>
      </trkpt>
      <trkpt lat="47.83331" lon="-3.5411">
        <ele>21</ele>
        <time>2019-07-17T16:04:05Z</time>
      </trkpt>
      <trkpt lat="47.83337" lon="-3.54108">
        <ele>21</ele>
        <time>2019-07-17T16:04:06Z</time>
      </trkpt>
      <trkpt lat="47.83342" lon="-3.54105">
        <ele>21</ele>
        <time>2019-07-17T16:04:07Z</time>
      </trkpt>
      <trkpt lat="47.83347" lon="-3.54102">
        <ele>21</ele>
        <time>2019-07-17T16:04:08Z</time>
      </trkpt>
      <trkpt lat="47.83352" lon="-3.54099">
        <ele>21</ele>
        <time>2019-07-17T16:04:09Z</time>
      </trkpt>
      <trkpt lat="47.83357" lon="-3.54097">
        <ele>21</ele>
        <time>2019-07-17T16:04:10Z</time>
      </trkpt>
      <trkpt lat="47.83362" lon="-3.54094">
        <ele>21</ele>
        <time>2019-07-17T16:04:11Z</time>
      </trkpt>
      <trkpt lat="47.83367" lon="-3.54092">
        <ele>21</ele>
        <time>2019-07-17T16:04:12Z</time>
      </trkpt>
      <trkpt lat="47.83372" lon="-3.5409">
        <ele>21</ele>
        <time>2019-07-17T16:04:13Z</time>
      </trkpt>
      <trkpt lat="47.83377" lon="-3.54089">
        <ele>21</ele>
        <time>2019-07-17T16:04:14Z</time>
      </trkpt>
      <trkpt lat="47.83381" lon="-3.54088">
        <ele>21</ele>
        <time>2019-07-17T16:04:15Z</time>
      </trkpt>
      <trkpt lat="47.83385" lon="-3.54088">
        <ele>21</ele>
        <time>2019-07-17T16:04:16Z</time>
      </trkpt>
      <trkpt lat="47.8339" lon="-3.54087">
        <ele>21</ele>
        <time>2019-07-17T16:04:17Z</time>
      </trkpt>
      <trkpt lat="47.83395" lon="-3.54087">
        <ele>21</ele>
        <time>2019-07-17T16:04:18Z</time>
      </trkpt>
      <trkpt lat="47.83401" lon="-3.54086">
        <ele>21</ele>
        <time>2019-07-17T16:04:19Z</time>
      </trkpt>
      <trkpt lat="47.83406" lon="-3.54085">
        <ele>21</ele>
        <time>2019-07-17T16:04:20Z</time>
      </trkpt>
      <trkpt lat="47.83411" lon="-3.54084">
        <ele>21</ele>
        <time>2019-07-17T16:04:21Z</time>
      </trkpt>
      <trkpt lat="47.83417" lon="-3.54084">
        <ele>21</ele>
        <time>2019-07-17T16:04:22Z</time>
      </trkpt>
      <trkpt lat="47.83422" lon="-3.54083">
        <ele>21</ele>
        <time>2019-07-17T16:04:23Z</time>
      </trkpt>
      <trkpt lat="47.83427" lon="-3.54081">
        <ele>21</ele>
        <time>2019-07-17T16:04:24Z</time>
      </trkpt>
      <trkpt lat="47.83432" lon="-3.54079">
        <ele>21</ele>
        <time>2019-07-17T16:04:25Z</time>
      </trkpt>
      <trkpt lat="47.83436" lon="-3.54077">
        <ele>22</ele>
        <time>2019-07-17T16:04:26Z</time>
      </trkpt>
      <trkpt lat="47.8344" lon="-3.54077">
        <ele>22</ele>
        <time>2019-07-17T16:04:27Z</time>
      </trkpt>
      <trkpt lat="47.83444" lon="-3.54076">
        <ele>22</ele>
        <time>2019-07-17T16:04:28Z</time>
      </trkpt>
      <trkpt lat="47.83448" lon="-3.54077">
        <ele>22</ele>
        <time>2019-07-17T16:04:29Z</time>
      </trkpt>
      <trkpt lat="47.83452" lon="-3.54077">
        <ele>23</ele>
        <time>2019-07-17T16:04:30Z</time>
      </trkpt>
      <trkpt lat="47.83457" lon="-3.54077">
        <ele>23</ele>
        <time>2019-07-17T16:04:31Z</time>
      </trkpt>
      <trkpt lat="47.83461" lon="-3.54077">
        <ele>23</ele>
        <time>2019-07-17T16:04:32Z</time>
      </trkpt>
      <trkpt lat="47.83465" lon="-3.54077">
        <ele>23</ele>
        <time>2019-07-17T16:04:33Z</time>
      </trkpt>
      <trkpt lat="47.83468" lon="-3.54077">
        <ele>23</ele>
        <time>2019-07-17T16:04:34Z</time>
      </trkpt>
      <trkpt lat="47.83472" lon="-3.54078">
        <ele>23</ele>
        <time>2019-07-17T16:04:35Z</time>
      </trkpt>
      <trkpt lat="47.83475" lon="-3.54078">
        <ele>24</ele>
        <time>2019-07-17T16:04:36Z</time>
      </trkpt>
      <trkpt lat="47.83478" lon="-3.54078">
        <ele>24</ele>
        <time>2019-07-17T16:04:37Z</time>
      </trkpt>
      <trkpt lat="47.83482" lon="-3.54077">
        <ele>24</ele>
        <time>2019-07-17T16:04:38Z</time>
      </trkpt>
      <trkpt lat="47.83486" lon="-3.54077">
        <ele>24</ele>
        <time>2019-07-17T16:04:39Z</time>
      </trkpt>
      <trkpt lat="47.83491" lon="-3.54076">
        <ele>24</ele>
        <time>2019-07-17T16:04:40Z</time>
      </trkpt>
      <trkpt lat="47.83495" lon="-3.54075">
        <ele>24</ele>
        <time>2019-07-17T16:04:41Z</time>
      </trkpt>
      <trkpt lat="47.835" lon="-3.54074">
        <ele>24</ele>
        <time>2019-07-17T16:04:42Z</time>
      </trkpt>
      <trkpt lat="47.83504" lon="-3.54073">
        <ele>24</ele>
        <time>2019-07-17T16:04:43Z</time>
      </trkpt>
      <trkpt lat="47.83508" lon="-3.54072">
        <ele>24</ele>
        <time>2019-07-17T16:04:44Z</time>
      </trkpt>
      <trkpt lat="47.83513" lon="-3.54071">
        <ele>24</ele>
        <time>2019-07-17T16:04:45Z</time>
      </trkpt>
      <trkpt lat="47.83518" lon="-3.5407">
        <ele>24</ele>
        <time>2019-07-17T16:04:46Z</time>
      </trkpt>
      <trkpt lat="47.83523" lon="-3.5407">
        <ele>24</ele>
        <time>2019-07-17T16:04:47Z</time>
      </trkpt>
      <trkpt lat="47.83528" lon="-3.54068">
        <ele>24</ele>
        <time>2019-07-17T16:04:48Z</time>
      </trkpt>
      <trkpt lat="47.83533" lon="-3.54067">
        <ele>24</ele>
        <time>2019-07-17T16:04:49Z</time>
      </trkpt>
      <trkpt lat="47.83538" lon="-3.54064">
        <ele>24</ele>
        <time>2019-07-17T16:04:50Z</time>
      </trkpt>
      <trkpt lat="47.83544" lon="-3.54063">
        <ele>24</ele>
        <time>2019-07-17T16:04:51Z</time>
      </trkpt>
      <trkpt lat="47.83549" lon="-3.54062">
        <ele>24</ele>
        <time>2019-07-17T16:04:52Z</time>
      </trkpt>
      <trkpt lat="47.83554" lon="-3.5406">
        <ele>24</ele>
        <time>2019-07-17T16:04:53Z</time>
      </trkpt>
      <trkpt lat="47.83559" lon="-3.54058">
        <ele>24</ele>
        <time>2019-07-17T16:04:54Z</time>
      </trkpt>
      <trkpt lat="47.83564" lon="-3.54055">
        <ele>24</ele>
        <time>2019-07-17T16:04:55Z</time>
      </trkpt>
      <trkpt lat="47.8357" lon="-3.54053">
        <ele>24</ele>
        <time>2019-07-17T16:04:56Z</time>
      </trkpt>
      <trkpt lat="47.83576" lon="-3.54051">
        <ele>24</ele>
        <time>2019-07-17T16:04:57Z</time>
      </trkpt>
      <trkpt lat="47.83581" lon="-3.54048">
        <ele>24</ele>
        <time>2019-07-17T16:04:58Z</time>
      </trkpt>
      <trkpt lat="47.83586" lon="-3.54044">
        <ele>24</ele>
        <time>2019-07-17T16:04:59Z</time>
      </trkpt>
      <trkpt lat="47.83591" lon="-3.54041">
        <ele>24</ele>
        <time>2019-07-17T16:05:00Z</time>
      </trkpt>
      <trkpt lat="47.83596" lon="-3.54039">
        <ele>24</ele>
        <time>2019-07-17T16:05:01Z</time>
      </trkpt>
      <trkpt lat="47.83601" lon="-3.54036">
        <ele>24</ele>
        <time>2019-07-17T16:05:02Z</time>
      </trkpt>
      <trkpt lat="47.83606" lon="-3.54033">
        <ele>24</ele>
        <time>2019-07-17T16:05:03Z</time>
      </trkpt>
      <trkpt lat="47.83611" lon="-3.5403">
        <ele>24</ele>
        <time>2019-07-17T16:05:04Z</time>
      </trkpt>
      <trkpt lat="47.83615" lon="-3.54029">
        <ele>24</ele>
        <time>2019-07-17T16:05:05Z</time>
      </trkpt>
      <trkpt lat="47.83619" lon="-3.54027">
        <ele>24</ele>
        <time>2019-07-17T16:05:06Z</time>
      </trkpt>
      <trkpt lat="47.83623" lon="-3.54025">
        <ele>24</ele>
        <time>2019-07-17T16:05:07Z</time>
      </trkpt>
      <trkpt lat="47.83627" lon="-3.54023">
        <ele>24</ele>
        <time>2019-07-17T16:05:08Z</time>
      </trkpt>
      <trkpt lat="47.83633" lon="-3.54022">
        <ele>24</ele>
        <time>2019-07-17T16:05:09Z</time>
      </trkpt>
      <trkpt lat="47.83638" lon="-3.5402">
        <ele>24</ele>
        <time>2019-07-17T16:05:10Z</time>
      </trkpt>
      <trkpt lat="47.83643" lon="-3.54018">
        <ele>25</ele>
        <time>2019-07-17T16:05:11Z</time>
      </trkpt>
      <trkpt lat="47.83649" lon="-3.54016">
        <ele>25</ele>
        <time>2019-07-17T16:05:12Z</time>
      </trkpt>
      <trkpt lat="47.83654" lon="-3.54015">
        <ele>25</ele>
        <time>2019-07-17T16:05:13Z</time>
      </trkpt>
      <trkpt lat="47.83658" lon="-3.54013">
        <ele>25</ele>
        <time>2019-07-17T16:05:14Z</time>
      </trkpt>
      <trkpt lat="47.83664" lon="-3.54011">
        <ele>25</ele>
        <time>2019-07-17T16:05:15Z</time>
      </trkpt>
      <trkpt lat="47.83669" lon="-3.54008">
        <ele>25</ele>
        <time>2019-07-17T16:05:16Z</time>
      </trkpt>
      <trkpt lat="47.83674" lon="-3.54006">
        <ele>26</ele>
        <time>2019-07-17T16:05:17Z</time>
      </trkpt>
      <trkpt lat="47.83679" lon="-3.54004">
        <ele>26</ele>
        <time>2019-07-17T16:05:18Z</time>
      </trkpt>
      <trkpt lat="47.83682" lon="-3.54002">
        <ele>26</ele>
        <time>2019-07-17T16:05:19Z</time>
      </trkpt>
      <trkpt lat="47.83684" lon="-3.54001">
        <ele>26</ele>
        <time>2019-07-17T16:05:20Z</time>
      </trkpt>
      <trkpt lat="47.83687" lon="-3.53999">
        <ele>26</ele>
        <time>2019-07-17T16:05:21Z</time>
      </trkpt>
      <trkpt lat="47.8369" lon="-3.53998">
        <ele>26</ele>
        <time>2019-07-17T16:05:22Z</time>
      </trkpt>
      <trkpt lat="47.83693" lon="-3.53996">
        <ele>26</ele>
        <time>2019-07-17T16:05:23Z</time>
      </trkpt>
      <trkpt lat="47.83697" lon="-3.53994">
        <ele>26</ele>
        <time>2019-07-17T16:05:24Z</time>
      </trkpt>
      <trkpt lat="47.837" lon="-3.53992">
        <ele>26</ele>
        <time>2019-07-17T16:05:25Z</time>
      </trkpt>
      <trkpt lat="47.83704" lon="-3.53991">
        <ele>26</ele>
        <time>2019-07-17T16:05:26Z</time>
      </trkpt>
      <trkpt lat="47.83708" lon="-3.53989">
        <ele>26</ele>
        <time>2019-07-17T16:05:27Z</time>
      </trkpt>
      <trkpt lat="47.83712" lon="-3.53987">
        <ele>26</ele>
        <time>2019-07-17T16:05:28Z</time>
      </trkpt>
      <trkpt lat="47.83716" lon="-3.53985">
        <ele>26</ele>
        <time>2019-07-17T16:05:29Z</time>
      </trkpt>
      <trkpt lat="47.8372" lon="-3.53983">
        <ele>26</ele>
        <time>2019-07-17T16:05:30Z</time>
      </trkpt>
      <trkpt lat="47.83724" lon="-3.53979">
        <ele>26</ele>
        <time>2019-07-17T16:05:31Z</time>
      </trkpt>
      <trkpt lat="47.83727" lon="-3.53974">
        <ele>26</ele>
        <time>2019-07-17T16:05:32Z</time>
      </trkpt>
      <trkpt lat="47.8373" lon="-3.53966">
        <ele>26</ele>
        <time>2019-07-17T16:05:33Z</time>
      </trkpt>
      <trkpt lat="47.83733" lon="-3.53958">
        <ele>25</ele>
        <time>2019-07-17T16:05:34Z</time>
      </trkpt>
      <trkpt lat="47.83736" lon="-3.5395">
        <ele>25</ele>
        <time>2019-07-17T16:05:35Z</time>
      </trkpt>
      <trkpt lat="47.83739" lon="-3.53942">
        <ele>25</ele>
        <time>2019-07-17T16:05:36Z</time>
      </trkpt>
      <trkpt lat="47.83743" lon="-3.53934">
        <ele>25</ele>
        <time>2019-07-17T16:05:37Z</time>
      </trkpt>
      <trkpt lat="47.83747" lon="-3.53928">
        <ele>24</ele>
        <time>2019-07-17T16:05:38Z</time>
      </trkpt>
      <trkpt lat="47.83751" lon="-3.53923">
        <ele>24</ele>
        <time>2019-07-17T16:05:39Z</time>
      </trkpt>
      <trkpt lat="47.83754" lon="-3.5392">
        <ele>24</ele>
        <time>2019-07-17T16:05:40Z</time>
      </trkpt>
      <trkpt lat="47.83759" lon="-3.53919">
        <ele>24</ele>
        <time>2019-07-17T16:05:41Z</time>
      </trkpt>
      <trkpt lat="47.83762" lon="-3.53918">
        <ele>23</ele>
        <time>2019-07-17T16:05:42Z</time>
      </trkpt>
      <trkpt lat="47.83766" lon="-3.53917">
        <ele>23</ele>
        <time>2019-07-17T16:05:43Z</time>
      </trkpt>
      <trkpt lat="47.8377" lon="-3.53916">
        <ele>22</ele>
        <time>2019-07-17T16:05:44Z</time>
      </trkpt>
      <trkpt lat="47.83774" lon="-3.53915">
        <ele>22</ele>
        <time>2019-07-17T16:05:45Z</time>
      </trkpt>
      <trkpt lat="47.83779" lon="-3.53915">
        <ele>21</ele>
        <time>2019-07-17T16:05:46Z</time>
      </trkpt>
      <trkpt lat="47.83784" lon="-3.53917">
        <ele>21</ele>
        <time>2019-07-17T16:05:47Z</time>
      </trkpt>
      <trkpt lat="47.83789" lon="-3.5392">
        <ele>20</ele>
        <time>2019-07-17T16:05:48Z</time>
      </trkpt>
      <trkpt lat="47.83792" lon="-3.53923">
        <ele>19</ele>
        <time>2019-07-17T16:05:49Z</time>
      </trkpt>
      <trkpt lat="47.83797" lon="-3.53926">
        <ele>19</ele>
        <time>2019-07-17T16:05:50Z</time>
      </trkpt>
      <trkpt lat="47.83801" lon="-3.53927">
        <ele>18</ele>
        <time>2019-07-17T16:05:51Z</time>
      </trkpt>
      <trkpt lat="47.83805" lon="-3.53928">
        <ele>17</ele>
        <time>2019-07-17T16:05:52Z</time>
      </trkpt>
      <trkpt lat="47.8381" lon="-3.53927">
        <ele>17</ele>
        <time>2019-07-17T16:05:53Z</time>
      </trkpt>
      <trkpt lat="47.83814" lon="-3.53926">
        <ele>17</ele>
        <time>2019-07-17T16:05:54Z</time>
      </trkpt>
      <trkpt lat="47.83817" lon="-3.53923">
        <ele>16</ele>
        <time>2019-07-17T16:05:55Z</time>
      </trkpt>
      <trkpt lat="47.83819" lon="-3.53919">
        <ele>16</ele>
        <time>2019-07-17T16:05:56Z</time>
      </trkpt>
      <trkpt lat="47.83821" lon="-3.53912">
        <ele>15</ele>
        <time>2019-07-17T16:05:57Z</time>
      </trkpt>
      <trkpt lat="47.83823" lon="-3.53906">
        <ele>15</ele>
        <time>2019-07-17T16:05:58Z</time>
      </trkpt>
      <trkpt lat="47.83825" lon="-3.53899">
        <ele>14</ele>
        <time>2019-07-17T16:05:59Z</time>
      </trkpt>
      <trkpt lat="47.83827" lon="-3.53891">
        <ele>14</ele>
        <time>2019-07-17T16:06:00Z</time>
      </trkpt>
      <trkpt lat="47.83829" lon="-3.53882">
        <ele>14</ele>
        <time>2019-07-17T16:06:01Z</time>
      </trkpt>
      <trkpt lat="47.83831" lon="-3.53873">
        <ele>14</ele>
        <time>2019-07-17T16:06:02Z</time>
      </trkpt>
      <trkpt lat="47.83833" lon="-3.53864">
        <ele>13</ele>
        <time>2019-07-17T16:06:03Z</time>
      </trkpt>
      <trkpt lat="47.83835" lon="-3.53856">
        <ele>13</ele>
        <time>2019-07-17T16:06:04Z</time>
      </trkpt>
      <trkpt lat="47.83837" lon="-3.53848">
        <ele>13</ele>
        <time>2019-07-17T16:06:05Z</time>
      </trkpt>
      <trkpt lat="47.83839" lon="-3.5384">
        <ele>13</ele>
        <time>2019-07-17T16:06:06Z</time>
      </trkpt>
      <trkpt lat="47.83841" lon="-3.53833">
        <ele>12</ele>
        <time>2019-07-17T16:06:07Z</time>
      </trkpt>
      <trkpt lat="47.83843" lon="-3.53827">
        <ele>12</ele>
        <time>2019-07-17T16:06:08Z</time>
      </trkpt>
      <trkpt lat="47.83845" lon="-3.5382">
        <ele>12</ele>
        <time>2019-07-17T16:06:09Z</time>
      </trkpt>
      <trkpt lat="47.83847" lon="-3.53813">
        <ele>11</ele>
        <time>2019-07-17T16:06:10Z</time>
      </trkpt>
      <trkpt lat="47.83849" lon="-3.53807">
        <ele>11</ele>
        <time>2019-07-17T16:06:11Z</time>
      </trkpt>
      <trkpt lat="47.83852" lon="-3.538">
        <ele>11</ele>
        <time>2019-07-17T16:06:12Z</time>
      </trkpt>
      <trkpt lat="47.83854" lon="-3.53794">
        <ele>11</ele>
        <time>2019-07-17T16:06:13Z</time>
      </trkpt>
      <trkpt lat="47.83858" lon="-3.53789">
        <ele>11</ele>
        <time>2019-07-17T16:06:14Z</time>
      </trkpt>
      <trkpt lat="47.83861" lon="-3.53785">
        <ele>10</ele>
        <time>2019-07-17T16:06:15Z</time>
      </trkpt>
      <trkpt lat="47.83863" lon="-3.5378">
        <ele>10</ele>
        <time>2019-07-17T16:06:16Z</time>
      </trkpt>
      <trkpt lat="47.83866" lon="-3.53775">
        <ele>10</ele>
        <time>2019-07-17T16:06:17Z</time>
      </trkpt>
      <trkpt lat="47.83868" lon="-3.5377">
        <ele>10</ele>
        <time>2019-07-17T16:06:18Z</time>
      </trkpt>
      <trkpt lat="47.8387" lon="-3.53765">
        <ele>10</ele>
        <time>2019-07-17T16:06:19Z</time>
      </trkpt>
      <trkpt lat="47.83873" lon="-3.53762">
        <ele>10</ele>
        <time>2019-07-17T16:06:20Z</time>
      </trkpt>
      <trkpt lat="47.83875" lon="-3.53758">
        <ele>10</ele>
        <time>2019-07-17T16:06:21Z</time>
      </trkpt>
      <trkpt lat="47.83877" lon="-3.53755">
        <ele>10</ele>
        <time>2019-07-17T16:06:22Z</time>
      </trkpt>
      <trkpt lat="47.8388" lon="-3.53752">
        <ele>10</ele>
        <time>2019-07-17T16:06:23Z</time>
      </trkpt>
      <trkpt lat="47.83882" lon="-3.53749">
        <ele>10</ele>
        <time>2019-07-17T16:06:24Z</time>
      </trkpt>
      <trkpt lat="47.83886" lon="-3.53746">
        <ele>10</ele>
        <time>2019-07-17T16:06:25Z</time>
      </trkpt>
      <trkpt lat="47.83889" lon="-3.53743">
        <ele>10</ele>
        <time>2019-07-17T16:06:26Z</time>
      </trkpt>
      <trkpt lat="47.83892" lon="-3.53739">
        <ele>10</ele>
        <time>2019-07-17T16:06:27Z</time>
      </trkpt>
      <trkpt lat="47.83896" lon="-3.53737">
        <ele>10</ele>
        <time>2019-07-17T16:06:28Z</time>
      </trkpt>
      <trkpt lat="47.839" lon="-3.53734">
        <ele>10</ele>
        <time>2019-07-17T16:06:29Z</time>
      </trkpt>
      <trkpt lat="47.83903" lon="-3.53731">
        <ele>10</ele>
        <time>2019-07-17T16:06:30Z</time>
      </trkpt>
      <trkpt lat="47.83905" lon="-3.53728">
        <ele>10</ele>
        <time>2019-07-17T16:06:31Z</time>
      </trkpt>
      <trkpt lat="47.83908" lon="-3.53725">
        <ele>10</ele>
        <time>2019-07-17T16:06:32Z</time>
      </trkpt>
      <trkpt lat="47.83909" lon="-3.53723">
        <ele>10</ele>
        <time>2019-07-17T16:06:33Z</time>
      </trkpt>
      <trkpt lat="47.8391" lon="-3.53722">
        <ele>10</ele>
        <time>2019-07-17T16:06:34Z</time>
      </trkpt>
      <trkpt lat="47.8391" lon="-3.53721">
        <ele>11</ele>
        <time>2019-07-17T16:06:35Z</time>
      </trkpt>
      <trkpt lat="47.83911" lon="-3.5372">
        <ele>11</ele>
        <time>2019-07-17T16:06:36Z</time>
      </trkpt>
      <trkpt lat="47.83911" lon="-3.53719">
        <ele>11</ele>
        <time>2019-07-17T16:06:37Z</time>
      </trkpt>
      <trkpt lat="47.83917" lon="-3.53702">
        <ele>18</ele>
        <time>2019-07-17T16:06:38Z</time>
      </trkpt>
      <trkpt lat="47.83918" lon="-3.53701">
        <ele>18</ele>
        <time>2019-07-17T16:06:39Z</time>
      </trkpt>
      <trkpt lat="47.83921" lon="-3.53699">
        <ele>18</ele>
        <time>2019-07-17T16:06:40Z</time>
      </trkpt>
      <trkpt lat="47.83922" lon="-3.53699">
        <ele>18</ele>
        <time>2019-07-17T16:06:41Z</time>
      </trkpt>
      <trkpt lat="47.83923" lon="-3.53698">
        <ele>18</ele>
        <time>2019-07-17T16:06:42Z</time>
      </trkpt>
      <trkpt lat="47.83923" lon="-3.53698">
        <ele>18</ele>
        <time>2019-07-17T16:06:43Z</time>
      </trkpt>
      <trkpt lat="47.83927" lon="-3.53697">
        <ele>18</ele>
        <time>2019-07-17T16:06:44Z</time>
      </trkpt>
      <trkpt lat="47.83929" lon="-3.53696">
        <ele>18</ele>
        <time>2019-07-17T16:06:45Z</time>
      </trkpt>
      <trkpt lat="47.83931" lon="-3.53695">
        <ele>18</ele>
        <time>2019-07-17T16:06:46Z</time>
      </trkpt>
      <trkpt lat="47.83934" lon="-3.53694">
        <ele>18</ele>
        <time>2019-07-17T16:06:47Z</time>
      </trkpt>
      <trkpt lat="47.83936" lon="-3.53693">
        <ele>18</ele>
        <time>2019-07-17T16:06:48Z</time>
      </trkpt>
      <trkpt lat="47.83939" lon="-3.53691">
        <ele>18</ele>
        <time>2019-07-17T16:06:49Z</time>
      </trkpt>
      <trkpt lat="47.83941" lon="-3.5369">
        <ele>18</ele>
        <time>2019-07-17T16:06:50Z</time>
      </trkpt>
      <trkpt lat="47.83944" lon="-3.53689">
        <ele>18</ele>
        <time>2019-07-17T16:06:51Z</time>
      </trkpt>
      <trkpt lat="47.83947" lon="-3.53687">
        <ele>18</ele>
        <time>2019-07-17T16:06:52Z</time>
      </trkpt>
      <trkpt lat="47.83949" lon="-3.53686">
        <ele>18</ele>
        <time>2019-07-17T16:06:53Z</time>
      </trkpt>
      <trkpt lat="47.83952" lon="-3.53683">
        <ele>18</ele>
        <time>2019-07-17T16:06:54Z</time>
      </trkpt>
      <trkpt lat="47.83955" lon="-3.5368">
        <ele>18</ele>
        <time>2019-07-17T16:06:55Z</time>
      </trkpt>
      <trkpt lat="47.83959" lon="-3.53677">
        <ele>18</ele>
        <time>2019-07-17T16:06:56Z</time>
      </trkpt>
      <trkpt lat="47.83961" lon="-3.53674">
        <ele>18</ele>
        <time>2019-07-17T16:06:57Z</time>
      </trkpt>
      <trkpt lat="47.83963" lon="-3.5367">
        <ele>18</ele>
        <time>2019-07-17T16:06:58Z</time>
      </trkpt>
      <trkpt lat="47.83964" lon="-3.53665">
        <ele>18</ele>
        <time>2019-07-17T16:06:59Z</time>
      </trkpt>
      <trkpt lat="47.83966" lon="-3.53659">
        <ele>18</ele>
        <time>2019-07-17T16:07:00Z</time>
      </trkpt>
      <trkpt lat="47.83967" lon="-3.53654">
        <ele>18</ele>
        <time>2019-07-17T16:07:01Z</time>
      </trkpt>
      <trkpt lat="47.83968" lon="-3.53648">
        <ele>18</ele>
        <time>2019-07-17T16:07:02Z</time>
      </trkpt>
      <trkpt lat="47.83968" lon="-3.53644">
        <ele>18</ele>
        <time>2019-07-17T16:07:03Z</time>
      </trkpt>
      <trkpt lat="47.83969" lon="-3.53639">
        <ele>18</ele>
        <time>2019-07-17T16:07:04Z</time>
      </trkpt>
      <trkpt lat="47.8397" lon="-3.53634">
        <ele>18</ele>
        <time>2019-07-17T16:07:05Z</time>
      </trkpt>
      <trkpt lat="47.83972" lon="-3.53631">
        <ele>18</ele>
        <time>2019-07-17T16:07:06Z</time>
      </trkpt>
      <trkpt lat="47.83973" lon="-3.53627">
        <ele>18</ele>
        <time>2019-07-17T16:07:07Z</time>
      </trkpt>
      <trkpt lat="47.83974" lon="-3.53624">
        <ele>18</ele>
        <time>2019-07-17T16:07:08Z</time>
      </trkpt>
      <trkpt lat="47.83976" lon="-3.5362">
        <ele>18</ele>
        <time>2019-07-17T16:07:09Z</time>
      </trkpt>
      <trkpt lat="47.83977" lon="-3.53617">
        <ele>18</ele>
        <time>2019-07-17T16:07:10Z</time>
      </trkpt>
      <trkpt lat="47.83979" lon="-3.53614">
        <ele>18</ele>
        <time>2019-07-17T16:07:11Z</time>
      </trkpt>
      <trkpt lat="47.8398" lon="-3.53611">
        <ele>18</ele>
        <time>2019-07-17T16:07:12Z</time>
      </trkpt>
      <trkpt lat="47.83982" lon="-3.53608">
        <ele>18</ele>
        <time>2019-07-17T16:07:13Z</time>
      </trkpt>
      <trkpt lat="47.83984" lon="-3.53604">
        <ele>18</ele>
        <time>2019-07-17T16:07:14Z</time>
      </trkpt>
      <trkpt lat="47.83985" lon="-3.536">
        <ele>18</ele>
        <time>2019-07-17T16:07:15Z</time>
      </trkpt>
      <trkpt lat="47.83987" lon="-3.53596">
        <ele>18</ele>
        <time>2019-07-17T16:07:16Z</time>
      </trkpt>
      <trkpt lat="47.83989" lon="-3.53592">
        <ele>18</ele>
        <time>2019-07-17T16:07:17Z</time>
      </trkpt>
      <trkpt lat="47.8399" lon="-3.53588">
        <ele>18</ele>
        <time>2019-07-17T16:07:18Z</time>
      </trkpt>
      <trkpt lat="47.83993" lon="-3.53585">
        <ele>18</ele>
        <time>2019-07-17T16:07:19Z</time>
      </trkpt>
      <trkpt lat="47.83995" lon="-3.5358">
        <ele>18</ele>
        <time>2019-07-17T16:07:20Z</time>
      </trkpt>
      <trkpt lat="47.83996" lon="-3.53577">
        <ele>18</ele>
        <time>2019-07-17T16:07:21Z</time>
      </trkpt>
      <trkpt lat="47.83999" lon="-3.53575">
        <ele>18</ele>
        <time>2019-07-17T16:07:22Z</time>
      </trkpt>
      <trkpt lat="47.84001" lon="-3.53572">
        <ele>18</ele>
        <time>2019-07-17T16:07:23Z</time>
      </trkpt>
      <trkpt lat="47.84003" lon="-3.53571">
        <ele>18</ele>
        <time>2019-07-17T16:07:24Z</time>
      </trkpt>
      <trkpt lat="47.84006" lon="-3.53568">
        <ele>18</ele>
        <time>2019-07-17T16:07:25Z</time>
      </trkpt>
      <trkpt lat="47.84008" lon="-3.53566">
        <ele>18</ele>
        <time>2019-07-17T16:07:26Z</time>
      </trkpt>
      <trkpt lat="47.8401" lon="-3.53564">
        <ele>18</ele>
        <time>2019-07-17T16:07:27Z</time>
      </trkpt>
      <trkpt lat="47.84012" lon="-3.53562">
        <ele>18</ele>
        <time>2019-07-17T16:07:28Z</time>
      </trkpt>
      <trkpt lat="47.84014" lon="-3.53561">
        <ele>18</ele>
        <time>2019-07-17T16:07:29Z</time>
      </trkpt>
      <trkpt lat="47.84016" lon="-3.53559">
        <ele>18</ele>
        <time>2019-07-17T16:07:30Z</time>
      </trkpt>
      <trkpt lat="47.84018" lon="-3.53557">
        <ele>18</ele>
        <time>2019-07-17T16:07:31Z</time>
      </trkpt>
      <trkpt lat="47.8402" lon="-3.53555">
        <ele>19</ele>
        <time>2019-07-17T16:07:32Z</time>
      </trkpt>
      <trkpt lat="47.84022" lon="-3.53553">
        <ele>19</ele>
        <time>2019-07-17T16:07:33Z</time>
      </trkpt>
      <trkpt lat="47.84024" lon="-3.53551">
        <ele>19</ele>
        <time>2019-07-17T16:07:34Z</time>
      </trkpt>
      <trkpt lat="47.84026" lon="-3.5355">
        <ele>19</ele>
        <time>2019-07-17T16:07:35Z</time>
      </trkpt>
      <trkpt lat="47.84028" lon="-3.53548">
        <ele>19</ele>
        <time>2019-07-17T16:07:36Z</time>
      </trkpt>
      <trkpt lat="47.8403" lon="-3.53547">
        <ele>20</ele>
        <time>2019-07-17T16:07:37Z</time>
      </trkpt>
      <trkpt lat="47.84032" lon="-3.53546">
        <ele>20</ele>
        <time>2019-07-17T16:07:38Z</time>
      </trkpt>
      <trkpt lat="47.84034" lon="-3.53545">
        <ele>20</ele>
        <time>2019-07-17T16:07:39Z</time>
      </trkpt>
      <trkpt lat="47.84036" lon="-3.53544">
        <ele>20</ele>
        <time>2019-07-17T16:07:40Z</time>
      </trkpt>
      <trkpt lat="47.84038" lon="-3.53543">
        <ele>21</ele>
        <time>2019-07-17T16:07:41Z</time>
      </trkpt>
      <trkpt lat="47.8404" lon="-3.53542">
        <ele>21</ele>
        <time>2019-07-17T16:07:42Z</time>
      </trkpt>
      <trkpt lat="47.84042" lon="-3.53541">
        <ele>21</ele>
        <time>2019-07-17T16:07:43Z</time>
      </trkpt>
      <trkpt lat="47.84043" lon="-3.53539">
        <ele>21</ele>
        <time>2019-07-17T16:07:44Z</time>
      </trkpt>
      <trkpt lat="47.84045" lon="-3.53538">
        <ele>21</ele>
        <time>2019-07-17T16:07:45Z</time>
      </trkpt>
      <trkpt lat="47.84047" lon="-3.53535">
        <ele>21</ele>
        <time>2019-07-17T16:07:46Z</time>
      </trkpt>
      <trkpt lat="47.84049" lon="-3.53532">
        <ele>21</ele>
        <time>2019-07-17T16:07:47Z</time>
      </trkpt>
      <trkpt lat="47.84052" lon="-3.53529">
        <ele>22</ele>
        <time>2019-07-17T16:07:48Z</time>
      </trkpt>
      <trkpt lat="47.84055" lon="-3.53527">
        <ele>22</ele>
        <time>2019-07-17T16:07:49Z</time>
      </trkpt>
      <trkpt lat="47.84058" lon="-3.53525">
        <ele>22</ele>
        <time>2019-07-17T16:07:50Z</time>
      </trkpt>
      <trkpt lat="47.84061" lon="-3.53522">
        <ele>22</ele>
        <time>2019-07-17T16:07:51Z</time>
      </trkpt>
      <trkpt lat="47.84063" lon="-3.53518">
        <ele>22</ele>
        <time>2019-07-17T16:07:52Z</time>
      </trkpt>
      <trkpt lat="47.84066" lon="-3.53515">
        <ele>22</ele>
        <time>2019-07-17T16:07:53Z</time>
      </trkpt>
      <trkpt lat="47.84068" lon="-3.53512">
        <ele>23</ele>
        <time>2019-07-17T16:07:54Z</time>
      </trkpt>
      <trkpt lat="47.8407" lon="-3.5351">
        <ele>23</ele>
        <time>2019-07-17T16:07:55Z</time>
      </trkpt>
      <trkpt lat="47.84072" lon="-3.53508">
        <ele>23</ele>
        <time>2019-07-17T16:07:56Z</time>
      </trkpt>
      <trkpt lat="47.84074" lon="-3.53505">
        <ele>23</ele>
        <time>2019-07-17T16:07:57Z</time>
      </trkpt>
      <trkpt lat="47.84076" lon="-3.53502">
        <ele>23</ele>
        <time>2019-07-17T16:07:58Z</time>
      </trkpt>
      <trkpt lat="47.84079" lon="-3.53497">
        <ele>23</ele>
        <time>2019-07-17T16:07:59Z</time>
      </trkpt>
      <trkpt lat="47.84081" lon="-3.53494">
        <ele>23</ele>
        <time>2019-07-17T16:08:00Z</time>
      </trkpt>
      <trkpt lat="47.84083" lon="-3.5349">
        <ele>23</ele>
        <time>2019-07-17T16:08:01Z</time>
      </trkpt>
      <trkpt lat="47.84085" lon="-3.53487">
        <ele>23</ele>
        <time>2019-07-17T16:08:02Z</time>
      </trkpt>
      <trkpt lat="47.84088" lon="-3.53483">
        <ele>23</ele>
        <time>2019-07-17T16:08:03Z</time>
      </trkpt>
      <trkpt lat="47.8409" lon="-3.53479">
        <ele>23</ele>
        <time>2019-07-17T16:08:04Z</time>
      </trkpt>
      <trkpt lat="47.84091" lon="-3.53476">
        <ele>23</ele>
        <time>2019-07-17T16:08:05Z</time>
      </trkpt>
      <trkpt lat="47.84094" lon="-3.53473">
        <ele>23</ele>
        <time>2019-07-17T16:08:06Z</time>
      </trkpt>
      <trkpt lat="47.84096" lon="-3.53472">
        <ele>23</ele>
        <time>2019-07-17T16:08:07Z</time>
      </trkpt>
      <trkpt lat="47.84098" lon="-3.5347">
        <ele>23</ele>
        <time>2019-07-17T16:08:08Z</time>
      </trkpt>
      <trkpt lat="47.841" lon="-3.53469">
        <ele>23</ele>
        <time>2019-07-17T16:08:09Z</time>
      </trkpt>
      <trkpt lat="47.84101" lon="-3.53469">
        <ele>23</ele>
        <time>2019-07-17T16:08:10Z</time>
      </trkpt>
      <trkpt lat="47.84102" lon="-3.53469">
        <ele>23</ele>
        <time>2019-07-17T16:08:11Z</time>
      </trkpt>
      <trkpt lat="47.84104" lon="-3.53468">
        <ele>23</ele>
        <time>2019-07-17T16:08:12Z</time>
      </trkpt>
      <trkpt lat="47.84105" lon="-3.53467">
        <ele>23</ele>
        <time>2019-07-17T16:08:13Z</time>
      </trkpt>
      <trkpt lat="47.84107" lon="-3.53467">
        <ele>24</ele>
        <time>2019-07-17T16:08:14Z</time>
      </trkpt>
      <trkpt lat="47.84109" lon="-3.53467">
        <ele>24</ele>
        <time>2019-07-17T16:08:15Z</time>
      </trkpt>
      <trkpt lat="47.8411" lon="-3.53466">
        <ele>24</ele>
        <time>2019-07-17T16:08:16Z</time>
      </trkpt>
      <trkpt lat="47.84111" lon="-3.53466">
        <ele>24</ele>
        <time>2019-07-17T16:08:17Z</time>
      </trkpt>
      <trkpt lat="47.84113" lon="-3.53466">
        <ele>24</ele>
        <time>2019-07-17T16:08:18Z</time>
      </trkpt>
      <trkpt lat="47.84115" lon="-3.53465">
        <ele>24</ele>
        <time>2019-07-17T16:08:19Z</time>
      </trkpt>
      <trkpt lat="47.84117" lon="-3.53464">
        <ele>24</ele>
        <time>2019-07-17T16:08:20Z</time>
      </trkpt>
      <trkpt lat="47.8412" lon="-3.53464">
        <ele>24</ele>
        <time>2019-07-17T16:08:21Z</time>
      </trkpt>
      <trkpt lat="47.84124" lon="-3.53464">
        <ele>25</ele>
        <time>2019-07-17T16:08:22Z</time>
      </trkpt>
      <trkpt lat="47.84128" lon="-3.53464">
        <ele>25</ele>
        <time>2019-07-17T16:08:23Z</time>
      </trkpt>
      <trkpt lat="47.84131" lon="-3.53464">
        <ele>25</ele>
        <time>2019-07-17T16:08:24Z</time>
      </trkpt>
      <trkpt lat="47.84135" lon="-3.53463">
        <ele>25</ele>
        <time>2019-07-17T16:08:25Z</time>
      </trkpt>
      <trkpt lat="47.84138" lon="-3.53462">
        <ele>25</ele>
        <time>2019-07-17T16:08:26Z</time>
      </trkpt>
      <trkpt lat="47.84143" lon="-3.53462">
        <ele>25</ele>
        <time>2019-07-17T16:08:27Z</time>
      </trkpt>
      <trkpt lat="47.84147" lon="-3.53461">
        <ele>25</ele>
        <time>2019-07-17T16:08:28Z</time>
      </trkpt>
      <trkpt lat="47.84153" lon="-3.5346">
        <ele>25</ele>
        <time>2019-07-17T16:08:29Z</time>
      </trkpt>
      <trkpt lat="47.84159" lon="-3.53457">
        <ele>25</ele>
        <time>2019-07-17T16:08:30Z</time>
      </trkpt>
      <trkpt lat="47.84166" lon="-3.53455">
        <ele>26</ele>
        <time>2019-07-17T16:08:31Z</time>
      </trkpt>
      <trkpt lat="47.84172" lon="-3.53453">
        <ele>26</ele>
        <time>2019-07-17T16:08:32Z</time>
      </trkpt>
      <trkpt lat="47.84179" lon="-3.5345">
        <ele>26</ele>
        <time>2019-07-17T16:08:33Z</time>
      </trkpt>
      <trkpt lat="47.84186" lon="-3.53447">
        <ele>26</ele>
        <time>2019-07-17T16:08:34Z</time>
      </trkpt>
      <trkpt lat="47.84193" lon="-3.53444">
        <ele>26</ele>
        <time>2019-07-17T16:08:35Z</time>
      </trkpt>
      <trkpt lat="47.842" lon="-3.5344">
        <ele>27</ele>
        <time>2019-07-17T16:08:36Z</time>
      </trkpt>
      <trkpt lat="47.84206" lon="-3.53434">
        <ele>27</ele>
        <time>2019-07-17T16:08:37Z</time>
      </trkpt>
      <trkpt lat="47.84212" lon="-3.53429">
        <ele>27</ele>
        <time>2019-07-17T16:08:38Z</time>
      </trkpt>
      <trkpt lat="47.84219" lon="-3.53423">
        <ele>27</ele>
        <time>2019-07-17T16:08:39Z</time>
      </trkpt>
      <trkpt lat="47.84225" lon="-3.53416">
        <ele>27</ele>
        <time>2019-07-17T16:08:40Z</time>
      </trkpt>
      <trkpt lat="47.84232" lon="-3.53409">
        <ele>27</ele>
        <time>2019-07-17T16:08:41Z</time>
      </trkpt>
      <trkpt lat="47.84239" lon="-3.53402">
        <ele>27</ele>
        <time>2019-07-17T16:08:42Z</time>
      </trkpt>
      <trkpt lat="47.84245" lon="-3.53392">
        <ele>27</ele>
        <time>2019-07-17T16:08:43Z</time>
      </trkpt>
      <trkpt lat="47.84251" lon="-3.53381">
        <ele>27</ele>
        <time>2019-07-17T16:08:44Z</time>
      </trkpt>
      <trkpt lat="47.84256" lon="-3.53369">
        <ele>27</ele>
        <time>2019-07-17T16:08:45Z</time>
      </trkpt>
      <trkpt lat="47.84262" lon="-3.53359">
        <ele>27</ele>
        <time>2019-07-17T16:08:46Z</time>
      </trkpt>
      <trkpt lat="47.84269" lon="-3.53349">
        <ele>27</ele>
        <time>2019-07-17T16:08:47Z</time>
      </trkpt>
      <trkpt lat="47.84276" lon="-3.53339">
        <ele>27</ele>
        <time>2019-07-17T16:08:48Z</time>
      </trkpt>
      <trkpt lat="47.84282" lon="-3.53328">
        <ele>27</ele>
        <time>2019-07-17T16:08:49Z</time>
      </trkpt>
      <trkpt lat="47.84289" lon="-3.53318">
        <ele>27</ele>
        <time>2019-07-17T16:08:50Z</time>
      </trkpt>
      <trkpt lat="47.84296" lon="-3.53307">
        <ele>27</ele>
        <time>2019-07-17T16:08:51Z</time>
      </trkpt>
      <trkpt lat="47.84304" lon="-3.53297">
        <ele>27</ele>
        <time>2019-07-17T16:08:52Z</time>
      </trkpt>
      <trkpt lat="47.84313" lon="-3.53288">
        <ele>27</ele>
        <time>2019-07-17T16:08:53Z</time>
      </trkpt>
      <trkpt lat="47.84322" lon="-3.5328">
        <ele>27</ele>
        <time>2019-07-17T16:08:54Z</time>
      </trkpt>
      <trkpt lat="47.8433" lon="-3.53274">
        <ele>26</ele>
        <time>2019-07-17T16:08:55Z</time>
      </trkpt>
      <trkpt lat="47.84338" lon="-3.53267">
        <ele>26</ele>
        <time>2019-07-17T16:08:56Z</time>
      </trkpt>
      <trkpt lat="47.84346" lon="-3.53263">
        <ele>26</ele>
        <time>2019-07-17T16:08:57Z</time>
      </trkpt>
      <trkpt lat="47.84354" lon="-3.53259">
        <ele>26</ele>
        <time>2019-07-17T16:08:58Z</time>
      </trkpt>
      <trkpt lat="47.84362" lon="-3.53255">
        <ele>26</ele>
        <time>2019-07-17T16:08:59Z</time>
      </trkpt>
      <trkpt lat="47.8437" lon="-3.53251">
        <ele>25</ele>
        <time>2019-07-17T16:09:00Z</time>
      </trkpt>
      <trkpt lat="47.84379" lon="-3.53246">
        <ele>25</ele>
        <time>2019-07-17T16:09:01Z</time>
      </trkpt>
      <trkpt lat="47.84387" lon="-3.5324">
        <ele>25</ele>
        <time>2019-07-17T16:09:02Z</time>
      </trkpt>
      <trkpt lat="47.84394" lon="-3.53236">
        <ele>25</ele>
        <time>2019-07-17T16:09:03Z</time>
      </trkpt>
      <trkpt lat="47.84402" lon="-3.53231">
        <ele>24</ele>
        <time>2019-07-17T16:09:04Z</time>
      </trkpt>
      <trkpt lat="47.84408" lon="-3.53228">
        <ele>24</ele>
        <time>2019-07-17T16:09:05Z</time>
      </trkpt>
      <trkpt lat="47.84413" lon="-3.53226">
        <ele>24</ele>
        <time>2019-07-17T16:09:06Z</time>
      </trkpt>
      <trkpt lat="47.84418" lon="-3.53222">
        <ele>24</ele>
        <time>2019-07-17T16:09:07Z</time>
      </trkpt>
      <trkpt lat="47.84421" lon="-3.53217">
        <ele>23</ele>
        <time>2019-07-17T16:09:08Z</time>
      </trkpt>
      <trkpt lat="47.84424" lon="-3.53213">
        <ele>23</ele>
        <time>2019-07-17T16:09:09Z</time>
      </trkpt>
      <trkpt lat="47.84427" lon="-3.53209">
        <ele>22</ele>
        <time>2019-07-17T16:09:10Z</time>
      </trkpt>
      <trkpt lat="47.8443" lon="-3.53204">
        <ele>22</ele>
        <time>2019-07-17T16:09:11Z</time>
      </trkpt>
      <trkpt lat="47.84432" lon="-3.53197">
        <ele>21</ele>
        <time>2019-07-17T16:09:12Z</time>
      </trkpt>
      <trkpt lat="47.84436" lon="-3.53191">
        <ele>20</ele>
        <time>2019-07-17T16:09:13Z</time>
      </trkpt>
      <trkpt lat="47.84438" lon="-3.53185">
        <ele>20</ele>
        <time>2019-07-17T16:09:14Z</time>
      </trkpt>
      <trkpt lat="47.8444" lon="-3.53178">
        <ele>19</ele>
        <time>2019-07-17T16:09:15Z</time>
      </trkpt>
      <trkpt lat="47.84442" lon="-3.53172">
        <ele>19</ele>
        <time>2019-07-17T16:09:16Z</time>
      </trkpt>
      <trkpt lat="47.84443" lon="-3.53167">
        <ele>19</ele>
        <time>2019-07-17T16:09:17Z</time>
      </trkpt>
      <trkpt lat="47.84445" lon="-3.53161">
        <ele>18</ele>
        <time>2019-07-17T16:09:18Z</time>
      </trkpt>
      <trkpt lat="47.84446" lon="-3.53158">
        <ele>18</ele>
        <time>2019-07-17T16:09:19Z</time>
      </trkpt>
      <trkpt lat="47.84447" lon="-3.53155">
        <ele>18</ele>
        <time>2019-07-17T16:09:20Z</time>
      </trkpt>
      <trkpt lat="47.84448" lon="-3.53152">
        <ele>18</ele>
        <time>2019-07-17T16:09:21Z</time>
      </trkpt>
      <trkpt lat="47.84449" lon="-3.53149">
        <ele>17</ele>
        <time>2019-07-17T16:09:22Z</time>
      </trkpt>
      <trkpt lat="47.8445" lon="-3.53146">
        <ele>17</ele>
        <time>2019-07-17T16:09:23Z</time>
      </trkpt>
      <trkpt lat="47.84452" lon="-3.53143">
        <ele>16</ele>
        <time>2019-07-17T16:09:24Z</time>
      </trkpt>
      <trkpt lat="47.84452" lon="-3.5314">
        <ele>16</ele>
        <time>2019-07-17T16:09:25Z</time>
      </trkpt>
      <trkpt lat="47.84453" lon="-3.53137">
        <ele>16</ele>
        <time>2019-07-17T16:09:26Z</time>
      </trkpt>
      <trkpt lat="47.84455" lon="-3.53135">
        <ele>15</ele>
        <time>2019-07-17T16:09:27Z</time>
      </trkpt>
      <trkpt lat="47.84456" lon="-3.53133">
        <ele>15</ele>
        <time>2019-07-17T16:09:28Z</time>
      </trkpt>
      <trkpt lat="47.84457" lon="-3.53131">
        <ele>15</ele>
        <time>2019-07-17T16:09:29Z</time>
      </trkpt>
      <trkpt lat="47.84458" lon="-3.53129">
        <ele>14</ele>
        <time>2019-07-17T16:09:30Z</time>
      </trkpt>
      <trkpt lat="47.84459" lon="-3.53127">
        <ele>14</ele>
        <time>2019-07-17T16:09:31Z</time>
      </trkpt>
      <trkpt lat="47.84461" lon="-3.53124">
        <ele>14</ele>
        <time>2019-07-17T16:09:32Z</time>
      </trkpt>
      <trkpt lat="47.84462" lon="-3.53122">
        <ele>14</ele>
        <time>2019-07-17T16:09:33Z</time>
      </trkpt>
      <trkpt lat="47.84463" lon="-3.53121">
        <ele>14</ele>
        <time>2019-07-17T16:09:34Z</time>
      </trkpt>
      <trkpt lat="47.84464" lon="-3.53119">
        <ele>14</ele>
        <time>2019-07-17T16:09:35Z</time>
      </trkpt>
      <trkpt lat="47.84465" lon="-3.53117">
        <ele>14</ele>
        <time>2019-07-17T16:09:36Z</time>
      </trkpt>
      <trkpt lat="47.84466" lon="-3.53115">
        <ele>14</ele>
        <time>2019-07-17T16:09:37Z</time>
      </trkpt>
      <trkpt lat="47.84467" lon="-3.53113">
        <ele>14</ele>
        <time>2019-07-17T16:09:38Z</time>
      </trkpt>
      <trkpt lat="47.84468" lon="-3.53112">
        <ele>14</ele>
        <time>2019-07-17T16:09:39Z</time>
      </trkpt>
      <trkpt lat="47.84469" lon="-3.53111">
        <ele>14</ele>
        <time>2019-07-17T16:09:40Z</time>
      </trkpt>
      <trkpt lat="47.84471" lon="-3.5311">
        <ele>14</ele>
        <time>2019-07-17T16:09:41Z</time>
      </trkpt>
      <trkpt lat="47.84472" lon="-3.53109">
        <ele>14</ele>
        <time>2019-07-17T16:09:42Z</time>
      </trkpt>
      <trkpt lat="47.84474" lon="-3.53109">
        <ele>14</ele>
        <time>2019-07-17T16:09:43Z</time>
      </trkpt>
      <trkpt lat="47.84476" lon="-3.53109">
        <ele>14</ele>
        <time>2019-07-17T16:09:44Z</time>
      </trkpt>
      <trkpt lat="47.84478" lon="-3.5311">
        <ele>14</ele>
        <time>2019-07-17T16:09:45Z</time>
      </trkpt>
      <trkpt lat="47.8448" lon="-3.53111">
        <ele>14</ele>
        <time>2019-07-17T16:09:46Z</time>
      </trkpt>
      <trkpt lat="47.84482" lon="-3.53111">
        <ele>15</ele>
        <time>2019-07-17T16:09:47Z</time>
      </trkpt>
      <trkpt lat="47.84484" lon="-3.53112">
        <ele>15</ele>
        <time>2019-07-17T16:09:48Z</time>
      </trkpt>
      <trkpt lat="47.84485" lon="-3.53112">
        <ele>15</ele>
        <time>2019-07-17T16:09:49Z</time>
      </trkpt>
      <trkpt lat="47.84487" lon="-3.53112">
        <ele>15</ele>
        <time>2019-07-17T16:09:50Z</time>
      </trkpt>
      <trkpt lat="47.84488" lon="-3.53113">
        <ele>15</ele>
        <time>2019-07-17T16:09:51Z</time>
      </trkpt>
      <trkpt lat="47.84491" lon="-3.53114">
        <ele>15</ele>
        <time>2019-07-17T16:09:52Z</time>
      </trkpt>
      <trkpt lat="47.84492" lon="-3.53115">
        <ele>15</ele>
        <time>2019-07-17T16:09:53Z</time>
      </trkpt>
      <trkpt lat="47.84494" lon="-3.53116">
        <ele>16</ele>
        <time>2019-07-17T16:09:54Z</time>
      </trkpt>
      <trkpt lat="47.84496" lon="-3.53116">
        <ele>16</ele>
        <time>2019-07-17T16:09:55Z</time>
      </trkpt>
      <trkpt lat="47.84497" lon="-3.53117">
        <ele>16</ele>
        <time>2019-07-17T16:09:56Z</time>
      </trkpt>
      <trkpt lat="47.84498" lon="-3.53118">
        <ele>16</ele>
        <time>2019-07-17T16:09:57Z</time>
      </trkpt>
      <trkpt lat="47.84501" lon="-3.53119">
        <ele>16</ele>
        <time>2019-07-17T16:09:58Z</time>
      </trkpt>
      <trkpt lat="47.84504" lon="-3.53121">
        <ele>16</ele>
        <time>2019-07-17T16:09:59Z</time>
      </trkpt>
      <trkpt lat="47.84507" lon="-3.53122">
        <ele>16</ele>
        <time>2019-07-17T16:10:00Z</time>
      </trkpt>
      <trkpt lat="47.8451" lon="-3.53122">
        <ele>17</ele>
        <time>2019-07-17T16:10:01Z</time>
      </trkpt>
      <trkpt lat="47.84512" lon="-3.53124">
        <ele>17</ele>
        <time>2019-07-17T16:10:02Z</time>
      </trkpt>
      <trkpt lat="47.84515" lon="-3.53126">
        <ele>17</ele>
        <time>2019-07-17T16:10:03Z</time>
      </trkpt>
      <trkpt lat="47.84518" lon="-3.53127">
        <ele>17</ele>
        <time>2019-07-17T16:10:04Z</time>
      </trkpt>
      <trkpt lat="47.84522" lon="-3.53129">
        <ele>18</ele>
        <time>2019-07-17T16:10:05Z</time>
      </trkpt>
      <trkpt lat="47.84525" lon="-3.53131">
        <ele>18</ele>
        <time>2019-07-17T16:10:06Z</time>
      </trkpt>
      <trkpt lat="47.84528" lon="-3.53131">
        <ele>18</ele>
        <time>2019-07-17T16:10:07Z</time>
      </trkpt>
      <trkpt lat="47.8453" lon="-3.53132">
        <ele>19</ele>
        <time>2019-07-17T16:10:08Z</time>
      </trkpt>
      <trkpt lat="47.84532" lon="-3.53134">
        <ele>19</ele>
        <time>2019-07-17T16:10:09Z</time>
      </trkpt>
      <trkpt lat="47.84534" lon="-3.53135">
        <ele>20</ele>
        <time>2019-07-17T16:10:10Z</time>
      </trkpt>
      <trkpt lat="47.84537" lon="-3.53137">
        <ele>20</ele>
        <time>2019-07-17T16:10:11Z</time>
      </trkpt>
      <trkpt lat="47.8454" lon="-3.53138">
        <ele>20</ele>
        <time>2019-07-17T16:10:12Z</time>
      </trkpt>
      <trkpt lat="47.84543" lon="-3.53139">
        <ele>21</ele>
        <time>2019-07-17T16:10:13Z</time>
      </trkpt>
      <trkpt lat="47.84546" lon="-3.53141">
        <ele>21</ele>
        <time>2019-07-17T16:10:14Z</time>
      </trkpt>
      <trkpt lat="47.84549" lon="-3.53142">
        <ele>21</ele>
        <time>2019-07-17T16:10:15Z</time>
      </trkpt>
      <trkpt lat="47.84553" lon="-3.53144">
        <ele>21</ele>
        <time>2019-07-17T16:10:16Z</time>
      </trkpt>
      <trkpt lat="47.84557" lon="-3.53145">
        <ele>22</ele>
        <time>2019-07-17T16:10:17Z</time>
      </trkpt>
      <trkpt lat="47.84561" lon="-3.53147">
        <ele>22</ele>
        <time>2019-07-17T16:10:18Z</time>
      </trkpt>
      <trkpt lat="47.84566" lon="-3.53149">
        <ele>22</ele>
        <time>2019-07-17T16:10:19Z</time>
      </trkpt>
      <trkpt lat="47.8457" lon="-3.53151">
        <ele>22</ele>
        <time>2019-07-17T16:10:20Z</time>
      </trkpt>
      <trkpt lat="47.84574" lon="-3.53153">
        <ele>22</ele>
        <time>2019-07-17T16:10:21Z</time>
      </trkpt>
      <trkpt lat="47.84578" lon="-3.53156">
        <ele>22</ele>
        <time>2019-07-17T16:10:22Z</time>
      </trkpt>
      <trkpt lat="47.84582" lon="-3.53158">
        <ele>23</ele>
        <time>2019-07-17T16:10:23Z</time>
      </trkpt>
      <trkpt lat="47.84587" lon="-3.5316">
        <ele>23</ele>
        <time>2019-07-17T16:10:24Z</time>
      </trkpt>
      <trkpt lat="47.84591" lon="-3.53162">
        <ele>23</ele>
        <time>2019-07-17T16:10:25Z</time>
      </trkpt>
      <trkpt lat="47.84595" lon="-3.53163">
        <ele>23</ele>
        <time>2019-07-17T16:10:26Z</time>
      </trkpt>
      <trkpt lat="47.84599" lon="-3.53165">
        <ele>23</ele>
        <time>2019-07-17T16:10:27Z</time>
      </trkpt>
      <trkpt lat="47.84602" lon="-3.53168">
        <ele>23</ele>
        <time>2019-07-17T16:10:28Z</time>
      </trkpt>
      <trkpt lat="47.84605" lon="-3.5317">
        <ele>23</ele>
        <time>2019-07-17T16:10:29Z</time>
      </trkpt>
      <trkpt lat="47.84607" lon="-3.53172">
        <ele>23</ele>
        <time>2019-07-17T16:10:30Z</time>
      </trkpt>
      <trkpt lat="47.8461" lon="-3.53174">
        <ele>23</ele>
        <time>2019-07-17T16:10:31Z</time>
      </trkpt>
      <trkpt lat="47.84614" lon="-3.53176">
        <ele>23</ele>
        <time>2019-07-17T16:10:32Z</time>
      </trkpt>
      <trkpt lat="47.84618" lon="-3.53178">
        <ele>23</ele>
        <time>2019-07-17T16:10:33Z</time>
      </trkpt>
      <trkpt lat="47.84621" lon="-3.5318">
        <ele>23</ele>
        <time>2019-07-17T16:10:34Z</time>
      </trkpt>
      <trkpt lat="47.84625" lon="-3.53181">
        <ele>23</ele>
        <time>2019-07-17T16:10:35Z</time>
      </trkpt>
      <trkpt lat="47.84628" lon="-3.53184">
        <ele>23</ele>
        <time>2019-07-17T16:10:36Z</time>
      </trkpt>
      <trkpt lat="47.84632" lon="-3.53186">
        <ele>23</ele>
        <time>2019-07-17T16:10:37Z</time>
      </trkpt>
      <trkpt lat="47.84636" lon="-3.53188">
        <ele>23</ele>
        <time>2019-07-17T16:10:38Z</time>
      </trkpt>
      <trkpt lat="47.84639" lon="-3.5319">
        <ele>23</ele>
        <time>2019-07-17T16:10:39Z</time>
      </trkpt>
      <trkpt lat="47.84643" lon="-3.53192">
        <ele>23</ele>
        <time>2019-07-17T16:10:40Z</time>
      </trkpt>
      <trkpt lat="47.84646" lon="-3.53195">
        <ele>23</ele>
        <time>2019-07-17T16:10:41Z</time>
      </trkpt>
      <trkpt lat="47.8465" lon="-3.53196">
        <ele>23</ele>
        <time>2019-07-17T16:10:42Z</time>
      </trkpt>
      <trkpt lat="47.84654" lon="-3.53198">
        <ele>23</ele>
        <time>2019-07-17T16:10:43Z</time>
      </trkpt>
      <trkpt lat="47.84659" lon="-3.532">
        <ele>23</ele>
        <time>2019-07-17T16:10:44Z</time>
      </trkpt>
      <trkpt lat="47.84663" lon="-3.53202">
        <ele>23</ele>
        <time>2019-07-17T16:10:45Z</time>
      </trkpt>
      <trkpt lat="47.84666" lon="-3.53203">
        <ele>23</ele>
        <time>2019-07-17T16:10:46Z</time>
      </trkpt>
      <trkpt lat="47.84669" lon="-3.53204">
        <ele>23</ele>
        <time>2019-07-17T16:10:47Z</time>
      </trkpt>
      <trkpt lat="47.84672" lon="-3.53205">
        <ele>23</ele>
        <time>2019-07-17T16:10:48Z</time>
      </trkpt>
      <trkpt lat="47.84675" lon="-3.53206">
        <ele>23</ele>
        <time>2019-07-17T16:10:49Z</time>
      </trkpt>
      <trkpt lat="47.84679" lon="-3.53207">
        <ele>23</ele>
        <time>2019-07-17T16:10:50Z</time>
      </trkpt>
      <trkpt lat="47.84681" lon="-3.53207">
        <ele>23</ele>
        <time>2019-07-17T16:10:51Z</time>
      </trkpt>
      <trkpt lat="47.84682" lon="-3.53208">
        <ele>22</ele>
        <time>2019-07-17T16:10:52Z</time>
      </trkpt>
      <trkpt lat="47.84684" lon="-3.53208">
        <ele>22</ele>
        <time>2019-07-17T16:10:53Z</time>
      </trkpt>
      <trkpt lat="47.84685" lon="-3.53208">
        <ele>22</ele>
        <time>2019-07-17T16:10:54Z</time>
      </trkpt>
      <trkpt lat="47.84685" lon="-3.53208">
        <ele>22</ele>
        <time>2019-07-17T16:10:55Z</time>
      </trkpt>
      <trkpt lat="47.84686" lon="-3.53209">
        <ele>22</ele>
        <time>2019-07-17T16:10:56Z</time>
      </trkpt>
      <trkpt lat="47.84687" lon="-3.53209">
        <ele>22</ele>
        <time>2019-07-17T16:10:57Z</time>
      </trkpt>
      <trkpt lat="47.84688" lon="-3.53209">
        <ele>22</ele>
        <time>2019-07-17T16:10:58Z</time>
      </trkpt>
      <trkpt lat="47.84688" lon="-3.5321">
        <ele>22</ele>
        <time>2019-07-17T16:10:59Z</time>
      </trkpt>
      <trkpt lat="47.84689" lon="-3.5321">
        <ele>22</ele>
        <time>2019-07-17T16:11:00Z</time>
      </trkpt>
      <trkpt lat="47.8469" lon="-3.5321">
        <ele>22</ele>
        <time>2019-07-17T16:11:01Z</time>
      </trkpt>
      <trkpt lat="47.8469" lon="-3.5321">
        <ele>22</ele>
        <time>2019-07-17T16:11:02Z</time>
      </trkpt>
      <trkpt lat="47.84691" lon="-3.5321">
        <ele>22</ele>
        <time>2019-07-17T16:11:03Z</time>
      </trkpt>
      <trkpt lat="47.847" lon="-3.53211">
        <ele>22</ele>
        <time>2019-07-17T16:11:04Z</time>
      </trkpt>
      <trkpt lat="47.84702" lon="-3.53212">
        <ele>22</ele>
        <time>2019-07-17T16:11:05Z</time>
      </trkpt>
      <trkpt lat="47.84703" lon="-3.53212">
        <ele>22</ele>
        <time>2019-07-17T16:11:06Z</time>
      </trkpt>
      <trkpt lat="47.84705" lon="-3.53211">
        <ele>22</ele>
        <time>2019-07-17T16:11:07Z</time>
      </trkpt>
      <trkpt lat="47.84707" lon="-3.53211">
        <ele>22</ele>
        <time>2019-07-17T16:11:08Z</time>
      </trkpt>
      <trkpt lat="47.84709" lon="-3.53211">
        <ele>23</ele>
        <time>2019-07-17T16:11:09Z</time>
      </trkpt>
      <trkpt lat="47.8471" lon="-3.53211">
        <ele>23</ele>
        <time>2019-07-17T16:11:10Z</time>
      </trkpt>
      <trkpt lat="47.84711" lon="-3.53211">
        <ele>23</ele>
        <time>2019-07-17T16:11:11Z</time>
      </trkpt>
      <trkpt lat="47.84712" lon="-3.53211">
        <ele>23</ele>
        <time>2019-07-17T16:11:12Z</time>
      </trkpt>
      <trkpt lat="47.84714" lon="-3.53211">
        <ele>23</ele>
        <time>2019-07-17T16:11:13Z</time>
      </trkpt>
      <trkpt lat="47.84716" lon="-3.53211">
        <ele>23</ele>
        <time>2019-07-17T16:11:14Z</time>
      </trkpt>
      <trkpt lat="47.84718" lon="-3.53211">
        <ele>24</ele>
        <time>2019-07-17T16:11:15Z</time>
      </trkpt>
      <trkpt lat="47.84719" lon="-3.53212">
        <ele>24</ele>
        <time>2019-07-17T16:11:16Z</time>
      </trkpt>
      <trkpt lat="47.84721" lon="-3.53212">
        <ele>24</ele>
        <time>2019-07-17T16:11:17Z</time>
      </trkpt>
      <trkpt lat="47.84722" lon="-3.53212">
        <ele>24</ele>
        <time>2019-07-17T16:11:18Z</time>
      </trkpt>
      <trkpt lat="47.84724" lon="-3.53211">
        <ele>24</ele>
        <time>2019-07-17T16:11:19Z</time>
      </trkpt>
      <trkpt lat="47.84725" lon="-3.5321">
        <ele>24</ele>
        <time>2019-07-17T16:11:20Z</time>
      </trkpt>
      <trkpt lat="47.84728" lon="-3.5321">
        <ele>24</ele>
        <time>2019-07-17T16:11:21Z</time>
      </trkpt>
      <trkpt lat="47.84729" lon="-3.53209">
        <ele>24</ele>
        <time>2019-07-17T16:11:22Z</time>
      </trkpt>
      <trkpt lat="47.8473" lon="-3.53209">
        <ele>24</ele>
        <time>2019-07-17T16:11:23Z</time>
      </trkpt>
      <trkpt lat="47.84731" lon="-3.53209">
        <ele>24</ele>
        <time>2019-07-17T16:11:24Z</time>
      </trkpt>
      <trkpt lat="47.84732" lon="-3.53209">
        <ele>25</ele>
        <time>2019-07-17T16:11:25Z</time>
      </trkpt>
      <trkpt lat="47.84752" lon="-3.5321">
        <ele>27</ele>
        <time>2019-07-17T16:11:26Z</time>
      </trkpt>
      <trkpt lat="47.84754" lon="-3.5321">
        <ele>27</ele>
        <time>2019-07-17T16:11:27Z</time>
      </trkpt>
      <trkpt lat="47.84755" lon="-3.5321">
        <ele>26</ele>
        <time>2019-07-17T16:11:28Z</time>
      </trkpt>
      <trkpt lat="47.84756" lon="-3.5321">
        <ele>26</ele>
        <time>2019-07-17T16:11:29Z</time>
      </trkpt>
      <trkpt lat="47.84757" lon="-3.53211">
        <ele>26</ele>
        <time>2019-07-17T16:11:30Z</time>
      </trkpt>
      <trkpt lat="47.8476" lon="-3.53212">
        <ele>26</ele>
        <time>2019-07-17T16:11:31Z</time>
      </trkpt>
      <trkpt lat="47.84761" lon="-3.53213">
        <ele>26</ele>
        <time>2019-07-17T16:11:32Z</time>
      </trkpt>
      <trkpt lat="47.84764" lon="-3.53214">
        <ele>26</ele>
        <time>2019-07-17T16:11:33Z</time>
      </trkpt>
      <trkpt lat="47.84766" lon="-3.53215">
        <ele>26</ele>
        <time>2019-07-17T16:11:34Z</time>
      </trkpt>
      <trkpt lat="47.84768" lon="-3.53216">
        <ele>26</ele>
        <time>2019-07-17T16:11:35Z</time>
      </trkpt>
      <trkpt lat="47.8477" lon="-3.53217">
        <ele>26</ele>
        <time>2019-07-17T16:11:36Z</time>
      </trkpt>
      <trkpt lat="47.84772" lon="-3.53218">
        <ele>26</ele>
        <time>2019-07-17T16:11:37Z</time>
      </trkpt>
      <trkpt lat="47.84775" lon="-3.5322">
        <ele>26</ele>
        <time>2019-07-17T16:11:38Z</time>
      </trkpt>
      <trkpt lat="47.84778" lon="-3.53221">
        <ele>25</ele>
        <time>2019-07-17T16:11:39Z</time>
      </trkpt>
      <trkpt lat="47.84781" lon="-3.53223">
        <ele>25</ele>
        <time>2019-07-17T16:11:40Z</time>
      </trkpt>
      <trkpt lat="47.84784" lon="-3.53224">
        <ele>25</ele>
        <time>2019-07-17T16:11:41Z</time>
      </trkpt>
      <trkpt lat="47.84786" lon="-3.53226">
        <ele>25</ele>
        <time>2019-07-17T16:11:42Z</time>
      </trkpt>
      <trkpt lat="47.84789" lon="-3.53228">
        <ele>25</ele>
        <time>2019-07-17T16:11:43Z</time>
      </trkpt>
      <trkpt lat="47.84791" lon="-3.53231">
        <ele>25</ele>
        <time>2019-07-17T16:11:44Z</time>
      </trkpt>
      <trkpt lat="47.84793" lon="-3.53233">
        <ele>25</ele>
        <time>2019-07-17T16:11:45Z</time>
      </trkpt>
      <trkpt lat="47.84796" lon="-3.53236">
        <ele>25</ele>
        <time>2019-07-17T16:11:46Z</time>
      </trkpt>
      <trkpt lat="47.84799" lon="-3.53239">
        <ele>25</ele>
        <time>2019-07-17T16:11:47Z</time>
      </trkpt>
      <trkpt lat="47.84801" lon="-3.5324">
        <ele>25</ele>
        <time>2019-07-17T16:11:48Z</time>
      </trkpt>
      <trkpt lat="47.84805" lon="-3.53242">
        <ele>25</ele>
        <time>2019-07-17T16:11:49Z</time>
      </trkpt>
      <trkpt lat="47.84808" lon="-3.53244">
        <ele>25</ele>
        <time>2019-07-17T16:11:50Z</time>
      </trkpt>
      <trkpt lat="47.84811" lon="-3.53246">
        <ele>25</ele>
        <time>2019-07-17T16:11:51Z</time>
      </trkpt>
      <trkpt lat="47.84813" lon="-3.53249">
        <ele>25</ele>
        <time>2019-07-17T16:11:52Z</time>
      </trkpt>
      <trkpt lat="47.84816" lon="-3.53251">
        <ele>25</ele>
        <time>2019-07-17T16:11:53Z</time>
      </trkpt>
      <trkpt lat="47.84818" lon="-3.53253">
        <ele>26</ele>
        <time>2019-07-17T16:11:54Z</time>
      </trkpt>
      <trkpt lat="47.8482" lon="-3.53255">
        <ele>26</ele>
        <time>2019-07-17T16:11:55Z</time>
      </trkpt>
      <trkpt lat="47.84823" lon="-3.53257">
        <ele>26</ele>
        <time>2019-07-17T16:11:56Z</time>
      </trkpt>
      <trkpt lat="47.84826" lon="-3.5326">
        <ele>26</ele>
        <time>2019-07-17T16:11:57Z</time>
      </trkpt>
      <trkpt lat="47.84827" lon="-3.53263">
        <ele>26</ele>
        <time>2019-07-17T16:11:58Z</time>
      </trkpt>
      <trkpt lat="47.84829" lon="-3.53266">
        <ele>26</ele>
        <time>2019-07-17T16:11:59Z</time>
      </trkpt>
      <trkpt lat="47.84831" lon="-3.53269">
        <ele>27</ele>
        <time>2019-07-17T16:12:00Z</time>
      </trkpt>
      <trkpt lat="47.84833" lon="-3.53272">
        <ele>27</ele>
        <time>2019-07-17T16:12:01Z</time>
      </trkpt>
      <trkpt lat="47.84835" lon="-3.53274">
        <ele>27</ele>
        <time>2019-07-17T16:12:02Z</time>
      </trkpt>
      <trkpt lat="47.84837" lon="-3.53276">
        <ele>27</ele>
        <time>2019-07-17T16:12:03Z</time>
      </trkpt>
      <trkpt lat="47.84839" lon="-3.53279">
        <ele>28</ele>
        <time>2019-07-17T16:12:04Z</time>
      </trkpt>
      <trkpt lat="47.84839" lon="-3.53279">
        <ele>28</ele>
        <time>2019-07-17T16:12:06Z</time>
      </trkpt>
      <trkpt lat="47.84839" lon="-3.53279">
        <ele>28</ele>
        <time>2019-07-17T16:12:07Z</time>
      </trkpt>
      <trkpt lat="47.84848" lon="-3.53292">
        <ele>29</ele>
        <time>2019-07-17T16:12:08Z</time>
      </trkpt>
      <trkpt lat="47.84851" lon="-3.53296">
        <ele>29</ele>
        <time>2019-07-17T16:12:09Z</time>
      </trkpt>
      <trkpt lat="47.84853" lon="-3.53299">
        <ele>29</ele>
        <time>2019-07-17T16:12:10Z</time>
      </trkpt>
      <trkpt lat="47.84856" lon="-3.53303">
        <ele>29</ele>
        <time>2019-07-17T16:12:11Z</time>
      </trkpt>
      <trkpt lat="47.84859" lon="-3.53307">
        <ele>29</ele>
        <time>2019-07-17T16:12:12Z</time>
      </trkpt>
      <trkpt lat="47.84862" lon="-3.53311">
        <ele>30</ele>
        <time>2019-07-17T16:12:13Z</time>
      </trkpt>
      <trkpt lat="47.84864" lon="-3.53315">
        <ele>30</ele>
        <time>2019-07-17T16:12:14Z</time>
      </trkpt>
      <trkpt lat="47.84866" lon="-3.53319">
        <ele>30</ele>
        <time>2019-07-17T16:12:15Z</time>
      </trkpt>
      <trkpt lat="47.84868" lon="-3.53323">
        <ele>30</ele>
        <time>2019-07-17T16:12:16Z</time>
      </trkpt>
      <trkpt lat="47.84869" lon="-3.53326">
        <ele>30</ele>
        <time>2019-07-17T16:12:17Z</time>
      </trkpt>
      <trkpt lat="47.84871" lon="-3.53329">
        <ele>31</ele>
        <time>2019-07-17T16:12:18Z</time>
      </trkpt>
      <trkpt lat="47.84872" lon="-3.53332">
        <ele>31</ele>
        <time>2019-07-17T16:12:19Z</time>
      </trkpt>
      <trkpt lat="47.84875" lon="-3.53335">
        <ele>31</ele>
        <time>2019-07-17T16:12:20Z</time>
      </trkpt>
      <trkpt lat="47.84877" lon="-3.53339">
        <ele>32</ele>
        <time>2019-07-17T16:12:21Z</time>
      </trkpt>
      <trkpt lat="47.84878" lon="-3.53342">
        <ele>32</ele>
        <time>2019-07-17T16:12:22Z</time>
      </trkpt>
      <trkpt lat="47.84879" lon="-3.53347">
        <ele>33</ele>
        <time>2019-07-17T16:12:23Z</time>
      </trkpt>
      <trkpt lat="47.8488" lon="-3.53353">
        <ele>33</ele>
        <time>2019-07-17T16:12:24Z</time>
      </trkpt>
      <trkpt lat="47.84881" lon="-3.53358">
        <ele>33</ele>
        <time>2019-07-17T16:12:25Z</time>
      </trkpt>
      <trkpt lat="47.84882" lon="-3.53363">
        <ele>34</ele>
        <time>2019-07-17T16:12:26Z</time>
      </trkpt>
      <trkpt lat="47.84882" lon="-3.53367">
        <ele>35</ele>
        <time>2019-07-17T16:12:27Z</time>
      </trkpt>
      <trkpt lat="47.84882" lon="-3.53372">
        <ele>36</ele>
        <time>2019-07-17T16:12:28Z</time>
      </trkpt>
      <trkpt lat="47.84882" lon="-3.53377">
        <ele>37</ele>
        <time>2019-07-17T16:12:29Z</time>
      </trkpt>
      <trkpt lat="47.84882" lon="-3.53381">
        <ele>38</ele>
        <time>2019-07-17T16:12:30Z</time>
      </trkpt>
      <trkpt lat="47.84882" lon="-3.53384">
        <ele>39</ele>
        <time>2019-07-17T16:12:31Z</time>
      </trkpt>
      <trkpt lat="47.84883" lon="-3.53388">
        <ele>40</ele>
        <time>2019-07-17T16:12:32Z</time>
      </trkpt>
      <trkpt lat="47.84882" lon="-3.53392">
        <ele>40</ele>
        <time>2019-07-17T16:12:33Z</time>
      </trkpt>
      <trkpt lat="47.84882" lon="-3.53395">
        <ele>41</ele>
        <time>2019-07-17T16:12:34Z</time>
      </trkpt>
      <trkpt lat="47.84881" lon="-3.53398">
        <ele>42</ele>
        <time>2019-07-17T16:12:35Z</time>
      </trkpt>
      <trkpt lat="47.8488" lon="-3.53402">
        <ele>43</ele>
        <time>2019-07-17T16:12:36Z</time>
      </trkpt>
      <trkpt lat="47.84879" lon="-3.53407">
        <ele>43</ele>
        <time>2019-07-17T16:12:37Z</time>
      </trkpt>
      <trkpt lat="47.84878" lon="-3.53412">
        <ele>44</ele>
        <time>2019-07-17T16:12:38Z</time>
      </trkpt>
      <trkpt lat="47.84877" lon="-3.53416">
        <ele>45</ele>
        <time>2019-07-17T16:12:39Z</time>
      </trkpt>
      <trkpt lat="47.84875" lon="-3.53421">
        <ele>45</ele>
        <time>2019-07-17T16:12:40Z</time>
      </trkpt>
      <trkpt lat="47.84873" lon="-3.53426">
        <ele>46</ele>
        <time>2019-07-17T16:12:41Z</time>
      </trkpt>
      <trkpt lat="47.84872" lon="-3.53431">
        <ele>46</ele>
        <time>2019-07-17T16:12:42Z</time>
      </trkpt>
      <trkpt lat="47.84872" lon="-3.53435">
        <ele>46</ele>
        <time>2019-07-17T16:12:43Z</time>
      </trkpt>
      <trkpt lat="47.84872" lon="-3.5344">
        <ele>46</ele>
        <time>2019-07-17T16:12:44Z</time>
      </trkpt>
      <trkpt lat="47.84871" lon="-3.53445">
        <ele>46</ele>
        <time>2019-07-17T16:12:45Z</time>
      </trkpt>
      <trkpt lat="47.84871" lon="-3.53449">
        <ele>46</ele>
        <time>2019-07-17T16:12:46Z</time>
      </trkpt>
      <trkpt lat="47.84871" lon="-3.53451">
        <ele>46</ele>
        <time>2019-07-17T16:12:47Z</time>
      </trkpt>
      <trkpt lat="47.84872" lon="-3.53454">
        <ele>47</ele>
        <time>2019-07-17T16:12:48Z</time>
      </trkpt>
      <trkpt lat="47.84872" lon="-3.53456">
        <ele>47</ele>
        <time>2019-07-17T16:12:49Z</time>
      </trkpt>
      <trkpt lat="47.84873" lon="-3.53459">
        <ele>47</ele>
        <time>2019-07-17T16:12:50Z</time>
      </trkpt>
      <trkpt lat="47.84873" lon="-3.53462">
        <ele>47</ele>
        <time>2019-07-17T16:12:51Z</time>
      </trkpt>
      <trkpt lat="47.84874" lon="-3.53464">
        <ele>48</ele>
        <time>2019-07-17T16:12:52Z</time>
      </trkpt>
      <trkpt lat="47.84874" lon="-3.53467">
        <ele>48</ele>
        <time>2019-07-17T16:12:53Z</time>
      </trkpt>
      <trkpt lat="47.84875" lon="-3.5347">
        <ele>48</ele>
        <time>2019-07-17T16:12:54Z</time>
      </trkpt>
      <trkpt lat="47.84876" lon="-3.53473">
        <ele>48</ele>
        <time>2019-07-17T16:12:55Z</time>
      </trkpt>
      <trkpt lat="47.84876" lon="-3.53477">
        <ele>49</ele>
        <time>2019-07-17T16:12:56Z</time>
      </trkpt>
      <trkpt lat="47.84878" lon="-3.53481">
        <ele>49</ele>
        <time>2019-07-17T16:12:57Z</time>
      </trkpt>
      <trkpt lat="47.84879" lon="-3.53486">
        <ele>49</ele>
        <time>2019-07-17T16:12:58Z</time>
      </trkpt>
      <trkpt lat="47.8488" lon="-3.5349">
        <ele>49</ele>
        <time>2019-07-17T16:12:59Z</time>
      </trkpt>
      <trkpt lat="47.84881" lon="-3.53493">
        <ele>50</ele>
        <time>2019-07-17T16:13:00Z</time>
      </trkpt>
      <trkpt lat="47.84882" lon="-3.53498">
        <ele>50</ele>
        <time>2019-07-17T16:13:01Z</time>
      </trkpt>
      <trkpt lat="47.84884" lon="-3.53502">
        <ele>51</ele>
        <time>2019-07-17T16:13:02Z</time>
      </trkpt>
      <trkpt lat="47.84885" lon="-3.53506">
        <ele>51</ele>
        <time>2019-07-17T16:13:03Z</time>
      </trkpt>
      <trkpt lat="47.84887" lon="-3.53511">
        <ele>51</ele>
        <time>2019-07-17T16:13:04Z</time>
      </trkpt>
      <trkpt lat="47.84888" lon="-3.53515">
        <ele>51</ele>
        <time>2019-07-17T16:13:05Z</time>
      </trkpt>
      <trkpt lat="47.84889" lon="-3.53519">
        <ele>52</ele>
        <time>2019-07-17T16:13:06Z</time>
      </trkpt>
      <trkpt lat="47.8489" lon="-3.53523">
        <ele>52</ele>
        <time>2019-07-17T16:13:07Z</time>
      </trkpt>
      <trkpt lat="47.84892" lon="-3.53527">
        <ele>52</ele>
        <time>2019-07-17T16:13:08Z</time>
      </trkpt>
      <trkpt lat="47.84893" lon="-3.53532">
        <ele>52</ele>
        <time>2019-07-17T16:13:09Z</time>
      </trkpt>
      <trkpt lat="47.84894" lon="-3.53536">
        <ele>53</ele>
        <time>2019-07-17T16:13:10Z</time>
      </trkpt>
      <trkpt lat="47.84895" lon="-3.53539">
        <ele>53</ele>
        <time>2019-07-17T16:13:11Z</time>
      </trkpt>
      <trkpt lat="47.84896" lon="-3.53544">
        <ele>53</ele>
        <time>2019-07-17T16:13:12Z</time>
      </trkpt>
      <trkpt lat="47.84898" lon="-3.53548">
        <ele>53</ele>
        <time>2019-07-17T16:13:13Z</time>
      </trkpt>
      <trkpt lat="47.84898" lon="-3.53552">
        <ele>53</ele>
        <time>2019-07-17T16:13:14Z</time>
      </trkpt>
      <trkpt lat="47.849" lon="-3.53558">
        <ele>53</ele>
        <time>2019-07-17T16:13:15Z</time>
      </trkpt>
      <trkpt lat="47.84901" lon="-3.53564">
        <ele>53</ele>
        <time>2019-07-17T16:13:16Z</time>
      </trkpt>
      <trkpt lat="47.84902" lon="-3.53569">
        <ele>53</ele>
        <time>2019-07-17T16:13:17Z</time>
      </trkpt>
      <trkpt lat="47.84903" lon="-3.53575">
        <ele>53</ele>
        <time>2019-07-17T16:13:18Z</time>
      </trkpt>
      <trkpt lat="47.84904" lon="-3.53581">
        <ele>52</ele>
        <time>2019-07-17T16:13:19Z</time>
      </trkpt>
      <trkpt lat="47.84904" lon="-3.53587">
        <ele>52</ele>
        <time>2019-07-17T16:13:20Z</time>
      </trkpt>
      <trkpt lat="47.84904" lon="-3.53592">
        <ele>52</ele>
        <time>2019-07-17T16:13:21Z</time>
      </trkpt>
      <trkpt lat="47.84904" lon="-3.53597">
        <ele>52</ele>
        <time>2019-07-17T16:13:22Z</time>
      </trkpt>
      <trkpt lat="47.84904" lon="-3.53602">
        <ele>52</ele>
        <time>2019-07-17T16:13:23Z</time>
      </trkpt>
      <trkpt lat="47.84904" lon="-3.53607">
        <ele>52</ele>
        <time>2019-07-17T16:13:24Z</time>
      </trkpt>
      <trkpt lat="47.84904" lon="-3.53612">
        <ele>52</ele>
        <time>2019-07-17T16:13:25Z</time>
      </trkpt>
      <trkpt lat="47.84903" lon="-3.53617">
        <ele>53</ele>
        <time>2019-07-17T16:13:26Z</time>
      </trkpt>
      <trkpt lat="47.84902" lon="-3.53621">
        <ele>53</ele>
        <time>2019-07-17T16:13:27Z</time>
      </trkpt>
      <trkpt lat="47.84902" lon="-3.53625">
        <ele>53</ele>
        <time>2019-07-17T16:13:28Z</time>
      </trkpt>
      <trkpt lat="47.84902" lon="-3.53628">
        <ele>53</ele>
        <time>2019-07-17T16:13:29Z</time>
      </trkpt>
      <trkpt lat="47.84901" lon="-3.53632">
        <ele>54</ele>
        <time>2019-07-17T16:13:30Z</time>
      </trkpt>
      <trkpt lat="47.849" lon="-3.53636">
        <ele>54</ele>
        <time>2019-07-17T16:13:31Z</time>
      </trkpt>
      <trkpt lat="47.84898" lon="-3.53641">
        <ele>55</ele>
        <time>2019-07-17T16:13:32Z</time>
      </trkpt>
      <trkpt lat="47.84897" lon="-3.53645">
        <ele>55</ele>
        <time>2019-07-17T16:13:33Z</time>
      </trkpt>
      <trkpt lat="47.84896" lon="-3.5365">
        <ele>55</ele>
        <time>2019-07-17T16:13:34Z</time>
      </trkpt>
      <trkpt lat="47.84895" lon="-3.53654">
        <ele>56</ele>
        <time>2019-07-17T16:13:35Z</time>
      </trkpt>
      <trkpt lat="47.84894" lon="-3.53659">
        <ele>56</ele>
        <time>2019-07-17T16:13:36Z</time>
      </trkpt>
      <trkpt lat="47.84893" lon="-3.53663">
        <ele>56</ele>
        <time>2019-07-17T16:13:37Z</time>
      </trkpt>
      <trkpt lat="47.84892" lon="-3.53667">
        <ele>57</ele>
        <time>2019-07-17T16:13:38Z</time>
      </trkpt>
      <trkpt lat="47.84891" lon="-3.53672">
        <ele>57</ele>
        <time>2019-07-17T16:13:39Z</time>
      </trkpt>
      <trkpt lat="47.8489" lon="-3.53677">
        <ele>57</ele>
        <time>2019-07-17T16:13:40Z</time>
      </trkpt>
      <trkpt lat="47.84889" lon="-3.53681">
        <ele>58</ele>
        <time>2019-07-17T16:13:41Z</time>
      </trkpt>
      <trkpt lat="47.84888" lon="-3.53686">
        <ele>58</ele>
        <time>2019-07-17T16:13:42Z</time>
      </trkpt>
      <trkpt lat="47.84887" lon="-3.5369">
        <ele>58</ele>
        <time>2019-07-17T16:13:43Z</time>
      </trkpt>
      <trkpt lat="47.84886" lon="-3.53695">
        <ele>58</ele>
        <time>2019-07-17T16:13:44Z</time>
      </trkpt>
      <trkpt lat="47.84885" lon="-3.53699">
        <ele>59</ele>
        <time>2019-07-17T16:13:45Z</time>
      </trkpt>
      <trkpt lat="47.84885" lon="-3.53703">
        <ele>59</ele>
        <time>2019-07-17T16:13:46Z</time>
      </trkpt>
      <trkpt lat="47.84884" lon="-3.53707">
        <ele>59</ele>
        <time>2019-07-17T16:13:47Z</time>
      </trkpt>
      <trkpt lat="47.84883" lon="-3.53711">
        <ele>59</ele>
        <time>2019-07-17T16:13:48Z</time>
      </trkpt>
      <trkpt lat="47.84882" lon="-3.53715">
        <ele>60</ele>
        <time>2019-07-17T16:13:49Z</time>
      </trkpt>
      <trkpt lat="47.84882" lon="-3.53719">
        <ele>60</ele>
        <time>2019-07-17T16:13:50Z</time>
      </trkpt>
      <trkpt lat="47.84881" lon="-3.53722">
        <ele>60</ele>
        <time>2019-07-17T16:13:51Z</time>
      </trkpt>
      <trkpt lat="47.8488" lon="-3.53727">
        <ele>60</ele>
        <time>2019-07-17T16:13:52Z</time>
      </trkpt>
      <trkpt lat="47.84879" lon="-3.53732">
        <ele>61</ele>
        <time>2019-07-17T16:13:53Z</time>
      </trkpt>
      <trkpt lat="47.84878" lon="-3.53736">
        <ele>61</ele>
        <time>2019-07-17T16:13:54Z</time>
      </trkpt>
      <trkpt lat="47.84877" lon="-3.53741">
        <ele>61</ele>
        <time>2019-07-17T16:13:55Z</time>
      </trkpt>
      <trkpt lat="47.84876" lon="-3.53745">
        <ele>61</ele>
        <time>2019-07-17T16:13:56Z</time>
      </trkpt>
      <trkpt lat="47.84875" lon="-3.5375">
        <ele>61</ele>
        <time>2019-07-17T16:13:57Z</time>
      </trkpt>
      <trkpt lat="47.84873" lon="-3.53755">
        <ele>61</ele>
        <time>2019-07-17T16:13:58Z</time>
      </trkpt>
      <trkpt lat="47.84872" lon="-3.53761">
        <ele>62</ele>
        <time>2019-07-17T16:13:59Z</time>
      </trkpt>
      <trkpt lat="47.8487" lon="-3.53767">
        <ele>62</ele>
        <time>2019-07-17T16:14:00Z</time>
      </trkpt>
      <trkpt lat="47.84869" lon="-3.53773">
        <ele>62</ele>
        <time>2019-07-17T16:14:01Z</time>
      </trkpt>
      <trkpt lat="47.84867" lon="-3.53779">
        <ele>62</ele>
        <time>2019-07-17T16:14:02Z</time>
      </trkpt>
      <trkpt lat="47.84865" lon="-3.53785">
        <ele>62</ele>
        <time>2019-07-17T16:14:03Z</time>
      </trkpt>
      <trkpt lat="47.84863" lon="-3.53791">
        <ele>62</ele>
        <time>2019-07-17T16:14:04Z</time>
      </trkpt>
      <trkpt lat="47.84862" lon="-3.53796">
        <ele>62</ele>
        <time>2019-07-17T16:14:05Z</time>
      </trkpt>
      <trkpt lat="47.8486" lon="-3.53802">
        <ele>62</ele>
        <time>2019-07-17T16:14:06Z</time>
      </trkpt>
      <trkpt lat="47.8486" lon="-3.53808">
        <ele>62</ele>
        <time>2019-07-17T16:14:07Z</time>
      </trkpt>
      <trkpt lat="47.84859" lon="-3.53814">
        <ele>62</ele>
        <time>2019-07-17T16:14:08Z</time>
      </trkpt>
      <trkpt lat="47.84858" lon="-3.5382">
        <ele>62</ele>
        <time>2019-07-17T16:14:09Z</time>
      </trkpt>
      <trkpt lat="47.84856" lon="-3.53827">
        <ele>62</ele>
        <time>2019-07-17T16:14:10Z</time>
      </trkpt>
      <trkpt lat="47.84853" lon="-3.53833">
        <ele>62</ele>
        <time>2019-07-17T16:14:11Z</time>
      </trkpt>
      <trkpt lat="47.84849" lon="-3.53838">
        <ele>62</ele>
        <time>2019-07-17T16:14:12Z</time>
      </trkpt>
      <trkpt lat="47.84846" lon="-3.53844">
        <ele>62</ele>
        <time>2019-07-17T16:14:13Z</time>
      </trkpt>
      <trkpt lat="47.84842" lon="-3.53848">
        <ele>62</ele>
        <time>2019-07-17T16:14:14Z</time>
      </trkpt>
      <trkpt lat="47.84839" lon="-3.53853">
        <ele>62</ele>
        <time>2019-07-17T16:14:15Z</time>
      </trkpt>
      <trkpt lat="47.84835" lon="-3.53858">
        <ele>62</ele>
        <time>2019-07-17T16:14:16Z</time>
      </trkpt>
      <trkpt lat="47.84831" lon="-3.53863">
        <ele>62</ele>
        <time>2019-07-17T16:14:17Z</time>
      </trkpt>
      <trkpt lat="47.84828" lon="-3.53869">
        <ele>62</ele>
        <time>2019-07-17T16:14:18Z</time>
      </trkpt>
      <trkpt lat="47.84825" lon="-3.53874">
        <ele>62</ele>
        <time>2019-07-17T16:14:19Z</time>
      </trkpt>
      <trkpt lat="47.84822" lon="-3.53878">
        <ele>62</ele>
        <time>2019-07-17T16:14:20Z</time>
      </trkpt>
      <trkpt lat="47.84819" lon="-3.53884">
        <ele>62</ele>
        <time>2019-07-17T16:14:21Z</time>
      </trkpt>
      <trkpt lat="47.84816" lon="-3.5389">
        <ele>62</ele>
        <time>2019-07-17T16:14:22Z</time>
      </trkpt>
      <trkpt lat="47.84813" lon="-3.53896">
        <ele>63</ele>
        <time>2019-07-17T16:14:23Z</time>
      </trkpt>
      <trkpt lat="47.8481" lon="-3.53902">
        <ele>63</ele>
        <time>2019-07-17T16:14:24Z</time>
      </trkpt>
      <trkpt lat="47.84806" lon="-3.53909">
        <ele>63</ele>
        <time>2019-07-17T16:14:25Z</time>
      </trkpt>
      <trkpt lat="47.84804" lon="-3.53916">
        <ele>63</ele>
        <time>2019-07-17T16:14:26Z</time>
      </trkpt>
      <trkpt lat="47.848" lon="-3.53924">
        <ele>64</ele>
        <time>2019-07-17T16:14:27Z</time>
      </trkpt>
      <trkpt lat="47.84798" lon="-3.53931">
        <ele>64</ele>
        <time>2019-07-17T16:14:28Z</time>
      </trkpt>
      <trkpt lat="47.84795" lon="-3.53939">
        <ele>64</ele>
        <time>2019-07-17T16:14:29Z</time>
      </trkpt>
      <trkpt lat="47.84793" lon="-3.53947">
        <ele>64</ele>
        <time>2019-07-17T16:14:30Z</time>
      </trkpt>
      <trkpt lat="47.84791" lon="-3.53954">
        <ele>64</ele>
        <time>2019-07-17T16:14:31Z</time>
      </trkpt>
      <trkpt lat="47.84788" lon="-3.53962">
        <ele>64</ele>
        <time>2019-07-17T16:14:32Z</time>
      </trkpt>
      <trkpt lat="47.84786" lon="-3.53969">
        <ele>64</ele>
        <time>2019-07-17T16:14:33Z</time>
      </trkpt>
      <trkpt lat="47.84784" lon="-3.53976">
        <ele>64</ele>
        <time>2019-07-17T16:14:34Z</time>
      </trkpt>
      <trkpt lat="47.84782" lon="-3.53984">
        <ele>64</ele>
        <time>2019-07-17T16:14:35Z</time>
      </trkpt>
      <trkpt lat="47.84779" lon="-3.53992">
        <ele>65</ele>
        <time>2019-07-17T16:14:36Z</time>
      </trkpt>
      <trkpt lat="47.84777" lon="-3.54">
        <ele>65</ele>
        <time>2019-07-17T16:14:37Z</time>
      </trkpt>
      <trkpt lat="47.84773" lon="-3.54008">
        <ele>65</ele>
        <time>2019-07-17T16:14:38Z</time>
      </trkpt>
      <trkpt lat="47.84771" lon="-3.54015">
        <ele>65</ele>
        <time>2019-07-17T16:14:39Z</time>
      </trkpt>
      <trkpt lat="47.84769" lon="-3.54022">
        <ele>65</ele>
        <time>2019-07-17T16:14:40Z</time>
      </trkpt>
      <trkpt lat="47.84766" lon="-3.54031">
        <ele>65</ele>
        <time>2019-07-17T16:14:41Z</time>
      </trkpt>
      <trkpt lat="47.84764" lon="-3.54039">
        <ele>65</ele>
        <time>2019-07-17T16:14:42Z</time>
      </trkpt>
      <trkpt lat="47.84762" lon="-3.54047">
        <ele>65</ele>
        <time>2019-07-17T16:14:43Z</time>
      </trkpt>
      <trkpt lat="47.8476" lon="-3.54056">
        <ele>65</ele>
        <time>2019-07-17T16:14:44Z</time>
      </trkpt>
      <trkpt lat="47.84758" lon="-3.54065">
        <ele>65</ele>
        <time>2019-07-17T16:14:45Z</time>
      </trkpt>
      <trkpt lat="47.84757" lon="-3.54074">
        <ele>65</ele>
        <time>2019-07-17T16:14:46Z</time>
      </trkpt>
      <trkpt lat="47.84755" lon="-3.54084">
        <ele>65</ele>
        <time>2019-07-17T16:14:47Z</time>
      </trkpt>
      <trkpt lat="47.84753" lon="-3.54094">
        <ele>65</ele>
        <time>2019-07-17T16:14:48Z</time>
      </trkpt>
      <trkpt lat="47.84751" lon="-3.54103">
        <ele>64</ele>
        <time>2019-07-17T16:14:49Z</time>
      </trkpt>
      <trkpt lat="47.84748" lon="-3.54113">
        <ele>64</ele>
        <time>2019-07-17T16:14:50Z</time>
      </trkpt>
      <trkpt lat="47.84746" lon="-3.54123">
        <ele>64</ele>
        <time>2019-07-17T16:14:51Z</time>
      </trkpt>
      <trkpt lat="47.84744" lon="-3.54132">
        <ele>64</ele>
        <time>2019-07-17T16:14:52Z</time>
      </trkpt>
      <trkpt lat="47.84741" lon="-3.54142">
        <ele>63</ele>
        <time>2019-07-17T16:14:53Z</time>
      </trkpt>
      <trkpt lat="47.84739" lon="-3.54151">
        <ele>63</ele>
        <time>2019-07-17T16:14:54Z</time>
      </trkpt>
      <trkpt lat="47.84738" lon="-3.54161">
        <ele>63</ele>
        <time>2019-07-17T16:14:55Z</time>
      </trkpt>
      <trkpt lat="47.84737" lon="-3.54171">
        <ele>63</ele>
        <time>2019-07-17T16:14:56Z</time>
      </trkpt>
      <trkpt lat="47.84735" lon="-3.54181">
        <ele>62</ele>
        <time>2019-07-17T16:14:57Z</time>
      </trkpt>
      <trkpt lat="47.84734" lon="-3.5419">
        <ele>62</ele>
        <time>2019-07-17T16:14:58Z</time>
      </trkpt>
      <trkpt lat="47.84732" lon="-3.54199">
        <ele>62</ele>
        <time>2019-07-17T16:14:59Z</time>
      </trkpt>
      <trkpt lat="47.84731" lon="-3.54208">
        <ele>62</ele>
        <time>2019-07-17T16:15:00Z</time>
      </trkpt>
      <trkpt lat="47.8473" lon="-3.54218">
        <ele>62</ele>
        <time>2019-07-17T16:15:01Z</time>
      </trkpt>
      <trkpt lat="47.84728" lon="-3.54227">
        <ele>62</ele>
        <time>2019-07-17T16:15:02Z</time>
      </trkpt>
      <trkpt lat="47.84727" lon="-3.54235">
        <ele>62</ele>
        <time>2019-07-17T16:15:03Z</time>
      </trkpt>
      <trkpt lat="47.84725" lon="-3.54244">
        <ele>62</ele>
        <time>2019-07-17T16:15:04Z</time>
      </trkpt>
      <trkpt lat="47.84722" lon="-3.54253">
        <ele>62</ele>
        <time>2019-07-17T16:15:05Z</time>
      </trkpt>
      <trkpt lat="47.84719" lon="-3.54261">
        <ele>62</ele>
        <time>2019-07-17T16:15:06Z</time>
      </trkpt>
      <trkpt lat="47.84717" lon="-3.54269">
        <ele>62</ele>
        <time>2019-07-17T16:15:07Z</time>
      </trkpt>
      <trkpt lat="47.84714" lon="-3.54278">
        <ele>62</ele>
        <time>2019-07-17T16:15:08Z</time>
      </trkpt>
      <trkpt lat="47.84711" lon="-3.54286">
        <ele>62</ele>
        <time>2019-07-17T16:15:09Z</time>
      </trkpt>
      <trkpt lat="47.84709" lon="-3.54294">
        <ele>62</ele>
        <time>2019-07-17T16:15:10Z</time>
      </trkpt>
      <trkpt lat="47.84706" lon="-3.54302">
        <ele>63</ele>
        <time>2019-07-17T16:15:11Z</time>
      </trkpt>
      <trkpt lat="47.84703" lon="-3.5431">
        <ele>63</ele>
        <time>2019-07-17T16:15:12Z</time>
      </trkpt>
      <trkpt lat="47.84701" lon="-3.54318">
        <ele>63</ele>
        <time>2019-07-17T16:15:13Z</time>
      </trkpt>
      <trkpt lat="47.84698" lon="-3.54326">
        <ele>63</ele>
        <time>2019-07-17T16:15:14Z</time>
      </trkpt>
      <trkpt lat="47.84695" lon="-3.54335">
        <ele>63</ele>
        <time>2019-07-17T16:15:15Z</time>
      </trkpt>
      <trkpt lat="47.84692" lon="-3.54343">
        <ele>63</ele>
        <time>2019-07-17T16:15:16Z</time>
      </trkpt>
      <trkpt lat="47.84689" lon="-3.54352">
        <ele>63</ele>
        <time>2019-07-17T16:15:17Z</time>
      </trkpt>
      <trkpt lat="47.84687" lon="-3.54361">
        <ele>63</ele>
        <time>2019-07-17T16:15:18Z</time>
      </trkpt>
      <trkpt lat="47.84684" lon="-3.54369">
        <ele>63</ele>
        <time>2019-07-17T16:15:19Z</time>
      </trkpt>
      <trkpt lat="47.84681" lon="-3.54377">
        <ele>63</ele>
        <time>2019-07-17T16:15:20Z</time>
      </trkpt>
      <trkpt lat="47.84679" lon="-3.54386">
        <ele>63</ele>
        <time>2019-07-17T16:15:21Z</time>
      </trkpt>
      <trkpt lat="47.84675" lon="-3.54395">
        <ele>63</ele>
        <time>2019-07-17T16:15:22Z</time>
      </trkpt>
      <trkpt lat="47.84672" lon="-3.54404">
        <ele>63</ele>
        <time>2019-07-17T16:15:23Z</time>
      </trkpt>
      <trkpt lat="47.84669" lon="-3.54413">
        <ele>63</ele>
        <time>2019-07-17T16:15:24Z</time>
      </trkpt>
      <trkpt lat="47.84666" lon="-3.54422">
        <ele>63</ele>
        <time>2019-07-17T16:15:25Z</time>
      </trkpt>
      <trkpt lat="47.84663" lon="-3.54432">
        <ele>62</ele>
        <time>2019-07-17T16:15:26Z</time>
      </trkpt>
      <trkpt lat="47.84659" lon="-3.54442">
        <ele>62</ele>
        <time>2019-07-17T16:15:27Z</time>
      </trkpt>
      <trkpt lat="47.84656" lon="-3.54453">
        <ele>62</ele>
        <time>2019-07-17T16:15:28Z</time>
      </trkpt>
      <trkpt lat="47.84653" lon="-3.54463">
        <ele>62</ele>
        <time>2019-07-17T16:15:29Z</time>
      </trkpt>
      <trkpt lat="47.84649" lon="-3.54474">
        <ele>62</ele>
        <time>2019-07-17T16:15:30Z</time>
      </trkpt>
      <trkpt lat="47.84646" lon="-3.54484">
        <ele>61</ele>
        <time>2019-07-17T16:15:31Z</time>
      </trkpt>
      <trkpt lat="47.84643" lon="-3.54495">
        <ele>61</ele>
        <time>2019-07-17T16:15:32Z</time>
      </trkpt>
      <trkpt lat="47.84641" lon="-3.54506">
        <ele>61</ele>
        <time>2019-07-17T16:15:33Z</time>
      </trkpt>
      <trkpt lat="47.84639" lon="-3.54517">
        <ele>60</ele>
        <time>2019-07-17T16:15:34Z</time>
      </trkpt>
      <trkpt lat="47.84637" lon="-3.54528">
        <ele>60</ele>
        <time>2019-07-17T16:15:35Z</time>
      </trkpt>
      <trkpt lat="47.84635" lon="-3.54538">
        <ele>59</ele>
        <time>2019-07-17T16:15:36Z</time>
      </trkpt>
      <trkpt lat="47.84634" lon="-3.54549">
        <ele>59</ele>
        <time>2019-07-17T16:15:37Z</time>
      </trkpt>
      <trkpt lat="47.84633" lon="-3.54559">
        <ele>58</ele>
        <time>2019-07-17T16:15:38Z</time>
      </trkpt>
      <trkpt lat="47.84631" lon="-3.54569">
        <ele>58</ele>
        <time>2019-07-17T16:15:39Z</time>
      </trkpt>
      <trkpt lat="47.8463" lon="-3.54579">
        <ele>57</ele>
        <time>2019-07-17T16:15:40Z</time>
      </trkpt>
      <trkpt lat="47.84629" lon="-3.54589">
        <ele>57</ele>
        <time>2019-07-17T16:15:41Z</time>
      </trkpt>
      <trkpt lat="47.84629" lon="-3.54599">
        <ele>56</ele>
        <time>2019-07-17T16:15:42Z</time>
      </trkpt>
      <trkpt lat="47.84629" lon="-3.54609">
        <ele>56</ele>
        <time>2019-07-17T16:15:43Z</time>
      </trkpt>
      <trkpt lat="47.84629" lon="-3.54619">
        <ele>55</ele>
        <time>2019-07-17T16:15:44Z</time>
      </trkpt>
      <trkpt lat="47.84629" lon="-3.54629">
        <ele>55</ele>
        <time>2019-07-17T16:15:45Z</time>
      </trkpt>
      <trkpt lat="47.84628" lon="-3.54639">
        <ele>55</ele>
        <time>2019-07-17T16:15:46Z</time>
      </trkpt>
      <trkpt lat="47.84628" lon="-3.54649">
        <ele>54</ele>
        <time>2019-07-17T16:15:47Z</time>
      </trkpt>
      <trkpt lat="47.84628" lon="-3.54658">
        <ele>54</ele>
        <time>2019-07-17T16:15:48Z</time>
      </trkpt>
      <trkpt lat="47.84627" lon="-3.54668">
        <ele>54</ele>
        <time>2019-07-17T16:15:49Z</time>
      </trkpt>
      <trkpt lat="47.84627" lon="-3.54678">
        <ele>54</ele>
        <time>2019-07-17T16:15:50Z</time>
      </trkpt>
      <trkpt lat="47.84627" lon="-3.54688">
        <ele>54</ele>
        <time>2019-07-17T16:15:51Z</time>
      </trkpt>
      <trkpt lat="47.84627" lon="-3.54697">
        <ele>53</ele>
        <time>2019-07-17T16:15:52Z</time>
      </trkpt>
      <trkpt lat="47.84626" lon="-3.54706">
        <ele>53</ele>
        <time>2019-07-17T16:15:53Z</time>
      </trkpt>
      <trkpt lat="47.84626" lon="-3.54716">
        <ele>53</ele>
        <time>2019-07-17T16:15:54Z</time>
      </trkpt>
      <trkpt lat="47.84626" lon="-3.54724">
        <ele>53</ele>
        <time>2019-07-17T16:15:55Z</time>
      </trkpt>
      <trkpt lat="47.84625" lon="-3.54733">
        <ele>53</ele>
        <time>2019-07-17T16:15:56Z</time>
      </trkpt>
      <trkpt lat="47.84624" lon="-3.54741">
        <ele>54</ele>
        <time>2019-07-17T16:15:57Z</time>
      </trkpt>
      <trkpt lat="47.84623" lon="-3.5475">
        <ele>54</ele>
        <time>2019-07-17T16:15:58Z</time>
      </trkpt>
      <trkpt lat="47.84623" lon="-3.54759">
        <ele>54</ele>
        <time>2019-07-17T16:15:59Z</time>
      </trkpt>
      <trkpt lat="47.84622" lon="-3.54767">
        <ele>54</ele>
        <time>2019-07-17T16:16:00Z</time>
      </trkpt>
      <trkpt lat="47.84621" lon="-3.54776">
        <ele>54</ele>
        <time>2019-07-17T16:16:01Z</time>
      </trkpt>
      <trkpt lat="47.8462" lon="-3.54784">
        <ele>54</ele>
        <time>2019-07-17T16:16:02Z</time>
      </trkpt>
      <trkpt lat="47.84619" lon="-3.54791">
        <ele>54</ele>
        <time>2019-07-17T16:16:03Z</time>
      </trkpt>
      <trkpt lat="47.84619" lon="-3.54798">
        <ele>54</ele>
        <time>2019-07-17T16:16:04Z</time>
      </trkpt>
      <trkpt lat="47.84618" lon="-3.54805">
        <ele>55</ele>
        <time>2019-07-17T16:16:05Z</time>
      </trkpt>
      <trkpt lat="47.84618" lon="-3.54811">
        <ele>55</ele>
        <time>2019-07-17T16:16:06Z</time>
      </trkpt>
      <trkpt lat="47.84618" lon="-3.54817">
        <ele>55</ele>
        <time>2019-07-17T16:16:07Z</time>
      </trkpt>
      <trkpt lat="47.84617" lon="-3.54823">
        <ele>55</ele>
        <time>2019-07-17T16:16:08Z</time>
      </trkpt>
      <trkpt lat="47.84615" lon="-3.54828">
        <ele>55</ele>
        <time>2019-07-17T16:16:09Z</time>
      </trkpt>
      <trkpt lat="47.84613" lon="-3.54834">
        <ele>55</ele>
        <time>2019-07-17T16:16:10Z</time>
      </trkpt>
      <trkpt lat="47.84612" lon="-3.54839">
        <ele>55</ele>
        <time>2019-07-17T16:16:11Z</time>
      </trkpt>
      <trkpt lat="47.8461" lon="-3.54844">
        <ele>55</ele>
        <time>2019-07-17T16:16:12Z</time>
      </trkpt>
      <trkpt lat="47.8461" lon="-3.54848">
        <ele>55</ele>
        <time>2019-07-17T16:16:13Z</time>
      </trkpt>
      <trkpt lat="47.84609" lon="-3.54851">
        <ele>55</ele>
        <time>2019-07-17T16:16:14Z</time>
      </trkpt>
      <trkpt lat="47.84608" lon="-3.54853">
        <ele>55</ele>
        <time>2019-07-17T16:16:15Z</time>
      </trkpt>
      <trkpt lat="47.84605" lon="-3.54854">
        <ele>55</ele>
        <time>2019-07-17T16:16:16Z</time>
      </trkpt>
      <trkpt lat="47.84603" lon="-3.54853">
        <ele>55</ele>
        <time>2019-07-17T16:16:17Z</time>
      </trkpt>
      <trkpt lat="47.846" lon="-3.54852">
        <ele>55</ele>
        <time>2019-07-17T16:16:18Z</time>
      </trkpt>
      <trkpt lat="47.84597" lon="-3.54851">
        <ele>55</ele>
        <time>2019-07-17T16:16:19Z</time>
      </trkpt>
      <trkpt lat="47.84595" lon="-3.54849">
        <ele>55</ele>
        <time>2019-07-17T16:16:20Z</time>
      </trkpt>
      <trkpt lat="47.84593" lon="-3.54846">
        <ele>55</ele>
        <time>2019-07-17T16:16:21Z</time>
      </trkpt>
      <trkpt lat="47.84591" lon="-3.54844">
        <ele>55</ele>
        <time>2019-07-17T16:16:22Z</time>
      </trkpt>
      <trkpt lat="47.84589" lon="-3.5484">
        <ele>55</ele>
        <time>2019-07-17T16:16:23Z</time>
      </trkpt>
      <trkpt lat="47.84587" lon="-3.54837">
        <ele>55</ele>
        <time>2019-07-17T16:16:24Z</time>
      </trkpt>
      <trkpt lat="47.84584" lon="-3.54836">
        <ele>55</ele>
        <time>2019-07-17T16:16:25Z</time>
      </trkpt>
      <trkpt lat="47.84581" lon="-3.54835">
        <ele>55</ele>
        <time>2019-07-17T16:16:26Z</time>
      </trkpt>
      <trkpt lat="47.84578" lon="-3.54833">
        <ele>55</ele>
        <time>2019-07-17T16:16:27Z</time>
      </trkpt>
      <trkpt lat="47.84574" lon="-3.54832">
        <ele>55</ele>
        <time>2019-07-17T16:16:28Z</time>
      </trkpt>
      <trkpt lat="47.84569" lon="-3.54831">
        <ele>56</ele>
        <time>2019-07-17T16:16:29Z</time>
      </trkpt>
      <trkpt lat="47.84564" lon="-3.5483">
        <ele>56</ele>
        <time>2019-07-17T16:16:30Z</time>
      </trkpt>
      <trkpt lat="47.84559" lon="-3.54829">
        <ele>56</ele>
        <time>2019-07-17T16:16:31Z</time>
      </trkpt>
      <trkpt lat="47.84554" lon="-3.54828">
        <ele>56</ele>
        <time>2019-07-17T16:16:32Z</time>
      </trkpt>
      <trkpt lat="47.84549" lon="-3.54827">
        <ele>56</ele>
        <time>2019-07-17T16:16:33Z</time>
      </trkpt>
      <trkpt lat="47.84544" lon="-3.54826">
        <ele>56</ele>
        <time>2019-07-17T16:16:34Z</time>
      </trkpt>
      <trkpt lat="47.84538" lon="-3.54826">
        <ele>56</ele>
        <time>2019-07-17T16:16:35Z</time>
      </trkpt>
      <trkpt lat="47.84534" lon="-3.54825">
        <ele>56</ele>
        <time>2019-07-17T16:16:36Z</time>
      </trkpt>
      <trkpt lat="47.84528" lon="-3.54825">
        <ele>57</ele>
        <time>2019-07-17T16:16:37Z</time>
      </trkpt>
      <trkpt lat="47.84523" lon="-3.54825">
        <ele>57</ele>
        <time>2019-07-17T16:16:38Z</time>
      </trkpt>
      <trkpt lat="47.84518" lon="-3.54825">
        <ele>57</ele>
        <time>2019-07-17T16:16:39Z</time>
      </trkpt>
      <trkpt lat="47.84513" lon="-3.54825">
        <ele>57</ele>
        <time>2019-07-17T16:16:40Z</time>
      </trkpt>
      <trkpt lat="47.84508" lon="-3.54824">
        <ele>57</ele>
        <time>2019-07-17T16:16:41Z</time>
      </trkpt>
      <trkpt lat="47.84502" lon="-3.54824">
        <ele>58</ele>
        <time>2019-07-17T16:16:42Z</time>
      </trkpt>
      <trkpt lat="47.84498" lon="-3.54825">
        <ele>58</ele>
        <time>2019-07-17T16:16:43Z</time>
      </trkpt>
      <trkpt lat="47.84492" lon="-3.54825">
        <ele>58</ele>
        <time>2019-07-17T16:16:44Z</time>
      </trkpt>
      <trkpt lat="47.84487" lon="-3.54826">
        <ele>58</ele>
        <time>2019-07-17T16:16:45Z</time>
      </trkpt>
      <trkpt lat="47.84482" lon="-3.54827">
        <ele>59</ele>
        <time>2019-07-17T16:16:46Z</time>
      </trkpt>
      <trkpt lat="47.84477" lon="-3.54829">
        <ele>59</ele>
        <time>2019-07-17T16:16:47Z</time>
      </trkpt>
      <trkpt lat="47.84472" lon="-3.54832">
        <ele>59</ele>
        <time>2019-07-17T16:16:48Z</time>
      </trkpt>
      <trkpt lat="47.84467" lon="-3.54837">
        <ele>60</ele>
        <time>2019-07-17T16:16:49Z</time>
      </trkpt>
      <trkpt lat="47.84463" lon="-3.54842">
        <ele>60</ele>
        <time>2019-07-17T16:16:50Z</time>
      </trkpt>
      <trkpt lat="47.84459" lon="-3.54847">
        <ele>60</ele>
        <time>2019-07-17T16:16:51Z</time>
      </trkpt>
      <trkpt lat="47.84455" lon="-3.54853">
        <ele>61</ele>
        <time>2019-07-17T16:16:52Z</time>
      </trkpt>
      <trkpt lat="47.84451" lon="-3.54858">
        <ele>61</ele>
        <time>2019-07-17T16:16:53Z</time>
      </trkpt>
      <trkpt lat="47.84446" lon="-3.54864">
        <ele>61</ele>
        <time>2019-07-17T16:16:54Z</time>
      </trkpt>
      <trkpt lat="47.84442" lon="-3.54871">
        <ele>61</ele>
        <time>2019-07-17T16:16:55Z</time>
      </trkpt>
      <trkpt lat="47.84438" lon="-3.54877">
        <ele>61</ele>
        <time>2019-07-17T16:16:56Z</time>
      </trkpt>
      <trkpt lat="47.84434" lon="-3.54884">
        <ele>61</ele>
        <time>2019-07-17T16:16:57Z</time>
      </trkpt>
      <trkpt lat="47.8443" lon="-3.5489">
        <ele>61</ele>
        <time>2019-07-17T16:16:58Z</time>
      </trkpt>
      <trkpt lat="47.84427" lon="-3.54896">
        <ele>61</ele>
        <time>2019-07-17T16:16:59Z</time>
      </trkpt>
      <trkpt lat="47.84423" lon="-3.54902">
        <ele>61</ele>
        <time>2019-07-17T16:17:00Z</time>
      </trkpt>
      <trkpt lat="47.84419" lon="-3.54908">
        <ele>62</ele>
        <time>2019-07-17T16:17:01Z</time>
      </trkpt>
      <trkpt lat="47.84415" lon="-3.54915">
        <ele>62</ele>
        <time>2019-07-17T16:17:02Z</time>
      </trkpt>
      <trkpt lat="47.8441" lon="-3.54921">
        <ele>62</ele>
        <time>2019-07-17T16:17:03Z</time>
      </trkpt>
      <trkpt lat="47.84406" lon="-3.54928">
        <ele>62</ele>
        <time>2019-07-17T16:17:04Z</time>
      </trkpt>
      <trkpt lat="47.84402" lon="-3.54934">
        <ele>62</ele>
        <time>2019-07-17T16:17:05Z</time>
      </trkpt>
      <trkpt lat="47.84398" lon="-3.5494">
        <ele>62</ele>
        <time>2019-07-17T16:17:06Z</time>
      </trkpt>
      <trkpt lat="47.84394" lon="-3.54947">
        <ele>62</ele>
        <time>2019-07-17T16:17:07Z</time>
      </trkpt>
      <trkpt lat="47.8439" lon="-3.54953">
        <ele>62</ele>
        <time>2019-07-17T16:17:08Z</time>
      </trkpt>
      <trkpt lat="47.84386" lon="-3.5496">
        <ele>62</ele>
        <time>2019-07-17T16:17:09Z</time>
      </trkpt>
      <trkpt lat="47.84383" lon="-3.54966">
        <ele>62</ele>
        <time>2019-07-17T16:17:10Z</time>
      </trkpt>
      <trkpt lat="47.84379" lon="-3.54972">
        <ele>62</ele>
        <time>2019-07-17T16:17:11Z</time>
      </trkpt>
      <trkpt lat="47.84377" lon="-3.54979">
        <ele>63</ele>
        <time>2019-07-17T16:17:12Z</time>
      </trkpt>
      <trkpt lat="47.84374" lon="-3.54986">
        <ele>63</ele>
        <time>2019-07-17T16:17:13Z</time>
      </trkpt>
      <trkpt lat="47.84371" lon="-3.54993">
        <ele>63</ele>
        <time>2019-07-17T16:17:14Z</time>
      </trkpt>
      <trkpt lat="47.8437" lon="-3.54999">
        <ele>63</ele>
        <time>2019-07-17T16:17:15Z</time>
      </trkpt>
      <trkpt lat="47.84368" lon="-3.55005">
        <ele>63</ele>
        <time>2019-07-17T16:17:16Z</time>
      </trkpt>
      <trkpt lat="47.84367" lon="-3.55012">
        <ele>63</ele>
        <time>2019-07-17T16:17:17Z</time>
      </trkpt>
      <trkpt lat="47.84364" lon="-3.5502">
        <ele>63</ele>
        <time>2019-07-17T16:17:18Z</time>
      </trkpt>
      <trkpt lat="47.84362" lon="-3.55028">
        <ele>63</ele>
        <time>2019-07-17T16:17:19Z</time>
      </trkpt>
      <trkpt lat="47.84361" lon="-3.55034">
        <ele>63</ele>
        <time>2019-07-17T16:17:20Z</time>
      </trkpt>
      <trkpt lat="47.8436" lon="-3.55041">
        <ele>63</ele>
        <time>2019-07-17T16:17:21Z</time>
      </trkpt>
      <trkpt lat="47.8436" lon="-3.55046">
        <ele>63</ele>
        <time>2019-07-17T16:17:22Z</time>
      </trkpt>
      <trkpt lat="47.84361" lon="-3.55053">
        <ele>63</ele>
        <time>2019-07-17T16:17:23Z</time>
      </trkpt>
      <trkpt lat="47.84362" lon="-3.5506">
        <ele>63</ele>
        <time>2019-07-17T16:17:24Z</time>
      </trkpt>
      <trkpt lat="47.84363" lon="-3.55067">
        <ele>63</ele>
        <time>2019-07-17T16:17:25Z</time>
      </trkpt>
      <trkpt lat="47.84366" lon="-3.55075">
        <ele>62</ele>
        <time>2019-07-17T16:17:26Z</time>
      </trkpt>
      <trkpt lat="47.84369" lon="-3.55082">
        <ele>62</ele>
        <time>2019-07-17T16:17:27Z</time>
      </trkpt>
      <trkpt lat="47.84372" lon="-3.55087">
        <ele>62</ele>
        <time>2019-07-17T16:17:28Z</time>
      </trkpt>
      <trkpt lat="47.84375" lon="-3.55091">
        <ele>62</ele>
        <time>2019-07-17T16:17:29Z</time>
      </trkpt>
      <trkpt lat="47.84377" lon="-3.55094">
        <ele>61</ele>
        <time>2019-07-17T16:17:30Z</time>
      </trkpt>
      <trkpt lat="47.84377" lon="-3.55097">
        <ele>61</ele>
        <time>2019-07-17T16:17:31Z</time>
      </trkpt>
      <trkpt lat="47.84377" lon="-3.55099">
        <ele>61</ele>
        <time>2019-07-17T16:17:32Z</time>
      </trkpt>
      <trkpt lat="47.84375" lon="-3.551">
        <ele>61</ele>
        <time>2019-07-17T16:17:33Z</time>
      </trkpt>
      <trkpt lat="47.84372" lon="-3.551">
        <ele>61</ele>
        <time>2019-07-17T16:17:34Z</time>
      </trkpt>
      <trkpt lat="47.84369" lon="-3.55101">
        <ele>62</ele>
        <time>2019-07-17T16:17:35Z</time>
      </trkpt>
      <trkpt lat="47.84364" lon="-3.55101">
        <ele>62</ele>
        <time>2019-07-17T16:17:36Z</time>
      </trkpt>
      <trkpt lat="47.84359" lon="-3.55102">
        <ele>62</ele>
        <time>2019-07-17T16:17:37Z</time>
      </trkpt>
      <trkpt lat="47.84354" lon="-3.55104">
        <ele>62</ele>
        <time>2019-07-17T16:17:38Z</time>
      </trkpt>
      <trkpt lat="47.84349" lon="-3.55108">
        <ele>62</ele>
        <time>2019-07-17T16:17:39Z</time>
      </trkpt>
      <trkpt lat="47.84344" lon="-3.55113">
        <ele>63</ele>
        <time>2019-07-17T16:17:40Z</time>
      </trkpt>
      <trkpt lat="47.84339" lon="-3.55118">
        <ele>63</ele>
        <time>2019-07-17T16:17:41Z</time>
      </trkpt>
      <trkpt lat="47.84334" lon="-3.55123">
        <ele>63</ele>
        <time>2019-07-17T16:17:42Z</time>
      </trkpt>
      <trkpt lat="47.84329" lon="-3.55127">
        <ele>63</ele>
        <time>2019-07-17T16:17:43Z</time>
      </trkpt>
      <trkpt lat="47.84324" lon="-3.55132">
        <ele>62</ele>
        <time>2019-07-17T16:17:44Z</time>
      </trkpt>
      <trkpt lat="47.84319" lon="-3.55137">
        <ele>62</ele>
        <time>2019-07-17T16:17:45Z</time>
      </trkpt>
      <trkpt lat="47.84314" lon="-3.55141">
        <ele>62</ele>
        <time>2019-07-17T16:17:46Z</time>
      </trkpt>
      <trkpt lat="47.84308" lon="-3.55145">
        <ele>62</ele>
        <time>2019-07-17T16:17:47Z</time>
      </trkpt>
      <trkpt lat="47.84303" lon="-3.5515">
        <ele>62</ele>
        <time>2019-07-17T16:17:48Z</time>
      </trkpt>
      <trkpt lat="47.84299" lon="-3.55154">
        <ele>62</ele>
        <time>2019-07-17T16:17:49Z</time>
      </trkpt>
      <trkpt lat="47.84294" lon="-3.5516">
        <ele>62</ele>
        <time>2019-07-17T16:17:50Z</time>
      </trkpt>
      <trkpt lat="47.84289" lon="-3.55164">
        <ele>62</ele>
        <time>2019-07-17T16:17:51Z</time>
      </trkpt>
      <trkpt lat="47.84284" lon="-3.55168">
        <ele>62</ele>
        <time>2019-07-17T16:17:52Z</time>
      </trkpt>
      <trkpt lat="47.84278" lon="-3.55172">
        <ele>62</ele>
        <time>2019-07-17T16:17:53Z</time>
      </trkpt>
      <trkpt lat="47.84273" lon="-3.55176">
        <ele>62</ele>
        <time>2019-07-17T16:17:54Z</time>
      </trkpt>
      <trkpt lat="47.84269" lon="-3.55179">
        <ele>61</ele>
        <time>2019-07-17T16:17:55Z</time>
      </trkpt>
      <trkpt lat="47.84265" lon="-3.55181">
        <ele>61</ele>
        <time>2019-07-17T16:17:56Z</time>
      </trkpt>
      <trkpt lat="47.84263" lon="-3.55184">
        <ele>61</ele>
        <time>2019-07-17T16:17:57Z</time>
      </trkpt>
      <trkpt lat="47.8426" lon="-3.55188">
        <ele>61</ele>
        <time>2019-07-17T16:17:58Z</time>
      </trkpt>
      <trkpt lat="47.84258" lon="-3.55193">
        <ele>61</ele>
        <time>2019-07-17T16:17:59Z</time>
      </trkpt>
      <trkpt lat="47.84254" lon="-3.55197">
        <ele>61</ele>
        <time>2019-07-17T16:18:00Z</time>
      </trkpt>
      <trkpt lat="47.8425" lon="-3.55201">
        <ele>61</ele>
        <time>2019-07-17T16:18:01Z</time>
      </trkpt>
      <trkpt lat="47.84245" lon="-3.55205">
        <ele>61</ele>
        <time>2019-07-17T16:18:02Z</time>
      </trkpt>
      <trkpt lat="47.84241" lon="-3.55209">
        <ele>61</ele>
        <time>2019-07-17T16:18:03Z</time>
      </trkpt>
      <trkpt lat="47.84237" lon="-3.55213">
        <ele>61</ele>
        <time>2019-07-17T16:18:04Z</time>
      </trkpt>
      <trkpt lat="47.84232" lon="-3.55218">
        <ele>60</ele>
        <time>2019-07-17T16:18:05Z</time>
      </trkpt>
      <trkpt lat="47.84227" lon="-3.55223">
        <ele>60</ele>
        <time>2019-07-17T16:18:06Z</time>
      </trkpt>
      <trkpt lat="47.84222" lon="-3.55228">
        <ele>60</ele>
        <time>2019-07-17T16:18:07Z</time>
      </trkpt>
      <trkpt lat="47.84217" lon="-3.55232">
        <ele>60</ele>
        <time>2019-07-17T16:18:08Z</time>
      </trkpt>
      <trkpt lat="47.84212" lon="-3.55237">
        <ele>60</ele>
        <time>2019-07-17T16:18:09Z</time>
      </trkpt>
      <trkpt lat="47.84207" lon="-3.55242">
        <ele>60</ele>
        <time>2019-07-17T16:18:10Z</time>
      </trkpt>
      <trkpt lat="47.84203" lon="-3.55248">
        <ele>60</ele>
        <time>2019-07-17T16:18:11Z</time>
      </trkpt>
      <trkpt lat="47.84198" lon="-3.55252">
        <ele>60</ele>
        <time>2019-07-17T16:18:12Z</time>
      </trkpt>
      <trkpt lat="47.84193" lon="-3.55258">
        <ele>60</ele>
        <time>2019-07-17T16:18:13Z</time>
      </trkpt>
      <trkpt lat="47.84188" lon="-3.55263">
        <ele>60</ele>
        <time>2019-07-17T16:18:14Z</time>
      </trkpt>
      <trkpt lat="47.84183" lon="-3.55268">
        <ele>60</ele>
        <time>2019-07-17T16:18:15Z</time>
      </trkpt>
      <trkpt lat="47.84178" lon="-3.55273">
        <ele>60</ele>
        <time>2019-07-17T16:18:16Z</time>
      </trkpt>
      <trkpt lat="47.84174" lon="-3.55277">
        <ele>60</ele>
        <time>2019-07-17T16:18:17Z</time>
      </trkpt>
      <trkpt lat="47.84169" lon="-3.55282">
        <ele>60</ele>
        <time>2019-07-17T16:18:18Z</time>
      </trkpt>
      <trkpt lat="47.84164" lon="-3.55287">
        <ele>60</ele>
        <time>2019-07-17T16:18:19Z</time>
      </trkpt>
      <trkpt lat="47.84159" lon="-3.55292">
        <ele>60</ele>
        <time>2019-07-17T16:18:20Z</time>
      </trkpt>
      <trkpt lat="47.84154" lon="-3.55297">
        <ele>60</ele>
        <time>2019-07-17T16:18:21Z</time>
      </trkpt>
      <trkpt lat="47.84149" lon="-3.55302">
        <ele>60</ele>
        <time>2019-07-17T16:18:22Z</time>
      </trkpt>
      <trkpt lat="47.84144" lon="-3.55307">
        <ele>60</ele>
        <time>2019-07-17T16:18:23Z</time>
      </trkpt>
      <trkpt lat="47.84138" lon="-3.55313">
        <ele>60</ele>
        <time>2019-07-17T16:18:24Z</time>
      </trkpt>
      <trkpt lat="47.84132" lon="-3.55319">
        <ele>60</ele>
        <time>2019-07-17T16:18:25Z</time>
      </trkpt>
      <trkpt lat="47.84126" lon="-3.55324">
        <ele>60</ele>
        <time>2019-07-17T16:18:26Z</time>
      </trkpt>
      <trkpt lat="47.84121" lon="-3.55329">
        <ele>60</ele>
        <time>2019-07-17T16:18:27Z</time>
      </trkpt>
      <trkpt lat="47.84115" lon="-3.55334">
        <ele>60</ele>
        <time>2019-07-17T16:18:28Z</time>
      </trkpt>
      <trkpt lat="47.84111" lon="-3.55339">
        <ele>60</ele>
        <time>2019-07-17T16:18:29Z</time>
      </trkpt>
      <trkpt lat="47.84105" lon="-3.55345">
        <ele>60</ele>
        <time>2019-07-17T16:18:30Z</time>
      </trkpt>
      <trkpt lat="47.841" lon="-3.5535">
        <ele>60</ele>
        <time>2019-07-17T16:18:31Z</time>
      </trkpt>
      <trkpt lat="47.84095" lon="-3.55355">
        <ele>60</ele>
        <time>2019-07-17T16:18:32Z</time>
      </trkpt>
      <trkpt lat="47.84089" lon="-3.5536">
        <ele>60</ele>
        <time>2019-07-17T16:18:33Z</time>
      </trkpt>
      <trkpt lat="47.84084" lon="-3.55366">
        <ele>60</ele>
        <time>2019-07-17T16:18:34Z</time>
      </trkpt>
      <trkpt lat="47.84078" lon="-3.55371">
        <ele>60</ele>
        <time>2019-07-17T16:18:35Z</time>
      </trkpt>
      <trkpt lat="47.84073" lon="-3.55376">
        <ele>60</ele>
        <time>2019-07-17T16:18:36Z</time>
      </trkpt>
      <trkpt lat="47.84069" lon="-3.55381">
        <ele>60</ele>
        <time>2019-07-17T16:18:37Z</time>
      </trkpt>
      <trkpt lat="47.84064" lon="-3.55386">
        <ele>61</ele>
        <time>2019-07-17T16:18:38Z</time>
      </trkpt>
      <trkpt lat="47.8406" lon="-3.55392">
        <ele>61</ele>
        <time>2019-07-17T16:18:39Z</time>
      </trkpt>
      <trkpt lat="47.84056" lon="-3.55397">
        <ele>61</ele>
        <time>2019-07-17T16:18:40Z</time>
      </trkpt>
      <trkpt lat="47.84051" lon="-3.55403">
        <ele>61</ele>
        <time>2019-07-17T16:18:41Z</time>
      </trkpt>
      <trkpt lat="47.84046" lon="-3.55408">
        <ele>61</ele>
        <time>2019-07-17T16:18:42Z</time>
      </trkpt>
      <trkpt lat="47.84042" lon="-3.55413">
        <ele>61</ele>
        <time>2019-07-17T16:18:43Z</time>
      </trkpt>
      <trkpt lat="47.84037" lon="-3.55417">
        <ele>61</ele>
        <time>2019-07-17T16:18:44Z</time>
      </trkpt>
      <trkpt lat="47.84032" lon="-3.55422">
        <ele>61</ele>
        <time>2019-07-17T16:18:45Z</time>
      </trkpt>
      <trkpt lat="47.84028" lon="-3.55427">
        <ele>61</ele>
        <time>2019-07-17T16:18:46Z</time>
      </trkpt>
      <trkpt lat="47.84023" lon="-3.55431">
        <ele>61</ele>
        <time>2019-07-17T16:18:47Z</time>
      </trkpt>
      <trkpt lat="47.84019" lon="-3.55435">
        <ele>61</ele>
        <time>2019-07-17T16:18:48Z</time>
      </trkpt>
      <trkpt lat="47.84015" lon="-3.55439">
        <ele>62</ele>
        <time>2019-07-17T16:18:49Z</time>
      </trkpt>
      <trkpt lat="47.8401" lon="-3.55443">
        <ele>62</ele>
        <time>2019-07-17T16:18:50Z</time>
      </trkpt>
      <trkpt lat="47.84006" lon="-3.55448">
        <ele>62</ele>
        <time>2019-07-17T16:18:51Z</time>
      </trkpt>
      <trkpt lat="47.84001" lon="-3.55452">
        <ele>62</ele>
        <time>2019-07-17T16:18:52Z</time>
      </trkpt>
      <trkpt lat="47.83997" lon="-3.55456">
        <ele>62</ele>
        <time>2019-07-17T16:18:53Z</time>
      </trkpt>
      <trkpt lat="47.83992" lon="-3.5546">
        <ele>62</ele>
        <time>2019-07-17T16:18:54Z</time>
      </trkpt>
      <trkpt lat="47.83987" lon="-3.55465">
        <ele>62</ele>
        <time>2019-07-17T16:18:55Z</time>
      </trkpt>
      <trkpt lat="47.83982" lon="-3.5547">
        <ele>62</ele>
        <time>2019-07-17T16:18:56Z</time>
      </trkpt>
      <trkpt lat="47.83977" lon="-3.55475">
        <ele>62</ele>
        <time>2019-07-17T16:18:57Z</time>
      </trkpt>
      <trkpt lat="47.83972" lon="-3.5548">
        <ele>62</ele>
        <time>2019-07-17T16:18:58Z</time>
      </trkpt>
      <trkpt lat="47.83966" lon="-3.55485">
        <ele>62</ele>
        <time>2019-07-17T16:18:59Z</time>
      </trkpt>
      <trkpt lat="47.83962" lon="-3.55491">
        <ele>63</ele>
        <time>2019-07-17T16:19:00Z</time>
      </trkpt>
      <trkpt lat="47.83956" lon="-3.55496">
        <ele>63</ele>
        <time>2019-07-17T16:19:01Z</time>
      </trkpt>
      <trkpt lat="47.83951" lon="-3.55501">
        <ele>63</ele>
        <time>2019-07-17T16:19:02Z</time>
      </trkpt>
      <trkpt lat="47.83946" lon="-3.55507">
        <ele>63</ele>
        <time>2019-07-17T16:19:03Z</time>
      </trkpt>
      <trkpt lat="47.8394" lon="-3.55512">
        <ele>63</ele>
        <time>2019-07-17T16:19:04Z</time>
      </trkpt>
      <trkpt lat="47.83934" lon="-3.55517">
        <ele>63</ele>
        <time>2019-07-17T16:19:05Z</time>
      </trkpt>
      <trkpt lat="47.83929" lon="-3.55522">
        <ele>63</ele>
        <time>2019-07-17T16:19:06Z</time>
      </trkpt>
      <trkpt lat="47.83924" lon="-3.55528">
        <ele>63</ele>
        <time>2019-07-17T16:19:07Z</time>
      </trkpt>
      <trkpt lat="47.83918" lon="-3.55533">
        <ele>63</ele>
        <time>2019-07-17T16:19:08Z</time>
      </trkpt>
      <trkpt lat="47.83913" lon="-3.55539">
        <ele>63</ele>
        <time>2019-07-17T16:19:09Z</time>
      </trkpt>
      <trkpt lat="47.83907" lon="-3.55544">
        <ele>63</ele>
        <time>2019-07-17T16:19:10Z</time>
      </trkpt>
      <trkpt lat="47.83901" lon="-3.55549">
        <ele>63</ele>
        <time>2019-07-17T16:19:11Z</time>
      </trkpt>
      <trkpt lat="47.83896" lon="-3.55555">
        <ele>63</ele>
        <time>2019-07-17T16:19:12Z</time>
      </trkpt>
      <trkpt lat="47.8389" lon="-3.5556">
        <ele>63</ele>
        <time>2019-07-17T16:19:13Z</time>
      </trkpt>
      <trkpt lat="47.83884" lon="-3.55566">
        <ele>63</ele>
        <time>2019-07-17T16:19:14Z</time>
      </trkpt>
      <trkpt lat="47.83878" lon="-3.55572">
        <ele>63</ele>
        <time>2019-07-17T16:19:15Z</time>
      </trkpt>
      <trkpt lat="47.83872" lon="-3.55578">
        <ele>63</ele>
        <time>2019-07-17T16:19:16Z</time>
      </trkpt>
      <trkpt lat="47.83866" lon="-3.55584">
        <ele>63</ele>
        <time>2019-07-17T16:19:17Z</time>
      </trkpt>
      <trkpt lat="47.8386" lon="-3.5559">
        <ele>63</ele>
        <time>2019-07-17T16:19:18Z</time>
      </trkpt>
      <trkpt lat="47.83854" lon="-3.55596">
        <ele>63</ele>
        <time>2019-07-17T16:19:19Z</time>
      </trkpt>
      <trkpt lat="47.83849" lon="-3.55601">
        <ele>63</ele>
        <time>2019-07-17T16:19:20Z</time>
      </trkpt>
      <trkpt lat="47.83844" lon="-3.55606">
        <ele>63</ele>
        <time>2019-07-17T16:19:21Z</time>
      </trkpt>
      <trkpt lat="47.83839" lon="-3.5561">
        <ele>63</ele>
        <time>2019-07-17T16:19:22Z</time>
      </trkpt>
      <trkpt lat="47.83835" lon="-3.55614">
        <ele>63</ele>
        <time>2019-07-17T16:19:23Z</time>
      </trkpt>
      <trkpt lat="47.83832" lon="-3.55618">
        <ele>63</ele>
        <time>2019-07-17T16:19:24Z</time>
      </trkpt>
      <trkpt lat="47.83828" lon="-3.55623">
        <ele>63</ele>
        <time>2019-07-17T16:19:25Z</time>
      </trkpt>
      <trkpt lat="47.83823" lon="-3.55628">
        <ele>63</ele>
        <time>2019-07-17T16:19:26Z</time>
      </trkpt>
      <trkpt lat="47.83819" lon="-3.55634">
        <ele>62</ele>
        <time>2019-07-17T16:19:27Z</time>
      </trkpt>
      <trkpt lat="47.83815" lon="-3.55638">
        <ele>62</ele>
        <time>2019-07-17T16:19:28Z</time>
      </trkpt>
      <trkpt lat="47.83812" lon="-3.55642">
        <ele>62</ele>
        <time>2019-07-17T16:19:29Z</time>
      </trkpt>
      <trkpt lat="47.83808" lon="-3.55644">
        <ele>62</ele>
        <time>2019-07-17T16:19:30Z</time>
      </trkpt>
      <trkpt lat="47.83805" lon="-3.55645">
        <ele>62</ele>
        <time>2019-07-17T16:19:31Z</time>
      </trkpt>
      <trkpt lat="47.83803" lon="-3.55646">
        <ele>61</ele>
        <time>2019-07-17T16:19:32Z</time>
      </trkpt>
      <trkpt lat="47.83801" lon="-3.55646">
        <ele>61</ele>
        <time>2019-07-17T16:19:33Z</time>
      </trkpt>
      <trkpt lat="47.83798" lon="-3.55648">
        <ele>61</ele>
        <time>2019-07-17T16:19:34Z</time>
      </trkpt>
      <trkpt lat="47.83796" lon="-3.55649">
        <ele>61</ele>
        <time>2019-07-17T16:19:35Z</time>
      </trkpt>
      <trkpt lat="47.83794" lon="-3.55652">
        <ele>61</ele>
        <time>2019-07-17T16:19:36Z</time>
      </trkpt>
      <trkpt lat="47.83792" lon="-3.55654">
        <ele>60</ele>
        <time>2019-07-17T16:19:37Z</time>
      </trkpt>
      <trkpt lat="47.8379" lon="-3.55655">
        <ele>60</ele>
        <time>2019-07-17T16:19:38Z</time>
      </trkpt>
      <trkpt lat="47.83789" lon="-3.55658">
        <ele>60</ele>
        <time>2019-07-17T16:19:39Z</time>
      </trkpt>
      <trkpt lat="47.83787" lon="-3.5566">
        <ele>60</ele>
        <time>2019-07-17T16:19:40Z</time>
      </trkpt>
      <trkpt lat="47.83784" lon="-3.55663">
        <ele>59</ele>
        <time>2019-07-17T16:19:41Z</time>
      </trkpt>
      <trkpt lat="47.83782" lon="-3.55665">
        <ele>59</ele>
        <time>2019-07-17T16:19:42Z</time>
      </trkpt>
      <trkpt lat="47.83779" lon="-3.55666">
        <ele>59</ele>
        <time>2019-07-17T16:19:43Z</time>
      </trkpt>
      <trkpt lat="47.83778" lon="-3.55666">
        <ele>59</ele>
        <time>2019-07-17T16:19:44Z</time>
      </trkpt>
      <trkpt lat="47.83777" lon="-3.55666">
        <ele>59</ele>
        <time>2019-07-17T16:19:45Z</time>
      </trkpt>
      <trkpt lat="47.83776" lon="-3.55666">
        <ele>58</ele>
        <time>2019-07-17T16:19:46Z</time>
      </trkpt>
      <trkpt lat="47.83776" lon="-3.55666">
        <ele>58</ele>
        <time>2019-07-17T16:19:47Z</time>
      </trkpt>
      <trkpt lat="47.83776" lon="-3.55666">
        <ele>58</ele>
        <time>2019-07-17T16:19:48Z</time>
      </trkpt>
      <trkpt lat="47.83754" lon="-3.55674">
        <ele>58</ele>
        <time>2019-07-17T16:19:49Z</time>
      </trkpt>
      <trkpt lat="47.83753" lon="-3.55675">
        <ele>58</ele>
        <time>2019-07-17T16:19:50Z</time>
      </trkpt>
      <trkpt lat="47.83752" lon="-3.55676">
        <ele>58</ele>
        <time>2019-07-17T16:19:51Z</time>
      </trkpt>
      <trkpt lat="47.8375" lon="-3.55677">
        <ele>58</ele>
        <time>2019-07-17T16:19:52Z</time>
      </trkpt>
      <trkpt lat="47.83748" lon="-3.55678">
        <ele>58</ele>
        <time>2019-07-17T16:19:53Z</time>
      </trkpt>
      <trkpt lat="47.83747" lon="-3.55679">
        <ele>59</ele>
        <time>2019-07-17T16:19:54Z</time>
      </trkpt>
      <trkpt lat="47.83747" lon="-3.55681">
        <ele>59</ele>
        <time>2019-07-17T16:19:55Z</time>
      </trkpt>
      <trkpt lat="47.83746" lon="-3.55682">
        <ele>59</ele>
        <time>2019-07-17T16:19:56Z</time>
      </trkpt>
      <trkpt lat="47.83745" lon="-3.55683">
        <ele>59</ele>
        <time>2019-07-17T16:19:57Z</time>
      </trkpt>
      <trkpt lat="47.83744" lon="-3.55684">
        <ele>59</ele>
        <time>2019-07-17T16:19:58Z</time>
      </trkpt>
      <trkpt lat="47.83744" lon="-3.55684">
        <ele>59</ele>
        <time>2019-07-17T16:19:59Z</time>
      </trkpt>
      <trkpt lat="47.83738" lon="-3.5569">
        <ele>60</ele>
        <time>2019-07-17T16:20:00Z</time>
      </trkpt>
      <trkpt lat="47.83737" lon="-3.55691">
        <ele>60</ele>
        <time>2019-07-17T16:20:01Z</time>
      </trkpt>
      <trkpt lat="47.83736" lon="-3.55691">
        <ele>60</ele>
        <time>2019-07-17T16:20:02Z</time>
      </trkpt>
      <trkpt lat="47.83736" lon="-3.55692">
        <ele>60</ele>
        <time>2019-07-17T16:20:03Z</time>
      </trkpt>
      <trkpt lat="47.83733" lon="-3.55701">
        <ele>59</ele>
        <time>2019-07-17T16:20:04Z</time>
      </trkpt>
      <trkpt lat="47.83733" lon="-3.55702">
        <ele>59</ele>
        <time>2019-07-17T16:20:05Z</time>
      </trkpt>
      <trkpt lat="47.83733" lon="-3.55702">
        <ele>59</ele>
        <time>2019-07-17T16:20:06Z</time>
      </trkpt>
      <trkpt lat="47.83727" lon="-3.55716">
        <ele>62</ele>
        <time>2019-07-17T16:20:07Z</time>
      </trkpt>
      <trkpt lat="47.83727" lon="-3.55716">
        <ele>62</ele>
        <time>2019-07-17T16:20:08Z</time>
      </trkpt>
      <trkpt lat="47.837" lon="-3.55741">
        <ele>67</ele>
        <time>2019-07-17T16:20:09Z</time>
      </trkpt>
      <trkpt lat="47.837" lon="-3.55742">
        <ele>67</ele>
        <time>2019-07-17T16:20:10Z</time>
      </trkpt>
      <trkpt lat="47.83698" lon="-3.55743">
        <ele>67</ele>
        <time>2019-07-17T16:20:11Z</time>
      </trkpt>
      <trkpt lat="47.83697" lon="-3.55744">
        <ele>67</ele>
        <time>2019-07-17T16:20:12Z</time>
      </trkpt>
      <trkpt lat="47.83696" lon="-3.55745">
        <ele>67</ele>
        <time>2019-07-17T16:20:13Z</time>
      </trkpt>
      <trkpt lat="47.83695" lon="-3.55746">
        <ele>67</ele>
        <time>2019-07-17T16:20:14Z</time>
      </trkpt>
      <trkpt lat="47.83694" lon="-3.55747">
        <ele>67</ele>
        <time>2019-07-17T16:20:15Z</time>
      </trkpt>
      <trkpt lat="47.83693" lon="-3.55747">
        <ele>68</ele>
        <time>2019-07-17T16:20:16Z</time>
      </trkpt>
      <trkpt lat="47.83692" lon="-3.55748">
        <ele>68</ele>
        <time>2019-07-17T16:20:17Z</time>
      </trkpt>
      <trkpt lat="47.83691" lon="-3.55748">
        <ele>68</ele>
        <time>2019-07-17T16:20:18Z</time>
      </trkpt>
      <trkpt lat="47.8369" lon="-3.55749">
        <ele>68</ele>
        <time>2019-07-17T16:20:19Z</time>
      </trkpt>
      <trkpt lat="47.83688" lon="-3.5575">
        <ele>68</ele>
        <time>2019-07-17T16:20:20Z</time>
      </trkpt>
      <trkpt lat="47.83687" lon="-3.55751">
        <ele>68</ele>
        <time>2019-07-17T16:20:21Z</time>
      </trkpt>
      <trkpt lat="47.83686" lon="-3.55753">
        <ele>69</ele>
        <time>2019-07-17T16:20:22Z</time>
      </trkpt>
      <trkpt lat="47.83684" lon="-3.55754">
        <ele>69</ele>
        <time>2019-07-17T16:20:23Z</time>
      </trkpt>
      <trkpt lat="47.83683" lon="-3.55756">
        <ele>69</ele>
        <time>2019-07-17T16:20:24Z</time>
      </trkpt>
      <trkpt lat="47.8368" lon="-3.55759">
        <ele>69</ele>
        <time>2019-07-17T16:20:25Z</time>
      </trkpt>
      <trkpt lat="47.83678" lon="-3.55761">
        <ele>69</ele>
        <time>2019-07-17T16:20:26Z</time>
      </trkpt>
      <trkpt lat="47.83677" lon="-3.55764">
        <ele>69</ele>
        <time>2019-07-17T16:20:27Z</time>
      </trkpt>
      <trkpt lat="47.83675" lon="-3.55766">
        <ele>69</ele>
        <time>2019-07-17T16:20:28Z</time>
      </trkpt>
      <trkpt lat="47.83673" lon="-3.55768">
        <ele>70</ele>
        <time>2019-07-17T16:20:29Z</time>
      </trkpt>
      <trkpt lat="47.83671" lon="-3.5577">
        <ele>70</ele>
        <time>2019-07-17T16:20:30Z</time>
      </trkpt>
      <trkpt lat="47.83669" lon="-3.55774">
        <ele>70</ele>
        <time>2019-07-17T16:20:31Z</time>
      </trkpt>
      <trkpt lat="47.83666" lon="-3.55777">
        <ele>70</ele>
        <time>2019-07-17T16:20:32Z</time>
      </trkpt>
      <trkpt lat="47.83663" lon="-3.5578">
        <ele>71</ele>
        <time>2019-07-17T16:20:33Z</time>
      </trkpt>
      <trkpt lat="47.83661" lon="-3.55783">
        <ele>71</ele>
        <time>2019-07-17T16:20:34Z</time>
      </trkpt>
      <trkpt lat="47.83659" lon="-3.55787">
        <ele>71</ele>
        <time>2019-07-17T16:20:35Z</time>
      </trkpt>
      <trkpt lat="47.83655" lon="-3.55789">
        <ele>71</ele>
        <time>2019-07-17T16:20:36Z</time>
      </trkpt>
      <trkpt lat="47.83652" lon="-3.55793">
        <ele>71</ele>
        <time>2019-07-17T16:20:37Z</time>
      </trkpt>
      <trkpt lat="47.83649" lon="-3.55796">
        <ele>72</ele>
        <time>2019-07-17T16:20:38Z</time>
      </trkpt>
      <trkpt lat="47.83646" lon="-3.558">
        <ele>72</ele>
        <time>2019-07-17T16:20:39Z</time>
      </trkpt>
      <trkpt lat="47.83643" lon="-3.55803">
        <ele>72</ele>
        <time>2019-07-17T16:20:40Z</time>
      </trkpt>
      <trkpt lat="47.83639" lon="-3.55806">
        <ele>72</ele>
        <time>2019-07-17T16:20:41Z</time>
      </trkpt>
      <trkpt lat="47.83635" lon="-3.5581">
        <ele>72</ele>
        <time>2019-07-17T16:20:42Z</time>
      </trkpt>
      <trkpt lat="47.83632" lon="-3.55813">
        <ele>72</ele>
        <time>2019-07-17T16:20:43Z</time>
      </trkpt>
      <trkpt lat="47.83629" lon="-3.55815">
        <ele>73</ele>
        <time>2019-07-17T16:20:44Z</time>
      </trkpt>
      <trkpt lat="47.83626" lon="-3.55818">
        <ele>73</ele>
        <time>2019-07-17T16:20:45Z</time>
      </trkpt>
      <trkpt lat="47.83623" lon="-3.55822">
        <ele>73</ele>
        <time>2019-07-17T16:20:46Z</time>
      </trkpt>
      <trkpt lat="47.83619" lon="-3.55825">
        <ele>73</ele>
        <time>2019-07-17T16:20:47Z</time>
      </trkpt>
      <trkpt lat="47.83616" lon="-3.55829">
        <ele>73</ele>
        <time>2019-07-17T16:20:48Z</time>
      </trkpt>
      <trkpt lat="47.83612" lon="-3.55832">
        <ele>73</ele>
        <time>2019-07-17T16:20:49Z</time>
      </trkpt>
      <trkpt lat="47.83608" lon="-3.55835">
        <ele>73</ele>
        <time>2019-07-17T16:20:50Z</time>
      </trkpt>
      <trkpt lat="47.83603" lon="-3.5584">
        <ele>73</ele>
        <time>2019-07-17T16:20:51Z</time>
      </trkpt>
      <trkpt lat="47.83598" lon="-3.55844">
        <ele>73</ele>
        <time>2019-07-17T16:20:52Z</time>
      </trkpt>
      <trkpt lat="47.83593" lon="-3.55849">
        <ele>73</ele>
        <time>2019-07-17T16:20:53Z</time>
      </trkpt>
      <trkpt lat="47.83587" lon="-3.55854">
        <ele>73</ele>
        <time>2019-07-17T16:20:54Z</time>
      </trkpt>
      <trkpt lat="47.83582" lon="-3.55859">
        <ele>73</ele>
        <time>2019-07-17T16:20:55Z</time>
      </trkpt>
      <trkpt lat="47.83576" lon="-3.55864">
        <ele>72</ele>
        <time>2019-07-17T16:20:56Z</time>
      </trkpt>
      <trkpt lat="47.83569" lon="-3.5587">
        <ele>72</ele>
        <time>2019-07-17T16:20:57Z</time>
      </trkpt>
      <trkpt lat="47.83563" lon="-3.55875">
        <ele>72</ele>
        <time>2019-07-17T16:20:58Z</time>
      </trkpt>
      <trkpt lat="47.83557" lon="-3.55881">
        <ele>72</ele>
        <time>2019-07-17T16:20:59Z</time>
      </trkpt>
      <trkpt lat="47.8355" lon="-3.55887">
        <ele>72</ele>
        <time>2019-07-17T16:21:00Z</time>
      </trkpt>
      <trkpt lat="47.83544" lon="-3.55893">
        <ele>72</ele>
        <time>2019-07-17T16:21:01Z</time>
      </trkpt>
      <trkpt lat="47.83538" lon="-3.559">
        <ele>72</ele>
        <time>2019-07-17T16:21:02Z</time>
      </trkpt>
      <trkpt lat="47.83532" lon="-3.55906">
        <ele>72</ele>
        <time>2019-07-17T16:21:03Z</time>
      </trkpt>
      <trkpt lat="47.83526" lon="-3.55912">
        <ele>71</ele>
        <time>2019-07-17T16:21:04Z</time>
      </trkpt>
      <trkpt lat="47.8352" lon="-3.55917">
        <ele>71</ele>
        <time>2019-07-17T16:21:05Z</time>
      </trkpt>
      <trkpt lat="47.83514" lon="-3.55923">
        <ele>71</ele>
        <time>2019-07-17T16:21:06Z</time>
      </trkpt>
      <trkpt lat="47.83508" lon="-3.55928">
        <ele>71</ele>
        <time>2019-07-17T16:21:07Z</time>
      </trkpt>
      <trkpt lat="47.83502" lon="-3.55935">
        <ele>71</ele>
        <time>2019-07-17T16:21:08Z</time>
      </trkpt>
      <trkpt lat="47.83496" lon="-3.55941">
        <ele>70</ele>
        <time>2019-07-17T16:21:09Z</time>
      </trkpt>
      <trkpt lat="47.8349" lon="-3.55947">
        <ele>70</ele>
        <time>2019-07-17T16:21:10Z</time>
      </trkpt>
      <trkpt lat="47.83484" lon="-3.55953">
        <ele>70</ele>
        <time>2019-07-17T16:21:11Z</time>
      </trkpt>
      <trkpt lat="47.83477" lon="-3.55959">
        <ele>70</ele>
        <time>2019-07-17T16:21:12Z</time>
      </trkpt>
      <trkpt lat="47.83471" lon="-3.55965">
        <ele>70</ele>
        <time>2019-07-17T16:21:13Z</time>
      </trkpt>
      <trkpt lat="47.83465" lon="-3.55971">
        <ele>69</ele>
        <time>2019-07-17T16:21:14Z</time>
      </trkpt>
      <trkpt lat="47.83459" lon="-3.55977">
        <ele>69</ele>
        <time>2019-07-17T16:21:15Z</time>
      </trkpt>
      <trkpt lat="47.83453" lon="-3.55983">
        <ele>69</ele>
        <time>2019-07-17T16:21:16Z</time>
      </trkpt>
      <trkpt lat="47.83446" lon="-3.55988">
        <ele>69</ele>
        <time>2019-07-17T16:21:17Z</time>
      </trkpt>
      <trkpt lat="47.8344" lon="-3.55994">
        <ele>69</ele>
        <time>2019-07-17T16:21:18Z</time>
      </trkpt>
      <trkpt lat="47.83435" lon="-3.56">
        <ele>68</ele>
        <time>2019-07-17T16:21:19Z</time>
      </trkpt>
      <trkpt lat="47.83429" lon="-3.56006">
        <ele>68</ele>
        <time>2019-07-17T16:21:20Z</time>
      </trkpt>
      <trkpt lat="47.83423" lon="-3.56012">
        <ele>68</ele>
        <time>2019-07-17T16:21:21Z</time>
      </trkpt>
      <trkpt lat="47.83418" lon="-3.56018">
        <ele>68</ele>
        <time>2019-07-17T16:21:22Z</time>
      </trkpt>
      <trkpt lat="47.83412" lon="-3.56023">
        <ele>68</ele>
        <time>2019-07-17T16:21:23Z</time>
      </trkpt>
      <trkpt lat="47.83406" lon="-3.56029">
        <ele>68</ele>
        <time>2019-07-17T16:21:24Z</time>
      </trkpt>
      <trkpt lat="47.83401" lon="-3.56034">
        <ele>68</ele>
        <time>2019-07-17T16:21:25Z</time>
      </trkpt>
      <trkpt lat="47.83395" lon="-3.56039">
        <ele>67</ele>
        <time>2019-07-17T16:21:26Z</time>
      </trkpt>
      <trkpt lat="47.8339" lon="-3.56044">
        <ele>67</ele>
        <time>2019-07-17T16:21:27Z</time>
      </trkpt>
      <trkpt lat="47.83385" lon="-3.56049">
        <ele>67</ele>
        <time>2019-07-17T16:21:28Z</time>
      </trkpt>
      <trkpt lat="47.83379" lon="-3.56054">
        <ele>67</ele>
        <time>2019-07-17T16:21:29Z</time>
      </trkpt>
      <trkpt lat="47.83373" lon="-3.5606">
        <ele>67</ele>
        <time>2019-07-17T16:21:30Z</time>
      </trkpt>
      <trkpt lat="47.83368" lon="-3.56066">
        <ele>67</ele>
        <time>2019-07-17T16:21:31Z</time>
      </trkpt>
      <trkpt lat="47.83362" lon="-3.56071">
        <ele>67</ele>
        <time>2019-07-17T16:21:32Z</time>
      </trkpt>
      <trkpt lat="47.83358" lon="-3.56076">
        <ele>67</ele>
        <time>2019-07-17T16:21:33Z</time>
      </trkpt>
      <trkpt lat="47.83353" lon="-3.56081">
        <ele>67</ele>
        <time>2019-07-17T16:21:34Z</time>
      </trkpt>
      <trkpt lat="47.83347" lon="-3.56086">
        <ele>67</ele>
        <time>2019-07-17T16:21:35Z</time>
      </trkpt>
      <trkpt lat="47.83342" lon="-3.56091">
        <ele>67</ele>
        <time>2019-07-17T16:21:36Z</time>
      </trkpt>
      <trkpt lat="47.83337" lon="-3.56096">
        <ele>68</ele>
        <time>2019-07-17T16:21:37Z</time>
      </trkpt>
      <trkpt lat="47.83332" lon="-3.561">
        <ele>68</ele>
        <time>2019-07-17T16:21:38Z</time>
      </trkpt>
      <trkpt lat="47.83327" lon="-3.56106">
        <ele>67</ele>
        <time>2019-07-17T16:21:39Z</time>
      </trkpt>
      <trkpt lat="47.83322" lon="-3.56111">
        <ele>67</ele>
        <time>2019-07-17T16:21:40Z</time>
      </trkpt>
      <trkpt lat="47.83316" lon="-3.56116">
        <ele>67</ele>
        <time>2019-07-17T16:21:41Z</time>
      </trkpt>
      <trkpt lat="47.83312" lon="-3.56121">
        <ele>67</ele>
        <time>2019-07-17T16:21:42Z</time>
      </trkpt>
      <trkpt lat="47.83307" lon="-3.56126">
        <ele>67</ele>
        <time>2019-07-17T16:21:43Z</time>
      </trkpt>
      <trkpt lat="47.83302" lon="-3.56131">
        <ele>67</ele>
        <time>2019-07-17T16:21:44Z</time>
      </trkpt>
      <trkpt lat="47.83297" lon="-3.56135">
        <ele>68</ele>
        <time>2019-07-17T16:21:45Z</time>
      </trkpt>
      <trkpt lat="47.83293" lon="-3.56138">
        <ele>68</ele>
        <time>2019-07-17T16:21:46Z</time>
      </trkpt>
      <trkpt lat="47.8329" lon="-3.56142">
        <ele>68</ele>
        <time>2019-07-17T16:21:47Z</time>
      </trkpt>
      <trkpt lat="47.83286" lon="-3.56146">
        <ele>68</ele>
        <time>2019-07-17T16:21:48Z</time>
      </trkpt>
      <trkpt lat="47.83282" lon="-3.5615">
        <ele>68</ele>
        <time>2019-07-17T16:21:49Z</time>
      </trkpt>
      <trkpt lat="47.83278" lon="-3.56155">
        <ele>68</ele>
        <time>2019-07-17T16:21:50Z</time>
      </trkpt>
      <trkpt lat="47.83274" lon="-3.56158">
        <ele>68</ele>
        <time>2019-07-17T16:21:51Z</time>
      </trkpt>
      <trkpt lat="47.83271" lon="-3.56161">
        <ele>68</ele>
        <time>2019-07-17T16:21:52Z</time>
      </trkpt>
      <trkpt lat="47.83267" lon="-3.56165">
        <ele>68</ele>
        <time>2019-07-17T16:21:53Z</time>
      </trkpt>
      <trkpt lat="47.83264" lon="-3.56169">
        <ele>68</ele>
        <time>2019-07-17T16:21:54Z</time>
      </trkpt>
      <trkpt lat="47.8326" lon="-3.56172">
        <ele>68</ele>
        <time>2019-07-17T16:21:55Z</time>
      </trkpt>
      <trkpt lat="47.83256" lon="-3.56176">
        <ele>68</ele>
        <time>2019-07-17T16:21:56Z</time>
      </trkpt>
      <trkpt lat="47.83253" lon="-3.56179">
        <ele>68</ele>
        <time>2019-07-17T16:21:57Z</time>
      </trkpt>
      <trkpt lat="47.8325" lon="-3.56182">
        <ele>69</ele>
        <time>2019-07-17T16:21:58Z</time>
      </trkpt>
      <trkpt lat="47.83246" lon="-3.56185">
        <ele>69</ele>
        <time>2019-07-17T16:21:59Z</time>
      </trkpt>
      <trkpt lat="47.83243" lon="-3.56189">
        <ele>69</ele>
        <time>2019-07-17T16:22:00Z</time>
      </trkpt>
      <trkpt lat="47.83239" lon="-3.56192">
        <ele>69</ele>
        <time>2019-07-17T16:22:01Z</time>
      </trkpt>
      <trkpt lat="47.83236" lon="-3.56195">
        <ele>69</ele>
        <time>2019-07-17T16:22:02Z</time>
      </trkpt>
      <trkpt lat="47.83232" lon="-3.56199">
        <ele>69</ele>
        <time>2019-07-17T16:22:03Z</time>
      </trkpt>
      <trkpt lat="47.83229" lon="-3.56202">
        <ele>69</ele>
        <time>2019-07-17T16:22:04Z</time>
      </trkpt>
      <trkpt lat="47.83225" lon="-3.56205">
        <ele>69</ele>
        <time>2019-07-17T16:22:05Z</time>
      </trkpt>
      <trkpt lat="47.83222" lon="-3.56208">
        <ele>69</ele>
        <time>2019-07-17T16:22:06Z</time>
      </trkpt>
      <trkpt lat="47.83219" lon="-3.56212">
        <ele>70</ele>
        <time>2019-07-17T16:22:07Z</time>
      </trkpt>
      <trkpt lat="47.83215" lon="-3.56215">
        <ele>70</ele>
        <time>2019-07-17T16:22:08Z</time>
      </trkpt>
      <trkpt lat="47.83212" lon="-3.56218">
        <ele>70</ele>
        <time>2019-07-17T16:22:09Z</time>
      </trkpt>
      <trkpt lat="47.83209" lon="-3.56221">
        <ele>70</ele>
        <time>2019-07-17T16:22:10Z</time>
      </trkpt>
      <trkpt lat="47.83207" lon="-3.56224">
        <ele>70</ele>
        <time>2019-07-17T16:22:11Z</time>
      </trkpt>
      <trkpt lat="47.83204" lon="-3.56227">
        <ele>70</ele>
        <time>2019-07-17T16:22:12Z</time>
      </trkpt>
      <trkpt lat="47.83201" lon="-3.5623">
        <ele>70</ele>
        <time>2019-07-17T16:22:13Z</time>
      </trkpt>
      <trkpt lat="47.83198" lon="-3.56233">
        <ele>70</ele>
        <time>2019-07-17T16:22:14Z</time>
      </trkpt>
      <trkpt lat="47.83194" lon="-3.56236">
        <ele>70</ele>
        <time>2019-07-17T16:22:15Z</time>
      </trkpt>
      <trkpt lat="47.83191" lon="-3.56239">
        <ele>70</ele>
        <time>2019-07-17T16:22:16Z</time>
      </trkpt>
      <trkpt lat="47.83186" lon="-3.56243">
        <ele>70</ele>
        <time>2019-07-17T16:22:17Z</time>
      </trkpt>
      <trkpt lat="47.83182" lon="-3.56247">
        <ele>70</ele>
        <time>2019-07-17T16:22:18Z</time>
      </trkpt>
      <trkpt lat="47.83178" lon="-3.56252">
        <ele>70</ele>
        <time>2019-07-17T16:22:19Z</time>
      </trkpt>
      <trkpt lat="47.83173" lon="-3.56256">
        <ele>70</ele>
        <time>2019-07-17T16:22:20Z</time>
      </trkpt>
      <trkpt lat="47.83169" lon="-3.5626">
        <ele>70</ele>
        <time>2019-07-17T16:22:21Z</time>
      </trkpt>
      <trkpt lat="47.83165" lon="-3.56263">
        <ele>71</ele>
        <time>2019-07-17T16:22:22Z</time>
      </trkpt>
      <trkpt lat="47.83161" lon="-3.56267">
        <ele>71</ele>
        <time>2019-07-17T16:22:23Z</time>
      </trkpt>
      <trkpt lat="47.83157" lon="-3.5627">
        <ele>71</ele>
        <time>2019-07-17T16:22:24Z</time>
      </trkpt>
      <trkpt lat="47.83153" lon="-3.56274">
        <ele>71</ele>
        <time>2019-07-17T16:22:25Z</time>
      </trkpt>
      <trkpt lat="47.83149" lon="-3.56278">
        <ele>71</ele>
        <time>2019-07-17T16:22:26Z</time>
      </trkpt>
      <trkpt lat="47.83146" lon="-3.56282">
        <ele>71</ele>
        <time>2019-07-17T16:22:27Z</time>
      </trkpt>
      <trkpt lat="47.83142" lon="-3.56286">
        <ele>71</ele>
        <time>2019-07-17T16:22:28Z</time>
      </trkpt>
      <trkpt lat="47.83137" lon="-3.5629">
        <ele>71</ele>
        <time>2019-07-17T16:22:29Z</time>
      </trkpt>
      <trkpt lat="47.83132" lon="-3.56294">
        <ele>71</ele>
        <time>2019-07-17T16:22:30Z</time>
      </trkpt>
      <trkpt lat="47.83127" lon="-3.56299">
        <ele>71</ele>
        <time>2019-07-17T16:22:31Z</time>
      </trkpt>
      <trkpt lat="47.83123" lon="-3.56304">
        <ele>71</ele>
        <time>2019-07-17T16:22:32Z</time>
      </trkpt>
      <trkpt lat="47.83118" lon="-3.56309">
        <ele>71</ele>
        <time>2019-07-17T16:22:33Z</time>
      </trkpt>
      <trkpt lat="47.83113" lon="-3.56313">
        <ele>71</ele>
        <time>2019-07-17T16:22:34Z</time>
      </trkpt>
      <trkpt lat="47.83108" lon="-3.56318">
        <ele>71</ele>
        <time>2019-07-17T16:22:35Z</time>
      </trkpt>
      <trkpt lat="47.83103" lon="-3.56323">
        <ele>71</ele>
        <time>2019-07-17T16:22:36Z</time>
      </trkpt>
      <trkpt lat="47.83098" lon="-3.56328">
        <ele>71</ele>
        <time>2019-07-17T16:22:37Z</time>
      </trkpt>
      <trkpt lat="47.83093" lon="-3.56332">
        <ele>71</ele>
        <time>2019-07-17T16:22:38Z</time>
      </trkpt>
      <trkpt lat="47.83087" lon="-3.56337">
        <ele>71</ele>
        <time>2019-07-17T16:22:39Z</time>
      </trkpt>
      <trkpt lat="47.83082" lon="-3.56343">
        <ele>71</ele>
        <time>2019-07-17T16:22:40Z</time>
      </trkpt>
      <trkpt lat="47.83077" lon="-3.56348">
        <ele>71</ele>
        <time>2019-07-17T16:22:41Z</time>
      </trkpt>
      <trkpt lat="47.83072" lon="-3.56353">
        <ele>71</ele>
        <time>2019-07-17T16:22:42Z</time>
      </trkpt>
      <trkpt lat="47.83067" lon="-3.56359">
        <ele>71</ele>
        <time>2019-07-17T16:22:43Z</time>
      </trkpt>
      <trkpt lat="47.83061" lon="-3.56364">
        <ele>71</ele>
        <time>2019-07-17T16:22:44Z</time>
      </trkpt>
      <trkpt lat="47.83056" lon="-3.56369">
        <ele>71</ele>
        <time>2019-07-17T16:22:45Z</time>
      </trkpt>
      <trkpt lat="47.8305" lon="-3.56375">
        <ele>71</ele>
        <time>2019-07-17T16:22:46Z</time>
      </trkpt>
      <trkpt lat="47.83045" lon="-3.5638">
        <ele>71</ele>
        <time>2019-07-17T16:22:47Z</time>
      </trkpt>
      <trkpt lat="47.8304" lon="-3.56385">
        <ele>71</ele>
        <time>2019-07-17T16:22:48Z</time>
      </trkpt>
      <trkpt lat="47.83035" lon="-3.56391">
        <ele>71</ele>
        <time>2019-07-17T16:22:49Z</time>
      </trkpt>
      <trkpt lat="47.8303" lon="-3.56396">
        <ele>71</ele>
        <time>2019-07-17T16:22:50Z</time>
      </trkpt>
      <trkpt lat="47.83025" lon="-3.56401">
        <ele>71</ele>
        <time>2019-07-17T16:22:51Z</time>
      </trkpt>
      <trkpt lat="47.8302" lon="-3.56406">
        <ele>71</ele>
        <time>2019-07-17T16:22:52Z</time>
      </trkpt>
      <trkpt lat="47.83015" lon="-3.5641">
        <ele>70</ele>
        <time>2019-07-17T16:22:53Z</time>
      </trkpt>
      <trkpt lat="47.8301" lon="-3.56415">
        <ele>70</ele>
        <time>2019-07-17T16:22:54Z</time>
      </trkpt>
      <trkpt lat="47.83006" lon="-3.5642">
        <ele>70</ele>
        <time>2019-07-17T16:22:55Z</time>
      </trkpt>
      <trkpt lat="47.83001" lon="-3.56424">
        <ele>70</ele>
        <time>2019-07-17T16:22:56Z</time>
      </trkpt>
      <trkpt lat="47.82997" lon="-3.56427">
        <ele>70</ele>
        <time>2019-07-17T16:22:57Z</time>
      </trkpt>
      <trkpt lat="47.82993" lon="-3.56432">
        <ele>70</ele>
        <time>2019-07-17T16:22:58Z</time>
      </trkpt>
      <trkpt lat="47.82988" lon="-3.56436">
        <ele>70</ele>
        <time>2019-07-17T16:22:59Z</time>
      </trkpt>
      <trkpt lat="47.82984" lon="-3.56441">
        <ele>70</ele>
        <time>2019-07-17T16:23:00Z</time>
      </trkpt>
      <trkpt lat="47.8298" lon="-3.56445">
        <ele>69</ele>
        <time>2019-07-17T16:23:01Z</time>
      </trkpt>
      <trkpt lat="47.82975" lon="-3.56449">
        <ele>69</ele>
        <time>2019-07-17T16:23:02Z</time>
      </trkpt>
      <trkpt lat="47.82971" lon="-3.56453">
        <ele>69</ele>
        <time>2019-07-17T16:23:03Z</time>
      </trkpt>
      <trkpt lat="47.82965" lon="-3.56458">
        <ele>69</ele>
        <time>2019-07-17T16:23:04Z</time>
      </trkpt>
      <trkpt lat="47.8296" lon="-3.56462">
        <ele>69</ele>
        <time>2019-07-17T16:23:05Z</time>
      </trkpt>
      <trkpt lat="47.82955" lon="-3.56465">
        <ele>69</ele>
        <time>2019-07-17T16:23:06Z</time>
      </trkpt>
      <trkpt lat="47.82951" lon="-3.56468">
        <ele>69</ele>
        <time>2019-07-17T16:23:07Z</time>
      </trkpt>
      <trkpt lat="47.82946" lon="-3.56472">
        <ele>69</ele>
        <time>2019-07-17T16:23:08Z</time>
      </trkpt>
      <trkpt lat="47.82942" lon="-3.56476">
        <ele>69</ele>
        <time>2019-07-17T16:23:09Z</time>
      </trkpt>
      <trkpt lat="47.82938" lon="-3.5648">
        <ele>69</ele>
        <time>2019-07-17T16:23:10Z</time>
      </trkpt>
      <trkpt lat="47.82935" lon="-3.56483">
        <ele>69</ele>
        <time>2019-07-17T16:23:11Z</time>
      </trkpt>
      <trkpt lat="47.8293" lon="-3.56488">
        <ele>69</ele>
        <time>2019-07-17T16:23:12Z</time>
      </trkpt>
      <trkpt lat="47.82925" lon="-3.56493">
        <ele>69</ele>
        <time>2019-07-17T16:23:13Z</time>
      </trkpt>
      <trkpt lat="47.8292" lon="-3.56497">
        <ele>69</ele>
        <time>2019-07-17T16:23:14Z</time>
      </trkpt>
      <trkpt lat="47.82916" lon="-3.56503">
        <ele>69</ele>
        <time>2019-07-17T16:23:15Z</time>
      </trkpt>
      <trkpt lat="47.82911" lon="-3.56506">
        <ele>69</ele>
        <time>2019-07-17T16:23:16Z</time>
      </trkpt>
      <trkpt lat="47.82906" lon="-3.56511">
        <ele>69</ele>
        <time>2019-07-17T16:23:17Z</time>
      </trkpt>
      <trkpt lat="47.82901" lon="-3.56516">
        <ele>69</ele>
        <time>2019-07-17T16:23:18Z</time>
      </trkpt>
      <trkpt lat="47.82896" lon="-3.56522">
        <ele>69</ele>
        <time>2019-07-17T16:23:19Z</time>
      </trkpt>
      <trkpt lat="47.8289" lon="-3.56528">
        <ele>69</ele>
        <time>2019-07-17T16:23:20Z</time>
      </trkpt>
      <trkpt lat="47.82885" lon="-3.56534">
        <ele>70</ele>
        <time>2019-07-17T16:23:21Z</time>
      </trkpt>
      <trkpt lat="47.82879" lon="-3.5654">
        <ele>70</ele>
        <time>2019-07-17T16:23:22Z</time>
      </trkpt>
      <trkpt lat="47.82874" lon="-3.56545">
        <ele>70</ele>
        <time>2019-07-17T16:23:23Z</time>
      </trkpt>
      <trkpt lat="47.82868" lon="-3.56551">
        <ele>70</ele>
        <time>2019-07-17T16:23:24Z</time>
      </trkpt>
      <trkpt lat="47.82863" lon="-3.56556">
        <ele>70</ele>
        <time>2019-07-17T16:23:25Z</time>
      </trkpt>
      <trkpt lat="47.82857" lon="-3.56562">
        <ele>70</ele>
        <time>2019-07-17T16:23:26Z</time>
      </trkpt>
      <trkpt lat="47.82852" lon="-3.56567">
        <ele>70</ele>
        <time>2019-07-17T16:23:27Z</time>
      </trkpt>
      <trkpt lat="47.82847" lon="-3.5657">
        <ele>69</ele>
        <time>2019-07-17T16:23:28Z</time>
      </trkpt>
      <trkpt lat="47.82843" lon="-3.56572">
        <ele>69</ele>
        <time>2019-07-17T16:23:29Z</time>
      </trkpt>
      <trkpt lat="47.82839" lon="-3.56571">
        <ele>69</ele>
        <time>2019-07-17T16:23:30Z</time>
      </trkpt>
      <trkpt lat="47.82836" lon="-3.56569">
        <ele>69</ele>
        <time>2019-07-17T16:23:31Z</time>
      </trkpt>
      <trkpt lat="47.82833" lon="-3.56565">
        <ele>68</ele>
        <time>2019-07-17T16:23:32Z</time>
      </trkpt>
      <trkpt lat="47.8283" lon="-3.56562">
        <ele>68</ele>
        <time>2019-07-17T16:23:33Z</time>
      </trkpt>
      <trkpt lat="47.82826" lon="-3.56558">
        <ele>68</ele>
        <time>2019-07-17T16:23:34Z</time>
      </trkpt>
      <trkpt lat="47.82822" lon="-3.56555">
        <ele>67</ele>
        <time>2019-07-17T16:23:35Z</time>
      </trkpt>
      <trkpt lat="47.82818" lon="-3.56554">
        <ele>67</ele>
        <time>2019-07-17T16:23:36Z</time>
      </trkpt>
      <trkpt lat="47.82813" lon="-3.56555">
        <ele>66</ele>
        <time>2019-07-17T16:23:37Z</time>
      </trkpt>
      <trkpt lat="47.8281" lon="-3.56555">
        <ele>66</ele>
        <time>2019-07-17T16:23:38Z</time>
      </trkpt>
      <trkpt lat="47.82805" lon="-3.56555">
        <ele>66</ele>
        <time>2019-07-17T16:23:39Z</time>
      </trkpt>
      <trkpt lat="47.82801" lon="-3.56556">
        <ele>66</ele>
        <time>2019-07-17T16:23:40Z</time>
      </trkpt>
      <trkpt lat="47.82795" lon="-3.56556">
        <ele>66</ele>
        <time>2019-07-17T16:23:41Z</time>
      </trkpt>
      <trkpt lat="47.8279" lon="-3.56556">
        <ele>65</ele>
        <time>2019-07-17T16:23:42Z</time>
      </trkpt>
      <trkpt lat="47.82784" lon="-3.56555">
        <ele>65</ele>
        <time>2019-07-17T16:23:43Z</time>
      </trkpt>
      <trkpt lat="47.82778" lon="-3.56555">
        <ele>65</ele>
        <time>2019-07-17T16:23:44Z</time>
      </trkpt>
      <trkpt lat="47.82772" lon="-3.56554">
        <ele>65</ele>
        <time>2019-07-17T16:23:45Z</time>
      </trkpt>
      <trkpt lat="47.82766" lon="-3.56552">
        <ele>64</ele>
        <time>2019-07-17T16:23:46Z</time>
      </trkpt>
      <trkpt lat="47.82761" lon="-3.56549">
        <ele>64</ele>
        <time>2019-07-17T16:23:47Z</time>
      </trkpt>
      <trkpt lat="47.82757" lon="-3.56543">
        <ele>64</ele>
        <time>2019-07-17T16:23:48Z</time>
      </trkpt>
      <trkpt lat="47.82753" lon="-3.56537">
        <ele>63</ele>
        <time>2019-07-17T16:23:49Z</time>
      </trkpt>
      <trkpt lat="47.82751" lon="-3.5653">
        <ele>63</ele>
        <time>2019-07-17T16:23:50Z</time>
      </trkpt>
      <trkpt lat="47.8275" lon="-3.56523">
        <ele>62</ele>
        <time>2019-07-17T16:23:51Z</time>
      </trkpt>
      <trkpt lat="47.82748" lon="-3.56516">
        <ele>62</ele>
        <time>2019-07-17T16:23:52Z</time>
      </trkpt>
      <trkpt lat="47.82746" lon="-3.5651">
        <ele>62</ele>
        <time>2019-07-17T16:23:53Z</time>
      </trkpt>
      <trkpt lat="47.82744" lon="-3.56503">
        <ele>62</ele>
        <time>2019-07-17T16:23:54Z</time>
      </trkpt>
      <trkpt lat="47.82741" lon="-3.56497">
        <ele>61</ele>
        <time>2019-07-17T16:23:55Z</time>
      </trkpt>
      <trkpt lat="47.82737" lon="-3.5649">
        <ele>61</ele>
        <time>2019-07-17T16:23:56Z</time>
      </trkpt>
      <trkpt lat="47.82735" lon="-3.56484">
        <ele>61</ele>
        <time>2019-07-17T16:23:57Z</time>
      </trkpt>
      <trkpt lat="47.82731" lon="-3.56479">
        <ele>61</ele>
        <time>2019-07-17T16:23:58Z</time>
      </trkpt>
      <trkpt lat="47.82729" lon="-3.56472">
        <ele>61</ele>
        <time>2019-07-17T16:23:59Z</time>
      </trkpt>
      <trkpt lat="47.82727" lon="-3.56465">
        <ele>61</ele>
        <time>2019-07-17T16:24:00Z</time>
      </trkpt>
      <trkpt lat="47.82726" lon="-3.56458">
        <ele>60</ele>
        <time>2019-07-17T16:24:01Z</time>
      </trkpt>
      <trkpt lat="47.82726" lon="-3.56451">
        <ele>60</ele>
        <time>2019-07-17T16:24:02Z</time>
      </trkpt>
      <trkpt lat="47.82726" lon="-3.56443">
        <ele>60</ele>
        <time>2019-07-17T16:24:03Z</time>
      </trkpt>
      <trkpt lat="47.82725" lon="-3.56435">
        <ele>60</ele>
        <time>2019-07-17T16:24:04Z</time>
      </trkpt>
      <trkpt lat="47.82726" lon="-3.56428">
        <ele>60</ele>
        <time>2019-07-17T16:24:05Z</time>
      </trkpt>
      <trkpt lat="47.82726" lon="-3.56423">
        <ele>60</ele>
        <time>2019-07-17T16:24:06Z</time>
      </trkpt>
      <trkpt lat="47.82728" lon="-3.56419">
        <ele>60</ele>
        <time>2019-07-17T16:24:07Z</time>
      </trkpt>
      <trkpt lat="47.82729" lon="-3.56416">
        <ele>60</ele>
        <time>2019-07-17T16:24:08Z</time>
      </trkpt>
      <trkpt lat="47.82732" lon="-3.56414">
        <ele>59</ele>
        <time>2019-07-17T16:24:09Z</time>
      </trkpt>
      <trkpt lat="47.82734" lon="-3.5641">
        <ele>59</ele>
        <time>2019-07-17T16:24:10Z</time>
      </trkpt>
      <trkpt lat="47.82735" lon="-3.56407">
        <ele>59</ele>
        <time>2019-07-17T16:24:11Z</time>
      </trkpt>
      <trkpt lat="47.82736" lon="-3.56402">
        <ele>59</ele>
        <time>2019-07-17T16:24:12Z</time>
      </trkpt>
      <trkpt lat="47.82736" lon="-3.56395">
        <ele>59</ele>
        <time>2019-07-17T16:24:13Z</time>
      </trkpt>
      <trkpt lat="47.82736" lon="-3.56388">
        <ele>59</ele>
        <time>2019-07-17T16:24:14Z</time>
      </trkpt>
      <trkpt lat="47.82736" lon="-3.56382">
        <ele>59</ele>
        <time>2019-07-17T16:24:15Z</time>
      </trkpt>
      <trkpt lat="47.82736" lon="-3.56377">
        <ele>59</ele>
        <time>2019-07-17T16:24:16Z</time>
      </trkpt>
      <trkpt lat="47.82734" lon="-3.56372">
        <ele>59</ele>
        <time>2019-07-17T16:24:17Z</time>
      </trkpt>
      <trkpt lat="47.82732" lon="-3.56368">
        <ele>59</ele>
        <time>2019-07-17T16:24:18Z</time>
      </trkpt>
      <trkpt lat="47.82729" lon="-3.56364">
        <ele>59</ele>
        <time>2019-07-17T16:24:19Z</time>
      </trkpt>
      <trkpt lat="47.82725" lon="-3.56362">
        <ele>59</ele>
        <time>2019-07-17T16:24:20Z</time>
      </trkpt>
      <trkpt lat="47.8272" lon="-3.56362">
        <ele>59</ele>
        <time>2019-07-17T16:24:21Z</time>
      </trkpt>
      <trkpt lat="47.82717" lon="-3.56362">
        <ele>59</ele>
        <time>2019-07-17T16:24:22Z</time>
      </trkpt>
      <trkpt lat="47.82715" lon="-3.56362">
        <ele>59</ele>
        <time>2019-07-17T16:24:23Z</time>
      </trkpt>
      <trkpt lat="47.82713" lon="-3.56362">
        <ele>59</ele>
        <time>2019-07-17T16:24:24Z</time>
      </trkpt>
      <trkpt lat="47.82712" lon="-3.56362">
        <ele>59</ele>
        <time>2019-07-17T16:24:25Z</time>
      </trkpt>
      <trkpt lat="47.82711" lon="-3.5636">
        <ele>59</ele>
        <time>2019-07-17T16:24:26Z</time>
      </trkpt>
      <trkpt lat="47.8271" lon="-3.56359">
        <ele>59</ele>
        <time>2019-07-17T16:24:27Z</time>
      </trkpt>
      <trkpt lat="47.82707" lon="-3.56358">
        <ele>59</ele>
        <time>2019-07-17T16:24:28Z</time>
      </trkpt>
      <trkpt lat="47.82705" lon="-3.56356">
        <ele>59</ele>
        <time>2019-07-17T16:24:29Z</time>
      </trkpt>
      <trkpt lat="47.82703" lon="-3.56355">
        <ele>59</ele>
        <time>2019-07-17T16:24:30Z</time>
      </trkpt>
      <trkpt lat="47.827" lon="-3.56353">
        <ele>59</ele>
        <time>2019-07-17T16:24:31Z</time>
      </trkpt>
      <trkpt lat="47.82699" lon="-3.56351">
        <ele>59</ele>
        <time>2019-07-17T16:24:32Z</time>
      </trkpt>
      <trkpt lat="47.82697" lon="-3.56348">
        <ele>59</ele>
        <time>2019-07-17T16:24:33Z</time>
      </trkpt>
      <trkpt lat="47.82695" lon="-3.56344">
        <ele>59</ele>
        <time>2019-07-17T16:24:34Z</time>
      </trkpt>
      <trkpt lat="47.82693" lon="-3.56339">
        <ele>59</ele>
        <time>2019-07-17T16:24:35Z</time>
      </trkpt>
      <trkpt lat="47.82691" lon="-3.56334">
        <ele>59</ele>
        <time>2019-07-17T16:24:36Z</time>
      </trkpt>
      <trkpt lat="47.82689" lon="-3.56327">
        <ele>59</ele>
        <time>2019-07-17T16:24:37Z</time>
      </trkpt>
      <trkpt lat="47.82687" lon="-3.56322">
        <ele>59</ele>
        <time>2019-07-17T16:24:38Z</time>
      </trkpt>
      <trkpt lat="47.82686" lon="-3.56316">
        <ele>58</ele>
        <time>2019-07-17T16:24:39Z</time>
      </trkpt>
      <trkpt lat="47.82686" lon="-3.56311">
        <ele>58</ele>
        <time>2019-07-17T16:24:40Z</time>
      </trkpt>
      <trkpt lat="47.82686" lon="-3.56307">
        <ele>58</ele>
        <time>2019-07-17T16:24:41Z</time>
      </trkpt>
      <trkpt lat="47.82686" lon="-3.56302">
        <ele>58</ele>
        <time>2019-07-17T16:24:42Z</time>
      </trkpt>
      <trkpt lat="47.82685" lon="-3.56297">
        <ele>58</ele>
        <time>2019-07-17T16:24:43Z</time>
      </trkpt>
      <trkpt lat="47.82686" lon="-3.56293">
        <ele>58</ele>
        <time>2019-07-17T16:24:44Z</time>
      </trkpt>
      <trkpt lat="47.82686" lon="-3.56289">
        <ele>58</ele>
        <time>2019-07-17T16:24:45Z</time>
      </trkpt>
      <trkpt lat="47.82687" lon="-3.56284">
        <ele>58</ele>
        <time>2019-07-17T16:24:46Z</time>
      </trkpt>
      <trkpt lat="47.82687" lon="-3.56279">
        <ele>58</ele>
        <time>2019-07-17T16:24:47Z</time>
      </trkpt>
      <trkpt lat="47.82688" lon="-3.56275">
        <ele>58</ele>
        <time>2019-07-17T16:24:48Z</time>
      </trkpt>
      <trkpt lat="47.82688" lon="-3.5627">
        <ele>58</ele>
        <time>2019-07-17T16:24:49Z</time>
      </trkpt>
      <trkpt lat="47.82688" lon="-3.56263">
        <ele>58</ele>
        <time>2019-07-17T16:24:50Z</time>
      </trkpt>
      <trkpt lat="47.82687" lon="-3.56256">
        <ele>58</ele>
        <time>2019-07-17T16:24:51Z</time>
      </trkpt>
      <trkpt lat="47.82686" lon="-3.56249">
        <ele>58</ele>
        <time>2019-07-17T16:24:52Z</time>
      </trkpt>
      <trkpt lat="47.82684" lon="-3.56241">
        <ele>58</ele>
        <time>2019-07-17T16:24:53Z</time>
      </trkpt>
      <trkpt lat="47.82682" lon="-3.56235">
        <ele>58</ele>
        <time>2019-07-17T16:24:54Z</time>
      </trkpt>
      <trkpt lat="47.82679" lon="-3.5623">
        <ele>58</ele>
        <time>2019-07-17T16:24:55Z</time>
      </trkpt>
      <trkpt lat="47.82675" lon="-3.56225">
        <ele>58</ele>
        <time>2019-07-17T16:24:56Z</time>
      </trkpt>
      <trkpt lat="47.8267" lon="-3.5622">
        <ele>58</ele>
        <time>2019-07-17T16:24:57Z</time>
      </trkpt>
      <trkpt lat="47.82666" lon="-3.56217">
        <ele>58</ele>
        <time>2019-07-17T16:24:58Z</time>
      </trkpt>
      <trkpt lat="47.82662" lon="-3.56217">
        <ele>58</ele>
        <time>2019-07-17T16:24:59Z</time>
      </trkpt>
      <trkpt lat="47.82658" lon="-3.56217">
        <ele>58</ele>
        <time>2019-07-17T16:25:00Z</time>
      </trkpt>
      <trkpt lat="47.82655" lon="-3.56219">
        <ele>58</ele>
        <time>2019-07-17T16:25:01Z</time>
      </trkpt>
      <trkpt lat="47.8265" lon="-3.56222">
        <ele>58</ele>
        <time>2019-07-17T16:25:02Z</time>
      </trkpt>
      <trkpt lat="47.82646" lon="-3.56224">
        <ele>58</ele>
        <time>2019-07-17T16:25:03Z</time>
      </trkpt>
      <trkpt lat="47.82641" lon="-3.56227">
        <ele>59</ele>
        <time>2019-07-17T16:25:04Z</time>
      </trkpt>
      <trkpt lat="47.82638" lon="-3.5623">
        <ele>59</ele>
        <time>2019-07-17T16:25:05Z</time>
      </trkpt>
      <trkpt lat="47.82635" lon="-3.56233">
        <ele>59</ele>
        <time>2019-07-17T16:25:06Z</time>
      </trkpt>
      <trkpt lat="47.82631" lon="-3.56236">
        <ele>59</ele>
        <time>2019-07-17T16:25:07Z</time>
      </trkpt>
      <trkpt lat="47.82628" lon="-3.56239">
        <ele>60</ele>
        <time>2019-07-17T16:25:08Z</time>
      </trkpt>
      <trkpt lat="47.82625" lon="-3.56242">
        <ele>60</ele>
        <time>2019-07-17T16:25:09Z</time>
      </trkpt>
      <trkpt lat="47.82623" lon="-3.56244">
        <ele>60</ele>
        <time>2019-07-17T16:25:10Z</time>
      </trkpt>
      <trkpt lat="47.8262" lon="-3.56246">
        <ele>61</ele>
        <time>2019-07-17T16:25:11Z</time>
      </trkpt>
      <trkpt lat="47.82617" lon="-3.56247">
        <ele>61</ele>
        <time>2019-07-17T16:25:12Z</time>
      </trkpt>
      <trkpt lat="47.82615" lon="-3.56247">
        <ele>61</ele>
        <time>2019-07-17T16:25:13Z</time>
      </trkpt>
      <trkpt lat="47.82612" lon="-3.56249">
        <ele>61</ele>
        <time>2019-07-17T16:25:14Z</time>
      </trkpt>
      <trkpt lat="47.8261" lon="-3.56249">
        <ele>61</ele>
        <time>2019-07-17T16:25:15Z</time>
      </trkpt>
      <trkpt lat="47.82607" lon="-3.56249">
        <ele>62</ele>
        <time>2019-07-17T16:25:16Z</time>
      </trkpt>
      <trkpt lat="47.82605" lon="-3.56249">
        <ele>62</ele>
        <time>2019-07-17T16:25:17Z</time>
      </trkpt>
      <trkpt lat="47.82603" lon="-3.5625">
        <ele>62</ele>
        <time>2019-07-17T16:25:18Z</time>
      </trkpt>
      <trkpt lat="47.82601" lon="-3.56252">
        <ele>62</ele>
        <time>2019-07-17T16:25:19Z</time>
      </trkpt>
      <trkpt lat="47.82599" lon="-3.56253">
        <ele>63</ele>
        <time>2019-07-17T16:25:20Z</time>
      </trkpt>
      <trkpt lat="47.82597" lon="-3.56256">
        <ele>63</ele>
        <time>2019-07-17T16:25:21Z</time>
      </trkpt>
      <trkpt lat="47.82595" lon="-3.56258">
        <ele>63</ele>
        <time>2019-07-17T16:25:22Z</time>
      </trkpt>
      <trkpt lat="47.82594" lon="-3.5626">
        <ele>64</ele>
        <time>2019-07-17T16:25:23Z</time>
      </trkpt>
      <trkpt lat="47.82592" lon="-3.56262">
        <ele>64</ele>
        <time>2019-07-17T16:25:24Z</time>
      </trkpt>
      <trkpt lat="47.8259" lon="-3.56264">
        <ele>64</ele>
        <time>2019-07-17T16:25:25Z</time>
      </trkpt>
      <trkpt lat="47.82589" lon="-3.56266">
        <ele>64</ele>
        <time>2019-07-17T16:25:26Z</time>
      </trkpt>
      <trkpt lat="47.82588" lon="-3.56268">
        <ele>65</ele>
        <time>2019-07-17T16:25:27Z</time>
      </trkpt>
      <trkpt lat="47.82586" lon="-3.5627">
        <ele>65</ele>
        <time>2019-07-17T16:25:28Z</time>
      </trkpt>
      <trkpt lat="47.82585" lon="-3.56273">
        <ele>65</ele>
        <time>2019-07-17T16:25:29Z</time>
      </trkpt>
      <trkpt lat="47.82585" lon="-3.56275">
        <ele>65</ele>
        <time>2019-07-17T16:25:30Z</time>
      </trkpt>
      <trkpt lat="47.82584" lon="-3.56278">
        <ele>65</ele>
        <time>2019-07-17T16:25:31Z</time>
      </trkpt>
      <trkpt lat="47.82584" lon="-3.56281">
        <ele>65</ele>
        <time>2019-07-17T16:25:32Z</time>
      </trkpt>
      <trkpt lat="47.82583" lon="-3.56285">
        <ele>65</ele>
        <time>2019-07-17T16:25:33Z</time>
      </trkpt>
      <trkpt lat="47.82583" lon="-3.56288">
        <ele>65</ele>
        <time>2019-07-17T16:25:34Z</time>
      </trkpt>
      <trkpt lat="47.82583" lon="-3.56292">
        <ele>65</ele>
        <time>2019-07-17T16:25:35Z</time>
      </trkpt>
      <trkpt lat="47.82582" lon="-3.56296">
        <ele>65</ele>
        <time>2019-07-17T16:25:36Z</time>
      </trkpt>
      <trkpt lat="47.82582" lon="-3.56299">
        <ele>65</ele>
        <time>2019-07-17T16:25:37Z</time>
      </trkpt>
      <trkpt lat="47.82582" lon="-3.56302">
        <ele>65</ele>
        <time>2019-07-17T16:25:38Z</time>
      </trkpt>
      <trkpt lat="47.82582" lon="-3.56305">
        <ele>65</ele>
        <time>2019-07-17T16:25:39Z</time>
      </trkpt>
      <trkpt lat="47.82582" lon="-3.56308">
        <ele>65</ele>
        <time>2019-07-17T16:25:40Z</time>
      </trkpt>
      <trkpt lat="47.82582" lon="-3.56311">
        <ele>65</ele>
        <time>2019-07-17T16:25:41Z</time>
      </trkpt>
      <trkpt lat="47.82582" lon="-3.56315">
        <ele>65</ele>
        <time>2019-07-17T16:25:42Z</time>
      </trkpt>
      <trkpt lat="47.82582" lon="-3.56318">
        <ele>65</ele>
        <time>2019-07-17T16:25:43Z</time>
      </trkpt>
      <trkpt lat="47.82582" lon="-3.56322">
        <ele>65</ele>
        <time>2019-07-17T16:25:44Z</time>
      </trkpt>
      <trkpt lat="47.82582" lon="-3.56326">
        <ele>65</ele>
        <time>2019-07-17T16:25:45Z</time>
      </trkpt>
      <trkpt lat="47.82582" lon="-3.56329">
        <ele>65</ele>
        <time>2019-07-17T16:25:46Z</time>
      </trkpt>
      <trkpt lat="47.82582" lon="-3.56333">
        <ele>65</ele>
        <time>2019-07-17T16:25:47Z</time>
      </trkpt>
      <trkpt lat="47.82582" lon="-3.56337">
        <ele>65</ele>
        <time>2019-07-17T16:25:48Z</time>
      </trkpt>
      <trkpt lat="47.82582" lon="-3.56341">
        <ele>65</ele>
        <time>2019-07-17T16:25:49Z</time>
      </trkpt>
      <trkpt lat="47.82582" lon="-3.56345">
        <ele>65</ele>
        <time>2019-07-17T16:25:50Z</time>
      </trkpt>
      <trkpt lat="47.82582" lon="-3.56349">
        <ele>65</ele>
        <time>2019-07-17T16:25:51Z</time>
      </trkpt>
      <trkpt lat="47.82582" lon="-3.56354">
        <ele>65</ele>
        <time>2019-07-17T16:25:52Z</time>
      </trkpt>
      <trkpt lat="47.82581" lon="-3.56359">
        <ele>66</ele>
        <time>2019-07-17T16:25:53Z</time>
      </trkpt>
      <trkpt lat="47.82581" lon="-3.56364">
        <ele>66</ele>
        <time>2019-07-17T16:25:54Z</time>
      </trkpt>
      <trkpt lat="47.82582" lon="-3.56369">
        <ele>66</ele>
        <time>2019-07-17T16:25:55Z</time>
      </trkpt>
      <trkpt lat="47.82582" lon="-3.56373">
        <ele>66</ele>
        <time>2019-07-17T16:25:56Z</time>
      </trkpt>
      <trkpt lat="47.82582" lon="-3.56378">
        <ele>66</ele>
        <time>2019-07-17T16:25:57Z</time>
      </trkpt>
      <trkpt lat="47.82582" lon="-3.56383">
        <ele>66</ele>
        <time>2019-07-17T16:25:58Z</time>
      </trkpt>
      <trkpt lat="47.82582" lon="-3.56388">
        <ele>66</ele>
        <time>2019-07-17T16:25:59Z</time>
      </trkpt>
      <trkpt lat="47.82582" lon="-3.56392">
        <ele>66</ele>
        <time>2019-07-17T16:26:00Z</time>
      </trkpt>
      <trkpt lat="47.82583" lon="-3.56398">
        <ele>66</ele>
        <time>2019-07-17T16:26:01Z</time>
      </trkpt>
      <trkpt lat="47.82582" lon="-3.56404">
        <ele>66</ele>
        <time>2019-07-17T16:26:02Z</time>
      </trkpt>
      <trkpt lat="47.82582" lon="-3.5641">
        <ele>66</ele>
        <time>2019-07-17T16:26:03Z</time>
      </trkpt>
      <trkpt lat="47.82582" lon="-3.56417">
        <ele>66</ele>
        <time>2019-07-17T16:26:04Z</time>
      </trkpt>
      <trkpt lat="47.82582" lon="-3.56422">
        <ele>66</ele>
        <time>2019-07-17T16:26:05Z</time>
      </trkpt>
      <trkpt lat="47.82582" lon="-3.56428">
        <ele>66</ele>
        <time>2019-07-17T16:26:06Z</time>
      </trkpt>
      <trkpt lat="47.82582" lon="-3.56434">
        <ele>66</ele>
        <time>2019-07-17T16:26:07Z</time>
      </trkpt>
      <trkpt lat="47.82581" lon="-3.5644">
        <ele>66</ele>
        <time>2019-07-17T16:26:08Z</time>
      </trkpt>
      <trkpt lat="47.8258" lon="-3.56447">
        <ele>66</ele>
        <time>2019-07-17T16:26:09Z</time>
      </trkpt>
      <trkpt lat="47.82579" lon="-3.56454">
        <ele>67</ele>
        <time>2019-07-17T16:26:10Z</time>
      </trkpt>
      <trkpt lat="47.82579" lon="-3.5646">
        <ele>67</ele>
        <time>2019-07-17T16:26:11Z</time>
      </trkpt>
      <trkpt lat="47.82578" lon="-3.56466">
        <ele>67</ele>
        <time>2019-07-17T16:26:12Z</time>
      </trkpt>
      <trkpt lat="47.82577" lon="-3.56471">
        <ele>67</ele>
        <time>2019-07-17T16:26:13Z</time>
      </trkpt>
      <trkpt lat="47.82577" lon="-3.56475">
        <ele>67</ele>
        <time>2019-07-17T16:26:14Z</time>
      </trkpt>
      <trkpt lat="47.82576" lon="-3.5648">
        <ele>67</ele>
        <time>2019-07-17T16:26:15Z</time>
      </trkpt>
      <trkpt lat="47.82575" lon="-3.56485">
        <ele>68</ele>
        <time>2019-07-17T16:26:16Z</time>
      </trkpt>
      <trkpt lat="47.82574" lon="-3.56491">
        <ele>68</ele>
        <time>2019-07-17T16:26:17Z</time>
      </trkpt>
      <trkpt lat="47.82574" lon="-3.56498">
        <ele>68</ele>
        <time>2019-07-17T16:26:18Z</time>
      </trkpt>
      <trkpt lat="47.82573" lon="-3.56505">
        <ele>68</ele>
        <time>2019-07-17T16:26:19Z</time>
      </trkpt>
      <trkpt lat="47.82572" lon="-3.56512">
        <ele>68</ele>
        <time>2019-07-17T16:26:20Z</time>
      </trkpt>
      <trkpt lat="47.82571" lon="-3.56519">
        <ele>68</ele>
        <time>2019-07-17T16:26:21Z</time>
      </trkpt>
      <trkpt lat="47.8257" lon="-3.56526">
        <ele>68</ele>
        <time>2019-07-17T16:26:22Z</time>
      </trkpt>
      <trkpt lat="47.82569" lon="-3.56534">
        <ele>68</ele>
        <time>2019-07-17T16:26:23Z</time>
      </trkpt>
      <trkpt lat="47.82568" lon="-3.56541">
        <ele>68</ele>
        <time>2019-07-17T16:26:24Z</time>
      </trkpt>
      <trkpt lat="47.82567" lon="-3.56549">
        <ele>69</ele>
        <time>2019-07-17T16:26:25Z</time>
      </trkpt>
      <trkpt lat="47.82565" lon="-3.56556">
        <ele>69</ele>
        <time>2019-07-17T16:26:26Z</time>
      </trkpt>
      <trkpt lat="47.82563" lon="-3.56563">
        <ele>69</ele>
        <time>2019-07-17T16:26:27Z</time>
      </trkpt>
      <trkpt lat="47.8256" lon="-3.56569">
        <ele>69</ele>
        <time>2019-07-17T16:26:28Z</time>
      </trkpt>
      <trkpt lat="47.82557" lon="-3.56574">
        <ele>69</ele>
        <time>2019-07-17T16:26:29Z</time>
      </trkpt>
      <trkpt lat="47.82555" lon="-3.56579">
        <ele>69</ele>
        <time>2019-07-17T16:26:30Z</time>
      </trkpt>
      <trkpt lat="47.82553" lon="-3.56585">
        <ele>69</ele>
        <time>2019-07-17T16:26:31Z</time>
      </trkpt>
      <trkpt lat="47.82552" lon="-3.5659">
        <ele>69</ele>
        <time>2019-07-17T16:26:32Z</time>
      </trkpt>
      <trkpt lat="47.82552" lon="-3.56595">
        <ele>70</ele>
        <time>2019-07-17T16:26:33Z</time>
      </trkpt>
      <trkpt lat="47.82551" lon="-3.566">
        <ele>70</ele>
        <time>2019-07-17T16:26:34Z</time>
      </trkpt>
      <trkpt lat="47.8255" lon="-3.56605">
        <ele>70</ele>
        <time>2019-07-17T16:26:35Z</time>
      </trkpt>
      <trkpt lat="47.82549" lon="-3.56611">
        <ele>70</ele>
        <time>2019-07-17T16:26:36Z</time>
      </trkpt>
      <trkpt lat="47.82549" lon="-3.56617">
        <ele>70</ele>
        <time>2019-07-17T16:26:37Z</time>
      </trkpt>
      <trkpt lat="47.82547" lon="-3.56622">
        <ele>70</ele>
        <time>2019-07-17T16:26:38Z</time>
      </trkpt>
      <trkpt lat="47.82546" lon="-3.56627">
        <ele>70</ele>
        <time>2019-07-17T16:26:39Z</time>
      </trkpt>
      <trkpt lat="47.82545" lon="-3.56631">
        <ele>71</ele>
        <time>2019-07-17T16:26:40Z</time>
      </trkpt>
      <trkpt lat="47.82544" lon="-3.56637">
        <ele>71</ele>
        <time>2019-07-17T16:26:41Z</time>
      </trkpt>
      <trkpt lat="47.82542" lon="-3.56643">
        <ele>71</ele>
        <time>2019-07-17T16:26:42Z</time>
      </trkpt>
      <trkpt lat="47.82539" lon="-3.56647">
        <ele>71</ele>
        <time>2019-07-17T16:26:43Z</time>
      </trkpt>
      <trkpt lat="47.82537" lon="-3.56653">
        <ele>71</ele>
        <time>2019-07-17T16:26:44Z</time>
      </trkpt>
      <trkpt lat="47.82535" lon="-3.56658">
        <ele>71</ele>
        <time>2019-07-17T16:26:45Z</time>
      </trkpt>
      <trkpt lat="47.82533" lon="-3.56665">
        <ele>72</ele>
        <time>2019-07-17T16:26:46Z</time>
      </trkpt>
      <trkpt lat="47.82531" lon="-3.56669">
        <ele>72</ele>
        <time>2019-07-17T16:26:47Z</time>
      </trkpt>
      <trkpt lat="47.82529" lon="-3.56674">
        <ele>72</ele>
        <time>2019-07-17T16:26:48Z</time>
      </trkpt>
      <trkpt lat="47.82528" lon="-3.56679">
        <ele>72</ele>
        <time>2019-07-17T16:26:49Z</time>
      </trkpt>
      <trkpt lat="47.82526" lon="-3.56686">
        <ele>73</ele>
        <time>2019-07-17T16:26:50Z</time>
      </trkpt>
      <trkpt lat="47.82524" lon="-3.56692">
        <ele>73</ele>
        <time>2019-07-17T16:26:51Z</time>
      </trkpt>
      <trkpt lat="47.82523" lon="-3.56698">
        <ele>73</ele>
        <time>2019-07-17T16:26:52Z</time>
      </trkpt>
      <trkpt lat="47.82522" lon="-3.56704">
        <ele>73</ele>
        <time>2019-07-17T16:26:53Z</time>
      </trkpt>
      <trkpt lat="47.8252" lon="-3.56709">
        <ele>73</ele>
        <time>2019-07-17T16:26:54Z</time>
      </trkpt>
      <trkpt lat="47.82519" lon="-3.56714">
        <ele>73</ele>
        <time>2019-07-17T16:26:55Z</time>
      </trkpt>
      <trkpt lat="47.82516" lon="-3.56718">
        <ele>73</ele>
        <time>2019-07-17T16:26:56Z</time>
      </trkpt>
      <trkpt lat="47.82514" lon="-3.5672">
        <ele>73</ele>
        <time>2019-07-17T16:26:57Z</time>
      </trkpt>
      <trkpt lat="47.82512" lon="-3.56722">
        <ele>73</ele>
        <time>2019-07-17T16:26:58Z</time>
      </trkpt>
      <trkpt lat="47.8251" lon="-3.56722">
        <ele>74</ele>
        <time>2019-07-17T16:26:59Z</time>
      </trkpt>
      <trkpt lat="47.82509" lon="-3.56723">
        <ele>74</ele>
        <time>2019-07-17T16:27:00Z</time>
      </trkpt>
      <trkpt lat="47.82509" lon="-3.56723">
        <ele>74</ele>
        <time>2019-07-17T16:27:01Z</time>
      </trkpt>
      <trkpt lat="47.82509" lon="-3.56724">
        <ele>74</ele>
        <time>2019-07-17T16:27:02Z</time>
      </trkpt>
      <trkpt lat="47.82504" lon="-3.56723">
        <ele>74</ele>
        <time>2019-07-17T16:27:03Z</time>
      </trkpt>
      <trkpt lat="47.82502" lon="-3.56723">
        <ele>73</ele>
        <time>2019-07-17T16:27:04Z</time>
      </trkpt>
      <trkpt lat="47.82499" lon="-3.56722">
        <ele>73</ele>
        <time>2019-07-17T16:27:05Z</time>
      </trkpt>
      <trkpt lat="47.82495" lon="-3.56722">
        <ele>73</ele>
        <time>2019-07-17T16:27:06Z</time>
      </trkpt>
      <trkpt lat="47.82492" lon="-3.56721">
        <ele>73</ele>
        <time>2019-07-17T16:27:07Z</time>
      </trkpt>
      <trkpt lat="47.82488" lon="-3.5672">
        <ele>73</ele>
        <time>2019-07-17T16:27:08Z</time>
      </trkpt>
      <trkpt lat="47.82483" lon="-3.56719">
        <ele>73</ele>
        <time>2019-07-17T16:27:09Z</time>
      </trkpt>
      <trkpt lat="47.8248" lon="-3.56717">
        <ele>73</ele>
        <time>2019-07-17T16:27:10Z</time>
      </trkpt>
      <trkpt lat="47.82476" lon="-3.56716">
        <ele>73</ele>
        <time>2019-07-17T16:27:11Z</time>
      </trkpt>
      <trkpt lat="47.82472" lon="-3.56715">
        <ele>73</ele>
        <time>2019-07-17T16:27:12Z</time>
      </trkpt>
      <trkpt lat="47.82469" lon="-3.56714">
        <ele>73</ele>
        <time>2019-07-17T16:27:13Z</time>
      </trkpt>
      <trkpt lat="47.82464" lon="-3.56712">
        <ele>73</ele>
        <time>2019-07-17T16:27:14Z</time>
      </trkpt>
      <trkpt lat="47.8246" lon="-3.56711">
        <ele>73</ele>
        <time>2019-07-17T16:27:15Z</time>
      </trkpt>
      <trkpt lat="47.82456" lon="-3.56709">
        <ele>73</ele>
        <time>2019-07-17T16:27:16Z</time>
      </trkpt>
      <trkpt lat="47.82452" lon="-3.56709">
        <ele>73</ele>
        <time>2019-07-17T16:27:17Z</time>
      </trkpt>
      <trkpt lat="47.82447" lon="-3.56709">
        <ele>73</ele>
        <time>2019-07-17T16:27:18Z</time>
      </trkpt>
      <trkpt lat="47.82443" lon="-3.56708">
        <ele>73</ele>
        <time>2019-07-17T16:27:19Z</time>
      </trkpt>
      <trkpt lat="47.8244" lon="-3.56708">
        <ele>73</ele>
        <time>2019-07-17T16:27:20Z</time>
      </trkpt>
      <trkpt lat="47.82436" lon="-3.56706">
        <ele>73</ele>
        <time>2019-07-17T16:27:21Z</time>
      </trkpt>
      <trkpt lat="47.82432" lon="-3.56705">
        <ele>73</ele>
        <time>2019-07-17T16:27:22Z</time>
      </trkpt>
      <trkpt lat="47.82428" lon="-3.56703">
        <ele>73</ele>
        <time>2019-07-17T16:27:23Z</time>
      </trkpt>
      <trkpt lat="47.82424" lon="-3.56703">
        <ele>73</ele>
        <time>2019-07-17T16:27:24Z</time>
      </trkpt>
      <trkpt lat="47.82419" lon="-3.56704">
        <ele>73</ele>
        <time>2019-07-17T16:27:25Z</time>
      </trkpt>
      <trkpt lat="47.82415" lon="-3.56706">
        <ele>73</ele>
        <time>2019-07-17T16:27:26Z</time>
      </trkpt>
      <trkpt lat="47.8241" lon="-3.56708">
        <ele>73</ele>
        <time>2019-07-17T16:27:27Z</time>
      </trkpt>
      <trkpt lat="47.82406" lon="-3.56711">
        <ele>73</ele>
        <time>2019-07-17T16:27:28Z</time>
      </trkpt>
      <trkpt lat="47.82402" lon="-3.56712">
        <ele>73</ele>
        <time>2019-07-17T16:27:29Z</time>
      </trkpt>
      <trkpt lat="47.82398" lon="-3.56712">
        <ele>73</ele>
        <time>2019-07-17T16:27:30Z</time>
      </trkpt>
      <trkpt lat="47.82395" lon="-3.56711">
        <ele>73</ele>
        <time>2019-07-17T16:27:31Z</time>
      </trkpt>
      <trkpt lat="47.82391" lon="-3.5671">
        <ele>73</ele>
        <time>2019-07-17T16:27:32Z</time>
      </trkpt>
      <trkpt lat="47.82386" lon="-3.56709">
        <ele>73</ele>
        <time>2019-07-17T16:27:33Z</time>
      </trkpt>
      <trkpt lat="47.82381" lon="-3.56709">
        <ele>73</ele>
        <time>2019-07-17T16:27:34Z</time>
      </trkpt>
      <trkpt lat="47.82376" lon="-3.56707">
        <ele>73</ele>
        <time>2019-07-17T16:27:35Z</time>
      </trkpt>
      <trkpt lat="47.82371" lon="-3.56705">
        <ele>73</ele>
        <time>2019-07-17T16:27:36Z</time>
      </trkpt>
      <trkpt lat="47.82366" lon="-3.56705">
        <ele>73</ele>
        <time>2019-07-17T16:27:37Z</time>
      </trkpt>
      <trkpt lat="47.82363" lon="-3.56707">
        <ele>73</ele>
        <time>2019-07-17T16:27:38Z</time>
      </trkpt>
      <trkpt lat="47.8236" lon="-3.5671">
        <ele>73</ele>
        <time>2019-07-17T16:27:39Z</time>
      </trkpt>
      <trkpt lat="47.82357" lon="-3.56711">
        <ele>73</ele>
        <time>2019-07-17T16:27:40Z</time>
      </trkpt>
      <trkpt lat="47.82353" lon="-3.56713">
        <ele>73</ele>
        <time>2019-07-17T16:27:41Z</time>
      </trkpt>
      <trkpt lat="47.82349" lon="-3.56716">
        <ele>73</ele>
        <time>2019-07-17T16:27:42Z</time>
      </trkpt>
      <trkpt lat="47.82344" lon="-3.56718">
        <ele>73</ele>
        <time>2019-07-17T16:27:43Z</time>
      </trkpt>
      <trkpt lat="47.8234" lon="-3.5672">
        <ele>73</ele>
        <time>2019-07-17T16:27:44Z</time>
      </trkpt>
      <trkpt lat="47.82337" lon="-3.56723">
        <ele>73</ele>
        <time>2019-07-17T16:27:45Z</time>
      </trkpt>
      <trkpt lat="47.82335" lon="-3.56727">
        <ele>73</ele>
        <time>2019-07-17T16:27:46Z</time>
      </trkpt>
      <trkpt lat="47.82332" lon="-3.56731">
        <ele>73</ele>
        <time>2019-07-17T16:27:47Z</time>
      </trkpt>
      <trkpt lat="47.82329" lon="-3.56735">
        <ele>73</ele>
        <time>2019-07-17T16:27:48Z</time>
      </trkpt>
      <trkpt lat="47.82325" lon="-3.56739">
        <ele>73</ele>
        <time>2019-07-17T16:27:49Z</time>
      </trkpt>
      <trkpt lat="47.82322" lon="-3.56744">
        <ele>73</ele>
        <time>2019-07-17T16:27:50Z</time>
      </trkpt>
      <trkpt lat="47.82318" lon="-3.5675">
        <ele>73</ele>
        <time>2019-07-17T16:27:51Z</time>
      </trkpt>
      <trkpt lat="47.82315" lon="-3.56757">
        <ele>73</ele>
        <time>2019-07-17T16:27:52Z</time>
      </trkpt>
      <trkpt lat="47.82313" lon="-3.56764">
        <ele>73</ele>
        <time>2019-07-17T16:27:53Z</time>
      </trkpt>
      <trkpt lat="47.82311" lon="-3.56771">
        <ele>73</ele>
        <time>2019-07-17T16:27:54Z</time>
      </trkpt>
      <trkpt lat="47.8231" lon="-3.56779">
        <ele>73</ele>
        <time>2019-07-17T16:27:55Z</time>
      </trkpt>
      <trkpt lat="47.82309" lon="-3.56785">
        <ele>73</ele>
        <time>2019-07-17T16:27:56Z</time>
      </trkpt>
      <trkpt lat="47.82308" lon="-3.56789">
        <ele>73</ele>
        <time>2019-07-17T16:27:57Z</time>
      </trkpt>
      <trkpt lat="47.82308" lon="-3.56792">
        <ele>73</ele>
        <time>2019-07-17T16:27:58Z</time>
      </trkpt>
      <trkpt lat="47.82308" lon="-3.56794">
        <ele>73</ele>
        <time>2019-07-17T16:27:59Z</time>
      </trkpt>
      <trkpt lat="47.82308" lon="-3.56794">
        <ele>72</ele>
        <time>2019-07-17T16:28:00Z</time>
      </trkpt>
      <trkpt lat="47.82308" lon="-3.56795">
        <ele>72</ele>
        <time>2019-07-17T16:28:01Z</time>
      </trkpt>
      <trkpt lat="47.82308" lon="-3.56795">
        <ele>72</ele>
        <time>2019-07-17T16:28:02Z</time>
      </trkpt>
      <trkpt lat="47.82308" lon="-3.5679">
        <ele>71</ele>
        <time>2019-07-17T16:28:03Z</time>
      </trkpt>
      <trkpt lat="47.82308" lon="-3.56785">
        <ele>71</ele>
        <time>2019-07-17T16:28:04Z</time>
      </trkpt>
      <trkpt lat="47.82306" lon="-3.56782">
        <ele>71</ele>
        <time>2019-07-17T16:28:05Z</time>
      </trkpt>
      <trkpt lat="47.82305" lon="-3.56779">
        <ele>71</ele>
        <time>2019-07-17T16:28:06Z</time>
      </trkpt>
      <trkpt lat="47.82302" lon="-3.56777">
        <ele>71</ele>
        <time>2019-07-17T16:28:07Z</time>
      </trkpt>
      <trkpt lat="47.823" lon="-3.56775">
        <ele>71</ele>
        <time>2019-07-17T16:28:08Z</time>
      </trkpt>
      <trkpt lat="47.82297" lon="-3.56774">
        <ele>71</ele>
        <time>2019-07-17T16:28:09Z</time>
      </trkpt>
      <trkpt lat="47.82294" lon="-3.56772">
        <ele>70</ele>
        <time>2019-07-17T16:28:10Z</time>
      </trkpt>
      <trkpt lat="47.82291" lon="-3.56771">
        <ele>70</ele>
        <time>2019-07-17T16:28:11Z</time>
      </trkpt>
      <trkpt lat="47.82288" lon="-3.56769">
        <ele>70</ele>
        <time>2019-07-17T16:28:12Z</time>
      </trkpt>
      <trkpt lat="47.82284" lon="-3.56768">
        <ele>70</ele>
        <time>2019-07-17T16:28:13Z</time>
      </trkpt>
      <trkpt lat="47.82279" lon="-3.56766">
        <ele>70</ele>
        <time>2019-07-17T16:28:14Z</time>
      </trkpt>
      <trkpt lat="47.82275" lon="-3.56764">
        <ele>70</ele>
        <time>2019-07-17T16:28:15Z</time>
      </trkpt>
      <trkpt lat="47.8227" lon="-3.56762">
        <ele>70</ele>
        <time>2019-07-17T16:28:16Z</time>
      </trkpt>
      <trkpt lat="47.82266" lon="-3.56761">
        <ele>69</ele>
        <time>2019-07-17T16:28:17Z</time>
      </trkpt>
      <trkpt lat="47.82262" lon="-3.56759">
        <ele>69</ele>
        <time>2019-07-17T16:28:18Z</time>
      </trkpt>
      <trkpt lat="47.82257" lon="-3.56758">
        <ele>69</ele>
        <time>2019-07-17T16:28:19Z</time>
      </trkpt>
      <trkpt lat="47.82253" lon="-3.56757">
        <ele>69</ele>
        <time>2019-07-17T16:28:20Z</time>
      </trkpt>
      <trkpt lat="47.82249" lon="-3.56755">
        <ele>69</ele>
        <time>2019-07-17T16:28:21Z</time>
      </trkpt>
      <trkpt lat="47.82245" lon="-3.56755">
        <ele>69</ele>
        <time>2019-07-17T16:28:22Z</time>
      </trkpt>
      <trkpt lat="47.82241" lon="-3.56756">
        <ele>69</ele>
        <time>2019-07-17T16:28:23Z</time>
      </trkpt>
      <trkpt lat="47.82238" lon="-3.56758">
        <ele>69</ele>
        <time>2019-07-17T16:28:24Z</time>
      </trkpt>
      <trkpt lat="47.82236" lon="-3.56761">
        <ele>69</ele>
        <time>2019-07-17T16:28:25Z</time>
      </trkpt>
      <trkpt lat="47.82234" lon="-3.56764">
        <ele>69</ele>
        <time>2019-07-17T16:28:26Z</time>
      </trkpt>
      <trkpt lat="47.82232" lon="-3.56769">
        <ele>69</ele>
        <time>2019-07-17T16:28:27Z</time>
      </trkpt>
      <trkpt lat="47.82231" lon="-3.56774">
        <ele>68</ele>
        <time>2019-07-17T16:28:28Z</time>
      </trkpt>
      <trkpt lat="47.8223" lon="-3.5678">
        <ele>68</ele>
        <time>2019-07-17T16:28:29Z</time>
      </trkpt>
      <trkpt lat="47.82228" lon="-3.56784">
        <ele>68</ele>
        <time>2019-07-17T16:28:30Z</time>
      </trkpt>
      <trkpt lat="47.82227" lon="-3.56789">
        <ele>68</ele>
        <time>2019-07-17T16:28:31Z</time>
      </trkpt>
      <trkpt lat="47.82225" lon="-3.56794">
        <ele>68</ele>
        <time>2019-07-17T16:28:32Z</time>
      </trkpt>
      <trkpt lat="47.82223" lon="-3.56798">
        <ele>68</ele>
        <time>2019-07-17T16:28:33Z</time>
      </trkpt>
      <trkpt lat="47.82221" lon="-3.56802">
        <ele>68</ele>
        <time>2019-07-17T16:28:34Z</time>
      </trkpt>
      <trkpt lat="47.82218" lon="-3.56804">
        <ele>67</ele>
        <time>2019-07-17T16:28:35Z</time>
      </trkpt>
      <trkpt lat="47.82214" lon="-3.56805">
        <ele>67</ele>
        <time>2019-07-17T16:28:36Z</time>
      </trkpt>
      <trkpt lat="47.82211" lon="-3.56804">
        <ele>67</ele>
        <time>2019-07-17T16:28:37Z</time>
      </trkpt>
      <trkpt lat="47.82208" lon="-3.56804">
        <ele>67</ele>
        <time>2019-07-17T16:28:38Z</time>
      </trkpt>
      <trkpt lat="47.82205" lon="-3.56804">
        <ele>67</ele>
        <time>2019-07-17T16:28:39Z</time>
      </trkpt>
      <trkpt lat="47.82202" lon="-3.56804">
        <ele>66</ele>
        <time>2019-07-17T16:28:40Z</time>
      </trkpt>
      <trkpt lat="47.82199" lon="-3.56803">
        <ele>66</ele>
        <time>2019-07-17T16:28:41Z</time>
      </trkpt>
      <trkpt lat="47.82196" lon="-3.56803">
        <ele>66</ele>
        <time>2019-07-17T16:28:42Z</time>
      </trkpt>
      <trkpt lat="47.82192" lon="-3.56803">
        <ele>66</ele>
        <time>2019-07-17T16:28:43Z</time>
      </trkpt>
      <trkpt lat="47.82188" lon="-3.56802">
        <ele>66</ele>
        <time>2019-07-17T16:28:44Z</time>
      </trkpt>
      <trkpt lat="47.82184" lon="-3.56802">
        <ele>66</ele>
        <time>2019-07-17T16:28:45Z</time>
      </trkpt>
      <trkpt lat="47.8218" lon="-3.56801">
        <ele>66</ele>
        <time>2019-07-17T16:28:46Z</time>
      </trkpt>
      <trkpt lat="47.82177" lon="-3.568">
        <ele>66</ele>
        <time>2019-07-17T16:28:47Z</time>
      </trkpt>
      <trkpt lat="47.82172" lon="-3.56799">
        <ele>66</ele>
        <time>2019-07-17T16:28:48Z</time>
      </trkpt>
      <trkpt lat="47.82167" lon="-3.56798">
        <ele>66</ele>
        <time>2019-07-17T16:28:49Z</time>
      </trkpt>
      <trkpt lat="47.82164" lon="-3.56797">
        <ele>65</ele>
        <time>2019-07-17T16:28:50Z</time>
      </trkpt>
      <trkpt lat="47.8216" lon="-3.56795">
        <ele>65</ele>
        <time>2019-07-17T16:28:51Z</time>
      </trkpt>
      <trkpt lat="47.82156" lon="-3.56794">
        <ele>65</ele>
        <time>2019-07-17T16:28:52Z</time>
      </trkpt>
      <trkpt lat="47.82152" lon="-3.56793">
        <ele>65</ele>
        <time>2019-07-17T16:28:53Z</time>
      </trkpt>
      <trkpt lat="47.82147" lon="-3.56792">
        <ele>65</ele>
        <time>2019-07-17T16:28:54Z</time>
      </trkpt>
      <trkpt lat="47.82142" lon="-3.56791">
        <ele>65</ele>
        <time>2019-07-17T16:28:55Z</time>
      </trkpt>
      <trkpt lat="47.82137" lon="-3.5679">
        <ele>65</ele>
        <time>2019-07-17T16:28:56Z</time>
      </trkpt>
      <trkpt lat="47.82132" lon="-3.56788">
        <ele>65</ele>
        <time>2019-07-17T16:28:57Z</time>
      </trkpt>
      <trkpt lat="47.82127" lon="-3.56787">
        <ele>65</ele>
        <time>2019-07-17T16:28:58Z</time>
      </trkpt>
      <trkpt lat="47.82122" lon="-3.56785">
        <ele>65</ele>
        <time>2019-07-17T16:28:59Z</time>
      </trkpt>
      <trkpt lat="47.82116" lon="-3.56783">
        <ele>65</ele>
        <time>2019-07-17T16:29:00Z</time>
      </trkpt>
      <trkpt lat="47.82112" lon="-3.56781">
        <ele>65</ele>
        <time>2019-07-17T16:29:01Z</time>
      </trkpt>
      <trkpt lat="47.82107" lon="-3.5678">
        <ele>65</ele>
        <time>2019-07-17T16:29:02Z</time>
      </trkpt>
      <trkpt lat="47.82103" lon="-3.56778">
        <ele>65</ele>
        <time>2019-07-17T16:29:03Z</time>
      </trkpt>
      <trkpt lat="47.82099" lon="-3.56777">
        <ele>65</ele>
        <time>2019-07-17T16:29:04Z</time>
      </trkpt>
      <trkpt lat="47.82094" lon="-3.56775">
        <ele>64</ele>
        <time>2019-07-17T16:29:05Z</time>
      </trkpt>
      <trkpt lat="47.82089" lon="-3.56776">
        <ele>64</ele>
        <time>2019-07-17T16:29:06Z</time>
      </trkpt>
      <trkpt lat="47.82084" lon="-3.56779">
        <ele>64</ele>
        <time>2019-07-17T16:29:07Z</time>
      </trkpt>
      <trkpt lat="47.82079" lon="-3.56782">
        <ele>64</ele>
        <time>2019-07-17T16:29:08Z</time>
      </trkpt>
      <trkpt lat="47.82075" lon="-3.56786">
        <ele>63</ele>
        <time>2019-07-17T16:29:09Z</time>
      </trkpt>
      <trkpt lat="47.8207" lon="-3.56789">
        <ele>63</ele>
        <time>2019-07-17T16:29:10Z</time>
      </trkpt>
      <trkpt lat="47.82065" lon="-3.56793">
        <ele>63</ele>
        <time>2019-07-17T16:29:11Z</time>
      </trkpt>
      <trkpt lat="47.8206" lon="-3.56798">
        <ele>63</ele>
        <time>2019-07-17T16:29:12Z</time>
      </trkpt>
      <trkpt lat="47.82055" lon="-3.56802">
        <ele>63</ele>
        <time>2019-07-17T16:29:13Z</time>
      </trkpt>
      <trkpt lat="47.82051" lon="-3.56805">
        <ele>62</ele>
        <time>2019-07-17T16:29:14Z</time>
      </trkpt>
      <trkpt lat="47.82048" lon="-3.56809">
        <ele>62</ele>
        <time>2019-07-17T16:29:15Z</time>
      </trkpt>
      <trkpt lat="47.82046" lon="-3.56811">
        <ele>62</ele>
        <time>2019-07-17T16:29:16Z</time>
      </trkpt>
      <trkpt lat="47.82043" lon="-3.56814">
        <ele>62</ele>
        <time>2019-07-17T16:29:17Z</time>
      </trkpt>
      <trkpt lat="47.82041" lon="-3.56817">
        <ele>62</ele>
        <time>2019-07-17T16:29:18Z</time>
      </trkpt>
      <trkpt lat="47.82039" lon="-3.56819">
        <ele>62</ele>
        <time>2019-07-17T16:29:19Z</time>
      </trkpt>
      <trkpt lat="47.82035" lon="-3.56821">
        <ele>61</ele>
        <time>2019-07-17T16:29:20Z</time>
      </trkpt>
      <trkpt lat="47.82031" lon="-3.56824">
        <ele>61</ele>
        <time>2019-07-17T16:29:21Z</time>
      </trkpt>
      <trkpt lat="47.82027" lon="-3.56827">
        <ele>61</ele>
        <time>2019-07-17T16:29:22Z</time>
      </trkpt>
      <trkpt lat="47.82023" lon="-3.56829">
        <ele>61</ele>
        <time>2019-07-17T16:29:23Z</time>
      </trkpt>
      <trkpt lat="47.82019" lon="-3.56831">
        <ele>61</ele>
        <time>2019-07-17T16:29:24Z</time>
      </trkpt>
      <trkpt lat="47.82015" lon="-3.56832">
        <ele>61</ele>
        <time>2019-07-17T16:29:25Z</time>
      </trkpt>
      <trkpt lat="47.82011" lon="-3.56833">
        <ele>61</ele>
        <time>2019-07-17T16:29:26Z</time>
      </trkpt>
      <trkpt lat="47.82007" lon="-3.56834">
        <ele>61</ele>
        <time>2019-07-17T16:29:27Z</time>
      </trkpt>
      <trkpt lat="47.82003" lon="-3.56836">
        <ele>60</ele>
        <time>2019-07-17T16:29:28Z</time>
      </trkpt>
      <trkpt lat="47.81999" lon="-3.56838">
        <ele>60</ele>
        <time>2019-07-17T16:29:29Z</time>
      </trkpt>
      <trkpt lat="47.81996" lon="-3.5684">
        <ele>60</ele>
        <time>2019-07-17T16:29:30Z</time>
      </trkpt>
      <trkpt lat="47.81993" lon="-3.56842">
        <ele>60</ele>
        <time>2019-07-17T16:29:31Z</time>
      </trkpt>
      <trkpt lat="47.81989" lon="-3.56844">
        <ele>60</ele>
        <time>2019-07-17T16:29:32Z</time>
      </trkpt>
      <trkpt lat="47.81985" lon="-3.56846">
        <ele>60</ele>
        <time>2019-07-17T16:29:33Z</time>
      </trkpt>
      <trkpt lat="47.81981" lon="-3.56847">
        <ele>60</ele>
        <time>2019-07-17T16:29:34Z</time>
      </trkpt>
      <trkpt lat="47.81976" lon="-3.56848">
        <ele>60</ele>
        <time>2019-07-17T16:29:35Z</time>
      </trkpt>
      <trkpt lat="47.81972" lon="-3.56848">
        <ele>60</ele>
        <time>2019-07-17T16:29:36Z</time>
      </trkpt>
      <trkpt lat="47.81968" lon="-3.56849">
        <ele>60</ele>
        <time>2019-07-17T16:29:37Z</time>
      </trkpt>
      <trkpt lat="47.81963" lon="-3.5685">
        <ele>60</ele>
        <time>2019-07-17T16:29:38Z</time>
      </trkpt>
      <trkpt lat="47.81959" lon="-3.56852">
        <ele>60</ele>
        <time>2019-07-17T16:29:39Z</time>
      </trkpt>
      <trkpt lat="47.81956" lon="-3.56853">
        <ele>60</ele>
        <time>2019-07-17T16:29:40Z</time>
      </trkpt>
      <trkpt lat="47.81952" lon="-3.56854">
        <ele>60</ele>
        <time>2019-07-17T16:29:41Z</time>
      </trkpt>
      <trkpt lat="47.81948" lon="-3.56857">
        <ele>60</ele>
        <time>2019-07-17T16:29:42Z</time>
      </trkpt>
      <trkpt lat="47.81944" lon="-3.56858">
        <ele>60</ele>
        <time>2019-07-17T16:29:43Z</time>
      </trkpt>
      <trkpt lat="47.8194" lon="-3.56858">
        <ele>60</ele>
        <time>2019-07-17T16:29:44Z</time>
      </trkpt>
      <trkpt lat="47.81936" lon="-3.5686">
        <ele>60</ele>
        <time>2019-07-17T16:29:45Z</time>
      </trkpt>
      <trkpt lat="47.81931" lon="-3.56863">
        <ele>60</ele>
        <time>2019-07-17T16:29:46Z</time>
      </trkpt>
      <trkpt lat="47.81927" lon="-3.56866">
        <ele>60</ele>
        <time>2019-07-17T16:29:47Z</time>
      </trkpt>
      <trkpt lat="47.81922" lon="-3.56868">
        <ele>60</ele>
        <time>2019-07-17T16:29:48Z</time>
      </trkpt>
      <trkpt lat="47.81917" lon="-3.56871">
        <ele>60</ele>
        <time>2019-07-17T16:29:49Z</time>
      </trkpt>
      <trkpt lat="47.81913" lon="-3.56873">
        <ele>60</ele>
        <time>2019-07-17T16:29:50Z</time>
      </trkpt>
      <trkpt lat="47.81908" lon="-3.56875">
        <ele>60</ele>
        <time>2019-07-17T16:29:51Z</time>
      </trkpt>
      <trkpt lat="47.81903" lon="-3.56877">
        <ele>60</ele>
        <time>2019-07-17T16:29:52Z</time>
      </trkpt>
      <trkpt lat="47.81898" lon="-3.56879">
        <ele>60</ele>
        <time>2019-07-17T16:29:53Z</time>
      </trkpt>
      <trkpt lat="47.81892" lon="-3.56881">
        <ele>60</ele>
        <time>2019-07-17T16:29:54Z</time>
      </trkpt>
      <trkpt lat="47.81887" lon="-3.56883">
        <ele>60</ele>
        <time>2019-07-17T16:29:55Z</time>
      </trkpt>
      <trkpt lat="47.81882" lon="-3.56887">
        <ele>60</ele>
        <time>2019-07-17T16:29:56Z</time>
      </trkpt>
      <trkpt lat="47.81878" lon="-3.56889">
        <ele>60</ele>
        <time>2019-07-17T16:29:57Z</time>
      </trkpt>
      <trkpt lat="47.81872" lon="-3.56893">
        <ele>60</ele>
        <time>2019-07-17T16:29:58Z</time>
      </trkpt>
      <trkpt lat="47.81868" lon="-3.56898">
        <ele>60</ele>
        <time>2019-07-17T16:29:59Z</time>
      </trkpt>
      <trkpt lat="47.81864" lon="-3.56903">
        <ele>60</ele>
        <time>2019-07-17T16:30:00Z</time>
      </trkpt>
      <trkpt lat="47.81861" lon="-3.5691">
        <ele>60</ele>
        <time>2019-07-17T16:30:01Z</time>
      </trkpt>
      <trkpt lat="47.81858" lon="-3.56917">
        <ele>60</ele>
        <time>2019-07-17T16:30:02Z</time>
      </trkpt>
      <trkpt lat="47.81854" lon="-3.56923">
        <ele>60</ele>
        <time>2019-07-17T16:30:03Z</time>
      </trkpt>
      <trkpt lat="47.81851" lon="-3.56929">
        <ele>60</ele>
        <time>2019-07-17T16:30:04Z</time>
      </trkpt>
      <trkpt lat="47.81847" lon="-3.56935">
        <ele>60</ele>
        <time>2019-07-17T16:30:05Z</time>
      </trkpt>
      <trkpt lat="47.81843" lon="-3.56941">
        <ele>61</ele>
        <time>2019-07-17T16:30:06Z</time>
      </trkpt>
      <trkpt lat="47.81839" lon="-3.56945">
        <ele>61</ele>
        <time>2019-07-17T16:30:07Z</time>
      </trkpt>
      <trkpt lat="47.81834" lon="-3.56949">
        <ele>61</ele>
        <time>2019-07-17T16:30:08Z</time>
      </trkpt>
      <trkpt lat="47.81828" lon="-3.5695">
        <ele>61</ele>
        <time>2019-07-17T16:30:09Z</time>
      </trkpt>
      <trkpt lat="47.81822" lon="-3.5695">
        <ele>60</ele>
        <time>2019-07-17T16:30:10Z</time>
      </trkpt>
      <trkpt lat="47.81816" lon="-3.56951">
        <ele>60</ele>
        <time>2019-07-17T16:30:11Z</time>
      </trkpt>
      <trkpt lat="47.81811" lon="-3.56952">
        <ele>60</ele>
        <time>2019-07-17T16:30:12Z</time>
      </trkpt>
      <trkpt lat="47.81805" lon="-3.56952">
        <ele>60</ele>
        <time>2019-07-17T16:30:13Z</time>
      </trkpt>
      <trkpt lat="47.818" lon="-3.56952">
        <ele>60</ele>
        <time>2019-07-17T16:30:14Z</time>
      </trkpt>
      <trkpt lat="47.81794" lon="-3.56952">
        <ele>60</ele>
        <time>2019-07-17T16:30:15Z</time>
      </trkpt>
      <trkpt lat="47.81788" lon="-3.56953">
        <ele>60</ele>
        <time>2019-07-17T16:30:16Z</time>
      </trkpt>
      <trkpt lat="47.81782" lon="-3.56956">
        <ele>60</ele>
        <time>2019-07-17T16:30:17Z</time>
      </trkpt>
      <trkpt lat="47.81777" lon="-3.56959">
        <ele>59</ele>
        <time>2019-07-17T16:30:18Z</time>
      </trkpt>
      <trkpt lat="47.81772" lon="-3.5696">
        <ele>59</ele>
        <time>2019-07-17T16:30:19Z</time>
      </trkpt>
      <trkpt lat="47.81767" lon="-3.56961">
        <ele>59</ele>
        <time>2019-07-17T16:30:20Z</time>
      </trkpt>
      <trkpt lat="47.81761" lon="-3.56963">
        <ele>59</ele>
        <time>2019-07-17T16:30:21Z</time>
      </trkpt>
      <trkpt lat="47.81755" lon="-3.56965">
        <ele>59</ele>
        <time>2019-07-17T16:30:22Z</time>
      </trkpt>
      <trkpt lat="47.8175" lon="-3.56968">
        <ele>59</ele>
        <time>2019-07-17T16:30:23Z</time>
      </trkpt>
      <trkpt lat="47.81746" lon="-3.56972">
        <ele>59</ele>
        <time>2019-07-17T16:30:24Z</time>
      </trkpt>
      <trkpt lat="47.81743" lon="-3.56976">
        <ele>59</ele>
        <time>2019-07-17T16:30:25Z</time>
      </trkpt>
      <trkpt lat="47.81741" lon="-3.5698">
        <ele>59</ele>
        <time>2019-07-17T16:30:26Z</time>
      </trkpt>
      <trkpt lat="47.8174" lon="-3.56983">
        <ele>59</ele>
        <time>2019-07-17T16:30:27Z</time>
      </trkpt>
      <trkpt lat="47.8174" lon="-3.56985">
        <ele>59</ele>
        <time>2019-07-17T16:30:28Z</time>
      </trkpt>
      <trkpt lat="47.8174" lon="-3.56988">
        <ele>59</ele>
        <time>2019-07-17T16:30:29Z</time>
      </trkpt>
      <trkpt lat="47.8174" lon="-3.56992">
        <ele>59</ele>
        <time>2019-07-17T16:30:30Z</time>
      </trkpt>
      <trkpt lat="47.81741" lon="-3.56996">
        <ele>59</ele>
        <time>2019-07-17T16:30:31Z</time>
      </trkpt>
      <trkpt lat="47.81741" lon="-3.57">
        <ele>59</ele>
        <time>2019-07-17T16:30:32Z</time>
      </trkpt>
      <trkpt lat="47.81742" lon="-3.57005">
        <ele>59</ele>
        <time>2019-07-17T16:30:33Z</time>
      </trkpt>
      <trkpt lat="47.81742" lon="-3.57009">
        <ele>59</ele>
        <time>2019-07-17T16:30:34Z</time>
      </trkpt>
      <trkpt lat="47.81742" lon="-3.57015">
        <ele>58</ele>
        <time>2019-07-17T16:30:35Z</time>
      </trkpt>
      <trkpt lat="47.81742" lon="-3.57021">
        <ele>58</ele>
        <time>2019-07-17T16:30:36Z</time>
      </trkpt>
      <trkpt lat="47.81741" lon="-3.57027">
        <ele>58</ele>
        <time>2019-07-17T16:30:37Z</time>
      </trkpt>
      <trkpt lat="47.81741" lon="-3.57033">
        <ele>58</ele>
        <time>2019-07-17T16:30:38Z</time>
      </trkpt>
      <trkpt lat="47.8174" lon="-3.57039">
        <ele>58</ele>
        <time>2019-07-17T16:30:39Z</time>
      </trkpt>
      <trkpt lat="47.8174" lon="-3.57046">
        <ele>58</ele>
        <time>2019-07-17T16:30:40Z</time>
      </trkpt>
      <trkpt lat="47.81739" lon="-3.57052">
        <ele>58</ele>
        <time>2019-07-17T16:30:41Z</time>
      </trkpt>
      <trkpt lat="47.81739" lon="-3.57058">
        <ele>58</ele>
        <time>2019-07-17T16:30:42Z</time>
      </trkpt>
      <trkpt lat="47.81738" lon="-3.57064">
        <ele>58</ele>
        <time>2019-07-17T16:30:43Z</time>
      </trkpt>
      <trkpt lat="47.81738" lon="-3.5707">
        <ele>58</ele>
        <time>2019-07-17T16:30:44Z</time>
      </trkpt>
      <trkpt lat="47.81737" lon="-3.57074">
        <ele>58</ele>
        <time>2019-07-17T16:30:45Z</time>
      </trkpt>
      <trkpt lat="47.81735" lon="-3.57077">
        <ele>58</ele>
        <time>2019-07-17T16:30:46Z</time>
      </trkpt>
      <trkpt lat="47.81732" lon="-3.57078">
        <ele>58</ele>
        <time>2019-07-17T16:30:47Z</time>
      </trkpt>
      <trkpt lat="47.81729" lon="-3.5708">
        <ele>58</ele>
        <time>2019-07-17T16:30:48Z</time>
      </trkpt>
      <trkpt lat="47.81726" lon="-3.57083">
        <ele>58</ele>
        <time>2019-07-17T16:30:49Z</time>
      </trkpt>
      <trkpt lat="47.81723" lon="-3.57084">
        <ele>58</ele>
        <time>2019-07-17T16:30:50Z</time>
      </trkpt>
      <trkpt lat="47.81719" lon="-3.57086">
        <ele>58</ele>
        <time>2019-07-17T16:30:51Z</time>
      </trkpt>
      <trkpt lat="47.81715" lon="-3.57087">
        <ele>58</ele>
        <time>2019-07-17T16:30:52Z</time>
      </trkpt>
      <trkpt lat="47.81711" lon="-3.57088">
        <ele>58</ele>
        <time>2019-07-17T16:30:53Z</time>
      </trkpt>
      <trkpt lat="47.81707" lon="-3.5709">
        <ele>58</ele>
        <time>2019-07-17T16:30:54Z</time>
      </trkpt>
      <trkpt lat="47.81704" lon="-3.57091">
        <ele>58</ele>
        <time>2019-07-17T16:30:55Z</time>
      </trkpt>
      <trkpt lat="47.81699" lon="-3.57093">
        <ele>58</ele>
        <time>2019-07-17T16:30:56Z</time>
      </trkpt>
      <trkpt lat="47.81695" lon="-3.57096">
        <ele>58</ele>
        <time>2019-07-17T16:30:57Z</time>
      </trkpt>
      <trkpt lat="47.81691" lon="-3.57098">
        <ele>58</ele>
        <time>2019-07-17T16:30:58Z</time>
      </trkpt>
      <trkpt lat="47.81687" lon="-3.571">
        <ele>58</ele>
        <time>2019-07-17T16:30:59Z</time>
      </trkpt>
      <trkpt lat="47.81682" lon="-3.57102">
        <ele>58</ele>
        <time>2019-07-17T16:31:00Z</time>
      </trkpt>
      <trkpt lat="47.81678" lon="-3.57103">
        <ele>58</ele>
        <time>2019-07-17T16:31:01Z</time>
      </trkpt>
      <trkpt lat="47.81674" lon="-3.57105">
        <ele>58</ele>
        <time>2019-07-17T16:31:02Z</time>
      </trkpt>
      <trkpt lat="47.81669" lon="-3.57107">
        <ele>58</ele>
        <time>2019-07-17T16:31:03Z</time>
      </trkpt>
      <trkpt lat="47.81665" lon="-3.57109">
        <ele>58</ele>
        <time>2019-07-17T16:31:04Z</time>
      </trkpt>
      <trkpt lat="47.81661" lon="-3.57112">
        <ele>58</ele>
        <time>2019-07-17T16:31:05Z</time>
      </trkpt>
      <trkpt lat="47.81656" lon="-3.57116">
        <ele>58</ele>
        <time>2019-07-17T16:31:06Z</time>
      </trkpt>
      <trkpt lat="47.81652" lon="-3.57119">
        <ele>58</ele>
        <time>2019-07-17T16:31:07Z</time>
      </trkpt>
      <trkpt lat="47.81648" lon="-3.57123">
        <ele>58</ele>
        <time>2019-07-17T16:31:08Z</time>
      </trkpt>
      <trkpt lat="47.81643" lon="-3.57125">
        <ele>58</ele>
        <time>2019-07-17T16:31:09Z</time>
      </trkpt>
      <trkpt lat="47.81639" lon="-3.57127">
        <ele>58</ele>
        <time>2019-07-17T16:31:10Z</time>
      </trkpt>
      <trkpt lat="47.81635" lon="-3.57129">
        <ele>59</ele>
        <time>2019-07-17T16:31:11Z</time>
      </trkpt>
      <trkpt lat="47.81631" lon="-3.5713">
        <ele>59</ele>
        <time>2019-07-17T16:31:12Z</time>
      </trkpt>
      <trkpt lat="47.81627" lon="-3.57133">
        <ele>59</ele>
        <time>2019-07-17T16:31:13Z</time>
      </trkpt>
      <trkpt lat="47.81622" lon="-3.57136">
        <ele>59</ele>
        <time>2019-07-17T16:31:14Z</time>
      </trkpt>
      <trkpt lat="47.81617" lon="-3.57138">
        <ele>59</ele>
        <time>2019-07-17T16:31:15Z</time>
      </trkpt>
      <trkpt lat="47.81612" lon="-3.5714">
        <ele>59</ele>
        <time>2019-07-17T16:31:16Z</time>
      </trkpt>
      <trkpt lat="47.81608" lon="-3.57143">
        <ele>59</ele>
        <time>2019-07-17T16:31:17Z</time>
      </trkpt>
      <trkpt lat="47.81603" lon="-3.57145">
        <ele>59</ele>
        <time>2019-07-17T16:31:18Z</time>
      </trkpt>
      <trkpt lat="47.81599" lon="-3.57147">
        <ele>60</ele>
        <time>2019-07-17T16:31:19Z</time>
      </trkpt>
      <trkpt lat="47.81595" lon="-3.57149">
        <ele>60</ele>
        <time>2019-07-17T16:31:20Z</time>
      </trkpt>
      <trkpt lat="47.81591" lon="-3.57152">
        <ele>60</ele>
        <time>2019-07-17T16:31:21Z</time>
      </trkpt>
      <trkpt lat="47.81587" lon="-3.57155">
        <ele>60</ele>
        <time>2019-07-17T16:31:22Z</time>
      </trkpt>
      <trkpt lat="47.81582" lon="-3.57158">
        <ele>60</ele>
        <time>2019-07-17T16:31:23Z</time>
      </trkpt>
      <trkpt lat="47.81578" lon="-3.57161">
        <ele>60</ele>
        <time>2019-07-17T16:31:24Z</time>
      </trkpt>
      <trkpt lat="47.81573" lon="-3.57163">
        <ele>60</ele>
        <time>2019-07-17T16:31:25Z</time>
      </trkpt>
      <trkpt lat="47.81569" lon="-3.57166">
        <ele>61</ele>
        <time>2019-07-17T16:31:26Z</time>
      </trkpt>
      <trkpt lat="47.81563" lon="-3.57169">
        <ele>61</ele>
        <time>2019-07-17T16:31:27Z</time>
      </trkpt>
      <trkpt lat="47.81558" lon="-3.57172">
        <ele>61</ele>
        <time>2019-07-17T16:31:28Z</time>
      </trkpt>
      <trkpt lat="47.81553" lon="-3.57175">
        <ele>61</ele>
        <time>2019-07-17T16:31:29Z</time>
      </trkpt>
      <trkpt lat="47.81548" lon="-3.57178">
        <ele>61</ele>
        <time>2019-07-17T16:31:30Z</time>
      </trkpt>
      <trkpt lat="47.81543" lon="-3.57182">
        <ele>61</ele>
        <time>2019-07-17T16:31:31Z</time>
      </trkpt>
      <trkpt lat="47.81538" lon="-3.57185">
        <ele>61</ele>
        <time>2019-07-17T16:31:32Z</time>
      </trkpt>
      <trkpt lat="47.81533" lon="-3.57187">
        <ele>61</ele>
        <time>2019-07-17T16:31:33Z</time>
      </trkpt>
      <trkpt lat="47.81527" lon="-3.5719">
        <ele>62</ele>
        <time>2019-07-17T16:31:34Z</time>
      </trkpt>
      <trkpt lat="47.81522" lon="-3.57193">
        <ele>62</ele>
        <time>2019-07-17T16:31:35Z</time>
      </trkpt>
      <trkpt lat="47.81517" lon="-3.57195">
        <ele>62</ele>
        <time>2019-07-17T16:31:36Z</time>
      </trkpt>
      <trkpt lat="47.81511" lon="-3.57196">
        <ele>62</ele>
        <time>2019-07-17T16:31:37Z</time>
      </trkpt>
      <trkpt lat="47.81505" lon="-3.57195">
        <ele>62</ele>
        <time>2019-07-17T16:31:38Z</time>
      </trkpt>
      <trkpt lat="47.81501" lon="-3.57192">
        <ele>62</ele>
        <time>2019-07-17T16:31:39Z</time>
      </trkpt>
      <trkpt lat="47.81497" lon="-3.57188">
        <ele>62</ele>
        <time>2019-07-17T16:31:40Z</time>
      </trkpt>
      <trkpt lat="47.81494" lon="-3.57181">
        <ele>62</ele>
        <time>2019-07-17T16:31:41Z</time>
      </trkpt>
      <trkpt lat="47.81491" lon="-3.57175">
        <ele>62</ele>
        <time>2019-07-17T16:31:42Z</time>
      </trkpt>
      <trkpt lat="47.81489" lon="-3.57168">
        <ele>62</ele>
        <time>2019-07-17T16:31:43Z</time>
      </trkpt>
      <trkpt lat="47.81487" lon="-3.57162">
        <ele>62</ele>
        <time>2019-07-17T16:31:44Z</time>
      </trkpt>
      <trkpt lat="47.81485" lon="-3.57155">
        <ele>62</ele>
        <time>2019-07-17T16:31:45Z</time>
      </trkpt>
      <trkpt lat="47.81483" lon="-3.57149">
        <ele>61</ele>
        <time>2019-07-17T16:31:46Z</time>
      </trkpt>
      <trkpt lat="47.81481" lon="-3.57142">
        <ele>61</ele>
        <time>2019-07-17T16:31:47Z</time>
      </trkpt>
      <trkpt lat="47.81479" lon="-3.57135">
        <ele>61</ele>
        <time>2019-07-17T16:31:48Z</time>
      </trkpt>
      <trkpt lat="47.81477" lon="-3.57128">
        <ele>61</ele>
        <time>2019-07-17T16:31:49Z</time>
      </trkpt>
      <trkpt lat="47.81474" lon="-3.5712">
        <ele>61</ele>
        <time>2019-07-17T16:31:50Z</time>
      </trkpt>
      <trkpt lat="47.81472" lon="-3.57113">
        <ele>61</ele>
        <time>2019-07-17T16:31:51Z</time>
      </trkpt>
      <trkpt lat="47.81469" lon="-3.57105">
        <ele>61</ele>
        <time>2019-07-17T16:31:52Z</time>
      </trkpt>
      <trkpt lat="47.81467" lon="-3.57097">
        <ele>61</ele>
        <time>2019-07-17T16:31:53Z</time>
      </trkpt>
      <trkpt lat="47.81464" lon="-3.57089">
        <ele>61</ele>
        <time>2019-07-17T16:31:54Z</time>
      </trkpt>
      <trkpt lat="47.81462" lon="-3.57081">
        <ele>61</ele>
        <time>2019-07-17T16:31:55Z</time>
      </trkpt>
      <trkpt lat="47.8146" lon="-3.57072">
        <ele>61</ele>
        <time>2019-07-17T16:31:56Z</time>
      </trkpt>
      <trkpt lat="47.81459" lon="-3.57063">
        <ele>61</ele>
        <time>2019-07-17T16:31:57Z</time>
      </trkpt>
      <trkpt lat="47.81457" lon="-3.57054">
        <ele>61</ele>
        <time>2019-07-17T16:31:58Z</time>
      </trkpt>
      <trkpt lat="47.81455" lon="-3.57044">
        <ele>61</ele>
        <time>2019-07-17T16:31:59Z</time>
      </trkpt>
      <trkpt lat="47.81453" lon="-3.57034">
        <ele>60</ele>
        <time>2019-07-17T16:32:00Z</time>
      </trkpt>
      <trkpt lat="47.81452" lon="-3.57025">
        <ele>60</ele>
        <time>2019-07-17T16:32:01Z</time>
      </trkpt>
      <trkpt lat="47.8145" lon="-3.57016">
        <ele>60</ele>
        <time>2019-07-17T16:32:02Z</time>
      </trkpt>
      <trkpt lat="47.81449" lon="-3.57006">
        <ele>59</ele>
        <time>2019-07-17T16:32:03Z</time>
      </trkpt>
      <trkpt lat="47.81447" lon="-3.56996">
        <ele>59</ele>
        <time>2019-07-17T16:32:04Z</time>
      </trkpt>
      <trkpt lat="47.81445" lon="-3.56986">
        <ele>59</ele>
        <time>2019-07-17T16:32:05Z</time>
      </trkpt>
      <trkpt lat="47.81444" lon="-3.56977">
        <ele>59</ele>
        <time>2019-07-17T16:32:06Z</time>
      </trkpt>
      <trkpt lat="47.81442" lon="-3.56968">
        <ele>58</ele>
        <time>2019-07-17T16:32:07Z</time>
      </trkpt>
      <trkpt lat="47.8144" lon="-3.56959">
        <ele>58</ele>
        <time>2019-07-17T16:32:08Z</time>
      </trkpt>
      <trkpt lat="47.81439" lon="-3.56949">
        <ele>58</ele>
        <time>2019-07-17T16:32:09Z</time>
      </trkpt>
      <trkpt lat="47.81438" lon="-3.5694">
        <ele>58</ele>
        <time>2019-07-17T16:32:10Z</time>
      </trkpt>
      <trkpt lat="47.81436" lon="-3.56931">
        <ele>58</ele>
        <time>2019-07-17T16:32:11Z</time>
      </trkpt>
      <trkpt lat="47.81434" lon="-3.56922">
        <ele>57</ele>
        <time>2019-07-17T16:32:12Z</time>
      </trkpt>
      <trkpt lat="47.81432" lon="-3.56913">
        <ele>57</ele>
        <time>2019-07-17T16:32:13Z</time>
      </trkpt>
      <trkpt lat="47.81431" lon="-3.56903">
        <ele>57</ele>
        <time>2019-07-17T16:32:14Z</time>
      </trkpt>
      <trkpt lat="47.8143" lon="-3.56893">
        <ele>57</ele>
        <time>2019-07-17T16:32:15Z</time>
      </trkpt>
      <trkpt lat="47.81429" lon="-3.56884">
        <ele>57</ele>
        <time>2019-07-17T16:32:16Z</time>
      </trkpt>
      <trkpt lat="47.81426" lon="-3.56875">
        <ele>57</ele>
        <time>2019-07-17T16:32:17Z</time>
      </trkpt>
      <trkpt lat="47.81423" lon="-3.56867">
        <ele>57</ele>
        <time>2019-07-17T16:32:18Z</time>
      </trkpt>
      <trkpt lat="47.81419" lon="-3.5686">
        <ele>57</ele>
        <time>2019-07-17T16:32:19Z</time>
      </trkpt>
      <trkpt lat="47.81416" lon="-3.56853">
        <ele>57</ele>
        <time>2019-07-17T16:32:20Z</time>
      </trkpt>
      <trkpt lat="47.81412" lon="-3.56846">
        <ele>57</ele>
        <time>2019-07-17T16:32:21Z</time>
      </trkpt>
      <trkpt lat="47.8141" lon="-3.56839">
        <ele>57</ele>
        <time>2019-07-17T16:32:22Z</time>
      </trkpt>
      <trkpt lat="47.81406" lon="-3.56832">
        <ele>57</ele>
        <time>2019-07-17T16:32:23Z</time>
      </trkpt>
      <trkpt lat="47.81403" lon="-3.56824">
        <ele>57</ele>
        <time>2019-07-17T16:32:24Z</time>
      </trkpt>
      <trkpt lat="47.814" lon="-3.56815">
        <ele>57</ele>
        <time>2019-07-17T16:32:25Z</time>
      </trkpt>
      <trkpt lat="47.81396" lon="-3.56807">
        <ele>57</ele>
        <time>2019-07-17T16:32:26Z</time>
      </trkpt>
      <trkpt lat="47.81393" lon="-3.56798">
        <ele>57</ele>
        <time>2019-07-17T16:32:27Z</time>
      </trkpt>
      <trkpt lat="47.8139" lon="-3.5679">
        <ele>57</ele>
        <time>2019-07-17T16:32:28Z</time>
      </trkpt>
      <trkpt lat="47.81386" lon="-3.56783">
        <ele>57</ele>
        <time>2019-07-17T16:32:29Z</time>
      </trkpt>
      <trkpt lat="47.81383" lon="-3.56775">
        <ele>57</ele>
        <time>2019-07-17T16:32:30Z</time>
      </trkpt>
      <trkpt lat="47.8138" lon="-3.56767">
        <ele>57</ele>
        <time>2019-07-17T16:32:31Z</time>
      </trkpt>
      <trkpt lat="47.81377" lon="-3.56759">
        <ele>57</ele>
        <time>2019-07-17T16:32:32Z</time>
      </trkpt>
      <trkpt lat="47.81374" lon="-3.5675">
        <ele>57</ele>
        <time>2019-07-17T16:32:33Z</time>
      </trkpt>
      <trkpt lat="47.81372" lon="-3.56742">
        <ele>58</ele>
        <time>2019-07-17T16:32:34Z</time>
      </trkpt>
      <trkpt lat="47.81369" lon="-3.56733">
        <ele>58</ele>
        <time>2019-07-17T16:32:35Z</time>
      </trkpt>
      <trkpt lat="47.81366" lon="-3.56726">
        <ele>58</ele>
        <time>2019-07-17T16:32:36Z</time>
      </trkpt>
      <trkpt lat="47.81363" lon="-3.56717">
        <ele>58</ele>
        <time>2019-07-17T16:32:37Z</time>
      </trkpt>
      <trkpt lat="47.81361" lon="-3.56709">
        <ele>58</ele>
        <time>2019-07-17T16:32:38Z</time>
      </trkpt>
      <trkpt lat="47.81358" lon="-3.56702">
        <ele>58</ele>
        <time>2019-07-17T16:32:39Z</time>
      </trkpt>
      <trkpt lat="47.81356" lon="-3.56694">
        <ele>58</ele>
        <time>2019-07-17T16:32:40Z</time>
      </trkpt>
      <trkpt lat="47.81354" lon="-3.56686">
        <ele>58</ele>
        <time>2019-07-17T16:32:41Z</time>
      </trkpt>
      <trkpt lat="47.81353" lon="-3.56677">
        <ele>58</ele>
        <time>2019-07-17T16:32:42Z</time>
      </trkpt>
      <trkpt lat="47.81351" lon="-3.5667">
        <ele>58</ele>
        <time>2019-07-17T16:32:43Z</time>
      </trkpt>
      <trkpt lat="47.8135" lon="-3.56663">
        <ele>58</ele>
        <time>2019-07-17T16:32:44Z</time>
      </trkpt>
      <trkpt lat="47.81347" lon="-3.56657">
        <ele>58</ele>
        <time>2019-07-17T16:32:45Z</time>
      </trkpt>
      <trkpt lat="47.81346" lon="-3.56651">
        <ele>58</ele>
        <time>2019-07-17T16:32:46Z</time>
      </trkpt>
      <trkpt lat="47.81344" lon="-3.56647">
        <ele>57</ele>
        <time>2019-07-17T16:32:47Z</time>
      </trkpt>
      <trkpt lat="47.81343" lon="-3.56644">
        <ele>57</ele>
        <time>2019-07-17T16:32:48Z</time>
      </trkpt>
      <trkpt lat="47.81341" lon="-3.56643">
        <ele>57</ele>
        <time>2019-07-17T16:32:49Z</time>
      </trkpt>
      <trkpt lat="47.8134" lon="-3.56641">
        <ele>57</ele>
        <time>2019-07-17T16:32:50Z</time>
      </trkpt>
      <trkpt lat="47.8134" lon="-3.56641">
        <ele>56</ele>
        <time>2019-07-17T16:32:51Z</time>
      </trkpt>
      <trkpt lat="47.8134" lon="-3.56641">
        <ele>56</ele>
        <time>2019-07-17T16:32:52Z</time>
      </trkpt>
      <trkpt lat="47.8134" lon="-3.56642">
        <ele>56</ele>
        <time>2019-07-17T16:32:53Z</time>
      </trkpt>
      <trkpt lat="47.81337" lon="-3.56638">
        <ele>55</ele>
        <time>2019-07-17T16:32:54Z</time>
      </trkpt>
      <trkpt lat="47.81337" lon="-3.56637">
        <ele>55</ele>
        <time>2019-07-17T16:32:55Z</time>
      </trkpt>
      <trkpt lat="47.81337" lon="-3.56636">
        <ele>55</ele>
        <time>2019-07-17T16:32:56Z</time>
      </trkpt>
      <trkpt lat="47.81338" lon="-3.56631">
        <ele>54</ele>
        <time>2019-07-17T16:32:57Z</time>
      </trkpt>
      <trkpt lat="47.8134" lon="-3.56629">
        <ele>54</ele>
        <time>2019-07-17T16:32:58Z</time>
      </trkpt>
      <trkpt lat="47.81341" lon="-3.56627">
        <ele>54</ele>
        <time>2019-07-17T16:32:59Z</time>
      </trkpt>
      <trkpt lat="47.81343" lon="-3.56624">
        <ele>54</ele>
        <time>2019-07-17T16:33:00Z</time>
      </trkpt>
      <trkpt lat="47.81345" lon="-3.5662">
        <ele>55</ele>
        <time>2019-07-17T16:33:01Z</time>
      </trkpt>
      <trkpt lat="47.81347" lon="-3.56616">
        <ele>55</ele>
        <time>2019-07-17T16:33:02Z</time>
      </trkpt>
      <trkpt lat="47.8135" lon="-3.56612">
        <ele>55</ele>
        <time>2019-07-17T16:33:03Z</time>
      </trkpt>
      <trkpt lat="47.81352" lon="-3.56608">
        <ele>55</ele>
        <time>2019-07-17T16:33:04Z</time>
      </trkpt>
      <trkpt lat="47.81354" lon="-3.56604">
        <ele>55</ele>
        <time>2019-07-17T16:33:05Z</time>
      </trkpt>
      <trkpt lat="47.81357" lon="-3.566">
        <ele>55</ele>
        <time>2019-07-17T16:33:06Z</time>
      </trkpt>
      <trkpt lat="47.8136" lon="-3.56596">
        <ele>55</ele>
        <time>2019-07-17T16:33:07Z</time>
      </trkpt>
      <trkpt lat="47.81363" lon="-3.56592">
        <ele>55</ele>
        <time>2019-07-17T16:33:08Z</time>
      </trkpt>
      <trkpt lat="47.81366" lon="-3.56588">
        <ele>55</ele>
        <time>2019-07-17T16:33:09Z</time>
      </trkpt>
      <trkpt lat="47.81369" lon="-3.56583">
        <ele>55</ele>
        <time>2019-07-17T16:33:10Z</time>
      </trkpt>
      <trkpt lat="47.81372" lon="-3.56577">
        <ele>55</ele>
        <time>2019-07-17T16:33:11Z</time>
      </trkpt>
      <trkpt lat="47.81375" lon="-3.56572">
        <ele>55</ele>
        <time>2019-07-17T16:33:12Z</time>
      </trkpt>
      <trkpt lat="47.81378" lon="-3.56566">
        <ele>56</ele>
        <time>2019-07-17T16:33:13Z</time>
      </trkpt>
      <trkpt lat="47.81382" lon="-3.5656">
        <ele>56</ele>
        <time>2019-07-17T16:33:14Z</time>
      </trkpt>
      <trkpt lat="47.81386" lon="-3.56555">
        <ele>56</ele>
        <time>2019-07-17T16:33:15Z</time>
      </trkpt>
      <trkpt lat="47.8139" lon="-3.5655">
        <ele>56</ele>
        <time>2019-07-17T16:33:16Z</time>
      </trkpt>
      <trkpt lat="47.81394" lon="-3.56545">
        <ele>56</ele>
        <time>2019-07-17T16:33:17Z</time>
      </trkpt>
      <trkpt lat="47.81398" lon="-3.56539">
        <ele>56</ele>
        <time>2019-07-17T16:33:18Z</time>
      </trkpt>
      <trkpt lat="47.81402" lon="-3.56534">
        <ele>56</ele>
        <time>2019-07-17T16:33:19Z</time>
      </trkpt>
      <trkpt lat="47.81406" lon="-3.56528">
        <ele>57</ele>
        <time>2019-07-17T16:33:20Z</time>
      </trkpt>
      <trkpt lat="47.81409" lon="-3.56523">
        <ele>57</ele>
        <time>2019-07-17T16:33:21Z</time>
      </trkpt>
      <trkpt lat="47.81413" lon="-3.56518">
        <ele>57</ele>
        <time>2019-07-17T16:33:22Z</time>
      </trkpt>
      <trkpt lat="47.81417" lon="-3.56512">
        <ele>57</ele>
        <time>2019-07-17T16:33:23Z</time>
      </trkpt>
      <trkpt lat="47.8142" lon="-3.56506">
        <ele>57</ele>
        <time>2019-07-17T16:33:24Z</time>
      </trkpt>
      <trkpt lat="47.81424" lon="-3.56499">
        <ele>57</ele>
        <time>2019-07-17T16:33:25Z</time>
      </trkpt>
      <trkpt lat="47.81428" lon="-3.56493">
        <ele>58</ele>
        <time>2019-07-17T16:33:26Z</time>
      </trkpt>
      <trkpt lat="47.81432" lon="-3.56486">
        <ele>58</ele>
        <time>2019-07-17T16:33:27Z</time>
      </trkpt>
      <trkpt lat="47.81436" lon="-3.5648">
        <ele>58</ele>
        <time>2019-07-17T16:33:28Z</time>
      </trkpt>
      <trkpt lat="47.8144" lon="-3.56473">
        <ele>58</ele>
        <time>2019-07-17T16:33:29Z</time>
      </trkpt>
      <trkpt lat="47.81444" lon="-3.56466">
        <ele>58</ele>
        <time>2019-07-17T16:33:30Z</time>
      </trkpt>
      <trkpt lat="47.81448" lon="-3.5646">
        <ele>58</ele>
        <time>2019-07-17T16:33:31Z</time>
      </trkpt>
      <trkpt lat="47.81452" lon="-3.56453">
        <ele>58</ele>
        <time>2019-07-17T16:33:32Z</time>
      </trkpt>
      <trkpt lat="47.81456" lon="-3.56447">
        <ele>58</ele>
        <time>2019-07-17T16:33:33Z</time>
      </trkpt>
      <trkpt lat="47.8146" lon="-3.5644">
        <ele>58</ele>
        <time>2019-07-17T16:33:34Z</time>
      </trkpt>
      <trkpt lat="47.81464" lon="-3.56433">
        <ele>58</ele>
        <time>2019-07-17T16:33:35Z</time>
      </trkpt>
      <trkpt lat="47.81468" lon="-3.56427">
        <ele>58</ele>
        <time>2019-07-17T16:33:36Z</time>
      </trkpt>
      <trkpt lat="47.81472" lon="-3.5642">
        <ele>59</ele>
        <time>2019-07-17T16:33:37Z</time>
      </trkpt>
      <trkpt lat="47.81476" lon="-3.56413">
        <ele>59</ele>
        <time>2019-07-17T16:33:38Z</time>
      </trkpt>
      <trkpt lat="47.8148" lon="-3.56406">
        <ele>59</ele>
        <time>2019-07-17T16:33:39Z</time>
      </trkpt>
      <trkpt lat="47.81484" lon="-3.564">
        <ele>59</ele>
        <time>2019-07-17T16:33:40Z</time>
      </trkpt>
      <trkpt lat="47.81488" lon="-3.56393">
        <ele>59</ele>
        <time>2019-07-17T16:33:41Z</time>
      </trkpt>
      <trkpt lat="47.81492" lon="-3.56387">
        <ele>59</ele>
        <time>2019-07-17T16:33:42Z</time>
      </trkpt>
      <trkpt lat="47.81496" lon="-3.5638">
        <ele>59</ele>
        <time>2019-07-17T16:33:43Z</time>
      </trkpt>
      <trkpt lat="47.815" lon="-3.56372">
        <ele>59</ele>
        <time>2019-07-17T16:33:44Z</time>
      </trkpt>
      <trkpt lat="47.81504" lon="-3.56365">
        <ele>59</ele>
        <time>2019-07-17T16:33:45Z</time>
      </trkpt>
      <trkpt lat="47.81508" lon="-3.56358">
        <ele>59</ele>
        <time>2019-07-17T16:33:46Z</time>
      </trkpt>
      <trkpt lat="47.81512" lon="-3.56351">
        <ele>60</ele>
        <time>2019-07-17T16:33:47Z</time>
      </trkpt>
      <trkpt lat="47.81517" lon="-3.56344">
        <ele>60</ele>
        <time>2019-07-17T16:33:48Z</time>
      </trkpt>
      <trkpt lat="47.81521" lon="-3.56338">
        <ele>60</ele>
        <time>2019-07-17T16:33:49Z</time>
      </trkpt>
      <trkpt lat="47.81525" lon="-3.5633">
        <ele>60</ele>
        <time>2019-07-17T16:33:50Z</time>
      </trkpt>
      <trkpt lat="47.81527" lon="-3.56322">
        <ele>60</ele>
        <time>2019-07-17T16:33:51Z</time>
      </trkpt>
      <trkpt lat="47.81527" lon="-3.56314">
        <ele>59</ele>
        <time>2019-07-17T16:33:52Z</time>
      </trkpt>
      <trkpt lat="47.81524" lon="-3.56306">
        <ele>59</ele>
        <time>2019-07-17T16:33:53Z</time>
      </trkpt>
      <trkpt lat="47.8152" lon="-3.56301">
        <ele>59</ele>
        <time>2019-07-17T16:33:54Z</time>
      </trkpt>
      <trkpt lat="47.81515" lon="-3.56298">
        <ele>59</ele>
        <time>2019-07-17T16:33:55Z</time>
      </trkpt>
      <trkpt lat="47.8151" lon="-3.56295">
        <ele>59</ele>
        <time>2019-07-17T16:33:56Z</time>
      </trkpt>
      <trkpt lat="47.81505" lon="-3.56291">
        <ele>59</ele>
        <time>2019-07-17T16:33:57Z</time>
      </trkpt>
      <trkpt lat="47.81501" lon="-3.56287">
        <ele>59</ele>
        <time>2019-07-17T16:33:58Z</time>
      </trkpt>
      <trkpt lat="47.81495" lon="-3.56283">
        <ele>59</ele>
        <time>2019-07-17T16:33:59Z</time>
      </trkpt>
      <trkpt lat="47.81491" lon="-3.56279">
        <ele>59</ele>
        <time>2019-07-17T16:34:00Z</time>
      </trkpt>
      <trkpt lat="47.81485" lon="-3.56276">
        <ele>59</ele>
        <time>2019-07-17T16:34:01Z</time>
      </trkpt>
      <trkpt lat="47.81481" lon="-3.56272">
        <ele>59</ele>
        <time>2019-07-17T16:34:02Z</time>
      </trkpt>
      <trkpt lat="47.81476" lon="-3.56268">
        <ele>59</ele>
        <time>2019-07-17T16:34:03Z</time>
      </trkpt>
      <trkpt lat="47.81471" lon="-3.56264">
        <ele>59</ele>
        <time>2019-07-17T16:34:04Z</time>
      </trkpt>
      <trkpt lat="47.81466" lon="-3.5626">
        <ele>59</ele>
        <time>2019-07-17T16:34:05Z</time>
      </trkpt>
      <trkpt lat="47.81461" lon="-3.56256">
        <ele>59</ele>
        <time>2019-07-17T16:34:06Z</time>
      </trkpt>
      <trkpt lat="47.81456" lon="-3.56252">
        <ele>59</ele>
        <time>2019-07-17T16:34:07Z</time>
      </trkpt>
      <trkpt lat="47.81451" lon="-3.56248">
        <ele>59</ele>
        <time>2019-07-17T16:34:08Z</time>
      </trkpt>
      <trkpt lat="47.81446" lon="-3.56244">
        <ele>59</ele>
        <time>2019-07-17T16:34:09Z</time>
      </trkpt>
      <trkpt lat="47.81441" lon="-3.5624">
        <ele>59</ele>
        <time>2019-07-17T16:34:10Z</time>
      </trkpt>
      <trkpt lat="47.81435" lon="-3.56236">
        <ele>59</ele>
        <time>2019-07-17T16:34:11Z</time>
      </trkpt>
      <trkpt lat="47.8143" lon="-3.56232">
        <ele>59</ele>
        <time>2019-07-17T16:34:12Z</time>
      </trkpt>
      <trkpt lat="47.81425" lon="-3.56228">
        <ele>59</ele>
        <time>2019-07-17T16:34:13Z</time>
      </trkpt>
      <trkpt lat="47.81419" lon="-3.56223">
        <ele>59</ele>
        <time>2019-07-17T16:34:14Z</time>
      </trkpt>
      <trkpt lat="47.81414" lon="-3.56218">
        <ele>59</ele>
        <time>2019-07-17T16:34:15Z</time>
      </trkpt>
      <trkpt lat="47.81409" lon="-3.56214">
        <ele>59</ele>
        <time>2019-07-17T16:34:16Z</time>
      </trkpt>
      <trkpt lat="47.81403" lon="-3.56209">
        <ele>59</ele>
        <time>2019-07-17T16:34:17Z</time>
      </trkpt>
      <trkpt lat="47.81398" lon="-3.56204">
        <ele>59</ele>
        <time>2019-07-17T16:34:18Z</time>
      </trkpt>
      <trkpt lat="47.81393" lon="-3.562">
        <ele>59</ele>
        <time>2019-07-17T16:34:19Z</time>
      </trkpt>
      <trkpt lat="47.81389" lon="-3.56195">
        <ele>59</ele>
        <time>2019-07-17T16:34:20Z</time>
      </trkpt>
      <trkpt lat="47.81384" lon="-3.5619">
        <ele>59</ele>
        <time>2019-07-17T16:34:21Z</time>
      </trkpt>
      <trkpt lat="47.81379" lon="-3.56186">
        <ele>59</ele>
        <time>2019-07-17T16:34:22Z</time>
      </trkpt>
      <trkpt lat="47.81375" lon="-3.56182">
        <ele>59</ele>
        <time>2019-07-17T16:34:23Z</time>
      </trkpt>
      <trkpt lat="47.81371" lon="-3.56178">
        <ele>59</ele>
        <time>2019-07-17T16:34:24Z</time>
      </trkpt>
      <trkpt lat="47.81367" lon="-3.56174">
        <ele>59</ele>
        <time>2019-07-17T16:34:25Z</time>
      </trkpt>
      <trkpt lat="47.81363" lon="-3.56169">
        <ele>60</ele>
        <time>2019-07-17T16:34:26Z</time>
      </trkpt>
      <trkpt lat="47.81358" lon="-3.56165">
        <ele>60</ele>
        <time>2019-07-17T16:34:27Z</time>
      </trkpt>
      <trkpt lat="47.81354" lon="-3.56161">
        <ele>60</ele>
        <time>2019-07-17T16:34:28Z</time>
      </trkpt>
      <trkpt lat="47.81349" lon="-3.56157">
        <ele>59</ele>
        <time>2019-07-17T16:34:29Z</time>
      </trkpt>
      <trkpt lat="47.81344" lon="-3.56153">
        <ele>59</ele>
        <time>2019-07-17T16:34:30Z</time>
      </trkpt>
      <trkpt lat="47.81339" lon="-3.56148">
        <ele>59</ele>
        <time>2019-07-17T16:34:31Z</time>
      </trkpt>
      <trkpt lat="47.81334" lon="-3.56144">
        <ele>59</ele>
        <time>2019-07-17T16:34:32Z</time>
      </trkpt>
      <trkpt lat="47.81329" lon="-3.5614">
        <ele>59</ele>
        <time>2019-07-17T16:34:33Z</time>
      </trkpt>
      <trkpt lat="47.81324" lon="-3.56135">
        <ele>59</ele>
        <time>2019-07-17T16:34:34Z</time>
      </trkpt>
      <trkpt lat="47.81319" lon="-3.5613">
        <ele>59</ele>
        <time>2019-07-17T16:34:35Z</time>
      </trkpt>
      <trkpt lat="47.81314" lon="-3.56126">
        <ele>59</ele>
        <time>2019-07-17T16:34:36Z</time>
      </trkpt>
      <trkpt lat="47.81309" lon="-3.56121">
        <ele>59</ele>
        <time>2019-07-17T16:34:37Z</time>
      </trkpt>
      <trkpt lat="47.81304" lon="-3.56116">
        <ele>59</ele>
        <time>2019-07-17T16:34:38Z</time>
      </trkpt>
      <trkpt lat="47.81299" lon="-3.56112">
        <ele>59</ele>
        <time>2019-07-17T16:34:39Z</time>
      </trkpt>
      <trkpt lat="47.81294" lon="-3.56107">
        <ele>59</ele>
        <time>2019-07-17T16:34:40Z</time>
      </trkpt>
      <trkpt lat="47.81288" lon="-3.56102">
        <ele>59</ele>
        <time>2019-07-17T16:34:41Z</time>
      </trkpt>
      <trkpt lat="47.81283" lon="-3.56098">
        <ele>59</ele>
        <time>2019-07-17T16:34:42Z</time>
      </trkpt>
      <trkpt lat="47.81278" lon="-3.56092">
        <ele>59</ele>
        <time>2019-07-17T16:34:43Z</time>
      </trkpt>
      <trkpt lat="47.81272" lon="-3.56088">
        <ele>59</ele>
        <time>2019-07-17T16:34:44Z</time>
      </trkpt>
      <trkpt lat="47.81267" lon="-3.56082">
        <ele>59</ele>
        <time>2019-07-17T16:34:45Z</time>
      </trkpt>
      <trkpt lat="47.81261" lon="-3.56077">
        <ele>59</ele>
        <time>2019-07-17T16:34:46Z</time>
      </trkpt>
      <trkpt lat="47.81256" lon="-3.56072">
        <ele>59</ele>
        <time>2019-07-17T16:34:47Z</time>
      </trkpt>
      <trkpt lat="47.8125" lon="-3.56067">
        <ele>59</ele>
        <time>2019-07-17T16:34:48Z</time>
      </trkpt>
      <trkpt lat="47.81245" lon="-3.56062">
        <ele>59</ele>
        <time>2019-07-17T16:34:49Z</time>
      </trkpt>
      <trkpt lat="47.81239" lon="-3.56057">
        <ele>59</ele>
        <time>2019-07-17T16:34:50Z</time>
      </trkpt>
      <trkpt lat="47.81234" lon="-3.56052">
        <ele>58</ele>
        <time>2019-07-17T16:34:51Z</time>
      </trkpt>
      <trkpt lat="47.81229" lon="-3.56048">
        <ele>58</ele>
        <time>2019-07-17T16:34:52Z</time>
      </trkpt>
      <trkpt lat="47.81226" lon="-3.56047">
        <ele>58</ele>
        <time>2019-07-17T16:34:53Z</time>
      </trkpt>
      <trkpt lat="47.81224" lon="-3.56048">
        <ele>58</ele>
        <time>2019-07-17T16:34:54Z</time>
      </trkpt>
      <trkpt lat="47.81222" lon="-3.56052">
        <ele>58</ele>
        <time>2019-07-17T16:34:55Z</time>
      </trkpt>
      <trkpt lat="47.8122" lon="-3.56056">
        <ele>58</ele>
        <time>2019-07-17T16:34:56Z</time>
      </trkpt>
      <trkpt lat="47.81218" lon="-3.5606">
        <ele>58</ele>
        <time>2019-07-17T16:34:57Z</time>
      </trkpt>
      <trkpt lat="47.81216" lon="-3.56063">
        <ele>58</ele>
        <time>2019-07-17T16:34:58Z</time>
      </trkpt>
      <trkpt lat="47.81213" lon="-3.56068">
        <ele>58</ele>
        <time>2019-07-17T16:34:59Z</time>
      </trkpt>
      <trkpt lat="47.8121" lon="-3.56072">
        <ele>58</ele>
        <time>2019-07-17T16:35:00Z</time>
      </trkpt>
      <trkpt lat="47.81207" lon="-3.56077">
        <ele>58</ele>
        <time>2019-07-17T16:35:01Z</time>
      </trkpt>
      <trkpt lat="47.81205" lon="-3.56083">
        <ele>58</ele>
        <time>2019-07-17T16:35:02Z</time>
      </trkpt>
      <trkpt lat="47.81202" lon="-3.56089">
        <ele>58</ele>
        <time>2019-07-17T16:35:03Z</time>
      </trkpt>
      <trkpt lat="47.81199" lon="-3.56096">
        <ele>58</ele>
        <time>2019-07-17T16:35:04Z</time>
      </trkpt>
      <trkpt lat="47.81196" lon="-3.56103">
        <ele>58</ele>
        <time>2019-07-17T16:35:05Z</time>
      </trkpt>
      <trkpt lat="47.81194" lon="-3.5611">
        <ele>58</ele>
        <time>2019-07-17T16:35:06Z</time>
      </trkpt>
      <trkpt lat="47.81191" lon="-3.56116">
        <ele>58</ele>
        <time>2019-07-17T16:35:07Z</time>
      </trkpt>
      <trkpt lat="47.81189" lon="-3.56123">
        <ele>58</ele>
        <time>2019-07-17T16:35:08Z</time>
      </trkpt>
      <trkpt lat="47.81186" lon="-3.56129">
        <ele>58</ele>
        <time>2019-07-17T16:35:09Z</time>
      </trkpt>
      <trkpt lat="47.81184" lon="-3.56135">
        <ele>58</ele>
        <time>2019-07-17T16:35:10Z</time>
      </trkpt>
      <trkpt lat="47.81182" lon="-3.56142">
        <ele>58</ele>
        <time>2019-07-17T16:35:11Z</time>
      </trkpt>
      <trkpt lat="47.81179" lon="-3.56148">
        <ele>58</ele>
        <time>2019-07-17T16:35:12Z</time>
      </trkpt>
      <trkpt lat="47.81176" lon="-3.56154">
        <ele>58</ele>
        <time>2019-07-17T16:35:13Z</time>
      </trkpt>
      <trkpt lat="47.81174" lon="-3.56161">
        <ele>58</ele>
        <time>2019-07-17T16:35:14Z</time>
      </trkpt>
      <trkpt lat="47.81172" lon="-3.56167">
        <ele>58</ele>
        <time>2019-07-17T16:35:15Z</time>
      </trkpt>
      <trkpt lat="47.81169" lon="-3.56174">
        <ele>57</ele>
        <time>2019-07-17T16:35:16Z</time>
      </trkpt>
      <trkpt lat="47.81167" lon="-3.56181">
        <ele>58</ele>
        <time>2019-07-17T16:35:17Z</time>
      </trkpt>
      <trkpt lat="47.81165" lon="-3.56188">
        <ele>57</ele>
        <time>2019-07-17T16:35:18Z</time>
      </trkpt>
      <trkpt lat="47.81163" lon="-3.56195">
        <ele>57</ele>
        <time>2019-07-17T16:35:19Z</time>
      </trkpt>
      <trkpt lat="47.81161" lon="-3.56203">
        <ele>57</ele>
        <time>2019-07-17T16:35:20Z</time>
      </trkpt>
      <trkpt lat="47.81159" lon="-3.5621">
        <ele>57</ele>
        <time>2019-07-17T16:35:21Z</time>
      </trkpt>
      <trkpt lat="47.81157" lon="-3.56218">
        <ele>57</ele>
        <time>2019-07-17T16:35:22Z</time>
      </trkpt>
      <trkpt lat="47.81155" lon="-3.56226">
        <ele>57</ele>
        <time>2019-07-17T16:35:23Z</time>
      </trkpt>
      <trkpt lat="47.81153" lon="-3.56233">
        <ele>57</ele>
        <time>2019-07-17T16:35:24Z</time>
      </trkpt>
      <trkpt lat="47.81151" lon="-3.56241">
        <ele>57</ele>
        <time>2019-07-17T16:35:25Z</time>
      </trkpt>
      <trkpt lat="47.81148" lon="-3.56247">
        <ele>57</ele>
        <time>2019-07-17T16:35:26Z</time>
      </trkpt>
      <trkpt lat="47.81145" lon="-3.56253">
        <ele>57</ele>
        <time>2019-07-17T16:35:27Z</time>
      </trkpt>
      <trkpt lat="47.81141" lon="-3.56257">
        <ele>57</ele>
        <time>2019-07-17T16:35:28Z</time>
      </trkpt>
      <trkpt lat="47.81137" lon="-3.56262">
        <ele>57</ele>
        <time>2019-07-17T16:35:29Z</time>
      </trkpt>
      <trkpt lat="47.81133" lon="-3.56266">
        <ele>57</ele>
        <time>2019-07-17T16:35:30Z</time>
      </trkpt>
      <trkpt lat="47.81129" lon="-3.56269">
        <ele>57</ele>
        <time>2019-07-17T16:35:31Z</time>
      </trkpt>
      <trkpt lat="47.81124" lon="-3.56273">
        <ele>57</ele>
        <time>2019-07-17T16:35:32Z</time>
      </trkpt>
      <trkpt lat="47.8112" lon="-3.56278">
        <ele>57</ele>
        <time>2019-07-17T16:35:33Z</time>
      </trkpt>
      <trkpt lat="47.81116" lon="-3.56282">
        <ele>57</ele>
        <time>2019-07-17T16:35:34Z</time>
      </trkpt>
      <trkpt lat="47.81112" lon="-3.56285">
        <ele>58</ele>
        <time>2019-07-17T16:35:35Z</time>
      </trkpt>
      <trkpt lat="47.81107" lon="-3.5629">
        <ele>58</ele>
        <time>2019-07-17T16:35:36Z</time>
      </trkpt>
      <trkpt lat="47.81103" lon="-3.56294">
        <ele>58</ele>
        <time>2019-07-17T16:35:37Z</time>
      </trkpt>
      <trkpt lat="47.81098" lon="-3.56298">
        <ele>58</ele>
        <time>2019-07-17T16:35:38Z</time>
      </trkpt>
      <trkpt lat="47.81093" lon="-3.56302">
        <ele>58</ele>
        <time>2019-07-17T16:35:39Z</time>
      </trkpt>
      <trkpt lat="47.81088" lon="-3.56305">
        <ele>58</ele>
        <time>2019-07-17T16:35:40Z</time>
      </trkpt>
      <trkpt lat="47.81083" lon="-3.56306">
        <ele>58</ele>
        <time>2019-07-17T16:35:41Z</time>
      </trkpt>
      <trkpt lat="47.81078" lon="-3.56307">
        <ele>58</ele>
        <time>2019-07-17T16:35:42Z</time>
      </trkpt>
      <trkpt lat="47.81074" lon="-3.56308">
        <ele>58</ele>
        <time>2019-07-17T16:35:43Z</time>
      </trkpt>
      <trkpt lat="47.81069" lon="-3.5631">
        <ele>58</ele>
        <time>2019-07-17T16:35:44Z</time>
      </trkpt>
      <trkpt lat="47.81065" lon="-3.56311">
        <ele>59</ele>
        <time>2019-07-17T16:35:45Z</time>
      </trkpt>
      <trkpt lat="47.8106" lon="-3.56312">
        <ele>59</ele>
        <time>2019-07-17T16:35:46Z</time>
      </trkpt>
      <trkpt lat="47.81055" lon="-3.56312">
        <ele>59</ele>
        <time>2019-07-17T16:35:47Z</time>
      </trkpt>
      <trkpt lat="47.81051" lon="-3.56313">
        <ele>59</ele>
        <time>2019-07-17T16:35:48Z</time>
      </trkpt>
      <trkpt lat="47.81046" lon="-3.56313">
        <ele>59</ele>
        <time>2019-07-17T16:35:49Z</time>
      </trkpt>
      <trkpt lat="47.8104" lon="-3.56314">
        <ele>60</ele>
        <time>2019-07-17T16:35:50Z</time>
      </trkpt>
      <trkpt lat="47.81035" lon="-3.56315">
        <ele>60</ele>
        <time>2019-07-17T16:35:51Z</time>
      </trkpt>
      <trkpt lat="47.8103" lon="-3.56315">
        <ele>60</ele>
        <time>2019-07-17T16:35:52Z</time>
      </trkpt>
      <trkpt lat="47.81025" lon="-3.56315">
        <ele>60</ele>
        <time>2019-07-17T16:35:53Z</time>
      </trkpt>
      <trkpt lat="47.8102" lon="-3.56315">
        <ele>60</ele>
        <time>2019-07-17T16:35:54Z</time>
      </trkpt>
      <trkpt lat="47.81015" lon="-3.56314">
        <ele>60</ele>
        <time>2019-07-17T16:35:55Z</time>
      </trkpt>
      <trkpt lat="47.8101" lon="-3.56312">
        <ele>60</ele>
        <time>2019-07-17T16:35:56Z</time>
      </trkpt>
      <trkpt lat="47.81005" lon="-3.56309">
        <ele>60</ele>
        <time>2019-07-17T16:35:57Z</time>
      </trkpt>
      <trkpt lat="47.80999" lon="-3.56307">
        <ele>60</ele>
        <time>2019-07-17T16:35:58Z</time>
      </trkpt>
      <trkpt lat="47.80993" lon="-3.56305">
        <ele>60</ele>
        <time>2019-07-17T16:35:59Z</time>
      </trkpt>
      <trkpt lat="47.80988" lon="-3.56302">
        <ele>60</ele>
        <time>2019-07-17T16:36:00Z</time>
      </trkpt>
      <trkpt lat="47.80982" lon="-3.563">
        <ele>60</ele>
        <time>2019-07-17T16:36:01Z</time>
      </trkpt>
      <trkpt lat="47.80977" lon="-3.56299">
        <ele>59</ele>
        <time>2019-07-17T16:36:02Z</time>
      </trkpt>
      <trkpt lat="47.80972" lon="-3.56298">
        <ele>59</ele>
        <time>2019-07-17T16:36:03Z</time>
      </trkpt>
      <trkpt lat="47.80966" lon="-3.56297">
        <ele>59</ele>
        <time>2019-07-17T16:36:04Z</time>
      </trkpt>
      <trkpt lat="47.8096" lon="-3.56297">
        <ele>59</ele>
        <time>2019-07-17T16:36:05Z</time>
      </trkpt>
      <trkpt lat="47.80955" lon="-3.56297">
        <ele>59</ele>
        <time>2019-07-17T16:36:06Z</time>
      </trkpt>
      <trkpt lat="47.80949" lon="-3.56297">
        <ele>59</ele>
        <time>2019-07-17T16:36:07Z</time>
      </trkpt>
      <trkpt lat="47.80943" lon="-3.56297">
        <ele>59</ele>
        <time>2019-07-17T16:36:08Z</time>
      </trkpt>
      <trkpt lat="47.80937" lon="-3.56297">
        <ele>59</ele>
        <time>2019-07-17T16:36:09Z</time>
      </trkpt>
      <trkpt lat="47.80931" lon="-3.56298">
        <ele>59</ele>
        <time>2019-07-17T16:36:10Z</time>
      </trkpt>
      <trkpt lat="47.80924" lon="-3.56299">
        <ele>59</ele>
        <time>2019-07-17T16:36:11Z</time>
      </trkpt>
      <trkpt lat="47.80919" lon="-3.56301">
        <ele>59</ele>
        <time>2019-07-17T16:36:12Z</time>
      </trkpt>
      <trkpt lat="47.80913" lon="-3.56303">
        <ele>59</ele>
        <time>2019-07-17T16:36:13Z</time>
      </trkpt>
      <trkpt lat="47.80907" lon="-3.56305">
        <ele>59</ele>
        <time>2019-07-17T16:36:14Z</time>
      </trkpt>
      <trkpt lat="47.80902" lon="-3.56307">
        <ele>59</ele>
        <time>2019-07-17T16:36:15Z</time>
      </trkpt>
      <trkpt lat="47.80896" lon="-3.56309">
        <ele>59</ele>
        <time>2019-07-17T16:36:16Z</time>
      </trkpt>
      <trkpt lat="47.80891" lon="-3.56312">
        <ele>59</ele>
        <time>2019-07-17T16:36:17Z</time>
      </trkpt>
      <trkpt lat="47.80885" lon="-3.56313">
        <ele>59</ele>
        <time>2019-07-17T16:36:18Z</time>
      </trkpt>
      <trkpt lat="47.8088" lon="-3.56315">
        <ele>59</ele>
        <time>2019-07-17T16:36:19Z</time>
      </trkpt>
      <trkpt lat="47.80874" lon="-3.56316">
        <ele>59</ele>
        <time>2019-07-17T16:36:20Z</time>
      </trkpt>
      <trkpt lat="47.80869" lon="-3.56318">
        <ele>59</ele>
        <time>2019-07-17T16:36:21Z</time>
      </trkpt>
      <trkpt lat="47.80863" lon="-3.56321">
        <ele>59</ele>
        <time>2019-07-17T16:36:22Z</time>
      </trkpt>
      <trkpt lat="47.80857" lon="-3.56323">
        <ele>59</ele>
        <time>2019-07-17T16:36:23Z</time>
      </trkpt>
      <trkpt lat="47.80851" lon="-3.56325">
        <ele>59</ele>
        <time>2019-07-17T16:36:24Z</time>
      </trkpt>
      <trkpt lat="47.80845" lon="-3.56327">
        <ele>59</ele>
        <time>2019-07-17T16:36:25Z</time>
      </trkpt>
      <trkpt lat="47.80839" lon="-3.56328">
        <ele>59</ele>
        <time>2019-07-17T16:36:26Z</time>
      </trkpt>
      <trkpt lat="47.80833" lon="-3.56331">
        <ele>59</ele>
        <time>2019-07-17T16:36:27Z</time>
      </trkpt>
      <trkpt lat="47.80827" lon="-3.56333">
        <ele>59</ele>
        <time>2019-07-17T16:36:28Z</time>
      </trkpt>
      <trkpt lat="47.80822" lon="-3.56337">
        <ele>60</ele>
        <time>2019-07-17T16:36:29Z</time>
      </trkpt>
      <trkpt lat="47.80816" lon="-3.56341">
        <ele>60</ele>
        <time>2019-07-17T16:36:30Z</time>
      </trkpt>
      <trkpt lat="47.80812" lon="-3.56345">
        <ele>60</ele>
        <time>2019-07-17T16:36:31Z</time>
      </trkpt>
      <trkpt lat="47.80807" lon="-3.56349">
        <ele>60</ele>
        <time>2019-07-17T16:36:32Z</time>
      </trkpt>
      <trkpt lat="47.80802" lon="-3.56353">
        <ele>60</ele>
        <time>2019-07-17T16:36:33Z</time>
      </trkpt>
      <trkpt lat="47.80797" lon="-3.56357">
        <ele>60</ele>
        <time>2019-07-17T16:36:34Z</time>
      </trkpt>
      <trkpt lat="47.80792" lon="-3.56361">
        <ele>60</ele>
        <time>2019-07-17T16:36:35Z</time>
      </trkpt>
      <trkpt lat="47.80787" lon="-3.56365">
        <ele>60</ele>
        <time>2019-07-17T16:36:36Z</time>
      </trkpt>
      <trkpt lat="47.80782" lon="-3.56368">
        <ele>60</ele>
        <time>2019-07-17T16:36:37Z</time>
      </trkpt>
      <trkpt lat="47.80777" lon="-3.56372">
        <ele>60</ele>
        <time>2019-07-17T16:36:38Z</time>
      </trkpt>
      <trkpt lat="47.80772" lon="-3.56377">
        <ele>60</ele>
        <time>2019-07-17T16:36:39Z</time>
      </trkpt>
      <trkpt lat="47.80767" lon="-3.56381">
        <ele>60</ele>
        <time>2019-07-17T16:36:40Z</time>
      </trkpt>
      <trkpt lat="47.80763" lon="-3.56385">
        <ele>61</ele>
        <time>2019-07-17T16:36:41Z</time>
      </trkpt>
      <trkpt lat="47.80758" lon="-3.5639">
        <ele>61</ele>
        <time>2019-07-17T16:36:42Z</time>
      </trkpt>
      <trkpt lat="47.80753" lon="-3.56394">
        <ele>61</ele>
        <time>2019-07-17T16:36:43Z</time>
      </trkpt>
      <trkpt lat="47.80748" lon="-3.56399">
        <ele>61</ele>
        <time>2019-07-17T16:36:44Z</time>
      </trkpt>
      <trkpt lat="47.80743" lon="-3.56403">
        <ele>61</ele>
        <time>2019-07-17T16:36:45Z</time>
      </trkpt>
      <trkpt lat="47.80737" lon="-3.56408">
        <ele>61</ele>
        <time>2019-07-17T16:36:46Z</time>
      </trkpt>
      <trkpt lat="47.80733" lon="-3.56413">
        <ele>61</ele>
        <time>2019-07-17T16:36:47Z</time>
      </trkpt>
      <trkpt lat="47.80727" lon="-3.56417">
        <ele>61</ele>
        <time>2019-07-17T16:36:48Z</time>
      </trkpt>
      <trkpt lat="47.80722" lon="-3.56421">
        <ele>61</ele>
        <time>2019-07-17T16:36:49Z</time>
      </trkpt>
      <trkpt lat="47.80717" lon="-3.56426">
        <ele>61</ele>
        <time>2019-07-17T16:36:50Z</time>
      </trkpt>
      <trkpt lat="47.80711" lon="-3.56431">
        <ele>61</ele>
        <time>2019-07-17T16:36:51Z</time>
      </trkpt>
      <trkpt lat="47.80705" lon="-3.56437">
        <ele>61</ele>
        <time>2019-07-17T16:36:52Z</time>
      </trkpt>
      <trkpt lat="47.80699" lon="-3.56443">
        <ele>61</ele>
        <time>2019-07-17T16:36:53Z</time>
      </trkpt>
      <trkpt lat="47.80694" lon="-3.56447">
        <ele>62</ele>
        <time>2019-07-17T16:36:54Z</time>
      </trkpt>
      <trkpt lat="47.80688" lon="-3.56452">
        <ele>62</ele>
        <time>2019-07-17T16:36:55Z</time>
      </trkpt>
      <trkpt lat="47.80683" lon="-3.56458">
        <ele>62</ele>
        <time>2019-07-17T16:36:56Z</time>
      </trkpt>
      <trkpt lat="47.80678" lon="-3.56463">
        <ele>62</ele>
        <time>2019-07-17T16:36:57Z</time>
      </trkpt>
      <trkpt lat="47.80674" lon="-3.5647">
        <ele>62</ele>
        <time>2019-07-17T16:36:58Z</time>
      </trkpt>
      <trkpt lat="47.8067" lon="-3.56477">
        <ele>62</ele>
        <time>2019-07-17T16:36:59Z</time>
      </trkpt>
      <trkpt lat="47.80665" lon="-3.56484">
        <ele>63</ele>
        <time>2019-07-17T16:37:00Z</time>
      </trkpt>
      <trkpt lat="47.80661" lon="-3.56491">
        <ele>63</ele>
        <time>2019-07-17T16:37:01Z</time>
      </trkpt>
      <trkpt lat="47.80656" lon="-3.56499">
        <ele>63</ele>
        <time>2019-07-17T16:37:02Z</time>
      </trkpt>
      <trkpt lat="47.80651" lon="-3.56506">
        <ele>63</ele>
        <time>2019-07-17T16:37:03Z</time>
      </trkpt>
      <trkpt lat="47.80646" lon="-3.56513">
        <ele>63</ele>
        <time>2019-07-17T16:37:04Z</time>
      </trkpt>
      <trkpt lat="47.80641" lon="-3.56519">
        <ele>63</ele>
        <time>2019-07-17T16:37:05Z</time>
      </trkpt>
      <trkpt lat="47.80637" lon="-3.56527">
        <ele>63</ele>
        <time>2019-07-17T16:37:06Z</time>
      </trkpt>
      <trkpt lat="47.80632" lon="-3.56534">
        <ele>63</ele>
        <time>2019-07-17T16:37:07Z</time>
      </trkpt>
      <trkpt lat="47.80628" lon="-3.56541">
        <ele>63</ele>
        <time>2019-07-17T16:37:08Z</time>
      </trkpt>
      <trkpt lat="47.80624" lon="-3.56548">
        <ele>63</ele>
        <time>2019-07-17T16:37:09Z</time>
      </trkpt>
      <trkpt lat="47.80619" lon="-3.56554">
        <ele>64</ele>
        <time>2019-07-17T16:37:10Z</time>
      </trkpt>
      <trkpt lat="47.80615" lon="-3.56561">
        <ele>64</ele>
        <time>2019-07-17T16:37:11Z</time>
      </trkpt>
      <trkpt lat="47.80611" lon="-3.56567">
        <ele>63</ele>
        <time>2019-07-17T16:37:12Z</time>
      </trkpt>
      <trkpt lat="47.80606" lon="-3.56572">
        <ele>63</ele>
        <time>2019-07-17T16:37:13Z</time>
      </trkpt>
      <trkpt lat="47.80602" lon="-3.56575">
        <ele>63</ele>
        <time>2019-07-17T16:37:14Z</time>
      </trkpt>
      <trkpt lat="47.80596" lon="-3.56576">
        <ele>63</ele>
        <time>2019-07-17T16:37:15Z</time>
      </trkpt>
      <trkpt lat="47.8059" lon="-3.56578">
        <ele>63</ele>
        <time>2019-07-17T16:37:16Z</time>
      </trkpt>
      <trkpt lat="47.80584" lon="-3.56579">
        <ele>62</ele>
        <time>2019-07-17T16:37:17Z</time>
      </trkpt>
      <trkpt lat="47.80578" lon="-3.56581">
        <ele>62</ele>
        <time>2019-07-17T16:37:18Z</time>
      </trkpt>
      <trkpt lat="47.80572" lon="-3.56583">
        <ele>62</ele>
        <time>2019-07-17T16:37:19Z</time>
      </trkpt>
      <trkpt lat="47.80565" lon="-3.56585">
        <ele>61</ele>
        <time>2019-07-17T16:37:20Z</time>
      </trkpt>
      <trkpt lat="47.80559" lon="-3.56587">
        <ele>61</ele>
        <time>2019-07-17T16:37:21Z</time>
      </trkpt>
      <trkpt lat="47.80552" lon="-3.56588">
        <ele>60</ele>
        <time>2019-07-17T16:37:22Z</time>
      </trkpt>
      <trkpt lat="47.80545" lon="-3.5659">
        <ele>60</ele>
        <time>2019-07-17T16:37:23Z</time>
      </trkpt>
      <trkpt lat="47.80539" lon="-3.56592">
        <ele>60</ele>
        <time>2019-07-17T16:37:24Z</time>
      </trkpt>
      <trkpt lat="47.80532" lon="-3.56594">
        <ele>59</ele>
        <time>2019-07-17T16:37:25Z</time>
      </trkpt>
      <trkpt lat="47.80526" lon="-3.56596">
        <ele>59</ele>
        <time>2019-07-17T16:37:26Z</time>
      </trkpt>
      <trkpt lat="47.80519" lon="-3.56598">
        <ele>59</ele>
        <time>2019-07-17T16:37:27Z</time>
      </trkpt>
      <trkpt lat="47.80512" lon="-3.566">
        <ele>58</ele>
        <time>2019-07-17T16:37:28Z</time>
      </trkpt>
      <trkpt lat="47.80505" lon="-3.56601">
        <ele>58</ele>
        <time>2019-07-17T16:37:29Z</time>
      </trkpt>
      <trkpt lat="47.80498" lon="-3.56603">
        <ele>58</ele>
        <time>2019-07-17T16:37:30Z</time>
      </trkpt>
      <trkpt lat="47.80491" lon="-3.56604">
        <ele>57</ele>
        <time>2019-07-17T16:37:31Z</time>
      </trkpt>
      <trkpt lat="47.80483" lon="-3.56606">
        <ele>57</ele>
        <time>2019-07-17T16:37:32Z</time>
      </trkpt>
      <trkpt lat="47.80476" lon="-3.56608">
        <ele>57</ele>
        <time>2019-07-17T16:37:33Z</time>
      </trkpt>
      <trkpt lat="47.80468" lon="-3.5661">
        <ele>56</ele>
        <time>2019-07-17T16:37:34Z</time>
      </trkpt>
      <trkpt lat="47.80461" lon="-3.56611">
        <ele>56</ele>
        <time>2019-07-17T16:37:35Z</time>
      </trkpt>
      <trkpt lat="47.80454" lon="-3.56613">
        <ele>56</ele>
        <time>2019-07-17T16:37:36Z</time>
      </trkpt>
      <trkpt lat="47.80447" lon="-3.56615">
        <ele>56</ele>
        <time>2019-07-17T16:37:37Z</time>
      </trkpt>
      <trkpt lat="47.80441" lon="-3.56616">
        <ele>56</ele>
        <time>2019-07-17T16:37:38Z</time>
      </trkpt>
      <trkpt lat="47.80436" lon="-3.56616">
        <ele>56</ele>
        <time>2019-07-17T16:37:39Z</time>
      </trkpt>
      <trkpt lat="47.80432" lon="-3.56615">
        <ele>56</ele>
        <time>2019-07-17T16:37:40Z</time>
      </trkpt>
      <trkpt lat="47.80428" lon="-3.56611">
        <ele>56</ele>
        <time>2019-07-17T16:37:41Z</time>
      </trkpt>
      <trkpt lat="47.80426" lon="-3.56605">
        <ele>56</ele>
        <time>2019-07-17T16:37:42Z</time>
      </trkpt>
      <trkpt lat="47.80422" lon="-3.56599">
        <ele>56</ele>
        <time>2019-07-17T16:37:43Z</time>
      </trkpt>
      <trkpt lat="47.80417" lon="-3.56595">
        <ele>56</ele>
        <time>2019-07-17T16:37:44Z</time>
      </trkpt>
      <trkpt lat="47.80411" lon="-3.56594">
        <ele>55</ele>
        <time>2019-07-17T16:37:45Z</time>
      </trkpt>
      <trkpt lat="47.80405" lon="-3.56593">
        <ele>55</ele>
        <time>2019-07-17T16:37:46Z</time>
      </trkpt>
      <trkpt lat="47.80399" lon="-3.56592">
        <ele>55</ele>
        <time>2019-07-17T16:37:47Z</time>
      </trkpt>
      <trkpt lat="47.80393" lon="-3.56592">
        <ele>55</ele>
        <time>2019-07-17T16:37:48Z</time>
      </trkpt>
      <trkpt lat="47.80388" lon="-3.56591">
        <ele>55</ele>
        <time>2019-07-17T16:37:49Z</time>
      </trkpt>
      <trkpt lat="47.80382" lon="-3.56589">
        <ele>55</ele>
        <time>2019-07-17T16:37:50Z</time>
      </trkpt>
      <trkpt lat="47.80376" lon="-3.56588">
        <ele>55</ele>
        <time>2019-07-17T16:37:51Z</time>
      </trkpt>
      <trkpt lat="47.80371" lon="-3.56586">
        <ele>55</ele>
        <time>2019-07-17T16:37:52Z</time>
      </trkpt>
      <trkpt lat="47.80365" lon="-3.56582">
        <ele>55</ele>
        <time>2019-07-17T16:37:53Z</time>
      </trkpt>
      <trkpt lat="47.8036" lon="-3.5658">
        <ele>55</ele>
        <time>2019-07-17T16:37:54Z</time>
      </trkpt>
      <trkpt lat="47.80355" lon="-3.56577">
        <ele>55</ele>
        <time>2019-07-17T16:37:55Z</time>
      </trkpt>
      <trkpt lat="47.8035" lon="-3.56576">
        <ele>55</ele>
        <time>2019-07-17T16:37:56Z</time>
      </trkpt>
      <trkpt lat="47.80345" lon="-3.56575">
        <ele>55</ele>
        <time>2019-07-17T16:37:57Z</time>
      </trkpt>
      <trkpt lat="47.8034" lon="-3.56574">
        <ele>55</ele>
        <time>2019-07-17T16:37:58Z</time>
      </trkpt>
      <trkpt lat="47.80335" lon="-3.56572">
        <ele>55</ele>
        <time>2019-07-17T16:37:59Z</time>
      </trkpt>
      <trkpt lat="47.8033" lon="-3.56571">
        <ele>55</ele>
        <time>2019-07-17T16:38:00Z</time>
      </trkpt>
      <trkpt lat="47.80325" lon="-3.56569">
        <ele>55</ele>
        <time>2019-07-17T16:38:01Z</time>
      </trkpt>
      <trkpt lat="47.80321" lon="-3.56568">
        <ele>55</ele>
        <time>2019-07-17T16:38:02Z</time>
      </trkpt>
      <trkpt lat="47.80316" lon="-3.56566">
        <ele>54</ele>
        <time>2019-07-17T16:38:03Z</time>
      </trkpt>
      <trkpt lat="47.8031" lon="-3.56565">
        <ele>54</ele>
        <time>2019-07-17T16:38:04Z</time>
      </trkpt>
      <trkpt lat="47.80306" lon="-3.56565">
        <ele>54</ele>
        <time>2019-07-17T16:38:05Z</time>
      </trkpt>
      <trkpt lat="47.80301" lon="-3.56564">
        <ele>55</ele>
        <time>2019-07-17T16:38:06Z</time>
      </trkpt>
      <trkpt lat="47.80296" lon="-3.56564">
        <ele>55</ele>
        <time>2019-07-17T16:38:07Z</time>
      </trkpt>
      <trkpt lat="47.8029" lon="-3.56563">
        <ele>55</ele>
        <time>2019-07-17T16:38:08Z</time>
      </trkpt>
      <trkpt lat="47.80285" lon="-3.56562">
        <ele>55</ele>
        <time>2019-07-17T16:38:09Z</time>
      </trkpt>
      <trkpt lat="47.80279" lon="-3.5656">
        <ele>55</ele>
        <time>2019-07-17T16:38:10Z</time>
      </trkpt>
      <trkpt lat="47.80274" lon="-3.56558">
        <ele>55</ele>
        <time>2019-07-17T16:38:11Z</time>
      </trkpt>
      <trkpt lat="47.80268" lon="-3.56557">
        <ele>54</ele>
        <time>2019-07-17T16:38:12Z</time>
      </trkpt>
      <trkpt lat="47.80263" lon="-3.56555">
        <ele>54</ele>
        <time>2019-07-17T16:38:13Z</time>
      </trkpt>
      <trkpt lat="47.80257" lon="-3.56552">
        <ele>54</ele>
        <time>2019-07-17T16:38:14Z</time>
      </trkpt>
      <trkpt lat="47.80252" lon="-3.5655">
        <ele>54</ele>
        <time>2019-07-17T16:38:15Z</time>
      </trkpt>
      <trkpt lat="47.80247" lon="-3.56549">
        <ele>54</ele>
        <time>2019-07-17T16:38:16Z</time>
      </trkpt>
      <trkpt lat="47.80241" lon="-3.56546">
        <ele>54</ele>
        <time>2019-07-17T16:38:17Z</time>
      </trkpt>
      <trkpt lat="47.80237" lon="-3.56545">
        <ele>54</ele>
        <time>2019-07-17T16:38:18Z</time>
      </trkpt>
      <trkpt lat="47.80232" lon="-3.56542">
        <ele>54</ele>
        <time>2019-07-17T16:38:19Z</time>
      </trkpt>
      <trkpt lat="47.80228" lon="-3.5654">
        <ele>54</ele>
        <time>2019-07-17T16:38:20Z</time>
      </trkpt>
      <trkpt lat="47.80224" lon="-3.56537">
        <ele>54</ele>
        <time>2019-07-17T16:38:21Z</time>
      </trkpt>
      <trkpt lat="47.80221" lon="-3.56535">
        <ele>54</ele>
        <time>2019-07-17T16:38:22Z</time>
      </trkpt>
      <trkpt lat="47.80219" lon="-3.56535">
        <ele>54</ele>
        <time>2019-07-17T16:38:23Z</time>
      </trkpt>
      <trkpt lat="47.80217" lon="-3.56536">
        <ele>54</ele>
        <time>2019-07-17T16:38:24Z</time>
      </trkpt>
      <trkpt lat="47.80216" lon="-3.56537">
        <ele>54</ele>
        <time>2019-07-17T16:38:25Z</time>
      </trkpt>
      <trkpt lat="47.80215" lon="-3.56538">
        <ele>54</ele>
        <time>2019-07-17T16:38:26Z</time>
      </trkpt>
      <trkpt lat="47.80214" lon="-3.56539">
        <ele>54</ele>
        <time>2019-07-17T16:38:27Z</time>
      </trkpt>
      <trkpt lat="47.80212" lon="-3.56539">
        <ele>54</ele>
        <time>2019-07-17T16:38:28Z</time>
      </trkpt>
      <trkpt lat="47.8021" lon="-3.56536">
        <ele>54</ele>
        <time>2019-07-17T16:38:29Z</time>
      </trkpt>
      <trkpt lat="47.80208" lon="-3.56533">
        <ele>54</ele>
        <time>2019-07-17T16:38:30Z</time>
      </trkpt>
      <trkpt lat="47.80205" lon="-3.5653">
        <ele>54</ele>
        <time>2019-07-17T16:38:31Z</time>
      </trkpt>
      <trkpt lat="47.80201" lon="-3.56528">
        <ele>54</ele>
        <time>2019-07-17T16:38:32Z</time>
      </trkpt>
      <trkpt lat="47.80197" lon="-3.56525">
        <ele>54</ele>
        <time>2019-07-17T16:38:33Z</time>
      </trkpt>
      <trkpt lat="47.80192" lon="-3.56523">
        <ele>54</ele>
        <time>2019-07-17T16:38:34Z</time>
      </trkpt>
      <trkpt lat="47.80188" lon="-3.56521">
        <ele>54</ele>
        <time>2019-07-17T16:38:35Z</time>
      </trkpt>
      <trkpt lat="47.80182" lon="-3.56519">
        <ele>53</ele>
        <time>2019-07-17T16:38:36Z</time>
      </trkpt>
      <trkpt lat="47.80177" lon="-3.56517">
        <ele>53</ele>
        <time>2019-07-17T16:38:37Z</time>
      </trkpt>
      <trkpt lat="47.80172" lon="-3.56515">
        <ele>53</ele>
        <time>2019-07-17T16:38:38Z</time>
      </trkpt>
      <trkpt lat="47.80165" lon="-3.56513">
        <ele>53</ele>
        <time>2019-07-17T16:38:39Z</time>
      </trkpt>
      <trkpt lat="47.80159" lon="-3.56513">
        <ele>53</ele>
        <time>2019-07-17T16:38:40Z</time>
      </trkpt>
      <trkpt lat="47.80153" lon="-3.56512">
        <ele>53</ele>
        <time>2019-07-17T16:38:41Z</time>
      </trkpt>
      <trkpt lat="47.80147" lon="-3.56512">
        <ele>53</ele>
        <time>2019-07-17T16:38:42Z</time>
      </trkpt>
      <trkpt lat="47.8014" lon="-3.56511">
        <ele>53</ele>
        <time>2019-07-17T16:38:43Z</time>
      </trkpt>
      <trkpt lat="47.80134" lon="-3.56511">
        <ele>53</ele>
        <time>2019-07-17T16:38:44Z</time>
      </trkpt>
      <trkpt lat="47.80129" lon="-3.56509">
        <ele>53</ele>
        <time>2019-07-17T16:38:45Z</time>
      </trkpt>
      <trkpt lat="47.80123" lon="-3.56506">
        <ele>53</ele>
        <time>2019-07-17T16:38:46Z</time>
      </trkpt>
      <trkpt lat="47.80117" lon="-3.56503">
        <ele>53</ele>
        <time>2019-07-17T16:38:47Z</time>
      </trkpt>
      <trkpt lat="47.80112" lon="-3.56499">
        <ele>53</ele>
        <time>2019-07-17T16:38:48Z</time>
      </trkpt>
      <trkpt lat="47.80106" lon="-3.56495">
        <ele>53</ele>
        <time>2019-07-17T16:38:49Z</time>
      </trkpt>
      <trkpt lat="47.80101" lon="-3.56491">
        <ele>53</ele>
        <time>2019-07-17T16:38:50Z</time>
      </trkpt>
      <trkpt lat="47.80096" lon="-3.56487">
        <ele>53</ele>
        <time>2019-07-17T16:38:51Z</time>
      </trkpt>
      <trkpt lat="47.8009" lon="-3.56483">
        <ele>53</ele>
        <time>2019-07-17T16:38:52Z</time>
      </trkpt>
      <trkpt lat="47.80085" lon="-3.5648">
        <ele>53</ele>
        <time>2019-07-17T16:38:53Z</time>
      </trkpt>
      <trkpt lat="47.80079" lon="-3.56476">
        <ele>53</ele>
        <time>2019-07-17T16:38:54Z</time>
      </trkpt>
      <trkpt lat="47.80073" lon="-3.56472">
        <ele>53</ele>
        <time>2019-07-17T16:38:55Z</time>
      </trkpt>
      <trkpt lat="47.80067" lon="-3.56468">
        <ele>53</ele>
        <time>2019-07-17T16:38:56Z</time>
      </trkpt>
      <trkpt lat="47.80062" lon="-3.56464">
        <ele>53</ele>
        <time>2019-07-17T16:38:57Z</time>
      </trkpt>
      <trkpt lat="47.80056" lon="-3.56461">
        <ele>53</ele>
        <time>2019-07-17T16:38:58Z</time>
      </trkpt>
      <trkpt lat="47.8005" lon="-3.56457">
        <ele>53</ele>
        <time>2019-07-17T16:38:59Z</time>
      </trkpt>
      <trkpt lat="47.80044" lon="-3.56454">
        <ele>53</ele>
        <time>2019-07-17T16:39:00Z</time>
      </trkpt>
      <trkpt lat="47.80039" lon="-3.5645">
        <ele>53</ele>
        <time>2019-07-17T16:39:01Z</time>
      </trkpt>
      <trkpt lat="47.80033" lon="-3.56448">
        <ele>53</ele>
        <time>2019-07-17T16:39:02Z</time>
      </trkpt>
      <trkpt lat="47.80027" lon="-3.56446">
        <ele>53</ele>
        <time>2019-07-17T16:39:03Z</time>
      </trkpt>
      <trkpt lat="47.80021" lon="-3.56445">
        <ele>53</ele>
        <time>2019-07-17T16:39:04Z</time>
      </trkpt>
      <trkpt lat="47.80014" lon="-3.56444">
        <ele>53</ele>
        <time>2019-07-17T16:39:05Z</time>
      </trkpt>
      <trkpt lat="47.80008" lon="-3.56444">
        <ele>53</ele>
        <time>2019-07-17T16:39:06Z</time>
      </trkpt>
      <trkpt lat="47.80002" lon="-3.56444">
        <ele>53</ele>
        <time>2019-07-17T16:39:07Z</time>
      </trkpt>
      <trkpt lat="47.79996" lon="-3.56445">
        <ele>53</ele>
        <time>2019-07-17T16:39:08Z</time>
      </trkpt>
      <trkpt lat="47.7999" lon="-3.56446">
        <ele>53</ele>
        <time>2019-07-17T16:39:09Z</time>
      </trkpt>
      <trkpt lat="47.79984" lon="-3.56447">
        <ele>53</ele>
        <time>2019-07-17T16:39:10Z</time>
      </trkpt>
      <trkpt lat="47.79978" lon="-3.56445">
        <ele>53</ele>
        <time>2019-07-17T16:39:11Z</time>
      </trkpt>
      <trkpt lat="47.79972" lon="-3.56442">
        <ele>53</ele>
        <time>2019-07-17T16:39:12Z</time>
      </trkpt>
      <trkpt lat="47.79966" lon="-3.56438">
        <ele>53</ele>
        <time>2019-07-17T16:39:13Z</time>
      </trkpt>
      <trkpt lat="47.7996" lon="-3.56434">
        <ele>52</ele>
        <time>2019-07-17T16:39:14Z</time>
      </trkpt>
      <trkpt lat="47.79954" lon="-3.56431">
        <ele>52</ele>
        <time>2019-07-17T16:39:15Z</time>
      </trkpt>
      <trkpt lat="47.79947" lon="-3.56429">
        <ele>52</ele>
        <time>2019-07-17T16:39:16Z</time>
      </trkpt>
      <trkpt lat="47.7994" lon="-3.56427">
        <ele>51</ele>
        <time>2019-07-17T16:39:17Z</time>
      </trkpt>
      <trkpt lat="47.79933" lon="-3.56426">
        <ele>51</ele>
        <time>2019-07-17T16:39:18Z</time>
      </trkpt>
      <trkpt lat="47.79926" lon="-3.56425">
        <ele>50</ele>
        <time>2019-07-17T16:39:19Z</time>
      </trkpt>
      <trkpt lat="47.79919" lon="-3.56423">
        <ele>50</ele>
        <time>2019-07-17T16:39:20Z</time>
      </trkpt>
      <trkpt lat="47.79912" lon="-3.56421">
        <ele>50</ele>
        <time>2019-07-17T16:39:21Z</time>
      </trkpt>
      <trkpt lat="47.79905" lon="-3.56419">
        <ele>49</ele>
        <time>2019-07-17T16:39:22Z</time>
      </trkpt>
      <trkpt lat="47.79898" lon="-3.56417">
        <ele>49</ele>
        <time>2019-07-17T16:39:23Z</time>
      </trkpt>
      <trkpt lat="47.79891" lon="-3.56415">
        <ele>49</ele>
        <time>2019-07-17T16:39:24Z</time>
      </trkpt>
      <trkpt lat="47.79884" lon="-3.56413">
        <ele>49</ele>
        <time>2019-07-17T16:39:25Z</time>
      </trkpt>
      <trkpt lat="47.79877" lon="-3.5641">
        <ele>48</ele>
        <time>2019-07-17T16:39:26Z</time>
      </trkpt>
      <trkpt lat="47.7987" lon="-3.56407">
        <ele>48</ele>
        <time>2019-07-17T16:39:27Z</time>
      </trkpt>
      <trkpt lat="47.79863" lon="-3.56404">
        <ele>48</ele>
        <time>2019-07-17T16:39:28Z</time>
      </trkpt>
      <trkpt lat="47.79857" lon="-3.56401">
        <ele>48</ele>
        <time>2019-07-17T16:39:29Z</time>
      </trkpt>
      <trkpt lat="47.7985" lon="-3.56398">
        <ele>48</ele>
        <time>2019-07-17T16:39:30Z</time>
      </trkpt>
      <trkpt lat="47.79843" lon="-3.56395">
        <ele>47</ele>
        <time>2019-07-17T16:39:31Z</time>
      </trkpt>
      <trkpt lat="47.79836" lon="-3.56392">
        <ele>47</ele>
        <time>2019-07-17T16:39:32Z</time>
      </trkpt>
      <trkpt lat="47.79829" lon="-3.5639">
        <ele>47</ele>
        <time>2019-07-17T16:39:33Z</time>
      </trkpt>
      <trkpt lat="47.79821" lon="-3.56388">
        <ele>47</ele>
        <time>2019-07-17T16:39:34Z</time>
      </trkpt>
      <trkpt lat="47.79814" lon="-3.56386">
        <ele>47</ele>
        <time>2019-07-17T16:39:35Z</time>
      </trkpt>
      <trkpt lat="47.79805" lon="-3.56383">
        <ele>47</ele>
        <time>2019-07-17T16:39:36Z</time>
      </trkpt>
      <trkpt lat="47.79797" lon="-3.5638">
        <ele>47</ele>
        <time>2019-07-17T16:39:37Z</time>
      </trkpt>
      <trkpt lat="47.7979" lon="-3.56378">
        <ele>47</ele>
        <time>2019-07-17T16:39:38Z</time>
      </trkpt>
      <trkpt lat="47.79782" lon="-3.56376">
        <ele>46</ele>
        <time>2019-07-17T16:39:39Z</time>
      </trkpt>
      <trkpt lat="47.79775" lon="-3.56375">
        <ele>46</ele>
        <time>2019-07-17T16:39:40Z</time>
      </trkpt>
      <trkpt lat="47.79768" lon="-3.56373">
        <ele>46</ele>
        <time>2019-07-17T16:39:41Z</time>
      </trkpt>
      <trkpt lat="47.79761" lon="-3.56371">
        <ele>46</ele>
        <time>2019-07-17T16:39:42Z</time>
      </trkpt>
      <trkpt lat="47.79755" lon="-3.5637">
        <ele>45</ele>
        <time>2019-07-17T16:39:43Z</time>
      </trkpt>
      <trkpt lat="47.79749" lon="-3.56368">
        <ele>45</ele>
        <time>2019-07-17T16:39:44Z</time>
      </trkpt>
      <trkpt lat="47.79744" lon="-3.56366">
        <ele>45</ele>
        <time>2019-07-17T16:39:45Z</time>
      </trkpt>
      <trkpt lat="47.79738" lon="-3.56364">
        <ele>45</ele>
        <time>2019-07-17T16:39:46Z</time>
      </trkpt>
      <trkpt lat="47.79732" lon="-3.56362">
        <ele>45</ele>
        <time>2019-07-17T16:39:47Z</time>
      </trkpt>
      <trkpt lat="47.79727" lon="-3.5636">
        <ele>45</ele>
        <time>2019-07-17T16:39:48Z</time>
      </trkpt>
      <trkpt lat="47.79722" lon="-3.56358">
        <ele>45</ele>
        <time>2019-07-17T16:39:49Z</time>
      </trkpt>
      <trkpt lat="47.79717" lon="-3.56356">
        <ele>45</ele>
        <time>2019-07-17T16:39:50Z</time>
      </trkpt>
      <trkpt lat="47.79712" lon="-3.56355">
        <ele>45</ele>
        <time>2019-07-17T16:39:51Z</time>
      </trkpt>
      <trkpt lat="47.79708" lon="-3.56354">
        <ele>45</ele>
        <time>2019-07-17T16:39:52Z</time>
      </trkpt>
      <trkpt lat="47.79703" lon="-3.56353">
        <ele>45</ele>
        <time>2019-07-17T16:39:53Z</time>
      </trkpt>
      <trkpt lat="47.79699" lon="-3.56352">
        <ele>45</ele>
        <time>2019-07-17T16:39:54Z</time>
      </trkpt>
      <trkpt lat="47.79694" lon="-3.56351">
        <ele>45</ele>
        <time>2019-07-17T16:39:55Z</time>
      </trkpt>
      <trkpt lat="47.7969" lon="-3.56349">
        <ele>45</ele>
        <time>2019-07-17T16:39:56Z</time>
      </trkpt>
      <trkpt lat="47.79686" lon="-3.56348">
        <ele>45</ele>
        <time>2019-07-17T16:39:57Z</time>
      </trkpt>
      <trkpt lat="47.79681" lon="-3.56346">
        <ele>45</ele>
        <time>2019-07-17T16:39:58Z</time>
      </trkpt>
      <trkpt lat="47.79678" lon="-3.56344">
        <ele>45</ele>
        <time>2019-07-17T16:39:59Z</time>
      </trkpt>
      <trkpt lat="47.79674" lon="-3.56343">
        <ele>45</ele>
        <time>2019-07-17T16:40:00Z</time>
      </trkpt>
      <trkpt lat="47.7967" lon="-3.56342">
        <ele>45</ele>
        <time>2019-07-17T16:40:01Z</time>
      </trkpt>
      <trkpt lat="47.79667" lon="-3.56341">
        <ele>45</ele>
        <time>2019-07-17T16:40:02Z</time>
      </trkpt>
      <trkpt lat="47.79663" lon="-3.56339">
        <ele>45</ele>
        <time>2019-07-17T16:40:03Z</time>
      </trkpt>
      <trkpt lat="47.79659" lon="-3.56338">
        <ele>45</ele>
        <time>2019-07-17T16:40:04Z</time>
      </trkpt>
      <trkpt lat="47.79655" lon="-3.56338">
        <ele>45</ele>
        <time>2019-07-17T16:40:05Z</time>
      </trkpt>
      <trkpt lat="47.79652" lon="-3.56336">
        <ele>46</ele>
        <time>2019-07-17T16:40:06Z</time>
      </trkpt>
      <trkpt lat="47.79648" lon="-3.56335">
        <ele>46</ele>
        <time>2019-07-17T16:40:07Z</time>
      </trkpt>
      <trkpt lat="47.79644" lon="-3.56335">
        <ele>46</ele>
        <time>2019-07-17T16:40:08Z</time>
      </trkpt>
      <trkpt lat="47.79641" lon="-3.56333">
        <ele>46</ele>
        <time>2019-07-17T16:40:09Z</time>
      </trkpt>
      <trkpt lat="47.79637" lon="-3.56332">
        <ele>46</ele>
        <time>2019-07-17T16:40:10Z</time>
      </trkpt>
      <trkpt lat="47.79633" lon="-3.56329">
        <ele>46</ele>
        <time>2019-07-17T16:40:11Z</time>
      </trkpt>
      <trkpt lat="47.7963" lon="-3.56327">
        <ele>47</ele>
        <time>2019-07-17T16:40:12Z</time>
      </trkpt>
      <trkpt lat="47.79626" lon="-3.56325">
        <ele>47</ele>
        <time>2019-07-17T16:40:13Z</time>
      </trkpt>
      <trkpt lat="47.79622" lon="-3.56322">
        <ele>47</ele>
        <time>2019-07-17T16:40:14Z</time>
      </trkpt>
      <trkpt lat="47.79618" lon="-3.5632">
        <ele>47</ele>
        <time>2019-07-17T16:40:15Z</time>
      </trkpt>
      <trkpt lat="47.79615" lon="-3.56317">
        <ele>48</ele>
        <time>2019-07-17T16:40:16Z</time>
      </trkpt>
      <trkpt lat="47.79611" lon="-3.56314">
        <ele>48</ele>
        <time>2019-07-17T16:40:17Z</time>
      </trkpt>
      <trkpt lat="47.79608" lon="-3.56312">
        <ele>48</ele>
        <time>2019-07-17T16:40:18Z</time>
      </trkpt>
      <trkpt lat="47.79604" lon="-3.56309">
        <ele>48</ele>
        <time>2019-07-17T16:40:19Z</time>
      </trkpt>
      <trkpt lat="47.79601" lon="-3.56306">
        <ele>48</ele>
        <time>2019-07-17T16:40:20Z</time>
      </trkpt>
      <trkpt lat="47.79597" lon="-3.56303">
        <ele>48</ele>
        <time>2019-07-17T16:40:21Z</time>
      </trkpt>
      <trkpt lat="47.79593" lon="-3.56301">
        <ele>48</ele>
        <time>2019-07-17T16:40:22Z</time>
      </trkpt>
      <trkpt lat="47.79589" lon="-3.56299">
        <ele>48</ele>
        <time>2019-07-17T16:40:23Z</time>
      </trkpt>
      <trkpt lat="47.79585" lon="-3.56297">
        <ele>48</ele>
        <time>2019-07-17T16:40:24Z</time>
      </trkpt>
      <trkpt lat="47.79581" lon="-3.56295">
        <ele>49</ele>
        <time>2019-07-17T16:40:25Z</time>
      </trkpt>
      <trkpt lat="47.79578" lon="-3.56293">
        <ele>49</ele>
        <time>2019-07-17T16:40:26Z</time>
      </trkpt>
      <trkpt lat="47.79574" lon="-3.56289">
        <ele>49</ele>
        <time>2019-07-17T16:40:27Z</time>
      </trkpt>
      <trkpt lat="47.7957" lon="-3.56285">
        <ele>49</ele>
        <time>2019-07-17T16:40:28Z</time>
      </trkpt>
      <trkpt lat="47.79566" lon="-3.56281">
        <ele>49</ele>
        <time>2019-07-17T16:40:29Z</time>
      </trkpt>
      <trkpt lat="47.79562" lon="-3.56277">
        <ele>49</ele>
        <time>2019-07-17T16:40:30Z</time>
      </trkpt>
      <trkpt lat="47.79558" lon="-3.56273">
        <ele>49</ele>
        <time>2019-07-17T16:40:31Z</time>
      </trkpt>
      <trkpt lat="47.79554" lon="-3.56269">
        <ele>49</ele>
        <time>2019-07-17T16:40:32Z</time>
      </trkpt>
      <trkpt lat="47.7955" lon="-3.56265">
        <ele>50</ele>
        <time>2019-07-17T16:40:33Z</time>
      </trkpt>
      <trkpt lat="47.79546" lon="-3.56262">
        <ele>50</ele>
        <time>2019-07-17T16:40:34Z</time>
      </trkpt>
      <trkpt lat="47.79541" lon="-3.56259">
        <ele>50</ele>
        <time>2019-07-17T16:40:35Z</time>
      </trkpt>
      <trkpt lat="47.79537" lon="-3.56256">
        <ele>50</ele>
        <time>2019-07-17T16:40:36Z</time>
      </trkpt>
      <trkpt lat="47.79532" lon="-3.56253">
        <ele>50</ele>
        <time>2019-07-17T16:40:37Z</time>
      </trkpt>
      <trkpt lat="47.79527" lon="-3.5625">
        <ele>50</ele>
        <time>2019-07-17T16:40:38Z</time>
      </trkpt>
      <trkpt lat="47.79522" lon="-3.56247">
        <ele>50</ele>
        <time>2019-07-17T16:40:39Z</time>
      </trkpt>
      <trkpt lat="47.79517" lon="-3.56244">
        <ele>50</ele>
        <time>2019-07-17T16:40:40Z</time>
      </trkpt>
      <trkpt lat="47.79512" lon="-3.56241">
        <ele>50</ele>
        <time>2019-07-17T16:40:41Z</time>
      </trkpt>
      <trkpt lat="47.79506" lon="-3.56239">
        <ele>50</ele>
        <time>2019-07-17T16:40:42Z</time>
      </trkpt>
      <trkpt lat="47.79501" lon="-3.56236">
        <ele>50</ele>
        <time>2019-07-17T16:40:43Z</time>
      </trkpt>
      <trkpt lat="47.79496" lon="-3.56233">
        <ele>50</ele>
        <time>2019-07-17T16:40:44Z</time>
      </trkpt>
      <trkpt lat="47.7949" lon="-3.56231">
        <ele>50</ele>
        <time>2019-07-17T16:40:45Z</time>
      </trkpt>
      <trkpt lat="47.79484" lon="-3.56228">
        <ele>50</ele>
        <time>2019-07-17T16:40:46Z</time>
      </trkpt>
      <trkpt lat="47.79479" lon="-3.56226">
        <ele>50</ele>
        <time>2019-07-17T16:40:47Z</time>
      </trkpt>
      <trkpt lat="47.79473" lon="-3.56225">
        <ele>51</ele>
        <time>2019-07-17T16:40:48Z</time>
      </trkpt>
      <trkpt lat="47.79468" lon="-3.56225">
        <ele>51</ele>
        <time>2019-07-17T16:40:49Z</time>
      </trkpt>
      <trkpt lat="47.79463" lon="-3.56225">
        <ele>51</ele>
        <time>2019-07-17T16:40:50Z</time>
      </trkpt>
      <trkpt lat="47.79458" lon="-3.56226">
        <ele>51</ele>
        <time>2019-07-17T16:40:51Z</time>
      </trkpt>
      <trkpt lat="47.79452" lon="-3.56225">
        <ele>51</ele>
        <time>2019-07-17T16:40:52Z</time>
      </trkpt>
      <trkpt lat="47.79447" lon="-3.56224">
        <ele>51</ele>
        <time>2019-07-17T16:40:53Z</time>
      </trkpt>
      <trkpt lat="47.79441" lon="-3.56223">
        <ele>51</ele>
        <time>2019-07-17T16:40:54Z</time>
      </trkpt>
      <trkpt lat="47.79436" lon="-3.5622">
        <ele>51</ele>
        <time>2019-07-17T16:40:55Z</time>
      </trkpt>
      <trkpt lat="47.7943" lon="-3.56218">
        <ele>51</ele>
        <time>2019-07-17T16:40:56Z</time>
      </trkpt>
      <trkpt lat="47.79424" lon="-3.56215">
        <ele>51</ele>
        <time>2019-07-17T16:40:57Z</time>
      </trkpt>
      <trkpt lat="47.79419" lon="-3.56212">
        <ele>51</ele>
        <time>2019-07-17T16:40:58Z</time>
      </trkpt>
      <trkpt lat="47.79413" lon="-3.56209">
        <ele>51</ele>
        <time>2019-07-17T16:40:59Z</time>
      </trkpt>
      <trkpt lat="47.79407" lon="-3.56206">
        <ele>51</ele>
        <time>2019-07-17T16:41:00Z</time>
      </trkpt>
      <trkpt lat="47.79401" lon="-3.56202">
        <ele>51</ele>
        <time>2019-07-17T16:41:01Z</time>
      </trkpt>
      <trkpt lat="47.79396" lon="-3.56197">
        <ele>51</ele>
        <time>2019-07-17T16:41:02Z</time>
      </trkpt>
      <trkpt lat="47.7939" lon="-3.56193">
        <ele>51</ele>
        <time>2019-07-17T16:41:03Z</time>
      </trkpt>
      <trkpt lat="47.79384" lon="-3.56188">
        <ele>51</ele>
        <time>2019-07-17T16:41:04Z</time>
      </trkpt>
      <trkpt lat="47.79379" lon="-3.56183">
        <ele>51</ele>
        <time>2019-07-17T16:41:05Z</time>
      </trkpt>
      <trkpt lat="47.79373" lon="-3.56178">
        <ele>51</ele>
        <time>2019-07-17T16:41:06Z</time>
      </trkpt>
      <trkpt lat="47.79367" lon="-3.56173">
        <ele>51</ele>
        <time>2019-07-17T16:41:07Z</time>
      </trkpt>
      <trkpt lat="47.79362" lon="-3.56168">
        <ele>51</ele>
        <time>2019-07-17T16:41:08Z</time>
      </trkpt>
      <trkpt lat="47.79356" lon="-3.56164">
        <ele>51</ele>
        <time>2019-07-17T16:41:09Z</time>
      </trkpt>
      <trkpt lat="47.79351" lon="-3.56158">
        <ele>50</ele>
        <time>2019-07-17T16:41:10Z</time>
      </trkpt>
      <trkpt lat="47.79345" lon="-3.56153">
        <ele>50</ele>
        <time>2019-07-17T16:41:11Z</time>
      </trkpt>
      <trkpt lat="47.79339" lon="-3.56147">
        <ele>50</ele>
        <time>2019-07-17T16:41:12Z</time>
      </trkpt>
      <trkpt lat="47.79333" lon="-3.56142">
        <ele>49</ele>
        <time>2019-07-17T16:41:13Z</time>
      </trkpt>
      <trkpt lat="47.79327" lon="-3.56136">
        <ele>49</ele>
        <time>2019-07-17T16:41:14Z</time>
      </trkpt>
      <trkpt lat="47.79321" lon="-3.56131">
        <ele>48</ele>
        <time>2019-07-17T16:41:15Z</time>
      </trkpt>
      <trkpt lat="47.79314" lon="-3.56126">
        <ele>48</ele>
        <time>2019-07-17T16:41:16Z</time>
      </trkpt>
      <trkpt lat="47.79307" lon="-3.56121">
        <ele>47</ele>
        <time>2019-07-17T16:41:17Z</time>
      </trkpt>
      <trkpt lat="47.79299" lon="-3.56116">
        <ele>47</ele>
        <time>2019-07-17T16:41:18Z</time>
      </trkpt>
      <trkpt lat="47.79291" lon="-3.56112">
        <ele>46</ele>
        <time>2019-07-17T16:41:19Z</time>
      </trkpt>
      <trkpt lat="47.79283" lon="-3.56108">
        <ele>45</ele>
        <time>2019-07-17T16:41:20Z</time>
      </trkpt>
      <trkpt lat="47.79274" lon="-3.56103">
        <ele>44</ele>
        <time>2019-07-17T16:41:21Z</time>
      </trkpt>
      <trkpt lat="47.79265" lon="-3.561">
        <ele>44</ele>
        <time>2019-07-17T16:41:22Z</time>
      </trkpt>
      <trkpt lat="47.79256" lon="-3.56097">
        <ele>43</ele>
        <time>2019-07-17T16:41:23Z</time>
      </trkpt>
      <trkpt lat="47.79246" lon="-3.56094">
        <ele>42</ele>
        <time>2019-07-17T16:41:24Z</time>
      </trkpt>
      <trkpt lat="47.79236" lon="-3.56092">
        <ele>41</ele>
        <time>2019-07-17T16:41:25Z</time>
      </trkpt>
      <trkpt lat="47.79226" lon="-3.56089">
        <ele>40</ele>
        <time>2019-07-17T16:41:26Z</time>
      </trkpt>
      <trkpt lat="47.79215" lon="-3.56088">
        <ele>40</ele>
        <time>2019-07-17T16:41:27Z</time>
      </trkpt>
      <trkpt lat="47.79205" lon="-3.56088">
        <ele>39</ele>
        <time>2019-07-17T16:41:28Z</time>
      </trkpt>
      <trkpt lat="47.79195" lon="-3.56088">
        <ele>38</ele>
        <time>2019-07-17T16:41:29Z</time>
      </trkpt>
      <trkpt lat="47.79186" lon="-3.5609">
        <ele>38</ele>
        <time>2019-07-17T16:41:30Z</time>
      </trkpt>
      <trkpt lat="47.79177" lon="-3.5609">
        <ele>38</ele>
        <time>2019-07-17T16:41:31Z</time>
      </trkpt>
      <trkpt lat="47.7917" lon="-3.56089">
        <ele>37</ele>
        <time>2019-07-17T16:41:32Z</time>
      </trkpt>
      <trkpt lat="47.79162" lon="-3.56089">
        <ele>37</ele>
        <time>2019-07-17T16:41:33Z</time>
      </trkpt>
      <trkpt lat="47.79155" lon="-3.56085">
        <ele>37</ele>
        <time>2019-07-17T16:41:34Z</time>
      </trkpt>
      <trkpt lat="47.79149" lon="-3.56079">
        <ele>37</ele>
        <time>2019-07-17T16:41:35Z</time>
      </trkpt>
      <trkpt lat="47.79143" lon="-3.56072">
        <ele>37</ele>
        <time>2019-07-17T16:41:36Z</time>
      </trkpt>
      <trkpt lat="47.79137" lon="-3.56066">
        <ele>37</ele>
        <time>2019-07-17T16:41:37Z</time>
      </trkpt>
      <trkpt lat="47.79131" lon="-3.5606">
        <ele>37</ele>
        <time>2019-07-17T16:41:38Z</time>
      </trkpt>
      <trkpt lat="47.79125" lon="-3.56056">
        <ele>38</ele>
        <time>2019-07-17T16:41:39Z</time>
      </trkpt>
      <trkpt lat="47.79119" lon="-3.56051">
        <ele>38</ele>
        <time>2019-07-17T16:41:40Z</time>
      </trkpt>
      <trkpt lat="47.79113" lon="-3.56046">
        <ele>38</ele>
        <time>2019-07-17T16:41:41Z</time>
      </trkpt>
      <trkpt lat="47.79107" lon="-3.56042">
        <ele>38</ele>
        <time>2019-07-17T16:41:42Z</time>
      </trkpt>
      <trkpt lat="47.79101" lon="-3.56037">
        <ele>38</ele>
        <time>2019-07-17T16:41:43Z</time>
      </trkpt>
      <trkpt lat="47.79095" lon="-3.56032">
        <ele>38</ele>
        <time>2019-07-17T16:41:44Z</time>
      </trkpt>
      <trkpt lat="47.79089" lon="-3.56027">
        <ele>38</ele>
        <time>2019-07-17T16:41:45Z</time>
      </trkpt>
      <trkpt lat="47.79083" lon="-3.56022">
        <ele>38</ele>
        <time>2019-07-17T16:41:46Z</time>
      </trkpt>
      <trkpt lat="47.79077" lon="-3.56017">
        <ele>38</ele>
        <time>2019-07-17T16:41:47Z</time>
      </trkpt>
      <trkpt lat="47.79071" lon="-3.56013">
        <ele>38</ele>
        <time>2019-07-17T16:41:48Z</time>
      </trkpt>
      <trkpt lat="47.79065" lon="-3.56009">
        <ele>38</ele>
        <time>2019-07-17T16:41:49Z</time>
      </trkpt>
      <trkpt lat="47.79058" lon="-3.56006">
        <ele>38</ele>
        <time>2019-07-17T16:41:50Z</time>
      </trkpt>
      <trkpt lat="47.79052" lon="-3.56003">
        <ele>38</ele>
        <time>2019-07-17T16:41:51Z</time>
      </trkpt>
      <trkpt lat="47.79045" lon="-3.56">
        <ele>38</ele>
        <time>2019-07-17T16:41:52Z</time>
      </trkpt>
      <trkpt lat="47.79038" lon="-3.55997">
        <ele>38</ele>
        <time>2019-07-17T16:41:53Z</time>
      </trkpt>
      <trkpt lat="47.79031" lon="-3.55996">
        <ele>37</ele>
        <time>2019-07-17T16:41:54Z</time>
      </trkpt>
      <trkpt lat="47.79023" lon="-3.55995">
        <ele>37</ele>
        <time>2019-07-17T16:41:55Z</time>
      </trkpt>
      <trkpt lat="47.79016" lon="-3.55994">
        <ele>37</ele>
        <time>2019-07-17T16:41:56Z</time>
      </trkpt>
      <trkpt lat="47.79008" lon="-3.55992">
        <ele>37</ele>
        <time>2019-07-17T16:41:57Z</time>
      </trkpt>
      <trkpt lat="47.79" lon="-3.55991">
        <ele>36</ele>
        <time>2019-07-17T16:41:58Z</time>
      </trkpt>
      <trkpt lat="47.78992" lon="-3.5599">
        <ele>36</ele>
        <time>2019-07-17T16:41:59Z</time>
      </trkpt>
      <trkpt lat="47.78983" lon="-3.55988">
        <ele>35</ele>
        <time>2019-07-17T16:42:00Z</time>
      </trkpt>
      <trkpt lat="47.78975" lon="-3.55987">
        <ele>35</ele>
        <time>2019-07-17T16:42:01Z</time>
      </trkpt>
      <trkpt lat="47.78966" lon="-3.55984">
        <ele>34</ele>
        <time>2019-07-17T16:42:02Z</time>
      </trkpt>
      <trkpt lat="47.78957" lon="-3.55981">
        <ele>34</ele>
        <time>2019-07-17T16:42:03Z</time>
      </trkpt>
      <trkpt lat="47.78948" lon="-3.55978">
        <ele>33</ele>
        <time>2019-07-17T16:42:04Z</time>
      </trkpt>
      <trkpt lat="47.7894" lon="-3.55975">
        <ele>33</ele>
        <time>2019-07-17T16:42:05Z</time>
      </trkpt>
      <trkpt lat="47.78931" lon="-3.55971">
        <ele>32</ele>
        <time>2019-07-17T16:42:06Z</time>
      </trkpt>
      <trkpt lat="47.78922" lon="-3.55968">
        <ele>32</ele>
        <time>2019-07-17T16:42:07Z</time>
      </trkpt>
      <trkpt lat="47.78913" lon="-3.55965">
        <ele>32</ele>
        <time>2019-07-17T16:42:08Z</time>
      </trkpt>
      <trkpt lat="47.78905" lon="-3.55961">
        <ele>32</ele>
        <time>2019-07-17T16:42:09Z</time>
      </trkpt>
      <trkpt lat="47.78898" lon="-3.55958">
        <ele>32</ele>
        <time>2019-07-17T16:42:10Z</time>
      </trkpt>
      <trkpt lat="47.7889" lon="-3.55955">
        <ele>32</ele>
        <time>2019-07-17T16:42:11Z</time>
      </trkpt>
      <trkpt lat="47.78883" lon="-3.55952">
        <ele>32</ele>
        <time>2019-07-17T16:42:12Z</time>
      </trkpt>
      <trkpt lat="47.78876" lon="-3.55948">
        <ele>32</ele>
        <time>2019-07-17T16:42:13Z</time>
      </trkpt>
      <trkpt lat="47.7887" lon="-3.55945">
        <ele>33</ele>
        <time>2019-07-17T16:42:14Z</time>
      </trkpt>
      <trkpt lat="47.78864" lon="-3.55941">
        <ele>33</ele>
        <time>2019-07-17T16:42:15Z</time>
      </trkpt>
      <trkpt lat="47.78858" lon="-3.55937">
        <ele>33</ele>
        <time>2019-07-17T16:42:16Z</time>
      </trkpt>
      <trkpt lat="47.78852" lon="-3.55932">
        <ele>33</ele>
        <time>2019-07-17T16:42:17Z</time>
      </trkpt>
      <trkpt lat="47.78846" lon="-3.55926">
        <ele>33</ele>
        <time>2019-07-17T16:42:18Z</time>
      </trkpt>
      <trkpt lat="47.78841" lon="-3.5592">
        <ele>33</ele>
        <time>2019-07-17T16:42:19Z</time>
      </trkpt>
      <trkpt lat="47.78836" lon="-3.55914">
        <ele>33</ele>
        <time>2019-07-17T16:42:20Z</time>
      </trkpt>
      <trkpt lat="47.78831" lon="-3.55907">
        <ele>33</ele>
        <time>2019-07-17T16:42:21Z</time>
      </trkpt>
      <trkpt lat="47.78826" lon="-3.559">
        <ele>33</ele>
        <time>2019-07-17T16:42:22Z</time>
      </trkpt>
      <trkpt lat="47.78822" lon="-3.55892">
        <ele>33</ele>
        <time>2019-07-17T16:42:23Z</time>
      </trkpt>
      <trkpt lat="47.78817" lon="-3.55885">
        <ele>34</ele>
        <time>2019-07-17T16:42:24Z</time>
      </trkpt>
      <trkpt lat="47.78813" lon="-3.55877">
        <ele>34</ele>
        <time>2019-07-17T16:42:25Z</time>
      </trkpt>
      <trkpt lat="47.78809" lon="-3.55869">
        <ele>34</ele>
        <time>2019-07-17T16:42:26Z</time>
      </trkpt>
      <trkpt lat="47.78806" lon="-3.55861">
        <ele>34</ele>
        <time>2019-07-17T16:42:27Z</time>
      </trkpt>
      <trkpt lat="47.78803" lon="-3.55853">
        <ele>33</ele>
        <time>2019-07-17T16:42:28Z</time>
      </trkpt>
      <trkpt lat="47.788" lon="-3.55844">
        <ele>33</ele>
        <time>2019-07-17T16:42:29Z</time>
      </trkpt>
      <trkpt lat="47.78798" lon="-3.55835">
        <ele>33</ele>
        <time>2019-07-17T16:42:30Z</time>
      </trkpt>
      <trkpt lat="47.78796" lon="-3.55826">
        <ele>33</ele>
        <time>2019-07-17T16:42:31Z</time>
      </trkpt>
      <trkpt lat="47.78793" lon="-3.55817">
        <ele>33</ele>
        <time>2019-07-17T16:42:32Z</time>
      </trkpt>
      <trkpt lat="47.78791" lon="-3.55808">
        <ele>33</ele>
        <time>2019-07-17T16:42:33Z</time>
      </trkpt>
      <trkpt lat="47.78789" lon="-3.55799">
        <ele>32</ele>
        <time>2019-07-17T16:42:34Z</time>
      </trkpt>
      <trkpt lat="47.78787" lon="-3.5579">
        <ele>32</ele>
        <time>2019-07-17T16:42:35Z</time>
      </trkpt>
      <trkpt lat="47.78785" lon="-3.5578">
        <ele>32</ele>
        <time>2019-07-17T16:42:36Z</time>
      </trkpt>
      <trkpt lat="47.78783" lon="-3.55771">
        <ele>32</ele>
        <time>2019-07-17T16:42:37Z</time>
      </trkpt>
      <trkpt lat="47.78781" lon="-3.55762">
        <ele>31</ele>
        <time>2019-07-17T16:42:38Z</time>
      </trkpt>
      <trkpt lat="47.7878" lon="-3.55752">
        <ele>31</ele>
        <time>2019-07-17T16:42:39Z</time>
      </trkpt>
      <trkpt lat="47.78777" lon="-3.55742">
        <ele>31</ele>
        <time>2019-07-17T16:42:40Z</time>
      </trkpt>
      <trkpt lat="47.78775" lon="-3.55731">
        <ele>30</ele>
        <time>2019-07-17T16:42:41Z</time>
      </trkpt>
      <trkpt lat="47.78773" lon="-3.55721">
        <ele>30</ele>
        <time>2019-07-17T16:42:42Z</time>
      </trkpt>
      <trkpt lat="47.78772" lon="-3.5571">
        <ele>30</ele>
        <time>2019-07-17T16:42:43Z</time>
      </trkpt>
      <trkpt lat="47.78771" lon="-3.557">
        <ele>29</ele>
        <time>2019-07-17T16:42:44Z</time>
      </trkpt>
      <trkpt lat="47.7877" lon="-3.55689">
        <ele>29</ele>
        <time>2019-07-17T16:42:45Z</time>
      </trkpt>
      <trkpt lat="47.78769" lon="-3.55678">
        <ele>28</ele>
        <time>2019-07-17T16:42:46Z</time>
      </trkpt>
      <trkpt lat="47.78769" lon="-3.55666">
        <ele>28</ele>
        <time>2019-07-17T16:42:47Z</time>
      </trkpt>
      <trkpt lat="47.78768" lon="-3.55654">
        <ele>27</ele>
        <time>2019-07-17T16:42:48Z</time>
      </trkpt>
      <trkpt lat="47.78768" lon="-3.55642">
        <ele>27</ele>
        <time>2019-07-17T16:42:49Z</time>
      </trkpt>
      <trkpt lat="47.78768" lon="-3.5563">
        <ele>26</ele>
        <time>2019-07-17T16:42:50Z</time>
      </trkpt>
      <trkpt lat="47.78769" lon="-3.55618">
        <ele>25</ele>
        <time>2019-07-17T16:42:51Z</time>
      </trkpt>
      <trkpt lat="47.78769" lon="-3.55607">
        <ele>25</ele>
        <time>2019-07-17T16:42:52Z</time>
      </trkpt>
      <trkpt lat="47.7877" lon="-3.55597">
        <ele>24</ele>
        <time>2019-07-17T16:42:53Z</time>
      </trkpt>
      <trkpt lat="47.78771" lon="-3.55588">
        <ele>24</ele>
        <time>2019-07-17T16:42:54Z</time>
      </trkpt>
      <trkpt lat="47.78773" lon="-3.55578">
        <ele>23</ele>
        <time>2019-07-17T16:42:55Z</time>
      </trkpt>
      <trkpt lat="47.78776" lon="-3.55568">
        <ele>22</ele>
        <time>2019-07-17T16:42:56Z</time>
      </trkpt>
      <trkpt lat="47.78778" lon="-3.55557">
        <ele>22</ele>
        <time>2019-07-17T16:42:57Z</time>
      </trkpt>
      <trkpt lat="47.78781" lon="-3.55545">
        <ele>21</ele>
        <time>2019-07-17T16:42:58Z</time>
      </trkpt>
      <trkpt lat="47.78783" lon="-3.55533">
        <ele>20</ele>
        <time>2019-07-17T16:42:59Z</time>
      </trkpt>
      <trkpt lat="47.78785" lon="-3.55521">
        <ele>20</ele>
        <time>2019-07-17T16:43:00Z</time>
      </trkpt>
      <trkpt lat="47.78787" lon="-3.55508">
        <ele>19</ele>
        <time>2019-07-17T16:43:01Z</time>
      </trkpt>
      <trkpt lat="47.7879" lon="-3.55496">
        <ele>18</ele>
        <time>2019-07-17T16:43:02Z</time>
      </trkpt>
      <trkpt lat="47.78792" lon="-3.55485">
        <ele>18</ele>
        <time>2019-07-17T16:43:03Z</time>
      </trkpt>
      <trkpt lat="47.78794" lon="-3.55475">
        <ele>17</ele>
        <time>2019-07-17T16:43:04Z</time>
      </trkpt>
      <trkpt lat="47.78796" lon="-3.55466">
        <ele>17</ele>
        <time>2019-07-17T16:43:05Z</time>
      </trkpt>
      <trkpt lat="47.78798" lon="-3.55458">
        <ele>16</ele>
        <time>2019-07-17T16:43:06Z</time>
      </trkpt>
      <trkpt lat="47.78799" lon="-3.5545">
        <ele>16</ele>
        <time>2019-07-17T16:43:07Z</time>
      </trkpt>
      <trkpt lat="47.78801" lon="-3.55443">
        <ele>15</ele>
        <time>2019-07-17T16:43:08Z</time>
      </trkpt>
      <trkpt lat="47.78802" lon="-3.55437">
        <ele>15</ele>
        <time>2019-07-17T16:43:09Z</time>
      </trkpt>
      <trkpt lat="47.78804" lon="-3.55431">
        <ele>15</ele>
        <time>2019-07-17T16:43:10Z</time>
      </trkpt>
      <trkpt lat="47.78805" lon="-3.55426">
        <ele>15</ele>
        <time>2019-07-17T16:43:11Z</time>
      </trkpt>
      <trkpt lat="47.78807" lon="-3.55421">
        <ele>15</ele>
        <time>2019-07-17T16:43:12Z</time>
      </trkpt>
      <trkpt lat="47.78809" lon="-3.55417">
        <ele>14</ele>
        <time>2019-07-17T16:43:13Z</time>
      </trkpt>
      <trkpt lat="47.7881" lon="-3.55414">
        <ele>14</ele>
        <time>2019-07-17T16:43:14Z</time>
      </trkpt>
      <trkpt lat="47.7881" lon="-3.55414">
        <ele>14</ele>
        <time>2019-07-17T16:43:15Z</time>
      </trkpt>
      <trkpt lat="47.7881" lon="-3.55414">
        <ele>14</ele>
        <time>2019-07-17T16:43:16Z</time>
      </trkpt>
      <trkpt lat="47.7881" lon="-3.55414">
        <ele>14</ele>
        <time>2019-07-17T16:43:17Z</time>
      </trkpt>
      <trkpt lat="47.78813" lon="-3.5541">
        <ele>14</ele>
        <time>2019-07-17T16:43:18Z</time>
      </trkpt>
      <trkpt lat="47.78812" lon="-3.55407">
        <ele>14</ele>
        <time>2019-07-17T16:43:19Z</time>
      </trkpt>
      <trkpt lat="47.78811" lon="-3.55407">
        <ele>14</ele>
        <time>2019-07-17T16:43:20Z</time>
      </trkpt>
      <trkpt lat="47.78809" lon="-3.55407">
        <ele>14</ele>
        <time>2019-07-17T16:43:21Z</time>
      </trkpt>
      <trkpt lat="47.78807" lon="-3.55407">
        <ele>14</ele>
        <time>2019-07-17T16:43:22Z</time>
      </trkpt>
      <trkpt lat="47.78803" lon="-3.55408">
        <ele>14</ele>
        <time>2019-07-17T16:43:23Z</time>
      </trkpt>
      <trkpt lat="47.788" lon="-3.5541">
        <ele>13</ele>
        <time>2019-07-17T16:43:24Z</time>
      </trkpt>
      <trkpt lat="47.78795" lon="-3.55414">
        <ele>13</ele>
        <time>2019-07-17T16:43:25Z</time>
      </trkpt>
      <trkpt lat="47.78791" lon="-3.55419">
        <ele>13</ele>
        <time>2019-07-17T16:43:26Z</time>
      </trkpt>
      <trkpt lat="47.78787" lon="-3.55425">
        <ele>13</ele>
        <time>2019-07-17T16:43:27Z</time>
      </trkpt>
      <trkpt lat="47.78783" lon="-3.55432">
        <ele>13</ele>
        <time>2019-07-17T16:43:28Z</time>
      </trkpt>
      <trkpt lat="47.78779" lon="-3.55439">
        <ele>13</ele>
        <time>2019-07-17T16:43:29Z</time>
      </trkpt>
      <trkpt lat="47.78775" lon="-3.55446">
        <ele>13</ele>
        <time>2019-07-17T16:43:30Z</time>
      </trkpt>
      <trkpt lat="47.78771" lon="-3.55452">
        <ele>13</ele>
        <time>2019-07-17T16:43:31Z</time>
      </trkpt>
      <trkpt lat="47.78767" lon="-3.55459">
        <ele>13</ele>
        <time>2019-07-17T16:43:32Z</time>
      </trkpt>
      <trkpt lat="47.78764" lon="-3.55465">
        <ele>13</ele>
        <time>2019-07-17T16:43:33Z</time>
      </trkpt>
      <trkpt lat="47.78761" lon="-3.55472">
        <ele>13</ele>
        <time>2019-07-17T16:43:34Z</time>
      </trkpt>
      <trkpt lat="47.78758" lon="-3.55478">
        <ele>13</ele>
        <time>2019-07-17T16:43:35Z</time>
      </trkpt>
      <trkpt lat="47.78754" lon="-3.55483">
        <ele>13</ele>
        <time>2019-07-17T16:43:36Z</time>
      </trkpt>
      <trkpt lat="47.7875" lon="-3.55488">
        <ele>13</ele>
        <time>2019-07-17T16:43:37Z</time>
      </trkpt>
      <trkpt lat="47.78747" lon="-3.55492">
        <ele>13</ele>
        <time>2019-07-17T16:43:38Z</time>
      </trkpt>
      <trkpt lat="47.78743" lon="-3.55495">
        <ele>13</ele>
        <time>2019-07-17T16:43:39Z</time>
      </trkpt>
      <trkpt lat="47.78741" lon="-3.55498">
        <ele>13</ele>
        <time>2019-07-17T16:43:40Z</time>
      </trkpt>
      <trkpt lat="47.78739" lon="-3.555">
        <ele>13</ele>
        <time>2019-07-17T16:43:41Z</time>
      </trkpt>
      <trkpt lat="47.78738" lon="-3.55501">
        <ele>13</ele>
        <time>2019-07-17T16:43:42Z</time>
      </trkpt>
      <trkpt lat="47.78738" lon="-3.55501">
        <ele>14</ele>
        <time>2019-07-17T16:43:43Z</time>
      </trkpt>
      <trkpt lat="47.78737" lon="-3.55501">
        <ele>14</ele>
        <time>2019-07-17T16:43:44Z</time>
      </trkpt>
      <trkpt lat="47.78732" lon="-3.55507">
        <ele>14</ele>
        <time>2019-07-17T16:43:45Z</time>
      </trkpt>
      <trkpt lat="47.7873" lon="-3.55509">
        <ele>14</ele>
        <time>2019-07-17T16:43:46Z</time>
      </trkpt>
      <trkpt lat="47.78728" lon="-3.55511">
        <ele>14</ele>
        <time>2019-07-17T16:43:47Z</time>
      </trkpt>
      <trkpt lat="47.78725" lon="-3.55514">
        <ele>14</ele>
        <time>2019-07-17T16:43:48Z</time>
      </trkpt>
      <trkpt lat="47.78721" lon="-3.55518">
        <ele>13</ele>
        <time>2019-07-17T16:43:49Z</time>
      </trkpt>
      <trkpt lat="47.78718" lon="-3.5552">
        <ele>13</ele>
        <time>2019-07-17T16:43:50Z</time>
      </trkpt>
      <trkpt lat="47.78715" lon="-3.55522">
        <ele>13</ele>
        <time>2019-07-17T16:43:51Z</time>
      </trkpt>
      <trkpt lat="47.78713" lon="-3.55524">
        <ele>13</ele>
        <time>2019-07-17T16:43:52Z</time>
      </trkpt>
      <trkpt lat="47.7871" lon="-3.55526">
        <ele>13</ele>
        <time>2019-07-17T16:43:53Z</time>
      </trkpt>
      <trkpt lat="47.78707" lon="-3.55528">
        <ele>13</ele>
        <time>2019-07-17T16:43:54Z</time>
      </trkpt>
      <trkpt lat="47.78703" lon="-3.55531">
        <ele>13</ele>
        <time>2019-07-17T16:43:55Z</time>
      </trkpt>
      <trkpt lat="47.787" lon="-3.55533">
        <ele>13</ele>
        <time>2019-07-17T16:43:56Z</time>
      </trkpt>
      <trkpt lat="47.78696" lon="-3.55536">
        <ele>13</ele>
        <time>2019-07-17T16:43:57Z</time>
      </trkpt>
      <trkpt lat="47.78692" lon="-3.55538">
        <ele>13</ele>
        <time>2019-07-17T16:43:58Z</time>
      </trkpt>
      <trkpt lat="47.78688" lon="-3.5554">
        <ele>13</ele>
        <time>2019-07-17T16:43:59Z</time>
      </trkpt>
      <trkpt lat="47.78685" lon="-3.55543">
        <ele>13</ele>
        <time>2019-07-17T16:44:00Z</time>
      </trkpt>
      <trkpt lat="47.78681" lon="-3.55546">
        <ele>13</ele>
        <time>2019-07-17T16:44:01Z</time>
      </trkpt>
      <trkpt lat="47.78679" lon="-3.55548">
        <ele>13</ele>
        <time>2019-07-17T16:44:02Z</time>
      </trkpt>
      <trkpt lat="47.78678" lon="-3.55551">
        <ele>13</ele>
        <time>2019-07-17T16:44:03Z</time>
      </trkpt>
      <trkpt lat="47.78676" lon="-3.55552">
        <ele>14</ele>
        <time>2019-07-17T16:44:04Z</time>
      </trkpt>
      <trkpt lat="47.78674" lon="-3.55553">
        <ele>14</ele>
        <time>2019-07-17T16:44:05Z</time>
      </trkpt>
      <trkpt lat="47.78671" lon="-3.55554">
        <ele>14</ele>
        <time>2019-07-17T16:44:06Z</time>
      </trkpt>
      <trkpt lat="47.78669" lon="-3.55556">
        <ele>14</ele>
        <time>2019-07-17T16:44:07Z</time>
      </trkpt>
      <trkpt lat="47.78666" lon="-3.55557">
        <ele>14</ele>
        <time>2019-07-17T16:44:08Z</time>
      </trkpt>
      <trkpt lat="47.78664" lon="-3.55558">
        <ele>14</ele>
        <time>2019-07-17T16:44:09Z</time>
      </trkpt>
      <trkpt lat="47.78661" lon="-3.55559">
        <ele>15</ele>
        <time>2019-07-17T16:44:10Z</time>
      </trkpt>
      <trkpt lat="47.78659" lon="-3.55561">
        <ele>15</ele>
        <time>2019-07-17T16:44:11Z</time>
      </trkpt>
      <trkpt lat="47.78657" lon="-3.55563">
        <ele>15</ele>
        <time>2019-07-17T16:44:12Z</time>
      </trkpt>
      <trkpt lat="47.78656" lon="-3.55566">
        <ele>15</ele>
        <time>2019-07-17T16:44:13Z</time>
      </trkpt>
      <trkpt lat="47.78654" lon="-3.55568">
        <ele>16</ele>
        <time>2019-07-17T16:44:14Z</time>
      </trkpt>
      <trkpt lat="47.78652" lon="-3.5557">
        <ele>16</ele>
        <time>2019-07-17T16:44:15Z</time>
      </trkpt>
      <trkpt lat="47.78651" lon="-3.55572">
        <ele>16</ele>
        <time>2019-07-17T16:44:16Z</time>
      </trkpt>
      <trkpt lat="47.7865" lon="-3.55573">
        <ele>17</ele>
        <time>2019-07-17T16:44:17Z</time>
      </trkpt>
      <trkpt lat="47.78649" lon="-3.55575">
        <ele>17</ele>
        <time>2019-07-17T16:44:18Z</time>
      </trkpt>
      <trkpt lat="47.78648" lon="-3.55578">
        <ele>17</ele>
        <time>2019-07-17T16:44:19Z</time>
      </trkpt>
      <trkpt lat="47.78647" lon="-3.55581">
        <ele>18</ele>
        <time>2019-07-17T16:44:20Z</time>
      </trkpt>
      <trkpt lat="47.78647" lon="-3.55584">
        <ele>18</ele>
        <time>2019-07-17T16:44:21Z</time>
      </trkpt>
      <trkpt lat="47.78648" lon="-3.55588">
        <ele>18</ele>
        <time>2019-07-17T16:44:22Z</time>
      </trkpt>
      <trkpt lat="47.78648" lon="-3.55592">
        <ele>19</ele>
        <time>2019-07-17T16:44:23Z</time>
      </trkpt>
      <trkpt lat="47.78647" lon="-3.55596">
        <ele>19</ele>
        <time>2019-07-17T16:44:24Z</time>
      </trkpt>
      <trkpt lat="47.78648" lon="-3.556">
        <ele>19</ele>
        <time>2019-07-17T16:44:25Z</time>
      </trkpt>
      <trkpt lat="47.78647" lon="-3.55603">
        <ele>20</ele>
        <time>2019-07-17T16:44:26Z</time>
      </trkpt>
      <trkpt lat="47.78646" lon="-3.55608">
        <ele>20</ele>
        <time>2019-07-17T16:44:27Z</time>
      </trkpt>
      <trkpt lat="47.78646" lon="-3.55612">
        <ele>20</ele>
        <time>2019-07-17T16:44:28Z</time>
      </trkpt>
      <trkpt lat="47.78646" lon="-3.55616">
        <ele>20</ele>
        <time>2019-07-17T16:44:29Z</time>
      </trkpt>
      <trkpt lat="47.78646" lon="-3.5562">
        <ele>21</ele>
        <time>2019-07-17T16:44:30Z</time>
      </trkpt>
      <trkpt lat="47.78645" lon="-3.55625">
        <ele>21</ele>
        <time>2019-07-17T16:44:31Z</time>
      </trkpt>
      <trkpt lat="47.78644" lon="-3.55631">
        <ele>21</ele>
        <time>2019-07-17T16:44:32Z</time>
      </trkpt>
      <trkpt lat="47.78643" lon="-3.55636">
        <ele>21</ele>
        <time>2019-07-17T16:44:33Z</time>
      </trkpt>
      <trkpt lat="47.78643" lon="-3.55642">
        <ele>22</ele>
        <time>2019-07-17T16:44:34Z</time>
      </trkpt>
      <trkpt lat="47.78643" lon="-3.55647">
        <ele>22</ele>
        <time>2019-07-17T16:44:35Z</time>
      </trkpt>
      <trkpt lat="47.78643" lon="-3.55653">
        <ele>22</ele>
        <time>2019-07-17T16:44:36Z</time>
      </trkpt>
      <trkpt lat="47.78643" lon="-3.55659">
        <ele>22</ele>
        <time>2019-07-17T16:44:37Z</time>
      </trkpt>
      <trkpt lat="47.78643" lon="-3.55663">
        <ele>22</ele>
        <time>2019-07-17T16:44:38Z</time>
      </trkpt>
      <trkpt lat="47.78643" lon="-3.55669">
        <ele>23</ele>
        <time>2019-07-17T16:44:39Z</time>
      </trkpt>
      <trkpt lat="47.78644" lon="-3.55674">
        <ele>23</ele>
        <time>2019-07-17T16:44:40Z</time>
      </trkpt>
      <trkpt lat="47.78643" lon="-3.5568">
        <ele>23</ele>
        <time>2019-07-17T16:44:41Z</time>
      </trkpt>
      <trkpt lat="47.78643" lon="-3.55687">
        <ele>23</ele>
        <time>2019-07-17T16:44:42Z</time>
      </trkpt>
      <trkpt lat="47.78642" lon="-3.55694">
        <ele>23</ele>
        <time>2019-07-17T16:44:43Z</time>
      </trkpt>
      <trkpt lat="47.78641" lon="-3.557">
        <ele>23</ele>
        <time>2019-07-17T16:44:44Z</time>
      </trkpt>
      <trkpt lat="47.78639" lon="-3.55707">
        <ele>24</ele>
        <time>2019-07-17T16:44:45Z</time>
      </trkpt>
      <trkpt lat="47.78638" lon="-3.55714">
        <ele>24</ele>
        <time>2019-07-17T16:44:46Z</time>
      </trkpt>
      <trkpt lat="47.78636" lon="-3.55721">
        <ele>24</ele>
        <time>2019-07-17T16:44:47Z</time>
      </trkpt>
      <trkpt lat="47.78635" lon="-3.55726">
        <ele>24</ele>
        <time>2019-07-17T16:44:48Z</time>
      </trkpt>
      <trkpt lat="47.78634" lon="-3.55731">
        <ele>24</ele>
        <time>2019-07-17T16:44:49Z</time>
      </trkpt>
      <trkpt lat="47.78632" lon="-3.55736">
        <ele>25</ele>
        <time>2019-07-17T16:44:50Z</time>
      </trkpt>
      <trkpt lat="47.7863" lon="-3.55743">
        <ele>25</ele>
        <time>2019-07-17T16:44:51Z</time>
      </trkpt>
      <trkpt lat="47.78628" lon="-3.55751">
        <ele>25</ele>
        <time>2019-07-17T16:44:52Z</time>
      </trkpt>
      <trkpt lat="47.78626" lon="-3.55758">
        <ele>25</ele>
        <time>2019-07-17T16:44:53Z</time>
      </trkpt>
      <trkpt lat="47.78625" lon="-3.55765">
        <ele>25</ele>
        <time>2019-07-17T16:44:54Z</time>
      </trkpt>
      <trkpt lat="47.78623" lon="-3.5577">
        <ele>26</ele>
        <time>2019-07-17T16:44:55Z</time>
      </trkpt>
      <trkpt lat="47.78621" lon="-3.55773">
        <ele>26</ele>
        <time>2019-07-17T16:44:56Z</time>
      </trkpt>
      <trkpt lat="47.78618" lon="-3.55777">
        <ele>26</ele>
        <time>2019-07-17T16:44:57Z</time>
      </trkpt>
      <trkpt lat="47.78614" lon="-3.55782">
        <ele>26</ele>
        <time>2019-07-17T16:44:58Z</time>
      </trkpt>
      <trkpt lat="47.78611" lon="-3.55789">
        <ele>26</ele>
        <time>2019-07-17T16:44:59Z</time>
      </trkpt>
      <trkpt lat="47.78607" lon="-3.55795">
        <ele>26</ele>
        <time>2019-07-17T16:45:00Z</time>
      </trkpt>
      <trkpt lat="47.78604" lon="-3.55801">
        <ele>26</ele>
        <time>2019-07-17T16:45:01Z</time>
      </trkpt>
      <trkpt lat="47.78603" lon="-3.55809">
        <ele>26</ele>
        <time>2019-07-17T16:45:02Z</time>
      </trkpt>
      <trkpt lat="47.78601" lon="-3.55817">
        <ele>27</ele>
        <time>2019-07-17T16:45:03Z</time>
      </trkpt>
      <trkpt lat="47.786" lon="-3.55825">
        <ele>27</ele>
        <time>2019-07-17T16:45:04Z</time>
      </trkpt>
      <trkpt lat="47.78598" lon="-3.55833">
        <ele>27</ele>
        <time>2019-07-17T16:45:05Z</time>
      </trkpt>
      <trkpt lat="47.78598" lon="-3.5584">
        <ele>27</ele>
        <time>2019-07-17T16:45:06Z</time>
      </trkpt>
      <trkpt lat="47.78598" lon="-3.55847">
        <ele>27</ele>
        <time>2019-07-17T16:45:07Z</time>
      </trkpt>
      <trkpt lat="47.78598" lon="-3.55853">
        <ele>27</ele>
        <time>2019-07-17T16:45:08Z</time>
      </trkpt>
      <trkpt lat="47.78598" lon="-3.55858">
        <ele>27</ele>
        <time>2019-07-17T16:45:09Z</time>
      </trkpt>
      <trkpt lat="47.78599" lon="-3.55863">
        <ele>27</ele>
        <time>2019-07-17T16:45:10Z</time>
      </trkpt>
      <trkpt lat="47.786" lon="-3.55869">
        <ele>27</ele>
        <time>2019-07-17T16:45:11Z</time>
      </trkpt>
      <trkpt lat="47.78602" lon="-3.55874">
        <ele>27</ele>
        <time>2019-07-17T16:45:12Z</time>
      </trkpt>
      <trkpt lat="47.78602" lon="-3.55879">
        <ele>27</ele>
        <time>2019-07-17T16:45:13Z</time>
      </trkpt>
      <trkpt lat="47.78602" lon="-3.55881">
        <ele>26</ele>
        <time>2019-07-17T16:45:14Z</time>
      </trkpt>
      <trkpt lat="47.78601" lon="-3.55883">
        <ele>26</ele>
        <time>2019-07-17T16:45:15Z</time>
      </trkpt>
      <trkpt lat="47.786" lon="-3.55884">
        <ele>26</ele>
        <time>2019-07-17T16:45:16Z</time>
      </trkpt>
      <trkpt lat="47.78597" lon="-3.55886">
        <ele>26</ele>
        <time>2019-07-17T16:45:17Z</time>
      </trkpt>
      <trkpt lat="47.78596" lon="-3.55888">
        <ele>26</ele>
        <time>2019-07-17T16:45:18Z</time>
      </trkpt>
      <trkpt lat="47.78594" lon="-3.5589">
        <ele>26</ele>
        <time>2019-07-17T16:45:19Z</time>
      </trkpt>
      <trkpt lat="47.78593" lon="-3.55892">
        <ele>26</ele>
        <time>2019-07-17T16:45:20Z</time>
      </trkpt>
      <trkpt lat="47.78593" lon="-3.55893">
        <ele>25</ele>
        <time>2019-07-17T16:45:21Z</time>
      </trkpt>
      <trkpt lat="47.78592" lon="-3.55895">
        <ele>25</ele>
        <time>2019-07-17T16:45:22Z</time>
      </trkpt>
      <trkpt lat="47.78592" lon="-3.55898">
        <ele>25</ele>
        <time>2019-07-17T16:45:23Z</time>
      </trkpt>
      <trkpt lat="47.78591" lon="-3.559">
        <ele>25</ele>
        <time>2019-07-17T16:45:24Z</time>
      </trkpt>
      <trkpt lat="47.7859" lon="-3.55903">
        <ele>25</ele>
        <time>2019-07-17T16:45:25Z</time>
      </trkpt>
      <trkpt lat="47.78589" lon="-3.55905">
        <ele>24</ele>
        <time>2019-07-17T16:45:26Z</time>
      </trkpt>
      <trkpt lat="47.78587" lon="-3.55908">
        <ele>24</ele>
        <time>2019-07-17T16:45:27Z</time>
      </trkpt>
      <trkpt lat="47.78586" lon="-3.55909">
        <ele>24</ele>
        <time>2019-07-17T16:45:28Z</time>
      </trkpt>
      <trkpt lat="47.78585" lon="-3.5591">
        <ele>24</ele>
        <time>2019-07-17T16:45:29Z</time>
      </trkpt>
      <trkpt lat="47.78583" lon="-3.55911">
        <ele>24</ele>
        <time>2019-07-17T16:45:30Z</time>
      </trkpt>
      <trkpt lat="47.78583" lon="-3.55912">
        <ele>24</ele>
        <time>2019-07-17T16:45:31Z</time>
      </trkpt>
      <trkpt lat="47.78581" lon="-3.55914">
        <ele>24</ele>
        <time>2019-07-17T16:45:32Z</time>
      </trkpt>
      <trkpt lat="47.7858" lon="-3.55914">
        <ele>24</ele>
        <time>2019-07-17T16:45:33Z</time>
      </trkpt>
      <trkpt lat="47.78579" lon="-3.55915">
        <ele>24</ele>
        <time>2019-07-17T16:45:34Z</time>
      </trkpt>
      <trkpt lat="47.78578" lon="-3.55917">
        <ele>24</ele>
        <time>2019-07-17T16:45:35Z</time>
      </trkpt>
      <trkpt lat="47.78577" lon="-3.55919">
        <ele>24</ele>
        <time>2019-07-17T16:45:36Z</time>
      </trkpt>
      <trkpt lat="47.78576" lon="-3.55921">
        <ele>23</ele>
        <time>2019-07-17T16:45:37Z</time>
      </trkpt>
      <trkpt lat="47.78575" lon="-3.55923">
        <ele>23</ele>
        <time>2019-07-17T16:45:38Z</time>
      </trkpt>
      <trkpt lat="47.78573" lon="-3.55925">
        <ele>23</ele>
        <time>2019-07-17T16:45:39Z</time>
      </trkpt>
      <trkpt lat="47.7857" lon="-3.55928">
        <ele>23</ele>
        <time>2019-07-17T16:45:40Z</time>
      </trkpt>
      <trkpt lat="47.78568" lon="-3.55929">
        <ele>23</ele>
        <time>2019-07-17T16:45:41Z</time>
      </trkpt>
      <trkpt lat="47.78566" lon="-3.55932">
        <ele>23</ele>
        <time>2019-07-17T16:45:42Z</time>
      </trkpt>
      <trkpt lat="47.78563" lon="-3.55935">
        <ele>23</ele>
        <time>2019-07-17T16:45:43Z</time>
      </trkpt>
      <trkpt lat="47.78561" lon="-3.55938">
        <ele>23</ele>
        <time>2019-07-17T16:45:44Z</time>
      </trkpt>
      <trkpt lat="47.78558" lon="-3.55941">
        <ele>23</ele>
        <time>2019-07-17T16:45:45Z</time>
      </trkpt>
      <trkpt lat="47.78556" lon="-3.55945">
        <ele>23</ele>
        <time>2019-07-17T16:45:46Z</time>
      </trkpt>
      <trkpt lat="47.78554" lon="-3.55948">
        <ele>23</ele>
        <time>2019-07-17T16:45:47Z</time>
      </trkpt>
      <trkpt lat="47.78552" lon="-3.55951">
        <ele>23</ele>
        <time>2019-07-17T16:45:48Z</time>
      </trkpt>
      <trkpt lat="47.7855" lon="-3.55954">
        <ele>23</ele>
        <time>2019-07-17T16:45:49Z</time>
      </trkpt>
      <trkpt lat="47.78548" lon="-3.55957">
        <ele>23</ele>
        <time>2019-07-17T16:45:50Z</time>
      </trkpt>
      <trkpt lat="47.78546" lon="-3.55961">
        <ele>23</ele>
        <time>2019-07-17T16:45:51Z</time>
      </trkpt>
      <trkpt lat="47.78545" lon="-3.55966">
        <ele>24</ele>
        <time>2019-07-17T16:45:52Z</time>
      </trkpt>
      <trkpt lat="47.78544" lon="-3.5597">
        <ele>24</ele>
        <time>2019-07-17T16:45:53Z</time>
      </trkpt>
      <trkpt lat="47.78543" lon="-3.55972">
        <ele>24</ele>
        <time>2019-07-17T16:45:54Z</time>
      </trkpt>
      <trkpt lat="47.78542" lon="-3.55975">
        <ele>24</ele>
        <time>2019-07-17T16:45:55Z</time>
      </trkpt>
      <trkpt lat="47.7854" lon="-3.55979">
        <ele>24</ele>
        <time>2019-07-17T16:45:56Z</time>
      </trkpt>
      <trkpt lat="47.78538" lon="-3.55983">
        <ele>25</ele>
        <time>2019-07-17T16:45:57Z</time>
      </trkpt>
      <trkpt lat="47.78536" lon="-3.55988">
        <ele>25</ele>
        <time>2019-07-17T16:45:58Z</time>
      </trkpt>
      <trkpt lat="47.78533" lon="-3.55992">
        <ele>25</ele>
        <time>2019-07-17T16:45:59Z</time>
      </trkpt>
      <trkpt lat="47.78531" lon="-3.55996">
        <ele>25</ele>
        <time>2019-07-17T16:46:00Z</time>
      </trkpt>
      <trkpt lat="47.78529" lon="-3.56">
        <ele>25</ele>
        <time>2019-07-17T16:46:01Z</time>
      </trkpt>
      <trkpt lat="47.78527" lon="-3.56003">
        <ele>25</ele>
        <time>2019-07-17T16:46:02Z</time>
      </trkpt>
      <trkpt lat="47.78525" lon="-3.56007">
        <ele>25</ele>
        <time>2019-07-17T16:46:03Z</time>
      </trkpt>
      <trkpt lat="47.78523" lon="-3.56011">
        <ele>26</ele>
        <time>2019-07-17T16:46:04Z</time>
      </trkpt>
      <trkpt lat="47.78522" lon="-3.56015">
        <ele>26</ele>
        <time>2019-07-17T16:46:05Z</time>
      </trkpt>
      <trkpt lat="47.7852" lon="-3.56018">
        <ele>26</ele>
        <time>2019-07-17T16:46:06Z</time>
      </trkpt>
      <trkpt lat="47.78518" lon="-3.56022">
        <ele>26</ele>
        <time>2019-07-17T16:46:07Z</time>
      </trkpt>
      <trkpt lat="47.78517" lon="-3.56025">
        <ele>26</ele>
        <time>2019-07-17T16:46:08Z</time>
      </trkpt>
      <trkpt lat="47.78516" lon="-3.56028">
        <ele>26</ele>
        <time>2019-07-17T16:46:09Z</time>
      </trkpt>
      <trkpt lat="47.78514" lon="-3.56032">
        <ele>26</ele>
        <time>2019-07-17T16:46:10Z</time>
      </trkpt>
      <trkpt lat="47.78513" lon="-3.56035">
        <ele>26</ele>
        <time>2019-07-17T16:46:11Z</time>
      </trkpt>
      <trkpt lat="47.78511" lon="-3.56039">
        <ele>26</ele>
        <time>2019-07-17T16:46:12Z</time>
      </trkpt>
      <trkpt lat="47.78509" lon="-3.56041">
        <ele>26</ele>
        <time>2019-07-17T16:46:13Z</time>
      </trkpt>
      <trkpt lat="47.78507" lon="-3.56044">
        <ele>26</ele>
        <time>2019-07-17T16:46:14Z</time>
      </trkpt>
      <trkpt lat="47.78506" lon="-3.56047">
        <ele>26</ele>
        <time>2019-07-17T16:46:15Z</time>
      </trkpt>
      <trkpt lat="47.78503" lon="-3.5605">
        <ele>27</ele>
        <time>2019-07-17T16:46:16Z</time>
      </trkpt>
      <trkpt lat="47.78501" lon="-3.56054">
        <ele>27</ele>
        <time>2019-07-17T16:46:17Z</time>
      </trkpt>
      <trkpt lat="47.78499" lon="-3.56057">
        <ele>27</ele>
        <time>2019-07-17T16:46:18Z</time>
      </trkpt>
      <trkpt lat="47.78497" lon="-3.56059">
        <ele>27</ele>
        <time>2019-07-17T16:46:19Z</time>
      </trkpt>
      <trkpt lat="47.78494" lon="-3.56063">
        <ele>28</ele>
        <time>2019-07-17T16:46:20Z</time>
      </trkpt>
      <trkpt lat="47.78491" lon="-3.56066">
        <ele>28</ele>
        <time>2019-07-17T16:46:21Z</time>
      </trkpt>
      <trkpt lat="47.78488" lon="-3.56068">
        <ele>28</ele>
        <time>2019-07-17T16:46:22Z</time>
      </trkpt>
      <trkpt lat="47.78486" lon="-3.56072">
        <ele>29</ele>
        <time>2019-07-17T16:46:23Z</time>
      </trkpt>
      <trkpt lat="47.78483" lon="-3.56076">
        <ele>29</ele>
        <time>2019-07-17T16:46:24Z</time>
      </trkpt>
      <trkpt lat="47.78481" lon="-3.5608">
        <ele>29</ele>
        <time>2019-07-17T16:46:25Z</time>
      </trkpt>
      <trkpt lat="47.78478" lon="-3.56083">
        <ele>29</ele>
        <time>2019-07-17T16:46:26Z</time>
      </trkpt>
      <trkpt lat="47.78476" lon="-3.56086">
        <ele>29</ele>
        <time>2019-07-17T16:46:27Z</time>
      </trkpt>
      <trkpt lat="47.78472" lon="-3.56089">
        <ele>30</ele>
        <time>2019-07-17T16:46:28Z</time>
      </trkpt>
      <trkpt lat="47.78469" lon="-3.56093">
        <ele>30</ele>
        <time>2019-07-17T16:46:29Z</time>
      </trkpt>
      <trkpt lat="47.78466" lon="-3.56095">
        <ele>30</ele>
        <time>2019-07-17T16:46:30Z</time>
      </trkpt>
      <trkpt lat="47.78463" lon="-3.56098">
        <ele>30</ele>
        <time>2019-07-17T16:46:31Z</time>
      </trkpt>
      <trkpt lat="47.7846" lon="-3.56101">
        <ele>30</ele>
        <time>2019-07-17T16:46:32Z</time>
      </trkpt>
      <trkpt lat="47.78456" lon="-3.56105">
        <ele>31</ele>
        <time>2019-07-17T16:46:33Z</time>
      </trkpt>
      <trkpt lat="47.78452" lon="-3.56107">
        <ele>31</ele>
        <time>2019-07-17T16:46:34Z</time>
      </trkpt>
      <trkpt lat="47.78448" lon="-3.56109">
        <ele>31</ele>
        <time>2019-07-17T16:46:35Z</time>
      </trkpt>
      <trkpt lat="47.78444" lon="-3.5611">
        <ele>31</ele>
        <time>2019-07-17T16:46:36Z</time>
      </trkpt>
      <trkpt lat="47.78441" lon="-3.56111">
        <ele>32</ele>
        <time>2019-07-17T16:46:37Z</time>
      </trkpt>
      <trkpt lat="47.78437" lon="-3.56112">
        <ele>32</ele>
        <time>2019-07-17T16:46:38Z</time>
      </trkpt>
      <trkpt lat="47.78433" lon="-3.56114">
        <ele>32</ele>
        <time>2019-07-17T16:46:39Z</time>
      </trkpt>
      <trkpt lat="47.78431" lon="-3.56116">
        <ele>32</ele>
        <time>2019-07-17T16:46:40Z</time>
      </trkpt>
      <trkpt lat="47.78428" lon="-3.56119">
        <ele>32</ele>
        <time>2019-07-17T16:46:41Z</time>
      </trkpt>
      <trkpt lat="47.78426" lon="-3.56123">
        <ele>32</ele>
        <time>2019-07-17T16:46:42Z</time>
      </trkpt>
      <trkpt lat="47.78424" lon="-3.56127">
        <ele>32</ele>
        <time>2019-07-17T16:46:43Z</time>
      </trkpt>
      <trkpt lat="47.78423" lon="-3.56132">
        <ele>32</ele>
        <time>2019-07-17T16:46:44Z</time>
      </trkpt>
      <trkpt lat="47.78422" lon="-3.56137">
        <ele>32</ele>
        <time>2019-07-17T16:46:45Z</time>
      </trkpt>
      <trkpt lat="47.78421" lon="-3.56142">
        <ele>32</ele>
        <time>2019-07-17T16:46:46Z</time>
      </trkpt>
      <trkpt lat="47.78419" lon="-3.56147">
        <ele>32</ele>
        <time>2019-07-17T16:46:47Z</time>
      </trkpt>
      <trkpt lat="47.78418" lon="-3.56151">
        <ele>32</ele>
        <time>2019-07-17T16:46:48Z</time>
      </trkpt>
      <trkpt lat="47.78417" lon="-3.56155">
        <ele>32</ele>
        <time>2019-07-17T16:46:49Z</time>
      </trkpt>
      <trkpt lat="47.78416" lon="-3.56161">
        <ele>32</ele>
        <time>2019-07-17T16:46:50Z</time>
      </trkpt>
      <trkpt lat="47.78414" lon="-3.56166">
        <ele>32</ele>
        <time>2019-07-17T16:46:51Z</time>
      </trkpt>
      <trkpt lat="47.78413" lon="-3.56171">
        <ele>32</ele>
        <time>2019-07-17T16:46:52Z</time>
      </trkpt>
      <trkpt lat="47.78412" lon="-3.56175">
        <ele>32</ele>
        <time>2019-07-17T16:46:53Z</time>
      </trkpt>
      <trkpt lat="47.78411" lon="-3.5618">
        <ele>32</ele>
        <time>2019-07-17T16:46:54Z</time>
      </trkpt>
      <trkpt lat="47.7841" lon="-3.56183">
        <ele>32</ele>
        <time>2019-07-17T16:46:55Z</time>
      </trkpt>
      <trkpt lat="47.78409" lon="-3.56187">
        <ele>32</ele>
        <time>2019-07-17T16:46:56Z</time>
      </trkpt>
      <trkpt lat="47.78407" lon="-3.5619">
        <ele>33</ele>
        <time>2019-07-17T16:46:57Z</time>
      </trkpt>
      <trkpt lat="47.78405" lon="-3.56192">
        <ele>33</ele>
        <time>2019-07-17T16:46:58Z</time>
      </trkpt>
      <trkpt lat="47.78403" lon="-3.56194">
        <ele>33</ele>
        <time>2019-07-17T16:46:59Z</time>
      </trkpt>
      <trkpt lat="47.78402" lon="-3.56197">
        <ele>33</ele>
        <time>2019-07-17T16:47:00Z</time>
      </trkpt>
      <trkpt lat="47.78399" lon="-3.56199">
        <ele>33</ele>
        <time>2019-07-17T16:47:01Z</time>
      </trkpt>
      <trkpt lat="47.78398" lon="-3.56201">
        <ele>33</ele>
        <time>2019-07-17T16:47:02Z</time>
      </trkpt>
      <trkpt lat="47.78396" lon="-3.56203">
        <ele>34</ele>
        <time>2019-07-17T16:47:03Z</time>
      </trkpt>
      <trkpt lat="47.78394" lon="-3.56205">
        <ele>34</ele>
        <time>2019-07-17T16:47:04Z</time>
      </trkpt>
      <trkpt lat="47.78392" lon="-3.56207">
        <ele>34</ele>
        <time>2019-07-17T16:47:05Z</time>
      </trkpt>
      <trkpt lat="47.7839" lon="-3.56208">
        <ele>34</ele>
        <time>2019-07-17T16:47:06Z</time>
      </trkpt>
      <trkpt lat="47.78389" lon="-3.56209">
        <ele>34</ele>
        <time>2019-07-17T16:47:07Z</time>
      </trkpt>
      <trkpt lat="47.78387" lon="-3.56211">
        <ele>34</ele>
        <time>2019-07-17T16:47:08Z</time>
      </trkpt>
      <trkpt lat="47.78386" lon="-3.56213">
        <ele>35</ele>
        <time>2019-07-17T16:47:09Z</time>
      </trkpt>
      <trkpt lat="47.78384" lon="-3.56214">
        <ele>35</ele>
        <time>2019-07-17T16:47:10Z</time>
      </trkpt>
      <trkpt lat="47.78382" lon="-3.56216">
        <ele>35</ele>
        <time>2019-07-17T16:47:11Z</time>
      </trkpt>
      <trkpt lat="47.7838" lon="-3.56218">
        <ele>35</ele>
        <time>2019-07-17T16:47:12Z</time>
      </trkpt>
      <trkpt lat="47.78379" lon="-3.5622">
        <ele>35</ele>
        <time>2019-07-17T16:47:13Z</time>
      </trkpt>
      <trkpt lat="47.78377" lon="-3.56223">
        <ele>36</ele>
        <time>2019-07-17T16:47:14Z</time>
      </trkpt>
      <trkpt lat="47.78376" lon="-3.56225">
        <ele>36</ele>
        <time>2019-07-17T16:47:15Z</time>
      </trkpt>
      <trkpt lat="47.78375" lon="-3.56226">
        <ele>36</ele>
        <time>2019-07-17T16:47:16Z</time>
      </trkpt>
      <trkpt lat="47.78374" lon="-3.56228">
        <ele>36</ele>
        <time>2019-07-17T16:47:17Z</time>
      </trkpt>
      <trkpt lat="47.78373" lon="-3.56229">
        <ele>36</ele>
        <time>2019-07-17T16:47:18Z</time>
      </trkpt>
      <trkpt lat="47.78372" lon="-3.56231">
        <ele>37</ele>
        <time>2019-07-17T16:47:19Z</time>
      </trkpt>
      <trkpt lat="47.7837" lon="-3.56233">
        <ele>37</ele>
        <time>2019-07-17T16:47:20Z</time>
      </trkpt>
      <trkpt lat="47.78368" lon="-3.56236">
        <ele>37</ele>
        <time>2019-07-17T16:47:21Z</time>
      </trkpt>
      <trkpt lat="47.78366" lon="-3.56238">
        <ele>37</ele>
        <time>2019-07-17T16:47:22Z</time>
      </trkpt>
      <trkpt lat="47.78364" lon="-3.56241">
        <ele>37</ele>
        <time>2019-07-17T16:47:23Z</time>
      </trkpt>
      <trkpt lat="47.78362" lon="-3.56243">
        <ele>37</ele>
        <time>2019-07-17T16:47:24Z</time>
      </trkpt>
      <trkpt lat="47.7836" lon="-3.56246">
        <ele>37</ele>
        <time>2019-07-17T16:47:25Z</time>
      </trkpt>
      <trkpt lat="47.78358" lon="-3.56248">
        <ele>37</ele>
        <time>2019-07-17T16:47:26Z</time>
      </trkpt>
      <trkpt lat="47.78356" lon="-3.56251">
        <ele>38</ele>
        <time>2019-07-17T16:47:27Z</time>
      </trkpt>
      <trkpt lat="47.78355" lon="-3.56253">
        <ele>38</ele>
        <time>2019-07-17T16:47:28Z</time>
      </trkpt>
      <trkpt lat="47.78353" lon="-3.56255">
        <ele>38</ele>
        <time>2019-07-17T16:47:29Z</time>
      </trkpt>
      <trkpt lat="47.78352" lon="-3.56257">
        <ele>38</ele>
        <time>2019-07-17T16:47:30Z</time>
      </trkpt>
      <trkpt lat="47.7835" lon="-3.56259">
        <ele>38</ele>
        <time>2019-07-17T16:47:31Z</time>
      </trkpt>
      <trkpt lat="47.78349" lon="-3.56262">
        <ele>38</ele>
        <time>2019-07-17T16:47:32Z</time>
      </trkpt>
      <trkpt lat="47.78347" lon="-3.56264">
        <ele>39</ele>
        <time>2019-07-17T16:47:33Z</time>
      </trkpt>
      <trkpt lat="47.78346" lon="-3.56267">
        <ele>39</ele>
        <time>2019-07-17T16:47:34Z</time>
      </trkpt>
      <trkpt lat="47.78344" lon="-3.5627">
        <ele>39</ele>
        <time>2019-07-17T16:47:35Z</time>
      </trkpt>
      <trkpt lat="47.78342" lon="-3.56273">
        <ele>39</ele>
        <time>2019-07-17T16:47:36Z</time>
      </trkpt>
      <trkpt lat="47.7834" lon="-3.56276">
        <ele>40</ele>
        <time>2019-07-17T16:47:37Z</time>
      </trkpt>
      <trkpt lat="47.78338" lon="-3.56279">
        <ele>40</ele>
        <time>2019-07-17T16:47:38Z</time>
      </trkpt>
      <trkpt lat="47.78337" lon="-3.56282">
        <ele>40</ele>
        <time>2019-07-17T16:47:39Z</time>
      </trkpt>
      <trkpt lat="47.78334" lon="-3.56284">
        <ele>40</ele>
        <time>2019-07-17T16:47:40Z</time>
      </trkpt>
      <trkpt lat="47.78333" lon="-3.56287">
        <ele>40</ele>
        <time>2019-07-17T16:47:41Z</time>
      </trkpt>
      <trkpt lat="47.78331" lon="-3.5629">
        <ele>40</ele>
        <time>2019-07-17T16:47:42Z</time>
      </trkpt>
      <trkpt lat="47.78329" lon="-3.56293">
        <ele>41</ele>
        <time>2019-07-17T16:47:43Z</time>
      </trkpt>
      <trkpt lat="47.78328" lon="-3.56296">
        <ele>41</ele>
        <time>2019-07-17T16:47:44Z</time>
      </trkpt>
      <trkpt lat="47.78327" lon="-3.56299">
        <ele>41</ele>
        <time>2019-07-17T16:47:45Z</time>
      </trkpt>
      <trkpt lat="47.78326" lon="-3.56302">
        <ele>41</ele>
        <time>2019-07-17T16:47:46Z</time>
      </trkpt>
      <trkpt lat="47.78324" lon="-3.56306">
        <ele>41</ele>
        <time>2019-07-17T16:47:47Z</time>
      </trkpt>
      <trkpt lat="47.78323" lon="-3.56309">
        <ele>41</ele>
        <time>2019-07-17T16:47:48Z</time>
      </trkpt>
      <trkpt lat="47.78321" lon="-3.56312">
        <ele>41</ele>
        <time>2019-07-17T16:47:49Z</time>
      </trkpt>
      <trkpt lat="47.78319" lon="-3.56315">
        <ele>42</ele>
        <time>2019-07-17T16:47:50Z</time>
      </trkpt>
      <trkpt lat="47.78318" lon="-3.56318">
        <ele>42</ele>
        <time>2019-07-17T16:47:51Z</time>
      </trkpt>
      <trkpt lat="47.78316" lon="-3.56321">
        <ele>42</ele>
        <time>2019-07-17T16:47:52Z</time>
      </trkpt>
      <trkpt lat="47.78314" lon="-3.56322">
        <ele>42</ele>
        <time>2019-07-17T16:47:53Z</time>
      </trkpt>
      <trkpt lat="47.78312" lon="-3.56323">
        <ele>42</ele>
        <time>2019-07-17T16:47:54Z</time>
      </trkpt>
      <trkpt lat="47.78311" lon="-3.56324">
        <ele>42</ele>
        <time>2019-07-17T16:47:55Z</time>
      </trkpt>
      <trkpt lat="47.7831" lon="-3.56325">
        <ele>42</ele>
        <time>2019-07-17T16:47:56Z</time>
      </trkpt>
      <trkpt lat="47.7831" lon="-3.56325">
        <ele>43</ele>
        <time>2019-07-17T16:47:57Z</time>
      </trkpt>
      <trkpt lat="47.7831" lon="-3.56326">
        <ele>43</ele>
        <time>2019-07-17T16:47:58Z</time>
      </trkpt>
      <trkpt lat="47.7831" lon="-3.56326">
        <ele>43</ele>
        <time>2019-07-17T16:47:59Z</time>
      </trkpt>
      <trkpt lat="47.78304" lon="-3.56325">
        <ele>44</ele>
        <time>2019-07-17T16:48:00Z</time>
      </trkpt>
      <trkpt lat="47.78303" lon="-3.56325">
        <ele>44</ele>
        <time>2019-07-17T16:48:01Z</time>
      </trkpt>
      <trkpt lat="47.78301" lon="-3.56324">
        <ele>44</ele>
        <time>2019-07-17T16:48:02Z</time>
      </trkpt>
      <trkpt lat="47.78298" lon="-3.56323">
        <ele>44</ele>
        <time>2019-07-17T16:48:03Z</time>
      </trkpt>
      <trkpt lat="47.78295" lon="-3.56323">
        <ele>44</ele>
        <time>2019-07-17T16:48:04Z</time>
      </trkpt>
      <trkpt lat="47.78293" lon="-3.56323">
        <ele>45</ele>
        <time>2019-07-17T16:48:05Z</time>
      </trkpt>
      <trkpt lat="47.7829" lon="-3.56322">
        <ele>45</ele>
        <time>2019-07-17T16:48:06Z</time>
      </trkpt>
      <trkpt lat="47.78287" lon="-3.56322">
        <ele>45</ele>
        <time>2019-07-17T16:48:07Z</time>
      </trkpt>
      <trkpt lat="47.78284" lon="-3.56322">
        <ele>45</ele>
        <time>2019-07-17T16:48:08Z</time>
      </trkpt>
      <trkpt lat="47.78282" lon="-3.56322">
        <ele>46</ele>
        <time>2019-07-17T16:48:09Z</time>
      </trkpt>
      <trkpt lat="47.78281" lon="-3.56323">
        <ele>46</ele>
        <time>2019-07-17T16:48:10Z</time>
      </trkpt>
      <trkpt lat="47.7828" lon="-3.56326">
        <ele>46</ele>
        <time>2019-07-17T16:48:11Z</time>
      </trkpt>
      <trkpt lat="47.78279" lon="-3.56331">
        <ele>46</ele>
        <time>2019-07-17T16:48:12Z</time>
      </trkpt>
      <trkpt lat="47.78278" lon="-3.56335">
        <ele>46</ele>
        <time>2019-07-17T16:48:13Z</time>
      </trkpt>
      <trkpt lat="47.78277" lon="-3.56339">
        <ele>47</ele>
        <time>2019-07-17T16:48:14Z</time>
      </trkpt>
      <trkpt lat="47.78276" lon="-3.56344">
        <ele>47</ele>
        <time>2019-07-17T16:48:15Z</time>
      </trkpt>
      <trkpt lat="47.78274" lon="-3.56349">
        <ele>47</ele>
        <time>2019-07-17T16:48:16Z</time>
      </trkpt>
      <trkpt lat="47.78273" lon="-3.56355">
        <ele>47</ele>
        <time>2019-07-17T16:48:17Z</time>
      </trkpt>
      <trkpt lat="47.78271" lon="-3.56361">
        <ele>47</ele>
        <time>2019-07-17T16:48:18Z</time>
      </trkpt>
      <trkpt lat="47.78268" lon="-3.56367">
        <ele>47</ele>
        <time>2019-07-17T16:48:19Z</time>
      </trkpt>
      <trkpt lat="47.78266" lon="-3.56372">
        <ele>47</ele>
        <time>2019-07-17T16:48:20Z</time>
      </trkpt>
      <trkpt lat="47.78264" lon="-3.56378">
        <ele>47</ele>
        <time>2019-07-17T16:48:21Z</time>
      </trkpt>
      <trkpt lat="47.78261" lon="-3.56385">
        <ele>47</ele>
        <time>2019-07-17T16:48:22Z</time>
      </trkpt>
      <trkpt lat="47.78259" lon="-3.56391">
        <ele>47</ele>
        <time>2019-07-17T16:48:23Z</time>
      </trkpt>
      <trkpt lat="47.78257" lon="-3.56398">
        <ele>48</ele>
        <time>2019-07-17T16:48:24Z</time>
      </trkpt>
      <trkpt lat="47.78254" lon="-3.56405">
        <ele>48</ele>
        <time>2019-07-17T16:48:25Z</time>
      </trkpt>
      <trkpt lat="47.78251" lon="-3.56412">
        <ele>48</ele>
        <time>2019-07-17T16:48:26Z</time>
      </trkpt>
      <trkpt lat="47.78248" lon="-3.56419">
        <ele>48</ele>
        <time>2019-07-17T16:48:27Z</time>
      </trkpt>
      <trkpt lat="47.78246" lon="-3.56426">
        <ele>48</ele>
        <time>2019-07-17T16:48:28Z</time>
      </trkpt>
      <trkpt lat="47.78244" lon="-3.56434">
        <ele>48</ele>
        <time>2019-07-17T16:48:29Z</time>
      </trkpt>
      <trkpt lat="47.78242" lon="-3.56441">
        <ele>48</ele>
        <time>2019-07-17T16:48:30Z</time>
      </trkpt>
      <trkpt lat="47.7824" lon="-3.56449">
        <ele>47</ele>
        <time>2019-07-17T16:48:31Z</time>
      </trkpt>
      <trkpt lat="47.78239" lon="-3.56456">
        <ele>47</ele>
        <time>2019-07-17T16:48:32Z</time>
      </trkpt>
      <trkpt lat="47.78237" lon="-3.56461">
        <ele>47</ele>
        <time>2019-07-17T16:48:33Z</time>
      </trkpt>
      <trkpt lat="47.78235" lon="-3.56466">
        <ele>47</ele>
        <time>2019-07-17T16:48:34Z</time>
      </trkpt>
      <trkpt lat="47.78233" lon="-3.56471">
        <ele>47</ele>
        <time>2019-07-17T16:48:35Z</time>
      </trkpt>
      <trkpt lat="47.7823" lon="-3.56477">
        <ele>47</ele>
        <time>2019-07-17T16:48:36Z</time>
      </trkpt>
      <trkpt lat="47.78227" lon="-3.56483">
        <ele>47</ele>
        <time>2019-07-17T16:48:37Z</time>
      </trkpt>
      <trkpt lat="47.78225" lon="-3.5649">
        <ele>47</ele>
        <time>2019-07-17T16:48:38Z</time>
      </trkpt>
      <trkpt lat="47.78223" lon="-3.56496">
        <ele>47</ele>
        <time>2019-07-17T16:48:39Z</time>
      </trkpt>
      <trkpt lat="47.78221" lon="-3.56504">
        <ele>47</ele>
        <time>2019-07-17T16:48:40Z</time>
      </trkpt>
      <trkpt lat="47.78219" lon="-3.56512">
        <ele>47</ele>
        <time>2019-07-17T16:48:41Z</time>
      </trkpt>
      <trkpt lat="47.78216" lon="-3.56519">
        <ele>47</ele>
        <time>2019-07-17T16:48:42Z</time>
      </trkpt>
      <trkpt lat="47.78214" lon="-3.56528">
        <ele>47</ele>
        <time>2019-07-17T16:48:43Z</time>
      </trkpt>
      <trkpt lat="47.78211" lon="-3.56535">
        <ele>47</ele>
        <time>2019-07-17T16:48:44Z</time>
      </trkpt>
      <trkpt lat="47.78209" lon="-3.56543">
        <ele>47</ele>
        <time>2019-07-17T16:48:45Z</time>
      </trkpt>
      <trkpt lat="47.78206" lon="-3.56551">
        <ele>47</ele>
        <time>2019-07-17T16:48:46Z</time>
      </trkpt>
      <trkpt lat="47.78205" lon="-3.56558">
        <ele>47</ele>
        <time>2019-07-17T16:48:47Z</time>
      </trkpt>
      <trkpt lat="47.78204" lon="-3.56566">
        <ele>47</ele>
        <time>2019-07-17T16:48:48Z</time>
      </trkpt>
      <trkpt lat="47.78203" lon="-3.56574">
        <ele>47</ele>
        <time>2019-07-17T16:48:49Z</time>
      </trkpt>
      <trkpt lat="47.78202" lon="-3.56582">
        <ele>47</ele>
        <time>2019-07-17T16:48:50Z</time>
      </trkpt>
      <trkpt lat="47.78202" lon="-3.5659">
        <ele>46</ele>
        <time>2019-07-17T16:48:51Z</time>
      </trkpt>
      <trkpt lat="47.78202" lon="-3.56598">
        <ele>46</ele>
        <time>2019-07-17T16:48:52Z</time>
      </trkpt>
      <trkpt lat="47.78202" lon="-3.56606">
        <ele>46</ele>
        <time>2019-07-17T16:48:53Z</time>
      </trkpt>
      <trkpt lat="47.78202" lon="-3.56613">
        <ele>46</ele>
        <time>2019-07-17T16:48:54Z</time>
      </trkpt>
      <trkpt lat="47.78202" lon="-3.56619">
        <ele>46</ele>
        <time>2019-07-17T16:48:55Z</time>
      </trkpt>
      <trkpt lat="47.78202" lon="-3.56626">
        <ele>46</ele>
        <time>2019-07-17T16:48:56Z</time>
      </trkpt>
      <trkpt lat="47.78203" lon="-3.56631">
        <ele>46</ele>
        <time>2019-07-17T16:48:57Z</time>
      </trkpt>
      <trkpt lat="47.78203" lon="-3.56637">
        <ele>46</ele>
        <time>2019-07-17T16:48:58Z</time>
      </trkpt>
      <trkpt lat="47.78202" lon="-3.56643">
        <ele>46</ele>
        <time>2019-07-17T16:48:59Z</time>
      </trkpt>
      <trkpt lat="47.78201" lon="-3.56649">
        <ele>46</ele>
        <time>2019-07-17T16:49:00Z</time>
      </trkpt>
      <trkpt lat="47.782" lon="-3.56656">
        <ele>46</ele>
        <time>2019-07-17T16:49:01Z</time>
      </trkpt>
      <trkpt lat="47.78199" lon="-3.56662">
        <ele>45</ele>
        <time>2019-07-17T16:49:02Z</time>
      </trkpt>
      <trkpt lat="47.78198" lon="-3.56668">
        <ele>45</ele>
        <time>2019-07-17T16:49:03Z</time>
      </trkpt>
      <trkpt lat="47.78197" lon="-3.56674">
        <ele>45</ele>
        <time>2019-07-17T16:49:04Z</time>
      </trkpt>
      <trkpt lat="47.78196" lon="-3.56681">
        <ele>45</ele>
        <time>2019-07-17T16:49:05Z</time>
      </trkpt>
      <trkpt lat="47.78195" lon="-3.56687">
        <ele>45</ele>
        <time>2019-07-17T16:49:06Z</time>
      </trkpt>
      <trkpt lat="47.78193" lon="-3.56694">
        <ele>45</ele>
        <time>2019-07-17T16:49:07Z</time>
      </trkpt>
      <trkpt lat="47.78192" lon="-3.567">
        <ele>45</ele>
        <time>2019-07-17T16:49:08Z</time>
      </trkpt>
      <trkpt lat="47.78191" lon="-3.56706">
        <ele>45</ele>
        <time>2019-07-17T16:49:09Z</time>
      </trkpt>
      <trkpt lat="47.78191" lon="-3.56713">
        <ele>45</ele>
        <time>2019-07-17T16:49:10Z</time>
      </trkpt>
      <trkpt lat="47.7819" lon="-3.56719">
        <ele>45</ele>
        <time>2019-07-17T16:49:11Z</time>
      </trkpt>
      <trkpt lat="47.78189" lon="-3.56725">
        <ele>45</ele>
        <time>2019-07-17T16:49:12Z</time>
      </trkpt>
      <trkpt lat="47.78188" lon="-3.56732">
        <ele>45</ele>
        <time>2019-07-17T16:49:13Z</time>
      </trkpt>
      <trkpt lat="47.78186" lon="-3.56738">
        <ele>45</ele>
        <time>2019-07-17T16:49:14Z</time>
      </trkpt>
      <trkpt lat="47.78186" lon="-3.56744">
        <ele>45</ele>
        <time>2019-07-17T16:49:15Z</time>
      </trkpt>
      <trkpt lat="47.78185" lon="-3.56751">
        <ele>45</ele>
        <time>2019-07-17T16:49:16Z</time>
      </trkpt>
      <trkpt lat="47.78184" lon="-3.56757">
        <ele>46</ele>
        <time>2019-07-17T16:49:17Z</time>
      </trkpt>
      <trkpt lat="47.78183" lon="-3.56763">
        <ele>46</ele>
        <time>2019-07-17T16:49:18Z</time>
      </trkpt>
      <trkpt lat="47.78181" lon="-3.56769">
        <ele>46</ele>
        <time>2019-07-17T16:49:19Z</time>
      </trkpt>
      <trkpt lat="47.78179" lon="-3.56775">
        <ele>46</ele>
        <time>2019-07-17T16:49:20Z</time>
      </trkpt>
      <trkpt lat="47.78177" lon="-3.56781">
        <ele>46</ele>
        <time>2019-07-17T16:49:21Z</time>
      </trkpt>
      <trkpt lat="47.78176" lon="-3.56787">
        <ele>46</ele>
        <time>2019-07-17T16:49:22Z</time>
      </trkpt>
      <trkpt lat="47.78174" lon="-3.56792">
        <ele>46</ele>
        <time>2019-07-17T16:49:23Z</time>
      </trkpt>
      <trkpt lat="47.78172" lon="-3.56797">
        <ele>47</ele>
        <time>2019-07-17T16:49:24Z</time>
      </trkpt>
      <trkpt lat="47.7817" lon="-3.56801">
        <ele>47</ele>
        <time>2019-07-17T16:49:25Z</time>
      </trkpt>
      <trkpt lat="47.78168" lon="-3.56807">
        <ele>47</ele>
        <time>2019-07-17T16:49:26Z</time>
      </trkpt>
      <trkpt lat="47.78167" lon="-3.56811">
        <ele>47</ele>
        <time>2019-07-17T16:49:27Z</time>
      </trkpt>
      <trkpt lat="47.78165" lon="-3.56813">
        <ele>47</ele>
        <time>2019-07-17T16:49:28Z</time>
      </trkpt>
      <trkpt lat="47.78164" lon="-3.56814">
        <ele>47</ele>
        <time>2019-07-17T16:49:29Z</time>
      </trkpt>
      <trkpt lat="47.78163" lon="-3.56814">
        <ele>47</ele>
        <time>2019-07-17T16:49:30Z</time>
      </trkpt>
      <trkpt lat="47.7816" lon="-3.56814">
        <ele>47</ele>
        <time>2019-07-17T16:49:31Z</time>
      </trkpt>
      <trkpt lat="47.78158" lon="-3.56813">
        <ele>47</ele>
        <time>2019-07-17T16:49:32Z</time>
      </trkpt>
      <trkpt lat="47.78156" lon="-3.56811">
        <ele>48</ele>
        <time>2019-07-17T16:49:33Z</time>
      </trkpt>
      <trkpt lat="47.78153" lon="-3.56807">
        <ele>48</ele>
        <time>2019-07-17T16:49:34Z</time>
      </trkpt>
      <trkpt lat="47.7815" lon="-3.56803">
        <ele>48</ele>
        <time>2019-07-17T16:49:35Z</time>
      </trkpt>
      <trkpt lat="47.78148" lon="-3.56799">
        <ele>48</ele>
        <time>2019-07-17T16:49:36Z</time>
      </trkpt>
      <trkpt lat="47.78145" lon="-3.56795">
        <ele>48</ele>
        <time>2019-07-17T16:49:37Z</time>
      </trkpt>
      <trkpt lat="47.78143" lon="-3.56791">
        <ele>48</ele>
        <time>2019-07-17T16:49:38Z</time>
      </trkpt>
      <trkpt lat="47.78141" lon="-3.56786">
        <ele>48</ele>
        <time>2019-07-17T16:49:39Z</time>
      </trkpt>
      <trkpt lat="47.7814" lon="-3.56782">
        <ele>48</ele>
        <time>2019-07-17T16:49:40Z</time>
      </trkpt>
      <trkpt lat="47.78138" lon="-3.56778">
        <ele>48</ele>
        <time>2019-07-17T16:49:41Z</time>
      </trkpt>
      <trkpt lat="47.78136" lon="-3.56775">
        <ele>49</ele>
        <time>2019-07-17T16:49:42Z</time>
      </trkpt>
      <trkpt lat="47.78134" lon="-3.5677">
        <ele>49</ele>
        <time>2019-07-17T16:49:43Z</time>
      </trkpt>
      <trkpt lat="47.78131" lon="-3.56765">
        <ele>49</ele>
        <time>2019-07-17T16:49:44Z</time>
      </trkpt>
      <trkpt lat="47.78129" lon="-3.5676">
        <ele>49</ele>
        <time>2019-07-17T16:49:45Z</time>
      </trkpt>
      <trkpt lat="47.78127" lon="-3.56754">
        <ele>49</ele>
        <time>2019-07-17T16:49:46Z</time>
      </trkpt>
      <trkpt lat="47.78124" lon="-3.56748">
        <ele>49</ele>
        <time>2019-07-17T16:49:47Z</time>
      </trkpt>
      <trkpt lat="47.78121" lon="-3.56741">
        <ele>49</ele>
        <time>2019-07-17T16:49:48Z</time>
      </trkpt>
      <trkpt lat="47.78119" lon="-3.56734">
        <ele>49</ele>
        <time>2019-07-17T16:49:49Z</time>
      </trkpt>
      <trkpt lat="47.78117" lon="-3.56726">
        <ele>49</ele>
        <time>2019-07-17T16:49:50Z</time>
      </trkpt>
      <trkpt lat="47.78114" lon="-3.56719">
        <ele>49</ele>
        <time>2019-07-17T16:49:51Z</time>
      </trkpt>
      <trkpt lat="47.78112" lon="-3.56712">
        <ele>48</ele>
        <time>2019-07-17T16:49:52Z</time>
      </trkpt>
      <trkpt lat="47.7811" lon="-3.56705">
        <ele>48</ele>
        <time>2019-07-17T16:49:53Z</time>
      </trkpt>
      <trkpt lat="47.78108" lon="-3.56697">
        <ele>48</ele>
        <time>2019-07-17T16:49:54Z</time>
      </trkpt>
      <trkpt lat="47.78106" lon="-3.56689">
        <ele>48</ele>
        <time>2019-07-17T16:49:55Z</time>
      </trkpt>
      <trkpt lat="47.78104" lon="-3.56681">
        <ele>48</ele>
        <time>2019-07-17T16:49:56Z</time>
      </trkpt>
      <trkpt lat="47.78102" lon="-3.56672">
        <ele>48</ele>
        <time>2019-07-17T16:49:57Z</time>
      </trkpt>
      <trkpt lat="47.781" lon="-3.56663">
        <ele>48</ele>
        <time>2019-07-17T16:49:58Z</time>
      </trkpt>
      <trkpt lat="47.78098" lon="-3.56654">
        <ele>48</ele>
        <time>2019-07-17T16:49:59Z</time>
      </trkpt>
      <trkpt lat="47.78097" lon="-3.56646">
        <ele>48</ele>
        <time>2019-07-17T16:50:00Z</time>
      </trkpt>
      <trkpt lat="47.78094" lon="-3.56637">
        <ele>47</ele>
        <time>2019-07-17T16:50:01Z</time>
      </trkpt>
      <trkpt lat="47.78093" lon="-3.56628">
        <ele>47</ele>
        <time>2019-07-17T16:50:02Z</time>
      </trkpt>
      <trkpt lat="47.78091" lon="-3.5662">
        <ele>47</ele>
        <time>2019-07-17T16:50:03Z</time>
      </trkpt>
      <trkpt lat="47.78088" lon="-3.56611">
        <ele>47</ele>
        <time>2019-07-17T16:50:04Z</time>
      </trkpt>
      <trkpt lat="47.78087" lon="-3.56603">
        <ele>47</ele>
        <time>2019-07-17T16:50:05Z</time>
      </trkpt>
      <trkpt lat="47.78085" lon="-3.56594">
        <ele>47</ele>
        <time>2019-07-17T16:50:06Z</time>
      </trkpt>
      <trkpt lat="47.78083" lon="-3.56585">
        <ele>47</ele>
        <time>2019-07-17T16:50:07Z</time>
      </trkpt>
      <trkpt lat="47.78081" lon="-3.56576">
        <ele>46</ele>
        <time>2019-07-17T16:50:08Z</time>
      </trkpt>
      <trkpt lat="47.7808" lon="-3.56567">
        <ele>46</ele>
        <time>2019-07-17T16:50:09Z</time>
      </trkpt>
      <trkpt lat="47.78078" lon="-3.56558">
        <ele>46</ele>
        <time>2019-07-17T16:50:10Z</time>
      </trkpt>
      <trkpt lat="47.78076" lon="-3.5655">
        <ele>46</ele>
        <time>2019-07-17T16:50:11Z</time>
      </trkpt>
      <trkpt lat="47.78074" lon="-3.56541">
        <ele>46</ele>
        <time>2019-07-17T16:50:12Z</time>
      </trkpt>
      <trkpt lat="47.78071" lon="-3.56532">
        <ele>46</ele>
        <time>2019-07-17T16:50:13Z</time>
      </trkpt>
      <trkpt lat="47.78069" lon="-3.56522">
        <ele>46</ele>
        <time>2019-07-17T16:50:14Z</time>
      </trkpt>
      <trkpt lat="47.78067" lon="-3.56512">
        <ele>46</ele>
        <time>2019-07-17T16:50:15Z</time>
      </trkpt>
      <trkpt lat="47.78065" lon="-3.56501">
        <ele>46</ele>
        <time>2019-07-17T16:50:16Z</time>
      </trkpt>
      <trkpt lat="47.78063" lon="-3.56491">
        <ele>45</ele>
        <time>2019-07-17T16:50:17Z</time>
      </trkpt>
      <trkpt lat="47.78061" lon="-3.56481">
        <ele>45</ele>
        <time>2019-07-17T16:50:18Z</time>
      </trkpt>
      <trkpt lat="47.78059" lon="-3.56471">
        <ele>45</ele>
        <time>2019-07-17T16:50:19Z</time>
      </trkpt>
      <trkpt lat="47.78057" lon="-3.5646">
        <ele>45</ele>
        <time>2019-07-17T16:50:20Z</time>
      </trkpt>
      <trkpt lat="47.78055" lon="-3.5645">
        <ele>45</ele>
        <time>2019-07-17T16:50:21Z</time>
      </trkpt>
      <trkpt lat="47.78052" lon="-3.56439">
        <ele>45</ele>
        <time>2019-07-17T16:50:22Z</time>
      </trkpt>
      <trkpt lat="47.78051" lon="-3.56428">
        <ele>44</ele>
        <time>2019-07-17T16:50:23Z</time>
      </trkpt>
      <trkpt lat="47.78048" lon="-3.56416">
        <ele>44</ele>
        <time>2019-07-17T16:50:24Z</time>
      </trkpt>
      <trkpt lat="47.78047" lon="-3.56404">
        <ele>44</ele>
        <time>2019-07-17T16:50:25Z</time>
      </trkpt>
      <trkpt lat="47.78045" lon="-3.56392">
        <ele>44</ele>
        <time>2019-07-17T16:50:26Z</time>
      </trkpt>
      <trkpt lat="47.78044" lon="-3.5638">
        <ele>43</ele>
        <time>2019-07-17T16:50:27Z</time>
      </trkpt>
      <trkpt lat="47.78042" lon="-3.56367">
        <ele>43</ele>
        <time>2019-07-17T16:50:28Z</time>
      </trkpt>
      <trkpt lat="47.78041" lon="-3.56354">
        <ele>43</ele>
        <time>2019-07-17T16:50:29Z</time>
      </trkpt>
      <trkpt lat="47.78039" lon="-3.56341">
        <ele>43</ele>
        <time>2019-07-17T16:50:30Z</time>
      </trkpt>
      <trkpt lat="47.78037" lon="-3.56327">
        <ele>43</ele>
        <time>2019-07-17T16:50:31Z</time>
      </trkpt>
      <trkpt lat="47.78035" lon="-3.56314">
        <ele>42</ele>
        <time>2019-07-17T16:50:32Z</time>
      </trkpt>
      <trkpt lat="47.78033" lon="-3.563">
        <ele>42</ele>
        <time>2019-07-17T16:50:33Z</time>
      </trkpt>
      <trkpt lat="47.78031" lon="-3.56287">
        <ele>42</ele>
        <time>2019-07-17T16:50:34Z</time>
      </trkpt>
      <trkpt lat="47.78029" lon="-3.56274">
        <ele>42</ele>
        <time>2019-07-17T16:50:35Z</time>
      </trkpt>
      <trkpt lat="47.78027" lon="-3.56262">
        <ele>41</ele>
        <time>2019-07-17T16:50:36Z</time>
      </trkpt>
      <trkpt lat="47.78024" lon="-3.56249">
        <ele>41</ele>
        <time>2019-07-17T16:50:37Z</time>
      </trkpt>
      <trkpt lat="47.78022" lon="-3.56236">
        <ele>40</ele>
        <time>2019-07-17T16:50:38Z</time>
      </trkpt>
      <trkpt lat="47.78019" lon="-3.56224">
        <ele>40</ele>
        <time>2019-07-17T16:50:39Z</time>
      </trkpt>
      <trkpt lat="47.78016" lon="-3.56212">
        <ele>39</ele>
        <time>2019-07-17T16:50:40Z</time>
      </trkpt>
      <trkpt lat="47.78013" lon="-3.56201">
        <ele>39</ele>
        <time>2019-07-17T16:50:41Z</time>
      </trkpt>
      <trkpt lat="47.7801" lon="-3.56189">
        <ele>38</ele>
        <time>2019-07-17T16:50:42Z</time>
      </trkpt>
      <trkpt lat="47.78007" lon="-3.56178">
        <ele>38</ele>
        <time>2019-07-17T16:50:43Z</time>
      </trkpt>
      <trkpt lat="47.78004" lon="-3.56167">
        <ele>37</ele>
        <time>2019-07-17T16:50:44Z</time>
      </trkpt>
      <trkpt lat="47.78001" lon="-3.56155">
        <ele>37</ele>
        <time>2019-07-17T16:50:45Z</time>
      </trkpt>
      <trkpt lat="47.77998" lon="-3.56144">
        <ele>37</ele>
        <time>2019-07-17T16:50:46Z</time>
      </trkpt>
      <trkpt lat="47.77995" lon="-3.56132">
        <ele>36</ele>
        <time>2019-07-17T16:50:47Z</time>
      </trkpt>
      <trkpt lat="47.77992" lon="-3.5612">
        <ele>36</ele>
        <time>2019-07-17T16:50:48Z</time>
      </trkpt>
      <trkpt lat="47.77989" lon="-3.56108">
        <ele>36</ele>
        <time>2019-07-17T16:50:49Z</time>
      </trkpt>
      <trkpt lat="47.77986" lon="-3.56096">
        <ele>35</ele>
        <time>2019-07-17T16:50:50Z</time>
      </trkpt>
      <trkpt lat="47.77983" lon="-3.56084">
        <ele>35</ele>
        <time>2019-07-17T16:50:51Z</time>
      </trkpt>
      <trkpt lat="47.7798" lon="-3.56072">
        <ele>35</ele>
        <time>2019-07-17T16:50:52Z</time>
      </trkpt>
      <trkpt lat="47.77976" lon="-3.56059">
        <ele>35</ele>
        <time>2019-07-17T16:50:53Z</time>
      </trkpt>
      <trkpt lat="47.77973" lon="-3.56047">
        <ele>35</ele>
        <time>2019-07-17T16:50:54Z</time>
      </trkpt>
      <trkpt lat="47.77971" lon="-3.56034">
        <ele>34</ele>
        <time>2019-07-17T16:50:55Z</time>
      </trkpt>
      <trkpt lat="47.77968" lon="-3.56021">
        <ele>34</ele>
        <time>2019-07-17T16:50:56Z</time>
      </trkpt>
      <trkpt lat="47.77965" lon="-3.56008">
        <ele>34</ele>
        <time>2019-07-17T16:50:57Z</time>
      </trkpt>
      <trkpt lat="47.77962" lon="-3.55996">
        <ele>34</ele>
        <time>2019-07-17T16:50:58Z</time>
      </trkpt>
      <trkpt lat="47.77959" lon="-3.55983">
        <ele>34</ele>
        <time>2019-07-17T16:50:59Z</time>
      </trkpt>
      <trkpt lat="47.77956" lon="-3.5597">
        <ele>34</ele>
        <time>2019-07-17T16:51:00Z</time>
      </trkpt>
      <trkpt lat="47.77952" lon="-3.55958">
        <ele>34</ele>
        <time>2019-07-17T16:51:01Z</time>
      </trkpt>
      <trkpt lat="47.77949" lon="-3.55945">
        <ele>34</ele>
        <time>2019-07-17T16:51:02Z</time>
      </trkpt>
      <trkpt lat="47.77946" lon="-3.55933">
        <ele>34</ele>
        <time>2019-07-17T16:51:03Z</time>
      </trkpt>
      <trkpt lat="47.77942" lon="-3.55921">
        <ele>34</ele>
        <time>2019-07-17T16:51:04Z</time>
      </trkpt>
      <trkpt lat="47.77937" lon="-3.55909">
        <ele>34</ele>
        <time>2019-07-17T16:51:05Z</time>
      </trkpt>
      <trkpt lat="47.77932" lon="-3.55896">
        <ele>34</ele>
        <time>2019-07-17T16:51:06Z</time>
      </trkpt>
      <trkpt lat="47.77927" lon="-3.55884">
        <ele>34</ele>
        <time>2019-07-17T16:51:07Z</time>
      </trkpt>
      <trkpt lat="47.77923" lon="-3.55872">
        <ele>33</ele>
        <time>2019-07-17T16:51:08Z</time>
      </trkpt>
      <trkpt lat="47.77917" lon="-3.5586">
        <ele>33</ele>
        <time>2019-07-17T16:51:09Z</time>
      </trkpt>
      <trkpt lat="47.77913" lon="-3.55848">
        <ele>33</ele>
        <time>2019-07-17T16:51:10Z</time>
      </trkpt>
      <trkpt lat="47.77907" lon="-3.55836">
        <ele>33</ele>
        <time>2019-07-17T16:51:11Z</time>
      </trkpt>
      <trkpt lat="47.77902" lon="-3.55824">
        <ele>33</ele>
        <time>2019-07-17T16:51:12Z</time>
      </trkpt>
      <trkpt lat="47.77897" lon="-3.55812">
        <ele>33</ele>
        <time>2019-07-17T16:51:13Z</time>
      </trkpt>
      <trkpt lat="47.77892" lon="-3.558">
        <ele>32</ele>
        <time>2019-07-17T16:51:14Z</time>
      </trkpt>
      <trkpt lat="47.77886" lon="-3.55789">
        <ele>32</ele>
        <time>2019-07-17T16:51:15Z</time>
      </trkpt>
      <trkpt lat="47.77881" lon="-3.55777">
        <ele>32</ele>
        <time>2019-07-17T16:51:16Z</time>
      </trkpt>
      <trkpt lat="47.77876" lon="-3.55767">
        <ele>32</ele>
        <time>2019-07-17T16:51:17Z</time>
      </trkpt>
      <trkpt lat="47.77872" lon="-3.55756">
        <ele>32</ele>
        <time>2019-07-17T16:51:18Z</time>
      </trkpt>
      <trkpt lat="47.77867" lon="-3.55745">
        <ele>31</ele>
        <time>2019-07-17T16:51:19Z</time>
      </trkpt>
      <trkpt lat="47.77863" lon="-3.55736">
        <ele>31</ele>
        <time>2019-07-17T16:51:20Z</time>
      </trkpt>
      <trkpt lat="47.77858" lon="-3.55726">
        <ele>31</ele>
        <time>2019-07-17T16:51:21Z</time>
      </trkpt>
      <trkpt lat="47.77854" lon="-3.55716">
        <ele>31</ele>
        <time>2019-07-17T16:51:22Z</time>
      </trkpt>
      <trkpt lat="47.7785" lon="-3.55707">
        <ele>31</ele>
        <time>2019-07-17T16:51:23Z</time>
      </trkpt>
      <trkpt lat="47.77845" lon="-3.55697">
        <ele>31</ele>
        <time>2019-07-17T16:51:24Z</time>
      </trkpt>
      <trkpt lat="47.77841" lon="-3.55688">
        <ele>31</ele>
        <time>2019-07-17T16:51:25Z</time>
      </trkpt>
      <trkpt lat="47.77838" lon="-3.55678">
        <ele>31</ele>
        <time>2019-07-17T16:51:26Z</time>
      </trkpt>
      <trkpt lat="47.77834" lon="-3.55669">
        <ele>31</ele>
        <time>2019-07-17T16:51:27Z</time>
      </trkpt>
      <trkpt lat="47.7783" lon="-3.5566">
        <ele>31</ele>
        <time>2019-07-17T16:51:28Z</time>
      </trkpt>
      <trkpt lat="47.77827" lon="-3.55651">
        <ele>31</ele>
        <time>2019-07-17T16:51:29Z</time>
      </trkpt>
      <trkpt lat="47.77823" lon="-3.55643">
        <ele>31</ele>
        <time>2019-07-17T16:51:30Z</time>
      </trkpt>
      <trkpt lat="47.77819" lon="-3.55635">
        <ele>31</ele>
        <time>2019-07-17T16:51:31Z</time>
      </trkpt>
      <trkpt lat="47.77815" lon="-3.55627">
        <ele>31</ele>
        <time>2019-07-17T16:51:32Z</time>
      </trkpt>
      <trkpt lat="47.77812" lon="-3.55618">
        <ele>31</ele>
        <time>2019-07-17T16:51:33Z</time>
      </trkpt>
      <trkpt lat="47.77808" lon="-3.55609">
        <ele>31</ele>
        <time>2019-07-17T16:51:34Z</time>
      </trkpt>
      <trkpt lat="47.77804" lon="-3.556">
        <ele>30</ele>
        <time>2019-07-17T16:51:35Z</time>
      </trkpt>
      <trkpt lat="47.778" lon="-3.55591">
        <ele>30</ele>
        <time>2019-07-17T16:51:36Z</time>
      </trkpt>
      <trkpt lat="47.77796" lon="-3.55582">
        <ele>30</ele>
        <time>2019-07-17T16:51:37Z</time>
      </trkpt>
      <trkpt lat="47.77792" lon="-3.55573">
        <ele>30</ele>
        <time>2019-07-17T16:51:38Z</time>
      </trkpt>
      <trkpt lat="47.77787" lon="-3.55564">
        <ele>30</ele>
        <time>2019-07-17T16:51:39Z</time>
      </trkpt>
      <trkpt lat="47.77783" lon="-3.55555">
        <ele>30</ele>
        <time>2019-07-17T16:51:40Z</time>
      </trkpt>
      <trkpt lat="47.77778" lon="-3.55546">
        <ele>29</ele>
        <time>2019-07-17T16:51:41Z</time>
      </trkpt>
      <trkpt lat="47.77773" lon="-3.55538">
        <ele>29</ele>
        <time>2019-07-17T16:51:42Z</time>
      </trkpt>
      <trkpt lat="47.77769" lon="-3.55529">
        <ele>29</ele>
        <time>2019-07-17T16:51:43Z</time>
      </trkpt>
      <trkpt lat="47.77763" lon="-3.55521">
        <ele>29</ele>
        <time>2019-07-17T16:51:44Z</time>
      </trkpt>
      <trkpt lat="47.77757" lon="-3.55514">
        <ele>29</ele>
        <time>2019-07-17T16:51:45Z</time>
      </trkpt>
      <trkpt lat="47.77752" lon="-3.55507">
        <ele>29</ele>
        <time>2019-07-17T16:51:46Z</time>
      </trkpt>
      <trkpt lat="47.77746" lon="-3.55499">
        <ele>28</ele>
        <time>2019-07-17T16:51:47Z</time>
      </trkpt>
      <trkpt lat="47.77741" lon="-3.55491">
        <ele>28</ele>
        <time>2019-07-17T16:51:48Z</time>
      </trkpt>
      <trkpt lat="47.77735" lon="-3.55484">
        <ele>28</ele>
        <time>2019-07-17T16:51:49Z</time>
      </trkpt>
      <trkpt lat="47.7773" lon="-3.55476">
        <ele>28</ele>
        <time>2019-07-17T16:51:50Z</time>
      </trkpt>
      <trkpt lat="47.77724" lon="-3.55468">
        <ele>28</ele>
        <time>2019-07-17T16:51:51Z</time>
      </trkpt>
      <trkpt lat="47.77719" lon="-3.5546">
        <ele>28</ele>
        <time>2019-07-17T16:51:52Z</time>
      </trkpt>
      <trkpt lat="47.77714" lon="-3.55452">
        <ele>28</ele>
        <time>2019-07-17T16:51:53Z</time>
      </trkpt>
      <trkpt lat="47.7771" lon="-3.55444">
        <ele>28</ele>
        <time>2019-07-17T16:51:54Z</time>
      </trkpt>
      <trkpt lat="47.77706" lon="-3.55436">
        <ele>28</ele>
        <time>2019-07-17T16:51:55Z</time>
      </trkpt>
      <trkpt lat="47.77702" lon="-3.55427">
        <ele>28</ele>
        <time>2019-07-17T16:51:56Z</time>
      </trkpt>
      <trkpt lat="47.77699" lon="-3.55418">
        <ele>28</ele>
        <time>2019-07-17T16:51:57Z</time>
      </trkpt>
      <trkpt lat="47.77695" lon="-3.5541">
        <ele>28</ele>
        <time>2019-07-17T16:51:58Z</time>
      </trkpt>
      <trkpt lat="47.77692" lon="-3.55402">
        <ele>28</ele>
        <time>2019-07-17T16:51:59Z</time>
      </trkpt>
      <trkpt lat="47.77688" lon="-3.55393">
        <ele>28</ele>
        <time>2019-07-17T16:52:00Z</time>
      </trkpt>
      <trkpt lat="47.77685" lon="-3.55386">
        <ele>28</ele>
        <time>2019-07-17T16:52:01Z</time>
      </trkpt>
      <trkpt lat="47.77682" lon="-3.55377">
        <ele>28</ele>
        <time>2019-07-17T16:52:02Z</time>
      </trkpt>
      <trkpt lat="47.77679" lon="-3.5537">
        <ele>28</ele>
        <time>2019-07-17T16:52:03Z</time>
      </trkpt>
      <trkpt lat="47.77676" lon="-3.55362">
        <ele>29</ele>
        <time>2019-07-17T16:52:04Z</time>
      </trkpt>
      <trkpt lat="47.77671" lon="-3.55357">
        <ele>29</ele>
        <time>2019-07-17T16:52:05Z</time>
      </trkpt>
      <trkpt lat="47.77666" lon="-3.55353">
        <ele>29</ele>
        <time>2019-07-17T16:52:06Z</time>
      </trkpt>
      <trkpt lat="47.77661" lon="-3.5535">
        <ele>29</ele>
        <time>2019-07-17T16:52:07Z</time>
      </trkpt>
      <trkpt lat="47.77656" lon="-3.55348">
        <ele>29</ele>
        <time>2019-07-17T16:52:08Z</time>
      </trkpt>
      <trkpt lat="47.77651" lon="-3.55347">
        <ele>30</ele>
        <time>2019-07-17T16:52:09Z</time>
      </trkpt>
      <trkpt lat="47.77646" lon="-3.55347">
        <ele>30</ele>
        <time>2019-07-17T16:52:10Z</time>
      </trkpt>
      <trkpt lat="47.77642" lon="-3.55348">
        <ele>30</ele>
        <time>2019-07-17T16:52:11Z</time>
      </trkpt>
      <trkpt lat="47.77639" lon="-3.55349">
        <ele>31</ele>
        <time>2019-07-17T16:52:12Z</time>
      </trkpt>
      <trkpt lat="47.77636" lon="-3.5535">
        <ele>31</ele>
        <time>2019-07-17T16:52:13Z</time>
      </trkpt>
      <trkpt lat="47.77633" lon="-3.55351">
        <ele>31</ele>
        <time>2019-07-17T16:52:14Z</time>
      </trkpt>
      <trkpt lat="47.7763" lon="-3.55353">
        <ele>31</ele>
        <time>2019-07-17T16:52:15Z</time>
      </trkpt>
      <trkpt lat="47.77627" lon="-3.55354">
        <ele>32</ele>
        <time>2019-07-17T16:52:16Z</time>
      </trkpt>
      <trkpt lat="47.77624" lon="-3.55355">
        <ele>32</ele>
        <time>2019-07-17T16:52:17Z</time>
      </trkpt>
      <trkpt lat="47.77621" lon="-3.55356">
        <ele>32</ele>
        <time>2019-07-17T16:52:18Z</time>
      </trkpt>
      <trkpt lat="47.77618" lon="-3.55356">
        <ele>32</ele>
        <time>2019-07-17T16:52:19Z</time>
      </trkpt>
      <trkpt lat="47.77615" lon="-3.55357">
        <ele>32</ele>
        <time>2019-07-17T16:52:20Z</time>
      </trkpt>
      <trkpt lat="47.77611" lon="-3.55358">
        <ele>33</ele>
        <time>2019-07-17T16:52:21Z</time>
      </trkpt>
      <trkpt lat="47.77607" lon="-3.55359">
        <ele>33</ele>
        <time>2019-07-17T16:52:22Z</time>
      </trkpt>
      <trkpt lat="47.77603" lon="-3.5536">
        <ele>33</ele>
        <time>2019-07-17T16:52:23Z</time>
      </trkpt>
      <trkpt lat="47.77598" lon="-3.55362">
        <ele>33</ele>
        <time>2019-07-17T16:52:24Z</time>
      </trkpt>
      <trkpt lat="47.77594" lon="-3.55363">
        <ele>34</ele>
        <time>2019-07-17T16:52:25Z</time>
      </trkpt>
      <trkpt lat="47.77589" lon="-3.55364">
        <ele>34</ele>
        <time>2019-07-17T16:52:26Z</time>
      </trkpt>
      <trkpt lat="47.77584" lon="-3.55365">
        <ele>34</ele>
        <time>2019-07-17T16:52:27Z</time>
      </trkpt>
      <trkpt lat="47.77579" lon="-3.55365">
        <ele>34</ele>
        <time>2019-07-17T16:52:28Z</time>
      </trkpt>
      <trkpt lat="47.77574" lon="-3.55365">
        <ele>34</ele>
        <time>2019-07-17T16:52:29Z</time>
      </trkpt>
      <trkpt lat="47.77569" lon="-3.55365">
        <ele>35</ele>
        <time>2019-07-17T16:52:30Z</time>
      </trkpt>
      <trkpt lat="47.77564" lon="-3.55366">
        <ele>35</ele>
        <time>2019-07-17T16:52:31Z</time>
      </trkpt>
      <trkpt lat="47.77559" lon="-3.55366">
        <ele>35</ele>
        <time>2019-07-17T16:52:32Z</time>
      </trkpt>
      <trkpt lat="47.77554" lon="-3.55366">
        <ele>35</ele>
        <time>2019-07-17T16:52:33Z</time>
      </trkpt>
      <trkpt lat="47.77549" lon="-3.55368">
        <ele>36</ele>
        <time>2019-07-17T16:52:34Z</time>
      </trkpt>
      <trkpt lat="47.77543" lon="-3.55369">
        <ele>36</ele>
        <time>2019-07-17T16:52:35Z</time>
      </trkpt>
      <trkpt lat="47.77537" lon="-3.55369">
        <ele>36</ele>
        <time>2019-07-17T16:52:36Z</time>
      </trkpt>
      <trkpt lat="47.77531" lon="-3.5537">
        <ele>36</ele>
        <time>2019-07-17T16:52:37Z</time>
      </trkpt>
      <trkpt lat="47.77525" lon="-3.55371">
        <ele>36</ele>
        <time>2019-07-17T16:52:38Z</time>
      </trkpt>
      <trkpt lat="47.7752" lon="-3.55371">
        <ele>37</ele>
        <time>2019-07-17T16:52:39Z</time>
      </trkpt>
      <trkpt lat="47.77515" lon="-3.5537">
        <ele>37</ele>
        <time>2019-07-17T16:52:40Z</time>
      </trkpt>
      <trkpt lat="47.7751" lon="-3.55367">
        <ele>37</ele>
        <time>2019-07-17T16:52:41Z</time>
      </trkpt>
      <trkpt lat="47.77505" lon="-3.55364">
        <ele>37</ele>
        <time>2019-07-17T16:52:42Z</time>
      </trkpt>
      <trkpt lat="47.77501" lon="-3.5536">
        <ele>37</ele>
        <time>2019-07-17T16:52:43Z</time>
      </trkpt>
      <trkpt lat="47.77496" lon="-3.55356">
        <ele>38</ele>
        <time>2019-07-17T16:52:44Z</time>
      </trkpt>
      <trkpt lat="47.77491" lon="-3.55351">
        <ele>38</ele>
        <time>2019-07-17T16:52:45Z</time>
      </trkpt>
      <trkpt lat="47.77486" lon="-3.55347">
        <ele>38</ele>
        <time>2019-07-17T16:52:46Z</time>
      </trkpt>
      <trkpt lat="47.77481" lon="-3.55342">
        <ele>38</ele>
        <time>2019-07-17T16:52:47Z</time>
      </trkpt>
      <trkpt lat="47.77477" lon="-3.55338">
        <ele>38</ele>
        <time>2019-07-17T16:52:48Z</time>
      </trkpt>
      <trkpt lat="47.77472" lon="-3.55333">
        <ele>38</ele>
        <time>2019-07-17T16:52:49Z</time>
      </trkpt>
      <trkpt lat="47.77467" lon="-3.55329">
        <ele>38</ele>
        <time>2019-07-17T16:52:50Z</time>
      </trkpt>
      <trkpt lat="47.77461" lon="-3.55325">
        <ele>38</ele>
        <time>2019-07-17T16:52:51Z</time>
      </trkpt>
      <trkpt lat="47.77455" lon="-3.55321">
        <ele>38</ele>
        <time>2019-07-17T16:52:52Z</time>
      </trkpt>
      <trkpt lat="47.7745" lon="-3.55316">
        <ele>38</ele>
        <time>2019-07-17T16:52:53Z</time>
      </trkpt>
      <trkpt lat="47.77444" lon="-3.55311">
        <ele>38</ele>
        <time>2019-07-17T16:52:54Z</time>
      </trkpt>
      <trkpt lat="47.77439" lon="-3.55306">
        <ele>38</ele>
        <time>2019-07-17T16:52:55Z</time>
      </trkpt>
      <trkpt lat="47.77433" lon="-3.55301">
        <ele>38</ele>
        <time>2019-07-17T16:52:56Z</time>
      </trkpt>
      <trkpt lat="47.77427" lon="-3.55296">
        <ele>38</ele>
        <time>2019-07-17T16:52:57Z</time>
      </trkpt>
      <trkpt lat="47.77422" lon="-3.55291">
        <ele>38</ele>
        <time>2019-07-17T16:52:58Z</time>
      </trkpt>
      <trkpt lat="47.77417" lon="-3.55286">
        <ele>37</ele>
        <time>2019-07-17T16:52:59Z</time>
      </trkpt>
      <trkpt lat="47.77411" lon="-3.55282">
        <ele>37</ele>
        <time>2019-07-17T16:53:00Z</time>
      </trkpt>
      <trkpt lat="47.77406" lon="-3.55277">
        <ele>37</ele>
        <time>2019-07-17T16:53:01Z</time>
      </trkpt>
      <trkpt lat="47.774" lon="-3.55272">
        <ele>37</ele>
        <time>2019-07-17T16:53:02Z</time>
      </trkpt>
      <trkpt lat="47.77394" lon="-3.55266">
        <ele>38</ele>
        <time>2019-07-17T16:53:03Z</time>
      </trkpt>
      <trkpt lat="47.77388" lon="-3.55261">
        <ele>38</ele>
        <time>2019-07-17T16:53:04Z</time>
      </trkpt>
      <trkpt lat="47.77382" lon="-3.55255">
        <ele>38</ele>
        <time>2019-07-17T16:53:05Z</time>
      </trkpt>
      <trkpt lat="47.77376" lon="-3.5525">
        <ele>38</ele>
        <time>2019-07-17T16:53:06Z</time>
      </trkpt>
      <trkpt lat="47.77371" lon="-3.55245">
        <ele>38</ele>
        <time>2019-07-17T16:53:07Z</time>
      </trkpt>
      <trkpt lat="47.77365" lon="-3.55239">
        <ele>38</ele>
        <time>2019-07-17T16:53:08Z</time>
      </trkpt>
      <trkpt lat="47.7736" lon="-3.55233">
        <ele>38</ele>
        <time>2019-07-17T16:53:09Z</time>
      </trkpt>
      <trkpt lat="47.77354" lon="-3.55229">
        <ele>38</ele>
        <time>2019-07-17T16:53:10Z</time>
      </trkpt>
      <trkpt lat="47.77348" lon="-3.55224">
        <ele>38</ele>
        <time>2019-07-17T16:53:11Z</time>
      </trkpt>
      <trkpt lat="47.77342" lon="-3.5522">
        <ele>38</ele>
        <time>2019-07-17T16:53:12Z</time>
      </trkpt>
      <trkpt lat="47.77336" lon="-3.55215">
        <ele>38</ele>
        <time>2019-07-17T16:53:13Z</time>
      </trkpt>
      <trkpt lat="47.77331" lon="-3.55211">
        <ele>38</ele>
        <time>2019-07-17T16:53:14Z</time>
      </trkpt>
      <trkpt lat="47.77325" lon="-3.55207">
        <ele>38</ele>
        <time>2019-07-17T16:53:15Z</time>
      </trkpt>
      <trkpt lat="47.7732" lon="-3.55204">
        <ele>38</ele>
        <time>2019-07-17T16:53:16Z</time>
      </trkpt>
      <trkpt lat="47.77314" lon="-3.55201">
        <ele>38</ele>
        <time>2019-07-17T16:53:17Z</time>
      </trkpt>
      <trkpt lat="47.77309" lon="-3.55197">
        <ele>38</ele>
        <time>2019-07-17T16:53:18Z</time>
      </trkpt>
      <trkpt lat="47.77303" lon="-3.55194">
        <ele>38</ele>
        <time>2019-07-17T16:53:19Z</time>
      </trkpt>
      <trkpt lat="47.77298" lon="-3.5519">
        <ele>38</ele>
        <time>2019-07-17T16:53:20Z</time>
      </trkpt>
      <trkpt lat="47.77292" lon="-3.55188">
        <ele>38</ele>
        <time>2019-07-17T16:53:21Z</time>
      </trkpt>
      <trkpt lat="47.77287" lon="-3.55184">
        <ele>38</ele>
        <time>2019-07-17T16:53:22Z</time>
      </trkpt>
      <trkpt lat="47.77283" lon="-3.55182">
        <ele>38</ele>
        <time>2019-07-17T16:53:23Z</time>
      </trkpt>
      <trkpt lat="47.7728" lon="-3.55179">
        <ele>38</ele>
        <time>2019-07-17T16:53:24Z</time>
      </trkpt>
      <trkpt lat="47.77279" lon="-3.55177">
        <ele>38</ele>
        <time>2019-07-17T16:53:25Z</time>
      </trkpt>
      <trkpt lat="47.77279" lon="-3.55174">
        <ele>38</ele>
        <time>2019-07-17T16:53:26Z</time>
      </trkpt>
      <trkpt lat="47.77279" lon="-3.55172">
        <ele>38</ele>
        <time>2019-07-17T16:53:27Z</time>
      </trkpt>
      <trkpt lat="47.77278" lon="-3.5517">
        <ele>37</ele>
        <time>2019-07-17T16:53:28Z</time>
      </trkpt>
      <trkpt lat="47.77279" lon="-3.55167">
        <ele>37</ele>
        <time>2019-07-17T16:53:29Z</time>
      </trkpt>
      <trkpt lat="47.77279" lon="-3.55163">
        <ele>37</ele>
        <time>2019-07-17T16:53:30Z</time>
      </trkpt>
      <trkpt lat="47.77279" lon="-3.55158">
        <ele>37</ele>
        <time>2019-07-17T16:53:31Z</time>
      </trkpt>
      <trkpt lat="47.77279" lon="-3.55153">
        <ele>37</ele>
        <time>2019-07-17T16:53:32Z</time>
      </trkpt>
      <trkpt lat="47.77279" lon="-3.55147">
        <ele>36</ele>
        <time>2019-07-17T16:53:33Z</time>
      </trkpt>
      <trkpt lat="47.77279" lon="-3.5514">
        <ele>36</ele>
        <time>2019-07-17T16:53:34Z</time>
      </trkpt>
      <trkpt lat="47.77279" lon="-3.55133">
        <ele>36</ele>
        <time>2019-07-17T16:53:35Z</time>
      </trkpt>
      <trkpt lat="47.77279" lon="-3.55125">
        <ele>36</ele>
        <time>2019-07-17T16:53:36Z</time>
      </trkpt>
      <trkpt lat="47.7728" lon="-3.55118">
        <ele>36</ele>
        <time>2019-07-17T16:53:37Z</time>
      </trkpt>
      <trkpt lat="47.7728" lon="-3.5511">
        <ele>35</ele>
        <time>2019-07-17T16:53:38Z</time>
      </trkpt>
      <trkpt lat="47.7728" lon="-3.55101">
        <ele>35</ele>
        <time>2019-07-17T16:53:39Z</time>
      </trkpt>
      <trkpt lat="47.77282" lon="-3.55094">
        <ele>35</ele>
        <time>2019-07-17T16:53:40Z</time>
      </trkpt>
      <trkpt lat="47.77282" lon="-3.55088">
        <ele>35</ele>
        <time>2019-07-17T16:53:41Z</time>
      </trkpt>
      <trkpt lat="47.77282" lon="-3.55085">
        <ele>34</ele>
        <time>2019-07-17T16:53:42Z</time>
      </trkpt>
      <trkpt lat="47.7728" lon="-3.55085">
        <ele>34</ele>
        <time>2019-07-17T16:53:43Z</time>
      </trkpt>
      <trkpt lat="47.77278" lon="-3.55087">
        <ele>34</ele>
        <time>2019-07-17T16:53:44Z</time>
      </trkpt>
      <trkpt lat="47.77277" lon="-3.55091">
        <ele>34</ele>
        <time>2019-07-17T16:53:45Z</time>
      </trkpt>
      <trkpt lat="47.77277" lon="-3.55095">
        <ele>34</ele>
        <time>2019-07-17T16:53:46Z</time>
      </trkpt>
      <trkpt lat="47.77277" lon="-3.551">
        <ele>34</ele>
        <time>2019-07-17T16:53:47Z</time>
      </trkpt>
      <trkpt lat="47.77276" lon="-3.55103">
        <ele>34</ele>
        <time>2019-07-17T16:53:48Z</time>
      </trkpt>
      <trkpt lat="47.77274" lon="-3.55104">
        <ele>34</ele>
        <time>2019-07-17T16:53:49Z</time>
      </trkpt>
      <trkpt lat="47.77272" lon="-3.55104">
        <ele>34</ele>
        <time>2019-07-17T16:53:50Z</time>
      </trkpt>
      <trkpt lat="47.77271" lon="-3.55104">
        <ele>34</ele>
        <time>2019-07-17T16:53:51Z</time>
      </trkpt>
      <trkpt lat="47.7727" lon="-3.55104">
        <ele>34</ele>
        <time>2019-07-17T16:53:52Z</time>
      </trkpt>
      <trkpt lat="47.7727" lon="-3.55104">
        <ele>34</ele>
        <time>2019-07-17T16:53:53Z</time>
      </trkpt>
    </trkseg>
  </trk>
  <trk>
    <name><![CDATA[chemin cotier]]></name>
    <trkseg>
      <trkpt lat="47.772" lon="-3.55076">
        <ele>31</ele>
        <time>2018-07-18T09:12:30Z</time>
      </trkpt>
      <trkpt lat="47.77195" lon="-3.55072">
        <ele>30</ele>
        <time>2018-07-18T09:12:31Z</time>
      </trkpt>
      <trkpt lat="47.77191" lon="-3.55068">
        <ele>30</ele>
        <time>2018-07-18T09:12:32Z</time>
      </trkpt>
      <trkpt lat="47.77188" lon="-3.55064">
        <ele>30</ele>
        <time>2018-07-18T09:12:33Z</time>
      </trkpt>
      <trkpt lat="47.77185" lon="-3.55062">
        <ele>29</ele>
        <time>2018-07-18T09:12:34Z</time>
      </trkpt>
      <trkpt lat="47.77182" lon="-3.55062">
        <ele>28</ele>
        <time>2018-07-18T09:12:35Z</time>
      </trkpt>
      <trkpt lat="47.77178" lon="-3.55062">
        <ele>28</ele>
        <time>2018-07-18T09:12:36Z</time>
      </trkpt>
      <trkpt lat="47.77175" lon="-3.55064">
        <ele>27</ele>
        <time>2018-07-18T09:12:37Z</time>
      </trkpt>
      <trkpt lat="47.77172" lon="-3.55065">
        <ele>27</ele>
        <time>2018-07-18T09:12:38Z</time>
      </trkpt>
      <trkpt lat="47.77171" lon="-3.55069">
        <ele>27</ele>
        <time>2018-07-18T09:12:39Z</time>
      </trkpt>
      <trkpt lat="47.77169" lon="-3.55073">
        <ele>27</ele>
        <time>2018-07-18T09:12:40Z</time>
      </trkpt>
      <trkpt lat="47.77167" lon="-3.55078">
        <ele>28</ele>
        <time>2018-07-18T09:12:41Z</time>
      </trkpt>
      <trkpt lat="47.77165" lon="-3.55082">
        <ele>28</ele>
        <time>2018-07-18T09:12:42Z</time>
      </trkpt>
      <trkpt lat="47.77163" lon="-3.55086">
        <ele>28</ele>
        <time>2018-07-18T09:12:43Z</time>
      </trkpt>
      <trkpt lat="47.77161" lon="-3.55091">
        <ele>28</ele>
        <time>2018-07-18T09:12:44Z</time>
      </trkpt>
      <trkpt lat="47.77158" lon="-3.55096">
        <ele>29</ele>
        <time>2018-07-18T09:12:45Z</time>
      </trkpt>
      <trkpt lat="47.77155" lon="-3.55101">
        <ele>29</ele>
        <time>2018-07-18T09:12:46Z</time>
      </trkpt>
      <trkpt lat="47.77153" lon="-3.55105">
        <ele>29</ele>
        <time>2018-07-18T09:12:47Z</time>
      </trkpt>
      <trkpt lat="47.77151" lon="-3.55108">
        <ele>29</ele>
        <time>2018-07-18T09:12:48Z</time>
      </trkpt>
      <trkpt lat="47.77149" lon="-3.55111">
        <ele>29</ele>
        <time>2018-07-18T09:12:49Z</time>
      </trkpt>
      <trkpt lat="47.77147" lon="-3.55113">
        <ele>29</ele>
        <time>2018-07-18T09:12:50Z</time>
      </trkpt>
      <trkpt lat="47.77146" lon="-3.55114">
        <ele>29</ele>
        <time>2018-07-18T09:12:51Z</time>
      </trkpt>
      <trkpt lat="47.77146" lon="-3.55113">
        <ele>29</ele>
        <time>2018-07-18T09:12:52Z</time>
      </trkpt>
      <trkpt lat="47.77146" lon="-3.55112">
        <ele>29</ele>
        <time>2018-07-18T09:12:53Z</time>
      </trkpt>
      <trkpt lat="47.77146" lon="-3.55109">
        <ele>29</ele>
        <time>2018-07-18T09:12:54Z</time>
      </trkpt>
      <trkpt lat="47.77148" lon="-3.55107">
        <ele>29</ele>
        <time>2018-07-18T09:12:55Z</time>
      </trkpt>
      <trkpt lat="47.7715" lon="-3.55104">
        <ele>28</ele>
        <time>2018-07-18T09:12:56Z</time>
      </trkpt>
      <trkpt lat="47.77153" lon="-3.55101">
        <ele>28</ele>
        <time>2018-07-18T09:12:57Z</time>
      </trkpt>
      <trkpt lat="47.77156" lon="-3.55098">
        <ele>28</ele>
        <time>2018-07-18T09:12:58Z</time>
      </trkpt>
      <trkpt lat="47.77158" lon="-3.55094">
        <ele>28</ele>
        <time>2018-07-18T09:12:59Z</time>
      </trkpt>
      <trkpt lat="47.77162" lon="-3.55091">
        <ele>28</ele>
        <time>2018-07-18T09:13:00Z</time>
      </trkpt>
      <trkpt lat="47.77165" lon="-3.55087">
        <ele>28</ele>
        <time>2018-07-18T09:13:01Z</time>
      </trkpt>
      <trkpt lat="47.77168" lon="-3.55083">
        <ele>29</ele>
        <time>2018-07-18T09:13:02Z</time>
      </trkpt>
      <trkpt lat="47.77171" lon="-3.55078">
        <ele>29</ele>
        <time>2018-07-18T09:13:03Z</time>
      </trkpt>
      <trkpt lat="47.77173" lon="-3.55074">
        <ele>29</ele>
        <time>2018-07-18T09:13:04Z</time>
      </trkpt>
      <trkpt lat="47.77176" lon="-3.5507">
        <ele>29</ele>
        <time>2018-07-18T09:13:05Z</time>
      </trkpt>
      <trkpt lat="47.77179" lon="-3.55067">
        <ele>29</ele>
        <time>2018-07-18T09:13:06Z</time>
      </trkpt>
      <trkpt lat="47.77182" lon="-3.55065">
        <ele>29</ele>
        <time>2018-07-18T09:13:07Z</time>
      </trkpt>
      <trkpt lat="47.77185" lon="-3.55064">
        <ele>28</ele>
        <time>2018-07-18T09:13:08Z</time>
      </trkpt>
      <trkpt lat="47.77188" lon="-3.55063">
        <ele>28</ele>
        <time>2018-07-18T09:13:09Z</time>
      </trkpt>
      <trkpt lat="47.77191" lon="-3.55064">
        <ele>28</ele>
        <time>2018-07-18T09:13:10Z</time>
      </trkpt>
      <trkpt lat="47.77194" lon="-3.55067">
        <ele>28</ele>
        <time>2018-07-18T09:13:11Z</time>
      </trkpt>
      <trkpt lat="47.77197" lon="-3.55071">
        <ele>28</ele>
        <time>2018-07-18T09:13:12Z</time>
      </trkpt>
      <trkpt lat="47.77201" lon="-3.55076">
        <ele>28</ele>
        <time>2018-07-18T09:13:13Z</time>
      </trkpt>
      <trkpt lat="47.77204" lon="-3.55079">
        <ele>28</ele>
        <time>2018-07-18T09:13:14Z</time>
      </trkpt>
      <trkpt lat="47.77207" lon="-3.55083">
        <ele>29</ele>
        <time>2018-07-18T09:13:15Z</time>
      </trkpt>
      <trkpt lat="47.77211" lon="-3.55085">
        <ele>29</ele>
        <time>2018-07-18T09:13:16Z</time>
      </trkpt>
      <trkpt lat="47.77215" lon="-3.55088">
        <ele>29</ele>
        <time>2018-07-18T09:13:17Z</time>
      </trkpt>
      <trkpt lat="47.77218" lon="-3.55091">
        <ele>29</ele>
        <time>2018-07-18T09:13:18Z</time>
      </trkpt>
      <trkpt lat="47.77222" lon="-3.55093">
        <ele>29</ele>
        <time>2018-07-18T09:13:19Z</time>
      </trkpt>
      <trkpt lat="47.77225" lon="-3.55096">
        <ele>29</ele>
        <time>2018-07-18T09:13:20Z</time>
      </trkpt>
      <trkpt lat="47.77229" lon="-3.55098">
        <ele>29</ele>
        <time>2018-07-18T09:13:21Z</time>
      </trkpt>
      <trkpt lat="47.77232" lon="-3.551">
        <ele>30</ele>
        <time>2018-07-18T09:13:22Z</time>
      </trkpt>
      <trkpt lat="47.77236" lon="-3.55102">
        <ele>30</ele>
        <time>2018-07-18T09:13:23Z</time>
      </trkpt>
      <trkpt lat="47.7724" lon="-3.55104">
        <ele>30</ele>
        <time>2018-07-18T09:13:24Z</time>
      </trkpt>
      <trkpt lat="47.77244" lon="-3.55106">
        <ele>30</ele>
        <time>2018-07-18T09:13:25Z</time>
      </trkpt>
      <trkpt lat="47.77247" lon="-3.55108">
        <ele>30</ele>
        <time>2018-07-18T09:13:26Z</time>
      </trkpt>
      <trkpt lat="47.77251" lon="-3.55109">
        <ele>30</ele>
        <time>2018-07-18T09:13:27Z</time>
      </trkpt>
      <trkpt lat="47.77254" lon="-3.55111">
        <ele>30</ele>
        <time>2018-07-18T09:13:28Z</time>
      </trkpt>
      <trkpt lat="47.77257" lon="-3.55112">
        <ele>31</ele>
        <time>2018-07-18T09:13:29Z</time>
      </trkpt>
      <trkpt lat="47.7726" lon="-3.55113">
        <ele>31</ele>
        <time>2018-07-18T09:13:30Z</time>
      </trkpt>
      <trkpt lat="47.77264" lon="-3.55114">
        <ele>31</ele>
        <time>2018-07-18T09:13:31Z</time>
      </trkpt>
      <trkpt lat="47.77267" lon="-3.55117">
        <ele>31</ele>
        <time>2018-07-18T09:13:32Z</time>
      </trkpt>
      <trkpt lat="47.7727" lon="-3.55119">
        <ele>31</ele>
        <time>2018-07-18T09:13:33Z</time>
      </trkpt>
      <trkpt lat="47.77273" lon="-3.55122">
        <ele>32</ele>
        <time>2018-07-18T09:13:34Z</time>
      </trkpt>
      <trkpt lat="47.77274" lon="-3.55125">
        <ele>32</ele>
        <time>2018-07-18T09:13:35Z</time>
      </trkpt>
      <trkpt lat="47.77275" lon="-3.55128">
        <ele>32</ele>
        <time>2018-07-18T09:13:36Z</time>
      </trkpt>
      <trkpt lat="47.77276" lon="-3.55133">
        <ele>32</ele>
        <time>2018-07-18T09:13:37Z</time>
      </trkpt>
      <trkpt lat="47.77275" lon="-3.55139">
        <ele>32</ele>
        <time>2018-07-18T09:13:38Z</time>
      </trkpt>
      <trkpt lat="47.77274" lon="-3.55145">
        <ele>32</ele>
        <time>2018-07-18T09:13:39Z</time>
      </trkpt>
      <trkpt lat="47.77273" lon="-3.55151">
        <ele>32</ele>
        <time>2018-07-18T09:13:40Z</time>
      </trkpt>
      <trkpt lat="47.77273" lon="-3.55156">
        <ele>32</ele>
        <time>2018-07-18T09:13:41Z</time>
      </trkpt>
      <trkpt lat="47.77272" lon="-3.55161">
        <ele>31</ele>
        <time>2018-07-18T09:13:42Z</time>
      </trkpt>
      <trkpt lat="47.77272" lon="-3.55165">
        <ele>32</ele>
        <time>2018-07-18T09:13:43Z</time>
      </trkpt>
      <trkpt lat="47.77271" lon="-3.55169">
        <ele>31</ele>
        <time>2018-07-18T09:13:44Z</time>
      </trkpt>
      <trkpt lat="47.77271" lon="-3.55171">
        <ele>31</ele>
        <time>2018-07-18T09:13:45Z</time>
      </trkpt>
      <trkpt lat="47.77271" lon="-3.55173">
        <ele>31</ele>
        <time>2018-07-18T09:13:46Z</time>
      </trkpt>
      <trkpt lat="47.7727" lon="-3.55174">
        <ele>32</ele>
        <time>2018-07-18T09:13:47Z</time>
      </trkpt>
      <trkpt lat="47.77269" lon="-3.55175">
        <ele>32</ele>
        <time>2018-07-18T09:13:48Z</time>
      </trkpt>
      <trkpt lat="47.77267" lon="-3.55173">
        <ele>33</ele>
        <time>2018-07-18T09:13:49Z</time>
      </trkpt>
      <trkpt lat="47.77265" lon="-3.55173">
        <ele>33</ele>
        <time>2018-07-18T09:13:50Z</time>
      </trkpt>
      <trkpt lat="47.77263" lon="-3.55171">
        <ele>33</ele>
        <time>2018-07-18T09:13:51Z</time>
      </trkpt>
      <trkpt lat="47.7726" lon="-3.5517">
        <ele>34</ele>
        <time>2018-07-18T09:13:52Z</time>
      </trkpt>
      <trkpt lat="47.77258" lon="-3.5517">
        <ele>34</ele>
        <time>2018-07-18T09:13:53Z</time>
      </trkpt>
      <trkpt lat="47.77255" lon="-3.55168">
        <ele>34</ele>
        <time>2018-07-18T09:13:54Z</time>
      </trkpt>
      <trkpt lat="47.77252" lon="-3.55166">
        <ele>34</ele>
        <time>2018-07-18T09:13:55Z</time>
      </trkpt>
      <trkpt lat="47.77248" lon="-3.55164">
        <ele>34</ele>
        <time>2018-07-18T09:13:56Z</time>
      </trkpt>
      <trkpt lat="47.77245" lon="-3.55161">
        <ele>34</ele>
        <time>2018-07-18T09:13:57Z</time>
      </trkpt>
      <trkpt lat="47.77241" lon="-3.55159">
        <ele>34</ele>
        <time>2018-07-18T09:13:58Z</time>
      </trkpt>
      <trkpt lat="47.77237" lon="-3.55156">
        <ele>34</ele>
        <time>2018-07-18T09:13:59Z</time>
      </trkpt>
      <trkpt lat="47.77234" lon="-3.55154">
        <ele>34</ele>
        <time>2018-07-18T09:14:00Z</time>
      </trkpt>
      <trkpt lat="47.77229" lon="-3.55151">
        <ele>34</ele>
        <time>2018-07-18T09:14:01Z</time>
      </trkpt>
      <trkpt lat="47.77225" lon="-3.55148">
        <ele>34</ele>
        <time>2018-07-18T09:14:02Z</time>
      </trkpt>
      <trkpt lat="47.7722" lon="-3.55146">
        <ele>34</ele>
        <time>2018-07-18T09:14:03Z</time>
      </trkpt>
      <trkpt lat="47.77214" lon="-3.55144">
        <ele>34</ele>
        <time>2018-07-18T09:14:04Z</time>
      </trkpt>
      <trkpt lat="47.77208" lon="-3.55141">
        <ele>35</ele>
        <time>2018-07-18T09:14:05Z</time>
      </trkpt>
      <trkpt lat="47.772" lon="-3.55139">
        <ele>35</ele>
        <time>2018-07-18T09:14:06Z</time>
      </trkpt>
      <trkpt lat="47.77193" lon="-3.55138">
        <ele>35</ele>
        <time>2018-07-18T09:14:07Z</time>
      </trkpt>
      <trkpt lat="47.77185" lon="-3.55136">
        <ele>34</ele>
        <time>2018-07-18T09:14:08Z</time>
      </trkpt>
      <trkpt lat="47.77178" lon="-3.55133">
        <ele>34</ele>
        <time>2018-07-18T09:14:09Z</time>
      </trkpt>
      <trkpt lat="47.7717" lon="-3.55131">
        <ele>34</ele>
        <time>2018-07-18T09:14:10Z</time>
      </trkpt>
      <trkpt lat="47.77162" lon="-3.55128">
        <ele>34</ele>
        <time>2018-07-18T09:14:11Z</time>
      </trkpt>
      <trkpt lat="47.77155" lon="-3.55126">
        <ele>34</ele>
        <time>2018-07-18T09:14:12Z</time>
      </trkpt>
      <trkpt lat="47.77146" lon="-3.55125">
        <ele>34</ele>
        <time>2018-07-18T09:14:13Z</time>
      </trkpt>
      <trkpt lat="47.77137" lon="-3.55123">
        <ele>33</ele>
        <time>2018-07-18T09:14:14Z</time>
      </trkpt>
      <trkpt lat="47.77127" lon="-3.55122">
        <ele>33</ele>
        <time>2018-07-18T09:14:15Z</time>
      </trkpt>
      <trkpt lat="47.77117" lon="-3.55121">
        <ele>33</ele>
        <time>2018-07-18T09:14:16Z</time>
      </trkpt>
      <trkpt lat="47.77107" lon="-3.55119">
        <ele>33</ele>
        <time>2018-07-18T09:14:17Z</time>
      </trkpt>
      <trkpt lat="47.77097" lon="-3.55119">
        <ele>33</ele>
        <time>2018-07-18T09:14:18Z</time>
      </trkpt>
      <trkpt lat="47.77088" lon="-3.55121">
        <ele>32</ele>
        <time>2018-07-18T09:14:19Z</time>
      </trkpt>
      <trkpt lat="47.77079" lon="-3.55123">
        <ele>32</ele>
        <time>2018-07-18T09:14:20Z</time>
      </trkpt>
      <trkpt lat="47.77071" lon="-3.55125">
        <ele>32</ele>
        <time>2018-07-18T09:14:21Z</time>
      </trkpt>
      <trkpt lat="47.77062" lon="-3.55126">
        <ele>32</ele>
        <time>2018-07-18T09:14:22Z</time>
      </trkpt>
      <trkpt lat="47.77053" lon="-3.55127">
        <ele>32</ele>
        <time>2018-07-18T09:14:23Z</time>
      </trkpt>
      <trkpt lat="47.77043" lon="-3.55127">
        <ele>31</ele>
        <time>2018-07-18T09:14:24Z</time>
      </trkpt>
      <trkpt lat="47.77034" lon="-3.55124">
        <ele>30</ele>
        <time>2018-07-18T09:14:25Z</time>
      </trkpt>
      <trkpt lat="47.77025" lon="-3.55121">
        <ele>29</ele>
        <time>2018-07-18T09:14:26Z</time>
      </trkpt>
      <trkpt lat="47.77017" lon="-3.5512">
        <ele>27</ele>
        <time>2018-07-18T09:14:27Z</time>
      </trkpt>
      <trkpt lat="47.77009" lon="-3.55117">
        <ele>27</ele>
        <time>2018-07-18T09:14:28Z</time>
      </trkpt>
      <trkpt lat="47.77" lon="-3.55114">
        <ele>27</ele>
        <time>2018-07-18T09:14:29Z</time>
      </trkpt>
      <trkpt lat="47.76993" lon="-3.55111">
        <ele>26</ele>
        <time>2018-07-18T09:14:30Z</time>
      </trkpt>
      <trkpt lat="47.76986" lon="-3.5511">
        <ele>25</ele>
        <time>2018-07-18T09:14:31Z</time>
      </trkpt>
      <trkpt lat="47.76979" lon="-3.55107">
        <ele>25</ele>
        <time>2018-07-18T09:14:32Z</time>
      </trkpt>
      <trkpt lat="47.76972" lon="-3.55104">
        <ele>25</ele>
        <time>2018-07-18T09:14:33Z</time>
      </trkpt>
      <trkpt lat="47.76964" lon="-3.551">
        <ele>24</ele>
        <time>2018-07-18T09:14:34Z</time>
      </trkpt>
      <trkpt lat="47.76957" lon="-3.55095">
        <ele>23</ele>
        <time>2018-07-18T09:14:35Z</time>
      </trkpt>
      <trkpt lat="47.76951" lon="-3.55091">
        <ele>23</ele>
        <time>2018-07-18T09:14:36Z</time>
      </trkpt>
      <trkpt lat="47.76944" lon="-3.55088">
        <ele>23</ele>
        <time>2018-07-18T09:14:37Z</time>
      </trkpt>
      <trkpt lat="47.76936" lon="-3.55086">
        <ele>22</ele>
        <time>2018-07-18T09:14:38Z</time>
      </trkpt>
      <trkpt lat="47.76929" lon="-3.55086">
        <ele>22</ele>
        <time>2018-07-18T09:14:39Z</time>
      </trkpt>
      <trkpt lat="47.76921" lon="-3.55088">
        <ele>22</ele>
        <time>2018-07-18T09:14:40Z</time>
      </trkpt>
      <trkpt lat="47.76913" lon="-3.55093">
        <ele>21</ele>
        <time>2018-07-18T09:14:41Z</time>
      </trkpt>
      <trkpt lat="47.76906" lon="-3.551">
        <ele>20</ele>
        <time>2018-07-18T09:14:42Z</time>
      </trkpt>
      <trkpt lat="47.76899" lon="-3.55109">
        <ele>19</ele>
        <time>2018-07-18T09:14:43Z</time>
      </trkpt>
      <trkpt lat="47.76893" lon="-3.55118">
        <ele>18</ele>
        <time>2018-07-18T09:14:44Z</time>
      </trkpt>
      <trkpt lat="47.76888" lon="-3.55129">
        <ele>17</ele>
        <time>2018-07-18T09:14:45Z</time>
      </trkpt>
      <trkpt lat="47.76883" lon="-3.5514">
        <ele>17</ele>
        <time>2018-07-18T09:14:46Z</time>
      </trkpt>
      <trkpt lat="47.76879" lon="-3.55151">
        <ele>16</ele>
        <time>2018-07-18T09:14:47Z</time>
      </trkpt>
      <trkpt lat="47.76874" lon="-3.55163">
        <ele>15</ele>
        <time>2018-07-18T09:14:48Z</time>
      </trkpt>
      <trkpt lat="47.7687" lon="-3.55174">
        <ele>14</ele>
        <time>2018-07-18T09:14:49Z</time>
      </trkpt>
      <trkpt lat="47.76866" lon="-3.55184">
        <ele>14</ele>
        <time>2018-07-18T09:14:50Z</time>
      </trkpt>
      <trkpt lat="47.76862" lon="-3.55194">
        <ele>13</ele>
        <time>2018-07-18T09:14:51Z</time>
      </trkpt>
      <trkpt lat="47.7686" lon="-3.55204">
        <ele>12</ele>
        <time>2018-07-18T09:14:52Z</time>
      </trkpt>
      <trkpt lat="47.76859" lon="-3.55214">
        <ele>12</ele>
        <time>2018-07-18T09:14:53Z</time>
      </trkpt>
      <trkpt lat="47.76858" lon="-3.55223">
        <ele>12</ele>
        <time>2018-07-18T09:14:54Z</time>
      </trkpt>
      <trkpt lat="47.76855" lon="-3.55231">
        <ele>11</ele>
        <time>2018-07-18T09:14:55Z</time>
      </trkpt>
      <trkpt lat="47.76852" lon="-3.55237">
        <ele>11</ele>
        <time>2018-07-18T09:14:56Z</time>
      </trkpt>
      <trkpt lat="47.76848" lon="-3.55243">
        <ele>11</ele>
        <time>2018-07-18T09:14:57Z</time>
      </trkpt>
      <trkpt lat="47.76844" lon="-3.55249">
        <ele>11</ele>
        <time>2018-07-18T09:14:58Z</time>
      </trkpt>
      <trkpt lat="47.7684" lon="-3.55255">
        <ele>11</ele>
        <time>2018-07-18T09:14:59Z</time>
      </trkpt>
      <trkpt lat="47.76837" lon="-3.55263">
        <ele>10</ele>
        <time>2018-07-18T09:15:00Z</time>
      </trkpt>
      <trkpt lat="47.76835" lon="-3.55271">
        <ele>10</ele>
        <time>2018-07-18T09:15:01Z</time>
      </trkpt>
      <trkpt lat="47.76836" lon="-3.55279">
        <ele>10</ele>
        <time>2018-07-18T09:15:02Z</time>
      </trkpt>
      <trkpt lat="47.76836" lon="-3.55287">
        <ele>10</ele>
        <time>2018-07-18T09:15:03Z</time>
      </trkpt>
      <trkpt lat="47.76836" lon="-3.55294">
        <ele>9</ele>
        <time>2018-07-18T09:15:04Z</time>
      </trkpt>
      <trkpt lat="47.76835" lon="-3.55302">
        <ele>9</ele>
        <time>2018-07-18T09:15:05Z</time>
      </trkpt>
      <trkpt lat="47.76834" lon="-3.55309">
        <ele>9</ele>
        <time>2018-07-18T09:15:06Z</time>
      </trkpt>
      <trkpt lat="47.76834" lon="-3.55316">
        <ele>9</ele>
        <time>2018-07-18T09:15:07Z</time>
      </trkpt>
      <trkpt lat="47.76834" lon="-3.55324">
        <ele>9</ele>
        <time>2018-07-18T09:15:08Z</time>
      </trkpt>
      <trkpt lat="47.76833" lon="-3.55331">
        <ele>9</ele>
        <time>2018-07-18T09:15:09Z</time>
      </trkpt>
      <trkpt lat="47.76833" lon="-3.55338">
        <ele>9</ele>
        <time>2018-07-18T09:15:10Z</time>
      </trkpt>
      <trkpt lat="47.76834" lon="-3.55346">
        <ele>9</ele>
        <time>2018-07-18T09:15:11Z</time>
      </trkpt>
      <trkpt lat="47.76834" lon="-3.55353">
        <ele>9</ele>
        <time>2018-07-18T09:15:12Z</time>
      </trkpt>
      <trkpt lat="47.76834" lon="-3.55359">
        <ele>9</ele>
        <time>2018-07-18T09:15:13Z</time>
      </trkpt>
      <trkpt lat="47.76833" lon="-3.55364">
        <ele>9</ele>
        <time>2018-07-18T09:15:14Z</time>
      </trkpt>
      <trkpt lat="47.7683" lon="-3.55368">
        <ele>9</ele>
        <time>2018-07-18T09:15:15Z</time>
      </trkpt>
      <trkpt lat="47.76827" lon="-3.55372">
        <ele>9</ele>
        <time>2018-07-18T09:15:16Z</time>
      </trkpt>
      <trkpt lat="47.76824" lon="-3.55376">
        <ele>9</ele>
        <time>2018-07-18T09:15:17Z</time>
      </trkpt>
      <trkpt lat="47.7682" lon="-3.55381">
        <ele>9</ele>
        <time>2018-07-18T09:15:18Z</time>
      </trkpt>
      <trkpt lat="47.76816" lon="-3.55386">
        <ele>9</ele>
        <time>2018-07-18T09:15:19Z</time>
      </trkpt>
      <trkpt lat="47.76812" lon="-3.55391">
        <ele>9</ele>
        <time>2018-07-18T09:15:20Z</time>
      </trkpt>
      <trkpt lat="47.76808" lon="-3.55396">
        <ele>9</ele>
        <time>2018-07-18T09:15:21Z</time>
      </trkpt>
      <trkpt lat="47.76803" lon="-3.554">
        <ele>9</ele>
        <time>2018-07-18T09:15:22Z</time>
      </trkpt>
      <trkpt lat="47.76799" lon="-3.55404">
        <ele>9</ele>
        <time>2018-07-18T09:15:23Z</time>
      </trkpt>
      <trkpt lat="47.76794" lon="-3.55409">
        <ele>9</ele>
        <time>2018-07-18T09:15:24Z</time>
      </trkpt>
      <trkpt lat="47.7679" lon="-3.55413">
        <ele>9</ele>
        <time>2018-07-18T09:15:25Z</time>
      </trkpt>
      <trkpt lat="47.76786" lon="-3.55417">
        <ele>9</ele>
        <time>2018-07-18T09:15:26Z</time>
      </trkpt>
      <trkpt lat="47.76781" lon="-3.55421">
        <ele>9</ele>
        <time>2018-07-18T09:15:27Z</time>
      </trkpt>
      <trkpt lat="47.76777" lon="-3.55426">
        <ele>9</ele>
        <time>2018-07-18T09:15:28Z</time>
      </trkpt>
      <trkpt lat="47.76772" lon="-3.55431">
        <ele>9</ele>
        <time>2018-07-18T09:15:29Z</time>
      </trkpt>
      <trkpt lat="47.76768" lon="-3.55436">
        <ele>9</ele>
        <time>2018-07-18T09:15:30Z</time>
      </trkpt>
      <trkpt lat="47.76763" lon="-3.55441">
        <ele>9</ele>
        <time>2018-07-18T09:15:31Z</time>
      </trkpt>
      <trkpt lat="47.76758" lon="-3.55446">
        <ele>9</ele>
        <time>2018-07-18T09:15:32Z</time>
      </trkpt>
      <trkpt lat="47.76754" lon="-3.5545">
        <ele>9</ele>
        <time>2018-07-18T09:15:33Z</time>
      </trkpt>
      <trkpt lat="47.76749" lon="-3.55454">
        <ele>9</ele>
        <time>2018-07-18T09:15:34Z</time>
      </trkpt>
      <trkpt lat="47.76745" lon="-3.55457">
        <ele>9</ele>
        <time>2018-07-18T09:15:35Z</time>
      </trkpt>
      <trkpt lat="47.7674" lon="-3.5546">
        <ele>9</ele>
        <time>2018-07-18T09:15:36Z</time>
      </trkpt>
      <trkpt lat="47.76736" lon="-3.55463">
        <ele>8</ele>
        <time>2018-07-18T09:15:37Z</time>
      </trkpt>
      <trkpt lat="47.76732" lon="-3.55466">
        <ele>8</ele>
        <time>2018-07-18T09:15:38Z</time>
      </trkpt>
      <trkpt lat="47.76729" lon="-3.55469">
        <ele>8</ele>
        <time>2018-07-18T09:15:39Z</time>
      </trkpt>
      <trkpt lat="47.76725" lon="-3.55472">
        <ele>8</ele>
        <time>2018-07-18T09:15:40Z</time>
      </trkpt>
      <trkpt lat="47.76721" lon="-3.55475">
        <ele>8</ele>
        <time>2018-07-18T09:15:41Z</time>
      </trkpt>
      <trkpt lat="47.76717" lon="-3.55478">
        <ele>8</ele>
        <time>2018-07-18T09:15:42Z</time>
      </trkpt>
      <trkpt lat="47.76713" lon="-3.55481">
        <ele>8</ele>
        <time>2018-07-18T09:15:43Z</time>
      </trkpt>
      <trkpt lat="47.76706" lon="-3.55487">
        <ele>8</ele>
        <time>2018-07-18T09:15:44Z</time>
      </trkpt>
      <trkpt lat="47.76702" lon="-3.5549">
        <ele>8</ele>
        <time>2018-07-18T09:15:45Z</time>
      </trkpt>
      <trkpt lat="47.76698" lon="-3.55494">
        <ele>8</ele>
        <time>2018-07-18T09:15:46Z</time>
      </trkpt>
      <trkpt lat="47.76693" lon="-3.55496">
        <ele>8</ele>
        <time>2018-07-18T09:15:47Z</time>
      </trkpt>
      <trkpt lat="47.76689" lon="-3.55499">
        <ele>8</ele>
        <time>2018-07-18T09:15:48Z</time>
      </trkpt>
      <trkpt lat="47.76686" lon="-3.55502">
        <ele>8</ele>
        <time>2018-07-18T09:15:49Z</time>
      </trkpt>
      <trkpt lat="47.76683" lon="-3.55506">
        <ele>8</ele>
        <time>2018-07-18T09:15:50Z</time>
      </trkpt>
      <trkpt lat="47.76682" lon="-3.55509">
        <ele>8</ele>
        <time>2018-07-18T09:15:51Z</time>
      </trkpt>
      <trkpt lat="47.76682" lon="-3.55512">
        <ele>8</ele>
        <time>2018-07-18T09:15:52Z</time>
      </trkpt>
      <trkpt lat="47.76682" lon="-3.55515">
        <ele>8</ele>
        <time>2018-07-18T09:15:53Z</time>
      </trkpt>
      <trkpt lat="47.76683" lon="-3.55518">
        <ele>8</ele>
        <time>2018-07-18T09:15:54Z</time>
      </trkpt>
      <trkpt lat="47.76685" lon="-3.55523">
        <ele>8</ele>
        <time>2018-07-18T09:15:55Z</time>
      </trkpt>
      <trkpt lat="47.76687" lon="-3.55528">
        <ele>8</ele>
        <time>2018-07-18T09:15:56Z</time>
      </trkpt>
      <trkpt lat="47.76689" lon="-3.55533">
        <ele>8</ele>
        <time>2018-07-18T09:15:57Z</time>
      </trkpt>
      <trkpt lat="47.76691" lon="-3.55539">
        <ele>8</ele>
        <time>2018-07-18T09:15:58Z</time>
      </trkpt>
      <trkpt lat="47.76693" lon="-3.55545">
        <ele>8</ele>
        <time>2018-07-18T09:15:59Z</time>
      </trkpt>
      <trkpt lat="47.76696" lon="-3.55552">
        <ele>7</ele>
        <time>2018-07-18T09:16:00Z</time>
      </trkpt>
      <trkpt lat="47.76698" lon="-3.55558">
        <ele>7</ele>
        <time>2018-07-18T09:16:01Z</time>
      </trkpt>
      <trkpt lat="47.76701" lon="-3.55565">
        <ele>7</ele>
        <time>2018-07-18T09:16:02Z</time>
      </trkpt>
      <trkpt lat="47.76703" lon="-3.55571">
        <ele>7</ele>
        <time>2018-07-18T09:16:03Z</time>
      </trkpt>
      <trkpt lat="47.76705" lon="-3.55578">
        <ele>7</ele>
        <time>2018-07-18T09:16:04Z</time>
      </trkpt>
      <trkpt lat="47.76708" lon="-3.55585">
        <ele>7</ele>
        <time>2018-07-18T09:16:05Z</time>
      </trkpt>
      <trkpt lat="47.7671" lon="-3.55591">
        <ele>7</ele>
        <time>2018-07-18T09:16:06Z</time>
      </trkpt>
      <trkpt lat="47.76712" lon="-3.55598">
        <ele>7</ele>
        <time>2018-07-18T09:16:07Z</time>
      </trkpt>
      <trkpt lat="47.76713" lon="-3.55604">
        <ele>7</ele>
        <time>2018-07-18T09:16:08Z</time>
      </trkpt>
      <trkpt lat="47.76715" lon="-3.5561">
        <ele>7</ele>
        <time>2018-07-18T09:16:09Z</time>
      </trkpt>
      <trkpt lat="47.76716" lon="-3.55617">
        <ele>7</ele>
        <time>2018-07-18T09:16:10Z</time>
      </trkpt>
      <trkpt lat="47.76718" lon="-3.55623">
        <ele>7</ele>
        <time>2018-07-18T09:16:11Z</time>
      </trkpt>
      <trkpt lat="47.7672" lon="-3.55628">
        <ele>8</ele>
        <time>2018-07-18T09:16:12Z</time>
      </trkpt>
      <trkpt lat="47.76722" lon="-3.55633">
        <ele>8</ele>
        <time>2018-07-18T09:16:13Z</time>
      </trkpt>
      <trkpt lat="47.76725" lon="-3.55639">
        <ele>8</ele>
        <time>2018-07-18T09:16:14Z</time>
      </trkpt>
      <trkpt lat="47.76727" lon="-3.55644">
        <ele>8</ele>
        <time>2018-07-18T09:16:15Z</time>
      </trkpt>
      <trkpt lat="47.7673" lon="-3.55649">
        <ele>8</ele>
        <time>2018-07-18T09:16:16Z</time>
      </trkpt>
      <trkpt lat="47.76732" lon="-3.55655">
        <ele>9</ele>
        <time>2018-07-18T09:16:17Z</time>
      </trkpt>
      <trkpt lat="47.76734" lon="-3.5566">
        <ele>9</ele>
        <time>2018-07-18T09:16:18Z</time>
      </trkpt>
      <trkpt lat="47.76737" lon="-3.55665">
        <ele>9</ele>
        <time>2018-07-18T09:16:19Z</time>
      </trkpt>
      <trkpt lat="47.76739" lon="-3.5567">
        <ele>10</ele>
        <time>2018-07-18T09:16:20Z</time>
      </trkpt>
      <trkpt lat="47.76741" lon="-3.55675">
        <ele>10</ele>
        <time>2018-07-18T09:16:21Z</time>
      </trkpt>
      <trkpt lat="47.76744" lon="-3.55681">
        <ele>11</ele>
        <time>2018-07-18T09:16:22Z</time>
      </trkpt>
      <trkpt lat="47.76746" lon="-3.55686">
        <ele>11</ele>
        <time>2018-07-18T09:16:23Z</time>
      </trkpt>
      <trkpt lat="47.76748" lon="-3.55691">
        <ele>11</ele>
        <time>2018-07-18T09:16:24Z</time>
      </trkpt>
      <trkpt lat="47.76751" lon="-3.55696">
        <ele>12</ele>
        <time>2018-07-18T09:16:25Z</time>
      </trkpt>
      <trkpt lat="47.76753" lon="-3.55702">
        <ele>12</ele>
        <time>2018-07-18T09:16:26Z</time>
      </trkpt>
      <trkpt lat="47.76755" lon="-3.55707">
        <ele>12</ele>
        <time>2018-07-18T09:16:27Z</time>
      </trkpt>
      <trkpt lat="47.76757" lon="-3.55712">
        <ele>12</ele>
        <time>2018-07-18T09:16:28Z</time>
      </trkpt>
      <trkpt lat="47.76759" lon="-3.55717">
        <ele>13</ele>
        <time>2018-07-18T09:16:29Z</time>
      </trkpt>
      <trkpt lat="47.76761" lon="-3.55722">
        <ele>13</ele>
        <time>2018-07-18T09:16:30Z</time>
      </trkpt>
      <trkpt lat="47.76764" lon="-3.55727">
        <ele>14</ele>
        <time>2018-07-18T09:16:31Z</time>
      </trkpt>
      <trkpt lat="47.76766" lon="-3.55732">
        <ele>14</ele>
        <time>2018-07-18T09:16:32Z</time>
      </trkpt>
      <trkpt lat="47.76769" lon="-3.55736">
        <ele>14</ele>
        <time>2018-07-18T09:16:33Z</time>
      </trkpt>
      <trkpt lat="47.76772" lon="-3.55738">
        <ele>14</ele>
        <time>2018-07-18T09:16:34Z</time>
      </trkpt>
      <trkpt lat="47.76776" lon="-3.55741">
        <ele>14</ele>
        <time>2018-07-18T09:16:35Z</time>
      </trkpt>
      <trkpt lat="47.76779" lon="-3.55744">
        <ele>14</ele>
        <time>2018-07-18T09:16:36Z</time>
      </trkpt>
      <trkpt lat="47.76783" lon="-3.55747">
        <ele>14</ele>
        <time>2018-07-18T09:16:37Z</time>
      </trkpt>
      <trkpt lat="47.76787" lon="-3.55751">
        <ele>15</ele>
        <time>2018-07-18T09:16:38Z</time>
      </trkpt>
      <trkpt lat="47.7679" lon="-3.55754">
        <ele>15</ele>
        <time>2018-07-18T09:16:39Z</time>
      </trkpt>
      <trkpt lat="47.76794" lon="-3.55758">
        <ele>15</ele>
        <time>2018-07-18T09:16:40Z</time>
      </trkpt>
      <trkpt lat="47.76798" lon="-3.55761">
        <ele>15</ele>
        <time>2018-07-18T09:16:41Z</time>
      </trkpt>
      <trkpt lat="47.76802" lon="-3.55765">
        <ele>15</ele>
        <time>2018-07-18T09:16:42Z</time>
      </trkpt>
      <trkpt lat="47.76806" lon="-3.55769">
        <ele>15</ele>
        <time>2018-07-18T09:16:43Z</time>
      </trkpt>
      <trkpt lat="47.7681" lon="-3.55773">
        <ele>15</ele>
        <time>2018-07-18T09:16:44Z</time>
      </trkpt>
      <trkpt lat="47.76814" lon="-3.55777">
        <ele>15</ele>
        <time>2018-07-18T09:16:45Z</time>
      </trkpt>
      <trkpt lat="47.76817" lon="-3.55781">
        <ele>15</ele>
        <time>2018-07-18T09:16:46Z</time>
      </trkpt>
      <trkpt lat="47.76821" lon="-3.55786">
        <ele>15</ele>
        <time>2018-07-18T09:16:47Z</time>
      </trkpt>
      <trkpt lat="47.76826" lon="-3.5579">
        <ele>15</ele>
        <time>2018-07-18T09:16:48Z</time>
      </trkpt>
      <trkpt lat="47.7683" lon="-3.55794">
        <ele>15</ele>
        <time>2018-07-18T09:16:49Z</time>
      </trkpt>
      <trkpt lat="47.76834" lon="-3.55798">
        <ele>15</ele>
        <time>2018-07-18T09:16:50Z</time>
      </trkpt>
      <trkpt lat="47.76839" lon="-3.55802">
        <ele>15</ele>
        <time>2018-07-18T09:16:51Z</time>
      </trkpt>
      <trkpt lat="47.76843" lon="-3.55806">
        <ele>15</ele>
        <time>2018-07-18T09:16:52Z</time>
      </trkpt>
      <trkpt lat="47.76848" lon="-3.5581">
        <ele>15</ele>
        <time>2018-07-18T09:16:53Z</time>
      </trkpt>
      <trkpt lat="47.76852" lon="-3.55814">
        <ele>15</ele>
        <time>2018-07-18T09:16:54Z</time>
      </trkpt>
      <trkpt lat="47.76856" lon="-3.55817">
        <ele>15</ele>
        <time>2018-07-18T09:16:55Z</time>
      </trkpt>
      <trkpt lat="47.7686" lon="-3.55821">
        <ele>15</ele>
        <time>2018-07-18T09:16:56Z</time>
      </trkpt>
      <trkpt lat="47.76863" lon="-3.55824">
        <ele>15</ele>
        <time>2018-07-18T09:16:57Z</time>
      </trkpt>
      <trkpt lat="47.76867" lon="-3.55827">
        <ele>15</ele>
        <time>2018-07-18T09:16:58Z</time>
      </trkpt>
      <trkpt lat="47.76872" lon="-3.5583">
        <ele>15</ele>
        <time>2018-07-18T09:16:59Z</time>
      </trkpt>
      <trkpt lat="47.76876" lon="-3.55833">
        <ele>15</ele>
        <time>2018-07-18T09:17:00Z</time>
      </trkpt>
      <trkpt lat="47.7688" lon="-3.55836">
        <ele>15</ele>
        <time>2018-07-18T09:17:01Z</time>
      </trkpt>
      <trkpt lat="47.76884" lon="-3.55839">
        <ele>15</ele>
        <time>2018-07-18T09:17:02Z</time>
      </trkpt>
      <trkpt lat="47.76888" lon="-3.55841">
        <ele>15</ele>
        <time>2018-07-18T09:17:03Z</time>
      </trkpt>
      <trkpt lat="47.76892" lon="-3.55844">
        <ele>16</ele>
        <time>2018-07-18T09:17:04Z</time>
      </trkpt>
      <trkpt lat="47.76896" lon="-3.55847">
        <ele>16</ele>
        <time>2018-07-18T09:17:05Z</time>
      </trkpt>
      <trkpt lat="47.769" lon="-3.55849">
        <ele>16</ele>
        <time>2018-07-18T09:17:06Z</time>
      </trkpt>
      <trkpt lat="47.76904" lon="-3.55852">
        <ele>16</ele>
        <time>2018-07-18T09:17:07Z</time>
      </trkpt>
      <trkpt lat="47.76907" lon="-3.55853">
        <ele>16</ele>
        <time>2018-07-18T09:17:08Z</time>
      </trkpt>
      <trkpt lat="47.76911" lon="-3.55856">
        <ele>16</ele>
        <time>2018-07-18T09:17:09Z</time>
      </trkpt>
      <trkpt lat="47.76915" lon="-3.55857">
        <ele>16</ele>
        <time>2018-07-18T09:17:10Z</time>
      </trkpt>
      <trkpt lat="47.76918" lon="-3.55858">
        <ele>16</ele>
        <time>2018-07-18T09:17:11Z</time>
      </trkpt>
      <trkpt lat="47.76922" lon="-3.55859">
        <ele>16</ele>
        <time>2018-07-18T09:17:12Z</time>
      </trkpt>
      <trkpt lat="47.76925" lon="-3.5586">
        <ele>16</ele>
        <time>2018-07-18T09:17:13Z</time>
      </trkpt>
      <trkpt lat="47.76929" lon="-3.55861">
        <ele>17</ele>
        <time>2018-07-18T09:17:14Z</time>
      </trkpt>
      <trkpt lat="47.76932" lon="-3.55863">
        <ele>17</ele>
        <time>2018-07-18T09:17:15Z</time>
      </trkpt>
      <trkpt lat="47.76935" lon="-3.55864">
        <ele>17</ele>
        <time>2018-07-18T09:17:16Z</time>
      </trkpt>
      <trkpt lat="47.76939" lon="-3.55865">
        <ele>17</ele>
        <time>2018-07-18T09:17:17Z</time>
      </trkpt>
      <trkpt lat="47.76942" lon="-3.55865">
        <ele>17</ele>
        <time>2018-07-18T09:17:18Z</time>
      </trkpt>
      <trkpt lat="47.76945" lon="-3.55865">
        <ele>17</ele>
        <time>2018-07-18T09:17:19Z</time>
      </trkpt>
      <trkpt lat="47.76948" lon="-3.55865">
        <ele>18</ele>
        <time>2018-07-18T09:17:20Z</time>
      </trkpt>
      <trkpt lat="47.76952" lon="-3.55864">
        <ele>18</ele>
        <time>2018-07-18T09:17:21Z</time>
      </trkpt>
      <trkpt lat="47.76955" lon="-3.55864">
        <ele>18</ele>
        <time>2018-07-18T09:17:22Z</time>
      </trkpt>
      <trkpt lat="47.76958" lon="-3.55863">
        <ele>18</ele>
        <time>2018-07-18T09:17:23Z</time>
      </trkpt>
      <trkpt lat="47.76961" lon="-3.55863">
        <ele>19</ele>
        <time>2018-07-18T09:17:24Z</time>
      </trkpt>
      <trkpt lat="47.76964" lon="-3.55862">
        <ele>19</ele>
        <time>2018-07-18T09:17:25Z</time>
      </trkpt>
      <trkpt lat="47.76968" lon="-3.55861">
        <ele>19</ele>
        <time>2018-07-18T09:17:26Z</time>
      </trkpt>
      <trkpt lat="47.76971" lon="-3.5586">
        <ele>19</ele>
        <time>2018-07-18T09:17:27Z</time>
      </trkpt>
      <trkpt lat="47.76974" lon="-3.5586">
        <ele>20</ele>
        <time>2018-07-18T09:17:28Z</time>
      </trkpt>
      <trkpt lat="47.76977" lon="-3.55859">
        <ele>20</ele>
        <time>2018-07-18T09:17:29Z</time>
      </trkpt>
      <trkpt lat="47.7698" lon="-3.55859">
        <ele>20</ele>
        <time>2018-07-18T09:17:30Z</time>
      </trkpt>
      <trkpt lat="47.76982" lon="-3.55859">
        <ele>21</ele>
        <time>2018-07-18T09:17:31Z</time>
      </trkpt>
      <trkpt lat="47.76985" lon="-3.55861">
        <ele>21</ele>
        <time>2018-07-18T09:17:32Z</time>
      </trkpt>
      <trkpt lat="47.76987" lon="-3.55864">
        <ele>21</ele>
        <time>2018-07-18T09:17:33Z</time>
      </trkpt>
      <trkpt lat="47.76989" lon="-3.55868">
        <ele>21</ele>
        <time>2018-07-18T09:17:34Z</time>
      </trkpt>
      <trkpt lat="47.7699" lon="-3.55872">
        <ele>21</ele>
        <time>2018-07-18T09:17:35Z</time>
      </trkpt>
      <trkpt lat="47.76991" lon="-3.55878">
        <ele>22</ele>
        <time>2018-07-18T09:17:36Z</time>
      </trkpt>
      <trkpt lat="47.7699" lon="-3.55883">
        <ele>22</ele>
        <time>2018-07-18T09:17:37Z</time>
      </trkpt>
      <trkpt lat="47.76989" lon="-3.55888">
        <ele>22</ele>
        <time>2018-07-18T09:17:38Z</time>
      </trkpt>
      <trkpt lat="47.76987" lon="-3.55893">
        <ele>22</ele>
        <time>2018-07-18T09:17:39Z</time>
      </trkpt>
      <trkpt lat="47.76985" lon="-3.55898">
        <ele>22</ele>
        <time>2018-07-18T09:17:40Z</time>
      </trkpt>
      <trkpt lat="47.76983" lon="-3.55902">
        <ele>22</ele>
        <time>2018-07-18T09:17:41Z</time>
      </trkpt>
      <trkpt lat="47.76981" lon="-3.55907">
        <ele>22</ele>
        <time>2018-07-18T09:17:42Z</time>
      </trkpt>
      <trkpt lat="47.7698" lon="-3.55912">
        <ele>22</ele>
        <time>2018-07-18T09:17:43Z</time>
      </trkpt>
      <trkpt lat="47.76979" lon="-3.55918">
        <ele>22</ele>
        <time>2018-07-18T09:17:44Z</time>
      </trkpt>
      <trkpt lat="47.76977" lon="-3.55924">
        <ele>22</ele>
        <time>2018-07-18T09:17:45Z</time>
      </trkpt>
      <trkpt lat="47.76976" lon="-3.55929">
        <ele>22</ele>
        <time>2018-07-18T09:17:46Z</time>
      </trkpt>
      <trkpt lat="47.76975" lon="-3.55936">
        <ele>23</ele>
        <time>2018-07-18T09:17:47Z</time>
      </trkpt>
      <trkpt lat="47.76974" lon="-3.55942">
        <ele>23</ele>
        <time>2018-07-18T09:17:48Z</time>
      </trkpt>
      <trkpt lat="47.76973" lon="-3.55948">
        <ele>23</ele>
        <time>2018-07-18T09:17:49Z</time>
      </trkpt>
      <trkpt lat="47.76972" lon="-3.55955">
        <ele>23</ele>
        <time>2018-07-18T09:17:50Z</time>
      </trkpt>
      <trkpt lat="47.76971" lon="-3.55961">
        <ele>23</ele>
        <time>2018-07-18T09:17:51Z</time>
      </trkpt>
      <trkpt lat="47.7697" lon="-3.55968">
        <ele>23</ele>
        <time>2018-07-18T09:17:52Z</time>
      </trkpt>
      <trkpt lat="47.76969" lon="-3.55975">
        <ele>23</ele>
        <time>2018-07-18T09:17:53Z</time>
      </trkpt>
      <trkpt lat="47.76967" lon="-3.55982">
        <ele>23</ele>
        <time>2018-07-18T09:17:54Z</time>
      </trkpt>
      <trkpt lat="47.76966" lon="-3.55989">
        <ele>23</ele>
        <time>2018-07-18T09:17:55Z</time>
      </trkpt>
      <trkpt lat="47.76965" lon="-3.55996">
        <ele>23</ele>
        <time>2018-07-18T09:17:56Z</time>
      </trkpt>
      <trkpt lat="47.76963" lon="-3.56004">
        <ele>23</ele>
        <time>2018-07-18T09:17:57Z</time>
      </trkpt>
      <trkpt lat="47.76962" lon="-3.56011">
        <ele>23</ele>
        <time>2018-07-18T09:17:58Z</time>
      </trkpt>
      <trkpt lat="47.76961" lon="-3.56019">
        <ele>23</ele>
        <time>2018-07-18T09:17:59Z</time>
      </trkpt>
      <trkpt lat="47.76959" lon="-3.56027">
        <ele>23</ele>
        <time>2018-07-18T09:18:00Z</time>
      </trkpt>
      <trkpt lat="47.76958" lon="-3.56034">
        <ele>23</ele>
        <time>2018-07-18T09:18:01Z</time>
      </trkpt>
      <trkpt lat="47.76957" lon="-3.5604">
        <ele>23</ele>
        <time>2018-07-18T09:18:02Z</time>
      </trkpt>
      <trkpt lat="47.76957" lon="-3.56044">
        <ele>23</ele>
        <time>2018-07-18T09:18:03Z</time>
      </trkpt>
      <trkpt lat="47.76957" lon="-3.56047">
        <ele>24</ele>
        <time>2018-07-18T09:18:04Z</time>
      </trkpt>
      <trkpt lat="47.76956" lon="-3.56052">
        <ele>24</ele>
        <time>2018-07-18T09:18:05Z</time>
      </trkpt>
      <trkpt lat="47.76956" lon="-3.56056">
        <ele>24</ele>
        <time>2018-07-18T09:18:06Z</time>
      </trkpt>
      <trkpt lat="47.76955" lon="-3.56062">
        <ele>24</ele>
        <time>2018-07-18T09:18:07Z</time>
      </trkpt>
      <trkpt lat="47.76955" lon="-3.56068">
        <ele>24</ele>
        <time>2018-07-18T09:18:08Z</time>
      </trkpt>
      <trkpt lat="47.76955" lon="-3.56074">
        <ele>24</ele>
        <time>2018-07-18T09:18:09Z</time>
      </trkpt>
      <trkpt lat="47.76954" lon="-3.56082">
        <ele>23</ele>
        <time>2018-07-18T09:18:10Z</time>
      </trkpt>
      <trkpt lat="47.76953" lon="-3.56089">
        <ele>23</ele>
        <time>2018-07-18T09:18:11Z</time>
      </trkpt>
      <trkpt lat="47.76952" lon="-3.56098">
        <ele>23</ele>
        <time>2018-07-18T09:18:12Z</time>
      </trkpt>
      <trkpt lat="47.76951" lon="-3.56107">
        <ele>22</ele>
        <time>2018-07-18T09:18:13Z</time>
      </trkpt>
      <trkpt lat="47.7695" lon="-3.56117">
        <ele>22</ele>
        <time>2018-07-18T09:18:14Z</time>
      </trkpt>
      <trkpt lat="47.76949" lon="-3.56127">
        <ele>22</ele>
        <time>2018-07-18T09:18:15Z</time>
      </trkpt>
      <trkpt lat="47.76948" lon="-3.56138">
        <ele>21</ele>
        <time>2018-07-18T09:18:16Z</time>
      </trkpt>
      <trkpt lat="47.76946" lon="-3.56148">
        <ele>21</ele>
        <time>2018-07-18T09:18:17Z</time>
      </trkpt>
      <trkpt lat="47.76945" lon="-3.56159">
        <ele>21</ele>
        <time>2018-07-18T09:18:18Z</time>
      </trkpt>
      <trkpt lat="47.76944" lon="-3.5617">
        <ele>20</ele>
        <time>2018-07-18T09:18:19Z</time>
      </trkpt>
      <trkpt lat="47.76943" lon="-3.56181">
        <ele>20</ele>
        <time>2018-07-18T09:18:20Z</time>
      </trkpt>
      <trkpt lat="47.76942" lon="-3.56193">
        <ele>20</ele>
        <time>2018-07-18T09:18:21Z</time>
      </trkpt>
      <trkpt lat="47.7694" lon="-3.56204">
        <ele>19</ele>
        <time>2018-07-18T09:18:22Z</time>
      </trkpt>
      <trkpt lat="47.76938" lon="-3.56214">
        <ele>19</ele>
        <time>2018-07-18T09:18:23Z</time>
      </trkpt>
      <trkpt lat="47.76935" lon="-3.56224">
        <ele>19</ele>
        <time>2018-07-18T09:18:24Z</time>
      </trkpt>
      <trkpt lat="47.76931" lon="-3.56233">
        <ele>18</ele>
        <time>2018-07-18T09:18:25Z</time>
      </trkpt>
      <trkpt lat="47.76928" lon="-3.56243">
        <ele>18</ele>
        <time>2018-07-18T09:18:26Z</time>
      </trkpt>
      <trkpt lat="47.76925" lon="-3.5625">
        <ele>18</ele>
        <time>2018-07-18T09:18:27Z</time>
      </trkpt>
      <trkpt lat="47.76922" lon="-3.56257">
        <ele>18</ele>
        <time>2018-07-18T09:18:28Z</time>
      </trkpt>
      <trkpt lat="47.76921" lon="-3.56262">
        <ele>17</ele>
        <time>2018-07-18T09:18:29Z</time>
      </trkpt>
      <trkpt lat="47.76919" lon="-3.56268">
        <ele>17</ele>
        <time>2018-07-18T09:18:30Z</time>
      </trkpt>
      <trkpt lat="47.76917" lon="-3.56274">
        <ele>17</ele>
        <time>2018-07-18T09:18:31Z</time>
      </trkpt>
      <trkpt lat="47.76915" lon="-3.56279">
        <ele>17</ele>
        <time>2018-07-18T09:18:32Z</time>
      </trkpt>
      <trkpt lat="47.76913" lon="-3.56284">
        <ele>17</ele>
        <time>2018-07-18T09:18:33Z</time>
      </trkpt>
      <trkpt lat="47.76911" lon="-3.56289">
        <ele>17</ele>
        <time>2018-07-18T09:18:34Z</time>
      </trkpt>
      <trkpt lat="47.7691" lon="-3.56294">
        <ele>17</ele>
        <time>2018-07-18T09:18:35Z</time>
      </trkpt>
      <trkpt lat="47.76909" lon="-3.56298">
        <ele>17</ele>
        <time>2018-07-18T09:18:36Z</time>
      </trkpt>
      <trkpt lat="47.76908" lon="-3.56304">
        <ele>17</ele>
        <time>2018-07-18T09:18:37Z</time>
      </trkpt>
      <trkpt lat="47.76907" lon="-3.56309">
        <ele>17</ele>
        <time>2018-07-18T09:18:38Z</time>
      </trkpt>
      <trkpt lat="47.76906" lon="-3.56315">
        <ele>17</ele>
        <time>2018-07-18T09:18:39Z</time>
      </trkpt>
      <trkpt lat="47.76904" lon="-3.56321">
        <ele>17</ele>
        <time>2018-07-18T09:18:40Z</time>
      </trkpt>
      <trkpt lat="47.76903" lon="-3.56326">
        <ele>17</ele>
        <time>2018-07-18T09:18:41Z</time>
      </trkpt>
      <trkpt lat="47.76902" lon="-3.56332">
        <ele>17</ele>
        <time>2018-07-18T09:18:42Z</time>
      </trkpt>
      <trkpt lat="47.769" lon="-3.56337">
        <ele>17</ele>
        <time>2018-07-18T09:18:43Z</time>
      </trkpt>
      <trkpt lat="47.76899" lon="-3.56343">
        <ele>17</ele>
        <time>2018-07-18T09:18:44Z</time>
      </trkpt>
      <trkpt lat="47.76897" lon="-3.56348">
        <ele>17</ele>
        <time>2018-07-18T09:18:45Z</time>
      </trkpt>
      <trkpt lat="47.76896" lon="-3.56354">
        <ele>17</ele>
        <time>2018-07-18T09:18:46Z</time>
      </trkpt>
      <trkpt lat="47.76894" lon="-3.56359">
        <ele>17</ele>
        <time>2018-07-18T09:18:47Z</time>
      </trkpt>
      <trkpt lat="47.76892" lon="-3.56364">
        <ele>17</ele>
        <time>2018-07-18T09:18:48Z</time>
      </trkpt>
      <trkpt lat="47.7689" lon="-3.56369">
        <ele>17</ele>
        <time>2018-07-18T09:18:49Z</time>
      </trkpt>
      <trkpt lat="47.76889" lon="-3.56375">
        <ele>17</ele>
        <time>2018-07-18T09:18:50Z</time>
      </trkpt>
      <trkpt lat="47.76887" lon="-3.5638">
        <ele>17</ele>
        <time>2018-07-18T09:18:51Z</time>
      </trkpt>
      <trkpt lat="47.76886" lon="-3.56386">
        <ele>17</ele>
        <time>2018-07-18T09:18:52Z</time>
      </trkpt>
      <trkpt lat="47.76885" lon="-3.56391">
        <ele>17</ele>
        <time>2018-07-18T09:18:53Z</time>
      </trkpt>
      <trkpt lat="47.76885" lon="-3.56397">
        <ele>17</ele>
        <time>2018-07-18T09:18:54Z</time>
      </trkpt>
      <trkpt lat="47.76886" lon="-3.56403">
        <ele>17</ele>
        <time>2018-07-18T09:18:55Z</time>
      </trkpt>
      <trkpt lat="47.76886" lon="-3.56408">
        <ele>17</ele>
        <time>2018-07-18T09:18:56Z</time>
      </trkpt>
      <trkpt lat="47.76887" lon="-3.56414">
        <ele>18</ele>
        <time>2018-07-18T09:18:57Z</time>
      </trkpt>
      <trkpt lat="47.76888" lon="-3.5642">
        <ele>18</ele>
        <time>2018-07-18T09:18:58Z</time>
      </trkpt>
      <trkpt lat="47.7689" lon="-3.56425">
        <ele>18</ele>
        <time>2018-07-18T09:18:59Z</time>
      </trkpt>
      <trkpt lat="47.76891" lon="-3.5643">
        <ele>18</ele>
        <time>2018-07-18T09:19:00Z</time>
      </trkpt>
      <trkpt lat="47.76892" lon="-3.56436">
        <ele>18</ele>
        <time>2018-07-18T09:19:01Z</time>
      </trkpt>
      <trkpt lat="47.76893" lon="-3.56442">
        <ele>18</ele>
        <time>2018-07-18T09:19:02Z</time>
      </trkpt>
      <trkpt lat="47.76894" lon="-3.56448">
        <ele>18</ele>
        <time>2018-07-18T09:19:03Z</time>
      </trkpt>
      <trkpt lat="47.76896" lon="-3.56454">
        <ele>18</ele>
        <time>2018-07-18T09:19:04Z</time>
      </trkpt>
      <trkpt lat="47.76896" lon="-3.56461">
        <ele>18</ele>
        <time>2018-07-18T09:19:05Z</time>
      </trkpt>
      <trkpt lat="47.76896" lon="-3.56467">
        <ele>18</ele>
        <time>2018-07-18T09:19:06Z</time>
      </trkpt>
      <trkpt lat="47.76896" lon="-3.56474">
        <ele>18</ele>
        <time>2018-07-18T09:19:07Z</time>
      </trkpt>
      <trkpt lat="47.76896" lon="-3.5648">
        <ele>18</ele>
        <time>2018-07-18T09:19:08Z</time>
      </trkpt>
      <trkpt lat="47.76895" lon="-3.56487">
        <ele>18</ele>
        <time>2018-07-18T09:19:09Z</time>
      </trkpt>
      <trkpt lat="47.76894" lon="-3.56493">
        <ele>18</ele>
        <time>2018-07-18T09:19:10Z</time>
      </trkpt>
      <trkpt lat="47.76893" lon="-3.56499">
        <ele>18</ele>
        <time>2018-07-18T09:19:11Z</time>
      </trkpt>
      <trkpt lat="47.76892" lon="-3.56504">
        <ele>18</ele>
        <time>2018-07-18T09:19:12Z</time>
      </trkpt>
      <trkpt lat="47.76891" lon="-3.56511">
        <ele>18</ele>
        <time>2018-07-18T09:19:13Z</time>
      </trkpt>
      <trkpt lat="47.76891" lon="-3.56518">
        <ele>18</ele>
        <time>2018-07-18T09:19:14Z</time>
      </trkpt>
      <trkpt lat="47.76891" lon="-3.56524">
        <ele>18</ele>
        <time>2018-07-18T09:19:15Z</time>
      </trkpt>
      <trkpt lat="47.76891" lon="-3.5653">
        <ele>18</ele>
        <time>2018-07-18T09:19:16Z</time>
      </trkpt>
      <trkpt lat="47.76891" lon="-3.56537">
        <ele>18</ele>
        <time>2018-07-18T09:19:17Z</time>
      </trkpt>
      <trkpt lat="47.76891" lon="-3.56544">
        <ele>18</ele>
        <time>2018-07-18T09:19:18Z</time>
      </trkpt>
      <trkpt lat="47.76891" lon="-3.56551">
        <ele>18</ele>
        <time>2018-07-18T09:19:19Z</time>
      </trkpt>
      <trkpt lat="47.7689" lon="-3.56558">
        <ele>18</ele>
        <time>2018-07-18T09:19:20Z</time>
      </trkpt>
      <trkpt lat="47.76891" lon="-3.56566">
        <ele>18</ele>
        <time>2018-07-18T09:19:21Z</time>
      </trkpt>
      <trkpt lat="47.76892" lon="-3.56574">
        <ele>17</ele>
        <time>2018-07-18T09:19:22Z</time>
      </trkpt>
      <trkpt lat="47.76895" lon="-3.56581">
        <ele>17</ele>
        <time>2018-07-18T09:19:23Z</time>
      </trkpt>
      <trkpt lat="47.76898" lon="-3.56588">
        <ele>16</ele>
        <time>2018-07-18T09:19:24Z</time>
      </trkpt>
      <trkpt lat="47.769" lon="-3.56596">
        <ele>16</ele>
        <time>2018-07-18T09:19:25Z</time>
      </trkpt>
      <trkpt lat="47.76901" lon="-3.56604">
        <ele>16</ele>
        <time>2018-07-18T09:19:26Z</time>
      </trkpt>
      <trkpt lat="47.76902" lon="-3.56613">
        <ele>15</ele>
        <time>2018-07-18T09:19:27Z</time>
      </trkpt>
      <trkpt lat="47.76902" lon="-3.56621">
        <ele>15</ele>
        <time>2018-07-18T09:19:28Z</time>
      </trkpt>
      <trkpt lat="47.769" lon="-3.56629">
        <ele>15</ele>
        <time>2018-07-18T09:19:29Z</time>
      </trkpt>
      <trkpt lat="47.76899" lon="-3.56637">
        <ele>14</ele>
        <time>2018-07-18T09:19:30Z</time>
      </trkpt>
      <trkpt lat="47.76899" lon="-3.56646">
        <ele>14</ele>
        <time>2018-07-18T09:19:31Z</time>
      </trkpt>
      <trkpt lat="47.76898" lon="-3.56656">
        <ele>14</ele>
        <time>2018-07-18T09:19:32Z</time>
      </trkpt>
      <trkpt lat="47.76898" lon="-3.56664">
        <ele>13</ele>
        <time>2018-07-18T09:19:33Z</time>
      </trkpt>
      <trkpt lat="47.76898" lon="-3.56672">
        <ele>13</ele>
        <time>2018-07-18T09:19:34Z</time>
      </trkpt>
      <trkpt lat="47.769" lon="-3.56677">
        <ele>13</ele>
        <time>2018-07-18T09:19:35Z</time>
      </trkpt>
      <trkpt lat="47.76903" lon="-3.56682">
        <ele>13</ele>
        <time>2018-07-18T09:19:36Z</time>
      </trkpt>
      <trkpt lat="47.76904" lon="-3.56686">
        <ele>13</ele>
        <time>2018-07-18T09:19:37Z</time>
      </trkpt>
      <trkpt lat="47.76906" lon="-3.56692">
        <ele>12</ele>
        <time>2018-07-18T09:19:38Z</time>
      </trkpt>
      <trkpt lat="47.76909" lon="-3.56698">
        <ele>12</ele>
        <time>2018-07-18T09:19:39Z</time>
      </trkpt>
      <trkpt lat="47.76912" lon="-3.56705">
        <ele>11</ele>
        <time>2018-07-18T09:19:40Z</time>
      </trkpt>
      <trkpt lat="47.76914" lon="-3.56712">
        <ele>11</ele>
        <time>2018-07-18T09:19:41Z</time>
      </trkpt>
      <trkpt lat="47.76914" lon="-3.56719">
        <ele>11</ele>
        <time>2018-07-18T09:19:42Z</time>
      </trkpt>
      <trkpt lat="47.76915" lon="-3.56726">
        <ele>10</ele>
        <time>2018-07-18T09:19:43Z</time>
      </trkpt>
      <trkpt lat="47.76916" lon="-3.56733">
        <ele>10</ele>
        <time>2018-07-18T09:19:44Z</time>
      </trkpt>
      <trkpt lat="47.76918" lon="-3.56739">
        <ele>10</ele>
        <time>2018-07-18T09:19:45Z</time>
      </trkpt>
      <trkpt lat="47.76921" lon="-3.56743">
        <ele>10</ele>
        <time>2018-07-18T09:19:46Z</time>
      </trkpt>
      <trkpt lat="47.76924" lon="-3.56745">
        <ele>10</ele>
        <time>2018-07-18T09:19:47Z</time>
      </trkpt>
      <trkpt lat="47.76927" lon="-3.56748">
        <ele>10</ele>
        <time>2018-07-18T09:19:48Z</time>
      </trkpt>
      <trkpt lat="47.76928" lon="-3.56751">
        <ele>11</ele>
        <time>2018-07-18T09:19:49Z</time>
      </trkpt>
      <trkpt lat="47.76929" lon="-3.56755">
        <ele>11</ele>
        <time>2018-07-18T09:19:50Z</time>
      </trkpt>
      <trkpt lat="47.76929" lon="-3.56758">
        <ele>11</ele>
        <time>2018-07-18T09:19:51Z</time>
      </trkpt>
      <trkpt lat="47.76929" lon="-3.56761">
        <ele>11</ele>
        <time>2018-07-18T09:19:52Z</time>
      </trkpt>
      <trkpt lat="47.7693" lon="-3.56765">
        <ele>11</ele>
        <time>2018-07-18T09:19:53Z</time>
      </trkpt>
      <trkpt lat="47.7693" lon="-3.56768">
        <ele>11</ele>
        <time>2018-07-18T09:19:54Z</time>
      </trkpt>
      <trkpt lat="47.7693" lon="-3.56772">
        <ele>12</ele>
        <time>2018-07-18T09:19:55Z</time>
      </trkpt>
      <trkpt lat="47.76931" lon="-3.56775">
        <ele>12</ele>
        <time>2018-07-18T09:19:56Z</time>
      </trkpt>
      <trkpt lat="47.76931" lon="-3.56778">
        <ele>12</ele>
        <time>2018-07-18T09:19:57Z</time>
      </trkpt>
      <trkpt lat="47.76931" lon="-3.56782">
        <ele>12</ele>
        <time>2018-07-18T09:19:58Z</time>
      </trkpt>
      <trkpt lat="47.76929" lon="-3.56787">
        <ele>12</ele>
        <time>2018-07-18T09:19:59Z</time>
      </trkpt>
      <trkpt lat="47.76928" lon="-3.56792">
        <ele>12</ele>
        <time>2018-07-18T09:20:00Z</time>
      </trkpt>
      <trkpt lat="47.76927" lon="-3.56797">
        <ele>12</ele>
        <time>2018-07-18T09:20:01Z</time>
      </trkpt>
      <trkpt lat="47.76925" lon="-3.56802">
        <ele>12</ele>
        <time>2018-07-18T09:20:02Z</time>
      </trkpt>
      <trkpt lat="47.76924" lon="-3.56806">
        <ele>12</ele>
        <time>2018-07-18T09:20:03Z</time>
      </trkpt>
      <trkpt lat="47.76923" lon="-3.56811">
        <ele>12</ele>
        <time>2018-07-18T09:20:04Z</time>
      </trkpt>
      <trkpt lat="47.76921" lon="-3.56814">
        <ele>12</ele>
        <time>2018-07-18T09:20:05Z</time>
      </trkpt>
      <trkpt lat="47.76918" lon="-3.56817">
        <ele>12</ele>
        <time>2018-07-18T09:20:06Z</time>
      </trkpt>
      <trkpt lat="47.76914" lon="-3.56819">
        <ele>12</ele>
        <time>2018-07-18T09:20:07Z</time>
      </trkpt>
      <trkpt lat="47.7691" lon="-3.56821">
        <ele>12</ele>
        <time>2018-07-18T09:20:08Z</time>
      </trkpt>
      <trkpt lat="47.76907" lon="-3.56824">
        <ele>12</ele>
        <time>2018-07-18T09:20:09Z</time>
      </trkpt>
      <trkpt lat="47.76903" lon="-3.56827">
        <ele>12</ele>
        <time>2018-07-18T09:20:10Z</time>
      </trkpt>
      <trkpt lat="47.769" lon="-3.56831">
        <ele>12</ele>
        <time>2018-07-18T09:20:11Z</time>
      </trkpt>
      <trkpt lat="47.76896" lon="-3.56835">
        <ele>12</ele>
        <time>2018-07-18T09:20:12Z</time>
      </trkpt>
      <trkpt lat="47.76893" lon="-3.56839">
        <ele>12</ele>
        <time>2018-07-18T09:20:13Z</time>
      </trkpt>
      <trkpt lat="47.7689" lon="-3.56844">
        <ele>12</ele>
        <time>2018-07-18T09:20:14Z</time>
      </trkpt>
      <trkpt lat="47.76889" lon="-3.5685">
        <ele>12</ele>
        <time>2018-07-18T09:20:15Z</time>
      </trkpt>
      <trkpt lat="47.76888" lon="-3.56857">
        <ele>12</ele>
        <time>2018-07-18T09:20:16Z</time>
      </trkpt>
      <trkpt lat="47.76887" lon="-3.56863">
        <ele>11</ele>
        <time>2018-07-18T09:20:17Z</time>
      </trkpt>
      <trkpt lat="47.76886" lon="-3.56869">
        <ele>12</ele>
        <time>2018-07-18T09:20:18Z</time>
      </trkpt>
      <trkpt lat="47.76886" lon="-3.56876">
        <ele>12</ele>
        <time>2018-07-18T09:20:19Z</time>
      </trkpt>
      <trkpt lat="47.76887" lon="-3.56881">
        <ele>12</ele>
        <time>2018-07-18T09:20:20Z</time>
      </trkpt>
      <trkpt lat="47.76888" lon="-3.56887">
        <ele>12</ele>
        <time>2018-07-18T09:20:21Z</time>
      </trkpt>
      <trkpt lat="47.7689" lon="-3.56891">
        <ele>12</ele>
        <time>2018-07-18T09:20:22Z</time>
      </trkpt>
      <trkpt lat="47.76892" lon="-3.56896">
        <ele>13</ele>
        <time>2018-07-18T09:20:23Z</time>
      </trkpt>
      <trkpt lat="47.76894" lon="-3.569">
        <ele>13</ele>
        <time>2018-07-18T09:20:24Z</time>
      </trkpt>
      <trkpt lat="47.76897" lon="-3.56902">
        <ele>13</ele>
        <time>2018-07-18T09:20:25Z</time>
      </trkpt>
      <trkpt lat="47.76899" lon="-3.56905">
        <ele>14</ele>
        <time>2018-07-18T09:20:26Z</time>
      </trkpt>
      <trkpt lat="47.769" lon="-3.56907">
        <ele>14</ele>
        <time>2018-07-18T09:20:27Z</time>
      </trkpt>
      <trkpt lat="47.76903" lon="-3.56909">
        <ele>14</ele>
        <time>2018-07-18T09:20:28Z</time>
      </trkpt>
      <trkpt lat="47.76905" lon="-3.56911">
        <ele>14</ele>
        <time>2018-07-18T09:20:29Z</time>
      </trkpt>
      <trkpt lat="47.76907" lon="-3.56914">
        <ele>14</ele>
        <time>2018-07-18T09:20:30Z</time>
      </trkpt>
      <trkpt lat="47.76909" lon="-3.56918">
        <ele>15</ele>
        <time>2018-07-18T09:20:31Z</time>
      </trkpt>
      <trkpt lat="47.76911" lon="-3.56921">
        <ele>15</ele>
        <time>2018-07-18T09:20:32Z</time>
      </trkpt>
      <trkpt lat="47.76913" lon="-3.56925">
        <ele>15</ele>
        <time>2018-07-18T09:20:33Z</time>
      </trkpt>
      <trkpt lat="47.76915" lon="-3.56928">
        <ele>15</ele>
        <time>2018-07-18T09:20:34Z</time>
      </trkpt>
      <trkpt lat="47.76916" lon="-3.56931">
        <ele>16</ele>
        <time>2018-07-18T09:20:35Z</time>
      </trkpt>
      <trkpt lat="47.76918" lon="-3.56934">
        <ele>16</ele>
        <time>2018-07-18T09:20:36Z</time>
      </trkpt>
      <trkpt lat="47.76919" lon="-3.56936">
        <ele>16</ele>
        <time>2018-07-18T09:20:37Z</time>
      </trkpt>
      <trkpt lat="47.76921" lon="-3.56939">
        <ele>17</ele>
        <time>2018-07-18T09:20:38Z</time>
      </trkpt>
      <trkpt lat="47.76922" lon="-3.56942">
        <ele>17</ele>
        <time>2018-07-18T09:20:39Z</time>
      </trkpt>
      <trkpt lat="47.76923" lon="-3.56945">
        <ele>17</ele>
        <time>2018-07-18T09:20:40Z</time>
      </trkpt>
      <trkpt lat="47.76923" lon="-3.56948">
        <ele>17</ele>
        <time>2018-07-18T09:20:41Z</time>
      </trkpt>
      <trkpt lat="47.76924" lon="-3.56951">
        <ele>17</ele>
        <time>2018-07-18T09:20:42Z</time>
      </trkpt>
      <trkpt lat="47.76925" lon="-3.56955">
        <ele>17</ele>
        <time>2018-07-18T09:20:43Z</time>
      </trkpt>
      <trkpt lat="47.76926" lon="-3.56959">
        <ele>18</ele>
        <time>2018-07-18T09:20:44Z</time>
      </trkpt>
      <trkpt lat="47.76927" lon="-3.56964">
        <ele>18</ele>
        <time>2018-07-18T09:20:45Z</time>
      </trkpt>
      <trkpt lat="47.76928" lon="-3.56968">
        <ele>18</ele>
        <time>2018-07-18T09:20:46Z</time>
      </trkpt>
      <trkpt lat="47.76928" lon="-3.56973">
        <ele>18</ele>
        <time>2018-07-18T09:20:47Z</time>
      </trkpt>
      <trkpt lat="47.76929" lon="-3.56977">
        <ele>18</ele>
        <time>2018-07-18T09:20:48Z</time>
      </trkpt>
      <trkpt lat="47.7693" lon="-3.56981">
        <ele>18</ele>
        <time>2018-07-18T09:20:49Z</time>
      </trkpt>
      <trkpt lat="47.7693" lon="-3.56985">
        <ele>18</ele>
        <time>2018-07-18T09:20:50Z</time>
      </trkpt>
      <trkpt lat="47.76931" lon="-3.56989">
        <ele>18</ele>
        <time>2018-07-18T09:20:51Z</time>
      </trkpt>
      <trkpt lat="47.76932" lon="-3.56993">
        <ele>18</ele>
        <time>2018-07-18T09:20:52Z</time>
      </trkpt>
      <trkpt lat="47.76933" lon="-3.56996">
        <ele>19</ele>
        <time>2018-07-18T09:20:53Z</time>
      </trkpt>
      <trkpt lat="47.76934" lon="-3.56998">
        <ele>19</ele>
        <time>2018-07-18T09:20:54Z</time>
      </trkpt>
      <trkpt lat="47.76936" lon="-3.57001">
        <ele>19</ele>
        <time>2018-07-18T09:20:55Z</time>
      </trkpt>
      <trkpt lat="47.76937" lon="-3.57004">
        <ele>19</ele>
        <time>2018-07-18T09:20:56Z</time>
      </trkpt>
      <trkpt lat="47.76939" lon="-3.57006">
        <ele>19</ele>
        <time>2018-07-18T09:20:57Z</time>
      </trkpt>
      <trkpt lat="47.7694" lon="-3.57009">
        <ele>20</ele>
        <time>2018-07-18T09:20:58Z</time>
      </trkpt>
      <trkpt lat="47.76941" lon="-3.57011">
        <ele>20</ele>
        <time>2018-07-18T09:20:59Z</time>
      </trkpt>
      <trkpt lat="47.76942" lon="-3.57014">
        <ele>20</ele>
        <time>2018-07-18T09:21:00Z</time>
      </trkpt>
      <trkpt lat="47.76943" lon="-3.57017">
        <ele>20</ele>
        <time>2018-07-18T09:21:01Z</time>
      </trkpt>
      <trkpt lat="47.76943" lon="-3.57018">
        <ele>20</ele>
        <time>2018-07-18T09:21:02Z</time>
      </trkpt>
      <trkpt lat="47.76944" lon="-3.57021">
        <ele>20</ele>
        <time>2018-07-18T09:21:03Z</time>
      </trkpt>
      <trkpt lat="47.76944" lon="-3.57023">
        <ele>20</ele>
        <time>2018-07-18T09:21:04Z</time>
      </trkpt>
      <trkpt lat="47.76945" lon="-3.57025">
        <ele>20</ele>
        <time>2018-07-18T09:21:05Z</time>
      </trkpt>
      <trkpt lat="47.76946" lon="-3.57027">
        <ele>21</ele>
        <time>2018-07-18T09:21:06Z</time>
      </trkpt>
      <trkpt lat="47.76947" lon="-3.57029">
        <ele>21</ele>
        <time>2018-07-18T09:21:07Z</time>
      </trkpt>
      <trkpt lat="47.76948" lon="-3.57031">
        <ele>21</ele>
        <time>2018-07-18T09:21:08Z</time>
      </trkpt>
      <trkpt lat="47.76948" lon="-3.57033">
        <ele>21</ele>
        <time>2018-07-18T09:21:09Z</time>
      </trkpt>
      <trkpt lat="47.76949" lon="-3.57035">
        <ele>21</ele>
        <time>2018-07-18T09:21:10Z</time>
      </trkpt>
      <trkpt lat="47.76949" lon="-3.57037">
        <ele>21</ele>
        <time>2018-07-18T09:21:11Z</time>
      </trkpt>
      <trkpt lat="47.7695" lon="-3.57038">
        <ele>22</ele>
        <time>2018-07-18T09:21:12Z</time>
      </trkpt>
      <trkpt lat="47.76951" lon="-3.5704">
        <ele>22</ele>
        <time>2018-07-18T09:21:13Z</time>
      </trkpt>
      <trkpt lat="47.76951" lon="-3.57042">
        <ele>22</ele>
        <time>2018-07-18T09:21:14Z</time>
      </trkpt>
      <trkpt lat="47.76951" lon="-3.57044">
        <ele>22</ele>
        <time>2018-07-18T09:21:15Z</time>
      </trkpt>
      <trkpt lat="47.76951" lon="-3.57045">
        <ele>22</ele>
        <time>2018-07-18T09:21:16Z</time>
      </trkpt>
      <trkpt lat="47.76952" lon="-3.57047">
        <ele>22</ele>
        <time>2018-07-18T09:21:17Z</time>
      </trkpt>
      <trkpt lat="47.76952" lon="-3.57048">
        <ele>22</ele>
        <time>2018-07-18T09:21:18Z</time>
      </trkpt>
      <trkpt lat="47.76953" lon="-3.57051">
        <ele>22</ele>
        <time>2018-07-18T09:21:19Z</time>
      </trkpt>
      <trkpt lat="47.76953" lon="-3.57053">
        <ele>23</ele>
        <time>2018-07-18T09:21:20Z</time>
      </trkpt>
      <trkpt lat="47.76953" lon="-3.57057">
        <ele>23</ele>
        <time>2018-07-18T09:21:21Z</time>
      </trkpt>
      <trkpt lat="47.76953" lon="-3.57061">
        <ele>23</ele>
        <time>2018-07-18T09:21:22Z</time>
      </trkpt>
      <trkpt lat="47.76953" lon="-3.57064">
        <ele>23</ele>
        <time>2018-07-18T09:21:23Z</time>
      </trkpt>
      <trkpt lat="47.76953" lon="-3.57068">
        <ele>23</ele>
        <time>2018-07-18T09:21:24Z</time>
      </trkpt>
      <trkpt lat="47.76954" lon="-3.57073">
        <ele>23</ele>
        <time>2018-07-18T09:21:25Z</time>
      </trkpt>
      <trkpt lat="47.76954" lon="-3.57077">
        <ele>23</ele>
        <time>2018-07-18T09:21:26Z</time>
      </trkpt>
      <trkpt lat="47.76954" lon="-3.57082">
        <ele>23</ele>
        <time>2018-07-18T09:21:27Z</time>
      </trkpt>
      <trkpt lat="47.76954" lon="-3.57087">
        <ele>23</ele>
        <time>2018-07-18T09:21:28Z</time>
      </trkpt>
      <trkpt lat="47.76954" lon="-3.57091">
        <ele>23</ele>
        <time>2018-07-18T09:21:29Z</time>
      </trkpt>
      <trkpt lat="47.76954" lon="-3.57096">
        <ele>23</ele>
        <time>2018-07-18T09:21:30Z</time>
      </trkpt>
      <trkpt lat="47.76955" lon="-3.571">
        <ele>23</ele>
        <time>2018-07-18T09:21:31Z</time>
      </trkpt>
      <trkpt lat="47.76955" lon="-3.57105">
        <ele>23</ele>
        <time>2018-07-18T09:21:32Z</time>
      </trkpt>
      <trkpt lat="47.76955" lon="-3.5711">
        <ele>23</ele>
        <time>2018-07-18T09:21:33Z</time>
      </trkpt>
      <trkpt lat="47.76955" lon="-3.57115">
        <ele>23</ele>
        <time>2018-07-18T09:21:34Z</time>
      </trkpt>
      <trkpt lat="47.76954" lon="-3.57121">
        <ele>22</ele>
        <time>2018-07-18T09:21:35Z</time>
      </trkpt>
      <trkpt lat="47.76952" lon="-3.57127">
        <ele>22</ele>
        <time>2018-07-18T09:21:36Z</time>
      </trkpt>
      <trkpt lat="47.76952" lon="-3.57133">
        <ele>22</ele>
        <time>2018-07-18T09:21:37Z</time>
      </trkpt>
      <trkpt lat="47.76952" lon="-3.5714">
        <ele>22</ele>
        <time>2018-07-18T09:21:38Z</time>
      </trkpt>
      <trkpt lat="47.76953" lon="-3.57146">
        <ele>21</ele>
        <time>2018-07-18T09:21:39Z</time>
      </trkpt>
      <trkpt lat="47.76955" lon="-3.57152">
        <ele>21</ele>
        <time>2018-07-18T09:21:40Z</time>
      </trkpt>
      <trkpt lat="47.76955" lon="-3.57158">
        <ele>21</ele>
        <time>2018-07-18T09:21:41Z</time>
      </trkpt>
      <trkpt lat="47.76955" lon="-3.57164">
        <ele>21</ele>
        <time>2018-07-18T09:21:42Z</time>
      </trkpt>
      <trkpt lat="47.76955" lon="-3.57171">
        <ele>21</ele>
        <time>2018-07-18T09:21:43Z</time>
      </trkpt>
      <trkpt lat="47.76956" lon="-3.57178">
        <ele>21</ele>
        <time>2018-07-18T09:21:44Z</time>
      </trkpt>
      <trkpt lat="47.76958" lon="-3.57185">
        <ele>20</ele>
        <time>2018-07-18T09:21:45Z</time>
      </trkpt>
      <trkpt lat="47.7696" lon="-3.57191">
        <ele>20</ele>
        <time>2018-07-18T09:21:46Z</time>
      </trkpt>
      <trkpt lat="47.76963" lon="-3.57198">
        <ele>19</ele>
        <time>2018-07-18T09:21:47Z</time>
      </trkpt>
      <trkpt lat="47.76965" lon="-3.57205">
        <ele>19</ele>
        <time>2018-07-18T09:21:48Z</time>
      </trkpt>
      <trkpt lat="47.76968" lon="-3.57212">
        <ele>18</ele>
        <time>2018-07-18T09:21:49Z</time>
      </trkpt>
      <trkpt lat="47.7697" lon="-3.57218">
        <ele>18</ele>
        <time>2018-07-18T09:21:50Z</time>
      </trkpt>
      <trkpt lat="47.76971" lon="-3.57223">
        <ele>18</ele>
        <time>2018-07-18T09:21:51Z</time>
      </trkpt>
      <trkpt lat="47.76972" lon="-3.57228">
        <ele>17</ele>
        <time>2018-07-18T09:21:52Z</time>
      </trkpt>
      <trkpt lat="47.76973" lon="-3.57234">
        <ele>17</ele>
        <time>2018-07-18T09:21:53Z</time>
      </trkpt>
      <trkpt lat="47.76975" lon="-3.5724">
        <ele>17</ele>
        <time>2018-07-18T09:21:54Z</time>
      </trkpt>
      <trkpt lat="47.76977" lon="-3.57245">
        <ele>16</ele>
        <time>2018-07-18T09:21:55Z</time>
      </trkpt>
      <trkpt lat="47.7698" lon="-3.5725">
        <ele>15</ele>
        <time>2018-07-18T09:21:56Z</time>
      </trkpt>
      <trkpt lat="47.76982" lon="-3.57256">
        <ele>15</ele>
        <time>2018-07-18T09:21:57Z</time>
      </trkpt>
      <trkpt lat="47.76984" lon="-3.57261">
        <ele>14</ele>
        <time>2018-07-18T09:21:58Z</time>
      </trkpt>
      <trkpt lat="47.76985" lon="-3.57265">
        <ele>14</ele>
        <time>2018-07-18T09:21:59Z</time>
      </trkpt>
      <trkpt lat="47.76986" lon="-3.57269">
        <ele>13</ele>
        <time>2018-07-18T09:22:00Z</time>
      </trkpt>
      <trkpt lat="47.76987" lon="-3.57273">
        <ele>13</ele>
        <time>2018-07-18T09:22:01Z</time>
      </trkpt>
      <trkpt lat="47.76989" lon="-3.57276">
        <ele>13</ele>
        <time>2018-07-18T09:22:02Z</time>
      </trkpt>
      <trkpt lat="47.76992" lon="-3.57279">
        <ele>12</ele>
        <time>2018-07-18T09:22:03Z</time>
      </trkpt>
      <trkpt lat="47.76994" lon="-3.57283">
        <ele>12</ele>
        <time>2018-07-18T09:22:04Z</time>
      </trkpt>
      <trkpt lat="47.76997" lon="-3.57287">
        <ele>12</ele>
        <time>2018-07-18T09:22:05Z</time>
      </trkpt>
      <trkpt lat="47.76999" lon="-3.5729">
        <ele>11</ele>
        <time>2018-07-18T09:22:06Z</time>
      </trkpt>
      <trkpt lat="47.77" lon="-3.57292">
        <ele>11</ele>
        <time>2018-07-18T09:22:07Z</time>
      </trkpt>
      <trkpt lat="47.77" lon="-3.57293">
        <ele>11</ele>
        <time>2018-07-18T09:22:08Z</time>
      </trkpt>
      <trkpt lat="47.77" lon="-3.57293">
        <ele>11</ele>
        <time>2018-07-18T09:22:09Z</time>
      </trkpt>
      <trkpt lat="47.77" lon="-3.57293">
        <ele>10</ele>
        <time>2018-07-18T09:22:10Z</time>
      </trkpt>
      <trkpt lat="47.77" lon="-3.57293">
        <ele>10</ele>
        <time>2018-07-18T09:22:11Z</time>
      </trkpt>
      <trkpt lat="47.77001" lon="-3.57293">
        <ele>9</ele>
        <time>2018-07-18T09:22:12Z</time>
      </trkpt>
      <trkpt lat="47.77002" lon="-3.57295">
        <ele>9</ele>
        <time>2018-07-18T09:22:13Z</time>
      </trkpt>
      <trkpt lat="47.77003" lon="-3.57298">
        <ele>8</ele>
        <time>2018-07-18T09:22:14Z</time>
      </trkpt>
      <trkpt lat="47.77005" lon="-3.57302">
        <ele>8</ele>
        <time>2018-07-18T09:22:15Z</time>
      </trkpt>
      <trkpt lat="47.77008" lon="-3.57305">
        <ele>8</ele>
        <time>2018-07-18T09:22:16Z</time>
      </trkpt>
      <trkpt lat="47.7701" lon="-3.57308">
        <ele>7</ele>
        <time>2018-07-18T09:22:17Z</time>
      </trkpt>
      <trkpt lat="47.77012" lon="-3.57311">
        <ele>7</ele>
        <time>2018-07-18T09:22:18Z</time>
      </trkpt>
      <trkpt lat="47.77014" lon="-3.57314">
        <ele>7</ele>
        <time>2018-07-18T09:22:19Z</time>
      </trkpt>
      <trkpt lat="47.77015" lon="-3.57315">
        <ele>7</ele>
        <time>2018-07-18T09:22:20Z</time>
      </trkpt>
      <trkpt lat="47.77016" lon="-3.57316">
        <ele>7</ele>
        <time>2018-07-18T09:22:21Z</time>
      </trkpt>
      <trkpt lat="47.77017" lon="-3.57317">
        <ele>7</ele>
        <time>2018-07-18T09:22:22Z</time>
      </trkpt>
      <trkpt lat="47.77018" lon="-3.57319">
        <ele>7</ele>
        <time>2018-07-18T09:22:23Z</time>
      </trkpt>
      <trkpt lat="47.7702" lon="-3.57321">
        <ele>6</ele>
        <time>2018-07-18T09:22:24Z</time>
      </trkpt>
      <trkpt lat="47.77021" lon="-3.57324">
        <ele>6</ele>
        <time>2018-07-18T09:22:25Z</time>
      </trkpt>
      <trkpt lat="47.77022" lon="-3.57328">
        <ele>6</ele>
        <time>2018-07-18T09:22:26Z</time>
      </trkpt>
      <trkpt lat="47.77023" lon="-3.57331">
        <ele>6</ele>
        <time>2018-07-18T09:22:27Z</time>
      </trkpt>
      <trkpt lat="47.77023" lon="-3.57334">
        <ele>6</ele>
        <time>2018-07-18T09:22:28Z</time>
      </trkpt>
      <trkpt lat="47.77023" lon="-3.57336">
        <ele>6</ele>
        <time>2018-07-18T09:22:29Z</time>
      </trkpt>
      <trkpt lat="47.77021" lon="-3.57339">
        <ele>6</ele>
        <time>2018-07-18T09:22:30Z</time>
      </trkpt>
      <trkpt lat="47.7702" lon="-3.57341">
        <ele>6</ele>
        <time>2018-07-18T09:22:31Z</time>
      </trkpt>
      <trkpt lat="47.77018" lon="-3.57343">
        <ele>6</ele>
        <time>2018-07-18T09:22:32Z</time>
      </trkpt>
      <trkpt lat="47.77016" lon="-3.57343">
        <ele>6</ele>
        <time>2018-07-18T09:22:33Z</time>
      </trkpt>
      <trkpt lat="47.77014" lon="-3.57345">
        <ele>6</ele>
        <time>2018-07-18T09:22:34Z</time>
      </trkpt>
      <trkpt lat="47.77013" lon="-3.57346">
        <ele>6</ele>
        <time>2018-07-18T09:22:35Z</time>
      </trkpt>
      <trkpt lat="47.77011" lon="-3.57347">
        <ele>6</ele>
        <time>2018-07-18T09:22:36Z</time>
      </trkpt>
      <trkpt lat="47.77009" lon="-3.57348">
        <ele>6</ele>
        <time>2018-07-18T09:22:37Z</time>
      </trkpt>
      <trkpt lat="47.77007" lon="-3.5735">
        <ele>6</ele>
        <time>2018-07-18T09:22:38Z</time>
      </trkpt>
      <trkpt lat="47.77006" lon="-3.57351">
        <ele>6</ele>
        <time>2018-07-18T09:22:39Z</time>
      </trkpt>
      <trkpt lat="47.77004" lon="-3.57353">
        <ele>6</ele>
        <time>2018-07-18T09:22:40Z</time>
      </trkpt>
      <trkpt lat="47.77002" lon="-3.57354">
        <ele>6</ele>
        <time>2018-07-18T09:22:41Z</time>
      </trkpt>
      <trkpt lat="47.77" lon="-3.57356">
        <ele>6</ele>
        <time>2018-07-18T09:22:42Z</time>
      </trkpt>
      <trkpt lat="47.76998" lon="-3.57357">
        <ele>6</ele>
        <time>2018-07-18T09:22:43Z</time>
      </trkpt>
      <trkpt lat="47.76996" lon="-3.57358">
        <ele>6</ele>
        <time>2018-07-18T09:22:44Z</time>
      </trkpt>
      <trkpt lat="47.76994" lon="-3.57359">
        <ele>6</ele>
        <time>2018-07-18T09:22:45Z</time>
      </trkpt>
      <trkpt lat="47.76992" lon="-3.57359">
        <ele>6</ele>
        <time>2018-07-18T09:22:46Z</time>
      </trkpt>
      <trkpt lat="47.7699" lon="-3.5736">
        <ele>6</ele>
        <time>2018-07-18T09:22:47Z</time>
      </trkpt>
      <trkpt lat="47.76988" lon="-3.57361">
        <ele>6</ele>
        <time>2018-07-18T09:22:48Z</time>
      </trkpt>
      <trkpt lat="47.76987" lon="-3.57362">
        <ele>6</ele>
        <time>2018-07-18T09:22:49Z</time>
      </trkpt>
      <trkpt lat="47.76987" lon="-3.57364">
        <ele>7</ele>
        <time>2018-07-18T09:22:50Z</time>
      </trkpt>
      <trkpt lat="47.76988" lon="-3.57365">
        <ele>7</ele>
        <time>2018-07-18T09:22:51Z</time>
      </trkpt>
      <trkpt lat="47.7699" lon="-3.57365">
        <ele>7</ele>
        <time>2018-07-18T09:22:52Z</time>
      </trkpt>
      <trkpt lat="47.76992" lon="-3.57365">
        <ele>7</ele>
        <time>2018-07-18T09:22:53Z</time>
      </trkpt>
      <trkpt lat="47.76994" lon="-3.57366">
        <ele>7</ele>
        <time>2018-07-18T09:22:54Z</time>
      </trkpt>
      <trkpt lat="47.76996" lon="-3.57366">
        <ele>7</ele>
        <time>2018-07-18T09:22:55Z</time>
      </trkpt>
      <trkpt lat="47.76998" lon="-3.57366">
        <ele>7</ele>
        <time>2018-07-18T09:22:56Z</time>
      </trkpt>
      <trkpt lat="47.77" lon="-3.57366">
        <ele>7</ele>
        <time>2018-07-18T09:22:57Z</time>
      </trkpt>
      <trkpt lat="47.77002" lon="-3.57366">
        <ele>7</ele>
        <time>2018-07-18T09:22:58Z</time>
      </trkpt>
      <trkpt lat="47.77004" lon="-3.57366">
        <ele>7</ele>
        <time>2018-07-18T09:22:59Z</time>
      </trkpt>
      <trkpt lat="47.77006" lon="-3.57366">
        <ele>7</ele>
        <time>2018-07-18T09:23:00Z</time>
      </trkpt>
      <trkpt lat="47.77008" lon="-3.57367">
        <ele>8</ele>
        <time>2018-07-18T09:23:01Z</time>
      </trkpt>
      <trkpt lat="47.7701" lon="-3.57367">
        <ele>8</ele>
        <time>2018-07-18T09:23:02Z</time>
      </trkpt>
      <trkpt lat="47.77011" lon="-3.57367">
        <ele>8</ele>
        <time>2018-07-18T09:23:03Z</time>
      </trkpt>
      <trkpt lat="47.77013" lon="-3.57367">
        <ele>8</ele>
        <time>2018-07-18T09:23:04Z</time>
      </trkpt>
      <trkpt lat="47.77015" lon="-3.57367">
        <ele>8</ele>
        <time>2018-07-18T09:23:05Z</time>
      </trkpt>
      <trkpt lat="47.77017" lon="-3.57367">
        <ele>9</ele>
        <time>2018-07-18T09:23:06Z</time>
      </trkpt>
      <trkpt lat="47.77018" lon="-3.57367">
        <ele>9</ele>
        <time>2018-07-18T09:23:07Z</time>
      </trkpt>
      <trkpt lat="47.7702" lon="-3.57367">
        <ele>9</ele>
        <time>2018-07-18T09:23:08Z</time>
      </trkpt>
      <trkpt lat="47.77021" lon="-3.57367">
        <ele>9</ele>
        <time>2018-07-18T09:23:09Z</time>
      </trkpt>
      <trkpt lat="47.77023" lon="-3.57367">
        <ele>9</ele>
        <time>2018-07-18T09:23:10Z</time>
      </trkpt>
      <trkpt lat="47.77025" lon="-3.57367">
        <ele>10</ele>
        <time>2018-07-18T09:23:11Z</time>
      </trkpt>
      <trkpt lat="47.77027" lon="-3.57367">
        <ele>10</ele>
        <time>2018-07-18T09:23:12Z</time>
      </trkpt>
      <trkpt lat="47.77028" lon="-3.57367">
        <ele>10</ele>
        <time>2018-07-18T09:23:13Z</time>
      </trkpt>
      <trkpt lat="47.77029" lon="-3.57368">
        <ele>10</ele>
        <time>2018-07-18T09:23:14Z</time>
      </trkpt>
      <trkpt lat="47.7703" lon="-3.57368">
        <ele>10</ele>
        <time>2018-07-18T09:23:15Z</time>
      </trkpt>
      <trkpt lat="47.77032" lon="-3.57368">
        <ele>10</ele>
        <time>2018-07-18T09:23:16Z</time>
      </trkpt>
      <trkpt lat="47.77034" lon="-3.57369">
        <ele>10</ele>
        <time>2018-07-18T09:23:17Z</time>
      </trkpt>
      <trkpt lat="47.77036" lon="-3.5737">
        <ele>11</ele>
        <time>2018-07-18T09:23:18Z</time>
      </trkpt>
      <trkpt lat="47.77038" lon="-3.57372">
        <ele>11</ele>
        <time>2018-07-18T09:23:19Z</time>
      </trkpt>
      <trkpt lat="47.77039" lon="-3.57373">
        <ele>11</ele>
        <time>2018-07-18T09:23:20Z</time>
      </trkpt>
      <trkpt lat="47.77041" lon="-3.57375">
        <ele>11</ele>
        <time>2018-07-18T09:23:21Z</time>
      </trkpt>
      <trkpt lat="47.77043" lon="-3.57376">
        <ele>11</ele>
        <time>2018-07-18T09:23:22Z</time>
      </trkpt>
      <trkpt lat="47.77044" lon="-3.57378">
        <ele>11</ele>
        <time>2018-07-18T09:23:23Z</time>
      </trkpt>
      <trkpt lat="47.77046" lon="-3.57379">
        <ele>12</ele>
        <time>2018-07-18T09:23:24Z</time>
      </trkpt>
      <trkpt lat="47.77047" lon="-3.5738">
        <ele>12</ele>
        <time>2018-07-18T09:23:25Z</time>
      </trkpt>
      <trkpt lat="47.77049" lon="-3.57381">
        <ele>12</ele>
        <time>2018-07-18T09:23:26Z</time>
      </trkpt>
      <trkpt lat="47.77051" lon="-3.57382">
        <ele>13</ele>
        <time>2018-07-18T09:23:27Z</time>
      </trkpt>
      <trkpt lat="47.77052" lon="-3.57383">
        <ele>13</ele>
        <time>2018-07-18T09:23:28Z</time>
      </trkpt>
      <trkpt lat="47.77054" lon="-3.57384">
        <ele>13</ele>
        <time>2018-07-18T09:23:29Z</time>
      </trkpt>
      <trkpt lat="47.77055" lon="-3.57385">
        <ele>13</ele>
        <time>2018-07-18T09:23:30Z</time>
      </trkpt>
      <trkpt lat="47.77056" lon="-3.57386">
        <ele>14</ele>
        <time>2018-07-18T09:23:31Z</time>
      </trkpt>
      <trkpt lat="47.77057" lon="-3.57387">
        <ele>14</ele>
        <time>2018-07-18T09:23:32Z</time>
      </trkpt>
      <trkpt lat="47.77059" lon="-3.57388">
        <ele>14</ele>
        <time>2018-07-18T09:23:33Z</time>
      </trkpt>
      <trkpt lat="47.7706" lon="-3.57389">
        <ele>15</ele>
        <time>2018-07-18T09:23:34Z</time>
      </trkpt>
      <trkpt lat="47.77061" lon="-3.5739">
        <ele>15</ele>
        <time>2018-07-18T09:23:35Z</time>
      </trkpt>
      <trkpt lat="47.77062" lon="-3.57391">
        <ele>15</ele>
        <time>2018-07-18T09:23:36Z</time>
      </trkpt>
      <trkpt lat="47.77063" lon="-3.57392">
        <ele>16</ele>
        <time>2018-07-18T09:23:37Z</time>
      </trkpt>
      <trkpt lat="47.77064" lon="-3.57393">
        <ele>16</ele>
        <time>2018-07-18T09:23:38Z</time>
      </trkpt>
      <trkpt lat="47.77066" lon="-3.57395">
        <ele>16</ele>
        <time>2018-07-18T09:23:39Z</time>
      </trkpt>
      <trkpt lat="47.77067" lon="-3.57396">
        <ele>16</ele>
        <time>2018-07-18T09:23:40Z</time>
      </trkpt>
      <trkpt lat="47.77068" lon="-3.57397">
        <ele>17</ele>
        <time>2018-07-18T09:23:41Z</time>
      </trkpt>
      <trkpt lat="47.77069" lon="-3.57398">
        <ele>17</ele>
        <time>2018-07-18T09:23:42Z</time>
      </trkpt>
      <trkpt lat="47.77071" lon="-3.574">
        <ele>17</ele>
        <time>2018-07-18T09:23:43Z</time>
      </trkpt>
      <trkpt lat="47.77072" lon="-3.57402">
        <ele>18</ele>
        <time>2018-07-18T09:23:44Z</time>
      </trkpt>
      <trkpt lat="47.77074" lon="-3.57403">
        <ele>18</ele>
        <time>2018-07-18T09:23:45Z</time>
      </trkpt>
      <trkpt lat="47.77076" lon="-3.57404">
        <ele>19</ele>
        <time>2018-07-18T09:23:46Z</time>
      </trkpt>
      <trkpt lat="47.77078" lon="-3.57406">
        <ele>19</ele>
        <time>2018-07-18T09:23:47Z</time>
      </trkpt>
      <trkpt lat="47.7708" lon="-3.57408">
        <ele>20</ele>
        <time>2018-07-18T09:23:48Z</time>
      </trkpt>
      <trkpt lat="47.77081" lon="-3.57409">
        <ele>20</ele>
        <time>2018-07-18T09:23:49Z</time>
      </trkpt>
      <trkpt lat="47.77083" lon="-3.5741">
        <ele>21</ele>
        <time>2018-07-18T09:23:50Z</time>
      </trkpt>
      <trkpt lat="47.77084" lon="-3.57412">
        <ele>21</ele>
        <time>2018-07-18T09:23:51Z</time>
      </trkpt>
      <trkpt lat="47.77086" lon="-3.57413">
        <ele>21</ele>
        <time>2018-07-18T09:23:52Z</time>
      </trkpt>
      <trkpt lat="47.77087" lon="-3.57414">
        <ele>21</ele>
        <time>2018-07-18T09:23:53Z</time>
      </trkpt>
      <trkpt lat="47.77089" lon="-3.57415">
        <ele>22</ele>
        <time>2018-07-18T09:23:54Z</time>
      </trkpt>
      <trkpt lat="47.7709" lon="-3.57416">
        <ele>22</ele>
        <time>2018-07-18T09:23:55Z</time>
      </trkpt>
      <trkpt lat="47.77092" lon="-3.57417">
        <ele>22</ele>
        <time>2018-07-18T09:23:56Z</time>
      </trkpt>
      <trkpt lat="47.77094" lon="-3.57418">
        <ele>23</ele>
        <time>2018-07-18T09:23:57Z</time>
      </trkpt>
      <trkpt lat="47.77096" lon="-3.57418">
        <ele>23</ele>
        <time>2018-07-18T09:23:58Z</time>
      </trkpt>
      <trkpt lat="47.77097" lon="-3.57419">
        <ele>23</ele>
        <time>2018-07-18T09:23:59Z</time>
      </trkpt>
      <trkpt lat="47.77099" lon="-3.57419">
        <ele>23</ele>
        <time>2018-07-18T09:24:00Z</time>
      </trkpt>
      <trkpt lat="47.77101" lon="-3.57419">
        <ele>24</ele>
        <time>2018-07-18T09:24:01Z</time>
      </trkpt>
      <trkpt lat="47.77103" lon="-3.5742">
        <ele>24</ele>
        <time>2018-07-18T09:24:02Z</time>
      </trkpt>
      <trkpt lat="47.77105" lon="-3.5742">
        <ele>24</ele>
        <time>2018-07-18T09:24:03Z</time>
      </trkpt>
      <trkpt lat="47.77106" lon="-3.5742">
        <ele>24</ele>
        <time>2018-07-18T09:24:04Z</time>
      </trkpt>
      <trkpt lat="47.77108" lon="-3.57421">
        <ele>24</ele>
        <time>2018-07-18T09:24:05Z</time>
      </trkpt>
      <trkpt lat="47.7711" lon="-3.57421">
        <ele>25</ele>
        <time>2018-07-18T09:24:06Z</time>
      </trkpt>
      <trkpt lat="47.77112" lon="-3.57421">
        <ele>25</ele>
        <time>2018-07-18T09:24:07Z</time>
      </trkpt>
      <trkpt lat="47.77114" lon="-3.57421">
        <ele>25</ele>
        <time>2018-07-18T09:24:08Z</time>
      </trkpt>
      <trkpt lat="47.77116" lon="-3.57421">
        <ele>25</ele>
        <time>2018-07-18T09:24:09Z</time>
      </trkpt>
      <trkpt lat="47.77118" lon="-3.57422">
        <ele>26</ele>
        <time>2018-07-18T09:24:10Z</time>
      </trkpt>
      <trkpt lat="47.7712" lon="-3.57422">
        <ele>26</ele>
        <time>2018-07-18T09:24:11Z</time>
      </trkpt>
      <trkpt lat="47.77122" lon="-3.57422">
        <ele>26</ele>
        <time>2018-07-18T09:24:12Z</time>
      </trkpt>
      <trkpt lat="47.77123" lon="-3.57421">
        <ele>26</ele>
        <time>2018-07-18T09:24:13Z</time>
      </trkpt>
      <trkpt lat="47.77125" lon="-3.57419">
        <ele>26</ele>
        <time>2018-07-18T09:24:14Z</time>
      </trkpt>
      <trkpt lat="47.77126" lon="-3.57418">
        <ele>26</ele>
        <time>2018-07-18T09:24:15Z</time>
      </trkpt>
      <trkpt lat="47.77128" lon="-3.57417">
        <ele>27</ele>
        <time>2018-07-18T09:24:16Z</time>
      </trkpt>
      <trkpt lat="47.7713" lon="-3.57416">
        <ele>27</ele>
        <time>2018-07-18T09:24:17Z</time>
      </trkpt>
      <trkpt lat="47.77132" lon="-3.57416">
        <ele>27</ele>
        <time>2018-07-18T09:24:18Z</time>
      </trkpt>
      <trkpt lat="47.77135" lon="-3.57416">
        <ele>27</ele>
        <time>2018-07-18T09:24:19Z</time>
      </trkpt>
      <trkpt lat="47.77137" lon="-3.57417">
        <ele>27</ele>
        <time>2018-07-18T09:24:20Z</time>
      </trkpt>
      <trkpt lat="47.77139" lon="-3.57417">
        <ele>28</ele>
        <time>2018-07-18T09:24:21Z</time>
      </trkpt>
      <trkpt lat="47.77141" lon="-3.57418">
        <ele>28</ele>
        <time>2018-07-18T09:24:22Z</time>
      </trkpt>
      <trkpt lat="47.77143" lon="-3.57419">
        <ele>28</ele>
        <time>2018-07-18T09:24:23Z</time>
      </trkpt>
      <trkpt lat="47.77145" lon="-3.57421">
        <ele>28</ele>
        <time>2018-07-18T09:24:24Z</time>
      </trkpt>
      <trkpt lat="47.77146" lon="-3.57423">
        <ele>28</ele>
        <time>2018-07-18T09:24:25Z</time>
      </trkpt>
      <trkpt lat="47.77147" lon="-3.57425">
        <ele>28</ele>
        <time>2018-07-18T09:24:26Z</time>
      </trkpt>
      <trkpt lat="47.77147" lon="-3.57428">
        <ele>29</ele>
        <time>2018-07-18T09:24:27Z</time>
      </trkpt>
      <trkpt lat="47.77146" lon="-3.57431">
        <ele>29</ele>
        <time>2018-07-18T09:24:28Z</time>
      </trkpt>
      <trkpt lat="47.77145" lon="-3.57434">
        <ele>29</ele>
        <time>2018-07-18T09:24:29Z</time>
      </trkpt>
      <trkpt lat="47.77145" lon="-3.57438">
        <ele>29</ele>
        <time>2018-07-18T09:24:30Z</time>
      </trkpt>
      <trkpt lat="47.77144" lon="-3.57439">
        <ele>29</ele>
        <time>2018-07-18T09:24:31Z</time>
      </trkpt>
      <trkpt lat="47.77144" lon="-3.5744">
        <ele>30</ele>
        <time>2018-07-18T09:24:32Z</time>
      </trkpt>
      <trkpt lat="47.77144" lon="-3.5744">
        <ele>30</ele>
        <time>2018-07-18T09:24:33Z</time>
      </trkpt>
      <trkpt lat="47.77144" lon="-3.5744">
        <ele>30</ele>
        <time>2018-07-18T09:24:34Z</time>
      </trkpt>
      <trkpt lat="47.77144" lon="-3.5744">
        <ele>30</ele>
        <time>2018-07-18T09:24:35Z</time>
      </trkpt>
      <trkpt lat="47.77146" lon="-3.57441">
        <ele>31</ele>
        <time>2018-07-18T09:24:36Z</time>
      </trkpt>
      <trkpt lat="47.77146" lon="-3.57439">
        <ele>31</ele>
        <time>2018-07-18T09:24:37Z</time>
      </trkpt>
      <trkpt lat="47.77146" lon="-3.57438">
        <ele>31</ele>
        <time>2018-07-18T09:24:38Z</time>
      </trkpt>
      <trkpt lat="47.77147" lon="-3.57437">
        <ele>31</ele>
        <time>2018-07-18T09:24:39Z</time>
      </trkpt>
      <trkpt lat="47.77148" lon="-3.57435">
        <ele>31</ele>
        <time>2018-07-18T09:24:40Z</time>
      </trkpt>
      <trkpt lat="47.77149" lon="-3.57433">
        <ele>31</ele>
        <time>2018-07-18T09:24:41Z</time>
      </trkpt>
      <trkpt lat="47.7715" lon="-3.57431">
        <ele>31</ele>
        <time>2018-07-18T09:24:42Z</time>
      </trkpt>
      <trkpt lat="47.77151" lon="-3.57428">
        <ele>31</ele>
        <time>2018-07-18T09:24:43Z</time>
      </trkpt>
      <trkpt lat="47.77152" lon="-3.57425">
        <ele>31</ele>
        <time>2018-07-18T09:24:44Z</time>
      </trkpt>
      <trkpt lat="47.77153" lon="-3.57422">
        <ele>31</ele>
        <time>2018-07-18T09:24:45Z</time>
      </trkpt>
      <trkpt lat="47.77154" lon="-3.57418">
        <ele>31</ele>
        <time>2018-07-18T09:24:46Z</time>
      </trkpt>
      <trkpt lat="47.77155" lon="-3.57414">
        <ele>31</ele>
        <time>2018-07-18T09:24:47Z</time>
      </trkpt>
      <trkpt lat="47.77155" lon="-3.5741">
        <ele>31</ele>
        <time>2018-07-18T09:24:48Z</time>
      </trkpt>
      <trkpt lat="47.77155" lon="-3.57405">
        <ele>31</ele>
        <time>2018-07-18T09:24:49Z</time>
      </trkpt>
      <trkpt lat="47.77154" lon="-3.57401">
        <ele>31</ele>
        <time>2018-07-18T09:24:50Z</time>
      </trkpt>
      <trkpt lat="47.77153" lon="-3.57396">
        <ele>31</ele>
        <time>2018-07-18T09:24:51Z</time>
      </trkpt>
      <trkpt lat="47.77152" lon="-3.57392">
        <ele>31</ele>
        <time>2018-07-18T09:24:52Z</time>
      </trkpt>
      <trkpt lat="47.77152" lon="-3.57387">
        <ele>31</ele>
        <time>2018-07-18T09:24:53Z</time>
      </trkpt>
      <trkpt lat="47.77152" lon="-3.57381">
        <ele>30</ele>
        <time>2018-07-18T09:24:54Z</time>
      </trkpt>
      <trkpt lat="47.77153" lon="-3.57375">
        <ele>30</ele>
        <time>2018-07-18T09:24:55Z</time>
      </trkpt>
      <trkpt lat="47.77154" lon="-3.57369">
        <ele>30</ele>
        <time>2018-07-18T09:24:56Z</time>
      </trkpt>
      <trkpt lat="47.77156" lon="-3.57364">
        <ele>30</ele>
        <time>2018-07-18T09:24:57Z</time>
      </trkpt>
      <trkpt lat="47.77159" lon="-3.5736">
        <ele>30</ele>
        <time>2018-07-18T09:24:58Z</time>
      </trkpt>
      <trkpt lat="47.77162" lon="-3.57355">
        <ele>30</ele>
        <time>2018-07-18T09:24:59Z</time>
      </trkpt>
      <trkpt lat="47.77165" lon="-3.57352">
        <ele>29</ele>
        <time>2018-07-18T09:25:00Z</time>
      </trkpt>
      <trkpt lat="47.77168" lon="-3.57349">
        <ele>29</ele>
        <time>2018-07-18T09:25:01Z</time>
      </trkpt>
      <trkpt lat="47.77172" lon="-3.57346">
        <ele>29</ele>
        <time>2018-07-18T09:25:02Z</time>
      </trkpt>
      <trkpt lat="47.77177" lon="-3.57344">
        <ele>29</ele>
        <time>2018-07-18T09:25:03Z</time>
      </trkpt>
      <trkpt lat="47.77182" lon="-3.57343">
        <ele>29</ele>
        <time>2018-07-18T09:25:04Z</time>
      </trkpt>
      <trkpt lat="47.77187" lon="-3.57341">
        <ele>29</ele>
        <time>2018-07-18T09:25:05Z</time>
      </trkpt>
      <trkpt lat="47.77193" lon="-3.5734">
        <ele>29</ele>
        <time>2018-07-18T09:25:06Z</time>
      </trkpt>
      <trkpt lat="47.77199" lon="-3.5734">
        <ele>28</ele>
        <time>2018-07-18T09:25:07Z</time>
      </trkpt>
      <trkpt lat="47.77205" lon="-3.57339">
        <ele>28</ele>
        <time>2018-07-18T09:25:08Z</time>
      </trkpt>
      <trkpt lat="47.77211" lon="-3.57338">
        <ele>28</ele>
        <time>2018-07-18T09:25:09Z</time>
      </trkpt>
      <trkpt lat="47.77217" lon="-3.57337">
        <ele>28</ele>
        <time>2018-07-18T09:25:10Z</time>
      </trkpt>
      <trkpt lat="47.77223" lon="-3.57336">
        <ele>28</ele>
        <time>2018-07-18T09:25:11Z</time>
      </trkpt>
      <trkpt lat="47.77228" lon="-3.57336">
        <ele>28</ele>
        <time>2018-07-18T09:25:12Z</time>
      </trkpt>
      <trkpt lat="47.77233" lon="-3.57337">
        <ele>28</ele>
        <time>2018-07-18T09:25:13Z</time>
      </trkpt>
      <trkpt lat="47.77239" lon="-3.57338">
        <ele>28</ele>
        <time>2018-07-18T09:25:14Z</time>
      </trkpt>
      <trkpt lat="47.77246" lon="-3.57339">
        <ele>28</ele>
        <time>2018-07-18T09:25:15Z</time>
      </trkpt>
      <trkpt lat="47.77253" lon="-3.57339">
        <ele>27</ele>
        <time>2018-07-18T09:25:16Z</time>
      </trkpt>
      <trkpt lat="47.7726" lon="-3.57338">
        <ele>27</ele>
        <time>2018-07-18T09:25:17Z</time>
      </trkpt>
      <trkpt lat="47.77267" lon="-3.57338">
        <ele>27</ele>
        <time>2018-07-18T09:25:18Z</time>
      </trkpt>
      <trkpt lat="47.77273" lon="-3.57339">
        <ele>27</ele>
        <time>2018-07-18T09:25:19Z</time>
      </trkpt>
      <trkpt lat="47.77277" lon="-3.5734">
        <ele>27</ele>
        <time>2018-07-18T09:25:20Z</time>
      </trkpt>
      <trkpt lat="47.77279" lon="-3.5734">
        <ele>27</ele>
        <time>2018-07-18T09:25:21Z</time>
      </trkpt>
      <trkpt lat="47.77279" lon="-3.5734">
        <ele>27</ele>
        <time>2018-07-18T09:25:22Z</time>
      </trkpt>
      <trkpt lat="47.77279" lon="-3.5734">
        <ele>27</ele>
        <time>2018-07-18T09:25:23Z</time>
      </trkpt>
      <trkpt lat="47.7728" lon="-3.5734">
        <ele>27</ele>
        <time>2018-07-18T09:25:24Z</time>
      </trkpt>
      <trkpt lat="47.7728" lon="-3.5734">
        <ele>27</ele>
        <time>2018-07-18T09:25:25Z</time>
      </trkpt>
      <trkpt lat="47.77281" lon="-3.5734">
        <ele>27</ele>
        <time>2018-07-18T09:25:26Z</time>
      </trkpt>
      <trkpt lat="47.77283" lon="-3.5734">
        <ele>27</ele>
        <time>2018-07-18T09:25:27Z</time>
      </trkpt>
      <trkpt lat="47.77284" lon="-3.57339">
        <ele>27</ele>
        <time>2018-07-18T09:25:28Z</time>
      </trkpt>
      <trkpt lat="47.77286" lon="-3.57338">
        <ele>27</ele>
        <time>2018-07-18T09:25:29Z</time>
      </trkpt>
      <trkpt lat="47.77288" lon="-3.57335">
        <ele>27</ele>
        <time>2018-07-18T09:25:30Z</time>
      </trkpt>
      <trkpt lat="47.77289" lon="-3.57332">
        <ele>27</ele>
        <time>2018-07-18T09:25:31Z</time>
      </trkpt>
      <trkpt lat="47.77289" lon="-3.57327">
        <ele>27</ele>
        <time>2018-07-18T09:25:32Z</time>
      </trkpt>
      <trkpt lat="47.77289" lon="-3.57325">
        <ele>27</ele>
        <time>2018-07-18T09:25:33Z</time>
      </trkpt>
      <trkpt lat="47.77289" lon="-3.57322">
        <ele>27</ele>
        <time>2018-07-18T09:25:34Z</time>
      </trkpt>
      <trkpt lat="47.7729" lon="-3.5732">
        <ele>27</ele>
        <time>2018-07-18T09:25:35Z</time>
      </trkpt>
      <trkpt lat="47.7729" lon="-3.57318">
        <ele>27</ele>
        <time>2018-07-18T09:25:36Z</time>
      </trkpt>
      <trkpt lat="47.77289" lon="-3.57316">
        <ele>27</ele>
        <time>2018-07-18T09:25:37Z</time>
      </trkpt>
      <trkpt lat="47.7729" lon="-3.57313">
        <ele>27</ele>
        <time>2018-07-18T09:25:38Z</time>
      </trkpt>
      <trkpt lat="47.77291" lon="-3.57311">
        <ele>26</ele>
        <time>2018-07-18T09:25:39Z</time>
      </trkpt>
      <trkpt lat="47.77293" lon="-3.5731">
        <ele>26</ele>
        <time>2018-07-18T09:25:40Z</time>
      </trkpt>
      <trkpt lat="47.77294" lon="-3.57309">
        <ele>26</ele>
        <time>2018-07-18T09:25:41Z</time>
      </trkpt>
      <trkpt lat="47.77297" lon="-3.5731">
        <ele>26</ele>
        <time>2018-07-18T09:25:42Z</time>
      </trkpt>
      <trkpt lat="47.77299" lon="-3.5731">
        <ele>26</ele>
        <time>2018-07-18T09:25:43Z</time>
      </trkpt>
      <trkpt lat="47.773" lon="-3.57311">
        <ele>26</ele>
        <time>2018-07-18T09:25:44Z</time>
      </trkpt>
      <trkpt lat="47.77302" lon="-3.57311">
        <ele>27</ele>
        <time>2018-07-18T09:25:45Z</time>
      </trkpt>
      <trkpt lat="47.77304" lon="-3.57311">
        <ele>27</ele>
        <time>2018-07-18T09:25:46Z</time>
      </trkpt>
      <trkpt lat="47.77305" lon="-3.57312">
        <ele>27</ele>
        <time>2018-07-18T09:25:47Z</time>
      </trkpt>
      <trkpt lat="47.77306" lon="-3.57313">
        <ele>27</ele>
        <time>2018-07-18T09:25:48Z</time>
      </trkpt>
      <trkpt lat="47.77307" lon="-3.57314">
        <ele>27</ele>
        <time>2018-07-18T09:25:49Z</time>
      </trkpt>
      <trkpt lat="47.77309" lon="-3.57315">
        <ele>27</ele>
        <time>2018-07-18T09:25:50Z</time>
      </trkpt>
      <trkpt lat="47.7731" lon="-3.57317">
        <ele>27</ele>
        <time>2018-07-18T09:25:51Z</time>
      </trkpt>
      <trkpt lat="47.77312" lon="-3.57318">
        <ele>27</ele>
        <time>2018-07-18T09:25:52Z</time>
      </trkpt>
      <trkpt lat="47.77314" lon="-3.57319">
        <ele>27</ele>
        <time>2018-07-18T09:25:53Z</time>
      </trkpt>
      <trkpt lat="47.77316" lon="-3.5732">
        <ele>27</ele>
        <time>2018-07-18T09:25:54Z</time>
      </trkpt>
      <trkpt lat="47.77319" lon="-3.5732">
        <ele>28</ele>
        <time>2018-07-18T09:25:55Z</time>
      </trkpt>
      <trkpt lat="47.77321" lon="-3.5732">
        <ele>28</ele>
        <time>2018-07-18T09:25:56Z</time>
      </trkpt>
      <trkpt lat="47.77323" lon="-3.5732">
        <ele>28</ele>
        <time>2018-07-18T09:25:57Z</time>
      </trkpt>
      <trkpt lat="47.77324" lon="-3.5732">
        <ele>28</ele>
        <time>2018-07-18T09:25:58Z</time>
      </trkpt>
      <trkpt lat="47.77326" lon="-3.5732">
        <ele>28</ele>
        <time>2018-07-18T09:25:59Z</time>
      </trkpt>
      <trkpt lat="47.77329" lon="-3.5732">
        <ele>28</ele>
        <time>2018-07-18T09:26:00Z</time>
      </trkpt>
      <trkpt lat="47.77331" lon="-3.5732">
        <ele>28</ele>
        <time>2018-07-18T09:26:01Z</time>
      </trkpt>
      <trkpt lat="47.77333" lon="-3.5732">
        <ele>28</ele>
        <time>2018-07-18T09:26:02Z</time>
      </trkpt>
      <trkpt lat="47.77335" lon="-3.5732">
        <ele>29</ele>
        <time>2018-07-18T09:26:03Z</time>
      </trkpt>
      <trkpt lat="47.77337" lon="-3.5732">
        <ele>29</ele>
        <time>2018-07-18T09:26:04Z</time>
      </trkpt>
      <trkpt lat="47.77339" lon="-3.5732">
        <ele>29</ele>
        <time>2018-07-18T09:26:05Z</time>
      </trkpt>
      <trkpt lat="47.77342" lon="-3.5732">
        <ele>29</ele>
        <time>2018-07-18T09:26:06Z</time>
      </trkpt>
      <trkpt lat="47.77344" lon="-3.5732">
        <ele>29</ele>
        <time>2018-07-18T09:26:07Z</time>
      </trkpt>
      <trkpt lat="47.77347" lon="-3.57319">
        <ele>30</ele>
        <time>2018-07-18T09:26:08Z</time>
      </trkpt>
      <trkpt lat="47.7735" lon="-3.57319">
        <ele>30</ele>
        <time>2018-07-18T09:26:09Z</time>
      </trkpt>
      <trkpt lat="47.77352" lon="-3.57319">
        <ele>30</ele>
        <time>2018-07-18T09:26:10Z</time>
      </trkpt>
      <trkpt lat="47.77355" lon="-3.57318">
        <ele>30</ele>
        <time>2018-07-18T09:26:11Z</time>
      </trkpt>
      <trkpt lat="47.77358" lon="-3.57317">
        <ele>30</ele>
        <time>2018-07-18T09:26:12Z</time>
      </trkpt>
      <trkpt lat="47.7736" lon="-3.57317">
        <ele>30</ele>
        <time>2018-07-18T09:26:13Z</time>
      </trkpt>
      <trkpt lat="47.77363" lon="-3.57316">
        <ele>31</ele>
        <time>2018-07-18T09:26:14Z</time>
      </trkpt>
      <trkpt lat="47.77366" lon="-3.57315">
        <ele>31</ele>
        <time>2018-07-18T09:26:15Z</time>
      </trkpt>
      <trkpt lat="47.77369" lon="-3.57314">
        <ele>31</ele>
        <time>2018-07-18T09:26:16Z</time>
      </trkpt>
      <trkpt lat="47.77372" lon="-3.57314">
        <ele>31</ele>
        <time>2018-07-18T09:26:17Z</time>
      </trkpt>
      <trkpt lat="47.77374" lon="-3.57314">
        <ele>32</ele>
        <time>2018-07-18T09:26:18Z</time>
      </trkpt>
      <trkpt lat="47.77377" lon="-3.57313">
        <ele>32</ele>
        <time>2018-07-18T09:26:19Z</time>
      </trkpt>
      <trkpt lat="47.77379" lon="-3.57313">
        <ele>32</ele>
        <time>2018-07-18T09:26:20Z</time>
      </trkpt>
      <trkpt lat="47.77382" lon="-3.57311">
        <ele>32</ele>
        <time>2018-07-18T09:26:21Z</time>
      </trkpt>
      <trkpt lat="47.77385" lon="-3.5731">
        <ele>32</ele>
        <time>2018-07-18T09:26:22Z</time>
      </trkpt>
      <trkpt lat="47.77387" lon="-3.57309">
        <ele>32</ele>
        <time>2018-07-18T09:26:23Z</time>
      </trkpt>
      <trkpt lat="47.77389" lon="-3.57309">
        <ele>33</ele>
        <time>2018-07-18T09:26:24Z</time>
      </trkpt>
      <trkpt lat="47.77391" lon="-3.57307">
        <ele>33</ele>
        <time>2018-07-18T09:26:25Z</time>
      </trkpt>
      <trkpt lat="47.77394" lon="-3.57306">
        <ele>33</ele>
        <time>2018-07-18T09:26:26Z</time>
      </trkpt>
      <trkpt lat="47.77397" lon="-3.57304">
        <ele>33</ele>
        <time>2018-07-18T09:26:27Z</time>
      </trkpt>
      <trkpt lat="47.774" lon="-3.57303">
        <ele>33</ele>
        <time>2018-07-18T09:26:28Z</time>
      </trkpt>
      <trkpt lat="47.77403" lon="-3.57301">
        <ele>33</ele>
        <time>2018-07-18T09:26:29Z</time>
      </trkpt>
      <trkpt lat="47.77405" lon="-3.573">
        <ele>33</ele>
        <time>2018-07-18T09:26:30Z</time>
      </trkpt>
      <trkpt lat="47.77408" lon="-3.57298">
        <ele>33</ele>
        <time>2018-07-18T09:26:31Z</time>
      </trkpt>
      <trkpt lat="47.77411" lon="-3.57296">
        <ele>33</ele>
        <time>2018-07-18T09:26:32Z</time>
      </trkpt>
      <trkpt lat="47.77414" lon="-3.57295">
        <ele>33</ele>
        <time>2018-07-18T09:26:33Z</time>
      </trkpt>
      <trkpt lat="47.77418" lon="-3.57294">
        <ele>34</ele>
        <time>2018-07-18T09:26:34Z</time>
      </trkpt>
      <trkpt lat="47.77421" lon="-3.57293">
        <ele>34</ele>
        <time>2018-07-18T09:26:35Z</time>
      </trkpt>
      <trkpt lat="47.77424" lon="-3.57292">
        <ele>34</ele>
        <time>2018-07-18T09:26:36Z</time>
      </trkpt>
      <trkpt lat="47.77427" lon="-3.57292">
        <ele>34</ele>
        <time>2018-07-18T09:26:37Z</time>
      </trkpt>
      <trkpt lat="47.7743" lon="-3.57292">
        <ele>34</ele>
        <time>2018-07-18T09:26:38Z</time>
      </trkpt>
      <trkpt lat="47.77434" lon="-3.57291">
        <ele>34</ele>
        <time>2018-07-18T09:26:39Z</time>
      </trkpt>
      <trkpt lat="47.77437" lon="-3.57291">
        <ele>34</ele>
        <time>2018-07-18T09:26:40Z</time>
      </trkpt>
      <trkpt lat="47.77441" lon="-3.5729">
        <ele>34</ele>
        <time>2018-07-18T09:26:41Z</time>
      </trkpt>
      <trkpt lat="47.77444" lon="-3.57287">
        <ele>34</ele>
        <time>2018-07-18T09:26:42Z</time>
      </trkpt>
      <trkpt lat="47.77447" lon="-3.57285">
        <ele>34</ele>
        <time>2018-07-18T09:26:43Z</time>
      </trkpt>
      <trkpt lat="47.77451" lon="-3.57283">
        <ele>34</ele>
        <time>2018-07-18T09:26:44Z</time>
      </trkpt>
      <trkpt lat="47.77454" lon="-3.57281">
        <ele>34</ele>
        <time>2018-07-18T09:26:45Z</time>
      </trkpt>
      <trkpt lat="47.77457" lon="-3.57279">
        <ele>34</ele>
        <time>2018-07-18T09:26:46Z</time>
      </trkpt>
      <trkpt lat="47.7746" lon="-3.57276">
        <ele>35</ele>
        <time>2018-07-18T09:26:47Z</time>
      </trkpt>
      <trkpt lat="47.77462" lon="-3.57274">
        <ele>35</ele>
        <time>2018-07-18T09:26:48Z</time>
      </trkpt>
      <trkpt lat="47.77465" lon="-3.57273">
        <ele>35</ele>
        <time>2018-07-18T09:26:49Z</time>
      </trkpt>
      <trkpt lat="47.77468" lon="-3.57271">
        <ele>35</ele>
        <time>2018-07-18T09:26:50Z</time>
      </trkpt>
      <trkpt lat="47.77471" lon="-3.57268">
        <ele>35</ele>
        <time>2018-07-18T09:26:51Z</time>
      </trkpt>
      <trkpt lat="47.77475" lon="-3.57267">
        <ele>35</ele>
        <time>2018-07-18T09:26:52Z</time>
      </trkpt>
      <trkpt lat="47.77478" lon="-3.57265">
        <ele>35</ele>
        <time>2018-07-18T09:26:53Z</time>
      </trkpt>
      <trkpt lat="47.77481" lon="-3.57262">
        <ele>35</ele>
        <time>2018-07-18T09:26:54Z</time>
      </trkpt>
      <trkpt lat="47.77484" lon="-3.5726">
        <ele>35</ele>
        <time>2018-07-18T09:26:55Z</time>
      </trkpt>
      <trkpt lat="47.77487" lon="-3.57258">
        <ele>35</ele>
        <time>2018-07-18T09:26:56Z</time>
      </trkpt>
      <trkpt lat="47.77489" lon="-3.57255">
        <ele>35</ele>
        <time>2018-07-18T09:26:57Z</time>
      </trkpt>
      <trkpt lat="47.77491" lon="-3.57254">
        <ele>36</ele>
        <time>2018-07-18T09:26:58Z</time>
      </trkpt>
      <trkpt lat="47.77495" lon="-3.57252">
        <ele>36</ele>
        <time>2018-07-18T09:26:59Z</time>
      </trkpt>
      <trkpt lat="47.77498" lon="-3.57251">
        <ele>36</ele>
        <time>2018-07-18T09:27:00Z</time>
      </trkpt>
      <trkpt lat="47.77501" lon="-3.5725">
        <ele>36</ele>
        <time>2018-07-18T09:27:01Z</time>
      </trkpt>
      <trkpt lat="47.77504" lon="-3.57249">
        <ele>36</ele>
        <time>2018-07-18T09:27:02Z</time>
      </trkpt>
      <trkpt lat="47.77507" lon="-3.57248">
        <ele>36</ele>
        <time>2018-07-18T09:27:03Z</time>
      </trkpt>
      <trkpt lat="47.7751" lon="-3.57247">
        <ele>36</ele>
        <time>2018-07-18T09:27:04Z</time>
      </trkpt>
      <trkpt lat="47.77513" lon="-3.57247">
        <ele>37</ele>
        <time>2018-07-18T09:27:05Z</time>
      </trkpt>
      <trkpt lat="47.77516" lon="-3.57248">
        <ele>37</ele>
        <time>2018-07-18T09:27:06Z</time>
      </trkpt>
      <trkpt lat="47.77519" lon="-3.57248">
        <ele>37</ele>
        <time>2018-07-18T09:27:07Z</time>
      </trkpt>
      <trkpt lat="47.77522" lon="-3.57249">
        <ele>37</ele>
        <time>2018-07-18T09:27:08Z</time>
      </trkpt>
      <trkpt lat="47.77526" lon="-3.57249">
        <ele>37</ele>
        <time>2018-07-18T09:27:09Z</time>
      </trkpt>
      <trkpt lat="47.77529" lon="-3.57251">
        <ele>37</ele>
        <time>2018-07-18T09:27:10Z</time>
      </trkpt>
      <trkpt lat="47.77532" lon="-3.57252">
        <ele>37</ele>
        <time>2018-07-18T09:27:11Z</time>
      </trkpt>
      <trkpt lat="47.77534" lon="-3.57254">
        <ele>37</ele>
        <time>2018-07-18T09:27:12Z</time>
      </trkpt>
      <trkpt lat="47.77537" lon="-3.57256">
        <ele>37</ele>
        <time>2018-07-18T09:27:13Z</time>
      </trkpt>
      <trkpt lat="47.7754" lon="-3.57257">
        <ele>37</ele>
        <time>2018-07-18T09:27:14Z</time>
      </trkpt>
      <trkpt lat="47.77544" lon="-3.57258">
        <ele>37</ele>
        <time>2018-07-18T09:27:15Z</time>
      </trkpt>
      <trkpt lat="47.77547" lon="-3.57259">
        <ele>37</ele>
        <time>2018-07-18T09:27:16Z</time>
      </trkpt>
      <trkpt lat="47.77551" lon="-3.5726">
        <ele>37</ele>
        <time>2018-07-18T09:27:17Z</time>
      </trkpt>
      <trkpt lat="47.77554" lon="-3.57261">
        <ele>37</ele>
        <time>2018-07-18T09:27:18Z</time>
      </trkpt>
      <trkpt lat="47.77558" lon="-3.57261">
        <ele>37</ele>
        <time>2018-07-18T09:27:19Z</time>
      </trkpt>
      <trkpt lat="47.77562" lon="-3.57262">
        <ele>37</ele>
        <time>2018-07-18T09:27:20Z</time>
      </trkpt>
      <trkpt lat="47.77565" lon="-3.57263">
        <ele>37</ele>
        <time>2018-07-18T09:27:21Z</time>
      </trkpt>
      <trkpt lat="47.77569" lon="-3.57264">
        <ele>37</ele>
        <time>2018-07-18T09:27:22Z</time>
      </trkpt>
      <trkpt lat="47.77572" lon="-3.57265">
        <ele>37</ele>
        <time>2018-07-18T09:27:23Z</time>
      </trkpt>
      <trkpt lat="47.77576" lon="-3.57266">
        <ele>37</ele>
        <time>2018-07-18T09:27:24Z</time>
      </trkpt>
      <trkpt lat="47.7758" lon="-3.57267">
        <ele>37</ele>
        <time>2018-07-18T09:27:25Z</time>
      </trkpt>
      <trkpt lat="47.77584" lon="-3.57267">
        <ele>37</ele>
        <time>2018-07-18T09:27:26Z</time>
      </trkpt>
      <trkpt lat="47.77587" lon="-3.57267">
        <ele>37</ele>
        <time>2018-07-18T09:27:27Z</time>
      </trkpt>
      <trkpt lat="47.77591" lon="-3.57267">
        <ele>37</ele>
        <time>2018-07-18T09:27:28Z</time>
      </trkpt>
      <trkpt lat="47.77594" lon="-3.57268">
        <ele>37</ele>
        <time>2018-07-18T09:27:29Z</time>
      </trkpt>
      <trkpt lat="47.77597" lon="-3.57268">
        <ele>37</ele>
        <time>2018-07-18T09:27:30Z</time>
      </trkpt>
      <trkpt lat="47.77601" lon="-3.57269">
        <ele>37</ele>
        <time>2018-07-18T09:27:31Z</time>
      </trkpt>
      <trkpt lat="47.77604" lon="-3.5727">
        <ele>37</ele>
        <time>2018-07-18T09:27:32Z</time>
      </trkpt>
      <trkpt lat="47.77608" lon="-3.57271">
        <ele>37</ele>
        <time>2018-07-18T09:27:33Z</time>
      </trkpt>
      <trkpt lat="47.77611" lon="-3.57272">
        <ele>37</ele>
        <time>2018-07-18T09:27:34Z</time>
      </trkpt>
      <trkpt lat="47.77615" lon="-3.57273">
        <ele>37</ele>
        <time>2018-07-18T09:27:35Z</time>
      </trkpt>
      <trkpt lat="47.77618" lon="-3.57273">
        <ele>37</ele>
        <time>2018-07-18T09:27:36Z</time>
      </trkpt>
      <trkpt lat="47.77622" lon="-3.57274">
        <ele>37</ele>
        <time>2018-07-18T09:27:37Z</time>
      </trkpt>
      <trkpt lat="47.77625" lon="-3.57274">
        <ele>37</ele>
        <time>2018-07-18T09:27:38Z</time>
      </trkpt>
      <trkpt lat="47.77628" lon="-3.57274">
        <ele>37</ele>
        <time>2018-07-18T09:27:39Z</time>
      </trkpt>
      <trkpt lat="47.77632" lon="-3.57275">
        <ele>37</ele>
        <time>2018-07-18T09:27:40Z</time>
      </trkpt>
      <trkpt lat="47.77634" lon="-3.57278">
        <ele>37</ele>
        <time>2018-07-18T09:27:41Z</time>
      </trkpt>
      <trkpt lat="47.77637" lon="-3.57282">
        <ele>38</ele>
        <time>2018-07-18T09:27:42Z</time>
      </trkpt>
      <trkpt lat="47.77638" lon="-3.57286">
        <ele>38</ele>
        <time>2018-07-18T09:27:43Z</time>
      </trkpt>
      <trkpt lat="47.77638" lon="-3.57292">
        <ele>38</ele>
        <time>2018-07-18T09:27:44Z</time>
      </trkpt>
      <trkpt lat="47.77637" lon="-3.57297">
        <ele>38</ele>
        <time>2018-07-18T09:27:45Z</time>
      </trkpt>
      <trkpt lat="47.77636" lon="-3.57302">
        <ele>38</ele>
        <time>2018-07-18T09:27:46Z</time>
      </trkpt>
      <trkpt lat="47.77635" lon="-3.57308">
        <ele>38</ele>
        <time>2018-07-18T09:27:47Z</time>
      </trkpt>
      <trkpt lat="47.77635" lon="-3.57314">
        <ele>38</ele>
        <time>2018-07-18T09:27:48Z</time>
      </trkpt>
      <trkpt lat="47.77634" lon="-3.57319">
        <ele>38</ele>
        <time>2018-07-18T09:27:49Z</time>
      </trkpt>
      <trkpt lat="47.77633" lon="-3.57324">
        <ele>38</ele>
        <time>2018-07-18T09:27:50Z</time>
      </trkpt>
      <trkpt lat="47.77632" lon="-3.57329">
        <ele>39</ele>
        <time>2018-07-18T09:27:51Z</time>
      </trkpt>
      <trkpt lat="47.77631" lon="-3.57334">
        <ele>39</ele>
        <time>2018-07-18T09:27:52Z</time>
      </trkpt>
      <trkpt lat="47.77631" lon="-3.57339">
        <ele>39</ele>
        <time>2018-07-18T09:27:53Z</time>
      </trkpt>
      <trkpt lat="47.77631" lon="-3.57344">
        <ele>39</ele>
        <time>2018-07-18T09:27:54Z</time>
      </trkpt>
      <trkpt lat="47.77631" lon="-3.5735">
        <ele>39</ele>
        <time>2018-07-18T09:27:55Z</time>
      </trkpt>
      <trkpt lat="47.77631" lon="-3.57355">
        <ele>39</ele>
        <time>2018-07-18T09:27:56Z</time>
      </trkpt>
      <trkpt lat="47.77631" lon="-3.57359">
        <ele>39</ele>
        <time>2018-07-18T09:27:57Z</time>
      </trkpt>
      <trkpt lat="47.77631" lon="-3.57364">
        <ele>39</ele>
        <time>2018-07-18T09:27:58Z</time>
      </trkpt>
      <trkpt lat="47.7763" lon="-3.57369">
        <ele>40</ele>
        <time>2018-07-18T09:27:59Z</time>
      </trkpt>
      <trkpt lat="47.7763" lon="-3.57374">
        <ele>40</ele>
        <time>2018-07-18T09:28:00Z</time>
      </trkpt>
      <trkpt lat="47.7763" lon="-3.57379">
        <ele>40</ele>
        <time>2018-07-18T09:28:01Z</time>
      </trkpt>
      <trkpt lat="47.7763" lon="-3.57385">
        <ele>40</ele>
        <time>2018-07-18T09:28:02Z</time>
      </trkpt>
      <trkpt lat="47.7763" lon="-3.5739">
        <ele>40</ele>
        <time>2018-07-18T09:28:03Z</time>
      </trkpt>
      <trkpt lat="47.7763" lon="-3.57395">
        <ele>40</ele>
        <time>2018-07-18T09:28:04Z</time>
      </trkpt>
      <trkpt lat="47.7763" lon="-3.57397">
        <ele>40</ele>
        <time>2018-07-18T09:28:05Z</time>
      </trkpt>
      <trkpt lat="47.7763" lon="-3.57399">
        <ele>40</ele>
        <time>2018-07-18T09:28:06Z</time>
      </trkpt>
      <trkpt lat="47.7763" lon="-3.57399">
        <ele>40</ele>
        <time>2018-07-18T09:28:07Z</time>
      </trkpt>
      <trkpt lat="47.7763" lon="-3.57399">
        <ele>40</ele>
        <time>2018-07-18T09:28:08Z</time>
      </trkpt>
      <trkpt lat="47.7763" lon="-3.57399">
        <ele>40</ele>
        <time>2018-07-18T09:28:09Z</time>
      </trkpt>
      <trkpt lat="47.77629" lon="-3.57402">
        <ele>41</ele>
        <time>2018-07-18T09:28:10Z</time>
      </trkpt>
      <trkpt lat="47.77629" lon="-3.57405">
        <ele>40</ele>
        <time>2018-07-18T09:28:11Z</time>
      </trkpt>
      <trkpt lat="47.77629" lon="-3.57409">
        <ele>40</ele>
        <time>2018-07-18T09:28:12Z</time>
      </trkpt>
      <trkpt lat="47.77628" lon="-3.57414">
        <ele>40</ele>
        <time>2018-07-18T09:28:13Z</time>
      </trkpt>
      <trkpt lat="47.77628" lon="-3.57419">
        <ele>40</ele>
        <time>2018-07-18T09:28:14Z</time>
      </trkpt>
      <trkpt lat="47.77628" lon="-3.57424">
        <ele>40</ele>
        <time>2018-07-18T09:28:15Z</time>
      </trkpt>
      <trkpt lat="47.77628" lon="-3.57427">
        <ele>40</ele>
        <time>2018-07-18T09:28:16Z</time>
      </trkpt>
      <trkpt lat="47.77628" lon="-3.5743">
        <ele>40</ele>
        <time>2018-07-18T09:28:17Z</time>
      </trkpt>
      <trkpt lat="47.77628" lon="-3.57434">
        <ele>40</ele>
        <time>2018-07-18T09:28:18Z</time>
      </trkpt>
      <trkpt lat="47.77628" lon="-3.57437">
        <ele>40</ele>
        <time>2018-07-18T09:28:19Z</time>
      </trkpt>
      <trkpt lat="47.77627" lon="-3.57441">
        <ele>40</ele>
        <time>2018-07-18T09:28:20Z</time>
      </trkpt>
      <trkpt lat="47.77628" lon="-3.57444">
        <ele>40</ele>
        <time>2018-07-18T09:28:21Z</time>
      </trkpt>
      <trkpt lat="47.7763" lon="-3.57447">
        <ele>40</ele>
        <time>2018-07-18T09:28:22Z</time>
      </trkpt>
      <trkpt lat="47.77633" lon="-3.57448">
        <ele>40</ele>
        <time>2018-07-18T09:28:23Z</time>
      </trkpt>
      <trkpt lat="47.77635" lon="-3.57447">
        <ele>40</ele>
        <time>2018-07-18T09:28:24Z</time>
      </trkpt>
      <trkpt lat="47.77637" lon="-3.57445">
        <ele>40</ele>
        <time>2018-07-18T09:28:25Z</time>
      </trkpt>
      <trkpt lat="47.7764" lon="-3.57443">
        <ele>40</ele>
        <time>2018-07-18T09:28:26Z</time>
      </trkpt>
      <trkpt lat="47.77642" lon="-3.57442">
        <ele>40</ele>
        <time>2018-07-18T09:28:27Z</time>
      </trkpt>
      <trkpt lat="47.77644" lon="-3.5744">
        <ele>40</ele>
        <time>2018-07-18T09:28:28Z</time>
      </trkpt>
      <trkpt lat="47.77647" lon="-3.57438">
        <ele>40</ele>
        <time>2018-07-18T09:28:29Z</time>
      </trkpt>
      <trkpt lat="47.77649" lon="-3.57436">
        <ele>40</ele>
        <time>2018-07-18T09:28:30Z</time>
      </trkpt>
      <trkpt lat="47.77651" lon="-3.57435">
        <ele>40</ele>
        <time>2018-07-18T09:28:31Z</time>
      </trkpt>
      <trkpt lat="47.77653" lon="-3.57434">
        <ele>41</ele>
        <time>2018-07-18T09:28:32Z</time>
      </trkpt>
      <trkpt lat="47.77656" lon="-3.57433">
        <ele>41</ele>
        <time>2018-07-18T09:28:33Z</time>
      </trkpt>
      <trkpt lat="47.77658" lon="-3.57432">
        <ele>41</ele>
        <time>2018-07-18T09:28:34Z</time>
      </trkpt>
      <trkpt lat="47.77661" lon="-3.57431">
        <ele>41</ele>
        <time>2018-07-18T09:28:35Z</time>
      </trkpt>
      <trkpt lat="47.77663" lon="-3.5743">
        <ele>41</ele>
        <time>2018-07-18T09:28:36Z</time>
      </trkpt>
      <trkpt lat="47.77665" lon="-3.57429">
        <ele>41</ele>
        <time>2018-07-18T09:28:37Z</time>
      </trkpt>
      <trkpt lat="47.77668" lon="-3.57428">
        <ele>41</ele>
        <time>2018-07-18T09:28:38Z</time>
      </trkpt>
      <trkpt lat="47.7767" lon="-3.57426">
        <ele>41</ele>
        <time>2018-07-18T09:28:39Z</time>
      </trkpt>
      <trkpt lat="47.77673" lon="-3.57424">
        <ele>41</ele>
        <time>2018-07-18T09:28:40Z</time>
      </trkpt>
      <trkpt lat="47.77676" lon="-3.57424">
        <ele>41</ele>
        <time>2018-07-18T09:28:41Z</time>
      </trkpt>
      <trkpt lat="47.77679" lon="-3.57422">
        <ele>41</ele>
        <time>2018-07-18T09:28:42Z</time>
      </trkpt>
      <trkpt lat="47.77681" lon="-3.57421">
        <ele>41</ele>
        <time>2018-07-18T09:28:43Z</time>
      </trkpt>
      <trkpt lat="47.77685" lon="-3.5742">
        <ele>41</ele>
        <time>2018-07-18T09:28:44Z</time>
      </trkpt>
      <trkpt lat="47.7769" lon="-3.57419">
        <ele>41</ele>
        <time>2018-07-18T09:28:45Z</time>
      </trkpt>
      <trkpt lat="47.77694" lon="-3.57418">
        <ele>41</ele>
        <time>2018-07-18T09:28:46Z</time>
      </trkpt>
      <trkpt lat="47.77699" lon="-3.57416">
        <ele>41</ele>
        <time>2018-07-18T09:28:47Z</time>
      </trkpt>
      <trkpt lat="47.77704" lon="-3.57415">
        <ele>40</ele>
        <time>2018-07-18T09:28:48Z</time>
      </trkpt>
      <trkpt lat="47.77709" lon="-3.57414">
        <ele>40</ele>
        <time>2018-07-18T09:28:49Z</time>
      </trkpt>
      <trkpt lat="47.77713" lon="-3.57414">
        <ele>40</ele>
        <time>2018-07-18T09:28:50Z</time>
      </trkpt>
      <trkpt lat="47.77717" lon="-3.57413">
        <ele>40</ele>
        <time>2018-07-18T09:28:51Z</time>
      </trkpt>
      <trkpt lat="47.77722" lon="-3.57412">
        <ele>40</ele>
        <time>2018-07-18T09:28:52Z</time>
      </trkpt>
      <trkpt lat="47.77727" lon="-3.5741">
        <ele>41</ele>
        <time>2018-07-18T09:28:53Z</time>
      </trkpt>
      <trkpt lat="47.77732" lon="-3.57409">
        <ele>41</ele>
        <time>2018-07-18T09:28:54Z</time>
      </trkpt>
      <trkpt lat="47.77736" lon="-3.57407">
        <ele>41</ele>
        <time>2018-07-18T09:28:55Z</time>
      </trkpt>
      <trkpt lat="47.77742" lon="-3.57405">
        <ele>41</ele>
        <time>2018-07-18T09:28:56Z</time>
      </trkpt>
      <trkpt lat="47.77747" lon="-3.57404">
        <ele>41</ele>
        <time>2018-07-18T09:28:57Z</time>
      </trkpt>
      <trkpt lat="47.77752" lon="-3.57402">
        <ele>41</ele>
        <time>2018-07-18T09:28:58Z</time>
      </trkpt>
      <trkpt lat="47.77757" lon="-3.574">
        <ele>41</ele>
        <time>2018-07-18T09:28:59Z</time>
      </trkpt>
      <trkpt lat="47.77762" lon="-3.57398">
        <ele>41</ele>
        <time>2018-07-18T09:29:00Z</time>
      </trkpt>
      <trkpt lat="47.77766" lon="-3.57396">
        <ele>42</ele>
        <time>2018-07-18T09:29:01Z</time>
      </trkpt>
      <trkpt lat="47.7777" lon="-3.57395">
        <ele>42</ele>
        <time>2018-07-18T09:29:02Z</time>
      </trkpt>
      <trkpt lat="47.77775" lon="-3.57395">
        <ele>42</ele>
        <time>2018-07-18T09:29:03Z</time>
      </trkpt>
      <trkpt lat="47.77779" lon="-3.57395">
        <ele>42</ele>
        <time>2018-07-18T09:29:04Z</time>
      </trkpt>
      <trkpt lat="47.77784" lon="-3.57394">
        <ele>42</ele>
        <time>2018-07-18T09:29:05Z</time>
      </trkpt>
      <trkpt lat="47.77789" lon="-3.57392">
        <ele>42</ele>
        <time>2018-07-18T09:29:06Z</time>
      </trkpt>
      <trkpt lat="47.77793" lon="-3.57391">
        <ele>42</ele>
        <time>2018-07-18T09:29:07Z</time>
      </trkpt>
      <trkpt lat="47.77798" lon="-3.5739">
        <ele>42</ele>
        <time>2018-07-18T09:29:08Z</time>
      </trkpt>
      <trkpt lat="47.77803" lon="-3.57389">
        <ele>42</ele>
        <time>2018-07-18T09:29:09Z</time>
      </trkpt>
      <trkpt lat="47.77808" lon="-3.57387">
        <ele>42</ele>
        <time>2018-07-18T09:29:10Z</time>
      </trkpt>
      <trkpt lat="47.77813" lon="-3.57386">
        <ele>43</ele>
        <time>2018-07-18T09:29:11Z</time>
      </trkpt>
      <trkpt lat="47.77817" lon="-3.57385">
        <ele>43</ele>
        <time>2018-07-18T09:29:12Z</time>
      </trkpt>
      <trkpt lat="47.77822" lon="-3.57383">
        <ele>43</ele>
        <time>2018-07-18T09:29:13Z</time>
      </trkpt>
      <trkpt lat="47.77827" lon="-3.57382">
        <ele>43</ele>
        <time>2018-07-18T09:29:14Z</time>
      </trkpt>
      <trkpt lat="47.77831" lon="-3.57379">
        <ele>43</ele>
        <time>2018-07-18T09:29:15Z</time>
      </trkpt>
      <trkpt lat="47.77835" lon="-3.57377">
        <ele>43</ele>
        <time>2018-07-18T09:29:16Z</time>
      </trkpt>
      <trkpt lat="47.77839" lon="-3.57375">
        <ele>43</ele>
        <time>2018-07-18T09:29:17Z</time>
      </trkpt>
      <trkpt lat="47.77843" lon="-3.57373">
        <ele>43</ele>
        <time>2018-07-18T09:29:18Z</time>
      </trkpt>
      <trkpt lat="47.77848" lon="-3.57372">
        <ele>43</ele>
        <time>2018-07-18T09:29:19Z</time>
      </trkpt>
      <trkpt lat="47.77852" lon="-3.57372">
        <ele>44</ele>
        <time>2018-07-18T09:29:20Z</time>
      </trkpt>
      <trkpt lat="47.77857" lon="-3.57371">
        <ele>44</ele>
        <time>2018-07-18T09:29:21Z</time>
      </trkpt>
      <trkpt lat="47.77861" lon="-3.5737">
        <ele>44</ele>
        <time>2018-07-18T09:29:22Z</time>
      </trkpt>
      <trkpt lat="47.77866" lon="-3.57369">
        <ele>44</ele>
        <time>2018-07-18T09:29:23Z</time>
      </trkpt>
      <trkpt lat="47.7787" lon="-3.57367">
        <ele>44</ele>
        <time>2018-07-18T09:29:24Z</time>
      </trkpt>
      <trkpt lat="47.77875" lon="-3.57366">
        <ele>44</ele>
        <time>2018-07-18T09:29:25Z</time>
      </trkpt>
      <trkpt lat="47.77879" lon="-3.57366">
        <ele>44</ele>
        <time>2018-07-18T09:29:26Z</time>
      </trkpt>
      <trkpt lat="47.77884" lon="-3.57365">
        <ele>44</ele>
        <time>2018-07-18T09:29:27Z</time>
      </trkpt>
      <trkpt lat="47.77888" lon="-3.57363">
        <ele>44</ele>
        <time>2018-07-18T09:29:28Z</time>
      </trkpt>
      <trkpt lat="47.77893" lon="-3.57362">
        <ele>44</ele>
        <time>2018-07-18T09:29:29Z</time>
      </trkpt>
      <trkpt lat="47.77898" lon="-3.57362">
        <ele>44</ele>
        <time>2018-07-18T09:29:30Z</time>
      </trkpt>
      <trkpt lat="47.77903" lon="-3.57361">
        <ele>44</ele>
        <time>2018-07-18T09:29:31Z</time>
      </trkpt>
      <trkpt lat="47.77907" lon="-3.5736">
        <ele>44</ele>
        <time>2018-07-18T09:29:32Z</time>
      </trkpt>
      <trkpt lat="47.77912" lon="-3.5736">
        <ele>44</ele>
        <time>2018-07-18T09:29:33Z</time>
      </trkpt>
      <trkpt lat="47.77916" lon="-3.5736">
        <ele>44</ele>
        <time>2018-07-18T09:29:34Z</time>
      </trkpt>
      <trkpt lat="47.7792" lon="-3.5736">
        <ele>45</ele>
        <time>2018-07-18T09:29:35Z</time>
      </trkpt>
      <trkpt lat="47.77925" lon="-3.57359">
        <ele>45</ele>
        <time>2018-07-18T09:29:36Z</time>
      </trkpt>
      <trkpt lat="47.7793" lon="-3.57359">
        <ele>45</ele>
        <time>2018-07-18T09:29:37Z</time>
      </trkpt>
      <trkpt lat="47.77934" lon="-3.57359">
        <ele>45</ele>
        <time>2018-07-18T09:29:38Z</time>
      </trkpt>
      <trkpt lat="47.77939" lon="-3.57359">
        <ele>45</ele>
        <time>2018-07-18T09:29:39Z</time>
      </trkpt>
      <trkpt lat="47.77943" lon="-3.57359">
        <ele>45</ele>
        <time>2018-07-18T09:29:40Z</time>
      </trkpt>
      <trkpt lat="47.77948" lon="-3.57359">
        <ele>45</ele>
        <time>2018-07-18T09:29:41Z</time>
      </trkpt>
      <trkpt lat="47.77953" lon="-3.57359">
        <ele>45</ele>
        <time>2018-07-18T09:29:42Z</time>
      </trkpt>
      <trkpt lat="47.77958" lon="-3.57358">
        <ele>46</ele>
        <time>2018-07-18T09:29:43Z</time>
      </trkpt>
      <trkpt lat="47.77963" lon="-3.57357">
        <ele>46</ele>
        <time>2018-07-18T09:29:44Z</time>
      </trkpt>
      <trkpt lat="47.77969" lon="-3.57357">
        <ele>46</ele>
        <time>2018-07-18T09:29:45Z</time>
      </trkpt>
      <trkpt lat="47.77974" lon="-3.57357">
        <ele>46</ele>
        <time>2018-07-18T09:29:46Z</time>
      </trkpt>
      <trkpt lat="47.77978" lon="-3.57358">
        <ele>46</ele>
        <time>2018-07-18T09:29:47Z</time>
      </trkpt>
      <trkpt lat="47.77983" lon="-3.57358">
        <ele>46</ele>
        <time>2018-07-18T09:29:48Z</time>
      </trkpt>
      <trkpt lat="47.77987" lon="-3.57357">
        <ele>46</ele>
        <time>2018-07-18T09:29:49Z</time>
      </trkpt>
      <trkpt lat="47.77992" lon="-3.57357">
        <ele>46</ele>
        <time>2018-07-18T09:29:50Z</time>
      </trkpt>
      <trkpt lat="47.77997" lon="-3.57358">
        <ele>46</ele>
        <time>2018-07-18T09:29:51Z</time>
      </trkpt>
      <trkpt lat="47.78001" lon="-3.57361">
        <ele>46</ele>
        <time>2018-07-18T09:29:52Z</time>
      </trkpt>
      <trkpt lat="47.78003" lon="-3.57366">
        <ele>46</ele>
        <time>2018-07-18T09:29:53Z</time>
      </trkpt>
      <trkpt lat="47.78006" lon="-3.57371">
        <ele>46</ele>
        <time>2018-07-18T09:29:54Z</time>
      </trkpt>
      <trkpt lat="47.78009" lon="-3.57376">
        <ele>46</ele>
        <time>2018-07-18T09:29:55Z</time>
      </trkpt>
      <trkpt lat="47.78011" lon="-3.57383">
        <ele>46</ele>
        <time>2018-07-18T09:29:56Z</time>
      </trkpt>
      <trkpt lat="47.78014" lon="-3.57391">
        <ele>46</ele>
        <time>2018-07-18T09:29:57Z</time>
      </trkpt>
      <trkpt lat="47.78015" lon="-3.57397">
        <ele>46</ele>
        <time>2018-07-18T09:29:58Z</time>
      </trkpt>
      <trkpt lat="47.78018" lon="-3.57403">
        <ele>46</ele>
        <time>2018-07-18T09:29:59Z</time>
      </trkpt>
      <trkpt lat="47.78021" lon="-3.57409">
        <ele>46</ele>
        <time>2018-07-18T09:30:00Z</time>
      </trkpt>
      <trkpt lat="47.78024" lon="-3.57413">
        <ele>47</ele>
        <time>2018-07-18T09:30:01Z</time>
      </trkpt>
      <trkpt lat="47.78027" lon="-3.57417">
        <ele>47</ele>
        <time>2018-07-18T09:30:02Z</time>
      </trkpt>
      <trkpt lat="47.7803" lon="-3.57421">
        <ele>47</ele>
        <time>2018-07-18T09:30:03Z</time>
      </trkpt>
      <trkpt lat="47.78032" lon="-3.57424">
        <ele>47</ele>
        <time>2018-07-18T09:30:04Z</time>
      </trkpt>
      <trkpt lat="47.78035" lon="-3.57428">
        <ele>47</ele>
        <time>2018-07-18T09:30:05Z</time>
      </trkpt>
      <trkpt lat="47.78038" lon="-3.57431">
        <ele>47</ele>
        <time>2018-07-18T09:30:06Z</time>
      </trkpt>
      <trkpt lat="47.78039" lon="-3.57433">
        <ele>47</ele>
        <time>2018-07-18T09:30:07Z</time>
      </trkpt>
      <trkpt lat="47.78041" lon="-3.57436">
        <ele>47</ele>
        <time>2018-07-18T09:30:08Z</time>
      </trkpt>
      <trkpt lat="47.78043" lon="-3.57438">
        <ele>47</ele>
        <time>2018-07-18T09:30:09Z</time>
      </trkpt>
      <trkpt lat="47.78045" lon="-3.57441">
        <ele>47</ele>
        <time>2018-07-18T09:30:10Z</time>
      </trkpt>
      <trkpt lat="47.78046" lon="-3.57443">
        <ele>46</ele>
        <time>2018-07-18T09:30:11Z</time>
      </trkpt>
      <trkpt lat="47.78048" lon="-3.57446">
        <ele>46</ele>
        <time>2018-07-18T09:30:12Z</time>
      </trkpt>
      <trkpt lat="47.78051" lon="-3.57449">
        <ele>46</ele>
        <time>2018-07-18T09:30:13Z</time>
      </trkpt>
      <trkpt lat="47.78054" lon="-3.57453">
        <ele>46</ele>
        <time>2018-07-18T09:30:14Z</time>
      </trkpt>
      <trkpt lat="47.78056" lon="-3.57456">
        <ele>46</ele>
        <time>2018-07-18T09:30:15Z</time>
      </trkpt>
      <trkpt lat="47.78057" lon="-3.57459">
        <ele>46</ele>
        <time>2018-07-18T09:30:16Z</time>
      </trkpt>
      <trkpt lat="47.78057" lon="-3.57462">
        <ele>46</ele>
        <time>2018-07-18T09:30:17Z</time>
      </trkpt>
      <trkpt lat="47.78056" lon="-3.57467">
        <ele>46</ele>
        <time>2018-07-18T09:30:18Z</time>
      </trkpt>
      <trkpt lat="47.78056" lon="-3.57472">
        <ele>47</ele>
        <time>2018-07-18T09:30:19Z</time>
      </trkpt>
      <trkpt lat="47.78057" lon="-3.57477">
        <ele>47</ele>
        <time>2018-07-18T09:30:20Z</time>
      </trkpt>
      <trkpt lat="47.7806" lon="-3.57481">
        <ele>46</ele>
        <time>2018-07-18T09:30:21Z</time>
      </trkpt>
      <trkpt lat="47.78063" lon="-3.57486">
        <ele>46</ele>
        <time>2018-07-18T09:30:22Z</time>
      </trkpt>
      <trkpt lat="47.78067" lon="-3.5749">
        <ele>46</ele>
        <time>2018-07-18T09:30:23Z</time>
      </trkpt>
      <trkpt lat="47.78071" lon="-3.57493">
        <ele>45</ele>
        <time>2018-07-18T09:30:24Z</time>
      </trkpt>
      <trkpt lat="47.78075" lon="-3.57496">
        <ele>45</ele>
        <time>2018-07-18T09:30:25Z</time>
      </trkpt>
      <trkpt lat="47.78079" lon="-3.575">
        <ele>45</ele>
        <time>2018-07-18T09:30:26Z</time>
      </trkpt>
      <trkpt lat="47.78083" lon="-3.57504">
        <ele>44</ele>
        <time>2018-07-18T09:30:27Z</time>
      </trkpt>
      <trkpt lat="47.78087" lon="-3.57507">
        <ele>44</ele>
        <time>2018-07-18T09:30:28Z</time>
      </trkpt>
      <trkpt lat="47.78091" lon="-3.5751">
        <ele>44</ele>
        <time>2018-07-18T09:30:29Z</time>
      </trkpt>
      <trkpt lat="47.78095" lon="-3.57514">
        <ele>44</ele>
        <time>2018-07-18T09:30:30Z</time>
      </trkpt>
      <trkpt lat="47.781" lon="-3.57517">
        <ele>43</ele>
        <time>2018-07-18T09:30:31Z</time>
      </trkpt>
      <trkpt lat="47.78104" lon="-3.5752">
        <ele>43</ele>
        <time>2018-07-18T09:30:32Z</time>
      </trkpt>
      <trkpt lat="47.78107" lon="-3.57524">
        <ele>43</ele>
        <time>2018-07-18T09:30:33Z</time>
      </trkpt>
      <trkpt lat="47.78111" lon="-3.57527">
        <ele>43</ele>
        <time>2018-07-18T09:30:34Z</time>
      </trkpt>
      <trkpt lat="47.78115" lon="-3.57531">
        <ele>43</ele>
        <time>2018-07-18T09:30:35Z</time>
      </trkpt>
      <trkpt lat="47.78119" lon="-3.57534">
        <ele>43</ele>
        <time>2018-07-18T09:30:36Z</time>
      </trkpt>
      <trkpt lat="47.78123" lon="-3.57537">
        <ele>42</ele>
        <time>2018-07-18T09:30:37Z</time>
      </trkpt>
      <trkpt lat="47.78126" lon="-3.57541">
        <ele>42</ele>
        <time>2018-07-18T09:30:38Z</time>
      </trkpt>
      <trkpt lat="47.78129" lon="-3.57546">
        <ele>42</ele>
        <time>2018-07-18T09:30:39Z</time>
      </trkpt>
      <trkpt lat="47.7813" lon="-3.57551">
        <ele>43</ele>
        <time>2018-07-18T09:30:40Z</time>
      </trkpt>
      <trkpt lat="47.78131" lon="-3.57557">
        <ele>43</ele>
        <time>2018-07-18T09:30:41Z</time>
      </trkpt>
      <trkpt lat="47.78131" lon="-3.57564">
        <ele>43</ele>
        <time>2018-07-18T09:30:42Z</time>
      </trkpt>
      <trkpt lat="47.7813" lon="-3.57571">
        <ele>43</ele>
        <time>2018-07-18T09:30:43Z</time>
      </trkpt>
      <trkpt lat="47.7813" lon="-3.57577">
        <ele>43</ele>
        <time>2018-07-18T09:30:44Z</time>
      </trkpt>
      <trkpt lat="47.7813" lon="-3.57584">
        <ele>43</ele>
        <time>2018-07-18T09:30:45Z</time>
      </trkpt>
      <trkpt lat="47.7813" lon="-3.5759">
        <ele>43</ele>
        <time>2018-07-18T09:30:46Z</time>
      </trkpt>
      <trkpt lat="47.7813" lon="-3.57597">
        <ele>44</ele>
        <time>2018-07-18T09:30:47Z</time>
      </trkpt>
      <trkpt lat="47.78129" lon="-3.57603">
        <ele>44</ele>
        <time>2018-07-18T09:30:48Z</time>
      </trkpt>
      <trkpt lat="47.78129" lon="-3.5761">
        <ele>44</ele>
        <time>2018-07-18T09:30:49Z</time>
      </trkpt>
      <trkpt lat="47.78129" lon="-3.57617">
        <ele>44</ele>
        <time>2018-07-18T09:30:50Z</time>
      </trkpt>
      <trkpt lat="47.78129" lon="-3.57623">
        <ele>44</ele>
        <time>2018-07-18T09:30:51Z</time>
      </trkpt>
      <trkpt lat="47.78129" lon="-3.5763">
        <ele>44</ele>
        <time>2018-07-18T09:30:52Z</time>
      </trkpt>
      <trkpt lat="47.78129" lon="-3.57636">
        <ele>45</ele>
        <time>2018-07-18T09:30:53Z</time>
      </trkpt>
      <trkpt lat="47.7813" lon="-3.57643">
        <ele>45</ele>
        <time>2018-07-18T09:30:54Z</time>
      </trkpt>
      <trkpt lat="47.78131" lon="-3.57649">
        <ele>45</ele>
        <time>2018-07-18T09:30:55Z</time>
      </trkpt>
      <trkpt lat="47.78132" lon="-3.57655">
        <ele>45</ele>
        <time>2018-07-18T09:30:56Z</time>
      </trkpt>
      <trkpt lat="47.78133" lon="-3.57661">
        <ele>45</ele>
        <time>2018-07-18T09:30:57Z</time>
      </trkpt>
      <trkpt lat="47.78135" lon="-3.57668">
        <ele>45</ele>
        <time>2018-07-18T09:30:58Z</time>
      </trkpt>
      <trkpt lat="47.78136" lon="-3.57674">
        <ele>45</ele>
        <time>2018-07-18T09:30:59Z</time>
      </trkpt>
      <trkpt lat="47.78137" lon="-3.57679">
        <ele>45</ele>
        <time>2018-07-18T09:31:00Z</time>
      </trkpt>
      <trkpt lat="47.78138" lon="-3.57684">
        <ele>45</ele>
        <time>2018-07-18T09:31:01Z</time>
      </trkpt>
      <trkpt lat="47.78138" lon="-3.57691">
        <ele>45</ele>
        <time>2018-07-18T09:31:02Z</time>
      </trkpt>
      <trkpt lat="47.78139" lon="-3.57697">
        <ele>45</ele>
        <time>2018-07-18T09:31:03Z</time>
      </trkpt>
      <trkpt lat="47.7814" lon="-3.57702">
        <ele>45</ele>
        <time>2018-07-18T09:31:04Z</time>
      </trkpt>
      <trkpt lat="47.78141" lon="-3.57707">
        <ele>45</ele>
        <time>2018-07-18T09:31:05Z</time>
      </trkpt>
      <trkpt lat="47.78141" lon="-3.57713">
        <ele>45</ele>
        <time>2018-07-18T09:31:06Z</time>
      </trkpt>
      <trkpt lat="47.7814" lon="-3.5772">
        <ele>45</ele>
        <time>2018-07-18T09:31:07Z</time>
      </trkpt>
      <trkpt lat="47.78138" lon="-3.57726">
        <ele>45</ele>
        <time>2018-07-18T09:31:08Z</time>
      </trkpt>
      <trkpt lat="47.78138" lon="-3.57733">
        <ele>45</ele>
        <time>2018-07-18T09:31:09Z</time>
      </trkpt>
      <trkpt lat="47.78138" lon="-3.5774">
        <ele>45</ele>
        <time>2018-07-18T09:31:10Z</time>
      </trkpt>
      <trkpt lat="47.7814" lon="-3.57747">
        <ele>45</ele>
        <time>2018-07-18T09:31:11Z</time>
      </trkpt>
      <trkpt lat="47.78141" lon="-3.57753">
        <ele>45</ele>
        <time>2018-07-18T09:31:12Z</time>
      </trkpt>
      <trkpt lat="47.78142" lon="-3.5776">
        <ele>45</ele>
        <time>2018-07-18T09:31:13Z</time>
      </trkpt>
      <trkpt lat="47.78141" lon="-3.57766">
        <ele>44</ele>
        <time>2018-07-18T09:31:14Z</time>
      </trkpt>
      <trkpt lat="47.7814" lon="-3.57771">
        <ele>44</ele>
        <time>2018-07-18T09:31:15Z</time>
      </trkpt>
      <trkpt lat="47.78139" lon="-3.57777">
        <ele>44</ele>
        <time>2018-07-18T09:31:16Z</time>
      </trkpt>
      <trkpt lat="47.78138" lon="-3.57782">
        <ele>44</ele>
        <time>2018-07-18T09:31:17Z</time>
      </trkpt>
      <trkpt lat="47.78137" lon="-3.57787">
        <ele>44</ele>
        <time>2018-07-18T09:31:18Z</time>
      </trkpt>
      <trkpt lat="47.78136" lon="-3.57792">
        <ele>44</ele>
        <time>2018-07-18T09:31:19Z</time>
      </trkpt>
      <trkpt lat="47.78135" lon="-3.57797">
        <ele>44</ele>
        <time>2018-07-18T09:31:20Z</time>
      </trkpt>
      <trkpt lat="47.78135" lon="-3.57802">
        <ele>44</ele>
        <time>2018-07-18T09:31:21Z</time>
      </trkpt>
      <trkpt lat="47.78135" lon="-3.57806">
        <ele>44</ele>
        <time>2018-07-18T09:31:22Z</time>
      </trkpt>
      <trkpt lat="47.78135" lon="-3.57808">
        <ele>44</ele>
        <time>2018-07-18T09:31:23Z</time>
      </trkpt>
      <trkpt lat="47.78135" lon="-3.57809">
        <ele>44</ele>
        <time>2018-07-18T09:31:24Z</time>
      </trkpt>
      <trkpt lat="47.78135" lon="-3.5781">
        <ele>44</ele>
        <time>2018-07-18T09:31:25Z</time>
      </trkpt>
      <trkpt lat="47.78134" lon="-3.57811">
        <ele>44</ele>
        <time>2018-07-18T09:31:26Z</time>
      </trkpt>
      <trkpt lat="47.78134" lon="-3.57812">
        <ele>44</ele>
        <time>2018-07-18T09:31:27Z</time>
      </trkpt>
      <trkpt lat="47.78134" lon="-3.57813">
        <ele>44</ele>
        <time>2018-07-18T09:31:28Z</time>
      </trkpt>
      <trkpt lat="47.78134" lon="-3.57814">
        <ele>44</ele>
        <time>2018-07-18T09:31:29Z</time>
      </trkpt>
      <trkpt lat="47.78134" lon="-3.57815">
        <ele>44</ele>
        <time>2018-07-18T09:31:30Z</time>
      </trkpt>
      <trkpt lat="47.78134" lon="-3.57815">
        <ele>44</ele>
        <time>2018-07-18T09:31:31Z</time>
      </trkpt>
      <trkpt lat="47.78134" lon="-3.57816">
        <ele>44</ele>
        <time>2018-07-18T09:31:32Z</time>
      </trkpt>
      <trkpt lat="47.78133" lon="-3.57822">
        <ele>44</ele>
        <time>2018-07-18T09:31:33Z</time>
      </trkpt>
      <trkpt lat="47.78132" lon="-3.57824">
        <ele>44</ele>
        <time>2018-07-18T09:31:34Z</time>
      </trkpt>
      <trkpt lat="47.78131" lon="-3.57826">
        <ele>43</ele>
        <time>2018-07-18T09:31:35Z</time>
      </trkpt>
      <trkpt lat="47.78129" lon="-3.57829">
        <ele>43</ele>
        <time>2018-07-18T09:31:36Z</time>
      </trkpt>
      <trkpt lat="47.78127" lon="-3.57831">
        <ele>43</ele>
        <time>2018-07-18T09:31:37Z</time>
      </trkpt>
      <trkpt lat="47.78125" lon="-3.57834">
        <ele>43</ele>
        <time>2018-07-18T09:31:38Z</time>
      </trkpt>
      <trkpt lat="47.78123" lon="-3.57836">
        <ele>43</ele>
        <time>2018-07-18T09:31:39Z</time>
      </trkpt>
      <trkpt lat="47.7812" lon="-3.57838">
        <ele>43</ele>
        <time>2018-07-18T09:31:40Z</time>
      </trkpt>
      <trkpt lat="47.78116" lon="-3.57839">
        <ele>43</ele>
        <time>2018-07-18T09:31:41Z</time>
      </trkpt>
      <trkpt lat="47.78113" lon="-3.57839">
        <ele>43</ele>
        <time>2018-07-18T09:31:42Z</time>
      </trkpt>
      <trkpt lat="47.7811" lon="-3.5784">
        <ele>42</ele>
        <time>2018-07-18T09:31:43Z</time>
      </trkpt>
      <trkpt lat="47.78106" lon="-3.57841">
        <ele>42</ele>
        <time>2018-07-18T09:31:44Z</time>
      </trkpt>
      <trkpt lat="47.78103" lon="-3.57841">
        <ele>42</ele>
        <time>2018-07-18T09:31:45Z</time>
      </trkpt>
      <trkpt lat="47.78099" lon="-3.57841">
        <ele>42</ele>
        <time>2018-07-18T09:31:46Z</time>
      </trkpt>
      <trkpt lat="47.78095" lon="-3.57842">
        <ele>42</ele>
        <time>2018-07-18T09:31:47Z</time>
      </trkpt>
      <trkpt lat="47.78092" lon="-3.57842">
        <ele>42</ele>
        <time>2018-07-18T09:31:48Z</time>
      </trkpt>
      <trkpt lat="47.78089" lon="-3.57842">
        <ele>42</ele>
        <time>2018-07-18T09:31:49Z</time>
      </trkpt>
      <trkpt lat="47.78085" lon="-3.57842">
        <ele>42</ele>
        <time>2018-07-18T09:31:50Z</time>
      </trkpt>
      <trkpt lat="47.7808" lon="-3.57842">
        <ele>42</ele>
        <time>2018-07-18T09:31:51Z</time>
      </trkpt>
      <trkpt lat="47.78075" lon="-3.57842">
        <ele>42</ele>
        <time>2018-07-18T09:31:52Z</time>
      </trkpt>
      <trkpt lat="47.78071" lon="-3.57842">
        <ele>42</ele>
        <time>2018-07-18T09:31:53Z</time>
      </trkpt>
      <trkpt lat="47.78065" lon="-3.57842">
        <ele>42</ele>
        <time>2018-07-18T09:31:54Z</time>
      </trkpt>
      <trkpt lat="47.7806" lon="-3.57841">
        <ele>42</ele>
        <time>2018-07-18T09:31:55Z</time>
      </trkpt>
      <trkpt lat="47.78056" lon="-3.57841">
        <ele>41</ele>
        <time>2018-07-18T09:31:56Z</time>
      </trkpt>
      <trkpt lat="47.78052" lon="-3.5784">
        <ele>41</ele>
        <time>2018-07-18T09:31:57Z</time>
      </trkpt>
      <trkpt lat="47.78047" lon="-3.57838">
        <ele>41</ele>
        <time>2018-07-18T09:31:58Z</time>
      </trkpt>
      <trkpt lat="47.78042" lon="-3.57835">
        <ele>41</ele>
        <time>2018-07-18T09:31:59Z</time>
      </trkpt>
      <trkpt lat="47.78037" lon="-3.57832">
        <ele>41</ele>
        <time>2018-07-18T09:32:00Z</time>
      </trkpt>
      <trkpt lat="47.78033" lon="-3.57828">
        <ele>41</ele>
        <time>2018-07-18T09:32:01Z</time>
      </trkpt>
      <trkpt lat="47.78028" lon="-3.57825">
        <ele>40</ele>
        <time>2018-07-18T09:32:02Z</time>
      </trkpt>
      <trkpt lat="47.78023" lon="-3.57822">
        <ele>40</ele>
        <time>2018-07-18T09:32:03Z</time>
      </trkpt>
      <trkpt lat="47.78018" lon="-3.57819">
        <ele>40</ele>
        <time>2018-07-18T09:32:04Z</time>
      </trkpt>
      <trkpt lat="47.78014" lon="-3.57817">
        <ele>40</ele>
        <time>2018-07-18T09:32:05Z</time>
      </trkpt>
      <trkpt lat="47.78009" lon="-3.57814">
        <ele>39</ele>
        <time>2018-07-18T09:32:06Z</time>
      </trkpt>
      <trkpt lat="47.78003" lon="-3.57813">
        <ele>39</ele>
        <time>2018-07-18T09:32:07Z</time>
      </trkpt>
      <trkpt lat="47.77998" lon="-3.57811">
        <ele>39</ele>
        <time>2018-07-18T09:32:08Z</time>
      </trkpt>
      <trkpt lat="47.77993" lon="-3.57809">
        <ele>38</ele>
        <time>2018-07-18T09:32:09Z</time>
      </trkpt>
      <trkpt lat="47.77988" lon="-3.57808">
        <ele>38</ele>
        <time>2018-07-18T09:32:10Z</time>
      </trkpt>
      <trkpt lat="47.77983" lon="-3.57807">
        <ele>38</ele>
        <time>2018-07-18T09:32:11Z</time>
      </trkpt>
      <trkpt lat="47.77978" lon="-3.57805">
        <ele>38</ele>
        <time>2018-07-18T09:32:12Z</time>
      </trkpt>
      <trkpt lat="47.77973" lon="-3.57804">
        <ele>37</ele>
        <time>2018-07-18T09:32:13Z</time>
      </trkpt>
      <trkpt lat="47.77967" lon="-3.57802">
        <ele>37</ele>
        <time>2018-07-18T09:32:14Z</time>
      </trkpt>
      <trkpt lat="47.7796" lon="-3.57803">
        <ele>37</ele>
        <time>2018-07-18T09:32:15Z</time>
      </trkpt>
      <trkpt lat="47.77954" lon="-3.57804">
        <ele>37</ele>
        <time>2018-07-18T09:32:16Z</time>
      </trkpt>
      <trkpt lat="47.77948" lon="-3.57806">
        <ele>37</ele>
        <time>2018-07-18T09:32:17Z</time>
      </trkpt>
      <trkpt lat="47.77942" lon="-3.57806">
        <ele>37</ele>
        <time>2018-07-18T09:32:18Z</time>
      </trkpt>
      <trkpt lat="47.77937" lon="-3.57807">
        <ele>37</ele>
        <time>2018-07-18T09:32:19Z</time>
      </trkpt>
      <trkpt lat="47.77931" lon="-3.57806">
        <ele>37</ele>
        <time>2018-07-18T09:32:20Z</time>
      </trkpt>
      <trkpt lat="47.77925" lon="-3.57806">
        <ele>37</ele>
        <time>2018-07-18T09:32:21Z</time>
      </trkpt>
      <trkpt lat="47.77919" lon="-3.57808">
        <ele>37</ele>
        <time>2018-07-18T09:32:22Z</time>
      </trkpt>
      <trkpt lat="47.77914" lon="-3.5781">
        <ele>36</ele>
        <time>2018-07-18T09:32:23Z</time>
      </trkpt>
      <trkpt lat="47.7791" lon="-3.57813">
        <ele>36</ele>
        <time>2018-07-18T09:32:24Z</time>
      </trkpt>
      <trkpt lat="47.77908" lon="-3.57816">
        <ele>36</ele>
        <time>2018-07-18T09:32:25Z</time>
      </trkpt>
      <trkpt lat="47.77908" lon="-3.57821">
        <ele>36</ele>
        <time>2018-07-18T09:32:26Z</time>
      </trkpt>
      <trkpt lat="47.77909" lon="-3.57826">
        <ele>36</ele>
        <time>2018-07-18T09:32:27Z</time>
      </trkpt>
      <trkpt lat="47.7791" lon="-3.57831">
        <ele>36</ele>
        <time>2018-07-18T09:32:28Z</time>
      </trkpt>
      <trkpt lat="47.77911" lon="-3.57836">
        <ele>36</ele>
        <time>2018-07-18T09:32:29Z</time>
      </trkpt>
      <trkpt lat="47.77912" lon="-3.57842">
        <ele>36</ele>
        <time>2018-07-18T09:32:30Z</time>
      </trkpt>
      <trkpt lat="47.77913" lon="-3.57846">
        <ele>36</ele>
        <time>2018-07-18T09:32:31Z</time>
      </trkpt>
      <trkpt lat="47.77914" lon="-3.57852">
        <ele>36</ele>
        <time>2018-07-18T09:32:32Z</time>
      </trkpt>
      <trkpt lat="47.77915" lon="-3.57856">
        <ele>36</ele>
        <time>2018-07-18T09:32:33Z</time>
      </trkpt>
      <trkpt lat="47.77917" lon="-3.57861">
        <ele>36</ele>
        <time>2018-07-18T09:32:34Z</time>
      </trkpt>
      <trkpt lat="47.77918" lon="-3.57866">
        <ele>36</ele>
        <time>2018-07-18T09:32:35Z</time>
      </trkpt>
      <trkpt lat="47.77919" lon="-3.57871">
        <ele>36</ele>
        <time>2018-07-18T09:32:36Z</time>
      </trkpt>
      <trkpt lat="47.7792" lon="-3.57876">
        <ele>36</ele>
        <time>2018-07-18T09:32:37Z</time>
      </trkpt>
      <trkpt lat="47.77921" lon="-3.57881">
        <ele>36</ele>
        <time>2018-07-18T09:32:38Z</time>
      </trkpt>
      <trkpt lat="47.77922" lon="-3.57887">
        <ele>36</ele>
        <time>2018-07-18T09:32:39Z</time>
      </trkpt>
      <trkpt lat="47.77923" lon="-3.57892">
        <ele>36</ele>
        <time>2018-07-18T09:32:40Z</time>
      </trkpt>
      <trkpt lat="47.77923" lon="-3.57898">
        <ele>36</ele>
        <time>2018-07-18T09:32:41Z</time>
      </trkpt>
      <trkpt lat="47.77923" lon="-3.57903">
        <ele>36</ele>
        <time>2018-07-18T09:32:42Z</time>
      </trkpt>
      <trkpt lat="47.77924" lon="-3.5791">
        <ele>36</ele>
        <time>2018-07-18T09:32:43Z</time>
      </trkpt>
      <trkpt lat="47.77924" lon="-3.57915">
        <ele>36</ele>
        <time>2018-07-18T09:32:44Z</time>
      </trkpt>
      <trkpt lat="47.77924" lon="-3.57921">
        <ele>36</ele>
        <time>2018-07-18T09:32:45Z</time>
      </trkpt>
      <trkpt lat="47.77925" lon="-3.57927">
        <ele>36</ele>
        <time>2018-07-18T09:32:46Z</time>
      </trkpt>
      <trkpt lat="47.77925" lon="-3.57934">
        <ele>36</ele>
        <time>2018-07-18T09:32:47Z</time>
      </trkpt>
      <trkpt lat="47.77925" lon="-3.5794">
        <ele>36</ele>
        <time>2018-07-18T09:32:48Z</time>
      </trkpt>
      <trkpt lat="47.77926" lon="-3.57947">
        <ele>36</ele>
        <time>2018-07-18T09:32:49Z</time>
      </trkpt>
      <trkpt lat="47.77926" lon="-3.57951">
        <ele>36</ele>
        <time>2018-07-18T09:32:50Z</time>
      </trkpt>
      <trkpt lat="47.77926" lon="-3.57956">
        <ele>36</ele>
        <time>2018-07-18T09:32:51Z</time>
      </trkpt>
      <trkpt lat="47.77926" lon="-3.5796">
        <ele>36</ele>
        <time>2018-07-18T09:32:52Z</time>
      </trkpt>
      <trkpt lat="47.77926" lon="-3.57965">
        <ele>36</ele>
        <time>2018-07-18T09:32:53Z</time>
      </trkpt>
      <trkpt lat="47.77926" lon="-3.57971">
        <ele>36</ele>
        <time>2018-07-18T09:32:54Z</time>
      </trkpt>
      <trkpt lat="47.77926" lon="-3.57976">
        <ele>36</ele>
        <time>2018-07-18T09:32:55Z</time>
      </trkpt>
      <trkpt lat="47.77926" lon="-3.57982">
        <ele>36</ele>
        <time>2018-07-18T09:32:56Z</time>
      </trkpt>
      <trkpt lat="47.77926" lon="-3.57986">
        <ele>37</ele>
        <time>2018-07-18T09:32:57Z</time>
      </trkpt>
      <trkpt lat="47.77925" lon="-3.57992">
        <ele>37</ele>
        <time>2018-07-18T09:32:58Z</time>
      </trkpt>
      <trkpt lat="47.77923" lon="-3.57997">
        <ele>37</ele>
        <time>2018-07-18T09:32:59Z</time>
      </trkpt>
      <trkpt lat="47.77922" lon="-3.58002">
        <ele>37</ele>
        <time>2018-07-18T09:33:00Z</time>
      </trkpt>
      <trkpt lat="47.77922" lon="-3.58004">
        <ele>37</ele>
        <time>2018-07-18T09:33:01Z</time>
      </trkpt>
      <trkpt lat="47.77921" lon="-3.58006">
        <ele>37</ele>
        <time>2018-07-18T09:33:02Z</time>
      </trkpt>
      <trkpt lat="47.77921" lon="-3.58008">
        <ele>37</ele>
        <time>2018-07-18T09:33:03Z</time>
      </trkpt>
      <trkpt lat="47.7792" lon="-3.5801">
        <ele>37</ele>
        <time>2018-07-18T09:33:04Z</time>
      </trkpt>
      <trkpt lat="47.7792" lon="-3.58012">
        <ele>37</ele>
        <time>2018-07-18T09:33:05Z</time>
      </trkpt>
      <trkpt lat="47.7792" lon="-3.58013">
        <ele>37</ele>
        <time>2018-07-18T09:33:06Z</time>
      </trkpt>
      <trkpt lat="47.7792" lon="-3.58015">
        <ele>37</ele>
        <time>2018-07-18T09:33:07Z</time>
      </trkpt>
      <trkpt lat="47.77919" lon="-3.58016">
        <ele>37</ele>
        <time>2018-07-18T09:33:08Z</time>
      </trkpt>
      <trkpt lat="47.77919" lon="-3.58017">
        <ele>37</ele>
        <time>2018-07-18T09:33:09Z</time>
      </trkpt>
      <trkpt lat="47.77919" lon="-3.58018">
        <ele>37</ele>
        <time>2018-07-18T09:33:10Z</time>
      </trkpt>
      <trkpt lat="47.77919" lon="-3.58019">
        <ele>37</ele>
        <time>2018-07-18T09:33:11Z</time>
      </trkpt>
      <trkpt lat="47.77918" lon="-3.5802">
        <ele>38</ele>
        <time>2018-07-18T09:33:12Z</time>
      </trkpt>
      <trkpt lat="47.77918" lon="-3.58021">
        <ele>38</ele>
        <time>2018-07-18T09:33:13Z</time>
      </trkpt>
      <trkpt lat="47.77918" lon="-3.58022">
        <ele>38</ele>
        <time>2018-07-18T09:33:14Z</time>
      </trkpt>
      <trkpt lat="47.77918" lon="-3.58022">
        <ele>38</ele>
        <time>2018-07-18T09:33:15Z</time>
      </trkpt>
      <trkpt lat="47.77918" lon="-3.58023">
        <ele>38</ele>
        <time>2018-07-18T09:33:16Z</time>
      </trkpt>
      <trkpt lat="47.77916" lon="-3.58029">
        <ele>38</ele>
        <time>2018-07-18T09:33:17Z</time>
      </trkpt>
      <trkpt lat="47.77915" lon="-3.58029">
        <ele>38</ele>
        <time>2018-07-18T09:33:18Z</time>
      </trkpt>
      <trkpt lat="47.77914" lon="-3.58028">
        <ele>38</ele>
        <time>2018-07-18T09:33:19Z</time>
      </trkpt>
      <trkpt lat="47.77913" lon="-3.58027">
        <ele>38</ele>
        <time>2018-07-18T09:33:20Z</time>
      </trkpt>
      <trkpt lat="47.77911" lon="-3.58026">
        <ele>38</ele>
        <time>2018-07-18T09:33:21Z</time>
      </trkpt>
      <trkpt lat="47.7791" lon="-3.58026">
        <ele>38</ele>
        <time>2018-07-18T09:33:22Z</time>
      </trkpt>
      <trkpt lat="47.77909" lon="-3.58025">
        <ele>38</ele>
        <time>2018-07-18T09:33:23Z</time>
      </trkpt>
      <trkpt lat="47.77907" lon="-3.58024">
        <ele>38</ele>
        <time>2018-07-18T09:33:24Z</time>
      </trkpt>
      <trkpt lat="47.77904" lon="-3.58024">
        <ele>38</ele>
        <time>2018-07-18T09:33:25Z</time>
      </trkpt>
      <trkpt lat="47.77902" lon="-3.58022">
        <ele>38</ele>
        <time>2018-07-18T09:33:26Z</time>
      </trkpt>
      <trkpt lat="47.779" lon="-3.58022">
        <ele>38</ele>
        <time>2018-07-18T09:33:27Z</time>
      </trkpt>
      <trkpt lat="47.77898" lon="-3.58021">
        <ele>38</ele>
        <time>2018-07-18T09:33:28Z</time>
      </trkpt>
      <trkpt lat="47.77897" lon="-3.58021">
        <ele>38</ele>
        <time>2018-07-18T09:33:29Z</time>
      </trkpt>
      <trkpt lat="47.77897" lon="-3.58021">
        <ele>38</ele>
        <time>2018-07-18T09:33:30Z</time>
      </trkpt>
      <trkpt lat="47.77897" lon="-3.58021">
        <ele>38</ele>
        <time>2018-07-18T09:33:31Z</time>
      </trkpt>
      <trkpt lat="47.77896" lon="-3.58021">
        <ele>38</ele>
        <time>2018-07-18T09:33:32Z</time>
      </trkpt>
      <trkpt lat="47.77895" lon="-3.58021">
        <ele>38</ele>
        <time>2018-07-18T09:33:33Z</time>
      </trkpt>
      <trkpt lat="47.77894" lon="-3.5802">
        <ele>38</ele>
        <time>2018-07-18T09:33:34Z</time>
      </trkpt>
      <trkpt lat="47.77892" lon="-3.5802">
        <ele>38</ele>
        <time>2018-07-18T09:33:35Z</time>
      </trkpt>
      <trkpt lat="47.7789" lon="-3.5802">
        <ele>38</ele>
        <time>2018-07-18T09:33:36Z</time>
      </trkpt>
      <trkpt lat="47.77887" lon="-3.58019">
        <ele>38</ele>
        <time>2018-07-18T09:33:37Z</time>
      </trkpt>
      <trkpt lat="47.77883" lon="-3.58019">
        <ele>38</ele>
        <time>2018-07-18T09:33:38Z</time>
      </trkpt>
      <trkpt lat="47.7788" lon="-3.58017">
        <ele>38</ele>
        <time>2018-07-18T09:33:39Z</time>
      </trkpt>
      <trkpt lat="47.77876" lon="-3.58016">
        <ele>38</ele>
        <time>2018-07-18T09:33:40Z</time>
      </trkpt>
      <trkpt lat="47.77873" lon="-3.58016">
        <ele>38</ele>
        <time>2018-07-18T09:33:41Z</time>
      </trkpt>
      <trkpt lat="47.77869" lon="-3.58015">
        <ele>38</ele>
        <time>2018-07-18T09:33:42Z</time>
      </trkpt>
      <trkpt lat="47.77865" lon="-3.58013">
        <ele>38</ele>
        <time>2018-07-18T09:33:43Z</time>
      </trkpt>
      <trkpt lat="47.77861" lon="-3.58011">
        <ele>38</ele>
        <time>2018-07-18T09:33:44Z</time>
      </trkpt>
      <trkpt lat="47.77857" lon="-3.58009">
        <ele>38</ele>
        <time>2018-07-18T09:33:45Z</time>
      </trkpt>
      <trkpt lat="47.77853" lon="-3.58006">
        <ele>38</ele>
        <time>2018-07-18T09:33:46Z</time>
      </trkpt>
      <trkpt lat="47.77848" lon="-3.58004">
        <ele>38</ele>
        <time>2018-07-18T09:33:47Z</time>
      </trkpt>
      <trkpt lat="47.77844" lon="-3.58001">
        <ele>37</ele>
        <time>2018-07-18T09:33:48Z</time>
      </trkpt>
      <trkpt lat="47.77839" lon="-3.57998">
        <ele>38</ele>
        <time>2018-07-18T09:33:49Z</time>
      </trkpt>
      <trkpt lat="47.77835" lon="-3.57994">
        <ele>37</ele>
        <time>2018-07-18T09:33:50Z</time>
      </trkpt>
      <trkpt lat="47.7783" lon="-3.5799">
        <ele>37</ele>
        <time>2018-07-18T09:33:51Z</time>
      </trkpt>
      <trkpt lat="47.77826" lon="-3.57985">
        <ele>37</ele>
        <time>2018-07-18T09:33:52Z</time>
      </trkpt>
      <trkpt lat="47.77822" lon="-3.57981">
        <ele>37</ele>
        <time>2018-07-18T09:33:53Z</time>
      </trkpt>
      <trkpt lat="47.77818" lon="-3.57977">
        <ele>37</ele>
        <time>2018-07-18T09:33:54Z</time>
      </trkpt>
      <trkpt lat="47.77815" lon="-3.57974">
        <ele>37</ele>
        <time>2018-07-18T09:33:55Z</time>
      </trkpt>
      <trkpt lat="47.77812" lon="-3.57971">
        <ele>37</ele>
        <time>2018-07-18T09:33:56Z</time>
      </trkpt>
      <trkpt lat="47.77809" lon="-3.57967">
        <ele>37</ele>
        <time>2018-07-18T09:33:57Z</time>
      </trkpt>
      <trkpt lat="47.77805" lon="-3.57964">
        <ele>37</ele>
        <time>2018-07-18T09:33:58Z</time>
      </trkpt>
      <trkpt lat="47.77802" lon="-3.57961">
        <ele>36</ele>
        <time>2018-07-18T09:33:59Z</time>
      </trkpt>
      <trkpt lat="47.77798" lon="-3.57957">
        <ele>36</ele>
        <time>2018-07-18T09:34:00Z</time>
      </trkpt>
      <trkpt lat="47.77794" lon="-3.57952">
        <ele>36</ele>
        <time>2018-07-18T09:34:01Z</time>
      </trkpt>
      <trkpt lat="47.7779" lon="-3.57948">
        <ele>36</ele>
        <time>2018-07-18T09:34:02Z</time>
      </trkpt>
      <trkpt lat="47.77786" lon="-3.57944">
        <ele>36</ele>
        <time>2018-07-18T09:34:03Z</time>
      </trkpt>
      <trkpt lat="47.77782" lon="-3.5794">
        <ele>36</ele>
        <time>2018-07-18T09:34:04Z</time>
      </trkpt>
      <trkpt lat="47.77778" lon="-3.57938">
        <ele>35</ele>
        <time>2018-07-18T09:34:05Z</time>
      </trkpt>
      <trkpt lat="47.77773" lon="-3.57936">
        <ele>35</ele>
        <time>2018-07-18T09:34:06Z</time>
      </trkpt>
      <trkpt lat="47.77769" lon="-3.57935">
        <ele>35</ele>
        <time>2018-07-18T09:34:07Z</time>
      </trkpt>
      <trkpt lat="47.77764" lon="-3.57934">
        <ele>35</ele>
        <time>2018-07-18T09:34:08Z</time>
      </trkpt>
      <trkpt lat="47.77759" lon="-3.57934">
        <ele>34</ele>
        <time>2018-07-18T09:34:09Z</time>
      </trkpt>
      <trkpt lat="47.77754" lon="-3.57934">
        <ele>34</ele>
        <time>2018-07-18T09:34:10Z</time>
      </trkpt>
      <trkpt lat="47.77749" lon="-3.57934">
        <ele>34</ele>
        <time>2018-07-18T09:34:11Z</time>
      </trkpt>
      <trkpt lat="47.77744" lon="-3.57932">
        <ele>34</ele>
        <time>2018-07-18T09:34:12Z</time>
      </trkpt>
      <trkpt lat="47.77738" lon="-3.57931">
        <ele>33</ele>
        <time>2018-07-18T09:34:13Z</time>
      </trkpt>
      <trkpt lat="47.77733" lon="-3.57929">
        <ele>33</ele>
        <time>2018-07-18T09:34:14Z</time>
      </trkpt>
      <trkpt lat="47.77728" lon="-3.57926">
        <ele>33</ele>
        <time>2018-07-18T09:34:15Z</time>
      </trkpt>
      <trkpt lat="47.77723" lon="-3.57923">
        <ele>33</ele>
        <time>2018-07-18T09:34:16Z</time>
      </trkpt>
      <trkpt lat="47.77718" lon="-3.5792">
        <ele>32</ele>
        <time>2018-07-18T09:34:17Z</time>
      </trkpt>
      <trkpt lat="47.77713" lon="-3.57915">
        <ele>32</ele>
        <time>2018-07-18T09:34:18Z</time>
      </trkpt>
      <trkpt lat="47.77709" lon="-3.57911">
        <ele>32</ele>
        <time>2018-07-18T09:34:19Z</time>
      </trkpt>
      <trkpt lat="47.77705" lon="-3.57907">
        <ele>32</ele>
        <time>2018-07-18T09:34:20Z</time>
      </trkpt>
      <trkpt lat="47.77701" lon="-3.57905">
        <ele>32</ele>
        <time>2018-07-18T09:34:21Z</time>
      </trkpt>
      <trkpt lat="47.77697" lon="-3.57904">
        <ele>32</ele>
        <time>2018-07-18T09:34:22Z</time>
      </trkpt>
      <trkpt lat="47.77694" lon="-3.57908">
        <ele>32</ele>
        <time>2018-07-18T09:34:23Z</time>
      </trkpt>
      <trkpt lat="47.77692" lon="-3.57911">
        <ele>32</ele>
        <time>2018-07-18T09:34:24Z</time>
      </trkpt>
      <trkpt lat="47.77689" lon="-3.57915">
        <ele>32</ele>
        <time>2018-07-18T09:34:25Z</time>
      </trkpt>
      <trkpt lat="47.77687" lon="-3.57919">
        <ele>32</ele>
        <time>2018-07-18T09:34:26Z</time>
      </trkpt>
      <trkpt lat="47.77684" lon="-3.57922">
        <ele>33</ele>
        <time>2018-07-18T09:34:27Z</time>
      </trkpt>
      <trkpt lat="47.77682" lon="-3.57926">
        <ele>33</ele>
        <time>2018-07-18T09:34:28Z</time>
      </trkpt>
      <trkpt lat="47.77679" lon="-3.5793">
        <ele>33</ele>
        <time>2018-07-18T09:34:29Z</time>
      </trkpt>
      <trkpt lat="47.77677" lon="-3.57935">
        <ele>34</ele>
        <time>2018-07-18T09:34:30Z</time>
      </trkpt>
      <trkpt lat="47.77675" lon="-3.5794">
        <ele>34</ele>
        <time>2018-07-18T09:34:31Z</time>
      </trkpt>
      <trkpt lat="47.77674" lon="-3.57946">
        <ele>34</ele>
        <time>2018-07-18T09:34:32Z</time>
      </trkpt>
      <trkpt lat="47.77673" lon="-3.57951">
        <ele>35</ele>
        <time>2018-07-18T09:34:33Z</time>
      </trkpt>
      <trkpt lat="47.77672" lon="-3.57957">
        <ele>35</ele>
        <time>2018-07-18T09:34:34Z</time>
      </trkpt>
      <trkpt lat="47.77672" lon="-3.57963">
        <ele>35</ele>
        <time>2018-07-18T09:34:35Z</time>
      </trkpt>
      <trkpt lat="47.77671" lon="-3.57969">
        <ele>36</ele>
        <time>2018-07-18T09:34:36Z</time>
      </trkpt>
      <trkpt lat="47.77671" lon="-3.57974">
        <ele>36</ele>
        <time>2018-07-18T09:34:37Z</time>
      </trkpt>
      <trkpt lat="47.77671" lon="-3.5798">
        <ele>36</ele>
        <time>2018-07-18T09:34:38Z</time>
      </trkpt>
      <trkpt lat="47.77671" lon="-3.57986">
        <ele>36</ele>
        <time>2018-07-18T09:34:39Z</time>
      </trkpt>
      <trkpt lat="47.7767" lon="-3.57992">
        <ele>37</ele>
        <time>2018-07-18T09:34:40Z</time>
      </trkpt>
      <trkpt lat="47.7767" lon="-3.57998">
        <ele>37</ele>
        <time>2018-07-18T09:34:41Z</time>
      </trkpt>
      <trkpt lat="47.7767" lon="-3.58005">
        <ele>37</ele>
        <time>2018-07-18T09:34:42Z</time>
      </trkpt>
      <trkpt lat="47.77671" lon="-3.58011">
        <ele>37</ele>
        <time>2018-07-18T09:34:43Z</time>
      </trkpt>
      <trkpt lat="47.77672" lon="-3.58018">
        <ele>37</ele>
        <time>2018-07-18T09:34:44Z</time>
      </trkpt>
      <trkpt lat="47.77674" lon="-3.58024">
        <ele>37</ele>
        <time>2018-07-18T09:34:45Z</time>
      </trkpt>
      <trkpt lat="47.77677" lon="-3.5803">
        <ele>37</ele>
        <time>2018-07-18T09:34:46Z</time>
      </trkpt>
      <trkpt lat="47.77679" lon="-3.58036">
        <ele>37</ele>
        <time>2018-07-18T09:34:47Z</time>
      </trkpt>
      <trkpt lat="47.77681" lon="-3.58041">
        <ele>37</ele>
        <time>2018-07-18T09:34:48Z</time>
      </trkpt>
      <trkpt lat="47.77684" lon="-3.58046">
        <ele>37</ele>
        <time>2018-07-18T09:34:49Z</time>
      </trkpt>
      <trkpt lat="47.77686" lon="-3.58051">
        <ele>37</ele>
        <time>2018-07-18T09:34:50Z</time>
      </trkpt>
      <trkpt lat="47.77686" lon="-3.58058">
        <ele>37</ele>
        <time>2018-07-18T09:34:51Z</time>
      </trkpt>
      <trkpt lat="47.77687" lon="-3.58065">
        <ele>37</ele>
        <time>2018-07-18T09:34:52Z</time>
      </trkpt>
      <trkpt lat="47.77687" lon="-3.58072">
        <ele>37</ele>
        <time>2018-07-18T09:34:53Z</time>
      </trkpt>
      <trkpt lat="47.77687" lon="-3.5808">
        <ele>36</ele>
        <time>2018-07-18T09:34:54Z</time>
      </trkpt>
      <trkpt lat="47.77687" lon="-3.58088">
        <ele>36</ele>
        <time>2018-07-18T09:34:55Z</time>
      </trkpt>
      <trkpt lat="47.77686" lon="-3.58095">
        <ele>36</ele>
        <time>2018-07-18T09:34:56Z</time>
      </trkpt>
      <trkpt lat="47.77686" lon="-3.58103">
        <ele>36</ele>
        <time>2018-07-18T09:34:57Z</time>
      </trkpt>
      <trkpt lat="47.77685" lon="-3.58111">
        <ele>36</ele>
        <time>2018-07-18T09:34:58Z</time>
      </trkpt>
      <trkpt lat="47.77685" lon="-3.58118">
        <ele>36</ele>
        <time>2018-07-18T09:34:59Z</time>
      </trkpt>
      <trkpt lat="47.77684" lon="-3.58126">
        <ele>36</ele>
        <time>2018-07-18T09:35:00Z</time>
      </trkpt>
      <trkpt lat="47.77684" lon="-3.58134">
        <ele>36</ele>
        <time>2018-07-18T09:35:01Z</time>
      </trkpt>
      <trkpt lat="47.77684" lon="-3.58141">
        <ele>36</ele>
        <time>2018-07-18T09:35:02Z</time>
      </trkpt>
      <trkpt lat="47.77684" lon="-3.58149">
        <ele>36</ele>
        <time>2018-07-18T09:35:03Z</time>
      </trkpt>
      <trkpt lat="47.77683" lon="-3.58156">
        <ele>36</ele>
        <time>2018-07-18T09:35:04Z</time>
      </trkpt>
      <trkpt lat="47.77683" lon="-3.58164">
        <ele>36</ele>
        <time>2018-07-18T09:35:05Z</time>
      </trkpt>
      <trkpt lat="47.77683" lon="-3.58171">
        <ele>36</ele>
        <time>2018-07-18T09:35:06Z</time>
      </trkpt>
      <trkpt lat="47.77683" lon="-3.58178">
        <ele>37</ele>
        <time>2018-07-18T09:35:07Z</time>
      </trkpt>
      <trkpt lat="47.77683" lon="-3.58186">
        <ele>37</ele>
        <time>2018-07-18T09:35:08Z</time>
      </trkpt>
      <trkpt lat="47.77683" lon="-3.58193">
        <ele>37</ele>
        <time>2018-07-18T09:35:09Z</time>
      </trkpt>
      <trkpt lat="47.77683" lon="-3.582">
        <ele>37</ele>
        <time>2018-07-18T09:35:10Z</time>
      </trkpt>
      <trkpt lat="47.77683" lon="-3.58208">
        <ele>37</ele>
        <time>2018-07-18T09:35:11Z</time>
      </trkpt>
      <trkpt lat="47.77683" lon="-3.58216">
        <ele>37</ele>
        <time>2018-07-18T09:35:12Z</time>
      </trkpt>
      <trkpt lat="47.77683" lon="-3.58223">
        <ele>37</ele>
        <time>2018-07-18T09:35:13Z</time>
      </trkpt>
      <trkpt lat="47.77683" lon="-3.58231">
        <ele>37</ele>
        <time>2018-07-18T09:35:14Z</time>
      </trkpt>
      <trkpt lat="47.77684" lon="-3.58239">
        <ele>37</ele>
        <time>2018-07-18T09:35:15Z</time>
      </trkpt>
      <trkpt lat="47.77684" lon="-3.58246">
        <ele>37</ele>
        <time>2018-07-18T09:35:16Z</time>
      </trkpt>
      <trkpt lat="47.77684" lon="-3.58254">
        <ele>38</ele>
        <time>2018-07-18T09:35:17Z</time>
      </trkpt>
      <trkpt lat="47.77685" lon="-3.58262">
        <ele>38</ele>
        <time>2018-07-18T09:35:18Z</time>
      </trkpt>
      <trkpt lat="47.77685" lon="-3.58269">
        <ele>38</ele>
        <time>2018-07-18T09:35:19Z</time>
      </trkpt>
      <trkpt lat="47.77685" lon="-3.58276">
        <ele>38</ele>
        <time>2018-07-18T09:35:20Z</time>
      </trkpt>
      <trkpt lat="47.77685" lon="-3.58284">
        <ele>38</ele>
        <time>2018-07-18T09:35:21Z</time>
      </trkpt>
      <trkpt lat="47.77686" lon="-3.58292">
        <ele>38</ele>
        <time>2018-07-18T09:35:22Z</time>
      </trkpt>
      <trkpt lat="47.77686" lon="-3.58299">
        <ele>38</ele>
        <time>2018-07-18T09:35:23Z</time>
      </trkpt>
      <trkpt lat="47.77686" lon="-3.58305">
        <ele>38</ele>
        <time>2018-07-18T09:35:24Z</time>
      </trkpt>
      <trkpt lat="47.77687" lon="-3.58311">
        <ele>38</ele>
        <time>2018-07-18T09:35:25Z</time>
      </trkpt>
      <trkpt lat="47.77688" lon="-3.58317">
        <ele>38</ele>
        <time>2018-07-18T09:35:26Z</time>
      </trkpt>
      <trkpt lat="47.77691" lon="-3.5832">
        <ele>39</ele>
        <time>2018-07-18T09:35:27Z</time>
      </trkpt>
      <trkpt lat="47.77694" lon="-3.58322">
        <ele>39</ele>
        <time>2018-07-18T09:35:28Z</time>
      </trkpt>
      <trkpt lat="47.77698" lon="-3.58323">
        <ele>39</ele>
        <time>2018-07-18T09:35:29Z</time>
      </trkpt>
      <trkpt lat="47.77703" lon="-3.58323">
        <ele>39</ele>
        <time>2018-07-18T09:35:30Z</time>
      </trkpt>
      <trkpt lat="47.77707" lon="-3.58323">
        <ele>39</ele>
        <time>2018-07-18T09:35:31Z</time>
      </trkpt>
      <trkpt lat="47.77712" lon="-3.58322">
        <ele>39</ele>
        <time>2018-07-18T09:35:32Z</time>
      </trkpt>
      <trkpt lat="47.77717" lon="-3.58322">
        <ele>39</ele>
        <time>2018-07-18T09:35:33Z</time>
      </trkpt>
      <trkpt lat="47.77722" lon="-3.58321">
        <ele>39</ele>
        <time>2018-07-18T09:35:34Z</time>
      </trkpt>
      <trkpt lat="47.77726" lon="-3.5832">
        <ele>39</ele>
        <time>2018-07-18T09:35:35Z</time>
      </trkpt>
      <trkpt lat="47.77731" lon="-3.58318">
        <ele>38</ele>
        <time>2018-07-18T09:35:36Z</time>
      </trkpt>
      <trkpt lat="47.77736" lon="-3.58317">
        <ele>38</ele>
        <time>2018-07-18T09:35:37Z</time>
      </trkpt>
      <trkpt lat="47.77741" lon="-3.58316">
        <ele>38</ele>
        <time>2018-07-18T09:35:38Z</time>
      </trkpt>
      <trkpt lat="47.77746" lon="-3.58315">
        <ele>38</ele>
        <time>2018-07-18T09:35:39Z</time>
      </trkpt>
      <trkpt lat="47.77751" lon="-3.58314">
        <ele>38</ele>
        <time>2018-07-18T09:35:40Z</time>
      </trkpt>
      <trkpt lat="47.77756" lon="-3.58312">
        <ele>38</ele>
        <time>2018-07-18T09:35:41Z</time>
      </trkpt>
      <trkpt lat="47.77761" lon="-3.58311">
        <ele>38</ele>
        <time>2018-07-18T09:35:42Z</time>
      </trkpt>
      <trkpt lat="47.77766" lon="-3.58309">
        <ele>38</ele>
        <time>2018-07-18T09:35:43Z</time>
      </trkpt>
      <trkpt lat="47.77771" lon="-3.58308">
        <ele>38</ele>
        <time>2018-07-18T09:35:44Z</time>
      </trkpt>
      <trkpt lat="47.77776" lon="-3.58307">
        <ele>38</ele>
        <time>2018-07-18T09:35:45Z</time>
      </trkpt>
      <trkpt lat="47.77781" lon="-3.58305">
        <ele>38</ele>
        <time>2018-07-18T09:35:46Z</time>
      </trkpt>
      <trkpt lat="47.77786" lon="-3.58304">
        <ele>38</ele>
        <time>2018-07-18T09:35:47Z</time>
      </trkpt>
      <trkpt lat="47.77791" lon="-3.58303">
        <ele>38</ele>
        <time>2018-07-18T09:35:48Z</time>
      </trkpt>
      <trkpt lat="47.77796" lon="-3.58302">
        <ele>38</ele>
        <time>2018-07-18T09:35:49Z</time>
      </trkpt>
      <trkpt lat="47.77801" lon="-3.58302">
        <ele>38</ele>
        <time>2018-07-18T09:35:50Z</time>
      </trkpt>
      <trkpt lat="47.77806" lon="-3.58301">
        <ele>38</ele>
        <time>2018-07-18T09:35:51Z</time>
      </trkpt>
      <trkpt lat="47.77811" lon="-3.583">
        <ele>38</ele>
        <time>2018-07-18T09:35:52Z</time>
      </trkpt>
      <trkpt lat="47.77816" lon="-3.58299">
        <ele>38</ele>
        <time>2018-07-18T09:35:53Z</time>
      </trkpt>
      <trkpt lat="47.77821" lon="-3.58298">
        <ele>38</ele>
        <time>2018-07-18T09:35:54Z</time>
      </trkpt>
      <trkpt lat="47.77826" lon="-3.58297">
        <ele>38</ele>
        <time>2018-07-18T09:35:55Z</time>
      </trkpt>
      <trkpt lat="47.7783" lon="-3.58297">
        <ele>38</ele>
        <time>2018-07-18T09:35:56Z</time>
      </trkpt>
      <trkpt lat="47.77834" lon="-3.583">
        <ele>38</ele>
        <time>2018-07-18T09:35:57Z</time>
      </trkpt>
      <trkpt lat="47.77837" lon="-3.58305">
        <ele>38</ele>
        <time>2018-07-18T09:35:58Z</time>
      </trkpt>
      <trkpt lat="47.77838" lon="-3.5831">
        <ele>38</ele>
        <time>2018-07-18T09:35:59Z</time>
      </trkpt>
      <trkpt lat="47.77839" lon="-3.58317">
        <ele>38</ele>
        <time>2018-07-18T09:36:00Z</time>
      </trkpt>
      <trkpt lat="47.77839" lon="-3.58323">
        <ele>38</ele>
        <time>2018-07-18T09:36:01Z</time>
      </trkpt>
      <trkpt lat="47.77839" lon="-3.5833">
        <ele>38</ele>
        <time>2018-07-18T09:36:02Z</time>
      </trkpt>
      <trkpt lat="47.77839" lon="-3.58337">
        <ele>38</ele>
        <time>2018-07-18T09:36:03Z</time>
      </trkpt>
      <trkpt lat="47.7784" lon="-3.58345">
        <ele>38</ele>
        <time>2018-07-18T09:36:04Z</time>
      </trkpt>
      <trkpt lat="47.7784" lon="-3.58352">
        <ele>39</ele>
        <time>2018-07-18T09:36:05Z</time>
      </trkpt>
      <trkpt lat="47.7784" lon="-3.5836">
        <ele>39</ele>
        <time>2018-07-18T09:36:06Z</time>
      </trkpt>
      <trkpt lat="47.77841" lon="-3.58367">
        <ele>39</ele>
        <time>2018-07-18T09:36:07Z</time>
      </trkpt>
      <trkpt lat="47.77841" lon="-3.58375">
        <ele>39</ele>
        <time>2018-07-18T09:36:08Z</time>
      </trkpt>
      <trkpt lat="47.77841" lon="-3.58382">
        <ele>39</ele>
        <time>2018-07-18T09:36:09Z</time>
      </trkpt>
      <trkpt lat="47.77842" lon="-3.5839">
        <ele>39</ele>
        <time>2018-07-18T09:36:10Z</time>
      </trkpt>
      <trkpt lat="47.77843" lon="-3.58397">
        <ele>39</ele>
        <time>2018-07-18T09:36:11Z</time>
      </trkpt>
      <trkpt lat="47.77844" lon="-3.58405">
        <ele>40</ele>
        <time>2018-07-18T09:36:12Z</time>
      </trkpt>
      <trkpt lat="47.77844" lon="-3.58412">
        <ele>40</ele>
        <time>2018-07-18T09:36:13Z</time>
      </trkpt>
      <trkpt lat="47.77845" lon="-3.58421">
        <ele>40</ele>
        <time>2018-07-18T09:36:14Z</time>
      </trkpt>
      <trkpt lat="47.77846" lon="-3.58429">
        <ele>40</ele>
        <time>2018-07-18T09:36:15Z</time>
      </trkpt>
      <trkpt lat="47.77846" lon="-3.58438">
        <ele>40</ele>
        <time>2018-07-18T09:36:16Z</time>
      </trkpt>
      <trkpt lat="47.77847" lon="-3.58447">
        <ele>40</ele>
        <time>2018-07-18T09:36:17Z</time>
      </trkpt>
      <trkpt lat="47.77848" lon="-3.58456">
        <ele>40</ele>
        <time>2018-07-18T09:36:18Z</time>
      </trkpt>
      <trkpt lat="47.77849" lon="-3.58465">
        <ele>41</ele>
        <time>2018-07-18T09:36:19Z</time>
      </trkpt>
      <trkpt lat="47.77851" lon="-3.58474">
        <ele>41</ele>
        <time>2018-07-18T09:36:20Z</time>
      </trkpt>
      <trkpt lat="47.77852" lon="-3.58483">
        <ele>41</ele>
        <time>2018-07-18T09:36:21Z</time>
      </trkpt>
      <trkpt lat="47.77855" lon="-3.58492">
        <ele>41</ele>
        <time>2018-07-18T09:36:22Z</time>
      </trkpt>
      <trkpt lat="47.77857" lon="-3.58501">
        <ele>41</ele>
        <time>2018-07-18T09:36:23Z</time>
      </trkpt>
      <trkpt lat="47.77859" lon="-3.58511">
        <ele>40</ele>
        <time>2018-07-18T09:36:24Z</time>
      </trkpt>
      <trkpt lat="47.77861" lon="-3.58522">
        <ele>40</ele>
        <time>2018-07-18T09:36:25Z</time>
      </trkpt>
      <trkpt lat="47.77863" lon="-3.58532">
        <ele>40</ele>
        <time>2018-07-18T09:36:26Z</time>
      </trkpt>
      <trkpt lat="47.77865" lon="-3.58543">
        <ele>40</ele>
        <time>2018-07-18T09:36:27Z</time>
      </trkpt>
      <trkpt lat="47.77867" lon="-3.58554">
        <ele>40</ele>
        <time>2018-07-18T09:36:28Z</time>
      </trkpt>
      <trkpt lat="47.77868" lon="-3.58563">
        <ele>39</ele>
        <time>2018-07-18T09:36:29Z</time>
      </trkpt>
      <trkpt lat="47.77869" lon="-3.58571">
        <ele>39</ele>
        <time>2018-07-18T09:36:30Z</time>
      </trkpt>
      <trkpt lat="47.77869" lon="-3.5858">
        <ele>39</ele>
        <time>2018-07-18T09:36:31Z</time>
      </trkpt>
      <trkpt lat="47.77868" lon="-3.58587">
        <ele>39</ele>
        <time>2018-07-18T09:36:32Z</time>
      </trkpt>
      <trkpt lat="47.77866" lon="-3.58594">
        <ele>38</ele>
        <time>2018-07-18T09:36:33Z</time>
      </trkpt>
      <trkpt lat="47.77862" lon="-3.58598">
        <ele>38</ele>
        <time>2018-07-18T09:36:34Z</time>
      </trkpt>
      <trkpt lat="47.77857" lon="-3.586">
        <ele>38</ele>
        <time>2018-07-18T09:36:35Z</time>
      </trkpt>
      <trkpt lat="47.77852" lon="-3.58602">
        <ele>38</ele>
        <time>2018-07-18T09:36:36Z</time>
      </trkpt>
      <trkpt lat="47.77846" lon="-3.58603">
        <ele>38</ele>
        <time>2018-07-18T09:36:37Z</time>
      </trkpt>
      <trkpt lat="47.77841" lon="-3.58606">
        <ele>38</ele>
        <time>2018-07-18T09:36:38Z</time>
      </trkpt>
      <trkpt lat="47.77835" lon="-3.58607">
        <ele>37</ele>
        <time>2018-07-18T09:36:39Z</time>
      </trkpt>
      <trkpt lat="47.77829" lon="-3.5861">
        <ele>37</ele>
        <time>2018-07-18T09:36:40Z</time>
      </trkpt>
      <trkpt lat="47.77824" lon="-3.58611">
        <ele>37</ele>
        <time>2018-07-18T09:36:41Z</time>
      </trkpt>
      <trkpt lat="47.77818" lon="-3.58611">
        <ele>36</ele>
        <time>2018-07-18T09:36:42Z</time>
      </trkpt>
      <trkpt lat="47.77813" lon="-3.5861">
        <ele>36</ele>
        <time>2018-07-18T09:36:43Z</time>
      </trkpt>
      <trkpt lat="47.77807" lon="-3.5861">
        <ele>36</ele>
        <time>2018-07-18T09:36:44Z</time>
      </trkpt>
      <trkpt lat="47.77802" lon="-3.58609">
        <ele>36</ele>
        <time>2018-07-18T09:36:45Z</time>
      </trkpt>
      <trkpt lat="47.77797" lon="-3.58608">
        <ele>36</ele>
        <time>2018-07-18T09:36:46Z</time>
      </trkpt>
      <trkpt lat="47.77795" lon="-3.58608">
        <ele>35</ele>
        <time>2018-07-18T09:36:47Z</time>
      </trkpt>
      <trkpt lat="47.77794" lon="-3.58607">
        <ele>35</ele>
        <time>2018-07-18T09:36:48Z</time>
      </trkpt>
      <trkpt lat="47.77793" lon="-3.58606">
        <ele>35</ele>
        <time>2018-07-18T09:36:49Z</time>
      </trkpt>
      <trkpt lat="47.77792" lon="-3.58603">
        <ele>35</ele>
        <time>2018-07-18T09:36:50Z</time>
      </trkpt>
      <trkpt lat="47.77791" lon="-3.586">
        <ele>35</ele>
        <time>2018-07-18T09:36:51Z</time>
      </trkpt>
      <trkpt lat="47.77789" lon="-3.58597">
        <ele>35</ele>
        <time>2018-07-18T09:36:52Z</time>
      </trkpt>
      <trkpt lat="47.77786" lon="-3.58594">
        <ele>35</ele>
        <time>2018-07-18T09:36:53Z</time>
      </trkpt>
      <trkpt lat="47.77783" lon="-3.58591">
        <ele>35</ele>
        <time>2018-07-18T09:36:54Z</time>
      </trkpt>
      <trkpt lat="47.7778" lon="-3.5859">
        <ele>35</ele>
        <time>2018-07-18T09:36:55Z</time>
      </trkpt>
      <trkpt lat="47.77777" lon="-3.58588">
        <ele>35</ele>
        <time>2018-07-18T09:36:56Z</time>
      </trkpt>
      <trkpt lat="47.77773" lon="-3.58587">
        <ele>35</ele>
        <time>2018-07-18T09:36:57Z</time>
      </trkpt>
      <trkpt lat="47.7777" lon="-3.58585">
        <ele>35</ele>
        <time>2018-07-18T09:36:58Z</time>
      </trkpt>
      <trkpt lat="47.77766" lon="-3.58583">
        <ele>35</ele>
        <time>2018-07-18T09:36:59Z</time>
      </trkpt>
      <trkpt lat="47.77762" lon="-3.5858">
        <ele>35</ele>
        <time>2018-07-18T09:37:00Z</time>
      </trkpt>
      <trkpt lat="47.77758" lon="-3.58578">
        <ele>34</ele>
        <time>2018-07-18T09:37:01Z</time>
      </trkpt>
      <trkpt lat="47.77753" lon="-3.58577">
        <ele>34</ele>
        <time>2018-07-18T09:37:02Z</time>
      </trkpt>
      <trkpt lat="47.77749" lon="-3.58576">
        <ele>34</ele>
        <time>2018-07-18T09:37:03Z</time>
      </trkpt>
      <trkpt lat="47.77744" lon="-3.58575">
        <ele>34</ele>
        <time>2018-07-18T09:37:04Z</time>
      </trkpt>
      <trkpt lat="47.7774" lon="-3.58574">
        <ele>34</ele>
        <time>2018-07-18T09:37:05Z</time>
      </trkpt>
      <trkpt lat="47.77735" lon="-3.58572">
        <ele>34</ele>
        <time>2018-07-18T09:37:06Z</time>
      </trkpt>
      <trkpt lat="47.7773" lon="-3.58571">
        <ele>34</ele>
        <time>2018-07-18T09:37:07Z</time>
      </trkpt>
      <trkpt lat="47.77726" lon="-3.58571">
        <ele>34</ele>
        <time>2018-07-18T09:37:08Z</time>
      </trkpt>
      <trkpt lat="47.77721" lon="-3.5857">
        <ele>34</ele>
        <time>2018-07-18T09:37:09Z</time>
      </trkpt>
      <trkpt lat="47.77717" lon="-3.58569">
        <ele>34</ele>
        <time>2018-07-18T09:37:10Z</time>
      </trkpt>
      <trkpt lat="47.77713" lon="-3.58568">
        <ele>34</ele>
        <time>2018-07-18T09:37:11Z</time>
      </trkpt>
      <trkpt lat="47.77708" lon="-3.58567">
        <ele>34</ele>
        <time>2018-07-18T09:37:12Z</time>
      </trkpt>
      <trkpt lat="47.77704" lon="-3.58568">
        <ele>34</ele>
        <time>2018-07-18T09:37:13Z</time>
      </trkpt>
      <trkpt lat="47.77699" lon="-3.58568">
        <ele>35</ele>
        <time>2018-07-18T09:37:14Z</time>
      </trkpt>
      <trkpt lat="47.77695" lon="-3.58569">
        <ele>35</ele>
        <time>2018-07-18T09:37:15Z</time>
      </trkpt>
      <trkpt lat="47.7769" lon="-3.58569">
        <ele>35</ele>
        <time>2018-07-18T09:37:16Z</time>
      </trkpt>
      <trkpt lat="47.77686" lon="-3.5857">
        <ele>35</ele>
        <time>2018-07-18T09:37:17Z</time>
      </trkpt>
      <trkpt lat="47.77681" lon="-3.58571">
        <ele>35</ele>
        <time>2018-07-18T09:37:18Z</time>
      </trkpt>
      <trkpt lat="47.77676" lon="-3.58571">
        <ele>36</ele>
        <time>2018-07-18T09:37:19Z</time>
      </trkpt>
      <trkpt lat="47.77672" lon="-3.58573">
        <ele>36</ele>
        <time>2018-07-18T09:37:20Z</time>
      </trkpt>
      <trkpt lat="47.77667" lon="-3.58573">
        <ele>36</ele>
        <time>2018-07-18T09:37:21Z</time>
      </trkpt>
      <trkpt lat="47.77662" lon="-3.58574">
        <ele>36</ele>
        <time>2018-07-18T09:37:22Z</time>
      </trkpt>
      <trkpt lat="47.77657" lon="-3.58574">
        <ele>37</ele>
        <time>2018-07-18T09:37:23Z</time>
      </trkpt>
      <trkpt lat="47.77653" lon="-3.58574">
        <ele>37</ele>
        <time>2018-07-18T09:37:24Z</time>
      </trkpt>
      <trkpt lat="47.77648" lon="-3.58574">
        <ele>37</ele>
        <time>2018-07-18T09:37:25Z</time>
      </trkpt>
      <trkpt lat="47.77643" lon="-3.58575">
        <ele>37</ele>
        <time>2018-07-18T09:37:26Z</time>
      </trkpt>
      <trkpt lat="47.77638" lon="-3.58576">
        <ele>37</ele>
        <time>2018-07-18T09:37:27Z</time>
      </trkpt>
      <trkpt lat="47.77634" lon="-3.58577">
        <ele>38</ele>
        <time>2018-07-18T09:37:28Z</time>
      </trkpt>
      <trkpt lat="47.77629" lon="-3.58577">
        <ele>38</ele>
        <time>2018-07-18T09:37:29Z</time>
      </trkpt>
      <trkpt lat="47.77624" lon="-3.58578">
        <ele>38</ele>
        <time>2018-07-18T09:37:30Z</time>
      </trkpt>
      <trkpt lat="47.77619" lon="-3.58579">
        <ele>38</ele>
        <time>2018-07-18T09:37:31Z</time>
      </trkpt>
      <trkpt lat="47.77615" lon="-3.5858">
        <ele>38</ele>
        <time>2018-07-18T09:37:32Z</time>
      </trkpt>
      <trkpt lat="47.7761" lon="-3.5858">
        <ele>38</ele>
        <time>2018-07-18T09:37:33Z</time>
      </trkpt>
      <trkpt lat="47.77605" lon="-3.58581">
        <ele>39</ele>
        <time>2018-07-18T09:37:34Z</time>
      </trkpt>
      <trkpt lat="47.776" lon="-3.58582">
        <ele>39</ele>
        <time>2018-07-18T09:37:35Z</time>
      </trkpt>
      <trkpt lat="47.77596" lon="-3.58582">
        <ele>39</ele>
        <time>2018-07-18T09:37:36Z</time>
      </trkpt>
      <trkpt lat="47.77591" lon="-3.58583">
        <ele>39</ele>
        <time>2018-07-18T09:37:37Z</time>
      </trkpt>
      <trkpt lat="47.77586" lon="-3.58584">
        <ele>40</ele>
        <time>2018-07-18T09:37:38Z</time>
      </trkpt>
      <trkpt lat="47.77582" lon="-3.58584">
        <ele>40</ele>
        <time>2018-07-18T09:37:39Z</time>
      </trkpt>
      <trkpt lat="47.77578" lon="-3.58585">
        <ele>40</ele>
        <time>2018-07-18T09:37:40Z</time>
      </trkpt>
      <trkpt lat="47.77573" lon="-3.58586">
        <ele>40</ele>
        <time>2018-07-18T09:37:41Z</time>
      </trkpt>
      <trkpt lat="47.77569" lon="-3.58586">
        <ele>40</ele>
        <time>2018-07-18T09:37:42Z</time>
      </trkpt>
      <trkpt lat="47.77564" lon="-3.58586">
        <ele>40</ele>
        <time>2018-07-18T09:37:43Z</time>
      </trkpt>
      <trkpt lat="47.77559" lon="-3.58587">
        <ele>40</ele>
        <time>2018-07-18T09:37:44Z</time>
      </trkpt>
      <trkpt lat="47.77555" lon="-3.58587">
        <ele>40</ele>
        <time>2018-07-18T09:37:45Z</time>
      </trkpt>
      <trkpt lat="47.7755" lon="-3.58587">
        <ele>40</ele>
        <time>2018-07-18T09:37:46Z</time>
      </trkpt>
      <trkpt lat="47.77545" lon="-3.58587">
        <ele>40</ele>
        <time>2018-07-18T09:37:47Z</time>
      </trkpt>
      <trkpt lat="47.77541" lon="-3.58587">
        <ele>40</ele>
        <time>2018-07-18T09:37:48Z</time>
      </trkpt>
      <trkpt lat="47.77536" lon="-3.58586">
        <ele>40</ele>
        <time>2018-07-18T09:37:49Z</time>
      </trkpt>
      <trkpt lat="47.77532" lon="-3.58586">
        <ele>40</ele>
        <time>2018-07-18T09:37:50Z</time>
      </trkpt>
      <trkpt lat="47.77527" lon="-3.58587">
        <ele>40</ele>
        <time>2018-07-18T09:37:51Z</time>
      </trkpt>
      <trkpt lat="47.77522" lon="-3.58587">
        <ele>40</ele>
        <time>2018-07-18T09:37:52Z</time>
      </trkpt>
      <trkpt lat="47.77516" lon="-3.58587">
        <ele>40</ele>
        <time>2018-07-18T09:37:53Z</time>
      </trkpt>
      <trkpt lat="47.77511" lon="-3.58587">
        <ele>39</ele>
        <time>2018-07-18T09:37:54Z</time>
      </trkpt>
      <trkpt lat="47.77505" lon="-3.58587">
        <ele>39</ele>
        <time>2018-07-18T09:37:55Z</time>
      </trkpt>
      <trkpt lat="47.775" lon="-3.58587">
        <ele>39</ele>
        <time>2018-07-18T09:37:56Z</time>
      </trkpt>
      <trkpt lat="47.77494" lon="-3.58586">
        <ele>39</ele>
        <time>2018-07-18T09:37:57Z</time>
      </trkpt>
      <trkpt lat="47.77488" lon="-3.58585">
        <ele>38</ele>
        <time>2018-07-18T09:37:58Z</time>
      </trkpt>
      <trkpt lat="47.77483" lon="-3.58585">
        <ele>38</ele>
        <time>2018-07-18T09:37:59Z</time>
      </trkpt>
      <trkpt lat="47.77477" lon="-3.58583">
        <ele>38</ele>
        <time>2018-07-18T09:38:00Z</time>
      </trkpt>
      <trkpt lat="47.77472" lon="-3.58582">
        <ele>37</ele>
        <time>2018-07-18T09:38:01Z</time>
      </trkpt>
      <trkpt lat="47.77467" lon="-3.5858">
        <ele>37</ele>
        <time>2018-07-18T09:38:02Z</time>
      </trkpt>
      <trkpt lat="47.77465" lon="-3.58579">
        <ele>37</ele>
        <time>2018-07-18T09:38:03Z</time>
      </trkpt>
      <trkpt lat="47.77464" lon="-3.58579">
        <ele>36</ele>
        <time>2018-07-18T09:38:04Z</time>
      </trkpt>
      <trkpt lat="47.77464" lon="-3.58579">
        <ele>36</ele>
        <time>2018-07-18T09:38:05Z</time>
      </trkpt>
      <trkpt lat="47.77464" lon="-3.58579">
        <ele>36</ele>
        <time>2018-07-18T09:38:06Z</time>
      </trkpt>
      <trkpt lat="47.77464" lon="-3.58579">
        <ele>36</ele>
        <time>2018-07-18T09:38:07Z</time>
      </trkpt>
      <trkpt lat="47.77463" lon="-3.58579">
        <ele>36</ele>
        <time>2018-07-18T09:38:08Z</time>
      </trkpt>
      <trkpt lat="47.77462" lon="-3.58578">
        <ele>36</ele>
        <time>2018-07-18T09:38:09Z</time>
      </trkpt>
      <trkpt lat="47.7746" lon="-3.58578">
        <ele>36</ele>
        <time>2018-07-18T09:38:10Z</time>
      </trkpt>
      <trkpt lat="47.77458" lon="-3.58578">
        <ele>36</ele>
        <time>2018-07-18T09:38:11Z</time>
      </trkpt>
      <trkpt lat="47.77455" lon="-3.58577">
        <ele>36</ele>
        <time>2018-07-18T09:38:12Z</time>
      </trkpt>
      <trkpt lat="47.77452" lon="-3.58575">
        <ele>36</ele>
        <time>2018-07-18T09:38:13Z</time>
      </trkpt>
      <trkpt lat="47.77448" lon="-3.58574">
        <ele>36</ele>
        <time>2018-07-18T09:38:14Z</time>
      </trkpt>
      <trkpt lat="47.77444" lon="-3.58572">
        <ele>36</ele>
        <time>2018-07-18T09:38:15Z</time>
      </trkpt>
      <trkpt lat="47.7744" lon="-3.58571">
        <ele>36</ele>
        <time>2018-07-18T09:38:16Z</time>
      </trkpt>
      <trkpt lat="47.77435" lon="-3.58569">
        <ele>36</ele>
        <time>2018-07-18T09:38:17Z</time>
      </trkpt>
      <trkpt lat="47.77431" lon="-3.58567">
        <ele>36</ele>
        <time>2018-07-18T09:38:18Z</time>
      </trkpt>
      <trkpt lat="47.77426" lon="-3.58565">
        <ele>35</ele>
        <time>2018-07-18T09:38:19Z</time>
      </trkpt>
      <trkpt lat="47.77421" lon="-3.58563">
        <ele>35</ele>
        <time>2018-07-18T09:38:20Z</time>
      </trkpt>
      <trkpt lat="47.77416" lon="-3.58562">
        <ele>35</ele>
        <time>2018-07-18T09:38:21Z</time>
      </trkpt>
      <trkpt lat="47.77411" lon="-3.58562">
        <ele>35</ele>
        <time>2018-07-18T09:38:22Z</time>
      </trkpt>
      <trkpt lat="47.77405" lon="-3.58563">
        <ele>35</ele>
        <time>2018-07-18T09:38:23Z</time>
      </trkpt>
      <trkpt lat="47.774" lon="-3.58564">
        <ele>35</ele>
        <time>2018-07-18T09:38:24Z</time>
      </trkpt>
      <trkpt lat="47.77394" lon="-3.58564">
        <ele>35</ele>
        <time>2018-07-18T09:38:25Z</time>
      </trkpt>
      <trkpt lat="47.77388" lon="-3.58563">
        <ele>35</ele>
        <time>2018-07-18T09:38:26Z</time>
      </trkpt>
      <trkpt lat="47.77382" lon="-3.58563">
        <ele>35</ele>
        <time>2018-07-18T09:38:27Z</time>
      </trkpt>
      <trkpt lat="47.77377" lon="-3.58562">
        <ele>35</ele>
        <time>2018-07-18T09:38:28Z</time>
      </trkpt>
      <trkpt lat="47.77371" lon="-3.58562">
        <ele>36</ele>
        <time>2018-07-18T09:38:29Z</time>
      </trkpt>
      <trkpt lat="47.77365" lon="-3.58561">
        <ele>36</ele>
        <time>2018-07-18T09:38:30Z</time>
      </trkpt>
      <trkpt lat="47.77359" lon="-3.5856">
        <ele>36</ele>
        <time>2018-07-18T09:38:31Z</time>
      </trkpt>
      <trkpt lat="47.77353" lon="-3.5856">
        <ele>36</ele>
        <time>2018-07-18T09:38:32Z</time>
      </trkpt>
      <trkpt lat="47.77348" lon="-3.5856">
        <ele>36</ele>
        <time>2018-07-18T09:38:33Z</time>
      </trkpt>
      <trkpt lat="47.77342" lon="-3.5856">
        <ele>36</ele>
        <time>2018-07-18T09:38:34Z</time>
      </trkpt>
      <trkpt lat="47.77337" lon="-3.58559">
        <ele>36</ele>
        <time>2018-07-18T09:38:35Z</time>
      </trkpt>
      <trkpt lat="47.77333" lon="-3.58558">
        <ele>36</ele>
        <time>2018-07-18T09:38:36Z</time>
      </trkpt>
      <trkpt lat="47.77328" lon="-3.58557">
        <ele>36</ele>
        <time>2018-07-18T09:38:37Z</time>
      </trkpt>
      <trkpt lat="47.77325" lon="-3.58556">
        <ele>36</ele>
        <time>2018-07-18T09:38:38Z</time>
      </trkpt>
      <trkpt lat="47.77321" lon="-3.58555">
        <ele>36</ele>
        <time>2018-07-18T09:38:39Z</time>
      </trkpt>
      <trkpt lat="47.77319" lon="-3.58555">
        <ele>36</ele>
        <time>2018-07-18T09:38:40Z</time>
      </trkpt>
      <trkpt lat="47.77317" lon="-3.58555">
        <ele>36</ele>
        <time>2018-07-18T09:38:41Z</time>
      </trkpt>
      <trkpt lat="47.77317" lon="-3.58555">
        <ele>36</ele>
        <time>2018-07-18T09:38:42Z</time>
      </trkpt>
      <trkpt lat="47.77316" lon="-3.58555">
        <ele>36</ele>
        <time>2018-07-18T09:38:43Z</time>
      </trkpt>
      <trkpt lat="47.77316" lon="-3.58554">
        <ele>36</ele>
        <time>2018-07-18T09:38:44Z</time>
      </trkpt>
      <trkpt lat="47.77316" lon="-3.58554">
        <ele>36</ele>
        <time>2018-07-18T09:38:45Z</time>
      </trkpt>
      <trkpt lat="47.77318" lon="-3.58559">
        <ele>36</ele>
        <time>2018-07-18T09:38:46Z</time>
      </trkpt>
      <trkpt lat="47.77318" lon="-3.58562">
        <ele>37</ele>
        <time>2018-07-18T09:38:47Z</time>
      </trkpt>
      <trkpt lat="47.7732" lon="-3.58565">
        <ele>37</ele>
        <time>2018-07-18T09:38:48Z</time>
      </trkpt>
      <trkpt lat="47.77321" lon="-3.58568">
        <ele>37</ele>
        <time>2018-07-18T09:38:49Z</time>
      </trkpt>
      <trkpt lat="47.77323" lon="-3.58572">
        <ele>37</ele>
        <time>2018-07-18T09:38:50Z</time>
      </trkpt>
      <trkpt lat="47.77325" lon="-3.58577">
        <ele>37</ele>
        <time>2018-07-18T09:38:51Z</time>
      </trkpt>
      <trkpt lat="47.77326" lon="-3.58582">
        <ele>38</ele>
        <time>2018-07-18T09:38:52Z</time>
      </trkpt>
      <trkpt lat="47.77326" lon="-3.58586">
        <ele>38</ele>
        <time>2018-07-18T09:38:53Z</time>
      </trkpt>
      <trkpt lat="47.77325" lon="-3.58589">
        <ele>38</ele>
        <time>2018-07-18T09:38:54Z</time>
      </trkpt>
      <trkpt lat="47.77323" lon="-3.58592">
        <ele>38</ele>
        <time>2018-07-18T09:38:55Z</time>
      </trkpt>
      <trkpt lat="47.77321" lon="-3.58596">
        <ele>38</ele>
        <time>2018-07-18T09:38:56Z</time>
      </trkpt>
      <trkpt lat="47.77318" lon="-3.58598">
        <ele>39</ele>
        <time>2018-07-18T09:38:57Z</time>
      </trkpt>
      <trkpt lat="47.77315" lon="-3.58601">
        <ele>39</ele>
        <time>2018-07-18T09:38:58Z</time>
      </trkpt>
      <trkpt lat="47.77311" lon="-3.58603">
        <ele>39</ele>
        <time>2018-07-18T09:38:59Z</time>
      </trkpt>
      <trkpt lat="47.77307" lon="-3.58605">
        <ele>38</ele>
        <time>2018-07-18T09:39:00Z</time>
      </trkpt>
      <trkpt lat="47.77303" lon="-3.58607">
        <ele>38</ele>
        <time>2018-07-18T09:39:01Z</time>
      </trkpt>
      <trkpt lat="47.773" lon="-3.5861">
        <ele>38</ele>
        <time>2018-07-18T09:39:02Z</time>
      </trkpt>
      <trkpt lat="47.77296" lon="-3.58612">
        <ele>38</ele>
        <time>2018-07-18T09:39:03Z</time>
      </trkpt>
      <trkpt lat="47.77292" lon="-3.58615">
        <ele>38</ele>
        <time>2018-07-18T09:39:04Z</time>
      </trkpt>
      <trkpt lat="47.77287" lon="-3.58618">
        <ele>38</ele>
        <time>2018-07-18T09:39:05Z</time>
      </trkpt>
      <trkpt lat="47.77284" lon="-3.58621">
        <ele>37</ele>
        <time>2018-07-18T09:39:06Z</time>
      </trkpt>
      <trkpt lat="47.7728" lon="-3.58624">
        <ele>37</ele>
        <time>2018-07-18T09:39:07Z</time>
      </trkpt>
      <trkpt lat="47.77276" lon="-3.58627">
        <ele>37</ele>
        <time>2018-07-18T09:39:08Z</time>
      </trkpt>
      <trkpt lat="47.77272" lon="-3.5863">
        <ele>37</ele>
        <time>2018-07-18T09:39:09Z</time>
      </trkpt>
      <trkpt lat="47.77268" lon="-3.58633">
        <ele>37</ele>
        <time>2018-07-18T09:39:10Z</time>
      </trkpt>
      <trkpt lat="47.77263" lon="-3.58636">
        <ele>37</ele>
        <time>2018-07-18T09:39:11Z</time>
      </trkpt>
      <trkpt lat="47.77259" lon="-3.5864">
        <ele>37</ele>
        <time>2018-07-18T09:39:12Z</time>
      </trkpt>
      <trkpt lat="47.77254" lon="-3.58644">
        <ele>37</ele>
        <time>2018-07-18T09:39:13Z</time>
      </trkpt>
      <trkpt lat="47.7725" lon="-3.58648">
        <ele>37</ele>
        <time>2018-07-18T09:39:14Z</time>
      </trkpt>
      <trkpt lat="47.77248" lon="-3.58652">
        <ele>37</ele>
        <time>2018-07-18T09:39:15Z</time>
      </trkpt>
      <trkpt lat="47.77246" lon="-3.58656">
        <ele>37</ele>
        <time>2018-07-18T09:39:16Z</time>
      </trkpt>
      <trkpt lat="47.77244" lon="-3.58662">
        <ele>37</ele>
        <time>2018-07-18T09:39:17Z</time>
      </trkpt>
      <trkpt lat="47.77243" lon="-3.58667">
        <ele>37</ele>
        <time>2018-07-18T09:39:18Z</time>
      </trkpt>
      <trkpt lat="47.77241" lon="-3.58671">
        <ele>37</ele>
        <time>2018-07-18T09:39:19Z</time>
      </trkpt>
      <trkpt lat="47.7724" lon="-3.58675">
        <ele>37</ele>
        <time>2018-07-18T09:39:20Z</time>
      </trkpt>
      <trkpt lat="47.77239" lon="-3.58676">
        <ele>37</ele>
        <time>2018-07-18T09:39:21Z</time>
      </trkpt>
      <trkpt lat="47.77239" lon="-3.58678">
        <ele>37</ele>
        <time>2018-07-18T09:39:22Z</time>
      </trkpt>
      <trkpt lat="47.77238" lon="-3.58679">
        <ele>37</ele>
        <time>2018-07-18T09:39:23Z</time>
      </trkpt>
      <trkpt lat="47.77238" lon="-3.58679">
        <ele>37</ele>
        <time>2018-07-18T09:39:24Z</time>
      </trkpt>
      <trkpt lat="47.77237" lon="-3.5868">
        <ele>36</ele>
        <time>2018-07-18T09:39:25Z</time>
      </trkpt>
      <trkpt lat="47.77237" lon="-3.58681">
        <ele>36</ele>
        <time>2018-07-18T09:39:26Z</time>
      </trkpt>
      <trkpt lat="47.77237" lon="-3.58681">
        <ele>36</ele>
        <time>2018-07-18T09:39:27Z</time>
      </trkpt>
      <trkpt lat="47.77236" lon="-3.58682">
        <ele>36</ele>
        <time>2018-07-18T09:39:28Z</time>
      </trkpt>
      <trkpt lat="47.77236" lon="-3.58682">
        <ele>36</ele>
        <time>2018-07-18T09:39:29Z</time>
      </trkpt>
      <trkpt lat="47.77235" lon="-3.58683">
        <ele>36</ele>
        <time>2018-07-18T09:39:30Z</time>
      </trkpt>
      <trkpt lat="47.77233" lon="-3.58683">
        <ele>35</ele>
        <time>2018-07-18T09:39:31Z</time>
      </trkpt>
      <trkpt lat="47.77231" lon="-3.58682">
        <ele>35</ele>
        <time>2018-07-18T09:39:32Z</time>
      </trkpt>
      <trkpt lat="47.77229" lon="-3.58679">
        <ele>35</ele>
        <time>2018-07-18T09:39:33Z</time>
      </trkpt>
      <trkpt lat="47.77227" lon="-3.58676">
        <ele>35</ele>
        <time>2018-07-18T09:39:34Z</time>
      </trkpt>
      <trkpt lat="47.77224" lon="-3.58672">
        <ele>35</ele>
        <time>2018-07-18T09:39:35Z</time>
      </trkpt>
      <trkpt lat="47.77221" lon="-3.58669">
        <ele>35</ele>
        <time>2018-07-18T09:39:36Z</time>
      </trkpt>
      <trkpt lat="47.77218" lon="-3.58665">
        <ele>34</ele>
        <time>2018-07-18T09:39:37Z</time>
      </trkpt>
      <trkpt lat="47.77214" lon="-3.5866">
        <ele>34</ele>
        <time>2018-07-18T09:39:38Z</time>
      </trkpt>
      <trkpt lat="47.77211" lon="-3.58656">
        <ele>34</ele>
        <time>2018-07-18T09:39:39Z</time>
      </trkpt>
      <trkpt lat="47.77208" lon="-3.58651">
        <ele>34</ele>
        <time>2018-07-18T09:39:40Z</time>
      </trkpt>
      <trkpt lat="47.77205" lon="-3.58648">
        <ele>33</ele>
        <time>2018-07-18T09:39:41Z</time>
      </trkpt>
      <trkpt lat="47.77201" lon="-3.58647">
        <ele>33</ele>
        <time>2018-07-18T09:39:42Z</time>
      </trkpt>
      <trkpt lat="47.77198" lon="-3.58649">
        <ele>33</ele>
        <time>2018-07-18T09:39:43Z</time>
      </trkpt>
      <trkpt lat="47.77196" lon="-3.58651">
        <ele>33</ele>
        <time>2018-07-18T09:39:44Z</time>
      </trkpt>
      <trkpt lat="47.77193" lon="-3.58653">
        <ele>32</ele>
        <time>2018-07-18T09:39:45Z</time>
      </trkpt>
      <trkpt lat="47.77191" lon="-3.58655">
        <ele>32</ele>
        <time>2018-07-18T09:39:46Z</time>
      </trkpt>
      <trkpt lat="47.77189" lon="-3.58657">
        <ele>31</ele>
        <time>2018-07-18T09:39:47Z</time>
      </trkpt>
      <trkpt lat="47.77185" lon="-3.58659">
        <ele>31</ele>
        <time>2018-07-18T09:39:48Z</time>
      </trkpt>
      <trkpt lat="47.77182" lon="-3.58662">
        <ele>30</ele>
        <time>2018-07-18T09:39:49Z</time>
      </trkpt>
      <trkpt lat="47.77178" lon="-3.58664">
        <ele>30</ele>
        <time>2018-07-18T09:39:50Z</time>
      </trkpt>
      <trkpt lat="47.77174" lon="-3.58667">
        <ele>30</ele>
        <time>2018-07-18T09:39:51Z</time>
      </trkpt>
      <trkpt lat="47.77169" lon="-3.5867">
        <ele>29</ele>
        <time>2018-07-18T09:39:52Z</time>
      </trkpt>
      <trkpt lat="47.77165" lon="-3.58673">
        <ele>29</ele>
        <time>2018-07-18T09:39:53Z</time>
      </trkpt>
      <trkpt lat="47.7716" lon="-3.58676">
        <ele>29</ele>
        <time>2018-07-18T09:39:54Z</time>
      </trkpt>
      <trkpt lat="47.77155" lon="-3.58679">
        <ele>28</ele>
        <time>2018-07-18T09:39:55Z</time>
      </trkpt>
      <trkpt lat="47.77151" lon="-3.58683">
        <ele>28</ele>
        <time>2018-07-18T09:39:56Z</time>
      </trkpt>
      <trkpt lat="47.77147" lon="-3.58687">
        <ele>28</ele>
        <time>2018-07-18T09:39:57Z</time>
      </trkpt>
      <trkpt lat="47.77144" lon="-3.58692">
        <ele>28</ele>
        <time>2018-07-18T09:39:58Z</time>
      </trkpt>
      <trkpt lat="47.77143" lon="-3.58698">
        <ele>28</ele>
        <time>2018-07-18T09:39:59Z</time>
      </trkpt>
      <trkpt lat="47.77141" lon="-3.58703">
        <ele>28</ele>
        <time>2018-07-18T09:40:00Z</time>
      </trkpt>
      <trkpt lat="47.77139" lon="-3.58708">
        <ele>28</ele>
        <time>2018-07-18T09:40:01Z</time>
      </trkpt>
      <trkpt lat="47.77136" lon="-3.58711">
        <ele>28</ele>
        <time>2018-07-18T09:40:02Z</time>
      </trkpt>
      <trkpt lat="47.77133" lon="-3.58713">
        <ele>28</ele>
        <time>2018-07-18T09:40:03Z</time>
      </trkpt>
      <trkpt lat="47.77129" lon="-3.58714">
        <ele>28</ele>
        <time>2018-07-18T09:40:04Z</time>
      </trkpt>
      <trkpt lat="47.77125" lon="-3.58715">
        <ele>28</ele>
        <time>2018-07-18T09:40:05Z</time>
      </trkpt>
      <trkpt lat="47.7712" lon="-3.58715">
        <ele>28</ele>
        <time>2018-07-18T09:40:06Z</time>
      </trkpt>
      <trkpt lat="47.77115" lon="-3.58715">
        <ele>27</ele>
        <time>2018-07-18T09:40:07Z</time>
      </trkpt>
      <trkpt lat="47.7711" lon="-3.58714">
        <ele>27</ele>
        <time>2018-07-18T09:40:08Z</time>
      </trkpt>
      <trkpt lat="47.77106" lon="-3.58713">
        <ele>27</ele>
        <time>2018-07-18T09:40:09Z</time>
      </trkpt>
      <trkpt lat="47.77101" lon="-3.58711">
        <ele>27</ele>
        <time>2018-07-18T09:40:10Z</time>
      </trkpt>
      <trkpt lat="47.77096" lon="-3.58708">
        <ele>27</ele>
        <time>2018-07-18T09:40:11Z</time>
      </trkpt>
      <trkpt lat="47.77092" lon="-3.58704">
        <ele>26</ele>
        <time>2018-07-18T09:40:12Z</time>
      </trkpt>
      <trkpt lat="47.77088" lon="-3.58701">
        <ele>26</ele>
        <time>2018-07-18T09:40:13Z</time>
      </trkpt>
      <trkpt lat="47.77083" lon="-3.58698">
        <ele>26</ele>
        <time>2018-07-18T09:40:14Z</time>
      </trkpt>
      <trkpt lat="47.77079" lon="-3.58696">
        <ele>26</ele>
        <time>2018-07-18T09:40:15Z</time>
      </trkpt>
      <trkpt lat="47.77074" lon="-3.58695">
        <ele>25</ele>
        <time>2018-07-18T09:40:16Z</time>
      </trkpt>
      <trkpt lat="47.77069" lon="-3.58695">
        <ele>25</ele>
        <time>2018-07-18T09:40:17Z</time>
      </trkpt>
      <trkpt lat="47.77065" lon="-3.58695">
        <ele>25</ele>
        <time>2018-07-18T09:40:18Z</time>
      </trkpt>
      <trkpt lat="47.7706" lon="-3.58695">
        <ele>25</ele>
        <time>2018-07-18T09:40:19Z</time>
      </trkpt>
      <trkpt lat="47.77055" lon="-3.58695">
        <ele>24</ele>
        <time>2018-07-18T09:40:20Z</time>
      </trkpt>
      <trkpt lat="47.7705" lon="-3.58695">
        <ele>24</ele>
        <time>2018-07-18T09:40:21Z</time>
      </trkpt>
      <trkpt lat="47.77045" lon="-3.58694">
        <ele>24</ele>
        <time>2018-07-18T09:40:22Z</time>
      </trkpt>
      <trkpt lat="47.77041" lon="-3.58693">
        <ele>23</ele>
        <time>2018-07-18T09:40:23Z</time>
      </trkpt>
      <trkpt lat="47.77038" lon="-3.58692">
        <ele>23</ele>
        <time>2018-07-18T09:40:24Z</time>
      </trkpt>
      <trkpt lat="47.77036" lon="-3.5869">
        <ele>23</ele>
        <time>2018-07-18T09:40:25Z</time>
      </trkpt>
      <trkpt lat="47.77033" lon="-3.5869">
        <ele>22</ele>
        <time>2018-07-18T09:40:26Z</time>
      </trkpt>
      <trkpt lat="47.77032" lon="-3.58689">
        <ele>22</ele>
        <time>2018-07-18T09:40:27Z</time>
      </trkpt>
      <trkpt lat="47.77032" lon="-3.58689">
        <ele>22</ele>
        <time>2018-07-18T09:40:28Z</time>
      </trkpt>
      <trkpt lat="47.77032" lon="-3.58689">
        <ele>22</ele>
        <time>2018-07-18T09:40:29Z</time>
      </trkpt>
      <trkpt lat="47.77032" lon="-3.58689">
        <ele>22</ele>
        <time>2018-07-18T09:40:30Z</time>
      </trkpt>
      <trkpt lat="47.77032" lon="-3.58689">
        <ele>21</ele>
        <time>2018-07-18T09:40:31Z</time>
      </trkpt>
      <trkpt lat="47.77033" lon="-3.58691">
        <ele>21</ele>
        <time>2018-07-18T09:40:32Z</time>
      </trkpt>
      <trkpt lat="47.77033" lon="-3.58691">
        <ele>21</ele>
        <time>2018-07-18T09:40:33Z</time>
      </trkpt>
      <trkpt lat="47.77034" lon="-3.58691">
        <ele>21</ele>
        <time>2018-07-18T09:40:34Z</time>
      </trkpt>
      <trkpt lat="47.77035" lon="-3.58691">
        <ele>21</ele>
        <time>2018-07-18T09:40:35Z</time>
      </trkpt>
      <trkpt lat="47.77037" lon="-3.58692">
        <ele>21</ele>
        <time>2018-07-18T09:40:36Z</time>
      </trkpt>
      <trkpt lat="47.77038" lon="-3.58693">
        <ele>21</ele>
        <time>2018-07-18T09:40:37Z</time>
      </trkpt>
      <trkpt lat="47.7704" lon="-3.58693">
        <ele>21</ele>
        <time>2018-07-18T09:40:38Z</time>
      </trkpt>
      <trkpt lat="47.77042" lon="-3.58694">
        <ele>21</ele>
        <time>2018-07-18T09:40:39Z</time>
      </trkpt>
      <trkpt lat="47.77045" lon="-3.58695">
        <ele>21</ele>
        <time>2018-07-18T09:40:40Z</time>
      </trkpt>
      <trkpt lat="47.77047" lon="-3.58696">
        <ele>21</ele>
        <time>2018-07-18T09:40:41Z</time>
      </trkpt>
      <trkpt lat="47.7705" lon="-3.58696">
        <ele>21</ele>
        <time>2018-07-18T09:40:42Z</time>
      </trkpt>
      <trkpt lat="47.77053" lon="-3.58696">
        <ele>21</ele>
        <time>2018-07-18T09:40:43Z</time>
      </trkpt>
      <trkpt lat="47.77056" lon="-3.58697">
        <ele>21</ele>
        <time>2018-07-18T09:40:44Z</time>
      </trkpt>
      <trkpt lat="47.77059" lon="-3.58696">
        <ele>22</ele>
        <time>2018-07-18T09:40:45Z</time>
      </trkpt>
      <trkpt lat="47.77062" lon="-3.58696">
        <ele>22</ele>
        <time>2018-07-18T09:40:46Z</time>
      </trkpt>
      <trkpt lat="47.77064" lon="-3.58697">
        <ele>22</ele>
        <time>2018-07-18T09:40:47Z</time>
      </trkpt>
      <trkpt lat="47.77067" lon="-3.58697">
        <ele>22</ele>
        <time>2018-07-18T09:40:48Z</time>
      </trkpt>
      <trkpt lat="47.7707" lon="-3.58698">
        <ele>22</ele>
        <time>2018-07-18T09:40:49Z</time>
      </trkpt>
      <trkpt lat="47.77073" lon="-3.58699">
        <ele>22</ele>
        <time>2018-07-18T09:40:50Z</time>
      </trkpt>
      <trkpt lat="47.77074" lon="-3.58701">
        <ele>23</ele>
        <time>2018-07-18T09:40:51Z</time>
      </trkpt>
      <trkpt lat="47.77073" lon="-3.58703">
        <ele>23</ele>
        <time>2018-07-18T09:40:52Z</time>
      </trkpt>
      <trkpt lat="47.77073" lon="-3.58705">
        <ele>23</ele>
        <time>2018-07-18T09:40:53Z</time>
      </trkpt>
      <trkpt lat="47.77072" lon="-3.58709">
        <ele>23</ele>
        <time>2018-07-18T09:40:54Z</time>
      </trkpt>
      <trkpt lat="47.77071" lon="-3.58714">
        <ele>23</ele>
        <time>2018-07-18T09:40:55Z</time>
      </trkpt>
      <trkpt lat="47.77069" lon="-3.58718">
        <ele>23</ele>
        <time>2018-07-18T09:40:56Z</time>
      </trkpt>
      <trkpt lat="47.77067" lon="-3.58723">
        <ele>23</ele>
        <time>2018-07-18T09:40:57Z</time>
      </trkpt>
      <trkpt lat="47.77065" lon="-3.58728">
        <ele>23</ele>
        <time>2018-07-18T09:40:58Z</time>
      </trkpt>
      <trkpt lat="47.77063" lon="-3.58732">
        <ele>23</ele>
        <time>2018-07-18T09:40:59Z</time>
      </trkpt>
      <trkpt lat="47.77061" lon="-3.58736">
        <ele>24</ele>
        <time>2018-07-18T09:41:00Z</time>
      </trkpt>
      <trkpt lat="47.77059" lon="-3.5874">
        <ele>24</ele>
        <time>2018-07-18T09:41:01Z</time>
      </trkpt>
      <trkpt lat="47.77056" lon="-3.58743">
        <ele>24</ele>
        <time>2018-07-18T09:41:02Z</time>
      </trkpt>
      <trkpt lat="47.77053" lon="-3.58747">
        <ele>24</ele>
        <time>2018-07-18T09:41:03Z</time>
      </trkpt>
      <trkpt lat="47.77051" lon="-3.58751">
        <ele>24</ele>
        <time>2018-07-18T09:41:04Z</time>
      </trkpt>
      <trkpt lat="47.77049" lon="-3.58756">
        <ele>25</ele>
        <time>2018-07-18T09:41:05Z</time>
      </trkpt>
      <trkpt lat="47.77046" lon="-3.58762">
        <ele>25</ele>
        <time>2018-07-18T09:41:06Z</time>
      </trkpt>
      <trkpt lat="47.77044" lon="-3.58767">
        <ele>25</ele>
        <time>2018-07-18T09:41:07Z</time>
      </trkpt>
      <trkpt lat="47.77042" lon="-3.58773">
        <ele>25</ele>
        <time>2018-07-18T09:41:08Z</time>
      </trkpt>
      <trkpt lat="47.77039" lon="-3.58778">
        <ele>25</ele>
        <time>2018-07-18T09:41:09Z</time>
      </trkpt>
      <trkpt lat="47.77037" lon="-3.58783">
        <ele>25</ele>
        <time>2018-07-18T09:41:10Z</time>
      </trkpt>
      <trkpt lat="47.77034" lon="-3.58787">
        <ele>25</ele>
        <time>2018-07-18T09:41:11Z</time>
      </trkpt>
      <trkpt lat="47.77032" lon="-3.58791">
        <ele>25</ele>
        <time>2018-07-18T09:41:12Z</time>
      </trkpt>
      <trkpt lat="47.77029" lon="-3.58796">
        <ele>25</ele>
        <time>2018-07-18T09:41:13Z</time>
      </trkpt>
      <trkpt lat="47.77026" lon="-3.58801">
        <ele>25</ele>
        <time>2018-07-18T09:41:14Z</time>
      </trkpt>
      <trkpt lat="47.77023" lon="-3.58805">
        <ele>25</ele>
        <time>2018-07-18T09:41:15Z</time>
      </trkpt>
      <trkpt lat="47.77021" lon="-3.58808">
        <ele>25</ele>
        <time>2018-07-18T09:41:16Z</time>
      </trkpt>
      <trkpt lat="47.77017" lon="-3.5881">
        <ele>25</ele>
        <time>2018-07-18T09:41:17Z</time>
      </trkpt>
      <trkpt lat="47.77014" lon="-3.58808">
        <ele>25</ele>
        <time>2018-07-18T09:41:18Z</time>
      </trkpt>
      <trkpt lat="47.7701" lon="-3.58804">
        <ele>25</ele>
        <time>2018-07-18T09:41:19Z</time>
      </trkpt>
      <trkpt lat="47.77006" lon="-3.58801">
        <ele>25</ele>
        <time>2018-07-18T09:41:20Z</time>
      </trkpt>
      <trkpt lat="47.77002" lon="-3.58797">
        <ele>24</ele>
        <time>2018-07-18T09:41:21Z</time>
      </trkpt>
      <trkpt lat="47.76997" lon="-3.58794">
        <ele>24</ele>
        <time>2018-07-18T09:41:22Z</time>
      </trkpt>
      <trkpt lat="47.76992" lon="-3.58791">
        <ele>24</ele>
        <time>2018-07-18T09:41:23Z</time>
      </trkpt>
      <trkpt lat="47.76986" lon="-3.58787">
        <ele>23</ele>
        <time>2018-07-18T09:41:24Z</time>
      </trkpt>
      <trkpt lat="47.76981" lon="-3.58784">
        <ele>23</ele>
        <time>2018-07-18T09:41:25Z</time>
      </trkpt>
      <trkpt lat="47.76975" lon="-3.58782">
        <ele>23</ele>
        <time>2018-07-18T09:41:26Z</time>
      </trkpt>
      <trkpt lat="47.76968" lon="-3.58779">
        <ele>22</ele>
        <time>2018-07-18T09:41:27Z</time>
      </trkpt>
      <trkpt lat="47.76962" lon="-3.58777">
        <ele>21</ele>
        <time>2018-07-18T09:41:28Z</time>
      </trkpt>
      <trkpt lat="47.76955" lon="-3.58774">
        <ele>21</ele>
        <time>2018-07-18T09:41:29Z</time>
      </trkpt>
      <trkpt lat="47.76948" lon="-3.58772">
        <ele>20</ele>
        <time>2018-07-18T09:41:30Z</time>
      </trkpt>
      <trkpt lat="47.76941" lon="-3.58771">
        <ele>19</ele>
        <time>2018-07-18T09:41:31Z</time>
      </trkpt>
      <trkpt lat="47.76936" lon="-3.5877">
        <ele>19</ele>
        <time>2018-07-18T09:41:32Z</time>
      </trkpt>
      <trkpt lat="47.76932" lon="-3.58771">
        <ele>18</ele>
        <time>2018-07-18T09:41:33Z</time>
      </trkpt>
      <trkpt lat="47.7693" lon="-3.58772">
        <ele>18</ele>
        <time>2018-07-18T09:41:34Z</time>
      </trkpt>
      <trkpt lat="47.76928" lon="-3.58774">
        <ele>17</ele>
        <time>2018-07-18T09:41:35Z</time>
      </trkpt>
      <trkpt lat="47.76926" lon="-3.58776">
        <ele>17</ele>
        <time>2018-07-18T09:41:36Z</time>
      </trkpt>
      <trkpt lat="47.76923" lon="-3.58778">
        <ele>16</ele>
        <time>2018-07-18T09:41:37Z</time>
      </trkpt>
      <trkpt lat="47.7692" lon="-3.5878">
        <ele>16</ele>
        <time>2018-07-18T09:41:38Z</time>
      </trkpt>
      <trkpt lat="47.76916" lon="-3.58781">
        <ele>15</ele>
        <time>2018-07-18T09:41:39Z</time>
      </trkpt>
      <trkpt lat="47.76912" lon="-3.58781">
        <ele>15</ele>
        <time>2018-07-18T09:41:40Z</time>
      </trkpt>
      <trkpt lat="47.76909" lon="-3.5878">
        <ele>15</ele>
        <time>2018-07-18T09:41:41Z</time>
      </trkpt>
      <trkpt lat="47.76906" lon="-3.58779">
        <ele>14</ele>
        <time>2018-07-18T09:41:42Z</time>
      </trkpt>
      <trkpt lat="47.76903" lon="-3.58779">
        <ele>14</ele>
        <time>2018-07-18T09:41:43Z</time>
      </trkpt>
      <trkpt lat="47.76901" lon="-3.58779">
        <ele>14</ele>
        <time>2018-07-18T09:41:44Z</time>
      </trkpt>
      <trkpt lat="47.76898" lon="-3.5878">
        <ele>14</ele>
        <time>2018-07-18T09:41:45Z</time>
      </trkpt>
      <trkpt lat="47.76896" lon="-3.58781">
        <ele>13</ele>
        <time>2018-07-18T09:41:46Z</time>
      </trkpt>
      <trkpt lat="47.76894" lon="-3.58783">
        <ele>13</ele>
        <time>2018-07-18T09:41:47Z</time>
      </trkpt>
      <trkpt lat="47.76892" lon="-3.58784">
        <ele>13</ele>
        <time>2018-07-18T09:41:48Z</time>
      </trkpt>
      <trkpt lat="47.76891" lon="-3.58784">
        <ele>13</ele>
        <time>2018-07-18T09:41:49Z</time>
      </trkpt>
      <trkpt lat="47.76891" lon="-3.58784">
        <ele>13</ele>
        <time>2018-07-18T09:41:50Z</time>
      </trkpt>
      <trkpt lat="47.76891" lon="-3.58784">
        <ele>13</ele>
        <time>2018-07-18T09:41:51Z</time>
      </trkpt>
      <trkpt lat="47.76891" lon="-3.58784">
        <ele>13</ele>
        <time>2018-07-18T09:41:52Z</time>
      </trkpt>
      <trkpt lat="47.76891" lon="-3.58784">
        <ele>13</ele>
        <time>2018-07-18T09:41:53Z</time>
      </trkpt>
      <trkpt lat="47.76889" lon="-3.58785">
        <ele>13</ele>
        <time>2018-07-18T09:41:54Z</time>
      </trkpt>
      <trkpt lat="47.76889" lon="-3.58786">
        <ele>13</ele>
        <time>2018-07-18T09:41:55Z</time>
      </trkpt>
      <trkpt lat="47.76888" lon="-3.58787">
        <ele>13</ele>
        <time>2018-07-18T09:41:56Z</time>
      </trkpt>
      <trkpt lat="47.76887" lon="-3.58787">
        <ele>13</ele>
        <time>2018-07-18T09:41:57Z</time>
      </trkpt>
      <trkpt lat="47.76887" lon="-3.58788">
        <ele>13</ele>
        <time>2018-07-18T09:41:58Z</time>
      </trkpt>
      <trkpt lat="47.76886" lon="-3.58789">
        <ele>13</ele>
        <time>2018-07-18T09:41:59Z</time>
      </trkpt>
      <trkpt lat="47.76885" lon="-3.58789">
        <ele>13</ele>
        <time>2018-07-18T09:42:00Z</time>
      </trkpt>
      <trkpt lat="47.76884" lon="-3.58789">
        <ele>13</ele>
        <time>2018-07-18T09:42:01Z</time>
      </trkpt>
      <trkpt lat="47.76883" lon="-3.5879">
        <ele>13</ele>
        <time>2018-07-18T09:42:02Z</time>
      </trkpt>
      <trkpt lat="47.76881" lon="-3.58791">
        <ele>13</ele>
        <time>2018-07-18T09:42:03Z</time>
      </trkpt>
      <trkpt lat="47.76879" lon="-3.58791">
        <ele>13</ele>
        <time>2018-07-18T09:42:04Z</time>
      </trkpt>
      <trkpt lat="47.76877" lon="-3.5879">
        <ele>13</ele>
        <time>2018-07-18T09:42:05Z</time>
      </trkpt>
      <trkpt lat="47.76875" lon="-3.5879">
        <ele>13</ele>
        <time>2018-07-18T09:42:06Z</time>
      </trkpt>
      <trkpt lat="47.76873" lon="-3.5879">
        <ele>13</ele>
        <time>2018-07-18T09:42:07Z</time>
      </trkpt>
      <trkpt lat="47.76872" lon="-3.5879">
        <ele>13</ele>
        <time>2018-07-18T09:42:08Z</time>
      </trkpt>
      <trkpt lat="47.7687" lon="-3.58791">
        <ele>12</ele>
        <time>2018-07-18T09:42:09Z</time>
      </trkpt>
      <trkpt lat="47.76868" lon="-3.58792">
        <ele>12</ele>
        <time>2018-07-18T09:42:10Z</time>
      </trkpt>
      <trkpt lat="47.76866" lon="-3.58794">
        <ele>13</ele>
        <time>2018-07-18T09:42:11Z</time>
      </trkpt>
      <trkpt lat="47.76865" lon="-3.58797">
        <ele>13</ele>
        <time>2018-07-18T09:42:12Z</time>
      </trkpt>
      <trkpt lat="47.76863" lon="-3.588">
        <ele>13</ele>
        <time>2018-07-18T09:42:13Z</time>
      </trkpt>
      <trkpt lat="47.76862" lon="-3.58802">
        <ele>13</ele>
        <time>2018-07-18T09:42:14Z</time>
      </trkpt>
      <trkpt lat="47.76859" lon="-3.58805">
        <ele>13</ele>
        <time>2018-07-18T09:42:15Z</time>
      </trkpt>
      <trkpt lat="47.76856" lon="-3.58806">
        <ele>13</ele>
        <time>2018-07-18T09:42:16Z</time>
      </trkpt>
      <trkpt lat="47.76853" lon="-3.58806">
        <ele>13</ele>
        <time>2018-07-18T09:42:17Z</time>
      </trkpt>
      <trkpt lat="47.7685" lon="-3.58806">
        <ele>13</ele>
        <time>2018-07-18T09:42:18Z</time>
      </trkpt>
      <trkpt lat="47.76847" lon="-3.58805">
        <ele>13</ele>
        <time>2018-07-18T09:42:19Z</time>
      </trkpt>
      <trkpt lat="47.76844" lon="-3.58806">
        <ele>13</ele>
        <time>2018-07-18T09:42:20Z</time>
      </trkpt>
      <trkpt lat="47.76841" lon="-3.58808">
        <ele>13</ele>
        <time>2018-07-18T09:42:21Z</time>
      </trkpt>
      <trkpt lat="47.76838" lon="-3.58807">
        <ele>13</ele>
        <time>2018-07-18T09:42:22Z</time>
      </trkpt>
      <trkpt lat="47.76835" lon="-3.58807">
        <ele>13</ele>
        <time>2018-07-18T09:42:23Z</time>
      </trkpt>
      <trkpt lat="47.76832" lon="-3.58807">
        <ele>13</ele>
        <time>2018-07-18T09:42:24Z</time>
      </trkpt>
      <trkpt lat="47.76831" lon="-3.58808">
        <ele>13</ele>
        <time>2018-07-18T09:42:25Z</time>
      </trkpt>
      <trkpt lat="47.7683" lon="-3.5881">
        <ele>13</ele>
        <time>2018-07-18T09:42:26Z</time>
      </trkpt>
      <trkpt lat="47.7683" lon="-3.58813">
        <ele>13</ele>
        <time>2018-07-18T09:42:27Z</time>
      </trkpt>
      <trkpt lat="47.7683" lon="-3.58817">
        <ele>13</ele>
        <time>2018-07-18T09:42:28Z</time>
      </trkpt>
      <trkpt lat="47.76829" lon="-3.58821">
        <ele>13</ele>
        <time>2018-07-18T09:42:29Z</time>
      </trkpt>
      <trkpt lat="47.76829" lon="-3.58826">
        <ele>13</ele>
        <time>2018-07-18T09:42:30Z</time>
      </trkpt>
      <trkpt lat="47.76828" lon="-3.58831">
        <ele>13</ele>
        <time>2018-07-18T09:42:31Z</time>
      </trkpt>
      <trkpt lat="47.76828" lon="-3.58836">
        <ele>13</ele>
        <time>2018-07-18T09:42:32Z</time>
      </trkpt>
      <trkpt lat="47.76827" lon="-3.58842">
        <ele>13</ele>
        <time>2018-07-18T09:42:33Z</time>
      </trkpt>
      <trkpt lat="47.76826" lon="-3.58846">
        <ele>13</ele>
        <time>2018-07-18T09:42:34Z</time>
      </trkpt>
      <trkpt lat="47.76824" lon="-3.58851">
        <ele>13</ele>
        <time>2018-07-18T09:42:35Z</time>
      </trkpt>
      <trkpt lat="47.76822" lon="-3.58855">
        <ele>13</ele>
        <time>2018-07-18T09:42:36Z</time>
      </trkpt>
      <trkpt lat="47.7682" lon="-3.5886">
        <ele>13</ele>
        <time>2018-07-18T09:42:37Z</time>
      </trkpt>
      <trkpt lat="47.76819" lon="-3.58864">
        <ele>13</ele>
        <time>2018-07-18T09:42:38Z</time>
      </trkpt>
      <trkpt lat="47.76818" lon="-3.58867">
        <ele>13</ele>
        <time>2018-07-18T09:42:39Z</time>
      </trkpt>
      <trkpt lat="47.76818" lon="-3.58871">
        <ele>13</ele>
        <time>2018-07-18T09:42:40Z</time>
      </trkpt>
      <trkpt lat="47.76818" lon="-3.58876">
        <ele>13</ele>
        <time>2018-07-18T09:42:41Z</time>
      </trkpt>
      <trkpt lat="47.76818" lon="-3.5888">
        <ele>13</ele>
        <time>2018-07-18T09:42:42Z</time>
      </trkpt>
      <trkpt lat="47.76819" lon="-3.58885">
        <ele>13</ele>
        <time>2018-07-18T09:42:43Z</time>
      </trkpt>
      <trkpt lat="47.7682" lon="-3.58889">
        <ele>13</ele>
        <time>2018-07-18T09:42:44Z</time>
      </trkpt>
      <trkpt lat="47.76822" lon="-3.58894">
        <ele>13</ele>
        <time>2018-07-18T09:42:45Z</time>
      </trkpt>
      <trkpt lat="47.76823" lon="-3.58899">
        <ele>13</ele>
        <time>2018-07-18T09:42:46Z</time>
      </trkpt>
      <trkpt lat="47.76824" lon="-3.58905">
        <ele>13</ele>
        <time>2018-07-18T09:42:47Z</time>
      </trkpt>
      <trkpt lat="47.76824" lon="-3.5891">
        <ele>13</ele>
        <time>2018-07-18T09:42:48Z</time>
      </trkpt>
      <trkpt lat="47.76824" lon="-3.58916">
        <ele>13</ele>
        <time>2018-07-18T09:42:49Z</time>
      </trkpt>
      <trkpt lat="47.76823" lon="-3.58922">
        <ele>12</ele>
        <time>2018-07-18T09:42:50Z</time>
      </trkpt>
      <trkpt lat="47.76823" lon="-3.58928">
        <ele>12</ele>
        <time>2018-07-18T09:42:51Z</time>
      </trkpt>
      <trkpt lat="47.76823" lon="-3.58934">
        <ele>12</ele>
        <time>2018-07-18T09:42:52Z</time>
      </trkpt>
      <trkpt lat="47.76824" lon="-3.5894">
        <ele>12</ele>
        <time>2018-07-18T09:42:53Z</time>
      </trkpt>
      <trkpt lat="47.76825" lon="-3.58945">
        <ele>12</ele>
        <time>2018-07-18T09:42:54Z</time>
      </trkpt>
      <trkpt lat="47.76828" lon="-3.58949">
        <ele>12</ele>
        <time>2018-07-18T09:42:55Z</time>
      </trkpt>
      <trkpt lat="47.76831" lon="-3.58953">
        <ele>12</ele>
        <time>2018-07-18T09:42:56Z</time>
      </trkpt>
      <trkpt lat="47.76834" lon="-3.58954">
        <ele>12</ele>
        <time>2018-07-18T09:42:57Z</time>
      </trkpt>
      <trkpt lat="47.76838" lon="-3.58955">
        <ele>12</ele>
        <time>2018-07-18T09:42:58Z</time>
      </trkpt>
      <trkpt lat="47.76841" lon="-3.58958">
        <ele>12</ele>
        <time>2018-07-18T09:42:59Z</time>
      </trkpt>
      <trkpt lat="47.76844" lon="-3.58961">
        <ele>11</ele>
        <time>2018-07-18T09:43:00Z</time>
      </trkpt>
      <trkpt lat="47.76846" lon="-3.58965">
        <ele>11</ele>
        <time>2018-07-18T09:43:01Z</time>
      </trkpt>
      <trkpt lat="47.76848" lon="-3.58971">
        <ele>11</ele>
        <time>2018-07-18T09:43:02Z</time>
      </trkpt>
      <trkpt lat="47.76849" lon="-3.58977">
        <ele>11</ele>
        <time>2018-07-18T09:43:03Z</time>
      </trkpt>
      <trkpt lat="47.76851" lon="-3.58984">
        <ele>10</ele>
        <time>2018-07-18T09:43:04Z</time>
      </trkpt>
      <trkpt lat="47.76853" lon="-3.58991">
        <ele>10</ele>
        <time>2018-07-18T09:43:05Z</time>
      </trkpt>
      <trkpt lat="47.76857" lon="-3.58995">
        <ele>10</ele>
        <time>2018-07-18T09:43:06Z</time>
      </trkpt>
      <trkpt lat="47.76861" lon="-3.58997">
        <ele>10</ele>
        <time>2018-07-18T09:43:07Z</time>
      </trkpt>
      <trkpt lat="47.76864" lon="-3.58999">
        <ele>10</ele>
        <time>2018-07-18T09:43:08Z</time>
      </trkpt>
      <trkpt lat="47.76868" lon="-3.59001">
        <ele>11</ele>
        <time>2018-07-18T09:43:09Z</time>
      </trkpt>
      <trkpt lat="47.76871" lon="-3.59002">
        <ele>11</ele>
        <time>2018-07-18T09:43:10Z</time>
      </trkpt>
      <trkpt lat="47.76875" lon="-3.59003">
        <ele>11</ele>
        <time>2018-07-18T09:43:11Z</time>
      </trkpt>
      <trkpt lat="47.76879" lon="-3.59005">
        <ele>11</ele>
        <time>2018-07-18T09:43:12Z</time>
      </trkpt>
      <trkpt lat="47.76882" lon="-3.59007">
        <ele>11</ele>
        <time>2018-07-18T09:43:13Z</time>
      </trkpt>
      <trkpt lat="47.76886" lon="-3.5901">
        <ele>11</ele>
        <time>2018-07-18T09:43:14Z</time>
      </trkpt>
      <trkpt lat="47.76889" lon="-3.59014">
        <ele>11</ele>
        <time>2018-07-18T09:43:15Z</time>
      </trkpt>
      <trkpt lat="47.76893" lon="-3.59017">
        <ele>11</ele>
        <time>2018-07-18T09:43:16Z</time>
      </trkpt>
      <trkpt lat="47.76896" lon="-3.59021">
        <ele>11</ele>
        <time>2018-07-18T09:43:17Z</time>
      </trkpt>
      <trkpt lat="47.76899" lon="-3.59024">
        <ele>11</ele>
        <time>2018-07-18T09:43:18Z</time>
      </trkpt>
      <trkpt lat="47.76902" lon="-3.59026">
        <ele>10</ele>
        <time>2018-07-18T09:43:19Z</time>
      </trkpt>
      <trkpt lat="47.76906" lon="-3.59029">
        <ele>10</ele>
        <time>2018-07-18T09:43:20Z</time>
      </trkpt>
      <trkpt lat="47.76909" lon="-3.59032">
        <ele>10</ele>
        <time>2018-07-18T09:43:21Z</time>
      </trkpt>
      <trkpt lat="47.76912" lon="-3.59036">
        <ele>9</ele>
        <time>2018-07-18T09:43:22Z</time>
      </trkpt>
      <trkpt lat="47.76914" lon="-3.59041">
        <ele>9</ele>
        <time>2018-07-18T09:43:23Z</time>
      </trkpt>
      <trkpt lat="47.76915" lon="-3.59047">
        <ele>9</ele>
        <time>2018-07-18T09:43:24Z</time>
      </trkpt>
      <trkpt lat="47.76915" lon="-3.59053">
        <ele>9</ele>
        <time>2018-07-18T09:43:25Z</time>
      </trkpt>
      <trkpt lat="47.76916" lon="-3.59059">
        <ele>9</ele>
        <time>2018-07-18T09:43:26Z</time>
      </trkpt>
      <trkpt lat="47.76918" lon="-3.59064">
        <ele>9</ele>
        <time>2018-07-18T09:43:27Z</time>
      </trkpt>
      <trkpt lat="47.76919" lon="-3.59068">
        <ele>9</ele>
        <time>2018-07-18T09:43:28Z</time>
      </trkpt>
      <trkpt lat="47.76921" lon="-3.59072">
        <ele>9</ele>
        <time>2018-07-18T09:43:29Z</time>
      </trkpt>
      <trkpt lat="47.76923" lon="-3.59075">
        <ele>9</ele>
        <time>2018-07-18T09:43:30Z</time>
      </trkpt>
      <trkpt lat="47.76926" lon="-3.59078">
        <ele>9</ele>
        <time>2018-07-18T09:43:31Z</time>
      </trkpt>
      <trkpt lat="47.76928" lon="-3.59082">
        <ele>9</ele>
        <time>2018-07-18T09:43:32Z</time>
      </trkpt>
      <trkpt lat="47.7693" lon="-3.59085">
        <ele>9</ele>
        <time>2018-07-18T09:43:33Z</time>
      </trkpt>
      <trkpt lat="47.76932" lon="-3.59087">
        <ele>9</ele>
        <time>2018-07-18T09:43:34Z</time>
      </trkpt>
      <trkpt lat="47.76934" lon="-3.5909">
        <ele>9</ele>
        <time>2018-07-18T09:43:35Z</time>
      </trkpt>
      <trkpt lat="47.76935" lon="-3.59093">
        <ele>9</ele>
        <time>2018-07-18T09:43:36Z</time>
      </trkpt>
      <trkpt lat="47.76936" lon="-3.59096">
        <ele>9</ele>
        <time>2018-07-18T09:43:37Z</time>
      </trkpt>
      <trkpt lat="47.76937" lon="-3.59098">
        <ele>9</ele>
        <time>2018-07-18T09:43:38Z</time>
      </trkpt>
      <trkpt lat="47.76938" lon="-3.59098">
        <ele>9</ele>
        <time>2018-07-18T09:43:39Z</time>
      </trkpt>
      <trkpt lat="47.7694" lon="-3.59099">
        <ele>9</ele>
        <time>2018-07-18T09:43:40Z</time>
      </trkpt>
      <trkpt lat="47.76941" lon="-3.591">
        <ele>9</ele>
        <time>2018-07-18T09:43:41Z</time>
      </trkpt>
      <trkpt lat="47.76941" lon="-3.591">
        <ele>9</ele>
        <time>2018-07-18T09:43:42Z</time>
      </trkpt>
      <trkpt lat="47.76941" lon="-3.59101">
        <ele>8</ele>
        <time>2018-07-18T09:43:43Z</time>
      </trkpt>
      <trkpt lat="47.76941" lon="-3.59101">
        <ele>8</ele>
        <time>2018-07-18T09:43:44Z</time>
      </trkpt>
      <trkpt lat="47.76941" lon="-3.59101">
        <ele>8</ele>
        <time>2018-07-18T09:43:45Z</time>
      </trkpt>
      <trkpt lat="47.76942" lon="-3.59101">
        <ele>8</ele>
        <time>2018-07-18T09:43:46Z</time>
      </trkpt>
      <trkpt lat="47.76942" lon="-3.59102">
        <ele>8</ele>
        <time>2018-07-18T09:43:47Z</time>
      </trkpt>
      <trkpt lat="47.76942" lon="-3.59104">
        <ele>7</ele>
        <time>2018-07-18T09:43:48Z</time>
      </trkpt>
      <trkpt lat="47.76941" lon="-3.59105">
        <ele>7</ele>
        <time>2018-07-18T09:43:49Z</time>
      </trkpt>
      <trkpt lat="47.76941" lon="-3.59106">
        <ele>7</ele>
        <time>2018-07-18T09:43:50Z</time>
      </trkpt>
      <trkpt lat="47.76941" lon="-3.59106">
        <ele>7</ele>
        <time>2018-07-18T09:43:51Z</time>
      </trkpt>
      <trkpt lat="47.76941" lon="-3.59108">
        <ele>7</ele>
        <time>2018-07-18T09:43:52Z</time>
      </trkpt>
      <trkpt lat="47.76941" lon="-3.5911">
        <ele>7</ele>
        <time>2018-07-18T09:43:53Z</time>
      </trkpt>
      <trkpt lat="47.76941" lon="-3.59113">
        <ele>7</ele>
        <time>2018-07-18T09:43:54Z</time>
      </trkpt>
      <trkpt lat="47.76941" lon="-3.59114">
        <ele>7</ele>
        <time>2018-07-18T09:43:55Z</time>
      </trkpt>
      <trkpt lat="47.76941" lon="-3.59114">
        <ele>7</ele>
        <time>2018-07-18T09:43:56Z</time>
      </trkpt>
      <trkpt lat="47.76941" lon="-3.59114">
        <ele>7</ele>
        <time>2018-07-18T09:43:57Z</time>
      </trkpt>
      <trkpt lat="47.76942" lon="-3.59114">
        <ele>7</ele>
        <time>2018-07-18T09:43:58Z</time>
      </trkpt>
      <trkpt lat="47.76941" lon="-3.59114">
        <ele>7</ele>
        <time>2018-07-18T09:43:59Z</time>
      </trkpt>
      <trkpt lat="47.76941" lon="-3.59115">
        <ele>7</ele>
        <time>2018-07-18T09:44:00Z</time>
      </trkpt>
      <trkpt lat="47.76941" lon="-3.59117">
        <ele>7</ele>
        <time>2018-07-18T09:44:01Z</time>
      </trkpt>
      <trkpt lat="47.76941" lon="-3.59119">
        <ele>7</ele>
        <time>2018-07-18T09:44:02Z</time>
      </trkpt>
      <trkpt lat="47.76942" lon="-3.5912">
        <ele>7</ele>
        <time>2018-07-18T09:44:03Z</time>
      </trkpt>
      <trkpt lat="47.76941" lon="-3.59122">
        <ele>7</ele>
        <time>2018-07-18T09:44:04Z</time>
      </trkpt>
      <trkpt lat="47.76941" lon="-3.59124">
        <ele>7</ele>
        <time>2018-07-18T09:44:05Z</time>
      </trkpt>
      <trkpt lat="47.7694" lon="-3.59126">
        <ele>7</ele>
        <time>2018-07-18T09:44:06Z</time>
      </trkpt>
      <trkpt lat="47.7694" lon="-3.59127">
        <ele>7</ele>
        <time>2018-07-18T09:44:07Z</time>
      </trkpt>
      <trkpt lat="47.76939" lon="-3.59128">
        <ele>7</ele>
        <time>2018-07-18T09:44:08Z</time>
      </trkpt>
      <trkpt lat="47.76939" lon="-3.59129">
        <ele>7</ele>
        <time>2018-07-18T09:44:09Z</time>
      </trkpt>
      <trkpt lat="47.76938" lon="-3.59131">
        <ele>7</ele>
        <time>2018-07-18T09:44:10Z</time>
      </trkpt>
      <trkpt lat="47.76938" lon="-3.59132">
        <ele>7</ele>
        <time>2018-07-18T09:44:11Z</time>
      </trkpt>
      <trkpt lat="47.76938" lon="-3.59134">
        <ele>7</ele>
        <time>2018-07-18T09:44:12Z</time>
      </trkpt>
      <trkpt lat="47.76938" lon="-3.59135">
        <ele>7</ele>
        <time>2018-07-18T09:44:13Z</time>
      </trkpt>
      <trkpt lat="47.76938" lon="-3.59136">
        <ele>7</ele>
        <time>2018-07-18T09:44:14Z</time>
      </trkpt>
      <trkpt lat="47.76938" lon="-3.59138">
        <ele>8</ele>
        <time>2018-07-18T09:44:15Z</time>
      </trkpt>
      <trkpt lat="47.76938" lon="-3.59138">
        <ele>8</ele>
        <time>2018-07-18T09:44:16Z</time>
      </trkpt>
      <trkpt lat="47.76938" lon="-3.59139">
        <ele>8</ele>
        <time>2018-07-18T09:44:17Z</time>
      </trkpt>
      <trkpt lat="47.76938" lon="-3.59139">
        <ele>8</ele>
        <time>2018-07-18T09:44:18Z</time>
      </trkpt>
      <trkpt lat="47.76938" lon="-3.5914">
        <ele>8</ele>
        <time>2018-07-18T09:44:19Z</time>
      </trkpt>
      <trkpt lat="47.76938" lon="-3.59141">
        <ele>8</ele>
        <time>2018-07-18T09:44:20Z</time>
      </trkpt>
      <trkpt lat="47.76938" lon="-3.59142">
        <ele>8</ele>
        <time>2018-07-18T09:44:21Z</time>
      </trkpt>
      <trkpt lat="47.76938" lon="-3.59143">
        <ele>9</ele>
        <time>2018-07-18T09:44:22Z</time>
      </trkpt>
      <trkpt lat="47.76938" lon="-3.59144">
        <ele>9</ele>
        <time>2018-07-18T09:44:23Z</time>
      </trkpt>
      <trkpt lat="47.76938" lon="-3.59145">
        <ele>9</ele>
        <time>2018-07-18T09:44:24Z</time>
      </trkpt>
      <trkpt lat="47.76938" lon="-3.59146">
        <ele>9</ele>
        <time>2018-07-18T09:44:25Z</time>
      </trkpt>
      <trkpt lat="47.76938" lon="-3.59146">
        <ele>9</ele>
        <time>2018-07-18T09:44:26Z</time>
      </trkpt>
      <trkpt lat="47.76937" lon="-3.59147">
        <ele>9</ele>
        <time>2018-07-18T09:44:27Z</time>
      </trkpt>
      <trkpt lat="47.76937" lon="-3.59148">
        <ele>9</ele>
        <time>2018-07-18T09:44:28Z</time>
      </trkpt>
      <trkpt lat="47.76936" lon="-3.59149">
        <ele>9</ele>
        <time>2018-07-18T09:44:29Z</time>
      </trkpt>
      <trkpt lat="47.76936" lon="-3.59149">
        <ele>10</ele>
        <time>2018-07-18T09:44:30Z</time>
      </trkpt>
      <trkpt lat="47.76936" lon="-3.59149">
        <ele>10</ele>
        <time>2018-07-18T09:44:31Z</time>
      </trkpt>
      <trkpt lat="47.76936" lon="-3.59149">
        <ele>10</ele>
        <time>2018-07-18T09:44:32Z</time>
      </trkpt>
      <trkpt lat="47.76936" lon="-3.59156">
        <ele>10</ele>
        <time>2018-07-18T09:44:33Z</time>
      </trkpt>
      <trkpt lat="47.76937" lon="-3.59159">
        <ele>10</ele>
        <time>2018-07-18T09:44:34Z</time>
      </trkpt>
      <trkpt lat="47.76937" lon="-3.59162">
        <ele>10</ele>
        <time>2018-07-18T09:44:35Z</time>
      </trkpt>
      <trkpt lat="47.76938" lon="-3.59164">
        <ele>10</ele>
        <time>2018-07-18T09:44:36Z</time>
      </trkpt>
      <trkpt lat="47.76938" lon="-3.59167">
        <ele>10</ele>
        <time>2018-07-18T09:44:37Z</time>
      </trkpt>
      <trkpt lat="47.76938" lon="-3.5917">
        <ele>10</ele>
        <time>2018-07-18T09:44:38Z</time>
      </trkpt>
      <trkpt lat="47.76938" lon="-3.59174">
        <ele>10</ele>
        <time>2018-07-18T09:44:39Z</time>
      </trkpt>
      <trkpt lat="47.76938" lon="-3.59177">
        <ele>10</ele>
        <time>2018-07-18T09:44:40Z</time>
      </trkpt>
      <trkpt lat="47.76938" lon="-3.5918">
        <ele>10</ele>
        <time>2018-07-18T09:44:41Z</time>
      </trkpt>
      <trkpt lat="47.76937" lon="-3.59182">
        <ele>10</ele>
        <time>2018-07-18T09:44:42Z</time>
      </trkpt>
      <trkpt lat="47.76935" lon="-3.59184">
        <ele>10</ele>
        <time>2018-07-18T09:44:43Z</time>
      </trkpt>
      <trkpt lat="47.76934" lon="-3.59186">
        <ele>10</ele>
        <time>2018-07-18T09:44:44Z</time>
      </trkpt>
      <trkpt lat="47.76932" lon="-3.59188">
        <ele>10</ele>
        <time>2018-07-18T09:44:45Z</time>
      </trkpt>
      <trkpt lat="47.76931" lon="-3.59191">
        <ele>10</ele>
        <time>2018-07-18T09:44:46Z</time>
      </trkpt>
      <trkpt lat="47.7693" lon="-3.59196">
        <ele>10</ele>
        <time>2018-07-18T09:44:47Z</time>
      </trkpt>
      <trkpt lat="47.76928" lon="-3.592">
        <ele>10</ele>
        <time>2018-07-18T09:44:48Z</time>
      </trkpt>
      <trkpt lat="47.76925" lon="-3.59204">
        <ele>10</ele>
        <time>2018-07-18T09:44:49Z</time>
      </trkpt>
      <trkpt lat="47.76922" lon="-3.59207">
        <ele>10</ele>
        <time>2018-07-18T09:44:50Z</time>
      </trkpt>
      <trkpt lat="47.7692" lon="-3.5921">
        <ele>10</ele>
        <time>2018-07-18T09:44:51Z</time>
      </trkpt>
      <trkpt lat="47.76917" lon="-3.59212">
        <ele>9</ele>
        <time>2018-07-18T09:44:52Z</time>
      </trkpt>
      <trkpt lat="47.76914" lon="-3.59215">
        <ele>9</ele>
        <time>2018-07-18T09:44:53Z</time>
      </trkpt>
      <trkpt lat="47.76912" lon="-3.59219">
        <ele>9</ele>
        <time>2018-07-18T09:44:54Z</time>
      </trkpt>
      <trkpt lat="47.76911" lon="-3.59223">
        <ele>10</ele>
        <time>2018-07-18T09:44:55Z</time>
      </trkpt>
      <trkpt lat="47.76909" lon="-3.59225">
        <ele>10</ele>
        <time>2018-07-18T09:44:56Z</time>
      </trkpt>
      <trkpt lat="47.76906" lon="-3.59227">
        <ele>10</ele>
        <time>2018-07-18T09:44:57Z</time>
      </trkpt>
      <trkpt lat="47.76904" lon="-3.59228">
        <ele>10</ele>
        <time>2018-07-18T09:44:58Z</time>
      </trkpt>
      <trkpt lat="47.76903" lon="-3.5923">
        <ele>10</ele>
        <time>2018-07-18T09:44:59Z</time>
      </trkpt>
      <trkpt lat="47.76902" lon="-3.59231">
        <ele>10</ele>
        <time>2018-07-18T09:45:00Z</time>
      </trkpt>
      <trkpt lat="47.76901" lon="-3.59231">
        <ele>10</ele>
        <time>2018-07-18T09:45:01Z</time>
      </trkpt>
      <trkpt lat="47.769" lon="-3.5923">
        <ele>10</ele>
        <time>2018-07-18T09:45:02Z</time>
      </trkpt>
      <trkpt lat="47.76898" lon="-3.5923">
        <ele>10</ele>
        <time>2018-07-18T09:45:03Z</time>
      </trkpt>
      <trkpt lat="47.76896" lon="-3.59228">
        <ele>10</ele>
        <time>2018-07-18T09:45:04Z</time>
      </trkpt>
      <trkpt lat="47.76893" lon="-3.59228">
        <ele>10</ele>
        <time>2018-07-18T09:45:05Z</time>
      </trkpt>
      <trkpt lat="47.76891" lon="-3.59227">
        <ele>10</ele>
        <time>2018-07-18T09:45:06Z</time>
      </trkpt>
      <trkpt lat="47.76888" lon="-3.59227">
        <ele>10</ele>
        <time>2018-07-18T09:45:07Z</time>
      </trkpt>
      <trkpt lat="47.76886" lon="-3.59229">
        <ele>10</ele>
        <time>2018-07-18T09:45:08Z</time>
      </trkpt>
      <trkpt lat="47.76883" lon="-3.59231">
        <ele>10</ele>
        <time>2018-07-18T09:45:09Z</time>
      </trkpt>
      <trkpt lat="47.7688" lon="-3.59232">
        <ele>10</ele>
        <time>2018-07-18T09:45:10Z</time>
      </trkpt>
      <trkpt lat="47.76878" lon="-3.59234">
        <ele>10</ele>
        <time>2018-07-18T09:45:11Z</time>
      </trkpt>
      <trkpt lat="47.76875" lon="-3.59236">
        <ele>10</ele>
        <time>2018-07-18T09:45:12Z</time>
      </trkpt>
      <trkpt lat="47.76872" lon="-3.59237">
        <ele>10</ele>
        <time>2018-07-18T09:45:13Z</time>
      </trkpt>
      <trkpt lat="47.7687" lon="-3.59238">
        <ele>10</ele>
        <time>2018-07-18T09:45:14Z</time>
      </trkpt>
      <trkpt lat="47.76867" lon="-3.5924">
        <ele>10</ele>
        <time>2018-07-18T09:45:15Z</time>
      </trkpt>
      <trkpt lat="47.76864" lon="-3.59242">
        <ele>10</ele>
        <time>2018-07-18T09:45:16Z</time>
      </trkpt>
      <trkpt lat="47.76861" lon="-3.59245">
        <ele>10</ele>
        <time>2018-07-18T09:45:17Z</time>
      </trkpt>
      <trkpt lat="47.76859" lon="-3.59248">
        <ele>11</ele>
        <time>2018-07-18T09:45:18Z</time>
      </trkpt>
      <trkpt lat="47.76856" lon="-3.59251">
        <ele>11</ele>
        <time>2018-07-18T09:45:19Z</time>
      </trkpt>
      <trkpt lat="47.76853" lon="-3.59255">
        <ele>11</ele>
        <time>2018-07-18T09:45:20Z</time>
      </trkpt>
      <trkpt lat="47.7685" lon="-3.59257">
        <ele>11</ele>
        <time>2018-07-18T09:45:21Z</time>
      </trkpt>
      <trkpt lat="47.76847" lon="-3.5926">
        <ele>11</ele>
        <time>2018-07-18T09:45:22Z</time>
      </trkpt>
      <trkpt lat="47.76844" lon="-3.59264">
        <ele>11</ele>
        <time>2018-07-18T09:45:23Z</time>
      </trkpt>
      <trkpt lat="47.76841" lon="-3.59268">
        <ele>11</ele>
        <time>2018-07-18T09:45:24Z</time>
      </trkpt>
      <trkpt lat="47.7684" lon="-3.59273">
        <ele>11</ele>
        <time>2018-07-18T09:45:25Z</time>
      </trkpt>
      <trkpt lat="47.76839" lon="-3.59278">
        <ele>11</ele>
        <time>2018-07-18T09:45:26Z</time>
      </trkpt>
      <trkpt lat="47.76838" lon="-3.59283">
        <ele>11</ele>
        <time>2018-07-18T09:45:27Z</time>
      </trkpt>
      <trkpt lat="47.76838" lon="-3.59289">
        <ele>11</ele>
        <time>2018-07-18T09:45:28Z</time>
      </trkpt>
      <trkpt lat="47.76839" lon="-3.59295">
        <ele>11</ele>
        <time>2018-07-18T09:45:29Z</time>
      </trkpt>
      <trkpt lat="47.7684" lon="-3.59301">
        <ele>11</ele>
        <time>2018-07-18T09:45:30Z</time>
      </trkpt>
      <trkpt lat="47.76841" lon="-3.59307">
        <ele>11</ele>
        <time>2018-07-18T09:45:31Z</time>
      </trkpt>
      <trkpt lat="47.76843" lon="-3.59312">
        <ele>11</ele>
        <time>2018-07-18T09:45:32Z</time>
      </trkpt>
      <trkpt lat="47.76845" lon="-3.59318">
        <ele>11</ele>
        <time>2018-07-18T09:45:33Z</time>
      </trkpt>
      <trkpt lat="47.76847" lon="-3.59323">
        <ele>11</ele>
        <time>2018-07-18T09:45:34Z</time>
      </trkpt>
      <trkpt lat="47.7685" lon="-3.59328">
        <ele>11</ele>
        <time>2018-07-18T09:45:35Z</time>
      </trkpt>
      <trkpt lat="47.76852" lon="-3.59332">
        <ele>11</ele>
        <time>2018-07-18T09:45:36Z</time>
      </trkpt>
      <trkpt lat="47.76854" lon="-3.59338">
        <ele>11</ele>
        <time>2018-07-18T09:45:37Z</time>
      </trkpt>
      <trkpt lat="47.76856" lon="-3.59342">
        <ele>11</ele>
        <time>2018-07-18T09:45:38Z</time>
      </trkpt>
      <trkpt lat="47.76859" lon="-3.59346">
        <ele>12</ele>
        <time>2018-07-18T09:45:39Z</time>
      </trkpt>
      <trkpt lat="47.76862" lon="-3.59351">
        <ele>12</ele>
        <time>2018-07-18T09:45:40Z</time>
      </trkpt>
      <trkpt lat="47.76866" lon="-3.59355">
        <ele>12</ele>
        <time>2018-07-18T09:45:41Z</time>
      </trkpt>
      <trkpt lat="47.76869" lon="-3.59358">
        <ele>12</ele>
        <time>2018-07-18T09:45:42Z</time>
      </trkpt>
      <trkpt lat="47.76872" lon="-3.59362">
        <ele>12</ele>
        <time>2018-07-18T09:45:43Z</time>
      </trkpt>
      <trkpt lat="47.76874" lon="-3.59367">
        <ele>12</ele>
        <time>2018-07-18T09:45:44Z</time>
      </trkpt>
      <trkpt lat="47.76876" lon="-3.59373">
        <ele>12</ele>
        <time>2018-07-18T09:45:45Z</time>
      </trkpt>
      <trkpt lat="47.76878" lon="-3.59378">
        <ele>11</ele>
        <time>2018-07-18T09:45:46Z</time>
      </trkpt>
      <trkpt lat="47.7688" lon="-3.59384">
        <ele>11</ele>
        <time>2018-07-18T09:45:47Z</time>
      </trkpt>
      <trkpt lat="47.76882" lon="-3.59391">
        <ele>11</ele>
        <time>2018-07-18T09:45:48Z</time>
      </trkpt>
      <trkpt lat="47.76883" lon="-3.59398">
        <ele>11</ele>
        <time>2018-07-18T09:45:49Z</time>
      </trkpt>
      <trkpt lat="47.76883" lon="-3.59405">
        <ele>10</ele>
        <time>2018-07-18T09:45:50Z</time>
      </trkpt>
      <trkpt lat="47.76883" lon="-3.59412">
        <ele>10</ele>
        <time>2018-07-18T09:45:51Z</time>
      </trkpt>
      <trkpt lat="47.76883" lon="-3.59419">
        <ele>10</ele>
        <time>2018-07-18T09:45:52Z</time>
      </trkpt>
      <trkpt lat="47.76884" lon="-3.59427">
        <ele>10</ele>
        <time>2018-07-18T09:45:53Z</time>
      </trkpt>
      <trkpt lat="47.76885" lon="-3.59434">
        <ele>10</ele>
        <time>2018-07-18T09:45:54Z</time>
      </trkpt>
      <trkpt lat="47.76887" lon="-3.5944">
        <ele>10</ele>
        <time>2018-07-18T09:45:55Z</time>
      </trkpt>
      <trkpt lat="47.76889" lon="-3.59447">
        <ele>9</ele>
        <time>2018-07-18T09:45:56Z</time>
      </trkpt>
      <trkpt lat="47.76892" lon="-3.59453">
        <ele>9</ele>
        <time>2018-07-18T09:45:57Z</time>
      </trkpt>
      <trkpt lat="47.76895" lon="-3.59459">
        <ele>9</ele>
        <time>2018-07-18T09:45:58Z</time>
      </trkpt>
      <trkpt lat="47.76898" lon="-3.59465">
        <ele>9</ele>
        <time>2018-07-18T09:45:59Z</time>
      </trkpt>
      <trkpt lat="47.769" lon="-3.59471">
        <ele>9</ele>
        <time>2018-07-18T09:46:00Z</time>
      </trkpt>
      <trkpt lat="47.76902" lon="-3.59477">
        <ele>9</ele>
        <time>2018-07-18T09:46:01Z</time>
      </trkpt>
      <trkpt lat="47.76904" lon="-3.59483">
        <ele>9</ele>
        <time>2018-07-18T09:46:02Z</time>
      </trkpt>
      <trkpt lat="47.76906" lon="-3.59488">
        <ele>10</ele>
        <time>2018-07-18T09:46:03Z</time>
      </trkpt>
      <trkpt lat="47.76906" lon="-3.59493">
        <ele>10</ele>
        <time>2018-07-18T09:46:04Z</time>
      </trkpt>
      <trkpt lat="47.76907" lon="-3.59498">
        <ele>10</ele>
        <time>2018-07-18T09:46:05Z</time>
      </trkpt>
      <trkpt lat="47.76908" lon="-3.59503">
        <ele>10</ele>
        <time>2018-07-18T09:46:06Z</time>
      </trkpt>
      <trkpt lat="47.76908" lon="-3.59509">
        <ele>10</ele>
        <time>2018-07-18T09:46:07Z</time>
      </trkpt>
      <trkpt lat="47.76909" lon="-3.59513">
        <ele>10</ele>
        <time>2018-07-18T09:46:08Z</time>
      </trkpt>
      <trkpt lat="47.7691" lon="-3.59516">
        <ele>10</ele>
        <time>2018-07-18T09:46:09Z</time>
      </trkpt>
      <trkpt lat="47.76911" lon="-3.59516">
        <ele>11</ele>
        <time>2018-07-18T09:46:10Z</time>
      </trkpt>
      <trkpt lat="47.76912" lon="-3.59517">
        <ele>11</ele>
        <time>2018-07-18T09:46:11Z</time>
      </trkpt>
      <trkpt lat="47.76914" lon="-3.59517">
        <ele>11</ele>
        <time>2018-07-18T09:46:12Z</time>
      </trkpt>
      <trkpt lat="47.76915" lon="-3.5952">
        <ele>11</ele>
        <time>2018-07-18T09:46:13Z</time>
      </trkpt>
      <trkpt lat="47.76917" lon="-3.59523">
        <ele>11</ele>
        <time>2018-07-18T09:46:14Z</time>
      </trkpt>
      <trkpt lat="47.7692" lon="-3.59527">
        <ele>11</ele>
        <time>2018-07-18T09:46:15Z</time>
      </trkpt>
      <trkpt lat="47.76922" lon="-3.59532">
        <ele>11</ele>
        <time>2018-07-18T09:46:16Z</time>
      </trkpt>
      <trkpt lat="47.76925" lon="-3.59536">
        <ele>11</ele>
        <time>2018-07-18T09:46:17Z</time>
      </trkpt>
      <trkpt lat="47.76927" lon="-3.59541">
        <ele>11</ele>
        <time>2018-07-18T09:46:18Z</time>
      </trkpt>
      <trkpt lat="47.7693" lon="-3.59545">
        <ele>11</ele>
        <time>2018-07-18T09:46:19Z</time>
      </trkpt>
      <trkpt lat="47.76933" lon="-3.5955">
        <ele>11</ele>
        <time>2018-07-18T09:46:20Z</time>
      </trkpt>
      <trkpt lat="47.76935" lon="-3.59554">
        <ele>11</ele>
        <time>2018-07-18T09:46:21Z</time>
      </trkpt>
      <trkpt lat="47.76937" lon="-3.59558">
        <ele>11</ele>
        <time>2018-07-18T09:46:22Z</time>
      </trkpt>
      <trkpt lat="47.7694" lon="-3.59562">
        <ele>11</ele>
        <time>2018-07-18T09:46:23Z</time>
      </trkpt>
      <trkpt lat="47.76942" lon="-3.59567">
        <ele>11</ele>
        <time>2018-07-18T09:46:24Z</time>
      </trkpt>
      <trkpt lat="47.76944" lon="-3.59571">
        <ele>12</ele>
        <time>2018-07-18T09:46:25Z</time>
      </trkpt>
      <trkpt lat="47.76946" lon="-3.59576">
        <ele>12</ele>
        <time>2018-07-18T09:46:26Z</time>
      </trkpt>
      <trkpt lat="47.76948" lon="-3.5958">
        <ele>12</ele>
        <time>2018-07-18T09:46:27Z</time>
      </trkpt>
      <trkpt lat="47.76951" lon="-3.59584">
        <ele>12</ele>
        <time>2018-07-18T09:46:28Z</time>
      </trkpt>
      <trkpt lat="47.76953" lon="-3.59587">
        <ele>12</ele>
        <time>2018-07-18T09:46:29Z</time>
      </trkpt>
      <trkpt lat="47.76956" lon="-3.59588">
        <ele>13</ele>
        <time>2018-07-18T09:46:30Z</time>
      </trkpt>
      <trkpt lat="47.76958" lon="-3.59588">
        <ele>13</ele>
        <time>2018-07-18T09:46:31Z</time>
      </trkpt>
      <trkpt lat="47.7696" lon="-3.59589">
        <ele>13</ele>
        <time>2018-07-18T09:46:32Z</time>
      </trkpt>
      <trkpt lat="47.76962" lon="-3.59591">
        <ele>13</ele>
        <time>2018-07-18T09:46:33Z</time>
      </trkpt>
      <trkpt lat="47.76965" lon="-3.59591">
        <ele>13</ele>
        <time>2018-07-18T09:46:34Z</time>
      </trkpt>
      <trkpt lat="47.76969" lon="-3.59592">
        <ele>13</ele>
        <time>2018-07-18T09:46:35Z</time>
      </trkpt>
      <trkpt lat="47.76971" lon="-3.59592">
        <ele>13</ele>
        <time>2018-07-18T09:46:36Z</time>
      </trkpt>
      <trkpt lat="47.76974" lon="-3.59593">
        <ele>13</ele>
        <time>2018-07-18T09:46:37Z</time>
      </trkpt>
      <trkpt lat="47.76978" lon="-3.59592">
        <ele>13</ele>
        <time>2018-07-18T09:46:38Z</time>
      </trkpt>
      <trkpt lat="47.76981" lon="-3.59592">
        <ele>13</ele>
        <time>2018-07-18T09:46:39Z</time>
      </trkpt>
      <trkpt lat="47.76985" lon="-3.59592">
        <ele>13</ele>
        <time>2018-07-18T09:46:40Z</time>
      </trkpt>
      <trkpt lat="47.76988" lon="-3.59595">
        <ele>13</ele>
        <time>2018-07-18T09:46:41Z</time>
      </trkpt>
      <trkpt lat="47.76991" lon="-3.59598">
        <ele>13</ele>
        <time>2018-07-18T09:46:42Z</time>
      </trkpt>
      <trkpt lat="47.76993" lon="-3.59602">
        <ele>13</ele>
        <time>2018-07-18T09:46:43Z</time>
      </trkpt>
      <trkpt lat="47.76995" lon="-3.59606">
        <ele>13</ele>
        <time>2018-07-18T09:46:44Z</time>
      </trkpt>
      <trkpt lat="47.76996" lon="-3.5961">
        <ele>13</ele>
        <time>2018-07-18T09:46:45Z</time>
      </trkpt>
      <trkpt lat="47.76997" lon="-3.59614">
        <ele>13</ele>
        <time>2018-07-18T09:46:46Z</time>
      </trkpt>
      <trkpt lat="47.76998" lon="-3.59618">
        <ele>13</ele>
        <time>2018-07-18T09:46:47Z</time>
      </trkpt>
      <trkpt lat="47.76998" lon="-3.59622">
        <ele>13</ele>
        <time>2018-07-18T09:46:48Z</time>
      </trkpt>
      <trkpt lat="47.76999" lon="-3.59626">
        <ele>13</ele>
        <time>2018-07-18T09:46:49Z</time>
      </trkpt>
      <trkpt lat="47.77" lon="-3.59631">
        <ele>13</ele>
        <time>2018-07-18T09:46:50Z</time>
      </trkpt>
      <trkpt lat="47.77" lon="-3.59635">
        <ele>12</ele>
        <time>2018-07-18T09:46:51Z</time>
      </trkpt>
      <trkpt lat="47.77" lon="-3.59641">
        <ele>12</ele>
        <time>2018-07-18T09:46:52Z</time>
      </trkpt>
      <trkpt lat="47.77" lon="-3.59646">
        <ele>12</ele>
        <time>2018-07-18T09:46:53Z</time>
      </trkpt>
      <trkpt lat="47.77" lon="-3.5965">
        <ele>12</ele>
        <time>2018-07-18T09:46:54Z</time>
      </trkpt>
      <trkpt lat="47.77" lon="-3.59655">
        <ele>12</ele>
        <time>2018-07-18T09:46:55Z</time>
      </trkpt>
      <trkpt lat="47.77" lon="-3.5966">
        <ele>11</ele>
        <time>2018-07-18T09:46:56Z</time>
      </trkpt>
      <trkpt lat="47.77" lon="-3.59665">
        <ele>11</ele>
        <time>2018-07-18T09:46:57Z</time>
      </trkpt>
      <trkpt lat="47.77001" lon="-3.5967">
        <ele>11</ele>
        <time>2018-07-18T09:46:58Z</time>
      </trkpt>
      <trkpt lat="47.77002" lon="-3.59675">
        <ele>11</ele>
        <time>2018-07-18T09:46:59Z</time>
      </trkpt>
      <trkpt lat="47.77004" lon="-3.5968">
        <ele>11</ele>
        <time>2018-07-18T09:47:00Z</time>
      </trkpt>
      <trkpt lat="47.77006" lon="-3.59684">
        <ele>11</ele>
        <time>2018-07-18T09:47:01Z</time>
      </trkpt>
      <trkpt lat="47.77009" lon="-3.59687">
        <ele>11</ele>
        <time>2018-07-18T09:47:02Z</time>
      </trkpt>
      <trkpt lat="47.77012" lon="-3.5969">
        <ele>10</ele>
        <time>2018-07-18T09:47:03Z</time>
      </trkpt>
      <trkpt lat="47.77015" lon="-3.59691">
        <ele>10</ele>
        <time>2018-07-18T09:47:04Z</time>
      </trkpt>
      <trkpt lat="47.77017" lon="-3.59694">
        <ele>10</ele>
        <time>2018-07-18T09:47:05Z</time>
      </trkpt>
      <trkpt lat="47.77018" lon="-3.59697">
        <ele>10</ele>
        <time>2018-07-18T09:47:06Z</time>
      </trkpt>
      <trkpt lat="47.7702" lon="-3.597">
        <ele>10</ele>
        <time>2018-07-18T09:47:07Z</time>
      </trkpt>
      <trkpt lat="47.77021" lon="-3.59703">
        <ele>10</ele>
        <time>2018-07-18T09:47:08Z</time>
      </trkpt>
      <trkpt lat="47.77022" lon="-3.59706">
        <ele>9</ele>
        <time>2018-07-18T09:47:09Z</time>
      </trkpt>
      <trkpt lat="47.77023" lon="-3.59709">
        <ele>9</ele>
        <time>2018-07-18T09:47:10Z</time>
      </trkpt>
      <trkpt lat="47.77024" lon="-3.59712">
        <ele>9</ele>
        <time>2018-07-18T09:47:11Z</time>
      </trkpt>
      <trkpt lat="47.77024" lon="-3.59716">
        <ele>9</ele>
        <time>2018-07-18T09:47:12Z</time>
      </trkpt>
      <trkpt lat="47.77025" lon="-3.59719">
        <ele>9</ele>
        <time>2018-07-18T09:47:13Z</time>
      </trkpt>
      <trkpt lat="47.77024" lon="-3.59722">
        <ele>9</ele>
        <time>2018-07-18T09:47:14Z</time>
      </trkpt>
      <trkpt lat="47.77023" lon="-3.59724">
        <ele>9</ele>
        <time>2018-07-18T09:47:15Z</time>
      </trkpt>
      <trkpt lat="47.77023" lon="-3.59726">
        <ele>9</ele>
        <time>2018-07-18T09:47:16Z</time>
      </trkpt>
      <trkpt lat="47.77022" lon="-3.59728">
        <ele>10</ele>
        <time>2018-07-18T09:47:17Z</time>
      </trkpt>
      <trkpt lat="47.77021" lon="-3.59731">
        <ele>10</ele>
        <time>2018-07-18T09:47:18Z</time>
      </trkpt>
      <trkpt lat="47.7702" lon="-3.59733">
        <ele>10</ele>
        <time>2018-07-18T09:47:19Z</time>
      </trkpt>
      <trkpt lat="47.77019" lon="-3.59736">
        <ele>10</ele>
        <time>2018-07-18T09:47:20Z</time>
      </trkpt>
      <trkpt lat="47.77018" lon="-3.59738">
        <ele>10</ele>
        <time>2018-07-18T09:47:21Z</time>
      </trkpt>
      <trkpt lat="47.77017" lon="-3.5974">
        <ele>10</ele>
        <time>2018-07-18T09:47:22Z</time>
      </trkpt>
      <trkpt lat="47.77017" lon="-3.59742">
        <ele>10</ele>
        <time>2018-07-18T09:47:23Z</time>
      </trkpt>
      <trkpt lat="47.77016" lon="-3.59744">
        <ele>10</ele>
        <time>2018-07-18T09:47:24Z</time>
      </trkpt>
      <trkpt lat="47.77015" lon="-3.59746">
        <ele>10</ele>
        <time>2018-07-18T09:47:25Z</time>
      </trkpt>
      <trkpt lat="47.77015" lon="-3.59748">
        <ele>11</ele>
        <time>2018-07-18T09:47:26Z</time>
      </trkpt>
      <trkpt lat="47.77014" lon="-3.5975">
        <ele>11</ele>
        <time>2018-07-18T09:47:27Z</time>
      </trkpt>
      <trkpt lat="47.77014" lon="-3.59752">
        <ele>11</ele>
        <time>2018-07-18T09:47:28Z</time>
      </trkpt>
      <trkpt lat="47.77014" lon="-3.59753">
        <ele>11</ele>
        <time>2018-07-18T09:47:29Z</time>
      </trkpt>
      <trkpt lat="47.77014" lon="-3.59754">
        <ele>11</ele>
        <time>2018-07-18T09:47:30Z</time>
      </trkpt>
      <trkpt lat="47.77013" lon="-3.59755">
        <ele>11</ele>
        <time>2018-07-18T09:47:31Z</time>
      </trkpt>
      <trkpt lat="47.77013" lon="-3.59756">
        <ele>11</ele>
        <time>2018-07-18T09:47:32Z</time>
      </trkpt>
      <trkpt lat="47.77013" lon="-3.59758">
        <ele>11</ele>
        <time>2018-07-18T09:47:33Z</time>
      </trkpt>
      <trkpt lat="47.77013" lon="-3.5976">
        <ele>11</ele>
        <time>2018-07-18T09:47:34Z</time>
      </trkpt>
      <trkpt lat="47.77013" lon="-3.59763">
        <ele>11</ele>
        <time>2018-07-18T09:47:35Z</time>
      </trkpt>
      <trkpt lat="47.77013" lon="-3.59766">
        <ele>11</ele>
        <time>2018-07-18T09:47:36Z</time>
      </trkpt>
      <trkpt lat="47.77013" lon="-3.59769">
        <ele>11</ele>
        <time>2018-07-18T09:47:37Z</time>
      </trkpt>
      <trkpt lat="47.77013" lon="-3.59773">
        <ele>12</ele>
        <time>2018-07-18T09:47:38Z</time>
      </trkpt>
      <trkpt lat="47.77012" lon="-3.59776">
        <ele>12</ele>
        <time>2018-07-18T09:47:39Z</time>
      </trkpt>
      <trkpt lat="47.77012" lon="-3.59779">
        <ele>12</ele>
        <time>2018-07-18T09:47:40Z</time>
      </trkpt>
      <trkpt lat="47.77012" lon="-3.59784">
        <ele>11</ele>
        <time>2018-07-18T09:47:41Z</time>
      </trkpt>
      <trkpt lat="47.77012" lon="-3.59789">
        <ele>11</ele>
        <time>2018-07-18T09:47:42Z</time>
      </trkpt>
      <trkpt lat="47.77013" lon="-3.59793">
        <ele>11</ele>
        <time>2018-07-18T09:47:43Z</time>
      </trkpt>
      <trkpt lat="47.77014" lon="-3.59797">
        <ele>11</ele>
        <time>2018-07-18T09:47:44Z</time>
      </trkpt>
      <trkpt lat="47.77016" lon="-3.598">
        <ele>12</ele>
        <time>2018-07-18T09:47:45Z</time>
      </trkpt>
      <trkpt lat="47.77018" lon="-3.59802">
        <ele>12</ele>
        <time>2018-07-18T09:47:46Z</time>
      </trkpt>
      <trkpt lat="47.7702" lon="-3.59805">
        <ele>12</ele>
        <time>2018-07-18T09:47:47Z</time>
      </trkpt>
      <trkpt lat="47.77022" lon="-3.59808">
        <ele>12</ele>
        <time>2018-07-18T09:47:48Z</time>
      </trkpt>
      <trkpt lat="47.77023" lon="-3.59811">
        <ele>12</ele>
        <time>2018-07-18T09:47:49Z</time>
      </trkpt>
      <trkpt lat="47.77025" lon="-3.59814">
        <ele>12</ele>
        <time>2018-07-18T09:47:50Z</time>
      </trkpt>
      <trkpt lat="47.77026" lon="-3.59817">
        <ele>13</ele>
        <time>2018-07-18T09:47:51Z</time>
      </trkpt>
      <trkpt lat="47.77028" lon="-3.5982">
        <ele>13</ele>
        <time>2018-07-18T09:47:52Z</time>
      </trkpt>
      <trkpt lat="47.77029" lon="-3.59823">
        <ele>13</ele>
        <time>2018-07-18T09:47:53Z</time>
      </trkpt>
      <trkpt lat="47.7703" lon="-3.59827">
        <ele>13</ele>
        <time>2018-07-18T09:47:54Z</time>
      </trkpt>
      <trkpt lat="47.77032" lon="-3.5983">
        <ele>13</ele>
        <time>2018-07-18T09:47:55Z</time>
      </trkpt>
      <trkpt lat="47.77033" lon="-3.59832">
        <ele>13</ele>
        <time>2018-07-18T09:47:56Z</time>
      </trkpt>
      <trkpt lat="47.77035" lon="-3.59835">
        <ele>14</ele>
        <time>2018-07-18T09:47:57Z</time>
      </trkpt>
      <trkpt lat="47.77036" lon="-3.59837">
        <ele>14</ele>
        <time>2018-07-18T09:47:58Z</time>
      </trkpt>
      <trkpt lat="47.77037" lon="-3.5984">
        <ele>14</ele>
        <time>2018-07-18T09:47:59Z</time>
      </trkpt>
      <trkpt lat="47.77037" lon="-3.59844">
        <ele>14</ele>
        <time>2018-07-18T09:48:00Z</time>
      </trkpt>
      <trkpt lat="47.77037" lon="-3.59847">
        <ele>14</ele>
        <time>2018-07-18T09:48:01Z</time>
      </trkpt>
      <trkpt lat="47.77038" lon="-3.5985">
        <ele>14</ele>
        <time>2018-07-18T09:48:02Z</time>
      </trkpt>
      <trkpt lat="47.77037" lon="-3.59854">
        <ele>14</ele>
        <time>2018-07-18T09:48:03Z</time>
      </trkpt>
      <trkpt lat="47.77035" lon="-3.59857">
        <ele>14</ele>
        <time>2018-07-18T09:48:04Z</time>
      </trkpt>
      <trkpt lat="47.77033" lon="-3.59859">
        <ele>14</ele>
        <time>2018-07-18T09:48:05Z</time>
      </trkpt>
      <trkpt lat="47.77031" lon="-3.5986">
        <ele>14</ele>
        <time>2018-07-18T09:48:06Z</time>
      </trkpt>
      <trkpt lat="47.77029" lon="-3.59861">
        <ele>14</ele>
        <time>2018-07-18T09:48:07Z</time>
      </trkpt>
      <trkpt lat="47.77028" lon="-3.59862">
        <ele>13</ele>
        <time>2018-07-18T09:48:08Z</time>
      </trkpt>
      <trkpt lat="47.77028" lon="-3.59862">
        <ele>13</ele>
        <time>2018-07-18T09:48:09Z</time>
      </trkpt>
      <trkpt lat="47.77028" lon="-3.59862">
        <ele>13</ele>
        <time>2018-07-18T09:48:10Z</time>
      </trkpt>
      <trkpt lat="47.77028" lon="-3.59862">
        <ele>13</ele>
        <time>2018-07-18T09:48:11Z</time>
      </trkpt>
      <trkpt lat="47.77028" lon="-3.59862">
        <ele>13</ele>
        <time>2018-07-18T09:48:12Z</time>
      </trkpt>
      <trkpt lat="47.77027" lon="-3.59863">
        <ele>12</ele>
        <time>2018-07-18T09:48:13Z</time>
      </trkpt>
      <trkpt lat="47.77026" lon="-3.59864">
        <ele>12</ele>
        <time>2018-07-18T09:48:14Z</time>
      </trkpt>
      <trkpt lat="47.77024" lon="-3.59867">
        <ele>12</ele>
        <time>2018-07-18T09:48:15Z</time>
      </trkpt>
      <trkpt lat="47.77022" lon="-3.59871">
        <ele>12</ele>
        <time>2018-07-18T09:48:16Z</time>
      </trkpt>
      <trkpt lat="47.7702" lon="-3.59875">
        <ele>11</ele>
        <time>2018-07-18T09:48:17Z</time>
      </trkpt>
      <trkpt lat="47.77017" lon="-3.59879">
        <ele>11</ele>
        <time>2018-07-18T09:48:18Z</time>
      </trkpt>
      <trkpt lat="47.77017" lon="-3.59883">
        <ele>11</ele>
        <time>2018-07-18T09:48:19Z</time>
      </trkpt>
      <trkpt lat="47.77016" lon="-3.59888">
        <ele>11</ele>
        <time>2018-07-18T09:48:20Z</time>
      </trkpt>
      <trkpt lat="47.77015" lon="-3.59891">
        <ele>11</ele>
        <time>2018-07-18T09:48:21Z</time>
      </trkpt>
      <trkpt lat="47.77015" lon="-3.59894">
        <ele>11</ele>
        <time>2018-07-18T09:48:22Z</time>
      </trkpt>
      <trkpt lat="47.77014" lon="-3.59896">
        <ele>11</ele>
        <time>2018-07-18T09:48:23Z</time>
      </trkpt>
      <trkpt lat="47.77013" lon="-3.59897">
        <ele>11</ele>
        <time>2018-07-18T09:48:24Z</time>
      </trkpt>
      <trkpt lat="47.7701" lon="-3.59897">
        <ele>11</ele>
        <time>2018-07-18T09:48:25Z</time>
      </trkpt>
      <trkpt lat="47.77008" lon="-3.59897">
        <ele>10</ele>
        <time>2018-07-18T09:48:26Z</time>
      </trkpt>
      <trkpt lat="47.77007" lon="-3.59899">
        <ele>10</ele>
        <time>2018-07-18T09:48:27Z</time>
      </trkpt>
      <trkpt lat="47.77005" lon="-3.59903">
        <ele>10</ele>
        <time>2018-07-18T09:48:28Z</time>
      </trkpt>
      <trkpt lat="47.77004" lon="-3.59907">
        <ele>10</ele>
        <time>2018-07-18T09:48:29Z</time>
      </trkpt>
      <trkpt lat="47.77001" lon="-3.59911">
        <ele>10</ele>
        <time>2018-07-18T09:48:30Z</time>
      </trkpt>
      <trkpt lat="47.76998" lon="-3.59913">
        <ele>10</ele>
        <time>2018-07-18T09:48:31Z</time>
      </trkpt>
      <trkpt lat="47.76995" lon="-3.59913">
        <ele>10</ele>
        <time>2018-07-18T09:48:32Z</time>
      </trkpt>
      <trkpt lat="47.76993" lon="-3.59912">
        <ele>9</ele>
        <time>2018-07-18T09:48:33Z</time>
      </trkpt>
      <trkpt lat="47.76991" lon="-3.5991">
        <ele>9</ele>
        <time>2018-07-18T09:48:34Z</time>
      </trkpt>
      <trkpt lat="47.76989" lon="-3.59909">
        <ele>9</ele>
        <time>2018-07-18T09:48:35Z</time>
      </trkpt>
      <trkpt lat="47.76986" lon="-3.59907">
        <ele>9</ele>
        <time>2018-07-18T09:48:36Z</time>
      </trkpt>
      <trkpt lat="47.76983" lon="-3.59905">
        <ele>9</ele>
        <time>2018-07-18T09:48:37Z</time>
      </trkpt>
      <trkpt lat="47.76981" lon="-3.59903">
        <ele>9</ele>
        <time>2018-07-18T09:48:38Z</time>
      </trkpt>
      <trkpt lat="47.76978" lon="-3.59902">
        <ele>9</ele>
        <time>2018-07-18T09:48:39Z</time>
      </trkpt>
      <trkpt lat="47.76975" lon="-3.59902">
        <ele>9</ele>
        <time>2018-07-18T09:48:40Z</time>
      </trkpt>
      <trkpt lat="47.76973" lon="-3.59901">
        <ele>9</ele>
        <time>2018-07-18T09:48:41Z</time>
      </trkpt>
      <trkpt lat="47.76971" lon="-3.59901">
        <ele>9</ele>
        <time>2018-07-18T09:48:42Z</time>
      </trkpt>
      <trkpt lat="47.76969" lon="-3.599">
        <ele>9</ele>
        <time>2018-07-18T09:48:43Z</time>
      </trkpt>
      <trkpt lat="47.76966" lon="-3.599">
        <ele>9</ele>
        <time>2018-07-18T09:48:44Z</time>
      </trkpt>
      <trkpt lat="47.76963" lon="-3.59901">
        <ele>9</ele>
        <time>2018-07-18T09:48:45Z</time>
      </trkpt>
      <trkpt lat="47.76961" lon="-3.59903">
        <ele>9</ele>
        <time>2018-07-18T09:48:46Z</time>
      </trkpt>
      <trkpt lat="47.76959" lon="-3.59906">
        <ele>9</ele>
        <time>2018-07-18T09:48:47Z</time>
      </trkpt>
      <trkpt lat="47.76958" lon="-3.59909">
        <ele>9</ele>
        <time>2018-07-18T09:48:48Z</time>
      </trkpt>
      <trkpt lat="47.76956" lon="-3.59913">
        <ele>9</ele>
        <time>2018-07-18T09:48:49Z</time>
      </trkpt>
      <trkpt lat="47.76955" lon="-3.59917">
        <ele>9</ele>
        <time>2018-07-18T09:48:50Z</time>
      </trkpt>
      <trkpt lat="47.76953" lon="-3.59921">
        <ele>9</ele>
        <time>2018-07-18T09:48:51Z</time>
      </trkpt>
      <trkpt lat="47.76951" lon="-3.59925">
        <ele>9</ele>
        <time>2018-07-18T09:48:52Z</time>
      </trkpt>
      <trkpt lat="47.76949" lon="-3.59929">
        <ele>9</ele>
        <time>2018-07-18T09:48:53Z</time>
      </trkpt>
      <trkpt lat="47.76946" lon="-3.59932">
        <ele>9</ele>
        <time>2018-07-18T09:48:54Z</time>
      </trkpt>
      <trkpt lat="47.76944" lon="-3.59936">
        <ele>9</ele>
        <time>2018-07-18T09:48:55Z</time>
      </trkpt>
      <trkpt lat="47.76941" lon="-3.59939">
        <ele>9</ele>
        <time>2018-07-18T09:48:56Z</time>
      </trkpt>
      <trkpt lat="47.76937" lon="-3.59942">
        <ele>9</ele>
        <time>2018-07-18T09:48:57Z</time>
      </trkpt>
      <trkpt lat="47.76934" lon="-3.59945">
        <ele>9</ele>
        <time>2018-07-18T09:48:58Z</time>
      </trkpt>
      <trkpt lat="47.76931" lon="-3.59949">
        <ele>9</ele>
        <time>2018-07-18T09:48:59Z</time>
      </trkpt>
      <trkpt lat="47.76929" lon="-3.59953">
        <ele>9</ele>
        <time>2018-07-18T09:49:00Z</time>
      </trkpt>
      <trkpt lat="47.76927" lon="-3.59957">
        <ele>9</ele>
        <time>2018-07-18T09:49:01Z</time>
      </trkpt>
      <trkpt lat="47.76925" lon="-3.5996">
        <ele>9</ele>
        <time>2018-07-18T09:49:02Z</time>
      </trkpt>
      <trkpt lat="47.76922" lon="-3.59964">
        <ele>9</ele>
        <time>2018-07-18T09:49:03Z</time>
      </trkpt>
      <trkpt lat="47.7692" lon="-3.59967">
        <ele>9</ele>
        <time>2018-07-18T09:49:04Z</time>
      </trkpt>
      <trkpt lat="47.76918" lon="-3.59972">
        <ele>9</ele>
        <time>2018-07-18T09:49:05Z</time>
      </trkpt>
      <trkpt lat="47.76916" lon="-3.59976">
        <ele>9</ele>
        <time>2018-07-18T09:49:06Z</time>
      </trkpt>
      <trkpt lat="47.76914" lon="-3.59981">
        <ele>9</ele>
        <time>2018-07-18T09:49:07Z</time>
      </trkpt>
      <trkpt lat="47.76912" lon="-3.59986">
        <ele>9</ele>
        <time>2018-07-18T09:49:08Z</time>
      </trkpt>
      <trkpt lat="47.76911" lon="-3.59992">
        <ele>9</ele>
        <time>2018-07-18T09:49:09Z</time>
      </trkpt>
      <trkpt lat="47.76909" lon="-3.59997">
        <ele>9</ele>
        <time>2018-07-18T09:49:10Z</time>
      </trkpt>
      <trkpt lat="47.76907" lon="-3.60002">
        <ele>9</ele>
        <time>2018-07-18T09:49:11Z</time>
      </trkpt>
      <trkpt lat="47.76906" lon="-3.60007">
        <ele>9</ele>
        <time>2018-07-18T09:49:12Z</time>
      </trkpt>
      <trkpt lat="47.76905" lon="-3.60012">
        <ele>9</ele>
        <time>2018-07-18T09:49:13Z</time>
      </trkpt>
      <trkpt lat="47.76904" lon="-3.60018">
        <ele>9</ele>
        <time>2018-07-18T09:49:14Z</time>
      </trkpt>
      <trkpt lat="47.76903" lon="-3.60024">
        <ele>9</ele>
        <time>2018-07-18T09:49:15Z</time>
      </trkpt>
      <trkpt lat="47.76903" lon="-3.6003">
        <ele>9</ele>
        <time>2018-07-18T09:49:16Z</time>
      </trkpt>
      <trkpt lat="47.76903" lon="-3.60036">
        <ele>9</ele>
        <time>2018-07-18T09:49:17Z</time>
      </trkpt>
      <trkpt lat="47.76903" lon="-3.60042">
        <ele>9</ele>
        <time>2018-07-18T09:49:18Z</time>
      </trkpt>
      <trkpt lat="47.76903" lon="-3.60048">
        <ele>9</ele>
        <time>2018-07-18T09:49:19Z</time>
      </trkpt>
      <trkpt lat="47.76903" lon="-3.60054">
        <ele>9</ele>
        <time>2018-07-18T09:49:20Z</time>
      </trkpt>
      <trkpt lat="47.76903" lon="-3.60059">
        <ele>9</ele>
        <time>2018-07-18T09:49:21Z</time>
      </trkpt>
      <trkpt lat="47.76903" lon="-3.60064">
        <ele>9</ele>
        <time>2018-07-18T09:49:22Z</time>
      </trkpt>
      <trkpt lat="47.76903" lon="-3.60069">
        <ele>9</ele>
        <time>2018-07-18T09:49:23Z</time>
      </trkpt>
      <trkpt lat="47.76902" lon="-3.60074">
        <ele>9</ele>
        <time>2018-07-18T09:49:24Z</time>
      </trkpt>
      <trkpt lat="47.76901" lon="-3.60079">
        <ele>8</ele>
        <time>2018-07-18T09:49:25Z</time>
      </trkpt>
      <trkpt lat="47.76899" lon="-3.60083">
        <ele>8</ele>
        <time>2018-07-18T09:49:26Z</time>
      </trkpt>
      <trkpt lat="47.76898" lon="-3.60087">
        <ele>8</ele>
        <time>2018-07-18T09:49:27Z</time>
      </trkpt>
      <trkpt lat="47.76897" lon="-3.60091">
        <ele>8</ele>
        <time>2018-07-18T09:49:28Z</time>
      </trkpt>
      <trkpt lat="47.76896" lon="-3.60095">
        <ele>8</ele>
        <time>2018-07-18T09:49:29Z</time>
      </trkpt>
      <trkpt lat="47.76896" lon="-3.601">
        <ele>7</ele>
        <time>2018-07-18T09:49:30Z</time>
      </trkpt>
      <trkpt lat="47.76896" lon="-3.60106">
        <ele>7</ele>
        <time>2018-07-18T09:49:31Z</time>
      </trkpt>
      <trkpt lat="47.76896" lon="-3.60111">
        <ele>7</ele>
        <time>2018-07-18T09:49:32Z</time>
      </trkpt>
      <trkpt lat="47.76895" lon="-3.60117">
        <ele>7</ele>
        <time>2018-07-18T09:49:33Z</time>
      </trkpt>
      <trkpt lat="47.76896" lon="-3.60123">
        <ele>7</ele>
        <time>2018-07-18T09:49:34Z</time>
      </trkpt>
      <trkpt lat="47.76896" lon="-3.6013">
        <ele>7</ele>
        <time>2018-07-18T09:49:35Z</time>
      </trkpt>
      <trkpt lat="47.76897" lon="-3.60137">
        <ele>6</ele>
        <time>2018-07-18T09:49:36Z</time>
      </trkpt>
      <trkpt lat="47.76897" lon="-3.60144">
        <ele>6</ele>
        <time>2018-07-18T09:49:37Z</time>
      </trkpt>
      <trkpt lat="47.76898" lon="-3.60152">
        <ele>6</ele>
        <time>2018-07-18T09:49:38Z</time>
      </trkpt>
      <trkpt lat="47.76897" lon="-3.6016">
        <ele>6</ele>
        <time>2018-07-18T09:49:39Z</time>
      </trkpt>
      <trkpt lat="47.76897" lon="-3.60166">
        <ele>6</ele>
        <time>2018-07-18T09:49:40Z</time>
      </trkpt>
      <trkpt lat="47.76898" lon="-3.60173">
        <ele>6</ele>
        <time>2018-07-18T09:49:41Z</time>
      </trkpt>
      <trkpt lat="47.76897" lon="-3.60178">
        <ele>6</ele>
        <time>2018-07-18T09:49:42Z</time>
      </trkpt>
      <trkpt lat="47.76897" lon="-3.60182">
        <ele>6</ele>
        <time>2018-07-18T09:49:43Z</time>
      </trkpt>
      <trkpt lat="47.76896" lon="-3.60186">
        <ele>6</ele>
        <time>2018-07-18T09:49:44Z</time>
      </trkpt>
      <trkpt lat="47.76896" lon="-3.60191">
        <ele>6</ele>
        <time>2018-07-18T09:49:45Z</time>
      </trkpt>
      <trkpt lat="47.76896" lon="-3.60196">
        <ele>6</ele>
        <time>2018-07-18T09:49:46Z</time>
      </trkpt>
      <trkpt lat="47.76897" lon="-3.60202">
        <ele>6</ele>
        <time>2018-07-18T09:49:47Z</time>
      </trkpt>
      <trkpt lat="47.76898" lon="-3.60207">
        <ele>5</ele>
        <time>2018-07-18T09:49:48Z</time>
      </trkpt>
      <trkpt lat="47.76901" lon="-3.60211">
        <ele>5</ele>
        <time>2018-07-18T09:49:49Z</time>
      </trkpt>
      <trkpt lat="47.76904" lon="-3.60213">
        <ele>6</ele>
        <time>2018-07-18T09:49:50Z</time>
      </trkpt>
      <trkpt lat="47.76907" lon="-3.60214">
        <ele>6</ele>
        <time>2018-07-18T09:49:51Z</time>
      </trkpt>
      <trkpt lat="47.76909" lon="-3.60218">
        <ele>6</ele>
        <time>2018-07-18T09:49:52Z</time>
      </trkpt>
      <trkpt lat="47.76911" lon="-3.60222">
        <ele>6</ele>
        <time>2018-07-18T09:49:53Z</time>
      </trkpt>
      <trkpt lat="47.76913" lon="-3.60225">
        <ele>6</ele>
        <time>2018-07-18T09:49:54Z</time>
      </trkpt>
      <trkpt lat="47.76915" lon="-3.60229">
        <ele>7</ele>
        <time>2018-07-18T09:49:55Z</time>
      </trkpt>
      <trkpt lat="47.76918" lon="-3.60234">
        <ele>7</ele>
        <time>2018-07-18T09:49:56Z</time>
      </trkpt>
      <trkpt lat="47.7692" lon="-3.60238">
        <ele>7</ele>
        <time>2018-07-18T09:49:57Z</time>
      </trkpt>
      <trkpt lat="47.76923" lon="-3.60242">
        <ele>7</ele>
        <time>2018-07-18T09:49:58Z</time>
      </trkpt>
      <trkpt lat="47.76925" lon="-3.60247">
        <ele>8</ele>
        <time>2018-07-18T09:49:59Z</time>
      </trkpt>
      <trkpt lat="47.76929" lon="-3.6025">
        <ele>8</ele>
        <time>2018-07-18T09:50:00Z</time>
      </trkpt>
      <trkpt lat="47.76932" lon="-3.60254">
        <ele>8</ele>
        <time>2018-07-18T09:50:01Z</time>
      </trkpt>
      <trkpt lat="47.76935" lon="-3.60256">
        <ele>9</ele>
        <time>2018-07-18T09:50:02Z</time>
      </trkpt>
      <trkpt lat="47.76938" lon="-3.60259">
        <ele>9</ele>
        <time>2018-07-18T09:50:03Z</time>
      </trkpt>
      <trkpt lat="47.76941" lon="-3.60262">
        <ele>9</ele>
        <time>2018-07-18T09:50:04Z</time>
      </trkpt>
      <trkpt lat="47.76944" lon="-3.60267">
        <ele>9</ele>
        <time>2018-07-18T09:50:05Z</time>
      </trkpt>
      <trkpt lat="47.76945" lon="-3.60272">
        <ele>9</ele>
        <time>2018-07-18T09:50:06Z</time>
      </trkpt>
      <trkpt lat="47.76947" lon="-3.60278">
        <ele>9</ele>
        <time>2018-07-18T09:50:07Z</time>
      </trkpt>
      <trkpt lat="47.76948" lon="-3.60284">
        <ele>9</ele>
        <time>2018-07-18T09:50:08Z</time>
      </trkpt>
      <trkpt lat="47.7695" lon="-3.60289">
        <ele>9</ele>
        <time>2018-07-18T09:50:09Z</time>
      </trkpt>
      <trkpt lat="47.76951" lon="-3.60295">
        <ele>9</ele>
        <time>2018-07-18T09:50:10Z</time>
      </trkpt>
      <trkpt lat="47.76953" lon="-3.60301">
        <ele>9</ele>
        <time>2018-07-18T09:50:11Z</time>
      </trkpt>
      <trkpt lat="47.76955" lon="-3.60307">
        <ele>9</ele>
        <time>2018-07-18T09:50:12Z</time>
      </trkpt>
      <trkpt lat="47.76958" lon="-3.60312">
        <ele>9</ele>
        <time>2018-07-18T09:50:13Z</time>
      </trkpt>
      <trkpt lat="47.7696" lon="-3.60317">
        <ele>9</ele>
        <time>2018-07-18T09:50:14Z</time>
      </trkpt>
      <trkpt lat="47.76963" lon="-3.60322">
        <ele>9</ele>
        <time>2018-07-18T09:50:15Z</time>
      </trkpt>
      <trkpt lat="47.76965" lon="-3.60327">
        <ele>9</ele>
        <time>2018-07-18T09:50:16Z</time>
      </trkpt>
      <trkpt lat="47.76968" lon="-3.60333">
        <ele>9</ele>
        <time>2018-07-18T09:50:17Z</time>
      </trkpt>
      <trkpt lat="47.76971" lon="-3.60338">
        <ele>9</ele>
        <time>2018-07-18T09:50:18Z</time>
      </trkpt>
      <trkpt lat="47.76974" lon="-3.60344">
        <ele>9</ele>
        <time>2018-07-18T09:50:19Z</time>
      </trkpt>
      <trkpt lat="47.76976" lon="-3.60349">
        <ele>9</ele>
        <time>2018-07-18T09:50:20Z</time>
      </trkpt>
      <trkpt lat="47.76979" lon="-3.60354">
        <ele>10</ele>
        <time>2018-07-18T09:50:21Z</time>
      </trkpt>
      <trkpt lat="47.76982" lon="-3.6036">
        <ele>10</ele>
        <time>2018-07-18T09:50:22Z</time>
      </trkpt>
      <trkpt lat="47.76986" lon="-3.60364">
        <ele>10</ele>
        <time>2018-07-18T09:50:23Z</time>
      </trkpt>
      <trkpt lat="47.76989" lon="-3.60369">
        <ele>10</ele>
        <time>2018-07-18T09:50:24Z</time>
      </trkpt>
      <trkpt lat="47.76993" lon="-3.60373">
        <ele>10</ele>
        <time>2018-07-18T09:50:25Z</time>
      </trkpt>
      <trkpt lat="47.76996" lon="-3.60377">
        <ele>10</ele>
        <time>2018-07-18T09:50:26Z</time>
      </trkpt>
      <trkpt lat="47.77" lon="-3.6038">
        <ele>10</ele>
        <time>2018-07-18T09:50:27Z</time>
      </trkpt>
      <trkpt lat="47.77004" lon="-3.60383">
        <ele>10</ele>
        <time>2018-07-18T09:50:28Z</time>
      </trkpt>
      <trkpt lat="47.77008" lon="-3.60384">
        <ele>10</ele>
        <time>2018-07-18T09:50:29Z</time>
      </trkpt>
      <trkpt lat="47.77012" lon="-3.60386">
        <ele>10</ele>
        <time>2018-07-18T09:50:30Z</time>
      </trkpt>
      <trkpt lat="47.77017" lon="-3.60388">
        <ele>10</ele>
        <time>2018-07-18T09:50:31Z</time>
      </trkpt>
      <trkpt lat="47.7702" lon="-3.60392">
        <ele>10</ele>
        <time>2018-07-18T09:50:32Z</time>
      </trkpt>
      <trkpt lat="47.77024" lon="-3.60396">
        <ele>9</ele>
        <time>2018-07-18T09:50:33Z</time>
      </trkpt>
      <trkpt lat="47.77028" lon="-3.604">
        <ele>9</ele>
        <time>2018-07-18T09:50:34Z</time>
      </trkpt>
      <trkpt lat="47.77032" lon="-3.60402">
        <ele>8</ele>
        <time>2018-07-18T09:50:35Z</time>
      </trkpt>
      <trkpt lat="47.77036" lon="-3.60404">
        <ele>8</ele>
        <time>2018-07-18T09:50:36Z</time>
      </trkpt>
      <trkpt lat="47.77038" lon="-3.60404">
        <ele>8</ele>
        <time>2018-07-18T09:50:37Z</time>
      </trkpt>
      <trkpt lat="47.77041" lon="-3.60404">
        <ele>8</ele>
        <time>2018-07-18T09:50:38Z</time>
      </trkpt>
      <trkpt lat="47.77043" lon="-3.60405">
        <ele>7</ele>
        <time>2018-07-18T09:50:39Z</time>
      </trkpt>
      <trkpt lat="47.77043" lon="-3.60405">
        <ele>7</ele>
        <time>2018-07-18T09:50:40Z</time>
      </trkpt>
      <trkpt lat="47.77043" lon="-3.60405">
        <ele>7</ele>
        <time>2018-07-18T09:50:41Z</time>
      </trkpt>
      <trkpt lat="47.77043" lon="-3.60405">
        <ele>7</ele>
        <time>2018-07-18T09:50:42Z</time>
      </trkpt>
      <trkpt lat="47.77043" lon="-3.60405">
        <ele>7</ele>
        <time>2018-07-18T09:50:43Z</time>
      </trkpt>
      <trkpt lat="47.77044" lon="-3.60405">
        <ele>7</ele>
        <time>2018-07-18T09:50:44Z</time>
      </trkpt>
      <trkpt lat="47.77045" lon="-3.60405">
        <ele>6</ele>
        <time>2018-07-18T09:50:45Z</time>
      </trkpt>
      <trkpt lat="47.77046" lon="-3.60405">
        <ele>6</ele>
        <time>2018-07-18T09:50:46Z</time>
      </trkpt>
      <trkpt lat="47.77047" lon="-3.60406">
        <ele>6</ele>
        <time>2018-07-18T09:50:47Z</time>
      </trkpt>
      <trkpt lat="47.77047" lon="-3.60406">
        <ele>6</ele>
        <time>2018-07-18T09:50:48Z</time>
      </trkpt>
      <trkpt lat="47.77047" lon="-3.60407">
        <ele>6</ele>
        <time>2018-07-18T09:50:49Z</time>
      </trkpt>
      <trkpt lat="47.77047" lon="-3.60407">
        <ele>6</ele>
        <time>2018-07-18T09:50:50Z</time>
      </trkpt>
      <trkpt lat="47.77047" lon="-3.60407">
        <ele>5</ele>
        <time>2018-07-18T09:50:51Z</time>
      </trkpt>
      <trkpt lat="47.77048" lon="-3.60409">
        <ele>5</ele>
        <time>2018-07-18T09:50:52Z</time>
      </trkpt>
      <trkpt lat="47.7705" lon="-3.60411">
        <ele>5</ele>
        <time>2018-07-18T09:50:53Z</time>
      </trkpt>
      <trkpt lat="47.7705" lon="-3.60415">
        <ele>5</ele>
        <time>2018-07-18T09:50:54Z</time>
      </trkpt>
      <trkpt lat="47.7705" lon="-3.60418">
        <ele>6</ele>
        <time>2018-07-18T09:50:55Z</time>
      </trkpt>
      <trkpt lat="47.7705" lon="-3.60421">
        <ele>6</ele>
        <time>2018-07-18T09:50:56Z</time>
      </trkpt>
      <trkpt lat="47.77049" lon="-3.60425">
        <ele>6</ele>
        <time>2018-07-18T09:50:57Z</time>
      </trkpt>
      <trkpt lat="47.77048" lon="-3.6043">
        <ele>6</ele>
        <time>2018-07-18T09:50:58Z</time>
      </trkpt>
      <trkpt lat="47.77047" lon="-3.60434">
        <ele>6</ele>
        <time>2018-07-18T09:50:59Z</time>
      </trkpt>
      <trkpt lat="47.77046" lon="-3.60439">
        <ele>6</ele>
        <time>2018-07-18T09:51:00Z</time>
      </trkpt>
      <trkpt lat="47.77045" lon="-3.60444">
        <ele>6</ele>
        <time>2018-07-18T09:51:01Z</time>
      </trkpt>
      <trkpt lat="47.77043" lon="-3.60448">
        <ele>6</ele>
        <time>2018-07-18T09:51:02Z</time>
      </trkpt>
      <trkpt lat="47.77042" lon="-3.60453">
        <ele>6</ele>
        <time>2018-07-18T09:51:03Z</time>
      </trkpt>
      <trkpt lat="47.77041" lon="-3.60457">
        <ele>6</ele>
        <time>2018-07-18T09:51:04Z</time>
      </trkpt>
      <trkpt lat="47.77039" lon="-3.60461">
        <ele>6</ele>
        <time>2018-07-18T09:51:05Z</time>
      </trkpt>
      <trkpt lat="47.77037" lon="-3.60465">
        <ele>6</ele>
        <time>2018-07-18T09:51:06Z</time>
      </trkpt>
      <trkpt lat="47.77036" lon="-3.60469">
        <ele>6</ele>
        <time>2018-07-18T09:51:07Z</time>
      </trkpt>
      <trkpt lat="47.77034" lon="-3.60473">
        <ele>6</ele>
        <time>2018-07-18T09:51:08Z</time>
      </trkpt>
      <trkpt lat="47.77033" lon="-3.60478">
        <ele>6</ele>
        <time>2018-07-18T09:51:09Z</time>
      </trkpt>
      <trkpt lat="47.77032" lon="-3.60483">
        <ele>6</ele>
        <time>2018-07-18T09:51:10Z</time>
      </trkpt>
      <trkpt lat="47.77032" lon="-3.60488">
        <ele>7</ele>
        <time>2018-07-18T09:51:11Z</time>
      </trkpt>
      <trkpt lat="47.77031" lon="-3.60493">
        <ele>7</ele>
        <time>2018-07-18T09:51:12Z</time>
      </trkpt>
      <trkpt lat="47.77031" lon="-3.60498">
        <ele>7</ele>
        <time>2018-07-18T09:51:13Z</time>
      </trkpt>
      <trkpt lat="47.7703" lon="-3.60503">
        <ele>7</ele>
        <time>2018-07-18T09:51:14Z</time>
      </trkpt>
      <trkpt lat="47.77029" lon="-3.60507">
        <ele>7</ele>
        <time>2018-07-18T09:51:15Z</time>
      </trkpt>
      <trkpt lat="47.77028" lon="-3.60511">
        <ele>7</ele>
        <time>2018-07-18T09:51:16Z</time>
      </trkpt>
      <trkpt lat="47.77027" lon="-3.60516">
        <ele>7</ele>
        <time>2018-07-18T09:51:17Z</time>
      </trkpt>
      <trkpt lat="47.77026" lon="-3.60521">
        <ele>7</ele>
        <time>2018-07-18T09:51:18Z</time>
      </trkpt>
      <trkpt lat="47.77025" lon="-3.60526">
        <ele>7</ele>
        <time>2018-07-18T09:51:19Z</time>
      </trkpt>
      <trkpt lat="47.77024" lon="-3.60531">
        <ele>7</ele>
        <time>2018-07-18T09:51:20Z</time>
      </trkpt>
      <trkpt lat="47.77024" lon="-3.60536">
        <ele>7</ele>
        <time>2018-07-18T09:51:21Z</time>
      </trkpt>
      <trkpt lat="47.77024" lon="-3.60541">
        <ele>7</ele>
        <time>2018-07-18T09:51:22Z</time>
      </trkpt>
      <trkpt lat="47.77025" lon="-3.60547">
        <ele>6</ele>
        <time>2018-07-18T09:51:23Z</time>
      </trkpt>
      <trkpt lat="47.77026" lon="-3.60551">
        <ele>6</ele>
        <time>2018-07-18T09:51:24Z</time>
      </trkpt>
      <trkpt lat="47.77025" lon="-3.60554">
        <ele>6</ele>
        <time>2018-07-18T09:51:25Z</time>
      </trkpt>
      <trkpt lat="47.77026" lon="-3.60558">
        <ele>6</ele>
        <time>2018-07-18T09:51:26Z</time>
      </trkpt>
      <trkpt lat="47.77027" lon="-3.60562">
        <ele>6</ele>
        <time>2018-07-18T09:51:27Z</time>
      </trkpt>
      <trkpt lat="47.77029" lon="-3.60565">
        <ele>6</ele>
        <time>2018-07-18T09:51:28Z</time>
      </trkpt>
      <trkpt lat="47.77031" lon="-3.60568">
        <ele>6</ele>
        <time>2018-07-18T09:51:29Z</time>
      </trkpt>
      <trkpt lat="47.77033" lon="-3.60572">
        <ele>6</ele>
        <time>2018-07-18T09:51:30Z</time>
      </trkpt>
      <trkpt lat="47.77034" lon="-3.60576">
        <ele>6</ele>
        <time>2018-07-18T09:51:31Z</time>
      </trkpt>
      <trkpt lat="47.77035" lon="-3.60582">
        <ele>6</ele>
        <time>2018-07-18T09:51:32Z</time>
      </trkpt>
      <trkpt lat="47.77035" lon="-3.60587">
        <ele>6</ele>
        <time>2018-07-18T09:51:33Z</time>
      </trkpt>
      <trkpt lat="47.77034" lon="-3.60592">
        <ele>6</ele>
        <time>2018-07-18T09:51:34Z</time>
      </trkpt>
      <trkpt lat="47.77033" lon="-3.60598">
        <ele>6</ele>
        <time>2018-07-18T09:51:35Z</time>
      </trkpt>
      <trkpt lat="47.77032" lon="-3.60603">
        <ele>6</ele>
        <time>2018-07-18T09:51:36Z</time>
      </trkpt>
      <trkpt lat="47.7703" lon="-3.60609">
        <ele>6</ele>
        <time>2018-07-18T09:51:37Z</time>
      </trkpt>
      <trkpt lat="47.77029" lon="-3.60613">
        <ele>6</ele>
        <time>2018-07-18T09:51:38Z</time>
      </trkpt>
      <trkpt lat="47.77028" lon="-3.60618">
        <ele>6</ele>
        <time>2018-07-18T09:51:39Z</time>
      </trkpt>
      <trkpt lat="47.77027" lon="-3.60624">
        <ele>6</ele>
        <time>2018-07-18T09:51:40Z</time>
      </trkpt>
      <trkpt lat="47.77027" lon="-3.60629">
        <ele>6</ele>
        <time>2018-07-18T09:51:41Z</time>
      </trkpt>
      <trkpt lat="47.77028" lon="-3.60635">
        <ele>6</ele>
        <time>2018-07-18T09:51:42Z</time>
      </trkpt>
      <trkpt lat="47.77029" lon="-3.60641">
        <ele>6</ele>
        <time>2018-07-18T09:51:43Z</time>
      </trkpt>
      <trkpt lat="47.7703" lon="-3.60647">
        <ele>6</ele>
        <time>2018-07-18T09:51:44Z</time>
      </trkpt>
      <trkpt lat="47.77032" lon="-3.60653">
        <ele>6</ele>
        <time>2018-07-18T09:51:45Z</time>
      </trkpt>
      <trkpt lat="47.77034" lon="-3.60659">
        <ele>6</ele>
        <time>2018-07-18T09:51:46Z</time>
      </trkpt>
      <trkpt lat="47.77036" lon="-3.60665">
        <ele>6</ele>
        <time>2018-07-18T09:51:47Z</time>
      </trkpt>
      <trkpt lat="47.77037" lon="-3.60671">
        <ele>6</ele>
        <time>2018-07-18T09:51:48Z</time>
      </trkpt>
      <trkpt lat="47.77037" lon="-3.60677">
        <ele>6</ele>
        <time>2018-07-18T09:51:49Z</time>
      </trkpt>
      <trkpt lat="47.77037" lon="-3.60683">
        <ele>6</ele>
        <time>2018-07-18T09:51:50Z</time>
      </trkpt>
      <trkpt lat="47.77036" lon="-3.60689">
        <ele>6</ele>
        <time>2018-07-18T09:51:51Z</time>
      </trkpt>
      <trkpt lat="47.77036" lon="-3.60696">
        <ele>6</ele>
        <time>2018-07-18T09:51:52Z</time>
      </trkpt>
      <trkpt lat="47.77035" lon="-3.60703">
        <ele>6</ele>
        <time>2018-07-18T09:51:53Z</time>
      </trkpt>
      <trkpt lat="47.77034" lon="-3.6071">
        <ele>6</ele>
        <time>2018-07-18T09:51:54Z</time>
      </trkpt>
      <trkpt lat="47.77034" lon="-3.60717">
        <ele>6</ele>
        <time>2018-07-18T09:51:55Z</time>
      </trkpt>
      <trkpt lat="47.77034" lon="-3.60724">
        <ele>6</ele>
        <time>2018-07-18T09:51:56Z</time>
      </trkpt>
      <trkpt lat="47.77035" lon="-3.6073">
        <ele>6</ele>
        <time>2018-07-18T09:51:57Z</time>
      </trkpt>
      <trkpt lat="47.77036" lon="-3.60733">
        <ele>6</ele>
        <time>2018-07-18T09:51:58Z</time>
      </trkpt>
      <trkpt lat="47.77038" lon="-3.60734">
        <ele>6</ele>
        <time>2018-07-18T09:51:59Z</time>
      </trkpt>
      <trkpt lat="47.7704" lon="-3.60733">
        <ele>6</ele>
        <time>2018-07-18T09:52:00Z</time>
      </trkpt>
      <trkpt lat="47.77041" lon="-3.60732">
        <ele>6</ele>
        <time>2018-07-18T09:52:01Z</time>
      </trkpt>
      <trkpt lat="47.77043" lon="-3.6073">
        <ele>6</ele>
        <time>2018-07-18T09:52:02Z</time>
      </trkpt>
      <trkpt lat="47.77046" lon="-3.60729">
        <ele>6</ele>
        <time>2018-07-18T09:52:03Z</time>
      </trkpt>
      <trkpt lat="47.77048" lon="-3.60729">
        <ele>6</ele>
        <time>2018-07-18T09:52:04Z</time>
      </trkpt>
      <trkpt lat="47.7705" lon="-3.60728">
        <ele>6</ele>
        <time>2018-07-18T09:52:05Z</time>
      </trkpt>
      <trkpt lat="47.77053" lon="-3.60729">
        <ele>7</ele>
        <time>2018-07-18T09:52:06Z</time>
      </trkpt>
      <trkpt lat="47.77055" lon="-3.6073">
        <ele>7</ele>
        <time>2018-07-18T09:52:07Z</time>
      </trkpt>
      <trkpt lat="47.77057" lon="-3.60732">
        <ele>7</ele>
        <time>2018-07-18T09:52:08Z</time>
      </trkpt>
      <trkpt lat="47.77059" lon="-3.60733">
        <ele>7</ele>
        <time>2018-07-18T09:52:09Z</time>
      </trkpt>
      <trkpt lat="47.77062" lon="-3.60734">
        <ele>7</ele>
        <time>2018-07-18T09:52:10Z</time>
      </trkpt>
      <trkpt lat="47.77064" lon="-3.60736">
        <ele>7</ele>
        <time>2018-07-18T09:52:11Z</time>
      </trkpt>
      <trkpt lat="47.77066" lon="-3.60737">
        <ele>7</ele>
        <time>2018-07-18T09:52:12Z</time>
      </trkpt>
      <trkpt lat="47.77068" lon="-3.60738">
        <ele>7</ele>
        <time>2018-07-18T09:52:13Z</time>
      </trkpt>
      <trkpt lat="47.77071" lon="-3.6074">
        <ele>8</ele>
        <time>2018-07-18T09:52:14Z</time>
      </trkpt>
      <trkpt lat="47.77073" lon="-3.60741">
        <ele>8</ele>
        <time>2018-07-18T09:52:15Z</time>
      </trkpt>
      <trkpt lat="47.77075" lon="-3.60742">
        <ele>8</ele>
        <time>2018-07-18T09:52:16Z</time>
      </trkpt>
      <trkpt lat="47.77078" lon="-3.60745">
        <ele>8</ele>
        <time>2018-07-18T09:52:17Z</time>
      </trkpt>
      <trkpt lat="47.77082" lon="-3.60747">
        <ele>7</ele>
        <time>2018-07-18T09:52:18Z</time>
      </trkpt>
      <trkpt lat="47.77086" lon="-3.60751">
        <ele>7</ele>
        <time>2018-07-18T09:52:19Z</time>
      </trkpt>
      <trkpt lat="47.77091" lon="-3.60756">
        <ele>7</ele>
        <time>2018-07-18T09:52:20Z</time>
      </trkpt>
      <trkpt lat="47.77097" lon="-3.60761">
        <ele>7</ele>
        <time>2018-07-18T09:52:21Z</time>
      </trkpt>
      <trkpt lat="47.77102" lon="-3.60768">
        <ele>6</ele>
        <time>2018-07-18T09:52:22Z</time>
      </trkpt>
      <trkpt lat="47.77106" lon="-3.60774">
        <ele>6</ele>
        <time>2018-07-18T09:52:23Z</time>
      </trkpt>
      <trkpt lat="47.7711" lon="-3.60781">
        <ele>6</ele>
        <time>2018-07-18T09:52:24Z</time>
      </trkpt>
      <trkpt lat="47.77114" lon="-3.60786">
        <ele>7</ele>
        <time>2018-07-18T09:52:25Z</time>
      </trkpt>
      <trkpt lat="47.77118" lon="-3.60791">
        <ele>7</ele>
        <time>2018-07-18T09:52:26Z</time>
      </trkpt>
      <trkpt lat="47.77121" lon="-3.60796">
        <ele>7</ele>
        <time>2018-07-18T09:52:27Z</time>
      </trkpt>
      <trkpt lat="47.77124" lon="-3.608">
        <ele>7</ele>
        <time>2018-07-18T09:52:28Z</time>
      </trkpt>
      <trkpt lat="47.77127" lon="-3.60805">
        <ele>7</ele>
        <time>2018-07-18T09:52:29Z</time>
      </trkpt>
      <trkpt lat="47.7713" lon="-3.60808">
        <ele>8</ele>
        <time>2018-07-18T09:52:30Z</time>
      </trkpt>
      <trkpt lat="47.77133" lon="-3.60811">
        <ele>8</ele>
        <time>2018-07-18T09:52:31Z</time>
      </trkpt>
      <trkpt lat="47.77136" lon="-3.60813">
        <ele>8</ele>
        <time>2018-07-18T09:52:32Z</time>
      </trkpt>
      <trkpt lat="47.77139" lon="-3.60814">
        <ele>8</ele>
        <time>2018-07-18T09:52:33Z</time>
      </trkpt>
      <trkpt lat="47.77142" lon="-3.60813">
        <ele>8</ele>
        <time>2018-07-18T09:52:34Z</time>
      </trkpt>
      <trkpt lat="47.77146" lon="-3.60813">
        <ele>8</ele>
        <time>2018-07-18T09:52:35Z</time>
      </trkpt>
      <trkpt lat="47.77149" lon="-3.60813">
        <ele>8</ele>
        <time>2018-07-18T09:52:36Z</time>
      </trkpt>
      <trkpt lat="47.77153" lon="-3.60813">
        <ele>8</ele>
        <time>2018-07-18T09:52:37Z</time>
      </trkpt>
      <trkpt lat="47.77156" lon="-3.60813">
        <ele>8</ele>
        <time>2018-07-18T09:52:38Z</time>
      </trkpt>
      <trkpt lat="47.7716" lon="-3.60814">
        <ele>8</ele>
        <time>2018-07-18T09:52:39Z</time>
      </trkpt>
      <trkpt lat="47.77163" lon="-3.60816">
        <ele>8</ele>
        <time>2018-07-18T09:52:40Z</time>
      </trkpt>
      <trkpt lat="47.77167" lon="-3.60817">
        <ele>8</ele>
        <time>2018-07-18T09:52:41Z</time>
      </trkpt>
      <trkpt lat="47.77171" lon="-3.60819">
        <ele>8</ele>
        <time>2018-07-18T09:52:42Z</time>
      </trkpt>
      <trkpt lat="47.77174" lon="-3.6082">
        <ele>8</ele>
        <time>2018-07-18T09:52:43Z</time>
      </trkpt>
      <trkpt lat="47.77177" lon="-3.60822">
        <ele>8</ele>
        <time>2018-07-18T09:52:44Z</time>
      </trkpt>
      <trkpt lat="47.7718" lon="-3.60824">
        <ele>8</ele>
        <time>2018-07-18T09:52:45Z</time>
      </trkpt>
      <trkpt lat="47.77183" lon="-3.60826">
        <ele>9</ele>
        <time>2018-07-18T09:52:46Z</time>
      </trkpt>
      <trkpt lat="47.77187" lon="-3.60828">
        <ele>9</ele>
        <time>2018-07-18T09:52:47Z</time>
      </trkpt>
      <trkpt lat="47.77189" lon="-3.60829">
        <ele>9</ele>
        <time>2018-07-18T09:52:48Z</time>
      </trkpt>
      <trkpt lat="47.77192" lon="-3.60831">
        <ele>9</ele>
        <time>2018-07-18T09:52:49Z</time>
      </trkpt>
      <trkpt lat="47.77196" lon="-3.60833">
        <ele>9</ele>
        <time>2018-07-18T09:52:50Z</time>
      </trkpt>
      <trkpt lat="47.772" lon="-3.60835">
        <ele>9</ele>
        <time>2018-07-18T09:52:51Z</time>
      </trkpt>
      <trkpt lat="47.77204" lon="-3.60837">
        <ele>9</ele>
        <time>2018-07-18T09:52:52Z</time>
      </trkpt>
      <trkpt lat="47.77209" lon="-3.60837">
        <ele>9</ele>
        <time>2018-07-18T09:52:53Z</time>
      </trkpt>
      <trkpt lat="47.77214" lon="-3.60836">
        <ele>9</ele>
        <time>2018-07-18T09:52:54Z</time>
      </trkpt>
      <trkpt lat="47.7722" lon="-3.60834">
        <ele>9</ele>
        <time>2018-07-18T09:52:55Z</time>
      </trkpt>
      <trkpt lat="47.77225" lon="-3.60832">
        <ele>8</ele>
        <time>2018-07-18T09:52:56Z</time>
      </trkpt>
      <trkpt lat="47.77231" lon="-3.6083">
        <ele>8</ele>
        <time>2018-07-18T09:52:57Z</time>
      </trkpt>
      <trkpt lat="47.77235" lon="-3.60829">
        <ele>8</ele>
        <time>2018-07-18T09:52:58Z</time>
      </trkpt>
      <trkpt lat="47.7724" lon="-3.60827">
        <ele>8</ele>
        <time>2018-07-18T09:52:59Z</time>
      </trkpt>
      <trkpt lat="47.77244" lon="-3.60825">
        <ele>8</ele>
        <time>2018-07-18T09:53:00Z</time>
      </trkpt>
      <trkpt lat="47.77249" lon="-3.60824">
        <ele>8</ele>
        <time>2018-07-18T09:53:01Z</time>
      </trkpt>
      <trkpt lat="47.77254" lon="-3.60822">
        <ele>8</ele>
        <time>2018-07-18T09:53:02Z</time>
      </trkpt>
      <trkpt lat="47.77258" lon="-3.60821">
        <ele>8</ele>
        <time>2018-07-18T09:53:03Z</time>
      </trkpt>
      <trkpt lat="47.77263" lon="-3.6082">
        <ele>8</ele>
        <time>2018-07-18T09:53:04Z</time>
      </trkpt>
      <trkpt lat="47.77268" lon="-3.60819">
        <ele>8</ele>
        <time>2018-07-18T09:53:05Z</time>
      </trkpt>
      <trkpt lat="47.77273" lon="-3.60818">
        <ele>7</ele>
        <time>2018-07-18T09:53:06Z</time>
      </trkpt>
      <trkpt lat="47.77279" lon="-3.60816">
        <ele>7</ele>
        <time>2018-07-18T09:53:07Z</time>
      </trkpt>
      <trkpt lat="47.77284" lon="-3.60815">
        <ele>7</ele>
        <time>2018-07-18T09:53:08Z</time>
      </trkpt>
      <trkpt lat="47.7729" lon="-3.60813">
        <ele>7</ele>
        <time>2018-07-18T09:53:09Z</time>
      </trkpt>
      <trkpt lat="47.77295" lon="-3.60812">
        <ele>6</ele>
        <time>2018-07-18T09:53:10Z</time>
      </trkpt>
      <trkpt lat="47.773" lon="-3.60811">
        <ele>6</ele>
        <time>2018-07-18T09:53:11Z</time>
      </trkpt>
      <trkpt lat="47.77305" lon="-3.60809">
        <ele>5</ele>
        <time>2018-07-18T09:53:12Z</time>
      </trkpt>
      <trkpt lat="47.7731" lon="-3.60806">
        <ele>5</ele>
        <time>2018-07-18T09:53:13Z</time>
      </trkpt>
      <trkpt lat="47.77315" lon="-3.60802">
        <ele>5</ele>
        <time>2018-07-18T09:53:14Z</time>
      </trkpt>
      <trkpt lat="47.7732" lon="-3.60799">
        <ele>5</ele>
        <time>2018-07-18T09:53:15Z</time>
      </trkpt>
      <trkpt lat="47.77325" lon="-3.60795">
        <ele>4</ele>
        <time>2018-07-18T09:53:16Z</time>
      </trkpt>
      <trkpt lat="47.7733" lon="-3.60791">
        <ele>4</ele>
        <time>2018-07-18T09:53:17Z</time>
      </trkpt>
      <trkpt lat="47.77335" lon="-3.60788">
        <ele>4</ele>
        <time>2018-07-18T09:53:18Z</time>
      </trkpt>
      <trkpt lat="47.77339" lon="-3.60784">
        <ele>4</ele>
        <time>2018-07-18T09:53:19Z</time>
      </trkpt>
      <trkpt lat="47.77343" lon="-3.6078">
        <ele>4</ele>
        <time>2018-07-18T09:53:20Z</time>
      </trkpt>
      <trkpt lat="47.77346" lon="-3.60776">
        <ele>4</ele>
        <time>2018-07-18T09:53:21Z</time>
      </trkpt>
      <trkpt lat="47.7735" lon="-3.60772">
        <ele>4</ele>
        <time>2018-07-18T09:53:22Z</time>
      </trkpt>
      <trkpt lat="47.77354" lon="-3.60768">
        <ele>4</ele>
        <time>2018-07-18T09:53:23Z</time>
      </trkpt>
      <trkpt lat="47.77357" lon="-3.60764">
        <ele>4</ele>
        <time>2018-07-18T09:53:24Z</time>
      </trkpt>
      <trkpt lat="47.77361" lon="-3.60759">
        <ele>4</ele>
        <time>2018-07-18T09:53:25Z</time>
      </trkpt>
      <trkpt lat="47.77363" lon="-3.60753">
        <ele>4</ele>
        <time>2018-07-18T09:53:26Z</time>
      </trkpt>
      <trkpt lat="47.77366" lon="-3.60747">
        <ele>4</ele>
        <time>2018-07-18T09:53:27Z</time>
      </trkpt>
      <trkpt lat="47.77368" lon="-3.60742">
        <ele>4</ele>
        <time>2018-07-18T09:53:28Z</time>
      </trkpt>
      <trkpt lat="47.77371" lon="-3.60735">
        <ele>4</ele>
        <time>2018-07-18T09:53:29Z</time>
      </trkpt>
      <trkpt lat="47.77373" lon="-3.60728">
        <ele>4</ele>
        <time>2018-07-18T09:53:30Z</time>
      </trkpt>
      <trkpt lat="47.77375" lon="-3.60721">
        <ele>4</ele>
        <time>2018-07-18T09:53:31Z</time>
      </trkpt>
      <trkpt lat="47.77377" lon="-3.60714">
        <ele>4</ele>
        <time>2018-07-18T09:53:32Z</time>
      </trkpt>
      <trkpt lat="47.77378" lon="-3.60707">
        <ele>4</ele>
        <time>2018-07-18T09:53:33Z</time>
      </trkpt>
      <trkpt lat="47.77379" lon="-3.607">
        <ele>4</ele>
        <time>2018-07-18T09:53:34Z</time>
      </trkpt>
      <trkpt lat="47.77381" lon="-3.60694">
        <ele>4</ele>
        <time>2018-07-18T09:53:35Z</time>
      </trkpt>
      <trkpt lat="47.77382" lon="-3.60687">
        <ele>4</ele>
        <time>2018-07-18T09:53:36Z</time>
      </trkpt>
      <trkpt lat="47.77384" lon="-3.6068">
        <ele>4</ele>
        <time>2018-07-18T09:53:37Z</time>
      </trkpt>
      <trkpt lat="47.77385" lon="-3.60673">
        <ele>4</ele>
        <time>2018-07-18T09:53:38Z</time>
      </trkpt>
      <trkpt lat="47.77387" lon="-3.60666">
        <ele>4</ele>
        <time>2018-07-18T09:53:39Z</time>
      </trkpt>
      <trkpt lat="47.77388" lon="-3.60658">
        <ele>4</ele>
        <time>2018-07-18T09:53:40Z</time>
      </trkpt>
      <trkpt lat="47.7739" lon="-3.60651">
        <ele>4</ele>
        <time>2018-07-18T09:53:41Z</time>
      </trkpt>
      <trkpt lat="47.77391" lon="-3.60643">
        <ele>4</ele>
        <time>2018-07-18T09:53:42Z</time>
      </trkpt>
      <trkpt lat="47.77393" lon="-3.60635">
        <ele>4</ele>
        <time>2018-07-18T09:53:43Z</time>
      </trkpt>
      <trkpt lat="47.77394" lon="-3.60628">
        <ele>4</ele>
        <time>2018-07-18T09:53:44Z</time>
      </trkpt>
      <trkpt lat="47.77396" lon="-3.6062">
        <ele>4</ele>
        <time>2018-07-18T09:53:45Z</time>
      </trkpt>
      <trkpt lat="47.77399" lon="-3.60613">
        <ele>4</ele>
        <time>2018-07-18T09:53:46Z</time>
      </trkpt>
      <trkpt lat="47.77401" lon="-3.60606">
        <ele>4</ele>
        <time>2018-07-18T09:53:47Z</time>
      </trkpt>
      <trkpt lat="47.77403" lon="-3.60599">
        <ele>4</ele>
        <time>2018-07-18T09:53:48Z</time>
      </trkpt>
      <trkpt lat="47.77406" lon="-3.60592">
        <ele>4</ele>
        <time>2018-07-18T09:53:49Z</time>
      </trkpt>
      <trkpt lat="47.77408" lon="-3.60585">
        <ele>4</ele>
        <time>2018-07-18T09:53:50Z</time>
      </trkpt>
      <trkpt lat="47.77411" lon="-3.60578">
        <ele>4</ele>
        <time>2018-07-18T09:53:51Z</time>
      </trkpt>
      <trkpt lat="47.77414" lon="-3.60571">
        <ele>4</ele>
        <time>2018-07-18T09:53:52Z</time>
      </trkpt>
      <trkpt lat="47.77416" lon="-3.60564">
        <ele>4</ele>
        <time>2018-07-18T09:53:53Z</time>
      </trkpt>
      <trkpt lat="47.77418" lon="-3.60557">
        <ele>4</ele>
        <time>2018-07-18T09:53:54Z</time>
      </trkpt>
      <trkpt lat="47.7742" lon="-3.6055">
        <ele>4</ele>
        <time>2018-07-18T09:53:55Z</time>
      </trkpt>
      <trkpt lat="47.77422" lon="-3.60543">
        <ele>4</ele>
        <time>2018-07-18T09:53:56Z</time>
      </trkpt>
      <trkpt lat="47.77424" lon="-3.60536">
        <ele>4</ele>
        <time>2018-07-18T09:53:57Z</time>
      </trkpt>
      <trkpt lat="47.77426" lon="-3.6053">
        <ele>4</ele>
        <time>2018-07-18T09:53:58Z</time>
      </trkpt>
      <trkpt lat="47.77428" lon="-3.60523">
        <ele>4</ele>
        <time>2018-07-18T09:53:59Z</time>
      </trkpt>
      <trkpt lat="47.7743" lon="-3.60516">
        <ele>3</ele>
        <time>2018-07-18T09:54:00Z</time>
      </trkpt>
      <trkpt lat="47.77432" lon="-3.6051">
        <ele>3</ele>
        <time>2018-07-18T09:54:01Z</time>
      </trkpt>
      <trkpt lat="47.77435" lon="-3.60504">
        <ele>3</ele>
        <time>2018-07-18T09:54:02Z</time>
      </trkpt>
      <trkpt lat="47.77438" lon="-3.60498">
        <ele>3</ele>
        <time>2018-07-18T09:54:03Z</time>
      </trkpt>
      <trkpt lat="47.77442" lon="-3.60494">
        <ele>3</ele>
        <time>2018-07-18T09:54:04Z</time>
      </trkpt>
      <trkpt lat="47.77447" lon="-3.6049">
        <ele>3</ele>
        <time>2018-07-18T09:54:05Z</time>
      </trkpt>
      <trkpt lat="47.77451" lon="-3.60487">
        <ele>3</ele>
        <time>2018-07-18T09:54:06Z</time>
      </trkpt>
      <trkpt lat="47.77456" lon="-3.60484">
        <ele>2</ele>
        <time>2018-07-18T09:54:07Z</time>
      </trkpt>
      <trkpt lat="47.77461" lon="-3.60482">
        <ele>2</ele>
        <time>2018-07-18T09:54:08Z</time>
      </trkpt>
      <trkpt lat="47.77466" lon="-3.6048">
        <ele>2</ele>
        <time>2018-07-18T09:54:09Z</time>
      </trkpt>
      <trkpt lat="47.77471" lon="-3.60478">
        <ele>2</ele>
        <time>2018-07-18T09:54:10Z</time>
      </trkpt>
      <trkpt lat="47.77476" lon="-3.60476">
        <ele>2</ele>
        <time>2018-07-18T09:54:11Z</time>
      </trkpt>
      <trkpt lat="47.77481" lon="-3.60474">
        <ele>2</ele>
        <time>2018-07-18T09:54:12Z</time>
      </trkpt>
      <trkpt lat="47.77486" lon="-3.60472">
        <ele>2</ele>
        <time>2018-07-18T09:54:13Z</time>
      </trkpt>
      <trkpt lat="47.7749" lon="-3.60469">
        <ele>2</ele>
        <time>2018-07-18T09:54:14Z</time>
      </trkpt>
      <trkpt lat="47.77495" lon="-3.60466">
        <ele>2</ele>
        <time>2018-07-18T09:54:15Z</time>
      </trkpt>
      <trkpt lat="47.77499" lon="-3.60464">
        <ele>2</ele>
        <time>2018-07-18T09:54:16Z</time>
      </trkpt>
      <trkpt lat="47.77503" lon="-3.60461">
        <ele>2</ele>
        <time>2018-07-18T09:54:17Z</time>
      </trkpt>
      <trkpt lat="47.77507" lon="-3.60458">
        <ele>2</ele>
        <time>2018-07-18T09:54:18Z</time>
      </trkpt>
      <trkpt lat="47.77511" lon="-3.60455">
        <ele>2</ele>
        <time>2018-07-18T09:54:19Z</time>
      </trkpt>
      <trkpt lat="47.77514" lon="-3.60452">
        <ele>2</ele>
        <time>2018-07-18T09:54:20Z</time>
      </trkpt>
      <trkpt lat="47.77518" lon="-3.60449">
        <ele>2</ele>
        <time>2018-07-18T09:54:21Z</time>
      </trkpt>
      <trkpt lat="47.77521" lon="-3.60446">
        <ele>2</ele>
        <time>2018-07-18T09:54:22Z</time>
      </trkpt>
      <trkpt lat="47.77525" lon="-3.60442">
        <ele>3</ele>
        <time>2018-07-18T09:54:23Z</time>
      </trkpt>
      <trkpt lat="47.77528" lon="-3.60439">
        <ele>3</ele>
        <time>2018-07-18T09:54:24Z</time>
      </trkpt>
      <trkpt lat="47.7753" lon="-3.60435">
        <ele>3</ele>
        <time>2018-07-18T09:54:25Z</time>
      </trkpt>
      <trkpt lat="47.77532" lon="-3.6043">
        <ele>3</ele>
        <time>2018-07-18T09:54:26Z</time>
      </trkpt>
      <trkpt lat="47.77535" lon="-3.60425">
        <ele>3</ele>
        <time>2018-07-18T09:54:27Z</time>
      </trkpt>
      <trkpt lat="47.77537" lon="-3.60421">
        <ele>3</ele>
        <time>2018-07-18T09:54:28Z</time>
      </trkpt>
      <trkpt lat="47.77539" lon="-3.60416">
        <ele>3</ele>
        <time>2018-07-18T09:54:29Z</time>
      </trkpt>
      <trkpt lat="47.77541" lon="-3.60411">
        <ele>3</ele>
        <time>2018-07-18T09:54:30Z</time>
      </trkpt>
      <trkpt lat="47.77544" lon="-3.60405">
        <ele>3</ele>
        <time>2018-07-18T09:54:31Z</time>
      </trkpt>
      <trkpt lat="47.77547" lon="-3.60399">
        <ele>3</ele>
        <time>2018-07-18T09:54:32Z</time>
      </trkpt>
      <trkpt lat="47.7755" lon="-3.60395">
        <ele>3</ele>
        <time>2018-07-18T09:54:33Z</time>
      </trkpt>
      <trkpt lat="47.77553" lon="-3.6039">
        <ele>3</ele>
        <time>2018-07-18T09:54:34Z</time>
      </trkpt>
      <trkpt lat="47.77557" lon="-3.60387">
        <ele>4</ele>
        <time>2018-07-18T09:54:35Z</time>
      </trkpt>
      <trkpt lat="47.77561" lon="-3.60384">
        <ele>4</ele>
        <time>2018-07-18T09:54:36Z</time>
      </trkpt>
      <trkpt lat="47.77565" lon="-3.60381">
        <ele>4</ele>
        <time>2018-07-18T09:54:37Z</time>
      </trkpt>
      <trkpt lat="47.77569" lon="-3.60378">
        <ele>4</ele>
        <time>2018-07-18T09:54:38Z</time>
      </trkpt>
      <trkpt lat="47.77574" lon="-3.60376">
        <ele>4</ele>
        <time>2018-07-18T09:54:39Z</time>
      </trkpt>
      <trkpt lat="47.77578" lon="-3.60375">
        <ele>4</ele>
        <time>2018-07-18T09:54:40Z</time>
      </trkpt>
      <trkpt lat="47.77583" lon="-3.60373">
        <ele>4</ele>
        <time>2018-07-18T09:54:41Z</time>
      </trkpt>
      <trkpt lat="47.77587" lon="-3.60373">
        <ele>4</ele>
        <time>2018-07-18T09:54:42Z</time>
      </trkpt>
      <trkpt lat="47.77592" lon="-3.60372">
        <ele>4</ele>
        <time>2018-07-18T09:54:43Z</time>
      </trkpt>
      <trkpt lat="47.77597" lon="-3.60372">
        <ele>4</ele>
        <time>2018-07-18T09:54:44Z</time>
      </trkpt>
      <trkpt lat="47.77601" lon="-3.60372">
        <ele>5</ele>
        <time>2018-07-18T09:54:45Z</time>
      </trkpt>
      <trkpt lat="47.77606" lon="-3.60372">
        <ele>5</ele>
        <time>2018-07-18T09:54:46Z</time>
      </trkpt>
      <trkpt lat="47.77611" lon="-3.60371">
        <ele>5</ele>
        <time>2018-07-18T09:54:47Z</time>
      </trkpt>
      <trkpt lat="47.77615" lon="-3.60371">
        <ele>5</ele>
        <time>2018-07-18T09:54:48Z</time>
      </trkpt>
      <trkpt lat="47.7762" lon="-3.6037">
        <ele>5</ele>
        <time>2018-07-18T09:54:49Z</time>
      </trkpt>
      <trkpt lat="47.77624" lon="-3.6037">
        <ele>5</ele>
        <time>2018-07-18T09:54:50Z</time>
      </trkpt>
      <trkpt lat="47.77629" lon="-3.6037">
        <ele>5</ele>
        <time>2018-07-18T09:54:51Z</time>
      </trkpt>
      <trkpt lat="47.77634" lon="-3.60371">
        <ele>5</ele>
        <time>2018-07-18T09:54:52Z</time>
      </trkpt>
      <trkpt lat="47.77638" lon="-3.60373">
        <ele>5</ele>
        <time>2018-07-18T09:54:53Z</time>
      </trkpt>
      <trkpt lat="47.77642" lon="-3.60375">
        <ele>5</ele>
        <time>2018-07-18T09:54:54Z</time>
      </trkpt>
      <trkpt lat="47.77647" lon="-3.60377">
        <ele>5</ele>
        <time>2018-07-18T09:54:55Z</time>
      </trkpt>
      <trkpt lat="47.77652" lon="-3.60381">
        <ele>5</ele>
        <time>2018-07-18T09:54:56Z</time>
      </trkpt>
      <trkpt lat="47.77657" lon="-3.60385">
        <ele>5</ele>
        <time>2018-07-18T09:54:57Z</time>
      </trkpt>
      <trkpt lat="47.77663" lon="-3.60389">
        <ele>4</ele>
        <time>2018-07-18T09:54:58Z</time>
      </trkpt>
      <trkpt lat="47.77669" lon="-3.60393">
        <ele>4</ele>
        <time>2018-07-18T09:54:59Z</time>
      </trkpt>
      <trkpt lat="47.77676" lon="-3.60397">
        <ele>4</ele>
        <time>2018-07-18T09:55:00Z</time>
      </trkpt>
      <trkpt lat="47.77682" lon="-3.60402">
        <ele>3</ele>
        <time>2018-07-18T09:55:01Z</time>
      </trkpt>
      <trkpt lat="47.77689" lon="-3.60406">
        <ele>3</ele>
        <time>2018-07-18T09:55:02Z</time>
      </trkpt>
      <trkpt lat="47.77695" lon="-3.60411">
        <ele>3</ele>
        <time>2018-07-18T09:55:03Z</time>
      </trkpt>
      <trkpt lat="47.77702" lon="-3.60415">
        <ele>3</ele>
        <time>2018-07-18T09:55:04Z</time>
      </trkpt>
      <trkpt lat="47.77708" lon="-3.60419">
        <ele>3</ele>
        <time>2018-07-18T09:55:05Z</time>
      </trkpt>
      <trkpt lat="47.77714" lon="-3.60424">
        <ele>3</ele>
        <time>2018-07-18T09:55:06Z</time>
      </trkpt>
      <trkpt lat="47.77719" lon="-3.60428">
        <ele>3</ele>
        <time>2018-07-18T09:55:07Z</time>
      </trkpt>
      <trkpt lat="47.77725" lon="-3.60431">
        <ele>3</ele>
        <time>2018-07-18T09:55:08Z</time>
      </trkpt>
      <trkpt lat="47.7773" lon="-3.60435">
        <ele>3</ele>
        <time>2018-07-18T09:55:09Z</time>
      </trkpt>
      <trkpt lat="47.77735" lon="-3.60438">
        <ele>3</ele>
        <time>2018-07-18T09:55:10Z</time>
      </trkpt>
      <trkpt lat="47.7774" lon="-3.60441">
        <ele>3</ele>
        <time>2018-07-18T09:55:11Z</time>
      </trkpt>
      <trkpt lat="47.77744" lon="-3.60444">
        <ele>3</ele>
        <time>2018-07-18T09:55:12Z</time>
      </trkpt>
      <trkpt lat="47.77749" lon="-3.60447">
        <ele>3</ele>
        <time>2018-07-18T09:55:13Z</time>
      </trkpt>
      <trkpt lat="47.77753" lon="-3.6045">
        <ele>4</ele>
        <time>2018-07-18T09:55:14Z</time>
      </trkpt>
      <trkpt lat="47.77757" lon="-3.60453">
        <ele>4</ele>
        <time>2018-07-18T09:55:15Z</time>
      </trkpt>
      <trkpt lat="47.7776" lon="-3.60456">
        <ele>4</ele>
        <time>2018-07-18T09:55:16Z</time>
      </trkpt>
      <trkpt lat="47.77765" lon="-3.60459">
        <ele>4</ele>
        <time>2018-07-18T09:55:17Z</time>
      </trkpt>
      <trkpt lat="47.77769" lon="-3.60462">
        <ele>4</ele>
        <time>2018-07-18T09:55:18Z</time>
      </trkpt>
      <trkpt lat="47.77772" lon="-3.60465">
        <ele>5</ele>
        <time>2018-07-18T09:55:19Z</time>
      </trkpt>
      <trkpt lat="47.77776" lon="-3.60468">
        <ele>5</ele>
        <time>2018-07-18T09:55:20Z</time>
      </trkpt>
      <trkpt lat="47.7778" lon="-3.60471">
        <ele>5</ele>
        <time>2018-07-18T09:55:21Z</time>
      </trkpt>
      <trkpt lat="47.77784" lon="-3.60473">
        <ele>5</ele>
        <time>2018-07-18T09:55:22Z</time>
      </trkpt>
      <trkpt lat="47.77788" lon="-3.60476">
        <ele>5</ele>
        <time>2018-07-18T09:55:23Z</time>
      </trkpt>
      <trkpt lat="47.77791" lon="-3.60478">
        <ele>5</ele>
        <time>2018-07-18T09:55:24Z</time>
      </trkpt>
      <trkpt lat="47.77795" lon="-3.60481">
        <ele>5</ele>
        <time>2018-07-18T09:55:25Z</time>
      </trkpt>
      <trkpt lat="47.77798" lon="-3.60484">
        <ele>5</ele>
        <time>2018-07-18T09:55:26Z</time>
      </trkpt>
      <trkpt lat="47.77802" lon="-3.60486">
        <ele>5</ele>
        <time>2018-07-18T09:55:27Z</time>
      </trkpt>
      <trkpt lat="47.77806" lon="-3.60489">
        <ele>6</ele>
        <time>2018-07-18T09:55:28Z</time>
      </trkpt>
      <trkpt lat="47.7781" lon="-3.60491">
        <ele>6</ele>
        <time>2018-07-18T09:55:29Z</time>
      </trkpt>
      <trkpt lat="47.77814" lon="-3.60493">
        <ele>6</ele>
        <time>2018-07-18T09:55:30Z</time>
      </trkpt>
      <trkpt lat="47.77817" lon="-3.60496">
        <ele>6</ele>
        <time>2018-07-18T09:55:31Z</time>
      </trkpt>
      <trkpt lat="47.77821" lon="-3.60498">
        <ele>6</ele>
        <time>2018-07-18T09:55:32Z</time>
      </trkpt>
      <trkpt lat="47.77824" lon="-3.605">
        <ele>6</ele>
        <time>2018-07-18T09:55:33Z</time>
      </trkpt>
      <trkpt lat="47.77827" lon="-3.60502">
        <ele>7</ele>
        <time>2018-07-18T09:55:34Z</time>
      </trkpt>
      <trkpt lat="47.7783" lon="-3.60503">
        <ele>7</ele>
        <time>2018-07-18T09:55:35Z</time>
      </trkpt>
      <trkpt lat="47.77833" lon="-3.60504">
        <ele>7</ele>
        <time>2018-07-18T09:55:36Z</time>
      </trkpt>
      <trkpt lat="47.77836" lon="-3.60505">
        <ele>7</ele>
        <time>2018-07-18T09:55:37Z</time>
      </trkpt>
      <trkpt lat="47.77838" lon="-3.60506">
        <ele>7</ele>
        <time>2018-07-18T09:55:38Z</time>
      </trkpt>
      <trkpt lat="47.7784" lon="-3.60507">
        <ele>7</ele>
        <time>2018-07-18T09:55:39Z</time>
      </trkpt>
      <trkpt lat="47.77841" lon="-3.60507">
        <ele>7</ele>
        <time>2018-07-18T09:55:40Z</time>
      </trkpt>
      <trkpt lat="47.77841" lon="-3.60508">
        <ele>8</ele>
        <time>2018-07-18T09:55:41Z</time>
      </trkpt>
      <trkpt lat="47.77843" lon="-3.6051">
        <ele>8</ele>
        <time>2018-07-18T09:55:42Z</time>
      </trkpt>
      <trkpt lat="47.77845" lon="-3.60512">
        <ele>8</ele>
        <time>2018-07-18T09:55:43Z</time>
      </trkpt>
      <trkpt lat="47.77848" lon="-3.60513">
        <ele>8</ele>
        <time>2018-07-18T09:55:44Z</time>
      </trkpt>
      <trkpt lat="47.7785" lon="-3.60514">
        <ele>8</ele>
        <time>2018-07-18T09:55:45Z</time>
      </trkpt>
      <trkpt lat="47.77852" lon="-3.60515">
        <ele>9</ele>
        <time>2018-07-18T09:55:46Z</time>
      </trkpt>
      <trkpt lat="47.77855" lon="-3.60516">
        <ele>9</ele>
        <time>2018-07-18T09:55:47Z</time>
      </trkpt>
      <trkpt lat="47.77858" lon="-3.60517">
        <ele>9</ele>
        <time>2018-07-18T09:55:48Z</time>
      </trkpt>
      <trkpt lat="47.77861" lon="-3.60518">
        <ele>9</ele>
        <time>2018-07-18T09:55:49Z</time>
      </trkpt>
      <trkpt lat="47.77865" lon="-3.6052">
        <ele>9</ele>
        <time>2018-07-18T09:55:50Z</time>
      </trkpt>
      <trkpt lat="47.77868" lon="-3.60523">
        <ele>9</ele>
        <time>2018-07-18T09:55:51Z</time>
      </trkpt>
      <trkpt lat="47.77871" lon="-3.60526">
        <ele>10</ele>
        <time>2018-07-18T09:55:52Z</time>
      </trkpt>
      <trkpt lat="47.77874" lon="-3.6053">
        <ele>10</ele>
        <time>2018-07-18T09:55:53Z</time>
      </trkpt>
      <trkpt lat="47.77877" lon="-3.60535">
        <ele>10</ele>
        <time>2018-07-18T09:55:54Z</time>
      </trkpt>
      <trkpt lat="47.7788" lon="-3.6054">
        <ele>10</ele>
        <time>2018-07-18T09:55:55Z</time>
      </trkpt>
      <trkpt lat="47.77882" lon="-3.60544">
        <ele>10</ele>
        <time>2018-07-18T09:55:56Z</time>
      </trkpt>
      <trkpt lat="47.77884" lon="-3.60549">
        <ele>10</ele>
        <time>2018-07-18T09:55:57Z</time>
      </trkpt>
      <trkpt lat="47.77887" lon="-3.60553">
        <ele>11</ele>
        <time>2018-07-18T09:55:58Z</time>
      </trkpt>
      <trkpt lat="47.77889" lon="-3.60558">
        <ele>11</ele>
        <time>2018-07-18T09:55:59Z</time>
      </trkpt>
      <trkpt lat="47.77891" lon="-3.60562">
        <ele>11</ele>
        <time>2018-07-18T09:56:00Z</time>
      </trkpt>
      <trkpt lat="47.77894" lon="-3.60566">
        <ele>11</ele>
        <time>2018-07-18T09:56:01Z</time>
      </trkpt>
      <trkpt lat="47.77895" lon="-3.6057">
        <ele>12</ele>
        <time>2018-07-18T09:56:02Z</time>
      </trkpt>
      <trkpt lat="47.77897" lon="-3.60573">
        <ele>12</ele>
        <time>2018-07-18T09:56:03Z</time>
      </trkpt>
      <trkpt lat="47.77898" lon="-3.60578">
        <ele>12</ele>
        <time>2018-07-18T09:56:04Z</time>
      </trkpt>
      <trkpt lat="47.77898" lon="-3.60582">
        <ele>12</ele>
        <time>2018-07-18T09:56:05Z</time>
      </trkpt>
      <trkpt lat="47.77899" lon="-3.60586">
        <ele>12</ele>
        <time>2018-07-18T09:56:06Z</time>
      </trkpt>
      <trkpt lat="47.77899" lon="-3.60588">
        <ele>13</ele>
        <time>2018-07-18T09:56:07Z</time>
      </trkpt>
      <trkpt lat="47.779" lon="-3.60591">
        <ele>13</ele>
        <time>2018-07-18T09:56:08Z</time>
      </trkpt>
      <trkpt lat="47.779" lon="-3.60594">
        <ele>13</ele>
        <time>2018-07-18T09:56:09Z</time>
      </trkpt>
      <trkpt lat="47.779" lon="-3.60597">
        <ele>13</ele>
        <time>2018-07-18T09:56:10Z</time>
      </trkpt>
      <trkpt lat="47.779" lon="-3.60599">
        <ele>14</ele>
        <time>2018-07-18T09:56:11Z</time>
      </trkpt>
      <trkpt lat="47.779" lon="-3.60603">
        <ele>14</ele>
        <time>2018-07-18T09:56:12Z</time>
      </trkpt>
      <trkpt lat="47.779" lon="-3.60606">
        <ele>14</ele>
        <time>2018-07-18T09:56:13Z</time>
      </trkpt>
      <trkpt lat="47.77901" lon="-3.6061">
        <ele>14</ele>
        <time>2018-07-18T09:56:14Z</time>
      </trkpt>
      <trkpt lat="47.77902" lon="-3.60614">
        <ele>15</ele>
        <time>2018-07-18T09:56:15Z</time>
      </trkpt>
      <trkpt lat="47.77902" lon="-3.60618">
        <ele>15</ele>
        <time>2018-07-18T09:56:16Z</time>
      </trkpt>
      <trkpt lat="47.77902" lon="-3.60622">
        <ele>15</ele>
        <time>2018-07-18T09:56:17Z</time>
      </trkpt>
      <trkpt lat="47.77902" lon="-3.60625">
        <ele>15</ele>
        <time>2018-07-18T09:56:18Z</time>
      </trkpt>
      <trkpt lat="47.77902" lon="-3.60629">
        <ele>15</ele>
        <time>2018-07-18T09:56:19Z</time>
      </trkpt>
      <trkpt lat="47.77902" lon="-3.60633">
        <ele>15</ele>
        <time>2018-07-18T09:56:20Z</time>
      </trkpt>
      <trkpt lat="47.77903" lon="-3.60637">
        <ele>15</ele>
        <time>2018-07-18T09:56:21Z</time>
      </trkpt>
      <trkpt lat="47.77903" lon="-3.60641">
        <ele>16</ele>
        <time>2018-07-18T09:56:22Z</time>
      </trkpt>
      <trkpt lat="47.77903" lon="-3.60645">
        <ele>16</ele>
        <time>2018-07-18T09:56:23Z</time>
      </trkpt>
      <trkpt lat="47.77903" lon="-3.60649">
        <ele>16</ele>
        <time>2018-07-18T09:56:24Z</time>
      </trkpt>
      <trkpt lat="47.77903" lon="-3.60653">
        <ele>16</ele>
        <time>2018-07-18T09:56:25Z</time>
      </trkpt>
      <trkpt lat="47.77903" lon="-3.60658">
        <ele>16</ele>
        <time>2018-07-18T09:56:26Z</time>
      </trkpt>
      <trkpt lat="47.77903" lon="-3.60662">
        <ele>16</ele>
        <time>2018-07-18T09:56:27Z</time>
      </trkpt>
      <trkpt lat="47.77904" lon="-3.60666">
        <ele>16</ele>
        <time>2018-07-18T09:56:28Z</time>
      </trkpt>
      <trkpt lat="47.77904" lon="-3.60671">
        <ele>16</ele>
        <time>2018-07-18T09:56:29Z</time>
      </trkpt>
      <trkpt lat="47.77904" lon="-3.60675">
        <ele>16</ele>
        <time>2018-07-18T09:56:30Z</time>
      </trkpt>
      <trkpt lat="47.77904" lon="-3.6068">
        <ele>16</ele>
        <time>2018-07-18T09:56:31Z</time>
      </trkpt>
      <trkpt lat="47.77903" lon="-3.60685">
        <ele>16</ele>
        <time>2018-07-18T09:56:32Z</time>
      </trkpt>
      <trkpt lat="47.77903" lon="-3.60691">
        <ele>17</ele>
        <time>2018-07-18T09:56:33Z</time>
      </trkpt>
      <trkpt lat="47.77903" lon="-3.60695">
        <ele>17</ele>
        <time>2018-07-18T09:56:34Z</time>
      </trkpt>
      <trkpt lat="47.77903" lon="-3.607">
        <ele>17</ele>
        <time>2018-07-18T09:56:35Z</time>
      </trkpt>
      <trkpt lat="47.77902" lon="-3.60705">
        <ele>17</ele>
        <time>2018-07-18T09:56:36Z</time>
      </trkpt>
      <trkpt lat="47.77901" lon="-3.6071">
        <ele>17</ele>
        <time>2018-07-18T09:56:37Z</time>
      </trkpt>
      <trkpt lat="47.779" lon="-3.60713">
        <ele>17</ele>
        <time>2018-07-18T09:56:38Z</time>
      </trkpt>
      <trkpt lat="47.779" lon="-3.60715">
        <ele>17</ele>
        <time>2018-07-18T09:56:39Z</time>
      </trkpt>
      <trkpt lat="47.779" lon="-3.60717">
        <ele>17</ele>
        <time>2018-07-18T09:56:40Z</time>
      </trkpt>
      <trkpt lat="47.779" lon="-3.60719">
        <ele>17</ele>
        <time>2018-07-18T09:56:41Z</time>
      </trkpt>
      <trkpt lat="47.77899" lon="-3.60721">
        <ele>17</ele>
        <time>2018-07-18T09:56:42Z</time>
      </trkpt>
      <trkpt lat="47.77899" lon="-3.60722">
        <ele>17</ele>
        <time>2018-07-18T09:56:43Z</time>
      </trkpt>
      <trkpt lat="47.77899" lon="-3.60723">
        <ele>17</ele>
        <time>2018-07-18T09:56:44Z</time>
      </trkpt>
      <trkpt lat="47.77899" lon="-3.60725">
        <ele>17</ele>
        <time>2018-07-18T09:56:45Z</time>
      </trkpt>
      <trkpt lat="47.77898" lon="-3.60726">
        <ele>17</ele>
        <time>2018-07-18T09:56:46Z</time>
      </trkpt>
      <trkpt lat="47.77898" lon="-3.60727">
        <ele>18</ele>
        <time>2018-07-18T09:56:47Z</time>
      </trkpt>
      <trkpt lat="47.77898" lon="-3.60728">
        <ele>18</ele>
        <time>2018-07-18T09:56:48Z</time>
      </trkpt>
      <trkpt lat="47.77898" lon="-3.60729">
        <ele>18</ele>
        <time>2018-07-18T09:56:49Z</time>
      </trkpt>
      <trkpt lat="47.77898" lon="-3.6073">
        <ele>18</ele>
        <time>2018-07-18T09:56:50Z</time>
      </trkpt>
      <trkpt lat="47.77898" lon="-3.6073">
        <ele>18</ele>
        <time>2018-07-18T09:56:51Z</time>
      </trkpt>
      <trkpt lat="47.77898" lon="-3.60731">
        <ele>18</ele>
        <time>2018-07-18T09:56:52Z</time>
      </trkpt>
      <trkpt lat="47.77898" lon="-3.60732">
        <ele>18</ele>
        <time>2018-07-18T09:56:53Z</time>
      </trkpt>
      <trkpt lat="47.77897" lon="-3.60738">
        <ele>18</ele>
        <time>2018-07-18T09:56:54Z</time>
      </trkpt>
      <trkpt lat="47.77897" lon="-3.6074">
        <ele>18</ele>
        <time>2018-07-18T09:56:55Z</time>
      </trkpt>
      <trkpt lat="47.77898" lon="-3.6074">
        <ele>18</ele>
        <time>2018-07-18T09:56:56Z</time>
      </trkpt>
      <trkpt lat="47.77899" lon="-3.6074">
        <ele>18</ele>
        <time>2018-07-18T09:56:57Z</time>
      </trkpt>
      <trkpt lat="47.779" lon="-3.60739">
        <ele>18</ele>
        <time>2018-07-18T09:56:58Z</time>
      </trkpt>
      <trkpt lat="47.77901" lon="-3.60738">
        <ele>19</ele>
        <time>2018-07-18T09:56:59Z</time>
      </trkpt>
      <trkpt lat="47.77904" lon="-3.60737">
        <ele>19</ele>
        <time>2018-07-18T09:57:00Z</time>
      </trkpt>
      <trkpt lat="47.77906" lon="-3.60737">
        <ele>19</ele>
        <time>2018-07-18T09:57:01Z</time>
      </trkpt>
      <trkpt lat="47.77908" lon="-3.60737">
        <ele>19</ele>
        <time>2018-07-18T09:57:02Z</time>
      </trkpt>
      <trkpt lat="47.77911" lon="-3.60737">
        <ele>19</ele>
        <time>2018-07-18T09:57:03Z</time>
      </trkpt>
      <trkpt lat="47.77915" lon="-3.60737">
        <ele>19</ele>
        <time>2018-07-18T09:57:04Z</time>
      </trkpt>
      <trkpt lat="47.77919" lon="-3.60738">
        <ele>19</ele>
        <time>2018-07-18T09:57:05Z</time>
      </trkpt>
      <trkpt lat="47.77922" lon="-3.60739">
        <ele>19</ele>
        <time>2018-07-18T09:57:06Z</time>
      </trkpt>
      <trkpt lat="47.77926" lon="-3.60739">
        <ele>19</ele>
        <time>2018-07-18T09:57:07Z</time>
      </trkpt>
      <trkpt lat="47.77929" lon="-3.60739">
        <ele>19</ele>
        <time>2018-07-18T09:57:08Z</time>
      </trkpt>
      <trkpt lat="47.77931" lon="-3.6074">
        <ele>19</ele>
        <time>2018-07-18T09:57:09Z</time>
      </trkpt>
      <trkpt lat="47.77932" lon="-3.6074">
        <ele>19</ele>
        <time>2018-07-18T09:57:10Z</time>
      </trkpt>
      <trkpt lat="47.77933" lon="-3.6074">
        <ele>19</ele>
        <time>2018-07-18T09:57:11Z</time>
      </trkpt>
      <trkpt lat="47.77934" lon="-3.60741">
        <ele>19</ele>
        <time>2018-07-18T09:57:12Z</time>
      </trkpt>
      <trkpt lat="47.77934" lon="-3.60741">
        <ele>19</ele>
        <time>2018-07-18T09:57:13Z</time>
      </trkpt>
      <trkpt lat="47.77935" lon="-3.60741">
        <ele>19</ele>
        <time>2018-07-18T09:57:14Z</time>
      </trkpt>
      <trkpt lat="47.77936" lon="-3.60742">
        <ele>19</ele>
        <time>2018-07-18T09:57:15Z</time>
      </trkpt>
      <trkpt lat="47.77938" lon="-3.60742">
        <ele>19</ele>
        <time>2018-07-18T09:57:16Z</time>
      </trkpt>
      <trkpt lat="47.7794" lon="-3.60743">
        <ele>19</ele>
        <time>2018-07-18T09:57:17Z</time>
      </trkpt>
      <trkpt lat="47.77942" lon="-3.60743">
        <ele>19</ele>
        <time>2018-07-18T09:57:18Z</time>
      </trkpt>
      <trkpt lat="47.77944" lon="-3.60743">
        <ele>19</ele>
        <time>2018-07-18T09:57:19Z</time>
      </trkpt>
      <trkpt lat="47.77946" lon="-3.60744">
        <ele>19</ele>
        <time>2018-07-18T09:57:20Z</time>
      </trkpt>
      <trkpt lat="47.77947" lon="-3.60744">
        <ele>19</ele>
        <time>2018-07-18T09:57:21Z</time>
      </trkpt>
      <trkpt lat="47.77949" lon="-3.60745">
        <ele>19</ele>
        <time>2018-07-18T09:57:22Z</time>
      </trkpt>
      <trkpt lat="47.77951" lon="-3.60746">
        <ele>19</ele>
        <time>2018-07-18T09:57:23Z</time>
      </trkpt>
      <trkpt lat="47.77953" lon="-3.60746">
        <ele>19</ele>
        <time>2018-07-18T09:57:24Z</time>
      </trkpt>
      <trkpt lat="47.77955" lon="-3.60747">
        <ele>19</ele>
        <time>2018-07-18T09:57:25Z</time>
      </trkpt>
      <trkpt lat="47.77956" lon="-3.60748">
        <ele>19</ele>
        <time>2018-07-18T09:57:26Z</time>
      </trkpt>
      <trkpt lat="47.77958" lon="-3.6075">
        <ele>18</ele>
        <time>2018-07-18T09:57:27Z</time>
      </trkpt>
      <trkpt lat="47.7796" lon="-3.6075">
        <ele>19</ele>
        <time>2018-07-18T09:57:28Z</time>
      </trkpt>
      <trkpt lat="47.77962" lon="-3.60751">
        <ele>19</ele>
        <time>2018-07-18T09:57:29Z</time>
      </trkpt>
      <trkpt lat="47.77965" lon="-3.60751">
        <ele>18</ele>
        <time>2018-07-18T09:57:30Z</time>
      </trkpt>
      <trkpt lat="47.77966" lon="-3.60751">
        <ele>18</ele>
        <time>2018-07-18T09:57:31Z</time>
      </trkpt>
      <trkpt lat="47.77968" lon="-3.60751">
        <ele>18</ele>
        <time>2018-07-18T09:57:32Z</time>
      </trkpt>
      <trkpt lat="47.7797" lon="-3.60751">
        <ele>18</ele>
        <time>2018-07-18T09:57:33Z</time>
      </trkpt>
      <trkpt lat="47.77972" lon="-3.60751">
        <ele>18</ele>
        <time>2018-07-18T09:57:34Z</time>
      </trkpt>
      <trkpt lat="47.77975" lon="-3.60751">
        <ele>18</ele>
        <time>2018-07-18T09:57:35Z</time>
      </trkpt>
      <trkpt lat="47.77978" lon="-3.6075">
        <ele>19</ele>
        <time>2018-07-18T09:57:36Z</time>
      </trkpt>
      <trkpt lat="47.7798" lon="-3.6075">
        <ele>19</ele>
        <time>2018-07-18T09:57:37Z</time>
      </trkpt>
      <trkpt lat="47.77983" lon="-3.6075">
        <ele>19</ele>
        <time>2018-07-18T09:57:38Z</time>
      </trkpt>
      <trkpt lat="47.77985" lon="-3.60749">
        <ele>19</ele>
        <time>2018-07-18T09:57:39Z</time>
      </trkpt>
      <trkpt lat="47.77988" lon="-3.60748">
        <ele>19</ele>
        <time>2018-07-18T09:57:40Z</time>
      </trkpt>
      <trkpt lat="47.77989" lon="-3.60748">
        <ele>19</ele>
        <time>2018-07-18T09:57:41Z</time>
      </trkpt>
      <trkpt lat="47.77992" lon="-3.60747">
        <ele>19</ele>
        <time>2018-07-18T09:57:42Z</time>
      </trkpt>
      <trkpt lat="47.77993" lon="-3.60748">
        <ele>19</ele>
        <time>2018-07-18T09:57:43Z</time>
      </trkpt>
      <trkpt lat="47.77996" lon="-3.60748">
        <ele>19</ele>
        <time>2018-07-18T09:57:44Z</time>
      </trkpt>
      <trkpt lat="47.77998" lon="-3.60748">
        <ele>19</ele>
        <time>2018-07-18T09:57:45Z</time>
      </trkpt>
      <trkpt lat="47.78001" lon="-3.60748">
        <ele>19</ele>
        <time>2018-07-18T09:57:46Z</time>
      </trkpt>
      <trkpt lat="47.78003" lon="-3.60749">
        <ele>19</ele>
        <time>2018-07-18T09:57:47Z</time>
      </trkpt>
      <trkpt lat="47.78005" lon="-3.60751">
        <ele>19</ele>
        <time>2018-07-18T09:57:48Z</time>
      </trkpt>
      <trkpt lat="47.78005" lon="-3.60753">
        <ele>20</ele>
        <time>2018-07-18T09:57:49Z</time>
      </trkpt>
      <trkpt lat="47.78006" lon="-3.60757">
        <ele>20</ele>
        <time>2018-07-18T09:57:50Z</time>
      </trkpt>
      <trkpt lat="47.78006" lon="-3.6076">
        <ele>20</ele>
        <time>2018-07-18T09:57:51Z</time>
      </trkpt>
      <trkpt lat="47.78006" lon="-3.60764">
        <ele>20</ele>
        <time>2018-07-18T09:57:52Z</time>
      </trkpt>
      <trkpt lat="47.78006" lon="-3.60769">
        <ele>20</ele>
        <time>2018-07-18T09:57:53Z</time>
      </trkpt>
      <trkpt lat="47.78007" lon="-3.60772">
        <ele>20</ele>
        <time>2018-07-18T09:57:54Z</time>
      </trkpt>
      <trkpt lat="47.78007" lon="-3.60774">
        <ele>20</ele>
        <time>2018-07-18T09:57:55Z</time>
      </trkpt>
      <trkpt lat="47.78008" lon="-3.60777">
        <ele>20</ele>
        <time>2018-07-18T09:57:56Z</time>
      </trkpt>
      <trkpt lat="47.78009" lon="-3.60779">
        <ele>20</ele>
        <time>2018-07-18T09:57:57Z</time>
      </trkpt>
      <trkpt lat="47.7801" lon="-3.60782">
        <ele>21</ele>
        <time>2018-07-18T09:57:58Z</time>
      </trkpt>
      <trkpt lat="47.78011" lon="-3.60784">
        <ele>21</ele>
        <time>2018-07-18T09:57:59Z</time>
      </trkpt>
      <trkpt lat="47.78012" lon="-3.60786">
        <ele>21</ele>
        <time>2018-07-18T09:58:00Z</time>
      </trkpt>
      <trkpt lat="47.78012" lon="-3.60789">
        <ele>21</ele>
        <time>2018-07-18T09:58:01Z</time>
      </trkpt>
      <trkpt lat="47.78014" lon="-3.6079">
        <ele>21</ele>
        <time>2018-07-18T09:58:02Z</time>
      </trkpt>
      <trkpt lat="47.78015" lon="-3.60792">
        <ele>21</ele>
        <time>2018-07-18T09:58:03Z</time>
      </trkpt>
      <trkpt lat="47.78016" lon="-3.60794">
        <ele>22</ele>
        <time>2018-07-18T09:58:04Z</time>
      </trkpt>
      <trkpt lat="47.78017" lon="-3.60796">
        <ele>22</ele>
        <time>2018-07-18T09:58:05Z</time>
      </trkpt>
      <trkpt lat="47.78019" lon="-3.60797">
        <ele>22</ele>
        <time>2018-07-18T09:58:06Z</time>
      </trkpt>
      <trkpt lat="47.7802" lon="-3.60799">
        <ele>22</ele>
        <time>2018-07-18T09:58:07Z</time>
      </trkpt>
      <trkpt lat="47.78022" lon="-3.60802">
        <ele>23</ele>
        <time>2018-07-18T09:58:08Z</time>
      </trkpt>
      <trkpt lat="47.78024" lon="-3.60804">
        <ele>23</ele>
        <time>2018-07-18T09:58:09Z</time>
      </trkpt>
      <trkpt lat="47.78025" lon="-3.60806">
        <ele>23</ele>
        <time>2018-07-18T09:58:10Z</time>
      </trkpt>
      <trkpt lat="47.78028" lon="-3.60809">
        <ele>23</ele>
        <time>2018-07-18T09:58:11Z</time>
      </trkpt>
      <trkpt lat="47.78029" lon="-3.60811">
        <ele>23</ele>
        <time>2018-07-18T09:58:12Z</time>
      </trkpt>
      <trkpt lat="47.78031" lon="-3.60814">
        <ele>24</ele>
        <time>2018-07-18T09:58:13Z</time>
      </trkpt>
      <trkpt lat="47.78033" lon="-3.60817">
        <ele>24</ele>
        <time>2018-07-18T09:58:14Z</time>
      </trkpt>
      <trkpt lat="47.78034" lon="-3.60819">
        <ele>24</ele>
        <time>2018-07-18T09:58:15Z</time>
      </trkpt>
      <trkpt lat="47.78036" lon="-3.60822">
        <ele>24</ele>
        <time>2018-07-18T09:58:16Z</time>
      </trkpt>
      <trkpt lat="47.78038" lon="-3.60825">
        <ele>25</ele>
        <time>2018-07-18T09:58:17Z</time>
      </trkpt>
      <trkpt lat="47.78039" lon="-3.60828">
        <ele>25</ele>
        <time>2018-07-18T09:58:18Z</time>
      </trkpt>
      <trkpt lat="47.7804" lon="-3.6083">
        <ele>25</ele>
        <time>2018-07-18T09:58:19Z</time>
      </trkpt>
      <trkpt lat="47.78041" lon="-3.60833">
        <ele>25</ele>
        <time>2018-07-18T09:58:20Z</time>
      </trkpt>
      <trkpt lat="47.78042" lon="-3.60836">
        <ele>25</ele>
        <time>2018-07-18T09:58:21Z</time>
      </trkpt>
      <trkpt lat="47.78042" lon="-3.6084">
        <ele>25</ele>
        <time>2018-07-18T09:58:22Z</time>
      </trkpt>
      <trkpt lat="47.78043" lon="-3.60843">
        <ele>25</ele>
        <time>2018-07-18T09:58:23Z</time>
      </trkpt>
      <trkpt lat="47.78044" lon="-3.60848">
        <ele>25</ele>
        <time>2018-07-18T09:58:24Z</time>
      </trkpt>
      <trkpt lat="47.78045" lon="-3.60854">
        <ele>25</ele>
        <time>2018-07-18T09:58:25Z</time>
      </trkpt>
      <trkpt lat="47.78046" lon="-3.60859">
        <ele>25</ele>
        <time>2018-07-18T09:58:26Z</time>
      </trkpt>
      <trkpt lat="47.78047" lon="-3.60863">
        <ele>25</ele>
        <time>2018-07-18T09:58:27Z</time>
      </trkpt>
      <trkpt lat="47.78047" lon="-3.60868">
        <ele>25</ele>
        <time>2018-07-18T09:58:28Z</time>
      </trkpt>
      <trkpt lat="47.78047" lon="-3.60872">
        <ele>26</ele>
        <time>2018-07-18T09:58:29Z</time>
      </trkpt>
      <trkpt lat="47.78048" lon="-3.60876">
        <ele>26</ele>
        <time>2018-07-18T09:58:30Z</time>
      </trkpt>
      <trkpt lat="47.78048" lon="-3.6088">
        <ele>26</ele>
        <time>2018-07-18T09:58:31Z</time>
      </trkpt>
      <trkpt lat="47.78049" lon="-3.60886">
        <ele>26</ele>
        <time>2018-07-18T09:58:32Z</time>
      </trkpt>
      <trkpt lat="47.7805" lon="-3.60892">
        <ele>26</ele>
        <time>2018-07-18T09:58:33Z</time>
      </trkpt>
      <trkpt lat="47.78051" lon="-3.60897">
        <ele>26</ele>
        <time>2018-07-18T09:58:34Z</time>
      </trkpt>
      <trkpt lat="47.78053" lon="-3.609">
        <ele>26</ele>
        <time>2018-07-18T09:58:35Z</time>
      </trkpt>
      <trkpt lat="47.78055" lon="-3.60903">
        <ele>26</ele>
        <time>2018-07-18T09:58:36Z</time>
      </trkpt>
      <trkpt lat="47.78057" lon="-3.60904">
        <ele>26</ele>
        <time>2018-07-18T09:58:37Z</time>
      </trkpt>
      <trkpt lat="47.7806" lon="-3.60906">
        <ele>26</ele>
        <time>2018-07-18T09:58:38Z</time>
      </trkpt>
      <trkpt lat="47.78062" lon="-3.60908">
        <ele>26</ele>
        <time>2018-07-18T09:58:39Z</time>
      </trkpt>
      <trkpt lat="47.78063" lon="-3.6091">
        <ele>26</ele>
        <time>2018-07-18T09:58:40Z</time>
      </trkpt>
      <trkpt lat="47.78065" lon="-3.60912">
        <ele>26</ele>
        <time>2018-07-18T09:58:41Z</time>
      </trkpt>
      <trkpt lat="47.78067" lon="-3.60914">
        <ele>26</ele>
        <time>2018-07-18T09:58:42Z</time>
      </trkpt>
      <trkpt lat="47.78069" lon="-3.60914">
        <ele>27</ele>
        <time>2018-07-18T09:58:43Z</time>
      </trkpt>
      <trkpt lat="47.78071" lon="-3.60916">
        <ele>27</ele>
        <time>2018-07-18T09:58:44Z</time>
      </trkpt>
      <trkpt lat="47.78073" lon="-3.60917">
        <ele>27</ele>
        <time>2018-07-18T09:58:45Z</time>
      </trkpt>
      <trkpt lat="47.78075" lon="-3.60919">
        <ele>27</ele>
        <time>2018-07-18T09:58:46Z</time>
      </trkpt>
      <trkpt lat="47.78077" lon="-3.6092">
        <ele>27</ele>
        <time>2018-07-18T09:58:47Z</time>
      </trkpt>
      <trkpt lat="47.7808" lon="-3.60922">
        <ele>27</ele>
        <time>2018-07-18T09:58:48Z</time>
      </trkpt>
      <trkpt lat="47.78082" lon="-3.60923">
        <ele>27</ele>
        <time>2018-07-18T09:58:49Z</time>
      </trkpt>
      <trkpt lat="47.78085" lon="-3.60924">
        <ele>28</ele>
        <time>2018-07-18T09:58:50Z</time>
      </trkpt>
      <trkpt lat="47.78087" lon="-3.60925">
        <ele>28</ele>
        <time>2018-07-18T09:58:51Z</time>
      </trkpt>
      <trkpt lat="47.7809" lon="-3.60927">
        <ele>28</ele>
        <time>2018-07-18T09:58:52Z</time>
      </trkpt>
      <trkpt lat="47.78092" lon="-3.60927">
        <ele>28</ele>
        <time>2018-07-18T09:58:53Z</time>
      </trkpt>
      <trkpt lat="47.78094" lon="-3.60929">
        <ele>29</ele>
        <time>2018-07-18T09:58:54Z</time>
      </trkpt>
      <trkpt lat="47.78097" lon="-3.60931">
        <ele>29</ele>
        <time>2018-07-18T09:58:55Z</time>
      </trkpt>
      <trkpt lat="47.781" lon="-3.60933">
        <ele>29</ele>
        <time>2018-07-18T09:58:56Z</time>
      </trkpt>
      <trkpt lat="47.78103" lon="-3.60935">
        <ele>30</ele>
        <time>2018-07-18T09:58:57Z</time>
      </trkpt>
      <trkpt lat="47.78106" lon="-3.60935">
        <ele>30</ele>
        <time>2018-07-18T09:58:58Z</time>
      </trkpt>
      <trkpt lat="47.78108" lon="-3.60937">
        <ele>30</ele>
        <time>2018-07-18T09:58:59Z</time>
      </trkpt>
      <trkpt lat="47.78111" lon="-3.60938">
        <ele>31</ele>
        <time>2018-07-18T09:59:00Z</time>
      </trkpt>
      <trkpt lat="47.78113" lon="-3.60939">
        <ele>31</ele>
        <time>2018-07-18T09:59:01Z</time>
      </trkpt>
      <trkpt lat="47.78115" lon="-3.6094">
        <ele>31</ele>
        <time>2018-07-18T09:59:02Z</time>
      </trkpt>
      <trkpt lat="47.78118" lon="-3.60941">
        <ele>32</ele>
        <time>2018-07-18T09:59:03Z</time>
      </trkpt>
      <trkpt lat="47.78121" lon="-3.60942">
        <ele>32</ele>
        <time>2018-07-18T09:59:04Z</time>
      </trkpt>
      <trkpt lat="47.78124" lon="-3.60943">
        <ele>32</ele>
        <time>2018-07-18T09:59:05Z</time>
      </trkpt>
      <trkpt lat="47.78127" lon="-3.60944">
        <ele>33</ele>
        <time>2018-07-18T09:59:06Z</time>
      </trkpt>
      <trkpt lat="47.78131" lon="-3.60946">
        <ele>33</ele>
        <time>2018-07-18T09:59:07Z</time>
      </trkpt>
      <trkpt lat="47.78135" lon="-3.60947">
        <ele>33</ele>
        <time>2018-07-18T09:59:08Z</time>
      </trkpt>
      <trkpt lat="47.78139" lon="-3.60948">
        <ele>34</ele>
        <time>2018-07-18T09:59:09Z</time>
      </trkpt>
      <trkpt lat="47.78142" lon="-3.6095">
        <ele>34</ele>
        <time>2018-07-18T09:59:10Z</time>
      </trkpt>
      <trkpt lat="47.78146" lon="-3.60951">
        <ele>35</ele>
        <time>2018-07-18T09:59:11Z</time>
      </trkpt>
      <trkpt lat="47.78149" lon="-3.60952">
        <ele>35</ele>
        <time>2018-07-18T09:59:12Z</time>
      </trkpt>
      <trkpt lat="47.78152" lon="-3.60954">
        <ele>36</ele>
        <time>2018-07-18T09:59:13Z</time>
      </trkpt>
      <trkpt lat="47.78156" lon="-3.60955">
        <ele>36</ele>
        <time>2018-07-18T09:59:14Z</time>
      </trkpt>
      <trkpt lat="47.78159" lon="-3.60957">
        <ele>37</ele>
        <time>2018-07-18T09:59:15Z</time>
      </trkpt>
      <trkpt lat="47.78162" lon="-3.60958">
        <ele>37</ele>
        <time>2018-07-18T09:59:16Z</time>
      </trkpt>
      <trkpt lat="47.78166" lon="-3.60959">
        <ele>38</ele>
        <time>2018-07-18T09:59:17Z</time>
      </trkpt>
      <trkpt lat="47.78169" lon="-3.60961">
        <ele>38</ele>
        <time>2018-07-18T09:59:18Z</time>
      </trkpt>
      <trkpt lat="47.78173" lon="-3.60962">
        <ele>38</ele>
        <time>2018-07-18T09:59:19Z</time>
      </trkpt>
      <trkpt lat="47.78176" lon="-3.60963">
        <ele>39</ele>
        <time>2018-07-18T09:59:20Z</time>
      </trkpt>
      <trkpt lat="47.78179" lon="-3.60964">
        <ele>39</ele>
        <time>2018-07-18T09:59:21Z</time>
      </trkpt>
      <trkpt lat="47.78183" lon="-3.60966">
        <ele>39</ele>
        <time>2018-07-18T09:59:22Z</time>
      </trkpt>
      <trkpt lat="47.78186" lon="-3.60967">
        <ele>39</ele>
        <time>2018-07-18T09:59:23Z</time>
      </trkpt>
      <trkpt lat="47.78189" lon="-3.60969">
        <ele>40</ele>
        <time>2018-07-18T09:59:24Z</time>
      </trkpt>
      <trkpt lat="47.78193" lon="-3.6097">
        <ele>40</ele>
        <time>2018-07-18T09:59:25Z</time>
      </trkpt>
      <trkpt lat="47.78197" lon="-3.6097">
        <ele>40</ele>
        <time>2018-07-18T09:59:26Z</time>
      </trkpt>
      <trkpt lat="47.782" lon="-3.60971">
        <ele>40</ele>
        <time>2018-07-18T09:59:27Z</time>
      </trkpt>
      <trkpt lat="47.78204" lon="-3.60973">
        <ele>40</ele>
        <time>2018-07-18T09:59:28Z</time>
      </trkpt>
      <trkpt lat="47.78208" lon="-3.60974">
        <ele>41</ele>
        <time>2018-07-18T09:59:29Z</time>
      </trkpt>
      <trkpt lat="47.78211" lon="-3.60976">
        <ele>41</ele>
        <time>2018-07-18T09:59:30Z</time>
      </trkpt>
      <trkpt lat="47.78214" lon="-3.60978">
        <ele>41</ele>
        <time>2018-07-18T09:59:31Z</time>
      </trkpt>
      <trkpt lat="47.78218" lon="-3.60979">
        <ele>41</ele>
        <time>2018-07-18T09:59:32Z</time>
      </trkpt>
      <trkpt lat="47.78222" lon="-3.60981">
        <ele>41</ele>
        <time>2018-07-18T09:59:33Z</time>
      </trkpt>
      <trkpt lat="47.78225" lon="-3.60983">
        <ele>41</ele>
        <time>2018-07-18T09:59:34Z</time>
      </trkpt>
      <trkpt lat="47.78229" lon="-3.60984">
        <ele>41</ele>
        <time>2018-07-18T09:59:35Z</time>
      </trkpt>
      <trkpt lat="47.78233" lon="-3.60986">
        <ele>41</ele>
        <time>2018-07-18T09:59:36Z</time>
      </trkpt>
      <trkpt lat="47.78237" lon="-3.60988">
        <ele>41</ele>
        <time>2018-07-18T09:59:37Z</time>
      </trkpt>
      <trkpt lat="47.78241" lon="-3.6099">
        <ele>41</ele>
        <time>2018-07-18T09:59:38Z</time>
      </trkpt>
      <trkpt lat="47.78245" lon="-3.60992">
        <ele>41</ele>
        <time>2018-07-18T09:59:39Z</time>
      </trkpt>
      <trkpt lat="47.78249" lon="-3.60993">
        <ele>41</ele>
        <time>2018-07-18T09:59:40Z</time>
      </trkpt>
      <trkpt lat="47.78253" lon="-3.60994">
        <ele>41</ele>
        <time>2018-07-18T09:59:41Z</time>
      </trkpt>
      <trkpt lat="47.78257" lon="-3.60996">
        <ele>41</ele>
        <time>2018-07-18T09:59:42Z</time>
      </trkpt>
      <trkpt lat="47.78261" lon="-3.60997">
        <ele>41</ele>
        <time>2018-07-18T09:59:43Z</time>
      </trkpt>
      <trkpt lat="47.78265" lon="-3.60999">
        <ele>41</ele>
        <time>2018-07-18T09:59:44Z</time>
      </trkpt>
      <trkpt lat="47.78269" lon="-3.61001">
        <ele>41</ele>
        <time>2018-07-18T09:59:45Z</time>
      </trkpt>
      <trkpt lat="47.78272" lon="-3.61003">
        <ele>41</ele>
        <time>2018-07-18T09:59:46Z</time>
      </trkpt>
      <trkpt lat="47.78276" lon="-3.61005">
        <ele>41</ele>
        <time>2018-07-18T09:59:47Z</time>
      </trkpt>
      <trkpt lat="47.7828" lon="-3.61007">
        <ele>41</ele>
        <time>2018-07-18T09:59:48Z</time>
      </trkpt>
      <trkpt lat="47.78283" lon="-3.61009">
        <ele>41</ele>
        <time>2018-07-18T09:59:49Z</time>
      </trkpt>
      <trkpt lat="47.78286" lon="-3.6101">
        <ele>41</ele>
        <time>2018-07-18T09:59:50Z</time>
      </trkpt>
      <trkpt lat="47.78289" lon="-3.61012">
        <ele>41</ele>
        <time>2018-07-18T09:59:51Z</time>
      </trkpt>
      <trkpt lat="47.78293" lon="-3.61014">
        <ele>41</ele>
        <time>2018-07-18T09:59:52Z</time>
      </trkpt>
      <trkpt lat="47.78296" lon="-3.61016">
        <ele>41</ele>
        <time>2018-07-18T09:59:53Z</time>
      </trkpt>
      <trkpt lat="47.783" lon="-3.61017">
        <ele>41</ele>
        <time>2018-07-18T09:59:54Z</time>
      </trkpt>
      <trkpt lat="47.78303" lon="-3.61019">
        <ele>41</ele>
        <time>2018-07-18T09:59:55Z</time>
      </trkpt>
      <trkpt lat="47.78307" lon="-3.61021">
        <ele>41</ele>
        <time>2018-07-18T09:59:56Z</time>
      </trkpt>
      <trkpt lat="47.78311" lon="-3.61023">
        <ele>41</ele>
        <time>2018-07-18T09:59:57Z</time>
      </trkpt>
      <trkpt lat="47.78315" lon="-3.61025">
        <ele>41</ele>
        <time>2018-07-18T09:59:58Z</time>
      </trkpt>
      <trkpt lat="47.78318" lon="-3.61026">
        <ele>41</ele>
        <time>2018-07-18T09:59:59Z</time>
      </trkpt>
      <trkpt lat="47.78322" lon="-3.61028">
        <ele>41</ele>
        <time>2018-07-18T10:00:00Z</time>
      </trkpt>
      <trkpt lat="47.78326" lon="-3.6103">
        <ele>41</ele>
        <time>2018-07-18T10:00:01Z</time>
      </trkpt>
      <trkpt lat="47.78329" lon="-3.61032">
        <ele>41</ele>
        <time>2018-07-18T10:00:02Z</time>
      </trkpt>
      <trkpt lat="47.78333" lon="-3.61034">
        <ele>41</ele>
        <time>2018-07-18T10:00:03Z</time>
      </trkpt>
      <trkpt lat="47.78337" lon="-3.61036">
        <ele>42</ele>
        <time>2018-07-18T10:00:04Z</time>
      </trkpt>
      <trkpt lat="47.7834" lon="-3.61038">
        <ele>42</ele>
        <time>2018-07-18T10:00:05Z</time>
      </trkpt>
      <trkpt lat="47.78344" lon="-3.6104">
        <ele>42</ele>
        <time>2018-07-18T10:00:06Z</time>
      </trkpt>
      <trkpt lat="47.78348" lon="-3.61043">
        <ele>42</ele>
        <time>2018-07-18T10:00:07Z</time>
      </trkpt>
      <trkpt lat="47.78351" lon="-3.61045">
        <ele>42</ele>
        <time>2018-07-18T10:00:08Z</time>
      </trkpt>
      <trkpt lat="47.78355" lon="-3.61047">
        <ele>42</ele>
        <time>2018-07-18T10:00:09Z</time>
      </trkpt>
      <trkpt lat="47.78359" lon="-3.61049">
        <ele>42</ele>
        <time>2018-07-18T10:00:10Z</time>
      </trkpt>
      <trkpt lat="47.78363" lon="-3.61051">
        <ele>42</ele>
        <time>2018-07-18T10:00:11Z</time>
      </trkpt>
      <trkpt lat="47.78367" lon="-3.61053">
        <ele>42</ele>
        <time>2018-07-18T10:00:12Z</time>
      </trkpt>
      <trkpt lat="47.78371" lon="-3.61055">
        <ele>42</ele>
        <time>2018-07-18T10:00:13Z</time>
      </trkpt>
      <trkpt lat="47.78375" lon="-3.61058">
        <ele>42</ele>
        <time>2018-07-18T10:00:14Z</time>
      </trkpt>
      <trkpt lat="47.78379" lon="-3.61059">
        <ele>42</ele>
        <time>2018-07-18T10:00:15Z</time>
      </trkpt>
      <trkpt lat="47.78383" lon="-3.61062">
        <ele>42</ele>
        <time>2018-07-18T10:00:16Z</time>
      </trkpt>
      <trkpt lat="47.78387" lon="-3.61064">
        <ele>42</ele>
        <time>2018-07-18T10:00:17Z</time>
      </trkpt>
      <trkpt lat="47.78392" lon="-3.61065">
        <ele>42</ele>
        <time>2018-07-18T10:00:18Z</time>
      </trkpt>
      <trkpt lat="47.78396" lon="-3.61067">
        <ele>42</ele>
        <time>2018-07-18T10:00:19Z</time>
      </trkpt>
      <trkpt lat="47.784" lon="-3.61069">
        <ele>42</ele>
        <time>2018-07-18T10:00:20Z</time>
      </trkpt>
      <trkpt lat="47.78402" lon="-3.61071">
        <ele>42</ele>
        <time>2018-07-18T10:00:21Z</time>
      </trkpt>
      <trkpt lat="47.78404" lon="-3.61071">
        <ele>42</ele>
        <time>2018-07-18T10:00:22Z</time>
      </trkpt>
      <trkpt lat="47.78404" lon="-3.61071">
        <ele>42</ele>
        <time>2018-07-18T10:00:23Z</time>
      </trkpt>
      <trkpt lat="47.78405" lon="-3.61072">
        <ele>42</ele>
        <time>2018-07-18T10:00:24Z</time>
      </trkpt>
      <trkpt lat="47.78405" lon="-3.61072">
        <ele>42</ele>
        <time>2018-07-18T10:00:25Z</time>
      </trkpt>
      <trkpt lat="47.78405" lon="-3.61072">
        <ele>42</ele>
        <time>2018-07-18T10:00:26Z</time>
      </trkpt>
      <trkpt lat="47.78406" lon="-3.61072">
        <ele>42</ele>
        <time>2018-07-18T10:00:27Z</time>
      </trkpt>
      <trkpt lat="47.78408" lon="-3.61074">
        <ele>42</ele>
        <time>2018-07-18T10:00:28Z</time>
      </trkpt>
      <trkpt lat="47.7841" lon="-3.61075">
        <ele>42</ele>
        <time>2018-07-18T10:00:29Z</time>
      </trkpt>
      <trkpt lat="47.78413" lon="-3.61077">
        <ele>42</ele>
        <time>2018-07-18T10:00:30Z</time>
      </trkpt>
      <trkpt lat="47.78416" lon="-3.61079">
        <ele>42</ele>
        <time>2018-07-18T10:00:31Z</time>
      </trkpt>
      <trkpt lat="47.78419" lon="-3.61082">
        <ele>42</ele>
        <time>2018-07-18T10:00:32Z</time>
      </trkpt>
      <trkpt lat="47.78422" lon="-3.61084">
        <ele>42</ele>
        <time>2018-07-18T10:00:33Z</time>
      </trkpt>
      <trkpt lat="47.78426" lon="-3.61087">
        <ele>42</ele>
        <time>2018-07-18T10:00:34Z</time>
      </trkpt>
      <trkpt lat="47.78429" lon="-3.61089">
        <ele>42</ele>
        <time>2018-07-18T10:00:35Z</time>
      </trkpt>
      <trkpt lat="47.78432" lon="-3.61091">
        <ele>42</ele>
        <time>2018-07-18T10:00:36Z</time>
      </trkpt>
      <trkpt lat="47.78436" lon="-3.61092">
        <ele>42</ele>
        <time>2018-07-18T10:00:37Z</time>
      </trkpt>
      <trkpt lat="47.78441" lon="-3.61091">
        <ele>42</ele>
        <time>2018-07-18T10:00:38Z</time>
      </trkpt>
      <trkpt lat="47.78445" lon="-3.61091">
        <ele>42</ele>
        <time>2018-07-18T10:00:39Z</time>
      </trkpt>
      <trkpt lat="47.78449" lon="-3.6109">
        <ele>42</ele>
        <time>2018-07-18T10:00:40Z</time>
      </trkpt>
      <trkpt lat="47.78453" lon="-3.61089">
        <ele>42</ele>
        <time>2018-07-18T10:00:41Z</time>
      </trkpt>
      <trkpt lat="47.78457" lon="-3.61089">
        <ele>42</ele>
        <time>2018-07-18T10:00:42Z</time>
      </trkpt>
      <trkpt lat="47.78462" lon="-3.61087">
        <ele>42</ele>
        <time>2018-07-18T10:00:43Z</time>
      </trkpt>
      <trkpt lat="47.78465" lon="-3.61086">
        <ele>42</ele>
        <time>2018-07-18T10:00:44Z</time>
      </trkpt>
      <trkpt lat="47.7847" lon="-3.61087">
        <ele>42</ele>
        <time>2018-07-18T10:00:45Z</time>
      </trkpt>
      <trkpt lat="47.78474" lon="-3.61086">
        <ele>42</ele>
        <time>2018-07-18T10:00:46Z</time>
      </trkpt>
      <trkpt lat="47.78478" lon="-3.61086">
        <ele>42</ele>
        <time>2018-07-18T10:00:47Z</time>
      </trkpt>
      <trkpt lat="47.78482" lon="-3.61085">
        <ele>43</ele>
        <time>2018-07-18T10:00:48Z</time>
      </trkpt>
      <trkpt lat="47.78486" lon="-3.61085">
        <ele>42</ele>
        <time>2018-07-18T10:00:49Z</time>
      </trkpt>
      <trkpt lat="47.78491" lon="-3.61084">
        <ele>42</ele>
        <time>2018-07-18T10:00:50Z</time>
      </trkpt>
      <trkpt lat="47.78496" lon="-3.61084">
        <ele>42</ele>
        <time>2018-07-18T10:00:51Z</time>
      </trkpt>
      <trkpt lat="47.78501" lon="-3.61082">
        <ele>42</ele>
        <time>2018-07-18T10:00:52Z</time>
      </trkpt>
      <trkpt lat="47.78505" lon="-3.61082">
        <ele>42</ele>
        <time>2018-07-18T10:00:53Z</time>
      </trkpt>
      <trkpt lat="47.78511" lon="-3.61081">
        <ele>42</ele>
        <time>2018-07-18T10:00:54Z</time>
      </trkpt>
      <trkpt lat="47.78516" lon="-3.6108">
        <ele>42</ele>
        <time>2018-07-18T10:00:55Z</time>
      </trkpt>
      <trkpt lat="47.78521" lon="-3.61079">
        <ele>42</ele>
        <time>2018-07-18T10:00:56Z</time>
      </trkpt>
      <trkpt lat="47.78526" lon="-3.61077">
        <ele>42</ele>
        <time>2018-07-18T10:00:57Z</time>
      </trkpt>
      <trkpt lat="47.78531" lon="-3.61076">
        <ele>42</ele>
        <time>2018-07-18T10:00:58Z</time>
      </trkpt>
      <trkpt lat="47.78537" lon="-3.61074">
        <ele>41</ele>
        <time>2018-07-18T10:00:59Z</time>
      </trkpt>
      <trkpt lat="47.78542" lon="-3.61072">
        <ele>41</ele>
        <time>2018-07-18T10:01:00Z</time>
      </trkpt>
      <trkpt lat="47.78548" lon="-3.6107">
        <ele>41</ele>
        <time>2018-07-18T10:01:01Z</time>
      </trkpt>
      <trkpt lat="47.78553" lon="-3.61068">
        <ele>41</ele>
        <time>2018-07-18T10:01:02Z</time>
      </trkpt>
      <trkpt lat="47.78559" lon="-3.61066">
        <ele>41</ele>
        <time>2018-07-18T10:01:03Z</time>
      </trkpt>
      <trkpt lat="47.78565" lon="-3.61064">
        <ele>40</ele>
        <time>2018-07-18T10:01:04Z</time>
      </trkpt>
      <trkpt lat="47.78571" lon="-3.61061">
        <ele>40</ele>
        <time>2018-07-18T10:01:05Z</time>
      </trkpt>
      <trkpt lat="47.78577" lon="-3.61059">
        <ele>40</ele>
        <time>2018-07-18T10:01:06Z</time>
      </trkpt>
      <trkpt lat="47.78583" lon="-3.61056">
        <ele>40</ele>
        <time>2018-07-18T10:01:07Z</time>
      </trkpt>
      <trkpt lat="47.78589" lon="-3.61054">
        <ele>39</ele>
        <time>2018-07-18T10:01:08Z</time>
      </trkpt>
      <trkpt lat="47.78595" lon="-3.61052">
        <ele>39</ele>
        <time>2018-07-18T10:01:09Z</time>
      </trkpt>
      <trkpt lat="47.78601" lon="-3.6105">
        <ele>39</ele>
        <time>2018-07-18T10:01:10Z</time>
      </trkpt>
      <trkpt lat="47.78608" lon="-3.61048">
        <ele>39</ele>
        <time>2018-07-18T10:01:11Z</time>
      </trkpt>
      <trkpt lat="47.78614" lon="-3.61046">
        <ele>39</ele>
        <time>2018-07-18T10:01:12Z</time>
      </trkpt>
      <trkpt lat="47.7862" lon="-3.61043">
        <ele>38</ele>
        <time>2018-07-18T10:01:13Z</time>
      </trkpt>
      <trkpt lat="47.78626" lon="-3.61041">
        <ele>38</ele>
        <time>2018-07-18T10:01:14Z</time>
      </trkpt>
      <trkpt lat="47.78632" lon="-3.61038">
        <ele>38</ele>
        <time>2018-07-18T10:01:15Z</time>
      </trkpt>
      <trkpt lat="47.78639" lon="-3.61035">
        <ele>38</ele>
        <time>2018-07-18T10:01:16Z</time>
      </trkpt>
      <trkpt lat="47.78645" lon="-3.61032">
        <ele>38</ele>
        <time>2018-07-18T10:01:17Z</time>
      </trkpt>
      <trkpt lat="47.78651" lon="-3.61029">
        <ele>38</ele>
        <time>2018-07-18T10:01:18Z</time>
      </trkpt>
      <trkpt lat="47.78657" lon="-3.61026">
        <ele>37</ele>
        <time>2018-07-18T10:01:19Z</time>
      </trkpt>
      <trkpt lat="47.78664" lon="-3.61022">
        <ele>37</ele>
        <time>2018-07-18T10:01:20Z</time>
      </trkpt>
      <trkpt lat="47.78669" lon="-3.61018">
        <ele>37</ele>
        <time>2018-07-18T10:01:21Z</time>
      </trkpt>
      <trkpt lat="47.78676" lon="-3.61015">
        <ele>37</ele>
        <time>2018-07-18T10:01:22Z</time>
      </trkpt>
      <trkpt lat="47.78682" lon="-3.61011">
        <ele>37</ele>
        <time>2018-07-18T10:01:23Z</time>
      </trkpt>
      <trkpt lat="47.78688" lon="-3.61007">
        <ele>37</ele>
        <time>2018-07-18T10:01:24Z</time>
      </trkpt>
      <trkpt lat="47.78693" lon="-3.61004">
        <ele>37</ele>
        <time>2018-07-18T10:01:25Z</time>
      </trkpt>
      <trkpt lat="47.78699" lon="-3.61">
        <ele>37</ele>
        <time>2018-07-18T10:01:26Z</time>
      </trkpt>
      <trkpt lat="47.78703" lon="-3.60997">
        <ele>37</ele>
        <time>2018-07-18T10:01:27Z</time>
      </trkpt>
      <trkpt lat="47.78706" lon="-3.60995">
        <ele>37</ele>
        <time>2018-07-18T10:01:28Z</time>
      </trkpt>
      <trkpt lat="47.78708" lon="-3.60994">
        <ele>37</ele>
        <time>2018-07-18T10:01:29Z</time>
      </trkpt>
      <trkpt lat="47.7871" lon="-3.60993">
        <ele>37</ele>
        <time>2018-07-18T10:01:30Z</time>
      </trkpt>
      <trkpt lat="47.78711" lon="-3.60991">
        <ele>37</ele>
        <time>2018-07-18T10:01:31Z</time>
      </trkpt>
      <trkpt lat="47.78712" lon="-3.6099">
        <ele>37</ele>
        <time>2018-07-18T10:01:32Z</time>
      </trkpt>
      <trkpt lat="47.78714" lon="-3.60989">
        <ele>37</ele>
        <time>2018-07-18T10:01:33Z</time>
      </trkpt>
      <trkpt lat="47.78715" lon="-3.60989">
        <ele>37</ele>
        <time>2018-07-18T10:01:34Z</time>
      </trkpt>
      <trkpt lat="47.78716" lon="-3.60991">
        <ele>37</ele>
        <time>2018-07-18T10:01:35Z</time>
      </trkpt>
      <trkpt lat="47.78716" lon="-3.60994">
        <ele>37</ele>
        <time>2018-07-18T10:01:36Z</time>
      </trkpt>
      <trkpt lat="47.78714" lon="-3.60996">
        <ele>37</ele>
        <time>2018-07-18T10:01:37Z</time>
      </trkpt>
      <trkpt lat="47.78712" lon="-3.60999">
        <ele>37</ele>
        <time>2018-07-18T10:01:38Z</time>
      </trkpt>
      <trkpt lat="47.78712" lon="-3.61004">
        <ele>37</ele>
        <time>2018-07-18T10:01:39Z</time>
      </trkpt>
      <trkpt lat="47.78712" lon="-3.61008">
        <ele>37</ele>
        <time>2018-07-18T10:01:40Z</time>
      </trkpt>
      <trkpt lat="47.78713" lon="-3.61012">
        <ele>37</ele>
        <time>2018-07-18T10:01:41Z</time>
      </trkpt>
      <trkpt lat="47.78714" lon="-3.61017">
        <ele>37</ele>
        <time>2018-07-18T10:01:42Z</time>
      </trkpt>
      <trkpt lat="47.78714" lon="-3.61022">
        <ele>37</ele>
        <time>2018-07-18T10:01:43Z</time>
      </trkpt>
      <trkpt lat="47.78715" lon="-3.61026">
        <ele>37</ele>
        <time>2018-07-18T10:01:44Z</time>
      </trkpt>
      <trkpt lat="47.78715" lon="-3.61031">
        <ele>37</ele>
        <time>2018-07-18T10:01:45Z</time>
      </trkpt>
      <trkpt lat="47.78716" lon="-3.61035">
        <ele>37</ele>
        <time>2018-07-18T10:01:46Z</time>
      </trkpt>
      <trkpt lat="47.78716" lon="-3.61039">
        <ele>37</ele>
        <time>2018-07-18T10:01:47Z</time>
      </trkpt>
      <trkpt lat="47.78717" lon="-3.61043">
        <ele>37</ele>
        <time>2018-07-18T10:01:48Z</time>
      </trkpt>
      <trkpt lat="47.78717" lon="-3.61048">
        <ele>37</ele>
        <time>2018-07-18T10:01:49Z</time>
      </trkpt>
      <trkpt lat="47.78718" lon="-3.61053">
        <ele>37</ele>
        <time>2018-07-18T10:01:50Z</time>
      </trkpt>
      <trkpt lat="47.78718" lon="-3.61059">
        <ele>37</ele>
        <time>2018-07-18T10:01:51Z</time>
      </trkpt>
      <trkpt lat="47.78719" lon="-3.61065">
        <ele>37</ele>
        <time>2018-07-18T10:01:52Z</time>
      </trkpt>
      <trkpt lat="47.78719" lon="-3.61071">
        <ele>37</ele>
        <time>2018-07-18T10:01:53Z</time>
      </trkpt>
      <trkpt lat="47.7872" lon="-3.61078">
        <ele>37</ele>
        <time>2018-07-18T10:01:54Z</time>
      </trkpt>
      <trkpt lat="47.7872" lon="-3.61085">
        <ele>37</ele>
        <time>2018-07-18T10:01:55Z</time>
      </trkpt>
      <trkpt lat="47.78721" lon="-3.61092">
        <ele>37</ele>
        <time>2018-07-18T10:01:56Z</time>
      </trkpt>
      <trkpt lat="47.78721" lon="-3.61099">
        <ele>37</ele>
        <time>2018-07-18T10:01:57Z</time>
      </trkpt>
      <trkpt lat="47.78722" lon="-3.61107">
        <ele>37</ele>
        <time>2018-07-18T10:01:58Z</time>
      </trkpt>
      <trkpt lat="47.78723" lon="-3.61114">
        <ele>37</ele>
        <time>2018-07-18T10:01:59Z</time>
      </trkpt>
      <trkpt lat="47.78724" lon="-3.61122">
        <ele>36</ele>
        <time>2018-07-18T10:02:00Z</time>
      </trkpt>
      <trkpt lat="47.78724" lon="-3.6113">
        <ele>36</ele>
        <time>2018-07-18T10:02:01Z</time>
      </trkpt>
      <trkpt lat="47.78725" lon="-3.61137">
        <ele>36</ele>
        <time>2018-07-18T10:02:02Z</time>
      </trkpt>
      <trkpt lat="47.78725" lon="-3.61145">
        <ele>36</ele>
        <time>2018-07-18T10:02:03Z</time>
      </trkpt>
      <trkpt lat="47.78726" lon="-3.61153">
        <ele>36</ele>
        <time>2018-07-18T10:02:04Z</time>
      </trkpt>
      <trkpt lat="47.78726" lon="-3.61161">
        <ele>36</ele>
        <time>2018-07-18T10:02:05Z</time>
      </trkpt>
      <trkpt lat="47.78727" lon="-3.61169">
        <ele>35</ele>
        <time>2018-07-18T10:02:06Z</time>
      </trkpt>
      <trkpt lat="47.78727" lon="-3.61177">
        <ele>35</ele>
        <time>2018-07-18T10:02:07Z</time>
      </trkpt>
      <trkpt lat="47.78728" lon="-3.61186">
        <ele>35</ele>
        <time>2018-07-18T10:02:08Z</time>
      </trkpt>
      <trkpt lat="47.78728" lon="-3.61195">
        <ele>35</ele>
        <time>2018-07-18T10:02:09Z</time>
      </trkpt>
      <trkpt lat="47.78729" lon="-3.61204">
        <ele>35</ele>
        <time>2018-07-18T10:02:10Z</time>
      </trkpt>
      <trkpt lat="47.7873" lon="-3.61213">
        <ele>34</ele>
        <time>2018-07-18T10:02:11Z</time>
      </trkpt>
      <trkpt lat="47.7873" lon="-3.61222">
        <ele>34</ele>
        <time>2018-07-18T10:02:12Z</time>
      </trkpt>
      <trkpt lat="47.78731" lon="-3.61232">
        <ele>34</ele>
        <time>2018-07-18T10:02:13Z</time>
      </trkpt>
      <trkpt lat="47.78731" lon="-3.61241">
        <ele>34</ele>
        <time>2018-07-18T10:02:14Z</time>
      </trkpt>
      <trkpt lat="47.78732" lon="-3.6125">
        <ele>34</ele>
        <time>2018-07-18T10:02:15Z</time>
      </trkpt>
      <trkpt lat="47.78733" lon="-3.61259">
        <ele>33</ele>
        <time>2018-07-18T10:02:16Z</time>
      </trkpt>
      <trkpt lat="47.78733" lon="-3.61267">
        <ele>33</ele>
        <time>2018-07-18T10:02:17Z</time>
      </trkpt>
      <trkpt lat="47.78734" lon="-3.61275">
        <ele>33</ele>
        <time>2018-07-18T10:02:18Z</time>
      </trkpt>
      <trkpt lat="47.78734" lon="-3.61284">
        <ele>33</ele>
        <time>2018-07-18T10:02:19Z</time>
      </trkpt>
      <trkpt lat="47.78734" lon="-3.61292">
        <ele>33</ele>
        <time>2018-07-18T10:02:20Z</time>
      </trkpt>
      <trkpt lat="47.78735" lon="-3.61299">
        <ele>33</ele>
        <time>2018-07-18T10:02:21Z</time>
      </trkpt>
      <trkpt lat="47.78735" lon="-3.61307">
        <ele>33</ele>
        <time>2018-07-18T10:02:22Z</time>
      </trkpt>
      <trkpt lat="47.78736" lon="-3.61314">
        <ele>33</ele>
        <time>2018-07-18T10:02:23Z</time>
      </trkpt>
      <trkpt lat="47.78737" lon="-3.61322">
        <ele>33</ele>
        <time>2018-07-18T10:02:24Z</time>
      </trkpt>
      <trkpt lat="47.78738" lon="-3.61329">
        <ele>33</ele>
        <time>2018-07-18T10:02:25Z</time>
      </trkpt>
      <trkpt lat="47.78739" lon="-3.61336">
        <ele>33</ele>
        <time>2018-07-18T10:02:26Z</time>
      </trkpt>
      <trkpt lat="47.7874" lon="-3.61343">
        <ele>33</ele>
        <time>2018-07-18T10:02:27Z</time>
      </trkpt>
      <trkpt lat="47.7874" lon="-3.61349">
        <ele>33</ele>
        <time>2018-07-18T10:02:28Z</time>
      </trkpt>
      <trkpt lat="47.78741" lon="-3.61356">
        <ele>33</ele>
        <time>2018-07-18T10:02:29Z</time>
      </trkpt>
      <trkpt lat="47.78741" lon="-3.61362">
        <ele>33</ele>
        <time>2018-07-18T10:02:30Z</time>
      </trkpt>
      <trkpt lat="47.78742" lon="-3.61369">
        <ele>33</ele>
        <time>2018-07-18T10:02:31Z</time>
      </trkpt>
      <trkpt lat="47.78743" lon="-3.61375">
        <ele>33</ele>
        <time>2018-07-18T10:02:32Z</time>
      </trkpt>
      <trkpt lat="47.78744" lon="-3.6138">
        <ele>33</ele>
        <time>2018-07-18T10:02:33Z</time>
      </trkpt>
      <trkpt lat="47.78744" lon="-3.61387">
        <ele>32</ele>
        <time>2018-07-18T10:02:34Z</time>
      </trkpt>
      <trkpt lat="47.78745" lon="-3.61393">
        <ele>32</ele>
        <time>2018-07-18T10:02:35Z</time>
      </trkpt>
      <trkpt lat="47.78746" lon="-3.614">
        <ele>32</ele>
        <time>2018-07-18T10:02:36Z</time>
      </trkpt>
      <trkpt lat="47.78747" lon="-3.61407">
        <ele>32</ele>
        <time>2018-07-18T10:02:37Z</time>
      </trkpt>
      <trkpt lat="47.78748" lon="-3.61413">
        <ele>32</ele>
        <time>2018-07-18T10:02:38Z</time>
      </trkpt>
      <trkpt lat="47.7875" lon="-3.61419">
        <ele>32</ele>
        <time>2018-07-18T10:02:39Z</time>
      </trkpt>
      <trkpt lat="47.78753" lon="-3.61423">
        <ele>32</ele>
        <time>2018-07-18T10:02:40Z</time>
      </trkpt>
      <trkpt lat="47.78757" lon="-3.61425">
        <ele>32</ele>
        <time>2018-07-18T10:02:41Z</time>
      </trkpt>
      <trkpt lat="47.7876" lon="-3.61427">
        <ele>32</ele>
        <time>2018-07-18T10:02:42Z</time>
      </trkpt>
      <trkpt lat="47.78764" lon="-3.6143">
        <ele>32</ele>
        <time>2018-07-18T10:02:43Z</time>
      </trkpt>
      <trkpt lat="47.78767" lon="-3.61432">
        <ele>32</ele>
        <time>2018-07-18T10:02:44Z</time>
      </trkpt>
      <trkpt lat="47.78771" lon="-3.61434">
        <ele>31</ele>
        <time>2018-07-18T10:02:45Z</time>
      </trkpt>
      <trkpt lat="47.78775" lon="-3.61434">
        <ele>31</ele>
        <time>2018-07-18T10:02:46Z</time>
      </trkpt>
      <trkpt lat="47.78779" lon="-3.61435">
        <ele>31</ele>
        <time>2018-07-18T10:02:47Z</time>
      </trkpt>
      <trkpt lat="47.78783" lon="-3.61435">
        <ele>31</ele>
        <time>2018-07-18T10:02:48Z</time>
      </trkpt>
      <trkpt lat="47.78786" lon="-3.61436">
        <ele>31</ele>
        <time>2018-07-18T10:02:49Z</time>
      </trkpt>
      <trkpt lat="47.78789" lon="-3.61437">
        <ele>31</ele>
        <time>2018-07-18T10:02:50Z</time>
      </trkpt>
      <trkpt lat="47.78793" lon="-3.61438">
        <ele>31</ele>
        <time>2018-07-18T10:02:51Z</time>
      </trkpt>
      <trkpt lat="47.78796" lon="-3.61439">
        <ele>31</ele>
        <time>2018-07-18T10:02:52Z</time>
      </trkpt>
      <trkpt lat="47.78799" lon="-3.6144">
        <ele>31</ele>
        <time>2018-07-18T10:02:53Z</time>
      </trkpt>
      <trkpt lat="47.78802" lon="-3.61442">
        <ele>31</ele>
        <time>2018-07-18T10:02:54Z</time>
      </trkpt>
      <trkpt lat="47.78806" lon="-3.61442">
        <ele>31</ele>
        <time>2018-07-18T10:02:55Z</time>
      </trkpt>
      <trkpt lat="47.78809" lon="-3.61442">
        <ele>31</ele>
        <time>2018-07-18T10:02:56Z</time>
      </trkpt>
      <trkpt lat="47.78812" lon="-3.61442">
        <ele>31</ele>
        <time>2018-07-18T10:02:57Z</time>
      </trkpt>
      <trkpt lat="47.78815" lon="-3.61443">
        <ele>31</ele>
        <time>2018-07-18T10:02:58Z</time>
      </trkpt>
      <trkpt lat="47.78819" lon="-3.61444">
        <ele>31</ele>
        <time>2018-07-18T10:02:59Z</time>
      </trkpt>
      <trkpt lat="47.78822" lon="-3.61446">
        <ele>31</ele>
        <time>2018-07-18T10:03:00Z</time>
      </trkpt>
      <trkpt lat="47.78826" lon="-3.61447">
        <ele>31</ele>
        <time>2018-07-18T10:03:01Z</time>
      </trkpt>
      <trkpt lat="47.7883" lon="-3.61449">
        <ele>31</ele>
        <time>2018-07-18T10:03:02Z</time>
      </trkpt>
      <trkpt lat="47.78834" lon="-3.6145">
        <ele>31</ele>
        <time>2018-07-18T10:03:03Z</time>
      </trkpt>
      <trkpt lat="47.78837" lon="-3.61452">
        <ele>31</ele>
        <time>2018-07-18T10:03:04Z</time>
      </trkpt>
      <trkpt lat="47.78841" lon="-3.61453">
        <ele>31</ele>
        <time>2018-07-18T10:03:05Z</time>
      </trkpt>
      <trkpt lat="47.78845" lon="-3.61454">
        <ele>31</ele>
        <time>2018-07-18T10:03:06Z</time>
      </trkpt>
      <trkpt lat="47.78848" lon="-3.61456">
        <ele>31</ele>
        <time>2018-07-18T10:03:07Z</time>
      </trkpt>
      <trkpt lat="47.78852" lon="-3.61457">
        <ele>31</ele>
        <time>2018-07-18T10:03:08Z</time>
      </trkpt>
      <trkpt lat="47.78856" lon="-3.61458">
        <ele>31</ele>
        <time>2018-07-18T10:03:09Z</time>
      </trkpt>
      <trkpt lat="47.78859" lon="-3.61459">
        <ele>31</ele>
        <time>2018-07-18T10:03:10Z</time>
      </trkpt>
      <trkpt lat="47.78863" lon="-3.61459">
        <ele>31</ele>
        <time>2018-07-18T10:03:11Z</time>
      </trkpt>
      <trkpt lat="47.78867" lon="-3.61458">
        <ele>31</ele>
        <time>2018-07-18T10:03:12Z</time>
      </trkpt>
      <trkpt lat="47.78871" lon="-3.61457">
        <ele>32</ele>
        <time>2018-07-18T10:03:13Z</time>
      </trkpt>
      <trkpt lat="47.78875" lon="-3.61456">
        <ele>32</ele>
        <time>2018-07-18T10:03:14Z</time>
      </trkpt>
      <trkpt lat="47.78879" lon="-3.61456">
        <ele>31</ele>
        <time>2018-07-18T10:03:15Z</time>
      </trkpt>
      <trkpt lat="47.78883" lon="-3.61456">
        <ele>31</ele>
        <time>2018-07-18T10:03:16Z</time>
      </trkpt>
      <trkpt lat="47.78887" lon="-3.61455">
        <ele>31</ele>
        <time>2018-07-18T10:03:17Z</time>
      </trkpt>
      <trkpt lat="47.78892" lon="-3.61455">
        <ele>31</ele>
        <time>2018-07-18T10:03:18Z</time>
      </trkpt>
      <trkpt lat="47.78896" lon="-3.61454">
        <ele>31</ele>
        <time>2018-07-18T10:03:19Z</time>
      </trkpt>
      <trkpt lat="47.789" lon="-3.61453">
        <ele>31</ele>
        <time>2018-07-18T10:03:20Z</time>
      </trkpt>
      <trkpt lat="47.78905" lon="-3.61453">
        <ele>31</ele>
        <time>2018-07-18T10:03:21Z</time>
      </trkpt>
      <trkpt lat="47.78908" lon="-3.61453">
        <ele>31</ele>
        <time>2018-07-18T10:03:22Z</time>
      </trkpt>
      <trkpt lat="47.78913" lon="-3.61451">
        <ele>31</ele>
        <time>2018-07-18T10:03:23Z</time>
      </trkpt>
      <trkpt lat="47.78917" lon="-3.6145">
        <ele>32</ele>
        <time>2018-07-18T10:03:24Z</time>
      </trkpt>
      <trkpt lat="47.78922" lon="-3.61448">
        <ele>32</ele>
        <time>2018-07-18T10:03:25Z</time>
      </trkpt>
      <trkpt lat="47.78927" lon="-3.61445">
        <ele>32</ele>
        <time>2018-07-18T10:03:26Z</time>
      </trkpt>
      <trkpt lat="47.78932" lon="-3.61443">
        <ele>32</ele>
        <time>2018-07-18T10:03:27Z</time>
      </trkpt>
      <trkpt lat="47.78937" lon="-3.6144">
        <ele>32</ele>
        <time>2018-07-18T10:03:28Z</time>
      </trkpt>
      <trkpt lat="47.78942" lon="-3.61437">
        <ele>32</ele>
        <time>2018-07-18T10:03:29Z</time>
      </trkpt>
      <trkpt lat="47.78947" lon="-3.61434">
        <ele>32</ele>
        <time>2018-07-18T10:03:30Z</time>
      </trkpt>
      <trkpt lat="47.78952" lon="-3.61432">
        <ele>32</ele>
        <time>2018-07-18T10:03:31Z</time>
      </trkpt>
      <trkpt lat="47.78956" lon="-3.6143">
        <ele>32</ele>
        <time>2018-07-18T10:03:32Z</time>
      </trkpt>
      <trkpt lat="47.78961" lon="-3.61427">
        <ele>32</ele>
        <time>2018-07-18T10:03:33Z</time>
      </trkpt>
      <trkpt lat="47.78965" lon="-3.61425">
        <ele>32</ele>
        <time>2018-07-18T10:03:34Z</time>
      </trkpt>
      <trkpt lat="47.7897" lon="-3.61423">
        <ele>32</ele>
        <time>2018-07-18T10:03:35Z</time>
      </trkpt>
      <trkpt lat="47.78974" lon="-3.6142">
        <ele>32</ele>
        <time>2018-07-18T10:03:36Z</time>
      </trkpt>
      <trkpt lat="47.78977" lon="-3.61419">
        <ele>32</ele>
        <time>2018-07-18T10:03:37Z</time>
      </trkpt>
      <trkpt lat="47.7898" lon="-3.61417">
        <ele>32</ele>
        <time>2018-07-18T10:03:38Z</time>
      </trkpt>
      <trkpt lat="47.78983" lon="-3.61415">
        <ele>32</ele>
        <time>2018-07-18T10:03:39Z</time>
      </trkpt>
      <trkpt lat="47.78986" lon="-3.61413">
        <ele>32</ele>
        <time>2018-07-18T10:03:40Z</time>
      </trkpt>
      <trkpt lat="47.78989" lon="-3.61413">
        <ele>32</ele>
        <time>2018-07-18T10:03:41Z</time>
      </trkpt>
      <trkpt lat="47.78993" lon="-3.61413">
        <ele>32</ele>
        <time>2018-07-18T10:03:42Z</time>
      </trkpt>
      <trkpt lat="47.78996" lon="-3.61414">
        <ele>32</ele>
        <time>2018-07-18T10:03:43Z</time>
      </trkpt>
      <trkpt lat="47.78997" lon="-3.61416">
        <ele>32</ele>
        <time>2018-07-18T10:03:44Z</time>
      </trkpt>
      <trkpt lat="47.78998" lon="-3.61417">
        <ele>32</ele>
        <time>2018-07-18T10:03:45Z</time>
      </trkpt>
      <trkpt lat="47.79" lon="-3.61419">
        <ele>32</ele>
        <time>2018-07-18T10:03:46Z</time>
      </trkpt>
      <trkpt lat="47.79001" lon="-3.61422">
        <ele>32</ele>
        <time>2018-07-18T10:03:47Z</time>
      </trkpt>
      <trkpt lat="47.79003" lon="-3.61426">
        <ele>33</ele>
        <time>2018-07-18T10:03:48Z</time>
      </trkpt>
      <trkpt lat="47.79006" lon="-3.6143">
        <ele>33</ele>
        <time>2018-07-18T10:03:49Z</time>
      </trkpt>
      <trkpt lat="47.79007" lon="-3.61435">
        <ele>33</ele>
        <time>2018-07-18T10:03:50Z</time>
      </trkpt>
      <trkpt lat="47.79009" lon="-3.61439">
        <ele>33</ele>
        <time>2018-07-18T10:03:51Z</time>
      </trkpt>
      <trkpt lat="47.7901" lon="-3.61443">
        <ele>33</ele>
        <time>2018-07-18T10:03:52Z</time>
      </trkpt>
      <trkpt lat="47.7901" lon="-3.61446">
        <ele>34</ele>
        <time>2018-07-18T10:03:53Z</time>
      </trkpt>
      <trkpt lat="47.79011" lon="-3.61452">
        <ele>34</ele>
        <time>2018-07-18T10:03:54Z</time>
      </trkpt>
      <trkpt lat="47.79013" lon="-3.61458">
        <ele>34</ele>
        <time>2018-07-18T10:03:55Z</time>
      </trkpt>
      <trkpt lat="47.79014" lon="-3.61465">
        <ele>34</ele>
        <time>2018-07-18T10:03:56Z</time>
      </trkpt>
      <trkpt lat="47.79016" lon="-3.61471">
        <ele>34</ele>
        <time>2018-07-18T10:03:57Z</time>
      </trkpt>
      <trkpt lat="47.79017" lon="-3.61477">
        <ele>34</ele>
        <time>2018-07-18T10:03:58Z</time>
      </trkpt>
      <trkpt lat="47.79019" lon="-3.61484">
        <ele>34</ele>
        <time>2018-07-18T10:03:59Z</time>
      </trkpt>
      <trkpt lat="47.7902" lon="-3.61492">
        <ele>34</ele>
        <time>2018-07-18T10:04:00Z</time>
      </trkpt>
      <trkpt lat="47.79021" lon="-3.61499">
        <ele>34</ele>
        <time>2018-07-18T10:04:01Z</time>
      </trkpt>
      <trkpt lat="47.79022" lon="-3.61506">
        <ele>34</ele>
        <time>2018-07-18T10:04:02Z</time>
      </trkpt>
      <trkpt lat="47.79023" lon="-3.61514">
        <ele>34</ele>
        <time>2018-07-18T10:04:03Z</time>
      </trkpt>
      <trkpt lat="47.79023" lon="-3.61522">
        <ele>34</ele>
        <time>2018-07-18T10:04:04Z</time>
      </trkpt>
      <trkpt lat="47.79024" lon="-3.61529">
        <ele>34</ele>
        <time>2018-07-18T10:04:05Z</time>
      </trkpt>
      <trkpt lat="47.79025" lon="-3.61537">
        <ele>34</ele>
        <time>2018-07-18T10:04:06Z</time>
      </trkpt>
      <trkpt lat="47.79025" lon="-3.61545">
        <ele>34</ele>
        <time>2018-07-18T10:04:07Z</time>
      </trkpt>
      <trkpt lat="47.79026" lon="-3.61552">
        <ele>34</ele>
        <time>2018-07-18T10:04:08Z</time>
      </trkpt>
      <trkpt lat="47.79026" lon="-3.6156">
        <ele>34</ele>
        <time>2018-07-18T10:04:09Z</time>
      </trkpt>
      <trkpt lat="47.79026" lon="-3.61568">
        <ele>34</ele>
        <time>2018-07-18T10:04:10Z</time>
      </trkpt>
      <trkpt lat="47.79026" lon="-3.61576">
        <ele>35</ele>
        <time>2018-07-18T10:04:11Z</time>
      </trkpt>
      <trkpt lat="47.79027" lon="-3.61584">
        <ele>35</ele>
        <time>2018-07-18T10:04:12Z</time>
      </trkpt>
      <trkpt lat="47.79028" lon="-3.61591">
        <ele>35</ele>
        <time>2018-07-18T10:04:13Z</time>
      </trkpt>
      <trkpt lat="47.79028" lon="-3.61598">
        <ele>35</ele>
        <time>2018-07-18T10:04:14Z</time>
      </trkpt>
      <trkpt lat="47.79029" lon="-3.61604">
        <ele>35</ele>
        <time>2018-07-18T10:04:15Z</time>
      </trkpt>
      <trkpt lat="47.7903" lon="-3.6161">
        <ele>35</ele>
        <time>2018-07-18T10:04:16Z</time>
      </trkpt>
      <trkpt lat="47.7903" lon="-3.61617">
        <ele>35</ele>
        <time>2018-07-18T10:04:17Z</time>
      </trkpt>
      <trkpt lat="47.79031" lon="-3.61623">
        <ele>36</ele>
        <time>2018-07-18T10:04:18Z</time>
      </trkpt>
      <trkpt lat="47.79032" lon="-3.6163">
        <ele>36</ele>
        <time>2018-07-18T10:04:19Z</time>
      </trkpt>
      <trkpt lat="47.79033" lon="-3.61636">
        <ele>36</ele>
        <time>2018-07-18T10:04:20Z</time>
      </trkpt>
      <trkpt lat="47.79034" lon="-3.61643">
        <ele>36</ele>
        <time>2018-07-18T10:04:21Z</time>
      </trkpt>
      <trkpt lat="47.79035" lon="-3.6165">
        <ele>36</ele>
        <time>2018-07-18T10:04:22Z</time>
      </trkpt>
      <trkpt lat="47.79035" lon="-3.61656">
        <ele>36</ele>
        <time>2018-07-18T10:04:23Z</time>
      </trkpt>
      <trkpt lat="47.79036" lon="-3.61662">
        <ele>36</ele>
        <time>2018-07-18T10:04:24Z</time>
      </trkpt>
      <trkpt lat="47.79037" lon="-3.61669">
        <ele>36</ele>
        <time>2018-07-18T10:04:25Z</time>
      </trkpt>
      <trkpt lat="47.79037" lon="-3.61675">
        <ele>37</ele>
        <time>2018-07-18T10:04:26Z</time>
      </trkpt>
      <trkpt lat="47.79039" lon="-3.61682">
        <ele>37</ele>
        <time>2018-07-18T10:04:27Z</time>
      </trkpt>
      <trkpt lat="47.79039" lon="-3.61689">
        <ele>37</ele>
        <time>2018-07-18T10:04:28Z</time>
      </trkpt>
      <trkpt lat="47.7904" lon="-3.61697">
        <ele>37</ele>
        <time>2018-07-18T10:04:29Z</time>
      </trkpt>
      <trkpt lat="47.79041" lon="-3.61704">
        <ele>37</ele>
        <time>2018-07-18T10:04:30Z</time>
      </trkpt>
      <trkpt lat="47.79043" lon="-3.61712">
        <ele>37</ele>
        <time>2018-07-18T10:04:31Z</time>
      </trkpt>
      <trkpt lat="47.79043" lon="-3.61719">
        <ele>36</ele>
        <time>2018-07-18T10:04:32Z</time>
      </trkpt>
      <trkpt lat="47.79045" lon="-3.61727">
        <ele>36</ele>
        <time>2018-07-18T10:04:33Z</time>
      </trkpt>
      <trkpt lat="47.79046" lon="-3.61735">
        <ele>36</ele>
        <time>2018-07-18T10:04:34Z</time>
      </trkpt>
      <trkpt lat="47.79047" lon="-3.61743">
        <ele>36</ele>
        <time>2018-07-18T10:04:35Z</time>
      </trkpt>
      <trkpt lat="47.79048" lon="-3.61751">
        <ele>36</ele>
        <time>2018-07-18T10:04:36Z</time>
      </trkpt>
      <trkpt lat="47.79049" lon="-3.61758">
        <ele>36</ele>
        <time>2018-07-18T10:04:37Z</time>
      </trkpt>
      <trkpt lat="47.79051" lon="-3.61766">
        <ele>37</ele>
        <time>2018-07-18T10:04:38Z</time>
      </trkpt>
      <trkpt lat="47.79052" lon="-3.61774">
        <ele>37</ele>
        <time>2018-07-18T10:04:39Z</time>
      </trkpt>
      <trkpt lat="47.79053" lon="-3.61781">
        <ele>37</ele>
        <time>2018-07-18T10:04:40Z</time>
      </trkpt>
      <trkpt lat="47.79055" lon="-3.61789">
        <ele>37</ele>
        <time>2018-07-18T10:04:41Z</time>
      </trkpt>
      <trkpt lat="47.79056" lon="-3.61796">
        <ele>37</ele>
        <time>2018-07-18T10:04:42Z</time>
      </trkpt>
      <trkpt lat="47.79058" lon="-3.61804">
        <ele>37</ele>
        <time>2018-07-18T10:04:43Z</time>
      </trkpt>
      <trkpt lat="47.79059" lon="-3.61811">
        <ele>37</ele>
        <time>2018-07-18T10:04:44Z</time>
      </trkpt>
      <trkpt lat="47.7906" lon="-3.61819">
        <ele>37</ele>
        <time>2018-07-18T10:04:45Z</time>
      </trkpt>
      <trkpt lat="47.79061" lon="-3.61827">
        <ele>37</ele>
        <time>2018-07-18T10:04:46Z</time>
      </trkpt>
      <trkpt lat="47.79061" lon="-3.61835">
        <ele>37</ele>
        <time>2018-07-18T10:04:47Z</time>
      </trkpt>
      <trkpt lat="47.79061" lon="-3.61843">
        <ele>37</ele>
        <time>2018-07-18T10:04:48Z</time>
      </trkpt>
      <trkpt lat="47.79061" lon="-3.61851">
        <ele>36</ele>
        <time>2018-07-18T10:04:49Z</time>
      </trkpt>
      <trkpt lat="47.7906" lon="-3.61859">
        <ele>36</ele>
        <time>2018-07-18T10:04:50Z</time>
      </trkpt>
      <trkpt lat="47.79059" lon="-3.61867">
        <ele>37</ele>
        <time>2018-07-18T10:04:51Z</time>
      </trkpt>
      <trkpt lat="47.79056" lon="-3.61874">
        <ele>37</ele>
        <time>2018-07-18T10:04:52Z</time>
      </trkpt>
      <trkpt lat="47.79053" lon="-3.61881">
        <ele>37</ele>
        <time>2018-07-18T10:04:53Z</time>
      </trkpt>
      <trkpt lat="47.79049" lon="-3.61886">
        <ele>37</ele>
        <time>2018-07-18T10:04:54Z</time>
      </trkpt>
      <trkpt lat="47.79045" lon="-3.6189">
        <ele>37</ele>
        <time>2018-07-18T10:04:55Z</time>
      </trkpt>
      <trkpt lat="47.7904" lon="-3.61895">
        <ele>37</ele>
        <time>2018-07-18T10:04:56Z</time>
      </trkpt>
      <trkpt lat="47.79036" lon="-3.61899">
        <ele>37</ele>
        <time>2018-07-18T10:04:57Z</time>
      </trkpt>
      <trkpt lat="47.79031" lon="-3.61903">
        <ele>37</ele>
        <time>2018-07-18T10:04:58Z</time>
      </trkpt>
      <trkpt lat="47.79027" lon="-3.61907">
        <ele>37</ele>
        <time>2018-07-18T10:04:59Z</time>
      </trkpt>
      <trkpt lat="47.79022" lon="-3.61911">
        <ele>37</ele>
        <time>2018-07-18T10:05:00Z</time>
      </trkpt>
      <trkpt lat="47.79018" lon="-3.61915">
        <ele>37</ele>
        <time>2018-07-18T10:05:01Z</time>
      </trkpt>
      <trkpt lat="47.79013" lon="-3.61918">
        <ele>38</ele>
        <time>2018-07-18T10:05:02Z</time>
      </trkpt>
      <trkpt lat="47.79009" lon="-3.61921">
        <ele>38</ele>
        <time>2018-07-18T10:05:03Z</time>
      </trkpt>
      <trkpt lat="47.79005" lon="-3.61924">
        <ele>38</ele>
        <time>2018-07-18T10:05:04Z</time>
      </trkpt>
      <trkpt lat="47.79002" lon="-3.61928">
        <ele>38</ele>
        <time>2018-07-18T10:05:05Z</time>
      </trkpt>
      <trkpt lat="47.79002" lon="-3.61934">
        <ele>38</ele>
        <time>2018-07-18T10:05:06Z</time>
      </trkpt>
      <trkpt lat="47.79002" lon="-3.6194">
        <ele>38</ele>
        <time>2018-07-18T10:05:07Z</time>
      </trkpt>
      <trkpt lat="47.79003" lon="-3.61948">
        <ele>38</ele>
        <time>2018-07-18T10:05:08Z</time>
      </trkpt>
      <trkpt lat="47.79003" lon="-3.61955">
        <ele>38</ele>
        <time>2018-07-18T10:05:09Z</time>
      </trkpt>
      <trkpt lat="47.79004" lon="-3.61963">
        <ele>38</ele>
        <time>2018-07-18T10:05:10Z</time>
      </trkpt>
      <trkpt lat="47.79004" lon="-3.61971">
        <ele>38</ele>
        <time>2018-07-18T10:05:11Z</time>
      </trkpt>
      <trkpt lat="47.79004" lon="-3.6198">
        <ele>37</ele>
        <time>2018-07-18T10:05:12Z</time>
      </trkpt>
      <trkpt lat="47.79004" lon="-3.61988">
        <ele>37</ele>
        <time>2018-07-18T10:05:13Z</time>
      </trkpt>
      <trkpt lat="47.79004" lon="-3.61996">
        <ele>37</ele>
        <time>2018-07-18T10:05:14Z</time>
      </trkpt>
      <trkpt lat="47.79004" lon="-3.62004">
        <ele>37</ele>
        <time>2018-07-18T10:05:15Z</time>
      </trkpt>
      <trkpt lat="47.79004" lon="-3.62013">
        <ele>36</ele>
        <time>2018-07-18T10:05:16Z</time>
      </trkpt>
      <trkpt lat="47.79005" lon="-3.62021">
        <ele>36</ele>
        <time>2018-07-18T10:05:17Z</time>
      </trkpt>
      <trkpt lat="47.79005" lon="-3.6203">
        <ele>36</ele>
        <time>2018-07-18T10:05:18Z</time>
      </trkpt>
      <trkpt lat="47.79005" lon="-3.62039">
        <ele>36</ele>
        <time>2018-07-18T10:05:19Z</time>
      </trkpt>
      <trkpt lat="47.79005" lon="-3.62049">
        <ele>36</ele>
        <time>2018-07-18T10:05:20Z</time>
      </trkpt>
      <trkpt lat="47.79005" lon="-3.62059">
        <ele>36</ele>
        <time>2018-07-18T10:05:21Z</time>
      </trkpt>
      <trkpt lat="47.79004" lon="-3.62069">
        <ele>36</ele>
        <time>2018-07-18T10:05:22Z</time>
      </trkpt>
      <trkpt lat="47.79004" lon="-3.62078">
        <ele>36</ele>
        <time>2018-07-18T10:05:23Z</time>
      </trkpt>
      <trkpt lat="47.79005" lon="-3.62089">
        <ele>36</ele>
        <time>2018-07-18T10:05:24Z</time>
      </trkpt>
      <trkpt lat="47.79005" lon="-3.62098">
        <ele>36</ele>
        <time>2018-07-18T10:05:25Z</time>
      </trkpt>
      <trkpt lat="47.79005" lon="-3.62107">
        <ele>36</ele>
        <time>2018-07-18T10:05:26Z</time>
      </trkpt>
      <trkpt lat="47.79006" lon="-3.62116">
        <ele>36</ele>
        <time>2018-07-18T10:05:27Z</time>
      </trkpt>
      <trkpt lat="47.79007" lon="-3.62127">
        <ele>36</ele>
        <time>2018-07-18T10:05:28Z</time>
      </trkpt>
      <trkpt lat="47.79009" lon="-3.62137">
        <ele>36</ele>
        <time>2018-07-18T10:05:29Z</time>
      </trkpt>
      <trkpt lat="47.79011" lon="-3.62147">
        <ele>36</ele>
        <time>2018-07-18T10:05:30Z</time>
      </trkpt>
      <trkpt lat="47.79013" lon="-3.62156">
        <ele>36</ele>
        <time>2018-07-18T10:05:31Z</time>
      </trkpt>
      <trkpt lat="47.79015" lon="-3.62165">
        <ele>36</ele>
        <time>2018-07-18T10:05:32Z</time>
      </trkpt>
      <trkpt lat="47.79017" lon="-3.62173">
        <ele>36</ele>
        <time>2018-07-18T10:05:33Z</time>
      </trkpt>
      <trkpt lat="47.79019" lon="-3.62181">
        <ele>36</ele>
        <time>2018-07-18T10:05:34Z</time>
      </trkpt>
      <trkpt lat="47.79021" lon="-3.62189">
        <ele>36</ele>
        <time>2018-07-18T10:05:35Z</time>
      </trkpt>
      <trkpt lat="47.79023" lon="-3.62198">
        <ele>36</ele>
        <time>2018-07-18T10:05:36Z</time>
      </trkpt>
      <trkpt lat="47.79025" lon="-3.62206">
        <ele>36</ele>
        <time>2018-07-18T10:05:37Z</time>
      </trkpt>
      <trkpt lat="47.79027" lon="-3.62214">
        <ele>36</ele>
        <time>2018-07-18T10:05:38Z</time>
      </trkpt>
      <trkpt lat="47.79028" lon="-3.62222">
        <ele>36</ele>
        <time>2018-07-18T10:05:39Z</time>
      </trkpt>
      <trkpt lat="47.7903" lon="-3.62231">
        <ele>36</ele>
        <time>2018-07-18T10:05:40Z</time>
      </trkpt>
      <trkpt lat="47.79031" lon="-3.62239">
        <ele>36</ele>
        <time>2018-07-18T10:05:41Z</time>
      </trkpt>
      <trkpt lat="47.79032" lon="-3.62247">
        <ele>36</ele>
        <time>2018-07-18T10:05:42Z</time>
      </trkpt>
      <trkpt lat="47.79033" lon="-3.62254">
        <ele>36</ele>
        <time>2018-07-18T10:05:43Z</time>
      </trkpt>
      <trkpt lat="47.79035" lon="-3.62262">
        <ele>36</ele>
        <time>2018-07-18T10:05:44Z</time>
      </trkpt>
      <trkpt lat="47.79038" lon="-3.62267">
        <ele>36</ele>
        <time>2018-07-18T10:05:45Z</time>
      </trkpt>
      <trkpt lat="47.79042" lon="-3.62269">
        <ele>36</ele>
        <time>2018-07-18T10:05:46Z</time>
      </trkpt>
      <trkpt lat="47.79046" lon="-3.6227">
        <ele>36</ele>
        <time>2018-07-18T10:05:47Z</time>
      </trkpt>
      <trkpt lat="47.79051" lon="-3.62269">
        <ele>35</ele>
        <time>2018-07-18T10:05:48Z</time>
      </trkpt>
      <trkpt lat="47.79056" lon="-3.62267">
        <ele>35</ele>
        <time>2018-07-18T10:05:49Z</time>
      </trkpt>
      <trkpt lat="47.79061" lon="-3.62265">
        <ele>35</ele>
        <time>2018-07-18T10:05:50Z</time>
      </trkpt>
      <trkpt lat="47.79067" lon="-3.62263">
        <ele>35</ele>
        <time>2018-07-18T10:05:51Z</time>
      </trkpt>
      <trkpt lat="47.79072" lon="-3.62262">
        <ele>35</ele>
        <time>2018-07-18T10:05:52Z</time>
      </trkpt>
      <trkpt lat="47.79078" lon="-3.6226">
        <ele>34</ele>
        <time>2018-07-18T10:05:53Z</time>
      </trkpt>
      <trkpt lat="47.79084" lon="-3.62259">
        <ele>34</ele>
        <time>2018-07-18T10:05:54Z</time>
      </trkpt>
      <trkpt lat="47.79089" lon="-3.62259">
        <ele>34</ele>
        <time>2018-07-18T10:05:55Z</time>
      </trkpt>
      <trkpt lat="47.79095" lon="-3.6226">
        <ele>34</ele>
        <time>2018-07-18T10:05:56Z</time>
      </trkpt>
      <trkpt lat="47.79099" lon="-3.62263">
        <ele>34</ele>
        <time>2018-07-18T10:05:57Z</time>
      </trkpt>
      <trkpt lat="47.79103" lon="-3.62266">
        <ele>34</ele>
        <time>2018-07-18T10:05:58Z</time>
      </trkpt>
      <trkpt lat="47.79106" lon="-3.6227">
        <ele>34</ele>
        <time>2018-07-18T10:05:59Z</time>
      </trkpt>
      <trkpt lat="47.79109" lon="-3.62274">
        <ele>34</ele>
        <time>2018-07-18T10:06:00Z</time>
      </trkpt>
      <trkpt lat="47.79111" lon="-3.6228">
        <ele>34</ele>
        <time>2018-07-18T10:06:01Z</time>
      </trkpt>
      <trkpt lat="47.79113" lon="-3.62286">
        <ele>34</ele>
        <time>2018-07-18T10:06:02Z</time>
      </trkpt>
      <trkpt lat="47.79115" lon="-3.62293">
        <ele>34</ele>
        <time>2018-07-18T10:06:03Z</time>
      </trkpt>
      <trkpt lat="47.79117" lon="-3.623">
        <ele>34</ele>
        <time>2018-07-18T10:06:04Z</time>
      </trkpt>
      <trkpt lat="47.79119" lon="-3.62306">
        <ele>34</ele>
        <time>2018-07-18T10:06:05Z</time>
      </trkpt>
      <trkpt lat="47.79121" lon="-3.62311">
        <ele>34</ele>
        <time>2018-07-18T10:06:06Z</time>
      </trkpt>
      <trkpt lat="47.79125" lon="-3.62315">
        <ele>34</ele>
        <time>2018-07-18T10:06:07Z</time>
      </trkpt>
      <trkpt lat="47.79129" lon="-3.62317">
        <ele>34</ele>
        <time>2018-07-18T10:06:08Z</time>
      </trkpt>
      <trkpt lat="47.79133" lon="-3.62318">
        <ele>34</ele>
        <time>2018-07-18T10:06:09Z</time>
      </trkpt>
      <trkpt lat="47.79138" lon="-3.62319">
        <ele>34</ele>
        <time>2018-07-18T10:06:10Z</time>
      </trkpt>
      <trkpt lat="47.79142" lon="-3.62319">
        <ele>34</ele>
        <time>2018-07-18T10:06:11Z</time>
      </trkpt>
      <trkpt lat="47.79146" lon="-3.62319">
        <ele>34</ele>
        <time>2018-07-18T10:06:12Z</time>
      </trkpt>
      <trkpt lat="47.7915" lon="-3.62319">
        <ele>34</ele>
        <time>2018-07-18T10:06:13Z</time>
      </trkpt>
      <trkpt lat="47.79153" lon="-3.6232">
        <ele>34</ele>
        <time>2018-07-18T10:06:14Z</time>
      </trkpt>
      <trkpt lat="47.79154" lon="-3.62322">
        <ele>34</ele>
        <time>2018-07-18T10:06:15Z</time>
      </trkpt>
      <trkpt lat="47.79154" lon="-3.62326">
        <ele>34</ele>
        <time>2018-07-18T10:06:16Z</time>
      </trkpt>
      <trkpt lat="47.79154" lon="-3.62328">
        <ele>34</ele>
        <time>2018-07-18T10:06:17Z</time>
      </trkpt>
      <trkpt lat="47.79153" lon="-3.62331">
        <ele>35</ele>
        <time>2018-07-18T10:06:18Z</time>
      </trkpt>
      <trkpt lat="47.79151" lon="-3.62334">
        <ele>35</ele>
        <time>2018-07-18T10:06:19Z</time>
      </trkpt>
      <trkpt lat="47.7915" lon="-3.62338">
        <ele>35</ele>
        <time>2018-07-18T10:06:20Z</time>
      </trkpt>
      <trkpt lat="47.79149" lon="-3.62342">
        <ele>35</ele>
        <time>2018-07-18T10:06:21Z</time>
      </trkpt>
      <trkpt lat="47.79147" lon="-3.62347">
        <ele>35</ele>
        <time>2018-07-18T10:06:22Z</time>
      </trkpt>
      <trkpt lat="47.79145" lon="-3.62353">
        <ele>35</ele>
        <time>2018-07-18T10:06:23Z</time>
      </trkpt>
      <trkpt lat="47.79145" lon="-3.6236">
        <ele>35</ele>
        <time>2018-07-18T10:06:24Z</time>
      </trkpt>
      <trkpt lat="47.79145" lon="-3.62366">
        <ele>35</ele>
        <time>2018-07-18T10:06:25Z</time>
      </trkpt>
      <trkpt lat="47.79145" lon="-3.62372">
        <ele>35</ele>
        <time>2018-07-18T10:06:26Z</time>
      </trkpt>
      <trkpt lat="47.79146" lon="-3.62379">
        <ele>36</ele>
        <time>2018-07-18T10:06:27Z</time>
      </trkpt>
      <trkpt lat="47.79146" lon="-3.62386">
        <ele>36</ele>
        <time>2018-07-18T10:06:28Z</time>
      </trkpt>
      <trkpt lat="47.79146" lon="-3.62392">
        <ele>36</ele>
        <time>2018-07-18T10:06:29Z</time>
      </trkpt>
      <trkpt lat="47.79146" lon="-3.62399">
        <ele>36</ele>
        <time>2018-07-18T10:06:30Z</time>
      </trkpt>
      <trkpt lat="47.79145" lon="-3.62405">
        <ele>37</ele>
        <time>2018-07-18T10:06:31Z</time>
      </trkpt>
      <trkpt lat="47.79144" lon="-3.62411">
        <ele>37</ele>
        <time>2018-07-18T10:06:32Z</time>
      </trkpt>
      <trkpt lat="47.79142" lon="-3.62418">
        <ele>37</ele>
        <time>2018-07-18T10:06:33Z</time>
      </trkpt>
      <trkpt lat="47.79141" lon="-3.62425">
        <ele>37</ele>
        <time>2018-07-18T10:06:34Z</time>
      </trkpt>
      <trkpt lat="47.7914" lon="-3.62431">
        <ele>37</ele>
        <time>2018-07-18T10:06:35Z</time>
      </trkpt>
      <trkpt lat="47.79139" lon="-3.62437">
        <ele>37</ele>
        <time>2018-07-18T10:06:36Z</time>
      </trkpt>
      <trkpt lat="47.79137" lon="-3.62444">
        <ele>38</ele>
        <time>2018-07-18T10:06:37Z</time>
      </trkpt>
      <trkpt lat="47.79136" lon="-3.62451">
        <ele>38</ele>
        <time>2018-07-18T10:06:38Z</time>
      </trkpt>
      <trkpt lat="47.79134" lon="-3.62458">
        <ele>38</ele>
        <time>2018-07-18T10:06:39Z</time>
      </trkpt>
      <trkpt lat="47.79134" lon="-3.62464">
        <ele>38</ele>
        <time>2018-07-18T10:06:40Z</time>
      </trkpt>
      <trkpt lat="47.79135" lon="-3.62471">
        <ele>38</ele>
        <time>2018-07-18T10:06:41Z</time>
      </trkpt>
      <trkpt lat="47.79136" lon="-3.62476">
        <ele>38</ele>
        <time>2018-07-18T10:06:42Z</time>
      </trkpt>
      <trkpt lat="47.79139" lon="-3.62478">
        <ele>38</ele>
        <time>2018-07-18T10:06:43Z</time>
      </trkpt>
      <trkpt lat="47.79143" lon="-3.6248">
        <ele>38</ele>
        <time>2018-07-18T10:06:44Z</time>
      </trkpt>
      <trkpt lat="47.79147" lon="-3.62481">
        <ele>38</ele>
        <time>2018-07-18T10:06:45Z</time>
      </trkpt>
      <trkpt lat="47.79151" lon="-3.62481">
        <ele>38</ele>
        <time>2018-07-18T10:06:46Z</time>
      </trkpt>
      <trkpt lat="47.79155" lon="-3.62482">
        <ele>38</ele>
        <time>2018-07-18T10:06:47Z</time>
      </trkpt>
      <trkpt lat="47.7916" lon="-3.62483">
        <ele>38</ele>
        <time>2018-07-18T10:06:48Z</time>
      </trkpt>
      <trkpt lat="47.79164" lon="-3.62483">
        <ele>38</ele>
        <time>2018-07-18T10:06:49Z</time>
      </trkpt>
      <trkpt lat="47.79168" lon="-3.62484">
        <ele>38</ele>
        <time>2018-07-18T10:06:50Z</time>
      </trkpt>
      <trkpt lat="47.79173" lon="-3.62484">
        <ele>38</ele>
        <time>2018-07-18T10:06:51Z</time>
      </trkpt>
      <trkpt lat="47.79178" lon="-3.62484">
        <ele>38</ele>
        <time>2018-07-18T10:06:52Z</time>
      </trkpt>
      <trkpt lat="47.79183" lon="-3.62484">
        <ele>38</ele>
        <time>2018-07-18T10:06:53Z</time>
      </trkpt>
      <trkpt lat="47.79187" lon="-3.62484">
        <ele>38</ele>
        <time>2018-07-18T10:06:54Z</time>
      </trkpt>
      <trkpt lat="47.79192" lon="-3.62483">
        <ele>38</ele>
        <time>2018-07-18T10:06:55Z</time>
      </trkpt>
      <trkpt lat="47.79197" lon="-3.62483">
        <ele>39</ele>
        <time>2018-07-18T10:06:56Z</time>
      </trkpt>
      <trkpt lat="47.79202" lon="-3.62482">
        <ele>39</ele>
        <time>2018-07-18T10:06:57Z</time>
      </trkpt>
      <trkpt lat="47.79207" lon="-3.62481">
        <ele>39</ele>
        <time>2018-07-18T10:06:58Z</time>
      </trkpt>
      <trkpt lat="47.79211" lon="-3.6248">
        <ele>39</ele>
        <time>2018-07-18T10:06:59Z</time>
      </trkpt>
      <trkpt lat="47.79216" lon="-3.62479">
        <ele>39</ele>
        <time>2018-07-18T10:07:00Z</time>
      </trkpt>
      <trkpt lat="47.79221" lon="-3.62478">
        <ele>39</ele>
        <time>2018-07-18T10:07:01Z</time>
      </trkpt>
      <trkpt lat="47.79226" lon="-3.62477">
        <ele>39</ele>
        <time>2018-07-18T10:07:02Z</time>
      </trkpt>
      <trkpt lat="47.7923" lon="-3.62477">
        <ele>39</ele>
        <time>2018-07-18T10:07:03Z</time>
      </trkpt>
      <trkpt lat="47.79235" lon="-3.62476">
        <ele>40</ele>
        <time>2018-07-18T10:07:04Z</time>
      </trkpt>
      <trkpt lat="47.79239" lon="-3.62476">
        <ele>40</ele>
        <time>2018-07-18T10:07:05Z</time>
      </trkpt>
      <trkpt lat="47.79243" lon="-3.62475">
        <ele>40</ele>
        <time>2018-07-18T10:07:06Z</time>
      </trkpt>
      <trkpt lat="47.79247" lon="-3.62474">
        <ele>41</ele>
        <time>2018-07-18T10:07:07Z</time>
      </trkpt>
      <trkpt lat="47.79251" lon="-3.62473">
        <ele>41</ele>
        <time>2018-07-18T10:07:08Z</time>
      </trkpt>
      <trkpt lat="47.79253" lon="-3.62471">
        <ele>41</ele>
        <time>2018-07-18T10:07:09Z</time>
      </trkpt>
      <trkpt lat="47.79257" lon="-3.6247">
        <ele>41</ele>
        <time>2018-07-18T10:07:10Z</time>
      </trkpt>
      <trkpt lat="47.7926" lon="-3.62471">
        <ele>42</ele>
        <time>2018-07-18T10:07:11Z</time>
      </trkpt>
      <trkpt lat="47.79264" lon="-3.62472">
        <ele>42</ele>
        <time>2018-07-18T10:07:12Z</time>
      </trkpt>
      <trkpt lat="47.79267" lon="-3.62473">
        <ele>42</ele>
        <time>2018-07-18T10:07:13Z</time>
      </trkpt>
      <trkpt lat="47.7927" lon="-3.62473">
        <ele>42</ele>
        <time>2018-07-18T10:07:14Z</time>
      </trkpt>
      <trkpt lat="47.79274" lon="-3.62475">
        <ele>42</ele>
        <time>2018-07-18T10:07:15Z</time>
      </trkpt>
      <trkpt lat="47.79276" lon="-3.62478">
        <ele>43</ele>
        <time>2018-07-18T10:07:16Z</time>
      </trkpt>
      <trkpt lat="47.79277" lon="-3.62482">
        <ele>43</ele>
        <time>2018-07-18T10:07:17Z</time>
      </trkpt>
      <trkpt lat="47.79277" lon="-3.62487">
        <ele>43</ele>
        <time>2018-07-18T10:07:18Z</time>
      </trkpt>
      <trkpt lat="47.79276" lon="-3.62494">
        <ele>43</ele>
        <time>2018-07-18T10:07:19Z</time>
      </trkpt>
      <trkpt lat="47.79276" lon="-3.62501">
        <ele>43</ele>
        <time>2018-07-18T10:07:20Z</time>
      </trkpt>
      <trkpt lat="47.79276" lon="-3.62508">
        <ele>43</ele>
        <time>2018-07-18T10:07:21Z</time>
      </trkpt>
      <trkpt lat="47.79276" lon="-3.62515">
        <ele>44</ele>
        <time>2018-07-18T10:07:22Z</time>
      </trkpt>
      <trkpt lat="47.79276" lon="-3.62523">
        <ele>44</ele>
        <time>2018-07-18T10:07:23Z</time>
      </trkpt>
      <trkpt lat="47.79275" lon="-3.6253">
        <ele>44</ele>
        <time>2018-07-18T10:07:24Z</time>
      </trkpt>
      <trkpt lat="47.79275" lon="-3.62537">
        <ele>44</ele>
        <time>2018-07-18T10:07:25Z</time>
      </trkpt>
      <trkpt lat="47.79274" lon="-3.62545">
        <ele>44</ele>
        <time>2018-07-18T10:07:26Z</time>
      </trkpt>
      <trkpt lat="47.79274" lon="-3.62553">
        <ele>44</ele>
        <time>2018-07-18T10:07:27Z</time>
      </trkpt>
      <trkpt lat="47.79274" lon="-3.62561">
        <ele>44</ele>
        <time>2018-07-18T10:07:28Z</time>
      </trkpt>
      <trkpt lat="47.79273" lon="-3.62568">
        <ele>44</ele>
        <time>2018-07-18T10:07:29Z</time>
      </trkpt>
      <trkpt lat="47.79273" lon="-3.62575">
        <ele>44</ele>
        <time>2018-07-18T10:07:30Z</time>
      </trkpt>
      <trkpt lat="47.79274" lon="-3.62582">
        <ele>44</ele>
        <time>2018-07-18T10:07:31Z</time>
      </trkpt>
      <trkpt lat="47.79275" lon="-3.62589">
        <ele>43</ele>
        <time>2018-07-18T10:07:32Z</time>
      </trkpt>
      <trkpt lat="47.79276" lon="-3.62598">
        <ele>43</ele>
        <time>2018-07-18T10:07:33Z</time>
      </trkpt>
      <trkpt lat="47.79277" lon="-3.62606">
        <ele>43</ele>
        <time>2018-07-18T10:07:34Z</time>
      </trkpt>
      <trkpt lat="47.79279" lon="-3.62614">
        <ele>43</ele>
        <time>2018-07-18T10:07:35Z</time>
      </trkpt>
      <trkpt lat="47.7928" lon="-3.62622">
        <ele>43</ele>
        <time>2018-07-18T10:07:36Z</time>
      </trkpt>
      <trkpt lat="47.79282" lon="-3.6263">
        <ele>43</ele>
        <time>2018-07-18T10:07:37Z</time>
      </trkpt>
      <trkpt lat="47.79285" lon="-3.62638">
        <ele>43</ele>
        <time>2018-07-18T10:07:38Z</time>
      </trkpt>
      <trkpt lat="47.79287" lon="-3.62647">
        <ele>43</ele>
        <time>2018-07-18T10:07:39Z</time>
      </trkpt>
      <trkpt lat="47.79288" lon="-3.62655">
        <ele>43</ele>
        <time>2018-07-18T10:07:40Z</time>
      </trkpt>
      <trkpt lat="47.79289" lon="-3.62664">
        <ele>42</ele>
        <time>2018-07-18T10:07:41Z</time>
      </trkpt>
      <trkpt lat="47.7929" lon="-3.62673">
        <ele>42</ele>
        <time>2018-07-18T10:07:42Z</time>
      </trkpt>
      <trkpt lat="47.79291" lon="-3.62681">
        <ele>42</ele>
        <time>2018-07-18T10:07:43Z</time>
      </trkpt>
      <trkpt lat="47.79291" lon="-3.6269">
        <ele>42</ele>
        <time>2018-07-18T10:07:44Z</time>
      </trkpt>
      <trkpt lat="47.79291" lon="-3.62699">
        <ele>42</ele>
        <time>2018-07-18T10:07:45Z</time>
      </trkpt>
      <trkpt lat="47.7929" lon="-3.62707">
        <ele>42</ele>
        <time>2018-07-18T10:07:46Z</time>
      </trkpt>
      <trkpt lat="47.79291" lon="-3.62715">
        <ele>42</ele>
        <time>2018-07-18T10:07:47Z</time>
      </trkpt>
      <trkpt lat="47.79292" lon="-3.62723">
        <ele>42</ele>
        <time>2018-07-18T10:07:48Z</time>
      </trkpt>
      <trkpt lat="47.79294" lon="-3.62731">
        <ele>42</ele>
        <time>2018-07-18T10:07:49Z</time>
      </trkpt>
      <trkpt lat="47.79295" lon="-3.62739">
        <ele>42</ele>
        <time>2018-07-18T10:07:50Z</time>
      </trkpt>
      <trkpt lat="47.79296" lon="-3.62747">
        <ele>42</ele>
        <time>2018-07-18T10:07:51Z</time>
      </trkpt>
      <trkpt lat="47.79297" lon="-3.62755">
        <ele>42</ele>
        <time>2018-07-18T10:07:52Z</time>
      </trkpt>
      <trkpt lat="47.79297" lon="-3.62763">
        <ele>42</ele>
        <time>2018-07-18T10:07:53Z</time>
      </trkpt>
      <trkpt lat="47.79296" lon="-3.62772">
        <ele>42</ele>
        <time>2018-07-18T10:07:54Z</time>
      </trkpt>
      <trkpt lat="47.79296" lon="-3.6278">
        <ele>42</ele>
        <time>2018-07-18T10:07:55Z</time>
      </trkpt>
      <trkpt lat="47.79295" lon="-3.62789">
        <ele>42</ele>
        <time>2018-07-18T10:07:56Z</time>
      </trkpt>
      <trkpt lat="47.79295" lon="-3.62797">
        <ele>42</ele>
        <time>2018-07-18T10:07:57Z</time>
      </trkpt>
      <trkpt lat="47.79294" lon="-3.62805">
        <ele>42</ele>
        <time>2018-07-18T10:07:58Z</time>
      </trkpt>
      <trkpt lat="47.79293" lon="-3.62813">
        <ele>41</ele>
        <time>2018-07-18T10:07:59Z</time>
      </trkpt>
      <trkpt lat="47.79292" lon="-3.62821">
        <ele>41</ele>
        <time>2018-07-18T10:08:00Z</time>
      </trkpt>
      <trkpt lat="47.79292" lon="-3.6283">
        <ele>41</ele>
        <time>2018-07-18T10:08:01Z</time>
      </trkpt>
      <trkpt lat="47.79291" lon="-3.62838">
        <ele>41</ele>
        <time>2018-07-18T10:08:02Z</time>
      </trkpt>
      <trkpt lat="47.79291" lon="-3.62846">
        <ele>41</ele>
        <time>2018-07-18T10:08:03Z</time>
      </trkpt>
      <trkpt lat="47.7929" lon="-3.62854">
        <ele>41</ele>
        <time>2018-07-18T10:08:04Z</time>
      </trkpt>
      <trkpt lat="47.79289" lon="-3.62862">
        <ele>41</ele>
        <time>2018-07-18T10:08:05Z</time>
      </trkpt>
      <trkpt lat="47.79288" lon="-3.6287">
        <ele>41</ele>
        <time>2018-07-18T10:08:06Z</time>
      </trkpt>
      <trkpt lat="47.79287" lon="-3.62877">
        <ele>41</ele>
        <time>2018-07-18T10:08:07Z</time>
      </trkpt>
      <trkpt lat="47.79286" lon="-3.62884">
        <ele>41</ele>
        <time>2018-07-18T10:08:08Z</time>
      </trkpt>
      <trkpt lat="47.79285" lon="-3.62891">
        <ele>42</ele>
        <time>2018-07-18T10:08:09Z</time>
      </trkpt>
      <trkpt lat="47.79283" lon="-3.62897">
        <ele>42</ele>
        <time>2018-07-18T10:08:10Z</time>
      </trkpt>
      <trkpt lat="47.79281" lon="-3.62904">
        <ele>42</ele>
        <time>2018-07-18T10:08:11Z</time>
      </trkpt>
      <trkpt lat="47.79279" lon="-3.62913">
        <ele>42</ele>
        <time>2018-07-18T10:08:12Z</time>
      </trkpt>
      <trkpt lat="47.79278" lon="-3.62924">
        <ele>42</ele>
        <time>2018-07-18T10:08:13Z</time>
      </trkpt>
      <trkpt lat="47.79278" lon="-3.62936">
        <ele>41</ele>
        <time>2018-07-18T10:08:14Z</time>
      </trkpt>
      <trkpt lat="47.79278" lon="-3.62948">
        <ele>42</ele>
        <time>2018-07-18T10:08:15Z</time>
      </trkpt>
      <trkpt lat="47.79279" lon="-3.6296">
        <ele>42</ele>
        <time>2018-07-18T10:08:16Z</time>
      </trkpt>
      <trkpt lat="47.7928" lon="-3.62973">
        <ele>42</ele>
        <time>2018-07-18T10:08:17Z</time>
      </trkpt>
      <trkpt lat="47.7928" lon="-3.62986">
        <ele>42</ele>
        <time>2018-07-18T10:08:18Z</time>
      </trkpt>
      <trkpt lat="47.7928" lon="-3.62999">
        <ele>42</ele>
        <time>2018-07-18T10:08:19Z</time>
      </trkpt>
      <trkpt lat="47.79279" lon="-3.63012">
        <ele>42</ele>
        <time>2018-07-18T10:08:20Z</time>
      </trkpt>
      <trkpt lat="47.79278" lon="-3.63026">
        <ele>42</ele>
        <time>2018-07-18T10:08:21Z</time>
      </trkpt>
      <trkpt lat="47.79278" lon="-3.6304">
        <ele>41</ele>
        <time>2018-07-18T10:08:22Z</time>
      </trkpt>
      <trkpt lat="47.79278" lon="-3.63053">
        <ele>41</ele>
        <time>2018-07-18T10:08:23Z</time>
      </trkpt>
      <trkpt lat="47.79278" lon="-3.63066">
        <ele>41</ele>
        <time>2018-07-18T10:08:24Z</time>
      </trkpt>
      <trkpt lat="47.79278" lon="-3.63079">
        <ele>40</ele>
        <time>2018-07-18T10:08:25Z</time>
      </trkpt>
      <trkpt lat="47.79279" lon="-3.63091">
        <ele>40</ele>
        <time>2018-07-18T10:08:26Z</time>
      </trkpt>
      <trkpt lat="47.7928" lon="-3.63103">
        <ele>40</ele>
        <time>2018-07-18T10:08:27Z</time>
      </trkpt>
      <trkpt lat="47.79281" lon="-3.63115">
        <ele>40</ele>
        <time>2018-07-18T10:08:28Z</time>
      </trkpt>
      <trkpt lat="47.79281" lon="-3.63126">
        <ele>39</ele>
        <time>2018-07-18T10:08:29Z</time>
      </trkpt>
      <trkpt lat="47.79282" lon="-3.63136">
        <ele>39</ele>
        <time>2018-07-18T10:08:30Z</time>
      </trkpt>
      <trkpt lat="47.79283" lon="-3.63144">
        <ele>39</ele>
        <time>2018-07-18T10:08:31Z</time>
      </trkpt>
      <trkpt lat="47.79287" lon="-3.63152">
        <ele>39</ele>
        <time>2018-07-18T10:08:32Z</time>
      </trkpt>
      <trkpt lat="47.79292" lon="-3.63157">
        <ele>39</ele>
        <time>2018-07-18T10:08:33Z</time>
      </trkpt>
      <trkpt lat="47.79297" lon="-3.63161">
        <ele>38</ele>
        <time>2018-07-18T10:08:34Z</time>
      </trkpt>
      <trkpt lat="47.79302" lon="-3.63163">
        <ele>38</ele>
        <time>2018-07-18T10:08:35Z</time>
      </trkpt>
      <trkpt lat="47.79307" lon="-3.63167">
        <ele>38</ele>
        <time>2018-07-18T10:08:36Z</time>
      </trkpt>
      <trkpt lat="47.79312" lon="-3.6317">
        <ele>37</ele>
        <time>2018-07-18T10:08:37Z</time>
      </trkpt>
      <trkpt lat="47.79316" lon="-3.63174">
        <ele>37</ele>
        <time>2018-07-18T10:08:38Z</time>
      </trkpt>
      <trkpt lat="47.79321" lon="-3.63179">
        <ele>37</ele>
        <time>2018-07-18T10:08:39Z</time>
      </trkpt>
      <trkpt lat="47.79326" lon="-3.63183">
        <ele>36</ele>
        <time>2018-07-18T10:08:40Z</time>
      </trkpt>
      <trkpt lat="47.79331" lon="-3.63186">
        <ele>36</ele>
        <time>2018-07-18T10:08:41Z</time>
      </trkpt>
      <trkpt lat="47.79334" lon="-3.6319">
        <ele>36</ele>
        <time>2018-07-18T10:08:42Z</time>
      </trkpt>
      <trkpt lat="47.79336" lon="-3.63191">
        <ele>36</ele>
        <time>2018-07-18T10:08:43Z</time>
      </trkpt>
      <trkpt lat="47.79338" lon="-3.63193">
        <ele>35</ele>
        <time>2018-07-18T10:08:44Z</time>
      </trkpt>
      <trkpt lat="47.7934" lon="-3.63195">
        <ele>35</ele>
        <time>2018-07-18T10:08:45Z</time>
      </trkpt>
      <trkpt lat="47.79342" lon="-3.63198">
        <ele>35</ele>
        <time>2018-07-18T10:08:46Z</time>
      </trkpt>
      <trkpt lat="47.79344" lon="-3.632">
        <ele>35</ele>
        <time>2018-07-18T10:08:47Z</time>
      </trkpt>
      <trkpt lat="47.79344" lon="-3.63202">
        <ele>35</ele>
        <time>2018-07-18T10:08:48Z</time>
      </trkpt>
      <trkpt lat="47.79344" lon="-3.63204">
        <ele>35</ele>
        <time>2018-07-18T10:08:49Z</time>
      </trkpt>
      <trkpt lat="47.79342" lon="-3.63205">
        <ele>35</ele>
        <time>2018-07-18T10:08:50Z</time>
      </trkpt>
      <trkpt lat="47.79341" lon="-3.63203">
        <ele>35</ele>
        <time>2018-07-18T10:08:51Z</time>
      </trkpt>
      <trkpt lat="47.7934" lon="-3.63201">
        <ele>35</ele>
        <time>2018-07-18T10:08:52Z</time>
      </trkpt>
      <trkpt lat="47.79339" lon="-3.63199">
        <ele>35</ele>
        <time>2018-07-18T10:08:53Z</time>
      </trkpt>
      <trkpt lat="47.79339" lon="-3.63195">
        <ele>35</ele>
        <time>2018-07-18T10:08:54Z</time>
      </trkpt>
      <trkpt lat="47.79337" lon="-3.63193">
        <ele>35</ele>
        <time>2018-07-18T10:08:55Z</time>
      </trkpt>
      <trkpt lat="47.79335" lon="-3.63191">
        <ele>34</ele>
        <time>2018-07-18T10:08:56Z</time>
      </trkpt>
      <trkpt lat="47.79334" lon="-3.6319">
        <ele>34</ele>
        <time>2018-07-18T10:08:57Z</time>
      </trkpt>
      <trkpt lat="47.79332" lon="-3.63192">
        <ele>34</ele>
        <time>2018-07-18T10:08:58Z</time>
      </trkpt>
      <trkpt lat="47.79332" lon="-3.63195">
        <ele>34</ele>
        <time>2018-07-18T10:08:59Z</time>
      </trkpt>
      <trkpt lat="47.79334" lon="-3.63199">
        <ele>34</ele>
        <time>2018-07-18T10:09:00Z</time>
      </trkpt>
      <trkpt lat="47.79335" lon="-3.63205">
        <ele>35</ele>
        <time>2018-07-18T10:09:01Z</time>
      </trkpt>
      <trkpt lat="47.79336" lon="-3.63211">
        <ele>35</ele>
        <time>2018-07-18T10:09:02Z</time>
      </trkpt>
      <trkpt lat="47.79336" lon="-3.63217">
        <ele>35</ele>
        <time>2018-07-18T10:09:03Z</time>
      </trkpt>
      <trkpt lat="47.79335" lon="-3.63225">
        <ele>34</ele>
        <time>2018-07-18T10:09:04Z</time>
      </trkpt>
      <trkpt lat="47.79334" lon="-3.63232">
        <ele>34</ele>
        <time>2018-07-18T10:09:05Z</time>
      </trkpt>
      <trkpt lat="47.79332" lon="-3.63238">
        <ele>34</ele>
        <time>2018-07-18T10:09:06Z</time>
      </trkpt>
      <trkpt lat="47.7933" lon="-3.63245">
        <ele>34</ele>
        <time>2018-07-18T10:09:07Z</time>
      </trkpt>
      <trkpt lat="47.79329" lon="-3.63251">
        <ele>33</ele>
        <time>2018-07-18T10:09:08Z</time>
      </trkpt>
      <trkpt lat="47.79328" lon="-3.63256">
        <ele>33</ele>
        <time>2018-07-18T10:09:09Z</time>
      </trkpt>
      <trkpt lat="47.79328" lon="-3.63261">
        <ele>32</ele>
        <time>2018-07-18T10:09:10Z</time>
      </trkpt>
      <trkpt lat="47.79329" lon="-3.63264">
        <ele>32</ele>
        <time>2018-07-18T10:09:11Z</time>
      </trkpt>
      <trkpt lat="47.79331" lon="-3.63266">
        <ele>32</ele>
        <time>2018-07-18T10:09:12Z</time>
      </trkpt>
      <trkpt lat="47.79334" lon="-3.63268">
        <ele>31</ele>
        <time>2018-07-18T10:09:13Z</time>
      </trkpt>
      <trkpt lat="47.79336" lon="-3.6327">
        <ele>31</ele>
        <time>2018-07-18T10:09:14Z</time>
      </trkpt>
      <trkpt lat="47.79339" lon="-3.63271">
        <ele>31</ele>
        <time>2018-07-18T10:09:15Z</time>
      </trkpt>
      <trkpt lat="47.79342" lon="-3.63272">
        <ele>31</ele>
        <time>2018-07-18T10:09:16Z</time>
      </trkpt>
      <trkpt lat="47.79345" lon="-3.63273">
        <ele>31</ele>
        <time>2018-07-18T10:09:17Z</time>
      </trkpt>
      <trkpt lat="47.79347" lon="-3.63274">
        <ele>30</ele>
        <time>2018-07-18T10:09:18Z</time>
      </trkpt>
      <trkpt lat="47.7935" lon="-3.63275">
        <ele>30</ele>
        <time>2018-07-18T10:09:19Z</time>
      </trkpt>
      <trkpt lat="47.79352" lon="-3.63275">
        <ele>30</ele>
        <time>2018-07-18T10:09:20Z</time>
      </trkpt>
      <trkpt lat="47.79354" lon="-3.63275">
        <ele>30</ele>
        <time>2018-07-18T10:09:21Z</time>
      </trkpt>
      <trkpt lat="47.79355" lon="-3.63276">
        <ele>30</ele>
        <time>2018-07-18T10:09:22Z</time>
      </trkpt>
      <trkpt lat="47.79358" lon="-3.63277">
        <ele>30</ele>
        <time>2018-07-18T10:09:23Z</time>
      </trkpt>
      <trkpt lat="47.79361" lon="-3.63277">
        <ele>30</ele>
        <time>2018-07-18T10:09:24Z</time>
      </trkpt>
      <trkpt lat="47.79363" lon="-3.63278">
        <ele>30</ele>
        <time>2018-07-18T10:09:25Z</time>
      </trkpt>
      <trkpt lat="47.79365" lon="-3.63279">
        <ele>30</ele>
        <time>2018-07-18T10:09:26Z</time>
      </trkpt>
      <trkpt lat="47.79367" lon="-3.6328">
        <ele>30</ele>
        <time>2018-07-18T10:09:27Z</time>
      </trkpt>
      <trkpt lat="47.7937" lon="-3.6328">
        <ele>30</ele>
        <time>2018-07-18T10:09:28Z</time>
      </trkpt>
      <trkpt lat="47.79372" lon="-3.63279">
        <ele>30</ele>
        <time>2018-07-18T10:09:29Z</time>
      </trkpt>
      <trkpt lat="47.79373" lon="-3.63277">
        <ele>30</ele>
        <time>2018-07-18T10:09:30Z</time>
      </trkpt>
      <trkpt lat="47.79374" lon="-3.63273">
        <ele>30</ele>
        <time>2018-07-18T10:09:31Z</time>
      </trkpt>
      <trkpt lat="47.79374" lon="-3.63269">
        <ele>30</ele>
        <time>2018-07-18T10:09:32Z</time>
      </trkpt>
      <trkpt lat="47.79375" lon="-3.63265">
        <ele>30</ele>
        <time>2018-07-18T10:09:33Z</time>
      </trkpt>
      <trkpt lat="47.79376" lon="-3.6326">
        <ele>30</ele>
        <time>2018-07-18T10:09:34Z</time>
      </trkpt>
      <trkpt lat="47.79377" lon="-3.63255">
        <ele>30</ele>
        <time>2018-07-18T10:09:35Z</time>
      </trkpt>
      <trkpt lat="47.79378" lon="-3.63249">
        <ele>30</ele>
        <time>2018-07-18T10:09:36Z</time>
      </trkpt>
      <trkpt lat="47.79378" lon="-3.63244">
        <ele>30</ele>
        <time>2018-07-18T10:09:37Z</time>
      </trkpt>
      <trkpt lat="47.79379" lon="-3.63238">
        <ele>30</ele>
        <time>2018-07-18T10:09:38Z</time>
      </trkpt>
      <trkpt lat="47.79379" lon="-3.63233">
        <ele>30</ele>
        <time>2018-07-18T10:09:39Z</time>
      </trkpt>
      <trkpt lat="47.7938" lon="-3.63228">
        <ele>30</ele>
        <time>2018-07-18T10:09:40Z</time>
      </trkpt>
      <trkpt lat="47.7938" lon="-3.63222">
        <ele>30</ele>
        <time>2018-07-18T10:09:41Z</time>
      </trkpt>
      <trkpt lat="47.7938" lon="-3.63216">
        <ele>30</ele>
        <time>2018-07-18T10:09:42Z</time>
      </trkpt>
      <trkpt lat="47.7938" lon="-3.6321">
        <ele>30</ele>
        <time>2018-07-18T10:09:43Z</time>
      </trkpt>
      <trkpt lat="47.7938" lon="-3.63205">
        <ele>31</ele>
        <time>2018-07-18T10:09:44Z</time>
      </trkpt>
      <trkpt lat="47.79381" lon="-3.63199">
        <ele>31</ele>
        <time>2018-07-18T10:09:45Z</time>
      </trkpt>
      <trkpt lat="47.79381" lon="-3.63195">
        <ele>31</ele>
        <time>2018-07-18T10:09:46Z</time>
      </trkpt>
      <trkpt lat="47.79381" lon="-3.63189">
        <ele>31</ele>
        <time>2018-07-18T10:09:47Z</time>
      </trkpt>
      <trkpt lat="47.79381" lon="-3.63185">
        <ele>31</ele>
        <time>2018-07-18T10:09:48Z</time>
      </trkpt>
      <trkpt lat="47.79381" lon="-3.6318">
        <ele>31</ele>
        <time>2018-07-18T10:09:49Z</time>
      </trkpt>
      <trkpt lat="47.79381" lon="-3.63176">
        <ele>32</ele>
        <time>2018-07-18T10:09:50Z</time>
      </trkpt>
      <trkpt lat="47.79381" lon="-3.63172">
        <ele>32</ele>
        <time>2018-07-18T10:09:51Z</time>
      </trkpt>
      <trkpt lat="47.7938" lon="-3.63167">
        <ele>32</ele>
        <time>2018-07-18T10:09:52Z</time>
      </trkpt>
      <trkpt lat="47.7938" lon="-3.63162">
        <ele>32</ele>
        <time>2018-07-18T10:09:53Z</time>
      </trkpt>
      <trkpt lat="47.7938" lon="-3.63157">
        <ele>32</ele>
        <time>2018-07-18T10:09:54Z</time>
      </trkpt>
      <trkpt lat="47.7938" lon="-3.63152">
        <ele>33</ele>
        <time>2018-07-18T10:09:55Z</time>
      </trkpt>
      <trkpt lat="47.79379" lon="-3.63148">
        <ele>33</ele>
        <time>2018-07-18T10:09:56Z</time>
      </trkpt>
      <trkpt lat="47.79379" lon="-3.63144">
        <ele>33</ele>
        <time>2018-07-18T10:09:57Z</time>
      </trkpt>
      <trkpt lat="47.79379" lon="-3.63139">
        <ele>33</ele>
        <time>2018-07-18T10:09:58Z</time>
      </trkpt>
      <trkpt lat="47.79379" lon="-3.63135">
        <ele>34</ele>
        <time>2018-07-18T10:09:59Z</time>
      </trkpt>
      <trkpt lat="47.79379" lon="-3.6313">
        <ele>34</ele>
        <time>2018-07-18T10:10:00Z</time>
      </trkpt>
      <trkpt lat="47.79379" lon="-3.63125">
        <ele>34</ele>
        <time>2018-07-18T10:10:01Z</time>
      </trkpt>
      <trkpt lat="47.79379" lon="-3.63119">
        <ele>34</ele>
        <time>2018-07-18T10:10:02Z</time>
      </trkpt>
      <trkpt lat="47.79379" lon="-3.63113">
        <ele>35</ele>
        <time>2018-07-18T10:10:03Z</time>
      </trkpt>
      <trkpt lat="47.79379" lon="-3.63108">
        <ele>35</ele>
        <time>2018-07-18T10:10:04Z</time>
      </trkpt>
      <trkpt lat="47.7938" lon="-3.63103">
        <ele>35</ele>
        <time>2018-07-18T10:10:05Z</time>
      </trkpt>
      <trkpt lat="47.7938" lon="-3.63098">
        <ele>35</ele>
        <time>2018-07-18T10:10:06Z</time>
      </trkpt>
      <trkpt lat="47.79381" lon="-3.63093">
        <ele>36</ele>
        <time>2018-07-18T10:10:07Z</time>
      </trkpt>
      <trkpt lat="47.79382" lon="-3.63088">
        <ele>36</ele>
        <time>2018-07-18T10:10:08Z</time>
      </trkpt>
      <trkpt lat="47.79383" lon="-3.63084">
        <ele>36</ele>
        <time>2018-07-18T10:10:09Z</time>
      </trkpt>
      <trkpt lat="47.79383" lon="-3.63079">
        <ele>37</ele>
        <time>2018-07-18T10:10:10Z</time>
      </trkpt>
      <trkpt lat="47.79384" lon="-3.63074">
        <ele>37</ele>
        <time>2018-07-18T10:10:11Z</time>
      </trkpt>
      <trkpt lat="47.79385" lon="-3.63069">
        <ele>37</ele>
        <time>2018-07-18T10:10:12Z</time>
      </trkpt>
      <trkpt lat="47.79387" lon="-3.63064">
        <ele>38</ele>
        <time>2018-07-18T10:10:13Z</time>
      </trkpt>
      <trkpt lat="47.79388" lon="-3.63059">
        <ele>38</ele>
        <time>2018-07-18T10:10:14Z</time>
      </trkpt>
      <trkpt lat="47.7939" lon="-3.63054">
        <ele>38</ele>
        <time>2018-07-18T10:10:15Z</time>
      </trkpt>
      <trkpt lat="47.79392" lon="-3.63049">
        <ele>38</ele>
        <time>2018-07-18T10:10:16Z</time>
      </trkpt>
      <trkpt lat="47.79395" lon="-3.63044">
        <ele>38</ele>
        <time>2018-07-18T10:10:17Z</time>
      </trkpt>
      <trkpt lat="47.79397" lon="-3.63038">
        <ele>39</ele>
        <time>2018-07-18T10:10:18Z</time>
      </trkpt>
      <trkpt lat="47.79399" lon="-3.63033">
        <ele>39</ele>
        <time>2018-07-18T10:10:19Z</time>
      </trkpt>
      <trkpt lat="47.79401" lon="-3.63028">
        <ele>39</ele>
        <time>2018-07-18T10:10:20Z</time>
      </trkpt>
      <trkpt lat="47.79404" lon="-3.63022">
        <ele>39</ele>
        <time>2018-07-18T10:10:21Z</time>
      </trkpt>
      <trkpt lat="47.79406" lon="-3.63017">
        <ele>39</ele>
        <time>2018-07-18T10:10:22Z</time>
      </trkpt>
      <trkpt lat="47.79409" lon="-3.63011">
        <ele>39</ele>
        <time>2018-07-18T10:10:23Z</time>
      </trkpt>
      <trkpt lat="47.79411" lon="-3.63006">
        <ele>39</ele>
        <time>2018-07-18T10:10:24Z</time>
      </trkpt>
      <trkpt lat="47.79413" lon="-3.63">
        <ele>39</ele>
        <time>2018-07-18T10:10:25Z</time>
      </trkpt>
      <trkpt lat="47.79415" lon="-3.62994">
        <ele>40</ele>
        <time>2018-07-18T10:10:26Z</time>
      </trkpt>
      <trkpt lat="47.79417" lon="-3.62988">
        <ele>40</ele>
        <time>2018-07-18T10:10:27Z</time>
      </trkpt>
      <trkpt lat="47.7942" lon="-3.62983">
        <ele>40</ele>
        <time>2018-07-18T10:10:28Z</time>
      </trkpt>
      <trkpt lat="47.79422" lon="-3.62978">
        <ele>40</ele>
        <time>2018-07-18T10:10:29Z</time>
      </trkpt>
      <trkpt lat="47.79425" lon="-3.62975">
        <ele>40</ele>
        <time>2018-07-18T10:10:30Z</time>
      </trkpt>
      <trkpt lat="47.7943" lon="-3.62974">
        <ele>40</ele>
        <time>2018-07-18T10:10:31Z</time>
      </trkpt>
      <trkpt lat="47.79434" lon="-3.62975">
        <ele>40</ele>
        <time>2018-07-18T10:10:32Z</time>
      </trkpt>
      <trkpt lat="47.79439" lon="-3.62975">
        <ele>40</ele>
        <time>2018-07-18T10:10:33Z</time>
      </trkpt>
      <trkpt lat="47.79444" lon="-3.62975">
        <ele>40</ele>
        <time>2018-07-18T10:10:34Z</time>
      </trkpt>
      <trkpt lat="47.79449" lon="-3.62976">
        <ele>40</ele>
        <time>2018-07-18T10:10:35Z</time>
      </trkpt>
      <trkpt lat="47.79455" lon="-3.62976">
        <ele>40</ele>
        <time>2018-07-18T10:10:36Z</time>
      </trkpt>
      <trkpt lat="47.7946" lon="-3.62976">
        <ele>40</ele>
        <time>2018-07-18T10:10:37Z</time>
      </trkpt>
      <trkpt lat="47.79466" lon="-3.62977">
        <ele>39</ele>
        <time>2018-07-18T10:10:38Z</time>
      </trkpt>
      <trkpt lat="47.79472" lon="-3.62978">
        <ele>39</ele>
        <time>2018-07-18T10:10:39Z</time>
      </trkpt>
      <trkpt lat="47.79478" lon="-3.62979">
        <ele>39</ele>
        <time>2018-07-18T10:10:40Z</time>
      </trkpt>
      <trkpt lat="47.79482" lon="-3.62979">
        <ele>38</ele>
        <time>2018-07-18T10:10:41Z</time>
      </trkpt>
      <trkpt lat="47.79487" lon="-3.62978">
        <ele>38</ele>
        <time>2018-07-18T10:10:42Z</time>
      </trkpt>
      <trkpt lat="47.7949" lon="-3.62976">
        <ele>38</ele>
        <time>2018-07-18T10:10:43Z</time>
      </trkpt>
      <trkpt lat="47.79492" lon="-3.62975">
        <ele>38</ele>
        <time>2018-07-18T10:10:44Z</time>
      </trkpt>
      <trkpt lat="47.79493" lon="-3.62975">
        <ele>38</ele>
        <time>2018-07-18T10:10:45Z</time>
      </trkpt>
      <trkpt lat="47.79493" lon="-3.62975">
        <ele>38</ele>
        <time>2018-07-18T10:10:46Z</time>
      </trkpt>
      <trkpt lat="47.79493" lon="-3.62974">
        <ele>38</ele>
        <time>2018-07-18T10:10:47Z</time>
      </trkpt>
      <trkpt lat="47.79494" lon="-3.62974">
        <ele>38</ele>
        <time>2018-07-18T10:10:48Z</time>
      </trkpt>
      <trkpt lat="47.79495" lon="-3.62974">
        <ele>38</ele>
        <time>2018-07-18T10:10:49Z</time>
      </trkpt>
      <trkpt lat="47.79496" lon="-3.62972">
        <ele>38</ele>
        <time>2018-07-18T10:10:50Z</time>
      </trkpt>
      <trkpt lat="47.79499" lon="-3.62971">
        <ele>38</ele>
        <time>2018-07-18T10:10:51Z</time>
      </trkpt>
      <trkpt lat="47.79502" lon="-3.62971">
        <ele>38</ele>
        <time>2018-07-18T10:10:52Z</time>
      </trkpt>
      <trkpt lat="47.79506" lon="-3.62972">
        <ele>38</ele>
        <time>2018-07-18T10:10:53Z</time>
      </trkpt>
      <trkpt lat="47.7951" lon="-3.62973">
        <ele>37</ele>
        <time>2018-07-18T10:10:54Z</time>
      </trkpt>
      <trkpt lat="47.79514" lon="-3.62976">
        <ele>37</ele>
        <time>2018-07-18T10:10:55Z</time>
      </trkpt>
      <trkpt lat="47.79518" lon="-3.62978">
        <ele>37</ele>
        <time>2018-07-18T10:10:56Z</time>
      </trkpt>
      <trkpt lat="47.79523" lon="-3.62979">
        <ele>37</ele>
        <time>2018-07-18T10:10:57Z</time>
      </trkpt>
      <trkpt lat="47.79529" lon="-3.62981">
        <ele>37</ele>
        <time>2018-07-18T10:10:58Z</time>
      </trkpt>
      <trkpt lat="47.79534" lon="-3.62983">
        <ele>37</ele>
        <time>2018-07-18T10:10:59Z</time>
      </trkpt>
      <trkpt lat="47.79539" lon="-3.62985">
        <ele>37</ele>
        <time>2018-07-18T10:11:00Z</time>
      </trkpt>
      <trkpt lat="47.79545" lon="-3.62988">
        <ele>37</ele>
        <time>2018-07-18T10:11:01Z</time>
      </trkpt>
      <trkpt lat="47.79548" lon="-3.6299">
        <ele>37</ele>
        <time>2018-07-18T10:11:02Z</time>
      </trkpt>
      <trkpt lat="47.79552" lon="-3.62991">
        <ele>37</ele>
        <time>2018-07-18T10:11:03Z</time>
      </trkpt>
      <trkpt lat="47.79555" lon="-3.62992">
        <ele>37</ele>
        <time>2018-07-18T10:11:04Z</time>
      </trkpt>
      <trkpt lat="47.79559" lon="-3.62993">
        <ele>37</ele>
        <time>2018-07-18T10:11:05Z</time>
      </trkpt>
      <trkpt lat="47.79563" lon="-3.62994">
        <ele>37</ele>
        <time>2018-07-18T10:11:06Z</time>
      </trkpt>
      <trkpt lat="47.79567" lon="-3.62996">
        <ele>37</ele>
        <time>2018-07-18T10:11:07Z</time>
      </trkpt>
      <trkpt lat="47.79571" lon="-3.62998">
        <ele>37</ele>
        <time>2018-07-18T10:11:08Z</time>
      </trkpt>
      <trkpt lat="47.79576" lon="-3.63">
        <ele>37</ele>
        <time>2018-07-18T10:11:09Z</time>
      </trkpt>
      <trkpt lat="47.79581" lon="-3.63001">
        <ele>37</ele>
        <time>2018-07-18T10:11:10Z</time>
      </trkpt>
      <trkpt lat="47.79586" lon="-3.63003">
        <ele>37</ele>
        <time>2018-07-18T10:11:11Z</time>
      </trkpt>
      <trkpt lat="47.79591" lon="-3.63005">
        <ele>37</ele>
        <time>2018-07-18T10:11:12Z</time>
      </trkpt>
      <trkpt lat="47.79595" lon="-3.63006">
        <ele>37</ele>
        <time>2018-07-18T10:11:13Z</time>
      </trkpt>
      <trkpt lat="47.796" lon="-3.63007">
        <ele>36</ele>
        <time>2018-07-18T10:11:14Z</time>
      </trkpt>
      <trkpt lat="47.79605" lon="-3.63008">
        <ele>36</ele>
        <time>2018-07-18T10:11:15Z</time>
      </trkpt>
      <trkpt lat="47.79609" lon="-3.63007">
        <ele>36</ele>
        <time>2018-07-18T10:11:16Z</time>
      </trkpt>
      <trkpt lat="47.79614" lon="-3.63007">
        <ele>36</ele>
        <time>2018-07-18T10:11:17Z</time>
      </trkpt>
      <trkpt lat="47.79619" lon="-3.63007">
        <ele>36</ele>
        <time>2018-07-18T10:11:18Z</time>
      </trkpt>
      <trkpt lat="47.79625" lon="-3.63008">
        <ele>36</ele>
        <time>2018-07-18T10:11:19Z</time>
      </trkpt>
      <trkpt lat="47.7963" lon="-3.63009">
        <ele>36</ele>
        <time>2018-07-18T10:11:20Z</time>
      </trkpt>
      <trkpt lat="47.79636" lon="-3.63012">
        <ele>36</ele>
        <time>2018-07-18T10:11:21Z</time>
      </trkpt>
      <trkpt lat="47.79641" lon="-3.63016">
        <ele>36</ele>
        <time>2018-07-18T10:11:22Z</time>
      </trkpt>
      <trkpt lat="47.79647" lon="-3.63022">
        <ele>36</ele>
        <time>2018-07-18T10:11:23Z</time>
      </trkpt>
      <trkpt lat="47.79651" lon="-3.63028">
        <ele>36</ele>
        <time>2018-07-18T10:11:24Z</time>
      </trkpt>
      <trkpt lat="47.79654" lon="-3.63035">
        <ele>36</ele>
        <time>2018-07-18T10:11:25Z</time>
      </trkpt>
      <trkpt lat="47.79656" lon="-3.63041">
        <ele>36</ele>
        <time>2018-07-18T10:11:26Z</time>
      </trkpt>
      <trkpt lat="47.7966" lon="-3.63045">
        <ele>37</ele>
        <time>2018-07-18T10:11:27Z</time>
      </trkpt>
      <trkpt lat="47.79663" lon="-3.63048">
        <ele>37</ele>
        <time>2018-07-18T10:11:28Z</time>
      </trkpt>
      <trkpt lat="47.79668" lon="-3.6305">
        <ele>37</ele>
        <time>2018-07-18T10:11:29Z</time>
      </trkpt>
      <trkpt lat="47.79672" lon="-3.6305">
        <ele>37</ele>
        <time>2018-07-18T10:11:30Z</time>
      </trkpt>
      <trkpt lat="47.79675" lon="-3.6305">
        <ele>37</ele>
        <time>2018-07-18T10:11:31Z</time>
      </trkpt>
      <trkpt lat="47.79679" lon="-3.6305">
        <ele>37</ele>
        <time>2018-07-18T10:11:32Z</time>
      </trkpt>
      <trkpt lat="47.79682" lon="-3.6305">
        <ele>37</ele>
        <time>2018-07-18T10:11:33Z</time>
      </trkpt>
      <trkpt lat="47.79685" lon="-3.63051">
        <ele>37</ele>
        <time>2018-07-18T10:11:34Z</time>
      </trkpt>
      <trkpt lat="47.79689" lon="-3.63051">
        <ele>37</ele>
        <time>2018-07-18T10:11:35Z</time>
      </trkpt>
      <trkpt lat="47.79692" lon="-3.63051">
        <ele>37</ele>
        <time>2018-07-18T10:11:36Z</time>
      </trkpt>
      <trkpt lat="47.79695" lon="-3.63051">
        <ele>37</ele>
        <time>2018-07-18T10:11:37Z</time>
      </trkpt>
      <trkpt lat="47.79697" lon="-3.6305">
        <ele>37</ele>
        <time>2018-07-18T10:11:38Z</time>
      </trkpt>
      <trkpt lat="47.797" lon="-3.6305">
        <ele>37</ele>
        <time>2018-07-18T10:11:39Z</time>
      </trkpt>
      <trkpt lat="47.79702" lon="-3.63049">
        <ele>37</ele>
        <time>2018-07-18T10:11:40Z</time>
      </trkpt>
      <trkpt lat="47.79705" lon="-3.63049">
        <ele>37</ele>
        <time>2018-07-18T10:11:41Z</time>
      </trkpt>
      <trkpt lat="47.79709" lon="-3.63049">
        <ele>37</ele>
        <time>2018-07-18T10:11:42Z</time>
      </trkpt>
      <trkpt lat="47.79711" lon="-3.63049">
        <ele>37</ele>
        <time>2018-07-18T10:11:43Z</time>
      </trkpt>
      <trkpt lat="47.79714" lon="-3.63049">
        <ele>37</ele>
        <time>2018-07-18T10:11:44Z</time>
      </trkpt>
      <trkpt lat="47.79716" lon="-3.63048">
        <ele>37</ele>
        <time>2018-07-18T10:11:45Z</time>
      </trkpt>
      <trkpt lat="47.79719" lon="-3.63048">
        <ele>37</ele>
        <time>2018-07-18T10:11:46Z</time>
      </trkpt>
      <trkpt lat="47.79722" lon="-3.63048">
        <ele>37</ele>
        <time>2018-07-18T10:11:47Z</time>
      </trkpt>
      <trkpt lat="47.79724" lon="-3.63049">
        <ele>37</ele>
        <time>2018-07-18T10:11:48Z</time>
      </trkpt>
      <trkpt lat="47.79726" lon="-3.63048">
        <ele>37</ele>
        <time>2018-07-18T10:11:49Z</time>
      </trkpt>
      <trkpt lat="47.79727" lon="-3.63048">
        <ele>37</ele>
        <time>2018-07-18T10:11:50Z</time>
      </trkpt>
      <trkpt lat="47.79728" lon="-3.63048">
        <ele>37</ele>
        <time>2018-07-18T10:11:51Z</time>
      </trkpt>
      <trkpt lat="47.79729" lon="-3.63048">
        <ele>37</ele>
        <time>2018-07-18T10:11:52Z</time>
      </trkpt>
      <trkpt lat="47.79729" lon="-3.63048">
        <ele>37</ele>
        <time>2018-07-18T10:11:53Z</time>
      </trkpt>
      <trkpt lat="47.7973" lon="-3.63048">
        <ele>37</ele>
        <time>2018-07-18T10:11:54Z</time>
      </trkpt>
      <trkpt lat="47.79731" lon="-3.63048">
        <ele>37</ele>
        <time>2018-07-18T10:11:55Z</time>
      </trkpt>
      <trkpt lat="47.79732" lon="-3.63048">
        <ele>37</ele>
        <time>2018-07-18T10:11:56Z</time>
      </trkpt>
      <trkpt lat="47.79733" lon="-3.63048">
        <ele>37</ele>
        <time>2018-07-18T10:11:57Z</time>
      </trkpt>
      <trkpt lat="47.79734" lon="-3.63047">
        <ele>37</ele>
        <time>2018-07-18T10:11:58Z</time>
      </trkpt>
      <trkpt lat="47.79735" lon="-3.63046">
        <ele>37</ele>
        <time>2018-07-18T10:11:59Z</time>
      </trkpt>
      <trkpt lat="47.79735" lon="-3.63045">
        <ele>36</ele>
        <time>2018-07-18T10:12:00Z</time>
      </trkpt>
      <trkpt lat="47.79736" lon="-3.63045">
        <ele>36</ele>
        <time>2018-07-18T10:12:01Z</time>
      </trkpt>
      <trkpt lat="47.79737" lon="-3.63044">
        <ele>36</ele>
        <time>2018-07-18T10:12:02Z</time>
      </trkpt>
      <trkpt lat="47.79738" lon="-3.63044">
        <ele>36</ele>
        <time>2018-07-18T10:12:03Z</time>
      </trkpt>
      <trkpt lat="47.79738" lon="-3.63043">
        <ele>36</ele>
        <time>2018-07-18T10:12:04Z</time>
      </trkpt>
      <trkpt lat="47.79738" lon="-3.63043">
        <ele>36</ele>
        <time>2018-07-18T10:12:05Z</time>
      </trkpt>
      <trkpt lat="47.79738" lon="-3.63042">
        <ele>36</ele>
        <time>2018-07-18T10:12:06Z</time>
      </trkpt>
      <trkpt lat="47.79739" lon="-3.63041">
        <ele>36</ele>
        <time>2018-07-18T10:12:07Z</time>
      </trkpt>
      <trkpt lat="47.79739" lon="-3.63041">
        <ele>36</ele>
        <time>2018-07-18T10:12:08Z</time>
      </trkpt>
      <trkpt lat="47.79739" lon="-3.6304">
        <ele>36</ele>
        <time>2018-07-18T10:12:09Z</time>
      </trkpt>
      <trkpt lat="47.79739" lon="-3.63039">
        <ele>36</ele>
        <time>2018-07-18T10:12:10Z</time>
      </trkpt>
      <trkpt lat="47.79739" lon="-3.63038">
        <ele>36</ele>
        <time>2018-07-18T10:12:11Z</time>
      </trkpt>
      <trkpt lat="47.79739" lon="-3.63038">
        <ele>36</ele>
        <time>2018-07-18T10:12:12Z</time>
      </trkpt>
      <trkpt lat="47.79739" lon="-3.63037">
        <ele>36</ele>
        <time>2018-07-18T10:12:13Z</time>
      </trkpt>
      <trkpt lat="47.79738" lon="-3.63037">
        <ele>36</ele>
        <time>2018-07-18T10:12:14Z</time>
      </trkpt>
      <trkpt lat="47.79738" lon="-3.63035">
        <ele>36</ele>
        <time>2018-07-18T10:12:15Z</time>
      </trkpt>
      <trkpt lat="47.79738" lon="-3.63034">
        <ele>36</ele>
        <time>2018-07-18T10:12:16Z</time>
      </trkpt>
      <trkpt lat="47.79738" lon="-3.63033">
        <ele>36</ele>
        <time>2018-07-18T10:12:17Z</time>
      </trkpt>
      <trkpt lat="47.79738" lon="-3.63032">
        <ele>36</ele>
        <time>2018-07-18T10:12:18Z</time>
      </trkpt>
      <trkpt lat="47.79738" lon="-3.63032">
        <ele>36</ele>
        <time>2018-07-18T10:12:19Z</time>
      </trkpt>
      <trkpt lat="47.79738" lon="-3.63032">
        <ele>36</ele>
        <time>2018-07-18T10:12:20Z</time>
      </trkpt>
      <trkpt lat="47.79739" lon="-3.63031">
        <ele>36</ele>
        <time>2018-07-18T10:12:21Z</time>
      </trkpt>
      <trkpt lat="47.79738" lon="-3.63028">
        <ele>36</ele>
        <time>2018-07-18T10:12:22Z</time>
      </trkpt>
      <trkpt lat="47.79737" lon="-3.63027">
        <ele>36</ele>
        <time>2018-07-18T10:12:23Z</time>
      </trkpt>
      <trkpt lat="47.79735" lon="-3.63025">
        <ele>36</ele>
        <time>2018-07-18T10:12:24Z</time>
      </trkpt>
      <trkpt lat="47.79734" lon="-3.63025">
        <ele>36</ele>
        <time>2018-07-18T10:12:25Z</time>
      </trkpt>
      <trkpt lat="47.79733" lon="-3.63024">
        <ele>36</ele>
        <time>2018-07-18T10:12:26Z</time>
      </trkpt>
      <trkpt lat="47.79733" lon="-3.63022">
        <ele>36</ele>
        <time>2018-07-18T10:12:27Z</time>
      </trkpt>
      <trkpt lat="47.79732" lon="-3.63021">
        <ele>36</ele>
        <time>2018-07-18T10:12:28Z</time>
      </trkpt>
      <trkpt lat="47.79732" lon="-3.63019">
        <ele>36</ele>
        <time>2018-07-18T10:12:29Z</time>
      </trkpt>
      <trkpt lat="47.79732" lon="-3.63016">
        <ele>36</ele>
        <time>2018-07-18T10:12:30Z</time>
      </trkpt>
      <trkpt lat="47.79733" lon="-3.63014">
        <ele>36</ele>
        <time>2018-07-18T10:12:31Z</time>
      </trkpt>
      <trkpt lat="47.79732" lon="-3.63012">
        <ele>36</ele>
        <time>2018-07-18T10:12:32Z</time>
      </trkpt>
      <trkpt lat="47.79732" lon="-3.63009">
        <ele>36</ele>
        <time>2018-07-18T10:12:33Z</time>
      </trkpt>
      <trkpt lat="47.79731" lon="-3.63006">
        <ele>36</ele>
        <time>2018-07-18T10:12:34Z</time>
      </trkpt>
      <trkpt lat="47.79731" lon="-3.63004">
        <ele>36</ele>
        <time>2018-07-18T10:12:35Z</time>
      </trkpt>
      <trkpt lat="47.79731" lon="-3.63001">
        <ele>36</ele>
        <time>2018-07-18T10:12:36Z</time>
      </trkpt>
      <trkpt lat="47.7973" lon="-3.62999">
        <ele>36</ele>
        <time>2018-07-18T10:12:37Z</time>
      </trkpt>
      <trkpt lat="47.79729" lon="-3.62996">
        <ele>36</ele>
        <time>2018-07-18T10:12:38Z</time>
      </trkpt>
      <trkpt lat="47.79728" lon="-3.62993">
        <ele>36</ele>
        <time>2018-07-18T10:12:39Z</time>
      </trkpt>
      <trkpt lat="47.79728" lon="-3.6299">
        <ele>36</ele>
        <time>2018-07-18T10:12:40Z</time>
      </trkpt>
      <trkpt lat="47.79727" lon="-3.62986">
        <ele>35</ele>
        <time>2018-07-18T10:12:41Z</time>
      </trkpt>
      <trkpt lat="47.79727" lon="-3.62984">
        <ele>35</ele>
        <time>2018-07-18T10:12:42Z</time>
      </trkpt>
      <trkpt lat="47.79727" lon="-3.62981">
        <ele>35</ele>
        <time>2018-07-18T10:12:43Z</time>
      </trkpt>
      <trkpt lat="47.79727" lon="-3.62978">
        <ele>35</ele>
        <time>2018-07-18T10:12:44Z</time>
      </trkpt>
      <trkpt lat="47.79728" lon="-3.62976">
        <ele>35</ele>
        <time>2018-07-18T10:12:45Z</time>
      </trkpt>
      <trkpt lat="47.79729" lon="-3.62973">
        <ele>35</ele>
        <time>2018-07-18T10:12:46Z</time>
      </trkpt>
      <trkpt lat="47.7973" lon="-3.6297">
        <ele>35</ele>
        <time>2018-07-18T10:12:47Z</time>
      </trkpt>
      <trkpt lat="47.79731" lon="-3.62967">
        <ele>35</ele>
        <time>2018-07-18T10:12:48Z</time>
      </trkpt>
      <trkpt lat="47.79731" lon="-3.62963">
        <ele>35</ele>
        <time>2018-07-18T10:12:49Z</time>
      </trkpt>
      <trkpt lat="47.79732" lon="-3.6296">
        <ele>35</ele>
        <time>2018-07-18T10:12:50Z</time>
      </trkpt>
      <trkpt lat="47.79733" lon="-3.62956">
        <ele>35</ele>
        <time>2018-07-18T10:12:51Z</time>
      </trkpt>
      <trkpt lat="47.79735" lon="-3.62953">
        <ele>35</ele>
        <time>2018-07-18T10:12:52Z</time>
      </trkpt>
      <trkpt lat="47.79736" lon="-3.62951">
        <ele>35</ele>
        <time>2018-07-18T10:12:53Z</time>
      </trkpt>
      <trkpt lat="47.79737" lon="-3.62947">
        <ele>35</ele>
        <time>2018-07-18T10:12:54Z</time>
      </trkpt>
      <trkpt lat="47.79739" lon="-3.62944">
        <ele>35</ele>
        <time>2018-07-18T10:12:55Z</time>
      </trkpt>
      <trkpt lat="47.7974" lon="-3.6294">
        <ele>35</ele>
        <time>2018-07-18T10:12:56Z</time>
      </trkpt>
      <trkpt lat="47.79742" lon="-3.62936">
        <ele>36</ele>
        <time>2018-07-18T10:12:57Z</time>
      </trkpt>
      <trkpt lat="47.79743" lon="-3.62932">
        <ele>36</ele>
        <time>2018-07-18T10:12:58Z</time>
      </trkpt>
      <trkpt lat="47.79745" lon="-3.62928">
        <ele>36</ele>
        <time>2018-07-18T10:12:59Z</time>
      </trkpt>
      <trkpt lat="47.79746" lon="-3.62924">
        <ele>36</ele>
        <time>2018-07-18T10:13:00Z</time>
      </trkpt>
      <trkpt lat="47.79748" lon="-3.62921">
        <ele>36</ele>
        <time>2018-07-18T10:13:01Z</time>
      </trkpt>
      <trkpt lat="47.79749" lon="-3.62918">
        <ele>36</ele>
        <time>2018-07-18T10:13:02Z</time>
      </trkpt>
      <trkpt lat="47.79749" lon="-3.62915">
        <ele>36</ele>
        <time>2018-07-18T10:13:03Z</time>
      </trkpt>
      <trkpt lat="47.7975" lon="-3.62912">
        <ele>37</ele>
        <time>2018-07-18T10:13:04Z</time>
      </trkpt>
      <trkpt lat="47.79752" lon="-3.62909">
        <ele>37</ele>
        <time>2018-07-18T10:13:05Z</time>
      </trkpt>
      <trkpt lat="47.79753" lon="-3.62904">
        <ele>37</ele>
        <time>2018-07-18T10:13:06Z</time>
      </trkpt>
      <trkpt lat="47.79755" lon="-3.629">
        <ele>37</ele>
        <time>2018-07-18T10:13:07Z</time>
      </trkpt>
      <trkpt lat="47.79757" lon="-3.62896">
        <ele>37</ele>
        <time>2018-07-18T10:13:08Z</time>
      </trkpt>
      <trkpt lat="47.79758" lon="-3.62892">
        <ele>37</ele>
        <time>2018-07-18T10:13:09Z</time>
      </trkpt>
      <trkpt lat="47.7976" lon="-3.62887">
        <ele>37</ele>
        <time>2018-07-18T10:13:10Z</time>
      </trkpt>
      <trkpt lat="47.79762" lon="-3.62882">
        <ele>37</ele>
        <time>2018-07-18T10:13:11Z</time>
      </trkpt>
      <trkpt lat="47.79763" lon="-3.62877">
        <ele>37</ele>
        <time>2018-07-18T10:13:12Z</time>
      </trkpt>
      <trkpt lat="47.79764" lon="-3.62873">
        <ele>38</ele>
        <time>2018-07-18T10:13:13Z</time>
      </trkpt>
      <trkpt lat="47.79765" lon="-3.62869">
        <ele>38</ele>
        <time>2018-07-18T10:13:14Z</time>
      </trkpt>
      <trkpt lat="47.79767" lon="-3.62864">
        <ele>38</ele>
        <time>2018-07-18T10:13:15Z</time>
      </trkpt>
      <trkpt lat="47.79769" lon="-3.62859">
        <ele>38</ele>
        <time>2018-07-18T10:13:16Z</time>
      </trkpt>
      <trkpt lat="47.79771" lon="-3.62855">
        <ele>38</ele>
        <time>2018-07-18T10:13:17Z</time>
      </trkpt>
      <trkpt lat="47.79774" lon="-3.62851">
        <ele>39</ele>
        <time>2018-07-18T10:13:18Z</time>
      </trkpt>
      <trkpt lat="47.79776" lon="-3.62846">
        <ele>39</ele>
        <time>2018-07-18T10:13:19Z</time>
      </trkpt>
      <trkpt lat="47.79778" lon="-3.62841">
        <ele>39</ele>
        <time>2018-07-18T10:13:20Z</time>
      </trkpt>
      <trkpt lat="47.7978" lon="-3.62838">
        <ele>39</ele>
        <time>2018-07-18T10:13:21Z</time>
      </trkpt>
      <trkpt lat="47.79781" lon="-3.62834">
        <ele>39</ele>
        <time>2018-07-18T10:13:22Z</time>
      </trkpt>
      <trkpt lat="47.79783" lon="-3.6283">
        <ele>39</ele>
        <time>2018-07-18T10:13:23Z</time>
      </trkpt>
      <trkpt lat="47.79784" lon="-3.62825">
        <ele>39</ele>
        <time>2018-07-18T10:13:24Z</time>
      </trkpt>
      <trkpt lat="47.79786" lon="-3.6282">
        <ele>39</ele>
        <time>2018-07-18T10:13:25Z</time>
      </trkpt>
      <trkpt lat="47.79787" lon="-3.62815">
        <ele>39</ele>
        <time>2018-07-18T10:13:26Z</time>
      </trkpt>
      <trkpt lat="47.79788" lon="-3.62809">
        <ele>39</ele>
        <time>2018-07-18T10:13:27Z</time>
      </trkpt>
      <trkpt lat="47.79788" lon="-3.62805">
        <ele>39</ele>
        <time>2018-07-18T10:13:28Z</time>
      </trkpt>
      <trkpt lat="47.7979" lon="-3.62798">
        <ele>39</ele>
        <time>2018-07-18T10:13:29Z</time>
      </trkpt>
      <trkpt lat="47.7979" lon="-3.62791">
        <ele>39</ele>
        <time>2018-07-18T10:13:30Z</time>
      </trkpt>
      <trkpt lat="47.7979" lon="-3.62783">
        <ele>39</ele>
        <time>2018-07-18T10:13:31Z</time>
      </trkpt>
      <trkpt lat="47.7979" lon="-3.62774">
        <ele>40</ele>
        <time>2018-07-18T10:13:32Z</time>
      </trkpt>
      <trkpt lat="47.79791" lon="-3.62765">
        <ele>40</ele>
        <time>2018-07-18T10:13:33Z</time>
      </trkpt>
      <trkpt lat="47.7979" lon="-3.62757">
        <ele>40</ele>
        <time>2018-07-18T10:13:34Z</time>
      </trkpt>
      <trkpt lat="47.79789" lon="-3.6275">
        <ele>40</ele>
        <time>2018-07-18T10:13:35Z</time>
      </trkpt>
      <trkpt lat="47.79788" lon="-3.62744">
        <ele>40</ele>
        <time>2018-07-18T10:13:36Z</time>
      </trkpt>
      <trkpt lat="47.79787" lon="-3.62739">
        <ele>40</ele>
        <time>2018-07-18T10:13:37Z</time>
      </trkpt>
      <trkpt lat="47.79786" lon="-3.62735">
        <ele>40</ele>
        <time>2018-07-18T10:13:38Z</time>
      </trkpt>
      <trkpt lat="47.79786" lon="-3.6273">
        <ele>40</ele>
        <time>2018-07-18T10:13:39Z</time>
      </trkpt>
      <trkpt lat="47.79785" lon="-3.62726">
        <ele>40</ele>
        <time>2018-07-18T10:13:40Z</time>
      </trkpt>
      <trkpt lat="47.79785" lon="-3.62721">
        <ele>40</ele>
        <time>2018-07-18T10:13:41Z</time>
      </trkpt>
      <trkpt lat="47.79786" lon="-3.62716">
        <ele>40</ele>
        <time>2018-07-18T10:13:42Z</time>
      </trkpt>
      <trkpt lat="47.79786" lon="-3.62711">
        <ele>40</ele>
        <time>2018-07-18T10:13:43Z</time>
      </trkpt>
      <trkpt lat="47.79787" lon="-3.62706">
        <ele>40</ele>
        <time>2018-07-18T10:13:44Z</time>
      </trkpt>
      <trkpt lat="47.79787" lon="-3.627">
        <ele>40</ele>
        <time>2018-07-18T10:13:45Z</time>
      </trkpt>
      <trkpt lat="47.79788" lon="-3.62694">
        <ele>40</ele>
        <time>2018-07-18T10:13:46Z</time>
      </trkpt>
      <trkpt lat="47.79788" lon="-3.62689">
        <ele>40</ele>
        <time>2018-07-18T10:13:47Z</time>
      </trkpt>
      <trkpt lat="47.79788" lon="-3.62684">
        <ele>40</ele>
        <time>2018-07-18T10:13:48Z</time>
      </trkpt>
      <trkpt lat="47.79789" lon="-3.62678">
        <ele>40</ele>
        <time>2018-07-18T10:13:49Z</time>
      </trkpt>
      <trkpt lat="47.79789" lon="-3.62674">
        <ele>40</ele>
        <time>2018-07-18T10:13:50Z</time>
      </trkpt>
      <trkpt lat="47.79788" lon="-3.6267">
        <ele>40</ele>
        <time>2018-07-18T10:13:51Z</time>
      </trkpt>
      <trkpt lat="47.79789" lon="-3.62666">
        <ele>40</ele>
        <time>2018-07-18T10:13:52Z</time>
      </trkpt>
      <trkpt lat="47.79791" lon="-3.62663">
        <ele>40</ele>
        <time>2018-07-18T10:13:53Z</time>
      </trkpt>
      <trkpt lat="47.79793" lon="-3.62658">
        <ele>40</ele>
        <time>2018-07-18T10:13:54Z</time>
      </trkpt>
      <trkpt lat="47.79796" lon="-3.62653">
        <ele>40</ele>
        <time>2018-07-18T10:13:55Z</time>
      </trkpt>
      <trkpt lat="47.79798" lon="-3.62647">
        <ele>40</ele>
        <time>2018-07-18T10:13:56Z</time>
      </trkpt>
      <trkpt lat="47.798" lon="-3.6264">
        <ele>40</ele>
        <time>2018-07-18T10:13:57Z</time>
      </trkpt>
      <trkpt lat="47.79801" lon="-3.62634">
        <ele>40</ele>
        <time>2018-07-18T10:13:58Z</time>
      </trkpt>
      <trkpt lat="47.79804" lon="-3.62628">
        <ele>40</ele>
        <time>2018-07-18T10:13:59Z</time>
      </trkpt>
      <trkpt lat="47.79805" lon="-3.62622">
        <ele>40</ele>
        <time>2018-07-18T10:14:00Z</time>
      </trkpt>
      <trkpt lat="47.79807" lon="-3.62617">
        <ele>40</ele>
        <time>2018-07-18T10:14:01Z</time>
      </trkpt>
      <trkpt lat="47.79808" lon="-3.62614">
        <ele>40</ele>
        <time>2018-07-18T10:14:02Z</time>
      </trkpt>
      <trkpt lat="47.7981" lon="-3.62612">
        <ele>40</ele>
        <time>2018-07-18T10:14:03Z</time>
      </trkpt>
      <trkpt lat="47.7981" lon="-3.62611">
        <ele>40</ele>
        <time>2018-07-18T10:14:04Z</time>
      </trkpt>
      <trkpt lat="47.79811" lon="-3.6261">
        <ele>40</ele>
        <time>2018-07-18T10:14:05Z</time>
      </trkpt>
      <trkpt lat="47.79813" lon="-3.62608">
        <ele>40</ele>
        <time>2018-07-18T10:14:06Z</time>
      </trkpt>
      <trkpt lat="47.79814" lon="-3.62607">
        <ele>40</ele>
        <time>2018-07-18T10:14:07Z</time>
      </trkpt>
      <trkpt lat="47.79816" lon="-3.62606">
        <ele>40</ele>
        <time>2018-07-18T10:14:08Z</time>
      </trkpt>
      <trkpt lat="47.79817" lon="-3.62604">
        <ele>40</ele>
        <time>2018-07-18T10:14:09Z</time>
      </trkpt>
      <trkpt lat="47.79818" lon="-3.62601">
        <ele>40</ele>
        <time>2018-07-18T10:14:10Z</time>
      </trkpt>
      <trkpt lat="47.7982" lon="-3.62597">
        <ele>40</ele>
        <time>2018-07-18T10:14:11Z</time>
      </trkpt>
      <trkpt lat="47.79821" lon="-3.62595">
        <ele>40</ele>
        <time>2018-07-18T10:14:12Z</time>
      </trkpt>
      <trkpt lat="47.79823" lon="-3.62591">
        <ele>40</ele>
        <time>2018-07-18T10:14:13Z</time>
      </trkpt>
      <trkpt lat="47.79824" lon="-3.62588">
        <ele>39</ele>
        <time>2018-07-18T10:14:14Z</time>
      </trkpt>
      <trkpt lat="47.79826" lon="-3.62584">
        <ele>39</ele>
        <time>2018-07-18T10:14:15Z</time>
      </trkpt>
      <trkpt lat="47.79827" lon="-3.6258">
        <ele>39</ele>
        <time>2018-07-18T10:14:16Z</time>
      </trkpt>
      <trkpt lat="47.79829" lon="-3.62576">
        <ele>39</ele>
        <time>2018-07-18T10:14:17Z</time>
      </trkpt>
      <trkpt lat="47.7983" lon="-3.62573">
        <ele>39</ele>
        <time>2018-07-18T10:14:18Z</time>
      </trkpt>
      <trkpt lat="47.79832" lon="-3.62569">
        <ele>39</ele>
        <time>2018-07-18T10:14:19Z</time>
      </trkpt>
      <trkpt lat="47.79834" lon="-3.62565">
        <ele>39</ele>
        <time>2018-07-18T10:14:20Z</time>
      </trkpt>
      <trkpt lat="47.79835" lon="-3.62561">
        <ele>39</ele>
        <time>2018-07-18T10:14:21Z</time>
      </trkpt>
      <trkpt lat="47.79837" lon="-3.62557">
        <ele>39</ele>
        <time>2018-07-18T10:14:22Z</time>
      </trkpt>
      <trkpt lat="47.79838" lon="-3.62553">
        <ele>38</ele>
        <time>2018-07-18T10:14:23Z</time>
      </trkpt>
      <trkpt lat="47.7984" lon="-3.62551">
        <ele>38</ele>
        <time>2018-07-18T10:14:24Z</time>
      </trkpt>
      <trkpt lat="47.79842" lon="-3.62548">
        <ele>38</ele>
        <time>2018-07-18T10:14:25Z</time>
      </trkpt>
      <trkpt lat="47.79844" lon="-3.62544">
        <ele>38</ele>
        <time>2018-07-18T10:14:26Z</time>
      </trkpt>
      <trkpt lat="47.79847" lon="-3.6254">
        <ele>38</ele>
        <time>2018-07-18T10:14:27Z</time>
      </trkpt>
      <trkpt lat="47.79849" lon="-3.62536">
        <ele>38</ele>
        <time>2018-07-18T10:14:28Z</time>
      </trkpt>
      <trkpt lat="47.79851" lon="-3.62533">
        <ele>39</ele>
        <time>2018-07-18T10:14:29Z</time>
      </trkpt>
      <trkpt lat="47.79853" lon="-3.62531">
        <ele>39</ele>
        <time>2018-07-18T10:14:30Z</time>
      </trkpt>
      <trkpt lat="47.79856" lon="-3.62529">
        <ele>39</ele>
        <time>2018-07-18T10:14:31Z</time>
      </trkpt>
      <trkpt lat="47.79858" lon="-3.62527">
        <ele>39</ele>
        <time>2018-07-18T10:14:32Z</time>
      </trkpt>
      <trkpt lat="47.79861" lon="-3.62524">
        <ele>39</ele>
        <time>2018-07-18T10:14:33Z</time>
      </trkpt>
      <trkpt lat="47.79864" lon="-3.62521">
        <ele>39</ele>
        <time>2018-07-18T10:14:34Z</time>
      </trkpt>
      <trkpt lat="47.79867" lon="-3.62517">
        <ele>39</ele>
        <time>2018-07-18T10:14:35Z</time>
      </trkpt>
      <trkpt lat="47.7987" lon="-3.62515">
        <ele>39</ele>
        <time>2018-07-18T10:14:36Z</time>
      </trkpt>
      <trkpt lat="47.79873" lon="-3.62513">
        <ele>39</ele>
        <time>2018-07-18T10:14:37Z</time>
      </trkpt>
      <trkpt lat="47.79876" lon="-3.62511">
        <ele>39</ele>
        <time>2018-07-18T10:14:38Z</time>
      </trkpt>
      <trkpt lat="47.79879" lon="-3.6251">
        <ele>39</ele>
        <time>2018-07-18T10:14:39Z</time>
      </trkpt>
      <trkpt lat="47.79882" lon="-3.62509">
        <ele>39</ele>
        <time>2018-07-18T10:14:40Z</time>
      </trkpt>
      <trkpt lat="47.79884" lon="-3.62508">
        <ele>40</ele>
        <time>2018-07-18T10:14:41Z</time>
      </trkpt>
      <trkpt lat="47.79887" lon="-3.62507">
        <ele>40</ele>
        <time>2018-07-18T10:14:42Z</time>
      </trkpt>
      <trkpt lat="47.7989" lon="-3.62505">
        <ele>40</ele>
        <time>2018-07-18T10:14:43Z</time>
      </trkpt>
      <trkpt lat="47.79894" lon="-3.62502">
        <ele>40</ele>
        <time>2018-07-18T10:14:44Z</time>
      </trkpt>
      <trkpt lat="47.79896" lon="-3.62499">
        <ele>40</ele>
        <time>2018-07-18T10:14:45Z</time>
      </trkpt>
      <trkpt lat="47.79899" lon="-3.62495">
        <ele>40</ele>
        <time>2018-07-18T10:14:46Z</time>
      </trkpt>
      <trkpt lat="47.79901" lon="-3.62491">
        <ele>41</ele>
        <time>2018-07-18T10:14:47Z</time>
      </trkpt>
      <trkpt lat="47.79903" lon="-3.62487">
        <ele>41</ele>
        <time>2018-07-18T10:14:48Z</time>
      </trkpt>
      <trkpt lat="47.79903" lon="-3.62483">
        <ele>41</ele>
        <time>2018-07-18T10:14:49Z</time>
      </trkpt>
      <trkpt lat="47.79903" lon="-3.6248">
        <ele>41</ele>
        <time>2018-07-18T10:14:50Z</time>
      </trkpt>
      <trkpt lat="47.799" lon="-3.62478">
        <ele>41</ele>
        <time>2018-07-18T10:14:51Z</time>
      </trkpt>
      <trkpt lat="47.79898" lon="-3.62477">
        <ele>41</ele>
        <time>2018-07-18T10:14:52Z</time>
      </trkpt>
      <trkpt lat="47.79894" lon="-3.62476">
        <ele>41</ele>
        <time>2018-07-18T10:14:53Z</time>
      </trkpt>
      <trkpt lat="47.7989" lon="-3.62475">
        <ele>41</ele>
        <time>2018-07-18T10:14:54Z</time>
      </trkpt>
      <trkpt lat="47.79886" lon="-3.62474">
        <ele>40</ele>
        <time>2018-07-18T10:14:55Z</time>
      </trkpt>
      <trkpt lat="47.79882" lon="-3.62474">
        <ele>40</ele>
        <time>2018-07-18T10:14:56Z</time>
      </trkpt>
      <trkpt lat="47.79878" lon="-3.62473">
        <ele>40</ele>
        <time>2018-07-18T10:14:57Z</time>
      </trkpt>
      <trkpt lat="47.79873" lon="-3.62472">
        <ele>40</ele>
        <time>2018-07-18T10:14:58Z</time>
      </trkpt>
      <trkpt lat="47.79868" lon="-3.62472">
        <ele>40</ele>
        <time>2018-07-18T10:14:59Z</time>
      </trkpt>
      <trkpt lat="47.79863" lon="-3.62471">
        <ele>40</ele>
        <time>2018-07-18T10:15:00Z</time>
      </trkpt>
      <trkpt lat="47.79859" lon="-3.6247">
        <ele>40</ele>
        <time>2018-07-18T10:15:01Z</time>
      </trkpt>
      <trkpt lat="47.79854" lon="-3.6247">
        <ele>40</ele>
        <time>2018-07-18T10:15:02Z</time>
      </trkpt>
      <trkpt lat="47.7985" lon="-3.62469">
        <ele>40</ele>
        <time>2018-07-18T10:15:03Z</time>
      </trkpt>
      <trkpt lat="47.79845" lon="-3.62469">
        <ele>40</ele>
        <time>2018-07-18T10:15:04Z</time>
      </trkpt>
      <trkpt lat="47.79841" lon="-3.62468">
        <ele>40</ele>
        <time>2018-07-18T10:15:05Z</time>
      </trkpt>
      <trkpt lat="47.79837" lon="-3.62466">
        <ele>40</ele>
        <time>2018-07-18T10:15:06Z</time>
      </trkpt>
      <trkpt lat="47.79835" lon="-3.62464">
        <ele>40</ele>
        <time>2018-07-18T10:15:07Z</time>
      </trkpt>
      <trkpt lat="47.79834" lon="-3.6246">
        <ele>40</ele>
        <time>2018-07-18T10:15:08Z</time>
      </trkpt>
      <trkpt lat="47.79835" lon="-3.62458">
        <ele>40</ele>
        <time>2018-07-18T10:15:09Z</time>
      </trkpt>
      <trkpt lat="47.79836" lon="-3.62454">
        <ele>40</ele>
        <time>2018-07-18T10:15:10Z</time>
      </trkpt>
      <trkpt lat="47.79837" lon="-3.62451">
        <ele>40</ele>
        <time>2018-07-18T10:15:11Z</time>
      </trkpt>
      <trkpt lat="47.79839" lon="-3.62447">
        <ele>40</ele>
        <time>2018-07-18T10:15:12Z</time>
      </trkpt>
      <trkpt lat="47.79841" lon="-3.62444">
        <ele>40</ele>
        <time>2018-07-18T10:15:13Z</time>
      </trkpt>
      <trkpt lat="47.79844" lon="-3.6244">
        <ele>40</ele>
        <time>2018-07-18T10:15:14Z</time>
      </trkpt>
      <trkpt lat="47.79847" lon="-3.62436">
        <ele>40</ele>
        <time>2018-07-18T10:15:15Z</time>
      </trkpt>
      <trkpt lat="47.79849" lon="-3.62434">
        <ele>40</ele>
        <time>2018-07-18T10:15:16Z</time>
      </trkpt>
      <trkpt lat="47.79852" lon="-3.62431">
        <ele>40</ele>
        <time>2018-07-18T10:15:17Z</time>
      </trkpt>
      <trkpt lat="47.79855" lon="-3.62427">
        <ele>40</ele>
        <time>2018-07-18T10:15:18Z</time>
      </trkpt>
      <trkpt lat="47.79859" lon="-3.62422">
        <ele>41</ele>
        <time>2018-07-18T10:15:19Z</time>
      </trkpt>
      <trkpt lat="47.79862" lon="-3.62417">
        <ele>41</ele>
        <time>2018-07-18T10:15:20Z</time>
      </trkpt>
      <trkpt lat="47.79864" lon="-3.62413">
        <ele>41</ele>
        <time>2018-07-18T10:15:21Z</time>
      </trkpt>
      <trkpt lat="47.79866" lon="-3.6241">
        <ele>41</ele>
        <time>2018-07-18T10:15:22Z</time>
      </trkpt>
      <trkpt lat="47.79869" lon="-3.62405">
        <ele>41</ele>
        <time>2018-07-18T10:15:23Z</time>
      </trkpt>
      <trkpt lat="47.79871" lon="-3.62402">
        <ele>41</ele>
        <time>2018-07-18T10:15:24Z</time>
      </trkpt>
      <trkpt lat="47.79873" lon="-3.62398">
        <ele>41</ele>
        <time>2018-07-18T10:15:25Z</time>
      </trkpt>
      <trkpt lat="47.79875" lon="-3.62395">
        <ele>41</ele>
        <time>2018-07-18T10:15:26Z</time>
      </trkpt>
      <trkpt lat="47.79876" lon="-3.62391">
        <ele>41</ele>
        <time>2018-07-18T10:15:27Z</time>
      </trkpt>
      <trkpt lat="47.79879" lon="-3.62387">
        <ele>41</ele>
        <time>2018-07-18T10:15:28Z</time>
      </trkpt>
      <trkpt lat="47.79881" lon="-3.62384">
        <ele>41</ele>
        <time>2018-07-18T10:15:29Z</time>
      </trkpt>
      <trkpt lat="47.79883" lon="-3.62381">
        <ele>41</ele>
        <time>2018-07-18T10:15:30Z</time>
      </trkpt>
      <trkpt lat="47.79886" lon="-3.62377">
        <ele>41</ele>
        <time>2018-07-18T10:15:31Z</time>
      </trkpt>
      <trkpt lat="47.79889" lon="-3.62373">
        <ele>41</ele>
        <time>2018-07-18T10:15:32Z</time>
      </trkpt>
      <trkpt lat="47.79892" lon="-3.6237">
        <ele>42</ele>
        <time>2018-07-18T10:15:33Z</time>
      </trkpt>
      <trkpt lat="47.79894" lon="-3.62366">
        <ele>42</ele>
        <time>2018-07-18T10:15:34Z</time>
      </trkpt>
      <trkpt lat="47.79896" lon="-3.62363">
        <ele>42</ele>
        <time>2018-07-18T10:15:35Z</time>
      </trkpt>
      <trkpt lat="47.799" lon="-3.62359">
        <ele>42</ele>
        <time>2018-07-18T10:15:36Z</time>
      </trkpt>
      <trkpt lat="47.79903" lon="-3.62355">
        <ele>42</ele>
        <time>2018-07-18T10:15:37Z</time>
      </trkpt>
      <trkpt lat="47.79907" lon="-3.62351">
        <ele>42</ele>
        <time>2018-07-18T10:15:38Z</time>
      </trkpt>
      <trkpt lat="47.7991" lon="-3.62347">
        <ele>42</ele>
        <time>2018-07-18T10:15:39Z</time>
      </trkpt>
      <trkpt lat="47.79913" lon="-3.62343">
        <ele>42</ele>
        <time>2018-07-18T10:15:40Z</time>
      </trkpt>
      <trkpt lat="47.79916" lon="-3.6234">
        <ele>42</ele>
        <time>2018-07-18T10:15:41Z</time>
      </trkpt>
      <trkpt lat="47.7992" lon="-3.62336">
        <ele>42</ele>
        <time>2018-07-18T10:15:42Z</time>
      </trkpt>
      <trkpt lat="47.79923" lon="-3.62331">
        <ele>42</ele>
        <time>2018-07-18T10:15:43Z</time>
      </trkpt>
      <trkpt lat="47.79927" lon="-3.62327">
        <ele>43</ele>
        <time>2018-07-18T10:15:44Z</time>
      </trkpt>
      <trkpt lat="47.7993" lon="-3.62323">
        <ele>43</ele>
        <time>2018-07-18T10:15:45Z</time>
      </trkpt>
      <trkpt lat="47.79933" lon="-3.62319">
        <ele>43</ele>
        <time>2018-07-18T10:15:46Z</time>
      </trkpt>
      <trkpt lat="47.79936" lon="-3.62316">
        <ele>43</ele>
        <time>2018-07-18T10:15:47Z</time>
      </trkpt>
      <trkpt lat="47.79939" lon="-3.62311">
        <ele>43</ele>
        <time>2018-07-18T10:15:48Z</time>
      </trkpt>
      <trkpt lat="47.79942" lon="-3.62307">
        <ele>43</ele>
        <time>2018-07-18T10:15:49Z</time>
      </trkpt>
      <trkpt lat="47.79946" lon="-3.62303">
        <ele>43</ele>
        <time>2018-07-18T10:15:50Z</time>
      </trkpt>
      <trkpt lat="47.79949" lon="-3.62297">
        <ele>43</ele>
        <time>2018-07-18T10:15:51Z</time>
      </trkpt>
      <trkpt lat="47.79953" lon="-3.62293">
        <ele>43</ele>
        <time>2018-07-18T10:15:52Z</time>
      </trkpt>
      <trkpt lat="47.79957" lon="-3.62288">
        <ele>43</ele>
        <time>2018-07-18T10:15:53Z</time>
      </trkpt>
      <trkpt lat="47.7996" lon="-3.62284">
        <ele>44</ele>
        <time>2018-07-18T10:15:54Z</time>
      </trkpt>
      <trkpt lat="47.79963" lon="-3.6228">
        <ele>44</ele>
        <time>2018-07-18T10:15:55Z</time>
      </trkpt>
      <trkpt lat="47.79965" lon="-3.62276">
        <ele>44</ele>
        <time>2018-07-18T10:15:56Z</time>
      </trkpt>
      <trkpt lat="47.79968" lon="-3.62274">
        <ele>44</ele>
        <time>2018-07-18T10:15:57Z</time>
      </trkpt>
      <trkpt lat="47.79971" lon="-3.62272">
        <ele>44</ele>
        <time>2018-07-18T10:15:58Z</time>
      </trkpt>
      <trkpt lat="47.79975" lon="-3.6227">
        <ele>44</ele>
        <time>2018-07-18T10:15:59Z</time>
      </trkpt>
      <trkpt lat="47.79978" lon="-3.62265">
        <ele>44</ele>
        <time>2018-07-18T10:16:00Z</time>
      </trkpt>
      <trkpt lat="47.79981" lon="-3.62258">
        <ele>44</ele>
        <time>2018-07-18T10:16:01Z</time>
      </trkpt>
      <trkpt lat="47.79984" lon="-3.62251">
        <ele>44</ele>
        <time>2018-07-18T10:16:02Z</time>
      </trkpt>
      <trkpt lat="47.79986" lon="-3.62244">
        <ele>44</ele>
        <time>2018-07-18T10:16:03Z</time>
      </trkpt>
      <trkpt lat="47.79989" lon="-3.62238">
        <ele>44</ele>
        <time>2018-07-18T10:16:04Z</time>
      </trkpt>
      <trkpt lat="47.79991" lon="-3.62233">
        <ele>44</ele>
        <time>2018-07-18T10:16:05Z</time>
      </trkpt>
      <trkpt lat="47.79994" lon="-3.62228">
        <ele>44</ele>
        <time>2018-07-18T10:16:06Z</time>
      </trkpt>
      <trkpt lat="47.79995" lon="-3.62224">
        <ele>45</ele>
        <time>2018-07-18T10:16:07Z</time>
      </trkpt>
      <trkpt lat="47.79998" lon="-3.6222">
        <ele>45</ele>
        <time>2018-07-18T10:16:08Z</time>
      </trkpt>
      <trkpt lat="47.80001" lon="-3.62216">
        <ele>45</ele>
        <time>2018-07-18T10:16:09Z</time>
      </trkpt>
      <trkpt lat="47.80004" lon="-3.62212">
        <ele>45</ele>
        <time>2018-07-18T10:16:10Z</time>
      </trkpt>
      <trkpt lat="47.80006" lon="-3.6221">
        <ele>45</ele>
        <time>2018-07-18T10:16:11Z</time>
      </trkpt>
      <trkpt lat="47.80008" lon="-3.62207">
        <ele>45</ele>
        <time>2018-07-18T10:16:12Z</time>
      </trkpt>
      <trkpt lat="47.8001" lon="-3.62205">
        <ele>45</ele>
        <time>2018-07-18T10:16:13Z</time>
      </trkpt>
      <trkpt lat="47.80012" lon="-3.62204">
        <ele>45</ele>
        <time>2018-07-18T10:16:14Z</time>
      </trkpt>
      <trkpt lat="47.80013" lon="-3.62202">
        <ele>45</ele>
        <time>2018-07-18T10:16:15Z</time>
      </trkpt>
      <trkpt lat="47.80014" lon="-3.62201">
        <ele>45</ele>
        <time>2018-07-18T10:16:16Z</time>
      </trkpt>
      <trkpt lat="47.80015" lon="-3.622">
        <ele>46</ele>
        <time>2018-07-18T10:16:17Z</time>
      </trkpt>
      <trkpt lat="47.80016" lon="-3.62199">
        <ele>46</ele>
        <time>2018-07-18T10:16:18Z</time>
      </trkpt>
      <trkpt lat="47.80016" lon="-3.62198">
        <ele>46</ele>
        <time>2018-07-18T10:16:19Z</time>
      </trkpt>
      <trkpt lat="47.80017" lon="-3.62196">
        <ele>46</ele>
        <time>2018-07-18T10:16:20Z</time>
      </trkpt>
      <trkpt lat="47.80018" lon="-3.62194">
        <ele>46</ele>
        <time>2018-07-18T10:16:21Z</time>
      </trkpt>
      <trkpt lat="47.80019" lon="-3.62194">
        <ele>46</ele>
        <time>2018-07-18T10:16:22Z</time>
      </trkpt>
      <trkpt lat="47.8002" lon="-3.62192">
        <ele>46</ele>
        <time>2018-07-18T10:16:23Z</time>
      </trkpt>
      <trkpt lat="47.80021" lon="-3.62192">
        <ele>46</ele>
        <time>2018-07-18T10:16:24Z</time>
      </trkpt>
      <trkpt lat="47.80021" lon="-3.62191">
        <ele>46</ele>
        <time>2018-07-18T10:16:25Z</time>
      </trkpt>
      <trkpt lat="47.80022" lon="-3.6219">
        <ele>46</ele>
        <time>2018-07-18T10:16:26Z</time>
      </trkpt>
      <trkpt lat="47.80022" lon="-3.62189">
        <ele>47</ele>
        <time>2018-07-18T10:16:27Z</time>
      </trkpt>
      <trkpt lat="47.80023" lon="-3.62189">
        <ele>47</ele>
        <time>2018-07-18T10:16:28Z</time>
      </trkpt>
      <trkpt lat="47.80023" lon="-3.62188">
        <ele>47</ele>
        <time>2018-07-18T10:16:29Z</time>
      </trkpt>
      <trkpt lat="47.80024" lon="-3.62188">
        <ele>47</ele>
        <time>2018-07-18T10:16:30Z</time>
      </trkpt>
      <trkpt lat="47.80024" lon="-3.62187">
        <ele>47</ele>
        <time>2018-07-18T10:16:31Z</time>
      </trkpt>
      <trkpt lat="47.80029" lon="-3.62181">
        <ele>47</ele>
        <time>2018-07-18T10:16:32Z</time>
      </trkpt>
      <trkpt lat="47.8003" lon="-3.62178">
        <ele>47</ele>
        <time>2018-07-18T10:16:33Z</time>
      </trkpt>
      <trkpt lat="47.80032" lon="-3.62175">
        <ele>47</ele>
        <time>2018-07-18T10:16:34Z</time>
      </trkpt>
      <trkpt lat="47.80034" lon="-3.6217">
        <ele>47</ele>
        <time>2018-07-18T10:16:35Z</time>
      </trkpt>
      <trkpt lat="47.80037" lon="-3.62165">
        <ele>47</ele>
        <time>2018-07-18T10:16:36Z</time>
      </trkpt>
      <trkpt lat="47.80039" lon="-3.62158">
        <ele>47</ele>
        <time>2018-07-18T10:16:37Z</time>
      </trkpt>
      <trkpt lat="47.80041" lon="-3.62153">
        <ele>47</ele>
        <time>2018-07-18T10:16:38Z</time>
      </trkpt>
      <trkpt lat="47.80043" lon="-3.62148">
        <ele>47</ele>
        <time>2018-07-18T10:16:39Z</time>
      </trkpt>
      <trkpt lat="47.80045" lon="-3.62143">
        <ele>47</ele>
        <time>2018-07-18T10:16:40Z</time>
      </trkpt>
      <trkpt lat="47.80047" lon="-3.62138">
        <ele>47</ele>
        <time>2018-07-18T10:16:41Z</time>
      </trkpt>
      <trkpt lat="47.8005" lon="-3.62133">
        <ele>47</ele>
        <time>2018-07-18T10:16:42Z</time>
      </trkpt>
      <trkpt lat="47.80052" lon="-3.62128">
        <ele>47</ele>
        <time>2018-07-18T10:16:43Z</time>
      </trkpt>
      <trkpt lat="47.80054" lon="-3.62123">
        <ele>47</ele>
        <time>2018-07-18T10:16:44Z</time>
      </trkpt>
      <trkpt lat="47.80057" lon="-3.62117">
        <ele>47</ele>
        <time>2018-07-18T10:16:45Z</time>
      </trkpt>
      <trkpt lat="47.80059" lon="-3.62112">
        <ele>47</ele>
        <time>2018-07-18T10:16:46Z</time>
      </trkpt>
      <trkpt lat="47.80061" lon="-3.62106">
        <ele>47</ele>
        <time>2018-07-18T10:16:47Z</time>
      </trkpt>
      <trkpt lat="47.80064" lon="-3.62101">
        <ele>47</ele>
        <time>2018-07-18T10:16:48Z</time>
      </trkpt>
      <trkpt lat="47.80066" lon="-3.62096">
        <ele>47</ele>
        <time>2018-07-18T10:16:49Z</time>
      </trkpt>
      <trkpt lat="47.80069" lon="-3.6209">
        <ele>47</ele>
        <time>2018-07-18T10:16:50Z</time>
      </trkpt>
      <trkpt lat="47.80072" lon="-3.62084">
        <ele>48</ele>
        <time>2018-07-18T10:16:51Z</time>
      </trkpt>
      <trkpt lat="47.80075" lon="-3.62079">
        <ele>48</ele>
        <time>2018-07-18T10:16:52Z</time>
      </trkpt>
      <trkpt lat="47.80077" lon="-3.62073">
        <ele>48</ele>
        <time>2018-07-18T10:16:53Z</time>
      </trkpt>
      <trkpt lat="47.80079" lon="-3.62067">
        <ele>48</ele>
        <time>2018-07-18T10:16:54Z</time>
      </trkpt>
      <trkpt lat="47.8008" lon="-3.62061">
        <ele>48</ele>
        <time>2018-07-18T10:16:55Z</time>
      </trkpt>
      <trkpt lat="47.80081" lon="-3.62054">
        <ele>48</ele>
        <time>2018-07-18T10:16:56Z</time>
      </trkpt>
      <trkpt lat="47.80082" lon="-3.62048">
        <ele>49</ele>
        <time>2018-07-18T10:16:57Z</time>
      </trkpt>
      <trkpt lat="47.80083" lon="-3.62041">
        <ele>49</ele>
        <time>2018-07-18T10:16:58Z</time>
      </trkpt>
      <trkpt lat="47.80084" lon="-3.62035">
        <ele>49</ele>
        <time>2018-07-18T10:16:59Z</time>
      </trkpt>
      <trkpt lat="47.80085" lon="-3.62029">
        <ele>49</ele>
        <time>2018-07-18T10:17:00Z</time>
      </trkpt>
      <trkpt lat="47.80086" lon="-3.62022">
        <ele>49</ele>
        <time>2018-07-18T10:17:01Z</time>
      </trkpt>
      <trkpt lat="47.80087" lon="-3.62016">
        <ele>49</ele>
        <time>2018-07-18T10:17:02Z</time>
      </trkpt>
      <trkpt lat="47.80088" lon="-3.6201">
        <ele>49</ele>
        <time>2018-07-18T10:17:03Z</time>
      </trkpt>
      <trkpt lat="47.80091" lon="-3.62004">
        <ele>50</ele>
        <time>2018-07-18T10:17:04Z</time>
      </trkpt>
      <trkpt lat="47.80093" lon="-3.61999">
        <ele>50</ele>
        <time>2018-07-18T10:17:05Z</time>
      </trkpt>
      <trkpt lat="47.80095" lon="-3.61993">
        <ele>50</ele>
        <time>2018-07-18T10:17:06Z</time>
      </trkpt>
      <trkpt lat="47.80097" lon="-3.61987">
        <ele>50</ele>
        <time>2018-07-18T10:17:07Z</time>
      </trkpt>
      <trkpt lat="47.80099" lon="-3.61981">
        <ele>50</ele>
        <time>2018-07-18T10:17:08Z</time>
      </trkpt>
      <trkpt lat="47.80101" lon="-3.61975">
        <ele>50</ele>
        <time>2018-07-18T10:17:09Z</time>
      </trkpt>
      <trkpt lat="47.80102" lon="-3.61969">
        <ele>51</ele>
        <time>2018-07-18T10:17:10Z</time>
      </trkpt>
      <trkpt lat="47.80102" lon="-3.61965">
        <ele>51</ele>
        <time>2018-07-18T10:17:11Z</time>
      </trkpt>
      <trkpt lat="47.80103" lon="-3.61961">
        <ele>51</ele>
        <time>2018-07-18T10:17:12Z</time>
      </trkpt>
      <trkpt lat="47.80104" lon="-3.61955">
        <ele>51</ele>
        <time>2018-07-18T10:17:13Z</time>
      </trkpt>
      <trkpt lat="47.80105" lon="-3.61949">
        <ele>51</ele>
        <time>2018-07-18T10:17:14Z</time>
      </trkpt>
      <trkpt lat="47.80107" lon="-3.61944">
        <ele>51</ele>
        <time>2018-07-18T10:17:15Z</time>
      </trkpt>
      <trkpt lat="47.80108" lon="-3.61939">
        <ele>51</ele>
        <time>2018-07-18T10:17:16Z</time>
      </trkpt>
      <trkpt lat="47.80109" lon="-3.61934">
        <ele>51</ele>
        <time>2018-07-18T10:17:17Z</time>
      </trkpt>
      <trkpt lat="47.80112" lon="-3.61927">
        <ele>51</ele>
        <time>2018-07-18T10:17:18Z</time>
      </trkpt>
      <trkpt lat="47.80114" lon="-3.61922">
        <ele>51</ele>
        <time>2018-07-18T10:17:19Z</time>
      </trkpt>
      <trkpt lat="47.80116" lon="-3.61918">
        <ele>51</ele>
        <time>2018-07-18T10:17:20Z</time>
      </trkpt>
      <trkpt lat="47.80118" lon="-3.61915">
        <ele>51</ele>
        <time>2018-07-18T10:17:21Z</time>
      </trkpt>
      <trkpt lat="47.80121" lon="-3.61911">
        <ele>51</ele>
        <time>2018-07-18T10:17:22Z</time>
      </trkpt>
      <trkpt lat="47.80123" lon="-3.61908">
        <ele>51</ele>
        <time>2018-07-18T10:17:23Z</time>
      </trkpt>
      <trkpt lat="47.80125" lon="-3.61903">
        <ele>51</ele>
        <time>2018-07-18T10:17:24Z</time>
      </trkpt>
      <trkpt lat="47.80127" lon="-3.61898">
        <ele>51</ele>
        <time>2018-07-18T10:17:25Z</time>
      </trkpt>
      <trkpt lat="47.80129" lon="-3.61893">
        <ele>51</ele>
        <time>2018-07-18T10:17:26Z</time>
      </trkpt>
      <trkpt lat="47.80131" lon="-3.61888">
        <ele>51</ele>
        <time>2018-07-18T10:17:27Z</time>
      </trkpt>
      <trkpt lat="47.80131" lon="-3.61883">
        <ele>51</ele>
        <time>2018-07-18T10:17:28Z</time>
      </trkpt>
      <trkpt lat="47.80129" lon="-3.61877">
        <ele>52</ele>
        <time>2018-07-18T10:17:29Z</time>
      </trkpt>
      <trkpt lat="47.80127" lon="-3.61873">
        <ele>52</ele>
        <time>2018-07-18T10:17:30Z</time>
      </trkpt>
      <trkpt lat="47.80125" lon="-3.61869">
        <ele>52</ele>
        <time>2018-07-18T10:17:31Z</time>
      </trkpt>
      <trkpt lat="47.80123" lon="-3.61865">
        <ele>52</ele>
        <time>2018-07-18T10:17:32Z</time>
      </trkpt>
      <trkpt lat="47.8012" lon="-3.6186">
        <ele>52</ele>
        <time>2018-07-18T10:17:33Z</time>
      </trkpt>
      <trkpt lat="47.80117" lon="-3.61854">
        <ele>52</ele>
        <time>2018-07-18T10:17:34Z</time>
      </trkpt>
      <trkpt lat="47.80114" lon="-3.61849">
        <ele>53</ele>
        <time>2018-07-18T10:17:35Z</time>
      </trkpt>
      <trkpt lat="47.80112" lon="-3.61843">
        <ele>53</ele>
        <time>2018-07-18T10:17:36Z</time>
      </trkpt>
      <trkpt lat="47.80109" lon="-3.61837">
        <ele>53</ele>
        <time>2018-07-18T10:17:37Z</time>
      </trkpt>
      <trkpt lat="47.80106" lon="-3.61832">
        <ele>53</ele>
        <time>2018-07-18T10:17:38Z</time>
      </trkpt>
      <trkpt lat="47.80103" lon="-3.61826">
        <ele>53</ele>
        <time>2018-07-18T10:17:39Z</time>
      </trkpt>
      <trkpt lat="47.801" lon="-3.6182">
        <ele>53</ele>
        <time>2018-07-18T10:17:40Z</time>
      </trkpt>
      <trkpt lat="47.80098" lon="-3.61816">
        <ele>54</ele>
        <time>2018-07-18T10:17:41Z</time>
      </trkpt>
      <trkpt lat="47.80095" lon="-3.61811">
        <ele>54</ele>
        <time>2018-07-18T10:17:42Z</time>
      </trkpt>
      <trkpt lat="47.80093" lon="-3.61806">
        <ele>54</ele>
        <time>2018-07-18T10:17:43Z</time>
      </trkpt>
      <trkpt lat="47.8009" lon="-3.61802">
        <ele>54</ele>
        <time>2018-07-18T10:17:44Z</time>
      </trkpt>
      <trkpt lat="47.80088" lon="-3.61798">
        <ele>54</ele>
        <time>2018-07-18T10:17:45Z</time>
      </trkpt>
      <trkpt lat="47.80086" lon="-3.61794">
        <ele>55</ele>
        <time>2018-07-18T10:17:46Z</time>
      </trkpt>
      <trkpt lat="47.80083" lon="-3.61791">
        <ele>55</ele>
        <time>2018-07-18T10:17:47Z</time>
      </trkpt>
      <trkpt lat="47.8008" lon="-3.61787">
        <ele>55</ele>
        <time>2018-07-18T10:17:48Z</time>
      </trkpt>
      <trkpt lat="47.80076" lon="-3.61783">
        <ele>55</ele>
        <time>2018-07-18T10:17:49Z</time>
      </trkpt>
      <trkpt lat="47.80072" lon="-3.61779">
        <ele>55</ele>
        <time>2018-07-18T10:17:50Z</time>
      </trkpt>
      <trkpt lat="47.80067" lon="-3.61776">
        <ele>55</ele>
        <time>2018-07-18T10:17:51Z</time>
      </trkpt>
      <trkpt lat="47.80061" lon="-3.61772">
        <ele>55</ele>
        <time>2018-07-18T10:17:52Z</time>
      </trkpt>
      <trkpt lat="47.80056" lon="-3.61769">
        <ele>54</ele>
        <time>2018-07-18T10:17:53Z</time>
      </trkpt>
      <trkpt lat="47.80051" lon="-3.61765">
        <ele>54</ele>
        <time>2018-07-18T10:17:54Z</time>
      </trkpt>
      <trkpt lat="47.80046" lon="-3.61761">
        <ele>53</ele>
        <time>2018-07-18T10:17:55Z</time>
      </trkpt>
      <trkpt lat="47.80041" lon="-3.61758">
        <ele>53</ele>
        <time>2018-07-18T10:17:56Z</time>
      </trkpt>
      <trkpt lat="47.80036" lon="-3.61755">
        <ele>53</ele>
        <time>2018-07-18T10:17:57Z</time>
      </trkpt>
      <trkpt lat="47.80031" lon="-3.61752">
        <ele>52</ele>
        <time>2018-07-18T10:17:58Z</time>
      </trkpt>
      <trkpt lat="47.80027" lon="-3.6175">
        <ele>52</ele>
        <time>2018-07-18T10:17:59Z</time>
      </trkpt>
      <trkpt lat="47.80023" lon="-3.61748">
        <ele>52</ele>
        <time>2018-07-18T10:18:00Z</time>
      </trkpt>
      <trkpt lat="47.80018" lon="-3.61746">
        <ele>51</ele>
        <time>2018-07-18T10:18:01Z</time>
      </trkpt>
      <trkpt lat="47.80013" lon="-3.61744">
        <ele>51</ele>
        <time>2018-07-18T10:18:02Z</time>
      </trkpt>
      <trkpt lat="47.80008" lon="-3.61741">
        <ele>51</ele>
        <time>2018-07-18T10:18:03Z</time>
      </trkpt>
      <trkpt lat="47.80004" lon="-3.61739">
        <ele>51</ele>
        <time>2018-07-18T10:18:04Z</time>
      </trkpt>
      <trkpt lat="47.79999" lon="-3.61738">
        <ele>51</ele>
        <time>2018-07-18T10:18:05Z</time>
      </trkpt>
      <trkpt lat="47.79996" lon="-3.61736">
        <ele>51</ele>
        <time>2018-07-18T10:18:06Z</time>
      </trkpt>
      <trkpt lat="47.79994" lon="-3.61734">
        <ele>51</ele>
        <time>2018-07-18T10:18:07Z</time>
      </trkpt>
      <trkpt lat="47.79993" lon="-3.61732">
        <ele>51</ele>
        <time>2018-07-18T10:18:08Z</time>
      </trkpt>
      <trkpt lat="47.79992" lon="-3.61729">
        <ele>51</ele>
        <time>2018-07-18T10:18:09Z</time>
      </trkpt>
      <trkpt lat="47.79991" lon="-3.61726">
        <ele>51</ele>
        <time>2018-07-18T10:18:10Z</time>
      </trkpt>
      <trkpt lat="47.79991" lon="-3.61721">
        <ele>52</ele>
        <time>2018-07-18T10:18:11Z</time>
      </trkpt>
      <trkpt lat="47.7999" lon="-3.61715">
        <ele>52</ele>
        <time>2018-07-18T10:18:12Z</time>
      </trkpt>
      <trkpt lat="47.7999" lon="-3.6171">
        <ele>52</ele>
        <time>2018-07-18T10:18:13Z</time>
      </trkpt>
      <trkpt lat="47.7999" lon="-3.61705">
        <ele>52</ele>
        <time>2018-07-18T10:18:14Z</time>
      </trkpt>
      <trkpt lat="47.7999" lon="-3.617">
        <ele>52</ele>
        <time>2018-07-18T10:18:15Z</time>
      </trkpt>
      <trkpt lat="47.7999" lon="-3.61694">
        <ele>52</ele>
        <time>2018-07-18T10:18:16Z</time>
      </trkpt>
      <trkpt lat="47.79989" lon="-3.61688">
        <ele>53</ele>
        <time>2018-07-18T10:18:17Z</time>
      </trkpt>
      <trkpt lat="47.79989" lon="-3.61682">
        <ele>53</ele>
        <time>2018-07-18T10:18:18Z</time>
      </trkpt>
      <trkpt lat="47.79989" lon="-3.61676">
        <ele>53</ele>
        <time>2018-07-18T10:18:19Z</time>
      </trkpt>
      <trkpt lat="47.79988" lon="-3.61669">
        <ele>53</ele>
        <time>2018-07-18T10:18:20Z</time>
      </trkpt>
      <trkpt lat="47.79987" lon="-3.61664">
        <ele>53</ele>
        <time>2018-07-18T10:18:21Z</time>
      </trkpt>
      <trkpt lat="47.79985" lon="-3.6166">
        <ele>53</ele>
        <time>2018-07-18T10:18:22Z</time>
      </trkpt>
      <trkpt lat="47.79985" lon="-3.61656">
        <ele>53</ele>
        <time>2018-07-18T10:18:23Z</time>
      </trkpt>
      <trkpt lat="47.79984" lon="-3.61651">
        <ele>53</ele>
        <time>2018-07-18T10:18:24Z</time>
      </trkpt>
      <trkpt lat="47.79984" lon="-3.61647">
        <ele>53</ele>
        <time>2018-07-18T10:18:25Z</time>
      </trkpt>
      <trkpt lat="47.79984" lon="-3.61643">
        <ele>53</ele>
        <time>2018-07-18T10:18:26Z</time>
      </trkpt>
      <trkpt lat="47.79984" lon="-3.61638">
        <ele>53</ele>
        <time>2018-07-18T10:18:27Z</time>
      </trkpt>
      <trkpt lat="47.79984" lon="-3.61633">
        <ele>54</ele>
        <time>2018-07-18T10:18:28Z</time>
      </trkpt>
      <trkpt lat="47.79984" lon="-3.61629">
        <ele>54</ele>
        <time>2018-07-18T10:18:29Z</time>
      </trkpt>
      <trkpt lat="47.79984" lon="-3.61626">
        <ele>54</ele>
        <time>2018-07-18T10:18:30Z</time>
      </trkpt>
      <trkpt lat="47.79984" lon="-3.61623">
        <ele>54</ele>
        <time>2018-07-18T10:18:31Z</time>
      </trkpt>
      <trkpt lat="47.79984" lon="-3.61619">
        <ele>54</ele>
        <time>2018-07-18T10:18:32Z</time>
      </trkpt>
      <trkpt lat="47.79984" lon="-3.61614">
        <ele>55</ele>
        <time>2018-07-18T10:18:33Z</time>
      </trkpt>
      <trkpt lat="47.79983" lon="-3.6161">
        <ele>55</ele>
        <time>2018-07-18T10:18:34Z</time>
      </trkpt>
      <trkpt lat="47.79983" lon="-3.61607">
        <ele>55</ele>
        <time>2018-07-18T10:18:35Z</time>
      </trkpt>
      <trkpt lat="47.79985" lon="-3.61606">
        <ele>55</ele>
        <time>2018-07-18T10:18:36Z</time>
      </trkpt>
      <trkpt lat="47.79987" lon="-3.61604">
        <ele>55</ele>
        <time>2018-07-18T10:18:37Z</time>
      </trkpt>
      <trkpt lat="47.79989" lon="-3.61603">
        <ele>55</ele>
        <time>2018-07-18T10:18:38Z</time>
      </trkpt>
      <trkpt lat="47.79991" lon="-3.61601">
        <ele>55</ele>
        <time>2018-07-18T10:18:39Z</time>
      </trkpt>
      <trkpt lat="47.79994" lon="-3.616">
        <ele>54</ele>
        <time>2018-07-18T10:18:40Z</time>
      </trkpt>
      <trkpt lat="47.79997" lon="-3.61598">
        <ele>54</ele>
        <time>2018-07-18T10:18:41Z</time>
      </trkpt>
      <trkpt lat="47.80001" lon="-3.61598">
        <ele>54</ele>
        <time>2018-07-18T10:18:42Z</time>
      </trkpt>
      <trkpt lat="47.80004" lon="-3.61597">
        <ele>54</ele>
        <time>2018-07-18T10:18:43Z</time>
      </trkpt>
      <trkpt lat="47.80005" lon="-3.61596">
        <ele>54</ele>
        <time>2018-07-18T10:18:44Z</time>
      </trkpt>
      <trkpt lat="47.80007" lon="-3.61595">
        <ele>54</ele>
        <time>2018-07-18T10:18:45Z</time>
      </trkpt>
      <trkpt lat="47.80008" lon="-3.61593">
        <ele>54</ele>
        <time>2018-07-18T10:18:46Z</time>
      </trkpt>
      <trkpt lat="47.8001" lon="-3.61591">
        <ele>55</ele>
        <time>2018-07-18T10:18:47Z</time>
      </trkpt>
      <trkpt lat="47.80013" lon="-3.61588">
        <ele>55</ele>
        <time>2018-07-18T10:18:48Z</time>
      </trkpt>
      <trkpt lat="47.80015" lon="-3.61585">
        <ele>55</ele>
        <time>2018-07-18T10:18:49Z</time>
      </trkpt>
      <trkpt lat="47.80018" lon="-3.61583">
        <ele>55</ele>
        <time>2018-07-18T10:18:50Z</time>
      </trkpt>
      <trkpt lat="47.8002" lon="-3.6158">
        <ele>56</ele>
        <time>2018-07-18T10:18:51Z</time>
      </trkpt>
      <trkpt lat="47.80023" lon="-3.61576">
        <ele>56</ele>
        <time>2018-07-18T10:18:52Z</time>
      </trkpt>
      <trkpt lat="47.80026" lon="-3.61571">
        <ele>56</ele>
        <time>2018-07-18T10:18:53Z</time>
      </trkpt>
      <trkpt lat="47.8003" lon="-3.61566">
        <ele>57</ele>
        <time>2018-07-18T10:18:54Z</time>
      </trkpt>
      <trkpt lat="47.80033" lon="-3.6156">
        <ele>57</ele>
        <time>2018-07-18T10:18:55Z</time>
      </trkpt>
      <trkpt lat="47.80036" lon="-3.61554">
        <ele>57</ele>
        <time>2018-07-18T10:18:56Z</time>
      </trkpt>
      <trkpt lat="47.80038" lon="-3.6155">
        <ele>57</ele>
        <time>2018-07-18T10:18:57Z</time>
      </trkpt>
      <trkpt lat="47.80042" lon="-3.61545">
        <ele>57</ele>
        <time>2018-07-18T10:18:58Z</time>
      </trkpt>
      <trkpt lat="47.80044" lon="-3.61541">
        <ele>57</ele>
        <time>2018-07-18T10:18:59Z</time>
      </trkpt>
      <trkpt lat="47.80046" lon="-3.61538">
        <ele>57</ele>
        <time>2018-07-18T10:19:00Z</time>
      </trkpt>
      <trkpt lat="47.80048" lon="-3.61533">
        <ele>57</ele>
        <time>2018-07-18T10:19:01Z</time>
      </trkpt>
      <trkpt lat="47.80049" lon="-3.61528">
        <ele>58</ele>
        <time>2018-07-18T10:19:02Z</time>
      </trkpt>
      <trkpt lat="47.8005" lon="-3.61522">
        <ele>58</ele>
        <time>2018-07-18T10:19:03Z</time>
      </trkpt>
      <trkpt lat="47.8005" lon="-3.61516">
        <ele>58</ele>
        <time>2018-07-18T10:19:04Z</time>
      </trkpt>
      <trkpt lat="47.80052" lon="-3.6151">
        <ele>58</ele>
        <time>2018-07-18T10:19:05Z</time>
      </trkpt>
      <trkpt lat="47.80054" lon="-3.61503">
        <ele>58</ele>
        <time>2018-07-18T10:19:06Z</time>
      </trkpt>
      <trkpt lat="47.80054" lon="-3.61498">
        <ele>58</ele>
        <time>2018-07-18T10:19:07Z</time>
      </trkpt>
      <trkpt lat="47.80055" lon="-3.61492">
        <ele>58</ele>
        <time>2018-07-18T10:19:08Z</time>
      </trkpt>
      <trkpt lat="47.80056" lon="-3.61487">
        <ele>58</ele>
        <time>2018-07-18T10:19:09Z</time>
      </trkpt>
      <trkpt lat="47.80056" lon="-3.61482">
        <ele>58</ele>
        <time>2018-07-18T10:19:10Z</time>
      </trkpt>
      <trkpt lat="47.80058" lon="-3.61476">
        <ele>58</ele>
        <time>2018-07-18T10:19:11Z</time>
      </trkpt>
      <trkpt lat="47.80059" lon="-3.61472">
        <ele>58</ele>
        <time>2018-07-18T10:19:12Z</time>
      </trkpt>
      <trkpt lat="47.8006" lon="-3.61467">
        <ele>58</ele>
        <time>2018-07-18T10:19:13Z</time>
      </trkpt>
      <trkpt lat="47.80062" lon="-3.61463">
        <ele>58</ele>
        <time>2018-07-18T10:19:14Z</time>
      </trkpt>
      <trkpt lat="47.80063" lon="-3.6146">
        <ele>58</ele>
        <time>2018-07-18T10:19:15Z</time>
      </trkpt>
      <trkpt lat="47.80064" lon="-3.61456">
        <ele>58</ele>
        <time>2018-07-18T10:19:16Z</time>
      </trkpt>
      <trkpt lat="47.80066" lon="-3.6145">
        <ele>59</ele>
        <time>2018-07-18T10:19:17Z</time>
      </trkpt>
      <trkpt lat="47.80068" lon="-3.61444">
        <ele>59</ele>
        <time>2018-07-18T10:19:18Z</time>
      </trkpt>
      <trkpt lat="47.8007" lon="-3.61438">
        <ele>59</ele>
        <time>2018-07-18T10:19:19Z</time>
      </trkpt>
      <trkpt lat="47.80073" lon="-3.6143">
        <ele>59</ele>
        <time>2018-07-18T10:19:20Z</time>
      </trkpt>
      <trkpt lat="47.80075" lon="-3.61423">
        <ele>59</ele>
        <time>2018-07-18T10:19:21Z</time>
      </trkpt>
      <trkpt lat="47.80076" lon="-3.61416">
        <ele>59</ele>
        <time>2018-07-18T10:19:22Z</time>
      </trkpt>
      <trkpt lat="47.80077" lon="-3.61409">
        <ele>59</ele>
        <time>2018-07-18T10:19:23Z</time>
      </trkpt>
      <trkpt lat="47.80077" lon="-3.61401">
        <ele>59</ele>
        <time>2018-07-18T10:19:24Z</time>
      </trkpt>
      <trkpt lat="47.80077" lon="-3.61394">
        <ele>59</ele>
        <time>2018-07-18T10:19:25Z</time>
      </trkpt>
      <trkpt lat="47.80076" lon="-3.61388">
        <ele>59</ele>
        <time>2018-07-18T10:19:26Z</time>
      </trkpt>
      <trkpt lat="47.80076" lon="-3.61381">
        <ele>59</ele>
        <time>2018-07-18T10:19:27Z</time>
      </trkpt>
      <trkpt lat="47.80075" lon="-3.61374">
        <ele>59</ele>
        <time>2018-07-18T10:19:28Z</time>
      </trkpt>
      <trkpt lat="47.80073" lon="-3.61368">
        <ele>59</ele>
        <time>2018-07-18T10:19:29Z</time>
      </trkpt>
      <trkpt lat="47.80073" lon="-3.61364">
        <ele>58</ele>
        <time>2018-07-18T10:19:30Z</time>
      </trkpt>
      <trkpt lat="47.80072" lon="-3.6136">
        <ele>58</ele>
        <time>2018-07-18T10:19:31Z</time>
      </trkpt>
      <trkpt lat="47.80071" lon="-3.61356">
        <ele>58</ele>
        <time>2018-07-18T10:19:32Z</time>
      </trkpt>
      <trkpt lat="47.80069" lon="-3.61352">
        <ele>58</ele>
        <time>2018-07-18T10:19:33Z</time>
      </trkpt>
      <trkpt lat="47.80067" lon="-3.61347">
        <ele>58</ele>
        <time>2018-07-18T10:19:34Z</time>
      </trkpt>
      <trkpt lat="47.80065" lon="-3.61343">
        <ele>58</ele>
        <time>2018-07-18T10:19:35Z</time>
      </trkpt>
      <trkpt lat="47.80063" lon="-3.61339">
        <ele>58</ele>
        <time>2018-07-18T10:19:36Z</time>
      </trkpt>
      <trkpt lat="47.8006" lon="-3.61336">
        <ele>58</ele>
        <time>2018-07-18T10:19:37Z</time>
      </trkpt>
      <trkpt lat="47.80057" lon="-3.61332">
        <ele>57</ele>
        <time>2018-07-18T10:19:38Z</time>
      </trkpt>
      <trkpt lat="47.80055" lon="-3.61328">
        <ele>57</ele>
        <time>2018-07-18T10:19:39Z</time>
      </trkpt>
      <trkpt lat="47.80053" lon="-3.61325">
        <ele>57</ele>
        <time>2018-07-18T10:19:40Z</time>
      </trkpt>
      <trkpt lat="47.80051" lon="-3.61322">
        <ele>57</ele>
        <time>2018-07-18T10:19:41Z</time>
      </trkpt>
      <trkpt lat="47.8005" lon="-3.61318">
        <ele>57</ele>
        <time>2018-07-18T10:19:42Z</time>
      </trkpt>
      <trkpt lat="47.80048" lon="-3.61314">
        <ele>57</ele>
        <time>2018-07-18T10:19:43Z</time>
      </trkpt>
      <trkpt lat="47.80047" lon="-3.61308">
        <ele>57</ele>
        <time>2018-07-18T10:19:44Z</time>
      </trkpt>
      <trkpt lat="47.80046" lon="-3.61303">
        <ele>57</ele>
        <time>2018-07-18T10:19:45Z</time>
      </trkpt>
      <trkpt lat="47.80044" lon="-3.61297">
        <ele>57</ele>
        <time>2018-07-18T10:19:46Z</time>
      </trkpt>
      <trkpt lat="47.80044" lon="-3.61291">
        <ele>57</ele>
        <time>2018-07-18T10:19:47Z</time>
      </trkpt>
      <trkpt lat="47.80043" lon="-3.61285">
        <ele>57</ele>
        <time>2018-07-18T10:19:48Z</time>
      </trkpt>
      <trkpt lat="47.80042" lon="-3.61279">
        <ele>57</ele>
        <time>2018-07-18T10:19:49Z</time>
      </trkpt>
      <trkpt lat="47.80041" lon="-3.61273">
        <ele>57</ele>
        <time>2018-07-18T10:19:50Z</time>
      </trkpt>
      <trkpt lat="47.8004" lon="-3.61267">
        <ele>57</ele>
        <time>2018-07-18T10:19:51Z</time>
      </trkpt>
      <trkpt lat="47.80038" lon="-3.61261">
        <ele>57</ele>
        <time>2018-07-18T10:19:52Z</time>
      </trkpt>
      <trkpt lat="47.80037" lon="-3.61256">
        <ele>57</ele>
        <time>2018-07-18T10:19:53Z</time>
      </trkpt>
      <trkpt lat="47.80036" lon="-3.61249">
        <ele>57</ele>
        <time>2018-07-18T10:19:54Z</time>
      </trkpt>
      <trkpt lat="47.80036" lon="-3.61245">
        <ele>57</ele>
        <time>2018-07-18T10:19:55Z</time>
      </trkpt>
      <trkpt lat="47.80036" lon="-3.61243">
        <ele>56</ele>
        <time>2018-07-18T10:19:56Z</time>
      </trkpt>
      <trkpt lat="47.80036" lon="-3.61242">
        <ele>56</ele>
        <time>2018-07-18T10:19:57Z</time>
      </trkpt>
      <trkpt lat="47.80035" lon="-3.61241">
        <ele>56</ele>
        <time>2018-07-18T10:19:58Z</time>
      </trkpt>
      <trkpt lat="47.80034" lon="-3.6124">
        <ele>56</ele>
        <time>2018-07-18T10:19:59Z</time>
      </trkpt>
      <trkpt lat="47.80034" lon="-3.61238">
        <ele>56</ele>
        <time>2018-07-18T10:20:00Z</time>
      </trkpt>
      <trkpt lat="47.80033" lon="-3.61236">
        <ele>56</ele>
        <time>2018-07-18T10:20:01Z</time>
      </trkpt>
      <trkpt lat="47.80033" lon="-3.61233">
        <ele>56</ele>
        <time>2018-07-18T10:20:02Z</time>
      </trkpt>
      <trkpt lat="47.80033" lon="-3.61229">
        <ele>56</ele>
        <time>2018-07-18T10:20:03Z</time>
      </trkpt>
      <trkpt lat="47.80032" lon="-3.61226">
        <ele>56</ele>
        <time>2018-07-18T10:20:04Z</time>
      </trkpt>
      <trkpt lat="47.80031" lon="-3.61224">
        <ele>57</ele>
        <time>2018-07-18T10:20:05Z</time>
      </trkpt>
      <trkpt lat="47.80031" lon="-3.61221">
        <ele>57</ele>
        <time>2018-07-18T10:20:06Z</time>
      </trkpt>
      <trkpt lat="47.8003" lon="-3.61218">
        <ele>57</ele>
        <time>2018-07-18T10:20:07Z</time>
      </trkpt>
      <trkpt lat="47.80029" lon="-3.61214">
        <ele>57</ele>
        <time>2018-07-18T10:20:08Z</time>
      </trkpt>
      <trkpt lat="47.80029" lon="-3.61211">
        <ele>57</ele>
        <time>2018-07-18T10:20:09Z</time>
      </trkpt>
      <trkpt lat="47.80028" lon="-3.61207">
        <ele>57</ele>
        <time>2018-07-18T10:20:10Z</time>
      </trkpt>
      <trkpt lat="47.80027" lon="-3.61203">
        <ele>57</ele>
        <time>2018-07-18T10:20:11Z</time>
      </trkpt>
      <trkpt lat="47.80026" lon="-3.61199">
        <ele>57</ele>
        <time>2018-07-18T10:20:12Z</time>
      </trkpt>
      <trkpt lat="47.80024" lon="-3.61195">
        <ele>57</ele>
        <time>2018-07-18T10:20:13Z</time>
      </trkpt>
      <trkpt lat="47.80023" lon="-3.61193">
        <ele>57</ele>
        <time>2018-07-18T10:20:14Z</time>
      </trkpt>
      <trkpt lat="47.80021" lon="-3.6119">
        <ele>57</ele>
        <time>2018-07-18T10:20:15Z</time>
      </trkpt>
      <trkpt lat="47.80019" lon="-3.61188">
        <ele>57</ele>
        <time>2018-07-18T10:20:16Z</time>
      </trkpt>
      <trkpt lat="47.80017" lon="-3.61187">
        <ele>57</ele>
        <time>2018-07-18T10:20:17Z</time>
      </trkpt>
      <trkpt lat="47.80016" lon="-3.61186">
        <ele>57</ele>
        <time>2018-07-18T10:20:18Z</time>
      </trkpt>
      <trkpt lat="47.80014" lon="-3.61185">
        <ele>57</ele>
        <time>2018-07-18T10:20:19Z</time>
      </trkpt>
      <trkpt lat="47.80011" lon="-3.61186">
        <ele>58</ele>
        <time>2018-07-18T10:20:20Z</time>
      </trkpt>
      <trkpt lat="47.80008" lon="-3.61187">
        <ele>58</ele>
        <time>2018-07-18T10:20:21Z</time>
      </trkpt>
      <trkpt lat="47.80005" lon="-3.61188">
        <ele>58</ele>
        <time>2018-07-18T10:20:22Z</time>
      </trkpt>
      <trkpt lat="47.80002" lon="-3.61188">
        <ele>58</ele>
        <time>2018-07-18T10:20:23Z</time>
      </trkpt>
      <trkpt lat="47.79999" lon="-3.61188">
        <ele>58</ele>
        <time>2018-07-18T10:20:24Z</time>
      </trkpt>
      <trkpt lat="47.79996" lon="-3.61188">
        <ele>58</ele>
        <time>2018-07-18T10:20:25Z</time>
      </trkpt>
      <trkpt lat="47.79994" lon="-3.61187">
        <ele>58</ele>
        <time>2018-07-18T10:20:26Z</time>
      </trkpt>
      <trkpt lat="47.79992" lon="-3.61186">
        <ele>58</ele>
        <time>2018-07-18T10:20:27Z</time>
      </trkpt>
      <trkpt lat="47.79991" lon="-3.61184">
        <ele>58</ele>
        <time>2018-07-18T10:20:28Z</time>
      </trkpt>
      <trkpt lat="47.79989" lon="-3.61183">
        <ele>59</ele>
        <time>2018-07-18T10:20:29Z</time>
      </trkpt>
      <trkpt lat="47.79988" lon="-3.61183">
        <ele>59</ele>
        <time>2018-07-18T10:20:30Z</time>
      </trkpt>
      <trkpt lat="47.79985" lon="-3.61183">
        <ele>59</ele>
        <time>2018-07-18T10:20:31Z</time>
      </trkpt>
      <trkpt lat="47.79982" lon="-3.61183">
        <ele>59</ele>
        <time>2018-07-18T10:20:32Z</time>
      </trkpt>
      <trkpt lat="47.79981" lon="-3.61183">
        <ele>59</ele>
        <time>2018-07-18T10:20:33Z</time>
      </trkpt>
      <trkpt lat="47.7998" lon="-3.61182">
        <ele>59</ele>
        <time>2018-07-18T10:20:34Z</time>
      </trkpt>
      <trkpt lat="47.7998" lon="-3.61182">
        <ele>59</ele>
        <time>2018-07-18T10:20:35Z</time>
      </trkpt>
      <trkpt lat="47.79979" lon="-3.61182">
        <ele>59</ele>
        <time>2018-07-18T10:20:36Z</time>
      </trkpt>
      <trkpt lat="47.79979" lon="-3.61181">
        <ele>59</ele>
        <time>2018-07-18T10:20:37Z</time>
      </trkpt>
      <trkpt lat="47.79976" lon="-3.61181">
        <ele>59</ele>
        <time>2018-07-18T10:20:38Z</time>
      </trkpt>
      <trkpt lat="47.79975" lon="-3.61182">
        <ele>59</ele>
        <time>2018-07-18T10:20:39Z</time>
      </trkpt>
      <trkpt lat="47.79972" lon="-3.61183">
        <ele>59</ele>
        <time>2018-07-18T10:20:40Z</time>
      </trkpt>
      <trkpt lat="47.7997" lon="-3.61184">
        <ele>59</ele>
        <time>2018-07-18T10:20:41Z</time>
      </trkpt>
      <trkpt lat="47.79968" lon="-3.61185">
        <ele>59</ele>
        <time>2018-07-18T10:20:42Z</time>
      </trkpt>
      <trkpt lat="47.79965" lon="-3.61186">
        <ele>60</ele>
        <time>2018-07-18T10:20:43Z</time>
      </trkpt>
      <trkpt lat="47.79962" lon="-3.61187">
        <ele>60</ele>
        <time>2018-07-18T10:20:44Z</time>
      </trkpt>
      <trkpt lat="47.79958" lon="-3.61188">
        <ele>60</ele>
        <time>2018-07-18T10:20:45Z</time>
      </trkpt>
      <trkpt lat="47.79955" lon="-3.6119">
        <ele>60</ele>
        <time>2018-07-18T10:20:46Z</time>
      </trkpt>
      <trkpt lat="47.79952" lon="-3.61191">
        <ele>60</ele>
        <time>2018-07-18T10:20:47Z</time>
      </trkpt>
      <trkpt lat="47.79949" lon="-3.61192">
        <ele>60</ele>
        <time>2018-07-18T10:20:48Z</time>
      </trkpt>
      <trkpt lat="47.79946" lon="-3.61193">
        <ele>60</ele>
        <time>2018-07-18T10:20:49Z</time>
      </trkpt>
      <trkpt lat="47.79943" lon="-3.61193">
        <ele>60</ele>
        <time>2018-07-18T10:20:50Z</time>
      </trkpt>
      <trkpt lat="47.79939" lon="-3.61194">
        <ele>60</ele>
        <time>2018-07-18T10:20:51Z</time>
      </trkpt>
      <trkpt lat="47.79936" lon="-3.61197">
        <ele>60</ele>
        <time>2018-07-18T10:20:52Z</time>
      </trkpt>
      <trkpt lat="47.79932" lon="-3.612">
        <ele>60</ele>
        <time>2018-07-18T10:20:53Z</time>
      </trkpt>
      <trkpt lat="47.79929" lon="-3.61203">
        <ele>60</ele>
        <time>2018-07-18T10:20:54Z</time>
      </trkpt>
      <trkpt lat="47.79926" lon="-3.61206">
        <ele>60</ele>
        <time>2018-07-18T10:20:55Z</time>
      </trkpt>
      <trkpt lat="47.79923" lon="-3.6121">
        <ele>61</ele>
        <time>2018-07-18T10:20:56Z</time>
      </trkpt>
      <trkpt lat="47.7992" lon="-3.61213">
        <ele>61</ele>
        <time>2018-07-18T10:20:57Z</time>
      </trkpt>
      <trkpt lat="47.79918" lon="-3.61215">
        <ele>61</ele>
        <time>2018-07-18T10:20:58Z</time>
      </trkpt>
      <trkpt lat="47.79915" lon="-3.61218">
        <ele>61</ele>
        <time>2018-07-18T10:20:59Z</time>
      </trkpt>
      <trkpt lat="47.79911" lon="-3.61222">
        <ele>61</ele>
        <time>2018-07-18T10:21:00Z</time>
      </trkpt>
      <trkpt lat="47.79908" lon="-3.61225">
        <ele>61</ele>
        <time>2018-07-18T10:21:01Z</time>
      </trkpt>
      <trkpt lat="47.79905" lon="-3.61228">
        <ele>61</ele>
        <time>2018-07-18T10:21:02Z</time>
      </trkpt>
      <trkpt lat="47.79902" lon="-3.61231">
        <ele>62</ele>
        <time>2018-07-18T10:21:03Z</time>
      </trkpt>
      <trkpt lat="47.79899" lon="-3.61235">
        <ele>62</ele>
        <time>2018-07-18T10:21:04Z</time>
      </trkpt>
      <trkpt lat="47.79896" lon="-3.61239">
        <ele>62</ele>
        <time>2018-07-18T10:21:05Z</time>
      </trkpt>
      <trkpt lat="47.79893" lon="-3.61243">
        <ele>62</ele>
        <time>2018-07-18T10:21:06Z</time>
      </trkpt>
      <trkpt lat="47.79889" lon="-3.61248">
        <ele>62</ele>
        <time>2018-07-18T10:21:07Z</time>
      </trkpt>
      <trkpt lat="47.79886" lon="-3.61252">
        <ele>62</ele>
        <time>2018-07-18T10:21:08Z</time>
      </trkpt>
      <trkpt lat="47.79885" lon="-3.61253">
        <ele>62</ele>
        <time>2018-07-18T10:21:09Z</time>
      </trkpt>
      <trkpt lat="47.79884" lon="-3.61255">
        <ele>62</ele>
        <time>2018-07-18T10:21:10Z</time>
      </trkpt>
      <trkpt lat="47.79884" lon="-3.61255">
        <ele>61</ele>
        <time>2018-07-18T10:21:11Z</time>
      </trkpt>
      <trkpt lat="47.79883" lon="-3.61256">
        <ele>61</ele>
        <time>2018-07-18T10:21:12Z</time>
      </trkpt>
      <trkpt lat="47.79883" lon="-3.61256">
        <ele>61</ele>
        <time>2018-07-18T10:21:13Z</time>
      </trkpt>
      <trkpt lat="47.79883" lon="-3.61257">
        <ele>61</ele>
        <time>2018-07-18T10:21:14Z</time>
      </trkpt>
      <trkpt lat="47.79881" lon="-3.61259">
        <ele>60</ele>
        <time>2018-07-18T10:21:15Z</time>
      </trkpt>
      <trkpt lat="47.79882" lon="-3.61258">
        <ele>60</ele>
        <time>2018-07-18T10:21:16Z</time>
      </trkpt>
      <trkpt lat="47.79883" lon="-3.61258">
        <ele>59</ele>
        <time>2018-07-18T10:21:17Z</time>
      </trkpt>
      <trkpt lat="47.79884" lon="-3.61256">
        <ele>59</ele>
        <time>2018-07-18T10:21:18Z</time>
      </trkpt>
      <trkpt lat="47.79884" lon="-3.61256">
        <ele>59</ele>
        <time>2018-07-18T10:21:19Z</time>
      </trkpt>
      <trkpt lat="47.79885" lon="-3.61255">
        <ele>59</ele>
        <time>2018-07-18T10:21:20Z</time>
      </trkpt>
      <trkpt lat="47.79885" lon="-3.61255">
        <ele>59</ele>
        <time>2018-07-18T10:21:21Z</time>
      </trkpt>
      <trkpt lat="47.79886" lon="-3.61254">
        <ele>59</ele>
        <time>2018-07-18T10:21:22Z</time>
      </trkpt>
      <trkpt lat="47.79887" lon="-3.61254">
        <ele>59</ele>
        <time>2018-07-18T10:21:23Z</time>
      </trkpt>
      <trkpt lat="47.79888" lon="-3.61253">
        <ele>59</ele>
        <time>2018-07-18T10:21:24Z</time>
      </trkpt>
      <trkpt lat="47.79889" lon="-3.61252">
        <ele>59</ele>
        <time>2018-07-18T10:21:25Z</time>
      </trkpt>
      <trkpt lat="47.7989" lon="-3.6125">
        <ele>59</ele>
        <time>2018-07-18T10:21:26Z</time>
      </trkpt>
      <trkpt lat="47.79891" lon="-3.61249">
        <ele>59</ele>
        <time>2018-07-18T10:21:27Z</time>
      </trkpt>
      <trkpt lat="47.79892" lon="-3.61249">
        <ele>59</ele>
        <time>2018-07-18T10:21:28Z</time>
      </trkpt>
      <trkpt lat="47.79893" lon="-3.61248">
        <ele>59</ele>
        <time>2018-07-18T10:21:29Z</time>
      </trkpt>
      <trkpt lat="47.79894" lon="-3.61247">
        <ele>59</ele>
        <time>2018-07-18T10:21:30Z</time>
      </trkpt>
      <trkpt lat="47.79895" lon="-3.61246">
        <ele>59</ele>
        <time>2018-07-18T10:21:31Z</time>
      </trkpt>
      <trkpt lat="47.79896" lon="-3.61244">
        <ele>59</ele>
        <time>2018-07-18T10:21:32Z</time>
      </trkpt>
      <trkpt lat="47.79898" lon="-3.61242">
        <ele>59</ele>
        <time>2018-07-18T10:21:33Z</time>
      </trkpt>
      <trkpt lat="47.79899" lon="-3.6124">
        <ele>60</ele>
        <time>2018-07-18T10:21:34Z</time>
      </trkpt>
      <trkpt lat="47.79901" lon="-3.61237">
        <ele>60</ele>
        <time>2018-07-18T10:21:35Z</time>
      </trkpt>
      <trkpt lat="47.79902" lon="-3.61235">
        <ele>60</ele>
        <time>2018-07-18T10:21:36Z</time>
      </trkpt>
      <trkpt lat="47.79904" lon="-3.61233">
        <ele>60</ele>
        <time>2018-07-18T10:21:37Z</time>
      </trkpt>
      <trkpt lat="47.79905" lon="-3.6123">
        <ele>60</ele>
        <time>2018-07-18T10:21:38Z</time>
      </trkpt>
      <trkpt lat="47.79907" lon="-3.61228">
        <ele>60</ele>
        <time>2018-07-18T10:21:39Z</time>
      </trkpt>
      <trkpt lat="47.79909" lon="-3.61225">
        <ele>60</ele>
        <time>2018-07-18T10:21:40Z</time>
      </trkpt>
      <trkpt lat="47.79911" lon="-3.61224">
        <ele>60</ele>
        <time>2018-07-18T10:21:41Z</time>
      </trkpt>
      <trkpt lat="47.79912" lon="-3.61223">
        <ele>60</ele>
        <time>2018-07-18T10:21:42Z</time>
      </trkpt>
      <trkpt lat="47.79914" lon="-3.61223">
        <ele>60</ele>
        <time>2018-07-18T10:21:43Z</time>
      </trkpt>
      <trkpt lat="47.79916" lon="-3.61222">
        <ele>60</ele>
        <time>2018-07-18T10:21:44Z</time>
      </trkpt>
      <trkpt lat="47.79918" lon="-3.61221">
        <ele>60</ele>
        <time>2018-07-18T10:21:45Z</time>
      </trkpt>
      <trkpt lat="47.7992" lon="-3.61221">
        <ele>60</ele>
        <time>2018-07-18T10:21:46Z</time>
      </trkpt>
      <trkpt lat="47.79922" lon="-3.61221">
        <ele>60</ele>
        <time>2018-07-18T10:21:47Z</time>
      </trkpt>
      <trkpt lat="47.79923" lon="-3.6122">
        <ele>61</ele>
        <time>2018-07-18T10:21:48Z</time>
      </trkpt>
      <trkpt lat="47.79925" lon="-3.61219">
        <ele>61</ele>
        <time>2018-07-18T10:21:49Z</time>
      </trkpt>
      <trkpt lat="47.79927" lon="-3.61218">
        <ele>61</ele>
        <time>2018-07-18T10:21:50Z</time>
      </trkpt>
      <trkpt lat="47.7993" lon="-3.61216">
        <ele>61</ele>
        <time>2018-07-18T10:21:51Z</time>
      </trkpt>
      <trkpt lat="47.79932" lon="-3.61215">
        <ele>61</ele>
        <time>2018-07-18T10:21:52Z</time>
      </trkpt>
      <trkpt lat="47.79934" lon="-3.61214">
        <ele>61</ele>
        <time>2018-07-18T10:21:53Z</time>
      </trkpt>
      <trkpt lat="47.79936" lon="-3.61214">
        <ele>61</ele>
        <time>2018-07-18T10:21:54Z</time>
      </trkpt>
      <trkpt lat="47.79939" lon="-3.61213">
        <ele>61</ele>
        <time>2018-07-18T10:21:55Z</time>
      </trkpt>
      <trkpt lat="47.7994" lon="-3.61211">
        <ele>61</ele>
        <time>2018-07-18T10:21:56Z</time>
      </trkpt>
      <trkpt lat="47.79941" lon="-3.61209">
        <ele>61</ele>
        <time>2018-07-18T10:21:57Z</time>
      </trkpt>
      <trkpt lat="47.79942" lon="-3.61206">
        <ele>61</ele>
        <time>2018-07-18T10:21:58Z</time>
      </trkpt>
      <trkpt lat="47.79944" lon="-3.61202">
        <ele>61</ele>
        <time>2018-07-18T10:21:59Z</time>
      </trkpt>
      <trkpt lat="47.79945" lon="-3.61199">
        <ele>62</ele>
        <time>2018-07-18T10:22:00Z</time>
      </trkpt>
      <trkpt lat="47.79947" lon="-3.61197">
        <ele>62</ele>
        <time>2018-07-18T10:22:01Z</time>
      </trkpt>
      <trkpt lat="47.79947" lon="-3.61195">
        <ele>62</ele>
        <time>2018-07-18T10:22:02Z</time>
      </trkpt>
      <trkpt lat="47.79947" lon="-3.61193">
        <ele>62</ele>
        <time>2018-07-18T10:22:03Z</time>
      </trkpt>
      <trkpt lat="47.79947" lon="-3.6119">
        <ele>62</ele>
        <time>2018-07-18T10:22:04Z</time>
      </trkpt>
      <trkpt lat="47.79947" lon="-3.61188">
        <ele>62</ele>
        <time>2018-07-18T10:22:05Z</time>
      </trkpt>
      <trkpt lat="47.79946" lon="-3.61186">
        <ele>62</ele>
        <time>2018-07-18T10:22:06Z</time>
      </trkpt>
      <trkpt lat="47.79946" lon="-3.61183">
        <ele>62</ele>
        <time>2018-07-18T10:22:07Z</time>
      </trkpt>
      <trkpt lat="47.79945" lon="-3.61181">
        <ele>62</ele>
        <time>2018-07-18T10:22:08Z</time>
      </trkpt>
      <trkpt lat="47.79945" lon="-3.61178">
        <ele>62</ele>
        <time>2018-07-18T10:22:09Z</time>
      </trkpt>
      <trkpt lat="47.79945" lon="-3.61174">
        <ele>62</ele>
        <time>2018-07-18T10:22:10Z</time>
      </trkpt>
      <trkpt lat="47.79945" lon="-3.6117">
        <ele>62</ele>
        <time>2018-07-18T10:22:11Z</time>
      </trkpt>
      <trkpt lat="47.79945" lon="-3.61164">
        <ele>62</ele>
        <time>2018-07-18T10:22:12Z</time>
      </trkpt>
      <trkpt lat="47.79945" lon="-3.61159">
        <ele>62</ele>
        <time>2018-07-18T10:22:13Z</time>
      </trkpt>
      <trkpt lat="47.79945" lon="-3.61153">
        <ele>62</ele>
        <time>2018-07-18T10:22:14Z</time>
      </trkpt>
      <trkpt lat="47.79945" lon="-3.61148">
        <ele>61</ele>
        <time>2018-07-18T10:22:15Z</time>
      </trkpt>
      <trkpt lat="47.79945" lon="-3.61141">
        <ele>62</ele>
        <time>2018-07-18T10:22:16Z</time>
      </trkpt>
      <trkpt lat="47.79945" lon="-3.61135">
        <ele>62</ele>
        <time>2018-07-18T10:22:17Z</time>
      </trkpt>
      <trkpt lat="47.79945" lon="-3.61129">
        <ele>62</ele>
        <time>2018-07-18T10:22:18Z</time>
      </trkpt>
      <trkpt lat="47.79945" lon="-3.61124">
        <ele>62</ele>
        <time>2018-07-18T10:22:19Z</time>
      </trkpt>
      <trkpt lat="47.79945" lon="-3.61119">
        <ele>62</ele>
        <time>2018-07-18T10:22:20Z</time>
      </trkpt>
      <trkpt lat="47.79945" lon="-3.61113">
        <ele>62</ele>
        <time>2018-07-18T10:22:21Z</time>
      </trkpt>
      <trkpt lat="47.79946" lon="-3.61107">
        <ele>62</ele>
        <time>2018-07-18T10:22:22Z</time>
      </trkpt>
      <trkpt lat="47.79946" lon="-3.61101">
        <ele>62</ele>
        <time>2018-07-18T10:22:23Z</time>
      </trkpt>
      <trkpt lat="47.79946" lon="-3.61096">
        <ele>62</ele>
        <time>2018-07-18T10:22:24Z</time>
      </trkpt>
      <trkpt lat="47.79946" lon="-3.61091">
        <ele>62</ele>
        <time>2018-07-18T10:22:25Z</time>
      </trkpt>
      <trkpt lat="47.79946" lon="-3.61085">
        <ele>62</ele>
        <time>2018-07-18T10:22:26Z</time>
      </trkpt>
      <trkpt lat="47.79946" lon="-3.61081">
        <ele>63</ele>
        <time>2018-07-18T10:22:27Z</time>
      </trkpt>
      <trkpt lat="47.79946" lon="-3.61075">
        <ele>63</ele>
        <time>2018-07-18T10:22:28Z</time>
      </trkpt>
      <trkpt lat="47.79945" lon="-3.61071">
        <ele>63</ele>
        <time>2018-07-18T10:22:29Z</time>
      </trkpt>
      <trkpt lat="47.79944" lon="-3.61066">
        <ele>63</ele>
        <time>2018-07-18T10:22:30Z</time>
      </trkpt>
      <trkpt lat="47.79942" lon="-3.61062">
        <ele>63</ele>
        <time>2018-07-18T10:22:31Z</time>
      </trkpt>
      <trkpt lat="47.79941" lon="-3.61057">
        <ele>63</ele>
        <time>2018-07-18T10:22:32Z</time>
      </trkpt>
      <trkpt lat="47.7994" lon="-3.61052">
        <ele>63</ele>
        <time>2018-07-18T10:22:33Z</time>
      </trkpt>
      <trkpt lat="47.7994" lon="-3.61048">
        <ele>63</ele>
        <time>2018-07-18T10:22:34Z</time>
      </trkpt>
      <trkpt lat="47.7994" lon="-3.61046">
        <ele>63</ele>
        <time>2018-07-18T10:22:35Z</time>
      </trkpt>
      <trkpt lat="47.7994" lon="-3.61044">
        <ele>63</ele>
        <time>2018-07-18T10:22:36Z</time>
      </trkpt>
      <trkpt lat="47.79941" lon="-3.61042">
        <ele>63</ele>
        <time>2018-07-18T10:22:37Z</time>
      </trkpt>
      <trkpt lat="47.79942" lon="-3.61039">
        <ele>63</ele>
        <time>2018-07-18T10:22:38Z</time>
      </trkpt>
      <trkpt lat="47.79942" lon="-3.61036">
        <ele>63</ele>
        <time>2018-07-18T10:22:39Z</time>
      </trkpt>
      <trkpt lat="47.79943" lon="-3.61033">
        <ele>63</ele>
        <time>2018-07-18T10:22:40Z</time>
      </trkpt>
      <trkpt lat="47.79944" lon="-3.6103">
        <ele>63</ele>
        <time>2018-07-18T10:22:41Z</time>
      </trkpt>
      <trkpt lat="47.79945" lon="-3.61025">
        <ele>63</ele>
        <time>2018-07-18T10:22:42Z</time>
      </trkpt>
      <trkpt lat="47.79946" lon="-3.61019">
        <ele>63</ele>
        <time>2018-07-18T10:22:43Z</time>
      </trkpt>
      <trkpt lat="47.79948" lon="-3.61015">
        <ele>63</ele>
        <time>2018-07-18T10:22:44Z</time>
      </trkpt>
      <trkpt lat="47.7995" lon="-3.61012">
        <ele>63</ele>
        <time>2018-07-18T10:22:45Z</time>
      </trkpt>
      <trkpt lat="47.79952" lon="-3.61009">
        <ele>63</ele>
        <time>2018-07-18T10:22:46Z</time>
      </trkpt>
      <trkpt lat="47.79952" lon="-3.61006">
        <ele>63</ele>
        <time>2018-07-18T10:22:47Z</time>
      </trkpt>
      <trkpt lat="47.79953" lon="-3.61003">
        <ele>63</ele>
        <time>2018-07-18T10:22:48Z</time>
      </trkpt>
      <trkpt lat="47.79953" lon="-3.60999">
        <ele>63</ele>
        <time>2018-07-18T10:22:49Z</time>
      </trkpt>
      <trkpt lat="47.79953" lon="-3.60995">
        <ele>63</ele>
        <time>2018-07-18T10:22:50Z</time>
      </trkpt>
      <trkpt lat="47.79953" lon="-3.60993">
        <ele>63</ele>
        <time>2018-07-18T10:22:51Z</time>
      </trkpt>
      <trkpt lat="47.79953" lon="-3.60991">
        <ele>63</ele>
        <time>2018-07-18T10:22:52Z</time>
      </trkpt>
      <trkpt lat="47.79953" lon="-3.60989">
        <ele>62</ele>
        <time>2018-07-18T10:22:53Z</time>
      </trkpt>
      <trkpt lat="47.79953" lon="-3.60988">
        <ele>62</ele>
        <time>2018-07-18T10:22:54Z</time>
      </trkpt>
      <trkpt lat="47.79953" lon="-3.60987">
        <ele>62</ele>
        <time>2018-07-18T10:22:55Z</time>
      </trkpt>
      <trkpt lat="47.79953" lon="-3.60984">
        <ele>62</ele>
        <time>2018-07-18T10:22:56Z</time>
      </trkpt>
      <trkpt lat="47.79953" lon="-3.60983">
        <ele>62</ele>
        <time>2018-07-18T10:22:57Z</time>
      </trkpt>
      <trkpt lat="47.79953" lon="-3.60981">
        <ele>62</ele>
        <time>2018-07-18T10:22:58Z</time>
      </trkpt>
      <trkpt lat="47.79954" lon="-3.6098">
        <ele>62</ele>
        <time>2018-07-18T10:22:59Z</time>
      </trkpt>
      <trkpt lat="47.79954" lon="-3.60978">
        <ele>61</ele>
        <time>2018-07-18T10:23:00Z</time>
      </trkpt>
      <trkpt lat="47.79954" lon="-3.60977">
        <ele>61</ele>
        <time>2018-07-18T10:23:01Z</time>
      </trkpt>
      <trkpt lat="47.79955" lon="-3.60976">
        <ele>61</ele>
        <time>2018-07-18T10:23:02Z</time>
      </trkpt>
      <trkpt lat="47.79956" lon="-3.60975">
        <ele>61</ele>
        <time>2018-07-18T10:23:03Z</time>
      </trkpt>
      <trkpt lat="47.79957" lon="-3.60974">
        <ele>61</ele>
        <time>2018-07-18T10:23:04Z</time>
      </trkpt>
      <trkpt lat="47.79959" lon="-3.60972">
        <ele>60</ele>
        <time>2018-07-18T10:23:05Z</time>
      </trkpt>
      <trkpt lat="47.79961" lon="-3.6097">
        <ele>60</ele>
        <time>2018-07-18T10:23:06Z</time>
      </trkpt>
      <trkpt lat="47.79964" lon="-3.60969">
        <ele>60</ele>
        <time>2018-07-18T10:23:07Z</time>
      </trkpt>
      <trkpt lat="47.79966" lon="-3.60967">
        <ele>60</ele>
        <time>2018-07-18T10:23:08Z</time>
      </trkpt>
      <trkpt lat="47.79968" lon="-3.60964">
        <ele>60</ele>
        <time>2018-07-18T10:23:09Z</time>
      </trkpt>
      <trkpt lat="47.79971" lon="-3.60962">
        <ele>59</ele>
        <time>2018-07-18T10:23:10Z</time>
      </trkpt>
      <trkpt lat="47.79972" lon="-3.60959">
        <ele>59</ele>
        <time>2018-07-18T10:23:11Z</time>
      </trkpt>
      <trkpt lat="47.79975" lon="-3.60956">
        <ele>59</ele>
        <time>2018-07-18T10:23:12Z</time>
      </trkpt>
      <trkpt lat="47.79979" lon="-3.60953">
        <ele>59</ele>
        <time>2018-07-18T10:23:13Z</time>
      </trkpt>
      <trkpt lat="47.79981" lon="-3.60949">
        <ele>58</ele>
        <time>2018-07-18T10:23:14Z</time>
      </trkpt>
      <trkpt lat="47.79984" lon="-3.60946">
        <ele>58</ele>
        <time>2018-07-18T10:23:15Z</time>
      </trkpt>
      <trkpt lat="47.79987" lon="-3.60943">
        <ele>58</ele>
        <time>2018-07-18T10:23:16Z</time>
      </trkpt>
      <trkpt lat="47.79991" lon="-3.60939">
        <ele>58</ele>
        <time>2018-07-18T10:23:17Z</time>
      </trkpt>
      <trkpt lat="47.79995" lon="-3.60935">
        <ele>58</ele>
        <time>2018-07-18T10:23:18Z</time>
      </trkpt>
      <trkpt lat="47.79999" lon="-3.60931">
        <ele>57</ele>
        <time>2018-07-18T10:23:19Z</time>
      </trkpt>
      <trkpt lat="47.80003" lon="-3.60927">
        <ele>57</ele>
        <time>2018-07-18T10:23:20Z</time>
      </trkpt>
      <trkpt lat="47.80008" lon="-3.60924">
        <ele>57</ele>
        <time>2018-07-18T10:23:21Z</time>
      </trkpt>
      <trkpt lat="47.80012" lon="-3.6092">
        <ele>57</ele>
        <time>2018-07-18T10:23:22Z</time>
      </trkpt>
      <trkpt lat="47.80016" lon="-3.60917">
        <ele>57</ele>
        <time>2018-07-18T10:23:23Z</time>
      </trkpt>
      <trkpt lat="47.8002" lon="-3.60914">
        <ele>57</ele>
        <time>2018-07-18T10:23:24Z</time>
      </trkpt>
      <trkpt lat="47.80024" lon="-3.6091">
        <ele>57</ele>
        <time>2018-07-18T10:23:25Z</time>
      </trkpt>
      <trkpt lat="47.80028" lon="-3.60907">
        <ele>57</ele>
        <time>2018-07-18T10:23:26Z</time>
      </trkpt>
      <trkpt lat="47.80032" lon="-3.60903">
        <ele>57</ele>
        <time>2018-07-18T10:23:27Z</time>
      </trkpt>
      <trkpt lat="47.80037" lon="-3.60899">
        <ele>56</ele>
        <time>2018-07-18T10:23:28Z</time>
      </trkpt>
      <trkpt lat="47.80041" lon="-3.60895">
        <ele>56</ele>
        <time>2018-07-18T10:23:29Z</time>
      </trkpt>
      <trkpt lat="47.80045" lon="-3.60893">
        <ele>57</ele>
        <time>2018-07-18T10:23:30Z</time>
      </trkpt>
      <trkpt lat="47.8005" lon="-3.60889">
        <ele>57</ele>
        <time>2018-07-18T10:23:31Z</time>
      </trkpt>
      <trkpt lat="47.80054" lon="-3.60884">
        <ele>57</ele>
        <time>2018-07-18T10:23:32Z</time>
      </trkpt>
      <trkpt lat="47.80059" lon="-3.6088">
        <ele>57</ele>
        <time>2018-07-18T10:23:33Z</time>
      </trkpt>
      <trkpt lat="47.80064" lon="-3.60875">
        <ele>57</ele>
        <time>2018-07-18T10:23:34Z</time>
      </trkpt>
      <trkpt lat="47.80069" lon="-3.60871">
        <ele>57</ele>
        <time>2018-07-18T10:23:35Z</time>
      </trkpt>
      <trkpt lat="47.80074" lon="-3.60866">
        <ele>57</ele>
        <time>2018-07-18T10:23:36Z</time>
      </trkpt>
      <trkpt lat="47.8008" lon="-3.60861">
        <ele>57</ele>
        <time>2018-07-18T10:23:37Z</time>
      </trkpt>
      <trkpt lat="47.80085" lon="-3.60857">
        <ele>58</ele>
        <time>2018-07-18T10:23:38Z</time>
      </trkpt>
      <trkpt lat="47.80091" lon="-3.60852">
        <ele>58</ele>
        <time>2018-07-18T10:23:39Z</time>
      </trkpt>
      <trkpt lat="47.80096" lon="-3.60848">
        <ele>58</ele>
        <time>2018-07-18T10:23:40Z</time>
      </trkpt>
      <trkpt lat="47.80102" lon="-3.60844">
        <ele>58</ele>
        <time>2018-07-18T10:23:41Z</time>
      </trkpt>
      <trkpt lat="47.80107" lon="-3.6084">
        <ele>58</ele>
        <time>2018-07-18T10:23:42Z</time>
      </trkpt>
      <trkpt lat="47.80112" lon="-3.60836">
        <ele>58</ele>
        <time>2018-07-18T10:23:43Z</time>
      </trkpt>
      <trkpt lat="47.80118" lon="-3.60832">
        <ele>58</ele>
        <time>2018-07-18T10:23:44Z</time>
      </trkpt>
      <trkpt lat="47.80123" lon="-3.60828">
        <ele>58</ele>
        <time>2018-07-18T10:23:45Z</time>
      </trkpt>
      <trkpt lat="47.80129" lon="-3.60824">
        <ele>58</ele>
        <time>2018-07-18T10:23:46Z</time>
      </trkpt>
      <trkpt lat="47.80134" lon="-3.60819">
        <ele>58</ele>
        <time>2018-07-18T10:23:47Z</time>
      </trkpt>
      <trkpt lat="47.80139" lon="-3.60816">
        <ele>58</ele>
        <time>2018-07-18T10:23:48Z</time>
      </trkpt>
      <trkpt lat="47.80143" lon="-3.60812">
        <ele>58</ele>
        <time>2018-07-18T10:23:49Z</time>
      </trkpt>
      <trkpt lat="47.80148" lon="-3.60809">
        <ele>58</ele>
        <time>2018-07-18T10:23:50Z</time>
      </trkpt>
      <trkpt lat="47.80153" lon="-3.60806">
        <ele>58</ele>
        <time>2018-07-18T10:23:51Z</time>
      </trkpt>
      <trkpt lat="47.80157" lon="-3.60803">
        <ele>59</ele>
        <time>2018-07-18T10:23:52Z</time>
      </trkpt>
      <trkpt lat="47.80162" lon="-3.60802">
        <ele>59</ele>
        <time>2018-07-18T10:23:53Z</time>
      </trkpt>
      <trkpt lat="47.80165" lon="-3.60802">
        <ele>59</ele>
        <time>2018-07-18T10:23:54Z</time>
      </trkpt>
      <trkpt lat="47.80167" lon="-3.60802">
        <ele>59</ele>
        <time>2018-07-18T10:23:55Z</time>
      </trkpt>
      <trkpt lat="47.80168" lon="-3.60803">
        <ele>59</ele>
        <time>2018-07-18T10:23:56Z</time>
      </trkpt>
      <trkpt lat="47.80169" lon="-3.60805">
        <ele>59</ele>
        <time>2018-07-18T10:23:57Z</time>
      </trkpt>
      <trkpt lat="47.80171" lon="-3.60807">
        <ele>59</ele>
        <time>2018-07-18T10:23:58Z</time>
      </trkpt>
      <trkpt lat="47.80173" lon="-3.60812">
        <ele>59</ele>
        <time>2018-07-18T10:23:59Z</time>
      </trkpt>
      <trkpt lat="47.80175" lon="-3.60817">
        <ele>59</ele>
        <time>2018-07-18T10:24:00Z</time>
      </trkpt>
      <trkpt lat="47.80175" lon="-3.60823">
        <ele>59</ele>
        <time>2018-07-18T10:24:01Z</time>
      </trkpt>
      <trkpt lat="47.80176" lon="-3.60829">
        <ele>59</ele>
        <time>2018-07-18T10:24:02Z</time>
      </trkpt>
      <trkpt lat="47.80176" lon="-3.60836">
        <ele>59</ele>
        <time>2018-07-18T10:24:03Z</time>
      </trkpt>
      <trkpt lat="47.80176" lon="-3.60843">
        <ele>59</ele>
        <time>2018-07-18T10:24:04Z</time>
      </trkpt>
      <trkpt lat="47.80176" lon="-3.60851">
        <ele>59</ele>
        <time>2018-07-18T10:24:05Z</time>
      </trkpt>
      <trkpt lat="47.80176" lon="-3.60858">
        <ele>59</ele>
        <time>2018-07-18T10:24:06Z</time>
      </trkpt>
      <trkpt lat="47.80176" lon="-3.60866">
        <ele>59</ele>
        <time>2018-07-18T10:24:07Z</time>
      </trkpt>
      <trkpt lat="47.80177" lon="-3.60874">
        <ele>59</ele>
        <time>2018-07-18T10:24:08Z</time>
      </trkpt>
      <trkpt lat="47.80177" lon="-3.60882">
        <ele>59</ele>
        <time>2018-07-18T10:24:09Z</time>
      </trkpt>
      <trkpt lat="47.80177" lon="-3.6089">
        <ele>59</ele>
        <time>2018-07-18T10:24:10Z</time>
      </trkpt>
      <trkpt lat="47.80177" lon="-3.60899">
        <ele>59</ele>
        <time>2018-07-18T10:24:11Z</time>
      </trkpt>
      <trkpt lat="47.80177" lon="-3.60907">
        <ele>59</ele>
        <time>2018-07-18T10:24:12Z</time>
      </trkpt>
      <trkpt lat="47.80177" lon="-3.60916">
        <ele>59</ele>
        <time>2018-07-18T10:24:13Z</time>
      </trkpt>
      <trkpt lat="47.80177" lon="-3.60925">
        <ele>59</ele>
        <time>2018-07-18T10:24:14Z</time>
      </trkpt>
      <trkpt lat="47.80177" lon="-3.60934">
        <ele>59</ele>
        <time>2018-07-18T10:24:15Z</time>
      </trkpt>
      <trkpt lat="47.80177" lon="-3.60942">
        <ele>59</ele>
        <time>2018-07-18T10:24:16Z</time>
      </trkpt>
      <trkpt lat="47.80177" lon="-3.60951">
        <ele>58</ele>
        <time>2018-07-18T10:24:17Z</time>
      </trkpt>
      <trkpt lat="47.80177" lon="-3.6096">
        <ele>58</ele>
        <time>2018-07-18T10:24:18Z</time>
      </trkpt>
      <trkpt lat="47.80177" lon="-3.60969">
        <ele>58</ele>
        <time>2018-07-18T10:24:19Z</time>
      </trkpt>
      <trkpt lat="47.80177" lon="-3.60978">
        <ele>58</ele>
        <time>2018-07-18T10:24:20Z</time>
      </trkpt>
      <trkpt lat="47.80177" lon="-3.60987">
        <ele>58</ele>
        <time>2018-07-18T10:24:21Z</time>
      </trkpt>
      <trkpt lat="47.80177" lon="-3.60996">
        <ele>58</ele>
        <time>2018-07-18T10:24:22Z</time>
      </trkpt>
      <trkpt lat="47.80177" lon="-3.61005">
        <ele>58</ele>
        <time>2018-07-18T10:24:23Z</time>
      </trkpt>
      <trkpt lat="47.80177" lon="-3.61014">
        <ele>58</ele>
        <time>2018-07-18T10:24:24Z</time>
      </trkpt>
      <trkpt lat="47.80177" lon="-3.61023">
        <ele>58</ele>
        <time>2018-07-18T10:24:25Z</time>
      </trkpt>
      <trkpt lat="47.80177" lon="-3.61032">
        <ele>58</ele>
        <time>2018-07-18T10:24:26Z</time>
      </trkpt>
      <trkpt lat="47.80177" lon="-3.6104">
        <ele>58</ele>
        <time>2018-07-18T10:24:27Z</time>
      </trkpt>
      <trkpt lat="47.80177" lon="-3.61049">
        <ele>58</ele>
        <time>2018-07-18T10:24:28Z</time>
      </trkpt>
      <trkpt lat="47.80177" lon="-3.61057">
        <ele>58</ele>
        <time>2018-07-18T10:24:29Z</time>
      </trkpt>
      <trkpt lat="47.80177" lon="-3.61065">
        <ele>58</ele>
        <time>2018-07-18T10:24:30Z</time>
      </trkpt>
      <trkpt lat="47.80177" lon="-3.61073">
        <ele>58</ele>
        <time>2018-07-18T10:24:31Z</time>
      </trkpt>
      <trkpt lat="47.80177" lon="-3.6108">
        <ele>58</ele>
        <time>2018-07-18T10:24:32Z</time>
      </trkpt>
      <trkpt lat="47.80177" lon="-3.61086">
        <ele>58</ele>
        <time>2018-07-18T10:24:33Z</time>
      </trkpt>
      <trkpt lat="47.80178" lon="-3.61091">
        <ele>58</ele>
        <time>2018-07-18T10:24:34Z</time>
      </trkpt>
      <trkpt lat="47.80179" lon="-3.61093">
        <ele>58</ele>
        <time>2018-07-18T10:24:35Z</time>
      </trkpt>
      <trkpt lat="47.80179" lon="-3.61094">
        <ele>58</ele>
        <time>2018-07-18T10:24:36Z</time>
      </trkpt>
      <trkpt lat="47.80179" lon="-3.61094">
        <ele>58</ele>
        <time>2018-07-18T10:24:37Z</time>
      </trkpt>
      <trkpt lat="47.80179" lon="-3.61095">
        <ele>58</ele>
        <time>2018-07-18T10:24:38Z</time>
      </trkpt>
      <trkpt lat="47.80179" lon="-3.61095">
        <ele>58</ele>
        <time>2018-07-18T10:24:39Z</time>
      </trkpt>
      <trkpt lat="47.80178" lon="-3.61099">
        <ele>59</ele>
        <time>2018-07-18T10:24:40Z</time>
      </trkpt>
      <trkpt lat="47.80178" lon="-3.61101">
        <ele>59</ele>
        <time>2018-07-18T10:24:41Z</time>
      </trkpt>
      <trkpt lat="47.80178" lon="-3.61104">
        <ele>59</ele>
        <time>2018-07-18T10:24:42Z</time>
      </trkpt>
      <trkpt lat="47.80177" lon="-3.61108">
        <ele>59</ele>
        <time>2018-07-18T10:24:43Z</time>
      </trkpt>
      <trkpt lat="47.80177" lon="-3.61113">
        <ele>59</ele>
        <time>2018-07-18T10:24:44Z</time>
      </trkpt>
      <trkpt lat="47.80176" lon="-3.61117">
        <ele>59</ele>
        <time>2018-07-18T10:24:45Z</time>
      </trkpt>
      <trkpt lat="47.80176" lon="-3.61122">
        <ele>59</ele>
        <time>2018-07-18T10:24:46Z</time>
      </trkpt>
      <trkpt lat="47.80175" lon="-3.61129">
        <ele>59</ele>
        <time>2018-07-18T10:24:47Z</time>
      </trkpt>
      <trkpt lat="47.80176" lon="-3.61135">
        <ele>59</ele>
        <time>2018-07-18T10:24:48Z</time>
      </trkpt>
      <trkpt lat="47.80176" lon="-3.61142">
        <ele>59</ele>
        <time>2018-07-18T10:24:49Z</time>
      </trkpt>
      <trkpt lat="47.80175" lon="-3.61149">
        <ele>59</ele>
        <time>2018-07-18T10:24:50Z</time>
      </trkpt>
      <trkpt lat="47.80175" lon="-3.61157">
        <ele>59</ele>
        <time>2018-07-18T10:24:51Z</time>
      </trkpt>
      <trkpt lat="47.80175" lon="-3.61164">
        <ele>59</ele>
        <time>2018-07-18T10:24:52Z</time>
      </trkpt>
      <trkpt lat="47.80175" lon="-3.61172">
        <ele>59</ele>
        <time>2018-07-18T10:24:53Z</time>
      </trkpt>
      <trkpt lat="47.80175" lon="-3.6118">
        <ele>59</ele>
        <time>2018-07-18T10:24:54Z</time>
      </trkpt>
      <trkpt lat="47.80175" lon="-3.61187">
        <ele>60</ele>
        <time>2018-07-18T10:24:55Z</time>
      </trkpt>
      <trkpt lat="47.80175" lon="-3.61195">
        <ele>60</ele>
        <time>2018-07-18T10:24:56Z</time>
      </trkpt>
      <trkpt lat="47.80176" lon="-3.61202">
        <ele>60</ele>
        <time>2018-07-18T10:24:57Z</time>
      </trkpt>
      <trkpt lat="47.80176" lon="-3.6121">
        <ele>59</ele>
        <time>2018-07-18T10:24:58Z</time>
      </trkpt>
      <trkpt lat="47.80175" lon="-3.61218">
        <ele>60</ele>
        <time>2018-07-18T10:24:59Z</time>
      </trkpt>
      <trkpt lat="47.80175" lon="-3.61226">
        <ele>60</ele>
        <time>2018-07-18T10:25:00Z</time>
      </trkpt>
      <trkpt lat="47.80176" lon="-3.61235">
        <ele>60</ele>
        <time>2018-07-18T10:25:01Z</time>
      </trkpt>
      <trkpt lat="47.80176" lon="-3.61244">
        <ele>60</ele>
        <time>2018-07-18T10:25:02Z</time>
      </trkpt>
      <trkpt lat="47.80176" lon="-3.61253">
        <ele>59</ele>
        <time>2018-07-18T10:25:03Z</time>
      </trkpt>
      <trkpt lat="47.80176" lon="-3.61262">
        <ele>59</ele>
        <time>2018-07-18T10:25:04Z</time>
      </trkpt>
      <trkpt lat="47.80176" lon="-3.61272">
        <ele>59</ele>
        <time>2018-07-18T10:25:05Z</time>
      </trkpt>
      <trkpt lat="47.80177" lon="-3.61281">
        <ele>59</ele>
        <time>2018-07-18T10:25:06Z</time>
      </trkpt>
      <trkpt lat="47.80177" lon="-3.6129">
        <ele>59</ele>
        <time>2018-07-18T10:25:07Z</time>
      </trkpt>
      <trkpt lat="47.80178" lon="-3.61299">
        <ele>58</ele>
        <time>2018-07-18T10:25:08Z</time>
      </trkpt>
      <trkpt lat="47.80178" lon="-3.61308">
        <ele>58</ele>
        <time>2018-07-18T10:25:09Z</time>
      </trkpt>
      <trkpt lat="47.80178" lon="-3.61317">
        <ele>58</ele>
        <time>2018-07-18T10:25:10Z</time>
      </trkpt>
      <trkpt lat="47.80179" lon="-3.61326">
        <ele>58</ele>
        <time>2018-07-18T10:25:11Z</time>
      </trkpt>
      <trkpt lat="47.80179" lon="-3.61335">
        <ele>57</ele>
        <time>2018-07-18T10:25:12Z</time>
      </trkpt>
      <trkpt lat="47.80179" lon="-3.61344">
        <ele>57</ele>
        <time>2018-07-18T10:25:13Z</time>
      </trkpt>
      <trkpt lat="47.8018" lon="-3.61352">
        <ele>57</ele>
        <time>2018-07-18T10:25:14Z</time>
      </trkpt>
      <trkpt lat="47.80181" lon="-3.61361">
        <ele>57</ele>
        <time>2018-07-18T10:25:15Z</time>
      </trkpt>
      <trkpt lat="47.80182" lon="-3.6137">
        <ele>57</ele>
        <time>2018-07-18T10:25:16Z</time>
      </trkpt>
      <trkpt lat="47.80185" lon="-3.61377">
        <ele>56</ele>
        <time>2018-07-18T10:25:17Z</time>
      </trkpt>
      <trkpt lat="47.80189" lon="-3.61383">
        <ele>56</ele>
        <time>2018-07-18T10:25:18Z</time>
      </trkpt>
      <trkpt lat="47.80195" lon="-3.61387">
        <ele>56</ele>
        <time>2018-07-18T10:25:19Z</time>
      </trkpt>
      <trkpt lat="47.802" lon="-3.61389">
        <ele>56</ele>
        <time>2018-07-18T10:25:20Z</time>
      </trkpt>
      <trkpt lat="47.80205" lon="-3.6139">
        <ele>56</ele>
        <time>2018-07-18T10:25:21Z</time>
      </trkpt>
      <trkpt lat="47.80211" lon="-3.6139">
        <ele>56</ele>
        <time>2018-07-18T10:25:22Z</time>
      </trkpt>
      <trkpt lat="47.80217" lon="-3.61391">
        <ele>56</ele>
        <time>2018-07-18T10:25:23Z</time>
      </trkpt>
      <trkpt lat="47.80222" lon="-3.61391">
        <ele>56</ele>
        <time>2018-07-18T10:25:24Z</time>
      </trkpt>
      <trkpt lat="47.80228" lon="-3.61392">
        <ele>57</ele>
        <time>2018-07-18T10:25:25Z</time>
      </trkpt>
      <trkpt lat="47.80234" lon="-3.61393">
        <ele>57</ele>
        <time>2018-07-18T10:25:26Z</time>
      </trkpt>
      <trkpt lat="47.8024" lon="-3.61393">
        <ele>57</ele>
        <time>2018-07-18T10:25:27Z</time>
      </trkpt>
      <trkpt lat="47.80246" lon="-3.61394">
        <ele>56</ele>
        <time>2018-07-18T10:25:28Z</time>
      </trkpt>
      <trkpt lat="47.80252" lon="-3.61394">
        <ele>56</ele>
        <time>2018-07-18T10:25:29Z</time>
      </trkpt>
      <trkpt lat="47.80258" lon="-3.61394">
        <ele>56</ele>
        <time>2018-07-18T10:25:30Z</time>
      </trkpt>
      <trkpt lat="47.80264" lon="-3.61395">
        <ele>56</ele>
        <time>2018-07-18T10:25:31Z</time>
      </trkpt>
      <trkpt lat="47.80271" lon="-3.61395">
        <ele>56</ele>
        <time>2018-07-18T10:25:32Z</time>
      </trkpt>
      <trkpt lat="47.80277" lon="-3.61396">
        <ele>56</ele>
        <time>2018-07-18T10:25:33Z</time>
      </trkpt>
      <trkpt lat="47.80283" lon="-3.61396">
        <ele>56</ele>
        <time>2018-07-18T10:25:34Z</time>
      </trkpt>
      <trkpt lat="47.8029" lon="-3.61396">
        <ele>56</ele>
        <time>2018-07-18T10:25:35Z</time>
      </trkpt>
      <trkpt lat="47.80296" lon="-3.61397">
        <ele>56</ele>
        <time>2018-07-18T10:25:36Z</time>
      </trkpt>
      <trkpt lat="47.80302" lon="-3.61397">
        <ele>55</ele>
        <time>2018-07-18T10:25:37Z</time>
      </trkpt>
      <trkpt lat="47.80308" lon="-3.61397">
        <ele>55</ele>
        <time>2018-07-18T10:25:38Z</time>
      </trkpt>
      <trkpt lat="47.80315" lon="-3.61398">
        <ele>55</ele>
        <time>2018-07-18T10:25:39Z</time>
      </trkpt>
      <trkpt lat="47.80321" lon="-3.61399">
        <ele>55</ele>
        <time>2018-07-18T10:25:40Z</time>
      </trkpt>
      <trkpt lat="47.80327" lon="-3.61399">
        <ele>55</ele>
        <time>2018-07-18T10:25:41Z</time>
      </trkpt>
      <trkpt lat="47.80334" lon="-3.61399">
        <ele>55</ele>
        <time>2018-07-18T10:25:42Z</time>
      </trkpt>
      <trkpt lat="47.8034" lon="-3.61399">
        <ele>55</ele>
        <time>2018-07-18T10:25:43Z</time>
      </trkpt>
      <trkpt lat="47.80347" lon="-3.61399">
        <ele>54</ele>
        <time>2018-07-18T10:25:44Z</time>
      </trkpt>
      <trkpt lat="47.80353" lon="-3.61399">
        <ele>54</ele>
        <time>2018-07-18T10:25:45Z</time>
      </trkpt>
      <trkpt lat="47.8036" lon="-3.61399">
        <ele>54</ele>
        <time>2018-07-18T10:25:46Z</time>
      </trkpt>
      <trkpt lat="47.80366" lon="-3.61399">
        <ele>54</ele>
        <time>2018-07-18T10:25:47Z</time>
      </trkpt>
      <trkpt lat="47.80373" lon="-3.61398">
        <ele>54</ele>
        <time>2018-07-18T10:25:48Z</time>
      </trkpt>
      <trkpt lat="47.8038" lon="-3.61397">
        <ele>54</ele>
        <time>2018-07-18T10:25:49Z</time>
      </trkpt>
      <trkpt lat="47.80386" lon="-3.61396">
        <ele>54</ele>
        <time>2018-07-18T10:25:50Z</time>
      </trkpt>
      <trkpt lat="47.80393" lon="-3.61395">
        <ele>54</ele>
        <time>2018-07-18T10:25:51Z</time>
      </trkpt>
      <trkpt lat="47.80399" lon="-3.61393">
        <ele>54</ele>
        <time>2018-07-18T10:25:52Z</time>
      </trkpt>
      <trkpt lat="47.80405" lon="-3.61391">
        <ele>54</ele>
        <time>2018-07-18T10:25:53Z</time>
      </trkpt>
      <trkpt lat="47.80412" lon="-3.61389">
        <ele>53</ele>
        <time>2018-07-18T10:25:54Z</time>
      </trkpt>
      <trkpt lat="47.80418" lon="-3.61387">
        <ele>53</ele>
        <time>2018-07-18T10:25:55Z</time>
      </trkpt>
      <trkpt lat="47.80424" lon="-3.61384">
        <ele>53</ele>
        <time>2018-07-18T10:25:56Z</time>
      </trkpt>
      <trkpt lat="47.8043" lon="-3.6138">
        <ele>53</ele>
        <time>2018-07-18T10:25:57Z</time>
      </trkpt>
      <trkpt lat="47.80437" lon="-3.61377">
        <ele>53</ele>
        <time>2018-07-18T10:25:58Z</time>
      </trkpt>
      <trkpt lat="47.80443" lon="-3.61373">
        <ele>52</ele>
        <time>2018-07-18T10:25:59Z</time>
      </trkpt>
      <trkpt lat="47.8045" lon="-3.61369">
        <ele>52</ele>
        <time>2018-07-18T10:26:00Z</time>
      </trkpt>
      <trkpt lat="47.80456" lon="-3.61366">
        <ele>52</ele>
        <time>2018-07-18T10:26:01Z</time>
      </trkpt>
      <trkpt lat="47.80463" lon="-3.61362">
        <ele>52</ele>
        <time>2018-07-18T10:26:02Z</time>
      </trkpt>
      <trkpt lat="47.80469" lon="-3.61358">
        <ele>52</ele>
        <time>2018-07-18T10:26:03Z</time>
      </trkpt>
      <trkpt lat="47.80476" lon="-3.61355">
        <ele>52</ele>
        <time>2018-07-18T10:26:04Z</time>
      </trkpt>
      <trkpt lat="47.80482" lon="-3.61352">
        <ele>52</ele>
        <time>2018-07-18T10:26:05Z</time>
      </trkpt>
      <trkpt lat="47.80489" lon="-3.61348">
        <ele>52</ele>
        <time>2018-07-18T10:26:06Z</time>
      </trkpt>
      <trkpt lat="47.80495" lon="-3.61345">
        <ele>52</ele>
        <time>2018-07-18T10:26:07Z</time>
      </trkpt>
      <trkpt lat="47.80502" lon="-3.61342">
        <ele>52</ele>
        <time>2018-07-18T10:26:08Z</time>
      </trkpt>
      <trkpt lat="47.80508" lon="-3.61338">
        <ele>52</ele>
        <time>2018-07-18T10:26:09Z</time>
      </trkpt>
      <trkpt lat="47.80515" lon="-3.61334">
        <ele>53</ele>
        <time>2018-07-18T10:26:10Z</time>
      </trkpt>
      <trkpt lat="47.80521" lon="-3.6133">
        <ele>53</ele>
        <time>2018-07-18T10:26:11Z</time>
      </trkpt>
      <trkpt lat="47.80528" lon="-3.61326">
        <ele>53</ele>
        <time>2018-07-18T10:26:12Z</time>
      </trkpt>
      <trkpt lat="47.80535" lon="-3.61322">
        <ele>52</ele>
        <time>2018-07-18T10:26:13Z</time>
      </trkpt>
      <trkpt lat="47.80542" lon="-3.61318">
        <ele>52</ele>
        <time>2018-07-18T10:26:14Z</time>
      </trkpt>
      <trkpt lat="47.80548" lon="-3.61315">
        <ele>52</ele>
        <time>2018-07-18T10:26:15Z</time>
      </trkpt>
      <trkpt lat="47.80554" lon="-3.61312">
        <ele>52</ele>
        <time>2018-07-18T10:26:16Z</time>
      </trkpt>
      <trkpt lat="47.80561" lon="-3.61309">
        <ele>52</ele>
        <time>2018-07-18T10:26:17Z</time>
      </trkpt>
      <trkpt lat="47.80567" lon="-3.61306">
        <ele>52</ele>
        <time>2018-07-18T10:26:18Z</time>
      </trkpt>
      <trkpt lat="47.80573" lon="-3.61303">
        <ele>52</ele>
        <time>2018-07-18T10:26:19Z</time>
      </trkpt>
      <trkpt lat="47.80579" lon="-3.613">
        <ele>52</ele>
        <time>2018-07-18T10:26:20Z</time>
      </trkpt>
      <trkpt lat="47.80585" lon="-3.61297">
        <ele>51</ele>
        <time>2018-07-18T10:26:21Z</time>
      </trkpt>
      <trkpt lat="47.80592" lon="-3.61294">
        <ele>51</ele>
        <time>2018-07-18T10:26:22Z</time>
      </trkpt>
      <trkpt lat="47.80598" lon="-3.6129">
        <ele>51</ele>
        <time>2018-07-18T10:26:23Z</time>
      </trkpt>
      <trkpt lat="47.80605" lon="-3.61287">
        <ele>50</ele>
        <time>2018-07-18T10:26:24Z</time>
      </trkpt>
      <trkpt lat="47.80612" lon="-3.61283">
        <ele>50</ele>
        <time>2018-07-18T10:26:25Z</time>
      </trkpt>
      <trkpt lat="47.80619" lon="-3.61279">
        <ele>49</ele>
        <time>2018-07-18T10:26:26Z</time>
      </trkpt>
      <trkpt lat="47.80627" lon="-3.61275">
        <ele>49</ele>
        <time>2018-07-18T10:26:27Z</time>
      </trkpt>
      <trkpt lat="47.80635" lon="-3.61271">
        <ele>48</ele>
        <time>2018-07-18T10:26:28Z</time>
      </trkpt>
      <trkpt lat="47.80643" lon="-3.61267">
        <ele>48</ele>
        <time>2018-07-18T10:26:29Z</time>
      </trkpt>
      <trkpt lat="47.80652" lon="-3.61263">
        <ele>47</ele>
        <time>2018-07-18T10:26:30Z</time>
      </trkpt>
      <trkpt lat="47.8066" lon="-3.6126">
        <ele>47</ele>
        <time>2018-07-18T10:26:31Z</time>
      </trkpt>
      <trkpt lat="47.80668" lon="-3.61257">
        <ele>46</ele>
        <time>2018-07-18T10:26:32Z</time>
      </trkpt>
      <trkpt lat="47.80677" lon="-3.61255">
        <ele>46</ele>
        <time>2018-07-18T10:26:33Z</time>
      </trkpt>
      <trkpt lat="47.80685" lon="-3.61253">
        <ele>46</ele>
        <time>2018-07-18T10:26:34Z</time>
      </trkpt>
      <trkpt lat="47.80692" lon="-3.61252">
        <ele>45</ele>
        <time>2018-07-18T10:26:35Z</time>
      </trkpt>
      <trkpt lat="47.807" lon="-3.61252">
        <ele>45</ele>
        <time>2018-07-18T10:26:36Z</time>
      </trkpt>
      <trkpt lat="47.80707" lon="-3.61252">
        <ele>45</ele>
        <time>2018-07-18T10:26:37Z</time>
      </trkpt>
      <trkpt lat="47.80714" lon="-3.61252">
        <ele>45</ele>
        <time>2018-07-18T10:26:38Z</time>
      </trkpt>
      <trkpt lat="47.80721" lon="-3.61252">
        <ele>45</ele>
        <time>2018-07-18T10:26:39Z</time>
      </trkpt>
      <trkpt lat="47.80728" lon="-3.61252">
        <ele>45</ele>
        <time>2018-07-18T10:26:40Z</time>
      </trkpt>
      <trkpt lat="47.80736" lon="-3.61252">
        <ele>45</ele>
        <time>2018-07-18T10:26:41Z</time>
      </trkpt>
      <trkpt lat="47.80743" lon="-3.61252">
        <ele>45</ele>
        <time>2018-07-18T10:26:42Z</time>
      </trkpt>
      <trkpt lat="47.80751" lon="-3.61252">
        <ele>45</ele>
        <time>2018-07-18T10:26:43Z</time>
      </trkpt>
      <trkpt lat="47.80758" lon="-3.61252">
        <ele>45</ele>
        <time>2018-07-18T10:26:44Z</time>
      </trkpt>
      <trkpt lat="47.80765" lon="-3.61252">
        <ele>45</ele>
        <time>2018-07-18T10:26:45Z</time>
      </trkpt>
      <trkpt lat="47.80772" lon="-3.61252">
        <ele>45</ele>
        <time>2018-07-18T10:26:46Z</time>
      </trkpt>
      <trkpt lat="47.80779" lon="-3.61252">
        <ele>45</ele>
        <time>2018-07-18T10:26:47Z</time>
      </trkpt>
      <trkpt lat="47.80786" lon="-3.61252">
        <ele>45</ele>
        <time>2018-07-18T10:26:48Z</time>
      </trkpt>
      <trkpt lat="47.80793" lon="-3.61253">
        <ele>45</ele>
        <time>2018-07-18T10:26:49Z</time>
      </trkpt>
      <trkpt lat="47.808" lon="-3.61253">
        <ele>46</ele>
        <time>2018-07-18T10:26:50Z</time>
      </trkpt>
      <trkpt lat="47.80807" lon="-3.61253">
        <ele>46</ele>
        <time>2018-07-18T10:26:51Z</time>
      </trkpt>
      <trkpt lat="47.80814" lon="-3.61253">
        <ele>46</ele>
        <time>2018-07-18T10:26:52Z</time>
      </trkpt>
      <trkpt lat="47.8082" lon="-3.61253">
        <ele>46</ele>
        <time>2018-07-18T10:26:53Z</time>
      </trkpt>
      <trkpt lat="47.80826" lon="-3.61253">
        <ele>46</ele>
        <time>2018-07-18T10:26:54Z</time>
      </trkpt>
      <trkpt lat="47.80832" lon="-3.61253">
        <ele>47</ele>
        <time>2018-07-18T10:26:55Z</time>
      </trkpt>
      <trkpt lat="47.80838" lon="-3.61253">
        <ele>47</ele>
        <time>2018-07-18T10:26:56Z</time>
      </trkpt>
      <trkpt lat="47.80844" lon="-3.61253">
        <ele>47</ele>
        <time>2018-07-18T10:26:57Z</time>
      </trkpt>
      <trkpt lat="47.80851" lon="-3.61253">
        <ele>47</ele>
        <time>2018-07-18T10:26:58Z</time>
      </trkpt>
      <trkpt lat="47.80859" lon="-3.61252">
        <ele>47</ele>
        <time>2018-07-18T10:26:59Z</time>
      </trkpt>
      <trkpt lat="47.80867" lon="-3.61252">
        <ele>47</ele>
        <time>2018-07-18T10:27:00Z</time>
      </trkpt>
      <trkpt lat="47.80874" lon="-3.61252">
        <ele>47</ele>
        <time>2018-07-18T10:27:01Z</time>
      </trkpt>
      <trkpt lat="47.80881" lon="-3.61251">
        <ele>47</ele>
        <time>2018-07-18T10:27:02Z</time>
      </trkpt>
      <trkpt lat="47.80888" lon="-3.61251">
        <ele>47</ele>
        <time>2018-07-18T10:27:03Z</time>
      </trkpt>
      <trkpt lat="47.80895" lon="-3.6125">
        <ele>47</ele>
        <time>2018-07-18T10:27:04Z</time>
      </trkpt>
      <trkpt lat="47.80902" lon="-3.6125">
        <ele>48</ele>
        <time>2018-07-18T10:27:05Z</time>
      </trkpt>
      <trkpt lat="47.80908" lon="-3.61249">
        <ele>47</ele>
        <time>2018-07-18T10:27:06Z</time>
      </trkpt>
      <trkpt lat="47.80915" lon="-3.61249">
        <ele>47</ele>
        <time>2018-07-18T10:27:07Z</time>
      </trkpt>
      <trkpt lat="47.80921" lon="-3.61248">
        <ele>47</ele>
        <time>2018-07-18T10:27:08Z</time>
      </trkpt>
      <trkpt lat="47.80928" lon="-3.61247">
        <ele>47</ele>
        <time>2018-07-18T10:27:09Z</time>
      </trkpt>
      <trkpt lat="47.80934" lon="-3.61247">
        <ele>47</ele>
        <time>2018-07-18T10:27:10Z</time>
      </trkpt>
      <trkpt lat="47.80941" lon="-3.61247">
        <ele>47</ele>
        <time>2018-07-18T10:27:11Z</time>
      </trkpt>
      <trkpt lat="47.80947" lon="-3.61246">
        <ele>47</ele>
        <time>2018-07-18T10:27:12Z</time>
      </trkpt>
      <trkpt lat="47.80953" lon="-3.61245">
        <ele>47</ele>
        <time>2018-07-18T10:27:13Z</time>
      </trkpt>
      <trkpt lat="47.80959" lon="-3.61245">
        <ele>47</ele>
        <time>2018-07-18T10:27:14Z</time>
      </trkpt>
      <trkpt lat="47.80965" lon="-3.61245">
        <ele>47</ele>
        <time>2018-07-18T10:27:15Z</time>
      </trkpt>
      <trkpt lat="47.8097" lon="-3.61245">
        <ele>47</ele>
        <time>2018-07-18T10:27:16Z</time>
      </trkpt>
      <trkpt lat="47.80976" lon="-3.61245">
        <ele>47</ele>
        <time>2018-07-18T10:27:17Z</time>
      </trkpt>
      <trkpt lat="47.80982" lon="-3.61245">
        <ele>48</ele>
        <time>2018-07-18T10:27:18Z</time>
      </trkpt>
      <trkpt lat="47.80988" lon="-3.61246">
        <ele>48</ele>
        <time>2018-07-18T10:27:19Z</time>
      </trkpt>
      <trkpt lat="47.80993" lon="-3.61246">
        <ele>48</ele>
        <time>2018-07-18T10:27:20Z</time>
      </trkpt>
      <trkpt lat="47.80999" lon="-3.61247">
        <ele>48</ele>
        <time>2018-07-18T10:27:21Z</time>
      </trkpt>
      <trkpt lat="47.81004" lon="-3.61249">
        <ele>48</ele>
        <time>2018-07-18T10:27:22Z</time>
      </trkpt>
      <trkpt lat="47.8101" lon="-3.6125">
        <ele>48</ele>
        <time>2018-07-18T10:27:23Z</time>
      </trkpt>
      <trkpt lat="47.81016" lon="-3.61252">
        <ele>48</ele>
        <time>2018-07-18T10:27:24Z</time>
      </trkpt>
      <trkpt lat="47.81021" lon="-3.61253">
        <ele>48</ele>
        <time>2018-07-18T10:27:25Z</time>
      </trkpt>
      <trkpt lat="47.81026" lon="-3.61256">
        <ele>48</ele>
        <time>2018-07-18T10:27:26Z</time>
      </trkpt>
      <trkpt lat="47.81032" lon="-3.61258">
        <ele>48</ele>
        <time>2018-07-18T10:27:27Z</time>
      </trkpt>
      <trkpt lat="47.81037" lon="-3.61261">
        <ele>48</ele>
        <time>2018-07-18T10:27:28Z</time>
      </trkpt>
      <trkpt lat="47.81042" lon="-3.61264">
        <ele>49</ele>
        <time>2018-07-18T10:27:29Z</time>
      </trkpt>
      <trkpt lat="47.81048" lon="-3.61266">
        <ele>49</ele>
        <time>2018-07-18T10:27:30Z</time>
      </trkpt>
      <trkpt lat="47.81053" lon="-3.61269">
        <ele>49</ele>
        <time>2018-07-18T10:27:31Z</time>
      </trkpt>
      <trkpt lat="47.81058" lon="-3.61272">
        <ele>49</ele>
        <time>2018-07-18T10:27:32Z</time>
      </trkpt>
      <trkpt lat="47.81064" lon="-3.61275">
        <ele>49</ele>
        <time>2018-07-18T10:27:33Z</time>
      </trkpt>
      <trkpt lat="47.81069" lon="-3.61279">
        <ele>49</ele>
        <time>2018-07-18T10:27:34Z</time>
      </trkpt>
      <trkpt lat="47.81074" lon="-3.61282">
        <ele>49</ele>
        <time>2018-07-18T10:27:35Z</time>
      </trkpt>
      <trkpt lat="47.81079" lon="-3.61285">
        <ele>50</ele>
        <time>2018-07-18T10:27:36Z</time>
      </trkpt>
      <trkpt lat="47.81085" lon="-3.61289">
        <ele>50</ele>
        <time>2018-07-18T10:27:37Z</time>
      </trkpt>
      <trkpt lat="47.8109" lon="-3.61292">
        <ele>50</ele>
        <time>2018-07-18T10:27:38Z</time>
      </trkpt>
      <trkpt lat="47.81095" lon="-3.61295">
        <ele>50</ele>
        <time>2018-07-18T10:27:39Z</time>
      </trkpt>
      <trkpt lat="47.811" lon="-3.61299">
        <ele>50</ele>
        <time>2018-07-18T10:27:40Z</time>
      </trkpt>
      <trkpt lat="47.81105" lon="-3.61302">
        <ele>50</ele>
        <time>2018-07-18T10:27:41Z</time>
      </trkpt>
      <trkpt lat="47.8111" lon="-3.61305">
        <ele>51</ele>
        <time>2018-07-18T10:27:42Z</time>
      </trkpt>
      <trkpt lat="47.81116" lon="-3.61308">
        <ele>51</ele>
        <time>2018-07-18T10:27:43Z</time>
      </trkpt>
      <trkpt lat="47.81121" lon="-3.61312">
        <ele>51</ele>
        <time>2018-07-18T10:27:44Z</time>
      </trkpt>
      <trkpt lat="47.81126" lon="-3.61315">
        <ele>51</ele>
        <time>2018-07-18T10:27:45Z</time>
      </trkpt>
      <trkpt lat="47.81131" lon="-3.61319">
        <ele>52</ele>
        <time>2018-07-18T10:27:46Z</time>
      </trkpt>
      <trkpt lat="47.81136" lon="-3.61322">
        <ele>52</ele>
        <time>2018-07-18T10:27:47Z</time>
      </trkpt>
      <trkpt lat="47.81141" lon="-3.61326">
        <ele>52</ele>
        <time>2018-07-18T10:27:48Z</time>
      </trkpt>
      <trkpt lat="47.81146" lon="-3.61329">
        <ele>52</ele>
        <time>2018-07-18T10:27:49Z</time>
      </trkpt>
      <trkpt lat="47.81151" lon="-3.61332">
        <ele>52</ele>
        <time>2018-07-18T10:27:50Z</time>
      </trkpt>
      <trkpt lat="47.81156" lon="-3.61336">
        <ele>52</ele>
        <time>2018-07-18T10:27:51Z</time>
      </trkpt>
      <trkpt lat="47.81162" lon="-3.61339">
        <ele>52</ele>
        <time>2018-07-18T10:27:52Z</time>
      </trkpt>
      <trkpt lat="47.81167" lon="-3.61342">
        <ele>52</ele>
        <time>2018-07-18T10:27:53Z</time>
      </trkpt>
      <trkpt lat="47.81172" lon="-3.61346">
        <ele>53</ele>
        <time>2018-07-18T10:27:54Z</time>
      </trkpt>
      <trkpt lat="47.81177" lon="-3.61349">
        <ele>53</ele>
        <time>2018-07-18T10:27:55Z</time>
      </trkpt>
      <trkpt lat="47.81183" lon="-3.61353">
        <ele>53</ele>
        <time>2018-07-18T10:27:56Z</time>
      </trkpt>
      <trkpt lat="47.81188" lon="-3.61356">
        <ele>53</ele>
        <time>2018-07-18T10:27:57Z</time>
      </trkpt>
      <trkpt lat="47.81193" lon="-3.61359">
        <ele>53</ele>
        <time>2018-07-18T10:27:58Z</time>
      </trkpt>
      <trkpt lat="47.81198" lon="-3.61363">
        <ele>53</ele>
        <time>2018-07-18T10:27:59Z</time>
      </trkpt>
      <trkpt lat="47.81203" lon="-3.61366">
        <ele>54</ele>
        <time>2018-07-18T10:28:00Z</time>
      </trkpt>
      <trkpt lat="47.81209" lon="-3.6137">
        <ele>54</ele>
        <time>2018-07-18T10:28:01Z</time>
      </trkpt>
      <trkpt lat="47.81214" lon="-3.61373">
        <ele>54</ele>
        <time>2018-07-18T10:28:02Z</time>
      </trkpt>
      <trkpt lat="47.81219" lon="-3.61377">
        <ele>54</ele>
        <time>2018-07-18T10:28:03Z</time>
      </trkpt>
      <trkpt lat="47.81225" lon="-3.6138">
        <ele>54</ele>
        <time>2018-07-18T10:28:04Z</time>
      </trkpt>
      <trkpt lat="47.8123" lon="-3.61384">
        <ele>54</ele>
        <time>2018-07-18T10:28:05Z</time>
      </trkpt>
      <trkpt lat="47.81236" lon="-3.61387">
        <ele>54</ele>
        <time>2018-07-18T10:28:06Z</time>
      </trkpt>
      <trkpt lat="47.81241" lon="-3.61391">
        <ele>54</ele>
        <time>2018-07-18T10:28:07Z</time>
      </trkpt>
      <trkpt lat="47.81247" lon="-3.61394">
        <ele>54</ele>
        <time>2018-07-18T10:28:08Z</time>
      </trkpt>
      <trkpt lat="47.81253" lon="-3.61397">
        <ele>54</ele>
        <time>2018-07-18T10:28:09Z</time>
      </trkpt>
      <trkpt lat="47.81259" lon="-3.614">
        <ele>54</ele>
        <time>2018-07-18T10:28:10Z</time>
      </trkpt>
      <trkpt lat="47.81265" lon="-3.61403">
        <ele>54</ele>
        <time>2018-07-18T10:28:11Z</time>
      </trkpt>
      <trkpt lat="47.81271" lon="-3.61405">
        <ele>54</ele>
        <time>2018-07-18T10:28:12Z</time>
      </trkpt>
      <trkpt lat="47.81277" lon="-3.61407">
        <ele>54</ele>
        <time>2018-07-18T10:28:13Z</time>
      </trkpt>
      <trkpt lat="47.81283" lon="-3.61409">
        <ele>54</ele>
        <time>2018-07-18T10:28:14Z</time>
      </trkpt>
      <trkpt lat="47.81289" lon="-3.6141">
        <ele>54</ele>
        <time>2018-07-18T10:28:15Z</time>
      </trkpt>
      <trkpt lat="47.81295" lon="-3.6141">
        <ele>54</ele>
        <time>2018-07-18T10:28:16Z</time>
      </trkpt>
      <trkpt lat="47.81301" lon="-3.61411">
        <ele>54</ele>
        <time>2018-07-18T10:28:17Z</time>
      </trkpt>
      <trkpt lat="47.81307" lon="-3.61411">
        <ele>54</ele>
        <time>2018-07-18T10:28:18Z</time>
      </trkpt>
      <trkpt lat="47.81313" lon="-3.61411">
        <ele>54</ele>
        <time>2018-07-18T10:28:19Z</time>
      </trkpt>
      <trkpt lat="47.81318" lon="-3.61411">
        <ele>54</ele>
        <time>2018-07-18T10:28:20Z</time>
      </trkpt>
      <trkpt lat="47.81324" lon="-3.61411">
        <ele>54</ele>
        <time>2018-07-18T10:28:21Z</time>
      </trkpt>
      <trkpt lat="47.81331" lon="-3.61411">
        <ele>54</ele>
        <time>2018-07-18T10:28:22Z</time>
      </trkpt>
      <trkpt lat="47.81337" lon="-3.61411">
        <ele>53</ele>
        <time>2018-07-18T10:28:23Z</time>
      </trkpt>
      <trkpt lat="47.81343" lon="-3.6141">
        <ele>53</ele>
        <time>2018-07-18T10:28:24Z</time>
      </trkpt>
      <trkpt lat="47.81349" lon="-3.6141">
        <ele>53</ele>
        <time>2018-07-18T10:28:25Z</time>
      </trkpt>
      <trkpt lat="47.81355" lon="-3.6141">
        <ele>53</ele>
        <time>2018-07-18T10:28:26Z</time>
      </trkpt>
      <trkpt lat="47.81361" lon="-3.61409">
        <ele>53</ele>
        <time>2018-07-18T10:28:27Z</time>
      </trkpt>
      <trkpt lat="47.81367" lon="-3.61409">
        <ele>53</ele>
        <time>2018-07-18T10:28:28Z</time>
      </trkpt>
      <trkpt lat="47.81373" lon="-3.61408">
        <ele>53</ele>
        <time>2018-07-18T10:28:29Z</time>
      </trkpt>
      <trkpt lat="47.81379" lon="-3.61408">
        <ele>52</ele>
        <time>2018-07-18T10:28:30Z</time>
      </trkpt>
      <trkpt lat="47.81383" lon="-3.61408">
        <ele>52</ele>
        <time>2018-07-18T10:28:31Z</time>
      </trkpt>
      <trkpt lat="47.81386" lon="-3.6141">
        <ele>52</ele>
        <time>2018-07-18T10:28:32Z</time>
      </trkpt>
      <trkpt lat="47.81389" lon="-3.61414">
        <ele>52</ele>
        <time>2018-07-18T10:28:33Z</time>
      </trkpt>
      <trkpt lat="47.81391" lon="-3.6142">
        <ele>52</ele>
        <time>2018-07-18T10:28:34Z</time>
      </trkpt>
      <trkpt lat="47.81393" lon="-3.61426">
        <ele>52</ele>
        <time>2018-07-18T10:28:35Z</time>
      </trkpt>
      <trkpt lat="47.81395" lon="-3.61433">
        <ele>52</ele>
        <time>2018-07-18T10:28:36Z</time>
      </trkpt>
      <trkpt lat="47.81396" lon="-3.61442">
        <ele>51</ele>
        <time>2018-07-18T10:28:37Z</time>
      </trkpt>
      <trkpt lat="47.81396" lon="-3.6145">
        <ele>51</ele>
        <time>2018-07-18T10:28:38Z</time>
      </trkpt>
      <trkpt lat="47.81397" lon="-3.61459">
        <ele>51</ele>
        <time>2018-07-18T10:28:39Z</time>
      </trkpt>
      <trkpt lat="47.81397" lon="-3.61468">
        <ele>51</ele>
        <time>2018-07-18T10:28:40Z</time>
      </trkpt>
      <trkpt lat="47.81399" lon="-3.61476">
        <ele>51</ele>
        <time>2018-07-18T10:28:41Z</time>
      </trkpt>
      <trkpt lat="47.81399" lon="-3.61485">
        <ele>50</ele>
        <time>2018-07-18T10:28:42Z</time>
      </trkpt>
      <trkpt lat="47.814" lon="-3.61494">
        <ele>50</ele>
        <time>2018-07-18T10:28:43Z</time>
      </trkpt>
      <trkpt lat="47.814" lon="-3.61503">
        <ele>50</ele>
        <time>2018-07-18T10:28:44Z</time>
      </trkpt>
      <trkpt lat="47.81401" lon="-3.61512">
        <ele>50</ele>
        <time>2018-07-18T10:28:45Z</time>
      </trkpt>
      <trkpt lat="47.81402" lon="-3.61521">
        <ele>50</ele>
        <time>2018-07-18T10:28:46Z</time>
      </trkpt>
      <trkpt lat="47.81402" lon="-3.6153">
        <ele>50</ele>
        <time>2018-07-18T10:28:47Z</time>
      </trkpt>
      <trkpt lat="47.81402" lon="-3.6154">
        <ele>49</ele>
        <time>2018-07-18T10:28:48Z</time>
      </trkpt>
      <trkpt lat="47.81403" lon="-3.6155">
        <ele>49</ele>
        <time>2018-07-18T10:28:49Z</time>
      </trkpt>
      <trkpt lat="47.81402" lon="-3.6156">
        <ele>49</ele>
        <time>2018-07-18T10:28:50Z</time>
      </trkpt>
      <trkpt lat="47.81402" lon="-3.6157">
        <ele>49</ele>
        <time>2018-07-18T10:28:51Z</time>
      </trkpt>
      <trkpt lat="47.81401" lon="-3.6158">
        <ele>49</ele>
        <time>2018-07-18T10:28:52Z</time>
      </trkpt>
      <trkpt lat="47.81401" lon="-3.61589">
        <ele>48</ele>
        <time>2018-07-18T10:28:53Z</time>
      </trkpt>
      <trkpt lat="47.814" lon="-3.61599">
        <ele>48</ele>
        <time>2018-07-18T10:28:54Z</time>
      </trkpt>
      <trkpt lat="47.81399" lon="-3.61609">
        <ele>48</ele>
        <time>2018-07-18T10:28:55Z</time>
      </trkpt>
      <trkpt lat="47.81399" lon="-3.61619">
        <ele>48</ele>
        <time>2018-07-18T10:28:56Z</time>
      </trkpt>
      <trkpt lat="47.81399" lon="-3.61629">
        <ele>48</ele>
        <time>2018-07-18T10:28:57Z</time>
      </trkpt>
      <trkpt lat="47.81398" lon="-3.61639">
        <ele>48</ele>
        <time>2018-07-18T10:28:58Z</time>
      </trkpt>
      <trkpt lat="47.81398" lon="-3.61649">
        <ele>48</ele>
        <time>2018-07-18T10:28:59Z</time>
      </trkpt>
      <trkpt lat="47.81397" lon="-3.61659">
        <ele>48</ele>
        <time>2018-07-18T10:29:00Z</time>
      </trkpt>
      <trkpt lat="47.81397" lon="-3.61669">
        <ele>47</ele>
        <time>2018-07-18T10:29:01Z</time>
      </trkpt>
      <trkpt lat="47.81397" lon="-3.61679">
        <ele>47</ele>
        <time>2018-07-18T10:29:02Z</time>
      </trkpt>
      <trkpt lat="47.81396" lon="-3.61689">
        <ele>47</ele>
        <time>2018-07-18T10:29:03Z</time>
      </trkpt>
      <trkpt lat="47.81396" lon="-3.61699">
        <ele>47</ele>
        <time>2018-07-18T10:29:04Z</time>
      </trkpt>
      <trkpt lat="47.81396" lon="-3.61709">
        <ele>47</ele>
        <time>2018-07-18T10:29:05Z</time>
      </trkpt>
      <trkpt lat="47.81395" lon="-3.61719">
        <ele>47</ele>
        <time>2018-07-18T10:29:06Z</time>
      </trkpt>
      <trkpt lat="47.81395" lon="-3.6173">
        <ele>47</ele>
        <time>2018-07-18T10:29:07Z</time>
      </trkpt>
      <trkpt lat="47.81395" lon="-3.6174">
        <ele>47</ele>
        <time>2018-07-18T10:29:08Z</time>
      </trkpt>
      <trkpt lat="47.81396" lon="-3.6175">
        <ele>47</ele>
        <time>2018-07-18T10:29:09Z</time>
      </trkpt>
      <trkpt lat="47.81396" lon="-3.6176">
        <ele>47</ele>
        <time>2018-07-18T10:29:10Z</time>
      </trkpt>
      <trkpt lat="47.81397" lon="-3.6177">
        <ele>47</ele>
        <time>2018-07-18T10:29:11Z</time>
      </trkpt>
      <trkpt lat="47.81398" lon="-3.6178">
        <ele>47</ele>
        <time>2018-07-18T10:29:12Z</time>
      </trkpt>
      <trkpt lat="47.81399" lon="-3.6179">
        <ele>47</ele>
        <time>2018-07-18T10:29:13Z</time>
      </trkpt>
      <trkpt lat="47.81401" lon="-3.61799">
        <ele>47</ele>
        <time>2018-07-18T10:29:14Z</time>
      </trkpt>
      <trkpt lat="47.81402" lon="-3.61808">
        <ele>47</ele>
        <time>2018-07-18T10:29:15Z</time>
      </trkpt>
      <trkpt lat="47.81403" lon="-3.61818">
        <ele>47</ele>
        <time>2018-07-18T10:29:16Z</time>
      </trkpt>
      <trkpt lat="47.81405" lon="-3.61827">
        <ele>48</ele>
        <time>2018-07-18T10:29:17Z</time>
      </trkpt>
      <trkpt lat="47.81406" lon="-3.61835">
        <ele>48</ele>
        <time>2018-07-18T10:29:18Z</time>
      </trkpt>
      <trkpt lat="47.81407" lon="-3.61844">
        <ele>48</ele>
        <time>2018-07-18T10:29:19Z</time>
      </trkpt>
      <trkpt lat="47.81409" lon="-3.61853">
        <ele>48</ele>
        <time>2018-07-18T10:29:20Z</time>
      </trkpt>
      <trkpt lat="47.8141" lon="-3.61862">
        <ele>48</ele>
        <time>2018-07-18T10:29:21Z</time>
      </trkpt>
      <trkpt lat="47.81412" lon="-3.6187">
        <ele>48</ele>
        <time>2018-07-18T10:29:22Z</time>
      </trkpt>
      <trkpt lat="47.81413" lon="-3.61879">
        <ele>48</ele>
        <time>2018-07-18T10:29:23Z</time>
      </trkpt>
      <trkpt lat="47.81415" lon="-3.61888">
        <ele>48</ele>
        <time>2018-07-18T10:29:24Z</time>
      </trkpt>
      <trkpt lat="47.81416" lon="-3.61897">
        <ele>48</ele>
        <time>2018-07-18T10:29:25Z</time>
      </trkpt>
      <trkpt lat="47.81417" lon="-3.61906">
        <ele>48</ele>
        <time>2018-07-18T10:29:26Z</time>
      </trkpt>
      <trkpt lat="47.81418" lon="-3.61915">
        <ele>48</ele>
        <time>2018-07-18T10:29:27Z</time>
      </trkpt>
      <trkpt lat="47.81419" lon="-3.61924">
        <ele>48</ele>
        <time>2018-07-18T10:29:28Z</time>
      </trkpt>
      <trkpt lat="47.8142" lon="-3.61933">
        <ele>48</ele>
        <time>2018-07-18T10:29:29Z</time>
      </trkpt>
      <trkpt lat="47.8142" lon="-3.61942">
        <ele>49</ele>
        <time>2018-07-18T10:29:30Z</time>
      </trkpt>
      <trkpt lat="47.8142" lon="-3.61952">
        <ele>49</ele>
        <time>2018-07-18T10:29:31Z</time>
      </trkpt>
      <trkpt lat="47.8142" lon="-3.61961">
        <ele>49</ele>
        <time>2018-07-18T10:29:32Z</time>
      </trkpt>
      <trkpt lat="47.8142" lon="-3.6197">
        <ele>49</ele>
        <time>2018-07-18T10:29:33Z</time>
      </trkpt>
      <trkpt lat="47.8142" lon="-3.61979">
        <ele>49</ele>
        <time>2018-07-18T10:29:34Z</time>
      </trkpt>
      <trkpt lat="47.81419" lon="-3.61988">
        <ele>49</ele>
        <time>2018-07-18T10:29:35Z</time>
      </trkpt>
      <trkpt lat="47.81419" lon="-3.61997">
        <ele>49</ele>
        <time>2018-07-18T10:29:36Z</time>
      </trkpt>
      <trkpt lat="47.81418" lon="-3.62006">
        <ele>49</ele>
        <time>2018-07-18T10:29:37Z</time>
      </trkpt>
      <trkpt lat="47.81417" lon="-3.62015">
        <ele>49</ele>
        <time>2018-07-18T10:29:38Z</time>
      </trkpt>
      <trkpt lat="47.81416" lon="-3.62024">
        <ele>49</ele>
        <time>2018-07-18T10:29:39Z</time>
      </trkpt>
      <trkpt lat="47.81415" lon="-3.62033">
        <ele>49</ele>
        <time>2018-07-18T10:29:40Z</time>
      </trkpt>
      <trkpt lat="47.81414" lon="-3.62042">
        <ele>50</ele>
        <time>2018-07-18T10:29:41Z</time>
      </trkpt>
      <trkpt lat="47.81413" lon="-3.62051">
        <ele>50</ele>
        <time>2018-07-18T10:29:42Z</time>
      </trkpt>
      <trkpt lat="47.81412" lon="-3.6206">
        <ele>50</ele>
        <time>2018-07-18T10:29:43Z</time>
      </trkpt>
      <trkpt lat="47.81411" lon="-3.62069">
        <ele>50</ele>
        <time>2018-07-18T10:29:44Z</time>
      </trkpt>
      <trkpt lat="47.8141" lon="-3.62078">
        <ele>50</ele>
        <time>2018-07-18T10:29:45Z</time>
      </trkpt>
      <trkpt lat="47.81409" lon="-3.62087">
        <ele>50</ele>
        <time>2018-07-18T10:29:46Z</time>
      </trkpt>
      <trkpt lat="47.81409" lon="-3.62096">
        <ele>50</ele>
        <time>2018-07-18T10:29:47Z</time>
      </trkpt>
      <trkpt lat="47.81408" lon="-3.62105">
        <ele>51</ele>
        <time>2018-07-18T10:29:48Z</time>
      </trkpt>
      <trkpt lat="47.81408" lon="-3.62113">
        <ele>51</ele>
        <time>2018-07-18T10:29:49Z</time>
      </trkpt>
      <trkpt lat="47.81408" lon="-3.62122">
        <ele>51</ele>
        <time>2018-07-18T10:29:50Z</time>
      </trkpt>
      <trkpt lat="47.81408" lon="-3.62131">
        <ele>51</ele>
        <time>2018-07-18T10:29:51Z</time>
      </trkpt>
      <trkpt lat="47.81408" lon="-3.6214">
        <ele>51</ele>
        <time>2018-07-18T10:29:52Z</time>
      </trkpt>
      <trkpt lat="47.81409" lon="-3.62149">
        <ele>51</ele>
        <time>2018-07-18T10:29:53Z</time>
      </trkpt>
      <trkpt lat="47.81409" lon="-3.62158">
        <ele>51</ele>
        <time>2018-07-18T10:29:54Z</time>
      </trkpt>
      <trkpt lat="47.8141" lon="-3.62167">
        <ele>51</ele>
        <time>2018-07-18T10:29:55Z</time>
      </trkpt>
      <trkpt lat="47.81411" lon="-3.62176">
        <ele>51</ele>
        <time>2018-07-18T10:29:56Z</time>
      </trkpt>
      <trkpt lat="47.81412" lon="-3.62185">
        <ele>51</ele>
        <time>2018-07-18T10:29:57Z</time>
      </trkpt>
      <trkpt lat="47.81414" lon="-3.62194">
        <ele>51</ele>
        <time>2018-07-18T10:29:58Z</time>
      </trkpt>
      <trkpt lat="47.81416" lon="-3.62202">
        <ele>51</ele>
        <time>2018-07-18T10:29:59Z</time>
      </trkpt>
      <trkpt lat="47.81418" lon="-3.62211">
        <ele>51</ele>
        <time>2018-07-18T10:30:00Z</time>
      </trkpt>
      <trkpt lat="47.8142" lon="-3.6222">
        <ele>51</ele>
        <time>2018-07-18T10:30:01Z</time>
      </trkpt>
      <trkpt lat="47.81422" lon="-3.62228">
        <ele>51</ele>
        <time>2018-07-18T10:30:02Z</time>
      </trkpt>
      <trkpt lat="47.81425" lon="-3.62237">
        <ele>51</ele>
        <time>2018-07-18T10:30:03Z</time>
      </trkpt>
      <trkpt lat="47.81427" lon="-3.62245">
        <ele>51</ele>
        <time>2018-07-18T10:30:04Z</time>
      </trkpt>
      <trkpt lat="47.8143" lon="-3.62254">
        <ele>51</ele>
        <time>2018-07-18T10:30:05Z</time>
      </trkpt>
      <trkpt lat="47.81432" lon="-3.62262">
        <ele>50</ele>
        <time>2018-07-18T10:30:06Z</time>
      </trkpt>
      <trkpt lat="47.81435" lon="-3.62271">
        <ele>50</ele>
        <time>2018-07-18T10:30:07Z</time>
      </trkpt>
      <trkpt lat="47.81438" lon="-3.62279">
        <ele>50</ele>
        <time>2018-07-18T10:30:08Z</time>
      </trkpt>
      <trkpt lat="47.8144" lon="-3.62287">
        <ele>50</ele>
        <time>2018-07-18T10:30:09Z</time>
      </trkpt>
      <trkpt lat="47.81443" lon="-3.62294">
        <ele>50</ele>
        <time>2018-07-18T10:30:10Z</time>
      </trkpt>
      <trkpt lat="47.81445" lon="-3.623">
        <ele>50</ele>
        <time>2018-07-18T10:30:11Z</time>
      </trkpt>
      <trkpt lat="47.81445" lon="-3.62306">
        <ele>50</ele>
        <time>2018-07-18T10:30:12Z</time>
      </trkpt>
      <trkpt lat="47.81445" lon="-3.6231">
        <ele>50</ele>
        <time>2018-07-18T10:30:13Z</time>
      </trkpt>
      <trkpt lat="47.81442" lon="-3.62314">
        <ele>50</ele>
        <time>2018-07-18T10:30:14Z</time>
      </trkpt>
      <trkpt lat="47.81439" lon="-3.62315">
        <ele>50</ele>
        <time>2018-07-18T10:30:15Z</time>
      </trkpt>
      <trkpt lat="47.81435" lon="-3.62316">
        <ele>50</ele>
        <time>2018-07-18T10:30:16Z</time>
      </trkpt>
      <trkpt lat="47.81431" lon="-3.62316">
        <ele>50</ele>
        <time>2018-07-18T10:30:17Z</time>
      </trkpt>
      <trkpt lat="47.81426" lon="-3.62316">
        <ele>50</ele>
        <time>2018-07-18T10:30:18Z</time>
      </trkpt>
      <trkpt lat="47.81421" lon="-3.62316">
        <ele>50</ele>
        <time>2018-07-18T10:30:19Z</time>
      </trkpt>
      <trkpt lat="47.81415" lon="-3.62316">
        <ele>50</ele>
        <time>2018-07-18T10:30:20Z</time>
      </trkpt>
      <trkpt lat="47.8141" lon="-3.62319">
        <ele>50</ele>
        <time>2018-07-18T10:30:21Z</time>
      </trkpt>
      <trkpt lat="47.81405" lon="-3.62323">
        <ele>49</ele>
        <time>2018-07-18T10:30:22Z</time>
      </trkpt>
      <trkpt lat="47.814" lon="-3.62327">
        <ele>49</ele>
        <time>2018-07-18T10:30:23Z</time>
      </trkpt>
      <trkpt lat="47.81396" lon="-3.62333">
        <ele>49</ele>
        <time>2018-07-18T10:30:24Z</time>
      </trkpt>
      <trkpt lat="47.8139" lon="-3.62339">
        <ele>49</ele>
        <time>2018-07-18T10:30:25Z</time>
      </trkpt>
      <trkpt lat="47.81386" lon="-3.62345">
        <ele>49</ele>
        <time>2018-07-18T10:30:26Z</time>
      </trkpt>
      <trkpt lat="47.8138" lon="-3.6235">
        <ele>49</ele>
        <time>2018-07-18T10:30:27Z</time>
      </trkpt>
      <trkpt lat="47.81375" lon="-3.62356">
        <ele>48</ele>
        <time>2018-07-18T10:30:28Z</time>
      </trkpt>
      <trkpt lat="47.8137" lon="-3.62362">
        <ele>48</ele>
        <time>2018-07-18T10:30:29Z</time>
      </trkpt>
      <trkpt lat="47.81366" lon="-3.62369">
        <ele>48</ele>
        <time>2018-07-18T10:30:30Z</time>
      </trkpt>
      <trkpt lat="47.81361" lon="-3.62376">
        <ele>48</ele>
        <time>2018-07-18T10:30:31Z</time>
      </trkpt>
      <trkpt lat="47.81357" lon="-3.62383">
        <ele>48</ele>
        <time>2018-07-18T10:30:32Z</time>
      </trkpt>
      <trkpt lat="47.81352" lon="-3.6239">
        <ele>48</ele>
        <time>2018-07-18T10:30:33Z</time>
      </trkpt>
      <trkpt lat="47.81348" lon="-3.62398">
        <ele>48</ele>
        <time>2018-07-18T10:30:34Z</time>
      </trkpt>
      <trkpt lat="47.81344" lon="-3.62405">
        <ele>48</ele>
        <time>2018-07-18T10:30:35Z</time>
      </trkpt>
      <trkpt lat="47.8134" lon="-3.62413">
        <ele>48</ele>
        <time>2018-07-18T10:30:36Z</time>
      </trkpt>
      <trkpt lat="47.81336" lon="-3.62421">
        <ele>48</ele>
        <time>2018-07-18T10:30:37Z</time>
      </trkpt>
      <trkpt lat="47.81333" lon="-3.6243">
        <ele>48</ele>
        <time>2018-07-18T10:30:38Z</time>
      </trkpt>
      <trkpt lat="47.81329" lon="-3.62438">
        <ele>48</ele>
        <time>2018-07-18T10:30:39Z</time>
      </trkpt>
      <trkpt lat="47.81326" lon="-3.62447">
        <ele>48</ele>
        <time>2018-07-18T10:30:40Z</time>
      </trkpt>
      <trkpt lat="47.81322" lon="-3.62455">
        <ele>48</ele>
        <time>2018-07-18T10:30:41Z</time>
      </trkpt>
      <trkpt lat="47.81318" lon="-3.62463">
        <ele>47</ele>
        <time>2018-07-18T10:30:42Z</time>
      </trkpt>
      <trkpt lat="47.81315" lon="-3.62471">
        <ele>47</ele>
        <time>2018-07-18T10:30:43Z</time>
      </trkpt>
      <trkpt lat="47.81311" lon="-3.62479">
        <ele>47</ele>
        <time>2018-07-18T10:30:44Z</time>
      </trkpt>
      <trkpt lat="47.81308" lon="-3.62486">
        <ele>47</ele>
        <time>2018-07-18T10:30:45Z</time>
      </trkpt>
      <trkpt lat="47.81304" lon="-3.62493">
        <ele>47</ele>
        <time>2018-07-18T10:30:46Z</time>
      </trkpt>
      <trkpt lat="47.81301" lon="-3.62501">
        <ele>47</ele>
        <time>2018-07-18T10:30:47Z</time>
      </trkpt>
      <trkpt lat="47.81297" lon="-3.62509">
        <ele>47</ele>
        <time>2018-07-18T10:30:48Z</time>
      </trkpt>
      <trkpt lat="47.81293" lon="-3.62517">
        <ele>47</ele>
        <time>2018-07-18T10:30:49Z</time>
      </trkpt>
      <trkpt lat="47.81289" lon="-3.62525">
        <ele>47</ele>
        <time>2018-07-18T10:30:50Z</time>
      </trkpt>
      <trkpt lat="47.81284" lon="-3.62533">
        <ele>47</ele>
        <time>2018-07-18T10:30:51Z</time>
      </trkpt>
      <trkpt lat="47.8128" lon="-3.62541">
        <ele>47</ele>
        <time>2018-07-18T10:30:52Z</time>
      </trkpt>
      <trkpt lat="47.81276" lon="-3.62549">
        <ele>46</ele>
        <time>2018-07-18T10:30:53Z</time>
      </trkpt>
      <trkpt lat="47.81272" lon="-3.62558">
        <ele>46</ele>
        <time>2018-07-18T10:30:54Z</time>
      </trkpt>
      <trkpt lat="47.81268" lon="-3.62566">
        <ele>46</ele>
        <time>2018-07-18T10:30:55Z</time>
      </trkpt>
      <trkpt lat="47.81264" lon="-3.62575">
        <ele>46</ele>
        <time>2018-07-18T10:30:56Z</time>
      </trkpt>
      <trkpt lat="47.81259" lon="-3.62583">
        <ele>46</ele>
        <time>2018-07-18T10:30:57Z</time>
      </trkpt>
      <trkpt lat="47.81255" lon="-3.62591">
        <ele>46</ele>
        <time>2018-07-18T10:30:58Z</time>
      </trkpt>
      <trkpt lat="47.8125" lon="-3.62599">
        <ele>46</ele>
        <time>2018-07-18T10:30:59Z</time>
      </trkpt>
      <trkpt lat="47.81246" lon="-3.62607">
        <ele>46</ele>
        <time>2018-07-18T10:31:00Z</time>
      </trkpt>
      <trkpt lat="47.81242" lon="-3.62615">
        <ele>46</ele>
        <time>2018-07-18T10:31:01Z</time>
      </trkpt>
      <trkpt lat="47.81242" lon="-3.62624">
        <ele>46</ele>
        <time>2018-07-18T10:31:02Z</time>
      </trkpt>
      <trkpt lat="47.81243" lon="-3.62633">
        <ele>46</ele>
        <time>2018-07-18T10:31:03Z</time>
      </trkpt>
      <trkpt lat="47.81245" lon="-3.62639">
        <ele>46</ele>
        <time>2018-07-18T10:31:04Z</time>
      </trkpt>
      <trkpt lat="47.81249" lon="-3.62644">
        <ele>46</ele>
        <time>2018-07-18T10:31:05Z</time>
      </trkpt>
      <trkpt lat="47.81254" lon="-3.62649">
        <ele>46</ele>
        <time>2018-07-18T10:31:06Z</time>
      </trkpt>
      <trkpt lat="47.81258" lon="-3.62653">
        <ele>46</ele>
        <time>2018-07-18T10:31:07Z</time>
      </trkpt>
      <trkpt lat="47.81262" lon="-3.62657">
        <ele>46</ele>
        <time>2018-07-18T10:31:08Z</time>
      </trkpt>
      <trkpt lat="47.81267" lon="-3.62661">
        <ele>46</ele>
        <time>2018-07-18T10:31:09Z</time>
      </trkpt>
      <trkpt lat="47.81271" lon="-3.62665">
        <ele>46</ele>
        <time>2018-07-18T10:31:10Z</time>
      </trkpt>
      <trkpt lat="47.81276" lon="-3.62668">
        <ele>46</ele>
        <time>2018-07-18T10:31:11Z</time>
      </trkpt>
      <trkpt lat="47.81281" lon="-3.62672">
        <ele>46</ele>
        <time>2018-07-18T10:31:12Z</time>
      </trkpt>
      <trkpt lat="47.81285" lon="-3.62676">
        <ele>46</ele>
        <time>2018-07-18T10:31:13Z</time>
      </trkpt>
      <trkpt lat="47.8129" lon="-3.62679">
        <ele>46</ele>
        <time>2018-07-18T10:31:14Z</time>
      </trkpt>
      <trkpt lat="47.81294" lon="-3.62683">
        <ele>46</ele>
        <time>2018-07-18T10:31:15Z</time>
      </trkpt>
      <trkpt lat="47.81298" lon="-3.62687">
        <ele>46</ele>
        <time>2018-07-18T10:31:16Z</time>
      </trkpt>
      <trkpt lat="47.81302" lon="-3.62691">
        <ele>46</ele>
        <time>2018-07-18T10:31:17Z</time>
      </trkpt>
      <trkpt lat="47.81305" lon="-3.62696">
        <ele>46</ele>
        <time>2018-07-18T10:31:18Z</time>
      </trkpt>
      <trkpt lat="47.81305" lon="-3.62702">
        <ele>46</ele>
        <time>2018-07-18T10:31:19Z</time>
      </trkpt>
      <trkpt lat="47.81304" lon="-3.62708">
        <ele>46</ele>
        <time>2018-07-18T10:31:20Z</time>
      </trkpt>
      <trkpt lat="47.81301" lon="-3.62713">
        <ele>46</ele>
        <time>2018-07-18T10:31:21Z</time>
      </trkpt>
      <trkpt lat="47.81297" lon="-3.62718">
        <ele>46</ele>
        <time>2018-07-18T10:31:22Z</time>
      </trkpt>
      <trkpt lat="47.81295" lon="-3.62724">
        <ele>46</ele>
        <time>2018-07-18T10:31:23Z</time>
      </trkpt>
      <trkpt lat="47.81295" lon="-3.62729">
        <ele>46</ele>
        <time>2018-07-18T10:31:24Z</time>
      </trkpt>
      <trkpt lat="47.81297" lon="-3.62732">
        <ele>46</ele>
        <time>2018-07-18T10:31:25Z</time>
      </trkpt>
      <trkpt lat="47.813" lon="-3.62734">
        <ele>46</ele>
        <time>2018-07-18T10:31:26Z</time>
      </trkpt>
      <trkpt lat="47.81302" lon="-3.62736">
        <ele>46</ele>
        <time>2018-07-18T10:31:27Z</time>
      </trkpt>
      <trkpt lat="47.81305" lon="-3.62739">
        <ele>46</ele>
        <time>2018-07-18T10:31:28Z</time>
      </trkpt>
      <trkpt lat="47.81308" lon="-3.62743">
        <ele>46</ele>
        <time>2018-07-18T10:31:29Z</time>
      </trkpt>
      <trkpt lat="47.81311" lon="-3.62746">
        <ele>46</ele>
        <time>2018-07-18T10:31:30Z</time>
      </trkpt>
      <trkpt lat="47.81315" lon="-3.62749">
        <ele>46</ele>
        <time>2018-07-18T10:31:31Z</time>
      </trkpt>
      <trkpt lat="47.81318" lon="-3.62752">
        <ele>47</ele>
        <time>2018-07-18T10:31:32Z</time>
      </trkpt>
      <trkpt lat="47.81322" lon="-3.62756">
        <ele>47</ele>
        <time>2018-07-18T10:31:33Z</time>
      </trkpt>
      <trkpt lat="47.81325" lon="-3.62761">
        <ele>47</ele>
        <time>2018-07-18T10:31:34Z</time>
      </trkpt>
      <trkpt lat="47.81328" lon="-3.62765">
        <ele>47</ele>
        <time>2018-07-18T10:31:35Z</time>
      </trkpt>
      <trkpt lat="47.81332" lon="-3.6277">
        <ele>47</ele>
        <time>2018-07-18T10:31:36Z</time>
      </trkpt>
      <trkpt lat="47.81335" lon="-3.62774">
        <ele>47</ele>
        <time>2018-07-18T10:31:37Z</time>
      </trkpt>
      <trkpt lat="47.81339" lon="-3.62779">
        <ele>47</ele>
        <time>2018-07-18T10:31:38Z</time>
      </trkpt>
      <trkpt lat="47.81343" lon="-3.62783">
        <ele>47</ele>
        <time>2018-07-18T10:31:39Z</time>
      </trkpt>
      <trkpt lat="47.81346" lon="-3.62788">
        <ele>47</ele>
        <time>2018-07-18T10:31:40Z</time>
      </trkpt>
      <trkpt lat="47.8135" lon="-3.62792">
        <ele>47</ele>
        <time>2018-07-18T10:31:41Z</time>
      </trkpt>
      <trkpt lat="47.81354" lon="-3.62797">
        <ele>48</ele>
        <time>2018-07-18T10:31:42Z</time>
      </trkpt>
      <trkpt lat="47.81357" lon="-3.62801">
        <ele>48</ele>
        <time>2018-07-18T10:31:43Z</time>
      </trkpt>
      <trkpt lat="47.81361" lon="-3.62806">
        <ele>48</ele>
        <time>2018-07-18T10:31:44Z</time>
      </trkpt>
      <trkpt lat="47.81364" lon="-3.6281">
        <ele>48</ele>
        <time>2018-07-18T10:31:45Z</time>
      </trkpt>
      <trkpt lat="47.81368" lon="-3.62815">
        <ele>49</ele>
        <time>2018-07-18T10:31:46Z</time>
      </trkpt>
      <trkpt lat="47.81371" lon="-3.62818">
        <ele>49</ele>
        <time>2018-07-18T10:31:47Z</time>
      </trkpt>
      <trkpt lat="47.81374" lon="-3.62822">
        <ele>49</ele>
        <time>2018-07-18T10:31:48Z</time>
      </trkpt>
      <trkpt lat="47.81377" lon="-3.62827">
        <ele>49</ele>
        <time>2018-07-18T10:31:49Z</time>
      </trkpt>
      <trkpt lat="47.8138" lon="-3.62831">
        <ele>50</ele>
        <time>2018-07-18T10:31:50Z</time>
      </trkpt>
      <trkpt lat="47.81383" lon="-3.62835">
        <ele>50</ele>
        <time>2018-07-18T10:31:51Z</time>
      </trkpt>
      <trkpt lat="47.81387" lon="-3.62838">
        <ele>50</ele>
        <time>2018-07-18T10:31:52Z</time>
      </trkpt>
      <trkpt lat="47.8139" lon="-3.62842">
        <ele>50</ele>
        <time>2018-07-18T10:31:53Z</time>
      </trkpt>
      <trkpt lat="47.81393" lon="-3.62845">
        <ele>50</ele>
        <time>2018-07-18T10:31:54Z</time>
      </trkpt>
      <trkpt lat="47.81396" lon="-3.62847">
        <ele>51</ele>
        <time>2018-07-18T10:31:55Z</time>
      </trkpt>
      <trkpt lat="47.81397" lon="-3.62847">
        <ele>51</ele>
        <time>2018-07-18T10:31:56Z</time>
      </trkpt>
      <trkpt lat="47.814" lon="-3.62847">
        <ele>51</ele>
        <time>2018-07-18T10:31:57Z</time>
      </trkpt>
      <trkpt lat="47.81403" lon="-3.62847">
        <ele>51</ele>
        <time>2018-07-18T10:31:58Z</time>
      </trkpt>
      <trkpt lat="47.81406" lon="-3.62848">
        <ele>52</ele>
        <time>2018-07-18T10:31:59Z</time>
      </trkpt>
      <trkpt lat="47.8141" lon="-3.62848">
        <ele>52</ele>
        <time>2018-07-18T10:32:00Z</time>
      </trkpt>
      <trkpt lat="47.81414" lon="-3.62849">
        <ele>52</ele>
        <time>2018-07-18T10:32:01Z</time>
      </trkpt>
      <trkpt lat="47.81418" lon="-3.62851">
        <ele>52</ele>
        <time>2018-07-18T10:32:02Z</time>
      </trkpt>
      <trkpt lat="47.81422" lon="-3.62854">
        <ele>52</ele>
        <time>2018-07-18T10:32:03Z</time>
      </trkpt>
      <trkpt lat="47.81426" lon="-3.62857">
        <ele>52</ele>
        <time>2018-07-18T10:32:04Z</time>
      </trkpt>
      <trkpt lat="47.81429" lon="-3.62859">
        <ele>53</ele>
        <time>2018-07-18T10:32:05Z</time>
      </trkpt>
      <trkpt lat="47.81433" lon="-3.62863">
        <ele>53</ele>
        <time>2018-07-18T10:32:06Z</time>
      </trkpt>
      <trkpt lat="47.81436" lon="-3.62866">
        <ele>53</ele>
        <time>2018-07-18T10:32:07Z</time>
      </trkpt>
      <trkpt lat="47.81438" lon="-3.62871">
        <ele>53</ele>
        <time>2018-07-18T10:32:08Z</time>
      </trkpt>
      <trkpt lat="47.81439" lon="-3.62876">
        <ele>53</ele>
        <time>2018-07-18T10:32:09Z</time>
      </trkpt>
      <trkpt lat="47.8144" lon="-3.62882">
        <ele>53</ele>
        <time>2018-07-18T10:32:10Z</time>
      </trkpt>
      <trkpt lat="47.8144" lon="-3.62888">
        <ele>53</ele>
        <time>2018-07-18T10:32:11Z</time>
      </trkpt>
      <trkpt lat="47.81439" lon="-3.62894">
        <ele>53</ele>
        <time>2018-07-18T10:32:12Z</time>
      </trkpt>
      <trkpt lat="47.81437" lon="-3.629">
        <ele>53</ele>
        <time>2018-07-18T10:32:13Z</time>
      </trkpt>
      <trkpt lat="47.81435" lon="-3.62906">
        <ele>53</ele>
        <time>2018-07-18T10:32:14Z</time>
      </trkpt>
      <trkpt lat="47.81433" lon="-3.62912">
        <ele>53</ele>
        <time>2018-07-18T10:32:15Z</time>
      </trkpt>
      <trkpt lat="47.81432" lon="-3.6292">
        <ele>53</ele>
        <time>2018-07-18T10:32:16Z</time>
      </trkpt>
      <trkpt lat="47.81431" lon="-3.62927">
        <ele>53</ele>
        <time>2018-07-18T10:32:17Z</time>
      </trkpt>
      <trkpt lat="47.8143" lon="-3.62935">
        <ele>53</ele>
        <time>2018-07-18T10:32:18Z</time>
      </trkpt>
      <trkpt lat="47.81429" lon="-3.62943">
        <ele>53</ele>
        <time>2018-07-18T10:32:19Z</time>
      </trkpt>
      <trkpt lat="47.81429" lon="-3.6295">
        <ele>53</ele>
        <time>2018-07-18T10:32:20Z</time>
      </trkpt>
      <trkpt lat="47.81429" lon="-3.62957">
        <ele>53</ele>
        <time>2018-07-18T10:32:21Z</time>
      </trkpt>
      <trkpt lat="47.81428" lon="-3.62965">
        <ele>53</ele>
        <time>2018-07-18T10:32:22Z</time>
      </trkpt>
      <trkpt lat="47.81428" lon="-3.62972">
        <ele>53</ele>
        <time>2018-07-18T10:32:23Z</time>
      </trkpt>
      <trkpt lat="47.81428" lon="-3.62978">
        <ele>54</ele>
        <time>2018-07-18T10:32:24Z</time>
      </trkpt>
      <trkpt lat="47.81427" lon="-3.62985">
        <ele>54</ele>
        <time>2018-07-18T10:32:25Z</time>
      </trkpt>
      <trkpt lat="47.81427" lon="-3.62992">
        <ele>54</ele>
        <time>2018-07-18T10:32:26Z</time>
      </trkpt>
      <trkpt lat="47.81426" lon="-3.63">
        <ele>54</ele>
        <time>2018-07-18T10:32:27Z</time>
      </trkpt>
      <trkpt lat="47.81425" lon="-3.63008">
        <ele>54</ele>
        <time>2018-07-18T10:32:28Z</time>
      </trkpt>
      <trkpt lat="47.81424" lon="-3.63016">
        <ele>54</ele>
        <time>2018-07-18T10:32:29Z</time>
      </trkpt>
      <trkpt lat="47.81423" lon="-3.63024">
        <ele>54</ele>
        <time>2018-07-18T10:32:30Z</time>
      </trkpt>
      <trkpt lat="47.81422" lon="-3.63032">
        <ele>54</ele>
        <time>2018-07-18T10:32:31Z</time>
      </trkpt>
      <trkpt lat="47.8142" lon="-3.6304">
        <ele>54</ele>
        <time>2018-07-18T10:32:32Z</time>
      </trkpt>
      <trkpt lat="47.81419" lon="-3.63048">
        <ele>54</ele>
        <time>2018-07-18T10:32:33Z</time>
      </trkpt>
      <trkpt lat="47.81417" lon="-3.63057">
        <ele>54</ele>
        <time>2018-07-18T10:32:34Z</time>
      </trkpt>
      <trkpt lat="47.81416" lon="-3.63065">
        <ele>54</ele>
        <time>2018-07-18T10:32:35Z</time>
      </trkpt>
      <trkpt lat="47.81415" lon="-3.63074">
        <ele>54</ele>
        <time>2018-07-18T10:32:36Z</time>
      </trkpt>
      <trkpt lat="47.81414" lon="-3.63082">
        <ele>54</ele>
        <time>2018-07-18T10:32:37Z</time>
      </trkpt>
      <trkpt lat="47.81413" lon="-3.63091">
        <ele>54</ele>
        <time>2018-07-18T10:32:38Z</time>
      </trkpt>
      <trkpt lat="47.81412" lon="-3.63099">
        <ele>54</ele>
        <time>2018-07-18T10:32:39Z</time>
      </trkpt>
      <trkpt lat="47.81412" lon="-3.63108">
        <ele>54</ele>
        <time>2018-07-18T10:32:40Z</time>
      </trkpt>
      <trkpt lat="47.8141" lon="-3.63116">
        <ele>54</ele>
        <time>2018-07-18T10:32:41Z</time>
      </trkpt>
      <trkpt lat="47.8141" lon="-3.63124">
        <ele>54</ele>
        <time>2018-07-18T10:32:42Z</time>
      </trkpt>
      <trkpt lat="47.81409" lon="-3.63133">
        <ele>54</ele>
        <time>2018-07-18T10:32:43Z</time>
      </trkpt>
      <trkpt lat="47.81408" lon="-3.63142">
        <ele>54</ele>
        <time>2018-07-18T10:32:44Z</time>
      </trkpt>
      <trkpt lat="47.81407" lon="-3.6315">
        <ele>54</ele>
        <time>2018-07-18T10:32:45Z</time>
      </trkpt>
      <trkpt lat="47.81406" lon="-3.63159">
        <ele>54</ele>
        <time>2018-07-18T10:32:46Z</time>
      </trkpt>
      <trkpt lat="47.81405" lon="-3.63168">
        <ele>54</ele>
        <time>2018-07-18T10:32:47Z</time>
      </trkpt>
      <trkpt lat="47.81403" lon="-3.63176">
        <ele>54</ele>
        <time>2018-07-18T10:32:48Z</time>
      </trkpt>
      <trkpt lat="47.81402" lon="-3.63185">
        <ele>54</ele>
        <time>2018-07-18T10:32:49Z</time>
      </trkpt>
      <trkpt lat="47.81401" lon="-3.63194">
        <ele>54</ele>
        <time>2018-07-18T10:32:50Z</time>
      </trkpt>
      <trkpt lat="47.814" lon="-3.63202">
        <ele>54</ele>
        <time>2018-07-18T10:32:51Z</time>
      </trkpt>
      <trkpt lat="47.81399" lon="-3.6321">
        <ele>54</ele>
        <time>2018-07-18T10:32:52Z</time>
      </trkpt>
      <trkpt lat="47.81397" lon="-3.63218">
        <ele>54</ele>
        <time>2018-07-18T10:32:53Z</time>
      </trkpt>
      <trkpt lat="47.81396" lon="-3.63226">
        <ele>54</ele>
        <time>2018-07-18T10:32:54Z</time>
      </trkpt>
      <trkpt lat="47.81394" lon="-3.63234">
        <ele>54</ele>
        <time>2018-07-18T10:32:55Z</time>
      </trkpt>
      <trkpt lat="47.81393" lon="-3.63243">
        <ele>54</ele>
        <time>2018-07-18T10:32:56Z</time>
      </trkpt>
      <trkpt lat="47.81391" lon="-3.63251">
        <ele>54</ele>
        <time>2018-07-18T10:32:57Z</time>
      </trkpt>
      <trkpt lat="47.8139" lon="-3.6326">
        <ele>54</ele>
        <time>2018-07-18T10:32:58Z</time>
      </trkpt>
      <trkpt lat="47.81388" lon="-3.6327">
        <ele>54</ele>
        <time>2018-07-18T10:32:59Z</time>
      </trkpt>
      <trkpt lat="47.81387" lon="-3.63279">
        <ele>54</ele>
        <time>2018-07-18T10:33:00Z</time>
      </trkpt>
      <trkpt lat="47.81386" lon="-3.63288">
        <ele>54</ele>
        <time>2018-07-18T10:33:01Z</time>
      </trkpt>
      <trkpt lat="47.81384" lon="-3.63297">
        <ele>54</ele>
        <time>2018-07-18T10:33:02Z</time>
      </trkpt>
      <trkpt lat="47.81383" lon="-3.63306">
        <ele>54</ele>
        <time>2018-07-18T10:33:03Z</time>
      </trkpt>
      <trkpt lat="47.81381" lon="-3.63315">
        <ele>53</ele>
        <time>2018-07-18T10:33:04Z</time>
      </trkpt>
      <trkpt lat="47.8138" lon="-3.63324">
        <ele>53</ele>
        <time>2018-07-18T10:33:05Z</time>
      </trkpt>
      <trkpt lat="47.81378" lon="-3.63334">
        <ele>53</ele>
        <time>2018-07-18T10:33:06Z</time>
      </trkpt>
      <trkpt lat="47.81377" lon="-3.63343">
        <ele>53</ele>
        <time>2018-07-18T10:33:07Z</time>
      </trkpt>
      <trkpt lat="47.81376" lon="-3.63352">
        <ele>53</ele>
        <time>2018-07-18T10:33:08Z</time>
      </trkpt>
      <trkpt lat="47.81374" lon="-3.63361">
        <ele>53</ele>
        <time>2018-07-18T10:33:09Z</time>
      </trkpt>
      <trkpt lat="47.81373" lon="-3.6337">
        <ele>53</ele>
        <time>2018-07-18T10:33:10Z</time>
      </trkpt>
      <trkpt lat="47.81372" lon="-3.63379">
        <ele>53</ele>
        <time>2018-07-18T10:33:11Z</time>
      </trkpt>
      <trkpt lat="47.81372" lon="-3.63387">
        <ele>53</ele>
        <time>2018-07-18T10:33:12Z</time>
      </trkpt>
      <trkpt lat="47.81371" lon="-3.63396">
        <ele>53</ele>
        <time>2018-07-18T10:33:13Z</time>
      </trkpt>
      <trkpt lat="47.8137" lon="-3.63404">
        <ele>53</ele>
        <time>2018-07-18T10:33:14Z</time>
      </trkpt>
      <trkpt lat="47.81369" lon="-3.63412">
        <ele>53</ele>
        <time>2018-07-18T10:33:15Z</time>
      </trkpt>
      <trkpt lat="47.81368" lon="-3.6342">
        <ele>53</ele>
        <time>2018-07-18T10:33:16Z</time>
      </trkpt>
      <trkpt lat="47.81367" lon="-3.63428">
        <ele>53</ele>
        <time>2018-07-18T10:33:17Z</time>
      </trkpt>
      <trkpt lat="47.81367" lon="-3.63436">
        <ele>53</ele>
        <time>2018-07-18T10:33:18Z</time>
      </trkpt>
      <trkpt lat="47.81366" lon="-3.63445">
        <ele>53</ele>
        <time>2018-07-18T10:33:19Z</time>
      </trkpt>
      <trkpt lat="47.81365" lon="-3.63454">
        <ele>53</ele>
        <time>2018-07-18T10:33:20Z</time>
      </trkpt>
      <trkpt lat="47.81364" lon="-3.63462">
        <ele>52</ele>
        <time>2018-07-18T10:33:21Z</time>
      </trkpt>
      <trkpt lat="47.81363" lon="-3.63471">
        <ele>52</ele>
        <time>2018-07-18T10:33:22Z</time>
      </trkpt>
      <trkpt lat="47.81362" lon="-3.63481">
        <ele>52</ele>
        <time>2018-07-18T10:33:23Z</time>
      </trkpt>
      <trkpt lat="47.81361" lon="-3.6349">
        <ele>52</ele>
        <time>2018-07-18T10:33:24Z</time>
      </trkpt>
      <trkpt lat="47.8136" lon="-3.63499">
        <ele>52</ele>
        <time>2018-07-18T10:33:25Z</time>
      </trkpt>
      <trkpt lat="47.81359" lon="-3.63508">
        <ele>52</ele>
        <time>2018-07-18T10:33:26Z</time>
      </trkpt>
      <trkpt lat="47.81358" lon="-3.63518">
        <ele>52</ele>
        <time>2018-07-18T10:33:27Z</time>
      </trkpt>
      <trkpt lat="47.81356" lon="-3.63527">
        <ele>52</ele>
        <time>2018-07-18T10:33:28Z</time>
      </trkpt>
      <trkpt lat="47.81355" lon="-3.63537">
        <ele>51</ele>
        <time>2018-07-18T10:33:29Z</time>
      </trkpt>
      <trkpt lat="47.81353" lon="-3.63546">
        <ele>51</ele>
        <time>2018-07-18T10:33:30Z</time>
      </trkpt>
      <trkpt lat="47.81351" lon="-3.63555">
        <ele>51</ele>
        <time>2018-07-18T10:33:31Z</time>
      </trkpt>
      <trkpt lat="47.8135" lon="-3.63564">
        <ele>51</ele>
        <time>2018-07-18T10:33:32Z</time>
      </trkpt>
      <trkpt lat="47.81348" lon="-3.63574">
        <ele>51</ele>
        <time>2018-07-18T10:33:33Z</time>
      </trkpt>
      <trkpt lat="47.81346" lon="-3.63583">
        <ele>51</ele>
        <time>2018-07-18T10:33:34Z</time>
      </trkpt>
      <trkpt lat="47.81345" lon="-3.63592">
        <ele>51</ele>
        <time>2018-07-18T10:33:35Z</time>
      </trkpt>
      <trkpt lat="47.81343" lon="-3.63602">
        <ele>51</ele>
        <time>2018-07-18T10:33:36Z</time>
      </trkpt>
      <trkpt lat="47.81341" lon="-3.63611">
        <ele>51</ele>
        <time>2018-07-18T10:33:37Z</time>
      </trkpt>
      <trkpt lat="47.81339" lon="-3.6362">
        <ele>51</ele>
        <time>2018-07-18T10:33:38Z</time>
      </trkpt>
      <trkpt lat="47.81337" lon="-3.63629">
        <ele>51</ele>
        <time>2018-07-18T10:33:39Z</time>
      </trkpt>
      <trkpt lat="47.81335" lon="-3.63638">
        <ele>51</ele>
        <time>2018-07-18T10:33:40Z</time>
      </trkpt>
      <trkpt lat="47.81333" lon="-3.63648">
        <ele>51</ele>
        <time>2018-07-18T10:33:41Z</time>
      </trkpt>
      <trkpt lat="47.81331" lon="-3.63657">
        <ele>51</ele>
        <time>2018-07-18T10:33:42Z</time>
      </trkpt>
      <trkpt lat="47.81329" lon="-3.63666">
        <ele>50</ele>
        <time>2018-07-18T10:33:43Z</time>
      </trkpt>
      <trkpt lat="47.81327" lon="-3.63676">
        <ele>50</ele>
        <time>2018-07-18T10:33:44Z</time>
      </trkpt>
      <trkpt lat="47.81326" lon="-3.63685">
        <ele>50</ele>
        <time>2018-07-18T10:33:45Z</time>
      </trkpt>
      <trkpt lat="47.81324" lon="-3.63695">
        <ele>50</ele>
        <time>2018-07-18T10:33:46Z</time>
      </trkpt>
      <trkpt lat="47.81321" lon="-3.63704">
        <ele>50</ele>
        <time>2018-07-18T10:33:47Z</time>
      </trkpt>
      <trkpt lat="47.81319" lon="-3.63713">
        <ele>51</ele>
        <time>2018-07-18T10:33:48Z</time>
      </trkpt>
      <trkpt lat="47.81317" lon="-3.63722">
        <ele>51</ele>
        <time>2018-07-18T10:33:49Z</time>
      </trkpt>
      <trkpt lat="47.81315" lon="-3.63731">
        <ele>51</ele>
        <time>2018-07-18T10:33:50Z</time>
      </trkpt>
      <trkpt lat="47.81313" lon="-3.6374">
        <ele>51</ele>
        <time>2018-07-18T10:33:51Z</time>
      </trkpt>
      <trkpt lat="47.81311" lon="-3.63749">
        <ele>51</ele>
        <time>2018-07-18T10:33:52Z</time>
      </trkpt>
      <trkpt lat="47.81309" lon="-3.63758">
        <ele>51</ele>
        <time>2018-07-18T10:33:53Z</time>
      </trkpt>
      <trkpt lat="47.81307" lon="-3.63767">
        <ele>51</ele>
        <time>2018-07-18T10:33:54Z</time>
      </trkpt>
      <trkpt lat="47.81305" lon="-3.63775">
        <ele>51</ele>
        <time>2018-07-18T10:33:55Z</time>
      </trkpt>
      <trkpt lat="47.81303" lon="-3.63784">
        <ele>51</ele>
        <time>2018-07-18T10:33:56Z</time>
      </trkpt>
      <trkpt lat="47.81302" lon="-3.63792">
        <ele>51</ele>
        <time>2018-07-18T10:33:57Z</time>
      </trkpt>
      <trkpt lat="47.813" lon="-3.63799">
        <ele>51</ele>
        <time>2018-07-18T10:33:58Z</time>
      </trkpt>
      <trkpt lat="47.81298" lon="-3.63807">
        <ele>51</ele>
        <time>2018-07-18T10:33:59Z</time>
      </trkpt>
      <trkpt lat="47.81296" lon="-3.63814">
        <ele>51</ele>
        <time>2018-07-18T10:34:00Z</time>
      </trkpt>
      <trkpt lat="47.81294" lon="-3.63822">
        <ele>51</ele>
        <time>2018-07-18T10:34:01Z</time>
      </trkpt>
      <trkpt lat="47.81292" lon="-3.63829">
        <ele>51</ele>
        <time>2018-07-18T10:34:02Z</time>
      </trkpt>
      <trkpt lat="47.81291" lon="-3.63836">
        <ele>51</ele>
        <time>2018-07-18T10:34:03Z</time>
      </trkpt>
      <trkpt lat="47.81289" lon="-3.63844">
        <ele>51</ele>
        <time>2018-07-18T10:34:04Z</time>
      </trkpt>
      <trkpt lat="47.81287" lon="-3.63851">
        <ele>51</ele>
        <time>2018-07-18T10:34:05Z</time>
      </trkpt>
      <trkpt lat="47.81285" lon="-3.63858">
        <ele>51</ele>
        <time>2018-07-18T10:34:06Z</time>
      </trkpt>
      <trkpt lat="47.81284" lon="-3.63866">
        <ele>51</ele>
        <time>2018-07-18T10:34:07Z</time>
      </trkpt>
      <trkpt lat="47.81282" lon="-3.63873">
        <ele>51</ele>
        <time>2018-07-18T10:34:08Z</time>
      </trkpt>
      <trkpt lat="47.81281" lon="-3.63881">
        <ele>51</ele>
        <time>2018-07-18T10:34:09Z</time>
      </trkpt>
      <trkpt lat="47.81279" lon="-3.63889">
        <ele>51</ele>
        <time>2018-07-18T10:34:10Z</time>
      </trkpt>
      <trkpt lat="47.81277" lon="-3.63898">
        <ele>51</ele>
        <time>2018-07-18T10:34:11Z</time>
      </trkpt>
      <trkpt lat="47.81275" lon="-3.63906">
        <ele>50</ele>
        <time>2018-07-18T10:34:12Z</time>
      </trkpt>
      <trkpt lat="47.81274" lon="-3.63915">
        <ele>50</ele>
        <time>2018-07-18T10:34:13Z</time>
      </trkpt>
      <trkpt lat="47.81272" lon="-3.63924">
        <ele>50</ele>
        <time>2018-07-18T10:34:14Z</time>
      </trkpt>
      <trkpt lat="47.81271" lon="-3.63934">
        <ele>49</ele>
        <time>2018-07-18T10:34:15Z</time>
      </trkpt>
      <trkpt lat="47.81269" lon="-3.63943">
        <ele>49</ele>
        <time>2018-07-18T10:34:16Z</time>
      </trkpt>
      <trkpt lat="47.81268" lon="-3.63953">
        <ele>49</ele>
        <time>2018-07-18T10:34:17Z</time>
      </trkpt>
      <trkpt lat="47.81267" lon="-3.63964">
        <ele>49</ele>
        <time>2018-07-18T10:34:18Z</time>
      </trkpt>
      <trkpt lat="47.81267" lon="-3.63975">
        <ele>48</ele>
        <time>2018-07-18T10:34:19Z</time>
      </trkpt>
      <trkpt lat="47.81266" lon="-3.63987">
        <ele>48</ele>
        <time>2018-07-18T10:34:20Z</time>
      </trkpt>
      <trkpt lat="47.81265" lon="-3.63998">
        <ele>48</ele>
        <time>2018-07-18T10:34:21Z</time>
      </trkpt>
      <trkpt lat="47.81265" lon="-3.6401">
        <ele>47</ele>
        <time>2018-07-18T10:34:22Z</time>
      </trkpt>
      <trkpt lat="47.81265" lon="-3.64022">
        <ele>47</ele>
        <time>2018-07-18T10:34:23Z</time>
      </trkpt>
      <trkpt lat="47.81265" lon="-3.64034">
        <ele>46</ele>
        <time>2018-07-18T10:34:24Z</time>
      </trkpt>
      <trkpt lat="47.81266" lon="-3.64046">
        <ele>46</ele>
        <time>2018-07-18T10:34:25Z</time>
      </trkpt>
      <trkpt lat="47.81267" lon="-3.64058">
        <ele>45</ele>
        <time>2018-07-18T10:34:26Z</time>
      </trkpt>
      <trkpt lat="47.81268" lon="-3.64069">
        <ele>45</ele>
        <time>2018-07-18T10:34:27Z</time>
      </trkpt>
      <trkpt lat="47.8127" lon="-3.64081">
        <ele>45</ele>
        <time>2018-07-18T10:34:28Z</time>
      </trkpt>
      <trkpt lat="47.81271" lon="-3.64092">
        <ele>44</ele>
        <time>2018-07-18T10:34:29Z</time>
      </trkpt>
      <trkpt lat="47.81273" lon="-3.64102">
        <ele>44</ele>
        <time>2018-07-18T10:34:30Z</time>
      </trkpt>
      <trkpt lat="47.81275" lon="-3.64113">
        <ele>43</ele>
        <time>2018-07-18T10:34:31Z</time>
      </trkpt>
      <trkpt lat="47.81277" lon="-3.64124">
        <ele>43</ele>
        <time>2018-07-18T10:34:32Z</time>
      </trkpt>
      <trkpt lat="47.81279" lon="-3.64134">
        <ele>43</ele>
        <time>2018-07-18T10:34:33Z</time>
      </trkpt>
      <trkpt lat="47.81281" lon="-3.64145">
        <ele>43</ele>
        <time>2018-07-18T10:34:34Z</time>
      </trkpt>
      <trkpt lat="47.81284" lon="-3.64155">
        <ele>42</ele>
        <time>2018-07-18T10:34:35Z</time>
      </trkpt>
      <trkpt lat="47.81287" lon="-3.64166">
        <ele>42</ele>
        <time>2018-07-18T10:34:36Z</time>
      </trkpt>
      <trkpt lat="47.8129" lon="-3.64176">
        <ele>42</ele>
        <time>2018-07-18T10:34:37Z</time>
      </trkpt>
      <trkpt lat="47.81293" lon="-3.64186">
        <ele>42</ele>
        <time>2018-07-18T10:34:38Z</time>
      </trkpt>
      <trkpt lat="47.81296" lon="-3.64196">
        <ele>42</ele>
        <time>2018-07-18T10:34:39Z</time>
      </trkpt>
      <trkpt lat="47.81299" lon="-3.64206">
        <ele>41</ele>
        <time>2018-07-18T10:34:40Z</time>
      </trkpt>
      <trkpt lat="47.81303" lon="-3.64216">
        <ele>41</ele>
        <time>2018-07-18T10:34:41Z</time>
      </trkpt>
      <trkpt lat="47.81307" lon="-3.64226">
        <ele>41</ele>
        <time>2018-07-18T10:34:42Z</time>
      </trkpt>
      <trkpt lat="47.81311" lon="-3.64236">
        <ele>41</ele>
        <time>2018-07-18T10:34:43Z</time>
      </trkpt>
      <trkpt lat="47.81315" lon="-3.64246">
        <ele>40</ele>
        <time>2018-07-18T10:34:44Z</time>
      </trkpt>
      <trkpt lat="47.81319" lon="-3.64255">
        <ele>40</ele>
        <time>2018-07-18T10:34:45Z</time>
      </trkpt>
      <trkpt lat="47.81324" lon="-3.64265">
        <ele>40</ele>
        <time>2018-07-18T10:34:46Z</time>
      </trkpt>
      <trkpt lat="47.81328" lon="-3.64274">
        <ele>40</ele>
        <time>2018-07-18T10:34:47Z</time>
      </trkpt>
      <trkpt lat="47.81332" lon="-3.64284">
        <ele>39</ele>
        <time>2018-07-18T10:34:48Z</time>
      </trkpt>
      <trkpt lat="47.81337" lon="-3.64293">
        <ele>39</ele>
        <time>2018-07-18T10:34:49Z</time>
      </trkpt>
      <trkpt lat="47.81341" lon="-3.64302">
        <ele>39</ele>
        <time>2018-07-18T10:34:50Z</time>
      </trkpt>
      <trkpt lat="47.81345" lon="-3.64311">
        <ele>39</ele>
        <time>2018-07-18T10:34:51Z</time>
      </trkpt>
      <trkpt lat="47.81349" lon="-3.6432">
        <ele>38</ele>
        <time>2018-07-18T10:34:52Z</time>
      </trkpt>
      <trkpt lat="47.81353" lon="-3.64329">
        <ele>38</ele>
        <time>2018-07-18T10:34:53Z</time>
      </trkpt>
      <trkpt lat="47.81358" lon="-3.64338">
        <ele>38</ele>
        <time>2018-07-18T10:34:54Z</time>
      </trkpt>
      <trkpt lat="47.81361" lon="-3.64345">
        <ele>38</ele>
        <time>2018-07-18T10:34:55Z</time>
      </trkpt>
      <trkpt lat="47.81364" lon="-3.6435">
        <ele>37</ele>
        <time>2018-07-18T10:34:56Z</time>
      </trkpt>
      <trkpt lat="47.81366" lon="-3.64351">
        <ele>37</ele>
        <time>2018-07-18T10:34:57Z</time>
      </trkpt>
      <trkpt lat="47.81368" lon="-3.6435">
        <ele>37</ele>
        <time>2018-07-18T10:34:58Z</time>
      </trkpt>
      <trkpt lat="47.8137" lon="-3.64347">
        <ele>37</ele>
        <time>2018-07-18T10:34:59Z</time>
      </trkpt>
      <trkpt lat="47.81373" lon="-3.64344">
        <ele>37</ele>
        <time>2018-07-18T10:35:00Z</time>
      </trkpt>
      <trkpt lat="47.81376" lon="-3.64341">
        <ele>37</ele>
        <time>2018-07-18T10:35:01Z</time>
      </trkpt>
      <trkpt lat="47.8138" lon="-3.64337">
        <ele>37</ele>
        <time>2018-07-18T10:35:02Z</time>
      </trkpt>
      <trkpt lat="47.81383" lon="-3.64334">
        <ele>36</ele>
        <time>2018-07-18T10:35:03Z</time>
      </trkpt>
      <trkpt lat="47.81387" lon="-3.6433">
        <ele>36</ele>
        <time>2018-07-18T10:35:04Z</time>
      </trkpt>
      <trkpt lat="47.81392" lon="-3.64327">
        <ele>36</ele>
        <time>2018-07-18T10:35:05Z</time>
      </trkpt>
      <trkpt lat="47.81396" lon="-3.64324">
        <ele>36</ele>
        <time>2018-07-18T10:35:06Z</time>
      </trkpt>
      <trkpt lat="47.814" lon="-3.64321">
        <ele>36</ele>
        <time>2018-07-18T10:35:07Z</time>
      </trkpt>
      <trkpt lat="47.81405" lon="-3.64318">
        <ele>36</ele>
        <time>2018-07-18T10:35:08Z</time>
      </trkpt>
      <trkpt lat="47.8141" lon="-3.64315">
        <ele>36</ele>
        <time>2018-07-18T10:35:09Z</time>
      </trkpt>
      <trkpt lat="47.81416" lon="-3.64313">
        <ele>36</ele>
        <time>2018-07-18T10:35:10Z</time>
      </trkpt>
      <trkpt lat="47.8142" lon="-3.64312">
        <ele>36</ele>
        <time>2018-07-18T10:35:11Z</time>
      </trkpt>
      <trkpt lat="47.81424" lon="-3.6431">
        <ele>36</ele>
        <time>2018-07-18T10:35:12Z</time>
      </trkpt>
      <trkpt lat="47.81429" lon="-3.64309">
        <ele>36</ele>
        <time>2018-07-18T10:35:13Z</time>
      </trkpt>
      <trkpt lat="47.81434" lon="-3.64308">
        <ele>36</ele>
        <time>2018-07-18T10:35:14Z</time>
      </trkpt>
      <trkpt lat="47.81439" lon="-3.64309">
        <ele>36</ele>
        <time>2018-07-18T10:35:15Z</time>
      </trkpt>
      <trkpt lat="47.81442" lon="-3.64309">
        <ele>36</ele>
        <time>2018-07-18T10:35:16Z</time>
      </trkpt>
      <trkpt lat="47.81446" lon="-3.64309">
        <ele>37</ele>
        <time>2018-07-18T10:35:17Z</time>
      </trkpt>
      <trkpt lat="47.8145" lon="-3.64309">
        <ele>37</ele>
        <time>2018-07-18T10:35:18Z</time>
      </trkpt>
      <trkpt lat="47.81455" lon="-3.64309">
        <ele>37</ele>
        <time>2018-07-18T10:35:19Z</time>
      </trkpt>
      <trkpt lat="47.81459" lon="-3.64308">
        <ele>37</ele>
        <time>2018-07-18T10:35:20Z</time>
      </trkpt>
      <trkpt lat="47.81464" lon="-3.64308">
        <ele>38</ele>
        <time>2018-07-18T10:35:21Z</time>
      </trkpt>
      <trkpt lat="47.81469" lon="-3.64309">
        <ele>38</ele>
        <time>2018-07-18T10:35:22Z</time>
      </trkpt>
      <trkpt lat="47.81474" lon="-3.6431">
        <ele>38</ele>
        <time>2018-07-18T10:35:23Z</time>
      </trkpt>
      <trkpt lat="47.8148" lon="-3.64311">
        <ele>38</ele>
        <time>2018-07-18T10:35:24Z</time>
      </trkpt>
      <trkpt lat="47.81484" lon="-3.64311">
        <ele>38</ele>
        <time>2018-07-18T10:35:25Z</time>
      </trkpt>
      <trkpt lat="47.81489" lon="-3.64311">
        <ele>38</ele>
        <time>2018-07-18T10:35:26Z</time>
      </trkpt>
      <trkpt lat="47.81493" lon="-3.64311">
        <ele>38</ele>
        <time>2018-07-18T10:35:27Z</time>
      </trkpt>
      <trkpt lat="47.81498" lon="-3.64312">
        <ele>39</ele>
        <time>2018-07-18T10:35:28Z</time>
      </trkpt>
      <trkpt lat="47.81504" lon="-3.64312">
        <ele>39</ele>
        <time>2018-07-18T10:35:29Z</time>
      </trkpt>
      <trkpt lat="47.8151" lon="-3.64312">
        <ele>39</ele>
        <time>2018-07-18T10:35:30Z</time>
      </trkpt>
      <trkpt lat="47.81516" lon="-3.64312">
        <ele>39</ele>
        <time>2018-07-18T10:35:31Z</time>
      </trkpt>
      <trkpt lat="47.81522" lon="-3.64313">
        <ele>39</ele>
        <time>2018-07-18T10:35:32Z</time>
      </trkpt>
      <trkpt lat="47.81527" lon="-3.64313">
        <ele>40</ele>
        <time>2018-07-18T10:35:33Z</time>
      </trkpt>
      <trkpt lat="47.81532" lon="-3.64312">
        <ele>40</ele>
        <time>2018-07-18T10:35:34Z</time>
      </trkpt>
      <trkpt lat="47.81536" lon="-3.64312">
        <ele>40</ele>
        <time>2018-07-18T10:35:35Z</time>
      </trkpt>
      <trkpt lat="47.81541" lon="-3.64311">
        <ele>40</ele>
        <time>2018-07-18T10:35:36Z</time>
      </trkpt>
      <trkpt lat="47.81546" lon="-3.64312">
        <ele>40</ele>
        <time>2018-07-18T10:35:37Z</time>
      </trkpt>
      <trkpt lat="47.8155" lon="-3.64312">
        <ele>40</ele>
        <time>2018-07-18T10:35:38Z</time>
      </trkpt>
      <trkpt lat="47.81555" lon="-3.64312">
        <ele>41</ele>
        <time>2018-07-18T10:35:39Z</time>
      </trkpt>
      <trkpt lat="47.81561" lon="-3.64311">
        <ele>41</ele>
        <time>2018-07-18T10:35:40Z</time>
      </trkpt>
      <trkpt lat="47.81567" lon="-3.64311">
        <ele>41</ele>
        <time>2018-07-18T10:35:41Z</time>
      </trkpt>
      <trkpt lat="47.81572" lon="-3.64311">
        <ele>41</ele>
        <time>2018-07-18T10:35:42Z</time>
      </trkpt>
      <trkpt lat="47.81577" lon="-3.64311">
        <ele>41</ele>
        <time>2018-07-18T10:35:43Z</time>
      </trkpt>
      <trkpt lat="47.81581" lon="-3.64311">
        <ele>42</ele>
        <time>2018-07-18T10:35:44Z</time>
      </trkpt>
      <trkpt lat="47.81585" lon="-3.64311">
        <ele>42</ele>
        <time>2018-07-18T10:35:45Z</time>
      </trkpt>
      <trkpt lat="47.8159" lon="-3.64311">
        <ele>42</ele>
        <time>2018-07-18T10:35:46Z</time>
      </trkpt>
      <trkpt lat="47.81595" lon="-3.64309">
        <ele>42</ele>
        <time>2018-07-18T10:35:47Z</time>
      </trkpt>
      <trkpt lat="47.816" lon="-3.64307">
        <ele>42</ele>
        <time>2018-07-18T10:35:48Z</time>
      </trkpt>
      <trkpt lat="47.81606" lon="-3.64306">
        <ele>42</ele>
        <time>2018-07-18T10:35:49Z</time>
      </trkpt>
      <trkpt lat="47.81611" lon="-3.64305">
        <ele>42</ele>
        <time>2018-07-18T10:35:50Z</time>
      </trkpt>
      <trkpt lat="47.81616" lon="-3.64304">
        <ele>42</ele>
        <time>2018-07-18T10:35:51Z</time>
      </trkpt>
      <trkpt lat="47.81622" lon="-3.64303">
        <ele>42</ele>
        <time>2018-07-18T10:35:52Z</time>
      </trkpt>
      <trkpt lat="47.81627" lon="-3.64302">
        <ele>42</ele>
        <time>2018-07-18T10:35:53Z</time>
      </trkpt>
      <trkpt lat="47.81633" lon="-3.64301">
        <ele>42</ele>
        <time>2018-07-18T10:35:54Z</time>
      </trkpt>
      <trkpt lat="47.81639" lon="-3.64299">
        <ele>42</ele>
        <time>2018-07-18T10:35:55Z</time>
      </trkpt>
      <trkpt lat="47.81645" lon="-3.64297">
        <ele>42</ele>
        <time>2018-07-18T10:35:56Z</time>
      </trkpt>
      <trkpt lat="47.81651" lon="-3.64298">
        <ele>42</ele>
        <time>2018-07-18T10:35:57Z</time>
      </trkpt>
      <trkpt lat="47.81657" lon="-3.64298">
        <ele>42</ele>
        <time>2018-07-18T10:35:58Z</time>
      </trkpt>
      <trkpt lat="47.81662" lon="-3.64298">
        <ele>42</ele>
        <time>2018-07-18T10:35:59Z</time>
      </trkpt>
      <trkpt lat="47.81667" lon="-3.64297">
        <ele>42</ele>
        <time>2018-07-18T10:36:00Z</time>
      </trkpt>
      <trkpt lat="47.81673" lon="-3.64295">
        <ele>42</ele>
        <time>2018-07-18T10:36:01Z</time>
      </trkpt>
      <trkpt lat="47.81679" lon="-3.64294">
        <ele>42</ele>
        <time>2018-07-18T10:36:02Z</time>
      </trkpt>
      <trkpt lat="47.81685" lon="-3.64294">
        <ele>42</ele>
        <time>2018-07-18T10:36:03Z</time>
      </trkpt>
      <trkpt lat="47.8169" lon="-3.64294">
        <ele>42</ele>
        <time>2018-07-18T10:36:04Z</time>
      </trkpt>
      <trkpt lat="47.81694" lon="-3.64295">
        <ele>42</ele>
        <time>2018-07-18T10:36:05Z</time>
      </trkpt>
      <trkpt lat="47.81698" lon="-3.64297">
        <ele>42</ele>
        <time>2018-07-18T10:36:06Z</time>
      </trkpt>
      <trkpt lat="47.81701" lon="-3.64299">
        <ele>42</ele>
        <time>2018-07-18T10:36:07Z</time>
      </trkpt>
      <trkpt lat="47.81703" lon="-3.64302">
        <ele>42</ele>
        <time>2018-07-18T10:36:08Z</time>
      </trkpt>
      <trkpt lat="47.81704" lon="-3.64305">
        <ele>42</ele>
        <time>2018-07-18T10:36:09Z</time>
      </trkpt>
      <trkpt lat="47.81705" lon="-3.64309">
        <ele>42</ele>
        <time>2018-07-18T10:36:10Z</time>
      </trkpt>
      <trkpt lat="47.81706" lon="-3.64313">
        <ele>42</ele>
        <time>2018-07-18T10:36:11Z</time>
      </trkpt>
      <trkpt lat="47.81708" lon="-3.64319">
        <ele>42</ele>
        <time>2018-07-18T10:36:12Z</time>
      </trkpt>
      <trkpt lat="47.81708" lon="-3.64325">
        <ele>42</ele>
        <time>2018-07-18T10:36:13Z</time>
      </trkpt>
      <trkpt lat="47.8171" lon="-3.64331">
        <ele>42</ele>
        <time>2018-07-18T10:36:14Z</time>
      </trkpt>
      <trkpt lat="47.81711" lon="-3.64337">
        <ele>42</ele>
        <time>2018-07-18T10:36:15Z</time>
      </trkpt>
      <trkpt lat="47.81712" lon="-3.64343">
        <ele>42</ele>
        <time>2018-07-18T10:36:16Z</time>
      </trkpt>
      <trkpt lat="47.81714" lon="-3.6435">
        <ele>42</ele>
        <time>2018-07-18T10:36:17Z</time>
      </trkpt>
      <trkpt lat="47.81715" lon="-3.64355">
        <ele>42</ele>
        <time>2018-07-18T10:36:18Z</time>
      </trkpt>
      <trkpt lat="47.81717" lon="-3.64362">
        <ele>42</ele>
        <time>2018-07-18T10:36:19Z</time>
      </trkpt>
      <trkpt lat="47.81718" lon="-3.64368">
        <ele>42</ele>
        <time>2018-07-18T10:36:20Z</time>
      </trkpt>
      <trkpt lat="47.81721" lon="-3.64375">
        <ele>42</ele>
        <time>2018-07-18T10:36:21Z</time>
      </trkpt>
      <trkpt lat="47.81722" lon="-3.64381">
        <ele>42</ele>
        <time>2018-07-18T10:36:22Z</time>
      </trkpt>
      <trkpt lat="47.81724" lon="-3.64387">
        <ele>42</ele>
        <time>2018-07-18T10:36:23Z</time>
      </trkpt>
      <trkpt lat="47.81725" lon="-3.64393">
        <ele>41</ele>
        <time>2018-07-18T10:36:24Z</time>
      </trkpt>
      <trkpt lat="47.81727" lon="-3.64398">
        <ele>41</ele>
        <time>2018-07-18T10:36:25Z</time>
      </trkpt>
      <trkpt lat="47.81729" lon="-3.64404">
        <ele>41</ele>
        <time>2018-07-18T10:36:26Z</time>
      </trkpt>
      <trkpt lat="47.8173" lon="-3.6441">
        <ele>41</ele>
        <time>2018-07-18T10:36:27Z</time>
      </trkpt>
      <trkpt lat="47.81732" lon="-3.64414">
        <ele>41</ele>
        <time>2018-07-18T10:36:28Z</time>
      </trkpt>
      <trkpt lat="47.81734" lon="-3.64419">
        <ele>41</ele>
        <time>2018-07-18T10:36:29Z</time>
      </trkpt>
      <trkpt lat="47.81735" lon="-3.64424">
        <ele>41</ele>
        <time>2018-07-18T10:36:30Z</time>
      </trkpt>
      <trkpt lat="47.81736" lon="-3.6443">
        <ele>41</ele>
        <time>2018-07-18T10:36:31Z</time>
      </trkpt>
      <trkpt lat="47.81737" lon="-3.64436">
        <ele>41</ele>
        <time>2018-07-18T10:36:32Z</time>
      </trkpt>
      <trkpt lat="47.81739" lon="-3.64443">
        <ele>41</ele>
        <time>2018-07-18T10:36:33Z</time>
      </trkpt>
      <trkpt lat="47.8174" lon="-3.6445">
        <ele>41</ele>
        <time>2018-07-18T10:36:34Z</time>
      </trkpt>
      <trkpt lat="47.81741" lon="-3.64458">
        <ele>41</ele>
        <time>2018-07-18T10:36:35Z</time>
      </trkpt>
      <trkpt lat="47.81741" lon="-3.64464">
        <ele>41</ele>
        <time>2018-07-18T10:36:36Z</time>
      </trkpt>
      <trkpt lat="47.81743" lon="-3.6447">
        <ele>41</ele>
        <time>2018-07-18T10:36:37Z</time>
      </trkpt>
      <trkpt lat="47.81744" lon="-3.64476">
        <ele>41</ele>
        <time>2018-07-18T10:36:38Z</time>
      </trkpt>
      <trkpt lat="47.81745" lon="-3.64482">
        <ele>41</ele>
        <time>2018-07-18T10:36:39Z</time>
      </trkpt>
      <trkpt lat="47.81745" lon="-3.64487">
        <ele>41</ele>
        <time>2018-07-18T10:36:40Z</time>
      </trkpt>
      <trkpt lat="47.81746" lon="-3.64494">
        <ele>41</ele>
        <time>2018-07-18T10:36:41Z</time>
      </trkpt>
      <trkpt lat="47.81747" lon="-3.64501">
        <ele>41</ele>
        <time>2018-07-18T10:36:42Z</time>
      </trkpt>
      <trkpt lat="47.81749" lon="-3.64508">
        <ele>41</ele>
        <time>2018-07-18T10:36:43Z</time>
      </trkpt>
      <trkpt lat="47.81751" lon="-3.64515">
        <ele>41</ele>
        <time>2018-07-18T10:36:44Z</time>
      </trkpt>
      <trkpt lat="47.81753" lon="-3.64521">
        <ele>41</ele>
        <time>2018-07-18T10:36:45Z</time>
      </trkpt>
      <trkpt lat="47.81755" lon="-3.64528">
        <ele>41</ele>
        <time>2018-07-18T10:36:46Z</time>
      </trkpt>
      <trkpt lat="47.81757" lon="-3.64535">
        <ele>41</ele>
        <time>2018-07-18T10:36:47Z</time>
      </trkpt>
      <trkpt lat="47.81759" lon="-3.64542">
        <ele>41</ele>
        <time>2018-07-18T10:36:48Z</time>
      </trkpt>
      <trkpt lat="47.81761" lon="-3.64548">
        <ele>41</ele>
        <time>2018-07-18T10:36:49Z</time>
      </trkpt>
      <trkpt lat="47.81762" lon="-3.64553">
        <ele>41</ele>
        <time>2018-07-18T10:36:50Z</time>
      </trkpt>
      <trkpt lat="47.81764" lon="-3.64559">
        <ele>41</ele>
        <time>2018-07-18T10:36:51Z</time>
      </trkpt>
      <trkpt lat="47.81766" lon="-3.64565">
        <ele>41</ele>
        <time>2018-07-18T10:36:52Z</time>
      </trkpt>
      <trkpt lat="47.81767" lon="-3.64571">
        <ele>41</ele>
        <time>2018-07-18T10:36:53Z</time>
      </trkpt>
      <trkpt lat="47.81769" lon="-3.64577">
        <ele>42</ele>
        <time>2018-07-18T10:36:54Z</time>
      </trkpt>
      <trkpt lat="47.8177" lon="-3.64583">
        <ele>42</ele>
        <time>2018-07-18T10:36:55Z</time>
      </trkpt>
      <trkpt lat="47.81772" lon="-3.64589">
        <ele>42</ele>
        <time>2018-07-18T10:36:56Z</time>
      </trkpt>
      <trkpt lat="47.81773" lon="-3.64594">
        <ele>42</ele>
        <time>2018-07-18T10:36:57Z</time>
      </trkpt>
      <trkpt lat="47.81774" lon="-3.64599">
        <ele>42</ele>
        <time>2018-07-18T10:36:58Z</time>
      </trkpt>
      <trkpt lat="47.81774" lon="-3.64604">
        <ele>42</ele>
        <time>2018-07-18T10:36:59Z</time>
      </trkpt>
      <trkpt lat="47.81774" lon="-3.64609">
        <ele>43</ele>
        <time>2018-07-18T10:37:00Z</time>
      </trkpt>
      <trkpt lat="47.81775" lon="-3.64615">
        <ele>43</ele>
        <time>2018-07-18T10:37:01Z</time>
      </trkpt>
      <trkpt lat="47.81776" lon="-3.64621">
        <ele>43</ele>
        <time>2018-07-18T10:37:02Z</time>
      </trkpt>
      <trkpt lat="47.81777" lon="-3.64629">
        <ele>43</ele>
        <time>2018-07-18T10:37:03Z</time>
      </trkpt>
      <trkpt lat="47.81777" lon="-3.64635">
        <ele>43</ele>
        <time>2018-07-18T10:37:04Z</time>
      </trkpt>
      <trkpt lat="47.81777" lon="-3.64643">
        <ele>44</ele>
        <time>2018-07-18T10:37:05Z</time>
      </trkpt>
      <trkpt lat="47.81777" lon="-3.6465">
        <ele>44</ele>
        <time>2018-07-18T10:37:06Z</time>
      </trkpt>
      <trkpt lat="47.81777" lon="-3.64658">
        <ele>44</ele>
        <time>2018-07-18T10:37:07Z</time>
      </trkpt>
      <trkpt lat="47.81776" lon="-3.64667">
        <ele>44</ele>
        <time>2018-07-18T10:37:08Z</time>
      </trkpt>
      <trkpt lat="47.81776" lon="-3.64676">
        <ele>44</ele>
        <time>2018-07-18T10:37:09Z</time>
      </trkpt>
      <trkpt lat="47.81777" lon="-3.64685">
        <ele>45</ele>
        <time>2018-07-18T10:37:10Z</time>
      </trkpt>
      <trkpt lat="47.81779" lon="-3.64693">
        <ele>45</ele>
        <time>2018-07-18T10:37:11Z</time>
      </trkpt>
      <trkpt lat="47.81781" lon="-3.64701">
        <ele>45</ele>
        <time>2018-07-18T10:37:12Z</time>
      </trkpt>
      <trkpt lat="47.81784" lon="-3.64708">
        <ele>45</ele>
        <time>2018-07-18T10:37:13Z</time>
      </trkpt>
      <trkpt lat="47.81787" lon="-3.64715">
        <ele>45</ele>
        <time>2018-07-18T10:37:14Z</time>
      </trkpt>
      <trkpt lat="47.8179" lon="-3.64722">
        <ele>46</ele>
        <time>2018-07-18T10:37:15Z</time>
      </trkpt>
      <trkpt lat="47.81792" lon="-3.64729">
        <ele>46</ele>
        <time>2018-07-18T10:37:16Z</time>
      </trkpt>
      <trkpt lat="47.81795" lon="-3.64736">
        <ele>46</ele>
        <time>2018-07-18T10:37:17Z</time>
      </trkpt>
      <trkpt lat="47.81799" lon="-3.64743">
        <ele>46</ele>
        <time>2018-07-18T10:37:18Z</time>
      </trkpt>
      <trkpt lat="47.81804" lon="-3.64749">
        <ele>46</ele>
        <time>2018-07-18T10:37:19Z</time>
      </trkpt>
      <trkpt lat="47.81809" lon="-3.64756">
        <ele>46</ele>
        <time>2018-07-18T10:37:20Z</time>
      </trkpt>
      <trkpt lat="47.81814" lon="-3.64764">
        <ele>47</ele>
        <time>2018-07-18T10:37:21Z</time>
      </trkpt>
      <trkpt lat="47.81819" lon="-3.64771">
        <ele>47</ele>
        <time>2018-07-18T10:37:22Z</time>
      </trkpt>
      <trkpt lat="47.81824" lon="-3.64779">
        <ele>46</ele>
        <time>2018-07-18T10:37:23Z</time>
      </trkpt>
      <trkpt lat="47.81828" lon="-3.64788">
        <ele>46</ele>
        <time>2018-07-18T10:37:24Z</time>
      </trkpt>
      <trkpt lat="47.81833" lon="-3.64796">
        <ele>46</ele>
        <time>2018-07-18T10:37:25Z</time>
      </trkpt>
      <trkpt lat="47.81837" lon="-3.64805">
        <ele>46</ele>
        <time>2018-07-18T10:37:26Z</time>
      </trkpt>
      <trkpt lat="47.81842" lon="-3.64814">
        <ele>46</ele>
        <time>2018-07-18T10:37:27Z</time>
      </trkpt>
      <trkpt lat="47.81845" lon="-3.64824">
        <ele>46</ele>
        <time>2018-07-18T10:37:28Z</time>
      </trkpt>
      <trkpt lat="47.81849" lon="-3.64834">
        <ele>45</ele>
        <time>2018-07-18T10:37:29Z</time>
      </trkpt>
      <trkpt lat="47.81851" lon="-3.64843">
        <ele>45</ele>
        <time>2018-07-18T10:37:30Z</time>
      </trkpt>
      <trkpt lat="47.81852" lon="-3.64851">
        <ele>45</ele>
        <time>2018-07-18T10:37:31Z</time>
      </trkpt>
      <trkpt lat="47.81853" lon="-3.64858">
        <ele>44</ele>
        <time>2018-07-18T10:37:32Z</time>
      </trkpt>
      <trkpt lat="47.81852" lon="-3.64864">
        <ele>44</ele>
        <time>2018-07-18T10:37:33Z</time>
      </trkpt>
      <trkpt lat="47.8185" lon="-3.64871">
        <ele>43</ele>
        <time>2018-07-18T10:37:34Z</time>
      </trkpt>
      <trkpt lat="47.81848" lon="-3.64878">
        <ele>43</ele>
        <time>2018-07-18T10:37:35Z</time>
      </trkpt>
      <trkpt lat="47.81846" lon="-3.64886">
        <ele>43</ele>
        <time>2018-07-18T10:37:36Z</time>
      </trkpt>
      <trkpt lat="47.81845" lon="-3.64894">
        <ele>43</ele>
        <time>2018-07-18T10:37:37Z</time>
      </trkpt>
      <trkpt lat="47.81842" lon="-3.64901">
        <ele>42</ele>
        <time>2018-07-18T10:37:38Z</time>
      </trkpt>
      <trkpt lat="47.81839" lon="-3.64906">
        <ele>42</ele>
        <time>2018-07-18T10:37:39Z</time>
      </trkpt>
      <trkpt lat="47.81835" lon="-3.64911">
        <ele>42</ele>
        <time>2018-07-18T10:37:40Z</time>
      </trkpt>
      <trkpt lat="47.81832" lon="-3.64916">
        <ele>42</ele>
        <time>2018-07-18T10:37:41Z</time>
      </trkpt>
      <trkpt lat="47.81829" lon="-3.64921">
        <ele>41</ele>
        <time>2018-07-18T10:37:42Z</time>
      </trkpt>
      <trkpt lat="47.81827" lon="-3.64927">
        <ele>41</ele>
        <time>2018-07-18T10:37:43Z</time>
      </trkpt>
      <trkpt lat="47.81825" lon="-3.64933">
        <ele>41</ele>
        <time>2018-07-18T10:37:44Z</time>
      </trkpt>
      <trkpt lat="47.81823" lon="-3.64939">
        <ele>41</ele>
        <time>2018-07-18T10:37:45Z</time>
      </trkpt>
      <trkpt lat="47.81822" lon="-3.64945">
        <ele>40</ele>
        <time>2018-07-18T10:37:46Z</time>
      </trkpt>
      <trkpt lat="47.81821" lon="-3.64951">
        <ele>40</ele>
        <time>2018-07-18T10:37:47Z</time>
      </trkpt>
      <trkpt lat="47.8182" lon="-3.64958">
        <ele>40</ele>
        <time>2018-07-18T10:37:48Z</time>
      </trkpt>
      <trkpt lat="47.81819" lon="-3.64964">
        <ele>39</ele>
        <time>2018-07-18T10:37:49Z</time>
      </trkpt>
      <trkpt lat="47.81818" lon="-3.6497">
        <ele>39</ele>
        <time>2018-07-18T10:37:50Z</time>
      </trkpt>
      <trkpt lat="47.81816" lon="-3.64977">
        <ele>39</ele>
        <time>2018-07-18T10:37:51Z</time>
      </trkpt>
      <trkpt lat="47.81815" lon="-3.64985">
        <ele>39</ele>
        <time>2018-07-18T10:37:52Z</time>
      </trkpt>
      <trkpt lat="47.81814" lon="-3.64991">
        <ele>39</ele>
        <time>2018-07-18T10:37:53Z</time>
      </trkpt>
      <trkpt lat="47.81813" lon="-3.64999">
        <ele>39</ele>
        <time>2018-07-18T10:37:54Z</time>
      </trkpt>
      <trkpt lat="47.81812" lon="-3.65005">
        <ele>39</ele>
        <time>2018-07-18T10:37:55Z</time>
      </trkpt>
      <trkpt lat="47.8181" lon="-3.65009">
        <ele>39</ele>
        <time>2018-07-18T10:37:56Z</time>
      </trkpt>
      <trkpt lat="47.81808" lon="-3.65014">
        <ele>39</ele>
        <time>2018-07-18T10:37:57Z</time>
      </trkpt>
      <trkpt lat="47.81805" lon="-3.65017">
        <ele>39</ele>
        <time>2018-07-18T10:37:58Z</time>
      </trkpt>
      <trkpt lat="47.81801" lon="-3.6502">
        <ele>39</ele>
        <time>2018-07-18T10:37:59Z</time>
      </trkpt>
      <trkpt lat="47.81797" lon="-3.65023">
        <ele>39</ele>
        <time>2018-07-18T10:38:00Z</time>
      </trkpt>
      <trkpt lat="47.81793" lon="-3.65026">
        <ele>39</ele>
        <time>2018-07-18T10:38:01Z</time>
      </trkpt>
      <trkpt lat="47.81789" lon="-3.65029">
        <ele>39</ele>
        <time>2018-07-18T10:38:02Z</time>
      </trkpt>
      <trkpt lat="47.81785" lon="-3.65034">
        <ele>38</ele>
        <time>2018-07-18T10:38:03Z</time>
      </trkpt>
      <trkpt lat="47.8178" lon="-3.65037">
        <ele>38</ele>
        <time>2018-07-18T10:38:04Z</time>
      </trkpt>
      <trkpt lat="47.81776" lon="-3.6504">
        <ele>38</ele>
        <time>2018-07-18T10:38:05Z</time>
      </trkpt>
      <trkpt lat="47.81772" lon="-3.65043">
        <ele>38</ele>
        <time>2018-07-18T10:38:06Z</time>
      </trkpt>
      <trkpt lat="47.81769" lon="-3.65047">
        <ele>38</ele>
        <time>2018-07-18T10:38:07Z</time>
      </trkpt>
      <trkpt lat="47.81766" lon="-3.65052">
        <ele>37</ele>
        <time>2018-07-18T10:38:08Z</time>
      </trkpt>
      <trkpt lat="47.81764" lon="-3.65058">
        <ele>37</ele>
        <time>2018-07-18T10:38:09Z</time>
      </trkpt>
      <trkpt lat="47.81764" lon="-3.65063">
        <ele>37</ele>
        <time>2018-07-18T10:38:10Z</time>
      </trkpt>
      <trkpt lat="47.81764" lon="-3.65069">
        <ele>37</ele>
        <time>2018-07-18T10:38:11Z</time>
      </trkpt>
      <trkpt lat="47.81764" lon="-3.65075">
        <ele>37</ele>
        <time>2018-07-18T10:38:12Z</time>
      </trkpt>
      <trkpt lat="47.81764" lon="-3.65081">
        <ele>37</ele>
        <time>2018-07-18T10:38:13Z</time>
      </trkpt>
      <trkpt lat="47.81763" lon="-3.65087">
        <ele>37</ele>
        <time>2018-07-18T10:38:14Z</time>
      </trkpt>
      <trkpt lat="47.81763" lon="-3.65093">
        <ele>37</ele>
        <time>2018-07-18T10:38:15Z</time>
      </trkpt>
      <trkpt lat="47.81764" lon="-3.65102">
        <ele>36</ele>
        <time>2018-07-18T10:38:16Z</time>
      </trkpt>
      <trkpt lat="47.81768" lon="-3.6511">
        <ele>36</ele>
        <time>2018-07-18T10:38:17Z</time>
      </trkpt>
      <trkpt lat="47.81772" lon="-3.65117">
        <ele>36</ele>
        <time>2018-07-18T10:38:18Z</time>
      </trkpt>
      <trkpt lat="47.81775" lon="-3.65124">
        <ele>36</ele>
        <time>2018-07-18T10:38:19Z</time>
      </trkpt>
      <trkpt lat="47.81778" lon="-3.6513">
        <ele>35</ele>
        <time>2018-07-18T10:38:20Z</time>
      </trkpt>
      <trkpt lat="47.81779" lon="-3.65136">
        <ele>35</ele>
        <time>2018-07-18T10:38:21Z</time>
      </trkpt>
      <trkpt lat="47.81779" lon="-3.65141">
        <ele>35</ele>
        <time>2018-07-18T10:38:22Z</time>
      </trkpt>
      <trkpt lat="47.81779" lon="-3.65147">
        <ele>34</ele>
        <time>2018-07-18T10:38:23Z</time>
      </trkpt>
      <trkpt lat="47.81778" lon="-3.65152">
        <ele>34</ele>
        <time>2018-07-18T10:38:24Z</time>
      </trkpt>
      <trkpt lat="47.81775" lon="-3.65159">
        <ele>34</ele>
        <time>2018-07-18T10:38:25Z</time>
      </trkpt>
      <trkpt lat="47.81771" lon="-3.65165">
        <ele>34</ele>
        <time>2018-07-18T10:38:26Z</time>
      </trkpt>
      <trkpt lat="47.81767" lon="-3.65171">
        <ele>34</ele>
        <time>2018-07-18T10:38:27Z</time>
      </trkpt>
      <trkpt lat="47.81764" lon="-3.65176">
        <ele>33</ele>
        <time>2018-07-18T10:38:28Z</time>
      </trkpt>
      <trkpt lat="47.81762" lon="-3.65181">
        <ele>33</ele>
        <time>2018-07-18T10:38:29Z</time>
      </trkpt>
      <trkpt lat="47.8176" lon="-3.65187">
        <ele>33</ele>
        <time>2018-07-18T10:38:30Z</time>
      </trkpt>
      <trkpt lat="47.8176" lon="-3.65193">
        <ele>32</ele>
        <time>2018-07-18T10:38:31Z</time>
      </trkpt>
      <trkpt lat="47.81761" lon="-3.652">
        <ele>32</ele>
        <time>2018-07-18T10:38:32Z</time>
      </trkpt>
      <trkpt lat="47.81763" lon="-3.65207">
        <ele>32</ele>
        <time>2018-07-18T10:38:33Z</time>
      </trkpt>
      <trkpt lat="47.81764" lon="-3.65214">
        <ele>31</ele>
        <time>2018-07-18T10:38:34Z</time>
      </trkpt>
      <trkpt lat="47.81764" lon="-3.6522">
        <ele>31</ele>
        <time>2018-07-18T10:38:35Z</time>
      </trkpt>
      <trkpt lat="47.81765" lon="-3.65225">
        <ele>31</ele>
        <time>2018-07-18T10:38:36Z</time>
      </trkpt>
      <trkpt lat="47.81764" lon="-3.6523">
        <ele>31</ele>
        <time>2018-07-18T10:38:37Z</time>
      </trkpt>
      <trkpt lat="47.81763" lon="-3.65236">
        <ele>31</ele>
        <time>2018-07-18T10:38:38Z</time>
      </trkpt>
      <trkpt lat="47.81762" lon="-3.65241">
        <ele>31</ele>
        <time>2018-07-18T10:38:39Z</time>
      </trkpt>
      <trkpt lat="47.81761" lon="-3.65247">
        <ele>31</ele>
        <time>2018-07-18T10:38:40Z</time>
      </trkpt>
      <trkpt lat="47.8176" lon="-3.65253">
        <ele>31</ele>
        <time>2018-07-18T10:38:41Z</time>
      </trkpt>
      <trkpt lat="47.81758" lon="-3.65258">
        <ele>31</ele>
        <time>2018-07-18T10:38:42Z</time>
      </trkpt>
      <trkpt lat="47.81757" lon="-3.65262">
        <ele>30</ele>
        <time>2018-07-18T10:38:43Z</time>
      </trkpt>
      <trkpt lat="47.81757" lon="-3.65266">
        <ele>30</ele>
        <time>2018-07-18T10:38:44Z</time>
      </trkpt>
      <trkpt lat="47.81756" lon="-3.65269">
        <ele>30</ele>
        <time>2018-07-18T10:38:45Z</time>
      </trkpt>
      <trkpt lat="47.81755" lon="-3.65272">
        <ele>30</ele>
        <time>2018-07-18T10:38:46Z</time>
      </trkpt>
      <trkpt lat="47.81755" lon="-3.65276">
        <ele>30</ele>
        <time>2018-07-18T10:38:47Z</time>
      </trkpt>
      <trkpt lat="47.81754" lon="-3.65279">
        <ele>30</ele>
        <time>2018-07-18T10:38:48Z</time>
      </trkpt>
      <trkpt lat="47.81754" lon="-3.65283">
        <ele>30</ele>
        <time>2018-07-18T10:38:49Z</time>
      </trkpt>
      <trkpt lat="47.81755" lon="-3.65288">
        <ele>30</ele>
        <time>2018-07-18T10:38:50Z</time>
      </trkpt>
      <trkpt lat="47.81755" lon="-3.65294">
        <ele>30</ele>
        <time>2018-07-18T10:38:51Z</time>
      </trkpt>
      <trkpt lat="47.81756" lon="-3.653">
        <ele>30</ele>
        <time>2018-07-18T10:38:52Z</time>
      </trkpt>
      <trkpt lat="47.81757" lon="-3.65305">
        <ele>30</ele>
        <time>2018-07-18T10:38:53Z</time>
      </trkpt>
      <trkpt lat="47.81758" lon="-3.6531">
        <ele>30</ele>
        <time>2018-07-18T10:38:54Z</time>
      </trkpt>
      <trkpt lat="47.81759" lon="-3.65316">
        <ele>30</ele>
        <time>2018-07-18T10:38:55Z</time>
      </trkpt>
      <trkpt lat="47.8176" lon="-3.6532">
        <ele>29</ele>
        <time>2018-07-18T10:38:56Z</time>
      </trkpt>
      <trkpt lat="47.8176" lon="-3.65325">
        <ele>29</ele>
        <time>2018-07-18T10:38:57Z</time>
      </trkpt>
      <trkpt lat="47.81761" lon="-3.6533">
        <ele>29</ele>
        <time>2018-07-18T10:38:58Z</time>
      </trkpt>
      <trkpt lat="47.81762" lon="-3.65334">
        <ele>29</ele>
        <time>2018-07-18T10:38:59Z</time>
      </trkpt>
      <trkpt lat="47.81762" lon="-3.65339">
        <ele>29</ele>
        <time>2018-07-18T10:39:00Z</time>
      </trkpt>
      <trkpt lat="47.81762" lon="-3.65344">
        <ele>29</ele>
        <time>2018-07-18T10:39:01Z</time>
      </trkpt>
      <trkpt lat="47.81762" lon="-3.65349">
        <ele>29</ele>
        <time>2018-07-18T10:39:02Z</time>
      </trkpt>
      <trkpt lat="47.81762" lon="-3.65355">
        <ele>28</ele>
        <time>2018-07-18T10:39:03Z</time>
      </trkpt>
      <trkpt lat="47.81762" lon="-3.6536">
        <ele>28</ele>
        <time>2018-07-18T10:39:04Z</time>
      </trkpt>
      <trkpt lat="47.81761" lon="-3.65366">
        <ele>28</ele>
        <time>2018-07-18T10:39:05Z</time>
      </trkpt>
      <trkpt lat="47.81761" lon="-3.65372">
        <ele>28</ele>
        <time>2018-07-18T10:39:06Z</time>
      </trkpt>
      <trkpt lat="47.8176" lon="-3.65377">
        <ele>28</ele>
        <time>2018-07-18T10:39:07Z</time>
      </trkpt>
      <trkpt lat="47.81759" lon="-3.65381">
        <ele>28</ele>
        <time>2018-07-18T10:39:08Z</time>
      </trkpt>
      <trkpt lat="47.81758" lon="-3.65387">
        <ele>28</ele>
        <time>2018-07-18T10:39:09Z</time>
      </trkpt>
      <trkpt lat="47.81757" lon="-3.65392">
        <ele>29</ele>
        <time>2018-07-18T10:39:10Z</time>
      </trkpt>
      <trkpt lat="47.81756" lon="-3.65398">
        <ele>29</ele>
        <time>2018-07-18T10:39:11Z</time>
      </trkpt>
      <trkpt lat="47.81756" lon="-3.65404">
        <ele>29</ele>
        <time>2018-07-18T10:39:12Z</time>
      </trkpt>
      <trkpt lat="47.81755" lon="-3.6541">
        <ele>29</ele>
        <time>2018-07-18T10:39:13Z</time>
      </trkpt>
      <trkpt lat="47.81755" lon="-3.65416">
        <ele>29</ele>
        <time>2018-07-18T10:39:14Z</time>
      </trkpt>
      <trkpt lat="47.81755" lon="-3.65422">
        <ele>29</ele>
        <time>2018-07-18T10:39:15Z</time>
      </trkpt>
      <trkpt lat="47.81754" lon="-3.65428">
        <ele>30</ele>
        <time>2018-07-18T10:39:16Z</time>
      </trkpt>
      <trkpt lat="47.81754" lon="-3.65432">
        <ele>30</ele>
        <time>2018-07-18T10:39:17Z</time>
      </trkpt>
      <trkpt lat="47.81754" lon="-3.65436">
        <ele>30</ele>
        <time>2018-07-18T10:39:18Z</time>
      </trkpt>
      <trkpt lat="47.81753" lon="-3.65439">
        <ele>30</ele>
        <time>2018-07-18T10:39:19Z</time>
      </trkpt>
      <trkpt lat="47.81751" lon="-3.65441">
        <ele>30</ele>
        <time>2018-07-18T10:39:20Z</time>
      </trkpt>
      <trkpt lat="47.8175" lon="-3.65441">
        <ele>30</ele>
        <time>2018-07-18T10:39:21Z</time>
      </trkpt>
      <trkpt lat="47.81749" lon="-3.6544">
        <ele>30</ele>
        <time>2018-07-18T10:39:22Z</time>
      </trkpt>
      <trkpt lat="47.81748" lon="-3.65438">
        <ele>30</ele>
        <time>2018-07-18T10:39:23Z</time>
      </trkpt>
      <trkpt lat="47.81747" lon="-3.65436">
        <ele>30</ele>
        <time>2018-07-18T10:39:24Z</time>
      </trkpt>
      <trkpt lat="47.81746" lon="-3.65434">
        <ele>30</ele>
        <time>2018-07-18T10:39:25Z</time>
      </trkpt>
      <trkpt lat="47.81745" lon="-3.65431">
        <ele>30</ele>
        <time>2018-07-18T10:39:26Z</time>
      </trkpt>
      <trkpt lat="47.81743" lon="-3.65428">
        <ele>31</ele>
        <time>2018-07-18T10:39:27Z</time>
      </trkpt>
      <trkpt lat="47.81741" lon="-3.65425">
        <ele>31</ele>
        <time>2018-07-18T10:39:28Z</time>
      </trkpt>
      <trkpt lat="47.81738" lon="-3.65423">
        <ele>31</ele>
        <time>2018-07-18T10:39:29Z</time>
      </trkpt>
      <trkpt lat="47.81736" lon="-3.6542">
        <ele>31</ele>
        <time>2018-07-18T10:39:30Z</time>
      </trkpt>
      <trkpt lat="47.81733" lon="-3.65417">
        <ele>31</ele>
        <time>2018-07-18T10:39:31Z</time>
      </trkpt>
      <trkpt lat="47.81731" lon="-3.65415">
        <ele>31</ele>
        <time>2018-07-18T10:39:32Z</time>
      </trkpt>
      <trkpt lat="47.81728" lon="-3.65412">
        <ele>32</ele>
        <time>2018-07-18T10:39:33Z</time>
      </trkpt>
      <trkpt lat="47.81725" lon="-3.65409">
        <ele>32</ele>
        <time>2018-07-18T10:39:34Z</time>
      </trkpt>
      <trkpt lat="47.81723" lon="-3.65405">
        <ele>32</ele>
        <time>2018-07-18T10:39:35Z</time>
      </trkpt>
      <trkpt lat="47.81721" lon="-3.654">
        <ele>32</ele>
        <time>2018-07-18T10:39:36Z</time>
      </trkpt>
      <trkpt lat="47.81719" lon="-3.65395">
        <ele>32</ele>
        <time>2018-07-18T10:39:37Z</time>
      </trkpt>
      <trkpt lat="47.81717" lon="-3.65391">
        <ele>33</ele>
        <time>2018-07-18T10:39:38Z</time>
      </trkpt>
      <trkpt lat="47.81715" lon="-3.65387">
        <ele>33</ele>
        <time>2018-07-18T10:39:39Z</time>
      </trkpt>
      <trkpt lat="47.81712" lon="-3.65382">
        <ele>33</ele>
        <time>2018-07-18T10:39:40Z</time>
      </trkpt>
      <trkpt lat="47.8171" lon="-3.65377">
        <ele>33</ele>
        <time>2018-07-18T10:39:41Z</time>
      </trkpt>
      <trkpt lat="47.81706" lon="-3.65371">
        <ele>34</ele>
        <time>2018-07-18T10:39:42Z</time>
      </trkpt>
      <trkpt lat="47.81702" lon="-3.65366">
        <ele>34</ele>
        <time>2018-07-18T10:39:43Z</time>
      </trkpt>
      <trkpt lat="47.81698" lon="-3.65362">
        <ele>35</ele>
        <time>2018-07-18T10:39:44Z</time>
      </trkpt>
      <trkpt lat="47.81693" lon="-3.65359">
        <ele>35</ele>
        <time>2018-07-18T10:39:45Z</time>
      </trkpt>
      <trkpt lat="47.81688" lon="-3.65358">
        <ele>35</ele>
        <time>2018-07-18T10:39:46Z</time>
      </trkpt>
      <trkpt lat="47.81684" lon="-3.65357">
        <ele>35</ele>
        <time>2018-07-18T10:39:47Z</time>
      </trkpt>
      <trkpt lat="47.81679" lon="-3.65357">
        <ele>36</ele>
        <time>2018-07-18T10:39:48Z</time>
      </trkpt>
      <trkpt lat="47.81675" lon="-3.65356">
        <ele>36</ele>
        <time>2018-07-18T10:39:49Z</time>
      </trkpt>
      <trkpt lat="47.81671" lon="-3.65356">
        <ele>36</ele>
        <time>2018-07-18T10:39:50Z</time>
      </trkpt>
      <trkpt lat="47.81667" lon="-3.65355">
        <ele>36</ele>
        <time>2018-07-18T10:39:51Z</time>
      </trkpt>
      <trkpt lat="47.81662" lon="-3.65353">
        <ele>36</ele>
        <time>2018-07-18T10:39:52Z</time>
      </trkpt>
      <trkpt lat="47.81657" lon="-3.6535">
        <ele>36</ele>
        <time>2018-07-18T10:39:53Z</time>
      </trkpt>
      <trkpt lat="47.81652" lon="-3.65349">
        <ele>37</ele>
        <time>2018-07-18T10:39:54Z</time>
      </trkpt>
      <trkpt lat="47.81646" lon="-3.65349">
        <ele>37</ele>
        <time>2018-07-18T10:39:55Z</time>
      </trkpt>
      <trkpt lat="47.81641" lon="-3.65349">
        <ele>37</ele>
        <time>2018-07-18T10:39:56Z</time>
      </trkpt>
      <trkpt lat="47.81636" lon="-3.65349">
        <ele>37</ele>
        <time>2018-07-18T10:39:57Z</time>
      </trkpt>
      <trkpt lat="47.8163" lon="-3.65349">
        <ele>38</ele>
        <time>2018-07-18T10:39:58Z</time>
      </trkpt>
      <trkpt lat="47.81625" lon="-3.65349">
        <ele>38</ele>
        <time>2018-07-18T10:39:59Z</time>
      </trkpt>
      <trkpt lat="47.8162" lon="-3.65348">
        <ele>38</ele>
        <time>2018-07-18T10:40:00Z</time>
      </trkpt>
      <trkpt lat="47.81616" lon="-3.65346">
        <ele>38</ele>
        <time>2018-07-18T10:40:01Z</time>
      </trkpt>
      <trkpt lat="47.81611" lon="-3.65345">
        <ele>38</ele>
        <time>2018-07-18T10:40:02Z</time>
      </trkpt>
      <trkpt lat="47.81606" lon="-3.65345">
        <ele>38</ele>
        <time>2018-07-18T10:40:03Z</time>
      </trkpt>
      <trkpt lat="47.816" lon="-3.65344">
        <ele>38</ele>
        <time>2018-07-18T10:40:04Z</time>
      </trkpt>
      <trkpt lat="47.81595" lon="-3.65342">
        <ele>38</ele>
        <time>2018-07-18T10:40:05Z</time>
      </trkpt>
      <trkpt lat="47.8159" lon="-3.65341">
        <ele>38</ele>
        <time>2018-07-18T10:40:06Z</time>
      </trkpt>
      <trkpt lat="47.81584" lon="-3.6534">
        <ele>38</ele>
        <time>2018-07-18T10:40:07Z</time>
      </trkpt>
      <trkpt lat="47.81579" lon="-3.65339">
        <ele>38</ele>
        <time>2018-07-18T10:40:08Z</time>
      </trkpt>
      <trkpt lat="47.81573" lon="-3.65338">
        <ele>38</ele>
        <time>2018-07-18T10:40:09Z</time>
      </trkpt>
      <trkpt lat="47.81568" lon="-3.65338">
        <ele>38</ele>
        <time>2018-07-18T10:40:10Z</time>
      </trkpt>
      <trkpt lat="47.81562" lon="-3.65337">
        <ele>38</ele>
        <time>2018-07-18T10:40:11Z</time>
      </trkpt>
      <trkpt lat="47.81557" lon="-3.65336">
        <ele>38</ele>
        <time>2018-07-18T10:40:12Z</time>
      </trkpt>
      <trkpt lat="47.81551" lon="-3.65336">
        <ele>38</ele>
        <time>2018-07-18T10:40:13Z</time>
      </trkpt>
      <trkpt lat="47.81546" lon="-3.65335">
        <ele>38</ele>
        <time>2018-07-18T10:40:14Z</time>
      </trkpt>
      <trkpt lat="47.81541" lon="-3.65334">
        <ele>38</ele>
        <time>2018-07-18T10:40:15Z</time>
      </trkpt>
      <trkpt lat="47.81535" lon="-3.65333">
        <ele>38</ele>
        <time>2018-07-18T10:40:16Z</time>
      </trkpt>
      <trkpt lat="47.8153" lon="-3.65333">
        <ele>38</ele>
        <time>2018-07-18T10:40:17Z</time>
      </trkpt>
      <trkpt lat="47.81524" lon="-3.65332">
        <ele>38</ele>
        <time>2018-07-18T10:40:18Z</time>
      </trkpt>
      <trkpt lat="47.81519" lon="-3.6533">
        <ele>38</ele>
        <time>2018-07-18T10:40:19Z</time>
      </trkpt>
      <trkpt lat="47.81514" lon="-3.65329">
        <ele>39</ele>
        <time>2018-07-18T10:40:20Z</time>
      </trkpt>
      <trkpt lat="47.81509" lon="-3.65327">
        <ele>39</ele>
        <time>2018-07-18T10:40:21Z</time>
      </trkpt>
      <trkpt lat="47.81503" lon="-3.65325">
        <ele>39</ele>
        <time>2018-07-18T10:40:22Z</time>
      </trkpt>
      <trkpt lat="47.81498" lon="-3.65324">
        <ele>39</ele>
        <time>2018-07-18T10:40:23Z</time>
      </trkpt>
      <trkpt lat="47.81493" lon="-3.65322">
        <ele>39</ele>
        <time>2018-07-18T10:40:24Z</time>
      </trkpt>
      <trkpt lat="47.81488" lon="-3.65319">
        <ele>39</ele>
        <time>2018-07-18T10:40:25Z</time>
      </trkpt>
      <trkpt lat="47.81483" lon="-3.65317">
        <ele>39</ele>
        <time>2018-07-18T10:40:26Z</time>
      </trkpt>
      <trkpt lat="47.81478" lon="-3.65315">
        <ele>40</ele>
        <time>2018-07-18T10:40:27Z</time>
      </trkpt>
      <trkpt lat="47.81472" lon="-3.65313">
        <ele>40</ele>
        <time>2018-07-18T10:40:28Z</time>
      </trkpt>
      <trkpt lat="47.81467" lon="-3.65311">
        <ele>40</ele>
        <time>2018-07-18T10:40:29Z</time>
      </trkpt>
      <trkpt lat="47.81461" lon="-3.65309">
        <ele>40</ele>
        <time>2018-07-18T10:40:30Z</time>
      </trkpt>
      <trkpt lat="47.81456" lon="-3.65306">
        <ele>40</ele>
        <time>2018-07-18T10:40:31Z</time>
      </trkpt>
      <trkpt lat="47.81451" lon="-3.65303">
        <ele>40</ele>
        <time>2018-07-18T10:40:32Z</time>
      </trkpt>
      <trkpt lat="47.81446" lon="-3.65301">
        <ele>40</ele>
        <time>2018-07-18T10:40:33Z</time>
      </trkpt>
      <trkpt lat="47.81441" lon="-3.65299">
        <ele>40</ele>
        <time>2018-07-18T10:40:34Z</time>
      </trkpt>
      <trkpt lat="47.81436" lon="-3.65297">
        <ele>40</ele>
        <time>2018-07-18T10:40:35Z</time>
      </trkpt>
      <trkpt lat="47.81431" lon="-3.65295">
        <ele>40</ele>
        <time>2018-07-18T10:40:36Z</time>
      </trkpt>
      <trkpt lat="47.81426" lon="-3.65293">
        <ele>40</ele>
        <time>2018-07-18T10:40:37Z</time>
      </trkpt>
      <trkpt lat="47.81421" lon="-3.6529">
        <ele>40</ele>
        <time>2018-07-18T10:40:38Z</time>
      </trkpt>
      <trkpt lat="47.81416" lon="-3.65287">
        <ele>40</ele>
        <time>2018-07-18T10:40:39Z</time>
      </trkpt>
      <trkpt lat="47.81411" lon="-3.65283">
        <ele>40</ele>
        <time>2018-07-18T10:40:40Z</time>
      </trkpt>
      <trkpt lat="47.81406" lon="-3.65279">
        <ele>40</ele>
        <time>2018-07-18T10:40:41Z</time>
      </trkpt>
      <trkpt lat="47.81401" lon="-3.65274">
        <ele>40</ele>
        <time>2018-07-18T10:40:42Z</time>
      </trkpt>
      <trkpt lat="47.81396" lon="-3.6527">
        <ele>40</ele>
        <time>2018-07-18T10:40:43Z</time>
      </trkpt>
      <trkpt lat="47.81392" lon="-3.65266">
        <ele>40</ele>
        <time>2018-07-18T10:40:44Z</time>
      </trkpt>
      <trkpt lat="47.81387" lon="-3.65261">
        <ele>40</ele>
        <time>2018-07-18T10:40:45Z</time>
      </trkpt>
      <trkpt lat="47.81382" lon="-3.65257">
        <ele>40</ele>
        <time>2018-07-18T10:40:46Z</time>
      </trkpt>
      <trkpt lat="47.81377" lon="-3.65252">
        <ele>40</ele>
        <time>2018-07-18T10:40:47Z</time>
      </trkpt>
      <trkpt lat="47.81373" lon="-3.65248">
        <ele>40</ele>
        <time>2018-07-18T10:40:48Z</time>
      </trkpt>
      <trkpt lat="47.81368" lon="-3.65244">
        <ele>40</ele>
        <time>2018-07-18T10:40:49Z</time>
      </trkpt>
      <trkpt lat="47.81363" lon="-3.6524">
        <ele>40</ele>
        <time>2018-07-18T10:40:50Z</time>
      </trkpt>
      <trkpt lat="47.81359" lon="-3.65235">
        <ele>40</ele>
        <time>2018-07-18T10:40:51Z</time>
      </trkpt>
      <trkpt lat="47.81354" lon="-3.65231">
        <ele>40</ele>
        <time>2018-07-18T10:40:52Z</time>
      </trkpt>
      <trkpt lat="47.8135" lon="-3.65227">
        <ele>40</ele>
        <time>2018-07-18T10:40:53Z</time>
      </trkpt>
      <trkpt lat="47.81346" lon="-3.65222">
        <ele>40</ele>
        <time>2018-07-18T10:40:54Z</time>
      </trkpt>
      <trkpt lat="47.81341" lon="-3.65219">
        <ele>40</ele>
        <time>2018-07-18T10:40:55Z</time>
      </trkpt>
      <trkpt lat="47.81337" lon="-3.65215">
        <ele>40</ele>
        <time>2018-07-18T10:40:56Z</time>
      </trkpt>
      <trkpt lat="47.81332" lon="-3.65211">
        <ele>40</ele>
        <time>2018-07-18T10:40:57Z</time>
      </trkpt>
      <trkpt lat="47.81327" lon="-3.65209">
        <ele>40</ele>
        <time>2018-07-18T10:40:58Z</time>
      </trkpt>
      <trkpt lat="47.81322" lon="-3.65206">
        <ele>40</ele>
        <time>2018-07-18T10:40:59Z</time>
      </trkpt>
      <trkpt lat="47.81317" lon="-3.65205">
        <ele>40</ele>
        <time>2018-07-18T10:41:00Z</time>
      </trkpt>
      <trkpt lat="47.81312" lon="-3.65203">
        <ele>40</ele>
        <time>2018-07-18T10:41:01Z</time>
      </trkpt>
      <trkpt lat="47.81307" lon="-3.65201">
        <ele>40</ele>
        <time>2018-07-18T10:41:02Z</time>
      </trkpt>
      <trkpt lat="47.81302" lon="-3.65199">
        <ele>40</ele>
        <time>2018-07-18T10:41:03Z</time>
      </trkpt>
      <trkpt lat="47.81297" lon="-3.65197">
        <ele>40</ele>
        <time>2018-07-18T10:41:04Z</time>
      </trkpt>
      <trkpt lat="47.81292" lon="-3.65195">
        <ele>40</ele>
        <time>2018-07-18T10:41:05Z</time>
      </trkpt>
      <trkpt lat="47.81287" lon="-3.65193">
        <ele>40</ele>
        <time>2018-07-18T10:41:06Z</time>
      </trkpt>
      <trkpt lat="47.81281" lon="-3.65191">
        <ele>40</ele>
        <time>2018-07-18T10:41:07Z</time>
      </trkpt>
      <trkpt lat="47.81277" lon="-3.6519">
        <ele>41</ele>
        <time>2018-07-18T10:41:08Z</time>
      </trkpt>
      <trkpt lat="47.81271" lon="-3.65188">
        <ele>41</ele>
        <time>2018-07-18T10:41:09Z</time>
      </trkpt>
      <trkpt lat="47.81267" lon="-3.65186">
        <ele>41</ele>
        <time>2018-07-18T10:41:10Z</time>
      </trkpt>
      <trkpt lat="47.81261" lon="-3.65184">
        <ele>41</ele>
        <time>2018-07-18T10:41:11Z</time>
      </trkpt>
      <trkpt lat="47.81256" lon="-3.65182">
        <ele>41</ele>
        <time>2018-07-18T10:41:12Z</time>
      </trkpt>
      <trkpt lat="47.81251" lon="-3.6518">
        <ele>41</ele>
        <time>2018-07-18T10:41:13Z</time>
      </trkpt>
      <trkpt lat="47.81246" lon="-3.65178">
        <ele>41</ele>
        <time>2018-07-18T10:41:14Z</time>
      </trkpt>
      <trkpt lat="47.81241" lon="-3.65177">
        <ele>41</ele>
        <time>2018-07-18T10:41:15Z</time>
      </trkpt>
      <trkpt lat="47.81236" lon="-3.65175">
        <ele>41</ele>
        <time>2018-07-18T10:41:16Z</time>
      </trkpt>
      <trkpt lat="47.81231" lon="-3.65173">
        <ele>41</ele>
        <time>2018-07-18T10:41:17Z</time>
      </trkpt>
      <trkpt lat="47.81226" lon="-3.6517">
        <ele>41</ele>
        <time>2018-07-18T10:41:18Z</time>
      </trkpt>
      <trkpt lat="47.81222" lon="-3.65168">
        <ele>42</ele>
        <time>2018-07-18T10:41:19Z</time>
      </trkpt>
      <trkpt lat="47.81217" lon="-3.65165">
        <ele>42</ele>
        <time>2018-07-18T10:41:20Z</time>
      </trkpt>
      <trkpt lat="47.81212" lon="-3.65163">
        <ele>42</ele>
        <time>2018-07-18T10:41:21Z</time>
      </trkpt>
      <trkpt lat="47.81208" lon="-3.65161">
        <ele>42</ele>
        <time>2018-07-18T10:41:22Z</time>
      </trkpt>
      <trkpt lat="47.81203" lon="-3.65159">
        <ele>42</ele>
        <time>2018-07-18T10:41:23Z</time>
      </trkpt>
      <trkpt lat="47.81198" lon="-3.65156">
        <ele>42</ele>
        <time>2018-07-18T10:41:24Z</time>
      </trkpt>
      <trkpt lat="47.81193" lon="-3.65154">
        <ele>42</ele>
        <time>2018-07-18T10:41:25Z</time>
      </trkpt>
      <trkpt lat="47.81188" lon="-3.65152">
        <ele>42</ele>
        <time>2018-07-18T10:41:26Z</time>
      </trkpt>
      <trkpt lat="47.81184" lon="-3.65149">
        <ele>42</ele>
        <time>2018-07-18T10:41:27Z</time>
      </trkpt>
      <trkpt lat="47.81179" lon="-3.65148">
        <ele>42</ele>
        <time>2018-07-18T10:41:28Z</time>
      </trkpt>
      <trkpt lat="47.81175" lon="-3.65145">
        <ele>42</ele>
        <time>2018-07-18T10:41:29Z</time>
      </trkpt>
      <trkpt lat="47.8117" lon="-3.65143">
        <ele>42</ele>
        <time>2018-07-18T10:41:30Z</time>
      </trkpt>
      <trkpt lat="47.81166" lon="-3.65141">
        <ele>42</ele>
        <time>2018-07-18T10:41:31Z</time>
      </trkpt>
      <trkpt lat="47.81162" lon="-3.65139">
        <ele>42</ele>
        <time>2018-07-18T10:41:32Z</time>
      </trkpt>
      <trkpt lat="47.81158" lon="-3.65138">
        <ele>42</ele>
        <time>2018-07-18T10:41:33Z</time>
      </trkpt>
      <trkpt lat="47.81154" lon="-3.65136">
        <ele>42</ele>
        <time>2018-07-18T10:41:34Z</time>
      </trkpt>
      <trkpt lat="47.81151" lon="-3.65132">
        <ele>42</ele>
        <time>2018-07-18T10:41:35Z</time>
      </trkpt>
      <trkpt lat="47.81149" lon="-3.65128">
        <ele>42</ele>
        <time>2018-07-18T10:41:36Z</time>
      </trkpt>
      <trkpt lat="47.81149" lon="-3.65121">
        <ele>42</ele>
        <time>2018-07-18T10:41:37Z</time>
      </trkpt>
      <trkpt lat="47.8115" lon="-3.65114">
        <ele>42</ele>
        <time>2018-07-18T10:41:38Z</time>
      </trkpt>
      <trkpt lat="47.81149" lon="-3.65106">
        <ele>42</ele>
        <time>2018-07-18T10:41:39Z</time>
      </trkpt>
      <trkpt lat="47.81148" lon="-3.65099">
        <ele>42</ele>
        <time>2018-07-18T10:41:40Z</time>
      </trkpt>
      <trkpt lat="47.81147" lon="-3.65093">
        <ele>42</ele>
        <time>2018-07-18T10:41:41Z</time>
      </trkpt>
      <trkpt lat="47.81146" lon="-3.65086">
        <ele>42</ele>
        <time>2018-07-18T10:41:42Z</time>
      </trkpt>
      <trkpt lat="47.81144" lon="-3.65079">
        <ele>42</ele>
        <time>2018-07-18T10:41:43Z</time>
      </trkpt>
      <trkpt lat="47.81141" lon="-3.65073">
        <ele>42</ele>
        <time>2018-07-18T10:41:44Z</time>
      </trkpt>
      <trkpt lat="47.81138" lon="-3.6507">
        <ele>42</ele>
        <time>2018-07-18T10:41:45Z</time>
      </trkpt>
      <trkpt lat="47.81134" lon="-3.6507">
        <ele>42</ele>
        <time>2018-07-18T10:41:46Z</time>
      </trkpt>
      <trkpt lat="47.8113" lon="-3.65072">
        <ele>42</ele>
        <time>2018-07-18T10:41:47Z</time>
      </trkpt>
      <trkpt lat="47.81126" lon="-3.65075">
        <ele>42</ele>
        <time>2018-07-18T10:41:48Z</time>
      </trkpt>
      <trkpt lat="47.81122" lon="-3.65078">
        <ele>42</ele>
        <time>2018-07-18T10:41:49Z</time>
      </trkpt>
      <trkpt lat="47.81118" lon="-3.65081">
        <ele>42</ele>
        <time>2018-07-18T10:41:50Z</time>
      </trkpt>
      <trkpt lat="47.81114" lon="-3.65084">
        <ele>43</ele>
        <time>2018-07-18T10:41:51Z</time>
      </trkpt>
      <trkpt lat="47.8111" lon="-3.65086">
        <ele>43</ele>
        <time>2018-07-18T10:41:52Z</time>
      </trkpt>
      <trkpt lat="47.81105" lon="-3.65086">
        <ele>43</ele>
        <time>2018-07-18T10:41:53Z</time>
      </trkpt>
      <trkpt lat="47.811" lon="-3.65086">
        <ele>43</ele>
        <time>2018-07-18T10:41:54Z</time>
      </trkpt>
      <trkpt lat="47.81096" lon="-3.65083">
        <ele>43</ele>
        <time>2018-07-18T10:41:55Z</time>
      </trkpt>
      <trkpt lat="47.81091" lon="-3.65081">
        <ele>43</ele>
        <time>2018-07-18T10:41:56Z</time>
      </trkpt>
      <trkpt lat="47.81087" lon="-3.65079">
        <ele>44</ele>
        <time>2018-07-18T10:41:57Z</time>
      </trkpt>
      <trkpt lat="47.81082" lon="-3.65077">
        <ele>44</ele>
        <time>2018-07-18T10:41:58Z</time>
      </trkpt>
      <trkpt lat="47.81078" lon="-3.65075">
        <ele>44</ele>
        <time>2018-07-18T10:41:59Z</time>
      </trkpt>
      <trkpt lat="47.81073" lon="-3.65073">
        <ele>44</ele>
        <time>2018-07-18T10:42:00Z</time>
      </trkpt>
      <trkpt lat="47.81068" lon="-3.6507">
        <ele>45</ele>
        <time>2018-07-18T10:42:01Z</time>
      </trkpt>
      <trkpt lat="47.81064" lon="-3.65069">
        <ele>45</ele>
        <time>2018-07-18T10:42:02Z</time>
      </trkpt>
      <trkpt lat="47.81059" lon="-3.65067">
        <ele>45</ele>
        <time>2018-07-18T10:42:03Z</time>
      </trkpt>
      <trkpt lat="47.81055" lon="-3.65064">
        <ele>45</ele>
        <time>2018-07-18T10:42:04Z</time>
      </trkpt>
      <trkpt lat="47.8105" lon="-3.65062">
        <ele>45</ele>
        <time>2018-07-18T10:42:05Z</time>
      </trkpt>
      <trkpt lat="47.81045" lon="-3.6506">
        <ele>45</ele>
        <time>2018-07-18T10:42:06Z</time>
      </trkpt>
      <trkpt lat="47.8104" lon="-3.65058">
        <ele>45</ele>
        <time>2018-07-18T10:42:07Z</time>
      </trkpt>
      <trkpt lat="47.81035" lon="-3.65056">
        <ele>46</ele>
        <time>2018-07-18T10:42:08Z</time>
      </trkpt>
      <trkpt lat="47.8103" lon="-3.65054">
        <ele>46</ele>
        <time>2018-07-18T10:42:09Z</time>
      </trkpt>
      <trkpt lat="47.81025" lon="-3.65051">
        <ele>46</ele>
        <time>2018-07-18T10:42:10Z</time>
      </trkpt>
      <trkpt lat="47.8102" lon="-3.65049">
        <ele>46</ele>
        <time>2018-07-18T10:42:11Z</time>
      </trkpt>
      <trkpt lat="47.81015" lon="-3.65047">
        <ele>46</ele>
        <time>2018-07-18T10:42:12Z</time>
      </trkpt>
      <trkpt lat="47.81011" lon="-3.65044">
        <ele>46</ele>
        <time>2018-07-18T10:42:13Z</time>
      </trkpt>
      <trkpt lat="47.81006" lon="-3.65043">
        <ele>46</ele>
        <time>2018-07-18T10:42:14Z</time>
      </trkpt>
      <trkpt lat="47.81002" lon="-3.6504">
        <ele>47</ele>
        <time>2018-07-18T10:42:15Z</time>
      </trkpt>
      <trkpt lat="47.80997" lon="-3.65038">
        <ele>47</ele>
        <time>2018-07-18T10:42:16Z</time>
      </trkpt>
      <trkpt lat="47.80992" lon="-3.65037">
        <ele>47</ele>
        <time>2018-07-18T10:42:17Z</time>
      </trkpt>
      <trkpt lat="47.80988" lon="-3.65035">
        <ele>47</ele>
        <time>2018-07-18T10:42:18Z</time>
      </trkpt>
      <trkpt lat="47.80983" lon="-3.65033">
        <ele>47</ele>
        <time>2018-07-18T10:42:19Z</time>
      </trkpt>
      <trkpt lat="47.80979" lon="-3.65032">
        <ele>48</ele>
        <time>2018-07-18T10:42:20Z</time>
      </trkpt>
      <trkpt lat="47.80974" lon="-3.65031">
        <ele>48</ele>
        <time>2018-07-18T10:42:21Z</time>
      </trkpt>
      <trkpt lat="47.80969" lon="-3.65029">
        <ele>48</ele>
        <time>2018-07-18T10:42:22Z</time>
      </trkpt>
      <trkpt lat="47.80964" lon="-3.65028">
        <ele>49</ele>
        <time>2018-07-18T10:42:23Z</time>
      </trkpt>
      <trkpt lat="47.80959" lon="-3.65027">
        <ele>49</ele>
        <time>2018-07-18T10:42:24Z</time>
      </trkpt>
      <trkpt lat="47.80954" lon="-3.65026">
        <ele>49</ele>
        <time>2018-07-18T10:42:25Z</time>
      </trkpt>
      <trkpt lat="47.80949" lon="-3.65026">
        <ele>50</ele>
        <time>2018-07-18T10:42:26Z</time>
      </trkpt>
      <trkpt lat="47.80945" lon="-3.65025">
        <ele>50</ele>
        <time>2018-07-18T10:42:27Z</time>
      </trkpt>
      <trkpt lat="47.8094" lon="-3.65024">
        <ele>51</ele>
        <time>2018-07-18T10:42:28Z</time>
      </trkpt>
      <trkpt lat="47.80936" lon="-3.65023">
        <ele>51</ele>
        <time>2018-07-18T10:42:29Z</time>
      </trkpt>
      <trkpt lat="47.80932" lon="-3.65023">
        <ele>51</ele>
        <time>2018-07-18T10:42:30Z</time>
      </trkpt>
      <trkpt lat="47.80927" lon="-3.65022">
        <ele>52</ele>
        <time>2018-07-18T10:42:31Z</time>
      </trkpt>
      <trkpt lat="47.80923" lon="-3.65021">
        <ele>52</ele>
        <time>2018-07-18T10:42:32Z</time>
      </trkpt>
      <trkpt lat="47.80918" lon="-3.65021">
        <ele>52</ele>
        <time>2018-07-18T10:42:33Z</time>
      </trkpt>
      <trkpt lat="47.80913" lon="-3.6502">
        <ele>52</ele>
        <time>2018-07-18T10:42:34Z</time>
      </trkpt>
      <trkpt lat="47.80908" lon="-3.65019">
        <ele>53</ele>
        <time>2018-07-18T10:42:35Z</time>
      </trkpt>
      <trkpt lat="47.80904" lon="-3.65019">
        <ele>53</ele>
        <time>2018-07-18T10:42:36Z</time>
      </trkpt>
      <trkpt lat="47.80899" lon="-3.65021">
        <ele>53</ele>
        <time>2018-07-18T10:42:37Z</time>
      </trkpt>
      <trkpt lat="47.80895" lon="-3.65023">
        <ele>54</ele>
        <time>2018-07-18T10:42:38Z</time>
      </trkpt>
      <trkpt lat="47.80892" lon="-3.65027">
        <ele>54</ele>
        <time>2018-07-18T10:42:39Z</time>
      </trkpt>
      <trkpt lat="47.8089" lon="-3.65031">
        <ele>54</ele>
        <time>2018-07-18T10:42:40Z</time>
      </trkpt>
      <trkpt lat="47.80888" lon="-3.65037">
        <ele>54</ele>
        <time>2018-07-18T10:42:41Z</time>
      </trkpt>
      <trkpt lat="47.80887" lon="-3.65043">
        <ele>54</ele>
        <time>2018-07-18T10:42:42Z</time>
      </trkpt>
      <trkpt lat="47.80886" lon="-3.65049">
        <ele>54</ele>
        <time>2018-07-18T10:42:43Z</time>
      </trkpt>
      <trkpt lat="47.80885" lon="-3.65056">
        <ele>54</ele>
        <time>2018-07-18T10:42:44Z</time>
      </trkpt>
      <trkpt lat="47.80885" lon="-3.65063">
        <ele>54</ele>
        <time>2018-07-18T10:42:45Z</time>
      </trkpt>
      <trkpt lat="47.80884" lon="-3.65071">
        <ele>54</ele>
        <time>2018-07-18T10:42:46Z</time>
      </trkpt>
      <trkpt lat="47.80884" lon="-3.65078">
        <ele>54</ele>
        <time>2018-07-18T10:42:47Z</time>
      </trkpt>
      <trkpt lat="47.80883" lon="-3.65085">
        <ele>54</ele>
        <time>2018-07-18T10:42:48Z</time>
      </trkpt>
      <trkpt lat="47.80882" lon="-3.65092">
        <ele>54</ele>
        <time>2018-07-18T10:42:49Z</time>
      </trkpt>
      <trkpt lat="47.8088" lon="-3.65096">
        <ele>54</ele>
        <time>2018-07-18T10:42:50Z</time>
      </trkpt>
      <trkpt lat="47.80877" lon="-3.65099">
        <ele>54</ele>
        <time>2018-07-18T10:42:51Z</time>
      </trkpt>
      <trkpt lat="47.80874" lon="-3.65099">
        <ele>54</ele>
        <time>2018-07-18T10:42:52Z</time>
      </trkpt>
      <trkpt lat="47.80871" lon="-3.65098">
        <ele>54</ele>
        <time>2018-07-18T10:42:53Z</time>
      </trkpt>
      <trkpt lat="47.80868" lon="-3.65097">
        <ele>54</ele>
        <time>2018-07-18T10:42:54Z</time>
      </trkpt>
      <trkpt lat="47.80865" lon="-3.65097">
        <ele>54</ele>
        <time>2018-07-18T10:42:55Z</time>
      </trkpt>
      <trkpt lat="47.80861" lon="-3.65097">
        <ele>55</ele>
        <time>2018-07-18T10:42:56Z</time>
      </trkpt>
      <trkpt lat="47.80857" lon="-3.65097">
        <ele>55</ele>
        <time>2018-07-18T10:42:57Z</time>
      </trkpt>
      <trkpt lat="47.80852" lon="-3.65096">
        <ele>55</ele>
        <time>2018-07-18T10:42:58Z</time>
      </trkpt>
      <trkpt lat="47.80847" lon="-3.65094">
        <ele>55</ele>
        <time>2018-07-18T10:42:59Z</time>
      </trkpt>
      <trkpt lat="47.80842" lon="-3.65094">
        <ele>55</ele>
        <time>2018-07-18T10:43:00Z</time>
      </trkpt>
      <trkpt lat="47.80837" lon="-3.65094">
        <ele>55</ele>
        <time>2018-07-18T10:43:01Z</time>
      </trkpt>
      <trkpt lat="47.80831" lon="-3.65093">
        <ele>55</ele>
        <time>2018-07-18T10:43:02Z</time>
      </trkpt>
      <trkpt lat="47.80827" lon="-3.65091">
        <ele>55</ele>
        <time>2018-07-18T10:43:03Z</time>
      </trkpt>
      <trkpt lat="47.80822" lon="-3.6509">
        <ele>55</ele>
        <time>2018-07-18T10:43:04Z</time>
      </trkpt>
      <trkpt lat="47.80818" lon="-3.65089">
        <ele>55</ele>
        <time>2018-07-18T10:43:05Z</time>
      </trkpt>
      <trkpt lat="47.80813" lon="-3.65087">
        <ele>55</ele>
        <time>2018-07-18T10:43:06Z</time>
      </trkpt>
      <trkpt lat="47.80809" lon="-3.65086">
        <ele>56</ele>
        <time>2018-07-18T10:43:07Z</time>
      </trkpt>
      <trkpt lat="47.80805" lon="-3.65085">
        <ele>56</ele>
        <time>2018-07-18T10:43:08Z</time>
      </trkpt>
      <trkpt lat="47.808" lon="-3.65085">
        <ele>56</ele>
        <time>2018-07-18T10:43:09Z</time>
      </trkpt>
      <trkpt lat="47.80796" lon="-3.65085">
        <ele>56</ele>
        <time>2018-07-18T10:43:10Z</time>
      </trkpt>
      <trkpt lat="47.80792" lon="-3.65084">
        <ele>56</ele>
        <time>2018-07-18T10:43:11Z</time>
      </trkpt>
      <trkpt lat="47.80787" lon="-3.65083">
        <ele>56</ele>
        <time>2018-07-18T10:43:12Z</time>
      </trkpt>
      <trkpt lat="47.80783" lon="-3.65082">
        <ele>56</ele>
        <time>2018-07-18T10:43:13Z</time>
      </trkpt>
      <trkpt lat="47.80778" lon="-3.65081">
        <ele>56</ele>
        <time>2018-07-18T10:43:14Z</time>
      </trkpt>
      <trkpt lat="47.80773" lon="-3.65079">
        <ele>56</ele>
        <time>2018-07-18T10:43:15Z</time>
      </trkpt>
      <trkpt lat="47.80769" lon="-3.65078">
        <ele>56</ele>
        <time>2018-07-18T10:43:16Z</time>
      </trkpt>
      <trkpt lat="47.80764" lon="-3.65077">
        <ele>56</ele>
        <time>2018-07-18T10:43:17Z</time>
      </trkpt>
      <trkpt lat="47.8076" lon="-3.65077">
        <ele>57</ele>
        <time>2018-07-18T10:43:18Z</time>
      </trkpt>
      <trkpt lat="47.80755" lon="-3.65078">
        <ele>57</ele>
        <time>2018-07-18T10:43:19Z</time>
      </trkpt>
      <trkpt lat="47.80751" lon="-3.65082">
        <ele>57</ele>
        <time>2018-07-18T10:43:20Z</time>
      </trkpt>
      <trkpt lat="47.80748" lon="-3.65086">
        <ele>57</ele>
        <time>2018-07-18T10:43:21Z</time>
      </trkpt>
      <trkpt lat="47.80744" lon="-3.65092">
        <ele>56</ele>
        <time>2018-07-18T10:43:22Z</time>
      </trkpt>
      <trkpt lat="47.8074" lon="-3.65097">
        <ele>56</ele>
        <time>2018-07-18T10:43:23Z</time>
      </trkpt>
      <trkpt lat="47.80737" lon="-3.65103">
        <ele>56</ele>
        <time>2018-07-18T10:43:24Z</time>
      </trkpt>
      <trkpt lat="47.80734" lon="-3.65108">
        <ele>56</ele>
        <time>2018-07-18T10:43:25Z</time>
      </trkpt>
      <trkpt lat="47.8073" lon="-3.65113">
        <ele>56</ele>
        <time>2018-07-18T10:43:26Z</time>
      </trkpt>
      <trkpt lat="47.80726" lon="-3.65119">
        <ele>56</ele>
        <time>2018-07-18T10:43:27Z</time>
      </trkpt>
      <trkpt lat="47.80723" lon="-3.65125">
        <ele>56</ele>
        <time>2018-07-18T10:43:28Z</time>
      </trkpt>
      <trkpt lat="47.8072" lon="-3.6513">
        <ele>56</ele>
        <time>2018-07-18T10:43:29Z</time>
      </trkpt>
      <trkpt lat="47.80717" lon="-3.65136">
        <ele>56</ele>
        <time>2018-07-18T10:43:30Z</time>
      </trkpt>
      <trkpt lat="47.80715" lon="-3.65142">
        <ele>56</ele>
        <time>2018-07-18T10:43:31Z</time>
      </trkpt>
      <trkpt lat="47.80713" lon="-3.65147">
        <ele>56</ele>
        <time>2018-07-18T10:43:32Z</time>
      </trkpt>
      <trkpt lat="47.8071" lon="-3.65152">
        <ele>56</ele>
        <time>2018-07-18T10:43:33Z</time>
      </trkpt>
      <trkpt lat="47.80708" lon="-3.65159">
        <ele>56</ele>
        <time>2018-07-18T10:43:34Z</time>
      </trkpt>
      <trkpt lat="47.80705" lon="-3.65165">
        <ele>56</ele>
        <time>2018-07-18T10:43:35Z</time>
      </trkpt>
      <trkpt lat="47.80702" lon="-3.65172">
        <ele>56</ele>
        <time>2018-07-18T10:43:36Z</time>
      </trkpt>
      <trkpt lat="47.807" lon="-3.65178">
        <ele>56</ele>
        <time>2018-07-18T10:43:37Z</time>
      </trkpt>
      <trkpt lat="47.80697" lon="-3.65186">
        <ele>56</ele>
        <time>2018-07-18T10:43:38Z</time>
      </trkpt>
      <trkpt lat="47.80694" lon="-3.65192">
        <ele>56</ele>
        <time>2018-07-18T10:43:39Z</time>
      </trkpt>
      <trkpt lat="47.8069" lon="-3.65198">
        <ele>55</ele>
        <time>2018-07-18T10:43:40Z</time>
      </trkpt>
      <trkpt lat="47.80687" lon="-3.65206">
        <ele>56</ele>
        <time>2018-07-18T10:43:41Z</time>
      </trkpt>
      <trkpt lat="47.80684" lon="-3.65213">
        <ele>56</ele>
        <time>2018-07-18T10:43:42Z</time>
      </trkpt>
      <trkpt lat="47.80681" lon="-3.6522">
        <ele>56</ele>
        <time>2018-07-18T10:43:43Z</time>
      </trkpt>
      <trkpt lat="47.80678" lon="-3.65228">
        <ele>56</ele>
        <time>2018-07-18T10:43:44Z</time>
      </trkpt>
      <trkpt lat="47.80675" lon="-3.65236">
        <ele>56</ele>
        <time>2018-07-18T10:43:45Z</time>
      </trkpt>
      <trkpt lat="47.80672" lon="-3.65244">
        <ele>56</ele>
        <time>2018-07-18T10:43:46Z</time>
      </trkpt>
      <trkpt lat="47.80669" lon="-3.65251">
        <ele>56</ele>
        <time>2018-07-18T10:43:47Z</time>
      </trkpt>
      <trkpt lat="47.80666" lon="-3.65259">
        <ele>56</ele>
        <time>2018-07-18T10:43:48Z</time>
      </trkpt>
      <trkpt lat="47.80663" lon="-3.65267">
        <ele>56</ele>
        <time>2018-07-18T10:43:49Z</time>
      </trkpt>
      <trkpt lat="47.8066" lon="-3.65274">
        <ele>56</ele>
        <time>2018-07-18T10:43:50Z</time>
      </trkpt>
      <trkpt lat="47.80656" lon="-3.65282">
        <ele>56</ele>
        <time>2018-07-18T10:43:51Z</time>
      </trkpt>
      <trkpt lat="47.80653" lon="-3.65289">
        <ele>56</ele>
        <time>2018-07-18T10:43:52Z</time>
      </trkpt>
      <trkpt lat="47.80649" lon="-3.65295">
        <ele>56</ele>
        <time>2018-07-18T10:43:53Z</time>
      </trkpt>
      <trkpt lat="47.80646" lon="-3.653">
        <ele>56</ele>
        <time>2018-07-18T10:43:54Z</time>
      </trkpt>
      <trkpt lat="47.80643" lon="-3.65304">
        <ele>56</ele>
        <time>2018-07-18T10:43:55Z</time>
      </trkpt>
      <trkpt lat="47.8064" lon="-3.65309">
        <ele>56</ele>
        <time>2018-07-18T10:43:56Z</time>
      </trkpt>
      <trkpt lat="47.80635" lon="-3.65314">
        <ele>56</ele>
        <time>2018-07-18T10:43:57Z</time>
      </trkpt>
      <trkpt lat="47.80631" lon="-3.6532">
        <ele>56</ele>
        <time>2018-07-18T10:43:58Z</time>
      </trkpt>
      <trkpt lat="47.80627" lon="-3.65326">
        <ele>56</ele>
        <time>2018-07-18T10:43:59Z</time>
      </trkpt>
      <trkpt lat="47.80624" lon="-3.65332">
        <ele>55</ele>
        <time>2018-07-18T10:44:00Z</time>
      </trkpt>
      <trkpt lat="47.8062" lon="-3.65339">
        <ele>55</ele>
        <time>2018-07-18T10:44:01Z</time>
      </trkpt>
      <trkpt lat="47.80616" lon="-3.65346">
        <ele>55</ele>
        <time>2018-07-18T10:44:02Z</time>
      </trkpt>
      <trkpt lat="47.80612" lon="-3.65353">
        <ele>55</ele>
        <time>2018-07-18T10:44:03Z</time>
      </trkpt>
      <trkpt lat="47.80608" lon="-3.65361">
        <ele>55</ele>
        <time>2018-07-18T10:44:04Z</time>
      </trkpt>
      <trkpt lat="47.80605" lon="-3.65368">
        <ele>55</ele>
        <time>2018-07-18T10:44:05Z</time>
      </trkpt>
      <trkpt lat="47.80602" lon="-3.65375">
        <ele>55</ele>
        <time>2018-07-18T10:44:06Z</time>
      </trkpt>
      <trkpt lat="47.80599" lon="-3.65382">
        <ele>55</ele>
        <time>2018-07-18T10:44:07Z</time>
      </trkpt>
      <trkpt lat="47.80596" lon="-3.65388">
        <ele>55</ele>
        <time>2018-07-18T10:44:08Z</time>
      </trkpt>
      <trkpt lat="47.80593" lon="-3.65394">
        <ele>55</ele>
        <time>2018-07-18T10:44:09Z</time>
      </trkpt>
      <trkpt lat="47.80589" lon="-3.65401">
        <ele>55</ele>
        <time>2018-07-18T10:44:10Z</time>
      </trkpt>
      <trkpt lat="47.80585" lon="-3.65409">
        <ele>55</ele>
        <time>2018-07-18T10:44:11Z</time>
      </trkpt>
      <trkpt lat="47.80581" lon="-3.65416">
        <ele>55</ele>
        <time>2018-07-18T10:44:12Z</time>
      </trkpt>
      <trkpt lat="47.80578" lon="-3.65424">
        <ele>55</ele>
        <time>2018-07-18T10:44:13Z</time>
      </trkpt>
      <trkpt lat="47.80575" lon="-3.65432">
        <ele>55</ele>
        <time>2018-07-18T10:44:14Z</time>
      </trkpt>
      <trkpt lat="47.80572" lon="-3.65439">
        <ele>55</ele>
        <time>2018-07-18T10:44:15Z</time>
      </trkpt>
      <trkpt lat="47.80569" lon="-3.65446">
        <ele>55</ele>
        <time>2018-07-18T10:44:16Z</time>
      </trkpt>
      <trkpt lat="47.80565" lon="-3.65454">
        <ele>55</ele>
        <time>2018-07-18T10:44:17Z</time>
      </trkpt>
      <trkpt lat="47.80562" lon="-3.65461">
        <ele>55</ele>
        <time>2018-07-18T10:44:18Z</time>
      </trkpt>
      <trkpt lat="47.80559" lon="-3.65469">
        <ele>55</ele>
        <time>2018-07-18T10:44:19Z</time>
      </trkpt>
      <trkpt lat="47.80556" lon="-3.65476">
        <ele>55</ele>
        <time>2018-07-18T10:44:20Z</time>
      </trkpt>
      <trkpt lat="47.80553" lon="-3.65484">
        <ele>55</ele>
        <time>2018-07-18T10:44:21Z</time>
      </trkpt>
      <trkpt lat="47.8055" lon="-3.65491">
        <ele>55</ele>
        <time>2018-07-18T10:44:22Z</time>
      </trkpt>
      <trkpt lat="47.80547" lon="-3.65499">
        <ele>55</ele>
        <time>2018-07-18T10:44:23Z</time>
      </trkpt>
      <trkpt lat="47.80545" lon="-3.65506">
        <ele>55</ele>
        <time>2018-07-18T10:44:24Z</time>
      </trkpt>
      <trkpt lat="47.80542" lon="-3.65514">
        <ele>54</ele>
        <time>2018-07-18T10:44:25Z</time>
      </trkpt>
      <trkpt lat="47.8054" lon="-3.65522">
        <ele>54</ele>
        <time>2018-07-18T10:44:26Z</time>
      </trkpt>
      <trkpt lat="47.80537" lon="-3.6553">
        <ele>54</ele>
        <time>2018-07-18T10:44:27Z</time>
      </trkpt>
      <trkpt lat="47.80536" lon="-3.65537">
        <ele>54</ele>
        <time>2018-07-18T10:44:28Z</time>
      </trkpt>
      <trkpt lat="47.80533" lon="-3.65544">
        <ele>54</ele>
        <time>2018-07-18T10:44:29Z</time>
      </trkpt>
      <trkpt lat="47.80532" lon="-3.65551">
        <ele>54</ele>
        <time>2018-07-18T10:44:30Z</time>
      </trkpt>
      <trkpt lat="47.80531" lon="-3.65556">
        <ele>54</ele>
        <time>2018-07-18T10:44:31Z</time>
      </trkpt>
      <trkpt lat="47.80529" lon="-3.65563">
        <ele>54</ele>
        <time>2018-07-18T10:44:32Z</time>
      </trkpt>
      <trkpt lat="47.80526" lon="-3.6557">
        <ele>54</ele>
        <time>2018-07-18T10:44:33Z</time>
      </trkpt>
      <trkpt lat="47.80524" lon="-3.65578">
        <ele>54</ele>
        <time>2018-07-18T10:44:34Z</time>
      </trkpt>
      <trkpt lat="47.80522" lon="-3.65585">
        <ele>54</ele>
        <time>2018-07-18T10:44:35Z</time>
      </trkpt>
      <trkpt lat="47.8052" lon="-3.65593">
        <ele>54</ele>
        <time>2018-07-18T10:44:36Z</time>
      </trkpt>
      <trkpt lat="47.80517" lon="-3.65602">
        <ele>54</ele>
        <time>2018-07-18T10:44:37Z</time>
      </trkpt>
      <trkpt lat="47.80514" lon="-3.6561">
        <ele>54</ele>
        <time>2018-07-18T10:44:38Z</time>
      </trkpt>
      <trkpt lat="47.80512" lon="-3.65619">
        <ele>54</ele>
        <time>2018-07-18T10:44:39Z</time>
      </trkpt>
      <trkpt lat="47.8051" lon="-3.65627">
        <ele>54</ele>
        <time>2018-07-18T10:44:40Z</time>
      </trkpt>
      <trkpt lat="47.80508" lon="-3.65635">
        <ele>54</ele>
        <time>2018-07-18T10:44:41Z</time>
      </trkpt>
      <trkpt lat="47.80507" lon="-3.65644">
        <ele>54</ele>
        <time>2018-07-18T10:44:42Z</time>
      </trkpt>
      <trkpt lat="47.80505" lon="-3.65651">
        <ele>54</ele>
        <time>2018-07-18T10:44:43Z</time>
      </trkpt>
      <trkpt lat="47.80504" lon="-3.65658">
        <ele>54</ele>
        <time>2018-07-18T10:44:44Z</time>
      </trkpt>
      <trkpt lat="47.80503" lon="-3.65663">
        <ele>54</ele>
        <time>2018-07-18T10:44:45Z</time>
      </trkpt>
      <trkpt lat="47.80501" lon="-3.65668">
        <ele>54</ele>
        <time>2018-07-18T10:44:46Z</time>
      </trkpt>
      <trkpt lat="47.805" lon="-3.65675">
        <ele>54</ele>
        <time>2018-07-18T10:44:47Z</time>
      </trkpt>
      <trkpt lat="47.80498" lon="-3.65682">
        <ele>53</ele>
        <time>2018-07-18T10:44:48Z</time>
      </trkpt>
      <trkpt lat="47.80496" lon="-3.65688">
        <ele>53</ele>
        <time>2018-07-18T10:44:49Z</time>
      </trkpt>
      <trkpt lat="47.80494" lon="-3.65695">
        <ele>53</ele>
        <time>2018-07-18T10:44:50Z</time>
      </trkpt>
      <trkpt lat="47.80492" lon="-3.65701">
        <ele>53</ele>
        <time>2018-07-18T10:44:51Z</time>
      </trkpt>
      <trkpt lat="47.80491" lon="-3.65708">
        <ele>53</ele>
        <time>2018-07-18T10:44:52Z</time>
      </trkpt>
      <trkpt lat="47.80489" lon="-3.65714">
        <ele>53</ele>
        <time>2018-07-18T10:44:53Z</time>
      </trkpt>
      <trkpt lat="47.80487" lon="-3.6572">
        <ele>53</ele>
        <time>2018-07-18T10:44:54Z</time>
      </trkpt>
      <trkpt lat="47.80486" lon="-3.65726">
        <ele>52</ele>
        <time>2018-07-18T10:44:55Z</time>
      </trkpt>
      <trkpt lat="47.80485" lon="-3.6573">
        <ele>52</ele>
        <time>2018-07-18T10:44:56Z</time>
      </trkpt>
      <trkpt lat="47.80484" lon="-3.65732">
        <ele>52</ele>
        <time>2018-07-18T10:44:57Z</time>
      </trkpt>
      <trkpt lat="47.80484" lon="-3.65733">
        <ele>52</ele>
        <time>2018-07-18T10:44:58Z</time>
      </trkpt>
      <trkpt lat="47.80484" lon="-3.65734">
        <ele>52</ele>
        <time>2018-07-18T10:44:59Z</time>
      </trkpt>
      <trkpt lat="47.80484" lon="-3.65736">
        <ele>52</ele>
        <time>2018-07-18T10:45:00Z</time>
      </trkpt>
      <trkpt lat="47.80484" lon="-3.65736">
        <ele>52</ele>
        <time>2018-07-18T10:45:01Z</time>
      </trkpt>
      <trkpt lat="47.80484" lon="-3.65737">
        <ele>52</ele>
        <time>2018-07-18T10:45:02Z</time>
      </trkpt>
      <trkpt lat="47.80484" lon="-3.65738">
        <ele>52</ele>
        <time>2018-07-18T10:45:03Z</time>
      </trkpt>
      <trkpt lat="47.80484" lon="-3.65739">
        <ele>52</ele>
        <time>2018-07-18T10:45:04Z</time>
      </trkpt>
      <trkpt lat="47.80484" lon="-3.6574">
        <ele>52</ele>
        <time>2018-07-18T10:45:05Z</time>
      </trkpt>
      <trkpt lat="47.80482" lon="-3.65749">
        <ele>52</ele>
        <time>2018-07-18T10:45:06Z</time>
      </trkpt>
      <trkpt lat="47.80483" lon="-3.65751">
        <ele>52</ele>
        <time>2018-07-18T10:45:07Z</time>
      </trkpt>
      <trkpt lat="47.80484" lon="-3.65753">
        <ele>52</ele>
        <time>2018-07-18T10:45:08Z</time>
      </trkpt>
      <trkpt lat="47.80486" lon="-3.65756">
        <ele>52</ele>
        <time>2018-07-18T10:45:09Z</time>
      </trkpt>
      <trkpt lat="47.80489" lon="-3.65758">
        <ele>52</ele>
        <time>2018-07-18T10:45:10Z</time>
      </trkpt>
      <trkpt lat="47.80492" lon="-3.65762">
        <ele>51</ele>
        <time>2018-07-18T10:45:11Z</time>
      </trkpt>
      <trkpt lat="47.80496" lon="-3.65765">
        <ele>51</ele>
        <time>2018-07-18T10:45:12Z</time>
      </trkpt>
      <trkpt lat="47.805" lon="-3.65769">
        <ele>51</ele>
        <time>2018-07-18T10:45:13Z</time>
      </trkpt>
      <trkpt lat="47.80503" lon="-3.65773">
        <ele>51</ele>
        <time>2018-07-18T10:45:14Z</time>
      </trkpt>
      <trkpt lat="47.80507" lon="-3.65776">
        <ele>51</ele>
        <time>2018-07-18T10:45:15Z</time>
      </trkpt>
      <trkpt lat="47.8051" lon="-3.6578">
        <ele>51</ele>
        <time>2018-07-18T10:45:16Z</time>
      </trkpt>
      <trkpt lat="47.80512" lon="-3.65783">
        <ele>50</ele>
        <time>2018-07-18T10:45:17Z</time>
      </trkpt>
      <trkpt lat="47.80514" lon="-3.65786">
        <ele>50</ele>
        <time>2018-07-18T10:45:18Z</time>
      </trkpt>
      <trkpt lat="47.80517" lon="-3.65789">
        <ele>50</ele>
        <time>2018-07-18T10:45:19Z</time>
      </trkpt>
      <trkpt lat="47.8052" lon="-3.65793">
        <ele>50</ele>
        <time>2018-07-18T10:45:20Z</time>
      </trkpt>
      <trkpt lat="47.80522" lon="-3.65798">
        <ele>50</ele>
        <time>2018-07-18T10:45:21Z</time>
      </trkpt>
      <trkpt lat="47.80525" lon="-3.65802">
        <ele>50</ele>
        <time>2018-07-18T10:45:22Z</time>
      </trkpt>
      <trkpt lat="47.80528" lon="-3.65806">
        <ele>49</ele>
        <time>2018-07-18T10:45:23Z</time>
      </trkpt>
      <trkpt lat="47.80531" lon="-3.65811">
        <ele>49</ele>
        <time>2018-07-18T10:45:24Z</time>
      </trkpt>
      <trkpt lat="47.80535" lon="-3.65817">
        <ele>49</ele>
        <time>2018-07-18T10:45:25Z</time>
      </trkpt>
      <trkpt lat="47.80538" lon="-3.65822">
        <ele>49</ele>
        <time>2018-07-18T10:45:26Z</time>
      </trkpt>
      <trkpt lat="47.80542" lon="-3.65828">
        <ele>49</ele>
        <time>2018-07-18T10:45:27Z</time>
      </trkpt>
      <trkpt lat="47.80545" lon="-3.65834">
        <ele>48</ele>
        <time>2018-07-18T10:45:28Z</time>
      </trkpt>
      <trkpt lat="47.80549" lon="-3.6584">
        <ele>48</ele>
        <time>2018-07-18T10:45:29Z</time>
      </trkpt>
      <trkpt lat="47.80552" lon="-3.65846">
        <ele>48</ele>
        <time>2018-07-18T10:45:30Z</time>
      </trkpt>
      <trkpt lat="47.80555" lon="-3.65853">
        <ele>48</ele>
        <time>2018-07-18T10:45:31Z</time>
      </trkpt>
      <trkpt lat="47.80559" lon="-3.6586">
        <ele>48</ele>
        <time>2018-07-18T10:45:32Z</time>
      </trkpt>
      <trkpt lat="47.80562" lon="-3.65866">
        <ele>48</ele>
        <time>2018-07-18T10:45:33Z</time>
      </trkpt>
      <trkpt lat="47.80566" lon="-3.65873">
        <ele>48</ele>
        <time>2018-07-18T10:45:34Z</time>
      </trkpt>
      <trkpt lat="47.80569" lon="-3.6588">
        <ele>47</ele>
        <time>2018-07-18T10:45:35Z</time>
      </trkpt>
      <trkpt lat="47.80573" lon="-3.65887">
        <ele>47</ele>
        <time>2018-07-18T10:45:36Z</time>
      </trkpt>
      <trkpt lat="47.80576" lon="-3.65893">
        <ele>47</ele>
        <time>2018-07-18T10:45:37Z</time>
      </trkpt>
      <trkpt lat="47.8058" lon="-3.659">
        <ele>47</ele>
        <time>2018-07-18T10:45:38Z</time>
      </trkpt>
      <trkpt lat="47.80583" lon="-3.65907">
        <ele>47</ele>
        <time>2018-07-18T10:45:39Z</time>
      </trkpt>
      <trkpt lat="47.80587" lon="-3.65913">
        <ele>47</ele>
        <time>2018-07-18T10:45:40Z</time>
      </trkpt>
      <trkpt lat="47.8059" lon="-3.65919">
        <ele>47</ele>
        <time>2018-07-18T10:45:41Z</time>
      </trkpt>
      <trkpt lat="47.80593" lon="-3.65925">
        <ele>47</ele>
        <time>2018-07-18T10:45:42Z</time>
      </trkpt>
      <trkpt lat="47.80597" lon="-3.65931">
        <ele>46</ele>
        <time>2018-07-18T10:45:43Z</time>
      </trkpt>
      <trkpt lat="47.806" lon="-3.65938">
        <ele>46</ele>
        <time>2018-07-18T10:45:44Z</time>
      </trkpt>
      <trkpt lat="47.80603" lon="-3.65944">
        <ele>46</ele>
        <time>2018-07-18T10:45:45Z</time>
      </trkpt>
      <trkpt lat="47.80606" lon="-3.6595">
        <ele>46</ele>
        <time>2018-07-18T10:45:46Z</time>
      </trkpt>
      <trkpt lat="47.8061" lon="-3.65957">
        <ele>46</ele>
        <time>2018-07-18T10:45:47Z</time>
      </trkpt>
      <trkpt lat="47.80613" lon="-3.65963">
        <ele>46</ele>
        <time>2018-07-18T10:45:48Z</time>
      </trkpt>
      <trkpt lat="47.80617" lon="-3.6597">
        <ele>46</ele>
        <time>2018-07-18T10:45:49Z</time>
      </trkpt>
      <trkpt lat="47.8062" lon="-3.65977">
        <ele>46</ele>
        <time>2018-07-18T10:45:50Z</time>
      </trkpt>
      <trkpt lat="47.80624" lon="-3.65985">
        <ele>46</ele>
        <time>2018-07-18T10:45:51Z</time>
      </trkpt>
      <trkpt lat="47.80627" lon="-3.65992">
        <ele>45</ele>
        <time>2018-07-18T10:45:52Z</time>
      </trkpt>
      <trkpt lat="47.8063" lon="-3.65999">
        <ele>45</ele>
        <time>2018-07-18T10:45:53Z</time>
      </trkpt>
      <trkpt lat="47.80634" lon="-3.66007">
        <ele>45</ele>
        <time>2018-07-18T10:45:54Z</time>
      </trkpt>
      <trkpt lat="47.80638" lon="-3.66014">
        <ele>45</ele>
        <time>2018-07-18T10:45:55Z</time>
      </trkpt>
      <trkpt lat="47.80641" lon="-3.66021">
        <ele>45</ele>
        <time>2018-07-18T10:45:56Z</time>
      </trkpt>
      <trkpt lat="47.80645" lon="-3.66028">
        <ele>44</ele>
        <time>2018-07-18T10:45:57Z</time>
      </trkpt>
      <trkpt lat="47.80648" lon="-3.66035">
        <ele>44</ele>
        <time>2018-07-18T10:45:58Z</time>
      </trkpt>
      <trkpt lat="47.80652" lon="-3.66042">
        <ele>44</ele>
        <time>2018-07-18T10:45:59Z</time>
      </trkpt>
      <trkpt lat="47.80656" lon="-3.6605">
        <ele>44</ele>
        <time>2018-07-18T10:46:00Z</time>
      </trkpt>
      <trkpt lat="47.8066" lon="-3.66057">
        <ele>44</ele>
        <time>2018-07-18T10:46:01Z</time>
      </trkpt>
      <trkpt lat="47.80663" lon="-3.66064">
        <ele>43</ele>
        <time>2018-07-18T10:46:02Z</time>
      </trkpt>
      <trkpt lat="47.80666" lon="-3.66072">
        <ele>43</ele>
        <time>2018-07-18T10:46:03Z</time>
      </trkpt>
      <trkpt lat="47.8067" lon="-3.66079">
        <ele>43</ele>
        <time>2018-07-18T10:46:04Z</time>
      </trkpt>
      <trkpt lat="47.80674" lon="-3.66087">
        <ele>43</ele>
        <time>2018-07-18T10:46:05Z</time>
      </trkpt>
      <trkpt lat="47.80678" lon="-3.66094">
        <ele>43</ele>
        <time>2018-07-18T10:46:06Z</time>
      </trkpt>
      <trkpt lat="47.80682" lon="-3.66101">
        <ele>43</ele>
        <time>2018-07-18T10:46:07Z</time>
      </trkpt>
      <trkpt lat="47.80685" lon="-3.66108">
        <ele>43</ele>
        <time>2018-07-18T10:46:08Z</time>
      </trkpt>
      <trkpt lat="47.80689" lon="-3.66115">
        <ele>43</ele>
        <time>2018-07-18T10:46:09Z</time>
      </trkpt>
      <trkpt lat="47.80692" lon="-3.66122">
        <ele>43</ele>
        <time>2018-07-18T10:46:10Z</time>
      </trkpt>
      <trkpt lat="47.80695" lon="-3.66129">
        <ele>43</ele>
        <time>2018-07-18T10:46:11Z</time>
      </trkpt>
      <trkpt lat="47.80698" lon="-3.66136">
        <ele>43</ele>
        <time>2018-07-18T10:46:12Z</time>
      </trkpt>
      <trkpt lat="47.80702" lon="-3.66143">
        <ele>43</ele>
        <time>2018-07-18T10:46:13Z</time>
      </trkpt>
      <trkpt lat="47.80705" lon="-3.6615">
        <ele>43</ele>
        <time>2018-07-18T10:46:14Z</time>
      </trkpt>
      <trkpt lat="47.80709" lon="-3.66157">
        <ele>43</ele>
        <time>2018-07-18T10:46:15Z</time>
      </trkpt>
      <trkpt lat="47.80712" lon="-3.66164">
        <ele>43</ele>
        <time>2018-07-18T10:46:16Z</time>
      </trkpt>
      <trkpt lat="47.80715" lon="-3.66172">
        <ele>44</ele>
        <time>2018-07-18T10:46:17Z</time>
      </trkpt>
      <trkpt lat="47.80719" lon="-3.66178">
        <ele>44</ele>
        <time>2018-07-18T10:46:18Z</time>
      </trkpt>
      <trkpt lat="47.80722" lon="-3.66185">
        <ele>44</ele>
        <time>2018-07-18T10:46:19Z</time>
      </trkpt>
      <trkpt lat="47.80726" lon="-3.66192">
        <ele>44</ele>
        <time>2018-07-18T10:46:20Z</time>
      </trkpt>
      <trkpt lat="47.80729" lon="-3.66199">
        <ele>44</ele>
        <time>2018-07-18T10:46:21Z</time>
      </trkpt>
      <trkpt lat="47.80732" lon="-3.66206">
        <ele>44</ele>
        <time>2018-07-18T10:46:22Z</time>
      </trkpt>
      <trkpt lat="47.80735" lon="-3.66213">
        <ele>44</ele>
        <time>2018-07-18T10:46:23Z</time>
      </trkpt>
      <trkpt lat="47.80738" lon="-3.6622">
        <ele>45</ele>
        <time>2018-07-18T10:46:24Z</time>
      </trkpt>
      <trkpt lat="47.80741" lon="-3.66227">
        <ele>45</ele>
        <time>2018-07-18T10:46:25Z</time>
      </trkpt>
      <trkpt lat="47.80745" lon="-3.66233">
        <ele>45</ele>
        <time>2018-07-18T10:46:26Z</time>
      </trkpt>
      <trkpt lat="47.80749" lon="-3.66238">
        <ele>45</ele>
        <time>2018-07-18T10:46:27Z</time>
      </trkpt>
      <trkpt lat="47.80752" lon="-3.66243">
        <ele>45</ele>
        <time>2018-07-18T10:46:28Z</time>
      </trkpt>
      <trkpt lat="47.80756" lon="-3.66247">
        <ele>45</ele>
        <time>2018-07-18T10:46:29Z</time>
      </trkpt>
      <trkpt lat="47.80759" lon="-3.6625">
        <ele>45</ele>
        <time>2018-07-18T10:46:30Z</time>
      </trkpt>
      <trkpt lat="47.80762" lon="-3.66253">
        <ele>45</ele>
        <time>2018-07-18T10:46:31Z</time>
      </trkpt>
      <trkpt lat="47.80766" lon="-3.66256">
        <ele>45</ele>
        <time>2018-07-18T10:46:32Z</time>
      </trkpt>
      <trkpt lat="47.8077" lon="-3.66259">
        <ele>45</ele>
        <time>2018-07-18T10:46:33Z</time>
      </trkpt>
      <trkpt lat="47.80775" lon="-3.66263">
        <ele>44</ele>
        <time>2018-07-18T10:46:34Z</time>
      </trkpt>
      <trkpt lat="47.8078" lon="-3.66267">
        <ele>44</ele>
        <time>2018-07-18T10:46:35Z</time>
      </trkpt>
      <trkpt lat="47.80785" lon="-3.66271">
        <ele>44</ele>
        <time>2018-07-18T10:46:36Z</time>
      </trkpt>
      <trkpt lat="47.8079" lon="-3.66274">
        <ele>44</ele>
        <time>2018-07-18T10:46:37Z</time>
      </trkpt>
      <trkpt lat="47.80795" lon="-3.66278">
        <ele>44</ele>
        <time>2018-07-18T10:46:38Z</time>
      </trkpt>
      <trkpt lat="47.80801" lon="-3.66282">
        <ele>44</ele>
        <time>2018-07-18T10:46:39Z</time>
      </trkpt>
      <trkpt lat="47.80806" lon="-3.66286">
        <ele>45</ele>
        <time>2018-07-18T10:46:40Z</time>
      </trkpt>
      <trkpt lat="47.80812" lon="-3.6629">
        <ele>45</ele>
        <time>2018-07-18T10:46:41Z</time>
      </trkpt>
      <trkpt lat="47.80817" lon="-3.66293">
        <ele>45</ele>
        <time>2018-07-18T10:46:42Z</time>
      </trkpt>
      <trkpt lat="47.80822" lon="-3.66298">
        <ele>46</ele>
        <time>2018-07-18T10:46:43Z</time>
      </trkpt>
      <trkpt lat="47.80827" lon="-3.66301">
        <ele>46</ele>
        <time>2018-07-18T10:46:44Z</time>
      </trkpt>
      <trkpt lat="47.80833" lon="-3.66305">
        <ele>46</ele>
        <time>2018-07-18T10:46:45Z</time>
      </trkpt>
      <trkpt lat="47.80838" lon="-3.66308">
        <ele>47</ele>
        <time>2018-07-18T10:46:46Z</time>
      </trkpt>
      <trkpt lat="47.80843" lon="-3.66312">
        <ele>47</ele>
        <time>2018-07-18T10:46:47Z</time>
      </trkpt>
      <trkpt lat="47.80849" lon="-3.66315">
        <ele>48</ele>
        <time>2018-07-18T10:46:48Z</time>
      </trkpt>
      <trkpt lat="47.80855" lon="-3.66319">
        <ele>48</ele>
        <time>2018-07-18T10:46:49Z</time>
      </trkpt>
      <trkpt lat="47.8086" lon="-3.66323">
        <ele>49</ele>
        <time>2018-07-18T10:46:50Z</time>
      </trkpt>
      <trkpt lat="47.80865" lon="-3.66327">
        <ele>49</ele>
        <time>2018-07-18T10:46:51Z</time>
      </trkpt>
      <trkpt lat="47.80869" lon="-3.66329">
        <ele>49</ele>
        <time>2018-07-18T10:46:52Z</time>
      </trkpt>
      <trkpt lat="47.80874" lon="-3.66332">
        <ele>50</ele>
        <time>2018-07-18T10:46:53Z</time>
      </trkpt>
      <trkpt lat="47.80879" lon="-3.66336">
        <ele>50</ele>
        <time>2018-07-18T10:46:54Z</time>
      </trkpt>
      <trkpt lat="47.80884" lon="-3.6634">
        <ele>50</ele>
        <time>2018-07-18T10:46:55Z</time>
      </trkpt>
      <trkpt lat="47.80889" lon="-3.66343">
        <ele>51</ele>
        <time>2018-07-18T10:46:56Z</time>
      </trkpt>
      <trkpt lat="47.80893" lon="-3.66347">
        <ele>51</ele>
        <time>2018-07-18T10:46:57Z</time>
      </trkpt>
      <trkpt lat="47.80898" lon="-3.66352">
        <ele>51</ele>
        <time>2018-07-18T10:46:58Z</time>
      </trkpt>
      <trkpt lat="47.80902" lon="-3.66356">
        <ele>52</ele>
        <time>2018-07-18T10:46:59Z</time>
      </trkpt>
      <trkpt lat="47.80907" lon="-3.66361">
        <ele>52</ele>
        <time>2018-07-18T10:47:00Z</time>
      </trkpt>
      <trkpt lat="47.80911" lon="-3.66365">
        <ele>52</ele>
        <time>2018-07-18T10:47:01Z</time>
      </trkpt>
      <trkpt lat="47.80916" lon="-3.66369">
        <ele>52</ele>
        <time>2018-07-18T10:47:02Z</time>
      </trkpt>
      <trkpt lat="47.80921" lon="-3.66373">
        <ele>52</ele>
        <time>2018-07-18T10:47:03Z</time>
      </trkpt>
      <trkpt lat="47.80925" lon="-3.66377">
        <ele>52</ele>
        <time>2018-07-18T10:47:04Z</time>
      </trkpt>
      <trkpt lat="47.8093" lon="-3.66382">
        <ele>52</ele>
        <time>2018-07-18T10:47:05Z</time>
      </trkpt>
      <trkpt lat="47.80935" lon="-3.66386">
        <ele>52</ele>
        <time>2018-07-18T10:47:06Z</time>
      </trkpt>
      <trkpt lat="47.8094" lon="-3.6639">
        <ele>52</ele>
        <time>2018-07-18T10:47:07Z</time>
      </trkpt>
      <trkpt lat="47.80945" lon="-3.66394">
        <ele>52</ele>
        <time>2018-07-18T10:47:08Z</time>
      </trkpt>
      <trkpt lat="47.8095" lon="-3.66399">
        <ele>52</ele>
        <time>2018-07-18T10:47:09Z</time>
      </trkpt>
      <trkpt lat="47.80955" lon="-3.66403">
        <ele>52</ele>
        <time>2018-07-18T10:47:10Z</time>
      </trkpt>
      <trkpt lat="47.80959" lon="-3.66409">
        <ele>52</ele>
        <time>2018-07-18T10:47:11Z</time>
      </trkpt>
      <trkpt lat="47.80964" lon="-3.66413">
        <ele>51</ele>
        <time>2018-07-18T10:47:12Z</time>
      </trkpt>
      <trkpt lat="47.80969" lon="-3.66418">
        <ele>51</ele>
        <time>2018-07-18T10:47:13Z</time>
      </trkpt>
      <trkpt lat="47.80974" lon="-3.66422">
        <ele>51</ele>
        <time>2018-07-18T10:47:14Z</time>
      </trkpt>
      <trkpt lat="47.80979" lon="-3.66426">
        <ele>51</ele>
        <time>2018-07-18T10:47:15Z</time>
      </trkpt>
      <trkpt lat="47.80983" lon="-3.66431">
        <ele>51</ele>
        <time>2018-07-18T10:47:16Z</time>
      </trkpt>
      <trkpt lat="47.80988" lon="-3.66436">
        <ele>51</ele>
        <time>2018-07-18T10:47:17Z</time>
      </trkpt>
      <trkpt lat="47.80992" lon="-3.66442">
        <ele>51</ele>
        <time>2018-07-18T10:47:18Z</time>
      </trkpt>
      <trkpt lat="47.80995" lon="-3.66448">
        <ele>51</ele>
        <time>2018-07-18T10:47:19Z</time>
      </trkpt>
      <trkpt lat="47.80998" lon="-3.66455">
        <ele>51</ele>
        <time>2018-07-18T10:47:20Z</time>
      </trkpt>
      <trkpt lat="47.80999" lon="-3.66462">
        <ele>51</ele>
        <time>2018-07-18T10:47:21Z</time>
      </trkpt>
      <trkpt lat="47.80999" lon="-3.6647">
        <ele>51</ele>
        <time>2018-07-18T10:47:22Z</time>
      </trkpt>
      <trkpt lat="47.80998" lon="-3.66477">
        <ele>51</ele>
        <time>2018-07-18T10:47:23Z</time>
      </trkpt>
      <trkpt lat="47.80998" lon="-3.66486">
        <ele>51</ele>
        <time>2018-07-18T10:47:24Z</time>
      </trkpt>
      <trkpt lat="47.80997" lon="-3.66493">
        <ele>51</ele>
        <time>2018-07-18T10:47:25Z</time>
      </trkpt>
      <trkpt lat="47.80997" lon="-3.665">
        <ele>50</ele>
        <time>2018-07-18T10:47:26Z</time>
      </trkpt>
      <trkpt lat="47.80996" lon="-3.66508">
        <ele>50</ele>
        <time>2018-07-18T10:47:27Z</time>
      </trkpt>
      <trkpt lat="47.80995" lon="-3.66516">
        <ele>50</ele>
        <time>2018-07-18T10:47:28Z</time>
      </trkpt>
      <trkpt lat="47.80994" lon="-3.66525">
        <ele>50</ele>
        <time>2018-07-18T10:47:29Z</time>
      </trkpt>
      <trkpt lat="47.80993" lon="-3.66533">
        <ele>50</ele>
        <time>2018-07-18T10:47:30Z</time>
      </trkpt>
      <trkpt lat="47.80992" lon="-3.66541">
        <ele>50</ele>
        <time>2018-07-18T10:47:31Z</time>
      </trkpt>
      <trkpt lat="47.80992" lon="-3.66549">
        <ele>50</ele>
        <time>2018-07-18T10:47:32Z</time>
      </trkpt>
      <trkpt lat="47.80991" lon="-3.66557">
        <ele>50</ele>
        <time>2018-07-18T10:47:33Z</time>
      </trkpt>
      <trkpt lat="47.8099" lon="-3.66563">
        <ele>50</ele>
        <time>2018-07-18T10:47:34Z</time>
      </trkpt>
      <trkpt lat="47.8099" lon="-3.6657">
        <ele>50</ele>
        <time>2018-07-18T10:47:35Z</time>
      </trkpt>
      <trkpt lat="47.80988" lon="-3.66576">
        <ele>50</ele>
        <time>2018-07-18T10:47:36Z</time>
      </trkpt>
      <trkpt lat="47.80987" lon="-3.66584">
        <ele>50</ele>
        <time>2018-07-18T10:47:37Z</time>
      </trkpt>
      <trkpt lat="47.80986" lon="-3.66593">
        <ele>50</ele>
        <time>2018-07-18T10:47:38Z</time>
      </trkpt>
      <trkpt lat="47.80985" lon="-3.66603">
        <ele>50</ele>
        <time>2018-07-18T10:47:39Z</time>
      </trkpt>
      <trkpt lat="47.80984" lon="-3.66612">
        <ele>50</ele>
        <time>2018-07-18T10:47:40Z</time>
      </trkpt>
      <trkpt lat="47.80983" lon="-3.66622">
        <ele>50</ele>
        <time>2018-07-18T10:47:41Z</time>
      </trkpt>
      <trkpt lat="47.80983" lon="-3.66631">
        <ele>50</ele>
        <time>2018-07-18T10:47:42Z</time>
      </trkpt>
      <trkpt lat="47.80982" lon="-3.66641">
        <ele>50</ele>
        <time>2018-07-18T10:47:43Z</time>
      </trkpt>
      <trkpt lat="47.8098" lon="-3.6665">
        <ele>49</ele>
        <time>2018-07-18T10:47:44Z</time>
      </trkpt>
      <trkpt lat="47.80979" lon="-3.6666">
        <ele>49</ele>
        <time>2018-07-18T10:47:45Z</time>
      </trkpt>
      <trkpt lat="47.80977" lon="-3.66669">
        <ele>49</ele>
        <time>2018-07-18T10:47:46Z</time>
      </trkpt>
      <trkpt lat="47.80976" lon="-3.66679">
        <ele>49</ele>
        <time>2018-07-18T10:47:47Z</time>
      </trkpt>
      <trkpt lat="47.80975" lon="-3.66689">
        <ele>48</ele>
        <time>2018-07-18T10:47:48Z</time>
      </trkpt>
      <trkpt lat="47.80974" lon="-3.66699">
        <ele>48</ele>
        <time>2018-07-18T10:47:49Z</time>
      </trkpt>
      <trkpt lat="47.80974" lon="-3.66708">
        <ele>48</ele>
        <time>2018-07-18T10:47:50Z</time>
      </trkpt>
      <trkpt lat="47.80973" lon="-3.66717">
        <ele>48</ele>
        <time>2018-07-18T10:47:51Z</time>
      </trkpt>
      <trkpt lat="47.80973" lon="-3.66725">
        <ele>47</ele>
        <time>2018-07-18T10:47:52Z</time>
      </trkpt>
      <trkpt lat="47.80972" lon="-3.66735">
        <ele>47</ele>
        <time>2018-07-18T10:47:53Z</time>
      </trkpt>
      <trkpt lat="47.80971" lon="-3.66744">
        <ele>47</ele>
        <time>2018-07-18T10:47:54Z</time>
      </trkpt>
      <trkpt lat="47.8097" lon="-3.66753">
        <ele>47</ele>
        <time>2018-07-18T10:47:55Z</time>
      </trkpt>
      <trkpt lat="47.80969" lon="-3.66762">
        <ele>47</ele>
        <time>2018-07-18T10:47:56Z</time>
      </trkpt>
      <trkpt lat="47.80968" lon="-3.66772">
        <ele>47</ele>
        <time>2018-07-18T10:47:57Z</time>
      </trkpt>
      <trkpt lat="47.80967" lon="-3.66781">
        <ele>47</ele>
        <time>2018-07-18T10:47:58Z</time>
      </trkpt>
      <trkpt lat="47.80966" lon="-3.66791">
        <ele>46</ele>
        <time>2018-07-18T10:47:59Z</time>
      </trkpt>
      <trkpt lat="47.80965" lon="-3.66802">
        <ele>46</ele>
        <time>2018-07-18T10:48:00Z</time>
      </trkpt>
      <trkpt lat="47.80964" lon="-3.66812">
        <ele>46</ele>
        <time>2018-07-18T10:48:01Z</time>
      </trkpt>
      <trkpt lat="47.80963" lon="-3.66822">
        <ele>46</ele>
        <time>2018-07-18T10:48:02Z</time>
      </trkpt>
      <trkpt lat="47.80962" lon="-3.66832">
        <ele>46</ele>
        <time>2018-07-18T10:48:03Z</time>
      </trkpt>
      <trkpt lat="47.80961" lon="-3.66842">
        <ele>46</ele>
        <time>2018-07-18T10:48:04Z</time>
      </trkpt>
      <trkpt lat="47.8096" lon="-3.66852">
        <ele>46</ele>
        <time>2018-07-18T10:48:05Z</time>
      </trkpt>
      <trkpt lat="47.80959" lon="-3.66862">
        <ele>45</ele>
        <time>2018-07-18T10:48:06Z</time>
      </trkpt>
      <trkpt lat="47.80958" lon="-3.66872">
        <ele>45</ele>
        <time>2018-07-18T10:48:07Z</time>
      </trkpt>
      <trkpt lat="47.80957" lon="-3.66882">
        <ele>45</ele>
        <time>2018-07-18T10:48:08Z</time>
      </trkpt>
      <trkpt lat="47.80956" lon="-3.66892">
        <ele>45</ele>
        <time>2018-07-18T10:48:09Z</time>
      </trkpt>
      <trkpt lat="47.80956" lon="-3.66901">
        <ele>45</ele>
        <time>2018-07-18T10:48:10Z</time>
      </trkpt>
      <trkpt lat="47.80955" lon="-3.66911">
        <ele>45</ele>
        <time>2018-07-18T10:48:11Z</time>
      </trkpt>
      <trkpt lat="47.80954" lon="-3.6692">
        <ele>45</ele>
        <time>2018-07-18T10:48:12Z</time>
      </trkpt>
      <trkpt lat="47.80954" lon="-3.6693">
        <ele>45</ele>
        <time>2018-07-18T10:48:13Z</time>
      </trkpt>
      <trkpt lat="47.80953" lon="-3.66939">
        <ele>45</ele>
        <time>2018-07-18T10:48:14Z</time>
      </trkpt>
      <trkpt lat="47.80952" lon="-3.66948">
        <ele>45</ele>
        <time>2018-07-18T10:48:15Z</time>
      </trkpt>
      <trkpt lat="47.80951" lon="-3.66958">
        <ele>45</ele>
        <time>2018-07-18T10:48:16Z</time>
      </trkpt>
      <trkpt lat="47.8095" lon="-3.66967">
        <ele>45</ele>
        <time>2018-07-18T10:48:17Z</time>
      </trkpt>
      <trkpt lat="47.8095" lon="-3.66977">
        <ele>45</ele>
        <time>2018-07-18T10:48:18Z</time>
      </trkpt>
      <trkpt lat="47.80949" lon="-3.66986">
        <ele>45</ele>
        <time>2018-07-18T10:48:19Z</time>
      </trkpt>
      <trkpt lat="47.80948" lon="-3.66996">
        <ele>45</ele>
        <time>2018-07-18T10:48:20Z</time>
      </trkpt>
      <trkpt lat="47.80947" lon="-3.67006">
        <ele>46</ele>
        <time>2018-07-18T10:48:21Z</time>
      </trkpt>
      <trkpt lat="47.80946" lon="-3.67015">
        <ele>46</ele>
        <time>2018-07-18T10:48:22Z</time>
      </trkpt>
      <trkpt lat="47.80946" lon="-3.67024">
        <ele>46</ele>
        <time>2018-07-18T10:48:23Z</time>
      </trkpt>
      <trkpt lat="47.80945" lon="-3.67034">
        <ele>46</ele>
        <time>2018-07-18T10:48:24Z</time>
      </trkpt>
      <trkpt lat="47.80944" lon="-3.67043">
        <ele>46</ele>
        <time>2018-07-18T10:48:25Z</time>
      </trkpt>
      <trkpt lat="47.80943" lon="-3.67052">
        <ele>46</ele>
        <time>2018-07-18T10:48:26Z</time>
      </trkpt>
      <trkpt lat="47.80943" lon="-3.67061">
        <ele>46</ele>
        <time>2018-07-18T10:48:27Z</time>
      </trkpt>
      <trkpt lat="47.80942" lon="-3.6707">
        <ele>46</ele>
        <time>2018-07-18T10:48:28Z</time>
      </trkpt>
      <trkpt lat="47.80941" lon="-3.67079">
        <ele>46</ele>
        <time>2018-07-18T10:48:29Z</time>
      </trkpt>
      <trkpt lat="47.8094" lon="-3.67087">
        <ele>46</ele>
        <time>2018-07-18T10:48:30Z</time>
      </trkpt>
      <trkpt lat="47.8094" lon="-3.67096">
        <ele>46</ele>
        <time>2018-07-18T10:48:31Z</time>
      </trkpt>
      <trkpt lat="47.80939" lon="-3.67105">
        <ele>46</ele>
        <time>2018-07-18T10:48:32Z</time>
      </trkpt>
      <trkpt lat="47.80939" lon="-3.67113">
        <ele>46</ele>
        <time>2018-07-18T10:48:33Z</time>
      </trkpt>
      <trkpt lat="47.80938" lon="-3.67121">
        <ele>46</ele>
        <time>2018-07-18T10:48:34Z</time>
      </trkpt>
      <trkpt lat="47.80938" lon="-3.6713">
        <ele>46</ele>
        <time>2018-07-18T10:48:35Z</time>
      </trkpt>
      <trkpt lat="47.80937" lon="-3.67138">
        <ele>46</ele>
        <time>2018-07-18T10:48:36Z</time>
      </trkpt>
      <trkpt lat="47.80937" lon="-3.67147">
        <ele>46</ele>
        <time>2018-07-18T10:48:37Z</time>
      </trkpt>
      <trkpt lat="47.80936" lon="-3.67156">
        <ele>45</ele>
        <time>2018-07-18T10:48:38Z</time>
      </trkpt>
      <trkpt lat="47.80936" lon="-3.67164">
        <ele>45</ele>
        <time>2018-07-18T10:48:39Z</time>
      </trkpt>
      <trkpt lat="47.80936" lon="-3.67172">
        <ele>45</ele>
        <time>2018-07-18T10:48:40Z</time>
      </trkpt>
      <trkpt lat="47.80935" lon="-3.6718">
        <ele>45</ele>
        <time>2018-07-18T10:48:41Z</time>
      </trkpt>
      <trkpt lat="47.80934" lon="-3.67188">
        <ele>45</ele>
        <time>2018-07-18T10:48:42Z</time>
      </trkpt>
      <trkpt lat="47.80933" lon="-3.67196">
        <ele>45</ele>
        <time>2018-07-18T10:48:43Z</time>
      </trkpt>
      <trkpt lat="47.80933" lon="-3.67204">
        <ele>45</ele>
        <time>2018-07-18T10:48:44Z</time>
      </trkpt>
      <trkpt lat="47.80934" lon="-3.67212">
        <ele>45</ele>
        <time>2018-07-18T10:48:45Z</time>
      </trkpt>
      <trkpt lat="47.80937" lon="-3.67218">
        <ele>45</ele>
        <time>2018-07-18T10:48:46Z</time>
      </trkpt>
      <trkpt lat="47.80942" lon="-3.67221">
        <ele>45</ele>
        <time>2018-07-18T10:48:47Z</time>
      </trkpt>
      <trkpt lat="47.80947" lon="-3.67222">
        <ele>45</ele>
        <time>2018-07-18T10:48:48Z</time>
      </trkpt>
      <trkpt lat="47.80953" lon="-3.67224">
        <ele>45</ele>
        <time>2018-07-18T10:48:49Z</time>
      </trkpt>
      <trkpt lat="47.80958" lon="-3.67226">
        <ele>45</ele>
        <time>2018-07-18T10:48:50Z</time>
      </trkpt>
      <trkpt lat="47.80964" lon="-3.67227">
        <ele>45</ele>
        <time>2018-07-18T10:48:51Z</time>
      </trkpt>
      <trkpt lat="47.8097" lon="-3.67229">
        <ele>45</ele>
        <time>2018-07-18T10:48:52Z</time>
      </trkpt>
      <trkpt lat="47.80975" lon="-3.6723">
        <ele>45</ele>
        <time>2018-07-18T10:48:53Z</time>
      </trkpt>
      <trkpt lat="47.80981" lon="-3.67232">
        <ele>45</ele>
        <time>2018-07-18T10:48:54Z</time>
      </trkpt>
      <trkpt lat="47.80986" lon="-3.67234">
        <ele>45</ele>
        <time>2018-07-18T10:48:55Z</time>
      </trkpt>
      <trkpt lat="47.80992" lon="-3.67237">
        <ele>45</ele>
        <time>2018-07-18T10:48:56Z</time>
      </trkpt>
      <trkpt lat="47.80998" lon="-3.67239">
        <ele>45</ele>
        <time>2018-07-18T10:48:57Z</time>
      </trkpt>
      <trkpt lat="47.81003" lon="-3.67242">
        <ele>45</ele>
        <time>2018-07-18T10:48:58Z</time>
      </trkpt>
      <trkpt lat="47.81009" lon="-3.67245">
        <ele>45</ele>
        <time>2018-07-18T10:48:59Z</time>
      </trkpt>
      <trkpt lat="47.81015" lon="-3.67247">
        <ele>45</ele>
        <time>2018-07-18T10:49:00Z</time>
      </trkpt>
      <trkpt lat="47.8102" lon="-3.6725">
        <ele>45</ele>
        <time>2018-07-18T10:49:01Z</time>
      </trkpt>
      <trkpt lat="47.81025" lon="-3.67253">
        <ele>46</ele>
        <time>2018-07-18T10:49:02Z</time>
      </trkpt>
      <trkpt lat="47.81031" lon="-3.67256">
        <ele>46</ele>
        <time>2018-07-18T10:49:03Z</time>
      </trkpt>
      <trkpt lat="47.81037" lon="-3.67258">
        <ele>46</ele>
        <time>2018-07-18T10:49:04Z</time>
      </trkpt>
      <trkpt lat="47.81043" lon="-3.6726">
        <ele>46</ele>
        <time>2018-07-18T10:49:05Z</time>
      </trkpt>
      <trkpt lat="47.81048" lon="-3.67264">
        <ele>46</ele>
        <time>2018-07-18T10:49:06Z</time>
      </trkpt>
      <trkpt lat="47.81054" lon="-3.67267">
        <ele>46</ele>
        <time>2018-07-18T10:49:07Z</time>
      </trkpt>
      <trkpt lat="47.81059" lon="-3.6727">
        <ele>46</ele>
        <time>2018-07-18T10:49:08Z</time>
      </trkpt>
      <trkpt lat="47.81065" lon="-3.67273">
        <ele>46</ele>
        <time>2018-07-18T10:49:09Z</time>
      </trkpt>
      <trkpt lat="47.8107" lon="-3.67276">
        <ele>47</ele>
        <time>2018-07-18T10:49:10Z</time>
      </trkpt>
      <trkpt lat="47.81074" lon="-3.67278">
        <ele>47</ele>
        <time>2018-07-18T10:49:11Z</time>
      </trkpt>
      <trkpt lat="47.81079" lon="-3.6728">
        <ele>47</ele>
        <time>2018-07-18T10:49:12Z</time>
      </trkpt>
      <trkpt lat="47.81083" lon="-3.67282">
        <ele>47</ele>
        <time>2018-07-18T10:49:13Z</time>
      </trkpt>
      <trkpt lat="47.81087" lon="-3.67283">
        <ele>47</ele>
        <time>2018-07-18T10:49:14Z</time>
      </trkpt>
      <trkpt lat="47.81089" lon="-3.67283">
        <ele>47</ele>
        <time>2018-07-18T10:49:15Z</time>
      </trkpt>
      <trkpt lat="47.8109" lon="-3.67283">
        <ele>47</ele>
        <time>2018-07-18T10:49:16Z</time>
      </trkpt>
      <trkpt lat="47.8109" lon="-3.67283">
        <ele>47</ele>
        <time>2018-07-18T10:49:17Z</time>
      </trkpt>
      <trkpt lat="47.8109" lon="-3.67283">
        <ele>47</ele>
        <time>2018-07-18T10:49:18Z</time>
      </trkpt>
      <trkpt lat="47.81091" lon="-3.67283">
        <ele>47</ele>
        <time>2018-07-18T10:49:19Z</time>
      </trkpt>
      <trkpt lat="47.81091" lon="-3.67283">
        <ele>47</ele>
        <time>2018-07-18T10:49:20Z</time>
      </trkpt>
      <trkpt lat="47.81094" lon="-3.67286">
        <ele>48</ele>
        <time>2018-07-18T10:49:21Z</time>
      </trkpt>
      <trkpt lat="47.81094" lon="-3.6729">
        <ele>47</ele>
        <time>2018-07-18T10:49:22Z</time>
      </trkpt>
      <trkpt lat="47.81094" lon="-3.67295">
        <ele>47</ele>
        <time>2018-07-18T10:49:23Z</time>
      </trkpt>
      <trkpt lat="47.81094" lon="-3.673">
        <ele>47</ele>
        <time>2018-07-18T10:49:24Z</time>
      </trkpt>
      <trkpt lat="47.81093" lon="-3.67305">
        <ele>47</ele>
        <time>2018-07-18T10:49:25Z</time>
      </trkpt>
      <trkpt lat="47.81092" lon="-3.67311">
        <ele>47</ele>
        <time>2018-07-18T10:49:26Z</time>
      </trkpt>
      <trkpt lat="47.81091" lon="-3.67317">
        <ele>47</ele>
        <time>2018-07-18T10:49:27Z</time>
      </trkpt>
      <trkpt lat="47.8109" lon="-3.67324">
        <ele>47</ele>
        <time>2018-07-18T10:49:28Z</time>
      </trkpt>
      <trkpt lat="47.8109" lon="-3.67329">
        <ele>47</ele>
        <time>2018-07-18T10:49:29Z</time>
      </trkpt>
      <trkpt lat="47.81088" lon="-3.67336">
        <ele>47</ele>
        <time>2018-07-18T10:49:30Z</time>
      </trkpt>
      <trkpt lat="47.81087" lon="-3.67342">
        <ele>47</ele>
        <time>2018-07-18T10:49:31Z</time>
      </trkpt>
      <trkpt lat="47.81085" lon="-3.67348">
        <ele>47</ele>
        <time>2018-07-18T10:49:32Z</time>
      </trkpt>
      <trkpt lat="47.81084" lon="-3.67355">
        <ele>47</ele>
        <time>2018-07-18T10:49:33Z</time>
      </trkpt>
      <trkpt lat="47.81083" lon="-3.67361">
        <ele>48</ele>
        <time>2018-07-18T10:49:34Z</time>
      </trkpt>
      <trkpt lat="47.81082" lon="-3.67368">
        <ele>48</ele>
        <time>2018-07-18T10:49:35Z</time>
      </trkpt>
      <trkpt lat="47.81081" lon="-3.67374">
        <ele>48</ele>
        <time>2018-07-18T10:49:36Z</time>
      </trkpt>
      <trkpt lat="47.81081" lon="-3.67381">
        <ele>48</ele>
        <time>2018-07-18T10:49:37Z</time>
      </trkpt>
      <trkpt lat="47.81081" lon="-3.67387">
        <ele>48</ele>
        <time>2018-07-18T10:49:38Z</time>
      </trkpt>
      <trkpt lat="47.81082" lon="-3.67391">
        <ele>48</ele>
        <time>2018-07-18T10:49:39Z</time>
      </trkpt>
      <trkpt lat="47.81085" lon="-3.67392">
        <ele>48</ele>
        <time>2018-07-18T10:49:40Z</time>
      </trkpt>
      <trkpt lat="47.81089" lon="-3.67393">
        <ele>48</ele>
        <time>2018-07-18T10:49:41Z</time>
      </trkpt>
      <trkpt lat="47.81094" lon="-3.67393">
        <ele>48</ele>
        <time>2018-07-18T10:49:42Z</time>
      </trkpt>
      <trkpt lat="47.81098" lon="-3.67392">
        <ele>48</ele>
        <time>2018-07-18T10:49:43Z</time>
      </trkpt>
      <trkpt lat="47.81103" lon="-3.67392">
        <ele>48</ele>
        <time>2018-07-18T10:49:44Z</time>
      </trkpt>
      <trkpt lat="47.81107" lon="-3.67392">
        <ele>48</ele>
        <time>2018-07-18T10:49:45Z</time>
      </trkpt>
      <trkpt lat="47.81111" lon="-3.67391">
        <ele>48</ele>
        <time>2018-07-18T10:49:46Z</time>
      </trkpt>
      <trkpt lat="47.81116" lon="-3.67391">
        <ele>48</ele>
        <time>2018-07-18T10:49:47Z</time>
      </trkpt>
      <trkpt lat="47.8112" lon="-3.67391">
        <ele>49</ele>
        <time>2018-07-18T10:49:48Z</time>
      </trkpt>
      <trkpt lat="47.81124" lon="-3.67391">
        <ele>49</ele>
        <time>2018-07-18T10:49:49Z</time>
      </trkpt>
      <trkpt lat="47.81128" lon="-3.67391">
        <ele>49</ele>
        <time>2018-07-18T10:49:50Z</time>
      </trkpt>
      <trkpt lat="47.81133" lon="-3.67392">
        <ele>49</ele>
        <time>2018-07-18T10:49:51Z</time>
      </trkpt>
      <trkpt lat="47.81137" lon="-3.67393">
        <ele>49</ele>
        <time>2018-07-18T10:49:52Z</time>
      </trkpt>
      <trkpt lat="47.81141" lon="-3.67395">
        <ele>49</ele>
        <time>2018-07-18T10:49:53Z</time>
      </trkpt>
      <trkpt lat="47.81145" lon="-3.67399">
        <ele>49</ele>
        <time>2018-07-18T10:49:54Z</time>
      </trkpt>
      <trkpt lat="47.8115" lon="-3.67402">
        <ele>49</ele>
        <time>2018-07-18T10:49:55Z</time>
      </trkpt>
      <trkpt lat="47.81155" lon="-3.67406">
        <ele>49</ele>
        <time>2018-07-18T10:49:56Z</time>
      </trkpt>
      <trkpt lat="47.8116" lon="-3.6741">
        <ele>49</ele>
        <time>2018-07-18T10:49:57Z</time>
      </trkpt>
      <trkpt lat="47.81165" lon="-3.67413">
        <ele>49</ele>
        <time>2018-07-18T10:49:58Z</time>
      </trkpt>
      <trkpt lat="47.8117" lon="-3.67417">
        <ele>49</ele>
        <time>2018-07-18T10:49:59Z</time>
      </trkpt>
      <trkpt lat="47.81175" lon="-3.6742">
        <ele>48</ele>
        <time>2018-07-18T10:50:00Z</time>
      </trkpt>
      <trkpt lat="47.8118" lon="-3.67424">
        <ele>48</ele>
        <time>2018-07-18T10:50:01Z</time>
      </trkpt>
      <trkpt lat="47.81184" lon="-3.67427">
        <ele>48</ele>
        <time>2018-07-18T10:50:02Z</time>
      </trkpt>
      <trkpt lat="47.81189" lon="-3.67431">
        <ele>48</ele>
        <time>2018-07-18T10:50:03Z</time>
      </trkpt>
      <trkpt lat="47.81194" lon="-3.67436">
        <ele>48</ele>
        <time>2018-07-18T10:50:04Z</time>
      </trkpt>
      <trkpt lat="47.81198" lon="-3.6744">
        <ele>48</ele>
        <time>2018-07-18T10:50:05Z</time>
      </trkpt>
      <trkpt lat="47.81202" lon="-3.67445">
        <ele>48</ele>
        <time>2018-07-18T10:50:06Z</time>
      </trkpt>
      <trkpt lat="47.81206" lon="-3.67449">
        <ele>48</ele>
        <time>2018-07-18T10:50:07Z</time>
      </trkpt>
      <trkpt lat="47.81208" lon="-3.67453">
        <ele>48</ele>
        <time>2018-07-18T10:50:08Z</time>
      </trkpt>
      <trkpt lat="47.8121" lon="-3.67458">
        <ele>47</ele>
        <time>2018-07-18T10:50:09Z</time>
      </trkpt>
      <trkpt lat="47.81211" lon="-3.67462">
        <ele>47</ele>
        <time>2018-07-18T10:50:10Z</time>
      </trkpt>
      <trkpt lat="47.81211" lon="-3.67467">
        <ele>47</ele>
        <time>2018-07-18T10:50:11Z</time>
      </trkpt>
      <trkpt lat="47.81209" lon="-3.67472">
        <ele>47</ele>
        <time>2018-07-18T10:50:12Z</time>
      </trkpt>
      <trkpt lat="47.81208" lon="-3.67477">
        <ele>46</ele>
        <time>2018-07-18T10:50:13Z</time>
      </trkpt>
      <trkpt lat="47.81206" lon="-3.67484">
        <ele>46</ele>
        <time>2018-07-18T10:50:14Z</time>
      </trkpt>
      <trkpt lat="47.81204" lon="-3.67491">
        <ele>46</ele>
        <time>2018-07-18T10:50:15Z</time>
      </trkpt>
      <trkpt lat="47.81202" lon="-3.67498">
        <ele>46</ele>
        <time>2018-07-18T10:50:16Z</time>
      </trkpt>
      <trkpt lat="47.81199" lon="-3.67506">
        <ele>45</ele>
        <time>2018-07-18T10:50:17Z</time>
      </trkpt>
      <trkpt lat="47.81197" lon="-3.67513">
        <ele>45</ele>
        <time>2018-07-18T10:50:18Z</time>
      </trkpt>
      <trkpt lat="47.81194" lon="-3.67521">
        <ele>45</ele>
        <time>2018-07-18T10:50:19Z</time>
      </trkpt>
      <trkpt lat="47.81192" lon="-3.67528">
        <ele>45</ele>
        <time>2018-07-18T10:50:20Z</time>
      </trkpt>
      <trkpt lat="47.8119" lon="-3.67536">
        <ele>45</ele>
        <time>2018-07-18T10:50:21Z</time>
      </trkpt>
      <trkpt lat="47.81187" lon="-3.67544">
        <ele>44</ele>
        <time>2018-07-18T10:50:22Z</time>
      </trkpt>
      <trkpt lat="47.81186" lon="-3.67552">
        <ele>44</ele>
        <time>2018-07-18T10:50:23Z</time>
      </trkpt>
      <trkpt lat="47.81184" lon="-3.67559">
        <ele>44</ele>
        <time>2018-07-18T10:50:24Z</time>
      </trkpt>
      <trkpt lat="47.81182" lon="-3.67567">
        <ele>44</ele>
        <time>2018-07-18T10:50:25Z</time>
      </trkpt>
      <trkpt lat="47.8118" lon="-3.67574">
        <ele>44</ele>
        <time>2018-07-18T10:50:26Z</time>
      </trkpt>
      <trkpt lat="47.81179" lon="-3.67581">
        <ele>44</ele>
        <time>2018-07-18T10:50:27Z</time>
      </trkpt>
      <trkpt lat="47.81177" lon="-3.67587">
        <ele>44</ele>
        <time>2018-07-18T10:50:28Z</time>
      </trkpt>
      <trkpt lat="47.81176" lon="-3.67594">
        <ele>44</ele>
        <time>2018-07-18T10:50:29Z</time>
      </trkpt>
      <trkpt lat="47.81176" lon="-3.67601">
        <ele>44</ele>
        <time>2018-07-18T10:50:30Z</time>
      </trkpt>
      <trkpt lat="47.81174" lon="-3.67609">
        <ele>44</ele>
        <time>2018-07-18T10:50:31Z</time>
      </trkpt>
      <trkpt lat="47.81173" lon="-3.67617">
        <ele>44</ele>
        <time>2018-07-18T10:50:32Z</time>
      </trkpt>
      <trkpt lat="47.81172" lon="-3.67624">
        <ele>44</ele>
        <time>2018-07-18T10:50:33Z</time>
      </trkpt>
      <trkpt lat="47.81171" lon="-3.67631">
        <ele>44</ele>
        <time>2018-07-18T10:50:34Z</time>
      </trkpt>
      <trkpt lat="47.81172" lon="-3.67637">
        <ele>45</ele>
        <time>2018-07-18T10:50:35Z</time>
      </trkpt>
      <trkpt lat="47.81173" lon="-3.6764">
        <ele>45</ele>
        <time>2018-07-18T10:50:36Z</time>
      </trkpt>
      <trkpt lat="47.81174" lon="-3.67642">
        <ele>45</ele>
        <time>2018-07-18T10:50:37Z</time>
      </trkpt>
      <trkpt lat="47.81174" lon="-3.67643">
        <ele>45</ele>
        <time>2018-07-18T10:50:38Z</time>
      </trkpt>
      <trkpt lat="47.81173" lon="-3.67643">
        <ele>45</ele>
        <time>2018-07-18T10:50:39Z</time>
      </trkpt>
      <trkpt lat="47.81172" lon="-3.67642">
        <ele>45</ele>
        <time>2018-07-18T10:50:40Z</time>
      </trkpt>
      <trkpt lat="47.81172" lon="-3.67638">
        <ele>46</ele>
        <time>2018-07-18T10:50:41Z</time>
      </trkpt>
      <trkpt lat="47.81172" lon="-3.67634">
        <ele>46</ele>
        <time>2018-07-18T10:50:42Z</time>
      </trkpt>
      <trkpt lat="47.81173" lon="-3.67628">
        <ele>46</ele>
        <time>2018-07-18T10:50:43Z</time>
      </trkpt>
      <trkpt lat="47.81174" lon="-3.67623">
        <ele>46</ele>
        <time>2018-07-18T10:50:44Z</time>
      </trkpt>
      <trkpt lat="47.81174" lon="-3.67617">
        <ele>46</ele>
        <time>2018-07-18T10:50:45Z</time>
      </trkpt>
      <trkpt lat="47.81176" lon="-3.67612">
        <ele>46</ele>
        <time>2018-07-18T10:50:46Z</time>
      </trkpt>
      <trkpt lat="47.81176" lon="-3.67606">
        <ele>46</ele>
        <time>2018-07-18T10:50:47Z</time>
      </trkpt>
      <trkpt lat="47.81177" lon="-3.67601">
        <ele>46</ele>
        <time>2018-07-18T10:50:48Z</time>
      </trkpt>
      <trkpt lat="47.81177" lon="-3.67595">
        <ele>46</ele>
        <time>2018-07-18T10:50:49Z</time>
      </trkpt>
      <trkpt lat="47.81178" lon="-3.6759">
        <ele>46</ele>
        <time>2018-07-18T10:50:50Z</time>
      </trkpt>
      <trkpt lat="47.81179" lon="-3.67585">
        <ele>46</ele>
        <time>2018-07-18T10:50:51Z</time>
      </trkpt>
      <trkpt lat="47.81181" lon="-3.67579">
        <ele>46</ele>
        <time>2018-07-18T10:50:52Z</time>
      </trkpt>
      <trkpt lat="47.81182" lon="-3.67573">
        <ele>46</ele>
        <time>2018-07-18T10:50:53Z</time>
      </trkpt>
      <trkpt lat="47.81184" lon="-3.67567">
        <ele>46</ele>
        <time>2018-07-18T10:50:54Z</time>
      </trkpt>
      <trkpt lat="47.81186" lon="-3.67561">
        <ele>46</ele>
        <time>2018-07-18T10:50:55Z</time>
      </trkpt>
      <trkpt lat="47.81188" lon="-3.67555">
        <ele>46</ele>
        <time>2018-07-18T10:50:56Z</time>
      </trkpt>
      <trkpt lat="47.8119" lon="-3.67548">
        <ele>46</ele>
        <time>2018-07-18T10:50:57Z</time>
      </trkpt>
      <trkpt lat="47.81192" lon="-3.67542">
        <ele>46</ele>
        <time>2018-07-18T10:50:58Z</time>
      </trkpt>
      <trkpt lat="47.81194" lon="-3.67535">
        <ele>46</ele>
        <time>2018-07-18T10:50:59Z</time>
      </trkpt>
      <trkpt lat="47.81196" lon="-3.67528">
        <ele>46</ele>
        <time>2018-07-18T10:51:00Z</time>
      </trkpt>
      <trkpt lat="47.81198" lon="-3.67522">
        <ele>46</ele>
        <time>2018-07-18T10:51:01Z</time>
      </trkpt>
      <trkpt lat="47.81201" lon="-3.67515">
        <ele>46</ele>
        <time>2018-07-18T10:51:02Z</time>
      </trkpt>
      <trkpt lat="47.81203" lon="-3.67509">
        <ele>46</ele>
        <time>2018-07-18T10:51:03Z</time>
      </trkpt>
      <trkpt lat="47.81206" lon="-3.67502">
        <ele>46</ele>
        <time>2018-07-18T10:51:04Z</time>
      </trkpt>
      <trkpt lat="47.81208" lon="-3.67495">
        <ele>46</ele>
        <time>2018-07-18T10:51:05Z</time>
      </trkpt>
      <trkpt lat="47.81209" lon="-3.67488">
        <ele>46</ele>
        <time>2018-07-18T10:51:06Z</time>
      </trkpt>
      <trkpt lat="47.81212" lon="-3.67482">
        <ele>46</ele>
        <time>2018-07-18T10:51:07Z</time>
      </trkpt>
      <trkpt lat="47.81214" lon="-3.67476">
        <ele>46</ele>
        <time>2018-07-18T10:51:08Z</time>
      </trkpt>
      <trkpt lat="47.81216" lon="-3.6747">
        <ele>46</ele>
        <time>2018-07-18T10:51:09Z</time>
      </trkpt>
      <trkpt lat="47.81218" lon="-3.67465">
        <ele>46</ele>
        <time>2018-07-18T10:51:10Z</time>
      </trkpt>
      <trkpt lat="47.8122" lon="-3.6746">
        <ele>46</ele>
        <time>2018-07-18T10:51:11Z</time>
      </trkpt>
      <trkpt lat="47.81222" lon="-3.67455">
        <ele>47</ele>
        <time>2018-07-18T10:51:12Z</time>
      </trkpt>
      <trkpt lat="47.81225" lon="-3.6745">
        <ele>47</ele>
        <time>2018-07-18T10:51:13Z</time>
      </trkpt>
      <trkpt lat="47.81227" lon="-3.67444">
        <ele>47</ele>
        <time>2018-07-18T10:51:14Z</time>
      </trkpt>
      <trkpt lat="47.81229" lon="-3.67439">
        <ele>47</ele>
        <time>2018-07-18T10:51:15Z</time>
      </trkpt>
      <trkpt lat="47.8123" lon="-3.67433">
        <ele>47</ele>
        <time>2018-07-18T10:51:16Z</time>
      </trkpt>
      <trkpt lat="47.81232" lon="-3.67428">
        <ele>47</ele>
        <time>2018-07-18T10:51:17Z</time>
      </trkpt>
      <trkpt lat="47.81235" lon="-3.67423">
        <ele>47</ele>
        <time>2018-07-18T10:51:18Z</time>
      </trkpt>
      <trkpt lat="47.81237" lon="-3.67421">
        <ele>48</ele>
        <time>2018-07-18T10:51:19Z</time>
      </trkpt>
      <trkpt lat="47.81241" lon="-3.67421">
        <ele>48</ele>
        <time>2018-07-18T10:51:20Z</time>
      </trkpt>
      <trkpt lat="47.81245" lon="-3.67423">
        <ele>47</ele>
        <time>2018-07-18T10:51:21Z</time>
      </trkpt>
      <trkpt lat="47.81249" lon="-3.67427">
        <ele>47</ele>
        <time>2018-07-18T10:51:22Z</time>
      </trkpt>
      <trkpt lat="47.81253" lon="-3.67431">
        <ele>47</ele>
        <time>2018-07-18T10:51:23Z</time>
      </trkpt>
      <trkpt lat="47.81258" lon="-3.67436">
        <ele>47</ele>
        <time>2018-07-18T10:51:24Z</time>
      </trkpt>
      <trkpt lat="47.81262" lon="-3.67441">
        <ele>46</ele>
        <time>2018-07-18T10:51:25Z</time>
      </trkpt>
      <trkpt lat="47.81266" lon="-3.67446">
        <ele>46</ele>
        <time>2018-07-18T10:51:26Z</time>
      </trkpt>
      <trkpt lat="47.81271" lon="-3.67452">
        <ele>46</ele>
        <time>2018-07-18T10:51:27Z</time>
      </trkpt>
      <trkpt lat="47.81276" lon="-3.67457">
        <ele>46</ele>
        <time>2018-07-18T10:51:28Z</time>
      </trkpt>
      <trkpt lat="47.81281" lon="-3.67463">
        <ele>45</ele>
        <time>2018-07-18T10:51:29Z</time>
      </trkpt>
      <trkpt lat="47.81286" lon="-3.67469">
        <ele>45</ele>
        <time>2018-07-18T10:51:30Z</time>
      </trkpt>
      <trkpt lat="47.81291" lon="-3.67475">
        <ele>45</ele>
        <time>2018-07-18T10:51:31Z</time>
      </trkpt>
      <trkpt lat="47.81296" lon="-3.67481">
        <ele>45</ele>
        <time>2018-07-18T10:51:32Z</time>
      </trkpt>
      <trkpt lat="47.813" lon="-3.67486">
        <ele>45</ele>
        <time>2018-07-18T10:51:33Z</time>
      </trkpt>
      <trkpt lat="47.81303" lon="-3.67492">
        <ele>45</ele>
        <time>2018-07-18T10:51:34Z</time>
      </trkpt>
      <trkpt lat="47.81307" lon="-3.67496">
        <ele>44</ele>
        <time>2018-07-18T10:51:35Z</time>
      </trkpt>
      <trkpt lat="47.81312" lon="-3.67499">
        <ele>45</ele>
        <time>2018-07-18T10:51:36Z</time>
      </trkpt>
      <trkpt lat="47.81316" lon="-3.67501">
        <ele>45</ele>
        <time>2018-07-18T10:51:37Z</time>
      </trkpt>
      <trkpt lat="47.8132" lon="-3.67502">
        <ele>45</ele>
        <time>2018-07-18T10:51:38Z</time>
      </trkpt>
      <trkpt lat="47.81325" lon="-3.67502">
        <ele>45</ele>
        <time>2018-07-18T10:51:39Z</time>
      </trkpt>
      <trkpt lat="47.8133" lon="-3.67502">
        <ele>45</ele>
        <time>2018-07-18T10:51:40Z</time>
      </trkpt>
      <trkpt lat="47.81336" lon="-3.67501">
        <ele>45</ele>
        <time>2018-07-18T10:51:41Z</time>
      </trkpt>
      <trkpt lat="47.81341" lon="-3.67499">
        <ele>45</ele>
        <time>2018-07-18T10:51:42Z</time>
      </trkpt>
      <trkpt lat="47.81346" lon="-3.67497">
        <ele>45</ele>
        <time>2018-07-18T10:51:43Z</time>
      </trkpt>
      <trkpt lat="47.81351" lon="-3.67495">
        <ele>45</ele>
        <time>2018-07-18T10:51:44Z</time>
      </trkpt>
      <trkpt lat="47.81356" lon="-3.67493">
        <ele>45</ele>
        <time>2018-07-18T10:51:45Z</time>
      </trkpt>
      <trkpt lat="47.8136" lon="-3.67492">
        <ele>45</ele>
        <time>2018-07-18T10:51:46Z</time>
      </trkpt>
      <trkpt lat="47.81364" lon="-3.67491">
        <ele>45</ele>
        <time>2018-07-18T10:51:47Z</time>
      </trkpt>
      <trkpt lat="47.81369" lon="-3.67491">
        <ele>45</ele>
        <time>2018-07-18T10:51:48Z</time>
      </trkpt>
      <trkpt lat="47.81373" lon="-3.67491">
        <ele>45</ele>
        <time>2018-07-18T10:51:49Z</time>
      </trkpt>
      <trkpt lat="47.81377" lon="-3.67491">
        <ele>45</ele>
        <time>2018-07-18T10:51:50Z</time>
      </trkpt>
      <trkpt lat="47.81381" lon="-3.67491">
        <ele>45</ele>
        <time>2018-07-18T10:51:51Z</time>
      </trkpt>
      <trkpt lat="47.81385" lon="-3.6749">
        <ele>45</ele>
        <time>2018-07-18T10:51:52Z</time>
      </trkpt>
      <trkpt lat="47.81389" lon="-3.67488">
        <ele>45</ele>
        <time>2018-07-18T10:51:53Z</time>
      </trkpt>
      <trkpt lat="47.81392" lon="-3.67485">
        <ele>46</ele>
        <time>2018-07-18T10:51:54Z</time>
      </trkpt>
      <trkpt lat="47.81395" lon="-3.6748">
        <ele>46</ele>
        <time>2018-07-18T10:51:55Z</time>
      </trkpt>
      <trkpt lat="47.81397" lon="-3.67475">
        <ele>46</ele>
        <time>2018-07-18T10:51:56Z</time>
      </trkpt>
      <trkpt lat="47.814" lon="-3.67468">
        <ele>46</ele>
        <time>2018-07-18T10:51:57Z</time>
      </trkpt>
      <trkpt lat="47.81403" lon="-3.6746">
        <ele>46</ele>
        <time>2018-07-18T10:51:58Z</time>
      </trkpt>
      <trkpt lat="47.81406" lon="-3.67452">
        <ele>46</ele>
        <time>2018-07-18T10:51:59Z</time>
      </trkpt>
      <trkpt lat="47.81409" lon="-3.67445">
        <ele>46</ele>
        <time>2018-07-18T10:52:00Z</time>
      </trkpt>
      <trkpt lat="47.81412" lon="-3.67438">
        <ele>45</ele>
        <time>2018-07-18T10:52:01Z</time>
      </trkpt>
      <trkpt lat="47.81414" lon="-3.67431">
        <ele>45</ele>
        <time>2018-07-18T10:52:02Z</time>
      </trkpt>
      <trkpt lat="47.81417" lon="-3.67424">
        <ele>45</ele>
        <time>2018-07-18T10:52:03Z</time>
      </trkpt>
      <trkpt lat="47.81419" lon="-3.67418">
        <ele>45</ele>
        <time>2018-07-18T10:52:04Z</time>
      </trkpt>
      <trkpt lat="47.81422" lon="-3.67414">
        <ele>44</ele>
        <time>2018-07-18T10:52:05Z</time>
      </trkpt>
      <trkpt lat="47.81424" lon="-3.67409">
        <ele>44</ele>
        <time>2018-07-18T10:52:06Z</time>
      </trkpt>
      <trkpt lat="47.81428" lon="-3.67404">
        <ele>44</ele>
        <time>2018-07-18T10:52:07Z</time>
      </trkpt>
      <trkpt lat="47.81431" lon="-3.67398">
        <ele>44</ele>
        <time>2018-07-18T10:52:08Z</time>
      </trkpt>
      <trkpt lat="47.81435" lon="-3.67392">
        <ele>44</ele>
        <time>2018-07-18T10:52:09Z</time>
      </trkpt>
      <trkpt lat="47.81439" lon="-3.67387">
        <ele>44</ele>
        <time>2018-07-18T10:52:10Z</time>
      </trkpt>
      <trkpt lat="47.81444" lon="-3.67382">
        <ele>44</ele>
        <time>2018-07-18T10:52:11Z</time>
      </trkpt>
      <trkpt lat="47.81449" lon="-3.67378">
        <ele>44</ele>
        <time>2018-07-18T10:52:12Z</time>
      </trkpt>
      <trkpt lat="47.81454" lon="-3.67374">
        <ele>44</ele>
        <time>2018-07-18T10:52:13Z</time>
      </trkpt>
      <trkpt lat="47.81459" lon="-3.6737">
        <ele>44</ele>
        <time>2018-07-18T10:52:14Z</time>
      </trkpt>
      <trkpt lat="47.81463" lon="-3.67367">
        <ele>44</ele>
        <time>2018-07-18T10:52:15Z</time>
      </trkpt>
      <trkpt lat="47.81467" lon="-3.67363">
        <ele>44</ele>
        <time>2018-07-18T10:52:16Z</time>
      </trkpt>
      <trkpt lat="47.8147" lon="-3.6736">
        <ele>44</ele>
        <time>2018-07-18T10:52:17Z</time>
      </trkpt>
      <trkpt lat="47.81473" lon="-3.67355">
        <ele>44</ele>
        <time>2018-07-18T10:52:18Z</time>
      </trkpt>
      <trkpt lat="47.81475" lon="-3.6735">
        <ele>44</ele>
        <time>2018-07-18T10:52:19Z</time>
      </trkpt>
      <trkpt lat="47.81479" lon="-3.67346">
        <ele>44</ele>
        <time>2018-07-18T10:52:20Z</time>
      </trkpt>
      <trkpt lat="47.81484" lon="-3.67343">
        <ele>44</ele>
        <time>2018-07-18T10:52:21Z</time>
      </trkpt>
      <trkpt lat="47.81488" lon="-3.67342">
        <ele>44</ele>
        <time>2018-07-18T10:52:22Z</time>
      </trkpt>
      <trkpt lat="47.81494" lon="-3.67342">
        <ele>44</ele>
        <time>2018-07-18T10:52:23Z</time>
      </trkpt>
      <trkpt lat="47.81499" lon="-3.67342">
        <ele>44</ele>
        <time>2018-07-18T10:52:24Z</time>
      </trkpt>
      <trkpt lat="47.81504" lon="-3.67343">
        <ele>44</ele>
        <time>2018-07-18T10:52:25Z</time>
      </trkpt>
      <trkpt lat="47.81509" lon="-3.67345">
        <ele>44</ele>
        <time>2018-07-18T10:52:26Z</time>
      </trkpt>
      <trkpt lat="47.81515" lon="-3.67346">
        <ele>44</ele>
        <time>2018-07-18T10:52:27Z</time>
      </trkpt>
      <trkpt lat="47.81521" lon="-3.67347">
        <ele>44</ele>
        <time>2018-07-18T10:52:28Z</time>
      </trkpt>
      <trkpt lat="47.81527" lon="-3.67349">
        <ele>44</ele>
        <time>2018-07-18T10:52:29Z</time>
      </trkpt>
      <trkpt lat="47.81533" lon="-3.6735">
        <ele>45</ele>
        <time>2018-07-18T10:52:30Z</time>
      </trkpt>
      <trkpt lat="47.81538" lon="-3.67352">
        <ele>45</ele>
        <time>2018-07-18T10:52:31Z</time>
      </trkpt>
      <trkpt lat="47.81544" lon="-3.67354">
        <ele>45</ele>
        <time>2018-07-18T10:52:32Z</time>
      </trkpt>
      <trkpt lat="47.8155" lon="-3.67355">
        <ele>45</ele>
        <time>2018-07-18T10:52:33Z</time>
      </trkpt>
      <trkpt lat="47.81556" lon="-3.67356">
        <ele>45</ele>
        <time>2018-07-18T10:52:34Z</time>
      </trkpt>
      <trkpt lat="47.81562" lon="-3.67358">
        <ele>45</ele>
        <time>2018-07-18T10:52:35Z</time>
      </trkpt>
      <trkpt lat="47.81567" lon="-3.67359">
        <ele>45</ele>
        <time>2018-07-18T10:52:36Z</time>
      </trkpt>
      <trkpt lat="47.81573" lon="-3.6736">
        <ele>45</ele>
        <time>2018-07-18T10:52:37Z</time>
      </trkpt>
      <trkpt lat="47.81579" lon="-3.67361">
        <ele>45</ele>
        <time>2018-07-18T10:52:38Z</time>
      </trkpt>
      <trkpt lat="47.81584" lon="-3.67363">
        <ele>45</ele>
        <time>2018-07-18T10:52:39Z</time>
      </trkpt>
      <trkpt lat="47.8159" lon="-3.67364">
        <ele>45</ele>
        <time>2018-07-18T10:52:40Z</time>
      </trkpt>
      <trkpt lat="47.81596" lon="-3.67365">
        <ele>45</ele>
        <time>2018-07-18T10:52:41Z</time>
      </trkpt>
      <trkpt lat="47.81601" lon="-3.67367">
        <ele>45</ele>
        <time>2018-07-18T10:52:42Z</time>
      </trkpt>
      <trkpt lat="47.81606" lon="-3.67369">
        <ele>45</ele>
        <time>2018-07-18T10:52:43Z</time>
      </trkpt>
      <trkpt lat="47.81612" lon="-3.6737">
        <ele>46</ele>
        <time>2018-07-18T10:52:44Z</time>
      </trkpt>
      <trkpt lat="47.81617" lon="-3.67371">
        <ele>46</ele>
        <time>2018-07-18T10:52:45Z</time>
      </trkpt>
      <trkpt lat="47.81622" lon="-3.67373">
        <ele>46</ele>
        <time>2018-07-18T10:52:46Z</time>
      </trkpt>
      <trkpt lat="47.81627" lon="-3.67374">
        <ele>46</ele>
        <time>2018-07-18T10:52:47Z</time>
      </trkpt>
      <trkpt lat="47.81632" lon="-3.67375">
        <ele>46</ele>
        <time>2018-07-18T10:52:48Z</time>
      </trkpt>
      <trkpt lat="47.81637" lon="-3.67376">
        <ele>46</ele>
        <time>2018-07-18T10:52:49Z</time>
      </trkpt>
      <trkpt lat="47.81642" lon="-3.67378">
        <ele>46</ele>
        <time>2018-07-18T10:52:50Z</time>
      </trkpt>
      <trkpt lat="47.81647" lon="-3.67379">
        <ele>46</ele>
        <time>2018-07-18T10:52:51Z</time>
      </trkpt>
      <trkpt lat="47.81652" lon="-3.6738">
        <ele>46</ele>
        <time>2018-07-18T10:52:52Z</time>
      </trkpt>
      <trkpt lat="47.81657" lon="-3.67381">
        <ele>46</ele>
        <time>2018-07-18T10:52:53Z</time>
      </trkpt>
      <trkpt lat="47.81662" lon="-3.67382">
        <ele>46</ele>
        <time>2018-07-18T10:52:54Z</time>
      </trkpt>
      <trkpt lat="47.81667" lon="-3.67383">
        <ele>46</ele>
        <time>2018-07-18T10:52:55Z</time>
      </trkpt>
      <trkpt lat="47.81672" lon="-3.67383">
        <ele>46</ele>
        <time>2018-07-18T10:52:56Z</time>
      </trkpt>
      <trkpt lat="47.81677" lon="-3.67383">
        <ele>47</ele>
        <time>2018-07-18T10:52:57Z</time>
      </trkpt>
      <trkpt lat="47.81682" lon="-3.67383">
        <ele>47</ele>
        <time>2018-07-18T10:52:58Z</time>
      </trkpt>
      <trkpt lat="47.81688" lon="-3.67383">
        <ele>47</ele>
        <time>2018-07-18T10:52:59Z</time>
      </trkpt>
      <trkpt lat="47.81693" lon="-3.67383">
        <ele>47</ele>
        <time>2018-07-18T10:53:00Z</time>
      </trkpt>
      <trkpt lat="47.81698" lon="-3.67384">
        <ele>47</ele>
        <time>2018-07-18T10:53:01Z</time>
      </trkpt>
      <trkpt lat="47.81704" lon="-3.67383">
        <ele>47</ele>
        <time>2018-07-18T10:53:02Z</time>
      </trkpt>
      <trkpt lat="47.81709" lon="-3.67383">
        <ele>47</ele>
        <time>2018-07-18T10:53:03Z</time>
      </trkpt>
      <trkpt lat="47.81715" lon="-3.67384">
        <ele>47</ele>
        <time>2018-07-18T10:53:04Z</time>
      </trkpt>
      <trkpt lat="47.8172" lon="-3.67384">
        <ele>48</ele>
        <time>2018-07-18T10:53:05Z</time>
      </trkpt>
      <trkpt lat="47.81725" lon="-3.67384">
        <ele>48</ele>
        <time>2018-07-18T10:53:06Z</time>
      </trkpt>
      <trkpt lat="47.81731" lon="-3.67384">
        <ele>48</ele>
        <time>2018-07-18T10:53:07Z</time>
      </trkpt>
      <trkpt lat="47.81736" lon="-3.67383">
        <ele>48</ele>
        <time>2018-07-18T10:53:08Z</time>
      </trkpt>
      <trkpt lat="47.81742" lon="-3.67383">
        <ele>48</ele>
        <time>2018-07-18T10:53:09Z</time>
      </trkpt>
      <trkpt lat="47.81747" lon="-3.67383">
        <ele>48</ele>
        <time>2018-07-18T10:53:10Z</time>
      </trkpt>
      <trkpt lat="47.81753" lon="-3.67382">
        <ele>48</ele>
        <time>2018-07-18T10:53:11Z</time>
      </trkpt>
      <trkpt lat="47.81758" lon="-3.67382">
        <ele>48</ele>
        <time>2018-07-18T10:53:12Z</time>
      </trkpt>
      <trkpt lat="47.81764" lon="-3.67382">
        <ele>48</ele>
        <time>2018-07-18T10:53:13Z</time>
      </trkpt>
      <trkpt lat="47.81769" lon="-3.67382">
        <ele>48</ele>
        <time>2018-07-18T10:53:14Z</time>
      </trkpt>
      <trkpt lat="47.81774" lon="-3.67381">
        <ele>48</ele>
        <time>2018-07-18T10:53:15Z</time>
      </trkpt>
      <trkpt lat="47.81779" lon="-3.67381">
        <ele>48</ele>
        <time>2018-07-18T10:53:16Z</time>
      </trkpt>
      <trkpt lat="47.81784" lon="-3.67381">
        <ele>48</ele>
        <time>2018-07-18T10:53:17Z</time>
      </trkpt>
      <trkpt lat="47.81789" lon="-3.67381">
        <ele>47</ele>
        <time>2018-07-18T10:53:18Z</time>
      </trkpt>
      <trkpt lat="47.81795" lon="-3.6738">
        <ele>47</ele>
        <time>2018-07-18T10:53:19Z</time>
      </trkpt>
      <trkpt lat="47.818" lon="-3.6738">
        <ele>47</ele>
        <time>2018-07-18T10:53:20Z</time>
      </trkpt>
      <trkpt lat="47.81806" lon="-3.67379">
        <ele>47</ele>
        <time>2018-07-18T10:53:21Z</time>
      </trkpt>
      <trkpt lat="47.81811" lon="-3.67378">
        <ele>47</ele>
        <time>2018-07-18T10:53:22Z</time>
      </trkpt>
      <trkpt lat="47.81817" lon="-3.67376">
        <ele>47</ele>
        <time>2018-07-18T10:53:23Z</time>
      </trkpt>
      <trkpt lat="47.81822" lon="-3.67374">
        <ele>47</ele>
        <time>2018-07-18T10:53:24Z</time>
      </trkpt>
      <trkpt lat="47.81828" lon="-3.67371">
        <ele>47</ele>
        <time>2018-07-18T10:53:25Z</time>
      </trkpt>
      <trkpt lat="47.81833" lon="-3.67369">
        <ele>47</ele>
        <time>2018-07-18T10:53:26Z</time>
      </trkpt>
      <trkpt lat="47.81838" lon="-3.67366">
        <ele>47</ele>
        <time>2018-07-18T10:53:27Z</time>
      </trkpt>
      <trkpt lat="47.81843" lon="-3.67362">
        <ele>47</ele>
        <time>2018-07-18T10:53:28Z</time>
      </trkpt>
      <trkpt lat="47.81848" lon="-3.67359">
        <ele>47</ele>
        <time>2018-07-18T10:53:29Z</time>
      </trkpt>
      <trkpt lat="47.81853" lon="-3.67355">
        <ele>47</ele>
        <time>2018-07-18T10:53:30Z</time>
      </trkpt>
      <trkpt lat="47.81858" lon="-3.67351">
        <ele>47</ele>
        <time>2018-07-18T10:53:31Z</time>
      </trkpt>
      <trkpt lat="47.81863" lon="-3.67348">
        <ele>47</ele>
        <time>2018-07-18T10:53:32Z</time>
      </trkpt>
      <trkpt lat="47.81869" lon="-3.67347">
        <ele>46</ele>
        <time>2018-07-18T10:53:33Z</time>
      </trkpt>
      <trkpt lat="47.81875" lon="-3.67348">
        <ele>46</ele>
        <time>2018-07-18T10:53:34Z</time>
      </trkpt>
      <trkpt lat="47.8188" lon="-3.67349">
        <ele>46</ele>
        <time>2018-07-18T10:53:35Z</time>
      </trkpt>
      <trkpt lat="47.81885" lon="-3.67352">
        <ele>46</ele>
        <time>2018-07-18T10:53:36Z</time>
      </trkpt>
      <trkpt lat="47.8189" lon="-3.67356">
        <ele>46</ele>
        <time>2018-07-18T10:53:37Z</time>
      </trkpt>
      <trkpt lat="47.81894" lon="-3.67359">
        <ele>46</ele>
        <time>2018-07-18T10:53:38Z</time>
      </trkpt>
      <trkpt lat="47.81899" lon="-3.67362">
        <ele>46</ele>
        <time>2018-07-18T10:53:39Z</time>
      </trkpt>
      <trkpt lat="47.81903" lon="-3.67366">
        <ele>46</ele>
        <time>2018-07-18T10:53:40Z</time>
      </trkpt>
      <trkpt lat="47.81908" lon="-3.67369">
        <ele>46</ele>
        <time>2018-07-18T10:53:41Z</time>
      </trkpt>
      <trkpt lat="47.81912" lon="-3.67373">
        <ele>46</ele>
        <time>2018-07-18T10:53:42Z</time>
      </trkpt>
      <trkpt lat="47.81918" lon="-3.67376">
        <ele>46</ele>
        <time>2018-07-18T10:53:43Z</time>
      </trkpt>
      <trkpt lat="47.81923" lon="-3.67381">
        <ele>45</ele>
        <time>2018-07-18T10:53:44Z</time>
      </trkpt>
      <trkpt lat="47.81928" lon="-3.67384">
        <ele>45</ele>
        <time>2018-07-18T10:53:45Z</time>
      </trkpt>
      <trkpt lat="47.81934" lon="-3.67388">
        <ele>45</ele>
        <time>2018-07-18T10:53:46Z</time>
      </trkpt>
      <trkpt lat="47.8194" lon="-3.67392">
        <ele>45</ele>
        <time>2018-07-18T10:53:47Z</time>
      </trkpt>
      <trkpt lat="47.81946" lon="-3.67397">
        <ele>45</ele>
        <time>2018-07-18T10:53:48Z</time>
      </trkpt>
      <trkpt lat="47.81952" lon="-3.674">
        <ele>44</ele>
        <time>2018-07-18T10:53:49Z</time>
      </trkpt>
      <trkpt lat="47.81958" lon="-3.67404">
        <ele>44</ele>
        <time>2018-07-18T10:53:50Z</time>
      </trkpt>
      <trkpt lat="47.81964" lon="-3.67408">
        <ele>44</ele>
        <time>2018-07-18T10:53:51Z</time>
      </trkpt>
      <trkpt lat="47.8197" lon="-3.67412">
        <ele>44</ele>
        <time>2018-07-18T10:53:52Z</time>
      </trkpt>
      <trkpt lat="47.81977" lon="-3.67417">
        <ele>44</ele>
        <time>2018-07-18T10:53:53Z</time>
      </trkpt>
      <trkpt lat="47.81984" lon="-3.6742">
        <ele>44</ele>
        <time>2018-07-18T10:53:54Z</time>
      </trkpt>
      <trkpt lat="47.8199" lon="-3.67426">
        <ele>44</ele>
        <time>2018-07-18T10:53:55Z</time>
      </trkpt>
      <trkpt lat="47.81996" lon="-3.6743">
        <ele>44</ele>
        <time>2018-07-18T10:53:56Z</time>
      </trkpt>
      <trkpt lat="47.82002" lon="-3.67435">
        <ele>44</ele>
        <time>2018-07-18T10:53:57Z</time>
      </trkpt>
      <trkpt lat="47.82006" lon="-3.67439">
        <ele>44</ele>
        <time>2018-07-18T10:53:58Z</time>
      </trkpt>
      <trkpt lat="47.82009" lon="-3.67441">
        <ele>44</ele>
        <time>2018-07-18T10:53:59Z</time>
      </trkpt>
      <trkpt lat="47.82012" lon="-3.67442">
        <ele>43</ele>
        <time>2018-07-18T10:54:00Z</time>
      </trkpt>
      <trkpt lat="47.82013" lon="-3.67442">
        <ele>43</ele>
        <time>2018-07-18T10:54:01Z</time>
      </trkpt>
      <trkpt lat="47.82015" lon="-3.67444">
        <ele>43</ele>
        <time>2018-07-18T10:54:02Z</time>
      </trkpt>
      <trkpt lat="47.82016" lon="-3.67446">
        <ele>43</ele>
        <time>2018-07-18T10:54:03Z</time>
      </trkpt>
      <trkpt lat="47.82016" lon="-3.67448">
        <ele>43</ele>
        <time>2018-07-18T10:54:04Z</time>
      </trkpt>
      <trkpt lat="47.82016" lon="-3.67448">
        <ele>42</ele>
        <time>2018-07-18T10:54:05Z</time>
      </trkpt>
      <trkpt lat="47.82016" lon="-3.67446">
        <ele>42</ele>
        <time>2018-07-18T10:54:06Z</time>
      </trkpt>
      <trkpt lat="47.82016" lon="-3.67443">
        <ele>42</ele>
        <time>2018-07-18T10:54:07Z</time>
      </trkpt>
      <trkpt lat="47.82017" lon="-3.67441">
        <ele>42</ele>
        <time>2018-07-18T10:54:08Z</time>
      </trkpt>
      <trkpt lat="47.82018" lon="-3.6744">
        <ele>42</ele>
        <time>2018-07-18T10:54:09Z</time>
      </trkpt>
      <trkpt lat="47.82019" lon="-3.6744">
        <ele>41</ele>
        <time>2018-07-18T10:54:10Z</time>
      </trkpt>
      <trkpt lat="47.8202" lon="-3.6744">
        <ele>41</ele>
        <time>2018-07-18T10:54:11Z</time>
      </trkpt>
      <trkpt lat="47.8202" lon="-3.6744">
        <ele>41</ele>
        <time>2018-07-18T10:54:12Z</time>
      </trkpt>
      <trkpt lat="47.82021" lon="-3.6744">
        <ele>41</ele>
        <time>2018-07-18T10:54:13Z</time>
      </trkpt>
      <trkpt lat="47.82021" lon="-3.67439">
        <ele>40</ele>
        <time>2018-07-18T10:54:14Z</time>
      </trkpt>
      <trkpt lat="47.8202" lon="-3.67439">
        <ele>40</ele>
        <time>2018-07-18T10:54:15Z</time>
      </trkpt>
      <trkpt lat="47.82018" lon="-3.67438">
        <ele>39</ele>
        <time>2018-07-18T10:54:16Z</time>
      </trkpt>
      <trkpt lat="47.82016" lon="-3.67436">
        <ele>39</ele>
        <time>2018-07-18T10:54:17Z</time>
      </trkpt>
      <trkpt lat="47.82014" lon="-3.67435">
        <ele>39</ele>
        <time>2018-07-18T10:54:18Z</time>
      </trkpt>
      <trkpt lat="47.82012" lon="-3.67433">
        <ele>39</ele>
        <time>2018-07-18T10:54:19Z</time>
      </trkpt>
      <trkpt lat="47.8201" lon="-3.67431">
        <ele>39</ele>
        <time>2018-07-18T10:54:20Z</time>
      </trkpt>
      <trkpt lat="47.82008" lon="-3.6743">
        <ele>39</ele>
        <time>2018-07-18T10:54:21Z</time>
      </trkpt>
      <trkpt lat="47.82006" lon="-3.67428">
        <ele>39</ele>
        <time>2018-07-18T10:54:22Z</time>
      </trkpt>
      <trkpt lat="47.82003" lon="-3.67426">
        <ele>39</ele>
        <time>2018-07-18T10:54:23Z</time>
      </trkpt>
      <trkpt lat="47.82001" lon="-3.67424">
        <ele>39</ele>
        <time>2018-07-18T10:54:24Z</time>
      </trkpt>
      <trkpt lat="47.81999" lon="-3.67423">
        <ele>39</ele>
        <time>2018-07-18T10:54:25Z</time>
      </trkpt>
      <trkpt lat="47.81998" lon="-3.67422">
        <ele>39</ele>
        <time>2018-07-18T10:54:26Z</time>
      </trkpt>
      <trkpt lat="47.81996" lon="-3.67421">
        <ele>40</ele>
        <time>2018-07-18T10:54:27Z</time>
      </trkpt>
      <trkpt lat="47.81993" lon="-3.6742">
        <ele>40</ele>
        <time>2018-07-18T10:54:28Z</time>
      </trkpt>
      <trkpt lat="47.81991" lon="-3.67417">
        <ele>40</ele>
        <time>2018-07-18T10:54:29Z</time>
      </trkpt>
      <trkpt lat="47.81988" lon="-3.67416">
        <ele>40</ele>
        <time>2018-07-18T10:54:30Z</time>
      </trkpt>
      <trkpt lat="47.81985" lon="-3.67413">
        <ele>40</ele>
        <time>2018-07-18T10:54:31Z</time>
      </trkpt>
      <trkpt lat="47.81982" lon="-3.6741">
        <ele>40</ele>
        <time>2018-07-18T10:54:32Z</time>
      </trkpt>
      <trkpt lat="47.81979" lon="-3.67409">
        <ele>41</ele>
        <time>2018-07-18T10:54:33Z</time>
      </trkpt>
      <trkpt lat="47.81977" lon="-3.67407">
        <ele>41</ele>
        <time>2018-07-18T10:54:34Z</time>
      </trkpt>
      <trkpt lat="47.81973" lon="-3.67406">
        <ele>41</ele>
        <time>2018-07-18T10:54:35Z</time>
      </trkpt>
      <trkpt lat="47.81971" lon="-3.67404">
        <ele>41</ele>
        <time>2018-07-18T10:54:36Z</time>
      </trkpt>
      <trkpt lat="47.81968" lon="-3.67402">
        <ele>41</ele>
        <time>2018-07-18T10:54:37Z</time>
      </trkpt>
      <trkpt lat="47.81965" lon="-3.674">
        <ele>41</ele>
        <time>2018-07-18T10:54:38Z</time>
      </trkpt>
      <trkpt lat="47.81962" lon="-3.67398">
        <ele>41</ele>
        <time>2018-07-18T10:54:39Z</time>
      </trkpt>
      <trkpt lat="47.8196" lon="-3.67396">
        <ele>41</ele>
        <time>2018-07-18T10:54:40Z</time>
      </trkpt>
      <trkpt lat="47.81957" lon="-3.67394">
        <ele>42</ele>
        <time>2018-07-18T10:54:41Z</time>
      </trkpt>
      <trkpt lat="47.81954" lon="-3.67392">
        <ele>42</ele>
        <time>2018-07-18T10:54:42Z</time>
      </trkpt>
      <trkpt lat="47.8195" lon="-3.6739">
        <ele>42</ele>
        <time>2018-07-18T10:54:43Z</time>
      </trkpt>
      <trkpt lat="47.81945" lon="-3.67387">
        <ele>42</ele>
        <time>2018-07-18T10:54:44Z</time>
      </trkpt>
      <trkpt lat="47.81941" lon="-3.67384">
        <ele>42</ele>
        <time>2018-07-18T10:54:45Z</time>
      </trkpt>
      <trkpt lat="47.81938" lon="-3.67382">
        <ele>42</ele>
        <time>2018-07-18T10:54:46Z</time>
      </trkpt>
      <trkpt lat="47.81935" lon="-3.6738">
        <ele>42</ele>
        <time>2018-07-18T10:54:47Z</time>
      </trkpt>
      <trkpt lat="47.81932" lon="-3.67377">
        <ele>42</ele>
        <time>2018-07-18T10:54:48Z</time>
      </trkpt>
      <trkpt lat="47.8193" lon="-3.67375">
        <ele>42</ele>
        <time>2018-07-18T10:54:49Z</time>
      </trkpt>
      <trkpt lat="47.81927" lon="-3.67374">
        <ele>42</ele>
        <time>2018-07-18T10:54:50Z</time>
      </trkpt>
      <trkpt lat="47.81924" lon="-3.67373">
        <ele>42</ele>
        <time>2018-07-18T10:54:51Z</time>
      </trkpt>
      <trkpt lat="47.81921" lon="-3.67371">
        <ele>42</ele>
        <time>2018-07-18T10:54:52Z</time>
      </trkpt>
      <trkpt lat="47.81917" lon="-3.67369">
        <ele>43</ele>
        <time>2018-07-18T10:54:53Z</time>
      </trkpt>
      <trkpt lat="47.81914" lon="-3.67366">
        <ele>43</ele>
        <time>2018-07-18T10:54:54Z</time>
      </trkpt>
      <trkpt lat="47.81911" lon="-3.67364">
        <ele>43</ele>
        <time>2018-07-18T10:54:55Z</time>
      </trkpt>
      <trkpt lat="47.81907" lon="-3.67361">
        <ele>43</ele>
        <time>2018-07-18T10:54:56Z</time>
      </trkpt>
      <trkpt lat="47.81904" lon="-3.67359">
        <ele>42</ele>
        <time>2018-07-18T10:54:57Z</time>
      </trkpt>
      <trkpt lat="47.819" lon="-3.67357">
        <ele>42</ele>
        <time>2018-07-18T10:54:58Z</time>
      </trkpt>
      <trkpt lat="47.81895" lon="-3.67355">
        <ele>42</ele>
        <time>2018-07-18T10:54:59Z</time>
      </trkpt>
      <trkpt lat="47.81891" lon="-3.67354">
        <ele>42</ele>
        <time>2018-07-18T10:55:00Z</time>
      </trkpt>
      <trkpt lat="47.81886" lon="-3.67354">
        <ele>42</ele>
        <time>2018-07-18T10:55:01Z</time>
      </trkpt>
      <trkpt lat="47.81881" lon="-3.67355">
        <ele>42</ele>
        <time>2018-07-18T10:55:02Z</time>
      </trkpt>
      <trkpt lat="47.81876" lon="-3.67356">
        <ele>43</ele>
        <time>2018-07-18T10:55:03Z</time>
      </trkpt>
      <trkpt lat="47.81871" lon="-3.67358">
        <ele>43</ele>
        <time>2018-07-18T10:55:04Z</time>
      </trkpt>
      <trkpt lat="47.81866" lon="-3.67361">
        <ele>43</ele>
        <time>2018-07-18T10:55:05Z</time>
      </trkpt>
      <trkpt lat="47.81861" lon="-3.67363">
        <ele>43</ele>
        <time>2018-07-18T10:55:06Z</time>
      </trkpt>
      <trkpt lat="47.81856" lon="-3.67366">
        <ele>43</ele>
        <time>2018-07-18T10:55:07Z</time>
      </trkpt>
      <trkpt lat="47.81852" lon="-3.67368">
        <ele>44</ele>
        <time>2018-07-18T10:55:08Z</time>
      </trkpt>
      <trkpt lat="47.81846" lon="-3.67371">
        <ele>44</ele>
        <time>2018-07-18T10:55:09Z</time>
      </trkpt>
      <trkpt lat="47.81842" lon="-3.67372">
        <ele>44</ele>
        <time>2018-07-18T10:55:10Z</time>
      </trkpt>
      <trkpt lat="47.81836" lon="-3.67374">
        <ele>44</ele>
        <time>2018-07-18T10:55:11Z</time>
      </trkpt>
      <trkpt lat="47.81831" lon="-3.67376">
        <ele>44</ele>
        <time>2018-07-18T10:55:12Z</time>
      </trkpt>
      <trkpt lat="47.81826" lon="-3.67378">
        <ele>45</ele>
        <time>2018-07-18T10:55:13Z</time>
      </trkpt>
      <trkpt lat="47.81821" lon="-3.6738">
        <ele>45</ele>
        <time>2018-07-18T10:55:14Z</time>
      </trkpt>
      <trkpt lat="47.81815" lon="-3.67381">
        <ele>45</ele>
        <time>2018-07-18T10:55:15Z</time>
      </trkpt>
      <trkpt lat="47.8181" lon="-3.67381">
        <ele>45</ele>
        <time>2018-07-18T10:55:16Z</time>
      </trkpt>
      <trkpt lat="47.81804" lon="-3.67381">
        <ele>45</ele>
        <time>2018-07-18T10:55:17Z</time>
      </trkpt>
      <trkpt lat="47.81798" lon="-3.67382">
        <ele>45</ele>
        <time>2018-07-18T10:55:18Z</time>
      </trkpt>
      <trkpt lat="47.81792" lon="-3.67382">
        <ele>45</ele>
        <time>2018-07-18T10:55:19Z</time>
      </trkpt>
      <trkpt lat="47.81787" lon="-3.67382">
        <ele>45</ele>
        <time>2018-07-18T10:55:20Z</time>
      </trkpt>
      <trkpt lat="47.81781" lon="-3.67382">
        <ele>45</ele>
        <time>2018-07-18T10:55:21Z</time>
      </trkpt>
      <trkpt lat="47.81775" lon="-3.67382">
        <ele>46</ele>
        <time>2018-07-18T10:55:22Z</time>
      </trkpt>
      <trkpt lat="47.81769" lon="-3.67383">
        <ele>46</ele>
        <time>2018-07-18T10:55:23Z</time>
      </trkpt>
      <trkpt lat="47.81763" lon="-3.67383">
        <ele>46</ele>
        <time>2018-07-18T10:55:24Z</time>
      </trkpt>
      <trkpt lat="47.81757" lon="-3.67383">
        <ele>46</ele>
        <time>2018-07-18T10:55:25Z</time>
      </trkpt>
      <trkpt lat="47.81751" lon="-3.67384">
        <ele>46</ele>
        <time>2018-07-18T10:55:26Z</time>
      </trkpt>
      <trkpt lat="47.81744" lon="-3.67384">
        <ele>46</ele>
        <time>2018-07-18T10:55:27Z</time>
      </trkpt>
      <trkpt lat="47.81738" lon="-3.67384">
        <ele>46</ele>
        <time>2018-07-18T10:55:28Z</time>
      </trkpt>
      <trkpt lat="47.81732" lon="-3.67383">
        <ele>46</ele>
        <time>2018-07-18T10:55:29Z</time>
      </trkpt>
      <trkpt lat="47.81726" lon="-3.67383">
        <ele>47</ele>
        <time>2018-07-18T10:55:30Z</time>
      </trkpt>
      <trkpt lat="47.81719" lon="-3.67383">
        <ele>47</ele>
        <time>2018-07-18T10:55:31Z</time>
      </trkpt>
      <trkpt lat="47.81713" lon="-3.67383">
        <ele>47</ele>
        <time>2018-07-18T10:55:32Z</time>
      </trkpt>
      <trkpt lat="47.81706" lon="-3.67383">
        <ele>47</ele>
        <time>2018-07-18T10:55:33Z</time>
      </trkpt>
      <trkpt lat="47.817" lon="-3.67383">
        <ele>47</ele>
        <time>2018-07-18T10:55:34Z</time>
      </trkpt>
      <trkpt lat="47.81693" lon="-3.67383">
        <ele>47</ele>
        <time>2018-07-18T10:55:35Z</time>
      </trkpt>
      <trkpt lat="47.81687" lon="-3.67383">
        <ele>47</ele>
        <time>2018-07-18T10:55:36Z</time>
      </trkpt>
      <trkpt lat="47.8168" lon="-3.67382">
        <ele>47</ele>
        <time>2018-07-18T10:55:37Z</time>
      </trkpt>
      <trkpt lat="47.81674" lon="-3.67382">
        <ele>48</ele>
        <time>2018-07-18T10:55:38Z</time>
      </trkpt>
      <trkpt lat="47.81667" lon="-3.67381">
        <ele>48</ele>
        <time>2018-07-18T10:55:39Z</time>
      </trkpt>
      <trkpt lat="47.81661" lon="-3.6738">
        <ele>48</ele>
        <time>2018-07-18T10:55:40Z</time>
      </trkpt>
      <trkpt lat="47.81654" lon="-3.67378">
        <ele>47</ele>
        <time>2018-07-18T10:55:41Z</time>
      </trkpt>
      <trkpt lat="47.81647" lon="-3.67377">
        <ele>47</ele>
        <time>2018-07-18T10:55:42Z</time>
      </trkpt>
      <trkpt lat="47.8164" lon="-3.67375">
        <ele>47</ele>
        <time>2018-07-18T10:55:43Z</time>
      </trkpt>
      <trkpt lat="47.81633" lon="-3.67373">
        <ele>47</ele>
        <time>2018-07-18T10:55:44Z</time>
      </trkpt>
      <trkpt lat="47.81626" lon="-3.67371">
        <ele>47</ele>
        <time>2018-07-18T10:55:45Z</time>
      </trkpt>
      <trkpt lat="47.81619" lon="-3.67369">
        <ele>46</ele>
        <time>2018-07-18T10:55:46Z</time>
      </trkpt>
      <trkpt lat="47.81611" lon="-3.67367">
        <ele>46</ele>
        <time>2018-07-18T10:55:47Z</time>
      </trkpt>
      <trkpt lat="47.81604" lon="-3.67365">
        <ele>46</ele>
        <time>2018-07-18T10:55:48Z</time>
      </trkpt>
      <trkpt lat="47.81597" lon="-3.67363">
        <ele>45</ele>
        <time>2018-07-18T10:55:49Z</time>
      </trkpt>
      <trkpt lat="47.8159" lon="-3.67361">
        <ele>45</ele>
        <time>2018-07-18T10:55:50Z</time>
      </trkpt>
      <trkpt lat="47.81582" lon="-3.67359">
        <ele>45</ele>
        <time>2018-07-18T10:55:51Z</time>
      </trkpt>
      <trkpt lat="47.81575" lon="-3.67357">
        <ele>45</ele>
        <time>2018-07-18T10:55:52Z</time>
      </trkpt>
      <trkpt lat="47.81568" lon="-3.67355">
        <ele>45</ele>
        <time>2018-07-18T10:55:53Z</time>
      </trkpt>
      <trkpt lat="47.81561" lon="-3.67353">
        <ele>44</ele>
        <time>2018-07-18T10:55:54Z</time>
      </trkpt>
      <trkpt lat="47.81555" lon="-3.67351">
        <ele>44</ele>
        <time>2018-07-18T10:55:55Z</time>
      </trkpt>
      <trkpt lat="47.81548" lon="-3.67349">
        <ele>44</ele>
        <time>2018-07-18T10:55:56Z</time>
      </trkpt>
      <trkpt lat="47.81541" lon="-3.67347">
        <ele>44</ele>
        <time>2018-07-18T10:55:57Z</time>
      </trkpt>
      <trkpt lat="47.81535" lon="-3.67345">
        <ele>44</ele>
        <time>2018-07-18T10:55:58Z</time>
      </trkpt>
      <trkpt lat="47.81528" lon="-3.67342">
        <ele>44</ele>
        <time>2018-07-18T10:55:59Z</time>
      </trkpt>
      <trkpt lat="47.81521" lon="-3.6734">
        <ele>44</ele>
        <time>2018-07-18T10:56:00Z</time>
      </trkpt>
      <trkpt lat="47.81515" lon="-3.67338">
        <ele>43</ele>
        <time>2018-07-18T10:56:01Z</time>
      </trkpt>
      <trkpt lat="47.81509" lon="-3.67335">
        <ele>43</ele>
        <time>2018-07-18T10:56:02Z</time>
      </trkpt>
      <trkpt lat="47.81503" lon="-3.67332">
        <ele>43</ele>
        <time>2018-07-18T10:56:03Z</time>
      </trkpt>
      <trkpt lat="47.81497" lon="-3.6733">
        <ele>43</ele>
        <time>2018-07-18T10:56:04Z</time>
      </trkpt>
      <trkpt lat="47.81491" lon="-3.67331">
        <ele>43</ele>
        <time>2018-07-18T10:56:05Z</time>
      </trkpt>
      <trkpt lat="47.81487" lon="-3.67335">
        <ele>43</ele>
        <time>2018-07-18T10:56:06Z</time>
      </trkpt>
      <trkpt lat="47.81485" lon="-3.6734">
        <ele>43</ele>
        <time>2018-07-18T10:56:07Z</time>
      </trkpt>
      <trkpt lat="47.81485" lon="-3.67347">
        <ele>43</ele>
        <time>2018-07-18T10:56:08Z</time>
      </trkpt>
      <trkpt lat="47.81486" lon="-3.67353">
        <ele>43</ele>
        <time>2018-07-18T10:56:09Z</time>
      </trkpt>
      <trkpt lat="47.81488" lon="-3.6736">
        <ele>42</ele>
        <time>2018-07-18T10:56:10Z</time>
      </trkpt>
      <trkpt lat="47.81489" lon="-3.67368">
        <ele>42</ele>
        <time>2018-07-18T10:56:11Z</time>
      </trkpt>
      <trkpt lat="47.81491" lon="-3.67375">
        <ele>42</ele>
        <time>2018-07-18T10:56:12Z</time>
      </trkpt>
      <trkpt lat="47.81492" lon="-3.67382">
        <ele>42</ele>
        <time>2018-07-18T10:56:13Z</time>
      </trkpt>
      <trkpt lat="47.81494" lon="-3.6739">
        <ele>42</ele>
        <time>2018-07-18T10:56:14Z</time>
      </trkpt>
      <trkpt lat="47.81495" lon="-3.67398">
        <ele>42</ele>
        <time>2018-07-18T10:56:15Z</time>
      </trkpt>
      <trkpt lat="47.81497" lon="-3.67406">
        <ele>42</ele>
        <time>2018-07-18T10:56:16Z</time>
      </trkpt>
      <trkpt lat="47.81498" lon="-3.67414">
        <ele>42</ele>
        <time>2018-07-18T10:56:17Z</time>
      </trkpt>
      <trkpt lat="47.815" lon="-3.67423">
        <ele>43</ele>
        <time>2018-07-18T10:56:18Z</time>
      </trkpt>
      <trkpt lat="47.81502" lon="-3.67431">
        <ele>43</ele>
        <time>2018-07-18T10:56:19Z</time>
      </trkpt>
      <trkpt lat="47.81504" lon="-3.6744">
        <ele>43</ele>
        <time>2018-07-18T10:56:20Z</time>
      </trkpt>
      <trkpt lat="47.81507" lon="-3.67449">
        <ele>43</ele>
        <time>2018-07-18T10:56:21Z</time>
      </trkpt>
      <trkpt lat="47.81508" lon="-3.67458">
        <ele>43</ele>
        <time>2018-07-18T10:56:22Z</time>
      </trkpt>
      <trkpt lat="47.8151" lon="-3.67467">
        <ele>43</ele>
        <time>2018-07-18T10:56:23Z</time>
      </trkpt>
      <trkpt lat="47.81512" lon="-3.67476">
        <ele>43</ele>
        <time>2018-07-18T10:56:24Z</time>
      </trkpt>
      <trkpt lat="47.81514" lon="-3.67485">
        <ele>43</ele>
        <time>2018-07-18T10:56:25Z</time>
      </trkpt>
      <trkpt lat="47.81517" lon="-3.67494">
        <ele>43</ele>
        <time>2018-07-18T10:56:26Z</time>
      </trkpt>
      <trkpt lat="47.81518" lon="-3.67503">
        <ele>43</ele>
        <time>2018-07-18T10:56:27Z</time>
      </trkpt>
      <trkpt lat="47.81521" lon="-3.67512">
        <ele>43</ele>
        <time>2018-07-18T10:56:28Z</time>
      </trkpt>
      <trkpt lat="47.81522" lon="-3.67521">
        <ele>43</ele>
        <time>2018-07-18T10:56:29Z</time>
      </trkpt>
      <trkpt lat="47.81524" lon="-3.6753">
        <ele>43</ele>
        <time>2018-07-18T10:56:30Z</time>
      </trkpt>
      <trkpt lat="47.81526" lon="-3.67539">
        <ele>43</ele>
        <time>2018-07-18T10:56:31Z</time>
      </trkpt>
      <trkpt lat="47.81528" lon="-3.67549">
        <ele>43</ele>
        <time>2018-07-18T10:56:32Z</time>
      </trkpt>
      <trkpt lat="47.8153" lon="-3.67558">
        <ele>43</ele>
        <time>2018-07-18T10:56:33Z</time>
      </trkpt>
      <trkpt lat="47.81532" lon="-3.67567">
        <ele>43</ele>
        <time>2018-07-18T10:56:34Z</time>
      </trkpt>
      <trkpt lat="47.81534" lon="-3.67575">
        <ele>44</ele>
        <time>2018-07-18T10:56:35Z</time>
      </trkpt>
      <trkpt lat="47.81536" lon="-3.67583">
        <ele>44</ele>
        <time>2018-07-18T10:56:36Z</time>
      </trkpt>
      <trkpt lat="47.81538" lon="-3.67591">
        <ele>44</ele>
        <time>2018-07-18T10:56:37Z</time>
      </trkpt>
      <trkpt lat="47.8154" lon="-3.676">
        <ele>44</ele>
        <time>2018-07-18T10:56:38Z</time>
      </trkpt>
      <trkpt lat="47.81541" lon="-3.67608">
        <ele>44</ele>
        <time>2018-07-18T10:56:39Z</time>
      </trkpt>
      <trkpt lat="47.81543" lon="-3.67616">
        <ele>44</ele>
        <time>2018-07-18T10:56:40Z</time>
      </trkpt>
      <trkpt lat="47.81545" lon="-3.67624">
        <ele>44</ele>
        <time>2018-07-18T10:56:41Z</time>
      </trkpt>
      <trkpt lat="47.81547" lon="-3.67631">
        <ele>45</ele>
        <time>2018-07-18T10:56:42Z</time>
      </trkpt>
      <trkpt lat="47.81549" lon="-3.67639">
        <ele>45</ele>
        <time>2018-07-18T10:56:43Z</time>
      </trkpt>
      <trkpt lat="47.8155" lon="-3.67647">
        <ele>45</ele>
        <time>2018-07-18T10:56:44Z</time>
      </trkpt>
      <trkpt lat="47.81552" lon="-3.67655">
        <ele>45</ele>
        <time>2018-07-18T10:56:45Z</time>
      </trkpt>
      <trkpt lat="47.81554" lon="-3.67662">
        <ele>45</ele>
        <time>2018-07-18T10:56:46Z</time>
      </trkpt>
      <trkpt lat="47.81556" lon="-3.6767">
        <ele>46</ele>
        <time>2018-07-18T10:56:47Z</time>
      </trkpt>
      <trkpt lat="47.81557" lon="-3.67677">
        <ele>46</ele>
        <time>2018-07-18T10:56:48Z</time>
      </trkpt>
      <trkpt lat="47.81559" lon="-3.67685">
        <ele>46</ele>
        <time>2018-07-18T10:56:49Z</time>
      </trkpt>
      <trkpt lat="47.8156" lon="-3.67692">
        <ele>46</ele>
        <time>2018-07-18T10:56:50Z</time>
      </trkpt>
      <trkpt lat="47.81562" lon="-3.67699">
        <ele>46</ele>
        <time>2018-07-18T10:56:51Z</time>
      </trkpt>
      <trkpt lat="47.81564" lon="-3.67706">
        <ele>46</ele>
        <time>2018-07-18T10:56:52Z</time>
      </trkpt>
      <trkpt lat="47.81565" lon="-3.67713">
        <ele>47</ele>
        <time>2018-07-18T10:56:53Z</time>
      </trkpt>
      <trkpt lat="47.81567" lon="-3.6772">
        <ele>47</ele>
        <time>2018-07-18T10:56:54Z</time>
      </trkpt>
      <trkpt lat="47.81569" lon="-3.67727">
        <ele>47</ele>
        <time>2018-07-18T10:56:55Z</time>
      </trkpt>
      <trkpt lat="47.8157" lon="-3.67733">
        <ele>47</ele>
        <time>2018-07-18T10:56:56Z</time>
      </trkpt>
      <trkpt lat="47.81571" lon="-3.6774">
        <ele>47</ele>
        <time>2018-07-18T10:56:57Z</time>
      </trkpt>
      <trkpt lat="47.81573" lon="-3.67747">
        <ele>47</ele>
        <time>2018-07-18T10:56:58Z</time>
      </trkpt>
      <trkpt lat="47.81574" lon="-3.67754">
        <ele>47</ele>
        <time>2018-07-18T10:56:59Z</time>
      </trkpt>
      <trkpt lat="47.81576" lon="-3.67761">
        <ele>47</ele>
        <time>2018-07-18T10:57:00Z</time>
      </trkpt>
      <trkpt lat="47.81578" lon="-3.67768">
        <ele>47</ele>
        <time>2018-07-18T10:57:01Z</time>
      </trkpt>
      <trkpt lat="47.81579" lon="-3.67774">
        <ele>47</ele>
        <time>2018-07-18T10:57:02Z</time>
      </trkpt>
      <trkpt lat="47.81581" lon="-3.67781">
        <ele>47</ele>
        <time>2018-07-18T10:57:03Z</time>
      </trkpt>
      <trkpt lat="47.81582" lon="-3.67788">
        <ele>47</ele>
        <time>2018-07-18T10:57:04Z</time>
      </trkpt>
      <trkpt lat="47.81583" lon="-3.67794">
        <ele>48</ele>
        <time>2018-07-18T10:57:05Z</time>
      </trkpt>
      <trkpt lat="47.81584" lon="-3.678">
        <ele>48</ele>
        <time>2018-07-18T10:57:06Z</time>
      </trkpt>
      <trkpt lat="47.81586" lon="-3.67807">
        <ele>48</ele>
        <time>2018-07-18T10:57:07Z</time>
      </trkpt>
      <trkpt lat="47.81587" lon="-3.67813">
        <ele>48</ele>
        <time>2018-07-18T10:57:08Z</time>
      </trkpt>
      <trkpt lat="47.81589" lon="-3.6782">
        <ele>48</ele>
        <time>2018-07-18T10:57:09Z</time>
      </trkpt>
      <trkpt lat="47.8159" lon="-3.67827">
        <ele>48</ele>
        <time>2018-07-18T10:57:10Z</time>
      </trkpt>
      <trkpt lat="47.81592" lon="-3.67834">
        <ele>48</ele>
        <time>2018-07-18T10:57:11Z</time>
      </trkpt>
      <trkpt lat="47.81593" lon="-3.67841">
        <ele>48</ele>
        <time>2018-07-18T10:57:12Z</time>
      </trkpt>
      <trkpt lat="47.81595" lon="-3.67848">
        <ele>48</ele>
        <time>2018-07-18T10:57:13Z</time>
      </trkpt>
      <trkpt lat="47.81596" lon="-3.67855">
        <ele>48</ele>
        <time>2018-07-18T10:57:14Z</time>
      </trkpt>
      <trkpt lat="47.81598" lon="-3.67863">
        <ele>48</ele>
        <time>2018-07-18T10:57:15Z</time>
      </trkpt>
      <trkpt lat="47.816" lon="-3.6787">
        <ele>48</ele>
        <time>2018-07-18T10:57:16Z</time>
      </trkpt>
      <trkpt lat="47.81601" lon="-3.67877">
        <ele>48</ele>
        <time>2018-07-18T10:57:17Z</time>
      </trkpt>
      <trkpt lat="47.81603" lon="-3.67885">
        <ele>48</ele>
        <time>2018-07-18T10:57:18Z</time>
      </trkpt>
      <trkpt lat="47.81604" lon="-3.67893">
        <ele>48</ele>
        <time>2018-07-18T10:57:19Z</time>
      </trkpt>
      <trkpt lat="47.81605" lon="-3.679">
        <ele>48</ele>
        <time>2018-07-18T10:57:20Z</time>
      </trkpt>
      <trkpt lat="47.81606" lon="-3.67907">
        <ele>48</ele>
        <time>2018-07-18T10:57:21Z</time>
      </trkpt>
      <trkpt lat="47.81606" lon="-3.67913">
        <ele>48</ele>
        <time>2018-07-18T10:57:22Z</time>
      </trkpt>
      <trkpt lat="47.81607" lon="-3.67919">
        <ele>48</ele>
        <time>2018-07-18T10:57:23Z</time>
      </trkpt>
      <trkpt lat="47.81608" lon="-3.67923">
        <ele>47</ele>
        <time>2018-07-18T10:57:24Z</time>
      </trkpt>
      <trkpt lat="47.81609" lon="-3.67926">
        <ele>47</ele>
        <time>2018-07-18T10:57:25Z</time>
      </trkpt>
      <trkpt lat="47.8161" lon="-3.67929">
        <ele>47</ele>
        <time>2018-07-18T10:57:26Z</time>
      </trkpt>
      <trkpt lat="47.81612" lon="-3.67932">
        <ele>47</ele>
        <time>2018-07-18T10:57:27Z</time>
      </trkpt>
      <trkpt lat="47.81613" lon="-3.67935">
        <ele>47</ele>
        <time>2018-07-18T10:57:28Z</time>
      </trkpt>
      <trkpt lat="47.81613" lon="-3.67939">
        <ele>47</ele>
        <time>2018-07-18T10:57:29Z</time>
      </trkpt>
      <trkpt lat="47.81612" lon="-3.67942">
        <ele>47</ele>
        <time>2018-07-18T10:57:30Z</time>
      </trkpt>
      <trkpt lat="47.8161" lon="-3.67945">
        <ele>47</ele>
        <time>2018-07-18T10:57:31Z</time>
      </trkpt>
      <trkpt lat="47.81608" lon="-3.67951">
        <ele>47</ele>
        <time>2018-07-18T10:57:32Z</time>
      </trkpt>
      <trkpt lat="47.81606" lon="-3.67957">
        <ele>46</ele>
        <time>2018-07-18T10:57:33Z</time>
      </trkpt>
      <trkpt lat="47.81604" lon="-3.67963">
        <ele>46</ele>
        <time>2018-07-18T10:57:34Z</time>
      </trkpt>
      <trkpt lat="47.81602" lon="-3.67969">
        <ele>46</ele>
        <time>2018-07-18T10:57:35Z</time>
      </trkpt>
      <trkpt lat="47.816" lon="-3.67974">
        <ele>46</ele>
        <time>2018-07-18T10:57:36Z</time>
      </trkpt>
      <trkpt lat="47.81598" lon="-3.6798">
        <ele>46</ele>
        <time>2018-07-18T10:57:37Z</time>
      </trkpt>
      <trkpt lat="47.81597" lon="-3.67985">
        <ele>46</ele>
        <time>2018-07-18T10:57:38Z</time>
      </trkpt>
      <trkpt lat="47.81596" lon="-3.67991">
        <ele>46</ele>
        <time>2018-07-18T10:57:39Z</time>
      </trkpt>
      <trkpt lat="47.81594" lon="-3.67998">
        <ele>46</ele>
        <time>2018-07-18T10:57:40Z</time>
      </trkpt>
      <trkpt lat="47.81594" lon="-3.68005">
        <ele>46</ele>
        <time>2018-07-18T10:57:41Z</time>
      </trkpt>
      <trkpt lat="47.81594" lon="-3.68014">
        <ele>46</ele>
        <time>2018-07-18T10:57:42Z</time>
      </trkpt>
      <trkpt lat="47.81594" lon="-3.68021">
        <ele>45</ele>
        <time>2018-07-18T10:57:43Z</time>
      </trkpt>
      <trkpt lat="47.81596" lon="-3.68028">
        <ele>45</ele>
        <time>2018-07-18T10:57:44Z</time>
      </trkpt>
      <trkpt lat="47.81596" lon="-3.68034">
        <ele>45</ele>
        <time>2018-07-18T10:57:45Z</time>
      </trkpt>
      <trkpt lat="47.81596" lon="-3.6804">
        <ele>45</ele>
        <time>2018-07-18T10:57:46Z</time>
      </trkpt>
      <trkpt lat="47.81594" lon="-3.68045">
        <ele>45</ele>
        <time>2018-07-18T10:57:47Z</time>
      </trkpt>
      <trkpt lat="47.81593" lon="-3.68051">
        <ele>45</ele>
        <time>2018-07-18T10:57:48Z</time>
      </trkpt>
      <trkpt lat="47.81592" lon="-3.68058">
        <ele>44</ele>
        <time>2018-07-18T10:57:49Z</time>
      </trkpt>
      <trkpt lat="47.81592" lon="-3.68066">
        <ele>44</ele>
        <time>2018-07-18T10:57:50Z</time>
      </trkpt>
      <trkpt lat="47.81592" lon="-3.68073">
        <ele>44</ele>
        <time>2018-07-18T10:57:51Z</time>
      </trkpt>
      <trkpt lat="47.81593" lon="-3.68081">
        <ele>44</ele>
        <time>2018-07-18T10:57:52Z</time>
      </trkpt>
      <trkpt lat="47.81593" lon="-3.68089">
        <ele>44</ele>
        <time>2018-07-18T10:57:53Z</time>
      </trkpt>
      <trkpt lat="47.81594" lon="-3.68096">
        <ele>44</ele>
        <time>2018-07-18T10:57:54Z</time>
      </trkpt>
      <trkpt lat="47.81594" lon="-3.68104">
        <ele>44</ele>
        <time>2018-07-18T10:57:55Z</time>
      </trkpt>
      <trkpt lat="47.81594" lon="-3.68111">
        <ele>43</ele>
        <time>2018-07-18T10:57:56Z</time>
      </trkpt>
      <trkpt lat="47.81595" lon="-3.68119">
        <ele>43</ele>
        <time>2018-07-18T10:57:57Z</time>
      </trkpt>
      <trkpt lat="47.81596" lon="-3.68124">
        <ele>43</ele>
        <time>2018-07-18T10:57:58Z</time>
      </trkpt>
      <trkpt lat="47.81598" lon="-3.68129">
        <ele>43</ele>
        <time>2018-07-18T10:57:59Z</time>
      </trkpt>
      <trkpt lat="47.81599" lon="-3.68135">
        <ele>43</ele>
        <time>2018-07-18T10:58:00Z</time>
      </trkpt>
      <trkpt lat="47.81602" lon="-3.6814">
        <ele>42</ele>
        <time>2018-07-18T10:58:01Z</time>
      </trkpt>
      <trkpt lat="47.81604" lon="-3.68146">
        <ele>42</ele>
        <time>2018-07-18T10:58:02Z</time>
      </trkpt>
      <trkpt lat="47.81605" lon="-3.68152">
        <ele>42</ele>
        <time>2018-07-18T10:58:03Z</time>
      </trkpt>
      <trkpt lat="47.81606" lon="-3.68158">
        <ele>42</ele>
        <time>2018-07-18T10:58:04Z</time>
      </trkpt>
      <trkpt lat="47.81608" lon="-3.68164">
        <ele>42</ele>
        <time>2018-07-18T10:58:05Z</time>
      </trkpt>
      <trkpt lat="47.8161" lon="-3.68171">
        <ele>41</ele>
        <time>2018-07-18T10:58:06Z</time>
      </trkpt>
      <trkpt lat="47.81612" lon="-3.68178">
        <ele>41</ele>
        <time>2018-07-18T10:58:07Z</time>
      </trkpt>
      <trkpt lat="47.81614" lon="-3.68186">
        <ele>41</ele>
        <time>2018-07-18T10:58:08Z</time>
      </trkpt>
      <trkpt lat="47.81615" lon="-3.68193">
        <ele>41</ele>
        <time>2018-07-18T10:58:09Z</time>
      </trkpt>
      <trkpt lat="47.81616" lon="-3.682">
        <ele>41</ele>
        <time>2018-07-18T10:58:10Z</time>
      </trkpt>
      <trkpt lat="47.81617" lon="-3.68206">
        <ele>41</ele>
        <time>2018-07-18T10:58:11Z</time>
      </trkpt>
      <trkpt lat="47.81617" lon="-3.68213">
        <ele>40</ele>
        <time>2018-07-18T10:58:12Z</time>
      </trkpt>
      <trkpt lat="47.81616" lon="-3.68219">
        <ele>40</ele>
        <time>2018-07-18T10:58:13Z</time>
      </trkpt>
      <trkpt lat="47.81615" lon="-3.68226">
        <ele>40</ele>
        <time>2018-07-18T10:58:14Z</time>
      </trkpt>
      <trkpt lat="47.81615" lon="-3.68235">
        <ele>40</ele>
        <time>2018-07-18T10:58:15Z</time>
      </trkpt>
      <trkpt lat="47.81615" lon="-3.68244">
        <ele>40</ele>
        <time>2018-07-18T10:58:16Z</time>
      </trkpt>
      <trkpt lat="47.81615" lon="-3.68251">
        <ele>40</ele>
        <time>2018-07-18T10:58:17Z</time>
      </trkpt>
      <trkpt lat="47.81616" lon="-3.68257">
        <ele>40</ele>
        <time>2018-07-18T10:58:18Z</time>
      </trkpt>
      <trkpt lat="47.81616" lon="-3.68264">
        <ele>40</ele>
        <time>2018-07-18T10:58:19Z</time>
      </trkpt>
      <trkpt lat="47.81617" lon="-3.68269">
        <ele>40</ele>
        <time>2018-07-18T10:58:20Z</time>
      </trkpt>
      <trkpt lat="47.81616" lon="-3.68273">
        <ele>40</ele>
        <time>2018-07-18T10:58:21Z</time>
      </trkpt>
      <trkpt lat="47.81617" lon="-3.68276">
        <ele>40</ele>
        <time>2018-07-18T10:58:22Z</time>
      </trkpt>
      <trkpt lat="47.81617" lon="-3.6828">
        <ele>40</ele>
        <time>2018-07-18T10:58:23Z</time>
      </trkpt>
      <trkpt lat="47.81617" lon="-3.68281">
        <ele>40</ele>
        <time>2018-07-18T10:58:24Z</time>
      </trkpt>
      <trkpt lat="47.81617" lon="-3.68283">
        <ele>40</ele>
        <time>2018-07-18T10:58:25Z</time>
      </trkpt>
      <trkpt lat="47.81617" lon="-3.68283">
        <ele>40</ele>
        <time>2018-07-18T10:58:26Z</time>
      </trkpt>
      <trkpt lat="47.81617" lon="-3.68284">
        <ele>40</ele>
        <time>2018-07-18T10:58:27Z</time>
      </trkpt>
      <trkpt lat="47.81617" lon="-3.68284">
        <ele>40</ele>
        <time>2018-07-18T10:58:28Z</time>
      </trkpt>
      <trkpt lat="47.81618" lon="-3.6829">
        <ele>40</ele>
        <time>2018-07-18T10:58:29Z</time>
      </trkpt>
      <trkpt lat="47.81618" lon="-3.6829">
        <ele>40</ele>
        <time>2018-07-18T10:58:30Z</time>
      </trkpt>
      <trkpt lat="47.81619" lon="-3.6829">
        <ele>40</ele>
        <time>2018-07-18T10:58:31Z</time>
      </trkpt>
      <trkpt lat="47.81619" lon="-3.68291">
        <ele>40</ele>
        <time>2018-07-18T10:58:32Z</time>
      </trkpt>
      <trkpt lat="47.81619" lon="-3.68291">
        <ele>40</ele>
        <time>2018-07-18T10:58:33Z</time>
      </trkpt>
      <trkpt lat="47.81619" lon="-3.68292">
        <ele>40</ele>
        <time>2018-07-18T10:58:34Z</time>
      </trkpt>
      <trkpt lat="47.81619" lon="-3.68292">
        <ele>40</ele>
        <time>2018-07-18T10:58:35Z</time>
      </trkpt>
      <trkpt lat="47.81619" lon="-3.68292">
        <ele>39</ele>
        <time>2018-07-18T10:58:36Z</time>
      </trkpt>
      <trkpt lat="47.8162" lon="-3.68295">
        <ele>39</ele>
        <time>2018-07-18T10:58:37Z</time>
      </trkpt>
      <trkpt lat="47.81622" lon="-3.68296">
        <ele>39</ele>
        <time>2018-07-18T10:58:38Z</time>
      </trkpt>
      <trkpt lat="47.81623" lon="-3.68297">
        <ele>39</ele>
        <time>2018-07-18T10:58:39Z</time>
      </trkpt>
      <trkpt lat="47.81624" lon="-3.68298">
        <ele>39</ele>
        <time>2018-07-18T10:58:40Z</time>
      </trkpt>
      <trkpt lat="47.81625" lon="-3.68299">
        <ele>39</ele>
        <time>2018-07-18T10:58:41Z</time>
      </trkpt>
      <trkpt lat="47.81627" lon="-3.683">
        <ele>39</ele>
        <time>2018-07-18T10:58:42Z</time>
      </trkpt>
      <trkpt lat="47.81629" lon="-3.68302">
        <ele>39</ele>
        <time>2018-07-18T10:58:43Z</time>
      </trkpt>
      <trkpt lat="47.81632" lon="-3.68304">
        <ele>39</ele>
        <time>2018-07-18T10:58:44Z</time>
      </trkpt>
      <trkpt lat="47.81635" lon="-3.68307">
        <ele>39</ele>
        <time>2018-07-18T10:58:45Z</time>
      </trkpt>
      <trkpt lat="47.81638" lon="-3.6831">
        <ele>39</ele>
        <time>2018-07-18T10:58:46Z</time>
      </trkpt>
      <trkpt lat="47.8164" lon="-3.68314">
        <ele>39</ele>
        <time>2018-07-18T10:58:47Z</time>
      </trkpt>
      <trkpt lat="47.81643" lon="-3.6832">
        <ele>39</ele>
        <time>2018-07-18T10:58:48Z</time>
      </trkpt>
      <trkpt lat="47.81646" lon="-3.68324">
        <ele>39</ele>
        <time>2018-07-18T10:58:49Z</time>
      </trkpt>
      <trkpt lat="47.8165" lon="-3.68327">
        <ele>39</ele>
        <time>2018-07-18T10:58:50Z</time>
      </trkpt>
      <trkpt lat="47.81654" lon="-3.68328">
        <ele>39</ele>
        <time>2018-07-18T10:58:51Z</time>
      </trkpt>
      <trkpt lat="47.81659" lon="-3.68329">
        <ele>39</ele>
        <time>2018-07-18T10:58:52Z</time>
      </trkpt>
      <trkpt lat="47.81665" lon="-3.6833">
        <ele>40</ele>
        <time>2018-07-18T10:58:53Z</time>
      </trkpt>
      <trkpt lat="47.81671" lon="-3.6833">
        <ele>40</ele>
        <time>2018-07-18T10:58:54Z</time>
      </trkpt>
      <trkpt lat="47.81677" lon="-3.68329">
        <ele>40</ele>
        <time>2018-07-18T10:58:55Z</time>
      </trkpt>
      <trkpt lat="47.81684" lon="-3.68329">
        <ele>40</ele>
        <time>2018-07-18T10:58:56Z</time>
      </trkpt>
      <trkpt lat="47.81689" lon="-3.68329">
        <ele>39</ele>
        <time>2018-07-18T10:58:57Z</time>
      </trkpt>
      <trkpt lat="47.81695" lon="-3.68332">
        <ele>39</ele>
        <time>2018-07-18T10:58:58Z</time>
      </trkpt>
      <trkpt lat="47.81699" lon="-3.68337">
        <ele>39</ele>
        <time>2018-07-18T10:58:59Z</time>
      </trkpt>
      <trkpt lat="47.81702" lon="-3.6834">
        <ele>39</ele>
        <time>2018-07-18T10:59:00Z</time>
      </trkpt>
      <trkpt lat="47.81705" lon="-3.68343">
        <ele>38</ele>
        <time>2018-07-18T10:59:01Z</time>
      </trkpt>
      <trkpt lat="47.81708" lon="-3.68347">
        <ele>38</ele>
        <time>2018-07-18T10:59:02Z</time>
      </trkpt>
      <trkpt lat="47.8171" lon="-3.6835">
        <ele>38</ele>
        <time>2018-07-18T10:59:03Z</time>
      </trkpt>
      <trkpt lat="47.81712" lon="-3.68352">
        <ele>37</ele>
        <time>2018-07-18T10:59:04Z</time>
      </trkpt>
      <trkpt lat="47.81714" lon="-3.68354">
        <ele>37</ele>
        <time>2018-07-18T10:59:05Z</time>
      </trkpt>
      <trkpt lat="47.81715" lon="-3.68355">
        <ele>37</ele>
        <time>2018-07-18T10:59:06Z</time>
      </trkpt>
      <trkpt lat="47.81717" lon="-3.68357">
        <ele>36</ele>
        <time>2018-07-18T10:59:07Z</time>
      </trkpt>
      <trkpt lat="47.81719" lon="-3.68359">
        <ele>36</ele>
        <time>2018-07-18T10:59:08Z</time>
      </trkpt>
      <trkpt lat="47.81722" lon="-3.68362">
        <ele>36</ele>
        <time>2018-07-18T10:59:09Z</time>
      </trkpt>
      <trkpt lat="47.81725" lon="-3.68365">
        <ele>36</ele>
        <time>2018-07-18T10:59:10Z</time>
      </trkpt>
      <trkpt lat="47.81728" lon="-3.68366">
        <ele>36</ele>
        <time>2018-07-18T10:59:11Z</time>
      </trkpt>
      <trkpt lat="47.8173" lon="-3.68368">
        <ele>35</ele>
        <time>2018-07-18T10:59:12Z</time>
      </trkpt>
      <trkpt lat="47.81731" lon="-3.68369">
        <ele>35</ele>
        <time>2018-07-18T10:59:13Z</time>
      </trkpt>
      <trkpt lat="47.81733" lon="-3.68371">
        <ele>35</ele>
        <time>2018-07-18T10:59:14Z</time>
      </trkpt>
      <trkpt lat="47.81735" lon="-3.68372">
        <ele>35</ele>
        <time>2018-07-18T10:59:15Z</time>
      </trkpt>
      <trkpt lat="47.81737" lon="-3.68373">
        <ele>35</ele>
        <time>2018-07-18T10:59:16Z</time>
      </trkpt>
      <trkpt lat="47.81738" lon="-3.68375">
        <ele>35</ele>
        <time>2018-07-18T10:59:17Z</time>
      </trkpt>
      <trkpt lat="47.81741" lon="-3.68377">
        <ele>35</ele>
        <time>2018-07-18T10:59:18Z</time>
      </trkpt>
      <trkpt lat="47.81743" lon="-3.68379">
        <ele>35</ele>
        <time>2018-07-18T10:59:19Z</time>
      </trkpt>
      <trkpt lat="47.81745" lon="-3.68382">
        <ele>35</ele>
        <time>2018-07-18T10:59:20Z</time>
      </trkpt>
      <trkpt lat="47.81749" lon="-3.68385">
        <ele>35</ele>
        <time>2018-07-18T10:59:21Z</time>
      </trkpt>
      <trkpt lat="47.81753" lon="-3.68388">
        <ele>35</ele>
        <time>2018-07-18T10:59:22Z</time>
      </trkpt>
      <trkpt lat="47.81757" lon="-3.68392">
        <ele>35</ele>
        <time>2018-07-18T10:59:23Z</time>
      </trkpt>
      <trkpt lat="47.81762" lon="-3.68395">
        <ele>35</ele>
        <time>2018-07-18T10:59:24Z</time>
      </trkpt>
      <trkpt lat="47.81766" lon="-3.68399">
        <ele>35</ele>
        <time>2018-07-18T10:59:25Z</time>
      </trkpt>
      <trkpt lat="47.8177" lon="-3.68402">
        <ele>35</ele>
        <time>2018-07-18T10:59:26Z</time>
      </trkpt>
      <trkpt lat="47.81773" lon="-3.68405">
        <ele>35</ele>
        <time>2018-07-18T10:59:27Z</time>
      </trkpt>
      <trkpt lat="47.81776" lon="-3.68408">
        <ele>35</ele>
        <time>2018-07-18T10:59:28Z</time>
      </trkpt>
      <trkpt lat="47.81778" lon="-3.68411">
        <ele>35</ele>
        <time>2018-07-18T10:59:29Z</time>
      </trkpt>
      <trkpt lat="47.8178" lon="-3.68414">
        <ele>35</ele>
        <time>2018-07-18T10:59:30Z</time>
      </trkpt>
      <trkpt lat="47.81782" lon="-3.68417">
        <ele>35</ele>
        <time>2018-07-18T10:59:31Z</time>
      </trkpt>
      <trkpt lat="47.81784" lon="-3.6842">
        <ele>35</ele>
        <time>2018-07-18T10:59:32Z</time>
      </trkpt>
      <trkpt lat="47.81786" lon="-3.68423">
        <ele>35</ele>
        <time>2018-07-18T10:59:33Z</time>
      </trkpt>
      <trkpt lat="47.81788" lon="-3.68427">
        <ele>35</ele>
        <time>2018-07-18T10:59:34Z</time>
      </trkpt>
      <trkpt lat="47.8179" lon="-3.68431">
        <ele>35</ele>
        <time>2018-07-18T10:59:35Z</time>
      </trkpt>
      <trkpt lat="47.81792" lon="-3.68435">
        <ele>35</ele>
        <time>2018-07-18T10:59:36Z</time>
      </trkpt>
      <trkpt lat="47.81794" lon="-3.68438">
        <ele>35</ele>
        <time>2018-07-18T10:59:37Z</time>
      </trkpt>
      <trkpt lat="47.81795" lon="-3.68442">
        <ele>35</ele>
        <time>2018-07-18T10:59:38Z</time>
      </trkpt>
      <trkpt lat="47.81796" lon="-3.68446">
        <ele>35</ele>
        <time>2018-07-18T10:59:39Z</time>
      </trkpt>
      <trkpt lat="47.81798" lon="-3.68451">
        <ele>34</ele>
        <time>2018-07-18T10:59:40Z</time>
      </trkpt>
      <trkpt lat="47.81799" lon="-3.68455">
        <ele>34</ele>
        <time>2018-07-18T10:59:41Z</time>
      </trkpt>
      <trkpt lat="47.818" lon="-3.68458">
        <ele>34</ele>
        <time>2018-07-18T10:59:42Z</time>
      </trkpt>
      <trkpt lat="47.81802" lon="-3.68461">
        <ele>34</ele>
        <time>2018-07-18T10:59:43Z</time>
      </trkpt>
      <trkpt lat="47.81805" lon="-3.68463">
        <ele>34</ele>
        <time>2018-07-18T10:59:44Z</time>
      </trkpt>
      <trkpt lat="47.81809" lon="-3.68465">
        <ele>34</ele>
        <time>2018-07-18T10:59:45Z</time>
      </trkpt>
      <trkpt lat="47.81814" lon="-3.68467">
        <ele>34</ele>
        <time>2018-07-18T10:59:46Z</time>
      </trkpt>
      <trkpt lat="47.81817" lon="-3.68468">
        <ele>34</ele>
        <time>2018-07-18T10:59:47Z</time>
      </trkpt>
      <trkpt lat="47.8182" lon="-3.68469">
        <ele>34</ele>
        <time>2018-07-18T10:59:48Z</time>
      </trkpt>
      <trkpt lat="47.81823" lon="-3.68471">
        <ele>34</ele>
        <time>2018-07-18T10:59:49Z</time>
      </trkpt>
      <trkpt lat="47.81826" lon="-3.68473">
        <ele>34</ele>
        <time>2018-07-18T10:59:50Z</time>
      </trkpt>
      <trkpt lat="47.81829" lon="-3.68475">
        <ele>33</ele>
        <time>2018-07-18T10:59:51Z</time>
      </trkpt>
      <trkpt lat="47.81832" lon="-3.68476">
        <ele>33</ele>
        <time>2018-07-18T10:59:52Z</time>
      </trkpt>
      <trkpt lat="47.81834" lon="-3.68477">
        <ele>33</ele>
        <time>2018-07-18T10:59:53Z</time>
      </trkpt>
      <trkpt lat="47.81836" lon="-3.68478">
        <ele>33</ele>
        <time>2018-07-18T10:59:54Z</time>
      </trkpt>
      <trkpt lat="47.81837" lon="-3.6848">
        <ele>32</ele>
        <time>2018-07-18T10:59:55Z</time>
      </trkpt>
      <trkpt lat="47.81839" lon="-3.68481">
        <ele>32</ele>
        <time>2018-07-18T10:59:56Z</time>
      </trkpt>
      <trkpt lat="47.81841" lon="-3.68482">
        <ele>32</ele>
        <time>2018-07-18T10:59:57Z</time>
      </trkpt>
      <trkpt lat="47.81843" lon="-3.68483">
        <ele>32</ele>
        <time>2018-07-18T10:59:58Z</time>
      </trkpt>
      <trkpt lat="47.81844" lon="-3.68484">
        <ele>31</ele>
        <time>2018-07-18T10:59:59Z</time>
      </trkpt>
      <trkpt lat="47.81845" lon="-3.68484">
        <ele>31</ele>
        <time>2018-07-18T11:00:00Z</time>
      </trkpt>
      <trkpt lat="47.81846" lon="-3.68485">
        <ele>31</ele>
        <time>2018-07-18T11:00:01Z</time>
      </trkpt>
      <trkpt lat="47.81848" lon="-3.68486">
        <ele>30</ele>
        <time>2018-07-18T11:00:02Z</time>
      </trkpt>
      <trkpt lat="47.81849" lon="-3.68487">
        <ele>30</ele>
        <time>2018-07-18T11:00:03Z</time>
      </trkpt>
      <trkpt lat="47.8185" lon="-3.68488">
        <ele>30</ele>
        <time>2018-07-18T11:00:04Z</time>
      </trkpt>
      <trkpt lat="47.8185" lon="-3.68489">
        <ele>29</ele>
        <time>2018-07-18T11:00:05Z</time>
      </trkpt>
      <trkpt lat="47.81851" lon="-3.68489">
        <ele>29</ele>
        <time>2018-07-18T11:00:06Z</time>
      </trkpt>
      <trkpt lat="47.81852" lon="-3.6849">
        <ele>27</ele>
        <time>2018-07-18T11:00:07Z</time>
      </trkpt>
      <trkpt lat="47.81852" lon="-3.68491">
        <ele>27</ele>
        <time>2018-07-18T11:00:08Z</time>
      </trkpt>
      <trkpt lat="47.81852" lon="-3.68492">
        <ele>27</ele>
        <time>2018-07-18T11:00:09Z</time>
      </trkpt>
      <trkpt lat="47.81852" lon="-3.68493">
        <ele>26</ele>
        <time>2018-07-18T11:00:10Z</time>
      </trkpt>
      <trkpt lat="47.81852" lon="-3.68494">
        <ele>26</ele>
        <time>2018-07-18T11:00:11Z</time>
      </trkpt>
      <trkpt lat="47.81852" lon="-3.68495">
        <ele>25</ele>
        <time>2018-07-18T11:00:12Z</time>
      </trkpt>
      <trkpt lat="47.81852" lon="-3.68496">
        <ele>25</ele>
        <time>2018-07-18T11:00:13Z</time>
      </trkpt>
      <trkpt lat="47.81852" lon="-3.68497">
        <ele>24</ele>
        <time>2018-07-18T11:00:14Z</time>
      </trkpt>
      <trkpt lat="47.81852" lon="-3.68497">
        <ele>24</ele>
        <time>2018-07-18T11:00:15Z</time>
      </trkpt>
      <trkpt lat="47.81852" lon="-3.68497">
        <ele>24</ele>
        <time>2018-07-18T11:00:16Z</time>
      </trkpt>
      <trkpt lat="47.81853" lon="-3.68498">
        <ele>23</ele>
        <time>2018-07-18T11:00:17Z</time>
      </trkpt>
      <trkpt lat="47.81853" lon="-3.68501">
        <ele>21</ele>
        <time>2018-07-18T11:00:18Z</time>
      </trkpt>
      <trkpt lat="47.81852" lon="-3.68502">
        <ele>21</ele>
        <time>2018-07-18T11:00:19Z</time>
      </trkpt>
      <trkpt lat="47.81852" lon="-3.68503">
        <ele>21</ele>
        <time>2018-07-18T11:00:20Z</time>
      </trkpt>
      <trkpt lat="47.8185" lon="-3.68504">
        <ele>21</ele>
        <time>2018-07-18T11:00:21Z</time>
      </trkpt>
      <trkpt lat="47.81849" lon="-3.68505">
        <ele>21</ele>
        <time>2018-07-18T11:00:22Z</time>
      </trkpt>
      <trkpt lat="47.81848" lon="-3.68506">
        <ele>21</ele>
        <time>2018-07-18T11:00:23Z</time>
      </trkpt>
      <trkpt lat="47.81848" lon="-3.68507">
        <ele>21</ele>
        <time>2018-07-18T11:00:24Z</time>
      </trkpt>
      <trkpt lat="47.81847" lon="-3.68508">
        <ele>21</ele>
        <time>2018-07-18T11:00:25Z</time>
      </trkpt>
      <trkpt lat="47.81846" lon="-3.6851">
        <ele>21</ele>
        <time>2018-07-18T11:00:26Z</time>
      </trkpt>
      <trkpt lat="47.81846" lon="-3.68511">
        <ele>22</ele>
        <time>2018-07-18T11:00:27Z</time>
      </trkpt>
      <trkpt lat="47.81846" lon="-3.68513">
        <ele>22</ele>
        <time>2018-07-18T11:00:28Z</time>
      </trkpt>
      <trkpt lat="47.81846" lon="-3.68515">
        <ele>22</ele>
        <time>2018-07-18T11:00:29Z</time>
      </trkpt>
      <trkpt lat="47.81846" lon="-3.68516">
        <ele>22</ele>
        <time>2018-07-18T11:00:30Z</time>
      </trkpt>
      <trkpt lat="47.81846" lon="-3.68518">
        <ele>22</ele>
        <time>2018-07-18T11:00:31Z</time>
      </trkpt>
      <trkpt lat="47.81847" lon="-3.6852">
        <ele>22</ele>
        <time>2018-07-18T11:00:32Z</time>
      </trkpt>
      <trkpt lat="47.81848" lon="-3.68522">
        <ele>22</ele>
        <time>2018-07-18T11:00:33Z</time>
      </trkpt>
      <trkpt lat="47.8185" lon="-3.68524">
        <ele>22</ele>
        <time>2018-07-18T11:00:34Z</time>
      </trkpt>
      <trkpt lat="47.81851" lon="-3.68528">
        <ele>22</ele>
        <time>2018-07-18T11:00:35Z</time>
      </trkpt>
      <trkpt lat="47.81854" lon="-3.68533">
        <ele>22</ele>
        <time>2018-07-18T11:00:36Z</time>
      </trkpt>
      <trkpt lat="47.81855" lon="-3.68538">
        <ele>22</ele>
        <time>2018-07-18T11:00:37Z</time>
      </trkpt>
      <trkpt lat="47.81856" lon="-3.68543">
        <ele>22</ele>
        <time>2018-07-18T11:00:38Z</time>
      </trkpt>
      <trkpt lat="47.81856" lon="-3.68547">
        <ele>21</ele>
        <time>2018-07-18T11:00:39Z</time>
      </trkpt>
      <trkpt lat="47.81856" lon="-3.6855">
        <ele>21</ele>
        <time>2018-07-18T11:00:40Z</time>
      </trkpt>
      <trkpt lat="47.81856" lon="-3.68554">
        <ele>21</ele>
        <time>2018-07-18T11:00:41Z</time>
      </trkpt>
      <trkpt lat="47.81855" lon="-3.68558">
        <ele>22</ele>
        <time>2018-07-18T11:00:42Z</time>
      </trkpt>
      <trkpt lat="47.81855" lon="-3.68562">
        <ele>22</ele>
        <time>2018-07-18T11:00:43Z</time>
      </trkpt>
      <trkpt lat="47.81856" lon="-3.68565">
        <ele>22</ele>
        <time>2018-07-18T11:00:44Z</time>
      </trkpt>
      <trkpt lat="47.81856" lon="-3.68569">
        <ele>22</ele>
        <time>2018-07-18T11:00:45Z</time>
      </trkpt>
      <trkpt lat="47.81857" lon="-3.68572">
        <ele>22</ele>
        <time>2018-07-18T11:00:46Z</time>
      </trkpt>
      <trkpt lat="47.81858" lon="-3.68576">
        <ele>22</ele>
        <time>2018-07-18T11:00:47Z</time>
      </trkpt>
      <trkpt lat="47.81859" lon="-3.68579">
        <ele>23</ele>
        <time>2018-07-18T11:00:48Z</time>
      </trkpt>
      <trkpt lat="47.81859" lon="-3.68581">
        <ele>23</ele>
        <time>2018-07-18T11:00:49Z</time>
      </trkpt>
      <trkpt lat="47.8186" lon="-3.68584">
        <ele>23</ele>
        <time>2018-07-18T11:00:50Z</time>
      </trkpt>
      <trkpt lat="47.81862" lon="-3.68586">
        <ele>23</ele>
        <time>2018-07-18T11:00:51Z</time>
      </trkpt>
      <trkpt lat="47.81863" lon="-3.68589">
        <ele>23</ele>
        <time>2018-07-18T11:00:52Z</time>
      </trkpt>
      <trkpt lat="47.81864" lon="-3.68592">
        <ele>23</ele>
        <time>2018-07-18T11:00:53Z</time>
      </trkpt>
      <trkpt lat="47.81865" lon="-3.68595">
        <ele>23</ele>
        <time>2018-07-18T11:00:54Z</time>
      </trkpt>
      <trkpt lat="47.81867" lon="-3.686">
        <ele>23</ele>
        <time>2018-07-18T11:00:55Z</time>
      </trkpt>
      <trkpt lat="47.81868" lon="-3.68604">
        <ele>23</ele>
        <time>2018-07-18T11:00:56Z</time>
      </trkpt>
      <trkpt lat="47.81869" lon="-3.68608">
        <ele>23</ele>
        <time>2018-07-18T11:00:57Z</time>
      </trkpt>
      <trkpt lat="47.81869" lon="-3.68612">
        <ele>23</ele>
        <time>2018-07-18T11:00:58Z</time>
      </trkpt>
      <trkpt lat="47.8187" lon="-3.68615">
        <ele>23</ele>
        <time>2018-07-18T11:00:59Z</time>
      </trkpt>
      <trkpt lat="47.81871" lon="-3.68618">
        <ele>23</ele>
        <time>2018-07-18T11:01:00Z</time>
      </trkpt>
      <trkpt lat="47.81871" lon="-3.68622">
        <ele>23</ele>
        <time>2018-07-18T11:01:01Z</time>
      </trkpt>
      <trkpt lat="47.81872" lon="-3.68625">
        <ele>23</ele>
        <time>2018-07-18T11:01:02Z</time>
      </trkpt>
      <trkpt lat="47.81873" lon="-3.68627">
        <ele>23</ele>
        <time>2018-07-18T11:01:03Z</time>
      </trkpt>
      <trkpt lat="47.81874" lon="-3.6863">
        <ele>23</ele>
        <time>2018-07-18T11:01:04Z</time>
      </trkpt>
      <trkpt lat="47.81874" lon="-3.68632">
        <ele>23</ele>
        <time>2018-07-18T11:01:05Z</time>
      </trkpt>
      <trkpt lat="47.81874" lon="-3.68634">
        <ele>23</ele>
        <time>2018-07-18T11:01:06Z</time>
      </trkpt>
      <trkpt lat="47.81874" lon="-3.68637">
        <ele>23</ele>
        <time>2018-07-18T11:01:07Z</time>
      </trkpt>
      <trkpt lat="47.81875" lon="-3.6864">
        <ele>23</ele>
        <time>2018-07-18T11:01:08Z</time>
      </trkpt>
      <trkpt lat="47.81875" lon="-3.68644">
        <ele>23</ele>
        <time>2018-07-18T11:01:09Z</time>
      </trkpt>
      <trkpt lat="47.81875" lon="-3.68647">
        <ele>24</ele>
        <time>2018-07-18T11:01:10Z</time>
      </trkpt>
      <trkpt lat="47.81876" lon="-3.6865">
        <ele>24</ele>
        <time>2018-07-18T11:01:11Z</time>
      </trkpt>
      <trkpt lat="47.81878" lon="-3.68652">
        <ele>24</ele>
        <time>2018-07-18T11:01:12Z</time>
      </trkpt>
      <trkpt lat="47.81879" lon="-3.68655">
        <ele>24</ele>
        <time>2018-07-18T11:01:13Z</time>
      </trkpt>
      <trkpt lat="47.81881" lon="-3.68657">
        <ele>23</ele>
        <time>2018-07-18T11:01:14Z</time>
      </trkpt>
      <trkpt lat="47.81882" lon="-3.68659">
        <ele>23</ele>
        <time>2018-07-18T11:01:15Z</time>
      </trkpt>
      <trkpt lat="47.81884" lon="-3.68661">
        <ele>23</ele>
        <time>2018-07-18T11:01:16Z</time>
      </trkpt>
      <trkpt lat="47.81885" lon="-3.68662">
        <ele>23</ele>
        <time>2018-07-18T11:01:17Z</time>
      </trkpt>
      <trkpt lat="47.81887" lon="-3.68665">
        <ele>23</ele>
        <time>2018-07-18T11:01:18Z</time>
      </trkpt>
      <trkpt lat="47.81889" lon="-3.68668">
        <ele>23</ele>
        <time>2018-07-18T11:01:19Z</time>
      </trkpt>
      <trkpt lat="47.81891" lon="-3.6867">
        <ele>23</ele>
        <time>2018-07-18T11:01:20Z</time>
      </trkpt>
      <trkpt lat="47.81893" lon="-3.68672">
        <ele>22</ele>
        <time>2018-07-18T11:01:21Z</time>
      </trkpt>
      <trkpt lat="47.81895" lon="-3.68675">
        <ele>22</ele>
        <time>2018-07-18T11:01:22Z</time>
      </trkpt>
      <trkpt lat="47.81897" lon="-3.68679">
        <ele>22</ele>
        <time>2018-07-18T11:01:23Z</time>
      </trkpt>
      <trkpt lat="47.81899" lon="-3.68683">
        <ele>21</ele>
        <time>2018-07-18T11:01:24Z</time>
      </trkpt>
      <trkpt lat="47.819" lon="-3.68687">
        <ele>21</ele>
        <time>2018-07-18T11:01:25Z</time>
      </trkpt>
      <trkpt lat="47.81901" lon="-3.68691">
        <ele>21</ele>
        <time>2018-07-18T11:01:26Z</time>
      </trkpt>
      <trkpt lat="47.81902" lon="-3.68695">
        <ele>20</ele>
        <time>2018-07-18T11:01:27Z</time>
      </trkpt>
      <trkpt lat="47.81902" lon="-3.68697">
        <ele>20</ele>
        <time>2018-07-18T11:01:28Z</time>
      </trkpt>
      <trkpt lat="47.81902" lon="-3.687">
        <ele>20</ele>
        <time>2018-07-18T11:01:29Z</time>
      </trkpt>
      <trkpt lat="47.81903" lon="-3.68703">
        <ele>19</ele>
        <time>2018-07-18T11:01:30Z</time>
      </trkpt>
      <trkpt lat="47.81904" lon="-3.68705">
        <ele>19</ele>
        <time>2018-07-18T11:01:31Z</time>
      </trkpt>
      <trkpt lat="47.81904" lon="-3.68708">
        <ele>19</ele>
        <time>2018-07-18T11:01:32Z</time>
      </trkpt>
      <trkpt lat="47.81905" lon="-3.68711">
        <ele>18</ele>
        <time>2018-07-18T11:01:33Z</time>
      </trkpt>
      <trkpt lat="47.81906" lon="-3.68714">
        <ele>18</ele>
        <time>2018-07-18T11:01:34Z</time>
      </trkpt>
      <trkpt lat="47.81908" lon="-3.68718">
        <ele>18</ele>
        <time>2018-07-18T11:01:35Z</time>
      </trkpt>
      <trkpt lat="47.81909" lon="-3.68723">
        <ele>17</ele>
        <time>2018-07-18T11:01:36Z</time>
      </trkpt>
      <trkpt lat="47.81909" lon="-3.68727">
        <ele>17</ele>
        <time>2018-07-18T11:01:37Z</time>
      </trkpt>
      <trkpt lat="47.81909" lon="-3.68732">
        <ele>17</ele>
        <time>2018-07-18T11:01:38Z</time>
      </trkpt>
      <trkpt lat="47.81908" lon="-3.68736">
        <ele>16</ele>
        <time>2018-07-18T11:01:39Z</time>
      </trkpt>
      <trkpt lat="47.81907" lon="-3.6874">
        <ele>16</ele>
        <time>2018-07-18T11:01:40Z</time>
      </trkpt>
      <trkpt lat="47.81907" lon="-3.68744">
        <ele>15</ele>
        <time>2018-07-18T11:01:41Z</time>
      </trkpt>
      <trkpt lat="47.81906" lon="-3.68747">
        <ele>15</ele>
        <time>2018-07-18T11:01:42Z</time>
      </trkpt>
      <trkpt lat="47.81905" lon="-3.68751">
        <ele>15</ele>
        <time>2018-07-18T11:01:43Z</time>
      </trkpt>
      <trkpt lat="47.81905" lon="-3.68754">
        <ele>14</ele>
        <time>2018-07-18T11:01:44Z</time>
      </trkpt>
      <trkpt lat="47.81905" lon="-3.68757">
        <ele>14</ele>
        <time>2018-07-18T11:01:45Z</time>
      </trkpt>
      <trkpt lat="47.81904" lon="-3.6876">
        <ele>14</ele>
        <time>2018-07-18T11:01:46Z</time>
      </trkpt>
      <trkpt lat="47.81902" lon="-3.68763">
        <ele>13</ele>
        <time>2018-07-18T11:01:47Z</time>
      </trkpt>
      <trkpt lat="47.81902" lon="-3.68767">
        <ele>13</ele>
        <time>2018-07-18T11:01:48Z</time>
      </trkpt>
      <trkpt lat="47.81902" lon="-3.68771">
        <ele>13</ele>
        <time>2018-07-18T11:01:49Z</time>
      </trkpt>
      <trkpt lat="47.81902" lon="-3.68775">
        <ele>13</ele>
        <time>2018-07-18T11:01:50Z</time>
      </trkpt>
      <trkpt lat="47.81903" lon="-3.68779">
        <ele>12</ele>
        <time>2018-07-18T11:01:51Z</time>
      </trkpt>
      <trkpt lat="47.81904" lon="-3.68784">
        <ele>12</ele>
        <time>2018-07-18T11:01:52Z</time>
      </trkpt>
      <trkpt lat="47.81905" lon="-3.68787">
        <ele>12</ele>
        <time>2018-07-18T11:01:53Z</time>
      </trkpt>
      <trkpt lat="47.81907" lon="-3.6879">
        <ele>12</ele>
        <time>2018-07-18T11:01:54Z</time>
      </trkpt>
      <trkpt lat="47.81909" lon="-3.68795">
        <ele>12</ele>
        <time>2018-07-18T11:01:55Z</time>
      </trkpt>
      <trkpt lat="47.8191" lon="-3.68799">
        <ele>12</ele>
        <time>2018-07-18T11:01:56Z</time>
      </trkpt>
      <trkpt lat="47.81911" lon="-3.68802">
        <ele>13</ele>
        <time>2018-07-18T11:01:57Z</time>
      </trkpt>
      <trkpt lat="47.81913" lon="-3.68805">
        <ele>13</ele>
        <time>2018-07-18T11:01:58Z</time>
      </trkpt>
      <trkpt lat="47.81915" lon="-3.68808">
        <ele>13</ele>
        <time>2018-07-18T11:01:59Z</time>
      </trkpt>
      <trkpt lat="47.81917" lon="-3.6881">
        <ele>13</ele>
        <time>2018-07-18T11:02:00Z</time>
      </trkpt>
      <trkpt lat="47.81919" lon="-3.68812">
        <ele>13</ele>
        <time>2018-07-18T11:02:01Z</time>
      </trkpt>
      <trkpt lat="47.81919" lon="-3.68816">
        <ele>13</ele>
        <time>2018-07-18T11:02:02Z</time>
      </trkpt>
      <trkpt lat="47.8192" lon="-3.68821">
        <ele>13</ele>
        <time>2018-07-18T11:02:03Z</time>
      </trkpt>
      <trkpt lat="47.8192" lon="-3.68827">
        <ele>13</ele>
        <time>2018-07-18T11:02:04Z</time>
      </trkpt>
      <trkpt lat="47.8192" lon="-3.68832">
        <ele>13</ele>
        <time>2018-07-18T11:02:05Z</time>
      </trkpt>
      <trkpt lat="47.81919" lon="-3.68835">
        <ele>13</ele>
        <time>2018-07-18T11:02:06Z</time>
      </trkpt>
      <trkpt lat="47.81919" lon="-3.68838">
        <ele>13</ele>
        <time>2018-07-18T11:02:07Z</time>
      </trkpt>
      <trkpt lat="47.81919" lon="-3.68842">
        <ele>14</ele>
        <time>2018-07-18T11:02:08Z</time>
      </trkpt>
      <trkpt lat="47.8192" lon="-3.68844">
        <ele>14</ele>
        <time>2018-07-18T11:02:09Z</time>
      </trkpt>
      <trkpt lat="47.8192" lon="-3.68848">
        <ele>14</ele>
        <time>2018-07-18T11:02:10Z</time>
      </trkpt>
      <trkpt lat="47.8192" lon="-3.68852">
        <ele>14</ele>
        <time>2018-07-18T11:02:11Z</time>
      </trkpt>
      <trkpt lat="47.8192" lon="-3.68856">
        <ele>14</ele>
        <time>2018-07-18T11:02:12Z</time>
      </trkpt>
      <trkpt lat="47.81919" lon="-3.68859">
        <ele>14</ele>
        <time>2018-07-18T11:02:13Z</time>
      </trkpt>
      <trkpt lat="47.81918" lon="-3.68861">
        <ele>14</ele>
        <time>2018-07-18T11:02:14Z</time>
      </trkpt>
      <trkpt lat="47.81918" lon="-3.68865">
        <ele>14</ele>
        <time>2018-07-18T11:02:15Z</time>
      </trkpt>
      <trkpt lat="47.81917" lon="-3.68869">
        <ele>15</ele>
        <time>2018-07-18T11:02:16Z</time>
      </trkpt>
      <trkpt lat="47.81917" lon="-3.68872">
        <ele>15</ele>
        <time>2018-07-18T11:02:17Z</time>
      </trkpt>
      <trkpt lat="47.81918" lon="-3.68876">
        <ele>15</ele>
        <time>2018-07-18T11:02:18Z</time>
      </trkpt>
      <trkpt lat="47.81918" lon="-3.6888">
        <ele>15</ele>
        <time>2018-07-18T11:02:19Z</time>
      </trkpt>
      <trkpt lat="47.81918" lon="-3.68883">
        <ele>15</ele>
        <time>2018-07-18T11:02:20Z</time>
      </trkpt>
      <trkpt lat="47.81918" lon="-3.68888">
        <ele>15</ele>
        <time>2018-07-18T11:02:21Z</time>
      </trkpt>
      <trkpt lat="47.81917" lon="-3.68894">
        <ele>15</ele>
        <time>2018-07-18T11:02:22Z</time>
      </trkpt>
      <trkpt lat="47.81916" lon="-3.68899">
        <ele>15</ele>
        <time>2018-07-18T11:02:23Z</time>
      </trkpt>
      <trkpt lat="47.81915" lon="-3.68903">
        <ele>15</ele>
        <time>2018-07-18T11:02:24Z</time>
      </trkpt>
      <trkpt lat="47.81914" lon="-3.68907">
        <ele>15</ele>
        <time>2018-07-18T11:02:25Z</time>
      </trkpt>
      <trkpt lat="47.81913" lon="-3.68911">
        <ele>15</ele>
        <time>2018-07-18T11:02:26Z</time>
      </trkpt>
      <trkpt lat="47.81912" lon="-3.68915">
        <ele>15</ele>
        <time>2018-07-18T11:02:27Z</time>
      </trkpt>
      <trkpt lat="47.81911" lon="-3.68919">
        <ele>15</ele>
        <time>2018-07-18T11:02:28Z</time>
      </trkpt>
      <trkpt lat="47.8191" lon="-3.68924">
        <ele>15</ele>
        <time>2018-07-18T11:02:29Z</time>
      </trkpt>
      <trkpt lat="47.81909" lon="-3.68929">
        <ele>15</ele>
        <time>2018-07-18T11:02:30Z</time>
      </trkpt>
      <trkpt lat="47.81908" lon="-3.68933">
        <ele>15</ele>
        <time>2018-07-18T11:02:31Z</time>
      </trkpt>
      <trkpt lat="47.81906" lon="-3.68937">
        <ele>15</ele>
        <time>2018-07-18T11:02:32Z</time>
      </trkpt>
      <trkpt lat="47.81905" lon="-3.68941">
        <ele>15</ele>
        <time>2018-07-18T11:02:33Z</time>
      </trkpt>
      <trkpt lat="47.81904" lon="-3.68945">
        <ele>15</ele>
        <time>2018-07-18T11:02:34Z</time>
      </trkpt>
      <trkpt lat="47.81902" lon="-3.68949">
        <ele>15</ele>
        <time>2018-07-18T11:02:35Z</time>
      </trkpt>
      <trkpt lat="47.81901" lon="-3.68953">
        <ele>15</ele>
        <time>2018-07-18T11:02:36Z</time>
      </trkpt>
      <trkpt lat="47.81899" lon="-3.68956">
        <ele>15</ele>
        <time>2018-07-18T11:02:37Z</time>
      </trkpt>
      <trkpt lat="47.81898" lon="-3.68959">
        <ele>15</ele>
        <time>2018-07-18T11:02:38Z</time>
      </trkpt>
      <trkpt lat="47.81897" lon="-3.68962">
        <ele>15</ele>
        <time>2018-07-18T11:02:39Z</time>
      </trkpt>
      <trkpt lat="47.81897" lon="-3.68967">
        <ele>15</ele>
        <time>2018-07-18T11:02:40Z</time>
      </trkpt>
      <trkpt lat="47.81896" lon="-3.68972">
        <ele>15</ele>
        <time>2018-07-18T11:02:41Z</time>
      </trkpt>
      <trkpt lat="47.81896" lon="-3.68977">
        <ele>15</ele>
        <time>2018-07-18T11:02:42Z</time>
      </trkpt>
      <trkpt lat="47.81895" lon="-3.68982">
        <ele>15</ele>
        <time>2018-07-18T11:02:43Z</time>
      </trkpt>
      <trkpt lat="47.81894" lon="-3.68988">
        <ele>15</ele>
        <time>2018-07-18T11:02:44Z</time>
      </trkpt>
      <trkpt lat="47.81892" lon="-3.68993">
        <ele>15</ele>
        <time>2018-07-18T11:02:45Z</time>
      </trkpt>
      <trkpt lat="47.81891" lon="-3.69">
        <ele>15</ele>
        <time>2018-07-18T11:02:46Z</time>
      </trkpt>
      <trkpt lat="47.81889" lon="-3.69006">
        <ele>16</ele>
        <time>2018-07-18T11:02:47Z</time>
      </trkpt>
      <trkpt lat="47.81887" lon="-3.69012">
        <ele>16</ele>
        <time>2018-07-18T11:02:48Z</time>
      </trkpt>
      <trkpt lat="47.81885" lon="-3.69017">
        <ele>16</ele>
        <time>2018-07-18T11:02:49Z</time>
      </trkpt>
      <trkpt lat="47.81884" lon="-3.69022">
        <ele>16</ele>
        <time>2018-07-18T11:02:50Z</time>
      </trkpt>
      <trkpt lat="47.81883" lon="-3.69025">
        <ele>16</ele>
        <time>2018-07-18T11:02:51Z</time>
      </trkpt>
      <trkpt lat="47.81882" lon="-3.69029">
        <ele>16</ele>
        <time>2018-07-18T11:02:52Z</time>
      </trkpt>
      <trkpt lat="47.81881" lon="-3.69035">
        <ele>16</ele>
        <time>2018-07-18T11:02:53Z</time>
      </trkpt>
      <trkpt lat="47.81879" lon="-3.6904">
        <ele>17</ele>
        <time>2018-07-18T11:02:54Z</time>
      </trkpt>
      <trkpt lat="47.81878" lon="-3.69045">
        <ele>17</ele>
        <time>2018-07-18T11:02:55Z</time>
      </trkpt>
      <trkpt lat="47.81878" lon="-3.6905">
        <ele>17</ele>
        <time>2018-07-18T11:02:56Z</time>
      </trkpt>
      <trkpt lat="47.81878" lon="-3.69056">
        <ele>17</ele>
        <time>2018-07-18T11:02:57Z</time>
      </trkpt>
      <trkpt lat="47.81878" lon="-3.69063">
        <ele>17</ele>
        <time>2018-07-18T11:02:58Z</time>
      </trkpt>
      <trkpt lat="47.81878" lon="-3.6907">
        <ele>17</ele>
        <time>2018-07-18T11:02:59Z</time>
      </trkpt>
      <trkpt lat="47.81878" lon="-3.69077">
        <ele>17</ele>
        <time>2018-07-18T11:03:00Z</time>
      </trkpt>
      <trkpt lat="47.81876" lon="-3.69084">
        <ele>17</ele>
        <time>2018-07-18T11:03:01Z</time>
      </trkpt>
      <trkpt lat="47.81875" lon="-3.6909">
        <ele>17</ele>
        <time>2018-07-18T11:03:02Z</time>
      </trkpt>
      <trkpt lat="47.81874" lon="-3.69094">
        <ele>17</ele>
        <time>2018-07-18T11:03:03Z</time>
      </trkpt>
      <trkpt lat="47.81873" lon="-3.69098">
        <ele>17</ele>
        <time>2018-07-18T11:03:04Z</time>
      </trkpt>
      <trkpt lat="47.81872" lon="-3.69102">
        <ele>17</ele>
        <time>2018-07-18T11:03:05Z</time>
      </trkpt>
      <trkpt lat="47.81872" lon="-3.69108">
        <ele>17</ele>
        <time>2018-07-18T11:03:06Z</time>
      </trkpt>
      <trkpt lat="47.81871" lon="-3.69115">
        <ele>16</ele>
        <time>2018-07-18T11:03:07Z</time>
      </trkpt>
      <trkpt lat="47.81869" lon="-3.69123">
        <ele>16</ele>
        <time>2018-07-18T11:03:08Z</time>
      </trkpt>
      <trkpt lat="47.81868" lon="-3.69127">
        <ele>16</ele>
        <time>2018-07-18T11:03:09Z</time>
      </trkpt>
      <trkpt lat="47.81867" lon="-3.6913">
        <ele>16</ele>
        <time>2018-07-18T11:03:10Z</time>
      </trkpt>
      <trkpt lat="47.81866" lon="-3.69133">
        <ele>16</ele>
        <time>2018-07-18T11:03:11Z</time>
      </trkpt>
      <trkpt lat="47.81864" lon="-3.69134">
        <ele>16</ele>
        <time>2018-07-18T11:03:12Z</time>
      </trkpt>
      <trkpt lat="47.81862" lon="-3.69136">
        <ele>16</ele>
        <time>2018-07-18T11:03:13Z</time>
      </trkpt>
      <trkpt lat="47.81861" lon="-3.69137">
        <ele>16</ele>
        <time>2018-07-18T11:03:14Z</time>
      </trkpt>
      <trkpt lat="47.81859" lon="-3.69139">
        <ele>16</ele>
        <time>2018-07-18T11:03:15Z</time>
      </trkpt>
      <trkpt lat="47.81858" lon="-3.69141">
        <ele>16</ele>
        <time>2018-07-18T11:03:16Z</time>
      </trkpt>
      <trkpt lat="47.81857" lon="-3.69144">
        <ele>16</ele>
        <time>2018-07-18T11:03:17Z</time>
      </trkpt>
      <trkpt lat="47.81856" lon="-3.69147">
        <ele>16</ele>
        <time>2018-07-18T11:03:18Z</time>
      </trkpt>
      <trkpt lat="47.81856" lon="-3.69151">
        <ele>16</ele>
        <time>2018-07-18T11:03:19Z</time>
      </trkpt>
      <trkpt lat="47.81855" lon="-3.69154">
        <ele>16</ele>
        <time>2018-07-18T11:03:20Z</time>
      </trkpt>
      <trkpt lat="47.81854" lon="-3.69158">
        <ele>16</ele>
        <time>2018-07-18T11:03:21Z</time>
      </trkpt>
      <trkpt lat="47.81853" lon="-3.69162">
        <ele>15</ele>
        <time>2018-07-18T11:03:22Z</time>
      </trkpt>
      <trkpt lat="47.81852" lon="-3.69165">
        <ele>15</ele>
        <time>2018-07-18T11:03:23Z</time>
      </trkpt>
      <trkpt lat="47.81852" lon="-3.69169">
        <ele>15</ele>
        <time>2018-07-18T11:03:24Z</time>
      </trkpt>
      <trkpt lat="47.81851" lon="-3.69173">
        <ele>15</ele>
        <time>2018-07-18T11:03:25Z</time>
      </trkpt>
      <trkpt lat="47.8185" lon="-3.69176">
        <ele>15</ele>
        <time>2018-07-18T11:03:26Z</time>
      </trkpt>
      <trkpt lat="47.81849" lon="-3.69179">
        <ele>15</ele>
        <time>2018-07-18T11:03:27Z</time>
      </trkpt>
      <trkpt lat="47.81848" lon="-3.69182">
        <ele>15</ele>
        <time>2018-07-18T11:03:28Z</time>
      </trkpt>
      <trkpt lat="47.81848" lon="-3.69185">
        <ele>15</ele>
        <time>2018-07-18T11:03:29Z</time>
      </trkpt>
      <trkpt lat="47.81848" lon="-3.69189">
        <ele>15</ele>
        <time>2018-07-18T11:03:30Z</time>
      </trkpt>
      <trkpt lat="47.81848" lon="-3.69193">
        <ele>15</ele>
        <time>2018-07-18T11:03:31Z</time>
      </trkpt>
      <trkpt lat="47.81848" lon="-3.69199">
        <ele>14</ele>
        <time>2018-07-18T11:03:32Z</time>
      </trkpt>
      <trkpt lat="47.81847" lon="-3.69205">
        <ele>14</ele>
        <time>2018-07-18T11:03:33Z</time>
      </trkpt>
      <trkpt lat="47.81847" lon="-3.69208">
        <ele>14</ele>
        <time>2018-07-18T11:03:34Z</time>
      </trkpt>
      <trkpt lat="47.81846" lon="-3.6921">
        <ele>14</ele>
        <time>2018-07-18T11:03:35Z</time>
      </trkpt>
      <trkpt lat="47.81846" lon="-3.69211">
        <ele>14</ele>
        <time>2018-07-18T11:03:36Z</time>
      </trkpt>
      <trkpt lat="47.81846" lon="-3.69213">
        <ele>14</ele>
        <time>2018-07-18T11:03:37Z</time>
      </trkpt>
      <trkpt lat="47.81845" lon="-3.69214">
        <ele>14</ele>
        <time>2018-07-18T11:03:38Z</time>
      </trkpt>
      <trkpt lat="47.81845" lon="-3.69216">
        <ele>14</ele>
        <time>2018-07-18T11:03:39Z</time>
      </trkpt>
      <trkpt lat="47.81845" lon="-3.69218">
        <ele>13</ele>
        <time>2018-07-18T11:03:40Z</time>
      </trkpt>
      <trkpt lat="47.81845" lon="-3.69219">
        <ele>13</ele>
        <time>2018-07-18T11:03:41Z</time>
      </trkpt>
      <trkpt lat="47.81845" lon="-3.6922">
        <ele>13</ele>
        <time>2018-07-18T11:03:42Z</time>
      </trkpt>
      <trkpt lat="47.81844" lon="-3.69222">
        <ele>13</ele>
        <time>2018-07-18T11:03:43Z</time>
      </trkpt>
      <trkpt lat="47.81844" lon="-3.69223">
        <ele>13</ele>
        <time>2018-07-18T11:03:44Z</time>
      </trkpt>
      <trkpt lat="47.81844" lon="-3.69224">
        <ele>13</ele>
        <time>2018-07-18T11:03:45Z</time>
      </trkpt>
      <trkpt lat="47.81844" lon="-3.69225">
        <ele>13</ele>
        <time>2018-07-18T11:03:46Z</time>
      </trkpt>
      <trkpt lat="47.81844" lon="-3.69226">
        <ele>12</ele>
        <time>2018-07-18T11:03:47Z</time>
      </trkpt>
      <trkpt lat="47.81843" lon="-3.69234">
        <ele>11</ele>
        <time>2018-07-18T11:03:48Z</time>
      </trkpt>
      <trkpt lat="47.81842" lon="-3.69235">
        <ele>11</ele>
        <time>2018-07-18T11:03:49Z</time>
      </trkpt>
      <trkpt lat="47.81842" lon="-3.69238">
        <ele>11</ele>
        <time>2018-07-18T11:03:50Z</time>
      </trkpt>
      <trkpt lat="47.81842" lon="-3.6924">
        <ele>11</ele>
        <time>2018-07-18T11:03:51Z</time>
      </trkpt>
      <trkpt lat="47.81842" lon="-3.69242">
        <ele>11</ele>
        <time>2018-07-18T11:03:52Z</time>
      </trkpt>
      <trkpt lat="47.81842" lon="-3.69244">
        <ele>11</ele>
        <time>2018-07-18T11:03:53Z</time>
      </trkpt>
      <trkpt lat="47.81843" lon="-3.69246">
        <ele>11</ele>
        <time>2018-07-18T11:03:54Z</time>
      </trkpt>
      <trkpt lat="47.81844" lon="-3.69248">
        <ele>11</ele>
        <time>2018-07-18T11:03:55Z</time>
      </trkpt>
      <trkpt lat="47.81846" lon="-3.69251">
        <ele>11</ele>
        <time>2018-07-18T11:03:56Z</time>
      </trkpt>
      <trkpt lat="47.81847" lon="-3.69253">
        <ele>11</ele>
        <time>2018-07-18T11:03:57Z</time>
      </trkpt>
      <trkpt lat="47.81848" lon="-3.69255">
        <ele>11</ele>
        <time>2018-07-18T11:03:58Z</time>
      </trkpt>
      <trkpt lat="47.8185" lon="-3.69258">
        <ele>11</ele>
        <time>2018-07-18T11:03:59Z</time>
      </trkpt>
      <trkpt lat="47.81851" lon="-3.69259">
        <ele>11</ele>
        <time>2018-07-18T11:04:00Z</time>
      </trkpt>
      <trkpt lat="47.81852" lon="-3.69262">
        <ele>11</ele>
        <time>2018-07-18T11:04:01Z</time>
      </trkpt>
      <trkpt lat="47.81853" lon="-3.69265">
        <ele>11</ele>
        <time>2018-07-18T11:04:02Z</time>
      </trkpt>
      <trkpt lat="47.81855" lon="-3.69267">
        <ele>11</ele>
        <time>2018-07-18T11:04:03Z</time>
      </trkpt>
      <trkpt lat="47.81858" lon="-3.69269">
        <ele>11</ele>
        <time>2018-07-18T11:04:04Z</time>
      </trkpt>
      <trkpt lat="47.8186" lon="-3.69272">
        <ele>11</ele>
        <time>2018-07-18T11:04:05Z</time>
      </trkpt>
      <trkpt lat="47.81862" lon="-3.69274">
        <ele>11</ele>
        <time>2018-07-18T11:04:06Z</time>
      </trkpt>
      <trkpt lat="47.81865" lon="-3.69275">
        <ele>11</ele>
        <time>2018-07-18T11:04:07Z</time>
      </trkpt>
      <trkpt lat="47.81868" lon="-3.69278">
        <ele>10</ele>
        <time>2018-07-18T11:04:08Z</time>
      </trkpt>
      <trkpt lat="47.8187" lon="-3.69281">
        <ele>10</ele>
        <time>2018-07-18T11:04:09Z</time>
      </trkpt>
      <trkpt lat="47.81872" lon="-3.69284">
        <ele>10</ele>
        <time>2018-07-18T11:04:10Z</time>
      </trkpt>
      <trkpt lat="47.81874" lon="-3.69287">
        <ele>10</ele>
        <time>2018-07-18T11:04:11Z</time>
      </trkpt>
      <trkpt lat="47.81875" lon="-3.6929">
        <ele>10</ele>
        <time>2018-07-18T11:04:12Z</time>
      </trkpt>
      <trkpt lat="47.81876" lon="-3.69294">
        <ele>10</ele>
        <time>2018-07-18T11:04:13Z</time>
      </trkpt>
      <trkpt lat="47.81877" lon="-3.69297">
        <ele>10</ele>
        <time>2018-07-18T11:04:14Z</time>
      </trkpt>
      <trkpt lat="47.81878" lon="-3.693">
        <ele>9</ele>
        <time>2018-07-18T11:04:15Z</time>
      </trkpt>
      <trkpt lat="47.81878" lon="-3.69303">
        <ele>9</ele>
        <time>2018-07-18T11:04:16Z</time>
      </trkpt>
      <trkpt lat="47.81879" lon="-3.69307">
        <ele>9</ele>
        <time>2018-07-18T11:04:17Z</time>
      </trkpt>
      <trkpt lat="47.81879" lon="-3.69311">
        <ele>9</ele>
        <time>2018-07-18T11:04:18Z</time>
      </trkpt>
      <trkpt lat="47.81879" lon="-3.69315">
        <ele>9</ele>
        <time>2018-07-18T11:04:19Z</time>
      </trkpt>
      <trkpt lat="47.8188" lon="-3.6932">
        <ele>9</ele>
        <time>2018-07-18T11:04:20Z</time>
      </trkpt>
      <trkpt lat="47.81881" lon="-3.69325">
        <ele>9</ele>
        <time>2018-07-18T11:04:21Z</time>
      </trkpt>
      <trkpt lat="47.81882" lon="-3.69331">
        <ele>8</ele>
        <time>2018-07-18T11:04:22Z</time>
      </trkpt>
      <trkpt lat="47.81882" lon="-3.69337">
        <ele>8</ele>
        <time>2018-07-18T11:04:23Z</time>
      </trkpt>
      <trkpt lat="47.81883" lon="-3.69341">
        <ele>8</ele>
        <time>2018-07-18T11:04:24Z</time>
      </trkpt>
      <trkpt lat="47.81883" lon="-3.69346">
        <ele>8</ele>
        <time>2018-07-18T11:04:25Z</time>
      </trkpt>
      <trkpt lat="47.81884" lon="-3.69351">
        <ele>8</ele>
        <time>2018-07-18T11:04:26Z</time>
      </trkpt>
      <trkpt lat="47.81885" lon="-3.69356">
        <ele>8</ele>
        <time>2018-07-18T11:04:27Z</time>
      </trkpt>
      <trkpt lat="47.81885" lon="-3.69361">
        <ele>8</ele>
        <time>2018-07-18T11:04:28Z</time>
      </trkpt>
      <trkpt lat="47.81885" lon="-3.69366">
        <ele>8</ele>
        <time>2018-07-18T11:04:29Z</time>
      </trkpt>
      <trkpt lat="47.81885" lon="-3.69371">
        <ele>8</ele>
        <time>2018-07-18T11:04:30Z</time>
      </trkpt>
      <trkpt lat="47.81885" lon="-3.69376">
        <ele>8</ele>
        <time>2018-07-18T11:04:31Z</time>
      </trkpt>
      <trkpt lat="47.81887" lon="-3.69382">
        <ele>8</ele>
        <time>2018-07-18T11:04:32Z</time>
      </trkpt>
      <trkpt lat="47.81888" lon="-3.69388">
        <ele>8</ele>
        <time>2018-07-18T11:04:33Z</time>
      </trkpt>
      <trkpt lat="47.81889" lon="-3.69394">
        <ele>8</ele>
        <time>2018-07-18T11:04:34Z</time>
      </trkpt>
      <trkpt lat="47.8189" lon="-3.69399">
        <ele>8</ele>
        <time>2018-07-18T11:04:35Z</time>
      </trkpt>
      <trkpt lat="47.81891" lon="-3.69403">
        <ele>8</ele>
        <time>2018-07-18T11:04:36Z</time>
      </trkpt>
      <trkpt lat="47.81892" lon="-3.69407">
        <ele>8</ele>
        <time>2018-07-18T11:04:37Z</time>
      </trkpt>
      <trkpt lat="47.81893" lon="-3.69413">
        <ele>8</ele>
        <time>2018-07-18T11:04:38Z</time>
      </trkpt>
      <trkpt lat="47.81894" lon="-3.69419">
        <ele>8</ele>
        <time>2018-07-18T11:04:39Z</time>
      </trkpt>
      <trkpt lat="47.81894" lon="-3.69425">
        <ele>8</ele>
        <time>2018-07-18T11:04:40Z</time>
      </trkpt>
      <trkpt lat="47.81895" lon="-3.69431">
        <ele>8</ele>
        <time>2018-07-18T11:04:41Z</time>
      </trkpt>
      <trkpt lat="47.81895" lon="-3.69437">
        <ele>8</ele>
        <time>2018-07-18T11:04:42Z</time>
      </trkpt>
      <trkpt lat="47.81894" lon="-3.69443">
        <ele>8</ele>
        <time>2018-07-18T11:04:43Z</time>
      </trkpt>
      <trkpt lat="47.81894" lon="-3.6945">
        <ele>8</ele>
        <time>2018-07-18T11:04:44Z</time>
      </trkpt>
      <trkpt lat="47.81894" lon="-3.69456">
        <ele>8</ele>
        <time>2018-07-18T11:04:45Z</time>
      </trkpt>
      <trkpt lat="47.81894" lon="-3.69462">
        <ele>8</ele>
        <time>2018-07-18T11:04:46Z</time>
      </trkpt>
      <trkpt lat="47.81893" lon="-3.69467">
        <ele>8</ele>
        <time>2018-07-18T11:04:47Z</time>
      </trkpt>
      <trkpt lat="47.81894" lon="-3.69473">
        <ele>8</ele>
        <time>2018-07-18T11:04:48Z</time>
      </trkpt>
      <trkpt lat="47.81894" lon="-3.6948">
        <ele>8</ele>
        <time>2018-07-18T11:04:49Z</time>
      </trkpt>
      <trkpt lat="47.81895" lon="-3.69486">
        <ele>9</ele>
        <time>2018-07-18T11:04:50Z</time>
      </trkpt>
      <trkpt lat="47.81896" lon="-3.69492">
        <ele>9</ele>
        <time>2018-07-18T11:04:51Z</time>
      </trkpt>
      <trkpt lat="47.81896" lon="-3.69497">
        <ele>9</ele>
        <time>2018-07-18T11:04:52Z</time>
      </trkpt>
      <trkpt lat="47.81896" lon="-3.69502">
        <ele>8</ele>
        <time>2018-07-18T11:04:53Z</time>
      </trkpt>
      <trkpt lat="47.81896" lon="-3.69505">
        <ele>8</ele>
        <time>2018-07-18T11:04:54Z</time>
      </trkpt>
      <trkpt lat="47.81896" lon="-3.69511">
        <ele>8</ele>
        <time>2018-07-18T11:04:55Z</time>
      </trkpt>
      <trkpt lat="47.81897" lon="-3.69517">
        <ele>8</ele>
        <time>2018-07-18T11:04:56Z</time>
      </trkpt>
      <trkpt lat="47.81898" lon="-3.69523">
        <ele>8</ele>
        <time>2018-07-18T11:04:57Z</time>
      </trkpt>
      <trkpt lat="47.81899" lon="-3.6953">
        <ele>8</ele>
        <time>2018-07-18T11:04:58Z</time>
      </trkpt>
      <trkpt lat="47.81899" lon="-3.69537">
        <ele>8</ele>
        <time>2018-07-18T11:04:59Z</time>
      </trkpt>
      <trkpt lat="47.81899" lon="-3.69544">
        <ele>7</ele>
        <time>2018-07-18T11:05:00Z</time>
      </trkpt>
      <trkpt lat="47.819" lon="-3.69551">
        <ele>7</ele>
        <time>2018-07-18T11:05:01Z</time>
      </trkpt>
      <trkpt lat="47.819" lon="-3.69558">
        <ele>7</ele>
        <time>2018-07-18T11:05:02Z</time>
      </trkpt>
      <trkpt lat="47.81899" lon="-3.69567">
        <ele>7</ele>
        <time>2018-07-18T11:05:03Z</time>
      </trkpt>
      <trkpt lat="47.81898" lon="-3.69575">
        <ele>7</ele>
        <time>2018-07-18T11:05:04Z</time>
      </trkpt>
      <trkpt lat="47.81898" lon="-3.69581">
        <ele>7</ele>
        <time>2018-07-18T11:05:05Z</time>
      </trkpt>
      <trkpt lat="47.81897" lon="-3.69586">
        <ele>7</ele>
        <time>2018-07-18T11:05:06Z</time>
      </trkpt>
      <trkpt lat="47.81896" lon="-3.69591">
        <ele>6</ele>
        <time>2018-07-18T11:05:07Z</time>
      </trkpt>
      <trkpt lat="47.81896" lon="-3.69596">
        <ele>6</ele>
        <time>2018-07-18T11:05:08Z</time>
      </trkpt>
      <trkpt lat="47.81897" lon="-3.69602">
        <ele>6</ele>
        <time>2018-07-18T11:05:09Z</time>
      </trkpt>
      <trkpt lat="47.81897" lon="-3.69608">
        <ele>6</ele>
        <time>2018-07-18T11:05:10Z</time>
      </trkpt>
      <trkpt lat="47.81898" lon="-3.69615">
        <ele>6</ele>
        <time>2018-07-18T11:05:11Z</time>
      </trkpt>
      <trkpt lat="47.81899" lon="-3.69621">
        <ele>6</ele>
        <time>2018-07-18T11:05:12Z</time>
      </trkpt>
      <trkpt lat="47.81899" lon="-3.69626">
        <ele>5</ele>
        <time>2018-07-18T11:05:13Z</time>
      </trkpt>
      <trkpt lat="47.819" lon="-3.69631">
        <ele>5</ele>
        <time>2018-07-18T11:05:14Z</time>
      </trkpt>
      <trkpt lat="47.81901" lon="-3.69634">
        <ele>5</ele>
        <time>2018-07-18T11:05:15Z</time>
      </trkpt>
      <trkpt lat="47.81901" lon="-3.69638">
        <ele>5</ele>
        <time>2018-07-18T11:05:16Z</time>
      </trkpt>
      <trkpt lat="47.819" lon="-3.69643">
        <ele>5</ele>
        <time>2018-07-18T11:05:17Z</time>
      </trkpt>
      <trkpt lat="47.81898" lon="-3.69648">
        <ele>5</ele>
        <time>2018-07-18T11:05:18Z</time>
      </trkpt>
      <trkpt lat="47.81897" lon="-3.69653">
        <ele>5</ele>
        <time>2018-07-18T11:05:19Z</time>
      </trkpt>
      <trkpt lat="47.81895" lon="-3.69658">
        <ele>5</ele>
        <time>2018-07-18T11:05:20Z</time>
      </trkpt>
      <trkpt lat="47.81894" lon="-3.69662">
        <ele>5</ele>
        <time>2018-07-18T11:05:21Z</time>
      </trkpt>
      <trkpt lat="47.81893" lon="-3.69667">
        <ele>5</ele>
        <time>2018-07-18T11:05:22Z</time>
      </trkpt>
      <trkpt lat="47.81891" lon="-3.69672">
        <ele>5</ele>
        <time>2018-07-18T11:05:23Z</time>
      </trkpt>
      <trkpt lat="47.81889" lon="-3.69677">
        <ele>5</ele>
        <time>2018-07-18T11:05:24Z</time>
      </trkpt>
      <trkpt lat="47.81888" lon="-3.69681">
        <ele>5</ele>
        <time>2018-07-18T11:05:25Z</time>
      </trkpt>
      <trkpt lat="47.81887" lon="-3.69686">
        <ele>5</ele>
        <time>2018-07-18T11:05:26Z</time>
      </trkpt>
      <trkpt lat="47.81885" lon="-3.69691">
        <ele>5</ele>
        <time>2018-07-18T11:05:27Z</time>
      </trkpt>
      <trkpt lat="47.81882" lon="-3.69696">
        <ele>5</ele>
        <time>2018-07-18T11:05:28Z</time>
      </trkpt>
      <trkpt lat="47.8188" lon="-3.697">
        <ele>4</ele>
        <time>2018-07-18T11:05:29Z</time>
      </trkpt>
      <trkpt lat="47.81877" lon="-3.69701">
        <ele>4</ele>
        <time>2018-07-18T11:05:30Z</time>
      </trkpt>
      <trkpt lat="47.81875" lon="-3.69702">
        <ele>4</ele>
        <time>2018-07-18T11:05:31Z</time>
      </trkpt>
      <trkpt lat="47.81873" lon="-3.69701">
        <ele>4</ele>
        <time>2018-07-18T11:05:32Z</time>
      </trkpt>
      <trkpt lat="47.81872" lon="-3.697">
        <ele>4</ele>
        <time>2018-07-18T11:05:33Z</time>
      </trkpt>
      <trkpt lat="47.81871" lon="-3.69699">
        <ele>4</ele>
        <time>2018-07-18T11:05:34Z</time>
      </trkpt>
      <trkpt lat="47.8187" lon="-3.69697">
        <ele>4</ele>
        <time>2018-07-18T11:05:35Z</time>
      </trkpt>
      <trkpt lat="47.81869" lon="-3.69695">
        <ele>4</ele>
        <time>2018-07-18T11:05:36Z</time>
      </trkpt>
      <trkpt lat="47.81867" lon="-3.69694">
        <ele>4</ele>
        <time>2018-07-18T11:05:37Z</time>
      </trkpt>
      <trkpt lat="47.81866" lon="-3.69692">
        <ele>4</ele>
        <time>2018-07-18T11:05:38Z</time>
      </trkpt>
      <trkpt lat="47.81864" lon="-3.69691">
        <ele>5</ele>
        <time>2018-07-18T11:05:39Z</time>
      </trkpt>
      <trkpt lat="47.81862" lon="-3.6969">
        <ele>5</ele>
        <time>2018-07-18T11:05:40Z</time>
      </trkpt>
      <trkpt lat="47.8186" lon="-3.6969">
        <ele>5</ele>
        <time>2018-07-18T11:05:41Z</time>
      </trkpt>
      <trkpt lat="47.81858" lon="-3.6969">
        <ele>5</ele>
        <time>2018-07-18T11:05:42Z</time>
      </trkpt>
      <trkpt lat="47.81856" lon="-3.69691">
        <ele>5</ele>
        <time>2018-07-18T11:05:43Z</time>
      </trkpt>
      <trkpt lat="47.81853" lon="-3.69692">
        <ele>6</ele>
        <time>2018-07-18T11:05:44Z</time>
      </trkpt>
      <trkpt lat="47.81851" lon="-3.69691">
        <ele>6</ele>
        <time>2018-07-18T11:05:45Z</time>
      </trkpt>
      <trkpt lat="47.81848" lon="-3.69691">
        <ele>6</ele>
        <time>2018-07-18T11:05:46Z</time>
      </trkpt>
      <trkpt lat="47.81846" lon="-3.69691">
        <ele>7</ele>
        <time>2018-07-18T11:05:47Z</time>
      </trkpt>
      <trkpt lat="47.81845" lon="-3.6969">
        <ele>7</ele>
        <time>2018-07-18T11:05:48Z</time>
      </trkpt>
      <trkpt lat="47.81843" lon="-3.6969">
        <ele>7</ele>
        <time>2018-07-18T11:05:49Z</time>
      </trkpt>
      <trkpt lat="47.81841" lon="-3.6969">
        <ele>7</ele>
        <time>2018-07-18T11:05:50Z</time>
      </trkpt>
      <trkpt lat="47.81838" lon="-3.69692">
        <ele>8</ele>
        <time>2018-07-18T11:05:51Z</time>
      </trkpt>
      <trkpt lat="47.81835" lon="-3.69695">
        <ele>8</ele>
        <time>2018-07-18T11:05:52Z</time>
      </trkpt>
      <trkpt lat="47.81833" lon="-3.69698">
        <ele>8</ele>
        <time>2018-07-18T11:05:53Z</time>
      </trkpt>
      <trkpt lat="47.81831" lon="-3.69701">
        <ele>8</ele>
        <time>2018-07-18T11:05:54Z</time>
      </trkpt>
      <trkpt lat="47.81829" lon="-3.69704">
        <ele>9</ele>
        <time>2018-07-18T11:05:55Z</time>
      </trkpt>
      <trkpt lat="47.81826" lon="-3.69708">
        <ele>9</ele>
        <time>2018-07-18T11:05:56Z</time>
      </trkpt>
      <trkpt lat="47.81826" lon="-3.6971">
        <ele>9</ele>
        <time>2018-07-18T11:05:57Z</time>
      </trkpt>
      <trkpt lat="47.81826" lon="-3.69714">
        <ele>10</ele>
        <time>2018-07-18T11:05:58Z</time>
      </trkpt>
      <trkpt lat="47.81825" lon="-3.69718">
        <ele>10</ele>
        <time>2018-07-18T11:05:59Z</time>
      </trkpt>
      <trkpt lat="47.81826" lon="-3.69722">
        <ele>10</ele>
        <time>2018-07-18T11:06:00Z</time>
      </trkpt>
      <trkpt lat="47.81825" lon="-3.69726">
        <ele>10</ele>
        <time>2018-07-18T11:06:01Z</time>
      </trkpt>
      <trkpt lat="47.81824" lon="-3.69731">
        <ele>11</ele>
        <time>2018-07-18T11:06:02Z</time>
      </trkpt>
      <trkpt lat="47.81822" lon="-3.69737">
        <ele>11</ele>
        <time>2018-07-18T11:06:03Z</time>
      </trkpt>
      <trkpt lat="47.81821" lon="-3.69741">
        <ele>11</ele>
        <time>2018-07-18T11:06:04Z</time>
      </trkpt>
      <trkpt lat="47.81819" lon="-3.69745">
        <ele>11</ele>
        <time>2018-07-18T11:06:05Z</time>
      </trkpt>
      <trkpt lat="47.81818" lon="-3.69749">
        <ele>11</ele>
        <time>2018-07-18T11:06:06Z</time>
      </trkpt>
      <trkpt lat="47.81817" lon="-3.69752">
        <ele>11</ele>
        <time>2018-07-18T11:06:07Z</time>
      </trkpt>
      <trkpt lat="47.81816" lon="-3.69756">
        <ele>11</ele>
        <time>2018-07-18T11:06:08Z</time>
      </trkpt>
      <trkpt lat="47.81815" lon="-3.6976">
        <ele>11</ele>
        <time>2018-07-18T11:06:09Z</time>
      </trkpt>
      <trkpt lat="47.81813" lon="-3.69764">
        <ele>11</ele>
        <time>2018-07-18T11:06:10Z</time>
      </trkpt>
      <trkpt lat="47.81811" lon="-3.69768">
        <ele>11</ele>
        <time>2018-07-18T11:06:11Z</time>
      </trkpt>
      <trkpt lat="47.81808" lon="-3.6977">
        <ele>11</ele>
        <time>2018-07-18T11:06:12Z</time>
      </trkpt>
      <trkpt lat="47.81805" lon="-3.69771">
        <ele>11</ele>
        <time>2018-07-18T11:06:13Z</time>
      </trkpt>
      <trkpt lat="47.81802" lon="-3.69773">
        <ele>11</ele>
        <time>2018-07-18T11:06:14Z</time>
      </trkpt>
      <trkpt lat="47.81799" lon="-3.69774">
        <ele>11</ele>
        <time>2018-07-18T11:06:15Z</time>
      </trkpt>
      <trkpt lat="47.81797" lon="-3.69774">
        <ele>10</ele>
        <time>2018-07-18T11:06:16Z</time>
      </trkpt>
      <trkpt lat="47.81794" lon="-3.69775">
        <ele>10</ele>
        <time>2018-07-18T11:06:17Z</time>
      </trkpt>
      <trkpt lat="47.81792" lon="-3.69776">
        <ele>10</ele>
        <time>2018-07-18T11:06:18Z</time>
      </trkpt>
      <trkpt lat="47.8179" lon="-3.69777">
        <ele>10</ele>
        <time>2018-07-18T11:06:19Z</time>
      </trkpt>
      <trkpt lat="47.81788" lon="-3.69779">
        <ele>10</ele>
        <time>2018-07-18T11:06:20Z</time>
      </trkpt>
      <trkpt lat="47.81787" lon="-3.69781">
        <ele>10</ele>
        <time>2018-07-18T11:06:21Z</time>
      </trkpt>
      <trkpt lat="47.81787" lon="-3.69784">
        <ele>10</ele>
        <time>2018-07-18T11:06:22Z</time>
      </trkpt>
      <trkpt lat="47.81786" lon="-3.69789">
        <ele>10</ele>
        <time>2018-07-18T11:06:23Z</time>
      </trkpt>
      <trkpt lat="47.81784" lon="-3.69795">
        <ele>10</ele>
        <time>2018-07-18T11:06:24Z</time>
      </trkpt>
      <trkpt lat="47.81782" lon="-3.69801">
        <ele>10</ele>
        <time>2018-07-18T11:06:25Z</time>
      </trkpt>
      <trkpt lat="47.8178" lon="-3.69806">
        <ele>10</ele>
        <time>2018-07-18T11:06:26Z</time>
      </trkpt>
      <trkpt lat="47.81779" lon="-3.6981">
        <ele>10</ele>
        <time>2018-07-18T11:06:27Z</time>
      </trkpt>
      <trkpt lat="47.81778" lon="-3.69814">
        <ele>10</ele>
        <time>2018-07-18T11:06:28Z</time>
      </trkpt>
      <trkpt lat="47.81776" lon="-3.69819">
        <ele>10</ele>
        <time>2018-07-18T11:06:29Z</time>
      </trkpt>
      <trkpt lat="47.81774" lon="-3.69823">
        <ele>10</ele>
        <time>2018-07-18T11:06:30Z</time>
      </trkpt>
      <trkpt lat="47.81771" lon="-3.69828">
        <ele>11</ele>
        <time>2018-07-18T11:06:31Z</time>
      </trkpt>
      <trkpt lat="47.81769" lon="-3.69832">
        <ele>11</ele>
        <time>2018-07-18T11:06:32Z</time>
      </trkpt>
      <trkpt lat="47.81767" lon="-3.69836">
        <ele>11</ele>
        <time>2018-07-18T11:06:33Z</time>
      </trkpt>
      <trkpt lat="47.81765" lon="-3.6984">
        <ele>11</ele>
        <time>2018-07-18T11:06:34Z</time>
      </trkpt>
      <trkpt lat="47.81764" lon="-3.69844">
        <ele>11</ele>
        <time>2018-07-18T11:06:35Z</time>
      </trkpt>
      <trkpt lat="47.81763" lon="-3.69849">
        <ele>12</ele>
        <time>2018-07-18T11:06:36Z</time>
      </trkpt>
      <trkpt lat="47.81762" lon="-3.69855">
        <ele>12</ele>
        <time>2018-07-18T11:06:37Z</time>
      </trkpt>
      <trkpt lat="47.81761" lon="-3.69861">
        <ele>12</ele>
        <time>2018-07-18T11:06:38Z</time>
      </trkpt>
      <trkpt lat="47.81759" lon="-3.69867">
        <ele>12</ele>
        <time>2018-07-18T11:06:39Z</time>
      </trkpt>
      <trkpt lat="47.81757" lon="-3.69873">
        <ele>12</ele>
        <time>2018-07-18T11:06:40Z</time>
      </trkpt>
      <trkpt lat="47.81754" lon="-3.69879">
        <ele>12</ele>
        <time>2018-07-18T11:06:41Z</time>
      </trkpt>
      <trkpt lat="47.81751" lon="-3.69885">
        <ele>12</ele>
        <time>2018-07-18T11:06:42Z</time>
      </trkpt>
      <trkpt lat="47.81749" lon="-3.69892">
        <ele>12</ele>
        <time>2018-07-18T11:06:43Z</time>
      </trkpt>
      <trkpt lat="47.81747" lon="-3.69898">
        <ele>12</ele>
        <time>2018-07-18T11:06:44Z</time>
      </trkpt>
      <trkpt lat="47.81745" lon="-3.69902">
        <ele>11</ele>
        <time>2018-07-18T11:06:45Z</time>
      </trkpt>
      <trkpt lat="47.81742" lon="-3.69907">
        <ele>11</ele>
        <time>2018-07-18T11:06:46Z</time>
      </trkpt>
      <trkpt lat="47.81741" lon="-3.69911">
        <ele>11</ele>
        <time>2018-07-18T11:06:47Z</time>
      </trkpt>
      <trkpt lat="47.81738" lon="-3.69915">
        <ele>11</ele>
        <time>2018-07-18T11:06:48Z</time>
      </trkpt>
      <trkpt lat="47.81736" lon="-3.69919">
        <ele>11</ele>
        <time>2018-07-18T11:06:49Z</time>
      </trkpt>
      <trkpt lat="47.81734" lon="-3.69924">
        <ele>11</ele>
        <time>2018-07-18T11:06:50Z</time>
      </trkpt>
      <trkpt lat="47.81733" lon="-3.69929">
        <ele>11</ele>
        <time>2018-07-18T11:06:51Z</time>
      </trkpt>
      <trkpt lat="47.81731" lon="-3.69932">
        <ele>11</ele>
        <time>2018-07-18T11:06:52Z</time>
      </trkpt>
      <trkpt lat="47.81729" lon="-3.69935">
        <ele>10</ele>
        <time>2018-07-18T11:06:53Z</time>
      </trkpt>
      <trkpt lat="47.81726" lon="-3.69937">
        <ele>10</ele>
        <time>2018-07-18T11:06:54Z</time>
      </trkpt>
      <trkpt lat="47.81723" lon="-3.69938">
        <ele>10</ele>
        <time>2018-07-18T11:06:55Z</time>
      </trkpt>
      <trkpt lat="47.81721" lon="-3.69939">
        <ele>10</ele>
        <time>2018-07-18T11:06:56Z</time>
      </trkpt>
      <trkpt lat="47.81718" lon="-3.69939">
        <ele>10</ele>
        <time>2018-07-18T11:06:57Z</time>
      </trkpt>
      <trkpt lat="47.81715" lon="-3.69939">
        <ele>10</ele>
        <time>2018-07-18T11:06:58Z</time>
      </trkpt>
      <trkpt lat="47.81713" lon="-3.69939">
        <ele>10</ele>
        <time>2018-07-18T11:06:59Z</time>
      </trkpt>
      <trkpt lat="47.8171" lon="-3.6994">
        <ele>10</ele>
        <time>2018-07-18T11:07:00Z</time>
      </trkpt>
      <trkpt lat="47.81708" lon="-3.69939">
        <ele>11</ele>
        <time>2018-07-18T11:07:01Z</time>
      </trkpt>
      <trkpt lat="47.81706" lon="-3.6994">
        <ele>11</ele>
        <time>2018-07-18T11:07:02Z</time>
      </trkpt>
      <trkpt lat="47.81705" lon="-3.69941">
        <ele>11</ele>
        <time>2018-07-18T11:07:03Z</time>
      </trkpt>
      <trkpt lat="47.81704" lon="-3.69941">
        <ele>11</ele>
        <time>2018-07-18T11:07:04Z</time>
      </trkpt>
      <trkpt lat="47.81703" lon="-3.69941">
        <ele>11</ele>
        <time>2018-07-18T11:07:05Z</time>
      </trkpt>
      <trkpt lat="47.81702" lon="-3.69942">
        <ele>11</ele>
        <time>2018-07-18T11:07:06Z</time>
      </trkpt>
      <trkpt lat="47.817" lon="-3.69944">
        <ele>11</ele>
        <time>2018-07-18T11:07:07Z</time>
      </trkpt>
      <trkpt lat="47.81698" lon="-3.69947">
        <ele>12</ele>
        <time>2018-07-18T11:07:08Z</time>
      </trkpt>
      <trkpt lat="47.81696" lon="-3.69949">
        <ele>11</ele>
        <time>2018-07-18T11:07:09Z</time>
      </trkpt>
      <trkpt lat="47.81694" lon="-3.69952">
        <ele>11</ele>
        <time>2018-07-18T11:07:10Z</time>
      </trkpt>
      <trkpt lat="47.81691" lon="-3.69955">
        <ele>11</ele>
        <time>2018-07-18T11:07:11Z</time>
      </trkpt>
      <trkpt lat="47.81689" lon="-3.69959">
        <ele>11</ele>
        <time>2018-07-18T11:07:12Z</time>
      </trkpt>
      <trkpt lat="47.81686" lon="-3.69963">
        <ele>11</ele>
        <time>2018-07-18T11:07:13Z</time>
      </trkpt>
      <trkpt lat="47.81682" lon="-3.69968">
        <ele>11</ele>
        <time>2018-07-18T11:07:14Z</time>
      </trkpt>
      <trkpt lat="47.81677" lon="-3.69973">
        <ele>11</ele>
        <time>2018-07-18T11:07:15Z</time>
      </trkpt>
      <trkpt lat="47.81671" lon="-3.69978">
        <ele>11</ele>
        <time>2018-07-18T11:07:16Z</time>
      </trkpt>
      <trkpt lat="47.81665" lon="-3.69983">
        <ele>10</ele>
        <time>2018-07-18T11:07:17Z</time>
      </trkpt>
      <trkpt lat="47.81659" lon="-3.69988">
        <ele>10</ele>
        <time>2018-07-18T11:07:18Z</time>
      </trkpt>
      <trkpt lat="47.81654" lon="-3.69994">
        <ele>10</ele>
        <time>2018-07-18T11:07:19Z</time>
      </trkpt>
      <trkpt lat="47.81649" lon="-3.69998">
        <ele>10</ele>
        <time>2018-07-18T11:07:20Z</time>
      </trkpt>
      <trkpt lat="47.81645" lon="-3.70003">
        <ele>10</ele>
        <time>2018-07-18T11:07:21Z</time>
      </trkpt>
      <trkpt lat="47.81642" lon="-3.70007">
        <ele>10</ele>
        <time>2018-07-18T11:07:22Z</time>
      </trkpt>
      <trkpt lat="47.81639" lon="-3.70011">
        <ele>10</ele>
        <time>2018-07-18T11:07:23Z</time>
      </trkpt>
      <trkpt lat="47.81636" lon="-3.70015">
        <ele>9</ele>
        <time>2018-07-18T11:07:24Z</time>
      </trkpt>
      <trkpt lat="47.81634" lon="-3.70017">
        <ele>9</ele>
        <time>2018-07-18T11:07:25Z</time>
      </trkpt>
      <trkpt lat="47.81632" lon="-3.70019">
        <ele>9</ele>
        <time>2018-07-18T11:07:26Z</time>
      </trkpt>
      <trkpt lat="47.81631" lon="-3.7002">
        <ele>9</ele>
        <time>2018-07-18T11:07:27Z</time>
      </trkpt>
      <trkpt lat="47.8163" lon="-3.70021">
        <ele>9</ele>
        <time>2018-07-18T11:07:28Z</time>
      </trkpt>
      <trkpt lat="47.81629" lon="-3.70021">
        <ele>9</ele>
        <time>2018-07-18T11:07:29Z</time>
      </trkpt>
      <trkpt lat="47.81629" lon="-3.70022">
        <ele>9</ele>
        <time>2018-07-18T11:07:30Z</time>
      </trkpt>
      <trkpt lat="47.81627" lon="-3.70023">
        <ele>9</ele>
        <time>2018-07-18T11:07:31Z</time>
      </trkpt>
      <trkpt lat="47.81626" lon="-3.70023">
        <ele>9</ele>
        <time>2018-07-18T11:07:32Z</time>
      </trkpt>
      <trkpt lat="47.81625" lon="-3.70024">
        <ele>9</ele>
        <time>2018-07-18T11:07:33Z</time>
      </trkpt>
      <trkpt lat="47.81624" lon="-3.70025">
        <ele>9</ele>
        <time>2018-07-18T11:07:34Z</time>
      </trkpt>
      <trkpt lat="47.81624" lon="-3.70026">
        <ele>9</ele>
        <time>2018-07-18T11:07:35Z</time>
      </trkpt>
      <trkpt lat="47.81623" lon="-3.70026">
        <ele>9</ele>
        <time>2018-07-18T11:07:36Z</time>
      </trkpt>
      <trkpt lat="47.81623" lon="-3.70027">
        <ele>9</ele>
        <time>2018-07-18T11:07:37Z</time>
      </trkpt>
      <trkpt lat="47.81623" lon="-3.70027">
        <ele>9</ele>
        <time>2018-07-18T11:07:38Z</time>
      </trkpt>
      <trkpt lat="47.81617" lon="-3.70032">
        <ele>9</ele>
        <time>2018-07-18T11:07:39Z</time>
      </trkpt>
      <trkpt lat="47.81615" lon="-3.70033">
        <ele>9</ele>
        <time>2018-07-18T11:07:40Z</time>
      </trkpt>
      <trkpt lat="47.81613" lon="-3.70033">
        <ele>9</ele>
        <time>2018-07-18T11:07:41Z</time>
      </trkpt>
      <trkpt lat="47.81612" lon="-3.70033">
        <ele>9</ele>
        <time>2018-07-18T11:07:42Z</time>
      </trkpt>
      <trkpt lat="47.8161" lon="-3.70032">
        <ele>9</ele>
        <time>2018-07-18T11:07:43Z</time>
      </trkpt>
      <trkpt lat="47.81609" lon="-3.70032">
        <ele>9</ele>
        <time>2018-07-18T11:07:44Z</time>
      </trkpt>
      <trkpt lat="47.81606" lon="-3.70032">
        <ele>9</ele>
        <time>2018-07-18T11:07:45Z</time>
      </trkpt>
      <trkpt lat="47.81604" lon="-3.70033">
        <ele>9</ele>
        <time>2018-07-18T11:07:46Z</time>
      </trkpt>
      <trkpt lat="47.81603" lon="-3.70033">
        <ele>9</ele>
        <time>2018-07-18T11:07:47Z</time>
      </trkpt>
      <trkpt lat="47.81602" lon="-3.70033">
        <ele>9</ele>
        <time>2018-07-18T11:07:48Z</time>
      </trkpt>
      <trkpt lat="47.81601" lon="-3.70033">
        <ele>9</ele>
        <time>2018-07-18T11:07:49Z</time>
      </trkpt>
      <trkpt lat="47.81601" lon="-3.70033">
        <ele>9</ele>
        <time>2018-07-18T11:07:50Z</time>
      </trkpt>
      <trkpt lat="47.816" lon="-3.70033">
        <ele>9</ele>
        <time>2018-07-18T11:07:51Z</time>
      </trkpt>
      <trkpt lat="47.81599" lon="-3.70033">
        <ele>9</ele>
        <time>2018-07-18T11:07:52Z</time>
      </trkpt>
      <trkpt lat="47.81599" lon="-3.70033">
        <ele>9</ele>
        <time>2018-07-18T11:07:53Z</time>
      </trkpt>
      <trkpt lat="47.81598" lon="-3.70032">
        <ele>9</ele>
        <time>2018-07-18T11:07:54Z</time>
      </trkpt>
      <trkpt lat="47.81597" lon="-3.70032">
        <ele>10</ele>
        <time>2018-07-18T11:07:55Z</time>
      </trkpt>
      <trkpt lat="47.81597" lon="-3.70033">
        <ele>10</ele>
        <time>2018-07-18T11:07:56Z</time>
      </trkpt>
      <trkpt lat="47.81597" lon="-3.70033">
        <ele>10</ele>
        <time>2018-07-18T11:07:57Z</time>
      </trkpt>
      <trkpt lat="47.81597" lon="-3.70033">
        <ele>10</ele>
        <time>2018-07-18T11:07:58Z</time>
      </trkpt>
      <trkpt lat="47.81597" lon="-3.70033">
        <ele>10</ele>
        <time>2018-07-18T11:07:59Z</time>
      </trkpt>
      <trkpt lat="47.81595" lon="-3.70034">
        <ele>10</ele>
        <time>2018-07-18T11:08:00Z</time>
      </trkpt>
      <trkpt lat="47.81594" lon="-3.70035">
        <ele>10</ele>
        <time>2018-07-18T11:08:01Z</time>
      </trkpt>
      <trkpt lat="47.81592" lon="-3.70036">
        <ele>10</ele>
        <time>2018-07-18T11:08:02Z</time>
      </trkpt>
      <trkpt lat="47.8159" lon="-3.70036">
        <ele>10</ele>
        <time>2018-07-18T11:08:03Z</time>
      </trkpt>
      <trkpt lat="47.81588" lon="-3.70036">
        <ele>10</ele>
        <time>2018-07-18T11:08:04Z</time>
      </trkpt>
      <trkpt lat="47.81586" lon="-3.70037">
        <ele>11</ele>
        <time>2018-07-18T11:08:05Z</time>
      </trkpt>
      <trkpt lat="47.81584" lon="-3.70038">
        <ele>11</ele>
        <time>2018-07-18T11:08:06Z</time>
      </trkpt>
      <trkpt lat="47.81583" lon="-3.70038">
        <ele>11</ele>
        <time>2018-07-18T11:08:07Z</time>
      </trkpt>
      <trkpt lat="47.81581" lon="-3.70038">
        <ele>11</ele>
        <time>2018-07-18T11:08:08Z</time>
      </trkpt>
      <trkpt lat="47.8158" lon="-3.70037">
        <ele>11</ele>
        <time>2018-07-18T11:08:09Z</time>
      </trkpt>
      <trkpt lat="47.81579" lon="-3.70036">
        <ele>11</ele>
        <time>2018-07-18T11:08:10Z</time>
      </trkpt>
      <trkpt lat="47.81578" lon="-3.70035">
        <ele>12</ele>
        <time>2018-07-18T11:08:11Z</time>
      </trkpt>
      <trkpt lat="47.81577" lon="-3.70034">
        <ele>12</ele>
        <time>2018-07-18T11:08:12Z</time>
      </trkpt>
      <trkpt lat="47.81577" lon="-3.70033">
        <ele>12</ele>
        <time>2018-07-18T11:08:13Z</time>
      </trkpt>
      <trkpt lat="47.81577" lon="-3.70031">
        <ele>13</ele>
        <time>2018-07-18T11:08:14Z</time>
      </trkpt>
      <trkpt lat="47.81577" lon="-3.7003">
        <ele>13</ele>
        <time>2018-07-18T11:08:15Z</time>
      </trkpt>
      <trkpt lat="47.81577" lon="-3.70029">
        <ele>13</ele>
        <time>2018-07-18T11:08:16Z</time>
      </trkpt>
      <trkpt lat="47.81577" lon="-3.70029">
        <ele>13</ele>
        <time>2018-07-18T11:08:17Z</time>
      </trkpt>
      <trkpt lat="47.81577" lon="-3.70029">
        <ele>13</ele>
        <time>2018-07-18T11:08:18Z</time>
      </trkpt>
      <trkpt lat="47.81577" lon="-3.70029">
        <ele>13</ele>
        <time>2018-07-18T11:08:19Z</time>
      </trkpt>
      <trkpt lat="47.81573" lon="-3.70028">
        <ele>16</ele>
        <time>2018-07-18T11:08:20Z</time>
      </trkpt>
      <trkpt lat="47.81572" lon="-3.70028">
        <ele>16</ele>
        <time>2018-07-18T11:08:21Z</time>
      </trkpt>
      <trkpt lat="47.81571" lon="-3.70029">
        <ele>16</ele>
        <time>2018-07-18T11:08:22Z</time>
      </trkpt>
      <trkpt lat="47.81569" lon="-3.7003">
        <ele>16</ele>
        <time>2018-07-18T11:08:23Z</time>
      </trkpt>
      <trkpt lat="47.81568" lon="-3.70032">
        <ele>16</ele>
        <time>2018-07-18T11:08:24Z</time>
      </trkpt>
      <trkpt lat="47.81567" lon="-3.70033">
        <ele>17</ele>
        <time>2018-07-18T11:08:25Z</time>
      </trkpt>
      <trkpt lat="47.81565" lon="-3.70035">
        <ele>17</ele>
        <time>2018-07-18T11:08:26Z</time>
      </trkpt>
      <trkpt lat="47.81563" lon="-3.70037">
        <ele>17</ele>
        <time>2018-07-18T11:08:27Z</time>
      </trkpt>
      <trkpt lat="47.81561" lon="-3.70038">
        <ele>17</ele>
        <time>2018-07-18T11:08:28Z</time>
      </trkpt>
      <trkpt lat="47.81559" lon="-3.70039">
        <ele>17</ele>
        <time>2018-07-18T11:08:29Z</time>
      </trkpt>
      <trkpt lat="47.81557" lon="-3.7004">
        <ele>17</ele>
        <time>2018-07-18T11:08:30Z</time>
      </trkpt>
      <trkpt lat="47.81554" lon="-3.70041">
        <ele>17</ele>
        <time>2018-07-18T11:08:31Z</time>
      </trkpt>
      <trkpt lat="47.81552" lon="-3.7004">
        <ele>18</ele>
        <time>2018-07-18T11:08:32Z</time>
      </trkpt>
      <trkpt lat="47.8155" lon="-3.70042">
        <ele>18</ele>
        <time>2018-07-18T11:08:33Z</time>
      </trkpt>
      <trkpt lat="47.81548" lon="-3.70043">
        <ele>18</ele>
        <time>2018-07-18T11:08:34Z</time>
      </trkpt>
      <trkpt lat="47.81546" lon="-3.70046">
        <ele>18</ele>
        <time>2018-07-18T11:08:35Z</time>
      </trkpt>
      <trkpt lat="47.81543" lon="-3.70048">
        <ele>18</ele>
        <time>2018-07-18T11:08:36Z</time>
      </trkpt>
      <trkpt lat="47.81541" lon="-3.7005">
        <ele>18</ele>
        <time>2018-07-18T11:08:37Z</time>
      </trkpt>
      <trkpt lat="47.81539" lon="-3.70052">
        <ele>18</ele>
        <time>2018-07-18T11:08:38Z</time>
      </trkpt>
      <trkpt lat="47.81537" lon="-3.70056">
        <ele>18</ele>
        <time>2018-07-18T11:08:39Z</time>
      </trkpt>
      <trkpt lat="47.81534" lon="-3.70059">
        <ele>18</ele>
        <time>2018-07-18T11:08:40Z</time>
      </trkpt>
      <trkpt lat="47.81531" lon="-3.70064">
        <ele>18</ele>
        <time>2018-07-18T11:08:41Z</time>
      </trkpt>
      <trkpt lat="47.81529" lon="-3.70069">
        <ele>18</ele>
        <time>2018-07-18T11:08:42Z</time>
      </trkpt>
      <trkpt lat="47.81524" lon="-3.70073">
        <ele>18</ele>
        <time>2018-07-18T11:08:43Z</time>
      </trkpt>
      <trkpt lat="47.8152" lon="-3.70077">
        <ele>18</ele>
        <time>2018-07-18T11:08:44Z</time>
      </trkpt>
      <trkpt lat="47.81515" lon="-3.70079">
        <ele>18</ele>
        <time>2018-07-18T11:08:45Z</time>
      </trkpt>
      <trkpt lat="47.81511" lon="-3.70081">
        <ele>18</ele>
        <time>2018-07-18T11:08:46Z</time>
      </trkpt>
      <trkpt lat="47.81509" lon="-3.70083">
        <ele>18</ele>
        <time>2018-07-18T11:08:47Z</time>
      </trkpt>
      <trkpt lat="47.81507" lon="-3.70085">
        <ele>18</ele>
        <time>2018-07-18T11:08:48Z</time>
      </trkpt>
      <trkpt lat="47.81505" lon="-3.70088">
        <ele>18</ele>
        <time>2018-07-18T11:08:49Z</time>
      </trkpt>
      <trkpt lat="47.81503" lon="-3.70092">
        <ele>18</ele>
        <time>2018-07-18T11:08:50Z</time>
      </trkpt>
      <trkpt lat="47.81501" lon="-3.70097">
        <ele>18</ele>
        <time>2018-07-18T11:08:51Z</time>
      </trkpt>
      <trkpt lat="47.81499" lon="-3.70102">
        <ele>18</ele>
        <time>2018-07-18T11:08:52Z</time>
      </trkpt>
      <trkpt lat="47.81496" lon="-3.70105">
        <ele>18</ele>
        <time>2018-07-18T11:08:53Z</time>
      </trkpt>
      <trkpt lat="47.81494" lon="-3.70108">
        <ele>18</ele>
        <time>2018-07-18T11:08:54Z</time>
      </trkpt>
      <trkpt lat="47.81491" lon="-3.7011">
        <ele>18</ele>
        <time>2018-07-18T11:08:55Z</time>
      </trkpt>
      <trkpt lat="47.81488" lon="-3.70112">
        <ele>18</ele>
        <time>2018-07-18T11:08:56Z</time>
      </trkpt>
      <trkpt lat="47.81485" lon="-3.70114">
        <ele>19</ele>
        <time>2018-07-18T11:08:57Z</time>
      </trkpt>
      <trkpt lat="47.81483" lon="-3.70115">
        <ele>19</ele>
        <time>2018-07-18T11:08:58Z</time>
      </trkpt>
      <trkpt lat="47.81481" lon="-3.70117">
        <ele>19</ele>
        <time>2018-07-18T11:08:59Z</time>
      </trkpt>
      <trkpt lat="47.81478" lon="-3.70119">
        <ele>19</ele>
        <time>2018-07-18T11:09:00Z</time>
      </trkpt>
      <trkpt lat="47.81476" lon="-3.70121">
        <ele>19</ele>
        <time>2018-07-18T11:09:01Z</time>
      </trkpt>
      <trkpt lat="47.81474" lon="-3.70122">
        <ele>19</ele>
        <time>2018-07-18T11:09:02Z</time>
      </trkpt>
      <trkpt lat="47.81472" lon="-3.70124">
        <ele>19</ele>
        <time>2018-07-18T11:09:03Z</time>
      </trkpt>
      <trkpt lat="47.81469" lon="-3.70126">
        <ele>19</ele>
        <time>2018-07-18T11:09:04Z</time>
      </trkpt>
      <trkpt lat="47.81467" lon="-3.70128">
        <ele>19</ele>
        <time>2018-07-18T11:09:05Z</time>
      </trkpt>
      <trkpt lat="47.81465" lon="-3.70129">
        <ele>19</ele>
        <time>2018-07-18T11:09:06Z</time>
      </trkpt>
      <trkpt lat="47.81462" lon="-3.70131">
        <ele>19</ele>
        <time>2018-07-18T11:09:07Z</time>
      </trkpt>
      <trkpt lat="47.8146" lon="-3.70132">
        <ele>19</ele>
        <time>2018-07-18T11:09:08Z</time>
      </trkpt>
      <trkpt lat="47.81457" lon="-3.70134">
        <ele>20</ele>
        <time>2018-07-18T11:09:09Z</time>
      </trkpt>
      <trkpt lat="47.81453" lon="-3.70136">
        <ele>20</ele>
        <time>2018-07-18T11:09:10Z</time>
      </trkpt>
      <trkpt lat="47.81451" lon="-3.70139">
        <ele>20</ele>
        <time>2018-07-18T11:09:11Z</time>
      </trkpt>
      <trkpt lat="47.81447" lon="-3.70144">
        <ele>20</ele>
        <time>2018-07-18T11:09:12Z</time>
      </trkpt>
      <trkpt lat="47.81444" lon="-3.70147">
        <ele>20</ele>
        <time>2018-07-18T11:09:13Z</time>
      </trkpt>
      <trkpt lat="47.8144" lon="-3.7015">
        <ele>20</ele>
        <time>2018-07-18T11:09:14Z</time>
      </trkpt>
      <trkpt lat="47.81435" lon="-3.70155">
        <ele>20</ele>
        <time>2018-07-18T11:09:15Z</time>
      </trkpt>
      <trkpt lat="47.81431" lon="-3.7016">
        <ele>20</ele>
        <time>2018-07-18T11:09:16Z</time>
      </trkpt>
      <trkpt lat="47.81428" lon="-3.70166">
        <ele>20</ele>
        <time>2018-07-18T11:09:17Z</time>
      </trkpt>
      <trkpt lat="47.81424" lon="-3.7017">
        <ele>20</ele>
        <time>2018-07-18T11:09:18Z</time>
      </trkpt>
      <trkpt lat="47.81421" lon="-3.70174">
        <ele>20</ele>
        <time>2018-07-18T11:09:19Z</time>
      </trkpt>
      <trkpt lat="47.81418" lon="-3.70177">
        <ele>19</ele>
        <time>2018-07-18T11:09:20Z</time>
      </trkpt>
      <trkpt lat="47.81415" lon="-3.70179">
        <ele>19</ele>
        <time>2018-07-18T11:09:21Z</time>
      </trkpt>
      <trkpt lat="47.81412" lon="-3.70182">
        <ele>19</ele>
        <time>2018-07-18T11:09:22Z</time>
      </trkpt>
      <trkpt lat="47.81409" lon="-3.70184">
        <ele>19</ele>
        <time>2018-07-18T11:09:23Z</time>
      </trkpt>
      <trkpt lat="47.81406" lon="-3.70187">
        <ele>19</ele>
        <time>2018-07-18T11:09:24Z</time>
      </trkpt>
      <trkpt lat="47.81403" lon="-3.7019">
        <ele>19</ele>
        <time>2018-07-18T11:09:25Z</time>
      </trkpt>
      <trkpt lat="47.814" lon="-3.70192">
        <ele>19</ele>
        <time>2018-07-18T11:09:26Z</time>
      </trkpt>
      <trkpt lat="47.81397" lon="-3.70193">
        <ele>18</ele>
        <time>2018-07-18T11:09:27Z</time>
      </trkpt>
      <trkpt lat="47.81395" lon="-3.70194">
        <ele>18</ele>
        <time>2018-07-18T11:09:28Z</time>
      </trkpt>
      <trkpt lat="47.81393" lon="-3.70194">
        <ele>18</ele>
        <time>2018-07-18T11:09:29Z</time>
      </trkpt>
      <trkpt lat="47.81391" lon="-3.70194">
        <ele>18</ele>
        <time>2018-07-18T11:09:30Z</time>
      </trkpt>
      <trkpt lat="47.81389" lon="-3.70193">
        <ele>18</ele>
        <time>2018-07-18T11:09:31Z</time>
      </trkpt>
      <trkpt lat="47.81387" lon="-3.70193">
        <ele>18</ele>
        <time>2018-07-18T11:09:32Z</time>
      </trkpt>
      <trkpt lat="47.81385" lon="-3.70193">
        <ele>18</ele>
        <time>2018-07-18T11:09:33Z</time>
      </trkpt>
      <trkpt lat="47.81382" lon="-3.70193">
        <ele>18</ele>
        <time>2018-07-18T11:09:34Z</time>
      </trkpt>
      <trkpt lat="47.81379" lon="-3.70194">
        <ele>18</ele>
        <time>2018-07-18T11:09:35Z</time>
      </trkpt>
      <trkpt lat="47.81376" lon="-3.70195">
        <ele>18</ele>
        <time>2018-07-18T11:09:36Z</time>
      </trkpt>
      <trkpt lat="47.81372" lon="-3.70197">
        <ele>18</ele>
        <time>2018-07-18T11:09:37Z</time>
      </trkpt>
      <trkpt lat="47.81369" lon="-3.70197">
        <ele>17</ele>
        <time>2018-07-18T11:09:38Z</time>
      </trkpt>
      <trkpt lat="47.81365" lon="-3.70197">
        <ele>17</ele>
        <time>2018-07-18T11:09:39Z</time>
      </trkpt>
      <trkpt lat="47.81362" lon="-3.70197">
        <ele>17</ele>
        <time>2018-07-18T11:09:40Z</time>
      </trkpt>
      <trkpt lat="47.81359" lon="-3.70195">
        <ele>17</ele>
        <time>2018-07-18T11:09:41Z</time>
      </trkpt>
      <trkpt lat="47.81357" lon="-3.70192">
        <ele>17</ele>
        <time>2018-07-18T11:09:42Z</time>
      </trkpt>
      <trkpt lat="47.81355" lon="-3.70189">
        <ele>17</ele>
        <time>2018-07-18T11:09:43Z</time>
      </trkpt>
      <trkpt lat="47.81353" lon="-3.70186">
        <ele>17</ele>
        <time>2018-07-18T11:09:44Z</time>
      </trkpt>
      <trkpt lat="47.81351" lon="-3.70184">
        <ele>17</ele>
        <time>2018-07-18T11:09:45Z</time>
      </trkpt>
      <trkpt lat="47.8135" lon="-3.70182">
        <ele>16</ele>
        <time>2018-07-18T11:09:46Z</time>
      </trkpt>
      <trkpt lat="47.81349" lon="-3.70181">
        <ele>16</ele>
        <time>2018-07-18T11:09:47Z</time>
      </trkpt>
      <trkpt lat="47.81348" lon="-3.70179">
        <ele>16</ele>
        <time>2018-07-18T11:09:48Z</time>
      </trkpt>
      <trkpt lat="47.81347" lon="-3.70177">
        <ele>16</ele>
        <time>2018-07-18T11:09:49Z</time>
      </trkpt>
      <trkpt lat="47.81346" lon="-3.70175">
        <ele>16</ele>
        <time>2018-07-18T11:09:50Z</time>
      </trkpt>
      <trkpt lat="47.81345" lon="-3.70172">
        <ele>16</ele>
        <time>2018-07-18T11:09:51Z</time>
      </trkpt>
      <trkpt lat="47.81344" lon="-3.7017">
        <ele>15</ele>
        <time>2018-07-18T11:09:52Z</time>
      </trkpt>
      <trkpt lat="47.81343" lon="-3.70167">
        <ele>15</ele>
        <time>2018-07-18T11:09:53Z</time>
      </trkpt>
      <trkpt lat="47.81343" lon="-3.70166">
        <ele>15</ele>
        <time>2018-07-18T11:09:54Z</time>
      </trkpt>
      <trkpt lat="47.81341" lon="-3.70165">
        <ele>15</ele>
        <time>2018-07-18T11:09:55Z</time>
      </trkpt>
      <trkpt lat="47.81339" lon="-3.70165">
        <ele>15</ele>
        <time>2018-07-18T11:09:56Z</time>
      </trkpt>
      <trkpt lat="47.81336" lon="-3.70165">
        <ele>15</ele>
        <time>2018-07-18T11:09:57Z</time>
      </trkpt>
      <trkpt lat="47.81332" lon="-3.70162">
        <ele>14</ele>
        <time>2018-07-18T11:09:58Z</time>
      </trkpt>
      <trkpt lat="47.81328" lon="-3.70159">
        <ele>14</ele>
        <time>2018-07-18T11:09:59Z</time>
      </trkpt>
      <trkpt lat="47.81324" lon="-3.70156">
        <ele>14</ele>
        <time>2018-07-18T11:10:00Z</time>
      </trkpt>
      <trkpt lat="47.81321" lon="-3.70153">
        <ele>14</ele>
        <time>2018-07-18T11:10:01Z</time>
      </trkpt>
      <trkpt lat="47.81319" lon="-3.70149">
        <ele>13</ele>
        <time>2018-07-18T11:10:02Z</time>
      </trkpt>
      <trkpt lat="47.81317" lon="-3.70145">
        <ele>13</ele>
        <time>2018-07-18T11:10:03Z</time>
      </trkpt>
      <trkpt lat="47.81316" lon="-3.70142">
        <ele>13</ele>
        <time>2018-07-18T11:10:04Z</time>
      </trkpt>
      <trkpt lat="47.81314" lon="-3.70138">
        <ele>13</ele>
        <time>2018-07-18T11:10:05Z</time>
      </trkpt>
      <trkpt lat="47.81312" lon="-3.70135">
        <ele>13</ele>
        <time>2018-07-18T11:10:06Z</time>
      </trkpt>
      <trkpt lat="47.81311" lon="-3.70133">
        <ele>13</ele>
        <time>2018-07-18T11:10:07Z</time>
      </trkpt>
      <trkpt lat="47.81308" lon="-3.7013">
        <ele>12</ele>
        <time>2018-07-18T11:10:08Z</time>
      </trkpt>
      <trkpt lat="47.81307" lon="-3.70126">
        <ele>12</ele>
        <time>2018-07-18T11:10:09Z</time>
      </trkpt>
      <trkpt lat="47.81305" lon="-3.70122">
        <ele>12</ele>
        <time>2018-07-18T11:10:10Z</time>
      </trkpt>
      <trkpt lat="47.81304" lon="-3.70116">
        <ele>12</ele>
        <time>2018-07-18T11:10:11Z</time>
      </trkpt>
      <trkpt lat="47.81302" lon="-3.70111">
        <ele>12</ele>
        <time>2018-07-18T11:10:12Z</time>
      </trkpt>
      <trkpt lat="47.81301" lon="-3.70106">
        <ele>12</ele>
        <time>2018-07-18T11:10:13Z</time>
      </trkpt>
      <trkpt lat="47.813" lon="-3.70102">
        <ele>12</ele>
        <time>2018-07-18T11:10:14Z</time>
      </trkpt>
      <trkpt lat="47.81299" lon="-3.70099">
        <ele>12</ele>
        <time>2018-07-18T11:10:15Z</time>
      </trkpt>
      <trkpt lat="47.81298" lon="-3.70096">
        <ele>12</ele>
        <time>2018-07-18T11:10:16Z</time>
      </trkpt>
      <trkpt lat="47.81298" lon="-3.70092">
        <ele>12</ele>
        <time>2018-07-18T11:10:17Z</time>
      </trkpt>
      <trkpt lat="47.81297" lon="-3.70087">
        <ele>12</ele>
        <time>2018-07-18T11:10:18Z</time>
      </trkpt>
      <trkpt lat="47.81296" lon="-3.70083">
        <ele>12</ele>
        <time>2018-07-18T11:10:19Z</time>
      </trkpt>
      <trkpt lat="47.81294" lon="-3.70079">
        <ele>12</ele>
        <time>2018-07-18T11:10:20Z</time>
      </trkpt>
      <trkpt lat="47.81294" lon="-3.70074">
        <ele>12</ele>
        <time>2018-07-18T11:10:21Z</time>
      </trkpt>
      <trkpt lat="47.81293" lon="-3.7007">
        <ele>12</ele>
        <time>2018-07-18T11:10:22Z</time>
      </trkpt>
      <trkpt lat="47.81292" lon="-3.70066">
        <ele>12</ele>
        <time>2018-07-18T11:10:23Z</time>
      </trkpt>
      <trkpt lat="47.81291" lon="-3.70061">
        <ele>12</ele>
        <time>2018-07-18T11:10:24Z</time>
      </trkpt>
      <trkpt lat="47.8129" lon="-3.70056">
        <ele>12</ele>
        <time>2018-07-18T11:10:25Z</time>
      </trkpt>
      <trkpt lat="47.81289" lon="-3.70051">
        <ele>12</ele>
        <time>2018-07-18T11:10:26Z</time>
      </trkpt>
      <trkpt lat="47.81289" lon="-3.70048">
        <ele>12</ele>
        <time>2018-07-18T11:10:27Z</time>
      </trkpt>
      <trkpt lat="47.81288" lon="-3.70047">
        <ele>12</ele>
        <time>2018-07-18T11:10:28Z</time>
      </trkpt>
      <trkpt lat="47.81288" lon="-3.70046">
        <ele>12</ele>
        <time>2018-07-18T11:10:29Z</time>
      </trkpt>
      <trkpt lat="47.81288" lon="-3.70045">
        <ele>12</ele>
        <time>2018-07-18T11:10:30Z</time>
      </trkpt>
      <trkpt lat="47.81288" lon="-3.70044">
        <ele>12</ele>
        <time>2018-07-18T11:10:31Z</time>
      </trkpt>
      <trkpt lat="47.81287" lon="-3.70043">
        <ele>12</ele>
        <time>2018-07-18T11:10:32Z</time>
      </trkpt>
      <trkpt lat="47.81287" lon="-3.70042">
        <ele>12</ele>
        <time>2018-07-18T11:10:33Z</time>
      </trkpt>
      <trkpt lat="47.81287" lon="-3.70041">
        <ele>12</ele>
        <time>2018-07-18T11:10:34Z</time>
      </trkpt>
      <trkpt lat="47.81286" lon="-3.7004">
        <ele>12</ele>
        <time>2018-07-18T11:10:35Z</time>
      </trkpt>
      <trkpt lat="47.81286" lon="-3.70039">
        <ele>12</ele>
        <time>2018-07-18T11:10:36Z</time>
      </trkpt>
      <trkpt lat="47.81285" lon="-3.70038">
        <ele>12</ele>
        <time>2018-07-18T11:10:37Z</time>
      </trkpt>
      <trkpt lat="47.81284" lon="-3.70037">
        <ele>12</ele>
        <time>2018-07-18T11:10:38Z</time>
      </trkpt>
      <trkpt lat="47.81284" lon="-3.70035">
        <ele>12</ele>
        <time>2018-07-18T11:10:39Z</time>
      </trkpt>
      <trkpt lat="47.81283" lon="-3.70034">
        <ele>12</ele>
        <time>2018-07-18T11:10:40Z</time>
      </trkpt>
      <trkpt lat="47.81283" lon="-3.70033">
        <ele>12</ele>
        <time>2018-07-18T11:10:41Z</time>
      </trkpt>
      <trkpt lat="47.81282" lon="-3.70032">
        <ele>12</ele>
        <time>2018-07-18T11:10:42Z</time>
      </trkpt>
      <trkpt lat="47.81281" lon="-3.70031">
        <ele>12</ele>
        <time>2018-07-18T11:10:43Z</time>
      </trkpt>
      <trkpt lat="47.81281" lon="-3.7003">
        <ele>12</ele>
        <time>2018-07-18T11:10:44Z</time>
      </trkpt>
      <trkpt lat="47.8128" lon="-3.70028">
        <ele>12</ele>
        <time>2018-07-18T11:10:45Z</time>
      </trkpt>
      <trkpt lat="47.81279" lon="-3.70026">
        <ele>12</ele>
        <time>2018-07-18T11:10:46Z</time>
      </trkpt>
      <trkpt lat="47.81278" lon="-3.70024">
        <ele>12</ele>
        <time>2018-07-18T11:10:47Z</time>
      </trkpt>
      <trkpt lat="47.81279" lon="-3.70022">
        <ele>12</ele>
        <time>2018-07-18T11:10:48Z</time>
      </trkpt>
      <trkpt lat="47.81278" lon="-3.7002">
        <ele>12</ele>
        <time>2018-07-18T11:10:49Z</time>
      </trkpt>
      <trkpt lat="47.81278" lon="-3.70019">
        <ele>12</ele>
        <time>2018-07-18T11:10:50Z</time>
      </trkpt>
      <trkpt lat="47.81278" lon="-3.70017">
        <ele>12</ele>
        <time>2018-07-18T11:10:51Z</time>
      </trkpt>
      <trkpt lat="47.81278" lon="-3.70015">
        <ele>12</ele>
        <time>2018-07-18T11:10:52Z</time>
      </trkpt>
      <trkpt lat="47.81278" lon="-3.70013">
        <ele>12</ele>
        <time>2018-07-18T11:10:53Z</time>
      </trkpt>
      <trkpt lat="47.81278" lon="-3.70012">
        <ele>12</ele>
        <time>2018-07-18T11:10:54Z</time>
      </trkpt>
      <trkpt lat="47.81278" lon="-3.70011">
        <ele>12</ele>
        <time>2018-07-18T11:10:55Z</time>
      </trkpt>
      <trkpt lat="47.81278" lon="-3.7001">
        <ele>12</ele>
        <time>2018-07-18T11:10:56Z</time>
      </trkpt>
      <trkpt lat="47.81278" lon="-3.7001">
        <ele>12</ele>
        <time>2018-07-18T11:10:57Z</time>
      </trkpt>
      <trkpt lat="47.81278" lon="-3.70008">
        <ele>12</ele>
        <time>2018-07-18T11:10:58Z</time>
      </trkpt>
      <trkpt lat="47.81278" lon="-3.70007">
        <ele>12</ele>
        <time>2018-07-18T11:10:59Z</time>
      </trkpt>
      <trkpt lat="47.81277" lon="-3.70006">
        <ele>12</ele>
        <time>2018-07-18T11:11:00Z</time>
      </trkpt>
      <trkpt lat="47.81278" lon="-3.70004">
        <ele>12</ele>
        <time>2018-07-18T11:11:01Z</time>
      </trkpt>
      <trkpt lat="47.81278" lon="-3.70002">
        <ele>12</ele>
        <time>2018-07-18T11:11:02Z</time>
      </trkpt>
      <trkpt lat="47.81278" lon="-3.70002">
        <ele>12</ele>
        <time>2018-07-18T11:11:03Z</time>
      </trkpt>
      <trkpt lat="47.81278" lon="-3.70001">
        <ele>12</ele>
        <time>2018-07-18T11:11:04Z</time>
      </trkpt>
      <trkpt lat="47.81278" lon="-3.7">
        <ele>13</ele>
        <time>2018-07-18T11:11:05Z</time>
      </trkpt>
      <trkpt lat="47.81278" lon="-3.69999">
        <ele>13</ele>
        <time>2018-07-18T11:11:06Z</time>
      </trkpt>
      <trkpt lat="47.81278" lon="-3.69998">
        <ele>13</ele>
        <time>2018-07-18T11:11:07Z</time>
      </trkpt>
      <trkpt lat="47.81278" lon="-3.69996">
        <ele>13</ele>
        <time>2018-07-18T11:11:08Z</time>
      </trkpt>
      <trkpt lat="47.81278" lon="-3.69995">
        <ele>13</ele>
        <time>2018-07-18T11:11:09Z</time>
      </trkpt>
      <trkpt lat="47.81277" lon="-3.69994">
        <ele>14</ele>
        <time>2018-07-18T11:11:10Z</time>
      </trkpt>
      <trkpt lat="47.81276" lon="-3.69992">
        <ele>14</ele>
        <time>2018-07-18T11:11:11Z</time>
      </trkpt>
      <trkpt lat="47.81275" lon="-3.69991">
        <ele>14</ele>
        <time>2018-07-18T11:11:12Z</time>
      </trkpt>
      <trkpt lat="47.81275" lon="-3.6999">
        <ele>14</ele>
        <time>2018-07-18T11:11:13Z</time>
      </trkpt>
      <trkpt lat="47.81274" lon="-3.69989">
        <ele>14</ele>
        <time>2018-07-18T11:11:14Z</time>
      </trkpt>
      <trkpt lat="47.81274" lon="-3.69988">
        <ele>14</ele>
        <time>2018-07-18T11:11:15Z</time>
      </trkpt>
      <trkpt lat="47.81273" lon="-3.69987">
        <ele>14</ele>
        <time>2018-07-18T11:11:16Z</time>
      </trkpt>
      <trkpt lat="47.81272" lon="-3.69986">
        <ele>14</ele>
        <time>2018-07-18T11:11:17Z</time>
      </trkpt>
      <trkpt lat="47.81271" lon="-3.69985">
        <ele>14</ele>
        <time>2018-07-18T11:11:18Z</time>
      </trkpt>
      <trkpt lat="47.81271" lon="-3.69984">
        <ele>14</ele>
        <time>2018-07-18T11:11:19Z</time>
      </trkpt>
      <trkpt lat="47.81271" lon="-3.69983">
        <ele>14</ele>
        <time>2018-07-18T11:11:20Z</time>
      </trkpt>
      <trkpt lat="47.81271" lon="-3.69982">
        <ele>13</ele>
        <time>2018-07-18T11:11:21Z</time>
      </trkpt>
      <trkpt lat="47.81271" lon="-3.69982">
        <ele>13</ele>
        <time>2018-07-18T11:11:22Z</time>
      </trkpt>
      <trkpt lat="47.81271" lon="-3.69981">
        <ele>13</ele>
        <time>2018-07-18T11:11:23Z</time>
      </trkpt>
      <trkpt lat="47.81272" lon="-3.69979">
        <ele>13</ele>
        <time>2018-07-18T11:11:24Z</time>
      </trkpt>
      <trkpt lat="47.81271" lon="-3.69977">
        <ele>12</ele>
        <time>2018-07-18T11:11:25Z</time>
      </trkpt>
      <trkpt lat="47.81271" lon="-3.69976">
        <ele>12</ele>
        <time>2018-07-18T11:11:26Z</time>
      </trkpt>
      <trkpt lat="47.8127" lon="-3.69973">
        <ele>12</ele>
        <time>2018-07-18T11:11:27Z</time>
      </trkpt>
      <trkpt lat="47.81268" lon="-3.69969">
        <ele>12</ele>
        <time>2018-07-18T11:11:28Z</time>
      </trkpt>
      <trkpt lat="47.81267" lon="-3.69965">
        <ele>12</ele>
        <time>2018-07-18T11:11:29Z</time>
      </trkpt>
      <trkpt lat="47.81267" lon="-3.69961">
        <ele>12</ele>
        <time>2018-07-18T11:11:30Z</time>
      </trkpt>
      <trkpt lat="47.81266" lon="-3.69958">
        <ele>12</ele>
        <time>2018-07-18T11:11:31Z</time>
      </trkpt>
      <trkpt lat="47.81265" lon="-3.69954">
        <ele>12</ele>
        <time>2018-07-18T11:11:32Z</time>
      </trkpt>
      <trkpt lat="47.81265" lon="-3.69951">
        <ele>12</ele>
        <time>2018-07-18T11:11:33Z</time>
      </trkpt>
      <trkpt lat="47.81264" lon="-3.69948">
        <ele>12</ele>
        <time>2018-07-18T11:11:34Z</time>
      </trkpt>
      <trkpt lat="47.81264" lon="-3.69945">
        <ele>12</ele>
        <time>2018-07-18T11:11:35Z</time>
      </trkpt>
      <trkpt lat="47.81264" lon="-3.69941">
        <ele>12</ele>
        <time>2018-07-18T11:11:36Z</time>
      </trkpt>
      <trkpt lat="47.81265" lon="-3.69939">
        <ele>12</ele>
        <time>2018-07-18T11:11:37Z</time>
      </trkpt>
      <trkpt lat="47.81265" lon="-3.69938">
        <ele>12</ele>
        <time>2018-07-18T11:11:38Z</time>
      </trkpt>
      <trkpt lat="47.81265" lon="-3.69936">
        <ele>12</ele>
        <time>2018-07-18T11:11:39Z</time>
      </trkpt>
      <trkpt lat="47.81264" lon="-3.69935">
        <ele>13</ele>
        <time>2018-07-18T11:11:40Z</time>
      </trkpt>
      <trkpt lat="47.81264" lon="-3.69933">
        <ele>13</ele>
        <time>2018-07-18T11:11:41Z</time>
      </trkpt>
      <trkpt lat="47.81263" lon="-3.69931">
        <ele>13</ele>
        <time>2018-07-18T11:11:42Z</time>
      </trkpt>
      <trkpt lat="47.81263" lon="-3.69929">
        <ele>13</ele>
        <time>2018-07-18T11:11:43Z</time>
      </trkpt>
      <trkpt lat="47.81262" lon="-3.69928">
        <ele>14</ele>
        <time>2018-07-18T11:11:44Z</time>
      </trkpt>
      <trkpt lat="47.81262" lon="-3.69925">
        <ele>14</ele>
        <time>2018-07-18T11:11:45Z</time>
      </trkpt>
      <trkpt lat="47.81262" lon="-3.69922">
        <ele>14</ele>
        <time>2018-07-18T11:11:46Z</time>
      </trkpt>
      <trkpt lat="47.81262" lon="-3.69919">
        <ele>15</ele>
        <time>2018-07-18T11:11:47Z</time>
      </trkpt>
      <trkpt lat="47.81262" lon="-3.69916">
        <ele>15</ele>
        <time>2018-07-18T11:11:48Z</time>
      </trkpt>
      <trkpt lat="47.81262" lon="-3.69914">
        <ele>15</ele>
        <time>2018-07-18T11:11:49Z</time>
      </trkpt>
      <trkpt lat="47.81263" lon="-3.69911">
        <ele>16</ele>
        <time>2018-07-18T11:11:50Z</time>
      </trkpt>
      <trkpt lat="47.81264" lon="-3.69909">
        <ele>16</ele>
        <time>2018-07-18T11:11:51Z</time>
      </trkpt>
      <trkpt lat="47.81264" lon="-3.69907">
        <ele>16</ele>
        <time>2018-07-18T11:11:52Z</time>
      </trkpt>
      <trkpt lat="47.81264" lon="-3.69905">
        <ele>17</ele>
        <time>2018-07-18T11:11:53Z</time>
      </trkpt>
      <trkpt lat="47.81263" lon="-3.69902">
        <ele>17</ele>
        <time>2018-07-18T11:11:54Z</time>
      </trkpt>
      <trkpt lat="47.81262" lon="-3.69899">
        <ele>17</ele>
        <time>2018-07-18T11:11:55Z</time>
      </trkpt>
      <trkpt lat="47.81261" lon="-3.69895">
        <ele>18</ele>
        <time>2018-07-18T11:11:56Z</time>
      </trkpt>
      <trkpt lat="47.81261" lon="-3.69892">
        <ele>18</ele>
        <time>2018-07-18T11:11:57Z</time>
      </trkpt>
      <trkpt lat="47.8126" lon="-3.69889">
        <ele>18</ele>
        <time>2018-07-18T11:11:58Z</time>
      </trkpt>
      <trkpt lat="47.8126" lon="-3.69887">
        <ele>19</ele>
        <time>2018-07-18T11:11:59Z</time>
      </trkpt>
      <trkpt lat="47.81259" lon="-3.69885">
        <ele>19</ele>
        <time>2018-07-18T11:12:00Z</time>
      </trkpt>
      <trkpt lat="47.81258" lon="-3.69882">
        <ele>19</ele>
        <time>2018-07-18T11:12:01Z</time>
      </trkpt>
      <trkpt lat="47.81258" lon="-3.6988">
        <ele>19</ele>
        <time>2018-07-18T11:12:02Z</time>
      </trkpt>
      <trkpt lat="47.81257" lon="-3.69879">
        <ele>20</ele>
        <time>2018-07-18T11:12:03Z</time>
      </trkpt>
      <trkpt lat="47.81256" lon="-3.69877">
        <ele>20</ele>
        <time>2018-07-18T11:12:04Z</time>
      </trkpt>
      <trkpt lat="47.81256" lon="-3.69876">
        <ele>20</ele>
        <time>2018-07-18T11:12:05Z</time>
      </trkpt>
      <trkpt lat="47.81256" lon="-3.69875">
        <ele>21</ele>
        <time>2018-07-18T11:12:06Z</time>
      </trkpt>
      <trkpt lat="47.81255" lon="-3.69874">
        <ele>21</ele>
        <time>2018-07-18T11:12:07Z</time>
      </trkpt>
      <trkpt lat="47.81255" lon="-3.69873">
        <ele>21</ele>
        <time>2018-07-18T11:12:08Z</time>
      </trkpt>
      <trkpt lat="47.81255" lon="-3.69872">
        <ele>21</ele>
        <time>2018-07-18T11:12:09Z</time>
      </trkpt>
      <trkpt lat="47.81254" lon="-3.69871">
        <ele>22</ele>
        <time>2018-07-18T11:12:10Z</time>
      </trkpt>
      <trkpt lat="47.81253" lon="-3.6987">
        <ele>22</ele>
        <time>2018-07-18T11:12:11Z</time>
      </trkpt>
      <trkpt lat="47.81253" lon="-3.69869">
        <ele>22</ele>
        <time>2018-07-18T11:12:12Z</time>
      </trkpt>
      <trkpt lat="47.81249" lon="-3.69865">
        <ele>22</ele>
        <time>2018-07-18T11:12:13Z</time>
      </trkpt>
      <trkpt lat="47.81249" lon="-3.69865">
        <ele>22</ele>
        <time>2018-07-18T11:12:14Z</time>
      </trkpt>
      <trkpt lat="47.81248" lon="-3.69865">
        <ele>22</ele>
        <time>2018-07-18T11:12:15Z</time>
      </trkpt>
      <trkpt lat="47.81248" lon="-3.69866">
        <ele>22</ele>
        <time>2018-07-18T11:12:16Z</time>
      </trkpt>
      <trkpt lat="47.81248" lon="-3.69866">
        <ele>22</ele>
        <time>2018-07-18T11:12:17Z</time>
      </trkpt>
      <trkpt lat="47.81247" lon="-3.69866">
        <ele>22</ele>
        <time>2018-07-18T11:12:18Z</time>
      </trkpt>
      <trkpt lat="47.81247" lon="-3.69866">
        <ele>22</ele>
        <time>2018-07-18T11:12:19Z</time>
      </trkpt>
      <trkpt lat="47.81246" lon="-3.69867">
        <ele>22</ele>
        <time>2018-07-18T11:12:20Z</time>
      </trkpt>
      <trkpt lat="47.81246" lon="-3.69867">
        <ele>22</ele>
        <time>2018-07-18T11:12:21Z</time>
      </trkpt>
      <trkpt lat="47.81245" lon="-3.69868">
        <ele>22</ele>
        <time>2018-07-18T11:12:22Z</time>
      </trkpt>
      <trkpt lat="47.81245" lon="-3.69868">
        <ele>22</ele>
        <time>2018-07-18T11:12:23Z</time>
      </trkpt>
      <trkpt lat="47.81245" lon="-3.69868">
        <ele>23</ele>
        <time>2018-07-18T11:12:24Z</time>
      </trkpt>
      <trkpt lat="47.81245" lon="-3.69868">
        <ele>23</ele>
        <time>2018-07-18T11:12:25Z</time>
      </trkpt>
      <trkpt lat="47.81244" lon="-3.69868">
        <ele>23</ele>
        <time>2018-07-18T11:12:26Z</time>
      </trkpt>
      <trkpt lat="47.81244" lon="-3.69869">
        <ele>23</ele>
        <time>2018-07-18T11:12:27Z</time>
      </trkpt>
      <trkpt lat="47.81242" lon="-3.69869">
        <ele>23</ele>
        <time>2018-07-18T11:12:28Z</time>
      </trkpt>
      <trkpt lat="47.81242" lon="-3.6987">
        <ele>23</ele>
        <time>2018-07-18T11:12:29Z</time>
      </trkpt>
      <trkpt lat="47.8124" lon="-3.69871">
        <ele>23</ele>
        <time>2018-07-18T11:12:30Z</time>
      </trkpt>
      <trkpt lat="47.81239" lon="-3.69873">
        <ele>23</ele>
        <time>2018-07-18T11:12:31Z</time>
      </trkpt>
      <trkpt lat="47.81238" lon="-3.69874">
        <ele>23</ele>
        <time>2018-07-18T11:12:32Z</time>
      </trkpt>
      <trkpt lat="47.81236" lon="-3.69876">
        <ele>23</ele>
        <time>2018-07-18T11:12:33Z</time>
      </trkpt>
      <trkpt lat="47.81235" lon="-3.69879">
        <ele>23</ele>
        <time>2018-07-18T11:12:34Z</time>
      </trkpt>
      <trkpt lat="47.81234" lon="-3.69882">
        <ele>23</ele>
        <time>2018-07-18T11:12:35Z</time>
      </trkpt>
      <trkpt lat="47.81233" lon="-3.69884">
        <ele>23</ele>
        <time>2018-07-18T11:12:36Z</time>
      </trkpt>
      <trkpt lat="47.81232" lon="-3.69887">
        <ele>23</ele>
        <time>2018-07-18T11:12:37Z</time>
      </trkpt>
      <trkpt lat="47.81232" lon="-3.6989">
        <ele>23</ele>
        <time>2018-07-18T11:12:38Z</time>
      </trkpt>
      <trkpt lat="47.81231" lon="-3.69892">
        <ele>23</ele>
        <time>2018-07-18T11:12:39Z</time>
      </trkpt>
      <trkpt lat="47.8123" lon="-3.69895">
        <ele>23</ele>
        <time>2018-07-18T11:12:40Z</time>
      </trkpt>
      <trkpt lat="47.81229" lon="-3.69899">
        <ele>23</ele>
        <time>2018-07-18T11:12:41Z</time>
      </trkpt>
      <trkpt lat="47.81228" lon="-3.69905">
        <ele>23</ele>
        <time>2018-07-18T11:12:42Z</time>
      </trkpt>
      <trkpt lat="47.81228" lon="-3.69911">
        <ele>23</ele>
        <time>2018-07-18T11:12:43Z</time>
      </trkpt>
      <trkpt lat="47.81228" lon="-3.69917">
        <ele>23</ele>
        <time>2018-07-18T11:12:44Z</time>
      </trkpt>
      <trkpt lat="47.81227" lon="-3.69922">
        <ele>23</ele>
        <time>2018-07-18T11:12:45Z</time>
      </trkpt>
      <trkpt lat="47.81226" lon="-3.69926">
        <ele>23</ele>
        <time>2018-07-18T11:12:46Z</time>
      </trkpt>
      <trkpt lat="47.81225" lon="-3.69929">
        <ele>23</ele>
        <time>2018-07-18T11:12:47Z</time>
      </trkpt>
      <trkpt lat="47.81225" lon="-3.69931">
        <ele>23</ele>
        <time>2018-07-18T11:12:48Z</time>
      </trkpt>
      <trkpt lat="47.81224" lon="-3.69934">
        <ele>23</ele>
        <time>2018-07-18T11:12:49Z</time>
      </trkpt>
      <trkpt lat="47.81223" lon="-3.69936">
        <ele>22</ele>
        <time>2018-07-18T11:12:50Z</time>
      </trkpt>
      <trkpt lat="47.81222" lon="-3.6994">
        <ele>22</ele>
        <time>2018-07-18T11:12:51Z</time>
      </trkpt>
      <trkpt lat="47.81221" lon="-3.69944">
        <ele>22</ele>
        <time>2018-07-18T11:12:52Z</time>
      </trkpt>
      <trkpt lat="47.8122" lon="-3.69948">
        <ele>22</ele>
        <time>2018-07-18T11:12:53Z</time>
      </trkpt>
      <trkpt lat="47.81219" lon="-3.69952">
        <ele>22</ele>
        <time>2018-07-18T11:12:54Z</time>
      </trkpt>
      <trkpt lat="47.81218" lon="-3.69954">
        <ele>22</ele>
        <time>2018-07-18T11:12:55Z</time>
      </trkpt>
      <trkpt lat="47.81217" lon="-3.69958">
        <ele>21</ele>
        <time>2018-07-18T11:12:56Z</time>
      </trkpt>
      <trkpt lat="47.81216" lon="-3.69963">
        <ele>21</ele>
        <time>2018-07-18T11:12:57Z</time>
      </trkpt>
      <trkpt lat="47.81215" lon="-3.69969">
        <ele>21</ele>
        <time>2018-07-18T11:12:58Z</time>
      </trkpt>
      <trkpt lat="47.81213" lon="-3.69974">
        <ele>21</ele>
        <time>2018-07-18T11:12:59Z</time>
      </trkpt>
      <trkpt lat="47.81213" lon="-3.6998">
        <ele>20</ele>
        <time>2018-07-18T11:13:00Z</time>
      </trkpt>
      <trkpt lat="47.81212" lon="-3.69984">
        <ele>20</ele>
        <time>2018-07-18T11:13:01Z</time>
      </trkpt>
      <trkpt lat="47.8121" lon="-3.69988">
        <ele>20</ele>
        <time>2018-07-18T11:13:02Z</time>
      </trkpt>
      <trkpt lat="47.8121" lon="-3.69992">
        <ele>20</ele>
        <time>2018-07-18T11:13:03Z</time>
      </trkpt>
      <trkpt lat="47.81208" lon="-3.69997">
        <ele>19</ele>
        <time>2018-07-18T11:13:04Z</time>
      </trkpt>
      <trkpt lat="47.81205" lon="-3.7">
        <ele>19</ele>
        <time>2018-07-18T11:13:05Z</time>
      </trkpt>
      <trkpt lat="47.81202" lon="-3.70001">
        <ele>19</ele>
        <time>2018-07-18T11:13:06Z</time>
      </trkpt>
      <trkpt lat="47.81199" lon="-3.70003">
        <ele>18</ele>
        <time>2018-07-18T11:13:07Z</time>
      </trkpt>
      <trkpt lat="47.81196" lon="-3.70004">
        <ele>18</ele>
        <time>2018-07-18T11:13:08Z</time>
      </trkpt>
      <trkpt lat="47.81192" lon="-3.70004">
        <ele>18</ele>
        <time>2018-07-18T11:13:09Z</time>
      </trkpt>
      <trkpt lat="47.81189" lon="-3.70003">
        <ele>18</ele>
        <time>2018-07-18T11:13:10Z</time>
      </trkpt>
      <trkpt lat="47.81186" lon="-3.70004">
        <ele>17</ele>
        <time>2018-07-18T11:13:11Z</time>
      </trkpt>
      <trkpt lat="47.81182" lon="-3.70004">
        <ele>17</ele>
        <time>2018-07-18T11:13:12Z</time>
      </trkpt>
      <trkpt lat="47.81179" lon="-3.70003">
        <ele>17</ele>
        <time>2018-07-18T11:13:13Z</time>
      </trkpt>
      <trkpt lat="47.81176" lon="-3.70004">
        <ele>17</ele>
        <time>2018-07-18T11:13:14Z</time>
      </trkpt>
      <trkpt lat="47.81173" lon="-3.70005">
        <ele>16</ele>
        <time>2018-07-18T11:13:15Z</time>
      </trkpt>
      <trkpt lat="47.8117" lon="-3.70007">
        <ele>16</ele>
        <time>2018-07-18T11:13:16Z</time>
      </trkpt>
      <trkpt lat="47.81167" lon="-3.70009">
        <ele>16</ele>
        <time>2018-07-18T11:13:17Z</time>
      </trkpt>
      <trkpt lat="47.81163" lon="-3.7001">
        <ele>16</ele>
        <time>2018-07-18T11:13:18Z</time>
      </trkpt>
      <trkpt lat="47.81159" lon="-3.70011">
        <ele>16</ele>
        <time>2018-07-18T11:13:19Z</time>
      </trkpt>
      <trkpt lat="47.81156" lon="-3.70013">
        <ele>16</ele>
        <time>2018-07-18T11:13:20Z</time>
      </trkpt>
      <trkpt lat="47.81154" lon="-3.70014">
        <ele>16</ele>
        <time>2018-07-18T11:13:21Z</time>
      </trkpt>
      <trkpt lat="47.8115" lon="-3.70016">
        <ele>16</ele>
        <time>2018-07-18T11:13:22Z</time>
      </trkpt>
      <trkpt lat="47.81147" lon="-3.70017">
        <ele>16</ele>
        <time>2018-07-18T11:13:23Z</time>
      </trkpt>
      <trkpt lat="47.81145" lon="-3.70019">
        <ele>16</ele>
        <time>2018-07-18T11:13:24Z</time>
      </trkpt>
      <trkpt lat="47.81143" lon="-3.7002">
        <ele>16</ele>
        <time>2018-07-18T11:13:25Z</time>
      </trkpt>
      <trkpt lat="47.81141" lon="-3.70021">
        <ele>16</ele>
        <time>2018-07-18T11:13:26Z</time>
      </trkpt>
      <trkpt lat="47.81139" lon="-3.70023">
        <ele>16</ele>
        <time>2018-07-18T11:13:27Z</time>
      </trkpt>
      <trkpt lat="47.81137" lon="-3.70024">
        <ele>16</ele>
        <time>2018-07-18T11:13:28Z</time>
      </trkpt>
      <trkpt lat="47.81135" lon="-3.70026">
        <ele>16</ele>
        <time>2018-07-18T11:13:29Z</time>
      </trkpt>
      <trkpt lat="47.81133" lon="-3.70027">
        <ele>16</ele>
        <time>2018-07-18T11:13:30Z</time>
      </trkpt>
      <trkpt lat="47.8113" lon="-3.70031">
        <ele>16</ele>
        <time>2018-07-18T11:13:31Z</time>
      </trkpt>
      <trkpt lat="47.81127" lon="-3.70036">
        <ele>16</ele>
        <time>2018-07-18T11:13:32Z</time>
      </trkpt>
      <trkpt lat="47.81125" lon="-3.7004">
        <ele>16</ele>
        <time>2018-07-18T11:13:33Z</time>
      </trkpt>
      <trkpt lat="47.81121" lon="-3.70043">
        <ele>16</ele>
        <time>2018-07-18T11:13:34Z</time>
      </trkpt>
      <trkpt lat="47.81118" lon="-3.70045">
        <ele>16</ele>
        <time>2018-07-18T11:13:35Z</time>
      </trkpt>
      <trkpt lat="47.81114" lon="-3.70048">
        <ele>15</ele>
        <time>2018-07-18T11:13:36Z</time>
      </trkpt>
      <trkpt lat="47.8111" lon="-3.7005">
        <ele>15</ele>
        <time>2018-07-18T11:13:37Z</time>
      </trkpt>
      <trkpt lat="47.81106" lon="-3.70053">
        <ele>15</ele>
        <time>2018-07-18T11:13:38Z</time>
      </trkpt>
      <trkpt lat="47.81102" lon="-3.70055">
        <ele>15</ele>
        <time>2018-07-18T11:13:39Z</time>
      </trkpt>
      <trkpt lat="47.81098" lon="-3.70057">
        <ele>15</ele>
        <time>2018-07-18T11:13:40Z</time>
      </trkpt>
      <trkpt lat="47.81094" lon="-3.70057">
        <ele>15</ele>
        <time>2018-07-18T11:13:41Z</time>
      </trkpt>
      <trkpt lat="47.81091" lon="-3.70057">
        <ele>15</ele>
        <time>2018-07-18T11:13:42Z</time>
      </trkpt>
      <trkpt lat="47.81087" lon="-3.70057">
        <ele>15</ele>
        <time>2018-07-18T11:13:43Z</time>
      </trkpt>
      <trkpt lat="47.81084" lon="-3.70056">
        <ele>15</ele>
        <time>2018-07-18T11:13:44Z</time>
      </trkpt>
      <trkpt lat="47.81081" lon="-3.70053">
        <ele>14</ele>
        <time>2018-07-18T11:13:45Z</time>
      </trkpt>
      <trkpt lat="47.81079" lon="-3.70051">
        <ele>14</ele>
        <time>2018-07-18T11:13:46Z</time>
      </trkpt>
      <trkpt lat="47.81077" lon="-3.70049">
        <ele>14</ele>
        <time>2018-07-18T11:13:47Z</time>
      </trkpt>
      <trkpt lat="47.81075" lon="-3.70047">
        <ele>14</ele>
        <time>2018-07-18T11:13:48Z</time>
      </trkpt>
      <trkpt lat="47.81072" lon="-3.70045">
        <ele>14</ele>
        <time>2018-07-18T11:13:49Z</time>
      </trkpt>
      <trkpt lat="47.81069" lon="-3.70042">
        <ele>14</ele>
        <time>2018-07-18T11:13:50Z</time>
      </trkpt>
      <trkpt lat="47.81066" lon="-3.70039">
        <ele>14</ele>
        <time>2018-07-18T11:13:51Z</time>
      </trkpt>
      <trkpt lat="47.81063" lon="-3.70036">
        <ele>14</ele>
        <time>2018-07-18T11:13:52Z</time>
      </trkpt>
      <trkpt lat="47.8106" lon="-3.70033">
        <ele>14</ele>
        <time>2018-07-18T11:13:53Z</time>
      </trkpt>
      <trkpt lat="47.81058" lon="-3.7003">
        <ele>14</ele>
        <time>2018-07-18T11:13:54Z</time>
      </trkpt>
      <trkpt lat="47.81057" lon="-3.70027">
        <ele>14</ele>
        <time>2018-07-18T11:13:55Z</time>
      </trkpt>
      <trkpt lat="47.81056" lon="-3.70024">
        <ele>14</ele>
        <time>2018-07-18T11:13:56Z</time>
      </trkpt>
      <trkpt lat="47.81055" lon="-3.70023">
        <ele>14</ele>
        <time>2018-07-18T11:13:57Z</time>
      </trkpt>
      <trkpt lat="47.81054" lon="-3.70021">
        <ele>14</ele>
        <time>2018-07-18T11:13:58Z</time>
      </trkpt>
      <trkpt lat="47.81053" lon="-3.70019">
        <ele>14</ele>
        <time>2018-07-18T11:13:59Z</time>
      </trkpt>
      <trkpt lat="47.81051" lon="-3.70018">
        <ele>14</ele>
        <time>2018-07-18T11:14:00Z</time>
      </trkpt>
      <trkpt lat="47.81049" lon="-3.70017">
        <ele>14</ele>
        <time>2018-07-18T11:14:01Z</time>
      </trkpt>
      <trkpt lat="47.81047" lon="-3.70015">
        <ele>14</ele>
        <time>2018-07-18T11:14:02Z</time>
      </trkpt>
      <trkpt lat="47.81043" lon="-3.70011">
        <ele>14</ele>
        <time>2018-07-18T11:14:03Z</time>
      </trkpt>
      <trkpt lat="47.81041" lon="-3.70007">
        <ele>14</ele>
        <time>2018-07-18T11:14:04Z</time>
      </trkpt>
      <trkpt lat="47.81039" lon="-3.70004">
        <ele>14</ele>
        <time>2018-07-18T11:14:05Z</time>
      </trkpt>
      <trkpt lat="47.81036" lon="-3.70001">
        <ele>14</ele>
        <time>2018-07-18T11:14:06Z</time>
      </trkpt>
      <trkpt lat="47.81034" lon="-3.69998">
        <ele>14</ele>
        <time>2018-07-18T11:14:07Z</time>
      </trkpt>
      <trkpt lat="47.81032" lon="-3.69995">
        <ele>14</ele>
        <time>2018-07-18T11:14:08Z</time>
      </trkpt>
      <trkpt lat="47.81028" lon="-3.69993">
        <ele>14</ele>
        <time>2018-07-18T11:14:09Z</time>
      </trkpt>
      <trkpt lat="47.81024" lon="-3.69992">
        <ele>14</ele>
        <time>2018-07-18T11:14:10Z</time>
      </trkpt>
      <trkpt lat="47.8102" lon="-3.69991">
        <ele>14</ele>
        <time>2018-07-18T11:14:11Z</time>
      </trkpt>
      <trkpt lat="47.81017" lon="-3.69988">
        <ele>14</ele>
        <time>2018-07-18T11:14:12Z</time>
      </trkpt>
      <trkpt lat="47.81014" lon="-3.69986">
        <ele>14</ele>
        <time>2018-07-18T11:14:13Z</time>
      </trkpt>
      <trkpt lat="47.81011" lon="-3.69984">
        <ele>14</ele>
        <time>2018-07-18T11:14:14Z</time>
      </trkpt>
      <trkpt lat="47.81008" lon="-3.69982">
        <ele>14</ele>
        <time>2018-07-18T11:14:15Z</time>
      </trkpt>
      <trkpt lat="47.81005" lon="-3.6998">
        <ele>14</ele>
        <time>2018-07-18T11:14:16Z</time>
      </trkpt>
      <trkpt lat="47.81001" lon="-3.69979">
        <ele>14</ele>
        <time>2018-07-18T11:14:17Z</time>
      </trkpt>
      <trkpt lat="47.80998" lon="-3.69978">
        <ele>13</ele>
        <time>2018-07-18T11:14:18Z</time>
      </trkpt>
      <trkpt lat="47.80995" lon="-3.69977">
        <ele>13</ele>
        <time>2018-07-18T11:14:19Z</time>
      </trkpt>
      <trkpt lat="47.80992" lon="-3.69975">
        <ele>13</ele>
        <time>2018-07-18T11:14:20Z</time>
      </trkpt>
      <trkpt lat="47.80989" lon="-3.69974">
        <ele>13</ele>
        <time>2018-07-18T11:14:21Z</time>
      </trkpt>
      <trkpt lat="47.80986" lon="-3.69973">
        <ele>13</ele>
        <time>2018-07-18T11:14:22Z</time>
      </trkpt>
      <trkpt lat="47.80982" lon="-3.69973">
        <ele>13</ele>
        <time>2018-07-18T11:14:23Z</time>
      </trkpt>
      <trkpt lat="47.80979" lon="-3.69973">
        <ele>13</ele>
        <time>2018-07-18T11:14:24Z</time>
      </trkpt>
      <trkpt lat="47.80976" lon="-3.69973">
        <ele>13</ele>
        <time>2018-07-18T11:14:25Z</time>
      </trkpt>
      <trkpt lat="47.80972" lon="-3.69972">
        <ele>13</ele>
        <time>2018-07-18T11:14:26Z</time>
      </trkpt>
      <trkpt lat="47.80968" lon="-3.69971">
        <ele>13</ele>
        <time>2018-07-18T11:14:27Z</time>
      </trkpt>
      <trkpt lat="47.80965" lon="-3.69972">
        <ele>13</ele>
        <time>2018-07-18T11:14:28Z</time>
      </trkpt>
      <trkpt lat="47.80962" lon="-3.69972">
        <ele>13</ele>
        <time>2018-07-18T11:14:29Z</time>
      </trkpt>
      <trkpt lat="47.80959" lon="-3.69973">
        <ele>13</ele>
        <time>2018-07-18T11:14:30Z</time>
      </trkpt>
      <trkpt lat="47.80956" lon="-3.69973">
        <ele>13</ele>
        <time>2018-07-18T11:14:31Z</time>
      </trkpt>
      <trkpt lat="47.80952" lon="-3.69973">
        <ele>13</ele>
        <time>2018-07-18T11:14:32Z</time>
      </trkpt>
      <trkpt lat="47.80949" lon="-3.69973">
        <ele>13</ele>
        <time>2018-07-18T11:14:33Z</time>
      </trkpt>
      <trkpt lat="47.80947" lon="-3.69973">
        <ele>13</ele>
        <time>2018-07-18T11:14:34Z</time>
      </trkpt>
      <trkpt lat="47.80943" lon="-3.69974">
        <ele>13</ele>
        <time>2018-07-18T11:14:35Z</time>
      </trkpt>
      <trkpt lat="47.8094" lon="-3.69975">
        <ele>13</ele>
        <time>2018-07-18T11:14:36Z</time>
      </trkpt>
      <trkpt lat="47.80937" lon="-3.69976">
        <ele>13</ele>
        <time>2018-07-18T11:14:37Z</time>
      </trkpt>
      <trkpt lat="47.80935" lon="-3.69977">
        <ele>13</ele>
        <time>2018-07-18T11:14:38Z</time>
      </trkpt>
      <trkpt lat="47.80933" lon="-3.69978">
        <ele>13</ele>
        <time>2018-07-18T11:14:39Z</time>
      </trkpt>
      <trkpt lat="47.8093" lon="-3.69979">
        <ele>13</ele>
        <time>2018-07-18T11:14:40Z</time>
      </trkpt>
      <trkpt lat="47.80928" lon="-3.69981">
        <ele>13</ele>
        <time>2018-07-18T11:14:41Z</time>
      </trkpt>
      <trkpt lat="47.80925" lon="-3.69984">
        <ele>13</ele>
        <time>2018-07-18T11:14:42Z</time>
      </trkpt>
      <trkpt lat="47.80921" lon="-3.69987">
        <ele>12</ele>
        <time>2018-07-18T11:14:43Z</time>
      </trkpt>
      <trkpt lat="47.80917" lon="-3.6999">
        <ele>12</ele>
        <time>2018-07-18T11:14:44Z</time>
      </trkpt>
      <trkpt lat="47.80914" lon="-3.69993">
        <ele>12</ele>
        <time>2018-07-18T11:14:45Z</time>
      </trkpt>
      <trkpt lat="47.8091" lon="-3.69996">
        <ele>12</ele>
        <time>2018-07-18T11:14:46Z</time>
      </trkpt>
      <trkpt lat="47.80905" lon="-3.7">
        <ele>12</ele>
        <time>2018-07-18T11:14:47Z</time>
      </trkpt>
      <trkpt lat="47.80901" lon="-3.70003">
        <ele>12</ele>
        <time>2018-07-18T11:14:48Z</time>
      </trkpt>
      <trkpt lat="47.80897" lon="-3.70005">
        <ele>12</ele>
        <time>2018-07-18T11:14:49Z</time>
      </trkpt>
      <trkpt lat="47.80893" lon="-3.70006">
        <ele>12</ele>
        <time>2018-07-18T11:14:50Z</time>
      </trkpt>
      <trkpt lat="47.8089" lon="-3.70007">
        <ele>11</ele>
        <time>2018-07-18T11:14:51Z</time>
      </trkpt>
      <trkpt lat="47.80887" lon="-3.70007">
        <ele>11</ele>
        <time>2018-07-18T11:14:52Z</time>
      </trkpt>
      <trkpt lat="47.80885" lon="-3.70005">
        <ele>11</ele>
        <time>2018-07-18T11:14:53Z</time>
      </trkpt>
      <trkpt lat="47.80883" lon="-3.70004">
        <ele>11</ele>
        <time>2018-07-18T11:14:54Z</time>
      </trkpt>
      <trkpt lat="47.80881" lon="-3.70003">
        <ele>11</ele>
        <time>2018-07-18T11:14:55Z</time>
      </trkpt>
      <trkpt lat="47.8088" lon="-3.70003">
        <ele>11</ele>
        <time>2018-07-18T11:14:56Z</time>
      </trkpt>
      <trkpt lat="47.80879" lon="-3.70003">
        <ele>11</ele>
        <time>2018-07-18T11:14:57Z</time>
      </trkpt>
      <trkpt lat="47.80878" lon="-3.70004">
        <ele>11</ele>
        <time>2018-07-18T11:14:58Z</time>
      </trkpt>
      <trkpt lat="47.80877" lon="-3.70003">
        <ele>11</ele>
        <time>2018-07-18T11:14:59Z</time>
      </trkpt>
      <trkpt lat="47.80876" lon="-3.70003">
        <ele>11</ele>
        <time>2018-07-18T11:15:00Z</time>
      </trkpt>
      <trkpt lat="47.80875" lon="-3.70003">
        <ele>11</ele>
        <time>2018-07-18T11:15:01Z</time>
      </trkpt>
      <trkpt lat="47.80874" lon="-3.70001">
        <ele>11</ele>
        <time>2018-07-18T11:15:02Z</time>
      </trkpt>
      <trkpt lat="47.80874" lon="-3.7">
        <ele>11</ele>
        <time>2018-07-18T11:15:03Z</time>
      </trkpt>
      <trkpt lat="47.80873" lon="-3.7">
        <ele>11</ele>
        <time>2018-07-18T11:15:04Z</time>
      </trkpt>
      <trkpt lat="47.80872" lon="-3.69999">
        <ele>10</ele>
        <time>2018-07-18T11:15:05Z</time>
      </trkpt>
      <trkpt lat="47.80872" lon="-3.69998">
        <ele>10</ele>
        <time>2018-07-18T11:15:06Z</time>
      </trkpt>
      <trkpt lat="47.80872" lon="-3.69997">
        <ele>10</ele>
        <time>2018-07-18T11:15:07Z</time>
      </trkpt>
      <trkpt lat="47.80871" lon="-3.69997">
        <ele>10</ele>
        <time>2018-07-18T11:15:08Z</time>
      </trkpt>
      <trkpt lat="47.80871" lon="-3.69996">
        <ele>10</ele>
        <time>2018-07-18T11:15:09Z</time>
      </trkpt>
      <trkpt lat="47.80871" lon="-3.69994">
        <ele>10</ele>
        <time>2018-07-18T11:15:10Z</time>
      </trkpt>
      <trkpt lat="47.8087" lon="-3.69992">
        <ele>10</ele>
        <time>2018-07-18T11:15:11Z</time>
      </trkpt>
      <trkpt lat="47.8087" lon="-3.69989">
        <ele>11</ele>
        <time>2018-07-18T11:15:12Z</time>
      </trkpt>
      <trkpt lat="47.80869" lon="-3.69986">
        <ele>11</ele>
        <time>2018-07-18T11:15:13Z</time>
      </trkpt>
      <trkpt lat="47.80868" lon="-3.69983">
        <ele>11</ele>
        <time>2018-07-18T11:15:14Z</time>
      </trkpt>
      <trkpt lat="47.80867" lon="-3.6998">
        <ele>11</ele>
        <time>2018-07-18T11:15:15Z</time>
      </trkpt>
      <trkpt lat="47.80867" lon="-3.69978">
        <ele>11</ele>
        <time>2018-07-18T11:15:16Z</time>
      </trkpt>
      <trkpt lat="47.80867" lon="-3.69975">
        <ele>11</ele>
        <time>2018-07-18T11:15:17Z</time>
      </trkpt>
      <trkpt lat="47.80867" lon="-3.69972">
        <ele>11</ele>
        <time>2018-07-18T11:15:18Z</time>
      </trkpt>
      <trkpt lat="47.80866" lon="-3.69969">
        <ele>11</ele>
        <time>2018-07-18T11:15:19Z</time>
      </trkpt>
      <trkpt lat="47.80865" lon="-3.69964">
        <ele>12</ele>
        <time>2018-07-18T11:15:20Z</time>
      </trkpt>
      <trkpt lat="47.80864" lon="-3.6996">
        <ele>12</ele>
        <time>2018-07-18T11:15:21Z</time>
      </trkpt>
      <trkpt lat="47.80864" lon="-3.69956">
        <ele>12</ele>
        <time>2018-07-18T11:15:22Z</time>
      </trkpt>
      <trkpt lat="47.80864" lon="-3.69951">
        <ele>12</ele>
        <time>2018-07-18T11:15:23Z</time>
      </trkpt>
      <trkpt lat="47.80864" lon="-3.69948">
        <ele>12</ele>
        <time>2018-07-18T11:15:24Z</time>
      </trkpt>
      <trkpt lat="47.80864" lon="-3.69946">
        <ele>12</ele>
        <time>2018-07-18T11:15:25Z</time>
      </trkpt>
      <trkpt lat="47.80864" lon="-3.69944">
        <ele>12</ele>
        <time>2018-07-18T11:15:26Z</time>
      </trkpt>
      <trkpt lat="47.80864" lon="-3.69942">
        <ele>12</ele>
        <time>2018-07-18T11:15:27Z</time>
      </trkpt>
      <trkpt lat="47.80864" lon="-3.69941">
        <ele>13</ele>
        <time>2018-07-18T11:15:28Z</time>
      </trkpt>
      <trkpt lat="47.80864" lon="-3.6994">
        <ele>13</ele>
        <time>2018-07-18T11:15:29Z</time>
      </trkpt>
      <trkpt lat="47.80864" lon="-3.69938">
        <ele>13</ele>
        <time>2018-07-18T11:15:30Z</time>
      </trkpt>
      <trkpt lat="47.80864" lon="-3.69935">
        <ele>13</ele>
        <time>2018-07-18T11:15:31Z</time>
      </trkpt>
      <trkpt lat="47.80864" lon="-3.69932">
        <ele>13</ele>
        <time>2018-07-18T11:15:32Z</time>
      </trkpt>
      <trkpt lat="47.80864" lon="-3.69929">
        <ele>13</ele>
        <time>2018-07-18T11:15:33Z</time>
      </trkpt>
      <trkpt lat="47.80864" lon="-3.69927">
        <ele>13</ele>
        <time>2018-07-18T11:15:34Z</time>
      </trkpt>
      <trkpt lat="47.80864" lon="-3.69924">
        <ele>13</ele>
        <time>2018-07-18T11:15:35Z</time>
      </trkpt>
      <trkpt lat="47.80863" lon="-3.69921">
        <ele>13</ele>
        <time>2018-07-18T11:15:36Z</time>
      </trkpt>
      <trkpt lat="47.80863" lon="-3.69919">
        <ele>13</ele>
        <time>2018-07-18T11:15:37Z</time>
      </trkpt>
      <trkpt lat="47.80863" lon="-3.69918">
        <ele>13</ele>
        <time>2018-07-18T11:15:38Z</time>
      </trkpt>
      <trkpt lat="47.80863" lon="-3.69916">
        <ele>13</ele>
        <time>2018-07-18T11:15:39Z</time>
      </trkpt>
      <trkpt lat="47.80863" lon="-3.69915">
        <ele>13</ele>
        <time>2018-07-18T11:15:40Z</time>
      </trkpt>
      <trkpt lat="47.80863" lon="-3.69915">
        <ele>14</ele>
        <time>2018-07-18T11:15:41Z</time>
      </trkpt>
      <trkpt lat="47.8086" lon="-3.69909">
        <ele>14</ele>
        <time>2018-07-18T11:15:42Z</time>
      </trkpt>
      <trkpt lat="47.80859" lon="-3.69908">
        <ele>14</ele>
        <time>2018-07-18T11:15:43Z</time>
      </trkpt>
      <trkpt lat="47.80858" lon="-3.69908">
        <ele>14</ele>
        <time>2018-07-18T11:15:44Z</time>
      </trkpt>
      <trkpt lat="47.80857" lon="-3.69908">
        <ele>14</ele>
        <time>2018-07-18T11:15:45Z</time>
      </trkpt>
      <trkpt lat="47.80856" lon="-3.69908">
        <ele>14</ele>
        <time>2018-07-18T11:15:46Z</time>
      </trkpt>
      <trkpt lat="47.80855" lon="-3.69908">
        <ele>14</ele>
        <time>2018-07-18T11:15:47Z</time>
      </trkpt>
      <trkpt lat="47.80855" lon="-3.69908">
        <ele>14</ele>
        <time>2018-07-18T11:15:48Z</time>
      </trkpt>
      <trkpt lat="47.80854" lon="-3.69908">
        <ele>14</ele>
        <time>2018-07-18T11:15:49Z</time>
      </trkpt>
      <trkpt lat="47.80854" lon="-3.69909">
        <ele>14</ele>
        <time>2018-07-18T11:15:50Z</time>
      </trkpt>
      <trkpt lat="47.80854" lon="-3.6991">
        <ele>14</ele>
        <time>2018-07-18T11:15:51Z</time>
      </trkpt>
      <trkpt lat="47.80855" lon="-3.6991">
        <ele>14</ele>
        <time>2018-07-18T11:15:52Z</time>
      </trkpt>
      <trkpt lat="47.80855" lon="-3.6991">
        <ele>14</ele>
        <time>2018-07-18T11:15:53Z</time>
      </trkpt>
      <trkpt lat="47.80854" lon="-3.69911">
        <ele>14</ele>
        <time>2018-07-18T11:15:54Z</time>
      </trkpt>
      <trkpt lat="47.80854" lon="-3.6991">
        <ele>14</ele>
        <time>2018-07-18T11:15:55Z</time>
      </trkpt>
      <trkpt lat="47.80854" lon="-3.6991">
        <ele>14</ele>
        <time>2018-07-18T11:15:56Z</time>
      </trkpt>
      <trkpt lat="47.80853" lon="-3.69912">
        <ele>14</ele>
        <time>2018-07-18T11:15:57Z</time>
      </trkpt>
      <trkpt lat="47.80852" lon="-3.69914">
        <ele>14</ele>
        <time>2018-07-18T11:15:58Z</time>
      </trkpt>
      <trkpt lat="47.80852" lon="-3.69915">
        <ele>14</ele>
        <time>2018-07-18T11:15:59Z</time>
      </trkpt>
      <trkpt lat="47.80851" lon="-3.69916">
        <ele>14</ele>
        <time>2018-07-18T11:16:00Z</time>
      </trkpt>
      <trkpt lat="47.8085" lon="-3.69918">
        <ele>15</ele>
        <time>2018-07-18T11:16:01Z</time>
      </trkpt>
      <trkpt lat="47.80849" lon="-3.6992">
        <ele>15</ele>
        <time>2018-07-18T11:16:02Z</time>
      </trkpt>
      <trkpt lat="47.80848" lon="-3.69923">
        <ele>15</ele>
        <time>2018-07-18T11:16:03Z</time>
      </trkpt>
      <trkpt lat="47.80848" lon="-3.69926">
        <ele>15</ele>
        <time>2018-07-18T11:16:04Z</time>
      </trkpt>
      <trkpt lat="47.80847" lon="-3.69928">
        <ele>15</ele>
        <time>2018-07-18T11:16:05Z</time>
      </trkpt>
      <trkpt lat="47.80846" lon="-3.6993">
        <ele>15</ele>
        <time>2018-07-18T11:16:06Z</time>
      </trkpt>
      <trkpt lat="47.80845" lon="-3.69932">
        <ele>15</ele>
        <time>2018-07-18T11:16:07Z</time>
      </trkpt>
      <trkpt lat="47.80845" lon="-3.69935">
        <ele>15</ele>
        <time>2018-07-18T11:16:08Z</time>
      </trkpt>
      <trkpt lat="47.80844" lon="-3.69937">
        <ele>15</ele>
        <time>2018-07-18T11:16:09Z</time>
      </trkpt>
      <trkpt lat="47.80844" lon="-3.6994">
        <ele>15</ele>
        <time>2018-07-18T11:16:10Z</time>
      </trkpt>
      <trkpt lat="47.80844" lon="-3.69944">
        <ele>15</ele>
        <time>2018-07-18T11:16:11Z</time>
      </trkpt>
      <trkpt lat="47.80844" lon="-3.69948">
        <ele>15</ele>
        <time>2018-07-18T11:16:12Z</time>
      </trkpt>
      <trkpt lat="47.80843" lon="-3.69951">
        <ele>15</ele>
        <time>2018-07-18T11:16:13Z</time>
      </trkpt>
      <trkpt lat="47.80842" lon="-3.69954">
        <ele>15</ele>
        <time>2018-07-18T11:16:14Z</time>
      </trkpt>
      <trkpt lat="47.8084" lon="-3.69958">
        <ele>15</ele>
        <time>2018-07-18T11:16:15Z</time>
      </trkpt>
      <trkpt lat="47.80839" lon="-3.6996">
        <ele>15</ele>
        <time>2018-07-18T11:16:16Z</time>
      </trkpt>
      <trkpt lat="47.80838" lon="-3.69962">
        <ele>15</ele>
        <time>2018-07-18T11:16:17Z</time>
      </trkpt>
      <trkpt lat="47.80837" lon="-3.69963">
        <ele>15</ele>
        <time>2018-07-18T11:16:18Z</time>
      </trkpt>
      <trkpt lat="47.80836" lon="-3.69965">
        <ele>15</ele>
        <time>2018-07-18T11:16:19Z</time>
      </trkpt>
      <trkpt lat="47.80836" lon="-3.69967">
        <ele>15</ele>
        <time>2018-07-18T11:16:20Z</time>
      </trkpt>
      <trkpt lat="47.80836" lon="-3.69968">
        <ele>16</ele>
        <time>2018-07-18T11:16:21Z</time>
      </trkpt>
      <trkpt lat="47.80836" lon="-3.6997">
        <ele>16</ele>
        <time>2018-07-18T11:16:22Z</time>
      </trkpt>
      <trkpt lat="47.80836" lon="-3.69971">
        <ele>16</ele>
        <time>2018-07-18T11:16:23Z</time>
      </trkpt>
      <trkpt lat="47.80836" lon="-3.69972">
        <ele>16</ele>
        <time>2018-07-18T11:16:24Z</time>
      </trkpt>
      <trkpt lat="47.80835" lon="-3.69974">
        <ele>16</ele>
        <time>2018-07-18T11:16:25Z</time>
      </trkpt>
      <trkpt lat="47.80835" lon="-3.69975">
        <ele>16</ele>
        <time>2018-07-18T11:16:26Z</time>
      </trkpt>
      <trkpt lat="47.80835" lon="-3.69977">
        <ele>16</ele>
        <time>2018-07-18T11:16:27Z</time>
      </trkpt>
      <trkpt lat="47.80834" lon="-3.69979">
        <ele>16</ele>
        <time>2018-07-18T11:16:28Z</time>
      </trkpt>
      <trkpt lat="47.80834" lon="-3.69981">
        <ele>15</ele>
        <time>2018-07-18T11:16:29Z</time>
      </trkpt>
      <trkpt lat="47.80834" lon="-3.69983">
        <ele>15</ele>
        <time>2018-07-18T11:16:30Z</time>
      </trkpt>
      <trkpt lat="47.80835" lon="-3.69985">
        <ele>15</ele>
        <time>2018-07-18T11:16:31Z</time>
      </trkpt>
      <trkpt lat="47.80836" lon="-3.69988">
        <ele>15</ele>
        <time>2018-07-18T11:16:32Z</time>
      </trkpt>
      <trkpt lat="47.80837" lon="-3.69991">
        <ele>15</ele>
        <time>2018-07-18T11:16:33Z</time>
      </trkpt>
      <trkpt lat="47.80838" lon="-3.69995">
        <ele>15</ele>
        <time>2018-07-18T11:16:34Z</time>
      </trkpt>
      <trkpt lat="47.80838" lon="-3.69998">
        <ele>14</ele>
        <time>2018-07-18T11:16:35Z</time>
      </trkpt>
      <trkpt lat="47.80838" lon="-3.70002">
        <ele>14</ele>
        <time>2018-07-18T11:16:36Z</time>
      </trkpt>
      <trkpt lat="47.80838" lon="-3.70006">
        <ele>14</ele>
        <time>2018-07-18T11:16:37Z</time>
      </trkpt>
      <trkpt lat="47.80837" lon="-3.70009">
        <ele>14</ele>
        <time>2018-07-18T11:16:38Z</time>
      </trkpt>
      <trkpt lat="47.80835" lon="-3.70011">
        <ele>14</ele>
        <time>2018-07-18T11:16:39Z</time>
      </trkpt>
      <trkpt lat="47.80833" lon="-3.70013">
        <ele>13</ele>
        <time>2018-07-18T11:16:40Z</time>
      </trkpt>
      <trkpt lat="47.80831" lon="-3.70015">
        <ele>13</ele>
        <time>2018-07-18T11:16:41Z</time>
      </trkpt>
      <trkpt lat="47.80829" lon="-3.70017">
        <ele>13</ele>
        <time>2018-07-18T11:16:42Z</time>
      </trkpt>
      <trkpt lat="47.80828" lon="-3.70021">
        <ele>13</ele>
        <time>2018-07-18T11:16:43Z</time>
      </trkpt>
      <trkpt lat="47.80826" lon="-3.70024">
        <ele>13</ele>
        <time>2018-07-18T11:16:44Z</time>
      </trkpt>
      <trkpt lat="47.80825" lon="-3.70028">
        <ele>13</ele>
        <time>2018-07-18T11:16:45Z</time>
      </trkpt>
      <trkpt lat="47.80823" lon="-3.70031">
        <ele>13</ele>
        <time>2018-07-18T11:16:46Z</time>
      </trkpt>
      <trkpt lat="47.80821" lon="-3.70034">
        <ele>12</ele>
        <time>2018-07-18T11:16:47Z</time>
      </trkpt>
      <trkpt lat="47.8082" lon="-3.70037">
        <ele>12</ele>
        <time>2018-07-18T11:16:48Z</time>
      </trkpt>
      <trkpt lat="47.80819" lon="-3.70039">
        <ele>12</ele>
        <time>2018-07-18T11:16:49Z</time>
      </trkpt>
      <trkpt lat="47.80818" lon="-3.70041">
        <ele>12</ele>
        <time>2018-07-18T11:16:50Z</time>
      </trkpt>
      <trkpt lat="47.80818" lon="-3.70041">
        <ele>12</ele>
        <time>2018-07-18T11:16:51Z</time>
      </trkpt>
      <trkpt lat="47.80817" lon="-3.70042">
        <ele>12</ele>
        <time>2018-07-18T11:16:52Z</time>
      </trkpt>
      <trkpt lat="47.80817" lon="-3.70043">
        <ele>12</ele>
        <time>2018-07-18T11:16:53Z</time>
      </trkpt>
      <trkpt lat="47.80816" lon="-3.70043">
        <ele>12</ele>
        <time>2018-07-18T11:16:54Z</time>
      </trkpt>
      <trkpt lat="47.80816" lon="-3.70044">
        <ele>12</ele>
        <time>2018-07-18T11:16:55Z</time>
      </trkpt>
      <trkpt lat="47.80815" lon="-3.70044">
        <ele>12</ele>
        <time>2018-07-18T11:16:56Z</time>
      </trkpt>
      <trkpt lat="47.80815" lon="-3.70045">
        <ele>12</ele>
        <time>2018-07-18T11:16:57Z</time>
      </trkpt>
      <trkpt lat="47.80813" lon="-3.7005">
        <ele>11</ele>
        <time>2018-07-18T11:16:58Z</time>
      </trkpt>
      <trkpt lat="47.80812" lon="-3.70052">
        <ele>11</ele>
        <time>2018-07-18T11:16:59Z</time>
      </trkpt>
      <trkpt lat="47.80812" lon="-3.70053">
        <ele>11</ele>
        <time>2018-07-18T11:17:00Z</time>
      </trkpt>
      <trkpt lat="47.80812" lon="-3.70055">
        <ele>11</ele>
        <time>2018-07-18T11:17:01Z</time>
      </trkpt>
      <trkpt lat="47.80813" lon="-3.70056">
        <ele>11</ele>
        <time>2018-07-18T11:17:02Z</time>
      </trkpt>
      <trkpt lat="47.80814" lon="-3.70058">
        <ele>11</ele>
        <time>2018-07-18T11:17:03Z</time>
      </trkpt>
      <trkpt lat="47.80814" lon="-3.7006">
        <ele>11</ele>
        <time>2018-07-18T11:17:04Z</time>
      </trkpt>
      <trkpt lat="47.80814" lon="-3.70062">
        <ele>11</ele>
        <time>2018-07-18T11:17:05Z</time>
      </trkpt>
      <trkpt lat="47.80814" lon="-3.70065">
        <ele>11</ele>
        <time>2018-07-18T11:17:06Z</time>
      </trkpt>
      <trkpt lat="47.80814" lon="-3.70066">
        <ele>11</ele>
        <time>2018-07-18T11:17:07Z</time>
      </trkpt>
      <trkpt lat="47.80814" lon="-3.70067">
        <ele>11</ele>
        <time>2018-07-18T11:17:08Z</time>
      </trkpt>
      <trkpt lat="47.80814" lon="-3.70068">
        <ele>11</ele>
        <time>2018-07-18T11:17:09Z</time>
      </trkpt>
      <trkpt lat="47.80813" lon="-3.70069">
        <ele>11</ele>
        <time>2018-07-18T11:17:10Z</time>
      </trkpt>
      <trkpt lat="47.80813" lon="-3.7007">
        <ele>11</ele>
        <time>2018-07-18T11:17:11Z</time>
      </trkpt>
      <trkpt lat="47.80813" lon="-3.7007">
        <ele>11</ele>
        <time>2018-07-18T11:17:12Z</time>
      </trkpt>
      <trkpt lat="47.80813" lon="-3.70072">
        <ele>11</ele>
        <time>2018-07-18T11:17:13Z</time>
      </trkpt>
      <trkpt lat="47.80813" lon="-3.70073">
        <ele>11</ele>
        <time>2018-07-18T11:17:14Z</time>
      </trkpt>
      <trkpt lat="47.80813" lon="-3.70074">
        <ele>11</ele>
        <time>2018-07-18T11:17:15Z</time>
      </trkpt>
      <trkpt lat="47.80814" lon="-3.70075">
        <ele>11</ele>
        <time>2018-07-18T11:17:16Z</time>
      </trkpt>
      <trkpt lat="47.80814" lon="-3.70075">
        <ele>11</ele>
        <time>2018-07-18T11:17:17Z</time>
      </trkpt>
      <trkpt lat="47.80814" lon="-3.70076">
        <ele>11</ele>
        <time>2018-07-18T11:17:18Z</time>
      </trkpt>
      <trkpt lat="47.80814" lon="-3.70077">
        <ele>11</ele>
        <time>2018-07-18T11:17:19Z</time>
      </trkpt>
      <trkpt lat="47.80814" lon="-3.70077">
        <ele>11</ele>
        <time>2018-07-18T11:17:20Z</time>
      </trkpt>
      <trkpt lat="47.80814" lon="-3.70077">
        <ele>11</ele>
        <time>2018-07-18T11:17:21Z</time>
      </trkpt>
      <trkpt lat="47.80816" lon="-3.7008">
        <ele>11</ele>
        <time>2018-07-18T11:17:22Z</time>
      </trkpt>
      <trkpt lat="47.80817" lon="-3.70081">
        <ele>11</ele>
        <time>2018-07-18T11:17:23Z</time>
      </trkpt>
      <trkpt lat="47.80818" lon="-3.70082">
        <ele>11</ele>
        <time>2018-07-18T11:17:24Z</time>
      </trkpt>
      <trkpt lat="47.8082" lon="-3.70084">
        <ele>11</ele>
        <time>2018-07-18T11:17:25Z</time>
      </trkpt>
      <trkpt lat="47.8082" lon="-3.70084">
        <ele>11</ele>
        <time>2018-07-18T11:17:26Z</time>
      </trkpt>
      <trkpt lat="47.80822" lon="-3.70085">
        <ele>11</ele>
        <time>2018-07-18T11:17:27Z</time>
      </trkpt>
      <trkpt lat="47.80826" lon="-3.70089">
        <ele>10</ele>
        <time>2018-07-18T11:17:28Z</time>
      </trkpt>
      <trkpt lat="47.80826" lon="-3.70089">
        <ele>10</ele>
        <time>2018-07-18T11:17:29Z</time>
      </trkpt>
      <trkpt lat="47.8083" lon="-3.70092">
        <ele>10</ele>
        <time>2018-07-18T11:17:30Z</time>
      </trkpt>
      <trkpt lat="47.80832" lon="-3.70093">
        <ele>10</ele>
        <time>2018-07-18T11:17:31Z</time>
      </trkpt>
      <trkpt lat="47.80835" lon="-3.70094">
        <ele>10</ele>
        <time>2018-07-18T11:17:32Z</time>
      </trkpt>
      <trkpt lat="47.80835" lon="-3.70094">
        <ele>10</ele>
        <time>2018-07-18T11:17:33Z</time>
      </trkpt>
      <trkpt lat="47.80839" lon="-3.70098">
        <ele>10</ele>
        <time>2018-07-18T11:17:34Z</time>
      </trkpt>
      <trkpt lat="47.8084" lon="-3.70099">
        <ele>10</ele>
        <time>2018-07-18T11:17:35Z</time>
      </trkpt>
      <trkpt lat="47.8084" lon="-3.70099">
        <ele>10</ele>
        <time>2018-07-18T11:17:36Z</time>
      </trkpt>
      <trkpt lat="47.80842" lon="-3.70101">
        <ele>9</ele>
        <time>2018-07-18T11:17:37Z</time>
      </trkpt>
      <trkpt lat="47.80843" lon="-3.70104">
        <ele>9</ele>
        <time>2018-07-18T11:17:38Z</time>
      </trkpt>
      <trkpt lat="47.80845" lon="-3.70106">
        <ele>9</ele>
        <time>2018-07-18T11:17:39Z</time>
      </trkpt>
      <trkpt lat="47.80848" lon="-3.70109">
        <ele>9</ele>
        <time>2018-07-18T11:17:40Z</time>
      </trkpt>
      <trkpt lat="47.80848" lon="-3.70109">
        <ele>9</ele>
        <time>2018-07-18T11:17:41Z</time>
      </trkpt>
      <trkpt lat="47.80852" lon="-3.70111">
        <ele>9</ele>
        <time>2018-07-18T11:17:42Z</time>
      </trkpt>
      <trkpt lat="47.80855" lon="-3.70112">
        <ele>9</ele>
        <time>2018-07-18T11:17:43Z</time>
      </trkpt>
      <trkpt lat="47.80855" lon="-3.70112">
        <ele>9</ele>
        <time>2018-07-18T11:17:44Z</time>
      </trkpt>
      <trkpt lat="47.80861" lon="-3.70114">
        <ele>9</ele>
        <time>2018-07-18T11:17:45Z</time>
      </trkpt>
      <trkpt lat="47.80863" lon="-3.70115">
        <ele>9</ele>
        <time>2018-07-18T11:17:46Z</time>
      </trkpt>
      <trkpt lat="47.80866" lon="-3.70116">
        <ele>9</ele>
        <time>2018-07-18T11:17:47Z</time>
      </trkpt>
      <trkpt lat="47.80869" lon="-3.70118">
        <ele>8</ele>
        <time>2018-07-18T11:17:48Z</time>
      </trkpt>
      <trkpt lat="47.80871" lon="-3.70118">
        <ele>8</ele>
        <time>2018-07-18T11:17:49Z</time>
      </trkpt>
      <trkpt lat="47.80873" lon="-3.70118">
        <ele>8</ele>
        <time>2018-07-18T11:17:50Z</time>
      </trkpt>
      <trkpt lat="47.80873" lon="-3.70118">
        <ele>8</ele>
        <time>2018-07-18T11:17:51Z</time>
      </trkpt>
      <trkpt lat="47.80878" lon="-3.70118">
        <ele>8</ele>
        <time>2018-07-18T11:17:52Z</time>
      </trkpt>
      <trkpt lat="47.80881" lon="-3.70118">
        <ele>8</ele>
        <time>2018-07-18T11:17:53Z</time>
      </trkpt>
      <trkpt lat="47.80884" lon="-3.70118">
        <ele>8</ele>
        <time>2018-07-18T11:17:54Z</time>
      </trkpt>
      <trkpt lat="47.80886" lon="-3.70118">
        <ele>8</ele>
        <time>2018-07-18T11:17:55Z</time>
      </trkpt>
      <trkpt lat="47.80888" lon="-3.70118">
        <ele>8</ele>
        <time>2018-07-18T11:17:56Z</time>
      </trkpt>
      <trkpt lat="47.8089" lon="-3.70117">
        <ele>8</ele>
        <time>2018-07-18T11:17:57Z</time>
      </trkpt>
      <trkpt lat="47.80891" lon="-3.70117">
        <ele>8</ele>
        <time>2018-07-18T11:17:58Z</time>
      </trkpt>
      <trkpt lat="47.80891" lon="-3.70117">
        <ele>8</ele>
        <time>2018-07-18T11:17:59Z</time>
      </trkpt>
      <trkpt lat="47.80892" lon="-3.70117">
        <ele>8</ele>
        <time>2018-07-18T11:18:00Z</time>
      </trkpt>
      <trkpt lat="47.80893" lon="-3.70117">
        <ele>8</ele>
        <time>2018-07-18T11:18:01Z</time>
      </trkpt>
      <trkpt lat="47.80894" lon="-3.70116">
        <ele>8</ele>
        <time>2018-07-18T11:18:02Z</time>
      </trkpt>
      <trkpt lat="47.80895" lon="-3.70115">
        <ele>8</ele>
        <time>2018-07-18T11:18:03Z</time>
      </trkpt>
      <trkpt lat="47.80897" lon="-3.70114">
        <ele>7</ele>
        <time>2018-07-18T11:18:04Z</time>
      </trkpt>
      <trkpt lat="47.80897" lon="-3.70114">
        <ele>7</ele>
        <time>2018-07-18T11:18:05Z</time>
      </trkpt>
      <trkpt lat="47.809" lon="-3.70112">
        <ele>7</ele>
        <time>2018-07-18T11:18:06Z</time>
      </trkpt>
      <trkpt lat="47.80902" lon="-3.70112">
        <ele>7</ele>
        <time>2018-07-18T11:18:07Z</time>
      </trkpt>
      <trkpt lat="47.80904" lon="-3.70112">
        <ele>7</ele>
        <time>2018-07-18T11:18:08Z</time>
      </trkpt>
      <trkpt lat="47.80906" lon="-3.70114">
        <ele>7</ele>
        <time>2018-07-18T11:18:09Z</time>
      </trkpt>
      <trkpt lat="47.80906" lon="-3.70114">
        <ele>7</ele>
        <time>2018-07-18T11:18:10Z</time>
      </trkpt>
      <trkpt lat="47.80909" lon="-3.70119">
        <ele>7</ele>
        <time>2018-07-18T11:18:11Z</time>
      </trkpt>
      <trkpt lat="47.8091" lon="-3.70121">
        <ele>7</ele>
        <time>2018-07-18T11:18:12Z</time>
      </trkpt>
      <trkpt lat="47.8091" lon="-3.70121">
        <ele>7</ele>
        <time>2018-07-18T11:18:13Z</time>
      </trkpt>
      <trkpt lat="47.8091" lon="-3.70123">
        <ele>7</ele>
        <time>2018-07-18T11:18:14Z</time>
      </trkpt>
      <trkpt lat="47.8091" lon="-3.70124">
        <ele>7</ele>
        <time>2018-07-18T11:18:15Z</time>
      </trkpt>
      <trkpt lat="47.8091" lon="-3.70125">
        <ele>7</ele>
        <time>2018-07-18T11:18:16Z</time>
      </trkpt>
      <trkpt lat="47.80911" lon="-3.70125">
        <ele>7</ele>
        <time>2018-07-18T11:18:17Z</time>
      </trkpt>
      <trkpt lat="47.80911" lon="-3.70125">
        <ele>7</ele>
        <time>2018-07-18T11:18:18Z</time>
      </trkpt>
      <trkpt lat="47.80911" lon="-3.70125">
        <ele>7</ele>
        <time>2018-07-18T11:18:19Z</time>
      </trkpt>
      <trkpt lat="47.80914" lon="-3.70127">
        <ele>8</ele>
        <time>2018-07-18T11:18:20Z</time>
      </trkpt>
      <trkpt lat="47.80914" lon="-3.70135">
        <ele>8</ele>
        <time>2018-07-18T11:18:21Z</time>
      </trkpt>
      <trkpt lat="47.80914" lon="-3.70141">
        <ele>8</ele>
        <time>2018-07-18T11:18:22Z</time>
      </trkpt>
      <trkpt lat="47.80914" lon="-3.70147">
        <ele>8</ele>
        <time>2018-07-18T11:18:23Z</time>
      </trkpt>
      <trkpt lat="47.80914" lon="-3.70147">
        <ele>8</ele>
        <time>2018-07-18T11:18:24Z</time>
      </trkpt>
      <trkpt lat="47.80914" lon="-3.70152">
        <ele>8</ele>
        <time>2018-07-18T11:18:25Z</time>
      </trkpt>
      <trkpt lat="47.80914" lon="-3.70158">
        <ele>8</ele>
        <time>2018-07-18T11:18:26Z</time>
      </trkpt>
      <trkpt lat="47.80916" lon="-3.70159">
        <ele>8</ele>
        <time>2018-07-18T11:18:27Z</time>
      </trkpt>
      <trkpt lat="47.80916" lon="-3.70159">
        <ele>8</ele>
        <time>2018-07-18T11:18:28Z</time>
      </trkpt>
      <trkpt lat="47.80918" lon="-3.70159">
        <ele>8</ele>
        <time>2018-07-18T11:18:29Z</time>
      </trkpt>
      <trkpt lat="47.80919" lon="-3.70159">
        <ele>8</ele>
        <time>2018-07-18T11:18:30Z</time>
      </trkpt>
      <trkpt lat="47.80921" lon="-3.70159">
        <ele>8</ele>
        <time>2018-07-18T11:18:31Z</time>
      </trkpt>
      <trkpt lat="47.80925" lon="-3.70157">
        <ele>8</ele>
        <time>2018-07-18T11:18:32Z</time>
      </trkpt>
      <trkpt lat="47.80927" lon="-3.70156">
        <ele>8</ele>
        <time>2018-07-18T11:18:33Z</time>
      </trkpt>
      <trkpt lat="47.80928" lon="-3.70157">
        <ele>8</ele>
        <time>2018-07-18T11:18:34Z</time>
      </trkpt>
      <trkpt lat="47.80929" lon="-3.70157">
        <ele>8</ele>
        <time>2018-07-18T11:18:35Z</time>
      </trkpt>
      <trkpt lat="47.80931" lon="-3.70156">
        <ele>8</ele>
        <time>2018-07-18T11:18:36Z</time>
      </trkpt>
      <trkpt lat="47.80931" lon="-3.70156">
        <ele>8</ele>
        <time>2018-07-18T11:18:37Z</time>
      </trkpt>
      <trkpt lat="47.80934" lon="-3.70154">
        <ele>8</ele>
        <time>2018-07-18T11:18:38Z</time>
      </trkpt>
      <trkpt lat="47.80936" lon="-3.70151">
        <ele>8</ele>
        <time>2018-07-18T11:18:39Z</time>
      </trkpt>
      <trkpt lat="47.80936" lon="-3.70151">
        <ele>8</ele>
        <time>2018-07-18T11:18:40Z</time>
      </trkpt>
      <trkpt lat="47.80937" lon="-3.70149">
        <ele>8</ele>
        <time>2018-07-18T11:18:41Z</time>
      </trkpt>
      <trkpt lat="47.8094" lon="-3.70141">
        <ele>8</ele>
        <time>2018-07-18T11:18:42Z</time>
      </trkpt>
      <trkpt lat="47.80942" lon="-3.70137">
        <ele>8</ele>
        <time>2018-07-18T11:18:43Z</time>
      </trkpt>
      <trkpt lat="47.80943" lon="-3.70133">
        <ele>8</ele>
        <time>2018-07-18T11:18:44Z</time>
      </trkpt>
      <trkpt lat="47.80943" lon="-3.70133">
        <ele>8</ele>
        <time>2018-07-18T11:18:45Z</time>
      </trkpt>
      <trkpt lat="47.80946" lon="-3.70128">
        <ele>8</ele>
        <time>2018-07-18T11:18:46Z</time>
      </trkpt>
      <trkpt lat="47.80946" lon="-3.70128">
        <ele>8</ele>
        <time>2018-07-18T11:18:47Z</time>
      </trkpt>
      <trkpt lat="47.80946" lon="-3.70127">
        <ele>8</ele>
        <time>2018-07-18T11:18:48Z</time>
      </trkpt>
      <trkpt lat="47.80946" lon="-3.70127">
        <ele>8</ele>
        <time>2018-07-18T11:18:49Z</time>
      </trkpt>
      <trkpt lat="47.80949" lon="-3.70124">
        <ele>7</ele>
        <time>2018-07-18T11:18:50Z</time>
      </trkpt>
      <trkpt lat="47.80949" lon="-3.70124">
        <ele>7</ele>
        <time>2018-07-18T11:18:51Z</time>
      </trkpt>
      <trkpt lat="47.80951" lon="-3.70118">
        <ele>7</ele>
        <time>2018-07-18T11:18:52Z</time>
      </trkpt>
      <trkpt lat="47.80951" lon="-3.70118">
        <ele>7</ele>
        <time>2018-07-18T11:18:53Z</time>
      </trkpt>
      <trkpt lat="47.80952" lon="-3.70114">
        <ele>7</ele>
        <time>2018-07-18T11:18:54Z</time>
      </trkpt>
      <trkpt lat="47.80954" lon="-3.70111">
        <ele>7</ele>
        <time>2018-07-18T11:18:55Z</time>
      </trkpt>
      <trkpt lat="47.80956" lon="-3.70105">
        <ele>6</ele>
        <time>2018-07-18T11:18:56Z</time>
      </trkpt>
      <trkpt lat="47.80956" lon="-3.70105">
        <ele>6</ele>
        <time>2018-07-18T11:18:57Z</time>
      </trkpt>
      <trkpt lat="47.80957" lon="-3.70098">
        <ele>6</ele>
        <time>2018-07-18T11:18:58Z</time>
      </trkpt>
      <trkpt lat="47.80958" lon="-3.70094">
        <ele>6</ele>
        <time>2018-07-18T11:18:59Z</time>
      </trkpt>
      <trkpt lat="47.80959" lon="-3.70091">
        <ele>5</ele>
        <time>2018-07-18T11:19:00Z</time>
      </trkpt>
      <trkpt lat="47.80961" lon="-3.70091">
        <ele>5</ele>
        <time>2018-07-18T11:19:01Z</time>
      </trkpt>
      <trkpt lat="47.80962" lon="-3.70091">
        <ele>5</ele>
        <time>2018-07-18T11:19:02Z</time>
      </trkpt>
      <trkpt lat="47.80963" lon="-3.70092">
        <ele>5</ele>
        <time>2018-07-18T11:19:03Z</time>
      </trkpt>
      <trkpt lat="47.80963" lon="-3.70092">
        <ele>5</ele>
        <time>2018-07-18T11:19:04Z</time>
      </trkpt>
      <trkpt lat="47.80965" lon="-3.70096">
        <ele>4</ele>
        <time>2018-07-18T11:19:05Z</time>
      </trkpt>
      <trkpt lat="47.80965" lon="-3.70096">
        <ele>4</ele>
        <time>2018-07-18T11:19:06Z</time>
      </trkpt>
      <trkpt lat="47.80968" lon="-3.70102">
        <ele>4</ele>
        <time>2018-07-18T11:19:07Z</time>
      </trkpt>
      <trkpt lat="47.80968" lon="-3.70102">
        <ele>4</ele>
        <time>2018-07-18T11:19:08Z</time>
      </trkpt>
      <trkpt lat="47.80972" lon="-3.70107">
        <ele>4</ele>
        <time>2018-07-18T11:19:09Z</time>
      </trkpt>
      <trkpt lat="47.80972" lon="-3.70107">
        <ele>4</ele>
        <time>2018-07-18T11:19:10Z</time>
      </trkpt>
      <trkpt lat="47.80975" lon="-3.70112">
        <ele>4</ele>
        <time>2018-07-18T11:19:11Z</time>
      </trkpt>
      <trkpt lat="47.80977" lon="-3.70114">
        <ele>4</ele>
        <time>2018-07-18T11:19:12Z</time>
      </trkpt>
      <trkpt lat="47.80979" lon="-3.70115">
        <ele>4</ele>
        <time>2018-07-18T11:19:13Z</time>
      </trkpt>
      <trkpt lat="47.80981" lon="-3.70117">
        <ele>4</ele>
        <time>2018-07-18T11:19:14Z</time>
      </trkpt>
      <trkpt lat="47.80981" lon="-3.70117">
        <ele>4</ele>
        <time>2018-07-18T11:19:15Z</time>
      </trkpt>
      <trkpt lat="47.80987" lon="-3.70123">
        <ele>4</ele>
        <time>2018-07-18T11:19:16Z</time>
      </trkpt>
      <trkpt lat="47.80989" lon="-3.70126">
        <ele>4</ele>
        <time>2018-07-18T11:19:17Z</time>
      </trkpt>
      <trkpt lat="47.8099" lon="-3.70128">
        <ele>4</ele>
        <time>2018-07-18T11:19:18Z</time>
      </trkpt>
      <trkpt lat="47.8099" lon="-3.70128">
        <ele>4</ele>
        <time>2018-07-18T11:19:19Z</time>
      </trkpt>
      <trkpt lat="47.80992" lon="-3.7013">
        <ele>4</ele>
        <time>2018-07-18T11:19:20Z</time>
      </trkpt>
      <trkpt lat="47.80993" lon="-3.70132">
        <ele>4</ele>
        <time>2018-07-18T11:19:21Z</time>
      </trkpt>
      <trkpt lat="47.80995" lon="-3.70135">
        <ele>4</ele>
        <time>2018-07-18T11:19:22Z</time>
      </trkpt>
      <trkpt lat="47.80998" lon="-3.70139">
        <ele>4</ele>
        <time>2018-07-18T11:19:23Z</time>
      </trkpt>
      <trkpt lat="47.80998" lon="-3.70139">
        <ele>4</ele>
        <time>2018-07-18T11:19:24Z</time>
      </trkpt>
      <trkpt lat="47.80999" lon="-3.7014">
        <ele>4</ele>
        <time>2018-07-18T11:19:25Z</time>
      </trkpt>
      <trkpt lat="47.81001" lon="-3.70142">
        <ele>4</ele>
        <time>2018-07-18T11:19:26Z</time>
      </trkpt>
      <trkpt lat="47.81002" lon="-3.70143">
        <ele>5</ele>
        <time>2018-07-18T11:19:27Z</time>
      </trkpt>
      <trkpt lat="47.81005" lon="-3.70146">
        <ele>5</ele>
        <time>2018-07-18T11:19:28Z</time>
      </trkpt>
      <trkpt lat="47.81007" lon="-3.70148">
        <ele>5</ele>
        <time>2018-07-18T11:19:29Z</time>
      </trkpt>
      <trkpt lat="47.81007" lon="-3.70148">
        <ele>5</ele>
        <time>2018-07-18T11:19:30Z</time>
      </trkpt>
      <trkpt lat="47.8101" lon="-3.70152">
        <ele>5</ele>
        <time>2018-07-18T11:19:31Z</time>
      </trkpt>
      <trkpt lat="47.8101" lon="-3.70152">
        <ele>5</ele>
        <time>2018-07-18T11:19:32Z</time>
      </trkpt>
      <trkpt lat="47.81013" lon="-3.70155">
        <ele>6</ele>
        <time>2018-07-18T11:19:33Z</time>
      </trkpt>
      <trkpt lat="47.81013" lon="-3.70155">
        <ele>6</ele>
        <time>2018-07-18T11:19:34Z</time>
      </trkpt>
      <trkpt lat="47.81014" lon="-3.70157">
        <ele>6</ele>
        <time>2018-07-18T11:19:35Z</time>
      </trkpt>
      <trkpt lat="47.81014" lon="-3.70159">
        <ele>6</ele>
        <time>2018-07-18T11:19:36Z</time>
      </trkpt>
      <trkpt lat="47.81015" lon="-3.70161">
        <ele>7</ele>
        <time>2018-07-18T11:19:37Z</time>
      </trkpt>
      <trkpt lat="47.81016" lon="-3.70163">
        <ele>7</ele>
        <time>2018-07-18T11:19:38Z</time>
      </trkpt>
      <trkpt lat="47.81017" lon="-3.70166">
        <ele>7</ele>
        <time>2018-07-18T11:19:39Z</time>
      </trkpt>
      <trkpt lat="47.81021" lon="-3.70171">
        <ele>8</ele>
        <time>2018-07-18T11:19:40Z</time>
      </trkpt>
      <trkpt lat="47.81021" lon="-3.70171">
        <ele>8</ele>
        <time>2018-07-18T11:19:41Z</time>
      </trkpt>
      <trkpt lat="47.81026" lon="-3.70174">
        <ele>8</ele>
        <time>2018-07-18T11:19:42Z</time>
      </trkpt>
      <trkpt lat="47.81026" lon="-3.70174">
        <ele>8</ele>
        <time>2018-07-18T11:19:43Z</time>
      </trkpt>
      <trkpt lat="47.81029" lon="-3.70176">
        <ele>8</ele>
        <time>2018-07-18T11:19:44Z</time>
      </trkpt>
      <trkpt lat="47.81033" lon="-3.70177">
        <ele>8</ele>
        <time>2018-07-18T11:19:45Z</time>
      </trkpt>
      <trkpt lat="47.81037" lon="-3.70178">
        <ele>8</ele>
        <time>2018-07-18T11:19:46Z</time>
      </trkpt>
      <trkpt lat="47.81041" lon="-3.7018">
        <ele>8</ele>
        <time>2018-07-18T11:19:47Z</time>
      </trkpt>
      <trkpt lat="47.81046" lon="-3.70182">
        <ele>8</ele>
        <time>2018-07-18T11:19:48Z</time>
      </trkpt>
      <trkpt lat="47.81049" lon="-3.70185">
        <ele>8</ele>
        <time>2018-07-18T11:19:49Z</time>
      </trkpt>
      <trkpt lat="47.81053" lon="-3.70187">
        <ele>7</ele>
        <time>2018-07-18T11:19:50Z</time>
      </trkpt>
      <trkpt lat="47.81057" lon="-3.70188">
        <ele>7</ele>
        <time>2018-07-18T11:19:51Z</time>
      </trkpt>
      <trkpt lat="47.81061" lon="-3.70189">
        <ele>7</ele>
        <time>2018-07-18T11:19:52Z</time>
      </trkpt>
      <trkpt lat="47.81065" lon="-3.70191">
        <ele>7</ele>
        <time>2018-07-18T11:19:53Z</time>
      </trkpt>
      <trkpt lat="47.81069" lon="-3.70192">
        <ele>7</ele>
        <time>2018-07-18T11:19:54Z</time>
      </trkpt>
      <trkpt lat="47.81072" lon="-3.70194">
        <ele>6</ele>
        <time>2018-07-18T11:19:55Z</time>
      </trkpt>
      <trkpt lat="47.81074" lon="-3.70195">
        <ele>6</ele>
        <time>2018-07-18T11:19:56Z</time>
      </trkpt>
      <trkpt lat="47.81077" lon="-3.70197">
        <ele>6</ele>
        <time>2018-07-18T11:19:57Z</time>
      </trkpt>
      <trkpt lat="47.81078" lon="-3.70199">
        <ele>6</ele>
        <time>2018-07-18T11:19:58Z</time>
      </trkpt>
      <trkpt lat="47.81081" lon="-3.702">
        <ele>6</ele>
        <time>2018-07-18T11:19:59Z</time>
      </trkpt>
      <trkpt lat="47.81083" lon="-3.70201">
        <ele>6</ele>
        <time>2018-07-18T11:20:00Z</time>
      </trkpt>
      <trkpt lat="47.81085" lon="-3.70202">
        <ele>6</ele>
        <time>2018-07-18T11:20:01Z</time>
      </trkpt>
      <trkpt lat="47.81088" lon="-3.70204">
        <ele>6</ele>
        <time>2018-07-18T11:20:02Z</time>
      </trkpt>
      <trkpt lat="47.81089" lon="-3.70205">
        <ele>6</ele>
        <time>2018-07-18T11:20:03Z</time>
      </trkpt>
      <trkpt lat="47.81091" lon="-3.70207">
        <ele>6</ele>
        <time>2018-07-18T11:20:04Z</time>
      </trkpt>
      <trkpt lat="47.81094" lon="-3.7021">
        <ele>6</ele>
        <time>2018-07-18T11:20:05Z</time>
      </trkpt>
      <trkpt lat="47.81096" lon="-3.70211">
        <ele>6</ele>
        <time>2018-07-18T11:20:06Z</time>
      </trkpt>
      <trkpt lat="47.81099" lon="-3.70213">
        <ele>7</ele>
        <time>2018-07-18T11:20:07Z</time>
      </trkpt>
      <trkpt lat="47.81103" lon="-3.70213">
        <ele>7</ele>
        <time>2018-07-18T11:20:08Z</time>
      </trkpt>
      <trkpt lat="47.81105" lon="-3.70214">
        <ele>7</ele>
        <time>2018-07-18T11:20:09Z</time>
      </trkpt>
      <trkpt lat="47.81108" lon="-3.70214">
        <ele>7</ele>
        <time>2018-07-18T11:20:10Z</time>
      </trkpt>
      <trkpt lat="47.8111" lon="-3.70213">
        <ele>7</ele>
        <time>2018-07-18T11:20:11Z</time>
      </trkpt>
      <trkpt lat="47.81113" lon="-3.70212">
        <ele>7</ele>
        <time>2018-07-18T11:20:12Z</time>
      </trkpt>
      <trkpt lat="47.81115" lon="-3.70211">
        <ele>7</ele>
        <time>2018-07-18T11:20:13Z</time>
      </trkpt>
      <trkpt lat="47.81117" lon="-3.70209">
        <ele>7</ele>
        <time>2018-07-18T11:20:14Z</time>
      </trkpt>
      <trkpt lat="47.81119" lon="-3.70206">
        <ele>7</ele>
        <time>2018-07-18T11:20:15Z</time>
      </trkpt>
      <trkpt lat="47.8112" lon="-3.70203">
        <ele>7</ele>
        <time>2018-07-18T11:20:16Z</time>
      </trkpt>
      <trkpt lat="47.81123" lon="-3.702">
        <ele>7</ele>
        <time>2018-07-18T11:20:17Z</time>
      </trkpt>
      <trkpt lat="47.81126" lon="-3.70196">
        <ele>7</ele>
        <time>2018-07-18T11:20:18Z</time>
      </trkpt>
      <trkpt lat="47.81129" lon="-3.70192">
        <ele>7</ele>
        <time>2018-07-18T11:20:19Z</time>
      </trkpt>
      <trkpt lat="47.81132" lon="-3.70188">
        <ele>7</ele>
        <time>2018-07-18T11:20:20Z</time>
      </trkpt>
      <trkpt lat="47.81136" lon="-3.70185">
        <ele>7</ele>
        <time>2018-07-18T11:20:21Z</time>
      </trkpt>
      <trkpt lat="47.81139" lon="-3.70183">
        <ele>6</ele>
        <time>2018-07-18T11:20:22Z</time>
      </trkpt>
      <trkpt lat="47.81143" lon="-3.70181">
        <ele>6</ele>
        <time>2018-07-18T11:20:23Z</time>
      </trkpt>
      <trkpt lat="47.8115" lon="-3.70179">
        <ele>6</ele>
        <time>2018-07-18T11:20:24Z</time>
      </trkpt>
      <trkpt lat="47.8115" lon="-3.70179">
        <ele>6</ele>
        <time>2018-07-18T11:20:25Z</time>
      </trkpt>
      <trkpt lat="47.81152" lon="-3.70178">
        <ele>5</ele>
        <time>2018-07-18T11:20:26Z</time>
      </trkpt>
      <trkpt lat="47.81156" lon="-3.70179">
        <ele>5</ele>
        <time>2018-07-18T11:20:27Z</time>
      </trkpt>
      <trkpt lat="47.8116" lon="-3.7018">
        <ele>5</ele>
        <time>2018-07-18T11:20:28Z</time>
      </trkpt>
      <trkpt lat="47.81164" lon="-3.70182">
        <ele>5</ele>
        <time>2018-07-18T11:20:29Z</time>
      </trkpt>
      <trkpt lat="47.81167" lon="-3.70184">
        <ele>5</ele>
        <time>2018-07-18T11:20:30Z</time>
      </trkpt>
      <trkpt lat="47.8117" lon="-3.70187">
        <ele>5</ele>
        <time>2018-07-18T11:20:31Z</time>
      </trkpt>
      <trkpt lat="47.81173" lon="-3.70191">
        <ele>4</ele>
        <time>2018-07-18T11:20:32Z</time>
      </trkpt>
      <trkpt lat="47.81176" lon="-3.70194">
        <ele>4</ele>
        <time>2018-07-18T11:20:33Z</time>
      </trkpt>
      <trkpt lat="47.81179" lon="-3.70198">
        <ele>4</ele>
        <time>2018-07-18T11:20:34Z</time>
      </trkpt>
      <trkpt lat="47.81181" lon="-3.70201">
        <ele>4</ele>
        <time>2018-07-18T11:20:35Z</time>
      </trkpt>
      <trkpt lat="47.81183" lon="-3.70204">
        <ele>4</ele>
        <time>2018-07-18T11:20:36Z</time>
      </trkpt>
      <trkpt lat="47.81184" lon="-3.70205">
        <ele>4</ele>
        <time>2018-07-18T11:20:37Z</time>
      </trkpt>
      <trkpt lat="47.81185" lon="-3.70207">
        <ele>4</ele>
        <time>2018-07-18T11:20:38Z</time>
      </trkpt>
      <trkpt lat="47.81186" lon="-3.7021">
        <ele>3</ele>
        <time>2018-07-18T11:20:39Z</time>
      </trkpt>
      <trkpt lat="47.81186" lon="-3.70212">
        <ele>3</ele>
        <time>2018-07-18T11:20:40Z</time>
      </trkpt>
      <trkpt lat="47.81187" lon="-3.70213">
        <ele>3</ele>
        <time>2018-07-18T11:20:41Z</time>
      </trkpt>
      <trkpt lat="47.81187" lon="-3.70213">
        <ele>3</ele>
        <time>2018-07-18T11:20:42Z</time>
      </trkpt>
      <trkpt lat="47.81188" lon="-3.70213">
        <ele>3</ele>
        <time>2018-07-18T11:20:43Z</time>
      </trkpt>
      <trkpt lat="47.81188" lon="-3.70213">
        <ele>3</ele>
        <time>2018-07-18T11:20:44Z</time>
      </trkpt>
      <trkpt lat="47.81188" lon="-3.70214">
        <ele>3</ele>
        <time>2018-07-18T11:20:45Z</time>
      </trkpt>
      <trkpt lat="47.81188" lon="-3.70216">
        <ele>3</ele>
        <time>2018-07-18T11:20:46Z</time>
      </trkpt>
      <trkpt lat="47.81188" lon="-3.70217">
        <ele>3</ele>
        <time>2018-07-18T11:20:47Z</time>
      </trkpt>
      <trkpt lat="47.81188" lon="-3.70217">
        <ele>3</ele>
        <time>2018-07-18T11:20:48Z</time>
      </trkpt>
      <trkpt lat="47.81188" lon="-3.70219">
        <ele>4</ele>
        <time>2018-07-18T11:20:49Z</time>
      </trkpt>
      <trkpt lat="47.81187" lon="-3.7022">
        <ele>4</ele>
        <time>2018-07-18T11:20:50Z</time>
      </trkpt>
      <trkpt lat="47.81187" lon="-3.7022">
        <ele>4</ele>
        <time>2018-07-18T11:20:51Z</time>
      </trkpt>
      <trkpt lat="47.81187" lon="-3.7022">
        <ele>4</ele>
        <time>2018-07-18T11:20:52Z</time>
      </trkpt>
      <trkpt lat="47.81186" lon="-3.70222">
        <ele>4</ele>
        <time>2018-07-18T11:20:53Z</time>
      </trkpt>
      <trkpt lat="47.81186" lon="-3.70222">
        <ele>5</ele>
        <time>2018-07-18T11:20:54Z</time>
      </trkpt>
      <trkpt lat="47.81186" lon="-3.70223">
        <ele>5</ele>
        <time>2018-07-18T11:20:55Z</time>
      </trkpt>
      <trkpt lat="47.81185" lon="-3.70223">
        <ele>5</ele>
        <time>2018-07-18T11:20:56Z</time>
      </trkpt>
      <trkpt lat="47.81185" lon="-3.70224">
        <ele>5</ele>
        <time>2018-07-18T11:20:57Z</time>
      </trkpt>
      <trkpt lat="47.81185" lon="-3.70224">
        <ele>5</ele>
        <time>2018-07-18T11:20:58Z</time>
      </trkpt>
      <trkpt lat="47.81184" lon="-3.70225">
        <ele>6</ele>
        <time>2018-07-18T11:20:59Z</time>
      </trkpt>
      <trkpt lat="47.81184" lon="-3.70226">
        <ele>6</ele>
        <time>2018-07-18T11:21:00Z</time>
      </trkpt>
      <trkpt lat="47.81184" lon="-3.70227">
        <ele>6</ele>
        <time>2018-07-18T11:21:01Z</time>
      </trkpt>
      <trkpt lat="47.81184" lon="-3.70228">
        <ele>6</ele>
        <time>2018-07-18T11:21:02Z</time>
      </trkpt>
      <trkpt lat="47.81184" lon="-3.70228">
        <ele>7</ele>
        <time>2018-07-18T11:21:03Z</time>
      </trkpt>
      <trkpt lat="47.81184" lon="-3.70229">
        <ele>7</ele>
        <time>2018-07-18T11:21:04Z</time>
      </trkpt>
      <trkpt lat="47.81184" lon="-3.7023">
        <ele>7</ele>
        <time>2018-07-18T11:21:05Z</time>
      </trkpt>
      <trkpt lat="47.81183" lon="-3.70231">
        <ele>7</ele>
        <time>2018-07-18T11:21:06Z</time>
      </trkpt>
      <trkpt lat="47.81183" lon="-3.70231">
        <ele>7</ele>
        <time>2018-07-18T11:21:07Z</time>
      </trkpt>
      <trkpt lat="47.81182" lon="-3.70234">
        <ele>8</ele>
        <time>2018-07-18T11:21:08Z</time>
      </trkpt>
      <trkpt lat="47.81182" lon="-3.70234">
        <ele>8</ele>
        <time>2018-07-18T11:21:09Z</time>
      </trkpt>
      <trkpt lat="47.81182" lon="-3.70234">
        <ele>8</ele>
        <time>2018-07-18T11:21:10Z</time>
      </trkpt>
      <trkpt lat="47.81183" lon="-3.70234">
        <ele>8</ele>
        <time>2018-07-18T11:21:11Z</time>
      </trkpt>
      <trkpt lat="47.81183" lon="-3.70234">
        <ele>8</ele>
        <time>2018-07-18T11:21:12Z</time>
      </trkpt>
      <trkpt lat="47.81182" lon="-3.70236">
        <ele>9</ele>
        <time>2018-07-18T11:21:13Z</time>
      </trkpt>
      <trkpt lat="47.81182" lon="-3.70237">
        <ele>9</ele>
        <time>2018-07-18T11:21:14Z</time>
      </trkpt>
      <trkpt lat="47.81181" lon="-3.70237">
        <ele>9</ele>
        <time>2018-07-18T11:21:15Z</time>
      </trkpt>
      <trkpt lat="47.81181" lon="-3.70238">
        <ele>9</ele>
        <time>2018-07-18T11:21:16Z</time>
      </trkpt>
      <trkpt lat="47.8118" lon="-3.7024">
        <ele>9</ele>
        <time>2018-07-18T11:21:17Z</time>
      </trkpt>
      <trkpt lat="47.8118" lon="-3.7024">
        <ele>9</ele>
        <time>2018-07-18T11:21:18Z</time>
      </trkpt>
      <trkpt lat="47.8118" lon="-3.70243">
        <ele>10</ele>
        <time>2018-07-18T11:21:19Z</time>
      </trkpt>
      <trkpt lat="47.81179" lon="-3.70244">
        <ele>10</ele>
        <time>2018-07-18T11:21:20Z</time>
      </trkpt>
      <trkpt lat="47.81179" lon="-3.70244">
        <ele>10</ele>
        <time>2018-07-18T11:21:21Z</time>
      </trkpt>
      <trkpt lat="47.8118" lon="-3.70247">
        <ele>10</ele>
        <time>2018-07-18T11:21:22Z</time>
      </trkpt>
      <trkpt lat="47.8118" lon="-3.70247">
        <ele>10</ele>
        <time>2018-07-18T11:21:23Z</time>
      </trkpt>
      <trkpt lat="47.81181" lon="-3.70249">
        <ele>10</ele>
        <time>2018-07-18T11:21:24Z</time>
      </trkpt>
      <trkpt lat="47.81183" lon="-3.70254">
        <ele>11</ele>
        <time>2018-07-18T11:21:25Z</time>
      </trkpt>
      <trkpt lat="47.81185" lon="-3.70257">
        <ele>11</ele>
        <time>2018-07-18T11:21:26Z</time>
      </trkpt>
      <trkpt lat="47.81186" lon="-3.7026">
        <ele>11</ele>
        <time>2018-07-18T11:21:27Z</time>
      </trkpt>
      <trkpt lat="47.81188" lon="-3.70264">
        <ele>11</ele>
        <time>2018-07-18T11:21:28Z</time>
      </trkpt>
      <trkpt lat="47.81189" lon="-3.70267">
        <ele>12</ele>
        <time>2018-07-18T11:21:29Z</time>
      </trkpt>
      <trkpt lat="47.8119" lon="-3.70271">
        <ele>12</ele>
        <time>2018-07-18T11:21:30Z</time>
      </trkpt>
      <trkpt lat="47.81191" lon="-3.70275">
        <ele>12</ele>
        <time>2018-07-18T11:21:31Z</time>
      </trkpt>
      <trkpt lat="47.81192" lon="-3.70278">
        <ele>12</ele>
        <time>2018-07-18T11:21:32Z</time>
      </trkpt>
      <trkpt lat="47.81192" lon="-3.70278">
        <ele>12</ele>
        <time>2018-07-18T11:21:33Z</time>
      </trkpt>
      <trkpt lat="47.81193" lon="-3.70283">
        <ele>13</ele>
        <time>2018-07-18T11:21:34Z</time>
      </trkpt>
      <trkpt lat="47.81195" lon="-3.70292">
        <ele>13</ele>
        <time>2018-07-18T11:21:35Z</time>
      </trkpt>
      <trkpt lat="47.81195" lon="-3.70292">
        <ele>13</ele>
        <time>2018-07-18T11:21:36Z</time>
      </trkpt>
      <trkpt lat="47.81197" lon="-3.70302">
        <ele>13</ele>
        <time>2018-07-18T11:21:37Z</time>
      </trkpt>
      <trkpt lat="47.81197" lon="-3.70302">
        <ele>13</ele>
        <time>2018-07-18T11:21:38Z</time>
      </trkpt>
      <trkpt lat="47.812" lon="-3.70312">
        <ele>13</ele>
        <time>2018-07-18T11:21:39Z</time>
      </trkpt>
      <trkpt lat="47.81202" lon="-3.70318">
        <ele>13</ele>
        <time>2018-07-18T11:21:40Z</time>
      </trkpt>
      <trkpt lat="47.81203" lon="-3.70322">
        <ele>13</ele>
        <time>2018-07-18T11:21:41Z</time>
      </trkpt>
      <trkpt lat="47.81204" lon="-3.70327">
        <ele>14</ele>
        <time>2018-07-18T11:21:42Z</time>
      </trkpt>
      <trkpt lat="47.81204" lon="-3.70327">
        <ele>14</ele>
        <time>2018-07-18T11:21:43Z</time>
      </trkpt>
      <trkpt lat="47.81205" lon="-3.70332">
        <ele>14</ele>
        <time>2018-07-18T11:21:44Z</time>
      </trkpt>
      <trkpt lat="47.81205" lon="-3.70334">
        <ele>14</ele>
        <time>2018-07-18T11:21:45Z</time>
      </trkpt>
      <trkpt lat="47.81205" lon="-3.70334">
        <ele>14</ele>
        <time>2018-07-18T11:21:46Z</time>
      </trkpt>
      <trkpt lat="47.81205" lon="-3.70335">
        <ele>14</ele>
        <time>2018-07-18T11:21:47Z</time>
      </trkpt>
      <trkpt lat="47.81205" lon="-3.70335">
        <ele>14</ele>
        <time>2018-07-18T11:21:48Z</time>
      </trkpt>
      <trkpt lat="47.81205" lon="-3.70335">
        <ele>14</ele>
        <time>2018-07-18T11:21:49Z</time>
      </trkpt>
      <trkpt lat="47.81206" lon="-3.70333">
        <ele>14</ele>
        <time>2018-07-18T11:21:50Z</time>
      </trkpt>
      <trkpt lat="47.81207" lon="-3.70331">
        <ele>14</ele>
        <time>2018-07-18T11:21:51Z</time>
      </trkpt>
      <trkpt lat="47.8121" lon="-3.70328">
        <ele>14</ele>
        <time>2018-07-18T11:21:52Z</time>
      </trkpt>
      <trkpt lat="47.81213" lon="-3.70327">
        <ele>14</ele>
        <time>2018-07-18T11:21:53Z</time>
      </trkpt>
      <trkpt lat="47.81213" lon="-3.70327">
        <ele>14</ele>
        <time>2018-07-18T11:21:54Z</time>
      </trkpt>
      <trkpt lat="47.81217" lon="-3.70327">
        <ele>14</ele>
        <time>2018-07-18T11:21:55Z</time>
      </trkpt>
      <trkpt lat="47.8122" lon="-3.70331">
        <ele>14</ele>
        <time>2018-07-18T11:21:56Z</time>
      </trkpt>
      <trkpt lat="47.81223" lon="-3.70336">
        <ele>13</ele>
        <time>2018-07-18T11:21:57Z</time>
      </trkpt>
      <trkpt lat="47.81224" lon="-3.70342">
        <ele>13</ele>
        <time>2018-07-18T11:21:58Z</time>
      </trkpt>
      <trkpt lat="47.81226" lon="-3.70347">
        <ele>13</ele>
        <time>2018-07-18T11:21:59Z</time>
      </trkpt>
      <trkpt lat="47.81229" lon="-3.70359">
        <ele>12</ele>
        <time>2018-07-18T11:22:00Z</time>
      </trkpt>
      <trkpt lat="47.8123" lon="-3.70365">
        <ele>11</ele>
        <time>2018-07-18T11:22:01Z</time>
      </trkpt>
      <trkpt lat="47.8123" lon="-3.70365">
        <ele>11</ele>
        <time>2018-07-18T11:22:02Z</time>
      </trkpt>
      <trkpt lat="47.81232" lon="-3.70372">
        <ele>11</ele>
        <time>2018-07-18T11:22:03Z</time>
      </trkpt>
      <trkpt lat="47.81233" lon="-3.70381">
        <ele>10</ele>
        <time>2018-07-18T11:22:04Z</time>
      </trkpt>
      <trkpt lat="47.81235" lon="-3.7039">
        <ele>10</ele>
        <time>2018-07-18T11:22:05Z</time>
      </trkpt>
      <trkpt lat="47.81235" lon="-3.70399">
        <ele>9</ele>
        <time>2018-07-18T11:22:06Z</time>
      </trkpt>
      <trkpt lat="47.81234" lon="-3.70409">
        <ele>9</ele>
        <time>2018-07-18T11:22:07Z</time>
      </trkpt>
      <trkpt lat="47.81232" lon="-3.70419">
        <ele>8</ele>
        <time>2018-07-18T11:22:08Z</time>
      </trkpt>
      <trkpt lat="47.81229" lon="-3.70428">
        <ele>8</ele>
        <time>2018-07-18T11:22:09Z</time>
      </trkpt>
      <trkpt lat="47.81226" lon="-3.70436">
        <ele>8</ele>
        <time>2018-07-18T11:22:10Z</time>
      </trkpt>
      <trkpt lat="47.81222" lon="-3.70445">
        <ele>7</ele>
        <time>2018-07-18T11:22:11Z</time>
      </trkpt>
      <trkpt lat="47.8122" lon="-3.70453">
        <ele>7</ele>
        <time>2018-07-18T11:22:12Z</time>
      </trkpt>
      <trkpt lat="47.81218" lon="-3.70462">
        <ele>7</ele>
        <time>2018-07-18T11:22:13Z</time>
      </trkpt>
      <trkpt lat="47.81216" lon="-3.70479">
        <ele>7</ele>
        <time>2018-07-18T11:22:14Z</time>
      </trkpt>
      <trkpt lat="47.81216" lon="-3.70479">
        <ele>7</ele>
        <time>2018-07-18T11:22:15Z</time>
      </trkpt>
      <trkpt lat="47.81217" lon="-3.70487">
        <ele>6</ele>
        <time>2018-07-18T11:22:16Z</time>
      </trkpt>
      <trkpt lat="47.81217" lon="-3.70495">
        <ele>6</ele>
        <time>2018-07-18T11:22:17Z</time>
      </trkpt>
      <trkpt lat="47.81217" lon="-3.70503">
        <ele>6</ele>
        <time>2018-07-18T11:22:18Z</time>
      </trkpt>
      <trkpt lat="47.81217" lon="-3.70511">
        <ele>6</ele>
        <time>2018-07-18T11:22:19Z</time>
      </trkpt>
      <trkpt lat="47.81218" lon="-3.70519">
        <ele>6</ele>
        <time>2018-07-18T11:22:20Z</time>
      </trkpt>
      <trkpt lat="47.81218" lon="-3.70526">
        <ele>6</ele>
        <time>2018-07-18T11:22:21Z</time>
      </trkpt>
      <trkpt lat="47.81218" lon="-3.70533">
        <ele>6</ele>
        <time>2018-07-18T11:22:22Z</time>
      </trkpt>
      <trkpt lat="47.81219" lon="-3.7054">
        <ele>6</ele>
        <time>2018-07-18T11:22:23Z</time>
      </trkpt>
      <trkpt lat="47.8122" lon="-3.70546">
        <ele>6</ele>
        <time>2018-07-18T11:22:24Z</time>
      </trkpt>
      <trkpt lat="47.81221" lon="-3.70552">
        <ele>6</ele>
        <time>2018-07-18T11:22:25Z</time>
      </trkpt>
      <trkpt lat="47.81222" lon="-3.70557">
        <ele>6</ele>
        <time>2018-07-18T11:22:26Z</time>
      </trkpt>
      <trkpt lat="47.81223" lon="-3.70561">
        <ele>6</ele>
        <time>2018-07-18T11:22:27Z</time>
      </trkpt>
      <trkpt lat="47.81224" lon="-3.70565">
        <ele>6</ele>
        <time>2018-07-18T11:22:28Z</time>
      </trkpt>
      <trkpt lat="47.81225" lon="-3.70569">
        <ele>6</ele>
        <time>2018-07-18T11:22:29Z</time>
      </trkpt>
      <trkpt lat="47.81225" lon="-3.70574">
        <ele>7</ele>
        <time>2018-07-18T11:22:30Z</time>
      </trkpt>
      <trkpt lat="47.81226" lon="-3.70578">
        <ele>7</ele>
        <time>2018-07-18T11:22:31Z</time>
      </trkpt>
      <trkpt lat="47.81226" lon="-3.70583">
        <ele>7</ele>
        <time>2018-07-18T11:22:32Z</time>
      </trkpt>
      <trkpt lat="47.81228" lon="-3.70592">
        <ele>7</ele>
        <time>2018-07-18T11:22:33Z</time>
      </trkpt>
      <trkpt lat="47.8123" lon="-3.70595">
        <ele>7</ele>
        <time>2018-07-18T11:22:34Z</time>
      </trkpt>
      <trkpt lat="47.81233" lon="-3.70599">
        <ele>7</ele>
        <time>2018-07-18T11:22:35Z</time>
      </trkpt>
      <trkpt lat="47.81233" lon="-3.70599">
        <ele>7</ele>
        <time>2018-07-18T11:22:36Z</time>
      </trkpt>
      <trkpt lat="47.81239" lon="-3.70608">
        <ele>7</ele>
        <time>2018-07-18T11:22:37Z</time>
      </trkpt>
      <trkpt lat="47.81243" lon="-3.70613">
        <ele>7</ele>
        <time>2018-07-18T11:22:38Z</time>
      </trkpt>
      <trkpt lat="47.81246" lon="-3.70618">
        <ele>6</ele>
        <time>2018-07-18T11:22:39Z</time>
      </trkpt>
      <trkpt lat="47.8125" lon="-3.70624">
        <ele>6</ele>
        <time>2018-07-18T11:22:40Z</time>
      </trkpt>
      <trkpt lat="47.81254" lon="-3.70631">
        <ele>5</ele>
        <time>2018-07-18T11:22:41Z</time>
      </trkpt>
      <trkpt lat="47.81257" lon="-3.7064">
        <ele>5</ele>
        <time>2018-07-18T11:22:42Z</time>
      </trkpt>
      <trkpt lat="47.81261" lon="-3.70648">
        <ele>5</ele>
        <time>2018-07-18T11:22:43Z</time>
      </trkpt>
      <trkpt lat="47.81264" lon="-3.70656">
        <ele>4</ele>
        <time>2018-07-18T11:22:44Z</time>
      </trkpt>
      <trkpt lat="47.81264" lon="-3.70656">
        <ele>4</ele>
        <time>2018-07-18T11:22:45Z</time>
      </trkpt>
      <trkpt lat="47.81267" lon="-3.70663">
        <ele>4</ele>
        <time>2018-07-18T11:22:46Z</time>
      </trkpt>
      <trkpt lat="47.81269" lon="-3.7067">
        <ele>4</ele>
        <time>2018-07-18T11:22:47Z</time>
      </trkpt>
      <trkpt lat="47.81272" lon="-3.70677">
        <ele>4</ele>
        <time>2018-07-18T11:22:48Z</time>
      </trkpt>
      <trkpt lat="47.81274" lon="-3.70683">
        <ele>4</ele>
        <time>2018-07-18T11:22:49Z</time>
      </trkpt>
      <trkpt lat="47.81275" lon="-3.70688">
        <ele>4</ele>
        <time>2018-07-18T11:22:50Z</time>
      </trkpt>
      <trkpt lat="47.81277" lon="-3.70696">
        <ele>4</ele>
        <time>2018-07-18T11:22:51Z</time>
      </trkpt>
      <trkpt lat="47.81278" lon="-3.70699">
        <ele>4</ele>
        <time>2018-07-18T11:22:52Z</time>
      </trkpt>
      <trkpt lat="47.81278" lon="-3.70702">
        <ele>4</ele>
        <time>2018-07-18T11:22:53Z</time>
      </trkpt>
      <trkpt lat="47.81278" lon="-3.70704">
        <ele>4</ele>
        <time>2018-07-18T11:22:54Z</time>
      </trkpt>
      <trkpt lat="47.81278" lon="-3.70704">
        <ele>4</ele>
        <time>2018-07-18T11:22:55Z</time>
      </trkpt>
      <trkpt lat="47.81278" lon="-3.70705">
        <ele>4</ele>
        <time>2018-07-18T11:22:56Z</time>
      </trkpt>
      <trkpt lat="47.81278" lon="-3.70705">
        <ele>4</ele>
        <time>2018-07-18T11:22:57Z</time>
      </trkpt>
      <trkpt lat="47.81278" lon="-3.70705">
        <ele>4</ele>
        <time>2018-07-18T11:22:58Z</time>
      </trkpt>
      <trkpt lat="47.81278" lon="-3.70705">
        <ele>4</ele>
        <time>2018-07-18T11:22:59Z</time>
      </trkpt>
      <trkpt lat="47.81278" lon="-3.70707">
        <ele>4</ele>
        <time>2018-07-18T11:23:00Z</time>
      </trkpt>
      <trkpt lat="47.81278" lon="-3.70708">
        <ele>5</ele>
        <time>2018-07-18T11:23:01Z</time>
      </trkpt>
      <trkpt lat="47.81278" lon="-3.70708">
        <ele>5</ele>
        <time>2018-07-18T11:23:02Z</time>
      </trkpt>
      <trkpt lat="47.81277" lon="-3.70708">
        <ele>5</ele>
        <time>2018-07-18T11:23:03Z</time>
      </trkpt>
      <trkpt lat="47.81277" lon="-3.7071">
        <ele>7</ele>
        <time>2018-07-18T11:23:04Z</time>
      </trkpt>
      <trkpt lat="47.81277" lon="-3.7071">
        <ele>7</ele>
        <time>2018-07-18T11:23:05Z</time>
      </trkpt>
      <trkpt lat="47.81277" lon="-3.70711">
        <ele>7</ele>
        <time>2018-07-18T11:23:06Z</time>
      </trkpt>
      <trkpt lat="47.81278" lon="-3.70711">
        <ele>7</ele>
        <time>2018-07-18T11:23:07Z</time>
      </trkpt>
      <trkpt lat="47.81278" lon="-3.70712">
        <ele>8</ele>
        <time>2018-07-18T11:23:08Z</time>
      </trkpt>
      <trkpt lat="47.81278" lon="-3.70713">
        <ele>8</ele>
        <time>2018-07-18T11:23:09Z</time>
      </trkpt>
      <trkpt lat="47.81278" lon="-3.70713">
        <ele>8</ele>
        <time>2018-07-18T11:23:10Z</time>
      </trkpt>
      <trkpt lat="47.81278" lon="-3.70713">
        <ele>8</ele>
        <time>2018-07-18T11:23:11Z</time>
      </trkpt>
      <trkpt lat="47.81277" lon="-3.70714">
        <ele>8</ele>
        <time>2018-07-18T11:23:12Z</time>
      </trkpt>
      <trkpt lat="47.81276" lon="-3.70714">
        <ele>8</ele>
        <time>2018-07-18T11:23:13Z</time>
      </trkpt>
      <trkpt lat="47.81276" lon="-3.70714">
        <ele>9</ele>
        <time>2018-07-18T11:23:14Z</time>
      </trkpt>
      <trkpt lat="47.81275" lon="-3.70715">
        <ele>9</ele>
        <time>2018-07-18T11:23:15Z</time>
      </trkpt>
      <trkpt lat="47.81275" lon="-3.70715">
        <ele>9</ele>
        <time>2018-07-18T11:23:16Z</time>
      </trkpt>
      <trkpt lat="47.81275" lon="-3.70716">
        <ele>9</ele>
        <time>2018-07-18T11:23:17Z</time>
      </trkpt>
      <trkpt lat="47.81275" lon="-3.70716">
        <ele>10</ele>
        <time>2018-07-18T11:23:18Z</time>
      </trkpt>
      <trkpt lat="47.81275" lon="-3.70717">
        <ele>10</ele>
        <time>2018-07-18T11:23:19Z</time>
      </trkpt>
      <trkpt lat="47.81275" lon="-3.70718">
        <ele>10</ele>
        <time>2018-07-18T11:23:20Z</time>
      </trkpt>
      <trkpt lat="47.81275" lon="-3.70718">
        <ele>10</ele>
        <time>2018-07-18T11:23:21Z</time>
      </trkpt>
      <trkpt lat="47.81272" lon="-3.7072">
        <ele>11</ele>
        <time>2018-07-18T11:23:22Z</time>
      </trkpt>
      <trkpt lat="47.81271" lon="-3.70721">
        <ele>11</ele>
        <time>2018-07-18T11:23:23Z</time>
      </trkpt>
      <trkpt lat="47.81271" lon="-3.70722">
        <ele>11</ele>
        <time>2018-07-18T11:23:24Z</time>
      </trkpt>
      <trkpt lat="47.81271" lon="-3.70723">
        <ele>11</ele>
        <time>2018-07-18T11:23:25Z</time>
      </trkpt>
      <trkpt lat="47.81271" lon="-3.70724">
        <ele>11</ele>
        <time>2018-07-18T11:23:26Z</time>
      </trkpt>
      <trkpt lat="47.81271" lon="-3.70725">
        <ele>11</ele>
        <time>2018-07-18T11:23:27Z</time>
      </trkpt>
      <trkpt lat="47.81271" lon="-3.70726">
        <ele>11</ele>
        <time>2018-07-18T11:23:28Z</time>
      </trkpt>
      <trkpt lat="47.81271" lon="-3.70727">
        <ele>11</ele>
        <time>2018-07-18T11:23:29Z</time>
      </trkpt>
      <trkpt lat="47.81271" lon="-3.70728">
        <ele>11</ele>
        <time>2018-07-18T11:23:30Z</time>
      </trkpt>
      <trkpt lat="47.81271" lon="-3.70729">
        <ele>11</ele>
        <time>2018-07-18T11:23:31Z</time>
      </trkpt>
      <trkpt lat="47.81271" lon="-3.7073">
        <ele>11</ele>
        <time>2018-07-18T11:23:32Z</time>
      </trkpt>
      <trkpt lat="47.81271" lon="-3.70731">
        <ele>11</ele>
        <time>2018-07-18T11:23:33Z</time>
      </trkpt>
      <trkpt lat="47.8127" lon="-3.70731">
        <ele>11</ele>
        <time>2018-07-18T11:23:34Z</time>
      </trkpt>
      <trkpt lat="47.81269" lon="-3.70734">
        <ele>11</ele>
        <time>2018-07-18T11:23:35Z</time>
      </trkpt>
      <trkpt lat="47.81268" lon="-3.70734">
        <ele>11</ele>
        <time>2018-07-18T11:23:36Z</time>
      </trkpt>
      <trkpt lat="47.81268" lon="-3.70735">
        <ele>12</ele>
        <time>2018-07-18T11:23:37Z</time>
      </trkpt>
      <trkpt lat="47.81268" lon="-3.70736">
        <ele>12</ele>
        <time>2018-07-18T11:23:38Z</time>
      </trkpt>
      <trkpt lat="47.81267" lon="-3.70737">
        <ele>12</ele>
        <time>2018-07-18T11:23:39Z</time>
      </trkpt>
      <trkpt lat="47.81267" lon="-3.70738">
        <ele>12</ele>
        <time>2018-07-18T11:23:40Z</time>
      </trkpt>
      <trkpt lat="47.81266" lon="-3.70738">
        <ele>12</ele>
        <time>2018-07-18T11:23:41Z</time>
      </trkpt>
      <trkpt lat="47.81266" lon="-3.70739">
        <ele>12</ele>
        <time>2018-07-18T11:23:42Z</time>
      </trkpt>
      <trkpt lat="47.81265" lon="-3.70739">
        <ele>13</ele>
        <time>2018-07-18T11:23:43Z</time>
      </trkpt>
      <trkpt lat="47.81265" lon="-3.7074">
        <ele>13</ele>
        <time>2018-07-18T11:23:44Z</time>
      </trkpt>
      <trkpt lat="47.81265" lon="-3.70741">
        <ele>13</ele>
        <time>2018-07-18T11:23:45Z</time>
      </trkpt>
      <trkpt lat="47.81264" lon="-3.70741">
        <ele>13</ele>
        <time>2018-07-18T11:23:46Z</time>
      </trkpt>
      <trkpt lat="47.81264" lon="-3.70741">
        <ele>13</ele>
        <time>2018-07-18T11:23:47Z</time>
      </trkpt>
      <trkpt lat="47.81263" lon="-3.70742">
        <ele>14</ele>
        <time>2018-07-18T11:23:48Z</time>
      </trkpt>
      <trkpt lat="47.81262" lon="-3.70742">
        <ele>14</ele>
        <time>2018-07-18T11:23:49Z</time>
      </trkpt>
      <trkpt lat="47.81262" lon="-3.70742">
        <ele>14</ele>
        <time>2018-07-18T11:23:50Z</time>
      </trkpt>
      <trkpt lat="47.81261" lon="-3.70743">
        <ele>15</ele>
        <time>2018-07-18T11:23:51Z</time>
      </trkpt>
      <trkpt lat="47.81261" lon="-3.70743">
        <ele>15</ele>
        <time>2018-07-18T11:23:52Z</time>
      </trkpt>
      <trkpt lat="47.81261" lon="-3.70743">
        <ele>15</ele>
        <time>2018-07-18T11:23:53Z</time>
      </trkpt>
      <trkpt lat="47.81261" lon="-3.70744">
        <ele>16</ele>
        <time>2018-07-18T11:23:54Z</time>
      </trkpt>
      <trkpt lat="47.8126" lon="-3.70744">
        <ele>16</ele>
        <time>2018-07-18T11:23:55Z</time>
      </trkpt>
      <trkpt lat="47.81259" lon="-3.70745">
        <ele>16</ele>
        <time>2018-07-18T11:23:56Z</time>
      </trkpt>
      <trkpt lat="47.81259" lon="-3.70745">
        <ele>16</ele>
        <time>2018-07-18T11:23:57Z</time>
      </trkpt>
      <trkpt lat="47.81258" lon="-3.70746">
        <ele>17</ele>
        <time>2018-07-18T11:23:58Z</time>
      </trkpt>
      <trkpt lat="47.81258" lon="-3.70747">
        <ele>17</ele>
        <time>2018-07-18T11:23:59Z</time>
      </trkpt>
      <trkpt lat="47.81258" lon="-3.70748">
        <ele>17</ele>
        <time>2018-07-18T11:24:00Z</time>
      </trkpt>
      <trkpt lat="47.81257" lon="-3.70749">
        <ele>18</ele>
        <time>2018-07-18T11:24:01Z</time>
      </trkpt>
      <trkpt lat="47.81257" lon="-3.7075">
        <ele>18</ele>
        <time>2018-07-18T11:24:02Z</time>
      </trkpt>
      <trkpt lat="47.81257" lon="-3.7075">
        <ele>18</ele>
        <time>2018-07-18T11:24:03Z</time>
      </trkpt>
      <trkpt lat="47.81256" lon="-3.70751">
        <ele>19</ele>
        <time>2018-07-18T11:24:04Z</time>
      </trkpt>
      <trkpt lat="47.81256" lon="-3.70751">
        <ele>19</ele>
        <time>2018-07-18T11:24:05Z</time>
      </trkpt>
      <trkpt lat="47.81256" lon="-3.70752">
        <ele>19</ele>
        <time>2018-07-18T11:24:06Z</time>
      </trkpt>
      <trkpt lat="47.81256" lon="-3.70752">
        <ele>19</ele>
        <time>2018-07-18T11:24:07Z</time>
      </trkpt>
      <trkpt lat="47.81256" lon="-3.70753">
        <ele>20</ele>
        <time>2018-07-18T11:24:08Z</time>
      </trkpt>
      <trkpt lat="47.81256" lon="-3.70753">
        <ele>20</ele>
        <time>2018-07-18T11:24:09Z</time>
      </trkpt>
      <trkpt lat="47.81256" lon="-3.70754">
        <ele>20</ele>
        <time>2018-07-18T11:24:10Z</time>
      </trkpt>
      <trkpt lat="47.81255" lon="-3.70754">
        <ele>20</ele>
        <time>2018-07-18T11:24:11Z</time>
      </trkpt>
      <trkpt lat="47.81255" lon="-3.70755">
        <ele>21</ele>
        <time>2018-07-18T11:24:12Z</time>
      </trkpt>
      <trkpt lat="47.81255" lon="-3.70755">
        <ele>21</ele>
        <time>2018-07-18T11:24:13Z</time>
      </trkpt>
      <trkpt lat="47.81254" lon="-3.70755">
        <ele>21</ele>
        <time>2018-07-18T11:24:14Z</time>
      </trkpt>
      <trkpt lat="47.81254" lon="-3.70756">
        <ele>21</ele>
        <time>2018-07-18T11:24:15Z</time>
      </trkpt>
      <trkpt lat="47.81253" lon="-3.70757">
        <ele>21</ele>
        <time>2018-07-18T11:24:16Z</time>
      </trkpt>
      <trkpt lat="47.81252" lon="-3.70757">
        <ele>22</ele>
        <time>2018-07-18T11:24:17Z</time>
      </trkpt>
      <trkpt lat="47.81252" lon="-3.70757">
        <ele>22</ele>
        <time>2018-07-18T11:24:18Z</time>
      </trkpt>
      <trkpt lat="47.81252" lon="-3.70758">
        <ele>23</ele>
        <time>2018-07-18T11:24:19Z</time>
      </trkpt>
      <trkpt lat="47.81251" lon="-3.70758">
        <ele>23</ele>
        <time>2018-07-18T11:24:20Z</time>
      </trkpt>
      <trkpt lat="47.81251" lon="-3.70759">
        <ele>23</ele>
        <time>2018-07-18T11:24:21Z</time>
      </trkpt>
      <trkpt lat="47.8125" lon="-3.70762">
        <ele>25</ele>
        <time>2018-07-18T11:24:22Z</time>
      </trkpt>
      <trkpt lat="47.81249" lon="-3.70763">
        <ele>25</ele>
        <time>2018-07-18T11:24:23Z</time>
      </trkpt>
      <trkpt lat="47.81248" lon="-3.70764">
        <ele>25</ele>
        <time>2018-07-18T11:24:24Z</time>
      </trkpt>
      <trkpt lat="47.81248" lon="-3.70764">
        <ele>25</ele>
        <time>2018-07-18T11:24:25Z</time>
      </trkpt>
      <trkpt lat="47.81247" lon="-3.70764">
        <ele>26</ele>
        <time>2018-07-18T11:24:26Z</time>
      </trkpt>
      <trkpt lat="47.81246" lon="-3.70764">
        <ele>26</ele>
        <time>2018-07-18T11:24:27Z</time>
      </trkpt>
      <trkpt lat="47.81246" lon="-3.70765">
        <ele>26</ele>
        <time>2018-07-18T11:24:28Z</time>
      </trkpt>
      <trkpt lat="47.81246" lon="-3.70765">
        <ele>26</ele>
        <time>2018-07-18T11:24:29Z</time>
      </trkpt>
      <trkpt lat="47.81246" lon="-3.70765">
        <ele>26</ele>
        <time>2018-07-18T11:24:30Z</time>
      </trkpt>
      <trkpt lat="47.81245" lon="-3.70765">
        <ele>26</ele>
        <time>2018-07-18T11:24:31Z</time>
      </trkpt>
      <trkpt lat="47.81245" lon="-3.70765">
        <ele>27</ele>
        <time>2018-07-18T11:24:32Z</time>
      </trkpt>
      <trkpt lat="47.81245" lon="-3.70764">
        <ele>27</ele>
        <time>2018-07-18T11:24:33Z</time>
      </trkpt>
      <trkpt lat="47.81244" lon="-3.70764">
        <ele>27</ele>
        <time>2018-07-18T11:24:34Z</time>
      </trkpt>
      <trkpt lat="47.81244" lon="-3.70764">
        <ele>27</ele>
        <time>2018-07-18T11:24:35Z</time>
      </trkpt>
      <trkpt lat="47.81243" lon="-3.70764">
        <ele>28</ele>
        <time>2018-07-18T11:24:36Z</time>
      </trkpt>
      <trkpt lat="47.81242" lon="-3.70764">
        <ele>28</ele>
        <time>2018-07-18T11:24:37Z</time>
      </trkpt>
      <trkpt lat="47.81242" lon="-3.70765">
        <ele>28</ele>
        <time>2018-07-18T11:24:38Z</time>
      </trkpt>
      <trkpt lat="47.81241" lon="-3.70765">
        <ele>28</ele>
        <time>2018-07-18T11:24:39Z</time>
      </trkpt>
      <trkpt lat="47.81241" lon="-3.70766">
        <ele>28</ele>
        <time>2018-07-18T11:24:40Z</time>
      </trkpt>
      <trkpt lat="47.8124" lon="-3.70766">
        <ele>28</ele>
        <time>2018-07-18T11:24:41Z</time>
      </trkpt>
      <trkpt lat="47.8124" lon="-3.70767">
        <ele>28</ele>
        <time>2018-07-18T11:24:42Z</time>
      </trkpt>
      <trkpt lat="47.8124" lon="-3.70768">
        <ele>29</ele>
        <time>2018-07-18T11:24:43Z</time>
      </trkpt>
      <trkpt lat="47.81239" lon="-3.70769">
        <ele>29</ele>
        <time>2018-07-18T11:24:44Z</time>
      </trkpt>
      <trkpt lat="47.81239" lon="-3.7077">
        <ele>29</ele>
        <time>2018-07-18T11:24:45Z</time>
      </trkpt>
      <trkpt lat="47.81239" lon="-3.70771">
        <ele>29</ele>
        <time>2018-07-18T11:24:46Z</time>
      </trkpt>
      <trkpt lat="47.81238" lon="-3.70771">
        <ele>29</ele>
        <time>2018-07-18T11:24:47Z</time>
      </trkpt>
      <trkpt lat="47.81237" lon="-3.70771">
        <ele>29</ele>
        <time>2018-07-18T11:24:48Z</time>
      </trkpt>
      <trkpt lat="47.81236" lon="-3.70772">
        <ele>29</ele>
        <time>2018-07-18T11:24:49Z</time>
      </trkpt>
      <trkpt lat="47.81235" lon="-3.70772">
        <ele>30</ele>
        <time>2018-07-18T11:24:50Z</time>
      </trkpt>
      <trkpt lat="47.81235" lon="-3.70772">
        <ele>30</ele>
        <time>2018-07-18T11:24:51Z</time>
      </trkpt>
      <trkpt lat="47.81234" lon="-3.70773">
        <ele>30</ele>
        <time>2018-07-18T11:24:52Z</time>
      </trkpt>
      <trkpt lat="47.81233" lon="-3.70773">
        <ele>31</ele>
        <time>2018-07-18T11:24:53Z</time>
      </trkpt>
      <trkpt lat="47.81232" lon="-3.70773">
        <ele>31</ele>
        <time>2018-07-18T11:24:54Z</time>
      </trkpt>
      <trkpt lat="47.81232" lon="-3.70773">
        <ele>31</ele>
        <time>2018-07-18T11:24:55Z</time>
      </trkpt>
      <trkpt lat="47.81231" lon="-3.70773">
        <ele>31</ele>
        <time>2018-07-18T11:24:56Z</time>
      </trkpt>
      <trkpt lat="47.81231" lon="-3.70774">
        <ele>31</ele>
        <time>2018-07-18T11:24:57Z</time>
      </trkpt>
      <trkpt lat="47.8123" lon="-3.70774">
        <ele>32</ele>
        <time>2018-07-18T11:24:58Z</time>
      </trkpt>
      <trkpt lat="47.81229" lon="-3.70774">
        <ele>32</ele>
        <time>2018-07-18T11:24:59Z</time>
      </trkpt>
      <trkpt lat="47.81228" lon="-3.70774">
        <ele>32</ele>
        <time>2018-07-18T11:25:00Z</time>
      </trkpt>
      <trkpt lat="47.81228" lon="-3.70774">
        <ele>32</ele>
        <time>2018-07-18T11:25:01Z</time>
      </trkpt>
      <trkpt lat="47.81227" lon="-3.70774">
        <ele>32</ele>
        <time>2018-07-18T11:25:02Z</time>
      </trkpt>
      <trkpt lat="47.81226" lon="-3.70774">
        <ele>33</ele>
        <time>2018-07-18T11:25:03Z</time>
      </trkpt>
      <trkpt lat="47.81225" lon="-3.70774">
        <ele>33</ele>
        <time>2018-07-18T11:25:04Z</time>
      </trkpt>
      <trkpt lat="47.81225" lon="-3.70774">
        <ele>33</ele>
        <time>2018-07-18T11:25:05Z</time>
      </trkpt>
      <trkpt lat="47.81224" lon="-3.70774">
        <ele>33</ele>
        <time>2018-07-18T11:25:06Z</time>
      </trkpt>
      <trkpt lat="47.81223" lon="-3.70774">
        <ele>34</ele>
        <time>2018-07-18T11:25:07Z</time>
      </trkpt>
      <trkpt lat="47.81223" lon="-3.70774">
        <ele>34</ele>
        <time>2018-07-18T11:25:08Z</time>
      </trkpt>
      <trkpt lat="47.81222" lon="-3.70775">
        <ele>34</ele>
        <time>2018-07-18T11:25:09Z</time>
      </trkpt>
      <trkpt lat="47.8122" lon="-3.70777">
        <ele>34</ele>
        <time>2018-07-18T11:25:10Z</time>
      </trkpt>
      <trkpt lat="47.8122" lon="-3.70778">
        <ele>34</ele>
        <time>2018-07-18T11:25:11Z</time>
      </trkpt>
      <trkpt lat="47.8122" lon="-3.70778">
        <ele>34</ele>
        <time>2018-07-18T11:25:12Z</time>
      </trkpt>
      <trkpt lat="47.8122" lon="-3.70778">
        <ele>34</ele>
        <time>2018-07-18T11:25:13Z</time>
      </trkpt>
      <trkpt lat="47.81219" lon="-3.7078">
        <ele>34</ele>
        <time>2018-07-18T11:25:14Z</time>
      </trkpt>
      <trkpt lat="47.81218" lon="-3.70781">
        <ele>34</ele>
        <time>2018-07-18T11:25:15Z</time>
      </trkpt>
      <trkpt lat="47.81218" lon="-3.70783">
        <ele>34</ele>
        <time>2018-07-18T11:25:16Z</time>
      </trkpt>
      <trkpt lat="47.81217" lon="-3.70785">
        <ele>34</ele>
        <time>2018-07-18T11:25:17Z</time>
      </trkpt>
      <trkpt lat="47.81215" lon="-3.70786">
        <ele>34</ele>
        <time>2018-07-18T11:25:18Z</time>
      </trkpt>
      <trkpt lat="47.81214" lon="-3.70787">
        <ele>34</ele>
        <time>2018-07-18T11:25:19Z</time>
      </trkpt>
      <trkpt lat="47.81212" lon="-3.70788">
        <ele>34</ele>
        <time>2018-07-18T11:25:20Z</time>
      </trkpt>
      <trkpt lat="47.8121" lon="-3.7079">
        <ele>34</ele>
        <time>2018-07-18T11:25:21Z</time>
      </trkpt>
      <trkpt lat="47.81207" lon="-3.70791">
        <ele>34</ele>
        <time>2018-07-18T11:25:22Z</time>
      </trkpt>
      <trkpt lat="47.81205" lon="-3.70793">
        <ele>34</ele>
        <time>2018-07-18T11:25:23Z</time>
      </trkpt>
      <trkpt lat="47.81202" lon="-3.70795">
        <ele>34</ele>
        <time>2018-07-18T11:25:24Z</time>
      </trkpt>
      <trkpt lat="47.812" lon="-3.70797">
        <ele>34</ele>
        <time>2018-07-18T11:25:25Z</time>
      </trkpt>
      <trkpt lat="47.81198" lon="-3.70797">
        <ele>34</ele>
        <time>2018-07-18T11:25:26Z</time>
      </trkpt>
      <trkpt lat="47.81196" lon="-3.70797">
        <ele>34</ele>
        <time>2018-07-18T11:25:27Z</time>
      </trkpt>
      <trkpt lat="47.81194" lon="-3.70798">
        <ele>34</ele>
        <time>2018-07-18T11:25:28Z</time>
      </trkpt>
      <trkpt lat="47.81192" lon="-3.70799">
        <ele>35</ele>
        <time>2018-07-18T11:25:29Z</time>
      </trkpt>
      <trkpt lat="47.8119" lon="-3.70799">
        <ele>35</ele>
        <time>2018-07-18T11:25:30Z</time>
      </trkpt>
      <trkpt lat="47.81189" lon="-3.70801">
        <ele>35</ele>
        <time>2018-07-18T11:25:31Z</time>
      </trkpt>
      <trkpt lat="47.81187" lon="-3.70804">
        <ele>35</ele>
        <time>2018-07-18T11:25:32Z</time>
      </trkpt>
      <trkpt lat="47.81186" lon="-3.70806">
        <ele>36</ele>
        <time>2018-07-18T11:25:33Z</time>
      </trkpt>
      <trkpt lat="47.81185" lon="-3.70808">
        <ele>36</ele>
        <time>2018-07-18T11:25:34Z</time>
      </trkpt>
      <trkpt lat="47.81183" lon="-3.70811">
        <ele>37</ele>
        <time>2018-07-18T11:25:35Z</time>
      </trkpt>
      <trkpt lat="47.81182" lon="-3.70814">
        <ele>37</ele>
        <time>2018-07-18T11:25:36Z</time>
      </trkpt>
      <trkpt lat="47.81182" lon="-3.70816">
        <ele>37</ele>
        <time>2018-07-18T11:25:37Z</time>
      </trkpt>
      <trkpt lat="47.8118" lon="-3.70818">
        <ele>37</ele>
        <time>2018-07-18T11:25:38Z</time>
      </trkpt>
      <trkpt lat="47.81179" lon="-3.70821">
        <ele>38</ele>
        <time>2018-07-18T11:25:39Z</time>
      </trkpt>
      <trkpt lat="47.81177" lon="-3.70823">
        <ele>38</ele>
        <time>2018-07-18T11:25:40Z</time>
      </trkpt>
      <trkpt lat="47.81177" lon="-3.70825">
        <ele>38</ele>
        <time>2018-07-18T11:25:41Z</time>
      </trkpt>
      <trkpt lat="47.81176" lon="-3.70827">
        <ele>39</ele>
        <time>2018-07-18T11:25:42Z</time>
      </trkpt>
      <trkpt lat="47.81175" lon="-3.70829">
        <ele>39</ele>
        <time>2018-07-18T11:25:43Z</time>
      </trkpt>
      <trkpt lat="47.81174" lon="-3.70831">
        <ele>39</ele>
        <time>2018-07-18T11:25:44Z</time>
      </trkpt>
      <trkpt lat="47.81173" lon="-3.70834">
        <ele>39</ele>
        <time>2018-07-18T11:25:45Z</time>
      </trkpt>
      <trkpt lat="47.81172" lon="-3.70836">
        <ele>39</ele>
        <time>2018-07-18T11:25:46Z</time>
      </trkpt>
      <trkpt lat="47.81171" lon="-3.70839">
        <ele>39</ele>
        <time>2018-07-18T11:25:47Z</time>
      </trkpt>
      <trkpt lat="47.81169" lon="-3.70841">
        <ele>39</ele>
        <time>2018-07-18T11:25:48Z</time>
      </trkpt>
      <trkpt lat="47.81168" lon="-3.70843">
        <ele>39</ele>
        <time>2018-07-18T11:25:49Z</time>
      </trkpt>
      <trkpt lat="47.81167" lon="-3.70844">
        <ele>39</ele>
        <time>2018-07-18T11:25:50Z</time>
      </trkpt>
      <trkpt lat="47.81166" lon="-3.70846">
        <ele>39</ele>
        <time>2018-07-18T11:25:51Z</time>
      </trkpt>
      <trkpt lat="47.81166" lon="-3.70847">
        <ele>39</ele>
        <time>2018-07-18T11:25:52Z</time>
      </trkpt>
      <trkpt lat="47.81165" lon="-3.70848">
        <ele>38</ele>
        <time>2018-07-18T11:25:53Z</time>
      </trkpt>
      <trkpt lat="47.81164" lon="-3.70849">
        <ele>38</ele>
        <time>2018-07-18T11:25:54Z</time>
      </trkpt>
      <trkpt lat="47.81163" lon="-3.7085">
        <ele>38</ele>
        <time>2018-07-18T11:25:55Z</time>
      </trkpt>
      <trkpt lat="47.81162" lon="-3.70851">
        <ele>38</ele>
        <time>2018-07-18T11:25:56Z</time>
      </trkpt>
      <trkpt lat="47.81161" lon="-3.70852">
        <ele>38</ele>
        <time>2018-07-18T11:25:57Z</time>
      </trkpt>
      <trkpt lat="47.8116" lon="-3.70853">
        <ele>38</ele>
        <time>2018-07-18T11:25:58Z</time>
      </trkpt>
      <trkpt lat="47.81159" lon="-3.70854">
        <ele>38</ele>
        <time>2018-07-18T11:25:59Z</time>
      </trkpt>
      <trkpt lat="47.81159" lon="-3.70856">
        <ele>39</ele>
        <time>2018-07-18T11:26:00Z</time>
      </trkpt>
      <trkpt lat="47.81158" lon="-3.70857">
        <ele>39</ele>
        <time>2018-07-18T11:26:01Z</time>
      </trkpt>
      <trkpt lat="47.81158" lon="-3.70858">
        <ele>38</ele>
        <time>2018-07-18T11:26:02Z</time>
      </trkpt>
      <trkpt lat="47.81158" lon="-3.70859">
        <ele>38</ele>
        <time>2018-07-18T11:26:03Z</time>
      </trkpt>
      <trkpt lat="47.81157" lon="-3.7086">
        <ele>38</ele>
        <time>2018-07-18T11:26:04Z</time>
      </trkpt>
      <trkpt lat="47.81156" lon="-3.70863">
        <ele>38</ele>
        <time>2018-07-18T11:26:05Z</time>
      </trkpt>
      <trkpt lat="47.81154" lon="-3.70865">
        <ele>38</ele>
        <time>2018-07-18T11:26:06Z</time>
      </trkpt>
      <trkpt lat="47.81153" lon="-3.70868">
        <ele>38</ele>
        <time>2018-07-18T11:26:07Z</time>
      </trkpt>
      <trkpt lat="47.81153" lon="-3.70872">
        <ele>38</ele>
        <time>2018-07-18T11:26:08Z</time>
      </trkpt>
      <trkpt lat="47.81152" lon="-3.70876">
        <ele>38</ele>
        <time>2018-07-18T11:26:09Z</time>
      </trkpt>
      <trkpt lat="47.81151" lon="-3.7088">
        <ele>38</ele>
        <time>2018-07-18T11:26:10Z</time>
      </trkpt>
      <trkpt lat="47.8115" lon="-3.70884">
        <ele>38</ele>
        <time>2018-07-18T11:26:11Z</time>
      </trkpt>
      <trkpt lat="47.81147" lon="-3.7089">
        <ele>38</ele>
        <time>2018-07-18T11:26:12Z</time>
      </trkpt>
      <trkpt lat="47.81145" lon="-3.70896">
        <ele>38</ele>
        <time>2018-07-18T11:26:13Z</time>
      </trkpt>
      <trkpt lat="47.81142" lon="-3.70902">
        <ele>38</ele>
        <time>2018-07-18T11:26:14Z</time>
      </trkpt>
      <trkpt lat="47.8114" lon="-3.70908">
        <ele>38</ele>
        <time>2018-07-18T11:26:15Z</time>
      </trkpt>
      <trkpt lat="47.81138" lon="-3.70915">
        <ele>38</ele>
        <time>2018-07-18T11:26:16Z</time>
      </trkpt>
      <trkpt lat="47.81135" lon="-3.70921">
        <ele>38</ele>
        <time>2018-07-18T11:26:17Z</time>
      </trkpt>
      <trkpt lat="47.81133" lon="-3.70927">
        <ele>38</ele>
        <time>2018-07-18T11:26:18Z</time>
      </trkpt>
      <trkpt lat="47.81131" lon="-3.70933">
        <ele>38</ele>
        <time>2018-07-18T11:26:19Z</time>
      </trkpt>
      <trkpt lat="47.8113" lon="-3.70937">
        <ele>38</ele>
        <time>2018-07-18T11:26:20Z</time>
      </trkpt>
      <trkpt lat="47.81127" lon="-3.70942">
        <ele>38</ele>
        <time>2018-07-18T11:26:21Z</time>
      </trkpt>
      <trkpt lat="47.81126" lon="-3.70946">
        <ele>38</ele>
        <time>2018-07-18T11:26:22Z</time>
      </trkpt>
      <trkpt lat="47.81124" lon="-3.70951">
        <ele>38</ele>
        <time>2018-07-18T11:26:23Z</time>
      </trkpt>
      <trkpt lat="47.81123" lon="-3.70956">
        <ele>38</ele>
        <time>2018-07-18T11:26:24Z</time>
      </trkpt>
      <trkpt lat="47.8112" lon="-3.70962">
        <ele>38</ele>
        <time>2018-07-18T11:26:25Z</time>
      </trkpt>
      <trkpt lat="47.81117" lon="-3.70969">
        <ele>38</ele>
        <time>2018-07-18T11:26:26Z</time>
      </trkpt>
      <trkpt lat="47.81114" lon="-3.70977">
        <ele>38</ele>
        <time>2018-07-18T11:26:27Z</time>
      </trkpt>
      <trkpt lat="47.81111" lon="-3.70984">
        <ele>38</ele>
        <time>2018-07-18T11:26:28Z</time>
      </trkpt>
      <trkpt lat="47.81108" lon="-3.7099">
        <ele>38</ele>
        <time>2018-07-18T11:26:29Z</time>
      </trkpt>
      <trkpt lat="47.81105" lon="-3.70997">
        <ele>38</ele>
        <time>2018-07-18T11:26:30Z</time>
      </trkpt>
      <trkpt lat="47.81103" lon="-3.71005">
        <ele>37</ele>
        <time>2018-07-18T11:26:31Z</time>
      </trkpt>
      <trkpt lat="47.811" lon="-3.71013">
        <ele>37</ele>
        <time>2018-07-18T11:26:32Z</time>
      </trkpt>
      <trkpt lat="47.81097" lon="-3.71021">
        <ele>37</ele>
        <time>2018-07-18T11:26:33Z</time>
      </trkpt>
      <trkpt lat="47.81095" lon="-3.71029">
        <ele>37</ele>
        <time>2018-07-18T11:26:34Z</time>
      </trkpt>
      <trkpt lat="47.81092" lon="-3.71037">
        <ele>37</ele>
        <time>2018-07-18T11:26:35Z</time>
      </trkpt>
      <trkpt lat="47.81088" lon="-3.71045">
        <ele>37</ele>
        <time>2018-07-18T11:26:36Z</time>
      </trkpt>
      <trkpt lat="47.81085" lon="-3.71051">
        <ele>37</ele>
        <time>2018-07-18T11:26:37Z</time>
      </trkpt>
      <trkpt lat="47.8108" lon="-3.71055">
        <ele>37</ele>
        <time>2018-07-18T11:26:38Z</time>
      </trkpt>
      <trkpt lat="47.81074" lon="-3.71061">
        <ele>37</ele>
        <time>2018-07-18T11:26:39Z</time>
      </trkpt>
      <trkpt lat="47.81068" lon="-3.71066">
        <ele>37</ele>
        <time>2018-07-18T11:26:40Z</time>
      </trkpt>
      <trkpt lat="47.81062" lon="-3.71068">
        <ele>37</ele>
        <time>2018-07-18T11:26:41Z</time>
      </trkpt>
      <trkpt lat="47.81055" lon="-3.71071">
        <ele>37</ele>
        <time>2018-07-18T11:26:42Z</time>
      </trkpt>
      <trkpt lat="47.81049" lon="-3.71071">
        <ele>37</ele>
        <time>2018-07-18T11:26:43Z</time>
      </trkpt>
      <trkpt lat="47.81042" lon="-3.71072">
        <ele>36</ele>
        <time>2018-07-18T11:26:44Z</time>
      </trkpt>
      <trkpt lat="47.81035" lon="-3.71072">
        <ele>36</ele>
        <time>2018-07-18T11:26:45Z</time>
      </trkpt>
      <trkpt lat="47.81028" lon="-3.71073">
        <ele>35</ele>
        <time>2018-07-18T11:26:46Z</time>
      </trkpt>
      <trkpt lat="47.8102" lon="-3.71074">
        <ele>35</ele>
        <time>2018-07-18T11:26:47Z</time>
      </trkpt>
      <trkpt lat="47.81012" lon="-3.71076">
        <ele>35</ele>
        <time>2018-07-18T11:26:48Z</time>
      </trkpt>
      <trkpt lat="47.81003" lon="-3.71077">
        <ele>34</ele>
        <time>2018-07-18T11:26:49Z</time>
      </trkpt>
      <trkpt lat="47.80994" lon="-3.71079">
        <ele>33</ele>
        <time>2018-07-18T11:26:50Z</time>
      </trkpt>
      <trkpt lat="47.80986" lon="-3.7108">
        <ele>32</ele>
        <time>2018-07-18T11:26:51Z</time>
      </trkpt>
      <trkpt lat="47.80977" lon="-3.71083">
        <ele>32</ele>
        <time>2018-07-18T11:26:52Z</time>
      </trkpt>
      <trkpt lat="47.80969" lon="-3.71086">
        <ele>31</ele>
        <time>2018-07-18T11:26:53Z</time>
      </trkpt>
      <trkpt lat="47.80962" lon="-3.7109">
        <ele>30</ele>
        <time>2018-07-18T11:26:54Z</time>
      </trkpt>
      <trkpt lat="47.80953" lon="-3.71095">
        <ele>29</ele>
        <time>2018-07-18T11:26:55Z</time>
      </trkpt>
      <trkpt lat="47.80944" lon="-3.71099">
        <ele>29</ele>
        <time>2018-07-18T11:26:56Z</time>
      </trkpt>
      <trkpt lat="47.80936" lon="-3.71102">
        <ele>28</ele>
        <time>2018-07-18T11:26:57Z</time>
      </trkpt>
      <trkpt lat="47.80929" lon="-3.71104">
        <ele>28</ele>
        <time>2018-07-18T11:26:58Z</time>
      </trkpt>
      <trkpt lat="47.80921" lon="-3.71107">
        <ele>27</ele>
        <time>2018-07-18T11:26:59Z</time>
      </trkpt>
      <trkpt lat="47.80913" lon="-3.71111">
        <ele>27</ele>
        <time>2018-07-18T11:27:00Z</time>
      </trkpt>
      <trkpt lat="47.80905" lon="-3.71115">
        <ele>26</ele>
        <time>2018-07-18T11:27:01Z</time>
      </trkpt>
      <trkpt lat="47.80898" lon="-3.7112">
        <ele>26</ele>
        <time>2018-07-18T11:27:02Z</time>
      </trkpt>
      <trkpt lat="47.80893" lon="-3.71125">
        <ele>26</ele>
        <time>2018-07-18T11:27:03Z</time>
      </trkpt>
      <trkpt lat="47.80887" lon="-3.71127">
        <ele>25</ele>
        <time>2018-07-18T11:27:04Z</time>
      </trkpt>
      <trkpt lat="47.80883" lon="-3.71129">
        <ele>25</ele>
        <time>2018-07-18T11:27:05Z</time>
      </trkpt>
      <trkpt lat="47.80879" lon="-3.71132">
        <ele>25</ele>
        <time>2018-07-18T11:27:06Z</time>
      </trkpt>
      <trkpt lat="47.80875" lon="-3.71133">
        <ele>25</ele>
        <time>2018-07-18T11:27:07Z</time>
      </trkpt>
      <trkpt lat="47.80871" lon="-3.71136">
        <ele>25</ele>
        <time>2018-07-18T11:27:08Z</time>
      </trkpt>
      <trkpt lat="47.80868" lon="-3.71137">
        <ele>25</ele>
        <time>2018-07-18T11:27:09Z</time>
      </trkpt>
      <trkpt lat="47.80864" lon="-3.71137">
        <ele>24</ele>
        <time>2018-07-18T11:27:10Z</time>
      </trkpt>
      <trkpt lat="47.8086" lon="-3.71138">
        <ele>24</ele>
        <time>2018-07-18T11:27:11Z</time>
      </trkpt>
      <trkpt lat="47.80857" lon="-3.71139">
        <ele>24</ele>
        <time>2018-07-18T11:27:12Z</time>
      </trkpt>
      <trkpt lat="47.80852" lon="-3.7114">
        <ele>24</ele>
        <time>2018-07-18T11:27:13Z</time>
      </trkpt>
      <trkpt lat="47.80848" lon="-3.71141">
        <ele>24</ele>
        <time>2018-07-18T11:27:14Z</time>
      </trkpt>
      <trkpt lat="47.80844" lon="-3.71142">
        <ele>24</ele>
        <time>2018-07-18T11:27:15Z</time>
      </trkpt>
      <trkpt lat="47.8084" lon="-3.71143">
        <ele>23</ele>
        <time>2018-07-18T11:27:16Z</time>
      </trkpt>
      <trkpt lat="47.80837" lon="-3.71145">
        <ele>23</ele>
        <time>2018-07-18T11:27:17Z</time>
      </trkpt>
      <trkpt lat="47.80834" lon="-3.71146">
        <ele>23</ele>
        <time>2018-07-18T11:27:18Z</time>
      </trkpt>
      <trkpt lat="47.8083" lon="-3.71146">
        <ele>23</ele>
        <time>2018-07-18T11:27:19Z</time>
      </trkpt>
      <trkpt lat="47.80826" lon="-3.71148">
        <ele>23</ele>
        <time>2018-07-18T11:27:20Z</time>
      </trkpt>
      <trkpt lat="47.80822" lon="-3.71149">
        <ele>23</ele>
        <time>2018-07-18T11:27:21Z</time>
      </trkpt>
      <trkpt lat="47.80818" lon="-3.7115">
        <ele>23</ele>
        <time>2018-07-18T11:27:22Z</time>
      </trkpt>
      <trkpt lat="47.80814" lon="-3.7115">
        <ele>23</ele>
        <time>2018-07-18T11:27:23Z</time>
      </trkpt>
      <trkpt lat="47.80811" lon="-3.7115">
        <ele>23</ele>
        <time>2018-07-18T11:27:24Z</time>
      </trkpt>
      <trkpt lat="47.80807" lon="-3.7115">
        <ele>23</ele>
        <time>2018-07-18T11:27:25Z</time>
      </trkpt>
      <trkpt lat="47.80803" lon="-3.71151">
        <ele>23</ele>
        <time>2018-07-18T11:27:26Z</time>
      </trkpt>
      <trkpt lat="47.808" lon="-3.71151">
        <ele>23</ele>
        <time>2018-07-18T11:27:27Z</time>
      </trkpt>
      <trkpt lat="47.80797" lon="-3.71152">
        <ele>23</ele>
        <time>2018-07-18T11:27:28Z</time>
      </trkpt>
      <trkpt lat="47.80793" lon="-3.71152">
        <ele>23</ele>
        <time>2018-07-18T11:27:29Z</time>
      </trkpt>
      <trkpt lat="47.8079" lon="-3.71152">
        <ele>23</ele>
        <time>2018-07-18T11:27:30Z</time>
      </trkpt>
      <trkpt lat="47.80786" lon="-3.71153">
        <ele>23</ele>
        <time>2018-07-18T11:27:31Z</time>
      </trkpt>
      <trkpt lat="47.80783" lon="-3.71154">
        <ele>23</ele>
        <time>2018-07-18T11:27:32Z</time>
      </trkpt>
      <trkpt lat="47.80781" lon="-3.71154">
        <ele>23</ele>
        <time>2018-07-18T11:27:33Z</time>
      </trkpt>
      <trkpt lat="47.80778" lon="-3.71154">
        <ele>23</ele>
        <time>2018-07-18T11:27:34Z</time>
      </trkpt>
      <trkpt lat="47.80775" lon="-3.71155">
        <ele>23</ele>
        <time>2018-07-18T11:27:35Z</time>
      </trkpt>
      <trkpt lat="47.80771" lon="-3.71155">
        <ele>23</ele>
        <time>2018-07-18T11:27:36Z</time>
      </trkpt>
      <trkpt lat="47.80767" lon="-3.71156">
        <ele>24</ele>
        <time>2018-07-18T11:27:37Z</time>
      </trkpt>
      <trkpt lat="47.80763" lon="-3.71156">
        <ele>24</ele>
        <time>2018-07-18T11:27:38Z</time>
      </trkpt>
      <trkpt lat="47.80758" lon="-3.71157">
        <ele>24</ele>
        <time>2018-07-18T11:27:39Z</time>
      </trkpt>
      <trkpt lat="47.80754" lon="-3.71156">
        <ele>24</ele>
        <time>2018-07-18T11:27:40Z</time>
      </trkpt>
      <trkpt lat="47.80749" lon="-3.71156">
        <ele>24</ele>
        <time>2018-07-18T11:27:41Z</time>
      </trkpt>
      <trkpt lat="47.80745" lon="-3.71155">
        <ele>24</ele>
        <time>2018-07-18T11:27:42Z</time>
      </trkpt>
      <trkpt lat="47.80741" lon="-3.71153">
        <ele>24</ele>
        <time>2018-07-18T11:27:43Z</time>
      </trkpt>
      <trkpt lat="47.80737" lon="-3.71151">
        <ele>24</ele>
        <time>2018-07-18T11:27:44Z</time>
      </trkpt>
      <trkpt lat="47.80733" lon="-3.71149">
        <ele>24</ele>
        <time>2018-07-18T11:27:45Z</time>
      </trkpt>
      <trkpt lat="47.8073" lon="-3.71146">
        <ele>24</ele>
        <time>2018-07-18T11:27:46Z</time>
      </trkpt>
      <trkpt lat="47.80728" lon="-3.71143">
        <ele>24</ele>
        <time>2018-07-18T11:27:47Z</time>
      </trkpt>
      <trkpt lat="47.80725" lon="-3.7114">
        <ele>24</ele>
        <time>2018-07-18T11:27:48Z</time>
      </trkpt>
      <trkpt lat="47.80723" lon="-3.7114">
        <ele>24</ele>
        <time>2018-07-18T11:27:49Z</time>
      </trkpt>
      <trkpt lat="47.8072" lon="-3.71142">
        <ele>24</ele>
        <time>2018-07-18T11:27:50Z</time>
      </trkpt>
      <trkpt lat="47.80717" lon="-3.71145">
        <ele>24</ele>
        <time>2018-07-18T11:27:51Z</time>
      </trkpt>
      <trkpt lat="47.80714" lon="-3.71148">
        <ele>24</ele>
        <time>2018-07-18T11:27:52Z</time>
      </trkpt>
      <trkpt lat="47.80712" lon="-3.71151">
        <ele>24</ele>
        <time>2018-07-18T11:27:53Z</time>
      </trkpt>
      <trkpt lat="47.80709" lon="-3.71154">
        <ele>24</ele>
        <time>2018-07-18T11:27:54Z</time>
      </trkpt>
      <trkpt lat="47.80708" lon="-3.71159">
        <ele>24</ele>
        <time>2018-07-18T11:27:55Z</time>
      </trkpt>
      <trkpt lat="47.80706" lon="-3.71163">
        <ele>24</ele>
        <time>2018-07-18T11:27:56Z</time>
      </trkpt>
      <trkpt lat="47.80704" lon="-3.71168">
        <ele>24</ele>
        <time>2018-07-18T11:27:57Z</time>
      </trkpt>
      <trkpt lat="47.80703" lon="-3.71173">
        <ele>24</ele>
        <time>2018-07-18T11:27:58Z</time>
      </trkpt>
      <trkpt lat="47.80701" lon="-3.71178">
        <ele>24</ele>
        <time>2018-07-18T11:27:59Z</time>
      </trkpt>
      <trkpt lat="47.807" lon="-3.71183">
        <ele>24</ele>
        <time>2018-07-18T11:28:00Z</time>
      </trkpt>
      <trkpt lat="47.80698" lon="-3.71188">
        <ele>24</ele>
        <time>2018-07-18T11:28:01Z</time>
      </trkpt>
      <trkpt lat="47.80695" lon="-3.71193">
        <ele>24</ele>
        <time>2018-07-18T11:28:02Z</time>
      </trkpt>
      <trkpt lat="47.80693" lon="-3.71197">
        <ele>24</ele>
        <time>2018-07-18T11:28:03Z</time>
      </trkpt>
      <trkpt lat="47.80691" lon="-3.71202">
        <ele>24</ele>
        <time>2018-07-18T11:28:04Z</time>
      </trkpt>
      <trkpt lat="47.80689" lon="-3.71205">
        <ele>24</ele>
        <time>2018-07-18T11:28:05Z</time>
      </trkpt>
      <trkpt lat="47.80687" lon="-3.71208">
        <ele>24</ele>
        <time>2018-07-18T11:28:06Z</time>
      </trkpt>
      <trkpt lat="47.80684" lon="-3.71211">
        <ele>24</ele>
        <time>2018-07-18T11:28:07Z</time>
      </trkpt>
      <trkpt lat="47.8068" lon="-3.71214">
        <ele>24</ele>
        <time>2018-07-18T11:28:08Z</time>
      </trkpt>
      <trkpt lat="47.80677" lon="-3.71218">
        <ele>24</ele>
        <time>2018-07-18T11:28:09Z</time>
      </trkpt>
      <trkpt lat="47.80674" lon="-3.71221">
        <ele>24</ele>
        <time>2018-07-18T11:28:10Z</time>
      </trkpt>
      <trkpt lat="47.80671" lon="-3.71224">
        <ele>24</ele>
        <time>2018-07-18T11:28:11Z</time>
      </trkpt>
      <trkpt lat="47.80667" lon="-3.71228">
        <ele>24</ele>
        <time>2018-07-18T11:28:12Z</time>
      </trkpt>
      <trkpt lat="47.80664" lon="-3.71231">
        <ele>24</ele>
        <time>2018-07-18T11:28:13Z</time>
      </trkpt>
      <trkpt lat="47.80661" lon="-3.71234">
        <ele>24</ele>
        <time>2018-07-18T11:28:14Z</time>
      </trkpt>
      <trkpt lat="47.80658" lon="-3.71237">
        <ele>24</ele>
        <time>2018-07-18T11:28:15Z</time>
      </trkpt>
      <trkpt lat="47.80655" lon="-3.7124">
        <ele>24</ele>
        <time>2018-07-18T11:28:16Z</time>
      </trkpt>
      <trkpt lat="47.80652" lon="-3.71243">
        <ele>25</ele>
        <time>2018-07-18T11:28:17Z</time>
      </trkpt>
      <trkpt lat="47.80649" lon="-3.71247">
        <ele>25</ele>
        <time>2018-07-18T11:28:18Z</time>
      </trkpt>
      <trkpt lat="47.80646" lon="-3.7125">
        <ele>25</ele>
        <time>2018-07-18T11:28:19Z</time>
      </trkpt>
      <trkpt lat="47.80642" lon="-3.71253">
        <ele>26</ele>
        <time>2018-07-18T11:28:20Z</time>
      </trkpt>
      <trkpt lat="47.8064" lon="-3.71255">
        <ele>26</ele>
        <time>2018-07-18T11:28:21Z</time>
      </trkpt>
      <trkpt lat="47.80637" lon="-3.71258">
        <ele>26</ele>
        <time>2018-07-18T11:28:22Z</time>
      </trkpt>
      <trkpt lat="47.80633" lon="-3.71261">
        <ele>27</ele>
        <time>2018-07-18T11:28:23Z</time>
      </trkpt>
      <trkpt lat="47.80631" lon="-3.71264">
        <ele>27</ele>
        <time>2018-07-18T11:28:24Z</time>
      </trkpt>
      <trkpt lat="47.80628" lon="-3.71268">
        <ele>27</ele>
        <time>2018-07-18T11:28:25Z</time>
      </trkpt>
      <trkpt lat="47.80626" lon="-3.71271">
        <ele>28</ele>
        <time>2018-07-18T11:28:26Z</time>
      </trkpt>
      <trkpt lat="47.80624" lon="-3.71274">
        <ele>28</ele>
        <time>2018-07-18T11:28:27Z</time>
      </trkpt>
      <trkpt lat="47.80622" lon="-3.71275">
        <ele>28</ele>
        <time>2018-07-18T11:28:28Z</time>
      </trkpt>
      <trkpt lat="47.80618" lon="-3.71276">
        <ele>28</ele>
        <time>2018-07-18T11:28:29Z</time>
      </trkpt>
      <trkpt lat="47.80615" lon="-3.71277">
        <ele>29</ele>
        <time>2018-07-18T11:28:30Z</time>
      </trkpt>
      <trkpt lat="47.80612" lon="-3.71278">
        <ele>29</ele>
        <time>2018-07-18T11:28:31Z</time>
      </trkpt>
      <trkpt lat="47.8061" lon="-3.7128">
        <ele>29</ele>
        <time>2018-07-18T11:28:32Z</time>
      </trkpt>
      <trkpt lat="47.80607" lon="-3.71281">
        <ele>29</ele>
        <time>2018-07-18T11:28:33Z</time>
      </trkpt>
      <trkpt lat="47.80604" lon="-3.71282">
        <ele>30</ele>
        <time>2018-07-18T11:28:34Z</time>
      </trkpt>
      <trkpt lat="47.80602" lon="-3.71283">
        <ele>30</ele>
        <time>2018-07-18T11:28:35Z</time>
      </trkpt>
      <trkpt lat="47.80599" lon="-3.71281">
        <ele>30</ele>
        <time>2018-07-18T11:28:36Z</time>
      </trkpt>
      <trkpt lat="47.80598" lon="-3.7128">
        <ele>31</ele>
        <time>2018-07-18T11:28:37Z</time>
      </trkpt>
      <trkpt lat="47.80596" lon="-3.71278">
        <ele>31</ele>
        <time>2018-07-18T11:28:38Z</time>
      </trkpt>
      <trkpt lat="47.80594" lon="-3.71276">
        <ele>31</ele>
        <time>2018-07-18T11:28:39Z</time>
      </trkpt>
      <trkpt lat="47.80593" lon="-3.71274">
        <ele>32</ele>
        <time>2018-07-18T11:28:40Z</time>
      </trkpt>
      <trkpt lat="47.80592" lon="-3.71272">
        <ele>32</ele>
        <time>2018-07-18T11:28:41Z</time>
      </trkpt>
      <trkpt lat="47.80591" lon="-3.71271">
        <ele>32</ele>
        <time>2018-07-18T11:28:42Z</time>
      </trkpt>
      <trkpt lat="47.80589" lon="-3.71269">
        <ele>33</ele>
        <time>2018-07-18T11:28:43Z</time>
      </trkpt>
      <trkpt lat="47.80587" lon="-3.71267">
        <ele>33</ele>
        <time>2018-07-18T11:28:44Z</time>
      </trkpt>
      <trkpt lat="47.80585" lon="-3.71266">
        <ele>33</ele>
        <time>2018-07-18T11:28:45Z</time>
      </trkpt>
      <trkpt lat="47.80583" lon="-3.71266">
        <ele>34</ele>
        <time>2018-07-18T11:28:46Z</time>
      </trkpt>
      <trkpt lat="47.80583" lon="-3.71266">
        <ele>34</ele>
        <time>2018-07-18T11:28:47Z</time>
      </trkpt>
      <trkpt lat="47.80582" lon="-3.71268">
        <ele>34</ele>
        <time>2018-07-18T11:28:48Z</time>
      </trkpt>
      <trkpt lat="47.80581" lon="-3.7127">
        <ele>35</ele>
        <time>2018-07-18T11:28:49Z</time>
      </trkpt>
      <trkpt lat="47.8058" lon="-3.71274">
        <ele>35</ele>
        <time>2018-07-18T11:28:50Z</time>
      </trkpt>
      <trkpt lat="47.80579" lon="-3.71278">
        <ele>35</ele>
        <time>2018-07-18T11:28:51Z</time>
      </trkpt>
      <trkpt lat="47.80578" lon="-3.71282">
        <ele>36</ele>
        <time>2018-07-18T11:28:52Z</time>
      </trkpt>
      <trkpt lat="47.80577" lon="-3.71287">
        <ele>36</ele>
        <time>2018-07-18T11:28:53Z</time>
      </trkpt>
      <trkpt lat="47.80576" lon="-3.71291">
        <ele>36</ele>
        <time>2018-07-18T11:28:54Z</time>
      </trkpt>
      <trkpt lat="47.80574" lon="-3.71295">
        <ele>36</ele>
        <time>2018-07-18T11:28:55Z</time>
      </trkpt>
      <trkpt lat="47.80573" lon="-3.71299">
        <ele>36</ele>
        <time>2018-07-18T11:28:56Z</time>
      </trkpt>
      <trkpt lat="47.80572" lon="-3.71302">
        <ele>37</ele>
        <time>2018-07-18T11:28:57Z</time>
      </trkpt>
      <trkpt lat="47.8057" lon="-3.71307">
        <ele>37</ele>
        <time>2018-07-18T11:28:58Z</time>
      </trkpt>
      <trkpt lat="47.80568" lon="-3.71311">
        <ele>37</ele>
        <time>2018-07-18T11:28:59Z</time>
      </trkpt>
      <trkpt lat="47.80566" lon="-3.71316">
        <ele>37</ele>
        <time>2018-07-18T11:29:00Z</time>
      </trkpt>
      <trkpt lat="47.80565" lon="-3.71321">
        <ele>37</ele>
        <time>2018-07-18T11:29:01Z</time>
      </trkpt>
      <trkpt lat="47.80563" lon="-3.71326">
        <ele>37</ele>
        <time>2018-07-18T11:29:02Z</time>
      </trkpt>
      <trkpt lat="47.80561" lon="-3.71331">
        <ele>37</ele>
        <time>2018-07-18T11:29:03Z</time>
      </trkpt>
      <trkpt lat="47.80559" lon="-3.71336">
        <ele>36</ele>
        <time>2018-07-18T11:29:04Z</time>
      </trkpt>
      <trkpt lat="47.80558" lon="-3.71342">
        <ele>36</ele>
        <time>2018-07-18T11:29:05Z</time>
      </trkpt>
      <trkpt lat="47.80556" lon="-3.71349">
        <ele>36</ele>
        <time>2018-07-18T11:29:06Z</time>
      </trkpt>
      <trkpt lat="47.80554" lon="-3.71355">
        <ele>36</ele>
        <time>2018-07-18T11:29:07Z</time>
      </trkpt>
      <trkpt lat="47.80552" lon="-3.71362">
        <ele>36</ele>
        <time>2018-07-18T11:29:08Z</time>
      </trkpt>
      <trkpt lat="47.8055" lon="-3.71369">
        <ele>35</ele>
        <time>2018-07-18T11:29:09Z</time>
      </trkpt>
      <trkpt lat="47.80548" lon="-3.71377">
        <ele>35</ele>
        <time>2018-07-18T11:29:10Z</time>
      </trkpt>
      <trkpt lat="47.80547" lon="-3.71385">
        <ele>35</ele>
        <time>2018-07-18T11:29:11Z</time>
      </trkpt>
      <trkpt lat="47.80545" lon="-3.71392">
        <ele>35</ele>
        <time>2018-07-18T11:29:12Z</time>
      </trkpt>
      <trkpt lat="47.80543" lon="-3.71399">
        <ele>34</ele>
        <time>2018-07-18T11:29:13Z</time>
      </trkpt>
      <trkpt lat="47.80541" lon="-3.71406">
        <ele>34</ele>
        <time>2018-07-18T11:29:14Z</time>
      </trkpt>
      <trkpt lat="47.80539" lon="-3.71414">
        <ele>34</ele>
        <time>2018-07-18T11:29:15Z</time>
      </trkpt>
      <trkpt lat="47.80537" lon="-3.71421">
        <ele>34</ele>
        <time>2018-07-18T11:29:16Z</time>
      </trkpt>
      <trkpt lat="47.80535" lon="-3.71429">
        <ele>33</ele>
        <time>2018-07-18T11:29:17Z</time>
      </trkpt>
      <trkpt lat="47.80532" lon="-3.71436">
        <ele>33</ele>
        <time>2018-07-18T11:29:18Z</time>
      </trkpt>
      <trkpt lat="47.8053" lon="-3.71444">
        <ele>33</ele>
        <time>2018-07-18T11:29:19Z</time>
      </trkpt>
      <trkpt lat="47.80527" lon="-3.71451">
        <ele>33</ele>
        <time>2018-07-18T11:29:20Z</time>
      </trkpt>
      <trkpt lat="47.80525" lon="-3.71458">
        <ele>32</ele>
        <time>2018-07-18T11:29:21Z</time>
      </trkpt>
      <trkpt lat="47.80523" lon="-3.71466">
        <ele>32</ele>
        <time>2018-07-18T11:29:22Z</time>
      </trkpt>
      <trkpt lat="47.8052" lon="-3.71474">
        <ele>32</ele>
        <time>2018-07-18T11:29:23Z</time>
      </trkpt>
      <trkpt lat="47.80518" lon="-3.71481">
        <ele>32</ele>
        <time>2018-07-18T11:29:24Z</time>
      </trkpt>
      <trkpt lat="47.80516" lon="-3.71489">
        <ele>31</ele>
        <time>2018-07-18T11:29:25Z</time>
      </trkpt>
      <trkpt lat="47.80513" lon="-3.71497">
        <ele>31</ele>
        <time>2018-07-18T11:29:26Z</time>
      </trkpt>
      <trkpt lat="47.80511" lon="-3.71505">
        <ele>31</ele>
        <time>2018-07-18T11:29:27Z</time>
      </trkpt>
      <trkpt lat="47.80508" lon="-3.71513">
        <ele>31</ele>
        <time>2018-07-18T11:29:28Z</time>
      </trkpt>
      <trkpt lat="47.80506" lon="-3.71521">
        <ele>30</ele>
        <time>2018-07-18T11:29:29Z</time>
      </trkpt>
      <trkpt lat="47.80504" lon="-3.7153">
        <ele>30</ele>
        <time>2018-07-18T11:29:30Z</time>
      </trkpt>
      <trkpt lat="47.80501" lon="-3.71537">
        <ele>30</ele>
        <time>2018-07-18T11:29:31Z</time>
      </trkpt>
      <trkpt lat="47.80499" lon="-3.71545">
        <ele>30</ele>
        <time>2018-07-18T11:29:32Z</time>
      </trkpt>
      <trkpt lat="47.80497" lon="-3.71553">
        <ele>30</ele>
        <time>2018-07-18T11:29:33Z</time>
      </trkpt>
      <trkpt lat="47.80496" lon="-3.7156">
        <ele>30</ele>
        <time>2018-07-18T11:29:34Z</time>
      </trkpt>
      <trkpt lat="47.80495" lon="-3.71568">
        <ele>30</ele>
        <time>2018-07-18T11:29:35Z</time>
      </trkpt>
      <trkpt lat="47.80493" lon="-3.71576">
        <ele>29</ele>
        <time>2018-07-18T11:29:36Z</time>
      </trkpt>
      <trkpt lat="47.80493" lon="-3.71583">
        <ele>29</ele>
        <time>2018-07-18T11:29:37Z</time>
      </trkpt>
      <trkpt lat="47.80493" lon="-3.71591">
        <ele>29</ele>
        <time>2018-07-18T11:29:38Z</time>
      </trkpt>
      <trkpt lat="47.80493" lon="-3.71599">
        <ele>29</ele>
        <time>2018-07-18T11:29:39Z</time>
      </trkpt>
      <trkpt lat="47.80493" lon="-3.71606">
        <ele>30</ele>
        <time>2018-07-18T11:29:40Z</time>
      </trkpt>
      <trkpt lat="47.80495" lon="-3.71613">
        <ele>30</ele>
        <time>2018-07-18T11:29:41Z</time>
      </trkpt>
      <trkpt lat="47.80496" lon="-3.71619">
        <ele>30</ele>
        <time>2018-07-18T11:29:42Z</time>
      </trkpt>
      <trkpt lat="47.80497" lon="-3.71626">
        <ele>30</ele>
        <time>2018-07-18T11:29:43Z</time>
      </trkpt>
      <trkpt lat="47.80499" lon="-3.71632">
        <ele>30</ele>
        <time>2018-07-18T11:29:44Z</time>
      </trkpt>
      <trkpt lat="47.805" lon="-3.71638">
        <ele>30</ele>
        <time>2018-07-18T11:29:45Z</time>
      </trkpt>
      <trkpt lat="47.805" lon="-3.71645">
        <ele>31</ele>
        <time>2018-07-18T11:29:46Z</time>
      </trkpt>
      <trkpt lat="47.80501" lon="-3.71651">
        <ele>31</ele>
        <time>2018-07-18T11:29:47Z</time>
      </trkpt>
      <trkpt lat="47.80503" lon="-3.71658">
        <ele>31</ele>
        <time>2018-07-18T11:29:48Z</time>
      </trkpt>
      <trkpt lat="47.80504" lon="-3.71665">
        <ele>31</ele>
        <time>2018-07-18T11:29:49Z</time>
      </trkpt>
      <trkpt lat="47.80505" lon="-3.71672">
        <ele>31</ele>
        <time>2018-07-18T11:29:50Z</time>
      </trkpt>
      <trkpt lat="47.80506" lon="-3.71678">
        <ele>31</ele>
        <time>2018-07-18T11:29:51Z</time>
      </trkpt>
      <trkpt lat="47.80507" lon="-3.71685">
        <ele>32</ele>
        <time>2018-07-18T11:29:52Z</time>
      </trkpt>
      <trkpt lat="47.80509" lon="-3.71692">
        <ele>32</ele>
        <time>2018-07-18T11:29:53Z</time>
      </trkpt>
      <trkpt lat="47.8051" lon="-3.71698">
        <ele>32</ele>
        <time>2018-07-18T11:29:54Z</time>
      </trkpt>
      <trkpt lat="47.80512" lon="-3.71705">
        <ele>32</ele>
        <time>2018-07-18T11:29:55Z</time>
      </trkpt>
      <trkpt lat="47.80514" lon="-3.71712">
        <ele>32</ele>
        <time>2018-07-18T11:29:56Z</time>
      </trkpt>
      <trkpt lat="47.80516" lon="-3.71718">
        <ele>33</ele>
        <time>2018-07-18T11:29:57Z</time>
      </trkpt>
      <trkpt lat="47.80518" lon="-3.71724">
        <ele>33</ele>
        <time>2018-07-18T11:29:58Z</time>
      </trkpt>
      <trkpt lat="47.8052" lon="-3.7173">
        <ele>33</ele>
        <time>2018-07-18T11:29:59Z</time>
      </trkpt>
      <trkpt lat="47.80523" lon="-3.71736">
        <ele>33</ele>
        <time>2018-07-18T11:30:00Z</time>
      </trkpt>
      <trkpt lat="47.80527" lon="-3.71741">
        <ele>33</ele>
        <time>2018-07-18T11:30:01Z</time>
      </trkpt>
      <trkpt lat="47.8053" lon="-3.71746">
        <ele>33</ele>
        <time>2018-07-18T11:30:02Z</time>
      </trkpt>
      <trkpt lat="47.80534" lon="-3.71751">
        <ele>33</ele>
        <time>2018-07-18T11:30:03Z</time>
      </trkpt>
      <trkpt lat="47.80538" lon="-3.71756">
        <ele>33</ele>
        <time>2018-07-18T11:30:04Z</time>
      </trkpt>
      <trkpt lat="47.80542" lon="-3.71762">
        <ele>33</ele>
        <time>2018-07-18T11:30:05Z</time>
      </trkpt>
      <trkpt lat="47.80545" lon="-3.71769">
        <ele>33</ele>
        <time>2018-07-18T11:30:06Z</time>
      </trkpt>
      <trkpt lat="47.80548" lon="-3.71777">
        <ele>33</ele>
        <time>2018-07-18T11:30:07Z</time>
      </trkpt>
      <trkpt lat="47.8055" lon="-3.71785">
        <ele>33</ele>
        <time>2018-07-18T11:30:08Z</time>
      </trkpt>
      <trkpt lat="47.80553" lon="-3.71793">
        <ele>33</ele>
        <time>2018-07-18T11:30:09Z</time>
      </trkpt>
      <trkpt lat="47.80555" lon="-3.71801">
        <ele>33</ele>
        <time>2018-07-18T11:30:10Z</time>
      </trkpt>
      <trkpt lat="47.80556" lon="-3.71808">
        <ele>33</ele>
        <time>2018-07-18T11:30:11Z</time>
      </trkpt>
      <trkpt lat="47.80557" lon="-3.71815">
        <ele>33</ele>
        <time>2018-07-18T11:30:12Z</time>
      </trkpt>
      <trkpt lat="47.80556" lon="-3.71823">
        <ele>33</ele>
        <time>2018-07-18T11:30:13Z</time>
      </trkpt>
      <trkpt lat="47.80555" lon="-3.71832">
        <ele>33</ele>
        <time>2018-07-18T11:30:14Z</time>
      </trkpt>
      <trkpt lat="47.80552" lon="-3.71842">
        <ele>33</ele>
        <time>2018-07-18T11:30:15Z</time>
      </trkpt>
      <trkpt lat="47.80547" lon="-3.71851">
        <ele>33</ele>
        <time>2018-07-18T11:30:16Z</time>
      </trkpt>
      <trkpt lat="47.80543" lon="-3.71858">
        <ele>34</ele>
        <time>2018-07-18T11:30:17Z</time>
      </trkpt>
      <trkpt lat="47.80538" lon="-3.71865">
        <ele>34</ele>
        <time>2018-07-18T11:30:18Z</time>
      </trkpt>
      <trkpt lat="47.80533" lon="-3.71871">
        <ele>34</ele>
        <time>2018-07-18T11:30:19Z</time>
      </trkpt>
      <trkpt lat="47.80528" lon="-3.71876">
        <ele>34</ele>
        <time>2018-07-18T11:30:20Z</time>
      </trkpt>
      <trkpt lat="47.80524" lon="-3.71882">
        <ele>34</ele>
        <time>2018-07-18T11:30:21Z</time>
      </trkpt>
      <trkpt lat="47.8052" lon="-3.71887">
        <ele>34</ele>
        <time>2018-07-18T11:30:22Z</time>
      </trkpt>
      <trkpt lat="47.80515" lon="-3.7189">
        <ele>34</ele>
        <time>2018-07-18T11:30:23Z</time>
      </trkpt>
      <trkpt lat="47.80511" lon="-3.71895">
        <ele>35</ele>
        <time>2018-07-18T11:30:24Z</time>
      </trkpt>
      <trkpt lat="47.80507" lon="-3.71899">
        <ele>35</ele>
        <time>2018-07-18T11:30:25Z</time>
      </trkpt>
      <trkpt lat="47.80503" lon="-3.71904">
        <ele>35</ele>
        <time>2018-07-18T11:30:26Z</time>
      </trkpt>
      <trkpt lat="47.80498" lon="-3.71908">
        <ele>35</ele>
        <time>2018-07-18T11:30:27Z</time>
      </trkpt>
      <trkpt lat="47.80494" lon="-3.71913">
        <ele>35</ele>
        <time>2018-07-18T11:30:28Z</time>
      </trkpt>
      <trkpt lat="47.8049" lon="-3.71917">
        <ele>35</ele>
        <time>2018-07-18T11:30:29Z</time>
      </trkpt>
      <trkpt lat="47.80487" lon="-3.71922">
        <ele>35</ele>
        <time>2018-07-18T11:30:30Z</time>
      </trkpt>
      <trkpt lat="47.80484" lon="-3.71926">
        <ele>36</ele>
        <time>2018-07-18T11:30:31Z</time>
      </trkpt>
      <trkpt lat="47.8048" lon="-3.7193">
        <ele>36</ele>
        <time>2018-07-18T11:30:32Z</time>
      </trkpt>
      <trkpt lat="47.80476" lon="-3.71935">
        <ele>36</ele>
        <time>2018-07-18T11:30:33Z</time>
      </trkpt>
      <trkpt lat="47.80472" lon="-3.71941">
        <ele>36</ele>
        <time>2018-07-18T11:30:34Z</time>
      </trkpt>
      <trkpt lat="47.80469" lon="-3.71947">
        <ele>36</ele>
        <time>2018-07-18T11:30:35Z</time>
      </trkpt>
      <trkpt lat="47.80466" lon="-3.71952">
        <ele>36</ele>
        <time>2018-07-18T11:30:36Z</time>
      </trkpt>
      <trkpt lat="47.80462" lon="-3.71957">
        <ele>36</ele>
        <time>2018-07-18T11:30:37Z</time>
      </trkpt>
      <trkpt lat="47.80458" lon="-3.71963">
        <ele>36</ele>
        <time>2018-07-18T11:30:38Z</time>
      </trkpt>
      <trkpt lat="47.80454" lon="-3.71969">
        <ele>36</ele>
        <time>2018-07-18T11:30:39Z</time>
      </trkpt>
      <trkpt lat="47.8045" lon="-3.71974">
        <ele>36</ele>
        <time>2018-07-18T11:30:40Z</time>
      </trkpt>
      <trkpt lat="47.80445" lon="-3.7198">
        <ele>36</ele>
        <time>2018-07-18T11:30:41Z</time>
      </trkpt>
      <trkpt lat="47.80441" lon="-3.71986">
        <ele>36</ele>
        <time>2018-07-18T11:30:42Z</time>
      </trkpt>
      <trkpt lat="47.80436" lon="-3.71991">
        <ele>36</ele>
        <time>2018-07-18T11:30:43Z</time>
      </trkpt>
      <trkpt lat="47.80431" lon="-3.71996">
        <ele>36</ele>
        <time>2018-07-18T11:30:44Z</time>
      </trkpt>
      <trkpt lat="47.80426" lon="-3.72001">
        <ele>36</ele>
        <time>2018-07-18T11:30:45Z</time>
      </trkpt>
      <trkpt lat="47.80421" lon="-3.72006">
        <ele>35</ele>
        <time>2018-07-18T11:30:46Z</time>
      </trkpt>
      <trkpt lat="47.80417" lon="-3.72011">
        <ele>35</ele>
        <time>2018-07-18T11:30:47Z</time>
      </trkpt>
      <trkpt lat="47.80412" lon="-3.72015">
        <ele>35</ele>
        <time>2018-07-18T11:30:48Z</time>
      </trkpt>
      <trkpt lat="47.80407" lon="-3.72019">
        <ele>35</ele>
        <time>2018-07-18T11:30:49Z</time>
      </trkpt>
      <trkpt lat="47.80402" lon="-3.72024">
        <ele>35</ele>
        <time>2018-07-18T11:30:50Z</time>
      </trkpt>
      <trkpt lat="47.80398" lon="-3.72028">
        <ele>34</ele>
        <time>2018-07-18T11:30:51Z</time>
      </trkpt>
      <trkpt lat="47.80393" lon="-3.72033">
        <ele>34</ele>
        <time>2018-07-18T11:30:52Z</time>
      </trkpt>
      <trkpt lat="47.80388" lon="-3.72038">
        <ele>34</ele>
        <time>2018-07-18T11:30:53Z</time>
      </trkpt>
      <trkpt lat="47.80382" lon="-3.72043">
        <ele>34</ele>
        <time>2018-07-18T11:30:54Z</time>
      </trkpt>
      <trkpt lat="47.80377" lon="-3.72048">
        <ele>34</ele>
        <time>2018-07-18T11:30:55Z</time>
      </trkpt>
      <trkpt lat="47.80373" lon="-3.72054">
        <ele>34</ele>
        <time>2018-07-18T11:30:56Z</time>
      </trkpt>
      <trkpt lat="47.80369" lon="-3.7206">
        <ele>34</ele>
        <time>2018-07-18T11:30:57Z</time>
      </trkpt>
      <trkpt lat="47.80365" lon="-3.72066">
        <ele>34</ele>
        <time>2018-07-18T11:30:58Z</time>
      </trkpt>
      <trkpt lat="47.80361" lon="-3.72071">
        <ele>33</ele>
        <time>2018-07-18T11:30:59Z</time>
      </trkpt>
      <trkpt lat="47.80358" lon="-3.72077">
        <ele>33</ele>
        <time>2018-07-18T11:31:00Z</time>
      </trkpt>
      <trkpt lat="47.80354" lon="-3.72084">
        <ele>33</ele>
        <time>2018-07-18T11:31:01Z</time>
      </trkpt>
      <trkpt lat="47.8035" lon="-3.7209">
        <ele>33</ele>
        <time>2018-07-18T11:31:02Z</time>
      </trkpt>
      <trkpt lat="47.80348" lon="-3.72096">
        <ele>33</ele>
        <time>2018-07-18T11:31:03Z</time>
      </trkpt>
      <trkpt lat="47.80344" lon="-3.72103">
        <ele>33</ele>
        <time>2018-07-18T11:31:04Z</time>
      </trkpt>
      <trkpt lat="47.80341" lon="-3.72109">
        <ele>32</ele>
        <time>2018-07-18T11:31:05Z</time>
      </trkpt>
      <trkpt lat="47.80338" lon="-3.72115">
        <ele>32</ele>
        <time>2018-07-18T11:31:06Z</time>
      </trkpt>
      <trkpt lat="47.80336" lon="-3.72122">
        <ele>32</ele>
        <time>2018-07-18T11:31:07Z</time>
      </trkpt>
      <trkpt lat="47.80333" lon="-3.72128">
        <ele>32</ele>
        <time>2018-07-18T11:31:08Z</time>
      </trkpt>
      <trkpt lat="47.80331" lon="-3.72134">
        <ele>32</ele>
        <time>2018-07-18T11:31:09Z</time>
      </trkpt>
      <trkpt lat="47.80328" lon="-3.72139">
        <ele>32</ele>
        <time>2018-07-18T11:31:10Z</time>
      </trkpt>
      <trkpt lat="47.80325" lon="-3.72145">
        <ele>32</ele>
        <time>2018-07-18T11:31:11Z</time>
      </trkpt>
      <trkpt lat="47.80321" lon="-3.72149">
        <ele>32</ele>
        <time>2018-07-18T11:31:12Z</time>
      </trkpt>
      <trkpt lat="47.80317" lon="-3.72154">
        <ele>32</ele>
        <time>2018-07-18T11:31:13Z</time>
      </trkpt>
      <trkpt lat="47.80312" lon="-3.72157">
        <ele>32</ele>
        <time>2018-07-18T11:31:14Z</time>
      </trkpt>
      <trkpt lat="47.80307" lon="-3.7216">
        <ele>32</ele>
        <time>2018-07-18T11:31:15Z</time>
      </trkpt>
      <trkpt lat="47.80302" lon="-3.72162">
        <ele>32</ele>
        <time>2018-07-18T11:31:16Z</time>
      </trkpt>
      <trkpt lat="47.80297" lon="-3.72163">
        <ele>31</ele>
        <time>2018-07-18T11:31:17Z</time>
      </trkpt>
      <trkpt lat="47.80293" lon="-3.72161">
        <ele>31</ele>
        <time>2018-07-18T11:31:18Z</time>
      </trkpt>
      <trkpt lat="47.80289" lon="-3.72156">
        <ele>31</ele>
        <time>2018-07-18T11:31:19Z</time>
      </trkpt>
      <trkpt lat="47.80288" lon="-3.72151">
        <ele>31</ele>
        <time>2018-07-18T11:31:20Z</time>
      </trkpt>
      <trkpt lat="47.80287" lon="-3.72145">
        <ele>30</ele>
        <time>2018-07-18T11:31:21Z</time>
      </trkpt>
      <trkpt lat="47.80288" lon="-3.7214">
        <ele>30</ele>
        <time>2018-07-18T11:31:22Z</time>
      </trkpt>
      <trkpt lat="47.80289" lon="-3.72134">
        <ele>30</ele>
        <time>2018-07-18T11:31:23Z</time>
      </trkpt>
      <trkpt lat="47.8029" lon="-3.72128">
        <ele>30</ele>
        <time>2018-07-18T11:31:24Z</time>
      </trkpt>
      <trkpt lat="47.80292" lon="-3.72122">
        <ele>29</ele>
        <time>2018-07-18T11:31:25Z</time>
      </trkpt>
      <trkpt lat="47.80294" lon="-3.72116">
        <ele>29</ele>
        <time>2018-07-18T11:31:26Z</time>
      </trkpt>
      <trkpt lat="47.80296" lon="-3.72108">
        <ele>29</ele>
        <time>2018-07-18T11:31:27Z</time>
      </trkpt>
      <trkpt lat="47.80298" lon="-3.721">
        <ele>29</ele>
        <time>2018-07-18T11:31:28Z</time>
      </trkpt>
      <trkpt lat="47.803" lon="-3.72092">
        <ele>28</ele>
        <time>2018-07-18T11:31:29Z</time>
      </trkpt>
      <trkpt lat="47.80302" lon="-3.72084">
        <ele>28</ele>
        <time>2018-07-18T11:31:30Z</time>
      </trkpt>
      <trkpt lat="47.80304" lon="-3.72076">
        <ele>28</ele>
        <time>2018-07-18T11:31:31Z</time>
      </trkpt>
      <trkpt lat="47.80306" lon="-3.72068">
        <ele>27</ele>
        <time>2018-07-18T11:31:32Z</time>
      </trkpt>
      <trkpt lat="47.80308" lon="-3.72061">
        <ele>27</ele>
        <time>2018-07-18T11:31:33Z</time>
      </trkpt>
      <trkpt lat="47.80311" lon="-3.72054">
        <ele>27</ele>
        <time>2018-07-18T11:31:34Z</time>
      </trkpt>
      <trkpt lat="47.80314" lon="-3.72048">
        <ele>27</ele>
        <time>2018-07-18T11:31:35Z</time>
      </trkpt>
      <trkpt lat="47.80317" lon="-3.72041">
        <ele>27</ele>
        <time>2018-07-18T11:31:36Z</time>
      </trkpt>
      <trkpt lat="47.80319" lon="-3.72034">
        <ele>27</ele>
        <time>2018-07-18T11:31:37Z</time>
      </trkpt>
      <trkpt lat="47.80321" lon="-3.72028">
        <ele>26</ele>
        <time>2018-07-18T11:31:38Z</time>
      </trkpt>
      <trkpt lat="47.80323" lon="-3.72022">
        <ele>26</ele>
        <time>2018-07-18T11:31:39Z</time>
      </trkpt>
      <trkpt lat="47.80324" lon="-3.72017">
        <ele>26</ele>
        <time>2018-07-18T11:31:40Z</time>
      </trkpt>
      <trkpt lat="47.80325" lon="-3.72013">
        <ele>26</ele>
        <time>2018-07-18T11:31:41Z</time>
      </trkpt>
      <trkpt lat="47.80326" lon="-3.7201">
        <ele>26</ele>
        <time>2018-07-18T11:31:42Z</time>
      </trkpt>
      <trkpt lat="47.80327" lon="-3.72006">
        <ele>26</ele>
        <time>2018-07-18T11:31:43Z</time>
      </trkpt>
      <trkpt lat="47.80328" lon="-3.72002">
        <ele>26</ele>
        <time>2018-07-18T11:31:44Z</time>
      </trkpt>
      <trkpt lat="47.8033" lon="-3.71998">
        <ele>26</ele>
        <time>2018-07-18T11:31:45Z</time>
      </trkpt>
      <trkpt lat="47.80332" lon="-3.71993">
        <ele>26</ele>
        <time>2018-07-18T11:31:46Z</time>
      </trkpt>
      <trkpt lat="47.80333" lon="-3.71987">
        <ele>26</ele>
        <time>2018-07-18T11:31:47Z</time>
      </trkpt>
      <trkpt lat="47.80334" lon="-3.71982">
        <ele>26</ele>
        <time>2018-07-18T11:31:48Z</time>
      </trkpt>
      <trkpt lat="47.80336" lon="-3.71975">
        <ele>26</ele>
        <time>2018-07-18T11:31:49Z</time>
      </trkpt>
      <trkpt lat="47.80337" lon="-3.71969">
        <ele>26</ele>
        <time>2018-07-18T11:31:50Z</time>
      </trkpt>
      <trkpt lat="47.80338" lon="-3.71962">
        <ele>26</ele>
        <time>2018-07-18T11:31:51Z</time>
      </trkpt>
      <trkpt lat="47.8034" lon="-3.71956">
        <ele>26</ele>
        <time>2018-07-18T11:31:52Z</time>
      </trkpt>
      <trkpt lat="47.80342" lon="-3.71949">
        <ele>26</ele>
        <time>2018-07-18T11:31:53Z</time>
      </trkpt>
      <trkpt lat="47.80343" lon="-3.71942">
        <ele>26</ele>
        <time>2018-07-18T11:31:54Z</time>
      </trkpt>
      <trkpt lat="47.80344" lon="-3.71936">
        <ele>26</ele>
        <time>2018-07-18T11:31:55Z</time>
      </trkpt>
      <trkpt lat="47.80345" lon="-3.7193">
        <ele>26</ele>
        <time>2018-07-18T11:31:56Z</time>
      </trkpt>
      <trkpt lat="47.80346" lon="-3.71924">
        <ele>26</ele>
        <time>2018-07-18T11:31:57Z</time>
      </trkpt>
      <trkpt lat="47.80347" lon="-3.71918">
        <ele>26</ele>
        <time>2018-07-18T11:31:58Z</time>
      </trkpt>
      <trkpt lat="47.80347" lon="-3.71913">
        <ele>26</ele>
        <time>2018-07-18T11:31:59Z</time>
      </trkpt>
      <trkpt lat="47.80345" lon="-3.71909">
        <ele>26</ele>
        <time>2018-07-18T11:32:00Z</time>
      </trkpt>
      <trkpt lat="47.80342" lon="-3.71906">
        <ele>26</ele>
        <time>2018-07-18T11:32:01Z</time>
      </trkpt>
      <trkpt lat="47.80339" lon="-3.71906">
        <ele>26</ele>
        <time>2018-07-18T11:32:02Z</time>
      </trkpt>
      <trkpt lat="47.80335" lon="-3.71909">
        <ele>26</ele>
        <time>2018-07-18T11:32:03Z</time>
      </trkpt>
      <trkpt lat="47.80331" lon="-3.71913">
        <ele>26</ele>
        <time>2018-07-18T11:32:04Z</time>
      </trkpt>
      <trkpt lat="47.80327" lon="-3.71916">
        <ele>25</ele>
        <time>2018-07-18T11:32:05Z</time>
      </trkpt>
      <trkpt lat="47.80323" lon="-3.7192">
        <ele>25</ele>
        <time>2018-07-18T11:32:06Z</time>
      </trkpt>
      <trkpt lat="47.8032" lon="-3.71925">
        <ele>25</ele>
        <time>2018-07-18T11:32:07Z</time>
      </trkpt>
      <trkpt lat="47.80316" lon="-3.71931">
        <ele>25</ele>
        <time>2018-07-18T11:32:08Z</time>
      </trkpt>
      <trkpt lat="47.80311" lon="-3.71937">
        <ele>24</ele>
        <time>2018-07-18T11:32:09Z</time>
      </trkpt>
      <trkpt lat="47.80306" lon="-3.71944">
        <ele>24</ele>
        <time>2018-07-18T11:32:10Z</time>
      </trkpt>
      <trkpt lat="47.80301" lon="-3.71951">
        <ele>23</ele>
        <time>2018-07-18T11:32:11Z</time>
      </trkpt>
      <trkpt lat="47.80297" lon="-3.71959">
        <ele>23</ele>
        <time>2018-07-18T11:32:12Z</time>
      </trkpt>
      <trkpt lat="47.80293" lon="-3.71965">
        <ele>22</ele>
        <time>2018-07-18T11:32:13Z</time>
      </trkpt>
      <trkpt lat="47.80289" lon="-3.7197">
        <ele>22</ele>
        <time>2018-07-18T11:32:14Z</time>
      </trkpt>
      <trkpt lat="47.80286" lon="-3.71973">
        <ele>21</ele>
        <time>2018-07-18T11:32:15Z</time>
      </trkpt>
      <trkpt lat="47.80283" lon="-3.71975">
        <ele>21</ele>
        <time>2018-07-18T11:32:16Z</time>
      </trkpt>
      <trkpt lat="47.8028" lon="-3.71976">
        <ele>20</ele>
        <time>2018-07-18T11:32:17Z</time>
      </trkpt>
      <trkpt lat="47.80277" lon="-3.71974">
        <ele>20</ele>
        <time>2018-07-18T11:32:18Z</time>
      </trkpt>
      <trkpt lat="47.80275" lon="-3.7197">
        <ele>20</ele>
        <time>2018-07-18T11:32:19Z</time>
      </trkpt>
      <trkpt lat="47.80273" lon="-3.71964">
        <ele>19</ele>
        <time>2018-07-18T11:32:20Z</time>
      </trkpt>
      <trkpt lat="47.80274" lon="-3.71957">
        <ele>19</ele>
        <time>2018-07-18T11:32:21Z</time>
      </trkpt>
      <trkpt lat="47.80274" lon="-3.71948">
        <ele>18</ele>
        <time>2018-07-18T11:32:22Z</time>
      </trkpt>
      <trkpt lat="47.80275" lon="-3.71938">
        <ele>18</ele>
        <time>2018-07-18T11:32:23Z</time>
      </trkpt>
      <trkpt lat="47.80275" lon="-3.71927">
        <ele>17</ele>
        <time>2018-07-18T11:32:24Z</time>
      </trkpt>
      <trkpt lat="47.80276" lon="-3.71917">
        <ele>16</ele>
        <time>2018-07-18T11:32:25Z</time>
      </trkpt>
      <trkpt lat="47.80277" lon="-3.71906">
        <ele>15</ele>
        <time>2018-07-18T11:32:26Z</time>
      </trkpt>
      <trkpt lat="47.80277" lon="-3.71895">
        <ele>14</ele>
        <time>2018-07-18T11:32:27Z</time>
      </trkpt>
      <trkpt lat="47.80275" lon="-3.71884">
        <ele>14</ele>
        <time>2018-07-18T11:32:28Z</time>
      </trkpt>
      <trkpt lat="47.80271" lon="-3.71875">
        <ele>12</ele>
        <time>2018-07-18T11:32:29Z</time>
      </trkpt>
      <trkpt lat="47.80265" lon="-3.71867">
        <ele>11</ele>
        <time>2018-07-18T11:32:30Z</time>
      </trkpt>
      <trkpt lat="47.80258" lon="-3.71862">
        <ele>10</ele>
        <time>2018-07-18T11:32:31Z</time>
      </trkpt>
      <trkpt lat="47.80251" lon="-3.71857">
        <ele>10</ele>
        <time>2018-07-18T11:32:32Z</time>
      </trkpt>
      <trkpt lat="47.80244" lon="-3.71852">
        <ele>9</ele>
        <time>2018-07-18T11:32:33Z</time>
      </trkpt>
      <trkpt lat="47.80237" lon="-3.71847">
        <ele>9</ele>
        <time>2018-07-18T11:32:34Z</time>
      </trkpt>
      <trkpt lat="47.80231" lon="-3.71846">
        <ele>9</ele>
        <time>2018-07-18T11:32:35Z</time>
      </trkpt>
      <trkpt lat="47.80225" lon="-3.71848">
        <ele>9</ele>
        <time>2018-07-18T11:32:36Z</time>
      </trkpt>
      <trkpt lat="47.80219" lon="-3.71852">
        <ele>8</ele>
        <time>2018-07-18T11:32:37Z</time>
      </trkpt>
      <trkpt lat="47.80216" lon="-3.71858">
        <ele>8</ele>
        <time>2018-07-18T11:32:38Z</time>
      </trkpt>
      <trkpt lat="47.80214" lon="-3.71864">
        <ele>8</ele>
        <time>2018-07-18T11:32:39Z</time>
      </trkpt>
      <trkpt lat="47.80212" lon="-3.7187">
        <ele>7</ele>
        <time>2018-07-18T11:32:40Z</time>
      </trkpt>
      <trkpt lat="47.8021" lon="-3.71876">
        <ele>7</ele>
        <time>2018-07-18T11:32:41Z</time>
      </trkpt>
      <trkpt lat="47.80208" lon="-3.71882">
        <ele>7</ele>
        <time>2018-07-18T11:32:42Z</time>
      </trkpt>
      <trkpt lat="47.80205" lon="-3.71889">
        <ele>6</ele>
        <time>2018-07-18T11:32:43Z</time>
      </trkpt>
      <trkpt lat="47.80204" lon="-3.71895">
        <ele>6</ele>
        <time>2018-07-18T11:32:44Z</time>
      </trkpt>
      <trkpt lat="47.80202" lon="-3.71902">
        <ele>6</ele>
        <time>2018-07-18T11:32:45Z</time>
      </trkpt>
      <trkpt lat="47.80199" lon="-3.71908">
        <ele>5</ele>
        <time>2018-07-18T11:32:46Z</time>
      </trkpt>
      <trkpt lat="47.80197" lon="-3.71914">
        <ele>5</ele>
        <time>2018-07-18T11:32:47Z</time>
      </trkpt>
      <trkpt lat="47.80195" lon="-3.7192">
        <ele>5</ele>
        <time>2018-07-18T11:32:48Z</time>
      </trkpt>
      <trkpt lat="47.80193" lon="-3.71926">
        <ele>5</ele>
        <time>2018-07-18T11:32:49Z</time>
      </trkpt>
      <trkpt lat="47.80191" lon="-3.71931">
        <ele>4</ele>
        <time>2018-07-18T11:32:50Z</time>
      </trkpt>
      <trkpt lat="47.80189" lon="-3.71936">
        <ele>4</ele>
        <time>2018-07-18T11:32:51Z</time>
      </trkpt>
      <trkpt lat="47.80187" lon="-3.7194">
        <ele>4</ele>
        <time>2018-07-18T11:32:52Z</time>
      </trkpt>
      <trkpt lat="47.80185" lon="-3.71945">
        <ele>4</ele>
        <time>2018-07-18T11:32:53Z</time>
      </trkpt>
      <trkpt lat="47.80183" lon="-3.71949">
        <ele>4</ele>
        <time>2018-07-18T11:32:54Z</time>
      </trkpt>
      <trkpt lat="47.80181" lon="-3.71952">
        <ele>4</ele>
        <time>2018-07-18T11:32:55Z</time>
      </trkpt>
      <trkpt lat="47.80179" lon="-3.71956">
        <ele>4</ele>
        <time>2018-07-18T11:32:56Z</time>
      </trkpt>
      <trkpt lat="47.80177" lon="-3.7196">
        <ele>4</ele>
        <time>2018-07-18T11:32:57Z</time>
      </trkpt>
      <trkpt lat="47.80175" lon="-3.71963">
        <ele>4</ele>
        <time>2018-07-18T11:32:58Z</time>
      </trkpt>
      <trkpt lat="47.80173" lon="-3.71966">
        <ele>4</ele>
        <time>2018-07-18T11:32:59Z</time>
      </trkpt>
      <trkpt lat="47.80171" lon="-3.71968">
        <ele>4</ele>
        <time>2018-07-18T11:33:00Z</time>
      </trkpt>
      <trkpt lat="47.80169" lon="-3.71969">
        <ele>4</ele>
        <time>2018-07-18T11:33:01Z</time>
      </trkpt>
      <trkpt lat="47.80168" lon="-3.7197">
        <ele>4</ele>
        <time>2018-07-18T11:33:02Z</time>
      </trkpt>
      <trkpt lat="47.80167" lon="-3.7197">
        <ele>4</ele>
        <time>2018-07-18T11:33:03Z</time>
      </trkpt>
      <trkpt lat="47.80167" lon="-3.7197">
        <ele>4</ele>
        <time>2018-07-18T11:33:04Z</time>
      </trkpt>
      <trkpt lat="47.80166" lon="-3.7197">
        <ele>4</ele>
        <time>2018-07-18T11:33:05Z</time>
      </trkpt>
      <trkpt lat="47.80166" lon="-3.7197">
        <ele>3</ele>
        <time>2018-07-18T11:33:06Z</time>
      </trkpt>
      <trkpt lat="47.80166" lon="-3.7197">
        <ele>3</ele>
        <time>2018-07-18T11:33:07Z</time>
      </trkpt>
      <trkpt lat="47.80165" lon="-3.7197">
        <ele>3</ele>
        <time>2018-07-18T11:33:08Z</time>
      </trkpt>
      <trkpt lat="47.80164" lon="-3.7197">
        <ele>4</ele>
        <time>2018-07-18T11:33:09Z</time>
      </trkpt>
      <trkpt lat="47.80162" lon="-3.71968">
        <ele>4</ele>
        <time>2018-07-18T11:33:10Z</time>
      </trkpt>
      <trkpt lat="47.8016" lon="-3.71967">
        <ele>4</ele>
        <time>2018-07-18T11:33:11Z</time>
      </trkpt>
      <trkpt lat="47.80158" lon="-3.71966">
        <ele>4</ele>
        <time>2018-07-18T11:33:12Z</time>
      </trkpt>
      <trkpt lat="47.80156" lon="-3.71966">
        <ele>4</ele>
        <time>2018-07-18T11:33:13Z</time>
      </trkpt>
      <trkpt lat="47.80154" lon="-3.71966">
        <ele>4</ele>
        <time>2018-07-18T11:33:14Z</time>
      </trkpt>
      <trkpt lat="47.80153" lon="-3.71967">
        <ele>4</ele>
        <time>2018-07-18T11:33:15Z</time>
      </trkpt>
      <trkpt lat="47.80151" lon="-3.71967">
        <ele>4</ele>
        <time>2018-07-18T11:33:16Z</time>
      </trkpt>
      <trkpt lat="47.80151" lon="-3.71968">
        <ele>5</ele>
        <time>2018-07-18T11:33:17Z</time>
      </trkpt>
      <trkpt lat="47.80151" lon="-3.71968">
        <ele>5</ele>
        <time>2018-07-18T11:33:18Z</time>
      </trkpt>
      <trkpt lat="47.80151" lon="-3.71968">
        <ele>5</ele>
        <time>2018-07-18T11:33:19Z</time>
      </trkpt>
      <trkpt lat="47.80151" lon="-3.71967">
        <ele>5</ele>
        <time>2018-07-18T11:33:20Z</time>
      </trkpt>
      <trkpt lat="47.80152" lon="-3.71968">
        <ele>5</ele>
        <time>2018-07-18T11:33:21Z</time>
      </trkpt>
      <trkpt lat="47.80152" lon="-3.71967">
        <ele>5</ele>
        <time>2018-07-18T11:33:22Z</time>
      </trkpt>
      <trkpt lat="47.80153" lon="-3.71967">
        <ele>5</ele>
        <time>2018-07-18T11:33:23Z</time>
      </trkpt>
      <trkpt lat="47.80155" lon="-3.71968">
        <ele>5</ele>
        <time>2018-07-18T11:33:24Z</time>
      </trkpt>
      <trkpt lat="47.80155" lon="-3.7197">
        <ele>5</ele>
        <time>2018-07-18T11:33:25Z</time>
      </trkpt>
      <trkpt lat="47.80155" lon="-3.71974">
        <ele>5</ele>
        <time>2018-07-18T11:33:26Z</time>
      </trkpt>
      <trkpt lat="47.80153" lon="-3.71978">
        <ele>5</ele>
        <time>2018-07-18T11:33:27Z</time>
      </trkpt>
      <trkpt lat="47.80152" lon="-3.71982">
        <ele>5</ele>
        <time>2018-07-18T11:33:28Z</time>
      </trkpt>
      <trkpt lat="47.80151" lon="-3.71986">
        <ele>5</ele>
        <time>2018-07-18T11:33:29Z</time>
      </trkpt>
      <trkpt lat="47.80151" lon="-3.71989">
        <ele>5</ele>
        <time>2018-07-18T11:33:30Z</time>
      </trkpt>
      <trkpt lat="47.8015" lon="-3.71992">
        <ele>5</ele>
        <time>2018-07-18T11:33:31Z</time>
      </trkpt>
      <trkpt lat="47.80149" lon="-3.71995">
        <ele>6</ele>
        <time>2018-07-18T11:33:32Z</time>
      </trkpt>
      <trkpt lat="47.80146" lon="-3.71997">
        <ele>6</ele>
        <time>2018-07-18T11:33:33Z</time>
      </trkpt>
      <trkpt lat="47.80143" lon="-3.71999">
        <ele>6</ele>
        <time>2018-07-18T11:33:34Z</time>
      </trkpt>
      <trkpt lat="47.8014" lon="-3.72">
        <ele>6</ele>
        <time>2018-07-18T11:33:35Z</time>
      </trkpt>
      <trkpt lat="47.80138" lon="-3.72002">
        <ele>6</ele>
        <time>2018-07-18T11:33:36Z</time>
      </trkpt>
      <trkpt lat="47.80135" lon="-3.72004">
        <ele>6</ele>
        <time>2018-07-18T11:33:37Z</time>
      </trkpt>
      <trkpt lat="47.80132" lon="-3.72006">
        <ele>6</ele>
        <time>2018-07-18T11:33:38Z</time>
      </trkpt>
      <trkpt lat="47.8013" lon="-3.72007">
        <ele>6</ele>
        <time>2018-07-18T11:33:39Z</time>
      </trkpt>
      <trkpt lat="47.80128" lon="-3.72008">
        <ele>6</ele>
        <time>2018-07-18T11:33:40Z</time>
      </trkpt>
      <trkpt lat="47.80125" lon="-3.7201">
        <ele>6</ele>
        <time>2018-07-18T11:33:41Z</time>
      </trkpt>
      <trkpt lat="47.80122" lon="-3.72013">
        <ele>6</ele>
        <time>2018-07-18T11:33:42Z</time>
      </trkpt>
      <trkpt lat="47.80118" lon="-3.72015">
        <ele>6</ele>
        <time>2018-07-18T11:33:43Z</time>
      </trkpt>
      <trkpt lat="47.80114" lon="-3.72016">
        <ele>6</ele>
        <time>2018-07-18T11:33:44Z</time>
      </trkpt>
      <trkpt lat="47.8011" lon="-3.72018">
        <ele>6</ele>
        <time>2018-07-18T11:33:45Z</time>
      </trkpt>
      <trkpt lat="47.80107" lon="-3.72019">
        <ele>6</ele>
        <time>2018-07-18T11:33:46Z</time>
      </trkpt>
      <trkpt lat="47.80105" lon="-3.72019">
        <ele>6</ele>
        <time>2018-07-18T11:33:47Z</time>
      </trkpt>
      <trkpt lat="47.80102" lon="-3.72021">
        <ele>6</ele>
        <time>2018-07-18T11:33:48Z</time>
      </trkpt>
      <trkpt lat="47.80099" lon="-3.72022">
        <ele>6</ele>
        <time>2018-07-18T11:33:49Z</time>
      </trkpt>
      <trkpt lat="47.80096" lon="-3.72024">
        <ele>6</ele>
        <time>2018-07-18T11:33:50Z</time>
      </trkpt>
      <trkpt lat="47.80094" lon="-3.72025">
        <ele>6</ele>
        <time>2018-07-18T11:33:51Z</time>
      </trkpt>
      <trkpt lat="47.80093" lon="-3.72027">
        <ele>6</ele>
        <time>2018-07-18T11:33:52Z</time>
      </trkpt>
      <trkpt lat="47.80091" lon="-3.72029">
        <ele>7</ele>
        <time>2018-07-18T11:33:53Z</time>
      </trkpt>
      <trkpt lat="47.80089" lon="-3.72032">
        <ele>7</ele>
        <time>2018-07-18T11:33:54Z</time>
      </trkpt>
      <trkpt lat="47.80087" lon="-3.72033">
        <ele>7</ele>
        <time>2018-07-18T11:33:55Z</time>
      </trkpt>
      <trkpt lat="47.80086" lon="-3.72036">
        <ele>7</ele>
        <time>2018-07-18T11:33:56Z</time>
      </trkpt>
      <trkpt lat="47.80084" lon="-3.72039">
        <ele>7</ele>
        <time>2018-07-18T11:33:57Z</time>
      </trkpt>
      <trkpt lat="47.80082" lon="-3.72043">
        <ele>7</ele>
        <time>2018-07-18T11:33:58Z</time>
      </trkpt>
      <trkpt lat="47.8008" lon="-3.72047">
        <ele>7</ele>
        <time>2018-07-18T11:33:59Z</time>
      </trkpt>
      <trkpt lat="47.80079" lon="-3.72051">
        <ele>7</ele>
        <time>2018-07-18T11:34:00Z</time>
      </trkpt>
      <trkpt lat="47.80079" lon="-3.72055">
        <ele>7</ele>
        <time>2018-07-18T11:34:01Z</time>
      </trkpt>
      <trkpt lat="47.80078" lon="-3.72059">
        <ele>8</ele>
        <time>2018-07-18T11:34:02Z</time>
      </trkpt>
      <trkpt lat="47.80078" lon="-3.72064">
        <ele>8</ele>
        <time>2018-07-18T11:34:03Z</time>
      </trkpt>
      <trkpt lat="47.80078" lon="-3.72069">
        <ele>8</ele>
        <time>2018-07-18T11:34:04Z</time>
      </trkpt>
      <trkpt lat="47.80078" lon="-3.72074">
        <ele>8</ele>
        <time>2018-07-18T11:34:05Z</time>
      </trkpt>
      <trkpt lat="47.80078" lon="-3.72079">
        <ele>8</ele>
        <time>2018-07-18T11:34:06Z</time>
      </trkpt>
      <trkpt lat="47.80077" lon="-3.72085">
        <ele>8</ele>
        <time>2018-07-18T11:34:07Z</time>
      </trkpt>
      <trkpt lat="47.80076" lon="-3.72089">
        <ele>8</ele>
        <time>2018-07-18T11:34:08Z</time>
      </trkpt>
      <trkpt lat="47.80074" lon="-3.72094">
        <ele>8</ele>
        <time>2018-07-18T11:34:09Z</time>
      </trkpt>
      <trkpt lat="47.80072" lon="-3.72098">
        <ele>8</ele>
        <time>2018-07-18T11:34:10Z</time>
      </trkpt>
      <trkpt lat="47.8007" lon="-3.72102">
        <ele>8</ele>
        <time>2018-07-18T11:34:11Z</time>
      </trkpt>
      <trkpt lat="47.80067" lon="-3.72106">
        <ele>8</ele>
        <time>2018-07-18T11:34:12Z</time>
      </trkpt>
      <trkpt lat="47.80063" lon="-3.72108">
        <ele>9</ele>
        <time>2018-07-18T11:34:13Z</time>
      </trkpt>
      <trkpt lat="47.8006" lon="-3.72112">
        <ele>9</ele>
        <time>2018-07-18T11:34:14Z</time>
      </trkpt>
      <trkpt lat="47.80056" lon="-3.72115">
        <ele>9</ele>
        <time>2018-07-18T11:34:15Z</time>
      </trkpt>
      <trkpt lat="47.80053" lon="-3.72119">
        <ele>9</ele>
        <time>2018-07-18T11:34:16Z</time>
      </trkpt>
      <trkpt lat="47.80049" lon="-3.72123">
        <ele>9</ele>
        <time>2018-07-18T11:34:17Z</time>
      </trkpt>
      <trkpt lat="47.80045" lon="-3.72127">
        <ele>10</ele>
        <time>2018-07-18T11:34:18Z</time>
      </trkpt>
      <trkpt lat="47.80041" lon="-3.72131">
        <ele>10</ele>
        <time>2018-07-18T11:34:19Z</time>
      </trkpt>
      <trkpt lat="47.80037" lon="-3.72134">
        <ele>10</ele>
        <time>2018-07-18T11:34:20Z</time>
      </trkpt>
      <trkpt lat="47.80034" lon="-3.72137">
        <ele>10</ele>
        <time>2018-07-18T11:34:21Z</time>
      </trkpt>
      <trkpt lat="47.80029" lon="-3.72139">
        <ele>10</ele>
        <time>2018-07-18T11:34:22Z</time>
      </trkpt>
      <trkpt lat="47.80025" lon="-3.72142">
        <ele>10</ele>
        <time>2018-07-18T11:34:23Z</time>
      </trkpt>
      <trkpt lat="47.80021" lon="-3.72144">
        <ele>10</ele>
        <time>2018-07-18T11:34:24Z</time>
      </trkpt>
      <trkpt lat="47.80017" lon="-3.72146">
        <ele>10</ele>
        <time>2018-07-18T11:34:25Z</time>
      </trkpt>
      <trkpt lat="47.80012" lon="-3.72147">
        <ele>10</ele>
        <time>2018-07-18T11:34:26Z</time>
      </trkpt>
      <trkpt lat="47.80008" lon="-3.72147">
        <ele>10</ele>
        <time>2018-07-18T11:34:27Z</time>
      </trkpt>
      <trkpt lat="47.80004" lon="-3.72146">
        <ele>10</ele>
        <time>2018-07-18T11:34:28Z</time>
      </trkpt>
      <trkpt lat="47.80001" lon="-3.72145">
        <ele>10</ele>
        <time>2018-07-18T11:34:29Z</time>
      </trkpt>
      <trkpt lat="47.79998" lon="-3.72145">
        <ele>10</ele>
        <time>2018-07-18T11:34:30Z</time>
      </trkpt>
      <trkpt lat="47.79996" lon="-3.72145">
        <ele>10</ele>
        <time>2018-07-18T11:34:31Z</time>
      </trkpt>
      <trkpt lat="47.79993" lon="-3.72145">
        <ele>10</ele>
        <time>2018-07-18T11:34:32Z</time>
      </trkpt>
      <trkpt lat="47.79991" lon="-3.72145">
        <ele>10</ele>
        <time>2018-07-18T11:34:33Z</time>
      </trkpt>
      <trkpt lat="47.79989" lon="-3.72147">
        <ele>10</ele>
        <time>2018-07-18T11:34:34Z</time>
      </trkpt>
      <trkpt lat="47.79987" lon="-3.72151">
        <ele>10</ele>
        <time>2018-07-18T11:34:35Z</time>
      </trkpt>
      <trkpt lat="47.79984" lon="-3.72154">
        <ele>10</ele>
        <time>2018-07-18T11:34:36Z</time>
      </trkpt>
      <trkpt lat="47.79983" lon="-3.72159">
        <ele>10</ele>
        <time>2018-07-18T11:34:37Z</time>
      </trkpt>
      <trkpt lat="47.79981" lon="-3.72162">
        <ele>10</ele>
        <time>2018-07-18T11:34:38Z</time>
      </trkpt>
      <trkpt lat="47.7998" lon="-3.72164">
        <ele>10</ele>
        <time>2018-07-18T11:34:39Z</time>
      </trkpt>
      <trkpt lat="47.79979" lon="-3.72165">
        <ele>10</ele>
        <time>2018-07-18T11:34:40Z</time>
      </trkpt>
      <trkpt lat="47.79978" lon="-3.72167">
        <ele>9</ele>
        <time>2018-07-18T11:34:41Z</time>
      </trkpt>
      <trkpt lat="47.79976" lon="-3.7217">
        <ele>9</ele>
        <time>2018-07-18T11:34:42Z</time>
      </trkpt>
      <trkpt lat="47.79974" lon="-3.72173">
        <ele>9</ele>
        <time>2018-07-18T11:34:43Z</time>
      </trkpt>
      <trkpt lat="47.79972" lon="-3.72176">
        <ele>9</ele>
        <time>2018-07-18T11:34:44Z</time>
      </trkpt>
      <trkpt lat="47.79969" lon="-3.72179">
        <ele>9</ele>
        <time>2018-07-18T11:34:45Z</time>
      </trkpt>
      <trkpt lat="47.79967" lon="-3.72181">
        <ele>9</ele>
        <time>2018-07-18T11:34:46Z</time>
      </trkpt>
      <trkpt lat="47.79965" lon="-3.72183">
        <ele>9</ele>
        <time>2018-07-18T11:34:47Z</time>
      </trkpt>
      <trkpt lat="47.79965" lon="-3.72187">
        <ele>9</ele>
        <time>2018-07-18T11:34:48Z</time>
      </trkpt>
      <trkpt lat="47.79964" lon="-3.72191">
        <ele>9</ele>
        <time>2018-07-18T11:34:49Z</time>
      </trkpt>
      <trkpt lat="47.79964" lon="-3.72196">
        <ele>9</ele>
        <time>2018-07-18T11:34:50Z</time>
      </trkpt>
      <trkpt lat="47.79963" lon="-3.72202">
        <ele>9</ele>
        <time>2018-07-18T11:34:51Z</time>
      </trkpt>
      <trkpt lat="47.79961" lon="-3.72206">
        <ele>9</ele>
        <time>2018-07-18T11:34:52Z</time>
      </trkpt>
      <trkpt lat="47.79958" lon="-3.72209">
        <ele>10</ele>
        <time>2018-07-18T11:34:53Z</time>
      </trkpt>
      <trkpt lat="47.79955" lon="-3.72211">
        <ele>10</ele>
        <time>2018-07-18T11:34:54Z</time>
      </trkpt>
      <trkpt lat="47.79952" lon="-3.72214">
        <ele>10</ele>
        <time>2018-07-18T11:34:55Z</time>
      </trkpt>
      <trkpt lat="47.79948" lon="-3.72219">
        <ele>10</ele>
        <time>2018-07-18T11:34:56Z</time>
      </trkpt>
      <trkpt lat="47.79945" lon="-3.72222">
        <ele>10</ele>
        <time>2018-07-18T11:34:57Z</time>
      </trkpt>
      <trkpt lat="47.79942" lon="-3.72226">
        <ele>10</ele>
        <time>2018-07-18T11:34:58Z</time>
      </trkpt>
      <trkpt lat="47.79939" lon="-3.72228">
        <ele>10</ele>
        <time>2018-07-18T11:34:59Z</time>
      </trkpt>
      <trkpt lat="47.79936" lon="-3.72229">
        <ele>10</ele>
        <time>2018-07-18T11:35:00Z</time>
      </trkpt>
      <trkpt lat="47.79933" lon="-3.72231">
        <ele>10</ele>
        <time>2018-07-18T11:35:01Z</time>
      </trkpt>
      <trkpt lat="47.79931" lon="-3.72234">
        <ele>10</ele>
        <time>2018-07-18T11:35:02Z</time>
      </trkpt>
      <trkpt lat="47.79929" lon="-3.72238">
        <ele>10</ele>
        <time>2018-07-18T11:35:03Z</time>
      </trkpt>
      <trkpt lat="47.79928" lon="-3.72242">
        <ele>10</ele>
        <time>2018-07-18T11:35:04Z</time>
      </trkpt>
      <trkpt lat="47.79925" lon="-3.72247">
        <ele>10</ele>
        <time>2018-07-18T11:35:05Z</time>
      </trkpt>
      <trkpt lat="47.79923" lon="-3.72251">
        <ele>10</ele>
        <time>2018-07-18T11:35:06Z</time>
      </trkpt>
      <trkpt lat="47.7992" lon="-3.72255">
        <ele>10</ele>
        <time>2018-07-18T11:35:07Z</time>
      </trkpt>
      <trkpt lat="47.79917" lon="-3.72259">
        <ele>10</ele>
        <time>2018-07-18T11:35:08Z</time>
      </trkpt>
      <trkpt lat="47.79913" lon="-3.72262">
        <ele>10</ele>
        <time>2018-07-18T11:35:09Z</time>
      </trkpt>
      <trkpt lat="47.79909" lon="-3.72265">
        <ele>10</ele>
        <time>2018-07-18T11:35:10Z</time>
      </trkpt>
      <trkpt lat="47.79905" lon="-3.72267">
        <ele>10</ele>
        <time>2018-07-18T11:35:11Z</time>
      </trkpt>
      <trkpt lat="47.79901" lon="-3.7227">
        <ele>10</ele>
        <time>2018-07-18T11:35:12Z</time>
      </trkpt>
      <trkpt lat="47.79897" lon="-3.72272">
        <ele>10</ele>
        <time>2018-07-18T11:35:13Z</time>
      </trkpt>
      <trkpt lat="47.79894" lon="-3.72271">
        <ele>10</ele>
        <time>2018-07-18T11:35:14Z</time>
      </trkpt>
      <trkpt lat="47.79891" lon="-3.7227">
        <ele>10</ele>
        <time>2018-07-18T11:35:15Z</time>
      </trkpt>
      <trkpt lat="47.79888" lon="-3.72269">
        <ele>10</ele>
        <time>2018-07-18T11:35:16Z</time>
      </trkpt>
      <trkpt lat="47.79885" lon="-3.72267">
        <ele>11</ele>
        <time>2018-07-18T11:35:17Z</time>
      </trkpt>
      <trkpt lat="47.79881" lon="-3.72264">
        <ele>11</ele>
        <time>2018-07-18T11:35:18Z</time>
      </trkpt>
      <trkpt lat="47.79879" lon="-3.72261">
        <ele>11</ele>
        <time>2018-07-18T11:35:19Z</time>
      </trkpt>
      <trkpt lat="47.79876" lon="-3.72258">
        <ele>11</ele>
        <time>2018-07-18T11:35:20Z</time>
      </trkpt>
      <trkpt lat="47.79874" lon="-3.72253">
        <ele>11</ele>
        <time>2018-07-18T11:35:21Z</time>
      </trkpt>
      <trkpt lat="47.79872" lon="-3.72249">
        <ele>11</ele>
        <time>2018-07-18T11:35:22Z</time>
      </trkpt>
      <trkpt lat="47.7987" lon="-3.72246">
        <ele>11</ele>
        <time>2018-07-18T11:35:23Z</time>
      </trkpt>
      <trkpt lat="47.79867" lon="-3.72244">
        <ele>11</ele>
        <time>2018-07-18T11:35:24Z</time>
      </trkpt>
      <trkpt lat="47.79864" lon="-3.72242">
        <ele>11</ele>
        <time>2018-07-18T11:35:25Z</time>
      </trkpt>
      <trkpt lat="47.7986" lon="-3.72241">
        <ele>11</ele>
        <time>2018-07-18T11:35:26Z</time>
      </trkpt>
      <trkpt lat="47.79857" lon="-3.7224">
        <ele>11</ele>
        <time>2018-07-18T11:35:27Z</time>
      </trkpt>
      <trkpt lat="47.79853" lon="-3.72241">
        <ele>11</ele>
        <time>2018-07-18T11:35:28Z</time>
      </trkpt>
      <trkpt lat="47.79849" lon="-3.72242">
        <ele>11</ele>
        <time>2018-07-18T11:35:29Z</time>
      </trkpt>
      <trkpt lat="47.79845" lon="-3.72244">
        <ele>11</ele>
        <time>2018-07-18T11:35:30Z</time>
      </trkpt>
      <trkpt lat="47.79841" lon="-3.72248">
        <ele>11</ele>
        <time>2018-07-18T11:35:31Z</time>
      </trkpt>
      <trkpt lat="47.79837" lon="-3.72251">
        <ele>11</ele>
        <time>2018-07-18T11:35:32Z</time>
      </trkpt>
      <trkpt lat="47.79834" lon="-3.72255">
        <ele>11</ele>
        <time>2018-07-18T11:35:33Z</time>
      </trkpt>
      <trkpt lat="47.7983" lon="-3.72259">
        <ele>11</ele>
        <time>2018-07-18T11:35:34Z</time>
      </trkpt>
      <trkpt lat="47.79825" lon="-3.72259">
        <ele>11</ele>
        <time>2018-07-18T11:35:35Z</time>
      </trkpt>
      <trkpt lat="47.79821" lon="-3.72258">
        <ele>10</ele>
        <time>2018-07-18T11:35:36Z</time>
      </trkpt>
      <trkpt lat="47.79817" lon="-3.72255">
        <ele>10</ele>
        <time>2018-07-18T11:35:37Z</time>
      </trkpt>
      <trkpt lat="47.79813" lon="-3.72251">
        <ele>10</ele>
        <time>2018-07-18T11:35:38Z</time>
      </trkpt>
      <trkpt lat="47.79809" lon="-3.72247">
        <ele>10</ele>
        <time>2018-07-18T11:35:39Z</time>
      </trkpt>
      <trkpt lat="47.79805" lon="-3.72244">
        <ele>10</ele>
        <time>2018-07-18T11:35:40Z</time>
      </trkpt>
      <trkpt lat="47.79802" lon="-3.7224">
        <ele>10</ele>
        <time>2018-07-18T11:35:41Z</time>
      </trkpt>
      <trkpt lat="47.79799" lon="-3.72235">
        <ele>10</ele>
        <time>2018-07-18T11:35:42Z</time>
      </trkpt>
      <trkpt lat="47.79797" lon="-3.72231">
        <ele>10</ele>
        <time>2018-07-18T11:35:43Z</time>
      </trkpt>
      <trkpt lat="47.79795" lon="-3.72226">
        <ele>10</ele>
        <time>2018-07-18T11:35:44Z</time>
      </trkpt>
      <trkpt lat="47.79794" lon="-3.72222">
        <ele>10</ele>
        <time>2018-07-18T11:35:45Z</time>
      </trkpt>
      <trkpt lat="47.79794" lon="-3.72217">
        <ele>10</ele>
        <time>2018-07-18T11:35:46Z</time>
      </trkpt>
      <trkpt lat="47.79794" lon="-3.72212">
        <ele>10</ele>
        <time>2018-07-18T11:35:47Z</time>
      </trkpt>
      <trkpt lat="47.79794" lon="-3.72207">
        <ele>10</ele>
        <time>2018-07-18T11:35:48Z</time>
      </trkpt>
      <trkpt lat="47.79794" lon="-3.72202">
        <ele>10</ele>
        <time>2018-07-18T11:35:49Z</time>
      </trkpt>
      <trkpt lat="47.79795" lon="-3.72197">
        <ele>10</ele>
        <time>2018-07-18T11:35:50Z</time>
      </trkpt>
      <trkpt lat="47.79796" lon="-3.72192">
        <ele>10</ele>
        <time>2018-07-18T11:35:51Z</time>
      </trkpt>
      <trkpt lat="47.79797" lon="-3.72186">
        <ele>10</ele>
        <time>2018-07-18T11:35:52Z</time>
      </trkpt>
      <trkpt lat="47.79798" lon="-3.72181">
        <ele>10</ele>
        <time>2018-07-18T11:35:53Z</time>
      </trkpt>
      <trkpt lat="47.79799" lon="-3.72175">
        <ele>10</ele>
        <time>2018-07-18T11:35:54Z</time>
      </trkpt>
      <trkpt lat="47.798" lon="-3.7217">
        <ele>10</ele>
        <time>2018-07-18T11:35:55Z</time>
      </trkpt>
      <trkpt lat="47.798" lon="-3.72164">
        <ele>10</ele>
        <time>2018-07-18T11:35:56Z</time>
      </trkpt>
      <trkpt lat="47.79801" lon="-3.72159">
        <ele>10</ele>
        <time>2018-07-18T11:35:57Z</time>
      </trkpt>
      <trkpt lat="47.79801" lon="-3.72154">
        <ele>11</ele>
        <time>2018-07-18T11:35:58Z</time>
      </trkpt>
      <trkpt lat="47.798" lon="-3.72149">
        <ele>11</ele>
        <time>2018-07-18T11:35:59Z</time>
      </trkpt>
      <trkpt lat="47.798" lon="-3.72144">
        <ele>11</ele>
        <time>2018-07-18T11:36:00Z</time>
      </trkpt>
      <trkpt lat="47.798" lon="-3.72139">
        <ele>11</ele>
        <time>2018-07-18T11:36:01Z</time>
      </trkpt>
      <trkpt lat="47.798" lon="-3.72134">
        <ele>11</ele>
        <time>2018-07-18T11:36:02Z</time>
      </trkpt>
      <trkpt lat="47.798" lon="-3.7213">
        <ele>11</ele>
        <time>2018-07-18T11:36:03Z</time>
      </trkpt>
      <trkpt lat="47.79799" lon="-3.72125">
        <ele>11</ele>
        <time>2018-07-18T11:36:04Z</time>
      </trkpt>
      <trkpt lat="47.79799" lon="-3.7212">
        <ele>11</ele>
        <time>2018-07-18T11:36:05Z</time>
      </trkpt>
      <trkpt lat="47.79799" lon="-3.72114">
        <ele>11</ele>
        <time>2018-07-18T11:36:06Z</time>
      </trkpt>
      <trkpt lat="47.79799" lon="-3.7211">
        <ele>11</ele>
        <time>2018-07-18T11:36:07Z</time>
      </trkpt>
      <trkpt lat="47.798" lon="-3.72105">
        <ele>11</ele>
        <time>2018-07-18T11:36:08Z</time>
      </trkpt>
      <trkpt lat="47.798" lon="-3.721">
        <ele>11</ele>
        <time>2018-07-18T11:36:09Z</time>
      </trkpt>
      <trkpt lat="47.79799" lon="-3.72095">
        <ele>11</ele>
        <time>2018-07-18T11:36:10Z</time>
      </trkpt>
      <trkpt lat="47.798" lon="-3.7209">
        <ele>11</ele>
        <time>2018-07-18T11:36:11Z</time>
      </trkpt>
      <trkpt lat="47.79799" lon="-3.72085">
        <ele>12</ele>
        <time>2018-07-18T11:36:12Z</time>
      </trkpt>
      <trkpt lat="47.79798" lon="-3.72081">
        <ele>11</ele>
        <time>2018-07-18T11:36:13Z</time>
      </trkpt>
      <trkpt lat="47.79797" lon="-3.72076">
        <ele>11</ele>
        <time>2018-07-18T11:36:14Z</time>
      </trkpt>
      <trkpt lat="47.79794" lon="-3.72071">
        <ele>11</ele>
        <time>2018-07-18T11:36:15Z</time>
      </trkpt>
      <trkpt lat="47.79791" lon="-3.72066">
        <ele>11</ele>
        <time>2018-07-18T11:36:16Z</time>
      </trkpt>
      <trkpt lat="47.79788" lon="-3.72061">
        <ele>11</ele>
        <time>2018-07-18T11:36:17Z</time>
      </trkpt>
      <trkpt lat="47.79785" lon="-3.72055">
        <ele>11</ele>
        <time>2018-07-18T11:36:18Z</time>
      </trkpt>
      <trkpt lat="47.79782" lon="-3.72049">
        <ele>10</ele>
        <time>2018-07-18T11:36:19Z</time>
      </trkpt>
      <trkpt lat="47.7978" lon="-3.72043">
        <ele>10</ele>
        <time>2018-07-18T11:36:20Z</time>
      </trkpt>
      <trkpt lat="47.79777" lon="-3.72037">
        <ele>10</ele>
        <time>2018-07-18T11:36:21Z</time>
      </trkpt>
      <trkpt lat="47.79774" lon="-3.72031">
        <ele>10</ele>
        <time>2018-07-18T11:36:22Z</time>
      </trkpt>
      <trkpt lat="47.79773" lon="-3.72023">
        <ele>10</ele>
        <time>2018-07-18T11:36:23Z</time>
      </trkpt>
      <trkpt lat="47.79773" lon="-3.72017">
        <ele>10</ele>
        <time>2018-07-18T11:36:24Z</time>
      </trkpt>
      <trkpt lat="47.79773" lon="-3.72012">
        <ele>11</ele>
        <time>2018-07-18T11:36:25Z</time>
      </trkpt>
      <trkpt lat="47.79773" lon="-3.72007">
        <ele>11</ele>
        <time>2018-07-18T11:36:26Z</time>
      </trkpt>
      <trkpt lat="47.79773" lon="-3.72002">
        <ele>11</ele>
        <time>2018-07-18T11:36:27Z</time>
      </trkpt>
      <trkpt lat="47.79773" lon="-3.71996">
        <ele>11</ele>
        <time>2018-07-18T11:36:28Z</time>
      </trkpt>
      <trkpt lat="47.79773" lon="-3.7199">
        <ele>11</ele>
        <time>2018-07-18T11:36:29Z</time>
      </trkpt>
      <trkpt lat="47.79773" lon="-3.71984">
        <ele>11</ele>
        <time>2018-07-18T11:36:30Z</time>
      </trkpt>
      <trkpt lat="47.79773" lon="-3.71978">
        <ele>11</ele>
        <time>2018-07-18T11:36:31Z</time>
      </trkpt>
      <trkpt lat="47.79773" lon="-3.71972">
        <ele>11</ele>
        <time>2018-07-18T11:36:32Z</time>
      </trkpt>
      <trkpt lat="47.79774" lon="-3.71967">
        <ele>11</ele>
        <time>2018-07-18T11:36:33Z</time>
      </trkpt>
      <trkpt lat="47.79775" lon="-3.71963">
        <ele>11</ele>
        <time>2018-07-18T11:36:34Z</time>
      </trkpt>
      <trkpt lat="47.79775" lon="-3.71959">
        <ele>11</ele>
        <time>2018-07-18T11:36:35Z</time>
      </trkpt>
      <trkpt lat="47.79776" lon="-3.71955">
        <ele>11</ele>
        <time>2018-07-18T11:36:36Z</time>
      </trkpt>
      <trkpt lat="47.79777" lon="-3.71952">
        <ele>11</ele>
        <time>2018-07-18T11:36:37Z</time>
      </trkpt>
      <trkpt lat="47.79779" lon="-3.7195">
        <ele>11</ele>
        <time>2018-07-18T11:36:38Z</time>
      </trkpt>
      <trkpt lat="47.79781" lon="-3.7195">
        <ele>11</ele>
        <time>2018-07-18T11:36:39Z</time>
      </trkpt>
      <trkpt lat="47.79782" lon="-3.7195">
        <ele>11</ele>
        <time>2018-07-18T11:36:40Z</time>
      </trkpt>
      <trkpt lat="47.79782" lon="-3.71951">
        <ele>11</ele>
        <time>2018-07-18T11:36:41Z</time>
      </trkpt>
      <trkpt lat="47.79782" lon="-3.71951">
        <ele>11</ele>
        <time>2018-07-18T11:36:42Z</time>
      </trkpt>
      <trkpt lat="47.79783" lon="-3.71951">
        <ele>11</ele>
        <time>2018-07-18T11:36:43Z</time>
      </trkpt>
      <trkpt lat="47.79783" lon="-3.71951">
        <ele>11</ele>
        <time>2018-07-18T11:36:44Z</time>
      </trkpt>
      <trkpt lat="47.79784" lon="-3.71951">
        <ele>11</ele>
        <time>2018-07-18T11:36:45Z</time>
      </trkpt>
      <trkpt lat="47.79784" lon="-3.71952">
        <ele>11</ele>
        <time>2018-07-18T11:36:46Z</time>
      </trkpt>
      <trkpt lat="47.79784" lon="-3.71953">
        <ele>11</ele>
        <time>2018-07-18T11:36:47Z</time>
      </trkpt>
      <trkpt lat="47.79785" lon="-3.71953">
        <ele>11</ele>
        <time>2018-07-18T11:36:48Z</time>
      </trkpt>
      <trkpt lat="47.79785" lon="-3.71953">
        <ele>11</ele>
        <time>2018-07-18T11:36:49Z</time>
      </trkpt>
      <trkpt lat="47.79785" lon="-3.71953">
        <ele>11</ele>
        <time>2018-07-18T11:36:50Z</time>
      </trkpt>
      <trkpt lat="47.79783" lon="-3.71953">
        <ele>10</ele>
        <time>2018-07-18T11:36:51Z</time>
      </trkpt>
      <trkpt lat="47.79783" lon="-3.71951">
        <ele>10</ele>
        <time>2018-07-18T11:36:52Z</time>
      </trkpt>
      <trkpt lat="47.79783" lon="-3.7195">
        <ele>10</ele>
        <time>2018-07-18T11:36:53Z</time>
      </trkpt>
      <trkpt lat="47.79783" lon="-3.7195">
        <ele>10</ele>
        <time>2018-07-18T11:36:54Z</time>
      </trkpt>
      <trkpt lat="47.79783" lon="-3.7195">
        <ele>10</ele>
        <time>2018-07-18T11:36:55Z</time>
      </trkpt>
      <trkpt lat="47.79783" lon="-3.7195">
        <ele>10</ele>
        <time>2018-07-18T11:36:56Z</time>
      </trkpt>
      <trkpt lat="47.79783" lon="-3.7195">
        <ele>10</ele>
        <time>2018-07-18T11:36:57Z</time>
      </trkpt>
      <trkpt lat="47.79782" lon="-3.7195">
        <ele>11</ele>
        <time>2018-07-18T11:36:58Z</time>
      </trkpt>
      <trkpt lat="47.7978" lon="-3.7195">
        <ele>11</ele>
        <time>2018-07-18T11:36:59Z</time>
      </trkpt>
      <trkpt lat="47.79778" lon="-3.71949">
        <ele>10</ele>
        <time>2018-07-18T11:37:00Z</time>
      </trkpt>
      <trkpt lat="47.79775" lon="-3.71947">
        <ele>10</ele>
        <time>2018-07-18T11:37:01Z</time>
      </trkpt>
      <trkpt lat="47.79774" lon="-3.71944">
        <ele>10</ele>
        <time>2018-07-18T11:37:02Z</time>
      </trkpt>
      <trkpt lat="47.79772" lon="-3.7194">
        <ele>10</ele>
        <time>2018-07-18T11:37:03Z</time>
      </trkpt>
      <trkpt lat="47.79771" lon="-3.71937">
        <ele>10</ele>
        <time>2018-07-18T11:37:04Z</time>
      </trkpt>
      <trkpt lat="47.79771" lon="-3.71933">
        <ele>10</ele>
        <time>2018-07-18T11:37:05Z</time>
      </trkpt>
      <trkpt lat="47.79769" lon="-3.7193">
        <ele>10</ele>
        <time>2018-07-18T11:37:06Z</time>
      </trkpt>
      <trkpt lat="47.79769" lon="-3.71925">
        <ele>10</ele>
        <time>2018-07-18T11:37:07Z</time>
      </trkpt>
      <trkpt lat="47.79769" lon="-3.7192">
        <ele>10</ele>
        <time>2018-07-18T11:37:08Z</time>
      </trkpt>
      <trkpt lat="47.79769" lon="-3.71915">
        <ele>10</ele>
        <time>2018-07-18T11:37:09Z</time>
      </trkpt>
      <trkpt lat="47.7977" lon="-3.71911">
        <ele>10</ele>
        <time>2018-07-18T11:37:10Z</time>
      </trkpt>
      <trkpt lat="47.7977" lon="-3.71907">
        <ele>10</ele>
        <time>2018-07-18T11:37:11Z</time>
      </trkpt>
      <trkpt lat="47.79771" lon="-3.71904">
        <ele>9</ele>
        <time>2018-07-18T11:37:12Z</time>
      </trkpt>
      <trkpt lat="47.79772" lon="-3.719">
        <ele>9</ele>
        <time>2018-07-18T11:37:13Z</time>
      </trkpt>
      <trkpt lat="47.79772" lon="-3.71897">
        <ele>9</ele>
        <time>2018-07-18T11:37:14Z</time>
      </trkpt>
      <trkpt lat="47.79772" lon="-3.71892">
        <ele>8</ele>
        <time>2018-07-18T11:37:15Z</time>
      </trkpt>
      <trkpt lat="47.79772" lon="-3.71888">
        <ele>8</ele>
        <time>2018-07-18T11:37:16Z</time>
      </trkpt>
      <trkpt lat="47.79772" lon="-3.71884">
        <ele>8</ele>
        <time>2018-07-18T11:37:17Z</time>
      </trkpt>
      <trkpt lat="47.79771" lon="-3.71881">
        <ele>8</ele>
        <time>2018-07-18T11:37:18Z</time>
      </trkpt>
      <trkpt lat="47.7977" lon="-3.71879">
        <ele>8</ele>
        <time>2018-07-18T11:37:19Z</time>
      </trkpt>
      <trkpt lat="47.79768" lon="-3.71878">
        <ele>8</ele>
        <time>2018-07-18T11:37:20Z</time>
      </trkpt>
      <trkpt lat="47.79765" lon="-3.71878">
        <ele>9</ele>
        <time>2018-07-18T11:37:21Z</time>
      </trkpt>
      <trkpt lat="47.79763" lon="-3.71878">
        <ele>9</ele>
        <time>2018-07-18T11:37:22Z</time>
      </trkpt>
      <trkpt lat="47.79761" lon="-3.71879">
        <ele>9</ele>
        <time>2018-07-18T11:37:23Z</time>
      </trkpt>
      <trkpt lat="47.79759" lon="-3.71879">
        <ele>9</ele>
        <time>2018-07-18T11:37:24Z</time>
      </trkpt>
      <trkpt lat="47.79758" lon="-3.71878">
        <ele>9</ele>
        <time>2018-07-18T11:37:25Z</time>
      </trkpt>
      <trkpt lat="47.79756" lon="-3.71878">
        <ele>10</ele>
        <time>2018-07-18T11:37:26Z</time>
      </trkpt>
      <trkpt lat="47.79756" lon="-3.71877">
        <ele>10</ele>
        <time>2018-07-18T11:37:27Z</time>
      </trkpt>
      <trkpt lat="47.79755" lon="-3.71877">
        <ele>10</ele>
        <time>2018-07-18T11:37:28Z</time>
      </trkpt>
      <trkpt lat="47.79755" lon="-3.71877">
        <ele>10</ele>
        <time>2018-07-18T11:37:29Z</time>
      </trkpt>
      <trkpt lat="47.79754" lon="-3.71876">
        <ele>10</ele>
        <time>2018-07-18T11:37:30Z</time>
      </trkpt>
      <trkpt lat="47.79754" lon="-3.71875">
        <ele>10</ele>
        <time>2018-07-18T11:37:31Z</time>
      </trkpt>
      <trkpt lat="47.79753" lon="-3.71874">
        <ele>10</ele>
        <time>2018-07-18T11:37:32Z</time>
      </trkpt>
      <trkpt lat="47.79753" lon="-3.71873">
        <ele>11</ele>
        <time>2018-07-18T11:37:33Z</time>
      </trkpt>
      <trkpt lat="47.79752" lon="-3.71873">
        <ele>11</ele>
        <time>2018-07-18T11:37:34Z</time>
      </trkpt>
      <trkpt lat="47.79752" lon="-3.71872">
        <ele>11</ele>
        <time>2018-07-18T11:37:35Z</time>
      </trkpt>
      <trkpt lat="47.79751" lon="-3.71872">
        <ele>12</ele>
        <time>2018-07-18T11:37:36Z</time>
      </trkpt>
      <trkpt lat="47.79751" lon="-3.71872">
        <ele>12</ele>
        <time>2018-07-18T11:37:37Z</time>
      </trkpt>
      <trkpt lat="47.7975" lon="-3.71872">
        <ele>12</ele>
        <time>2018-07-18T11:37:38Z</time>
      </trkpt>
      <trkpt lat="47.79749" lon="-3.71872">
        <ele>12</ele>
        <time>2018-07-18T11:37:39Z</time>
      </trkpt>
      <trkpt lat="47.79748" lon="-3.71872">
        <ele>12</ele>
        <time>2018-07-18T11:37:40Z</time>
      </trkpt>
      <trkpt lat="47.79747" lon="-3.71871">
        <ele>13</ele>
        <time>2018-07-18T11:37:41Z</time>
      </trkpt>
      <trkpt lat="47.79746" lon="-3.71871">
        <ele>13</ele>
        <time>2018-07-18T11:37:42Z</time>
      </trkpt>
      <trkpt lat="47.79745" lon="-3.71871">
        <ele>13</ele>
        <time>2018-07-18T11:37:43Z</time>
      </trkpt>
      <trkpt lat="47.79744" lon="-3.7187">
        <ele>13</ele>
        <time>2018-07-18T11:37:44Z</time>
      </trkpt>
      <trkpt lat="47.79743" lon="-3.71869">
        <ele>13</ele>
        <time>2018-07-18T11:37:45Z</time>
      </trkpt>
      <trkpt lat="47.79742" lon="-3.71869">
        <ele>13</ele>
        <time>2018-07-18T11:37:46Z</time>
      </trkpt>
      <trkpt lat="47.79741" lon="-3.71868">
        <ele>13</ele>
        <time>2018-07-18T11:37:47Z</time>
      </trkpt>
      <trkpt lat="47.79741" lon="-3.71868">
        <ele>13</ele>
        <time>2018-07-18T11:37:48Z</time>
      </trkpt>
      <trkpt lat="47.7974" lon="-3.71868">
        <ele>13</ele>
        <time>2018-07-18T11:37:49Z</time>
      </trkpt>
      <trkpt lat="47.7974" lon="-3.71868">
        <ele>13</ele>
        <time>2018-07-18T11:37:50Z</time>
      </trkpt>
      <trkpt lat="47.7974" lon="-3.71868">
        <ele>13</ele>
        <time>2018-07-18T11:37:51Z</time>
      </trkpt>
      <trkpt lat="47.79739" lon="-3.71867">
        <ele>13</ele>
        <time>2018-07-18T11:37:52Z</time>
      </trkpt>
      <trkpt lat="47.79738" lon="-3.71867">
        <ele>13</ele>
        <time>2018-07-18T11:37:53Z</time>
      </trkpt>
      <trkpt lat="47.79736" lon="-3.71866">
        <ele>13</ele>
        <time>2018-07-18T11:37:54Z</time>
      </trkpt>
      <trkpt lat="47.79734" lon="-3.71864">
        <ele>13</ele>
        <time>2018-07-18T11:37:55Z</time>
      </trkpt>
      <trkpt lat="47.79733" lon="-3.71862">
        <ele>13</ele>
        <time>2018-07-18T11:37:56Z</time>
      </trkpt>
      <trkpt lat="47.79732" lon="-3.7186">
        <ele>13</ele>
        <time>2018-07-18T11:37:57Z</time>
      </trkpt>
      <trkpt lat="47.7973" lon="-3.71858">
        <ele>13</ele>
        <time>2018-07-18T11:37:58Z</time>
      </trkpt>
      <trkpt lat="47.79729" lon="-3.71855">
        <ele>13</ele>
        <time>2018-07-18T11:37:59Z</time>
      </trkpt>
      <trkpt lat="47.79728" lon="-3.71853">
        <ele>14</ele>
        <time>2018-07-18T11:38:00Z</time>
      </trkpt>
      <trkpt lat="47.79726" lon="-3.7185">
        <ele>14</ele>
        <time>2018-07-18T11:38:01Z</time>
      </trkpt>
      <trkpt lat="47.79724" lon="-3.71848">
        <ele>14</ele>
        <time>2018-07-18T11:38:02Z</time>
      </trkpt>
      <trkpt lat="47.79722" lon="-3.71846">
        <ele>14</ele>
        <time>2018-07-18T11:38:03Z</time>
      </trkpt>
      <trkpt lat="47.79721" lon="-3.71845">
        <ele>14</ele>
        <time>2018-07-18T11:38:04Z</time>
      </trkpt>
      <trkpt lat="47.79719" lon="-3.71842">
        <ele>14</ele>
        <time>2018-07-18T11:38:05Z</time>
      </trkpt>
      <trkpt lat="47.79717" lon="-3.7184">
        <ele>14</ele>
        <time>2018-07-18T11:38:06Z</time>
      </trkpt>
      <trkpt lat="47.79716" lon="-3.71838">
        <ele>14</ele>
        <time>2018-07-18T11:38:07Z</time>
      </trkpt>
      <trkpt lat="47.79714" lon="-3.71835">
        <ele>14</ele>
        <time>2018-07-18T11:38:08Z</time>
      </trkpt>
      <trkpt lat="47.79712" lon="-3.71833">
        <ele>14</ele>
        <time>2018-07-18T11:38:09Z</time>
      </trkpt>
      <trkpt lat="47.7971" lon="-3.71831">
        <ele>14</ele>
        <time>2018-07-18T11:38:10Z</time>
      </trkpt>
      <trkpt lat="47.79709" lon="-3.71829">
        <ele>14</ele>
        <time>2018-07-18T11:38:11Z</time>
      </trkpt>
      <trkpt lat="47.79707" lon="-3.71826">
        <ele>14</ele>
        <time>2018-07-18T11:38:12Z</time>
      </trkpt>
      <trkpt lat="47.79705" lon="-3.71823">
        <ele>14</ele>
        <time>2018-07-18T11:38:13Z</time>
      </trkpt>
      <trkpt lat="47.79703" lon="-3.71819">
        <ele>15</ele>
        <time>2018-07-18T11:38:14Z</time>
      </trkpt>
      <trkpt lat="47.79702" lon="-3.71816">
        <ele>15</ele>
        <time>2018-07-18T11:38:15Z</time>
      </trkpt>
      <trkpt lat="47.797" lon="-3.71813">
        <ele>15</ele>
        <time>2018-07-18T11:38:16Z</time>
      </trkpt>
      <trkpt lat="47.79699" lon="-3.7181">
        <ele>15</ele>
        <time>2018-07-18T11:38:17Z</time>
      </trkpt>
      <trkpt lat="47.79697" lon="-3.71808">
        <ele>15</ele>
        <time>2018-07-18T11:38:18Z</time>
      </trkpt>
      <trkpt lat="47.79696" lon="-3.71804">
        <ele>16</ele>
        <time>2018-07-18T11:38:19Z</time>
      </trkpt>
      <trkpt lat="47.79694" lon="-3.71801">
        <ele>16</ele>
        <time>2018-07-18T11:38:20Z</time>
      </trkpt>
      <trkpt lat="47.79692" lon="-3.71798">
        <ele>16</ele>
        <time>2018-07-18T11:38:21Z</time>
      </trkpt>
      <trkpt lat="47.7969" lon="-3.71795">
        <ele>16</ele>
        <time>2018-07-18T11:38:22Z</time>
      </trkpt>
      <trkpt lat="47.79689" lon="-3.71792">
        <ele>16</ele>
        <time>2018-07-18T11:38:23Z</time>
      </trkpt>
      <trkpt lat="47.79686" lon="-3.71789">
        <ele>16</ele>
        <time>2018-07-18T11:38:24Z</time>
      </trkpt>
      <trkpt lat="47.79684" lon="-3.71786">
        <ele>16</ele>
        <time>2018-07-18T11:38:25Z</time>
      </trkpt>
      <trkpt lat="47.79681" lon="-3.71783">
        <ele>16</ele>
        <time>2018-07-18T11:38:26Z</time>
      </trkpt>
      <trkpt lat="47.79678" lon="-3.7178">
        <ele>16</ele>
        <time>2018-07-18T11:38:27Z</time>
      </trkpt>
      <trkpt lat="47.79676" lon="-3.71777">
        <ele>16</ele>
        <time>2018-07-18T11:38:28Z</time>
      </trkpt>
      <trkpt lat="47.79673" lon="-3.71774">
        <ele>16</ele>
        <time>2018-07-18T11:38:29Z</time>
      </trkpt>
      <trkpt lat="47.7967" lon="-3.7177">
        <ele>16</ele>
        <time>2018-07-18T11:38:30Z</time>
      </trkpt>
      <trkpt lat="47.79667" lon="-3.71767">
        <ele>16</ele>
        <time>2018-07-18T11:38:31Z</time>
      </trkpt>
      <trkpt lat="47.79664" lon="-3.71764">
        <ele>16</ele>
        <time>2018-07-18T11:38:32Z</time>
      </trkpt>
      <trkpt lat="47.79661" lon="-3.71761">
        <ele>16</ele>
        <time>2018-07-18T11:38:33Z</time>
      </trkpt>
      <trkpt lat="47.79657" lon="-3.71757">
        <ele>15</ele>
        <time>2018-07-18T11:38:34Z</time>
      </trkpt>
      <trkpt lat="47.79654" lon="-3.71753">
        <ele>15</ele>
        <time>2018-07-18T11:38:35Z</time>
      </trkpt>
      <trkpt lat="47.79651" lon="-3.7175">
        <ele>15</ele>
        <time>2018-07-18T11:38:36Z</time>
      </trkpt>
      <trkpt lat="47.79649" lon="-3.71746">
        <ele>15</ele>
        <time>2018-07-18T11:38:37Z</time>
      </trkpt>
      <trkpt lat="47.79646" lon="-3.71741">
        <ele>15</ele>
        <time>2018-07-18T11:38:38Z</time>
      </trkpt>
      <trkpt lat="47.79644" lon="-3.71736">
        <ele>15</ele>
        <time>2018-07-18T11:38:39Z</time>
      </trkpt>
      <trkpt lat="47.79642" lon="-3.71731">
        <ele>15</ele>
        <time>2018-07-18T11:38:40Z</time>
      </trkpt>
      <trkpt lat="47.7964" lon="-3.71727">
        <ele>15</ele>
        <time>2018-07-18T11:38:41Z</time>
      </trkpt>
      <trkpt lat="47.79637" lon="-3.71722">
        <ele>16</ele>
        <time>2018-07-18T11:38:42Z</time>
      </trkpt>
      <trkpt lat="47.79636" lon="-3.71718">
        <ele>16</ele>
        <time>2018-07-18T11:38:43Z</time>
      </trkpt>
      <trkpt lat="47.79634" lon="-3.71715">
        <ele>16</ele>
        <time>2018-07-18T11:38:44Z</time>
      </trkpt>
      <trkpt lat="47.79633" lon="-3.71713">
        <ele>17</ele>
        <time>2018-07-18T11:38:45Z</time>
      </trkpt>
      <trkpt lat="47.7963" lon="-3.7171">
        <ele>17</ele>
        <time>2018-07-18T11:38:46Z</time>
      </trkpt>
      <trkpt lat="47.79628" lon="-3.71706">
        <ele>17</ele>
        <time>2018-07-18T11:38:47Z</time>
      </trkpt>
      <trkpt lat="47.79626" lon="-3.71703">
        <ele>17</ele>
        <time>2018-07-18T11:38:48Z</time>
      </trkpt>
      <trkpt lat="47.79624" lon="-3.717">
        <ele>17</ele>
        <time>2018-07-18T11:38:49Z</time>
      </trkpt>
      <trkpt lat="47.79622" lon="-3.71697">
        <ele>17</ele>
        <time>2018-07-18T11:38:50Z</time>
      </trkpt>
      <trkpt lat="47.79619" lon="-3.71694">
        <ele>17</ele>
        <time>2018-07-18T11:38:51Z</time>
      </trkpt>
      <trkpt lat="47.79617" lon="-3.71692">
        <ele>17</ele>
        <time>2018-07-18T11:38:52Z</time>
      </trkpt>
      <trkpt lat="47.79615" lon="-3.7169">
        <ele>17</ele>
        <time>2018-07-18T11:38:53Z</time>
      </trkpt>
      <trkpt lat="47.79613" lon="-3.71687">
        <ele>17</ele>
        <time>2018-07-18T11:38:54Z</time>
      </trkpt>
      <trkpt lat="47.79611" lon="-3.71685">
        <ele>18</ele>
        <time>2018-07-18T11:38:55Z</time>
      </trkpt>
      <trkpt lat="47.7961" lon="-3.71681">
        <ele>18</ele>
        <time>2018-07-18T11:38:56Z</time>
      </trkpt>
      <trkpt lat="47.79608" lon="-3.71678">
        <ele>18</ele>
        <time>2018-07-18T11:38:57Z</time>
      </trkpt>
      <trkpt lat="47.79607" lon="-3.71675">
        <ele>18</ele>
        <time>2018-07-18T11:38:58Z</time>
      </trkpt>
      <trkpt lat="47.79606" lon="-3.71672">
        <ele>17</ele>
        <time>2018-07-18T11:38:59Z</time>
      </trkpt>
      <trkpt lat="47.79603" lon="-3.71669">
        <ele>17</ele>
        <time>2018-07-18T11:39:00Z</time>
      </trkpt>
      <trkpt lat="47.79602" lon="-3.71665">
        <ele>17</ele>
        <time>2018-07-18T11:39:01Z</time>
      </trkpt>
      <trkpt lat="47.796" lon="-3.71662">
        <ele>17</ele>
        <time>2018-07-18T11:39:02Z</time>
      </trkpt>
      <trkpt lat="47.79597" lon="-3.7166">
        <ele>17</ele>
        <time>2018-07-18T11:39:03Z</time>
      </trkpt>
      <trkpt lat="47.79595" lon="-3.71659">
        <ele>17</ele>
        <time>2018-07-18T11:39:04Z</time>
      </trkpt>
      <trkpt lat="47.79592" lon="-3.71657">
        <ele>17</ele>
        <time>2018-07-18T11:39:05Z</time>
      </trkpt>
      <trkpt lat="47.7959" lon="-3.71655">
        <ele>17</ele>
        <time>2018-07-18T11:39:06Z</time>
      </trkpt>
      <trkpt lat="47.79587" lon="-3.71653">
        <ele>17</ele>
        <time>2018-07-18T11:39:07Z</time>
      </trkpt>
      <trkpt lat="47.79584" lon="-3.71652">
        <ele>17</ele>
        <time>2018-07-18T11:39:08Z</time>
      </trkpt>
      <trkpt lat="47.79582" lon="-3.71649">
        <ele>17</ele>
        <time>2018-07-18T11:39:09Z</time>
      </trkpt>
      <trkpt lat="47.79581" lon="-3.71644">
        <ele>17</ele>
        <time>2018-07-18T11:39:10Z</time>
      </trkpt>
      <trkpt lat="47.79579" lon="-3.7164">
        <ele>17</ele>
        <time>2018-07-18T11:39:11Z</time>
      </trkpt>
      <trkpt lat="47.79578" lon="-3.71636">
        <ele>17</ele>
        <time>2018-07-18T11:39:12Z</time>
      </trkpt>
      <trkpt lat="47.79576" lon="-3.71632">
        <ele>17</ele>
        <time>2018-07-18T11:39:13Z</time>
      </trkpt>
      <trkpt lat="47.79575" lon="-3.71628">
        <ele>17</ele>
        <time>2018-07-18T11:39:14Z</time>
      </trkpt>
      <trkpt lat="47.79573" lon="-3.71625">
        <ele>17</ele>
        <time>2018-07-18T11:39:15Z</time>
      </trkpt>
      <trkpt lat="47.79572" lon="-3.71623">
        <ele>17</ele>
        <time>2018-07-18T11:39:16Z</time>
      </trkpt>
      <trkpt lat="47.79572" lon="-3.71623">
        <ele>17</ele>
        <time>2018-07-18T11:39:17Z</time>
      </trkpt>
      <trkpt lat="47.79572" lon="-3.71623">
        <ele>17</ele>
        <time>2018-07-18T11:39:18Z</time>
      </trkpt>
      <trkpt lat="47.79572" lon="-3.71623">
        <ele>17</ele>
        <time>2018-07-18T11:39:19Z</time>
      </trkpt>
      <trkpt lat="47.79572" lon="-3.71623">
        <ele>17</ele>
        <time>2018-07-18T11:39:20Z</time>
      </trkpt>
      <trkpt lat="47.79571" lon="-3.71622">
        <ele>17</ele>
        <time>2018-07-18T11:39:21Z</time>
      </trkpt>
      <trkpt lat="47.7957" lon="-3.7162">
        <ele>16</ele>
        <time>2018-07-18T11:39:22Z</time>
      </trkpt>
      <trkpt lat="47.79569" lon="-3.71617">
        <ele>16</ele>
        <time>2018-07-18T11:39:23Z</time>
      </trkpt>
      <trkpt lat="47.79567" lon="-3.71613">
        <ele>16</ele>
        <time>2018-07-18T11:39:24Z</time>
      </trkpt>
      <trkpt lat="47.79566" lon="-3.71609">
        <ele>16</ele>
        <time>2018-07-18T11:39:25Z</time>
      </trkpt>
      <trkpt lat="47.79565" lon="-3.71603">
        <ele>16</ele>
        <time>2018-07-18T11:39:26Z</time>
      </trkpt>
      <trkpt lat="47.79564" lon="-3.71599">
        <ele>16</ele>
        <time>2018-07-18T11:39:27Z</time>
      </trkpt>
      <trkpt lat="47.79564" lon="-3.71594">
        <ele>16</ele>
        <time>2018-07-18T11:39:28Z</time>
      </trkpt>
      <trkpt lat="47.79565" lon="-3.71589">
        <ele>16</ele>
        <time>2018-07-18T11:39:29Z</time>
      </trkpt>
      <trkpt lat="47.79565" lon="-3.71585">
        <ele>16</ele>
        <time>2018-07-18T11:39:30Z</time>
      </trkpt>
      <trkpt lat="47.79565" lon="-3.7158">
        <ele>17</ele>
        <time>2018-07-18T11:39:31Z</time>
      </trkpt>
      <trkpt lat="47.79565" lon="-3.71576">
        <ele>17</ele>
        <time>2018-07-18T11:39:32Z</time>
      </trkpt>
      <trkpt lat="47.79565" lon="-3.71571">
        <ele>17</ele>
        <time>2018-07-18T11:39:33Z</time>
      </trkpt>
      <trkpt lat="47.79565" lon="-3.71567">
        <ele>17</ele>
        <time>2018-07-18T11:39:34Z</time>
      </trkpt>
      <trkpt lat="47.79565" lon="-3.71563">
        <ele>17</ele>
        <time>2018-07-18T11:39:35Z</time>
      </trkpt>
      <trkpt lat="47.79564" lon="-3.7156">
        <ele>18</ele>
        <time>2018-07-18T11:39:36Z</time>
      </trkpt>
      <trkpt lat="47.79564" lon="-3.71557">
        <ele>18</ele>
        <time>2018-07-18T11:39:37Z</time>
      </trkpt>
      <trkpt lat="47.79562" lon="-3.71556">
        <ele>17</ele>
        <time>2018-07-18T11:39:38Z</time>
      </trkpt>
      <trkpt lat="47.79561" lon="-3.71555">
        <ele>17</ele>
        <time>2018-07-18T11:39:39Z</time>
      </trkpt>
      <trkpt lat="47.7956" lon="-3.71555">
        <ele>17</ele>
        <time>2018-07-18T11:39:40Z</time>
      </trkpt>
      <trkpt lat="47.79559" lon="-3.71556">
        <ele>17</ele>
        <time>2018-07-18T11:39:41Z</time>
      </trkpt>
      <trkpt lat="47.79558" lon="-3.71556">
        <ele>17</ele>
        <time>2018-07-18T11:39:42Z</time>
      </trkpt>
      <trkpt lat="47.79556" lon="-3.71556">
        <ele>17</ele>
        <time>2018-07-18T11:39:43Z</time>
      </trkpt>
      <trkpt lat="47.79554" lon="-3.71555">
        <ele>16</ele>
        <time>2018-07-18T11:39:44Z</time>
      </trkpt>
      <trkpt lat="47.79552" lon="-3.71554">
        <ele>16</ele>
        <time>2018-07-18T11:39:45Z</time>
      </trkpt>
      <trkpt lat="47.79552" lon="-3.71551">
        <ele>16</ele>
        <time>2018-07-18T11:39:46Z</time>
      </trkpt>
      <trkpt lat="47.79551" lon="-3.71548">
        <ele>16</ele>
        <time>2018-07-18T11:39:47Z</time>
      </trkpt>
      <trkpt lat="47.79551" lon="-3.71545">
        <ele>15</ele>
        <time>2018-07-18T11:39:48Z</time>
      </trkpt>
      <trkpt lat="47.7955" lon="-3.7154">
        <ele>15</ele>
        <time>2018-07-18T11:39:49Z</time>
      </trkpt>
      <trkpt lat="47.7955" lon="-3.71535">
        <ele>15</ele>
        <time>2018-07-18T11:39:50Z</time>
      </trkpt>
      <trkpt lat="47.7955" lon="-3.7153">
        <ele>15</ele>
        <time>2018-07-18T11:39:51Z</time>
      </trkpt>
      <trkpt lat="47.79549" lon="-3.71527">
        <ele>15</ele>
        <time>2018-07-18T11:39:52Z</time>
      </trkpt>
      <trkpt lat="47.79547" lon="-3.71523">
        <ele>15</ele>
        <time>2018-07-18T11:39:53Z</time>
      </trkpt>
      <trkpt lat="47.79545" lon="-3.7152">
        <ele>15</ele>
        <time>2018-07-18T11:39:54Z</time>
      </trkpt>
      <trkpt lat="47.79544" lon="-3.71516">
        <ele>15</ele>
        <time>2018-07-18T11:39:55Z</time>
      </trkpt>
      <trkpt lat="47.79542" lon="-3.71511">
        <ele>16</ele>
        <time>2018-07-18T11:39:56Z</time>
      </trkpt>
      <trkpt lat="47.7954" lon="-3.71507">
        <ele>16</ele>
        <time>2018-07-18T11:39:57Z</time>
      </trkpt>
      <trkpt lat="47.79537" lon="-3.71504">
        <ele>16</ele>
        <time>2018-07-18T11:39:58Z</time>
      </trkpt>
      <trkpt lat="47.79535" lon="-3.715">
        <ele>16</ele>
        <time>2018-07-18T11:39:59Z</time>
      </trkpt>
      <trkpt lat="47.79532" lon="-3.71496">
        <ele>16</ele>
        <time>2018-07-18T11:40:00Z</time>
      </trkpt>
      <trkpt lat="47.7953" lon="-3.71491">
        <ele>16</ele>
        <time>2018-07-18T11:40:01Z</time>
      </trkpt>
      <trkpt lat="47.79527" lon="-3.71487">
        <ele>16</ele>
        <time>2018-07-18T11:40:02Z</time>
      </trkpt>
      <trkpt lat="47.79524" lon="-3.71483">
        <ele>16</ele>
        <time>2018-07-18T11:40:03Z</time>
      </trkpt>
      <trkpt lat="47.79522" lon="-3.71477">
        <ele>16</ele>
        <time>2018-07-18T11:40:04Z</time>
      </trkpt>
      <trkpt lat="47.79519" lon="-3.71472">
        <ele>16</ele>
        <time>2018-07-18T11:40:05Z</time>
      </trkpt>
      <trkpt lat="47.79518" lon="-3.71467">
        <ele>16</ele>
        <time>2018-07-18T11:40:06Z</time>
      </trkpt>
      <trkpt lat="47.79516" lon="-3.71461">
        <ele>16</ele>
        <time>2018-07-18T11:40:07Z</time>
      </trkpt>
      <trkpt lat="47.79515" lon="-3.71455">
        <ele>16</ele>
        <time>2018-07-18T11:40:08Z</time>
      </trkpt>
      <trkpt lat="47.79516" lon="-3.7145">
        <ele>16</ele>
        <time>2018-07-18T11:40:09Z</time>
      </trkpt>
      <trkpt lat="47.79516" lon="-3.71445">
        <ele>16</ele>
        <time>2018-07-18T11:40:10Z</time>
      </trkpt>
      <trkpt lat="47.79515" lon="-3.71441">
        <ele>16</ele>
        <time>2018-07-18T11:40:11Z</time>
      </trkpt>
      <trkpt lat="47.79513" lon="-3.71437">
        <ele>16</ele>
        <time>2018-07-18T11:40:12Z</time>
      </trkpt>
      <trkpt lat="47.79511" lon="-3.71433">
        <ele>15</ele>
        <time>2018-07-18T11:40:13Z</time>
      </trkpt>
      <trkpt lat="47.79509" lon="-3.71429">
        <ele>15</ele>
        <time>2018-07-18T11:40:14Z</time>
      </trkpt>
      <trkpt lat="47.79506" lon="-3.71427">
        <ele>15</ele>
        <time>2018-07-18T11:40:15Z</time>
      </trkpt>
      <trkpt lat="47.79502" lon="-3.71426">
        <ele>15</ele>
        <time>2018-07-18T11:40:16Z</time>
      </trkpt>
      <trkpt lat="47.79499" lon="-3.71426">
        <ele>15</ele>
        <time>2018-07-18T11:40:17Z</time>
      </trkpt>
      <trkpt lat="47.79495" lon="-3.71427">
        <ele>14</ele>
        <time>2018-07-18T11:40:18Z</time>
      </trkpt>
      <trkpt lat="47.7949" lon="-3.71426">
        <ele>14</ele>
        <time>2018-07-18T11:40:19Z</time>
      </trkpt>
      <trkpt lat="47.79486" lon="-3.71426">
        <ele>14</ele>
        <time>2018-07-18T11:40:20Z</time>
      </trkpt>
      <trkpt lat="47.79482" lon="-3.71426">
        <ele>13</ele>
        <time>2018-07-18T11:40:21Z</time>
      </trkpt>
      <trkpt lat="47.79476" lon="-3.71427">
        <ele>13</ele>
        <time>2018-07-18T11:40:22Z</time>
      </trkpt>
      <trkpt lat="47.79471" lon="-3.71427">
        <ele>12</ele>
        <time>2018-07-18T11:40:23Z</time>
      </trkpt>
      <trkpt lat="47.79466" lon="-3.71426">
        <ele>12</ele>
        <time>2018-07-18T11:40:24Z</time>
      </trkpt>
      <trkpt lat="47.79461" lon="-3.71425">
        <ele>12</ele>
        <time>2018-07-18T11:40:25Z</time>
      </trkpt>
      <trkpt lat="47.79457" lon="-3.71423">
        <ele>12</ele>
        <time>2018-07-18T11:40:26Z</time>
      </trkpt>
      <trkpt lat="47.79454" lon="-3.7142">
        <ele>12</ele>
        <time>2018-07-18T11:40:27Z</time>
      </trkpt>
      <trkpt lat="47.79451" lon="-3.71417">
        <ele>11</ele>
        <time>2018-07-18T11:40:28Z</time>
      </trkpt>
      <trkpt lat="47.79447" lon="-3.71413">
        <ele>11</ele>
        <time>2018-07-18T11:40:29Z</time>
      </trkpt>
      <trkpt lat="47.79444" lon="-3.71408">
        <ele>11</ele>
        <time>2018-07-18T11:40:30Z</time>
      </trkpt>
      <trkpt lat="47.79441" lon="-3.71404">
        <ele>11</ele>
        <time>2018-07-18T11:40:31Z</time>
      </trkpt>
      <trkpt lat="47.79438" lon="-3.714">
        <ele>11</ele>
        <time>2018-07-18T11:40:32Z</time>
      </trkpt>
      <trkpt lat="47.79436" lon="-3.71394">
        <ele>11</ele>
        <time>2018-07-18T11:40:33Z</time>
      </trkpt>
      <trkpt lat="47.79433" lon="-3.71389">
        <ele>11</ele>
        <time>2018-07-18T11:40:34Z</time>
      </trkpt>
      <trkpt lat="47.7943" lon="-3.71386">
        <ele>11</ele>
        <time>2018-07-18T11:40:35Z</time>
      </trkpt>
      <trkpt lat="47.79426" lon="-3.71384">
        <ele>11</ele>
        <time>2018-07-18T11:40:36Z</time>
      </trkpt>
      <trkpt lat="47.79422" lon="-3.71382">
        <ele>10</ele>
        <time>2018-07-18T11:40:37Z</time>
      </trkpt>
      <trkpt lat="47.79418" lon="-3.71379">
        <ele>10</ele>
        <time>2018-07-18T11:40:38Z</time>
      </trkpt>
      <trkpt lat="47.79415" lon="-3.71376">
        <ele>10</ele>
        <time>2018-07-18T11:40:39Z</time>
      </trkpt>
      <trkpt lat="47.79413" lon="-3.71371">
        <ele>10</ele>
        <time>2018-07-18T11:40:40Z</time>
      </trkpt>
      <trkpt lat="47.79411" lon="-3.71367">
        <ele>10</ele>
        <time>2018-07-18T11:40:41Z</time>
      </trkpt>
      <trkpt lat="47.79411" lon="-3.71363">
        <ele>10</ele>
        <time>2018-07-18T11:40:42Z</time>
      </trkpt>
      <trkpt lat="47.7941" lon="-3.71359">
        <ele>10</ele>
        <time>2018-07-18T11:40:43Z</time>
      </trkpt>
      <trkpt lat="47.79408" lon="-3.71355">
        <ele>10</ele>
        <time>2018-07-18T11:40:44Z</time>
      </trkpt>
      <trkpt lat="47.79407" lon="-3.7135">
        <ele>10</ele>
        <time>2018-07-18T11:40:45Z</time>
      </trkpt>
      <trkpt lat="47.79405" lon="-3.71345">
        <ele>10</ele>
        <time>2018-07-18T11:40:46Z</time>
      </trkpt>
      <trkpt lat="47.79404" lon="-3.7134">
        <ele>10</ele>
        <time>2018-07-18T11:40:47Z</time>
      </trkpt>
      <trkpt lat="47.79403" lon="-3.71334">
        <ele>10</ele>
        <time>2018-07-18T11:40:48Z</time>
      </trkpt>
      <trkpt lat="47.79402" lon="-3.7133">
        <ele>10</ele>
        <time>2018-07-18T11:40:49Z</time>
      </trkpt>
      <trkpt lat="47.79401" lon="-3.71324">
        <ele>10</ele>
        <time>2018-07-18T11:40:50Z</time>
      </trkpt>
      <trkpt lat="47.79399" lon="-3.71319">
        <ele>10</ele>
        <time>2018-07-18T11:40:51Z</time>
      </trkpt>
      <trkpt lat="47.79397" lon="-3.71314">
        <ele>10</ele>
        <time>2018-07-18T11:40:52Z</time>
      </trkpt>
      <trkpt lat="47.79396" lon="-3.71308">
        <ele>10</ele>
        <time>2018-07-18T11:40:53Z</time>
      </trkpt>
      <trkpt lat="47.79396" lon="-3.71302">
        <ele>9</ele>
        <time>2018-07-18T11:40:54Z</time>
      </trkpt>
      <trkpt lat="47.79395" lon="-3.71297">
        <ele>9</ele>
        <time>2018-07-18T11:40:55Z</time>
      </trkpt>
      <trkpt lat="47.79395" lon="-3.71293">
        <ele>9</ele>
        <time>2018-07-18T11:40:56Z</time>
      </trkpt>
      <trkpt lat="47.79394" lon="-3.71288">
        <ele>9</ele>
        <time>2018-07-18T11:40:57Z</time>
      </trkpt>
      <trkpt lat="47.79394" lon="-3.71283">
        <ele>9</ele>
        <time>2018-07-18T11:40:58Z</time>
      </trkpt>
      <trkpt lat="47.79396" lon="-3.71278">
        <ele>8</ele>
        <time>2018-07-18T11:40:59Z</time>
      </trkpt>
      <trkpt lat="47.79397" lon="-3.71273">
        <ele>9</ele>
        <time>2018-07-18T11:41:00Z</time>
      </trkpt>
      <trkpt lat="47.79399" lon="-3.71269">
        <ele>9</ele>
        <time>2018-07-18T11:41:01Z</time>
      </trkpt>
      <trkpt lat="47.79401" lon="-3.71266">
        <ele>9</ele>
        <time>2018-07-18T11:41:02Z</time>
      </trkpt>
      <trkpt lat="47.79404" lon="-3.71263">
        <ele>9</ele>
        <time>2018-07-18T11:41:03Z</time>
      </trkpt>
      <trkpt lat="47.79407" lon="-3.71261">
        <ele>9</ele>
        <time>2018-07-18T11:41:04Z</time>
      </trkpt>
      <trkpt lat="47.7941" lon="-3.71258">
        <ele>10</ele>
        <time>2018-07-18T11:41:05Z</time>
      </trkpt>
      <trkpt lat="47.79413" lon="-3.71256">
        <ele>10</ele>
        <time>2018-07-18T11:41:06Z</time>
      </trkpt>
      <trkpt lat="47.79415" lon="-3.71253">
        <ele>10</ele>
        <time>2018-07-18T11:41:07Z</time>
      </trkpt>
      <trkpt lat="47.79418" lon="-3.71251">
        <ele>11</ele>
        <time>2018-07-18T11:41:08Z</time>
      </trkpt>
      <trkpt lat="47.79421" lon="-3.7125">
        <ele>11</ele>
        <time>2018-07-18T11:41:09Z</time>
      </trkpt>
      <trkpt lat="47.79424" lon="-3.71249">
        <ele>11</ele>
        <time>2018-07-18T11:41:10Z</time>
      </trkpt>
      <trkpt lat="47.79426" lon="-3.71248">
        <ele>11</ele>
        <time>2018-07-18T11:41:11Z</time>
      </trkpt>
      <trkpt lat="47.79428" lon="-3.71245">
        <ele>11</ele>
        <time>2018-07-18T11:41:12Z</time>
      </trkpt>
      <trkpt lat="47.7943" lon="-3.71243">
        <ele>11</ele>
        <time>2018-07-18T11:41:13Z</time>
      </trkpt>
      <trkpt lat="47.79432" lon="-3.7124">
        <ele>11</ele>
        <time>2018-07-18T11:41:14Z</time>
      </trkpt>
      <trkpt lat="47.79433" lon="-3.71239">
        <ele>11</ele>
        <time>2018-07-18T11:41:15Z</time>
      </trkpt>
      <trkpt lat="47.79433" lon="-3.71238">
        <ele>11</ele>
        <time>2018-07-18T11:41:16Z</time>
      </trkpt>
      <trkpt lat="47.79433" lon="-3.71238">
        <ele>11</ele>
        <time>2018-07-18T11:41:17Z</time>
      </trkpt>
      <trkpt lat="47.79433" lon="-3.71237">
        <ele>11</ele>
        <time>2018-07-18T11:41:18Z</time>
      </trkpt>
      <trkpt lat="47.79434" lon="-3.71234">
        <ele>11</ele>
        <time>2018-07-18T11:41:19Z</time>
      </trkpt>
      <trkpt lat="47.79434" lon="-3.71232">
        <ele>11</ele>
        <time>2018-07-18T11:41:20Z</time>
      </trkpt>
      <trkpt lat="47.79433" lon="-3.71229">
        <ele>11</ele>
        <time>2018-07-18T11:41:21Z</time>
      </trkpt>
      <trkpt lat="47.79433" lon="-3.71227">
        <ele>10</ele>
        <time>2018-07-18T11:41:22Z</time>
      </trkpt>
      <trkpt lat="47.79433" lon="-3.71225">
        <ele>10</ele>
        <time>2018-07-18T11:41:23Z</time>
      </trkpt>
      <trkpt lat="47.79434" lon="-3.71223">
        <ele>10</ele>
        <time>2018-07-18T11:41:24Z</time>
      </trkpt>
      <trkpt lat="47.79434" lon="-3.7122">
        <ele>10</ele>
        <time>2018-07-18T11:41:25Z</time>
      </trkpt>
      <trkpt lat="47.79433" lon="-3.71217">
        <ele>9</ele>
        <time>2018-07-18T11:41:26Z</time>
      </trkpt>
      <trkpt lat="47.79433" lon="-3.71213">
        <ele>9</ele>
        <time>2018-07-18T11:41:27Z</time>
      </trkpt>
      <trkpt lat="47.79431" lon="-3.7121">
        <ele>9</ele>
        <time>2018-07-18T11:41:28Z</time>
      </trkpt>
      <trkpt lat="47.79431" lon="-3.71207">
        <ele>8</ele>
        <time>2018-07-18T11:41:29Z</time>
      </trkpt>
      <trkpt lat="47.79431" lon="-3.71203">
        <ele>8</ele>
        <time>2018-07-18T11:41:30Z</time>
      </trkpt>
      <trkpt lat="47.79431" lon="-3.71198">
        <ele>8</ele>
        <time>2018-07-18T11:41:31Z</time>
      </trkpt>
      <trkpt lat="47.7943" lon="-3.71195">
        <ele>8</ele>
        <time>2018-07-18T11:41:32Z</time>
      </trkpt>
      <trkpt lat="47.79428" lon="-3.71193">
        <ele>7</ele>
        <time>2018-07-18T11:41:33Z</time>
      </trkpt>
      <trkpt lat="47.79427" lon="-3.71192">
        <ele>7</ele>
        <time>2018-07-18T11:41:34Z</time>
      </trkpt>
      <trkpt lat="47.79424" lon="-3.71189">
        <ele>7</ele>
        <time>2018-07-18T11:41:35Z</time>
      </trkpt>
      <trkpt lat="47.79421" lon="-3.71189">
        <ele>7</ele>
        <time>2018-07-18T11:41:36Z</time>
      </trkpt>
      <trkpt lat="47.79421" lon="-3.71189">
        <ele>7</ele>
        <time>2018-07-18T11:41:37Z</time>
      </trkpt>
      <trkpt lat="47.79415" lon="-3.7119">
        <ele>7</ele>
        <time>2018-07-18T11:41:38Z</time>
      </trkpt>
      <trkpt lat="47.79413" lon="-3.7119">
        <ele>7</ele>
        <time>2018-07-18T11:41:39Z</time>
      </trkpt>
      <trkpt lat="47.79411" lon="-3.71191">
        <ele>7</ele>
        <time>2018-07-18T11:41:40Z</time>
      </trkpt>
      <trkpt lat="47.79409" lon="-3.71191">
        <ele>7</ele>
        <time>2018-07-18T11:41:41Z</time>
      </trkpt>
      <trkpt lat="47.79407" lon="-3.7119">
        <ele>7</ele>
        <time>2018-07-18T11:41:42Z</time>
      </trkpt>
      <trkpt lat="47.79406" lon="-3.71188">
        <ele>7</ele>
        <time>2018-07-18T11:41:43Z</time>
      </trkpt>
      <trkpt lat="47.79404" lon="-3.71187">
        <ele>7</ele>
        <time>2018-07-18T11:41:44Z</time>
      </trkpt>
      <trkpt lat="47.79404" lon="-3.71185">
        <ele>7</ele>
        <time>2018-07-18T11:41:45Z</time>
      </trkpt>
      <trkpt lat="47.79403" lon="-3.71183">
        <ele>7</ele>
        <time>2018-07-18T11:41:46Z</time>
      </trkpt>
      <trkpt lat="47.79402" lon="-3.71181">
        <ele>8</ele>
        <time>2018-07-18T11:41:47Z</time>
      </trkpt>
      <trkpt lat="47.79401" lon="-3.71179">
        <ele>8</ele>
        <time>2018-07-18T11:41:48Z</time>
      </trkpt>
      <trkpt lat="47.794" lon="-3.71178">
        <ele>8</ele>
        <time>2018-07-18T11:41:49Z</time>
      </trkpt>
      <trkpt lat="47.79399" lon="-3.71175">
        <ele>8</ele>
        <time>2018-07-18T11:41:50Z</time>
      </trkpt>
      <trkpt lat="47.79397" lon="-3.71173">
        <ele>8</ele>
        <time>2018-07-18T11:41:51Z</time>
      </trkpt>
      <trkpt lat="47.79395" lon="-3.71172">
        <ele>8</ele>
        <time>2018-07-18T11:41:52Z</time>
      </trkpt>
      <trkpt lat="47.79393" lon="-3.7117">
        <ele>8</ele>
        <time>2018-07-18T11:41:53Z</time>
      </trkpt>
      <trkpt lat="47.7939" lon="-3.71168">
        <ele>8</ele>
        <time>2018-07-18T11:41:54Z</time>
      </trkpt>
      <trkpt lat="47.79388" lon="-3.71165">
        <ele>8</ele>
        <time>2018-07-18T11:41:55Z</time>
      </trkpt>
      <trkpt lat="47.79386" lon="-3.71162">
        <ele>8</ele>
        <time>2018-07-18T11:41:56Z</time>
      </trkpt>
      <trkpt lat="47.79384" lon="-3.71159">
        <ele>8</ele>
        <time>2018-07-18T11:41:57Z</time>
      </trkpt>
      <trkpt lat="47.79382" lon="-3.71155">
        <ele>8</ele>
        <time>2018-07-18T11:41:58Z</time>
      </trkpt>
      <trkpt lat="47.7938" lon="-3.71152">
        <ele>8</ele>
        <time>2018-07-18T11:41:59Z</time>
      </trkpt>
      <trkpt lat="47.79379" lon="-3.71147">
        <ele>8</ele>
        <time>2018-07-18T11:42:00Z</time>
      </trkpt>
      <trkpt lat="47.79377" lon="-3.71143">
        <ele>8</ele>
        <time>2018-07-18T11:42:01Z</time>
      </trkpt>
      <trkpt lat="47.79376" lon="-3.71139">
        <ele>8</ele>
        <time>2018-07-18T11:42:02Z</time>
      </trkpt>
      <trkpt lat="47.79374" lon="-3.71135">
        <ele>8</ele>
        <time>2018-07-18T11:42:03Z</time>
      </trkpt>
      <trkpt lat="47.79373" lon="-3.7113">
        <ele>9</ele>
        <time>2018-07-18T11:42:04Z</time>
      </trkpt>
      <trkpt lat="47.79371" lon="-3.71126">
        <ele>9</ele>
        <time>2018-07-18T11:42:05Z</time>
      </trkpt>
      <trkpt lat="47.7937" lon="-3.71121">
        <ele>9</ele>
        <time>2018-07-18T11:42:06Z</time>
      </trkpt>
      <trkpt lat="47.79368" lon="-3.71117">
        <ele>9</ele>
        <time>2018-07-18T11:42:07Z</time>
      </trkpt>
      <trkpt lat="47.79366" lon="-3.71113">
        <ele>9</ele>
        <time>2018-07-18T11:42:08Z</time>
      </trkpt>
      <trkpt lat="47.79364" lon="-3.71108">
        <ele>9</ele>
        <time>2018-07-18T11:42:09Z</time>
      </trkpt>
      <trkpt lat="47.79362" lon="-3.71103">
        <ele>9</ele>
        <time>2018-07-18T11:42:10Z</time>
      </trkpt>
      <trkpt lat="47.7936" lon="-3.71099">
        <ele>9</ele>
        <time>2018-07-18T11:42:11Z</time>
      </trkpt>
      <trkpt lat="47.79357" lon="-3.71096">
        <ele>9</ele>
        <time>2018-07-18T11:42:12Z</time>
      </trkpt>
      <trkpt lat="47.79354" lon="-3.71092">
        <ele>9</ele>
        <time>2018-07-18T11:42:13Z</time>
      </trkpt>
      <trkpt lat="47.79352" lon="-3.71088">
        <ele>9</ele>
        <time>2018-07-18T11:42:14Z</time>
      </trkpt>
      <trkpt lat="47.79349" lon="-3.71085">
        <ele>9</ele>
        <time>2018-07-18T11:42:15Z</time>
      </trkpt>
      <trkpt lat="47.79345" lon="-3.71083">
        <ele>9</ele>
        <time>2018-07-18T11:42:16Z</time>
      </trkpt>
      <trkpt lat="47.79341" lon="-3.71082">
        <ele>9</ele>
        <time>2018-07-18T11:42:17Z</time>
      </trkpt>
      <trkpt lat="47.79338" lon="-3.7108">
        <ele>9</ele>
        <time>2018-07-18T11:42:18Z</time>
      </trkpt>
      <trkpt lat="47.79335" lon="-3.71077">
        <ele>9</ele>
        <time>2018-07-18T11:42:19Z</time>
      </trkpt>
      <trkpt lat="47.79333" lon="-3.71073">
        <ele>9</ele>
        <time>2018-07-18T11:42:20Z</time>
      </trkpt>
      <trkpt lat="47.79331" lon="-3.7107">
        <ele>9</ele>
        <time>2018-07-18T11:42:21Z</time>
      </trkpt>
      <trkpt lat="47.79329" lon="-3.71067">
        <ele>9</ele>
        <time>2018-07-18T11:42:22Z</time>
      </trkpt>
      <trkpt lat="47.79328" lon="-3.71063">
        <ele>9</ele>
        <time>2018-07-18T11:42:23Z</time>
      </trkpt>
      <trkpt lat="47.79326" lon="-3.7106">
        <ele>10</ele>
        <time>2018-07-18T11:42:24Z</time>
      </trkpt>
      <trkpt lat="47.79323" lon="-3.71056">
        <ele>9</ele>
        <time>2018-07-18T11:42:25Z</time>
      </trkpt>
      <trkpt lat="47.79321" lon="-3.71052">
        <ele>9</ele>
        <time>2018-07-18T11:42:26Z</time>
      </trkpt>
      <trkpt lat="47.79318" lon="-3.71049">
        <ele>9</ele>
        <time>2018-07-18T11:42:27Z</time>
      </trkpt>
      <trkpt lat="47.79315" lon="-3.71047">
        <ele>10</ele>
        <time>2018-07-18T11:42:28Z</time>
      </trkpt>
      <trkpt lat="47.79311" lon="-3.71044">
        <ele>10</ele>
        <time>2018-07-18T11:42:29Z</time>
      </trkpt>
      <trkpt lat="47.79308" lon="-3.71042">
        <ele>10</ele>
        <time>2018-07-18T11:42:30Z</time>
      </trkpt>
      <trkpt lat="47.79304" lon="-3.7104">
        <ele>9</ele>
        <time>2018-07-18T11:42:31Z</time>
      </trkpt>
      <trkpt lat="47.79301" lon="-3.71039">
        <ele>9</ele>
        <time>2018-07-18T11:42:32Z</time>
      </trkpt>
      <trkpt lat="47.79297" lon="-3.71037">
        <ele>9</ele>
        <time>2018-07-18T11:42:33Z</time>
      </trkpt>
      <trkpt lat="47.79295" lon="-3.71034">
        <ele>9</ele>
        <time>2018-07-18T11:42:34Z</time>
      </trkpt>
      <trkpt lat="47.79292" lon="-3.71031">
        <ele>10</ele>
        <time>2018-07-18T11:42:35Z</time>
      </trkpt>
      <trkpt lat="47.79289" lon="-3.71027">
        <ele>10</ele>
        <time>2018-07-18T11:42:36Z</time>
      </trkpt>
      <trkpt lat="47.79285" lon="-3.71025">
        <ele>10</ele>
        <time>2018-07-18T11:42:37Z</time>
      </trkpt>
      <trkpt lat="47.79282" lon="-3.71022">
        <ele>10</ele>
        <time>2018-07-18T11:42:38Z</time>
      </trkpt>
      <trkpt lat="47.79279" lon="-3.7102">
        <ele>10</ele>
        <time>2018-07-18T11:42:39Z</time>
      </trkpt>
      <trkpt lat="47.79275" lon="-3.71017">
        <ele>10</ele>
        <time>2018-07-18T11:42:40Z</time>
      </trkpt>
      <trkpt lat="47.79271" lon="-3.71014">
        <ele>10</ele>
        <time>2018-07-18T11:42:41Z</time>
      </trkpt>
      <trkpt lat="47.79268" lon="-3.71011">
        <ele>10</ele>
        <time>2018-07-18T11:42:42Z</time>
      </trkpt>
      <trkpt lat="47.79264" lon="-3.71009">
        <ele>10</ele>
        <time>2018-07-18T11:42:43Z</time>
      </trkpt>
      <trkpt lat="47.7926" lon="-3.71006">
        <ele>10</ele>
        <time>2018-07-18T11:42:44Z</time>
      </trkpt>
      <trkpt lat="47.79257" lon="-3.71004">
        <ele>10</ele>
        <time>2018-07-18T11:42:45Z</time>
      </trkpt>
      <trkpt lat="47.79253" lon="-3.71001">
        <ele>10</ele>
        <time>2018-07-18T11:42:46Z</time>
      </trkpt>
      <trkpt lat="47.7925" lon="-3.70998">
        <ele>10</ele>
        <time>2018-07-18T11:42:47Z</time>
      </trkpt>
      <trkpt lat="47.79246" lon="-3.70995">
        <ele>10</ele>
        <time>2018-07-18T11:42:48Z</time>
      </trkpt>
      <trkpt lat="47.79243" lon="-3.70991">
        <ele>10</ele>
        <time>2018-07-18T11:42:49Z</time>
      </trkpt>
      <trkpt lat="47.79239" lon="-3.70988">
        <ele>10</ele>
        <time>2018-07-18T11:42:50Z</time>
      </trkpt>
      <trkpt lat="47.79236" lon="-3.70984">
        <ele>10</ele>
        <time>2018-07-18T11:42:51Z</time>
      </trkpt>
      <trkpt lat="47.79233" lon="-3.7098">
        <ele>10</ele>
        <time>2018-07-18T11:42:52Z</time>
      </trkpt>
      <trkpt lat="47.79231" lon="-3.70975">
        <ele>10</ele>
        <time>2018-07-18T11:42:53Z</time>
      </trkpt>
      <trkpt lat="47.79229" lon="-3.70969">
        <ele>10</ele>
        <time>2018-07-18T11:42:54Z</time>
      </trkpt>
      <trkpt lat="47.79228" lon="-3.70964">
        <ele>10</ele>
        <time>2018-07-18T11:42:55Z</time>
      </trkpt>
      <trkpt lat="47.79227" lon="-3.70958">
        <ele>10</ele>
        <time>2018-07-18T11:42:56Z</time>
      </trkpt>
      <trkpt lat="47.79225" lon="-3.70952">
        <ele>10</ele>
        <time>2018-07-18T11:42:57Z</time>
      </trkpt>
      <trkpt lat="47.79223" lon="-3.70947">
        <ele>10</ele>
        <time>2018-07-18T11:42:58Z</time>
      </trkpt>
      <trkpt lat="47.7922" lon="-3.70943">
        <ele>10</ele>
        <time>2018-07-18T11:42:59Z</time>
      </trkpt>
      <trkpt lat="47.79216" lon="-3.7094">
        <ele>10</ele>
        <time>2018-07-18T11:43:00Z</time>
      </trkpt>
      <trkpt lat="47.79213" lon="-3.70936">
        <ele>10</ele>
        <time>2018-07-18T11:43:01Z</time>
      </trkpt>
      <trkpt lat="47.7921" lon="-3.70932">
        <ele>10</ele>
        <time>2018-07-18T11:43:02Z</time>
      </trkpt>
      <trkpt lat="47.79207" lon="-3.70927">
        <ele>9</ele>
        <time>2018-07-18T11:43:03Z</time>
      </trkpt>
      <trkpt lat="47.79203" lon="-3.70923">
        <ele>9</ele>
        <time>2018-07-18T11:43:04Z</time>
      </trkpt>
      <trkpt lat="47.792" lon="-3.70917">
        <ele>9</ele>
        <time>2018-07-18T11:43:05Z</time>
      </trkpt>
      <trkpt lat="47.79199" lon="-3.70911">
        <ele>9</ele>
        <time>2018-07-18T11:43:06Z</time>
      </trkpt>
      <trkpt lat="47.79198" lon="-3.70905">
        <ele>9</ele>
        <time>2018-07-18T11:43:07Z</time>
      </trkpt>
      <trkpt lat="47.79198" lon="-3.70899">
        <ele>9</ele>
        <time>2018-07-18T11:43:08Z</time>
      </trkpt>
      <trkpt lat="47.79199" lon="-3.70893">
        <ele>9</ele>
        <time>2018-07-18T11:43:09Z</time>
      </trkpt>
      <trkpt lat="47.79199" lon="-3.70886">
        <ele>9</ele>
        <time>2018-07-18T11:43:10Z</time>
      </trkpt>
      <trkpt lat="47.792" lon="-3.7088">
        <ele>9</ele>
        <time>2018-07-18T11:43:11Z</time>
      </trkpt>
      <trkpt lat="47.79202" lon="-3.70875">
        <ele>9</ele>
        <time>2018-07-18T11:43:12Z</time>
      </trkpt>
      <trkpt lat="47.79204" lon="-3.70869">
        <ele>9</ele>
        <time>2018-07-18T11:43:13Z</time>
      </trkpt>
      <trkpt lat="47.79204" lon="-3.70863">
        <ele>9</ele>
        <time>2018-07-18T11:43:14Z</time>
      </trkpt>
      <trkpt lat="47.79205" lon="-3.70856">
        <ele>9</ele>
        <time>2018-07-18T11:43:15Z</time>
      </trkpt>
      <trkpt lat="47.79206" lon="-3.70849">
        <ele>9</ele>
        <time>2018-07-18T11:43:16Z</time>
      </trkpt>
      <trkpt lat="47.79207" lon="-3.70842">
        <ele>8</ele>
        <time>2018-07-18T11:43:17Z</time>
      </trkpt>
      <trkpt lat="47.79207" lon="-3.70837">
        <ele>8</ele>
        <time>2018-07-18T11:43:18Z</time>
      </trkpt>
      <trkpt lat="47.79207" lon="-3.70834">
        <ele>8</ele>
        <time>2018-07-18T11:43:19Z</time>
      </trkpt>
      <trkpt lat="47.79207" lon="-3.70834">
        <ele>8</ele>
        <time>2018-07-18T11:43:20Z</time>
      </trkpt>
      <trkpt lat="47.79207" lon="-3.70834">
        <ele>8</ele>
        <time>2018-07-18T11:43:21Z</time>
      </trkpt>
      <trkpt lat="47.79207" lon="-3.70834">
        <ele>8</ele>
        <time>2018-07-18T11:43:22Z</time>
      </trkpt>
      <trkpt lat="47.79208" lon="-3.70833">
        <ele>8</ele>
        <time>2018-07-18T11:43:23Z</time>
      </trkpt>
      <trkpt lat="47.79208" lon="-3.70831">
        <ele>8</ele>
        <time>2018-07-18T11:43:24Z</time>
      </trkpt>
      <trkpt lat="47.79207" lon="-3.7083">
        <ele>8</ele>
        <time>2018-07-18T11:43:25Z</time>
      </trkpt>
      <trkpt lat="47.79207" lon="-3.70829">
        <ele>8</ele>
        <time>2018-07-18T11:43:26Z</time>
      </trkpt>
      <trkpt lat="47.79207" lon="-3.70829">
        <ele>8</ele>
        <time>2018-07-18T11:43:27Z</time>
      </trkpt>
      <trkpt lat="47.79208" lon="-3.70828">
        <ele>7</ele>
        <time>2018-07-18T11:43:28Z</time>
      </trkpt>
      <trkpt lat="47.79208" lon="-3.70827">
        <ele>7</ele>
        <time>2018-07-18T11:43:29Z</time>
      </trkpt>
      <trkpt lat="47.79208" lon="-3.70826">
        <ele>7</ele>
        <time>2018-07-18T11:43:30Z</time>
      </trkpt>
      <trkpt lat="47.79208" lon="-3.70824">
        <ele>7</ele>
        <time>2018-07-18T11:43:31Z</time>
      </trkpt>
      <trkpt lat="47.79208" lon="-3.70823">
        <ele>7</ele>
        <time>2018-07-18T11:43:32Z</time>
      </trkpt>
      <trkpt lat="47.79209" lon="-3.70822">
        <ele>7</ele>
        <time>2018-07-18T11:43:33Z</time>
      </trkpt>
      <trkpt lat="47.79209" lon="-3.7082">
        <ele>6</ele>
        <time>2018-07-18T11:43:34Z</time>
      </trkpt>
      <trkpt lat="47.79209" lon="-3.70819">
        <ele>6</ele>
        <time>2018-07-18T11:43:35Z</time>
      </trkpt>
      <trkpt lat="47.79209" lon="-3.70818">
        <ele>6</ele>
        <time>2018-07-18T11:43:36Z</time>
      </trkpt>
      <trkpt lat="47.79209" lon="-3.70816">
        <ele>6</ele>
        <time>2018-07-18T11:43:37Z</time>
      </trkpt>
      <trkpt lat="47.79209" lon="-3.70816">
        <ele>6</ele>
        <time>2018-07-18T11:43:38Z</time>
      </trkpt>
      <trkpt lat="47.79209" lon="-3.70816">
        <ele>6</ele>
        <time>2018-07-18T11:43:39Z</time>
      </trkpt>
      <trkpt lat="47.79209" lon="-3.70815">
        <ele>6</ele>
        <time>2018-07-18T11:43:40Z</time>
      </trkpt>
      <trkpt lat="47.79208" lon="-3.70813">
        <ele>6</ele>
        <time>2018-07-18T11:43:41Z</time>
      </trkpt>
      <trkpt lat="47.79208" lon="-3.70811">
        <ele>6</ele>
        <time>2018-07-18T11:43:42Z</time>
      </trkpt>
      <trkpt lat="47.79208" lon="-3.70808">
        <ele>6</ele>
        <time>2018-07-18T11:43:43Z</time>
      </trkpt>
      <trkpt lat="47.79208" lon="-3.70805">
        <ele>6</ele>
        <time>2018-07-18T11:43:44Z</time>
      </trkpt>
      <trkpt lat="47.79207" lon="-3.70804">
        <ele>6</ele>
        <time>2018-07-18T11:43:45Z</time>
      </trkpt>
      <trkpt lat="47.79207" lon="-3.70802">
        <ele>6</ele>
        <time>2018-07-18T11:43:46Z</time>
      </trkpt>
      <trkpt lat="47.79205" lon="-3.70801">
        <ele>6</ele>
        <time>2018-07-18T11:43:47Z</time>
      </trkpt>
      <trkpt lat="47.79203" lon="-3.70802">
        <ele>6</ele>
        <time>2018-07-18T11:43:48Z</time>
      </trkpt>
      <trkpt lat="47.792" lon="-3.70802">
        <ele>6</ele>
        <time>2018-07-18T11:43:49Z</time>
      </trkpt>
      <trkpt lat="47.79199" lon="-3.70803">
        <ele>6</ele>
        <time>2018-07-18T11:43:50Z</time>
      </trkpt>
      <trkpt lat="47.79197" lon="-3.70804">
        <ele>6</ele>
        <time>2018-07-18T11:43:51Z</time>
      </trkpt>
      <trkpt lat="47.79196" lon="-3.70804">
        <ele>6</ele>
        <time>2018-07-18T11:43:52Z</time>
      </trkpt>
      <trkpt lat="47.79194" lon="-3.70804">
        <ele>6</ele>
        <time>2018-07-18T11:43:53Z</time>
      </trkpt>
      <trkpt lat="47.79194" lon="-3.70804">
        <ele>6</ele>
        <time>2018-07-18T11:43:54Z</time>
      </trkpt>
      <trkpt lat="47.79194" lon="-3.70804">
        <ele>7</ele>
        <time>2018-07-18T11:43:55Z</time>
      </trkpt>
      <trkpt lat="47.79193" lon="-3.70804">
        <ele>7</ele>
        <time>2018-07-18T11:43:56Z</time>
      </trkpt>
      <trkpt lat="47.79193" lon="-3.70804">
        <ele>7</ele>
        <time>2018-07-18T11:43:57Z</time>
      </trkpt>
      <trkpt lat="47.79192" lon="-3.70804">
        <ele>7</ele>
        <time>2018-07-18T11:43:58Z</time>
      </trkpt>
      <trkpt lat="47.79192" lon="-3.70804">
        <ele>7</ele>
        <time>2018-07-18T11:43:59Z</time>
      </trkpt>
      <trkpt lat="47.79191" lon="-3.70805">
        <ele>7</ele>
        <time>2018-07-18T11:44:00Z</time>
      </trkpt>
      <trkpt lat="47.7919" lon="-3.70805">
        <ele>7</ele>
        <time>2018-07-18T11:44:01Z</time>
      </trkpt>
      <trkpt lat="47.7919" lon="-3.70805">
        <ele>7</ele>
        <time>2018-07-18T11:44:02Z</time>
      </trkpt>
      <trkpt lat="47.79189" lon="-3.70807">
        <ele>7</ele>
        <time>2018-07-18T11:44:03Z</time>
      </trkpt>
      <trkpt lat="47.79188" lon="-3.70808">
        <ele>7</ele>
        <time>2018-07-18T11:44:04Z</time>
      </trkpt>
      <trkpt lat="47.79187" lon="-3.70809">
        <ele>7</ele>
        <time>2018-07-18T11:44:05Z</time>
      </trkpt>
      <trkpt lat="47.79186" lon="-3.7081">
        <ele>7</ele>
        <time>2018-07-18T11:44:06Z</time>
      </trkpt>
      <trkpt lat="47.79185" lon="-3.70811">
        <ele>7</ele>
        <time>2018-07-18T11:44:07Z</time>
      </trkpt>
      <trkpt lat="47.79184" lon="-3.70811">
        <ele>7</ele>
        <time>2018-07-18T11:44:08Z</time>
      </trkpt>
      <trkpt lat="47.79183" lon="-3.70811">
        <ele>8</ele>
        <time>2018-07-18T11:44:09Z</time>
      </trkpt>
      <trkpt lat="47.79182" lon="-3.70811">
        <ele>8</ele>
        <time>2018-07-18T11:44:10Z</time>
      </trkpt>
      <trkpt lat="47.79181" lon="-3.7081">
        <ele>8</ele>
        <time>2018-07-18T11:44:11Z</time>
      </trkpt>
      <trkpt lat="47.7918" lon="-3.70811">
        <ele>8</ele>
        <time>2018-07-18T11:44:12Z</time>
      </trkpt>
      <trkpt lat="47.79179" lon="-3.70811">
        <ele>8</ele>
        <time>2018-07-18T11:44:13Z</time>
      </trkpt>
      <trkpt lat="47.79178" lon="-3.70811">
        <ele>8</ele>
        <time>2018-07-18T11:44:14Z</time>
      </trkpt>
      <trkpt lat="47.79177" lon="-3.70811">
        <ele>8</ele>
        <time>2018-07-18T11:44:15Z</time>
      </trkpt>
      <trkpt lat="47.79177" lon="-3.70811">
        <ele>8</ele>
        <time>2018-07-18T11:44:16Z</time>
      </trkpt>
      <trkpt lat="47.79176" lon="-3.70811">
        <ele>9</ele>
        <time>2018-07-18T11:44:17Z</time>
      </trkpt>
      <trkpt lat="47.79176" lon="-3.7081">
        <ele>9</ele>
        <time>2018-07-18T11:44:18Z</time>
      </trkpt>
      <trkpt lat="47.79175" lon="-3.70809">
        <ele>9</ele>
        <time>2018-07-18T11:44:19Z</time>
      </trkpt>
      <trkpt lat="47.79174" lon="-3.70809">
        <ele>9</ele>
        <time>2018-07-18T11:44:20Z</time>
      </trkpt>
      <trkpt lat="47.79174" lon="-3.70809">
        <ele>9</ele>
        <time>2018-07-18T11:44:21Z</time>
      </trkpt>
      <trkpt lat="47.79173" lon="-3.70809">
        <ele>10</ele>
        <time>2018-07-18T11:44:22Z</time>
      </trkpt>
      <trkpt lat="47.79172" lon="-3.70809">
        <ele>10</ele>
        <time>2018-07-18T11:44:23Z</time>
      </trkpt>
      <trkpt lat="47.79171" lon="-3.70808">
        <ele>10</ele>
        <time>2018-07-18T11:44:24Z</time>
      </trkpt>
      <trkpt lat="47.7917" lon="-3.70808">
        <ele>10</ele>
        <time>2018-07-18T11:44:25Z</time>
      </trkpt>
      <trkpt lat="47.79169" lon="-3.70808">
        <ele>10</ele>
        <time>2018-07-18T11:44:26Z</time>
      </trkpt>
      <trkpt lat="47.79168" lon="-3.70808">
        <ele>10</ele>
        <time>2018-07-18T11:44:27Z</time>
      </trkpt>
      <trkpt lat="47.79167" lon="-3.70808">
        <ele>11</ele>
        <time>2018-07-18T11:44:28Z</time>
      </trkpt>
      <trkpt lat="47.79167" lon="-3.70807">
        <ele>11</ele>
        <time>2018-07-18T11:44:29Z</time>
      </trkpt>
      <trkpt lat="47.79167" lon="-3.70808">
        <ele>11</ele>
        <time>2018-07-18T11:44:30Z</time>
      </trkpt>
      <trkpt lat="47.79166" lon="-3.70808">
        <ele>11</ele>
        <time>2018-07-18T11:44:31Z</time>
      </trkpt>
      <trkpt lat="47.79166" lon="-3.70808">
        <ele>11</ele>
        <time>2018-07-18T11:44:32Z</time>
      </trkpt>
      <trkpt lat="47.79165" lon="-3.70808">
        <ele>10</ele>
        <time>2018-07-18T11:44:33Z</time>
      </trkpt>
      <trkpt lat="47.79164" lon="-3.70808">
        <ele>10</ele>
        <time>2018-07-18T11:44:34Z</time>
      </trkpt>
      <trkpt lat="47.79162" lon="-3.70808">
        <ele>10</ele>
        <time>2018-07-18T11:44:35Z</time>
      </trkpt>
      <trkpt lat="47.7916" lon="-3.70809">
        <ele>10</ele>
        <time>2018-07-18T11:44:36Z</time>
      </trkpt>
      <trkpt lat="47.79158" lon="-3.70811">
        <ele>10</ele>
        <time>2018-07-18T11:44:37Z</time>
      </trkpt>
      <trkpt lat="47.79156" lon="-3.70813">
        <ele>10</ele>
        <time>2018-07-18T11:44:38Z</time>
      </trkpt>
      <trkpt lat="47.79154" lon="-3.70816">
        <ele>10</ele>
        <time>2018-07-18T11:44:39Z</time>
      </trkpt>
      <trkpt lat="47.79151" lon="-3.70818">
        <ele>10</ele>
        <time>2018-07-18T11:44:40Z</time>
      </trkpt>
      <trkpt lat="47.79149" lon="-3.7082">
        <ele>10</ele>
        <time>2018-07-18T11:44:41Z</time>
      </trkpt>
      <trkpt lat="47.79145" lon="-3.70821">
        <ele>10</ele>
        <time>2018-07-18T11:44:42Z</time>
      </trkpt>
      <trkpt lat="47.79142" lon="-3.70822">
        <ele>10</ele>
        <time>2018-07-18T11:44:43Z</time>
      </trkpt>
      <trkpt lat="47.79139" lon="-3.70823">
        <ele>10</ele>
        <time>2018-07-18T11:44:44Z</time>
      </trkpt>
      <trkpt lat="47.79136" lon="-3.70823">
        <ele>9</ele>
        <time>2018-07-18T11:44:45Z</time>
      </trkpt>
      <trkpt lat="47.79132" lon="-3.70824">
        <ele>9</ele>
        <time>2018-07-18T11:44:46Z</time>
      </trkpt>
      <trkpt lat="47.79128" lon="-3.70824">
        <ele>9</ele>
        <time>2018-07-18T11:44:47Z</time>
      </trkpt>
      <trkpt lat="47.79124" lon="-3.70824">
        <ele>9</ele>
        <time>2018-07-18T11:44:48Z</time>
      </trkpt>
      <trkpt lat="47.7912" lon="-3.70824">
        <ele>9</ele>
        <time>2018-07-18T11:44:49Z</time>
      </trkpt>
      <trkpt lat="47.79117" lon="-3.70822">
        <ele>9</ele>
        <time>2018-07-18T11:44:50Z</time>
      </trkpt>
      <trkpt lat="47.79113" lon="-3.7082">
        <ele>9</ele>
        <time>2018-07-18T11:44:51Z</time>
      </trkpt>
      <trkpt lat="47.79109" lon="-3.70818">
        <ele>9</ele>
        <time>2018-07-18T11:44:52Z</time>
      </trkpt>
      <trkpt lat="47.79106" lon="-3.70816">
        <ele>9</ele>
        <time>2018-07-18T11:44:53Z</time>
      </trkpt>
      <trkpt lat="47.79104" lon="-3.70813">
        <ele>9</ele>
        <time>2018-07-18T11:44:54Z</time>
      </trkpt>
      <trkpt lat="47.79102" lon="-3.70811">
        <ele>9</ele>
        <time>2018-07-18T11:44:55Z</time>
      </trkpt>
      <trkpt lat="47.791" lon="-3.70808">
        <ele>9</ele>
        <time>2018-07-18T11:44:56Z</time>
      </trkpt>
      <trkpt lat="47.79098" lon="-3.70805">
        <ele>9</ele>
        <time>2018-07-18T11:44:57Z</time>
      </trkpt>
      <trkpt lat="47.79097" lon="-3.70802">
        <ele>9</ele>
        <time>2018-07-18T11:44:58Z</time>
      </trkpt>
      <trkpt lat="47.79096" lon="-3.70798">
        <ele>10</ele>
        <time>2018-07-18T11:44:59Z</time>
      </trkpt>
      <trkpt lat="47.79094" lon="-3.70795">
        <ele>10</ele>
        <time>2018-07-18T11:45:00Z</time>
      </trkpt>
      <trkpt lat="47.79093" lon="-3.70791">
        <ele>10</ele>
        <time>2018-07-18T11:45:01Z</time>
      </trkpt>
      <trkpt lat="47.79091" lon="-3.70787">
        <ele>10</ele>
        <time>2018-07-18T11:45:02Z</time>
      </trkpt>
      <trkpt lat="47.79089" lon="-3.70783">
        <ele>10</ele>
        <time>2018-07-18T11:45:03Z</time>
      </trkpt>
      <trkpt lat="47.79088" lon="-3.70778">
        <ele>10</ele>
        <time>2018-07-18T11:45:04Z</time>
      </trkpt>
      <trkpt lat="47.79086" lon="-3.70774">
        <ele>10</ele>
        <time>2018-07-18T11:45:05Z</time>
      </trkpt>
      <trkpt lat="47.79085" lon="-3.70769">
        <ele>10</ele>
        <time>2018-07-18T11:45:06Z</time>
      </trkpt>
      <trkpt lat="47.79084" lon="-3.70765">
        <ele>10</ele>
        <time>2018-07-18T11:45:07Z</time>
      </trkpt>
      <trkpt lat="47.79082" lon="-3.7076">
        <ele>10</ele>
        <time>2018-07-18T11:45:08Z</time>
      </trkpt>
      <trkpt lat="47.79081" lon="-3.70756">
        <ele>11</ele>
        <time>2018-07-18T11:45:09Z</time>
      </trkpt>
      <trkpt lat="47.79079" lon="-3.70751">
        <ele>11</ele>
        <time>2018-07-18T11:45:10Z</time>
      </trkpt>
      <trkpt lat="47.79077" lon="-3.70747">
        <ele>11</ele>
        <time>2018-07-18T11:45:11Z</time>
      </trkpt>
      <trkpt lat="47.79075" lon="-3.70742">
        <ele>11</ele>
        <time>2018-07-18T11:45:12Z</time>
      </trkpt>
      <trkpt lat="47.79075" lon="-3.70737">
        <ele>11</ele>
        <time>2018-07-18T11:45:13Z</time>
      </trkpt>
      <trkpt lat="47.79075" lon="-3.70732">
        <ele>11</ele>
        <time>2018-07-18T11:45:14Z</time>
      </trkpt>
      <trkpt lat="47.79075" lon="-3.70727">
        <ele>11</ele>
        <time>2018-07-18T11:45:15Z</time>
      </trkpt>
      <trkpt lat="47.79075" lon="-3.70722">
        <ele>11</ele>
        <time>2018-07-18T11:45:16Z</time>
      </trkpt>
      <trkpt lat="47.79076" lon="-3.70716">
        <ele>11</ele>
        <time>2018-07-18T11:45:17Z</time>
      </trkpt>
      <trkpt lat="47.79076" lon="-3.70711">
        <ele>11</ele>
        <time>2018-07-18T11:45:18Z</time>
      </trkpt>
      <trkpt lat="47.79076" lon="-3.70705">
        <ele>11</ele>
        <time>2018-07-18T11:45:19Z</time>
      </trkpt>
      <trkpt lat="47.79076" lon="-3.70699">
        <ele>11</ele>
        <time>2018-07-18T11:45:20Z</time>
      </trkpt>
      <trkpt lat="47.79076" lon="-3.70693">
        <ele>12</ele>
        <time>2018-07-18T11:45:21Z</time>
      </trkpt>
      <trkpt lat="47.79077" lon="-3.70687">
        <ele>12</ele>
        <time>2018-07-18T11:45:22Z</time>
      </trkpt>
      <trkpt lat="47.79077" lon="-3.70681">
        <ele>12</ele>
        <time>2018-07-18T11:45:23Z</time>
      </trkpt>
      <trkpt lat="47.79077" lon="-3.70675">
        <ele>12</ele>
        <time>2018-07-18T11:45:24Z</time>
      </trkpt>
      <trkpt lat="47.79077" lon="-3.7067">
        <ele>12</ele>
        <time>2018-07-18T11:45:25Z</time>
      </trkpt>
      <trkpt lat="47.79076" lon="-3.70665">
        <ele>12</ele>
        <time>2018-07-18T11:45:26Z</time>
      </trkpt>
      <trkpt lat="47.79075" lon="-3.70659">
        <ele>12</ele>
        <time>2018-07-18T11:45:27Z</time>
      </trkpt>
      <trkpt lat="47.79073" lon="-3.70653">
        <ele>12</ele>
        <time>2018-07-18T11:45:28Z</time>
      </trkpt>
      <trkpt lat="47.79072" lon="-3.70647">
        <ele>11</ele>
        <time>2018-07-18T11:45:29Z</time>
      </trkpt>
      <trkpt lat="47.7907" lon="-3.70642">
        <ele>11</ele>
        <time>2018-07-18T11:45:30Z</time>
      </trkpt>
      <trkpt lat="47.79067" lon="-3.70637">
        <ele>11</ele>
        <time>2018-07-18T11:45:31Z</time>
      </trkpt>
      <trkpt lat="47.79064" lon="-3.70633">
        <ele>11</ele>
        <time>2018-07-18T11:45:32Z</time>
      </trkpt>
      <trkpt lat="47.7906" lon="-3.70628">
        <ele>10</ele>
        <time>2018-07-18T11:45:33Z</time>
      </trkpt>
      <trkpt lat="47.79057" lon="-3.70624">
        <ele>10</ele>
        <time>2018-07-18T11:45:34Z</time>
      </trkpt>
      <trkpt lat="47.79054" lon="-3.70619">
        <ele>10</ele>
        <time>2018-07-18T11:45:35Z</time>
      </trkpt>
      <trkpt lat="47.79052" lon="-3.70614">
        <ele>9</ele>
        <time>2018-07-18T11:45:36Z</time>
      </trkpt>
      <trkpt lat="47.79051" lon="-3.70608">
        <ele>9</ele>
        <time>2018-07-18T11:45:37Z</time>
      </trkpt>
      <trkpt lat="47.79051" lon="-3.70604">
        <ele>8</ele>
        <time>2018-07-18T11:45:38Z</time>
      </trkpt>
      <trkpt lat="47.79053" lon="-3.70601">
        <ele>8</ele>
        <time>2018-07-18T11:45:39Z</time>
      </trkpt>
      <trkpt lat="47.79055" lon="-3.70597">
        <ele>8</ele>
        <time>2018-07-18T11:45:40Z</time>
      </trkpt>
      <trkpt lat="47.79058" lon="-3.70592">
        <ele>8</ele>
        <time>2018-07-18T11:45:41Z</time>
      </trkpt>
      <trkpt lat="47.7906" lon="-3.70587">
        <ele>8</ele>
        <time>2018-07-18T11:45:42Z</time>
      </trkpt>
      <trkpt lat="47.79062" lon="-3.70581">
        <ele>7</ele>
        <time>2018-07-18T11:45:43Z</time>
      </trkpt>
      <trkpt lat="47.79065" lon="-3.70575">
        <ele>7</ele>
        <time>2018-07-18T11:45:44Z</time>
      </trkpt>
      <trkpt lat="47.79066" lon="-3.70569">
        <ele>7</ele>
        <time>2018-07-18T11:45:45Z</time>
      </trkpt>
      <trkpt lat="47.79066" lon="-3.70564">
        <ele>7</ele>
        <time>2018-07-18T11:45:46Z</time>
      </trkpt>
      <trkpt lat="47.79065" lon="-3.70559">
        <ele>7</ele>
        <time>2018-07-18T11:45:47Z</time>
      </trkpt>
      <trkpt lat="47.79063" lon="-3.70555">
        <ele>7</ele>
        <time>2018-07-18T11:45:48Z</time>
      </trkpt>
      <trkpt lat="47.79062" lon="-3.7055">
        <ele>7</ele>
        <time>2018-07-18T11:45:49Z</time>
      </trkpt>
      <trkpt lat="47.7906" lon="-3.70546">
        <ele>7</ele>
        <time>2018-07-18T11:45:50Z</time>
      </trkpt>
      <trkpt lat="47.79058" lon="-3.70544">
        <ele>7</ele>
        <time>2018-07-18T11:45:51Z</time>
      </trkpt>
      <trkpt lat="47.79055" lon="-3.70544">
        <ele>7</ele>
        <time>2018-07-18T11:45:52Z</time>
      </trkpt>
      <trkpt lat="47.79052" lon="-3.70545">
        <ele>7</ele>
        <time>2018-07-18T11:45:53Z</time>
      </trkpt>
      <trkpt lat="47.79049" lon="-3.70545">
        <ele>7</ele>
        <time>2018-07-18T11:45:54Z</time>
      </trkpt>
      <trkpt lat="47.79046" lon="-3.70546">
        <ele>7</ele>
        <time>2018-07-18T11:45:55Z</time>
      </trkpt>
      <trkpt lat="47.79042" lon="-3.70546">
        <ele>7</ele>
        <time>2018-07-18T11:45:56Z</time>
      </trkpt>
      <trkpt lat="47.79039" lon="-3.70546">
        <ele>7</ele>
        <time>2018-07-18T11:45:57Z</time>
      </trkpt>
      <trkpt lat="47.79036" lon="-3.70546">
        <ele>7</ele>
        <time>2018-07-18T11:45:58Z</time>
      </trkpt>
      <trkpt lat="47.79033" lon="-3.70546">
        <ele>7</ele>
        <time>2018-07-18T11:45:59Z</time>
      </trkpt>
      <trkpt lat="47.7903" lon="-3.70545">
        <ele>7</ele>
        <time>2018-07-18T11:46:00Z</time>
      </trkpt>
      <trkpt lat="47.79029" lon="-3.70545">
        <ele>7</ele>
        <time>2018-07-18T11:46:01Z</time>
      </trkpt>
      <trkpt lat="47.79027" lon="-3.70545">
        <ele>8</ele>
        <time>2018-07-18T11:46:02Z</time>
      </trkpt>
      <trkpt lat="47.79026" lon="-3.70545">
        <ele>8</ele>
        <time>2018-07-18T11:46:03Z</time>
      </trkpt>
      <trkpt lat="47.79024" lon="-3.70543">
        <ele>8</ele>
        <time>2018-07-18T11:46:04Z</time>
      </trkpt>
      <trkpt lat="47.79023" lon="-3.70542">
        <ele>8</ele>
        <time>2018-07-18T11:46:05Z</time>
      </trkpt>
      <trkpt lat="47.79022" lon="-3.7054">
        <ele>9</ele>
        <time>2018-07-18T11:46:06Z</time>
      </trkpt>
      <trkpt lat="47.7902" lon="-3.70539">
        <ele>9</ele>
        <time>2018-07-18T11:46:07Z</time>
      </trkpt>
      <trkpt lat="47.79019" lon="-3.70539">
        <ele>9</ele>
        <time>2018-07-18T11:46:08Z</time>
      </trkpt>
      <trkpt lat="47.79018" lon="-3.70539">
        <ele>9</ele>
        <time>2018-07-18T11:46:09Z</time>
      </trkpt>
      <trkpt lat="47.79017" lon="-3.7054">
        <ele>9</ele>
        <time>2018-07-18T11:46:10Z</time>
      </trkpt>
      <trkpt lat="47.79016" lon="-3.70541">
        <ele>10</ele>
        <time>2018-07-18T11:46:11Z</time>
      </trkpt>
      <trkpt lat="47.79015" lon="-3.70541">
        <ele>10</ele>
        <time>2018-07-18T11:46:12Z</time>
      </trkpt>
      <trkpt lat="47.79014" lon="-3.70541">
        <ele>10</ele>
        <time>2018-07-18T11:46:13Z</time>
      </trkpt>
      <trkpt lat="47.79013" lon="-3.70542">
        <ele>10</ele>
        <time>2018-07-18T11:46:14Z</time>
      </trkpt>
      <trkpt lat="47.79011" lon="-3.70542">
        <ele>10</ele>
        <time>2018-07-18T11:46:15Z</time>
      </trkpt>
      <trkpt lat="47.79009" lon="-3.70542">
        <ele>10</ele>
        <time>2018-07-18T11:46:16Z</time>
      </trkpt>
      <trkpt lat="47.79006" lon="-3.70543">
        <ele>10</ele>
        <time>2018-07-18T11:46:17Z</time>
      </trkpt>
      <trkpt lat="47.79003" lon="-3.70542">
        <ele>10</ele>
        <time>2018-07-18T11:46:18Z</time>
      </trkpt>
      <trkpt lat="47.79001" lon="-3.70542">
        <ele>10</ele>
        <time>2018-07-18T11:46:19Z</time>
      </trkpt>
      <trkpt lat="47.78999" lon="-3.7054">
        <ele>10</ele>
        <time>2018-07-18T11:46:20Z</time>
      </trkpt>
      <trkpt lat="47.78996" lon="-3.70538">
        <ele>10</ele>
        <time>2018-07-18T11:46:21Z</time>
      </trkpt>
      <trkpt lat="47.78994" lon="-3.70536">
        <ele>10</ele>
        <time>2018-07-18T11:46:22Z</time>
      </trkpt>
      <trkpt lat="47.78993" lon="-3.70534">
        <ele>10</ele>
        <time>2018-07-18T11:46:23Z</time>
      </trkpt>
      <trkpt lat="47.78991" lon="-3.70531">
        <ele>11</ele>
        <time>2018-07-18T11:46:24Z</time>
      </trkpt>
      <trkpt lat="47.7899" lon="-3.70527">
        <ele>11</ele>
        <time>2018-07-18T11:46:25Z</time>
      </trkpt>
      <trkpt lat="47.78989" lon="-3.70524">
        <ele>11</ele>
        <time>2018-07-18T11:46:26Z</time>
      </trkpt>
      <trkpt lat="47.78989" lon="-3.7052">
        <ele>11</ele>
        <time>2018-07-18T11:46:27Z</time>
      </trkpt>
      <trkpt lat="47.78988" lon="-3.70517">
        <ele>11</ele>
        <time>2018-07-18T11:46:28Z</time>
      </trkpt>
      <trkpt lat="47.78987" lon="-3.70513">
        <ele>12</ele>
        <time>2018-07-18T11:46:29Z</time>
      </trkpt>
      <trkpt lat="47.78987" lon="-3.7051">
        <ele>12</ele>
        <time>2018-07-18T11:46:30Z</time>
      </trkpt>
      <trkpt lat="47.78986" lon="-3.70506">
        <ele>12</ele>
        <time>2018-07-18T11:46:31Z</time>
      </trkpt>
      <trkpt lat="47.78985" lon="-3.70502">
        <ele>12</ele>
        <time>2018-07-18T11:46:32Z</time>
      </trkpt>
      <trkpt lat="47.78985" lon="-3.70498">
        <ele>13</ele>
        <time>2018-07-18T11:46:33Z</time>
      </trkpt>
      <trkpt lat="47.78984" lon="-3.70494">
        <ele>13</ele>
        <time>2018-07-18T11:46:34Z</time>
      </trkpt>
      <trkpt lat="47.78983" lon="-3.7049">
        <ele>13</ele>
        <time>2018-07-18T11:46:35Z</time>
      </trkpt>
      <trkpt lat="47.78981" lon="-3.70486">
        <ele>13</ele>
        <time>2018-07-18T11:46:36Z</time>
      </trkpt>
      <trkpt lat="47.7898" lon="-3.70483">
        <ele>14</ele>
        <time>2018-07-18T11:46:37Z</time>
      </trkpt>
      <trkpt lat="47.78978" lon="-3.7048">
        <ele>14</ele>
        <time>2018-07-18T11:46:38Z</time>
      </trkpt>
      <trkpt lat="47.78976" lon="-3.70476">
        <ele>14</ele>
        <time>2018-07-18T11:46:39Z</time>
      </trkpt>
      <trkpt lat="47.78974" lon="-3.70473">
        <ele>14</ele>
        <time>2018-07-18T11:46:40Z</time>
      </trkpt>
      <trkpt lat="47.78972" lon="-3.7047">
        <ele>14</ele>
        <time>2018-07-18T11:46:41Z</time>
      </trkpt>
      <trkpt lat="47.7897" lon="-3.70466">
        <ele>15</ele>
        <time>2018-07-18T11:46:42Z</time>
      </trkpt>
      <trkpt lat="47.78969" lon="-3.70462">
        <ele>15</ele>
        <time>2018-07-18T11:46:43Z</time>
      </trkpt>
      <trkpt lat="47.78967" lon="-3.70459">
        <ele>15</ele>
        <time>2018-07-18T11:46:44Z</time>
      </trkpt>
      <trkpt lat="47.78966" lon="-3.70455">
        <ele>15</ele>
        <time>2018-07-18T11:46:45Z</time>
      </trkpt>
      <trkpt lat="47.78964" lon="-3.70451">
        <ele>16</ele>
        <time>2018-07-18T11:46:46Z</time>
      </trkpt>
      <trkpt lat="47.78963" lon="-3.70447">
        <ele>16</ele>
        <time>2018-07-18T11:46:47Z</time>
      </trkpt>
      <trkpt lat="47.78961" lon="-3.70443">
        <ele>16</ele>
        <time>2018-07-18T11:46:48Z</time>
      </trkpt>
      <trkpt lat="47.7896" lon="-3.7044">
        <ele>16</ele>
        <time>2018-07-18T11:46:49Z</time>
      </trkpt>
      <trkpt lat="47.78958" lon="-3.70436">
        <ele>17</ele>
        <time>2018-07-18T11:46:50Z</time>
      </trkpt>
      <trkpt lat="47.78957" lon="-3.70432">
        <ele>17</ele>
        <time>2018-07-18T11:46:51Z</time>
      </trkpt>
      <trkpt lat="47.78955" lon="-3.70429">
        <ele>17</ele>
        <time>2018-07-18T11:46:52Z</time>
      </trkpt>
      <trkpt lat="47.78954" lon="-3.70425">
        <ele>17</ele>
        <time>2018-07-18T11:46:53Z</time>
      </trkpt>
      <trkpt lat="47.78952" lon="-3.70421">
        <ele>18</ele>
        <time>2018-07-18T11:46:54Z</time>
      </trkpt>
      <trkpt lat="47.78951" lon="-3.70418">
        <ele>18</ele>
        <time>2018-07-18T11:46:55Z</time>
      </trkpt>
      <trkpt lat="47.78949" lon="-3.70414">
        <ele>18</ele>
        <time>2018-07-18T11:46:56Z</time>
      </trkpt>
      <trkpt lat="47.78947" lon="-3.70411">
        <ele>19</ele>
        <time>2018-07-18T11:46:57Z</time>
      </trkpt>
      <trkpt lat="47.78945" lon="-3.70408">
        <ele>19</ele>
        <time>2018-07-18T11:46:58Z</time>
      </trkpt>
      <trkpt lat="47.78944" lon="-3.70405">
        <ele>19</ele>
        <time>2018-07-18T11:46:59Z</time>
      </trkpt>
      <trkpt lat="47.78941" lon="-3.70403">
        <ele>19</ele>
        <time>2018-07-18T11:47:00Z</time>
      </trkpt>
      <trkpt lat="47.78939" lon="-3.70401">
        <ele>19</ele>
        <time>2018-07-18T11:47:01Z</time>
      </trkpt>
      <trkpt lat="47.78937" lon="-3.70398">
        <ele>19</ele>
        <time>2018-07-18T11:47:02Z</time>
      </trkpt>
      <trkpt lat="47.78935" lon="-3.70395">
        <ele>19</ele>
        <time>2018-07-18T11:47:03Z</time>
      </trkpt>
      <trkpt lat="47.78934" lon="-3.70392">
        <ele>19</ele>
        <time>2018-07-18T11:47:04Z</time>
      </trkpt>
      <trkpt lat="47.78933" lon="-3.7039">
        <ele>19</ele>
        <time>2018-07-18T11:47:05Z</time>
      </trkpt>
      <trkpt lat="47.78933" lon="-3.70389">
        <ele>19</ele>
        <time>2018-07-18T11:47:06Z</time>
      </trkpt>
      <trkpt lat="47.78933" lon="-3.70388">
        <ele>19</ele>
        <time>2018-07-18T11:47:07Z</time>
      </trkpt>
      <trkpt lat="47.78933" lon="-3.70388">
        <ele>19</ele>
        <time>2018-07-18T11:47:08Z</time>
      </trkpt>
      <trkpt lat="47.78933" lon="-3.70388">
        <ele>19</ele>
        <time>2018-07-18T11:47:09Z</time>
      </trkpt>
      <trkpt lat="47.78932" lon="-3.70388">
        <ele>19</ele>
        <time>2018-07-18T11:47:10Z</time>
      </trkpt>
      <trkpt lat="47.78932" lon="-3.70387">
        <ele>19</ele>
        <time>2018-07-18T11:47:11Z</time>
      </trkpt>
      <trkpt lat="47.78931" lon="-3.70386">
        <ele>19</ele>
        <time>2018-07-18T11:47:12Z</time>
      </trkpt>
      <trkpt lat="47.7893" lon="-3.70384">
        <ele>19</ele>
        <time>2018-07-18T11:47:13Z</time>
      </trkpt>
      <trkpt lat="47.78928" lon="-3.70382">
        <ele>19</ele>
        <time>2018-07-18T11:47:14Z</time>
      </trkpt>
      <trkpt lat="47.78927" lon="-3.7038">
        <ele>19</ele>
        <time>2018-07-18T11:47:15Z</time>
      </trkpt>
      <trkpt lat="47.78925" lon="-3.70378">
        <ele>19</ele>
        <time>2018-07-18T11:47:16Z</time>
      </trkpt>
      <trkpt lat="47.78923" lon="-3.70377">
        <ele>19</ele>
        <time>2018-07-18T11:47:17Z</time>
      </trkpt>
      <trkpt lat="47.78921" lon="-3.70375">
        <ele>19</ele>
        <time>2018-07-18T11:47:18Z</time>
      </trkpt>
      <trkpt lat="47.78918" lon="-3.70374">
        <ele>19</ele>
        <time>2018-07-18T11:47:19Z</time>
      </trkpt>
      <trkpt lat="47.78916" lon="-3.70372">
        <ele>18</ele>
        <time>2018-07-18T11:47:20Z</time>
      </trkpt>
      <trkpt lat="47.78914" lon="-3.70372">
        <ele>18</ele>
        <time>2018-07-18T11:47:21Z</time>
      </trkpt>
      <trkpt lat="47.78912" lon="-3.70369">
        <ele>18</ele>
        <time>2018-07-18T11:47:22Z</time>
      </trkpt>
      <trkpt lat="47.78911" lon="-3.70366">
        <ele>18</ele>
        <time>2018-07-18T11:47:23Z</time>
      </trkpt>
      <trkpt lat="47.78909" lon="-3.70363">
        <ele>18</ele>
        <time>2018-07-18T11:47:24Z</time>
      </trkpt>
      <trkpt lat="47.78907" lon="-3.7036">
        <ele>17</ele>
        <time>2018-07-18T11:47:25Z</time>
      </trkpt>
      <trkpt lat="47.78905" lon="-3.70357">
        <ele>17</ele>
        <time>2018-07-18T11:47:26Z</time>
      </trkpt>
      <trkpt lat="47.78901" lon="-3.70355">
        <ele>17</ele>
        <time>2018-07-18T11:47:27Z</time>
      </trkpt>
      <trkpt lat="47.78899" lon="-3.70353">
        <ele>17</ele>
        <time>2018-07-18T11:47:28Z</time>
      </trkpt>
      <trkpt lat="47.78896" lon="-3.70351">
        <ele>16</ele>
        <time>2018-07-18T11:47:29Z</time>
      </trkpt>
      <trkpt lat="47.78893" lon="-3.70349">
        <ele>16</ele>
        <time>2018-07-18T11:47:30Z</time>
      </trkpt>
      <trkpt lat="47.7889" lon="-3.70346">
        <ele>16</ele>
        <time>2018-07-18T11:47:31Z</time>
      </trkpt>
      <trkpt lat="47.78887" lon="-3.70342">
        <ele>16</ele>
        <time>2018-07-18T11:47:32Z</time>
      </trkpt>
      <trkpt lat="47.78885" lon="-3.70337">
        <ele>15</ele>
        <time>2018-07-18T11:47:33Z</time>
      </trkpt>
      <trkpt lat="47.78883" lon="-3.70331">
        <ele>15</ele>
        <time>2018-07-18T11:47:34Z</time>
      </trkpt>
      <trkpt lat="47.78882" lon="-3.70326">
        <ele>15</ele>
        <time>2018-07-18T11:47:35Z</time>
      </trkpt>
      <trkpt lat="47.7888" lon="-3.70322">
        <ele>15</ele>
        <time>2018-07-18T11:47:36Z</time>
      </trkpt>
      <trkpt lat="47.78879" lon="-3.70317">
        <ele>15</ele>
        <time>2018-07-18T11:47:37Z</time>
      </trkpt>
      <trkpt lat="47.78877" lon="-3.70313">
        <ele>15</ele>
        <time>2018-07-18T11:47:38Z</time>
      </trkpt>
      <trkpt lat="47.78875" lon="-3.70309">
        <ele>15</ele>
        <time>2018-07-18T11:47:39Z</time>
      </trkpt>
      <trkpt lat="47.78874" lon="-3.70304">
        <ele>14</ele>
        <time>2018-07-18T11:47:40Z</time>
      </trkpt>
      <trkpt lat="47.78872" lon="-3.70299">
        <ele>14</ele>
        <time>2018-07-18T11:47:41Z</time>
      </trkpt>
      <trkpt lat="47.78872" lon="-3.70294">
        <ele>14</ele>
        <time>2018-07-18T11:47:42Z</time>
      </trkpt>
      <trkpt lat="47.78871" lon="-3.70288">
        <ele>14</ele>
        <time>2018-07-18T11:47:43Z</time>
      </trkpt>
      <trkpt lat="47.78871" lon="-3.70283">
        <ele>15</ele>
        <time>2018-07-18T11:47:44Z</time>
      </trkpt>
      <trkpt lat="47.7887" lon="-3.70277">
        <ele>15</ele>
        <time>2018-07-18T11:47:45Z</time>
      </trkpt>
      <trkpt lat="47.7887" lon="-3.70272">
        <ele>15</ele>
        <time>2018-07-18T11:47:46Z</time>
      </trkpt>
      <trkpt lat="47.78869" lon="-3.70266">
        <ele>15</ele>
        <time>2018-07-18T11:47:47Z</time>
      </trkpt>
      <trkpt lat="47.78867" lon="-3.7026">
        <ele>15</ele>
        <time>2018-07-18T11:47:48Z</time>
      </trkpt>
      <trkpt lat="47.78866" lon="-3.70255">
        <ele>15</ele>
        <time>2018-07-18T11:47:49Z</time>
      </trkpt>
      <trkpt lat="47.78864" lon="-3.70249">
        <ele>15</ele>
        <time>2018-07-18T11:47:50Z</time>
      </trkpt>
      <trkpt lat="47.78863" lon="-3.70243">
        <ele>15</ele>
        <time>2018-07-18T11:47:51Z</time>
      </trkpt>
      <trkpt lat="47.78861" lon="-3.70238">
        <ele>15</ele>
        <time>2018-07-18T11:47:52Z</time>
      </trkpt>
      <trkpt lat="47.78859" lon="-3.70233">
        <ele>15</ele>
        <time>2018-07-18T11:47:53Z</time>
      </trkpt>
      <trkpt lat="47.78857" lon="-3.70227">
        <ele>15</ele>
        <time>2018-07-18T11:47:54Z</time>
      </trkpt>
      <trkpt lat="47.78855" lon="-3.70223">
        <ele>15</ele>
        <time>2018-07-18T11:47:55Z</time>
      </trkpt>
      <trkpt lat="47.78851" lon="-3.70218">
        <ele>15</ele>
        <time>2018-07-18T11:47:56Z</time>
      </trkpt>
      <trkpt lat="47.78848" lon="-3.70213">
        <ele>15</ele>
        <time>2018-07-18T11:47:57Z</time>
      </trkpt>
      <trkpt lat="47.78845" lon="-3.70207">
        <ele>14</ele>
        <time>2018-07-18T11:47:58Z</time>
      </trkpt>
      <trkpt lat="47.78841" lon="-3.70201">
        <ele>14</ele>
        <time>2018-07-18T11:47:59Z</time>
      </trkpt>
      <trkpt lat="47.78838" lon="-3.70195">
        <ele>14</ele>
        <time>2018-07-18T11:48:00Z</time>
      </trkpt>
      <trkpt lat="47.78835" lon="-3.7019">
        <ele>14</ele>
        <time>2018-07-18T11:48:01Z</time>
      </trkpt>
      <trkpt lat="47.78833" lon="-3.70186">
        <ele>14</ele>
        <time>2018-07-18T11:48:02Z</time>
      </trkpt>
      <trkpt lat="47.78831" lon="-3.70184">
        <ele>14</ele>
        <time>2018-07-18T11:48:03Z</time>
      </trkpt>
      <trkpt lat="47.7883" lon="-3.70181">
        <ele>13</ele>
        <time>2018-07-18T11:48:04Z</time>
      </trkpt>
      <trkpt lat="47.78829" lon="-3.70178">
        <ele>13</ele>
        <time>2018-07-18T11:48:05Z</time>
      </trkpt>
      <trkpt lat="47.78829" lon="-3.70176">
        <ele>13</ele>
        <time>2018-07-18T11:48:06Z</time>
      </trkpt>
      <trkpt lat="47.78828" lon="-3.70175">
        <ele>13</ele>
        <time>2018-07-18T11:48:07Z</time>
      </trkpt>
      <trkpt lat="47.78828" lon="-3.70174">
        <ele>13</ele>
        <time>2018-07-18T11:48:08Z</time>
      </trkpt>
      <trkpt lat="47.78828" lon="-3.70173">
        <ele>13</ele>
        <time>2018-07-18T11:48:09Z</time>
      </trkpt>
      <trkpt lat="47.78828" lon="-3.70172">
        <ele>13</ele>
        <time>2018-07-18T11:48:10Z</time>
      </trkpt>
      <trkpt lat="47.78829" lon="-3.7017">
        <ele>13</ele>
        <time>2018-07-18T11:48:11Z</time>
      </trkpt>
      <trkpt lat="47.7883" lon="-3.70167">
        <ele>13</ele>
        <time>2018-07-18T11:48:12Z</time>
      </trkpt>
      <trkpt lat="47.78831" lon="-3.70164">
        <ele>13</ele>
        <time>2018-07-18T11:48:13Z</time>
      </trkpt>
      <trkpt lat="47.7883" lon="-3.70159">
        <ele>13</ele>
        <time>2018-07-18T11:48:14Z</time>
      </trkpt>
      <trkpt lat="47.78829" lon="-3.70155">
        <ele>13</ele>
        <time>2018-07-18T11:48:15Z</time>
      </trkpt>
      <trkpt lat="47.78829" lon="-3.7015">
        <ele>13</ele>
        <time>2018-07-18T11:48:16Z</time>
      </trkpt>
      <trkpt lat="47.78827" lon="-3.70145">
        <ele>13</ele>
        <time>2018-07-18T11:48:17Z</time>
      </trkpt>
      <trkpt lat="47.78826" lon="-3.70141">
        <ele>13</ele>
        <time>2018-07-18T11:48:18Z</time>
      </trkpt>
      <trkpt lat="47.78825" lon="-3.70136">
        <ele>14</ele>
        <time>2018-07-18T11:48:19Z</time>
      </trkpt>
      <trkpt lat="47.78824" lon="-3.70131">
        <ele>14</ele>
        <time>2018-07-18T11:48:20Z</time>
      </trkpt>
      <trkpt lat="47.78822" lon="-3.70126">
        <ele>14</ele>
        <time>2018-07-18T11:48:21Z</time>
      </trkpt>
      <trkpt lat="47.78821" lon="-3.70121">
        <ele>14</ele>
        <time>2018-07-18T11:48:22Z</time>
      </trkpt>
      <trkpt lat="47.7882" lon="-3.70116">
        <ele>14</ele>
        <time>2018-07-18T11:48:23Z</time>
      </trkpt>
      <trkpt lat="47.7882" lon="-3.70112">
        <ele>14</ele>
        <time>2018-07-18T11:48:24Z</time>
      </trkpt>
      <trkpt lat="47.78819" lon="-3.70106">
        <ele>14</ele>
        <time>2018-07-18T11:48:25Z</time>
      </trkpt>
      <trkpt lat="47.78818" lon="-3.70101">
        <ele>14</ele>
        <time>2018-07-18T11:48:26Z</time>
      </trkpt>
      <trkpt lat="47.78817" lon="-3.70095">
        <ele>14</ele>
        <time>2018-07-18T11:48:27Z</time>
      </trkpt>
      <trkpt lat="47.78816" lon="-3.7009">
        <ele>14</ele>
        <time>2018-07-18T11:48:28Z</time>
      </trkpt>
      <trkpt lat="47.78815" lon="-3.70084">
        <ele>14</ele>
        <time>2018-07-18T11:48:29Z</time>
      </trkpt>
      <trkpt lat="47.78815" lon="-3.70079">
        <ele>14</ele>
        <time>2018-07-18T11:48:30Z</time>
      </trkpt>
      <trkpt lat="47.78814" lon="-3.70074">
        <ele>14</ele>
        <time>2018-07-18T11:48:31Z</time>
      </trkpt>
      <trkpt lat="47.78813" lon="-3.70069">
        <ele>14</ele>
        <time>2018-07-18T11:48:32Z</time>
      </trkpt>
      <trkpt lat="47.78811" lon="-3.70064">
        <ele>14</ele>
        <time>2018-07-18T11:48:33Z</time>
      </trkpt>
      <trkpt lat="47.7881" lon="-3.7006">
        <ele>14</ele>
        <time>2018-07-18T11:48:34Z</time>
      </trkpt>
      <trkpt lat="47.78809" lon="-3.70057">
        <ele>14</ele>
        <time>2018-07-18T11:48:35Z</time>
      </trkpt>
      <trkpt lat="47.78809" lon="-3.70056">
        <ele>14</ele>
        <time>2018-07-18T11:48:36Z</time>
      </trkpt>
      <trkpt lat="47.78809" lon="-3.70056">
        <ele>15</ele>
        <time>2018-07-18T11:48:37Z</time>
      </trkpt>
      <trkpt lat="47.78808" lon="-3.70056">
        <ele>15</ele>
        <time>2018-07-18T11:48:38Z</time>
      </trkpt>
      <trkpt lat="47.78807" lon="-3.70057">
        <ele>15</ele>
        <time>2018-07-18T11:48:39Z</time>
      </trkpt>
      <trkpt lat="47.78805" lon="-3.70057">
        <ele>15</ele>
        <time>2018-07-18T11:48:40Z</time>
      </trkpt>
      <trkpt lat="47.78803" lon="-3.70057">
        <ele>15</ele>
        <time>2018-07-18T11:48:41Z</time>
      </trkpt>
      <trkpt lat="47.78801" lon="-3.70058">
        <ele>15</ele>
        <time>2018-07-18T11:48:42Z</time>
      </trkpt>
      <trkpt lat="47.78799" lon="-3.7006">
        <ele>15</ele>
        <time>2018-07-18T11:48:43Z</time>
      </trkpt>
      <trkpt lat="47.78796" lon="-3.70063">
        <ele>15</ele>
        <time>2018-07-18T11:48:44Z</time>
      </trkpt>
      <trkpt lat="47.78793" lon="-3.70066">
        <ele>15</ele>
        <time>2018-07-18T11:48:45Z</time>
      </trkpt>
      <trkpt lat="47.7879" lon="-3.70068">
        <ele>15</ele>
        <time>2018-07-18T11:48:46Z</time>
      </trkpt>
      <trkpt lat="47.78787" lon="-3.70069">
        <ele>15</ele>
        <time>2018-07-18T11:48:47Z</time>
      </trkpt>
      <trkpt lat="47.78783" lon="-3.70068">
        <ele>15</ele>
        <time>2018-07-18T11:48:48Z</time>
      </trkpt>
      <trkpt lat="47.7878" lon="-3.70066">
        <ele>15</ele>
        <time>2018-07-18T11:48:49Z</time>
      </trkpt>
      <trkpt lat="47.78776" lon="-3.70064">
        <ele>15</ele>
        <time>2018-07-18T11:48:50Z</time>
      </trkpt>
      <trkpt lat="47.78773" lon="-3.70062">
        <ele>15</ele>
        <time>2018-07-18T11:48:51Z</time>
      </trkpt>
      <trkpt lat="47.78769" lon="-3.7006">
        <ele>15</ele>
        <time>2018-07-18T11:48:52Z</time>
      </trkpt>
      <trkpt lat="47.78765" lon="-3.70057">
        <ele>15</ele>
        <time>2018-07-18T11:48:53Z</time>
      </trkpt>
      <trkpt lat="47.78761" lon="-3.70055">
        <ele>15</ele>
        <time>2018-07-18T11:48:54Z</time>
      </trkpt>
      <trkpt lat="47.78757" lon="-3.70053">
        <ele>15</ele>
        <time>2018-07-18T11:48:55Z</time>
      </trkpt>
      <trkpt lat="47.78753" lon="-3.70049">
        <ele>14</ele>
        <time>2018-07-18T11:48:56Z</time>
      </trkpt>
      <trkpt lat="47.7875" lon="-3.70045">
        <ele>14</ele>
        <time>2018-07-18T11:48:57Z</time>
      </trkpt>
      <trkpt lat="47.78747" lon="-3.7004">
        <ele>14</ele>
        <time>2018-07-18T11:48:58Z</time>
      </trkpt>
      <trkpt lat="47.78745" lon="-3.70035">
        <ele>14</ele>
        <time>2018-07-18T11:48:59Z</time>
      </trkpt>
      <trkpt lat="47.78742" lon="-3.7003">
        <ele>14</ele>
        <time>2018-07-18T11:49:00Z</time>
      </trkpt>
      <trkpt lat="47.78739" lon="-3.70026">
        <ele>14</ele>
        <time>2018-07-18T11:49:01Z</time>
      </trkpt>
      <trkpt lat="47.78737" lon="-3.70022">
        <ele>14</ele>
        <time>2018-07-18T11:49:02Z</time>
      </trkpt>
      <trkpt lat="47.78734" lon="-3.70018">
        <ele>14</ele>
        <time>2018-07-18T11:49:03Z</time>
      </trkpt>
      <trkpt lat="47.7873" lon="-3.70014">
        <ele>14</ele>
        <time>2018-07-18T11:49:04Z</time>
      </trkpt>
      <trkpt lat="47.78726" lon="-3.70011">
        <ele>14</ele>
        <time>2018-07-18T11:49:05Z</time>
      </trkpt>
      <trkpt lat="47.78721" lon="-3.70009">
        <ele>13</ele>
        <time>2018-07-18T11:49:06Z</time>
      </trkpt>
      <trkpt lat="47.78716" lon="-3.70007">
        <ele>13</ele>
        <time>2018-07-18T11:49:07Z</time>
      </trkpt>
      <trkpt lat="47.7871" lon="-3.70005">
        <ele>13</ele>
        <time>2018-07-18T11:49:08Z</time>
      </trkpt>
      <trkpt lat="47.78704" lon="-3.70003">
        <ele>12</ele>
        <time>2018-07-18T11:49:09Z</time>
      </trkpt>
      <trkpt lat="47.78698" lon="-3.70001">
        <ele>12</ele>
        <time>2018-07-18T11:49:10Z</time>
      </trkpt>
      <trkpt lat="47.78692" lon="-3.69999">
        <ele>12</ele>
        <time>2018-07-18T11:49:11Z</time>
      </trkpt>
      <trkpt lat="47.78687" lon="-3.69996">
        <ele>11</ele>
        <time>2018-07-18T11:49:12Z</time>
      </trkpt>
      <trkpt lat="47.78682" lon="-3.6999">
        <ele>11</ele>
        <time>2018-07-18T11:49:13Z</time>
      </trkpt>
      <trkpt lat="47.78678" lon="-3.69984">
        <ele>11</ele>
        <time>2018-07-18T11:49:14Z</time>
      </trkpt>
      <trkpt lat="47.78676" lon="-3.69976">
        <ele>10</ele>
        <time>2018-07-18T11:49:15Z</time>
      </trkpt>
      <trkpt lat="47.78675" lon="-3.6997">
        <ele>10</ele>
        <time>2018-07-18T11:49:16Z</time>
      </trkpt>
      <trkpt lat="47.78675" lon="-3.69964">
        <ele>10</ele>
        <time>2018-07-18T11:49:17Z</time>
      </trkpt>
      <trkpt lat="47.78674" lon="-3.69958">
        <ele>10</ele>
        <time>2018-07-18T11:49:18Z</time>
      </trkpt>
      <trkpt lat="47.78673" lon="-3.69952">
        <ele>10</ele>
        <time>2018-07-18T11:49:19Z</time>
      </trkpt>
      <trkpt lat="47.78671" lon="-3.69948">
        <ele>10</ele>
        <time>2018-07-18T11:49:20Z</time>
      </trkpt>
      <trkpt lat="47.78668" lon="-3.69944">
        <ele>10</ele>
        <time>2018-07-18T11:49:21Z</time>
      </trkpt>
      <trkpt lat="47.78665" lon="-3.69939">
        <ele>10</ele>
        <time>2018-07-18T11:49:22Z</time>
      </trkpt>
      <trkpt lat="47.78664" lon="-3.69933">
        <ele>9</ele>
        <time>2018-07-18T11:49:23Z</time>
      </trkpt>
      <trkpt lat="47.78663" lon="-3.69926">
        <ele>9</ele>
        <time>2018-07-18T11:49:24Z</time>
      </trkpt>
      <trkpt lat="47.78663" lon="-3.69919">
        <ele>9</ele>
        <time>2018-07-18T11:49:25Z</time>
      </trkpt>
      <trkpt lat="47.78664" lon="-3.69912">
        <ele>9</ele>
        <time>2018-07-18T11:49:26Z</time>
      </trkpt>
      <trkpt lat="47.78664" lon="-3.69906">
        <ele>9</ele>
        <time>2018-07-18T11:49:27Z</time>
      </trkpt>
      <trkpt lat="47.78665" lon="-3.69899">
        <ele>9</ele>
        <time>2018-07-18T11:49:28Z</time>
      </trkpt>
      <trkpt lat="47.78665" lon="-3.69893">
        <ele>9</ele>
        <time>2018-07-18T11:49:29Z</time>
      </trkpt>
      <trkpt lat="47.78665" lon="-3.69887">
        <ele>9</ele>
        <time>2018-07-18T11:49:30Z</time>
      </trkpt>
      <trkpt lat="47.78665" lon="-3.69881">
        <ele>9</ele>
        <time>2018-07-18T11:49:31Z</time>
      </trkpt>
      <trkpt lat="47.78664" lon="-3.69875">
        <ele>9</ele>
        <time>2018-07-18T11:49:32Z</time>
      </trkpt>
      <trkpt lat="47.78664" lon="-3.69869">
        <ele>9</ele>
        <time>2018-07-18T11:49:33Z</time>
      </trkpt>
      <trkpt lat="47.78663" lon="-3.69864">
        <ele>9</ele>
        <time>2018-07-18T11:49:34Z</time>
      </trkpt>
      <trkpt lat="47.78662" lon="-3.69858">
        <ele>9</ele>
        <time>2018-07-18T11:49:35Z</time>
      </trkpt>
      <trkpt lat="47.78659" lon="-3.69852">
        <ele>9</ele>
        <time>2018-07-18T11:49:36Z</time>
      </trkpt>
      <trkpt lat="47.78657" lon="-3.69846">
        <ele>9</ele>
        <time>2018-07-18T11:49:37Z</time>
      </trkpt>
      <trkpt lat="47.78655" lon="-3.69841">
        <ele>10</ele>
        <time>2018-07-18T11:49:38Z</time>
      </trkpt>
      <trkpt lat="47.78653" lon="-3.69836">
        <ele>10</ele>
        <time>2018-07-18T11:49:39Z</time>
      </trkpt>
      <trkpt lat="47.7865" lon="-3.69832">
        <ele>10</ele>
        <time>2018-07-18T11:49:40Z</time>
      </trkpt>
      <trkpt lat="47.78647" lon="-3.69828">
        <ele>10</ele>
        <time>2018-07-18T11:49:41Z</time>
      </trkpt>
      <trkpt lat="47.78645" lon="-3.69824">
        <ele>10</ele>
        <time>2018-07-18T11:49:42Z</time>
      </trkpt>
      <trkpt lat="47.78644" lon="-3.69819">
        <ele>10</ele>
        <time>2018-07-18T11:49:43Z</time>
      </trkpt>
      <trkpt lat="47.78643" lon="-3.69814">
        <ele>10</ele>
        <time>2018-07-18T11:49:44Z</time>
      </trkpt>
      <trkpt lat="47.78642" lon="-3.69809">
        <ele>10</ele>
        <time>2018-07-18T11:49:45Z</time>
      </trkpt>
      <trkpt lat="47.78641" lon="-3.69804">
        <ele>10</ele>
        <time>2018-07-18T11:49:46Z</time>
      </trkpt>
      <trkpt lat="47.7864" lon="-3.69799">
        <ele>10</ele>
        <time>2018-07-18T11:49:47Z</time>
      </trkpt>
      <trkpt lat="47.78638" lon="-3.69794">
        <ele>10</ele>
        <time>2018-07-18T11:49:48Z</time>
      </trkpt>
      <trkpt lat="47.78635" lon="-3.69789">
        <ele>10</ele>
        <time>2018-07-18T11:49:49Z</time>
      </trkpt>
      <trkpt lat="47.78632" lon="-3.69784">
        <ele>10</ele>
        <time>2018-07-18T11:49:50Z</time>
      </trkpt>
      <trkpt lat="47.78631" lon="-3.69778">
        <ele>9</ele>
        <time>2018-07-18T11:49:51Z</time>
      </trkpt>
      <trkpt lat="47.78632" lon="-3.69772">
        <ele>9</ele>
        <time>2018-07-18T11:49:52Z</time>
      </trkpt>
      <trkpt lat="47.78632" lon="-3.69765">
        <ele>9</ele>
        <time>2018-07-18T11:49:53Z</time>
      </trkpt>
      <trkpt lat="47.78632" lon="-3.69759">
        <ele>9</ele>
        <time>2018-07-18T11:49:54Z</time>
      </trkpt>
      <trkpt lat="47.78631" lon="-3.69753">
        <ele>9</ele>
        <time>2018-07-18T11:49:55Z</time>
      </trkpt>
      <trkpt lat="47.7863" lon="-3.69747">
        <ele>9</ele>
        <time>2018-07-18T11:49:56Z</time>
      </trkpt>
      <trkpt lat="47.78629" lon="-3.6974">
        <ele>9</ele>
        <time>2018-07-18T11:49:57Z</time>
      </trkpt>
      <trkpt lat="47.78628" lon="-3.69734">
        <ele>9</ele>
        <time>2018-07-18T11:49:58Z</time>
      </trkpt>
      <trkpt lat="47.78626" lon="-3.69728">
        <ele>9</ele>
        <time>2018-07-18T11:49:59Z</time>
      </trkpt>
      <trkpt lat="47.78625" lon="-3.69722">
        <ele>9</ele>
        <time>2018-07-18T11:50:00Z</time>
      </trkpt>
      <trkpt lat="47.78624" lon="-3.69715">
        <ele>9</ele>
        <time>2018-07-18T11:50:01Z</time>
      </trkpt>
      <trkpt lat="47.78624" lon="-3.69709">
        <ele>9</ele>
        <time>2018-07-18T11:50:02Z</time>
      </trkpt>
      <trkpt lat="47.78624" lon="-3.69702">
        <ele>9</ele>
        <time>2018-07-18T11:50:03Z</time>
      </trkpt>
      <trkpt lat="47.78624" lon="-3.69695">
        <ele>9</ele>
        <time>2018-07-18T11:50:04Z</time>
      </trkpt>
      <trkpt lat="47.78625" lon="-3.69688">
        <ele>9</ele>
        <time>2018-07-18T11:50:05Z</time>
      </trkpt>
      <trkpt lat="47.78626" lon="-3.69681">
        <ele>9</ele>
        <time>2018-07-18T11:50:06Z</time>
      </trkpt>
      <trkpt lat="47.78628" lon="-3.69675">
        <ele>8</ele>
        <time>2018-07-18T11:50:07Z</time>
      </trkpt>
      <trkpt lat="47.7863" lon="-3.69668">
        <ele>8</ele>
        <time>2018-07-18T11:50:08Z</time>
      </trkpt>
      <trkpt lat="47.78632" lon="-3.6966">
        <ele>8</ele>
        <time>2018-07-18T11:50:09Z</time>
      </trkpt>
      <trkpt lat="47.78635" lon="-3.69654">
        <ele>8</ele>
        <time>2018-07-18T11:50:10Z</time>
      </trkpt>
      <trkpt lat="47.78638" lon="-3.69649">
        <ele>8</ele>
        <time>2018-07-18T11:50:11Z</time>
      </trkpt>
      <trkpt lat="47.78642" lon="-3.69646">
        <ele>9</ele>
        <time>2018-07-18T11:50:12Z</time>
      </trkpt>
      <trkpt lat="47.78645" lon="-3.69644">
        <ele>9</ele>
        <time>2018-07-18T11:50:13Z</time>
      </trkpt>
      <trkpt lat="47.78649" lon="-3.69642">
        <ele>9</ele>
        <time>2018-07-18T11:50:14Z</time>
      </trkpt>
      <trkpt lat="47.78653" lon="-3.69641">
        <ele>9</ele>
        <time>2018-07-18T11:50:15Z</time>
      </trkpt>
      <trkpt lat="47.78656" lon="-3.69638">
        <ele>9</ele>
        <time>2018-07-18T11:50:16Z</time>
      </trkpt>
      <trkpt lat="47.78658" lon="-3.69635">
        <ele>9</ele>
        <time>2018-07-18T11:50:17Z</time>
      </trkpt>
      <trkpt lat="47.7866" lon="-3.69631">
        <ele>9</ele>
        <time>2018-07-18T11:50:18Z</time>
      </trkpt>
      <trkpt lat="47.78662" lon="-3.69627">
        <ele>9</ele>
        <time>2018-07-18T11:50:19Z</time>
      </trkpt>
      <trkpt lat="47.78664" lon="-3.69625">
        <ele>9</ele>
        <time>2018-07-18T11:50:20Z</time>
      </trkpt>
      <trkpt lat="47.78665" lon="-3.69622">
        <ele>9</ele>
        <time>2018-07-18T11:50:21Z</time>
      </trkpt>
      <trkpt lat="47.78666" lon="-3.69619">
        <ele>9</ele>
        <time>2018-07-18T11:50:22Z</time>
      </trkpt>
      <trkpt lat="47.78667" lon="-3.69615">
        <ele>9</ele>
        <time>2018-07-18T11:50:23Z</time>
      </trkpt>
      <trkpt lat="47.78669" lon="-3.6961">
        <ele>9</ele>
        <time>2018-07-18T11:50:24Z</time>
      </trkpt>
      <trkpt lat="47.78671" lon="-3.69605">
        <ele>9</ele>
        <time>2018-07-18T11:50:25Z</time>
      </trkpt>
      <trkpt lat="47.78673" lon="-3.69599">
        <ele>9</ele>
        <time>2018-07-18T11:50:26Z</time>
      </trkpt>
      <trkpt lat="47.78675" lon="-3.69593">
        <ele>9</ele>
        <time>2018-07-18T11:50:27Z</time>
      </trkpt>
      <trkpt lat="47.78678" lon="-3.69589">
        <ele>8</ele>
        <time>2018-07-18T11:50:28Z</time>
      </trkpt>
      <trkpt lat="47.78681" lon="-3.69587">
        <ele>8</ele>
        <time>2018-07-18T11:50:29Z</time>
      </trkpt>
      <trkpt lat="47.78684" lon="-3.69586">
        <ele>8</ele>
        <time>2018-07-18T11:50:30Z</time>
      </trkpt>
      <trkpt lat="47.78686" lon="-3.69585">
        <ele>8</ele>
        <time>2018-07-18T11:50:31Z</time>
      </trkpt>
      <trkpt lat="47.78688" lon="-3.69584">
        <ele>8</ele>
        <time>2018-07-18T11:50:32Z</time>
      </trkpt>
      <trkpt lat="47.78689" lon="-3.69583">
        <ele>8</ele>
        <time>2018-07-18T11:50:33Z</time>
      </trkpt>
      <trkpt lat="47.78692" lon="-3.69581">
        <ele>8</ele>
        <time>2018-07-18T11:50:34Z</time>
      </trkpt>
      <trkpt lat="47.78695" lon="-3.69579">
        <ele>8</ele>
        <time>2018-07-18T11:50:35Z</time>
      </trkpt>
      <trkpt lat="47.78698" lon="-3.69577">
        <ele>8</ele>
        <time>2018-07-18T11:50:36Z</time>
      </trkpt>
      <trkpt lat="47.78701" lon="-3.69575">
        <ele>8</ele>
        <time>2018-07-18T11:50:37Z</time>
      </trkpt>
      <trkpt lat="47.78704" lon="-3.69572">
        <ele>8</ele>
        <time>2018-07-18T11:50:38Z</time>
      </trkpt>
      <trkpt lat="47.78707" lon="-3.6957">
        <ele>7</ele>
        <time>2018-07-18T11:50:39Z</time>
      </trkpt>
      <trkpt lat="47.78711" lon="-3.69568">
        <ele>7</ele>
        <time>2018-07-18T11:50:40Z</time>
      </trkpt>
      <trkpt lat="47.78713" lon="-3.69566">
        <ele>7</ele>
        <time>2018-07-18T11:50:41Z</time>
      </trkpt>
      <trkpt lat="47.78715" lon="-3.69563">
        <ele>7</ele>
        <time>2018-07-18T11:50:42Z</time>
      </trkpt>
      <trkpt lat="47.78717" lon="-3.6956">
        <ele>6</ele>
        <time>2018-07-18T11:50:43Z</time>
      </trkpt>
      <trkpt lat="47.78717" lon="-3.69558">
        <ele>6</ele>
        <time>2018-07-18T11:50:44Z</time>
      </trkpt>
      <trkpt lat="47.78716" lon="-3.69556">
        <ele>6</ele>
        <time>2018-07-18T11:50:45Z</time>
      </trkpt>
      <trkpt lat="47.78715" lon="-3.69553">
        <ele>6</ele>
        <time>2018-07-18T11:50:46Z</time>
      </trkpt>
      <trkpt lat="47.78716" lon="-3.69549">
        <ele>5</ele>
        <time>2018-07-18T11:50:47Z</time>
      </trkpt>
      <trkpt lat="47.78718" lon="-3.69544">
        <ele>5</ele>
        <time>2018-07-18T11:50:48Z</time>
      </trkpt>
      <trkpt lat="47.7872" lon="-3.6954">
        <ele>5</ele>
        <time>2018-07-18T11:50:49Z</time>
      </trkpt>
      <trkpt lat="47.78721" lon="-3.69536">
        <ele>5</ele>
        <time>2018-07-18T11:50:50Z</time>
      </trkpt>
      <trkpt lat="47.78722" lon="-3.69533">
        <ele>5</ele>
        <time>2018-07-18T11:50:51Z</time>
      </trkpt>
      <trkpt lat="47.78722" lon="-3.6953">
        <ele>5</ele>
        <time>2018-07-18T11:50:52Z</time>
      </trkpt>
      <trkpt lat="47.78723" lon="-3.69528">
        <ele>5</ele>
        <time>2018-07-18T11:50:53Z</time>
      </trkpt>
      <trkpt lat="47.78723" lon="-3.69528">
        <ele>5</ele>
        <time>2018-07-18T11:50:54Z</time>
      </trkpt>
      <trkpt lat="47.78723" lon="-3.69528">
        <ele>5</ele>
        <time>2018-07-18T11:50:55Z</time>
      </trkpt>
      <trkpt lat="47.78723" lon="-3.69528">
        <ele>5</ele>
        <time>2018-07-18T11:50:56Z</time>
      </trkpt>
      <trkpt lat="47.78722" lon="-3.69526">
        <ele>5</ele>
        <time>2018-07-18T11:50:57Z</time>
      </trkpt>
      <trkpt lat="47.78721" lon="-3.69524">
        <ele>5</ele>
        <time>2018-07-18T11:50:58Z</time>
      </trkpt>
      <trkpt lat="47.78719" lon="-3.69522">
        <ele>5</ele>
        <time>2018-07-18T11:50:59Z</time>
      </trkpt>
      <trkpt lat="47.78718" lon="-3.6952">
        <ele>5</ele>
        <time>2018-07-18T11:51:00Z</time>
      </trkpt>
      <trkpt lat="47.78716" lon="-3.69518">
        <ele>5</ele>
        <time>2018-07-18T11:51:01Z</time>
      </trkpt>
      <trkpt lat="47.78714" lon="-3.69515">
        <ele>5</ele>
        <time>2018-07-18T11:51:02Z</time>
      </trkpt>
      <trkpt lat="47.78712" lon="-3.69512">
        <ele>5</ele>
        <time>2018-07-18T11:51:03Z</time>
      </trkpt>
      <trkpt lat="47.7871" lon="-3.6951">
        <ele>5</ele>
        <time>2018-07-18T11:51:04Z</time>
      </trkpt>
      <trkpt lat="47.78708" lon="-3.69507">
        <ele>5</ele>
        <time>2018-07-18T11:51:05Z</time>
      </trkpt>
      <trkpt lat="47.78706" lon="-3.69503">
        <ele>5</ele>
        <time>2018-07-18T11:51:06Z</time>
      </trkpt>
      <trkpt lat="47.78704" lon="-3.695">
        <ele>5</ele>
        <time>2018-07-18T11:51:07Z</time>
      </trkpt>
      <trkpt lat="47.78702" lon="-3.69497">
        <ele>5</ele>
        <time>2018-07-18T11:51:08Z</time>
      </trkpt>
      <trkpt lat="47.787" lon="-3.69494">
        <ele>5</ele>
        <time>2018-07-18T11:51:09Z</time>
      </trkpt>
      <trkpt lat="47.78698" lon="-3.69491">
        <ele>5</ele>
        <time>2018-07-18T11:51:10Z</time>
      </trkpt>
      <trkpt lat="47.78696" lon="-3.69489">
        <ele>5</ele>
        <time>2018-07-18T11:51:11Z</time>
      </trkpt>
      <trkpt lat="47.78694" lon="-3.69488">
        <ele>5</ele>
        <time>2018-07-18T11:51:12Z</time>
      </trkpt>
      <trkpt lat="47.78692" lon="-3.69488">
        <ele>5</ele>
        <time>2018-07-18T11:51:13Z</time>
      </trkpt>
      <trkpt lat="47.7869" lon="-3.69488">
        <ele>5</ele>
        <time>2018-07-18T11:51:14Z</time>
      </trkpt>
      <trkpt lat="47.78689" lon="-3.69488">
        <ele>5</ele>
        <time>2018-07-18T11:51:15Z</time>
      </trkpt>
      <trkpt lat="47.78688" lon="-3.69487">
        <ele>5</ele>
        <time>2018-07-18T11:51:16Z</time>
      </trkpt>
      <trkpt lat="47.78687" lon="-3.69487">
        <ele>5</ele>
        <time>2018-07-18T11:51:17Z</time>
      </trkpt>
      <trkpt lat="47.78685" lon="-3.69488">
        <ele>5</ele>
        <time>2018-07-18T11:51:18Z</time>
      </trkpt>
      <trkpt lat="47.78684" lon="-3.69489">
        <ele>5</ele>
        <time>2018-07-18T11:51:19Z</time>
      </trkpt>
      <trkpt lat="47.78682" lon="-3.6949">
        <ele>5</ele>
        <time>2018-07-18T11:51:20Z</time>
      </trkpt>
      <trkpt lat="47.7868" lon="-3.69491">
        <ele>5</ele>
        <time>2018-07-18T11:51:21Z</time>
      </trkpt>
      <trkpt lat="47.78678" lon="-3.69493">
        <ele>6</ele>
        <time>2018-07-18T11:51:22Z</time>
      </trkpt>
      <trkpt lat="47.78676" lon="-3.69493">
        <ele>6</ele>
        <time>2018-07-18T11:51:23Z</time>
      </trkpt>
      <trkpt lat="47.78674" lon="-3.69494">
        <ele>6</ele>
        <time>2018-07-18T11:51:24Z</time>
      </trkpt>
      <trkpt lat="47.78672" lon="-3.69494">
        <ele>6</ele>
        <time>2018-07-18T11:51:25Z</time>
      </trkpt>
      <trkpt lat="47.78669" lon="-3.69495">
        <ele>6</ele>
        <time>2018-07-18T11:51:26Z</time>
      </trkpt>
      <trkpt lat="47.78668" lon="-3.69497">
        <ele>6</ele>
        <time>2018-07-18T11:51:27Z</time>
      </trkpt>
      <trkpt lat="47.78665" lon="-3.69498">
        <ele>6</ele>
        <time>2018-07-18T11:51:28Z</time>
      </trkpt>
      <trkpt lat="47.78662" lon="-3.69499">
        <ele>7</ele>
        <time>2018-07-18T11:51:29Z</time>
      </trkpt>
      <trkpt lat="47.7866" lon="-3.695">
        <ele>7</ele>
        <time>2018-07-18T11:51:30Z</time>
      </trkpt>
      <trkpt lat="47.78657" lon="-3.69502">
        <ele>7</ele>
        <time>2018-07-18T11:51:31Z</time>
      </trkpt>
      <trkpt lat="47.78654" lon="-3.69504">
        <ele>7</ele>
        <time>2018-07-18T11:51:32Z</time>
      </trkpt>
      <trkpt lat="47.78651" lon="-3.69505">
        <ele>7</ele>
        <time>2018-07-18T11:51:33Z</time>
      </trkpt>
      <trkpt lat="47.78649" lon="-3.69507">
        <ele>7</ele>
        <time>2018-07-18T11:51:34Z</time>
      </trkpt>
      <trkpt lat="47.78646" lon="-3.69509">
        <ele>7</ele>
        <time>2018-07-18T11:51:35Z</time>
      </trkpt>
      <trkpt lat="47.78644" lon="-3.69511">
        <ele>7</ele>
        <time>2018-07-18T11:51:36Z</time>
      </trkpt>
      <trkpt lat="47.78641" lon="-3.69514">
        <ele>7</ele>
        <time>2018-07-18T11:51:37Z</time>
      </trkpt>
      <trkpt lat="47.78639" lon="-3.69516">
        <ele>7</ele>
        <time>2018-07-18T11:51:38Z</time>
      </trkpt>
      <trkpt lat="47.78636" lon="-3.6952">
        <ele>7</ele>
        <time>2018-07-18T11:51:39Z</time>
      </trkpt>
      <trkpt lat="47.78633" lon="-3.69523">
        <ele>7</ele>
        <time>2018-07-18T11:51:40Z</time>
      </trkpt>
      <trkpt lat="47.7863" lon="-3.69526">
        <ele>7</ele>
        <time>2018-07-18T11:51:41Z</time>
      </trkpt>
      <trkpt lat="47.78628" lon="-3.69529">
        <ele>7</ele>
        <time>2018-07-18T11:51:42Z</time>
      </trkpt>
      <trkpt lat="47.78626" lon="-3.69532">
        <ele>7</ele>
        <time>2018-07-18T11:51:43Z</time>
      </trkpt>
      <trkpt lat="47.78623" lon="-3.69536">
        <ele>7</ele>
        <time>2018-07-18T11:51:44Z</time>
      </trkpt>
      <trkpt lat="47.78622" lon="-3.6954">
        <ele>7</ele>
        <time>2018-07-18T11:51:45Z</time>
      </trkpt>
      <trkpt lat="47.7862" lon="-3.69544">
        <ele>7</ele>
        <time>2018-07-18T11:51:46Z</time>
      </trkpt>
      <trkpt lat="47.78619" lon="-3.69548">
        <ele>7</ele>
        <time>2018-07-18T11:51:47Z</time>
      </trkpt>
      <trkpt lat="47.78617" lon="-3.69552">
        <ele>7</ele>
        <time>2018-07-18T11:51:48Z</time>
      </trkpt>
      <trkpt lat="47.78615" lon="-3.69555">
        <ele>7</ele>
        <time>2018-07-18T11:51:49Z</time>
      </trkpt>
      <trkpt lat="47.78612" lon="-3.69557">
        <ele>7</ele>
        <time>2018-07-18T11:51:50Z</time>
      </trkpt>
      <trkpt lat="47.78609" lon="-3.69559">
        <ele>7</ele>
        <time>2018-07-18T11:51:51Z</time>
      </trkpt>
      <trkpt lat="47.78606" lon="-3.6956">
        <ele>7</ele>
        <time>2018-07-18T11:51:52Z</time>
      </trkpt>
      <trkpt lat="47.78603" lon="-3.69559">
        <ele>7</ele>
        <time>2018-07-18T11:51:53Z</time>
      </trkpt>
      <trkpt lat="47.786" lon="-3.69559">
        <ele>7</ele>
        <time>2018-07-18T11:51:54Z</time>
      </trkpt>
      <trkpt lat="47.78597" lon="-3.69558">
        <ele>7</ele>
        <time>2018-07-18T11:51:55Z</time>
      </trkpt>
      <trkpt lat="47.78594" lon="-3.69557">
        <ele>7</ele>
        <time>2018-07-18T11:51:56Z</time>
      </trkpt>
      <trkpt lat="47.78591" lon="-3.69555">
        <ele>7</ele>
        <time>2018-07-18T11:51:57Z</time>
      </trkpt>
      <trkpt lat="47.78588" lon="-3.69553">
        <ele>7</ele>
        <time>2018-07-18T11:51:58Z</time>
      </trkpt>
      <trkpt lat="47.78585" lon="-3.6955">
        <ele>7</ele>
        <time>2018-07-18T11:51:59Z</time>
      </trkpt>
      <trkpt lat="47.78582" lon="-3.69547">
        <ele>7</ele>
        <time>2018-07-18T11:52:00Z</time>
      </trkpt>
      <trkpt lat="47.78578" lon="-3.69546">
        <ele>7</ele>
        <time>2018-07-18T11:52:01Z</time>
      </trkpt>
      <trkpt lat="47.78574" lon="-3.69545">
        <ele>7</ele>
        <time>2018-07-18T11:52:02Z</time>
      </trkpt>
      <trkpt lat="47.78571" lon="-3.69545">
        <ele>7</ele>
        <time>2018-07-18T11:52:03Z</time>
      </trkpt>
      <trkpt lat="47.78568" lon="-3.69546">
        <ele>7</ele>
        <time>2018-07-18T11:52:04Z</time>
      </trkpt>
      <trkpt lat="47.78565" lon="-3.69547">
        <ele>7</ele>
        <time>2018-07-18T11:52:05Z</time>
      </trkpt>
      <trkpt lat="47.78563" lon="-3.69549">
        <ele>7</ele>
        <time>2018-07-18T11:52:06Z</time>
      </trkpt>
      <trkpt lat="47.7856" lon="-3.6955">
        <ele>7</ele>
        <time>2018-07-18T11:52:07Z</time>
      </trkpt>
      <trkpt lat="47.78557" lon="-3.69552">
        <ele>7</ele>
        <time>2018-07-18T11:52:08Z</time>
      </trkpt>
      <trkpt lat="47.78553" lon="-3.69553">
        <ele>7</ele>
        <time>2018-07-18T11:52:09Z</time>
      </trkpt>
      <trkpt lat="47.7855" lon="-3.69552">
        <ele>7</ele>
        <time>2018-07-18T11:52:10Z</time>
      </trkpt>
      <trkpt lat="47.78546" lon="-3.69551">
        <ele>7</ele>
        <time>2018-07-18T11:52:11Z</time>
      </trkpt>
      <trkpt lat="47.78542" lon="-3.6955">
        <ele>7</ele>
        <time>2018-07-18T11:52:12Z</time>
      </trkpt>
      <trkpt lat="47.78538" lon="-3.69547">
        <ele>7</ele>
        <time>2018-07-18T11:52:13Z</time>
      </trkpt>
      <trkpt lat="47.78535" lon="-3.69542">
        <ele>6</ele>
        <time>2018-07-18T11:52:14Z</time>
      </trkpt>
      <trkpt lat="47.78532" lon="-3.69537">
        <ele>6</ele>
        <time>2018-07-18T11:52:15Z</time>
      </trkpt>
      <trkpt lat="47.78529" lon="-3.69532">
        <ele>6</ele>
        <time>2018-07-18T11:52:16Z</time>
      </trkpt>
      <trkpt lat="47.78527" lon="-3.69526">
        <ele>6</ele>
        <time>2018-07-18T11:52:17Z</time>
      </trkpt>
      <trkpt lat="47.78525" lon="-3.69521">
        <ele>6</ele>
        <time>2018-07-18T11:52:18Z</time>
      </trkpt>
      <trkpt lat="47.78524" lon="-3.69515">
        <ele>6</ele>
        <time>2018-07-18T11:52:19Z</time>
      </trkpt>
      <trkpt lat="47.78523" lon="-3.69509">
        <ele>7</ele>
        <time>2018-07-18T11:52:20Z</time>
      </trkpt>
      <trkpt lat="47.78521" lon="-3.69504">
        <ele>7</ele>
        <time>2018-07-18T11:52:21Z</time>
      </trkpt>
      <trkpt lat="47.7852" lon="-3.69499">
        <ele>7</ele>
        <time>2018-07-18T11:52:22Z</time>
      </trkpt>
      <trkpt lat="47.7852" lon="-3.69494">
        <ele>7</ele>
        <time>2018-07-18T11:52:23Z</time>
      </trkpt>
      <trkpt lat="47.78519" lon="-3.69489">
        <ele>7</ele>
        <time>2018-07-18T11:52:24Z</time>
      </trkpt>
      <trkpt lat="47.78519" lon="-3.69484">
        <ele>7</ele>
        <time>2018-07-18T11:52:25Z</time>
      </trkpt>
      <trkpt lat="47.7852" lon="-3.69479">
        <ele>7</ele>
        <time>2018-07-18T11:52:26Z</time>
      </trkpt>
      <trkpt lat="47.7852" lon="-3.69475">
        <ele>7</ele>
        <time>2018-07-18T11:52:27Z</time>
      </trkpt>
      <trkpt lat="47.78521" lon="-3.6947">
        <ele>7</ele>
        <time>2018-07-18T11:52:28Z</time>
      </trkpt>
      <trkpt lat="47.78522" lon="-3.69465">
        <ele>7</ele>
        <time>2018-07-18T11:52:29Z</time>
      </trkpt>
      <trkpt lat="47.78523" lon="-3.69459">
        <ele>7</ele>
        <time>2018-07-18T11:52:30Z</time>
      </trkpt>
      <trkpt lat="47.78524" lon="-3.69454">
        <ele>7</ele>
        <time>2018-07-18T11:52:31Z</time>
      </trkpt>
      <trkpt lat="47.78525" lon="-3.69449">
        <ele>7</ele>
        <time>2018-07-18T11:52:32Z</time>
      </trkpt>
      <trkpt lat="47.78526" lon="-3.69443">
        <ele>8</ele>
        <time>2018-07-18T11:52:33Z</time>
      </trkpt>
      <trkpt lat="47.78526" lon="-3.69438">
        <ele>8</ele>
        <time>2018-07-18T11:52:34Z</time>
      </trkpt>
      <trkpt lat="47.78527" lon="-3.69432">
        <ele>8</ele>
        <time>2018-07-18T11:52:35Z</time>
      </trkpt>
      <trkpt lat="47.78528" lon="-3.69427">
        <ele>8</ele>
        <time>2018-07-18T11:52:36Z</time>
      </trkpt>
      <trkpt lat="47.78528" lon="-3.69423">
        <ele>8</ele>
        <time>2018-07-18T11:52:37Z</time>
      </trkpt>
      <trkpt lat="47.78528" lon="-3.69419">
        <ele>8</ele>
        <time>2018-07-18T11:52:38Z</time>
      </trkpt>
      <trkpt lat="47.78527" lon="-3.69416">
        <ele>8</ele>
        <time>2018-07-18T11:52:39Z</time>
      </trkpt>
      <trkpt lat="47.78526" lon="-3.69414">
        <ele>8</ele>
        <time>2018-07-18T11:52:40Z</time>
      </trkpt>
      <trkpt lat="47.78525" lon="-3.69411">
        <ele>8</ele>
        <time>2018-07-18T11:52:41Z</time>
      </trkpt>
      <trkpt lat="47.78524" lon="-3.69407">
        <ele>8</ele>
        <time>2018-07-18T11:52:42Z</time>
      </trkpt>
      <trkpt lat="47.78522" lon="-3.69404">
        <ele>8</ele>
        <time>2018-07-18T11:52:43Z</time>
      </trkpt>
      <trkpt lat="47.7852" lon="-3.694">
        <ele>8</ele>
        <time>2018-07-18T11:52:44Z</time>
      </trkpt>
      <trkpt lat="47.78517" lon="-3.69398">
        <ele>8</ele>
        <time>2018-07-18T11:52:45Z</time>
      </trkpt>
      <trkpt lat="47.78515" lon="-3.69394">
        <ele>8</ele>
        <time>2018-07-18T11:52:46Z</time>
      </trkpt>
      <trkpt lat="47.78514" lon="-3.6939">
        <ele>8</ele>
        <time>2018-07-18T11:52:47Z</time>
      </trkpt>
      <trkpt lat="47.78515" lon="-3.69385">
        <ele>8</ele>
        <time>2018-07-18T11:52:48Z</time>
      </trkpt>
      <trkpt lat="47.78516" lon="-3.69381">
        <ele>8</ele>
        <time>2018-07-18T11:52:49Z</time>
      </trkpt>
      <trkpt lat="47.78518" lon="-3.69377">
        <ele>8</ele>
        <time>2018-07-18T11:52:50Z</time>
      </trkpt>
      <trkpt lat="47.7852" lon="-3.69373">
        <ele>8</ele>
        <time>2018-07-18T11:52:51Z</time>
      </trkpt>
      <trkpt lat="47.7852" lon="-3.6937">
        <ele>8</ele>
        <time>2018-07-18T11:52:52Z</time>
      </trkpt>
      <trkpt lat="47.7852" lon="-3.69367">
        <ele>8</ele>
        <time>2018-07-18T11:52:53Z</time>
      </trkpt>
      <trkpt lat="47.7852" lon="-3.69364">
        <ele>8</ele>
        <time>2018-07-18T11:52:54Z</time>
      </trkpt>
      <trkpt lat="47.78519" lon="-3.6936">
        <ele>7</ele>
        <time>2018-07-18T11:52:55Z</time>
      </trkpt>
      <trkpt lat="47.78518" lon="-3.69357">
        <ele>7</ele>
        <time>2018-07-18T11:52:56Z</time>
      </trkpt>
      <trkpt lat="47.78519" lon="-3.69354">
        <ele>7</ele>
        <time>2018-07-18T11:52:57Z</time>
      </trkpt>
      <trkpt lat="47.7852" lon="-3.69351">
        <ele>7</ele>
        <time>2018-07-18T11:52:58Z</time>
      </trkpt>
      <trkpt lat="47.78521" lon="-3.69351">
        <ele>7</ele>
        <time>2018-07-18T11:52:59Z</time>
      </trkpt>
      <trkpt lat="47.78521" lon="-3.6935">
        <ele>7</ele>
        <time>2018-07-18T11:53:00Z</time>
      </trkpt>
      <trkpt lat="47.78521" lon="-3.6935">
        <ele>7</ele>
        <time>2018-07-18T11:53:01Z</time>
      </trkpt>
      <trkpt lat="47.78521" lon="-3.69349">
        <ele>6</ele>
        <time>2018-07-18T11:53:02Z</time>
      </trkpt>
      <trkpt lat="47.78521" lon="-3.69348">
        <ele>6</ele>
        <time>2018-07-18T11:53:03Z</time>
      </trkpt>
      <trkpt lat="47.78521" lon="-3.69347">
        <ele>6</ele>
        <time>2018-07-18T11:53:04Z</time>
      </trkpt>
      <trkpt lat="47.78521" lon="-3.69347">
        <ele>6</ele>
        <time>2018-07-18T11:53:05Z</time>
      </trkpt>
      <trkpt lat="47.78522" lon="-3.69346">
        <ele>6</ele>
        <time>2018-07-18T11:53:06Z</time>
      </trkpt>
      <trkpt lat="47.78523" lon="-3.69345">
        <ele>6</ele>
        <time>2018-07-18T11:53:07Z</time>
      </trkpt>
      <trkpt lat="47.78523" lon="-3.69344">
        <ele>6</ele>
        <time>2018-07-18T11:53:08Z</time>
      </trkpt>
      <trkpt lat="47.78523" lon="-3.69344">
        <ele>6</ele>
        <time>2018-07-18T11:53:09Z</time>
      </trkpt>
      <trkpt lat="47.78523" lon="-3.69344">
        <ele>6</ele>
        <time>2018-07-18T11:53:10Z</time>
      </trkpt>
      <trkpt lat="47.78523" lon="-3.69344">
        <ele>6</ele>
        <time>2018-07-18T11:53:11Z</time>
      </trkpt>
      <trkpt lat="47.78523" lon="-3.6934">
        <ele>5</ele>
        <time>2018-07-18T11:53:12Z</time>
      </trkpt>
      <trkpt lat="47.78522" lon="-3.69337">
        <ele>5</ele>
        <time>2018-07-18T11:53:13Z</time>
      </trkpt>
      <trkpt lat="47.78522" lon="-3.69333">
        <ele>5</ele>
        <time>2018-07-18T11:53:14Z</time>
      </trkpt>
      <trkpt lat="47.78521" lon="-3.69329">
        <ele>5</ele>
        <time>2018-07-18T11:53:15Z</time>
      </trkpt>
      <trkpt lat="47.78521" lon="-3.69326">
        <ele>5</ele>
        <time>2018-07-18T11:53:16Z</time>
      </trkpt>
      <trkpt lat="47.7852" lon="-3.69323">
        <ele>5</ele>
        <time>2018-07-18T11:53:17Z</time>
      </trkpt>
      <trkpt lat="47.78518" lon="-3.6932">
        <ele>5</ele>
        <time>2018-07-18T11:53:18Z</time>
      </trkpt>
      <trkpt lat="47.78516" lon="-3.69318">
        <ele>5</ele>
        <time>2018-07-18T11:53:19Z</time>
      </trkpt>
      <trkpt lat="47.78514" lon="-3.69317">
        <ele>5</ele>
        <time>2018-07-18T11:53:20Z</time>
      </trkpt>
      <trkpt lat="47.78513" lon="-3.69315">
        <ele>5</ele>
        <time>2018-07-18T11:53:21Z</time>
      </trkpt>
      <trkpt lat="47.78511" lon="-3.69312">
        <ele>5</ele>
        <time>2018-07-18T11:53:22Z</time>
      </trkpt>
      <trkpt lat="47.78509" lon="-3.6931">
        <ele>5</ele>
        <time>2018-07-18T11:53:23Z</time>
      </trkpt>
      <trkpt lat="47.78508" lon="-3.69309">
        <ele>5</ele>
        <time>2018-07-18T11:53:24Z</time>
      </trkpt>
      <trkpt lat="47.78506" lon="-3.69308">
        <ele>6</ele>
        <time>2018-07-18T11:53:25Z</time>
      </trkpt>
      <trkpt lat="47.78504" lon="-3.69307">
        <ele>6</ele>
        <time>2018-07-18T11:53:26Z</time>
      </trkpt>
      <trkpt lat="47.78502" lon="-3.69307">
        <ele>6</ele>
        <time>2018-07-18T11:53:27Z</time>
      </trkpt>
      <trkpt lat="47.785" lon="-3.69306">
        <ele>6</ele>
        <time>2018-07-18T11:53:28Z</time>
      </trkpt>
      <trkpt lat="47.78498" lon="-3.69306">
        <ele>6</ele>
        <time>2018-07-18T11:53:29Z</time>
      </trkpt>
      <trkpt lat="47.78496" lon="-3.69306">
        <ele>6</ele>
        <time>2018-07-18T11:53:30Z</time>
      </trkpt>
      <trkpt lat="47.78494" lon="-3.69307">
        <ele>6</ele>
        <time>2018-07-18T11:53:31Z</time>
      </trkpt>
      <trkpt lat="47.78492" lon="-3.69307">
        <ele>7</ele>
        <time>2018-07-18T11:53:32Z</time>
      </trkpt>
      <trkpt lat="47.78491" lon="-3.69306">
        <ele>7</ele>
        <time>2018-07-18T11:53:33Z</time>
      </trkpt>
      <trkpt lat="47.7849" lon="-3.69306">
        <ele>7</ele>
        <time>2018-07-18T11:53:34Z</time>
      </trkpt>
      <trkpt lat="47.78489" lon="-3.69306">
        <ele>7</ele>
        <time>2018-07-18T11:53:35Z</time>
      </trkpt>
      <trkpt lat="47.78488" lon="-3.69306">
        <ele>7</ele>
        <time>2018-07-18T11:53:36Z</time>
      </trkpt>
      <trkpt lat="47.78486" lon="-3.69306">
        <ele>7</ele>
        <time>2018-07-18T11:53:37Z</time>
      </trkpt>
      <trkpt lat="47.78485" lon="-3.69306">
        <ele>7</ele>
        <time>2018-07-18T11:53:38Z</time>
      </trkpt>
      <trkpt lat="47.78484" lon="-3.69305">
        <ele>7</ele>
        <time>2018-07-18T11:53:39Z</time>
      </trkpt>
      <trkpt lat="47.78482" lon="-3.69303">
        <ele>7</ele>
        <time>2018-07-18T11:53:40Z</time>
      </trkpt>
      <trkpt lat="47.78481" lon="-3.69301">
        <ele>7</ele>
        <time>2018-07-18T11:53:41Z</time>
      </trkpt>
      <trkpt lat="47.78479" lon="-3.693">
        <ele>7</ele>
        <time>2018-07-18T11:53:42Z</time>
      </trkpt>
      <trkpt lat="47.78478" lon="-3.69298">
        <ele>8</ele>
        <time>2018-07-18T11:53:43Z</time>
      </trkpt>
      <trkpt lat="47.78476" lon="-3.69295">
        <ele>8</ele>
        <time>2018-07-18T11:53:44Z</time>
      </trkpt>
      <trkpt lat="47.78474" lon="-3.69293">
        <ele>8</ele>
        <time>2018-07-18T11:53:45Z</time>
      </trkpt>
      <trkpt lat="47.78472" lon="-3.69291">
        <ele>8</ele>
        <time>2018-07-18T11:53:46Z</time>
      </trkpt>
      <trkpt lat="47.7847" lon="-3.69288">
        <ele>8</ele>
        <time>2018-07-18T11:53:47Z</time>
      </trkpt>
      <trkpt lat="47.78468" lon="-3.69286">
        <ele>8</ele>
        <time>2018-07-18T11:53:48Z</time>
      </trkpt>
      <trkpt lat="47.78466" lon="-3.69283">
        <ele>8</ele>
        <time>2018-07-18T11:53:49Z</time>
      </trkpt>
      <trkpt lat="47.78464" lon="-3.6928">
        <ele>9</ele>
        <time>2018-07-18T11:53:50Z</time>
      </trkpt>
      <trkpt lat="47.78462" lon="-3.69278">
        <ele>9</ele>
        <time>2018-07-18T11:53:51Z</time>
      </trkpt>
      <trkpt lat="47.7846" lon="-3.69275">
        <ele>9</ele>
        <time>2018-07-18T11:53:52Z</time>
      </trkpt>
      <trkpt lat="47.78458" lon="-3.69272">
        <ele>9</ele>
        <time>2018-07-18T11:53:53Z</time>
      </trkpt>
      <trkpt lat="47.78456" lon="-3.69269">
        <ele>9</ele>
        <time>2018-07-18T11:53:54Z</time>
      </trkpt>
      <trkpt lat="47.78453" lon="-3.69266">
        <ele>9</ele>
        <time>2018-07-18T11:53:55Z</time>
      </trkpt>
      <trkpt lat="47.78451" lon="-3.69263">
        <ele>9</ele>
        <time>2018-07-18T11:53:56Z</time>
      </trkpt>
      <trkpt lat="47.78448" lon="-3.6926">
        <ele>10</ele>
        <time>2018-07-18T11:53:57Z</time>
      </trkpt>
      <trkpt lat="47.78446" lon="-3.69257">
        <ele>10</ele>
        <time>2018-07-18T11:53:58Z</time>
      </trkpt>
      <trkpt lat="47.78444" lon="-3.69254">
        <ele>10</ele>
        <time>2018-07-18T11:53:59Z</time>
      </trkpt>
      <trkpt lat="47.78441" lon="-3.69251">
        <ele>10</ele>
        <time>2018-07-18T11:54:00Z</time>
      </trkpt>
      <trkpt lat="47.78439" lon="-3.69248">
        <ele>10</ele>
        <time>2018-07-18T11:54:01Z</time>
      </trkpt>
      <trkpt lat="47.78436" lon="-3.69244">
        <ele>10</ele>
        <time>2018-07-18T11:54:02Z</time>
      </trkpt>
      <trkpt lat="47.78433" lon="-3.69241">
        <ele>11</ele>
        <time>2018-07-18T11:54:03Z</time>
      </trkpt>
      <trkpt lat="47.78431" lon="-3.69237">
        <ele>11</ele>
        <time>2018-07-18T11:54:04Z</time>
      </trkpt>
      <trkpt lat="47.78428" lon="-3.69233">
        <ele>11</ele>
        <time>2018-07-18T11:54:05Z</time>
      </trkpt>
      <trkpt lat="47.78425" lon="-3.69229">
        <ele>11</ele>
        <time>2018-07-18T11:54:06Z</time>
      </trkpt>
      <trkpt lat="47.78423" lon="-3.69225">
        <ele>11</ele>
        <time>2018-07-18T11:54:07Z</time>
      </trkpt>
      <trkpt lat="47.78421" lon="-3.69221">
        <ele>11</ele>
        <time>2018-07-18T11:54:08Z</time>
      </trkpt>
      <trkpt lat="47.78418" lon="-3.69217">
        <ele>11</ele>
        <time>2018-07-18T11:54:09Z</time>
      </trkpt>
      <trkpt lat="47.78416" lon="-3.69214">
        <ele>11</ele>
        <time>2018-07-18T11:54:10Z</time>
      </trkpt>
      <trkpt lat="47.78413" lon="-3.6921">
        <ele>12</ele>
        <time>2018-07-18T11:54:11Z</time>
      </trkpt>
      <trkpt lat="47.78411" lon="-3.69206">
        <ele>12</ele>
        <time>2018-07-18T11:54:12Z</time>
      </trkpt>
      <trkpt lat="47.78409" lon="-3.69202">
        <ele>12</ele>
        <time>2018-07-18T11:54:13Z</time>
      </trkpt>
      <trkpt lat="47.78406" lon="-3.69197">
        <ele>12</ele>
        <time>2018-07-18T11:54:14Z</time>
      </trkpt>
      <trkpt lat="47.78404" lon="-3.69193">
        <ele>12</ele>
        <time>2018-07-18T11:54:15Z</time>
      </trkpt>
      <trkpt lat="47.78402" lon="-3.69188">
        <ele>12</ele>
        <time>2018-07-18T11:54:16Z</time>
      </trkpt>
      <trkpt lat="47.78399" lon="-3.69183">
        <ele>12</ele>
        <time>2018-07-18T11:54:17Z</time>
      </trkpt>
      <trkpt lat="47.78397" lon="-3.69179">
        <ele>13</ele>
        <time>2018-07-18T11:54:18Z</time>
      </trkpt>
      <trkpt lat="47.78395" lon="-3.69174">
        <ele>13</ele>
        <time>2018-07-18T11:54:19Z</time>
      </trkpt>
      <trkpt lat="47.78392" lon="-3.69169">
        <ele>13</ele>
        <time>2018-07-18T11:54:20Z</time>
      </trkpt>
      <trkpt lat="47.7839" lon="-3.69164">
        <ele>13</ele>
        <time>2018-07-18T11:54:21Z</time>
      </trkpt>
      <trkpt lat="47.78387" lon="-3.69159">
        <ele>13</ele>
        <time>2018-07-18T11:54:22Z</time>
      </trkpt>
      <trkpt lat="47.78385" lon="-3.69155">
        <ele>13</ele>
        <time>2018-07-18T11:54:23Z</time>
      </trkpt>
      <trkpt lat="47.78382" lon="-3.6915">
        <ele>13</ele>
        <time>2018-07-18T11:54:24Z</time>
      </trkpt>
      <trkpt lat="47.7838" lon="-3.69146">
        <ele>13</ele>
        <time>2018-07-18T11:54:25Z</time>
      </trkpt>
      <trkpt lat="47.78377" lon="-3.69141">
        <ele>13</ele>
        <time>2018-07-18T11:54:26Z</time>
      </trkpt>
      <trkpt lat="47.78375" lon="-3.69136">
        <ele>13</ele>
        <time>2018-07-18T11:54:27Z</time>
      </trkpt>
      <trkpt lat="47.78373" lon="-3.69131">
        <ele>14</ele>
        <time>2018-07-18T11:54:28Z</time>
      </trkpt>
      <trkpt lat="47.78371" lon="-3.69125">
        <ele>14</ele>
        <time>2018-07-18T11:54:29Z</time>
      </trkpt>
      <trkpt lat="47.78369" lon="-3.69119">
        <ele>14</ele>
        <time>2018-07-18T11:54:30Z</time>
      </trkpt>
      <trkpt lat="47.78367" lon="-3.69113">
        <ele>14</ele>
        <time>2018-07-18T11:54:31Z</time>
      </trkpt>
      <trkpt lat="47.78366" lon="-3.69107">
        <ele>14</ele>
        <time>2018-07-18T11:54:32Z</time>
      </trkpt>
      <trkpt lat="47.78364" lon="-3.69101">
        <ele>14</ele>
        <time>2018-07-18T11:54:33Z</time>
      </trkpt>
      <trkpt lat="47.78363" lon="-3.69096">
        <ele>14</ele>
        <time>2018-07-18T11:54:34Z</time>
      </trkpt>
      <trkpt lat="47.78361" lon="-3.69091">
        <ele>14</ele>
        <time>2018-07-18T11:54:35Z</time>
      </trkpt>
      <trkpt lat="47.7836" lon="-3.69087">
        <ele>14</ele>
        <time>2018-07-18T11:54:36Z</time>
      </trkpt>
      <trkpt lat="47.78359" lon="-3.69084">
        <ele>14</ele>
        <time>2018-07-18T11:54:37Z</time>
      </trkpt>
      <trkpt lat="47.78357" lon="-3.69084">
        <ele>14</ele>
        <time>2018-07-18T11:54:38Z</time>
      </trkpt>
      <trkpt lat="47.78354" lon="-3.69086">
        <ele>14</ele>
        <time>2018-07-18T11:54:39Z</time>
      </trkpt>
      <trkpt lat="47.7835" lon="-3.69087">
        <ele>14</ele>
        <time>2018-07-18T11:54:40Z</time>
      </trkpt>
      <trkpt lat="47.78346" lon="-3.69089">
        <ele>13</ele>
        <time>2018-07-18T11:54:41Z</time>
      </trkpt>
      <trkpt lat="47.78342" lon="-3.6909">
        <ele>13</ele>
        <time>2018-07-18T11:54:42Z</time>
      </trkpt>
      <trkpt lat="47.78338" lon="-3.69092">
        <ele>13</ele>
        <time>2018-07-18T11:54:43Z</time>
      </trkpt>
      <trkpt lat="47.78333" lon="-3.69094">
        <ele>13</ele>
        <time>2018-07-18T11:54:44Z</time>
      </trkpt>
      <trkpt lat="47.78328" lon="-3.69096">
        <ele>12</ele>
        <time>2018-07-18T11:54:45Z</time>
      </trkpt>
      <trkpt lat="47.78323" lon="-3.69098">
        <ele>12</ele>
        <time>2018-07-18T11:54:46Z</time>
      </trkpt>
      <trkpt lat="47.78318" lon="-3.691">
        <ele>12</ele>
        <time>2018-07-18T11:54:47Z</time>
      </trkpt>
      <trkpt lat="47.78313" lon="-3.69103">
        <ele>11</ele>
        <time>2018-07-18T11:54:48Z</time>
      </trkpt>
      <trkpt lat="47.78307" lon="-3.69105">
        <ele>11</ele>
        <time>2018-07-18T11:54:49Z</time>
      </trkpt>
      <trkpt lat="47.78301" lon="-3.69107">
        <ele>10</ele>
        <time>2018-07-18T11:54:50Z</time>
      </trkpt>
      <trkpt lat="47.78295" lon="-3.6911">
        <ele>10</ele>
        <time>2018-07-18T11:54:51Z</time>
      </trkpt>
      <trkpt lat="47.7829" lon="-3.69111">
        <ele>10</ele>
        <time>2018-07-18T11:54:52Z</time>
      </trkpt>
      <trkpt lat="47.78286" lon="-3.69113">
        <ele>10</ele>
        <time>2018-07-18T11:54:53Z</time>
      </trkpt>
      <trkpt lat="47.78282" lon="-3.69114">
        <ele>9</ele>
        <time>2018-07-18T11:54:54Z</time>
      </trkpt>
      <trkpt lat="47.78279" lon="-3.69112">
        <ele>9</ele>
        <time>2018-07-18T11:54:55Z</time>
      </trkpt>
      <trkpt lat="47.78277" lon="-3.69109">
        <ele>9</ele>
        <time>2018-07-18T11:54:56Z</time>
      </trkpt>
      <trkpt lat="47.78276" lon="-3.69104">
        <ele>9</ele>
        <time>2018-07-18T11:54:57Z</time>
      </trkpt>
      <trkpt lat="47.78275" lon="-3.69099">
        <ele>9</ele>
        <time>2018-07-18T11:54:58Z</time>
      </trkpt>
      <trkpt lat="47.78273" lon="-3.69093">
        <ele>8</ele>
        <time>2018-07-18T11:54:59Z</time>
      </trkpt>
      <trkpt lat="47.78271" lon="-3.69088">
        <ele>8</ele>
        <time>2018-07-18T11:55:00Z</time>
      </trkpt>
      <trkpt lat="47.78267" lon="-3.69084">
        <ele>8</ele>
        <time>2018-07-18T11:55:01Z</time>
      </trkpt>
      <trkpt lat="47.78264" lon="-3.69079">
        <ele>8</ele>
        <time>2018-07-18T11:55:02Z</time>
      </trkpt>
      <trkpt lat="47.7826" lon="-3.69073">
        <ele>7</ele>
        <time>2018-07-18T11:55:03Z</time>
      </trkpt>
      <trkpt lat="47.78257" lon="-3.69067">
        <ele>7</ele>
        <time>2018-07-18T11:55:04Z</time>
      </trkpt>
      <trkpt lat="47.78254" lon="-3.69063">
        <ele>7</ele>
        <time>2018-07-18T11:55:05Z</time>
      </trkpt>
      <trkpt lat="47.78251" lon="-3.69062">
        <ele>7</ele>
        <time>2018-07-18T11:55:06Z</time>
      </trkpt>
      <trkpt lat="47.78248" lon="-3.69063">
        <ele>8</ele>
        <time>2018-07-18T11:55:07Z</time>
      </trkpt>
      <trkpt lat="47.78246" lon="-3.69065">
        <ele>8</ele>
        <time>2018-07-18T11:55:08Z</time>
      </trkpt>
      <trkpt lat="47.78243" lon="-3.69067">
        <ele>8</ele>
        <time>2018-07-18T11:55:09Z</time>
      </trkpt>
      <trkpt lat="47.7824" lon="-3.69069">
        <ele>8</ele>
        <time>2018-07-18T11:55:10Z</time>
      </trkpt>
      <trkpt lat="47.78237" lon="-3.69069">
        <ele>8</ele>
        <time>2018-07-18T11:55:11Z</time>
      </trkpt>
      <trkpt lat="47.78234" lon="-3.69068">
        <ele>8</ele>
        <time>2018-07-18T11:55:12Z</time>
      </trkpt>
      <trkpt lat="47.78231" lon="-3.69067">
        <ele>8</ele>
        <time>2018-07-18T11:55:13Z</time>
      </trkpt>
      <trkpt lat="47.78227" lon="-3.69065">
        <ele>8</ele>
        <time>2018-07-18T11:55:14Z</time>
      </trkpt>
      <trkpt lat="47.78223" lon="-3.69065">
        <ele>8</ele>
        <time>2018-07-18T11:55:15Z</time>
      </trkpt>
      <trkpt lat="47.78219" lon="-3.69065">
        <ele>8</ele>
        <time>2018-07-18T11:55:16Z</time>
      </trkpt>
      <trkpt lat="47.78215" lon="-3.69064">
        <ele>8</ele>
        <time>2018-07-18T11:55:17Z</time>
      </trkpt>
      <trkpt lat="47.7821" lon="-3.69064">
        <ele>8</ele>
        <time>2018-07-18T11:55:18Z</time>
      </trkpt>
      <trkpt lat="47.78206" lon="-3.69063">
        <ele>8</ele>
        <time>2018-07-18T11:55:19Z</time>
      </trkpt>
      <trkpt lat="47.78202" lon="-3.69062">
        <ele>7</ele>
        <time>2018-07-18T11:55:20Z</time>
      </trkpt>
      <trkpt lat="47.78198" lon="-3.69061">
        <ele>7</ele>
        <time>2018-07-18T11:55:21Z</time>
      </trkpt>
      <trkpt lat="47.78193" lon="-3.69059">
        <ele>7</ele>
        <time>2018-07-18T11:55:22Z</time>
      </trkpt>
      <trkpt lat="47.78189" lon="-3.69057">
        <ele>7</ele>
        <time>2018-07-18T11:55:23Z</time>
      </trkpt>
      <trkpt lat="47.78185" lon="-3.69054">
        <ele>7</ele>
        <time>2018-07-18T11:55:24Z</time>
      </trkpt>
      <trkpt lat="47.7818" lon="-3.69051">
        <ele>7</ele>
        <time>2018-07-18T11:55:25Z</time>
      </trkpt>
      <trkpt lat="47.78176" lon="-3.69046">
        <ele>7</ele>
        <time>2018-07-18T11:55:26Z</time>
      </trkpt>
      <trkpt lat="47.78172" lon="-3.69043">
        <ele>7</ele>
        <time>2018-07-18T11:55:27Z</time>
      </trkpt>
      <trkpt lat="47.78168" lon="-3.69039">
        <ele>7</ele>
        <time>2018-07-18T11:55:28Z</time>
      </trkpt>
      <trkpt lat="47.78163" lon="-3.69036">
        <ele>7</ele>
        <time>2018-07-18T11:55:29Z</time>
      </trkpt>
      <trkpt lat="47.78159" lon="-3.69033">
        <ele>7</ele>
        <time>2018-07-18T11:55:30Z</time>
      </trkpt>
      <trkpt lat="47.78155" lon="-3.69029">
        <ele>7</ele>
        <time>2018-07-18T11:55:31Z</time>
      </trkpt>
      <trkpt lat="47.7815" lon="-3.69026">
        <ele>7</ele>
        <time>2018-07-18T11:55:32Z</time>
      </trkpt>
      <trkpt lat="47.78146" lon="-3.69022">
        <ele>7</ele>
        <time>2018-07-18T11:55:33Z</time>
      </trkpt>
      <trkpt lat="47.78142" lon="-3.69018">
        <ele>7</ele>
        <time>2018-07-18T11:55:34Z</time>
      </trkpt>
      <trkpt lat="47.78138" lon="-3.69014">
        <ele>7</ele>
        <time>2018-07-18T11:55:35Z</time>
      </trkpt>
      <trkpt lat="47.78134" lon="-3.6901">
        <ele>7</ele>
        <time>2018-07-18T11:55:36Z</time>
      </trkpt>
      <trkpt lat="47.78131" lon="-3.69005">
        <ele>7</ele>
        <time>2018-07-18T11:55:37Z</time>
      </trkpt>
      <trkpt lat="47.7813" lon="-3.68999">
        <ele>7</ele>
        <time>2018-07-18T11:55:38Z</time>
      </trkpt>
      <trkpt lat="47.78129" lon="-3.68993">
        <ele>7</ele>
        <time>2018-07-18T11:55:39Z</time>
      </trkpt>
      <trkpt lat="47.7813" lon="-3.68987">
        <ele>7</ele>
        <time>2018-07-18T11:55:40Z</time>
      </trkpt>
      <trkpt lat="47.78131" lon="-3.68981">
        <ele>7</ele>
        <time>2018-07-18T11:55:41Z</time>
      </trkpt>
      <trkpt lat="47.78133" lon="-3.68976">
        <ele>7</ele>
        <time>2018-07-18T11:55:42Z</time>
      </trkpt>
      <trkpt lat="47.78135" lon="-3.68972">
        <ele>7</ele>
        <time>2018-07-18T11:55:43Z</time>
      </trkpt>
      <trkpt lat="47.78136" lon="-3.68966">
        <ele>7</ele>
        <time>2018-07-18T11:55:44Z</time>
      </trkpt>
      <trkpt lat="47.78137" lon="-3.6896">
        <ele>7</ele>
        <time>2018-07-18T11:55:45Z</time>
      </trkpt>
      <trkpt lat="47.78136" lon="-3.68953">
        <ele>7</ele>
        <time>2018-07-18T11:55:46Z</time>
      </trkpt>
      <trkpt lat="47.78134" lon="-3.68947">
        <ele>7</ele>
        <time>2018-07-18T11:55:47Z</time>
      </trkpt>
      <trkpt lat="47.78132" lon="-3.68941">
        <ele>7</ele>
        <time>2018-07-18T11:55:48Z</time>
      </trkpt>
      <trkpt lat="47.7813" lon="-3.68935">
        <ele>7</ele>
        <time>2018-07-18T11:55:49Z</time>
      </trkpt>
      <trkpt lat="47.78129" lon="-3.68928">
        <ele>7</ele>
        <time>2018-07-18T11:55:50Z</time>
      </trkpt>
      <trkpt lat="47.78128" lon="-3.68921">
        <ele>7</ele>
        <time>2018-07-18T11:55:51Z</time>
      </trkpt>
      <trkpt lat="47.78128" lon="-3.68914">
        <ele>7</ele>
        <time>2018-07-18T11:55:52Z</time>
      </trkpt>
      <trkpt lat="47.78128" lon="-3.68908">
        <ele>7</ele>
        <time>2018-07-18T11:55:53Z</time>
      </trkpt>
      <trkpt lat="47.78128" lon="-3.68902">
        <ele>7</ele>
        <time>2018-07-18T11:55:54Z</time>
      </trkpt>
      <trkpt lat="47.78127" lon="-3.68896">
        <ele>7</ele>
        <time>2018-07-18T11:55:55Z</time>
      </trkpt>
      <trkpt lat="47.78126" lon="-3.6889">
        <ele>7</ele>
        <time>2018-07-18T11:55:56Z</time>
      </trkpt>
      <trkpt lat="47.78125" lon="-3.68883">
        <ele>7</ele>
        <time>2018-07-18T11:55:57Z</time>
      </trkpt>
      <trkpt lat="47.78123" lon="-3.68877">
        <ele>7</ele>
        <time>2018-07-18T11:55:58Z</time>
      </trkpt>
      <trkpt lat="47.78122" lon="-3.68871">
        <ele>7</ele>
        <time>2018-07-18T11:55:59Z</time>
      </trkpt>
      <trkpt lat="47.78121" lon="-3.68864">
        <ele>7</ele>
        <time>2018-07-18T11:56:00Z</time>
      </trkpt>
      <trkpt lat="47.78121" lon="-3.68858">
        <ele>7</ele>
        <time>2018-07-18T11:56:01Z</time>
      </trkpt>
      <trkpt lat="47.78121" lon="-3.68852">
        <ele>7</ele>
        <time>2018-07-18T11:56:02Z</time>
      </trkpt>
      <trkpt lat="47.78123" lon="-3.68847">
        <ele>7</ele>
        <time>2018-07-18T11:56:03Z</time>
      </trkpt>
      <trkpt lat="47.78123" lon="-3.68842">
        <ele>7</ele>
        <time>2018-07-18T11:56:04Z</time>
      </trkpt>
      <trkpt lat="47.78124" lon="-3.68836">
        <ele>7</ele>
        <time>2018-07-18T11:56:05Z</time>
      </trkpt>
      <trkpt lat="47.78125" lon="-3.6883">
        <ele>7</ele>
        <time>2018-07-18T11:56:06Z</time>
      </trkpt>
      <trkpt lat="47.78125" lon="-3.68824">
        <ele>7</ele>
        <time>2018-07-18T11:56:07Z</time>
      </trkpt>
      <trkpt lat="47.78126" lon="-3.68818">
        <ele>7</ele>
        <time>2018-07-18T11:56:08Z</time>
      </trkpt>
      <trkpt lat="47.78126" lon="-3.68811">
        <ele>7</ele>
        <time>2018-07-18T11:56:09Z</time>
      </trkpt>
      <trkpt lat="47.78127" lon="-3.68804">
        <ele>7</ele>
        <time>2018-07-18T11:56:10Z</time>
      </trkpt>
      <trkpt lat="47.78127" lon="-3.68797">
        <ele>7</ele>
        <time>2018-07-18T11:56:11Z</time>
      </trkpt>
      <trkpt lat="47.78127" lon="-3.6879">
        <ele>7</ele>
        <time>2018-07-18T11:56:12Z</time>
      </trkpt>
      <trkpt lat="47.78126" lon="-3.68784">
        <ele>7</ele>
        <time>2018-07-18T11:56:13Z</time>
      </trkpt>
      <trkpt lat="47.78124" lon="-3.68779">
        <ele>7</ele>
        <time>2018-07-18T11:56:14Z</time>
      </trkpt>
      <trkpt lat="47.78121" lon="-3.68774">
        <ele>7</ele>
        <time>2018-07-18T11:56:15Z</time>
      </trkpt>
      <trkpt lat="47.78119" lon="-3.6877">
        <ele>7</ele>
        <time>2018-07-18T11:56:16Z</time>
      </trkpt>
      <trkpt lat="47.78116" lon="-3.68768">
        <ele>6</ele>
        <time>2018-07-18T11:56:17Z</time>
      </trkpt>
      <trkpt lat="47.78111" lon="-3.68768">
        <ele>6</ele>
        <time>2018-07-18T11:56:18Z</time>
      </trkpt>
      <trkpt lat="47.78107" lon="-3.6877">
        <ele>6</ele>
        <time>2018-07-18T11:56:19Z</time>
      </trkpt>
      <trkpt lat="47.78103" lon="-3.68772">
        <ele>6</ele>
        <time>2018-07-18T11:56:20Z</time>
      </trkpt>
      <trkpt lat="47.78098" lon="-3.68773">
        <ele>6</ele>
        <time>2018-07-18T11:56:21Z</time>
      </trkpt>
      <trkpt lat="47.78094" lon="-3.68775">
        <ele>6</ele>
        <time>2018-07-18T11:56:22Z</time>
      </trkpt>
      <trkpt lat="47.7809" lon="-3.68776">
        <ele>6</ele>
        <time>2018-07-18T11:56:23Z</time>
      </trkpt>
      <trkpt lat="47.78086" lon="-3.68776">
        <ele>5</ele>
        <time>2018-07-18T11:56:24Z</time>
      </trkpt>
      <trkpt lat="47.78082" lon="-3.68776">
        <ele>5</ele>
        <time>2018-07-18T11:56:25Z</time>
      </trkpt>
      <trkpt lat="47.78077" lon="-3.68776">
        <ele>5</ele>
        <time>2018-07-18T11:56:26Z</time>
      </trkpt>
      <trkpt lat="47.78073" lon="-3.68776">
        <ele>5</ele>
        <time>2018-07-18T11:56:27Z</time>
      </trkpt>
      <trkpt lat="47.78068" lon="-3.68775">
        <ele>5</ele>
        <time>2018-07-18T11:56:28Z</time>
      </trkpt>
      <trkpt lat="47.78064" lon="-3.68774">
        <ele>5</ele>
        <time>2018-07-18T11:56:29Z</time>
      </trkpt>
      <trkpt lat="47.7806" lon="-3.68773">
        <ele>5</ele>
        <time>2018-07-18T11:56:30Z</time>
      </trkpt>
      <trkpt lat="47.78055" lon="-3.68772">
        <ele>5</ele>
        <time>2018-07-18T11:56:31Z</time>
      </trkpt>
      <trkpt lat="47.7805" lon="-3.6877">
        <ele>5</ele>
        <time>2018-07-18T11:56:32Z</time>
      </trkpt>
      <trkpt lat="47.78046" lon="-3.68766">
        <ele>5</ele>
        <time>2018-07-18T11:56:33Z</time>
      </trkpt>
      <trkpt lat="47.78043" lon="-3.68762">
        <ele>5</ele>
        <time>2018-07-18T11:56:34Z</time>
      </trkpt>
      <trkpt lat="47.78039" lon="-3.68757">
        <ele>5</ele>
        <time>2018-07-18T11:56:35Z</time>
      </trkpt>
      <trkpt lat="47.78035" lon="-3.68754">
        <ele>5</ele>
        <time>2018-07-18T11:56:36Z</time>
      </trkpt>
      <trkpt lat="47.78032" lon="-3.6875">
        <ele>5</ele>
        <time>2018-07-18T11:56:37Z</time>
      </trkpt>
      <trkpt lat="47.78029" lon="-3.68749">
        <ele>5</ele>
        <time>2018-07-18T11:56:38Z</time>
      </trkpt>
      <trkpt lat="47.78026" lon="-3.6875">
        <ele>5</ele>
        <time>2018-07-18T11:56:39Z</time>
      </trkpt>
      <trkpt lat="47.78023" lon="-3.6875">
        <ele>5</ele>
        <time>2018-07-18T11:56:40Z</time>
      </trkpt>
      <trkpt lat="47.78019" lon="-3.68748">
        <ele>5</ele>
        <time>2018-07-18T11:56:41Z</time>
      </trkpt>
      <trkpt lat="47.78015" lon="-3.68745">
        <ele>5</ele>
        <time>2018-07-18T11:56:42Z</time>
      </trkpt>
      <trkpt lat="47.78012" lon="-3.68742">
        <ele>5</ele>
        <time>2018-07-18T11:56:43Z</time>
      </trkpt>
      <trkpt lat="47.78009" lon="-3.68737">
        <ele>5</ele>
        <time>2018-07-18T11:56:44Z</time>
      </trkpt>
      <trkpt lat="47.78006" lon="-3.68732">
        <ele>5</ele>
        <time>2018-07-18T11:56:45Z</time>
      </trkpt>
      <trkpt lat="47.78003" lon="-3.68729">
        <ele>5</ele>
        <time>2018-07-18T11:56:46Z</time>
      </trkpt>
      <trkpt lat="47.77999" lon="-3.68727">
        <ele>5</ele>
        <time>2018-07-18T11:56:47Z</time>
      </trkpt>
      <trkpt lat="47.77995" lon="-3.68725">
        <ele>5</ele>
        <time>2018-07-18T11:56:48Z</time>
      </trkpt>
      <trkpt lat="47.77992" lon="-3.68721">
        <ele>5</ele>
        <time>2018-07-18T11:56:49Z</time>
      </trkpt>
      <trkpt lat="47.7799" lon="-3.68716">
        <ele>5</ele>
        <time>2018-07-18T11:56:50Z</time>
      </trkpt>
      <trkpt lat="47.77987" lon="-3.68713">
        <ele>5</ele>
        <time>2018-07-18T11:56:51Z</time>
      </trkpt>
      <trkpt lat="47.77983" lon="-3.68713">
        <ele>5</ele>
        <time>2018-07-18T11:56:52Z</time>
      </trkpt>
      <trkpt lat="47.77979" lon="-3.68714">
        <ele>5</ele>
        <time>2018-07-18T11:56:53Z</time>
      </trkpt>
      <trkpt lat="47.77976" lon="-3.68716">
        <ele>5</ele>
        <time>2018-07-18T11:56:54Z</time>
      </trkpt>
      <trkpt lat="47.77971" lon="-3.68715">
        <ele>4</ele>
        <time>2018-07-18T11:56:55Z</time>
      </trkpt>
      <trkpt lat="47.77968" lon="-3.68711">
        <ele>4</ele>
        <time>2018-07-18T11:56:56Z</time>
      </trkpt>
      <trkpt lat="47.77966" lon="-3.68706">
        <ele>4</ele>
        <time>2018-07-18T11:56:57Z</time>
      </trkpt>
      <trkpt lat="47.77965" lon="-3.68701">
        <ele>4</ele>
        <time>2018-07-18T11:56:58Z</time>
      </trkpt>
      <trkpt lat="47.77966" lon="-3.68695">
        <ele>4</ele>
        <time>2018-07-18T11:56:59Z</time>
      </trkpt>
      <trkpt lat="47.77969" lon="-3.68691">
        <ele>4</ele>
        <time>2018-07-18T11:57:00Z</time>
      </trkpt>
      <trkpt lat="47.77972" lon="-3.68689">
        <ele>4</ele>
        <time>2018-07-18T11:57:01Z</time>
      </trkpt>
      <trkpt lat="47.77976" lon="-3.68687">
        <ele>4</ele>
        <time>2018-07-18T11:57:02Z</time>
      </trkpt>
      <trkpt lat="47.7798" lon="-3.68686">
        <ele>4</ele>
        <time>2018-07-18T11:57:03Z</time>
      </trkpt>
      <trkpt lat="47.77984" lon="-3.68684">
        <ele>4</ele>
        <time>2018-07-18T11:57:04Z</time>
      </trkpt>
      <trkpt lat="47.77987" lon="-3.6868">
        <ele>4</ele>
        <time>2018-07-18T11:57:05Z</time>
      </trkpt>
      <trkpt lat="47.77988" lon="-3.68674">
        <ele>4</ele>
        <time>2018-07-18T11:57:06Z</time>
      </trkpt>
      <trkpt lat="47.77989" lon="-3.68668">
        <ele>4</ele>
        <time>2018-07-18T11:57:07Z</time>
      </trkpt>
      <trkpt lat="47.77989" lon="-3.68661">
        <ele>4</ele>
        <time>2018-07-18T11:57:08Z</time>
      </trkpt>
      <trkpt lat="47.77989" lon="-3.68654">
        <ele>4</ele>
        <time>2018-07-18T11:57:09Z</time>
      </trkpt>
      <trkpt lat="47.77989" lon="-3.68647">
        <ele>4</ele>
        <time>2018-07-18T11:57:10Z</time>
      </trkpt>
      <trkpt lat="47.77991" lon="-3.6864">
        <ele>4</ele>
        <time>2018-07-18T11:57:11Z</time>
      </trkpt>
      <trkpt lat="47.77993" lon="-3.68634">
        <ele>4</ele>
        <time>2018-07-18T11:57:12Z</time>
      </trkpt>
      <trkpt lat="47.77996" lon="-3.68628">
        <ele>4</ele>
        <time>2018-07-18T11:57:13Z</time>
      </trkpt>
      <trkpt lat="47.77999" lon="-3.68623">
        <ele>4</ele>
        <time>2018-07-18T11:57:14Z</time>
      </trkpt>
      <trkpt lat="47.78003" lon="-3.68617">
        <ele>5</ele>
        <time>2018-07-18T11:57:15Z</time>
      </trkpt>
      <trkpt lat="47.78006" lon="-3.68612">
        <ele>5</ele>
        <time>2018-07-18T11:57:16Z</time>
      </trkpt>
      <trkpt lat="47.78009" lon="-3.68606">
        <ele>5</ele>
        <time>2018-07-18T11:57:17Z</time>
      </trkpt>
      <trkpt lat="47.78011" lon="-3.68599">
        <ele>5</ele>
        <time>2018-07-18T11:57:18Z</time>
      </trkpt>
      <trkpt lat="47.78012" lon="-3.68592">
        <ele>5</ele>
        <time>2018-07-18T11:57:19Z</time>
      </trkpt>
      <trkpt lat="47.78013" lon="-3.68585">
        <ele>4</ele>
        <time>2018-07-18T11:57:20Z</time>
      </trkpt>
      <trkpt lat="47.78012" lon="-3.68577">
        <ele>4</ele>
        <time>2018-07-18T11:57:21Z</time>
      </trkpt>
      <trkpt lat="47.78011" lon="-3.68569">
        <ele>4</ele>
        <time>2018-07-18T11:57:22Z</time>
      </trkpt>
      <trkpt lat="47.78009" lon="-3.68562">
        <ele>4</ele>
        <time>2018-07-18T11:57:23Z</time>
      </trkpt>
      <trkpt lat="47.78006" lon="-3.68556">
        <ele>4</ele>
        <time>2018-07-18T11:57:24Z</time>
      </trkpt>
      <trkpt lat="47.78003" lon="-3.68551">
        <ele>4</ele>
        <time>2018-07-18T11:57:25Z</time>
      </trkpt>
      <trkpt lat="47.77999" lon="-3.68547">
        <ele>3</ele>
        <time>2018-07-18T11:57:26Z</time>
      </trkpt>
      <trkpt lat="47.77996" lon="-3.68543">
        <ele>3</ele>
        <time>2018-07-18T11:57:27Z</time>
      </trkpt>
      <trkpt lat="47.77993" lon="-3.68539">
        <ele>3</ele>
        <time>2018-07-18T11:57:28Z</time>
      </trkpt>
      <trkpt lat="47.7799" lon="-3.68534">
        <ele>3</ele>
        <time>2018-07-18T11:57:29Z</time>
      </trkpt>
      <trkpt lat="47.77987" lon="-3.68533">
        <ele>3</ele>
        <time>2018-07-18T11:57:30Z</time>
      </trkpt>
      <trkpt lat="47.77983" lon="-3.68532">
        <ele>3</ele>
        <time>2018-07-18T11:57:31Z</time>
      </trkpt>
      <trkpt lat="47.77979" lon="-3.68532">
        <ele>3</ele>
        <time>2018-07-18T11:57:32Z</time>
      </trkpt>
      <trkpt lat="47.77974" lon="-3.68534">
        <ele>3</ele>
        <time>2018-07-18T11:57:33Z</time>
      </trkpt>
      <trkpt lat="47.77969" lon="-3.68535">
        <ele>3</ele>
        <time>2018-07-18T11:57:34Z</time>
      </trkpt>
      <trkpt lat="47.77965" lon="-3.68535">
        <ele>3</ele>
        <time>2018-07-18T11:57:35Z</time>
      </trkpt>
      <trkpt lat="47.7796" lon="-3.68534">
        <ele>3</ele>
        <time>2018-07-18T11:57:36Z</time>
      </trkpt>
      <trkpt lat="47.77955" lon="-3.68532">
        <ele>3</ele>
        <time>2018-07-18T11:57:37Z</time>
      </trkpt>
      <trkpt lat="47.77951" lon="-3.6853">
        <ele>3</ele>
        <time>2018-07-18T11:57:38Z</time>
      </trkpt>
      <trkpt lat="47.77947" lon="-3.68527">
        <ele>3</ele>
        <time>2018-07-18T11:57:39Z</time>
      </trkpt>
      <trkpt lat="47.77944" lon="-3.68524">
        <ele>3</ele>
        <time>2018-07-18T11:57:40Z</time>
      </trkpt>
      <trkpt lat="47.7794" lon="-3.6852">
        <ele>3</ele>
        <time>2018-07-18T11:57:41Z</time>
      </trkpt>
      <trkpt lat="47.77938" lon="-3.68515">
        <ele>3</ele>
        <time>2018-07-18T11:57:42Z</time>
      </trkpt>
      <trkpt lat="47.77936" lon="-3.68509">
        <ele>3</ele>
        <time>2018-07-18T11:57:43Z</time>
      </trkpt>
      <trkpt lat="47.77937" lon="-3.68503">
        <ele>3</ele>
        <time>2018-07-18T11:57:44Z</time>
      </trkpt>
      <trkpt lat="47.77936" lon="-3.68497">
        <ele>3</ele>
        <time>2018-07-18T11:57:45Z</time>
      </trkpt>
      <trkpt lat="47.77934" lon="-3.68493">
        <ele>3</ele>
        <time>2018-07-18T11:57:46Z</time>
      </trkpt>
      <trkpt lat="47.77932" lon="-3.68489">
        <ele>3</ele>
        <time>2018-07-18T11:57:47Z</time>
      </trkpt>
      <trkpt lat="47.7793" lon="-3.68484">
        <ele>3</ele>
        <time>2018-07-18T11:57:48Z</time>
      </trkpt>
      <trkpt lat="47.77928" lon="-3.68478">
        <ele>3</ele>
        <time>2018-07-18T11:57:49Z</time>
      </trkpt>
      <trkpt lat="47.77927" lon="-3.68472">
        <ele>3</ele>
        <time>2018-07-18T11:57:50Z</time>
      </trkpt>
      <trkpt lat="47.77926" lon="-3.68465">
        <ele>3</ele>
        <time>2018-07-18T11:57:51Z</time>
      </trkpt>
      <trkpt lat="47.77926" lon="-3.68459">
        <ele>4</ele>
        <time>2018-07-18T11:57:52Z</time>
      </trkpt>
      <trkpt lat="47.77926" lon="-3.68452">
        <ele>4</ele>
        <time>2018-07-18T11:57:53Z</time>
      </trkpt>
      <trkpt lat="47.77927" lon="-3.68445">
        <ele>4</ele>
        <time>2018-07-18T11:57:54Z</time>
      </trkpt>
      <trkpt lat="47.77928" lon="-3.68438">
        <ele>4</ele>
        <time>2018-07-18T11:57:55Z</time>
      </trkpt>
      <trkpt lat="47.77928" lon="-3.68431">
        <ele>4</ele>
        <time>2018-07-18T11:57:56Z</time>
      </trkpt>
      <trkpt lat="47.77928" lon="-3.68425">
        <ele>4</ele>
        <time>2018-07-18T11:57:57Z</time>
      </trkpt>
      <trkpt lat="47.77929" lon="-3.68417">
        <ele>4</ele>
        <time>2018-07-18T11:57:58Z</time>
      </trkpt>
      <trkpt lat="47.77928" lon="-3.6841">
        <ele>4</ele>
        <time>2018-07-18T11:57:59Z</time>
      </trkpt>
      <trkpt lat="47.77928" lon="-3.68402">
        <ele>4</ele>
        <time>2018-07-18T11:58:00Z</time>
      </trkpt>
      <trkpt lat="47.77929" lon="-3.68395">
        <ele>4</ele>
        <time>2018-07-18T11:58:01Z</time>
      </trkpt>
      <trkpt lat="47.77931" lon="-3.68388">
        <ele>4</ele>
        <time>2018-07-18T11:58:02Z</time>
      </trkpt>
      <trkpt lat="47.77933" lon="-3.68381">
        <ele>4</ele>
        <time>2018-07-18T11:58:03Z</time>
      </trkpt>
      <trkpt lat="47.77936" lon="-3.68375">
        <ele>4</ele>
        <time>2018-07-18T11:58:04Z</time>
      </trkpt>
      <trkpt lat="47.7794" lon="-3.68372">
        <ele>4</ele>
        <time>2018-07-18T11:58:05Z</time>
      </trkpt>
      <trkpt lat="47.77944" lon="-3.68368">
        <ele>4</ele>
        <time>2018-07-18T11:58:06Z</time>
      </trkpt>
      <trkpt lat="47.77947" lon="-3.68364">
        <ele>5</ele>
        <time>2018-07-18T11:58:07Z</time>
      </trkpt>
      <trkpt lat="47.7795" lon="-3.6836">
        <ele>5</ele>
        <time>2018-07-18T11:58:08Z</time>
      </trkpt>
      <trkpt lat="47.77953" lon="-3.68357">
        <ele>5</ele>
        <time>2018-07-18T11:58:09Z</time>
      </trkpt>
      <trkpt lat="47.77956" lon="-3.68354">
        <ele>5</ele>
        <time>2018-07-18T11:58:10Z</time>
      </trkpt>
      <trkpt lat="47.77959" lon="-3.6835">
        <ele>5</ele>
        <time>2018-07-18T11:58:11Z</time>
      </trkpt>
      <trkpt lat="47.77962" lon="-3.68346">
        <ele>6</ele>
        <time>2018-07-18T11:58:12Z</time>
      </trkpt>
      <trkpt lat="47.77963" lon="-3.68342">
        <ele>6</ele>
        <time>2018-07-18T11:58:13Z</time>
      </trkpt>
      <trkpt lat="47.77965" lon="-3.68338">
        <ele>6</ele>
        <time>2018-07-18T11:58:14Z</time>
      </trkpt>
      <trkpt lat="47.77967" lon="-3.68333">
        <ele>5</ele>
        <time>2018-07-18T11:58:15Z</time>
      </trkpt>
      <trkpt lat="47.77969" lon="-3.68329">
        <ele>5</ele>
        <time>2018-07-18T11:58:16Z</time>
      </trkpt>
      <trkpt lat="47.7797" lon="-3.68324">
        <ele>5</ele>
        <time>2018-07-18T11:58:17Z</time>
      </trkpt>
      <trkpt lat="47.77971" lon="-3.6832">
        <ele>5</ele>
        <time>2018-07-18T11:58:18Z</time>
      </trkpt>
      <trkpt lat="47.7797" lon="-3.68317">
        <ele>5</ele>
        <time>2018-07-18T11:58:19Z</time>
      </trkpt>
      <trkpt lat="47.77969" lon="-3.68313">
        <ele>5</ele>
        <time>2018-07-18T11:58:20Z</time>
      </trkpt>
      <trkpt lat="47.77967" lon="-3.6831">
        <ele>4</ele>
        <time>2018-07-18T11:58:21Z</time>
      </trkpt>
      <trkpt lat="47.77965" lon="-3.68308">
        <ele>4</ele>
        <time>2018-07-18T11:58:22Z</time>
      </trkpt>
      <trkpt lat="47.77964" lon="-3.68306">
        <ele>4</ele>
        <time>2018-07-18T11:58:23Z</time>
      </trkpt>
      <trkpt lat="47.77962" lon="-3.68303">
        <ele>4</ele>
        <time>2018-07-18T11:58:24Z</time>
      </trkpt>
      <trkpt lat="47.77959" lon="-3.68302">
        <ele>4</ele>
        <time>2018-07-18T11:58:25Z</time>
      </trkpt>
      <trkpt lat="47.77957" lon="-3.68302">
        <ele>4</ele>
        <time>2018-07-18T11:58:26Z</time>
      </trkpt>
      <trkpt lat="47.77955" lon="-3.68301">
        <ele>5</ele>
        <time>2018-07-18T11:58:27Z</time>
      </trkpt>
      <trkpt lat="47.77952" lon="-3.68301">
        <ele>5</ele>
        <time>2018-07-18T11:58:28Z</time>
      </trkpt>
      <trkpt lat="47.77949" lon="-3.683">
        <ele>5</ele>
        <time>2018-07-18T11:58:29Z</time>
      </trkpt>
      <trkpt lat="47.77946" lon="-3.683">
        <ele>5</ele>
        <time>2018-07-18T11:58:30Z</time>
      </trkpt>
      <trkpt lat="47.77943" lon="-3.68299">
        <ele>5</ele>
        <time>2018-07-18T11:58:31Z</time>
      </trkpt>
      <trkpt lat="47.7794" lon="-3.68298">
        <ele>5</ele>
        <time>2018-07-18T11:58:32Z</time>
      </trkpt>
      <trkpt lat="47.77936" lon="-3.68298">
        <ele>5</ele>
        <time>2018-07-18T11:58:33Z</time>
      </trkpt>
      <trkpt lat="47.77932" lon="-3.68298">
        <ele>5</ele>
        <time>2018-07-18T11:58:34Z</time>
      </trkpt>
      <trkpt lat="47.77928" lon="-3.68298">
        <ele>5</ele>
        <time>2018-07-18T11:58:35Z</time>
      </trkpt>
      <trkpt lat="47.77923" lon="-3.68298">
        <ele>5</ele>
        <time>2018-07-18T11:58:36Z</time>
      </trkpt>
      <trkpt lat="47.7792" lon="-3.68298">
        <ele>5</ele>
        <time>2018-07-18T11:58:37Z</time>
      </trkpt>
      <trkpt lat="47.77916" lon="-3.68298">
        <ele>5</ele>
        <time>2018-07-18T11:58:38Z</time>
      </trkpt>
      <trkpt lat="47.77913" lon="-3.68298">
        <ele>5</ele>
        <time>2018-07-18T11:58:39Z</time>
      </trkpt>
      <trkpt lat="47.7791" lon="-3.68298">
        <ele>5</ele>
        <time>2018-07-18T11:58:40Z</time>
      </trkpt>
      <trkpt lat="47.77907" lon="-3.68299">
        <ele>5</ele>
        <time>2018-07-18T11:58:41Z</time>
      </trkpt>
      <trkpt lat="47.77904" lon="-3.683">
        <ele>5</ele>
        <time>2018-07-18T11:58:42Z</time>
      </trkpt>
      <trkpt lat="47.779" lon="-3.68301">
        <ele>5</ele>
        <time>2018-07-18T11:58:43Z</time>
      </trkpt>
      <trkpt lat="47.77896" lon="-3.68304">
        <ele>5</ele>
        <time>2018-07-18T11:58:44Z</time>
      </trkpt>
      <trkpt lat="47.77892" lon="-3.68304">
        <ele>5</ele>
        <time>2018-07-18T11:58:45Z</time>
      </trkpt>
      <trkpt lat="47.77888" lon="-3.68305">
        <ele>5</ele>
        <time>2018-07-18T11:58:46Z</time>
      </trkpt>
      <trkpt lat="47.77884" lon="-3.68306">
        <ele>5</ele>
        <time>2018-07-18T11:58:47Z</time>
      </trkpt>
      <trkpt lat="47.77881" lon="-3.68306">
        <ele>5</ele>
        <time>2018-07-18T11:58:48Z</time>
      </trkpt>
      <trkpt lat="47.77877" lon="-3.68306">
        <ele>5</ele>
        <time>2018-07-18T11:58:49Z</time>
      </trkpt>
      <trkpt lat="47.77873" lon="-3.68305">
        <ele>5</ele>
        <time>2018-07-18T11:58:50Z</time>
      </trkpt>
      <trkpt lat="47.77869" lon="-3.68304">
        <ele>6</ele>
        <time>2018-07-18T11:58:51Z</time>
      </trkpt>
      <trkpt lat="47.77866" lon="-3.68303">
        <ele>6</ele>
        <time>2018-07-18T11:58:52Z</time>
      </trkpt>
      <trkpt lat="47.77862" lon="-3.68302">
        <ele>6</ele>
        <time>2018-07-18T11:58:53Z</time>
      </trkpt>
      <trkpt lat="47.77858" lon="-3.683">
        <ele>6</ele>
        <time>2018-07-18T11:58:54Z</time>
      </trkpt>
      <trkpt lat="47.77854" lon="-3.68298">
        <ele>5</ele>
        <time>2018-07-18T11:58:55Z</time>
      </trkpt>
      <trkpt lat="47.7785" lon="-3.68295">
        <ele>5</ele>
        <time>2018-07-18T11:58:56Z</time>
      </trkpt>
      <trkpt lat="47.77845" lon="-3.68292">
        <ele>5</ele>
        <time>2018-07-18T11:58:57Z</time>
      </trkpt>
      <trkpt lat="47.77841" lon="-3.6829">
        <ele>5</ele>
        <time>2018-07-18T11:58:58Z</time>
      </trkpt>
      <trkpt lat="47.77838" lon="-3.68287">
        <ele>5</ele>
        <time>2018-07-18T11:58:59Z</time>
      </trkpt>
      <trkpt lat="47.77834" lon="-3.68284">
        <ele>5</ele>
        <time>2018-07-18T11:59:00Z</time>
      </trkpt>
      <trkpt lat="47.77831" lon="-3.6828">
        <ele>6</ele>
        <time>2018-07-18T11:59:01Z</time>
      </trkpt>
      <trkpt lat="47.77827" lon="-3.68277">
        <ele>6</ele>
        <time>2018-07-18T11:59:02Z</time>
      </trkpt>
      <trkpt lat="47.77824" lon="-3.68274">
        <ele>6</ele>
        <time>2018-07-18T11:59:03Z</time>
      </trkpt>
      <trkpt lat="47.7782" lon="-3.6827">
        <ele>6</ele>
        <time>2018-07-18T11:59:04Z</time>
      </trkpt>
      <trkpt lat="47.77816" lon="-3.68268">
        <ele>6</ele>
        <time>2018-07-18T11:59:05Z</time>
      </trkpt>
      <trkpt lat="47.77812" lon="-3.68265">
        <ele>6</ele>
        <time>2018-07-18T11:59:06Z</time>
      </trkpt>
      <trkpt lat="47.77807" lon="-3.68263">
        <ele>6</ele>
        <time>2018-07-18T11:59:07Z</time>
      </trkpt>
      <trkpt lat="47.77803" lon="-3.68261">
        <ele>6</ele>
        <time>2018-07-18T11:59:08Z</time>
      </trkpt>
      <trkpt lat="47.77799" lon="-3.68259">
        <ele>6</ele>
        <time>2018-07-18T11:59:09Z</time>
      </trkpt>
      <trkpt lat="47.77795" lon="-3.68258">
        <ele>7</ele>
        <time>2018-07-18T11:59:10Z</time>
      </trkpt>
      <trkpt lat="47.7779" lon="-3.68257">
        <ele>7</ele>
        <time>2018-07-18T11:59:11Z</time>
      </trkpt>
      <trkpt lat="47.77786" lon="-3.68255">
        <ele>7</ele>
        <time>2018-07-18T11:59:12Z</time>
      </trkpt>
      <trkpt lat="47.77783" lon="-3.68253">
        <ele>7</ele>
        <time>2018-07-18T11:59:13Z</time>
      </trkpt>
      <trkpt lat="47.77779" lon="-3.68251">
        <ele>7</ele>
        <time>2018-07-18T11:59:14Z</time>
      </trkpt>
      <trkpt lat="47.77776" lon="-3.68249">
        <ele>7</ele>
        <time>2018-07-18T11:59:15Z</time>
      </trkpt>
      <trkpt lat="47.77773" lon="-3.68246">
        <ele>7</ele>
        <time>2018-07-18T11:59:16Z</time>
      </trkpt>
      <trkpt lat="47.7777" lon="-3.68244">
        <ele>8</ele>
        <time>2018-07-18T11:59:17Z</time>
      </trkpt>
      <trkpt lat="47.77767" lon="-3.68243">
        <ele>8</ele>
        <time>2018-07-18T11:59:18Z</time>
      </trkpt>
      <trkpt lat="47.77765" lon="-3.68241">
        <ele>8</ele>
        <time>2018-07-18T11:59:19Z</time>
      </trkpt>
      <trkpt lat="47.77762" lon="-3.68239">
        <ele>8</ele>
        <time>2018-07-18T11:59:20Z</time>
      </trkpt>
      <trkpt lat="47.77761" lon="-3.68236">
        <ele>8</ele>
        <time>2018-07-18T11:59:21Z</time>
      </trkpt>
      <trkpt lat="47.77759" lon="-3.68232">
        <ele>8</ele>
        <time>2018-07-18T11:59:22Z</time>
      </trkpt>
      <trkpt lat="47.77758" lon="-3.68229">
        <ele>8</ele>
        <time>2018-07-18T11:59:23Z</time>
      </trkpt>
      <trkpt lat="47.77756" lon="-3.68225">
        <ele>8</ele>
        <time>2018-07-18T11:59:24Z</time>
      </trkpt>
      <trkpt lat="47.77754" lon="-3.68221">
        <ele>8</ele>
        <time>2018-07-18T11:59:25Z</time>
      </trkpt>
      <trkpt lat="47.77752" lon="-3.68217">
        <ele>8</ele>
        <time>2018-07-18T11:59:26Z</time>
      </trkpt>
      <trkpt lat="47.7775" lon="-3.68212">
        <ele>9</ele>
        <time>2018-07-18T11:59:27Z</time>
      </trkpt>
      <trkpt lat="47.77748" lon="-3.68208">
        <ele>9</ele>
        <time>2018-07-18T11:59:28Z</time>
      </trkpt>
      <trkpt lat="47.77747" lon="-3.68203">
        <ele>9</ele>
        <time>2018-07-18T11:59:29Z</time>
      </trkpt>
      <trkpt lat="47.77745" lon="-3.68198">
        <ele>9</ele>
        <time>2018-07-18T11:59:30Z</time>
      </trkpt>
      <trkpt lat="47.77744" lon="-3.68192">
        <ele>9</ele>
        <time>2018-07-18T11:59:31Z</time>
      </trkpt>
      <trkpt lat="47.77743" lon="-3.68187">
        <ele>9</ele>
        <time>2018-07-18T11:59:32Z</time>
      </trkpt>
      <trkpt lat="47.77743" lon="-3.68182">
        <ele>10</ele>
        <time>2018-07-18T11:59:33Z</time>
      </trkpt>
      <trkpt lat="47.77742" lon="-3.68176">
        <ele>10</ele>
        <time>2018-07-18T11:59:34Z</time>
      </trkpt>
      <trkpt lat="47.77742" lon="-3.68171">
        <ele>10</ele>
        <time>2018-07-18T11:59:35Z</time>
      </trkpt>
      <trkpt lat="47.77741" lon="-3.68165">
        <ele>10</ele>
        <time>2018-07-18T11:59:36Z</time>
      </trkpt>
      <trkpt lat="47.77739" lon="-3.68159">
        <ele>10</ele>
        <time>2018-07-18T11:59:37Z</time>
      </trkpt>
      <trkpt lat="47.77736" lon="-3.68154">
        <ele>10</ele>
        <time>2018-07-18T11:59:38Z</time>
      </trkpt>
      <trkpt lat="47.77733" lon="-3.68148">
        <ele>10</ele>
        <time>2018-07-18T11:59:39Z</time>
      </trkpt>
      <trkpt lat="47.7773" lon="-3.68142">
        <ele>9</ele>
        <time>2018-07-18T11:59:40Z</time>
      </trkpt>
      <trkpt lat="47.77728" lon="-3.68137">
        <ele>9</ele>
        <time>2018-07-18T11:59:41Z</time>
      </trkpt>
      <trkpt lat="47.77726" lon="-3.6813">
        <ele>9</ele>
        <time>2018-07-18T11:59:42Z</time>
      </trkpt>
      <trkpt lat="47.77724" lon="-3.68124">
        <ele>9</ele>
        <time>2018-07-18T11:59:43Z</time>
      </trkpt>
      <trkpt lat="47.77723" lon="-3.68118">
        <ele>9</ele>
        <time>2018-07-18T11:59:44Z</time>
      </trkpt>
      <trkpt lat="47.77722" lon="-3.68111">
        <ele>9</ele>
        <time>2018-07-18T11:59:45Z</time>
      </trkpt>
      <trkpt lat="47.7772" lon="-3.68104">
        <ele>9</ele>
        <time>2018-07-18T11:59:46Z</time>
      </trkpt>
      <trkpt lat="47.77717" lon="-3.68098">
        <ele>8</ele>
        <time>2018-07-18T11:59:47Z</time>
      </trkpt>
      <trkpt lat="47.77714" lon="-3.68092">
        <ele>8</ele>
        <time>2018-07-18T11:59:48Z</time>
      </trkpt>
      <trkpt lat="47.77713" lon="-3.68086">
        <ele>8</ele>
        <time>2018-07-18T11:59:49Z</time>
      </trkpt>
      <trkpt lat="47.77712" lon="-3.6808">
        <ele>8</ele>
        <time>2018-07-18T11:59:50Z</time>
      </trkpt>
      <trkpt lat="47.77711" lon="-3.68076">
        <ele>8</ele>
        <time>2018-07-18T11:59:51Z</time>
      </trkpt>
      <trkpt lat="47.77711" lon="-3.68071">
        <ele>8</ele>
        <time>2018-07-18T11:59:52Z</time>
      </trkpt>
      <trkpt lat="47.77711" lon="-3.68066">
        <ele>8</ele>
        <time>2018-07-18T11:59:53Z</time>
      </trkpt>
      <trkpt lat="47.77711" lon="-3.6806">
        <ele>8</ele>
        <time>2018-07-18T11:59:54Z</time>
      </trkpt>
      <trkpt lat="47.77712" lon="-3.68054">
        <ele>7</ele>
        <time>2018-07-18T11:59:55Z</time>
      </trkpt>
      <trkpt lat="47.77712" lon="-3.68048">
        <ele>8</ele>
        <time>2018-07-18T11:59:56Z</time>
      </trkpt>
      <trkpt lat="47.77714" lon="-3.68041">
        <ele>8</ele>
        <time>2018-07-18T11:59:57Z</time>
      </trkpt>
      <trkpt lat="47.77715" lon="-3.68035">
        <ele>8</ele>
        <time>2018-07-18T11:59:58Z</time>
      </trkpt>
      <trkpt lat="47.77716" lon="-3.68028">
        <ele>8</ele>
        <time>2018-07-18T11:59:59Z</time>
      </trkpt>
      <trkpt lat="47.77717" lon="-3.68021">
        <ele>8</ele>
        <time>2018-07-18T12:00:00Z</time>
      </trkpt>
      <trkpt lat="47.77717" lon="-3.68014">
        <ele>8</ele>
        <time>2018-07-18T12:00:01Z</time>
      </trkpt>
      <trkpt lat="47.77717" lon="-3.68007">
        <ele>7</ele>
        <time>2018-07-18T12:00:02Z</time>
      </trkpt>
      <trkpt lat="47.77717" lon="-3.67999">
        <ele>7</ele>
        <time>2018-07-18T12:00:03Z</time>
      </trkpt>
      <trkpt lat="47.77718" lon="-3.67992">
        <ele>7</ele>
        <time>2018-07-18T12:00:04Z</time>
      </trkpt>
      <trkpt lat="47.77719" lon="-3.67985">
        <ele>7</ele>
        <time>2018-07-18T12:00:05Z</time>
      </trkpt>
      <trkpt lat="47.77721" lon="-3.67978">
        <ele>7</ele>
        <time>2018-07-18T12:00:06Z</time>
      </trkpt>
      <trkpt lat="47.77722" lon="-3.67972">
        <ele>7</ele>
        <time>2018-07-18T12:00:07Z</time>
      </trkpt>
      <trkpt lat="47.77723" lon="-3.67965">
        <ele>7</ele>
        <time>2018-07-18T12:00:08Z</time>
      </trkpt>
      <trkpt lat="47.77723" lon="-3.67959">
        <ele>7</ele>
        <time>2018-07-18T12:00:09Z</time>
      </trkpt>
      <trkpt lat="47.77723" lon="-3.67952">
        <ele>7</ele>
        <time>2018-07-18T12:00:10Z</time>
      </trkpt>
      <trkpt lat="47.77724" lon="-3.67944">
        <ele>6</ele>
        <time>2018-07-18T12:00:11Z</time>
      </trkpt>
      <trkpt lat="47.77726" lon="-3.67936">
        <ele>6</ele>
        <time>2018-07-18T12:00:12Z</time>
      </trkpt>
      <trkpt lat="47.77728" lon="-3.67928">
        <ele>6</ele>
        <time>2018-07-18T12:00:13Z</time>
      </trkpt>
      <trkpt lat="47.7773" lon="-3.67922">
        <ele>6</ele>
        <time>2018-07-18T12:00:14Z</time>
      </trkpt>
      <trkpt lat="47.7773" lon="-3.67918">
        <ele>6</ele>
        <time>2018-07-18T12:00:15Z</time>
      </trkpt>
      <trkpt lat="47.77729" lon="-3.67913">
        <ele>6</ele>
        <time>2018-07-18T12:00:16Z</time>
      </trkpt>
      <trkpt lat="47.77726" lon="-3.67909">
        <ele>6</ele>
        <time>2018-07-18T12:00:17Z</time>
      </trkpt>
      <trkpt lat="47.77723" lon="-3.67905">
        <ele>5</ele>
        <time>2018-07-18T12:00:18Z</time>
      </trkpt>
      <trkpt lat="47.77718" lon="-3.67903">
        <ele>5</ele>
        <time>2018-07-18T12:00:19Z</time>
      </trkpt>
      <trkpt lat="47.77714" lon="-3.67899">
        <ele>5</ele>
        <time>2018-07-18T12:00:20Z</time>
      </trkpt>
      <trkpt lat="47.7771" lon="-3.67896">
        <ele>5</ele>
        <time>2018-07-18T12:00:21Z</time>
      </trkpt>
      <trkpt lat="47.77706" lon="-3.67893">
        <ele>5</ele>
        <time>2018-07-18T12:00:22Z</time>
      </trkpt>
      <trkpt lat="47.77702" lon="-3.67889">
        <ele>5</ele>
        <time>2018-07-18T12:00:23Z</time>
      </trkpt>
      <trkpt lat="47.77699" lon="-3.67885">
        <ele>5</ele>
        <time>2018-07-18T12:00:24Z</time>
      </trkpt>
      <trkpt lat="47.77696" lon="-3.67881">
        <ele>5</ele>
        <time>2018-07-18T12:00:25Z</time>
      </trkpt>
      <trkpt lat="47.77694" lon="-3.67876">
        <ele>5</ele>
        <time>2018-07-18T12:00:26Z</time>
      </trkpt>
      <trkpt lat="47.77691" lon="-3.67871">
        <ele>5</ele>
        <time>2018-07-18T12:00:27Z</time>
      </trkpt>
      <trkpt lat="47.7769" lon="-3.67866">
        <ele>5</ele>
        <time>2018-07-18T12:00:28Z</time>
      </trkpt>
      <trkpt lat="47.77687" lon="-3.67861">
        <ele>5</ele>
        <time>2018-07-18T12:00:29Z</time>
      </trkpt>
      <trkpt lat="47.77685" lon="-3.67856">
        <ele>6</ele>
        <time>2018-07-18T12:00:30Z</time>
      </trkpt>
      <trkpt lat="47.77683" lon="-3.6785">
        <ele>6</ele>
        <time>2018-07-18T12:00:31Z</time>
      </trkpt>
      <trkpt lat="47.77681" lon="-3.67844">
        <ele>6</ele>
        <time>2018-07-18T12:00:32Z</time>
      </trkpt>
      <trkpt lat="47.77678" lon="-3.67838">
        <ele>5</ele>
        <time>2018-07-18T12:00:33Z</time>
      </trkpt>
      <trkpt lat="47.77676" lon="-3.67831">
        <ele>5</ele>
        <time>2018-07-18T12:00:34Z</time>
      </trkpt>
      <trkpt lat="47.77674" lon="-3.67825">
        <ele>5</ele>
        <time>2018-07-18T12:00:35Z</time>
      </trkpt>
      <trkpt lat="47.77672" lon="-3.67818">
        <ele>5</ele>
        <time>2018-07-18T12:00:36Z</time>
      </trkpt>
      <trkpt lat="47.77669" lon="-3.67813">
        <ele>5</ele>
        <time>2018-07-18T12:00:37Z</time>
      </trkpt>
      <trkpt lat="47.77665" lon="-3.67808">
        <ele>5</ele>
        <time>2018-07-18T12:00:38Z</time>
      </trkpt>
      <trkpt lat="47.77663" lon="-3.67804">
        <ele>5</ele>
        <time>2018-07-18T12:00:39Z</time>
      </trkpt>
      <trkpt lat="47.77661" lon="-3.67798">
        <ele>5</ele>
        <time>2018-07-18T12:00:40Z</time>
      </trkpt>
      <trkpt lat="47.77661" lon="-3.67793">
        <ele>5</ele>
        <time>2018-07-18T12:00:41Z</time>
      </trkpt>
      <trkpt lat="47.77661" lon="-3.67788">
        <ele>5</ele>
        <time>2018-07-18T12:00:42Z</time>
      </trkpt>
      <trkpt lat="47.77661" lon="-3.67782">
        <ele>5</ele>
        <time>2018-07-18T12:00:43Z</time>
      </trkpt>
      <trkpt lat="47.77661" lon="-3.67776">
        <ele>5</ele>
        <time>2018-07-18T12:00:44Z</time>
      </trkpt>
      <trkpt lat="47.77662" lon="-3.6777">
        <ele>5</ele>
        <time>2018-07-18T12:00:45Z</time>
      </trkpt>
      <trkpt lat="47.77664" lon="-3.67764">
        <ele>5</ele>
        <time>2018-07-18T12:00:46Z</time>
      </trkpt>
      <trkpt lat="47.77664" lon="-3.67758">
        <ele>6</ele>
        <time>2018-07-18T12:00:47Z</time>
      </trkpt>
      <trkpt lat="47.77665" lon="-3.67752">
        <ele>6</ele>
        <time>2018-07-18T12:00:48Z</time>
      </trkpt>
      <trkpt lat="47.77665" lon="-3.67747">
        <ele>6</ele>
        <time>2018-07-18T12:00:49Z</time>
      </trkpt>
      <trkpt lat="47.77664" lon="-3.67743">
        <ele>6</ele>
        <time>2018-07-18T12:00:50Z</time>
      </trkpt>
      <trkpt lat="47.77661" lon="-3.67742">
        <ele>6</ele>
        <time>2018-07-18T12:00:51Z</time>
      </trkpt>
      <trkpt lat="47.77657" lon="-3.67742">
        <ele>6</ele>
        <time>2018-07-18T12:00:52Z</time>
      </trkpt>
      <trkpt lat="47.77654" lon="-3.67741">
        <ele>6</ele>
        <time>2018-07-18T12:00:53Z</time>
      </trkpt>
      <trkpt lat="47.7765" lon="-3.67738">
        <ele>6</ele>
        <time>2018-07-18T12:00:54Z</time>
      </trkpt>
      <trkpt lat="47.77647" lon="-3.67735">
        <ele>6</ele>
        <time>2018-07-18T12:00:55Z</time>
      </trkpt>
      <trkpt lat="47.77644" lon="-3.6773">
        <ele>6</ele>
        <time>2018-07-18T12:00:56Z</time>
      </trkpt>
      <trkpt lat="47.77643" lon="-3.67725">
        <ele>6</ele>
        <time>2018-07-18T12:00:57Z</time>
      </trkpt>
      <trkpt lat="47.77642" lon="-3.67719">
        <ele>6</ele>
        <time>2018-07-18T12:00:58Z</time>
      </trkpt>
      <trkpt lat="47.77641" lon="-3.67712">
        <ele>6</ele>
        <time>2018-07-18T12:00:59Z</time>
      </trkpt>
      <trkpt lat="47.7764" lon="-3.67705">
        <ele>6</ele>
        <time>2018-07-18T12:01:00Z</time>
      </trkpt>
      <trkpt lat="47.7764" lon="-3.67698">
        <ele>6</ele>
        <time>2018-07-18T12:01:01Z</time>
      </trkpt>
      <trkpt lat="47.77641" lon="-3.67692">
        <ele>6</ele>
        <time>2018-07-18T12:01:02Z</time>
      </trkpt>
      <trkpt lat="47.77644" lon="-3.67687">
        <ele>6</ele>
        <time>2018-07-18T12:01:03Z</time>
      </trkpt>
      <trkpt lat="47.77647" lon="-3.67682">
        <ele>6</ele>
        <time>2018-07-18T12:01:04Z</time>
      </trkpt>
      <trkpt lat="47.77649" lon="-3.67678">
        <ele>6</ele>
        <time>2018-07-18T12:01:05Z</time>
      </trkpt>
      <trkpt lat="47.77651" lon="-3.67673">
        <ele>6</ele>
        <time>2018-07-18T12:01:06Z</time>
      </trkpt>
      <trkpt lat="47.77654" lon="-3.67668">
        <ele>6</ele>
        <time>2018-07-18T12:01:07Z</time>
      </trkpt>
      <trkpt lat="47.77657" lon="-3.67663">
        <ele>6</ele>
        <time>2018-07-18T12:01:08Z</time>
      </trkpt>
      <trkpt lat="47.77659" lon="-3.67659">
        <ele>6</ele>
        <time>2018-07-18T12:01:09Z</time>
      </trkpt>
      <trkpt lat="47.77661" lon="-3.67653">
        <ele>6</ele>
        <time>2018-07-18T12:01:10Z</time>
      </trkpt>
      <trkpt lat="47.77661" lon="-3.67647">
        <ele>5</ele>
        <time>2018-07-18T12:01:11Z</time>
      </trkpt>
      <trkpt lat="47.77661" lon="-3.6764">
        <ele>5</ele>
        <time>2018-07-18T12:01:12Z</time>
      </trkpt>
      <trkpt lat="47.77662" lon="-3.67634">
        <ele>5</ele>
        <time>2018-07-18T12:01:13Z</time>
      </trkpt>
      <trkpt lat="47.77662" lon="-3.67627">
        <ele>5</ele>
        <time>2018-07-18T12:01:14Z</time>
      </trkpt>
      <trkpt lat="47.77662" lon="-3.6762">
        <ele>5</ele>
        <time>2018-07-18T12:01:15Z</time>
      </trkpt>
      <trkpt lat="47.77661" lon="-3.67613">
        <ele>5</ele>
        <time>2018-07-18T12:01:16Z</time>
      </trkpt>
      <trkpt lat="47.7766" lon="-3.67606">
        <ele>4</ele>
        <time>2018-07-18T12:01:17Z</time>
      </trkpt>
      <trkpt lat="47.7766" lon="-3.67599">
        <ele>4</ele>
        <time>2018-07-18T12:01:18Z</time>
      </trkpt>
      <trkpt lat="47.77661" lon="-3.67592">
        <ele>4</ele>
        <time>2018-07-18T12:01:19Z</time>
      </trkpt>
      <trkpt lat="47.77663" lon="-3.67585">
        <ele>4</ele>
        <time>2018-07-18T12:01:20Z</time>
      </trkpt>
      <trkpt lat="47.77666" lon="-3.6758">
        <ele>4</ele>
        <time>2018-07-18T12:01:21Z</time>
      </trkpt>
      <trkpt lat="47.77669" lon="-3.67575">
        <ele>4</ele>
        <time>2018-07-18T12:01:22Z</time>
      </trkpt>
      <trkpt lat="47.77673" lon="-3.67571">
        <ele>3</ele>
        <time>2018-07-18T12:01:23Z</time>
      </trkpt>
      <trkpt lat="47.77674" lon="-3.67566">
        <ele>3</ele>
        <time>2018-07-18T12:01:24Z</time>
      </trkpt>
      <trkpt lat="47.77674" lon="-3.67561">
        <ele>4</ele>
        <time>2018-07-18T12:01:25Z</time>
      </trkpt>
      <trkpt lat="47.77674" lon="-3.67555">
        <ele>4</ele>
        <time>2018-07-18T12:01:26Z</time>
      </trkpt>
      <trkpt lat="47.77673" lon="-3.6755">
        <ele>4</ele>
        <time>2018-07-18T12:01:27Z</time>
      </trkpt>
      <trkpt lat="47.77671" lon="-3.67544">
        <ele>4</ele>
        <time>2018-07-18T12:01:28Z</time>
      </trkpt>
      <trkpt lat="47.77669" lon="-3.67538">
        <ele>4</ele>
        <time>2018-07-18T12:01:29Z</time>
      </trkpt>
      <trkpt lat="47.77668" lon="-3.67532">
        <ele>4</ele>
        <time>2018-07-18T12:01:30Z</time>
      </trkpt>
      <trkpt lat="47.77668" lon="-3.67525">
        <ele>4</ele>
        <time>2018-07-18T12:01:31Z</time>
      </trkpt>
      <trkpt lat="47.77669" lon="-3.67519">
        <ele>4</ele>
        <time>2018-07-18T12:01:32Z</time>
      </trkpt>
      <trkpt lat="47.77671" lon="-3.67513">
        <ele>4</ele>
        <time>2018-07-18T12:01:33Z</time>
      </trkpt>
      <trkpt lat="47.77672" lon="-3.67507">
        <ele>4</ele>
        <time>2018-07-18T12:01:34Z</time>
      </trkpt>
      <trkpt lat="47.77671" lon="-3.67502">
        <ele>4</ele>
        <time>2018-07-18T12:01:35Z</time>
      </trkpt>
      <trkpt lat="47.77669" lon="-3.67498">
        <ele>4</ele>
        <time>2018-07-18T12:01:36Z</time>
      </trkpt>
      <trkpt lat="47.77666" lon="-3.67494">
        <ele>4</ele>
        <time>2018-07-18T12:01:37Z</time>
      </trkpt>
      <trkpt lat="47.77664" lon="-3.6749">
        <ele>4</ele>
        <time>2018-07-18T12:01:38Z</time>
      </trkpt>
      <trkpt lat="47.77662" lon="-3.67484">
        <ele>4</ele>
        <time>2018-07-18T12:01:39Z</time>
      </trkpt>
      <trkpt lat="47.77661" lon="-3.67478">
        <ele>4</ele>
        <time>2018-07-18T12:01:40Z</time>
      </trkpt>
      <trkpt lat="47.77661" lon="-3.67472">
        <ele>4</ele>
        <time>2018-07-18T12:01:41Z</time>
      </trkpt>
      <trkpt lat="47.77661" lon="-3.67466">
        <ele>4</ele>
        <time>2018-07-18T12:01:42Z</time>
      </trkpt>
      <trkpt lat="47.77661" lon="-3.6746">
        <ele>4</ele>
        <time>2018-07-18T12:01:43Z</time>
      </trkpt>
      <trkpt lat="47.77661" lon="-3.67455">
        <ele>5</ele>
        <time>2018-07-18T12:01:44Z</time>
      </trkpt>
      <trkpt lat="47.77662" lon="-3.67449">
        <ele>5</ele>
        <time>2018-07-18T12:01:45Z</time>
      </trkpt>
      <trkpt lat="47.77663" lon="-3.67443">
        <ele>5</ele>
        <time>2018-07-18T12:01:46Z</time>
      </trkpt>
      <trkpt lat="47.77664" lon="-3.67438">
        <ele>5</ele>
        <time>2018-07-18T12:01:47Z</time>
      </trkpt>
      <trkpt lat="47.77666" lon="-3.67432">
        <ele>5</ele>
        <time>2018-07-18T12:01:48Z</time>
      </trkpt>
      <trkpt lat="47.77667" lon="-3.67427">
        <ele>5</ele>
        <time>2018-07-18T12:01:49Z</time>
      </trkpt>
      <trkpt lat="47.77669" lon="-3.67423">
        <ele>5</ele>
        <time>2018-07-18T12:01:50Z</time>
      </trkpt>
      <trkpt lat="47.77671" lon="-3.67419">
        <ele>5</ele>
        <time>2018-07-18T12:01:51Z</time>
      </trkpt>
      <trkpt lat="47.77674" lon="-3.67417">
        <ele>5</ele>
        <time>2018-07-18T12:01:52Z</time>
      </trkpt>
      <trkpt lat="47.77677" lon="-3.67416">
        <ele>5</ele>
        <time>2018-07-18T12:01:53Z</time>
      </trkpt>
      <trkpt lat="47.7768" lon="-3.67415">
        <ele>5</ele>
        <time>2018-07-18T12:01:54Z</time>
      </trkpt>
      <trkpt lat="47.77682" lon="-3.67412">
        <ele>5</ele>
        <time>2018-07-18T12:01:55Z</time>
      </trkpt>
      <trkpt lat="47.77684" lon="-3.67409">
        <ele>5</ele>
        <time>2018-07-18T12:01:56Z</time>
      </trkpt>
      <trkpt lat="47.77687" lon="-3.67405">
        <ele>6</ele>
        <time>2018-07-18T12:01:57Z</time>
      </trkpt>
      <trkpt lat="47.7769" lon="-3.67403">
        <ele>6</ele>
        <time>2018-07-18T12:01:58Z</time>
      </trkpt>
      <trkpt lat="47.77694" lon="-3.67403">
        <ele>6</ele>
        <time>2018-07-18T12:01:59Z</time>
      </trkpt>
      <trkpt lat="47.77697" lon="-3.67403">
        <ele>6</ele>
        <time>2018-07-18T12:02:00Z</time>
      </trkpt>
      <trkpt lat="47.77701" lon="-3.67402">
        <ele>6</ele>
        <time>2018-07-18T12:02:01Z</time>
      </trkpt>
      <trkpt lat="47.77704" lon="-3.674">
        <ele>7</ele>
        <time>2018-07-18T12:02:02Z</time>
      </trkpt>
      <trkpt lat="47.77705" lon="-3.67395">
        <ele>7</ele>
        <time>2018-07-18T12:02:03Z</time>
      </trkpt>
      <trkpt lat="47.77706" lon="-3.6739">
        <ele>7</ele>
        <time>2018-07-18T12:02:04Z</time>
      </trkpt>
      <trkpt lat="47.77704" lon="-3.67385">
        <ele>7</ele>
        <time>2018-07-18T12:02:05Z</time>
      </trkpt>
      <trkpt lat="47.77703" lon="-3.67379">
        <ele>7</ele>
        <time>2018-07-18T12:02:06Z</time>
      </trkpt>
      <trkpt lat="47.77701" lon="-3.67374">
        <ele>7</ele>
        <time>2018-07-18T12:02:07Z</time>
      </trkpt>
      <trkpt lat="47.77701" lon="-3.67368">
        <ele>6</ele>
        <time>2018-07-18T12:02:08Z</time>
      </trkpt>
      <trkpt lat="47.77703" lon="-3.67363">
        <ele>6</ele>
        <time>2018-07-18T12:02:09Z</time>
      </trkpt>
      <trkpt lat="47.77705" lon="-3.6736">
        <ele>6</ele>
        <time>2018-07-18T12:02:10Z</time>
      </trkpt>
      <trkpt lat="47.77707" lon="-3.67355">
        <ele>6</ele>
        <time>2018-07-18T12:02:11Z</time>
      </trkpt>
      <trkpt lat="47.77709" lon="-3.6735">
        <ele>6</ele>
        <time>2018-07-18T12:02:12Z</time>
      </trkpt>
      <trkpt lat="47.77711" lon="-3.67344">
        <ele>6</ele>
        <time>2018-07-18T12:02:13Z</time>
      </trkpt>
      <trkpt lat="47.77712" lon="-3.67338">
        <ele>6</ele>
        <time>2018-07-18T12:02:14Z</time>
      </trkpt>
      <trkpt lat="47.77713" lon="-3.67331">
        <ele>6</ele>
        <time>2018-07-18T12:02:15Z</time>
      </trkpt>
      <trkpt lat="47.77715" lon="-3.67325">
        <ele>6</ele>
        <time>2018-07-18T12:02:16Z</time>
      </trkpt>
      <trkpt lat="47.77717" lon="-3.67318">
        <ele>6</ele>
        <time>2018-07-18T12:02:17Z</time>
      </trkpt>
      <trkpt lat="47.77719" lon="-3.67311">
        <ele>6</ele>
        <time>2018-07-18T12:02:18Z</time>
      </trkpt>
      <trkpt lat="47.77722" lon="-3.67304">
        <ele>6</ele>
        <time>2018-07-18T12:02:19Z</time>
      </trkpt>
      <trkpt lat="47.77725" lon="-3.67299">
        <ele>6</ele>
        <time>2018-07-18T12:02:20Z</time>
      </trkpt>
      <trkpt lat="47.7773" lon="-3.67296">
        <ele>6</ele>
        <time>2018-07-18T12:02:21Z</time>
      </trkpt>
      <trkpt lat="47.77734" lon="-3.67294">
        <ele>6</ele>
        <time>2018-07-18T12:02:22Z</time>
      </trkpt>
      <trkpt lat="47.77739" lon="-3.67293">
        <ele>6</ele>
        <time>2018-07-18T12:02:23Z</time>
      </trkpt>
      <trkpt lat="47.77744" lon="-3.67292">
        <ele>6</ele>
        <time>2018-07-18T12:02:24Z</time>
      </trkpt>
      <trkpt lat="47.77749" lon="-3.67292">
        <ele>6</ele>
        <time>2018-07-18T12:02:25Z</time>
      </trkpt>
      <trkpt lat="47.77753" lon="-3.67291">
        <ele>6</ele>
        <time>2018-07-18T12:02:26Z</time>
      </trkpt>
      <trkpt lat="47.77758" lon="-3.6729">
        <ele>6</ele>
        <time>2018-07-18T12:02:27Z</time>
      </trkpt>
      <trkpt lat="47.77762" lon="-3.67289">
        <ele>6</ele>
        <time>2018-07-18T12:02:28Z</time>
      </trkpt>
      <trkpt lat="47.77767" lon="-3.67287">
        <ele>6</ele>
        <time>2018-07-18T12:02:29Z</time>
      </trkpt>
      <trkpt lat="47.77771" lon="-3.67283">
        <ele>6</ele>
        <time>2018-07-18T12:02:30Z</time>
      </trkpt>
      <trkpt lat="47.77774" lon="-3.67278">
        <ele>6</ele>
        <time>2018-07-18T12:02:31Z</time>
      </trkpt>
      <trkpt lat="47.77778" lon="-3.67272">
        <ele>6</ele>
        <time>2018-07-18T12:02:32Z</time>
      </trkpt>
      <trkpt lat="47.77781" lon="-3.67267">
        <ele>6</ele>
        <time>2018-07-18T12:02:33Z</time>
      </trkpt>
      <trkpt lat="47.77785" lon="-3.67263">
        <ele>6</ele>
        <time>2018-07-18T12:02:34Z</time>
      </trkpt>
      <trkpt lat="47.77789" lon="-3.67258">
        <ele>6</ele>
        <time>2018-07-18T12:02:35Z</time>
      </trkpt>
      <trkpt lat="47.77792" lon="-3.67253">
        <ele>6</ele>
        <time>2018-07-18T12:02:36Z</time>
      </trkpt>
      <trkpt lat="47.77796" lon="-3.67248">
        <ele>6</ele>
        <time>2018-07-18T12:02:37Z</time>
      </trkpt>
      <trkpt lat="47.77801" lon="-3.67245">
        <ele>6</ele>
        <time>2018-07-18T12:02:38Z</time>
      </trkpt>
      <trkpt lat="47.77805" lon="-3.67243">
        <ele>6</ele>
        <time>2018-07-18T12:02:39Z</time>
      </trkpt>
      <trkpt lat="47.77809" lon="-3.67241">
        <ele>6</ele>
        <time>2018-07-18T12:02:40Z</time>
      </trkpt>
      <trkpt lat="47.77814" lon="-3.67239">
        <ele>6</ele>
        <time>2018-07-18T12:02:41Z</time>
      </trkpt>
      <trkpt lat="47.77819" lon="-3.67237">
        <ele>6</ele>
        <time>2018-07-18T12:02:42Z</time>
      </trkpt>
      <trkpt lat="47.77823" lon="-3.67236">
        <ele>6</ele>
        <time>2018-07-18T12:02:43Z</time>
      </trkpt>
      <trkpt lat="47.77828" lon="-3.67237">
        <ele>6</ele>
        <time>2018-07-18T12:02:44Z</time>
      </trkpt>
      <trkpt lat="47.77831" lon="-3.67239">
        <ele>6</ele>
        <time>2018-07-18T12:02:45Z</time>
      </trkpt>
      <trkpt lat="47.77835" lon="-3.67241">
        <ele>6</ele>
        <time>2018-07-18T12:02:46Z</time>
      </trkpt>
      <trkpt lat="47.77839" lon="-3.67243">
        <ele>6</ele>
        <time>2018-07-18T12:02:47Z</time>
      </trkpt>
      <trkpt lat="47.77843" lon="-3.67245">
        <ele>6</ele>
        <time>2018-07-18T12:02:48Z</time>
      </trkpt>
      <trkpt lat="47.77847" lon="-3.67247">
        <ele>6</ele>
        <time>2018-07-18T12:02:49Z</time>
      </trkpt>
      <trkpt lat="47.77851" lon="-3.6725">
        <ele>6</ele>
        <time>2018-07-18T12:02:50Z</time>
      </trkpt>
      <trkpt lat="47.77854" lon="-3.67253">
        <ele>7</ele>
        <time>2018-07-18T12:02:51Z</time>
      </trkpt>
      <trkpt lat="47.77858" lon="-3.67256">
        <ele>7</ele>
        <time>2018-07-18T12:02:52Z</time>
      </trkpt>
      <trkpt lat="47.77861" lon="-3.6726">
        <ele>7</ele>
        <time>2018-07-18T12:02:53Z</time>
      </trkpt>
      <trkpt lat="47.77865" lon="-3.67263">
        <ele>7</ele>
        <time>2018-07-18T12:02:54Z</time>
      </trkpt>
      <trkpt lat="47.7787" lon="-3.67265">
        <ele>7</ele>
        <time>2018-07-18T12:02:55Z</time>
      </trkpt>
      <trkpt lat="47.77874" lon="-3.67266">
        <ele>7</ele>
        <time>2018-07-18T12:02:56Z</time>
      </trkpt>
      <trkpt lat="47.77878" lon="-3.67267">
        <ele>7</ele>
        <time>2018-07-18T12:02:57Z</time>
      </trkpt>
      <trkpt lat="47.77883" lon="-3.67267">
        <ele>7</ele>
        <time>2018-07-18T12:02:58Z</time>
      </trkpt>
      <trkpt lat="47.77887" lon="-3.67268">
        <ele>7</ele>
        <time>2018-07-18T12:02:59Z</time>
      </trkpt>
      <trkpt lat="47.7789" lon="-3.67269">
        <ele>7</ele>
        <time>2018-07-18T12:03:00Z</time>
      </trkpt>
      <trkpt lat="47.77894" lon="-3.67271">
        <ele>7</ele>
        <time>2018-07-18T12:03:01Z</time>
      </trkpt>
      <trkpt lat="47.77898" lon="-3.67273">
        <ele>7</ele>
        <time>2018-07-18T12:03:02Z</time>
      </trkpt>
      <trkpt lat="47.77902" lon="-3.67275">
        <ele>7</ele>
        <time>2018-07-18T12:03:03Z</time>
      </trkpt>
      <trkpt lat="47.77905" lon="-3.67278">
        <ele>7</ele>
        <time>2018-07-18T12:03:04Z</time>
      </trkpt>
      <trkpt lat="47.77909" lon="-3.67281">
        <ele>7</ele>
        <time>2018-07-18T12:03:05Z</time>
      </trkpt>
      <trkpt lat="47.77912" lon="-3.67283">
        <ele>7</ele>
        <time>2018-07-18T12:03:06Z</time>
      </trkpt>
      <trkpt lat="47.77916" lon="-3.67283">
        <ele>7</ele>
        <time>2018-07-18T12:03:07Z</time>
      </trkpt>
      <trkpt lat="47.7792" lon="-3.67283">
        <ele>7</ele>
        <time>2018-07-18T12:03:08Z</time>
      </trkpt>
      <trkpt lat="47.77924" lon="-3.67282">
        <ele>7</ele>
        <time>2018-07-18T12:03:09Z</time>
      </trkpt>
      <trkpt lat="47.77927" lon="-3.67281">
        <ele>7</ele>
        <time>2018-07-18T12:03:10Z</time>
      </trkpt>
      <trkpt lat="47.77931" lon="-3.6728">
        <ele>7</ele>
        <time>2018-07-18T12:03:11Z</time>
      </trkpt>
      <trkpt lat="47.77934" lon="-3.67279">
        <ele>7</ele>
        <time>2018-07-18T12:03:12Z</time>
      </trkpt>
      <trkpt lat="47.77938" lon="-3.67279">
        <ele>7</ele>
        <time>2018-07-18T12:03:13Z</time>
      </trkpt>
      <trkpt lat="47.77941" lon="-3.67278">
        <ele>8</ele>
        <time>2018-07-18T12:03:14Z</time>
      </trkpt>
      <trkpt lat="47.77945" lon="-3.67277">
        <ele>8</ele>
        <time>2018-07-18T12:03:15Z</time>
      </trkpt>
      <trkpt lat="47.77949" lon="-3.67276">
        <ele>8</ele>
        <time>2018-07-18T12:03:16Z</time>
      </trkpt>
      <trkpt lat="47.77953" lon="-3.67275">
        <ele>8</ele>
        <time>2018-07-18T12:03:17Z</time>
      </trkpt>
      <trkpt lat="47.77956" lon="-3.67274">
        <ele>8</ele>
        <time>2018-07-18T12:03:18Z</time>
      </trkpt>
      <trkpt lat="47.77959" lon="-3.67273">
        <ele>8</ele>
        <time>2018-07-18T12:03:19Z</time>
      </trkpt>
      <trkpt lat="47.77962" lon="-3.67272">
        <ele>8</ele>
        <time>2018-07-18T12:03:20Z</time>
      </trkpt>
      <trkpt lat="47.77965" lon="-3.67272">
        <ele>8</ele>
        <time>2018-07-18T12:03:21Z</time>
      </trkpt>
      <trkpt lat="47.77966" lon="-3.67269">
        <ele>8</ele>
        <time>2018-07-18T12:03:22Z</time>
      </trkpt>
      <trkpt lat="47.77968" lon="-3.67267">
        <ele>8</ele>
        <time>2018-07-18T12:03:23Z</time>
      </trkpt>
      <trkpt lat="47.77969" lon="-3.67265">
        <ele>9</ele>
        <time>2018-07-18T12:03:24Z</time>
      </trkpt>
      <trkpt lat="47.7797" lon="-3.67262">
        <ele>9</ele>
        <time>2018-07-18T12:03:25Z</time>
      </trkpt>
      <trkpt lat="47.77971" lon="-3.6726">
        <ele>9</ele>
        <time>2018-07-18T12:03:26Z</time>
      </trkpt>
      <trkpt lat="47.77973" lon="-3.67258">
        <ele>9</ele>
        <time>2018-07-18T12:03:27Z</time>
      </trkpt>
      <trkpt lat="47.77974" lon="-3.67255">
        <ele>9</ele>
        <time>2018-07-18T12:03:28Z</time>
      </trkpt>
      <trkpt lat="47.77976" lon="-3.67252">
        <ele>9</ele>
        <time>2018-07-18T12:03:29Z</time>
      </trkpt>
      <trkpt lat="47.77977" lon="-3.67249">
        <ele>9</ele>
        <time>2018-07-18T12:03:30Z</time>
      </trkpt>
      <trkpt lat="47.77979" lon="-3.67246">
        <ele>10</ele>
        <time>2018-07-18T12:03:31Z</time>
      </trkpt>
      <trkpt lat="47.77981" lon="-3.67244">
        <ele>10</ele>
        <time>2018-07-18T12:03:32Z</time>
      </trkpt>
      <trkpt lat="47.77984" lon="-3.67242">
        <ele>10</ele>
        <time>2018-07-18T12:03:33Z</time>
      </trkpt>
      <trkpt lat="47.77986" lon="-3.6724">
        <ele>10</ele>
        <time>2018-07-18T12:03:34Z</time>
      </trkpt>
      <trkpt lat="47.77989" lon="-3.67239">
        <ele>10</ele>
        <time>2018-07-18T12:03:35Z</time>
      </trkpt>
      <trkpt lat="47.77991" lon="-3.67238">
        <ele>10</ele>
        <time>2018-07-18T12:03:36Z</time>
      </trkpt>
      <trkpt lat="47.77994" lon="-3.67237">
        <ele>11</ele>
        <time>2018-07-18T12:03:37Z</time>
      </trkpt>
      <trkpt lat="47.77997" lon="-3.67235">
        <ele>11</ele>
        <time>2018-07-18T12:03:38Z</time>
      </trkpt>
      <trkpt lat="47.77999" lon="-3.67234">
        <ele>11</ele>
        <time>2018-07-18T12:03:39Z</time>
      </trkpt>
      <trkpt lat="47.78002" lon="-3.67233">
        <ele>11</ele>
        <time>2018-07-18T12:03:40Z</time>
      </trkpt>
      <trkpt lat="47.78005" lon="-3.67231">
        <ele>12</ele>
        <time>2018-07-18T12:03:41Z</time>
      </trkpt>
      <trkpt lat="47.78007" lon="-3.67229">
        <ele>12</ele>
        <time>2018-07-18T12:03:42Z</time>
      </trkpt>
      <trkpt lat="47.78009" lon="-3.67227">
        <ele>12</ele>
        <time>2018-07-18T12:03:43Z</time>
      </trkpt>
      <trkpt lat="47.78012" lon="-3.67224">
        <ele>12</ele>
        <time>2018-07-18T12:03:44Z</time>
      </trkpt>
      <trkpt lat="47.78014" lon="-3.67222">
        <ele>13</ele>
        <time>2018-07-18T12:03:45Z</time>
      </trkpt>
      <trkpt lat="47.78016" lon="-3.6722">
        <ele>13</ele>
        <time>2018-07-18T12:03:46Z</time>
      </trkpt>
      <trkpt lat="47.78019" lon="-3.67217">
        <ele>13</ele>
        <time>2018-07-18T12:03:47Z</time>
      </trkpt>
      <trkpt lat="47.78022" lon="-3.67216">
        <ele>13</ele>
        <time>2018-07-18T12:03:48Z</time>
      </trkpt>
      <trkpt lat="47.78025" lon="-3.67214">
        <ele>13</ele>
        <time>2018-07-18T12:03:49Z</time>
      </trkpt>
      <trkpt lat="47.78027" lon="-3.67213">
        <ele>13</ele>
        <time>2018-07-18T12:03:50Z</time>
      </trkpt>
      <trkpt lat="47.7803" lon="-3.67211">
        <ele>13</ele>
        <time>2018-07-18T12:03:51Z</time>
      </trkpt>
      <trkpt lat="47.78033" lon="-3.6721">
        <ele>13</ele>
        <time>2018-07-18T12:03:52Z</time>
      </trkpt>
      <trkpt lat="47.78035" lon="-3.67209">
        <ele>14</ele>
        <time>2018-07-18T12:03:53Z</time>
      </trkpt>
      <trkpt lat="47.78038" lon="-3.67207">
        <ele>14</ele>
        <time>2018-07-18T12:03:54Z</time>
      </trkpt>
      <trkpt lat="47.78041" lon="-3.67206">
        <ele>14</ele>
        <time>2018-07-18T12:03:55Z</time>
      </trkpt>
      <trkpt lat="47.78044" lon="-3.67205">
        <ele>14</ele>
        <time>2018-07-18T12:03:56Z</time>
      </trkpt>
      <trkpt lat="47.78046" lon="-3.67205">
        <ele>14</ele>
        <time>2018-07-18T12:03:57Z</time>
      </trkpt>
      <trkpt lat="47.78049" lon="-3.67205">
        <ele>15</ele>
        <time>2018-07-18T12:03:58Z</time>
      </trkpt>
      <trkpt lat="47.78051" lon="-3.67205">
        <ele>15</ele>
        <time>2018-07-18T12:03:59Z</time>
      </trkpt>
      <trkpt lat="47.78054" lon="-3.67204">
        <ele>15</ele>
        <time>2018-07-18T12:04:00Z</time>
      </trkpt>
      <trkpt lat="47.78058" lon="-3.67203">
        <ele>15</ele>
        <time>2018-07-18T12:04:01Z</time>
      </trkpt>
      <trkpt lat="47.78061" lon="-3.67201">
        <ele>15</ele>
        <time>2018-07-18T12:04:02Z</time>
      </trkpt>
      <trkpt lat="47.78064" lon="-3.672">
        <ele>16</ele>
        <time>2018-07-18T12:04:03Z</time>
      </trkpt>
      <trkpt lat="47.78067" lon="-3.67199">
        <ele>16</ele>
        <time>2018-07-18T12:04:04Z</time>
      </trkpt>
      <trkpt lat="47.7807" lon="-3.67197">
        <ele>16</ele>
        <time>2018-07-18T12:04:05Z</time>
      </trkpt>
      <trkpt lat="47.78072" lon="-3.67196">
        <ele>16</ele>
        <time>2018-07-18T12:04:06Z</time>
      </trkpt>
      <trkpt lat="47.78075" lon="-3.67194">
        <ele>16</ele>
        <time>2018-07-18T12:04:07Z</time>
      </trkpt>
      <trkpt lat="47.78078" lon="-3.67192">
        <ele>17</ele>
        <time>2018-07-18T12:04:08Z</time>
      </trkpt>
      <trkpt lat="47.78081" lon="-3.6719">
        <ele>17</ele>
        <time>2018-07-18T12:04:09Z</time>
      </trkpt>
      <trkpt lat="47.78084" lon="-3.67187">
        <ele>17</ele>
        <time>2018-07-18T12:04:10Z</time>
      </trkpt>
      <trkpt lat="47.78087" lon="-3.67185">
        <ele>17</ele>
        <time>2018-07-18T12:04:11Z</time>
      </trkpt>
      <trkpt lat="47.78091" lon="-3.67183">
        <ele>17</ele>
        <time>2018-07-18T12:04:12Z</time>
      </trkpt>
      <trkpt lat="47.78094" lon="-3.67182">
        <ele>17</ele>
        <time>2018-07-18T12:04:13Z</time>
      </trkpt>
      <trkpt lat="47.78097" lon="-3.67181">
        <ele>17</ele>
        <time>2018-07-18T12:04:14Z</time>
      </trkpt>
      <trkpt lat="47.781" lon="-3.67181">
        <ele>17</ele>
        <time>2018-07-18T12:04:15Z</time>
      </trkpt>
      <trkpt lat="47.78103" lon="-3.67181">
        <ele>17</ele>
        <time>2018-07-18T12:04:16Z</time>
      </trkpt>
      <trkpt lat="47.78107" lon="-3.67181">
        <ele>17</ele>
        <time>2018-07-18T12:04:17Z</time>
      </trkpt>
      <trkpt lat="47.7811" lon="-3.67181">
        <ele>18</ele>
        <time>2018-07-18T12:04:18Z</time>
      </trkpt>
      <trkpt lat="47.78113" lon="-3.67181">
        <ele>18</ele>
        <time>2018-07-18T12:04:19Z</time>
      </trkpt>
      <trkpt lat="47.78116" lon="-3.67181">
        <ele>18</ele>
        <time>2018-07-18T12:04:20Z</time>
      </trkpt>
      <trkpt lat="47.78119" lon="-3.67181">
        <ele>18</ele>
        <time>2018-07-18T12:04:21Z</time>
      </trkpt>
      <trkpt lat="47.78121" lon="-3.67182">
        <ele>18</ele>
        <time>2018-07-18T12:04:22Z</time>
      </trkpt>
      <trkpt lat="47.78124" lon="-3.67182">
        <ele>19</ele>
        <time>2018-07-18T12:04:23Z</time>
      </trkpt>
      <trkpt lat="47.78127" lon="-3.67182">
        <ele>19</ele>
        <time>2018-07-18T12:04:24Z</time>
      </trkpt>
      <trkpt lat="47.7813" lon="-3.67182">
        <ele>19</ele>
        <time>2018-07-18T12:04:25Z</time>
      </trkpt>
      <trkpt lat="47.78133" lon="-3.67182">
        <ele>20</ele>
        <time>2018-07-18T12:04:26Z</time>
      </trkpt>
      <trkpt lat="47.78136" lon="-3.67182">
        <ele>20</ele>
        <time>2018-07-18T12:04:27Z</time>
      </trkpt>
      <trkpt lat="47.78139" lon="-3.67182">
        <ele>20</ele>
        <time>2018-07-18T12:04:28Z</time>
      </trkpt>
      <trkpt lat="47.78141" lon="-3.67183">
        <ele>20</ele>
        <time>2018-07-18T12:04:29Z</time>
      </trkpt>
      <trkpt lat="47.78144" lon="-3.67183">
        <ele>21</ele>
        <time>2018-07-18T12:04:30Z</time>
      </trkpt>
      <trkpt lat="47.78147" lon="-3.67183">
        <ele>21</ele>
        <time>2018-07-18T12:04:31Z</time>
      </trkpt>
      <trkpt lat="47.7815" lon="-3.67184">
        <ele>21</ele>
        <time>2018-07-18T12:04:32Z</time>
      </trkpt>
      <trkpt lat="47.78152" lon="-3.67184">
        <ele>21</ele>
        <time>2018-07-18T12:04:33Z</time>
      </trkpt>
      <trkpt lat="47.78155" lon="-3.67183">
        <ele>22</ele>
        <time>2018-07-18T12:04:34Z</time>
      </trkpt>
      <trkpt lat="47.78157" lon="-3.67181">
        <ele>22</ele>
        <time>2018-07-18T12:04:35Z</time>
      </trkpt>
      <trkpt lat="47.78159" lon="-3.67178">
        <ele>22</ele>
        <time>2018-07-18T12:04:36Z</time>
      </trkpt>
      <trkpt lat="47.78161" lon="-3.67175">
        <ele>22</ele>
        <time>2018-07-18T12:04:37Z</time>
      </trkpt>
      <trkpt lat="47.78163" lon="-3.67172">
        <ele>22</ele>
        <time>2018-07-18T12:04:38Z</time>
      </trkpt>
      <trkpt lat="47.78165" lon="-3.6717">
        <ele>22</ele>
        <time>2018-07-18T12:04:39Z</time>
      </trkpt>
      <trkpt lat="47.78166" lon="-3.67169">
        <ele>22</ele>
        <time>2018-07-18T12:04:40Z</time>
      </trkpt>
      <trkpt lat="47.78166" lon="-3.67169">
        <ele>22</ele>
        <time>2018-07-18T12:04:41Z</time>
      </trkpt>
      <trkpt lat="47.78166" lon="-3.67169">
        <ele>22</ele>
        <time>2018-07-18T12:04:42Z</time>
      </trkpt>
      <trkpt lat="47.78166" lon="-3.67169">
        <ele>22</ele>
        <time>2018-07-18T12:04:43Z</time>
      </trkpt>
      <trkpt lat="47.78166" lon="-3.67169">
        <ele>23</ele>
        <time>2018-07-18T12:04:44Z</time>
      </trkpt>
      <trkpt lat="47.7817" lon="-3.67165">
        <ele>23</ele>
        <time>2018-07-18T12:04:45Z</time>
      </trkpt>
      <trkpt lat="47.78173" lon="-3.67163">
        <ele>23</ele>
        <time>2018-07-18T12:04:46Z</time>
      </trkpt>
      <trkpt lat="47.78176" lon="-3.67161">
        <ele>23</ele>
        <time>2018-07-18T12:04:47Z</time>
      </trkpt>
      <trkpt lat="47.78179" lon="-3.67158">
        <ele>23</ele>
        <time>2018-07-18T12:04:48Z</time>
      </trkpt>
      <trkpt lat="47.78182" lon="-3.67155">
        <ele>23</ele>
        <time>2018-07-18T12:04:49Z</time>
      </trkpt>
      <trkpt lat="47.78185" lon="-3.67152">
        <ele>23</ele>
        <time>2018-07-18T12:04:50Z</time>
      </trkpt>
      <trkpt lat="47.78186" lon="-3.6715">
        <ele>23</ele>
        <time>2018-07-18T12:04:51Z</time>
      </trkpt>
      <trkpt lat="47.7819" lon="-3.67147">
        <ele>23</ele>
        <time>2018-07-18T12:04:52Z</time>
      </trkpt>
      <trkpt lat="47.78193" lon="-3.67144">
        <ele>23</ele>
        <time>2018-07-18T12:04:53Z</time>
      </trkpt>
      <trkpt lat="47.78196" lon="-3.6714">
        <ele>23</ele>
        <time>2018-07-18T12:04:54Z</time>
      </trkpt>
      <trkpt lat="47.78198" lon="-3.67136">
        <ele>23</ele>
        <time>2018-07-18T12:04:55Z</time>
      </trkpt>
      <trkpt lat="47.782" lon="-3.67131">
        <ele>24</ele>
        <time>2018-07-18T12:04:56Z</time>
      </trkpt>
      <trkpt lat="47.78203" lon="-3.67126">
        <ele>24</ele>
        <time>2018-07-18T12:04:57Z</time>
      </trkpt>
      <trkpt lat="47.78205" lon="-3.67121">
        <ele>24</ele>
        <time>2018-07-18T12:04:58Z</time>
      </trkpt>
      <trkpt lat="47.78208" lon="-3.67117">
        <ele>24</ele>
        <time>2018-07-18T12:04:59Z</time>
      </trkpt>
      <trkpt lat="47.7821" lon="-3.67113">
        <ele>24</ele>
        <time>2018-07-18T12:05:00Z</time>
      </trkpt>
      <trkpt lat="47.78212" lon="-3.6711">
        <ele>24</ele>
        <time>2018-07-18T12:05:01Z</time>
      </trkpt>
      <trkpt lat="47.78213" lon="-3.67108">
        <ele>24</ele>
        <time>2018-07-18T12:05:02Z</time>
      </trkpt>
      <trkpt lat="47.78214" lon="-3.67107">
        <ele>24</ele>
        <time>2018-07-18T12:05:03Z</time>
      </trkpt>
      <trkpt lat="47.78214" lon="-3.67106">
        <ele>24</ele>
        <time>2018-07-18T12:05:04Z</time>
      </trkpt>
      <trkpt lat="47.78215" lon="-3.67105">
        <ele>24</ele>
        <time>2018-07-18T12:05:05Z</time>
      </trkpt>
      <trkpt lat="47.78215" lon="-3.67105">
        <ele>24</ele>
        <time>2018-07-18T12:05:06Z</time>
      </trkpt>
      <trkpt lat="47.78215" lon="-3.67105">
        <ele>24</ele>
        <time>2018-07-18T12:05:07Z</time>
      </trkpt>
      <trkpt lat="47.78215" lon="-3.67105">
        <ele>24</ele>
        <time>2018-07-18T12:05:08Z</time>
      </trkpt>
      <trkpt lat="47.78217" lon="-3.67106">
        <ele>24</ele>
        <time>2018-07-18T12:05:09Z</time>
      </trkpt>
      <trkpt lat="47.78218" lon="-3.67108">
        <ele>24</ele>
        <time>2018-07-18T12:05:10Z</time>
      </trkpt>
      <trkpt lat="47.7822" lon="-3.6711">
        <ele>25</ele>
        <time>2018-07-18T12:05:11Z</time>
      </trkpt>
      <trkpt lat="47.78222" lon="-3.67112">
        <ele>24</ele>
        <time>2018-07-18T12:05:12Z</time>
      </trkpt>
      <trkpt lat="47.78224" lon="-3.67114">
        <ele>24</ele>
        <time>2018-07-18T12:05:13Z</time>
      </trkpt>
      <trkpt lat="47.78227" lon="-3.67116">
        <ele>24</ele>
        <time>2018-07-18T12:05:14Z</time>
      </trkpt>
      <trkpt lat="47.78229" lon="-3.67119">
        <ele>24</ele>
        <time>2018-07-18T12:05:15Z</time>
      </trkpt>
      <trkpt lat="47.78232" lon="-3.67121">
        <ele>24</ele>
        <time>2018-07-18T12:05:16Z</time>
      </trkpt>
      <trkpt lat="47.78235" lon="-3.67124">
        <ele>24</ele>
        <time>2018-07-18T12:05:17Z</time>
      </trkpt>
      <trkpt lat="47.78238" lon="-3.67127">
        <ele>24</ele>
        <time>2018-07-18T12:05:18Z</time>
      </trkpt>
      <trkpt lat="47.78241" lon="-3.67131">
        <ele>24</ele>
        <time>2018-07-18T12:05:19Z</time>
      </trkpt>
      <trkpt lat="47.78244" lon="-3.67134">
        <ele>24</ele>
        <time>2018-07-18T12:05:20Z</time>
      </trkpt>
      <trkpt lat="47.78247" lon="-3.67137">
        <ele>24</ele>
        <time>2018-07-18T12:05:21Z</time>
      </trkpt>
      <trkpt lat="47.7825" lon="-3.6714">
        <ele>24</ele>
        <time>2018-07-18T12:05:22Z</time>
      </trkpt>
      <trkpt lat="47.78253" lon="-3.67143">
        <ele>24</ele>
        <time>2018-07-18T12:05:23Z</time>
      </trkpt>
      <trkpt lat="47.78257" lon="-3.67145">
        <ele>24</ele>
        <time>2018-07-18T12:05:24Z</time>
      </trkpt>
      <trkpt lat="47.78259" lon="-3.67149">
        <ele>24</ele>
        <time>2018-07-18T12:05:25Z</time>
      </trkpt>
      <trkpt lat="47.78263" lon="-3.67153">
        <ele>24</ele>
        <time>2018-07-18T12:05:26Z</time>
      </trkpt>
      <trkpt lat="47.78266" lon="-3.67156">
        <ele>24</ele>
        <time>2018-07-18T12:05:27Z</time>
      </trkpt>
      <trkpt lat="47.78269" lon="-3.67158">
        <ele>24</ele>
        <time>2018-07-18T12:05:28Z</time>
      </trkpt>
      <trkpt lat="47.78272" lon="-3.67161">
        <ele>24</ele>
        <time>2018-07-18T12:05:29Z</time>
      </trkpt>
      <trkpt lat="47.78275" lon="-3.67163">
        <ele>24</ele>
        <time>2018-07-18T12:05:30Z</time>
      </trkpt>
      <trkpt lat="47.78278" lon="-3.67164">
        <ele>24</ele>
        <time>2018-07-18T12:05:31Z</time>
      </trkpt>
      <trkpt lat="47.78281" lon="-3.67166">
        <ele>24</ele>
        <time>2018-07-18T12:05:32Z</time>
      </trkpt>
      <trkpt lat="47.78284" lon="-3.67166">
        <ele>24</ele>
        <time>2018-07-18T12:05:33Z</time>
      </trkpt>
      <trkpt lat="47.78287" lon="-3.67167">
        <ele>24</ele>
        <time>2018-07-18T12:05:34Z</time>
      </trkpt>
      <trkpt lat="47.7829" lon="-3.67167">
        <ele>24</ele>
        <time>2018-07-18T12:05:35Z</time>
      </trkpt>
      <trkpt lat="47.78294" lon="-3.67167">
        <ele>24</ele>
        <time>2018-07-18T12:05:36Z</time>
      </trkpt>
      <trkpt lat="47.78298" lon="-3.67167">
        <ele>25</ele>
        <time>2018-07-18T12:05:37Z</time>
      </trkpt>
      <trkpt lat="47.78302" lon="-3.67167">
        <ele>25</ele>
        <time>2018-07-18T12:05:38Z</time>
      </trkpt>
      <trkpt lat="47.78306" lon="-3.67166">
        <ele>25</ele>
        <time>2018-07-18T12:05:39Z</time>
      </trkpt>
      <trkpt lat="47.7831" lon="-3.67165">
        <ele>25</ele>
        <time>2018-07-18T12:05:40Z</time>
      </trkpt>
      <trkpt lat="47.78314" lon="-3.67164">
        <ele>25</ele>
        <time>2018-07-18T12:05:41Z</time>
      </trkpt>
      <trkpt lat="47.78318" lon="-3.67163">
        <ele>25</ele>
        <time>2018-07-18T12:05:42Z</time>
      </trkpt>
      <trkpt lat="47.78322" lon="-3.6716">
        <ele>25</ele>
        <time>2018-07-18T12:05:43Z</time>
      </trkpt>
      <trkpt lat="47.78325" lon="-3.67158">
        <ele>25</ele>
        <time>2018-07-18T12:05:44Z</time>
      </trkpt>
      <trkpt lat="47.78328" lon="-3.67154">
        <ele>25</ele>
        <time>2018-07-18T12:05:45Z</time>
      </trkpt>
      <trkpt lat="47.78332" lon="-3.67151">
        <ele>26</ele>
        <time>2018-07-18T12:05:46Z</time>
      </trkpt>
      <trkpt lat="47.78336" lon="-3.67149">
        <ele>26</ele>
        <time>2018-07-18T12:05:47Z</time>
      </trkpt>
      <trkpt lat="47.78339" lon="-3.67147">
        <ele>26</ele>
        <time>2018-07-18T12:05:48Z</time>
      </trkpt>
      <trkpt lat="47.78343" lon="-3.67146">
        <ele>26</ele>
        <time>2018-07-18T12:05:49Z</time>
      </trkpt>
      <trkpt lat="47.78347" lon="-3.67146">
        <ele>26</ele>
        <time>2018-07-18T12:05:50Z</time>
      </trkpt>
      <trkpt lat="47.7835" lon="-3.67147">
        <ele>26</ele>
        <time>2018-07-18T12:05:51Z</time>
      </trkpt>
      <trkpt lat="47.78352" lon="-3.67148">
        <ele>26</ele>
        <time>2018-07-18T12:05:52Z</time>
      </trkpt>
      <trkpt lat="47.78353" lon="-3.67148">
        <ele>26</ele>
        <time>2018-07-18T12:05:53Z</time>
      </trkpt>
      <trkpt lat="47.78354" lon="-3.67148">
        <ele>27</ele>
        <time>2018-07-18T12:05:54Z</time>
      </trkpt>
      <trkpt lat="47.78355" lon="-3.67148">
        <ele>27</ele>
        <time>2018-07-18T12:05:55Z</time>
      </trkpt>
      <trkpt lat="47.78355" lon="-3.67148">
        <ele>27</ele>
        <time>2018-07-18T12:05:56Z</time>
      </trkpt>
      <trkpt lat="47.78356" lon="-3.67148">
        <ele>27</ele>
        <time>2018-07-18T12:05:57Z</time>
      </trkpt>
      <trkpt lat="47.78356" lon="-3.67148">
        <ele>27</ele>
        <time>2018-07-18T12:05:58Z</time>
      </trkpt>
      <trkpt lat="47.78357" lon="-3.67148">
        <ele>27</ele>
        <time>2018-07-18T12:05:59Z</time>
      </trkpt>
      <trkpt lat="47.78359" lon="-3.6715">
        <ele>27</ele>
        <time>2018-07-18T12:06:00Z</time>
      </trkpt>
      <trkpt lat="47.78361" lon="-3.67151">
        <ele>27</ele>
        <time>2018-07-18T12:06:01Z</time>
      </trkpt>
      <trkpt lat="47.78363" lon="-3.67152">
        <ele>27</ele>
        <time>2018-07-18T12:06:02Z</time>
      </trkpt>
      <trkpt lat="47.78365" lon="-3.67153">
        <ele>27</ele>
        <time>2018-07-18T12:06:03Z</time>
      </trkpt>
      <trkpt lat="47.78367" lon="-3.67155">
        <ele>27</ele>
        <time>2018-07-18T12:06:04Z</time>
      </trkpt>
      <trkpt lat="47.7837" lon="-3.67155">
        <ele>27</ele>
        <time>2018-07-18T12:06:05Z</time>
      </trkpt>
      <trkpt lat="47.78373" lon="-3.67155">
        <ele>27</ele>
        <time>2018-07-18T12:06:06Z</time>
      </trkpt>
      <trkpt lat="47.78377" lon="-3.67155">
        <ele>27</ele>
        <time>2018-07-18T12:06:07Z</time>
      </trkpt>
      <trkpt lat="47.78381" lon="-3.67155">
        <ele>28</ele>
        <time>2018-07-18T12:06:08Z</time>
      </trkpt>
      <trkpt lat="47.78384" lon="-3.67155">
        <ele>28</ele>
        <time>2018-07-18T12:06:09Z</time>
      </trkpt>
      <trkpt lat="47.78386" lon="-3.67156">
        <ele>28</ele>
        <time>2018-07-18T12:06:10Z</time>
      </trkpt>
      <trkpt lat="47.78386" lon="-3.67156">
        <ele>28</ele>
        <time>2018-07-18T12:06:11Z</time>
      </trkpt>
      <trkpt lat="47.78387" lon="-3.67156">
        <ele>28</ele>
        <time>2018-07-18T12:06:12Z</time>
      </trkpt>
      <trkpt lat="47.78388" lon="-3.67156">
        <ele>28</ele>
        <time>2018-07-18T12:06:13Z</time>
      </trkpt>
      <trkpt lat="47.78388" lon="-3.67156">
        <ele>28</ele>
        <time>2018-07-18T12:06:14Z</time>
      </trkpt>
      <trkpt lat="47.78389" lon="-3.67155">
        <ele>29</ele>
        <time>2018-07-18T12:06:15Z</time>
      </trkpt>
      <trkpt lat="47.7839" lon="-3.67155">
        <ele>29</ele>
        <time>2018-07-18T12:06:16Z</time>
      </trkpt>
      <trkpt lat="47.7839" lon="-3.67155">
        <ele>29</ele>
        <time>2018-07-18T12:06:17Z</time>
      </trkpt>
      <trkpt lat="47.7839" lon="-3.67155">
        <ele>29</ele>
        <time>2018-07-18T12:06:18Z</time>
      </trkpt>
      <trkpt lat="47.78391" lon="-3.67154">
        <ele>29</ele>
        <time>2018-07-18T12:06:19Z</time>
      </trkpt>
      <trkpt lat="47.78392" lon="-3.67154">
        <ele>29</ele>
        <time>2018-07-18T12:06:20Z</time>
      </trkpt>
      <trkpt lat="47.78393" lon="-3.67153">
        <ele>29</ele>
        <time>2018-07-18T12:06:21Z</time>
      </trkpt>
      <trkpt lat="47.78393" lon="-3.67153">
        <ele>29</ele>
        <time>2018-07-18T12:06:22Z</time>
      </trkpt>
      <trkpt lat="47.78392" lon="-3.67153">
        <ele>29</ele>
        <time>2018-07-18T12:06:23Z</time>
      </trkpt>
      <trkpt lat="47.7839" lon="-3.67153">
        <ele>29</ele>
        <time>2018-07-18T12:06:24Z</time>
      </trkpt>
      <trkpt lat="47.78388" lon="-3.67152">
        <ele>29</ele>
        <time>2018-07-18T12:06:25Z</time>
      </trkpt>
      <trkpt lat="47.78386" lon="-3.67152">
        <ele>29</ele>
        <time>2018-07-18T12:06:26Z</time>
      </trkpt>
      <trkpt lat="47.78384" lon="-3.67152">
        <ele>29</ele>
        <time>2018-07-18T12:06:27Z</time>
      </trkpt>
      <trkpt lat="47.78382" lon="-3.67152">
        <ele>29</ele>
        <time>2018-07-18T12:06:28Z</time>
      </trkpt>
      <trkpt lat="47.7838" lon="-3.67153">
        <ele>29</ele>
        <time>2018-07-18T12:06:29Z</time>
      </trkpt>
      <trkpt lat="47.78377" lon="-3.67152">
        <ele>29</ele>
        <time>2018-07-18T12:06:30Z</time>
      </trkpt>
      <trkpt lat="47.78375" lon="-3.67152">
        <ele>29</ele>
        <time>2018-07-18T12:06:31Z</time>
      </trkpt>
      <trkpt lat="47.78373" lon="-3.67151">
        <ele>29</ele>
        <time>2018-07-18T12:06:32Z</time>
      </trkpt>
      <trkpt lat="47.7837" lon="-3.67151">
        <ele>29</ele>
        <time>2018-07-18T12:06:33Z</time>
      </trkpt>
      <trkpt lat="47.78368" lon="-3.67151">
        <ele>29</ele>
        <time>2018-07-18T12:06:34Z</time>
      </trkpt>
      <trkpt lat="47.78367" lon="-3.6715">
        <ele>29</ele>
        <time>2018-07-18T12:06:35Z</time>
      </trkpt>
      <trkpt lat="47.78367" lon="-3.67149">
        <ele>29</ele>
        <time>2018-07-18T12:06:36Z</time>
      </trkpt>
      <trkpt lat="47.78367" lon="-3.67148">
        <ele>29</ele>
        <time>2018-07-18T12:06:37Z</time>
      </trkpt>
      <trkpt lat="47.78367" lon="-3.67148">
        <ele>29</ele>
        <time>2018-07-18T12:06:38Z</time>
      </trkpt>
      <trkpt lat="47.78367" lon="-3.67148">
        <ele>29</ele>
        <time>2018-07-18T12:06:39Z</time>
      </trkpt>
      <trkpt lat="47.78368" lon="-3.67146">
        <ele>29</ele>
        <time>2018-07-18T12:06:40Z</time>
      </trkpt>
      <trkpt lat="47.78368" lon="-3.67146">
        <ele>29</ele>
        <time>2018-07-18T12:06:41Z</time>
      </trkpt>
      <trkpt lat="47.78368" lon="-3.67146">
        <ele>29</ele>
        <time>2018-07-18T12:06:42Z</time>
      </trkpt>
      <trkpt lat="47.78369" lon="-3.67146">
        <ele>29</ele>
        <time>2018-07-18T12:06:43Z</time>
      </trkpt>
      <trkpt lat="47.78369" lon="-3.67146">
        <ele>29</ele>
        <time>2018-07-18T12:06:44Z</time>
      </trkpt>
      <trkpt lat="47.7837" lon="-3.67146">
        <ele>29</ele>
        <time>2018-07-18T12:06:45Z</time>
      </trkpt>
      <trkpt lat="47.7837" lon="-3.67146">
        <ele>29</ele>
        <time>2018-07-18T12:06:46Z</time>
      </trkpt>
      <trkpt lat="47.7837" lon="-3.67146">
        <ele>29</ele>
        <time>2018-07-18T12:06:47Z</time>
      </trkpt>
      <trkpt lat="47.7837" lon="-3.67146">
        <ele>29</ele>
        <time>2018-07-18T12:06:48Z</time>
      </trkpt>
      <trkpt lat="47.7837" lon="-3.67146">
        <ele>29</ele>
        <time>2018-07-18T12:06:49Z</time>
      </trkpt>
      <trkpt lat="47.7837" lon="-3.67146">
        <ele>29</ele>
        <time>2018-07-18T12:06:50Z</time>
      </trkpt>
      <trkpt lat="47.78372" lon="-3.67146">
        <ele>29</ele>
        <time>2018-07-18T12:06:51Z</time>
      </trkpt>
      <trkpt lat="47.78372" lon="-3.67146">
        <ele>29</ele>
        <time>2018-07-18T12:06:52Z</time>
      </trkpt>
      <trkpt lat="47.78373" lon="-3.67146">
        <ele>28</ele>
        <time>2018-07-18T12:06:53Z</time>
      </trkpt>
      <trkpt lat="47.78373" lon="-3.67146">
        <ele>28</ele>
        <time>2018-07-18T12:06:54Z</time>
      </trkpt>
      <trkpt lat="47.78373" lon="-3.67146">
        <ele>28</ele>
        <time>2018-07-18T12:06:55Z</time>
      </trkpt>
      <trkpt lat="47.78374" lon="-3.67145">
        <ele>28</ele>
        <time>2018-07-18T12:06:56Z</time>
      </trkpt>
      <trkpt lat="47.78375" lon="-3.67145">
        <ele>28</ele>
        <time>2018-07-18T12:06:57Z</time>
      </trkpt>
      <trkpt lat="47.78376" lon="-3.67144">
        <ele>28</ele>
        <time>2018-07-18T12:06:58Z</time>
      </trkpt>
      <trkpt lat="47.78377" lon="-3.67143">
        <ele>28</ele>
        <time>2018-07-18T12:06:59Z</time>
      </trkpt>
      <trkpt lat="47.78379" lon="-3.67142">
        <ele>28</ele>
        <time>2018-07-18T12:07:00Z</time>
      </trkpt>
      <trkpt lat="47.7838" lon="-3.6714">
        <ele>28</ele>
        <time>2018-07-18T12:07:01Z</time>
      </trkpt>
      <trkpt lat="47.78382" lon="-3.67139">
        <ele>27</ele>
        <time>2018-07-18T12:07:02Z</time>
      </trkpt>
      <trkpt lat="47.78383" lon="-3.67138">
        <ele>27</ele>
        <time>2018-07-18T12:07:03Z</time>
      </trkpt>
      <trkpt lat="47.78383" lon="-3.67137">
        <ele>27</ele>
        <time>2018-07-18T12:07:04Z</time>
      </trkpt>
      <trkpt lat="47.78384" lon="-3.67137">
        <ele>27</ele>
        <time>2018-07-18T12:07:05Z</time>
      </trkpt>
      <trkpt lat="47.78384" lon="-3.67137">
        <ele>27</ele>
        <time>2018-07-18T12:07:06Z</time>
      </trkpt>
      <trkpt lat="47.78385" lon="-3.67136">
        <ele>26</ele>
        <time>2018-07-18T12:07:07Z</time>
      </trkpt>
      <trkpt lat="47.78385" lon="-3.67136">
        <ele>26</ele>
        <time>2018-07-18T12:07:08Z</time>
      </trkpt>
      <trkpt lat="47.78384" lon="-3.67133">
        <ele>25</ele>
        <time>2018-07-18T12:07:09Z</time>
      </trkpt>
      <trkpt lat="47.78384" lon="-3.67132">
        <ele>25</ele>
        <time>2018-07-18T12:07:10Z</time>
      </trkpt>
      <trkpt lat="47.78384" lon="-3.67131">
        <ele>25</ele>
        <time>2018-07-18T12:07:11Z</time>
      </trkpt>
      <trkpt lat="47.78384" lon="-3.67131">
        <ele>25</ele>
        <time>2018-07-18T12:07:12Z</time>
      </trkpt>
      <trkpt lat="47.78384" lon="-3.6713">
        <ele>25</ele>
        <time>2018-07-18T12:07:13Z</time>
      </trkpt>
      <trkpt lat="47.78384" lon="-3.67129">
        <ele>25</ele>
        <time>2018-07-18T12:07:14Z</time>
      </trkpt>
      <trkpt lat="47.78384" lon="-3.67128">
        <ele>24</ele>
        <time>2018-07-18T12:07:15Z</time>
      </trkpt>
      <trkpt lat="47.78384" lon="-3.67128">
        <ele>24</ele>
        <time>2018-07-18T12:07:16Z</time>
      </trkpt>
      <trkpt lat="47.78384" lon="-3.67127">
        <ele>24</ele>
        <time>2018-07-18T12:07:17Z</time>
      </trkpt>
      <trkpt lat="47.78384" lon="-3.67126">
        <ele>24</ele>
        <time>2018-07-18T12:07:18Z</time>
      </trkpt>
      <trkpt lat="47.78384" lon="-3.67125">
        <ele>24</ele>
        <time>2018-07-18T12:07:19Z</time>
      </trkpt>
      <trkpt lat="47.78385" lon="-3.67125">
        <ele>24</ele>
        <time>2018-07-18T12:07:20Z</time>
      </trkpt>
      <trkpt lat="47.78386" lon="-3.67124">
        <ele>23</ele>
        <time>2018-07-18T12:07:21Z</time>
      </trkpt>
      <trkpt lat="47.78386" lon="-3.67125">
        <ele>23</ele>
        <time>2018-07-18T12:07:22Z</time>
      </trkpt>
      <trkpt lat="47.78387" lon="-3.67124">
        <ele>23</ele>
        <time>2018-07-18T12:07:23Z</time>
      </trkpt>
      <trkpt lat="47.78387" lon="-3.67124">
        <ele>22</ele>
        <time>2018-07-18T12:07:24Z</time>
      </trkpt>
      <trkpt lat="47.78388" lon="-3.67123">
        <ele>22</ele>
        <time>2018-07-18T12:07:25Z</time>
      </trkpt>
      <trkpt lat="47.78388" lon="-3.67123">
        <ele>22</ele>
        <time>2018-07-18T12:07:26Z</time>
      </trkpt>
      <trkpt lat="47.78389" lon="-3.67122">
        <ele>21</ele>
        <time>2018-07-18T12:07:27Z</time>
      </trkpt>
      <trkpt lat="47.7839" lon="-3.67122">
        <ele>21</ele>
        <time>2018-07-18T12:07:28Z</time>
      </trkpt>
      <trkpt lat="47.78391" lon="-3.67122">
        <ele>21</ele>
        <time>2018-07-18T12:07:29Z</time>
      </trkpt>
      <trkpt lat="47.78392" lon="-3.67122">
        <ele>20</ele>
        <time>2018-07-18T12:07:30Z</time>
      </trkpt>
      <trkpt lat="47.78393" lon="-3.67122">
        <ele>20</ele>
        <time>2018-07-18T12:07:31Z</time>
      </trkpt>
      <trkpt lat="47.78393" lon="-3.67121">
        <ele>20</ele>
        <time>2018-07-18T12:07:32Z</time>
      </trkpt>
      <trkpt lat="47.78394" lon="-3.67121">
        <ele>20</ele>
        <time>2018-07-18T12:07:33Z</time>
      </trkpt>
      <trkpt lat="47.78395" lon="-3.6712">
        <ele>19</ele>
        <time>2018-07-18T12:07:34Z</time>
      </trkpt>
      <trkpt lat="47.78396" lon="-3.6712">
        <ele>19</ele>
        <time>2018-07-18T12:07:35Z</time>
      </trkpt>
      <trkpt lat="47.78397" lon="-3.6712">
        <ele>19</ele>
        <time>2018-07-18T12:07:36Z</time>
      </trkpt>
      <trkpt lat="47.78397" lon="-3.67119">
        <ele>19</ele>
        <time>2018-07-18T12:07:37Z</time>
      </trkpt>
      <trkpt lat="47.78398" lon="-3.67118">
        <ele>19</ele>
        <time>2018-07-18T12:07:38Z</time>
      </trkpt>
      <trkpt lat="47.78398" lon="-3.67118">
        <ele>18</ele>
        <time>2018-07-18T12:07:39Z</time>
      </trkpt>
      <trkpt lat="47.78399" lon="-3.67117">
        <ele>18</ele>
        <time>2018-07-18T12:07:40Z</time>
      </trkpt>
      <trkpt lat="47.78399" lon="-3.67116">
        <ele>18</ele>
        <time>2018-07-18T12:07:41Z</time>
      </trkpt>
      <trkpt lat="47.78399" lon="-3.67115">
        <ele>18</ele>
        <time>2018-07-18T12:07:42Z</time>
      </trkpt>
      <trkpt lat="47.784" lon="-3.67115">
        <ele>18</ele>
        <time>2018-07-18T12:07:43Z</time>
      </trkpt>
      <trkpt lat="47.784" lon="-3.67114">
        <ele>18</ele>
        <time>2018-07-18T12:07:44Z</time>
      </trkpt>
      <trkpt lat="47.78401" lon="-3.67113">
        <ele>18</ele>
        <time>2018-07-18T12:07:45Z</time>
      </trkpt>
      <trkpt lat="47.78402" lon="-3.67112">
        <ele>17</ele>
        <time>2018-07-18T12:07:46Z</time>
      </trkpt>
      <trkpt lat="47.78402" lon="-3.67111">
        <ele>17</ele>
        <time>2018-07-18T12:07:47Z</time>
      </trkpt>
      <trkpt lat="47.78403" lon="-3.6711">
        <ele>17</ele>
        <time>2018-07-18T12:07:48Z</time>
      </trkpt>
      <trkpt lat="47.78403" lon="-3.67108">
        <ele>16</ele>
        <time>2018-07-18T12:07:49Z</time>
      </trkpt>
      <trkpt lat="47.78404" lon="-3.67106">
        <ele>16</ele>
        <time>2018-07-18T12:07:50Z</time>
      </trkpt>
      <trkpt lat="47.78406" lon="-3.67104">
        <ele>16</ele>
        <time>2018-07-18T12:07:51Z</time>
      </trkpt>
      <trkpt lat="47.78407" lon="-3.67102">
        <ele>15</ele>
        <time>2018-07-18T12:07:52Z</time>
      </trkpt>
      <trkpt lat="47.7841" lon="-3.67101">
        <ele>15</ele>
        <time>2018-07-18T12:07:53Z</time>
      </trkpt>
      <trkpt lat="47.78412" lon="-3.67101">
        <ele>15</ele>
        <time>2018-07-18T12:07:54Z</time>
      </trkpt>
      <trkpt lat="47.78415" lon="-3.67101">
        <ele>15</ele>
        <time>2018-07-18T12:07:55Z</time>
      </trkpt>
      <trkpt lat="47.78418" lon="-3.67099">
        <ele>15</ele>
        <time>2018-07-18T12:07:56Z</time>
      </trkpt>
      <trkpt lat="47.7842" lon="-3.67097">
        <ele>14</ele>
        <time>2018-07-18T12:07:57Z</time>
      </trkpt>
      <trkpt lat="47.78423" lon="-3.67095">
        <ele>14</ele>
        <time>2018-07-18T12:07:58Z</time>
      </trkpt>
      <trkpt lat="47.78426" lon="-3.67094">
        <ele>14</ele>
        <time>2018-07-18T12:07:59Z</time>
      </trkpt>
      <trkpt lat="47.7843" lon="-3.67093">
        <ele>14</ele>
        <time>2018-07-18T12:08:00Z</time>
      </trkpt>
      <trkpt lat="47.78433" lon="-3.67092">
        <ele>14</ele>
        <time>2018-07-18T12:08:01Z</time>
      </trkpt>
      <trkpt lat="47.78437" lon="-3.67091">
        <ele>14</ele>
        <time>2018-07-18T12:08:02Z</time>
      </trkpt>
      <trkpt lat="47.7844" lon="-3.6709">
        <ele>13</ele>
        <time>2018-07-18T12:08:03Z</time>
      </trkpt>
      <trkpt lat="47.78443" lon="-3.67089">
        <ele>13</ele>
        <time>2018-07-18T12:08:04Z</time>
      </trkpt>
      <trkpt lat="47.78446" lon="-3.67088">
        <ele>13</ele>
        <time>2018-07-18T12:08:05Z</time>
      </trkpt>
      <trkpt lat="47.78449" lon="-3.67085">
        <ele>13</ele>
        <time>2018-07-18T12:08:06Z</time>
      </trkpt>
      <trkpt lat="47.78452" lon="-3.67083">
        <ele>13</ele>
        <time>2018-07-18T12:08:07Z</time>
      </trkpt>
      <trkpt lat="47.78456" lon="-3.67081">
        <ele>13</ele>
        <time>2018-07-18T12:08:08Z</time>
      </trkpt>
      <trkpt lat="47.78459" lon="-3.67079">
        <ele>13</ele>
        <time>2018-07-18T12:08:09Z</time>
      </trkpt>
      <trkpt lat="47.78463" lon="-3.67077">
        <ele>13</ele>
        <time>2018-07-18T12:08:10Z</time>
      </trkpt>
      <trkpt lat="47.78466" lon="-3.67075">
        <ele>12</ele>
        <time>2018-07-18T12:08:11Z</time>
      </trkpt>
      <trkpt lat="47.7847" lon="-3.67073">
        <ele>12</ele>
        <time>2018-07-18T12:08:12Z</time>
      </trkpt>
      <trkpt lat="47.78473" lon="-3.67072">
        <ele>12</ele>
        <time>2018-07-18T12:08:13Z</time>
      </trkpt>
      <trkpt lat="47.78477" lon="-3.67072">
        <ele>12</ele>
        <time>2018-07-18T12:08:14Z</time>
      </trkpt>
      <trkpt lat="47.7848" lon="-3.67072">
        <ele>12</ele>
        <time>2018-07-18T12:08:15Z</time>
      </trkpt>
      <trkpt lat="47.78484" lon="-3.67072">
        <ele>11</ele>
        <time>2018-07-18T12:08:16Z</time>
      </trkpt>
      <trkpt lat="47.78488" lon="-3.67073">
        <ele>11</ele>
        <time>2018-07-18T12:08:17Z</time>
      </trkpt>
      <trkpt lat="47.78492" lon="-3.67075">
        <ele>11</ele>
        <time>2018-07-18T12:08:18Z</time>
      </trkpt>
      <trkpt lat="47.78496" lon="-3.67076">
        <ele>10</ele>
        <time>2018-07-18T12:08:19Z</time>
      </trkpt>
      <trkpt lat="47.78501" lon="-3.67079">
        <ele>10</ele>
        <time>2018-07-18T12:08:20Z</time>
      </trkpt>
      <trkpt lat="47.78505" lon="-3.67081">
        <ele>9</ele>
        <time>2018-07-18T12:08:21Z</time>
      </trkpt>
      <trkpt lat="47.78508" lon="-3.67084">
        <ele>9</ele>
        <time>2018-07-18T12:08:22Z</time>
      </trkpt>
      <trkpt lat="47.78512" lon="-3.67087">
        <ele>8</ele>
        <time>2018-07-18T12:08:23Z</time>
      </trkpt>
      <trkpt lat="47.78515" lon="-3.6709">
        <ele>8</ele>
        <time>2018-07-18T12:08:24Z</time>
      </trkpt>
      <trkpt lat="47.78518" lon="-3.67093">
        <ele>8</ele>
        <time>2018-07-18T12:08:25Z</time>
      </trkpt>
      <trkpt lat="47.78521" lon="-3.67095">
        <ele>7</ele>
        <time>2018-07-18T12:08:26Z</time>
      </trkpt>
      <trkpt lat="47.78524" lon="-3.67098">
        <ele>7</ele>
        <time>2018-07-18T12:08:27Z</time>
      </trkpt>
      <trkpt lat="47.78527" lon="-3.67101">
        <ele>7</ele>
        <time>2018-07-18T12:08:28Z</time>
      </trkpt>
      <trkpt lat="47.78531" lon="-3.67103">
        <ele>6</ele>
        <time>2018-07-18T12:08:29Z</time>
      </trkpt>
      <trkpt lat="47.78534" lon="-3.67106">
        <ele>6</ele>
        <time>2018-07-18T12:08:30Z</time>
      </trkpt>
      <trkpt lat="47.78537" lon="-3.67109">
        <ele>6</ele>
        <time>2018-07-18T12:08:31Z</time>
      </trkpt>
      <trkpt lat="47.7854" lon="-3.67112">
        <ele>6</ele>
        <time>2018-07-18T12:08:32Z</time>
      </trkpt>
      <trkpt lat="47.78543" lon="-3.67115">
        <ele>6</ele>
        <time>2018-07-18T12:08:33Z</time>
      </trkpt>
      <trkpt lat="47.78546" lon="-3.67119">
        <ele>6</ele>
        <time>2018-07-18T12:08:34Z</time>
      </trkpt>
      <trkpt lat="47.78549" lon="-3.67122">
        <ele>6</ele>
        <time>2018-07-18T12:08:35Z</time>
      </trkpt>
      <trkpt lat="47.78552" lon="-3.67126">
        <ele>6</ele>
        <time>2018-07-18T12:08:36Z</time>
      </trkpt>
      <trkpt lat="47.78555" lon="-3.6713">
        <ele>6</ele>
        <time>2018-07-18T12:08:37Z</time>
      </trkpt>
      <trkpt lat="47.78557" lon="-3.67133">
        <ele>6</ele>
        <time>2018-07-18T12:08:38Z</time>
      </trkpt>
      <trkpt lat="47.7856" lon="-3.67137">
        <ele>6</ele>
        <time>2018-07-18T12:08:39Z</time>
      </trkpt>
      <trkpt lat="47.78562" lon="-3.67141">
        <ele>6</ele>
        <time>2018-07-18T12:08:40Z</time>
      </trkpt>
      <trkpt lat="47.78564" lon="-3.67145">
        <ele>6</ele>
        <time>2018-07-18T12:08:41Z</time>
      </trkpt>
      <trkpt lat="47.78567" lon="-3.6715">
        <ele>7</ele>
        <time>2018-07-18T12:08:42Z</time>
      </trkpt>
      <trkpt lat="47.78569" lon="-3.67155">
        <ele>7</ele>
        <time>2018-07-18T12:08:43Z</time>
      </trkpt>
      <trkpt lat="47.78571" lon="-3.6716">
        <ele>7</ele>
        <time>2018-07-18T12:08:44Z</time>
      </trkpt>
      <trkpt lat="47.78573" lon="-3.67165">
        <ele>7</ele>
        <time>2018-07-18T12:08:45Z</time>
      </trkpt>
      <trkpt lat="47.78574" lon="-3.6717">
        <ele>7</ele>
        <time>2018-07-18T12:08:46Z</time>
      </trkpt>
      <trkpt lat="47.78576" lon="-3.67175">
        <ele>7</ele>
        <time>2018-07-18T12:08:47Z</time>
      </trkpt>
      <trkpt lat="47.78577" lon="-3.6718">
        <ele>7</ele>
        <time>2018-07-18T12:08:48Z</time>
      </trkpt>
      <trkpt lat="47.78578" lon="-3.67186">
        <ele>8</ele>
        <time>2018-07-18T12:08:49Z</time>
      </trkpt>
      <trkpt lat="47.78578" lon="-3.67191">
        <ele>8</ele>
        <time>2018-07-18T12:08:50Z</time>
      </trkpt>
      <trkpt lat="47.78579" lon="-3.67196">
        <ele>8</ele>
        <time>2018-07-18T12:08:51Z</time>
      </trkpt>
      <trkpt lat="47.78579" lon="-3.67201">
        <ele>9</ele>
        <time>2018-07-18T12:08:52Z</time>
      </trkpt>
      <trkpt lat="47.7858" lon="-3.67206">
        <ele>9</ele>
        <time>2018-07-18T12:08:53Z</time>
      </trkpt>
      <trkpt lat="47.78582" lon="-3.6721">
        <ele>9</ele>
        <time>2018-07-18T12:08:54Z</time>
      </trkpt>
      <trkpt lat="47.78583" lon="-3.67213">
        <ele>9</ele>
        <time>2018-07-18T12:08:55Z</time>
      </trkpt>
      <trkpt lat="47.78585" lon="-3.67216">
        <ele>10</ele>
        <time>2018-07-18T12:08:56Z</time>
      </trkpt>
      <trkpt lat="47.78586" lon="-3.67218">
        <ele>10</ele>
        <time>2018-07-18T12:08:57Z</time>
      </trkpt>
      <trkpt lat="47.78589" lon="-3.6722">
        <ele>10</ele>
        <time>2018-07-18T12:08:58Z</time>
      </trkpt>
      <trkpt lat="47.78591" lon="-3.67219">
        <ele>10</ele>
        <time>2018-07-18T12:08:59Z</time>
      </trkpt>
      <trkpt lat="47.78593" lon="-3.67217">
        <ele>11</ele>
        <time>2018-07-18T12:09:00Z</time>
      </trkpt>
      <trkpt lat="47.78595" lon="-3.67214">
        <ele>11</ele>
        <time>2018-07-18T12:09:01Z</time>
      </trkpt>
      <trkpt lat="47.78595" lon="-3.6721">
        <ele>11</ele>
        <time>2018-07-18T12:09:02Z</time>
      </trkpt>
      <trkpt lat="47.78595" lon="-3.67205">
        <ele>11</ele>
        <time>2018-07-18T12:09:03Z</time>
      </trkpt>
      <trkpt lat="47.78595" lon="-3.672">
        <ele>11</ele>
        <time>2018-07-18T12:09:04Z</time>
      </trkpt>
      <trkpt lat="47.78595" lon="-3.67196">
        <ele>11</ele>
        <time>2018-07-18T12:09:05Z</time>
      </trkpt>
      <trkpt lat="47.78595" lon="-3.67191">
        <ele>12</ele>
        <time>2018-07-18T12:09:06Z</time>
      </trkpt>
      <trkpt lat="47.78595" lon="-3.67186">
        <ele>12</ele>
        <time>2018-07-18T12:09:07Z</time>
      </trkpt>
      <trkpt lat="47.78595" lon="-3.67181">
        <ele>12</ele>
        <time>2018-07-18T12:09:08Z</time>
      </trkpt>
      <trkpt lat="47.78595" lon="-3.67177">
        <ele>12</ele>
        <time>2018-07-18T12:09:09Z</time>
      </trkpt>
      <trkpt lat="47.78595" lon="-3.67172">
        <ele>12</ele>
        <time>2018-07-18T12:09:10Z</time>
      </trkpt>
      <trkpt lat="47.78595" lon="-3.67167">
        <ele>12</ele>
        <time>2018-07-18T12:09:11Z</time>
      </trkpt>
      <trkpt lat="47.78596" lon="-3.67161">
        <ele>12</ele>
        <time>2018-07-18T12:09:12Z</time>
      </trkpt>
      <trkpt lat="47.78596" lon="-3.67156">
        <ele>12</ele>
        <time>2018-07-18T12:09:13Z</time>
      </trkpt>
      <trkpt lat="47.78596" lon="-3.67151">
        <ele>12</ele>
        <time>2018-07-18T12:09:14Z</time>
      </trkpt>
      <trkpt lat="47.78596" lon="-3.67146">
        <ele>12</ele>
        <time>2018-07-18T12:09:15Z</time>
      </trkpt>
      <trkpt lat="47.78596" lon="-3.67141">
        <ele>12</ele>
        <time>2018-07-18T12:09:16Z</time>
      </trkpt>
      <trkpt lat="47.78596" lon="-3.67136">
        <ele>12</ele>
        <time>2018-07-18T12:09:17Z</time>
      </trkpt>
      <trkpt lat="47.78596" lon="-3.67131">
        <ele>12</ele>
        <time>2018-07-18T12:09:18Z</time>
      </trkpt>
      <trkpt lat="47.78596" lon="-3.67126">
        <ele>12</ele>
        <time>2018-07-18T12:09:19Z</time>
      </trkpt>
      <trkpt lat="47.78596" lon="-3.67121">
        <ele>12</ele>
        <time>2018-07-18T12:09:20Z</time>
      </trkpt>
      <trkpt lat="47.78596" lon="-3.67115">
        <ele>13</ele>
        <time>2018-07-18T12:09:21Z</time>
      </trkpt>
      <trkpt lat="47.78595" lon="-3.6711">
        <ele>13</ele>
        <time>2018-07-18T12:09:22Z</time>
      </trkpt>
      <trkpt lat="47.78595" lon="-3.67105">
        <ele>13</ele>
        <time>2018-07-18T12:09:23Z</time>
      </trkpt>
      <trkpt lat="47.78594" lon="-3.671">
        <ele>13</ele>
        <time>2018-07-18T12:09:24Z</time>
      </trkpt>
      <trkpt lat="47.78593" lon="-3.67095">
        <ele>13</ele>
        <time>2018-07-18T12:09:25Z</time>
      </trkpt>
      <trkpt lat="47.78593" lon="-3.6709">
        <ele>13</ele>
        <time>2018-07-18T12:09:26Z</time>
      </trkpt>
      <trkpt lat="47.78592" lon="-3.67085">
        <ele>13</ele>
        <time>2018-07-18T12:09:27Z</time>
      </trkpt>
      <trkpt lat="47.78592" lon="-3.6708">
        <ele>13</ele>
        <time>2018-07-18T12:09:28Z</time>
      </trkpt>
      <trkpt lat="47.78591" lon="-3.67076">
        <ele>13</ele>
        <time>2018-07-18T12:09:29Z</time>
      </trkpt>
      <trkpt lat="47.7859" lon="-3.67071">
        <ele>13</ele>
        <time>2018-07-18T12:09:30Z</time>
      </trkpt>
      <trkpt lat="47.7859" lon="-3.67066">
        <ele>14</ele>
        <time>2018-07-18T12:09:31Z</time>
      </trkpt>
      <trkpt lat="47.78589" lon="-3.67061">
        <ele>13</ele>
        <time>2018-07-18T12:09:32Z</time>
      </trkpt>
      <trkpt lat="47.78589" lon="-3.67056">
        <ele>14</ele>
        <time>2018-07-18T12:09:33Z</time>
      </trkpt>
      <trkpt lat="47.78589" lon="-3.6705">
        <ele>14</ele>
        <time>2018-07-18T12:09:34Z</time>
      </trkpt>
      <trkpt lat="47.78589" lon="-3.67045">
        <ele>14</ele>
        <time>2018-07-18T12:09:35Z</time>
      </trkpt>
      <trkpt lat="47.7859" lon="-3.67039">
        <ele>14</ele>
        <time>2018-07-18T12:09:36Z</time>
      </trkpt>
      <trkpt lat="47.7859" lon="-3.67034">
        <ele>14</ele>
        <time>2018-07-18T12:09:37Z</time>
      </trkpt>
      <trkpt lat="47.78592" lon="-3.67028">
        <ele>14</ele>
        <time>2018-07-18T12:09:38Z</time>
      </trkpt>
      <trkpt lat="47.78593" lon="-3.67023">
        <ele>14</ele>
        <time>2018-07-18T12:09:39Z</time>
      </trkpt>
      <trkpt lat="47.78595" lon="-3.67018">
        <ele>15</ele>
        <time>2018-07-18T12:09:40Z</time>
      </trkpt>
      <trkpt lat="47.78597" lon="-3.67013">
        <ele>15</ele>
        <time>2018-07-18T12:09:41Z</time>
      </trkpt>
      <trkpt lat="47.786" lon="-3.67009">
        <ele>15</ele>
        <time>2018-07-18T12:09:42Z</time>
      </trkpt>
      <trkpt lat="47.78603" lon="-3.67004">
        <ele>15</ele>
        <time>2018-07-18T12:09:43Z</time>
      </trkpt>
      <trkpt lat="47.78606" lon="-3.67">
        <ele>15</ele>
        <time>2018-07-18T12:09:44Z</time>
      </trkpt>
      <trkpt lat="47.78609" lon="-3.66997">
        <ele>15</ele>
        <time>2018-07-18T12:09:45Z</time>
      </trkpt>
      <trkpt lat="47.78613" lon="-3.66993">
        <ele>15</ele>
        <time>2018-07-18T12:09:46Z</time>
      </trkpt>
      <trkpt lat="47.78617" lon="-3.66989">
        <ele>15</ele>
        <time>2018-07-18T12:09:47Z</time>
      </trkpt>
      <trkpt lat="47.78621" lon="-3.66986">
        <ele>15</ele>
        <time>2018-07-18T12:09:48Z</time>
      </trkpt>
      <trkpt lat="47.78625" lon="-3.66983">
        <ele>15</ele>
        <time>2018-07-18T12:09:49Z</time>
      </trkpt>
      <trkpt lat="47.78628" lon="-3.6698">
        <ele>15</ele>
        <time>2018-07-18T12:09:50Z</time>
      </trkpt>
      <trkpt lat="47.78632" lon="-3.66976">
        <ele>15</ele>
        <time>2018-07-18T12:09:51Z</time>
      </trkpt>
      <trkpt lat="47.78635" lon="-3.66973">
        <ele>15</ele>
        <time>2018-07-18T12:09:52Z</time>
      </trkpt>
      <trkpt lat="47.78639" lon="-3.6697">
        <ele>15</ele>
        <time>2018-07-18T12:09:53Z</time>
      </trkpt>
      <trkpt lat="47.78644" lon="-3.66968">
        <ele>15</ele>
        <time>2018-07-18T12:09:54Z</time>
      </trkpt>
      <trkpt lat="47.78648" lon="-3.66965">
        <ele>15</ele>
        <time>2018-07-18T12:09:55Z</time>
      </trkpt>
      <trkpt lat="47.78653" lon="-3.66963">
        <ele>15</ele>
        <time>2018-07-18T12:09:56Z</time>
      </trkpt>
      <trkpt lat="47.78657" lon="-3.6696">
        <ele>15</ele>
        <time>2018-07-18T12:09:57Z</time>
      </trkpt>
      <trkpt lat="47.78662" lon="-3.66959">
        <ele>15</ele>
        <time>2018-07-18T12:09:58Z</time>
      </trkpt>
      <trkpt lat="47.78667" lon="-3.66958">
        <ele>15</ele>
        <time>2018-07-18T12:09:59Z</time>
      </trkpt>
      <trkpt lat="47.78671" lon="-3.66957">
        <ele>15</ele>
        <time>2018-07-18T12:10:00Z</time>
      </trkpt>
      <trkpt lat="47.78676" lon="-3.66956">
        <ele>15</ele>
        <time>2018-07-18T12:10:01Z</time>
      </trkpt>
      <trkpt lat="47.7868" lon="-3.66955">
        <ele>15</ele>
        <time>2018-07-18T12:10:02Z</time>
      </trkpt>
      <trkpt lat="47.78684" lon="-3.66954">
        <ele>15</ele>
        <time>2018-07-18T12:10:03Z</time>
      </trkpt>
      <trkpt lat="47.78688" lon="-3.66954">
        <ele>15</ele>
        <time>2018-07-18T12:10:04Z</time>
      </trkpt>
      <trkpt lat="47.78692" lon="-3.66954">
        <ele>15</ele>
        <time>2018-07-18T12:10:05Z</time>
      </trkpt>
      <trkpt lat="47.78697" lon="-3.66954">
        <ele>15</ele>
        <time>2018-07-18T12:10:06Z</time>
      </trkpt>
      <trkpt lat="47.78701" lon="-3.66954">
        <ele>15</ele>
        <time>2018-07-18T12:10:07Z</time>
      </trkpt>
      <trkpt lat="47.78706" lon="-3.66954">
        <ele>15</ele>
        <time>2018-07-18T12:10:08Z</time>
      </trkpt>
      <trkpt lat="47.78711" lon="-3.66954">
        <ele>15</ele>
        <time>2018-07-18T12:10:09Z</time>
      </trkpt>
      <trkpt lat="47.78716" lon="-3.66955">
        <ele>15</ele>
        <time>2018-07-18T12:10:10Z</time>
      </trkpt>
      <trkpt lat="47.78721" lon="-3.66956">
        <ele>15</ele>
        <time>2018-07-18T12:10:11Z</time>
      </trkpt>
      <trkpt lat="47.78726" lon="-3.66957">
        <ele>15</ele>
        <time>2018-07-18T12:10:12Z</time>
      </trkpt>
      <trkpt lat="47.78731" lon="-3.66957">
        <ele>15</ele>
        <time>2018-07-18T12:10:13Z</time>
      </trkpt>
      <trkpt lat="47.78735" lon="-3.66958">
        <ele>15</ele>
        <time>2018-07-18T12:10:14Z</time>
      </trkpt>
      <trkpt lat="47.78741" lon="-3.66959">
        <ele>14</ele>
        <time>2018-07-18T12:10:15Z</time>
      </trkpt>
      <trkpt lat="47.78746" lon="-3.66961">
        <ele>14</ele>
        <time>2018-07-18T12:10:16Z</time>
      </trkpt>
      <trkpt lat="47.78751" lon="-3.66962">
        <ele>14</ele>
        <time>2018-07-18T12:10:17Z</time>
      </trkpt>
      <trkpt lat="47.78756" lon="-3.66963">
        <ele>14</ele>
        <time>2018-07-18T12:10:18Z</time>
      </trkpt>
      <trkpt lat="47.78762" lon="-3.66964">
        <ele>14</ele>
        <time>2018-07-18T12:10:19Z</time>
      </trkpt>
      <trkpt lat="47.78767" lon="-3.66965">
        <ele>14</ele>
        <time>2018-07-18T12:10:20Z</time>
      </trkpt>
      <trkpt lat="47.78773" lon="-3.66966">
        <ele>14</ele>
        <time>2018-07-18T12:10:21Z</time>
      </trkpt>
      <trkpt lat="47.78778" lon="-3.66967">
        <ele>14</ele>
        <time>2018-07-18T12:10:22Z</time>
      </trkpt>
      <trkpt lat="47.78784" lon="-3.66968">
        <ele>14</ele>
        <time>2018-07-18T12:10:23Z</time>
      </trkpt>
      <trkpt lat="47.78789" lon="-3.66969">
        <ele>14</ele>
        <time>2018-07-18T12:10:24Z</time>
      </trkpt>
      <trkpt lat="47.78795" lon="-3.66971">
        <ele>14</ele>
        <time>2018-07-18T12:10:25Z</time>
      </trkpt>
      <trkpt lat="47.78801" lon="-3.66972">
        <ele>14</ele>
        <time>2018-07-18T12:10:26Z</time>
      </trkpt>
      <trkpt lat="47.78807" lon="-3.66974">
        <ele>14</ele>
        <time>2018-07-18T12:10:27Z</time>
      </trkpt>
      <trkpt lat="47.78813" lon="-3.66975">
        <ele>14</ele>
        <time>2018-07-18T12:10:28Z</time>
      </trkpt>
      <trkpt lat="47.78819" lon="-3.66976">
        <ele>14</ele>
        <time>2018-07-18T12:10:29Z</time>
      </trkpt>
      <trkpt lat="47.78824" lon="-3.66977">
        <ele>14</ele>
        <time>2018-07-18T12:10:30Z</time>
      </trkpt>
      <trkpt lat="47.78829" lon="-3.66978">
        <ele>14</ele>
        <time>2018-07-18T12:10:31Z</time>
      </trkpt>
      <trkpt lat="47.78835" lon="-3.66979">
        <ele>14</ele>
        <time>2018-07-18T12:10:32Z</time>
      </trkpt>
      <trkpt lat="47.78841" lon="-3.66978">
        <ele>14</ele>
        <time>2018-07-18T12:10:33Z</time>
      </trkpt>
      <trkpt lat="47.78846" lon="-3.66978">
        <ele>14</ele>
        <time>2018-07-18T12:10:34Z</time>
      </trkpt>
      <trkpt lat="47.78853" lon="-3.66977">
        <ele>14</ele>
        <time>2018-07-18T12:10:35Z</time>
      </trkpt>
      <trkpt lat="47.78859" lon="-3.66976">
        <ele>14</ele>
        <time>2018-07-18T12:10:36Z</time>
      </trkpt>
      <trkpt lat="47.78866" lon="-3.66975">
        <ele>14</ele>
        <time>2018-07-18T12:10:37Z</time>
      </trkpt>
      <trkpt lat="47.78873" lon="-3.66974">
        <ele>14</ele>
        <time>2018-07-18T12:10:38Z</time>
      </trkpt>
      <trkpt lat="47.78879" lon="-3.66973">
        <ele>14</ele>
        <time>2018-07-18T12:10:39Z</time>
      </trkpt>
      <trkpt lat="47.78886" lon="-3.66971">
        <ele>14</ele>
        <time>2018-07-18T12:10:40Z</time>
      </trkpt>
      <trkpt lat="47.78893" lon="-3.66969">
        <ele>15</ele>
        <time>2018-07-18T12:10:41Z</time>
      </trkpt>
      <trkpt lat="47.78899" lon="-3.66968">
        <ele>15</ele>
        <time>2018-07-18T12:10:42Z</time>
      </trkpt>
      <trkpt lat="47.78906" lon="-3.66966">
        <ele>15</ele>
        <time>2018-07-18T12:10:43Z</time>
      </trkpt>
      <trkpt lat="47.78913" lon="-3.66964">
        <ele>15</ele>
        <time>2018-07-18T12:10:44Z</time>
      </trkpt>
      <trkpt lat="47.7892" lon="-3.66962">
        <ele>15</ele>
        <time>2018-07-18T12:10:45Z</time>
      </trkpt>
      <trkpt lat="47.78927" lon="-3.6696">
        <ele>15</ele>
        <time>2018-07-18T12:10:46Z</time>
      </trkpt>
      <trkpt lat="47.78934" lon="-3.66957">
        <ele>15</ele>
        <time>2018-07-18T12:10:47Z</time>
      </trkpt>
      <trkpt lat="47.7894" lon="-3.66956">
        <ele>15</ele>
        <time>2018-07-18T12:10:48Z</time>
      </trkpt>
      <trkpt lat="47.78948" lon="-3.66954">
        <ele>15</ele>
        <time>2018-07-18T12:10:49Z</time>
      </trkpt>
      <trkpt lat="47.78955" lon="-3.66952">
        <ele>14</ele>
        <time>2018-07-18T12:10:50Z</time>
      </trkpt>
      <trkpt lat="47.78963" lon="-3.66949">
        <ele>14</ele>
        <time>2018-07-18T12:10:51Z</time>
      </trkpt>
      <trkpt lat="47.7897" lon="-3.66946">
        <ele>14</ele>
        <time>2018-07-18T12:10:52Z</time>
      </trkpt>
      <trkpt lat="47.78977" lon="-3.66943">
        <ele>14</ele>
        <time>2018-07-18T12:10:53Z</time>
      </trkpt>
      <trkpt lat="47.78984" lon="-3.66941">
        <ele>14</ele>
        <time>2018-07-18T12:10:54Z</time>
      </trkpt>
      <trkpt lat="47.78992" lon="-3.6694">
        <ele>14</ele>
        <time>2018-07-18T12:10:55Z</time>
      </trkpt>
      <trkpt lat="47.79" lon="-3.66937">
        <ele>13</ele>
        <time>2018-07-18T12:10:56Z</time>
      </trkpt>
      <trkpt lat="47.79008" lon="-3.66934">
        <ele>13</ele>
        <time>2018-07-18T12:10:57Z</time>
      </trkpt>
      <trkpt lat="47.79016" lon="-3.66931">
        <ele>13</ele>
        <time>2018-07-18T12:10:58Z</time>
      </trkpt>
      <trkpt lat="47.79024" lon="-3.66928">
        <ele>12</ele>
        <time>2018-07-18T12:10:59Z</time>
      </trkpt>
      <trkpt lat="47.79032" lon="-3.66924">
        <ele>12</ele>
        <time>2018-07-18T12:11:00Z</time>
      </trkpt>
      <trkpt lat="47.7904" lon="-3.66919">
        <ele>12</ele>
        <time>2018-07-18T12:11:01Z</time>
      </trkpt>
      <trkpt lat="47.79048" lon="-3.66914">
        <ele>12</ele>
        <time>2018-07-18T12:11:02Z</time>
      </trkpt>
      <trkpt lat="47.79055" lon="-3.66908">
        <ele>11</ele>
        <time>2018-07-18T12:11:03Z</time>
      </trkpt>
      <trkpt lat="47.79062" lon="-3.66901">
        <ele>11</ele>
        <time>2018-07-18T12:11:04Z</time>
      </trkpt>
      <trkpt lat="47.79069" lon="-3.66895">
        <ele>11</ele>
        <time>2018-07-18T12:11:05Z</time>
      </trkpt>
      <trkpt lat="47.79076" lon="-3.66888">
        <ele>11</ele>
        <time>2018-07-18T12:11:06Z</time>
      </trkpt>
      <trkpt lat="47.79082" lon="-3.66882">
        <ele>11</ele>
        <time>2018-07-18T12:11:07Z</time>
      </trkpt>
      <trkpt lat="47.79088" lon="-3.66876">
        <ele>11</ele>
        <time>2018-07-18T12:11:08Z</time>
      </trkpt>
      <trkpt lat="47.79093" lon="-3.6687">
        <ele>11</ele>
        <time>2018-07-18T12:11:09Z</time>
      </trkpt>
      <trkpt lat="47.79097" lon="-3.66865">
        <ele>11</ele>
        <time>2018-07-18T12:11:10Z</time>
      </trkpt>
      <trkpt lat="47.79101" lon="-3.6686">
        <ele>11</ele>
        <time>2018-07-18T12:11:11Z</time>
      </trkpt>
      <trkpt lat="47.79103" lon="-3.66857">
        <ele>11</ele>
        <time>2018-07-18T12:11:12Z</time>
      </trkpt>
      <trkpt lat="47.79104" lon="-3.66856">
        <ele>11</ele>
        <time>2018-07-18T12:11:13Z</time>
      </trkpt>
      <trkpt lat="47.79104" lon="-3.66856">
        <ele>11</ele>
        <time>2018-07-18T12:11:14Z</time>
      </trkpt>
      <trkpt lat="47.79104" lon="-3.66856">
        <ele>11</ele>
        <time>2018-07-18T12:11:15Z</time>
      </trkpt>
      <trkpt lat="47.79104" lon="-3.66856">
        <ele>11</ele>
        <time>2018-07-18T12:11:16Z</time>
      </trkpt>
      <trkpt lat="47.79106" lon="-3.66856">
        <ele>10</ele>
        <time>2018-07-18T12:11:17Z</time>
      </trkpt>
      <trkpt lat="47.79107" lon="-3.66855">
        <ele>10</ele>
        <time>2018-07-18T12:11:18Z</time>
      </trkpt>
      <trkpt lat="47.79108" lon="-3.66853">
        <ele>10</ele>
        <time>2018-07-18T12:11:19Z</time>
      </trkpt>
      <trkpt lat="47.79109" lon="-3.66852">
        <ele>10</ele>
        <time>2018-07-18T12:11:20Z</time>
      </trkpt>
      <trkpt lat="47.7911" lon="-3.6685">
        <ele>11</ele>
        <time>2018-07-18T12:11:21Z</time>
      </trkpt>
      <trkpt lat="47.79111" lon="-3.66847">
        <ele>11</ele>
        <time>2018-07-18T12:11:22Z</time>
      </trkpt>
      <trkpt lat="47.79111" lon="-3.66844">
        <ele>11</ele>
        <time>2018-07-18T12:11:23Z</time>
      </trkpt>
      <trkpt lat="47.79112" lon="-3.66841">
        <ele>11</ele>
        <time>2018-07-18T12:11:24Z</time>
      </trkpt>
      <trkpt lat="47.79113" lon="-3.66839">
        <ele>12</ele>
        <time>2018-07-18T12:11:25Z</time>
      </trkpt>
      <trkpt lat="47.79114" lon="-3.66837">
        <ele>12</ele>
        <time>2018-07-18T12:11:26Z</time>
      </trkpt>
      <trkpt lat="47.79114" lon="-3.66837">
        <ele>12</ele>
        <time>2018-07-18T12:11:27Z</time>
      </trkpt>
      <trkpt lat="47.79114" lon="-3.66837">
        <ele>12</ele>
        <time>2018-07-18T12:11:28Z</time>
      </trkpt>
      <trkpt lat="47.79114" lon="-3.66837">
        <ele>12</ele>
        <time>2018-07-18T12:11:29Z</time>
      </trkpt>
      <trkpt lat="47.79115" lon="-3.66837">
        <ele>12</ele>
        <time>2018-07-18T12:11:30Z</time>
      </trkpt>
      <trkpt lat="47.79116" lon="-3.66835">
        <ele>13</ele>
        <time>2018-07-18T12:11:31Z</time>
      </trkpt>
      <trkpt lat="47.79117" lon="-3.66833">
        <ele>13</ele>
        <time>2018-07-18T12:11:32Z</time>
      </trkpt>
      <trkpt lat="47.79117" lon="-3.6683">
        <ele>13</ele>
        <time>2018-07-18T12:11:33Z</time>
      </trkpt>
      <trkpt lat="47.79117" lon="-3.66828">
        <ele>13</ele>
        <time>2018-07-18T12:11:34Z</time>
      </trkpt>
      <trkpt lat="47.79117" lon="-3.66825">
        <ele>13</ele>
        <time>2018-07-18T12:11:35Z</time>
      </trkpt>
      <trkpt lat="47.79118" lon="-3.66822">
        <ele>13</ele>
        <time>2018-07-18T12:11:36Z</time>
      </trkpt>
      <trkpt lat="47.79117" lon="-3.66818">
        <ele>13</ele>
        <time>2018-07-18T12:11:37Z</time>
      </trkpt>
      <trkpt lat="47.79117" lon="-3.66814">
        <ele>13</ele>
        <time>2018-07-18T12:11:38Z</time>
      </trkpt>
      <trkpt lat="47.79116" lon="-3.66811">
        <ele>13</ele>
        <time>2018-07-18T12:11:39Z</time>
      </trkpt>
      <trkpt lat="47.79115" lon="-3.66809">
        <ele>13</ele>
        <time>2018-07-18T12:11:40Z</time>
      </trkpt>
      <trkpt lat="47.79115" lon="-3.66806">
        <ele>13</ele>
        <time>2018-07-18T12:11:41Z</time>
      </trkpt>
      <trkpt lat="47.79114" lon="-3.66803">
        <ele>13</ele>
        <time>2018-07-18T12:11:42Z</time>
      </trkpt>
      <trkpt lat="47.79114" lon="-3.668">
        <ele>13</ele>
        <time>2018-07-18T12:11:43Z</time>
      </trkpt>
      <trkpt lat="47.79114" lon="-3.66797">
        <ele>13</ele>
        <time>2018-07-18T12:11:44Z</time>
      </trkpt>
      <trkpt lat="47.79115" lon="-3.66793">
        <ele>13</ele>
        <time>2018-07-18T12:11:45Z</time>
      </trkpt>
      <trkpt lat="47.79115" lon="-3.6679">
        <ele>13</ele>
        <time>2018-07-18T12:11:46Z</time>
      </trkpt>
      <trkpt lat="47.79115" lon="-3.66787">
        <ele>13</ele>
        <time>2018-07-18T12:11:47Z</time>
      </trkpt>
      <trkpt lat="47.79114" lon="-3.66783">
        <ele>13</ele>
        <time>2018-07-18T12:11:48Z</time>
      </trkpt>
      <trkpt lat="47.79114" lon="-3.66779">
        <ele>13</ele>
        <time>2018-07-18T12:11:49Z</time>
      </trkpt>
      <trkpt lat="47.79113" lon="-3.66776">
        <ele>13</ele>
        <time>2018-07-18T12:11:50Z</time>
      </trkpt>
      <trkpt lat="47.79111" lon="-3.66772">
        <ele>12</ele>
        <time>2018-07-18T12:11:51Z</time>
      </trkpt>
      <trkpt lat="47.79111" lon="-3.66768">
        <ele>12</ele>
        <time>2018-07-18T12:11:52Z</time>
      </trkpt>
      <trkpt lat="47.7911" lon="-3.66764">
        <ele>12</ele>
        <time>2018-07-18T12:11:53Z</time>
      </trkpt>
      <trkpt lat="47.7911" lon="-3.6676">
        <ele>12</ele>
        <time>2018-07-18T12:11:54Z</time>
      </trkpt>
      <trkpt lat="47.79109" lon="-3.66756">
        <ele>12</ele>
        <time>2018-07-18T12:11:55Z</time>
      </trkpt>
      <trkpt lat="47.79108" lon="-3.66753">
        <ele>11</ele>
        <time>2018-07-18T12:11:56Z</time>
      </trkpt>
      <trkpt lat="47.79108" lon="-3.66749">
        <ele>11</ele>
        <time>2018-07-18T12:11:57Z</time>
      </trkpt>
      <trkpt lat="47.79106" lon="-3.66745">
        <ele>11</ele>
        <time>2018-07-18T12:11:58Z</time>
      </trkpt>
      <trkpt lat="47.79106" lon="-3.66741">
        <ele>10</ele>
        <time>2018-07-18T12:11:59Z</time>
      </trkpt>
      <trkpt lat="47.79105" lon="-3.66737">
        <ele>10</ele>
        <time>2018-07-18T12:12:00Z</time>
      </trkpt>
      <trkpt lat="47.79104" lon="-3.66732">
        <ele>10</ele>
        <time>2018-07-18T12:12:01Z</time>
      </trkpt>
      <trkpt lat="47.79103" lon="-3.66728">
        <ele>9</ele>
        <time>2018-07-18T12:12:02Z</time>
      </trkpt>
      <trkpt lat="47.79102" lon="-3.66723">
        <ele>9</ele>
        <time>2018-07-18T12:12:03Z</time>
      </trkpt>
      <trkpt lat="47.79101" lon="-3.66718">
        <ele>9</ele>
        <time>2018-07-18T12:12:04Z</time>
      </trkpt>
      <trkpt lat="47.791" lon="-3.66713">
        <ele>9</ele>
        <time>2018-07-18T12:12:05Z</time>
      </trkpt>
      <trkpt lat="47.79099" lon="-3.66708">
        <ele>9</ele>
        <time>2018-07-18T12:12:06Z</time>
      </trkpt>
      <trkpt lat="47.79098" lon="-3.66704">
        <ele>8</ele>
        <time>2018-07-18T12:12:07Z</time>
      </trkpt>
      <trkpt lat="47.79096" lon="-3.66699">
        <ele>8</ele>
        <time>2018-07-18T12:12:08Z</time>
      </trkpt>
      <trkpt lat="47.79095" lon="-3.66694">
        <ele>8</ele>
        <time>2018-07-18T12:12:09Z</time>
      </trkpt>
      <trkpt lat="47.79094" lon="-3.66689">
        <ele>8</ele>
        <time>2018-07-18T12:12:10Z</time>
      </trkpt>
      <trkpt lat="47.79094" lon="-3.66684">
        <ele>8</ele>
        <time>2018-07-18T12:12:11Z</time>
      </trkpt>
      <trkpt lat="47.79093" lon="-3.66679">
        <ele>8</ele>
        <time>2018-07-18T12:12:12Z</time>
      </trkpt>
      <trkpt lat="47.79092" lon="-3.66675">
        <ele>8</ele>
        <time>2018-07-18T12:12:13Z</time>
      </trkpt>
      <trkpt lat="47.79091" lon="-3.66669">
        <ele>8</ele>
        <time>2018-07-18T12:12:14Z</time>
      </trkpt>
      <trkpt lat="47.7909" lon="-3.66665">
        <ele>8</ele>
        <time>2018-07-18T12:12:15Z</time>
      </trkpt>
      <trkpt lat="47.79088" lon="-3.6666">
        <ele>8</ele>
        <time>2018-07-18T12:12:16Z</time>
      </trkpt>
      <trkpt lat="47.79087" lon="-3.66654">
        <ele>8</ele>
        <time>2018-07-18T12:12:17Z</time>
      </trkpt>
      <trkpt lat="47.79086" lon="-3.66649">
        <ele>8</ele>
        <time>2018-07-18T12:12:18Z</time>
      </trkpt>
      <trkpt lat="47.79085" lon="-3.66644">
        <ele>8</ele>
        <time>2018-07-18T12:12:19Z</time>
      </trkpt>
      <trkpt lat="47.79084" lon="-3.66639">
        <ele>8</ele>
        <time>2018-07-18T12:12:20Z</time>
      </trkpt>
      <trkpt lat="47.79083" lon="-3.66634">
        <ele>8</ele>
        <time>2018-07-18T12:12:21Z</time>
      </trkpt>
      <trkpt lat="47.79082" lon="-3.66629">
        <ele>8</ele>
        <time>2018-07-18T12:12:22Z</time>
      </trkpt>
      <trkpt lat="47.79082" lon="-3.66624">
        <ele>8</ele>
        <time>2018-07-18T12:12:23Z</time>
      </trkpt>
      <trkpt lat="47.79081" lon="-3.66619">
        <ele>8</ele>
        <time>2018-07-18T12:12:24Z</time>
      </trkpt>
      <trkpt lat="47.7908" lon="-3.66614">
        <ele>8</ele>
        <time>2018-07-18T12:12:25Z</time>
      </trkpt>
      <trkpt lat="47.79079" lon="-3.66609">
        <ele>8</ele>
        <time>2018-07-18T12:12:26Z</time>
      </trkpt>
      <trkpt lat="47.79078" lon="-3.66604">
        <ele>8</ele>
        <time>2018-07-18T12:12:27Z</time>
      </trkpt>
      <trkpt lat="47.79078" lon="-3.66599">
        <ele>9</ele>
        <time>2018-07-18T12:12:28Z</time>
      </trkpt>
      <trkpt lat="47.79078" lon="-3.66594">
        <ele>9</ele>
        <time>2018-07-18T12:12:29Z</time>
      </trkpt>
      <trkpt lat="47.79077" lon="-3.66589">
        <ele>10</ele>
        <time>2018-07-18T12:12:30Z</time>
      </trkpt>
      <trkpt lat="47.79076" lon="-3.66584">
        <ele>10</ele>
        <time>2018-07-18T12:12:31Z</time>
      </trkpt>
      <trkpt lat="47.79076" lon="-3.66579">
        <ele>10</ele>
        <time>2018-07-18T12:12:32Z</time>
      </trkpt>
      <trkpt lat="47.79075" lon="-3.66574">
        <ele>11</ele>
        <time>2018-07-18T12:12:33Z</time>
      </trkpt>
      <trkpt lat="47.79075" lon="-3.66569">
        <ele>12</ele>
        <time>2018-07-18T12:12:34Z</time>
      </trkpt>
      <trkpt lat="47.79074" lon="-3.66563">
        <ele>12</ele>
        <time>2018-07-18T12:12:35Z</time>
      </trkpt>
      <trkpt lat="47.79073" lon="-3.66558">
        <ele>13</ele>
        <time>2018-07-18T12:12:36Z</time>
      </trkpt>
      <trkpt lat="47.79072" lon="-3.66552">
        <ele>13</ele>
        <time>2018-07-18T12:12:37Z</time>
      </trkpt>
      <trkpt lat="47.79072" lon="-3.66547">
        <ele>13</ele>
        <time>2018-07-18T12:12:38Z</time>
      </trkpt>
      <trkpt lat="47.79071" lon="-3.66541">
        <ele>14</ele>
        <time>2018-07-18T12:12:39Z</time>
      </trkpt>
      <trkpt lat="47.79071" lon="-3.66536">
        <ele>14</ele>
        <time>2018-07-18T12:12:40Z</time>
      </trkpt>
      <trkpt lat="47.7907" lon="-3.6653">
        <ele>15</ele>
        <time>2018-07-18T12:12:41Z</time>
      </trkpt>
      <trkpt lat="47.7907" lon="-3.66524">
        <ele>15</ele>
        <time>2018-07-18T12:12:42Z</time>
      </trkpt>
      <trkpt lat="47.7907" lon="-3.66518">
        <ele>15</ele>
        <time>2018-07-18T12:12:43Z</time>
      </trkpt>
      <trkpt lat="47.7907" lon="-3.66513">
        <ele>16</ele>
        <time>2018-07-18T12:12:44Z</time>
      </trkpt>
      <trkpt lat="47.7907" lon="-3.66507">
        <ele>16</ele>
        <time>2018-07-18T12:12:45Z</time>
      </trkpt>
      <trkpt lat="47.7907" lon="-3.66502">
        <ele>16</ele>
        <time>2018-07-18T12:12:46Z</time>
      </trkpt>
      <trkpt lat="47.7907" lon="-3.66496">
        <ele>17</ele>
        <time>2018-07-18T12:12:47Z</time>
      </trkpt>
      <trkpt lat="47.79071" lon="-3.66491">
        <ele>17</ele>
        <time>2018-07-18T12:12:48Z</time>
      </trkpt>
      <trkpt lat="47.79071" lon="-3.66486">
        <ele>17</ele>
        <time>2018-07-18T12:12:49Z</time>
      </trkpt>
      <trkpt lat="47.79071" lon="-3.6648">
        <ele>17</ele>
        <time>2018-07-18T12:12:50Z</time>
      </trkpt>
      <trkpt lat="47.79072" lon="-3.66475">
        <ele>17</ele>
        <time>2018-07-18T12:12:51Z</time>
      </trkpt>
      <trkpt lat="47.79072" lon="-3.6647">
        <ele>18</ele>
        <time>2018-07-18T12:12:52Z</time>
      </trkpt>
      <trkpt lat="47.79073" lon="-3.66466">
        <ele>18</ele>
        <time>2018-07-18T12:12:53Z</time>
      </trkpt>
      <trkpt lat="47.79073" lon="-3.66462">
        <ele>18</ele>
        <time>2018-07-18T12:12:54Z</time>
      </trkpt>
      <trkpt lat="47.79073" lon="-3.66458">
        <ele>18</ele>
        <time>2018-07-18T12:12:55Z</time>
      </trkpt>
      <trkpt lat="47.79074" lon="-3.66456">
        <ele>18</ele>
        <time>2018-07-18T12:12:56Z</time>
      </trkpt>
      <trkpt lat="47.79074" lon="-3.66455">
        <ele>18</ele>
        <time>2018-07-18T12:12:57Z</time>
      </trkpt>
      <trkpt lat="47.79074" lon="-3.66455">
        <ele>19</ele>
        <time>2018-07-18T12:12:58Z</time>
      </trkpt>
      <trkpt lat="47.79074" lon="-3.66454">
        <ele>19</ele>
        <time>2018-07-18T12:12:59Z</time>
      </trkpt>
      <trkpt lat="47.79074" lon="-3.66454">
        <ele>19</ele>
        <time>2018-07-18T12:13:00Z</time>
      </trkpt>
      <trkpt lat="47.79073" lon="-3.66452">
        <ele>20</ele>
        <time>2018-07-18T12:13:01Z</time>
      </trkpt>
      <trkpt lat="47.79074" lon="-3.66449">
        <ele>20</ele>
        <time>2018-07-18T12:13:02Z</time>
      </trkpt>
      <trkpt lat="47.79075" lon="-3.66446">
        <ele>20</ele>
        <time>2018-07-18T12:13:03Z</time>
      </trkpt>
      <trkpt lat="47.79076" lon="-3.66442">
        <ele>20</ele>
        <time>2018-07-18T12:13:04Z</time>
      </trkpt>
      <trkpt lat="47.79077" lon="-3.66438">
        <ele>20</ele>
        <time>2018-07-18T12:13:05Z</time>
      </trkpt>
      <trkpt lat="47.79077" lon="-3.66432">
        <ele>20</ele>
        <time>2018-07-18T12:13:06Z</time>
      </trkpt>
      <trkpt lat="47.79078" lon="-3.66427">
        <ele>21</ele>
        <time>2018-07-18T12:13:07Z</time>
      </trkpt>
      <trkpt lat="47.79079" lon="-3.66422">
        <ele>21</ele>
        <time>2018-07-18T12:13:08Z</time>
      </trkpt>
      <trkpt lat="47.79079" lon="-3.66416">
        <ele>21</ele>
        <time>2018-07-18T12:13:09Z</time>
      </trkpt>
      <trkpt lat="47.7908" lon="-3.6641">
        <ele>21</ele>
        <time>2018-07-18T12:13:10Z</time>
      </trkpt>
      <trkpt lat="47.79081" lon="-3.66405">
        <ele>22</ele>
        <time>2018-07-18T12:13:11Z</time>
      </trkpt>
      <trkpt lat="47.79081" lon="-3.66399">
        <ele>22</ele>
        <time>2018-07-18T12:13:12Z</time>
      </trkpt>
      <trkpt lat="47.79082" lon="-3.66393">
        <ele>22</ele>
        <time>2018-07-18T12:13:13Z</time>
      </trkpt>
      <trkpt lat="47.79083" lon="-3.66387">
        <ele>23</ele>
        <time>2018-07-18T12:13:14Z</time>
      </trkpt>
      <trkpt lat="47.79083" lon="-3.66381">
        <ele>23</ele>
        <time>2018-07-18T12:13:15Z</time>
      </trkpt>
      <trkpt lat="47.79084" lon="-3.66375">
        <ele>23</ele>
        <time>2018-07-18T12:13:16Z</time>
      </trkpt>
      <trkpt lat="47.79085" lon="-3.66369">
        <ele>23</ele>
        <time>2018-07-18T12:13:17Z</time>
      </trkpt>
      <trkpt lat="47.79086" lon="-3.66363">
        <ele>24</ele>
        <time>2018-07-18T12:13:18Z</time>
      </trkpt>
      <trkpt lat="47.79086" lon="-3.66357">
        <ele>24</ele>
        <time>2018-07-18T12:13:19Z</time>
      </trkpt>
      <trkpt lat="47.79087" lon="-3.66352">
        <ele>24</ele>
        <time>2018-07-18T12:13:20Z</time>
      </trkpt>
      <trkpt lat="47.79088" lon="-3.66346">
        <ele>24</ele>
        <time>2018-07-18T12:13:21Z</time>
      </trkpt>
      <trkpt lat="47.79089" lon="-3.6634">
        <ele>24</ele>
        <time>2018-07-18T12:13:22Z</time>
      </trkpt>
      <trkpt lat="47.79089" lon="-3.66334">
        <ele>25</ele>
        <time>2018-07-18T12:13:23Z</time>
      </trkpt>
      <trkpt lat="47.7909" lon="-3.66328">
        <ele>25</ele>
        <time>2018-07-18T12:13:24Z</time>
      </trkpt>
      <trkpt lat="47.79091" lon="-3.66322">
        <ele>25</ele>
        <time>2018-07-18T12:13:25Z</time>
      </trkpt>
      <trkpt lat="47.79092" lon="-3.66316">
        <ele>25</ele>
        <time>2018-07-18T12:13:26Z</time>
      </trkpt>
      <trkpt lat="47.79093" lon="-3.66311">
        <ele>25</ele>
        <time>2018-07-18T12:13:27Z</time>
      </trkpt>
      <trkpt lat="47.79093" lon="-3.66304">
        <ele>25</ele>
        <time>2018-07-18T12:13:28Z</time>
      </trkpt>
      <trkpt lat="47.79094" lon="-3.66299">
        <ele>26</ele>
        <time>2018-07-18T12:13:29Z</time>
      </trkpt>
      <trkpt lat="47.79094" lon="-3.66293">
        <ele>26</ele>
        <time>2018-07-18T12:13:30Z</time>
      </trkpt>
      <trkpt lat="47.79094" lon="-3.66288">
        <ele>26</ele>
        <time>2018-07-18T12:13:31Z</time>
      </trkpt>
      <trkpt lat="47.79095" lon="-3.66282">
        <ele>26</ele>
        <time>2018-07-18T12:13:32Z</time>
      </trkpt>
      <trkpt lat="47.79097" lon="-3.66276">
        <ele>26</ele>
        <time>2018-07-18T12:13:33Z</time>
      </trkpt>
      <trkpt lat="47.79099" lon="-3.66271">
        <ele>26</ele>
        <time>2018-07-18T12:13:34Z</time>
      </trkpt>
      <trkpt lat="47.79101" lon="-3.66266">
        <ele>26</ele>
        <time>2018-07-18T12:13:35Z</time>
      </trkpt>
      <trkpt lat="47.79104" lon="-3.66262">
        <ele>26</ele>
        <time>2018-07-18T12:13:36Z</time>
      </trkpt>
      <trkpt lat="47.79108" lon="-3.66257">
        <ele>26</ele>
        <time>2018-07-18T12:13:37Z</time>
      </trkpt>
      <trkpt lat="47.79111" lon="-3.66253">
        <ele>26</ele>
        <time>2018-07-18T12:13:38Z</time>
      </trkpt>
      <trkpt lat="47.79114" lon="-3.66249">
        <ele>26</ele>
        <time>2018-07-18T12:13:39Z</time>
      </trkpt>
      <trkpt lat="47.79118" lon="-3.66245">
        <ele>27</ele>
        <time>2018-07-18T12:13:40Z</time>
      </trkpt>
      <trkpt lat="47.79121" lon="-3.66241">
        <ele>27</ele>
        <time>2018-07-18T12:13:41Z</time>
      </trkpt>
      <trkpt lat="47.79124" lon="-3.66237">
        <ele>27</ele>
        <time>2018-07-18T12:13:42Z</time>
      </trkpt>
      <trkpt lat="47.79128" lon="-3.66232">
        <ele>27</ele>
        <time>2018-07-18T12:13:43Z</time>
      </trkpt>
      <trkpt lat="47.79131" lon="-3.66227">
        <ele>27</ele>
        <time>2018-07-18T12:13:44Z</time>
      </trkpt>
      <trkpt lat="47.79135" lon="-3.66222">
        <ele>27</ele>
        <time>2018-07-18T12:13:45Z</time>
      </trkpt>
      <trkpt lat="47.79138" lon="-3.66217">
        <ele>27</ele>
        <time>2018-07-18T12:13:46Z</time>
      </trkpt>
      <trkpt lat="47.79141" lon="-3.66212">
        <ele>27</ele>
        <time>2018-07-18T12:13:47Z</time>
      </trkpt>
      <trkpt lat="47.79145" lon="-3.66207">
        <ele>27</ele>
        <time>2018-07-18T12:13:48Z</time>
      </trkpt>
      <trkpt lat="47.79148" lon="-3.66201">
        <ele>27</ele>
        <time>2018-07-18T12:13:49Z</time>
      </trkpt>
      <trkpt lat="47.79151" lon="-3.66196">
        <ele>27</ele>
        <time>2018-07-18T12:13:50Z</time>
      </trkpt>
      <trkpt lat="47.79154" lon="-3.6619">
        <ele>27</ele>
        <time>2018-07-18T12:13:51Z</time>
      </trkpt>
      <trkpt lat="47.79157" lon="-3.66184">
        <ele>27</ele>
        <time>2018-07-18T12:13:52Z</time>
      </trkpt>
      <trkpt lat="47.7916" lon="-3.66177">
        <ele>27</ele>
        <time>2018-07-18T12:13:53Z</time>
      </trkpt>
      <trkpt lat="47.79163" lon="-3.66171">
        <ele>27</ele>
        <time>2018-07-18T12:13:54Z</time>
      </trkpt>
      <trkpt lat="47.79166" lon="-3.66164">
        <ele>27</ele>
        <time>2018-07-18T12:13:55Z</time>
      </trkpt>
      <trkpt lat="47.79169" lon="-3.66158">
        <ele>27</ele>
        <time>2018-07-18T12:13:56Z</time>
      </trkpt>
      <trkpt lat="47.79171" lon="-3.66151">
        <ele>27</ele>
        <time>2018-07-18T12:13:57Z</time>
      </trkpt>
      <trkpt lat="47.79174" lon="-3.66144">
        <ele>27</ele>
        <time>2018-07-18T12:13:58Z</time>
      </trkpt>
      <trkpt lat="47.79177" lon="-3.66138">
        <ele>28</ele>
        <time>2018-07-18T12:13:59Z</time>
      </trkpt>
      <trkpt lat="47.7918" lon="-3.66131">
        <ele>28</ele>
        <time>2018-07-18T12:14:00Z</time>
      </trkpt>
      <trkpt lat="47.79182" lon="-3.66124">
        <ele>28</ele>
        <time>2018-07-18T12:14:01Z</time>
      </trkpt>
      <trkpt lat="47.79185" lon="-3.66117">
        <ele>28</ele>
        <time>2018-07-18T12:14:02Z</time>
      </trkpt>
      <trkpt lat="47.79188" lon="-3.6611">
        <ele>28</ele>
        <time>2018-07-18T12:14:03Z</time>
      </trkpt>
      <trkpt lat="47.79191" lon="-3.66103">
        <ele>28</ele>
        <time>2018-07-18T12:14:04Z</time>
      </trkpt>
      <trkpt lat="47.79194" lon="-3.66096">
        <ele>28</ele>
        <time>2018-07-18T12:14:05Z</time>
      </trkpt>
      <trkpt lat="47.79196" lon="-3.66088">
        <ele>28</ele>
        <time>2018-07-18T12:14:06Z</time>
      </trkpt>
      <trkpt lat="47.79199" lon="-3.66081">
        <ele>28</ele>
        <time>2018-07-18T12:14:07Z</time>
      </trkpt>
      <trkpt lat="47.79202" lon="-3.66074">
        <ele>28</ele>
        <time>2018-07-18T12:14:08Z</time>
      </trkpt>
      <trkpt lat="47.79204" lon="-3.66066">
        <ele>28</ele>
        <time>2018-07-18T12:14:09Z</time>
      </trkpt>
      <trkpt lat="47.79206" lon="-3.66059">
        <ele>28</ele>
        <time>2018-07-18T12:14:10Z</time>
      </trkpt>
      <trkpt lat="47.79209" lon="-3.66052">
        <ele>28</ele>
        <time>2018-07-18T12:14:11Z</time>
      </trkpt>
      <trkpt lat="47.7921" lon="-3.66044">
        <ele>28</ele>
        <time>2018-07-18T12:14:12Z</time>
      </trkpt>
      <trkpt lat="47.79213" lon="-3.66037">
        <ele>29</ele>
        <time>2018-07-18T12:14:13Z</time>
      </trkpt>
      <trkpt lat="47.79214" lon="-3.66029">
        <ele>29</ele>
        <time>2018-07-18T12:14:14Z</time>
      </trkpt>
      <trkpt lat="47.79216" lon="-3.66022">
        <ele>29</ele>
        <time>2018-07-18T12:14:15Z</time>
      </trkpt>
      <trkpt lat="47.79217" lon="-3.66014">
        <ele>29</ele>
        <time>2018-07-18T12:14:16Z</time>
      </trkpt>
      <trkpt lat="47.79218" lon="-3.66006">
        <ele>29</ele>
        <time>2018-07-18T12:14:17Z</time>
      </trkpt>
      <trkpt lat="47.7922" lon="-3.65998">
        <ele>29</ele>
        <time>2018-07-18T12:14:18Z</time>
      </trkpt>
      <trkpt lat="47.7922" lon="-3.65989">
        <ele>29</ele>
        <time>2018-07-18T12:14:19Z</time>
      </trkpt>
      <trkpt lat="47.79221" lon="-3.65982">
        <ele>29</ele>
        <time>2018-07-18T12:14:20Z</time>
      </trkpt>
      <trkpt lat="47.79222" lon="-3.65974">
        <ele>29</ele>
        <time>2018-07-18T12:14:21Z</time>
      </trkpt>
      <trkpt lat="47.79222" lon="-3.65966">
        <ele>29</ele>
        <time>2018-07-18T12:14:22Z</time>
      </trkpt>
      <trkpt lat="47.79223" lon="-3.65958">
        <ele>29</ele>
        <time>2018-07-18T12:14:23Z</time>
      </trkpt>
      <trkpt lat="47.79223" lon="-3.6595">
        <ele>29</ele>
        <time>2018-07-18T12:14:24Z</time>
      </trkpt>
      <trkpt lat="47.79223" lon="-3.65942">
        <ele>29</ele>
        <time>2018-07-18T12:14:25Z</time>
      </trkpt>
      <trkpt lat="47.79223" lon="-3.65934">
        <ele>29</ele>
        <time>2018-07-18T12:14:26Z</time>
      </trkpt>
      <trkpt lat="47.79223" lon="-3.65926">
        <ele>29</ele>
        <time>2018-07-18T12:14:27Z</time>
      </trkpt>
      <trkpt lat="47.79223" lon="-3.65918">
        <ele>29</ele>
        <time>2018-07-18T12:14:28Z</time>
      </trkpt>
      <trkpt lat="47.79223" lon="-3.6591">
        <ele>29</ele>
        <time>2018-07-18T12:14:29Z</time>
      </trkpt>
      <trkpt lat="47.79223" lon="-3.65901">
        <ele>29</ele>
        <time>2018-07-18T12:14:30Z</time>
      </trkpt>
      <trkpt lat="47.79223" lon="-3.65893">
        <ele>29</ele>
        <time>2018-07-18T12:14:31Z</time>
      </trkpt>
      <trkpt lat="47.79223" lon="-3.65885">
        <ele>29</ele>
        <time>2018-07-18T12:14:32Z</time>
      </trkpt>
      <trkpt lat="47.79223" lon="-3.65877">
        <ele>29</ele>
        <time>2018-07-18T12:14:33Z</time>
      </trkpt>
      <trkpt lat="47.79223" lon="-3.65869">
        <ele>29</ele>
        <time>2018-07-18T12:14:34Z</time>
      </trkpt>
      <trkpt lat="47.79223" lon="-3.65861">
        <ele>29</ele>
        <time>2018-07-18T12:14:35Z</time>
      </trkpt>
      <trkpt lat="47.79222" lon="-3.65854">
        <ele>29</ele>
        <time>2018-07-18T12:14:36Z</time>
      </trkpt>
      <trkpt lat="47.79222" lon="-3.65847">
        <ele>29</ele>
        <time>2018-07-18T12:14:37Z</time>
      </trkpt>
      <trkpt lat="47.79222" lon="-3.6584">
        <ele>29</ele>
        <time>2018-07-18T12:14:38Z</time>
      </trkpt>
      <trkpt lat="47.79222" lon="-3.65833">
        <ele>29</ele>
        <time>2018-07-18T12:14:39Z</time>
      </trkpt>
      <trkpt lat="47.79223" lon="-3.65825">
        <ele>29</ele>
        <time>2018-07-18T12:14:40Z</time>
      </trkpt>
      <trkpt lat="47.79223" lon="-3.65818">
        <ele>30</ele>
        <time>2018-07-18T12:14:41Z</time>
      </trkpt>
      <trkpt lat="47.79224" lon="-3.65809">
        <ele>30</ele>
        <time>2018-07-18T12:14:42Z</time>
      </trkpt>
      <trkpt lat="47.79225" lon="-3.65802">
        <ele>30</ele>
        <time>2018-07-18T12:14:43Z</time>
      </trkpt>
      <trkpt lat="47.79226" lon="-3.65793">
        <ele>30</ele>
        <time>2018-07-18T12:14:44Z</time>
      </trkpt>
      <trkpt lat="47.79227" lon="-3.65785">
        <ele>30</ele>
        <time>2018-07-18T12:14:45Z</time>
      </trkpt>
      <trkpt lat="47.79228" lon="-3.65776">
        <ele>30</ele>
        <time>2018-07-18T12:14:46Z</time>
      </trkpt>
      <trkpt lat="47.79229" lon="-3.65768">
        <ele>30</ele>
        <time>2018-07-18T12:14:47Z</time>
      </trkpt>
      <trkpt lat="47.7923" lon="-3.65759">
        <ele>30</ele>
        <time>2018-07-18T12:14:48Z</time>
      </trkpt>
      <trkpt lat="47.79232" lon="-3.6575">
        <ele>30</ele>
        <time>2018-07-18T12:14:49Z</time>
      </trkpt>
      <trkpt lat="47.79233" lon="-3.65741">
        <ele>30</ele>
        <time>2018-07-18T12:14:50Z</time>
      </trkpt>
      <trkpt lat="47.79234" lon="-3.65732">
        <ele>30</ele>
        <time>2018-07-18T12:14:51Z</time>
      </trkpt>
      <trkpt lat="47.79236" lon="-3.65723">
        <ele>30</ele>
        <time>2018-07-18T12:14:52Z</time>
      </trkpt>
      <trkpt lat="47.79237" lon="-3.65714">
        <ele>29</ele>
        <time>2018-07-18T12:14:53Z</time>
      </trkpt>
      <trkpt lat="47.79239" lon="-3.65705">
        <ele>29</ele>
        <time>2018-07-18T12:14:54Z</time>
      </trkpt>
      <trkpt lat="47.7924" lon="-3.65696">
        <ele>29</ele>
        <time>2018-07-18T12:14:55Z</time>
      </trkpt>
      <trkpt lat="47.79241" lon="-3.65687">
        <ele>29</ele>
        <time>2018-07-18T12:14:56Z</time>
      </trkpt>
      <trkpt lat="47.79243" lon="-3.65678">
        <ele>29</ele>
        <time>2018-07-18T12:14:57Z</time>
      </trkpt>
      <trkpt lat="47.79244" lon="-3.65668">
        <ele>29</ele>
        <time>2018-07-18T12:14:58Z</time>
      </trkpt>
      <trkpt lat="47.79246" lon="-3.65658">
        <ele>29</ele>
        <time>2018-07-18T12:14:59Z</time>
      </trkpt>
      <trkpt lat="47.79247" lon="-3.65648">
        <ele>29</ele>
        <time>2018-07-18T12:15:00Z</time>
      </trkpt>
      <trkpt lat="47.79248" lon="-3.65638">
        <ele>29</ele>
        <time>2018-07-18T12:15:01Z</time>
      </trkpt>
      <trkpt lat="47.7925" lon="-3.65629">
        <ele>28</ele>
        <time>2018-07-18T12:15:02Z</time>
      </trkpt>
      <trkpt lat="47.79251" lon="-3.65619">
        <ele>28</ele>
        <time>2018-07-18T12:15:03Z</time>
      </trkpt>
      <trkpt lat="47.79253" lon="-3.6561">
        <ele>28</ele>
        <time>2018-07-18T12:15:04Z</time>
      </trkpt>
      <trkpt lat="47.79254" lon="-3.656">
        <ele>28</ele>
        <time>2018-07-18T12:15:05Z</time>
      </trkpt>
      <trkpt lat="47.79256" lon="-3.65591">
        <ele>28</ele>
        <time>2018-07-18T12:15:06Z</time>
      </trkpt>
      <trkpt lat="47.79257" lon="-3.65581">
        <ele>28</ele>
        <time>2018-07-18T12:15:07Z</time>
      </trkpt>
      <trkpt lat="47.79259" lon="-3.65572">
        <ele>28</ele>
        <time>2018-07-18T12:15:08Z</time>
      </trkpt>
      <trkpt lat="47.7926" lon="-3.65562">
        <ele>28</ele>
        <time>2018-07-18T12:15:09Z</time>
      </trkpt>
      <trkpt lat="47.79262" lon="-3.65552">
        <ele>28</ele>
        <time>2018-07-18T12:15:10Z</time>
      </trkpt>
      <trkpt lat="47.79263" lon="-3.65543">
        <ele>27</ele>
        <time>2018-07-18T12:15:11Z</time>
      </trkpt>
      <trkpt lat="47.79264" lon="-3.65533">
        <ele>27</ele>
        <time>2018-07-18T12:15:12Z</time>
      </trkpt>
      <trkpt lat="47.79265" lon="-3.65523">
        <ele>27</ele>
        <time>2018-07-18T12:15:13Z</time>
      </trkpt>
      <trkpt lat="47.79266" lon="-3.65513">
        <ele>27</ele>
        <time>2018-07-18T12:15:14Z</time>
      </trkpt>
      <trkpt lat="47.79266" lon="-3.65503">
        <ele>27</ele>
        <time>2018-07-18T12:15:15Z</time>
      </trkpt>
      <trkpt lat="47.79266" lon="-3.65492">
        <ele>27</ele>
        <time>2018-07-18T12:15:16Z</time>
      </trkpt>
      <trkpt lat="47.79265" lon="-3.65482">
        <ele>27</ele>
        <time>2018-07-18T12:15:17Z</time>
      </trkpt>
      <trkpt lat="47.79264" lon="-3.65472">
        <ele>26</ele>
        <time>2018-07-18T12:15:18Z</time>
      </trkpt>
      <trkpt lat="47.79263" lon="-3.65462">
        <ele>26</ele>
        <time>2018-07-18T12:15:19Z</time>
      </trkpt>
      <trkpt lat="47.79262" lon="-3.65453">
        <ele>26</ele>
        <time>2018-07-18T12:15:20Z</time>
      </trkpt>
      <trkpt lat="47.79261" lon="-3.65443">
        <ele>26</ele>
        <time>2018-07-18T12:15:21Z</time>
      </trkpt>
      <trkpt lat="47.7926" lon="-3.65433">
        <ele>26</ele>
        <time>2018-07-18T12:15:22Z</time>
      </trkpt>
      <trkpt lat="47.79259" lon="-3.65422">
        <ele>26</ele>
        <time>2018-07-18T12:15:23Z</time>
      </trkpt>
      <trkpt lat="47.79257" lon="-3.65412">
        <ele>25</ele>
        <time>2018-07-18T12:15:24Z</time>
      </trkpt>
      <trkpt lat="47.79257" lon="-3.65401">
        <ele>25</ele>
        <time>2018-07-18T12:15:25Z</time>
      </trkpt>
      <trkpt lat="47.79256" lon="-3.6539">
        <ele>25</ele>
        <time>2018-07-18T12:15:26Z</time>
      </trkpt>
      <trkpt lat="47.79257" lon="-3.65379">
        <ele>25</ele>
        <time>2018-07-18T12:15:27Z</time>
      </trkpt>
      <trkpt lat="47.79257" lon="-3.65368">
        <ele>25</ele>
        <time>2018-07-18T12:15:28Z</time>
      </trkpt>
      <trkpt lat="47.79257" lon="-3.65357">
        <ele>25</ele>
        <time>2018-07-18T12:15:29Z</time>
      </trkpt>
      <trkpt lat="47.79257" lon="-3.65345">
        <ele>24</ele>
        <time>2018-07-18T12:15:30Z</time>
      </trkpt>
      <trkpt lat="47.79254" lon="-3.65335">
        <ele>24</ele>
        <time>2018-07-18T12:15:31Z</time>
      </trkpt>
      <trkpt lat="47.79251" lon="-3.65325">
        <ele>24</ele>
        <time>2018-07-18T12:15:32Z</time>
      </trkpt>
      <trkpt lat="47.79249" lon="-3.65316">
        <ele>24</ele>
        <time>2018-07-18T12:15:33Z</time>
      </trkpt>
      <trkpt lat="47.79247" lon="-3.65306">
        <ele>24</ele>
        <time>2018-07-18T12:15:34Z</time>
      </trkpt>
      <trkpt lat="47.79246" lon="-3.65297">
        <ele>24</ele>
        <time>2018-07-18T12:15:35Z</time>
      </trkpt>
      <trkpt lat="47.79245" lon="-3.65288">
        <ele>24</ele>
        <time>2018-07-18T12:15:36Z</time>
      </trkpt>
      <trkpt lat="47.79245" lon="-3.65279">
        <ele>24</ele>
        <time>2018-07-18T12:15:37Z</time>
      </trkpt>
      <trkpt lat="47.79243" lon="-3.65269">
        <ele>24</ele>
        <time>2018-07-18T12:15:38Z</time>
      </trkpt>
      <trkpt lat="47.79242" lon="-3.6526">
        <ele>24</ele>
        <time>2018-07-18T12:15:39Z</time>
      </trkpt>
      <trkpt lat="47.7924" lon="-3.65251">
        <ele>24</ele>
        <time>2018-07-18T12:15:40Z</time>
      </trkpt>
      <trkpt lat="47.79238" lon="-3.65242">
        <ele>24</ele>
        <time>2018-07-18T12:15:41Z</time>
      </trkpt>
      <trkpt lat="47.79236" lon="-3.65233">
        <ele>24</ele>
        <time>2018-07-18T12:15:42Z</time>
      </trkpt>
      <trkpt lat="47.79234" lon="-3.65224">
        <ele>24</ele>
        <time>2018-07-18T12:15:43Z</time>
      </trkpt>
      <trkpt lat="47.79233" lon="-3.65215">
        <ele>24</ele>
        <time>2018-07-18T12:15:44Z</time>
      </trkpt>
      <trkpt lat="47.79232" lon="-3.65207">
        <ele>24</ele>
        <time>2018-07-18T12:15:45Z</time>
      </trkpt>
      <trkpt lat="47.7923" lon="-3.65198">
        <ele>24</ele>
        <time>2018-07-18T12:15:46Z</time>
      </trkpt>
      <trkpt lat="47.79229" lon="-3.6519">
        <ele>23</ele>
        <time>2018-07-18T12:15:47Z</time>
      </trkpt>
      <trkpt lat="47.79228" lon="-3.65181">
        <ele>23</ele>
        <time>2018-07-18T12:15:48Z</time>
      </trkpt>
      <trkpt lat="47.79228" lon="-3.65172">
        <ele>23</ele>
        <time>2018-07-18T12:15:49Z</time>
      </trkpt>
      <trkpt lat="47.79228" lon="-3.65164">
        <ele>23</ele>
        <time>2018-07-18T12:15:50Z</time>
      </trkpt>
      <trkpt lat="47.79228" lon="-3.65155">
        <ele>23</ele>
        <time>2018-07-18T12:15:51Z</time>
      </trkpt>
      <trkpt lat="47.79228" lon="-3.65147">
        <ele>23</ele>
        <time>2018-07-18T12:15:52Z</time>
      </trkpt>
      <trkpt lat="47.79228" lon="-3.65139">
        <ele>23</ele>
        <time>2018-07-18T12:15:53Z</time>
      </trkpt>
      <trkpt lat="47.79229" lon="-3.65131">
        <ele>23</ele>
        <time>2018-07-18T12:15:54Z</time>
      </trkpt>
      <trkpt lat="47.79229" lon="-3.65124">
        <ele>23</ele>
        <time>2018-07-18T12:15:55Z</time>
      </trkpt>
      <trkpt lat="47.7923" lon="-3.65117">
        <ele>23</ele>
        <time>2018-07-18T12:15:56Z</time>
      </trkpt>
      <trkpt lat="47.79231" lon="-3.65109">
        <ele>23</ele>
        <time>2018-07-18T12:15:57Z</time>
      </trkpt>
      <trkpt lat="47.79232" lon="-3.65101">
        <ele>23</ele>
        <time>2018-07-18T12:15:58Z</time>
      </trkpt>
      <trkpt lat="47.79233" lon="-3.65093">
        <ele>23</ele>
        <time>2018-07-18T12:15:59Z</time>
      </trkpt>
      <trkpt lat="47.79234" lon="-3.65085">
        <ele>23</ele>
        <time>2018-07-18T12:16:00Z</time>
      </trkpt>
      <trkpt lat="47.79235" lon="-3.65076">
        <ele>23</ele>
        <time>2018-07-18T12:16:01Z</time>
      </trkpt>
      <trkpt lat="47.79236" lon="-3.65067">
        <ele>24</ele>
        <time>2018-07-18T12:16:02Z</time>
      </trkpt>
      <trkpt lat="47.79237" lon="-3.65059">
        <ele>24</ele>
        <time>2018-07-18T12:16:03Z</time>
      </trkpt>
      <trkpt lat="47.79238" lon="-3.6505">
        <ele>24</ele>
        <time>2018-07-18T12:16:04Z</time>
      </trkpt>
      <trkpt lat="47.79239" lon="-3.65041">
        <ele>24</ele>
        <time>2018-07-18T12:16:05Z</time>
      </trkpt>
      <trkpt lat="47.7924" lon="-3.65032">
        <ele>24</ele>
        <time>2018-07-18T12:16:06Z</time>
      </trkpt>
      <trkpt lat="47.79241" lon="-3.65023">
        <ele>24</ele>
        <time>2018-07-18T12:16:07Z</time>
      </trkpt>
      <trkpt lat="47.79243" lon="-3.65014">
        <ele>24</ele>
        <time>2018-07-18T12:16:08Z</time>
      </trkpt>
      <trkpt lat="47.79243" lon="-3.65005">
        <ele>24</ele>
        <time>2018-07-18T12:16:09Z</time>
      </trkpt>
      <trkpt lat="47.79245" lon="-3.64997">
        <ele>24</ele>
        <time>2018-07-18T12:16:10Z</time>
      </trkpt>
      <trkpt lat="47.79246" lon="-3.64988">
        <ele>24</ele>
        <time>2018-07-18T12:16:11Z</time>
      </trkpt>
      <trkpt lat="47.79246" lon="-3.64979">
        <ele>24</ele>
        <time>2018-07-18T12:16:12Z</time>
      </trkpt>
      <trkpt lat="47.79248" lon="-3.64971">
        <ele>25</ele>
        <time>2018-07-18T12:16:13Z</time>
      </trkpt>
      <trkpt lat="47.79249" lon="-3.64962">
        <ele>25</ele>
        <time>2018-07-18T12:16:14Z</time>
      </trkpt>
      <trkpt lat="47.7925" lon="-3.64953">
        <ele>25</ele>
        <time>2018-07-18T12:16:15Z</time>
      </trkpt>
      <trkpt lat="47.79251" lon="-3.64945">
        <ele>25</ele>
        <time>2018-07-18T12:16:16Z</time>
      </trkpt>
      <trkpt lat="47.79252" lon="-3.64936">
        <ele>25</ele>
        <time>2018-07-18T12:16:17Z</time>
      </trkpt>
      <trkpt lat="47.79253" lon="-3.64927">
        <ele>25</ele>
        <time>2018-07-18T12:16:18Z</time>
      </trkpt>
      <trkpt lat="47.79254" lon="-3.64918">
        <ele>25</ele>
        <time>2018-07-18T12:16:19Z</time>
      </trkpt>
      <trkpt lat="47.79255" lon="-3.64909">
        <ele>25</ele>
        <time>2018-07-18T12:16:20Z</time>
      </trkpt>
      <trkpt lat="47.79256" lon="-3.64901">
        <ele>25</ele>
        <time>2018-07-18T12:16:21Z</time>
      </trkpt>
      <trkpt lat="47.79258" lon="-3.64893">
        <ele>25</ele>
        <time>2018-07-18T12:16:22Z</time>
      </trkpt>
      <trkpt lat="47.79258" lon="-3.64885">
        <ele>25</ele>
        <time>2018-07-18T12:16:23Z</time>
      </trkpt>
      <trkpt lat="47.79259" lon="-3.64877">
        <ele>25</ele>
        <time>2018-07-18T12:16:24Z</time>
      </trkpt>
      <trkpt lat="47.7926" lon="-3.64868">
        <ele>25</ele>
        <time>2018-07-18T12:16:25Z</time>
      </trkpt>
      <trkpt lat="47.79261" lon="-3.6486">
        <ele>26</ele>
        <time>2018-07-18T12:16:26Z</time>
      </trkpt>
      <trkpt lat="47.79262" lon="-3.64852">
        <ele>26</ele>
        <time>2018-07-18T12:16:27Z</time>
      </trkpt>
      <trkpt lat="47.79263" lon="-3.64844">
        <ele>26</ele>
        <time>2018-07-18T12:16:28Z</time>
      </trkpt>
      <trkpt lat="47.79264" lon="-3.64836">
        <ele>26</ele>
        <time>2018-07-18T12:16:29Z</time>
      </trkpt>
      <trkpt lat="47.79265" lon="-3.64828">
        <ele>26</ele>
        <time>2018-07-18T12:16:30Z</time>
      </trkpt>
      <trkpt lat="47.79266" lon="-3.64821">
        <ele>26</ele>
        <time>2018-07-18T12:16:31Z</time>
      </trkpt>
      <trkpt lat="47.79267" lon="-3.64814">
        <ele>26</ele>
        <time>2018-07-18T12:16:32Z</time>
      </trkpt>
      <trkpt lat="47.79267" lon="-3.64807">
        <ele>26</ele>
        <time>2018-07-18T12:16:33Z</time>
      </trkpt>
      <trkpt lat="47.79267" lon="-3.648">
        <ele>26</ele>
        <time>2018-07-18T12:16:34Z</time>
      </trkpt>
      <trkpt lat="47.79265" lon="-3.64794">
        <ele>26</ele>
        <time>2018-07-18T12:16:35Z</time>
      </trkpt>
      <trkpt lat="47.79262" lon="-3.64788">
        <ele>26</ele>
        <time>2018-07-18T12:16:36Z</time>
      </trkpt>
      <trkpt lat="47.79258" lon="-3.64784">
        <ele>26</ele>
        <time>2018-07-18T12:16:37Z</time>
      </trkpt>
      <trkpt lat="47.79253" lon="-3.64782">
        <ele>26</ele>
        <time>2018-07-18T12:16:38Z</time>
      </trkpt>
      <trkpt lat="47.79248" lon="-3.64781">
        <ele>27</ele>
        <time>2018-07-18T12:16:39Z</time>
      </trkpt>
      <trkpt lat="47.79243" lon="-3.6478">
        <ele>27</ele>
        <time>2018-07-18T12:16:40Z</time>
      </trkpt>
      <trkpt lat="47.79237" lon="-3.64779">
        <ele>27</ele>
        <time>2018-07-18T12:16:41Z</time>
      </trkpt>
      <trkpt lat="47.79232" lon="-3.64778">
        <ele>27</ele>
        <time>2018-07-18T12:16:42Z</time>
      </trkpt>
      <trkpt lat="47.79226" lon="-3.64778">
        <ele>27</ele>
        <time>2018-07-18T12:16:43Z</time>
      </trkpt>
      <trkpt lat="47.7922" lon="-3.64777">
        <ele>27</ele>
        <time>2018-07-18T12:16:44Z</time>
      </trkpt>
      <trkpt lat="47.79215" lon="-3.64776">
        <ele>27</ele>
        <time>2018-07-18T12:16:45Z</time>
      </trkpt>
      <trkpt lat="47.7921" lon="-3.64775">
        <ele>27</ele>
        <time>2018-07-18T12:16:46Z</time>
      </trkpt>
      <trkpt lat="47.79204" lon="-3.64774">
        <ele>27</ele>
        <time>2018-07-18T12:16:47Z</time>
      </trkpt>
      <trkpt lat="47.79199" lon="-3.64773">
        <ele>27</ele>
        <time>2018-07-18T12:16:48Z</time>
      </trkpt>
      <trkpt lat="47.79194" lon="-3.64772">
        <ele>28</ele>
        <time>2018-07-18T12:16:49Z</time>
      </trkpt>
      <trkpt lat="47.79189" lon="-3.64771">
        <ele>28</ele>
        <time>2018-07-18T12:16:50Z</time>
      </trkpt>
      <trkpt lat="47.79184" lon="-3.64771">
        <ele>28</ele>
        <time>2018-07-18T12:16:51Z</time>
      </trkpt>
      <trkpt lat="47.79178" lon="-3.64771">
        <ele>28</ele>
        <time>2018-07-18T12:16:52Z</time>
      </trkpt>
      <trkpt lat="47.79173" lon="-3.64771">
        <ele>28</ele>
        <time>2018-07-18T12:16:53Z</time>
      </trkpt>
      <trkpt lat="47.79168" lon="-3.64771">
        <ele>28</ele>
        <time>2018-07-18T12:16:54Z</time>
      </trkpt>
      <trkpt lat="47.79163" lon="-3.6477">
        <ele>28</ele>
        <time>2018-07-18T12:16:55Z</time>
      </trkpt>
      <trkpt lat="47.79157" lon="-3.6477">
        <ele>28</ele>
        <time>2018-07-18T12:16:56Z</time>
      </trkpt>
      <trkpt lat="47.79152" lon="-3.6477">
        <ele>28</ele>
        <time>2018-07-18T12:16:57Z</time>
      </trkpt>
      <trkpt lat="47.79146" lon="-3.6477">
        <ele>28</ele>
        <time>2018-07-18T12:16:58Z</time>
      </trkpt>
      <trkpt lat="47.7914" lon="-3.6477">
        <ele>28</ele>
        <time>2018-07-18T12:16:59Z</time>
      </trkpt>
      <trkpt lat="47.79134" lon="-3.64771">
        <ele>28</ele>
        <time>2018-07-18T12:17:00Z</time>
      </trkpt>
      <trkpt lat="47.79128" lon="-3.64771">
        <ele>28</ele>
        <time>2018-07-18T12:17:01Z</time>
      </trkpt>
      <trkpt lat="47.79122" lon="-3.64771">
        <ele>28</ele>
        <time>2018-07-18T12:17:02Z</time>
      </trkpt>
      <trkpt lat="47.79116" lon="-3.64772">
        <ele>28</ele>
        <time>2018-07-18T12:17:03Z</time>
      </trkpt>
      <trkpt lat="47.7911" lon="-3.64774">
        <ele>28</ele>
        <time>2018-07-18T12:17:04Z</time>
      </trkpt>
      <trkpt lat="47.79103" lon="-3.64775">
        <ele>28</ele>
        <time>2018-07-18T12:17:05Z</time>
      </trkpt>
      <trkpt lat="47.79096" lon="-3.64775">
        <ele>28</ele>
        <time>2018-07-18T12:17:06Z</time>
      </trkpt>
      <trkpt lat="47.7909" lon="-3.64776">
        <ele>28</ele>
        <time>2018-07-18T12:17:07Z</time>
      </trkpt>
      <trkpt lat="47.79083" lon="-3.64777">
        <ele>28</ele>
        <time>2018-07-18T12:17:08Z</time>
      </trkpt>
      <trkpt lat="47.79077" lon="-3.64778">
        <ele>28</ele>
        <time>2018-07-18T12:17:09Z</time>
      </trkpt>
      <trkpt lat="47.7907" lon="-3.6478">
        <ele>29</ele>
        <time>2018-07-18T12:17:10Z</time>
      </trkpt>
      <trkpt lat="47.79064" lon="-3.64781">
        <ele>29</ele>
        <time>2018-07-18T12:17:11Z</time>
      </trkpt>
      <trkpt lat="47.79058" lon="-3.64782">
        <ele>29</ele>
        <time>2018-07-18T12:17:12Z</time>
      </trkpt>
      <trkpt lat="47.79052" lon="-3.64784">
        <ele>29</ele>
        <time>2018-07-18T12:17:13Z</time>
      </trkpt>
      <trkpt lat="47.79046" lon="-3.64785">
        <ele>29</ele>
        <time>2018-07-18T12:17:14Z</time>
      </trkpt>
      <trkpt lat="47.7904" lon="-3.64786">
        <ele>29</ele>
        <time>2018-07-18T12:17:15Z</time>
      </trkpt>
      <trkpt lat="47.79034" lon="-3.64787">
        <ele>29</ele>
        <time>2018-07-18T12:17:16Z</time>
      </trkpt>
      <trkpt lat="47.79028" lon="-3.64788">
        <ele>29</ele>
        <time>2018-07-18T12:17:17Z</time>
      </trkpt>
      <trkpt lat="47.79022" lon="-3.64789">
        <ele>29</ele>
        <time>2018-07-18T12:17:18Z</time>
      </trkpt>
      <trkpt lat="47.79016" lon="-3.6479">
        <ele>29</ele>
        <time>2018-07-18T12:17:19Z</time>
      </trkpt>
      <trkpt lat="47.7901" lon="-3.64791">
        <ele>29</ele>
        <time>2018-07-18T12:17:20Z</time>
      </trkpt>
      <trkpt lat="47.79004" lon="-3.64792">
        <ele>29</ele>
        <time>2018-07-18T12:17:21Z</time>
      </trkpt>
      <trkpt lat="47.78999" lon="-3.64793">
        <ele>29</ele>
        <time>2018-07-18T12:17:22Z</time>
      </trkpt>
      <trkpt lat="47.78994" lon="-3.64793">
        <ele>29</ele>
        <time>2018-07-18T12:17:23Z</time>
      </trkpt>
      <trkpt lat="47.78989" lon="-3.64793">
        <ele>29</ele>
        <time>2018-07-18T12:17:24Z</time>
      </trkpt>
      <trkpt lat="47.78984" lon="-3.64792">
        <ele>29</ele>
        <time>2018-07-18T12:17:25Z</time>
      </trkpt>
      <trkpt lat="47.78981" lon="-3.6479">
        <ele>29</ele>
        <time>2018-07-18T12:17:26Z</time>
      </trkpt>
      <trkpt lat="47.78978" lon="-3.64787">
        <ele>29</ele>
        <time>2018-07-18T12:17:27Z</time>
      </trkpt>
      <trkpt lat="47.78977" lon="-3.64785">
        <ele>29</ele>
        <time>2018-07-18T12:17:28Z</time>
      </trkpt>
      <trkpt lat="47.78975" lon="-3.64781">
        <ele>29</ele>
        <time>2018-07-18T12:17:29Z</time>
      </trkpt>
      <trkpt lat="47.78974" lon="-3.64779">
        <ele>29</ele>
        <time>2018-07-18T12:17:30Z</time>
      </trkpt>
      <trkpt lat="47.78971" lon="-3.64775">
        <ele>29</ele>
        <time>2018-07-18T12:17:31Z</time>
      </trkpt>
      <trkpt lat="47.78967" lon="-3.64772">
        <ele>29</ele>
        <time>2018-07-18T12:17:32Z</time>
      </trkpt>
      <trkpt lat="47.78964" lon="-3.64769">
        <ele>29</ele>
        <time>2018-07-18T12:17:33Z</time>
      </trkpt>
      <trkpt lat="47.78962" lon="-3.64765">
        <ele>29</ele>
        <time>2018-07-18T12:17:34Z</time>
      </trkpt>
      <trkpt lat="47.78958" lon="-3.64762">
        <ele>29</ele>
        <time>2018-07-18T12:17:35Z</time>
      </trkpt>
      <trkpt lat="47.78955" lon="-3.64758">
        <ele>29</ele>
        <time>2018-07-18T12:17:36Z</time>
      </trkpt>
      <trkpt lat="47.78952" lon="-3.64754">
        <ele>29</ele>
        <time>2018-07-18T12:17:37Z</time>
      </trkpt>
      <trkpt lat="47.78948" lon="-3.64749">
        <ele>29</ele>
        <time>2018-07-18T12:17:38Z</time>
      </trkpt>
      <trkpt lat="47.78944" lon="-3.64743">
        <ele>29</ele>
        <time>2018-07-18T12:17:39Z</time>
      </trkpt>
      <trkpt lat="47.7894" lon="-3.64738">
        <ele>29</ele>
        <time>2018-07-18T12:17:40Z</time>
      </trkpt>
      <trkpt lat="47.78934" lon="-3.64732">
        <ele>29</ele>
        <time>2018-07-18T12:17:41Z</time>
      </trkpt>
      <trkpt lat="47.78929" lon="-3.64725">
        <ele>29</ele>
        <time>2018-07-18T12:17:42Z</time>
      </trkpt>
      <trkpt lat="47.78924" lon="-3.64719">
        <ele>29</ele>
        <time>2018-07-18T12:17:43Z</time>
      </trkpt>
      <trkpt lat="47.78919" lon="-3.64713">
        <ele>29</ele>
        <time>2018-07-18T12:17:44Z</time>
      </trkpt>
      <trkpt lat="47.78914" lon="-3.64708">
        <ele>29</ele>
        <time>2018-07-18T12:17:45Z</time>
      </trkpt>
      <trkpt lat="47.78909" lon="-3.64703">
        <ele>29</ele>
        <time>2018-07-18T12:17:46Z</time>
      </trkpt>
      <trkpt lat="47.78904" lon="-3.64697">
        <ele>29</ele>
        <time>2018-07-18T12:17:47Z</time>
      </trkpt>
      <trkpt lat="47.78898" lon="-3.64692">
        <ele>29</ele>
        <time>2018-07-18T12:17:48Z</time>
      </trkpt>
      <trkpt lat="47.78892" lon="-3.64688">
        <ele>29</ele>
        <time>2018-07-18T12:17:49Z</time>
      </trkpt>
      <trkpt lat="47.78887" lon="-3.64684">
        <ele>29</ele>
        <time>2018-07-18T12:17:50Z</time>
      </trkpt>
      <trkpt lat="47.78882" lon="-3.6468">
        <ele>29</ele>
        <time>2018-07-18T12:17:51Z</time>
      </trkpt>
      <trkpt lat="47.78879" lon="-3.64676">
        <ele>28</ele>
        <time>2018-07-18T12:17:52Z</time>
      </trkpt>
      <trkpt lat="47.78877" lon="-3.64672">
        <ele>28</ele>
        <time>2018-07-18T12:17:53Z</time>
      </trkpt>
      <trkpt lat="47.78876" lon="-3.64666">
        <ele>28</ele>
        <time>2018-07-18T12:17:54Z</time>
      </trkpt>
      <trkpt lat="47.78874" lon="-3.64661">
        <ele>28</ele>
        <time>2018-07-18T12:17:55Z</time>
      </trkpt>
      <trkpt lat="47.78871" lon="-3.64657">
        <ele>28</ele>
        <time>2018-07-18T12:17:56Z</time>
      </trkpt>
      <trkpt lat="47.78868" lon="-3.64653">
        <ele>28</ele>
        <time>2018-07-18T12:17:57Z</time>
      </trkpt>
      <trkpt lat="47.78864" lon="-3.6465">
        <ele>28</ele>
        <time>2018-07-18T12:17:58Z</time>
      </trkpt>
      <trkpt lat="47.78859" lon="-3.64647">
        <ele>28</ele>
        <time>2018-07-18T12:17:59Z</time>
      </trkpt>
      <trkpt lat="47.78854" lon="-3.64644">
        <ele>27</ele>
        <time>2018-07-18T12:18:00Z</time>
      </trkpt>
      <trkpt lat="47.78848" lon="-3.64641">
        <ele>27</ele>
        <time>2018-07-18T12:18:01Z</time>
      </trkpt>
      <trkpt lat="47.78842" lon="-3.64637">
        <ele>27</ele>
        <time>2018-07-18T12:18:02Z</time>
      </trkpt>
      <trkpt lat="47.78836" lon="-3.64632">
        <ele>27</ele>
        <time>2018-07-18T12:18:03Z</time>
      </trkpt>
      <trkpt lat="47.78829" lon="-3.64627">
        <ele>27</ele>
        <time>2018-07-18T12:18:04Z</time>
      </trkpt>
      <trkpt lat="47.78823" lon="-3.64624">
        <ele>26</ele>
        <time>2018-07-18T12:18:05Z</time>
      </trkpt>
      <trkpt lat="47.78817" lon="-3.64621">
        <ele>26</ele>
        <time>2018-07-18T12:18:06Z</time>
      </trkpt>
      <trkpt lat="47.78813" lon="-3.64619">
        <ele>26</ele>
        <time>2018-07-18T12:18:07Z</time>
      </trkpt>
      <trkpt lat="47.78809" lon="-3.64616">
        <ele>26</ele>
        <time>2018-07-18T12:18:08Z</time>
      </trkpt>
      <trkpt lat="47.78806" lon="-3.64614">
        <ele>26</ele>
        <time>2018-07-18T12:18:09Z</time>
      </trkpt>
      <trkpt lat="47.78803" lon="-3.64613">
        <ele>25</ele>
        <time>2018-07-18T12:18:10Z</time>
      </trkpt>
      <trkpt lat="47.78799" lon="-3.6461">
        <ele>25</ele>
        <time>2018-07-18T12:18:11Z</time>
      </trkpt>
      <trkpt lat="47.78795" lon="-3.64607">
        <ele>25</ele>
        <time>2018-07-18T12:18:12Z</time>
      </trkpt>
      <trkpt lat="47.7879" lon="-3.64605">
        <ele>25</ele>
        <time>2018-07-18T12:18:13Z</time>
      </trkpt>
      <trkpt lat="47.78786" lon="-3.64603">
        <ele>24</ele>
        <time>2018-07-18T12:18:14Z</time>
      </trkpt>
      <trkpt lat="47.78781" lon="-3.646">
        <ele>24</ele>
        <time>2018-07-18T12:18:15Z</time>
      </trkpt>
      <trkpt lat="47.78775" lon="-3.64597">
        <ele>24</ele>
        <time>2018-07-18T12:18:16Z</time>
      </trkpt>
      <trkpt lat="47.78769" lon="-3.64594">
        <ele>23</ele>
        <time>2018-07-18T12:18:17Z</time>
      </trkpt>
      <trkpt lat="47.78762" lon="-3.6459">
        <ele>23</ele>
        <time>2018-07-18T12:18:18Z</time>
      </trkpt>
      <trkpt lat="47.78756" lon="-3.64587">
        <ele>22</ele>
        <time>2018-07-18T12:18:19Z</time>
      </trkpt>
      <trkpt lat="47.7875" lon="-3.64586">
        <ele>22</ele>
        <time>2018-07-18T12:18:20Z</time>
      </trkpt>
      <trkpt lat="47.78745" lon="-3.64584">
        <ele>22</ele>
        <time>2018-07-18T12:18:21Z</time>
      </trkpt>
      <trkpt lat="47.78741" lon="-3.64583">
        <ele>21</ele>
        <time>2018-07-18T12:18:22Z</time>
      </trkpt>
      <trkpt lat="47.78738" lon="-3.64582">
        <ele>21</ele>
        <time>2018-07-18T12:18:23Z</time>
      </trkpt>
      <trkpt lat="47.78735" lon="-3.6458">
        <ele>20</ele>
        <time>2018-07-18T12:18:24Z</time>
      </trkpt>
      <trkpt lat="47.78733" lon="-3.64578">
        <ele>20</ele>
        <time>2018-07-18T12:18:25Z</time>
      </trkpt>
      <trkpt lat="47.78732" lon="-3.64576">
        <ele>19</ele>
        <time>2018-07-18T12:18:26Z</time>
      </trkpt>
      <trkpt lat="47.78732" lon="-3.64574">
        <ele>19</ele>
        <time>2018-07-18T12:18:27Z</time>
      </trkpt>
      <trkpt lat="47.78732" lon="-3.64572">
        <ele>19</ele>
        <time>2018-07-18T12:18:28Z</time>
      </trkpt>
      <trkpt lat="47.78732" lon="-3.6457">
        <ele>18</ele>
        <time>2018-07-18T12:18:29Z</time>
      </trkpt>
      <trkpt lat="47.78732" lon="-3.64567">
        <ele>18</ele>
        <time>2018-07-18T12:18:30Z</time>
      </trkpt>
      <trkpt lat="47.78733" lon="-3.64562">
        <ele>18</ele>
        <time>2018-07-18T12:18:31Z</time>
      </trkpt>
      <trkpt lat="47.78732" lon="-3.64558">
        <ele>17</ele>
        <time>2018-07-18T12:18:32Z</time>
      </trkpt>
      <trkpt lat="47.78733" lon="-3.64554">
        <ele>17</ele>
        <time>2018-07-18T12:18:33Z</time>
      </trkpt>
      <trkpt lat="47.78734" lon="-3.6455">
        <ele>17</ele>
        <time>2018-07-18T12:18:34Z</time>
      </trkpt>
      <trkpt lat="47.78735" lon="-3.64547">
        <ele>17</ele>
        <time>2018-07-18T12:18:35Z</time>
      </trkpt>
      <trkpt lat="47.78737" lon="-3.64544">
        <ele>17</ele>
        <time>2018-07-18T12:18:36Z</time>
      </trkpt>
      <trkpt lat="47.78739" lon="-3.64542">
        <ele>17</ele>
        <time>2018-07-18T12:18:37Z</time>
      </trkpt>
      <trkpt lat="47.7874" lon="-3.64541">
        <ele>16</ele>
        <time>2018-07-18T12:18:38Z</time>
      </trkpt>
      <trkpt lat="47.78742" lon="-3.64539">
        <ele>16</ele>
        <time>2018-07-18T12:18:39Z</time>
      </trkpt>
      <trkpt lat="47.78744" lon="-3.64538">
        <ele>16</ele>
        <time>2018-07-18T12:18:40Z</time>
      </trkpt>
      <trkpt lat="47.78747" lon="-3.64537">
        <ele>16</ele>
        <time>2018-07-18T12:18:41Z</time>
      </trkpt>
      <trkpt lat="47.7875" lon="-3.64536">
        <ele>16</ele>
        <time>2018-07-18T12:18:42Z</time>
      </trkpt>
      <trkpt lat="47.78753" lon="-3.64534">
        <ele>16</ele>
        <time>2018-07-18T12:18:43Z</time>
      </trkpt>
      <trkpt lat="47.78757" lon="-3.64533">
        <ele>16</ele>
        <time>2018-07-18T12:18:44Z</time>
      </trkpt>
      <trkpt lat="47.78759" lon="-3.64532">
        <ele>16</ele>
        <time>2018-07-18T12:18:45Z</time>
      </trkpt>
      <trkpt lat="47.78762" lon="-3.6453">
        <ele>16</ele>
        <time>2018-07-18T12:18:46Z</time>
      </trkpt>
      <trkpt lat="47.78764" lon="-3.64529">
        <ele>16</ele>
        <time>2018-07-18T12:18:47Z</time>
      </trkpt>
      <trkpt lat="47.78767" lon="-3.64528">
        <ele>16</ele>
        <time>2018-07-18T12:18:48Z</time>
      </trkpt>
      <trkpt lat="47.7877" lon="-3.64526">
        <ele>16</ele>
        <time>2018-07-18T12:18:49Z</time>
      </trkpt>
      <trkpt lat="47.78773" lon="-3.64523">
        <ele>16</ele>
        <time>2018-07-18T12:18:50Z</time>
      </trkpt>
      <trkpt lat="47.78776" lon="-3.64519">
        <ele>16</ele>
        <time>2018-07-18T12:18:51Z</time>
      </trkpt>
      <trkpt lat="47.78778" lon="-3.64515">
        <ele>16</ele>
        <time>2018-07-18T12:18:52Z</time>
      </trkpt>
      <trkpt lat="47.7878" lon="-3.64509">
        <ele>16</ele>
        <time>2018-07-18T12:18:53Z</time>
      </trkpt>
      <trkpt lat="47.78781" lon="-3.64504">
        <ele>16</ele>
        <time>2018-07-18T12:18:54Z</time>
      </trkpt>
      <trkpt lat="47.78784" lon="-3.64498">
        <ele>16</ele>
        <time>2018-07-18T12:18:55Z</time>
      </trkpt>
      <trkpt lat="47.78786" lon="-3.64492">
        <ele>15</ele>
        <time>2018-07-18T12:18:56Z</time>
      </trkpt>
      <trkpt lat="47.7879" lon="-3.64485">
        <ele>15</ele>
        <time>2018-07-18T12:18:57Z</time>
      </trkpt>
      <trkpt lat="47.78793" lon="-3.64478">
        <ele>15</ele>
        <time>2018-07-18T12:18:58Z</time>
      </trkpt>
      <trkpt lat="47.78796" lon="-3.64471">
        <ele>15</ele>
        <time>2018-07-18T12:18:59Z</time>
      </trkpt>
      <trkpt lat="47.788" lon="-3.64464">
        <ele>15</ele>
        <time>2018-07-18T12:19:00Z</time>
      </trkpt>
      <trkpt lat="47.78803" lon="-3.64457">
        <ele>15</ele>
        <time>2018-07-18T12:19:01Z</time>
      </trkpt>
      <trkpt lat="47.78806" lon="-3.64451">
        <ele>15</ele>
        <time>2018-07-18T12:19:02Z</time>
      </trkpt>
      <trkpt lat="47.78809" lon="-3.64445">
        <ele>15</ele>
        <time>2018-07-18T12:19:03Z</time>
      </trkpt>
      <trkpt lat="47.78813" lon="-3.64437">
        <ele>15</ele>
        <time>2018-07-18T12:19:04Z</time>
      </trkpt>
      <trkpt lat="47.78818" lon="-3.6443">
        <ele>15</ele>
        <time>2018-07-18T12:19:05Z</time>
      </trkpt>
      <trkpt lat="47.78822" lon="-3.64424">
        <ele>15</ele>
        <time>2018-07-18T12:19:06Z</time>
      </trkpt>
      <trkpt lat="47.78826" lon="-3.64417">
        <ele>15</ele>
        <time>2018-07-18T12:19:07Z</time>
      </trkpt>
      <trkpt lat="47.7883" lon="-3.64412">
        <ele>15</ele>
        <time>2018-07-18T12:19:08Z</time>
      </trkpt>
      <trkpt lat="47.78833" lon="-3.64407">
        <ele>15</ele>
        <time>2018-07-18T12:19:09Z</time>
      </trkpt>
      <trkpt lat="47.78837" lon="-3.64402">
        <ele>14</ele>
        <time>2018-07-18T12:19:10Z</time>
      </trkpt>
      <trkpt lat="47.78841" lon="-3.64397">
        <ele>14</ele>
        <time>2018-07-18T12:19:11Z</time>
      </trkpt>
      <trkpt lat="47.78845" lon="-3.64392">
        <ele>14</ele>
        <time>2018-07-18T12:19:12Z</time>
      </trkpt>
      <trkpt lat="47.78849" lon="-3.64387">
        <ele>14</ele>
        <time>2018-07-18T12:19:13Z</time>
      </trkpt>
      <trkpt lat="47.78852" lon="-3.64383">
        <ele>14</ele>
        <time>2018-07-18T12:19:14Z</time>
      </trkpt>
      <trkpt lat="47.78856" lon="-3.6438">
        <ele>14</ele>
        <time>2018-07-18T12:19:15Z</time>
      </trkpt>
      <trkpt lat="47.7886" lon="-3.64378">
        <ele>14</ele>
        <time>2018-07-18T12:19:16Z</time>
      </trkpt>
      <trkpt lat="47.78864" lon="-3.64377">
        <ele>13</ele>
        <time>2018-07-18T12:19:17Z</time>
      </trkpt>
      <trkpt lat="47.78868" lon="-3.64377">
        <ele>13</ele>
        <time>2018-07-18T12:19:18Z</time>
      </trkpt>
      <trkpt lat="47.78872" lon="-3.64377">
        <ele>13</ele>
        <time>2018-07-18T12:19:19Z</time>
      </trkpt>
      <trkpt lat="47.78876" lon="-3.64377">
        <ele>13</ele>
        <time>2018-07-18T12:19:20Z</time>
      </trkpt>
      <trkpt lat="47.78881" lon="-3.64377">
        <ele>13</ele>
        <time>2018-07-18T12:19:21Z</time>
      </trkpt>
      <trkpt lat="47.78885" lon="-3.64376">
        <ele>13</ele>
        <time>2018-07-18T12:19:22Z</time>
      </trkpt>
      <trkpt lat="47.78889" lon="-3.64377">
        <ele>13</ele>
        <time>2018-07-18T12:19:23Z</time>
      </trkpt>
      <trkpt lat="47.78893" lon="-3.64379">
        <ele>13</ele>
        <time>2018-07-18T12:19:24Z</time>
      </trkpt>
      <trkpt lat="47.78896" lon="-3.64381">
        <ele>13</ele>
        <time>2018-07-18T12:19:25Z</time>
      </trkpt>
      <trkpt lat="47.78899" lon="-3.64384">
        <ele>13</ele>
        <time>2018-07-18T12:19:26Z</time>
      </trkpt>
      <trkpt lat="47.78902" lon="-3.64387">
        <ele>13</ele>
        <time>2018-07-18T12:19:27Z</time>
      </trkpt>
      <trkpt lat="47.78904" lon="-3.64392">
        <ele>13</ele>
        <time>2018-07-18T12:19:28Z</time>
      </trkpt>
      <trkpt lat="47.78907" lon="-3.64397">
        <ele>13</ele>
        <time>2018-07-18T12:19:29Z</time>
      </trkpt>
      <trkpt lat="47.78908" lon="-3.64401">
        <ele>13</ele>
        <time>2018-07-18T12:19:30Z</time>
      </trkpt>
      <trkpt lat="47.78911" lon="-3.64406">
        <ele>13</ele>
        <time>2018-07-18T12:19:31Z</time>
      </trkpt>
      <trkpt lat="47.78914" lon="-3.64409">
        <ele>13</ele>
        <time>2018-07-18T12:19:32Z</time>
      </trkpt>
      <trkpt lat="47.78916" lon="-3.64411">
        <ele>13</ele>
        <time>2018-07-18T12:19:33Z</time>
      </trkpt>
      <trkpt lat="47.78919" lon="-3.64413">
        <ele>13</ele>
        <time>2018-07-18T12:19:34Z</time>
      </trkpt>
      <trkpt lat="47.78922" lon="-3.64413">
        <ele>13</ele>
        <time>2018-07-18T12:19:35Z</time>
      </trkpt>
      <trkpt lat="47.78925" lon="-3.64411">
        <ele>13</ele>
        <time>2018-07-18T12:19:36Z</time>
      </trkpt>
      <trkpt lat="47.78927" lon="-3.64408">
        <ele>13</ele>
        <time>2018-07-18T12:19:37Z</time>
      </trkpt>
      <trkpt lat="47.78929" lon="-3.64404">
        <ele>13</ele>
        <time>2018-07-18T12:19:38Z</time>
      </trkpt>
      <trkpt lat="47.7893" lon="-3.64398">
        <ele>13</ele>
        <time>2018-07-18T12:19:39Z</time>
      </trkpt>
      <trkpt lat="47.78931" lon="-3.64392">
        <ele>12</ele>
        <time>2018-07-18T12:19:40Z</time>
      </trkpt>
      <trkpt lat="47.78933" lon="-3.64385">
        <ele>12</ele>
        <time>2018-07-18T12:19:41Z</time>
      </trkpt>
      <trkpt lat="47.78934" lon="-3.64377">
        <ele>12</ele>
        <time>2018-07-18T12:19:42Z</time>
      </trkpt>
      <trkpt lat="47.78936" lon="-3.64368">
        <ele>12</ele>
        <time>2018-07-18T12:19:43Z</time>
      </trkpt>
      <trkpt lat="47.78938" lon="-3.6436">
        <ele>12</ele>
        <time>2018-07-18T12:19:44Z</time>
      </trkpt>
      <trkpt lat="47.7894" lon="-3.64353">
        <ele>12</ele>
        <time>2018-07-18T12:19:45Z</time>
      </trkpt>
      <trkpt lat="47.78943" lon="-3.64347">
        <ele>12</ele>
        <time>2018-07-18T12:19:46Z</time>
      </trkpt>
      <trkpt lat="47.78947" lon="-3.64342">
        <ele>11</ele>
        <time>2018-07-18T12:19:47Z</time>
      </trkpt>
      <trkpt lat="47.78951" lon="-3.64341">
        <ele>11</ele>
        <time>2018-07-18T12:19:48Z</time>
      </trkpt>
      <trkpt lat="47.78955" lon="-3.6434">
        <ele>11</ele>
        <time>2018-07-18T12:19:49Z</time>
      </trkpt>
      <trkpt lat="47.78957" lon="-3.6434">
        <ele>11</ele>
        <time>2018-07-18T12:19:50Z</time>
      </trkpt>
      <trkpt lat="47.78958" lon="-3.6434">
        <ele>11</ele>
        <time>2018-07-18T12:19:51Z</time>
      </trkpt>
      <trkpt lat="47.78958" lon="-3.64339">
        <ele>11</ele>
        <time>2018-07-18T12:19:52Z</time>
      </trkpt>
      <trkpt lat="47.78959" lon="-3.64339">
        <ele>11</ele>
        <time>2018-07-18T12:19:53Z</time>
      </trkpt>
      <trkpt lat="47.7896" lon="-3.64338">
        <ele>11</ele>
        <time>2018-07-18T12:19:54Z</time>
      </trkpt>
      <trkpt lat="47.7896" lon="-3.64338">
        <ele>11</ele>
        <time>2018-07-18T12:19:55Z</time>
      </trkpt>
      <trkpt lat="47.78961" lon="-3.64338">
        <ele>11</ele>
        <time>2018-07-18T12:19:56Z</time>
      </trkpt>
      <trkpt lat="47.78961" lon="-3.64337">
        <ele>11</ele>
        <time>2018-07-18T12:19:57Z</time>
      </trkpt>
      <trkpt lat="47.78962" lon="-3.64337">
        <ele>11</ele>
        <time>2018-07-18T12:19:58Z</time>
      </trkpt>
      <trkpt lat="47.78963" lon="-3.64337">
        <ele>11</ele>
        <time>2018-07-18T12:19:59Z</time>
      </trkpt>
      <trkpt lat="47.78963" lon="-3.64337">
        <ele>11</ele>
        <time>2018-07-18T12:20:00Z</time>
      </trkpt>
      <trkpt lat="47.78964" lon="-3.64337">
        <ele>10</ele>
        <time>2018-07-18T12:20:01Z</time>
      </trkpt>
      <trkpt lat="47.78965" lon="-3.64337">
        <ele>10</ele>
        <time>2018-07-18T12:20:02Z</time>
      </trkpt>
      <trkpt lat="47.78966" lon="-3.64338">
        <ele>10</ele>
        <time>2018-07-18T12:20:03Z</time>
      </trkpt>
      <trkpt lat="47.78967" lon="-3.64338">
        <ele>10</ele>
        <time>2018-07-18T12:20:04Z</time>
      </trkpt>
      <trkpt lat="47.78967" lon="-3.64338">
        <ele>10</ele>
        <time>2018-07-18T12:20:05Z</time>
      </trkpt>
      <trkpt lat="47.78968" lon="-3.64338">
        <ele>10</ele>
        <time>2018-07-18T12:20:06Z</time>
      </trkpt>
      <trkpt lat="47.78968" lon="-3.64338">
        <ele>10</ele>
        <time>2018-07-18T12:20:07Z</time>
      </trkpt>
      <trkpt lat="47.78969" lon="-3.64338">
        <ele>10</ele>
        <time>2018-07-18T12:20:08Z</time>
      </trkpt>
      <trkpt lat="47.7897" lon="-3.64338">
        <ele>10</ele>
        <time>2018-07-18T12:20:09Z</time>
      </trkpt>
      <trkpt lat="47.7897" lon="-3.64338">
        <ele>10</ele>
        <time>2018-07-18T12:20:10Z</time>
      </trkpt>
      <trkpt lat="47.7897" lon="-3.64338">
        <ele>10</ele>
        <time>2018-07-18T12:20:11Z</time>
      </trkpt>
      <trkpt lat="47.7897" lon="-3.64338">
        <ele>10</ele>
        <time>2018-07-18T12:20:12Z</time>
      </trkpt>
      <trkpt lat="47.78973" lon="-3.64337">
        <ele>10</ele>
        <time>2018-07-18T12:20:13Z</time>
      </trkpt>
      <trkpt lat="47.78974" lon="-3.64337">
        <ele>10</ele>
        <time>2018-07-18T12:20:14Z</time>
      </trkpt>
      <trkpt lat="47.78976" lon="-3.64336">
        <ele>10</ele>
        <time>2018-07-18T12:20:15Z</time>
      </trkpt>
      <trkpt lat="47.78978" lon="-3.64335">
        <ele>10</ele>
        <time>2018-07-18T12:20:16Z</time>
      </trkpt>
      <trkpt lat="47.7898" lon="-3.64335">
        <ele>10</ele>
        <time>2018-07-18T12:20:17Z</time>
      </trkpt>
      <trkpt lat="47.78983" lon="-3.64334">
        <ele>10</ele>
        <time>2018-07-18T12:20:18Z</time>
      </trkpt>
      <trkpt lat="47.78986" lon="-3.64334">
        <ele>10</ele>
        <time>2018-07-18T12:20:19Z</time>
      </trkpt>
      <trkpt lat="47.78989" lon="-3.64332">
        <ele>11</ele>
        <time>2018-07-18T12:20:20Z</time>
      </trkpt>
      <trkpt lat="47.78992" lon="-3.6433">
        <ele>11</ele>
        <time>2018-07-18T12:20:21Z</time>
      </trkpt>
      <trkpt lat="47.78996" lon="-3.64327">
        <ele>11</ele>
        <time>2018-07-18T12:20:22Z</time>
      </trkpt>
      <trkpt lat="47.79" lon="-3.64325">
        <ele>11</ele>
        <time>2018-07-18T12:20:23Z</time>
      </trkpt>
      <trkpt lat="47.79004" lon="-3.64323">
        <ele>11</ele>
        <time>2018-07-18T12:20:24Z</time>
      </trkpt>
      <trkpt lat="47.79007" lon="-3.64321">
        <ele>11</ele>
        <time>2018-07-18T12:20:25Z</time>
      </trkpt>
      <trkpt lat="47.79011" lon="-3.6432">
        <ele>11</ele>
        <time>2018-07-18T12:20:26Z</time>
      </trkpt>
      <trkpt lat="47.79014" lon="-3.64319">
        <ele>11</ele>
        <time>2018-07-18T12:20:27Z</time>
      </trkpt>
      <trkpt lat="47.79017" lon="-3.64317">
        <ele>11</ele>
        <time>2018-07-18T12:20:28Z</time>
      </trkpt>
      <trkpt lat="47.7902" lon="-3.64314">
        <ele>11</ele>
        <time>2018-07-18T12:20:29Z</time>
      </trkpt>
      <trkpt lat="47.79023" lon="-3.64311">
        <ele>12</ele>
        <time>2018-07-18T12:20:30Z</time>
      </trkpt>
      <trkpt lat="47.79025" lon="-3.64307">
        <ele>12</ele>
        <time>2018-07-18T12:20:31Z</time>
      </trkpt>
      <trkpt lat="47.79027" lon="-3.64304">
        <ele>11</ele>
        <time>2018-07-18T12:20:32Z</time>
      </trkpt>
      <trkpt lat="47.79029" lon="-3.643">
        <ele>11</ele>
        <time>2018-07-18T12:20:33Z</time>
      </trkpt>
      <trkpt lat="47.79031" lon="-3.64296">
        <ele>11</ele>
        <time>2018-07-18T12:20:34Z</time>
      </trkpt>
      <trkpt lat="47.79033" lon="-3.64292">
        <ele>11</ele>
        <time>2018-07-18T12:20:35Z</time>
      </trkpt>
      <trkpt lat="47.79036" lon="-3.64288">
        <ele>11</ele>
        <time>2018-07-18T12:20:36Z</time>
      </trkpt>
      <trkpt lat="47.7904" lon="-3.64285">
        <ele>11</ele>
        <time>2018-07-18T12:20:37Z</time>
      </trkpt>
      <trkpt lat="47.79043" lon="-3.64284">
        <ele>11</ele>
        <time>2018-07-18T12:20:38Z</time>
      </trkpt>
      <trkpt lat="47.79046" lon="-3.64284">
        <ele>11</ele>
        <time>2018-07-18T12:20:39Z</time>
      </trkpt>
      <trkpt lat="47.79049" lon="-3.64285">
        <ele>11</ele>
        <time>2018-07-18T12:20:40Z</time>
      </trkpt>
      <trkpt lat="47.79051" lon="-3.64287">
        <ele>11</ele>
        <time>2018-07-18T12:20:41Z</time>
      </trkpt>
      <trkpt lat="47.79054" lon="-3.64289">
        <ele>11</ele>
        <time>2018-07-18T12:20:42Z</time>
      </trkpt>
      <trkpt lat="47.79057" lon="-3.64291">
        <ele>11</ele>
        <time>2018-07-18T12:20:43Z</time>
      </trkpt>
      <trkpt lat="47.7906" lon="-3.64293">
        <ele>11</ele>
        <time>2018-07-18T12:20:44Z</time>
      </trkpt>
      <trkpt lat="47.79063" lon="-3.64294">
        <ele>11</ele>
        <time>2018-07-18T12:20:45Z</time>
      </trkpt>
      <trkpt lat="47.79068" lon="-3.64294">
        <ele>12</ele>
        <time>2018-07-18T12:20:46Z</time>
      </trkpt>
      <trkpt lat="47.79072" lon="-3.64292">
        <ele>12</ele>
        <time>2018-07-18T12:20:47Z</time>
      </trkpt>
      <trkpt lat="47.79075" lon="-3.64289">
        <ele>12</ele>
        <time>2018-07-18T12:20:48Z</time>
      </trkpt>
      <trkpt lat="47.79078" lon="-3.64285">
        <ele>12</ele>
        <time>2018-07-18T12:20:49Z</time>
      </trkpt>
      <trkpt lat="47.79079" lon="-3.64282">
        <ele>12</ele>
        <time>2018-07-18T12:20:50Z</time>
      </trkpt>
      <trkpt lat="47.7908" lon="-3.64278">
        <ele>12</ele>
        <time>2018-07-18T12:20:51Z</time>
      </trkpt>
      <trkpt lat="47.79081" lon="-3.64274">
        <ele>12</ele>
        <time>2018-07-18T12:20:52Z</time>
      </trkpt>
      <trkpt lat="47.79082" lon="-3.64269">
        <ele>12</ele>
        <time>2018-07-18T12:20:53Z</time>
      </trkpt>
      <trkpt lat="47.79082" lon="-3.64263">
        <ele>12</ele>
        <time>2018-07-18T12:20:54Z</time>
      </trkpt>
      <trkpt lat="47.79082" lon="-3.64258">
        <ele>12</ele>
        <time>2018-07-18T12:20:55Z</time>
      </trkpt>
      <trkpt lat="47.79082" lon="-3.64252">
        <ele>12</ele>
        <time>2018-07-18T12:20:56Z</time>
      </trkpt>
      <trkpt lat="47.79083" lon="-3.64247">
        <ele>12</ele>
        <time>2018-07-18T12:20:57Z</time>
      </trkpt>
      <trkpt lat="47.79083" lon="-3.64241">
        <ele>12</ele>
        <time>2018-07-18T12:20:58Z</time>
      </trkpt>
      <trkpt lat="47.79083" lon="-3.64235">
        <ele>12</ele>
        <time>2018-07-18T12:20:59Z</time>
      </trkpt>
      <trkpt lat="47.79083" lon="-3.64229">
        <ele>12</ele>
        <time>2018-07-18T12:21:00Z</time>
      </trkpt>
      <trkpt lat="47.79082" lon="-3.64223">
        <ele>12</ele>
        <time>2018-07-18T12:21:01Z</time>
      </trkpt>
      <trkpt lat="47.79082" lon="-3.64217">
        <ele>12</ele>
        <time>2018-07-18T12:21:02Z</time>
      </trkpt>
      <trkpt lat="47.79082" lon="-3.64214">
        <ele>12</ele>
        <time>2018-07-18T12:21:03Z</time>
      </trkpt>
      <trkpt lat="47.79082" lon="-3.64212">
        <ele>12</ele>
        <time>2018-07-18T12:21:04Z</time>
      </trkpt>
      <trkpt lat="47.79081" lon="-3.64211">
        <ele>12</ele>
        <time>2018-07-18T12:21:05Z</time>
      </trkpt>
      <trkpt lat="47.79081" lon="-3.6421">
        <ele>12</ele>
        <time>2018-07-18T12:21:06Z</time>
      </trkpt>
      <trkpt lat="47.7908" lon="-3.64209">
        <ele>12</ele>
        <time>2018-07-18T12:21:07Z</time>
      </trkpt>
      <trkpt lat="47.79079" lon="-3.64206">
        <ele>11</ele>
        <time>2018-07-18T12:21:08Z</time>
      </trkpt>
      <trkpt lat="47.79078" lon="-3.64202">
        <ele>11</ele>
        <time>2018-07-18T12:21:09Z</time>
      </trkpt>
      <trkpt lat="47.79079" lon="-3.64198">
        <ele>11</ele>
        <time>2018-07-18T12:21:10Z</time>
      </trkpt>
      <trkpt lat="47.79079" lon="-3.64193">
        <ele>11</ele>
        <time>2018-07-18T12:21:11Z</time>
      </trkpt>
      <trkpt lat="47.79079" lon="-3.64188">
        <ele>11</ele>
        <time>2018-07-18T12:21:12Z</time>
      </trkpt>
      <trkpt lat="47.79079" lon="-3.64183">
        <ele>11</ele>
        <time>2018-07-18T12:21:13Z</time>
      </trkpt>
      <trkpt lat="47.79078" lon="-3.64177">
        <ele>11</ele>
        <time>2018-07-18T12:21:14Z</time>
      </trkpt>
      <trkpt lat="47.79077" lon="-3.64173">
        <ele>11</ele>
        <time>2018-07-18T12:21:15Z</time>
      </trkpt>
      <trkpt lat="47.79077" lon="-3.64167">
        <ele>11</ele>
        <time>2018-07-18T12:21:16Z</time>
      </trkpt>
      <trkpt lat="47.79076" lon="-3.64162">
        <ele>11</ele>
        <time>2018-07-18T12:21:17Z</time>
      </trkpt>
      <trkpt lat="47.79074" lon="-3.64157">
        <ele>11</ele>
        <time>2018-07-18T12:21:18Z</time>
      </trkpt>
      <trkpt lat="47.79073" lon="-3.64151">
        <ele>11</ele>
        <time>2018-07-18T12:21:19Z</time>
      </trkpt>
      <trkpt lat="47.79072" lon="-3.64147">
        <ele>10</ele>
        <time>2018-07-18T12:21:20Z</time>
      </trkpt>
      <trkpt lat="47.79071" lon="-3.64142">
        <ele>10</ele>
        <time>2018-07-18T12:21:21Z</time>
      </trkpt>
      <trkpt lat="47.79071" lon="-3.64138">
        <ele>10</ele>
        <time>2018-07-18T12:21:22Z</time>
      </trkpt>
      <trkpt lat="47.79071" lon="-3.64133">
        <ele>10</ele>
        <time>2018-07-18T12:21:23Z</time>
      </trkpt>
      <trkpt lat="47.7907" lon="-3.64129">
        <ele>10</ele>
        <time>2018-07-18T12:21:24Z</time>
      </trkpt>
      <trkpt lat="47.79069" lon="-3.64125">
        <ele>10</ele>
        <time>2018-07-18T12:21:25Z</time>
      </trkpt>
      <trkpt lat="47.7907" lon="-3.64121">
        <ele>10</ele>
        <time>2018-07-18T12:21:26Z</time>
      </trkpt>
      <trkpt lat="47.7907" lon="-3.64117">
        <ele>10</ele>
        <time>2018-07-18T12:21:27Z</time>
      </trkpt>
      <trkpt lat="47.7907" lon="-3.64112">
        <ele>10</ele>
        <time>2018-07-18T12:21:28Z</time>
      </trkpt>
      <trkpt lat="47.7907" lon="-3.64108">
        <ele>10</ele>
        <time>2018-07-18T12:21:29Z</time>
      </trkpt>
      <trkpt lat="47.7907" lon="-3.64103">
        <ele>10</ele>
        <time>2018-07-18T12:21:30Z</time>
      </trkpt>
      <trkpt lat="47.79069" lon="-3.64098">
        <ele>10</ele>
        <time>2018-07-18T12:21:31Z</time>
      </trkpt>
      <trkpt lat="47.79069" lon="-3.64093">
        <ele>10</ele>
        <time>2018-07-18T12:21:32Z</time>
      </trkpt>
      <trkpt lat="47.79069" lon="-3.64088">
        <ele>9</ele>
        <time>2018-07-18T12:21:33Z</time>
      </trkpt>
      <trkpt lat="47.79069" lon="-3.64084">
        <ele>9</ele>
        <time>2018-07-18T12:21:34Z</time>
      </trkpt>
      <trkpt lat="47.79069" lon="-3.6408">
        <ele>9</ele>
        <time>2018-07-18T12:21:35Z</time>
      </trkpt>
      <trkpt lat="47.7907" lon="-3.64075">
        <ele>9</ele>
        <time>2018-07-18T12:21:36Z</time>
      </trkpt>
      <trkpt lat="47.79071" lon="-3.64069">
        <ele>9</ele>
        <time>2018-07-18T12:21:37Z</time>
      </trkpt>
      <trkpt lat="47.79073" lon="-3.64063">
        <ele>9</ele>
        <time>2018-07-18T12:21:38Z</time>
      </trkpt>
      <trkpt lat="47.79076" lon="-3.64059">
        <ele>9</ele>
        <time>2018-07-18T12:21:39Z</time>
      </trkpt>
      <trkpt lat="47.79079" lon="-3.64057">
        <ele>9</ele>
        <time>2018-07-18T12:21:40Z</time>
      </trkpt>
      <trkpt lat="47.79082" lon="-3.64055">
        <ele>9</ele>
        <time>2018-07-18T12:21:41Z</time>
      </trkpt>
      <trkpt lat="47.79084" lon="-3.64052">
        <ele>10</ele>
        <time>2018-07-18T12:21:42Z</time>
      </trkpt>
      <trkpt lat="47.79086" lon="-3.6405">
        <ele>10</ele>
        <time>2018-07-18T12:21:43Z</time>
      </trkpt>
      <trkpt lat="47.79088" lon="-3.64048">
        <ele>10</ele>
        <time>2018-07-18T12:21:44Z</time>
      </trkpt>
      <trkpt lat="47.7909" lon="-3.64047">
        <ele>10</ele>
        <time>2018-07-18T12:21:45Z</time>
      </trkpt>
      <trkpt lat="47.79092" lon="-3.64045">
        <ele>10</ele>
        <time>2018-07-18T12:21:46Z</time>
      </trkpt>
      <trkpt lat="47.79094" lon="-3.64043">
        <ele>10</ele>
        <time>2018-07-18T12:21:47Z</time>
      </trkpt>
      <trkpt lat="47.79096" lon="-3.64042">
        <ele>10</ele>
        <time>2018-07-18T12:21:48Z</time>
      </trkpt>
      <trkpt lat="47.79099" lon="-3.6404">
        <ele>10</ele>
        <time>2018-07-18T12:21:49Z</time>
      </trkpt>
      <trkpt lat="47.79101" lon="-3.64037">
        <ele>10</ele>
        <time>2018-07-18T12:21:50Z</time>
      </trkpt>
      <trkpt lat="47.79104" lon="-3.64034">
        <ele>10</ele>
        <time>2018-07-18T12:21:51Z</time>
      </trkpt>
      <trkpt lat="47.79108" lon="-3.64032">
        <ele>10</ele>
        <time>2018-07-18T12:21:52Z</time>
      </trkpt>
      <trkpt lat="47.79112" lon="-3.6403">
        <ele>10</ele>
        <time>2018-07-18T12:21:53Z</time>
      </trkpt>
      <trkpt lat="47.79116" lon="-3.64028">
        <ele>10</ele>
        <time>2018-07-18T12:21:54Z</time>
      </trkpt>
      <trkpt lat="47.79119" lon="-3.64026">
        <ele>10</ele>
        <time>2018-07-18T12:21:55Z</time>
      </trkpt>
      <trkpt lat="47.79123" lon="-3.64023">
        <ele>10</ele>
        <time>2018-07-18T12:21:56Z</time>
      </trkpt>
      <trkpt lat="47.79126" lon="-3.64021">
        <ele>10</ele>
        <time>2018-07-18T12:21:57Z</time>
      </trkpt>
      <trkpt lat="47.79128" lon="-3.64018">
        <ele>11</ele>
        <time>2018-07-18T12:21:58Z</time>
      </trkpt>
      <trkpt lat="47.79131" lon="-3.64016">
        <ele>11</ele>
        <time>2018-07-18T12:21:59Z</time>
      </trkpt>
      <trkpt lat="47.79133" lon="-3.64013">
        <ele>11</ele>
        <time>2018-07-18T12:22:00Z</time>
      </trkpt>
      <trkpt lat="47.79136" lon="-3.64009">
        <ele>11</ele>
        <time>2018-07-18T12:22:01Z</time>
      </trkpt>
      <trkpt lat="47.79139" lon="-3.64006">
        <ele>11</ele>
        <time>2018-07-18T12:22:02Z</time>
      </trkpt>
      <trkpt lat="47.79141" lon="-3.64003">
        <ele>11</ele>
        <time>2018-07-18T12:22:03Z</time>
      </trkpt>
      <trkpt lat="47.79144" lon="-3.64">
        <ele>11</ele>
        <time>2018-07-18T12:22:04Z</time>
      </trkpt>
      <trkpt lat="47.79147" lon="-3.63997">
        <ele>11</ele>
        <time>2018-07-18T12:22:05Z</time>
      </trkpt>
      <trkpt lat="47.79149" lon="-3.63993">
        <ele>12</ele>
        <time>2018-07-18T12:22:06Z</time>
      </trkpt>
      <trkpt lat="47.79151" lon="-3.6399">
        <ele>12</ele>
        <time>2018-07-18T12:22:07Z</time>
      </trkpt>
      <trkpt lat="47.79153" lon="-3.63989">
        <ele>12</ele>
        <time>2018-07-18T12:22:08Z</time>
      </trkpt>
      <trkpt lat="47.79155" lon="-3.63987">
        <ele>12</ele>
        <time>2018-07-18T12:22:09Z</time>
      </trkpt>
      <trkpt lat="47.79157" lon="-3.63984">
        <ele>12</ele>
        <time>2018-07-18T12:22:10Z</time>
      </trkpt>
      <trkpt lat="47.7916" lon="-3.63981">
        <ele>12</ele>
        <time>2018-07-18T12:22:11Z</time>
      </trkpt>
      <trkpt lat="47.79162" lon="-3.63978">
        <ele>12</ele>
        <time>2018-07-18T12:22:12Z</time>
      </trkpt>
      <trkpt lat="47.79165" lon="-3.63974">
        <ele>13</ele>
        <time>2018-07-18T12:22:13Z</time>
      </trkpt>
      <trkpt lat="47.79169" lon="-3.63971">
        <ele>13</ele>
        <time>2018-07-18T12:22:14Z</time>
      </trkpt>
      <trkpt lat="47.79172" lon="-3.63967">
        <ele>13</ele>
        <time>2018-07-18T12:22:15Z</time>
      </trkpt>
      <trkpt lat="47.79175" lon="-3.63964">
        <ele>13</ele>
        <time>2018-07-18T12:22:16Z</time>
      </trkpt>
      <trkpt lat="47.79177" lon="-3.63961">
        <ele>13</ele>
        <time>2018-07-18T12:22:17Z</time>
      </trkpt>
      <trkpt lat="47.7918" lon="-3.63958">
        <ele>13</ele>
        <time>2018-07-18T12:22:18Z</time>
      </trkpt>
      <trkpt lat="47.79182" lon="-3.63954">
        <ele>14</ele>
        <time>2018-07-18T12:22:19Z</time>
      </trkpt>
      <trkpt lat="47.79184" lon="-3.6395">
        <ele>14</ele>
        <time>2018-07-18T12:22:20Z</time>
      </trkpt>
      <trkpt lat="47.79187" lon="-3.63946">
        <ele>14</ele>
        <time>2018-07-18T12:22:21Z</time>
      </trkpt>
      <trkpt lat="47.7919" lon="-3.63942">
        <ele>14</ele>
        <time>2018-07-18T12:22:22Z</time>
      </trkpt>
      <trkpt lat="47.79191" lon="-3.6394">
        <ele>14</ele>
        <time>2018-07-18T12:22:23Z</time>
      </trkpt>
      <trkpt lat="47.79192" lon="-3.6394">
        <ele>14</ele>
        <time>2018-07-18T12:22:24Z</time>
      </trkpt>
      <trkpt lat="47.79193" lon="-3.63939">
        <ele>14</ele>
        <time>2018-07-18T12:22:25Z</time>
      </trkpt>
      <trkpt lat="47.79193" lon="-3.63938">
        <ele>14</ele>
        <time>2018-07-18T12:22:26Z</time>
      </trkpt>
      <trkpt lat="47.79194" lon="-3.63938">
        <ele>14</ele>
        <time>2018-07-18T12:22:27Z</time>
      </trkpt>
      <trkpt lat="47.79194" lon="-3.63937">
        <ele>14</ele>
        <time>2018-07-18T12:22:28Z</time>
      </trkpt>
      <trkpt lat="47.79197" lon="-3.63934">
        <ele>14</ele>
        <time>2018-07-18T12:22:29Z</time>
      </trkpt>
      <trkpt lat="47.79198" lon="-3.63933">
        <ele>14</ele>
        <time>2018-07-18T12:22:30Z</time>
      </trkpt>
      <trkpt lat="47.79198" lon="-3.63931">
        <ele>14</ele>
        <time>2018-07-18T12:22:31Z</time>
      </trkpt>
      <trkpt lat="47.79199" lon="-3.6393">
        <ele>13</ele>
        <time>2018-07-18T12:22:32Z</time>
      </trkpt>
      <trkpt lat="47.792" lon="-3.63929">
        <ele>13</ele>
        <time>2018-07-18T12:22:33Z</time>
      </trkpt>
      <trkpt lat="47.79201" lon="-3.63928">
        <ele>13</ele>
        <time>2018-07-18T12:22:34Z</time>
      </trkpt>
      <trkpt lat="47.79201" lon="-3.63927">
        <ele>12</ele>
        <time>2018-07-18T12:22:35Z</time>
      </trkpt>
      <trkpt lat="47.79201" lon="-3.63927">
        <ele>12</ele>
        <time>2018-07-18T12:22:36Z</time>
      </trkpt>
      <trkpt lat="47.79201" lon="-3.63927">
        <ele>12</ele>
        <time>2018-07-18T12:22:37Z</time>
      </trkpt>
      <trkpt lat="47.79202" lon="-3.63927">
        <ele>12</ele>
        <time>2018-07-18T12:22:38Z</time>
      </trkpt>
      <trkpt lat="47.79203" lon="-3.63925">
        <ele>11</ele>
        <time>2018-07-18T12:22:39Z</time>
      </trkpt>
      <trkpt lat="47.79205" lon="-3.63924">
        <ele>11</ele>
        <time>2018-07-18T12:22:40Z</time>
      </trkpt>
      <trkpt lat="47.79207" lon="-3.63922">
        <ele>11</ele>
        <time>2018-07-18T12:22:41Z</time>
      </trkpt>
      <trkpt lat="47.7921" lon="-3.6392">
        <ele>11</ele>
        <time>2018-07-18T12:22:42Z</time>
      </trkpt>
      <trkpt lat="47.79212" lon="-3.63918">
        <ele>11</ele>
        <time>2018-07-18T12:22:43Z</time>
      </trkpt>
      <trkpt lat="47.79214" lon="-3.63917">
        <ele>11</ele>
        <time>2018-07-18T12:22:44Z</time>
      </trkpt>
      <trkpt lat="47.79216" lon="-3.63913">
        <ele>11</ele>
        <time>2018-07-18T12:22:45Z</time>
      </trkpt>
      <trkpt lat="47.79218" lon="-3.6391">
        <ele>11</ele>
        <time>2018-07-18T12:22:46Z</time>
      </trkpt>
      <trkpt lat="47.7922" lon="-3.63906">
        <ele>10</ele>
        <time>2018-07-18T12:22:47Z</time>
      </trkpt>
      <trkpt lat="47.79222" lon="-3.63902">
        <ele>10</ele>
        <time>2018-07-18T12:22:48Z</time>
      </trkpt>
      <trkpt lat="47.79223" lon="-3.63899">
        <ele>10</ele>
        <time>2018-07-18T12:22:49Z</time>
      </trkpt>
      <trkpt lat="47.79226" lon="-3.63895">
        <ele>10</ele>
        <time>2018-07-18T12:22:50Z</time>
      </trkpt>
      <trkpt lat="47.79229" lon="-3.63891">
        <ele>10</ele>
        <time>2018-07-18T12:22:51Z</time>
      </trkpt>
      <trkpt lat="47.79231" lon="-3.63889">
        <ele>10</ele>
        <time>2018-07-18T12:22:52Z</time>
      </trkpt>
      <trkpt lat="47.79233" lon="-3.63887">
        <ele>10</ele>
        <time>2018-07-18T12:22:53Z</time>
      </trkpt>
      <trkpt lat="47.79235" lon="-3.63885">
        <ele>10</ele>
        <time>2018-07-18T12:22:54Z</time>
      </trkpt>
      <trkpt lat="47.79237" lon="-3.63884">
        <ele>10</ele>
        <time>2018-07-18T12:22:55Z</time>
      </trkpt>
      <trkpt lat="47.79238" lon="-3.63882">
        <ele>10</ele>
        <time>2018-07-18T12:22:56Z</time>
      </trkpt>
      <trkpt lat="47.79239" lon="-3.63881">
        <ele>10</ele>
        <time>2018-07-18T12:22:57Z</time>
      </trkpt>
      <trkpt lat="47.79241" lon="-3.63878">
        <ele>10</ele>
        <time>2018-07-18T12:22:58Z</time>
      </trkpt>
      <trkpt lat="47.79243" lon="-3.63875">
        <ele>10</ele>
        <time>2018-07-18T12:22:59Z</time>
      </trkpt>
      <trkpt lat="47.79246" lon="-3.63872">
        <ele>10</ele>
        <time>2018-07-18T12:23:00Z</time>
      </trkpt>
      <trkpt lat="47.79249" lon="-3.6387">
        <ele>10</ele>
        <time>2018-07-18T12:23:01Z</time>
      </trkpt>
      <trkpt lat="47.79252" lon="-3.63867">
        <ele>10</ele>
        <time>2018-07-18T12:23:02Z</time>
      </trkpt>
      <trkpt lat="47.79254" lon="-3.63864">
        <ele>10</ele>
        <time>2018-07-18T12:23:03Z</time>
      </trkpt>
      <trkpt lat="47.79256" lon="-3.63861">
        <ele>10</ele>
        <time>2018-07-18T12:23:04Z</time>
      </trkpt>
      <trkpt lat="47.79259" lon="-3.63858">
        <ele>10</ele>
        <time>2018-07-18T12:23:05Z</time>
      </trkpt>
      <trkpt lat="47.79262" lon="-3.63855">
        <ele>10</ele>
        <time>2018-07-18T12:23:06Z</time>
      </trkpt>
      <trkpt lat="47.79264" lon="-3.63853">
        <ele>11</ele>
        <time>2018-07-18T12:23:07Z</time>
      </trkpt>
      <trkpt lat="47.79266" lon="-3.6385">
        <ele>11</ele>
        <time>2018-07-18T12:23:08Z</time>
      </trkpt>
      <trkpt lat="47.79268" lon="-3.63847">
        <ele>11</ele>
        <time>2018-07-18T12:23:09Z</time>
      </trkpt>
      <trkpt lat="47.79269" lon="-3.63845">
        <ele>11</ele>
        <time>2018-07-18T12:23:10Z</time>
      </trkpt>
      <trkpt lat="47.7927" lon="-3.63844">
        <ele>11</ele>
        <time>2018-07-18T12:23:11Z</time>
      </trkpt>
      <trkpt lat="47.79271" lon="-3.63843">
        <ele>12</ele>
        <time>2018-07-18T12:23:12Z</time>
      </trkpt>
      <trkpt lat="47.79271" lon="-3.63842">
        <ele>12</ele>
        <time>2018-07-18T12:23:13Z</time>
      </trkpt>
      <trkpt lat="47.79272" lon="-3.63842">
        <ele>12</ele>
        <time>2018-07-18T12:23:14Z</time>
      </trkpt>
      <trkpt lat="47.79272" lon="-3.63841">
        <ele>12</ele>
        <time>2018-07-18T12:23:15Z</time>
      </trkpt>
      <trkpt lat="47.79275" lon="-3.63837">
        <ele>13</ele>
        <time>2018-07-18T12:23:16Z</time>
      </trkpt>
      <trkpt lat="47.79275" lon="-3.63837">
        <ele>13</ele>
        <time>2018-07-18T12:23:17Z</time>
      </trkpt>
      <trkpt lat="47.79274" lon="-3.63837">
        <ele>13</ele>
        <time>2018-07-18T12:23:18Z</time>
      </trkpt>
      <trkpt lat="47.79273" lon="-3.63837">
        <ele>13</ele>
        <time>2018-07-18T12:23:19Z</time>
      </trkpt>
      <trkpt lat="47.79273" lon="-3.63837">
        <ele>13</ele>
        <time>2018-07-18T12:23:20Z</time>
      </trkpt>
      <trkpt lat="47.79273" lon="-3.63837">
        <ele>13</ele>
        <time>2018-07-18T12:23:21Z</time>
      </trkpt>
      <trkpt lat="47.79273" lon="-3.63837">
        <ele>13</ele>
        <time>2018-07-18T12:23:22Z</time>
      </trkpt>
      <trkpt lat="47.79273" lon="-3.63836">
        <ele>13</ele>
        <time>2018-07-18T12:23:23Z</time>
      </trkpt>
      <trkpt lat="47.79273" lon="-3.63835">
        <ele>13</ele>
        <time>2018-07-18T12:23:24Z</time>
      </trkpt>
      <trkpt lat="47.79272" lon="-3.63833">
        <ele>13</ele>
        <time>2018-07-18T12:23:25Z</time>
      </trkpt>
      <trkpt lat="47.79272" lon="-3.6383">
        <ele>13</ele>
        <time>2018-07-18T12:23:26Z</time>
      </trkpt>
      <trkpt lat="47.79272" lon="-3.63827">
        <ele>13</ele>
        <time>2018-07-18T12:23:27Z</time>
      </trkpt>
      <trkpt lat="47.79271" lon="-3.63823">
        <ele>13</ele>
        <time>2018-07-18T12:23:28Z</time>
      </trkpt>
      <trkpt lat="47.7927" lon="-3.6382">
        <ele>13</ele>
        <time>2018-07-18T12:23:29Z</time>
      </trkpt>
      <trkpt lat="47.79269" lon="-3.63816">
        <ele>13</ele>
        <time>2018-07-18T12:23:30Z</time>
      </trkpt>
      <trkpt lat="47.79268" lon="-3.63813">
        <ele>13</ele>
        <time>2018-07-18T12:23:31Z</time>
      </trkpt>
      <trkpt lat="47.79267" lon="-3.6381">
        <ele>13</ele>
        <time>2018-07-18T12:23:32Z</time>
      </trkpt>
      <trkpt lat="47.79266" lon="-3.63806">
        <ele>13</ele>
        <time>2018-07-18T12:23:33Z</time>
      </trkpt>
      <trkpt lat="47.79265" lon="-3.63804">
        <ele>13</ele>
        <time>2018-07-18T12:23:34Z</time>
      </trkpt>
      <trkpt lat="47.79265" lon="-3.63802">
        <ele>13</ele>
        <time>2018-07-18T12:23:35Z</time>
      </trkpt>
      <trkpt lat="47.79265" lon="-3.63802">
        <ele>13</ele>
        <time>2018-07-18T12:23:36Z</time>
      </trkpt>
      <trkpt lat="47.79265" lon="-3.63801">
        <ele>13</ele>
        <time>2018-07-18T12:23:37Z</time>
      </trkpt>
      <trkpt lat="47.79266" lon="-3.63801">
        <ele>13</ele>
        <time>2018-07-18T12:23:38Z</time>
      </trkpt>
      <trkpt lat="47.79266" lon="-3.63801">
        <ele>13</ele>
        <time>2018-07-18T12:23:39Z</time>
      </trkpt>
      <trkpt lat="47.79267" lon="-3.63799">
        <ele>12</ele>
        <time>2018-07-18T12:23:40Z</time>
      </trkpt>
      <trkpt lat="47.79268" lon="-3.63798">
        <ele>12</ele>
        <time>2018-07-18T12:23:41Z</time>
      </trkpt>
      <trkpt lat="47.79269" lon="-3.63796">
        <ele>12</ele>
        <time>2018-07-18T12:23:42Z</time>
      </trkpt>
      <trkpt lat="47.79271" lon="-3.63794">
        <ele>12</ele>
        <time>2018-07-18T12:23:43Z</time>
      </trkpt>
      <trkpt lat="47.79272" lon="-3.63792">
        <ele>12</ele>
        <time>2018-07-18T12:23:44Z</time>
      </trkpt>
      <trkpt lat="47.79274" lon="-3.63789">
        <ele>11</ele>
        <time>2018-07-18T12:23:45Z</time>
      </trkpt>
      <trkpt lat="47.79276" lon="-3.63786">
        <ele>11</ele>
        <time>2018-07-18T12:23:46Z</time>
      </trkpt>
      <trkpt lat="47.79277" lon="-3.63784">
        <ele>11</ele>
        <time>2018-07-18T12:23:47Z</time>
      </trkpt>
      <trkpt lat="47.79279" lon="-3.63781">
        <ele>11</ele>
        <time>2018-07-18T12:23:48Z</time>
      </trkpt>
      <trkpt lat="47.79281" lon="-3.63778">
        <ele>11</ele>
        <time>2018-07-18T12:23:49Z</time>
      </trkpt>
      <trkpt lat="47.79283" lon="-3.63775">
        <ele>11</ele>
        <time>2018-07-18T12:23:50Z</time>
      </trkpt>
      <trkpt lat="47.79284" lon="-3.63773">
        <ele>11</ele>
        <time>2018-07-18T12:23:51Z</time>
      </trkpt>
      <trkpt lat="47.79286" lon="-3.6377">
        <ele>11</ele>
        <time>2018-07-18T12:23:52Z</time>
      </trkpt>
      <trkpt lat="47.79287" lon="-3.63767">
        <ele>11</ele>
        <time>2018-07-18T12:23:53Z</time>
      </trkpt>
      <trkpt lat="47.79288" lon="-3.63764">
        <ele>11</ele>
        <time>2018-07-18T12:23:54Z</time>
      </trkpt>
      <trkpt lat="47.7929" lon="-3.63761">
        <ele>10</ele>
        <time>2018-07-18T12:23:55Z</time>
      </trkpt>
      <trkpt lat="47.79292" lon="-3.63758">
        <ele>10</ele>
        <time>2018-07-18T12:23:56Z</time>
      </trkpt>
      <trkpt lat="47.79293" lon="-3.63755">
        <ele>10</ele>
        <time>2018-07-18T12:23:57Z</time>
      </trkpt>
      <trkpt lat="47.79294" lon="-3.63753">
        <ele>10</ele>
        <time>2018-07-18T12:23:58Z</time>
      </trkpt>
      <trkpt lat="47.79295" lon="-3.63751">
        <ele>10</ele>
        <time>2018-07-18T12:23:59Z</time>
      </trkpt>
      <trkpt lat="47.79296" lon="-3.63748">
        <ele>10</ele>
        <time>2018-07-18T12:24:00Z</time>
      </trkpt>
      <trkpt lat="47.79298" lon="-3.63744">
        <ele>10</ele>
        <time>2018-07-18T12:24:01Z</time>
      </trkpt>
      <trkpt lat="47.79299" lon="-3.63741">
        <ele>10</ele>
        <time>2018-07-18T12:24:02Z</time>
      </trkpt>
      <trkpt lat="47.793" lon="-3.63739">
        <ele>10</ele>
        <time>2018-07-18T12:24:03Z</time>
      </trkpt>
      <trkpt lat="47.79301" lon="-3.63736">
        <ele>9</ele>
        <time>2018-07-18T12:24:04Z</time>
      </trkpt>
      <trkpt lat="47.79302" lon="-3.63732">
        <ele>9</ele>
        <time>2018-07-18T12:24:05Z</time>
      </trkpt>
      <trkpt lat="47.79303" lon="-3.63729">
        <ele>9</ele>
        <time>2018-07-18T12:24:06Z</time>
      </trkpt>
      <trkpt lat="47.79304" lon="-3.63726">
        <ele>9</ele>
        <time>2018-07-18T12:24:07Z</time>
      </trkpt>
      <trkpt lat="47.79304" lon="-3.63723">
        <ele>9</ele>
        <time>2018-07-18T12:24:08Z</time>
      </trkpt>
      <trkpt lat="47.79304" lon="-3.63719">
        <ele>9</ele>
        <time>2018-07-18T12:24:09Z</time>
      </trkpt>
      <trkpt lat="47.79305" lon="-3.63716">
        <ele>9</ele>
        <time>2018-07-18T12:24:10Z</time>
      </trkpt>
      <trkpt lat="47.79305" lon="-3.63713">
        <ele>9</ele>
        <time>2018-07-18T12:24:11Z</time>
      </trkpt>
      <trkpt lat="47.79306" lon="-3.6371">
        <ele>9</ele>
        <time>2018-07-18T12:24:12Z</time>
      </trkpt>
      <trkpt lat="47.79306" lon="-3.63707">
        <ele>9</ele>
        <time>2018-07-18T12:24:13Z</time>
      </trkpt>
      <trkpt lat="47.79307" lon="-3.63704">
        <ele>9</ele>
        <time>2018-07-18T12:24:14Z</time>
      </trkpt>
      <trkpt lat="47.79308" lon="-3.63701">
        <ele>10</ele>
        <time>2018-07-18T12:24:15Z</time>
      </trkpt>
      <trkpt lat="47.79308" lon="-3.63698">
        <ele>10</ele>
        <time>2018-07-18T12:24:16Z</time>
      </trkpt>
      <trkpt lat="47.79309" lon="-3.63695">
        <ele>10</ele>
        <time>2018-07-18T12:24:17Z</time>
      </trkpt>
      <trkpt lat="47.7931" lon="-3.63691">
        <ele>10</ele>
        <time>2018-07-18T12:24:18Z</time>
      </trkpt>
      <trkpt lat="47.79311" lon="-3.63687">
        <ele>10</ele>
        <time>2018-07-18T12:24:19Z</time>
      </trkpt>
      <trkpt lat="47.79311" lon="-3.63683">
        <ele>10</ele>
        <time>2018-07-18T12:24:20Z</time>
      </trkpt>
      <trkpt lat="47.79312" lon="-3.6368">
        <ele>10</ele>
        <time>2018-07-18T12:24:21Z</time>
      </trkpt>
      <trkpt lat="47.79313" lon="-3.63677">
        <ele>10</ele>
        <time>2018-07-18T12:24:22Z</time>
      </trkpt>
      <trkpt lat="47.79313" lon="-3.63674">
        <ele>11</ele>
        <time>2018-07-18T12:24:23Z</time>
      </trkpt>
      <trkpt lat="47.79313" lon="-3.63671">
        <ele>11</ele>
        <time>2018-07-18T12:24:24Z</time>
      </trkpt>
      <trkpt lat="47.79312" lon="-3.63669">
        <ele>11</ele>
        <time>2018-07-18T12:24:25Z</time>
      </trkpt>
      <trkpt lat="47.79311" lon="-3.63669">
        <ele>11</ele>
        <time>2018-07-18T12:24:26Z</time>
      </trkpt>
      <trkpt lat="47.79309" lon="-3.63669">
        <ele>11</ele>
        <time>2018-07-18T12:24:27Z</time>
      </trkpt>
      <trkpt lat="47.79307" lon="-3.6367">
        <ele>11</ele>
        <time>2018-07-18T12:24:28Z</time>
      </trkpt>
      <trkpt lat="47.79305" lon="-3.63671">
        <ele>12</ele>
        <time>2018-07-18T12:24:29Z</time>
      </trkpt>
      <trkpt lat="47.79303" lon="-3.63672">
        <ele>12</ele>
        <time>2018-07-18T12:24:30Z</time>
      </trkpt>
      <trkpt lat="47.79301" lon="-3.63673">
        <ele>12</ele>
        <time>2018-07-18T12:24:31Z</time>
      </trkpt>
      <trkpt lat="47.79299" lon="-3.63675">
        <ele>12</ele>
        <time>2018-07-18T12:24:32Z</time>
      </trkpt>
      <trkpt lat="47.79297" lon="-3.63676">
        <ele>12</ele>
        <time>2018-07-18T12:24:33Z</time>
      </trkpt>
      <trkpt lat="47.79295" lon="-3.63677">
        <ele>12</ele>
        <time>2018-07-18T12:24:34Z</time>
      </trkpt>
      <trkpt lat="47.79293" lon="-3.63679">
        <ele>12</ele>
        <time>2018-07-18T12:24:35Z</time>
      </trkpt>
      <trkpt lat="47.79291" lon="-3.63681">
        <ele>12</ele>
        <time>2018-07-18T12:24:36Z</time>
      </trkpt>
      <trkpt lat="47.79289" lon="-3.63682">
        <ele>12</ele>
        <time>2018-07-18T12:24:37Z</time>
      </trkpt>
      <trkpt lat="47.79287" lon="-3.63684">
        <ele>12</ele>
        <time>2018-07-18T12:24:38Z</time>
      </trkpt>
      <trkpt lat="47.79285" lon="-3.63685">
        <ele>12</ele>
        <time>2018-07-18T12:24:39Z</time>
      </trkpt>
      <trkpt lat="47.79282" lon="-3.63688">
        <ele>13</ele>
        <time>2018-07-18T12:24:40Z</time>
      </trkpt>
      <trkpt lat="47.7928" lon="-3.63691">
        <ele>13</ele>
        <time>2018-07-18T12:24:41Z</time>
      </trkpt>
      <trkpt lat="47.79277" lon="-3.63693">
        <ele>13</ele>
        <time>2018-07-18T12:24:42Z</time>
      </trkpt>
      <trkpt lat="47.79275" lon="-3.63695">
        <ele>13</ele>
        <time>2018-07-18T12:24:43Z</time>
      </trkpt>
      <trkpt lat="47.79273" lon="-3.63697">
        <ele>13</ele>
        <time>2018-07-18T12:24:44Z</time>
      </trkpt>
      <trkpt lat="47.79271" lon="-3.637">
        <ele>13</ele>
        <time>2018-07-18T12:24:45Z</time>
      </trkpt>
      <trkpt lat="47.79268" lon="-3.63702">
        <ele>13</ele>
        <time>2018-07-18T12:24:46Z</time>
      </trkpt>
      <trkpt lat="47.79266" lon="-3.63704">
        <ele>13</ele>
        <time>2018-07-18T12:24:47Z</time>
      </trkpt>
      <trkpt lat="47.79264" lon="-3.63706">
        <ele>14</ele>
        <time>2018-07-18T12:24:48Z</time>
      </trkpt>
      <trkpt lat="47.79262" lon="-3.63709">
        <ele>14</ele>
        <time>2018-07-18T12:24:49Z</time>
      </trkpt>
      <trkpt lat="47.7926" lon="-3.63711">
        <ele>14</ele>
        <time>2018-07-18T12:24:50Z</time>
      </trkpt>
      <trkpt lat="47.79258" lon="-3.63713">
        <ele>14</ele>
        <time>2018-07-18T12:24:51Z</time>
      </trkpt>
      <trkpt lat="47.79256" lon="-3.63715">
        <ele>14</ele>
        <time>2018-07-18T12:24:52Z</time>
      </trkpt>
      <trkpt lat="47.79254" lon="-3.63717">
        <ele>14</ele>
        <time>2018-07-18T12:24:53Z</time>
      </trkpt>
      <trkpt lat="47.79251" lon="-3.63719">
        <ele>14</ele>
        <time>2018-07-18T12:24:54Z</time>
      </trkpt>
      <trkpt lat="47.79249" lon="-3.63721">
        <ele>14</ele>
        <time>2018-07-18T12:24:55Z</time>
      </trkpt>
      <trkpt lat="47.79247" lon="-3.63723">
        <ele>14</ele>
        <time>2018-07-18T12:24:56Z</time>
      </trkpt>
      <trkpt lat="47.79244" lon="-3.63725">
        <ele>14</ele>
        <time>2018-07-18T12:24:57Z</time>
      </trkpt>
      <trkpt lat="47.79242" lon="-3.63727">
        <ele>14</ele>
        <time>2018-07-18T12:24:58Z</time>
      </trkpt>
      <trkpt lat="47.79239" lon="-3.63729">
        <ele>14</ele>
        <time>2018-07-18T12:24:59Z</time>
      </trkpt>
      <trkpt lat="47.79236" lon="-3.63731">
        <ele>14</ele>
        <time>2018-07-18T12:25:00Z</time>
      </trkpt>
      <trkpt lat="47.79233" lon="-3.63733">
        <ele>15</ele>
        <time>2018-07-18T12:25:01Z</time>
      </trkpt>
      <trkpt lat="47.7923" lon="-3.63735">
        <ele>15</ele>
        <time>2018-07-18T12:25:02Z</time>
      </trkpt>
      <trkpt lat="47.79227" lon="-3.63737">
        <ele>15</ele>
        <time>2018-07-18T12:25:03Z</time>
      </trkpt>
      <trkpt lat="47.79225" lon="-3.63739">
        <ele>15</ele>
        <time>2018-07-18T12:25:04Z</time>
      </trkpt>
      <trkpt lat="47.79222" lon="-3.63741">
        <ele>15</ele>
        <time>2018-07-18T12:25:05Z</time>
      </trkpt>
      <trkpt lat="47.79219" lon="-3.63744">
        <ele>16</ele>
        <time>2018-07-18T12:25:06Z</time>
      </trkpt>
      <trkpt lat="47.79217" lon="-3.63746">
        <ele>16</ele>
        <time>2018-07-18T12:25:07Z</time>
      </trkpt>
      <trkpt lat="47.79214" lon="-3.63748">
        <ele>16</ele>
        <time>2018-07-18T12:25:08Z</time>
      </trkpt>
      <trkpt lat="47.79211" lon="-3.63751">
        <ele>16</ele>
        <time>2018-07-18T12:25:09Z</time>
      </trkpt>
      <trkpt lat="47.79208" lon="-3.63754">
        <ele>16</ele>
        <time>2018-07-18T12:25:10Z</time>
      </trkpt>
      <trkpt lat="47.79205" lon="-3.63756">
        <ele>17</ele>
        <time>2018-07-18T12:25:11Z</time>
      </trkpt>
      <trkpt lat="47.79202" lon="-3.63758">
        <ele>17</ele>
        <time>2018-07-18T12:25:12Z</time>
      </trkpt>
      <trkpt lat="47.792" lon="-3.63761">
        <ele>17</ele>
        <time>2018-07-18T12:25:13Z</time>
      </trkpt>
      <trkpt lat="47.79197" lon="-3.63764">
        <ele>17</ele>
        <time>2018-07-18T12:25:14Z</time>
      </trkpt>
      <trkpt lat="47.79194" lon="-3.63766">
        <ele>17</ele>
        <time>2018-07-18T12:25:15Z</time>
      </trkpt>
      <trkpt lat="47.79191" lon="-3.63769">
        <ele>17</ele>
        <time>2018-07-18T12:25:16Z</time>
      </trkpt>
      <trkpt lat="47.79188" lon="-3.63771">
        <ele>18</ele>
        <time>2018-07-18T12:25:17Z</time>
      </trkpt>
      <trkpt lat="47.79184" lon="-3.63773">
        <ele>18</ele>
        <time>2018-07-18T12:25:18Z</time>
      </trkpt>
      <trkpt lat="47.79181" lon="-3.63776">
        <ele>18</ele>
        <time>2018-07-18T12:25:19Z</time>
      </trkpt>
      <trkpt lat="47.79178" lon="-3.63779">
        <ele>18</ele>
        <time>2018-07-18T12:25:20Z</time>
      </trkpt>
      <trkpt lat="47.79175" lon="-3.63781">
        <ele>18</ele>
        <time>2018-07-18T12:25:21Z</time>
      </trkpt>
      <trkpt lat="47.79172" lon="-3.63784">
        <ele>18</ele>
        <time>2018-07-18T12:25:22Z</time>
      </trkpt>
      <trkpt lat="47.79169" lon="-3.63786">
        <ele>18</ele>
        <time>2018-07-18T12:25:23Z</time>
      </trkpt>
      <trkpt lat="47.79165" lon="-3.63789">
        <ele>19</ele>
        <time>2018-07-18T12:25:24Z</time>
      </trkpt>
      <trkpt lat="47.79162" lon="-3.63792">
        <ele>19</ele>
        <time>2018-07-18T12:25:25Z</time>
      </trkpt>
      <trkpt lat="47.79159" lon="-3.63794">
        <ele>19</ele>
        <time>2018-07-18T12:25:26Z</time>
      </trkpt>
      <trkpt lat="47.79155" lon="-3.63796">
        <ele>19</ele>
        <time>2018-07-18T12:25:27Z</time>
      </trkpt>
      <trkpt lat="47.79152" lon="-3.63798">
        <ele>19</ele>
        <time>2018-07-18T12:25:28Z</time>
      </trkpt>
      <trkpt lat="47.79149" lon="-3.638">
        <ele>19</ele>
        <time>2018-07-18T12:25:29Z</time>
      </trkpt>
      <trkpt lat="47.79146" lon="-3.63802">
        <ele>19</ele>
        <time>2018-07-18T12:25:30Z</time>
      </trkpt>
      <trkpt lat="47.79143" lon="-3.63804">
        <ele>20</ele>
        <time>2018-07-18T12:25:31Z</time>
      </trkpt>
      <trkpt lat="47.79139" lon="-3.63806">
        <ele>20</ele>
        <time>2018-07-18T12:25:32Z</time>
      </trkpt>
      <trkpt lat="47.79136" lon="-3.63808">
        <ele>20</ele>
        <time>2018-07-18T12:25:33Z</time>
      </trkpt>
      <trkpt lat="47.79132" lon="-3.6381">
        <ele>20</ele>
        <time>2018-07-18T12:25:34Z</time>
      </trkpt>
      <trkpt lat="47.79127" lon="-3.63812">
        <ele>20</ele>
        <time>2018-07-18T12:25:35Z</time>
      </trkpt>
      <trkpt lat="47.79122" lon="-3.63813">
        <ele>20</ele>
        <time>2018-07-18T12:25:36Z</time>
      </trkpt>
      <trkpt lat="47.79116" lon="-3.63814">
        <ele>19</ele>
        <time>2018-07-18T12:25:37Z</time>
      </trkpt>
      <trkpt lat="47.7911" lon="-3.63815">
        <ele>19</ele>
        <time>2018-07-18T12:25:38Z</time>
      </trkpt>
      <trkpt lat="47.79104" lon="-3.63816">
        <ele>19</ele>
        <time>2018-07-18T12:25:39Z</time>
      </trkpt>
      <trkpt lat="47.79097" lon="-3.63816">
        <ele>19</ele>
        <time>2018-07-18T12:25:40Z</time>
      </trkpt>
      <trkpt lat="47.7909" lon="-3.63815">
        <ele>19</ele>
        <time>2018-07-18T12:25:41Z</time>
      </trkpt>
      <trkpt lat="47.79082" lon="-3.63815">
        <ele>18</ele>
        <time>2018-07-18T12:25:42Z</time>
      </trkpt>
      <trkpt lat="47.79075" lon="-3.63815">
        <ele>18</ele>
        <time>2018-07-18T12:25:43Z</time>
      </trkpt>
      <trkpt lat="47.79067" lon="-3.63814">
        <ele>18</ele>
        <time>2018-07-18T12:25:44Z</time>
      </trkpt>
      <trkpt lat="47.79059" lon="-3.63814">
        <ele>18</ele>
        <time>2018-07-18T12:25:45Z</time>
      </trkpt>
      <trkpt lat="47.79051" lon="-3.63813">
        <ele>17</ele>
        <time>2018-07-18T12:25:46Z</time>
      </trkpt>
      <trkpt lat="47.79043" lon="-3.63811">
        <ele>17</ele>
        <time>2018-07-18T12:25:47Z</time>
      </trkpt>
      <trkpt lat="47.79036" lon="-3.63807">
        <ele>17</ele>
        <time>2018-07-18T12:25:48Z</time>
      </trkpt>
      <trkpt lat="47.79029" lon="-3.63803">
        <ele>17</ele>
        <time>2018-07-18T12:25:49Z</time>
      </trkpt>
      <trkpt lat="47.79023" lon="-3.63796">
        <ele>17</ele>
        <time>2018-07-18T12:25:50Z</time>
      </trkpt>
      <trkpt lat="47.79017" lon="-3.6379">
        <ele>17</ele>
        <time>2018-07-18T12:25:51Z</time>
      </trkpt>
      <trkpt lat="47.79012" lon="-3.63783">
        <ele>17</ele>
        <time>2018-07-18T12:25:52Z</time>
      </trkpt>
      <trkpt lat="47.79008" lon="-3.63776">
        <ele>17</ele>
        <time>2018-07-18T12:25:53Z</time>
      </trkpt>
      <trkpt lat="47.79004" lon="-3.6377">
        <ele>18</ele>
        <time>2018-07-18T12:25:54Z</time>
      </trkpt>
      <trkpt lat="47.79002" lon="-3.63763">
        <ele>18</ele>
        <time>2018-07-18T12:25:55Z</time>
      </trkpt>
      <trkpt lat="47.79" lon="-3.63756">
        <ele>18</ele>
        <time>2018-07-18T12:25:56Z</time>
      </trkpt>
      <trkpt lat="47.79" lon="-3.63749">
        <ele>18</ele>
        <time>2018-07-18T12:25:57Z</time>
      </trkpt>
      <trkpt lat="47.78999" lon="-3.63743">
        <ele>19</ele>
        <time>2018-07-18T12:25:58Z</time>
      </trkpt>
      <trkpt lat="47.78998" lon="-3.63736">
        <ele>19</ele>
        <time>2018-07-18T12:25:59Z</time>
      </trkpt>
      <trkpt lat="47.78997" lon="-3.6373">
        <ele>19</ele>
        <time>2018-07-18T12:26:00Z</time>
      </trkpt>
      <trkpt lat="47.78996" lon="-3.63724">
        <ele>19</ele>
        <time>2018-07-18T12:26:01Z</time>
      </trkpt>
      <trkpt lat="47.78995" lon="-3.63717">
        <ele>19</ele>
        <time>2018-07-18T12:26:02Z</time>
      </trkpt>
      <trkpt lat="47.78994" lon="-3.63711">
        <ele>19</ele>
        <time>2018-07-18T12:26:03Z</time>
      </trkpt>
      <trkpt lat="47.78993" lon="-3.63706">
        <ele>19</ele>
        <time>2018-07-18T12:26:04Z</time>
      </trkpt>
      <trkpt lat="47.78991" lon="-3.63701">
        <ele>19</ele>
        <time>2018-07-18T12:26:05Z</time>
      </trkpt>
      <trkpt lat="47.78987" lon="-3.63697">
        <ele>19</ele>
        <time>2018-07-18T12:26:06Z</time>
      </trkpt>
      <trkpt lat="47.78983" lon="-3.63693">
        <ele>19</ele>
        <time>2018-07-18T12:26:07Z</time>
      </trkpt>
      <trkpt lat="47.78977" lon="-3.63691">
        <ele>19</ele>
        <time>2018-07-18T12:26:08Z</time>
      </trkpt>
      <trkpt lat="47.78972" lon="-3.63689">
        <ele>19</ele>
        <time>2018-07-18T12:26:09Z</time>
      </trkpt>
      <trkpt lat="47.78967" lon="-3.63689">
        <ele>19</ele>
        <time>2018-07-18T12:26:10Z</time>
      </trkpt>
      <trkpt lat="47.78962" lon="-3.63689">
        <ele>19</ele>
        <time>2018-07-18T12:26:11Z</time>
      </trkpt>
      <trkpt lat="47.78957" lon="-3.63691">
        <ele>19</ele>
        <time>2018-07-18T12:26:12Z</time>
      </trkpt>
      <trkpt lat="47.78953" lon="-3.63692">
        <ele>19</ele>
        <time>2018-07-18T12:26:13Z</time>
      </trkpt>
      <trkpt lat="47.78948" lon="-3.63693">
        <ele>19</ele>
        <time>2018-07-18T12:26:14Z</time>
      </trkpt>
      <trkpt lat="47.78944" lon="-3.63693">
        <ele>19</ele>
        <time>2018-07-18T12:26:15Z</time>
      </trkpt>
      <trkpt lat="47.78939" lon="-3.63693">
        <ele>19</ele>
        <time>2018-07-18T12:26:16Z</time>
      </trkpt>
      <trkpt lat="47.78935" lon="-3.63693">
        <ele>19</ele>
        <time>2018-07-18T12:26:17Z</time>
      </trkpt>
      <trkpt lat="47.78932" lon="-3.63693">
        <ele>19</ele>
        <time>2018-07-18T12:26:18Z</time>
      </trkpt>
      <trkpt lat="47.78928" lon="-3.63692">
        <ele>19</ele>
        <time>2018-07-18T12:26:19Z</time>
      </trkpt>
      <trkpt lat="47.78924" lon="-3.63691">
        <ele>19</ele>
        <time>2018-07-18T12:26:20Z</time>
      </trkpt>
      <trkpt lat="47.7892" lon="-3.63691">
        <ele>19</ele>
        <time>2018-07-18T12:26:21Z</time>
      </trkpt>
      <trkpt lat="47.78916" lon="-3.63691">
        <ele>19</ele>
        <time>2018-07-18T12:26:22Z</time>
      </trkpt>
      <trkpt lat="47.78912" lon="-3.6369">
        <ele>19</ele>
        <time>2018-07-18T12:26:23Z</time>
      </trkpt>
      <trkpt lat="47.78908" lon="-3.63689">
        <ele>19</ele>
        <time>2018-07-18T12:26:24Z</time>
      </trkpt>
      <trkpt lat="47.78905" lon="-3.63689">
        <ele>19</ele>
        <time>2018-07-18T12:26:25Z</time>
      </trkpt>
      <trkpt lat="47.78901" lon="-3.63689">
        <ele>19</ele>
        <time>2018-07-18T12:26:26Z</time>
      </trkpt>
      <trkpt lat="47.78897" lon="-3.63688">
        <ele>19</ele>
        <time>2018-07-18T12:26:27Z</time>
      </trkpt>
      <trkpt lat="47.78893" lon="-3.63686">
        <ele>19</ele>
        <time>2018-07-18T12:26:28Z</time>
      </trkpt>
      <trkpt lat="47.7889" lon="-3.63684">
        <ele>19</ele>
        <time>2018-07-18T12:26:29Z</time>
      </trkpt>
      <trkpt lat="47.78887" lon="-3.6368">
        <ele>19</ele>
        <time>2018-07-18T12:26:30Z</time>
      </trkpt>
      <trkpt lat="47.78884" lon="-3.63675">
        <ele>19</ele>
        <time>2018-07-18T12:26:31Z</time>
      </trkpt>
      <trkpt lat="47.78882" lon="-3.63671">
        <ele>19</ele>
        <time>2018-07-18T12:26:32Z</time>
      </trkpt>
      <trkpt lat="47.78881" lon="-3.63665">
        <ele>19</ele>
        <time>2018-07-18T12:26:33Z</time>
      </trkpt>
      <trkpt lat="47.7888" lon="-3.6366">
        <ele>19</ele>
        <time>2018-07-18T12:26:34Z</time>
      </trkpt>
      <trkpt lat="47.78879" lon="-3.63654">
        <ele>19</ele>
        <time>2018-07-18T12:26:35Z</time>
      </trkpt>
      <trkpt lat="47.78879" lon="-3.63648">
        <ele>19</ele>
        <time>2018-07-18T12:26:36Z</time>
      </trkpt>
      <trkpt lat="47.78878" lon="-3.63642">
        <ele>19</ele>
        <time>2018-07-18T12:26:37Z</time>
      </trkpt>
      <trkpt lat="47.78878" lon="-3.63636">
        <ele>19</ele>
        <time>2018-07-18T12:26:38Z</time>
      </trkpt>
      <trkpt lat="47.78879" lon="-3.6363">
        <ele>20</ele>
        <time>2018-07-18T12:26:39Z</time>
      </trkpt>
      <trkpt lat="47.7888" lon="-3.63624">
        <ele>20</ele>
        <time>2018-07-18T12:26:40Z</time>
      </trkpt>
      <trkpt lat="47.78882" lon="-3.63617">
        <ele>20</ele>
        <time>2018-07-18T12:26:41Z</time>
      </trkpt>
      <trkpt lat="47.78883" lon="-3.63611">
        <ele>20</ele>
        <time>2018-07-18T12:26:42Z</time>
      </trkpt>
      <trkpt lat="47.78884" lon="-3.63605">
        <ele>21</ele>
        <time>2018-07-18T12:26:43Z</time>
      </trkpt>
      <trkpt lat="47.78885" lon="-3.63598">
        <ele>21</ele>
        <time>2018-07-18T12:26:44Z</time>
      </trkpt>
      <trkpt lat="47.78887" lon="-3.63592">
        <ele>21</ele>
        <time>2018-07-18T12:26:45Z</time>
      </trkpt>
      <trkpt lat="47.78889" lon="-3.63586">
        <ele>21</ele>
        <time>2018-07-18T12:26:46Z</time>
      </trkpt>
      <trkpt lat="47.78891" lon="-3.6358">
        <ele>21</ele>
        <time>2018-07-18T12:26:47Z</time>
      </trkpt>
      <trkpt lat="47.78892" lon="-3.63574">
        <ele>22</ele>
        <time>2018-07-18T12:26:48Z</time>
      </trkpt>
      <trkpt lat="47.78894" lon="-3.63568">
        <ele>22</ele>
        <time>2018-07-18T12:26:49Z</time>
      </trkpt>
      <trkpt lat="47.78894" lon="-3.63563">
        <ele>22</ele>
        <time>2018-07-18T12:26:50Z</time>
      </trkpt>
      <trkpt lat="47.78892" lon="-3.63557">
        <ele>22</ele>
        <time>2018-07-18T12:26:51Z</time>
      </trkpt>
      <trkpt lat="47.7889" lon="-3.63554">
        <ele>22</ele>
        <time>2018-07-18T12:26:52Z</time>
      </trkpt>
      <trkpt lat="47.78887" lon="-3.63553">
        <ele>23</ele>
        <time>2018-07-18T12:26:53Z</time>
      </trkpt>
      <trkpt lat="47.78884" lon="-3.63554">
        <ele>23</ele>
        <time>2018-07-18T12:26:54Z</time>
      </trkpt>
      <trkpt lat="47.7888" lon="-3.63555">
        <ele>23</ele>
        <time>2018-07-18T12:26:55Z</time>
      </trkpt>
      <trkpt lat="47.78877" lon="-3.63557">
        <ele>23</ele>
        <time>2018-07-18T12:26:56Z</time>
      </trkpt>
      <trkpt lat="47.78874" lon="-3.6356">
        <ele>23</ele>
        <time>2018-07-18T12:26:57Z</time>
      </trkpt>
      <trkpt lat="47.7887" lon="-3.63564">
        <ele>24</ele>
        <time>2018-07-18T12:26:58Z</time>
      </trkpt>
      <trkpt lat="47.78867" lon="-3.63567">
        <ele>24</ele>
        <time>2018-07-18T12:26:59Z</time>
      </trkpt>
      <trkpt lat="47.78864" lon="-3.63571">
        <ele>24</ele>
        <time>2018-07-18T12:27:00Z</time>
      </trkpt>
      <trkpt lat="47.7886" lon="-3.63575">
        <ele>24</ele>
        <time>2018-07-18T12:27:01Z</time>
      </trkpt>
      <trkpt lat="47.78856" lon="-3.63579">
        <ele>24</ele>
        <time>2018-07-18T12:27:02Z</time>
      </trkpt>
      <trkpt lat="47.78853" lon="-3.63582">
        <ele>24</ele>
        <time>2018-07-18T12:27:03Z</time>
      </trkpt>
      <trkpt lat="47.78849" lon="-3.63585">
        <ele>24</ele>
        <time>2018-07-18T12:27:04Z</time>
      </trkpt>
      <trkpt lat="47.78846" lon="-3.63586">
        <ele>24</ele>
        <time>2018-07-18T12:27:05Z</time>
      </trkpt>
      <trkpt lat="47.78842" lon="-3.63589">
        <ele>24</ele>
        <time>2018-07-18T12:27:06Z</time>
      </trkpt>
      <trkpt lat="47.78839" lon="-3.63592">
        <ele>25</ele>
        <time>2018-07-18T12:27:07Z</time>
      </trkpt>
      <trkpt lat="47.78836" lon="-3.63594">
        <ele>25</ele>
        <time>2018-07-18T12:27:08Z</time>
      </trkpt>
      <trkpt lat="47.78833" lon="-3.63596">
        <ele>25</ele>
        <time>2018-07-18T12:27:09Z</time>
      </trkpt>
      <trkpt lat="47.7883" lon="-3.63597">
        <ele>25</ele>
        <time>2018-07-18T12:27:10Z</time>
      </trkpt>
      <trkpt lat="47.78829" lon="-3.63597">
        <ele>25</ele>
        <time>2018-07-18T12:27:11Z</time>
      </trkpt>
      <trkpt lat="47.78827" lon="-3.63596">
        <ele>25</ele>
        <time>2018-07-18T12:27:12Z</time>
      </trkpt>
      <trkpt lat="47.78824" lon="-3.63596">
        <ele>25</ele>
        <time>2018-07-18T12:27:13Z</time>
      </trkpt>
      <trkpt lat="47.78822" lon="-3.63596">
        <ele>25</ele>
        <time>2018-07-18T12:27:14Z</time>
      </trkpt>
      <trkpt lat="47.78821" lon="-3.63597">
        <ele>26</ele>
        <time>2018-07-18T12:27:15Z</time>
      </trkpt>
      <trkpt lat="47.7882" lon="-3.63597">
        <ele>26</ele>
        <time>2018-07-18T12:27:16Z</time>
      </trkpt>
      <trkpt lat="47.7882" lon="-3.63597">
        <ele>26</ele>
        <time>2018-07-18T12:27:17Z</time>
      </trkpt>
      <trkpt lat="47.7882" lon="-3.63597">
        <ele>26</ele>
        <time>2018-07-18T12:27:18Z</time>
      </trkpt>
      <trkpt lat="47.7882" lon="-3.63597">
        <ele>26</ele>
        <time>2018-07-18T12:27:19Z</time>
      </trkpt>
      <trkpt lat="47.78822" lon="-3.63597">
        <ele>25</ele>
        <time>2018-07-18T12:27:20Z</time>
      </trkpt>
      <trkpt lat="47.78823" lon="-3.63597">
        <ele>25</ele>
        <time>2018-07-18T12:27:21Z</time>
      </trkpt>
      <trkpt lat="47.78825" lon="-3.63597">
        <ele>25</ele>
        <time>2018-07-18T12:27:22Z</time>
      </trkpt>
      <trkpt lat="47.78828" lon="-3.63597">
        <ele>24</ele>
        <time>2018-07-18T12:27:23Z</time>
      </trkpt>
      <trkpt lat="47.78832" lon="-3.63596">
        <ele>24</ele>
        <time>2018-07-18T12:27:24Z</time>
      </trkpt>
      <trkpt lat="47.78835" lon="-3.63594">
        <ele>24</ele>
        <time>2018-07-18T12:27:25Z</time>
      </trkpt>
      <trkpt lat="47.78838" lon="-3.63591">
        <ele>23</ele>
        <time>2018-07-18T12:27:26Z</time>
      </trkpt>
      <trkpt lat="47.78842" lon="-3.63588">
        <ele>23</ele>
        <time>2018-07-18T12:27:27Z</time>
      </trkpt>
      <trkpt lat="47.78846" lon="-3.63586">
        <ele>23</ele>
        <time>2018-07-18T12:27:28Z</time>
      </trkpt>
      <trkpt lat="47.7885" lon="-3.63583">
        <ele>23</ele>
        <time>2018-07-18T12:27:29Z</time>
      </trkpt>
      <trkpt lat="47.78854" lon="-3.63579">
        <ele>22</ele>
        <time>2018-07-18T12:27:30Z</time>
      </trkpt>
      <trkpt lat="47.78858" lon="-3.63574">
        <ele>22</ele>
        <time>2018-07-18T12:27:31Z</time>
      </trkpt>
      <trkpt lat="47.78862" lon="-3.63569">
        <ele>22</ele>
        <time>2018-07-18T12:27:32Z</time>
      </trkpt>
      <trkpt lat="47.78866" lon="-3.63565">
        <ele>22</ele>
        <time>2018-07-18T12:27:33Z</time>
      </trkpt>
      <trkpt lat="47.7887" lon="-3.63561">
        <ele>21</ele>
        <time>2018-07-18T12:27:34Z</time>
      </trkpt>
      <trkpt lat="47.78875" lon="-3.63558">
        <ele>21</ele>
        <time>2018-07-18T12:27:35Z</time>
      </trkpt>
      <trkpt lat="47.7888" lon="-3.63555">
        <ele>21</ele>
        <time>2018-07-18T12:27:36Z</time>
      </trkpt>
      <trkpt lat="47.78884" lon="-3.63553">
        <ele>21</ele>
        <time>2018-07-18T12:27:37Z</time>
      </trkpt>
      <trkpt lat="47.78889" lon="-3.6355">
        <ele>21</ele>
        <time>2018-07-18T12:27:38Z</time>
      </trkpt>
      <trkpt lat="47.78893" lon="-3.63547">
        <ele>21</ele>
        <time>2018-07-18T12:27:39Z</time>
      </trkpt>
      <trkpt lat="47.78896" lon="-3.63542">
        <ele>20</ele>
        <time>2018-07-18T12:27:40Z</time>
      </trkpt>
      <trkpt lat="47.78899" lon="-3.63537">
        <ele>20</ele>
        <time>2018-07-18T12:27:41Z</time>
      </trkpt>
      <trkpt lat="47.78901" lon="-3.63532">
        <ele>20</ele>
        <time>2018-07-18T12:27:42Z</time>
      </trkpt>
      <trkpt lat="47.78903" lon="-3.63527">
        <ele>20</ele>
        <time>2018-07-18T12:27:43Z</time>
      </trkpt>
      <trkpt lat="47.78905" lon="-3.63521">
        <ele>20</ele>
        <time>2018-07-18T12:27:44Z</time>
      </trkpt>
      <trkpt lat="47.78907" lon="-3.63517">
        <ele>20</ele>
        <time>2018-07-18T12:27:45Z</time>
      </trkpt>
      <trkpt lat="47.78908" lon="-3.63511">
        <ele>20</ele>
        <time>2018-07-18T12:27:46Z</time>
      </trkpt>
      <trkpt lat="47.78911" lon="-3.63507">
        <ele>20</ele>
        <time>2018-07-18T12:27:47Z</time>
      </trkpt>
      <trkpt lat="47.78912" lon="-3.63502">
        <ele>20</ele>
        <time>2018-07-18T12:27:48Z</time>
      </trkpt>
      <trkpt lat="47.78914" lon="-3.63497">
        <ele>20</ele>
        <time>2018-07-18T12:27:49Z</time>
      </trkpt>
      <trkpt lat="47.78916" lon="-3.63492">
        <ele>20</ele>
        <time>2018-07-18T12:27:50Z</time>
      </trkpt>
      <trkpt lat="47.78917" lon="-3.63486">
        <ele>20</ele>
        <time>2018-07-18T12:27:51Z</time>
      </trkpt>
      <trkpt lat="47.78916" lon="-3.63481">
        <ele>20</ele>
        <time>2018-07-18T12:27:52Z</time>
      </trkpt>
      <trkpt lat="47.78915" lon="-3.63476">
        <ele>20</ele>
        <time>2018-07-18T12:27:53Z</time>
      </trkpt>
      <trkpt lat="47.78913" lon="-3.63471">
        <ele>20</ele>
        <time>2018-07-18T12:27:54Z</time>
      </trkpt>
      <trkpt lat="47.78911" lon="-3.63467">
        <ele>20</ele>
        <time>2018-07-18T12:27:55Z</time>
      </trkpt>
      <trkpt lat="47.78908" lon="-3.63462">
        <ele>20</ele>
        <time>2018-07-18T12:27:56Z</time>
      </trkpt>
      <trkpt lat="47.78906" lon="-3.63458">
        <ele>20</ele>
        <time>2018-07-18T12:27:57Z</time>
      </trkpt>
      <trkpt lat="47.78904" lon="-3.63453">
        <ele>20</ele>
        <time>2018-07-18T12:27:58Z</time>
      </trkpt>
      <trkpt lat="47.78902" lon="-3.63448">
        <ele>20</ele>
        <time>2018-07-18T12:27:59Z</time>
      </trkpt>
      <trkpt lat="47.789" lon="-3.63443">
        <ele>21</ele>
        <time>2018-07-18T12:28:00Z</time>
      </trkpt>
      <trkpt lat="47.78898" lon="-3.63439">
        <ele>21</ele>
        <time>2018-07-18T12:28:01Z</time>
      </trkpt>
      <trkpt lat="47.78895" lon="-3.63434">
        <ele>21</ele>
        <time>2018-07-18T12:28:02Z</time>
      </trkpt>
      <trkpt lat="47.78893" lon="-3.63431">
        <ele>21</ele>
        <time>2018-07-18T12:28:03Z</time>
      </trkpt>
      <trkpt lat="47.7889" lon="-3.63427">
        <ele>21</ele>
        <time>2018-07-18T12:28:04Z</time>
      </trkpt>
      <trkpt lat="47.78888" lon="-3.63424">
        <ele>21</ele>
        <time>2018-07-18T12:28:05Z</time>
      </trkpt>
      <trkpt lat="47.78885" lon="-3.63423">
        <ele>21</ele>
        <time>2018-07-18T12:28:06Z</time>
      </trkpt>
      <trkpt lat="47.78882" lon="-3.63422">
        <ele>21</ele>
        <time>2018-07-18T12:28:07Z</time>
      </trkpt>
      <trkpt lat="47.78878" lon="-3.63421">
        <ele>22</ele>
        <time>2018-07-18T12:28:08Z</time>
      </trkpt>
      <trkpt lat="47.78875" lon="-3.63419">
        <ele>22</ele>
        <time>2018-07-18T12:28:09Z</time>
      </trkpt>
      <trkpt lat="47.78872" lon="-3.63418">
        <ele>22</ele>
        <time>2018-07-18T12:28:10Z</time>
      </trkpt>
      <trkpt lat="47.78869" lon="-3.63417">
        <ele>23</ele>
        <time>2018-07-18T12:28:11Z</time>
      </trkpt>
      <trkpt lat="47.78866" lon="-3.63416">
        <ele>23</ele>
        <time>2018-07-18T12:28:12Z</time>
      </trkpt>
      <trkpt lat="47.78864" lon="-3.63415">
        <ele>23</ele>
        <time>2018-07-18T12:28:13Z</time>
      </trkpt>
      <trkpt lat="47.78862" lon="-3.63414">
        <ele>24</ele>
        <time>2018-07-18T12:28:14Z</time>
      </trkpt>
      <trkpt lat="47.78862" lon="-3.63414">
        <ele>24</ele>
        <time>2018-07-18T12:28:15Z</time>
      </trkpt>
      <trkpt lat="47.78861" lon="-3.63413">
        <ele>24</ele>
        <time>2018-07-18T12:28:16Z</time>
      </trkpt>
      <trkpt lat="47.78861" lon="-3.63413">
        <ele>24</ele>
        <time>2018-07-18T12:28:17Z</time>
      </trkpt>
      <trkpt lat="47.78861" lon="-3.63413">
        <ele>25</ele>
        <time>2018-07-18T12:28:18Z</time>
      </trkpt>
      <trkpt lat="47.78861" lon="-3.63413">
        <ele>25</ele>
        <time>2018-07-18T12:28:19Z</time>
      </trkpt>
      <trkpt lat="47.78859" lon="-3.63411">
        <ele>27</ele>
        <time>2018-07-18T12:28:20Z</time>
      </trkpt>
      <trkpt lat="47.78858" lon="-3.6341">
        <ele>27</ele>
        <time>2018-07-18T12:28:21Z</time>
      </trkpt>
      <trkpt lat="47.78857" lon="-3.63409">
        <ele>27</ele>
        <time>2018-07-18T12:28:22Z</time>
      </trkpt>
      <trkpt lat="47.78857" lon="-3.63407">
        <ele>27</ele>
        <time>2018-07-18T12:28:23Z</time>
      </trkpt>
      <trkpt lat="47.78856" lon="-3.63405">
        <ele>27</ele>
        <time>2018-07-18T12:28:24Z</time>
      </trkpt>
      <trkpt lat="47.78855" lon="-3.63402">
        <ele>27</ele>
        <time>2018-07-18T12:28:25Z</time>
      </trkpt>
      <trkpt lat="47.78855" lon="-3.634">
        <ele>27</ele>
        <time>2018-07-18T12:28:26Z</time>
      </trkpt>
      <trkpt lat="47.78854" lon="-3.63397">
        <ele>27</ele>
        <time>2018-07-18T12:28:27Z</time>
      </trkpt>
      <trkpt lat="47.78853" lon="-3.63393">
        <ele>27</ele>
        <time>2018-07-18T12:28:28Z</time>
      </trkpt>
      <trkpt lat="47.78852" lon="-3.63389">
        <ele>27</ele>
        <time>2018-07-18T12:28:29Z</time>
      </trkpt>
      <trkpt lat="47.78852" lon="-3.63385">
        <ele>27</ele>
        <time>2018-07-18T12:28:30Z</time>
      </trkpt>
      <trkpt lat="47.78851" lon="-3.63382">
        <ele>27</ele>
        <time>2018-07-18T12:28:31Z</time>
      </trkpt>
      <trkpt lat="47.78851" lon="-3.63378">
        <ele>27</ele>
        <time>2018-07-18T12:28:32Z</time>
      </trkpt>
      <trkpt lat="47.7885" lon="-3.63373">
        <ele>27</ele>
        <time>2018-07-18T12:28:33Z</time>
      </trkpt>
      <trkpt lat="47.7885" lon="-3.6337">
        <ele>27</ele>
        <time>2018-07-18T12:28:34Z</time>
      </trkpt>
      <trkpt lat="47.78849" lon="-3.63365">
        <ele>27</ele>
        <time>2018-07-18T12:28:35Z</time>
      </trkpt>
      <trkpt lat="47.78848" lon="-3.6336">
        <ele>27</ele>
        <time>2018-07-18T12:28:36Z</time>
      </trkpt>
      <trkpt lat="47.78846" lon="-3.63356">
        <ele>27</ele>
        <time>2018-07-18T12:28:37Z</time>
      </trkpt>
      <trkpt lat="47.78845" lon="-3.63352">
        <ele>26</ele>
        <time>2018-07-18T12:28:38Z</time>
      </trkpt>
      <trkpt lat="47.78844" lon="-3.63348">
        <ele>26</ele>
        <time>2018-07-18T12:28:39Z</time>
      </trkpt>
      <trkpt lat="47.78844" lon="-3.63344">
        <ele>26</ele>
        <time>2018-07-18T12:28:40Z</time>
      </trkpt>
      <trkpt lat="47.78845" lon="-3.63339">
        <ele>26</ele>
        <time>2018-07-18T12:28:41Z</time>
      </trkpt>
      <trkpt lat="47.78845" lon="-3.63333">
        <ele>27</ele>
        <time>2018-07-18T12:28:42Z</time>
      </trkpt>
      <trkpt lat="47.78846" lon="-3.63326">
        <ele>27</ele>
        <time>2018-07-18T12:28:43Z</time>
      </trkpt>
      <trkpt lat="47.78846" lon="-3.63319">
        <ele>27</ele>
        <time>2018-07-18T12:28:44Z</time>
      </trkpt>
      <trkpt lat="47.78846" lon="-3.63311">
        <ele>28</ele>
        <time>2018-07-18T12:28:45Z</time>
      </trkpt>
      <trkpt lat="47.78844" lon="-3.63304">
        <ele>28</ele>
        <time>2018-07-18T12:28:46Z</time>
      </trkpt>
      <trkpt lat="47.78842" lon="-3.63298">
        <ele>28</ele>
        <time>2018-07-18T12:28:47Z</time>
      </trkpt>
      <trkpt lat="47.7884" lon="-3.63293">
        <ele>28</ele>
        <time>2018-07-18T12:28:48Z</time>
      </trkpt>
      <trkpt lat="47.78836" lon="-3.6329">
        <ele>29</ele>
        <time>2018-07-18T12:28:49Z</time>
      </trkpt>
      <trkpt lat="47.78832" lon="-3.63289">
        <ele>29</ele>
        <time>2018-07-18T12:28:50Z</time>
      </trkpt>
      <trkpt lat="47.78827" lon="-3.63288">
        <ele>29</ele>
        <time>2018-07-18T12:28:51Z</time>
      </trkpt>
      <trkpt lat="47.78823" lon="-3.63287">
        <ele>29</ele>
        <time>2018-07-18T12:28:52Z</time>
      </trkpt>
      <trkpt lat="47.78818" lon="-3.63286">
        <ele>29</ele>
        <time>2018-07-18T12:28:53Z</time>
      </trkpt>
      <trkpt lat="47.78813" lon="-3.63284">
        <ele>29</ele>
        <time>2018-07-18T12:28:54Z</time>
      </trkpt>
      <trkpt lat="47.78808" lon="-3.63283">
        <ele>29</ele>
        <time>2018-07-18T12:28:55Z</time>
      </trkpt>
      <trkpt lat="47.78803" lon="-3.63282">
        <ele>29</ele>
        <time>2018-07-18T12:28:56Z</time>
      </trkpt>
      <trkpt lat="47.78799" lon="-3.63281">
        <ele>29</ele>
        <time>2018-07-18T12:28:57Z</time>
      </trkpt>
      <trkpt lat="47.78793" lon="-3.6328">
        <ele>29</ele>
        <time>2018-07-18T12:28:58Z</time>
      </trkpt>
      <trkpt lat="47.78789" lon="-3.63279">
        <ele>29</ele>
        <time>2018-07-18T12:28:59Z</time>
      </trkpt>
      <trkpt lat="47.78783" lon="-3.63278">
        <ele>29</ele>
        <time>2018-07-18T12:29:00Z</time>
      </trkpt>
      <trkpt lat="47.78779" lon="-3.63278">
        <ele>29</ele>
        <time>2018-07-18T12:29:01Z</time>
      </trkpt>
      <trkpt lat="47.78774" lon="-3.63277">
        <ele>29</ele>
        <time>2018-07-18T12:29:02Z</time>
      </trkpt>
      <trkpt lat="47.7877" lon="-3.63275">
        <ele>29</ele>
        <time>2018-07-18T12:29:03Z</time>
      </trkpt>
      <trkpt lat="47.78766" lon="-3.63273">
        <ele>29</ele>
        <time>2018-07-18T12:29:04Z</time>
      </trkpt>
      <trkpt lat="47.78762" lon="-3.63269">
        <ele>29</ele>
        <time>2018-07-18T12:29:05Z</time>
      </trkpt>
      <trkpt lat="47.7876" lon="-3.63264">
        <ele>29</ele>
        <time>2018-07-18T12:29:06Z</time>
      </trkpt>
      <trkpt lat="47.78758" lon="-3.63258">
        <ele>29</ele>
        <time>2018-07-18T12:29:07Z</time>
      </trkpt>
      <trkpt lat="47.78756" lon="-3.63251">
        <ele>29</ele>
        <time>2018-07-18T12:29:08Z</time>
      </trkpt>
      <trkpt lat="47.78755" lon="-3.63244">
        <ele>29</ele>
        <time>2018-07-18T12:29:09Z</time>
      </trkpt>
      <trkpt lat="47.78754" lon="-3.63237">
        <ele>29</ele>
        <time>2018-07-18T12:29:10Z</time>
      </trkpt>
      <trkpt lat="47.78753" lon="-3.6323">
        <ele>29</ele>
        <time>2018-07-18T12:29:11Z</time>
      </trkpt>
      <trkpt lat="47.78752" lon="-3.63222">
        <ele>29</ele>
        <time>2018-07-18T12:29:12Z</time>
      </trkpt>
      <trkpt lat="47.78751" lon="-3.63215">
        <ele>29</ele>
        <time>2018-07-18T12:29:13Z</time>
      </trkpt>
      <trkpt lat="47.78749" lon="-3.63208">
        <ele>29</ele>
        <time>2018-07-18T12:29:14Z</time>
      </trkpt>
      <trkpt lat="47.78747" lon="-3.63201">
        <ele>29</ele>
        <time>2018-07-18T12:29:15Z</time>
      </trkpt>
      <trkpt lat="47.78745" lon="-3.63196">
        <ele>29</ele>
        <time>2018-07-18T12:29:16Z</time>
      </trkpt>
      <trkpt lat="47.78743" lon="-3.63191">
        <ele>29</ele>
        <time>2018-07-18T12:29:17Z</time>
      </trkpt>
      <trkpt lat="47.7874" lon="-3.63188">
        <ele>29</ele>
        <time>2018-07-18T12:29:18Z</time>
      </trkpt>
      <trkpt lat="47.78735" lon="-3.63187">
        <ele>29</ele>
        <time>2018-07-18T12:29:19Z</time>
      </trkpt>
      <trkpt lat="47.78731" lon="-3.63189">
        <ele>29</ele>
        <time>2018-07-18T12:29:20Z</time>
      </trkpt>
      <trkpt lat="47.78725" lon="-3.63191">
        <ele>30</ele>
        <time>2018-07-18T12:29:21Z</time>
      </trkpt>
      <trkpt lat="47.7872" lon="-3.63192">
        <ele>30</ele>
        <time>2018-07-18T12:29:22Z</time>
      </trkpt>
      <trkpt lat="47.78714" lon="-3.63195">
        <ele>30</ele>
        <time>2018-07-18T12:29:23Z</time>
      </trkpt>
      <trkpt lat="47.78709" lon="-3.63197">
        <ele>30</ele>
        <time>2018-07-18T12:29:24Z</time>
      </trkpt>
      <trkpt lat="47.78703" lon="-3.63199">
        <ele>30</ele>
        <time>2018-07-18T12:29:25Z</time>
      </trkpt>
      <trkpt lat="47.78698" lon="-3.63201">
        <ele>30</ele>
        <time>2018-07-18T12:29:26Z</time>
      </trkpt>
      <trkpt lat="47.78692" lon="-3.63204">
        <ele>30</ele>
        <time>2018-07-18T12:29:27Z</time>
      </trkpt>
      <trkpt lat="47.78686" lon="-3.63206">
        <ele>30</ele>
        <time>2018-07-18T12:29:28Z</time>
      </trkpt>
      <trkpt lat="47.7868" lon="-3.63208">
        <ele>30</ele>
        <time>2018-07-18T12:29:29Z</time>
      </trkpt>
      <trkpt lat="47.78674" lon="-3.63209">
        <ele>30</ele>
        <time>2018-07-18T12:29:30Z</time>
      </trkpt>
      <trkpt lat="47.78668" lon="-3.63211">
        <ele>30</ele>
        <time>2018-07-18T12:29:31Z</time>
      </trkpt>
      <trkpt lat="47.78662" lon="-3.63212">
        <ele>30</ele>
        <time>2018-07-18T12:29:32Z</time>
      </trkpt>
      <trkpt lat="47.78656" lon="-3.63214">
        <ele>30</ele>
        <time>2018-07-18T12:29:33Z</time>
      </trkpt>
      <trkpt lat="47.78651" lon="-3.63215">
        <ele>30</ele>
        <time>2018-07-18T12:29:34Z</time>
      </trkpt>
      <trkpt lat="47.78645" lon="-3.63218">
        <ele>30</ele>
        <time>2018-07-18T12:29:35Z</time>
      </trkpt>
      <trkpt lat="47.78639" lon="-3.63221">
        <ele>30</ele>
        <time>2018-07-18T12:29:36Z</time>
      </trkpt>
      <trkpt lat="47.78633" lon="-3.63225">
        <ele>30</ele>
        <time>2018-07-18T12:29:37Z</time>
      </trkpt>
      <trkpt lat="47.78628" lon="-3.63229">
        <ele>30</ele>
        <time>2018-07-18T12:29:38Z</time>
      </trkpt>
      <trkpt lat="47.78622" lon="-3.63234">
        <ele>30</ele>
        <time>2018-07-18T12:29:39Z</time>
      </trkpt>
      <trkpt lat="47.78616" lon="-3.63239">
        <ele>29</ele>
        <time>2018-07-18T12:29:40Z</time>
      </trkpt>
      <trkpt lat="47.78609" lon="-3.63243">
        <ele>29</ele>
        <time>2018-07-18T12:29:41Z</time>
      </trkpt>
      <trkpt lat="47.78602" lon="-3.63247">
        <ele>29</ele>
        <time>2018-07-18T12:29:42Z</time>
      </trkpt>
      <trkpt lat="47.78596" lon="-3.6325">
        <ele>29</ele>
        <time>2018-07-18T12:29:43Z</time>
      </trkpt>
      <trkpt lat="47.78592" lon="-3.63253">
        <ele>28</ele>
        <time>2018-07-18T12:29:44Z</time>
      </trkpt>
      <trkpt lat="47.78588" lon="-3.63256">
        <ele>28</ele>
        <time>2018-07-18T12:29:45Z</time>
      </trkpt>
      <trkpt lat="47.78586" lon="-3.63258">
        <ele>28</ele>
        <time>2018-07-18T12:29:46Z</time>
      </trkpt>
      <trkpt lat="47.78586" lon="-3.63258">
        <ele>27</ele>
        <time>2018-07-18T12:29:47Z</time>
      </trkpt>
      <trkpt lat="47.78586" lon="-3.63259">
        <ele>27</ele>
        <time>2018-07-18T12:29:48Z</time>
      </trkpt>
      <trkpt lat="47.78585" lon="-3.63259">
        <ele>27</ele>
        <time>2018-07-18T12:29:49Z</time>
      </trkpt>
      <trkpt lat="47.78585" lon="-3.63259">
        <ele>27</ele>
        <time>2018-07-18T12:29:50Z</time>
      </trkpt>
      <trkpt lat="47.78583" lon="-3.63262">
        <ele>25</ele>
        <time>2018-07-18T12:29:51Z</time>
      </trkpt>
      <trkpt lat="47.78582" lon="-3.63263">
        <ele>25</ele>
        <time>2018-07-18T12:29:52Z</time>
      </trkpt>
      <trkpt lat="47.78581" lon="-3.63264">
        <ele>25</ele>
        <time>2018-07-18T12:29:53Z</time>
      </trkpt>
      <trkpt lat="47.7858" lon="-3.63265">
        <ele>25</ele>
        <time>2018-07-18T12:29:54Z</time>
      </trkpt>
      <trkpt lat="47.78578" lon="-3.63266">
        <ele>25</ele>
        <time>2018-07-18T12:29:55Z</time>
      </trkpt>
      <trkpt lat="47.78577" lon="-3.63267">
        <ele>25</ele>
        <time>2018-07-18T12:29:56Z</time>
      </trkpt>
      <trkpt lat="47.78575" lon="-3.63268">
        <ele>25</ele>
        <time>2018-07-18T12:29:57Z</time>
      </trkpt>
      <trkpt lat="47.78573" lon="-3.6327">
        <ele>25</ele>
        <time>2018-07-18T12:29:58Z</time>
      </trkpt>
      <trkpt lat="47.78572" lon="-3.63271">
        <ele>25</ele>
        <time>2018-07-18T12:29:59Z</time>
      </trkpt>
      <trkpt lat="47.78571" lon="-3.63272">
        <ele>25</ele>
        <time>2018-07-18T12:30:00Z</time>
      </trkpt>
      <trkpt lat="47.7857" lon="-3.63274">
        <ele>25</ele>
        <time>2018-07-18T12:30:01Z</time>
      </trkpt>
      <trkpt lat="47.78568" lon="-3.63276">
        <ele>25</ele>
        <time>2018-07-18T12:30:02Z</time>
      </trkpt>
      <trkpt lat="47.78567" lon="-3.63278">
        <ele>25</ele>
        <time>2018-07-18T12:30:03Z</time>
      </trkpt>
      <trkpt lat="47.78565" lon="-3.63281">
        <ele>25</ele>
        <time>2018-07-18T12:30:04Z</time>
      </trkpt>
      <trkpt lat="47.78563" lon="-3.63284">
        <ele>25</ele>
        <time>2018-07-18T12:30:05Z</time>
      </trkpt>
      <trkpt lat="47.78561" lon="-3.63288">
        <ele>25</ele>
        <time>2018-07-18T12:30:06Z</time>
      </trkpt>
      <trkpt lat="47.78559" lon="-3.63293">
        <ele>25</ele>
        <time>2018-07-18T12:30:07Z</time>
      </trkpt>
      <trkpt lat="47.78557" lon="-3.63298">
        <ele>25</ele>
        <time>2018-07-18T12:30:08Z</time>
      </trkpt>
      <trkpt lat="47.78556" lon="-3.63304">
        <ele>25</ele>
        <time>2018-07-18T12:30:09Z</time>
      </trkpt>
      <trkpt lat="47.78554" lon="-3.63309">
        <ele>25</ele>
        <time>2018-07-18T12:30:10Z</time>
      </trkpt>
      <trkpt lat="47.78552" lon="-3.63315">
        <ele>25</ele>
        <time>2018-07-18T12:30:11Z</time>
      </trkpt>
      <trkpt lat="47.78549" lon="-3.63322">
        <ele>24</ele>
        <time>2018-07-18T12:30:12Z</time>
      </trkpt>
      <trkpt lat="47.78547" lon="-3.63329">
        <ele>24</ele>
        <time>2018-07-18T12:30:13Z</time>
      </trkpt>
      <trkpt lat="47.78546" lon="-3.63336">
        <ele>24</ele>
        <time>2018-07-18T12:30:14Z</time>
      </trkpt>
      <trkpt lat="47.78545" lon="-3.63343">
        <ele>24</ele>
        <time>2018-07-18T12:30:15Z</time>
      </trkpt>
      <trkpt lat="47.78545" lon="-3.63349">
        <ele>23</ele>
        <time>2018-07-18T12:30:16Z</time>
      </trkpt>
      <trkpt lat="47.78545" lon="-3.63357">
        <ele>23</ele>
        <time>2018-07-18T12:30:17Z</time>
      </trkpt>
      <trkpt lat="47.78545" lon="-3.63365">
        <ele>23</ele>
        <time>2018-07-18T12:30:18Z</time>
      </trkpt>
      <trkpt lat="47.78546" lon="-3.63372">
        <ele>23</ele>
        <time>2018-07-18T12:30:19Z</time>
      </trkpt>
      <trkpt lat="47.78547" lon="-3.63379">
        <ele>23</ele>
        <time>2018-07-18T12:30:20Z</time>
      </trkpt>
      <trkpt lat="47.78548" lon="-3.63386">
        <ele>22</ele>
        <time>2018-07-18T12:30:21Z</time>
      </trkpt>
      <trkpt lat="47.7855" lon="-3.63393">
        <ele>22</ele>
        <time>2018-07-18T12:30:22Z</time>
      </trkpt>
      <trkpt lat="47.78551" lon="-3.634">
        <ele>22</ele>
        <time>2018-07-18T12:30:23Z</time>
      </trkpt>
      <trkpt lat="47.78552" lon="-3.63407">
        <ele>22</ele>
        <time>2018-07-18T12:30:24Z</time>
      </trkpt>
      <trkpt lat="47.78553" lon="-3.63413">
        <ele>22</ele>
        <time>2018-07-18T12:30:25Z</time>
      </trkpt>
      <trkpt lat="47.78554" lon="-3.63418">
        <ele>22</ele>
        <time>2018-07-18T12:30:26Z</time>
      </trkpt>
      <trkpt lat="47.78555" lon="-3.63423">
        <ele>22</ele>
        <time>2018-07-18T12:30:27Z</time>
      </trkpt>
      <trkpt lat="47.78556" lon="-3.63428">
        <ele>22</ele>
        <time>2018-07-18T12:30:28Z</time>
      </trkpt>
      <trkpt lat="47.78557" lon="-3.63433">
        <ele>22</ele>
        <time>2018-07-18T12:30:29Z</time>
      </trkpt>
      <trkpt lat="47.78558" lon="-3.63439">
        <ele>22</ele>
        <time>2018-07-18T12:30:30Z</time>
      </trkpt>
      <trkpt lat="47.78559" lon="-3.63445">
        <ele>22</ele>
        <time>2018-07-18T12:30:31Z</time>
      </trkpt>
      <trkpt lat="47.7856" lon="-3.6345">
        <ele>23</ele>
        <time>2018-07-18T12:30:32Z</time>
      </trkpt>
      <trkpt lat="47.78561" lon="-3.63456">
        <ele>23</ele>
        <time>2018-07-18T12:30:33Z</time>
      </trkpt>
      <trkpt lat="47.78563" lon="-3.63462">
        <ele>23</ele>
        <time>2018-07-18T12:30:34Z</time>
      </trkpt>
      <trkpt lat="47.78565" lon="-3.63467">
        <ele>23</ele>
        <time>2018-07-18T12:30:35Z</time>
      </trkpt>
      <trkpt lat="47.78567" lon="-3.63473">
        <ele>23</ele>
        <time>2018-07-18T12:30:36Z</time>
      </trkpt>
      <trkpt lat="47.78569" lon="-3.63479">
        <ele>24</ele>
        <time>2018-07-18T12:30:37Z</time>
      </trkpt>
      <trkpt lat="47.78572" lon="-3.63485">
        <ele>24</ele>
        <time>2018-07-18T12:30:38Z</time>
      </trkpt>
      <trkpt lat="47.78574" lon="-3.63491">
        <ele>24</ele>
        <time>2018-07-18T12:30:39Z</time>
      </trkpt>
      <trkpt lat="47.78576" lon="-3.63497">
        <ele>24</ele>
        <time>2018-07-18T12:30:40Z</time>
      </trkpt>
      <trkpt lat="47.78578" lon="-3.63502">
        <ele>24</ele>
        <time>2018-07-18T12:30:41Z</time>
      </trkpt>
      <trkpt lat="47.7858" lon="-3.63508">
        <ele>25</ele>
        <time>2018-07-18T12:30:42Z</time>
      </trkpt>
      <trkpt lat="47.78582" lon="-3.63514">
        <ele>25</ele>
        <time>2018-07-18T12:30:43Z</time>
      </trkpt>
      <trkpt lat="47.78584" lon="-3.6352">
        <ele>25</ele>
        <time>2018-07-18T12:30:44Z</time>
      </trkpt>
      <trkpt lat="47.78585" lon="-3.63526">
        <ele>26</ele>
        <time>2018-07-18T12:30:45Z</time>
      </trkpt>
      <trkpt lat="47.78587" lon="-3.63532">
        <ele>26</ele>
        <time>2018-07-18T12:30:46Z</time>
      </trkpt>
      <trkpt lat="47.78589" lon="-3.63538">
        <ele>26</ele>
        <time>2018-07-18T12:30:47Z</time>
      </trkpt>
      <trkpt lat="47.7859" lon="-3.63544">
        <ele>26</ele>
        <time>2018-07-18T12:30:48Z</time>
      </trkpt>
      <trkpt lat="47.78592" lon="-3.6355">
        <ele>27</ele>
        <time>2018-07-18T12:30:49Z</time>
      </trkpt>
      <trkpt lat="47.78593" lon="-3.63557">
        <ele>27</ele>
        <time>2018-07-18T12:30:50Z</time>
      </trkpt>
      <trkpt lat="47.78595" lon="-3.63562">
        <ele>27</ele>
        <time>2018-07-18T12:30:51Z</time>
      </trkpt>
      <trkpt lat="47.78597" lon="-3.63568">
        <ele>27</ele>
        <time>2018-07-18T12:30:52Z</time>
      </trkpt>
      <trkpt lat="47.78598" lon="-3.63574">
        <ele>28</ele>
        <time>2018-07-18T12:30:53Z</time>
      </trkpt>
      <trkpt lat="47.78599" lon="-3.6358">
        <ele>28</ele>
        <time>2018-07-18T12:30:54Z</time>
      </trkpt>
      <trkpt lat="47.786" lon="-3.63587">
        <ele>28</ele>
        <time>2018-07-18T12:30:55Z</time>
      </trkpt>
      <trkpt lat="47.78601" lon="-3.63593">
        <ele>28</ele>
        <time>2018-07-18T12:30:56Z</time>
      </trkpt>
      <trkpt lat="47.78602" lon="-3.63599">
        <ele>29</ele>
        <time>2018-07-18T12:30:57Z</time>
      </trkpt>
      <trkpt lat="47.78603" lon="-3.63604">
        <ele>29</ele>
        <time>2018-07-18T12:30:58Z</time>
      </trkpt>
      <trkpt lat="47.78603" lon="-3.63609">
        <ele>29</ele>
        <time>2018-07-18T12:30:59Z</time>
      </trkpt>
      <trkpt lat="47.78602" lon="-3.63613">
        <ele>29</ele>
        <time>2018-07-18T12:31:00Z</time>
      </trkpt>
      <trkpt lat="47.786" lon="-3.63616">
        <ele>29</ele>
        <time>2018-07-18T12:31:01Z</time>
      </trkpt>
      <trkpt lat="47.78596" lon="-3.63618">
        <ele>29</ele>
        <time>2018-07-18T12:31:02Z</time>
      </trkpt>
      <trkpt lat="47.78593" lon="-3.6362">
        <ele>29</ele>
        <time>2018-07-18T12:31:03Z</time>
      </trkpt>
      <trkpt lat="47.78589" lon="-3.63622">
        <ele>29</ele>
        <time>2018-07-18T12:31:04Z</time>
      </trkpt>
      <trkpt lat="47.78585" lon="-3.63625">
        <ele>29</ele>
        <time>2018-07-18T12:31:05Z</time>
      </trkpt>
      <trkpt lat="47.78581" lon="-3.63628">
        <ele>29</ele>
        <time>2018-07-18T12:31:06Z</time>
      </trkpt>
      <trkpt lat="47.78577" lon="-3.63631">
        <ele>29</ele>
        <time>2018-07-18T12:31:07Z</time>
      </trkpt>
      <trkpt lat="47.78573" lon="-3.63634">
        <ele>29</ele>
        <time>2018-07-18T12:31:08Z</time>
      </trkpt>
      <trkpt lat="47.78569" lon="-3.63637">
        <ele>29</ele>
        <time>2018-07-18T12:31:09Z</time>
      </trkpt>
      <trkpt lat="47.78565" lon="-3.6364">
        <ele>29</ele>
        <time>2018-07-18T12:31:10Z</time>
      </trkpt>
      <trkpt lat="47.78561" lon="-3.63643">
        <ele>29</ele>
        <time>2018-07-18T12:31:11Z</time>
      </trkpt>
      <trkpt lat="47.78557" lon="-3.63646">
        <ele>29</ele>
        <time>2018-07-18T12:31:12Z</time>
      </trkpt>
      <trkpt lat="47.78553" lon="-3.6365">
        <ele>29</ele>
        <time>2018-07-18T12:31:13Z</time>
      </trkpt>
      <trkpt lat="47.78549" lon="-3.63654">
        <ele>29</ele>
        <time>2018-07-18T12:31:14Z</time>
      </trkpt>
      <trkpt lat="47.78545" lon="-3.63658">
        <ele>29</ele>
        <time>2018-07-18T12:31:15Z</time>
      </trkpt>
      <trkpt lat="47.78541" lon="-3.63661">
        <ele>29</ele>
        <time>2018-07-18T12:31:16Z</time>
      </trkpt>
      <trkpt lat="47.78537" lon="-3.63665">
        <ele>29</ele>
        <time>2018-07-18T12:31:17Z</time>
      </trkpt>
      <trkpt lat="47.78533" lon="-3.63669">
        <ele>29</ele>
        <time>2018-07-18T12:31:18Z</time>
      </trkpt>
      <trkpt lat="47.78528" lon="-3.63672">
        <ele>29</ele>
        <time>2018-07-18T12:31:19Z</time>
      </trkpt>
      <trkpt lat="47.78524" lon="-3.63675">
        <ele>29</ele>
        <time>2018-07-18T12:31:20Z</time>
      </trkpt>
      <trkpt lat="47.7852" lon="-3.63679">
        <ele>29</ele>
        <time>2018-07-18T12:31:21Z</time>
      </trkpt>
      <trkpt lat="47.78516" lon="-3.63682">
        <ele>29</ele>
        <time>2018-07-18T12:31:22Z</time>
      </trkpt>
      <trkpt lat="47.78512" lon="-3.63685">
        <ele>29</ele>
        <time>2018-07-18T12:31:23Z</time>
      </trkpt>
      <trkpt lat="47.78508" lon="-3.63688">
        <ele>29</ele>
        <time>2018-07-18T12:31:24Z</time>
      </trkpt>
      <trkpt lat="47.78504" lon="-3.63691">
        <ele>29</ele>
        <time>2018-07-18T12:31:25Z</time>
      </trkpt>
      <trkpt lat="47.785" lon="-3.63694">
        <ele>29</ele>
        <time>2018-07-18T12:31:26Z</time>
      </trkpt>
      <trkpt lat="47.78495" lon="-3.63698">
        <ele>29</ele>
        <time>2018-07-18T12:31:27Z</time>
      </trkpt>
      <trkpt lat="47.78491" lon="-3.63702">
        <ele>29</ele>
        <time>2018-07-18T12:31:28Z</time>
      </trkpt>
      <trkpt lat="47.78486" lon="-3.63706">
        <ele>29</ele>
        <time>2018-07-18T12:31:29Z</time>
      </trkpt>
      <trkpt lat="47.78482" lon="-3.63711">
        <ele>29</ele>
        <time>2018-07-18T12:31:30Z</time>
      </trkpt>
      <trkpt lat="47.78479" lon="-3.63714">
        <ele>29</ele>
        <time>2018-07-18T12:31:31Z</time>
      </trkpt>
      <trkpt lat="47.78477" lon="-3.63719">
        <ele>29</ele>
        <time>2018-07-18T12:31:32Z</time>
      </trkpt>
      <trkpt lat="47.78473" lon="-3.63724">
        <ele>29</ele>
        <time>2018-07-18T12:31:33Z</time>
      </trkpt>
      <trkpt lat="47.78469" lon="-3.6373">
        <ele>29</ele>
        <time>2018-07-18T12:31:34Z</time>
      </trkpt>
      <trkpt lat="47.78465" lon="-3.63736">
        <ele>29</ele>
        <time>2018-07-18T12:31:35Z</time>
      </trkpt>
      <trkpt lat="47.78462" lon="-3.63742">
        <ele>29</ele>
        <time>2018-07-18T12:31:36Z</time>
      </trkpt>
      <trkpt lat="47.78458" lon="-3.63748">
        <ele>29</ele>
        <time>2018-07-18T12:31:37Z</time>
      </trkpt>
      <trkpt lat="47.78454" lon="-3.63753">
        <ele>29</ele>
        <time>2018-07-18T12:31:38Z</time>
      </trkpt>
      <trkpt lat="47.78452" lon="-3.63758">
        <ele>29</ele>
        <time>2018-07-18T12:31:39Z</time>
      </trkpt>
      <trkpt lat="47.78449" lon="-3.63763">
        <ele>29</ele>
        <time>2018-07-18T12:31:40Z</time>
      </trkpt>
      <trkpt lat="47.78446" lon="-3.63768">
        <ele>29</ele>
        <time>2018-07-18T12:31:41Z</time>
      </trkpt>
      <trkpt lat="47.78442" lon="-3.63773">
        <ele>29</ele>
        <time>2018-07-18T12:31:42Z</time>
      </trkpt>
      <trkpt lat="47.78438" lon="-3.63777">
        <ele>29</ele>
        <time>2018-07-18T12:31:43Z</time>
      </trkpt>
      <trkpt lat="47.78435" lon="-3.63783">
        <ele>29</ele>
        <time>2018-07-18T12:31:44Z</time>
      </trkpt>
      <trkpt lat="47.78431" lon="-3.63787">
        <ele>29</ele>
        <time>2018-07-18T12:31:45Z</time>
      </trkpt>
      <trkpt lat="47.78427" lon="-3.63792">
        <ele>29</ele>
        <time>2018-07-18T12:31:46Z</time>
      </trkpt>
      <trkpt lat="47.78423" lon="-3.63797">
        <ele>29</ele>
        <time>2018-07-18T12:31:47Z</time>
      </trkpt>
      <trkpt lat="47.78419" lon="-3.63803">
        <ele>29</ele>
        <time>2018-07-18T12:31:48Z</time>
      </trkpt>
      <trkpt lat="47.78416" lon="-3.63808">
        <ele>29</ele>
        <time>2018-07-18T12:31:49Z</time>
      </trkpt>
      <trkpt lat="47.78412" lon="-3.63813">
        <ele>29</ele>
        <time>2018-07-18T12:31:50Z</time>
      </trkpt>
      <trkpt lat="47.78408" lon="-3.63817">
        <ele>29</ele>
        <time>2018-07-18T12:31:51Z</time>
      </trkpt>
      <trkpt lat="47.78404" lon="-3.63821">
        <ele>29</ele>
        <time>2018-07-18T12:31:52Z</time>
      </trkpt>
      <trkpt lat="47.784" lon="-3.63826">
        <ele>29</ele>
        <time>2018-07-18T12:31:53Z</time>
      </trkpt>
      <trkpt lat="47.78396" lon="-3.6383">
        <ele>29</ele>
        <time>2018-07-18T12:31:54Z</time>
      </trkpt>
      <trkpt lat="47.78392" lon="-3.63834">
        <ele>29</ele>
        <time>2018-07-18T12:31:55Z</time>
      </trkpt>
      <trkpt lat="47.78387" lon="-3.63838">
        <ele>28</ele>
        <time>2018-07-18T12:31:56Z</time>
      </trkpt>
      <trkpt lat="47.78383" lon="-3.63842">
        <ele>28</ele>
        <time>2018-07-18T12:31:57Z</time>
      </trkpt>
      <trkpt lat="47.78378" lon="-3.63847">
        <ele>28</ele>
        <time>2018-07-18T12:31:58Z</time>
      </trkpt>
      <trkpt lat="47.78374" lon="-3.63852">
        <ele>28</ele>
        <time>2018-07-18T12:31:59Z</time>
      </trkpt>
      <trkpt lat="47.7837" lon="-3.63856">
        <ele>28</ele>
        <time>2018-07-18T12:32:00Z</time>
      </trkpt>
      <trkpt lat="47.78366" lon="-3.63861">
        <ele>28</ele>
        <time>2018-07-18T12:32:01Z</time>
      </trkpt>
      <trkpt lat="47.78361" lon="-3.63867">
        <ele>28</ele>
        <time>2018-07-18T12:32:02Z</time>
      </trkpt>
      <trkpt lat="47.78357" lon="-3.63872">
        <ele>28</ele>
        <time>2018-07-18T12:32:03Z</time>
      </trkpt>
      <trkpt lat="47.78353" lon="-3.63878">
        <ele>28</ele>
        <time>2018-07-18T12:32:04Z</time>
      </trkpt>
      <trkpt lat="47.78349" lon="-3.63884">
        <ele>28</ele>
        <time>2018-07-18T12:32:05Z</time>
      </trkpt>
      <trkpt lat="47.78345" lon="-3.6389">
        <ele>28</ele>
        <time>2018-07-18T12:32:06Z</time>
      </trkpt>
      <trkpt lat="47.78341" lon="-3.63895">
        <ele>27</ele>
        <time>2018-07-18T12:32:07Z</time>
      </trkpt>
      <trkpt lat="47.78338" lon="-3.63901">
        <ele>27</ele>
        <time>2018-07-18T12:32:08Z</time>
      </trkpt>
      <trkpt lat="47.78335" lon="-3.63908">
        <ele>27</ele>
        <time>2018-07-18T12:32:09Z</time>
      </trkpt>
      <trkpt lat="47.78331" lon="-3.63914">
        <ele>27</ele>
        <time>2018-07-18T12:32:10Z</time>
      </trkpt>
      <trkpt lat="47.78328" lon="-3.63921">
        <ele>27</ele>
        <time>2018-07-18T12:32:11Z</time>
      </trkpt>
      <trkpt lat="47.78325" lon="-3.63927">
        <ele>27</ele>
        <time>2018-07-18T12:32:12Z</time>
      </trkpt>
      <trkpt lat="47.78322" lon="-3.63932">
        <ele>27</ele>
        <time>2018-07-18T12:32:13Z</time>
      </trkpt>
      <trkpt lat="47.78319" lon="-3.63938">
        <ele>27</ele>
        <time>2018-07-18T12:32:14Z</time>
      </trkpt>
      <trkpt lat="47.78317" lon="-3.63944">
        <ele>27</ele>
        <time>2018-07-18T12:32:15Z</time>
      </trkpt>
      <trkpt lat="47.78315" lon="-3.63949">
        <ele>27</ele>
        <time>2018-07-18T12:32:16Z</time>
      </trkpt>
      <trkpt lat="47.78313" lon="-3.63955">
        <ele>27</ele>
        <time>2018-07-18T12:32:17Z</time>
      </trkpt>
      <trkpt lat="47.78312" lon="-3.63963">
        <ele>28</ele>
        <time>2018-07-18T12:32:18Z</time>
      </trkpt>
      <trkpt lat="47.78311" lon="-3.6397">
        <ele>28</ele>
        <time>2018-07-18T12:32:19Z</time>
      </trkpt>
      <trkpt lat="47.78311" lon="-3.63977">
        <ele>28</ele>
        <time>2018-07-18T12:32:20Z</time>
      </trkpt>
      <trkpt lat="47.7831" lon="-3.63984">
        <ele>28</ele>
        <time>2018-07-18T12:32:21Z</time>
      </trkpt>
      <trkpt lat="47.78309" lon="-3.63992">
        <ele>28</ele>
        <time>2018-07-18T12:32:22Z</time>
      </trkpt>
      <trkpt lat="47.78308" lon="-3.63998">
        <ele>28</ele>
        <time>2018-07-18T12:32:23Z</time>
      </trkpt>
      <trkpt lat="47.78306" lon="-3.64004">
        <ele>28</ele>
        <time>2018-07-18T12:32:24Z</time>
      </trkpt>
      <trkpt lat="47.78304" lon="-3.6401">
        <ele>28</ele>
        <time>2018-07-18T12:32:25Z</time>
      </trkpt>
      <trkpt lat="47.78303" lon="-3.64016">
        <ele>28</ele>
        <time>2018-07-18T12:32:26Z</time>
      </trkpt>
      <trkpt lat="47.78301" lon="-3.64022">
        <ele>28</ele>
        <time>2018-07-18T12:32:27Z</time>
      </trkpt>
      <trkpt lat="47.78298" lon="-3.64028">
        <ele>28</ele>
        <time>2018-07-18T12:32:28Z</time>
      </trkpt>
      <trkpt lat="47.78296" lon="-3.64035">
        <ele>28</ele>
        <time>2018-07-18T12:32:29Z</time>
      </trkpt>
      <trkpt lat="47.78294" lon="-3.64041">
        <ele>28</ele>
        <time>2018-07-18T12:32:30Z</time>
      </trkpt>
      <trkpt lat="47.78291" lon="-3.64048">
        <ele>28</ele>
        <time>2018-07-18T12:32:31Z</time>
      </trkpt>
      <trkpt lat="47.78289" lon="-3.64054">
        <ele>28</ele>
        <time>2018-07-18T12:32:32Z</time>
      </trkpt>
      <trkpt lat="47.78287" lon="-3.6406">
        <ele>28</ele>
        <time>2018-07-18T12:32:33Z</time>
      </trkpt>
      <trkpt lat="47.78285" lon="-3.64067">
        <ele>28</ele>
        <time>2018-07-18T12:32:34Z</time>
      </trkpt>
      <trkpt lat="47.78284" lon="-3.64073">
        <ele>27</ele>
        <time>2018-07-18T12:32:35Z</time>
      </trkpt>
      <trkpt lat="47.78283" lon="-3.64078">
        <ele>27</ele>
        <time>2018-07-18T12:32:36Z</time>
      </trkpt>
      <trkpt lat="47.78282" lon="-3.64081">
        <ele>27</ele>
        <time>2018-07-18T12:32:37Z</time>
      </trkpt>
      <trkpt lat="47.78281" lon="-3.64084">
        <ele>27</ele>
        <time>2018-07-18T12:32:38Z</time>
      </trkpt>
      <trkpt lat="47.78281" lon="-3.64087">
        <ele>27</ele>
        <time>2018-07-18T12:32:39Z</time>
      </trkpt>
      <trkpt lat="47.7828" lon="-3.6409">
        <ele>27</ele>
        <time>2018-07-18T12:32:40Z</time>
      </trkpt>
      <trkpt lat="47.78278" lon="-3.64094">
        <ele>27</ele>
        <time>2018-07-18T12:32:41Z</time>
      </trkpt>
      <trkpt lat="47.78277" lon="-3.64098">
        <ele>27</ele>
        <time>2018-07-18T12:32:42Z</time>
      </trkpt>
      <trkpt lat="47.78276" lon="-3.64103">
        <ele>27</ele>
        <time>2018-07-18T12:32:43Z</time>
      </trkpt>
      <trkpt lat="47.78275" lon="-3.64108">
        <ele>28</ele>
        <time>2018-07-18T12:32:44Z</time>
      </trkpt>
      <trkpt lat="47.78274" lon="-3.64115">
        <ele>28</ele>
        <time>2018-07-18T12:32:45Z</time>
      </trkpt>
      <trkpt lat="47.78272" lon="-3.64121">
        <ele>28</ele>
        <time>2018-07-18T12:32:46Z</time>
      </trkpt>
      <trkpt lat="47.78271" lon="-3.64128">
        <ele>28</ele>
        <time>2018-07-18T12:32:47Z</time>
      </trkpt>
      <trkpt lat="47.78269" lon="-3.64135">
        <ele>28</ele>
        <time>2018-07-18T12:32:48Z</time>
      </trkpt>
      <trkpt lat="47.78268" lon="-3.64142">
        <ele>28</ele>
        <time>2018-07-18T12:32:49Z</time>
      </trkpt>
      <trkpt lat="47.78266" lon="-3.64149">
        <ele>28</ele>
        <time>2018-07-18T12:32:50Z</time>
      </trkpt>
      <trkpt lat="47.78264" lon="-3.64157">
        <ele>28</ele>
        <time>2018-07-18T12:32:51Z</time>
      </trkpt>
      <trkpt lat="47.78262" lon="-3.64164">
        <ele>29</ele>
        <time>2018-07-18T12:32:52Z</time>
      </trkpt>
      <trkpt lat="47.78259" lon="-3.64171">
        <ele>29</ele>
        <time>2018-07-18T12:32:53Z</time>
      </trkpt>
      <trkpt lat="47.78257" lon="-3.64177">
        <ele>29</ele>
        <time>2018-07-18T12:32:54Z</time>
      </trkpt>
      <trkpt lat="47.78254" lon="-3.64184">
        <ele>29</ele>
        <time>2018-07-18T12:32:55Z</time>
      </trkpt>
      <trkpt lat="47.78251" lon="-3.6419">
        <ele>29</ele>
        <time>2018-07-18T12:32:56Z</time>
      </trkpt>
      <trkpt lat="47.78248" lon="-3.64196">
        <ele>29</ele>
        <time>2018-07-18T12:32:57Z</time>
      </trkpt>
      <trkpt lat="47.78244" lon="-3.64202">
        <ele>29</ele>
        <time>2018-07-18T12:32:58Z</time>
      </trkpt>
      <trkpt lat="47.7824" lon="-3.64208">
        <ele>29</ele>
        <time>2018-07-18T12:32:59Z</time>
      </trkpt>
      <trkpt lat="47.78236" lon="-3.64214">
        <ele>29</ele>
        <time>2018-07-18T12:33:00Z</time>
      </trkpt>
      <trkpt lat="47.78232" lon="-3.6422">
        <ele>29</ele>
        <time>2018-07-18T12:33:01Z</time>
      </trkpt>
      <trkpt lat="47.78228" lon="-3.64225">
        <ele>29</ele>
        <time>2018-07-18T12:33:02Z</time>
      </trkpt>
      <trkpt lat="47.78223" lon="-3.6423">
        <ele>29</ele>
        <time>2018-07-18T12:33:03Z</time>
      </trkpt>
      <trkpt lat="47.78219" lon="-3.64235">
        <ele>29</ele>
        <time>2018-07-18T12:33:04Z</time>
      </trkpt>
      <trkpt lat="47.78215" lon="-3.6424">
        <ele>30</ele>
        <time>2018-07-18T12:33:05Z</time>
      </trkpt>
      <trkpt lat="47.78211" lon="-3.64245">
        <ele>30</ele>
        <time>2018-07-18T12:33:06Z</time>
      </trkpt>
      <trkpt lat="47.78206" lon="-3.6425">
        <ele>29</ele>
        <time>2018-07-18T12:33:07Z</time>
      </trkpt>
      <trkpt lat="47.78202" lon="-3.64256">
        <ele>29</ele>
        <time>2018-07-18T12:33:08Z</time>
      </trkpt>
      <trkpt lat="47.78199" lon="-3.64261">
        <ele>29</ele>
        <time>2018-07-18T12:33:09Z</time>
      </trkpt>
      <trkpt lat="47.78196" lon="-3.64268">
        <ele>29</ele>
        <time>2018-07-18T12:33:10Z</time>
      </trkpt>
      <trkpt lat="47.78193" lon="-3.64274">
        <ele>29</ele>
        <time>2018-07-18T12:33:11Z</time>
      </trkpt>
      <trkpt lat="47.7819" lon="-3.64281">
        <ele>29</ele>
        <time>2018-07-18T12:33:12Z</time>
      </trkpt>
      <trkpt lat="47.78189" lon="-3.64288">
        <ele>29</ele>
        <time>2018-07-18T12:33:13Z</time>
      </trkpt>
      <trkpt lat="47.78187" lon="-3.64296">
        <ele>29</ele>
        <time>2018-07-18T12:33:14Z</time>
      </trkpt>
      <trkpt lat="47.78186" lon="-3.64304">
        <ele>29</ele>
        <time>2018-07-18T12:33:15Z</time>
      </trkpt>
      <trkpt lat="47.78185" lon="-3.64312">
        <ele>29</ele>
        <time>2018-07-18T12:33:16Z</time>
      </trkpt>
      <trkpt lat="47.78185" lon="-3.6432">
        <ele>28</ele>
        <time>2018-07-18T12:33:17Z</time>
      </trkpt>
      <trkpt lat="47.78184" lon="-3.64328">
        <ele>28</ele>
        <time>2018-07-18T12:33:18Z</time>
      </trkpt>
      <trkpt lat="47.78184" lon="-3.64337">
        <ele>28</ele>
        <time>2018-07-18T12:33:19Z</time>
      </trkpt>
      <trkpt lat="47.78184" lon="-3.64345">
        <ele>28</ele>
        <time>2018-07-18T12:33:20Z</time>
      </trkpt>
      <trkpt lat="47.78183" lon="-3.64354">
        <ele>28</ele>
        <time>2018-07-18T12:33:21Z</time>
      </trkpt>
      <trkpt lat="47.78183" lon="-3.64363">
        <ele>28</ele>
        <time>2018-07-18T12:33:22Z</time>
      </trkpt>
      <trkpt lat="47.78183" lon="-3.64372">
        <ele>28</ele>
        <time>2018-07-18T12:33:23Z</time>
      </trkpt>
      <trkpt lat="47.78182" lon="-3.64381">
        <ele>28</ele>
        <time>2018-07-18T12:33:24Z</time>
      </trkpt>
      <trkpt lat="47.78182" lon="-3.6439">
        <ele>28</ele>
        <time>2018-07-18T12:33:25Z</time>
      </trkpt>
      <trkpt lat="47.7818" lon="-3.644">
        <ele>28</ele>
        <time>2018-07-18T12:33:26Z</time>
      </trkpt>
      <trkpt lat="47.78179" lon="-3.64409">
        <ele>28</ele>
        <time>2018-07-18T12:33:27Z</time>
      </trkpt>
      <trkpt lat="47.78178" lon="-3.64418">
        <ele>28</ele>
        <time>2018-07-18T12:33:28Z</time>
      </trkpt>
      <trkpt lat="47.78176" lon="-3.64427">
        <ele>28</ele>
        <time>2018-07-18T12:33:29Z</time>
      </trkpt>
      <trkpt lat="47.78174" lon="-3.64435">
        <ele>28</ele>
        <time>2018-07-18T12:33:30Z</time>
      </trkpt>
      <trkpt lat="47.78172" lon="-3.64444">
        <ele>28</ele>
        <time>2018-07-18T12:33:31Z</time>
      </trkpt>
      <trkpt lat="47.7817" lon="-3.64452">
        <ele>28</ele>
        <time>2018-07-18T12:33:32Z</time>
      </trkpt>
      <trkpt lat="47.78169" lon="-3.6446">
        <ele>28</ele>
        <time>2018-07-18T12:33:33Z</time>
      </trkpt>
      <trkpt lat="47.78167" lon="-3.64468">
        <ele>28</ele>
        <time>2018-07-18T12:33:34Z</time>
      </trkpt>
      <trkpt lat="47.78166" lon="-3.64476">
        <ele>28</ele>
        <time>2018-07-18T12:33:35Z</time>
      </trkpt>
      <trkpt lat="47.78166" lon="-3.64481">
        <ele>28</ele>
        <time>2018-07-18T12:33:36Z</time>
      </trkpt>
      <trkpt lat="47.78166" lon="-3.64486">
        <ele>28</ele>
        <time>2018-07-18T12:33:37Z</time>
      </trkpt>
      <trkpt lat="47.78166" lon="-3.64491">
        <ele>28</ele>
        <time>2018-07-18T12:33:38Z</time>
      </trkpt>
      <trkpt lat="47.78166" lon="-3.64496">
        <ele>27</ele>
        <time>2018-07-18T12:33:39Z</time>
      </trkpt>
      <trkpt lat="47.78166" lon="-3.64502">
        <ele>27</ele>
        <time>2018-07-18T12:33:40Z</time>
      </trkpt>
      <trkpt lat="47.78165" lon="-3.64508">
        <ele>27</ele>
        <time>2018-07-18T12:33:41Z</time>
      </trkpt>
      <trkpt lat="47.78165" lon="-3.64515">
        <ele>27</ele>
        <time>2018-07-18T12:33:42Z</time>
      </trkpt>
      <trkpt lat="47.78165" lon="-3.64523">
        <ele>27</ele>
        <time>2018-07-18T12:33:43Z</time>
      </trkpt>
      <trkpt lat="47.78164" lon="-3.6453">
        <ele>27</ele>
        <time>2018-07-18T12:33:44Z</time>
      </trkpt>
      <trkpt lat="47.78163" lon="-3.64538">
        <ele>27</ele>
        <time>2018-07-18T12:33:45Z</time>
      </trkpt>
      <trkpt lat="47.78162" lon="-3.64546">
        <ele>27</ele>
        <time>2018-07-18T12:33:46Z</time>
      </trkpt>
      <trkpt lat="47.78162" lon="-3.64554">
        <ele>27</ele>
        <time>2018-07-18T12:33:47Z</time>
      </trkpt>
      <trkpt lat="47.78161" lon="-3.64561">
        <ele>27</ele>
        <time>2018-07-18T12:33:48Z</time>
      </trkpt>
      <trkpt lat="47.7816" lon="-3.64567">
        <ele>27</ele>
        <time>2018-07-18T12:33:49Z</time>
      </trkpt>
      <trkpt lat="47.7816" lon="-3.64575">
        <ele>27</ele>
        <time>2018-07-18T12:33:50Z</time>
      </trkpt>
      <trkpt lat="47.78159" lon="-3.64584">
        <ele>27</ele>
        <time>2018-07-18T12:33:51Z</time>
      </trkpt>
      <trkpt lat="47.78159" lon="-3.64592">
        <ele>27</ele>
        <time>2018-07-18T12:33:52Z</time>
      </trkpt>
      <trkpt lat="47.78159" lon="-3.64601">
        <ele>27</ele>
        <time>2018-07-18T12:33:53Z</time>
      </trkpt>
      <trkpt lat="47.78158" lon="-3.64609">
        <ele>27</ele>
        <time>2018-07-18T12:33:54Z</time>
      </trkpt>
      <trkpt lat="47.78158" lon="-3.64617">
        <ele>28</ele>
        <time>2018-07-18T12:33:55Z</time>
      </trkpt>
      <trkpt lat="47.78158" lon="-3.64626">
        <ele>28</ele>
        <time>2018-07-18T12:33:56Z</time>
      </trkpt>
      <trkpt lat="47.78158" lon="-3.64634">
        <ele>28</ele>
        <time>2018-07-18T12:33:57Z</time>
      </trkpt>
      <trkpt lat="47.78158" lon="-3.64643">
        <ele>28</ele>
        <time>2018-07-18T12:33:58Z</time>
      </trkpt>
      <trkpt lat="47.78158" lon="-3.64651">
        <ele>28</ele>
        <time>2018-07-18T12:33:59Z</time>
      </trkpt>
      <trkpt lat="47.78158" lon="-3.64659">
        <ele>28</ele>
        <time>2018-07-18T12:34:00Z</time>
      </trkpt>
      <trkpt lat="47.78159" lon="-3.64667">
        <ele>27</ele>
        <time>2018-07-18T12:34:01Z</time>
      </trkpt>
      <trkpt lat="47.78159" lon="-3.64675">
        <ele>27</ele>
        <time>2018-07-18T12:34:02Z</time>
      </trkpt>
      <trkpt lat="47.78159" lon="-3.64683">
        <ele>27</ele>
        <time>2018-07-18T12:34:03Z</time>
      </trkpt>
      <trkpt lat="47.78159" lon="-3.6469">
        <ele>27</ele>
        <time>2018-07-18T12:34:04Z</time>
      </trkpt>
      <trkpt lat="47.78157" lon="-3.64698">
        <ele>27</ele>
        <time>2018-07-18T12:34:05Z</time>
      </trkpt>
      <trkpt lat="47.78155" lon="-3.64706">
        <ele>27</ele>
        <time>2018-07-18T12:34:06Z</time>
      </trkpt>
      <trkpt lat="47.78153" lon="-3.64715">
        <ele>27</ele>
        <time>2018-07-18T12:34:07Z</time>
      </trkpt>
      <trkpt lat="47.7815" lon="-3.64723">
        <ele>26</ele>
        <time>2018-07-18T12:34:08Z</time>
      </trkpt>
      <trkpt lat="47.78146" lon="-3.64732">
        <ele>26</ele>
        <time>2018-07-18T12:34:09Z</time>
      </trkpt>
      <trkpt lat="47.78144" lon="-3.64741">
        <ele>26</ele>
        <time>2018-07-18T12:34:10Z</time>
      </trkpt>
      <trkpt lat="47.78143" lon="-3.64751">
        <ele>25</ele>
        <time>2018-07-18T12:34:11Z</time>
      </trkpt>
      <trkpt lat="47.78142" lon="-3.6476">
        <ele>25</ele>
        <time>2018-07-18T12:34:12Z</time>
      </trkpt>
      <trkpt lat="47.7814" lon="-3.6477">
        <ele>24</ele>
        <time>2018-07-18T12:34:13Z</time>
      </trkpt>
      <trkpt lat="47.78139" lon="-3.6478">
        <ele>24</ele>
        <time>2018-07-18T12:34:14Z</time>
      </trkpt>
      <trkpt lat="47.78137" lon="-3.6479">
        <ele>23</ele>
        <time>2018-07-18T12:34:15Z</time>
      </trkpt>
      <trkpt lat="47.78135" lon="-3.648">
        <ele>23</ele>
        <time>2018-07-18T12:34:16Z</time>
      </trkpt>
      <trkpt lat="47.78132" lon="-3.64808">
        <ele>22</ele>
        <time>2018-07-18T12:34:17Z</time>
      </trkpt>
      <trkpt lat="47.78127" lon="-3.64815">
        <ele>22</ele>
        <time>2018-07-18T12:34:18Z</time>
      </trkpt>
      <trkpt lat="47.78122" lon="-3.64821">
        <ele>22</ele>
        <time>2018-07-18T12:34:19Z</time>
      </trkpt>
      <trkpt lat="47.78116" lon="-3.64825">
        <ele>21</ele>
        <time>2018-07-18T12:34:20Z</time>
      </trkpt>
      <trkpt lat="47.78111" lon="-3.64828">
        <ele>21</ele>
        <time>2018-07-18T12:34:21Z</time>
      </trkpt>
      <trkpt lat="47.78106" lon="-3.64832">
        <ele>21</ele>
        <time>2018-07-18T12:34:22Z</time>
      </trkpt>
      <trkpt lat="47.78101" lon="-3.64834">
        <ele>21</ele>
        <time>2018-07-18T12:34:23Z</time>
      </trkpt>
      <trkpt lat="47.78095" lon="-3.64836">
        <ele>21</ele>
        <time>2018-07-18T12:34:24Z</time>
      </trkpt>
      <trkpt lat="47.7809" lon="-3.64836">
        <ele>21</ele>
        <time>2018-07-18T12:34:25Z</time>
      </trkpt>
      <trkpt lat="47.78085" lon="-3.64834">
        <ele>21</ele>
        <time>2018-07-18T12:34:26Z</time>
      </trkpt>
      <trkpt lat="47.7808" lon="-3.64833">
        <ele>21</ele>
        <time>2018-07-18T12:34:27Z</time>
      </trkpt>
      <trkpt lat="47.78075" lon="-3.64832">
        <ele>21</ele>
        <time>2018-07-18T12:34:28Z</time>
      </trkpt>
      <trkpt lat="47.7807" lon="-3.64832">
        <ele>21</ele>
        <time>2018-07-18T12:34:29Z</time>
      </trkpt>
      <trkpt lat="47.78065" lon="-3.64832">
        <ele>21</ele>
        <time>2018-07-18T12:34:30Z</time>
      </trkpt>
      <trkpt lat="47.78061" lon="-3.64833">
        <ele>21</ele>
        <time>2018-07-18T12:34:31Z</time>
      </trkpt>
      <trkpt lat="47.78056" lon="-3.64834">
        <ele>20</ele>
        <time>2018-07-18T12:34:32Z</time>
      </trkpt>
      <trkpt lat="47.78052" lon="-3.64837">
        <ele>20</ele>
        <time>2018-07-18T12:34:33Z</time>
      </trkpt>
      <trkpt lat="47.78048" lon="-3.6484">
        <ele>20</ele>
        <time>2018-07-18T12:34:34Z</time>
      </trkpt>
      <trkpt lat="47.78044" lon="-3.64845">
        <ele>20</ele>
        <time>2018-07-18T12:34:35Z</time>
      </trkpt>
      <trkpt lat="47.7804" lon="-3.6485">
        <ele>20</ele>
        <time>2018-07-18T12:34:36Z</time>
      </trkpt>
      <trkpt lat="47.78037" lon="-3.64854">
        <ele>19</ele>
        <time>2018-07-18T12:34:37Z</time>
      </trkpt>
      <trkpt lat="47.78033" lon="-3.64859">
        <ele>19</ele>
        <time>2018-07-18T12:34:38Z</time>
      </trkpt>
      <trkpt lat="47.7803" lon="-3.64863">
        <ele>19</ele>
        <time>2018-07-18T12:34:39Z</time>
      </trkpt>
      <trkpt lat="47.78028" lon="-3.64866">
        <ele>19</ele>
        <time>2018-07-18T12:34:40Z</time>
      </trkpt>
      <trkpt lat="47.78026" lon="-3.64867">
        <ele>19</ele>
        <time>2018-07-18T12:34:41Z</time>
      </trkpt>
      <trkpt lat="47.78023" lon="-3.64868">
        <ele>18</ele>
        <time>2018-07-18T12:34:42Z</time>
      </trkpt>
      <trkpt lat="47.78021" lon="-3.64868">
        <ele>18</ele>
        <time>2018-07-18T12:34:43Z</time>
      </trkpt>
      <trkpt lat="47.78019" lon="-3.64868">
        <ele>18</ele>
        <time>2018-07-18T12:34:44Z</time>
      </trkpt>
      <trkpt lat="47.78018" lon="-3.64869">
        <ele>18</ele>
        <time>2018-07-18T12:34:45Z</time>
      </trkpt>
      <trkpt lat="47.78018" lon="-3.64869">
        <ele>18</ele>
        <time>2018-07-18T12:34:46Z</time>
      </trkpt>
      <trkpt lat="47.78018" lon="-3.64869">
        <ele>18</ele>
        <time>2018-07-18T12:34:47Z</time>
      </trkpt>
      <trkpt lat="47.78018" lon="-3.64869">
        <ele>18</ele>
        <time>2018-07-18T12:34:48Z</time>
      </trkpt>
      <trkpt lat="47.78018" lon="-3.64869">
        <ele>18</ele>
        <time>2018-07-18T12:34:49Z</time>
      </trkpt>
      <trkpt lat="47.78016" lon="-3.6487">
        <ele>18</ele>
        <time>2018-07-18T12:34:50Z</time>
      </trkpt>
      <trkpt lat="47.78014" lon="-3.6487">
        <ele>18</ele>
        <time>2018-07-18T12:34:51Z</time>
      </trkpt>
      <trkpt lat="47.78012" lon="-3.64869">
        <ele>18</ele>
        <time>2018-07-18T12:34:52Z</time>
      </trkpt>
      <trkpt lat="47.78009" lon="-3.64868">
        <ele>18</ele>
        <time>2018-07-18T12:34:53Z</time>
      </trkpt>
      <trkpt lat="47.78006" lon="-3.64868">
        <ele>18</ele>
        <time>2018-07-18T12:34:54Z</time>
      </trkpt>
      <trkpt lat="47.78002" lon="-3.64867">
        <ele>18</ele>
        <time>2018-07-18T12:34:55Z</time>
      </trkpt>
      <trkpt lat="47.77999" lon="-3.64867">
        <ele>18</ele>
        <time>2018-07-18T12:34:56Z</time>
      </trkpt>
      <trkpt lat="47.77996" lon="-3.64867">
        <ele>18</ele>
        <time>2018-07-18T12:34:57Z</time>
      </trkpt>
      <trkpt lat="47.77993" lon="-3.64867">
        <ele>18</ele>
        <time>2018-07-18T12:34:58Z</time>
      </trkpt>
      <trkpt lat="47.77989" lon="-3.64868">
        <ele>18</ele>
        <time>2018-07-18T12:34:59Z</time>
      </trkpt>
      <trkpt lat="47.77987" lon="-3.64869">
        <ele>19</ele>
        <time>2018-07-18T12:35:00Z</time>
      </trkpt>
      <trkpt lat="47.77985" lon="-3.6487">
        <ele>19</ele>
        <time>2018-07-18T12:35:01Z</time>
      </trkpt>
      <trkpt lat="47.77983" lon="-3.64873">
        <ele>19</ele>
        <time>2018-07-18T12:35:02Z</time>
      </trkpt>
      <trkpt lat="47.77982" lon="-3.64875">
        <ele>19</ele>
        <time>2018-07-18T12:35:03Z</time>
      </trkpt>
      <trkpt lat="47.77981" lon="-3.64879">
        <ele>19</ele>
        <time>2018-07-18T12:35:04Z</time>
      </trkpt>
      <trkpt lat="47.7798" lon="-3.64882">
        <ele>18</ele>
        <time>2018-07-18T12:35:05Z</time>
      </trkpt>
      <trkpt lat="47.77978" lon="-3.64885">
        <ele>18</ele>
        <time>2018-07-18T12:35:06Z</time>
      </trkpt>
      <trkpt lat="47.77975" lon="-3.64886">
        <ele>18</ele>
        <time>2018-07-18T12:35:07Z</time>
      </trkpt>
      <trkpt lat="47.77973" lon="-3.64884">
        <ele>18</ele>
        <time>2018-07-18T12:35:08Z</time>
      </trkpt>
      <trkpt lat="47.7797" lon="-3.64881">
        <ele>18</ele>
        <time>2018-07-18T12:35:09Z</time>
      </trkpt>
      <trkpt lat="47.77969" lon="-3.64878">
        <ele>18</ele>
        <time>2018-07-18T12:35:10Z</time>
      </trkpt>
      <trkpt lat="47.77968" lon="-3.64873">
        <ele>18</ele>
        <time>2018-07-18T12:35:11Z</time>
      </trkpt>
      <trkpt lat="47.77967" lon="-3.64868">
        <ele>18</ele>
        <time>2018-07-18T12:35:12Z</time>
      </trkpt>
      <trkpt lat="47.77967" lon="-3.64862">
        <ele>18</ele>
        <time>2018-07-18T12:35:13Z</time>
      </trkpt>
      <trkpt lat="47.77966" lon="-3.64856">
        <ele>18</ele>
        <time>2018-07-18T12:35:14Z</time>
      </trkpt>
      <trkpt lat="47.77966" lon="-3.64851">
        <ele>19</ele>
        <time>2018-07-18T12:35:15Z</time>
      </trkpt>
      <trkpt lat="47.77966" lon="-3.64846">
        <ele>19</ele>
        <time>2018-07-18T12:35:16Z</time>
      </trkpt>
      <trkpt lat="47.77966" lon="-3.64843">
        <ele>19</ele>
        <time>2018-07-18T12:35:17Z</time>
      </trkpt>
      <trkpt lat="47.77965" lon="-3.64839">
        <ele>19</ele>
        <time>2018-07-18T12:35:18Z</time>
      </trkpt>
      <trkpt lat="47.77963" lon="-3.64836">
        <ele>19</ele>
        <time>2018-07-18T12:35:19Z</time>
      </trkpt>
      <trkpt lat="47.7796" lon="-3.64834">
        <ele>19</ele>
        <time>2018-07-18T12:35:20Z</time>
      </trkpt>
      <trkpt lat="47.77959" lon="-3.6483">
        <ele>18</ele>
        <time>2018-07-18T12:35:21Z</time>
      </trkpt>
      <trkpt lat="47.77956" lon="-3.64826">
        <ele>18</ele>
        <time>2018-07-18T12:35:22Z</time>
      </trkpt>
      <trkpt lat="47.77955" lon="-3.64823">
        <ele>18</ele>
        <time>2018-07-18T12:35:23Z</time>
      </trkpt>
      <trkpt lat="47.77955" lon="-3.64821">
        <ele>18</ele>
        <time>2018-07-18T12:35:24Z</time>
      </trkpt>
      <trkpt lat="47.77954" lon="-3.64819">
        <ele>18</ele>
        <time>2018-07-18T12:35:25Z</time>
      </trkpt>
      <trkpt lat="47.77954" lon="-3.64817">
        <ele>18</ele>
        <time>2018-07-18T12:35:26Z</time>
      </trkpt>
      <trkpt lat="47.77954" lon="-3.64815">
        <ele>18</ele>
        <time>2018-07-18T12:35:27Z</time>
      </trkpt>
      <trkpt lat="47.77954" lon="-3.64814">
        <ele>17</ele>
        <time>2018-07-18T12:35:28Z</time>
      </trkpt>
      <trkpt lat="47.77953" lon="-3.64811">
        <ele>17</ele>
        <time>2018-07-18T12:35:29Z</time>
      </trkpt>
      <trkpt lat="47.77953" lon="-3.64809">
        <ele>17</ele>
        <time>2018-07-18T12:35:30Z</time>
      </trkpt>
      <trkpt lat="47.77953" lon="-3.64808">
        <ele>17</ele>
        <time>2018-07-18T12:35:31Z</time>
      </trkpt>
      <trkpt lat="47.77954" lon="-3.64807">
        <ele>17</ele>
        <time>2018-07-18T12:35:32Z</time>
      </trkpt>
      <trkpt lat="47.77953" lon="-3.64807">
        <ele>17</ele>
        <time>2018-07-18T12:35:33Z</time>
      </trkpt>
      <trkpt lat="47.77953" lon="-3.64807">
        <ele>17</ele>
        <time>2018-07-18T12:35:34Z</time>
      </trkpt>
      <trkpt lat="47.77953" lon="-3.64807">
        <ele>17</ele>
        <time>2018-07-18T12:35:35Z</time>
      </trkpt>
      <trkpt lat="47.77952" lon="-3.64806">
        <ele>17</ele>
        <time>2018-07-18T12:35:36Z</time>
      </trkpt>
      <trkpt lat="47.77952" lon="-3.64805">
        <ele>17</ele>
        <time>2018-07-18T12:35:37Z</time>
      </trkpt>
      <trkpt lat="47.77952" lon="-3.64805">
        <ele>17</ele>
        <time>2018-07-18T12:35:38Z</time>
      </trkpt>
      <trkpt lat="47.77952" lon="-3.64804">
        <ele>17</ele>
        <time>2018-07-18T12:35:39Z</time>
      </trkpt>
      <trkpt lat="47.77952" lon="-3.64803">
        <ele>16</ele>
        <time>2018-07-18T12:35:40Z</time>
      </trkpt>
      <trkpt lat="47.77952" lon="-3.64801">
        <ele>16</ele>
        <time>2018-07-18T12:35:41Z</time>
      </trkpt>
      <trkpt lat="47.77952" lon="-3.64801">
        <ele>16</ele>
        <time>2018-07-18T12:35:42Z</time>
      </trkpt>
      <trkpt lat="47.77952" lon="-3.648">
        <ele>16</ele>
        <time>2018-07-18T12:35:43Z</time>
      </trkpt>
      <trkpt lat="47.77952" lon="-3.648">
        <ele>16</ele>
        <time>2018-07-18T12:35:44Z</time>
      </trkpt>
      <trkpt lat="47.77952" lon="-3.64799">
        <ele>16</ele>
        <time>2018-07-18T12:35:45Z</time>
      </trkpt>
      <trkpt lat="47.77952" lon="-3.64796">
        <ele>16</ele>
        <time>2018-07-18T12:35:46Z</time>
      </trkpt>
      <trkpt lat="47.77952" lon="-3.64792">
        <ele>16</ele>
        <time>2018-07-18T12:35:47Z</time>
      </trkpt>
      <trkpt lat="47.7795" lon="-3.64787">
        <ele>15</ele>
        <time>2018-07-18T12:35:48Z</time>
      </trkpt>
      <trkpt lat="47.7795" lon="-3.64781">
        <ele>15</ele>
        <time>2018-07-18T12:35:49Z</time>
      </trkpt>
      <trkpt lat="47.7795" lon="-3.64775">
        <ele>15</ele>
        <time>2018-07-18T12:35:50Z</time>
      </trkpt>
      <trkpt lat="47.77948" lon="-3.6477">
        <ele>14</ele>
        <time>2018-07-18T12:35:51Z</time>
      </trkpt>
      <trkpt lat="47.77946" lon="-3.64766">
        <ele>14</ele>
        <time>2018-07-18T12:35:52Z</time>
      </trkpt>
      <trkpt lat="47.77944" lon="-3.64761">
        <ele>14</ele>
        <time>2018-07-18T12:35:53Z</time>
      </trkpt>
      <trkpt lat="47.77943" lon="-3.64758">
        <ele>14</ele>
        <time>2018-07-18T12:35:54Z</time>
      </trkpt>
      <trkpt lat="47.77941" lon="-3.64757">
        <ele>14</ele>
        <time>2018-07-18T12:35:55Z</time>
      </trkpt>
      <trkpt lat="47.77939" lon="-3.64756">
        <ele>14</ele>
        <time>2018-07-18T12:35:56Z</time>
      </trkpt>
      <trkpt lat="47.77937" lon="-3.64756">
        <ele>14</ele>
        <time>2018-07-18T12:35:57Z</time>
      </trkpt>
      <trkpt lat="47.77935" lon="-3.64757">
        <ele>14</ele>
        <time>2018-07-18T12:35:58Z</time>
      </trkpt>
      <trkpt lat="47.77933" lon="-3.64757">
        <ele>14</ele>
        <time>2018-07-18T12:35:59Z</time>
      </trkpt>
      <trkpt lat="47.77931" lon="-3.64757">
        <ele>13</ele>
        <time>2018-07-18T12:36:00Z</time>
      </trkpt>
      <trkpt lat="47.77928" lon="-3.64756">
        <ele>13</ele>
        <time>2018-07-18T12:36:01Z</time>
      </trkpt>
      <trkpt lat="47.77925" lon="-3.64755">
        <ele>13</ele>
        <time>2018-07-18T12:36:02Z</time>
      </trkpt>
      <trkpt lat="47.77923" lon="-3.64752">
        <ele>13</ele>
        <time>2018-07-18T12:36:03Z</time>
      </trkpt>
      <trkpt lat="47.7792" lon="-3.64749">
        <ele>13</ele>
        <time>2018-07-18T12:36:04Z</time>
      </trkpt>
      <trkpt lat="47.77919" lon="-3.64745">
        <ele>13</ele>
        <time>2018-07-18T12:36:05Z</time>
      </trkpt>
      <trkpt lat="47.77917" lon="-3.64742">
        <ele>13</ele>
        <time>2018-07-18T12:36:06Z</time>
      </trkpt>
      <trkpt lat="47.77916" lon="-3.64738">
        <ele>13</ele>
        <time>2018-07-18T12:36:07Z</time>
      </trkpt>
      <trkpt lat="47.77914" lon="-3.64735">
        <ele>13</ele>
        <time>2018-07-18T12:36:08Z</time>
      </trkpt>
      <trkpt lat="47.77911" lon="-3.64732">
        <ele>13</ele>
        <time>2018-07-18T12:36:09Z</time>
      </trkpt>
      <trkpt lat="47.77909" lon="-3.64728">
        <ele>13</ele>
        <time>2018-07-18T12:36:10Z</time>
      </trkpt>
      <trkpt lat="47.77907" lon="-3.64723">
        <ele>13</ele>
        <time>2018-07-18T12:36:11Z</time>
      </trkpt>
      <trkpt lat="47.77906" lon="-3.64718">
        <ele>13</ele>
        <time>2018-07-18T12:36:12Z</time>
      </trkpt>
      <trkpt lat="47.77905" lon="-3.64712">
        <ele>13</ele>
        <time>2018-07-18T12:36:13Z</time>
      </trkpt>
      <trkpt lat="47.77905" lon="-3.64708">
        <ele>13</ele>
        <time>2018-07-18T12:36:14Z</time>
      </trkpt>
      <trkpt lat="47.77904" lon="-3.64703">
        <ele>13</ele>
        <time>2018-07-18T12:36:15Z</time>
      </trkpt>
      <trkpt lat="47.77904" lon="-3.64699">
        <ele>13</ele>
        <time>2018-07-18T12:36:16Z</time>
      </trkpt>
      <trkpt lat="47.77904" lon="-3.64694">
        <ele>13</ele>
        <time>2018-07-18T12:36:17Z</time>
      </trkpt>
      <trkpt lat="47.77905" lon="-3.6469">
        <ele>13</ele>
        <time>2018-07-18T12:36:18Z</time>
      </trkpt>
      <trkpt lat="47.77905" lon="-3.64686">
        <ele>14</ele>
        <time>2018-07-18T12:36:19Z</time>
      </trkpt>
      <trkpt lat="47.77906" lon="-3.64683">
        <ele>14</ele>
        <time>2018-07-18T12:36:20Z</time>
      </trkpt>
      <trkpt lat="47.77905" lon="-3.64679">
        <ele>14</ele>
        <time>2018-07-18T12:36:21Z</time>
      </trkpt>
      <trkpt lat="47.77906" lon="-3.64675">
        <ele>14</ele>
        <time>2018-07-18T12:36:22Z</time>
      </trkpt>
      <trkpt lat="47.77907" lon="-3.64671">
        <ele>14</ele>
        <time>2018-07-18T12:36:23Z</time>
      </trkpt>
      <trkpt lat="47.77907" lon="-3.64667">
        <ele>14</ele>
        <time>2018-07-18T12:36:24Z</time>
      </trkpt>
      <trkpt lat="47.77907" lon="-3.64662">
        <ele>14</ele>
        <time>2018-07-18T12:36:25Z</time>
      </trkpt>
      <trkpt lat="47.77906" lon="-3.64657">
        <ele>13</ele>
        <time>2018-07-18T12:36:26Z</time>
      </trkpt>
      <trkpt lat="47.77906" lon="-3.64652">
        <ele>13</ele>
        <time>2018-07-18T12:36:27Z</time>
      </trkpt>
      <trkpt lat="47.77906" lon="-3.64647">
        <ele>13</ele>
        <time>2018-07-18T12:36:28Z</time>
      </trkpt>
      <trkpt lat="47.77906" lon="-3.64644">
        <ele>13</ele>
        <time>2018-07-18T12:36:29Z</time>
      </trkpt>
      <trkpt lat="47.77906" lon="-3.6464">
        <ele>13</ele>
        <time>2018-07-18T12:36:30Z</time>
      </trkpt>
      <trkpt lat="47.77904" lon="-3.64639">
        <ele>13</ele>
        <time>2018-07-18T12:36:31Z</time>
      </trkpt>
      <trkpt lat="47.77902" lon="-3.64637">
        <ele>12</ele>
        <time>2018-07-18T12:36:32Z</time>
      </trkpt>
      <trkpt lat="47.779" lon="-3.64637">
        <ele>12</ele>
        <time>2018-07-18T12:36:33Z</time>
      </trkpt>
      <trkpt lat="47.779" lon="-3.64636">
        <ele>12</ele>
        <time>2018-07-18T12:36:34Z</time>
      </trkpt>
      <trkpt lat="47.779" lon="-3.64636">
        <ele>12</ele>
        <time>2018-07-18T12:36:35Z</time>
      </trkpt>
      <trkpt lat="47.779" lon="-3.64636">
        <ele>12</ele>
        <time>2018-07-18T12:36:36Z</time>
      </trkpt>
      <trkpt lat="47.779" lon="-3.64636">
        <ele>12</ele>
        <time>2018-07-18T12:36:37Z</time>
      </trkpt>
      <trkpt lat="47.77899" lon="-3.64637">
        <ele>11</ele>
        <time>2018-07-18T12:36:38Z</time>
      </trkpt>
      <trkpt lat="47.77898" lon="-3.64637">
        <ele>11</ele>
        <time>2018-07-18T12:36:39Z</time>
      </trkpt>
      <trkpt lat="47.77898" lon="-3.64637">
        <ele>11</ele>
        <time>2018-07-18T12:36:40Z</time>
      </trkpt>
      <trkpt lat="47.77897" lon="-3.64638">
        <ele>11</ele>
        <time>2018-07-18T12:36:41Z</time>
      </trkpt>
      <trkpt lat="47.77897" lon="-3.64638">
        <ele>10</ele>
        <time>2018-07-18T12:36:42Z</time>
      </trkpt>
      <trkpt lat="47.77896" lon="-3.64639">
        <ele>10</ele>
        <time>2018-07-18T12:36:43Z</time>
      </trkpt>
      <trkpt lat="47.77896" lon="-3.64639">
        <ele>10</ele>
        <time>2018-07-18T12:36:44Z</time>
      </trkpt>
      <trkpt lat="47.77895" lon="-3.64639">
        <ele>9</ele>
        <time>2018-07-18T12:36:45Z</time>
      </trkpt>
      <trkpt lat="47.77894" lon="-3.64639">
        <ele>9</ele>
        <time>2018-07-18T12:36:46Z</time>
      </trkpt>
      <trkpt lat="47.77894" lon="-3.64639">
        <ele>9</ele>
        <time>2018-07-18T12:36:47Z</time>
      </trkpt>
      <trkpt lat="47.77893" lon="-3.64638">
        <ele>8</ele>
        <time>2018-07-18T12:36:48Z</time>
      </trkpt>
      <trkpt lat="47.77893" lon="-3.64637">
        <ele>8</ele>
        <time>2018-07-18T12:36:49Z</time>
      </trkpt>
      <trkpt lat="47.77893" lon="-3.64637">
        <ele>8</ele>
        <time>2018-07-18T12:36:50Z</time>
      </trkpt>
      <trkpt lat="47.77892" lon="-3.64636">
        <ele>7</ele>
        <time>2018-07-18T12:36:51Z</time>
      </trkpt>
      <trkpt lat="47.77892" lon="-3.64636">
        <ele>7</ele>
        <time>2018-07-18T12:36:52Z</time>
      </trkpt>
      <trkpt lat="47.77891" lon="-3.64635">
        <ele>7</ele>
        <time>2018-07-18T12:36:53Z</time>
      </trkpt>
      <trkpt lat="47.7789" lon="-3.64635">
        <ele>6</ele>
        <time>2018-07-18T12:36:54Z</time>
      </trkpt>
      <trkpt lat="47.77889" lon="-3.64634">
        <ele>6</ele>
        <time>2018-07-18T12:36:55Z</time>
      </trkpt>
      <trkpt lat="47.77889" lon="-3.64634">
        <ele>6</ele>
        <time>2018-07-18T12:36:56Z</time>
      </trkpt>
      <trkpt lat="47.77888" lon="-3.64633">
        <ele>6</ele>
        <time>2018-07-18T12:36:57Z</time>
      </trkpt>
      <trkpt lat="47.77887" lon="-3.64632">
        <ele>5</ele>
        <time>2018-07-18T12:36:58Z</time>
      </trkpt>
      <trkpt lat="47.77887" lon="-3.64631">
        <ele>5</ele>
        <time>2018-07-18T12:36:59Z</time>
      </trkpt>
      <trkpt lat="47.77886" lon="-3.6463">
        <ele>5</ele>
        <time>2018-07-18T12:37:00Z</time>
      </trkpt>
      <trkpt lat="47.77885" lon="-3.64628">
        <ele>5</ele>
        <time>2018-07-18T12:37:01Z</time>
      </trkpt>
      <trkpt lat="47.77884" lon="-3.64627">
        <ele>5</ele>
        <time>2018-07-18T12:37:02Z</time>
      </trkpt>
      <trkpt lat="47.77883" lon="-3.64626">
        <ele>5</ele>
        <time>2018-07-18T12:37:03Z</time>
      </trkpt>
      <trkpt lat="47.77883" lon="-3.64626">
        <ele>5</ele>
        <time>2018-07-18T12:37:04Z</time>
      </trkpt>
      <trkpt lat="47.77882" lon="-3.64625">
        <ele>5</ele>
        <time>2018-07-18T12:37:05Z</time>
      </trkpt>
      <trkpt lat="47.77881" lon="-3.64626">
        <ele>5</ele>
        <time>2018-07-18T12:37:06Z</time>
      </trkpt>
      <trkpt lat="47.77881" lon="-3.64626">
        <ele>5</ele>
        <time>2018-07-18T12:37:07Z</time>
      </trkpt>
      <trkpt lat="47.77881" lon="-3.64626">
        <ele>5</ele>
        <time>2018-07-18T12:37:08Z</time>
      </trkpt>
      <trkpt lat="47.77881" lon="-3.64626">
        <ele>5</ele>
        <time>2018-07-18T12:37:09Z</time>
      </trkpt>
      <trkpt lat="47.7788" lon="-3.64625">
        <ele>5</ele>
        <time>2018-07-18T12:37:10Z</time>
      </trkpt>
      <trkpt lat="47.77879" lon="-3.64625">
        <ele>5</ele>
        <time>2018-07-18T12:37:11Z</time>
      </trkpt>
      <trkpt lat="47.77877" lon="-3.64625">
        <ele>5</ele>
        <time>2018-07-18T12:37:12Z</time>
      </trkpt>
      <trkpt lat="47.77876" lon="-3.64625">
        <ele>5</ele>
        <time>2018-07-18T12:37:13Z</time>
      </trkpt>
      <trkpt lat="47.77874" lon="-3.64626">
        <ele>5</ele>
        <time>2018-07-18T12:37:14Z</time>
      </trkpt>
      <trkpt lat="47.77874" lon="-3.64626">
        <ele>5</ele>
        <time>2018-07-18T12:37:15Z</time>
      </trkpt>
      <trkpt lat="47.77873" lon="-3.64626">
        <ele>5</ele>
        <time>2018-07-18T12:37:16Z</time>
      </trkpt>
      <trkpt lat="47.77873" lon="-3.64626">
        <ele>5</ele>
        <time>2018-07-18T12:37:17Z</time>
      </trkpt>
      <trkpt lat="47.77872" lon="-3.64626">
        <ele>5</ele>
        <time>2018-07-18T12:37:18Z</time>
      </trkpt>
      <trkpt lat="47.77871" lon="-3.64626">
        <ele>5</ele>
        <time>2018-07-18T12:37:19Z</time>
      </trkpt>
      <trkpt lat="47.7787" lon="-3.64626">
        <ele>6</ele>
        <time>2018-07-18T12:37:20Z</time>
      </trkpt>
      <trkpt lat="47.7787" lon="-3.64626">
        <ele>6</ele>
        <time>2018-07-18T12:37:21Z</time>
      </trkpt>
      <trkpt lat="47.77869" lon="-3.64626">
        <ele>6</ele>
        <time>2018-07-18T12:37:22Z</time>
      </trkpt>
      <trkpt lat="47.77868" lon="-3.64626">
        <ele>6</ele>
        <time>2018-07-18T12:37:23Z</time>
      </trkpt>
      <trkpt lat="47.77867" lon="-3.64625">
        <ele>6</ele>
        <time>2018-07-18T12:37:24Z</time>
      </trkpt>
      <trkpt lat="47.77867" lon="-3.64624">
        <ele>6</ele>
        <time>2018-07-18T12:37:25Z</time>
      </trkpt>
      <trkpt lat="47.77866" lon="-3.64623">
        <ele>6</ele>
        <time>2018-07-18T12:37:26Z</time>
      </trkpt>
      <trkpt lat="47.77865" lon="-3.64621">
        <ele>6</ele>
        <time>2018-07-18T12:37:27Z</time>
      </trkpt>
      <trkpt lat="47.77864" lon="-3.6462">
        <ele>6</ele>
        <time>2018-07-18T12:37:28Z</time>
      </trkpt>
      <trkpt lat="47.77864" lon="-3.6462">
        <ele>6</ele>
        <time>2018-07-18T12:37:29Z</time>
      </trkpt>
      <trkpt lat="47.77864" lon="-3.6462">
        <ele>6</ele>
        <time>2018-07-18T12:37:30Z</time>
      </trkpt>
      <trkpt lat="47.77864" lon="-3.6462">
        <ele>6</ele>
        <time>2018-07-18T12:37:31Z</time>
      </trkpt>
      <trkpt lat="47.77864" lon="-3.6462">
        <ele>6</ele>
        <time>2018-07-18T12:37:32Z</time>
      </trkpt>
      <trkpt lat="47.77863" lon="-3.6462">
        <ele>6</ele>
        <time>2018-07-18T12:37:33Z</time>
      </trkpt>
      <trkpt lat="47.77863" lon="-3.64619">
        <ele>6</ele>
        <time>2018-07-18T12:37:34Z</time>
      </trkpt>
      <trkpt lat="47.77862" lon="-3.64618">
        <ele>6</ele>
        <time>2018-07-18T12:37:35Z</time>
      </trkpt>
      <trkpt lat="47.77861" lon="-3.64618">
        <ele>6</ele>
        <time>2018-07-18T12:37:36Z</time>
      </trkpt>
      <trkpt lat="47.77861" lon="-3.64618">
        <ele>6</ele>
        <time>2018-07-18T12:37:37Z</time>
      </trkpt>
      <trkpt lat="47.77861" lon="-3.64618">
        <ele>6</ele>
        <time>2018-07-18T12:37:38Z</time>
      </trkpt>
      <trkpt lat="47.7786" lon="-3.64618">
        <ele>6</ele>
        <time>2018-07-18T12:37:39Z</time>
      </trkpt>
      <trkpt lat="47.77859" lon="-3.64617">
        <ele>6</ele>
        <time>2018-07-18T12:37:40Z</time>
      </trkpt>
      <trkpt lat="47.77857" lon="-3.64616">
        <ele>6</ele>
        <time>2018-07-18T12:37:41Z</time>
      </trkpt>
      <trkpt lat="47.77856" lon="-3.64615">
        <ele>6</ele>
        <time>2018-07-18T12:37:42Z</time>
      </trkpt>
      <trkpt lat="47.77854" lon="-3.64613">
        <ele>6</ele>
        <time>2018-07-18T12:37:43Z</time>
      </trkpt>
      <trkpt lat="47.77853" lon="-3.64612">
        <ele>7</ele>
        <time>2018-07-18T12:37:44Z</time>
      </trkpt>
      <trkpt lat="47.77851" lon="-3.6461">
        <ele>7</ele>
        <time>2018-07-18T12:37:45Z</time>
      </trkpt>
      <trkpt lat="47.7785" lon="-3.64609">
        <ele>7</ele>
        <time>2018-07-18T12:37:46Z</time>
      </trkpt>
      <trkpt lat="47.77848" lon="-3.64608">
        <ele>7</ele>
        <time>2018-07-18T12:37:47Z</time>
      </trkpt>
      <trkpt lat="47.77846" lon="-3.64607">
        <ele>8</ele>
        <time>2018-07-18T12:37:48Z</time>
      </trkpt>
      <trkpt lat="47.77844" lon="-3.64606">
        <ele>8</ele>
        <time>2018-07-18T12:37:49Z</time>
      </trkpt>
      <trkpt lat="47.77842" lon="-3.64605">
        <ele>8</ele>
        <time>2018-07-18T12:37:50Z</time>
      </trkpt>
      <trkpt lat="47.7784" lon="-3.64604">
        <ele>8</ele>
        <time>2018-07-18T12:37:51Z</time>
      </trkpt>
      <trkpt lat="47.77838" lon="-3.64603">
        <ele>9</ele>
        <time>2018-07-18T12:37:52Z</time>
      </trkpt>
      <trkpt lat="47.77836" lon="-3.64601">
        <ele>9</ele>
        <time>2018-07-18T12:37:53Z</time>
      </trkpt>
      <trkpt lat="47.77834" lon="-3.646">
        <ele>9</ele>
        <time>2018-07-18T12:37:54Z</time>
      </trkpt>
      <trkpt lat="47.77832" lon="-3.64599">
        <ele>9</ele>
        <time>2018-07-18T12:37:55Z</time>
      </trkpt>
      <trkpt lat="47.7783" lon="-3.64598">
        <ele>10</ele>
        <time>2018-07-18T12:37:56Z</time>
      </trkpt>
      <trkpt lat="47.77828" lon="-3.64597">
        <ele>10</ele>
        <time>2018-07-18T12:37:57Z</time>
      </trkpt>
      <trkpt lat="47.77827" lon="-3.64595">
        <ele>10</ele>
        <time>2018-07-18T12:37:58Z</time>
      </trkpt>
      <trkpt lat="47.77825" lon="-3.64594">
        <ele>10</ele>
        <time>2018-07-18T12:37:59Z</time>
      </trkpt>
      <trkpt lat="47.77822" lon="-3.64592">
        <ele>10</ele>
        <time>2018-07-18T12:38:00Z</time>
      </trkpt>
      <trkpt lat="47.7782" lon="-3.64591">
        <ele>10</ele>
        <time>2018-07-18T12:38:01Z</time>
      </trkpt>
      <trkpt lat="47.77817" lon="-3.6459">
        <ele>11</ele>
        <time>2018-07-18T12:38:02Z</time>
      </trkpt>
      <trkpt lat="47.77815" lon="-3.64588">
        <ele>11</ele>
        <time>2018-07-18T12:38:03Z</time>
      </trkpt>
      <trkpt lat="47.77812" lon="-3.64587">
        <ele>11</ele>
        <time>2018-07-18T12:38:04Z</time>
      </trkpt>
      <trkpt lat="47.7781" lon="-3.64585">
        <ele>11</ele>
        <time>2018-07-18T12:38:05Z</time>
      </trkpt>
      <trkpt lat="47.77808" lon="-3.64583">
        <ele>11</ele>
        <time>2018-07-18T12:38:06Z</time>
      </trkpt>
      <trkpt lat="47.77806" lon="-3.64582">
        <ele>11</ele>
        <time>2018-07-18T12:38:07Z</time>
      </trkpt>
      <trkpt lat="47.77803" lon="-3.64581">
        <ele>12</ele>
        <time>2018-07-18T12:38:08Z</time>
      </trkpt>
      <trkpt lat="47.77801" lon="-3.6458">
        <ele>12</ele>
        <time>2018-07-18T12:38:09Z</time>
      </trkpt>
      <trkpt lat="47.77798" lon="-3.6458">
        <ele>12</ele>
        <time>2018-07-18T12:38:10Z</time>
      </trkpt>
      <trkpt lat="47.77796" lon="-3.64579">
        <ele>12</ele>
        <time>2018-07-18T12:38:11Z</time>
      </trkpt>
      <trkpt lat="47.77794" lon="-3.6458">
        <ele>13</ele>
        <time>2018-07-18T12:38:12Z</time>
      </trkpt>
      <trkpt lat="47.77791" lon="-3.6458">
        <ele>13</ele>
        <time>2018-07-18T12:38:13Z</time>
      </trkpt>
      <trkpt lat="47.77788" lon="-3.6458">
        <ele>13</ele>
        <time>2018-07-18T12:38:14Z</time>
      </trkpt>
      <trkpt lat="47.77784" lon="-3.6458">
        <ele>13</ele>
        <time>2018-07-18T12:38:15Z</time>
      </trkpt>
      <trkpt lat="47.7778" lon="-3.64578">
        <ele>13</ele>
        <time>2018-07-18T12:38:16Z</time>
      </trkpt>
      <trkpt lat="47.77776" lon="-3.64576">
        <ele>13</ele>
        <time>2018-07-18T12:38:17Z</time>
      </trkpt>
      <trkpt lat="47.77773" lon="-3.64573">
        <ele>13</ele>
        <time>2018-07-18T12:38:18Z</time>
      </trkpt>
      <trkpt lat="47.77772" lon="-3.64571">
        <ele>13</ele>
        <time>2018-07-18T12:38:19Z</time>
      </trkpt>
      <trkpt lat="47.77772" lon="-3.64571">
        <ele>13</ele>
        <time>2018-07-18T12:38:20Z</time>
      </trkpt>
      <trkpt lat="47.77772" lon="-3.64571">
        <ele>13</ele>
        <time>2018-07-18T12:38:21Z</time>
      </trkpt>
      <trkpt lat="47.77772" lon="-3.64571">
        <ele>13</ele>
        <time>2018-07-18T12:38:22Z</time>
      </trkpt>
      <trkpt lat="47.77772" lon="-3.64571">
        <ele>13</ele>
        <time>2018-07-18T12:38:23Z</time>
      </trkpt>
      <trkpt lat="47.7777" lon="-3.6457">
        <ele>13</ele>
        <time>2018-07-18T12:38:24Z</time>
      </trkpt>
      <trkpt lat="47.7777" lon="-3.6457">
        <ele>13</ele>
        <time>2018-07-18T12:38:25Z</time>
      </trkpt>
      <trkpt lat="47.77769" lon="-3.64569">
        <ele>13</ele>
        <time>2018-07-18T12:38:26Z</time>
      </trkpt>
      <trkpt lat="47.77768" lon="-3.64567">
        <ele>13</ele>
        <time>2018-07-18T12:38:27Z</time>
      </trkpt>
      <trkpt lat="47.77767" lon="-3.64566">
        <ele>13</ele>
        <time>2018-07-18T12:38:28Z</time>
      </trkpt>
      <trkpt lat="47.77765" lon="-3.64564">
        <ele>13</ele>
        <time>2018-07-18T12:38:29Z</time>
      </trkpt>
      <trkpt lat="47.77764" lon="-3.64563">
        <ele>13</ele>
        <time>2018-07-18T12:38:30Z</time>
      </trkpt>
      <trkpt lat="47.77764" lon="-3.64561">
        <ele>13</ele>
        <time>2018-07-18T12:38:31Z</time>
      </trkpt>
      <trkpt lat="47.77763" lon="-3.6456">
        <ele>14</ele>
        <time>2018-07-18T12:38:32Z</time>
      </trkpt>
      <trkpt lat="47.77762" lon="-3.64558">
        <ele>14</ele>
        <time>2018-07-18T12:38:33Z</time>
      </trkpt>
      <trkpt lat="47.77762" lon="-3.64556">
        <ele>14</ele>
        <time>2018-07-18T12:38:34Z</time>
      </trkpt>
      <trkpt lat="47.77761" lon="-3.64554">
        <ele>15</ele>
        <time>2018-07-18T12:38:35Z</time>
      </trkpt>
      <trkpt lat="47.7776" lon="-3.64551">
        <ele>15</ele>
        <time>2018-07-18T12:38:36Z</time>
      </trkpt>
      <trkpt lat="47.77759" lon="-3.64549">
        <ele>15</ele>
        <time>2018-07-18T12:38:37Z</time>
      </trkpt>
      <trkpt lat="47.77759" lon="-3.64548">
        <ele>15</ele>
        <time>2018-07-18T12:38:38Z</time>
      </trkpt>
      <trkpt lat="47.77757" lon="-3.64545">
        <ele>16</ele>
        <time>2018-07-18T12:38:39Z</time>
      </trkpt>
      <trkpt lat="47.77756" lon="-3.64544">
        <ele>16</ele>
        <time>2018-07-18T12:38:40Z</time>
      </trkpt>
      <trkpt lat="47.77755" lon="-3.64541">
        <ele>16</ele>
        <time>2018-07-18T12:38:41Z</time>
      </trkpt>
      <trkpt lat="47.77755" lon="-3.64539">
        <ele>16</ele>
        <time>2018-07-18T12:38:42Z</time>
      </trkpt>
      <trkpt lat="47.77754" lon="-3.64536">
        <ele>17</ele>
        <time>2018-07-18T12:38:43Z</time>
      </trkpt>
      <trkpt lat="47.77754" lon="-3.64534">
        <ele>17</ele>
        <time>2018-07-18T12:38:44Z</time>
      </trkpt>
      <trkpt lat="47.77755" lon="-3.64531">
        <ele>17</ele>
        <time>2018-07-18T12:38:45Z</time>
      </trkpt>
      <trkpt lat="47.77755" lon="-3.64529">
        <ele>18</ele>
        <time>2018-07-18T12:38:46Z</time>
      </trkpt>
      <trkpt lat="47.77755" lon="-3.64526">
        <ele>18</ele>
        <time>2018-07-18T12:38:47Z</time>
      </trkpt>
      <trkpt lat="47.77755" lon="-3.64523">
        <ele>18</ele>
        <time>2018-07-18T12:38:48Z</time>
      </trkpt>
      <trkpt lat="47.77755" lon="-3.64521">
        <ele>19</ele>
        <time>2018-07-18T12:38:49Z</time>
      </trkpt>
      <trkpt lat="47.77756" lon="-3.64518">
        <ele>19</ele>
        <time>2018-07-18T12:38:50Z</time>
      </trkpt>
      <trkpt lat="47.77756" lon="-3.64516">
        <ele>19</ele>
        <time>2018-07-18T12:38:51Z</time>
      </trkpt>
      <trkpt lat="47.77756" lon="-3.64513">
        <ele>19</ele>
        <time>2018-07-18T12:38:52Z</time>
      </trkpt>
      <trkpt lat="47.77755" lon="-3.64511">
        <ele>19</ele>
        <time>2018-07-18T12:38:53Z</time>
      </trkpt>
      <trkpt lat="47.77756" lon="-3.64508">
        <ele>20</ele>
        <time>2018-07-18T12:38:54Z</time>
      </trkpt>
      <trkpt lat="47.77756" lon="-3.64505">
        <ele>20</ele>
        <time>2018-07-18T12:38:55Z</time>
      </trkpt>
      <trkpt lat="47.77756" lon="-3.64502">
        <ele>20</ele>
        <time>2018-07-18T12:38:56Z</time>
      </trkpt>
      <trkpt lat="47.77756" lon="-3.64499">
        <ele>20</ele>
        <time>2018-07-18T12:38:57Z</time>
      </trkpt>
      <trkpt lat="47.77756" lon="-3.64496">
        <ele>20</ele>
        <time>2018-07-18T12:38:58Z</time>
      </trkpt>
      <trkpt lat="47.77757" lon="-3.64493">
        <ele>21</ele>
        <time>2018-07-18T12:38:59Z</time>
      </trkpt>
      <trkpt lat="47.77757" lon="-3.6449">
        <ele>21</ele>
        <time>2018-07-18T12:39:00Z</time>
      </trkpt>
      <trkpt lat="47.77758" lon="-3.64488">
        <ele>21</ele>
        <time>2018-07-18T12:39:01Z</time>
      </trkpt>
      <trkpt lat="47.77758" lon="-3.64485">
        <ele>21</ele>
        <time>2018-07-18T12:39:02Z</time>
      </trkpt>
      <trkpt lat="47.77758" lon="-3.64482">
        <ele>21</ele>
        <time>2018-07-18T12:39:03Z</time>
      </trkpt>
      <trkpt lat="47.77759" lon="-3.64479">
        <ele>22</ele>
        <time>2018-07-18T12:39:04Z</time>
      </trkpt>
      <trkpt lat="47.77759" lon="-3.64476">
        <ele>22</ele>
        <time>2018-07-18T12:39:05Z</time>
      </trkpt>
      <trkpt lat="47.77759" lon="-3.64473">
        <ele>22</ele>
        <time>2018-07-18T12:39:06Z</time>
      </trkpt>
      <trkpt lat="47.7776" lon="-3.6447">
        <ele>22</ele>
        <time>2018-07-18T12:39:07Z</time>
      </trkpt>
      <trkpt lat="47.7776" lon="-3.64468">
        <ele>22</ele>
        <time>2018-07-18T12:39:08Z</time>
      </trkpt>
      <trkpt lat="47.7776" lon="-3.64465">
        <ele>22</ele>
        <time>2018-07-18T12:39:09Z</time>
      </trkpt>
      <trkpt lat="47.77761" lon="-3.64462">
        <ele>23</ele>
        <time>2018-07-18T12:39:10Z</time>
      </trkpt>
      <trkpt lat="47.77761" lon="-3.64459">
        <ele>23</ele>
        <time>2018-07-18T12:39:11Z</time>
      </trkpt>
      <trkpt lat="47.77761" lon="-3.64456">
        <ele>23</ele>
        <time>2018-07-18T12:39:12Z</time>
      </trkpt>
      <trkpt lat="47.77762" lon="-3.64453">
        <ele>23</ele>
        <time>2018-07-18T12:39:13Z</time>
      </trkpt>
      <trkpt lat="47.77762" lon="-3.6445">
        <ele>23</ele>
        <time>2018-07-18T12:39:14Z</time>
      </trkpt>
      <trkpt lat="47.77762" lon="-3.64447">
        <ele>23</ele>
        <time>2018-07-18T12:39:15Z</time>
      </trkpt>
      <trkpt lat="47.77762" lon="-3.64443">
        <ele>24</ele>
        <time>2018-07-18T12:39:16Z</time>
      </trkpt>
      <trkpt lat="47.77762" lon="-3.6444">
        <ele>24</ele>
        <time>2018-07-18T12:39:17Z</time>
      </trkpt>
      <trkpt lat="47.77762" lon="-3.64437">
        <ele>24</ele>
        <time>2018-07-18T12:39:18Z</time>
      </trkpt>
      <trkpt lat="47.77762" lon="-3.64433">
        <ele>24</ele>
        <time>2018-07-18T12:39:19Z</time>
      </trkpt>
      <trkpt lat="47.77761" lon="-3.6443">
        <ele>24</ele>
        <time>2018-07-18T12:39:20Z</time>
      </trkpt>
      <trkpt lat="47.77761" lon="-3.64427">
        <ele>24</ele>
        <time>2018-07-18T12:39:21Z</time>
      </trkpt>
      <trkpt lat="47.7776" lon="-3.64423">
        <ele>24</ele>
        <time>2018-07-18T12:39:22Z</time>
      </trkpt>
      <trkpt lat="47.7776" lon="-3.6442">
        <ele>24</ele>
        <time>2018-07-18T12:39:23Z</time>
      </trkpt>
      <trkpt lat="47.7776" lon="-3.64416">
        <ele>24</ele>
        <time>2018-07-18T12:39:24Z</time>
      </trkpt>
      <trkpt lat="47.77759" lon="-3.64413">
        <ele>24</ele>
        <time>2018-07-18T12:39:25Z</time>
      </trkpt>
      <trkpt lat="47.77756" lon="-3.64411">
        <ele>24</ele>
        <time>2018-07-18T12:39:26Z</time>
      </trkpt>
      <trkpt lat="47.77754" lon="-3.6441">
        <ele>24</ele>
        <time>2018-07-18T12:39:27Z</time>
      </trkpt>
      <trkpt lat="47.77751" lon="-3.6441">
        <ele>24</ele>
        <time>2018-07-18T12:39:28Z</time>
      </trkpt>
      <trkpt lat="47.77748" lon="-3.6441">
        <ele>25</ele>
        <time>2018-07-18T12:39:29Z</time>
      </trkpt>
      <trkpt lat="47.77745" lon="-3.6441">
        <ele>25</ele>
        <time>2018-07-18T12:39:30Z</time>
      </trkpt>
      <trkpt lat="47.77742" lon="-3.6441">
        <ele>25</ele>
        <time>2018-07-18T12:39:31Z</time>
      </trkpt>
      <trkpt lat="47.77739" lon="-3.6441">
        <ele>25</ele>
        <time>2018-07-18T12:39:32Z</time>
      </trkpt>
      <trkpt lat="47.77735" lon="-3.6441">
        <ele>25</ele>
        <time>2018-07-18T12:39:33Z</time>
      </trkpt>
      <trkpt lat="47.77732" lon="-3.6441">
        <ele>25</ele>
        <time>2018-07-18T12:39:34Z</time>
      </trkpt>
      <trkpt lat="47.77728" lon="-3.6441">
        <ele>24</ele>
        <time>2018-07-18T12:39:35Z</time>
      </trkpt>
      <trkpt lat="47.77725" lon="-3.6441">
        <ele>24</ele>
        <time>2018-07-18T12:39:36Z</time>
      </trkpt>
      <trkpt lat="47.77721" lon="-3.6441">
        <ele>24</ele>
        <time>2018-07-18T12:39:37Z</time>
      </trkpt>
      <trkpt lat="47.77717" lon="-3.6441">
        <ele>24</ele>
        <time>2018-07-18T12:39:38Z</time>
      </trkpt>
      <trkpt lat="47.77713" lon="-3.6441">
        <ele>24</ele>
        <time>2018-07-18T12:39:39Z</time>
      </trkpt>
      <trkpt lat="47.77709" lon="-3.6441">
        <ele>24</ele>
        <time>2018-07-18T12:39:40Z</time>
      </trkpt>
      <trkpt lat="47.77705" lon="-3.6441">
        <ele>24</ele>
        <time>2018-07-18T12:39:41Z</time>
      </trkpt>
      <trkpt lat="47.777" lon="-3.6441">
        <ele>24</ele>
        <time>2018-07-18T12:39:42Z</time>
      </trkpt>
      <trkpt lat="47.77696" lon="-3.6441">
        <ele>24</ele>
        <time>2018-07-18T12:39:43Z</time>
      </trkpt>
      <trkpt lat="47.77692" lon="-3.6441">
        <ele>24</ele>
        <time>2018-07-18T12:39:44Z</time>
      </trkpt>
      <trkpt lat="47.77688" lon="-3.64409">
        <ele>24</ele>
        <time>2018-07-18T12:39:45Z</time>
      </trkpt>
      <trkpt lat="47.77684" lon="-3.64408">
        <ele>24</ele>
        <time>2018-07-18T12:39:46Z</time>
      </trkpt>
      <trkpt lat="47.7768" lon="-3.64407">
        <ele>24</ele>
        <time>2018-07-18T12:39:47Z</time>
      </trkpt>
      <trkpt lat="47.77676" lon="-3.64404">
        <ele>24</ele>
        <time>2018-07-18T12:39:48Z</time>
      </trkpt>
      <trkpt lat="47.77674" lon="-3.644">
        <ele>24</ele>
        <time>2018-07-18T12:39:49Z</time>
      </trkpt>
      <trkpt lat="47.77671" lon="-3.64395">
        <ele>24</ele>
        <time>2018-07-18T12:39:50Z</time>
      </trkpt>
      <trkpt lat="47.7767" lon="-3.64391">
        <ele>24</ele>
        <time>2018-07-18T12:39:51Z</time>
      </trkpt>
      <trkpt lat="47.77667" lon="-3.64386">
        <ele>24</ele>
        <time>2018-07-18T12:39:52Z</time>
      </trkpt>
      <trkpt lat="47.77665" lon="-3.64381">
        <ele>24</ele>
        <time>2018-07-18T12:39:53Z</time>
      </trkpt>
      <trkpt lat="47.77663" lon="-3.64376">
        <ele>24</ele>
        <time>2018-07-18T12:39:54Z</time>
      </trkpt>
      <trkpt lat="47.77661" lon="-3.6437">
        <ele>24</ele>
        <time>2018-07-18T12:39:55Z</time>
      </trkpt>
      <trkpt lat="47.77659" lon="-3.64364">
        <ele>24</ele>
        <time>2018-07-18T12:39:56Z</time>
      </trkpt>
      <trkpt lat="47.77657" lon="-3.64359">
        <ele>24</ele>
        <time>2018-07-18T12:39:57Z</time>
      </trkpt>
      <trkpt lat="47.77654" lon="-3.64353">
        <ele>24</ele>
        <time>2018-07-18T12:39:58Z</time>
      </trkpt>
      <trkpt lat="47.77652" lon="-3.64348">
        <ele>24</ele>
        <time>2018-07-18T12:39:59Z</time>
      </trkpt>
      <trkpt lat="47.77649" lon="-3.64343">
        <ele>24</ele>
        <time>2018-07-18T12:40:00Z</time>
      </trkpt>
      <trkpt lat="47.77647" lon="-3.64337">
        <ele>24</ele>
        <time>2018-07-18T12:40:01Z</time>
      </trkpt>
      <trkpt lat="47.77644" lon="-3.64332">
        <ele>24</ele>
        <time>2018-07-18T12:40:02Z</time>
      </trkpt>
      <trkpt lat="47.77643" lon="-3.64326">
        <ele>24</ele>
        <time>2018-07-18T12:40:03Z</time>
      </trkpt>
      <trkpt lat="47.77642" lon="-3.6432">
        <ele>24</ele>
        <time>2018-07-18T12:40:04Z</time>
      </trkpt>
      <trkpt lat="47.77642" lon="-3.64313">
        <ele>24</ele>
        <time>2018-07-18T12:40:05Z</time>
      </trkpt>
      <trkpt lat="47.77642" lon="-3.64305">
        <ele>24</ele>
        <time>2018-07-18T12:40:06Z</time>
      </trkpt>
      <trkpt lat="47.77643" lon="-3.64298">
        <ele>24</ele>
        <time>2018-07-18T12:40:07Z</time>
      </trkpt>
      <trkpt lat="47.77644" lon="-3.64291">
        <ele>24</ele>
        <time>2018-07-18T12:40:08Z</time>
      </trkpt>
      <trkpt lat="47.77644" lon="-3.64283">
        <ele>24</ele>
        <time>2018-07-18T12:40:09Z</time>
      </trkpt>
      <trkpt lat="47.77645" lon="-3.64275">
        <ele>24</ele>
        <time>2018-07-18T12:40:10Z</time>
      </trkpt>
      <trkpt lat="47.77645" lon="-3.64268">
        <ele>24</ele>
        <time>2018-07-18T12:40:11Z</time>
      </trkpt>
      <trkpt lat="47.77646" lon="-3.64261">
        <ele>24</ele>
        <time>2018-07-18T12:40:12Z</time>
      </trkpt>
      <trkpt lat="47.77647" lon="-3.64254">
        <ele>25</ele>
        <time>2018-07-18T12:40:13Z</time>
      </trkpt>
      <trkpt lat="47.77648" lon="-3.64247">
        <ele>25</ele>
        <time>2018-07-18T12:40:14Z</time>
      </trkpt>
      <trkpt lat="47.77649" lon="-3.64239">
        <ele>25</ele>
        <time>2018-07-18T12:40:15Z</time>
      </trkpt>
      <trkpt lat="47.7765" lon="-3.64232">
        <ele>25</ele>
        <time>2018-07-18T12:40:16Z</time>
      </trkpt>
      <trkpt lat="47.77651" lon="-3.64225">
        <ele>25</ele>
        <time>2018-07-18T12:40:17Z</time>
      </trkpt>
      <trkpt lat="47.77653" lon="-3.64217">
        <ele>25</ele>
        <time>2018-07-18T12:40:18Z</time>
      </trkpt>
      <trkpt lat="47.77654" lon="-3.64209">
        <ele>25</ele>
        <time>2018-07-18T12:40:19Z</time>
      </trkpt>
      <trkpt lat="47.77654" lon="-3.64201">
        <ele>25</ele>
        <time>2018-07-18T12:40:20Z</time>
      </trkpt>
      <trkpt lat="47.77655" lon="-3.64193">
        <ele>25</ele>
        <time>2018-07-18T12:40:21Z</time>
      </trkpt>
      <trkpt lat="47.77656" lon="-3.64185">
        <ele>25</ele>
        <time>2018-07-18T12:40:22Z</time>
      </trkpt>
      <trkpt lat="47.77657" lon="-3.64177">
        <ele>25</ele>
        <time>2018-07-18T12:40:23Z</time>
      </trkpt>
      <trkpt lat="47.77658" lon="-3.64169">
        <ele>25</ele>
        <time>2018-07-18T12:40:24Z</time>
      </trkpt>
      <trkpt lat="47.77659" lon="-3.64161">
        <ele>25</ele>
        <time>2018-07-18T12:40:25Z</time>
      </trkpt>
      <trkpt lat="47.7766" lon="-3.64154">
        <ele>25</ele>
        <time>2018-07-18T12:40:26Z</time>
      </trkpt>
      <trkpt lat="47.77658" lon="-3.64148">
        <ele>25</ele>
        <time>2018-07-18T12:40:27Z</time>
      </trkpt>
      <trkpt lat="47.77654" lon="-3.64145">
        <ele>25</ele>
        <time>2018-07-18T12:40:28Z</time>
      </trkpt>
      <trkpt lat="47.7765" lon="-3.64143">
        <ele>25</ele>
        <time>2018-07-18T12:40:29Z</time>
      </trkpt>
      <trkpt lat="47.77645" lon="-3.64141">
        <ele>25</ele>
        <time>2018-07-18T12:40:30Z</time>
      </trkpt>
      <trkpt lat="47.77641" lon="-3.6414">
        <ele>25</ele>
        <time>2018-07-18T12:40:31Z</time>
      </trkpt>
      <trkpt lat="47.77636" lon="-3.64138">
        <ele>25</ele>
        <time>2018-07-18T12:40:32Z</time>
      </trkpt>
      <trkpt lat="47.77631" lon="-3.64134">
        <ele>24</ele>
        <time>2018-07-18T12:40:33Z</time>
      </trkpt>
      <trkpt lat="47.77629" lon="-3.64129">
        <ele>24</ele>
        <time>2018-07-18T12:40:34Z</time>
      </trkpt>
      <trkpt lat="47.77628" lon="-3.64123">
        <ele>24</ele>
        <time>2018-07-18T12:40:35Z</time>
      </trkpt>
      <trkpt lat="47.77628" lon="-3.64116">
        <ele>23</ele>
        <time>2018-07-18T12:40:36Z</time>
      </trkpt>
      <trkpt lat="47.77629" lon="-3.64109">
        <ele>23</ele>
        <time>2018-07-18T12:40:37Z</time>
      </trkpt>
      <trkpt lat="47.7763" lon="-3.64102">
        <ele>23</ele>
        <time>2018-07-18T12:40:38Z</time>
      </trkpt>
      <trkpt lat="47.77631" lon="-3.64095">
        <ele>23</ele>
        <time>2018-07-18T12:40:39Z</time>
      </trkpt>
      <trkpt lat="47.77631" lon="-3.64089">
        <ele>23</ele>
        <time>2018-07-18T12:40:40Z</time>
      </trkpt>
      <trkpt lat="47.77632" lon="-3.64085">
        <ele>23</ele>
        <time>2018-07-18T12:40:41Z</time>
      </trkpt>
      <trkpt lat="47.77632" lon="-3.64084">
        <ele>22</ele>
        <time>2018-07-18T12:40:42Z</time>
      </trkpt>
      <trkpt lat="47.77632" lon="-3.64084">
        <ele>22</ele>
        <time>2018-07-18T12:40:43Z</time>
      </trkpt>
      <trkpt lat="47.77632" lon="-3.64083">
        <ele>22</ele>
        <time>2018-07-18T12:40:44Z</time>
      </trkpt>
      <trkpt lat="47.77632" lon="-3.64081">
        <ele>22</ele>
        <time>2018-07-18T12:40:45Z</time>
      </trkpt>
      <trkpt lat="47.77633" lon="-3.64077">
        <ele>22</ele>
        <time>2018-07-18T12:40:46Z</time>
      </trkpt>
      <trkpt lat="47.77633" lon="-3.64072">
        <ele>22</ele>
        <time>2018-07-18T12:40:47Z</time>
      </trkpt>
      <trkpt lat="47.77633" lon="-3.64067">
        <ele>22</ele>
        <time>2018-07-18T12:40:48Z</time>
      </trkpt>
      <trkpt lat="47.77634" lon="-3.64062">
        <ele>22</ele>
        <time>2018-07-18T12:40:49Z</time>
      </trkpt>
      <trkpt lat="47.77635" lon="-3.64056">
        <ele>22</ele>
        <time>2018-07-18T12:40:50Z</time>
      </trkpt>
      <trkpt lat="47.77636" lon="-3.64052">
        <ele>22</ele>
        <time>2018-07-18T12:40:51Z</time>
      </trkpt>
      <trkpt lat="47.77639" lon="-3.64051">
        <ele>22</ele>
        <time>2018-07-18T12:40:52Z</time>
      </trkpt>
      <trkpt lat="47.77641" lon="-3.6405">
        <ele>22</ele>
        <time>2018-07-18T12:40:53Z</time>
      </trkpt>
      <trkpt lat="47.77644" lon="-3.64048">
        <ele>22</ele>
        <time>2018-07-18T12:40:54Z</time>
      </trkpt>
      <trkpt lat="47.77647" lon="-3.64046">
        <ele>22</ele>
        <time>2018-07-18T12:40:55Z</time>
      </trkpt>
      <trkpt lat="47.77649" lon="-3.64044">
        <ele>21</ele>
        <time>2018-07-18T12:40:56Z</time>
      </trkpt>
      <trkpt lat="47.77651" lon="-3.64042">
        <ele>21</ele>
        <time>2018-07-18T12:40:57Z</time>
      </trkpt>
      <trkpt lat="47.77653" lon="-3.64042">
        <ele>21</ele>
        <time>2018-07-18T12:40:58Z</time>
      </trkpt>
      <trkpt lat="47.77654" lon="-3.64041">
        <ele>21</ele>
        <time>2018-07-18T12:40:59Z</time>
      </trkpt>
      <trkpt lat="47.77654" lon="-3.64041">
        <ele>21</ele>
        <time>2018-07-18T12:41:00Z</time>
      </trkpt>
      <trkpt lat="47.77654" lon="-3.64041">
        <ele>21</ele>
        <time>2018-07-18T12:41:01Z</time>
      </trkpt>
      <trkpt lat="47.77654" lon="-3.64041">
        <ele>21</ele>
        <time>2018-07-18T12:41:02Z</time>
      </trkpt>
      <trkpt lat="47.77654" lon="-3.64041">
        <ele>21</ele>
        <time>2018-07-18T12:41:03Z</time>
      </trkpt>
      <trkpt lat="47.77655" lon="-3.64038">
        <ele>20</ele>
        <time>2018-07-18T12:41:04Z</time>
      </trkpt>
      <trkpt lat="47.77655" lon="-3.64036">
        <ele>20</ele>
        <time>2018-07-18T12:41:05Z</time>
      </trkpt>
      <trkpt lat="47.77654" lon="-3.64033">
        <ele>20</ele>
        <time>2018-07-18T12:41:06Z</time>
      </trkpt>
      <trkpt lat="47.77654" lon="-3.6403">
        <ele>20</ele>
        <time>2018-07-18T12:41:07Z</time>
      </trkpt>
      <trkpt lat="47.77654" lon="-3.64026">
        <ele>20</ele>
        <time>2018-07-18T12:41:08Z</time>
      </trkpt>
      <trkpt lat="47.77654" lon="-3.64022">
        <ele>20</ele>
        <time>2018-07-18T12:41:09Z</time>
      </trkpt>
      <trkpt lat="47.77654" lon="-3.64019">
        <ele>19</ele>
        <time>2018-07-18T12:41:10Z</time>
      </trkpt>
      <trkpt lat="47.77656" lon="-3.64016">
        <ele>19</ele>
        <time>2018-07-18T12:41:11Z</time>
      </trkpt>
      <trkpt lat="47.77657" lon="-3.64013">
        <ele>19</ele>
        <time>2018-07-18T12:41:12Z</time>
      </trkpt>
      <trkpt lat="47.77659" lon="-3.6401">
        <ele>19</ele>
        <time>2018-07-18T12:41:13Z</time>
      </trkpt>
      <trkpt lat="47.7766" lon="-3.64007">
        <ele>20</ele>
        <time>2018-07-18T12:41:14Z</time>
      </trkpt>
      <trkpt lat="47.77661" lon="-3.64003">
        <ele>20</ele>
        <time>2018-07-18T12:41:15Z</time>
      </trkpt>
      <trkpt lat="47.77661" lon="-3.63999">
        <ele>20</ele>
        <time>2018-07-18T12:41:16Z</time>
      </trkpt>
      <trkpt lat="47.77662" lon="-3.63995">
        <ele>20</ele>
        <time>2018-07-18T12:41:17Z</time>
      </trkpt>
      <trkpt lat="47.77664" lon="-3.6399">
        <ele>20</ele>
        <time>2018-07-18T12:41:18Z</time>
      </trkpt>
      <trkpt lat="47.77665" lon="-3.63986">
        <ele>20</ele>
        <time>2018-07-18T12:41:19Z</time>
      </trkpt>
      <trkpt lat="47.77667" lon="-3.63983">
        <ele>20</ele>
        <time>2018-07-18T12:41:20Z</time>
      </trkpt>
      <trkpt lat="47.77669" lon="-3.6398">
        <ele>20</ele>
        <time>2018-07-18T12:41:21Z</time>
      </trkpt>
      <trkpt lat="47.77672" lon="-3.63978">
        <ele>20</ele>
        <time>2018-07-18T12:41:22Z</time>
      </trkpt>
      <trkpt lat="47.77676" lon="-3.63975">
        <ele>20</ele>
        <time>2018-07-18T12:41:23Z</time>
      </trkpt>
      <trkpt lat="47.77679" lon="-3.63972">
        <ele>20</ele>
        <time>2018-07-18T12:41:24Z</time>
      </trkpt>
      <trkpt lat="47.77683" lon="-3.6397">
        <ele>20</ele>
        <time>2018-07-18T12:41:25Z</time>
      </trkpt>
      <trkpt lat="47.77685" lon="-3.63969">
        <ele>20</ele>
        <time>2018-07-18T12:41:26Z</time>
      </trkpt>
      <trkpt lat="47.77688" lon="-3.63969">
        <ele>20</ele>
        <time>2018-07-18T12:41:27Z</time>
      </trkpt>
      <trkpt lat="47.7769" lon="-3.63969">
        <ele>19</ele>
        <time>2018-07-18T12:41:28Z</time>
      </trkpt>
      <trkpt lat="47.7769" lon="-3.63967">
        <ele>19</ele>
        <time>2018-07-18T12:41:29Z</time>
      </trkpt>
      <trkpt lat="47.77691" lon="-3.63966">
        <ele>19</ele>
        <time>2018-07-18T12:41:30Z</time>
      </trkpt>
      <trkpt lat="47.7769" lon="-3.63965">
        <ele>19</ele>
        <time>2018-07-18T12:41:31Z</time>
      </trkpt>
      <trkpt lat="47.7769" lon="-3.63964">
        <ele>19</ele>
        <time>2018-07-18T12:41:32Z</time>
      </trkpt>
      <trkpt lat="47.7769" lon="-3.63964">
        <ele>19</ele>
        <time>2018-07-18T12:41:33Z</time>
      </trkpt>
      <trkpt lat="47.7769" lon="-3.63963">
        <ele>19</ele>
        <time>2018-07-18T12:41:34Z</time>
      </trkpt>
      <trkpt lat="47.7769" lon="-3.63963">
        <ele>19</ele>
        <time>2018-07-18T12:41:35Z</time>
      </trkpt>
      <trkpt lat="47.77691" lon="-3.63962">
        <ele>19</ele>
        <time>2018-07-18T12:41:36Z</time>
      </trkpt>
      <trkpt lat="47.7769" lon="-3.6396">
        <ele>19</ele>
        <time>2018-07-18T12:41:37Z</time>
      </trkpt>
      <trkpt lat="47.77691" lon="-3.63959">
        <ele>19</ele>
        <time>2018-07-18T12:41:38Z</time>
      </trkpt>
      <trkpt lat="47.77692" lon="-3.63959">
        <ele>19</ele>
        <time>2018-07-18T12:41:39Z</time>
      </trkpt>
      <trkpt lat="47.77692" lon="-3.63959">
        <ele>19</ele>
        <time>2018-07-18T12:41:40Z</time>
      </trkpt>
      <trkpt lat="47.77693" lon="-3.63959">
        <ele>19</ele>
        <time>2018-07-18T12:41:41Z</time>
      </trkpt>
      <trkpt lat="47.77694" lon="-3.63959">
        <ele>19</ele>
        <time>2018-07-18T12:41:42Z</time>
      </trkpt>
      <trkpt lat="47.77694" lon="-3.63958">
        <ele>19</ele>
        <time>2018-07-18T12:41:43Z</time>
      </trkpt>
      <trkpt lat="47.77694" lon="-3.63957">
        <ele>19</ele>
        <time>2018-07-18T12:41:44Z</time>
      </trkpt>
      <trkpt lat="47.77695" lon="-3.63956">
        <ele>19</ele>
        <time>2018-07-18T12:41:45Z</time>
      </trkpt>
      <trkpt lat="47.77695" lon="-3.63956">
        <ele>19</ele>
        <time>2018-07-18T12:41:46Z</time>
      </trkpt>
      <trkpt lat="47.77695" lon="-3.63955">
        <ele>19</ele>
        <time>2018-07-18T12:41:47Z</time>
      </trkpt>
      <trkpt lat="47.77695" lon="-3.63955">
        <ele>19</ele>
        <time>2018-07-18T12:41:48Z</time>
      </trkpt>
      <trkpt lat="47.77696" lon="-3.63955">
        <ele>19</ele>
        <time>2018-07-18T12:41:49Z</time>
      </trkpt>
      <trkpt lat="47.77697" lon="-3.63955">
        <ele>19</ele>
        <time>2018-07-18T12:41:50Z</time>
      </trkpt>
      <trkpt lat="47.77697" lon="-3.63955">
        <ele>19</ele>
        <time>2018-07-18T12:41:51Z</time>
      </trkpt>
      <trkpt lat="47.77698" lon="-3.63954">
        <ele>19</ele>
        <time>2018-07-18T12:41:52Z</time>
      </trkpt>
      <trkpt lat="47.77699" lon="-3.63954">
        <ele>19</ele>
        <time>2018-07-18T12:41:53Z</time>
      </trkpt>
      <trkpt lat="47.77701" lon="-3.63952">
        <ele>19</ele>
        <time>2018-07-18T12:41:54Z</time>
      </trkpt>
      <trkpt lat="47.77703" lon="-3.63951">
        <ele>19</ele>
        <time>2018-07-18T12:41:55Z</time>
      </trkpt>
      <trkpt lat="47.77706" lon="-3.6395">
        <ele>19</ele>
        <time>2018-07-18T12:41:56Z</time>
      </trkpt>
      <trkpt lat="47.77708" lon="-3.63949">
        <ele>19</ele>
        <time>2018-07-18T12:41:57Z</time>
      </trkpt>
      <trkpt lat="47.77709" lon="-3.63947">
        <ele>19</ele>
        <time>2018-07-18T12:41:58Z</time>
      </trkpt>
      <trkpt lat="47.7771" lon="-3.63944">
        <ele>18</ele>
        <time>2018-07-18T12:41:59Z</time>
      </trkpt>
      <trkpt lat="47.77711" lon="-3.6394">
        <ele>18</ele>
        <time>2018-07-18T12:42:00Z</time>
      </trkpt>
      <trkpt lat="47.77713" lon="-3.63935">
        <ele>18</ele>
        <time>2018-07-18T12:42:01Z</time>
      </trkpt>
      <trkpt lat="47.77715" lon="-3.63931">
        <ele>18</ele>
        <time>2018-07-18T12:42:02Z</time>
      </trkpt>
      <trkpt lat="47.77719" lon="-3.63928">
        <ele>18</ele>
        <time>2018-07-18T12:42:03Z</time>
      </trkpt>
      <trkpt lat="47.77721" lon="-3.63926">
        <ele>18</ele>
        <time>2018-07-18T12:42:04Z</time>
      </trkpt>
      <trkpt lat="47.77722" lon="-3.63924">
        <ele>17</ele>
        <time>2018-07-18T12:42:05Z</time>
      </trkpt>
      <trkpt lat="47.77723" lon="-3.63924">
        <ele>17</ele>
        <time>2018-07-18T12:42:06Z</time>
      </trkpt>
      <trkpt lat="47.77723" lon="-3.63924">
        <ele>17</ele>
        <time>2018-07-18T12:42:07Z</time>
      </trkpt>
      <trkpt lat="47.77724" lon="-3.63924">
        <ele>17</ele>
        <time>2018-07-18T12:42:08Z</time>
      </trkpt>
      <trkpt lat="47.77724" lon="-3.63923">
        <ele>16</ele>
        <time>2018-07-18T12:42:09Z</time>
      </trkpt>
      <trkpt lat="47.77724" lon="-3.63921">
        <ele>15</ele>
        <time>2018-07-18T12:42:10Z</time>
      </trkpt>
      <trkpt lat="47.77724" lon="-3.63919">
        <ele>15</ele>
        <time>2018-07-18T12:42:11Z</time>
      </trkpt>
      <trkpt lat="47.77723" lon="-3.63917">
        <ele>15</ele>
        <time>2018-07-18T12:42:12Z</time>
      </trkpt>
      <trkpt lat="47.77723" lon="-3.63916">
        <ele>14</ele>
        <time>2018-07-18T12:42:13Z</time>
      </trkpt>
      <trkpt lat="47.77723" lon="-3.63914">
        <ele>14</ele>
        <time>2018-07-18T12:42:14Z</time>
      </trkpt>
      <trkpt lat="47.77723" lon="-3.63912">
        <ele>13</ele>
        <time>2018-07-18T12:42:15Z</time>
      </trkpt>
      <trkpt lat="47.77723" lon="-3.6391">
        <ele>13</ele>
        <time>2018-07-18T12:42:16Z</time>
      </trkpt>
      <trkpt lat="47.77723" lon="-3.63908">
        <ele>13</ele>
        <time>2018-07-18T12:42:17Z</time>
      </trkpt>
      <trkpt lat="47.77723" lon="-3.63906">
        <ele>12</ele>
        <time>2018-07-18T12:42:18Z</time>
      </trkpt>
      <trkpt lat="47.77722" lon="-3.63905">
        <ele>12</ele>
        <time>2018-07-18T12:42:19Z</time>
      </trkpt>
      <trkpt lat="47.77722" lon="-3.63902">
        <ele>12</ele>
        <time>2018-07-18T12:42:20Z</time>
      </trkpt>
      <trkpt lat="47.77722" lon="-3.63901">
        <ele>11</ele>
        <time>2018-07-18T12:42:21Z</time>
      </trkpt>
      <trkpt lat="47.77721" lon="-3.63899">
        <ele>11</ele>
        <time>2018-07-18T12:42:22Z</time>
      </trkpt>
      <trkpt lat="47.77721" lon="-3.63897">
        <ele>11</ele>
        <time>2018-07-18T12:42:23Z</time>
      </trkpt>
      <trkpt lat="47.77722" lon="-3.63896">
        <ele>11</ele>
        <time>2018-07-18T12:42:24Z</time>
      </trkpt>
      <trkpt lat="47.77722" lon="-3.63895">
        <ele>10</ele>
        <time>2018-07-18T12:42:25Z</time>
      </trkpt>
      <trkpt lat="47.77722" lon="-3.63894">
        <ele>10</ele>
        <time>2018-07-18T12:42:26Z</time>
      </trkpt>
      <trkpt lat="47.77722" lon="-3.63893">
        <ele>10</ele>
        <time>2018-07-18T12:42:27Z</time>
      </trkpt>
      <trkpt lat="47.77722" lon="-3.63892">
        <ele>10</ele>
        <time>2018-07-18T12:42:28Z</time>
      </trkpt>
      <trkpt lat="47.77723" lon="-3.63891">
        <ele>10</ele>
        <time>2018-07-18T12:42:29Z</time>
      </trkpt>
      <trkpt lat="47.77723" lon="-3.63891">
        <ele>10</ele>
        <time>2018-07-18T12:42:30Z</time>
      </trkpt>
      <trkpt lat="47.77723" lon="-3.63891">
        <ele>10</ele>
        <time>2018-07-18T12:42:31Z</time>
      </trkpt>
      <trkpt lat="47.77722" lon="-3.63889">
        <ele>10</ele>
        <time>2018-07-18T12:42:32Z</time>
      </trkpt>
      <trkpt lat="47.77721" lon="-3.63888">
        <ele>10</ele>
        <time>2018-07-18T12:42:33Z</time>
      </trkpt>
      <trkpt lat="47.7772" lon="-3.63888">
        <ele>10</ele>
        <time>2018-07-18T12:42:34Z</time>
      </trkpt>
      <trkpt lat="47.7772" lon="-3.63887">
        <ele>10</ele>
        <time>2018-07-18T12:42:35Z</time>
      </trkpt>
      <trkpt lat="47.77719" lon="-3.63886">
        <ele>10</ele>
        <time>2018-07-18T12:42:36Z</time>
      </trkpt>
      <trkpt lat="47.77719" lon="-3.63886">
        <ele>10</ele>
        <time>2018-07-18T12:42:37Z</time>
      </trkpt>
      <trkpt lat="47.77719" lon="-3.63886">
        <ele>10</ele>
        <time>2018-07-18T12:42:38Z</time>
      </trkpt>
      <trkpt lat="47.77719" lon="-3.63886">
        <ele>10</ele>
        <time>2018-07-18T12:42:39Z</time>
      </trkpt>
      <trkpt lat="47.77719" lon="-3.63886">
        <ele>10</ele>
        <time>2018-07-18T12:42:40Z</time>
      </trkpt>
      <trkpt lat="47.77718" lon="-3.63885">
        <ele>10</ele>
        <time>2018-07-18T12:42:41Z</time>
      </trkpt>
      <trkpt lat="47.77718" lon="-3.63884">
        <ele>10</ele>
        <time>2018-07-18T12:42:42Z</time>
      </trkpt>
      <trkpt lat="47.77718" lon="-3.63883">
        <ele>10</ele>
        <time>2018-07-18T12:42:43Z</time>
      </trkpt>
      <trkpt lat="47.77717" lon="-3.63882">
        <ele>10</ele>
        <time>2018-07-18T12:42:44Z</time>
      </trkpt>
      <trkpt lat="47.77717" lon="-3.63882">
        <ele>10</ele>
        <time>2018-07-18T12:42:45Z</time>
      </trkpt>
      <trkpt lat="47.77717" lon="-3.63881">
        <ele>10</ele>
        <time>2018-07-18T12:42:46Z</time>
      </trkpt>
      <trkpt lat="47.77716" lon="-3.63881">
        <ele>10</ele>
        <time>2018-07-18T12:42:47Z</time>
      </trkpt>
      <trkpt lat="47.77716" lon="-3.6388">
        <ele>11</ele>
        <time>2018-07-18T12:42:48Z</time>
      </trkpt>
      <trkpt lat="47.77715" lon="-3.63879">
        <ele>11</ele>
        <time>2018-07-18T12:42:49Z</time>
      </trkpt>
      <trkpt lat="47.77715" lon="-3.63879">
        <ele>11</ele>
        <time>2018-07-18T12:42:50Z</time>
      </trkpt>
      <trkpt lat="47.77715" lon="-3.63878">
        <ele>11</ele>
        <time>2018-07-18T12:42:51Z</time>
      </trkpt>
      <trkpt lat="47.77714" lon="-3.63878">
        <ele>11</ele>
        <time>2018-07-18T12:42:52Z</time>
      </trkpt>
      <trkpt lat="47.77714" lon="-3.63877">
        <ele>11</ele>
        <time>2018-07-18T12:42:53Z</time>
      </trkpt>
      <trkpt lat="47.77714" lon="-3.63876">
        <ele>12</ele>
        <time>2018-07-18T12:42:54Z</time>
      </trkpt>
      <trkpt lat="47.77714" lon="-3.63876">
        <ele>12</ele>
        <time>2018-07-18T12:42:55Z</time>
      </trkpt>
      <trkpt lat="47.77713" lon="-3.63874">
        <ele>12</ele>
        <time>2018-07-18T12:42:56Z</time>
      </trkpt>
      <trkpt lat="47.77713" lon="-3.63872">
        <ele>12</ele>
        <time>2018-07-18T12:42:57Z</time>
      </trkpt>
      <trkpt lat="47.77713" lon="-3.63871">
        <ele>12</ele>
        <time>2018-07-18T12:42:58Z</time>
      </trkpt>
      <trkpt lat="47.77713" lon="-3.6387">
        <ele>12</ele>
        <time>2018-07-18T12:42:59Z</time>
      </trkpt>
      <trkpt lat="47.77713" lon="-3.63869">
        <ele>12</ele>
        <time>2018-07-18T12:43:00Z</time>
      </trkpt>
      <trkpt lat="47.77713" lon="-3.63868">
        <ele>12</ele>
        <time>2018-07-18T12:43:01Z</time>
      </trkpt>
      <trkpt lat="47.77714" lon="-3.63866">
        <ele>12</ele>
        <time>2018-07-18T12:43:02Z</time>
      </trkpt>
      <trkpt lat="47.77714" lon="-3.63865">
        <ele>12</ele>
        <time>2018-07-18T12:43:03Z</time>
      </trkpt>
      <trkpt lat="47.77714" lon="-3.63865">
        <ele>12</ele>
        <time>2018-07-18T12:43:04Z</time>
      </trkpt>
      <trkpt lat="47.77714" lon="-3.63865">
        <ele>12</ele>
        <time>2018-07-18T12:43:05Z</time>
      </trkpt>
      <trkpt lat="47.77714" lon="-3.63865">
        <ele>12</ele>
        <time>2018-07-18T12:43:06Z</time>
      </trkpt>
      <trkpt lat="47.77714" lon="-3.63865">
        <ele>12</ele>
        <time>2018-07-18T12:43:07Z</time>
      </trkpt>
      <trkpt lat="47.77714" lon="-3.63863">
        <ele>11</ele>
        <time>2018-07-18T12:43:08Z</time>
      </trkpt>
      <trkpt lat="47.77714" lon="-3.63861">
        <ele>11</ele>
        <time>2018-07-18T12:43:09Z</time>
      </trkpt>
      <trkpt lat="47.77714" lon="-3.63859">
        <ele>11</ele>
        <time>2018-07-18T12:43:10Z</time>
      </trkpt>
      <trkpt lat="47.77715" lon="-3.63857">
        <ele>11</ele>
        <time>2018-07-18T12:43:11Z</time>
      </trkpt>
      <trkpt lat="47.77715" lon="-3.63855">
        <ele>12</ele>
        <time>2018-07-18T12:43:12Z</time>
      </trkpt>
      <trkpt lat="47.77716" lon="-3.63852">
        <ele>12</ele>
        <time>2018-07-18T12:43:13Z</time>
      </trkpt>
      <trkpt lat="47.77717" lon="-3.6385">
        <ele>12</ele>
        <time>2018-07-18T12:43:14Z</time>
      </trkpt>
      <trkpt lat="47.77717" lon="-3.63847">
        <ele>12</ele>
        <time>2018-07-18T12:43:15Z</time>
      </trkpt>
      <trkpt lat="47.77718" lon="-3.63844">
        <ele>12</ele>
        <time>2018-07-18T12:43:16Z</time>
      </trkpt>
      <trkpt lat="47.77719" lon="-3.63841">
        <ele>12</ele>
        <time>2018-07-18T12:43:17Z</time>
      </trkpt>
      <trkpt lat="47.77719" lon="-3.63838">
        <ele>13</ele>
        <time>2018-07-18T12:43:18Z</time>
      </trkpt>
      <trkpt lat="47.77719" lon="-3.63835">
        <ele>13</ele>
        <time>2018-07-18T12:43:19Z</time>
      </trkpt>
      <trkpt lat="47.77719" lon="-3.63832">
        <ele>13</ele>
        <time>2018-07-18T12:43:20Z</time>
      </trkpt>
      <trkpt lat="47.7772" lon="-3.63829">
        <ele>13</ele>
        <time>2018-07-18T12:43:21Z</time>
      </trkpt>
      <trkpt lat="47.7772" lon="-3.63826">
        <ele>13</ele>
        <time>2018-07-18T12:43:22Z</time>
      </trkpt>
      <trkpt lat="47.7772" lon="-3.63823">
        <ele>14</ele>
        <time>2018-07-18T12:43:23Z</time>
      </trkpt>
      <trkpt lat="47.77721" lon="-3.6382">
        <ele>14</ele>
        <time>2018-07-18T12:43:24Z</time>
      </trkpt>
      <trkpt lat="47.77722" lon="-3.63818">
        <ele>14</ele>
        <time>2018-07-18T12:43:25Z</time>
      </trkpt>
      <trkpt lat="47.77722" lon="-3.63816">
        <ele>14</ele>
        <time>2018-07-18T12:43:26Z</time>
      </trkpt>
      <trkpt lat="47.77723" lon="-3.63814">
        <ele>14</ele>
        <time>2018-07-18T12:43:27Z</time>
      </trkpt>
      <trkpt lat="47.77724" lon="-3.63812">
        <ele>15</ele>
        <time>2018-07-18T12:43:28Z</time>
      </trkpt>
      <trkpt lat="47.77726" lon="-3.63811">
        <ele>15</ele>
        <time>2018-07-18T12:43:29Z</time>
      </trkpt>
      <trkpt lat="47.77727" lon="-3.63809">
        <ele>15</ele>
        <time>2018-07-18T12:43:30Z</time>
      </trkpt>
      <trkpt lat="47.77728" lon="-3.63808">
        <ele>15</ele>
        <time>2018-07-18T12:43:31Z</time>
      </trkpt>
      <trkpt lat="47.77729" lon="-3.63806">
        <ele>15</ele>
        <time>2018-07-18T12:43:32Z</time>
      </trkpt>
      <trkpt lat="47.7773" lon="-3.63804">
        <ele>15</ele>
        <time>2018-07-18T12:43:33Z</time>
      </trkpt>
      <trkpt lat="47.77732" lon="-3.63802">
        <ele>16</ele>
        <time>2018-07-18T12:43:34Z</time>
      </trkpt>
      <trkpt lat="47.77734" lon="-3.63799">
        <ele>16</ele>
        <time>2018-07-18T12:43:35Z</time>
      </trkpt>
      <trkpt lat="47.77735" lon="-3.63797">
        <ele>16</ele>
        <time>2018-07-18T12:43:36Z</time>
      </trkpt>
      <trkpt lat="47.77736" lon="-3.63794">
        <ele>17</ele>
        <time>2018-07-18T12:43:37Z</time>
      </trkpt>
      <trkpt lat="47.77738" lon="-3.63792">
        <ele>17</ele>
        <time>2018-07-18T12:43:38Z</time>
      </trkpt>
      <trkpt lat="47.77739" lon="-3.6379">
        <ele>17</ele>
        <time>2018-07-18T12:43:39Z</time>
      </trkpt>
      <trkpt lat="47.77741" lon="-3.63787">
        <ele>17</ele>
        <time>2018-07-18T12:43:40Z</time>
      </trkpt>
      <trkpt lat="47.77743" lon="-3.63784">
        <ele>18</ele>
        <time>2018-07-18T12:43:41Z</time>
      </trkpt>
      <trkpt lat="47.77745" lon="-3.63782">
        <ele>18</ele>
        <time>2018-07-18T12:43:42Z</time>
      </trkpt>
      <trkpt lat="47.77746" lon="-3.63779">
        <ele>18</ele>
        <time>2018-07-18T12:43:43Z</time>
      </trkpt>
      <trkpt lat="47.77748" lon="-3.63776">
        <ele>18</ele>
        <time>2018-07-18T12:43:44Z</time>
      </trkpt>
      <trkpt lat="47.77749" lon="-3.63773">
        <ele>18</ele>
        <time>2018-07-18T12:43:45Z</time>
      </trkpt>
      <trkpt lat="47.77751" lon="-3.63769">
        <ele>19</ele>
        <time>2018-07-18T12:43:46Z</time>
      </trkpt>
      <trkpt lat="47.77752" lon="-3.63766">
        <ele>19</ele>
        <time>2018-07-18T12:43:47Z</time>
      </trkpt>
      <trkpt lat="47.77753" lon="-3.63762">
        <ele>19</ele>
        <time>2018-07-18T12:43:48Z</time>
      </trkpt>
      <trkpt lat="47.77755" lon="-3.63757">
        <ele>19</ele>
        <time>2018-07-18T12:43:49Z</time>
      </trkpt>
      <trkpt lat="47.77756" lon="-3.63754">
        <ele>19</ele>
        <time>2018-07-18T12:43:50Z</time>
      </trkpt>
      <trkpt lat="47.77757" lon="-3.63749">
        <ele>20</ele>
        <time>2018-07-18T12:43:51Z</time>
      </trkpt>
      <trkpt lat="47.77758" lon="-3.63745">
        <ele>20</ele>
        <time>2018-07-18T12:43:52Z</time>
      </trkpt>
      <trkpt lat="47.77759" lon="-3.63741">
        <ele>20</ele>
        <time>2018-07-18T12:43:53Z</time>
      </trkpt>
      <trkpt lat="47.7776" lon="-3.63736">
        <ele>20</ele>
        <time>2018-07-18T12:43:54Z</time>
      </trkpt>
      <trkpt lat="47.77761" lon="-3.63731">
        <ele>20</ele>
        <time>2018-07-18T12:43:55Z</time>
      </trkpt>
      <trkpt lat="47.77761" lon="-3.63727">
        <ele>20</ele>
        <time>2018-07-18T12:43:56Z</time>
      </trkpt>
      <trkpt lat="47.77762" lon="-3.63722">
        <ele>21</ele>
        <time>2018-07-18T12:43:57Z</time>
      </trkpt>
      <trkpt lat="47.77762" lon="-3.63717">
        <ele>21</ele>
        <time>2018-07-18T12:43:58Z</time>
      </trkpt>
      <trkpt lat="47.77763" lon="-3.63713">
        <ele>21</ele>
        <time>2018-07-18T12:43:59Z</time>
      </trkpt>
      <trkpt lat="47.77764" lon="-3.63708">
        <ele>21</ele>
        <time>2018-07-18T12:44:00Z</time>
      </trkpt>
      <trkpt lat="47.77765" lon="-3.63704">
        <ele>21</ele>
        <time>2018-07-18T12:44:01Z</time>
      </trkpt>
      <trkpt lat="47.77767" lon="-3.63699">
        <ele>22</ele>
        <time>2018-07-18T12:44:02Z</time>
      </trkpt>
      <trkpt lat="47.77768" lon="-3.63695">
        <ele>22</ele>
        <time>2018-07-18T12:44:03Z</time>
      </trkpt>
      <trkpt lat="47.77769" lon="-3.63691">
        <ele>22</ele>
        <time>2018-07-18T12:44:04Z</time>
      </trkpt>
      <trkpt lat="47.7777" lon="-3.63687">
        <ele>22</ele>
        <time>2018-07-18T12:44:05Z</time>
      </trkpt>
      <trkpt lat="47.77771" lon="-3.63683">
        <ele>22</ele>
        <time>2018-07-18T12:44:06Z</time>
      </trkpt>
      <trkpt lat="47.77772" lon="-3.63681">
        <ele>23</ele>
        <time>2018-07-18T12:44:07Z</time>
      </trkpt>
      <trkpt lat="47.77773" lon="-3.63679">
        <ele>23</ele>
        <time>2018-07-18T12:44:08Z</time>
      </trkpt>
      <trkpt lat="47.77773" lon="-3.63678">
        <ele>23</ele>
        <time>2018-07-18T12:44:09Z</time>
      </trkpt>
      <trkpt lat="47.77773" lon="-3.63678">
        <ele>23</ele>
        <time>2018-07-18T12:44:10Z</time>
      </trkpt>
      <trkpt lat="47.77773" lon="-3.63678">
        <ele>23</ele>
        <time>2018-07-18T12:44:11Z</time>
      </trkpt>
      <trkpt lat="47.77775" lon="-3.63676">
        <ele>23</ele>
        <time>2018-07-18T12:44:12Z</time>
      </trkpt>
      <trkpt lat="47.77777" lon="-3.63676">
        <ele>23</ele>
        <time>2018-07-18T12:44:13Z</time>
      </trkpt>
      <trkpt lat="47.77779" lon="-3.63677">
        <ele>23</ele>
        <time>2018-07-18T12:44:14Z</time>
      </trkpt>
      <trkpt lat="47.77782" lon="-3.63678">
        <ele>23</ele>
        <time>2018-07-18T12:44:15Z</time>
      </trkpt>
      <trkpt lat="47.77785" lon="-3.63679">
        <ele>23</ele>
        <time>2018-07-18T12:44:16Z</time>
      </trkpt>
      <trkpt lat="47.77788" lon="-3.6368">
        <ele>24</ele>
        <time>2018-07-18T12:44:17Z</time>
      </trkpt>
      <trkpt lat="47.77791" lon="-3.63681">
        <ele>24</ele>
        <time>2018-07-18T12:44:18Z</time>
      </trkpt>
      <trkpt lat="47.77794" lon="-3.63681">
        <ele>24</ele>
        <time>2018-07-18T12:44:19Z</time>
      </trkpt>
      <trkpt lat="47.77798" lon="-3.63682">
        <ele>24</ele>
        <time>2018-07-18T12:44:20Z</time>
      </trkpt>
      <trkpt lat="47.77801" lon="-3.63682">
        <ele>24</ele>
        <time>2018-07-18T12:44:21Z</time>
      </trkpt>
      <trkpt lat="47.77805" lon="-3.6368">
        <ele>24</ele>
        <time>2018-07-18T12:44:22Z</time>
      </trkpt>
      <trkpt lat="47.77808" lon="-3.63678">
        <ele>24</ele>
        <time>2018-07-18T12:44:23Z</time>
      </trkpt>
      <trkpt lat="47.7781" lon="-3.63674">
        <ele>25</ele>
        <time>2018-07-18T12:44:24Z</time>
      </trkpt>
      <trkpt lat="47.77812" lon="-3.6367">
        <ele>25</ele>
        <time>2018-07-18T12:44:25Z</time>
      </trkpt>
      <trkpt lat="47.77814" lon="-3.63665">
        <ele>25</ele>
        <time>2018-07-18T12:44:26Z</time>
      </trkpt>
      <trkpt lat="47.77816" lon="-3.6366">
        <ele>25</ele>
        <time>2018-07-18T12:44:27Z</time>
      </trkpt>
      <trkpt lat="47.77818" lon="-3.63655">
        <ele>26</ele>
        <time>2018-07-18T12:44:28Z</time>
      </trkpt>
      <trkpt lat="47.77819" lon="-3.6365">
        <ele>26</ele>
        <time>2018-07-18T12:44:29Z</time>
      </trkpt>
      <trkpt lat="47.7782" lon="-3.63645">
        <ele>26</ele>
        <time>2018-07-18T12:44:30Z</time>
      </trkpt>
      <trkpt lat="47.77822" lon="-3.63641">
        <ele>26</ele>
        <time>2018-07-18T12:44:31Z</time>
      </trkpt>
      <trkpt lat="47.77823" lon="-3.63636">
        <ele>26</ele>
        <time>2018-07-18T12:44:32Z</time>
      </trkpt>
      <trkpt lat="47.77824" lon="-3.6363">
        <ele>26</ele>
        <time>2018-07-18T12:44:33Z</time>
      </trkpt>
      <trkpt lat="47.77826" lon="-3.63625">
        <ele>27</ele>
        <time>2018-07-18T12:44:34Z</time>
      </trkpt>
      <trkpt lat="47.77828" lon="-3.6362">
        <ele>27</ele>
        <time>2018-07-18T12:44:35Z</time>
      </trkpt>
      <trkpt lat="47.77829" lon="-3.63614">
        <ele>27</ele>
        <time>2018-07-18T12:44:36Z</time>
      </trkpt>
      <trkpt lat="47.77831" lon="-3.63608">
        <ele>27</ele>
        <time>2018-07-18T12:44:37Z</time>
      </trkpt>
      <trkpt lat="47.77832" lon="-3.63602">
        <ele>27</ele>
        <time>2018-07-18T12:44:38Z</time>
      </trkpt>
      <trkpt lat="47.77833" lon="-3.63596">
        <ele>27</ele>
        <time>2018-07-18T12:44:39Z</time>
      </trkpt>
      <trkpt lat="47.77834" lon="-3.63589">
        <ele>27</ele>
        <time>2018-07-18T12:44:40Z</time>
      </trkpt>
      <trkpt lat="47.77835" lon="-3.63583">
        <ele>27</ele>
        <time>2018-07-18T12:44:41Z</time>
      </trkpt>
      <trkpt lat="47.77837" lon="-3.63576">
        <ele>27</ele>
        <time>2018-07-18T12:44:42Z</time>
      </trkpt>
      <trkpt lat="47.77838" lon="-3.63569">
        <ele>27</ele>
        <time>2018-07-18T12:44:43Z</time>
      </trkpt>
      <trkpt lat="47.77838" lon="-3.63562">
        <ele>27</ele>
        <time>2018-07-18T12:44:44Z</time>
      </trkpt>
      <trkpt lat="47.77839" lon="-3.63556">
        <ele>27</ele>
        <time>2018-07-18T12:44:45Z</time>
      </trkpt>
      <trkpt lat="47.7784" lon="-3.63549">
        <ele>28</ele>
        <time>2018-07-18T12:44:46Z</time>
      </trkpt>
      <trkpt lat="47.77841" lon="-3.63542">
        <ele>28</ele>
        <time>2018-07-18T12:44:47Z</time>
      </trkpt>
      <trkpt lat="47.77841" lon="-3.63535">
        <ele>28</ele>
        <time>2018-07-18T12:44:48Z</time>
      </trkpt>
      <trkpt lat="47.77841" lon="-3.63528">
        <ele>28</ele>
        <time>2018-07-18T12:44:49Z</time>
      </trkpt>
      <trkpt lat="47.77842" lon="-3.63521">
        <ele>28</ele>
        <time>2018-07-18T12:44:50Z</time>
      </trkpt>
      <trkpt lat="47.77843" lon="-3.63514">
        <ele>28</ele>
        <time>2018-07-18T12:44:51Z</time>
      </trkpt>
      <trkpt lat="47.77843" lon="-3.63508">
        <ele>28</ele>
        <time>2018-07-18T12:44:52Z</time>
      </trkpt>
      <trkpt lat="47.77843" lon="-3.63501">
        <ele>28</ele>
        <time>2018-07-18T12:44:53Z</time>
      </trkpt>
      <trkpt lat="47.77844" lon="-3.63494">
        <ele>28</ele>
        <time>2018-07-18T12:44:54Z</time>
      </trkpt>
      <trkpt lat="47.77844" lon="-3.63488">
        <ele>28</ele>
        <time>2018-07-18T12:44:55Z</time>
      </trkpt>
      <trkpt lat="47.77845" lon="-3.63481">
        <ele>28</ele>
        <time>2018-07-18T12:44:56Z</time>
      </trkpt>
      <trkpt lat="47.77845" lon="-3.63475">
        <ele>28</ele>
        <time>2018-07-18T12:44:57Z</time>
      </trkpt>
      <trkpt lat="47.77845" lon="-3.6347">
        <ele>28</ele>
        <time>2018-07-18T12:44:58Z</time>
      </trkpt>
      <trkpt lat="47.77845" lon="-3.63467">
        <ele>28</ele>
        <time>2018-07-18T12:44:59Z</time>
      </trkpt>
      <trkpt lat="47.77844" lon="-3.63466">
        <ele>28</ele>
        <time>2018-07-18T12:45:00Z</time>
      </trkpt>
      <trkpt lat="47.77843" lon="-3.63466">
        <ele>28</ele>
        <time>2018-07-18T12:45:01Z</time>
      </trkpt>
      <trkpt lat="47.77841" lon="-3.63467">
        <ele>28</ele>
        <time>2018-07-18T12:45:02Z</time>
      </trkpt>
      <trkpt lat="47.77838" lon="-3.63468">
        <ele>28</ele>
        <time>2018-07-18T12:45:03Z</time>
      </trkpt>
      <trkpt lat="47.77836" lon="-3.63469">
        <ele>28</ele>
        <time>2018-07-18T12:45:04Z</time>
      </trkpt>
      <trkpt lat="47.77833" lon="-3.6347">
        <ele>28</ele>
        <time>2018-07-18T12:45:05Z</time>
      </trkpt>
      <trkpt lat="47.7783" lon="-3.63471">
        <ele>28</ele>
        <time>2018-07-18T12:45:06Z</time>
      </trkpt>
      <trkpt lat="47.77827" lon="-3.63471">
        <ele>28</ele>
        <time>2018-07-18T12:45:07Z</time>
      </trkpt>
      <trkpt lat="47.77824" lon="-3.63471">
        <ele>28</ele>
        <time>2018-07-18T12:45:08Z</time>
      </trkpt>
      <trkpt lat="47.7782" lon="-3.63471">
        <ele>28</ele>
        <time>2018-07-18T12:45:09Z</time>
      </trkpt>
      <trkpt lat="47.77817" lon="-3.63472">
        <ele>28</ele>
        <time>2018-07-18T12:45:10Z</time>
      </trkpt>
      <trkpt lat="47.77813" lon="-3.63472">
        <ele>28</ele>
        <time>2018-07-18T12:45:11Z</time>
      </trkpt>
      <trkpt lat="47.77809" lon="-3.63472">
        <ele>28</ele>
        <time>2018-07-18T12:45:12Z</time>
      </trkpt>
      <trkpt lat="47.77804" lon="-3.63472">
        <ele>28</ele>
        <time>2018-07-18T12:45:13Z</time>
      </trkpt>
      <trkpt lat="47.778" lon="-3.63472">
        <ele>28</ele>
        <time>2018-07-18T12:45:14Z</time>
      </trkpt>
      <trkpt lat="47.77796" lon="-3.63472">
        <ele>27</ele>
        <time>2018-07-18T12:45:15Z</time>
      </trkpt>
      <trkpt lat="47.77791" lon="-3.63472">
        <ele>27</ele>
        <time>2018-07-18T12:45:16Z</time>
      </trkpt>
      <trkpt lat="47.77787" lon="-3.63473">
        <ele>27</ele>
        <time>2018-07-18T12:45:17Z</time>
      </trkpt>
      <trkpt lat="47.77783" lon="-3.63473">
        <ele>27</ele>
        <time>2018-07-18T12:45:18Z</time>
      </trkpt>
      <trkpt lat="47.77779" lon="-3.63474">
        <ele>27</ele>
        <time>2018-07-18T12:45:19Z</time>
      </trkpt>
      <trkpt lat="47.77776" lon="-3.63474">
        <ele>27</ele>
        <time>2018-07-18T12:45:20Z</time>
      </trkpt>
      <trkpt lat="47.77772" lon="-3.63474">
        <ele>27</ele>
        <time>2018-07-18T12:45:21Z</time>
      </trkpt>
      <trkpt lat="47.77768" lon="-3.63474">
        <ele>27</ele>
        <time>2018-07-18T12:45:22Z</time>
      </trkpt>
      <trkpt lat="47.77764" lon="-3.63474">
        <ele>27</ele>
        <time>2018-07-18T12:45:23Z</time>
      </trkpt>
      <trkpt lat="47.7776" lon="-3.63474">
        <ele>27</ele>
        <time>2018-07-18T12:45:24Z</time>
      </trkpt>
      <trkpt lat="47.77756" lon="-3.63474">
        <ele>27</ele>
        <time>2018-07-18T12:45:25Z</time>
      </trkpt>
      <trkpt lat="47.77751" lon="-3.63474">
        <ele>27</ele>
        <time>2018-07-18T12:45:26Z</time>
      </trkpt>
      <trkpt lat="47.77747" lon="-3.63475">
        <ele>26</ele>
        <time>2018-07-18T12:45:27Z</time>
      </trkpt>
      <trkpt lat="47.77742" lon="-3.63475">
        <ele>26</ele>
        <time>2018-07-18T12:45:28Z</time>
      </trkpt>
      <trkpt lat="47.77737" lon="-3.63477">
        <ele>26</ele>
        <time>2018-07-18T12:45:29Z</time>
      </trkpt>
      <trkpt lat="47.77733" lon="-3.63478">
        <ele>26</ele>
        <time>2018-07-18T12:45:30Z</time>
      </trkpt>
      <trkpt lat="47.77728" lon="-3.6348">
        <ele>25</ele>
        <time>2018-07-18T12:45:31Z</time>
      </trkpt>
      <trkpt lat="47.77723" lon="-3.63481">
        <ele>25</ele>
        <time>2018-07-18T12:45:32Z</time>
      </trkpt>
      <trkpt lat="47.77719" lon="-3.63482">
        <ele>25</ele>
        <time>2018-07-18T12:45:33Z</time>
      </trkpt>
      <trkpt lat="47.77714" lon="-3.63483">
        <ele>25</ele>
        <time>2018-07-18T12:45:34Z</time>
      </trkpt>
      <trkpt lat="47.7771" lon="-3.63485">
        <ele>25</ele>
        <time>2018-07-18T12:45:35Z</time>
      </trkpt>
      <trkpt lat="47.77705" lon="-3.63486">
        <ele>24</ele>
        <time>2018-07-18T12:45:36Z</time>
      </trkpt>
      <trkpt lat="47.77701" lon="-3.63488">
        <ele>24</ele>
        <time>2018-07-18T12:45:37Z</time>
      </trkpt>
      <trkpt lat="47.77696" lon="-3.6349">
        <ele>24</ele>
        <time>2018-07-18T12:45:38Z</time>
      </trkpt>
      <trkpt lat="47.77691" lon="-3.63491">
        <ele>24</ele>
        <time>2018-07-18T12:45:39Z</time>
      </trkpt>
      <trkpt lat="47.77687" lon="-3.63492">
        <ele>24</ele>
        <time>2018-07-18T12:45:40Z</time>
      </trkpt>
      <trkpt lat="47.77682" lon="-3.63494">
        <ele>24</ele>
        <time>2018-07-18T12:45:41Z</time>
      </trkpt>
      <trkpt lat="47.77678" lon="-3.63495">
        <ele>24</ele>
        <time>2018-07-18T12:45:42Z</time>
      </trkpt>
      <trkpt lat="47.77674" lon="-3.63496">
        <ele>24</ele>
        <time>2018-07-18T12:45:43Z</time>
      </trkpt>
      <trkpt lat="47.77669" lon="-3.63497">
        <ele>24</ele>
        <time>2018-07-18T12:45:44Z</time>
      </trkpt>
      <trkpt lat="47.77664" lon="-3.63498">
        <ele>24</ele>
        <time>2018-07-18T12:45:45Z</time>
      </trkpt>
      <trkpt lat="47.7766" lon="-3.63498">
        <ele>24</ele>
        <time>2018-07-18T12:45:46Z</time>
      </trkpt>
      <trkpt lat="47.77657" lon="-3.63496">
        <ele>24</ele>
        <time>2018-07-18T12:45:47Z</time>
      </trkpt>
      <trkpt lat="47.77654" lon="-3.63493">
        <ele>24</ele>
        <time>2018-07-18T12:45:48Z</time>
      </trkpt>
      <trkpt lat="47.77651" lon="-3.63488">
        <ele>24</ele>
        <time>2018-07-18T12:45:49Z</time>
      </trkpt>
      <trkpt lat="47.7765" lon="-3.63483">
        <ele>24</ele>
        <time>2018-07-18T12:45:50Z</time>
      </trkpt>
      <trkpt lat="47.77648" lon="-3.63477">
        <ele>24</ele>
        <time>2018-07-18T12:45:51Z</time>
      </trkpt>
      <trkpt lat="47.77645" lon="-3.63472">
        <ele>24</ele>
        <time>2018-07-18T12:45:52Z</time>
      </trkpt>
      <trkpt lat="47.77642" lon="-3.63468">
        <ele>24</ele>
        <time>2018-07-18T12:45:53Z</time>
      </trkpt>
      <trkpt lat="47.77639" lon="-3.63464">
        <ele>24</ele>
        <time>2018-07-18T12:45:54Z</time>
      </trkpt>
      <trkpt lat="47.77636" lon="-3.63459">
        <ele>24</ele>
        <time>2018-07-18T12:45:55Z</time>
      </trkpt>
      <trkpt lat="47.77633" lon="-3.63456">
        <ele>24</ele>
        <time>2018-07-18T12:45:56Z</time>
      </trkpt>
      <trkpt lat="47.7763" lon="-3.63451">
        <ele>24</ele>
        <time>2018-07-18T12:45:57Z</time>
      </trkpt>
      <trkpt lat="47.77628" lon="-3.63446">
        <ele>24</ele>
        <time>2018-07-18T12:45:58Z</time>
      </trkpt>
      <trkpt lat="47.77628" lon="-3.6344">
        <ele>24</ele>
        <time>2018-07-18T12:45:59Z</time>
      </trkpt>
      <trkpt lat="47.77628" lon="-3.63434">
        <ele>24</ele>
        <time>2018-07-18T12:46:00Z</time>
      </trkpt>
      <trkpt lat="47.77627" lon="-3.63428">
        <ele>24</ele>
        <time>2018-07-18T12:46:01Z</time>
      </trkpt>
      <trkpt lat="47.77624" lon="-3.63424">
        <ele>25</ele>
        <time>2018-07-18T12:46:02Z</time>
      </trkpt>
      <trkpt lat="47.77621" lon="-3.63421">
        <ele>25</ele>
        <time>2018-07-18T12:46:03Z</time>
      </trkpt>
      <trkpt lat="47.77617" lon="-3.63419">
        <ele>25</ele>
        <time>2018-07-18T12:46:04Z</time>
      </trkpt>
      <trkpt lat="47.77613" lon="-3.63417">
        <ele>25</ele>
        <time>2018-07-18T12:46:05Z</time>
      </trkpt>
      <trkpt lat="47.77609" lon="-3.63415">
        <ele>25</ele>
        <time>2018-07-18T12:46:06Z</time>
      </trkpt>
      <trkpt lat="47.77604" lon="-3.63412">
        <ele>25</ele>
        <time>2018-07-18T12:46:07Z</time>
      </trkpt>
      <trkpt lat="47.77599" lon="-3.63411">
        <ele>25</ele>
        <time>2018-07-18T12:46:08Z</time>
      </trkpt>
      <trkpt lat="47.77595" lon="-3.63411">
        <ele>25</ele>
        <time>2018-07-18T12:46:09Z</time>
      </trkpt>
      <trkpt lat="47.7759" lon="-3.63413">
        <ele>25</ele>
        <time>2018-07-18T12:46:10Z</time>
      </trkpt>
      <trkpt lat="47.77586" lon="-3.63416">
        <ele>25</ele>
        <time>2018-07-18T12:46:11Z</time>
      </trkpt>
      <trkpt lat="47.77581" lon="-3.63418">
        <ele>25</ele>
        <time>2018-07-18T12:46:12Z</time>
      </trkpt>
      <trkpt lat="47.77576" lon="-3.63421">
        <ele>25</ele>
        <time>2018-07-18T12:46:13Z</time>
      </trkpt>
      <trkpt lat="47.77572" lon="-3.63423">
        <ele>25</ele>
        <time>2018-07-18T12:46:14Z</time>
      </trkpt>
      <trkpt lat="47.77566" lon="-3.63425">
        <ele>25</ele>
        <time>2018-07-18T12:46:15Z</time>
      </trkpt>
      <trkpt lat="47.77561" lon="-3.63428">
        <ele>24</ele>
        <time>2018-07-18T12:46:16Z</time>
      </trkpt>
      <trkpt lat="47.77556" lon="-3.6343">
        <ele>24</ele>
        <time>2018-07-18T12:46:17Z</time>
      </trkpt>
      <trkpt lat="47.7755" lon="-3.63432">
        <ele>24</ele>
        <time>2018-07-18T12:46:18Z</time>
      </trkpt>
      <trkpt lat="47.77545" lon="-3.63434">
        <ele>24</ele>
        <time>2018-07-18T12:46:19Z</time>
      </trkpt>
      <trkpt lat="47.7754" lon="-3.63436">
        <ele>24</ele>
        <time>2018-07-18T12:46:20Z</time>
      </trkpt>
      <trkpt lat="47.77535" lon="-3.63441">
        <ele>23</ele>
        <time>2018-07-18T12:46:21Z</time>
      </trkpt>
      <trkpt lat="47.7753" lon="-3.63447">
        <ele>23</ele>
        <time>2018-07-18T12:46:22Z</time>
      </trkpt>
      <trkpt lat="47.77526" lon="-3.63452">
        <ele>23</ele>
        <time>2018-07-18T12:46:23Z</time>
      </trkpt>
      <trkpt lat="47.77521" lon="-3.63457">
        <ele>23</ele>
        <time>2018-07-18T12:46:24Z</time>
      </trkpt>
      <trkpt lat="47.77515" lon="-3.63461">
        <ele>22</ele>
        <time>2018-07-18T12:46:25Z</time>
      </trkpt>
      <trkpt lat="47.77509" lon="-3.63462">
        <ele>22</ele>
        <time>2018-07-18T12:46:26Z</time>
      </trkpt>
      <trkpt lat="47.77503" lon="-3.63462">
        <ele>21</ele>
        <time>2018-07-18T12:46:27Z</time>
      </trkpt>
      <trkpt lat="47.77497" lon="-3.6346">
        <ele>21</ele>
        <time>2018-07-18T12:46:28Z</time>
      </trkpt>
      <trkpt lat="47.77491" lon="-3.63459">
        <ele>20</ele>
        <time>2018-07-18T12:46:29Z</time>
      </trkpt>
      <trkpt lat="47.77485" lon="-3.63458">
        <ele>20</ele>
        <time>2018-07-18T12:46:30Z</time>
      </trkpt>
      <trkpt lat="47.77479" lon="-3.63456">
        <ele>19</ele>
        <time>2018-07-18T12:46:31Z</time>
      </trkpt>
      <trkpt lat="47.77473" lon="-3.63455">
        <ele>19</ele>
        <time>2018-07-18T12:46:32Z</time>
      </trkpt>
      <trkpt lat="47.77468" lon="-3.63451">
        <ele>18</ele>
        <time>2018-07-18T12:46:33Z</time>
      </trkpt>
      <trkpt lat="47.77462" lon="-3.63448">
        <ele>18</ele>
        <time>2018-07-18T12:46:34Z</time>
      </trkpt>
      <trkpt lat="47.77457" lon="-3.63447">
        <ele>17</ele>
        <time>2018-07-18T12:46:35Z</time>
      </trkpt>
      <trkpt lat="47.77453" lon="-3.63447">
        <ele>16</ele>
        <time>2018-07-18T12:46:36Z</time>
      </trkpt>
      <trkpt lat="47.7745" lon="-3.63445">
        <ele>16</ele>
        <time>2018-07-18T12:46:37Z</time>
      </trkpt>
      <trkpt lat="47.77449" lon="-3.63442">
        <ele>16</ele>
        <time>2018-07-18T12:46:38Z</time>
      </trkpt>
      <trkpt lat="47.77448" lon="-3.63441">
        <ele>16</ele>
        <time>2018-07-18T12:46:39Z</time>
      </trkpt>
      <trkpt lat="47.77448" lon="-3.63441">
        <ele>16</ele>
        <time>2018-07-18T12:46:40Z</time>
      </trkpt>
      <trkpt lat="47.77448" lon="-3.63441">
        <ele>16</ele>
        <time>2018-07-18T12:46:41Z</time>
      </trkpt>
      <trkpt lat="47.77448" lon="-3.63441">
        <ele>16</ele>
        <time>2018-07-18T12:46:42Z</time>
      </trkpt>
      <trkpt lat="47.77448" lon="-3.63441">
        <ele>16</ele>
        <time>2018-07-18T12:46:43Z</time>
      </trkpt>
      <trkpt lat="47.77446" lon="-3.63439">
        <ele>16</ele>
        <time>2018-07-18T12:46:44Z</time>
      </trkpt>
      <trkpt lat="47.77446" lon="-3.63437">
        <ele>16</ele>
        <time>2018-07-18T12:46:45Z</time>
      </trkpt>
      <trkpt lat="47.77445" lon="-3.63434">
        <ele>16</ele>
        <time>2018-07-18T12:46:46Z</time>
      </trkpt>
      <trkpt lat="47.77445" lon="-3.63431">
        <ele>16</ele>
        <time>2018-07-18T12:46:47Z</time>
      </trkpt>
      <trkpt lat="47.77445" lon="-3.63427">
        <ele>16</ele>
        <time>2018-07-18T12:46:48Z</time>
      </trkpt>
      <trkpt lat="47.77444" lon="-3.6342">
        <ele>16</ele>
        <time>2018-07-18T12:46:49Z</time>
      </trkpt>
      <trkpt lat="47.77444" lon="-3.6342">
        <ele>16</ele>
        <time>2018-07-18T12:46:50Z</time>
      </trkpt>
      <trkpt lat="47.77445" lon="-3.63416">
        <ele>16</ele>
        <time>2018-07-18T12:46:51Z</time>
      </trkpt>
      <trkpt lat="47.77446" lon="-3.63412">
        <ele>16</ele>
        <time>2018-07-18T12:46:52Z</time>
      </trkpt>
      <trkpt lat="47.77446" lon="-3.63407">
        <ele>16</ele>
        <time>2018-07-18T12:46:53Z</time>
      </trkpt>
      <trkpt lat="47.77447" lon="-3.63403">
        <ele>17</ele>
        <time>2018-07-18T12:46:54Z</time>
      </trkpt>
      <trkpt lat="47.77448" lon="-3.63398">
        <ele>17</ele>
        <time>2018-07-18T12:46:55Z</time>
      </trkpt>
      <trkpt lat="47.77449" lon="-3.63394">
        <ele>17</ele>
        <time>2018-07-18T12:46:56Z</time>
      </trkpt>
      <trkpt lat="47.77451" lon="-3.63389">
        <ele>17</ele>
        <time>2018-07-18T12:46:57Z</time>
      </trkpt>
      <trkpt lat="47.77452" lon="-3.63384">
        <ele>17</ele>
        <time>2018-07-18T12:46:58Z</time>
      </trkpt>
      <trkpt lat="47.77453" lon="-3.63379">
        <ele>17</ele>
        <time>2018-07-18T12:46:59Z</time>
      </trkpt>
      <trkpt lat="47.77453" lon="-3.63374">
        <ele>17</ele>
        <time>2018-07-18T12:47:00Z</time>
      </trkpt>
      <trkpt lat="47.77453" lon="-3.63369">
        <ele>17</ele>
        <time>2018-07-18T12:47:01Z</time>
      </trkpt>
      <trkpt lat="47.77454" lon="-3.63364">
        <ele>17</ele>
        <time>2018-07-18T12:47:02Z</time>
      </trkpt>
      <trkpt lat="47.77456" lon="-3.63358">
        <ele>17</ele>
        <time>2018-07-18T12:47:03Z</time>
      </trkpt>
      <trkpt lat="47.77458" lon="-3.63353">
        <ele>17</ele>
        <time>2018-07-18T12:47:04Z</time>
      </trkpt>
      <trkpt lat="47.7746" lon="-3.63347">
        <ele>17</ele>
        <time>2018-07-18T12:47:05Z</time>
      </trkpt>
      <trkpt lat="47.77461" lon="-3.63342">
        <ele>17</ele>
        <time>2018-07-18T12:47:06Z</time>
      </trkpt>
      <trkpt lat="47.77463" lon="-3.63337">
        <ele>17</ele>
        <time>2018-07-18T12:47:07Z</time>
      </trkpt>
      <trkpt lat="47.77463" lon="-3.63332">
        <ele>17</ele>
        <time>2018-07-18T12:47:08Z</time>
      </trkpt>
      <trkpt lat="47.77463" lon="-3.63327">
        <ele>17</ele>
        <time>2018-07-18T12:47:09Z</time>
      </trkpt>
      <trkpt lat="47.77461" lon="-3.63323">
        <ele>17</ele>
        <time>2018-07-18T12:47:10Z</time>
      </trkpt>
      <trkpt lat="47.77458" lon="-3.63322">
        <ele>17</ele>
        <time>2018-07-18T12:47:11Z</time>
      </trkpt>
      <trkpt lat="47.77454" lon="-3.63322">
        <ele>17</ele>
        <time>2018-07-18T12:47:12Z</time>
      </trkpt>
      <trkpt lat="47.7745" lon="-3.63321">
        <ele>17</ele>
        <time>2018-07-18T12:47:13Z</time>
      </trkpt>
      <trkpt lat="47.77446" lon="-3.63321">
        <ele>17</ele>
        <time>2018-07-18T12:47:14Z</time>
      </trkpt>
      <trkpt lat="47.77443" lon="-3.6332">
        <ele>17</ele>
        <time>2018-07-18T12:47:15Z</time>
      </trkpt>
      <trkpt lat="47.77439" lon="-3.63319">
        <ele>17</ele>
        <time>2018-07-18T12:47:16Z</time>
      </trkpt>
      <trkpt lat="47.77435" lon="-3.63317">
        <ele>17</ele>
        <time>2018-07-18T12:47:17Z</time>
      </trkpt>
      <trkpt lat="47.77432" lon="-3.63316">
        <ele>17</ele>
        <time>2018-07-18T12:47:18Z</time>
      </trkpt>
      <trkpt lat="47.77428" lon="-3.63314">
        <ele>17</ele>
        <time>2018-07-18T12:47:19Z</time>
      </trkpt>
      <trkpt lat="47.77424" lon="-3.63313">
        <ele>17</ele>
        <time>2018-07-18T12:47:20Z</time>
      </trkpt>
      <trkpt lat="47.77421" lon="-3.63314">
        <ele>17</ele>
        <time>2018-07-18T12:47:21Z</time>
      </trkpt>
      <trkpt lat="47.77418" lon="-3.63315">
        <ele>17</ele>
        <time>2018-07-18T12:47:22Z</time>
      </trkpt>
      <trkpt lat="47.77414" lon="-3.63315">
        <ele>17</ele>
        <time>2018-07-18T12:47:23Z</time>
      </trkpt>
      <trkpt lat="47.7741" lon="-3.63315">
        <ele>17</ele>
        <time>2018-07-18T12:47:24Z</time>
      </trkpt>
      <trkpt lat="47.77406" lon="-3.63314">
        <ele>17</ele>
        <time>2018-07-18T12:47:25Z</time>
      </trkpt>
      <trkpt lat="47.77402" lon="-3.63314">
        <ele>17</ele>
        <time>2018-07-18T12:47:26Z</time>
      </trkpt>
      <trkpt lat="47.77398" lon="-3.63314">
        <ele>17</ele>
        <time>2018-07-18T12:47:27Z</time>
      </trkpt>
      <trkpt lat="47.77394" lon="-3.63313">
        <ele>17</ele>
        <time>2018-07-18T12:47:28Z</time>
      </trkpt>
      <trkpt lat="47.7739" lon="-3.63312">
        <ele>17</ele>
        <time>2018-07-18T12:47:29Z</time>
      </trkpt>
      <trkpt lat="47.77387" lon="-3.63311">
        <ele>17</ele>
        <time>2018-07-18T12:47:30Z</time>
      </trkpt>
      <trkpt lat="47.77383" lon="-3.63309">
        <ele>17</ele>
        <time>2018-07-18T12:47:31Z</time>
      </trkpt>
      <trkpt lat="47.77379" lon="-3.63307">
        <ele>18</ele>
        <time>2018-07-18T12:47:32Z</time>
      </trkpt>
      <trkpt lat="47.77376" lon="-3.63305">
        <ele>18</ele>
        <time>2018-07-18T12:47:33Z</time>
      </trkpt>
      <trkpt lat="47.77372" lon="-3.63303">
        <ele>18</ele>
        <time>2018-07-18T12:47:34Z</time>
      </trkpt>
      <trkpt lat="47.77369" lon="-3.63301">
        <ele>18</ele>
        <time>2018-07-18T12:47:35Z</time>
      </trkpt>
      <trkpt lat="47.77366" lon="-3.63298">
        <ele>18</ele>
        <time>2018-07-18T12:47:36Z</time>
      </trkpt>
      <trkpt lat="47.77362" lon="-3.63296">
        <ele>18</ele>
        <time>2018-07-18T12:47:37Z</time>
      </trkpt>
      <trkpt lat="47.77359" lon="-3.63293">
        <ele>18</ele>
        <time>2018-07-18T12:47:38Z</time>
      </trkpt>
      <trkpt lat="47.77355" lon="-3.63291">
        <ele>19</ele>
        <time>2018-07-18T12:47:39Z</time>
      </trkpt>
      <trkpt lat="47.77351" lon="-3.63288">
        <ele>19</ele>
        <time>2018-07-18T12:47:40Z</time>
      </trkpt>
      <trkpt lat="47.77347" lon="-3.63284">
        <ele>19</ele>
        <time>2018-07-18T12:47:41Z</time>
      </trkpt>
      <trkpt lat="47.77344" lon="-3.6328">
        <ele>19</ele>
        <time>2018-07-18T12:47:42Z</time>
      </trkpt>
      <trkpt lat="47.77342" lon="-3.63275">
        <ele>19</ele>
        <time>2018-07-18T12:47:43Z</time>
      </trkpt>
      <trkpt lat="47.7734" lon="-3.6327">
        <ele>19</ele>
        <time>2018-07-18T12:47:44Z</time>
      </trkpt>
      <trkpt lat="47.77338" lon="-3.63265">
        <ele>19</ele>
        <time>2018-07-18T12:47:45Z</time>
      </trkpt>
      <trkpt lat="47.77337" lon="-3.6326">
        <ele>19</ele>
        <time>2018-07-18T12:47:46Z</time>
      </trkpt>
      <trkpt lat="47.77336" lon="-3.63255">
        <ele>19</ele>
        <time>2018-07-18T12:47:47Z</time>
      </trkpt>
      <trkpt lat="47.77336" lon="-3.63251">
        <ele>19</ele>
        <time>2018-07-18T12:47:48Z</time>
      </trkpt>
      <trkpt lat="47.77335" lon="-3.63246">
        <ele>19</ele>
        <time>2018-07-18T12:47:49Z</time>
      </trkpt>
      <trkpt lat="47.77334" lon="-3.63238">
        <ele>20</ele>
        <time>2018-07-18T12:47:50Z</time>
      </trkpt>
      <trkpt lat="47.77334" lon="-3.63238">
        <ele>20</ele>
        <time>2018-07-18T12:47:51Z</time>
      </trkpt>
      <trkpt lat="47.77333" lon="-3.63233">
        <ele>20</ele>
        <time>2018-07-18T12:47:52Z</time>
      </trkpt>
      <trkpt lat="47.77333" lon="-3.63228">
        <ele>20</ele>
        <time>2018-07-18T12:47:53Z</time>
      </trkpt>
      <trkpt lat="47.77332" lon="-3.63222">
        <ele>20</ele>
        <time>2018-07-18T12:47:54Z</time>
      </trkpt>
      <trkpt lat="47.77331" lon="-3.63217">
        <ele>20</ele>
        <time>2018-07-18T12:47:55Z</time>
      </trkpt>
      <trkpt lat="47.7733" lon="-3.63211">
        <ele>20</ele>
        <time>2018-07-18T12:47:56Z</time>
      </trkpt>
      <trkpt lat="47.77329" lon="-3.63206">
        <ele>20</ele>
        <time>2018-07-18T12:47:57Z</time>
      </trkpt>
      <trkpt lat="47.77329" lon="-3.632">
        <ele>20</ele>
        <time>2018-07-18T12:47:58Z</time>
      </trkpt>
      <trkpt lat="47.7733" lon="-3.63196">
        <ele>20</ele>
        <time>2018-07-18T12:47:59Z</time>
      </trkpt>
      <trkpt lat="47.77332" lon="-3.63192">
        <ele>21</ele>
        <time>2018-07-18T12:48:00Z</time>
      </trkpt>
      <trkpt lat="47.77333" lon="-3.63187">
        <ele>21</ele>
        <time>2018-07-18T12:48:01Z</time>
      </trkpt>
      <trkpt lat="47.77335" lon="-3.63182">
        <ele>21</ele>
        <time>2018-07-18T12:48:02Z</time>
      </trkpt>
      <trkpt lat="47.77335" lon="-3.63177">
        <ele>21</ele>
        <time>2018-07-18T12:48:03Z</time>
      </trkpt>
      <trkpt lat="47.77335" lon="-3.63171">
        <ele>21</ele>
        <time>2018-07-18T12:48:04Z</time>
      </trkpt>
      <trkpt lat="47.77334" lon="-3.63165">
        <ele>21</ele>
        <time>2018-07-18T12:48:05Z</time>
      </trkpt>
      <trkpt lat="47.77333" lon="-3.63159">
        <ele>21</ele>
        <time>2018-07-18T12:48:06Z</time>
      </trkpt>
      <trkpt lat="47.77333" lon="-3.63153">
        <ele>21</ele>
        <time>2018-07-18T12:48:07Z</time>
      </trkpt>
      <trkpt lat="47.77333" lon="-3.63147">
        <ele>21</ele>
        <time>2018-07-18T12:48:08Z</time>
      </trkpt>
      <trkpt lat="47.77334" lon="-3.63141">
        <ele>21</ele>
        <time>2018-07-18T12:48:09Z</time>
      </trkpt>
      <trkpt lat="47.77334" lon="-3.63135">
        <ele>21</ele>
        <time>2018-07-18T12:48:10Z</time>
      </trkpt>
      <trkpt lat="47.77334" lon="-3.63129">
        <ele>21</ele>
        <time>2018-07-18T12:48:11Z</time>
      </trkpt>
      <trkpt lat="47.77334" lon="-3.63123">
        <ele>21</ele>
        <time>2018-07-18T12:48:12Z</time>
      </trkpt>
      <trkpt lat="47.77335" lon="-3.63117">
        <ele>21</ele>
        <time>2018-07-18T12:48:13Z</time>
      </trkpt>
      <trkpt lat="47.77335" lon="-3.63111">
        <ele>21</ele>
        <time>2018-07-18T12:48:14Z</time>
      </trkpt>
      <trkpt lat="47.77336" lon="-3.63106">
        <ele>21</ele>
        <time>2018-07-18T12:48:15Z</time>
      </trkpt>
      <trkpt lat="47.77336" lon="-3.63101">
        <ele>21</ele>
        <time>2018-07-18T12:48:16Z</time>
      </trkpt>
      <trkpt lat="47.77336" lon="-3.63096">
        <ele>21</ele>
        <time>2018-07-18T12:48:17Z</time>
      </trkpt>
      <trkpt lat="47.77335" lon="-3.63091">
        <ele>21</ele>
        <time>2018-07-18T12:48:18Z</time>
      </trkpt>
      <trkpt lat="47.77335" lon="-3.63085">
        <ele>21</ele>
        <time>2018-07-18T12:48:19Z</time>
      </trkpt>
      <trkpt lat="47.77335" lon="-3.63079">
        <ele>21</ele>
        <time>2018-07-18T12:48:20Z</time>
      </trkpt>
      <trkpt lat="47.77335" lon="-3.63073">
        <ele>20</ele>
        <time>2018-07-18T12:48:21Z</time>
      </trkpt>
      <trkpt lat="47.77335" lon="-3.63067">
        <ele>20</ele>
        <time>2018-07-18T12:48:22Z</time>
      </trkpt>
      <trkpt lat="47.77335" lon="-3.6306">
        <ele>20</ele>
        <time>2018-07-18T12:48:23Z</time>
      </trkpt>
      <trkpt lat="47.77335" lon="-3.63053">
        <ele>20</ele>
        <time>2018-07-18T12:48:24Z</time>
      </trkpt>
      <trkpt lat="47.77336" lon="-3.63046">
        <ele>20</ele>
        <time>2018-07-18T12:48:25Z</time>
      </trkpt>
      <trkpt lat="47.77336" lon="-3.63038">
        <ele>19</ele>
        <time>2018-07-18T12:48:26Z</time>
      </trkpt>
      <trkpt lat="47.77337" lon="-3.63022">
        <ele>19</ele>
        <time>2018-07-18T12:48:27Z</time>
      </trkpt>
      <trkpt lat="47.77337" lon="-3.63022">
        <ele>19</ele>
        <time>2018-07-18T12:48:28Z</time>
      </trkpt>
      <trkpt lat="47.77338" lon="-3.63013">
        <ele>18</ele>
        <time>2018-07-18T12:48:29Z</time>
      </trkpt>
      <trkpt lat="47.77338" lon="-3.63003">
        <ele>18</ele>
        <time>2018-07-18T12:48:30Z</time>
      </trkpt>
      <trkpt lat="47.77339" lon="-3.62994">
        <ele>18</ele>
        <time>2018-07-18T12:48:31Z</time>
      </trkpt>
      <trkpt lat="47.7734" lon="-3.62988">
        <ele>17</ele>
        <time>2018-07-18T12:48:32Z</time>
      </trkpt>
      <trkpt lat="47.77341" lon="-3.62984">
        <ele>17</ele>
        <time>2018-07-18T12:48:33Z</time>
      </trkpt>
      <trkpt lat="47.77343" lon="-3.62982">
        <ele>17</ele>
        <time>2018-07-18T12:48:34Z</time>
      </trkpt>
      <trkpt lat="47.77344" lon="-3.6298">
        <ele>17</ele>
        <time>2018-07-18T12:48:35Z</time>
      </trkpt>
      <trkpt lat="47.77345" lon="-3.62979">
        <ele>17</ele>
        <time>2018-07-18T12:48:36Z</time>
      </trkpt>
      <trkpt lat="47.77345" lon="-3.62979">
        <ele>17</ele>
        <time>2018-07-18T12:48:37Z</time>
      </trkpt>
      <trkpt lat="47.77345" lon="-3.62979">
        <ele>16</ele>
        <time>2018-07-18T12:48:38Z</time>
      </trkpt>
      <trkpt lat="47.77345" lon="-3.62979">
        <ele>16</ele>
        <time>2018-07-18T12:48:39Z</time>
      </trkpt>
      <trkpt lat="47.77343" lon="-3.62976">
        <ele>16</ele>
        <time>2018-07-18T12:48:40Z</time>
      </trkpt>
      <trkpt lat="47.77343" lon="-3.62976">
        <ele>16</ele>
        <time>2018-07-18T12:48:41Z</time>
      </trkpt>
      <trkpt lat="47.7734" lon="-3.62972">
        <ele>16</ele>
        <time>2018-07-18T12:48:42Z</time>
      </trkpt>
      <trkpt lat="47.77338" lon="-3.62969">
        <ele>16</ele>
        <time>2018-07-18T12:48:43Z</time>
      </trkpt>
      <trkpt lat="47.77338" lon="-3.62967">
        <ele>16</ele>
        <time>2018-07-18T12:48:44Z</time>
      </trkpt>
      <trkpt lat="47.77338" lon="-3.62967">
        <ele>16</ele>
        <time>2018-07-18T12:48:45Z</time>
      </trkpt>
      <trkpt lat="47.77336" lon="-3.62964">
        <ele>16</ele>
        <time>2018-07-18T12:48:46Z</time>
      </trkpt>
      <trkpt lat="47.77336" lon="-3.62964">
        <ele>16</ele>
        <time>2018-07-18T12:48:47Z</time>
      </trkpt>
      <trkpt lat="47.77332" lon="-3.62959">
        <ele>16</ele>
        <time>2018-07-18T12:48:48Z</time>
      </trkpt>
      <trkpt lat="47.77332" lon="-3.62959">
        <ele>16</ele>
        <time>2018-07-18T12:48:49Z</time>
      </trkpt>
      <trkpt lat="47.77326" lon="-3.62955">
        <ele>16</ele>
        <time>2018-07-18T12:48:50Z</time>
      </trkpt>
      <trkpt lat="47.77326" lon="-3.62955">
        <ele>16</ele>
        <time>2018-07-18T12:48:51Z</time>
      </trkpt>
      <trkpt lat="47.77323" lon="-3.62953">
        <ele>16</ele>
        <time>2018-07-18T12:48:52Z</time>
      </trkpt>
      <trkpt lat="47.77319" lon="-3.62951">
        <ele>16</ele>
        <time>2018-07-18T12:48:53Z</time>
      </trkpt>
      <trkpt lat="47.77319" lon="-3.6295">
        <ele>16</ele>
        <time>2018-07-18T12:48:54Z</time>
      </trkpt>
      <trkpt lat="47.77319" lon="-3.62948">
        <ele>16</ele>
        <time>2018-07-18T12:48:55Z</time>
      </trkpt>
      <trkpt lat="47.7732" lon="-3.62946">
        <ele>16</ele>
        <time>2018-07-18T12:48:56Z</time>
      </trkpt>
      <trkpt lat="47.77322" lon="-3.62945">
        <ele>16</ele>
        <time>2018-07-18T12:48:57Z</time>
      </trkpt>
      <trkpt lat="47.77322" lon="-3.62945">
        <ele>16</ele>
        <time>2018-07-18T12:48:58Z</time>
      </trkpt>
      <trkpt lat="47.77328" lon="-3.6294">
        <ele>15</ele>
        <time>2018-07-18T12:48:59Z</time>
      </trkpt>
      <trkpt lat="47.7733" lon="-3.62937">
        <ele>15</ele>
        <time>2018-07-18T12:49:00Z</time>
      </trkpt>
      <trkpt lat="47.7733" lon="-3.62937">
        <ele>15</ele>
        <time>2018-07-18T12:49:01Z</time>
      </trkpt>
      <trkpt lat="47.77336" lon="-3.6293">
        <ele>15</ele>
        <time>2018-07-18T12:49:02Z</time>
      </trkpt>
      <trkpt lat="47.77339" lon="-3.62927">
        <ele>15</ele>
        <time>2018-07-18T12:49:03Z</time>
      </trkpt>
      <trkpt lat="47.77344" lon="-3.62924">
        <ele>14</ele>
        <time>2018-07-18T12:49:04Z</time>
      </trkpt>
      <trkpt lat="47.77347" lon="-3.62921">
        <ele>14</ele>
        <time>2018-07-18T12:49:05Z</time>
      </trkpt>
      <trkpt lat="47.77351" lon="-3.62917">
        <ele>14</ele>
        <time>2018-07-18T12:49:06Z</time>
      </trkpt>
      <trkpt lat="47.77353" lon="-3.62912">
        <ele>14</ele>
        <time>2018-07-18T12:49:07Z</time>
      </trkpt>
      <trkpt lat="47.77356" lon="-3.62908">
        <ele>14</ele>
        <time>2018-07-18T12:49:08Z</time>
      </trkpt>
      <trkpt lat="47.77359" lon="-3.62904">
        <ele>14</ele>
        <time>2018-07-18T12:49:09Z</time>
      </trkpt>
      <trkpt lat="47.77359" lon="-3.62904">
        <ele>14</ele>
        <time>2018-07-18T12:49:10Z</time>
      </trkpt>
      <trkpt lat="47.77363" lon="-3.62898">
        <ele>13</ele>
        <time>2018-07-18T12:49:11Z</time>
      </trkpt>
      <trkpt lat="47.77363" lon="-3.62898">
        <ele>13</ele>
        <time>2018-07-18T12:49:12Z</time>
      </trkpt>
      <trkpt lat="47.77369" lon="-3.62892">
        <ele>13</ele>
        <time>2018-07-18T12:49:13Z</time>
      </trkpt>
      <trkpt lat="47.77372" lon="-3.62892">
        <ele>13</ele>
        <time>2018-07-18T12:49:14Z</time>
      </trkpt>
      <trkpt lat="47.77375" lon="-3.62893">
        <ele>12</ele>
        <time>2018-07-18T12:49:15Z</time>
      </trkpt>
      <trkpt lat="47.77378" lon="-3.62895">
        <ele>12</ele>
        <time>2018-07-18T12:49:16Z</time>
      </trkpt>
      <trkpt lat="47.77381" lon="-3.62899">
        <ele>12</ele>
        <time>2018-07-18T12:49:17Z</time>
      </trkpt>
      <trkpt lat="47.77383" lon="-3.62901">
        <ele>11</ele>
        <time>2018-07-18T12:49:18Z</time>
      </trkpt>
      <trkpt lat="47.77383" lon="-3.62901">
        <ele>11</ele>
        <time>2018-07-18T12:49:19Z</time>
      </trkpt>
      <trkpt lat="47.7739" lon="-3.62903">
        <ele>11</ele>
        <time>2018-07-18T12:49:20Z</time>
      </trkpt>
      <trkpt lat="47.77393" lon="-3.62902">
        <ele>11</ele>
        <time>2018-07-18T12:49:21Z</time>
      </trkpt>
      <trkpt lat="47.77393" lon="-3.62902">
        <ele>11</ele>
        <time>2018-07-18T12:49:22Z</time>
      </trkpt>
      <trkpt lat="47.77399" lon="-3.62901">
        <ele>10</ele>
        <time>2018-07-18T12:49:23Z</time>
      </trkpt>
      <trkpt lat="47.77401" lon="-3.62902">
        <ele>10</ele>
        <time>2018-07-18T12:49:24Z</time>
      </trkpt>
      <trkpt lat="47.77403" lon="-3.62903">
        <ele>10</ele>
        <time>2018-07-18T12:49:25Z</time>
      </trkpt>
      <trkpt lat="47.77405" lon="-3.62903">
        <ele>10</ele>
        <time>2018-07-18T12:49:26Z</time>
      </trkpt>
      <trkpt lat="47.77408" lon="-3.62903">
        <ele>10</ele>
        <time>2018-07-18T12:49:27Z</time>
      </trkpt>
      <trkpt lat="47.7741" lon="-3.62901">
        <ele>10</ele>
        <time>2018-07-18T12:49:28Z</time>
      </trkpt>
      <trkpt lat="47.77412" lon="-3.62899">
        <ele>10</ele>
        <time>2018-07-18T12:49:29Z</time>
      </trkpt>
      <trkpt lat="47.77415" lon="-3.62897">
        <ele>10</ele>
        <time>2018-07-18T12:49:30Z</time>
      </trkpt>
      <trkpt lat="47.77417" lon="-3.62895">
        <ele>10</ele>
        <time>2018-07-18T12:49:31Z</time>
      </trkpt>
      <trkpt lat="47.77418" lon="-3.62894">
        <ele>10</ele>
        <time>2018-07-18T12:49:32Z</time>
      </trkpt>
      <trkpt lat="47.7742" lon="-3.62893">
        <ele>10</ele>
        <time>2018-07-18T12:49:33Z</time>
      </trkpt>
      <trkpt lat="47.77422" lon="-3.62892">
        <ele>10</ele>
        <time>2018-07-18T12:49:34Z</time>
      </trkpt>
      <trkpt lat="47.77425" lon="-3.6289">
        <ele>10</ele>
        <time>2018-07-18T12:49:35Z</time>
      </trkpt>
      <trkpt lat="47.77428" lon="-3.62888">
        <ele>10</ele>
        <time>2018-07-18T12:49:36Z</time>
      </trkpt>
      <trkpt lat="47.77429" lon="-3.62887">
        <ele>10</ele>
        <time>2018-07-18T12:49:37Z</time>
      </trkpt>
      <trkpt lat="47.77429" lon="-3.62887">
        <ele>10</ele>
        <time>2018-07-18T12:49:38Z</time>
      </trkpt>
      <trkpt lat="47.7743" lon="-3.62887">
        <ele>9</ele>
        <time>2018-07-18T12:49:39Z</time>
      </trkpt>
      <trkpt lat="47.7743" lon="-3.62887">
        <ele>9</ele>
        <time>2018-07-18T12:49:40Z</time>
      </trkpt>
      <trkpt lat="47.77431" lon="-3.62885">
        <ele>9</ele>
        <time>2018-07-18T12:49:41Z</time>
      </trkpt>
      <trkpt lat="47.77431" lon="-3.62884">
        <ele>9</ele>
        <time>2018-07-18T12:49:42Z</time>
      </trkpt>
      <trkpt lat="47.77431" lon="-3.62884">
        <ele>9</ele>
        <time>2018-07-18T12:49:43Z</time>
      </trkpt>
      <trkpt lat="47.77432" lon="-3.62883">
        <ele>9</ele>
        <time>2018-07-18T12:49:44Z</time>
      </trkpt>
      <trkpt lat="47.77433" lon="-3.62882">
        <ele>8</ele>
        <time>2018-07-18T12:49:45Z</time>
      </trkpt>
      <trkpt lat="47.77433" lon="-3.62881">
        <ele>8</ele>
        <time>2018-07-18T12:49:46Z</time>
      </trkpt>
      <trkpt lat="47.77434" lon="-3.62881">
        <ele>8</ele>
        <time>2018-07-18T12:49:47Z</time>
      </trkpt>
      <trkpt lat="47.77434" lon="-3.62881">
        <ele>8</ele>
        <time>2018-07-18T12:49:48Z</time>
      </trkpt>
      <trkpt lat="47.77434" lon="-3.62881">
        <ele>8</ele>
        <time>2018-07-18T12:49:49Z</time>
      </trkpt>
      <trkpt lat="47.77435" lon="-3.62881">
        <ele>8</ele>
        <time>2018-07-18T12:49:50Z</time>
      </trkpt>
      <trkpt lat="47.77435" lon="-3.62881">
        <ele>8</ele>
        <time>2018-07-18T12:49:51Z</time>
      </trkpt>
      <trkpt lat="47.77437" lon="-3.6288">
        <ele>7</ele>
        <time>2018-07-18T12:49:52Z</time>
      </trkpt>
      <trkpt lat="47.77437" lon="-3.62879">
        <ele>7</ele>
        <time>2018-07-18T12:49:53Z</time>
      </trkpt>
      <trkpt lat="47.77437" lon="-3.62879">
        <ele>7</ele>
        <time>2018-07-18T12:49:54Z</time>
      </trkpt>
      <trkpt lat="47.77437" lon="-3.62878">
        <ele>7</ele>
        <time>2018-07-18T12:49:55Z</time>
      </trkpt>
      <trkpt lat="47.77438" lon="-3.62877">
        <ele>7</ele>
        <time>2018-07-18T12:49:56Z</time>
      </trkpt>
      <trkpt lat="47.77439" lon="-3.62876">
        <ele>7</ele>
        <time>2018-07-18T12:49:57Z</time>
      </trkpt>
      <trkpt lat="47.77441" lon="-3.62875">
        <ele>7</ele>
        <time>2018-07-18T12:49:58Z</time>
      </trkpt>
      <trkpt lat="47.77443" lon="-3.62875">
        <ele>7</ele>
        <time>2018-07-18T12:49:59Z</time>
      </trkpt>
      <trkpt lat="47.77444" lon="-3.62874">
        <ele>7</ele>
        <time>2018-07-18T12:50:00Z</time>
      </trkpt>
      <trkpt lat="47.77444" lon="-3.62874">
        <ele>7</ele>
        <time>2018-07-18T12:50:01Z</time>
      </trkpt>
      <trkpt lat="47.77449" lon="-3.62874">
        <ele>7</ele>
        <time>2018-07-18T12:50:02Z</time>
      </trkpt>
      <trkpt lat="47.77451" lon="-3.62873">
        <ele>7</ele>
        <time>2018-07-18T12:50:03Z</time>
      </trkpt>
      <trkpt lat="47.77451" lon="-3.62873">
        <ele>7</ele>
        <time>2018-07-18T12:50:04Z</time>
      </trkpt>
      <trkpt lat="47.77455" lon="-3.6287">
        <ele>7</ele>
        <time>2018-07-18T12:50:05Z</time>
      </trkpt>
      <trkpt lat="47.77457" lon="-3.62869">
        <ele>7</ele>
        <time>2018-07-18T12:50:06Z</time>
      </trkpt>
      <trkpt lat="47.77458" lon="-3.62867">
        <ele>7</ele>
        <time>2018-07-18T12:50:07Z</time>
      </trkpt>
      <trkpt lat="47.77459" lon="-3.62864">
        <ele>7</ele>
        <time>2018-07-18T12:50:08Z</time>
      </trkpt>
      <trkpt lat="47.77459" lon="-3.62864">
        <ele>7</ele>
        <time>2018-07-18T12:50:09Z</time>
      </trkpt>
      <trkpt lat="47.77458" lon="-3.62856">
        <ele>7</ele>
        <time>2018-07-18T12:50:10Z</time>
      </trkpt>
      <trkpt lat="47.77459" lon="-3.62851">
        <ele>6</ele>
        <time>2018-07-18T12:50:11Z</time>
      </trkpt>
      <trkpt lat="47.7746" lon="-3.62845">
        <ele>6</ele>
        <time>2018-07-18T12:50:12Z</time>
      </trkpt>
      <trkpt lat="47.7746" lon="-3.62845">
        <ele>6</ele>
        <time>2018-07-18T12:50:13Z</time>
      </trkpt>
      <trkpt lat="47.77463" lon="-3.62831">
        <ele>6</ele>
        <time>2018-07-18T12:50:14Z</time>
      </trkpt>
      <trkpt lat="47.77465" lon="-3.62825">
        <ele>6</ele>
        <time>2018-07-18T12:50:15Z</time>
      </trkpt>
      <trkpt lat="47.77467" lon="-3.6282">
        <ele>6</ele>
        <time>2018-07-18T12:50:16Z</time>
      </trkpt>
      <trkpt lat="47.77469" lon="-3.62816">
        <ele>6</ele>
        <time>2018-07-18T12:50:17Z</time>
      </trkpt>
      <trkpt lat="47.77472" lon="-3.62813">
        <ele>6</ele>
        <time>2018-07-18T12:50:18Z</time>
      </trkpt>
      <trkpt lat="47.77474" lon="-3.62809">
        <ele>6</ele>
        <time>2018-07-18T12:50:19Z</time>
      </trkpt>
      <trkpt lat="47.77477" lon="-3.62806">
        <ele>6</ele>
        <time>2018-07-18T12:50:20Z</time>
      </trkpt>
      <trkpt lat="47.77479" lon="-3.62804">
        <ele>6</ele>
        <time>2018-07-18T12:50:21Z</time>
      </trkpt>
      <trkpt lat="47.77481" lon="-3.62802">
        <ele>6</ele>
        <time>2018-07-18T12:50:22Z</time>
      </trkpt>
      <trkpt lat="47.77481" lon="-3.62802">
        <ele>6</ele>
        <time>2018-07-18T12:50:23Z</time>
      </trkpt>
      <trkpt lat="47.77482" lon="-3.62801">
        <ele>6</ele>
        <time>2018-07-18T12:50:24Z</time>
      </trkpt>
      <trkpt lat="47.77482" lon="-3.62801">
        <ele>6</ele>
        <time>2018-07-18T12:50:25Z</time>
      </trkpt>
      <trkpt lat="47.77482" lon="-3.62801">
        <ele>6</ele>
        <time>2018-07-18T12:50:26Z</time>
      </trkpt>
      <trkpt lat="47.77483" lon="-3.62797">
        <ele>6</ele>
        <time>2018-07-18T12:50:28Z</time>
      </trkpt>
      <trkpt lat="47.77482" lon="-3.62796">
        <ele>6</ele>
        <time>2018-07-18T12:50:29Z</time>
      </trkpt>
      <trkpt lat="47.77482" lon="-3.62795">
        <ele>6</ele>
        <time>2018-07-18T12:50:30Z</time>
      </trkpt>
      <trkpt lat="47.77481" lon="-3.62795">
        <ele>5</ele>
        <time>2018-07-18T12:50:31Z</time>
      </trkpt>
      <trkpt lat="47.7748" lon="-3.62795">
        <ele>5</ele>
        <time>2018-07-18T12:50:32Z</time>
      </trkpt>
      <trkpt lat="47.7748" lon="-3.62795">
        <ele>5</ele>
        <time>2018-07-18T12:50:33Z</time>
      </trkpt>
      <trkpt lat="47.7748" lon="-3.62795">
        <ele>5</ele>
        <time>2018-07-18T12:50:34Z</time>
      </trkpt>
      <trkpt lat="47.7748" lon="-3.62795">
        <ele>5</ele>
        <time>2018-07-18T12:50:35Z</time>
      </trkpt>
      <trkpt lat="47.7748" lon="-3.62796">
        <ele>5</ele>
        <time>2018-07-18T12:50:36Z</time>
      </trkpt>
      <trkpt lat="47.7748" lon="-3.62796">
        <ele>4</ele>
        <time>2018-07-18T12:50:37Z</time>
      </trkpt>
      <trkpt lat="47.7748" lon="-3.62796">
        <ele>4</ele>
        <time>2018-07-18T12:50:38Z</time>
      </trkpt>
      <trkpt lat="47.77479" lon="-3.62796">
        <ele>4</ele>
        <time>2018-07-18T12:50:39Z</time>
      </trkpt>
      <trkpt lat="47.77477" lon="-3.62798">
        <ele>4</ele>
        <time>2018-07-18T12:50:40Z</time>
      </trkpt>
      <trkpt lat="47.77476" lon="-3.62798">
        <ele>4</ele>
        <time>2018-07-18T12:50:41Z</time>
      </trkpt>
      <trkpt lat="47.77474" lon="-3.62798">
        <ele>4</ele>
        <time>2018-07-18T12:50:42Z</time>
      </trkpt>
      <trkpt lat="47.77472" lon="-3.62797">
        <ele>4</ele>
        <time>2018-07-18T12:50:43Z</time>
      </trkpt>
      <trkpt lat="47.7747" lon="-3.62795">
        <ele>4</ele>
        <time>2018-07-18T12:50:44Z</time>
      </trkpt>
      <trkpt lat="47.77469" lon="-3.62793">
        <ele>4</ele>
        <time>2018-07-18T12:50:45Z</time>
      </trkpt>
      <trkpt lat="47.77468" lon="-3.6279">
        <ele>4</ele>
        <time>2018-07-18T12:50:46Z</time>
      </trkpt>
      <trkpt lat="47.77467" lon="-3.62787">
        <ele>4</ele>
        <time>2018-07-18T12:50:47Z</time>
      </trkpt>
      <trkpt lat="47.77464" lon="-3.62784">
        <ele>4</ele>
        <time>2018-07-18T12:50:48Z</time>
      </trkpt>
      <trkpt lat="47.77463" lon="-3.62781">
        <ele>4</ele>
        <time>2018-07-18T12:50:49Z</time>
      </trkpt>
      <trkpt lat="47.77461" lon="-3.62778">
        <ele>3</ele>
        <time>2018-07-18T12:50:50Z</time>
      </trkpt>
      <trkpt lat="47.77459" lon="-3.62775">
        <ele>3</ele>
        <time>2018-07-18T12:50:51Z</time>
      </trkpt>
      <trkpt lat="47.77457" lon="-3.62772">
        <ele>3</ele>
        <time>2018-07-18T12:50:52Z</time>
      </trkpt>
      <trkpt lat="47.77455" lon="-3.62769">
        <ele>3</ele>
        <time>2018-07-18T12:50:53Z</time>
      </trkpt>
      <trkpt lat="47.77454" lon="-3.62766">
        <ele>3</ele>
        <time>2018-07-18T12:50:54Z</time>
      </trkpt>
      <trkpt lat="47.77452" lon="-3.62763">
        <ele>3</ele>
        <time>2018-07-18T12:50:55Z</time>
      </trkpt>
      <trkpt lat="47.7745" lon="-3.62759">
        <ele>3</ele>
        <time>2018-07-18T12:50:56Z</time>
      </trkpt>
      <trkpt lat="47.77448" lon="-3.62756">
        <ele>3</ele>
        <time>2018-07-18T12:50:57Z</time>
      </trkpt>
      <trkpt lat="47.77446" lon="-3.62752">
        <ele>3</ele>
        <time>2018-07-18T12:50:58Z</time>
      </trkpt>
      <trkpt lat="47.77444" lon="-3.62748">
        <ele>3</ele>
        <time>2018-07-18T12:50:59Z</time>
      </trkpt>
      <trkpt lat="47.77442" lon="-3.62745">
        <ele>3</ele>
        <time>2018-07-18T12:51:00Z</time>
      </trkpt>
      <trkpt lat="47.77441" lon="-3.62742">
        <ele>3</ele>
        <time>2018-07-18T12:51:01Z</time>
      </trkpt>
      <trkpt lat="47.7744" lon="-3.62738">
        <ele>3</ele>
        <time>2018-07-18T12:51:02Z</time>
      </trkpt>
      <trkpt lat="47.7744" lon="-3.62734">
        <ele>3</ele>
        <time>2018-07-18T12:51:03Z</time>
      </trkpt>
      <trkpt lat="47.77439" lon="-3.6273">
        <ele>3</ele>
        <time>2018-07-18T12:51:04Z</time>
      </trkpt>
      <trkpt lat="47.77438" lon="-3.62727">
        <ele>3</ele>
        <time>2018-07-18T12:51:05Z</time>
      </trkpt>
      <trkpt lat="47.77437" lon="-3.62723">
        <ele>4</ele>
        <time>2018-07-18T12:51:06Z</time>
      </trkpt>
      <trkpt lat="47.77437" lon="-3.6272">
        <ele>4</ele>
        <time>2018-07-18T12:51:07Z</time>
      </trkpt>
      <trkpt lat="47.77436" lon="-3.62717">
        <ele>4</ele>
        <time>2018-07-18T12:51:08Z</time>
      </trkpt>
      <trkpt lat="47.77435" lon="-3.62715">
        <ele>4</ele>
        <time>2018-07-18T12:51:09Z</time>
      </trkpt>
      <trkpt lat="47.77433" lon="-3.62714">
        <ele>5</ele>
        <time>2018-07-18T12:51:10Z</time>
      </trkpt>
      <trkpt lat="47.77431" lon="-3.62713">
        <ele>5</ele>
        <time>2018-07-18T12:51:11Z</time>
      </trkpt>
      <trkpt lat="47.77429" lon="-3.62713">
        <ele>5</ele>
        <time>2018-07-18T12:51:12Z</time>
      </trkpt>
      <trkpt lat="47.77427" lon="-3.62713">
        <ele>5</ele>
        <time>2018-07-18T12:51:13Z</time>
      </trkpt>
      <trkpt lat="47.77425" lon="-3.62713">
        <ele>5</ele>
        <time>2018-07-18T12:51:14Z</time>
      </trkpt>
      <trkpt lat="47.77424" lon="-3.62713">
        <ele>5</ele>
        <time>2018-07-18T12:51:15Z</time>
      </trkpt>
      <trkpt lat="47.77422" lon="-3.62713">
        <ele>5</ele>
        <time>2018-07-18T12:51:16Z</time>
      </trkpt>
      <trkpt lat="47.77421" lon="-3.62713">
        <ele>5</ele>
        <time>2018-07-18T12:51:17Z</time>
      </trkpt>
      <trkpt lat="47.77421" lon="-3.62713">
        <ele>5</ele>
        <time>2018-07-18T12:51:18Z</time>
      </trkpt>
      <trkpt lat="47.77421" lon="-3.62713">
        <ele>5</ele>
        <time>2018-07-18T12:51:19Z</time>
      </trkpt>
      <trkpt lat="47.77421" lon="-3.62713">
        <ele>6</ele>
        <time>2018-07-18T12:51:20Z</time>
      </trkpt>
      <trkpt lat="47.77421" lon="-3.62713">
        <ele>6</ele>
        <time>2018-07-18T12:51:21Z</time>
      </trkpt>
      <trkpt lat="47.7742" lon="-3.62713">
        <ele>6</ele>
        <time>2018-07-18T12:51:22Z</time>
      </trkpt>
      <trkpt lat="47.77419" lon="-3.62711">
        <ele>6</ele>
        <time>2018-07-18T12:51:23Z</time>
      </trkpt>
      <trkpt lat="47.77418" lon="-3.62709">
        <ele>6</ele>
        <time>2018-07-18T12:51:24Z</time>
      </trkpt>
      <trkpt lat="47.77418" lon="-3.62707">
        <ele>6</ele>
        <time>2018-07-18T12:51:25Z</time>
      </trkpt>
      <trkpt lat="47.77417" lon="-3.62704">
        <ele>6</ele>
        <time>2018-07-18T12:51:26Z</time>
      </trkpt>
      <trkpt lat="47.77417" lon="-3.62701">
        <ele>6</ele>
        <time>2018-07-18T12:51:27Z</time>
      </trkpt>
      <trkpt lat="47.77416" lon="-3.62698">
        <ele>6</ele>
        <time>2018-07-18T12:51:28Z</time>
      </trkpt>
      <trkpt lat="47.77415" lon="-3.62695">
        <ele>6</ele>
        <time>2018-07-18T12:51:29Z</time>
      </trkpt>
      <trkpt lat="47.77415" lon="-3.62692">
        <ele>7</ele>
        <time>2018-07-18T12:51:30Z</time>
      </trkpt>
      <trkpt lat="47.77414" lon="-3.62689">
        <ele>7</ele>
        <time>2018-07-18T12:51:31Z</time>
      </trkpt>
      <trkpt lat="47.77413" lon="-3.62685">
        <ele>7</ele>
        <time>2018-07-18T12:51:32Z</time>
      </trkpt>
      <trkpt lat="47.77413" lon="-3.62682">
        <ele>7</ele>
        <time>2018-07-18T12:51:33Z</time>
      </trkpt>
      <trkpt lat="47.77413" lon="-3.62679">
        <ele>7</ele>
        <time>2018-07-18T12:51:34Z</time>
      </trkpt>
      <trkpt lat="47.77412" lon="-3.62676">
        <ele>7</ele>
        <time>2018-07-18T12:51:35Z</time>
      </trkpt>
      <trkpt lat="47.77413" lon="-3.62674">
        <ele>7</ele>
        <time>2018-07-18T12:51:36Z</time>
      </trkpt>
      <trkpt lat="47.77413" lon="-3.62671">
        <ele>7</ele>
        <time>2018-07-18T12:51:37Z</time>
      </trkpt>
      <trkpt lat="47.77413" lon="-3.62668">
        <ele>8</ele>
        <time>2018-07-18T12:51:38Z</time>
      </trkpt>
      <trkpt lat="47.77413" lon="-3.62666">
        <ele>8</ele>
        <time>2018-07-18T12:51:39Z</time>
      </trkpt>
      <trkpt lat="47.77413" lon="-3.62663">
        <ele>8</ele>
        <time>2018-07-18T12:51:40Z</time>
      </trkpt>
      <trkpt lat="47.77413" lon="-3.6266">
        <ele>8</ele>
        <time>2018-07-18T12:51:41Z</time>
      </trkpt>
      <trkpt lat="47.77414" lon="-3.62657">
        <ele>8</ele>
        <time>2018-07-18T12:51:42Z</time>
      </trkpt>
      <trkpt lat="47.77414" lon="-3.62653">
        <ele>8</ele>
        <time>2018-07-18T12:51:43Z</time>
      </trkpt>
      <trkpt lat="47.77414" lon="-3.6265">
        <ele>8</ele>
        <time>2018-07-18T12:51:44Z</time>
      </trkpt>
      <trkpt lat="47.77414" lon="-3.62646">
        <ele>8</ele>
        <time>2018-07-18T12:51:45Z</time>
      </trkpt>
      <trkpt lat="47.77415" lon="-3.62643">
        <ele>8</ele>
        <time>2018-07-18T12:51:46Z</time>
      </trkpt>
      <trkpt lat="47.77416" lon="-3.62638">
        <ele>9</ele>
        <time>2018-07-18T12:51:47Z</time>
      </trkpt>
      <trkpt lat="47.77417" lon="-3.62634">
        <ele>9</ele>
        <time>2018-07-18T12:51:48Z</time>
      </trkpt>
      <trkpt lat="47.77417" lon="-3.6263">
        <ele>9</ele>
        <time>2018-07-18T12:51:49Z</time>
      </trkpt>
      <trkpt lat="47.77418" lon="-3.62626">
        <ele>9</ele>
        <time>2018-07-18T12:51:50Z</time>
      </trkpt>
      <trkpt lat="47.77419" lon="-3.62622">
        <ele>9</ele>
        <time>2018-07-18T12:51:51Z</time>
      </trkpt>
      <trkpt lat="47.77419" lon="-3.62618">
        <ele>10</ele>
        <time>2018-07-18T12:51:52Z</time>
      </trkpt>
      <trkpt lat="47.7742" lon="-3.62615">
        <ele>10</ele>
        <time>2018-07-18T12:51:53Z</time>
      </trkpt>
      <trkpt lat="47.77421" lon="-3.62611">
        <ele>10</ele>
        <time>2018-07-18T12:51:54Z</time>
      </trkpt>
      <trkpt lat="47.77422" lon="-3.62607">
        <ele>10</ele>
        <time>2018-07-18T12:51:55Z</time>
      </trkpt>
      <trkpt lat="47.77423" lon="-3.62603">
        <ele>10</ele>
        <time>2018-07-18T12:51:56Z</time>
      </trkpt>
      <trkpt lat="47.77424" lon="-3.62599">
        <ele>11</ele>
        <time>2018-07-18T12:51:57Z</time>
      </trkpt>
      <trkpt lat="47.77424" lon="-3.62596">
        <ele>11</ele>
        <time>2018-07-18T12:51:58Z</time>
      </trkpt>
      <trkpt lat="47.77425" lon="-3.62593">
        <ele>11</ele>
        <time>2018-07-18T12:51:59Z</time>
      </trkpt>
      <trkpt lat="47.77426" lon="-3.62589">
        <ele>11</ele>
        <time>2018-07-18T12:52:00Z</time>
      </trkpt>
      <trkpt lat="47.77427" lon="-3.62585">
        <ele>11</ele>
        <time>2018-07-18T12:52:01Z</time>
      </trkpt>
      <trkpt lat="47.77428" lon="-3.62582">
        <ele>12</ele>
        <time>2018-07-18T12:52:02Z</time>
      </trkpt>
      <trkpt lat="47.77429" lon="-3.62578">
        <ele>12</ele>
        <time>2018-07-18T12:52:03Z</time>
      </trkpt>
      <trkpt lat="47.7743" lon="-3.62575">
        <ele>12</ele>
        <time>2018-07-18T12:52:04Z</time>
      </trkpt>
      <trkpt lat="47.77431" lon="-3.62573">
        <ele>13</ele>
        <time>2018-07-18T12:52:05Z</time>
      </trkpt>
      <trkpt lat="47.77431" lon="-3.62571">
        <ele>13</ele>
        <time>2018-07-18T12:52:06Z</time>
      </trkpt>
      <trkpt lat="47.77432" lon="-3.6257">
        <ele>13</ele>
        <time>2018-07-18T12:52:07Z</time>
      </trkpt>
      <trkpt lat="47.77432" lon="-3.6257">
        <ele>13</ele>
        <time>2018-07-18T12:52:08Z</time>
      </trkpt>
      <trkpt lat="47.77432" lon="-3.62569">
        <ele>13</ele>
        <time>2018-07-18T12:52:09Z</time>
      </trkpt>
      <trkpt lat="47.77432" lon="-3.62569">
        <ele>13</ele>
        <time>2018-07-18T12:52:10Z</time>
      </trkpt>
      <trkpt lat="47.77433" lon="-3.62565">
        <ele>14</ele>
        <time>2018-07-18T12:52:11Z</time>
      </trkpt>
      <trkpt lat="47.77433" lon="-3.62563">
        <ele>14</ele>
        <time>2018-07-18T12:52:12Z</time>
      </trkpt>
      <trkpt lat="47.77434" lon="-3.6256">
        <ele>14</ele>
        <time>2018-07-18T12:52:13Z</time>
      </trkpt>
      <trkpt lat="47.77435" lon="-3.62557">
        <ele>14</ele>
        <time>2018-07-18T12:52:14Z</time>
      </trkpt>
      <trkpt lat="47.77436" lon="-3.62554">
        <ele>15</ele>
        <time>2018-07-18T12:52:15Z</time>
      </trkpt>
      <trkpt lat="47.77437" lon="-3.62551">
        <ele>15</ele>
        <time>2018-07-18T12:52:16Z</time>
      </trkpt>
      <trkpt lat="47.77437" lon="-3.62548">
        <ele>15</ele>
        <time>2018-07-18T12:52:17Z</time>
      </trkpt>
      <trkpt lat="47.77438" lon="-3.62545">
        <ele>15</ele>
        <time>2018-07-18T12:52:18Z</time>
      </trkpt>
      <trkpt lat="47.77438" lon="-3.62543">
        <ele>15</ele>
        <time>2018-07-18T12:52:19Z</time>
      </trkpt>
      <trkpt lat="47.77439" lon="-3.6254">
        <ele>15</ele>
        <time>2018-07-18T12:52:20Z</time>
      </trkpt>
      <trkpt lat="47.77439" lon="-3.62537">
        <ele>15</ele>
        <time>2018-07-18T12:52:21Z</time>
      </trkpt>
      <trkpt lat="47.7744" lon="-3.62534">
        <ele>16</ele>
        <time>2018-07-18T12:52:22Z</time>
      </trkpt>
      <trkpt lat="47.77441" lon="-3.6253">
        <ele>16</ele>
        <time>2018-07-18T12:52:23Z</time>
      </trkpt>
      <trkpt lat="47.77442" lon="-3.62527">
        <ele>16</ele>
        <time>2018-07-18T12:52:24Z</time>
      </trkpt>
      <trkpt lat="47.77443" lon="-3.62524">
        <ele>16</ele>
        <time>2018-07-18T12:52:25Z</time>
      </trkpt>
      <trkpt lat="47.77444" lon="-3.62522">
        <ele>16</ele>
        <time>2018-07-18T12:52:26Z</time>
      </trkpt>
      <trkpt lat="47.77446" lon="-3.62519">
        <ele>16</ele>
        <time>2018-07-18T12:52:27Z</time>
      </trkpt>
      <trkpt lat="47.77448" lon="-3.62518">
        <ele>16</ele>
        <time>2018-07-18T12:52:28Z</time>
      </trkpt>
      <trkpt lat="47.7745" lon="-3.62516">
        <ele>17</ele>
        <time>2018-07-18T12:52:29Z</time>
      </trkpt>
      <trkpt lat="47.77452" lon="-3.62514">
        <ele>17</ele>
        <time>2018-07-18T12:52:30Z</time>
      </trkpt>
      <trkpt lat="47.77454" lon="-3.62513">
        <ele>17</ele>
        <time>2018-07-18T12:52:31Z</time>
      </trkpt>
      <trkpt lat="47.77457" lon="-3.62512">
        <ele>17</ele>
        <time>2018-07-18T12:52:32Z</time>
      </trkpt>
      <trkpt lat="47.77459" lon="-3.62511">
        <ele>17</ele>
        <time>2018-07-18T12:52:33Z</time>
      </trkpt>
      <trkpt lat="47.77461" lon="-3.6251">
        <ele>17</ele>
        <time>2018-07-18T12:52:34Z</time>
      </trkpt>
      <trkpt lat="47.77464" lon="-3.62509">
        <ele>18</ele>
        <time>2018-07-18T12:52:35Z</time>
      </trkpt>
      <trkpt lat="47.77466" lon="-3.62507">
        <ele>18</ele>
        <time>2018-07-18T12:52:36Z</time>
      </trkpt>
      <trkpt lat="47.77469" lon="-3.62506">
        <ele>18</ele>
        <time>2018-07-18T12:52:37Z</time>
      </trkpt>
      <trkpt lat="47.77471" lon="-3.62505">
        <ele>18</ele>
        <time>2018-07-18T12:52:38Z</time>
      </trkpt>
      <trkpt lat="47.77474" lon="-3.62504">
        <ele>18</ele>
        <time>2018-07-18T12:52:39Z</time>
      </trkpt>
      <trkpt lat="47.77476" lon="-3.62503">
        <ele>18</ele>
        <time>2018-07-18T12:52:40Z</time>
      </trkpt>
      <trkpt lat="47.77479" lon="-3.62502">
        <ele>18</ele>
        <time>2018-07-18T12:52:41Z</time>
      </trkpt>
      <trkpt lat="47.77481" lon="-3.62501">
        <ele>19</ele>
        <time>2018-07-18T12:52:42Z</time>
      </trkpt>
      <trkpt lat="47.77483" lon="-3.625">
        <ele>19</ele>
        <time>2018-07-18T12:52:43Z</time>
      </trkpt>
      <trkpt lat="47.77486" lon="-3.62499">
        <ele>19</ele>
        <time>2018-07-18T12:52:44Z</time>
      </trkpt>
      <trkpt lat="47.77488" lon="-3.62498">
        <ele>19</ele>
        <time>2018-07-18T12:52:45Z</time>
      </trkpt>
      <trkpt lat="47.7749" lon="-3.62496">
        <ele>19</ele>
        <time>2018-07-18T12:52:46Z</time>
      </trkpt>
      <trkpt lat="47.77493" lon="-3.62494">
        <ele>19</ele>
        <time>2018-07-18T12:52:47Z</time>
      </trkpt>
      <trkpt lat="47.77495" lon="-3.62492">
        <ele>19</ele>
        <time>2018-07-18T12:52:48Z</time>
      </trkpt>
      <trkpt lat="47.77496" lon="-3.62489">
        <ele>19</ele>
        <time>2018-07-18T12:52:49Z</time>
      </trkpt>
      <trkpt lat="47.77498" lon="-3.62487">
        <ele>20</ele>
        <time>2018-07-18T12:52:50Z</time>
      </trkpt>
      <trkpt lat="47.77499" lon="-3.62484">
        <ele>20</ele>
        <time>2018-07-18T12:52:51Z</time>
      </trkpt>
      <trkpt lat="47.775" lon="-3.62483">
        <ele>20</ele>
        <time>2018-07-18T12:52:52Z</time>
      </trkpt>
      <trkpt lat="47.77501" lon="-3.6248">
        <ele>20</ele>
        <time>2018-07-18T12:52:53Z</time>
      </trkpt>
      <trkpt lat="47.77502" lon="-3.62477">
        <ele>20</ele>
        <time>2018-07-18T12:52:54Z</time>
      </trkpt>
      <trkpt lat="47.77502" lon="-3.62474">
        <ele>20</ele>
        <time>2018-07-18T12:52:55Z</time>
      </trkpt>
      <trkpt lat="47.77501" lon="-3.62471">
        <ele>20</ele>
        <time>2018-07-18T12:52:56Z</time>
      </trkpt>
      <trkpt lat="47.775" lon="-3.62468">
        <ele>21</ele>
        <time>2018-07-18T12:52:57Z</time>
      </trkpt>
      <trkpt lat="47.77499" lon="-3.62465">
        <ele>21</ele>
        <time>2018-07-18T12:52:58Z</time>
      </trkpt>
      <trkpt lat="47.77498" lon="-3.62461">
        <ele>21</ele>
        <time>2018-07-18T12:52:59Z</time>
      </trkpt>
      <trkpt lat="47.77497" lon="-3.62458">
        <ele>21</ele>
        <time>2018-07-18T12:53:00Z</time>
      </trkpt>
      <trkpt lat="47.77495" lon="-3.62456">
        <ele>21</ele>
        <time>2018-07-18T12:53:01Z</time>
      </trkpt>
      <trkpt lat="47.77495" lon="-3.62453">
        <ele>21</ele>
        <time>2018-07-18T12:53:02Z</time>
      </trkpt>
      <trkpt lat="47.77494" lon="-3.6245">
        <ele>22</ele>
        <time>2018-07-18T12:53:03Z</time>
      </trkpt>
      <trkpt lat="47.77492" lon="-3.62447">
        <ele>22</ele>
        <time>2018-07-18T12:53:04Z</time>
      </trkpt>
      <trkpt lat="47.77489" lon="-3.62446">
        <ele>22</ele>
        <time>2018-07-18T12:53:05Z</time>
      </trkpt>
      <trkpt lat="47.77485" lon="-3.62445">
        <ele>22</ele>
        <time>2018-07-18T12:53:06Z</time>
      </trkpt>
      <trkpt lat="47.77482" lon="-3.62444">
        <ele>22</ele>
        <time>2018-07-18T12:53:07Z</time>
      </trkpt>
      <trkpt lat="47.77479" lon="-3.62443">
        <ele>22</ele>
        <time>2018-07-18T12:53:08Z</time>
      </trkpt>
      <trkpt lat="47.77476" lon="-3.62441">
        <ele>22</ele>
        <time>2018-07-18T12:53:09Z</time>
      </trkpt>
      <trkpt lat="47.77473" lon="-3.6244">
        <ele>22</ele>
        <time>2018-07-18T12:53:10Z</time>
      </trkpt>
      <trkpt lat="47.77469" lon="-3.62439">
        <ele>22</ele>
        <time>2018-07-18T12:53:11Z</time>
      </trkpt>
      <trkpt lat="47.77466" lon="-3.62438">
        <ele>22</ele>
        <time>2018-07-18T12:53:12Z</time>
      </trkpt>
      <trkpt lat="47.77462" lon="-3.62436">
        <ele>22</ele>
        <time>2018-07-18T12:53:13Z</time>
      </trkpt>
      <trkpt lat="47.77458" lon="-3.62434">
        <ele>22</ele>
        <time>2018-07-18T12:53:14Z</time>
      </trkpt>
      <trkpt lat="47.77454" lon="-3.62433">
        <ele>22</ele>
        <time>2018-07-18T12:53:15Z</time>
      </trkpt>
      <trkpt lat="47.77451" lon="-3.62431">
        <ele>22</ele>
        <time>2018-07-18T12:53:16Z</time>
      </trkpt>
      <trkpt lat="47.77447" lon="-3.6243">
        <ele>22</ele>
        <time>2018-07-18T12:53:17Z</time>
      </trkpt>
      <trkpt lat="47.77443" lon="-3.62428">
        <ele>22</ele>
        <time>2018-07-18T12:53:18Z</time>
      </trkpt>
      <trkpt lat="47.77438" lon="-3.62426">
        <ele>22</ele>
        <time>2018-07-18T12:53:19Z</time>
      </trkpt>
      <trkpt lat="47.77434" lon="-3.62424">
        <ele>22</ele>
        <time>2018-07-18T12:53:20Z</time>
      </trkpt>
      <trkpt lat="47.7743" lon="-3.62421">
        <ele>22</ele>
        <time>2018-07-18T12:53:21Z</time>
      </trkpt>
      <trkpt lat="47.77425" lon="-3.62419">
        <ele>22</ele>
        <time>2018-07-18T12:53:22Z</time>
      </trkpt>
      <trkpt lat="47.77421" lon="-3.62416">
        <ele>22</ele>
        <time>2018-07-18T12:53:23Z</time>
      </trkpt>
      <trkpt lat="47.77416" lon="-3.62414">
        <ele>22</ele>
        <time>2018-07-18T12:53:24Z</time>
      </trkpt>
      <trkpt lat="47.77412" lon="-3.62411">
        <ele>22</ele>
        <time>2018-07-18T12:53:25Z</time>
      </trkpt>
      <trkpt lat="47.77408" lon="-3.62408">
        <ele>22</ele>
        <time>2018-07-18T12:53:26Z</time>
      </trkpt>
      <trkpt lat="47.77403" lon="-3.62405">
        <ele>22</ele>
        <time>2018-07-18T12:53:27Z</time>
      </trkpt>
      <trkpt lat="47.77399" lon="-3.62403">
        <ele>23</ele>
        <time>2018-07-18T12:53:28Z</time>
      </trkpt>
      <trkpt lat="47.77394" lon="-3.624">
        <ele>23</ele>
        <time>2018-07-18T12:53:29Z</time>
      </trkpt>
      <trkpt lat="47.7739" lon="-3.62397">
        <ele>23</ele>
        <time>2018-07-18T12:53:30Z</time>
      </trkpt>
      <trkpt lat="47.77385" lon="-3.62394">
        <ele>23</ele>
        <time>2018-07-18T12:53:31Z</time>
      </trkpt>
      <trkpt lat="47.77381" lon="-3.62391">
        <ele>23</ele>
        <time>2018-07-18T12:53:32Z</time>
      </trkpt>
      <trkpt lat="47.77377" lon="-3.62388">
        <ele>23</ele>
        <time>2018-07-18T12:53:33Z</time>
      </trkpt>
      <trkpt lat="47.77373" lon="-3.62385">
        <ele>23</ele>
        <time>2018-07-18T12:53:34Z</time>
      </trkpt>
      <trkpt lat="47.77368" lon="-3.62382">
        <ele>23</ele>
        <time>2018-07-18T12:53:35Z</time>
      </trkpt>
      <trkpt lat="47.77364" lon="-3.62379">
        <ele>23</ele>
        <time>2018-07-18T12:53:36Z</time>
      </trkpt>
      <trkpt lat="47.77359" lon="-3.62375">
        <ele>23</ele>
        <time>2018-07-18T12:53:37Z</time>
      </trkpt>
      <trkpt lat="47.77355" lon="-3.62372">
        <ele>23</ele>
        <time>2018-07-18T12:53:38Z</time>
      </trkpt>
      <trkpt lat="47.77351" lon="-3.62369">
        <ele>23</ele>
        <time>2018-07-18T12:53:39Z</time>
      </trkpt>
      <trkpt lat="47.77347" lon="-3.62367">
        <ele>23</ele>
        <time>2018-07-18T12:53:40Z</time>
      </trkpt>
      <trkpt lat="47.77343" lon="-3.62364">
        <ele>23</ele>
        <time>2018-07-18T12:53:41Z</time>
      </trkpt>
      <trkpt lat="47.77339" lon="-3.62361">
        <ele>23</ele>
        <time>2018-07-18T12:53:42Z</time>
      </trkpt>
      <trkpt lat="47.77334" lon="-3.62359">
        <ele>23</ele>
        <time>2018-07-18T12:53:43Z</time>
      </trkpt>
      <trkpt lat="47.7733" lon="-3.62356">
        <ele>23</ele>
        <time>2018-07-18T12:53:44Z</time>
      </trkpt>
      <trkpt lat="47.77325" lon="-3.62353">
        <ele>23</ele>
        <time>2018-07-18T12:53:45Z</time>
      </trkpt>
      <trkpt lat="47.7732" lon="-3.62351">
        <ele>23</ele>
        <time>2018-07-18T12:53:46Z</time>
      </trkpt>
      <trkpt lat="47.77316" lon="-3.62348">
        <ele>23</ele>
        <time>2018-07-18T12:53:47Z</time>
      </trkpt>
      <trkpt lat="47.77311" lon="-3.62345">
        <ele>23</ele>
        <time>2018-07-18T12:53:48Z</time>
      </trkpt>
      <trkpt lat="47.77306" lon="-3.62342">
        <ele>23</ele>
        <time>2018-07-18T12:53:49Z</time>
      </trkpt>
      <trkpt lat="47.77302" lon="-3.62337">
        <ele>23</ele>
        <time>2018-07-18T12:53:50Z</time>
      </trkpt>
      <trkpt lat="47.77298" lon="-3.62332">
        <ele>23</ele>
        <time>2018-07-18T12:53:51Z</time>
      </trkpt>
      <trkpt lat="47.77296" lon="-3.62329">
        <ele>23</ele>
        <time>2018-07-18T12:53:52Z</time>
      </trkpt>
      <trkpt lat="47.77295" lon="-3.62328">
        <ele>23</ele>
        <time>2018-07-18T12:53:53Z</time>
      </trkpt>
      <trkpt lat="47.77295" lon="-3.62327">
        <ele>23</ele>
        <time>2018-07-18T12:53:54Z</time>
      </trkpt>
      <trkpt lat="47.77294" lon="-3.62327">
        <ele>23</ele>
        <time>2018-07-18T12:53:55Z</time>
      </trkpt>
      <trkpt lat="47.77294" lon="-3.62327">
        <ele>23</ele>
        <time>2018-07-18T12:53:56Z</time>
      </trkpt>
      <trkpt lat="47.77294" lon="-3.62326">
        <ele>23</ele>
        <time>2018-07-18T12:53:57Z</time>
      </trkpt>
      <trkpt lat="47.77295" lon="-3.62324">
        <ele>23</ele>
        <time>2018-07-18T12:53:58Z</time>
      </trkpt>
      <trkpt lat="47.77296" lon="-3.6232">
        <ele>23</ele>
        <time>2018-07-18T12:53:59Z</time>
      </trkpt>
      <trkpt lat="47.77296" lon="-3.62316">
        <ele>22</ele>
        <time>2018-07-18T12:54:00Z</time>
      </trkpt>
      <trkpt lat="47.77297" lon="-3.6231">
        <ele>22</ele>
        <time>2018-07-18T12:54:01Z</time>
      </trkpt>
      <trkpt lat="47.77298" lon="-3.62305">
        <ele>22</ele>
        <time>2018-07-18T12:54:02Z</time>
      </trkpt>
      <trkpt lat="47.773" lon="-3.623">
        <ele>22</ele>
        <time>2018-07-18T12:54:03Z</time>
      </trkpt>
      <trkpt lat="47.77301" lon="-3.62294">
        <ele>22</ele>
        <time>2018-07-18T12:54:04Z</time>
      </trkpt>
      <trkpt lat="47.77302" lon="-3.62289">
        <ele>22</ele>
        <time>2018-07-18T12:54:05Z</time>
      </trkpt>
      <trkpt lat="47.77303" lon="-3.62283">
        <ele>22</ele>
        <time>2018-07-18T12:54:06Z</time>
      </trkpt>
      <trkpt lat="47.77303" lon="-3.62277">
        <ele>22</ele>
        <time>2018-07-18T12:54:07Z</time>
      </trkpt>
      <trkpt lat="47.77305" lon="-3.62271">
        <ele>22</ele>
        <time>2018-07-18T12:54:08Z</time>
      </trkpt>
      <trkpt lat="47.77306" lon="-3.62263">
        <ele>21</ele>
        <time>2018-07-18T12:54:09Z</time>
      </trkpt>
      <trkpt lat="47.77307" lon="-3.62256">
        <ele>21</ele>
        <time>2018-07-18T12:54:10Z</time>
      </trkpt>
      <trkpt lat="47.77308" lon="-3.62248">
        <ele>21</ele>
        <time>2018-07-18T12:54:11Z</time>
      </trkpt>
      <trkpt lat="47.77309" lon="-3.6224">
        <ele>21</ele>
        <time>2018-07-18T12:54:12Z</time>
      </trkpt>
      <trkpt lat="47.77309" lon="-3.62231">
        <ele>21</ele>
        <time>2018-07-18T12:54:13Z</time>
      </trkpt>
      <trkpt lat="47.77309" lon="-3.62222">
        <ele>20</ele>
        <time>2018-07-18T12:54:14Z</time>
      </trkpt>
      <trkpt lat="47.77309" lon="-3.62213">
        <ele>20</ele>
        <time>2018-07-18T12:54:15Z</time>
      </trkpt>
      <trkpt lat="47.77309" lon="-3.62205">
        <ele>20</ele>
        <time>2018-07-18T12:54:16Z</time>
      </trkpt>
      <trkpt lat="47.77308" lon="-3.62196">
        <ele>20</ele>
        <time>2018-07-18T12:54:17Z</time>
      </trkpt>
      <trkpt lat="47.77308" lon="-3.62188">
        <ele>19</ele>
        <time>2018-07-18T12:54:18Z</time>
      </trkpt>
      <trkpt lat="47.77307" lon="-3.6218">
        <ele>19</ele>
        <time>2018-07-18T12:54:19Z</time>
      </trkpt>
      <trkpt lat="47.77307" lon="-3.62172">
        <ele>19</ele>
        <time>2018-07-18T12:54:20Z</time>
      </trkpt>
      <trkpt lat="47.77307" lon="-3.62163">
        <ele>19</ele>
        <time>2018-07-18T12:54:21Z</time>
      </trkpt>
      <trkpt lat="47.77308" lon="-3.62154">
        <ele>19</ele>
        <time>2018-07-18T12:54:22Z</time>
      </trkpt>
      <trkpt lat="47.77308" lon="-3.62147">
        <ele>19</ele>
        <time>2018-07-18T12:54:23Z</time>
      </trkpt>
      <trkpt lat="47.77308" lon="-3.62142">
        <ele>19</ele>
        <time>2018-07-18T12:54:24Z</time>
      </trkpt>
      <trkpt lat="47.77308" lon="-3.62141">
        <ele>19</ele>
        <time>2018-07-18T12:54:25Z</time>
      </trkpt>
      <trkpt lat="47.77308" lon="-3.6214">
        <ele>19</ele>
        <time>2018-07-18T12:54:26Z</time>
      </trkpt>
      <trkpt lat="47.77308" lon="-3.6214">
        <ele>19</ele>
        <time>2018-07-18T12:54:27Z</time>
      </trkpt>
      <trkpt lat="47.77308" lon="-3.6214">
        <ele>19</ele>
        <time>2018-07-18T12:54:28Z</time>
      </trkpt>
      <trkpt lat="47.77308" lon="-3.6214">
        <ele>19</ele>
        <time>2018-07-18T12:54:29Z</time>
      </trkpt>
      <trkpt lat="47.77306" lon="-3.62132">
        <ele>19</ele>
        <time>2018-07-18T12:54:30Z</time>
      </trkpt>
      <trkpt lat="47.77304" lon="-3.62128">
        <ele>19</ele>
        <time>2018-07-18T12:54:31Z</time>
      </trkpt>
      <trkpt lat="47.77301" lon="-3.62124">
        <ele>19</ele>
        <time>2018-07-18T12:54:32Z</time>
      </trkpt>
      <trkpt lat="47.77297" lon="-3.6212">
        <ele>19</ele>
        <time>2018-07-18T12:54:33Z</time>
      </trkpt>
      <trkpt lat="47.77293" lon="-3.62117">
        <ele>19</ele>
        <time>2018-07-18T12:54:34Z</time>
      </trkpt>
      <trkpt lat="47.77287" lon="-3.62115">
        <ele>19</ele>
        <time>2018-07-18T12:54:35Z</time>
      </trkpt>
      <trkpt lat="47.77282" lon="-3.62113">
        <ele>19</ele>
        <time>2018-07-18T12:54:36Z</time>
      </trkpt>
      <trkpt lat="47.77277" lon="-3.62111">
        <ele>19</ele>
        <time>2018-07-18T12:54:37Z</time>
      </trkpt>
      <trkpt lat="47.77274" lon="-3.62108">
        <ele>19</ele>
        <time>2018-07-18T12:54:38Z</time>
      </trkpt>
      <trkpt lat="47.77271" lon="-3.62106">
        <ele>19</ele>
        <time>2018-07-18T12:54:39Z</time>
      </trkpt>
      <trkpt lat="47.77269" lon="-3.62103">
        <ele>19</ele>
        <time>2018-07-18T12:54:40Z</time>
      </trkpt>
      <trkpt lat="47.77267" lon="-3.62101">
        <ele>18</ele>
        <time>2018-07-18T12:54:41Z</time>
      </trkpt>
      <trkpt lat="47.77264" lon="-3.62098">
        <ele>18</ele>
        <time>2018-07-18T12:54:42Z</time>
      </trkpt>
      <trkpt lat="47.77261" lon="-3.62096">
        <ele>18</ele>
        <time>2018-07-18T12:54:43Z</time>
      </trkpt>
      <trkpt lat="47.77258" lon="-3.62093">
        <ele>18</ele>
        <time>2018-07-18T12:54:44Z</time>
      </trkpt>
      <trkpt lat="47.77255" lon="-3.62091">
        <ele>17</ele>
        <time>2018-07-18T12:54:45Z</time>
      </trkpt>
      <trkpt lat="47.77252" lon="-3.6209">
        <ele>17</ele>
        <time>2018-07-18T12:54:46Z</time>
      </trkpt>
      <trkpt lat="47.77249" lon="-3.62089">
        <ele>17</ele>
        <time>2018-07-18T12:54:47Z</time>
      </trkpt>
      <trkpt lat="47.77247" lon="-3.62087">
        <ele>16</ele>
        <time>2018-07-18T12:54:48Z</time>
      </trkpt>
      <trkpt lat="47.77246" lon="-3.62085">
        <ele>16</ele>
        <time>2018-07-18T12:54:49Z</time>
      </trkpt>
      <trkpt lat="47.77246" lon="-3.62082">
        <ele>15</ele>
        <time>2018-07-18T12:54:50Z</time>
      </trkpt>
      <trkpt lat="47.77245" lon="-3.6208">
        <ele>15</ele>
        <time>2018-07-18T12:54:51Z</time>
      </trkpt>
      <trkpt lat="47.77244" lon="-3.62077">
        <ele>15</ele>
        <time>2018-07-18T12:54:52Z</time>
      </trkpt>
      <trkpt lat="47.77243" lon="-3.62075">
        <ele>14</ele>
        <time>2018-07-18T12:54:53Z</time>
      </trkpt>
      <trkpt lat="47.77242" lon="-3.62074">
        <ele>14</ele>
        <time>2018-07-18T12:54:54Z</time>
      </trkpt>
      <trkpt lat="47.77242" lon="-3.62074">
        <ele>13</ele>
        <time>2018-07-18T12:54:55Z</time>
      </trkpt>
      <trkpt lat="47.77242" lon="-3.62074">
        <ele>13</ele>
        <time>2018-07-18T12:54:56Z</time>
      </trkpt>
      <trkpt lat="47.77242" lon="-3.62073">
        <ele>13</ele>
        <time>2018-07-18T12:54:57Z</time>
      </trkpt>
      <trkpt lat="47.77241" lon="-3.62073">
        <ele>13</ele>
        <time>2018-07-18T12:54:58Z</time>
      </trkpt>
      <trkpt lat="47.77241" lon="-3.62072">
        <ele>12</ele>
        <time>2018-07-18T12:54:59Z</time>
      </trkpt>
      <trkpt lat="47.77241" lon="-3.62071">
        <ele>12</ele>
        <time>2018-07-18T12:55:00Z</time>
      </trkpt>
      <trkpt lat="47.77241" lon="-3.6207">
        <ele>12</ele>
        <time>2018-07-18T12:55:01Z</time>
      </trkpt>
      <trkpt lat="47.77242" lon="-3.6207">
        <ele>12</ele>
        <time>2018-07-18T12:55:02Z</time>
      </trkpt>
      <trkpt lat="47.77242" lon="-3.62069">
        <ele>12</ele>
        <time>2018-07-18T12:55:03Z</time>
      </trkpt>
      <trkpt lat="47.77243" lon="-3.62069">
        <ele>11</ele>
        <time>2018-07-18T12:55:04Z</time>
      </trkpt>
      <trkpt lat="47.77244" lon="-3.62068">
        <ele>11</ele>
        <time>2018-07-18T12:55:05Z</time>
      </trkpt>
      <trkpt lat="47.77244" lon="-3.62068">
        <ele>11</ele>
        <time>2018-07-18T12:55:06Z</time>
      </trkpt>
      <trkpt lat="47.77244" lon="-3.62069">
        <ele>11</ele>
        <time>2018-07-18T12:55:07Z</time>
      </trkpt>
      <trkpt lat="47.77244" lon="-3.62069">
        <ele>10</ele>
        <time>2018-07-18T12:55:08Z</time>
      </trkpt>
      <trkpt lat="47.77244" lon="-3.62069">
        <ele>10</ele>
        <time>2018-07-18T12:55:09Z</time>
      </trkpt>
      <trkpt lat="47.77245" lon="-3.62068">
        <ele>10</ele>
        <time>2018-07-18T12:55:10Z</time>
      </trkpt>
      <trkpt lat="47.77246" lon="-3.62068">
        <ele>10</ele>
        <time>2018-07-18T12:55:11Z</time>
      </trkpt>
      <trkpt lat="47.77248" lon="-3.62068">
        <ele>10</ele>
        <time>2018-07-18T12:55:12Z</time>
      </trkpt>
      <trkpt lat="47.7725" lon="-3.62068">
        <ele>10</ele>
        <time>2018-07-18T12:55:13Z</time>
      </trkpt>
      <trkpt lat="47.77252" lon="-3.62069">
        <ele>10</ele>
        <time>2018-07-18T12:55:14Z</time>
      </trkpt>
      <trkpt lat="47.77254" lon="-3.62069">
        <ele>9</ele>
        <time>2018-07-18T12:55:15Z</time>
      </trkpt>
      <trkpt lat="47.77256" lon="-3.6207">
        <ele>9</ele>
        <time>2018-07-18T12:55:16Z</time>
      </trkpt>
      <trkpt lat="47.77257" lon="-3.62069">
        <ele>9</ele>
        <time>2018-07-18T12:55:17Z</time>
      </trkpt>
      <trkpt lat="47.77259" lon="-3.62069">
        <ele>9</ele>
        <time>2018-07-18T12:55:18Z</time>
      </trkpt>
      <trkpt lat="47.77261" lon="-3.62068">
        <ele>9</ele>
        <time>2018-07-18T12:55:19Z</time>
      </trkpt>
      <trkpt lat="47.77263" lon="-3.62067">
        <ele>9</ele>
        <time>2018-07-18T12:55:20Z</time>
      </trkpt>
      <trkpt lat="47.77264" lon="-3.62065">
        <ele>9</ele>
        <time>2018-07-18T12:55:21Z</time>
      </trkpt>
      <trkpt lat="47.77265" lon="-3.62064">
        <ele>9</ele>
        <time>2018-07-18T12:55:22Z</time>
      </trkpt>
      <trkpt lat="47.77266" lon="-3.62063">
        <ele>10</ele>
        <time>2018-07-18T12:55:23Z</time>
      </trkpt>
      <trkpt lat="47.77267" lon="-3.62061">
        <ele>10</ele>
        <time>2018-07-18T12:55:24Z</time>
      </trkpt>
      <trkpt lat="47.77268" lon="-3.6206">
        <ele>10</ele>
        <time>2018-07-18T12:55:25Z</time>
      </trkpt>
      <trkpt lat="47.77269" lon="-3.62059">
        <ele>10</ele>
        <time>2018-07-18T12:55:26Z</time>
      </trkpt>
      <trkpt lat="47.77269" lon="-3.62058">
        <ele>10</ele>
        <time>2018-07-18T12:55:27Z</time>
      </trkpt>
      <trkpt lat="47.7727" lon="-3.62059">
        <ele>10</ele>
        <time>2018-07-18T12:55:28Z</time>
      </trkpt>
      <trkpt lat="47.7727" lon="-3.62058">
        <ele>10</ele>
        <time>2018-07-18T12:55:29Z</time>
      </trkpt>
      <trkpt lat="47.7727" lon="-3.62058">
        <ele>10</ele>
        <time>2018-07-18T12:55:30Z</time>
      </trkpt>
      <trkpt lat="47.77271" lon="-3.62057">
        <ele>10</ele>
        <time>2018-07-18T12:55:31Z</time>
      </trkpt>
      <trkpt lat="47.77271" lon="-3.62057">
        <ele>10</ele>
        <time>2018-07-18T12:55:32Z</time>
      </trkpt>
      <trkpt lat="47.77271" lon="-3.62056">
        <ele>10</ele>
        <time>2018-07-18T12:55:33Z</time>
      </trkpt>
      <trkpt lat="47.77271" lon="-3.62055">
        <ele>10</ele>
        <time>2018-07-18T12:55:34Z</time>
      </trkpt>
      <trkpt lat="47.77271" lon="-3.62054">
        <ele>10</ele>
        <time>2018-07-18T12:55:35Z</time>
      </trkpt>
      <trkpt lat="47.77271" lon="-3.62054">
        <ele>10</ele>
        <time>2018-07-18T12:55:36Z</time>
      </trkpt>
      <trkpt lat="47.7727" lon="-3.62053">
        <ele>10</ele>
        <time>2018-07-18T12:55:37Z</time>
      </trkpt>
      <trkpt lat="47.7727" lon="-3.62053">
        <ele>10</ele>
        <time>2018-07-18T12:55:38Z</time>
      </trkpt>
      <trkpt lat="47.77269" lon="-3.62053">
        <ele>10</ele>
        <time>2018-07-18T12:55:39Z</time>
      </trkpt>
      <trkpt lat="47.77268" lon="-3.62053">
        <ele>10</ele>
        <time>2018-07-18T12:55:40Z</time>
      </trkpt>
      <trkpt lat="47.77267" lon="-3.62054">
        <ele>10</ele>
        <time>2018-07-18T12:55:41Z</time>
      </trkpt>
      <trkpt lat="47.77266" lon="-3.62054">
        <ele>10</ele>
        <time>2018-07-18T12:55:42Z</time>
      </trkpt>
      <trkpt lat="47.77265" lon="-3.62054">
        <ele>10</ele>
        <time>2018-07-18T12:55:43Z</time>
      </trkpt>
      <trkpt lat="47.77265" lon="-3.62053">
        <ele>10</ele>
        <time>2018-07-18T12:55:44Z</time>
      </trkpt>
      <trkpt lat="47.77264" lon="-3.62053">
        <ele>10</ele>
        <time>2018-07-18T12:55:45Z</time>
      </trkpt>
      <trkpt lat="47.77263" lon="-3.62053">
        <ele>11</ele>
        <time>2018-07-18T12:55:46Z</time>
      </trkpt>
      <trkpt lat="47.77262" lon="-3.62053">
        <ele>11</ele>
        <time>2018-07-18T12:55:47Z</time>
      </trkpt>
      <trkpt lat="47.77262" lon="-3.62052">
        <ele>11</ele>
        <time>2018-07-18T12:55:48Z</time>
      </trkpt>
      <trkpt lat="47.77261" lon="-3.62051">
        <ele>11</ele>
        <time>2018-07-18T12:55:49Z</time>
      </trkpt>
      <trkpt lat="47.7726" lon="-3.6205">
        <ele>12</ele>
        <time>2018-07-18T12:55:50Z</time>
      </trkpt>
      <trkpt lat="47.7726" lon="-3.62049">
        <ele>12</ele>
        <time>2018-07-18T12:55:51Z</time>
      </trkpt>
      <trkpt lat="47.77259" lon="-3.62048">
        <ele>12</ele>
        <time>2018-07-18T12:55:52Z</time>
      </trkpt>
      <trkpt lat="47.77259" lon="-3.62048">
        <ele>12</ele>
        <time>2018-07-18T12:55:53Z</time>
      </trkpt>
      <trkpt lat="47.77259" lon="-3.62048">
        <ele>12</ele>
        <time>2018-07-18T12:55:54Z</time>
      </trkpt>
      <trkpt lat="47.77259" lon="-3.62048">
        <ele>13</ele>
        <time>2018-07-18T12:55:55Z</time>
      </trkpt>
      <trkpt lat="47.77259" lon="-3.62048">
        <ele>13</ele>
        <time>2018-07-18T12:55:56Z</time>
      </trkpt>
      <trkpt lat="47.77257" lon="-3.62046">
        <ele>13</ele>
        <time>2018-07-18T12:55:57Z</time>
      </trkpt>
      <trkpt lat="47.77256" lon="-3.62045">
        <ele>13</ele>
        <time>2018-07-18T12:55:58Z</time>
      </trkpt>
      <trkpt lat="47.77255" lon="-3.62044">
        <ele>13</ele>
        <time>2018-07-18T12:55:59Z</time>
      </trkpt>
      <trkpt lat="47.77254" lon="-3.62044">
        <ele>13</ele>
        <time>2018-07-18T12:56:00Z</time>
      </trkpt>
      <trkpt lat="47.77254" lon="-3.62043">
        <ele>14</ele>
        <time>2018-07-18T12:56:01Z</time>
      </trkpt>
      <trkpt lat="47.77254" lon="-3.62043">
        <ele>14</ele>
        <time>2018-07-18T12:56:02Z</time>
      </trkpt>
      <trkpt lat="47.77253" lon="-3.62043">
        <ele>14</ele>
        <time>2018-07-18T12:56:03Z</time>
      </trkpt>
      <trkpt lat="47.77253" lon="-3.62042">
        <ele>14</ele>
        <time>2018-07-18T12:56:04Z</time>
      </trkpt>
      <trkpt lat="47.77251" lon="-3.62041">
        <ele>14</ele>
        <time>2018-07-18T12:56:05Z</time>
      </trkpt>
      <trkpt lat="47.7725" lon="-3.62041">
        <ele>14</ele>
        <time>2018-07-18T12:56:06Z</time>
      </trkpt>
      <trkpt lat="47.77248" lon="-3.6204">
        <ele>14</ele>
        <time>2018-07-18T12:56:07Z</time>
      </trkpt>
      <trkpt lat="47.77247" lon="-3.62039">
        <ele>14</ele>
        <time>2018-07-18T12:56:08Z</time>
      </trkpt>
      <trkpt lat="47.77245" lon="-3.62037">
        <ele>14</ele>
        <time>2018-07-18T12:56:09Z</time>
      </trkpt>
      <trkpt lat="47.77243" lon="-3.62036">
        <ele>14</ele>
        <time>2018-07-18T12:56:10Z</time>
      </trkpt>
      <trkpt lat="47.77241" lon="-3.62036">
        <ele>14</ele>
        <time>2018-07-18T12:56:11Z</time>
      </trkpt>
      <trkpt lat="47.77239" lon="-3.62035">
        <ele>14</ele>
        <time>2018-07-18T12:56:12Z</time>
      </trkpt>
      <trkpt lat="47.77237" lon="-3.62034">
        <ele>14</ele>
        <time>2018-07-18T12:56:13Z</time>
      </trkpt>
      <trkpt lat="47.77235" lon="-3.62034">
        <ele>14</ele>
        <time>2018-07-18T12:56:14Z</time>
      </trkpt>
      <trkpt lat="47.77233" lon="-3.62033">
        <ele>14</ele>
        <time>2018-07-18T12:56:15Z</time>
      </trkpt>
      <trkpt lat="47.77231" lon="-3.62033">
        <ele>15</ele>
        <time>2018-07-18T12:56:16Z</time>
      </trkpt>
      <trkpt lat="47.77229" lon="-3.62032">
        <ele>15</ele>
        <time>2018-07-18T12:56:17Z</time>
      </trkpt>
      <trkpt lat="47.77227" lon="-3.62032">
        <ele>15</ele>
        <time>2018-07-18T12:56:18Z</time>
      </trkpt>
      <trkpt lat="47.77226" lon="-3.62031">
        <ele>15</ele>
        <time>2018-07-18T12:56:19Z</time>
      </trkpt>
      <trkpt lat="47.77223" lon="-3.62031">
        <ele>15</ele>
        <time>2018-07-18T12:56:20Z</time>
      </trkpt>
      <trkpt lat="47.77221" lon="-3.6203">
        <ele>14</ele>
        <time>2018-07-18T12:56:21Z</time>
      </trkpt>
      <trkpt lat="47.77218" lon="-3.6203">
        <ele>15</ele>
        <time>2018-07-18T12:56:22Z</time>
      </trkpt>
      <trkpt lat="47.77215" lon="-3.6203">
        <ele>15</ele>
        <time>2018-07-18T12:56:23Z</time>
      </trkpt>
      <trkpt lat="47.77213" lon="-3.6203">
        <ele>15</ele>
        <time>2018-07-18T12:56:24Z</time>
      </trkpt>
      <trkpt lat="47.77211" lon="-3.6203">
        <ele>15</ele>
        <time>2018-07-18T12:56:25Z</time>
      </trkpt>
      <trkpt lat="47.77209" lon="-3.6203">
        <ele>15</ele>
        <time>2018-07-18T12:56:26Z</time>
      </trkpt>
      <trkpt lat="47.77207" lon="-3.6203">
        <ele>15</ele>
        <time>2018-07-18T12:56:27Z</time>
      </trkpt>
      <trkpt lat="47.77206" lon="-3.62029">
        <ele>15</ele>
        <time>2018-07-18T12:56:28Z</time>
      </trkpt>
      <trkpt lat="47.77206" lon="-3.62028">
        <ele>15</ele>
        <time>2018-07-18T12:56:29Z</time>
      </trkpt>
      <trkpt lat="47.77206" lon="-3.62029">
        <ele>16</ele>
        <time>2018-07-18T12:56:30Z</time>
      </trkpt>
      <trkpt lat="47.77205" lon="-3.62029">
        <ele>16</ele>
        <time>2018-07-18T12:56:31Z</time>
      </trkpt>
      <trkpt lat="47.77205" lon="-3.62028">
        <ele>16</ele>
        <time>2018-07-18T12:56:32Z</time>
      </trkpt>
      <trkpt lat="47.77204" lon="-3.62027">
        <ele>16</ele>
        <time>2018-07-18T12:56:33Z</time>
      </trkpt>
      <trkpt lat="47.77203" lon="-3.62027">
        <ele>16</ele>
        <time>2018-07-18T12:56:34Z</time>
      </trkpt>
      <trkpt lat="47.77203" lon="-3.62026">
        <ele>17</ele>
        <time>2018-07-18T12:56:35Z</time>
      </trkpt>
      <trkpt lat="47.77202" lon="-3.62024">
        <ele>17</ele>
        <time>2018-07-18T12:56:36Z</time>
      </trkpt>
      <trkpt lat="47.77202" lon="-3.62024">
        <ele>17</ele>
        <time>2018-07-18T12:56:37Z</time>
      </trkpt>
      <trkpt lat="47.77201" lon="-3.62023">
        <ele>17</ele>
        <time>2018-07-18T12:56:38Z</time>
      </trkpt>
      <trkpt lat="47.77201" lon="-3.62022">
        <ele>17</ele>
        <time>2018-07-18T12:56:39Z</time>
      </trkpt>
      <trkpt lat="47.772" lon="-3.62021">
        <ele>18</ele>
        <time>2018-07-18T12:56:40Z</time>
      </trkpt>
      <trkpt lat="47.77199" lon="-3.6202">
        <ele>18</ele>
        <time>2018-07-18T12:56:41Z</time>
      </trkpt>
      <trkpt lat="47.77198" lon="-3.62019">
        <ele>18</ele>
        <time>2018-07-18T12:56:42Z</time>
      </trkpt>
      <trkpt lat="47.77198" lon="-3.62019">
        <ele>18</ele>
        <time>2018-07-18T12:56:43Z</time>
      </trkpt>
      <trkpt lat="47.77197" lon="-3.62018">
        <ele>18</ele>
        <time>2018-07-18T12:56:44Z</time>
      </trkpt>
      <trkpt lat="47.77196" lon="-3.62018">
        <ele>18</ele>
        <time>2018-07-18T12:56:45Z</time>
      </trkpt>
      <trkpt lat="47.77195" lon="-3.62017">
        <ele>19</ele>
        <time>2018-07-18T12:56:46Z</time>
      </trkpt>
      <trkpt lat="47.77194" lon="-3.62016">
        <ele>19</ele>
        <time>2018-07-18T12:56:47Z</time>
      </trkpt>
      <trkpt lat="47.77194" lon="-3.62016">
        <ele>19</ele>
        <time>2018-07-18T12:56:48Z</time>
      </trkpt>
      <trkpt lat="47.77194" lon="-3.62016">
        <ele>19</ele>
        <time>2018-07-18T12:56:49Z</time>
      </trkpt>
      <trkpt lat="47.77193" lon="-3.62016">
        <ele>19</ele>
        <time>2018-07-18T12:56:50Z</time>
      </trkpt>
      <trkpt lat="47.77193" lon="-3.62016">
        <ele>19</ele>
        <time>2018-07-18T12:56:51Z</time>
      </trkpt>
      <trkpt lat="47.77193" lon="-3.62016">
        <ele>19</ele>
        <time>2018-07-18T12:56:52Z</time>
      </trkpt>
      <trkpt lat="47.77192" lon="-3.62016">
        <ele>19</ele>
        <time>2018-07-18T12:56:53Z</time>
      </trkpt>
      <trkpt lat="47.77191" lon="-3.62016">
        <ele>19</ele>
        <time>2018-07-18T12:56:54Z</time>
      </trkpt>
      <trkpt lat="47.77189" lon="-3.62016">
        <ele>19</ele>
        <time>2018-07-18T12:56:55Z</time>
      </trkpt>
      <trkpt lat="47.77188" lon="-3.62016">
        <ele>19</ele>
        <time>2018-07-18T12:56:56Z</time>
      </trkpt>
      <trkpt lat="47.77186" lon="-3.62016">
        <ele>19</ele>
        <time>2018-07-18T12:56:57Z</time>
      </trkpt>
      <trkpt lat="47.77184" lon="-3.62016">
        <ele>19</ele>
        <time>2018-07-18T12:56:58Z</time>
      </trkpt>
      <trkpt lat="47.77182" lon="-3.62017">
        <ele>19</ele>
        <time>2018-07-18T12:56:59Z</time>
      </trkpt>
      <trkpt lat="47.77179" lon="-3.62017">
        <ele>19</ele>
        <time>2018-07-18T12:57:00Z</time>
      </trkpt>
      <trkpt lat="47.77177" lon="-3.62018">
        <ele>19</ele>
        <time>2018-07-18T12:57:01Z</time>
      </trkpt>
      <trkpt lat="47.77175" lon="-3.62018">
        <ele>19</ele>
        <time>2018-07-18T12:57:02Z</time>
      </trkpt>
      <trkpt lat="47.77172" lon="-3.62018">
        <ele>19</ele>
        <time>2018-07-18T12:57:03Z</time>
      </trkpt>
      <trkpt lat="47.77169" lon="-3.6202">
        <ele>19</ele>
        <time>2018-07-18T12:57:04Z</time>
      </trkpt>
      <trkpt lat="47.77167" lon="-3.62021">
        <ele>19</ele>
        <time>2018-07-18T12:57:05Z</time>
      </trkpt>
      <trkpt lat="47.77164" lon="-3.62021">
        <ele>19</ele>
        <time>2018-07-18T12:57:06Z</time>
      </trkpt>
      <trkpt lat="47.77162" lon="-3.62021">
        <ele>19</ele>
        <time>2018-07-18T12:57:07Z</time>
      </trkpt>
      <trkpt lat="47.7716" lon="-3.6202">
        <ele>19</ele>
        <time>2018-07-18T12:57:08Z</time>
      </trkpt>
      <trkpt lat="47.77159" lon="-3.62019">
        <ele>19</ele>
        <time>2018-07-18T12:57:09Z</time>
      </trkpt>
      <trkpt lat="47.77158" lon="-3.62017">
        <ele>19</ele>
        <time>2018-07-18T12:57:10Z</time>
      </trkpt>
      <trkpt lat="47.77157" lon="-3.62015">
        <ele>19</ele>
        <time>2018-07-18T12:57:11Z</time>
      </trkpt>
      <trkpt lat="47.77156" lon="-3.62013">
        <ele>19</ele>
        <time>2018-07-18T12:57:12Z</time>
      </trkpt>
      <trkpt lat="47.77155" lon="-3.6201">
        <ele>19</ele>
        <time>2018-07-18T12:57:13Z</time>
      </trkpt>
      <trkpt lat="47.77153" lon="-3.62007">
        <ele>20</ele>
        <time>2018-07-18T12:57:14Z</time>
      </trkpt>
      <trkpt lat="47.77152" lon="-3.62004">
        <ele>20</ele>
        <time>2018-07-18T12:57:15Z</time>
      </trkpt>
      <trkpt lat="47.77152" lon="-3.62001">
        <ele>20</ele>
        <time>2018-07-18T12:57:16Z</time>
      </trkpt>
      <trkpt lat="47.77151" lon="-3.61997">
        <ele>20</ele>
        <time>2018-07-18T12:57:17Z</time>
      </trkpt>
      <trkpt lat="47.77151" lon="-3.61993">
        <ele>20</ele>
        <time>2018-07-18T12:57:18Z</time>
      </trkpt>
      <trkpt lat="47.77151" lon="-3.61989">
        <ele>20</ele>
        <time>2018-07-18T12:57:19Z</time>
      </trkpt>
      <trkpt lat="47.77151" lon="-3.61985">
        <ele>20</ele>
        <time>2018-07-18T12:57:20Z</time>
      </trkpt>
      <trkpt lat="47.77151" lon="-3.61981">
        <ele>21</ele>
        <time>2018-07-18T12:57:21Z</time>
      </trkpt>
      <trkpt lat="47.77151" lon="-3.61977">
        <ele>21</ele>
        <time>2018-07-18T12:57:22Z</time>
      </trkpt>
      <trkpt lat="47.7715" lon="-3.61972">
        <ele>21</ele>
        <time>2018-07-18T12:57:23Z</time>
      </trkpt>
      <trkpt lat="47.7715" lon="-3.61968">
        <ele>21</ele>
        <time>2018-07-18T12:57:24Z</time>
      </trkpt>
      <trkpt lat="47.77149" lon="-3.61963">
        <ele>21</ele>
        <time>2018-07-18T12:57:25Z</time>
      </trkpt>
      <trkpt lat="47.77149" lon="-3.61959">
        <ele>21</ele>
        <time>2018-07-18T12:57:26Z</time>
      </trkpt>
      <trkpt lat="47.77149" lon="-3.61954">
        <ele>22</ele>
        <time>2018-07-18T12:57:27Z</time>
      </trkpt>
      <trkpt lat="47.77148" lon="-3.61949">
        <ele>22</ele>
        <time>2018-07-18T12:57:28Z</time>
      </trkpt>
      <trkpt lat="47.77148" lon="-3.61945">
        <ele>22</ele>
        <time>2018-07-18T12:57:29Z</time>
      </trkpt>
      <trkpt lat="47.77148" lon="-3.6194">
        <ele>22</ele>
        <time>2018-07-18T12:57:30Z</time>
      </trkpt>
      <trkpt lat="47.77147" lon="-3.61935">
        <ele>22</ele>
        <time>2018-07-18T12:57:31Z</time>
      </trkpt>
      <trkpt lat="47.77147" lon="-3.61931">
        <ele>22</ele>
        <time>2018-07-18T12:57:32Z</time>
      </trkpt>
      <trkpt lat="47.77146" lon="-3.61926">
        <ele>23</ele>
        <time>2018-07-18T12:57:33Z</time>
      </trkpt>
      <trkpt lat="47.77146" lon="-3.61921">
        <ele>23</ele>
        <time>2018-07-18T12:57:34Z</time>
      </trkpt>
      <trkpt lat="47.77145" lon="-3.61917">
        <ele>23</ele>
        <time>2018-07-18T12:57:35Z</time>
      </trkpt>
      <trkpt lat="47.77145" lon="-3.61912">
        <ele>23</ele>
        <time>2018-07-18T12:57:36Z</time>
      </trkpt>
      <trkpt lat="47.77145" lon="-3.61908">
        <ele>23</ele>
        <time>2018-07-18T12:57:37Z</time>
      </trkpt>
      <trkpt lat="47.77144" lon="-3.61903">
        <ele>24</ele>
        <time>2018-07-18T12:57:38Z</time>
      </trkpt>
      <trkpt lat="47.77144" lon="-3.61898">
        <ele>24</ele>
        <time>2018-07-18T12:57:39Z</time>
      </trkpt>
      <trkpt lat="47.77143" lon="-3.61893">
        <ele>24</ele>
        <time>2018-07-18T12:57:40Z</time>
      </trkpt>
      <trkpt lat="47.77143" lon="-3.61889">
        <ele>24</ele>
        <time>2018-07-18T12:57:41Z</time>
      </trkpt>
      <trkpt lat="47.77142" lon="-3.61884">
        <ele>24</ele>
        <time>2018-07-18T12:57:42Z</time>
      </trkpt>
      <trkpt lat="47.77142" lon="-3.61879">
        <ele>24</ele>
        <time>2018-07-18T12:57:43Z</time>
      </trkpt>
      <trkpt lat="47.77142" lon="-3.61874">
        <ele>25</ele>
        <time>2018-07-18T12:57:44Z</time>
      </trkpt>
      <trkpt lat="47.77141" lon="-3.61869">
        <ele>25</ele>
        <time>2018-07-18T12:57:45Z</time>
      </trkpt>
      <trkpt lat="47.77141" lon="-3.61864">
        <ele>25</ele>
        <time>2018-07-18T12:57:46Z</time>
      </trkpt>
      <trkpt lat="47.7714" lon="-3.61858">
        <ele>25</ele>
        <time>2018-07-18T12:57:47Z</time>
      </trkpt>
      <trkpt lat="47.77139" lon="-3.61853">
        <ele>25</ele>
        <time>2018-07-18T12:57:48Z</time>
      </trkpt>
      <trkpt lat="47.77139" lon="-3.61848">
        <ele>25</ele>
        <time>2018-07-18T12:57:49Z</time>
      </trkpt>
      <trkpt lat="47.77138" lon="-3.61843">
        <ele>25</ele>
        <time>2018-07-18T12:57:50Z</time>
      </trkpt>
      <trkpt lat="47.77137" lon="-3.61838">
        <ele>25</ele>
        <time>2018-07-18T12:57:51Z</time>
      </trkpt>
      <trkpt lat="47.77137" lon="-3.61833">
        <ele>25</ele>
        <time>2018-07-18T12:57:52Z</time>
      </trkpt>
      <trkpt lat="47.77136" lon="-3.61828">
        <ele>26</ele>
        <time>2018-07-18T12:57:53Z</time>
      </trkpt>
      <trkpt lat="47.77135" lon="-3.61822">
        <ele>26</ele>
        <time>2018-07-18T12:57:54Z</time>
      </trkpt>
      <trkpt lat="47.77135" lon="-3.61817">
        <ele>26</ele>
        <time>2018-07-18T12:57:55Z</time>
      </trkpt>
      <trkpt lat="47.77135" lon="-3.61811">
        <ele>26</ele>
        <time>2018-07-18T12:57:56Z</time>
      </trkpt>
      <trkpt lat="47.77134" lon="-3.61806">
        <ele>26</ele>
        <time>2018-07-18T12:57:57Z</time>
      </trkpt>
      <trkpt lat="47.77133" lon="-3.61802">
        <ele>26</ele>
        <time>2018-07-18T12:57:58Z</time>
      </trkpt>
      <trkpt lat="47.77133" lon="-3.61797">
        <ele>26</ele>
        <time>2018-07-18T12:57:59Z</time>
      </trkpt>
      <trkpt lat="47.77133" lon="-3.61791">
        <ele>26</ele>
        <time>2018-07-18T12:58:00Z</time>
      </trkpt>
      <trkpt lat="47.77133" lon="-3.61786">
        <ele>26</ele>
        <time>2018-07-18T12:58:01Z</time>
      </trkpt>
      <trkpt lat="47.77133" lon="-3.6178">
        <ele>26</ele>
        <time>2018-07-18T12:58:02Z</time>
      </trkpt>
      <trkpt lat="47.77133" lon="-3.61774">
        <ele>26</ele>
        <time>2018-07-18T12:58:03Z</time>
      </trkpt>
      <trkpt lat="47.77133" lon="-3.61769">
        <ele>26</ele>
        <time>2018-07-18T12:58:04Z</time>
      </trkpt>
      <trkpt lat="47.77133" lon="-3.61763">
        <ele>26</ele>
        <time>2018-07-18T12:58:05Z</time>
      </trkpt>
      <trkpt lat="47.77133" lon="-3.61757">
        <ele>26</ele>
        <time>2018-07-18T12:58:06Z</time>
      </trkpt>
      <trkpt lat="47.77133" lon="-3.61751">
        <ele>27</ele>
        <time>2018-07-18T12:58:07Z</time>
      </trkpt>
      <trkpt lat="47.77134" lon="-3.61745">
        <ele>27</ele>
        <time>2018-07-18T12:58:08Z</time>
      </trkpt>
      <trkpt lat="47.77134" lon="-3.61739">
        <ele>27</ele>
        <time>2018-07-18T12:58:09Z</time>
      </trkpt>
      <trkpt lat="47.77134" lon="-3.61733">
        <ele>27</ele>
        <time>2018-07-18T12:58:10Z</time>
      </trkpt>
      <trkpt lat="47.77134" lon="-3.61728">
        <ele>27</ele>
        <time>2018-07-18T12:58:11Z</time>
      </trkpt>
      <trkpt lat="47.77135" lon="-3.61722">
        <ele>27</ele>
        <time>2018-07-18T12:58:12Z</time>
      </trkpt>
      <trkpt lat="47.77135" lon="-3.61717">
        <ele>27</ele>
        <time>2018-07-18T12:58:13Z</time>
      </trkpt>
      <trkpt lat="47.77135" lon="-3.61712">
        <ele>28</ele>
        <time>2018-07-18T12:58:14Z</time>
      </trkpt>
      <trkpt lat="47.77136" lon="-3.61707">
        <ele>28</ele>
        <time>2018-07-18T12:58:15Z</time>
      </trkpt>
      <trkpt lat="47.77137" lon="-3.61702">
        <ele>28</ele>
        <time>2018-07-18T12:58:16Z</time>
      </trkpt>
      <trkpt lat="47.77138" lon="-3.61698">
        <ele>28</ele>
        <time>2018-07-18T12:58:17Z</time>
      </trkpt>
      <trkpt lat="47.7714" lon="-3.61695">
        <ele>28</ele>
        <time>2018-07-18T12:58:18Z</time>
      </trkpt>
      <trkpt lat="47.77141" lon="-3.61692">
        <ele>28</ele>
        <time>2018-07-18T12:58:19Z</time>
      </trkpt>
      <trkpt lat="47.77142" lon="-3.61688">
        <ele>29</ele>
        <time>2018-07-18T12:58:20Z</time>
      </trkpt>
      <trkpt lat="47.77142" lon="-3.61685">
        <ele>29</ele>
        <time>2018-07-18T12:58:21Z</time>
      </trkpt>
      <trkpt lat="47.77142" lon="-3.61683">
        <ele>29</ele>
        <time>2018-07-18T12:58:22Z</time>
      </trkpt>
      <trkpt lat="47.77142" lon="-3.61682">
        <ele>29</ele>
        <time>2018-07-18T12:58:23Z</time>
      </trkpt>
      <trkpt lat="47.77142" lon="-3.61682">
        <ele>29</ele>
        <time>2018-07-18T12:58:24Z</time>
      </trkpt>
      <trkpt lat="47.77142" lon="-3.61682">
        <ele>29</ele>
        <time>2018-07-18T12:58:25Z</time>
      </trkpt>
      <trkpt lat="47.77142" lon="-3.61682">
        <ele>29</ele>
        <time>2018-07-18T12:58:26Z</time>
      </trkpt>
      <trkpt lat="47.77142" lon="-3.6168">
        <ele>29</ele>
        <time>2018-07-18T12:58:27Z</time>
      </trkpt>
      <trkpt lat="47.77142" lon="-3.61677">
        <ele>29</ele>
        <time>2018-07-18T12:58:28Z</time>
      </trkpt>
      <trkpt lat="47.77142" lon="-3.61674">
        <ele>29</ele>
        <time>2018-07-18T12:58:29Z</time>
      </trkpt>
      <trkpt lat="47.77142" lon="-3.6167">
        <ele>29</ele>
        <time>2018-07-18T12:58:30Z</time>
      </trkpt>
      <trkpt lat="47.77143" lon="-3.61666">
        <ele>29</ele>
        <time>2018-07-18T12:58:31Z</time>
      </trkpt>
      <trkpt lat="47.77143" lon="-3.61661">
        <ele>30</ele>
        <time>2018-07-18T12:58:32Z</time>
      </trkpt>
      <trkpt lat="47.77144" lon="-3.61656">
        <ele>30</ele>
        <time>2018-07-18T12:58:33Z</time>
      </trkpt>
      <trkpt lat="47.77145" lon="-3.61652">
        <ele>30</ele>
        <time>2018-07-18T12:58:34Z</time>
      </trkpt>
      <trkpt lat="47.77145" lon="-3.61647">
        <ele>30</ele>
        <time>2018-07-18T12:58:35Z</time>
      </trkpt>
      <trkpt lat="47.77146" lon="-3.61643">
        <ele>30</ele>
        <time>2018-07-18T12:58:36Z</time>
      </trkpt>
      <trkpt lat="47.77147" lon="-3.61639">
        <ele>30</ele>
        <time>2018-07-18T12:58:37Z</time>
      </trkpt>
      <trkpt lat="47.77147" lon="-3.61634">
        <ele>30</ele>
        <time>2018-07-18T12:58:38Z</time>
      </trkpt>
      <trkpt lat="47.77148" lon="-3.61629">
        <ele>30</ele>
        <time>2018-07-18T12:58:39Z</time>
      </trkpt>
      <trkpt lat="47.77148" lon="-3.61624">
        <ele>30</ele>
        <time>2018-07-18T12:58:40Z</time>
      </trkpt>
      <trkpt lat="47.77149" lon="-3.61618">
        <ele>30</ele>
        <time>2018-07-18T12:58:41Z</time>
      </trkpt>
      <trkpt lat="47.77149" lon="-3.61612">
        <ele>30</ele>
        <time>2018-07-18T12:58:42Z</time>
      </trkpt>
      <trkpt lat="47.77149" lon="-3.61606">
        <ele>29</ele>
        <time>2018-07-18T12:58:43Z</time>
      </trkpt>
      <trkpt lat="47.77149" lon="-3.61599">
        <ele>29</ele>
        <time>2018-07-18T12:58:44Z</time>
      </trkpt>
      <trkpt lat="47.77149" lon="-3.61593">
        <ele>29</ele>
        <time>2018-07-18T12:58:45Z</time>
      </trkpt>
      <trkpt lat="47.77149" lon="-3.61586">
        <ele>29</ele>
        <time>2018-07-18T12:58:46Z</time>
      </trkpt>
      <trkpt lat="47.77149" lon="-3.61579">
        <ele>29</ele>
        <time>2018-07-18T12:58:47Z</time>
      </trkpt>
      <trkpt lat="47.77148" lon="-3.61572">
        <ele>29</ele>
        <time>2018-07-18T12:58:48Z</time>
      </trkpt>
      <trkpt lat="47.77148" lon="-3.61565">
        <ele>29</ele>
        <time>2018-07-18T12:58:49Z</time>
      </trkpt>
      <trkpt lat="47.77146" lon="-3.61558">
        <ele>28</ele>
        <time>2018-07-18T12:58:50Z</time>
      </trkpt>
      <trkpt lat="47.77145" lon="-3.61551">
        <ele>28</ele>
        <time>2018-07-18T12:58:51Z</time>
      </trkpt>
      <trkpt lat="47.77143" lon="-3.61542">
        <ele>28</ele>
        <time>2018-07-18T12:58:52Z</time>
      </trkpt>
      <trkpt lat="47.77142" lon="-3.61535">
        <ele>28</ele>
        <time>2018-07-18T12:58:53Z</time>
      </trkpt>
      <trkpt lat="47.77141" lon="-3.61526">
        <ele>27</ele>
        <time>2018-07-18T12:58:54Z</time>
      </trkpt>
      <trkpt lat="47.77139" lon="-3.61518">
        <ele>27</ele>
        <time>2018-07-18T12:58:55Z</time>
      </trkpt>
      <trkpt lat="47.77138" lon="-3.61509">
        <ele>27</ele>
        <time>2018-07-18T12:58:56Z</time>
      </trkpt>
      <trkpt lat="47.77136" lon="-3.615">
        <ele>26</ele>
        <time>2018-07-18T12:58:57Z</time>
      </trkpt>
      <trkpt lat="47.77135" lon="-3.61491">
        <ele>26</ele>
        <time>2018-07-18T12:58:58Z</time>
      </trkpt>
      <trkpt lat="47.77132" lon="-3.61482">
        <ele>26</ele>
        <time>2018-07-18T12:58:59Z</time>
      </trkpt>
      <trkpt lat="47.77131" lon="-3.61474">
        <ele>25</ele>
        <time>2018-07-18T12:59:00Z</time>
      </trkpt>
      <trkpt lat="47.77128" lon="-3.61466">
        <ele>25</ele>
        <time>2018-07-18T12:59:01Z</time>
      </trkpt>
      <trkpt lat="47.77126" lon="-3.6146">
        <ele>25</ele>
        <time>2018-07-18T12:59:02Z</time>
      </trkpt>
      <trkpt lat="47.77123" lon="-3.61454">
        <ele>24</ele>
        <time>2018-07-18T12:59:03Z</time>
      </trkpt>
      <trkpt lat="47.7712" lon="-3.61449">
        <ele>24</ele>
        <time>2018-07-18T12:59:04Z</time>
      </trkpt>
      <trkpt lat="47.77116" lon="-3.61446">
        <ele>23</ele>
        <time>2018-07-18T12:59:05Z</time>
      </trkpt>
      <trkpt lat="47.77111" lon="-3.61443">
        <ele>23</ele>
        <time>2018-07-18T12:59:06Z</time>
      </trkpt>
      <trkpt lat="47.77106" lon="-3.6144">
        <ele>22</ele>
        <time>2018-07-18T12:59:07Z</time>
      </trkpt>
      <trkpt lat="47.771" lon="-3.61438">
        <ele>22</ele>
        <time>2018-07-18T12:59:08Z</time>
      </trkpt>
      <trkpt lat="47.77093" lon="-3.61436">
        <ele>21</ele>
        <time>2018-07-18T12:59:09Z</time>
      </trkpt>
      <trkpt lat="47.77086" lon="-3.61433">
        <ele>20</ele>
        <time>2018-07-18T12:59:10Z</time>
      </trkpt>
      <trkpt lat="47.7708" lon="-3.61431">
        <ele>19</ele>
        <time>2018-07-18T12:59:11Z</time>
      </trkpt>
      <trkpt lat="47.77073" lon="-3.61429">
        <ele>19</ele>
        <time>2018-07-18T12:59:12Z</time>
      </trkpt>
      <trkpt lat="47.77066" lon="-3.61427">
        <ele>18</ele>
        <time>2018-07-18T12:59:13Z</time>
      </trkpt>
      <trkpt lat="47.77057" lon="-3.61425">
        <ele>17</ele>
        <time>2018-07-18T12:59:14Z</time>
      </trkpt>
      <trkpt lat="47.77049" lon="-3.61423">
        <ele>16</ele>
        <time>2018-07-18T12:59:15Z</time>
      </trkpt>
      <trkpt lat="47.7704" lon="-3.61421">
        <ele>15</ele>
        <time>2018-07-18T12:59:16Z</time>
      </trkpt>
      <trkpt lat="47.77031" lon="-3.61419">
        <ele>14</ele>
        <time>2018-07-18T12:59:17Z</time>
      </trkpt>
      <trkpt lat="47.77024" lon="-3.61418">
        <ele>13</ele>
        <time>2018-07-18T12:59:18Z</time>
      </trkpt>
      <trkpt lat="47.77018" lon="-3.61416">
        <ele>12</ele>
        <time>2018-07-18T12:59:19Z</time>
      </trkpt>
      <trkpt lat="47.77013" lon="-3.61411">
        <ele>12</ele>
        <time>2018-07-18T12:59:20Z</time>
      </trkpt>
      <trkpt lat="47.77009" lon="-3.61404">
        <ele>12</ele>
        <time>2018-07-18T12:59:21Z</time>
      </trkpt>
      <trkpt lat="47.77006" lon="-3.61398">
        <ele>11</ele>
        <time>2018-07-18T12:59:22Z</time>
      </trkpt>
      <trkpt lat="47.77002" lon="-3.61391">
        <ele>11</ele>
        <time>2018-07-18T12:59:23Z</time>
      </trkpt>
      <trkpt lat="47.76999" lon="-3.61384">
        <ele>11</ele>
        <time>2018-07-18T12:59:24Z</time>
      </trkpt>
      <trkpt lat="47.76997" lon="-3.61378">
        <ele>11</ele>
        <time>2018-07-18T12:59:25Z</time>
      </trkpt>
      <trkpt lat="47.76995" lon="-3.61372">
        <ele>11</ele>
        <time>2018-07-18T12:59:26Z</time>
      </trkpt>
      <trkpt lat="47.76992" lon="-3.61367">
        <ele>11</ele>
        <time>2018-07-18T12:59:27Z</time>
      </trkpt>
      <trkpt lat="47.76989" lon="-3.61363">
        <ele>11</ele>
        <time>2018-07-18T12:59:28Z</time>
      </trkpt>
      <trkpt lat="47.76985" lon="-3.61361">
        <ele>11</ele>
        <time>2018-07-18T12:59:29Z</time>
      </trkpt>
      <trkpt lat="47.76981" lon="-3.61361">
        <ele>11</ele>
        <time>2018-07-18T12:59:30Z</time>
      </trkpt>
      <trkpt lat="47.76977" lon="-3.61364">
        <ele>11</ele>
        <time>2018-07-18T12:59:31Z</time>
      </trkpt>
      <trkpt lat="47.76972" lon="-3.61366">
        <ele>11</ele>
        <time>2018-07-18T12:59:32Z</time>
      </trkpt>
      <trkpt lat="47.76968" lon="-3.61367">
        <ele>10</ele>
        <time>2018-07-18T12:59:33Z</time>
      </trkpt>
      <trkpt lat="47.76963" lon="-3.61366">
        <ele>10</ele>
        <time>2018-07-18T12:59:34Z</time>
      </trkpt>
      <trkpt lat="47.76958" lon="-3.61365">
        <ele>10</ele>
        <time>2018-07-18T12:59:35Z</time>
      </trkpt>
      <trkpt lat="47.76954" lon="-3.61364">
        <ele>10</ele>
        <time>2018-07-18T12:59:36Z</time>
      </trkpt>
      <trkpt lat="47.7695" lon="-3.61361">
        <ele>10</ele>
        <time>2018-07-18T12:59:37Z</time>
      </trkpt>
      <trkpt lat="47.76947" lon="-3.61359">
        <ele>10</ele>
        <time>2018-07-18T12:59:38Z</time>
      </trkpt>
      <trkpt lat="47.76943" lon="-3.61357">
        <ele>10</ele>
        <time>2018-07-18T12:59:39Z</time>
      </trkpt>
      <trkpt lat="47.76939" lon="-3.61354">
        <ele>10</ele>
        <time>2018-07-18T12:59:40Z</time>
      </trkpt>
      <trkpt lat="47.76935" lon="-3.61351">
        <ele>10</ele>
        <time>2018-07-18T12:59:41Z</time>
      </trkpt>
      <trkpt lat="47.76932" lon="-3.61347">
        <ele>10</ele>
        <time>2018-07-18T12:59:42Z</time>
      </trkpt>
      <trkpt lat="47.7693" lon="-3.61343">
        <ele>10</ele>
        <time>2018-07-18T12:59:43Z</time>
      </trkpt>
      <trkpt lat="47.76928" lon="-3.61338">
        <ele>10</ele>
        <time>2018-07-18T12:59:44Z</time>
      </trkpt>
      <trkpt lat="47.76926" lon="-3.61334">
        <ele>10</ele>
        <time>2018-07-18T12:59:45Z</time>
      </trkpt>
      <trkpt lat="47.76923" lon="-3.6133">
        <ele>10</ele>
        <time>2018-07-18T12:59:46Z</time>
      </trkpt>
      <trkpt lat="47.76921" lon="-3.61325">
        <ele>10</ele>
        <time>2018-07-18T12:59:47Z</time>
      </trkpt>
      <trkpt lat="47.76919" lon="-3.61321">
        <ele>10</ele>
        <time>2018-07-18T12:59:48Z</time>
      </trkpt>
      <trkpt lat="47.76917" lon="-3.61317">
        <ele>10</ele>
        <time>2018-07-18T12:59:49Z</time>
      </trkpt>
      <trkpt lat="47.76916" lon="-3.61312">
        <ele>10</ele>
        <time>2018-07-18T12:59:50Z</time>
      </trkpt>
      <trkpt lat="47.76915" lon="-3.61307">
        <ele>10</ele>
        <time>2018-07-18T12:59:51Z</time>
      </trkpt>
      <trkpt lat="47.76916" lon="-3.61302">
        <ele>10</ele>
        <time>2018-07-18T12:59:52Z</time>
      </trkpt>
      <trkpt lat="47.76918" lon="-3.61297">
        <ele>11</ele>
        <time>2018-07-18T12:59:53Z</time>
      </trkpt>
      <trkpt lat="47.76921" lon="-3.61293">
        <ele>10</ele>
        <time>2018-07-18T12:59:54Z</time>
      </trkpt>
      <trkpt lat="47.76924" lon="-3.61289">
        <ele>10</ele>
        <time>2018-07-18T12:59:55Z</time>
      </trkpt>
      <trkpt lat="47.76927" lon="-3.61285">
        <ele>10</ele>
        <time>2018-07-18T12:59:56Z</time>
      </trkpt>
      <trkpt lat="47.7693" lon="-3.61281">
        <ele>10</ele>
        <time>2018-07-18T12:59:57Z</time>
      </trkpt>
      <trkpt lat="47.76932" lon="-3.61276">
        <ele>10</ele>
        <time>2018-07-18T12:59:58Z</time>
      </trkpt>
      <trkpt lat="47.76936" lon="-3.61272">
        <ele>10</ele>
        <time>2018-07-18T12:59:59Z</time>
      </trkpt>
      <trkpt lat="47.76939" lon="-3.61268">
        <ele>10</ele>
        <time>2018-07-18T13:00:00Z</time>
      </trkpt>
      <trkpt lat="47.76942" lon="-3.61263">
        <ele>10</ele>
        <time>2018-07-18T13:00:01Z</time>
      </trkpt>
      <trkpt lat="47.76946" lon="-3.6126">
        <ele>10</ele>
        <time>2018-07-18T13:00:02Z</time>
      </trkpt>
      <trkpt lat="47.76951" lon="-3.61262">
        <ele>10</ele>
        <time>2018-07-18T13:00:03Z</time>
      </trkpt>
      <trkpt lat="47.76955" lon="-3.61264">
        <ele>10</ele>
        <time>2018-07-18T13:00:04Z</time>
      </trkpt>
      <trkpt lat="47.76959" lon="-3.61267">
        <ele>10</ele>
        <time>2018-07-18T13:00:05Z</time>
      </trkpt>
      <trkpt lat="47.76963" lon="-3.61271">
        <ele>10</ele>
        <time>2018-07-18T13:00:06Z</time>
      </trkpt>
      <trkpt lat="47.76966" lon="-3.61275">
        <ele>10</ele>
        <time>2018-07-18T13:00:07Z</time>
      </trkpt>
      <trkpt lat="47.7697" lon="-3.61279">
        <ele>10</ele>
        <time>2018-07-18T13:00:08Z</time>
      </trkpt>
      <trkpt lat="47.76974" lon="-3.61282">
        <ele>9</ele>
        <time>2018-07-18T13:00:09Z</time>
      </trkpt>
      <trkpt lat="47.76978" lon="-3.61285">
        <ele>9</ele>
        <time>2018-07-18T13:00:10Z</time>
      </trkpt>
      <trkpt lat="47.76981" lon="-3.61288">
        <ele>9</ele>
        <time>2018-07-18T13:00:11Z</time>
      </trkpt>
      <trkpt lat="47.76985" lon="-3.61287">
        <ele>9</ele>
        <time>2018-07-18T13:00:12Z</time>
      </trkpt>
      <trkpt lat="47.76988" lon="-3.61285">
        <ele>9</ele>
        <time>2018-07-18T13:00:13Z</time>
      </trkpt>
      <trkpt lat="47.76991" lon="-3.61283">
        <ele>9</ele>
        <time>2018-07-18T13:00:14Z</time>
      </trkpt>
      <trkpt lat="47.76995" lon="-3.61281">
        <ele>9</ele>
        <time>2018-07-18T13:00:15Z</time>
      </trkpt>
      <trkpt lat="47.76998" lon="-3.61279">
        <ele>9</ele>
        <time>2018-07-18T13:00:16Z</time>
      </trkpt>
      <trkpt lat="47.77002" lon="-3.61277">
        <ele>9</ele>
        <time>2018-07-18T13:00:17Z</time>
      </trkpt>
      <trkpt lat="47.77006" lon="-3.61277">
        <ele>9</ele>
        <time>2018-07-18T13:00:18Z</time>
      </trkpt>
      <trkpt lat="47.7701" lon="-3.61278">
        <ele>9</ele>
        <time>2018-07-18T13:00:19Z</time>
      </trkpt>
      <trkpt lat="47.77012" lon="-3.61279">
        <ele>8</ele>
        <time>2018-07-18T13:00:20Z</time>
      </trkpt>
      <trkpt lat="47.77014" lon="-3.61282">
        <ele>8</ele>
        <time>2018-07-18T13:00:21Z</time>
      </trkpt>
      <trkpt lat="47.77017" lon="-3.61285">
        <ele>8</ele>
        <time>2018-07-18T13:00:22Z</time>
      </trkpt>
      <trkpt lat="47.7702" lon="-3.6129">
        <ele>8</ele>
        <time>2018-07-18T13:00:23Z</time>
      </trkpt>
      <trkpt lat="47.77022" lon="-3.61295">
        <ele>8</ele>
        <time>2018-07-18T13:00:24Z</time>
      </trkpt>
      <trkpt lat="47.77024" lon="-3.61299">
        <ele>8</ele>
        <time>2018-07-18T13:00:25Z</time>
      </trkpt>
      <trkpt lat="47.77027" lon="-3.613">
        <ele>8</ele>
        <time>2018-07-18T13:00:26Z</time>
      </trkpt>
      <trkpt lat="47.7703" lon="-3.61301">
        <ele>8</ele>
        <time>2018-07-18T13:00:27Z</time>
      </trkpt>
      <trkpt lat="47.77034" lon="-3.61303">
        <ele>8</ele>
        <time>2018-07-18T13:00:28Z</time>
      </trkpt>
      <trkpt lat="47.77038" lon="-3.61303">
        <ele>7</ele>
        <time>2018-07-18T13:00:29Z</time>
      </trkpt>
      <trkpt lat="47.77042" lon="-3.61301">
        <ele>7</ele>
        <time>2018-07-18T13:00:30Z</time>
      </trkpt>
      <trkpt lat="47.77046" lon="-3.61299">
        <ele>7</ele>
        <time>2018-07-18T13:00:31Z</time>
      </trkpt>
      <trkpt lat="47.77049" lon="-3.61296">
        <ele>7</ele>
        <time>2018-07-18T13:00:32Z</time>
      </trkpt>
      <trkpt lat="47.77051" lon="-3.61291">
        <ele>7</ele>
        <time>2018-07-18T13:00:33Z</time>
      </trkpt>
      <trkpt lat="47.77052" lon="-3.61287">
        <ele>7</ele>
        <time>2018-07-18T13:00:34Z</time>
      </trkpt>
      <trkpt lat="47.77052" lon="-3.61282">
        <ele>7</ele>
        <time>2018-07-18T13:00:35Z</time>
      </trkpt>
      <trkpt lat="47.77051" lon="-3.61277">
        <ele>7</ele>
        <time>2018-07-18T13:00:36Z</time>
      </trkpt>
      <trkpt lat="47.7705" lon="-3.61272">
        <ele>7</ele>
        <time>2018-07-18T13:00:37Z</time>
      </trkpt>
      <trkpt lat="47.7705" lon="-3.61266">
        <ele>7</ele>
        <time>2018-07-18T13:00:38Z</time>
      </trkpt>
      <trkpt lat="47.77048" lon="-3.6126">
        <ele>7</ele>
        <time>2018-07-18T13:00:39Z</time>
      </trkpt>
      <trkpt lat="47.77047" lon="-3.61254">
        <ele>7</ele>
        <time>2018-07-18T13:00:40Z</time>
      </trkpt>
      <trkpt lat="47.77044" lon="-3.61249">
        <ele>7</ele>
        <time>2018-07-18T13:00:41Z</time>
      </trkpt>
      <trkpt lat="47.77041" lon="-3.61245">
        <ele>8</ele>
        <time>2018-07-18T13:00:42Z</time>
      </trkpt>
      <trkpt lat="47.77038" lon="-3.61241">
        <ele>8</ele>
        <time>2018-07-18T13:00:43Z</time>
      </trkpt>
      <trkpt lat="47.77036" lon="-3.61236">
        <ele>8</ele>
        <time>2018-07-18T13:00:44Z</time>
      </trkpt>
      <trkpt lat="47.77034" lon="-3.61231">
        <ele>8</ele>
        <time>2018-07-18T13:00:45Z</time>
      </trkpt>
      <trkpt lat="47.77033" lon="-3.61225">
        <ele>8</ele>
        <time>2018-07-18T13:00:46Z</time>
      </trkpt>
      <trkpt lat="47.77032" lon="-3.61218">
        <ele>7</ele>
        <time>2018-07-18T13:00:47Z</time>
      </trkpt>
      <trkpt lat="47.77032" lon="-3.61212">
        <ele>7</ele>
        <time>2018-07-18T13:00:48Z</time>
      </trkpt>
      <trkpt lat="47.77032" lon="-3.61205">
        <ele>7</ele>
        <time>2018-07-18T13:00:49Z</time>
      </trkpt>
      <trkpt lat="47.77032" lon="-3.61198">
        <ele>7</ele>
        <time>2018-07-18T13:00:50Z</time>
      </trkpt>
      <trkpt lat="47.77033" lon="-3.61192">
        <ele>7</ele>
        <time>2018-07-18T13:00:51Z</time>
      </trkpt>
      <trkpt lat="47.77034" lon="-3.61186">
        <ele>7</ele>
        <time>2018-07-18T13:00:52Z</time>
      </trkpt>
      <trkpt lat="47.77034" lon="-3.6118">
        <ele>7</ele>
        <time>2018-07-18T13:00:53Z</time>
      </trkpt>
      <trkpt lat="47.77035" lon="-3.61174">
        <ele>7</ele>
        <time>2018-07-18T13:00:54Z</time>
      </trkpt>
      <trkpt lat="47.77036" lon="-3.61167">
        <ele>7</ele>
        <time>2018-07-18T13:00:55Z</time>
      </trkpt>
      <trkpt lat="47.77037" lon="-3.61161">
        <ele>7</ele>
        <time>2018-07-18T13:00:56Z</time>
      </trkpt>
      <trkpt lat="47.77038" lon="-3.61155">
        <ele>7</ele>
        <time>2018-07-18T13:00:57Z</time>
      </trkpt>
      <trkpt lat="47.7704" lon="-3.6115">
        <ele>7</ele>
        <time>2018-07-18T13:00:58Z</time>
      </trkpt>
      <trkpt lat="47.77043" lon="-3.61145">
        <ele>7</ele>
        <time>2018-07-18T13:00:59Z</time>
      </trkpt>
      <trkpt lat="47.77046" lon="-3.6114">
        <ele>7</ele>
        <time>2018-07-18T13:01:00Z</time>
      </trkpt>
      <trkpt lat="47.77049" lon="-3.61136">
        <ele>7</ele>
        <time>2018-07-18T13:01:01Z</time>
      </trkpt>
      <trkpt lat="47.77052" lon="-3.61132">
        <ele>7</ele>
        <time>2018-07-18T13:01:02Z</time>
      </trkpt>
      <trkpt lat="47.77055" lon="-3.61128">
        <ele>7</ele>
        <time>2018-07-18T13:01:03Z</time>
      </trkpt>
      <trkpt lat="47.77057" lon="-3.61123">
        <ele>7</ele>
        <time>2018-07-18T13:01:04Z</time>
      </trkpt>
      <trkpt lat="47.77059" lon="-3.61118">
        <ele>7</ele>
        <time>2018-07-18T13:01:05Z</time>
      </trkpt>
      <trkpt lat="47.7706" lon="-3.61113">
        <ele>7</ele>
        <time>2018-07-18T13:01:06Z</time>
      </trkpt>
      <trkpt lat="47.7706" lon="-3.61108">
        <ele>7</ele>
        <time>2018-07-18T13:01:07Z</time>
      </trkpt>
      <trkpt lat="47.7706" lon="-3.61103">
        <ele>7</ele>
        <time>2018-07-18T13:01:08Z</time>
      </trkpt>
      <trkpt lat="47.77062" lon="-3.61099">
        <ele>7</ele>
        <time>2018-07-18T13:01:09Z</time>
      </trkpt>
      <trkpt lat="47.77064" lon="-3.61098">
        <ele>7</ele>
        <time>2018-07-18T13:01:10Z</time>
      </trkpt>
      <trkpt lat="47.77067" lon="-3.61096">
        <ele>7</ele>
        <time>2018-07-18T13:01:11Z</time>
      </trkpt>
      <trkpt lat="47.7707" lon="-3.61093">
        <ele>7</ele>
        <time>2018-07-18T13:01:12Z</time>
      </trkpt>
      <trkpt lat="47.77072" lon="-3.61089">
        <ele>7</ele>
        <time>2018-07-18T13:01:13Z</time>
      </trkpt>
      <trkpt lat="47.77073" lon="-3.61086">
        <ele>8</ele>
        <time>2018-07-18T13:01:14Z</time>
      </trkpt>
      <trkpt lat="47.77075" lon="-3.61084">
        <ele>8</ele>
        <time>2018-07-18T13:01:15Z</time>
      </trkpt>
      <trkpt lat="47.77077" lon="-3.61085">
        <ele>8</ele>
        <time>2018-07-18T13:01:16Z</time>
      </trkpt>
      <trkpt lat="47.77078" lon="-3.61085">
        <ele>8</ele>
        <time>2018-07-18T13:01:17Z</time>
      </trkpt>
      <trkpt lat="47.7708" lon="-3.61085">
        <ele>8</ele>
        <time>2018-07-18T13:01:18Z</time>
      </trkpt>
      <trkpt lat="47.77082" lon="-3.61084">
        <ele>9</ele>
        <time>2018-07-18T13:01:19Z</time>
      </trkpt>
      <trkpt lat="47.77084" lon="-3.61082">
        <ele>9</ele>
        <time>2018-07-18T13:01:20Z</time>
      </trkpt>
      <trkpt lat="47.77087" lon="-3.6108">
        <ele>9</ele>
        <time>2018-07-18T13:01:21Z</time>
      </trkpt>
      <trkpt lat="47.77089" lon="-3.61078">
        <ele>9</ele>
        <time>2018-07-18T13:01:22Z</time>
      </trkpt>
      <trkpt lat="47.77092" lon="-3.61074">
        <ele>9</ele>
        <time>2018-07-18T13:01:23Z</time>
      </trkpt>
      <trkpt lat="47.77093" lon="-3.6107">
        <ele>9</ele>
        <time>2018-07-18T13:01:24Z</time>
      </trkpt>
      <trkpt lat="47.77094" lon="-3.61065">
        <ele>9</ele>
        <time>2018-07-18T13:01:25Z</time>
      </trkpt>
      <trkpt lat="47.77095" lon="-3.61061">
        <ele>9</ele>
        <time>2018-07-18T13:01:26Z</time>
      </trkpt>
      <trkpt lat="47.77096" lon="-3.61056">
        <ele>10</ele>
        <time>2018-07-18T13:01:27Z</time>
      </trkpt>
      <trkpt lat="47.77097" lon="-3.61053">
        <ele>10</ele>
        <time>2018-07-18T13:01:28Z</time>
      </trkpt>
      <trkpt lat="47.77099" lon="-3.61052">
        <ele>10</ele>
        <time>2018-07-18T13:01:29Z</time>
      </trkpt>
      <trkpt lat="47.77101" lon="-3.61052">
        <ele>10</ele>
        <time>2018-07-18T13:01:30Z</time>
      </trkpt>
      <trkpt lat="47.77103" lon="-3.61051">
        <ele>10</ele>
        <time>2018-07-18T13:01:31Z</time>
      </trkpt>
      <trkpt lat="47.77105" lon="-3.61049">
        <ele>10</ele>
        <time>2018-07-18T13:01:32Z</time>
      </trkpt>
      <trkpt lat="47.77107" lon="-3.61046">
        <ele>10</ele>
        <time>2018-07-18T13:01:33Z</time>
      </trkpt>
      <trkpt lat="47.7711" lon="-3.61045">
        <ele>9</ele>
        <time>2018-07-18T13:01:34Z</time>
      </trkpt>
      <trkpt lat="47.77112" lon="-3.61046">
        <ele>9</ele>
        <time>2018-07-18T13:01:35Z</time>
      </trkpt>
      <trkpt lat="47.77114" lon="-3.61049">
        <ele>9</ele>
        <time>2018-07-18T13:01:36Z</time>
      </trkpt>
      <trkpt lat="47.77116" lon="-3.61051">
        <ele>9</ele>
        <time>2018-07-18T13:01:37Z</time>
      </trkpt>
      <trkpt lat="47.77119" lon="-3.61051">
        <ele>9</ele>
        <time>2018-07-18T13:01:38Z</time>
      </trkpt>
      <trkpt lat="47.77122" lon="-3.6105">
        <ele>9</ele>
        <time>2018-07-18T13:01:39Z</time>
      </trkpt>
      <trkpt lat="47.77125" lon="-3.61049">
        <ele>9</ele>
        <time>2018-07-18T13:01:40Z</time>
      </trkpt>
      <trkpt lat="47.77127" lon="-3.61046">
        <ele>9</ele>
        <time>2018-07-18T13:01:41Z</time>
      </trkpt>
      <trkpt lat="47.77128" lon="-3.61042">
        <ele>9</ele>
        <time>2018-07-18T13:01:42Z</time>
      </trkpt>
      <trkpt lat="47.7713" lon="-3.61039">
        <ele>9</ele>
        <time>2018-07-18T13:01:43Z</time>
      </trkpt>
      <trkpt lat="47.77133" lon="-3.61036">
        <ele>9</ele>
        <time>2018-07-18T13:01:44Z</time>
      </trkpt>
      <trkpt lat="47.77135" lon="-3.61035">
        <ele>9</ele>
        <time>2018-07-18T13:01:45Z</time>
      </trkpt>
      <trkpt lat="47.77138" lon="-3.61035">
        <ele>9</ele>
        <time>2018-07-18T13:01:46Z</time>
      </trkpt>
      <trkpt lat="47.77141" lon="-3.61037">
        <ele>9</ele>
        <time>2018-07-18T13:01:47Z</time>
      </trkpt>
      <trkpt lat="47.77142" lon="-3.6104">
        <ele>9</ele>
        <time>2018-07-18T13:01:48Z</time>
      </trkpt>
      <trkpt lat="47.77143" lon="-3.61043">
        <ele>9</ele>
        <time>2018-07-18T13:01:49Z</time>
      </trkpt>
      <trkpt lat="47.77144" lon="-3.61045">
        <ele>9</ele>
        <time>2018-07-18T13:01:50Z</time>
      </trkpt>
      <trkpt lat="47.77146" lon="-3.61047">
        <ele>9</ele>
        <time>2018-07-18T13:01:51Z</time>
      </trkpt>
      <trkpt lat="47.77148" lon="-3.61048">
        <ele>9</ele>
        <time>2018-07-18T13:01:52Z</time>
      </trkpt>
      <trkpt lat="47.7715" lon="-3.61049">
        <ele>9</ele>
        <time>2018-07-18T13:01:53Z</time>
      </trkpt>
      <trkpt lat="47.77153" lon="-3.61049">
        <ele>9</ele>
        <time>2018-07-18T13:01:54Z</time>
      </trkpt>
      <trkpt lat="47.77156" lon="-3.61047">
        <ele>9</ele>
        <time>2018-07-18T13:01:55Z</time>
      </trkpt>
      <trkpt lat="47.7716" lon="-3.61045">
        <ele>9</ele>
        <time>2018-07-18T13:01:56Z</time>
      </trkpt>
      <trkpt lat="47.77164" lon="-3.61043">
        <ele>9</ele>
        <time>2018-07-18T13:01:57Z</time>
      </trkpt>
      <trkpt lat="47.77167" lon="-3.6104">
        <ele>8</ele>
        <time>2018-07-18T13:01:58Z</time>
      </trkpt>
      <trkpt lat="47.7717" lon="-3.61036">
        <ele>8</ele>
        <time>2018-07-18T13:01:59Z</time>
      </trkpt>
      <trkpt lat="47.77172" lon="-3.61033">
        <ele>8</ele>
        <time>2018-07-18T13:02:00Z</time>
      </trkpt>
      <trkpt lat="47.77173" lon="-3.6103">
        <ele>8</ele>
        <time>2018-07-18T13:02:01Z</time>
      </trkpt>
      <trkpt lat="47.77174" lon="-3.61029">
        <ele>8</ele>
        <time>2018-07-18T13:02:02Z</time>
      </trkpt>
      <trkpt lat="47.77174" lon="-3.61029">
        <ele>8</ele>
        <time>2018-07-18T13:02:03Z</time>
      </trkpt>
      <trkpt lat="47.77174" lon="-3.61029">
        <ele>8</ele>
        <time>2018-07-18T13:02:04Z</time>
      </trkpt>
      <trkpt lat="47.77174" lon="-3.61029">
        <ele>8</ele>
        <time>2018-07-18T13:02:05Z</time>
      </trkpt>
      <trkpt lat="47.77174" lon="-3.61029">
        <ele>8</ele>
        <time>2018-07-18T13:02:06Z</time>
      </trkpt>
      <trkpt lat="47.77174" lon="-3.61028">
        <ele>8</ele>
        <time>2018-07-18T13:02:07Z</time>
      </trkpt>
      <trkpt lat="47.77174" lon="-3.61028">
        <ele>8</ele>
        <time>2018-07-18T13:02:08Z</time>
      </trkpt>
      <trkpt lat="47.77175" lon="-3.61027">
        <ele>8</ele>
        <time>2018-07-18T13:02:09Z</time>
      </trkpt>
      <trkpt lat="47.77175" lon="-3.61026">
        <ele>8</ele>
        <time>2018-07-18T13:02:10Z</time>
      </trkpt>
      <trkpt lat="47.77175" lon="-3.61025">
        <ele>8</ele>
        <time>2018-07-18T13:02:11Z</time>
      </trkpt>
      <trkpt lat="47.77176" lon="-3.61024">
        <ele>8</ele>
        <time>2018-07-18T13:02:12Z</time>
      </trkpt>
      <trkpt lat="47.77177" lon="-3.61023">
        <ele>8</ele>
        <time>2018-07-18T13:02:13Z</time>
      </trkpt>
      <trkpt lat="47.77177" lon="-3.61022">
        <ele>8</ele>
        <time>2018-07-18T13:02:14Z</time>
      </trkpt>
      <trkpt lat="47.77178" lon="-3.6102">
        <ele>8</ele>
        <time>2018-07-18T13:02:15Z</time>
      </trkpt>
      <trkpt lat="47.77179" lon="-3.61017">
        <ele>7</ele>
        <time>2018-07-18T13:02:16Z</time>
      </trkpt>
      <trkpt lat="47.77179" lon="-3.61013">
        <ele>7</ele>
        <time>2018-07-18T13:02:17Z</time>
      </trkpt>
      <trkpt lat="47.77179" lon="-3.61007">
        <ele>7</ele>
        <time>2018-07-18T13:02:18Z</time>
      </trkpt>
      <trkpt lat="47.77178" lon="-3.61002">
        <ele>7</ele>
        <time>2018-07-18T13:02:19Z</time>
      </trkpt>
      <trkpt lat="47.77178" lon="-3.60997">
        <ele>7</ele>
        <time>2018-07-18T13:02:20Z</time>
      </trkpt>
      <trkpt lat="47.77178" lon="-3.60992">
        <ele>7</ele>
        <time>2018-07-18T13:02:21Z</time>
      </trkpt>
      <trkpt lat="47.7718" lon="-3.60989">
        <ele>7</ele>
        <time>2018-07-18T13:02:22Z</time>
      </trkpt>
      <trkpt lat="47.77181" lon="-3.60989">
        <ele>7</ele>
        <time>2018-07-18T13:02:23Z</time>
      </trkpt>
      <trkpt lat="47.77183" lon="-3.6099">
        <ele>7</ele>
        <time>2018-07-18T13:02:24Z</time>
      </trkpt>
      <trkpt lat="47.77186" lon="-3.6099">
        <ele>7</ele>
        <time>2018-07-18T13:02:25Z</time>
      </trkpt>
      <trkpt lat="47.77188" lon="-3.60989">
        <ele>7</ele>
        <time>2018-07-18T13:02:26Z</time>
      </trkpt>
      <trkpt lat="47.77189" lon="-3.60987">
        <ele>7</ele>
        <time>2018-07-18T13:02:27Z</time>
      </trkpt>
      <trkpt lat="47.77191" lon="-3.60983">
        <ele>7</ele>
        <time>2018-07-18T13:02:28Z</time>
      </trkpt>
      <trkpt lat="47.77193" lon="-3.60981">
        <ele>7</ele>
        <time>2018-07-18T13:02:29Z</time>
      </trkpt>
      <trkpt lat="47.77196" lon="-3.60979">
        <ele>7</ele>
        <time>2018-07-18T13:02:30Z</time>
      </trkpt>
      <trkpt lat="47.77199" lon="-3.60977">
        <ele>7</ele>
        <time>2018-07-18T13:02:31Z</time>
      </trkpt>
      <trkpt lat="47.77203" lon="-3.60976">
        <ele>7</ele>
        <time>2018-07-18T13:02:32Z</time>
      </trkpt>
      <trkpt lat="47.77205" lon="-3.60977">
        <ele>7</ele>
        <time>2018-07-18T13:02:33Z</time>
      </trkpt>
      <trkpt lat="47.77207" lon="-3.60979">
        <ele>7</ele>
        <time>2018-07-18T13:02:34Z</time>
      </trkpt>
      <trkpt lat="47.77207" lon="-3.6098">
        <ele>7</ele>
        <time>2018-07-18T13:02:35Z</time>
      </trkpt>
      <trkpt lat="47.77207" lon="-3.6098">
        <ele>7</ele>
        <time>2018-07-18T13:02:36Z</time>
      </trkpt>
      <trkpt lat="47.77208" lon="-3.6098">
        <ele>7</ele>
        <time>2018-07-18T13:02:37Z</time>
      </trkpt>
      <trkpt lat="47.77208" lon="-3.60981">
        <ele>7</ele>
        <time>2018-07-18T13:02:38Z</time>
      </trkpt>
      <trkpt lat="47.77208" lon="-3.60982">
        <ele>7</ele>
        <time>2018-07-18T13:02:39Z</time>
      </trkpt>
      <trkpt lat="47.7721" lon="-3.60983">
        <ele>7</ele>
        <time>2018-07-18T13:02:40Z</time>
      </trkpt>
      <trkpt lat="47.77211" lon="-3.60984">
        <ele>7</ele>
        <time>2018-07-18T13:02:41Z</time>
      </trkpt>
      <trkpt lat="47.77211" lon="-3.60984">
        <ele>7</ele>
        <time>2018-07-18T13:02:42Z</time>
      </trkpt>
      <trkpt lat="47.77212" lon="-3.60984">
        <ele>7</ele>
        <time>2018-07-18T13:02:43Z</time>
      </trkpt>
      <trkpt lat="47.77214" lon="-3.60984">
        <ele>7</ele>
        <time>2018-07-18T13:02:44Z</time>
      </trkpt>
      <trkpt lat="47.77215" lon="-3.60983">
        <ele>7</ele>
        <time>2018-07-18T13:02:45Z</time>
      </trkpt>
      <trkpt lat="47.77216" lon="-3.60983">
        <ele>7</ele>
        <time>2018-07-18T13:02:46Z</time>
      </trkpt>
      <trkpt lat="47.77217" lon="-3.60983">
        <ele>7</ele>
        <time>2018-07-18T13:02:47Z</time>
      </trkpt>
      <trkpt lat="47.77217" lon="-3.60983">
        <ele>7</ele>
        <time>2018-07-18T13:02:48Z</time>
      </trkpt>
      <trkpt lat="47.77217" lon="-3.60983">
        <ele>7</ele>
        <time>2018-07-18T13:02:49Z</time>
      </trkpt>
      <trkpt lat="47.77218" lon="-3.60982">
        <ele>7</ele>
        <time>2018-07-18T13:02:50Z</time>
      </trkpt>
      <trkpt lat="47.77218" lon="-3.60982">
        <ele>7</ele>
        <time>2018-07-18T13:02:51Z</time>
      </trkpt>
      <trkpt lat="47.77219" lon="-3.60982">
        <ele>7</ele>
        <time>2018-07-18T13:02:52Z</time>
      </trkpt>
      <trkpt lat="47.77219" lon="-3.60982">
        <ele>7</ele>
        <time>2018-07-18T13:02:53Z</time>
      </trkpt>
      <trkpt lat="47.7722" lon="-3.60982">
        <ele>7</ele>
        <time>2018-07-18T13:02:54Z</time>
      </trkpt>
      <trkpt lat="47.77221" lon="-3.60981">
        <ele>7</ele>
        <time>2018-07-18T13:02:55Z</time>
      </trkpt>
      <trkpt lat="47.77221" lon="-3.60981">
        <ele>7</ele>
        <time>2018-07-18T13:02:56Z</time>
      </trkpt>
      <trkpt lat="47.77222" lon="-3.60981">
        <ele>7</ele>
        <time>2018-07-18T13:02:57Z</time>
      </trkpt>
      <trkpt lat="47.77223" lon="-3.60981">
        <ele>7</ele>
        <time>2018-07-18T13:02:58Z</time>
      </trkpt>
      <trkpt lat="47.77223" lon="-3.60981">
        <ele>7</ele>
        <time>2018-07-18T13:02:59Z</time>
      </trkpt>
      <trkpt lat="47.77223" lon="-3.60981">
        <ele>7</ele>
        <time>2018-07-18T13:03:00Z</time>
      </trkpt>
      <trkpt lat="47.77224" lon="-3.60981">
        <ele>7</ele>
        <time>2018-07-18T13:03:01Z</time>
      </trkpt>
      <trkpt lat="47.77225" lon="-3.60981">
        <ele>7</ele>
        <time>2018-07-18T13:03:02Z</time>
      </trkpt>
      <trkpt lat="47.77225" lon="-3.60981">
        <ele>7</ele>
        <time>2018-07-18T13:03:03Z</time>
      </trkpt>
      <trkpt lat="47.77225" lon="-3.60981">
        <ele>7</ele>
        <time>2018-07-18T13:03:04Z</time>
      </trkpt>
      <trkpt lat="47.77225" lon="-3.60981">
        <ele>7</ele>
        <time>2018-07-18T13:03:05Z</time>
      </trkpt>
      <trkpt lat="47.77225" lon="-3.60981">
        <ele>8</ele>
        <time>2018-07-18T13:03:06Z</time>
      </trkpt>
      <trkpt lat="47.77225" lon="-3.60981">
        <ele>8</ele>
        <time>2018-07-18T13:03:07Z</time>
      </trkpt>
      <trkpt lat="47.77227" lon="-3.60979">
        <ele>8</ele>
        <time>2018-07-18T13:03:08Z</time>
      </trkpt>
      <trkpt lat="47.77228" lon="-3.60977">
        <ele>8</ele>
        <time>2018-07-18T13:03:09Z</time>
      </trkpt>
      <trkpt lat="47.77229" lon="-3.60974">
        <ele>8</ele>
        <time>2018-07-18T13:03:10Z</time>
      </trkpt>
      <trkpt lat="47.77231" lon="-3.60971">
        <ele>8</ele>
        <time>2018-07-18T13:03:11Z</time>
      </trkpt>
      <trkpt lat="47.77234" lon="-3.60967">
        <ele>8</ele>
        <time>2018-07-18T13:03:12Z</time>
      </trkpt>
      <trkpt lat="47.77237" lon="-3.60963">
        <ele>8</ele>
        <time>2018-07-18T13:03:13Z</time>
      </trkpt>
      <trkpt lat="47.77242" lon="-3.60959">
        <ele>7</ele>
        <time>2018-07-18T13:03:14Z</time>
      </trkpt>
      <trkpt lat="47.77246" lon="-3.60955">
        <ele>7</ele>
        <time>2018-07-18T13:03:15Z</time>
      </trkpt>
      <trkpt lat="47.77251" lon="-3.60952">
        <ele>7</ele>
        <time>2018-07-18T13:03:16Z</time>
      </trkpt>
      <trkpt lat="47.77255" lon="-3.60948">
        <ele>6</ele>
        <time>2018-07-18T13:03:17Z</time>
      </trkpt>
      <trkpt lat="47.7726" lon="-3.60944">
        <ele>6</ele>
        <time>2018-07-18T13:03:18Z</time>
      </trkpt>
      <trkpt lat="47.77264" lon="-3.6094">
        <ele>6</ele>
        <time>2018-07-18T13:03:19Z</time>
      </trkpt>
      <trkpt lat="47.77267" lon="-3.60937">
        <ele>6</ele>
        <time>2018-07-18T13:03:20Z</time>
      </trkpt>
      <trkpt lat="47.77271" lon="-3.60934">
        <ele>6</ele>
        <time>2018-07-18T13:03:21Z</time>
      </trkpt>
      <trkpt lat="47.77273" lon="-3.6093">
        <ele>6</ele>
        <time>2018-07-18T13:03:22Z</time>
      </trkpt>
      <trkpt lat="47.77275" lon="-3.60928">
        <ele>6</ele>
        <time>2018-07-18T13:03:23Z</time>
      </trkpt>
      <trkpt lat="47.77277" lon="-3.60925">
        <ele>6</ele>
        <time>2018-07-18T13:03:24Z</time>
      </trkpt>
      <trkpt lat="47.77279" lon="-3.60923">
        <ele>5</ele>
        <time>2018-07-18T13:03:25Z</time>
      </trkpt>
      <trkpt lat="47.77281" lon="-3.60922">
        <ele>5</ele>
        <time>2018-07-18T13:03:26Z</time>
      </trkpt>
      <trkpt lat="47.77282" lon="-3.60923">
        <ele>5</ele>
        <time>2018-07-18T13:03:27Z</time>
      </trkpt>
      <trkpt lat="47.77283" lon="-3.60925">
        <ele>5</ele>
        <time>2018-07-18T13:03:28Z</time>
      </trkpt>
      <trkpt lat="47.77282" lon="-3.60928">
        <ele>5</ele>
        <time>2018-07-18T13:03:29Z</time>
      </trkpt>
      <trkpt lat="47.77281" lon="-3.6093">
        <ele>5</ele>
        <time>2018-07-18T13:03:30Z</time>
      </trkpt>
      <trkpt lat="47.77279" lon="-3.60932">
        <ele>5</ele>
        <time>2018-07-18T13:03:31Z</time>
      </trkpt>
      <trkpt lat="47.77278" lon="-3.60933">
        <ele>5</ele>
        <time>2018-07-18T13:03:32Z</time>
      </trkpt>
      <trkpt lat="47.77276" lon="-3.60933">
        <ele>5</ele>
        <time>2018-07-18T13:03:33Z</time>
      </trkpt>
      <trkpt lat="47.77276" lon="-3.60931">
        <ele>5</ele>
        <time>2018-07-18T13:03:34Z</time>
      </trkpt>
      <trkpt lat="47.77277" lon="-3.60929">
        <ele>5</ele>
        <time>2018-07-18T13:03:35Z</time>
      </trkpt>
      <trkpt lat="47.77279" lon="-3.60929">
        <ele>5</ele>
        <time>2018-07-18T13:03:36Z</time>
      </trkpt>
      <trkpt lat="47.7728" lon="-3.6093">
        <ele>5</ele>
        <time>2018-07-18T13:03:37Z</time>
      </trkpt>
      <trkpt lat="47.77282" lon="-3.60933">
        <ele>5</ele>
        <time>2018-07-18T13:03:38Z</time>
      </trkpt>
      <trkpt lat="47.77283" lon="-3.60934">
        <ele>4</ele>
        <time>2018-07-18T13:03:39Z</time>
      </trkpt>
      <trkpt lat="47.77285" lon="-3.60934">
        <ele>4</ele>
        <time>2018-07-18T13:03:40Z</time>
      </trkpt>
      <trkpt lat="47.77286" lon="-3.60934">
        <ele>4</ele>
        <time>2018-07-18T13:03:41Z</time>
      </trkpt>
      <trkpt lat="47.77287" lon="-3.60936">
        <ele>4</ele>
        <time>2018-07-18T13:03:42Z</time>
      </trkpt>
      <trkpt lat="47.77288" lon="-3.60936">
        <ele>4</ele>
        <time>2018-07-18T13:03:43Z</time>
      </trkpt>
      <trkpt lat="47.77288" lon="-3.60936">
        <ele>4</ele>
        <time>2018-07-18T13:03:44Z</time>
      </trkpt>
      <trkpt lat="47.77289" lon="-3.60936">
        <ele>4</ele>
        <time>2018-07-18T13:03:45Z</time>
      </trkpt>
      <trkpt lat="47.77289" lon="-3.60936">
        <ele>4</ele>
        <time>2018-07-18T13:03:46Z</time>
      </trkpt>
      <trkpt lat="47.7729" lon="-3.60937">
        <ele>4</ele>
        <time>2018-07-18T13:03:47Z</time>
      </trkpt>
      <trkpt lat="47.7729" lon="-3.60937">
        <ele>5</ele>
        <time>2018-07-18T13:03:48Z</time>
      </trkpt>
      <trkpt lat="47.7729" lon="-3.60937">
        <ele>5</ele>
        <time>2018-07-18T13:03:49Z</time>
      </trkpt>
      <trkpt lat="47.7729" lon="-3.60938">
        <ele>5</ele>
        <time>2018-07-18T13:03:50Z</time>
      </trkpt>
      <trkpt lat="47.7729" lon="-3.60939">
        <ele>5</ele>
        <time>2018-07-18T13:03:51Z</time>
      </trkpt>
      <trkpt lat="47.77291" lon="-3.60939">
        <ele>5</ele>
        <time>2018-07-18T13:03:52Z</time>
      </trkpt>
      <trkpt lat="47.77292" lon="-3.60939">
        <ele>5</ele>
        <time>2018-07-18T13:03:53Z</time>
      </trkpt>
      <trkpt lat="47.77293" lon="-3.60939">
        <ele>4</ele>
        <time>2018-07-18T13:03:54Z</time>
      </trkpt>
      <trkpt lat="47.77294" lon="-3.6094">
        <ele>4</ele>
        <time>2018-07-18T13:03:55Z</time>
      </trkpt>
      <trkpt lat="47.77295" lon="-3.6094">
        <ele>4</ele>
        <time>2018-07-18T13:03:56Z</time>
      </trkpt>
      <trkpt lat="47.77296" lon="-3.6094">
        <ele>4</ele>
        <time>2018-07-18T13:03:57Z</time>
      </trkpt>
      <trkpt lat="47.77296" lon="-3.6094">
        <ele>4</ele>
        <time>2018-07-18T13:03:58Z</time>
      </trkpt>
      <trkpt lat="47.77296" lon="-3.6094">
        <ele>4</ele>
        <time>2018-07-18T13:03:59Z</time>
      </trkpt>
      <trkpt lat="47.77296" lon="-3.6094">
        <ele>4</ele>
        <time>2018-07-18T13:04:00Z</time>
      </trkpt>
      <trkpt lat="47.77297" lon="-3.6094">
        <ele>4</ele>
        <time>2018-07-18T13:04:01Z</time>
      </trkpt>
      <trkpt lat="47.77298" lon="-3.6094">
        <ele>3</ele>
        <time>2018-07-18T13:04:02Z</time>
      </trkpt>
      <trkpt lat="47.77298" lon="-3.60941">
        <ele>3</ele>
        <time>2018-07-18T13:04:03Z</time>
      </trkpt>
      <trkpt lat="47.77298" lon="-3.60941">
        <ele>3</ele>
        <time>2018-07-18T13:04:04Z</time>
      </trkpt>
      <trkpt lat="47.77298" lon="-3.60941">
        <ele>3</ele>
        <time>2018-07-18T13:04:05Z</time>
      </trkpt>
      <trkpt lat="47.77299" lon="-3.60941">
        <ele>3</ele>
        <time>2018-07-18T13:04:06Z</time>
      </trkpt>
      <trkpt lat="47.773" lon="-3.60943">
        <ele>2</ele>
        <time>2018-07-18T13:04:07Z</time>
      </trkpt>
      <trkpt lat="47.773" lon="-3.60943">
        <ele>2</ele>
        <time>2018-07-18T13:04:08Z</time>
      </trkpt>
      <trkpt lat="47.77301" lon="-3.60944">
        <ele>2</ele>
        <time>2018-07-18T13:04:09Z</time>
      </trkpt>
      <trkpt lat="47.77302" lon="-3.60946">
        <ele>2</ele>
        <time>2018-07-18T13:04:10Z</time>
      </trkpt>
      <trkpt lat="47.77302" lon="-3.60947">
        <ele>1</ele>
        <time>2018-07-18T13:04:11Z</time>
      </trkpt>
      <trkpt lat="47.77303" lon="-3.60948">
        <ele>1</ele>
        <time>2018-07-18T13:04:12Z</time>
      </trkpt>
      <trkpt lat="47.77303" lon="-3.6095">
        <ele>1</ele>
        <time>2018-07-18T13:04:13Z</time>
      </trkpt>
      <trkpt lat="47.77304" lon="-3.60951">
        <ele>1</ele>
        <time>2018-07-18T13:04:14Z</time>
      </trkpt>
      <trkpt lat="47.77305" lon="-3.60952">
        <ele>1</ele>
        <time>2018-07-18T13:04:15Z</time>
      </trkpt>
      <trkpt lat="47.77305" lon="-3.60953">
        <ele>1</ele>
        <time>2018-07-18T13:04:16Z</time>
      </trkpt>
      <trkpt lat="47.77306" lon="-3.60954">
        <ele>1</ele>
        <time>2018-07-18T13:04:17Z</time>
      </trkpt>
      <trkpt lat="47.77306" lon="-3.60954">
        <ele>2</ele>
        <time>2018-07-18T13:04:18Z</time>
      </trkpt>
      <trkpt lat="47.77306" lon="-3.60954">
        <ele>2</ele>
        <time>2018-07-18T13:04:19Z</time>
      </trkpt>
      <trkpt lat="47.77306" lon="-3.60955">
        <ele>2</ele>
        <time>2018-07-18T13:04:20Z</time>
      </trkpt>
      <trkpt lat="47.77307" lon="-3.60955">
        <ele>2</ele>
        <time>2018-07-18T13:04:21Z</time>
      </trkpt>
      <trkpt lat="47.77307" lon="-3.60954">
        <ele>2</ele>
        <time>2018-07-18T13:04:22Z</time>
      </trkpt>
      <trkpt lat="47.77307" lon="-3.60954">
        <ele>3</ele>
        <time>2018-07-18T13:04:23Z</time>
      </trkpt>
      <trkpt lat="47.77307" lon="-3.60953">
        <ele>3</ele>
        <time>2018-07-18T13:04:24Z</time>
      </trkpt>
      <trkpt lat="47.77307" lon="-3.60952">
        <ele>3</ele>
        <time>2018-07-18T13:04:25Z</time>
      </trkpt>
      <trkpt lat="47.77307" lon="-3.60951">
        <ele>3</ele>
        <time>2018-07-18T13:04:26Z</time>
      </trkpt>
      <trkpt lat="47.77308" lon="-3.6095">
        <ele>3</ele>
        <time>2018-07-18T13:04:27Z</time>
      </trkpt>
      <trkpt lat="47.77309" lon="-3.60949">
        <ele>3</ele>
        <time>2018-07-18T13:04:28Z</time>
      </trkpt>
      <trkpt lat="47.77309" lon="-3.60948">
        <ele>3</ele>
        <time>2018-07-18T13:04:29Z</time>
      </trkpt>
      <trkpt lat="47.77309" lon="-3.60947">
        <ele>4</ele>
        <time>2018-07-18T13:04:30Z</time>
      </trkpt>
      <trkpt lat="47.77308" lon="-3.60946">
        <ele>4</ele>
        <time>2018-07-18T13:04:31Z</time>
      </trkpt>
      <trkpt lat="47.77308" lon="-3.60945">
        <ele>4</ele>
        <time>2018-07-18T13:04:32Z</time>
      </trkpt>
      <trkpt lat="47.77307" lon="-3.60944">
        <ele>4</ele>
        <time>2018-07-18T13:04:33Z</time>
      </trkpt>
      <trkpt lat="47.77307" lon="-3.60943">
        <ele>4</ele>
        <time>2018-07-18T13:04:34Z</time>
      </trkpt>
      <trkpt lat="47.77307" lon="-3.60943">
        <ele>4</ele>
        <time>2018-07-18T13:04:35Z</time>
      </trkpt>
      <trkpt lat="47.77307" lon="-3.60942">
        <ele>5</ele>
        <time>2018-07-18T13:04:36Z</time>
      </trkpt>
      <trkpt lat="47.77308" lon="-3.60941">
        <ele>5</ele>
        <time>2018-07-18T13:04:37Z</time>
      </trkpt>
      <trkpt lat="47.77308" lon="-3.60941">
        <ele>5</ele>
        <time>2018-07-18T13:04:38Z</time>
      </trkpt>
      <trkpt lat="47.77307" lon="-3.6094">
        <ele>5</ele>
        <time>2018-07-18T13:04:39Z</time>
      </trkpt>
      <trkpt lat="47.77306" lon="-3.60939">
        <ele>5</ele>
        <time>2018-07-18T13:04:40Z</time>
      </trkpt>
      <trkpt lat="47.77305" lon="-3.60938">
        <ele>4</ele>
        <time>2018-07-18T13:04:41Z</time>
      </trkpt>
      <trkpt lat="47.77303" lon="-3.60938">
        <ele>4</ele>
        <time>2018-07-18T13:04:42Z</time>
      </trkpt>
      <trkpt lat="47.77302" lon="-3.60937">
        <ele>4</ele>
        <time>2018-07-18T13:04:43Z</time>
      </trkpt>
      <trkpt lat="47.77301" lon="-3.60936">
        <ele>4</ele>
        <time>2018-07-18T13:04:44Z</time>
      </trkpt>
      <trkpt lat="47.773" lon="-3.60937">
        <ele>4</ele>
        <time>2018-07-18T13:04:45Z</time>
      </trkpt>
      <trkpt lat="47.773" lon="-3.60936">
        <ele>4</ele>
        <time>2018-07-18T13:04:46Z</time>
      </trkpt>
      <trkpt lat="47.77299" lon="-3.60937">
        <ele>4</ele>
        <time>2018-07-18T13:04:47Z</time>
      </trkpt>
      <trkpt lat="47.77299" lon="-3.60937">
        <ele>4</ele>
        <time>2018-07-18T13:04:48Z</time>
      </trkpt>
      <trkpt lat="47.77298" lon="-3.60938">
        <ele>4</ele>
        <time>2018-07-18T13:04:49Z</time>
      </trkpt>
      <trkpt lat="47.77298" lon="-3.60938">
        <ele>4</ele>
        <time>2018-07-18T13:04:50Z</time>
      </trkpt>
      <trkpt lat="47.77297" lon="-3.60939">
        <ele>4</ele>
        <time>2018-07-18T13:04:51Z</time>
      </trkpt>
      <trkpt lat="47.77297" lon="-3.6094">
        <ele>4</ele>
        <time>2018-07-18T13:04:52Z</time>
      </trkpt>
      <trkpt lat="47.77297" lon="-3.60941">
        <ele>4</ele>
        <time>2018-07-18T13:04:53Z</time>
      </trkpt>
      <trkpt lat="47.77296" lon="-3.60941">
        <ele>4</ele>
        <time>2018-07-18T13:04:54Z</time>
      </trkpt>
      <trkpt lat="47.77296" lon="-3.60943">
        <ele>4</ele>
        <time>2018-07-18T13:04:55Z</time>
      </trkpt>
      <trkpt lat="47.77295" lon="-3.60944">
        <ele>4</ele>
        <time>2018-07-18T13:04:56Z</time>
      </trkpt>
      <trkpt lat="47.77295" lon="-3.60944">
        <ele>4</ele>
        <time>2018-07-18T13:04:57Z</time>
      </trkpt>
      <trkpt lat="47.77294" lon="-3.60945">
        <ele>4</ele>
        <time>2018-07-18T13:04:58Z</time>
      </trkpt>
      <trkpt lat="47.77294" lon="-3.60947">
        <ele>4</ele>
        <time>2018-07-18T13:04:59Z</time>
      </trkpt>
      <trkpt lat="47.77294" lon="-3.60948">
        <ele>4</ele>
        <time>2018-07-18T13:05:00Z</time>
      </trkpt>
      <trkpt lat="47.77293" lon="-3.6095">
        <ele>4</ele>
        <time>2018-07-18T13:05:01Z</time>
      </trkpt>
      <trkpt lat="47.77293" lon="-3.6095">
        <ele>5</ele>
        <time>2018-07-18T13:05:02Z</time>
      </trkpt>
      <trkpt lat="47.77293" lon="-3.60951">
        <ele>5</ele>
        <time>2018-07-18T13:05:03Z</time>
      </trkpt>
      <trkpt lat="47.77293" lon="-3.60952">
        <ele>5</ele>
        <time>2018-07-18T13:05:04Z</time>
      </trkpt>
      <trkpt lat="47.77293" lon="-3.60953">
        <ele>5</ele>
        <time>2018-07-18T13:05:05Z</time>
      </trkpt>
      <trkpt lat="47.77293" lon="-3.60954">
        <ele>5</ele>
        <time>2018-07-18T13:05:06Z</time>
      </trkpt>
      <trkpt lat="47.77293" lon="-3.60955">
        <ele>5</ele>
        <time>2018-07-18T13:05:07Z</time>
      </trkpt>
      <trkpt lat="47.77292" lon="-3.60956">
        <ele>5</ele>
        <time>2018-07-18T13:05:08Z</time>
      </trkpt>
      <trkpt lat="47.77291" lon="-3.60957">
        <ele>6</ele>
        <time>2018-07-18T13:05:09Z</time>
      </trkpt>
      <trkpt lat="47.77291" lon="-3.60958">
        <ele>6</ele>
        <time>2018-07-18T13:05:10Z</time>
      </trkpt>
      <trkpt lat="47.7729" lon="-3.60959">
        <ele>6</ele>
        <time>2018-07-18T13:05:11Z</time>
      </trkpt>
      <trkpt lat="47.77289" lon="-3.6096">
        <ele>6</ele>
        <time>2018-07-18T13:05:12Z</time>
      </trkpt>
      <trkpt lat="47.77288" lon="-3.60961">
        <ele>6</ele>
        <time>2018-07-18T13:05:13Z</time>
      </trkpt>
      <trkpt lat="47.77287" lon="-3.60963">
        <ele>7</ele>
        <time>2018-07-18T13:05:14Z</time>
      </trkpt>
      <trkpt lat="47.77287" lon="-3.60964">
        <ele>7</ele>
        <time>2018-07-18T13:05:15Z</time>
      </trkpt>
      <trkpt lat="47.77287" lon="-3.60966">
        <ele>7</ele>
        <time>2018-07-18T13:05:16Z</time>
      </trkpt>
      <trkpt lat="47.77287" lon="-3.60966">
        <ele>7</ele>
        <time>2018-07-18T13:05:17Z</time>
      </trkpt>
      <trkpt lat="47.77287" lon="-3.60966">
        <ele>8</ele>
        <time>2018-07-18T13:05:18Z</time>
      </trkpt>
      <trkpt lat="47.77287" lon="-3.60967">
        <ele>8</ele>
        <time>2018-07-18T13:05:19Z</time>
      </trkpt>
      <trkpt lat="47.77286" lon="-3.60969">
        <ele>8</ele>
        <time>2018-07-18T13:05:20Z</time>
      </trkpt>
      <trkpt lat="47.77286" lon="-3.60971">
        <ele>8</ele>
        <time>2018-07-18T13:05:21Z</time>
      </trkpt>
      <trkpt lat="47.77285" lon="-3.60974">
        <ele>8</ele>
        <time>2018-07-18T13:05:22Z</time>
      </trkpt>
      <trkpt lat="47.77285" lon="-3.60977">
        <ele>8</ele>
        <time>2018-07-18T13:05:23Z</time>
      </trkpt>
      <trkpt lat="47.77286" lon="-3.6098">
        <ele>8</ele>
        <time>2018-07-18T13:05:24Z</time>
      </trkpt>
      <trkpt lat="47.77287" lon="-3.60983">
        <ele>9</ele>
        <time>2018-07-18T13:05:25Z</time>
      </trkpt>
      <trkpt lat="47.77289" lon="-3.60986">
        <ele>9</ele>
        <time>2018-07-18T13:05:26Z</time>
      </trkpt>
      <trkpt lat="47.7729" lon="-3.60989">
        <ele>9</ele>
        <time>2018-07-18T13:05:27Z</time>
      </trkpt>
      <trkpt lat="47.7729" lon="-3.60991">
        <ele>9</ele>
        <time>2018-07-18T13:05:28Z</time>
      </trkpt>
      <trkpt lat="47.77291" lon="-3.60994">
        <ele>9</ele>
        <time>2018-07-18T13:05:29Z</time>
      </trkpt>
      <trkpt lat="47.77291" lon="-3.60998">
        <ele>9</ele>
        <time>2018-07-18T13:05:30Z</time>
      </trkpt>
      <trkpt lat="47.77291" lon="-3.61001">
        <ele>9</ele>
        <time>2018-07-18T13:05:31Z</time>
      </trkpt>
      <trkpt lat="47.77291" lon="-3.61004">
        <ele>10</ele>
        <time>2018-07-18T13:05:32Z</time>
      </trkpt>
      <trkpt lat="47.77291" lon="-3.61008">
        <ele>10</ele>
        <time>2018-07-18T13:05:33Z</time>
      </trkpt>
      <trkpt lat="47.77291" lon="-3.61011">
        <ele>10</ele>
        <time>2018-07-18T13:05:34Z</time>
      </trkpt>
      <trkpt lat="47.77291" lon="-3.61015">
        <ele>10</ele>
        <time>2018-07-18T13:05:35Z</time>
      </trkpt>
      <trkpt lat="47.77291" lon="-3.61018">
        <ele>10</ele>
        <time>2018-07-18T13:05:36Z</time>
      </trkpt>
      <trkpt lat="47.77291" lon="-3.61022">
        <ele>11</ele>
        <time>2018-07-18T13:05:37Z</time>
      </trkpt>
      <trkpt lat="47.77291" lon="-3.61025">
        <ele>11</ele>
        <time>2018-07-18T13:05:38Z</time>
      </trkpt>
      <trkpt lat="47.77292" lon="-3.61028">
        <ele>11</ele>
        <time>2018-07-18T13:05:39Z</time>
      </trkpt>
      <trkpt lat="47.77292" lon="-3.61032">
        <ele>11</ele>
        <time>2018-07-18T13:05:40Z</time>
      </trkpt>
      <trkpt lat="47.77293" lon="-3.61035">
        <ele>12</ele>
        <time>2018-07-18T13:05:41Z</time>
      </trkpt>
      <trkpt lat="47.77293" lon="-3.61038">
        <ele>12</ele>
        <time>2018-07-18T13:05:42Z</time>
      </trkpt>
      <trkpt lat="47.77293" lon="-3.61041">
        <ele>12</ele>
        <time>2018-07-18T13:05:43Z</time>
      </trkpt>
      <trkpt lat="47.77293" lon="-3.61044">
        <ele>13</ele>
        <time>2018-07-18T13:05:44Z</time>
      </trkpt>
      <trkpt lat="47.77294" lon="-3.61047">
        <ele>13</ele>
        <time>2018-07-18T13:05:45Z</time>
      </trkpt>
      <trkpt lat="47.77296" lon="-3.61049">
        <ele>13</ele>
        <time>2018-07-18T13:05:46Z</time>
      </trkpt>
      <trkpt lat="47.77297" lon="-3.61049">
        <ele>13</ele>
        <time>2018-07-18T13:05:47Z</time>
      </trkpt>
      <trkpt lat="47.77299" lon="-3.6105">
        <ele>14</ele>
        <time>2018-07-18T13:05:48Z</time>
      </trkpt>
      <trkpt lat="47.773" lon="-3.61051">
        <ele>14</ele>
        <time>2018-07-18T13:05:49Z</time>
      </trkpt>
      <trkpt lat="47.77303" lon="-3.61051">
        <ele>14</ele>
        <time>2018-07-18T13:05:50Z</time>
      </trkpt>
      <trkpt lat="47.77305" lon="-3.61052">
        <ele>14</ele>
        <time>2018-07-18T13:05:51Z</time>
      </trkpt>
      <trkpt lat="47.77308" lon="-3.61053">
        <ele>14</ele>
        <time>2018-07-18T13:05:52Z</time>
      </trkpt>
      <trkpt lat="47.7731" lon="-3.61053">
        <ele>14</ele>
        <time>2018-07-18T13:05:53Z</time>
      </trkpt>
      <trkpt lat="47.77313" lon="-3.61054">
        <ele>14</ele>
        <time>2018-07-18T13:05:54Z</time>
      </trkpt>
      <trkpt lat="47.77316" lon="-3.61055">
        <ele>15</ele>
        <time>2018-07-18T13:05:55Z</time>
      </trkpt>
      <trkpt lat="47.77319" lon="-3.61057">
        <ele>15</ele>
        <time>2018-07-18T13:05:56Z</time>
      </trkpt>
      <trkpt lat="47.77323" lon="-3.6106">
        <ele>15</ele>
        <time>2018-07-18T13:05:57Z</time>
      </trkpt>
      <trkpt lat="47.77326" lon="-3.61063">
        <ele>15</ele>
        <time>2018-07-18T13:05:58Z</time>
      </trkpt>
      <trkpt lat="47.77328" lon="-3.61065">
        <ele>15</ele>
        <time>2018-07-18T13:05:59Z</time>
      </trkpt>
      <trkpt lat="47.77331" lon="-3.61068">
        <ele>15</ele>
        <time>2018-07-18T13:06:00Z</time>
      </trkpt>
      <trkpt lat="47.77333" lon="-3.6107">
        <ele>15</ele>
        <time>2018-07-18T13:06:01Z</time>
      </trkpt>
      <trkpt lat="47.77336" lon="-3.61072">
        <ele>15</ele>
        <time>2018-07-18T13:06:02Z</time>
      </trkpt>
      <trkpt lat="47.77339" lon="-3.61074">
        <ele>16</ele>
        <time>2018-07-18T13:06:03Z</time>
      </trkpt>
      <trkpt lat="47.77341" lon="-3.61076">
        <ele>16</ele>
        <time>2018-07-18T13:06:04Z</time>
      </trkpt>
      <trkpt lat="47.77345" lon="-3.61078">
        <ele>16</ele>
        <time>2018-07-18T13:06:05Z</time>
      </trkpt>
      <trkpt lat="47.77349" lon="-3.61081">
        <ele>16</ele>
        <time>2018-07-18T13:06:06Z</time>
      </trkpt>
      <trkpt lat="47.77353" lon="-3.61083">
        <ele>16</ele>
        <time>2018-07-18T13:06:07Z</time>
      </trkpt>
      <trkpt lat="47.77357" lon="-3.61086">
        <ele>16</ele>
        <time>2018-07-18T13:06:08Z</time>
      </trkpt>
      <trkpt lat="47.7736" lon="-3.61088">
        <ele>16</ele>
        <time>2018-07-18T13:06:09Z</time>
      </trkpt>
      <trkpt lat="47.77363" lon="-3.61092">
        <ele>16</ele>
        <time>2018-07-18T13:06:10Z</time>
      </trkpt>
      <trkpt lat="47.77366" lon="-3.61096">
        <ele>16</ele>
        <time>2018-07-18T13:06:11Z</time>
      </trkpt>
      <trkpt lat="47.77368" lon="-3.61101">
        <ele>16</ele>
        <time>2018-07-18T13:06:12Z</time>
      </trkpt>
      <trkpt lat="47.7737" lon="-3.61106">
        <ele>16</ele>
        <time>2018-07-18T13:06:13Z</time>
      </trkpt>
      <trkpt lat="47.77372" lon="-3.61111">
        <ele>16</ele>
        <time>2018-07-18T13:06:14Z</time>
      </trkpt>
      <trkpt lat="47.77373" lon="-3.61115">
        <ele>16</ele>
        <time>2018-07-18T13:06:15Z</time>
      </trkpt>
      <trkpt lat="47.77376" lon="-3.61117">
        <ele>16</ele>
        <time>2018-07-18T13:06:16Z</time>
      </trkpt>
      <trkpt lat="47.77377" lon="-3.61118">
        <ele>16</ele>
        <time>2018-07-18T13:06:17Z</time>
      </trkpt>
      <trkpt lat="47.77378" lon="-3.61118">
        <ele>16</ele>
        <time>2018-07-18T13:06:18Z</time>
      </trkpt>
      <trkpt lat="47.7738" lon="-3.61118">
        <ele>16</ele>
        <time>2018-07-18T13:06:19Z</time>
      </trkpt>
      <trkpt lat="47.77381" lon="-3.61115">
        <ele>16</ele>
        <time>2018-07-18T13:06:20Z</time>
      </trkpt>
      <trkpt lat="47.77382" lon="-3.61113">
        <ele>16</ele>
        <time>2018-07-18T13:06:21Z</time>
      </trkpt>
      <trkpt lat="47.77383" lon="-3.61111">
        <ele>16</ele>
        <time>2018-07-18T13:06:22Z</time>
      </trkpt>
      <trkpt lat="47.77384" lon="-3.61108">
        <ele>16</ele>
        <time>2018-07-18T13:06:23Z</time>
      </trkpt>
      <trkpt lat="47.77385" lon="-3.61105">
        <ele>15</ele>
        <time>2018-07-18T13:06:24Z</time>
      </trkpt>
      <trkpt lat="47.77386" lon="-3.61102">
        <ele>15</ele>
        <time>2018-07-18T13:06:25Z</time>
      </trkpt>
      <trkpt lat="47.77386" lon="-3.61101">
        <ele>15</ele>
        <time>2018-07-18T13:06:26Z</time>
      </trkpt>
      <trkpt lat="47.77386" lon="-3.611">
        <ele>15</ele>
        <time>2018-07-18T13:06:27Z</time>
      </trkpt>
      <trkpt lat="47.77387" lon="-3.611">
        <ele>15</ele>
        <time>2018-07-18T13:06:28Z</time>
      </trkpt>
      <trkpt lat="47.77387" lon="-3.611">
        <ele>15</ele>
        <time>2018-07-18T13:06:29Z</time>
      </trkpt>
      <trkpt lat="47.77387" lon="-3.611">
        <ele>15</ele>
        <time>2018-07-18T13:06:30Z</time>
      </trkpt>
      <trkpt lat="47.77387" lon="-3.611">
        <ele>15</ele>
        <time>2018-07-18T13:06:31Z</time>
      </trkpt>
      <trkpt lat="47.77389" lon="-3.61098">
        <ele>15</ele>
        <time>2018-07-18T13:06:32Z</time>
      </trkpt>
      <trkpt lat="47.7739" lon="-3.61097">
        <ele>15</ele>
        <time>2018-07-18T13:06:33Z</time>
      </trkpt>
      <trkpt lat="47.77392" lon="-3.61096">
        <ele>14</ele>
        <time>2018-07-18T13:06:34Z</time>
      </trkpt>
      <trkpt lat="47.77394" lon="-3.61096">
        <ele>14</ele>
        <time>2018-07-18T13:06:35Z</time>
      </trkpt>
      <trkpt lat="47.77395" lon="-3.61096">
        <ele>14</ele>
        <time>2018-07-18T13:06:36Z</time>
      </trkpt>
      <trkpt lat="47.77395" lon="-3.61096">
        <ele>14</ele>
        <time>2018-07-18T13:06:37Z</time>
      </trkpt>
      <trkpt lat="47.77396" lon="-3.61097">
        <ele>14</ele>
        <time>2018-07-18T13:06:38Z</time>
      </trkpt>
      <trkpt lat="47.77397" lon="-3.61097">
        <ele>14</ele>
        <time>2018-07-18T13:06:39Z</time>
      </trkpt>
      <trkpt lat="47.77397" lon="-3.61097">
        <ele>14</ele>
        <time>2018-07-18T13:06:40Z</time>
      </trkpt>
      <trkpt lat="47.77398" lon="-3.61097">
        <ele>15</ele>
        <time>2018-07-18T13:06:41Z</time>
      </trkpt>
      <trkpt lat="47.77398" lon="-3.61098">
        <ele>15</ele>
        <time>2018-07-18T13:06:42Z</time>
      </trkpt>
      <trkpt lat="47.77399" lon="-3.61098">
        <ele>15</ele>
        <time>2018-07-18T13:06:43Z</time>
      </trkpt>
      <trkpt lat="47.774" lon="-3.61098">
        <ele>15</ele>
        <time>2018-07-18T13:06:44Z</time>
      </trkpt>
      <trkpt lat="47.774" lon="-3.61098">
        <ele>15</ele>
        <time>2018-07-18T13:06:45Z</time>
      </trkpt>
      <trkpt lat="47.77401" lon="-3.61099">
        <ele>15</ele>
        <time>2018-07-18T13:06:46Z</time>
      </trkpt>
      <trkpt lat="47.77402" lon="-3.61099">
        <ele>15</ele>
        <time>2018-07-18T13:06:47Z</time>
      </trkpt>
      <trkpt lat="47.77403" lon="-3.61099">
        <ele>15</ele>
        <time>2018-07-18T13:06:48Z</time>
      </trkpt>
      <trkpt lat="47.77405" lon="-3.611">
        <ele>15</ele>
        <time>2018-07-18T13:06:49Z</time>
      </trkpt>
      <trkpt lat="47.77407" lon="-3.61101">
        <ele>15</ele>
        <time>2018-07-18T13:06:50Z</time>
      </trkpt>
      <trkpt lat="47.77409" lon="-3.61103">
        <ele>15</ele>
        <time>2018-07-18T13:06:51Z</time>
      </trkpt>
      <trkpt lat="47.77411" lon="-3.61105">
        <ele>15</ele>
        <time>2018-07-18T13:06:52Z</time>
      </trkpt>
      <trkpt lat="47.77413" lon="-3.61106">
        <ele>15</ele>
        <time>2018-07-18T13:06:53Z</time>
      </trkpt>
      <trkpt lat="47.77414" lon="-3.61106">
        <ele>15</ele>
        <time>2018-07-18T13:06:54Z</time>
      </trkpt>
      <trkpt lat="47.77417" lon="-3.61107">
        <ele>16</ele>
        <time>2018-07-18T13:06:55Z</time>
      </trkpt>
      <trkpt lat="47.77418" lon="-3.61108">
        <ele>16</ele>
        <time>2018-07-18T13:06:56Z</time>
      </trkpt>
      <trkpt lat="47.77419" lon="-3.61108">
        <ele>16</ele>
        <time>2018-07-18T13:06:57Z</time>
      </trkpt>
      <trkpt lat="47.7742" lon="-3.61108">
        <ele>16</ele>
        <time>2018-07-18T13:06:58Z</time>
      </trkpt>
      <trkpt lat="47.77421" lon="-3.61108">
        <ele>16</ele>
        <time>2018-07-18T13:06:59Z</time>
      </trkpt>
      <trkpt lat="47.77422" lon="-3.61108">
        <ele>16</ele>
        <time>2018-07-18T13:07:00Z</time>
      </trkpt>
      <trkpt lat="47.77423" lon="-3.61106">
        <ele>15</ele>
        <time>2018-07-18T13:07:01Z</time>
      </trkpt>
      <trkpt lat="47.77424" lon="-3.61105">
        <ele>15</ele>
        <time>2018-07-18T13:07:02Z</time>
      </trkpt>
      <trkpt lat="47.77425" lon="-3.61104">
        <ele>15</ele>
        <time>2018-07-18T13:07:03Z</time>
      </trkpt>
      <trkpt lat="47.77425" lon="-3.61103">
        <ele>16</ele>
        <time>2018-07-18T13:07:04Z</time>
      </trkpt>
      <trkpt lat="47.77426" lon="-3.61103">
        <ele>16</ele>
        <time>2018-07-18T13:07:05Z</time>
      </trkpt>
      <trkpt lat="47.77426" lon="-3.61103">
        <ele>15</ele>
        <time>2018-07-18T13:07:06Z</time>
      </trkpt>
      <trkpt lat="47.77426" lon="-3.61103">
        <ele>16</ele>
        <time>2018-07-18T13:07:07Z</time>
      </trkpt>
      <trkpt lat="47.77427" lon="-3.61103">
        <ele>16</ele>
        <time>2018-07-18T13:07:08Z</time>
      </trkpt>
      <trkpt lat="47.77428" lon="-3.61104">
        <ele>16</ele>
        <time>2018-07-18T13:07:09Z</time>
      </trkpt>
      <trkpt lat="47.77427" lon="-3.61103">
        <ele>15</ele>
        <time>2018-07-18T13:07:10Z</time>
      </trkpt>
      <trkpt lat="47.77425" lon="-3.61102">
        <ele>15</ele>
        <time>2018-07-18T13:07:11Z</time>
      </trkpt>
      <trkpt lat="47.77422" lon="-3.611">
        <ele>15</ele>
        <time>2018-07-18T13:07:12Z</time>
      </trkpt>
      <trkpt lat="47.7742" lon="-3.61098">
        <ele>15</ele>
        <time>2018-07-18T13:07:13Z</time>
      </trkpt>
      <trkpt lat="47.77418" lon="-3.61095">
        <ele>15</ele>
        <time>2018-07-18T13:07:14Z</time>
      </trkpt>
      <trkpt lat="47.77415" lon="-3.61093">
        <ele>15</ele>
        <time>2018-07-18T13:07:15Z</time>
      </trkpt>
      <trkpt lat="47.77413" lon="-3.61091">
        <ele>14</ele>
        <time>2018-07-18T13:07:16Z</time>
      </trkpt>
      <trkpt lat="47.77411" lon="-3.61088">
        <ele>14</ele>
        <time>2018-07-18T13:07:17Z</time>
      </trkpt>
      <trkpt lat="47.77408" lon="-3.61084">
        <ele>14</ele>
        <time>2018-07-18T13:07:18Z</time>
      </trkpt>
      <trkpt lat="47.77406" lon="-3.61081">
        <ele>14</ele>
        <time>2018-07-18T13:07:19Z</time>
      </trkpt>
      <trkpt lat="47.77402" lon="-3.61078">
        <ele>14</ele>
        <time>2018-07-18T13:07:20Z</time>
      </trkpt>
      <trkpt lat="47.77399" lon="-3.61075">
        <ele>13</ele>
        <time>2018-07-18T13:07:21Z</time>
      </trkpt>
      <trkpt lat="47.77396" lon="-3.61072">
        <ele>13</ele>
        <time>2018-07-18T13:07:22Z</time>
      </trkpt>
      <trkpt lat="47.77392" lon="-3.61069">
        <ele>13</ele>
        <time>2018-07-18T13:07:23Z</time>
      </trkpt>
      <trkpt lat="47.7739" lon="-3.61067">
        <ele>13</ele>
        <time>2018-07-18T13:07:24Z</time>
      </trkpt>
      <trkpt lat="47.77387" lon="-3.61065">
        <ele>13</ele>
        <time>2018-07-18T13:07:25Z</time>
      </trkpt>
      <trkpt lat="47.77385" lon="-3.61062">
        <ele>13</ele>
        <time>2018-07-18T13:07:26Z</time>
      </trkpt>
      <trkpt lat="47.77383" lon="-3.61058">
        <ele>13</ele>
        <time>2018-07-18T13:07:27Z</time>
      </trkpt>
      <trkpt lat="47.77381" lon="-3.61054">
        <ele>13</ele>
        <time>2018-07-18T13:07:28Z</time>
      </trkpt>
      <trkpt lat="47.77379" lon="-3.61049">
        <ele>13</ele>
        <time>2018-07-18T13:07:29Z</time>
      </trkpt>
      <trkpt lat="47.77379" lon="-3.61045">
        <ele>13</ele>
        <time>2018-07-18T13:07:30Z</time>
      </trkpt>
      <trkpt lat="47.77379" lon="-3.6104">
        <ele>12</ele>
        <time>2018-07-18T13:07:31Z</time>
      </trkpt>
      <trkpt lat="47.77378" lon="-3.61036">
        <ele>12</ele>
        <time>2018-07-18T13:07:32Z</time>
      </trkpt>
      <trkpt lat="47.77377" lon="-3.61031">
        <ele>12</ele>
        <time>2018-07-18T13:07:33Z</time>
      </trkpt>
      <trkpt lat="47.77375" lon="-3.61027">
        <ele>12</ele>
        <time>2018-07-18T13:07:34Z</time>
      </trkpt>
      <trkpt lat="47.77373" lon="-3.61022">
        <ele>12</ele>
        <time>2018-07-18T13:07:35Z</time>
      </trkpt>
      <trkpt lat="47.77371" lon="-3.61018">
        <ele>11</ele>
        <time>2018-07-18T13:07:36Z</time>
      </trkpt>
      <trkpt lat="47.77368" lon="-3.61013">
        <ele>11</ele>
        <time>2018-07-18T13:07:37Z</time>
      </trkpt>
      <trkpt lat="47.77367" lon="-3.61009">
        <ele>11</ele>
        <time>2018-07-18T13:07:38Z</time>
      </trkpt>
      <trkpt lat="47.77365" lon="-3.61005">
        <ele>11</ele>
        <time>2018-07-18T13:07:39Z</time>
      </trkpt>
      <trkpt lat="47.77364" lon="-3.61001">
        <ele>11</ele>
        <time>2018-07-18T13:07:40Z</time>
      </trkpt>
      <trkpt lat="47.77363" lon="-3.60998">
        <ele>10</ele>
        <time>2018-07-18T13:07:41Z</time>
      </trkpt>
      <trkpt lat="47.77361" lon="-3.60995">
        <ele>10</ele>
        <time>2018-07-18T13:07:42Z</time>
      </trkpt>
      <trkpt lat="47.77359" lon="-3.60991">
        <ele>10</ele>
        <time>2018-07-18T13:07:43Z</time>
      </trkpt>
      <trkpt lat="47.77357" lon="-3.60987">
        <ele>10</ele>
        <time>2018-07-18T13:07:44Z</time>
      </trkpt>
      <trkpt lat="47.77356" lon="-3.60983">
        <ele>9</ele>
        <time>2018-07-18T13:07:45Z</time>
      </trkpt>
      <trkpt lat="47.77355" lon="-3.60979">
        <ele>9</ele>
        <time>2018-07-18T13:07:46Z</time>
      </trkpt>
      <trkpt lat="47.77354" lon="-3.60976">
        <ele>9</ele>
        <time>2018-07-18T13:07:47Z</time>
      </trkpt>
      <trkpt lat="47.77354" lon="-3.60972">
        <ele>8</ele>
        <time>2018-07-18T13:07:48Z</time>
      </trkpt>
      <trkpt lat="47.77353" lon="-3.60969">
        <ele>8</ele>
        <time>2018-07-18T13:07:49Z</time>
      </trkpt>
      <trkpt lat="47.77353" lon="-3.60966">
        <ele>8</ele>
        <time>2018-07-18T13:07:50Z</time>
      </trkpt>
      <trkpt lat="47.77352" lon="-3.60963">
        <ele>8</ele>
        <time>2018-07-18T13:07:51Z</time>
      </trkpt>
      <trkpt lat="47.77351" lon="-3.6096">
        <ele>7</ele>
        <time>2018-07-18T13:07:52Z</time>
      </trkpt>
      <trkpt lat="47.7735" lon="-3.60956">
        <ele>7</ele>
        <time>2018-07-18T13:07:53Z</time>
      </trkpt>
      <trkpt lat="47.77349" lon="-3.60954">
        <ele>7</ele>
        <time>2018-07-18T13:07:54Z</time>
      </trkpt>
      <trkpt lat="47.77348" lon="-3.60952">
        <ele>6</ele>
        <time>2018-07-18T13:07:55Z</time>
      </trkpt>
      <trkpt lat="47.77348" lon="-3.6095">
        <ele>6</ele>
        <time>2018-07-18T13:07:56Z</time>
      </trkpt>
      <trkpt lat="47.77347" lon="-3.60947">
        <ele>6</ele>
        <time>2018-07-18T13:07:57Z</time>
      </trkpt>
      <trkpt lat="47.77346" lon="-3.60944">
        <ele>6</ele>
        <time>2018-07-18T13:07:58Z</time>
      </trkpt>
      <trkpt lat="47.77345" lon="-3.60941">
        <ele>5</ele>
        <time>2018-07-18T13:07:59Z</time>
      </trkpt>
      <trkpt lat="47.77344" lon="-3.60937">
        <ele>5</ele>
        <time>2018-07-18T13:08:00Z</time>
      </trkpt>
      <trkpt lat="47.77343" lon="-3.60933">
        <ele>4</ele>
        <time>2018-07-18T13:08:01Z</time>
      </trkpt>
      <trkpt lat="47.77342" lon="-3.6093">
        <ele>4</ele>
        <time>2018-07-18T13:08:02Z</time>
      </trkpt>
      <trkpt lat="47.77342" lon="-3.60926">
        <ele>4</ele>
        <time>2018-07-18T13:08:03Z</time>
      </trkpt>
      <trkpt lat="47.77341" lon="-3.60922">
        <ele>3</ele>
        <time>2018-07-18T13:08:04Z</time>
      </trkpt>
      <trkpt lat="47.7734" lon="-3.60918">
        <ele>3</ele>
        <time>2018-07-18T13:08:05Z</time>
      </trkpt>
      <trkpt lat="47.7734" lon="-3.60916">
        <ele>3</ele>
        <time>2018-07-18T13:08:06Z</time>
      </trkpt>
      <trkpt lat="47.77341" lon="-3.60914">
        <ele>4</ele>
        <time>2018-07-18T13:08:07Z</time>
      </trkpt>
      <trkpt lat="47.77343" lon="-3.60911">
        <ele>4</ele>
        <time>2018-07-18T13:08:08Z</time>
      </trkpt>
      <trkpt lat="47.77345" lon="-3.60909">
        <ele>4</ele>
        <time>2018-07-18T13:08:09Z</time>
      </trkpt>
      <trkpt lat="47.77346" lon="-3.60906">
        <ele>4</ele>
        <time>2018-07-18T13:08:10Z</time>
      </trkpt>
      <trkpt lat="47.77349" lon="-3.60904">
        <ele>4</ele>
        <time>2018-07-18T13:08:11Z</time>
      </trkpt>
      <trkpt lat="47.77352" lon="-3.60901">
        <ele>4</ele>
        <time>2018-07-18T13:08:12Z</time>
      </trkpt>
      <trkpt lat="47.77354" lon="-3.60899">
        <ele>5</ele>
        <time>2018-07-18T13:08:13Z</time>
      </trkpt>
      <trkpt lat="47.77357" lon="-3.60897">
        <ele>5</ele>
        <time>2018-07-18T13:08:14Z</time>
      </trkpt>
      <trkpt lat="47.7736" lon="-3.60894">
        <ele>5</ele>
        <time>2018-07-18T13:08:15Z</time>
      </trkpt>
      <trkpt lat="47.77362" lon="-3.60892">
        <ele>5</ele>
        <time>2018-07-18T13:08:16Z</time>
      </trkpt>
      <trkpt lat="47.77365" lon="-3.6089">
        <ele>5</ele>
        <time>2018-07-18T13:08:17Z</time>
      </trkpt>
      <trkpt lat="47.77367" lon="-3.60888">
        <ele>5</ele>
        <time>2018-07-18T13:08:18Z</time>
      </trkpt>
      <trkpt lat="47.77371" lon="-3.60885">
        <ele>5</ele>
        <time>2018-07-18T13:08:19Z</time>
      </trkpt>
      <trkpt lat="47.77375" lon="-3.60882">
        <ele>5</ele>
        <time>2018-07-18T13:08:20Z</time>
      </trkpt>
      <trkpt lat="47.77379" lon="-3.60879">
        <ele>5</ele>
        <time>2018-07-18T13:08:21Z</time>
      </trkpt>
      <trkpt lat="47.77382" lon="-3.60877">
        <ele>6</ele>
        <time>2018-07-18T13:08:22Z</time>
      </trkpt>
      <trkpt lat="47.77385" lon="-3.60875">
        <ele>6</ele>
        <time>2018-07-18T13:08:23Z</time>
      </trkpt>
      <trkpt lat="47.77386" lon="-3.60873">
        <ele>6</ele>
        <time>2018-07-18T13:08:24Z</time>
      </trkpt>
      <trkpt lat="47.77388" lon="-3.60872">
        <ele>6</ele>
        <time>2018-07-18T13:08:25Z</time>
      </trkpt>
      <trkpt lat="47.77389" lon="-3.60871">
        <ele>6</ele>
        <time>2018-07-18T13:08:26Z</time>
      </trkpt>
      <trkpt lat="47.77389" lon="-3.60871">
        <ele>6</ele>
        <time>2018-07-18T13:08:27Z</time>
      </trkpt>
      <trkpt lat="47.7739" lon="-3.60869">
        <ele>6</ele>
        <time>2018-07-18T13:08:28Z</time>
      </trkpt>
      <trkpt lat="47.77391" lon="-3.60867">
        <ele>6</ele>
        <time>2018-07-18T13:08:29Z</time>
      </trkpt>
      <trkpt lat="47.77391" lon="-3.60864">
        <ele>6</ele>
        <time>2018-07-18T13:08:30Z</time>
      </trkpt>
      <trkpt lat="47.77393" lon="-3.60862">
        <ele>6</ele>
        <time>2018-07-18T13:08:31Z</time>
      </trkpt>
      <trkpt lat="47.77394" lon="-3.6086">
        <ele>6</ele>
        <time>2018-07-18T13:08:32Z</time>
      </trkpt>
      <trkpt lat="47.77396" lon="-3.60857">
        <ele>6</ele>
        <time>2018-07-18T13:08:33Z</time>
      </trkpt>
      <trkpt lat="47.77398" lon="-3.60854">
        <ele>6</ele>
        <time>2018-07-18T13:08:34Z</time>
      </trkpt>
      <trkpt lat="47.774" lon="-3.60851">
        <ele>6</ele>
        <time>2018-07-18T13:08:35Z</time>
      </trkpt>
      <trkpt lat="47.77403" lon="-3.60848">
        <ele>7</ele>
        <time>2018-07-18T13:08:36Z</time>
      </trkpt>
      <trkpt lat="47.77405" lon="-3.60845">
        <ele>7</ele>
        <time>2018-07-18T13:08:37Z</time>
      </trkpt>
      <trkpt lat="47.77407" lon="-3.60843">
        <ele>7</ele>
        <time>2018-07-18T13:08:38Z</time>
      </trkpt>
      <trkpt lat="47.77408" lon="-3.60842">
        <ele>7</ele>
        <time>2018-07-18T13:08:39Z</time>
      </trkpt>
      <trkpt lat="47.7741" lon="-3.6084">
        <ele>7</ele>
        <time>2018-07-18T13:08:40Z</time>
      </trkpt>
      <trkpt lat="47.77411" lon="-3.60838">
        <ele>7</ele>
        <time>2018-07-18T13:08:41Z</time>
      </trkpt>
      <trkpt lat="47.77413" lon="-3.60835">
        <ele>7</ele>
        <time>2018-07-18T13:08:42Z</time>
      </trkpt>
      <trkpt lat="47.77415" lon="-3.60833">
        <ele>7</ele>
        <time>2018-07-18T13:08:43Z</time>
      </trkpt>
      <trkpt lat="47.77417" lon="-3.60831">
        <ele>7</ele>
        <time>2018-07-18T13:08:44Z</time>
      </trkpt>
      <trkpt lat="47.77418" lon="-3.60829">
        <ele>7</ele>
        <time>2018-07-18T13:08:45Z</time>
      </trkpt>
      <trkpt lat="47.77419" lon="-3.60826">
        <ele>8</ele>
        <time>2018-07-18T13:08:46Z</time>
      </trkpt>
      <trkpt lat="47.7742" lon="-3.60824">
        <ele>8</ele>
        <time>2018-07-18T13:08:47Z</time>
      </trkpt>
      <trkpt lat="47.77421" lon="-3.60822">
        <ele>8</ele>
        <time>2018-07-18T13:08:48Z</time>
      </trkpt>
      <trkpt lat="47.77421" lon="-3.6082">
        <ele>8</ele>
        <time>2018-07-18T13:08:49Z</time>
      </trkpt>
      <trkpt lat="47.77421" lon="-3.60818">
        <ele>9</ele>
        <time>2018-07-18T13:08:50Z</time>
      </trkpt>
      <trkpt lat="47.77421" lon="-3.60818">
        <ele>9</ele>
        <time>2018-07-18T13:08:51Z</time>
      </trkpt>
      <trkpt lat="47.77421" lon="-3.60816">
        <ele>9</ele>
        <time>2018-07-18T13:08:52Z</time>
      </trkpt>
      <trkpt lat="47.77421" lon="-3.60814">
        <ele>9</ele>
        <time>2018-07-18T13:08:53Z</time>
      </trkpt>
      <trkpt lat="47.77422" lon="-3.60812">
        <ele>9</ele>
        <time>2018-07-18T13:08:54Z</time>
      </trkpt>
      <trkpt lat="47.77422" lon="-3.6081">
        <ele>10</ele>
        <time>2018-07-18T13:08:55Z</time>
      </trkpt>
      <trkpt lat="47.77423" lon="-3.60807">
        <ele>10</ele>
        <time>2018-07-18T13:08:56Z</time>
      </trkpt>
      <trkpt lat="47.77424" lon="-3.60803">
        <ele>10</ele>
        <time>2018-07-18T13:08:57Z</time>
      </trkpt>
      <trkpt lat="47.77425" lon="-3.608">
        <ele>10</ele>
        <time>2018-07-18T13:08:58Z</time>
      </trkpt>
      <trkpt lat="47.77426" lon="-3.60796">
        <ele>10</ele>
        <time>2018-07-18T13:08:59Z</time>
      </trkpt>
      <trkpt lat="47.77428" lon="-3.60792">
        <ele>11</ele>
        <time>2018-07-18T13:09:00Z</time>
      </trkpt>
      <trkpt lat="47.77428" lon="-3.60789">
        <ele>11</ele>
        <time>2018-07-18T13:09:01Z</time>
      </trkpt>
      <trkpt lat="47.7743" lon="-3.60786">
        <ele>11</ele>
        <time>2018-07-18T13:09:02Z</time>
      </trkpt>
      <trkpt lat="47.7743" lon="-3.60783">
        <ele>11</ele>
        <time>2018-07-18T13:09:03Z</time>
      </trkpt>
      <trkpt lat="47.77431" lon="-3.60778">
        <ele>11</ele>
        <time>2018-07-18T13:09:04Z</time>
      </trkpt>
      <trkpt lat="47.77432" lon="-3.60775">
        <ele>11</ele>
        <time>2018-07-18T13:09:05Z</time>
      </trkpt>
      <trkpt lat="47.77433" lon="-3.60773">
        <ele>11</ele>
        <time>2018-07-18T13:09:06Z</time>
      </trkpt>
      <trkpt lat="47.77436" lon="-3.60771">
        <ele>11</ele>
        <time>2018-07-18T13:09:07Z</time>
      </trkpt>
      <trkpt lat="47.77438" lon="-3.60771">
        <ele>11</ele>
        <time>2018-07-18T13:09:08Z</time>
      </trkpt>
      <trkpt lat="47.77439" lon="-3.6077">
        <ele>11</ele>
        <time>2018-07-18T13:09:09Z</time>
      </trkpt>
      <trkpt lat="47.77439" lon="-3.60769">
        <ele>11</ele>
        <time>2018-07-18T13:09:10Z</time>
      </trkpt>
      <trkpt lat="47.7744" lon="-3.60767">
        <ele>11</ele>
        <time>2018-07-18T13:09:11Z</time>
      </trkpt>
      <trkpt lat="47.7744" lon="-3.60764">
        <ele>11</ele>
        <time>2018-07-18T13:09:12Z</time>
      </trkpt>
      <trkpt lat="47.7744" lon="-3.6076">
        <ele>11</ele>
        <time>2018-07-18T13:09:13Z</time>
      </trkpt>
      <trkpt lat="47.7744" lon="-3.60756">
        <ele>11</ele>
        <time>2018-07-18T13:09:14Z</time>
      </trkpt>
      <trkpt lat="47.77441" lon="-3.6075">
        <ele>11</ele>
        <time>2018-07-18T13:09:15Z</time>
      </trkpt>
      <trkpt lat="47.77442" lon="-3.60745">
        <ele>11</ele>
        <time>2018-07-18T13:09:16Z</time>
      </trkpt>
      <trkpt lat="47.77443" lon="-3.6074">
        <ele>11</ele>
        <time>2018-07-18T13:09:17Z</time>
      </trkpt>
      <trkpt lat="47.77444" lon="-3.60734">
        <ele>11</ele>
        <time>2018-07-18T13:09:18Z</time>
      </trkpt>
      <trkpt lat="47.77444" lon="-3.60728">
        <ele>11</ele>
        <time>2018-07-18T13:09:19Z</time>
      </trkpt>
      <trkpt lat="47.77445" lon="-3.60723">
        <ele>11</ele>
        <time>2018-07-18T13:09:20Z</time>
      </trkpt>
      <trkpt lat="47.77445" lon="-3.60719">
        <ele>11</ele>
        <time>2018-07-18T13:09:21Z</time>
      </trkpt>
      <trkpt lat="47.77445" lon="-3.60717">
        <ele>11</ele>
        <time>2018-07-18T13:09:22Z</time>
      </trkpt>
      <trkpt lat="47.77445" lon="-3.60716">
        <ele>10</ele>
        <time>2018-07-18T13:09:23Z</time>
      </trkpt>
      <trkpt lat="47.77445" lon="-3.60715">
        <ele>10</ele>
        <time>2018-07-18T13:09:24Z</time>
      </trkpt>
      <trkpt lat="47.77445" lon="-3.60715">
        <ele>10</ele>
        <time>2018-07-18T13:09:25Z</time>
      </trkpt>
      <trkpt lat="47.77446" lon="-3.60714">
        <ele>10</ele>
        <time>2018-07-18T13:09:26Z</time>
      </trkpt>
      <trkpt lat="47.77446" lon="-3.60711">
        <ele>10</ele>
        <time>2018-07-18T13:09:27Z</time>
      </trkpt>
      <trkpt lat="47.77445" lon="-3.6071">
        <ele>10</ele>
        <time>2018-07-18T13:09:28Z</time>
      </trkpt>
      <trkpt lat="47.77445" lon="-3.60709">
        <ele>10</ele>
        <time>2018-07-18T13:09:29Z</time>
      </trkpt>
      <trkpt lat="47.77445" lon="-3.60708">
        <ele>10</ele>
        <time>2018-07-18T13:09:30Z</time>
      </trkpt>
      <trkpt lat="47.77445" lon="-3.60708">
        <ele>10</ele>
        <time>2018-07-18T13:09:31Z</time>
      </trkpt>
      <trkpt lat="47.77445" lon="-3.60705">
        <ele>10</ele>
        <time>2018-07-18T13:09:32Z</time>
      </trkpt>
      <trkpt lat="47.77446" lon="-3.60698">
        <ele>10</ele>
        <time>2018-07-18T13:09:33Z</time>
      </trkpt>
      <trkpt lat="47.77447" lon="-3.60696">
        <ele>10</ele>
        <time>2018-07-18T13:09:34Z</time>
      </trkpt>
      <trkpt lat="47.77448" lon="-3.60693">
        <ele>10</ele>
        <time>2018-07-18T13:09:35Z</time>
      </trkpt>
      <trkpt lat="47.77448" lon="-3.6069">
        <ele>10</ele>
        <time>2018-07-18T13:09:36Z</time>
      </trkpt>
      <trkpt lat="47.77449" lon="-3.60686">
        <ele>10</ele>
        <time>2018-07-18T13:09:37Z</time>
      </trkpt>
      <trkpt lat="47.7745" lon="-3.60682">
        <ele>10</ele>
        <time>2018-07-18T13:09:38Z</time>
      </trkpt>
      <trkpt lat="47.7745" lon="-3.60677">
        <ele>10</ele>
        <time>2018-07-18T13:09:39Z</time>
      </trkpt>
      <trkpt lat="47.77451" lon="-3.60673">
        <ele>9</ele>
        <time>2018-07-18T13:09:40Z</time>
      </trkpt>
      <trkpt lat="47.77451" lon="-3.60669">
        <ele>9</ele>
        <time>2018-07-18T13:09:41Z</time>
      </trkpt>
      <trkpt lat="47.77453" lon="-3.60664">
        <ele>9</ele>
        <time>2018-07-18T13:09:42Z</time>
      </trkpt>
      <trkpt lat="47.77454" lon="-3.60659">
        <ele>9</ele>
        <time>2018-07-18T13:09:43Z</time>
      </trkpt>
      <trkpt lat="47.77455" lon="-3.60655">
        <ele>9</ele>
        <time>2018-07-18T13:09:44Z</time>
      </trkpt>
      <trkpt lat="47.77457" lon="-3.60651">
        <ele>9</ele>
        <time>2018-07-18T13:09:45Z</time>
      </trkpt>
      <trkpt lat="47.77457" lon="-3.60651">
        <ele>9</ele>
        <time>2018-07-18T13:09:46Z</time>
      </trkpt>
      <trkpt lat="47.77461" lon="-3.60644">
        <ele>9</ele>
        <time>2018-07-18T13:09:47Z</time>
      </trkpt>
      <trkpt lat="47.77463" lon="-3.6064">
        <ele>9</ele>
        <time>2018-07-18T13:09:48Z</time>
      </trkpt>
      <trkpt lat="47.77464" lon="-3.60638">
        <ele>10</ele>
        <time>2018-07-18T13:09:49Z</time>
      </trkpt>
      <trkpt lat="47.77466" lon="-3.60636">
        <ele>10</ele>
        <time>2018-07-18T13:09:50Z</time>
      </trkpt>
      <trkpt lat="47.77466" lon="-3.60636">
        <ele>10</ele>
        <time>2018-07-18T13:09:51Z</time>
      </trkpt>
      <trkpt lat="47.77468" lon="-3.60629">
        <ele>10</ele>
        <time>2018-07-18T13:09:52Z</time>
      </trkpt>
      <trkpt lat="47.77469" lon="-3.60625">
        <ele>10</ele>
        <time>2018-07-18T13:09:53Z</time>
      </trkpt>
      <trkpt lat="47.77472" lon="-3.60621">
        <ele>9</ele>
        <time>2018-07-18T13:09:54Z</time>
      </trkpt>
      <trkpt lat="47.77474" lon="-3.60618">
        <ele>9</ele>
        <time>2018-07-18T13:09:55Z</time>
      </trkpt>
      <trkpt lat="47.77474" lon="-3.60618">
        <ele>9</ele>
        <time>2018-07-18T13:09:56Z</time>
      </trkpt>
      <trkpt lat="47.7748" lon="-3.60615">
        <ele>9</ele>
        <time>2018-07-18T13:09:57Z</time>
      </trkpt>
      <trkpt lat="47.77483" lon="-3.60613">
        <ele>9</ele>
        <time>2018-07-18T13:09:58Z</time>
      </trkpt>
      <trkpt lat="47.77485" lon="-3.6061">
        <ele>9</ele>
        <time>2018-07-18T13:09:59Z</time>
      </trkpt>
      <trkpt lat="47.77489" lon="-3.60607">
        <ele>9</ele>
        <time>2018-07-18T13:10:00Z</time>
      </trkpt>
      <trkpt lat="47.77492" lon="-3.60605">
        <ele>9</ele>
        <time>2018-07-18T13:10:01Z</time>
      </trkpt>
      <trkpt lat="47.77495" lon="-3.60604">
        <ele>9</ele>
        <time>2018-07-18T13:10:02Z</time>
      </trkpt>
      <trkpt lat="47.77498" lon="-3.60602">
        <ele>9</ele>
        <time>2018-07-18T13:10:03Z</time>
      </trkpt>
      <trkpt lat="47.77498" lon="-3.60602">
        <ele>9</ele>
        <time>2018-07-18T13:10:04Z</time>
      </trkpt>
      <trkpt lat="47.77503" lon="-3.60597">
        <ele>8</ele>
        <time>2018-07-18T13:10:05Z</time>
      </trkpt>
      <trkpt lat="47.77506" lon="-3.60594">
        <ele>8</ele>
        <time>2018-07-18T13:10:06Z</time>
      </trkpt>
      <trkpt lat="47.77509" lon="-3.60592">
        <ele>8</ele>
        <time>2018-07-18T13:10:07Z</time>
      </trkpt>
      <trkpt lat="47.77512" lon="-3.60589">
        <ele>8</ele>
        <time>2018-07-18T13:10:08Z</time>
      </trkpt>
      <trkpt lat="47.77515" lon="-3.60587">
        <ele>8</ele>
        <time>2018-07-18T13:10:09Z</time>
      </trkpt>
      <trkpt lat="47.77519" lon="-3.60586">
        <ele>8</ele>
        <time>2018-07-18T13:10:10Z</time>
      </trkpt>
      <trkpt lat="47.77522" lon="-3.60584">
        <ele>8</ele>
        <time>2018-07-18T13:10:11Z</time>
      </trkpt>
      <trkpt lat="47.77524" lon="-3.60583">
        <ele>8</ele>
        <time>2018-07-18T13:10:12Z</time>
      </trkpt>
      <trkpt lat="47.77526" lon="-3.60581">
        <ele>8</ele>
        <time>2018-07-18T13:10:13Z</time>
      </trkpt>
      <trkpt lat="47.77529" lon="-3.6058">
        <ele>8</ele>
        <time>2018-07-18T13:10:14Z</time>
      </trkpt>
      <trkpt lat="47.77531" lon="-3.60578">
        <ele>7</ele>
        <time>2018-07-18T13:10:15Z</time>
      </trkpt>
      <trkpt lat="47.77534" lon="-3.60576">
        <ele>7</ele>
        <time>2018-07-18T13:10:16Z</time>
      </trkpt>
      <trkpt lat="47.77534" lon="-3.60576">
        <ele>7</ele>
        <time>2018-07-18T13:10:17Z</time>
      </trkpt>
      <trkpt lat="47.77538" lon="-3.60574">
        <ele>7</ele>
        <time>2018-07-18T13:10:18Z</time>
      </trkpt>
      <trkpt lat="47.77545" lon="-3.60574">
        <ele>7</ele>
        <time>2018-07-18T13:10:19Z</time>
      </trkpt>
      <trkpt lat="47.77546" lon="-3.60575">
        <ele>7</ele>
        <time>2018-07-18T13:10:20Z</time>
      </trkpt>
      <trkpt lat="47.77548" lon="-3.60575">
        <ele>7</ele>
        <time>2018-07-18T13:10:21Z</time>
      </trkpt>
      <trkpt lat="47.77548" lon="-3.60575">
        <ele>7</ele>
        <time>2018-07-18T13:10:22Z</time>
      </trkpt>
      <trkpt lat="47.77549" lon="-3.60574">
        <ele>7</ele>
        <time>2018-07-18T13:10:23Z</time>
      </trkpt>
      <trkpt lat="47.77554" lon="-3.60572">
        <ele>7</ele>
        <time>2018-07-18T13:10:24Z</time>
      </trkpt>
      <trkpt lat="47.77556" lon="-3.60571">
        <ele>7</ele>
        <time>2018-07-18T13:10:25Z</time>
      </trkpt>
      <trkpt lat="47.77558" lon="-3.60571">
        <ele>7</ele>
        <time>2018-07-18T13:10:26Z</time>
      </trkpt>
      <trkpt lat="47.7756" lon="-3.60572">
        <ele>7</ele>
        <time>2018-07-18T13:10:27Z</time>
      </trkpt>
      <trkpt lat="47.77562" lon="-3.60573">
        <ele>7</ele>
        <time>2018-07-18T13:10:28Z</time>
      </trkpt>
      <trkpt lat="47.77564" lon="-3.60574">
        <ele>7</ele>
        <time>2018-07-18T13:10:29Z</time>
      </trkpt>
      <trkpt lat="47.77566" lon="-3.60575">
        <ele>7</ele>
        <time>2018-07-18T13:10:30Z</time>
      </trkpt>
      <trkpt lat="47.77568" lon="-3.60576">
        <ele>7</ele>
        <time>2018-07-18T13:10:31Z</time>
      </trkpt>
      <trkpt lat="47.77569" lon="-3.60576">
        <ele>7</ele>
        <time>2018-07-18T13:10:32Z</time>
      </trkpt>
      <trkpt lat="47.77571" lon="-3.60577">
        <ele>7</ele>
        <time>2018-07-18T13:10:33Z</time>
      </trkpt>
      <trkpt lat="47.77573" lon="-3.60579">
        <ele>7</ele>
        <time>2018-07-18T13:10:34Z</time>
      </trkpt>
      <trkpt lat="47.77575" lon="-3.6058">
        <ele>7</ele>
        <time>2018-07-18T13:10:35Z</time>
      </trkpt>
      <trkpt lat="47.77576" lon="-3.60581">
        <ele>7</ele>
        <time>2018-07-18T13:10:36Z</time>
      </trkpt>
      <trkpt lat="47.77576" lon="-3.60581">
        <ele>7</ele>
        <time>2018-07-18T13:10:37Z</time>
      </trkpt>
      <trkpt lat="47.77579" lon="-3.60583">
        <ele>7</ele>
        <time>2018-07-18T13:10:38Z</time>
      </trkpt>
      <trkpt lat="47.77581" lon="-3.60585">
        <ele>6</ele>
        <time>2018-07-18T13:10:39Z</time>
      </trkpt>
      <trkpt lat="47.77583" lon="-3.60588">
        <ele>6</ele>
        <time>2018-07-18T13:10:40Z</time>
      </trkpt>
      <trkpt lat="47.77586" lon="-3.60592">
        <ele>6</ele>
        <time>2018-07-18T13:10:41Z</time>
      </trkpt>
      <trkpt lat="47.77586" lon="-3.60592">
        <ele>6</ele>
        <time>2018-07-18T13:10:42Z</time>
      </trkpt>
      <trkpt lat="47.7759" lon="-3.60595">
        <ele>6</ele>
        <time>2018-07-18T13:10:43Z</time>
      </trkpt>
      <trkpt lat="47.77592" lon="-3.60596">
        <ele>6</ele>
        <time>2018-07-18T13:10:44Z</time>
      </trkpt>
      <trkpt lat="47.77593" lon="-3.60597">
        <ele>6</ele>
        <time>2018-07-18T13:10:45Z</time>
      </trkpt>
      <trkpt lat="47.77594" lon="-3.60597">
        <ele>6</ele>
        <time>2018-07-18T13:10:46Z</time>
      </trkpt>
      <trkpt lat="47.77594" lon="-3.60597">
        <ele>6</ele>
        <time>2018-07-18T13:10:47Z</time>
      </trkpt>
      <trkpt lat="47.77595" lon="-3.60597">
        <ele>6</ele>
        <time>2018-07-18T13:10:48Z</time>
      </trkpt>
      <trkpt lat="47.77596" lon="-3.60596">
        <ele>6</ele>
        <time>2018-07-18T13:10:49Z</time>
      </trkpt>
      <trkpt lat="47.77598" lon="-3.60595">
        <ele>6</ele>
        <time>2018-07-18T13:10:50Z</time>
      </trkpt>
      <trkpt lat="47.77599" lon="-3.60593">
        <ele>6</ele>
        <time>2018-07-18T13:10:51Z</time>
      </trkpt>
      <trkpt lat="47.776" lon="-3.60591">
        <ele>6</ele>
        <time>2018-07-18T13:10:52Z</time>
      </trkpt>
      <trkpt lat="47.77601" lon="-3.60589">
        <ele>6</ele>
        <time>2018-07-18T13:10:53Z</time>
      </trkpt>
      <trkpt lat="47.77602" lon="-3.60587">
        <ele>6</ele>
        <time>2018-07-18T13:10:54Z</time>
      </trkpt>
      <trkpt lat="47.77604" lon="-3.60585">
        <ele>6</ele>
        <time>2018-07-18T13:10:55Z</time>
      </trkpt>
      <trkpt lat="47.77604" lon="-3.60585">
        <ele>6</ele>
        <time>2018-07-18T13:10:56Z</time>
      </trkpt>
      <trkpt lat="47.77607" lon="-3.60579">
        <ele>7</ele>
        <time>2018-07-18T13:10:57Z</time>
      </trkpt>
      <trkpt lat="47.77609" lon="-3.60577">
        <ele>7</ele>
        <time>2018-07-18T13:10:58Z</time>
      </trkpt>
      <trkpt lat="47.77611" lon="-3.60576">
        <ele>7</ele>
        <time>2018-07-18T13:10:59Z</time>
      </trkpt>
      <trkpt lat="47.77613" lon="-3.60574">
        <ele>7</ele>
        <time>2018-07-18T13:11:00Z</time>
      </trkpt>
      <trkpt lat="47.77616" lon="-3.60573">
        <ele>7</ele>
        <time>2018-07-18T13:11:01Z</time>
      </trkpt>
      <trkpt lat="47.77618" lon="-3.60571">
        <ele>7</ele>
        <time>2018-07-18T13:11:02Z</time>
      </trkpt>
      <trkpt lat="47.77621" lon="-3.6057">
        <ele>7</ele>
        <time>2018-07-18T13:11:03Z</time>
      </trkpt>
      <trkpt lat="47.77624" lon="-3.60569">
        <ele>7</ele>
        <time>2018-07-18T13:11:04Z</time>
      </trkpt>
      <trkpt lat="47.77627" lon="-3.60568">
        <ele>7</ele>
        <time>2018-07-18T13:11:05Z</time>
      </trkpt>
      <trkpt lat="47.7763" lon="-3.60567">
        <ele>6</ele>
        <time>2018-07-18T13:11:06Z</time>
      </trkpt>
      <trkpt lat="47.77634" lon="-3.60567">
        <ele>6</ele>
        <time>2018-07-18T13:11:07Z</time>
      </trkpt>
      <trkpt lat="47.77634" lon="-3.60567">
        <ele>6</ele>
        <time>2018-07-18T13:11:08Z</time>
      </trkpt>
      <trkpt lat="47.77637" lon="-3.60567">
        <ele>6</ele>
        <time>2018-07-18T13:11:09Z</time>
      </trkpt>
      <trkpt lat="47.77642" lon="-3.6057">
        <ele>6</ele>
        <time>2018-07-18T13:11:10Z</time>
      </trkpt>
      <trkpt lat="47.77644" lon="-3.60573">
        <ele>6</ele>
        <time>2018-07-18T13:11:11Z</time>
      </trkpt>
      <trkpt lat="47.77644" lon="-3.60573">
        <ele>6</ele>
        <time>2018-07-18T13:11:12Z</time>
      </trkpt>
      <trkpt lat="47.77647" lon="-3.60575">
        <ele>6</ele>
        <time>2018-07-18T13:11:13Z</time>
      </trkpt>
      <trkpt lat="47.77652" lon="-3.6058">
        <ele>6</ele>
        <time>2018-07-18T13:11:14Z</time>
      </trkpt>
      <trkpt lat="47.77654" lon="-3.60582">
        <ele>6</ele>
        <time>2018-07-18T13:11:15Z</time>
      </trkpt>
      <trkpt lat="47.77656" lon="-3.60584">
        <ele>6</ele>
        <time>2018-07-18T13:11:16Z</time>
      </trkpt>
      <trkpt lat="47.77659" lon="-3.60586">
        <ele>6</ele>
        <time>2018-07-18T13:11:17Z</time>
      </trkpt>
      <trkpt lat="47.77661" lon="-3.60587">
        <ele>6</ele>
        <time>2018-07-18T13:11:18Z</time>
      </trkpt>
      <trkpt lat="47.77663" lon="-3.60589">
        <ele>6</ele>
        <time>2018-07-18T13:11:19Z</time>
      </trkpt>
      <trkpt lat="47.77665" lon="-3.60588">
        <ele>6</ele>
        <time>2018-07-18T13:11:20Z</time>
      </trkpt>
      <trkpt lat="47.77668" lon="-3.60586">
        <ele>7</ele>
        <time>2018-07-18T13:11:21Z</time>
      </trkpt>
      <trkpt lat="47.7767" lon="-3.60583">
        <ele>7</ele>
        <time>2018-07-18T13:11:22Z</time>
      </trkpt>
      <trkpt lat="47.77672" lon="-3.60578">
        <ele>7</ele>
        <time>2018-07-18T13:11:23Z</time>
      </trkpt>
      <trkpt lat="47.77674" lon="-3.60575">
        <ele>7</ele>
        <time>2018-07-18T13:11:24Z</time>
      </trkpt>
      <trkpt lat="47.77675" lon="-3.60573">
        <ele>7</ele>
        <time>2018-07-18T13:11:25Z</time>
      </trkpt>
      <trkpt lat="47.77676" lon="-3.60571">
        <ele>7</ele>
        <time>2018-07-18T13:11:26Z</time>
      </trkpt>
      <trkpt lat="47.77676" lon="-3.60571">
        <ele>7</ele>
        <time>2018-07-18T13:11:27Z</time>
      </trkpt>
      <trkpt lat="47.7768" lon="-3.60566">
        <ele>8</ele>
        <time>2018-07-18T13:11:28Z</time>
      </trkpt>
      <trkpt lat="47.77683" lon="-3.60563">
        <ele>8</ele>
        <time>2018-07-18T13:11:29Z</time>
      </trkpt>
      <trkpt lat="47.77684" lon="-3.6056">
        <ele>8</ele>
        <time>2018-07-18T13:11:30Z</time>
      </trkpt>
      <trkpt lat="47.77686" lon="-3.60558">
        <ele>8</ele>
        <time>2018-07-18T13:11:31Z</time>
      </trkpt>
      <trkpt lat="47.77688" lon="-3.60556">
        <ele>8</ele>
        <time>2018-07-18T13:11:32Z</time>
      </trkpt>
      <trkpt lat="47.77688" lon="-3.60556">
        <ele>8</ele>
        <time>2018-07-18T13:11:33Z</time>
      </trkpt>
      <trkpt lat="47.77695" lon="-3.60551">
        <ele>8</ele>
        <time>2018-07-18T13:11:34Z</time>
      </trkpt>
      <trkpt lat="47.77698" lon="-3.60549">
        <ele>8</ele>
        <time>2018-07-18T13:11:35Z</time>
      </trkpt>
      <trkpt lat="47.777" lon="-3.60548">
        <ele>8</ele>
        <time>2018-07-18T13:11:36Z</time>
      </trkpt>
      <trkpt lat="47.77704" lon="-3.60548">
        <ele>7</ele>
        <time>2018-07-18T13:11:37Z</time>
      </trkpt>
      <trkpt lat="47.77707" lon="-3.60547">
        <ele>7</ele>
        <time>2018-07-18T13:11:38Z</time>
      </trkpt>
      <trkpt lat="47.77707" lon="-3.60547">
        <ele>7</ele>
        <time>2018-07-18T13:11:39Z</time>
      </trkpt>
      <trkpt lat="47.77713" lon="-3.60545">
        <ele>7</ele>
        <time>2018-07-18T13:11:40Z</time>
      </trkpt>
      <trkpt lat="47.77715" lon="-3.60543">
        <ele>7</ele>
        <time>2018-07-18T13:11:41Z</time>
      </trkpt>
      <trkpt lat="47.77717" lon="-3.6054">
        <ele>7</ele>
        <time>2018-07-18T13:11:42Z</time>
      </trkpt>
      <trkpt lat="47.77719" lon="-3.60538">
        <ele>7</ele>
        <time>2018-07-18T13:11:43Z</time>
      </trkpt>
      <trkpt lat="47.7772" lon="-3.60533">
        <ele>7</ele>
        <time>2018-07-18T13:11:44Z</time>
      </trkpt>
      <trkpt lat="47.77722" lon="-3.60526">
        <ele>7</ele>
        <time>2018-07-18T13:11:45Z</time>
      </trkpt>
      <trkpt lat="47.77723" lon="-3.60519">
        <ele>6</ele>
        <time>2018-07-18T13:11:46Z</time>
      </trkpt>
      <trkpt lat="47.77723" lon="-3.60519">
        <ele>6</ele>
        <time>2018-07-18T13:11:47Z</time>
      </trkpt>
      <trkpt lat="47.77727" lon="-3.60505">
        <ele>6</ele>
        <time>2018-07-18T13:11:48Z</time>
      </trkpt>
      <trkpt lat="47.77729" lon="-3.60497">
        <ele>6</ele>
        <time>2018-07-18T13:11:49Z</time>
      </trkpt>
      <trkpt lat="47.7773" lon="-3.60491">
        <ele>6</ele>
        <time>2018-07-18T13:11:50Z</time>
      </trkpt>
      <trkpt lat="47.77732" lon="-3.60485">
        <ele>6</ele>
        <time>2018-07-18T13:11:51Z</time>
      </trkpt>
      <trkpt lat="47.77733" lon="-3.6048">
        <ele>6</ele>
        <time>2018-07-18T13:11:52Z</time>
      </trkpt>
      <trkpt lat="47.77734" lon="-3.60475">
        <ele>6</ele>
        <time>2018-07-18T13:11:53Z</time>
      </trkpt>
      <trkpt lat="47.77736" lon="-3.6047">
        <ele>6</ele>
        <time>2018-07-18T13:11:54Z</time>
      </trkpt>
      <trkpt lat="47.77738" lon="-3.60466">
        <ele>6</ele>
        <time>2018-07-18T13:11:55Z</time>
      </trkpt>
      <trkpt lat="47.77739" lon="-3.60462">
        <ele>6</ele>
        <time>2018-07-18T13:11:56Z</time>
      </trkpt>
      <trkpt lat="47.77741" lon="-3.60458">
        <ele>6</ele>
        <time>2018-07-18T13:11:57Z</time>
      </trkpt>
      <trkpt lat="47.7774" lon="-3.60455">
        <ele>6</ele>
        <time>2018-07-18T13:11:58Z</time>
      </trkpt>
      <trkpt lat="47.7774" lon="-3.60455">
        <ele>6</ele>
        <time>2018-07-18T13:11:59Z</time>
      </trkpt>
      <trkpt lat="47.77738" lon="-3.60453">
        <ele>5</ele>
        <time>2018-07-18T13:12:00Z</time>
      </trkpt>
      <trkpt lat="47.77732" lon="-3.60447">
        <ele>5</ele>
        <time>2018-07-18T13:12:01Z</time>
      </trkpt>
      <trkpt lat="47.77729" lon="-3.60444">
        <ele>5</ele>
        <time>2018-07-18T13:12:02Z</time>
      </trkpt>
      <trkpt lat="47.77729" lon="-3.60444">
        <ele>5</ele>
        <time>2018-07-18T13:12:03Z</time>
      </trkpt>
      <trkpt lat="47.77726" lon="-3.60441">
        <ele>5</ele>
        <time>2018-07-18T13:12:04Z</time>
      </trkpt>
      <trkpt lat="47.77719" lon="-3.60435">
        <ele>5</ele>
        <time>2018-07-18T13:12:05Z</time>
      </trkpt>
      <trkpt lat="47.77716" lon="-3.60433">
        <ele>4</ele>
        <time>2018-07-18T13:12:06Z</time>
      </trkpt>
      <trkpt lat="47.77713" lon="-3.6043">
        <ele>4</ele>
        <time>2018-07-18T13:12:07Z</time>
      </trkpt>
      <trkpt lat="47.77709" lon="-3.60427">
        <ele>4</ele>
        <time>2018-07-18T13:12:08Z</time>
      </trkpt>
      <trkpt lat="47.77705" lon="-3.60425">
        <ele>4</ele>
        <time>2018-07-18T13:12:09Z</time>
      </trkpt>
      <trkpt lat="47.77701" lon="-3.60422">
        <ele>4</ele>
        <time>2018-07-18T13:12:10Z</time>
      </trkpt>
      <trkpt lat="47.77698" lon="-3.60419">
        <ele>4</ele>
        <time>2018-07-18T13:12:11Z</time>
      </trkpt>
      <trkpt lat="47.77694" lon="-3.60416">
        <ele>4</ele>
        <time>2018-07-18T13:12:12Z</time>
      </trkpt>
      <trkpt lat="47.7769" lon="-3.60413">
        <ele>4</ele>
        <time>2018-07-18T13:12:13Z</time>
      </trkpt>
      <trkpt lat="47.77687" lon="-3.60411">
        <ele>4</ele>
        <time>2018-07-18T13:12:14Z</time>
      </trkpt>
      <trkpt lat="47.77683" lon="-3.60408">
        <ele>4</ele>
        <time>2018-07-18T13:12:15Z</time>
      </trkpt>
      <trkpt lat="47.77679" lon="-3.60405">
        <ele>4</ele>
        <time>2018-07-18T13:12:16Z</time>
      </trkpt>
      <trkpt lat="47.77676" lon="-3.60402">
        <ele>4</ele>
        <time>2018-07-18T13:12:17Z</time>
      </trkpt>
      <trkpt lat="47.77676" lon="-3.60402">
        <ele>4</ele>
        <time>2018-07-18T13:12:18Z</time>
      </trkpt>
      <trkpt lat="47.77669" lon="-3.60396">
        <ele>4</ele>
        <time>2018-07-18T13:12:19Z</time>
      </trkpt>
      <trkpt lat="47.77665" lon="-3.60394">
        <ele>4</ele>
        <time>2018-07-18T13:12:20Z</time>
      </trkpt>
      <trkpt lat="47.77662" lon="-3.60391">
        <ele>4</ele>
        <time>2018-07-18T13:12:21Z</time>
      </trkpt>
      <trkpt lat="47.77659" lon="-3.60389">
        <ele>5</ele>
        <time>2018-07-18T13:12:22Z</time>
      </trkpt>
      <trkpt lat="47.77656" lon="-3.60386">
        <ele>5</ele>
        <time>2018-07-18T13:12:23Z</time>
      </trkpt>
      <trkpt lat="47.77656" lon="-3.60386">
        <ele>5</ele>
        <time>2018-07-18T13:12:24Z</time>
      </trkpt>
      <trkpt lat="47.77651" lon="-3.6038">
        <ele>5</ele>
        <time>2018-07-18T13:12:25Z</time>
      </trkpt>
      <trkpt lat="47.77649" lon="-3.60378">
        <ele>6</ele>
        <time>2018-07-18T13:12:26Z</time>
      </trkpt>
      <trkpt lat="47.77647" lon="-3.60377">
        <ele>6</ele>
        <time>2018-07-18T13:12:27Z</time>
      </trkpt>
      <trkpt lat="47.77645" lon="-3.60377">
        <ele>6</ele>
        <time>2018-07-18T13:12:28Z</time>
      </trkpt>
      <trkpt lat="47.77644" lon="-3.60378">
        <ele>6</ele>
        <time>2018-07-18T13:12:29Z</time>
      </trkpt>
      <trkpt lat="47.77642" lon="-3.60379">
        <ele>6</ele>
        <time>2018-07-18T13:12:30Z</time>
      </trkpt>
      <trkpt lat="47.77642" lon="-3.60379">
        <ele>6</ele>
        <time>2018-07-18T13:12:31Z</time>
      </trkpt>
      <trkpt lat="47.7764" lon="-3.60379">
        <ele>6</ele>
        <time>2018-07-18T13:12:32Z</time>
      </trkpt>
      <trkpt lat="47.7764" lon="-3.60379">
        <ele>6</ele>
        <time>2018-07-18T13:12:33Z</time>
      </trkpt>
      <trkpt lat="47.7764" lon="-3.60379">
        <ele>6</ele>
        <time>2018-07-18T13:12:34Z</time>
      </trkpt>
      <trkpt lat="47.7764" lon="-3.60379">
        <ele>6</ele>
        <time>2018-07-18T13:12:35Z</time>
      </trkpt>
      <trkpt lat="47.77638" lon="-3.60378">
        <ele>6</ele>
        <time>2018-07-18T13:12:36Z</time>
      </trkpt>
      <trkpt lat="47.77637" lon="-3.60377">
        <ele>6</ele>
        <time>2018-07-18T13:12:37Z</time>
      </trkpt>
      <trkpt lat="47.77635" lon="-3.60375">
        <ele>7</ele>
        <time>2018-07-18T13:12:38Z</time>
      </trkpt>
      <trkpt lat="47.77634" lon="-3.60375">
        <ele>7</ele>
        <time>2018-07-18T13:12:39Z</time>
      </trkpt>
      <trkpt lat="47.77631" lon="-3.60375">
        <ele>7</ele>
        <time>2018-07-18T13:12:40Z</time>
      </trkpt>
      <trkpt lat="47.77628" lon="-3.60375">
        <ele>7</ele>
        <time>2018-07-18T13:12:41Z</time>
      </trkpt>
      <trkpt lat="47.77626" lon="-3.60374">
        <ele>7</ele>
        <time>2018-07-18T13:12:42Z</time>
      </trkpt>
      <trkpt lat="47.77622" lon="-3.60373">
        <ele>7</ele>
        <time>2018-07-18T13:12:43Z</time>
      </trkpt>
      <trkpt lat="47.77619" lon="-3.60373">
        <ele>7</ele>
        <time>2018-07-18T13:12:44Z</time>
      </trkpt>
      <trkpt lat="47.77616" lon="-3.60373">
        <ele>7</ele>
        <time>2018-07-18T13:12:45Z</time>
      </trkpt>
      <trkpt lat="47.77612" lon="-3.60373">
        <ele>7</ele>
        <time>2018-07-18T13:12:46Z</time>
      </trkpt>
      <trkpt lat="47.77608" lon="-3.60372">
        <ele>7</ele>
        <time>2018-07-18T13:12:47Z</time>
      </trkpt>
      <trkpt lat="47.77604" lon="-3.60372">
        <ele>7</ele>
        <time>2018-07-18T13:12:48Z</time>
      </trkpt>
      <trkpt lat="47.776" lon="-3.60373">
        <ele>7</ele>
        <time>2018-07-18T13:12:49Z</time>
      </trkpt>
      <trkpt lat="47.77596" lon="-3.60373">
        <ele>7</ele>
        <time>2018-07-18T13:12:50Z</time>
      </trkpt>
      <trkpt lat="47.77592" lon="-3.60373">
        <ele>7</ele>
        <time>2018-07-18T13:12:51Z</time>
      </trkpt>
      <trkpt lat="47.77588" lon="-3.60374">
        <ele>7</ele>
        <time>2018-07-18T13:12:52Z</time>
      </trkpt>
      <trkpt lat="47.77584" lon="-3.60374">
        <ele>7</ele>
        <time>2018-07-18T13:12:53Z</time>
      </trkpt>
      <trkpt lat="47.7758" lon="-3.60375">
        <ele>7</ele>
        <time>2018-07-18T13:12:54Z</time>
      </trkpt>
      <trkpt lat="47.77577" lon="-3.60376">
        <ele>7</ele>
        <time>2018-07-18T13:12:55Z</time>
      </trkpt>
      <trkpt lat="47.77574" lon="-3.60378">
        <ele>7</ele>
        <time>2018-07-18T13:12:56Z</time>
      </trkpt>
      <trkpt lat="47.77571" lon="-3.6038">
        <ele>7</ele>
        <time>2018-07-18T13:12:57Z</time>
      </trkpt>
      <trkpt lat="47.77569" lon="-3.60381">
        <ele>7</ele>
        <time>2018-07-18T13:12:58Z</time>
      </trkpt>
      <trkpt lat="47.77565" lon="-3.60383">
        <ele>7</ele>
        <time>2018-07-18T13:12:59Z</time>
      </trkpt>
      <trkpt lat="47.77562" lon="-3.60385">
        <ele>7</ele>
        <time>2018-07-18T13:13:00Z</time>
      </trkpt>
      <trkpt lat="47.77559" lon="-3.60388">
        <ele>7</ele>
        <time>2018-07-18T13:13:01Z</time>
      </trkpt>
      <trkpt lat="47.77556" lon="-3.60392">
        <ele>7</ele>
        <time>2018-07-18T13:13:02Z</time>
      </trkpt>
      <trkpt lat="47.77553" lon="-3.60396">
        <ele>7</ele>
        <time>2018-07-18T13:13:03Z</time>
      </trkpt>
      <trkpt lat="47.77551" lon="-3.604">
        <ele>7</ele>
        <time>2018-07-18T13:13:04Z</time>
      </trkpt>
      <trkpt lat="47.77548" lon="-3.60405">
        <ele>7</ele>
        <time>2018-07-18T13:13:05Z</time>
      </trkpt>
      <trkpt lat="47.77546" lon="-3.60409">
        <ele>7</ele>
        <time>2018-07-18T13:13:06Z</time>
      </trkpt>
      <trkpt lat="47.77543" lon="-3.60414">
        <ele>7</ele>
        <time>2018-07-18T13:13:07Z</time>
      </trkpt>
      <trkpt lat="47.77541" lon="-3.60419">
        <ele>8</ele>
        <time>2018-07-18T13:13:08Z</time>
      </trkpt>
      <trkpt lat="47.77539" lon="-3.60424">
        <ele>8</ele>
        <time>2018-07-18T13:13:09Z</time>
      </trkpt>
      <trkpt lat="47.77536" lon="-3.60429">
        <ele>8</ele>
        <time>2018-07-18T13:13:10Z</time>
      </trkpt>
      <trkpt lat="47.77533" lon="-3.60434">
        <ele>8</ele>
        <time>2018-07-18T13:13:11Z</time>
      </trkpt>
      <trkpt lat="47.7753" lon="-3.60439">
        <ele>8</ele>
        <time>2018-07-18T13:13:12Z</time>
      </trkpt>
      <trkpt lat="47.77526" lon="-3.60443">
        <ele>8</ele>
        <time>2018-07-18T13:13:13Z</time>
      </trkpt>
      <trkpt lat="47.77522" lon="-3.60448">
        <ele>8</ele>
        <time>2018-07-18T13:13:14Z</time>
      </trkpt>
      <trkpt lat="47.77517" lon="-3.60452">
        <ele>8</ele>
        <time>2018-07-18T13:13:15Z</time>
      </trkpt>
      <trkpt lat="47.77513" lon="-3.60457">
        <ele>7</ele>
        <time>2018-07-18T13:13:16Z</time>
      </trkpt>
      <trkpt lat="47.77507" lon="-3.6046">
        <ele>7</ele>
        <time>2018-07-18T13:13:17Z</time>
      </trkpt>
      <trkpt lat="47.77502" lon="-3.60464">
        <ele>7</ele>
        <time>2018-07-18T13:13:18Z</time>
      </trkpt>
      <trkpt lat="47.77497" lon="-3.60467">
        <ele>6</ele>
        <time>2018-07-18T13:13:19Z</time>
      </trkpt>
      <trkpt lat="47.77492" lon="-3.60471">
        <ele>6</ele>
        <time>2018-07-18T13:13:20Z</time>
      </trkpt>
      <trkpt lat="47.77487" lon="-3.60473">
        <ele>6</ele>
        <time>2018-07-18T13:13:21Z</time>
      </trkpt>
      <trkpt lat="47.77481" lon="-3.60475">
        <ele>6</ele>
        <time>2018-07-18T13:13:22Z</time>
      </trkpt>
      <trkpt lat="47.77476" lon="-3.60477">
        <ele>5</ele>
        <time>2018-07-18T13:13:23Z</time>
      </trkpt>
      <trkpt lat="47.77471" lon="-3.60478">
        <ele>5</ele>
        <time>2018-07-18T13:13:24Z</time>
      </trkpt>
      <trkpt lat="47.77467" lon="-3.6048">
        <ele>5</ele>
        <time>2018-07-18T13:13:25Z</time>
      </trkpt>
      <trkpt lat="47.77462" lon="-3.60481">
        <ele>5</ele>
        <time>2018-07-18T13:13:26Z</time>
      </trkpt>
      <trkpt lat="47.77458" lon="-3.60483">
        <ele>5</ele>
        <time>2018-07-18T13:13:27Z</time>
      </trkpt>
      <trkpt lat="47.77454" lon="-3.60484">
        <ele>5</ele>
        <time>2018-07-18T13:13:28Z</time>
      </trkpt>
      <trkpt lat="47.7745" lon="-3.60486">
        <ele>5</ele>
        <time>2018-07-18T13:13:29Z</time>
      </trkpt>
      <trkpt lat="47.77447" lon="-3.60488">
        <ele>5</ele>
        <time>2018-07-18T13:13:30Z</time>
      </trkpt>
      <trkpt lat="47.77444" lon="-3.60491">
        <ele>5</ele>
        <time>2018-07-18T13:13:31Z</time>
      </trkpt>
      <trkpt lat="47.77442" lon="-3.60494">
        <ele>5</ele>
        <time>2018-07-18T13:13:32Z</time>
      </trkpt>
      <trkpt lat="47.7744" lon="-3.60496">
        <ele>4</ele>
        <time>2018-07-18T13:13:33Z</time>
      </trkpt>
      <trkpt lat="47.77438" lon="-3.60498">
        <ele>4</ele>
        <time>2018-07-18T13:13:34Z</time>
      </trkpt>
      <trkpt lat="47.77437" lon="-3.60501">
        <ele>4</ele>
        <time>2018-07-18T13:13:35Z</time>
      </trkpt>
      <trkpt lat="47.77435" lon="-3.60504">
        <ele>5</ele>
        <time>2018-07-18T13:13:36Z</time>
      </trkpt>
      <trkpt lat="47.77433" lon="-3.60508">
        <ele>5</ele>
        <time>2018-07-18T13:13:37Z</time>
      </trkpt>
      <trkpt lat="47.77431" lon="-3.60513">
        <ele>5</ele>
        <time>2018-07-18T13:13:38Z</time>
      </trkpt>
      <trkpt lat="47.7743" lon="-3.60517">
        <ele>5</ele>
        <time>2018-07-18T13:13:39Z</time>
      </trkpt>
      <trkpt lat="47.77428" lon="-3.60523">
        <ele>5</ele>
        <time>2018-07-18T13:13:40Z</time>
      </trkpt>
      <trkpt lat="47.77427" lon="-3.60528">
        <ele>5</ele>
        <time>2018-07-18T13:13:41Z</time>
      </trkpt>
      <trkpt lat="47.77425" lon="-3.60534">
        <ele>5</ele>
        <time>2018-07-18T13:13:42Z</time>
      </trkpt>
      <trkpt lat="47.77424" lon="-3.60539">
        <ele>5</ele>
        <time>2018-07-18T13:13:43Z</time>
      </trkpt>
      <trkpt lat="47.77422" lon="-3.60545">
        <ele>5</ele>
        <time>2018-07-18T13:13:44Z</time>
      </trkpt>
      <trkpt lat="47.77421" lon="-3.6055">
        <ele>5</ele>
        <time>2018-07-18T13:13:45Z</time>
      </trkpt>
      <trkpt lat="47.77419" lon="-3.60556">
        <ele>5</ele>
        <time>2018-07-18T13:13:46Z</time>
      </trkpt>
      <trkpt lat="47.77417" lon="-3.60561">
        <ele>5</ele>
        <time>2018-07-18T13:13:47Z</time>
      </trkpt>
      <trkpt lat="47.77415" lon="-3.60567">
        <ele>5</ele>
        <time>2018-07-18T13:13:48Z</time>
      </trkpt>
      <trkpt lat="47.77412" lon="-3.60573">
        <ele>5</ele>
        <time>2018-07-18T13:13:49Z</time>
      </trkpt>
      <trkpt lat="47.7741" lon="-3.60578">
        <ele>5</ele>
        <time>2018-07-18T13:13:50Z</time>
      </trkpt>
      <trkpt lat="47.77408" lon="-3.60584">
        <ele>5</ele>
        <time>2018-07-18T13:13:51Z</time>
      </trkpt>
      <trkpt lat="47.77405" lon="-3.6059">
        <ele>5</ele>
        <time>2018-07-18T13:13:52Z</time>
      </trkpt>
      <trkpt lat="47.77403" lon="-3.60596">
        <ele>5</ele>
        <time>2018-07-18T13:13:53Z</time>
      </trkpt>
      <trkpt lat="47.77401" lon="-3.60601">
        <ele>5</ele>
        <time>2018-07-18T13:13:54Z</time>
      </trkpt>
      <trkpt lat="47.77399" lon="-3.60607">
        <ele>5</ele>
        <time>2018-07-18T13:13:55Z</time>
      </trkpt>
      <trkpt lat="47.77397" lon="-3.60613">
        <ele>6</ele>
        <time>2018-07-18T13:13:56Z</time>
      </trkpt>
      <trkpt lat="47.77395" lon="-3.60619">
        <ele>6</ele>
        <time>2018-07-18T13:13:57Z</time>
      </trkpt>
      <trkpt lat="47.77394" lon="-3.60626">
        <ele>6</ele>
        <time>2018-07-18T13:13:58Z</time>
      </trkpt>
      <trkpt lat="47.77392" lon="-3.60632">
        <ele>6</ele>
        <time>2018-07-18T13:13:59Z</time>
      </trkpt>
      <trkpt lat="47.77391" lon="-3.60639">
        <ele>6</ele>
        <time>2018-07-18T13:14:00Z</time>
      </trkpt>
      <trkpt lat="47.77389" lon="-3.60646">
        <ele>6</ele>
        <time>2018-07-18T13:14:01Z</time>
      </trkpt>
      <trkpt lat="47.77388" lon="-3.60653">
        <ele>6</ele>
        <time>2018-07-18T13:14:02Z</time>
      </trkpt>
      <trkpt lat="47.77387" lon="-3.60659">
        <ele>6</ele>
        <time>2018-07-18T13:14:03Z</time>
      </trkpt>
      <trkpt lat="47.77386" lon="-3.60666">
        <ele>6</ele>
        <time>2018-07-18T13:14:04Z</time>
      </trkpt>
      <trkpt lat="47.77384" lon="-3.60673">
        <ele>6</ele>
        <time>2018-07-18T13:14:05Z</time>
      </trkpt>
      <trkpt lat="47.77383" lon="-3.6068">
        <ele>6</ele>
        <time>2018-07-18T13:14:06Z</time>
      </trkpt>
      <trkpt lat="47.77382" lon="-3.60687">
        <ele>6</ele>
        <time>2018-07-18T13:14:07Z</time>
      </trkpt>
      <trkpt lat="47.77381" lon="-3.60693">
        <ele>6</ele>
        <time>2018-07-18T13:14:08Z</time>
      </trkpt>
      <trkpt lat="47.77379" lon="-3.607">
        <ele>6</ele>
        <time>2018-07-18T13:14:09Z</time>
      </trkpt>
      <trkpt lat="47.77378" lon="-3.60707">
        <ele>6</ele>
        <time>2018-07-18T13:14:10Z</time>
      </trkpt>
      <trkpt lat="47.77377" lon="-3.60714">
        <ele>6</ele>
        <time>2018-07-18T13:14:11Z</time>
      </trkpt>
      <trkpt lat="47.77375" lon="-3.6072">
        <ele>6</ele>
        <time>2018-07-18T13:14:12Z</time>
      </trkpt>
      <trkpt lat="47.77374" lon="-3.60727">
        <ele>6</ele>
        <time>2018-07-18T13:14:13Z</time>
      </trkpt>
      <trkpt lat="47.77372" lon="-3.60733">
        <ele>6</ele>
        <time>2018-07-18T13:14:14Z</time>
      </trkpt>
      <trkpt lat="47.7737" lon="-3.60739">
        <ele>6</ele>
        <time>2018-07-18T13:14:15Z</time>
      </trkpt>
      <trkpt lat="47.77368" lon="-3.60745">
        <ele>7</ele>
        <time>2018-07-18T13:14:16Z</time>
      </trkpt>
      <trkpt lat="47.77366" lon="-3.6075">
        <ele>7</ele>
        <time>2018-07-18T13:14:17Z</time>
      </trkpt>
      <trkpt lat="47.77364" lon="-3.60756">
        <ele>7</ele>
        <time>2018-07-18T13:14:18Z</time>
      </trkpt>
      <trkpt lat="47.77361" lon="-3.60761">
        <ele>7</ele>
        <time>2018-07-18T13:14:19Z</time>
      </trkpt>
      <trkpt lat="47.77358" lon="-3.60766">
        <ele>7</ele>
        <time>2018-07-18T13:14:20Z</time>
      </trkpt>
      <trkpt lat="47.77354" lon="-3.6077">
        <ele>7</ele>
        <time>2018-07-18T13:14:21Z</time>
      </trkpt>
      <trkpt lat="47.7735" lon="-3.60775">
        <ele>7</ele>
        <time>2018-07-18T13:14:22Z</time>
      </trkpt>
      <trkpt lat="47.77346" lon="-3.60778">
        <ele>7</ele>
        <time>2018-07-18T13:14:23Z</time>
      </trkpt>
      <trkpt lat="47.77342" lon="-3.60782">
        <ele>7</ele>
        <time>2018-07-18T13:14:24Z</time>
      </trkpt>
      <trkpt lat="47.77338" lon="-3.60784">
        <ele>7</ele>
        <time>2018-07-18T13:14:25Z</time>
      </trkpt>
      <trkpt lat="47.77334" lon="-3.60787">
        <ele>7</ele>
        <time>2018-07-18T13:14:26Z</time>
      </trkpt>
      <trkpt lat="47.7733" lon="-3.6079">
        <ele>7</ele>
        <time>2018-07-18T13:14:27Z</time>
      </trkpt>
      <trkpt lat="47.77326" lon="-3.60793">
        <ele>7</ele>
        <time>2018-07-18T13:14:28Z</time>
      </trkpt>
      <trkpt lat="47.77323" lon="-3.60796">
        <ele>7</ele>
        <time>2018-07-18T13:14:29Z</time>
      </trkpt>
      <trkpt lat="47.77319" lon="-3.60799">
        <ele>7</ele>
        <time>2018-07-18T13:14:30Z</time>
      </trkpt>
      <trkpt lat="47.77315" lon="-3.60801">
        <ele>7</ele>
        <time>2018-07-18T13:14:31Z</time>
      </trkpt>
      <trkpt lat="47.77312" lon="-3.60804">
        <ele>8</ele>
        <time>2018-07-18T13:14:32Z</time>
      </trkpt>
      <trkpt lat="47.77308" lon="-3.60807">
        <ele>8</ele>
        <time>2018-07-18T13:14:33Z</time>
      </trkpt>
      <trkpt lat="47.77305" lon="-3.60809">
        <ele>8</ele>
        <time>2018-07-18T13:14:34Z</time>
      </trkpt>
      <trkpt lat="47.77302" lon="-3.6081">
        <ele>8</ele>
        <time>2018-07-18T13:14:35Z</time>
      </trkpt>
      <trkpt lat="47.77299" lon="-3.60812">
        <ele>8</ele>
        <time>2018-07-18T13:14:36Z</time>
      </trkpt>
      <trkpt lat="47.77296" lon="-3.60813">
        <ele>8</ele>
        <time>2018-07-18T13:14:37Z</time>
      </trkpt>
      <trkpt lat="47.77293" lon="-3.60814">
        <ele>8</ele>
        <time>2018-07-18T13:14:38Z</time>
      </trkpt>
      <trkpt lat="47.7729" lon="-3.60815">
        <ele>9</ele>
        <time>2018-07-18T13:14:39Z</time>
      </trkpt>
      <trkpt lat="47.77287" lon="-3.60815">
        <ele>9</ele>
        <time>2018-07-18T13:14:40Z</time>
      </trkpt>
      <trkpt lat="47.77284" lon="-3.60816">
        <ele>9</ele>
        <time>2018-07-18T13:14:41Z</time>
      </trkpt>
      <trkpt lat="47.77281" lon="-3.60817">
        <ele>9</ele>
        <time>2018-07-18T13:14:42Z</time>
      </trkpt>
      <trkpt lat="47.77278" lon="-3.60818">
        <ele>10</ele>
        <time>2018-07-18T13:14:43Z</time>
      </trkpt>
      <trkpt lat="47.77275" lon="-3.60819">
        <ele>10</ele>
        <time>2018-07-18T13:14:44Z</time>
      </trkpt>
      <trkpt lat="47.77272" lon="-3.60819">
        <ele>10</ele>
        <time>2018-07-18T13:14:45Z</time>
      </trkpt>
      <trkpt lat="47.77269" lon="-3.6082">
        <ele>10</ele>
        <time>2018-07-18T13:14:46Z</time>
      </trkpt>
      <trkpt lat="47.77266" lon="-3.6082">
        <ele>10</ele>
        <time>2018-07-18T13:14:47Z</time>
      </trkpt>
      <trkpt lat="47.77263" lon="-3.60821">
        <ele>10</ele>
        <time>2018-07-18T13:14:48Z</time>
      </trkpt>
      <trkpt lat="47.7726" lon="-3.60822">
        <ele>10</ele>
        <time>2018-07-18T13:14:49Z</time>
      </trkpt>
      <trkpt lat="47.77257" lon="-3.60823">
        <ele>11</ele>
        <time>2018-07-18T13:14:50Z</time>
      </trkpt>
      <trkpt lat="47.77254" lon="-3.60824">
        <ele>11</ele>
        <time>2018-07-18T13:14:51Z</time>
      </trkpt>
      <trkpt lat="47.77251" lon="-3.60824">
        <ele>11</ele>
        <time>2018-07-18T13:14:52Z</time>
      </trkpt>
      <trkpt lat="47.77247" lon="-3.60825">
        <ele>11</ele>
        <time>2018-07-18T13:14:53Z</time>
      </trkpt>
      <trkpt lat="47.77244" lon="-3.60826">
        <ele>11</ele>
        <time>2018-07-18T13:14:54Z</time>
      </trkpt>
      <trkpt lat="47.77241" lon="-3.60827">
        <ele>11</ele>
        <time>2018-07-18T13:14:55Z</time>
      </trkpt>
      <trkpt lat="47.77238" lon="-3.60828">
        <ele>11</ele>
        <time>2018-07-18T13:14:56Z</time>
      </trkpt>
      <trkpt lat="47.77235" lon="-3.60829">
        <ele>11</ele>
        <time>2018-07-18T13:14:57Z</time>
      </trkpt>
      <trkpt lat="47.77233" lon="-3.6083">
        <ele>11</ele>
        <time>2018-07-18T13:14:58Z</time>
      </trkpt>
      <trkpt lat="47.77229" lon="-3.60832">
        <ele>11</ele>
        <time>2018-07-18T13:14:59Z</time>
      </trkpt>
      <trkpt lat="47.77226" lon="-3.60833">
        <ele>11</ele>
        <time>2018-07-18T13:15:00Z</time>
      </trkpt>
      <trkpt lat="47.77223" lon="-3.60834">
        <ele>11</ele>
        <time>2018-07-18T13:15:01Z</time>
      </trkpt>
      <trkpt lat="47.7722" lon="-3.60835">
        <ele>11</ele>
        <time>2018-07-18T13:15:02Z</time>
      </trkpt>
      <trkpt lat="47.77217" lon="-3.60836">
        <ele>11</ele>
        <time>2018-07-18T13:15:03Z</time>
      </trkpt>
      <trkpt lat="47.77214" lon="-3.60836">
        <ele>11</ele>
        <time>2018-07-18T13:15:04Z</time>
      </trkpt>
      <trkpt lat="47.77211" lon="-3.60837">
        <ele>11</ele>
        <time>2018-07-18T13:15:05Z</time>
      </trkpt>
      <trkpt lat="47.77208" lon="-3.60838">
        <ele>11</ele>
        <time>2018-07-18T13:15:06Z</time>
      </trkpt>
      <trkpt lat="47.77205" lon="-3.60838">
        <ele>12</ele>
        <time>2018-07-18T13:15:07Z</time>
      </trkpt>
      <trkpt lat="47.77202" lon="-3.60838">
        <ele>12</ele>
        <time>2018-07-18T13:15:08Z</time>
      </trkpt>
      <trkpt lat="47.772" lon="-3.60836">
        <ele>12</ele>
        <time>2018-07-18T13:15:09Z</time>
      </trkpt>
      <trkpt lat="47.77199" lon="-3.60832">
        <ele>12</ele>
        <time>2018-07-18T13:15:10Z</time>
      </trkpt>
      <trkpt lat="47.77198" lon="-3.60829">
        <ele>13</ele>
        <time>2018-07-18T13:15:11Z</time>
      </trkpt>
      <trkpt lat="47.77199" lon="-3.60825">
        <ele>13</ele>
        <time>2018-07-18T13:15:12Z</time>
      </trkpt>
      <trkpt lat="47.772" lon="-3.60822">
        <ele>13</ele>
        <time>2018-07-18T13:15:13Z</time>
      </trkpt>
      <trkpt lat="47.77201" lon="-3.60818">
        <ele>13</ele>
        <time>2018-07-18T13:15:14Z</time>
      </trkpt>
      <trkpt lat="47.77202" lon="-3.60815">
        <ele>14</ele>
        <time>2018-07-18T13:15:15Z</time>
      </trkpt>
      <trkpt lat="47.77204" lon="-3.60812">
        <ele>14</ele>
        <time>2018-07-18T13:15:16Z</time>
      </trkpt>
      <trkpt lat="47.77205" lon="-3.60809">
        <ele>14</ele>
        <time>2018-07-18T13:15:17Z</time>
      </trkpt>
      <trkpt lat="47.77206" lon="-3.60805">
        <ele>14</ele>
        <time>2018-07-18T13:15:18Z</time>
      </trkpt>
      <trkpt lat="47.77207" lon="-3.60801">
        <ele>15</ele>
        <time>2018-07-18T13:15:19Z</time>
      </trkpt>
      <trkpt lat="47.77208" lon="-3.60797">
        <ele>15</ele>
        <time>2018-07-18T13:15:20Z</time>
      </trkpt>
      <trkpt lat="47.77208" lon="-3.60793">
        <ele>15</ele>
        <time>2018-07-18T13:15:21Z</time>
      </trkpt>
      <trkpt lat="47.77209" lon="-3.60789">
        <ele>16</ele>
        <time>2018-07-18T13:15:22Z</time>
      </trkpt>
      <trkpt lat="47.77209" lon="-3.60785">
        <ele>16</ele>
        <time>2018-07-18T13:15:23Z</time>
      </trkpt>
      <trkpt lat="47.77209" lon="-3.60781">
        <ele>16</ele>
        <time>2018-07-18T13:15:24Z</time>
      </trkpt>
      <trkpt lat="47.77209" lon="-3.60776">
        <ele>16</ele>
        <time>2018-07-18T13:15:25Z</time>
      </trkpt>
      <trkpt lat="47.77209" lon="-3.60772">
        <ele>17</ele>
        <time>2018-07-18T13:15:26Z</time>
      </trkpt>
      <trkpt lat="47.77209" lon="-3.60768">
        <ele>17</ele>
        <time>2018-07-18T13:15:27Z</time>
      </trkpt>
      <trkpt lat="47.77209" lon="-3.60763">
        <ele>17</ele>
        <time>2018-07-18T13:15:28Z</time>
      </trkpt>
      <trkpt lat="47.77208" lon="-3.60759">
        <ele>17</ele>
        <time>2018-07-18T13:15:29Z</time>
      </trkpt>
      <trkpt lat="47.77208" lon="-3.60754">
        <ele>18</ele>
        <time>2018-07-18T13:15:30Z</time>
      </trkpt>
      <trkpt lat="47.77208" lon="-3.6075">
        <ele>18</ele>
        <time>2018-07-18T13:15:31Z</time>
      </trkpt>
      <trkpt lat="47.77208" lon="-3.60746">
        <ele>18</ele>
        <time>2018-07-18T13:15:32Z</time>
      </trkpt>
      <trkpt lat="47.77207" lon="-3.60741">
        <ele>18</ele>
        <time>2018-07-18T13:15:33Z</time>
      </trkpt>
      <trkpt lat="47.77206" lon="-3.60736">
        <ele>18</ele>
        <time>2018-07-18T13:15:34Z</time>
      </trkpt>
      <trkpt lat="47.77205" lon="-3.60731">
        <ele>18</ele>
        <time>2018-07-18T13:15:35Z</time>
      </trkpt>
      <trkpt lat="47.77204" lon="-3.60726">
        <ele>18</ele>
        <time>2018-07-18T13:15:36Z</time>
      </trkpt>
      <trkpt lat="47.77202" lon="-3.60721">
        <ele>19</ele>
        <time>2018-07-18T13:15:37Z</time>
      </trkpt>
      <trkpt lat="47.77201" lon="-3.60716">
        <ele>19</ele>
        <time>2018-07-18T13:15:38Z</time>
      </trkpt>
      <trkpt lat="47.77198" lon="-3.60712">
        <ele>19</ele>
        <time>2018-07-18T13:15:39Z</time>
      </trkpt>
      <trkpt lat="47.77196" lon="-3.60708">
        <ele>19</ele>
        <time>2018-07-18T13:15:40Z</time>
      </trkpt>
      <trkpt lat="47.77194" lon="-3.60703">
        <ele>19</ele>
        <time>2018-07-18T13:15:41Z</time>
      </trkpt>
      <trkpt lat="47.77192" lon="-3.60698">
        <ele>19</ele>
        <time>2018-07-18T13:15:42Z</time>
      </trkpt>
      <trkpt lat="47.77191" lon="-3.60693">
        <ele>19</ele>
        <time>2018-07-18T13:15:43Z</time>
      </trkpt>
      <trkpt lat="47.7719" lon="-3.60687">
        <ele>19</ele>
        <time>2018-07-18T13:15:44Z</time>
      </trkpt>
      <trkpt lat="47.77188" lon="-3.60682">
        <ele>19</ele>
        <time>2018-07-18T13:15:45Z</time>
      </trkpt>
      <trkpt lat="47.77187" lon="-3.60677">
        <ele>19</ele>
        <time>2018-07-18T13:15:46Z</time>
      </trkpt>
      <trkpt lat="47.77186" lon="-3.60671">
        <ele>19</ele>
        <time>2018-07-18T13:15:47Z</time>
      </trkpt>
      <trkpt lat="47.77185" lon="-3.60665">
        <ele>20</ele>
        <time>2018-07-18T13:15:48Z</time>
      </trkpt>
      <trkpt lat="47.77184" lon="-3.6066">
        <ele>20</ele>
        <time>2018-07-18T13:15:49Z</time>
      </trkpt>
      <trkpt lat="47.77184" lon="-3.60654">
        <ele>20</ele>
        <time>2018-07-18T13:15:50Z</time>
      </trkpt>
      <trkpt lat="47.77183" lon="-3.60648">
        <ele>20</ele>
        <time>2018-07-18T13:15:51Z</time>
      </trkpt>
      <trkpt lat="47.77182" lon="-3.60643">
        <ele>20</ele>
        <time>2018-07-18T13:15:52Z</time>
      </trkpt>
      <trkpt lat="47.77182" lon="-3.60637">
        <ele>20</ele>
        <time>2018-07-18T13:15:53Z</time>
      </trkpt>
      <trkpt lat="47.77182" lon="-3.60631">
        <ele>20</ele>
        <time>2018-07-18T13:15:54Z</time>
      </trkpt>
      <trkpt lat="47.77181" lon="-3.60625">
        <ele>20</ele>
        <time>2018-07-18T13:15:55Z</time>
      </trkpt>
      <trkpt lat="47.77181" lon="-3.6062">
        <ele>20</ele>
        <time>2018-07-18T13:15:56Z</time>
      </trkpt>
      <trkpt lat="47.7718" lon="-3.60614">
        <ele>20</ele>
        <time>2018-07-18T13:15:57Z</time>
      </trkpt>
      <trkpt lat="47.7718" lon="-3.60609">
        <ele>20</ele>
        <time>2018-07-18T13:15:58Z</time>
      </trkpt>
      <trkpt lat="47.77179" lon="-3.60603">
        <ele>20</ele>
        <time>2018-07-18T13:15:59Z</time>
      </trkpt>
      <trkpt lat="47.77179" lon="-3.60596">
        <ele>20</ele>
        <time>2018-07-18T13:16:00Z</time>
      </trkpt>
      <trkpt lat="47.77178" lon="-3.6059">
        <ele>20</ele>
        <time>2018-07-18T13:16:01Z</time>
      </trkpt>
      <trkpt lat="47.77178" lon="-3.60583">
        <ele>20</ele>
        <time>2018-07-18T13:16:02Z</time>
      </trkpt>
      <trkpt lat="47.77177" lon="-3.60576">
        <ele>21</ele>
        <time>2018-07-18T13:16:03Z</time>
      </trkpt>
      <trkpt lat="47.77177" lon="-3.60569">
        <ele>21</ele>
        <time>2018-07-18T13:16:04Z</time>
      </trkpt>
      <trkpt lat="47.77176" lon="-3.60562">
        <ele>21</ele>
        <time>2018-07-18T13:16:05Z</time>
      </trkpt>
      <trkpt lat="47.77176" lon="-3.60555">
        <ele>21</ele>
        <time>2018-07-18T13:16:06Z</time>
      </trkpt>
      <trkpt lat="47.77175" lon="-3.60548">
        <ele>21</ele>
        <time>2018-07-18T13:16:07Z</time>
      </trkpt>
      <trkpt lat="47.77175" lon="-3.6054">
        <ele>21</ele>
        <time>2018-07-18T13:16:08Z</time>
      </trkpt>
      <trkpt lat="47.77174" lon="-3.60533">
        <ele>21</ele>
        <time>2018-07-18T13:16:09Z</time>
      </trkpt>
      <trkpt lat="47.77174" lon="-3.60526">
        <ele>21</ele>
        <time>2018-07-18T13:16:10Z</time>
      </trkpt>
      <trkpt lat="47.77173" lon="-3.60518">
        <ele>21</ele>
        <time>2018-07-18T13:16:11Z</time>
      </trkpt>
      <trkpt lat="47.77172" lon="-3.60511">
        <ele>21</ele>
        <time>2018-07-18T13:16:12Z</time>
      </trkpt>
      <trkpt lat="47.77172" lon="-3.60504">
        <ele>21</ele>
        <time>2018-07-18T13:16:13Z</time>
      </trkpt>
      <trkpt lat="47.77172" lon="-3.60497">
        <ele>21</ele>
        <time>2018-07-18T13:16:14Z</time>
      </trkpt>
      <trkpt lat="47.77172" lon="-3.60489">
        <ele>22</ele>
        <time>2018-07-18T13:16:15Z</time>
      </trkpt>
      <trkpt lat="47.77171" lon="-3.60482">
        <ele>22</ele>
        <time>2018-07-18T13:16:16Z</time>
      </trkpt>
      <trkpt lat="47.7717" lon="-3.60475">
        <ele>22</ele>
        <time>2018-07-18T13:16:17Z</time>
      </trkpt>
      <trkpt lat="47.7717" lon="-3.60467">
        <ele>22</ele>
        <time>2018-07-18T13:16:18Z</time>
      </trkpt>
      <trkpt lat="47.7717" lon="-3.6046">
        <ele>22</ele>
        <time>2018-07-18T13:16:19Z</time>
      </trkpt>
      <trkpt lat="47.7717" lon="-3.60452">
        <ele>22</ele>
        <time>2018-07-18T13:16:20Z</time>
      </trkpt>
      <trkpt lat="47.7717" lon="-3.60445">
        <ele>22</ele>
        <time>2018-07-18T13:16:21Z</time>
      </trkpt>
      <trkpt lat="47.77171" lon="-3.60438">
        <ele>22</ele>
        <time>2018-07-18T13:16:22Z</time>
      </trkpt>
      <trkpt lat="47.77172" lon="-3.6043">
        <ele>23</ele>
        <time>2018-07-18T13:16:23Z</time>
      </trkpt>
      <trkpt lat="47.77173" lon="-3.60423">
        <ele>23</ele>
        <time>2018-07-18T13:16:24Z</time>
      </trkpt>
      <trkpt lat="47.77175" lon="-3.60416">
        <ele>23</ele>
        <time>2018-07-18T13:16:25Z</time>
      </trkpt>
      <trkpt lat="47.77177" lon="-3.6041">
        <ele>23</ele>
        <time>2018-07-18T13:16:26Z</time>
      </trkpt>
      <trkpt lat="47.7718" lon="-3.60405">
        <ele>23</ele>
        <time>2018-07-18T13:16:27Z</time>
      </trkpt>
      <trkpt lat="47.77184" lon="-3.604">
        <ele>23</ele>
        <time>2018-07-18T13:16:28Z</time>
      </trkpt>
      <trkpt lat="47.77188" lon="-3.60396">
        <ele>23</ele>
        <time>2018-07-18T13:16:29Z</time>
      </trkpt>
      <trkpt lat="47.77192" lon="-3.60392">
        <ele>24</ele>
        <time>2018-07-18T13:16:30Z</time>
      </trkpt>
      <trkpt lat="47.77197" lon="-3.60389">
        <ele>24</ele>
        <time>2018-07-18T13:16:31Z</time>
      </trkpt>
      <trkpt lat="47.77202" lon="-3.60387">
        <ele>24</ele>
        <time>2018-07-18T13:16:32Z</time>
      </trkpt>
      <trkpt lat="47.77206" lon="-3.60386">
        <ele>24</ele>
        <time>2018-07-18T13:16:33Z</time>
      </trkpt>
      <trkpt lat="47.77211" lon="-3.60385">
        <ele>24</ele>
        <time>2018-07-18T13:16:34Z</time>
      </trkpt>
      <trkpt lat="47.77215" lon="-3.60384">
        <ele>24</ele>
        <time>2018-07-18T13:16:35Z</time>
      </trkpt>
      <trkpt lat="47.77219" lon="-3.60382">
        <ele>24</ele>
        <time>2018-07-18T13:16:36Z</time>
      </trkpt>
      <trkpt lat="47.77223" lon="-3.60381">
        <ele>24</ele>
        <time>2018-07-18T13:16:37Z</time>
      </trkpt>
      <trkpt lat="47.77227" lon="-3.6038">
        <ele>24</ele>
        <time>2018-07-18T13:16:38Z</time>
      </trkpt>
      <trkpt lat="47.7723" lon="-3.60379">
        <ele>24</ele>
        <time>2018-07-18T13:16:39Z</time>
      </trkpt>
      <trkpt lat="47.77234" lon="-3.60377">
        <ele>24</ele>
        <time>2018-07-18T13:16:40Z</time>
      </trkpt>
      <trkpt lat="47.77237" lon="-3.60375">
        <ele>24</ele>
        <time>2018-07-18T13:16:41Z</time>
      </trkpt>
      <trkpt lat="47.77239" lon="-3.60373">
        <ele>24</ele>
        <time>2018-07-18T13:16:42Z</time>
      </trkpt>
      <trkpt lat="47.77242" lon="-3.60372">
        <ele>24</ele>
        <time>2018-07-18T13:16:43Z</time>
      </trkpt>
      <trkpt lat="47.77243" lon="-3.60374">
        <ele>24</ele>
        <time>2018-07-18T13:16:44Z</time>
      </trkpt>
      <trkpt lat="47.77242" lon="-3.60377">
        <ele>24</ele>
        <time>2018-07-18T13:16:45Z</time>
      </trkpt>
      <trkpt lat="47.7724" lon="-3.60378">
        <ele>24</ele>
        <time>2018-07-18T13:16:46Z</time>
      </trkpt>
      <trkpt lat="47.77237" lon="-3.60379">
        <ele>24</ele>
        <time>2018-07-18T13:16:47Z</time>
      </trkpt>
      <trkpt lat="47.77234" lon="-3.60379">
        <ele>24</ele>
        <time>2018-07-18T13:16:48Z</time>
      </trkpt>
      <trkpt lat="47.7723" lon="-3.60379">
        <ele>24</ele>
        <time>2018-07-18T13:16:49Z</time>
      </trkpt>
      <trkpt lat="47.77225" lon="-3.6038">
        <ele>23</ele>
        <time>2018-07-18T13:16:50Z</time>
      </trkpt>
      <trkpt lat="47.77221" lon="-3.60381">
        <ele>23</ele>
        <time>2018-07-18T13:16:51Z</time>
      </trkpt>
      <trkpt lat="47.77216" lon="-3.60383">
        <ele>23</ele>
        <time>2018-07-18T13:16:52Z</time>
      </trkpt>
      <trkpt lat="47.77212" lon="-3.60386">
        <ele>23</ele>
        <time>2018-07-18T13:16:53Z</time>
      </trkpt>
      <trkpt lat="47.77207" lon="-3.60386">
        <ele>23</ele>
        <time>2018-07-18T13:16:54Z</time>
      </trkpt>
      <trkpt lat="47.77202" lon="-3.60387">
        <ele>23</ele>
        <time>2018-07-18T13:16:55Z</time>
      </trkpt>
      <trkpt lat="47.77197" lon="-3.60387">
        <ele>23</ele>
        <time>2018-07-18T13:16:56Z</time>
      </trkpt>
      <trkpt lat="47.77192" lon="-3.60387">
        <ele>23</ele>
        <time>2018-07-18T13:16:57Z</time>
      </trkpt>
      <trkpt lat="47.77187" lon="-3.60387">
        <ele>23</ele>
        <time>2018-07-18T13:16:58Z</time>
      </trkpt>
      <trkpt lat="47.77182" lon="-3.60388">
        <ele>22</ele>
        <time>2018-07-18T13:16:59Z</time>
      </trkpt>
      <trkpt lat="47.77177" lon="-3.60389">
        <ele>22</ele>
        <time>2018-07-18T13:17:00Z</time>
      </trkpt>
      <trkpt lat="47.77171" lon="-3.6039">
        <ele>22</ele>
        <time>2018-07-18T13:17:01Z</time>
      </trkpt>
      <trkpt lat="47.77166" lon="-3.60392">
        <ele>22</ele>
        <time>2018-07-18T13:17:02Z</time>
      </trkpt>
      <trkpt lat="47.77161" lon="-3.60391">
        <ele>22</ele>
        <time>2018-07-18T13:17:03Z</time>
      </trkpt>
      <trkpt lat="47.77156" lon="-3.60388">
        <ele>21</ele>
        <time>2018-07-18T13:17:04Z</time>
      </trkpt>
      <trkpt lat="47.77153" lon="-3.60383">
        <ele>21</ele>
        <time>2018-07-18T13:17:05Z</time>
      </trkpt>
      <trkpt lat="47.77151" lon="-3.60376">
        <ele>21</ele>
        <time>2018-07-18T13:17:06Z</time>
      </trkpt>
      <trkpt lat="47.7715" lon="-3.60369">
        <ele>21</ele>
        <time>2018-07-18T13:17:07Z</time>
      </trkpt>
      <trkpt lat="47.7715" lon="-3.60363">
        <ele>21</ele>
        <time>2018-07-18T13:17:08Z</time>
      </trkpt>
      <trkpt lat="47.7715" lon="-3.60356">
        <ele>21</ele>
        <time>2018-07-18T13:17:09Z</time>
      </trkpt>
      <trkpt lat="47.7715" lon="-3.6035">
        <ele>22</ele>
        <time>2018-07-18T13:17:10Z</time>
      </trkpt>
      <trkpt lat="47.7715" lon="-3.60343">
        <ele>22</ele>
        <time>2018-07-18T13:17:11Z</time>
      </trkpt>
      <trkpt lat="47.7715" lon="-3.60336">
        <ele>22</ele>
        <time>2018-07-18T13:17:12Z</time>
      </trkpt>
      <trkpt lat="47.7715" lon="-3.60328">
        <ele>22</ele>
        <time>2018-07-18T13:17:13Z</time>
      </trkpt>
      <trkpt lat="47.77151" lon="-3.60321">
        <ele>22</ele>
        <time>2018-07-18T13:17:14Z</time>
      </trkpt>
      <trkpt lat="47.77152" lon="-3.60315">
        <ele>22</ele>
        <time>2018-07-18T13:17:15Z</time>
      </trkpt>
      <trkpt lat="47.77153" lon="-3.60308">
        <ele>22</ele>
        <time>2018-07-18T13:17:16Z</time>
      </trkpt>
      <trkpt lat="47.77152" lon="-3.60301">
        <ele>22</ele>
        <time>2018-07-18T13:17:17Z</time>
      </trkpt>
      <trkpt lat="47.77151" lon="-3.60294">
        <ele>22</ele>
        <time>2018-07-18T13:17:18Z</time>
      </trkpt>
      <trkpt lat="47.7715" lon="-3.60287">
        <ele>21</ele>
        <time>2018-07-18T13:17:19Z</time>
      </trkpt>
      <trkpt lat="47.77149" lon="-3.60279">
        <ele>21</ele>
        <time>2018-07-18T13:17:20Z</time>
      </trkpt>
      <trkpt lat="47.77149" lon="-3.6027">
        <ele>21</ele>
        <time>2018-07-18T13:17:21Z</time>
      </trkpt>
      <trkpt lat="47.77149" lon="-3.60261">
        <ele>21</ele>
        <time>2018-07-18T13:17:22Z</time>
      </trkpt>
      <trkpt lat="47.77149" lon="-3.60252">
        <ele>20</ele>
        <time>2018-07-18T13:17:23Z</time>
      </trkpt>
      <trkpt lat="47.77147" lon="-3.60243">
        <ele>20</ele>
        <time>2018-07-18T13:17:24Z</time>
      </trkpt>
      <trkpt lat="47.77146" lon="-3.60234">
        <ele>20</ele>
        <time>2018-07-18T13:17:25Z</time>
      </trkpt>
      <trkpt lat="47.77145" lon="-3.60226">
        <ele>20</ele>
        <time>2018-07-18T13:17:26Z</time>
      </trkpt>
      <trkpt lat="47.77144" lon="-3.60218">
        <ele>20</ele>
        <time>2018-07-18T13:17:27Z</time>
      </trkpt>
      <trkpt lat="47.77143" lon="-3.60211">
        <ele>20</ele>
        <time>2018-07-18T13:17:28Z</time>
      </trkpt>
      <trkpt lat="47.77142" lon="-3.60204">
        <ele>20</ele>
        <time>2018-07-18T13:17:29Z</time>
      </trkpt>
      <trkpt lat="47.77141" lon="-3.60197">
        <ele>20</ele>
        <time>2018-07-18T13:17:30Z</time>
      </trkpt>
      <trkpt lat="47.7714" lon="-3.6019">
        <ele>20</ele>
        <time>2018-07-18T13:17:31Z</time>
      </trkpt>
      <trkpt lat="47.7714" lon="-3.60184">
        <ele>21</ele>
        <time>2018-07-18T13:17:32Z</time>
      </trkpt>
      <trkpt lat="47.7714" lon="-3.60178">
        <ele>21</ele>
        <time>2018-07-18T13:17:33Z</time>
      </trkpt>
      <trkpt lat="47.7714" lon="-3.60172">
        <ele>21</ele>
        <time>2018-07-18T13:17:34Z</time>
      </trkpt>
      <trkpt lat="47.7714" lon="-3.60166">
        <ele>21</ele>
        <time>2018-07-18T13:17:35Z</time>
      </trkpt>
      <trkpt lat="47.77139" lon="-3.60159">
        <ele>21</ele>
        <time>2018-07-18T13:17:36Z</time>
      </trkpt>
      <trkpt lat="47.77139" lon="-3.60152">
        <ele>21</ele>
        <time>2018-07-18T13:17:37Z</time>
      </trkpt>
      <trkpt lat="47.77138" lon="-3.60144">
        <ele>21</ele>
        <time>2018-07-18T13:17:38Z</time>
      </trkpt>
      <trkpt lat="47.77138" lon="-3.60137">
        <ele>21</ele>
        <time>2018-07-18T13:17:39Z</time>
      </trkpt>
      <trkpt lat="47.77138" lon="-3.60129">
        <ele>21</ele>
        <time>2018-07-18T13:17:40Z</time>
      </trkpt>
      <trkpt lat="47.77138" lon="-3.60121">
        <ele>21</ele>
        <time>2018-07-18T13:17:41Z</time>
      </trkpt>
      <trkpt lat="47.77138" lon="-3.60113">
        <ele>21</ele>
        <time>2018-07-18T13:17:42Z</time>
      </trkpt>
      <trkpt lat="47.77138" lon="-3.60105">
        <ele>21</ele>
        <time>2018-07-18T13:17:43Z</time>
      </trkpt>
      <trkpt lat="47.77139" lon="-3.60097">
        <ele>21</ele>
        <time>2018-07-18T13:17:44Z</time>
      </trkpt>
      <trkpt lat="47.7714" lon="-3.60089">
        <ele>22</ele>
        <time>2018-07-18T13:17:45Z</time>
      </trkpt>
      <trkpt lat="47.77141" lon="-3.60081">
        <ele>22</ele>
        <time>2018-07-18T13:17:46Z</time>
      </trkpt>
      <trkpt lat="47.77142" lon="-3.60074">
        <ele>22</ele>
        <time>2018-07-18T13:17:47Z</time>
      </trkpt>
      <trkpt lat="47.77143" lon="-3.60066">
        <ele>22</ele>
        <time>2018-07-18T13:17:48Z</time>
      </trkpt>
      <trkpt lat="47.77143" lon="-3.60059">
        <ele>22</ele>
        <time>2018-07-18T13:17:49Z</time>
      </trkpt>
      <trkpt lat="47.77141" lon="-3.60052">
        <ele>22</ele>
        <time>2018-07-18T13:17:50Z</time>
      </trkpt>
      <trkpt lat="47.77138" lon="-3.60047">
        <ele>22</ele>
        <time>2018-07-18T13:17:51Z</time>
      </trkpt>
      <trkpt lat="47.77134" lon="-3.60041">
        <ele>22</ele>
        <time>2018-07-18T13:17:52Z</time>
      </trkpt>
      <trkpt lat="47.77131" lon="-3.60035">
        <ele>22</ele>
        <time>2018-07-18T13:17:53Z</time>
      </trkpt>
      <trkpt lat="47.77127" lon="-3.60029">
        <ele>22</ele>
        <time>2018-07-18T13:17:54Z</time>
      </trkpt>
      <trkpt lat="47.77123" lon="-3.60024">
        <ele>22</ele>
        <time>2018-07-18T13:17:55Z</time>
      </trkpt>
      <trkpt lat="47.77119" lon="-3.60017">
        <ele>21</ele>
        <time>2018-07-18T13:17:56Z</time>
      </trkpt>
      <trkpt lat="47.77114" lon="-3.60011">
        <ele>21</ele>
        <time>2018-07-18T13:17:57Z</time>
      </trkpt>
      <trkpt lat="47.77109" lon="-3.60004">
        <ele>20</ele>
        <time>2018-07-18T13:17:58Z</time>
      </trkpt>
      <trkpt lat="47.77103" lon="-3.59997">
        <ele>20</ele>
        <time>2018-07-18T13:17:59Z</time>
      </trkpt>
      <trkpt lat="47.77098" lon="-3.59989">
        <ele>19</ele>
        <time>2018-07-18T13:18:00Z</time>
      </trkpt>
      <trkpt lat="47.77092" lon="-3.59982">
        <ele>19</ele>
        <time>2018-07-18T13:18:01Z</time>
      </trkpt>
      <trkpt lat="47.77087" lon="-3.59976">
        <ele>19</ele>
        <time>2018-07-18T13:18:02Z</time>
      </trkpt>
      <trkpt lat="47.77082" lon="-3.59969">
        <ele>18</ele>
        <time>2018-07-18T13:18:03Z</time>
      </trkpt>
      <trkpt lat="47.77079" lon="-3.59962">
        <ele>18</ele>
        <time>2018-07-18T13:18:04Z</time>
      </trkpt>
      <trkpt lat="47.77078" lon="-3.59955">
        <ele>18</ele>
        <time>2018-07-18T13:18:05Z</time>
      </trkpt>
      <trkpt lat="47.77077" lon="-3.59947">
        <ele>19</ele>
        <time>2018-07-18T13:18:06Z</time>
      </trkpt>
      <trkpt lat="47.77077" lon="-3.59939">
        <ele>19</ele>
        <time>2018-07-18T13:18:07Z</time>
      </trkpt>
      <trkpt lat="47.77076" lon="-3.59932">
        <ele>19</ele>
        <time>2018-07-18T13:18:08Z</time>
      </trkpt>
      <trkpt lat="47.77075" lon="-3.59924">
        <ele>19</ele>
        <time>2018-07-18T13:18:09Z</time>
      </trkpt>
      <trkpt lat="47.77074" lon="-3.59916">
        <ele>19</ele>
        <time>2018-07-18T13:18:10Z</time>
      </trkpt>
      <trkpt lat="47.77073" lon="-3.59908">
        <ele>19</ele>
        <time>2018-07-18T13:18:11Z</time>
      </trkpt>
      <trkpt lat="47.77073" lon="-3.599">
        <ele>19</ele>
        <time>2018-07-18T13:18:12Z</time>
      </trkpt>
      <trkpt lat="47.77071" lon="-3.59892">
        <ele>19</ele>
        <time>2018-07-18T13:18:13Z</time>
      </trkpt>
      <trkpt lat="47.77069" lon="-3.59884">
        <ele>18</ele>
        <time>2018-07-18T13:18:14Z</time>
      </trkpt>
      <trkpt lat="47.77067" lon="-3.59876">
        <ele>18</ele>
        <time>2018-07-18T13:18:15Z</time>
      </trkpt>
      <trkpt lat="47.77066" lon="-3.59867">
        <ele>18</ele>
        <time>2018-07-18T13:18:16Z</time>
      </trkpt>
      <trkpt lat="47.77065" lon="-3.59858">
        <ele>18</ele>
        <time>2018-07-18T13:18:17Z</time>
      </trkpt>
      <trkpt lat="47.77063" lon="-3.59851">
        <ele>17</ele>
        <time>2018-07-18T13:18:18Z</time>
      </trkpt>
      <trkpt lat="47.77059" lon="-3.59847">
        <ele>17</ele>
        <time>2018-07-18T13:18:19Z</time>
      </trkpt>
      <trkpt lat="47.77054" lon="-3.59845">
        <ele>17</ele>
        <time>2018-07-18T13:18:20Z</time>
      </trkpt>
      <trkpt lat="47.77049" lon="-3.59844">
        <ele>17</ele>
        <time>2018-07-18T13:18:21Z</time>
      </trkpt>
      <trkpt lat="47.77046" lon="-3.5984">
        <ele>16</ele>
        <time>2018-07-18T13:18:22Z</time>
      </trkpt>
      <trkpt lat="47.77044" lon="-3.59835">
        <ele>16</ele>
        <time>2018-07-18T13:18:23Z</time>
      </trkpt>
      <trkpt lat="47.77043" lon="-3.5983">
        <ele>16</ele>
        <time>2018-07-18T13:18:24Z</time>
      </trkpt>
      <trkpt lat="47.77043" lon="-3.59823">
        <ele>16</ele>
        <time>2018-07-18T13:18:25Z</time>
      </trkpt>
      <trkpt lat="47.77043" lon="-3.59817">
        <ele>16</ele>
        <time>2018-07-18T13:18:26Z</time>
      </trkpt>
      <trkpt lat="47.77042" lon="-3.5981">
        <ele>16</ele>
        <time>2018-07-18T13:18:27Z</time>
      </trkpt>
      <trkpt lat="47.77041" lon="-3.59804">
        <ele>16</ele>
        <time>2018-07-18T13:18:28Z</time>
      </trkpt>
      <trkpt lat="47.7704" lon="-3.59797">
        <ele>16</ele>
        <time>2018-07-18T13:18:29Z</time>
      </trkpt>
      <trkpt lat="47.77041" lon="-3.5979">
        <ele>17</ele>
        <time>2018-07-18T13:18:30Z</time>
      </trkpt>
      <trkpt lat="47.77041" lon="-3.59784">
        <ele>17</ele>
        <time>2018-07-18T13:18:31Z</time>
      </trkpt>
      <trkpt lat="47.77041" lon="-3.59777">
        <ele>17</ele>
        <time>2018-07-18T13:18:32Z</time>
      </trkpt>
      <trkpt lat="47.77041" lon="-3.5977">
        <ele>17</ele>
        <time>2018-07-18T13:18:33Z</time>
      </trkpt>
      <trkpt lat="47.77042" lon="-3.59764">
        <ele>17</ele>
        <time>2018-07-18T13:18:34Z</time>
      </trkpt>
      <trkpt lat="47.77043" lon="-3.59757">
        <ele>17</ele>
        <time>2018-07-18T13:18:35Z</time>
      </trkpt>
      <trkpt lat="47.77044" lon="-3.59751">
        <ele>17</ele>
        <time>2018-07-18T13:18:36Z</time>
      </trkpt>
      <trkpt lat="47.77046" lon="-3.59745">
        <ele>17</ele>
        <time>2018-07-18T13:18:37Z</time>
      </trkpt>
      <trkpt lat="47.77049" lon="-3.59738">
        <ele>17</ele>
        <time>2018-07-18T13:18:38Z</time>
      </trkpt>
      <trkpt lat="47.77051" lon="-3.59731">
        <ele>16</ele>
        <time>2018-07-18T13:18:39Z</time>
      </trkpt>
      <trkpt lat="47.77055" lon="-3.59722">
        <ele>16</ele>
        <time>2018-07-18T13:18:40Z</time>
      </trkpt>
      <trkpt lat="47.77057" lon="-3.59713">
        <ele>16</ele>
        <time>2018-07-18T13:18:41Z</time>
      </trkpt>
      <trkpt lat="47.77057" lon="-3.59702">
        <ele>15</ele>
        <time>2018-07-18T13:18:42Z</time>
      </trkpt>
      <trkpt lat="47.77056" lon="-3.59692">
        <ele>16</ele>
        <time>2018-07-18T13:18:43Z</time>
      </trkpt>
      <trkpt lat="47.77055" lon="-3.59683">
        <ele>16</ele>
        <time>2018-07-18T13:18:44Z</time>
      </trkpt>
      <trkpt lat="47.77053" lon="-3.59675">
        <ele>16</ele>
        <time>2018-07-18T13:18:45Z</time>
      </trkpt>
      <trkpt lat="47.77051" lon="-3.59667">
        <ele>17</ele>
        <time>2018-07-18T13:18:46Z</time>
      </trkpt>
      <trkpt lat="47.77049" lon="-3.5966">
        <ele>17</ele>
        <time>2018-07-18T13:18:47Z</time>
      </trkpt>
      <trkpt lat="47.77047" lon="-3.59653">
        <ele>17</ele>
        <time>2018-07-18T13:18:48Z</time>
      </trkpt>
      <trkpt lat="47.77045" lon="-3.59646">
        <ele>17</ele>
        <time>2018-07-18T13:18:49Z</time>
      </trkpt>
      <trkpt lat="47.77043" lon="-3.59639">
        <ele>18</ele>
        <time>2018-07-18T13:18:50Z</time>
      </trkpt>
      <trkpt lat="47.7704" lon="-3.59632">
        <ele>18</ele>
        <time>2018-07-18T13:18:51Z</time>
      </trkpt>
      <trkpt lat="47.77038" lon="-3.59625">
        <ele>18</ele>
        <time>2018-07-18T13:18:52Z</time>
      </trkpt>
      <trkpt lat="47.77036" lon="-3.59618">
        <ele>19</ele>
        <time>2018-07-18T13:18:53Z</time>
      </trkpt>
      <trkpt lat="47.77034" lon="-3.59611">
        <ele>19</ele>
        <time>2018-07-18T13:18:54Z</time>
      </trkpt>
      <trkpt lat="47.77032" lon="-3.59605">
        <ele>19</ele>
        <time>2018-07-18T13:18:55Z</time>
      </trkpt>
      <trkpt lat="47.7703" lon="-3.59598">
        <ele>19</ele>
        <time>2018-07-18T13:18:56Z</time>
      </trkpt>
      <trkpt lat="47.77029" lon="-3.59591">
        <ele>20</ele>
        <time>2018-07-18T13:18:57Z</time>
      </trkpt>
      <trkpt lat="47.77027" lon="-3.59583">
        <ele>20</ele>
        <time>2018-07-18T13:18:58Z</time>
      </trkpt>
      <trkpt lat="47.77027" lon="-3.59576">
        <ele>20</ele>
        <time>2018-07-18T13:18:59Z</time>
      </trkpt>
      <trkpt lat="47.77027" lon="-3.59568">
        <ele>20</ele>
        <time>2018-07-18T13:19:00Z</time>
      </trkpt>
      <trkpt lat="47.77027" lon="-3.5956">
        <ele>20</ele>
        <time>2018-07-18T13:19:01Z</time>
      </trkpt>
      <trkpt lat="47.77028" lon="-3.59553">
        <ele>20</ele>
        <time>2018-07-18T13:19:02Z</time>
      </trkpt>
      <trkpt lat="47.7703" lon="-3.59546">
        <ele>21</ele>
        <time>2018-07-18T13:19:03Z</time>
      </trkpt>
      <trkpt lat="47.77032" lon="-3.5954">
        <ele>21</ele>
        <time>2018-07-18T13:19:04Z</time>
      </trkpt>
      <trkpt lat="47.77035" lon="-3.59535">
        <ele>21</ele>
        <time>2018-07-18T13:19:05Z</time>
      </trkpt>
      <trkpt lat="47.77038" lon="-3.5953">
        <ele>22</ele>
        <time>2018-07-18T13:19:06Z</time>
      </trkpt>
      <trkpt lat="47.77041" lon="-3.59527">
        <ele>22</ele>
        <time>2018-07-18T13:19:07Z</time>
      </trkpt>
      <trkpt lat="47.77044" lon="-3.59523">
        <ele>23</ele>
        <time>2018-07-18T13:19:08Z</time>
      </trkpt>
      <trkpt lat="47.77048" lon="-3.59519">
        <ele>23</ele>
        <time>2018-07-18T13:19:09Z</time>
      </trkpt>
      <trkpt lat="47.77051" lon="-3.59515">
        <ele>23</ele>
        <time>2018-07-18T13:19:10Z</time>
      </trkpt>
      <trkpt lat="47.77053" lon="-3.5951">
        <ele>24</ele>
        <time>2018-07-18T13:19:11Z</time>
      </trkpt>
      <trkpt lat="47.77055" lon="-3.59505">
        <ele>24</ele>
        <time>2018-07-18T13:19:12Z</time>
      </trkpt>
      <trkpt lat="47.77057" lon="-3.59499">
        <ele>24</ele>
        <time>2018-07-18T13:19:13Z</time>
      </trkpt>
      <trkpt lat="47.77059" lon="-3.59493">
        <ele>24</ele>
        <time>2018-07-18T13:19:14Z</time>
      </trkpt>
      <trkpt lat="47.7706" lon="-3.59487">
        <ele>24</ele>
        <time>2018-07-18T13:19:15Z</time>
      </trkpt>
      <trkpt lat="47.77061" lon="-3.59482">
        <ele>25</ele>
        <time>2018-07-18T13:19:16Z</time>
      </trkpt>
      <trkpt lat="47.77063" lon="-3.59476">
        <ele>25</ele>
        <time>2018-07-18T13:19:17Z</time>
      </trkpt>
      <trkpt lat="47.77064" lon="-3.59469">
        <ele>25</ele>
        <time>2018-07-18T13:19:18Z</time>
      </trkpt>
      <trkpt lat="47.77066" lon="-3.59463">
        <ele>25</ele>
        <time>2018-07-18T13:19:19Z</time>
      </trkpt>
      <trkpt lat="47.77067" lon="-3.59457">
        <ele>25</ele>
        <time>2018-07-18T13:19:20Z</time>
      </trkpt>
      <trkpt lat="47.77069" lon="-3.59452">
        <ele>25</ele>
        <time>2018-07-18T13:19:21Z</time>
      </trkpt>
      <trkpt lat="47.77069" lon="-3.59446">
        <ele>25</ele>
        <time>2018-07-18T13:19:22Z</time>
      </trkpt>
      <trkpt lat="47.7707" lon="-3.5944">
        <ele>25</ele>
        <time>2018-07-18T13:19:23Z</time>
      </trkpt>
      <trkpt lat="47.77069" lon="-3.59433">
        <ele>25</ele>
        <time>2018-07-18T13:19:24Z</time>
      </trkpt>
      <trkpt lat="47.77068" lon="-3.59427">
        <ele>26</ele>
        <time>2018-07-18T13:19:25Z</time>
      </trkpt>
      <trkpt lat="47.77067" lon="-3.59422">
        <ele>26</ele>
        <time>2018-07-18T13:19:26Z</time>
      </trkpt>
      <trkpt lat="47.77065" lon="-3.59416">
        <ele>26</ele>
        <time>2018-07-18T13:19:27Z</time>
      </trkpt>
      <trkpt lat="47.77064" lon="-3.59409">
        <ele>26</ele>
        <time>2018-07-18T13:19:28Z</time>
      </trkpt>
      <trkpt lat="47.77064" lon="-3.59403">
        <ele>26</ele>
        <time>2018-07-18T13:19:29Z</time>
      </trkpt>
      <trkpt lat="47.77063" lon="-3.59396">
        <ele>26</ele>
        <time>2018-07-18T13:19:30Z</time>
      </trkpt>
      <trkpt lat="47.77063" lon="-3.59391">
        <ele>26</ele>
        <time>2018-07-18T13:19:31Z</time>
      </trkpt>
      <trkpt lat="47.77063" lon="-3.59385">
        <ele>26</ele>
        <time>2018-07-18T13:19:32Z</time>
      </trkpt>
      <trkpt lat="47.77063" lon="-3.59379">
        <ele>27</ele>
        <time>2018-07-18T13:19:33Z</time>
      </trkpt>
      <trkpt lat="47.77064" lon="-3.59373">
        <ele>27</ele>
        <time>2018-07-18T13:19:34Z</time>
      </trkpt>
      <trkpt lat="47.77064" lon="-3.59366">
        <ele>27</ele>
        <time>2018-07-18T13:19:35Z</time>
      </trkpt>
      <trkpt lat="47.77065" lon="-3.59359">
        <ele>27</ele>
        <time>2018-07-18T13:19:36Z</time>
      </trkpt>
      <trkpt lat="47.77066" lon="-3.59353">
        <ele>27</ele>
        <time>2018-07-18T13:19:37Z</time>
      </trkpt>
      <trkpt lat="47.77066" lon="-3.59345">
        <ele>26</ele>
        <time>2018-07-18T13:19:38Z</time>
      </trkpt>
      <trkpt lat="47.77066" lon="-3.59339">
        <ele>26</ele>
        <time>2018-07-18T13:19:39Z</time>
      </trkpt>
      <trkpt lat="47.77067" lon="-3.59331">
        <ele>26</ele>
        <time>2018-07-18T13:19:40Z</time>
      </trkpt>
      <trkpt lat="47.77067" lon="-3.59324">
        <ele>26</ele>
        <time>2018-07-18T13:19:41Z</time>
      </trkpt>
      <trkpt lat="47.77068" lon="-3.59318">
        <ele>26</ele>
        <time>2018-07-18T13:19:42Z</time>
      </trkpt>
      <trkpt lat="47.77068" lon="-3.59312">
        <ele>26</ele>
        <time>2018-07-18T13:19:43Z</time>
      </trkpt>
      <trkpt lat="47.77068" lon="-3.59306">
        <ele>26</ele>
        <time>2018-07-18T13:19:44Z</time>
      </trkpt>
      <trkpt lat="47.77069" lon="-3.593">
        <ele>26</ele>
        <time>2018-07-18T13:19:45Z</time>
      </trkpt>
      <trkpt lat="47.77069" lon="-3.59294">
        <ele>26</ele>
        <time>2018-07-18T13:19:46Z</time>
      </trkpt>
      <trkpt lat="47.7707" lon="-3.59288">
        <ele>27</ele>
        <time>2018-07-18T13:19:47Z</time>
      </trkpt>
      <trkpt lat="47.77071" lon="-3.59282">
        <ele>27</ele>
        <time>2018-07-18T13:19:48Z</time>
      </trkpt>
      <trkpt lat="47.77072" lon="-3.59276">
        <ele>27</ele>
        <time>2018-07-18T13:19:49Z</time>
      </trkpt>
      <trkpt lat="47.77074" lon="-3.59269">
        <ele>27</ele>
        <time>2018-07-18T13:19:50Z</time>
      </trkpt>
      <trkpt lat="47.77075" lon="-3.59262">
        <ele>27</ele>
        <time>2018-07-18T13:19:51Z</time>
      </trkpt>
      <trkpt lat="47.77075" lon="-3.59254">
        <ele>27</ele>
        <time>2018-07-18T13:19:52Z</time>
      </trkpt>
      <trkpt lat="47.77075" lon="-3.59246">
        <ele>27</ele>
        <time>2018-07-18T13:19:53Z</time>
      </trkpt>
      <trkpt lat="47.77075" lon="-3.59237">
        <ele>27</ele>
        <time>2018-07-18T13:19:54Z</time>
      </trkpt>
      <trkpt lat="47.77076" lon="-3.59228">
        <ele>26</ele>
        <time>2018-07-18T13:19:55Z</time>
      </trkpt>
      <trkpt lat="47.77076" lon="-3.5922">
        <ele>26</ele>
        <time>2018-07-18T13:19:56Z</time>
      </trkpt>
      <trkpt lat="47.77077" lon="-3.59211">
        <ele>26</ele>
        <time>2018-07-18T13:19:57Z</time>
      </trkpt>
      <trkpt lat="47.77079" lon="-3.59202">
        <ele>26</ele>
        <time>2018-07-18T13:19:58Z</time>
      </trkpt>
      <trkpt lat="47.7708" lon="-3.59193">
        <ele>26</ele>
        <time>2018-07-18T13:19:59Z</time>
      </trkpt>
      <trkpt lat="47.77081" lon="-3.59183">
        <ele>26</ele>
        <time>2018-07-18T13:20:00Z</time>
      </trkpt>
      <trkpt lat="47.77083" lon="-3.59173">
        <ele>26</ele>
        <time>2018-07-18T13:20:01Z</time>
      </trkpt>
      <trkpt lat="47.77084" lon="-3.59163">
        <ele>26</ele>
        <time>2018-07-18T13:20:02Z</time>
      </trkpt>
      <trkpt lat="47.77085" lon="-3.59155">
        <ele>26</ele>
        <time>2018-07-18T13:20:03Z</time>
      </trkpt>
      <trkpt lat="47.77085" lon="-3.59148">
        <ele>26</ele>
        <time>2018-07-18T13:20:04Z</time>
      </trkpt>
      <trkpt lat="47.77084" lon="-3.59144">
        <ele>25</ele>
        <time>2018-07-18T13:20:05Z</time>
      </trkpt>
      <trkpt lat="47.77083" lon="-3.59143">
        <ele>25</ele>
        <time>2018-07-18T13:20:06Z</time>
      </trkpt>
      <trkpt lat="47.77081" lon="-3.59142">
        <ele>25</ele>
        <time>2018-07-18T13:20:07Z</time>
      </trkpt>
      <trkpt lat="47.7708" lon="-3.5914">
        <ele>25</ele>
        <time>2018-07-18T13:20:08Z</time>
      </trkpt>
      <trkpt lat="47.77078" lon="-3.59139">
        <ele>25</ele>
        <time>2018-07-18T13:20:09Z</time>
      </trkpt>
      <trkpt lat="47.77077" lon="-3.59138">
        <ele>25</ele>
        <time>2018-07-18T13:20:10Z</time>
      </trkpt>
      <trkpt lat="47.77075" lon="-3.59138">
        <ele>24</ele>
        <time>2018-07-18T13:20:11Z</time>
      </trkpt>
      <trkpt lat="47.77074" lon="-3.59137">
        <ele>24</ele>
        <time>2018-07-18T13:20:12Z</time>
      </trkpt>
      <trkpt lat="47.77073" lon="-3.59136">
        <ele>24</ele>
        <time>2018-07-18T13:20:13Z</time>
      </trkpt>
      <trkpt lat="47.77073" lon="-3.59136">
        <ele>24</ele>
        <time>2018-07-18T13:20:14Z</time>
      </trkpt>
      <trkpt lat="47.77073" lon="-3.59135">
        <ele>24</ele>
        <time>2018-07-18T13:20:15Z</time>
      </trkpt>
      <trkpt lat="47.77073" lon="-3.59135">
        <ele>24</ele>
        <time>2018-07-18T13:20:16Z</time>
      </trkpt>
      <trkpt lat="47.77071" lon="-3.59134">
        <ele>24</ele>
        <time>2018-07-18T13:20:17Z</time>
      </trkpt>
      <trkpt lat="47.7707" lon="-3.59133">
        <ele>24</ele>
        <time>2018-07-18T13:20:18Z</time>
      </trkpt>
      <trkpt lat="47.77068" lon="-3.59132">
        <ele>24</ele>
        <time>2018-07-18T13:20:19Z</time>
      </trkpt>
      <trkpt lat="47.77066" lon="-3.59131">
        <ele>24</ele>
        <time>2018-07-18T13:20:20Z</time>
      </trkpt>
      <trkpt lat="47.77064" lon="-3.59129">
        <ele>24</ele>
        <time>2018-07-18T13:20:21Z</time>
      </trkpt>
      <trkpt lat="47.77062" lon="-3.59128">
        <ele>24</ele>
        <time>2018-07-18T13:20:22Z</time>
      </trkpt>
      <trkpt lat="47.77059" lon="-3.59126">
        <ele>24</ele>
        <time>2018-07-18T13:20:23Z</time>
      </trkpt>
      <trkpt lat="47.77057" lon="-3.59123">
        <ele>24</ele>
        <time>2018-07-18T13:20:24Z</time>
      </trkpt>
      <trkpt lat="47.77054" lon="-3.59122">
        <ele>24</ele>
        <time>2018-07-18T13:20:25Z</time>
      </trkpt>
      <trkpt lat="47.77051" lon="-3.59119">
        <ele>24</ele>
        <time>2018-07-18T13:20:26Z</time>
      </trkpt>
      <trkpt lat="47.77048" lon="-3.59117">
        <ele>23</ele>
        <time>2018-07-18T13:20:27Z</time>
      </trkpt>
      <trkpt lat="47.77044" lon="-3.59114">
        <ele>23</ele>
        <time>2018-07-18T13:20:28Z</time>
      </trkpt>
      <trkpt lat="47.77041" lon="-3.5911">
        <ele>23</ele>
        <time>2018-07-18T13:20:29Z</time>
      </trkpt>
      <trkpt lat="47.77036" lon="-3.59106">
        <ele>23</ele>
        <time>2018-07-18T13:20:30Z</time>
      </trkpt>
      <trkpt lat="47.77031" lon="-3.59101">
        <ele>23</ele>
        <time>2018-07-18T13:20:31Z</time>
      </trkpt>
      <trkpt lat="47.77027" lon="-3.59096">
        <ele>22</ele>
        <time>2018-07-18T13:20:32Z</time>
      </trkpt>
      <trkpt lat="47.77022" lon="-3.59091">
        <ele>22</ele>
        <time>2018-07-18T13:20:33Z</time>
      </trkpt>
      <trkpt lat="47.77019" lon="-3.59085">
        <ele>22</ele>
        <time>2018-07-18T13:20:34Z</time>
      </trkpt>
      <trkpt lat="47.77015" lon="-3.59079">
        <ele>21</ele>
        <time>2018-07-18T13:20:35Z</time>
      </trkpt>
      <trkpt lat="47.77012" lon="-3.59073">
        <ele>21</ele>
        <time>2018-07-18T13:20:36Z</time>
      </trkpt>
      <trkpt lat="47.77008" lon="-3.59066">
        <ele>21</ele>
        <time>2018-07-18T13:20:37Z</time>
      </trkpt>
      <trkpt lat="47.77006" lon="-3.59059">
        <ele>21</ele>
        <time>2018-07-18T13:20:38Z</time>
      </trkpt>
      <trkpt lat="47.77003" lon="-3.59053">
        <ele>21</ele>
        <time>2018-07-18T13:20:39Z</time>
      </trkpt>
      <trkpt lat="47.77001" lon="-3.59046">
        <ele>21</ele>
        <time>2018-07-18T13:20:40Z</time>
      </trkpt>
      <trkpt lat="47.76998" lon="-3.59039">
        <ele>21</ele>
        <time>2018-07-18T13:20:41Z</time>
      </trkpt>
      <trkpt lat="47.76995" lon="-3.59033">
        <ele>21</ele>
        <time>2018-07-18T13:20:42Z</time>
      </trkpt>
      <trkpt lat="47.76992" lon="-3.59027">
        <ele>21</ele>
        <time>2018-07-18T13:20:43Z</time>
      </trkpt>
      <trkpt lat="47.7699" lon="-3.5902">
        <ele>21</ele>
        <time>2018-07-18T13:20:44Z</time>
      </trkpt>
      <trkpt lat="47.76986" lon="-3.59014">
        <ele>21</ele>
        <time>2018-07-18T13:20:45Z</time>
      </trkpt>
      <trkpt lat="47.76984" lon="-3.59007">
        <ele>21</ele>
        <time>2018-07-18T13:20:46Z</time>
      </trkpt>
      <trkpt lat="47.76981" lon="-3.59">
        <ele>20</ele>
        <time>2018-07-18T13:20:47Z</time>
      </trkpt>
      <trkpt lat="47.76978" lon="-3.58993">
        <ele>20</ele>
        <time>2018-07-18T13:20:48Z</time>
      </trkpt>
      <trkpt lat="47.76975" lon="-3.58985">
        <ele>20</ele>
        <time>2018-07-18T13:20:49Z</time>
      </trkpt>
      <trkpt lat="47.76972" lon="-3.58978">
        <ele>20</ele>
        <time>2018-07-18T13:20:50Z</time>
      </trkpt>
      <trkpt lat="47.76969" lon="-3.58971">
        <ele>20</ele>
        <time>2018-07-18T13:20:51Z</time>
      </trkpt>
      <trkpt lat="47.76966" lon="-3.58964">
        <ele>20</ele>
        <time>2018-07-18T13:20:52Z</time>
      </trkpt>
      <trkpt lat="47.76964" lon="-3.58958">
        <ele>20</ele>
        <time>2018-07-18T13:20:53Z</time>
      </trkpt>
      <trkpt lat="47.76962" lon="-3.58952">
        <ele>20</ele>
        <time>2018-07-18T13:20:54Z</time>
      </trkpt>
      <trkpt lat="47.76959" lon="-3.58945">
        <ele>20</ele>
        <time>2018-07-18T13:20:55Z</time>
      </trkpt>
      <trkpt lat="47.76957" lon="-3.58939">
        <ele>20</ele>
        <time>2018-07-18T13:20:56Z</time>
      </trkpt>
      <trkpt lat="47.76955" lon="-3.58932">
        <ele>20</ele>
        <time>2018-07-18T13:20:57Z</time>
      </trkpt>
      <trkpt lat="47.76952" lon="-3.58925">
        <ele>20</ele>
        <time>2018-07-18T13:20:58Z</time>
      </trkpt>
      <trkpt lat="47.76951" lon="-3.58917">
        <ele>20</ele>
        <time>2018-07-18T13:20:59Z</time>
      </trkpt>
      <trkpt lat="47.76949" lon="-3.5891">
        <ele>20</ele>
        <time>2018-07-18T13:21:00Z</time>
      </trkpt>
      <trkpt lat="47.76947" lon="-3.58903">
        <ele>20</ele>
        <time>2018-07-18T13:21:01Z</time>
      </trkpt>
      <trkpt lat="47.76945" lon="-3.58897">
        <ele>20</ele>
        <time>2018-07-18T13:21:02Z</time>
      </trkpt>
      <trkpt lat="47.76944" lon="-3.58891">
        <ele>20</ele>
        <time>2018-07-18T13:21:03Z</time>
      </trkpt>
      <trkpt lat="47.76942" lon="-3.58885">
        <ele>20</ele>
        <time>2018-07-18T13:21:04Z</time>
      </trkpt>
      <trkpt lat="47.76942" lon="-3.58878">
        <ele>20</ele>
        <time>2018-07-18T13:21:05Z</time>
      </trkpt>
      <trkpt lat="47.76941" lon="-3.5887">
        <ele>20</ele>
        <time>2018-07-18T13:21:06Z</time>
      </trkpt>
      <trkpt lat="47.76941" lon="-3.58863">
        <ele>19</ele>
        <time>2018-07-18T13:21:07Z</time>
      </trkpt>
      <trkpt lat="47.7694" lon="-3.58855">
        <ele>19</ele>
        <time>2018-07-18T13:21:08Z</time>
      </trkpt>
      <trkpt lat="47.7694" lon="-3.58847">
        <ele>19</ele>
        <time>2018-07-18T13:21:09Z</time>
      </trkpt>
      <trkpt lat="47.76939" lon="-3.5884">
        <ele>19</ele>
        <time>2018-07-18T13:21:10Z</time>
      </trkpt>
      <trkpt lat="47.76939" lon="-3.58833">
        <ele>18</ele>
        <time>2018-07-18T13:21:11Z</time>
      </trkpt>
      <trkpt lat="47.76938" lon="-3.58827">
        <ele>18</ele>
        <time>2018-07-18T13:21:12Z</time>
      </trkpt>
      <trkpt lat="47.76937" lon="-3.58821">
        <ele>17</ele>
        <time>2018-07-18T13:21:13Z</time>
      </trkpt>
      <trkpt lat="47.76935" lon="-3.58814">
        <ele>17</ele>
        <time>2018-07-18T13:21:14Z</time>
      </trkpt>
      <trkpt lat="47.76933" lon="-3.58809">
        <ele>16</ele>
        <time>2018-07-18T13:21:15Z</time>
      </trkpt>
      <trkpt lat="47.76931" lon="-3.58804">
        <ele>16</ele>
        <time>2018-07-18T13:21:16Z</time>
      </trkpt>
      <trkpt lat="47.76928" lon="-3.58798">
        <ele>16</ele>
        <time>2018-07-18T13:21:17Z</time>
      </trkpt>
      <trkpt lat="47.76927" lon="-3.58792">
        <ele>15</ele>
        <time>2018-07-18T13:21:18Z</time>
      </trkpt>
      <trkpt lat="47.76926" lon="-3.58788">
        <ele>15</ele>
        <time>2018-07-18T13:21:19Z</time>
      </trkpt>
      <trkpt lat="47.76926" lon="-3.58785">
        <ele>15</ele>
        <time>2018-07-18T13:21:20Z</time>
      </trkpt>
      <trkpt lat="47.76926" lon="-3.58784">
        <ele>15</ele>
        <time>2018-07-18T13:21:21Z</time>
      </trkpt>
      <trkpt lat="47.76925" lon="-3.58783">
        <ele>15</ele>
        <time>2018-07-18T13:21:22Z</time>
      </trkpt>
      <trkpt lat="47.76925" lon="-3.58783">
        <ele>15</ele>
        <time>2018-07-18T13:21:23Z</time>
      </trkpt>
      <trkpt lat="47.76925" lon="-3.58783">
        <ele>15</ele>
        <time>2018-07-18T13:21:24Z</time>
      </trkpt>
      <trkpt lat="47.76925" lon="-3.58783">
        <ele>15</ele>
        <time>2018-07-18T13:21:25Z</time>
      </trkpt>
      <trkpt lat="47.76923" lon="-3.58782">
        <ele>15</ele>
        <time>2018-07-18T13:21:26Z</time>
      </trkpt>
      <trkpt lat="47.76922" lon="-3.58782">
        <ele>15</ele>
        <time>2018-07-18T13:21:27Z</time>
      </trkpt>
      <trkpt lat="47.76919" lon="-3.58782">
        <ele>15</ele>
        <time>2018-07-18T13:21:28Z</time>
      </trkpt>
      <trkpt lat="47.76917" lon="-3.58781">
        <ele>15</ele>
        <time>2018-07-18T13:21:29Z</time>
      </trkpt>
      <trkpt lat="47.76915" lon="-3.5878">
        <ele>14</ele>
        <time>2018-07-18T13:21:30Z</time>
      </trkpt>
      <trkpt lat="47.76914" lon="-3.58777">
        <ele>14</ele>
        <time>2018-07-18T13:21:31Z</time>
      </trkpt>
      <trkpt lat="47.76914" lon="-3.58774">
        <ele>14</ele>
        <time>2018-07-18T13:21:32Z</time>
      </trkpt>
      <trkpt lat="47.76914" lon="-3.58771">
        <ele>14</ele>
        <time>2018-07-18T13:21:33Z</time>
      </trkpt>
      <trkpt lat="47.76914" lon="-3.58768">
        <ele>13</ele>
        <time>2018-07-18T13:21:34Z</time>
      </trkpt>
      <trkpt lat="47.76914" lon="-3.58765">
        <ele>13</ele>
        <time>2018-07-18T13:21:35Z</time>
      </trkpt>
      <trkpt lat="47.76913" lon="-3.58762">
        <ele>13</ele>
        <time>2018-07-18T13:21:36Z</time>
      </trkpt>
      <trkpt lat="47.76912" lon="-3.58759">
        <ele>13</ele>
        <time>2018-07-18T13:21:37Z</time>
      </trkpt>
      <trkpt lat="47.7691" lon="-3.58757">
        <ele>13</ele>
        <time>2018-07-18T13:21:38Z</time>
      </trkpt>
      <trkpt lat="47.76909" lon="-3.58754">
        <ele>13</ele>
        <time>2018-07-18T13:21:39Z</time>
      </trkpt>
      <trkpt lat="47.76909" lon="-3.58753">
        <ele>13</ele>
        <time>2018-07-18T13:21:40Z</time>
      </trkpt>
      <trkpt lat="47.76909" lon="-3.58753">
        <ele>13</ele>
        <time>2018-07-18T13:21:41Z</time>
      </trkpt>
      <trkpt lat="47.76909" lon="-3.58753">
        <ele>13</ele>
        <time>2018-07-18T13:21:42Z</time>
      </trkpt>
      <trkpt lat="47.76909" lon="-3.58753">
        <ele>13</ele>
        <time>2018-07-18T13:21:43Z</time>
      </trkpt>
      <trkpt lat="47.76908" lon="-3.58752">
        <ele>13</ele>
        <time>2018-07-18T13:21:44Z</time>
      </trkpt>
      <trkpt lat="47.76908" lon="-3.58751">
        <ele>13</ele>
        <time>2018-07-18T13:21:45Z</time>
      </trkpt>
      <trkpt lat="47.76908" lon="-3.5875">
        <ele>13</ele>
        <time>2018-07-18T13:21:46Z</time>
      </trkpt>
      <trkpt lat="47.76908" lon="-3.58749">
        <ele>13</ele>
        <time>2018-07-18T13:21:47Z</time>
      </trkpt>
      <trkpt lat="47.76908" lon="-3.58749">
        <ele>13</ele>
        <time>2018-07-18T13:21:48Z</time>
      </trkpt>
      <trkpt lat="47.76908" lon="-3.58748">
        <ele>14</ele>
        <time>2018-07-18T13:21:49Z</time>
      </trkpt>
      <trkpt lat="47.76908" lon="-3.58748">
        <ele>14</ele>
        <time>2018-07-18T13:21:50Z</time>
      </trkpt>
      <trkpt lat="47.76908" lon="-3.58747">
        <ele>14</ele>
        <time>2018-07-18T13:21:51Z</time>
      </trkpt>
      <trkpt lat="47.76909" lon="-3.58746">
        <ele>14</ele>
        <time>2018-07-18T13:21:52Z</time>
      </trkpt>
      <trkpt lat="47.76908" lon="-3.58745">
        <ele>15</ele>
        <time>2018-07-18T13:21:53Z</time>
      </trkpt>
      <trkpt lat="47.76909" lon="-3.58744">
        <ele>15</ele>
        <time>2018-07-18T13:21:54Z</time>
      </trkpt>
      <trkpt lat="47.76908" lon="-3.58743">
        <ele>15</ele>
        <time>2018-07-18T13:21:55Z</time>
      </trkpt>
      <trkpt lat="47.76908" lon="-3.58742">
        <ele>15</ele>
        <time>2018-07-18T13:21:56Z</time>
      </trkpt>
      <trkpt lat="47.76908" lon="-3.5874">
        <ele>15</ele>
        <time>2018-07-18T13:21:57Z</time>
      </trkpt>
      <trkpt lat="47.76908" lon="-3.58739">
        <ele>15</ele>
        <time>2018-07-18T13:21:58Z</time>
      </trkpt>
      <trkpt lat="47.76908" lon="-3.58739">
        <ele>15</ele>
        <time>2018-07-18T13:21:59Z</time>
      </trkpt>
      <trkpt lat="47.76908" lon="-3.58738">
        <ele>15</ele>
        <time>2018-07-18T13:22:00Z</time>
      </trkpt>
      <trkpt lat="47.76907" lon="-3.58737">
        <ele>15</ele>
        <time>2018-07-18T13:22:01Z</time>
      </trkpt>
      <trkpt lat="47.76906" lon="-3.58734">
        <ele>15</ele>
        <time>2018-07-18T13:22:02Z</time>
      </trkpt>
      <trkpt lat="47.76904" lon="-3.58731">
        <ele>15</ele>
        <time>2018-07-18T13:22:03Z</time>
      </trkpt>
      <trkpt lat="47.76903" lon="-3.58728">
        <ele>14</ele>
        <time>2018-07-18T13:22:04Z</time>
      </trkpt>
      <trkpt lat="47.76902" lon="-3.58724">
        <ele>14</ele>
        <time>2018-07-18T13:22:05Z</time>
      </trkpt>
      <trkpt lat="47.76902" lon="-3.5872">
        <ele>14</ele>
        <time>2018-07-18T13:22:06Z</time>
      </trkpt>
      <trkpt lat="47.76902" lon="-3.58717">
        <ele>14</ele>
        <time>2018-07-18T13:22:07Z</time>
      </trkpt>
      <trkpt lat="47.76903" lon="-3.58714">
        <ele>14</ele>
        <time>2018-07-18T13:22:08Z</time>
      </trkpt>
      <trkpt lat="47.76904" lon="-3.58711">
        <ele>14</ele>
        <time>2018-07-18T13:22:09Z</time>
      </trkpt>
      <trkpt lat="47.76905" lon="-3.58709">
        <ele>14</ele>
        <time>2018-07-18T13:22:10Z</time>
      </trkpt>
      <trkpt lat="47.76906" lon="-3.58706">
        <ele>14</ele>
        <time>2018-07-18T13:22:11Z</time>
      </trkpt>
      <trkpt lat="47.76907" lon="-3.58704">
        <ele>14</ele>
        <time>2018-07-18T13:22:12Z</time>
      </trkpt>
      <trkpt lat="47.76908" lon="-3.58702">
        <ele>14</ele>
        <time>2018-07-18T13:22:13Z</time>
      </trkpt>
      <trkpt lat="47.76908" lon="-3.587">
        <ele>14</ele>
        <time>2018-07-18T13:22:14Z</time>
      </trkpt>
      <trkpt lat="47.76908" lon="-3.58697">
        <ele>14</ele>
        <time>2018-07-18T13:22:15Z</time>
      </trkpt>
      <trkpt lat="47.76908" lon="-3.58695">
        <ele>14</ele>
        <time>2018-07-18T13:22:16Z</time>
      </trkpt>
      <trkpt lat="47.7691" lon="-3.58693">
        <ele>13</ele>
        <time>2018-07-18T13:22:17Z</time>
      </trkpt>
      <trkpt lat="47.76911" lon="-3.58692">
        <ele>13</ele>
        <time>2018-07-18T13:22:18Z</time>
      </trkpt>
      <trkpt lat="47.76911" lon="-3.58692">
        <ele>13</ele>
        <time>2018-07-18T13:22:19Z</time>
      </trkpt>
      <trkpt lat="47.76911" lon="-3.58692">
        <ele>13</ele>
        <time>2018-07-18T13:22:20Z</time>
      </trkpt>
      <trkpt lat="47.76912" lon="-3.58692">
        <ele>13</ele>
        <time>2018-07-18T13:22:21Z</time>
      </trkpt>
      <trkpt lat="47.76912" lon="-3.58692">
        <ele>13</ele>
        <time>2018-07-18T13:22:22Z</time>
      </trkpt>
      <trkpt lat="47.76912" lon="-3.58691">
        <ele>13</ele>
        <time>2018-07-18T13:22:23Z</time>
      </trkpt>
      <trkpt lat="47.76912" lon="-3.5869">
        <ele>13</ele>
        <time>2018-07-18T13:22:24Z</time>
      </trkpt>
      <trkpt lat="47.76912" lon="-3.58689">
        <ele>13</ele>
        <time>2018-07-18T13:22:25Z</time>
      </trkpt>
      <trkpt lat="47.76913" lon="-3.58688">
        <ele>13</ele>
        <time>2018-07-18T13:22:26Z</time>
      </trkpt>
      <trkpt lat="47.76913" lon="-3.58686">
        <ele>13</ele>
        <time>2018-07-18T13:22:27Z</time>
      </trkpt>
      <trkpt lat="47.76914" lon="-3.58685">
        <ele>13</ele>
        <time>2018-07-18T13:22:28Z</time>
      </trkpt>
      <trkpt lat="47.76915" lon="-3.58684">
        <ele>12</ele>
        <time>2018-07-18T13:22:29Z</time>
      </trkpt>
      <trkpt lat="47.76915" lon="-3.58683">
        <ele>12</ele>
        <time>2018-07-18T13:22:30Z</time>
      </trkpt>
      <trkpt lat="47.76916" lon="-3.58682">
        <ele>12</ele>
        <time>2018-07-18T13:22:31Z</time>
      </trkpt>
      <trkpt lat="47.76917" lon="-3.5868">
        <ele>12</ele>
        <time>2018-07-18T13:22:32Z</time>
      </trkpt>
      <trkpt lat="47.76919" lon="-3.58677">
        <ele>12</ele>
        <time>2018-07-18T13:22:33Z</time>
      </trkpt>
      <trkpt lat="47.7692" lon="-3.58673">
        <ele>12</ele>
        <time>2018-07-18T13:22:34Z</time>
      </trkpt>
      <trkpt lat="47.76922" lon="-3.58669">
        <ele>11</ele>
        <time>2018-07-18T13:22:35Z</time>
      </trkpt>
      <trkpt lat="47.76924" lon="-3.58665">
        <ele>11</ele>
        <time>2018-07-18T13:22:36Z</time>
      </trkpt>
      <trkpt lat="47.76925" lon="-3.58662">
        <ele>11</ele>
        <time>2018-07-18T13:22:37Z</time>
      </trkpt>
      <trkpt lat="47.76925" lon="-3.58661">
        <ele>11</ele>
        <time>2018-07-18T13:22:38Z</time>
      </trkpt>
      <trkpt lat="47.76925" lon="-3.5866">
        <ele>11</ele>
        <time>2018-07-18T13:22:39Z</time>
      </trkpt>
      <trkpt lat="47.76925" lon="-3.58659">
        <ele>10</ele>
        <time>2018-07-18T13:22:40Z</time>
      </trkpt>
      <trkpt lat="47.76925" lon="-3.58659">
        <ele>10</ele>
        <time>2018-07-18T13:22:41Z</time>
      </trkpt>
      <trkpt lat="47.76925" lon="-3.58658">
        <ele>10</ele>
        <time>2018-07-18T13:22:42Z</time>
      </trkpt>
      <trkpt lat="47.76925" lon="-3.58656">
        <ele>10</ele>
        <time>2018-07-18T13:22:43Z</time>
      </trkpt>
      <trkpt lat="47.76924" lon="-3.58655">
        <ele>9</ele>
        <time>2018-07-18T13:22:44Z</time>
      </trkpt>
      <trkpt lat="47.76923" lon="-3.58653">
        <ele>9</ele>
        <time>2018-07-18T13:22:45Z</time>
      </trkpt>
      <trkpt lat="47.76922" lon="-3.5865">
        <ele>9</ele>
        <time>2018-07-18T13:22:46Z</time>
      </trkpt>
      <trkpt lat="47.7692" lon="-3.58647">
        <ele>9</ele>
        <time>2018-07-18T13:22:47Z</time>
      </trkpt>
      <trkpt lat="47.76918" lon="-3.58643">
        <ele>9</ele>
        <time>2018-07-18T13:22:48Z</time>
      </trkpt>
      <trkpt lat="47.76915" lon="-3.5864">
        <ele>9</ele>
        <time>2018-07-18T13:22:49Z</time>
      </trkpt>
      <trkpt lat="47.76913" lon="-3.58637">
        <ele>9</ele>
        <time>2018-07-18T13:22:50Z</time>
      </trkpt>
      <trkpt lat="47.7691" lon="-3.58634">
        <ele>9</ele>
        <time>2018-07-18T13:22:51Z</time>
      </trkpt>
      <trkpt lat="47.76908" lon="-3.58632">
        <ele>9</ele>
        <time>2018-07-18T13:22:52Z</time>
      </trkpt>
      <trkpt lat="47.76906" lon="-3.58631">
        <ele>9</ele>
        <time>2018-07-18T13:22:53Z</time>
      </trkpt>
      <trkpt lat="47.76904" lon="-3.5863">
        <ele>9</ele>
        <time>2018-07-18T13:22:54Z</time>
      </trkpt>
      <trkpt lat="47.76902" lon="-3.5863">
        <ele>9</ele>
        <time>2018-07-18T13:22:55Z</time>
      </trkpt>
      <trkpt lat="47.76901" lon="-3.58629">
        <ele>9</ele>
        <time>2018-07-18T13:22:56Z</time>
      </trkpt>
      <trkpt lat="47.76899" lon="-3.58629">
        <ele>9</ele>
        <time>2018-07-18T13:22:57Z</time>
      </trkpt>
      <trkpt lat="47.76898" lon="-3.58628">
        <ele>9</ele>
        <time>2018-07-18T13:22:58Z</time>
      </trkpt>
      <trkpt lat="47.76897" lon="-3.58627">
        <ele>9</ele>
        <time>2018-07-18T13:22:59Z</time>
      </trkpt>
      <trkpt lat="47.76897" lon="-3.58627">
        <ele>9</ele>
        <time>2018-07-18T13:23:00Z</time>
      </trkpt>
      <trkpt lat="47.76897" lon="-3.58627">
        <ele>9</ele>
        <time>2018-07-18T13:23:01Z</time>
      </trkpt>
      <trkpt lat="47.76896" lon="-3.58627">
        <ele>9</ele>
        <time>2018-07-18T13:23:02Z</time>
      </trkpt>
      <trkpt lat="47.76896" lon="-3.58627">
        <ele>9</ele>
        <time>2018-07-18T13:23:03Z</time>
      </trkpt>
      <trkpt lat="47.76895" lon="-3.58627">
        <ele>9</ele>
        <time>2018-07-18T13:23:04Z</time>
      </trkpt>
      <trkpt lat="47.76895" lon="-3.58627">
        <ele>9</ele>
        <time>2018-07-18T13:23:05Z</time>
      </trkpt>
      <trkpt lat="47.76894" lon="-3.58626">
        <ele>9</ele>
        <time>2018-07-18T13:23:06Z</time>
      </trkpt>
      <trkpt lat="47.76893" lon="-3.58626">
        <ele>9</ele>
        <time>2018-07-18T13:23:07Z</time>
      </trkpt>
      <trkpt lat="47.76892" lon="-3.58626">
        <ele>9</ele>
        <time>2018-07-18T13:23:08Z</time>
      </trkpt>
      <trkpt lat="47.76892" lon="-3.58626">
        <ele>10</ele>
        <time>2018-07-18T13:23:09Z</time>
      </trkpt>
      <trkpt lat="47.7689" lon="-3.58625">
        <ele>10</ele>
        <time>2018-07-18T13:23:10Z</time>
      </trkpt>
      <trkpt lat="47.7689" lon="-3.58624">
        <ele>10</ele>
        <time>2018-07-18T13:23:11Z</time>
      </trkpt>
      <trkpt lat="47.76889" lon="-3.58623">
        <ele>10</ele>
        <time>2018-07-18T13:23:12Z</time>
      </trkpt>
      <trkpt lat="47.76889" lon="-3.58621">
        <ele>10</ele>
        <time>2018-07-18T13:23:13Z</time>
      </trkpt>
      <trkpt lat="47.76888" lon="-3.5862">
        <ele>11</ele>
        <time>2018-07-18T13:23:14Z</time>
      </trkpt>
      <trkpt lat="47.76888" lon="-3.58619">
        <ele>11</ele>
        <time>2018-07-18T13:23:15Z</time>
      </trkpt>
      <trkpt lat="47.76887" lon="-3.58618">
        <ele>11</ele>
        <time>2018-07-18T13:23:16Z</time>
      </trkpt>
      <trkpt lat="47.76887" lon="-3.58618">
        <ele>11</ele>
        <time>2018-07-18T13:23:17Z</time>
      </trkpt>
      <trkpt lat="47.76887" lon="-3.58618">
        <ele>11</ele>
        <time>2018-07-18T13:23:18Z</time>
      </trkpt>
      <trkpt lat="47.76887" lon="-3.58617">
        <ele>11</ele>
        <time>2018-07-18T13:23:19Z</time>
      </trkpt>
      <trkpt lat="47.76886" lon="-3.58616">
        <ele>11</ele>
        <time>2018-07-18T13:23:20Z</time>
      </trkpt>
      <trkpt lat="47.76886" lon="-3.58613">
        <ele>11</ele>
        <time>2018-07-18T13:23:21Z</time>
      </trkpt>
      <trkpt lat="47.76885" lon="-3.58611">
        <ele>11</ele>
        <time>2018-07-18T13:23:22Z</time>
      </trkpt>
      <trkpt lat="47.76883" lon="-3.58609">
        <ele>11</ele>
        <time>2018-07-18T13:23:23Z</time>
      </trkpt>
      <trkpt lat="47.76882" lon="-3.58607">
        <ele>11</ele>
        <time>2018-07-18T13:23:24Z</time>
      </trkpt>
      <trkpt lat="47.76881" lon="-3.58605">
        <ele>11</ele>
        <time>2018-07-18T13:23:25Z</time>
      </trkpt>
      <trkpt lat="47.7688" lon="-3.58605">
        <ele>11</ele>
        <time>2018-07-18T13:23:26Z</time>
      </trkpt>
      <trkpt lat="47.7688" lon="-3.58605">
        <ele>11</ele>
        <time>2018-07-18T13:23:27Z</time>
      </trkpt>
      <trkpt lat="47.7688" lon="-3.58605">
        <ele>11</ele>
        <time>2018-07-18T13:23:28Z</time>
      </trkpt>
      <trkpt lat="47.7688" lon="-3.58605">
        <ele>11</ele>
        <time>2018-07-18T13:23:29Z</time>
      </trkpt>
      <trkpt lat="47.7688" lon="-3.58605">
        <ele>11</ele>
        <time>2018-07-18T13:23:30Z</time>
      </trkpt>
      <trkpt lat="47.76879" lon="-3.58603">
        <ele>11</ele>
        <time>2018-07-18T13:23:31Z</time>
      </trkpt>
      <trkpt lat="47.76877" lon="-3.58602">
        <ele>11</ele>
        <time>2018-07-18T13:23:32Z</time>
      </trkpt>
      <trkpt lat="47.76876" lon="-3.58601">
        <ele>11</ele>
        <time>2018-07-18T13:23:33Z</time>
      </trkpt>
      <trkpt lat="47.76874" lon="-3.58601">
        <ele>11</ele>
        <time>2018-07-18T13:23:34Z</time>
      </trkpt>
      <trkpt lat="47.76871" lon="-3.58601">
        <ele>11</ele>
        <time>2018-07-18T13:23:35Z</time>
      </trkpt>
      <trkpt lat="47.76868" lon="-3.58602">
        <ele>11</ele>
        <time>2018-07-18T13:23:36Z</time>
      </trkpt>
      <trkpt lat="47.76865" lon="-3.58602">
        <ele>11</ele>
        <time>2018-07-18T13:23:37Z</time>
      </trkpt>
      <trkpt lat="47.76863" lon="-3.586">
        <ele>10</ele>
        <time>2018-07-18T13:23:38Z</time>
      </trkpt>
      <trkpt lat="47.76863" lon="-3.58596">
        <ele>10</ele>
        <time>2018-07-18T13:23:39Z</time>
      </trkpt>
      <trkpt lat="47.76863" lon="-3.58593">
        <ele>10</ele>
        <time>2018-07-18T13:23:40Z</time>
      </trkpt>
      <trkpt lat="47.76863" lon="-3.58589">
        <ele>10</ele>
        <time>2018-07-18T13:23:41Z</time>
      </trkpt>
      <trkpt lat="47.76863" lon="-3.58585">
        <ele>10</ele>
        <time>2018-07-18T13:23:42Z</time>
      </trkpt>
      <trkpt lat="47.76862" lon="-3.58581">
        <ele>10</ele>
        <time>2018-07-18T13:23:43Z</time>
      </trkpt>
      <trkpt lat="47.76862" lon="-3.58576">
        <ele>10</ele>
        <time>2018-07-18T13:23:44Z</time>
      </trkpt>
      <trkpt lat="47.76861" lon="-3.58572">
        <ele>10</ele>
        <time>2018-07-18T13:23:45Z</time>
      </trkpt>
      <trkpt lat="47.76861" lon="-3.58568">
        <ele>11</ele>
        <time>2018-07-18T13:23:46Z</time>
      </trkpt>
      <trkpt lat="47.7686" lon="-3.58564">
        <ele>11</ele>
        <time>2018-07-18T13:23:47Z</time>
      </trkpt>
      <trkpt lat="47.76859" lon="-3.5856">
        <ele>11</ele>
        <time>2018-07-18T13:23:48Z</time>
      </trkpt>
      <trkpt lat="47.76858" lon="-3.58555">
        <ele>11</ele>
        <time>2018-07-18T13:23:49Z</time>
      </trkpt>
      <trkpt lat="47.76856" lon="-3.58552">
        <ele>11</ele>
        <time>2018-07-18T13:23:50Z</time>
      </trkpt>
      <trkpt lat="47.76854" lon="-3.5855">
        <ele>10</ele>
        <time>2018-07-18T13:23:51Z</time>
      </trkpt>
      <trkpt lat="47.76852" lon="-3.58546">
        <ele>10</ele>
        <time>2018-07-18T13:23:52Z</time>
      </trkpt>
      <trkpt lat="47.76851" lon="-3.58541">
        <ele>10</ele>
        <time>2018-07-18T13:23:53Z</time>
      </trkpt>
      <trkpt lat="47.7685" lon="-3.58536">
        <ele>10</ele>
        <time>2018-07-18T13:23:54Z</time>
      </trkpt>
      <trkpt lat="47.7685" lon="-3.58531">
        <ele>10</ele>
        <time>2018-07-18T13:23:55Z</time>
      </trkpt>
      <trkpt lat="47.76851" lon="-3.58526">
        <ele>10</ele>
        <time>2018-07-18T13:23:56Z</time>
      </trkpt>
      <trkpt lat="47.76852" lon="-3.58521">
        <ele>10</ele>
        <time>2018-07-18T13:23:57Z</time>
      </trkpt>
      <trkpt lat="47.76854" lon="-3.58518">
        <ele>10</ele>
        <time>2018-07-18T13:23:58Z</time>
      </trkpt>
      <trkpt lat="47.76856" lon="-3.58516">
        <ele>10</ele>
        <time>2018-07-18T13:23:59Z</time>
      </trkpt>
      <trkpt lat="47.76859" lon="-3.58516">
        <ele>10</ele>
        <time>2018-07-18T13:24:00Z</time>
      </trkpt>
      <trkpt lat="47.76861" lon="-3.58515">
        <ele>10</ele>
        <time>2018-07-18T13:24:01Z</time>
      </trkpt>
      <trkpt lat="47.76864" lon="-3.58515">
        <ele>10</ele>
        <time>2018-07-18T13:24:02Z</time>
      </trkpt>
      <trkpt lat="47.76867" lon="-3.58515">
        <ele>10</ele>
        <time>2018-07-18T13:24:03Z</time>
      </trkpt>
      <trkpt lat="47.76869" lon="-3.58514">
        <ele>10</ele>
        <time>2018-07-18T13:24:04Z</time>
      </trkpt>
      <trkpt lat="47.76871" lon="-3.58511">
        <ele>10</ele>
        <time>2018-07-18T13:24:05Z</time>
      </trkpt>
      <trkpt lat="47.76872" lon="-3.58508">
        <ele>10</ele>
        <time>2018-07-18T13:24:06Z</time>
      </trkpt>
      <trkpt lat="47.76872" lon="-3.58505">
        <ele>11</ele>
        <time>2018-07-18T13:24:07Z</time>
      </trkpt>
      <trkpt lat="47.7687" lon="-3.58502">
        <ele>11</ele>
        <time>2018-07-18T13:24:08Z</time>
      </trkpt>
      <trkpt lat="47.76867" lon="-3.58498">
        <ele>11</ele>
        <time>2018-07-18T13:24:09Z</time>
      </trkpt>
      <trkpt lat="47.76866" lon="-3.58494">
        <ele>11</ele>
        <time>2018-07-18T13:24:10Z</time>
      </trkpt>
      <trkpt lat="47.76865" lon="-3.58489">
        <ele>11</ele>
        <time>2018-07-18T13:24:11Z</time>
      </trkpt>
      <trkpt lat="47.76865" lon="-3.58483">
        <ele>11</ele>
        <time>2018-07-18T13:24:12Z</time>
      </trkpt>
      <trkpt lat="47.76865" lon="-3.58478">
        <ele>11</ele>
        <time>2018-07-18T13:24:13Z</time>
      </trkpt>
      <trkpt lat="47.76866" lon="-3.58473">
        <ele>11</ele>
        <time>2018-07-18T13:24:14Z</time>
      </trkpt>
      <trkpt lat="47.76868" lon="-3.58469">
        <ele>11</ele>
        <time>2018-07-18T13:24:15Z</time>
      </trkpt>
      <trkpt lat="47.7687" lon="-3.58465">
        <ele>11</ele>
        <time>2018-07-18T13:24:16Z</time>
      </trkpt>
      <trkpt lat="47.76872" lon="-3.58461">
        <ele>11</ele>
        <time>2018-07-18T13:24:17Z</time>
      </trkpt>
      <trkpt lat="47.76874" lon="-3.58457">
        <ele>11</ele>
        <time>2018-07-18T13:24:18Z</time>
      </trkpt>
      <trkpt lat="47.76876" lon="-3.58452">
        <ele>11</ele>
        <time>2018-07-18T13:24:19Z</time>
      </trkpt>
      <trkpt lat="47.76877" lon="-3.58448">
        <ele>11</ele>
        <time>2018-07-18T13:24:20Z</time>
      </trkpt>
      <trkpt lat="47.76877" lon="-3.58442">
        <ele>11</ele>
        <time>2018-07-18T13:24:21Z</time>
      </trkpt>
      <trkpt lat="47.76877" lon="-3.58437">
        <ele>11</ele>
        <time>2018-07-18T13:24:22Z</time>
      </trkpt>
      <trkpt lat="47.76877" lon="-3.58433">
        <ele>11</ele>
        <time>2018-07-18T13:24:23Z</time>
      </trkpt>
      <trkpt lat="47.76876" lon="-3.58429">
        <ele>10</ele>
        <time>2018-07-18T13:24:24Z</time>
      </trkpt>
      <trkpt lat="47.76875" lon="-3.58425">
        <ele>10</ele>
        <time>2018-07-18T13:24:25Z</time>
      </trkpt>
      <trkpt lat="47.76873" lon="-3.58421">
        <ele>9</ele>
        <time>2018-07-18T13:24:26Z</time>
      </trkpt>
      <trkpt lat="47.76871" lon="-3.58418">
        <ele>9</ele>
        <time>2018-07-18T13:24:27Z</time>
      </trkpt>
      <trkpt lat="47.76868" lon="-3.58416">
        <ele>9</ele>
        <time>2018-07-18T13:24:28Z</time>
      </trkpt>
      <trkpt lat="47.76866" lon="-3.58413">
        <ele>8</ele>
        <time>2018-07-18T13:24:29Z</time>
      </trkpt>
      <trkpt lat="47.76864" lon="-3.58408">
        <ele>8</ele>
        <time>2018-07-18T13:24:30Z</time>
      </trkpt>
      <trkpt lat="47.76862" lon="-3.58404">
        <ele>8</ele>
        <time>2018-07-18T13:24:31Z</time>
      </trkpt>
      <trkpt lat="47.7686" lon="-3.584">
        <ele>8</ele>
        <time>2018-07-18T13:24:32Z</time>
      </trkpt>
      <trkpt lat="47.76857" lon="-3.58396">
        <ele>8</ele>
        <time>2018-07-18T13:24:33Z</time>
      </trkpt>
      <trkpt lat="47.76856" lon="-3.58392">
        <ele>8</ele>
        <time>2018-07-18T13:24:34Z</time>
      </trkpt>
      <trkpt lat="47.76854" lon="-3.58389">
        <ele>9</ele>
        <time>2018-07-18T13:24:35Z</time>
      </trkpt>
      <trkpt lat="47.76852" lon="-3.58386">
        <ele>9</ele>
        <time>2018-07-18T13:24:36Z</time>
      </trkpt>
      <trkpt lat="47.7685" lon="-3.58382">
        <ele>9</ele>
        <time>2018-07-18T13:24:37Z</time>
      </trkpt>
      <trkpt lat="47.76849" lon="-3.58378">
        <ele>10</ele>
        <time>2018-07-18T13:24:38Z</time>
      </trkpt>
      <trkpt lat="47.76849" lon="-3.58375">
        <ele>10</ele>
        <time>2018-07-18T13:24:39Z</time>
      </trkpt>
      <trkpt lat="47.7685" lon="-3.58372">
        <ele>10</ele>
        <time>2018-07-18T13:24:40Z</time>
      </trkpt>
      <trkpt lat="47.76851" lon="-3.58368">
        <ele>11</ele>
        <time>2018-07-18T13:24:41Z</time>
      </trkpt>
      <trkpt lat="47.76852" lon="-3.58365">
        <ele>11</ele>
        <time>2018-07-18T13:24:42Z</time>
      </trkpt>
      <trkpt lat="47.76853" lon="-3.58362">
        <ele>11</ele>
        <time>2018-07-18T13:24:43Z</time>
      </trkpt>
      <trkpt lat="47.76854" lon="-3.58358">
        <ele>12</ele>
        <time>2018-07-18T13:24:44Z</time>
      </trkpt>
      <trkpt lat="47.76856" lon="-3.58354">
        <ele>12</ele>
        <time>2018-07-18T13:24:45Z</time>
      </trkpt>
      <trkpt lat="47.76857" lon="-3.58351">
        <ele>12</ele>
        <time>2018-07-18T13:24:46Z</time>
      </trkpt>
      <trkpt lat="47.76858" lon="-3.58347">
        <ele>12</ele>
        <time>2018-07-18T13:24:47Z</time>
      </trkpt>
      <trkpt lat="47.7686" lon="-3.58343">
        <ele>13</ele>
        <time>2018-07-18T13:24:48Z</time>
      </trkpt>
      <trkpt lat="47.76861" lon="-3.58338">
        <ele>13</ele>
        <time>2018-07-18T13:24:49Z</time>
      </trkpt>
      <trkpt lat="47.76861" lon="-3.58334">
        <ele>13</ele>
        <time>2018-07-18T13:24:50Z</time>
      </trkpt>
      <trkpt lat="47.76862" lon="-3.5833">
        <ele>13</ele>
        <time>2018-07-18T13:24:51Z</time>
      </trkpt>
      <trkpt lat="47.76863" lon="-3.58327">
        <ele>13</ele>
        <time>2018-07-18T13:24:52Z</time>
      </trkpt>
      <trkpt lat="47.76863" lon="-3.58322">
        <ele>13</ele>
        <time>2018-07-18T13:24:53Z</time>
      </trkpt>
      <trkpt lat="47.76863" lon="-3.58318">
        <ele>14</ele>
        <time>2018-07-18T13:24:54Z</time>
      </trkpt>
      <trkpt lat="47.76862" lon="-3.58313">
        <ele>14</ele>
        <time>2018-07-18T13:24:55Z</time>
      </trkpt>
      <trkpt lat="47.7686" lon="-3.58309">
        <ele>14</ele>
        <time>2018-07-18T13:24:56Z</time>
      </trkpt>
      <trkpt lat="47.76858" lon="-3.58306">
        <ele>14</ele>
        <time>2018-07-18T13:24:57Z</time>
      </trkpt>
      <trkpt lat="47.76856" lon="-3.58303">
        <ele>14</ele>
        <time>2018-07-18T13:24:58Z</time>
      </trkpt>
      <trkpt lat="47.76853" lon="-3.58299">
        <ele>14</ele>
        <time>2018-07-18T13:24:59Z</time>
      </trkpt>
      <trkpt lat="47.7685" lon="-3.58296">
        <ele>14</ele>
        <time>2018-07-18T13:25:00Z</time>
      </trkpt>
      <trkpt lat="47.76848" lon="-3.58293">
        <ele>14</ele>
        <time>2018-07-18T13:25:01Z</time>
      </trkpt>
      <trkpt lat="47.76845" lon="-3.58289">
        <ele>14</ele>
        <time>2018-07-18T13:25:02Z</time>
      </trkpt>
      <trkpt lat="47.76843" lon="-3.58286">
        <ele>13</ele>
        <time>2018-07-18T13:25:03Z</time>
      </trkpt>
      <trkpt lat="47.76841" lon="-3.58283">
        <ele>13</ele>
        <time>2018-07-18T13:25:04Z</time>
      </trkpt>
      <trkpt lat="47.76839" lon="-3.58279">
        <ele>13</ele>
        <time>2018-07-18T13:25:05Z</time>
      </trkpt>
      <trkpt lat="47.76837" lon="-3.58276">
        <ele>13</ele>
        <time>2018-07-18T13:25:06Z</time>
      </trkpt>
      <trkpt lat="47.76835" lon="-3.58272">
        <ele>13</ele>
        <time>2018-07-18T13:25:07Z</time>
      </trkpt>
      <trkpt lat="47.76834" lon="-3.58268">
        <ele>13</ele>
        <time>2018-07-18T13:25:08Z</time>
      </trkpt>
      <trkpt lat="47.76833" lon="-3.58264">
        <ele>13</ele>
        <time>2018-07-18T13:25:09Z</time>
      </trkpt>
      <trkpt lat="47.76832" lon="-3.5826">
        <ele>14</ele>
        <time>2018-07-18T13:25:10Z</time>
      </trkpt>
      <trkpt lat="47.76831" lon="-3.58256">
        <ele>14</ele>
        <time>2018-07-18T13:25:11Z</time>
      </trkpt>
      <trkpt lat="47.7683" lon="-3.58252">
        <ele>14</ele>
        <time>2018-07-18T13:25:12Z</time>
      </trkpt>
      <trkpt lat="47.76829" lon="-3.58248">
        <ele>14</ele>
        <time>2018-07-18T13:25:13Z</time>
      </trkpt>
      <trkpt lat="47.76828" lon="-3.58243">
        <ele>14</ele>
        <time>2018-07-18T13:25:14Z</time>
      </trkpt>
      <trkpt lat="47.76828" lon="-3.58238">
        <ele>14</ele>
        <time>2018-07-18T13:25:15Z</time>
      </trkpt>
      <trkpt lat="47.76828" lon="-3.58233">
        <ele>14</ele>
        <time>2018-07-18T13:25:16Z</time>
      </trkpt>
      <trkpt lat="47.76827" lon="-3.58227">
        <ele>14</ele>
        <time>2018-07-18T13:25:17Z</time>
      </trkpt>
      <trkpt lat="47.76827" lon="-3.58223">
        <ele>14</ele>
        <time>2018-07-18T13:25:18Z</time>
      </trkpt>
      <trkpt lat="47.76827" lon="-3.58219">
        <ele>14</ele>
        <time>2018-07-18T13:25:19Z</time>
      </trkpt>
      <trkpt lat="47.76827" lon="-3.58217">
        <ele>14</ele>
        <time>2018-07-18T13:25:20Z</time>
      </trkpt>
      <trkpt lat="47.76827" lon="-3.58216">
        <ele>14</ele>
        <time>2018-07-18T13:25:21Z</time>
      </trkpt>
      <trkpt lat="47.76827" lon="-3.58216">
        <ele>14</ele>
        <time>2018-07-18T13:25:22Z</time>
      </trkpt>
      <trkpt lat="47.76827" lon="-3.58216">
        <ele>14</ele>
        <time>2018-07-18T13:25:23Z</time>
      </trkpt>
      <trkpt lat="47.76827" lon="-3.58216">
        <ele>14</ele>
        <time>2018-07-18T13:25:24Z</time>
      </trkpt>
      <trkpt lat="47.76827" lon="-3.58215">
        <ele>14</ele>
        <time>2018-07-18T13:25:25Z</time>
      </trkpt>
      <trkpt lat="47.76827" lon="-3.58213">
        <ele>14</ele>
        <time>2018-07-18T13:25:26Z</time>
      </trkpt>
      <trkpt lat="47.76827" lon="-3.58212">
        <ele>14</ele>
        <time>2018-07-18T13:25:27Z</time>
      </trkpt>
      <trkpt lat="47.76828" lon="-3.5821">
        <ele>14</ele>
        <time>2018-07-18T13:25:28Z</time>
      </trkpt>
      <trkpt lat="47.76829" lon="-3.58209">
        <ele>14</ele>
        <time>2018-07-18T13:25:29Z</time>
      </trkpt>
      <trkpt lat="47.76829" lon="-3.58207">
        <ele>14</ele>
        <time>2018-07-18T13:25:30Z</time>
      </trkpt>
      <trkpt lat="47.76828" lon="-3.58206">
        <ele>14</ele>
        <time>2018-07-18T13:25:31Z</time>
      </trkpt>
      <trkpt lat="47.76828" lon="-3.58206">
        <ele>14</ele>
        <time>2018-07-18T13:25:32Z</time>
      </trkpt>
      <trkpt lat="47.76828" lon="-3.58205">
        <ele>14</ele>
        <time>2018-07-18T13:25:33Z</time>
      </trkpt>
      <trkpt lat="47.76828" lon="-3.58205">
        <ele>14</ele>
        <time>2018-07-18T13:25:34Z</time>
      </trkpt>
      <trkpt lat="47.76828" lon="-3.58205">
        <ele>14</ele>
        <time>2018-07-18T13:25:35Z</time>
      </trkpt>
      <trkpt lat="47.76827" lon="-3.58204">
        <ele>14</ele>
        <time>2018-07-18T13:25:36Z</time>
      </trkpt>
      <trkpt lat="47.76827" lon="-3.58202">
        <ele>14</ele>
        <time>2018-07-18T13:25:37Z</time>
      </trkpt>
      <trkpt lat="47.76826" lon="-3.58199">
        <ele>14</ele>
        <time>2018-07-18T13:25:38Z</time>
      </trkpt>
      <trkpt lat="47.76825" lon="-3.58196">
        <ele>14</ele>
        <time>2018-07-18T13:25:39Z</time>
      </trkpt>
      <trkpt lat="47.76824" lon="-3.58192">
        <ele>14</ele>
        <time>2018-07-18T13:25:40Z</time>
      </trkpt>
      <trkpt lat="47.76822" lon="-3.58187">
        <ele>14</ele>
        <time>2018-07-18T13:25:41Z</time>
      </trkpt>
      <trkpt lat="47.76821" lon="-3.58183">
        <ele>14</ele>
        <time>2018-07-18T13:25:42Z</time>
      </trkpt>
      <trkpt lat="47.7682" lon="-3.58178">
        <ele>14</ele>
        <time>2018-07-18T13:25:43Z</time>
      </trkpt>
      <trkpt lat="47.76819" lon="-3.58173">
        <ele>14</ele>
        <time>2018-07-18T13:25:44Z</time>
      </trkpt>
      <trkpt lat="47.76818" lon="-3.58168">
        <ele>14</ele>
        <time>2018-07-18T13:25:45Z</time>
      </trkpt>
      <trkpt lat="47.76817" lon="-3.58163">
        <ele>14</ele>
        <time>2018-07-18T13:25:46Z</time>
      </trkpt>
      <trkpt lat="47.76817" lon="-3.58158">
        <ele>14</ele>
        <time>2018-07-18T13:25:47Z</time>
      </trkpt>
      <trkpt lat="47.76816" lon="-3.58153">
        <ele>15</ele>
        <time>2018-07-18T13:25:48Z</time>
      </trkpt>
      <trkpt lat="47.76816" lon="-3.58147">
        <ele>15</ele>
        <time>2018-07-18T13:25:49Z</time>
      </trkpt>
      <trkpt lat="47.76815" lon="-3.58141">
        <ele>15</ele>
        <time>2018-07-18T13:25:50Z</time>
      </trkpt>
      <trkpt lat="47.76814" lon="-3.58136">
        <ele>15</ele>
        <time>2018-07-18T13:25:51Z</time>
      </trkpt>
      <trkpt lat="47.76814" lon="-3.58131">
        <ele>15</ele>
        <time>2018-07-18T13:25:52Z</time>
      </trkpt>
      <trkpt lat="47.76814" lon="-3.58125">
        <ele>15</ele>
        <time>2018-07-18T13:25:53Z</time>
      </trkpt>
      <trkpt lat="47.76814" lon="-3.5812">
        <ele>15</ele>
        <time>2018-07-18T13:25:54Z</time>
      </trkpt>
      <trkpt lat="47.76813" lon="-3.58114">
        <ele>15</ele>
        <time>2018-07-18T13:25:55Z</time>
      </trkpt>
      <trkpt lat="47.76813" lon="-3.58108">
        <ele>15</ele>
        <time>2018-07-18T13:25:56Z</time>
      </trkpt>
      <trkpt lat="47.76813" lon="-3.58102">
        <ele>15</ele>
        <time>2018-07-18T13:25:57Z</time>
      </trkpt>
      <trkpt lat="47.76813" lon="-3.58097">
        <ele>15</ele>
        <time>2018-07-18T13:25:58Z</time>
      </trkpt>
      <trkpt lat="47.76813" lon="-3.58091">
        <ele>15</ele>
        <time>2018-07-18T13:25:59Z</time>
      </trkpt>
      <trkpt lat="47.76813" lon="-3.58084">
        <ele>16</ele>
        <time>2018-07-18T13:26:00Z</time>
      </trkpt>
      <trkpt lat="47.76813" lon="-3.58078">
        <ele>16</ele>
        <time>2018-07-18T13:26:01Z</time>
      </trkpt>
      <trkpt lat="47.76813" lon="-3.58072">
        <ele>16</ele>
        <time>2018-07-18T13:26:02Z</time>
      </trkpt>
      <trkpt lat="47.76813" lon="-3.58065">
        <ele>16</ele>
        <time>2018-07-18T13:26:03Z</time>
      </trkpt>
      <trkpt lat="47.76814" lon="-3.58059">
        <ele>16</ele>
        <time>2018-07-18T13:26:04Z</time>
      </trkpt>
      <trkpt lat="47.76814" lon="-3.58053">
        <ele>16</ele>
        <time>2018-07-18T13:26:05Z</time>
      </trkpt>
      <trkpt lat="47.76815" lon="-3.58046">
        <ele>16</ele>
        <time>2018-07-18T13:26:06Z</time>
      </trkpt>
      <trkpt lat="47.76815" lon="-3.58041">
        <ele>16</ele>
        <time>2018-07-18T13:26:07Z</time>
      </trkpt>
      <trkpt lat="47.76816" lon="-3.58035">
        <ele>16</ele>
        <time>2018-07-18T13:26:08Z</time>
      </trkpt>
      <trkpt lat="47.76817" lon="-3.58029">
        <ele>16</ele>
        <time>2018-07-18T13:26:09Z</time>
      </trkpt>
      <trkpt lat="47.76817" lon="-3.58023">
        <ele>16</ele>
        <time>2018-07-18T13:26:10Z</time>
      </trkpt>
      <trkpt lat="47.76818" lon="-3.58017">
        <ele>15</ele>
        <time>2018-07-18T13:26:11Z</time>
      </trkpt>
      <trkpt lat="47.76818" lon="-3.58012">
        <ele>15</ele>
        <time>2018-07-18T13:26:12Z</time>
      </trkpt>
      <trkpt lat="47.76819" lon="-3.58006">
        <ele>15</ele>
        <time>2018-07-18T13:26:13Z</time>
      </trkpt>
      <trkpt lat="47.76819" lon="-3.58">
        <ele>15</ele>
        <time>2018-07-18T13:26:14Z</time>
      </trkpt>
      <trkpt lat="47.7682" lon="-3.57995">
        <ele>15</ele>
        <time>2018-07-18T13:26:15Z</time>
      </trkpt>
      <trkpt lat="47.76821" lon="-3.5799">
        <ele>15</ele>
        <time>2018-07-18T13:26:16Z</time>
      </trkpt>
      <trkpt lat="47.76823" lon="-3.57984">
        <ele>15</ele>
        <time>2018-07-18T13:26:17Z</time>
      </trkpt>
      <trkpt lat="47.76824" lon="-3.5798">
        <ele>15</ele>
        <time>2018-07-18T13:26:18Z</time>
      </trkpt>
      <trkpt lat="47.76826" lon="-3.57976">
        <ele>15</ele>
        <time>2018-07-18T13:26:19Z</time>
      </trkpt>
      <trkpt lat="47.76827" lon="-3.57973">
        <ele>15</ele>
        <time>2018-07-18T13:26:20Z</time>
      </trkpt>
      <trkpt lat="47.76828" lon="-3.57972">
        <ele>15</ele>
        <time>2018-07-18T13:26:21Z</time>
      </trkpt>
      <trkpt lat="47.76828" lon="-3.57972">
        <ele>15</ele>
        <time>2018-07-18T13:26:22Z</time>
      </trkpt>
      <trkpt lat="47.76828" lon="-3.57971">
        <ele>15</ele>
        <time>2018-07-18T13:26:23Z</time>
      </trkpt>
      <trkpt lat="47.76828" lon="-3.57971">
        <ele>15</ele>
        <time>2018-07-18T13:26:24Z</time>
      </trkpt>
      <trkpt lat="47.76828" lon="-3.57971">
        <ele>15</ele>
        <time>2018-07-18T13:26:25Z</time>
      </trkpt>
      <trkpt lat="47.7683" lon="-3.5797">
        <ele>15</ele>
        <time>2018-07-18T13:26:26Z</time>
      </trkpt>
      <trkpt lat="47.76831" lon="-3.57967">
        <ele>14</ele>
        <time>2018-07-18T13:26:27Z</time>
      </trkpt>
      <trkpt lat="47.76833" lon="-3.57965">
        <ele>14</ele>
        <time>2018-07-18T13:26:28Z</time>
      </trkpt>
      <trkpt lat="47.76835" lon="-3.57962">
        <ele>14</ele>
        <time>2018-07-18T13:26:29Z</time>
      </trkpt>
      <trkpt lat="47.76837" lon="-3.57958">
        <ele>14</ele>
        <time>2018-07-18T13:26:30Z</time>
      </trkpt>
      <trkpt lat="47.76839" lon="-3.57955">
        <ele>14</ele>
        <time>2018-07-18T13:26:31Z</time>
      </trkpt>
      <trkpt lat="47.76842" lon="-3.57952">
        <ele>14</ele>
        <time>2018-07-18T13:26:32Z</time>
      </trkpt>
      <trkpt lat="47.76846" lon="-3.57949">
        <ele>14</ele>
        <time>2018-07-18T13:26:33Z</time>
      </trkpt>
      <trkpt lat="47.7685" lon="-3.57947">
        <ele>14</ele>
        <time>2018-07-18T13:26:34Z</time>
      </trkpt>
      <trkpt lat="47.76855" lon="-3.57946">
        <ele>14</ele>
        <time>2018-07-18T13:26:35Z</time>
      </trkpt>
      <trkpt lat="47.7686" lon="-3.57944">
        <ele>14</ele>
        <time>2018-07-18T13:26:36Z</time>
      </trkpt>
      <trkpt lat="47.76866" lon="-3.57941">
        <ele>14</ele>
        <time>2018-07-18T13:26:37Z</time>
      </trkpt>
      <trkpt lat="47.76872" lon="-3.57937">
        <ele>14</ele>
        <time>2018-07-18T13:26:38Z</time>
      </trkpt>
      <trkpt lat="47.76877" lon="-3.57931">
        <ele>14</ele>
        <time>2018-07-18T13:26:39Z</time>
      </trkpt>
      <trkpt lat="47.76882" lon="-3.57925">
        <ele>14</ele>
        <time>2018-07-18T13:26:40Z</time>
      </trkpt>
      <trkpt lat="47.76887" lon="-3.57918">
        <ele>13</ele>
        <time>2018-07-18T13:26:41Z</time>
      </trkpt>
      <trkpt lat="47.76891" lon="-3.5791">
        <ele>13</ele>
        <time>2018-07-18T13:26:42Z</time>
      </trkpt>
      <trkpt lat="47.76894" lon="-3.57901">
        <ele>12</ele>
        <time>2018-07-18T13:26:43Z</time>
      </trkpt>
      <trkpt lat="47.76896" lon="-3.57892">
        <ele>12</ele>
        <time>2018-07-18T13:26:44Z</time>
      </trkpt>
      <trkpt lat="47.76895" lon="-3.57884">
        <ele>11</ele>
        <time>2018-07-18T13:26:45Z</time>
      </trkpt>
      <trkpt lat="47.76893" lon="-3.57876">
        <ele>11</ele>
        <time>2018-07-18T13:26:46Z</time>
      </trkpt>
      <trkpt lat="47.76891" lon="-3.57872">
        <ele>11</ele>
        <time>2018-07-18T13:26:47Z</time>
      </trkpt>
      <trkpt lat="47.76888" lon="-3.5787">
        <ele>11</ele>
        <time>2018-07-18T13:26:48Z</time>
      </trkpt>
      <trkpt lat="47.76885" lon="-3.57868">
        <ele>10</ele>
        <time>2018-07-18T13:26:49Z</time>
      </trkpt>
      <trkpt lat="47.76882" lon="-3.57867">
        <ele>10</ele>
        <time>2018-07-18T13:26:50Z</time>
      </trkpt>
      <trkpt lat="47.76879" lon="-3.57865">
        <ele>10</ele>
        <time>2018-07-18T13:26:51Z</time>
      </trkpt>
      <trkpt lat="47.76876" lon="-3.57864">
        <ele>10</ele>
        <time>2018-07-18T13:26:52Z</time>
      </trkpt>
      <trkpt lat="47.76874" lon="-3.57863">
        <ele>10</ele>
        <time>2018-07-18T13:26:53Z</time>
      </trkpt>
      <trkpt lat="47.76872" lon="-3.57861">
        <ele>10</ele>
        <time>2018-07-18T13:26:54Z</time>
      </trkpt>
      <trkpt lat="47.7687" lon="-3.5786">
        <ele>9</ele>
        <time>2018-07-18T13:26:55Z</time>
      </trkpt>
      <trkpt lat="47.76867" lon="-3.57858">
        <ele>9</ele>
        <time>2018-07-18T13:26:56Z</time>
      </trkpt>
      <trkpt lat="47.76865" lon="-3.57856">
        <ele>9</ele>
        <time>2018-07-18T13:26:57Z</time>
      </trkpt>
      <trkpt lat="47.76862" lon="-3.57854">
        <ele>9</ele>
        <time>2018-07-18T13:26:58Z</time>
      </trkpt>
      <trkpt lat="47.7686" lon="-3.57852">
        <ele>9</ele>
        <time>2018-07-18T13:26:59Z</time>
      </trkpt>
      <trkpt lat="47.76858" lon="-3.5785">
        <ele>9</ele>
        <time>2018-07-18T13:27:00Z</time>
      </trkpt>
      <trkpt lat="47.76856" lon="-3.57847">
        <ele>10</ele>
        <time>2018-07-18T13:27:01Z</time>
      </trkpt>
      <trkpt lat="47.76854" lon="-3.57844">
        <ele>10</ele>
        <time>2018-07-18T13:27:02Z</time>
      </trkpt>
      <trkpt lat="47.76853" lon="-3.57841">
        <ele>10</ele>
        <time>2018-07-18T13:27:03Z</time>
      </trkpt>
      <trkpt lat="47.76852" lon="-3.57837">
        <ele>10</ele>
        <time>2018-07-18T13:27:04Z</time>
      </trkpt>
      <trkpt lat="47.7685" lon="-3.57834">
        <ele>10</ele>
        <time>2018-07-18T13:27:05Z</time>
      </trkpt>
      <trkpt lat="47.7685" lon="-3.5783">
        <ele>10</ele>
        <time>2018-07-18T13:27:06Z</time>
      </trkpt>
      <trkpt lat="47.7685" lon="-3.57826">
        <ele>10</ele>
        <time>2018-07-18T13:27:07Z</time>
      </trkpt>
      <trkpt lat="47.76849" lon="-3.57822">
        <ele>10</ele>
        <time>2018-07-18T13:27:08Z</time>
      </trkpt>
      <trkpt lat="47.76848" lon="-3.5782">
        <ele>11</ele>
        <time>2018-07-18T13:27:09Z</time>
      </trkpt>
      <trkpt lat="47.76847" lon="-3.57816">
        <ele>11</ele>
        <time>2018-07-18T13:27:10Z</time>
      </trkpt>
      <trkpt lat="47.76847" lon="-3.57812">
        <ele>11</ele>
        <time>2018-07-18T13:27:11Z</time>
      </trkpt>
      <trkpt lat="47.76847" lon="-3.57809">
        <ele>11</ele>
        <time>2018-07-18T13:27:12Z</time>
      </trkpt>
      <trkpt lat="47.76847" lon="-3.57805">
        <ele>11</ele>
        <time>2018-07-18T13:27:13Z</time>
      </trkpt>
      <trkpt lat="47.76847" lon="-3.57801">
        <ele>11</ele>
        <time>2018-07-18T13:27:14Z</time>
      </trkpt>
      <trkpt lat="47.76847" lon="-3.57797">
        <ele>11</ele>
        <time>2018-07-18T13:27:15Z</time>
      </trkpt>
      <trkpt lat="47.76848" lon="-3.57793">
        <ele>11</ele>
        <time>2018-07-18T13:27:16Z</time>
      </trkpt>
      <trkpt lat="47.7685" lon="-3.5779">
        <ele>11</ele>
        <time>2018-07-18T13:27:17Z</time>
      </trkpt>
      <trkpt lat="47.76851" lon="-3.57787">
        <ele>11</ele>
        <time>2018-07-18T13:27:18Z</time>
      </trkpt>
      <trkpt lat="47.76853" lon="-3.57784">
        <ele>11</ele>
        <time>2018-07-18T13:27:19Z</time>
      </trkpt>
      <trkpt lat="47.76854" lon="-3.57781">
        <ele>12</ele>
        <time>2018-07-18T13:27:20Z</time>
      </trkpt>
      <trkpt lat="47.76856" lon="-3.57778">
        <ele>12</ele>
        <time>2018-07-18T13:27:21Z</time>
      </trkpt>
      <trkpt lat="47.76857" lon="-3.57775">
        <ele>12</ele>
        <time>2018-07-18T13:27:22Z</time>
      </trkpt>
      <trkpt lat="47.76859" lon="-3.57772">
        <ele>12</ele>
        <time>2018-07-18T13:27:23Z</time>
      </trkpt>
      <trkpt lat="47.7686" lon="-3.57769">
        <ele>12</ele>
        <time>2018-07-18T13:27:24Z</time>
      </trkpt>
      <trkpt lat="47.76862" lon="-3.57766">
        <ele>12</ele>
        <time>2018-07-18T13:27:25Z</time>
      </trkpt>
      <trkpt lat="47.76863" lon="-3.57763">
        <ele>13</ele>
        <time>2018-07-18T13:27:26Z</time>
      </trkpt>
      <trkpt lat="47.76865" lon="-3.5776">
        <ele>13</ele>
        <time>2018-07-18T13:27:27Z</time>
      </trkpt>
      <trkpt lat="47.76867" lon="-3.57759">
        <ele>13</ele>
        <time>2018-07-18T13:27:28Z</time>
      </trkpt>
      <trkpt lat="47.76869" lon="-3.57757">
        <ele>13</ele>
        <time>2018-07-18T13:27:29Z</time>
      </trkpt>
      <trkpt lat="47.76871" lon="-3.57755">
        <ele>13</ele>
        <time>2018-07-18T13:27:30Z</time>
      </trkpt>
      <trkpt lat="47.76873" lon="-3.57753">
        <ele>14</ele>
        <time>2018-07-18T13:27:31Z</time>
      </trkpt>
      <trkpt lat="47.76876" lon="-3.57751">
        <ele>14</ele>
        <time>2018-07-18T13:27:32Z</time>
      </trkpt>
      <trkpt lat="47.76877" lon="-3.57748">
        <ele>14</ele>
        <time>2018-07-18T13:27:33Z</time>
      </trkpt>
      <trkpt lat="47.76877" lon="-3.57746">
        <ele>14</ele>
        <time>2018-07-18T13:27:34Z</time>
      </trkpt>
      <trkpt lat="47.76877" lon="-3.57746">
        <ele>14</ele>
        <time>2018-07-18T13:27:35Z</time>
      </trkpt>
      <trkpt lat="47.76878" lon="-3.57745">
        <ele>14</ele>
        <time>2018-07-18T13:27:36Z</time>
      </trkpt>
      <trkpt lat="47.76878" lon="-3.57745">
        <ele>14</ele>
        <time>2018-07-18T13:27:37Z</time>
      </trkpt>
      <trkpt lat="47.76878" lon="-3.57745">
        <ele>14</ele>
        <time>2018-07-18T13:27:38Z</time>
      </trkpt>
      <trkpt lat="47.76882" lon="-3.57745">
        <ele>14</ele>
        <time>2018-07-18T13:27:39Z</time>
      </trkpt>
      <trkpt lat="47.76883" lon="-3.57745">
        <ele>14</ele>
        <time>2018-07-18T13:27:40Z</time>
      </trkpt>
      <trkpt lat="47.76885" lon="-3.57745">
        <ele>15</ele>
        <time>2018-07-18T13:27:41Z</time>
      </trkpt>
      <trkpt lat="47.76887" lon="-3.57744">
        <ele>15</ele>
        <time>2018-07-18T13:27:42Z</time>
      </trkpt>
      <trkpt lat="47.76887" lon="-3.57744">
        <ele>15</ele>
        <time>2018-07-18T13:27:43Z</time>
      </trkpt>
      <trkpt lat="47.76891" lon="-3.57741">
        <ele>15</ele>
        <time>2018-07-18T13:27:44Z</time>
      </trkpt>
      <trkpt lat="47.76893" lon="-3.5774">
        <ele>15</ele>
        <time>2018-07-18T13:27:45Z</time>
      </trkpt>
      <trkpt lat="47.76895" lon="-3.5774">
        <ele>15</ele>
        <time>2018-07-18T13:27:46Z</time>
      </trkpt>
      <trkpt lat="47.76896" lon="-3.57739">
        <ele>15</ele>
        <time>2018-07-18T13:27:47Z</time>
      </trkpt>
      <trkpt lat="47.76899" lon="-3.57738">
        <ele>15</ele>
        <time>2018-07-18T13:27:48Z</time>
      </trkpt>
      <trkpt lat="47.769" lon="-3.57737">
        <ele>16</ele>
        <time>2018-07-18T13:27:49Z</time>
      </trkpt>
      <trkpt lat="47.769" lon="-3.57737">
        <ele>16</ele>
        <time>2018-07-18T13:27:50Z</time>
      </trkpt>
      <trkpt lat="47.76903" lon="-3.57734">
        <ele>16</ele>
        <time>2018-07-18T13:27:51Z</time>
      </trkpt>
      <trkpt lat="47.76905" lon="-3.57732">
        <ele>16</ele>
        <time>2018-07-18T13:27:52Z</time>
      </trkpt>
      <trkpt lat="47.76907" lon="-3.5773">
        <ele>16</ele>
        <time>2018-07-18T13:27:53Z</time>
      </trkpt>
      <trkpt lat="47.76909" lon="-3.57729">
        <ele>16</ele>
        <time>2018-07-18T13:27:54Z</time>
      </trkpt>
      <trkpt lat="47.7691" lon="-3.57728">
        <ele>17</ele>
        <time>2018-07-18T13:27:55Z</time>
      </trkpt>
      <trkpt lat="47.7691" lon="-3.57728">
        <ele>17</ele>
        <time>2018-07-18T13:27:56Z</time>
      </trkpt>
      <trkpt lat="47.76914" lon="-3.57724">
        <ele>17</ele>
        <time>2018-07-18T13:27:57Z</time>
      </trkpt>
      <trkpt lat="47.76915" lon="-3.57721">
        <ele>17</ele>
        <time>2018-07-18T13:27:58Z</time>
      </trkpt>
      <trkpt lat="47.76917" lon="-3.57717">
        <ele>17</ele>
        <time>2018-07-18T13:27:59Z</time>
      </trkpt>
      <trkpt lat="47.76916" lon="-3.57712">
        <ele>17</ele>
        <time>2018-07-18T13:28:00Z</time>
      </trkpt>
      <trkpt lat="47.76916" lon="-3.57707">
        <ele>17</ele>
        <time>2018-07-18T13:28:01Z</time>
      </trkpt>
      <trkpt lat="47.76915" lon="-3.57703">
        <ele>17</ele>
        <time>2018-07-18T13:28:02Z</time>
      </trkpt>
      <trkpt lat="47.76914" lon="-3.57699">
        <ele>17</ele>
        <time>2018-07-18T13:28:03Z</time>
      </trkpt>
      <trkpt lat="47.76913" lon="-3.57694">
        <ele>17</ele>
        <time>2018-07-18T13:28:04Z</time>
      </trkpt>
      <trkpt lat="47.76913" lon="-3.57689">
        <ele>17</ele>
        <time>2018-07-18T13:28:05Z</time>
      </trkpt>
      <trkpt lat="47.76914" lon="-3.57684">
        <ele>17</ele>
        <time>2018-07-18T13:28:06Z</time>
      </trkpt>
      <trkpt lat="47.76915" lon="-3.57677">
        <ele>17</ele>
        <time>2018-07-18T13:28:07Z</time>
      </trkpt>
      <trkpt lat="47.76916" lon="-3.5767">
        <ele>17</ele>
        <time>2018-07-18T13:28:08Z</time>
      </trkpt>
      <trkpt lat="47.76918" lon="-3.57663">
        <ele>17</ele>
        <time>2018-07-18T13:28:09Z</time>
      </trkpt>
      <trkpt lat="47.76919" lon="-3.57656">
        <ele>17</ele>
        <time>2018-07-18T13:28:10Z</time>
      </trkpt>
      <trkpt lat="47.76921" lon="-3.57649">
        <ele>17</ele>
        <time>2018-07-18T13:28:11Z</time>
      </trkpt>
      <trkpt lat="47.76923" lon="-3.57642">
        <ele>17</ele>
        <time>2018-07-18T13:28:12Z</time>
      </trkpt>
      <trkpt lat="47.76923" lon="-3.57642">
        <ele>17</ele>
        <time>2018-07-18T13:28:13Z</time>
      </trkpt>
      <trkpt lat="47.76926" lon="-3.57631">
        <ele>17</ele>
        <time>2018-07-18T13:28:14Z</time>
      </trkpt>
      <trkpt lat="47.76926" lon="-3.57625">
        <ele>17</ele>
        <time>2018-07-18T13:28:15Z</time>
      </trkpt>
      <trkpt lat="47.76927" lon="-3.5762">
        <ele>18</ele>
        <time>2018-07-18T13:28:16Z</time>
      </trkpt>
      <trkpt lat="47.76927" lon="-3.57615">
        <ele>18</ele>
        <time>2018-07-18T13:28:17Z</time>
      </trkpt>
      <trkpt lat="47.76928" lon="-3.5761">
        <ele>18</ele>
        <time>2018-07-18T13:28:18Z</time>
      </trkpt>
      <trkpt lat="47.76929" lon="-3.57605">
        <ele>18</ele>
        <time>2018-07-18T13:28:19Z</time>
      </trkpt>
      <trkpt lat="47.76929" lon="-3.57599">
        <ele>18</ele>
        <time>2018-07-18T13:28:20Z</time>
      </trkpt>
      <trkpt lat="47.76929" lon="-3.57599">
        <ele>18</ele>
        <time>2018-07-18T13:28:21Z</time>
      </trkpt>
      <trkpt lat="47.76932" lon="-3.57586">
        <ele>18</ele>
        <time>2018-07-18T13:28:22Z</time>
      </trkpt>
      <trkpt lat="47.76932" lon="-3.57586">
        <ele>18</ele>
        <time>2018-07-18T13:28:23Z</time>
      </trkpt>
      <trkpt lat="47.76934" lon="-3.57572">
        <ele>17</ele>
        <time>2018-07-18T13:28:24Z</time>
      </trkpt>
      <trkpt lat="47.76936" lon="-3.57565">
        <ele>17</ele>
        <time>2018-07-18T13:28:25Z</time>
      </trkpt>
      <trkpt lat="47.76937" lon="-3.57558">
        <ele>17</ele>
        <time>2018-07-18T13:28:26Z</time>
      </trkpt>
      <trkpt lat="47.76939" lon="-3.5755">
        <ele>17</ele>
        <time>2018-07-18T13:28:27Z</time>
      </trkpt>
      <trkpt lat="47.76939" lon="-3.5755">
        <ele>17</ele>
        <time>2018-07-18T13:28:28Z</time>
      </trkpt>
      <trkpt lat="47.76941" lon="-3.57543">
        <ele>17</ele>
        <time>2018-07-18T13:28:29Z</time>
      </trkpt>
      <trkpt lat="47.76944" lon="-3.5753">
        <ele>17</ele>
        <time>2018-07-18T13:28:30Z</time>
      </trkpt>
      <trkpt lat="47.76946" lon="-3.57524">
        <ele>17</ele>
        <time>2018-07-18T13:28:31Z</time>
      </trkpt>
      <trkpt lat="47.76947" lon="-3.57518">
        <ele>17</ele>
        <time>2018-07-18T13:28:32Z</time>
      </trkpt>
      <trkpt lat="47.76949" lon="-3.57512">
        <ele>17</ele>
        <time>2018-07-18T13:28:33Z</time>
      </trkpt>
      <trkpt lat="47.76949" lon="-3.57512">
        <ele>17</ele>
        <time>2018-07-18T13:28:34Z</time>
      </trkpt>
      <trkpt lat="47.76952" lon="-3.575">
        <ele>17</ele>
        <time>2018-07-18T13:28:35Z</time>
      </trkpt>
      <trkpt lat="47.76955" lon="-3.57494">
        <ele>17</ele>
        <time>2018-07-18T13:28:36Z</time>
      </trkpt>
      <trkpt lat="47.76958" lon="-3.5749">
        <ele>17</ele>
        <time>2018-07-18T13:28:37Z</time>
      </trkpt>
      <trkpt lat="47.7696" lon="-3.57485">
        <ele>17</ele>
        <time>2018-07-18T13:28:38Z</time>
      </trkpt>
      <trkpt lat="47.76963" lon="-3.5748">
        <ele>17</ele>
        <time>2018-07-18T13:28:39Z</time>
      </trkpt>
      <trkpt lat="47.76965" lon="-3.57474">
        <ele>17</ele>
        <time>2018-07-18T13:28:40Z</time>
      </trkpt>
      <trkpt lat="47.76965" lon="-3.57474">
        <ele>17</ele>
        <time>2018-07-18T13:28:41Z</time>
      </trkpt>
      <trkpt lat="47.76966" lon="-3.57461">
        <ele>17</ele>
        <time>2018-07-18T13:28:42Z</time>
      </trkpt>
      <trkpt lat="47.76964" lon="-3.57455">
        <ele>17</ele>
        <time>2018-07-18T13:28:43Z</time>
      </trkpt>
      <trkpt lat="47.76961" lon="-3.57449">
        <ele>16</ele>
        <time>2018-07-18T13:28:44Z</time>
      </trkpt>
      <trkpt lat="47.76959" lon="-3.57442">
        <ele>16</ele>
        <time>2018-07-18T13:28:45Z</time>
      </trkpt>
      <trkpt lat="47.76957" lon="-3.57435">
        <ele>16</ele>
        <time>2018-07-18T13:28:46Z</time>
      </trkpt>
      <trkpt lat="47.76957" lon="-3.57435">
        <ele>16</ele>
        <time>2018-07-18T13:28:47Z</time>
      </trkpt>
      <trkpt lat="47.76957" lon="-3.5742">
        <ele>16</ele>
        <time>2018-07-18T13:28:48Z</time>
      </trkpt>
      <trkpt lat="47.76959" lon="-3.57413">
        <ele>16</ele>
        <time>2018-07-18T13:28:49Z</time>
      </trkpt>
      <trkpt lat="47.76959" lon="-3.57406">
        <ele>16</ele>
        <time>2018-07-18T13:28:50Z</time>
      </trkpt>
      <trkpt lat="47.7696" lon="-3.57399">
        <ele>16</ele>
        <time>2018-07-18T13:28:51Z</time>
      </trkpt>
      <trkpt lat="47.7696" lon="-3.57391">
        <ele>15</ele>
        <time>2018-07-18T13:28:52Z</time>
      </trkpt>
      <trkpt lat="47.76961" lon="-3.57384">
        <ele>15</ele>
        <time>2018-07-18T13:28:53Z</time>
      </trkpt>
      <trkpt lat="47.76962" lon="-3.57378">
        <ele>15</ele>
        <time>2018-07-18T13:28:54Z</time>
      </trkpt>
      <trkpt lat="47.76965" lon="-3.57374">
        <ele>14</ele>
        <time>2018-07-18T13:28:55Z</time>
      </trkpt>
      <trkpt lat="47.76968" lon="-3.5737">
        <ele>14</ele>
        <time>2018-07-18T13:28:56Z</time>
      </trkpt>
      <trkpt lat="47.76969" lon="-3.57367">
        <ele>14</ele>
        <time>2018-07-18T13:28:57Z</time>
      </trkpt>
      <trkpt lat="47.76971" lon="-3.57365">
        <ele>14</ele>
        <time>2018-07-18T13:28:58Z</time>
      </trkpt>
      <trkpt lat="47.76973" lon="-3.57362">
        <ele>13</ele>
        <time>2018-07-18T13:28:59Z</time>
      </trkpt>
      <trkpt lat="47.76975" lon="-3.5736">
        <ele>13</ele>
        <time>2018-07-18T13:29:00Z</time>
      </trkpt>
      <trkpt lat="47.76977" lon="-3.5736">
        <ele>13</ele>
        <time>2018-07-18T13:29:01Z</time>
      </trkpt>
      <trkpt lat="47.76979" lon="-3.57361">
        <ele>13</ele>
        <time>2018-07-18T13:29:02Z</time>
      </trkpt>
      <trkpt lat="47.76981" lon="-3.57363">
        <ele>13</ele>
        <time>2018-07-18T13:29:03Z</time>
      </trkpt>
      <trkpt lat="47.76981" lon="-3.57363">
        <ele>13</ele>
        <time>2018-07-18T13:29:04Z</time>
      </trkpt>
      <trkpt lat="47.76983" lon="-3.57363">
        <ele>12</ele>
        <time>2018-07-18T13:29:05Z</time>
      </trkpt>
      <trkpt lat="47.76983" lon="-3.57363">
        <ele>12</ele>
        <time>2018-07-18T13:29:06Z</time>
      </trkpt>
      <trkpt lat="47.76983" lon="-3.57363">
        <ele>12</ele>
        <time>2018-07-18T13:29:07Z</time>
      </trkpt>
      <trkpt lat="47.76983" lon="-3.57363">
        <ele>12</ele>
        <time>2018-07-18T13:29:08Z</time>
      </trkpt>
      <trkpt lat="47.76985" lon="-3.57363">
        <ele>12</ele>
        <time>2018-07-18T13:29:09Z</time>
      </trkpt>
      <trkpt lat="47.76987" lon="-3.57363">
        <ele>12</ele>
        <time>2018-07-18T13:29:10Z</time>
      </trkpt>
      <trkpt lat="47.76988" lon="-3.57363">
        <ele>12</ele>
        <time>2018-07-18T13:29:11Z</time>
      </trkpt>
      <trkpt lat="47.7699" lon="-3.57363">
        <ele>12</ele>
        <time>2018-07-18T13:29:12Z</time>
      </trkpt>
      <trkpt lat="47.76991" lon="-3.57364">
        <ele>12</ele>
        <time>2018-07-18T13:29:13Z</time>
      </trkpt>
      <trkpt lat="47.76993" lon="-3.57363">
        <ele>12</ele>
        <time>2018-07-18T13:29:14Z</time>
      </trkpt>
      <trkpt lat="47.76995" lon="-3.57363">
        <ele>12</ele>
        <time>2018-07-18T13:29:15Z</time>
      </trkpt>
      <trkpt lat="47.76997" lon="-3.57363">
        <ele>12</ele>
        <time>2018-07-18T13:29:16Z</time>
      </trkpt>
      <trkpt lat="47.76999" lon="-3.57363">
        <ele>13</ele>
        <time>2018-07-18T13:29:17Z</time>
      </trkpt>
      <trkpt lat="47.77001" lon="-3.57364">
        <ele>13</ele>
        <time>2018-07-18T13:29:18Z</time>
      </trkpt>
      <trkpt lat="47.77003" lon="-3.57364">
        <ele>13</ele>
        <time>2018-07-18T13:29:19Z</time>
      </trkpt>
      <trkpt lat="47.77006" lon="-3.57364">
        <ele>13</ele>
        <time>2018-07-18T13:29:20Z</time>
      </trkpt>
      <trkpt lat="47.77008" lon="-3.57364">
        <ele>14</ele>
        <time>2018-07-18T13:29:21Z</time>
      </trkpt>
      <trkpt lat="47.7701" lon="-3.57364">
        <ele>14</ele>
        <time>2018-07-18T13:29:22Z</time>
      </trkpt>
      <trkpt lat="47.77012" lon="-3.57364">
        <ele>14</ele>
        <time>2018-07-18T13:29:23Z</time>
      </trkpt>
      <trkpt lat="47.77014" lon="-3.57364">
        <ele>14</ele>
        <time>2018-07-18T13:29:24Z</time>
      </trkpt>
      <trkpt lat="47.77016" lon="-3.57364">
        <ele>14</ele>
        <time>2018-07-18T13:29:25Z</time>
      </trkpt>
      <trkpt lat="47.77018" lon="-3.57364">
        <ele>14</ele>
        <time>2018-07-18T13:29:26Z</time>
      </trkpt>
      <trkpt lat="47.7702" lon="-3.57364">
        <ele>15</ele>
        <time>2018-07-18T13:29:27Z</time>
      </trkpt>
      <trkpt lat="47.77022" lon="-3.57364">
        <ele>15</ele>
        <time>2018-07-18T13:29:28Z</time>
      </trkpt>
      <trkpt lat="47.77024" lon="-3.57364">
        <ele>15</ele>
        <time>2018-07-18T13:29:29Z</time>
      </trkpt>
      <trkpt lat="47.77026" lon="-3.57365">
        <ele>15</ele>
        <time>2018-07-18T13:29:30Z</time>
      </trkpt>
      <trkpt lat="47.77028" lon="-3.57366">
        <ele>15</ele>
        <time>2018-07-18T13:29:31Z</time>
      </trkpt>
      <trkpt lat="47.7703" lon="-3.57366">
        <ele>16</ele>
        <time>2018-07-18T13:29:32Z</time>
      </trkpt>
      <trkpt lat="47.77032" lon="-3.57367">
        <ele>16</ele>
        <time>2018-07-18T13:29:33Z</time>
      </trkpt>
      <trkpt lat="47.77034" lon="-3.57368">
        <ele>16</ele>
        <time>2018-07-18T13:29:34Z</time>
      </trkpt>
      <trkpt lat="47.77036" lon="-3.5737">
        <ele>16</ele>
        <time>2018-07-18T13:29:35Z</time>
      </trkpt>
      <trkpt lat="47.77038" lon="-3.57371">
        <ele>16</ele>
        <time>2018-07-18T13:29:36Z</time>
      </trkpt>
      <trkpt lat="47.7704" lon="-3.57373">
        <ele>16</ele>
        <time>2018-07-18T13:29:37Z</time>
      </trkpt>
      <trkpt lat="47.77041" lon="-3.57373">
        <ele>17</ele>
        <time>2018-07-18T13:29:38Z</time>
      </trkpt>
      <trkpt lat="47.77043" lon="-3.57375">
        <ele>17</ele>
        <time>2018-07-18T13:29:39Z</time>
      </trkpt>
      <trkpt lat="47.77045" lon="-3.57376">
        <ele>17</ele>
        <time>2018-07-18T13:29:40Z</time>
      </trkpt>
      <trkpt lat="47.77047" lon="-3.57378">
        <ele>17</ele>
        <time>2018-07-18T13:29:41Z</time>
      </trkpt>
      <trkpt lat="47.77049" lon="-3.57379">
        <ele>17</ele>
        <time>2018-07-18T13:29:42Z</time>
      </trkpt>
      <trkpt lat="47.7705" lon="-3.5738">
        <ele>17</ele>
        <time>2018-07-18T13:29:43Z</time>
      </trkpt>
      <trkpt lat="47.77051" lon="-3.57381">
        <ele>17</ele>
        <time>2018-07-18T13:29:44Z</time>
      </trkpt>
      <trkpt lat="47.77053" lon="-3.57382">
        <ele>17</ele>
        <time>2018-07-18T13:29:45Z</time>
      </trkpt>
      <trkpt lat="47.77054" lon="-3.57383">
        <ele>17</ele>
        <time>2018-07-18T13:29:46Z</time>
      </trkpt>
      <trkpt lat="47.77056" lon="-3.57384">
        <ele>17</ele>
        <time>2018-07-18T13:29:47Z</time>
      </trkpt>
      <trkpt lat="47.77058" lon="-3.57385">
        <ele>17</ele>
        <time>2018-07-18T13:29:48Z</time>
      </trkpt>
      <trkpt lat="47.77059" lon="-3.57386">
        <ele>17</ele>
        <time>2018-07-18T13:29:49Z</time>
      </trkpt>
      <trkpt lat="47.7706" lon="-3.57387">
        <ele>17</ele>
        <time>2018-07-18T13:29:50Z</time>
      </trkpt>
      <trkpt lat="47.77061" lon="-3.57388">
        <ele>17</ele>
        <time>2018-07-18T13:29:51Z</time>
      </trkpt>
      <trkpt lat="47.77063" lon="-3.57389">
        <ele>18</ele>
        <time>2018-07-18T13:29:52Z</time>
      </trkpt>
      <trkpt lat="47.77064" lon="-3.57391">
        <ele>18</ele>
        <time>2018-07-18T13:29:53Z</time>
      </trkpt>
      <trkpt lat="47.77066" lon="-3.57392">
        <ele>18</ele>
        <time>2018-07-18T13:29:54Z</time>
      </trkpt>
      <trkpt lat="47.77068" lon="-3.57393">
        <ele>18</ele>
        <time>2018-07-18T13:29:55Z</time>
      </trkpt>
      <trkpt lat="47.77069" lon="-3.57395">
        <ele>18</ele>
        <time>2018-07-18T13:29:56Z</time>
      </trkpt>
      <trkpt lat="47.77071" lon="-3.57396">
        <ele>18</ele>
        <time>2018-07-18T13:29:57Z</time>
      </trkpt>
      <trkpt lat="47.77072" lon="-3.57398">
        <ele>18</ele>
        <time>2018-07-18T13:29:58Z</time>
      </trkpt>
      <trkpt lat="47.77074" lon="-3.57399">
        <ele>18</ele>
        <time>2018-07-18T13:29:59Z</time>
      </trkpt>
      <trkpt lat="47.77076" lon="-3.57401">
        <ele>18</ele>
        <time>2018-07-18T13:30:00Z</time>
      </trkpt>
      <trkpt lat="47.77078" lon="-3.57402">
        <ele>18</ele>
        <time>2018-07-18T13:30:01Z</time>
      </trkpt>
      <trkpt lat="47.7708" lon="-3.57404">
        <ele>19</ele>
        <time>2018-07-18T13:30:02Z</time>
      </trkpt>
      <trkpt lat="47.77082" lon="-3.57405">
        <ele>19</ele>
        <time>2018-07-18T13:30:03Z</time>
      </trkpt>
      <trkpt lat="47.77084" lon="-3.57407">
        <ele>19</ele>
        <time>2018-07-18T13:30:04Z</time>
      </trkpt>
      <trkpt lat="47.77086" lon="-3.57408">
        <ele>19</ele>
        <time>2018-07-18T13:30:05Z</time>
      </trkpt>
      <trkpt lat="47.77088" lon="-3.57409">
        <ele>19</ele>
        <time>2018-07-18T13:30:06Z</time>
      </trkpt>
      <trkpt lat="47.7709" lon="-3.5741">
        <ele>20</ele>
        <time>2018-07-18T13:30:07Z</time>
      </trkpt>
      <trkpt lat="47.77092" lon="-3.57411">
        <ele>20</ele>
        <time>2018-07-18T13:30:08Z</time>
      </trkpt>
      <trkpt lat="47.77094" lon="-3.57412">
        <ele>20</ele>
        <time>2018-07-18T13:30:09Z</time>
      </trkpt>
      <trkpt lat="47.77096" lon="-3.57413">
        <ele>21</ele>
        <time>2018-07-18T13:30:10Z</time>
      </trkpt>
      <trkpt lat="47.77098" lon="-3.57413">
        <ele>21</ele>
        <time>2018-07-18T13:30:11Z</time>
      </trkpt>
      <trkpt lat="47.771" lon="-3.57414">
        <ele>21</ele>
        <time>2018-07-18T13:30:12Z</time>
      </trkpt>
      <trkpt lat="47.77102" lon="-3.57414">
        <ele>22</ele>
        <time>2018-07-18T13:30:13Z</time>
      </trkpt>
      <trkpt lat="47.77104" lon="-3.57414">
        <ele>22</ele>
        <time>2018-07-18T13:30:14Z</time>
      </trkpt>
      <trkpt lat="47.77106" lon="-3.57415">
        <ele>22</ele>
        <time>2018-07-18T13:30:15Z</time>
      </trkpt>
      <trkpt lat="47.77108" lon="-3.57415">
        <ele>22</ele>
        <time>2018-07-18T13:30:16Z</time>
      </trkpt>
      <trkpt lat="47.7711" lon="-3.57416">
        <ele>23</ele>
        <time>2018-07-18T13:30:17Z</time>
      </trkpt>
      <trkpt lat="47.77112" lon="-3.57416">
        <ele>23</ele>
        <time>2018-07-18T13:30:18Z</time>
      </trkpt>
      <trkpt lat="47.77115" lon="-3.57416">
        <ele>23</ele>
        <time>2018-07-18T13:30:19Z</time>
      </trkpt>
      <trkpt lat="47.77117" lon="-3.57417">
        <ele>24</ele>
        <time>2018-07-18T13:30:20Z</time>
      </trkpt>
      <trkpt lat="47.77119" lon="-3.57418">
        <ele>24</ele>
        <time>2018-07-18T13:30:21Z</time>
      </trkpt>
      <trkpt lat="47.77122" lon="-3.57418">
        <ele>24</ele>
        <time>2018-07-18T13:30:22Z</time>
      </trkpt>
      <trkpt lat="47.77124" lon="-3.57417">
        <ele>25</ele>
        <time>2018-07-18T13:30:23Z</time>
      </trkpt>
      <trkpt lat="47.77125" lon="-3.57416">
        <ele>25</ele>
        <time>2018-07-18T13:30:24Z</time>
      </trkpt>
      <trkpt lat="47.77127" lon="-3.57415">
        <ele>25</ele>
        <time>2018-07-18T13:30:25Z</time>
      </trkpt>
      <trkpt lat="47.77128" lon="-3.57415">
        <ele>25</ele>
        <time>2018-07-18T13:30:26Z</time>
      </trkpt>
      <trkpt lat="47.77128" lon="-3.57415">
        <ele>25</ele>
        <time>2018-07-18T13:30:27Z</time>
      </trkpt>
      <trkpt lat="47.77128" lon="-3.57415">
        <ele>26</ele>
        <time>2018-07-18T13:30:28Z</time>
      </trkpt>
      <trkpt lat="47.77128" lon="-3.57415">
        <ele>26</ele>
        <time>2018-07-18T13:30:29Z</time>
      </trkpt>
      <trkpt lat="47.77129" lon="-3.57415">
        <ele>26</ele>
        <time>2018-07-18T13:30:30Z</time>
      </trkpt>
      <trkpt lat="47.7713" lon="-3.57414">
        <ele>26</ele>
        <time>2018-07-18T13:30:31Z</time>
      </trkpt>
      <trkpt lat="47.77132" lon="-3.57413">
        <ele>26</ele>
        <time>2018-07-18T13:30:32Z</time>
      </trkpt>
      <trkpt lat="47.77134" lon="-3.57413">
        <ele>26</ele>
        <time>2018-07-18T13:30:33Z</time>
      </trkpt>
      <trkpt lat="47.77136" lon="-3.57413">
        <ele>26</ele>
        <time>2018-07-18T13:30:34Z</time>
      </trkpt>
      <trkpt lat="47.77139" lon="-3.57413">
        <ele>26</ele>
        <time>2018-07-18T13:30:35Z</time>
      </trkpt>
      <trkpt lat="47.77141" lon="-3.57413">
        <ele>27</ele>
        <time>2018-07-18T13:30:36Z</time>
      </trkpt>
      <trkpt lat="47.77143" lon="-3.57414">
        <ele>27</ele>
        <time>2018-07-18T13:30:37Z</time>
      </trkpt>
      <trkpt lat="47.77145" lon="-3.57416">
        <ele>27</ele>
        <time>2018-07-18T13:30:38Z</time>
      </trkpt>
      <trkpt lat="47.77147" lon="-3.57417">
        <ele>27</ele>
        <time>2018-07-18T13:30:39Z</time>
      </trkpt>
      <trkpt lat="47.77148" lon="-3.57418">
        <ele>28</ele>
        <time>2018-07-18T13:30:40Z</time>
      </trkpt>
      <trkpt lat="47.77149" lon="-3.57419">
        <ele>28</ele>
        <time>2018-07-18T13:30:41Z</time>
      </trkpt>
      <trkpt lat="47.7715" lon="-3.5742">
        <ele>28</ele>
        <time>2018-07-18T13:30:42Z</time>
      </trkpt>
      <trkpt lat="47.7715" lon="-3.5742">
        <ele>28</ele>
        <time>2018-07-18T13:30:43Z</time>
      </trkpt>
      <trkpt lat="47.77151" lon="-3.5742">
        <ele>28</ele>
        <time>2018-07-18T13:30:44Z</time>
      </trkpt>
      <trkpt lat="47.77151" lon="-3.5742">
        <ele>28</ele>
        <time>2018-07-18T13:30:45Z</time>
      </trkpt>
      <trkpt lat="47.77151" lon="-3.5742">
        <ele>28</ele>
        <time>2018-07-18T13:30:46Z</time>
      </trkpt>
      <trkpt lat="47.77152" lon="-3.57419">
        <ele>29</ele>
        <time>2018-07-18T13:30:47Z</time>
      </trkpt>
      <trkpt lat="47.77152" lon="-3.57418">
        <ele>29</ele>
        <time>2018-07-18T13:30:48Z</time>
      </trkpt>
      <trkpt lat="47.77153" lon="-3.57416">
        <ele>29</ele>
        <time>2018-07-18T13:30:49Z</time>
      </trkpt>
      <trkpt lat="47.77154" lon="-3.57412">
        <ele>29</ele>
        <time>2018-07-18T13:30:50Z</time>
      </trkpt>
      <trkpt lat="47.77154" lon="-3.57409">
        <ele>29</ele>
        <time>2018-07-18T13:30:51Z</time>
      </trkpt>
      <trkpt lat="47.77154" lon="-3.57405">
        <ele>29</ele>
        <time>2018-07-18T13:30:52Z</time>
      </trkpt>
      <trkpt lat="47.77153" lon="-3.57402">
        <ele>29</ele>
        <time>2018-07-18T13:30:53Z</time>
      </trkpt>
      <trkpt lat="47.77153" lon="-3.57398">
        <ele>29</ele>
        <time>2018-07-18T13:30:54Z</time>
      </trkpt>
      <trkpt lat="47.77152" lon="-3.57393">
        <ele>29</ele>
        <time>2018-07-18T13:30:55Z</time>
      </trkpt>
      <trkpt lat="47.77152" lon="-3.57388">
        <ele>29</ele>
        <time>2018-07-18T13:30:56Z</time>
      </trkpt>
      <trkpt lat="47.77152" lon="-3.57382">
        <ele>29</ele>
        <time>2018-07-18T13:30:57Z</time>
      </trkpt>
      <trkpt lat="47.77152" lon="-3.57376">
        <ele>28</ele>
        <time>2018-07-18T13:30:58Z</time>
      </trkpt>
      <trkpt lat="47.77154" lon="-3.5737">
        <ele>28</ele>
        <time>2018-07-18T13:30:59Z</time>
      </trkpt>
      <trkpt lat="47.77156" lon="-3.57365">
        <ele>28</ele>
        <time>2018-07-18T13:31:00Z</time>
      </trkpt>
      <trkpt lat="47.77158" lon="-3.57359">
        <ele>28</ele>
        <time>2018-07-18T13:31:01Z</time>
      </trkpt>
      <trkpt lat="47.77162" lon="-3.57355">
        <ele>28</ele>
        <time>2018-07-18T13:31:02Z</time>
      </trkpt>
      <trkpt lat="47.77166" lon="-3.57351">
        <ele>28</ele>
        <time>2018-07-18T13:31:03Z</time>
      </trkpt>
      <trkpt lat="47.7717" lon="-3.57348">
        <ele>28</ele>
        <time>2018-07-18T13:31:04Z</time>
      </trkpt>
      <trkpt lat="47.77174" lon="-3.57344">
        <ele>27</ele>
        <time>2018-07-18T13:31:05Z</time>
      </trkpt>
      <trkpt lat="47.77179" lon="-3.57342">
        <ele>27</ele>
        <time>2018-07-18T13:31:06Z</time>
      </trkpt>
      <trkpt lat="47.77185" lon="-3.5734">
        <ele>27</ele>
        <time>2018-07-18T13:31:07Z</time>
      </trkpt>
      <trkpt lat="47.7719" lon="-3.57339">
        <ele>27</ele>
        <time>2018-07-18T13:31:08Z</time>
      </trkpt>
      <trkpt lat="47.77194" lon="-3.57339">
        <ele>27</ele>
        <time>2018-07-18T13:31:09Z</time>
      </trkpt>
      <trkpt lat="47.772" lon="-3.57338">
        <ele>27</ele>
        <time>2018-07-18T13:31:10Z</time>
      </trkpt>
      <trkpt lat="47.77205" lon="-3.57337">
        <ele>27</ele>
        <time>2018-07-18T13:31:11Z</time>
      </trkpt>
      <trkpt lat="47.77211" lon="-3.57336">
        <ele>27</ele>
        <time>2018-07-18T13:31:12Z</time>
      </trkpt>
      <trkpt lat="47.77216" lon="-3.57335">
        <ele>27</ele>
        <time>2018-07-18T13:31:13Z</time>
      </trkpt>
      <trkpt lat="47.77221" lon="-3.57335">
        <ele>27</ele>
        <time>2018-07-18T13:31:14Z</time>
      </trkpt>
      <trkpt lat="47.77226" lon="-3.57335">
        <ele>27</ele>
        <time>2018-07-18T13:31:15Z</time>
      </trkpt>
      <trkpt lat="47.7723" lon="-3.57334">
        <ele>27</ele>
        <time>2018-07-18T13:31:16Z</time>
      </trkpt>
      <trkpt lat="47.77234" lon="-3.57335">
        <ele>27</ele>
        <time>2018-07-18T13:31:17Z</time>
      </trkpt>
      <trkpt lat="47.77239" lon="-3.57336">
        <ele>27</ele>
        <time>2018-07-18T13:31:18Z</time>
      </trkpt>
      <trkpt lat="47.77243" lon="-3.57337">
        <ele>27</ele>
        <time>2018-07-18T13:31:19Z</time>
      </trkpt>
      <trkpt lat="47.77248" lon="-3.57337">
        <ele>27</ele>
        <time>2018-07-18T13:31:20Z</time>
      </trkpt>
      <trkpt lat="47.77255" lon="-3.57337">
        <ele>27</ele>
        <time>2018-07-18T13:31:21Z</time>
      </trkpt>
      <trkpt lat="47.7726" lon="-3.57337">
        <ele>27</ele>
        <time>2018-07-18T13:31:22Z</time>
      </trkpt>
      <trkpt lat="47.77266" lon="-3.57338">
        <ele>27</ele>
        <time>2018-07-18T13:31:23Z</time>
      </trkpt>
      <trkpt lat="47.77271" lon="-3.57339">
        <ele>27</ele>
        <time>2018-07-18T13:31:24Z</time>
      </trkpt>
      <trkpt lat="47.77276" lon="-3.57339">
        <ele>27</ele>
        <time>2018-07-18T13:31:25Z</time>
      </trkpt>
      <trkpt lat="47.7728" lon="-3.57336">
        <ele>27</ele>
        <time>2018-07-18T13:31:26Z</time>
      </trkpt>
      <trkpt lat="47.77283" lon="-3.57333">
        <ele>27</ele>
        <time>2018-07-18T13:31:27Z</time>
      </trkpt>
      <trkpt lat="47.77286" lon="-3.57328">
        <ele>27</ele>
        <time>2018-07-18T13:31:28Z</time>
      </trkpt>
      <trkpt lat="47.77286" lon="-3.57325">
        <ele>27</ele>
        <time>2018-07-18T13:31:29Z</time>
      </trkpt>
      <trkpt lat="47.77287" lon="-3.57322">
        <ele>27</ele>
        <time>2018-07-18T13:31:30Z</time>
      </trkpt>
      <trkpt lat="47.77287" lon="-3.5732">
        <ele>27</ele>
        <time>2018-07-18T13:31:31Z</time>
      </trkpt>
      <trkpt lat="47.77288" lon="-3.57317">
        <ele>27</ele>
        <time>2018-07-18T13:31:32Z</time>
      </trkpt>
      <trkpt lat="47.77289" lon="-3.57315">
        <ele>27</ele>
        <time>2018-07-18T13:31:33Z</time>
      </trkpt>
      <trkpt lat="47.77289" lon="-3.57313">
        <ele>26</ele>
        <time>2018-07-18T13:31:34Z</time>
      </trkpt>
      <trkpt lat="47.7729" lon="-3.57313">
        <ele>26</ele>
        <time>2018-07-18T13:31:35Z</time>
      </trkpt>
      <trkpt lat="47.7729" lon="-3.57312">
        <ele>26</ele>
        <time>2018-07-18T13:31:36Z</time>
      </trkpt>
      <trkpt lat="47.7729" lon="-3.57312">
        <ele>26</ele>
        <time>2018-07-18T13:31:37Z</time>
      </trkpt>
      <trkpt lat="47.7729" lon="-3.57311">
        <ele>26</ele>
        <time>2018-07-18T13:31:38Z</time>
      </trkpt>
      <trkpt lat="47.77293" lon="-3.57309">
        <ele>26</ele>
        <time>2018-07-18T13:31:39Z</time>
      </trkpt>
      <trkpt lat="47.77294" lon="-3.57309">
        <ele>26</ele>
        <time>2018-07-18T13:31:40Z</time>
      </trkpt>
      <trkpt lat="47.77295" lon="-3.57308">
        <ele>26</ele>
        <time>2018-07-18T13:31:41Z</time>
      </trkpt>
      <trkpt lat="47.77296" lon="-3.57308">
        <ele>26</ele>
        <time>2018-07-18T13:31:42Z</time>
      </trkpt>
      <trkpt lat="47.77297" lon="-3.57308">
        <ele>26</ele>
        <time>2018-07-18T13:31:43Z</time>
      </trkpt>
      <trkpt lat="47.77298" lon="-3.57308">
        <ele>26</ele>
        <time>2018-07-18T13:31:44Z</time>
      </trkpt>
      <trkpt lat="47.77299" lon="-3.57308">
        <ele>26</ele>
        <time>2018-07-18T13:31:45Z</time>
      </trkpt>
      <trkpt lat="47.773" lon="-3.57309">
        <ele>26</ele>
        <time>2018-07-18T13:31:46Z</time>
      </trkpt>
      <trkpt lat="47.77301" lon="-3.57309">
        <ele>26</ele>
        <time>2018-07-18T13:31:47Z</time>
      </trkpt>
      <trkpt lat="47.77302" lon="-3.5731">
        <ele>26</ele>
        <time>2018-07-18T13:31:48Z</time>
      </trkpt>
      <trkpt lat="47.77303" lon="-3.5731">
        <ele>26</ele>
        <time>2018-07-18T13:31:49Z</time>
      </trkpt>
      <trkpt lat="47.77305" lon="-3.57311">
        <ele>26</ele>
        <time>2018-07-18T13:31:50Z</time>
      </trkpt>
      <trkpt lat="47.77307" lon="-3.57312">
        <ele>26</ele>
        <time>2018-07-18T13:31:51Z</time>
      </trkpt>
      <trkpt lat="47.77309" lon="-3.57313">
        <ele>26</ele>
        <time>2018-07-18T13:31:52Z</time>
      </trkpt>
      <trkpt lat="47.7731" lon="-3.57314">
        <ele>26</ele>
        <time>2018-07-18T13:31:53Z</time>
      </trkpt>
      <trkpt lat="47.77312" lon="-3.57316">
        <ele>27</ele>
        <time>2018-07-18T13:31:54Z</time>
      </trkpt>
      <trkpt lat="47.77313" lon="-3.57317">
        <ele>27</ele>
        <time>2018-07-18T13:31:55Z</time>
      </trkpt>
      <trkpt lat="47.77315" lon="-3.57317">
        <ele>26</ele>
        <time>2018-07-18T13:31:56Z</time>
      </trkpt>
      <trkpt lat="47.77316" lon="-3.57318">
        <ele>26</ele>
        <time>2018-07-18T13:31:57Z</time>
      </trkpt>
      <trkpt lat="47.77317" lon="-3.57318">
        <ele>26</ele>
        <time>2018-07-18T13:31:58Z</time>
      </trkpt>
      <trkpt lat="47.77319" lon="-3.57318">
        <ele>26</ele>
        <time>2018-07-18T13:31:59Z</time>
      </trkpt>
      <trkpt lat="47.77321" lon="-3.57318">
        <ele>26</ele>
        <time>2018-07-18T13:32:00Z</time>
      </trkpt>
      <trkpt lat="47.77323" lon="-3.57317">
        <ele>26</ele>
        <time>2018-07-18T13:32:01Z</time>
      </trkpt>
      <trkpt lat="47.77323" lon="-3.57317">
        <ele>26</ele>
        <time>2018-07-18T13:32:02Z</time>
      </trkpt>
      <trkpt lat="47.77324" lon="-3.57317">
        <ele>26</ele>
        <time>2018-07-18T13:32:03Z</time>
      </trkpt>
      <trkpt lat="47.77325" lon="-3.57317">
        <ele>26</ele>
        <time>2018-07-18T13:32:04Z</time>
      </trkpt>
      <trkpt lat="47.77325" lon="-3.57317">
        <ele>26</ele>
        <time>2018-07-18T13:32:05Z</time>
      </trkpt>
      <trkpt lat="47.77326" lon="-3.57317">
        <ele>26</ele>
        <time>2018-07-18T13:32:06Z</time>
      </trkpt>
      <trkpt lat="47.77327" lon="-3.57317">
        <ele>26</ele>
        <time>2018-07-18T13:32:07Z</time>
      </trkpt>
      <trkpt lat="47.77327" lon="-3.57317">
        <ele>26</ele>
        <time>2018-07-18T13:32:08Z</time>
      </trkpt>
      <trkpt lat="47.77326" lon="-3.57317">
        <ele>26</ele>
        <time>2018-07-18T13:32:09Z</time>
      </trkpt>
      <trkpt lat="47.77326" lon="-3.57317">
        <ele>26</ele>
        <time>2018-07-18T13:32:10Z</time>
      </trkpt>
      <trkpt lat="47.77324" lon="-3.57317">
        <ele>26</ele>
        <time>2018-07-18T13:32:11Z</time>
      </trkpt>
      <trkpt lat="47.77323" lon="-3.57316">
        <ele>26</ele>
        <time>2018-07-18T13:32:12Z</time>
      </trkpt>
      <trkpt lat="47.77322" lon="-3.57315">
        <ele>26</ele>
        <time>2018-07-18T13:32:13Z</time>
      </trkpt>
      <trkpt lat="47.77321" lon="-3.57313">
        <ele>26</ele>
        <time>2018-07-18T13:32:14Z</time>
      </trkpt>
      <trkpt lat="47.7732" lon="-3.57312">
        <ele>26</ele>
        <time>2018-07-18T13:32:15Z</time>
      </trkpt>
      <trkpt lat="47.77319" lon="-3.5731">
        <ele>26</ele>
        <time>2018-07-18T13:32:16Z</time>
      </trkpt>
      <trkpt lat="47.77318" lon="-3.57309">
        <ele>26</ele>
        <time>2018-07-18T13:32:17Z</time>
      </trkpt>
      <trkpt lat="47.77317" lon="-3.57308">
        <ele>26</ele>
        <time>2018-07-18T13:32:18Z</time>
      </trkpt>
      <trkpt lat="47.77316" lon="-3.57307">
        <ele>26</ele>
        <time>2018-07-18T13:32:19Z</time>
      </trkpt>
      <trkpt lat="47.77315" lon="-3.57306">
        <ele>26</ele>
        <time>2018-07-18T13:32:20Z</time>
      </trkpt>
      <trkpt lat="47.77312" lon="-3.57305">
        <ele>26</ele>
        <time>2018-07-18T13:32:21Z</time>
      </trkpt>
      <trkpt lat="47.7731" lon="-3.57304">
        <ele>26</ele>
        <time>2018-07-18T13:32:22Z</time>
      </trkpt>
      <trkpt lat="47.77307" lon="-3.57304">
        <ele>26</ele>
        <time>2018-07-18T13:32:23Z</time>
      </trkpt>
      <trkpt lat="47.77303" lon="-3.57305">
        <ele>26</ele>
        <time>2018-07-18T13:32:24Z</time>
      </trkpt>
      <trkpt lat="47.773" lon="-3.57306">
        <ele>25</ele>
        <time>2018-07-18T13:32:25Z</time>
      </trkpt>
      <trkpt lat="47.77299" lon="-3.57307">
        <ele>25</ele>
        <time>2018-07-18T13:32:26Z</time>
      </trkpt>
      <trkpt lat="47.77298" lon="-3.5731">
        <ele>25</ele>
        <time>2018-07-18T13:32:27Z</time>
      </trkpt>
      <trkpt lat="47.77297" lon="-3.57312">
        <ele>25</ele>
        <time>2018-07-18T13:32:28Z</time>
      </trkpt>
      <trkpt lat="47.77298" lon="-3.57315">
        <ele>25</ele>
        <time>2018-07-18T13:32:29Z</time>
      </trkpt>
      <trkpt lat="47.77299" lon="-3.57318">
        <ele>25</ele>
        <time>2018-07-18T13:32:30Z</time>
      </trkpt>
      <trkpt lat="47.77299" lon="-3.5732">
        <ele>25</ele>
        <time>2018-07-18T13:32:31Z</time>
      </trkpt>
      <trkpt lat="47.77297" lon="-3.57323">
        <ele>25</ele>
        <time>2018-07-18T13:32:32Z</time>
      </trkpt>
      <trkpt lat="47.77296" lon="-3.57326">
        <ele>25</ele>
        <time>2018-07-18T13:32:33Z</time>
      </trkpt>
      <trkpt lat="47.77293" lon="-3.57327">
        <ele>25</ele>
        <time>2018-07-18T13:32:34Z</time>
      </trkpt>
      <trkpt lat="47.7729" lon="-3.57327">
        <ele>25</ele>
        <time>2018-07-18T13:32:35Z</time>
      </trkpt>
      <trkpt lat="47.77289" lon="-3.57327">
        <ele>25</ele>
        <time>2018-07-18T13:32:36Z</time>
      </trkpt>
      <trkpt lat="47.77287" lon="-3.57326">
        <ele>25</ele>
        <time>2018-07-18T13:32:37Z</time>
      </trkpt>
      <trkpt lat="47.77285" lon="-3.57325">
        <ele>25</ele>
        <time>2018-07-18T13:32:38Z</time>
      </trkpt>
      <trkpt lat="47.77283" lon="-3.57324">
        <ele>25</ele>
        <time>2018-07-18T13:32:39Z</time>
      </trkpt>
      <trkpt lat="47.7728" lon="-3.57324">
        <ele>26</ele>
        <time>2018-07-18T13:32:40Z</time>
      </trkpt>
      <trkpt lat="47.77277" lon="-3.57325">
        <ele>26</ele>
        <time>2018-07-18T13:32:41Z</time>
      </trkpt>
      <trkpt lat="47.77274" lon="-3.57326">
        <ele>26</ele>
        <time>2018-07-18T13:32:42Z</time>
      </trkpt>
      <trkpt lat="47.77271" lon="-3.57326">
        <ele>26</ele>
        <time>2018-07-18T13:32:43Z</time>
      </trkpt>
      <trkpt lat="47.77267" lon="-3.57326">
        <ele>26</ele>
        <time>2018-07-18T13:32:44Z</time>
      </trkpt>
      <trkpt lat="47.77265" lon="-3.57327">
        <ele>27</ele>
        <time>2018-07-18T13:32:45Z</time>
      </trkpt>
      <trkpt lat="47.77262" lon="-3.57327">
        <ele>27</ele>
        <time>2018-07-18T13:32:46Z</time>
      </trkpt>
      <trkpt lat="47.77259" lon="-3.57327">
        <ele>27</ele>
        <time>2018-07-18T13:32:47Z</time>
      </trkpt>
      <trkpt lat="47.77256" lon="-3.57326">
        <ele>27</ele>
        <time>2018-07-18T13:32:48Z</time>
      </trkpt>
      <trkpt lat="47.77253" lon="-3.57326">
        <ele>27</ele>
        <time>2018-07-18T13:32:49Z</time>
      </trkpt>
      <trkpt lat="47.7725" lon="-3.57326">
        <ele>27</ele>
        <time>2018-07-18T13:32:50Z</time>
      </trkpt>
      <trkpt lat="47.77248" lon="-3.57326">
        <ele>27</ele>
        <time>2018-07-18T13:32:51Z</time>
      </trkpt>
      <trkpt lat="47.77245" lon="-3.57325">
        <ele>27</ele>
        <time>2018-07-18T13:32:52Z</time>
      </trkpt>
      <trkpt lat="47.77242" lon="-3.57326">
        <ele>27</ele>
        <time>2018-07-18T13:32:53Z</time>
      </trkpt>
      <trkpt lat="47.77239" lon="-3.57326">
        <ele>27</ele>
        <time>2018-07-18T13:32:54Z</time>
      </trkpt>
      <trkpt lat="47.77236" lon="-3.57327">
        <ele>27</ele>
        <time>2018-07-18T13:32:55Z</time>
      </trkpt>
      <trkpt lat="47.77232" lon="-3.57328">
        <ele>27</ele>
        <time>2018-07-18T13:32:56Z</time>
      </trkpt>
      <trkpt lat="47.77228" lon="-3.57329">
        <ele>27</ele>
        <time>2018-07-18T13:32:57Z</time>
      </trkpt>
      <trkpt lat="47.77225" lon="-3.5733">
        <ele>27</ele>
        <time>2018-07-18T13:32:58Z</time>
      </trkpt>
      <trkpt lat="47.77222" lon="-3.5733">
        <ele>27</ele>
        <time>2018-07-18T13:32:59Z</time>
      </trkpt>
      <trkpt lat="47.77218" lon="-3.57331">
        <ele>27</ele>
        <time>2018-07-18T13:33:00Z</time>
      </trkpt>
      <trkpt lat="47.77214" lon="-3.57331">
        <ele>27</ele>
        <time>2018-07-18T13:33:01Z</time>
      </trkpt>
      <trkpt lat="47.77211" lon="-3.57332">
        <ele>27</ele>
        <time>2018-07-18T13:33:02Z</time>
      </trkpt>
      <trkpt lat="47.77207" lon="-3.57333">
        <ele>27</ele>
        <time>2018-07-18T13:33:03Z</time>
      </trkpt>
      <trkpt lat="47.77204" lon="-3.57334">
        <ele>27</ele>
        <time>2018-07-18T13:33:04Z</time>
      </trkpt>
      <trkpt lat="47.77201" lon="-3.57335">
        <ele>26</ele>
        <time>2018-07-18T13:33:05Z</time>
      </trkpt>
      <trkpt lat="47.772" lon="-3.57335">
        <ele>26</ele>
        <time>2018-07-18T13:33:06Z</time>
      </trkpt>
      <trkpt lat="47.77199" lon="-3.57335">
        <ele>26</ele>
        <time>2018-07-18T13:33:07Z</time>
      </trkpt>
      <trkpt lat="47.77199" lon="-3.57335">
        <ele>26</ele>
        <time>2018-07-18T13:33:08Z</time>
      </trkpt>
      <trkpt lat="47.77198" lon="-3.57335">
        <ele>26</ele>
        <time>2018-07-18T13:33:09Z</time>
      </trkpt>
      <trkpt lat="47.77198" lon="-3.57335">
        <ele>26</ele>
        <time>2018-07-18T13:33:10Z</time>
      </trkpt>
      <trkpt lat="47.77197" lon="-3.57335">
        <ele>26</ele>
        <time>2018-07-18T13:33:11Z</time>
      </trkpt>
      <trkpt lat="47.77197" lon="-3.57336">
        <ele>26</ele>
        <time>2018-07-18T13:33:12Z</time>
      </trkpt>
      <trkpt lat="47.77195" lon="-3.57336">
        <ele>25</ele>
        <time>2018-07-18T13:33:13Z</time>
      </trkpt>
      <trkpt lat="47.77196" lon="-3.57336">
        <ele>25</ele>
        <time>2018-07-18T13:33:14Z</time>
      </trkpt>
      <trkpt lat="47.77197" lon="-3.57336">
        <ele>25</ele>
        <time>2018-07-18T13:33:15Z</time>
      </trkpt>
      <trkpt lat="47.77198" lon="-3.57336">
        <ele>25</ele>
        <time>2018-07-18T13:33:16Z</time>
      </trkpt>
      <trkpt lat="47.772" lon="-3.57336">
        <ele>25</ele>
        <time>2018-07-18T13:33:17Z</time>
      </trkpt>
      <trkpt lat="47.77202" lon="-3.57335">
        <ele>25</ele>
        <time>2018-07-18T13:33:18Z</time>
      </trkpt>
      <trkpt lat="47.77204" lon="-3.57335">
        <ele>25</ele>
        <time>2018-07-18T13:33:19Z</time>
      </trkpt>
      <trkpt lat="47.77205" lon="-3.57335">
        <ele>25</ele>
        <time>2018-07-18T13:33:20Z</time>
      </trkpt>
      <trkpt lat="47.77207" lon="-3.57335">
        <ele>25</ele>
        <time>2018-07-18T13:33:21Z</time>
      </trkpt>
      <trkpt lat="47.77209" lon="-3.57335">
        <ele>25</ele>
        <time>2018-07-18T13:33:22Z</time>
      </trkpt>
      <trkpt lat="47.77209" lon="-3.57335">
        <ele>25</ele>
        <time>2018-07-18T13:33:23Z</time>
      </trkpt>
      <trkpt lat="47.77214" lon="-3.57334">
        <ele>25</ele>
        <time>2018-07-18T13:33:24Z</time>
      </trkpt>
      <trkpt lat="47.77214" lon="-3.57334">
        <ele>25</ele>
        <time>2018-07-18T13:33:25Z</time>
      </trkpt>
      <trkpt lat="47.7722" lon="-3.57333">
        <ele>25</ele>
        <time>2018-07-18T13:33:26Z</time>
      </trkpt>
      <trkpt lat="47.7722" lon="-3.57333">
        <ele>25</ele>
        <time>2018-07-18T13:33:27Z</time>
      </trkpt>
      <trkpt lat="47.77223" lon="-3.57333">
        <ele>25</ele>
        <time>2018-07-18T13:33:28Z</time>
      </trkpt>
      <trkpt lat="47.77228" lon="-3.57333">
        <ele>25</ele>
        <time>2018-07-18T13:33:29Z</time>
      </trkpt>
      <trkpt lat="47.77231" lon="-3.57333">
        <ele>25</ele>
        <time>2018-07-18T13:33:30Z</time>
      </trkpt>
      <trkpt lat="47.77233" lon="-3.57333">
        <ele>25</ele>
        <time>2018-07-18T13:33:31Z</time>
      </trkpt>
      <trkpt lat="47.77236" lon="-3.57333">
        <ele>25</ele>
        <time>2018-07-18T13:33:32Z</time>
      </trkpt>
      <trkpt lat="47.77238" lon="-3.57333">
        <ele>25</ele>
        <time>2018-07-18T13:33:33Z</time>
      </trkpt>
      <trkpt lat="47.7724" lon="-3.57334">
        <ele>25</ele>
        <time>2018-07-18T13:33:34Z</time>
      </trkpt>
      <trkpt lat="47.77243" lon="-3.57335">
        <ele>25</ele>
        <time>2018-07-18T13:33:35Z</time>
      </trkpt>
      <trkpt lat="47.77246" lon="-3.57335">
        <ele>25</ele>
        <time>2018-07-18T13:33:36Z</time>
      </trkpt>
      <trkpt lat="47.77249" lon="-3.57336">
        <ele>25</ele>
        <time>2018-07-18T13:33:37Z</time>
      </trkpt>
      <trkpt lat="47.77252" lon="-3.57336">
        <ele>25</ele>
        <time>2018-07-18T13:33:38Z</time>
      </trkpt>
      <trkpt lat="47.77252" lon="-3.57336">
        <ele>25</ele>
        <time>2018-07-18T13:33:39Z</time>
      </trkpt>
      <trkpt lat="47.77256" lon="-3.57336">
        <ele>24</ele>
        <time>2018-07-18T13:33:40Z</time>
      </trkpt>
      <trkpt lat="47.77257" lon="-3.57336">
        <ele>24</ele>
        <time>2018-07-18T13:33:41Z</time>
      </trkpt>
      <trkpt lat="47.77257" lon="-3.57336">
        <ele>24</ele>
        <time>2018-07-18T13:33:42Z</time>
      </trkpt>
      <trkpt lat="47.77259" lon="-3.57336">
        <ele>25</ele>
        <time>2018-07-18T13:33:43Z</time>
      </trkpt>
      <trkpt lat="47.7726" lon="-3.57336">
        <ele>25</ele>
        <time>2018-07-18T13:33:44Z</time>
      </trkpt>
      <trkpt lat="47.7726" lon="-3.57336">
        <ele>25</ele>
        <time>2018-07-18T13:33:45Z</time>
      </trkpt>
      <trkpt lat="47.7726" lon="-3.57336">
        <ele>25</ele>
        <time>2018-07-18T13:33:46Z</time>
      </trkpt>
      <trkpt lat="47.77263" lon="-3.57336">
        <ele>25</ele>
        <time>2018-07-18T13:33:47Z</time>
      </trkpt>
      <trkpt lat="47.77265" lon="-3.57336">
        <ele>25</ele>
        <time>2018-07-18T13:33:48Z</time>
      </trkpt>
      <trkpt lat="47.77267" lon="-3.57337">
        <ele>25</ele>
        <time>2018-07-18T13:33:49Z</time>
      </trkpt>
      <trkpt lat="47.77269" lon="-3.57338">
        <ele>25</ele>
        <time>2018-07-18T13:33:50Z</time>
      </trkpt>
      <trkpt lat="47.77271" lon="-3.57339">
        <ele>25</ele>
        <time>2018-07-18T13:33:51Z</time>
      </trkpt>
      <trkpt lat="47.77273" lon="-3.5734">
        <ele>25</ele>
        <time>2018-07-18T13:33:52Z</time>
      </trkpt>
      <trkpt lat="47.77275" lon="-3.5734">
        <ele>25</ele>
        <time>2018-07-18T13:33:53Z</time>
      </trkpt>
      <trkpt lat="47.77278" lon="-3.5734">
        <ele>25</ele>
        <time>2018-07-18T13:33:54Z</time>
      </trkpt>
      <trkpt lat="47.77281" lon="-3.57338">
        <ele>25</ele>
        <time>2018-07-18T13:33:55Z</time>
      </trkpt>
      <trkpt lat="47.77283" lon="-3.57336">
        <ele>25</ele>
        <time>2018-07-18T13:33:56Z</time>
      </trkpt>
      <trkpt lat="47.77285" lon="-3.57334">
        <ele>25</ele>
        <time>2018-07-18T13:33:57Z</time>
      </trkpt>
      <trkpt lat="47.77286" lon="-3.57331">
        <ele>26</ele>
        <time>2018-07-18T13:33:58Z</time>
      </trkpt>
      <trkpt lat="47.77286" lon="-3.57328">
        <ele>26</ele>
        <time>2018-07-18T13:33:59Z</time>
      </trkpt>
      <trkpt lat="47.77287" lon="-3.57326">
        <ele>26</ele>
        <time>2018-07-18T13:34:00Z</time>
      </trkpt>
      <trkpt lat="47.77287" lon="-3.57324">
        <ele>26</ele>
        <time>2018-07-18T13:34:01Z</time>
      </trkpt>
      <trkpt lat="47.77288" lon="-3.57321">
        <ele>26</ele>
        <time>2018-07-18T13:34:02Z</time>
      </trkpt>
      <trkpt lat="47.77288" lon="-3.57319">
        <ele>26</ele>
        <time>2018-07-18T13:34:03Z</time>
      </trkpt>
      <trkpt lat="47.77288" lon="-3.57316">
        <ele>26</ele>
        <time>2018-07-18T13:34:04Z</time>
      </trkpt>
      <trkpt lat="47.77289" lon="-3.57314">
        <ele>25</ele>
        <time>2018-07-18T13:34:05Z</time>
      </trkpt>
      <trkpt lat="47.77291" lon="-3.57312">
        <ele>25</ele>
        <time>2018-07-18T13:34:06Z</time>
      </trkpt>
      <trkpt lat="47.77293" lon="-3.57311">
        <ele>25</ele>
        <time>2018-07-18T13:34:07Z</time>
      </trkpt>
      <trkpt lat="47.77295" lon="-3.57311">
        <ele>25</ele>
        <time>2018-07-18T13:34:08Z</time>
      </trkpt>
      <trkpt lat="47.77297" lon="-3.57311">
        <ele>25</ele>
        <time>2018-07-18T13:34:09Z</time>
      </trkpt>
      <trkpt lat="47.77299" lon="-3.57311">
        <ele>25</ele>
        <time>2018-07-18T13:34:10Z</time>
      </trkpt>
      <trkpt lat="47.773" lon="-3.57311">
        <ele>25</ele>
        <time>2018-07-18T13:34:11Z</time>
      </trkpt>
      <trkpt lat="47.77302" lon="-3.57312">
        <ele>25</ele>
        <time>2018-07-18T13:34:12Z</time>
      </trkpt>
      <trkpt lat="47.77304" lon="-3.57313">
        <ele>25</ele>
        <time>2018-07-18T13:34:13Z</time>
      </trkpt>
      <trkpt lat="47.77306" lon="-3.57314">
        <ele>25</ele>
        <time>2018-07-18T13:34:14Z</time>
      </trkpt>
      <trkpt lat="47.77308" lon="-3.57315">
        <ele>25</ele>
        <time>2018-07-18T13:34:15Z</time>
      </trkpt>
      <trkpt lat="47.77311" lon="-3.57316">
        <ele>25</ele>
        <time>2018-07-18T13:34:16Z</time>
      </trkpt>
      <trkpt lat="47.77313" lon="-3.57317">
        <ele>25</ele>
        <time>2018-07-18T13:34:17Z</time>
      </trkpt>
      <trkpt lat="47.77315" lon="-3.57318">
        <ele>25</ele>
        <time>2018-07-18T13:34:18Z</time>
      </trkpt>
      <trkpt lat="47.77316" lon="-3.57319">
        <ele>25</ele>
        <time>2018-07-18T13:34:19Z</time>
      </trkpt>
      <trkpt lat="47.77317" lon="-3.5732">
        <ele>25</ele>
        <time>2018-07-18T13:34:20Z</time>
      </trkpt>
      <trkpt lat="47.77319" lon="-3.5732">
        <ele>25</ele>
        <time>2018-07-18T13:34:21Z</time>
      </trkpt>
      <trkpt lat="47.77321" lon="-3.5732">
        <ele>25</ele>
        <time>2018-07-18T13:34:22Z</time>
      </trkpt>
      <trkpt lat="47.77322" lon="-3.5732">
        <ele>26</ele>
        <time>2018-07-18T13:34:23Z</time>
      </trkpt>
      <trkpt lat="47.77325" lon="-3.5732">
        <ele>26</ele>
        <time>2018-07-18T13:34:24Z</time>
      </trkpt>
      <trkpt lat="47.77327" lon="-3.5732">
        <ele>26</ele>
        <time>2018-07-18T13:34:25Z</time>
      </trkpt>
      <trkpt lat="47.77329" lon="-3.5732">
        <ele>26</ele>
        <time>2018-07-18T13:34:26Z</time>
      </trkpt>
      <trkpt lat="47.77331" lon="-3.5732">
        <ele>26</ele>
        <time>2018-07-18T13:34:27Z</time>
      </trkpt>
      <trkpt lat="47.77333" lon="-3.57319">
        <ele>26</ele>
        <time>2018-07-18T13:34:28Z</time>
      </trkpt>
      <trkpt lat="47.77335" lon="-3.57319">
        <ele>27</ele>
        <time>2018-07-18T13:34:29Z</time>
      </trkpt>
      <trkpt lat="47.77337" lon="-3.57318">
        <ele>27</ele>
        <time>2018-07-18T13:34:30Z</time>
      </trkpt>
      <trkpt lat="47.7734" lon="-3.57318">
        <ele>27</ele>
        <time>2018-07-18T13:34:31Z</time>
      </trkpt>
      <trkpt lat="47.77343" lon="-3.57317">
        <ele>27</ele>
        <time>2018-07-18T13:34:32Z</time>
      </trkpt>
      <trkpt lat="47.77346" lon="-3.57316">
        <ele>27</ele>
        <time>2018-07-18T13:34:33Z</time>
      </trkpt>
      <trkpt lat="47.77349" lon="-3.57315">
        <ele>27</ele>
        <time>2018-07-18T13:34:34Z</time>
      </trkpt>
      <trkpt lat="47.77352" lon="-3.57314">
        <ele>27</ele>
        <time>2018-07-18T13:34:35Z</time>
      </trkpt>
      <trkpt lat="47.77356" lon="-3.57313">
        <ele>28</ele>
        <time>2018-07-18T13:34:36Z</time>
      </trkpt>
      <trkpt lat="47.77359" lon="-3.57313">
        <ele>28</ele>
        <time>2018-07-18T13:34:37Z</time>
      </trkpt>
      <trkpt lat="47.77361" lon="-3.57313">
        <ele>28</ele>
        <time>2018-07-18T13:34:38Z</time>
      </trkpt>
      <trkpt lat="47.77364" lon="-3.57312">
        <ele>28</ele>
        <time>2018-07-18T13:34:39Z</time>
      </trkpt>
      <trkpt lat="47.77367" lon="-3.57312">
        <ele>28</ele>
        <time>2018-07-18T13:34:40Z</time>
      </trkpt>
      <trkpt lat="47.7737" lon="-3.57311">
        <ele>29</ele>
        <time>2018-07-18T13:34:41Z</time>
      </trkpt>
      <trkpt lat="47.77373" lon="-3.57311">
        <ele>29</ele>
        <time>2018-07-18T13:34:42Z</time>
      </trkpt>
      <trkpt lat="47.77376" lon="-3.5731">
        <ele>29</ele>
        <time>2018-07-18T13:34:43Z</time>
      </trkpt>
      <trkpt lat="47.77379" lon="-3.57309">
        <ele>29</ele>
        <time>2018-07-18T13:34:44Z</time>
      </trkpt>
      <trkpt lat="47.77382" lon="-3.57308">
        <ele>30</ele>
        <time>2018-07-18T13:34:45Z</time>
      </trkpt>
      <trkpt lat="47.77385" lon="-3.57307">
        <ele>30</ele>
        <time>2018-07-18T13:34:46Z</time>
      </trkpt>
      <trkpt lat="47.77388" lon="-3.57306">
        <ele>30</ele>
        <time>2018-07-18T13:34:47Z</time>
      </trkpt>
      <trkpt lat="47.77392" lon="-3.57304">
        <ele>30</ele>
        <time>2018-07-18T13:34:48Z</time>
      </trkpt>
      <trkpt lat="47.77395" lon="-3.57303">
        <ele>30</ele>
        <time>2018-07-18T13:34:49Z</time>
      </trkpt>
      <trkpt lat="47.77398" lon="-3.57302">
        <ele>30</ele>
        <time>2018-07-18T13:34:50Z</time>
      </trkpt>
      <trkpt lat="47.77401" lon="-3.573">
        <ele>31</ele>
        <time>2018-07-18T13:34:51Z</time>
      </trkpt>
      <trkpt lat="47.77404" lon="-3.57299">
        <ele>31</ele>
        <time>2018-07-18T13:34:52Z</time>
      </trkpt>
      <trkpt lat="47.77407" lon="-3.57298">
        <ele>31</ele>
        <time>2018-07-18T13:34:53Z</time>
      </trkpt>
      <trkpt lat="47.77411" lon="-3.57296">
        <ele>31</ele>
        <time>2018-07-18T13:34:54Z</time>
      </trkpt>
      <trkpt lat="47.77414" lon="-3.57294">
        <ele>31</ele>
        <time>2018-07-18T13:34:55Z</time>
      </trkpt>
      <trkpt lat="47.77417" lon="-3.57293">
        <ele>32</ele>
        <time>2018-07-18T13:34:56Z</time>
      </trkpt>
      <trkpt lat="47.7742" lon="-3.57292">
        <ele>32</ele>
        <time>2018-07-18T13:34:57Z</time>
      </trkpt>
      <trkpt lat="47.77424" lon="-3.57291">
        <ele>32</ele>
        <time>2018-07-18T13:34:58Z</time>
      </trkpt>
      <trkpt lat="47.77427" lon="-3.5729">
        <ele>32</ele>
        <time>2018-07-18T13:34:59Z</time>
      </trkpt>
      <trkpt lat="47.7743" lon="-3.5729">
        <ele>32</ele>
        <time>2018-07-18T13:35:00Z</time>
      </trkpt>
      <trkpt lat="47.77433" lon="-3.5729">
        <ele>32</ele>
        <time>2018-07-18T13:35:01Z</time>
      </trkpt>
      <trkpt lat="47.77437" lon="-3.57289">
        <ele>32</ele>
        <time>2018-07-18T13:35:02Z</time>
      </trkpt>
      <trkpt lat="47.7744" lon="-3.57288">
        <ele>32</ele>
        <time>2018-07-18T13:35:03Z</time>
      </trkpt>
      <trkpt lat="47.77444" lon="-3.57287">
        <ele>32</ele>
        <time>2018-07-18T13:35:04Z</time>
      </trkpt>
      <trkpt lat="47.77447" lon="-3.57285">
        <ele>32</ele>
        <time>2018-07-18T13:35:05Z</time>
      </trkpt>
      <trkpt lat="47.77451" lon="-3.57284">
        <ele>32</ele>
        <time>2018-07-18T13:35:06Z</time>
      </trkpt>
      <trkpt lat="47.77454" lon="-3.57282">
        <ele>32</ele>
        <time>2018-07-18T13:35:07Z</time>
      </trkpt>
      <trkpt lat="47.77457" lon="-3.5728">
        <ele>33</ele>
        <time>2018-07-18T13:35:08Z</time>
      </trkpt>
      <trkpt lat="47.7746" lon="-3.57278">
        <ele>33</ele>
        <time>2018-07-18T13:35:09Z</time>
      </trkpt>
      <trkpt lat="47.77463" lon="-3.57275">
        <ele>33</ele>
        <time>2018-07-18T13:35:10Z</time>
      </trkpt>
      <trkpt lat="47.77466" lon="-3.57273">
        <ele>33</ele>
        <time>2018-07-18T13:35:11Z</time>
      </trkpt>
      <trkpt lat="47.77469" lon="-3.57271">
        <ele>33</ele>
        <time>2018-07-18T13:35:12Z</time>
      </trkpt>
      <trkpt lat="47.77472" lon="-3.5727">
        <ele>33</ele>
        <time>2018-07-18T13:35:13Z</time>
      </trkpt>
      <trkpt lat="47.77476" lon="-3.57267">
        <ele>33</ele>
        <time>2018-07-18T13:35:14Z</time>
      </trkpt>
      <trkpt lat="47.77479" lon="-3.57265">
        <ele>33</ele>
        <time>2018-07-18T13:35:15Z</time>
      </trkpt>
      <trkpt lat="47.77482" lon="-3.57263">
        <ele>33</ele>
        <time>2018-07-18T13:35:16Z</time>
      </trkpt>
      <trkpt lat="47.77486" lon="-3.57261">
        <ele>33</ele>
        <time>2018-07-18T13:35:17Z</time>
      </trkpt>
      <trkpt lat="47.77489" lon="-3.57259">
        <ele>33</ele>
        <time>2018-07-18T13:35:18Z</time>
      </trkpt>
      <trkpt lat="47.77492" lon="-3.57256">
        <ele>33</ele>
        <time>2018-07-18T13:35:19Z</time>
      </trkpt>
      <trkpt lat="47.77496" lon="-3.57253">
        <ele>34</ele>
        <time>2018-07-18T13:35:20Z</time>
      </trkpt>
      <trkpt lat="47.77499" lon="-3.5725">
        <ele>34</ele>
        <time>2018-07-18T13:35:21Z</time>
      </trkpt>
      <trkpt lat="47.77502" lon="-3.57248">
        <ele>34</ele>
        <time>2018-07-18T13:35:22Z</time>
      </trkpt>
      <trkpt lat="47.77505" lon="-3.57246">
        <ele>34</ele>
        <time>2018-07-18T13:35:23Z</time>
      </trkpt>
      <trkpt lat="47.77509" lon="-3.57244">
        <ele>34</ele>
        <time>2018-07-18T13:35:24Z</time>
      </trkpt>
      <trkpt lat="47.77512" lon="-3.57243">
        <ele>34</ele>
        <time>2018-07-18T13:35:25Z</time>
      </trkpt>
      <trkpt lat="47.77516" lon="-3.57242">
        <ele>34</ele>
        <time>2018-07-18T13:35:26Z</time>
      </trkpt>
      <trkpt lat="47.77519" lon="-3.57242">
        <ele>34</ele>
        <time>2018-07-18T13:35:27Z</time>
      </trkpt>
      <trkpt lat="47.77522" lon="-3.57242">
        <ele>35</ele>
        <time>2018-07-18T13:35:28Z</time>
      </trkpt>
      <trkpt lat="47.77525" lon="-3.57243">
        <ele>35</ele>
        <time>2018-07-18T13:35:29Z</time>
      </trkpt>
      <trkpt lat="47.77527" lon="-3.57244">
        <ele>35</ele>
        <time>2018-07-18T13:35:30Z</time>
      </trkpt>
      <trkpt lat="47.7753" lon="-3.57244">
        <ele>35</ele>
        <time>2018-07-18T13:35:31Z</time>
      </trkpt>
      <trkpt lat="47.77533" lon="-3.57246">
        <ele>35</ele>
        <time>2018-07-18T13:35:32Z</time>
      </trkpt>
      <trkpt lat="47.77536" lon="-3.57247">
        <ele>36</ele>
        <time>2018-07-18T13:35:33Z</time>
      </trkpt>
      <trkpt lat="47.77539" lon="-3.57249">
        <ele>36</ele>
        <time>2018-07-18T13:35:34Z</time>
      </trkpt>
      <trkpt lat="47.77541" lon="-3.57251">
        <ele>36</ele>
        <time>2018-07-18T13:35:35Z</time>
      </trkpt>
      <trkpt lat="47.77544" lon="-3.57253">
        <ele>36</ele>
        <time>2018-07-18T13:35:36Z</time>
      </trkpt>
      <trkpt lat="47.77548" lon="-3.57255">
        <ele>36</ele>
        <time>2018-07-18T13:35:37Z</time>
      </trkpt>
      <trkpt lat="47.77551" lon="-3.57256">
        <ele>36</ele>
        <time>2018-07-18T13:35:38Z</time>
      </trkpt>
      <trkpt lat="47.77554" lon="-3.57257">
        <ele>36</ele>
        <time>2018-07-18T13:35:39Z</time>
      </trkpt>
      <trkpt lat="47.77558" lon="-3.57258">
        <ele>37</ele>
        <time>2018-07-18T13:35:40Z</time>
      </trkpt>
      <trkpt lat="47.77561" lon="-3.57259">
        <ele>37</ele>
        <time>2018-07-18T13:35:41Z</time>
      </trkpt>
      <trkpt lat="47.77565" lon="-3.5726">
        <ele>37</ele>
        <time>2018-07-18T13:35:42Z</time>
      </trkpt>
      <trkpt lat="47.77568" lon="-3.57261">
        <ele>37</ele>
        <time>2018-07-18T13:35:43Z</time>
      </trkpt>
      <trkpt lat="47.77572" lon="-3.57262">
        <ele>37</ele>
        <time>2018-07-18T13:35:44Z</time>
      </trkpt>
      <trkpt lat="47.77575" lon="-3.57263">
        <ele>37</ele>
        <time>2018-07-18T13:35:45Z</time>
      </trkpt>
      <trkpt lat="47.77579" lon="-3.57264">
        <ele>37</ele>
        <time>2018-07-18T13:35:46Z</time>
      </trkpt>
      <trkpt lat="47.77583" lon="-3.57264">
        <ele>37</ele>
        <time>2018-07-18T13:35:47Z</time>
      </trkpt>
      <trkpt lat="47.77587" lon="-3.57265">
        <ele>37</ele>
        <time>2018-07-18T13:35:48Z</time>
      </trkpt>
      <trkpt lat="47.77591" lon="-3.57265">
        <ele>37</ele>
        <time>2018-07-18T13:35:49Z</time>
      </trkpt>
      <trkpt lat="47.77595" lon="-3.57265">
        <ele>37</ele>
        <time>2018-07-18T13:35:50Z</time>
      </trkpt>
      <trkpt lat="47.77598" lon="-3.57266">
        <ele>37</ele>
        <time>2018-07-18T13:35:51Z</time>
      </trkpt>
      <trkpt lat="47.77601" lon="-3.57267">
        <ele>37</ele>
        <time>2018-07-18T13:35:52Z</time>
      </trkpt>
      <trkpt lat="47.77604" lon="-3.57268">
        <ele>37</ele>
        <time>2018-07-18T13:35:53Z</time>
      </trkpt>
      <trkpt lat="47.77608" lon="-3.57269">
        <ele>37</ele>
        <time>2018-07-18T13:35:54Z</time>
      </trkpt>
      <trkpt lat="47.77611" lon="-3.57269">
        <ele>37</ele>
        <time>2018-07-18T13:35:55Z</time>
      </trkpt>
      <trkpt lat="47.77615" lon="-3.5727">
        <ele>37</ele>
        <time>2018-07-18T13:35:56Z</time>
      </trkpt>
      <trkpt lat="47.77618" lon="-3.5727">
        <ele>37</ele>
        <time>2018-07-18T13:35:57Z</time>
      </trkpt>
      <trkpt lat="47.77621" lon="-3.5727">
        <ele>37</ele>
        <time>2018-07-18T13:35:58Z</time>
      </trkpt>
      <trkpt lat="47.77625" lon="-3.57271">
        <ele>37</ele>
        <time>2018-07-18T13:35:59Z</time>
      </trkpt>
      <trkpt lat="47.77629" lon="-3.5727">
        <ele>37</ele>
        <time>2018-07-18T13:36:00Z</time>
      </trkpt>
      <trkpt lat="47.77632" lon="-3.5727">
        <ele>38</ele>
        <time>2018-07-18T13:36:01Z</time>
      </trkpt>
      <trkpt lat="47.77635" lon="-3.57268">
        <ele>38</ele>
        <time>2018-07-18T13:36:02Z</time>
      </trkpt>
      <trkpt lat="47.77638" lon="-3.57266">
        <ele>38</ele>
        <time>2018-07-18T13:36:03Z</time>
      </trkpt>
      <trkpt lat="47.77641" lon="-3.57264">
        <ele>37</ele>
        <time>2018-07-18T13:36:04Z</time>
      </trkpt>
      <trkpt lat="47.77644" lon="-3.5726">
        <ele>37</ele>
        <time>2018-07-18T13:36:05Z</time>
      </trkpt>
      <trkpt lat="47.77646" lon="-3.57255">
        <ele>37</ele>
        <time>2018-07-18T13:36:06Z</time>
      </trkpt>
      <trkpt lat="47.77648" lon="-3.57251">
        <ele>37</ele>
        <time>2018-07-18T13:36:07Z</time>
      </trkpt>
      <trkpt lat="47.7765" lon="-3.57246">
        <ele>37</ele>
        <time>2018-07-18T13:36:08Z</time>
      </trkpt>
      <trkpt lat="47.77651" lon="-3.57241">
        <ele>37</ele>
        <time>2018-07-18T13:36:09Z</time>
      </trkpt>
      <trkpt lat="47.77652" lon="-3.57235">
        <ele>37</ele>
        <time>2018-07-18T13:36:10Z</time>
      </trkpt>
      <trkpt lat="47.77653" lon="-3.5723">
        <ele>37</ele>
        <time>2018-07-18T13:36:11Z</time>
      </trkpt>
      <trkpt lat="47.77654" lon="-3.57224">
        <ele>37</ele>
        <time>2018-07-18T13:36:12Z</time>
      </trkpt>
      <trkpt lat="47.77654" lon="-3.57218">
        <ele>37</ele>
        <time>2018-07-18T13:36:13Z</time>
      </trkpt>
      <trkpt lat="47.77655" lon="-3.57212">
        <ele>37</ele>
        <time>2018-07-18T13:36:14Z</time>
      </trkpt>
      <trkpt lat="47.77656" lon="-3.57206">
        <ele>37</ele>
        <time>2018-07-18T13:36:15Z</time>
      </trkpt>
      <trkpt lat="47.77656" lon="-3.57199">
        <ele>37</ele>
        <time>2018-07-18T13:36:16Z</time>
      </trkpt>
      <trkpt lat="47.77657" lon="-3.57192">
        <ele>37</ele>
        <time>2018-07-18T13:36:17Z</time>
      </trkpt>
      <trkpt lat="47.77657" lon="-3.57186">
        <ele>37</ele>
        <time>2018-07-18T13:36:18Z</time>
      </trkpt>
      <trkpt lat="47.77656" lon="-3.57179">
        <ele>37</ele>
        <time>2018-07-18T13:36:19Z</time>
      </trkpt>
      <trkpt lat="47.77655" lon="-3.57172">
        <ele>36</ele>
        <time>2018-07-18T13:36:20Z</time>
      </trkpt>
      <trkpt lat="47.77654" lon="-3.57165">
        <ele>36</ele>
        <time>2018-07-18T13:36:21Z</time>
      </trkpt>
      <trkpt lat="47.77654" lon="-3.57158">
        <ele>36</ele>
        <time>2018-07-18T13:36:22Z</time>
      </trkpt>
      <trkpt lat="47.77652" lon="-3.57153">
        <ele>36</ele>
        <time>2018-07-18T13:36:23Z</time>
      </trkpt>
      <trkpt lat="47.77651" lon="-3.57149">
        <ele>36</ele>
        <time>2018-07-18T13:36:24Z</time>
      </trkpt>
      <trkpt lat="47.77651" lon="-3.57147">
        <ele>36</ele>
        <time>2018-07-18T13:36:25Z</time>
      </trkpt>
      <trkpt lat="47.77651" lon="-3.57147">
        <ele>36</ele>
        <time>2018-07-18T13:36:26Z</time>
      </trkpt>
      <trkpt lat="47.77651" lon="-3.57147">
        <ele>36</ele>
        <time>2018-07-18T13:36:27Z</time>
      </trkpt>
      <trkpt lat="47.77651" lon="-3.57147">
        <ele>36</ele>
        <time>2018-07-18T13:36:28Z</time>
      </trkpt>
      <trkpt lat="47.77651" lon="-3.57147">
        <ele>36</ele>
        <time>2018-07-18T13:36:29Z</time>
      </trkpt>
      <trkpt lat="47.77652" lon="-3.57145">
        <ele>37</ele>
        <time>2018-07-18T13:36:30Z</time>
      </trkpt>
      <trkpt lat="47.77652" lon="-3.57142">
        <ele>37</ele>
        <time>2018-07-18T13:36:31Z</time>
      </trkpt>
      <trkpt lat="47.77651" lon="-3.57139">
        <ele>37</ele>
        <time>2018-07-18T13:36:32Z</time>
      </trkpt>
      <trkpt lat="47.77651" lon="-3.57135">
        <ele>37</ele>
        <time>2018-07-18T13:36:33Z</time>
      </trkpt>
      <trkpt lat="47.77651" lon="-3.5713">
        <ele>37</ele>
        <time>2018-07-18T13:36:34Z</time>
      </trkpt>
      <trkpt lat="47.7765" lon="-3.57125">
        <ele>37</ele>
        <time>2018-07-18T13:36:35Z</time>
      </trkpt>
      <trkpt lat="47.7765" lon="-3.5712">
        <ele>37</ele>
        <time>2018-07-18T13:36:36Z</time>
      </trkpt>
      <trkpt lat="47.77649" lon="-3.57115">
        <ele>37</ele>
        <time>2018-07-18T13:36:37Z</time>
      </trkpt>
      <trkpt lat="47.77648" lon="-3.57111">
        <ele>37</ele>
        <time>2018-07-18T13:36:38Z</time>
      </trkpt>
      <trkpt lat="47.77648" lon="-3.57108">
        <ele>37</ele>
        <time>2018-07-18T13:36:39Z</time>
      </trkpt>
      <trkpt lat="47.77647" lon="-3.57104">
        <ele>38</ele>
        <time>2018-07-18T13:36:40Z</time>
      </trkpt>
      <trkpt lat="47.77647" lon="-3.57102">
        <ele>38</ele>
        <time>2018-07-18T13:36:41Z</time>
      </trkpt>
      <trkpt lat="47.77647" lon="-3.57099">
        <ele>38</ele>
        <time>2018-07-18T13:36:42Z</time>
      </trkpt>
      <trkpt lat="47.77647" lon="-3.57097">
        <ele>38</ele>
        <time>2018-07-18T13:36:43Z</time>
      </trkpt>
      <trkpt lat="47.77647" lon="-3.57094">
        <ele>38</ele>
        <time>2018-07-18T13:36:44Z</time>
      </trkpt>
      <trkpt lat="47.77646" lon="-3.57091">
        <ele>37</ele>
        <time>2018-07-18T13:36:45Z</time>
      </trkpt>
      <trkpt lat="47.77646" lon="-3.57088">
        <ele>37</ele>
        <time>2018-07-18T13:36:46Z</time>
      </trkpt>
      <trkpt lat="47.77645" lon="-3.57084">
        <ele>37</ele>
        <time>2018-07-18T13:36:47Z</time>
      </trkpt>
      <trkpt lat="47.77645" lon="-3.5708">
        <ele>37</ele>
        <time>2018-07-18T13:36:48Z</time>
      </trkpt>
      <trkpt lat="47.77644" lon="-3.57074">
        <ele>37</ele>
        <time>2018-07-18T13:36:49Z</time>
      </trkpt>
      <trkpt lat="47.77644" lon="-3.57069">
        <ele>37</ele>
        <time>2018-07-18T13:36:50Z</time>
      </trkpt>
      <trkpt lat="47.77643" lon="-3.57064">
        <ele>37</ele>
        <time>2018-07-18T13:36:51Z</time>
      </trkpt>
      <trkpt lat="47.77643" lon="-3.57058">
        <ele>37</ele>
        <time>2018-07-18T13:36:52Z</time>
      </trkpt>
      <trkpt lat="47.77642" lon="-3.57052">
        <ele>37</ele>
        <time>2018-07-18T13:36:53Z</time>
      </trkpt>
      <trkpt lat="47.77642" lon="-3.57046">
        <ele>37</ele>
        <time>2018-07-18T13:36:54Z</time>
      </trkpt>
      <trkpt lat="47.77642" lon="-3.57041">
        <ele>37</ele>
        <time>2018-07-18T13:36:55Z</time>
      </trkpt>
      <trkpt lat="47.77641" lon="-3.57035">
        <ele>37</ele>
        <time>2018-07-18T13:36:56Z</time>
      </trkpt>
      <trkpt lat="47.77641" lon="-3.5703">
        <ele>37</ele>
        <time>2018-07-18T13:36:57Z</time>
      </trkpt>
      <trkpt lat="47.77641" lon="-3.57024">
        <ele>37</ele>
        <time>2018-07-18T13:36:58Z</time>
      </trkpt>
      <trkpt lat="47.7764" lon="-3.57019">
        <ele>37</ele>
        <time>2018-07-18T13:36:59Z</time>
      </trkpt>
      <trkpt lat="47.7764" lon="-3.57013">
        <ele>37</ele>
        <time>2018-07-18T13:37:00Z</time>
      </trkpt>
      <trkpt lat="47.77639" lon="-3.57007">
        <ele>37</ele>
        <time>2018-07-18T13:37:01Z</time>
      </trkpt>
      <trkpt lat="47.77639" lon="-3.57001">
        <ele>37</ele>
        <time>2018-07-18T13:37:02Z</time>
      </trkpt>
      <trkpt lat="47.77638" lon="-3.56995">
        <ele>37</ele>
        <time>2018-07-18T13:37:03Z</time>
      </trkpt>
      <trkpt lat="47.77638" lon="-3.56989">
        <ele>37</ele>
        <time>2018-07-18T13:37:04Z</time>
      </trkpt>
      <trkpt lat="47.77638" lon="-3.56983">
        <ele>37</ele>
        <time>2018-07-18T13:37:05Z</time>
      </trkpt>
      <trkpt lat="47.77637" lon="-3.56978">
        <ele>37</ele>
        <time>2018-07-18T13:37:06Z</time>
      </trkpt>
      <trkpt lat="47.77637" lon="-3.56972">
        <ele>38</ele>
        <time>2018-07-18T13:37:07Z</time>
      </trkpt>
      <trkpt lat="47.77636" lon="-3.56966">
        <ele>38</ele>
        <time>2018-07-18T13:37:08Z</time>
      </trkpt>
      <trkpt lat="47.77636" lon="-3.5696">
        <ele>38</ele>
        <time>2018-07-18T13:37:09Z</time>
      </trkpt>
      <trkpt lat="47.77635" lon="-3.56954">
        <ele>38</ele>
        <time>2018-07-18T13:37:10Z</time>
      </trkpt>
      <trkpt lat="47.77635" lon="-3.56948">
        <ele>39</ele>
        <time>2018-07-18T13:37:11Z</time>
      </trkpt>
      <trkpt lat="47.77635" lon="-3.56943">
        <ele>39</ele>
        <time>2018-07-18T13:37:12Z</time>
      </trkpt>
      <trkpt lat="47.77634" lon="-3.56937">
        <ele>39</ele>
        <time>2018-07-18T13:37:13Z</time>
      </trkpt>
      <trkpt lat="47.77634" lon="-3.56931">
        <ele>39</ele>
        <time>2018-07-18T13:37:14Z</time>
      </trkpt>
      <trkpt lat="47.77633" lon="-3.56926">
        <ele>39</ele>
        <time>2018-07-18T13:37:15Z</time>
      </trkpt>
      <trkpt lat="47.77632" lon="-3.5692">
        <ele>40</ele>
        <time>2018-07-18T13:37:16Z</time>
      </trkpt>
      <trkpt lat="47.77631" lon="-3.56915">
        <ele>40</ele>
        <time>2018-07-18T13:37:17Z</time>
      </trkpt>
      <trkpt lat="47.7763" lon="-3.5691">
        <ele>40</ele>
        <time>2018-07-18T13:37:18Z</time>
      </trkpt>
      <trkpt lat="47.77627" lon="-3.56907">
        <ele>40</ele>
        <time>2018-07-18T13:37:19Z</time>
      </trkpt>
      <trkpt lat="47.77623" lon="-3.56905">
        <ele>40</ele>
        <time>2018-07-18T13:37:20Z</time>
      </trkpt>
      <trkpt lat="47.77619" lon="-3.56904">
        <ele>41</ele>
        <time>2018-07-18T13:37:21Z</time>
      </trkpt>
      <trkpt lat="47.77615" lon="-3.56905">
        <ele>41</ele>
        <time>2018-07-18T13:37:22Z</time>
      </trkpt>
      <trkpt lat="47.77611" lon="-3.56906">
        <ele>41</ele>
        <time>2018-07-18T13:37:23Z</time>
      </trkpt>
      <trkpt lat="47.77607" lon="-3.56906">
        <ele>41</ele>
        <time>2018-07-18T13:37:24Z</time>
      </trkpt>
      <trkpt lat="47.77603" lon="-3.56907">
        <ele>41</ele>
        <time>2018-07-18T13:37:25Z</time>
      </trkpt>
      <trkpt lat="47.77598" lon="-3.56908">
        <ele>41</ele>
        <time>2018-07-18T13:37:26Z</time>
      </trkpt>
      <trkpt lat="47.77594" lon="-3.5691">
        <ele>41</ele>
        <time>2018-07-18T13:37:27Z</time>
      </trkpt>
      <trkpt lat="47.77589" lon="-3.56911">
        <ele>41</ele>
        <time>2018-07-18T13:37:28Z</time>
      </trkpt>
      <trkpt lat="47.77585" lon="-3.56913">
        <ele>40</ele>
        <time>2018-07-18T13:37:29Z</time>
      </trkpt>
      <trkpt lat="47.7758" lon="-3.56915">
        <ele>40</ele>
        <time>2018-07-18T13:37:30Z</time>
      </trkpt>
      <trkpt lat="47.77575" lon="-3.56917">
        <ele>40</ele>
        <time>2018-07-18T13:37:31Z</time>
      </trkpt>
      <trkpt lat="47.7757" lon="-3.56919">
        <ele>40</ele>
        <time>2018-07-18T13:37:32Z</time>
      </trkpt>
      <trkpt lat="47.77565" lon="-3.56921">
        <ele>40</ele>
        <time>2018-07-18T13:37:33Z</time>
      </trkpt>
      <trkpt lat="47.77561" lon="-3.56923">
        <ele>40</ele>
        <time>2018-07-18T13:37:34Z</time>
      </trkpt>
      <trkpt lat="47.77557" lon="-3.56926">
        <ele>40</ele>
        <time>2018-07-18T13:37:35Z</time>
      </trkpt>
      <trkpt lat="47.77552" lon="-3.56929">
        <ele>40</ele>
        <time>2018-07-18T13:37:36Z</time>
      </trkpt>
      <trkpt lat="47.77548" lon="-3.56932">
        <ele>40</ele>
        <time>2018-07-18T13:37:37Z</time>
      </trkpt>
      <trkpt lat="47.77544" lon="-3.56934">
        <ele>40</ele>
        <time>2018-07-18T13:37:38Z</time>
      </trkpt>
      <trkpt lat="47.77539" lon="-3.56937">
        <ele>40</ele>
        <time>2018-07-18T13:37:39Z</time>
      </trkpt>
      <trkpt lat="47.77535" lon="-3.5694">
        <ele>41</ele>
        <time>2018-07-18T13:37:40Z</time>
      </trkpt>
      <trkpt lat="47.77531" lon="-3.56943">
        <ele>41</ele>
        <time>2018-07-18T13:37:41Z</time>
      </trkpt>
      <trkpt lat="47.77527" lon="-3.56947">
        <ele>41</ele>
        <time>2018-07-18T13:37:42Z</time>
      </trkpt>
      <trkpt lat="47.77523" lon="-3.5695">
        <ele>41</ele>
        <time>2018-07-18T13:37:43Z</time>
      </trkpt>
      <trkpt lat="47.77519" lon="-3.56954">
        <ele>41</ele>
        <time>2018-07-18T13:37:44Z</time>
      </trkpt>
      <trkpt lat="47.77515" lon="-3.56957">
        <ele>41</ele>
        <time>2018-07-18T13:37:45Z</time>
      </trkpt>
      <trkpt lat="47.77511" lon="-3.5696">
        <ele>41</ele>
        <time>2018-07-18T13:37:46Z</time>
      </trkpt>
      <trkpt lat="47.77507" lon="-3.56964">
        <ele>41</ele>
        <time>2018-07-18T13:37:47Z</time>
      </trkpt>
      <trkpt lat="47.77502" lon="-3.56967">
        <ele>41</ele>
        <time>2018-07-18T13:37:48Z</time>
      </trkpt>
      <trkpt lat="47.77498" lon="-3.56971">
        <ele>41</ele>
        <time>2018-07-18T13:37:49Z</time>
      </trkpt>
      <trkpt lat="47.77493" lon="-3.56975">
        <ele>41</ele>
        <time>2018-07-18T13:37:50Z</time>
      </trkpt>
      <trkpt lat="47.77489" lon="-3.56979">
        <ele>41</ele>
        <time>2018-07-18T13:37:51Z</time>
      </trkpt>
      <trkpt lat="47.77484" lon="-3.56982">
        <ele>41</ele>
        <time>2018-07-18T13:37:52Z</time>
      </trkpt>
      <trkpt lat="47.7748" lon="-3.56985">
        <ele>41</ele>
        <time>2018-07-18T13:37:53Z</time>
      </trkpt>
      <trkpt lat="47.77474" lon="-3.56988">
        <ele>41</ele>
        <time>2018-07-18T13:37:54Z</time>
      </trkpt>
      <trkpt lat="47.7747" lon="-3.5699">
        <ele>41</ele>
        <time>2018-07-18T13:37:55Z</time>
      </trkpt>
      <trkpt lat="47.77464" lon="-3.56992">
        <ele>40</ele>
        <time>2018-07-18T13:37:56Z</time>
      </trkpt>
      <trkpt lat="47.77459" lon="-3.56995">
        <ele>40</ele>
        <time>2018-07-18T13:37:57Z</time>
      </trkpt>
      <trkpt lat="47.77454" lon="-3.56996">
        <ele>40</ele>
        <time>2018-07-18T13:37:58Z</time>
      </trkpt>
      <trkpt lat="47.77448" lon="-3.56998">
        <ele>40</ele>
        <time>2018-07-18T13:37:59Z</time>
      </trkpt>
      <trkpt lat="47.77443" lon="-3.56999">
        <ele>39</ele>
        <time>2018-07-18T13:38:00Z</time>
      </trkpt>
      <trkpt lat="47.77436" lon="-3.56999">
        <ele>39</ele>
        <time>2018-07-18T13:38:01Z</time>
      </trkpt>
      <trkpt lat="47.7743" lon="-3.56999">
        <ele>39</ele>
        <time>2018-07-18T13:38:02Z</time>
      </trkpt>
      <trkpt lat="47.77424" lon="-3.56997">
        <ele>39</ele>
        <time>2018-07-18T13:38:03Z</time>
      </trkpt>
      <trkpt lat="47.77417" lon="-3.56995">
        <ele>38</ele>
        <time>2018-07-18T13:38:04Z</time>
      </trkpt>
      <trkpt lat="47.77411" lon="-3.56991">
        <ele>38</ele>
        <time>2018-07-18T13:38:05Z</time>
      </trkpt>
      <trkpt lat="47.77405" lon="-3.56986">
        <ele>38</ele>
        <time>2018-07-18T13:38:06Z</time>
      </trkpt>
      <trkpt lat="47.77399" lon="-3.56981">
        <ele>38</ele>
        <time>2018-07-18T13:38:07Z</time>
      </trkpt>
      <trkpt lat="47.77393" lon="-3.56976">
        <ele>38</ele>
        <time>2018-07-18T13:38:08Z</time>
      </trkpt>
      <trkpt lat="47.77388" lon="-3.5697">
        <ele>38</ele>
        <time>2018-07-18T13:38:09Z</time>
      </trkpt>
      <trkpt lat="47.77383" lon="-3.56964">
        <ele>37</ele>
        <time>2018-07-18T13:38:10Z</time>
      </trkpt>
      <trkpt lat="47.77378" lon="-3.56958">
        <ele>37</ele>
        <time>2018-07-18T13:38:11Z</time>
      </trkpt>
      <trkpt lat="47.77372" lon="-3.56952">
        <ele>37</ele>
        <time>2018-07-18T13:38:12Z</time>
      </trkpt>
      <trkpt lat="47.77367" lon="-3.56947">
        <ele>37</ele>
        <time>2018-07-18T13:38:13Z</time>
      </trkpt>
      <trkpt lat="47.77362" lon="-3.56942">
        <ele>37</ele>
        <time>2018-07-18T13:38:14Z</time>
      </trkpt>
      <trkpt lat="47.77356" lon="-3.56937">
        <ele>37</ele>
        <time>2018-07-18T13:38:15Z</time>
      </trkpt>
      <trkpt lat="47.77351" lon="-3.56933">
        <ele>37</ele>
        <time>2018-07-18T13:38:16Z</time>
      </trkpt>
      <trkpt lat="47.77346" lon="-3.56929">
        <ele>37</ele>
        <time>2018-07-18T13:38:17Z</time>
      </trkpt>
      <trkpt lat="47.7734" lon="-3.56926">
        <ele>38</ele>
        <time>2018-07-18T13:38:18Z</time>
      </trkpt>
      <trkpt lat="47.77336" lon="-3.56924">
        <ele>38</ele>
        <time>2018-07-18T13:38:19Z</time>
      </trkpt>
      <trkpt lat="47.7733" lon="-3.56922">
        <ele>38</ele>
        <time>2018-07-18T13:38:20Z</time>
      </trkpt>
      <trkpt lat="47.77326" lon="-3.56919">
        <ele>38</ele>
        <time>2018-07-18T13:38:21Z</time>
      </trkpt>
      <trkpt lat="47.7732" lon="-3.56917">
        <ele>38</ele>
        <time>2018-07-18T13:38:22Z</time>
      </trkpt>
      <trkpt lat="47.77315" lon="-3.56914">
        <ele>38</ele>
        <time>2018-07-18T13:38:23Z</time>
      </trkpt>
      <trkpt lat="47.7731" lon="-3.56912">
        <ele>38</ele>
        <time>2018-07-18T13:38:24Z</time>
      </trkpt>
      <trkpt lat="47.77305" lon="-3.56909">
        <ele>38</ele>
        <time>2018-07-18T13:38:25Z</time>
      </trkpt>
      <trkpt lat="47.77299" lon="-3.56906">
        <ele>38</ele>
        <time>2018-07-18T13:38:26Z</time>
      </trkpt>
      <trkpt lat="47.77294" lon="-3.56903">
        <ele>38</ele>
        <time>2018-07-18T13:38:27Z</time>
      </trkpt>
      <trkpt lat="47.77289" lon="-3.569">
        <ele>38</ele>
        <time>2018-07-18T13:38:28Z</time>
      </trkpt>
      <trkpt lat="47.77284" lon="-3.56897">
        <ele>38</ele>
        <time>2018-07-18T13:38:29Z</time>
      </trkpt>
      <trkpt lat="47.77278" lon="-3.56894">
        <ele>38</ele>
        <time>2018-07-18T13:38:30Z</time>
      </trkpt>
      <trkpt lat="47.77273" lon="-3.5689">
        <ele>38</ele>
        <time>2018-07-18T13:38:31Z</time>
      </trkpt>
      <trkpt lat="47.77267" lon="-3.56886">
        <ele>38</ele>
        <time>2018-07-18T13:38:32Z</time>
      </trkpt>
      <trkpt lat="47.77261" lon="-3.56883">
        <ele>38</ele>
        <time>2018-07-18T13:38:33Z</time>
      </trkpt>
      <trkpt lat="47.77256" lon="-3.56879">
        <ele>37</ele>
        <time>2018-07-18T13:38:34Z</time>
      </trkpt>
      <trkpt lat="47.7725" lon="-3.56876">
        <ele>37</ele>
        <time>2018-07-18T13:38:35Z</time>
      </trkpt>
      <trkpt lat="47.77244" lon="-3.56872">
        <ele>37</ele>
        <time>2018-07-18T13:38:36Z</time>
      </trkpt>
      <trkpt lat="47.77238" lon="-3.56868">
        <ele>37</ele>
        <time>2018-07-18T13:38:37Z</time>
      </trkpt>
      <trkpt lat="47.77233" lon="-3.56864">
        <ele>36</ele>
        <time>2018-07-18T13:38:38Z</time>
      </trkpt>
      <trkpt lat="47.77227" lon="-3.56861">
        <ele>36</ele>
        <time>2018-07-18T13:38:39Z</time>
      </trkpt>
      <trkpt lat="47.77221" lon="-3.56858">
        <ele>36</ele>
        <time>2018-07-18T13:38:40Z</time>
      </trkpt>
      <trkpt lat="47.77215" lon="-3.56855">
        <ele>36</ele>
        <time>2018-07-18T13:38:41Z</time>
      </trkpt>
      <trkpt lat="47.7721" lon="-3.56852">
        <ele>35</ele>
        <time>2018-07-18T13:38:42Z</time>
      </trkpt>
      <trkpt lat="47.77205" lon="-3.5685">
        <ele>35</ele>
        <time>2018-07-18T13:38:43Z</time>
      </trkpt>
      <trkpt lat="47.772" lon="-3.56847">
        <ele>35</ele>
        <time>2018-07-18T13:38:44Z</time>
      </trkpt>
      <trkpt lat="47.77194" lon="-3.56844">
        <ele>35</ele>
        <time>2018-07-18T13:38:45Z</time>
      </trkpt>
      <trkpt lat="47.77188" lon="-3.56842">
        <ele>35</ele>
        <time>2018-07-18T13:38:46Z</time>
      </trkpt>
      <trkpt lat="47.77183" lon="-3.56839">
        <ele>35</ele>
        <time>2018-07-18T13:38:47Z</time>
      </trkpt>
      <trkpt lat="47.77177" lon="-3.56837">
        <ele>35</ele>
        <time>2018-07-18T13:38:48Z</time>
      </trkpt>
      <trkpt lat="47.77171" lon="-3.56835">
        <ele>34</ele>
        <time>2018-07-18T13:38:49Z</time>
      </trkpt>
      <trkpt lat="47.77166" lon="-3.56832">
        <ele>34</ele>
        <time>2018-07-18T13:38:50Z</time>
      </trkpt>
      <trkpt lat="47.7716" lon="-3.56831">
        <ele>34</ele>
        <time>2018-07-18T13:38:51Z</time>
      </trkpt>
      <trkpt lat="47.77154" lon="-3.56828">
        <ele>34</ele>
        <time>2018-07-18T13:38:52Z</time>
      </trkpt>
      <trkpt lat="47.77147" lon="-3.56827">
        <ele>33</ele>
        <time>2018-07-18T13:38:53Z</time>
      </trkpt>
      <trkpt lat="47.7714" lon="-3.56824">
        <ele>33</ele>
        <time>2018-07-18T13:38:54Z</time>
      </trkpt>
      <trkpt lat="47.77134" lon="-3.56822">
        <ele>33</ele>
        <time>2018-07-18T13:38:55Z</time>
      </trkpt>
      <trkpt lat="47.77128" lon="-3.56821">
        <ele>32</ele>
        <time>2018-07-18T13:38:56Z</time>
      </trkpt>
      <trkpt lat="47.77121" lon="-3.56821">
        <ele>32</ele>
        <time>2018-07-18T13:38:57Z</time>
      </trkpt>
      <trkpt lat="47.77116" lon="-3.56821">
        <ele>32</ele>
        <time>2018-07-18T13:38:58Z</time>
      </trkpt>
      <trkpt lat="47.77111" lon="-3.56821">
        <ele>31</ele>
        <time>2018-07-18T13:38:59Z</time>
      </trkpt>
      <trkpt lat="47.77109" lon="-3.5682">
        <ele>31</ele>
        <time>2018-07-18T13:39:00Z</time>
      </trkpt>
      <trkpt lat="47.77108" lon="-3.56816">
        <ele>31</ele>
        <time>2018-07-18T13:39:01Z</time>
      </trkpt>
      <trkpt lat="47.77109" lon="-3.56811">
        <ele>31</ele>
        <time>2018-07-18T13:39:02Z</time>
      </trkpt>
      <trkpt lat="47.7711" lon="-3.56805">
        <ele>31</ele>
        <time>2018-07-18T13:39:03Z</time>
      </trkpt>
      <trkpt lat="47.77111" lon="-3.56797">
        <ele>31</ele>
        <time>2018-07-18T13:39:04Z</time>
      </trkpt>
      <trkpt lat="47.77112" lon="-3.5679">
        <ele>31</ele>
        <time>2018-07-18T13:39:05Z</time>
      </trkpt>
      <trkpt lat="47.77113" lon="-3.56782">
        <ele>30</ele>
        <time>2018-07-18T13:39:06Z</time>
      </trkpt>
      <trkpt lat="47.77115" lon="-3.56774">
        <ele>30</ele>
        <time>2018-07-18T13:39:07Z</time>
      </trkpt>
      <trkpt lat="47.77116" lon="-3.56766">
        <ele>30</ele>
        <time>2018-07-18T13:39:08Z</time>
      </trkpt>
      <trkpt lat="47.77118" lon="-3.56759">
        <ele>30</ele>
        <time>2018-07-18T13:39:09Z</time>
      </trkpt>
      <trkpt lat="47.77119" lon="-3.56751">
        <ele>30</ele>
        <time>2018-07-18T13:39:10Z</time>
      </trkpt>
      <trkpt lat="47.77121" lon="-3.56743">
        <ele>29</ele>
        <time>2018-07-18T13:39:11Z</time>
      </trkpt>
      <trkpt lat="47.77122" lon="-3.56734">
        <ele>29</ele>
        <time>2018-07-18T13:39:12Z</time>
      </trkpt>
      <trkpt lat="47.77124" lon="-3.56726">
        <ele>29</ele>
        <time>2018-07-18T13:39:13Z</time>
      </trkpt>
      <trkpt lat="47.77126" lon="-3.56716">
        <ele>28</ele>
        <time>2018-07-18T13:39:14Z</time>
      </trkpt>
      <trkpt lat="47.77129" lon="-3.56707">
        <ele>28</ele>
        <time>2018-07-18T13:39:15Z</time>
      </trkpt>
      <trkpt lat="47.77131" lon="-3.56698">
        <ele>27</ele>
        <time>2018-07-18T13:39:16Z</time>
      </trkpt>
      <trkpt lat="47.77134" lon="-3.56689">
        <ele>27</ele>
        <time>2018-07-18T13:39:17Z</time>
      </trkpt>
      <trkpt lat="47.77136" lon="-3.56682">
        <ele>27</ele>
        <time>2018-07-18T13:39:18Z</time>
      </trkpt>
      <trkpt lat="47.77138" lon="-3.56677">
        <ele>27</ele>
        <time>2018-07-18T13:39:19Z</time>
      </trkpt>
      <trkpt lat="47.77139" lon="-3.56673">
        <ele>26</ele>
        <time>2018-07-18T13:39:20Z</time>
      </trkpt>
      <trkpt lat="47.77139" lon="-3.56671">
        <ele>26</ele>
        <time>2018-07-18T13:39:21Z</time>
      </trkpt>
      <trkpt lat="47.7714" lon="-3.56669">
        <ele>26</ele>
        <time>2018-07-18T13:39:22Z</time>
      </trkpt>
      <trkpt lat="47.7714" lon="-3.56667">
        <ele>26</ele>
        <time>2018-07-18T13:39:23Z</time>
      </trkpt>
      <trkpt lat="47.77141" lon="-3.56666">
        <ele>26</ele>
        <time>2018-07-18T13:39:24Z</time>
      </trkpt>
      <trkpt lat="47.77141" lon="-3.56664">
        <ele>26</ele>
        <time>2018-07-18T13:39:25Z</time>
      </trkpt>
      <trkpt lat="47.77142" lon="-3.56661">
        <ele>26</ele>
        <time>2018-07-18T13:39:26Z</time>
      </trkpt>
      <trkpt lat="47.77143" lon="-3.56658">
        <ele>26</ele>
        <time>2018-07-18T13:39:27Z</time>
      </trkpt>
      <trkpt lat="47.77145" lon="-3.56655">
        <ele>26</ele>
        <time>2018-07-18T13:39:28Z</time>
      </trkpt>
      <trkpt lat="47.77146" lon="-3.56652">
        <ele>26</ele>
        <time>2018-07-18T13:39:29Z</time>
      </trkpt>
      <trkpt lat="47.77147" lon="-3.56648">
        <ele>26</ele>
        <time>2018-07-18T13:39:30Z</time>
      </trkpt>
      <trkpt lat="47.77149" lon="-3.56644">
        <ele>26</ele>
        <time>2018-07-18T13:39:31Z</time>
      </trkpt>
      <trkpt lat="47.7715" lon="-3.56641">
        <ele>26</ele>
        <time>2018-07-18T13:39:32Z</time>
      </trkpt>
      <trkpt lat="47.77151" lon="-3.56637">
        <ele>26</ele>
        <time>2018-07-18T13:39:33Z</time>
      </trkpt>
      <trkpt lat="47.77152" lon="-3.56633">
        <ele>27</ele>
        <time>2018-07-18T13:39:34Z</time>
      </trkpt>
      <trkpt lat="47.77154" lon="-3.56628">
        <ele>27</ele>
        <time>2018-07-18T13:39:35Z</time>
      </trkpt>
      <trkpt lat="47.77155" lon="-3.56625">
        <ele>27</ele>
        <time>2018-07-18T13:39:36Z</time>
      </trkpt>
      <trkpt lat="47.77156" lon="-3.56621">
        <ele>27</ele>
        <time>2018-07-18T13:39:37Z</time>
      </trkpt>
      <trkpt lat="47.77158" lon="-3.56617">
        <ele>27</ele>
        <time>2018-07-18T13:39:38Z</time>
      </trkpt>
      <trkpt lat="47.7716" lon="-3.56614">
        <ele>27</ele>
        <time>2018-07-18T13:39:39Z</time>
      </trkpt>
      <trkpt lat="47.77162" lon="-3.56611">
        <ele>28</ele>
        <time>2018-07-18T13:39:40Z</time>
      </trkpt>
      <trkpt lat="47.77164" lon="-3.56608">
        <ele>28</ele>
        <time>2018-07-18T13:39:41Z</time>
      </trkpt>
      <trkpt lat="47.77165" lon="-3.56604">
        <ele>28</ele>
        <time>2018-07-18T13:39:42Z</time>
      </trkpt>
      <trkpt lat="47.77167" lon="-3.56601">
        <ele>28</ele>
        <time>2018-07-18T13:39:43Z</time>
      </trkpt>
      <trkpt lat="47.77169" lon="-3.56598">
        <ele>29</ele>
        <time>2018-07-18T13:39:44Z</time>
      </trkpt>
      <trkpt lat="47.77171" lon="-3.56594">
        <ele>29</ele>
        <time>2018-07-18T13:39:45Z</time>
      </trkpt>
      <trkpt lat="47.77173" lon="-3.56591">
        <ele>29</ele>
        <time>2018-07-18T13:39:46Z</time>
      </trkpt>
      <trkpt lat="47.77175" lon="-3.56587">
        <ele>29</ele>
        <time>2018-07-18T13:39:47Z</time>
      </trkpt>
      <trkpt lat="47.77178" lon="-3.56583">
        <ele>30</ele>
        <time>2018-07-18T13:39:48Z</time>
      </trkpt>
      <trkpt lat="47.7718" lon="-3.56579">
        <ele>30</ele>
        <time>2018-07-18T13:39:49Z</time>
      </trkpt>
      <trkpt lat="47.77182" lon="-3.56576">
        <ele>30</ele>
        <time>2018-07-18T13:39:50Z</time>
      </trkpt>
      <trkpt lat="47.77185" lon="-3.56573">
        <ele>30</ele>
        <time>2018-07-18T13:39:51Z</time>
      </trkpt>
      <trkpt lat="47.77187" lon="-3.5657">
        <ele>30</ele>
        <time>2018-07-18T13:39:52Z</time>
      </trkpt>
      <trkpt lat="47.7719" lon="-3.56568">
        <ele>31</ele>
        <time>2018-07-18T13:39:53Z</time>
      </trkpt>
      <trkpt lat="47.77193" lon="-3.56565">
        <ele>31</ele>
        <time>2018-07-18T13:39:54Z</time>
      </trkpt>
      <trkpt lat="47.77196" lon="-3.56562">
        <ele>31</ele>
        <time>2018-07-18T13:39:55Z</time>
      </trkpt>
      <trkpt lat="47.77199" lon="-3.56559">
        <ele>31</ele>
        <time>2018-07-18T13:39:56Z</time>
      </trkpt>
      <trkpt lat="47.77202" lon="-3.56556">
        <ele>31</ele>
        <time>2018-07-18T13:39:57Z</time>
      </trkpt>
      <trkpt lat="47.77205" lon="-3.56554">
        <ele>31</ele>
        <time>2018-07-18T13:39:58Z</time>
      </trkpt>
      <trkpt lat="47.77208" lon="-3.56551">
        <ele>31</ele>
        <time>2018-07-18T13:39:59Z</time>
      </trkpt>
      <trkpt lat="47.77211" lon="-3.56549">
        <ele>32</ele>
        <time>2018-07-18T13:40:00Z</time>
      </trkpt>
      <trkpt lat="47.77214" lon="-3.56547">
        <ele>32</ele>
        <time>2018-07-18T13:40:01Z</time>
      </trkpt>
      <trkpt lat="47.77218" lon="-3.56546">
        <ele>32</ele>
        <time>2018-07-18T13:40:02Z</time>
      </trkpt>
      <trkpt lat="47.77221" lon="-3.56545">
        <ele>32</ele>
        <time>2018-07-18T13:40:03Z</time>
      </trkpt>
      <trkpt lat="47.77225" lon="-3.56544">
        <ele>32</ele>
        <time>2018-07-18T13:40:04Z</time>
      </trkpt>
      <trkpt lat="47.77228" lon="-3.56543">
        <ele>32</ele>
        <time>2018-07-18T13:40:05Z</time>
      </trkpt>
      <trkpt lat="47.77231" lon="-3.56542">
        <ele>32</ele>
        <time>2018-07-18T13:40:06Z</time>
      </trkpt>
      <trkpt lat="47.77235" lon="-3.56541">
        <ele>32</ele>
        <time>2018-07-18T13:40:07Z</time>
      </trkpt>
      <trkpt lat="47.77238" lon="-3.56538">
        <ele>32</ele>
        <time>2018-07-18T13:40:08Z</time>
      </trkpt>
      <trkpt lat="47.77241" lon="-3.56535">
        <ele>32</ele>
        <time>2018-07-18T13:40:09Z</time>
      </trkpt>
      <trkpt lat="47.77244" lon="-3.56531">
        <ele>32</ele>
        <time>2018-07-18T13:40:10Z</time>
      </trkpt>
      <trkpt lat="47.77247" lon="-3.56527">
        <ele>32</ele>
        <time>2018-07-18T13:40:11Z</time>
      </trkpt>
      <trkpt lat="47.7725" lon="-3.56523">
        <ele>33</ele>
        <time>2018-07-18T13:40:12Z</time>
      </trkpt>
      <trkpt lat="47.77253" lon="-3.56519">
        <ele>33</ele>
        <time>2018-07-18T13:40:13Z</time>
      </trkpt>
      <trkpt lat="47.77256" lon="-3.56516">
        <ele>33</ele>
        <time>2018-07-18T13:40:14Z</time>
      </trkpt>
      <trkpt lat="47.77259" lon="-3.56514">
        <ele>33</ele>
        <time>2018-07-18T13:40:15Z</time>
      </trkpt>
      <trkpt lat="47.77263" lon="-3.56512">
        <ele>33</ele>
        <time>2018-07-18T13:40:16Z</time>
      </trkpt>
      <trkpt lat="47.77266" lon="-3.56511">
        <ele>33</ele>
        <time>2018-07-18T13:40:17Z</time>
      </trkpt>
      <trkpt lat="47.7727" lon="-3.5651">
        <ele>33</ele>
        <time>2018-07-18T13:40:18Z</time>
      </trkpt>
      <trkpt lat="47.77273" lon="-3.56508">
        <ele>33</ele>
        <time>2018-07-18T13:40:19Z</time>
      </trkpt>
      <trkpt lat="47.77277" lon="-3.56506">
        <ele>33</ele>
        <time>2018-07-18T13:40:20Z</time>
      </trkpt>
      <trkpt lat="47.7728" lon="-3.56504">
        <ele>33</ele>
        <time>2018-07-18T13:40:21Z</time>
      </trkpt>
      <trkpt lat="47.77283" lon="-3.56503">
        <ele>33</ele>
        <time>2018-07-18T13:40:22Z</time>
      </trkpt>
      <trkpt lat="47.77284" lon="-3.56502">
        <ele>33</ele>
        <time>2018-07-18T13:40:23Z</time>
      </trkpt>
      <trkpt lat="47.77286" lon="-3.56502">
        <ele>34</ele>
        <time>2018-07-18T13:40:24Z</time>
      </trkpt>
      <trkpt lat="47.77287" lon="-3.56503">
        <ele>34</ele>
        <time>2018-07-18T13:40:25Z</time>
      </trkpt>
      <trkpt lat="47.77289" lon="-3.56504">
        <ele>34</ele>
        <time>2018-07-18T13:40:26Z</time>
      </trkpt>
      <trkpt lat="47.7729" lon="-3.56506">
        <ele>34</ele>
        <time>2018-07-18T13:40:27Z</time>
      </trkpt>
      <trkpt lat="47.77293" lon="-3.56507">
        <ele>34</ele>
        <time>2018-07-18T13:40:28Z</time>
      </trkpt>
      <trkpt lat="47.77295" lon="-3.56509">
        <ele>34</ele>
        <time>2018-07-18T13:40:29Z</time>
      </trkpt>
      <trkpt lat="47.77298" lon="-3.56511">
        <ele>34</ele>
        <time>2018-07-18T13:40:30Z</time>
      </trkpt>
      <trkpt lat="47.77301" lon="-3.56513">
        <ele>34</ele>
        <time>2018-07-18T13:40:31Z</time>
      </trkpt>
      <trkpt lat="47.77304" lon="-3.56514">
        <ele>34</ele>
        <time>2018-07-18T13:40:32Z</time>
      </trkpt>
      <trkpt lat="47.77307" lon="-3.56515">
        <ele>34</ele>
        <time>2018-07-18T13:40:33Z</time>
      </trkpt>
      <trkpt lat="47.7731" lon="-3.56516">
        <ele>34</ele>
        <time>2018-07-18T13:40:34Z</time>
      </trkpt>
      <trkpt lat="47.77313" lon="-3.56518">
        <ele>35</ele>
        <time>2018-07-18T13:40:35Z</time>
      </trkpt>
      <trkpt lat="47.77317" lon="-3.5652">
        <ele>35</ele>
        <time>2018-07-18T13:40:36Z</time>
      </trkpt>
      <trkpt lat="47.7732" lon="-3.56523">
        <ele>35</ele>
        <time>2018-07-18T13:40:37Z</time>
      </trkpt>
      <trkpt lat="47.77323" lon="-3.56526">
        <ele>35</ele>
        <time>2018-07-18T13:40:38Z</time>
      </trkpt>
      <trkpt lat="47.77326" lon="-3.56529">
        <ele>35</ele>
        <time>2018-07-18T13:40:39Z</time>
      </trkpt>
      <trkpt lat="47.7733" lon="-3.56532">
        <ele>36</ele>
        <time>2018-07-18T13:40:40Z</time>
      </trkpt>
      <trkpt lat="47.77333" lon="-3.56535">
        <ele>36</ele>
        <time>2018-07-18T13:40:41Z</time>
      </trkpt>
      <trkpt lat="47.77336" lon="-3.56537">
        <ele>36</ele>
        <time>2018-07-18T13:40:42Z</time>
      </trkpt>
      <trkpt lat="47.7734" lon="-3.56538">
        <ele>36</ele>
        <time>2018-07-18T13:40:43Z</time>
      </trkpt>
      <trkpt lat="47.77344" lon="-3.5654">
        <ele>36</ele>
        <time>2018-07-18T13:40:44Z</time>
      </trkpt>
      <trkpt lat="47.77348" lon="-3.56542">
        <ele>36</ele>
        <time>2018-07-18T13:40:45Z</time>
      </trkpt>
      <trkpt lat="47.77352" lon="-3.56543">
        <ele>36</ele>
        <time>2018-07-18T13:40:46Z</time>
      </trkpt>
      <trkpt lat="47.77356" lon="-3.56545">
        <ele>36</ele>
        <time>2018-07-18T13:40:47Z</time>
      </trkpt>
      <trkpt lat="47.77361" lon="-3.56547">
        <ele>37</ele>
        <time>2018-07-18T13:40:48Z</time>
      </trkpt>
      <trkpt lat="47.77366" lon="-3.56549">
        <ele>37</ele>
        <time>2018-07-18T13:40:49Z</time>
      </trkpt>
      <trkpt lat="47.77371" lon="-3.56551">
        <ele>37</ele>
        <time>2018-07-18T13:40:50Z</time>
      </trkpt>
      <trkpt lat="47.77375" lon="-3.56552">
        <ele>37</ele>
        <time>2018-07-18T13:40:51Z</time>
      </trkpt>
      <trkpt lat="47.7738" lon="-3.56553">
        <ele>37</ele>
        <time>2018-07-18T13:40:52Z</time>
      </trkpt>
      <trkpt lat="47.77385" lon="-3.56554">
        <ele>37</ele>
        <time>2018-07-18T13:40:53Z</time>
      </trkpt>
      <trkpt lat="47.77389" lon="-3.56554">
        <ele>37</ele>
        <time>2018-07-18T13:40:54Z</time>
      </trkpt>
      <trkpt lat="47.77394" lon="-3.56555">
        <ele>37</ele>
        <time>2018-07-18T13:40:55Z</time>
      </trkpt>
      <trkpt lat="47.77399" lon="-3.56556">
        <ele>37</ele>
        <time>2018-07-18T13:40:56Z</time>
      </trkpt>
      <trkpt lat="47.77405" lon="-3.56556">
        <ele>37</ele>
        <time>2018-07-18T13:40:57Z</time>
      </trkpt>
      <trkpt lat="47.7741" lon="-3.56557">
        <ele>37</ele>
        <time>2018-07-18T13:40:58Z</time>
      </trkpt>
      <trkpt lat="47.77415" lon="-3.56558">
        <ele>37</ele>
        <time>2018-07-18T13:40:59Z</time>
      </trkpt>
      <trkpt lat="47.77421" lon="-3.56558">
        <ele>36</ele>
        <time>2018-07-18T13:41:00Z</time>
      </trkpt>
      <trkpt lat="47.77426" lon="-3.56558">
        <ele>36</ele>
        <time>2018-07-18T13:41:01Z</time>
      </trkpt>
      <trkpt lat="47.77431" lon="-3.56556">
        <ele>36</ele>
        <time>2018-07-18T13:41:02Z</time>
      </trkpt>
      <trkpt lat="47.77434" lon="-3.56553">
        <ele>37</ele>
        <time>2018-07-18T13:41:03Z</time>
      </trkpt>
      <trkpt lat="47.77436" lon="-3.56549">
        <ele>36</ele>
        <time>2018-07-18T13:41:04Z</time>
      </trkpt>
      <trkpt lat="47.77437" lon="-3.56545">
        <ele>36</ele>
        <time>2018-07-18T13:41:05Z</time>
      </trkpt>
      <trkpt lat="47.77438" lon="-3.56541">
        <ele>36</ele>
        <time>2018-07-18T13:41:06Z</time>
      </trkpt>
      <trkpt lat="47.77439" lon="-3.56536">
        <ele>36</ele>
        <time>2018-07-18T13:41:07Z</time>
      </trkpt>
      <trkpt lat="47.7744" lon="-3.56532">
        <ele>36</ele>
        <time>2018-07-18T13:41:08Z</time>
      </trkpt>
      <trkpt lat="47.77441" lon="-3.56526">
        <ele>36</ele>
        <time>2018-07-18T13:41:09Z</time>
      </trkpt>
      <trkpt lat="47.77441" lon="-3.56519">
        <ele>36</ele>
        <time>2018-07-18T13:41:10Z</time>
      </trkpt>
      <trkpt lat="47.7744" lon="-3.56513">
        <ele>36</ele>
        <time>2018-07-18T13:41:11Z</time>
      </trkpt>
      <trkpt lat="47.77438" lon="-3.5651">
        <ele>36</ele>
        <time>2018-07-18T13:41:12Z</time>
      </trkpt>
      <trkpt lat="47.77437" lon="-3.56507">
        <ele>36</ele>
        <time>2018-07-18T13:41:13Z</time>
      </trkpt>
      <trkpt lat="47.77436" lon="-3.56506">
        <ele>36</ele>
        <time>2018-07-18T13:41:14Z</time>
      </trkpt>
      <trkpt lat="47.77435" lon="-3.56505">
        <ele>36</ele>
        <time>2018-07-18T13:41:15Z</time>
      </trkpt>
      <trkpt lat="47.77435" lon="-3.56503">
        <ele>36</ele>
        <time>2018-07-18T13:41:16Z</time>
      </trkpt>
      <trkpt lat="47.77435" lon="-3.56502">
        <ele>36</ele>
        <time>2018-07-18T13:41:17Z</time>
      </trkpt>
      <trkpt lat="47.77435" lon="-3.56502">
        <ele>36</ele>
        <time>2018-07-18T13:41:18Z</time>
      </trkpt>
      <trkpt lat="47.77436" lon="-3.56503">
        <ele>36</ele>
        <time>2018-07-18T13:41:19Z</time>
      </trkpt>
      <trkpt lat="47.77437" lon="-3.56505">
        <ele>36</ele>
        <time>2018-07-18T13:41:20Z</time>
      </trkpt>
      <trkpt lat="47.77439" lon="-3.56508">
        <ele>36</ele>
        <time>2018-07-18T13:41:21Z</time>
      </trkpt>
      <trkpt lat="47.7744" lon="-3.56511">
        <ele>36</ele>
        <time>2018-07-18T13:41:22Z</time>
      </trkpt>
      <trkpt lat="47.77441" lon="-3.56515">
        <ele>36</ele>
        <time>2018-07-18T13:41:23Z</time>
      </trkpt>
      <trkpt lat="47.77442" lon="-3.56518">
        <ele>36</ele>
        <time>2018-07-18T13:41:24Z</time>
      </trkpt>
      <trkpt lat="47.77443" lon="-3.56522">
        <ele>36</ele>
        <time>2018-07-18T13:41:25Z</time>
      </trkpt>
      <trkpt lat="47.77444" lon="-3.56526">
        <ele>37</ele>
        <time>2018-07-18T13:41:26Z</time>
      </trkpt>
      <trkpt lat="47.77446" lon="-3.5653">
        <ele>37</ele>
        <time>2018-07-18T13:41:27Z</time>
      </trkpt>
      <trkpt lat="47.77448" lon="-3.56534">
        <ele>37</ele>
        <time>2018-07-18T13:41:28Z</time>
      </trkpt>
      <trkpt lat="47.77451" lon="-3.56537">
        <ele>37</ele>
        <time>2018-07-18T13:41:29Z</time>
      </trkpt>
      <trkpt lat="47.77454" lon="-3.56539">
        <ele>37</ele>
        <time>2018-07-18T13:41:30Z</time>
      </trkpt>
      <trkpt lat="47.77457" lon="-3.56542">
        <ele>37</ele>
        <time>2018-07-18T13:41:31Z</time>
      </trkpt>
      <trkpt lat="47.7746" lon="-3.56544">
        <ele>37</ele>
        <time>2018-07-18T13:41:32Z</time>
      </trkpt>
      <trkpt lat="47.77464" lon="-3.56546">
        <ele>38</ele>
        <time>2018-07-18T13:41:33Z</time>
      </trkpt>
      <trkpt lat="47.77467" lon="-3.56546">
        <ele>38</ele>
        <time>2018-07-18T13:41:34Z</time>
      </trkpt>
      <trkpt lat="47.7747" lon="-3.56543">
        <ele>37</ele>
        <time>2018-07-18T13:41:35Z</time>
      </trkpt>
      <trkpt lat="47.77473" lon="-3.56538">
        <ele>37</ele>
        <time>2018-07-18T13:41:36Z</time>
      </trkpt>
      <trkpt lat="47.77475" lon="-3.56533">
        <ele>37</ele>
        <time>2018-07-18T13:41:37Z</time>
      </trkpt>
      <trkpt lat="47.77478" lon="-3.56527">
        <ele>37</ele>
        <time>2018-07-18T13:41:38Z</time>
      </trkpt>
      <trkpt lat="47.77481" lon="-3.56521">
        <ele>37</ele>
        <time>2018-07-18T13:41:39Z</time>
      </trkpt>
      <trkpt lat="47.77484" lon="-3.56515">
        <ele>36</ele>
        <time>2018-07-18T13:41:40Z</time>
      </trkpt>
      <trkpt lat="47.77488" lon="-3.5651">
        <ele>36</ele>
        <time>2018-07-18T13:41:41Z</time>
      </trkpt>
      <trkpt lat="47.77491" lon="-3.56505">
        <ele>36</ele>
        <time>2018-07-18T13:41:42Z</time>
      </trkpt>
      <trkpt lat="47.77495" lon="-3.56499">
        <ele>36</ele>
        <time>2018-07-18T13:41:43Z</time>
      </trkpt>
      <trkpt lat="47.77498" lon="-3.56494">
        <ele>36</ele>
        <time>2018-07-18T13:41:44Z</time>
      </trkpt>
      <trkpt lat="47.77502" lon="-3.56489">
        <ele>36</ele>
        <time>2018-07-18T13:41:45Z</time>
      </trkpt>
      <trkpt lat="47.77506" lon="-3.56484">
        <ele>36</ele>
        <time>2018-07-18T13:41:46Z</time>
      </trkpt>
      <trkpt lat="47.7751" lon="-3.56479">
        <ele>36</ele>
        <time>2018-07-18T13:41:47Z</time>
      </trkpt>
      <trkpt lat="47.77513" lon="-3.56475">
        <ele>36</ele>
        <time>2018-07-18T13:41:48Z</time>
      </trkpt>
      <trkpt lat="47.77518" lon="-3.56471">
        <ele>35</ele>
        <time>2018-07-18T13:41:49Z</time>
      </trkpt>
      <trkpt lat="47.77522" lon="-3.56468">
        <ele>35</ele>
        <time>2018-07-18T13:41:50Z</time>
      </trkpt>
      <trkpt lat="47.77526" lon="-3.56465">
        <ele>35</ele>
        <time>2018-07-18T13:41:51Z</time>
      </trkpt>
      <trkpt lat="47.77531" lon="-3.56461">
        <ele>35</ele>
        <time>2018-07-18T13:41:52Z</time>
      </trkpt>
      <trkpt lat="47.77535" lon="-3.56457">
        <ele>35</ele>
        <time>2018-07-18T13:41:53Z</time>
      </trkpt>
      <trkpt lat="47.77538" lon="-3.56451">
        <ele>35</ele>
        <time>2018-07-18T13:41:54Z</time>
      </trkpt>
      <trkpt lat="47.77542" lon="-3.56445">
        <ele>35</ele>
        <time>2018-07-18T13:41:55Z</time>
      </trkpt>
      <trkpt lat="47.77546" lon="-3.56439">
        <ele>35</ele>
        <time>2018-07-18T13:41:56Z</time>
      </trkpt>
      <trkpt lat="47.77549" lon="-3.56433">
        <ele>35</ele>
        <time>2018-07-18T13:41:57Z</time>
      </trkpt>
      <trkpt lat="47.77554" lon="-3.56427">
        <ele>35</ele>
        <time>2018-07-18T13:41:58Z</time>
      </trkpt>
      <trkpt lat="47.77558" lon="-3.56422">
        <ele>35</ele>
        <time>2018-07-18T13:41:59Z</time>
      </trkpt>
      <trkpt lat="47.77563" lon="-3.56417">
        <ele>35</ele>
        <time>2018-07-18T13:42:00Z</time>
      </trkpt>
      <trkpt lat="47.77567" lon="-3.56413">
        <ele>35</ele>
        <time>2018-07-18T13:42:01Z</time>
      </trkpt>
      <trkpt lat="47.77571" lon="-3.56409">
        <ele>35</ele>
        <time>2018-07-18T13:42:02Z</time>
      </trkpt>
      <trkpt lat="47.77573" lon="-3.56405">
        <ele>35</ele>
        <time>2018-07-18T13:42:03Z</time>
      </trkpt>
      <trkpt lat="47.77575" lon="-3.564">
        <ele>36</ele>
        <time>2018-07-18T13:42:04Z</time>
      </trkpt>
      <trkpt lat="47.77576" lon="-3.56396">
        <ele>36</ele>
        <time>2018-07-18T13:42:05Z</time>
      </trkpt>
      <trkpt lat="47.77576" lon="-3.56391">
        <ele>36</ele>
        <time>2018-07-18T13:42:06Z</time>
      </trkpt>
      <trkpt lat="47.77577" lon="-3.56387">
        <ele>36</ele>
        <time>2018-07-18T13:42:07Z</time>
      </trkpt>
      <trkpt lat="47.77578" lon="-3.56382">
        <ele>36</ele>
        <time>2018-07-18T13:42:08Z</time>
      </trkpt>
      <trkpt lat="47.77579" lon="-3.56378">
        <ele>36</ele>
        <time>2018-07-18T13:42:09Z</time>
      </trkpt>
      <trkpt lat="47.77582" lon="-3.56375">
        <ele>36</ele>
        <time>2018-07-18T13:42:10Z</time>
      </trkpt>
      <trkpt lat="47.77586" lon="-3.56373">
        <ele>36</ele>
        <time>2018-07-18T13:42:11Z</time>
      </trkpt>
      <trkpt lat="47.77589" lon="-3.56372">
        <ele>36</ele>
        <time>2018-07-18T13:42:12Z</time>
      </trkpt>
      <trkpt lat="47.77592" lon="-3.56371">
        <ele>36</ele>
        <time>2018-07-18T13:42:13Z</time>
      </trkpt>
      <trkpt lat="47.77595" lon="-3.56369">
        <ele>36</ele>
        <time>2018-07-18T13:42:14Z</time>
      </trkpt>
      <trkpt lat="47.77598" lon="-3.56368">
        <ele>37</ele>
        <time>2018-07-18T13:42:15Z</time>
      </trkpt>
      <trkpt lat="47.77602" lon="-3.56367">
        <ele>37</ele>
        <time>2018-07-18T13:42:16Z</time>
      </trkpt>
      <trkpt lat="47.77605" lon="-3.56366">
        <ele>37</ele>
        <time>2018-07-18T13:42:17Z</time>
      </trkpt>
      <trkpt lat="47.77609" lon="-3.56365">
        <ele>37</ele>
        <time>2018-07-18T13:42:18Z</time>
      </trkpt>
      <trkpt lat="47.77614" lon="-3.56364">
        <ele>37</ele>
        <time>2018-07-18T13:42:19Z</time>
      </trkpt>
      <trkpt lat="47.77618" lon="-3.56364">
        <ele>37</ele>
        <time>2018-07-18T13:42:20Z</time>
      </trkpt>
      <trkpt lat="47.77622" lon="-3.56363">
        <ele>37</ele>
        <time>2018-07-18T13:42:21Z</time>
      </trkpt>
      <trkpt lat="47.77626" lon="-3.56362">
        <ele>38</ele>
        <time>2018-07-18T13:42:22Z</time>
      </trkpt>
      <trkpt lat="47.7763" lon="-3.56362">
        <ele>38</ele>
        <time>2018-07-18T13:42:23Z</time>
      </trkpt>
      <trkpt lat="47.77634" lon="-3.56361">
        <ele>38</ele>
        <time>2018-07-18T13:42:24Z</time>
      </trkpt>
      <trkpt lat="47.77638" lon="-3.5636">
        <ele>38</ele>
        <time>2018-07-18T13:42:25Z</time>
      </trkpt>
      <trkpt lat="47.77641" lon="-3.56359">
        <ele>38</ele>
        <time>2018-07-18T13:42:26Z</time>
      </trkpt>
      <trkpt lat="47.77645" lon="-3.56358">
        <ele>38</ele>
        <time>2018-07-18T13:42:27Z</time>
      </trkpt>
      <trkpt lat="47.77649" lon="-3.56357">
        <ele>38</ele>
        <time>2018-07-18T13:42:28Z</time>
      </trkpt>
      <trkpt lat="47.77652" lon="-3.56356">
        <ele>38</ele>
        <time>2018-07-18T13:42:29Z</time>
      </trkpt>
      <trkpt lat="47.77656" lon="-3.56355">
        <ele>39</ele>
        <time>2018-07-18T13:42:30Z</time>
      </trkpt>
      <trkpt lat="47.7766" lon="-3.56355">
        <ele>39</ele>
        <time>2018-07-18T13:42:31Z</time>
      </trkpt>
      <trkpt lat="47.77664" lon="-3.56355">
        <ele>39</ele>
        <time>2018-07-18T13:42:32Z</time>
      </trkpt>
      <trkpt lat="47.77668" lon="-3.56355">
        <ele>39</ele>
        <time>2018-07-18T13:42:33Z</time>
      </trkpt>
      <trkpt lat="47.77672" lon="-3.56355">
        <ele>40</ele>
        <time>2018-07-18T13:42:34Z</time>
      </trkpt>
      <trkpt lat="47.77677" lon="-3.56355">
        <ele>40</ele>
        <time>2018-07-18T13:42:35Z</time>
      </trkpt>
      <trkpt lat="47.77681" lon="-3.56354">
        <ele>40</ele>
        <time>2018-07-18T13:42:36Z</time>
      </trkpt>
      <trkpt lat="47.77686" lon="-3.56353">
        <ele>40</ele>
        <time>2018-07-18T13:42:37Z</time>
      </trkpt>
      <trkpt lat="47.7769" lon="-3.56351">
        <ele>40</ele>
        <time>2018-07-18T13:42:38Z</time>
      </trkpt>
      <trkpt lat="47.77694" lon="-3.5635">
        <ele>40</ele>
        <time>2018-07-18T13:42:39Z</time>
      </trkpt>
      <trkpt lat="47.77699" lon="-3.56349">
        <ele>40</ele>
        <time>2018-07-18T13:42:40Z</time>
      </trkpt>
      <trkpt lat="47.77702" lon="-3.56348">
        <ele>41</ele>
        <time>2018-07-18T13:42:41Z</time>
      </trkpt>
      <trkpt lat="47.77705" lon="-3.56346">
        <ele>41</ele>
        <time>2018-07-18T13:42:42Z</time>
      </trkpt>
      <trkpt lat="47.77706" lon="-3.56344">
        <ele>41</ele>
        <time>2018-07-18T13:42:43Z</time>
      </trkpt>
      <trkpt lat="47.77706" lon="-3.56341">
        <ele>41</ele>
        <time>2018-07-18T13:42:44Z</time>
      </trkpt>
      <trkpt lat="47.77705" lon="-3.56338">
        <ele>41</ele>
        <time>2018-07-18T13:42:45Z</time>
      </trkpt>
      <trkpt lat="47.77704" lon="-3.56334">
        <ele>41</ele>
        <time>2018-07-18T13:42:46Z</time>
      </trkpt>
      <trkpt lat="47.77703" lon="-3.56328">
        <ele>41</ele>
        <time>2018-07-18T13:42:47Z</time>
      </trkpt>
      <trkpt lat="47.77702" lon="-3.56322">
        <ele>40</ele>
        <time>2018-07-18T13:42:48Z</time>
      </trkpt>
      <trkpt lat="47.77702" lon="-3.56315">
        <ele>40</ele>
        <time>2018-07-18T13:42:49Z</time>
      </trkpt>
      <trkpt lat="47.77701" lon="-3.56308">
        <ele>40</ele>
        <time>2018-07-18T13:42:50Z</time>
      </trkpt>
      <trkpt lat="47.77701" lon="-3.56301">
        <ele>40</ele>
        <time>2018-07-18T13:42:51Z</time>
      </trkpt>
      <trkpt lat="47.77701" lon="-3.56295">
        <ele>39</ele>
        <time>2018-07-18T13:42:52Z</time>
      </trkpt>
      <trkpt lat="47.777" lon="-3.56288">
        <ele>39</ele>
        <time>2018-07-18T13:42:53Z</time>
      </trkpt>
      <trkpt lat="47.77699" lon="-3.56282">
        <ele>39</ele>
        <time>2018-07-18T13:42:54Z</time>
      </trkpt>
      <trkpt lat="47.77698" lon="-3.56276">
        <ele>39</ele>
        <time>2018-07-18T13:42:55Z</time>
      </trkpt>
      <trkpt lat="47.77697" lon="-3.5627">
        <ele>39</ele>
        <time>2018-07-18T13:42:56Z</time>
      </trkpt>
      <trkpt lat="47.77695" lon="-3.56263">
        <ele>39</ele>
        <time>2018-07-18T13:42:57Z</time>
      </trkpt>
      <trkpt lat="47.77694" lon="-3.56257">
        <ele>39</ele>
        <time>2018-07-18T13:42:58Z</time>
      </trkpt>
      <trkpt lat="47.77693" lon="-3.5625">
        <ele>39</ele>
        <time>2018-07-18T13:42:59Z</time>
      </trkpt>
      <trkpt lat="47.77693" lon="-3.56244">
        <ele>39</ele>
        <time>2018-07-18T13:43:00Z</time>
      </trkpt>
      <trkpt lat="47.77694" lon="-3.56237">
        <ele>39</ele>
        <time>2018-07-18T13:43:01Z</time>
      </trkpt>
      <trkpt lat="47.77696" lon="-3.5623">
        <ele>39</ele>
        <time>2018-07-18T13:43:02Z</time>
      </trkpt>
      <trkpt lat="47.77697" lon="-3.56223">
        <ele>39</ele>
        <time>2018-07-18T13:43:03Z</time>
      </trkpt>
      <trkpt lat="47.77699" lon="-3.56217">
        <ele>39</ele>
        <time>2018-07-18T13:43:04Z</time>
      </trkpt>
      <trkpt lat="47.777" lon="-3.5621">
        <ele>39</ele>
        <time>2018-07-18T13:43:05Z</time>
      </trkpt>
      <trkpt lat="47.77702" lon="-3.56203">
        <ele>39</ele>
        <time>2018-07-18T13:43:06Z</time>
      </trkpt>
      <trkpt lat="47.77705" lon="-3.56196">
        <ele>39</ele>
        <time>2018-07-18T13:43:07Z</time>
      </trkpt>
      <trkpt lat="47.77707" lon="-3.5619">
        <ele>39</ele>
        <time>2018-07-18T13:43:08Z</time>
      </trkpt>
      <trkpt lat="47.77709" lon="-3.56183">
        <ele>39</ele>
        <time>2018-07-18T13:43:09Z</time>
      </trkpt>
      <trkpt lat="47.77711" lon="-3.56176">
        <ele>39</ele>
        <time>2018-07-18T13:43:10Z</time>
      </trkpt>
      <trkpt lat="47.77714" lon="-3.5617">
        <ele>39</ele>
        <time>2018-07-18T13:43:11Z</time>
      </trkpt>
      <trkpt lat="47.77716" lon="-3.56164">
        <ele>39</ele>
        <time>2018-07-18T13:43:12Z</time>
      </trkpt>
      <trkpt lat="47.77718" lon="-3.56158">
        <ele>39</ele>
        <time>2018-07-18T13:43:13Z</time>
      </trkpt>
      <trkpt lat="47.7772" lon="-3.56151">
        <ele>39</ele>
        <time>2018-07-18T13:43:14Z</time>
      </trkpt>
      <trkpt lat="47.77723" lon="-3.56144">
        <ele>39</ele>
        <time>2018-07-18T13:43:15Z</time>
      </trkpt>
      <trkpt lat="47.77725" lon="-3.56137">
        <ele>39</ele>
        <time>2018-07-18T13:43:16Z</time>
      </trkpt>
      <trkpt lat="47.77727" lon="-3.5613">
        <ele>39</ele>
        <time>2018-07-18T13:43:17Z</time>
      </trkpt>
      <trkpt lat="47.77729" lon="-3.56123">
        <ele>39</ele>
        <time>2018-07-18T13:43:18Z</time>
      </trkpt>
      <trkpt lat="47.77732" lon="-3.56117">
        <ele>38</ele>
        <time>2018-07-18T13:43:19Z</time>
      </trkpt>
      <trkpt lat="47.77734" lon="-3.5611">
        <ele>38</ele>
        <time>2018-07-18T13:43:20Z</time>
      </trkpt>
      <trkpt lat="47.77736" lon="-3.56103">
        <ele>38</ele>
        <time>2018-07-18T13:43:21Z</time>
      </trkpt>
      <trkpt lat="47.77737" lon="-3.56096">
        <ele>38</ele>
        <time>2018-07-18T13:43:22Z</time>
      </trkpt>
      <trkpt lat="47.77739" lon="-3.5609">
        <ele>38</ele>
        <time>2018-07-18T13:43:23Z</time>
      </trkpt>
      <trkpt lat="47.77741" lon="-3.56084">
        <ele>38</ele>
        <time>2018-07-18T13:43:24Z</time>
      </trkpt>
      <trkpt lat="47.77743" lon="-3.56077">
        <ele>38</ele>
        <time>2018-07-18T13:43:25Z</time>
      </trkpt>
      <trkpt lat="47.77745" lon="-3.5607">
        <ele>38</ele>
        <time>2018-07-18T13:43:26Z</time>
      </trkpt>
      <trkpt lat="47.77747" lon="-3.56063">
        <ele>38</ele>
        <time>2018-07-18T13:43:27Z</time>
      </trkpt>
      <trkpt lat="47.77748" lon="-3.56057">
        <ele>37</ele>
        <time>2018-07-18T13:43:28Z</time>
      </trkpt>
      <trkpt lat="47.7775" lon="-3.56051">
        <ele>37</ele>
        <time>2018-07-18T13:43:29Z</time>
      </trkpt>
      <trkpt lat="47.77752" lon="-3.56046">
        <ele>38</ele>
        <time>2018-07-18T13:43:30Z</time>
      </trkpt>
      <trkpt lat="47.77753" lon="-3.56041">
        <ele>38</ele>
        <time>2018-07-18T13:43:31Z</time>
      </trkpt>
      <trkpt lat="47.77755" lon="-3.56036">
        <ele>38</ele>
        <time>2018-07-18T13:43:32Z</time>
      </trkpt>
      <trkpt lat="47.77756" lon="-3.56031">
        <ele>38</ele>
        <time>2018-07-18T13:43:33Z</time>
      </trkpt>
      <trkpt lat="47.77758" lon="-3.56026">
        <ele>38</ele>
        <time>2018-07-18T13:43:34Z</time>
      </trkpt>
      <trkpt lat="47.77759" lon="-3.5602">
        <ele>38</ele>
        <time>2018-07-18T13:43:35Z</time>
      </trkpt>
      <trkpt lat="47.7776" lon="-3.56015">
        <ele>38</ele>
        <time>2018-07-18T13:43:36Z</time>
      </trkpt>
      <trkpt lat="47.77762" lon="-3.5601">
        <ele>38</ele>
        <time>2018-07-18T13:43:37Z</time>
      </trkpt>
      <trkpt lat="47.77764" lon="-3.56005">
        <ele>38</ele>
        <time>2018-07-18T13:43:38Z</time>
      </trkpt>
      <trkpt lat="47.77765" lon="-3.56001">
        <ele>38</ele>
        <time>2018-07-18T13:43:39Z</time>
      </trkpt>
      <trkpt lat="47.77767" lon="-3.55996">
        <ele>38</ele>
        <time>2018-07-18T13:43:40Z</time>
      </trkpt>
      <trkpt lat="47.77769" lon="-3.55991">
        <ele>38</ele>
        <time>2018-07-18T13:43:41Z</time>
      </trkpt>
      <trkpt lat="47.7777" lon="-3.55986">
        <ele>38</ele>
        <time>2018-07-18T13:43:42Z</time>
      </trkpt>
      <trkpt lat="47.77772" lon="-3.55981">
        <ele>38</ele>
        <time>2018-07-18T13:43:43Z</time>
      </trkpt>
      <trkpt lat="47.77775" lon="-3.55975">
        <ele>38</ele>
        <time>2018-07-18T13:43:44Z</time>
      </trkpt>
      <trkpt lat="47.77777" lon="-3.55969">
        <ele>38</ele>
        <time>2018-07-18T13:43:45Z</time>
      </trkpt>
      <trkpt lat="47.77779" lon="-3.55963">
        <ele>38</ele>
        <time>2018-07-18T13:43:46Z</time>
      </trkpt>
      <trkpt lat="47.77782" lon="-3.55957">
        <ele>38</ele>
        <time>2018-07-18T13:43:47Z</time>
      </trkpt>
      <trkpt lat="47.77785" lon="-3.5595">
        <ele>38</ele>
        <time>2018-07-18T13:43:48Z</time>
      </trkpt>
      <trkpt lat="47.77787" lon="-3.55943">
        <ele>38</ele>
        <time>2018-07-18T13:43:49Z</time>
      </trkpt>
      <trkpt lat="47.77789" lon="-3.55936">
        <ele>38</ele>
        <time>2018-07-18T13:43:50Z</time>
      </trkpt>
      <trkpt lat="47.77792" lon="-3.55929">
        <ele>38</ele>
        <time>2018-07-18T13:43:51Z</time>
      </trkpt>
      <trkpt lat="47.77794" lon="-3.55922">
        <ele>37</ele>
        <time>2018-07-18T13:43:52Z</time>
      </trkpt>
      <trkpt lat="47.77797" lon="-3.55916">
        <ele>37</ele>
        <time>2018-07-18T13:43:53Z</time>
      </trkpt>
      <trkpt lat="47.77799" lon="-3.55909">
        <ele>37</ele>
        <time>2018-07-18T13:43:54Z</time>
      </trkpt>
      <trkpt lat="47.77802" lon="-3.55902">
        <ele>37</ele>
        <time>2018-07-18T13:43:55Z</time>
      </trkpt>
      <trkpt lat="47.77805" lon="-3.55896">
        <ele>37</ele>
        <time>2018-07-18T13:43:56Z</time>
      </trkpt>
      <trkpt lat="47.77808" lon="-3.55889">
        <ele>37</ele>
        <time>2018-07-18T13:43:57Z</time>
      </trkpt>
      <trkpt lat="47.77811" lon="-3.55884">
        <ele>37</ele>
        <time>2018-07-18T13:43:58Z</time>
      </trkpt>
      <trkpt lat="47.77814" lon="-3.55878">
        <ele>36</ele>
        <time>2018-07-18T13:43:59Z</time>
      </trkpt>
      <trkpt lat="47.77816" lon="-3.55872">
        <ele>36</ele>
        <time>2018-07-18T13:44:00Z</time>
      </trkpt>
      <trkpt lat="47.77819" lon="-3.55866">
        <ele>36</ele>
        <time>2018-07-18T13:44:01Z</time>
      </trkpt>
      <trkpt lat="47.77822" lon="-3.5586">
        <ele>36</ele>
        <time>2018-07-18T13:44:02Z</time>
      </trkpt>
      <trkpt lat="47.77826" lon="-3.55855">
        <ele>36</ele>
        <time>2018-07-18T13:44:03Z</time>
      </trkpt>
      <trkpt lat="47.77829" lon="-3.5585">
        <ele>36</ele>
        <time>2018-07-18T13:44:04Z</time>
      </trkpt>
      <trkpt lat="47.77832" lon="-3.55845">
        <ele>36</ele>
        <time>2018-07-18T13:44:05Z</time>
      </trkpt>
      <trkpt lat="47.77835" lon="-3.5584">
        <ele>36</ele>
        <time>2018-07-18T13:44:06Z</time>
      </trkpt>
      <trkpt lat="47.77838" lon="-3.55835">
        <ele>35</ele>
        <time>2018-07-18T13:44:07Z</time>
      </trkpt>
      <trkpt lat="47.77841" lon="-3.5583">
        <ele>35</ele>
        <time>2018-07-18T13:44:08Z</time>
      </trkpt>
      <trkpt lat="47.77844" lon="-3.55825">
        <ele>35</ele>
        <time>2018-07-18T13:44:09Z</time>
      </trkpt>
      <trkpt lat="47.77847" lon="-3.5582">
        <ele>35</ele>
        <time>2018-07-18T13:44:10Z</time>
      </trkpt>
      <trkpt lat="47.7785" lon="-3.55815">
        <ele>35</ele>
        <time>2018-07-18T13:44:11Z</time>
      </trkpt>
      <trkpt lat="47.77854" lon="-3.55809">
        <ele>35</ele>
        <time>2018-07-18T13:44:12Z</time>
      </trkpt>
      <trkpt lat="47.77857" lon="-3.55804">
        <ele>35</ele>
        <time>2018-07-18T13:44:13Z</time>
      </trkpt>
      <trkpt lat="47.7786" lon="-3.55799">
        <ele>35</ele>
        <time>2018-07-18T13:44:14Z</time>
      </trkpt>
      <trkpt lat="47.77864" lon="-3.55794">
        <ele>35</ele>
        <time>2018-07-18T13:44:15Z</time>
      </trkpt>
      <trkpt lat="47.77867" lon="-3.55791">
        <ele>35</ele>
        <time>2018-07-18T13:44:16Z</time>
      </trkpt>
      <trkpt lat="47.7787" lon="-3.55788">
        <ele>35</ele>
        <time>2018-07-18T13:44:17Z</time>
      </trkpt>
      <trkpt lat="47.77873" lon="-3.55785">
        <ele>35</ele>
        <time>2018-07-18T13:44:18Z</time>
      </trkpt>
      <trkpt lat="47.77874" lon="-3.55781">
        <ele>35</ele>
        <time>2018-07-18T13:44:19Z</time>
      </trkpt>
      <trkpt lat="47.77875" lon="-3.55777">
        <ele>35</ele>
        <time>2018-07-18T13:44:20Z</time>
      </trkpt>
      <trkpt lat="47.77874" lon="-3.55773">
        <ele>35</ele>
        <time>2018-07-18T13:44:21Z</time>
      </trkpt>
      <trkpt lat="47.77873" lon="-3.55768">
        <ele>35</ele>
        <time>2018-07-18T13:44:22Z</time>
      </trkpt>
      <trkpt lat="47.77871" lon="-3.55763">
        <ele>35</ele>
        <time>2018-07-18T13:44:23Z</time>
      </trkpt>
      <trkpt lat="47.77869" lon="-3.55758">
        <ele>35</ele>
        <time>2018-07-18T13:44:24Z</time>
      </trkpt>
      <trkpt lat="47.77867" lon="-3.55753">
        <ele>35</ele>
        <time>2018-07-18T13:44:25Z</time>
      </trkpt>
      <trkpt lat="47.77864" lon="-3.55747">
        <ele>35</ele>
        <time>2018-07-18T13:44:26Z</time>
      </trkpt>
      <trkpt lat="47.77862" lon="-3.55741">
        <ele>35</ele>
        <time>2018-07-18T13:44:27Z</time>
      </trkpt>
      <trkpt lat="47.77859" lon="-3.55735">
        <ele>35</ele>
        <time>2018-07-18T13:44:28Z</time>
      </trkpt>
      <trkpt lat="47.77857" lon="-3.55729">
        <ele>34</ele>
        <time>2018-07-18T13:44:29Z</time>
      </trkpt>
      <trkpt lat="47.77854" lon="-3.55724">
        <ele>34</ele>
        <time>2018-07-18T13:44:30Z</time>
      </trkpt>
      <trkpt lat="47.77852" lon="-3.55718">
        <ele>34</ele>
        <time>2018-07-18T13:44:31Z</time>
      </trkpt>
      <trkpt lat="47.7785" lon="-3.55713">
        <ele>34</ele>
        <time>2018-07-18T13:44:32Z</time>
      </trkpt>
      <trkpt lat="47.77848" lon="-3.55708">
        <ele>34</ele>
        <time>2018-07-18T13:44:33Z</time>
      </trkpt>
      <trkpt lat="47.77845" lon="-3.55703">
        <ele>34</ele>
        <time>2018-07-18T13:44:34Z</time>
      </trkpt>
      <trkpt lat="47.77844" lon="-3.55699">
        <ele>34</ele>
        <time>2018-07-18T13:44:35Z</time>
      </trkpt>
      <trkpt lat="47.77842" lon="-3.55696">
        <ele>34</ele>
        <time>2018-07-18T13:44:36Z</time>
      </trkpt>
      <trkpt lat="47.77841" lon="-3.55692">
        <ele>34</ele>
        <time>2018-07-18T13:44:37Z</time>
      </trkpt>
      <trkpt lat="47.77839" lon="-3.55688">
        <ele>34</ele>
        <time>2018-07-18T13:44:38Z</time>
      </trkpt>
      <trkpt lat="47.77837" lon="-3.55683">
        <ele>34</ele>
        <time>2018-07-18T13:44:39Z</time>
      </trkpt>
      <trkpt lat="47.77835" lon="-3.55679">
        <ele>34</ele>
        <time>2018-07-18T13:44:40Z</time>
      </trkpt>
      <trkpt lat="47.77834" lon="-3.55675">
        <ele>34</ele>
        <time>2018-07-18T13:44:41Z</time>
      </trkpt>
      <trkpt lat="47.77832" lon="-3.5567">
        <ele>34</ele>
        <time>2018-07-18T13:44:42Z</time>
      </trkpt>
      <trkpt lat="47.7783" lon="-3.55665">
        <ele>34</ele>
        <time>2018-07-18T13:44:43Z</time>
      </trkpt>
      <trkpt lat="47.77828" lon="-3.5566">
        <ele>34</ele>
        <time>2018-07-18T13:44:44Z</time>
      </trkpt>
      <trkpt lat="47.77827" lon="-3.55655">
        <ele>34</ele>
        <time>2018-07-18T13:44:45Z</time>
      </trkpt>
      <trkpt lat="47.77825" lon="-3.5565">
        <ele>34</ele>
        <time>2018-07-18T13:44:46Z</time>
      </trkpt>
      <trkpt lat="47.77822" lon="-3.55646">
        <ele>34</ele>
        <time>2018-07-18T13:44:47Z</time>
      </trkpt>
      <trkpt lat="47.7782" lon="-3.55641">
        <ele>34</ele>
        <time>2018-07-18T13:44:48Z</time>
      </trkpt>
      <trkpt lat="47.77818" lon="-3.55636">
        <ele>34</ele>
        <time>2018-07-18T13:44:49Z</time>
      </trkpt>
      <trkpt lat="47.77816" lon="-3.55631">
        <ele>34</ele>
        <time>2018-07-18T13:44:50Z</time>
      </trkpt>
      <trkpt lat="47.77814" lon="-3.55625">
        <ele>34</ele>
        <time>2018-07-18T13:44:51Z</time>
      </trkpt>
      <trkpt lat="47.77811" lon="-3.5562">
        <ele>34</ele>
        <time>2018-07-18T13:44:52Z</time>
      </trkpt>
      <trkpt lat="47.77808" lon="-3.55613">
        <ele>34</ele>
        <time>2018-07-18T13:44:53Z</time>
      </trkpt>
      <trkpt lat="47.77806" lon="-3.55607">
        <ele>34</ele>
        <time>2018-07-18T13:44:54Z</time>
      </trkpt>
      <trkpt lat="47.77803" lon="-3.55601">
        <ele>34</ele>
        <time>2018-07-18T13:44:55Z</time>
      </trkpt>
      <trkpt lat="47.778" lon="-3.55594">
        <ele>34</ele>
        <time>2018-07-18T13:44:56Z</time>
      </trkpt>
      <trkpt lat="47.77797" lon="-3.55587">
        <ele>34</ele>
        <time>2018-07-18T13:44:57Z</time>
      </trkpt>
      <trkpt lat="47.77794" lon="-3.55581">
        <ele>34</ele>
        <time>2018-07-18T13:44:58Z</time>
      </trkpt>
      <trkpt lat="47.77791" lon="-3.55574">
        <ele>34</ele>
        <time>2018-07-18T13:44:59Z</time>
      </trkpt>
      <trkpt lat="47.77789" lon="-3.55566">
        <ele>33</ele>
        <time>2018-07-18T13:45:00Z</time>
      </trkpt>
      <trkpt lat="47.77787" lon="-3.55558">
        <ele>33</ele>
        <time>2018-07-18T13:45:01Z</time>
      </trkpt>
      <trkpt lat="47.77786" lon="-3.5555">
        <ele>33</ele>
        <time>2018-07-18T13:45:02Z</time>
      </trkpt>
      <trkpt lat="47.77786" lon="-3.55543">
        <ele>33</ele>
        <time>2018-07-18T13:45:03Z</time>
      </trkpt>
      <trkpt lat="47.77789" lon="-3.55538">
        <ele>33</ele>
        <time>2018-07-18T13:45:04Z</time>
      </trkpt>
      <trkpt lat="47.77793" lon="-3.55536">
        <ele>33</ele>
        <time>2018-07-18T13:45:05Z</time>
      </trkpt>
      <trkpt lat="47.77797" lon="-3.55535">
        <ele>33</ele>
        <time>2018-07-18T13:45:06Z</time>
      </trkpt>
      <trkpt lat="47.77801" lon="-3.55534">
        <ele>33</ele>
        <time>2018-07-18T13:45:07Z</time>
      </trkpt>
      <trkpt lat="47.77806" lon="-3.55532">
        <ele>33</ele>
        <time>2018-07-18T13:45:08Z</time>
      </trkpt>
      <trkpt lat="47.7781" lon="-3.55532">
        <ele>34</ele>
        <time>2018-07-18T13:45:09Z</time>
      </trkpt>
      <trkpt lat="47.77815" lon="-3.55531">
        <ele>34</ele>
        <time>2018-07-18T13:45:10Z</time>
      </trkpt>
      <trkpt lat="47.77819" lon="-3.5553">
        <ele>34</ele>
        <time>2018-07-18T13:45:11Z</time>
      </trkpt>
      <trkpt lat="47.77824" lon="-3.55528">
        <ele>34</ele>
        <time>2018-07-18T13:45:12Z</time>
      </trkpt>
      <trkpt lat="47.77829" lon="-3.55526">
        <ele>34</ele>
        <time>2018-07-18T13:45:13Z</time>
      </trkpt>
      <trkpt lat="47.77834" lon="-3.55525">
        <ele>34</ele>
        <time>2018-07-18T13:45:14Z</time>
      </trkpt>
      <trkpt lat="47.77839" lon="-3.55523">
        <ele>34</ele>
        <time>2018-07-18T13:45:15Z</time>
      </trkpt>
      <trkpt lat="47.77844" lon="-3.55521">
        <ele>34</ele>
        <time>2018-07-18T13:45:16Z</time>
      </trkpt>
      <trkpt lat="47.77849" lon="-3.55518">
        <ele>34</ele>
        <time>2018-07-18T13:45:17Z</time>
      </trkpt>
      <trkpt lat="47.77854" lon="-3.55515">
        <ele>34</ele>
        <time>2018-07-18T13:45:18Z</time>
      </trkpt>
      <trkpt lat="47.77858" lon="-3.55511">
        <ele>34</ele>
        <time>2018-07-18T13:45:19Z</time>
      </trkpt>
      <trkpt lat="47.77862" lon="-3.55506">
        <ele>34</ele>
        <time>2018-07-18T13:45:20Z</time>
      </trkpt>
      <trkpt lat="47.77866" lon="-3.55501">
        <ele>35</ele>
        <time>2018-07-18T13:45:21Z</time>
      </trkpt>
      <trkpt lat="47.7787" lon="-3.55495">
        <ele>35</ele>
        <time>2018-07-18T13:45:22Z</time>
      </trkpt>
      <trkpt lat="47.77873" lon="-3.55489">
        <ele>35</ele>
        <time>2018-07-18T13:45:23Z</time>
      </trkpt>
      <trkpt lat="47.77875" lon="-3.55482">
        <ele>35</ele>
        <time>2018-07-18T13:45:24Z</time>
      </trkpt>
      <trkpt lat="47.77878" lon="-3.55475">
        <ele>35</ele>
        <time>2018-07-18T13:45:25Z</time>
      </trkpt>
      <trkpt lat="47.7788" lon="-3.55468">
        <ele>35</ele>
        <time>2018-07-18T13:45:26Z</time>
      </trkpt>
      <trkpt lat="47.77883" lon="-3.55461">
        <ele>35</ele>
        <time>2018-07-18T13:45:27Z</time>
      </trkpt>
      <trkpt lat="47.77884" lon="-3.55454">
        <ele>36</ele>
        <time>2018-07-18T13:45:28Z</time>
      </trkpt>
      <trkpt lat="47.77886" lon="-3.55446">
        <ele>36</ele>
        <time>2018-07-18T13:45:29Z</time>
      </trkpt>
      <trkpt lat="47.77888" lon="-3.55439">
        <ele>36</ele>
        <time>2018-07-18T13:45:30Z</time>
      </trkpt>
      <trkpt lat="47.7789" lon="-3.55432">
        <ele>36</ele>
        <time>2018-07-18T13:45:31Z</time>
      </trkpt>
      <trkpt lat="47.77892" lon="-3.55425">
        <ele>36</ele>
        <time>2018-07-18T13:45:32Z</time>
      </trkpt>
      <trkpt lat="47.77894" lon="-3.55418">
        <ele>36</ele>
        <time>2018-07-18T13:45:33Z</time>
      </trkpt>
      <trkpt lat="47.77896" lon="-3.55412">
        <ele>37</ele>
        <time>2018-07-18T13:45:34Z</time>
      </trkpt>
      <trkpt lat="47.77898" lon="-3.55405">
        <ele>37</ele>
        <time>2018-07-18T13:45:35Z</time>
      </trkpt>
      <trkpt lat="47.779" lon="-3.55398">
        <ele>37</ele>
        <time>2018-07-18T13:45:36Z</time>
      </trkpt>
      <trkpt lat="47.77902" lon="-3.55391">
        <ele>37</ele>
        <time>2018-07-18T13:45:37Z</time>
      </trkpt>
      <trkpt lat="47.77903" lon="-3.55383">
        <ele>37</ele>
        <time>2018-07-18T13:45:38Z</time>
      </trkpt>
      <trkpt lat="47.77904" lon="-3.55376">
        <ele>37</ele>
        <time>2018-07-18T13:45:39Z</time>
      </trkpt>
      <trkpt lat="47.77905" lon="-3.55368">
        <ele>37</ele>
        <time>2018-07-18T13:45:40Z</time>
      </trkpt>
      <trkpt lat="47.77906" lon="-3.55361">
        <ele>38</ele>
        <time>2018-07-18T13:45:41Z</time>
      </trkpt>
      <trkpt lat="47.77907" lon="-3.55354">
        <ele>38</ele>
        <time>2018-07-18T13:45:42Z</time>
      </trkpt>
      <trkpt lat="47.77907" lon="-3.55347">
        <ele>38</ele>
        <time>2018-07-18T13:45:43Z</time>
      </trkpt>
      <trkpt lat="47.77907" lon="-3.55341">
        <ele>38</ele>
        <time>2018-07-18T13:45:44Z</time>
      </trkpt>
      <trkpt lat="47.77906" lon="-3.55336">
        <ele>38</ele>
        <time>2018-07-18T13:45:45Z</time>
      </trkpt>
      <trkpt lat="47.77903" lon="-3.55334">
        <ele>38</ele>
        <time>2018-07-18T13:45:46Z</time>
      </trkpt>
      <trkpt lat="47.77899" lon="-3.55333">
        <ele>38</ele>
        <time>2018-07-18T13:45:47Z</time>
      </trkpt>
      <trkpt lat="47.77895" lon="-3.55333">
        <ele>38</ele>
        <time>2018-07-18T13:45:48Z</time>
      </trkpt>
      <trkpt lat="47.77891" lon="-3.55333">
        <ele>38</ele>
        <time>2018-07-18T13:45:49Z</time>
      </trkpt>
      <trkpt lat="47.77887" lon="-3.55333">
        <ele>38</ele>
        <time>2018-07-18T13:45:50Z</time>
      </trkpt>
      <trkpt lat="47.77882" lon="-3.55334">
        <ele>38</ele>
        <time>2018-07-18T13:45:51Z</time>
      </trkpt>
      <trkpt lat="47.77877" lon="-3.55334">
        <ele>38</ele>
        <time>2018-07-18T13:45:52Z</time>
      </trkpt>
      <trkpt lat="47.77871" lon="-3.55334">
        <ele>38</ele>
        <time>2018-07-18T13:45:53Z</time>
      </trkpt>
      <trkpt lat="47.77866" lon="-3.55335">
        <ele>37</ele>
        <time>2018-07-18T13:45:54Z</time>
      </trkpt>
      <trkpt lat="47.77861" lon="-3.55334">
        <ele>37</ele>
        <time>2018-07-18T13:45:55Z</time>
      </trkpt>
      <trkpt lat="47.77855" lon="-3.55334">
        <ele>37</ele>
        <time>2018-07-18T13:45:56Z</time>
      </trkpt>
      <trkpt lat="47.7785" lon="-3.55334">
        <ele>37</ele>
        <time>2018-07-18T13:45:57Z</time>
      </trkpt>
      <trkpt lat="47.77845" lon="-3.55333">
        <ele>37</ele>
        <time>2018-07-18T13:45:58Z</time>
      </trkpt>
      <trkpt lat="47.7784" lon="-3.55333">
        <ele>37</ele>
        <time>2018-07-18T13:45:59Z</time>
      </trkpt>
      <trkpt lat="47.77834" lon="-3.55333">
        <ele>37</ele>
        <time>2018-07-18T13:46:00Z</time>
      </trkpt>
      <trkpt lat="47.77829" lon="-3.55333">
        <ele>37</ele>
        <time>2018-07-18T13:46:01Z</time>
      </trkpt>
      <trkpt lat="47.77825" lon="-3.55332">
        <ele>37</ele>
        <time>2018-07-18T13:46:02Z</time>
      </trkpt>
      <trkpt lat="47.7782" lon="-3.55332">
        <ele>37</ele>
        <time>2018-07-18T13:46:03Z</time>
      </trkpt>
      <trkpt lat="47.77815" lon="-3.55332">
        <ele>37</ele>
        <time>2018-07-18T13:46:04Z</time>
      </trkpt>
      <trkpt lat="47.77811" lon="-3.55331">
        <ele>36</ele>
        <time>2018-07-18T13:46:05Z</time>
      </trkpt>
      <trkpt lat="47.77807" lon="-3.5533">
        <ele>36</ele>
        <time>2018-07-18T13:46:06Z</time>
      </trkpt>
      <trkpt lat="47.77803" lon="-3.55326">
        <ele>37</ele>
        <time>2018-07-18T13:46:07Z</time>
      </trkpt>
      <trkpt lat="47.77801" lon="-3.5532">
        <ele>37</ele>
        <time>2018-07-18T13:46:08Z</time>
      </trkpt>
      <trkpt lat="47.77798" lon="-3.55315">
        <ele>37</ele>
        <time>2018-07-18T13:46:09Z</time>
      </trkpt>
      <trkpt lat="47.77795" lon="-3.55312">
        <ele>37</ele>
        <time>2018-07-18T13:46:10Z</time>
      </trkpt>
      <trkpt lat="47.77792" lon="-3.55311">
        <ele>37</ele>
        <time>2018-07-18T13:46:11Z</time>
      </trkpt>
      <trkpt lat="47.77789" lon="-3.55312">
        <ele>37</ele>
        <time>2018-07-18T13:46:12Z</time>
      </trkpt>
      <trkpt lat="47.77784" lon="-3.55313">
        <ele>37</ele>
        <time>2018-07-18T13:46:13Z</time>
      </trkpt>
      <trkpt lat="47.7778" lon="-3.55314">
        <ele>37</ele>
        <time>2018-07-18T13:46:14Z</time>
      </trkpt>
      <trkpt lat="47.77776" lon="-3.55315">
        <ele>37</ele>
        <time>2018-07-18T13:46:15Z</time>
      </trkpt>
      <trkpt lat="47.77772" lon="-3.55317">
        <ele>37</ele>
        <time>2018-07-18T13:46:16Z</time>
      </trkpt>
      <trkpt lat="47.77768" lon="-3.55319">
        <ele>38</ele>
        <time>2018-07-18T13:46:17Z</time>
      </trkpt>
      <trkpt lat="47.77764" lon="-3.55322">
        <ele>38</ele>
        <time>2018-07-18T13:46:18Z</time>
      </trkpt>
      <trkpt lat="47.77759" lon="-3.55326">
        <ele>38</ele>
        <time>2018-07-18T13:46:19Z</time>
      </trkpt>
      <trkpt lat="47.77755" lon="-3.55329">
        <ele>38</ele>
        <time>2018-07-18T13:46:20Z</time>
      </trkpt>
      <trkpt lat="47.77751" lon="-3.55333">
        <ele>39</ele>
        <time>2018-07-18T13:46:21Z</time>
      </trkpt>
      <trkpt lat="47.77747" lon="-3.55337">
        <ele>39</ele>
        <time>2018-07-18T13:46:22Z</time>
      </trkpt>
      <trkpt lat="47.77743" lon="-3.55341">
        <ele>38</ele>
        <time>2018-07-18T13:46:23Z</time>
      </trkpt>
      <trkpt lat="47.77738" lon="-3.55343">
        <ele>38</ele>
        <time>2018-07-18T13:46:24Z</time>
      </trkpt>
      <trkpt lat="47.77734" lon="-3.55344">
        <ele>38</ele>
        <time>2018-07-18T13:46:25Z</time>
      </trkpt>
      <trkpt lat="47.7773" lon="-3.55345">
        <ele>38</ele>
        <time>2018-07-18T13:46:26Z</time>
      </trkpt>
      <trkpt lat="47.77726" lon="-3.55347">
        <ele>38</ele>
        <time>2018-07-18T13:46:27Z</time>
      </trkpt>
      <trkpt lat="47.77724" lon="-3.55347">
        <ele>37</ele>
        <time>2018-07-18T13:46:28Z</time>
      </trkpt>
      <trkpt lat="47.77723" lon="-3.55345">
        <ele>37</ele>
        <time>2018-07-18T13:46:29Z</time>
      </trkpt>
      <trkpt lat="47.77724" lon="-3.55344">
        <ele>37</ele>
        <time>2018-07-18T13:46:30Z</time>
      </trkpt>
      <trkpt lat="47.77726" lon="-3.55344">
        <ele>37</ele>
        <time>2018-07-18T13:46:31Z</time>
      </trkpt>
      <trkpt lat="47.77728" lon="-3.55344">
        <ele>37</ele>
        <time>2018-07-18T13:46:32Z</time>
      </trkpt>
      <trkpt lat="47.77731" lon="-3.55343">
        <ele>37</ele>
        <time>2018-07-18T13:46:33Z</time>
      </trkpt>
      <trkpt lat="47.77734" lon="-3.55343">
        <ele>37</ele>
        <time>2018-07-18T13:46:34Z</time>
      </trkpt>
      <trkpt lat="47.77737" lon="-3.55341">
        <ele>37</ele>
        <time>2018-07-18T13:46:35Z</time>
      </trkpt>
      <trkpt lat="47.7774" lon="-3.55339">
        <ele>37</ele>
        <time>2018-07-18T13:46:36Z</time>
      </trkpt>
      <trkpt lat="47.77743" lon="-3.55336">
        <ele>37</ele>
        <time>2018-07-18T13:46:37Z</time>
      </trkpt>
      <trkpt lat="47.77745" lon="-3.55333">
        <ele>37</ele>
        <time>2018-07-18T13:46:38Z</time>
      </trkpt>
      <trkpt lat="47.77747" lon="-3.55331">
        <ele>37</ele>
        <time>2018-07-18T13:46:39Z</time>
      </trkpt>
      <trkpt lat="47.77749" lon="-3.55328">
        <ele>37</ele>
        <time>2018-07-18T13:46:40Z</time>
      </trkpt>
      <trkpt lat="47.77752" lon="-3.55326">
        <ele>37</ele>
        <time>2018-07-18T13:46:41Z</time>
      </trkpt>
      <trkpt lat="47.77754" lon="-3.55324">
        <ele>37</ele>
        <time>2018-07-18T13:46:42Z</time>
      </trkpt>
      <trkpt lat="47.77757" lon="-3.55323">
        <ele>36</ele>
        <time>2018-07-18T13:46:43Z</time>
      </trkpt>
      <trkpt lat="47.77759" lon="-3.55321">
        <ele>36</ele>
        <time>2018-07-18T13:46:44Z</time>
      </trkpt>
      <trkpt lat="47.77762" lon="-3.5532">
        <ele>36</ele>
        <time>2018-07-18T13:46:45Z</time>
      </trkpt>
      <trkpt lat="47.77764" lon="-3.5532">
        <ele>36</ele>
        <time>2018-07-18T13:46:46Z</time>
      </trkpt>
      <trkpt lat="47.77767" lon="-3.55319">
        <ele>36</ele>
        <time>2018-07-18T13:46:47Z</time>
      </trkpt>
      <trkpt lat="47.7777" lon="-3.55318">
        <ele>36</ele>
        <time>2018-07-18T13:46:48Z</time>
      </trkpt>
      <trkpt lat="47.77772" lon="-3.55317">
        <ele>36</ele>
        <time>2018-07-18T13:46:49Z</time>
      </trkpt>
      <trkpt lat="47.77775" lon="-3.55316">
        <ele>36</ele>
        <time>2018-07-18T13:46:50Z</time>
      </trkpt>
      <trkpt lat="47.77778" lon="-3.55315">
        <ele>36</ele>
        <time>2018-07-18T13:46:51Z</time>
      </trkpt>
      <trkpt lat="47.77782" lon="-3.55314">
        <ele>36</ele>
        <time>2018-07-18T13:46:52Z</time>
      </trkpt>
      <trkpt lat="47.77785" lon="-3.55314">
        <ele>37</ele>
        <time>2018-07-18T13:46:53Z</time>
      </trkpt>
      <trkpt lat="47.77788" lon="-3.55314">
        <ele>37</ele>
        <time>2018-07-18T13:46:54Z</time>
      </trkpt>
      <trkpt lat="47.7779" lon="-3.55313">
        <ele>37</ele>
        <time>2018-07-18T13:46:55Z</time>
      </trkpt>
      <trkpt lat="47.77792" lon="-3.55314">
        <ele>37</ele>
        <time>2018-07-18T13:46:56Z</time>
      </trkpt>
      <trkpt lat="47.77793" lon="-3.55316">
        <ele>36</ele>
        <time>2018-07-18T13:46:57Z</time>
      </trkpt>
      <trkpt lat="47.77792" lon="-3.55316">
        <ele>36</ele>
        <time>2018-07-18T13:46:58Z</time>
      </trkpt>
      <trkpt lat="47.77791" lon="-3.55316">
        <ele>36</ele>
        <time>2018-07-18T13:46:59Z</time>
      </trkpt>
      <trkpt lat="47.7779" lon="-3.55314">
        <ele>36</ele>
        <time>2018-07-18T13:47:00Z</time>
      </trkpt>
      <trkpt lat="47.77788" lon="-3.55314">
        <ele>36</ele>
        <time>2018-07-18T13:47:01Z</time>
      </trkpt>
      <trkpt lat="47.77786" lon="-3.55314">
        <ele>36</ele>
        <time>2018-07-18T13:47:02Z</time>
      </trkpt>
      <trkpt lat="47.77782" lon="-3.55315">
        <ele>36</ele>
        <time>2018-07-18T13:47:03Z</time>
      </trkpt>
      <trkpt lat="47.77779" lon="-3.55316">
        <ele>36</ele>
        <time>2018-07-18T13:47:04Z</time>
      </trkpt>
      <trkpt lat="47.77776" lon="-3.55317">
        <ele>36</ele>
        <time>2018-07-18T13:47:05Z</time>
      </trkpt>
      <trkpt lat="47.77773" lon="-3.55318">
        <ele>36</ele>
        <time>2018-07-18T13:47:06Z</time>
      </trkpt>
      <trkpt lat="47.7777" lon="-3.55319">
        <ele>36</ele>
        <time>2018-07-18T13:47:07Z</time>
      </trkpt>
      <trkpt lat="47.77767" lon="-3.5532">
        <ele>36</ele>
        <time>2018-07-18T13:47:08Z</time>
      </trkpt>
      <trkpt lat="47.77764" lon="-3.55321">
        <ele>37</ele>
        <time>2018-07-18T13:47:09Z</time>
      </trkpt>
      <trkpt lat="47.7776" lon="-3.55324">
        <ele>37</ele>
        <time>2018-07-18T13:47:10Z</time>
      </trkpt>
      <trkpt lat="47.77757" lon="-3.55327">
        <ele>37</ele>
        <time>2018-07-18T13:47:11Z</time>
      </trkpt>
      <trkpt lat="47.77753" lon="-3.5533">
        <ele>37</ele>
        <time>2018-07-18T13:47:12Z</time>
      </trkpt>
      <trkpt lat="47.77749" lon="-3.55334">
        <ele>37</ele>
        <time>2018-07-18T13:47:13Z</time>
      </trkpt>
      <trkpt lat="47.77745" lon="-3.55338">
        <ele>37</ele>
        <time>2018-07-18T13:47:14Z</time>
      </trkpt>
      <trkpt lat="47.77741" lon="-3.55341">
        <ele>37</ele>
        <time>2018-07-18T13:47:15Z</time>
      </trkpt>
      <trkpt lat="47.77736" lon="-3.55344">
        <ele>37</ele>
        <time>2018-07-18T13:47:16Z</time>
      </trkpt>
      <trkpt lat="47.7773" lon="-3.55345">
        <ele>37</ele>
        <time>2018-07-18T13:47:17Z</time>
      </trkpt>
      <trkpt lat="47.77725" lon="-3.55347">
        <ele>37</ele>
        <time>2018-07-18T13:47:18Z</time>
      </trkpt>
      <trkpt lat="47.77719" lon="-3.55348">
        <ele>36</ele>
        <time>2018-07-18T13:47:19Z</time>
      </trkpt>
      <trkpt lat="47.77713" lon="-3.55348">
        <ele>36</ele>
        <time>2018-07-18T13:47:20Z</time>
      </trkpt>
      <trkpt lat="47.77708" lon="-3.55348">
        <ele>36</ele>
        <time>2018-07-18T13:47:21Z</time>
      </trkpt>
      <trkpt lat="47.77702" lon="-3.55348">
        <ele>36</ele>
        <time>2018-07-18T13:47:22Z</time>
      </trkpt>
      <trkpt lat="47.77697" lon="-3.55349">
        <ele>36</ele>
        <time>2018-07-18T13:47:23Z</time>
      </trkpt>
      <trkpt lat="47.77691" lon="-3.5535">
        <ele>36</ele>
        <time>2018-07-18T13:47:24Z</time>
      </trkpt>
      <trkpt lat="47.77686" lon="-3.5535">
        <ele>36</ele>
        <time>2018-07-18T13:47:25Z</time>
      </trkpt>
      <trkpt lat="47.77683" lon="-3.5535">
        <ele>36</ele>
        <time>2018-07-18T13:47:26Z</time>
      </trkpt>
      <trkpt lat="47.7768" lon="-3.55351">
        <ele>36</ele>
        <time>2018-07-18T13:47:27Z</time>
      </trkpt>
      <trkpt lat="47.77677" lon="-3.55351">
        <ele>36</ele>
        <time>2018-07-18T13:47:28Z</time>
      </trkpt>
      <trkpt lat="47.77672" lon="-3.55352">
        <ele>35</ele>
        <time>2018-07-18T13:47:29Z</time>
      </trkpt>
      <trkpt lat="47.77667" lon="-3.55351">
        <ele>35</ele>
        <time>2018-07-18T13:47:30Z</time>
      </trkpt>
      <trkpt lat="47.77662" lon="-3.5535">
        <ele>35</ele>
        <time>2018-07-18T13:47:31Z</time>
      </trkpt>
      <trkpt lat="47.77657" lon="-3.5535">
        <ele>35</ele>
        <time>2018-07-18T13:47:32Z</time>
      </trkpt>
      <trkpt lat="47.77651" lon="-3.55349">
        <ele>36</ele>
        <time>2018-07-18T13:47:33Z</time>
      </trkpt>
      <trkpt lat="47.77646" lon="-3.5535">
        <ele>36</ele>
        <time>2018-07-18T13:47:34Z</time>
      </trkpt>
      <trkpt lat="47.77642" lon="-3.55352">
        <ele>36</ele>
        <time>2018-07-18T13:47:35Z</time>
      </trkpt>
      <trkpt lat="47.77638" lon="-3.55354">
        <ele>36</ele>
        <time>2018-07-18T13:47:36Z</time>
      </trkpt>
      <trkpt lat="47.77634" lon="-3.55357">
        <ele>36</ele>
        <time>2018-07-18T13:47:37Z</time>
      </trkpt>
      <trkpt lat="47.7763" lon="-3.55359">
        <ele>36</ele>
        <time>2018-07-18T13:47:38Z</time>
      </trkpt>
      <trkpt lat="47.77625" lon="-3.55361">
        <ele>36</ele>
        <time>2018-07-18T13:47:39Z</time>
      </trkpt>
      <trkpt lat="47.77621" lon="-3.55363">
        <ele>36</ele>
        <time>2018-07-18T13:47:40Z</time>
      </trkpt>
      <trkpt lat="47.77617" lon="-3.55364">
        <ele>37</ele>
        <time>2018-07-18T13:47:41Z</time>
      </trkpt>
      <trkpt lat="47.77612" lon="-3.55366">
        <ele>37</ele>
        <time>2018-07-18T13:47:42Z</time>
      </trkpt>
      <trkpt lat="47.77607" lon="-3.55367">
        <ele>37</ele>
        <time>2018-07-18T13:47:43Z</time>
      </trkpt>
      <trkpt lat="47.77603" lon="-3.55368">
        <ele>37</ele>
        <time>2018-07-18T13:47:44Z</time>
      </trkpt>
      <trkpt lat="47.77598" lon="-3.55369">
        <ele>37</ele>
        <time>2018-07-18T13:47:45Z</time>
      </trkpt>
      <trkpt lat="47.77593" lon="-3.5537">
        <ele>37</ele>
        <time>2018-07-18T13:47:46Z</time>
      </trkpt>
      <trkpt lat="47.77589" lon="-3.55371">
        <ele>38</ele>
        <time>2018-07-18T13:47:47Z</time>
      </trkpt>
      <trkpt lat="47.77585" lon="-3.55372">
        <ele>38</ele>
        <time>2018-07-18T13:47:48Z</time>
      </trkpt>
      <trkpt lat="47.77581" lon="-3.55372">
        <ele>38</ele>
        <time>2018-07-18T13:47:49Z</time>
      </trkpt>
      <trkpt lat="47.77576" lon="-3.55372">
        <ele>38</ele>
        <time>2018-07-18T13:47:50Z</time>
      </trkpt>
      <trkpt lat="47.77572" lon="-3.55373">
        <ele>38</ele>
        <time>2018-07-18T13:47:51Z</time>
      </trkpt>
      <trkpt lat="47.77567" lon="-3.55373">
        <ele>38</ele>
        <time>2018-07-18T13:47:52Z</time>
      </trkpt>
      <trkpt lat="47.77562" lon="-3.55373">
        <ele>38</ele>
        <time>2018-07-18T13:47:53Z</time>
      </trkpt>
      <trkpt lat="47.77557" lon="-3.55375">
        <ele>38</ele>
        <time>2018-07-18T13:47:54Z</time>
      </trkpt>
      <trkpt lat="47.77552" lon="-3.55377">
        <ele>38</ele>
        <time>2018-07-18T13:47:55Z</time>
      </trkpt>
      <trkpt lat="47.77548" lon="-3.55379">
        <ele>38</ele>
        <time>2018-07-18T13:47:56Z</time>
      </trkpt>
      <trkpt lat="47.77543" lon="-3.5538">
        <ele>39</ele>
        <time>2018-07-18T13:47:57Z</time>
      </trkpt>
      <trkpt lat="47.77538" lon="-3.55381">
        <ele>39</ele>
        <time>2018-07-18T13:47:58Z</time>
      </trkpt>
      <trkpt lat="47.77533" lon="-3.55382">
        <ele>39</ele>
        <time>2018-07-18T13:47:59Z</time>
      </trkpt>
      <trkpt lat="47.77529" lon="-3.55384">
        <ele>39</ele>
        <time>2018-07-18T13:48:00Z</time>
      </trkpt>
      <trkpt lat="47.77525" lon="-3.55383">
        <ele>39</ele>
        <time>2018-07-18T13:48:01Z</time>
      </trkpt>
      <trkpt lat="47.77521" lon="-3.55381">
        <ele>39</ele>
        <time>2018-07-18T13:48:02Z</time>
      </trkpt>
      <trkpt lat="47.77518" lon="-3.55379">
        <ele>39</ele>
        <time>2018-07-18T13:48:03Z</time>
      </trkpt>
      <trkpt lat="47.77514" lon="-3.55375">
        <ele>39</ele>
        <time>2018-07-18T13:48:04Z</time>
      </trkpt>
      <trkpt lat="47.77509" lon="-3.5537">
        <ele>39</ele>
        <time>2018-07-18T13:48:05Z</time>
      </trkpt>
      <trkpt lat="47.77505" lon="-3.55367">
        <ele>39</ele>
        <time>2018-07-18T13:48:06Z</time>
      </trkpt>
      <trkpt lat="47.77501" lon="-3.55363">
        <ele>38</ele>
        <time>2018-07-18T13:48:07Z</time>
      </trkpt>
      <trkpt lat="47.77496" lon="-3.55358">
        <ele>38</ele>
        <time>2018-07-18T13:48:08Z</time>
      </trkpt>
      <trkpt lat="47.77491" lon="-3.55354">
        <ele>38</ele>
        <time>2018-07-18T13:48:09Z</time>
      </trkpt>
      <trkpt lat="47.77486" lon="-3.5535">
        <ele>38</ele>
        <time>2018-07-18T13:48:10Z</time>
      </trkpt>
      <trkpt lat="47.77481" lon="-3.55345">
        <ele>38</ele>
        <time>2018-07-18T13:48:11Z</time>
      </trkpt>
      <trkpt lat="47.77477" lon="-3.55342">
        <ele>37</ele>
        <time>2018-07-18T13:48:12Z</time>
      </trkpt>
      <trkpt lat="47.77473" lon="-3.55338">
        <ele>37</ele>
        <time>2018-07-18T13:48:13Z</time>
      </trkpt>
      <trkpt lat="47.7747" lon="-3.55335">
        <ele>37</ele>
        <time>2018-07-18T13:48:14Z</time>
      </trkpt>
      <trkpt lat="47.77467" lon="-3.55332">
        <ele>37</ele>
        <time>2018-07-18T13:48:15Z</time>
      </trkpt>
      <trkpt lat="47.77466" lon="-3.55329">
        <ele>37</ele>
        <time>2018-07-18T13:48:16Z</time>
      </trkpt>
      <trkpt lat="47.77467" lon="-3.55326">
        <ele>37</ele>
        <time>2018-07-18T13:48:17Z</time>
      </trkpt>
      <trkpt lat="47.77467" lon="-3.55321">
        <ele>37</ele>
        <time>2018-07-18T13:48:18Z</time>
      </trkpt>
      <trkpt lat="47.77468" lon="-3.55317">
        <ele>37</ele>
        <time>2018-07-18T13:48:19Z</time>
      </trkpt>
      <trkpt lat="47.77468" lon="-3.55312">
        <ele>37</ele>
        <time>2018-07-18T13:48:20Z</time>
      </trkpt>
      <trkpt lat="47.7747" lon="-3.55307">
        <ele>37</ele>
        <time>2018-07-18T13:48:21Z</time>
      </trkpt>
      <trkpt lat="47.77471" lon="-3.55301">
        <ele>36</ele>
        <time>2018-07-18T13:48:22Z</time>
      </trkpt>
      <trkpt lat="47.77473" lon="-3.55294">
        <ele>36</ele>
        <time>2018-07-18T13:48:23Z</time>
      </trkpt>
      <trkpt lat="47.77474" lon="-3.55287">
        <ele>36</ele>
        <time>2018-07-18T13:48:24Z</time>
      </trkpt>
      <trkpt lat="47.77476" lon="-3.55279">
        <ele>36</ele>
        <time>2018-07-18T13:48:25Z</time>
      </trkpt>
      <trkpt lat="47.77478" lon="-3.55271">
        <ele>36</ele>
        <time>2018-07-18T13:48:26Z</time>
      </trkpt>
      <trkpt lat="47.77479" lon="-3.55264">
        <ele>35</ele>
        <time>2018-07-18T13:48:27Z</time>
      </trkpt>
      <trkpt lat="47.7748" lon="-3.55256">
        <ele>35</ele>
        <time>2018-07-18T13:48:28Z</time>
      </trkpt>
      <trkpt lat="47.77482" lon="-3.55249">
        <ele>35</ele>
        <time>2018-07-18T13:48:29Z</time>
      </trkpt>
      <trkpt lat="47.77483" lon="-3.55242">
        <ele>35</ele>
        <time>2018-07-18T13:48:30Z</time>
      </trkpt>
      <trkpt lat="47.77484" lon="-3.55235">
        <ele>35</ele>
        <time>2018-07-18T13:48:31Z</time>
      </trkpt>
      <trkpt lat="47.77485" lon="-3.55228">
        <ele>34</ele>
        <time>2018-07-18T13:48:32Z</time>
      </trkpt>
      <trkpt lat="47.77486" lon="-3.55222">
        <ele>34</ele>
        <time>2018-07-18T13:48:33Z</time>
      </trkpt>
      <trkpt lat="47.77486" lon="-3.55216">
        <ele>34</ele>
        <time>2018-07-18T13:48:34Z</time>
      </trkpt>
      <trkpt lat="47.77486" lon="-3.5521">
        <ele>34</ele>
        <time>2018-07-18T13:48:35Z</time>
      </trkpt>
      <trkpt lat="47.77484" lon="-3.55206">
        <ele>34</ele>
        <time>2018-07-18T13:48:36Z</time>
      </trkpt>
      <trkpt lat="47.77481" lon="-3.55203">
        <ele>34</ele>
        <time>2018-07-18T13:48:37Z</time>
      </trkpt>
      <trkpt lat="47.77478" lon="-3.552">
        <ele>34</ele>
        <time>2018-07-18T13:48:38Z</time>
      </trkpt>
      <trkpt lat="47.77475" lon="-3.55198">
        <ele>34</ele>
        <time>2018-07-18T13:48:39Z</time>
      </trkpt>
      <trkpt lat="47.77473" lon="-3.55196">
        <ele>34</ele>
        <time>2018-07-18T13:48:40Z</time>
      </trkpt>
      <trkpt lat="47.7747" lon="-3.55193">
        <ele>35</ele>
        <time>2018-07-18T13:48:41Z</time>
      </trkpt>
      <trkpt lat="47.77466" lon="-3.5519">
        <ele>35</ele>
        <time>2018-07-18T13:48:42Z</time>
      </trkpt>
      <trkpt lat="47.77462" lon="-3.55187">
        <ele>35</ele>
        <time>2018-07-18T13:48:43Z</time>
      </trkpt>
      <trkpt lat="47.77458" lon="-3.55183">
        <ele>35</ele>
        <time>2018-07-18T13:48:44Z</time>
      </trkpt>
      <trkpt lat="47.77454" lon="-3.55179">
        <ele>35</ele>
        <time>2018-07-18T13:48:45Z</time>
      </trkpt>
      <trkpt lat="47.7745" lon="-3.55176">
        <ele>35</ele>
        <time>2018-07-18T13:48:46Z</time>
      </trkpt>
      <trkpt lat="47.77446" lon="-3.55172">
        <ele>35</ele>
        <time>2018-07-18T13:48:47Z</time>
      </trkpt>
      <trkpt lat="47.77442" lon="-3.55169">
        <ele>35</ele>
        <time>2018-07-18T13:48:48Z</time>
      </trkpt>
      <trkpt lat="47.77437" lon="-3.55164">
        <ele>35</ele>
        <time>2018-07-18T13:48:49Z</time>
      </trkpt>
      <trkpt lat="47.77432" lon="-3.5516">
        <ele>35</ele>
        <time>2018-07-18T13:48:50Z</time>
      </trkpt>
      <trkpt lat="47.77427" lon="-3.55156">
        <ele>35</ele>
        <time>2018-07-18T13:48:51Z</time>
      </trkpt>
      <trkpt lat="47.77422" lon="-3.55152">
        <ele>35</ele>
        <time>2018-07-18T13:48:52Z</time>
      </trkpt>
      <trkpt lat="47.77417" lon="-3.55148">
        <ele>35</ele>
        <time>2018-07-18T13:48:53Z</time>
      </trkpt>
      <trkpt lat="47.77412" lon="-3.55143">
        <ele>35</ele>
        <time>2018-07-18T13:48:54Z</time>
      </trkpt>
      <trkpt lat="47.77408" lon="-3.55137">
        <ele>34</ele>
        <time>2018-07-18T13:48:55Z</time>
      </trkpt>
      <trkpt lat="47.77404" lon="-3.55131">
        <ele>34</ele>
        <time>2018-07-18T13:48:56Z</time>
      </trkpt>
      <trkpt lat="47.774" lon="-3.55125">
        <ele>34</ele>
        <time>2018-07-18T13:48:57Z</time>
      </trkpt>
      <trkpt lat="47.77396" lon="-3.55119">
        <ele>34</ele>
        <time>2018-07-18T13:48:58Z</time>
      </trkpt>
      <trkpt lat="47.77391" lon="-3.55114">
        <ele>34</ele>
        <time>2018-07-18T13:48:59Z</time>
      </trkpt>
      <trkpt lat="47.77387" lon="-3.55111">
        <ele>34</ele>
        <time>2018-07-18T13:49:00Z</time>
      </trkpt>
      <trkpt lat="47.77382" lon="-3.5511">
        <ele>34</ele>
        <time>2018-07-18T13:49:01Z</time>
      </trkpt>
      <trkpt lat="47.77376" lon="-3.55109">
        <ele>34</ele>
        <time>2018-07-18T13:49:02Z</time>
      </trkpt>
      <trkpt lat="47.77371" lon="-3.55109">
        <ele>34</ele>
        <time>2018-07-18T13:49:03Z</time>
      </trkpt>
      <trkpt lat="47.77365" lon="-3.5511">
        <ele>34</ele>
        <time>2018-07-18T13:49:04Z</time>
      </trkpt>
      <trkpt lat="47.7736" lon="-3.5511">
        <ele>34</ele>
        <time>2018-07-18T13:49:05Z</time>
      </trkpt>
      <trkpt lat="47.77354" lon="-3.5511">
        <ele>34</ele>
        <time>2018-07-18T13:49:06Z</time>
      </trkpt>
      <trkpt lat="47.77348" lon="-3.55109">
        <ele>35</ele>
        <time>2018-07-18T13:49:07Z</time>
      </trkpt>
      <trkpt lat="47.77343" lon="-3.55108">
        <ele>35</ele>
        <time>2018-07-18T13:49:08Z</time>
      </trkpt>
      <trkpt lat="47.77338" lon="-3.55106">
        <ele>35</ele>
        <time>2018-07-18T13:49:09Z</time>
      </trkpt>
      <trkpt lat="47.77334" lon="-3.55104">
        <ele>35</ele>
        <time>2018-07-18T13:49:10Z</time>
      </trkpt>
      <trkpt lat="47.7733" lon="-3.55101">
        <ele>35</ele>
        <time>2018-07-18T13:49:11Z</time>
      </trkpt>
      <trkpt lat="47.77326" lon="-3.55099">
        <ele>35</ele>
        <time>2018-07-18T13:49:12Z</time>
      </trkpt>
      <trkpt lat="47.77323" lon="-3.55098">
        <ele>36</ele>
        <time>2018-07-18T13:49:13Z</time>
      </trkpt>
      <trkpt lat="47.77318" lon="-3.55096">
        <ele>36</ele>
        <time>2018-07-18T13:49:14Z</time>
      </trkpt>
      <trkpt lat="47.77314" lon="-3.55094">
        <ele>36</ele>
        <time>2018-07-18T13:49:15Z</time>
      </trkpt>
      <trkpt lat="47.77311" lon="-3.55092">
        <ele>36</ele>
        <time>2018-07-18T13:49:16Z</time>
      </trkpt>
      <trkpt lat="47.77307" lon="-3.5509">
        <ele>36</ele>
        <time>2018-07-18T13:49:17Z</time>
      </trkpt>
      <trkpt lat="47.77302" lon="-3.55088">
        <ele>36</ele>
        <time>2018-07-18T13:49:18Z</time>
      </trkpt>
      <trkpt lat="47.77299" lon="-3.55087">
        <ele>36</ele>
        <time>2018-07-18T13:49:19Z</time>
      </trkpt>
      <trkpt lat="47.77295" lon="-3.55086">
        <ele>36</ele>
        <time>2018-07-18T13:49:20Z</time>
      </trkpt>
      <trkpt lat="47.77291" lon="-3.55085">
        <ele>36</ele>
        <time>2018-07-18T13:49:21Z</time>
      </trkpt>
      <trkpt lat="47.77288" lon="-3.55085">
        <ele>36</ele>
        <time>2018-07-18T13:49:22Z</time>
      </trkpt>
      <trkpt lat="47.77286" lon="-3.55086">
        <ele>36</ele>
        <time>2018-07-18T13:49:23Z</time>
      </trkpt>
      <trkpt lat="47.77284" lon="-3.55088">
        <ele>36</ele>
        <time>2018-07-18T13:49:24Z</time>
      </trkpt>
      <trkpt lat="47.77282" lon="-3.55089">
        <ele>36</ele>
        <time>2018-07-18T13:49:25Z</time>
      </trkpt>
      <trkpt lat="47.77281" lon="-3.55092">
        <ele>36</ele>
        <time>2018-07-18T13:49:26Z</time>
      </trkpt>
      <trkpt lat="47.7728" lon="-3.55095">
        <ele>36</ele>
        <time>2018-07-18T13:49:27Z</time>
      </trkpt>
      <trkpt lat="47.77279" lon="-3.55098">
        <ele>36</ele>
        <time>2018-07-18T13:49:28Z</time>
      </trkpt>
      <trkpt lat="47.77278" lon="-3.55099">
        <ele>36</ele>
        <time>2018-07-18T13:49:29Z</time>
      </trkpt>
      <trkpt lat="47.77277" lon="-3.55099">
        <ele>35</ele>
        <time>2018-07-18T13:49:30Z</time>
      </trkpt>
      <trkpt lat="47.77277" lon="-3.55099">
        <ele>35</ele>
        <time>2018-07-18T13:49:31Z</time>
      </trkpt>
      <trkpt lat="47.77277" lon="-3.55099">
        <ele>35</ele>
        <time>2018-07-18T13:49:32Z</time>
      </trkpt>
      <trkpt lat="47.77274" lon="-3.55101">
        <ele>35</ele>
        <time>2018-07-18T13:49:33Z</time>
      </trkpt>
      <trkpt lat="47.77274" lon="-3.55102">
        <ele>35</ele>
        <time>2018-07-18T13:49:34Z</time>
      </trkpt>
      <trkpt lat="47.77274" lon="-3.55102">
        <ele>35</ele>
        <time>2018-07-18T13:49:35Z</time>
      </trkpt>
      <trkpt lat="47.77273" lon="-3.55102">
        <ele>35</ele>
        <time>2018-07-18T13:49:36Z</time>
      </trkpt>
      <trkpt lat="47.77272" lon="-3.55102">
        <ele>35</ele>
        <time>2018-07-18T13:49:37Z</time>
      </trkpt>
      <trkpt lat="47.77271" lon="-3.55102">
        <ele>35</ele>
        <time>2018-07-18T13:49:38Z</time>
      </trkpt>
      <trkpt lat="47.77271" lon="-3.55102">
        <ele>35</ele>
        <time>2018-07-18T13:49:39Z</time>
      </trkpt>
      <trkpt lat="47.7727" lon="-3.55102">
        <ele>36</ele>
        <time>2018-07-18T13:49:40Z</time>
      </trkpt>
      <trkpt lat="47.77269" lon="-3.55102">
        <ele>36</ele>
        <time>2018-07-18T13:49:41Z</time>
      </trkpt>
      <trkpt lat="47.77269" lon="-3.55103">
        <ele>36</ele>
        <time>2018-07-18T13:49:42Z</time>
      </trkpt>
      <trkpt lat="47.77268" lon="-3.55103">
        <ele>36</ele>
        <time>2018-07-18T13:49:43Z</time>
      </trkpt>
    </trkseg>
  </trk>
  <trk>
    <name><![CDATA[double 8 Douelan Kerfany]]></name>
    <desc><![CDATA[<p>Heure de départ: 11:35 14 juil. 2019<br/>Heure d'arrivée: 14:59 14 juil. 2019<br/>Distance: 57,1 km (03:24)<br/>Temps déplacement: 03:07<br/>Vitesse moyenne: 16,74 km/h<br/>Vitesse moyenne mouv.: 18,29 km/h<br/>Vitesse Max.: 35,96 km/h<br/>Altitude minimale: -54 m<br/>Altitude maximale: 16 m<br/>Vitesse de montée: 517,4 m/h<br/>Vitesse de descente: -557,2 m/h<br/>Gain d'altitude: 893 m<br/>Perte d'altitude: -877 m<br/>Temps de montée: 01:43<br/>Temps de descente: 01:34<br/></p><hr align="center" width="480" style="height: 2px; width: 517px"/>]]></desc>
    <trkseg>
      <trkpt lat="47.7727" lon="-3.55106">
        <ele>-33.81</ele>
        <time>2019-07-14T09:35:01Z</time>
      </trkpt>
      <trkpt lat="47.77273" lon="-3.55101">
        <ele>-33.6</ele>
        <time>2019-07-14T09:35:11Z</time>
      </trkpt>
      <trkpt lat="47.77276" lon="-3.55094">
        <ele>-33.36</ele>
        <time>2019-07-14T09:35:13Z</time>
      </trkpt>
      <trkpt lat="47.77279" lon="-3.55087">
        <ele>-33.13</ele>
        <time>2019-07-14T09:35:15Z</time>
      </trkpt>
      <trkpt lat="47.77283" lon="-3.55083">
        <ele>-32.95</ele>
        <time>2019-07-14T09:35:17Z</time>
      </trkpt>
      <trkpt lat="47.77288" lon="-3.55084">
        <ele>-32.58</ele>
        <time>2019-07-14T09:35:20Z</time>
      </trkpt>
      <trkpt lat="47.77292" lon="-3.55086">
        <ele>-32.26</ele>
        <time>2019-07-14T09:35:23Z</time>
      </trkpt>
      <trkpt lat="47.77297" lon="-3.55089">
        <ele>-31.98</ele>
        <time>2019-07-14T09:35:25Z</time>
      </trkpt>
      <trkpt lat="47.77304" lon="-3.55092">
        <ele>-31.44</ele>
        <time>2019-07-14T09:35:27Z</time>
      </trkpt>
      <trkpt lat="47.7731" lon="-3.55093">
        <ele>-30.79</ele>
        <time>2019-07-14T09:35:29Z</time>
      </trkpt>
      <trkpt lat="47.77317" lon="-3.55097">
        <ele>-30.15</ele>
        <time>2019-07-14T09:35:31Z</time>
      </trkpt>
      <trkpt lat="47.77325" lon="-3.55102">
        <ele>-29.47</ele>
        <time>2019-07-14T09:35:33Z</time>
      </trkpt>
      <trkpt lat="47.77329" lon="-3.55105">
        <ele>-29.22</ele>
        <time>2019-07-14T09:35:34Z</time>
      </trkpt>
      <trkpt lat="47.77334" lon="-3.55107">
        <ele>-28.86</ele>
        <time>2019-07-14T09:35:35Z</time>
      </trkpt>
      <trkpt lat="47.77339" lon="-3.55107">
        <ele>-28.48</ele>
        <time>2019-07-14T09:35:36Z</time>
      </trkpt>
      <trkpt lat="47.77344" lon="-3.55107">
        <ele>-28.22</ele>
        <time>2019-07-14T09:35:37Z</time>
      </trkpt>
      <trkpt lat="47.77349" lon="-3.55108">
        <ele>-27.79</ele>
        <time>2019-07-14T09:35:38Z</time>
      </trkpt>
      <trkpt lat="47.77354" lon="-3.55107">
        <ele>-27.39</ele>
        <time>2019-07-14T09:35:39Z</time>
      </trkpt>
      <trkpt lat="47.77359" lon="-3.55107">
        <ele>-26.77</ele>
        <time>2019-07-14T09:35:40Z</time>
      </trkpt>
      <trkpt lat="47.77367" lon="-3.55108">
        <ele>-25.82</ele>
        <time>2019-07-14T09:35:42Z</time>
      </trkpt>
      <trkpt lat="47.77374" lon="-3.5511">
        <ele>-25.08</ele>
        <time>2019-07-14T09:35:44Z</time>
      </trkpt>
      <trkpt lat="47.77381" lon="-3.55116">
        <ele>-24.44</ele>
        <time>2019-07-14T09:35:46Z</time>
      </trkpt>
      <trkpt lat="47.77385" lon="-3.55121">
        <ele>-24.49</ele>
        <time>2019-07-14T09:35:47Z</time>
      </trkpt>
      <trkpt lat="47.77388" lon="-3.55125">
        <ele>-24.3</ele>
        <time>2019-07-14T09:35:48Z</time>
      </trkpt>
      <trkpt lat="47.7739" lon="-3.55131">
        <ele>-24.31</ele>
        <time>2019-07-14T09:35:49Z</time>
      </trkpt>
      <trkpt lat="47.77395" lon="-3.55141">
        <ele>-23.62</ele>
        <time>2019-07-14T09:35:51Z</time>
      </trkpt>
      <trkpt lat="47.77399" lon="-3.55151">
        <ele>-21.6</ele>
        <time>2019-07-14T09:35:53Z</time>
      </trkpt>
      <trkpt lat="47.77399" lon="-3.5516">
        <ele>-22.01</ele>
        <time>2019-07-14T09:35:55Z</time>
      </trkpt>
      <trkpt lat="47.77395" lon="-3.55168">
        <ele>-21.12</ele>
        <time>2019-07-14T09:35:57Z</time>
      </trkpt>
      <trkpt lat="47.77392" lon="-3.55179">
        <ele>-21.6</ele>
        <time>2019-07-14T09:35:59Z</time>
      </trkpt>
      <trkpt lat="47.77388" lon="-3.5519">
        <ele>-22.4</ele>
        <time>2019-07-14T09:36:01Z</time>
      </trkpt>
      <trkpt lat="47.77384" lon="-3.55201">
        <ele>-22.31</ele>
        <time>2019-07-14T09:36:03Z</time>
      </trkpt>
      <trkpt lat="47.77379" lon="-3.55211">
        <ele>-21.51</ele>
        <time>2019-07-14T09:36:05Z</time>
      </trkpt>
      <trkpt lat="47.77373" lon="-3.55219">
        <ele>-21.44</ele>
        <time>2019-07-14T09:36:07Z</time>
      </trkpt>
      <trkpt lat="47.77368" lon="-3.55228">
        <ele>-20.78</ele>
        <time>2019-07-14T09:36:09Z</time>
      </trkpt>
      <trkpt lat="47.77364" lon="-3.55235">
        <ele>-19.98</ele>
        <time>2019-07-14T09:36:11Z</time>
      </trkpt>
      <trkpt lat="47.77359" lon="-3.55238">
        <ele>-21.4</ele>
        <time>2019-07-14T09:36:23Z</time>
      </trkpt>
      <trkpt lat="47.77364" lon="-3.55242">
        <ele>-21.97</ele>
        <time>2019-07-14T09:36:32Z</time>
      </trkpt>
      <trkpt lat="47.77369" lon="-3.55249">
        <ele>-21.76</ele>
        <time>2019-07-14T09:36:34Z</time>
      </trkpt>
      <trkpt lat="47.77376" lon="-3.55256">
        <ele>-21.72</ele>
        <time>2019-07-14T09:36:36Z</time>
      </trkpt>
      <trkpt lat="47.7738" lon="-3.5526">
        <ele>-21.78</ele>
        <time>2019-07-14T09:36:37Z</time>
      </trkpt>
      <trkpt lat="47.77384" lon="-3.55262">
        <ele>-21.94</ele>
        <time>2019-07-14T09:36:38Z</time>
      </trkpt>
      <trkpt lat="47.77388" lon="-3.55266">
        <ele>-21.92</ele>
        <time>2019-07-14T09:36:39Z</time>
      </trkpt>
      <trkpt lat="47.77393" lon="-3.5527">
        <ele>-21.84</ele>
        <time>2019-07-14T09:36:40Z</time>
      </trkpt>
      <trkpt lat="47.77397" lon="-3.55275">
        <ele>-21.68</ele>
        <time>2019-07-14T09:36:41Z</time>
      </trkpt>
      <trkpt lat="47.77401" lon="-3.55279">
        <ele>-21.63</ele>
        <time>2019-07-14T09:36:42Z</time>
      </trkpt>
      <trkpt lat="47.77405" lon="-3.55283">
        <ele>-21.55</ele>
        <time>2019-07-14T09:36:43Z</time>
      </trkpt>
      <trkpt lat="47.77409" lon="-3.55287">
        <ele>-21.45</ele>
        <time>2019-07-14T09:36:44Z</time>
      </trkpt>
      <trkpt lat="47.77413" lon="-3.55291">
        <ele>-21.35</ele>
        <time>2019-07-14T09:36:45Z</time>
      </trkpt>
      <trkpt lat="47.77418" lon="-3.55296">
        <ele>-21.39</ele>
        <time>2019-07-14T09:36:46Z</time>
      </trkpt>
      <trkpt lat="47.77423" lon="-3.553">
        <ele>-21.62</ele>
        <time>2019-07-14T09:36:47Z</time>
      </trkpt>
      <trkpt lat="47.77428" lon="-3.55304">
        <ele>-21.68</ele>
        <time>2019-07-14T09:36:48Z</time>
      </trkpt>
      <trkpt lat="47.77433" lon="-3.55308">
        <ele>-21.84</ele>
        <time>2019-07-14T09:36:49Z</time>
      </trkpt>
      <trkpt lat="47.77438" lon="-3.55313">
        <ele>-22.03</ele>
        <time>2019-07-14T09:36:50Z</time>
      </trkpt>
      <trkpt lat="47.77443" lon="-3.55317">
        <ele>-21.95</ele>
        <time>2019-07-14T09:36:51Z</time>
      </trkpt>
      <trkpt lat="47.77448" lon="-3.55322">
        <ele>-21.99</ele>
        <time>2019-07-14T09:36:52Z</time>
      </trkpt>
      <trkpt lat="47.77453" lon="-3.55326">
        <ele>-22.01</ele>
        <time>2019-07-14T09:36:53Z</time>
      </trkpt>
      <trkpt lat="47.77457" lon="-3.55331">
        <ele>-21.73</ele>
        <time>2019-07-14T09:36:54Z</time>
      </trkpt>
      <trkpt lat="47.77462" lon="-3.55336">
        <ele>-21.65</ele>
        <time>2019-07-14T09:36:55Z</time>
      </trkpt>
      <trkpt lat="47.77467" lon="-3.55341">
        <ele>-21.55</ele>
        <time>2019-07-14T09:36:56Z</time>
      </trkpt>
      <trkpt lat="47.77471" lon="-3.55346">
        <ele>-21.52</ele>
        <time>2019-07-14T09:36:57Z</time>
      </trkpt>
      <trkpt lat="47.77476" lon="-3.5535">
        <ele>-21.52</ele>
        <time>2019-07-14T09:36:58Z</time>
      </trkpt>
      <trkpt lat="47.77481" lon="-3.55354">
        <ele>-21.58</ele>
        <time>2019-07-14T09:36:59Z</time>
      </trkpt>
      <trkpt lat="47.77488" lon="-3.5536">
        <ele>-21.93</ele>
        <time>2019-07-14T09:37:01Z</time>
      </trkpt>
      <trkpt lat="47.77492" lon="-3.55363">
        <ele>-22.13</ele>
        <time>2019-07-14T09:37:02Z</time>
      </trkpt>
      <trkpt lat="47.77496" lon="-3.55367">
        <ele>-22.47</ele>
        <time>2019-07-14T09:37:03Z</time>
      </trkpt>
      <trkpt lat="47.775" lon="-3.55371">
        <ele>-22.64</ele>
        <time>2019-07-14T09:37:04Z</time>
      </trkpt>
      <trkpt lat="47.77504" lon="-3.55376">
        <ele>-23.32</ele>
        <time>2019-07-14T09:37:05Z</time>
      </trkpt>
      <trkpt lat="47.77508" lon="-3.5538">
        <ele>-23.38</ele>
        <time>2019-07-14T09:37:06Z</time>
      </trkpt>
      <trkpt lat="47.77512" lon="-3.55383">
        <ele>-23.26</ele>
        <time>2019-07-14T09:37:07Z</time>
      </trkpt>
      <trkpt lat="47.77521" lon="-3.55385">
        <ele>-23.45</ele>
        <time>2019-07-14T09:37:09Z</time>
      </trkpt>
      <trkpt lat="47.77525" lon="-3.55384">
        <ele>-23.42</ele>
        <time>2019-07-14T09:37:10Z</time>
      </trkpt>
      <trkpt lat="47.7753" lon="-3.55383">
        <ele>-23.35</ele>
        <time>2019-07-14T09:37:11Z</time>
      </trkpt>
      <trkpt lat="47.77535" lon="-3.55381">
        <ele>-23.18</ele>
        <time>2019-07-14T09:37:12Z</time>
      </trkpt>
      <trkpt lat="47.7754" lon="-3.5538">
        <ele>-23.06</ele>
        <time>2019-07-14T09:37:13Z</time>
      </trkpt>
      <trkpt lat="47.77545" lon="-3.55379">
        <ele>-22.89</ele>
        <time>2019-07-14T09:37:14Z</time>
      </trkpt>
      <trkpt lat="47.77555" lon="-3.55377">
        <ele>-22.9</ele>
        <time>2019-07-14T09:37:16Z</time>
      </trkpt>
      <trkpt lat="47.7756" lon="-3.55377">
        <ele>-22.91</ele>
        <time>2019-07-14T09:37:17Z</time>
      </trkpt>
      <trkpt lat="47.77565" lon="-3.55376">
        <ele>-23.26</ele>
        <time>2019-07-14T09:37:18Z</time>
      </trkpt>
      <trkpt lat="47.77571" lon="-3.55376">
        <ele>-23.72</ele>
        <time>2019-07-14T09:37:19Z</time>
      </trkpt>
      <trkpt lat="47.77577" lon="-3.55375">
        <ele>-24.27</ele>
        <time>2019-07-14T09:37:20Z</time>
      </trkpt>
      <trkpt lat="47.77582" lon="-3.55375">
        <ele>-24.23</ele>
        <time>2019-07-14T09:37:21Z</time>
      </trkpt>
      <trkpt lat="47.77587" lon="-3.55374">
        <ele>-24.08</ele>
        <time>2019-07-14T09:37:22Z</time>
      </trkpt>
      <trkpt lat="47.77592" lon="-3.55373">
        <ele>-23.96</ele>
        <time>2019-07-14T09:37:23Z</time>
      </trkpt>
      <trkpt lat="47.77599" lon="-3.5537">
        <ele>-24.14</ele>
        <time>2019-07-14T09:37:24Z</time>
      </trkpt>
      <trkpt lat="47.77605" lon="-3.55368">
        <ele>-24.12</ele>
        <time>2019-07-14T09:37:25Z</time>
      </trkpt>
      <trkpt lat="47.7761" lon="-3.55366">
        <ele>-24.11</ele>
        <time>2019-07-14T09:37:26Z</time>
      </trkpt>
      <trkpt lat="47.77615" lon="-3.55364">
        <ele>-24.04</ele>
        <time>2019-07-14T09:37:27Z</time>
      </trkpt>
      <trkpt lat="47.77621" lon="-3.55363">
        <ele>-23.81</ele>
        <time>2019-07-14T09:37:28Z</time>
      </trkpt>
      <trkpt lat="47.77626" lon="-3.55361">
        <ele>-23.46</ele>
        <time>2019-07-14T09:37:29Z</time>
      </trkpt>
      <trkpt lat="47.77632" lon="-3.55358">
        <ele>-22.73</ele>
        <time>2019-07-14T09:37:30Z</time>
      </trkpt>
      <trkpt lat="47.77637" lon="-3.55355">
        <ele>-22.23</ele>
        <time>2019-07-14T09:37:31Z</time>
      </trkpt>
      <trkpt lat="47.77643" lon="-3.55352">
        <ele>-21.87</ele>
        <time>2019-07-14T09:37:32Z</time>
      </trkpt>
      <trkpt lat="47.77648" lon="-3.5535">
        <ele>-21.76</ele>
        <time>2019-07-14T09:37:33Z</time>
      </trkpt>
      <trkpt lat="47.77654" lon="-3.55348">
        <ele>-21.8</ele>
        <time>2019-07-14T09:37:34Z</time>
      </trkpt>
      <trkpt lat="47.77659" lon="-3.55347">
        <ele>-21.88</ele>
        <time>2019-07-14T09:37:35Z</time>
      </trkpt>
      <trkpt lat="47.77664" lon="-3.55349">
        <ele>-21.62</ele>
        <time>2019-07-14T09:37:36Z</time>
      </trkpt>
      <trkpt lat="47.7767" lon="-3.5535">
        <ele>-21.12</ele>
        <time>2019-07-14T09:37:37Z</time>
      </trkpt>
      <trkpt lat="47.77674" lon="-3.55353">
        <ele>-20.91</ele>
        <time>2019-07-14T09:37:38Z</time>
      </trkpt>
      <trkpt lat="47.77677" lon="-3.55359">
        <ele>-20.63</ele>
        <time>2019-07-14T09:37:39Z</time>
      </trkpt>
      <trkpt lat="47.77681" lon="-3.55365">
        <ele>-20.2</ele>
        <time>2019-07-14T09:37:40Z</time>
      </trkpt>
      <trkpt lat="47.77684" lon="-3.55373">
        <ele>-19.93</ele>
        <time>2019-07-14T09:37:41Z</time>
      </trkpt>
      <trkpt lat="47.77687" lon="-3.5538">
        <ele>-19.78</ele>
        <time>2019-07-14T09:37:42Z</time>
      </trkpt>
      <trkpt lat="47.7769" lon="-3.55389">
        <ele>-19.8</ele>
        <time>2019-07-14T09:37:43Z</time>
      </trkpt>
      <trkpt lat="47.77693" lon="-3.55397">
        <ele>-19.88</ele>
        <time>2019-07-14T09:37:44Z</time>
      </trkpt>
      <trkpt lat="47.77697" lon="-3.55405">
        <ele>-19.83</ele>
        <time>2019-07-14T09:37:45Z</time>
      </trkpt>
      <trkpt lat="47.77699" lon="-3.55414">
        <ele>-20.66</ele>
        <time>2019-07-14T09:37:46Z</time>
      </trkpt>
      <trkpt lat="47.77702" lon="-3.55423">
        <ele>-20.98</ele>
        <time>2019-07-14T09:37:47Z</time>
      </trkpt>
      <trkpt lat="47.77706" lon="-3.55432">
        <ele>-21</ele>
        <time>2019-07-14T09:37:48Z</time>
      </trkpt>
      <trkpt lat="47.7771" lon="-3.55442">
        <ele>-20.52</ele>
        <time>2019-07-14T09:37:49Z</time>
      </trkpt>
      <trkpt lat="47.77714" lon="-3.55451">
        <ele>-20.02</ele>
        <time>2019-07-14T09:37:50Z</time>
      </trkpt>
      <trkpt lat="47.77718" lon="-3.55459">
        <ele>-19.88</ele>
        <time>2019-07-14T09:37:51Z</time>
      </trkpt>
      <trkpt lat="47.77722" lon="-3.55466">
        <ele>-19.48</ele>
        <time>2019-07-14T09:37:52Z</time>
      </trkpt>
      <trkpt lat="47.77726" lon="-3.55473">
        <ele>-18.94</ele>
        <time>2019-07-14T09:37:53Z</time>
      </trkpt>
      <trkpt lat="47.77731" lon="-3.55479">
        <ele>-18.22</ele>
        <time>2019-07-14T09:37:54Z</time>
      </trkpt>
      <trkpt lat="47.77736" lon="-3.55485">
        <ele>-17.51</ele>
        <time>2019-07-14T09:37:55Z</time>
      </trkpt>
      <trkpt lat="47.7774" lon="-3.55491">
        <ele>-17.09</ele>
        <time>2019-07-14T09:37:56Z</time>
      </trkpt>
      <trkpt lat="47.77745" lon="-3.55497">
        <ele>-17.11</ele>
        <time>2019-07-14T09:37:57Z</time>
      </trkpt>
      <trkpt lat="47.77749" lon="-3.55503">
        <ele>-17.25</ele>
        <time>2019-07-14T09:37:58Z</time>
      </trkpt>
      <trkpt lat="47.77753" lon="-3.55509">
        <ele>-17.57</ele>
        <time>2019-07-14T09:37:59Z</time>
      </trkpt>
      <trkpt lat="47.77758" lon="-3.55515">
        <ele>-18.02</ele>
        <time>2019-07-14T09:38:00Z</time>
      </trkpt>
      <trkpt lat="47.77761" lon="-3.55521">
        <ele>-18.5</ele>
        <time>2019-07-14T09:38:01Z</time>
      </trkpt>
      <trkpt lat="47.77765" lon="-3.55526">
        <ele>-18.79</ele>
        <time>2019-07-14T09:38:02Z</time>
      </trkpt>
      <trkpt lat="47.77769" lon="-3.55537">
        <ele>-18.95</ele>
        <time>2019-07-14T09:38:04Z</time>
      </trkpt>
      <trkpt lat="47.77766" lon="-3.55547">
        <ele>-18.33</ele>
        <time>2019-07-14T09:38:06Z</time>
      </trkpt>
      <trkpt lat="47.77762" lon="-3.5555">
        <ele>-18.32</ele>
        <time>2019-07-14T09:38:07Z</time>
      </trkpt>
      <trkpt lat="47.77757" lon="-3.55552">
        <ele>-18.31</ele>
        <time>2019-07-14T09:38:08Z</time>
      </trkpt>
      <trkpt lat="47.77752" lon="-3.55553">
        <ele>-18.59</ele>
        <time>2019-07-14T09:38:09Z</time>
      </trkpt>
      <trkpt lat="47.77747" lon="-3.55553">
        <ele>-18.75</ele>
        <time>2019-07-14T09:38:10Z</time>
      </trkpt>
      <trkpt lat="47.77741" lon="-3.55554">
        <ele>-19</ele>
        <time>2019-07-14T09:38:11Z</time>
      </trkpt>
      <trkpt lat="47.77735" lon="-3.55554">
        <ele>-19.71</ele>
        <time>2019-07-14T09:38:12Z</time>
      </trkpt>
      <trkpt lat="47.77728" lon="-3.55555">
        <ele>-20.34</ele>
        <time>2019-07-14T09:38:13Z</time>
      </trkpt>
      <trkpt lat="47.77721" lon="-3.55555">
        <ele>-21.16</ele>
        <time>2019-07-14T09:38:14Z</time>
      </trkpt>
      <trkpt lat="47.77714" lon="-3.55556">
        <ele>-22.11</ele>
        <time>2019-07-14T09:38:15Z</time>
      </trkpt>
      <trkpt lat="47.77707" lon="-3.55558">
        <ele>-22.95</ele>
        <time>2019-07-14T09:38:16Z</time>
      </trkpt>
      <trkpt lat="47.777" lon="-3.55562">
        <ele>-24.53</ele>
        <time>2019-07-14T09:38:17Z</time>
      </trkpt>
      <trkpt lat="47.77693" lon="-3.55567">
        <ele>-25.57</ele>
        <time>2019-07-14T09:38:18Z</time>
      </trkpt>
      <trkpt lat="47.77686" lon="-3.55573">
        <ele>-26.58</ele>
        <time>2019-07-14T09:38:19Z</time>
      </trkpt>
      <trkpt lat="47.77678" lon="-3.55579">
        <ele>-27.37</ele>
        <time>2019-07-14T09:38:20Z</time>
      </trkpt>
      <trkpt lat="47.77672" lon="-3.55585">
        <ele>-28.03</ele>
        <time>2019-07-14T09:38:21Z</time>
      </trkpt>
      <trkpt lat="47.77665" lon="-3.55591">
        <ele>-28.58</ele>
        <time>2019-07-14T09:38:22Z</time>
      </trkpt>
      <trkpt lat="47.7766" lon="-3.55597">
        <ele>-28.95</ele>
        <time>2019-07-14T09:38:23Z</time>
      </trkpt>
      <trkpt lat="47.77654" lon="-3.55603">
        <ele>-28.92</ele>
        <time>2019-07-14T09:38:24Z</time>
      </trkpt>
      <trkpt lat="47.77648" lon="-3.55609">
        <ele>-28.5</ele>
        <time>2019-07-14T09:38:25Z</time>
      </trkpt>
      <trkpt lat="47.77643" lon="-3.55614">
        <ele>-28.23</ele>
        <time>2019-07-14T09:38:26Z</time>
      </trkpt>
      <trkpt lat="47.77633" lon="-3.55624">
        <ele>-28.64</ele>
        <time>2019-07-14T09:38:28Z</time>
      </trkpt>
      <trkpt lat="47.77629" lon="-3.5563">
        <ele>-28.83</ele>
        <time>2019-07-14T09:38:29Z</time>
      </trkpt>
      <trkpt lat="47.77624" lon="-3.55635">
        <ele>-28.96</ele>
        <time>2019-07-14T09:38:30Z</time>
      </trkpt>
      <trkpt lat="47.7762" lon="-3.5564">
        <ele>-29.07</ele>
        <time>2019-07-14T09:38:31Z</time>
      </trkpt>
      <trkpt lat="47.77615" lon="-3.55646">
        <ele>-29.17</ele>
        <time>2019-07-14T09:38:32Z</time>
      </trkpt>
      <trkpt lat="47.77611" lon="-3.5565">
        <ele>-29.41</ele>
        <time>2019-07-14T09:38:33Z</time>
      </trkpt>
      <trkpt lat="47.77607" lon="-3.55655">
        <ele>-29.34</ele>
        <time>2019-07-14T09:38:34Z</time>
      </trkpt>
      <trkpt lat="47.77603" lon="-3.55659">
        <ele>-29.18</ele>
        <time>2019-07-14T09:38:35Z</time>
      </trkpt>
      <trkpt lat="47.77596" lon="-3.55668">
        <ele>-29.15</ele>
        <time>2019-07-14T09:38:37Z</time>
      </trkpt>
      <trkpt lat="47.77592" lon="-3.55672">
        <ele>-29.12</ele>
        <time>2019-07-14T09:38:38Z</time>
      </trkpt>
      <trkpt lat="47.77588" lon="-3.55678">
        <ele>-29.33</ele>
        <time>2019-07-14T09:38:39Z</time>
      </trkpt>
      <trkpt lat="47.77583" lon="-3.55682">
        <ele>-30.02</ele>
        <time>2019-07-14T09:38:40Z</time>
      </trkpt>
      <trkpt lat="47.77578" lon="-3.55687">
        <ele>-30.64</ele>
        <time>2019-07-14T09:38:41Z</time>
      </trkpt>
      <trkpt lat="47.77573" lon="-3.55693">
        <ele>-30.76</ele>
        <time>2019-07-14T09:38:42Z</time>
      </trkpt>
      <trkpt lat="47.77568" lon="-3.55699">
        <ele>-31.22</ele>
        <time>2019-07-14T09:38:43Z</time>
      </trkpt>
      <trkpt lat="47.77563" lon="-3.55706">
        <ele>-31.84</ele>
        <time>2019-07-14T09:38:44Z</time>
      </trkpt>
      <trkpt lat="47.77558" lon="-3.55712">
        <ele>-32.1</ele>
        <time>2019-07-14T09:38:45Z</time>
      </trkpt>
      <trkpt lat="47.77553" lon="-3.55719">
        <ele>-32.39</ele>
        <time>2019-07-14T09:38:46Z</time>
      </trkpt>
      <trkpt lat="47.77548" lon="-3.55725">
        <ele>-32.62</ele>
        <time>2019-07-14T09:38:47Z</time>
      </trkpt>
      <trkpt lat="47.77543" lon="-3.55731">
        <ele>-32.82</ele>
        <time>2019-07-14T09:38:48Z</time>
      </trkpt>
      <trkpt lat="47.77538" lon="-3.55738">
        <ele>-33.45</ele>
        <time>2019-07-14T09:38:49Z</time>
      </trkpt>
      <trkpt lat="47.77535" lon="-3.55746">
        <ele>-34.12</ele>
        <time>2019-07-14T09:38:50Z</time>
      </trkpt>
      <trkpt lat="47.77533" lon="-3.55753">
        <ele>-34.46</ele>
        <time>2019-07-14T09:38:51Z</time>
      </trkpt>
      <trkpt lat="47.77533" lon="-3.5576">
        <ele>-34.64</ele>
        <time>2019-07-14T09:38:52Z</time>
      </trkpt>
      <trkpt lat="47.77535" lon="-3.55766">
        <ele>-34.62</ele>
        <time>2019-07-14T09:38:53Z</time>
      </trkpt>
      <trkpt lat="47.77537" lon="-3.55772">
        <ele>-34.61</ele>
        <time>2019-07-14T09:38:54Z</time>
      </trkpt>
      <trkpt lat="47.7754" lon="-3.55778">
        <ele>-34.4</ele>
        <time>2019-07-14T09:38:55Z</time>
      </trkpt>
      <trkpt lat="47.77543" lon="-3.55785">
        <ele>-33.64</ele>
        <time>2019-07-14T09:38:56Z</time>
      </trkpt>
      <trkpt lat="47.77546" lon="-3.55791">
        <ele>-33.2</ele>
        <time>2019-07-14T09:38:57Z</time>
      </trkpt>
      <trkpt lat="47.77549" lon="-3.55797">
        <ele>-32.65</ele>
        <time>2019-07-14T09:38:58Z</time>
      </trkpt>
      <trkpt lat="47.77553" lon="-3.55803">
        <ele>-32.27</ele>
        <time>2019-07-14T09:38:59Z</time>
      </trkpt>
      <trkpt lat="47.77556" lon="-3.5581">
        <ele>-31.74</ele>
        <time>2019-07-14T09:39:00Z</time>
      </trkpt>
      <trkpt lat="47.77559" lon="-3.55817">
        <ele>-31.02</ele>
        <time>2019-07-14T09:39:01Z</time>
      </trkpt>
      <trkpt lat="47.77562" lon="-3.55823">
        <ele>-30.24</ele>
        <time>2019-07-14T09:39:02Z</time>
      </trkpt>
      <trkpt lat="47.77565" lon="-3.55829">
        <ele>-29.8</ele>
        <time>2019-07-14T09:39:03Z</time>
      </trkpt>
      <trkpt lat="47.77569" lon="-3.55836">
        <ele>-29.11</ele>
        <time>2019-07-14T09:39:04Z</time>
      </trkpt>
      <trkpt lat="47.77572" lon="-3.55842">
        <ele>-28.41</ele>
        <time>2019-07-14T09:39:05Z</time>
      </trkpt>
      <trkpt lat="47.77575" lon="-3.55849">
        <ele>-28.13</ele>
        <time>2019-07-14T09:39:06Z</time>
      </trkpt>
      <trkpt lat="47.77578" lon="-3.55855">
        <ele>-27.98</ele>
        <time>2019-07-14T09:39:07Z</time>
      </trkpt>
      <trkpt lat="47.77581" lon="-3.55861">
        <ele>-28</ele>
        <time>2019-07-14T09:39:08Z</time>
      </trkpt>
      <trkpt lat="47.77583" lon="-3.55866">
        <ele>-27.94</ele>
        <time>2019-07-14T09:39:09Z</time>
      </trkpt>
      <trkpt lat="47.77586" lon="-3.55872">
        <ele>-27.92</ele>
        <time>2019-07-14T09:39:10Z</time>
      </trkpt>
      <trkpt lat="47.77589" lon="-3.55878">
        <ele>-27.91</ele>
        <time>2019-07-14T09:39:11Z</time>
      </trkpt>
      <trkpt lat="47.77592" lon="-3.55885">
        <ele>-27.91</ele>
        <time>2019-07-14T09:39:12Z</time>
      </trkpt>
      <trkpt lat="47.77595" lon="-3.55891">
        <ele>-27.77</ele>
        <time>2019-07-14T09:39:13Z</time>
      </trkpt>
      <trkpt lat="47.77597" lon="-3.55897">
        <ele>-27.73</ele>
        <time>2019-07-14T09:39:14Z</time>
      </trkpt>
      <trkpt lat="47.776" lon="-3.55903">
        <ele>-27.44</ele>
        <time>2019-07-14T09:39:15Z</time>
      </trkpt>
      <trkpt lat="47.77602" lon="-3.5591">
        <ele>-27.28</ele>
        <time>2019-07-14T09:39:16Z</time>
      </trkpt>
      <trkpt lat="47.77604" lon="-3.55916">
        <ele>-26.81</ele>
        <time>2019-07-14T09:39:17Z</time>
      </trkpt>
      <trkpt lat="47.77607" lon="-3.55922">
        <ele>-26.39</ele>
        <time>2019-07-14T09:39:18Z</time>
      </trkpt>
      <trkpt lat="47.77609" lon="-3.55928">
        <ele>-26.34</ele>
        <time>2019-07-14T09:39:19Z</time>
      </trkpt>
      <trkpt lat="47.77612" lon="-3.55939">
        <ele>-26.36</ele>
        <time>2019-07-14T09:39:21Z</time>
      </trkpt>
      <trkpt lat="47.77615" lon="-3.55944">
        <ele>-24.96</ele>
        <time>2019-07-14T09:39:24Z</time>
      </trkpt>
      <trkpt lat="47.77619" lon="-3.55949">
        <ele>-23.43</ele>
        <time>2019-07-14T09:39:27Z</time>
      </trkpt>
      <trkpt lat="47.77621" lon="-3.55955">
        <ele>-22.29</ele>
        <time>2019-07-14T09:39:29Z</time>
      </trkpt>
      <trkpt lat="47.77624" lon="-3.55961">
        <ele>-21.32</ele>
        <time>2019-07-14T09:39:31Z</time>
      </trkpt>
      <trkpt lat="47.77627" lon="-3.55968">
        <ele>-20.51</ele>
        <time>2019-07-14T09:39:33Z</time>
      </trkpt>
      <trkpt lat="47.77631" lon="-3.55976">
        <ele>-20.19</ele>
        <time>2019-07-14T09:39:35Z</time>
      </trkpt>
      <trkpt lat="47.77637" lon="-3.55982">
        <ele>-20.65</ele>
        <time>2019-07-14T09:39:37Z</time>
      </trkpt>
      <trkpt lat="47.77642" lon="-3.55986">
        <ele>-21.46</ele>
        <time>2019-07-14T09:39:39Z</time>
      </trkpt>
      <trkpt lat="47.77648" lon="-3.55989">
        <ele>-21.44</ele>
        <time>2019-07-14T09:39:41Z</time>
      </trkpt>
      <trkpt lat="47.77653" lon="-3.55991">
        <ele>-20.86</ele>
        <time>2019-07-14T09:39:42Z</time>
      </trkpt>
      <trkpt lat="47.77657" lon="-3.55995">
        <ele>-20.06</ele>
        <time>2019-07-14T09:39:43Z</time>
      </trkpt>
      <trkpt lat="47.77664" lon="-3.55998">
        <ele>-19.51</ele>
        <time>2019-07-14T09:39:45Z</time>
      </trkpt>
      <trkpt lat="47.77672" lon="-3.56001">
        <ele>-19.26</ele>
        <time>2019-07-14T09:39:47Z</time>
      </trkpt>
      <trkpt lat="47.77679" lon="-3.56007">
        <ele>-19.06</ele>
        <time>2019-07-14T09:39:49Z</time>
      </trkpt>
      <trkpt lat="47.77685" lon="-3.56015">
        <ele>-18.53</ele>
        <time>2019-07-14T09:39:51Z</time>
      </trkpt>
      <trkpt lat="47.77691" lon="-3.56022">
        <ele>-18.33</ele>
        <time>2019-07-14T09:39:53Z</time>
      </trkpt>
      <trkpt lat="47.77698" lon="-3.56026">
        <ele>-18.38</ele>
        <time>2019-07-14T09:39:55Z</time>
      </trkpt>
      <trkpt lat="47.77705" lon="-3.56029">
        <ele>-18.5</ele>
        <time>2019-07-14T09:39:57Z</time>
      </trkpt>
      <trkpt lat="47.77711" lon="-3.56032">
        <ele>-18.09</ele>
        <time>2019-07-14T09:39:58Z</time>
      </trkpt>
      <trkpt lat="47.77717" lon="-3.56035">
        <ele>-17.4</ele>
        <time>2019-07-14T09:39:59Z</time>
      </trkpt>
      <trkpt lat="47.77722" lon="-3.56037">
        <ele>-16.85</ele>
        <time>2019-07-14T09:40:00Z</time>
      </trkpt>
      <trkpt lat="47.77729" lon="-3.5604">
        <ele>-16.08</ele>
        <time>2019-07-14T09:40:02Z</time>
      </trkpt>
      <trkpt lat="47.77737" lon="-3.56043">
        <ele>-14.89</ele>
        <time>2019-07-14T09:40:04Z</time>
      </trkpt>
      <trkpt lat="47.77744" lon="-3.56047">
        <ele>-14.68</ele>
        <time>2019-07-14T09:40:06Z</time>
      </trkpt>
      <trkpt lat="47.77748" lon="-3.56054">
        <ele>-14.43</ele>
        <time>2019-07-14T09:40:08Z</time>
      </trkpt>
      <trkpt lat="47.77745" lon="-3.56064">
        <ele>-14.6</ele>
        <time>2019-07-14T09:40:10Z</time>
      </trkpt>
      <trkpt lat="47.77742" lon="-3.56074">
        <ele>-14.65</ele>
        <time>2019-07-14T09:40:12Z</time>
      </trkpt>
      <trkpt lat="47.77739" lon="-3.56083">
        <ele>-15.31</ele>
        <time>2019-07-14T09:40:14Z</time>
      </trkpt>
      <trkpt lat="47.77736" lon="-3.56091">
        <ele>-16.65</ele>
        <time>2019-07-14T09:40:16Z</time>
      </trkpt>
      <trkpt lat="47.77733" lon="-3.561">
        <ele>-17.46</ele>
        <time>2019-07-14T09:40:18Z</time>
      </trkpt>
      <trkpt lat="47.7773" lon="-3.56108">
        <ele>-19.26</ele>
        <time>2019-07-14T09:40:20Z</time>
      </trkpt>
      <trkpt lat="47.77726" lon="-3.56118">
        <ele>-20.89</ele>
        <time>2019-07-14T09:40:22Z</time>
      </trkpt>
      <trkpt lat="47.77724" lon="-3.56127">
        <ele>-21.43</ele>
        <time>2019-07-14T09:40:24Z</time>
      </trkpt>
      <trkpt lat="47.77722" lon="-3.56136">
        <ele>-21.04</ele>
        <time>2019-07-14T09:40:26Z</time>
      </trkpt>
      <trkpt lat="47.77719" lon="-3.56145">
        <ele>-19.82</ele>
        <time>2019-07-14T09:40:28Z</time>
      </trkpt>
      <trkpt lat="47.77717" lon="-3.56155">
        <ele>-18.94</ele>
        <time>2019-07-14T09:40:30Z</time>
      </trkpt>
      <trkpt lat="47.77716" lon="-3.56164">
        <ele>-17.09</ele>
        <time>2019-07-14T09:40:32Z</time>
      </trkpt>
      <trkpt lat="47.77713" lon="-3.56173">
        <ele>-16.66</ele>
        <time>2019-07-14T09:40:34Z</time>
      </trkpt>
      <trkpt lat="47.77709" lon="-3.56182">
        <ele>-16.78</ele>
        <time>2019-07-14T09:40:36Z</time>
      </trkpt>
      <trkpt lat="47.77705" lon="-3.56192">
        <ele>-17.52</ele>
        <time>2019-07-14T09:40:38Z</time>
      </trkpt>
      <trkpt lat="47.77701" lon="-3.56202">
        <ele>-17.2</ele>
        <time>2019-07-14T09:40:40Z</time>
      </trkpt>
      <trkpt lat="47.77698" lon="-3.56211">
        <ele>-17.51</ele>
        <time>2019-07-14T09:40:42Z</time>
      </trkpt>
      <trkpt lat="47.77695" lon="-3.56222">
        <ele>-17.35</ele>
        <time>2019-07-14T09:40:44Z</time>
      </trkpt>
      <trkpt lat="47.77692" lon="-3.56233">
        <ele>-16.99</ele>
        <time>2019-07-14T09:40:46Z</time>
      </trkpt>
      <trkpt lat="47.7769" lon="-3.56245">
        <ele>-16.9</ele>
        <time>2019-07-14T09:40:48Z</time>
      </trkpt>
      <trkpt lat="47.77693" lon="-3.56256">
        <ele>-17.18</ele>
        <time>2019-07-14T09:40:50Z</time>
      </trkpt>
      <trkpt lat="47.77694" lon="-3.56262">
        <ele>-16.85</ele>
        <time>2019-07-14T09:40:51Z</time>
      </trkpt>
      <trkpt lat="47.77696" lon="-3.56275">
        <ele>-17</ele>
        <time>2019-07-14T09:40:53Z</time>
      </trkpt>
      <trkpt lat="47.777" lon="-3.56286">
        <ele>-17.63</ele>
        <time>2019-07-14T09:40:55Z</time>
      </trkpt>
      <trkpt lat="47.77703" lon="-3.56298">
        <ele>-17.92</ele>
        <time>2019-07-14T09:40:57Z</time>
      </trkpt>
      <trkpt lat="47.77704" lon="-3.56311">
        <ele>-17.94</ele>
        <time>2019-07-14T09:40:59Z</time>
      </trkpt>
      <trkpt lat="47.77705" lon="-3.56318">
        <ele>-17.92</ele>
        <time>2019-07-14T09:41:00Z</time>
      </trkpt>
      <trkpt lat="47.77706" lon="-3.5633">
        <ele>-16.92</ele>
        <time>2019-07-14T09:41:02Z</time>
      </trkpt>
      <trkpt lat="47.77706" lon="-3.5634">
        <ele>-14.87</ele>
        <time>2019-07-14T09:41:04Z</time>
      </trkpt>
      <trkpt lat="47.77702" lon="-3.56348">
        <ele>-14.19</ele>
        <time>2019-07-14T09:41:06Z</time>
      </trkpt>
      <trkpt lat="47.77694" lon="-3.5635">
        <ele>-13.85</ele>
        <time>2019-07-14T09:41:08Z</time>
      </trkpt>
      <trkpt lat="47.77689" lon="-3.56351">
        <ele>-14.03</ele>
        <time>2019-07-14T09:41:09Z</time>
      </trkpt>
      <trkpt lat="47.77684" lon="-3.56352">
        <ele>-14.37</ele>
        <time>2019-07-14T09:41:10Z</time>
      </trkpt>
      <trkpt lat="47.77679" lon="-3.56353">
        <ele>-14.4</ele>
        <time>2019-07-14T09:41:11Z</time>
      </trkpt>
      <trkpt lat="47.77674" lon="-3.56354">
        <ele>-14.34</ele>
        <time>2019-07-14T09:41:12Z</time>
      </trkpt>
      <trkpt lat="47.77667" lon="-3.56354">
        <ele>-15.14</ele>
        <time>2019-07-14T09:41:14Z</time>
      </trkpt>
      <trkpt lat="47.77659" lon="-3.56354">
        <ele>-15.71</ele>
        <time>2019-07-14T09:41:16Z</time>
      </trkpt>
      <trkpt lat="47.77654" lon="-3.56355">
        <ele>-16.06</ele>
        <time>2019-07-14T09:41:17Z</time>
      </trkpt>
      <trkpt lat="47.77648" lon="-3.56357">
        <ele>-16.31</ele>
        <time>2019-07-14T09:41:18Z</time>
      </trkpt>
      <trkpt lat="47.77643" lon="-3.56357">
        <ele>-16.52</ele>
        <time>2019-07-14T09:41:19Z</time>
      </trkpt>
      <trkpt lat="47.77637" lon="-3.56357">
        <ele>-16.51</ele>
        <time>2019-07-14T09:41:20Z</time>
      </trkpt>
      <trkpt lat="47.77631" lon="-3.56357">
        <ele>-16.51</ele>
        <time>2019-07-14T09:41:21Z</time>
      </trkpt>
      <trkpt lat="47.77626" lon="-3.56357">
        <ele>-16.44</ele>
        <time>2019-07-14T09:41:22Z</time>
      </trkpt>
      <trkpt lat="47.77619" lon="-3.56357">
        <ele>-16.34</ele>
        <time>2019-07-14T09:41:24Z</time>
      </trkpt>
      <trkpt lat="47.77613" lon="-3.56356">
        <ele>-16.01</ele>
        <time>2019-07-14T09:41:27Z</time>
      </trkpt>
      <trkpt lat="47.77607" lon="-3.56357">
        <ele>-15.59</ele>
        <time>2019-07-14T09:41:30Z</time>
      </trkpt>
      <trkpt lat="47.77602" lon="-3.56358">
        <ele>-15.48</ele>
        <time>2019-07-14T09:41:33Z</time>
      </trkpt>
      <trkpt lat="47.77595" lon="-3.56358">
        <ele>-14.83</ele>
        <time>2019-07-14T09:41:36Z</time>
      </trkpt>
      <trkpt lat="47.77603" lon="-3.56358">
        <ele>-13.63</ele>
        <time>2019-07-14T09:41:49Z</time>
      </trkpt>
      <trkpt lat="47.77608" lon="-3.56359">
        <ele>-13.54</ele>
        <time>2019-07-14T09:41:51Z</time>
      </trkpt>
      <trkpt lat="47.77613" lon="-3.56359">
        <ele>-13.35</ele>
        <time>2019-07-14T09:41:53Z</time>
      </trkpt>
      <trkpt lat="47.7762" lon="-3.56358">
        <ele>-13.08</ele>
        <time>2019-07-14T09:41:55Z</time>
      </trkpt>
      <trkpt lat="47.77627" lon="-3.56356">
        <ele>-12.77</ele>
        <time>2019-07-14T09:41:57Z</time>
      </trkpt>
      <trkpt lat="47.77633" lon="-3.56355">
        <ele>-12.74</ele>
        <time>2019-07-14T09:41:59Z</time>
      </trkpt>
      <trkpt lat="47.77639" lon="-3.56354">
        <ele>-12.41</ele>
        <time>2019-07-14T09:42:01Z</time>
      </trkpt>
      <trkpt lat="47.77645" lon="-3.56354">
        <ele>-12.14</ele>
        <time>2019-07-14T09:42:03Z</time>
      </trkpt>
      <trkpt lat="47.77652" lon="-3.56354">
        <ele>-12.37</ele>
        <time>2019-07-14T09:42:05Z</time>
      </trkpt>
      <trkpt lat="47.77657" lon="-3.56351">
        <ele>-11.74</ele>
        <time>2019-07-14T09:42:07Z</time>
      </trkpt>
      <trkpt lat="47.77663" lon="-3.56352">
        <ele>-11.34</ele>
        <time>2019-07-14T09:42:09Z</time>
      </trkpt>
      <trkpt lat="47.77668" lon="-3.56351">
        <ele>-11.26</ele>
        <time>2019-07-14T09:42:12Z</time>
      </trkpt>
      <trkpt lat="47.77674" lon="-3.56352">
        <ele>-11.83</ele>
        <time>2019-07-14T09:42:15Z</time>
      </trkpt>
      <trkpt lat="47.77679" lon="-3.56352">
        <ele>-11.33</ele>
        <time>2019-07-14T09:42:17Z</time>
      </trkpt>
      <trkpt lat="47.77683" lon="-3.56351">
        <ele>-10.99</ele>
        <time>2019-07-14T09:42:19Z</time>
      </trkpt>
      <trkpt lat="47.77688" lon="-3.56353">
        <ele>-9.17</ele>
        <time>2019-07-14T09:42:22Z</time>
      </trkpt>
      <trkpt lat="47.77682" lon="-3.56354">
        <ele>-8.84</ele>
        <time>2019-07-14T09:42:26Z</time>
      </trkpt>
      <trkpt lat="47.77676" lon="-3.56353">
        <ele>-9.59</ele>
        <time>2019-07-14T09:42:28Z</time>
      </trkpt>
      <trkpt lat="47.7767" lon="-3.56351">
        <ele>-9.91</ele>
        <time>2019-07-14T09:42:30Z</time>
      </trkpt>
      <trkpt lat="47.77665" lon="-3.5635">
        <ele>-10.28</ele>
        <time>2019-07-14T09:42:32Z</time>
      </trkpt>
      <trkpt lat="47.77659" lon="-3.56351">
        <ele>-10.17</ele>
        <time>2019-07-14T09:42:35Z</time>
      </trkpt>
      <trkpt lat="47.77653" lon="-3.56353">
        <ele>-11.28</ele>
        <time>2019-07-14T09:42:38Z</time>
      </trkpt>
      <trkpt lat="47.77648" lon="-3.56355">
        <ele>-11.65</ele>
        <time>2019-07-14T09:42:40Z</time>
      </trkpt>
      <trkpt lat="47.77641" lon="-3.56356">
        <ele>-12.37</ele>
        <time>2019-07-14T09:42:42Z</time>
      </trkpt>
      <trkpt lat="47.77634" lon="-3.56357">
        <ele>-12.7</ele>
        <time>2019-07-14T09:42:44Z</time>
      </trkpt>
      <trkpt lat="47.77625" lon="-3.56358">
        <ele>-12.87</ele>
        <time>2019-07-14T09:42:46Z</time>
      </trkpt>
      <trkpt lat="47.7762" lon="-3.56359">
        <ele>-12.9</ele>
        <time>2019-07-14T09:42:47Z</time>
      </trkpt>
      <trkpt lat="47.77615" lon="-3.56359">
        <ele>-12.84</ele>
        <time>2019-07-14T09:42:48Z</time>
      </trkpt>
      <trkpt lat="47.7761" lon="-3.56359">
        <ele>-12.89</ele>
        <time>2019-07-14T09:42:49Z</time>
      </trkpt>
      <trkpt lat="47.77605" lon="-3.56359">
        <ele>-12.98</ele>
        <time>2019-07-14T09:42:50Z</time>
      </trkpt>
      <trkpt lat="47.776" lon="-3.56361">
        <ele>-13</ele>
        <time>2019-07-14T09:42:51Z</time>
      </trkpt>
      <trkpt lat="47.77595" lon="-3.56362">
        <ele>-13.08</ele>
        <time>2019-07-14T09:42:52Z</time>
      </trkpt>
      <trkpt lat="47.77589" lon="-3.56365">
        <ele>-13.31</ele>
        <time>2019-07-14T09:42:53Z</time>
      </trkpt>
      <trkpt lat="47.77585" lon="-3.5637">
        <ele>-13.59</ele>
        <time>2019-07-14T09:42:54Z</time>
      </trkpt>
      <trkpt lat="47.77582" lon="-3.56377">
        <ele>-13.82</ele>
        <time>2019-07-14T09:42:55Z</time>
      </trkpt>
      <trkpt lat="47.77581" lon="-3.56383">
        <ele>-13.95</ele>
        <time>2019-07-14T09:42:56Z</time>
      </trkpt>
      <trkpt lat="47.77579" lon="-3.56391">
        <ele>-14.2</ele>
        <time>2019-07-14T09:42:57Z</time>
      </trkpt>
      <trkpt lat="47.77577" lon="-3.56398">
        <ele>-14.49</ele>
        <time>2019-07-14T09:42:58Z</time>
      </trkpt>
      <trkpt lat="47.77572" lon="-3.56407">
        <ele>-14.93</ele>
        <time>2019-07-14T09:42:59Z</time>
      </trkpt>
      <trkpt lat="47.7757" lon="-3.56413">
        <ele>-15.41</ele>
        <time>2019-07-14T09:43:00Z</time>
      </trkpt>
      <trkpt lat="47.77568" lon="-3.56418">
        <ele>-15.83</ele>
        <time>2019-07-14T09:43:01Z</time>
      </trkpt>
      <trkpt lat="47.77564" lon="-3.56423">
        <ele>-16.03</ele>
        <time>2019-07-14T09:43:02Z</time>
      </trkpt>
      <trkpt lat="47.77557" lon="-3.5643">
        <ele>-16.64</ele>
        <time>2019-07-14T09:43:04Z</time>
      </trkpt>
      <trkpt lat="47.77551" lon="-3.56438">
        <ele>-17.49</ele>
        <time>2019-07-14T09:43:06Z</time>
      </trkpt>
      <trkpt lat="47.77546" lon="-3.56448">
        <ele>-18.55</ele>
        <time>2019-07-14T09:43:08Z</time>
      </trkpt>
      <trkpt lat="47.77543" lon="-3.56453">
        <ele>-19.22</ele>
        <time>2019-07-14T09:43:09Z</time>
      </trkpt>
      <trkpt lat="47.77539" lon="-3.56457">
        <ele>-19.5</ele>
        <time>2019-07-14T09:43:10Z</time>
      </trkpt>
      <trkpt lat="47.77534" lon="-3.56462">
        <ele>-19.3</ele>
        <time>2019-07-14T09:43:11Z</time>
      </trkpt>
      <trkpt lat="47.77529" lon="-3.56466">
        <ele>-19.24</ele>
        <time>2019-07-14T09:43:12Z</time>
      </trkpt>
      <trkpt lat="47.77523" lon="-3.5647">
        <ele>-18.8</ele>
        <time>2019-07-14T09:43:13Z</time>
      </trkpt>
      <trkpt lat="47.77519" lon="-3.56475">
        <ele>-18.18</ele>
        <time>2019-07-14T09:43:14Z</time>
      </trkpt>
      <trkpt lat="47.77513" lon="-3.56479">
        <ele>-17.5</ele>
        <time>2019-07-14T09:43:15Z</time>
      </trkpt>
      <trkpt lat="47.77509" lon="-3.56484">
        <ele>-16.88</ele>
        <time>2019-07-14T09:43:16Z</time>
      </trkpt>
      <trkpt lat="47.77504" lon="-3.56489">
        <ele>-16.41</ele>
        <time>2019-07-14T09:43:17Z</time>
      </trkpt>
      <trkpt lat="47.775" lon="-3.56494">
        <ele>-15.92</ele>
        <time>2019-07-14T09:43:18Z</time>
      </trkpt>
      <trkpt lat="47.77496" lon="-3.565">
        <ele>-15.36</ele>
        <time>2019-07-14T09:43:19Z</time>
      </trkpt>
      <trkpt lat="47.77491" lon="-3.56506">
        <ele>-14.62</ele>
        <time>2019-07-14T09:43:20Z</time>
      </trkpt>
      <trkpt lat="47.77487" lon="-3.56511">
        <ele>-13.99</ele>
        <time>2019-07-14T09:43:21Z</time>
      </trkpt>
      <trkpt lat="47.77484" lon="-3.56516">
        <ele>-13.58</ele>
        <time>2019-07-14T09:43:22Z</time>
      </trkpt>
      <trkpt lat="47.77481" lon="-3.56521">
        <ele>-13.18</ele>
        <time>2019-07-14T09:43:23Z</time>
      </trkpt>
      <trkpt lat="47.77478" lon="-3.56527">
        <ele>-12.78</ele>
        <time>2019-07-14T09:43:24Z</time>
      </trkpt>
      <trkpt lat="47.77474" lon="-3.56537">
        <ele>-12.1</ele>
        <time>2019-07-14T09:43:26Z</time>
      </trkpt>
      <trkpt lat="47.7747" lon="-3.56544">
        <ele>-11.61</ele>
        <time>2019-07-14T09:43:28Z</time>
      </trkpt>
      <trkpt lat="47.77468" lon="-3.56551">
        <ele>-11.67</ele>
        <time>2019-07-14T09:43:31Z</time>
      </trkpt>
      <trkpt lat="47.77463" lon="-3.56553">
        <ele>-12.56</ele>
        <time>2019-07-14T09:43:42Z</time>
      </trkpt>
      <trkpt lat="47.77455" lon="-3.56552">
        <ele>-12.47</ele>
        <time>2019-07-14T09:43:44Z</time>
      </trkpt>
      <trkpt lat="47.77448" lon="-3.56549">
        <ele>-12.44</ele>
        <time>2019-07-14T09:43:46Z</time>
      </trkpt>
      <trkpt lat="47.7744" lon="-3.56548">
        <ele>-12.39</ele>
        <time>2019-07-14T09:43:48Z</time>
      </trkpt>
      <trkpt lat="47.77433" lon="-3.56556">
        <ele>-12.3</ele>
        <time>2019-07-14T09:43:50Z</time>
      </trkpt>
      <trkpt lat="47.77425" lon="-3.56561">
        <ele>-12.22</ele>
        <time>2019-07-14T09:43:52Z</time>
      </trkpt>
      <trkpt lat="47.7742" lon="-3.56561">
        <ele>-12.35</ele>
        <time>2019-07-14T09:43:53Z</time>
      </trkpt>
      <trkpt lat="47.77415" lon="-3.56561">
        <ele>-12.46</ele>
        <time>2019-07-14T09:43:54Z</time>
      </trkpt>
      <trkpt lat="47.7741" lon="-3.56561">
        <ele>-12.64</ele>
        <time>2019-07-14T09:43:55Z</time>
      </trkpt>
      <trkpt lat="47.77405" lon="-3.56561">
        <ele>-12.62</ele>
        <time>2019-07-14T09:43:56Z</time>
      </trkpt>
      <trkpt lat="47.774" lon="-3.56561">
        <ele>-12.61</ele>
        <time>2019-07-14T09:43:57Z</time>
      </trkpt>
      <trkpt lat="47.77395" lon="-3.5656">
        <ele>-12.75</ele>
        <time>2019-07-14T09:43:58Z</time>
      </trkpt>
      <trkpt lat="47.77391" lon="-3.56559">
        <ele>-12.79</ele>
        <time>2019-07-14T09:43:59Z</time>
      </trkpt>
      <trkpt lat="47.77382" lon="-3.56556">
        <ele>-12.67</ele>
        <time>2019-07-14T09:44:01Z</time>
      </trkpt>
      <trkpt lat="47.77377" lon="-3.56555">
        <ele>-12.7</ele>
        <time>2019-07-14T09:44:02Z</time>
      </trkpt>
      <trkpt lat="47.77371" lon="-3.56554">
        <ele>-12.92</ele>
        <time>2019-07-14T09:44:03Z</time>
      </trkpt>
      <trkpt lat="47.77366" lon="-3.56553">
        <ele>-13.26</ele>
        <time>2019-07-14T09:44:04Z</time>
      </trkpt>
      <trkpt lat="47.77361" lon="-3.56551">
        <ele>-13.51</ele>
        <time>2019-07-14T09:44:05Z</time>
      </trkpt>
      <trkpt lat="47.77355" lon="-3.56548">
        <ele>-13.93</ele>
        <time>2019-07-14T09:44:06Z</time>
      </trkpt>
      <trkpt lat="47.7735" lon="-3.56544">
        <ele>-14.55</ele>
        <time>2019-07-14T09:44:07Z</time>
      </trkpt>
      <trkpt lat="47.77345" lon="-3.5654">
        <ele>-15.43</ele>
        <time>2019-07-14T09:44:08Z</time>
      </trkpt>
      <trkpt lat="47.7734" lon="-3.56537">
        <ele>-15.84</ele>
        <time>2019-07-14T09:44:09Z</time>
      </trkpt>
      <trkpt lat="47.77336" lon="-3.56534">
        <ele>-16.03</ele>
        <time>2019-07-14T09:44:10Z</time>
      </trkpt>
      <trkpt lat="47.77332" lon="-3.56532">
        <ele>-16.16</ele>
        <time>2019-07-14T09:44:11Z</time>
      </trkpt>
      <trkpt lat="47.77328" lon="-3.56528">
        <ele>-16.41</ele>
        <time>2019-07-14T09:44:12Z</time>
      </trkpt>
      <trkpt lat="47.77323" lon="-3.56525">
        <ele>-16.62</ele>
        <time>2019-07-14T09:44:13Z</time>
      </trkpt>
      <trkpt lat="47.77319" lon="-3.5652">
        <ele>-16.89</ele>
        <time>2019-07-14T09:44:14Z</time>
      </trkpt>
      <trkpt lat="47.77314" lon="-3.56518">
        <ele>-16.91</ele>
        <time>2019-07-14T09:44:15Z</time>
      </trkpt>
      <trkpt lat="47.77309" lon="-3.56516">
        <ele>-17.12</ele>
        <time>2019-07-14T09:44:16Z</time>
      </trkpt>
      <trkpt lat="47.77304" lon="-3.56515">
        <ele>-17.32</ele>
        <time>2019-07-14T09:44:17Z</time>
      </trkpt>
      <trkpt lat="47.773" lon="-3.56515">
        <ele>-17.43</ele>
        <time>2019-07-14T09:44:19Z</time>
      </trkpt>
      <trkpt lat="47.77303" lon="-3.56521">
        <ele>-17.94</ele>
        <time>2019-07-14T09:44:22Z</time>
      </trkpt>
      <trkpt lat="47.77306" lon="-3.56529">
        <ele>-17.61</ele>
        <time>2019-07-14T09:44:24Z</time>
      </trkpt>
      <trkpt lat="47.77311" lon="-3.56539">
        <ele>-17.11</ele>
        <time>2019-07-14T09:44:26Z</time>
      </trkpt>
      <trkpt lat="47.77314" lon="-3.56551">
        <ele>-16.54</ele>
        <time>2019-07-14T09:44:28Z</time>
      </trkpt>
      <trkpt lat="47.77316" lon="-3.56562">
        <ele>-16.05</ele>
        <time>2019-07-14T09:44:30Z</time>
      </trkpt>
      <trkpt lat="47.77317" lon="-3.56569">
        <ele>-16.02</ele>
        <time>2019-07-14T09:44:31Z</time>
      </trkpt>
      <trkpt lat="47.77317" lon="-3.56577">
        <ele>-16.37</ele>
        <time>2019-07-14T09:44:32Z</time>
      </trkpt>
      <trkpt lat="47.77316" lon="-3.56586">
        <ele>-16.89</ele>
        <time>2019-07-14T09:44:33Z</time>
      </trkpt>
      <trkpt lat="47.77315" lon="-3.56597">
        <ele>-17.46</ele>
        <time>2019-07-14T09:44:34Z</time>
      </trkpt>
      <trkpt lat="47.77313" lon="-3.56606">
        <ele>-18.06</ele>
        <time>2019-07-14T09:44:35Z</time>
      </trkpt>
      <trkpt lat="47.77311" lon="-3.56615">
        <ele>-18.17</ele>
        <time>2019-07-14T09:44:36Z</time>
      </trkpt>
      <trkpt lat="47.77309" lon="-3.56624">
        <ele>-18.76</ele>
        <time>2019-07-14T09:44:37Z</time>
      </trkpt>
      <trkpt lat="47.77308" lon="-3.56634">
        <ele>-19.43</ele>
        <time>2019-07-14T09:44:38Z</time>
      </trkpt>
      <trkpt lat="47.77306" lon="-3.56644">
        <ele>-20.05</ele>
        <time>2019-07-14T09:44:39Z</time>
      </trkpt>
      <trkpt lat="47.77305" lon="-3.56654">
        <ele>-20.23</ele>
        <time>2019-07-14T09:44:40Z</time>
      </trkpt>
      <trkpt lat="47.77304" lon="-3.56663">
        <ele>-20.57</ele>
        <time>2019-07-14T09:44:41Z</time>
      </trkpt>
      <trkpt lat="47.77302" lon="-3.56673">
        <ele>-20.88</ele>
        <time>2019-07-14T09:44:42Z</time>
      </trkpt>
      <trkpt lat="47.77301" lon="-3.56682">
        <ele>-21.18</ele>
        <time>2019-07-14T09:44:43Z</time>
      </trkpt>
      <trkpt lat="47.773" lon="-3.5669">
        <ele>-21.48</ele>
        <time>2019-07-14T09:44:44Z</time>
      </trkpt>
      <trkpt lat="47.77299" lon="-3.56697">
        <ele>-21.43</ele>
        <time>2019-07-14T09:44:45Z</time>
      </trkpt>
      <trkpt lat="47.77297" lon="-3.56705">
        <ele>-21.14</ele>
        <time>2019-07-14T09:44:46Z</time>
      </trkpt>
      <trkpt lat="47.77296" lon="-3.56712">
        <ele>-21.4</ele>
        <time>2019-07-14T09:44:47Z</time>
      </trkpt>
      <trkpt lat="47.77296" lon="-3.5672">
        <ele>-21.76</ele>
        <time>2019-07-14T09:44:48Z</time>
      </trkpt>
      <trkpt lat="47.77296" lon="-3.56727">
        <ele>-22.01</ele>
        <time>2019-07-14T09:44:49Z</time>
      </trkpt>
      <trkpt lat="47.77295" lon="-3.56734">
        <ele>-22.64</ele>
        <time>2019-07-14T09:44:50Z</time>
      </trkpt>
      <trkpt lat="47.77294" lon="-3.56742">
        <ele>-23.11</ele>
        <time>2019-07-14T09:44:51Z</time>
      </trkpt>
      <trkpt lat="47.77293" lon="-3.56749">
        <ele>-23.11</ele>
        <time>2019-07-14T09:44:52Z</time>
      </trkpt>
      <trkpt lat="47.77292" lon="-3.56756">
        <ele>-23.11</ele>
        <time>2019-07-14T09:44:53Z</time>
      </trkpt>
      <trkpt lat="47.7729" lon="-3.56763">
        <ele>-23.25</ele>
        <time>2019-07-14T09:44:54Z</time>
      </trkpt>
      <trkpt lat="47.77287" lon="-3.56771">
        <ele>-22.8</ele>
        <time>2019-07-14T09:44:55Z</time>
      </trkpt>
      <trkpt lat="47.77286" lon="-3.56779">
        <ele>-22.04</ele>
        <time>2019-07-14T09:44:56Z</time>
      </trkpt>
      <trkpt lat="47.77284" lon="-3.56786">
        <ele>-21.74</ele>
        <time>2019-07-14T09:44:57Z</time>
      </trkpt>
      <trkpt lat="47.77284" lon="-3.56794">
        <ele>-21.23</ele>
        <time>2019-07-14T09:44:58Z</time>
      </trkpt>
      <trkpt lat="47.77283" lon="-3.56801">
        <ele>-20.8</ele>
        <time>2019-07-14T09:44:59Z</time>
      </trkpt>
      <trkpt lat="47.77283" lon="-3.56808">
        <ele>-20.39</ele>
        <time>2019-07-14T09:45:00Z</time>
      </trkpt>
      <trkpt lat="47.77282" lon="-3.56815">
        <ele>-20.33</ele>
        <time>2019-07-14T09:45:01Z</time>
      </trkpt>
      <trkpt lat="47.77281" lon="-3.56823">
        <ele>-20.11</ele>
        <time>2019-07-14T09:45:02Z</time>
      </trkpt>
      <trkpt lat="47.7728" lon="-3.56831">
        <ele>-19.9</ele>
        <time>2019-07-14T09:45:03Z</time>
      </trkpt>
      <trkpt lat="47.77279" lon="-3.56839">
        <ele>-19.7</ele>
        <time>2019-07-14T09:45:04Z</time>
      </trkpt>
      <trkpt lat="47.77278" lon="-3.56847">
        <ele>-19.57</ele>
        <time>2019-07-14T09:45:05Z</time>
      </trkpt>
      <trkpt lat="47.77277" lon="-3.56854">
        <ele>-19.46</ele>
        <time>2019-07-14T09:45:06Z</time>
      </trkpt>
      <trkpt lat="47.77276" lon="-3.56862">
        <ele>-19.29</ele>
        <time>2019-07-14T09:45:07Z</time>
      </trkpt>
      <trkpt lat="47.77275" lon="-3.56871">
        <ele>-18.67</ele>
        <time>2019-07-14T09:45:08Z</time>
      </trkpt>
      <trkpt lat="47.77274" lon="-3.56877">
        <ele>-17.79</ele>
        <time>2019-07-14T09:45:09Z</time>
      </trkpt>
      <trkpt lat="47.77274" lon="-3.56884">
        <ele>-17.46</ele>
        <time>2019-07-14T09:45:10Z</time>
      </trkpt>
      <trkpt lat="47.77277" lon="-3.56895">
        <ele>-16.73</ele>
        <time>2019-07-14T09:45:12Z</time>
      </trkpt>
      <trkpt lat="47.77282" lon="-3.56901">
        <ele>-16.21</ele>
        <time>2019-07-14T09:45:14Z</time>
      </trkpt>
      <trkpt lat="47.7729" lon="-3.56904">
        <ele>-15.22</ele>
        <time>2019-07-14T09:45:16Z</time>
      </trkpt>
      <trkpt lat="47.77296" lon="-3.56906">
        <ele>-13.89</ele>
        <time>2019-07-14T09:45:18Z</time>
      </trkpt>
      <trkpt lat="47.773" lon="-3.5691">
        <ele>-13.61</ele>
        <time>2019-07-14T09:45:20Z</time>
      </trkpt>
      <trkpt lat="47.77307" lon="-3.56913">
        <ele>-13.04</ele>
        <time>2019-07-14T09:45:22Z</time>
      </trkpt>
      <trkpt lat="47.77315" lon="-3.56917">
        <ele>-12.46</ele>
        <time>2019-07-14T09:45:24Z</time>
      </trkpt>
      <trkpt lat="47.77319" lon="-3.56919">
        <ele>-12.22</ele>
        <time>2019-07-14T09:45:25Z</time>
      </trkpt>
      <trkpt lat="47.77327" lon="-3.56922">
        <ele>-12.12</ele>
        <time>2019-07-14T09:45:27Z</time>
      </trkpt>
      <trkpt lat="47.77335" lon="-3.56926">
        <ele>-12.16</ele>
        <time>2019-07-14T09:45:29Z</time>
      </trkpt>
      <trkpt lat="47.77344" lon="-3.56929">
        <ele>-11.62</ele>
        <time>2019-07-14T09:45:31Z</time>
      </trkpt>
      <trkpt lat="47.77349" lon="-3.56932">
        <ele>-11.68</ele>
        <time>2019-07-14T09:45:32Z</time>
      </trkpt>
      <trkpt lat="47.77355" lon="-3.56936">
        <ele>-11.91</ele>
        <time>2019-07-14T09:45:33Z</time>
      </trkpt>
      <trkpt lat="47.77361" lon="-3.5694">
        <ele>-12.12</ele>
        <time>2019-07-14T09:45:34Z</time>
      </trkpt>
      <trkpt lat="47.77366" lon="-3.56946">
        <ele>-12.26</ele>
        <time>2019-07-14T09:45:35Z</time>
      </trkpt>
      <trkpt lat="47.77372" lon="-3.56951">
        <ele>-12.29</ele>
        <time>2019-07-14T09:45:36Z</time>
      </trkpt>
      <trkpt lat="47.77378" lon="-3.56956">
        <ele>-12.1</ele>
        <time>2019-07-14T09:45:37Z</time>
      </trkpt>
      <trkpt lat="47.77383" lon="-3.56961">
        <ele>-11.97</ele>
        <time>2019-07-14T09:45:38Z</time>
      </trkpt>
      <trkpt lat="47.77388" lon="-3.56966">
        <ele>-11.93</ele>
        <time>2019-07-14T09:45:39Z</time>
      </trkpt>
      <trkpt lat="47.77393" lon="-3.56971">
        <ele>-11.71</ele>
        <time>2019-07-14T09:45:40Z</time>
      </trkpt>
      <trkpt lat="47.77397" lon="-3.56976">
        <ele>-11.5</ele>
        <time>2019-07-14T09:45:41Z</time>
      </trkpt>
      <trkpt lat="47.77401" lon="-3.56981">
        <ele>-11.51</ele>
        <time>2019-07-14T09:45:42Z</time>
      </trkpt>
      <trkpt lat="47.77406" lon="-3.56986">
        <ele>-11.65</ele>
        <time>2019-07-14T09:45:43Z</time>
      </trkpt>
      <trkpt lat="47.7741" lon="-3.56991">
        <ele>-11.55</ele>
        <time>2019-07-14T09:45:44Z</time>
      </trkpt>
      <trkpt lat="47.77415" lon="-3.56995">
        <ele>-11.66</ele>
        <time>2019-07-14T09:45:45Z</time>
      </trkpt>
      <trkpt lat="47.77421" lon="-3.56998">
        <ele>-11.84</ele>
        <time>2019-07-14T09:45:46Z</time>
      </trkpt>
      <trkpt lat="47.77426" lon="-3.57001">
        <ele>-12.24</ele>
        <time>2019-07-14T09:45:47Z</time>
      </trkpt>
      <trkpt lat="47.77432" lon="-3.57002">
        <ele>-12.57</ele>
        <time>2019-07-14T09:45:48Z</time>
      </trkpt>
      <trkpt lat="47.77437" lon="-3.57002">
        <ele>-12.88</ele>
        <time>2019-07-14T09:45:49Z</time>
      </trkpt>
      <trkpt lat="47.77443" lon="-3.57002">
        <ele>-12.97</ele>
        <time>2019-07-14T09:45:50Z</time>
      </trkpt>
      <trkpt lat="47.77448" lon="-3.57001">
        <ele>-12.51</ele>
        <time>2019-07-14T09:45:51Z</time>
      </trkpt>
      <trkpt lat="47.77453" lon="-3.57">
        <ele>-12.44</ele>
        <time>2019-07-14T09:45:52Z</time>
      </trkpt>
      <trkpt lat="47.77458" lon="-3.56998">
        <ele>-11.65</ele>
        <time>2019-07-14T09:45:53Z</time>
      </trkpt>
      <trkpt lat="47.77464" lon="-3.56995">
        <ele>-11.06</ele>
        <time>2019-07-14T09:45:54Z</time>
      </trkpt>
      <trkpt lat="47.77469" lon="-3.56992">
        <ele>-10.82</ele>
        <time>2019-07-14T09:45:55Z</time>
      </trkpt>
      <trkpt lat="47.77474" lon="-3.56989">
        <ele>-10.46</ele>
        <time>2019-07-14T09:45:56Z</time>
      </trkpt>
      <trkpt lat="47.77479" lon="-3.56986">
        <ele>-10.01</ele>
        <time>2019-07-14T09:45:57Z</time>
      </trkpt>
      <trkpt lat="47.77484" lon="-3.56982">
        <ele>-9.59</ele>
        <time>2019-07-14T09:45:58Z</time>
      </trkpt>
      <trkpt lat="47.7749" lon="-3.56979">
        <ele>-9.33</ele>
        <time>2019-07-14T09:45:59Z</time>
      </trkpt>
      <trkpt lat="47.77494" lon="-3.56975">
        <ele>-9.46</ele>
        <time>2019-07-14T09:46:00Z</time>
      </trkpt>
      <trkpt lat="47.77499" lon="-3.5697">
        <ele>-9.78</ele>
        <time>2019-07-14T09:46:01Z</time>
      </trkpt>
      <trkpt lat="47.77504" lon="-3.56966">
        <ele>-9.8</ele>
        <time>2019-07-14T09:46:02Z</time>
      </trkpt>
      <trkpt lat="47.77509" lon="-3.56962">
        <ele>-9.67</ele>
        <time>2019-07-14T09:46:03Z</time>
      </trkpt>
      <trkpt lat="47.77514" lon="-3.56958">
        <ele>-9.7</ele>
        <time>2019-07-14T09:46:04Z</time>
      </trkpt>
      <trkpt lat="47.77519" lon="-3.56954">
        <ele>-9.85</ele>
        <time>2019-07-14T09:46:05Z</time>
      </trkpt>
      <trkpt lat="47.77523" lon="-3.56949">
        <ele>-9.96</ele>
        <time>2019-07-14T09:46:06Z</time>
      </trkpt>
      <trkpt lat="47.77528" lon="-3.56945">
        <ele>-9.79</ele>
        <time>2019-07-14T09:46:07Z</time>
      </trkpt>
      <trkpt lat="47.77533" lon="-3.56941">
        <ele>-9.59</ele>
        <time>2019-07-14T09:46:08Z</time>
      </trkpt>
      <trkpt lat="47.77539" lon="-3.56936">
        <ele>-9.47</ele>
        <time>2019-07-14T09:46:09Z</time>
      </trkpt>
      <trkpt lat="47.77545" lon="-3.56933">
        <ele>-9.36</ele>
        <time>2019-07-14T09:46:10Z</time>
      </trkpt>
      <trkpt lat="47.7755" lon="-3.56929">
        <ele>-9.4</ele>
        <time>2019-07-14T09:46:11Z</time>
      </trkpt>
      <trkpt lat="47.77556" lon="-3.56925">
        <ele>-9.41</ele>
        <time>2019-07-14T09:46:12Z</time>
      </trkpt>
      <trkpt lat="47.77562" lon="-3.56922">
        <ele>-9.34</ele>
        <time>2019-07-14T09:46:13Z</time>
      </trkpt>
      <trkpt lat="47.77569" lon="-3.56919">
        <ele>-9.39</ele>
        <time>2019-07-14T09:46:14Z</time>
      </trkpt>
      <trkpt lat="47.77575" lon="-3.56916">
        <ele>-9.62</ele>
        <time>2019-07-14T09:46:15Z</time>
      </trkpt>
      <trkpt lat="47.7758" lon="-3.56913">
        <ele>-9.47</ele>
        <time>2019-07-14T09:46:16Z</time>
      </trkpt>
      <trkpt lat="47.77586" lon="-3.56911">
        <ele>-9.43</ele>
        <time>2019-07-14T09:46:17Z</time>
      </trkpt>
      <trkpt lat="47.77592" lon="-3.56909">
        <ele>-9.14</ele>
        <time>2019-07-14T09:46:18Z</time>
      </trkpt>
      <trkpt lat="47.77598" lon="-3.56906">
        <ele>-8.91</ele>
        <time>2019-07-14T09:46:19Z</time>
      </trkpt>
      <trkpt lat="47.77604" lon="-3.56904">
        <ele>-8.91</ele>
        <time>2019-07-14T09:46:20Z</time>
      </trkpt>
      <trkpt lat="47.7761" lon="-3.56903">
        <ele>-9.05</ele>
        <time>2019-07-14T09:46:21Z</time>
      </trkpt>
      <trkpt lat="47.77615" lon="-3.56901">
        <ele>-9.09</ele>
        <time>2019-07-14T09:46:22Z</time>
      </trkpt>
      <trkpt lat="47.77621" lon="-3.56899">
        <ele>-8.83</ele>
        <time>2019-07-14T09:46:23Z</time>
      </trkpt>
      <trkpt lat="47.77626" lon="-3.56899">
        <ele>-8.61</ele>
        <time>2019-07-14T09:46:24Z</time>
      </trkpt>
      <trkpt lat="47.7763" lon="-3.569">
        <ele>-9.24</ele>
        <time>2019-07-14T09:46:25Z</time>
      </trkpt>
      <trkpt lat="47.77636" lon="-3.56908">
        <ele>-10.19</ele>
        <time>2019-07-14T09:46:27Z</time>
      </trkpt>
      <trkpt lat="47.77638" lon="-3.56916">
        <ele>-10.83</ele>
        <time>2019-07-14T09:46:28Z</time>
      </trkpt>
      <trkpt lat="47.77638" lon="-3.56924">
        <ele>-11.03</ele>
        <time>2019-07-14T09:46:29Z</time>
      </trkpt>
      <trkpt lat="47.77639" lon="-3.56934">
        <ele>-11.58</ele>
        <time>2019-07-14T09:46:30Z</time>
      </trkpt>
      <trkpt lat="47.77639" lon="-3.56945">
        <ele>-12.65</ele>
        <time>2019-07-14T09:46:31Z</time>
      </trkpt>
      <trkpt lat="47.7764" lon="-3.56956">
        <ele>-13.67</ele>
        <time>2019-07-14T09:46:32Z</time>
      </trkpt>
      <trkpt lat="47.7764" lon="-3.56968">
        <ele>-14.54</ele>
        <time>2019-07-14T09:46:33Z</time>
      </trkpt>
      <trkpt lat="47.77641" lon="-3.5698">
        <ele>-14.8</ele>
        <time>2019-07-14T09:46:34Z</time>
      </trkpt>
      <trkpt lat="47.77642" lon="-3.56992">
        <ele>-15.3</ele>
        <time>2019-07-14T09:46:35Z</time>
      </trkpt>
      <trkpt lat="47.77643" lon="-3.57005">
        <ele>-15.87</ele>
        <time>2019-07-14T09:46:36Z</time>
      </trkpt>
      <trkpt lat="47.77644" lon="-3.57019">
        <ele>-16.32</ele>
        <time>2019-07-14T09:46:37Z</time>
      </trkpt>
      <trkpt lat="47.77644" lon="-3.57031">
        <ele>-16.66</ele>
        <time>2019-07-14T09:46:38Z</time>
      </trkpt>
      <trkpt lat="47.77645" lon="-3.57044">
        <ele>-16.84</ele>
        <time>2019-07-14T09:46:39Z</time>
      </trkpt>
      <trkpt lat="47.77647" lon="-3.57057">
        <ele>-17.24</ele>
        <time>2019-07-14T09:46:40Z</time>
      </trkpt>
      <trkpt lat="47.77647" lon="-3.5707">
        <ele>-17.57</ele>
        <time>2019-07-14T09:46:41Z</time>
      </trkpt>
      <trkpt lat="47.77649" lon="-3.57083">
        <ele>-17.74</ele>
        <time>2019-07-14T09:46:42Z</time>
      </trkpt>
      <trkpt lat="47.7765" lon="-3.57095">
        <ele>-17.86</ele>
        <time>2019-07-14T09:46:43Z</time>
      </trkpt>
      <trkpt lat="47.77652" lon="-3.57108">
        <ele>-17.9</ele>
        <time>2019-07-14T09:46:44Z</time>
      </trkpt>
      <trkpt lat="47.77653" lon="-3.57119">
        <ele>-18.05</ele>
        <time>2019-07-14T09:46:45Z</time>
      </trkpt>
      <trkpt lat="47.77654" lon="-3.57131">
        <ele>-18.09</ele>
        <time>2019-07-14T09:46:46Z</time>
      </trkpt>
      <trkpt lat="47.77656" lon="-3.57141">
        <ele>-18.18</ele>
        <time>2019-07-14T09:46:47Z</time>
      </trkpt>
      <trkpt lat="47.77657" lon="-3.5715">
        <ele>-17.99</ele>
        <time>2019-07-14T09:46:48Z</time>
      </trkpt>
      <trkpt lat="47.77658" lon="-3.57159">
        <ele>-17.38</ele>
        <time>2019-07-14T09:46:49Z</time>
      </trkpt>
      <trkpt lat="47.77659" lon="-3.57167">
        <ele>-17.19</ele>
        <time>2019-07-14T09:46:50Z</time>
      </trkpt>
      <trkpt lat="47.7766" lon="-3.57175">
        <ele>-16.79</ele>
        <time>2019-07-14T09:46:51Z</time>
      </trkpt>
      <trkpt lat="47.7766" lon="-3.57182">
        <ele>-16.45</ele>
        <time>2019-07-14T09:46:52Z</time>
      </trkpt>
      <trkpt lat="47.7766" lon="-3.57195">
        <ele>-16.09</ele>
        <time>2019-07-14T09:46:54Z</time>
      </trkpt>
      <trkpt lat="47.7766" lon="-3.57202">
        <ele>-15.69</ele>
        <time>2019-07-14T09:46:55Z</time>
      </trkpt>
      <trkpt lat="47.77659" lon="-3.57209">
        <ele>-15.42</ele>
        <time>2019-07-14T09:46:56Z</time>
      </trkpt>
      <trkpt lat="47.77658" lon="-3.57216">
        <ele>-15.35</ele>
        <time>2019-07-14T09:46:57Z</time>
      </trkpt>
      <trkpt lat="47.77657" lon="-3.57223">
        <ele>-15.46</ele>
        <time>2019-07-14T09:46:58Z</time>
      </trkpt>
      <trkpt lat="47.77655" lon="-3.5723">
        <ele>-15.92</ele>
        <time>2019-07-14T09:46:59Z</time>
      </trkpt>
      <trkpt lat="47.77654" lon="-3.57238">
        <ele>-16.54</ele>
        <time>2019-07-14T09:47:00Z</time>
      </trkpt>
      <trkpt lat="47.77653" lon="-3.57245">
        <ele>-16.73</ele>
        <time>2019-07-14T09:47:01Z</time>
      </trkpt>
      <trkpt lat="47.77651" lon="-3.57254">
        <ele>-17.49</ele>
        <time>2019-07-14T09:47:02Z</time>
      </trkpt>
      <trkpt lat="47.77649" lon="-3.57261">
        <ele>-17.71</ele>
        <time>2019-07-14T09:47:03Z</time>
      </trkpt>
      <trkpt lat="47.77647" lon="-3.57269">
        <ele>-17.15</ele>
        <time>2019-07-14T09:47:04Z</time>
      </trkpt>
      <trkpt lat="47.77644" lon="-3.57277">
        <ele>-16.56</ele>
        <time>2019-07-14T09:47:05Z</time>
      </trkpt>
      <trkpt lat="47.77641" lon="-3.57285">
        <ele>-16.11</ele>
        <time>2019-07-14T09:47:06Z</time>
      </trkpt>
      <trkpt lat="47.7764" lon="-3.57293">
        <ele>-15.97</ele>
        <time>2019-07-14T09:47:07Z</time>
      </trkpt>
      <trkpt lat="47.77638" lon="-3.573">
        <ele>-15.65</ele>
        <time>2019-07-14T09:47:08Z</time>
      </trkpt>
      <trkpt lat="47.77637" lon="-3.57308">
        <ele>-15.27</ele>
        <time>2019-07-14T09:47:09Z</time>
      </trkpt>
      <trkpt lat="47.77635" lon="-3.57316">
        <ele>-14.95</ele>
        <time>2019-07-14T09:47:10Z</time>
      </trkpt>
      <trkpt lat="47.77634" lon="-3.57324">
        <ele>-14.78</ele>
        <time>2019-07-14T09:47:11Z</time>
      </trkpt>
      <trkpt lat="47.77634" lon="-3.57332">
        <ele>-15.01</ele>
        <time>2019-07-14T09:47:12Z</time>
      </trkpt>
      <trkpt lat="47.77633" lon="-3.5734">
        <ele>-15.15</ele>
        <time>2019-07-14T09:47:13Z</time>
      </trkpt>
      <trkpt lat="47.77632" lon="-3.57349">
        <ele>-15.12</ele>
        <time>2019-07-14T09:47:14Z</time>
      </trkpt>
      <trkpt lat="47.77631" lon="-3.57357">
        <ele>-15.12</ele>
        <time>2019-07-14T09:47:15Z</time>
      </trkpt>
      <trkpt lat="47.77631" lon="-3.57366">
        <ele>-15.18</ele>
        <time>2019-07-14T09:47:16Z</time>
      </trkpt>
      <trkpt lat="47.7763" lon="-3.57375">
        <ele>-15.41</ele>
        <time>2019-07-14T09:47:17Z</time>
      </trkpt>
      <trkpt lat="47.7763" lon="-3.57384">
        <ele>-15.83</ele>
        <time>2019-07-14T09:47:18Z</time>
      </trkpt>
      <trkpt lat="47.7763" lon="-3.57394">
        <ele>-16.03</ele>
        <time>2019-07-14T09:47:19Z</time>
      </trkpt>
      <trkpt lat="47.7763" lon="-3.57403">
        <ele>-16.16</ele>
        <time>2019-07-14T09:47:20Z</time>
      </trkpt>
      <trkpt lat="47.7763" lon="-3.57413">
        <ele>-16.34</ele>
        <time>2019-07-14T09:47:21Z</time>
      </trkpt>
      <trkpt lat="47.77629" lon="-3.57424">
        <ele>-16.95</ele>
        <time>2019-07-14T09:47:22Z</time>
      </trkpt>
      <trkpt lat="47.77629" lon="-3.57434">
        <ele>-17.27</ele>
        <time>2019-07-14T09:47:23Z</time>
      </trkpt>
      <trkpt lat="47.77629" lon="-3.57444">
        <ele>-17.44</ele>
        <time>2019-07-14T09:47:24Z</time>
      </trkpt>
      <trkpt lat="47.77628" lon="-3.57455">
        <ele>-17.63</ele>
        <time>2019-07-14T09:47:25Z</time>
      </trkpt>
      <trkpt lat="47.77627" lon="-3.57466">
        <ele>-18.04</ele>
        <time>2019-07-14T09:47:26Z</time>
      </trkpt>
      <trkpt lat="47.77627" lon="-3.57477">
        <ele>-18.44</ele>
        <time>2019-07-14T09:47:27Z</time>
      </trkpt>
      <trkpt lat="47.77625" lon="-3.57487">
        <ele>-18.77</ele>
        <time>2019-07-14T09:47:28Z</time>
      </trkpt>
      <trkpt lat="47.77625" lon="-3.57496">
        <ele>-18.8</ele>
        <time>2019-07-14T09:47:29Z</time>
      </trkpt>
      <trkpt lat="47.77624" lon="-3.57504">
        <ele>-18.81</ele>
        <time>2019-07-14T09:47:30Z</time>
      </trkpt>
      <trkpt lat="47.77625" lon="-3.57512">
        <ele>-18.81</ele>
        <time>2019-07-14T09:47:31Z</time>
      </trkpt>
      <trkpt lat="47.77624" lon="-3.57524">
        <ele>-18.67</ele>
        <time>2019-07-14T09:47:33Z</time>
      </trkpt>
      <trkpt lat="47.77623" lon="-3.57535">
        <ele>-18.96</ele>
        <time>2019-07-14T09:47:35Z</time>
      </trkpt>
      <trkpt lat="47.77622" lon="-3.57546">
        <ele>-18.98</ele>
        <time>2019-07-14T09:47:37Z</time>
      </trkpt>
      <trkpt lat="47.77622" lon="-3.57558">
        <ele>-18.51</ele>
        <time>2019-07-14T09:47:39Z</time>
      </trkpt>
      <trkpt lat="47.77621" lon="-3.57571">
        <ele>-17.69</ele>
        <time>2019-07-14T09:47:41Z</time>
      </trkpt>
      <trkpt lat="47.7762" lon="-3.57578">
        <ele>-17.28</ele>
        <time>2019-07-14T09:47:42Z</time>
      </trkpt>
      <trkpt lat="47.77619" lon="-3.57585">
        <ele>-16.95</ele>
        <time>2019-07-14T09:47:43Z</time>
      </trkpt>
      <trkpt lat="47.77619" lon="-3.57592">
        <ele>-16.64</ele>
        <time>2019-07-14T09:47:44Z</time>
      </trkpt>
      <trkpt lat="47.77619" lon="-3.576">
        <ele>-16.41</ele>
        <time>2019-07-14T09:47:45Z</time>
      </trkpt>
      <trkpt lat="47.77618" lon="-3.57608">
        <ele>-16.2</ele>
        <time>2019-07-14T09:47:46Z</time>
      </trkpt>
      <trkpt lat="47.77618" lon="-3.57616">
        <ele>-16.21</ele>
        <time>2019-07-14T09:47:47Z</time>
      </trkpt>
      <trkpt lat="47.77619" lon="-3.57625">
        <ele>-16.91</ele>
        <time>2019-07-14T09:47:48Z</time>
      </trkpt>
      <trkpt lat="47.7762" lon="-3.57634">
        <ele>-17.33</ele>
        <time>2019-07-14T09:47:49Z</time>
      </trkpt>
      <trkpt lat="47.77622" lon="-3.57644">
        <ele>-17.6</ele>
        <time>2019-07-14T09:47:50Z</time>
      </trkpt>
      <trkpt lat="47.77624" lon="-3.57652">
        <ele>-17.89</ele>
        <time>2019-07-14T09:47:51Z</time>
      </trkpt>
      <trkpt lat="47.77625" lon="-3.57662">
        <ele>-18.04</ele>
        <time>2019-07-14T09:47:52Z</time>
      </trkpt>
      <trkpt lat="47.77627" lon="-3.57673">
        <ele>-18.44</ele>
        <time>2019-07-14T09:47:53Z</time>
      </trkpt>
      <trkpt lat="47.77629" lon="-3.57684">
        <ele>-19.19</ele>
        <time>2019-07-14T09:47:54Z</time>
      </trkpt>
      <trkpt lat="47.77631" lon="-3.57695">
        <ele>-19.91</ele>
        <time>2019-07-14T09:47:55Z</time>
      </trkpt>
      <trkpt lat="47.77634" lon="-3.57707">
        <ele>-20.89</ele>
        <time>2019-07-14T09:47:56Z</time>
      </trkpt>
      <trkpt lat="47.77635" lon="-3.5772">
        <ele>-22.24</ele>
        <time>2019-07-14T09:47:57Z</time>
      </trkpt>
      <trkpt lat="47.77637" lon="-3.57734">
        <ele>-23.41</ele>
        <time>2019-07-14T09:47:58Z</time>
      </trkpt>
      <trkpt lat="47.77638" lon="-3.57747">
        <ele>-23.97</ele>
        <time>2019-07-14T09:47:59Z</time>
      </trkpt>
      <trkpt lat="47.7764" lon="-3.57765">
        <ele>-24.35</ele>
        <time>2019-07-14T09:48:00Z</time>
      </trkpt>
      <trkpt lat="47.77641" lon="-3.57778">
        <ele>-24.39</ele>
        <time>2019-07-14T09:48:01Z</time>
      </trkpt>
      <trkpt lat="47.77642" lon="-3.57791">
        <ele>-23.85</ele>
        <time>2019-07-14T09:48:02Z</time>
      </trkpt>
      <trkpt lat="47.77643" lon="-3.57804">
        <ele>-22.63</ele>
        <time>2019-07-14T09:48:03Z</time>
      </trkpt>
      <trkpt lat="47.77643" lon="-3.57819">
        <ele>-23.32</ele>
        <time>2019-07-14T09:48:04Z</time>
      </trkpt>
      <trkpt lat="47.77639" lon="-3.57834">
        <ele>-22.47</ele>
        <time>2019-07-14T09:48:05Z</time>
      </trkpt>
      <trkpt lat="47.77643" lon="-3.57841">
        <ele>-21.03</ele>
        <time>2019-07-14T09:48:06Z</time>
      </trkpt>
      <trkpt lat="47.77639" lon="-3.57854">
        <ele>-21.72</ele>
        <time>2019-07-14T09:48:07Z</time>
      </trkpt>
      <trkpt lat="47.77635" lon="-3.57865">
        <ele>-21.85</ele>
        <time>2019-07-14T09:48:08Z</time>
      </trkpt>
      <trkpt lat="47.77632" lon="-3.57872">
        <ele>-21.54</ele>
        <time>2019-07-14T09:48:09Z</time>
      </trkpt>
      <trkpt lat="47.77631" lon="-3.57878">
        <ele>-20.96</ele>
        <time>2019-07-14T09:48:10Z</time>
      </trkpt>
      <trkpt lat="47.7763" lon="-3.57889">
        <ele>-19.86</ele>
        <time>2019-07-14T09:48:12Z</time>
      </trkpt>
      <trkpt lat="47.7763" lon="-3.57898">
        <ele>-19.43</ele>
        <time>2019-07-14T09:48:14Z</time>
      </trkpt>
      <trkpt lat="47.7763" lon="-3.57908">
        <ele>-19.43</ele>
        <time>2019-07-14T09:48:16Z</time>
      </trkpt>
      <trkpt lat="47.77631" lon="-3.5792">
        <ele>-19.25</ele>
        <time>2019-07-14T09:48:18Z</time>
      </trkpt>
      <trkpt lat="47.77632" lon="-3.5793">
        <ele>-18.33</ele>
        <time>2019-07-14T09:48:20Z</time>
      </trkpt>
      <trkpt lat="47.77634" lon="-3.5794">
        <ele>-18.57</ele>
        <time>2019-07-14T09:48:22Z</time>
      </trkpt>
      <trkpt lat="47.77637" lon="-3.57951">
        <ele>-19.28</ele>
        <time>2019-07-14T09:48:24Z</time>
      </trkpt>
      <trkpt lat="47.77641" lon="-3.57962">
        <ele>-19.62</ele>
        <time>2019-07-14T09:48:26Z</time>
      </trkpt>
      <trkpt lat="47.77647" lon="-3.57973">
        <ele>-20.31</ele>
        <time>2019-07-14T09:48:28Z</time>
      </trkpt>
      <trkpt lat="47.77652" lon="-3.57984">
        <ele>-20.26</ele>
        <time>2019-07-14T09:48:30Z</time>
      </trkpt>
      <trkpt lat="47.77657" lon="-3.57993">
        <ele>-19.52</ele>
        <time>2019-07-14T09:48:32Z</time>
      </trkpt>
      <trkpt lat="47.77662" lon="-3.58002">
        <ele>-17.74</ele>
        <time>2019-07-14T09:48:34Z</time>
      </trkpt>
      <trkpt lat="47.77669" lon="-3.58">
        <ele>-16.59</ele>
        <time>2019-07-14T09:48:36Z</time>
      </trkpt>
      <trkpt lat="47.77671" lon="-3.57993">
        <ele>-15.39</ele>
        <time>2019-07-14T09:48:38Z</time>
      </trkpt>
      <trkpt lat="47.7767" lon="-3.57983">
        <ele>-14.05</ele>
        <time>2019-07-14T09:48:40Z</time>
      </trkpt>
      <trkpt lat="47.7767" lon="-3.57971">
        <ele>-12.87</ele>
        <time>2019-07-14T09:48:42Z</time>
      </trkpt>
      <trkpt lat="47.7767" lon="-3.57957">
        <ele>-11.76</ele>
        <time>2019-07-14T09:48:44Z</time>
      </trkpt>
      <trkpt lat="47.77671" lon="-3.5795">
        <ele>-11.31</ele>
        <time>2019-07-14T09:48:45Z</time>
      </trkpt>
      <trkpt lat="47.77671" lon="-3.57944">
        <ele>-11.45</ele>
        <time>2019-07-14T09:48:46Z</time>
      </trkpt>
      <trkpt lat="47.77673" lon="-3.57937">
        <ele>-11.91</ele>
        <time>2019-07-14T09:48:47Z</time>
      </trkpt>
      <trkpt lat="47.77675" lon="-3.5793">
        <ele>-12.33</ele>
        <time>2019-07-14T09:48:48Z</time>
      </trkpt>
      <trkpt lat="47.77678" lon="-3.57924">
        <ele>-13.02</ele>
        <time>2019-07-14T09:48:49Z</time>
      </trkpt>
      <trkpt lat="47.77682" lon="-3.57918">
        <ele>-13.57</ele>
        <time>2019-07-14T09:48:50Z</time>
      </trkpt>
      <trkpt lat="47.77686" lon="-3.57912">
        <ele>-14.23</ele>
        <time>2019-07-14T09:48:51Z</time>
      </trkpt>
      <trkpt lat="47.77688" lon="-3.57905">
        <ele>-14.99</ele>
        <time>2019-07-14T09:48:52Z</time>
      </trkpt>
      <trkpt lat="47.77694" lon="-3.57898">
        <ele>-15.11</ele>
        <time>2019-07-14T09:48:54Z</time>
      </trkpt>
      <trkpt lat="47.77701" lon="-3.579">
        <ele>-14.86</ele>
        <time>2019-07-14T09:48:56Z</time>
      </trkpt>
      <trkpt lat="47.77706" lon="-3.57905">
        <ele>-14.63</ele>
        <time>2019-07-14T09:48:58Z</time>
      </trkpt>
      <trkpt lat="47.77713" lon="-3.57911">
        <ele>-15.33</ele>
        <time>2019-07-14T09:49:00Z</time>
      </trkpt>
      <trkpt lat="47.7772" lon="-3.57916">
        <ele>-15.5</ele>
        <time>2019-07-14T09:49:02Z</time>
      </trkpt>
      <trkpt lat="47.77728" lon="-3.57923">
        <ele>-16.52</ele>
        <time>2019-07-14T09:49:04Z</time>
      </trkpt>
      <trkpt lat="47.77733" lon="-3.57926">
        <ele>-16.79</ele>
        <time>2019-07-14T09:49:05Z</time>
      </trkpt>
      <trkpt lat="47.77737" lon="-3.57929">
        <ele>-17.02</ele>
        <time>2019-07-14T09:49:06Z</time>
      </trkpt>
      <trkpt lat="47.77745" lon="-3.57931">
        <ele>-16.96</ele>
        <time>2019-07-14T09:49:08Z</time>
      </trkpt>
      <trkpt lat="47.77752" lon="-3.57933">
        <ele>-16.48</ele>
        <time>2019-07-14T09:49:10Z</time>
      </trkpt>
      <trkpt lat="47.77759" lon="-3.57934">
        <ele>-16.31</ele>
        <time>2019-07-14T09:49:12Z</time>
      </trkpt>
      <trkpt lat="47.77766" lon="-3.57937">
        <ele>-16.56</ele>
        <time>2019-07-14T09:49:14Z</time>
      </trkpt>
      <trkpt lat="47.77773" lon="-3.5794">
        <ele>-16.31</ele>
        <time>2019-07-14T09:49:16Z</time>
      </trkpt>
      <trkpt lat="47.7778" lon="-3.57945">
        <ele>-15.9</ele>
        <time>2019-07-14T09:49:18Z</time>
      </trkpt>
      <trkpt lat="47.77786" lon="-3.57952">
        <ele>-15.5</ele>
        <time>2019-07-14T09:49:20Z</time>
      </trkpt>
      <trkpt lat="47.77793" lon="-3.5796">
        <ele>-14.98</ele>
        <time>2019-07-14T09:49:22Z</time>
      </trkpt>
      <trkpt lat="47.77799" lon="-3.57967">
        <ele>-13.95</ele>
        <time>2019-07-14T09:49:24Z</time>
      </trkpt>
      <trkpt lat="47.77804" lon="-3.57976">
        <ele>-13.47</ele>
        <time>2019-07-14T09:49:27Z</time>
      </trkpt>
      <trkpt lat="47.7781" lon="-3.57982">
        <ele>-13.62</ele>
        <time>2019-07-14T09:49:29Z</time>
      </trkpt>
      <trkpt lat="47.77814" lon="-3.57985">
        <ele>-13.54</ele>
        <time>2019-07-14T09:49:30Z</time>
      </trkpt>
      <trkpt lat="47.77819" lon="-3.57989">
        <ele>-13.45</ele>
        <time>2019-07-14T09:49:31Z</time>
      </trkpt>
      <trkpt lat="47.77823" lon="-3.57993">
        <ele>-13.28</ele>
        <time>2019-07-14T09:49:32Z</time>
      </trkpt>
      <trkpt lat="47.77831" lon="-3.57999">
        <ele>-13.75</ele>
        <time>2019-07-14T09:49:34Z</time>
      </trkpt>
      <trkpt lat="47.77835" lon="-3.58001">
        <ele>-13.79</ele>
        <time>2019-07-14T09:49:35Z</time>
      </trkpt>
      <trkpt lat="47.7784" lon="-3.58003">
        <ele>-13.67</ele>
        <time>2019-07-14T09:49:36Z</time>
      </trkpt>
      <trkpt lat="47.77845" lon="-3.58006">
        <ele>-13.49</ele>
        <time>2019-07-14T09:49:37Z</time>
      </trkpt>
      <trkpt lat="47.7785" lon="-3.58006">
        <ele>-13.64</ele>
        <time>2019-07-14T09:49:38Z</time>
      </trkpt>
      <trkpt lat="47.77855" lon="-3.58007">
        <ele>-13.55</ele>
        <time>2019-07-14T09:49:39Z</time>
      </trkpt>
      <trkpt lat="47.7786" lon="-3.58008">
        <ele>-13.17</ele>
        <time>2019-07-14T09:49:40Z</time>
      </trkpt>
      <trkpt lat="47.77865" lon="-3.58009">
        <ele>-13.34</ele>
        <time>2019-07-14T09:49:41Z</time>
      </trkpt>
      <trkpt lat="47.7787" lon="-3.58011">
        <ele>-13.46</ele>
        <time>2019-07-14T09:49:42Z</time>
      </trkpt>
      <trkpt lat="47.77875" lon="-3.58014">
        <ele>-13.01</ele>
        <time>2019-07-14T09:49:43Z</time>
      </trkpt>
      <trkpt lat="47.7788" lon="-3.58017">
        <ele>-12.8</ele>
        <time>2019-07-14T09:49:44Z</time>
      </trkpt>
      <trkpt lat="47.77885" lon="-3.5802">
        <ele>-11.97</ele>
        <time>2019-07-14T09:49:45Z</time>
      </trkpt>
      <trkpt lat="47.7789" lon="-3.58022">
        <ele>-11.37</ele>
        <time>2019-07-14T09:49:46Z</time>
      </trkpt>
      <trkpt lat="47.77896" lon="-3.58024">
        <ele>-10.63</ele>
        <time>2019-07-14T09:49:47Z</time>
      </trkpt>
      <trkpt lat="47.779" lon="-3.58026">
        <ele>-10.2</ele>
        <time>2019-07-14T09:49:48Z</time>
      </trkpt>
      <trkpt lat="47.77908" lon="-3.5803">
        <ele>-9.06</ele>
        <time>2019-07-14T09:49:50Z</time>
      </trkpt>
      <trkpt lat="47.77911" lon="-3.58037">
        <ele>-7.25</ele>
        <time>2019-07-14T09:49:52Z</time>
      </trkpt>
      <trkpt lat="47.77908" lon="-3.58045">
        <ele>-7.29</ele>
        <time>2019-07-14T09:49:54Z</time>
      </trkpt>
      <trkpt lat="47.77904" lon="-3.58055">
        <ele>-7.14</ele>
        <time>2019-07-14T09:49:56Z</time>
      </trkpt>
      <trkpt lat="47.779" lon="-3.58065">
        <ele>-7.28</ele>
        <time>2019-07-14T09:49:58Z</time>
      </trkpt>
      <trkpt lat="47.77899" lon="-3.58072">
        <ele>-7.44</ele>
        <time>2019-07-14T09:49:59Z</time>
      </trkpt>
      <trkpt lat="47.77897" lon="-3.58079">
        <ele>-7.7</ele>
        <time>2019-07-14T09:50:00Z</time>
      </trkpt>
      <trkpt lat="47.77895" lon="-3.58086">
        <ele>-8.34</ele>
        <time>2019-07-14T09:50:01Z</time>
      </trkpt>
      <trkpt lat="47.77894" lon="-3.58093">
        <ele>-8.88</ele>
        <time>2019-07-14T09:50:02Z</time>
      </trkpt>
      <trkpt lat="47.77893" lon="-3.58101">
        <ele>-9.74</ele>
        <time>2019-07-14T09:50:03Z</time>
      </trkpt>
      <trkpt lat="47.77891" lon="-3.58109">
        <ele>-11.05</ele>
        <time>2019-07-14T09:50:04Z</time>
      </trkpt>
      <trkpt lat="47.7789" lon="-3.58117">
        <ele>-12.42</ele>
        <time>2019-07-14T09:50:05Z</time>
      </trkpt>
      <trkpt lat="47.77889" lon="-3.58125">
        <ele>-13.61</ele>
        <time>2019-07-14T09:50:06Z</time>
      </trkpt>
      <trkpt lat="47.77887" lon="-3.58134">
        <ele>-14.8</ele>
        <time>2019-07-14T09:50:07Z</time>
      </trkpt>
      <trkpt lat="47.77886" lon="-3.58142">
        <ele>-15.72</ele>
        <time>2019-07-14T09:50:08Z</time>
      </trkpt>
      <trkpt lat="47.77885" lon="-3.5815">
        <ele>-16.34</ele>
        <time>2019-07-14T09:50:09Z</time>
      </trkpt>
      <trkpt lat="47.77883" lon="-3.58159">
        <ele>-16.74</ele>
        <time>2019-07-14T09:50:10Z</time>
      </trkpt>
      <trkpt lat="47.77882" lon="-3.58167">
        <ele>-17.07</ele>
        <time>2019-07-14T09:50:11Z</time>
      </trkpt>
      <trkpt lat="47.77881" lon="-3.58174">
        <ele>-17.45</ele>
        <time>2019-07-14T09:50:12Z</time>
      </trkpt>
      <trkpt lat="47.7788" lon="-3.58182">
        <ele>-17.28</ele>
        <time>2019-07-14T09:50:13Z</time>
      </trkpt>
      <trkpt lat="47.77879" lon="-3.5819">
        <ele>-17.23</ele>
        <time>2019-07-14T09:50:14Z</time>
      </trkpt>
      <trkpt lat="47.77878" lon="-3.58197">
        <ele>-16.8</ele>
        <time>2019-07-14T09:50:15Z</time>
      </trkpt>
      <trkpt lat="47.77877" lon="-3.58205">
        <ele>-16.6</ele>
        <time>2019-07-14T09:50:16Z</time>
      </trkpt>
      <trkpt lat="47.77876" lon="-3.58212">
        <ele>-16.26</ele>
        <time>2019-07-14T09:50:17Z</time>
      </trkpt>
      <trkpt lat="47.77875" lon="-3.5822">
        <ele>-15.88</ele>
        <time>2019-07-14T09:50:18Z</time>
      </trkpt>
      <trkpt lat="47.77874" lon="-3.58227">
        <ele>-15.62</ele>
        <time>2019-07-14T09:50:19Z</time>
      </trkpt>
      <trkpt lat="47.77874" lon="-3.58234">
        <ele>-15.12</ele>
        <time>2019-07-14T09:50:20Z</time>
      </trkpt>
      <trkpt lat="47.77873" lon="-3.58242">
        <ele>-14.84</ele>
        <time>2019-07-14T09:50:21Z</time>
      </trkpt>
      <trkpt lat="47.77872" lon="-3.58249">
        <ele>-14.4</ele>
        <time>2019-07-14T09:50:22Z</time>
      </trkpt>
      <trkpt lat="47.77871" lon="-3.58256">
        <ele>-14.41</ele>
        <time>2019-07-14T09:50:23Z</time>
      </trkpt>
      <trkpt lat="47.77869" lon="-3.58262">
        <ele>-14.48</ele>
        <time>2019-07-14T09:50:24Z</time>
      </trkpt>
      <trkpt lat="47.77866" lon="-3.58269">
        <ele>-14.36</ele>
        <time>2019-07-14T09:50:25Z</time>
      </trkpt>
      <trkpt lat="47.77864" lon="-3.58275">
        <ele>-14.26</ele>
        <time>2019-07-14T09:50:26Z</time>
      </trkpt>
      <trkpt lat="47.77861" lon="-3.58282">
        <ele>-13.74</ele>
        <time>2019-07-14T09:50:27Z</time>
      </trkpt>
      <trkpt lat="47.77858" lon="-3.58293">
        <ele>-12.94</ele>
        <time>2019-07-14T09:50:29Z</time>
      </trkpt>
      <trkpt lat="47.77854" lon="-3.583">
        <ele>-12.34</ele>
        <time>2019-07-14T09:50:31Z</time>
      </trkpt>
      <trkpt lat="47.77847" lon="-3.58304">
        <ele>-12.03</ele>
        <time>2019-07-14T09:50:33Z</time>
      </trkpt>
      <trkpt lat="47.77841" lon="-3.58314">
        <ele>-11.55</ele>
        <time>2019-07-14T09:50:35Z</time>
      </trkpt>
      <trkpt lat="47.77839" lon="-3.5832">
        <ele>-11.1</ele>
        <time>2019-07-14T09:50:36Z</time>
      </trkpt>
      <trkpt lat="47.77839" lon="-3.58334">
        <ele>-10.12</ele>
        <time>2019-07-14T09:50:38Z</time>
      </trkpt>
      <trkpt lat="47.77839" lon="-3.58342">
        <ele>-9.91</ele>
        <time>2019-07-14T09:50:39Z</time>
      </trkpt>
      <trkpt lat="47.77839" lon="-3.58351">
        <ele>-9.98</ele>
        <time>2019-07-14T09:50:40Z</time>
      </trkpt>
      <trkpt lat="47.7784" lon="-3.58359">
        <ele>-10.14</ele>
        <time>2019-07-14T09:50:41Z</time>
      </trkpt>
      <trkpt lat="47.7784" lon="-3.58368">
        <ele>-9.84</ele>
        <time>2019-07-14T09:50:42Z</time>
      </trkpt>
      <trkpt lat="47.77841" lon="-3.58377">
        <ele>-9.33</ele>
        <time>2019-07-14T09:50:43Z</time>
      </trkpt>
      <trkpt lat="47.77841" lon="-3.58385">
        <ele>-9.18</ele>
        <time>2019-07-14T09:50:44Z</time>
      </trkpt>
      <trkpt lat="47.77842" lon="-3.58395">
        <ele>-9.13</ele>
        <time>2019-07-14T09:50:45Z</time>
      </trkpt>
      <trkpt lat="47.77843" lon="-3.58404">
        <ele>-8.84</ele>
        <time>2019-07-14T09:50:46Z</time>
      </trkpt>
      <trkpt lat="47.77844" lon="-3.58413">
        <ele>-8.89</ele>
        <time>2019-07-14T09:50:47Z</time>
      </trkpt>
      <trkpt lat="47.77845" lon="-3.58422">
        <ele>-8.98</ele>
        <time>2019-07-14T09:50:48Z</time>
      </trkpt>
      <trkpt lat="47.77845" lon="-3.58431">
        <ele>-9.14</ele>
        <time>2019-07-14T09:50:49Z</time>
      </trkpt>
      <trkpt lat="47.77846" lon="-3.5844">
        <ele>-9.4</ele>
        <time>2019-07-14T09:50:50Z</time>
      </trkpt>
      <trkpt lat="47.77847" lon="-3.58449">
        <ele>-9.9</ele>
        <time>2019-07-14T09:50:51Z</time>
      </trkpt>
      <trkpt lat="47.77848" lon="-3.58459">
        <ele>-10.4</ele>
        <time>2019-07-14T09:50:52Z</time>
      </trkpt>
      <trkpt lat="47.77849" lon="-3.58469">
        <ele>-10.9</ele>
        <time>2019-07-14T09:50:53Z</time>
      </trkpt>
      <trkpt lat="47.7785" lon="-3.58479">
        <ele>-11.33</ele>
        <time>2019-07-14T09:50:54Z</time>
      </trkpt>
      <trkpt lat="47.77852" lon="-3.5849">
        <ele>-12.09</ele>
        <time>2019-07-14T09:50:55Z</time>
      </trkpt>
      <trkpt lat="47.77854" lon="-3.58501">
        <ele>-13.22</ele>
        <time>2019-07-14T09:50:56Z</time>
      </trkpt>
      <trkpt lat="47.77857" lon="-3.58511">
        <ele>-14.06</ele>
        <time>2019-07-14T09:50:57Z</time>
      </trkpt>
      <trkpt lat="47.7786" lon="-3.58521">
        <ele>-14.87</ele>
        <time>2019-07-14T09:50:58Z</time>
      </trkpt>
      <trkpt lat="47.77862" lon="-3.58532">
        <ele>-15.81</ele>
        <time>2019-07-14T09:50:59Z</time>
      </trkpt>
      <trkpt lat="47.77864" lon="-3.58542">
        <ele>-16.51</ele>
        <time>2019-07-14T09:51:00Z</time>
      </trkpt>
      <trkpt lat="47.77866" lon="-3.58553">
        <ele>-16.93</ele>
        <time>2019-07-14T09:51:01Z</time>
      </trkpt>
      <trkpt lat="47.77868" lon="-3.58564">
        <ele>-17.41</ele>
        <time>2019-07-14T09:51:02Z</time>
      </trkpt>
      <trkpt lat="47.7787" lon="-3.58575">
        <ele>-17.9</ele>
        <time>2019-07-14T09:51:03Z</time>
      </trkpt>
      <trkpt lat="47.77871" lon="-3.58585">
        <ele>-18.26</ele>
        <time>2019-07-14T09:51:04Z</time>
      </trkpt>
      <trkpt lat="47.77871" lon="-3.58594">
        <ele>-18.93</ele>
        <time>2019-07-14T09:51:05Z</time>
      </trkpt>
      <trkpt lat="47.77869" lon="-3.58601">
        <ele>-19.48</ele>
        <time>2019-07-14T09:51:06Z</time>
      </trkpt>
      <trkpt lat="47.77865" lon="-3.58607">
        <ele>-19.92</ele>
        <time>2019-07-14T09:51:07Z</time>
      </trkpt>
      <trkpt lat="47.7786" lon="-3.58609">
        <ele>-20.19</ele>
        <time>2019-07-14T09:51:08Z</time>
      </trkpt>
      <trkpt lat="47.77853" lon="-3.58609">
        <ele>-20.35</ele>
        <time>2019-07-14T09:51:09Z</time>
      </trkpt>
      <trkpt lat="47.77847" lon="-3.58611">
        <ele>-20.18</ele>
        <time>2019-07-14T09:51:10Z</time>
      </trkpt>
      <trkpt lat="47.7784" lon="-3.58612">
        <ele>-20.13</ele>
        <time>2019-07-14T09:51:11Z</time>
      </trkpt>
      <trkpt lat="47.77834" lon="-3.58613">
        <ele>-20.05</ele>
        <time>2019-07-14T09:51:12Z</time>
      </trkpt>
      <trkpt lat="47.77828" lon="-3.58615">
        <ele>-20.23</ele>
        <time>2019-07-14T09:51:13Z</time>
      </trkpt>
      <trkpt lat="47.77821" lon="-3.58617">
        <ele>-20.64</ele>
        <time>2019-07-14T09:51:14Z</time>
      </trkpt>
      <trkpt lat="47.77815" lon="-3.58617">
        <ele>-20.97</ele>
        <time>2019-07-14T09:51:15Z</time>
      </trkpt>
      <trkpt lat="47.77809" lon="-3.58616">
        <ele>-21.42</ele>
        <time>2019-07-14T09:51:16Z</time>
      </trkpt>
      <trkpt lat="47.77803" lon="-3.58614">
        <ele>-21.69</ele>
        <time>2019-07-14T09:51:17Z</time>
      </trkpt>
      <trkpt lat="47.77797" lon="-3.58611">
        <ele>-21.92</ele>
        <time>2019-07-14T09:51:18Z</time>
      </trkpt>
      <trkpt lat="47.77792" lon="-3.58609">
        <ele>-21.42</ele>
        <time>2019-07-14T09:51:19Z</time>
      </trkpt>
      <trkpt lat="47.77787" lon="-3.58599">
        <ele>-20.73</ele>
        <time>2019-07-14T09:51:21Z</time>
      </trkpt>
      <trkpt lat="47.7778" lon="-3.58591">
        <ele>-20.48</ele>
        <time>2019-07-14T09:51:23Z</time>
      </trkpt>
      <trkpt lat="47.77776" lon="-3.58589">
        <ele>-20.22</ele>
        <time>2019-07-14T09:51:24Z</time>
      </trkpt>
      <trkpt lat="47.77768" lon="-3.58585">
        <ele>-20.44</ele>
        <time>2019-07-14T09:51:26Z</time>
      </trkpt>
      <trkpt lat="47.77763" lon="-3.58584">
        <ele>-20.56</ele>
        <time>2019-07-14T09:51:27Z</time>
      </trkpt>
      <trkpt lat="47.77758" lon="-3.58582">
        <ele>-20.88</ele>
        <time>2019-07-14T09:51:28Z</time>
      </trkpt>
      <trkpt lat="47.77752" lon="-3.58582">
        <ele>-20.83</ele>
        <time>2019-07-14T09:51:29Z</time>
      </trkpt>
      <trkpt lat="47.77746" lon="-3.58581">
        <ele>-20.75</ele>
        <time>2019-07-14T09:51:30Z</time>
      </trkpt>
      <trkpt lat="47.7774" lon="-3.5858">
        <ele>-20.79</ele>
        <time>2019-07-14T09:51:31Z</time>
      </trkpt>
      <trkpt lat="47.77734" lon="-3.58579">
        <ele>-20.88</ele>
        <time>2019-07-14T09:51:32Z</time>
      </trkpt>
      <trkpt lat="47.77728" lon="-3.58578">
        <ele>-20.55</ele>
        <time>2019-07-14T09:51:33Z</time>
      </trkpt>
      <trkpt lat="47.77723" lon="-3.58576">
        <ele>-20.38</ele>
        <time>2019-07-14T09:51:34Z</time>
      </trkpt>
      <trkpt lat="47.77718" lon="-3.58575">
        <ele>-19.91</ele>
        <time>2019-07-14T09:51:35Z</time>
      </trkpt>
      <trkpt lat="47.77709" lon="-3.58572">
        <ele>-18.17</ele>
        <time>2019-07-14T09:51:37Z</time>
      </trkpt>
      <trkpt lat="47.77701" lon="-3.5857">
        <ele>-17.2</ele>
        <time>2019-07-14T09:51:39Z</time>
      </trkpt>
      <trkpt lat="47.77692" lon="-3.5857">
        <ele>-15.79</ele>
        <time>2019-07-14T09:51:41Z</time>
      </trkpt>
      <trkpt lat="47.77687" lon="-3.58571">
        <ele>-15.39</ele>
        <time>2019-07-14T09:51:42Z</time>
      </trkpt>
      <trkpt lat="47.77683" lon="-3.58572">
        <ele>-15.19</ele>
        <time>2019-07-14T09:51:43Z</time>
      </trkpt>
      <trkpt lat="47.77678" lon="-3.58573">
        <ele>-14.65</ele>
        <time>2019-07-14T09:51:44Z</time>
      </trkpt>
      <trkpt lat="47.77669" lon="-3.58574">
        <ele>-13.86</ele>
        <time>2019-07-14T09:51:46Z</time>
      </trkpt>
      <trkpt lat="47.77661" lon="-3.58575">
        <ele>-12.81</ele>
        <time>2019-07-14T09:51:48Z</time>
      </trkpt>
      <trkpt lat="47.77656" lon="-3.58576">
        <ele>-12.32</ele>
        <time>2019-07-14T09:51:49Z</time>
      </trkpt>
      <trkpt lat="47.77651" lon="-3.58577">
        <ele>-11.89</ele>
        <time>2019-07-14T09:51:50Z</time>
      </trkpt>
      <trkpt lat="47.77646" lon="-3.58577">
        <ele>-11.84</ele>
        <time>2019-07-14T09:51:51Z</time>
      </trkpt>
      <trkpt lat="47.77641" lon="-3.58578">
        <ele>-12.03</ele>
        <time>2019-07-14T09:51:52Z</time>
      </trkpt>
      <trkpt lat="47.77637" lon="-3.58578">
        <ele>-11.74</ele>
        <time>2019-07-14T09:51:53Z</time>
      </trkpt>
      <trkpt lat="47.77632" lon="-3.58579">
        <ele>-11.51</ele>
        <time>2019-07-14T09:51:54Z</time>
      </trkpt>
      <trkpt lat="47.77627" lon="-3.5858">
        <ele>-11.93</ele>
        <time>2019-07-14T09:51:55Z</time>
      </trkpt>
      <trkpt lat="47.77622" lon="-3.58581">
        <ele>-12.41</ele>
        <time>2019-07-14T09:51:56Z</time>
      </trkpt>
      <trkpt lat="47.77617" lon="-3.58582">
        <ele>-12.62</ele>
        <time>2019-07-14T09:51:57Z</time>
      </trkpt>
      <trkpt lat="47.77611" lon="-3.58582">
        <ele>-12.61</ele>
        <time>2019-07-14T09:51:58Z</time>
      </trkpt>
      <trkpt lat="47.77606" lon="-3.58583">
        <ele>-12.47</ele>
        <time>2019-07-14T09:51:59Z</time>
      </trkpt>
      <trkpt lat="47.77601" lon="-3.58584">
        <ele>-12.22</ele>
        <time>2019-07-14T09:52:00Z</time>
      </trkpt>
      <trkpt lat="47.77596" lon="-3.58584">
        <ele>-11.93</ele>
        <time>2019-07-14T09:52:01Z</time>
      </trkpt>
      <trkpt lat="47.77592" lon="-3.58585">
        <ele>-11.71</ele>
        <time>2019-07-14T09:52:02Z</time>
      </trkpt>
      <trkpt lat="47.77587" lon="-3.58585">
        <ele>-11.36</ele>
        <time>2019-07-14T09:52:03Z</time>
      </trkpt>
      <trkpt lat="47.77578" lon="-3.58586">
        <ele>-10.95</ele>
        <time>2019-07-14T09:52:05Z</time>
      </trkpt>
      <trkpt lat="47.77573" lon="-3.58586">
        <ele>-10.85</ele>
        <time>2019-07-14T09:52:06Z</time>
      </trkpt>
      <trkpt lat="47.77569" lon="-3.58587">
        <ele>-10.75</ele>
        <time>2019-07-14T09:52:07Z</time>
      </trkpt>
      <trkpt lat="47.77564" lon="-3.58588">
        <ele>-10.79</ele>
        <time>2019-07-14T09:52:08Z</time>
      </trkpt>
      <trkpt lat="47.77559" lon="-3.58588">
        <ele>-10.74</ele>
        <time>2019-07-14T09:52:09Z</time>
      </trkpt>
      <trkpt lat="47.7755" lon="-3.5859">
        <ele>-10.71</ele>
        <time>2019-07-14T09:52:11Z</time>
      </trkpt>
      <trkpt lat="47.77545" lon="-3.5859">
        <ele>-10.71</ele>
        <time>2019-07-14T09:52:12Z</time>
      </trkpt>
      <trkpt lat="47.7754" lon="-3.5859">
        <ele>-10.71</ele>
        <time>2019-07-14T09:52:13Z</time>
      </trkpt>
      <trkpt lat="47.77535" lon="-3.58589">
        <ele>-10.64</ele>
        <time>2019-07-14T09:52:14Z</time>
      </trkpt>
      <trkpt lat="47.77529" lon="-3.58589">
        <ele>-10.69</ele>
        <time>2019-07-14T09:52:15Z</time>
      </trkpt>
      <trkpt lat="47.77523" lon="-3.5859">
        <ele>-10.64</ele>
        <time>2019-07-14T09:52:16Z</time>
      </trkpt>
      <trkpt lat="47.77518" lon="-3.5859">
        <ele>-10.34</ele>
        <time>2019-07-14T09:52:17Z</time>
      </trkpt>
      <trkpt lat="47.77513" lon="-3.5859">
        <ele>-10.95</ele>
        <time>2019-07-14T09:52:18Z</time>
      </trkpt>
      <trkpt lat="47.77507" lon="-3.5859">
        <ele>-11.27</ele>
        <time>2019-07-14T09:52:19Z</time>
      </trkpt>
      <trkpt lat="47.77501" lon="-3.5859">
        <ele>-11.51</ele>
        <time>2019-07-14T09:52:20Z</time>
      </trkpt>
      <trkpt lat="47.77494" lon="-3.58589">
        <ele>-11.65</ele>
        <time>2019-07-14T09:52:21Z</time>
      </trkpt>
      <trkpt lat="47.77488" lon="-3.58588">
        <ele>-11.69</ele>
        <time>2019-07-14T09:52:22Z</time>
      </trkpt>
      <trkpt lat="47.77482" lon="-3.58587">
        <ele>-11.64</ele>
        <time>2019-07-14T09:52:23Z</time>
      </trkpt>
      <trkpt lat="47.77476" lon="-3.58586">
        <ele>-11.62</ele>
        <time>2019-07-14T09:52:24Z</time>
      </trkpt>
      <trkpt lat="47.7747" lon="-3.58585">
        <ele>-11.75</ele>
        <time>2019-07-14T09:52:25Z</time>
      </trkpt>
      <trkpt lat="47.77465" lon="-3.58584">
        <ele>-12.07</ele>
        <time>2019-07-14T09:52:26Z</time>
      </trkpt>
      <trkpt lat="47.77461" lon="-3.58582">
        <ele>-11.89</ele>
        <time>2019-07-14T09:52:27Z</time>
      </trkpt>
      <trkpt lat="47.77455" lon="-3.58585">
        <ele>-11.88</ele>
        <time>2019-07-14T09:52:29Z</time>
      </trkpt>
      <trkpt lat="47.77453" lon="-3.58599">
        <ele>-12</ele>
        <time>2019-07-14T09:52:31Z</time>
      </trkpt>
      <trkpt lat="47.77451" lon="-3.58606">
        <ele>-11.87</ele>
        <time>2019-07-14T09:52:32Z</time>
      </trkpt>
      <trkpt lat="47.7745" lon="-3.58614">
        <ele>-11.97</ele>
        <time>2019-07-14T09:52:33Z</time>
      </trkpt>
      <trkpt lat="47.77449" lon="-3.58621">
        <ele>-12</ele>
        <time>2019-07-14T09:52:34Z</time>
      </trkpt>
      <trkpt lat="47.77448" lon="-3.58629">
        <ele>-11.87</ele>
        <time>2019-07-14T09:52:35Z</time>
      </trkpt>
      <trkpt lat="47.77447" lon="-3.58637">
        <ele>-11.62</ele>
        <time>2019-07-14T09:52:36Z</time>
      </trkpt>
      <trkpt lat="47.77447" lon="-3.58645">
        <ele>-11.75</ele>
        <time>2019-07-14T09:52:37Z</time>
      </trkpt>
      <trkpt lat="47.77445" lon="-3.58653">
        <ele>-12.21</ele>
        <time>2019-07-14T09:52:38Z</time>
      </trkpt>
      <trkpt lat="47.77445" lon="-3.58662">
        <ele>-12.7</ele>
        <time>2019-07-14T09:52:39Z</time>
      </trkpt>
      <trkpt lat="47.77444" lon="-3.5867">
        <ele>-12.85</ele>
        <time>2019-07-14T09:52:40Z</time>
      </trkpt>
      <trkpt lat="47.77443" lon="-3.58678">
        <ele>-13.17</ele>
        <time>2019-07-14T09:52:41Z</time>
      </trkpt>
      <trkpt lat="47.77443" lon="-3.58686">
        <ele>-13.41</ele>
        <time>2019-07-14T09:52:42Z</time>
      </trkpt>
      <trkpt lat="47.77442" lon="-3.58695">
        <ele>-13.62</ele>
        <time>2019-07-14T09:52:43Z</time>
      </trkpt>
      <trkpt lat="47.77442" lon="-3.58703">
        <ele>-13.68</ele>
        <time>2019-07-14T09:52:44Z</time>
      </trkpt>
      <trkpt lat="47.77441" lon="-3.58712">
        <ele>-13.49</ele>
        <time>2019-07-14T09:52:45Z</time>
      </trkpt>
      <trkpt lat="47.77441" lon="-3.5872">
        <ele>-13.37</ele>
        <time>2019-07-14T09:52:46Z</time>
      </trkpt>
      <trkpt lat="47.77442" lon="-3.58728">
        <ele>-14.24</ele>
        <time>2019-07-14T09:52:47Z</time>
      </trkpt>
      <trkpt lat="47.77443" lon="-3.58737">
        <ele>-14.71</ele>
        <time>2019-07-14T09:52:48Z</time>
      </trkpt>
      <trkpt lat="47.77444" lon="-3.58745">
        <ele>-14.64</ele>
        <time>2019-07-14T09:52:49Z</time>
      </trkpt>
      <trkpt lat="47.77444" lon="-3.58754">
        <ele>-14.55</ele>
        <time>2019-07-14T09:52:50Z</time>
      </trkpt>
      <trkpt lat="47.77446" lon="-3.58763">
        <ele>-14.87</ele>
        <time>2019-07-14T09:52:51Z</time>
      </trkpt>
      <trkpt lat="47.77447" lon="-3.58771">
        <ele>-15.04</ele>
        <time>2019-07-14T09:52:52Z</time>
      </trkpt>
      <trkpt lat="47.77448" lon="-3.5878">
        <ele>-15.3</ele>
        <time>2019-07-14T09:52:53Z</time>
      </trkpt>
      <trkpt lat="47.77449" lon="-3.58789">
        <ele>-15.52</ele>
        <time>2019-07-14T09:52:54Z</time>
      </trkpt>
      <trkpt lat="47.7745" lon="-3.58798">
        <ele>-15.51</ele>
        <time>2019-07-14T09:52:55Z</time>
      </trkpt>
      <trkpt lat="47.77451" lon="-3.58807">
        <ele>-15.65</ele>
        <time>2019-07-14T09:52:56Z</time>
      </trkpt>
      <trkpt lat="47.77452" lon="-3.58817">
        <ele>-15.9</ele>
        <time>2019-07-14T09:52:57Z</time>
      </trkpt>
      <trkpt lat="47.77453" lon="-3.58826">
        <ele>-15.98</ele>
        <time>2019-07-14T09:52:58Z</time>
      </trkpt>
      <trkpt lat="47.77453" lon="-3.58836">
        <ele>-16.07</ele>
        <time>2019-07-14T09:52:59Z</time>
      </trkpt>
      <trkpt lat="47.77454" lon="-3.58845">
        <ele>-16.03</ele>
        <time>2019-07-14T09:53:00Z</time>
      </trkpt>
      <trkpt lat="47.77454" lon="-3.58854">
        <ele>-15.88</ele>
        <time>2019-07-14T09:53:01Z</time>
      </trkpt>
      <trkpt lat="47.77455" lon="-3.58863">
        <ele>-15.62</ele>
        <time>2019-07-14T09:53:02Z</time>
      </trkpt>
      <trkpt lat="47.77455" lon="-3.58871">
        <ele>-15.33</ele>
        <time>2019-07-14T09:53:03Z</time>
      </trkpt>
      <trkpt lat="47.77455" lon="-3.5888">
        <ele>-15.32</ele>
        <time>2019-07-14T09:53:04Z</time>
      </trkpt>
      <trkpt lat="47.77454" lon="-3.58888">
        <ele>-15.45</ele>
        <time>2019-07-14T09:53:05Z</time>
      </trkpt>
      <trkpt lat="47.77452" lon="-3.58895">
        <ele>-15.14</ele>
        <time>2019-07-14T09:53:06Z</time>
      </trkpt>
      <trkpt lat="47.77447" lon="-3.589">
        <ele>-14.56</ele>
        <time>2019-07-14T09:53:07Z</time>
      </trkpt>
      <trkpt lat="47.77442" lon="-3.58903">
        <ele>-14.18</ele>
        <time>2019-07-14T09:53:08Z</time>
      </trkpt>
      <trkpt lat="47.77436" lon="-3.58902">
        <ele>-13.78</ele>
        <time>2019-07-14T09:53:09Z</time>
      </trkpt>
      <trkpt lat="47.7743" lon="-3.58902">
        <ele>-13.38</ele>
        <time>2019-07-14T09:53:10Z</time>
      </trkpt>
      <trkpt lat="47.77424" lon="-3.58901">
        <ele>-13.4</ele>
        <time>2019-07-14T09:53:11Z</time>
      </trkpt>
      <trkpt lat="47.77417" lon="-3.58901">
        <ele>-13.55</ele>
        <time>2019-07-14T09:53:12Z</time>
      </trkpt>
      <trkpt lat="47.77411" lon="-3.58901">
        <ele>-14.01</ele>
        <time>2019-07-14T09:53:13Z</time>
      </trkpt>
      <trkpt lat="47.77403" lon="-3.58901">
        <ele>-14.5</ele>
        <time>2019-07-14T09:53:14Z</time>
      </trkpt>
      <trkpt lat="47.77396" lon="-3.58902">
        <ele>-15</ele>
        <time>2019-07-14T09:53:15Z</time>
      </trkpt>
      <trkpt lat="47.77388" lon="-3.58902">
        <ele>-15.29</ele>
        <time>2019-07-14T09:53:16Z</time>
      </trkpt>
      <trkpt lat="47.77381" lon="-3.58902">
        <ele>-15.37</ele>
        <time>2019-07-14T09:53:17Z</time>
      </trkpt>
      <trkpt lat="47.77373" lon="-3.58902">
        <ele>-15.54</ele>
        <time>2019-07-14T09:53:18Z</time>
      </trkpt>
      <trkpt lat="47.77365" lon="-3.58902">
        <ele>-15.87</ele>
        <time>2019-07-14T09:53:19Z</time>
      </trkpt>
      <trkpt lat="47.77358" lon="-3.58901">
        <ele>-16.74</ele>
        <time>2019-07-14T09:53:20Z</time>
      </trkpt>
      <trkpt lat="47.7735" lon="-3.589">
        <ele>-17.7</ele>
        <time>2019-07-14T09:53:21Z</time>
      </trkpt>
      <trkpt lat="47.77342" lon="-3.58897">
        <ele>-18.76</ele>
        <time>2019-07-14T09:53:22Z</time>
      </trkpt>
      <trkpt lat="47.77334" lon="-3.58895">
        <ele>-19.78</ele>
        <time>2019-07-14T09:53:23Z</time>
      </trkpt>
      <trkpt lat="47.77326" lon="-3.58893">
        <ele>-20.43</ele>
        <time>2019-07-14T09:53:24Z</time>
      </trkpt>
      <trkpt lat="47.77318" lon="-3.58892">
        <ele>-21.26</ele>
        <time>2019-07-14T09:53:25Z</time>
      </trkpt>
      <trkpt lat="47.77311" lon="-3.58891">
        <ele>-21.79</ele>
        <time>2019-07-14T09:53:26Z</time>
      </trkpt>
      <trkpt lat="47.77305" lon="-3.5889">
        <ele>-22.22</ele>
        <time>2019-07-14T09:53:27Z</time>
      </trkpt>
      <trkpt lat="47.77301" lon="-3.58888">
        <ele>-22.78</ele>
        <time>2019-07-14T09:53:28Z</time>
      </trkpt>
      <trkpt lat="47.77297" lon="-3.5888">
        <ele>-23.84</ele>
        <time>2019-07-14T09:53:30Z</time>
      </trkpt>
      <trkpt lat="47.77297" lon="-3.58871">
        <ele>-24.43</ele>
        <time>2019-07-14T09:53:32Z</time>
      </trkpt>
      <trkpt lat="47.77297" lon="-3.58862">
        <ele>-24.41</ele>
        <time>2019-07-14T09:53:34Z</time>
      </trkpt>
      <trkpt lat="47.77295" lon="-3.58855">
        <ele>-24.34</ele>
        <time>2019-07-14T09:53:35Z</time>
      </trkpt>
      <trkpt lat="47.77293" lon="-3.58849">
        <ele>-24.25</ele>
        <time>2019-07-14T09:53:36Z</time>
      </trkpt>
      <trkpt lat="47.7729" lon="-3.58844">
        <ele>-24.22</ele>
        <time>2019-07-14T09:53:37Z</time>
      </trkpt>
      <trkpt lat="47.77287" lon="-3.58839">
        <ele>-24.08</ele>
        <time>2019-07-14T09:53:38Z</time>
      </trkpt>
      <trkpt lat="47.77284" lon="-3.58833">
        <ele>-23.96</ele>
        <time>2019-07-14T09:53:39Z</time>
      </trkpt>
      <trkpt lat="47.7728" lon="-3.58829">
        <ele>-23.93</ele>
        <time>2019-07-14T09:53:40Z</time>
      </trkpt>
      <trkpt lat="47.77277" lon="-3.58824">
        <ele>-23.92</ele>
        <time>2019-07-14T09:53:41Z</time>
      </trkpt>
      <trkpt lat="47.77272" lon="-3.5882">
        <ele>-24.05</ele>
        <time>2019-07-14T09:53:42Z</time>
      </trkpt>
      <trkpt lat="47.77267" lon="-3.58817">
        <ele>-24.37</ele>
        <time>2019-07-14T09:53:43Z</time>
      </trkpt>
      <trkpt lat="47.77262" lon="-3.58815">
        <ele>-24.54</ele>
        <time>2019-07-14T09:53:44Z</time>
      </trkpt>
      <trkpt lat="47.77255" lon="-3.58811">
        <ele>-25.15</ele>
        <time>2019-07-14T09:53:45Z</time>
      </trkpt>
      <trkpt lat="47.77248" lon="-3.58806">
        <ele>-25.68</ele>
        <time>2019-07-14T09:53:46Z</time>
      </trkpt>
      <trkpt lat="47.77242" lon="-3.588">
        <ele>-25.98</ele>
        <time>2019-07-14T09:53:47Z</time>
      </trkpt>
      <trkpt lat="47.77236" lon="-3.58794">
        <ele>-26.14</ele>
        <time>2019-07-14T09:53:48Z</time>
      </trkpt>
      <trkpt lat="47.77229" lon="-3.58788">
        <ele>-26.26</ele>
        <time>2019-07-14T09:53:49Z</time>
      </trkpt>
      <trkpt lat="47.77222" lon="-3.58782">
        <ele>-26.51</ele>
        <time>2019-07-14T09:53:50Z</time>
      </trkpt>
      <trkpt lat="47.77214" lon="-3.58777">
        <ele>-26.93</ele>
        <time>2019-07-14T09:53:51Z</time>
      </trkpt>
      <trkpt lat="47.77207" lon="-3.58772">
        <ele>-27.2</ele>
        <time>2019-07-14T09:53:52Z</time>
      </trkpt>
      <trkpt lat="47.77199" lon="-3.58767">
        <ele>-27.42</ele>
        <time>2019-07-14T09:53:53Z</time>
      </trkpt>
      <trkpt lat="47.77193" lon="-3.58762">
        <ele>-27.69</ele>
        <time>2019-07-14T09:53:54Z</time>
      </trkpt>
      <trkpt lat="47.77187" lon="-3.58755">
        <ele>-27.71</ele>
        <time>2019-07-14T09:53:55Z</time>
      </trkpt>
      <trkpt lat="47.77181" lon="-3.58748">
        <ele>-27.57</ele>
        <time>2019-07-14T09:53:56Z</time>
      </trkpt>
      <trkpt lat="47.77175" lon="-3.58743">
        <ele>-27.32</ele>
        <time>2019-07-14T09:53:57Z</time>
      </trkpt>
      <trkpt lat="47.77169" lon="-3.58741">
        <ele>-27.17</ele>
        <time>2019-07-14T09:53:58Z</time>
      </trkpt>
      <trkpt lat="47.77163" lon="-3.58739">
        <ele>-27.13</ele>
        <time>2019-07-14T09:53:59Z</time>
      </trkpt>
      <trkpt lat="47.77157" lon="-3.58739">
        <ele>-27.12</ele>
        <time>2019-07-14T09:54:00Z</time>
      </trkpt>
      <trkpt lat="47.77151" lon="-3.5874">
        <ele>-27.11</ele>
        <time>2019-07-14T09:54:01Z</time>
      </trkpt>
      <trkpt lat="47.77144" lon="-3.58741">
        <ele>-26.97</ele>
        <time>2019-07-14T09:54:02Z</time>
      </trkpt>
      <trkpt lat="47.77137" lon="-3.58741">
        <ele>-27</ele>
        <time>2019-07-14T09:54:03Z</time>
      </trkpt>
      <trkpt lat="47.77131" lon="-3.58739">
        <ele>-27.08</ele>
        <time>2019-07-14T09:54:04Z</time>
      </trkpt>
      <trkpt lat="47.77127" lon="-3.58736">
        <ele>-27.45</ele>
        <time>2019-07-14T09:54:05Z</time>
      </trkpt>
      <trkpt lat="47.77121" lon="-3.58735">
        <ele>-27.63</ele>
        <time>2019-07-14T09:54:06Z</time>
      </trkpt>
      <trkpt lat="47.77115" lon="-3.58733">
        <ele>-27.69</ele>
        <time>2019-07-14T09:54:07Z</time>
      </trkpt>
      <trkpt lat="47.7711" lon="-3.58731">
        <ele>-27.84</ele>
        <time>2019-07-14T09:54:08Z</time>
      </trkpt>
      <trkpt lat="47.77103" lon="-3.58728">
        <ele>-27.96</ele>
        <time>2019-07-14T09:54:09Z</time>
      </trkpt>
      <trkpt lat="47.77098" lon="-3.58725">
        <ele>-28</ele>
        <time>2019-07-14T09:54:10Z</time>
      </trkpt>
      <trkpt lat="47.77093" lon="-3.58722">
        <ele>-27.87</ele>
        <time>2019-07-14T09:54:11Z</time>
      </trkpt>
      <trkpt lat="47.77088" lon="-3.58719">
        <ele>-27.83</ele>
        <time>2019-07-14T09:54:12Z</time>
      </trkpt>
      <trkpt lat="47.7708" lon="-3.58717">
        <ele>-27.31</ele>
        <time>2019-07-14T09:54:14Z</time>
      </trkpt>
      <trkpt lat="47.77074" lon="-3.58724">
        <ele>-27.31</ele>
        <time>2019-07-14T09:54:16Z</time>
      </trkpt>
      <trkpt lat="47.7707" lon="-3.58736">
        <ele>-26.94</ele>
        <time>2019-07-14T09:54:18Z</time>
      </trkpt>
      <trkpt lat="47.77065" lon="-3.58744">
        <ele>-26.59</ele>
        <time>2019-07-14T09:54:20Z</time>
      </trkpt>
      <trkpt lat="47.77059" lon="-3.58751">
        <ele>-26.29</ele>
        <time>2019-07-14T09:54:22Z</time>
      </trkpt>
      <trkpt lat="47.77053" lon="-3.58761">
        <ele>-26.11</ele>
        <time>2019-07-14T09:54:24Z</time>
      </trkpt>
      <trkpt lat="47.7705" lon="-3.58768">
        <ele>-26.46</ele>
        <time>2019-07-14T09:54:25Z</time>
      </trkpt>
      <trkpt lat="47.77047" lon="-3.58775">
        <ele>-26.78</ele>
        <time>2019-07-14T09:54:26Z</time>
      </trkpt>
      <trkpt lat="47.77041" lon="-3.58787">
        <ele>-27.17</ele>
        <time>2019-07-14T09:54:28Z</time>
      </trkpt>
      <trkpt lat="47.77037" lon="-3.58793">
        <ele>-27.06</ele>
        <time>2019-07-14T09:54:29Z</time>
      </trkpt>
      <trkpt lat="47.77034" lon="-3.58798">
        <ele>-26.82</ele>
        <time>2019-07-14T09:54:30Z</time>
      </trkpt>
      <trkpt lat="47.7703" lon="-3.58804">
        <ele>-26.74</ele>
        <time>2019-07-14T09:54:31Z</time>
      </trkpt>
      <trkpt lat="47.77026" lon="-3.5881">
        <ele>-26.58</ele>
        <time>2019-07-14T09:54:32Z</time>
      </trkpt>
      <trkpt lat="47.77018" lon="-3.58812">
        <ele>-26.36</ele>
        <time>2019-07-14T09:54:34Z</time>
      </trkpt>
      <trkpt lat="47.77008" lon="-3.58805">
        <ele>-26.46</ele>
        <time>2019-07-14T09:54:36Z</time>
      </trkpt>
      <trkpt lat="47.77002" lon="-3.58802">
        <ele>-26.78</ele>
        <time>2019-07-14T09:54:37Z</time>
      </trkpt>
      <trkpt lat="47.76996" lon="-3.58798">
        <ele>-27.22</ele>
        <time>2019-07-14T09:54:38Z</time>
      </trkpt>
      <trkpt lat="47.76989" lon="-3.58794">
        <ele>-27.91</ele>
        <time>2019-07-14T09:54:39Z</time>
      </trkpt>
      <trkpt lat="47.76983" lon="-3.58791">
        <ele>-28.89</ele>
        <time>2019-07-14T09:54:40Z</time>
      </trkpt>
      <trkpt lat="47.76976" lon="-3.58787">
        <ele>-30.1</ele>
        <time>2019-07-14T09:54:41Z</time>
      </trkpt>
      <trkpt lat="47.76969" lon="-3.58784">
        <ele>-30.81</ele>
        <time>2019-07-14T09:54:42Z</time>
      </trkpt>
      <trkpt lat="47.76961" lon="-3.5878">
        <ele>-31.79</ele>
        <time>2019-07-14T09:54:43Z</time>
      </trkpt>
      <trkpt lat="47.76953" lon="-3.58777">
        <ele>-33</ele>
        <time>2019-07-14T09:54:44Z</time>
      </trkpt>
      <trkpt lat="47.76945" lon="-3.58776">
        <ele>-34.34</ele>
        <time>2019-07-14T09:54:45Z</time>
      </trkpt>
      <trkpt lat="47.76938" lon="-3.58775">
        <ele>-35.65</ele>
        <time>2019-07-14T09:54:46Z</time>
      </trkpt>
      <trkpt lat="47.76932" lon="-3.58774">
        <ele>-36.74</ele>
        <time>2019-07-14T09:54:47Z</time>
      </trkpt>
      <trkpt lat="47.76926" lon="-3.58778">
        <ele>-38.6</ele>
        <time>2019-07-14T09:54:49Z</time>
      </trkpt>
      <trkpt lat="47.76924" lon="-3.58788">
        <ele>-39.33</ele>
        <time>2019-07-14T09:54:51Z</time>
      </trkpt>
      <trkpt lat="47.76927" lon="-3.58797">
        <ele>-40.64</ele>
        <time>2019-07-14T09:54:53Z</time>
      </trkpt>
      <trkpt lat="47.7693" lon="-3.58805">
        <ele>-41.12</ele>
        <time>2019-07-14T09:54:55Z</time>
      </trkpt>
      <trkpt lat="47.76933" lon="-3.5881">
        <ele>-41.83</ele>
        <time>2019-07-14T09:54:57Z</time>
      </trkpt>
      <trkpt lat="47.76935" lon="-3.58817">
        <ele>-41.83</ele>
        <time>2019-07-14T09:54:59Z</time>
      </trkpt>
      <trkpt lat="47.76937" lon="-3.58824">
        <ele>-43.56</ele>
        <time>2019-07-14T09:55:01Z</time>
      </trkpt>
      <trkpt lat="47.76937" lon="-3.58831">
        <ele>-43.71</ele>
        <time>2019-07-14T09:55:03Z</time>
      </trkpt>
      <trkpt lat="47.76938" lon="-3.58839">
        <ele>-42.54</ele>
        <time>2019-07-14T09:55:05Z</time>
      </trkpt>
      <trkpt lat="47.76939" lon="-3.58849">
        <ele>-41.53</ele>
        <time>2019-07-14T09:55:07Z</time>
      </trkpt>
      <trkpt lat="47.76939" lon="-3.58859">
        <ele>-39.77</ele>
        <time>2019-07-14T09:55:09Z</time>
      </trkpt>
      <trkpt lat="47.76939" lon="-3.58869">
        <ele>-38.57</ele>
        <time>2019-07-14T09:55:11Z</time>
      </trkpt>
      <trkpt lat="47.7694" lon="-3.5888">
        <ele>-37.57</ele>
        <time>2019-07-14T09:55:13Z</time>
      </trkpt>
      <trkpt lat="47.76942" lon="-3.58893">
        <ele>-37.43</ele>
        <time>2019-07-14T09:55:15Z</time>
      </trkpt>
      <trkpt lat="47.76943" lon="-3.58899">
        <ele>-37.77</ele>
        <time>2019-07-14T09:55:16Z</time>
      </trkpt>
      <trkpt lat="47.76945" lon="-3.58906">
        <ele>-38.08</ele>
        <time>2019-07-14T09:55:17Z</time>
      </trkpt>
      <trkpt lat="47.76946" lon="-3.58913">
        <ele>-38.59</ele>
        <time>2019-07-14T09:55:18Z</time>
      </trkpt>
      <trkpt lat="47.76948" lon="-3.5892">
        <ele>-38.82</ele>
        <time>2019-07-14T09:55:19Z</time>
      </trkpt>
      <trkpt lat="47.7695" lon="-3.58927">
        <ele>-38.88</ele>
        <time>2019-07-14T09:55:20Z</time>
      </trkpt>
      <trkpt lat="47.76952" lon="-3.58934">
        <ele>-38.83</ele>
        <time>2019-07-14T09:55:21Z</time>
      </trkpt>
      <trkpt lat="47.76954" lon="-3.5894">
        <ele>-38.96</ele>
        <time>2019-07-14T09:55:22Z</time>
      </trkpt>
      <trkpt lat="47.76958" lon="-3.58952">
        <ele>-38.41</ele>
        <time>2019-07-14T09:55:24Z</time>
      </trkpt>
      <trkpt lat="47.76961" lon="-3.58958">
        <ele>-38.2</ele>
        <time>2019-07-14T09:55:25Z</time>
      </trkpt>
      <trkpt lat="47.76963" lon="-3.58965">
        <ele>-38.28</ele>
        <time>2019-07-14T09:55:26Z</time>
      </trkpt>
      <trkpt lat="47.76966" lon="-3.58971">
        <ele>-38.02</ele>
        <time>2019-07-14T09:55:27Z</time>
      </trkpt>
      <trkpt lat="47.76969" lon="-3.58979">
        <ele>-38.37</ele>
        <time>2019-07-14T09:55:28Z</time>
      </trkpt>
      <trkpt lat="47.76972" lon="-3.58986">
        <ele>-38.26</ele>
        <time>2019-07-14T09:55:29Z</time>
      </trkpt>
      <trkpt lat="47.76975" lon="-3.58993">
        <ele>-37.04</ele>
        <time>2019-07-14T09:55:30Z</time>
      </trkpt>
      <trkpt lat="47.76977" lon="-3.59">
        <ele>-36.39</ele>
        <time>2019-07-14T09:55:31Z</time>
      </trkpt>
      <trkpt lat="47.7698" lon="-3.59007">
        <ele>-35.99</ele>
        <time>2019-07-14T09:55:32Z</time>
      </trkpt>
      <trkpt lat="47.76983" lon="-3.59014">
        <ele>-35.79</ele>
        <time>2019-07-14T09:55:33Z</time>
      </trkpt>
      <trkpt lat="47.76986" lon="-3.5902">
        <ele>-35.67</ele>
        <time>2019-07-14T09:55:34Z</time>
      </trkpt>
      <trkpt lat="47.76989" lon="-3.59028">
        <ele>-35.63</ele>
        <time>2019-07-14T09:55:35Z</time>
      </trkpt>
      <trkpt lat="47.76991" lon="-3.59035">
        <ele>-35.9</ele>
        <time>2019-07-14T09:55:36Z</time>
      </trkpt>
      <trkpt lat="47.76994" lon="-3.59043">
        <ele>-36.89</ele>
        <time>2019-07-14T09:55:37Z</time>
      </trkpt>
      <trkpt lat="47.76996" lon="-3.5905">
        <ele>-38.02</ele>
        <time>2019-07-14T09:55:38Z</time>
      </trkpt>
      <trkpt lat="47.76999" lon="-3.59059">
        <ele>-39.07</ele>
        <time>2019-07-14T09:55:39Z</time>
      </trkpt>
      <trkpt lat="47.77003" lon="-3.59067">
        <ele>-40.08</ele>
        <time>2019-07-14T09:55:40Z</time>
      </trkpt>
      <trkpt lat="47.77007" lon="-3.59074">
        <ele>-40.87</ele>
        <time>2019-07-14T09:55:41Z</time>
      </trkpt>
      <trkpt lat="47.77011" lon="-3.59081">
        <ele>-41.25</ele>
        <time>2019-07-14T09:55:42Z</time>
      </trkpt>
      <trkpt lat="47.77014" lon="-3.59088">
        <ele>-41.64</ele>
        <time>2019-07-14T09:55:43Z</time>
      </trkpt>
      <trkpt lat="47.77017" lon="-3.59093">
        <ele>-42.25</ele>
        <time>2019-07-14T09:55:44Z</time>
      </trkpt>
      <trkpt lat="47.77021" lon="-3.59099">
        <ele>-42.36</ele>
        <time>2019-07-14T09:55:45Z</time>
      </trkpt>
      <trkpt lat="47.77024" lon="-3.59104">
        <ele>-42.12</ele>
        <time>2019-07-14T09:55:46Z</time>
      </trkpt>
      <trkpt lat="47.77031" lon="-3.59111">
        <ele>-42.36</ele>
        <time>2019-07-14T09:55:48Z</time>
      </trkpt>
      <trkpt lat="47.77036" lon="-3.59114">
        <ele>-42.33</ele>
        <time>2019-07-14T09:55:49Z</time>
      </trkpt>
      <trkpt lat="47.7704" lon="-3.59118">
        <ele>-42.11</ele>
        <time>2019-07-14T09:55:50Z</time>
      </trkpt>
      <trkpt lat="47.77043" lon="-3.59122">
        <ele>-42.04</ele>
        <time>2019-07-14T09:55:51Z</time>
      </trkpt>
      <trkpt lat="47.77048" lon="-3.59125">
        <ele>-41.88</ele>
        <time>2019-07-14T09:55:52Z</time>
      </trkpt>
      <trkpt lat="47.77056" lon="-3.59129">
        <ele>-41.5</ele>
        <time>2019-07-14T09:55:54Z</time>
      </trkpt>
      <trkpt lat="47.77061" lon="-3.59131">
        <ele>-41.44</ele>
        <time>2019-07-14T09:55:56Z</time>
      </trkpt>
      <trkpt lat="47.77067" lon="-3.59132">
        <ele>-40.95</ele>
        <time>2019-07-14T09:55:58Z</time>
      </trkpt>
      <trkpt lat="47.77074" lon="-3.59133">
        <ele>-40.41</ele>
        <time>2019-07-14T09:56:00Z</time>
      </trkpt>
      <trkpt lat="47.77079" lon="-3.59135">
        <ele>-39.91</ele>
        <time>2019-07-14T09:56:02Z</time>
      </trkpt>
      <trkpt lat="47.77082" lon="-3.59144">
        <ele>-39.48</ele>
        <time>2019-07-14T09:56:05Z</time>
      </trkpt>
      <trkpt lat="47.77081" lon="-3.59155">
        <ele>-39.71</ele>
        <time>2019-07-14T09:56:07Z</time>
      </trkpt>
      <trkpt lat="47.7708" lon="-3.59168">
        <ele>-38.89</ele>
        <time>2019-07-14T09:56:09Z</time>
      </trkpt>
      <trkpt lat="47.77079" lon="-3.5918">
        <ele>-38.34</ele>
        <time>2019-07-14T09:56:11Z</time>
      </trkpt>
      <trkpt lat="47.77077" lon="-3.5919">
        <ele>-38.06</ele>
        <time>2019-07-14T09:56:13Z</time>
      </trkpt>
      <trkpt lat="47.77076" lon="-3.592">
        <ele>-37.81</ele>
        <time>2019-07-14T09:56:15Z</time>
      </trkpt>
      <trkpt lat="47.77074" lon="-3.5921">
        <ele>-37.28</ele>
        <time>2019-07-14T09:56:17Z</time>
      </trkpt>
      <trkpt lat="47.77075" lon="-3.5922">
        <ele>-36.32</ele>
        <time>2019-07-14T09:56:19Z</time>
      </trkpt>
      <trkpt lat="47.77077" lon="-3.5923">
        <ele>-35.35</ele>
        <time>2019-07-14T09:56:21Z</time>
      </trkpt>
      <trkpt lat="47.77077" lon="-3.59239">
        <ele>-34.94</ele>
        <time>2019-07-14T09:56:23Z</time>
      </trkpt>
      <trkpt lat="47.77077" lon="-3.59248">
        <ele>-33.37</ele>
        <time>2019-07-14T09:56:25Z</time>
      </trkpt>
      <trkpt lat="47.77075" lon="-3.59259">
        <ele>-32.12</ele>
        <time>2019-07-14T09:56:27Z</time>
      </trkpt>
      <trkpt lat="47.77074" lon="-3.5927">
        <ele>-30.85</ele>
        <time>2019-07-14T09:56:29Z</time>
      </trkpt>
      <trkpt lat="47.77073" lon="-3.59284">
        <ele>-28.72</ele>
        <time>2019-07-14T09:56:31Z</time>
      </trkpt>
      <trkpt lat="47.77072" lon="-3.59291">
        <ele>-27.88</ele>
        <time>2019-07-14T09:56:32Z</time>
      </trkpt>
      <trkpt lat="47.77071" lon="-3.59298">
        <ele>-27.06</ele>
        <time>2019-07-14T09:56:33Z</time>
      </trkpt>
      <trkpt lat="47.77069" lon="-3.59305">
        <ele>-26.47</ele>
        <time>2019-07-14T09:56:34Z</time>
      </trkpt>
      <trkpt lat="47.77067" lon="-3.59312">
        <ele>-25.66</ele>
        <time>2019-07-14T09:56:35Z</time>
      </trkpt>
      <trkpt lat="47.77067" lon="-3.59319">
        <ele>-24.93</ele>
        <time>2019-07-14T09:56:36Z</time>
      </trkpt>
      <trkpt lat="47.77068" lon="-3.59326">
        <ele>-24.43</ele>
        <time>2019-07-14T09:56:37Z</time>
      </trkpt>
      <trkpt lat="47.77067" lon="-3.5934">
        <ele>-24.11</ele>
        <time>2019-07-14T09:56:39Z</time>
      </trkpt>
      <trkpt lat="47.77068" lon="-3.59347">
        <ele>-24.53</ele>
        <time>2019-07-14T09:56:40Z</time>
      </trkpt>
      <trkpt lat="47.77067" lon="-3.59361">
        <ele>-25.68</ele>
        <time>2019-07-14T09:56:42Z</time>
      </trkpt>
      <trkpt lat="47.77066" lon="-3.59368">
        <ele>-25.56</ele>
        <time>2019-07-14T09:56:43Z</time>
      </trkpt>
      <trkpt lat="47.77066" lon="-3.59375">
        <ele>-25.25</ele>
        <time>2019-07-14T09:56:44Z</time>
      </trkpt>
      <trkpt lat="47.77066" lon="-3.59383">
        <ele>-25.01</ele>
        <time>2019-07-14T09:56:45Z</time>
      </trkpt>
      <trkpt lat="47.77066" lon="-3.59391">
        <ele>-24.8</ele>
        <time>2019-07-14T09:56:46Z</time>
      </trkpt>
      <trkpt lat="47.77066" lon="-3.59399">
        <ele>-24.81</ele>
        <time>2019-07-14T09:56:47Z</time>
      </trkpt>
      <trkpt lat="47.77066" lon="-3.59408">
        <ele>-24.53</ele>
        <time>2019-07-14T09:56:48Z</time>
      </trkpt>
      <trkpt lat="47.77067" lon="-3.59416">
        <ele>-24.38</ele>
        <time>2019-07-14T09:56:49Z</time>
      </trkpt>
      <trkpt lat="47.77068" lon="-3.59424">
        <ele>-24.26</ele>
        <time>2019-07-14T09:56:50Z</time>
      </trkpt>
      <trkpt lat="47.77069" lon="-3.59432">
        <ele>-24.09</ele>
        <time>2019-07-14T09:56:51Z</time>
      </trkpt>
      <trkpt lat="47.7707" lon="-3.59441">
        <ele>-23.89</ele>
        <time>2019-07-14T09:56:52Z</time>
      </trkpt>
      <trkpt lat="47.77069" lon="-3.59449">
        <ele>-23.7</ele>
        <time>2019-07-14T09:56:53Z</time>
      </trkpt>
      <trkpt lat="47.77067" lon="-3.59458">
        <ele>-23.36</ele>
        <time>2019-07-14T09:56:54Z</time>
      </trkpt>
      <trkpt lat="47.77065" lon="-3.59467">
        <ele>-23.4</ele>
        <time>2019-07-14T09:56:55Z</time>
      </trkpt>
      <trkpt lat="47.77063" lon="-3.59477">
        <ele>-24.32</ele>
        <time>2019-07-14T09:56:56Z</time>
      </trkpt>
      <trkpt lat="47.77061" lon="-3.59488">
        <ele>-25.64</ele>
        <time>2019-07-14T09:56:57Z</time>
      </trkpt>
      <trkpt lat="47.77059" lon="-3.59497">
        <ele>-26.46</ele>
        <time>2019-07-14T09:56:58Z</time>
      </trkpt>
      <trkpt lat="47.77057" lon="-3.59506">
        <ele>-27.48</ele>
        <time>2019-07-14T09:56:59Z</time>
      </trkpt>
      <trkpt lat="47.77055" lon="-3.59513">
        <ele>-28.27</ele>
        <time>2019-07-14T09:57:00Z</time>
      </trkpt>
      <trkpt lat="47.77051" lon="-3.5952">
        <ele>-29</ele>
        <time>2019-07-14T09:57:01Z</time>
      </trkpt>
      <trkpt lat="47.77046" lon="-3.59526">
        <ele>-30.06</ele>
        <time>2019-07-14T09:57:02Z</time>
      </trkpt>
      <trkpt lat="47.77041" lon="-3.59531">
        <ele>-30.59</ele>
        <time>2019-07-14T09:57:03Z</time>
      </trkpt>
      <trkpt lat="47.77036" lon="-3.59538">
        <ele>-30.88</ele>
        <time>2019-07-14T09:57:04Z</time>
      </trkpt>
      <trkpt lat="47.77032" lon="-3.59547">
        <ele>-31.67</ele>
        <time>2019-07-14T09:57:05Z</time>
      </trkpt>
      <trkpt lat="47.77029" lon="-3.59558">
        <ele>-32.47</ele>
        <time>2019-07-14T09:57:06Z</time>
      </trkpt>
      <trkpt lat="47.77028" lon="-3.5957">
        <ele>-32.99</ele>
        <time>2019-07-14T09:57:07Z</time>
      </trkpt>
      <trkpt lat="47.77029" lon="-3.59583">
        <ele>-33.5</ele>
        <time>2019-07-14T09:57:08Z</time>
      </trkpt>
      <trkpt lat="47.77031" lon="-3.59594">
        <ele>-33.86</ele>
        <time>2019-07-14T09:57:09Z</time>
      </trkpt>
      <trkpt lat="47.77034" lon="-3.59605">
        <ele>-34.18</ele>
        <time>2019-07-14T09:57:10Z</time>
      </trkpt>
      <trkpt lat="47.77037" lon="-3.59617">
        <ele>-34.41</ele>
        <time>2019-07-14T09:57:11Z</time>
      </trkpt>
      <trkpt lat="47.77041" lon="-3.59628">
        <ele>-35.04</ele>
        <time>2019-07-14T09:57:12Z</time>
      </trkpt>
      <trkpt lat="47.77045" lon="-3.59639">
        <ele>-35.72</ele>
        <time>2019-07-14T09:57:13Z</time>
      </trkpt>
      <trkpt lat="47.77049" lon="-3.5965">
        <ele>-36.27</ele>
        <time>2019-07-14T09:57:14Z</time>
      </trkpt>
      <trkpt lat="47.77052" lon="-3.59662">
        <ele>-36.65</ele>
        <time>2019-07-14T09:57:15Z</time>
      </trkpt>
      <trkpt lat="47.77055" lon="-3.59674">
        <ele>-37.04</ele>
        <time>2019-07-14T09:57:16Z</time>
      </trkpt>
      <trkpt lat="47.77058" lon="-3.59686">
        <ele>-37.23</ele>
        <time>2019-07-14T09:57:17Z</time>
      </trkpt>
      <trkpt lat="47.7706" lon="-3.59699">
        <ele>-37.5</ele>
        <time>2019-07-14T09:57:18Z</time>
      </trkpt>
      <trkpt lat="47.77061" lon="-3.59712">
        <ele>-37.58</ele>
        <time>2019-07-14T09:57:19Z</time>
      </trkpt>
      <trkpt lat="47.77059" lon="-3.59725">
        <ele>-35.78</ele>
        <time>2019-07-14T09:57:20Z</time>
      </trkpt>
      <trkpt lat="47.77053" lon="-3.59734">
        <ele>-35.38</ele>
        <time>2019-07-14T09:57:21Z</time>
      </trkpt>
      <trkpt lat="47.77049" lon="-3.59742">
        <ele>-34.98</ele>
        <time>2019-07-14T09:57:22Z</time>
      </trkpt>
      <trkpt lat="47.77045" lon="-3.5975">
        <ele>-34.65</ele>
        <time>2019-07-14T09:57:23Z</time>
      </trkpt>
      <trkpt lat="47.77042" lon="-3.59761">
        <ele>-34.02</ele>
        <time>2019-07-14T09:57:25Z</time>
      </trkpt>
      <trkpt lat="47.77042" lon="-3.59773">
        <ele>-33.94</ele>
        <time>2019-07-14T09:57:27Z</time>
      </trkpt>
      <trkpt lat="47.77041" lon="-3.59785">
        <ele>-32.95</ele>
        <time>2019-07-14T09:57:29Z</time>
      </trkpt>
      <trkpt lat="47.77041" lon="-3.59798">
        <ele>-33.36</ele>
        <time>2019-07-14T09:57:31Z</time>
      </trkpt>
      <trkpt lat="47.77041" lon="-3.59806">
        <ele>-33.75</ele>
        <time>2019-07-14T09:57:32Z</time>
      </trkpt>
      <trkpt lat="47.77043" lon="-3.59814">
        <ele>-33.93</ele>
        <time>2019-07-14T09:57:33Z</time>
      </trkpt>
      <trkpt lat="47.77044" lon="-3.59823">
        <ele>-34.06</ele>
        <time>2019-07-14T09:57:34Z</time>
      </trkpt>
      <trkpt lat="47.77044" lon="-3.59831">
        <ele>-34.17</ele>
        <time>2019-07-14T09:57:35Z</time>
      </trkpt>
      <trkpt lat="47.77045" lon="-3.59838">
        <ele>-34.76</ele>
        <time>2019-07-14T09:57:36Z</time>
      </trkpt>
      <trkpt lat="47.77048" lon="-3.59847">
        <ele>-35.33</ele>
        <time>2019-07-14T09:57:38Z</time>
      </trkpt>
      <trkpt lat="47.77056" lon="-3.59849">
        <ele>-35.36</ele>
        <time>2019-07-14T09:57:40Z</time>
      </trkpt>
      <trkpt lat="47.77063" lon="-3.59853">
        <ele>-35.52</ele>
        <time>2019-07-14T09:57:42Z</time>
      </trkpt>
      <trkpt lat="47.77066" lon="-3.59862">
        <ele>-35.76</ele>
        <time>2019-07-14T09:57:44Z</time>
      </trkpt>
      <trkpt lat="47.77067" lon="-3.59869">
        <ele>-36.22</ele>
        <time>2019-07-14T09:57:45Z</time>
      </trkpt>
      <trkpt lat="47.77069" lon="-3.59876">
        <ele>-36.91</ele>
        <time>2019-07-14T09:57:46Z</time>
      </trkpt>
      <trkpt lat="47.7707" lon="-3.59883">
        <ele>-37.54</ele>
        <time>2019-07-14T09:57:47Z</time>
      </trkpt>
      <trkpt lat="47.77072" lon="-3.5989">
        <ele>-37.45</ele>
        <time>2019-07-14T09:57:48Z</time>
      </trkpt>
      <trkpt lat="47.77073" lon="-3.59896">
        <ele>-37.42</ele>
        <time>2019-07-14T09:57:49Z</time>
      </trkpt>
      <trkpt lat="47.77075" lon="-3.59909">
        <ele>-37.46</ele>
        <time>2019-07-14T09:57:51Z</time>
      </trkpt>
      <trkpt lat="47.77076" lon="-3.59917">
        <ele>-37.56</ele>
        <time>2019-07-14T09:57:52Z</time>
      </trkpt>
      <trkpt lat="47.77076" lon="-3.59924">
        <ele>-37.46</ele>
        <time>2019-07-14T09:57:53Z</time>
      </trkpt>
      <trkpt lat="47.77077" lon="-3.59932">
        <ele>-37.43</ele>
        <time>2019-07-14T09:57:54Z</time>
      </trkpt>
      <trkpt lat="47.77078" lon="-3.5994">
        <ele>-37.42</ele>
        <time>2019-07-14T09:57:55Z</time>
      </trkpt>
      <trkpt lat="47.77078" lon="-3.59948">
        <ele>-37.48</ele>
        <time>2019-07-14T09:57:56Z</time>
      </trkpt>
      <trkpt lat="47.77078" lon="-3.59956">
        <ele>-37.57</ele>
        <time>2019-07-14T09:57:57Z</time>
      </trkpt>
      <trkpt lat="47.77079" lon="-3.59964">
        <ele>-37.53</ele>
        <time>2019-07-14T09:57:58Z</time>
      </trkpt>
      <trkpt lat="47.77081" lon="-3.5997">
        <ele>-37.38</ele>
        <time>2019-07-14T09:57:59Z</time>
      </trkpt>
      <trkpt lat="47.77084" lon="-3.59976">
        <ele>-37.4</ele>
        <time>2019-07-14T09:58:00Z</time>
      </trkpt>
      <trkpt lat="47.77091" lon="-3.59984">
        <ele>-37.52</ele>
        <time>2019-07-14T09:58:02Z</time>
      </trkpt>
      <trkpt lat="47.77095" lon="-3.59988">
        <ele>-37.17</ele>
        <time>2019-07-14T09:58:03Z</time>
      </trkpt>
      <trkpt lat="47.77099" lon="-3.59993">
        <ele>-36.99</ele>
        <time>2019-07-14T09:58:04Z</time>
      </trkpt>
      <trkpt lat="47.77102" lon="-3.59998">
        <ele>-36.93</ele>
        <time>2019-07-14T09:58:05Z</time>
      </trkpt>
      <trkpt lat="47.77106" lon="-3.60002">
        <ele>-37.13</ele>
        <time>2019-07-14T09:58:06Z</time>
      </trkpt>
      <trkpt lat="47.7711" lon="-3.60007">
        <ele>-37.33</ele>
        <time>2019-07-14T09:58:07Z</time>
      </trkpt>
      <trkpt lat="47.77113" lon="-3.60011">
        <ele>-37.39</ele>
        <time>2019-07-14T09:58:08Z</time>
      </trkpt>
      <trkpt lat="47.77117" lon="-3.60016">
        <ele>-36.98</ele>
        <time>2019-07-14T09:58:09Z</time>
      </trkpt>
      <trkpt lat="47.77123" lon="-3.60024">
        <ele>-36.11</ele>
        <time>2019-07-14T09:58:11Z</time>
      </trkpt>
      <trkpt lat="47.77129" lon="-3.60033">
        <ele>-34.89</ele>
        <time>2019-07-14T09:58:13Z</time>
      </trkpt>
      <trkpt lat="47.77135" lon="-3.60043">
        <ele>-33.67</ele>
        <time>2019-07-14T09:58:15Z</time>
      </trkpt>
      <trkpt lat="47.77138" lon="-3.60048">
        <ele>-33.21</ele>
        <time>2019-07-14T09:58:16Z</time>
      </trkpt>
      <trkpt lat="47.77141" lon="-3.60054">
        <ele>-33.14</ele>
        <time>2019-07-14T09:58:17Z</time>
      </trkpt>
      <trkpt lat="47.77144" lon="-3.6006">
        <ele>-32.91</ele>
        <time>2019-07-14T09:58:18Z</time>
      </trkpt>
      <trkpt lat="47.77145" lon="-3.60067">
        <ele>-32.56</ele>
        <time>2019-07-14T09:58:19Z</time>
      </trkpt>
      <trkpt lat="47.77145" lon="-3.60075">
        <ele>-32.11</ele>
        <time>2019-07-14T09:58:20Z</time>
      </trkpt>
      <trkpt lat="47.77144" lon="-3.60084">
        <ele>-31.69</ele>
        <time>2019-07-14T09:58:21Z</time>
      </trkpt>
      <trkpt lat="47.77142" lon="-3.60093">
        <ele>-31.43</ele>
        <time>2019-07-14T09:58:22Z</time>
      </trkpt>
      <trkpt lat="47.7714" lon="-3.60102">
        <ele>-31.21</ele>
        <time>2019-07-14T09:58:23Z</time>
      </trkpt>
      <trkpt lat="47.77139" lon="-3.6011">
        <ele>-30.58</ele>
        <time>2019-07-14T09:58:24Z</time>
      </trkpt>
      <trkpt lat="47.77139" lon="-3.60119">
        <ele>-30.25</ele>
        <time>2019-07-14T09:58:25Z</time>
      </trkpt>
      <trkpt lat="47.77137" lon="-3.60127">
        <ele>-29.45</ele>
        <time>2019-07-14T09:58:26Z</time>
      </trkpt>
      <trkpt lat="47.77137" lon="-3.60135">
        <ele>-29</ele>
        <time>2019-07-14T09:58:27Z</time>
      </trkpt>
      <trkpt lat="47.77137" lon="-3.60143">
        <ele>-28.8</ele>
        <time>2019-07-14T09:58:28Z</time>
      </trkpt>
      <trkpt lat="47.77138" lon="-3.60151">
        <ele>-28.81</ele>
        <time>2019-07-14T09:58:29Z</time>
      </trkpt>
      <trkpt lat="47.77138" lon="-3.60159">
        <ele>-29.02</ele>
        <time>2019-07-14T09:58:30Z</time>
      </trkpt>
      <trkpt lat="47.77139" lon="-3.60167">
        <ele>-29.08</ele>
        <time>2019-07-14T09:58:31Z</time>
      </trkpt>
      <trkpt lat="47.77139" lon="-3.60175">
        <ele>-29.17</ele>
        <time>2019-07-14T09:58:32Z</time>
      </trkpt>
      <trkpt lat="47.77139" lon="-3.60183">
        <ele>-29.41</ele>
        <time>2019-07-14T09:58:33Z</time>
      </trkpt>
      <trkpt lat="47.77141" lon="-3.60191">
        <ele>-30.11</ele>
        <time>2019-07-14T09:58:34Z</time>
      </trkpt>
      <trkpt lat="47.77141" lon="-3.602">
        <ele>-30.39</ele>
        <time>2019-07-14T09:58:35Z</time>
      </trkpt>
      <trkpt lat="47.77143" lon="-3.60209">
        <ele>-30.9</ele>
        <time>2019-07-14T09:58:36Z</time>
      </trkpt>
      <trkpt lat="47.77145" lon="-3.60218">
        <ele>-31.54</ele>
        <time>2019-07-14T09:58:37Z</time>
      </trkpt>
      <trkpt lat="47.77146" lon="-3.60227">
        <ele>-31.94</ele>
        <time>2019-07-14T09:58:38Z</time>
      </trkpt>
      <trkpt lat="47.77147" lon="-3.60237">
        <ele>-32.48</ele>
        <time>2019-07-14T09:58:39Z</time>
      </trkpt>
      <trkpt lat="47.77147" lon="-3.60246">
        <ele>-32.71</ele>
        <time>2019-07-14T09:58:40Z</time>
      </trkpt>
      <trkpt lat="47.77147" lon="-3.60255">
        <ele>-32.57</ele>
        <time>2019-07-14T09:58:41Z</time>
      </trkpt>
      <trkpt lat="47.77146" lon="-3.60265">
        <ele>-32.25</ele>
        <time>2019-07-14T09:58:42Z</time>
      </trkpt>
      <trkpt lat="47.77146" lon="-3.60273">
        <ele>-31.73</ele>
        <time>2019-07-14T09:58:43Z</time>
      </trkpt>
      <trkpt lat="47.77147" lon="-3.60281">
        <ele>-32.84</ele>
        <time>2019-07-14T09:58:44Z</time>
      </trkpt>
      <trkpt lat="47.77148" lon="-3.60288">
        <ele>-33.87</ele>
        <time>2019-07-14T09:58:45Z</time>
      </trkpt>
      <trkpt lat="47.77148" lon="-3.60295">
        <ele>-34.46</ele>
        <time>2019-07-14T09:58:46Z</time>
      </trkpt>
      <trkpt lat="47.77149" lon="-3.60303">
        <ele>-34.64</ele>
        <time>2019-07-14T09:58:47Z</time>
      </trkpt>
      <trkpt lat="47.77149" lon="-3.6031">
        <ele>-34.9</ele>
        <time>2019-07-14T09:58:48Z</time>
      </trkpt>
      <trkpt lat="47.77149" lon="-3.60317">
        <ele>-35.26</ele>
        <time>2019-07-14T09:58:49Z</time>
      </trkpt>
      <trkpt lat="47.7715" lon="-3.60325">
        <ele>-35.44</ele>
        <time>2019-07-14T09:58:50Z</time>
      </trkpt>
      <trkpt lat="47.7715" lon="-3.60333">
        <ele>-35.77</ele>
        <time>2019-07-14T09:58:51Z</time>
      </trkpt>
      <trkpt lat="47.7715" lon="-3.60342">
        <ele>-36.22</ele>
        <time>2019-07-14T09:58:52Z</time>
      </trkpt>
      <trkpt lat="47.7715" lon="-3.6035">
        <ele>-36.42</ele>
        <time>2019-07-14T09:58:53Z</time>
      </trkpt>
      <trkpt lat="47.7715" lon="-3.60358">
        <ele>-36.56</ele>
        <time>2019-07-14T09:58:54Z</time>
      </trkpt>
      <trkpt lat="47.7715" lon="-3.60366">
        <ele>-36.6</ele>
        <time>2019-07-14T09:58:55Z</time>
      </trkpt>
      <trkpt lat="47.7715" lon="-3.60373">
        <ele>-36.47</ele>
        <time>2019-07-14T09:58:56Z</time>
      </trkpt>
      <trkpt lat="47.77151" lon="-3.6038">
        <ele>-36.01</ele>
        <time>2019-07-14T09:58:57Z</time>
      </trkpt>
      <trkpt lat="47.77153" lon="-3.60391">
        <ele>-34.79</ele>
        <time>2019-07-14T09:58:59Z</time>
      </trkpt>
      <trkpt lat="47.77149" lon="-3.60397">
        <ele>-34.35</ele>
        <time>2019-07-14T09:59:01Z</time>
      </trkpt>
      <trkpt lat="47.77141" lon="-3.60398">
        <ele>-34.43</ele>
        <time>2019-07-14T09:59:03Z</time>
      </trkpt>
      <trkpt lat="47.77135" lon="-3.60397">
        <ele>-34.56</ele>
        <time>2019-07-14T09:59:04Z</time>
      </trkpt>
      <trkpt lat="47.7713" lon="-3.60397">
        <ele>-34.88</ele>
        <time>2019-07-14T09:59:05Z</time>
      </trkpt>
      <trkpt lat="47.77123" lon="-3.60397">
        <ele>-34.9</ele>
        <time>2019-07-14T09:59:06Z</time>
      </trkpt>
      <trkpt lat="47.77116" lon="-3.60397">
        <ele>-35.4</ele>
        <time>2019-07-14T09:59:07Z</time>
      </trkpt>
      <trkpt lat="47.77108" lon="-3.60399">
        <ele>-36.18</ele>
        <time>2019-07-14T09:59:08Z</time>
      </trkpt>
      <trkpt lat="47.771" lon="-3.60401">
        <ele>-37.32</ele>
        <time>2019-07-14T09:59:09Z</time>
      </trkpt>
      <trkpt lat="47.77092" lon="-3.60404">
        <ele>-38.64</ele>
        <time>2019-07-14T09:59:10Z</time>
      </trkpt>
      <trkpt lat="47.77082" lon="-3.60406">
        <ele>-39.6</ele>
        <time>2019-07-14T09:59:11Z</time>
      </trkpt>
      <trkpt lat="47.77073" lon="-3.60411">
        <ele>-40.87</ele>
        <time>2019-07-14T09:59:12Z</time>
      </trkpt>
      <trkpt lat="47.77065" lon="-3.60414">
        <ele>-42.16</ele>
        <time>2019-07-14T09:59:13Z</time>
      </trkpt>
      <trkpt lat="47.77059" lon="-3.60416">
        <ele>-43.46</ele>
        <time>2019-07-14T09:59:14Z</time>
      </trkpt>
      <trkpt lat="47.77053" lon="-3.60419">
        <ele>-44.83</ele>
        <time>2019-07-14T09:59:15Z</time>
      </trkpt>
      <trkpt lat="47.77049" lon="-3.60422">
        <ele>-46.01</ele>
        <time>2019-07-14T09:59:16Z</time>
      </trkpt>
      <trkpt lat="47.77046" lon="-3.60426">
        <ele>-46.99</ele>
        <time>2019-07-14T09:59:17Z</time>
      </trkpt>
      <trkpt lat="47.77043" lon="-3.60432">
        <ele>-47.29</ele>
        <time>2019-07-14T09:59:18Z</time>
      </trkpt>
      <trkpt lat="47.7704" lon="-3.60438">
        <ele>-47.58</ele>
        <time>2019-07-14T09:59:19Z</time>
      </trkpt>
      <trkpt lat="47.77039" lon="-3.60451">
        <ele>-48.69</ele>
        <time>2019-07-14T09:59:21Z</time>
      </trkpt>
      <trkpt lat="47.77038" lon="-3.60462">
        <ele>-49.42</ele>
        <time>2019-07-14T09:59:23Z</time>
      </trkpt>
      <trkpt lat="47.77035" lon="-3.60472">
        <ele>-49.32</ele>
        <time>2019-07-14T09:59:25Z</time>
      </trkpt>
      <trkpt lat="47.77032" lon="-3.60484">
        <ele>-48.69</ele>
        <time>2019-07-14T09:59:27Z</time>
      </trkpt>
      <trkpt lat="47.77031" lon="-3.60491">
        <ele>-48.29</ele>
        <time>2019-07-14T09:59:28Z</time>
      </trkpt>
      <trkpt lat="47.77031" lon="-3.60497">
        <ele>-48.09</ele>
        <time>2019-07-14T09:59:29Z</time>
      </trkpt>
      <trkpt lat="47.7703" lon="-3.6051">
        <ele>-47.18</ele>
        <time>2019-07-14T09:59:31Z</time>
      </trkpt>
      <trkpt lat="47.77026" lon="-3.60521">
        <ele>-46.21</ele>
        <time>2019-07-14T09:59:33Z</time>
      </trkpt>
      <trkpt lat="47.77025" lon="-3.60528">
        <ele>-45.72</ele>
        <time>2019-07-14T09:59:34Z</time>
      </trkpt>
      <trkpt lat="47.77024" lon="-3.60541">
        <ele>-44.61</ele>
        <time>2019-07-14T09:59:36Z</time>
      </trkpt>
      <trkpt lat="47.77026" lon="-3.60554">
        <ele>-44.48</ele>
        <time>2019-07-14T09:59:38Z</time>
      </trkpt>
      <trkpt lat="47.77028" lon="-3.60561">
        <ele>-45.06</ele>
        <time>2019-07-14T09:59:39Z</time>
      </trkpt>
      <trkpt lat="47.7703" lon="-3.60567">
        <ele>-45.66</ele>
        <time>2019-07-14T09:59:40Z</time>
      </trkpt>
      <trkpt lat="47.77032" lon="-3.60574">
        <ele>-45.7</ele>
        <time>2019-07-14T09:59:41Z</time>
      </trkpt>
      <trkpt lat="47.77034" lon="-3.6058">
        <ele>-45.36</ele>
        <time>2019-07-14T09:59:42Z</time>
      </trkpt>
      <trkpt lat="47.77035" lon="-3.60587">
        <ele>-45.12</ele>
        <time>2019-07-14T09:59:43Z</time>
      </trkpt>
      <trkpt lat="47.77035" lon="-3.60594">
        <ele>-44.97</ele>
        <time>2019-07-14T09:59:44Z</time>
      </trkpt>
      <trkpt lat="47.77033" lon="-3.606">
        <ele>-45.07</ele>
        <time>2019-07-14T09:59:45Z</time>
      </trkpt>
      <trkpt lat="47.77031" lon="-3.60606">
        <ele>-45.24</ele>
        <time>2019-07-14T09:59:46Z</time>
      </trkpt>
      <trkpt lat="47.77029" lon="-3.60613">
        <ele>-45.29</ele>
        <time>2019-07-14T09:59:47Z</time>
      </trkpt>
      <trkpt lat="47.77027" lon="-3.60625">
        <ele>-45.33</ele>
        <time>2019-07-14T09:59:49Z</time>
      </trkpt>
      <trkpt lat="47.77028" lon="-3.60639">
        <ele>-44.97</ele>
        <time>2019-07-14T09:59:51Z</time>
      </trkpt>
      <trkpt lat="47.7703" lon="-3.60646">
        <ele>-45.42</ele>
        <time>2019-07-14T09:59:52Z</time>
      </trkpt>
      <trkpt lat="47.77032" lon="-3.60653">
        <ele>-45.62</ele>
        <time>2019-07-14T09:59:53Z</time>
      </trkpt>
      <trkpt lat="47.77034" lon="-3.6066">
        <ele>-45.69</ele>
        <time>2019-07-14T09:59:54Z</time>
      </trkpt>
      <trkpt lat="47.77036" lon="-3.60667">
        <ele>-45.63</ele>
        <time>2019-07-14T09:59:55Z</time>
      </trkpt>
      <trkpt lat="47.77037" lon="-3.60675">
        <ele>-45.55</ele>
        <time>2019-07-14T09:59:56Z</time>
      </trkpt>
      <trkpt lat="47.77037" lon="-3.60683">
        <ele>-45.66</ele>
        <time>2019-07-14T09:59:57Z</time>
      </trkpt>
      <trkpt lat="47.77036" lon="-3.60691">
        <ele>-45.7</ele>
        <time>2019-07-14T09:59:58Z</time>
      </trkpt>
      <trkpt lat="47.77035" lon="-3.607">
        <ele>-45.22</ele>
        <time>2019-07-14T09:59:59Z</time>
      </trkpt>
      <trkpt lat="47.77034" lon="-3.60708">
        <ele>-45.07</ele>
        <time>2019-07-14T10:00:00Z</time>
      </trkpt>
      <trkpt lat="47.77034" lon="-3.60717">
        <ele>-45.1</ele>
        <time>2019-07-14T10:00:01Z</time>
      </trkpt>
      <trkpt lat="47.77034" lon="-3.60725">
        <ele>-45.18</ele>
        <time>2019-07-14T10:00:02Z</time>
      </trkpt>
      <trkpt lat="47.77036" lon="-3.60732">
        <ele>-45.2</ele>
        <time>2019-07-14T10:00:03Z</time>
      </trkpt>
      <trkpt lat="47.77038" lon="-3.60737">
        <ele>-45.88</ele>
        <time>2019-07-14T10:00:05Z</time>
      </trkpt>
      <trkpt lat="47.77041" lon="-3.60731">
        <ele>-45.39</ele>
        <time>2019-07-14T10:00:08Z</time>
      </trkpt>
      <trkpt lat="47.77045" lon="-3.60728">
        <ele>-45.55</ele>
        <time>2019-07-14T10:00:10Z</time>
      </trkpt>
      <trkpt lat="47.7705" lon="-3.60725">
        <ele>-45.38</ele>
        <time>2019-07-14T10:00:12Z</time>
      </trkpt>
      <trkpt lat="47.77055" lon="-3.60727">
        <ele>-44.93</ele>
        <time>2019-07-14T10:00:14Z</time>
      </trkpt>
      <trkpt lat="47.7706" lon="-3.60729">
        <ele>-44.34</ele>
        <time>2019-07-14T10:00:16Z</time>
      </trkpt>
      <trkpt lat="47.77066" lon="-3.60732">
        <ele>-43.58</ele>
        <time>2019-07-14T10:00:18Z</time>
      </trkpt>
      <trkpt lat="47.77071" lon="-3.60737">
        <ele>-43.08</ele>
        <time>2019-07-14T10:00:21Z</time>
      </trkpt>
      <trkpt lat="47.77077" lon="-3.60741">
        <ele>-43.57</ele>
        <time>2019-07-14T10:00:23Z</time>
      </trkpt>
      <trkpt lat="47.77081" lon="-3.60745">
        <ele>-44.37</ele>
        <time>2019-07-14T10:00:24Z</time>
      </trkpt>
      <trkpt lat="47.77087" lon="-3.6075">
        <ele>-45.1</ele>
        <time>2019-07-14T10:00:25Z</time>
      </trkpt>
      <trkpt lat="47.77093" lon="-3.60754">
        <ele>-45.81</ele>
        <time>2019-07-14T10:00:26Z</time>
      </trkpt>
      <trkpt lat="47.77099" lon="-3.6076">
        <ele>-46.65</ele>
        <time>2019-07-14T10:00:27Z</time>
      </trkpt>
      <trkpt lat="47.77111" lon="-3.60774">
        <ele>-47.74</ele>
        <time>2019-07-14T10:00:29Z</time>
      </trkpt>
      <trkpt lat="47.77116" lon="-3.6078">
        <ele>-48.28</ele>
        <time>2019-07-14T10:00:30Z</time>
      </trkpt>
      <trkpt lat="47.77121" lon="-3.60785">
        <ele>-49.56</ele>
        <time>2019-07-14T10:00:31Z</time>
      </trkpt>
      <trkpt lat="47.77126" lon="-3.6079">
        <ele>-50.44</ele>
        <time>2019-07-14T10:00:32Z</time>
      </trkpt>
      <trkpt lat="47.77129" lon="-3.60796">
        <ele>-50.98</ele>
        <time>2019-07-14T10:00:33Z</time>
      </trkpt>
      <trkpt lat="47.77132" lon="-3.60801">
        <ele>-51</ele>
        <time>2019-07-14T10:00:34Z</time>
      </trkpt>
      <trkpt lat="47.77139" lon="-3.60809">
        <ele>-49.18</ele>
        <time>2019-07-14T10:00:36Z</time>
      </trkpt>
      <trkpt lat="47.77143" lon="-3.6081">
        <ele>-48.85</ele>
        <time>2019-07-14T10:00:37Z</time>
      </trkpt>
      <trkpt lat="47.77148" lon="-3.6081">
        <ele>-48.82</ele>
        <time>2019-07-14T10:00:38Z</time>
      </trkpt>
      <trkpt lat="47.77152" lon="-3.60809">
        <ele>-48.68</ele>
        <time>2019-07-14T10:00:39Z</time>
      </trkpt>
      <trkpt lat="47.77157" lon="-3.6081">
        <ele>-48.35</ele>
        <time>2019-07-14T10:00:40Z</time>
      </trkpt>
      <trkpt lat="47.77162" lon="-3.60811">
        <ele>-47.97</ele>
        <time>2019-07-14T10:00:41Z</time>
      </trkpt>
      <trkpt lat="47.77166" lon="-3.60813">
        <ele>-47.79</ele>
        <time>2019-07-14T10:00:42Z</time>
      </trkpt>
      <trkpt lat="47.77171" lon="-3.60816">
        <ele>-47.81</ele>
        <time>2019-07-14T10:00:43Z</time>
      </trkpt>
      <trkpt lat="47.77175" lon="-3.60819">
        <ele>-47.46</ele>
        <time>2019-07-14T10:00:44Z</time>
      </trkpt>
      <trkpt lat="47.77179" lon="-3.60822">
        <ele>-47.08</ele>
        <time>2019-07-14T10:00:45Z</time>
      </trkpt>
      <trkpt lat="47.77183" lon="-3.60824">
        <ele>-46.68</ele>
        <time>2019-07-14T10:00:46Z</time>
      </trkpt>
      <trkpt lat="47.7719" lon="-3.60827">
        <ele>-45.97</ele>
        <time>2019-07-14T10:00:48Z</time>
      </trkpt>
      <trkpt lat="47.77195" lon="-3.60829">
        <ele>-45.57</ele>
        <time>2019-07-14T10:00:50Z</time>
      </trkpt>
      <trkpt lat="47.77201" lon="-3.60833">
        <ele>-45.67</ele>
        <time>2019-07-14T10:00:54Z</time>
      </trkpt>
      <trkpt lat="47.77208" lon="-3.60835">
        <ele>-46.05</ele>
        <time>2019-07-14T10:00:56Z</time>
      </trkpt>
      <trkpt lat="47.77217" lon="-3.60833">
        <ele>-46.02</ele>
        <time>2019-07-14T10:00:58Z</time>
      </trkpt>
      <trkpt lat="47.77222" lon="-3.60831">
        <ele>-45.87</ele>
        <time>2019-07-14T10:00:59Z</time>
      </trkpt>
      <trkpt lat="47.77228" lon="-3.60829">
        <ele>-45.62</ele>
        <time>2019-07-14T10:01:00Z</time>
      </trkpt>
      <trkpt lat="47.77234" lon="-3.60827">
        <ele>-45.47</ele>
        <time>2019-07-14T10:01:01Z</time>
      </trkpt>
      <trkpt lat="47.7724" lon="-3.60825">
        <ele>-45.22</ele>
        <time>2019-07-14T10:01:02Z</time>
      </trkpt>
      <trkpt lat="47.77245" lon="-3.60823">
        <ele>-45</ele>
        <time>2019-07-14T10:01:03Z</time>
      </trkpt>
      <trkpt lat="47.77251" lon="-3.60821">
        <ele>-44.94</ele>
        <time>2019-07-14T10:01:04Z</time>
      </trkpt>
      <trkpt lat="47.77257" lon="-3.60819">
        <ele>-44.92</ele>
        <time>2019-07-14T10:01:05Z</time>
      </trkpt>
      <trkpt lat="47.77263" lon="-3.60818">
        <ele>-44.84</ele>
        <time>2019-07-14T10:01:06Z</time>
      </trkpt>
      <trkpt lat="47.7727" lon="-3.60817">
        <ele>-44.89</ele>
        <time>2019-07-14T10:01:07Z</time>
      </trkpt>
      <trkpt lat="47.77276" lon="-3.60817">
        <ele>-44.42</ele>
        <time>2019-07-14T10:01:08Z</time>
      </trkpt>
      <trkpt lat="47.77283" lon="-3.60814">
        <ele>-44.41</ele>
        <time>2019-07-14T10:01:09Z</time>
      </trkpt>
      <trkpt lat="47.7729" lon="-3.60811">
        <ele>-44.48</ele>
        <time>2019-07-14T10:01:10Z</time>
      </trkpt>
      <trkpt lat="47.77298" lon="-3.60809">
        <ele>-44.71</ele>
        <time>2019-07-14T10:01:11Z</time>
      </trkpt>
      <trkpt lat="47.77304" lon="-3.60806">
        <ele>-44.85</ele>
        <time>2019-07-14T10:01:12Z</time>
      </trkpt>
      <trkpt lat="47.77311" lon="-3.60802">
        <ele>-44.96</ele>
        <time>2019-07-14T10:01:13Z</time>
      </trkpt>
      <trkpt lat="47.77317" lon="-3.60797">
        <ele>-45.07</ele>
        <time>2019-07-14T10:01:14Z</time>
      </trkpt>
      <trkpt lat="47.77323" lon="-3.60792">
        <ele>-45.03</ele>
        <time>2019-07-14T10:01:15Z</time>
      </trkpt>
      <trkpt lat="47.7733" lon="-3.60785">
        <ele>-45.72</ele>
        <time>2019-07-14T10:01:16Z</time>
      </trkpt>
      <trkpt lat="47.77336" lon="-3.6078">
        <ele>-46.2</ele>
        <time>2019-07-14T10:01:17Z</time>
      </trkpt>
      <trkpt lat="47.77342" lon="-3.60773">
        <ele>-46.56</ele>
        <time>2019-07-14T10:01:18Z</time>
      </trkpt>
      <trkpt lat="47.77347" lon="-3.60766">
        <ele>-46.88</ele>
        <time>2019-07-14T10:01:19Z</time>
      </trkpt>
      <trkpt lat="47.77352" lon="-3.6076">
        <ele>-47.39</ele>
        <time>2019-07-14T10:01:20Z</time>
      </trkpt>
      <trkpt lat="47.77355" lon="-3.60754">
        <ele>-47.62</ele>
        <time>2019-07-14T10:01:21Z</time>
      </trkpt>
      <trkpt lat="47.77359" lon="-3.60749">
        <ele>-47.68</ele>
        <time>2019-07-14T10:01:22Z</time>
      </trkpt>
      <trkpt lat="47.77363" lon="-3.6074">
        <ele>-48.05</ele>
        <time>2019-07-14T10:01:24Z</time>
      </trkpt>
      <trkpt lat="47.77367" lon="-3.60729">
        <ele>-48.27</ele>
        <time>2019-07-14T10:01:26Z</time>
      </trkpt>
      <trkpt lat="47.7737" lon="-3.6072">
        <ele>-48.08</ele>
        <time>2019-07-14T10:01:28Z</time>
      </trkpt>
      <trkpt lat="47.77371" lon="-3.60711">
        <ele>-48.58</ele>
        <time>2019-07-14T10:01:33Z</time>
      </trkpt>
      <trkpt lat="47.77373" lon="-3.60704">
        <ele>-47.73</ele>
        <time>2019-07-14T10:01:36Z</time>
      </trkpt>
      <trkpt lat="47.77375" lon="-3.60695">
        <ele>-47.2</ele>
        <time>2019-07-14T10:01:39Z</time>
      </trkpt>
      <trkpt lat="47.77377" lon="-3.60685">
        <ele>-46.71</ele>
        <time>2019-07-14T10:01:41Z</time>
      </trkpt>
      <trkpt lat="47.77379" lon="-3.60673">
        <ele>-46.35</ele>
        <time>2019-07-14T10:01:43Z</time>
      </trkpt>
      <trkpt lat="47.7738" lon="-3.60665">
        <ele>-46.18</ele>
        <time>2019-07-14T10:01:44Z</time>
      </trkpt>
      <trkpt lat="47.77381" lon="-3.60658">
        <ele>-45.99</ele>
        <time>2019-07-14T10:01:45Z</time>
      </trkpt>
      <trkpt lat="47.77382" lon="-3.60651">
        <ele>-45.87</ele>
        <time>2019-07-14T10:01:46Z</time>
      </trkpt>
      <trkpt lat="47.77384" lon="-3.60644">
        <ele>-45.55</ele>
        <time>2019-07-14T10:01:47Z</time>
      </trkpt>
      <trkpt lat="47.77385" lon="-3.60637">
        <ele>-45.24</ele>
        <time>2019-07-14T10:01:48Z</time>
      </trkpt>
      <trkpt lat="47.77388" lon="-3.60631">
        <ele>-45.15</ele>
        <time>2019-07-14T10:01:49Z</time>
      </trkpt>
      <trkpt lat="47.7739" lon="-3.60624">
        <ele>-45.19</ele>
        <time>2019-07-14T10:01:50Z</time>
      </trkpt>
      <trkpt lat="47.77391" lon="-3.60616">
        <ele>-45.63</ele>
        <time>2019-07-14T10:01:51Z</time>
      </trkpt>
      <trkpt lat="47.77393" lon="-3.60609">
        <ele>-45.9</ele>
        <time>2019-07-14T10:01:52Z</time>
      </trkpt>
      <trkpt lat="47.77395" lon="-3.60602">
        <ele>-46.19</ele>
        <time>2019-07-14T10:01:53Z</time>
      </trkpt>
      <trkpt lat="47.77398" lon="-3.60595">
        <ele>-46.41</ele>
        <time>2019-07-14T10:01:54Z</time>
      </trkpt>
      <trkpt lat="47.77401" lon="-3.60587">
        <ele>-46.76</ele>
        <time>2019-07-14T10:01:55Z</time>
      </trkpt>
      <trkpt lat="47.77404" lon="-3.6058">
        <ele>-47.01</ele>
        <time>2019-07-14T10:01:56Z</time>
      </trkpt>
      <trkpt lat="47.77407" lon="-3.60573">
        <ele>-47.08</ele>
        <time>2019-07-14T10:01:57Z</time>
      </trkpt>
      <trkpt lat="47.7741" lon="-3.60566">
        <ele>-46.82</ele>
        <time>2019-07-14T10:01:58Z</time>
      </trkpt>
      <trkpt lat="47.77413" lon="-3.60559">
        <ele>-46.75</ele>
        <time>2019-07-14T10:01:59Z</time>
      </trkpt>
      <trkpt lat="47.77415" lon="-3.60552">
        <ele>-46.79</ele>
        <time>2019-07-14T10:02:00Z</time>
      </trkpt>
      <trkpt lat="47.77418" lon="-3.60544">
        <ele>-46.95</ele>
        <time>2019-07-14T10:02:01Z</time>
      </trkpt>
      <trkpt lat="47.77419" lon="-3.60536">
        <ele>-47.2</ele>
        <time>2019-07-14T10:02:02Z</time>
      </trkpt>
      <trkpt lat="47.77422" lon="-3.60528">
        <ele>-47.42</ele>
        <time>2019-07-14T10:02:03Z</time>
      </trkpt>
      <trkpt lat="47.77424" lon="-3.60519">
        <ele>-47.69</ele>
        <time>2019-07-14T10:02:04Z</time>
      </trkpt>
      <trkpt lat="47.77426" lon="-3.60511">
        <ele>-47.57</ele>
        <time>2019-07-14T10:02:05Z</time>
      </trkpt>
      <trkpt lat="47.77429" lon="-3.60504">
        <ele>-47.53</ele>
        <time>2019-07-14T10:02:06Z</time>
      </trkpt>
      <trkpt lat="47.77433" lon="-3.60498">
        <ele>-47.94</ele>
        <time>2019-07-14T10:02:07Z</time>
      </trkpt>
      <trkpt lat="47.77437" lon="-3.60492">
        <ele>-48.55</ele>
        <time>2019-07-14T10:02:08Z</time>
      </trkpt>
      <trkpt lat="47.77442" lon="-3.60487">
        <ele>-49.01</ele>
        <time>2019-07-14T10:02:09Z</time>
      </trkpt>
      <trkpt lat="47.77447" lon="-3.60483">
        <ele>-49.43</ele>
        <time>2019-07-14T10:02:10Z</time>
      </trkpt>
      <trkpt lat="47.77453" lon="-3.6048">
        <ele>-50.12</ele>
        <time>2019-07-14T10:02:11Z</time>
      </trkpt>
      <trkpt lat="47.77459" lon="-3.60478">
        <ele>-50.39</ele>
        <time>2019-07-14T10:02:12Z</time>
      </trkpt>
      <trkpt lat="47.77466" lon="-3.60476">
        <ele>-50.27</ele>
        <time>2019-07-14T10:02:13Z</time>
      </trkpt>
      <trkpt lat="47.77472" lon="-3.60473">
        <ele>-50.37</ele>
        <time>2019-07-14T10:02:14Z</time>
      </trkpt>
      <trkpt lat="47.77478" lon="-3.60469">
        <ele>-50.75</ele>
        <time>2019-07-14T10:02:15Z</time>
      </trkpt>
      <trkpt lat="47.77484" lon="-3.60466">
        <ele>-51.07</ele>
        <time>2019-07-14T10:02:16Z</time>
      </trkpt>
      <trkpt lat="47.77491" lon="-3.60463">
        <ele>-51.24</ele>
        <time>2019-07-14T10:02:17Z</time>
      </trkpt>
      <trkpt lat="47.77497" lon="-3.6046">
        <ele>-51.08</ele>
        <time>2019-07-14T10:02:18Z</time>
      </trkpt>
      <trkpt lat="47.77503" lon="-3.60458">
        <ele>-50.82</ele>
        <time>2019-07-14T10:02:19Z</time>
      </trkpt>
      <trkpt lat="47.77509" lon="-3.60454">
        <ele>-50.61</ele>
        <time>2019-07-14T10:02:20Z</time>
      </trkpt>
      <trkpt lat="47.77514" lon="-3.60451">
        <ele>-50.61</ele>
        <time>2019-07-14T10:02:21Z</time>
      </trkpt>
      <trkpt lat="47.77518" lon="-3.60447">
        <ele>-50.61</ele>
        <time>2019-07-14T10:02:22Z</time>
      </trkpt>
      <trkpt lat="47.77523" lon="-3.60443">
        <ele>-50.33</ele>
        <time>2019-07-14T10:02:23Z</time>
      </trkpt>
      <trkpt lat="47.77527" lon="-3.60438">
        <ele>-50.18</ele>
        <time>2019-07-14T10:02:24Z</time>
      </trkpt>
      <trkpt lat="47.77531" lon="-3.60433">
        <ele>-49.99</ele>
        <time>2019-07-14T10:02:25Z</time>
      </trkpt>
      <trkpt lat="47.77535" lon="-3.60428">
        <ele>-49.73</ele>
        <time>2019-07-14T10:02:26Z</time>
      </trkpt>
      <trkpt lat="47.77538" lon="-3.60422">
        <ele>-49.72</ele>
        <time>2019-07-14T10:02:27Z</time>
      </trkpt>
      <trkpt lat="47.7754" lon="-3.60416">
        <ele>-49.78</ele>
        <time>2019-07-14T10:02:28Z</time>
      </trkpt>
      <trkpt lat="47.77543" lon="-3.6041">
        <ele>-49.73</ele>
        <time>2019-07-14T10:02:29Z</time>
      </trkpt>
      <trkpt lat="47.77545" lon="-3.60404">
        <ele>-49.58</ele>
        <time>2019-07-14T10:02:30Z</time>
      </trkpt>
      <trkpt lat="47.77548" lon="-3.60398">
        <ele>-49.32</ele>
        <time>2019-07-14T10:02:31Z</time>
      </trkpt>
      <trkpt lat="47.77551" lon="-3.60392">
        <ele>-49.24</ele>
        <time>2019-07-14T10:02:32Z</time>
      </trkpt>
      <trkpt lat="47.77554" lon="-3.60387">
        <ele>-49.15</ele>
        <time>2019-07-14T10:02:33Z</time>
      </trkpt>
      <trkpt lat="47.77558" lon="-3.60383">
        <ele>-48.91</ele>
        <time>2019-07-14T10:02:34Z</time>
      </trkpt>
      <trkpt lat="47.77562" lon="-3.60379">
        <ele>-48.77</ele>
        <time>2019-07-14T10:02:35Z</time>
      </trkpt>
      <trkpt lat="47.77567" lon="-3.60376">
        <ele>-47.96</ele>
        <time>2019-07-14T10:02:36Z</time>
      </trkpt>
      <trkpt lat="47.77572" lon="-3.60373">
        <ele>-47.02</ele>
        <time>2019-07-14T10:02:37Z</time>
      </trkpt>
      <trkpt lat="47.77576" lon="-3.60371">
        <ele>-46.31</ele>
        <time>2019-07-14T10:02:38Z</time>
      </trkpt>
      <trkpt lat="47.77582" lon="-3.6037">
        <ele>-45.89</ele>
        <time>2019-07-14T10:02:39Z</time>
      </trkpt>
      <trkpt lat="47.77587" lon="-3.6037">
        <ele>-45.63</ele>
        <time>2019-07-14T10:02:40Z</time>
      </trkpt>
      <trkpt lat="47.77592" lon="-3.60369">
        <ele>-45.34</ele>
        <time>2019-07-14T10:02:41Z</time>
      </trkpt>
      <trkpt lat="47.77598" lon="-3.60368">
        <ele>-45.04</ele>
        <time>2019-07-14T10:02:42Z</time>
      </trkpt>
      <trkpt lat="47.77603" lon="-3.60368">
        <ele>-44.74</ele>
        <time>2019-07-14T10:02:43Z</time>
      </trkpt>
      <trkpt lat="47.77608" lon="-3.60368">
        <ele>-44.51</ele>
        <time>2019-07-14T10:02:44Z</time>
      </trkpt>
      <trkpt lat="47.77614" lon="-3.60367">
        <ele>-44.23</ele>
        <time>2019-07-14T10:02:45Z</time>
      </trkpt>
      <trkpt lat="47.77619" lon="-3.60367">
        <ele>-44.01</ele>
        <time>2019-07-14T10:02:46Z</time>
      </trkpt>
      <trkpt lat="47.77624" lon="-3.60367">
        <ele>-43.8</ele>
        <time>2019-07-14T10:02:47Z</time>
      </trkpt>
      <trkpt lat="47.77629" lon="-3.60367">
        <ele>-43.39</ele>
        <time>2019-07-14T10:02:48Z</time>
      </trkpt>
      <trkpt lat="47.77633" lon="-3.60366">
        <ele>-43.33</ele>
        <time>2019-07-14T10:02:49Z</time>
      </trkpt>
      <trkpt lat="47.77638" lon="-3.60367">
        <ele>-43.67</ele>
        <time>2019-07-14T10:02:50Z</time>
      </trkpt>
      <trkpt lat="47.77642" lon="-3.60369">
        <ele>-43.84</ele>
        <time>2019-07-14T10:02:51Z</time>
      </trkpt>
      <trkpt lat="47.77647" lon="-3.60372">
        <ele>-43.75</ele>
        <time>2019-07-14T10:02:52Z</time>
      </trkpt>
      <trkpt lat="47.77653" lon="-3.60376">
        <ele>-43.65</ele>
        <time>2019-07-14T10:02:53Z</time>
      </trkpt>
      <trkpt lat="47.77658" lon="-3.6038">
        <ele>-43.48</ele>
        <time>2019-07-14T10:02:54Z</time>
      </trkpt>
      <trkpt lat="47.77663" lon="-3.60384">
        <ele>-43.57</ele>
        <time>2019-07-14T10:02:55Z</time>
      </trkpt>
      <trkpt lat="47.77667" lon="-3.60386">
        <ele>-43.67</ele>
        <time>2019-07-14T10:02:56Z</time>
      </trkpt>
      <trkpt lat="47.77672" lon="-3.60387">
        <ele>-44.31</ele>
        <time>2019-07-14T10:02:58Z</time>
      </trkpt>
      <trkpt lat="47.77678" lon="-3.60393">
        <ele>-45.5</ele>
        <time>2019-07-14T10:03:08Z</time>
      </trkpt>
      <trkpt lat="47.77686" lon="-3.604">
        <ele>-45.81</ele>
        <time>2019-07-14T10:03:10Z</time>
      </trkpt>
      <trkpt lat="47.7769" lon="-3.60403">
        <ele>-45.88</ele>
        <time>2019-07-14T10:03:11Z</time>
      </trkpt>
      <trkpt lat="47.77695" lon="-3.60406">
        <ele>-46.18</ele>
        <time>2019-07-14T10:03:12Z</time>
      </trkpt>
      <trkpt lat="47.77699" lon="-3.6041">
        <ele>-46.48</ele>
        <time>2019-07-14T10:03:13Z</time>
      </trkpt>
      <trkpt lat="47.77704" lon="-3.60414">
        <ele>-46.85</ele>
        <time>2019-07-14T10:03:14Z</time>
      </trkpt>
      <trkpt lat="47.77709" lon="-3.60418">
        <ele>-47.17</ele>
        <time>2019-07-14T10:03:15Z</time>
      </trkpt>
      <trkpt lat="47.77713" lon="-3.60422">
        <ele>-47.41</ele>
        <time>2019-07-14T10:03:16Z</time>
      </trkpt>
      <trkpt lat="47.77719" lon="-3.60425">
        <ele>-47.48</ele>
        <time>2019-07-14T10:03:17Z</time>
      </trkpt>
      <trkpt lat="47.77724" lon="-3.60429">
        <ele>-47.57</ele>
        <time>2019-07-14T10:03:18Z</time>
      </trkpt>
      <trkpt lat="47.77729" lon="-3.60433">
        <ele>-47.81</ele>
        <time>2019-07-14T10:03:19Z</time>
      </trkpt>
      <trkpt lat="47.77734" lon="-3.60436">
        <ele>-47.81</ele>
        <time>2019-07-14T10:03:20Z</time>
      </trkpt>
      <trkpt lat="47.77739" lon="-3.6044">
        <ele>-48.02</ele>
        <time>2019-07-14T10:03:21Z</time>
      </trkpt>
      <trkpt lat="47.77744" lon="-3.60444">
        <ele>-48.01</ele>
        <time>2019-07-14T10:03:22Z</time>
      </trkpt>
      <trkpt lat="47.77749" lon="-3.60447">
        <ele>-48.22</ele>
        <time>2019-07-14T10:03:23Z</time>
      </trkpt>
      <trkpt lat="47.77753" lon="-3.60451">
        <ele>-48.36</ele>
        <time>2019-07-14T10:03:24Z</time>
      </trkpt>
      <trkpt lat="47.77758" lon="-3.60454">
        <ele>-48.39</ele>
        <time>2019-07-14T10:03:25Z</time>
      </trkpt>
      <trkpt lat="47.77763" lon="-3.60458">
        <ele>-48.55</ele>
        <time>2019-07-14T10:03:26Z</time>
      </trkpt>
      <trkpt lat="47.77768" lon="-3.60461">
        <ele>-48.66</ele>
        <time>2019-07-14T10:03:27Z</time>
      </trkpt>
      <trkpt lat="47.77772" lon="-3.60465">
        <ele>-48.98</ele>
        <time>2019-07-14T10:03:28Z</time>
      </trkpt>
      <trkpt lat="47.77776" lon="-3.60468">
        <ele>-49.14</ele>
        <time>2019-07-14T10:03:29Z</time>
      </trkpt>
      <trkpt lat="47.77781" lon="-3.6047">
        <ele>-49.12</ele>
        <time>2019-07-14T10:03:30Z</time>
      </trkpt>
      <trkpt lat="47.77785" lon="-3.60473">
        <ele>-49.04</ele>
        <time>2019-07-14T10:03:31Z</time>
      </trkpt>
      <trkpt lat="47.77789" lon="-3.60477">
        <ele>-48.88</ele>
        <time>2019-07-14T10:03:32Z</time>
      </trkpt>
      <trkpt lat="47.77797" lon="-3.60482">
        <ele>-48.5</ele>
        <time>2019-07-14T10:03:34Z</time>
      </trkpt>
      <trkpt lat="47.77801" lon="-3.60485">
        <ele>-48.3</ele>
        <time>2019-07-14T10:03:35Z</time>
      </trkpt>
      <trkpt lat="47.77805" lon="-3.60488">
        <ele>-48.31</ele>
        <time>2019-07-14T10:03:36Z</time>
      </trkpt>
      <trkpt lat="47.7781" lon="-3.60491">
        <ele>-48.24</ele>
        <time>2019-07-14T10:03:37Z</time>
      </trkpt>
      <trkpt lat="47.77817" lon="-3.60497">
        <ele>-47.87</ele>
        <time>2019-07-14T10:03:39Z</time>
      </trkpt>
      <trkpt lat="47.77825" lon="-3.60502">
        <ele>-47.15</ele>
        <time>2019-07-14T10:03:41Z</time>
      </trkpt>
      <trkpt lat="47.77831" lon="-3.60505">
        <ele>-46.91</ele>
        <time>2019-07-14T10:03:43Z</time>
      </trkpt>
      <trkpt lat="47.77837" lon="-3.60506">
        <ele>-45.79</ele>
        <time>2019-07-14T10:03:46Z</time>
      </trkpt>
      <trkpt lat="47.77842" lon="-3.6051">
        <ele>-43.92</ele>
        <time>2019-07-14T10:03:49Z</time>
      </trkpt>
      <trkpt lat="47.77848" lon="-3.60512">
        <ele>-43.96</ele>
        <time>2019-07-14T10:03:52Z</time>
      </trkpt>
      <trkpt lat="47.77853" lon="-3.60514">
        <ele>-44.38</ele>
        <time>2019-07-14T10:03:54Z</time>
      </trkpt>
      <trkpt lat="47.77861" lon="-3.60516">
        <ele>-44.94</ele>
        <time>2019-07-14T10:03:56Z</time>
      </trkpt>
      <trkpt lat="47.7787" lon="-3.60518">
        <ele>-45.51</ele>
        <time>2019-07-14T10:03:58Z</time>
      </trkpt>
      <trkpt lat="47.77874" lon="-3.60522">
        <ele>-45.58</ele>
        <time>2019-07-14T10:03:59Z</time>
      </trkpt>
      <trkpt lat="47.77877" lon="-3.60526">
        <ele>-45.81</ele>
        <time>2019-07-14T10:04:00Z</time>
      </trkpt>
      <trkpt lat="47.77881" lon="-3.60537">
        <ele>-46.16</ele>
        <time>2019-07-14T10:04:02Z</time>
      </trkpt>
      <trkpt lat="47.77887" lon="-3.60549">
        <ele>-46.28</ele>
        <time>2019-07-14T10:04:04Z</time>
      </trkpt>
      <trkpt lat="47.77891" lon="-3.60559">
        <ele>-46.22</ele>
        <time>2019-07-14T10:04:06Z</time>
      </trkpt>
      <trkpt lat="47.77896" lon="-3.60568">
        <ele>-46.42</ele>
        <time>2019-07-14T10:04:08Z</time>
      </trkpt>
      <trkpt lat="47.779" lon="-3.60576">
        <ele>-46.76</ele>
        <time>2019-07-14T10:04:10Z</time>
      </trkpt>
      <trkpt lat="47.77903" lon="-3.60586">
        <ele>-46.55</ele>
        <time>2019-07-14T10:04:12Z</time>
      </trkpt>
      <trkpt lat="47.77904" lon="-3.60593">
        <ele>-47.03</ele>
        <time>2019-07-14T10:04:14Z</time>
      </trkpt>
      <trkpt lat="47.77906" lon="-3.60602">
        <ele>-48.3</ele>
        <time>2019-07-14T10:04:18Z</time>
      </trkpt>
      <trkpt lat="47.77906" lon="-3.60609">
        <ele>-48.68</ele>
        <time>2019-07-14T10:04:20Z</time>
      </trkpt>
      <trkpt lat="47.77906" lon="-3.60618">
        <ele>-48.71</ele>
        <time>2019-07-14T10:04:22Z</time>
      </trkpt>
      <trkpt lat="47.77907" lon="-3.60626">
        <ele>-49.12</ele>
        <time>2019-07-14T10:04:24Z</time>
      </trkpt>
      <trkpt lat="47.77906" lon="-3.60633">
        <ele>-49.46</ele>
        <time>2019-07-14T10:04:26Z</time>
      </trkpt>
      <trkpt lat="47.77907" lon="-3.60641">
        <ele>-49.94</ele>
        <time>2019-07-14T10:04:28Z</time>
      </trkpt>
      <trkpt lat="47.77907" lon="-3.6065">
        <ele>-50.26</ele>
        <time>2019-07-14T10:04:30Z</time>
      </trkpt>
      <trkpt lat="47.77907" lon="-3.60661">
        <ele>-50.47</ele>
        <time>2019-07-14T10:04:32Z</time>
      </trkpt>
      <trkpt lat="47.77909" lon="-3.60671">
        <ele>-50.67</ele>
        <time>2019-07-14T10:04:34Z</time>
      </trkpt>
      <trkpt lat="47.77908" lon="-3.60681">
        <ele>-50.78</ele>
        <time>2019-07-14T10:04:36Z</time>
      </trkpt>
      <trkpt lat="47.77908" lon="-3.60689">
        <ele>-50.45</ele>
        <time>2019-07-14T10:04:37Z</time>
      </trkpt>
      <trkpt lat="47.77908" lon="-3.60698">
        <ele>-50.25</ele>
        <time>2019-07-14T10:04:39Z</time>
      </trkpt>
      <trkpt lat="47.77908" lon="-3.60708">
        <ele>-50.31</ele>
        <time>2019-07-14T10:04:41Z</time>
      </trkpt>
      <trkpt lat="47.77907" lon="-3.60718">
        <ele>-49.97</ele>
        <time>2019-07-14T10:04:43Z</time>
      </trkpt>
      <trkpt lat="47.77904" lon="-3.60729">
        <ele>-49.99</ele>
        <time>2019-07-14T10:04:45Z</time>
      </trkpt>
      <trkpt lat="47.77903" lon="-3.60742">
        <ele>-50.01</ele>
        <time>2019-07-14T10:04:47Z</time>
      </trkpt>
      <trkpt lat="47.77899" lon="-3.6075">
        <ele>-50.29</ele>
        <time>2019-07-14T10:04:48Z</time>
      </trkpt>
      <trkpt lat="47.77898" lon="-3.60758">
        <ele>-49.75</ele>
        <time>2019-07-14T10:04:49Z</time>
      </trkpt>
      <trkpt lat="47.77898" lon="-3.60771">
        <ele>-49.17</ele>
        <time>2019-07-14T10:04:51Z</time>
      </trkpt>
      <trkpt lat="47.77897" lon="-3.60779">
        <ele>-48.71</ele>
        <time>2019-07-14T10:04:52Z</time>
      </trkpt>
      <trkpt lat="47.77896" lon="-3.60786">
        <ele>-47.8</ele>
        <time>2019-07-14T10:04:53Z</time>
      </trkpt>
      <trkpt lat="47.77893" lon="-3.60798">
        <ele>-46.87</ele>
        <time>2019-07-14T10:04:55Z</time>
      </trkpt>
      <trkpt lat="47.77888" lon="-3.60808">
        <ele>-46.78</ele>
        <time>2019-07-14T10:04:57Z</time>
      </trkpt>
      <trkpt lat="47.77885" lon="-3.60814">
        <ele>-46.31</ele>
        <time>2019-07-14T10:04:58Z</time>
      </trkpt>
      <trkpt lat="47.77881" lon="-3.60825">
        <ele>-45.83</ele>
        <time>2019-07-14T10:05:00Z</time>
      </trkpt>
      <trkpt lat="47.77878" lon="-3.60836">
        <ele>-45.31</ele>
        <time>2019-07-14T10:05:02Z</time>
      </trkpt>
      <trkpt lat="47.77878" lon="-3.60843">
        <ele>-44.96</ele>
        <time>2019-07-14T10:05:03Z</time>
      </trkpt>
      <trkpt lat="47.77878" lon="-3.6085">
        <ele>-44.51</ele>
        <time>2019-07-14T10:05:04Z</time>
      </trkpt>
      <trkpt lat="47.77878" lon="-3.60862">
        <ele>-43.76</ele>
        <time>2019-07-14T10:05:06Z</time>
      </trkpt>
      <trkpt lat="47.7788" lon="-3.60872">
        <ele>-43.25</ele>
        <time>2019-07-14T10:05:08Z</time>
      </trkpt>
      <trkpt lat="47.77882" lon="-3.60879">
        <ele>-43.01</ele>
        <time>2019-07-14T10:05:09Z</time>
      </trkpt>
      <trkpt lat="47.77884" lon="-3.60889">
        <ele>-42.05</ele>
        <time>2019-07-14T10:05:11Z</time>
      </trkpt>
      <trkpt lat="47.77884" lon="-3.60896">
        <ele>-40.87</ele>
        <time>2019-07-14T10:05:13Z</time>
      </trkpt>
      <trkpt lat="47.77882" lon="-3.60906">
        <ele>-39.9</ele>
        <time>2019-07-14T10:05:15Z</time>
      </trkpt>
      <trkpt lat="47.77882" lon="-3.60913">
        <ele>-39.77</ele>
        <time>2019-07-14T10:05:16Z</time>
      </trkpt>
      <trkpt lat="47.77881" lon="-3.60924">
        <ele>-39.07</ele>
        <time>2019-07-14T10:05:18Z</time>
      </trkpt>
      <trkpt lat="47.77878" lon="-3.60933">
        <ele>-38.35</ele>
        <time>2019-07-14T10:05:20Z</time>
      </trkpt>
      <trkpt lat="47.77875" lon="-3.6094">
        <ele>-38.15</ele>
        <time>2019-07-14T10:05:22Z</time>
      </trkpt>
      <trkpt lat="47.77871" lon="-3.60948">
        <ele>-37.31</ele>
        <time>2019-07-14T10:05:24Z</time>
      </trkpt>
      <trkpt lat="47.77863" lon="-3.60953">
        <ele>-36.18</ele>
        <time>2019-07-14T10:05:26Z</time>
      </trkpt>
      <trkpt lat="47.77856" lon="-3.60956">
        <ele>-34.73</ele>
        <time>2019-07-14T10:05:28Z</time>
      </trkpt>
      <trkpt lat="47.77849" lon="-3.60958">
        <ele>-33.68</ele>
        <time>2019-07-14T10:05:30Z</time>
      </trkpt>
      <trkpt lat="47.77844" lon="-3.60958">
        <ele>-33.28</ele>
        <time>2019-07-14T10:05:31Z</time>
      </trkpt>
      <trkpt lat="47.77836" lon="-3.60958">
        <ele>-32.3</ele>
        <time>2019-07-14T10:05:33Z</time>
      </trkpt>
      <trkpt lat="47.77831" lon="-3.60959">
        <ele>-31.68</ele>
        <time>2019-07-14T10:05:34Z</time>
      </trkpt>
      <trkpt lat="47.77823" lon="-3.60959">
        <ele>-30.72</ele>
        <time>2019-07-14T10:05:36Z</time>
      </trkpt>
      <trkpt lat="47.77817" lon="-3.60958">
        <ele>-30.37</ele>
        <time>2019-07-14T10:05:37Z</time>
      </trkpt>
      <trkpt lat="47.77812" lon="-3.60956">
        <ele>-30.12</ele>
        <time>2019-07-14T10:05:38Z</time>
      </trkpt>
      <trkpt lat="47.77805" lon="-3.60954">
        <ele>-29.76</ele>
        <time>2019-07-14T10:05:39Z</time>
      </trkpt>
      <trkpt lat="47.778" lon="-3.60954">
        <ele>-29.73</ele>
        <time>2019-07-14T10:05:40Z</time>
      </trkpt>
      <trkpt lat="47.77794" lon="-3.60952">
        <ele>-29.58</ele>
        <time>2019-07-14T10:05:41Z</time>
      </trkpt>
      <trkpt lat="47.77788" lon="-3.60951">
        <ele>-29.11</ele>
        <time>2019-07-14T10:05:42Z</time>
      </trkpt>
      <trkpt lat="47.77783" lon="-3.60948">
        <ele>-28.62</ele>
        <time>2019-07-14T10:05:43Z</time>
      </trkpt>
      <trkpt lat="47.77777" lon="-3.60947">
        <ele>-28.12</ele>
        <time>2019-07-14T10:05:44Z</time>
      </trkpt>
      <trkpt lat="47.77773" lon="-3.60945">
        <ele>-28.05</ele>
        <time>2019-07-14T10:05:45Z</time>
      </trkpt>
      <trkpt lat="47.77766" lon="-3.60944">
        <ele>-27.67</ele>
        <time>2019-07-14T10:05:47Z</time>
      </trkpt>
      <trkpt lat="47.77762" lon="-3.60946">
        <ele>-27.16</ele>
        <time>2019-07-14T10:05:49Z</time>
      </trkpt>
      <trkpt lat="47.77759" lon="-3.60954">
        <ele>-26.5</ele>
        <time>2019-07-14T10:05:51Z</time>
      </trkpt>
      <trkpt lat="47.77756" lon="-3.60961">
        <ele>-26.16</ele>
        <time>2019-07-14T10:05:52Z</time>
      </trkpt>
      <trkpt lat="47.77754" lon="-3.60968">
        <ele>-25.85</ele>
        <time>2019-07-14T10:05:53Z</time>
      </trkpt>
      <trkpt lat="47.77753" lon="-3.60975">
        <ele>-25.47</ele>
        <time>2019-07-14T10:05:54Z</time>
      </trkpt>
      <trkpt lat="47.77749" lon="-3.60987">
        <ele>-25.1</ele>
        <time>2019-07-14T10:05:56Z</time>
      </trkpt>
      <trkpt lat="47.77747" lon="-3.60994">
        <ele>-24.9</ele>
        <time>2019-07-14T10:05:57Z</time>
      </trkpt>
      <trkpt lat="47.77746" lon="-3.61">
        <ele>-24.63</ele>
        <time>2019-07-14T10:05:58Z</time>
      </trkpt>
      <trkpt lat="47.77744" lon="-3.61012">
        <ele>-24.2</ele>
        <time>2019-07-14T10:06:00Z</time>
      </trkpt>
      <trkpt lat="47.77743" lon="-3.61024">
        <ele>-23.82</ele>
        <time>2019-07-14T10:06:02Z</time>
      </trkpt>
      <trkpt lat="47.77742" lon="-3.61031">
        <ele>-23.39</ele>
        <time>2019-07-14T10:06:03Z</time>
      </trkpt>
      <trkpt lat="47.77741" lon="-3.61045">
        <ele>-22.37</ele>
        <time>2019-07-14T10:06:05Z</time>
      </trkpt>
      <trkpt lat="47.77738" lon="-3.61057">
        <ele>-21.31</ele>
        <time>2019-07-14T10:06:07Z</time>
      </trkpt>
      <trkpt lat="47.77736" lon="-3.61063">
        <ele>-21.17</ele>
        <time>2019-07-14T10:06:08Z</time>
      </trkpt>
      <trkpt lat="47.77734" lon="-3.6107">
        <ele>-20.85</ele>
        <time>2019-07-14T10:06:09Z</time>
      </trkpt>
      <trkpt lat="47.77732" lon="-3.61076">
        <ele>-20.4</ele>
        <time>2019-07-14T10:06:10Z</time>
      </trkpt>
      <trkpt lat="47.77727" lon="-3.61086">
        <ele>-19.8</ele>
        <time>2019-07-14T10:06:12Z</time>
      </trkpt>
      <trkpt lat="47.77724" lon="-3.61092">
        <ele>-19.67</ele>
        <time>2019-07-14T10:06:13Z</time>
      </trkpt>
      <trkpt lat="47.77721" lon="-3.61103">
        <ele>-20.1</ele>
        <time>2019-07-14T10:06:15Z</time>
      </trkpt>
      <trkpt lat="47.77719" lon="-3.6111">
        <ele>-20.18</ele>
        <time>2019-07-14T10:06:16Z</time>
      </trkpt>
      <trkpt lat="47.77718" lon="-3.61116">
        <ele>-20.41</ele>
        <time>2019-07-14T10:06:17Z</time>
      </trkpt>
      <trkpt lat="47.77716" lon="-3.61124">
        <ele>-21.04</ele>
        <time>2019-07-14T10:06:18Z</time>
      </trkpt>
      <trkpt lat="47.77714" lon="-3.61131">
        <ele>-21.37</ele>
        <time>2019-07-14T10:06:19Z</time>
      </trkpt>
      <trkpt lat="47.77712" lon="-3.61142">
        <ele>-21.73</ele>
        <time>2019-07-14T10:06:21Z</time>
      </trkpt>
      <trkpt lat="47.77711" lon="-3.61148">
        <ele>-21.72</ele>
        <time>2019-07-14T10:06:22Z</time>
      </trkpt>
      <trkpt lat="47.7771" lon="-3.61158">
        <ele>-21.92</ele>
        <time>2019-07-14T10:06:23Z</time>
      </trkpt>
      <trkpt lat="47.77709" lon="-3.61166">
        <ele>-21.99</ele>
        <time>2019-07-14T10:06:24Z</time>
      </trkpt>
      <trkpt lat="47.77708" lon="-3.61176">
        <ele>-22</ele>
        <time>2019-07-14T10:06:25Z</time>
      </trkpt>
      <trkpt lat="47.77706" lon="-3.61185">
        <ele>-21.87</ele>
        <time>2019-07-14T10:06:26Z</time>
      </trkpt>
      <trkpt lat="47.77706" lon="-3.61196">
        <ele>-21.76</ele>
        <time>2019-07-14T10:06:27Z</time>
      </trkpt>
      <trkpt lat="47.77706" lon="-3.61206">
        <ele>-21.59</ele>
        <time>2019-07-14T10:06:28Z</time>
      </trkpt>
      <trkpt lat="47.77706" lon="-3.61216">
        <ele>-21.74</ele>
        <time>2019-07-14T10:06:29Z</time>
      </trkpt>
      <trkpt lat="47.77705" lon="-3.61225">
        <ele>-21.72</ele>
        <time>2019-07-14T10:06:30Z</time>
      </trkpt>
      <trkpt lat="47.77704" lon="-3.61235">
        <ele>-21.29</ele>
        <time>2019-07-14T10:06:31Z</time>
      </trkpt>
      <trkpt lat="47.77702" lon="-3.61242">
        <ele>-21.1</ele>
        <time>2019-07-14T10:06:32Z</time>
      </trkpt>
      <trkpt lat="47.77698" lon="-3.6125">
        <ele>-21.11</ele>
        <time>2019-07-14T10:06:34Z</time>
      </trkpt>
      <trkpt lat="47.77689" lon="-3.61253">
        <ele>-21.27</ele>
        <time>2019-07-14T10:06:36Z</time>
      </trkpt>
      <trkpt lat="47.77684" lon="-3.61255">
        <ele>-21.51</ele>
        <time>2019-07-14T10:06:37Z</time>
      </trkpt>
      <trkpt lat="47.77678" lon="-3.61255">
        <ele>-21.65</ele>
        <time>2019-07-14T10:06:38Z</time>
      </trkpt>
      <trkpt lat="47.77671" lon="-3.61258">
        <ele>-21.97</ele>
        <time>2019-07-14T10:06:39Z</time>
      </trkpt>
      <trkpt lat="47.77664" lon="-3.6126">
        <ele>-22.56</ele>
        <time>2019-07-14T10:06:40Z</time>
      </trkpt>
      <trkpt lat="47.77657" lon="-3.61259">
        <ele>-22.95</ele>
        <time>2019-07-14T10:06:41Z</time>
      </trkpt>
      <trkpt lat="47.77653" lon="-3.61256">
        <ele>-23.2</ele>
        <time>2019-07-14T10:06:42Z</time>
      </trkpt>
      <trkpt lat="47.77649" lon="-3.61253">
        <ele>-23.49</ele>
        <time>2019-07-14T10:06:43Z</time>
      </trkpt>
      <trkpt lat="47.77645" lon="-3.61249">
        <ele>-23.86</ele>
        <time>2019-07-14T10:06:44Z</time>
      </trkpt>
      <trkpt lat="47.77641" lon="-3.61245">
        <ele>-24.38</ele>
        <time>2019-07-14T10:06:45Z</time>
      </trkpt>
      <trkpt lat="47.77636" lon="-3.61242">
        <ele>-24.61</ele>
        <time>2019-07-14T10:06:46Z</time>
      </trkpt>
      <trkpt lat="47.77632" lon="-3.61239">
        <ele>-24.96</ele>
        <time>2019-07-14T10:06:47Z</time>
      </trkpt>
      <trkpt lat="47.77624" lon="-3.61236">
        <ele>-25.79</ele>
        <time>2019-07-14T10:06:49Z</time>
      </trkpt>
      <trkpt lat="47.77614" lon="-3.61235">
        <ele>-26.15</ele>
        <time>2019-07-14T10:06:51Z</time>
      </trkpt>
      <trkpt lat="47.77608" lon="-3.61236">
        <ele>-26.33</ele>
        <time>2019-07-14T10:06:52Z</time>
      </trkpt>
      <trkpt lat="47.77604" lon="-3.61237">
        <ele>-26.25</ele>
        <time>2019-07-14T10:06:53Z</time>
      </trkpt>
      <trkpt lat="47.77597" lon="-3.61246">
        <ele>-25.47</ele>
        <time>2019-07-14T10:06:55Z</time>
      </trkpt>
      <trkpt lat="47.77596" lon="-3.61252">
        <ele>-25.64</ele>
        <time>2019-07-14T10:06:56Z</time>
      </trkpt>
      <trkpt lat="47.77595" lon="-3.61259">
        <ele>-25.83</ele>
        <time>2019-07-14T10:06:57Z</time>
      </trkpt>
      <trkpt lat="47.77594" lon="-3.61271">
        <ele>-26.8</ele>
        <time>2019-07-14T10:06:59Z</time>
      </trkpt>
      <trkpt lat="47.77594" lon="-3.61279">
        <ele>-28.3</ele>
        <time>2019-07-14T10:07:01Z</time>
      </trkpt>
      <trkpt lat="47.77598" lon="-3.61283">
        <ele>-30.38</ele>
        <time>2019-07-14T10:07:04Z</time>
      </trkpt>
      <trkpt lat="47.77593" lon="-3.61285">
        <ele>-32.01</ele>
        <time>2019-07-14T10:07:16Z</time>
      </trkpt>
      <trkpt lat="47.77588" lon="-3.61289">
        <ele>-32.29</ele>
        <time>2019-07-14T10:07:17Z</time>
      </trkpt>
      <trkpt lat="47.77583" lon="-3.61292">
        <ele>-32.66</ele>
        <time>2019-07-14T10:07:18Z</time>
      </trkpt>
      <trkpt lat="47.77579" lon="-3.61295">
        <ele>-33.05</ele>
        <time>2019-07-14T10:07:19Z</time>
      </trkpt>
      <trkpt lat="47.77573" lon="-3.61298">
        <ele>-33.16</ele>
        <time>2019-07-14T10:07:20Z</time>
      </trkpt>
      <trkpt lat="47.77569" lon="-3.61299">
        <ele>-33.27</ele>
        <time>2019-07-14T10:07:21Z</time>
      </trkpt>
      <trkpt lat="47.77564" lon="-3.61298">
        <ele>-33.37</ele>
        <time>2019-07-14T10:07:22Z</time>
      </trkpt>
      <trkpt lat="47.77559" lon="-3.61296">
        <ele>-33.33</ele>
        <time>2019-07-14T10:07:23Z</time>
      </trkpt>
      <trkpt lat="47.77555" lon="-3.61293">
        <ele>-33.18</ele>
        <time>2019-07-14T10:07:24Z</time>
      </trkpt>
      <trkpt lat="47.77551" lon="-3.61288">
        <ele>-33.13</ele>
        <time>2019-07-14T10:07:25Z</time>
      </trkpt>
      <trkpt lat="47.77548" lon="-3.61284">
        <ele>-32.91</ele>
        <time>2019-07-14T10:07:26Z</time>
      </trkpt>
      <trkpt lat="47.77541" lon="-3.61275">
        <ele>-32.32</ele>
        <time>2019-07-14T10:07:28Z</time>
      </trkpt>
      <trkpt lat="47.77534" lon="-3.61268">
        <ele>-31.56</ele>
        <time>2019-07-14T10:07:30Z</time>
      </trkpt>
      <trkpt lat="47.7753" lon="-3.61263">
        <ele>-31.88</ele>
        <time>2019-07-14T10:07:31Z</time>
      </trkpt>
      <trkpt lat="47.77524" lon="-3.61257">
        <ele>-31.39</ele>
        <time>2019-07-14T10:07:33Z</time>
      </trkpt>
      <trkpt lat="47.77519" lon="-3.61253">
        <ele>-29.99</ele>
        <time>2019-07-14T10:07:35Z</time>
      </trkpt>
      <trkpt lat="47.77514" lon="-3.6125">
        <ele>-29.16</ele>
        <time>2019-07-14T10:07:37Z</time>
      </trkpt>
      <trkpt lat="47.77509" lon="-3.61248">
        <ele>-28.93</ele>
        <time>2019-07-14T10:07:39Z</time>
      </trkpt>
      <trkpt lat="47.77506" lon="-3.61256">
        <ele>-28.72</ele>
        <time>2019-07-14T10:07:42Z</time>
      </trkpt>
      <trkpt lat="47.77509" lon="-3.61263">
        <ele>-28.51</ele>
        <time>2019-07-14T10:07:44Z</time>
      </trkpt>
      <trkpt lat="47.77514" lon="-3.61273">
        <ele>-28.97</ele>
        <time>2019-07-14T10:07:46Z</time>
      </trkpt>
      <trkpt lat="47.77516" lon="-3.61278">
        <ele>-29.42</ele>
        <time>2019-07-14T10:07:47Z</time>
      </trkpt>
      <trkpt lat="47.7752" lon="-3.61288">
        <ele>-30.15</ele>
        <time>2019-07-14T10:07:49Z</time>
      </trkpt>
      <trkpt lat="47.77523" lon="-3.61298">
        <ele>-30.78</ele>
        <time>2019-07-14T10:07:51Z</time>
      </trkpt>
      <trkpt lat="47.77525" lon="-3.61305">
        <ele>-31.22</ele>
        <time>2019-07-14T10:07:52Z</time>
      </trkpt>
      <trkpt lat="47.77526" lon="-3.61311">
        <ele>-31.29</ele>
        <time>2019-07-14T10:07:53Z</time>
      </trkpt>
      <trkpt lat="47.7753" lon="-3.61323">
        <ele>-31.38</ele>
        <time>2019-07-14T10:07:55Z</time>
      </trkpt>
      <trkpt lat="47.77532" lon="-3.6133">
        <ele>-31.4</ele>
        <time>2019-07-14T10:07:56Z</time>
      </trkpt>
      <trkpt lat="47.77533" lon="-3.61337">
        <ele>-32.04</ele>
        <time>2019-07-14T10:07:57Z</time>
      </trkpt>
      <trkpt lat="47.77534" lon="-3.61344">
        <ele>-32.44</ele>
        <time>2019-07-14T10:07:58Z</time>
      </trkpt>
      <trkpt lat="47.77537" lon="-3.61351">
        <ele>-32.98</ele>
        <time>2019-07-14T10:07:59Z</time>
      </trkpt>
      <trkpt lat="47.77539" lon="-3.61358">
        <ele>-33.49</ele>
        <time>2019-07-14T10:08:00Z</time>
      </trkpt>
      <trkpt lat="47.77541" lon="-3.61364">
        <ele>-33.93</ele>
        <time>2019-07-14T10:08:01Z</time>
      </trkpt>
      <trkpt lat="47.77544" lon="-3.61371">
        <ele>-34.55</ele>
        <time>2019-07-14T10:08:02Z</time>
      </trkpt>
      <trkpt lat="47.77546" lon="-3.61378">
        <ele>-34.8</ele>
        <time>2019-07-14T10:08:03Z</time>
      </trkpt>
      <trkpt lat="47.77548" lon="-3.61385">
        <ele>-35.02</ele>
        <time>2019-07-14T10:08:04Z</time>
      </trkpt>
      <trkpt lat="47.77548" lon="-3.61394">
        <ele>-35.71</ele>
        <time>2019-07-14T10:08:05Z</time>
      </trkpt>
      <trkpt lat="47.77553" lon="-3.61401">
        <ele>-34.52</ele>
        <time>2019-07-14T10:08:06Z</time>
      </trkpt>
      <trkpt lat="47.77558" lon="-3.6141">
        <ele>-33.71</ele>
        <time>2019-07-14T10:08:08Z</time>
      </trkpt>
      <trkpt lat="47.77565" lon="-3.61414">
        <ele>-33.69</ele>
        <time>2019-07-14T10:08:10Z</time>
      </trkpt>
      <trkpt lat="47.77569" lon="-3.61415">
        <ele>-33.78</ele>
        <time>2019-07-14T10:08:11Z</time>
      </trkpt>
      <trkpt lat="47.77574" lon="-3.61417">
        <ele>-33.8</ele>
        <time>2019-07-14T10:08:12Z</time>
      </trkpt>
      <trkpt lat="47.77579" lon="-3.61417">
        <ele>-33.74</ele>
        <time>2019-07-14T10:08:13Z</time>
      </trkpt>
      <trkpt lat="47.77583" lon="-3.61417">
        <ele>-33.37</ele>
        <time>2019-07-14T10:08:14Z</time>
      </trkpt>
      <trkpt lat="47.77588" lon="-3.61417">
        <ele>-33.26</ele>
        <time>2019-07-14T10:08:15Z</time>
      </trkpt>
      <trkpt lat="47.77593" lon="-3.61416">
        <ele>-33.09</ele>
        <time>2019-07-14T10:08:16Z</time>
      </trkpt>
      <trkpt lat="47.77601" lon="-3.6141">
        <ele>-32.49</ele>
        <time>2019-07-14T10:08:18Z</time>
      </trkpt>
      <trkpt lat="47.77606" lon="-3.61407">
        <ele>-31.8</ele>
        <time>2019-07-14T10:08:19Z</time>
      </trkpt>
      <trkpt lat="47.77611" lon="-3.61408">
        <ele>-31.25</ele>
        <time>2019-07-14T10:08:20Z</time>
      </trkpt>
      <trkpt lat="47.77616" lon="-3.61415">
        <ele>-30.19</ele>
        <time>2019-07-14T10:08:22Z</time>
      </trkpt>
      <trkpt lat="47.77619" lon="-3.61421">
        <ele>-29.85</ele>
        <time>2019-07-14T10:08:23Z</time>
      </trkpt>
      <trkpt lat="47.77623" lon="-3.61432">
        <ele>-30.65</ele>
        <time>2019-07-14T10:08:25Z</time>
      </trkpt>
      <trkpt lat="47.77624" lon="-3.61445">
        <ele>-31.76</ele>
        <time>2019-07-14T10:08:27Z</time>
      </trkpt>
      <trkpt lat="47.77625" lon="-3.61452">
        <ele>-32.01</ele>
        <time>2019-07-14T10:08:28Z</time>
      </trkpt>
      <trkpt lat="47.77625" lon="-3.6146">
        <ele>-32.08</ele>
        <time>2019-07-14T10:08:29Z</time>
      </trkpt>
      <trkpt lat="47.77625" lon="-3.61467">
        <ele>-31.75</ele>
        <time>2019-07-14T10:08:30Z</time>
      </trkpt>
      <trkpt lat="47.77625" lon="-3.61474">
        <ele>-31.3</ele>
        <time>2019-07-14T10:08:31Z</time>
      </trkpt>
      <trkpt lat="47.77624" lon="-3.61482">
        <ele>-31.1</ele>
        <time>2019-07-14T10:08:32Z</time>
      </trkpt>
      <trkpt lat="47.77624" lon="-3.6149">
        <ele>-31.32</ele>
        <time>2019-07-14T10:08:33Z</time>
      </trkpt>
      <trkpt lat="47.77624" lon="-3.61498">
        <ele>-31.38</ele>
        <time>2019-07-14T10:08:34Z</time>
      </trkpt>
      <trkpt lat="47.77624" lon="-3.61506">
        <ele>-31.26</ele>
        <time>2019-07-14T10:08:35Z</time>
      </trkpt>
      <trkpt lat="47.77623" lon="-3.61514">
        <ele>-31.02</ele>
        <time>2019-07-14T10:08:36Z</time>
      </trkpt>
      <trkpt lat="47.77624" lon="-3.61522">
        <ele>-31.15</ele>
        <time>2019-07-14T10:08:37Z</time>
      </trkpt>
      <trkpt lat="47.77624" lon="-3.61529">
        <ele>-31.33</ele>
        <time>2019-07-14T10:08:38Z</time>
      </trkpt>
      <trkpt lat="47.77625" lon="-3.61537">
        <ele>-31.18</ele>
        <time>2019-07-14T10:08:39Z</time>
      </trkpt>
      <trkpt lat="47.77624" lon="-3.61545">
        <ele>-30.92</ele>
        <time>2019-07-14T10:08:40Z</time>
      </trkpt>
      <trkpt lat="47.77624" lon="-3.61553">
        <ele>-30.99</ele>
        <time>2019-07-14T10:08:41Z</time>
      </trkpt>
      <trkpt lat="47.77624" lon="-3.61561">
        <ele>-31.14</ele>
        <time>2019-07-14T10:08:42Z</time>
      </trkpt>
      <trkpt lat="47.77624" lon="-3.61568">
        <ele>-31.61</ele>
        <time>2019-07-14T10:08:43Z</time>
      </trkpt>
      <trkpt lat="47.77623" lon="-3.61575">
        <ele>-31.47</ele>
        <time>2019-07-14T10:08:44Z</time>
      </trkpt>
      <trkpt lat="47.77622" lon="-3.61582">
        <ele>-31.22</ele>
        <time>2019-07-14T10:08:45Z</time>
      </trkpt>
      <trkpt lat="47.77621" lon="-3.6159">
        <ele>-30.93</ele>
        <time>2019-07-14T10:08:46Z</time>
      </trkpt>
      <trkpt lat="47.77619" lon="-3.61602">
        <ele>-30.59</ele>
        <time>2019-07-14T10:08:48Z</time>
      </trkpt>
      <trkpt lat="47.77612" lon="-3.61609">
        <ele>-29.37</ele>
        <time>2019-07-14T10:08:50Z</time>
      </trkpt>
      <trkpt lat="47.77608" lon="-3.61612">
        <ele>-28.91</ele>
        <time>2019-07-14T10:08:51Z</time>
      </trkpt>
      <trkpt lat="47.77604" lon="-3.61616">
        <ele>-28.35</ele>
        <time>2019-07-14T10:08:52Z</time>
      </trkpt>
      <trkpt lat="47.77596" lon="-3.61624">
        <ele>-27.63</ele>
        <time>2019-07-14T10:08:54Z</time>
      </trkpt>
      <trkpt lat="47.77592" lon="-3.61627">
        <ele>-27.27</ele>
        <time>2019-07-14T10:08:55Z</time>
      </trkpt>
      <trkpt lat="47.77588" lon="-3.61631">
        <ele>-26.95</ele>
        <time>2019-07-14T10:08:56Z</time>
      </trkpt>
      <trkpt lat="47.77584" lon="-3.61634">
        <ele>-26.64</ele>
        <time>2019-07-14T10:08:57Z</time>
      </trkpt>
      <trkpt lat="47.77579" lon="-3.61638">
        <ele>-26.41</ele>
        <time>2019-07-14T10:08:58Z</time>
      </trkpt>
      <trkpt lat="47.77575" lon="-3.61642">
        <ele>-25.85</ele>
        <time>2019-07-14T10:08:59Z</time>
      </trkpt>
      <trkpt lat="47.77571" lon="-3.61645">
        <ele>-25.12</ele>
        <time>2019-07-14T10:09:00Z</time>
      </trkpt>
      <trkpt lat="47.77564" lon="-3.61652">
        <ele>-24.06</ele>
        <time>2019-07-14T10:09:02Z</time>
      </trkpt>
      <trkpt lat="47.77559" lon="-3.61659">
        <ele>-23.47</ele>
        <time>2019-07-14T10:09:04Z</time>
      </trkpt>
      <trkpt lat="47.77555" lon="-3.61663">
        <ele>-23.08</ele>
        <time>2019-07-14T10:09:05Z</time>
      </trkpt>
      <trkpt lat="47.77548" lon="-3.61672">
        <ele>-22.42</ele>
        <time>2019-07-14T10:09:07Z</time>
      </trkpt>
      <trkpt lat="47.77543" lon="-3.61679">
        <ele>-22.28</ele>
        <time>2019-07-14T10:09:08Z</time>
      </trkpt>
      <trkpt lat="47.77539" lon="-3.61684">
        <ele>-22.09</ele>
        <time>2019-07-14T10:09:09Z</time>
      </trkpt>
      <trkpt lat="47.77535" lon="-3.61687">
        <ele>-21.76</ele>
        <time>2019-07-14T10:09:10Z</time>
      </trkpt>
      <trkpt lat="47.7753" lon="-3.61691">
        <ele>-21.38</ele>
        <time>2019-07-14T10:09:11Z</time>
      </trkpt>
      <trkpt lat="47.77525" lon="-3.61693">
        <ele>-20.98</ele>
        <time>2019-07-14T10:09:12Z</time>
      </trkpt>
      <trkpt lat="47.77519" lon="-3.61694">
        <ele>-20.51</ele>
        <time>2019-07-14T10:09:13Z</time>
      </trkpt>
      <trkpt lat="47.77514" lon="-3.61694">
        <ele>-19.95</ele>
        <time>2019-07-14T10:09:14Z</time>
      </trkpt>
      <trkpt lat="47.77508" lon="-3.61696">
        <ele>-19.43</ele>
        <time>2019-07-14T10:09:15Z</time>
      </trkpt>
      <trkpt lat="47.77501" lon="-3.61699">
        <ele>-18.65</ele>
        <time>2019-07-14T10:09:16Z</time>
      </trkpt>
      <trkpt lat="47.77495" lon="-3.617">
        <ele>-17.85</ele>
        <time>2019-07-14T10:09:17Z</time>
      </trkpt>
      <trkpt lat="47.77489" lon="-3.61701">
        <ele>-17.4</ele>
        <time>2019-07-14T10:09:18Z</time>
      </trkpt>
      <trkpt lat="47.77483" lon="-3.61702">
        <ele>-17.2</ele>
        <time>2019-07-14T10:09:19Z</time>
      </trkpt>
      <trkpt lat="47.77479" lon="-3.61702">
        <ele>-17</ele>
        <time>2019-07-14T10:09:20Z</time>
      </trkpt>
      <trkpt lat="47.77474" lon="-3.61706">
        <ele>-16.83</ele>
        <time>2019-07-14T10:09:22Z</time>
      </trkpt>
      <trkpt lat="47.77476" lon="-3.61713">
        <ele>-17.18</ele>
        <time>2019-07-14T10:09:24Z</time>
      </trkpt>
      <trkpt lat="47.77484" lon="-3.61717">
        <ele>-18.11</ele>
        <time>2019-07-14T10:09:26Z</time>
      </trkpt>
      <trkpt lat="47.77493" lon="-3.61719">
        <ele>-18.55</ele>
        <time>2019-07-14T10:09:28Z</time>
      </trkpt>
      <trkpt lat="47.77497" lon="-3.61721">
        <ele>-18.66</ele>
        <time>2019-07-14T10:09:29Z</time>
      </trkpt>
      <trkpt lat="47.77502" lon="-3.61723">
        <ele>-19.19</ele>
        <time>2019-07-14T10:09:30Z</time>
      </trkpt>
      <trkpt lat="47.77507" lon="-3.61725">
        <ele>-19.27</ele>
        <time>2019-07-14T10:09:31Z</time>
      </trkpt>
      <trkpt lat="47.77512" lon="-3.61729">
        <ele>-19.3</ele>
        <time>2019-07-14T10:09:32Z</time>
      </trkpt>
      <trkpt lat="47.77517" lon="-3.61732">
        <ele>-19.31</ele>
        <time>2019-07-14T10:09:33Z</time>
      </trkpt>
      <trkpt lat="47.77522" lon="-3.61734">
        <ele>-19.24</ele>
        <time>2019-07-14T10:09:34Z</time>
      </trkpt>
      <trkpt lat="47.77527" lon="-3.61736">
        <ele>-19.43</ele>
        <time>2019-07-14T10:09:35Z</time>
      </trkpt>
      <trkpt lat="47.77532" lon="-3.61737">
        <ele>-19.56</ele>
        <time>2019-07-14T10:09:36Z</time>
      </trkpt>
      <trkpt lat="47.77537" lon="-3.61738">
        <ele>-19.6</ele>
        <time>2019-07-14T10:09:37Z</time>
      </trkpt>
      <trkpt lat="47.77542" lon="-3.61739">
        <ele>-19.54</ele>
        <time>2019-07-14T10:09:38Z</time>
      </trkpt>
      <trkpt lat="47.77548" lon="-3.61739">
        <ele>-19.73</ele>
        <time>2019-07-14T10:09:39Z</time>
      </trkpt>
      <trkpt lat="47.77554" lon="-3.6174">
        <ele>-19.65</ele>
        <time>2019-07-14T10:09:40Z</time>
      </trkpt>
      <trkpt lat="47.77562" lon="-3.61742">
        <ele>-20.67</ele>
        <time>2019-07-14T10:09:41Z</time>
      </trkpt>
      <trkpt lat="47.77567" lon="-3.61744">
        <ele>-22.17</ele>
        <time>2019-07-14T10:09:42Z</time>
      </trkpt>
      <trkpt lat="47.77572" lon="-3.61745">
        <ele>-23.32</ele>
        <time>2019-07-14T10:09:43Z</time>
      </trkpt>
      <trkpt lat="47.77578" lon="-3.61745">
        <ele>-24.36</ele>
        <time>2019-07-14T10:09:44Z</time>
      </trkpt>
      <trkpt lat="47.77583" lon="-3.61744">
        <ele>-25.1</ele>
        <time>2019-07-14T10:09:45Z</time>
      </trkpt>
      <trkpt lat="47.77588" lon="-3.61743">
        <ele>-25.6</ele>
        <time>2019-07-14T10:09:46Z</time>
      </trkpt>
      <trkpt lat="47.77593" lon="-3.61741">
        <ele>-26.24</ele>
        <time>2019-07-14T10:09:47Z</time>
      </trkpt>
      <trkpt lat="47.77598" lon="-3.6174">
        <ele>-26.71</ele>
        <time>2019-07-14T10:09:48Z</time>
      </trkpt>
      <trkpt lat="47.77604" lon="-3.61738">
        <ele>-26.85</ele>
        <time>2019-07-14T10:09:49Z</time>
      </trkpt>
      <trkpt lat="47.7761" lon="-3.61736">
        <ele>-27.59</ele>
        <time>2019-07-14T10:09:50Z</time>
      </trkpt>
      <trkpt lat="47.77616" lon="-3.61734">
        <ele>-28.38</ele>
        <time>2019-07-14T10:09:51Z</time>
      </trkpt>
      <trkpt lat="47.77622" lon="-3.61731">
        <ele>-28.89</ele>
        <time>2019-07-14T10:09:52Z</time>
      </trkpt>
      <trkpt lat="47.77629" lon="-3.61728">
        <ele>-28.77</ele>
        <time>2019-07-14T10:09:53Z</time>
      </trkpt>
      <trkpt lat="47.77635" lon="-3.61725">
        <ele>-28.59</ele>
        <time>2019-07-14T10:09:54Z</time>
      </trkpt>
      <trkpt lat="47.77641" lon="-3.61723">
        <ele>-28.25</ele>
        <time>2019-07-14T10:09:55Z</time>
      </trkpt>
      <trkpt lat="47.77647" lon="-3.61721">
        <ele>-28.08</ele>
        <time>2019-07-14T10:09:56Z</time>
      </trkpt>
      <trkpt lat="47.77653" lon="-3.61719">
        <ele>-27.89</ele>
        <time>2019-07-14T10:09:57Z</time>
      </trkpt>
      <trkpt lat="47.77659" lon="-3.61718">
        <ele>-27</ele>
        <time>2019-07-14T10:09:58Z</time>
      </trkpt>
      <trkpt lat="47.77665" lon="-3.61716">
        <ele>-25.96</ele>
        <time>2019-07-14T10:09:59Z</time>
      </trkpt>
      <trkpt lat="47.7767" lon="-3.61713">
        <ele>-25.37</ele>
        <time>2019-07-14T10:10:00Z</time>
      </trkpt>
      <trkpt lat="47.77676" lon="-3.61709">
        <ele>-24.63</ele>
        <time>2019-07-14T10:10:01Z</time>
      </trkpt>
      <trkpt lat="47.7768" lon="-3.61703">
        <ele>-23.99</ele>
        <time>2019-07-14T10:10:02Z</time>
      </trkpt>
      <trkpt lat="47.77684" lon="-3.61699">
        <ele>-23.37</ele>
        <time>2019-07-14T10:10:03Z</time>
      </trkpt>
      <trkpt lat="47.77689" lon="-3.61693">
        <ele>-23.26</ele>
        <time>2019-07-14T10:10:04Z</time>
      </trkpt>
      <trkpt lat="47.77694" lon="-3.61689">
        <ele>-23.02</ele>
        <time>2019-07-14T10:10:05Z</time>
      </trkpt>
      <trkpt lat="47.777" lon="-3.61685">
        <ele>-22.87</ele>
        <time>2019-07-14T10:10:06Z</time>
      </trkpt>
      <trkpt lat="47.77705" lon="-3.61681">
        <ele>-22.62</ele>
        <time>2019-07-14T10:10:07Z</time>
      </trkpt>
      <trkpt lat="47.77711" lon="-3.61678">
        <ele>-22.33</ele>
        <time>2019-07-14T10:10:08Z</time>
      </trkpt>
      <trkpt lat="47.77716" lon="-3.61674">
        <ele>-21.9</ele>
        <time>2019-07-14T10:10:09Z</time>
      </trkpt>
      <trkpt lat="47.77722" lon="-3.61672">
        <ele>-21.56</ele>
        <time>2019-07-14T10:10:10Z</time>
      </trkpt>
      <trkpt lat="47.77728" lon="-3.6167">
        <ele>-21.6</ele>
        <time>2019-07-14T10:10:11Z</time>
      </trkpt>
      <trkpt lat="47.77734" lon="-3.61669">
        <ele>-21.82</ele>
        <time>2019-07-14T10:10:12Z</time>
      </trkpt>
      <trkpt lat="47.77741" lon="-3.61667">
        <ele>-21.88</ele>
        <time>2019-07-14T10:10:13Z</time>
      </trkpt>
      <trkpt lat="47.77747" lon="-3.61666">
        <ele>-21.83</ele>
        <time>2019-07-14T10:10:14Z</time>
      </trkpt>
      <trkpt lat="47.77754" lon="-3.61665">
        <ele>-21.82</ele>
        <time>2019-07-14T10:10:15Z</time>
      </trkpt>
      <trkpt lat="47.7776" lon="-3.61663">
        <ele>-21.53</ele>
        <time>2019-07-14T10:10:16Z</time>
      </trkpt>
      <trkpt lat="47.77766" lon="-3.61663">
        <ele>-21.24</ele>
        <time>2019-07-14T10:10:17Z</time>
      </trkpt>
      <trkpt lat="47.77773" lon="-3.61663">
        <ele>-21.01</ele>
        <time>2019-07-14T10:10:18Z</time>
      </trkpt>
      <trkpt lat="47.77778" lon="-3.61663">
        <ele>-21.08</ele>
        <time>2019-07-14T10:10:19Z</time>
      </trkpt>
      <trkpt lat="47.77787" lon="-3.61668">
        <ele>-21.18</ele>
        <time>2019-07-14T10:10:21Z</time>
      </trkpt>
      <trkpt lat="47.7779" lon="-3.61673">
        <ele>-21.55</ele>
        <time>2019-07-14T10:10:22Z</time>
      </trkpt>
      <trkpt lat="47.77793" lon="-3.61679">
        <ele>-21.94</ele>
        <time>2019-07-14T10:10:23Z</time>
      </trkpt>
      <trkpt lat="47.77798" lon="-3.61686">
        <ele>-22.13</ele>
        <time>2019-07-14T10:10:24Z</time>
      </trkpt>
      <trkpt lat="47.77803" lon="-3.61693">
        <ele>-22.4</ele>
        <time>2019-07-14T10:10:25Z</time>
      </trkpt>
      <trkpt lat="47.77807" lon="-3.617">
        <ele>-23.32</ele>
        <time>2019-07-14T10:10:26Z</time>
      </trkpt>
      <trkpt lat="47.77812" lon="-3.61706">
        <ele>-24.15</ele>
        <time>2019-07-14T10:10:27Z</time>
      </trkpt>
      <trkpt lat="47.77817" lon="-3.61712">
        <ele>-24.82</ele>
        <time>2019-07-14T10:10:28Z</time>
      </trkpt>
      <trkpt lat="47.77823" lon="-3.61718">
        <ele>-25.31</ele>
        <time>2019-07-14T10:10:29Z</time>
      </trkpt>
      <trkpt lat="47.77828" lon="-3.61722">
        <ele>-25.66</ele>
        <time>2019-07-14T10:10:30Z</time>
      </trkpt>
      <trkpt lat="47.77835" lon="-3.61727">
        <ele>-26.05</ele>
        <time>2019-07-14T10:10:31Z</time>
      </trkpt>
      <trkpt lat="47.7784" lon="-3.6173">
        <ele>-26.09</ele>
        <time>2019-07-14T10:10:32Z</time>
      </trkpt>
      <trkpt lat="47.77844" lon="-3.61734">
        <ele>-25.83</ele>
        <time>2019-07-14T10:10:33Z</time>
      </trkpt>
      <trkpt lat="47.77849" lon="-3.61739">
        <ele>-25.61</ele>
        <time>2019-07-14T10:10:34Z</time>
      </trkpt>
      <trkpt lat="47.77854" lon="-3.61751">
        <ele>-25.52</ele>
        <time>2019-07-14T10:10:36Z</time>
      </trkpt>
      <trkpt lat="47.77856" lon="-3.61764">
        <ele>-25.6</ele>
        <time>2019-07-14T10:10:38Z</time>
      </trkpt>
      <trkpt lat="47.77858" lon="-3.6177">
        <ele>-25.68</ele>
        <time>2019-07-14T10:10:39Z</time>
      </trkpt>
      <trkpt lat="47.7786" lon="-3.61778">
        <ele>-25.56</ele>
        <time>2019-07-14T10:10:40Z</time>
      </trkpt>
      <trkpt lat="47.77861" lon="-3.61785">
        <ele>-25.53</ele>
        <time>2019-07-14T10:10:41Z</time>
      </trkpt>
      <trkpt lat="47.77864" lon="-3.61795">
        <ele>-25.52</ele>
        <time>2019-07-14T10:10:42Z</time>
      </trkpt>
      <trkpt lat="47.77867" lon="-3.61804">
        <ele>-25.44</ele>
        <time>2019-07-14T10:10:43Z</time>
      </trkpt>
      <trkpt lat="47.77869" lon="-3.61812">
        <ele>-25.56</ele>
        <time>2019-07-14T10:10:44Z</time>
      </trkpt>
      <trkpt lat="47.77871" lon="-3.61818">
        <ele>-25.95</ele>
        <time>2019-07-14T10:10:45Z</time>
      </trkpt>
      <trkpt lat="47.77874" lon="-3.61828">
        <ele>-26.88</ele>
        <time>2019-07-14T10:10:47Z</time>
      </trkpt>
      <trkpt lat="47.77876" lon="-3.61838">
        <ele>-27.69</ele>
        <time>2019-07-14T10:10:49Z</time>
      </trkpt>
      <trkpt lat="47.77878" lon="-3.61846">
        <ele>-28.12</ele>
        <time>2019-07-14T10:10:51Z</time>
      </trkpt>
      <trkpt lat="47.77879" lon="-3.61854">
        <ele>-28.53</ele>
        <time>2019-07-14T10:10:53Z</time>
      </trkpt>
      <trkpt lat="47.77881" lon="-3.61866">
        <ele>-28.98</ele>
        <time>2019-07-14T10:10:55Z</time>
      </trkpt>
      <trkpt lat="47.77881" lon="-3.61878">
        <ele>-29.51</ele>
        <time>2019-07-14T10:10:57Z</time>
      </trkpt>
      <trkpt lat="47.77882" lon="-3.61889">
        <ele>-29.93</ele>
        <time>2019-07-14T10:10:59Z</time>
      </trkpt>
      <trkpt lat="47.77884" lon="-3.619">
        <ele>-30.1</ele>
        <time>2019-07-14T10:11:01Z</time>
      </trkpt>
      <trkpt lat="47.77885" lon="-3.61907">
        <ele>-30.18</ele>
        <time>2019-07-14T10:11:02Z</time>
      </trkpt>
      <trkpt lat="47.77888" lon="-3.61921">
        <ele>-30.05</ele>
        <time>2019-07-14T10:11:04Z</time>
      </trkpt>
      <trkpt lat="47.7789" lon="-3.61928">
        <ele>-29.88</ele>
        <time>2019-07-14T10:11:05Z</time>
      </trkpt>
      <trkpt lat="47.7789" lon="-3.61942">
        <ele>-30.32</ele>
        <time>2019-07-14T10:11:07Z</time>
      </trkpt>
      <trkpt lat="47.7789" lon="-3.61948">
        <ele>-29.97</ele>
        <time>2019-07-14T10:11:08Z</time>
      </trkpt>
      <trkpt lat="47.77888" lon="-3.61961">
        <ele>-30.1</ele>
        <time>2019-07-14T10:11:10Z</time>
      </trkpt>
      <trkpt lat="47.77888" lon="-3.61969">
        <ele>-29.62</ele>
        <time>2019-07-14T10:11:11Z</time>
      </trkpt>
      <trkpt lat="47.77888" lon="-3.61976">
        <ele>-29.12</ele>
        <time>2019-07-14T10:11:12Z</time>
      </trkpt>
      <trkpt lat="47.77889" lon="-3.61984">
        <ele>-28.77</ele>
        <time>2019-07-14T10:11:13Z</time>
      </trkpt>
      <trkpt lat="47.77889" lon="-3.61992">
        <ele>-28.31</ele>
        <time>2019-07-14T10:11:14Z</time>
      </trkpt>
      <trkpt lat="47.77889" lon="-3.62">
        <ele>-27.82</ele>
        <time>2019-07-14T10:11:15Z</time>
      </trkpt>
      <trkpt lat="47.77889" lon="-3.62007">
        <ele>-27.25</ele>
        <time>2019-07-14T10:11:16Z</time>
      </trkpt>
      <trkpt lat="47.7789" lon="-3.62013">
        <ele>-26.59</ele>
        <time>2019-07-14T10:11:17Z</time>
      </trkpt>
      <trkpt lat="47.77892" lon="-3.62026">
        <ele>-25.19</ele>
        <time>2019-07-14T10:11:19Z</time>
      </trkpt>
      <trkpt lat="47.77892" lon="-3.62034">
        <ele>-24.72</ele>
        <time>2019-07-14T10:11:20Z</time>
      </trkpt>
      <trkpt lat="47.77893" lon="-3.6204">
        <ele>-24.15</ele>
        <time>2019-07-14T10:11:21Z</time>
      </trkpt>
      <trkpt lat="47.77894" lon="-3.62049">
        <ele>-23.84</ele>
        <time>2019-07-14T10:11:22Z</time>
      </trkpt>
      <trkpt lat="47.77895" lon="-3.62057">
        <ele>-23.33</ele>
        <time>2019-07-14T10:11:23Z</time>
      </trkpt>
      <trkpt lat="47.77896" lon="-3.62065">
        <ele>-23.11</ele>
        <time>2019-07-14T10:11:24Z</time>
      </trkpt>
      <trkpt lat="47.77896" lon="-3.62073">
        <ele>-22.83</ele>
        <time>2019-07-14T10:11:25Z</time>
      </trkpt>
      <trkpt lat="47.77897" lon="-3.62081">
        <ele>-22.96</ele>
        <time>2019-07-14T10:11:26Z</time>
      </trkpt>
      <trkpt lat="47.77897" lon="-3.62089">
        <ele>-23.35</ele>
        <time>2019-07-14T10:11:27Z</time>
      </trkpt>
      <trkpt lat="47.77897" lon="-3.62097">
        <ele>-23.81</ele>
        <time>2019-07-14T10:11:28Z</time>
      </trkpt>
      <trkpt lat="47.77897" lon="-3.62105">
        <ele>-23.88</ele>
        <time>2019-07-14T10:11:29Z</time>
      </trkpt>
      <trkpt lat="47.77897" lon="-3.62112">
        <ele>-23.69</ele>
        <time>2019-07-14T10:11:30Z</time>
      </trkpt>
      <trkpt lat="47.77898" lon="-3.62119">
        <ele>-23.64</ele>
        <time>2019-07-14T10:11:31Z</time>
      </trkpt>
      <trkpt lat="47.77899" lon="-3.62127">
        <ele>-23.41</ele>
        <time>2019-07-14T10:11:32Z</time>
      </trkpt>
      <trkpt lat="47.779" lon="-3.62134">
        <ele>-23.48</ele>
        <time>2019-07-14T10:11:33Z</time>
      </trkpt>
      <trkpt lat="47.77902" lon="-3.62142">
        <ele>-23.5</ele>
        <time>2019-07-14T10:11:34Z</time>
      </trkpt>
      <trkpt lat="47.77904" lon="-3.62149">
        <ele>-23.44</ele>
        <time>2019-07-14T10:11:35Z</time>
      </trkpt>
      <trkpt lat="47.77906" lon="-3.62156">
        <ele>-23.28</ele>
        <time>2019-07-14T10:11:36Z</time>
      </trkpt>
      <trkpt lat="47.77908" lon="-3.62163">
        <ele>-23.23</ele>
        <time>2019-07-14T10:11:37Z</time>
      </trkpt>
      <trkpt lat="47.7791" lon="-3.62169">
        <ele>-23.15</ele>
        <time>2019-07-14T10:11:38Z</time>
      </trkpt>
      <trkpt lat="47.77912" lon="-3.62177">
        <ele>-23.19</ele>
        <time>2019-07-14T10:11:39Z</time>
      </trkpt>
      <trkpt lat="47.77912" lon="-3.62184">
        <ele>-23.28</ele>
        <time>2019-07-14T10:11:40Z</time>
      </trkpt>
      <trkpt lat="47.7791" lon="-3.62191">
        <ele>-22.95</ele>
        <time>2019-07-14T10:11:41Z</time>
      </trkpt>
      <trkpt lat="47.77903" lon="-3.62195">
        <ele>-22.8</ele>
        <time>2019-07-14T10:11:43Z</time>
      </trkpt>
      <trkpt lat="47.77898" lon="-3.62194">
        <ele>-23.16</ele>
        <time>2019-07-14T10:11:44Z</time>
      </trkpt>
      <trkpt lat="47.77892" lon="-3.62191">
        <ele>-23.27</ele>
        <time>2019-07-14T10:11:45Z</time>
      </trkpt>
      <trkpt lat="47.77886" lon="-3.62188">
        <ele>-23.3</ele>
        <time>2019-07-14T10:11:46Z</time>
      </trkpt>
      <trkpt lat="47.7788" lon="-3.62186">
        <ele>-23.24</ele>
        <time>2019-07-14T10:11:47Z</time>
      </trkpt>
      <trkpt lat="47.77874" lon="-3.62185">
        <ele>-22.94</ele>
        <time>2019-07-14T10:11:48Z</time>
      </trkpt>
      <trkpt lat="47.77867" lon="-3.62186">
        <ele>-22.85</ele>
        <time>2019-07-14T10:11:49Z</time>
      </trkpt>
      <trkpt lat="47.7786" lon="-3.62186">
        <ele>-23.1</ele>
        <time>2019-07-14T10:11:50Z</time>
      </trkpt>
      <trkpt lat="47.77853" lon="-3.62185">
        <ele>-23.32</ele>
        <time>2019-07-14T10:11:51Z</time>
      </trkpt>
      <trkpt lat="47.77846" lon="-3.62183">
        <ele>-23.31</ele>
        <time>2019-07-14T10:11:52Z</time>
      </trkpt>
      <trkpt lat="47.77839" lon="-3.62181">
        <ele>-23.24</ele>
        <time>2019-07-14T10:11:53Z</time>
      </trkpt>
      <trkpt lat="47.77832" lon="-3.62179">
        <ele>-23.43</ele>
        <time>2019-07-14T10:11:54Z</time>
      </trkpt>
      <trkpt lat="47.77825" lon="-3.62178">
        <ele>-23.49</ele>
        <time>2019-07-14T10:11:55Z</time>
      </trkpt>
      <trkpt lat="47.7782" lon="-3.62178">
        <ele>-23.78</ele>
        <time>2019-07-14T10:11:56Z</time>
      </trkpt>
      <trkpt lat="47.77815" lon="-3.62185">
        <ele>-24.27</ele>
        <time>2019-07-14T10:11:58Z</time>
      </trkpt>
      <trkpt lat="47.77811" lon="-3.62197">
        <ele>-24.7</ele>
        <time>2019-07-14T10:12:00Z</time>
      </trkpt>
      <trkpt lat="47.77809" lon="-3.62205">
        <ele>-24.71</ele>
        <time>2019-07-14T10:12:01Z</time>
      </trkpt>
      <trkpt lat="47.77808" lon="-3.62212">
        <ele>-24.64</ele>
        <time>2019-07-14T10:12:02Z</time>
      </trkpt>
      <trkpt lat="47.77806" lon="-3.62219">
        <ele>-24.41</ele>
        <time>2019-07-14T10:12:03Z</time>
      </trkpt>
      <trkpt lat="47.77805" lon="-3.62225">
        <ele>-24.62</ele>
        <time>2019-07-14T10:12:04Z</time>
      </trkpt>
      <trkpt lat="47.77804" lon="-3.62233">
        <ele>-24.82</ele>
        <time>2019-07-14T10:12:05Z</time>
      </trkpt>
      <trkpt lat="47.77802" lon="-3.6224">
        <ele>-25.03</ele>
        <time>2019-07-14T10:12:06Z</time>
      </trkpt>
      <trkpt lat="47.77801" lon="-3.62247">
        <ele>-25.16</ele>
        <time>2019-07-14T10:12:07Z</time>
      </trkpt>
      <trkpt lat="47.778" lon="-3.62254">
        <ele>-25.27</ele>
        <time>2019-07-14T10:12:08Z</time>
      </trkpt>
      <trkpt lat="47.77798" lon="-3.62261">
        <ele>-25.44</ele>
        <time>2019-07-14T10:12:09Z</time>
      </trkpt>
      <trkpt lat="47.77796" lon="-3.62269">
        <ele>-25.28</ele>
        <time>2019-07-14T10:12:10Z</time>
      </trkpt>
      <trkpt lat="47.77795" lon="-3.62276">
        <ele>-25.02</ele>
        <time>2019-07-14T10:12:11Z</time>
      </trkpt>
      <trkpt lat="47.77793" lon="-3.62284">
        <ele>-24.67</ele>
        <time>2019-07-14T10:12:12Z</time>
      </trkpt>
      <trkpt lat="47.77792" lon="-3.62292">
        <ele>-24.49</ele>
        <time>2019-07-14T10:12:13Z</time>
      </trkpt>
      <trkpt lat="47.77791" lon="-3.623">
        <ele>-24.5</ele>
        <time>2019-07-14T10:12:14Z</time>
      </trkpt>
      <trkpt lat="47.7779" lon="-3.62309">
        <ele>-24.58</ele>
        <time>2019-07-14T10:12:15Z</time>
      </trkpt>
      <trkpt lat="47.77789" lon="-3.62317">
        <ele>-24.39</ele>
        <time>2019-07-14T10:12:16Z</time>
      </trkpt>
      <trkpt lat="47.77787" lon="-3.62325">
        <ele>-24.34</ele>
        <time>2019-07-14T10:12:17Z</time>
      </trkpt>
      <trkpt lat="47.77786" lon="-3.62332">
        <ele>-24.18</ele>
        <time>2019-07-14T10:12:18Z</time>
      </trkpt>
      <trkpt lat="47.77785" lon="-3.6234">
        <ele>-24.41</ele>
        <time>2019-07-14T10:12:19Z</time>
      </trkpt>
      <trkpt lat="47.77783" lon="-3.62349">
        <ele>-24.41</ele>
        <time>2019-07-14T10:12:20Z</time>
      </trkpt>
      <trkpt lat="47.77781" lon="-3.62356">
        <ele>-24.34</ele>
        <time>2019-07-14T10:12:21Z</time>
      </trkpt>
      <trkpt lat="47.77779" lon="-3.62364">
        <ele>-24.39</ele>
        <time>2019-07-14T10:12:22Z</time>
      </trkpt>
      <trkpt lat="47.77776" lon="-3.62372">
        <ele>-24.41</ele>
        <time>2019-07-14T10:12:23Z</time>
      </trkpt>
      <trkpt lat="47.77774" lon="-3.6238">
        <ele>-24.41</ele>
        <time>2019-07-14T10:12:24Z</time>
      </trkpt>
      <trkpt lat="47.77772" lon="-3.62387">
        <ele>-24.41</ele>
        <time>2019-07-14T10:12:25Z</time>
      </trkpt>
      <trkpt lat="47.77769" lon="-3.62395">
        <ele>-24.48</ele>
        <time>2019-07-14T10:12:26Z</time>
      </trkpt>
      <trkpt lat="47.77767" lon="-3.62402">
        <ele>-24.57</ele>
        <time>2019-07-14T10:12:27Z</time>
      </trkpt>
      <trkpt lat="47.77765" lon="-3.6241">
        <ele>-24.6</ele>
        <time>2019-07-14T10:12:28Z</time>
      </trkpt>
      <trkpt lat="47.77763" lon="-3.62416">
        <ele>-24.54</ele>
        <time>2019-07-14T10:12:29Z</time>
      </trkpt>
      <trkpt lat="47.77761" lon="-3.62423">
        <ele>-24.8</ele>
        <time>2019-07-14T10:12:30Z</time>
      </trkpt>
      <trkpt lat="47.77759" lon="-3.62429">
        <ele>-25.02</ele>
        <time>2019-07-14T10:12:31Z</time>
      </trkpt>
      <trkpt lat="47.77758" lon="-3.62439">
        <ele>-25.24</ele>
        <time>2019-07-14T10:12:33Z</time>
      </trkpt>
      <trkpt lat="47.77765" lon="-3.62442">
        <ele>-24.88</ele>
        <time>2019-07-14T10:12:36Z</time>
      </trkpt>
      <trkpt lat="47.77773" lon="-3.62441">
        <ele>-23.89</ele>
        <time>2019-07-14T10:12:38Z</time>
      </trkpt>
      <trkpt lat="47.77779" lon="-3.62441">
        <ele>-22.65</ele>
        <time>2019-07-14T10:12:40Z</time>
      </trkpt>
      <trkpt lat="47.77779" lon="-3.6245">
        <ele>-21.57</ele>
        <time>2019-07-14T10:12:45Z</time>
      </trkpt>
      <trkpt lat="47.77778" lon="-3.62459">
        <ele>-21.68</ele>
        <time>2019-07-14T10:12:47Z</time>
      </trkpt>
      <trkpt lat="47.77776" lon="-3.62471">
        <ele>-21.62</ele>
        <time>2019-07-14T10:12:49Z</time>
      </trkpt>
      <trkpt lat="47.77774" lon="-3.62478">
        <ele>-21.47</ele>
        <time>2019-07-14T10:12:50Z</time>
      </trkpt>
      <trkpt lat="47.77772" lon="-3.62485">
        <ele>-21.43</ele>
        <time>2019-07-14T10:12:51Z</time>
      </trkpt>
      <trkpt lat="47.77771" lon="-3.62491">
        <ele>-21.49</ele>
        <time>2019-07-14T10:12:52Z</time>
      </trkpt>
      <trkpt lat="47.77769" lon="-3.62498">
        <ele>-21.36</ele>
        <time>2019-07-14T10:12:53Z</time>
      </trkpt>
      <trkpt lat="47.77768" lon="-3.62504">
        <ele>-21.47</ele>
        <time>2019-07-14T10:12:54Z</time>
      </trkpt>
      <trkpt lat="47.77766" lon="-3.62511">
        <ele>-21.71</ele>
        <time>2019-07-14T10:12:55Z</time>
      </trkpt>
      <trkpt lat="47.77764" lon="-3.62519">
        <ele>-21.99</ele>
        <time>2019-07-14T10:12:56Z</time>
      </trkpt>
      <trkpt lat="47.77762" lon="-3.62527">
        <ele>-22.64</ele>
        <time>2019-07-14T10:12:57Z</time>
      </trkpt>
      <trkpt lat="47.7776" lon="-3.62536">
        <ele>-23.18</ele>
        <time>2019-07-14T10:12:58Z</time>
      </trkpt>
      <trkpt lat="47.77758" lon="-3.62544">
        <ele>-23.48</ele>
        <time>2019-07-14T10:12:59Z</time>
      </trkpt>
      <trkpt lat="47.77756" lon="-3.62553">
        <ele>-23.85</ele>
        <time>2019-07-14T10:13:00Z</time>
      </trkpt>
      <trkpt lat="47.77754" lon="-3.62562">
        <ele>-24.1</ele>
        <time>2019-07-14T10:13:01Z</time>
      </trkpt>
      <trkpt lat="47.77752" lon="-3.6257">
        <ele>-24.39</ele>
        <time>2019-07-14T10:13:02Z</time>
      </trkpt>
      <trkpt lat="47.7775" lon="-3.62578">
        <ele>-24.55</ele>
        <time>2019-07-14T10:13:03Z</time>
      </trkpt>
      <trkpt lat="47.77747" lon="-3.62587">
        <ele>-25.15</ele>
        <time>2019-07-14T10:13:04Z</time>
      </trkpt>
      <trkpt lat="47.77745" lon="-3.62595">
        <ele>-25.26</ele>
        <time>2019-07-14T10:13:05Z</time>
      </trkpt>
      <trkpt lat="47.77742" lon="-3.62603">
        <ele>-25.37</ele>
        <time>2019-07-14T10:13:06Z</time>
      </trkpt>
      <trkpt lat="47.77739" lon="-3.62611">
        <ele>-25.54</ele>
        <time>2019-07-14T10:13:07Z</time>
      </trkpt>
      <trkpt lat="47.77736" lon="-3.62618">
        <ele>-25.66</ele>
        <time>2019-07-14T10:13:08Z</time>
      </trkpt>
      <trkpt lat="47.77733" lon="-3.62626">
        <ele>-25.77</ele>
        <time>2019-07-14T10:13:09Z</time>
      </trkpt>
      <trkpt lat="47.7773" lon="-3.62634">
        <ele>-25.73</ele>
        <time>2019-07-14T10:13:10Z</time>
      </trkpt>
      <trkpt lat="47.77727" lon="-3.62641">
        <ele>-25.93</ele>
        <time>2019-07-14T10:13:11Z</time>
      </trkpt>
      <trkpt lat="47.77725" lon="-3.62648">
        <ele>-26.06</ele>
        <time>2019-07-14T10:13:12Z</time>
      </trkpt>
      <trkpt lat="47.77718" lon="-3.62656">
        <ele>-26.79</ele>
        <time>2019-07-14T10:13:14Z</time>
      </trkpt>
      <trkpt lat="47.77709" lon="-3.62656">
        <ele>-27.22</ele>
        <time>2019-07-14T10:13:16Z</time>
      </trkpt>
      <trkpt lat="47.77701" lon="-3.62657">
        <ele>-27.72</ele>
        <time>2019-07-14T10:13:18Z</time>
      </trkpt>
      <trkpt lat="47.77694" lon="-3.62662">
        <ele>-27.96</ele>
        <time>2019-07-14T10:13:20Z</time>
      </trkpt>
      <trkpt lat="47.77699" lon="-3.62667">
        <ele>-29.65</ele>
        <time>2019-07-14T10:13:25Z</time>
      </trkpt>
      <trkpt lat="47.77704" lon="-3.6267">
        <ele>-30.64</ele>
        <time>2019-07-14T10:13:27Z</time>
      </trkpt>
      <trkpt lat="47.7771" lon="-3.62675">
        <ele>-31.49</ele>
        <time>2019-07-14T10:13:29Z</time>
      </trkpt>
      <trkpt lat="47.77714" lon="-3.62679">
        <ele>-31.93</ele>
        <time>2019-07-14T10:13:30Z</time>
      </trkpt>
      <trkpt lat="47.77722" lon="-3.62686">
        <ele>-32.9</ele>
        <time>2019-07-14T10:13:32Z</time>
      </trkpt>
      <trkpt lat="47.77732" lon="-3.62688">
        <ele>-33.44</ele>
        <time>2019-07-14T10:13:34Z</time>
      </trkpt>
      <trkpt lat="47.77738" lon="-3.62689">
        <ele>-33.49</ele>
        <time>2019-07-14T10:13:35Z</time>
      </trkpt>
      <trkpt lat="47.77744" lon="-3.6269">
        <ele>-33.51</ele>
        <time>2019-07-14T10:13:36Z</time>
      </trkpt>
      <trkpt lat="47.7775" lon="-3.62691">
        <ele>-33.37</ele>
        <time>2019-07-14T10:13:37Z</time>
      </trkpt>
      <trkpt lat="47.77756" lon="-3.62691">
        <ele>-33.19</ele>
        <time>2019-07-14T10:13:38Z</time>
      </trkpt>
      <trkpt lat="47.77763" lon="-3.62691">
        <ele>-33.28</ele>
        <time>2019-07-14T10:13:39Z</time>
      </trkpt>
      <trkpt lat="47.77769" lon="-3.62692">
        <ele>-33.3</ele>
        <time>2019-07-14T10:13:40Z</time>
      </trkpt>
      <trkpt lat="47.77776" lon="-3.62691">
        <ele>-33.45</ele>
        <time>2019-07-14T10:13:41Z</time>
      </trkpt>
      <trkpt lat="47.77782" lon="-3.6269">
        <ele>-33.7</ele>
        <time>2019-07-14T10:13:42Z</time>
      </trkpt>
      <trkpt lat="47.77788" lon="-3.62689">
        <ele>-33.92</ele>
        <time>2019-07-14T10:13:43Z</time>
      </trkpt>
      <trkpt lat="47.77793" lon="-3.62689">
        <ele>-34.12</ele>
        <time>2019-07-14T10:13:44Z</time>
      </trkpt>
      <trkpt lat="47.77798" lon="-3.62687">
        <ele>-34.26</ele>
        <time>2019-07-14T10:13:45Z</time>
      </trkpt>
      <trkpt lat="47.77804" lon="-3.62687">
        <ele>-34.44</ele>
        <time>2019-07-14T10:13:46Z</time>
      </trkpt>
      <trkpt lat="47.77809" lon="-3.62686">
        <ele>-34.63</ele>
        <time>2019-07-14T10:13:47Z</time>
      </trkpt>
      <trkpt lat="47.77816" lon="-3.62683">
        <ele>-34.76</ele>
        <time>2019-07-14T10:13:48Z</time>
      </trkpt>
      <trkpt lat="47.77822" lon="-3.6268">
        <ele>-34.87</ele>
        <time>2019-07-14T10:13:49Z</time>
      </trkpt>
      <trkpt lat="47.77829" lon="-3.62677">
        <ele>-34.97</ele>
        <time>2019-07-14T10:13:50Z</time>
      </trkpt>
      <trkpt lat="47.77835" lon="-3.62674">
        <ele>-35.07</ele>
        <time>2019-07-14T10:13:51Z</time>
      </trkpt>
      <trkpt lat="47.77841" lon="-3.62673">
        <ele>-35.24</ele>
        <time>2019-07-14T10:13:52Z</time>
      </trkpt>
      <trkpt lat="47.77847" lon="-3.62673">
        <ele>-35.36</ele>
        <time>2019-07-14T10:13:53Z</time>
      </trkpt>
      <trkpt lat="47.77853" lon="-3.62673">
        <ele>-35.4</ele>
        <time>2019-07-14T10:13:54Z</time>
      </trkpt>
      <trkpt lat="47.77858" lon="-3.62675">
        <ele>-35.48</ele>
        <time>2019-07-14T10:13:55Z</time>
      </trkpt>
      <trkpt lat="47.77864" lon="-3.62678">
        <ele>-35.57</ele>
        <time>2019-07-14T10:13:56Z</time>
      </trkpt>
      <trkpt lat="47.77869" lon="-3.62681">
        <ele>-35.67</ele>
        <time>2019-07-14T10:13:57Z</time>
      </trkpt>
      <trkpt lat="47.77873" lon="-3.62685">
        <ele>-35.84</ele>
        <time>2019-07-14T10:13:58Z</time>
      </trkpt>
      <trkpt lat="47.7788" lon="-3.62691">
        <ele>-36.16</ele>
        <time>2019-07-14T10:14:00Z</time>
      </trkpt>
      <trkpt lat="47.77887" lon="-3.62697">
        <ele>-36.44</ele>
        <time>2019-07-14T10:14:02Z</time>
      </trkpt>
      <trkpt lat="47.77895" lon="-3.627">
        <ele>-36.74</ele>
        <time>2019-07-14T10:14:04Z</time>
      </trkpt>
      <trkpt lat="47.77903" lon="-3.62701">
        <ele>-36.97</ele>
        <time>2019-07-14T10:14:06Z</time>
      </trkpt>
      <trkpt lat="47.77917" lon="-3.62708">
        <ele>-37.19</ele>
        <time>2019-07-14T10:14:08Z</time>
      </trkpt>
      <trkpt lat="47.77922" lon="-3.62708">
        <ele>-37.28</ele>
        <time>2019-07-14T10:14:09Z</time>
      </trkpt>
      <trkpt lat="47.77931" lon="-3.62703">
        <ele>-37.33</ele>
        <time>2019-07-14T10:14:11Z</time>
      </trkpt>
      <trkpt lat="47.77938" lon="-3.62699">
        <ele>-37.47</ele>
        <time>2019-07-14T10:14:13Z</time>
      </trkpt>
      <trkpt lat="47.77945" lon="-3.62693">
        <ele>-37.6</ele>
        <time>2019-07-14T10:14:15Z</time>
      </trkpt>
      <trkpt lat="47.7795" lon="-3.62689">
        <ele>-37.75</ele>
        <time>2019-07-14T10:14:16Z</time>
      </trkpt>
      <trkpt lat="47.77955" lon="-3.62685">
        <ele>-37.79</ele>
        <time>2019-07-14T10:14:17Z</time>
      </trkpt>
      <trkpt lat="47.77963" lon="-3.6268">
        <ele>-37.74</ele>
        <time>2019-07-14T10:14:18Z</time>
      </trkpt>
      <trkpt lat="47.77971" lon="-3.62677">
        <ele>-37.72</ele>
        <time>2019-07-14T10:14:19Z</time>
      </trkpt>
      <trkpt lat="47.77976" lon="-3.62672">
        <ele>-37.78</ele>
        <time>2019-07-14T10:14:20Z</time>
      </trkpt>
      <trkpt lat="47.77983" lon="-3.62667">
        <ele>-37.73</ele>
        <time>2019-07-14T10:14:21Z</time>
      </trkpt>
      <trkpt lat="47.77989" lon="-3.62661">
        <ele>-37.79</ele>
        <time>2019-07-14T10:14:22Z</time>
      </trkpt>
      <trkpt lat="47.77996" lon="-3.62654">
        <ele>-38.08</ele>
        <time>2019-07-14T10:14:23Z</time>
      </trkpt>
      <trkpt lat="47.78003" lon="-3.62648">
        <ele>-38.87</ele>
        <time>2019-07-14T10:14:24Z</time>
      </trkpt>
      <trkpt lat="47.7801" lon="-3.62643">
        <ele>-39.18</ele>
        <time>2019-07-14T10:14:25Z</time>
      </trkpt>
      <trkpt lat="47.78016" lon="-3.6264">
        <ele>-39.06</ele>
        <time>2019-07-14T10:14:26Z</time>
      </trkpt>
      <trkpt lat="47.78021" lon="-3.62637">
        <ele>-39.1</ele>
        <time>2019-07-14T10:14:27Z</time>
      </trkpt>
      <trkpt lat="47.78026" lon="-3.62642">
        <ele>-39.36</ele>
        <time>2019-07-14T10:14:29Z</time>
      </trkpt>
      <trkpt lat="47.78028" lon="-3.62655">
        <ele>-39.5</ele>
        <time>2019-07-14T10:14:31Z</time>
      </trkpt>
      <trkpt lat="47.78029" lon="-3.62664">
        <ele>-39.58</ele>
        <time>2019-07-14T10:14:32Z</time>
      </trkpt>
      <trkpt lat="47.78031" lon="-3.62673">
        <ele>-39.74</ele>
        <time>2019-07-14T10:14:33Z</time>
      </trkpt>
      <trkpt lat="47.78033" lon="-3.62683">
        <ele>-39.86</ele>
        <time>2019-07-14T10:14:34Z</time>
      </trkpt>
      <trkpt lat="47.78037" lon="-3.62693">
        <ele>-39.97</ele>
        <time>2019-07-14T10:14:35Z</time>
      </trkpt>
      <trkpt lat="47.7804" lon="-3.62702">
        <ele>-40</ele>
        <time>2019-07-14T10:14:36Z</time>
      </trkpt>
      <trkpt lat="47.78044" lon="-3.6271">
        <ele>-40.08</ele>
        <time>2019-07-14T10:14:37Z</time>
      </trkpt>
      <trkpt lat="47.78048" lon="-3.62718">
        <ele>-40.1</ele>
        <time>2019-07-14T10:14:38Z</time>
      </trkpt>
      <trkpt lat="47.78052" lon="-3.62726">
        <ele>-40.11</ele>
        <time>2019-07-14T10:14:39Z</time>
      </trkpt>
      <trkpt lat="47.78056" lon="-3.62732">
        <ele>-40.11</ele>
        <time>2019-07-14T10:14:40Z</time>
      </trkpt>
      <trkpt lat="47.7806" lon="-3.62737">
        <ele>-40.11</ele>
        <time>2019-07-14T10:14:41Z</time>
      </trkpt>
      <trkpt lat="47.78063" lon="-3.62742">
        <ele>-40.11</ele>
        <time>2019-07-14T10:14:42Z</time>
      </trkpt>
      <trkpt lat="47.78069" lon="-3.6275">
        <ele>-40.31</ele>
        <time>2019-07-14T10:14:44Z</time>
      </trkpt>
      <trkpt lat="47.78074" lon="-3.62757">
        <ele>-40.08</ele>
        <time>2019-07-14T10:14:46Z</time>
      </trkpt>
      <trkpt lat="47.78078" lon="-3.62762">
        <ele>-39.22</ele>
        <time>2019-07-14T10:14:49Z</time>
      </trkpt>
      <trkpt lat="47.78077" lon="-3.62769">
        <ele>-38.5</ele>
        <time>2019-07-14T10:14:52Z</time>
      </trkpt>
      <trkpt lat="47.78071" lon="-3.62764">
        <ele>-38.12</ele>
        <time>2019-07-14T10:14:54Z</time>
      </trkpt>
      <trkpt lat="47.78067" lon="-3.6276">
        <ele>-37.82</ele>
        <time>2019-07-14T10:14:56Z</time>
      </trkpt>
      <trkpt lat="47.78067" lon="-3.6277">
        <ele>-38.45</ele>
        <time>2019-07-14T10:15:00Z</time>
      </trkpt>
      <trkpt lat="47.78067" lon="-3.62779">
        <ele>-39.24</ele>
        <time>2019-07-14T10:15:02Z</time>
      </trkpt>
      <trkpt lat="47.78065" lon="-3.62788">
        <ele>-39.41</ele>
        <time>2019-07-14T10:15:05Z</time>
      </trkpt>
      <trkpt lat="47.78066" lon="-3.62797">
        <ele>-39.22</ele>
        <time>2019-07-14T10:15:08Z</time>
      </trkpt>
      <trkpt lat="47.78069" lon="-3.62804">
        <ele>-39.61</ele>
        <time>2019-07-14T10:15:13Z</time>
      </trkpt>
      <trkpt lat="47.7807" lon="-3.62814">
        <ele>-39.56</ele>
        <time>2019-07-14T10:15:15Z</time>
      </trkpt>
      <trkpt lat="47.78071" lon="-3.6282">
        <ele>-39.45</ele>
        <time>2019-07-14T10:15:17Z</time>
      </trkpt>
      <trkpt lat="47.78074" lon="-3.62828">
        <ele>-39.42</ele>
        <time>2019-07-14T10:15:18Z</time>
      </trkpt>
      <trkpt lat="47.78076" lon="-3.62838">
        <ele>-40.33</ele>
        <time>2019-07-14T10:15:20Z</time>
      </trkpt>
      <trkpt lat="47.78078" lon="-3.62844">
        <ele>-40.59</ele>
        <time>2019-07-14T10:15:22Z</time>
      </trkpt>
      <trkpt lat="47.7808" lon="-3.62851">
        <ele>-40.43</ele>
        <time>2019-07-14T10:15:24Z</time>
      </trkpt>
      <trkpt lat="47.78081" lon="-3.62862">
        <ele>-40.87</ele>
        <time>2019-07-14T10:15:27Z</time>
      </trkpt>
      <trkpt lat="47.78083" lon="-3.62871">
        <ele>-41.09</ele>
        <time>2019-07-14T10:15:29Z</time>
      </trkpt>
      <trkpt lat="47.78083" lon="-3.62881">
        <ele>-40.95</ele>
        <time>2019-07-14T10:15:31Z</time>
      </trkpt>
      <trkpt lat="47.78081" lon="-3.6289">
        <ele>-40.41</ele>
        <time>2019-07-14T10:15:33Z</time>
      </trkpt>
      <trkpt lat="47.78077" lon="-3.62895">
        <ele>-40.18</ele>
        <time>2019-07-14T10:15:35Z</time>
      </trkpt>
      <trkpt lat="47.78061" lon="-3.62893">
        <ele>-40.94</ele>
        <time>2019-07-14T10:15:37Z</time>
      </trkpt>
      <trkpt lat="47.78055" lon="-3.62893">
        <ele>-41.55</ele>
        <time>2019-07-14T10:15:38Z</time>
      </trkpt>
      <trkpt lat="47.78048" lon="-3.62896">
        <ele>-41.63</ele>
        <time>2019-07-14T10:15:40Z</time>
      </trkpt>
      <trkpt lat="47.78041" lon="-3.62899">
        <ele>-41.36</ele>
        <time>2019-07-14T10:15:42Z</time>
      </trkpt>
      <trkpt lat="47.78037" lon="-3.62904">
        <ele>-41.18</ele>
        <time>2019-07-14T10:15:44Z</time>
      </trkpt>
      <trkpt lat="47.78032" lon="-3.62907">
        <ele>-40.96</ele>
        <time>2019-07-14T10:15:46Z</time>
      </trkpt>
      <trkpt lat="47.78025" lon="-3.62906">
        <ele>-41.06</ele>
        <time>2019-07-14T10:15:48Z</time>
      </trkpt>
      <trkpt lat="47.78017" lon="-3.62902">
        <ele>-41.29</ele>
        <time>2019-07-14T10:15:50Z</time>
      </trkpt>
      <trkpt lat="47.78013" lon="-3.629">
        <ele>-41.24</ele>
        <time>2019-07-14T10:15:51Z</time>
      </trkpt>
      <trkpt lat="47.78008" lon="-3.62897">
        <ele>-41.08</ele>
        <time>2019-07-14T10:15:52Z</time>
      </trkpt>
      <trkpt lat="47.78004" lon="-3.62897">
        <ele>-40.89</ele>
        <time>2019-07-14T10:15:53Z</time>
      </trkpt>
      <trkpt lat="47.77997" lon="-3.62895">
        <ele>-40.38</ele>
        <time>2019-07-14T10:15:55Z</time>
      </trkpt>
      <trkpt lat="47.77991" lon="-3.62898">
        <ele>-40.07</ele>
        <time>2019-07-14T10:15:57Z</time>
      </trkpt>
      <trkpt lat="47.77988" lon="-3.62904">
        <ele>-40.02</ele>
        <time>2019-07-14T10:15:59Z</time>
      </trkpt>
      <trkpt lat="47.77981" lon="-3.62905">
        <ele>-40.32</ele>
        <time>2019-07-14T10:16:02Z</time>
      </trkpt>
      <trkpt lat="47.77976" lon="-3.62902">
        <ele>-40.63</ele>
        <time>2019-07-14T10:16:04Z</time>
      </trkpt>
      <trkpt lat="47.77967" lon="-3.62905">
        <ele>-40.36</ele>
        <time>2019-07-14T10:16:06Z</time>
      </trkpt>
      <trkpt lat="47.77963" lon="-3.62907">
        <ele>-40.11</ele>
        <time>2019-07-14T10:16:07Z</time>
      </trkpt>
      <trkpt lat="47.77958" lon="-3.62909">
        <ele>-40.39</ele>
        <time>2019-07-14T10:16:08Z</time>
      </trkpt>
      <trkpt lat="47.77952" lon="-3.62911">
        <ele>-40.9</ele>
        <time>2019-07-14T10:16:09Z</time>
      </trkpt>
      <trkpt lat="47.77947" lon="-3.62914">
        <ele>-41.05</ele>
        <time>2019-07-14T10:16:10Z</time>
      </trkpt>
      <trkpt lat="47.77942" lon="-3.62918">
        <ele>-41.09</ele>
        <time>2019-07-14T10:16:11Z</time>
      </trkpt>
      <trkpt lat="47.77937" lon="-3.62924">
        <ele>-41.11</ele>
        <time>2019-07-14T10:16:12Z</time>
      </trkpt>
      <trkpt lat="47.77933" lon="-3.62929">
        <ele>-41.18</ele>
        <time>2019-07-14T10:16:13Z</time>
      </trkpt>
      <trkpt lat="47.77929" lon="-3.62933">
        <ele>-41.2</ele>
        <time>2019-07-14T10:16:14Z</time>
      </trkpt>
      <trkpt lat="47.77926" lon="-3.62938">
        <ele>-41.21</ele>
        <time>2019-07-14T10:16:15Z</time>
      </trkpt>
      <trkpt lat="47.77923" lon="-3.62945">
        <ele>-41.35</ele>
        <time>2019-07-14T10:16:16Z</time>
      </trkpt>
      <trkpt lat="47.77919" lon="-3.6295">
        <ele>-41.39</ele>
        <time>2019-07-14T10:16:17Z</time>
      </trkpt>
      <trkpt lat="47.77915" lon="-3.62957">
        <ele>-41.41</ele>
        <time>2019-07-14T10:16:18Z</time>
      </trkpt>
      <trkpt lat="47.77911" lon="-3.62964">
        <ele>-41.27</ele>
        <time>2019-07-14T10:16:19Z</time>
      </trkpt>
      <trkpt lat="47.77907" lon="-3.62968">
        <ele>-41.02</ele>
        <time>2019-07-14T10:16:20Z</time>
      </trkpt>
      <trkpt lat="47.77902" lon="-3.62971">
        <ele>-40.83</ele>
        <time>2019-07-14T10:16:22Z</time>
      </trkpt>
      <trkpt lat="47.77895" lon="-3.62972">
        <ele>-40.65</ele>
        <time>2019-07-14T10:16:24Z</time>
      </trkpt>
      <trkpt lat="47.77888" lon="-3.62972">
        <ele>-40.36</ele>
        <time>2019-07-14T10:16:26Z</time>
      </trkpt>
      <trkpt lat="47.77883" lon="-3.62972">
        <ele>-40.34</ele>
        <time>2019-07-14T10:16:28Z</time>
      </trkpt>
      <trkpt lat="47.77877" lon="-3.62969">
        <ele>-40.15</ele>
        <time>2019-07-14T10:16:30Z</time>
      </trkpt>
      <trkpt lat="47.77871" lon="-3.62968">
        <ele>-39.95</ele>
        <time>2019-07-14T10:16:32Z</time>
      </trkpt>
      <trkpt lat="47.77867" lon="-3.62966">
        <ele>-39.66</ele>
        <time>2019-07-14T10:16:34Z</time>
      </trkpt>
      <trkpt lat="47.77862" lon="-3.62964">
        <ele>-39.46</ele>
        <time>2019-07-14T10:16:36Z</time>
      </trkpt>
      <trkpt lat="47.77858" lon="-3.62963">
        <ele>-39.09</ele>
        <time>2019-07-14T10:16:38Z</time>
      </trkpt>
      <trkpt lat="47.7785" lon="-3.62963">
        <ele>-39.25</ele>
        <time>2019-07-14T10:16:39Z</time>
      </trkpt>
      <trkpt lat="47.77845" lon="-3.62963">
        <ele>-39.29</ele>
        <time>2019-07-14T10:16:40Z</time>
      </trkpt>
      <trkpt lat="47.7784" lon="-3.62962">
        <ele>-39.38</ele>
        <time>2019-07-14T10:16:41Z</time>
      </trkpt>
      <trkpt lat="47.77832" lon="-3.62963">
        <ele>-39.5</ele>
        <time>2019-07-14T10:16:43Z</time>
      </trkpt>
      <trkpt lat="47.77828" lon="-3.62963">
        <ele>-39.58</ele>
        <time>2019-07-14T10:16:44Z</time>
      </trkpt>
      <trkpt lat="47.77822" lon="-3.62965">
        <ele>-39.54</ele>
        <time>2019-07-14T10:16:46Z</time>
      </trkpt>
      <trkpt lat="47.77815" lon="-3.62967">
        <ele>-39.35</ele>
        <time>2019-07-14T10:16:48Z</time>
      </trkpt>
      <trkpt lat="47.77809" lon="-3.62969">
        <ele>-39.15</ele>
        <time>2019-07-14T10:16:50Z</time>
      </trkpt>
      <trkpt lat="47.77802" lon="-3.62971">
        <ele>-38.47</ele>
        <time>2019-07-14T10:16:52Z</time>
      </trkpt>
      <trkpt lat="47.77795" lon="-3.62972">
        <ele>-38.1</ele>
        <time>2019-07-14T10:16:54Z</time>
      </trkpt>
      <trkpt lat="47.77788" lon="-3.62977">
        <ele>-37.21</ele>
        <time>2019-07-14T10:16:56Z</time>
      </trkpt>
      <trkpt lat="47.77781" lon="-3.62979">
        <ele>-36.27</ele>
        <time>2019-07-14T10:16:58Z</time>
      </trkpt>
      <trkpt lat="47.77775" lon="-3.62981">
        <ele>-35.73</ele>
        <time>2019-07-14T10:17:00Z</time>
      </trkpt>
      <trkpt lat="47.77764" lon="-3.62982">
        <ele>-35.72</ele>
        <time>2019-07-14T10:17:02Z</time>
      </trkpt>
      <trkpt lat="47.77757" lon="-3.62985">
        <ele>-35.85</ele>
        <time>2019-07-14T10:17:04Z</time>
      </trkpt>
      <trkpt lat="47.77753" lon="-3.6299">
        <ele>-35.4</ele>
        <time>2019-07-14T10:17:05Z</time>
      </trkpt>
      <trkpt lat="47.77745" lon="-3.62993">
        <ele>-34.75</ele>
        <time>2019-07-14T10:17:07Z</time>
      </trkpt>
      <trkpt lat="47.77738" lon="-3.62999">
        <ele>-33.96</ele>
        <time>2019-07-14T10:17:09Z</time>
      </trkpt>
      <trkpt lat="47.7773" lon="-3.63004">
        <ele>-33.5</ele>
        <time>2019-07-14T10:17:11Z</time>
      </trkpt>
      <trkpt lat="47.77726" lon="-3.63007">
        <ele>-33.3</ele>
        <time>2019-07-14T10:17:12Z</time>
      </trkpt>
      <trkpt lat="47.7772" lon="-3.63009">
        <ele>-33.24</ele>
        <time>2019-07-14T10:17:13Z</time>
      </trkpt>
      <trkpt lat="47.77715" lon="-3.63009">
        <ele>-33.01</ele>
        <time>2019-07-14T10:17:14Z</time>
      </trkpt>
      <trkpt lat="47.7771" lon="-3.63006">
        <ele>-32.66</ele>
        <time>2019-07-14T10:17:15Z</time>
      </trkpt>
      <trkpt lat="47.77702" lon="-3.62999">
        <ele>-31.99</ele>
        <time>2019-07-14T10:17:17Z</time>
      </trkpt>
      <trkpt lat="47.77698" lon="-3.62994">
        <ele>-31.87</ele>
        <time>2019-07-14T10:17:18Z</time>
      </trkpt>
      <trkpt lat="47.77693" lon="-3.62989">
        <ele>-31.83</ele>
        <time>2019-07-14T10:17:19Z</time>
      </trkpt>
      <trkpt lat="47.77686" lon="-3.6298">
        <ele>-31.4</ele>
        <time>2019-07-14T10:17:21Z</time>
      </trkpt>
      <trkpt lat="47.77678" lon="-3.62974">
        <ele>-30.82</ele>
        <time>2019-07-14T10:17:23Z</time>
      </trkpt>
      <trkpt lat="47.77673" lon="-3.6297">
        <ele>-30.53</ele>
        <time>2019-07-14T10:17:24Z</time>
      </trkpt>
      <trkpt lat="47.77665" lon="-3.62968">
        <ele>-29.96</ele>
        <time>2019-07-14T10:17:26Z</time>
      </trkpt>
      <trkpt lat="47.77658" lon="-3.62967">
        <ele>-29.55</ele>
        <time>2019-07-14T10:17:28Z</time>
      </trkpt>
      <trkpt lat="47.7765" lon="-3.62968">
        <ele>-29.03</ele>
        <time>2019-07-14T10:17:30Z</time>
      </trkpt>
      <trkpt lat="47.77642" lon="-3.62968">
        <ele>-28.51</ele>
        <time>2019-07-14T10:17:32Z</time>
      </trkpt>
      <trkpt lat="47.77633" lon="-3.62968">
        <ele>-28.01</ele>
        <time>2019-07-14T10:17:34Z</time>
      </trkpt>
      <trkpt lat="47.77625" lon="-3.62964">
        <ele>-27.69</ele>
        <time>2019-07-14T10:17:36Z</time>
      </trkpt>
      <trkpt lat="47.77617" lon="-3.6296">
        <ele>-27.37</ele>
        <time>2019-07-14T10:17:38Z</time>
      </trkpt>
      <trkpt lat="47.77607" lon="-3.62957">
        <ele>-27.41</ele>
        <time>2019-07-14T10:17:40Z</time>
      </trkpt>
      <trkpt lat="47.77602" lon="-3.62955">
        <ele>-27.41</ele>
        <time>2019-07-14T10:17:41Z</time>
      </trkpt>
      <trkpt lat="47.77597" lon="-3.62953">
        <ele>-27.62</ele>
        <time>2019-07-14T10:17:42Z</time>
      </trkpt>
      <trkpt lat="47.77592" lon="-3.62951">
        <ele>-27.62</ele>
        <time>2019-07-14T10:17:43Z</time>
      </trkpt>
      <trkpt lat="47.77587" lon="-3.62949">
        <ele>-27.54</ele>
        <time>2019-07-14T10:17:44Z</time>
      </trkpt>
      <trkpt lat="47.77583" lon="-3.62945">
        <ele>-27.73</ele>
        <time>2019-07-14T10:17:45Z</time>
      </trkpt>
      <trkpt lat="47.77578" lon="-3.62943">
        <ele>-27.72</ele>
        <time>2019-07-14T10:17:46Z</time>
      </trkpt>
      <trkpt lat="47.77573" lon="-3.62942">
        <ele>-27.36</ele>
        <time>2019-07-14T10:17:47Z</time>
      </trkpt>
      <trkpt lat="47.77568" lon="-3.62939">
        <ele>-27.19</ele>
        <time>2019-07-14T10:17:48Z</time>
      </trkpt>
      <trkpt lat="47.77562" lon="-3.62937">
        <ele>-27.48</ele>
        <time>2019-07-14T10:17:49Z</time>
      </trkpt>
      <trkpt lat="47.77556" lon="-3.62933">
        <ele>-28.13</ele>
        <time>2019-07-14T10:17:50Z</time>
      </trkpt>
      <trkpt lat="47.7755" lon="-3.6293">
        <ele>-28.54</ele>
        <time>2019-07-14T10:17:51Z</time>
      </trkpt>
      <trkpt lat="47.77545" lon="-3.62926">
        <ele>-29.22</ele>
        <time>2019-07-14T10:17:52Z</time>
      </trkpt>
      <trkpt lat="47.77538" lon="-3.62924">
        <ele>-29.84</ele>
        <time>2019-07-14T10:17:53Z</time>
      </trkpt>
      <trkpt lat="47.7753" lon="-3.62922">
        <ele>-30.52</ele>
        <time>2019-07-14T10:17:54Z</time>
      </trkpt>
      <trkpt lat="47.77523" lon="-3.62921">
        <ele>-30.86</ele>
        <time>2019-07-14T10:17:55Z</time>
      </trkpt>
      <trkpt lat="47.77516" lon="-3.62921">
        <ele>-31.32</ele>
        <time>2019-07-14T10:17:56Z</time>
      </trkpt>
      <trkpt lat="47.77507" lon="-3.62922">
        <ele>-32.22</ele>
        <time>2019-07-14T10:17:57Z</time>
      </trkpt>
      <trkpt lat="47.77502" lon="-3.62924">
        <ele>-32.5</ele>
        <time>2019-07-14T10:17:58Z</time>
      </trkpt>
      <trkpt lat="47.77496" lon="-3.62929">
        <ele>-33.18</ele>
        <time>2019-07-14T10:18:00Z</time>
      </trkpt>
      <trkpt lat="47.77487" lon="-3.62927">
        <ele>-34.66</ele>
        <time>2019-07-14T10:18:02Z</time>
      </trkpt>
      <trkpt lat="47.77482" lon="-3.62925">
        <ele>-35.26</ele>
        <time>2019-07-14T10:18:03Z</time>
      </trkpt>
      <trkpt lat="47.77477" lon="-3.62925">
        <ele>-36.08</ele>
        <time>2019-07-14T10:18:05Z</time>
      </trkpt>
      <trkpt lat="47.77473" lon="-3.6293">
        <ele>-36.45</ele>
        <time>2019-07-14T10:18:23Z</time>
      </trkpt>
      <trkpt lat="47.77468" lon="-3.62936">
        <ele>-36.58</ele>
        <time>2019-07-14T10:18:26Z</time>
      </trkpt>
      <trkpt lat="47.77461" lon="-3.6294">
        <ele>-36.61</ele>
        <time>2019-07-14T10:18:28Z</time>
      </trkpt>
      <trkpt lat="47.77455" lon="-3.62942">
        <ele>-36.7</ele>
        <time>2019-07-14T10:18:30Z</time>
      </trkpt>
      <trkpt lat="47.77448" lon="-3.62944">
        <ele>-36.62</ele>
        <time>2019-07-14T10:18:32Z</time>
      </trkpt>
      <trkpt lat="47.77442" lon="-3.62946">
        <ele>-36.45</ele>
        <time>2019-07-14T10:18:34Z</time>
      </trkpt>
      <trkpt lat="47.77439" lon="-3.62954">
        <ele>-36.46</ele>
        <time>2019-07-14T10:18:36Z</time>
      </trkpt>
      <trkpt lat="47.77437" lon="-3.62961">
        <ele>-36.15</ele>
        <time>2019-07-14T10:18:37Z</time>
      </trkpt>
      <trkpt lat="47.77435" lon="-3.62968">
        <ele>-35.84</ele>
        <time>2019-07-14T10:18:38Z</time>
      </trkpt>
      <trkpt lat="47.77433" lon="-3.62977">
        <ele>-35.22</ele>
        <time>2019-07-14T10:18:40Z</time>
      </trkpt>
      <trkpt lat="47.77431" lon="-3.62986">
        <ele>-34.68</ele>
        <time>2019-07-14T10:18:42Z</time>
      </trkpt>
      <trkpt lat="47.77431" lon="-3.62995">
        <ele>-34.02</ele>
        <time>2019-07-14T10:18:44Z</time>
      </trkpt>
      <trkpt lat="47.77431" lon="-3.63006">
        <ele>-34.15</ele>
        <time>2019-07-14T10:18:46Z</time>
      </trkpt>
      <trkpt lat="47.7743" lon="-3.63014">
        <ele>-35.22</ele>
        <time>2019-07-14T10:18:48Z</time>
      </trkpt>
      <trkpt lat="47.77429" lon="-3.63025">
        <ele>-35.28</ele>
        <time>2019-07-14T10:18:50Z</time>
      </trkpt>
      <trkpt lat="47.77428" lon="-3.63034">
        <ele>-35.22</ele>
        <time>2019-07-14T10:18:52Z</time>
      </trkpt>
      <trkpt lat="47.77423" lon="-3.63039">
        <ele>-35.07</ele>
        <time>2019-07-14T10:18:54Z</time>
      </trkpt>
      <trkpt lat="47.77418" lon="-3.63039">
        <ele>-34.95</ele>
        <time>2019-07-14T10:18:56Z</time>
      </trkpt>
      <trkpt lat="47.77411" lon="-3.63032">
        <ele>-34.45</ele>
        <time>2019-07-14T10:18:58Z</time>
      </trkpt>
      <trkpt lat="47.77407" lon="-3.63029">
        <ele>-34.21</ele>
        <time>2019-07-14T10:18:59Z</time>
      </trkpt>
      <trkpt lat="47.77403" lon="-3.63025">
        <ele>-34.07</ele>
        <time>2019-07-14T10:19:00Z</time>
      </trkpt>
      <trkpt lat="47.77399" lon="-3.63022">
        <ele>-33.96</ele>
        <time>2019-07-14T10:19:01Z</time>
      </trkpt>
      <trkpt lat="47.77395" lon="-3.63018">
        <ele>-33.86</ele>
        <time>2019-07-14T10:19:02Z</time>
      </trkpt>
      <trkpt lat="47.77391" lon="-3.63014">
        <ele>-33.9</ele>
        <time>2019-07-14T10:19:03Z</time>
      </trkpt>
      <trkpt lat="47.77387" lon="-3.63009">
        <ele>-33.91</ele>
        <time>2019-07-14T10:19:04Z</time>
      </trkpt>
      <trkpt lat="47.77383" lon="-3.63004">
        <ele>-33.98</ele>
        <time>2019-07-14T10:19:05Z</time>
      </trkpt>
      <trkpt lat="47.77378" lon="-3.62999">
        <ele>-34.21</ele>
        <time>2019-07-14T10:19:06Z</time>
      </trkpt>
      <trkpt lat="47.77373" lon="-3.62995">
        <ele>-35.19</ele>
        <time>2019-07-14T10:19:07Z</time>
      </trkpt>
      <trkpt lat="47.77368" lon="-3.62991">
        <ele>-35.91</ele>
        <time>2019-07-14T10:19:08Z</time>
      </trkpt>
      <trkpt lat="47.77363" lon="-3.62987">
        <ele>-36.26</ele>
        <time>2019-07-14T10:19:09Z</time>
      </trkpt>
      <trkpt lat="47.77358" lon="-3.62982">
        <ele>-36.37</ele>
        <time>2019-07-14T10:19:10Z</time>
      </trkpt>
      <trkpt lat="47.77352" lon="-3.62979">
        <ele>-37.03</ele>
        <time>2019-07-14T10:19:11Z</time>
      </trkpt>
      <trkpt lat="47.77348" lon="-3.62978">
        <ele>-38</ele>
        <time>2019-07-14T10:19:12Z</time>
      </trkpt>
      <trkpt lat="47.77343" lon="-3.6298">
        <ele>-39.06</ele>
        <time>2019-07-14T10:19:13Z</time>
      </trkpt>
      <trkpt lat="47.77338" lon="-3.62991">
        <ele>-40.02</ele>
        <time>2019-07-14T10:19:15Z</time>
      </trkpt>
      <trkpt lat="47.77337" lon="-3.63003">
        <ele>-40.01</ele>
        <time>2019-07-14T10:19:17Z</time>
      </trkpt>
      <trkpt lat="47.77336" lon="-3.63015">
        <ele>-39.42</ele>
        <time>2019-07-14T10:19:19Z</time>
      </trkpt>
      <trkpt lat="47.77336" lon="-3.63027">
        <ele>-38.74</ele>
        <time>2019-07-14T10:19:21Z</time>
      </trkpt>
      <trkpt lat="47.77337" lon="-3.63038">
        <ele>-37.24</ele>
        <time>2019-07-14T10:19:23Z</time>
      </trkpt>
      <trkpt lat="47.77337" lon="-3.63048">
        <ele>-35.36</ele>
        <time>2019-07-14T10:19:25Z</time>
      </trkpt>
      <trkpt lat="47.77338" lon="-3.63059">
        <ele>-33.71</ele>
        <time>2019-07-14T10:19:27Z</time>
      </trkpt>
      <trkpt lat="47.77337" lon="-3.6307">
        <ele>-32.68</ele>
        <time>2019-07-14T10:19:29Z</time>
      </trkpt>
      <trkpt lat="47.77337" lon="-3.63083">
        <ele>-31.95</ele>
        <time>2019-07-14T10:19:31Z</time>
      </trkpt>
      <trkpt lat="47.77337" lon="-3.63095">
        <ele>-31.52</ele>
        <time>2019-07-14T10:19:33Z</time>
      </trkpt>
      <trkpt lat="47.77336" lon="-3.63108">
        <ele>-31.3</ele>
        <time>2019-07-14T10:19:35Z</time>
      </trkpt>
      <trkpt lat="47.77336" lon="-3.63115">
        <ele>-31.24</ele>
        <time>2019-07-14T10:19:36Z</time>
      </trkpt>
      <trkpt lat="47.77335" lon="-3.63122">
        <ele>-31.08</ele>
        <time>2019-07-14T10:19:37Z</time>
      </trkpt>
      <trkpt lat="47.77335" lon="-3.6313">
        <ele>-31.1</ele>
        <time>2019-07-14T10:19:38Z</time>
      </trkpt>
      <trkpt lat="47.77335" lon="-3.63137">
        <ele>-31.18</ele>
        <time>2019-07-14T10:19:39Z</time>
      </trkpt>
      <trkpt lat="47.77334" lon="-3.63145">
        <ele>-31.55</ele>
        <time>2019-07-14T10:19:40Z</time>
      </trkpt>
      <trkpt lat="47.77334" lon="-3.63153">
        <ele>-32.08</ele>
        <time>2019-07-14T10:19:41Z</time>
      </trkpt>
      <trkpt lat="47.77334" lon="-3.6316">
        <ele>-32.24</ele>
        <time>2019-07-14T10:19:42Z</time>
      </trkpt>
      <trkpt lat="47.77335" lon="-3.63167">
        <ele>-32.08</ele>
        <time>2019-07-14T10:19:43Z</time>
      </trkpt>
      <trkpt lat="47.77336" lon="-3.63174">
        <ele>-32.1</ele>
        <time>2019-07-14T10:19:44Z</time>
      </trkpt>
      <trkpt lat="47.77335" lon="-3.63181">
        <ele>-32.25</ele>
        <time>2019-07-14T10:19:45Z</time>
      </trkpt>
      <trkpt lat="47.77333" lon="-3.63188">
        <ele>-32.22</ele>
        <time>2019-07-14T10:19:46Z</time>
      </trkpt>
      <trkpt lat="47.77331" lon="-3.63194">
        <ele>-32.36</ele>
        <time>2019-07-14T10:19:47Z</time>
      </trkpt>
      <trkpt lat="47.7733" lon="-3.63201">
        <ele>-32.26</ele>
        <time>2019-07-14T10:19:48Z</time>
      </trkpt>
      <trkpt lat="47.77329" lon="-3.63208">
        <ele>-31.94</ele>
        <time>2019-07-14T10:19:49Z</time>
      </trkpt>
      <trkpt lat="47.77331" lon="-3.63215">
        <ele>-31.99</ele>
        <time>2019-07-14T10:19:50Z</time>
      </trkpt>
      <trkpt lat="47.77332" lon="-3.63223">
        <ele>-31.94</ele>
        <time>2019-07-14T10:19:51Z</time>
      </trkpt>
      <trkpt lat="47.77334" lon="-3.63231">
        <ele>-32.06</ele>
        <time>2019-07-14T10:19:52Z</time>
      </trkpt>
      <trkpt lat="47.77335" lon="-3.63238">
        <ele>-31.96</ele>
        <time>2019-07-14T10:19:53Z</time>
      </trkpt>
      <trkpt lat="47.77336" lon="-3.63246">
        <ele>-32.14</ele>
        <time>2019-07-14T10:19:54Z</time>
      </trkpt>
      <trkpt lat="47.77337" lon="-3.63254">
        <ele>-32.61</ele>
        <time>2019-07-14T10:19:55Z</time>
      </trkpt>
      <trkpt lat="47.77338" lon="-3.63262">
        <ele>-33.38</ele>
        <time>2019-07-14T10:19:56Z</time>
      </trkpt>
      <trkpt lat="47.7734" lon="-3.6327">
        <ele>-33.96</ele>
        <time>2019-07-14T10:19:57Z</time>
      </trkpt>
      <trkpt lat="47.77343" lon="-3.63278">
        <ele>-34.63</ele>
        <time>2019-07-14T10:19:58Z</time>
      </trkpt>
      <trkpt lat="47.77346" lon="-3.63284">
        <ele>-35.46</ele>
        <time>2019-07-14T10:19:59Z</time>
      </trkpt>
      <trkpt lat="47.7735" lon="-3.63289">
        <ele>-36.06</ele>
        <time>2019-07-14T10:20:00Z</time>
      </trkpt>
      <trkpt lat="47.77355" lon="-3.63293">
        <ele>-36.24</ele>
        <time>2019-07-14T10:20:01Z</time>
      </trkpt>
      <trkpt lat="47.77359" lon="-3.63296">
        <ele>-36.29</ele>
        <time>2019-07-14T10:20:02Z</time>
      </trkpt>
      <trkpt lat="47.77365" lon="-3.63299">
        <ele>-36.45</ele>
        <time>2019-07-14T10:20:03Z</time>
      </trkpt>
      <trkpt lat="47.7737" lon="-3.63303">
        <ele>-36.84</ele>
        <time>2019-07-14T10:20:04Z</time>
      </trkpt>
      <trkpt lat="47.77375" lon="-3.63306">
        <ele>-37.24</ele>
        <time>2019-07-14T10:20:05Z</time>
      </trkpt>
      <trkpt lat="47.77381" lon="-3.63308">
        <ele>-37.64</ele>
        <time>2019-07-14T10:20:06Z</time>
      </trkpt>
      <trkpt lat="47.77386" lon="-3.63312">
        <ele>-38.18</ele>
        <time>2019-07-14T10:20:07Z</time>
      </trkpt>
      <trkpt lat="47.77392" lon="-3.63314">
        <ele>-38.48</ele>
        <time>2019-07-14T10:20:08Z</time>
      </trkpt>
      <trkpt lat="47.77398" lon="-3.63317">
        <ele>-38.15</ele>
        <time>2019-07-14T10:20:09Z</time>
      </trkpt>
      <trkpt lat="47.77404" lon="-3.63317">
        <ele>-37.77</ele>
        <time>2019-07-14T10:20:10Z</time>
      </trkpt>
      <trkpt lat="47.7741" lon="-3.63317">
        <ele>-37.1</ele>
        <time>2019-07-14T10:20:11Z</time>
      </trkpt>
      <trkpt lat="47.77417" lon="-3.63317">
        <ele>-36.41</ele>
        <time>2019-07-14T10:20:12Z</time>
      </trkpt>
      <trkpt lat="47.77422" lon="-3.63317">
        <ele>-36.06</ele>
        <time>2019-07-14T10:20:13Z</time>
      </trkpt>
      <trkpt lat="47.77429" lon="-3.63316">
        <ele>-35.82</ele>
        <time>2019-07-14T10:20:14Z</time>
      </trkpt>
      <trkpt lat="47.77434" lon="-3.63317">
        <ele>-35.74</ele>
        <time>2019-07-14T10:20:15Z</time>
      </trkpt>
      <trkpt lat="47.7744" lon="-3.63319">
        <ele>-36.21</ele>
        <time>2019-07-14T10:20:16Z</time>
      </trkpt>
      <trkpt lat="47.77447" lon="-3.6332">
        <ele>-36.49</ele>
        <time>2019-07-14T10:20:17Z</time>
      </trkpt>
      <trkpt lat="47.77452" lon="-3.63321">
        <ele>-36.65</ele>
        <time>2019-07-14T10:20:18Z</time>
      </trkpt>
      <trkpt lat="47.77457" lon="-3.63322">
        <ele>-37.04</ele>
        <time>2019-07-14T10:20:19Z</time>
      </trkpt>
      <trkpt lat="47.77462" lon="-3.63322">
        <ele>-37.44</ele>
        <time>2019-07-14T10:20:20Z</time>
      </trkpt>
      <trkpt lat="47.77469" lon="-3.63325">
        <ele>-38.17</ele>
        <time>2019-07-14T10:20:22Z</time>
      </trkpt>
      <trkpt lat="47.77468" lon="-3.63336">
        <ele>-39.64</ele>
        <time>2019-07-14T10:20:24Z</time>
      </trkpt>
      <trkpt lat="47.77465" lon="-3.63346">
        <ele>-40.35</ele>
        <time>2019-07-14T10:20:26Z</time>
      </trkpt>
      <trkpt lat="47.77463" lon="-3.63353">
        <ele>-40.46</ele>
        <time>2019-07-14T10:20:27Z</time>
      </trkpt>
      <trkpt lat="47.77461" lon="-3.63359">
        <ele>-40.43</ele>
        <time>2019-07-14T10:20:28Z</time>
      </trkpt>
      <trkpt lat="47.77458" lon="-3.63366">
        <ele>-40.7</ele>
        <time>2019-07-14T10:20:29Z</time>
      </trkpt>
      <trkpt lat="47.77457" lon="-3.63373">
        <ele>-41.27</ele>
        <time>2019-07-14T10:20:30Z</time>
      </trkpt>
      <trkpt lat="47.77455" lon="-3.6338">
        <ele>-41.51</ele>
        <time>2019-07-14T10:20:31Z</time>
      </trkpt>
      <trkpt lat="47.77454" lon="-3.63387">
        <ele>-41.86</ele>
        <time>2019-07-14T10:20:32Z</time>
      </trkpt>
      <trkpt lat="47.77452" lon="-3.63394">
        <ele>-41.97</ele>
        <time>2019-07-14T10:20:33Z</time>
      </trkpt>
      <trkpt lat="47.77451" lon="-3.63401">
        <ele>-41.86</ele>
        <time>2019-07-14T10:20:34Z</time>
      </trkpt>
      <trkpt lat="47.77449" lon="-3.63409">
        <ele>-42.04</ele>
        <time>2019-07-14T10:20:35Z</time>
      </trkpt>
      <trkpt lat="47.77448" lon="-3.63418">
        <ele>-42.23</ele>
        <time>2019-07-14T10:20:36Z</time>
      </trkpt>
      <trkpt lat="47.77448" lon="-3.63427">
        <ele>-42.57</ele>
        <time>2019-07-14T10:20:37Z</time>
      </trkpt>
      <trkpt lat="47.77448" lon="-3.63436">
        <ele>-42.88</ele>
        <time>2019-07-14T10:20:38Z</time>
      </trkpt>
      <trkpt lat="47.7745" lon="-3.63444">
        <ele>-43.18</ele>
        <time>2019-07-14T10:20:39Z</time>
      </trkpt>
      <trkpt lat="47.77453" lon="-3.63451">
        <ele>-44.13</ele>
        <time>2019-07-14T10:20:41Z</time>
      </trkpt>
      <trkpt lat="47.77459" lon="-3.63449">
        <ele>-44.2</ele>
        <time>2019-07-14T10:20:48Z</time>
      </trkpt>
      <trkpt lat="47.77465" lon="-3.63449">
        <ele>-43.78</ele>
        <time>2019-07-14T10:20:51Z</time>
      </trkpt>
      <trkpt lat="47.7747" lon="-3.63452">
        <ele>-43.92</ele>
        <time>2019-07-14T10:20:53Z</time>
      </trkpt>
      <trkpt lat="47.77475" lon="-3.63455">
        <ele>-43.84</ele>
        <time>2019-07-14T10:20:55Z</time>
      </trkpt>
      <trkpt lat="47.77481" lon="-3.63457">
        <ele>-44.48</ele>
        <time>2019-07-14T10:20:57Z</time>
      </trkpt>
      <trkpt lat="47.77487" lon="-3.63459">
        <ele>-44.83</ele>
        <time>2019-07-14T10:20:59Z</time>
      </trkpt>
      <trkpt lat="47.77492" lon="-3.63461">
        <ele>-43.83</ele>
        <time>2019-07-14T10:21:01Z</time>
      </trkpt>
      <trkpt lat="47.77497" lon="-3.63462">
        <ele>-42.6</ele>
        <time>2019-07-14T10:21:03Z</time>
      </trkpt>
      <trkpt lat="47.77501" lon="-3.63464">
        <ele>-41.67</ele>
        <time>2019-07-14T10:21:05Z</time>
      </trkpt>
      <trkpt lat="47.77506" lon="-3.63465">
        <ele>-41.18</ele>
        <time>2019-07-14T10:21:07Z</time>
      </trkpt>
      <trkpt lat="47.77513" lon="-3.63464">
        <ele>-40.31</ele>
        <time>2019-07-14T10:21:09Z</time>
      </trkpt>
      <trkpt lat="47.77518" lon="-3.63463">
        <ele>-39.3</ele>
        <time>2019-07-14T10:21:11Z</time>
      </trkpt>
      <trkpt lat="47.77524" lon="-3.63459">
        <ele>-39.13</ele>
        <time>2019-07-14T10:21:13Z</time>
      </trkpt>
      <trkpt lat="47.77529" lon="-3.63455">
        <ele>-38.88</ele>
        <time>2019-07-14T10:21:15Z</time>
      </trkpt>
      <trkpt lat="47.77533" lon="-3.63448">
        <ele>-38.31</ele>
        <time>2019-07-14T10:21:17Z</time>
      </trkpt>
      <trkpt lat="47.77538" lon="-3.63442">
        <ele>-37.99</ele>
        <time>2019-07-14T10:21:19Z</time>
      </trkpt>
      <trkpt lat="47.77543" lon="-3.63437">
        <ele>-36.97</ele>
        <time>2019-07-14T10:21:21Z</time>
      </trkpt>
      <trkpt lat="47.7755" lon="-3.63433">
        <ele>-36.7</ele>
        <time>2019-07-14T10:21:23Z</time>
      </trkpt>
      <trkpt lat="47.77556" lon="-3.63431">
        <ele>-37.49</ele>
        <time>2019-07-14T10:21:25Z</time>
      </trkpt>
      <trkpt lat="47.77563" lon="-3.63428">
        <ele>-38.31</ele>
        <time>2019-07-14T10:21:27Z</time>
      </trkpt>
      <trkpt lat="47.7757" lon="-3.63426">
        <ele>-38.33</ele>
        <time>2019-07-14T10:21:29Z</time>
      </trkpt>
      <trkpt lat="47.77577" lon="-3.63422">
        <ele>-38.38</ele>
        <time>2019-07-14T10:21:31Z</time>
      </trkpt>
      <trkpt lat="47.77583" lon="-3.63419">
        <ele>-38.09</ele>
        <time>2019-07-14T10:21:33Z</time>
      </trkpt>
      <trkpt lat="47.7759" lon="-3.63416">
        <ele>-36.93</ele>
        <time>2019-07-14T10:21:35Z</time>
      </trkpt>
      <trkpt lat="47.77596" lon="-3.63412">
        <ele>-35.1</ele>
        <time>2019-07-14T10:21:37Z</time>
      </trkpt>
      <trkpt lat="47.77603" lon="-3.63412">
        <ele>-33.99</ele>
        <time>2019-07-14T10:21:39Z</time>
      </trkpt>
      <trkpt lat="47.7761" lon="-3.63414">
        <ele>-32.93</ele>
        <time>2019-07-14T10:21:41Z</time>
      </trkpt>
      <trkpt lat="47.77617" lon="-3.63418">
        <ele>-31.49</ele>
        <time>2019-07-14T10:21:43Z</time>
      </trkpt>
      <trkpt lat="47.77624" lon="-3.63422">
        <ele>-30.82</ele>
        <time>2019-07-14T10:21:45Z</time>
      </trkpt>
      <trkpt lat="47.7763" lon="-3.63429">
        <ele>-30.51</ele>
        <time>2019-07-14T10:21:47Z</time>
      </trkpt>
      <trkpt lat="47.77631" lon="-3.63439">
        <ele>-29.48</ele>
        <time>2019-07-14T10:21:49Z</time>
      </trkpt>
      <trkpt lat="47.77633" lon="-3.63451">
        <ele>-28.64</ele>
        <time>2019-07-14T10:21:51Z</time>
      </trkpt>
      <trkpt lat="47.77639" lon="-3.63461">
        <ele>-28.73</ele>
        <time>2019-07-14T10:21:53Z</time>
      </trkpt>
      <trkpt lat="47.77643" lon="-3.63465">
        <ele>-28.86</ele>
        <time>2019-07-14T10:21:54Z</time>
      </trkpt>
      <trkpt lat="47.77646" lon="-3.63469">
        <ele>-28.76</ele>
        <time>2019-07-14T10:21:55Z</time>
      </trkpt>
      <trkpt lat="47.77649" lon="-3.63474">
        <ele>-28.59</ele>
        <time>2019-07-14T10:21:56Z</time>
      </trkpt>
      <trkpt lat="47.77651" lon="-3.63481">
        <ele>-28.6</ele>
        <time>2019-07-14T10:21:57Z</time>
      </trkpt>
      <trkpt lat="47.77654" lon="-3.63487">
        <ele>-29.03</ele>
        <time>2019-07-14T10:21:58Z</time>
      </trkpt>
      <trkpt lat="47.77656" lon="-3.63494">
        <ele>-29.37</ele>
        <time>2019-07-14T10:21:59Z</time>
      </trkpt>
      <trkpt lat="47.7766" lon="-3.63498">
        <ele>-29.4</ele>
        <time>2019-07-14T10:22:00Z</time>
      </trkpt>
      <trkpt lat="47.77667" lon="-3.63501">
        <ele>-29.77</ele>
        <time>2019-07-14T10:22:02Z</time>
      </trkpt>
      <trkpt lat="47.77675" lon="-3.63501">
        <ele>-29.58</ele>
        <time>2019-07-14T10:22:04Z</time>
      </trkpt>
      <trkpt lat="47.77682" lon="-3.63499">
        <ele>-29.7</ele>
        <time>2019-07-14T10:22:06Z</time>
      </trkpt>
      <trkpt lat="47.7769" lon="-3.63497">
        <ele>-29.3</ele>
        <time>2019-07-14T10:22:08Z</time>
      </trkpt>
      <trkpt lat="47.77699" lon="-3.63495">
        <ele>-29.54</ele>
        <time>2019-07-14T10:22:10Z</time>
      </trkpt>
      <trkpt lat="47.77707" lon="-3.63491">
        <ele>-29.21</ele>
        <time>2019-07-14T10:22:12Z</time>
      </trkpt>
      <trkpt lat="47.77714" lon="-3.63489">
        <ele>-28.27</ele>
        <time>2019-07-14T10:22:14Z</time>
      </trkpt>
      <trkpt lat="47.77721" lon="-3.63485">
        <ele>-27.18</ele>
        <time>2019-07-14T10:22:16Z</time>
      </trkpt>
      <trkpt lat="47.77729" lon="-3.63484">
        <ele>-26.8</ele>
        <time>2019-07-14T10:22:18Z</time>
      </trkpt>
      <trkpt lat="47.77737" lon="-3.63481">
        <ele>-27.52</ele>
        <time>2019-07-14T10:22:20Z</time>
      </trkpt>
      <trkpt lat="47.77744" lon="-3.63479">
        <ele>-28.72</ele>
        <time>2019-07-14T10:22:22Z</time>
      </trkpt>
      <trkpt lat="47.77752" lon="-3.63477">
        <ele>-29.57</ele>
        <time>2019-07-14T10:22:24Z</time>
      </trkpt>
      <trkpt lat="47.77759" lon="-3.63476">
        <ele>-30.03</ele>
        <time>2019-07-14T10:22:26Z</time>
      </trkpt>
      <trkpt lat="47.77767" lon="-3.63477">
        <ele>-29.21</ele>
        <time>2019-07-14T10:22:28Z</time>
      </trkpt>
      <trkpt lat="47.77776" lon="-3.63477">
        <ele>-27.81</ele>
        <time>2019-07-14T10:22:30Z</time>
      </trkpt>
      <trkpt lat="47.77785" lon="-3.63475">
        <ele>-26.89</ele>
        <time>2019-07-14T10:22:32Z</time>
      </trkpt>
      <trkpt lat="47.77793" lon="-3.63476">
        <ele>-26.46</ele>
        <time>2019-07-14T10:22:34Z</time>
      </trkpt>
      <trkpt lat="47.77801" lon="-3.63475">
        <ele>-26.51</ele>
        <time>2019-07-14T10:22:36Z</time>
      </trkpt>
      <trkpt lat="47.77809" lon="-3.63475">
        <ele>-26.14</ele>
        <time>2019-07-14T10:22:38Z</time>
      </trkpt>
      <trkpt lat="47.77818" lon="-3.63474">
        <ele>-25.63</ele>
        <time>2019-07-14T10:22:40Z</time>
      </trkpt>
      <trkpt lat="47.77826" lon="-3.63473">
        <ele>-25.3</ele>
        <time>2019-07-14T10:22:42Z</time>
      </trkpt>
      <trkpt lat="47.77834" lon="-3.63471">
        <ele>-25.37</ele>
        <time>2019-07-14T10:22:44Z</time>
      </trkpt>
      <trkpt lat="47.77841" lon="-3.63468">
        <ele>-24.95</ele>
        <time>2019-07-14T10:22:46Z</time>
      </trkpt>
      <trkpt lat="47.77847" lon="-3.63468">
        <ele>-24.11</ele>
        <time>2019-07-14T10:22:48Z</time>
      </trkpt>
      <trkpt lat="47.77848" lon="-3.63474">
        <ele>-23.61</ele>
        <time>2019-07-14T10:22:50Z</time>
      </trkpt>
      <trkpt lat="47.77848" lon="-3.63485">
        <ele>-23.11</ele>
        <time>2019-07-14T10:22:52Z</time>
      </trkpt>
      <trkpt lat="47.77848" lon="-3.63492">
        <ele>-23.04</ele>
        <time>2019-07-14T10:22:53Z</time>
      </trkpt>
      <trkpt lat="47.77847" lon="-3.635">
        <ele>-23.09</ele>
        <time>2019-07-14T10:22:54Z</time>
      </trkpt>
      <trkpt lat="47.77847" lon="-3.63507">
        <ele>-23.32</ele>
        <time>2019-07-14T10:22:55Z</time>
      </trkpt>
      <trkpt lat="47.77846" lon="-3.63516">
        <ele>-23.66</ele>
        <time>2019-07-14T10:22:56Z</time>
      </trkpt>
      <trkpt lat="47.77845" lon="-3.63524">
        <ele>-24.19</ele>
        <time>2019-07-14T10:22:57Z</time>
      </trkpt>
      <trkpt lat="47.77844" lon="-3.63532">
        <ele>-24.62</ele>
        <time>2019-07-14T10:22:58Z</time>
      </trkpt>
      <trkpt lat="47.77844" lon="-3.6354">
        <ele>-25.11</ele>
        <time>2019-07-14T10:22:59Z</time>
      </trkpt>
      <trkpt lat="47.77843" lon="-3.63548">
        <ele>-25.67</ele>
        <time>2019-07-14T10:23:00Z</time>
      </trkpt>
      <trkpt lat="47.77842" lon="-3.63556">
        <ele>-25.98</ele>
        <time>2019-07-14T10:23:01Z</time>
      </trkpt>
      <trkpt lat="47.77842" lon="-3.63563">
        <ele>-26.21</ele>
        <time>2019-07-14T10:23:02Z</time>
      </trkpt>
      <trkpt lat="47.77841" lon="-3.63572">
        <ele>-26.28</ele>
        <time>2019-07-14T10:23:03Z</time>
      </trkpt>
      <trkpt lat="47.77839" lon="-3.6358">
        <ele>-26.58</ele>
        <time>2019-07-14T10:23:04Z</time>
      </trkpt>
      <trkpt lat="47.77838" lon="-3.63588">
        <ele>-26.67</ele>
        <time>2019-07-14T10:23:05Z</time>
      </trkpt>
      <trkpt lat="47.77836" lon="-3.63596">
        <ele>-26.56</ele>
        <time>2019-07-14T10:23:06Z</time>
      </trkpt>
      <trkpt lat="47.77835" lon="-3.63603">
        <ele>-26.6</ele>
        <time>2019-07-14T10:23:07Z</time>
      </trkpt>
      <trkpt lat="47.77832" lon="-3.6361">
        <ele>-26.47</ele>
        <time>2019-07-14T10:23:08Z</time>
      </trkpt>
      <trkpt lat="47.77831" lon="-3.63617">
        <ele>-26.5</ele>
        <time>2019-07-14T10:23:09Z</time>
      </trkpt>
      <trkpt lat="47.77829" lon="-3.63625">
        <ele>-26.58</ele>
        <time>2019-07-14T10:23:10Z</time>
      </trkpt>
      <trkpt lat="47.77824" lon="-3.63641">
        <ele>-27.3</ele>
        <time>2019-07-14T10:23:12Z</time>
      </trkpt>
      <trkpt lat="47.77821" lon="-3.63648">
        <ele>-27.45</ele>
        <time>2019-07-14T10:23:13Z</time>
      </trkpt>
      <trkpt lat="47.77819" lon="-3.63656">
        <ele>-27.56</ele>
        <time>2019-07-14T10:23:14Z</time>
      </trkpt>
      <trkpt lat="47.77816" lon="-3.63665">
        <ele>-27.67</ele>
        <time>2019-07-14T10:23:15Z</time>
      </trkpt>
      <trkpt lat="47.77814" lon="-3.63673">
        <ele>-27.77</ele>
        <time>2019-07-14T10:23:16Z</time>
      </trkpt>
      <trkpt lat="47.7781" lon="-3.63678">
        <ele>-27.8</ele>
        <time>2019-07-14T10:23:17Z</time>
      </trkpt>
      <trkpt lat="47.77806" lon="-3.63682">
        <ele>-27.95</ele>
        <time>2019-07-14T10:23:18Z</time>
      </trkpt>
      <trkpt lat="47.77801" lon="-3.63683">
        <ele>-28.13</ele>
        <time>2019-07-14T10:23:19Z</time>
      </trkpt>
      <trkpt lat="47.77796" lon="-3.63682">
        <ele>-28.26</ele>
        <time>2019-07-14T10:23:20Z</time>
      </trkpt>
      <trkpt lat="47.77791" lon="-3.6368">
        <ele>-28.51</ele>
        <time>2019-07-14T10:23:21Z</time>
      </trkpt>
      <trkpt lat="47.77783" lon="-3.63676">
        <ele>-28.76</ele>
        <time>2019-07-14T10:23:23Z</time>
      </trkpt>
      <trkpt lat="47.77778" lon="-3.63676">
        <ele>-28.35</ele>
        <time>2019-07-14T10:23:25Z</time>
      </trkpt>
      <trkpt lat="47.77772" lon="-3.6368">
        <ele>-28.29</ele>
        <time>2019-07-14T10:23:27Z</time>
      </trkpt>
      <trkpt lat="47.77768" lon="-3.6369">
        <ele>-28.52</ele>
        <time>2019-07-14T10:23:29Z</time>
      </trkpt>
      <trkpt lat="47.77767" lon="-3.63697">
        <ele>-28.58</ele>
        <time>2019-07-14T10:23:30Z</time>
      </trkpt>
      <trkpt lat="47.77767" lon="-3.63705">
        <ele>-28.67</ele>
        <time>2019-07-14T10:23:31Z</time>
      </trkpt>
      <trkpt lat="47.77766" lon="-3.63714">
        <ele>-28.91</ele>
        <time>2019-07-14T10:23:32Z</time>
      </trkpt>
      <trkpt lat="47.77765" lon="-3.63722">
        <ele>-29.12</ele>
        <time>2019-07-14T10:23:33Z</time>
      </trkpt>
      <trkpt lat="47.77764" lon="-3.63732">
        <ele>-29.46</ele>
        <time>2019-07-14T10:23:34Z</time>
      </trkpt>
      <trkpt lat="47.77762" lon="-3.63741">
        <ele>-29.78</ele>
        <time>2019-07-14T10:23:35Z</time>
      </trkpt>
      <trkpt lat="47.7776" lon="-3.6375">
        <ele>-29.94</ele>
        <time>2019-07-14T10:23:36Z</time>
      </trkpt>
      <trkpt lat="47.77758" lon="-3.63758">
        <ele>-30.2</ele>
        <time>2019-07-14T10:23:37Z</time>
      </trkpt>
      <trkpt lat="47.77755" lon="-3.63764">
        <ele>-30.84</ele>
        <time>2019-07-14T10:23:38Z</time>
      </trkpt>
      <trkpt lat="47.77752" lon="-3.63771">
        <ele>-31.93</ele>
        <time>2019-07-14T10:23:40Z</time>
      </trkpt>
      <trkpt lat="47.77747" lon="-3.63777">
        <ele>-32.76</ele>
        <time>2019-07-14T10:23:44Z</time>
      </trkpt>
      <trkpt lat="47.77743" lon="-3.63784">
        <ele>-33.04</ele>
        <time>2019-07-14T10:23:46Z</time>
      </trkpt>
      <trkpt lat="47.77736" lon="-3.63793">
        <ele>-33.93</ele>
        <time>2019-07-14T10:23:48Z</time>
      </trkpt>
      <trkpt lat="47.77731" lon="-3.63803">
        <ele>-34.58</ele>
        <time>2019-07-14T10:23:50Z</time>
      </trkpt>
      <trkpt lat="47.77727" lon="-3.63806">
        <ele>-35.02</ele>
        <time>2019-07-14T10:23:51Z</time>
      </trkpt>
      <trkpt lat="47.77722" lon="-3.63815">
        <ele>-36.07</ele>
        <time>2019-07-14T10:23:53Z</time>
      </trkpt>
      <trkpt lat="47.7772" lon="-3.63825">
        <ele>-36.93</ele>
        <time>2019-07-14T10:23:55Z</time>
      </trkpt>
      <trkpt lat="47.7772" lon="-3.63832">
        <ele>-37.27</ele>
        <time>2019-07-14T10:23:56Z</time>
      </trkpt>
      <trkpt lat="47.77717" lon="-3.63839">
        <ele>-37.86</ele>
        <time>2019-07-14T10:23:57Z</time>
      </trkpt>
      <trkpt lat="47.77715" lon="-3.63851">
        <ele>-38.71</ele>
        <time>2019-07-14T10:23:59Z</time>
      </trkpt>
      <trkpt lat="47.77714" lon="-3.63858">
        <ele>-39.49</ele>
        <time>2019-07-14T10:24:01Z</time>
      </trkpt>
      <trkpt lat="47.77714" lon="-3.63866">
        <ele>-40.36</ele>
        <time>2019-07-14T10:24:04Z</time>
      </trkpt>
      <trkpt lat="47.77719" lon="-3.6388">
        <ele>-42.21</ele>
        <time>2019-07-14T10:24:36Z</time>
      </trkpt>
      <trkpt lat="47.77723" lon="-3.63889">
        <ele>-43.94</ele>
        <time>2019-07-14T10:24:45Z</time>
      </trkpt>
      <trkpt lat="47.7773" lon="-3.63901">
        <ele>-46.45</ele>
        <time>2019-07-14T10:25:08Z</time>
      </trkpt>
      <trkpt lat="47.77735" lon="-3.63905">
        <ele>-47.21</ele>
        <time>2019-07-14T10:25:12Z</time>
      </trkpt>
      <trkpt lat="47.77732" lon="-3.63911">
        <ele>-47.11</ele>
        <time>2019-07-14T10:25:17Z</time>
      </trkpt>
      <trkpt lat="47.77739" lon="-3.6392">
        <ele>-47.88</ele>
        <time>2019-07-14T10:25:30Z</time>
      </trkpt>
      <trkpt lat="47.77742" lon="-3.63927">
        <ele>-48.48</ele>
        <time>2019-07-14T10:25:32Z</time>
      </trkpt>
      <trkpt lat="47.77743" lon="-3.63935">
        <ele>-48.8</ele>
        <time>2019-07-14T10:25:35Z</time>
      </trkpt>
      <trkpt lat="47.77748" lon="-3.63938">
        <ele>-48.65</ele>
        <time>2019-07-14T10:25:38Z</time>
      </trkpt>
      <trkpt lat="47.77753" lon="-3.63938">
        <ele>-48.61</ele>
        <time>2019-07-14T10:25:42Z</time>
      </trkpt>
      <trkpt lat="47.77759" lon="-3.63941">
        <ele>-48.44</ele>
        <time>2019-07-14T10:25:45Z</time>
      </trkpt>
      <trkpt lat="47.77764" lon="-3.63946">
        <ele>-48.28</ele>
        <time>2019-07-14T10:25:48Z</time>
      </trkpt>
      <trkpt lat="47.77771" lon="-3.63946">
        <ele>-47.96</ele>
        <time>2019-07-14T10:25:51Z</time>
      </trkpt>
      <trkpt lat="47.77778" lon="-3.63947">
        <ele>-47.89</ele>
        <time>2019-07-14T10:25:53Z</time>
      </trkpt>
      <trkpt lat="47.77784" lon="-3.63948">
        <ele>-47.93</ele>
        <time>2019-07-14T10:25:55Z</time>
      </trkpt>
      <trkpt lat="47.7779" lon="-3.63952">
        <ele>-48.11</ele>
        <time>2019-07-14T10:25:58Z</time>
      </trkpt>
      <trkpt lat="47.77796" lon="-3.63953">
        <ele>-48.64</ele>
        <time>2019-07-14T10:26:00Z</time>
      </trkpt>
      <trkpt lat="47.77803" lon="-3.63951">
        <ele>-48.61</ele>
        <time>2019-07-14T10:26:02Z</time>
      </trkpt>
      <trkpt lat="47.77809" lon="-3.63952">
        <ele>-48.43</ele>
        <time>2019-07-14T10:26:04Z</time>
      </trkpt>
      <trkpt lat="47.77814" lon="-3.63953">
        <ele>-48.34</ele>
        <time>2019-07-14T10:26:06Z</time>
      </trkpt>
      <trkpt lat="47.77819" lon="-3.63954">
        <ele>-48.41</ele>
        <time>2019-07-14T10:26:08Z</time>
      </trkpt>
      <trkpt lat="47.77825" lon="-3.63954">
        <ele>-48.71</ele>
        <time>2019-07-14T10:26:10Z</time>
      </trkpt>
      <trkpt lat="47.77832" lon="-3.63954">
        <ele>-49.13</ele>
        <time>2019-07-14T10:26:12Z</time>
      </trkpt>
      <trkpt lat="47.77837" lon="-3.63953">
        <ele>-49.62</ele>
        <time>2019-07-14T10:26:14Z</time>
      </trkpt>
      <trkpt lat="47.77845" lon="-3.63952">
        <ele>-50.32</ele>
        <time>2019-07-14T10:26:17Z</time>
      </trkpt>
      <trkpt lat="47.7785" lon="-3.63952">
        <ele>-50.78</ele>
        <time>2019-07-14T10:26:19Z</time>
      </trkpt>
      <trkpt lat="47.77856" lon="-3.63951">
        <ele>-51.77</ele>
        <time>2019-07-14T10:26:21Z</time>
      </trkpt>
      <trkpt lat="47.77862" lon="-3.63947">
        <ele>-52.31</ele>
        <time>2019-07-14T10:26:23Z</time>
      </trkpt>
      <trkpt lat="47.77867" lon="-3.63945">
        <ele>-52.89</ele>
        <time>2019-07-14T10:26:25Z</time>
      </trkpt>
      <trkpt lat="47.77872" lon="-3.63942">
        <ele>-53.3</ele>
        <time>2019-07-14T10:26:27Z</time>
      </trkpt>
      <trkpt lat="47.77877" lon="-3.63939">
        <ele>-53.72</ele>
        <time>2019-07-14T10:26:29Z</time>
      </trkpt>
      <trkpt lat="47.77882" lon="-3.63939">
        <ele>-53.93</ele>
        <time>2019-07-14T10:26:30Z</time>
      </trkpt>
      <trkpt lat="47.77887" lon="-3.6394">
        <ele>-54.13</ele>
        <time>2019-07-14T10:26:31Z</time>
      </trkpt>
      <trkpt lat="47.77895" lon="-3.63939">
        <ele>-54.46</ele>
        <time>2019-07-14T10:26:33Z</time>
      </trkpt>
      <trkpt lat="47.77902" lon="-3.63939">
        <ele>-54.69</ele>
        <time>2019-07-14T10:26:35Z</time>
      </trkpt>
      <trkpt lat="47.77909" lon="-3.6394">
        <ele>-54.64</ele>
        <time>2019-07-14T10:26:37Z</time>
      </trkpt>
      <trkpt lat="47.77916" lon="-3.63939">
        <ele>-54.16</ele>
        <time>2019-07-14T10:26:39Z</time>
      </trkpt>
      <trkpt lat="47.77923" lon="-3.63938">
        <ele>-54.05</ele>
        <time>2019-07-14T10:26:41Z</time>
      </trkpt>
      <trkpt lat="47.7793" lon="-3.63938">
        <ele>-53.95</ele>
        <time>2019-07-14T10:26:43Z</time>
      </trkpt>
      <trkpt lat="47.77936" lon="-3.6394">
        <ele>-53.64</ele>
        <time>2019-07-14T10:26:44Z</time>
      </trkpt>
      <trkpt lat="47.7794" lon="-3.63941">
        <ele>-53.34</ele>
        <time>2019-07-14T10:26:45Z</time>
      </trkpt>
      <trkpt lat="47.77947" lon="-3.63943">
        <ele>-53.15</ele>
        <time>2019-07-14T10:26:47Z</time>
      </trkpt>
      <trkpt lat="47.77953" lon="-3.63942">
        <ele>-52.93</ele>
        <time>2019-07-14T10:26:49Z</time>
      </trkpt>
      <trkpt lat="47.77959" lon="-3.63941">
        <ele>-52.52</ele>
        <time>2019-07-14T10:26:51Z</time>
      </trkpt>
      <trkpt lat="47.77966" lon="-3.63939">
        <ele>-51.78</ele>
        <time>2019-07-14T10:26:53Z</time>
      </trkpt>
      <trkpt lat="47.77973" lon="-3.63938">
        <ele>-51.37</ele>
        <time>2019-07-14T10:26:55Z</time>
      </trkpt>
      <trkpt lat="47.7798" lon="-3.63937">
        <ele>-50.74</ele>
        <time>2019-07-14T10:26:57Z</time>
      </trkpt>
      <trkpt lat="47.77986" lon="-3.63934">
        <ele>-49.78</ele>
        <time>2019-07-14T10:26:59Z</time>
      </trkpt>
      <trkpt lat="47.77991" lon="-3.6393">
        <ele>-49.59</ele>
        <time>2019-07-14T10:27:00Z</time>
      </trkpt>
      <trkpt lat="47.77998" lon="-3.63923">
        <ele>-48.39</ele>
        <time>2019-07-14T10:27:02Z</time>
      </trkpt>
      <trkpt lat="47.78002" lon="-3.63918">
        <ele>-47.91</ele>
        <time>2019-07-14T10:27:03Z</time>
      </trkpt>
      <trkpt lat="47.78006" lon="-3.63916">
        <ele>-47.91</ele>
        <time>2019-07-14T10:27:04Z</time>
      </trkpt>
      <trkpt lat="47.78014" lon="-3.6391">
        <ele>-47.2</ele>
        <time>2019-07-14T10:27:06Z</time>
      </trkpt>
      <trkpt lat="47.78021" lon="-3.63904">
        <ele>-46.52</ele>
        <time>2019-07-14T10:27:08Z</time>
      </trkpt>
      <trkpt lat="47.78026" lon="-3.639">
        <ele>-46.32</ele>
        <time>2019-07-14T10:27:10Z</time>
      </trkpt>
      <trkpt lat="47.78032" lon="-3.63898">
        <ele>-46.22</ele>
        <time>2019-07-14T10:27:12Z</time>
      </trkpt>
      <trkpt lat="47.78038" lon="-3.63898">
        <ele>-45.89</ele>
        <time>2019-07-14T10:27:15Z</time>
      </trkpt>
      <trkpt lat="47.78042" lon="-3.639">
        <ele>-45.66</ele>
        <time>2019-07-14T10:27:17Z</time>
      </trkpt>
      <trkpt lat="47.78048" lon="-3.63905">
        <ele>-45.36</ele>
        <time>2019-07-14T10:27:19Z</time>
      </trkpt>
      <trkpt lat="47.78052" lon="-3.63909">
        <ele>-45.19</ele>
        <time>2019-07-14T10:27:20Z</time>
      </trkpt>
      <trkpt lat="47.78058" lon="-3.63912">
        <ele>-45.1</ele>
        <time>2019-07-14T10:27:22Z</time>
      </trkpt>
      <trkpt lat="47.78064" lon="-3.63916">
        <ele>-45.29</ele>
        <time>2019-07-14T10:27:24Z</time>
      </trkpt>
      <trkpt lat="47.78065" lon="-3.63923">
        <ele>-44.8</ele>
        <time>2019-07-14T10:27:26Z</time>
      </trkpt>
      <trkpt lat="47.78067" lon="-3.6393">
        <ele>-44.44</ele>
        <time>2019-07-14T10:27:28Z</time>
      </trkpt>
      <trkpt lat="47.78067" lon="-3.63938">
        <ele>-43.06</ele>
        <time>2019-07-14T10:27:30Z</time>
      </trkpt>
      <trkpt lat="47.7807" lon="-3.63951">
        <ele>-41.64</ele>
        <time>2019-07-14T10:27:32Z</time>
      </trkpt>
      <trkpt lat="47.7807" lon="-3.63961">
        <ele>-40.05</ele>
        <time>2019-07-14T10:27:34Z</time>
      </trkpt>
      <trkpt lat="47.7807" lon="-3.6397">
        <ele>-38.23</ele>
        <time>2019-07-14T10:27:36Z</time>
      </trkpt>
      <trkpt lat="47.78069" lon="-3.63979">
        <ele>-37.39</ele>
        <time>2019-07-14T10:27:38Z</time>
      </trkpt>
      <trkpt lat="47.78068" lon="-3.63988">
        <ele>-36.38</ele>
        <time>2019-07-14T10:27:40Z</time>
      </trkpt>
      <trkpt lat="47.78067" lon="-3.63996">
        <ele>-35.53</ele>
        <time>2019-07-14T10:27:42Z</time>
      </trkpt>
      <trkpt lat="47.78066" lon="-3.64006">
        <ele>-34.82</ele>
        <time>2019-07-14T10:27:44Z</time>
      </trkpt>
      <trkpt lat="47.78065" lon="-3.64015">
        <ele>-33.92</ele>
        <time>2019-07-14T10:27:46Z</time>
      </trkpt>
      <trkpt lat="47.78063" lon="-3.64024">
        <ele>-33</ele>
        <time>2019-07-14T10:27:48Z</time>
      </trkpt>
      <trkpt lat="47.7806" lon="-3.64037">
        <ele>-31.44</ele>
        <time>2019-07-14T10:27:50Z</time>
      </trkpt>
      <trkpt lat="47.7806" lon="-3.64045">
        <ele>-31.28</ele>
        <time>2019-07-14T10:27:51Z</time>
      </trkpt>
      <trkpt lat="47.78058" lon="-3.64055">
        <ele>-31.33</ele>
        <time>2019-07-14T10:27:53Z</time>
      </trkpt>
      <trkpt lat="47.78056" lon="-3.64065">
        <ele>-30.35</ele>
        <time>2019-07-14T10:27:55Z</time>
      </trkpt>
      <trkpt lat="47.78054" lon="-3.64077">
        <ele>-29.08</ele>
        <time>2019-07-14T10:27:57Z</time>
      </trkpt>
      <trkpt lat="47.78051" lon="-3.64089">
        <ele>-27.97</ele>
        <time>2019-07-14T10:27:59Z</time>
      </trkpt>
      <trkpt lat="47.78048" lon="-3.641">
        <ele>-27.94</ele>
        <time>2019-07-14T10:28:01Z</time>
      </trkpt>
      <trkpt lat="47.78048" lon="-3.64111">
        <ele>-27.66</ele>
        <time>2019-07-14T10:28:03Z</time>
      </trkpt>
      <trkpt lat="47.78049" lon="-3.64122">
        <ele>-26.29</ele>
        <time>2019-07-14T10:28:05Z</time>
      </trkpt>
      <trkpt lat="47.78052" lon="-3.64133">
        <ele>-25.37</ele>
        <time>2019-07-14T10:28:07Z</time>
      </trkpt>
      <trkpt lat="47.78054" lon="-3.64144">
        <ele>-24.88</ele>
        <time>2019-07-14T10:28:09Z</time>
      </trkpt>
      <trkpt lat="47.78055" lon="-3.64158">
        <ele>-24.88</ele>
        <time>2019-07-14T10:28:11Z</time>
      </trkpt>
      <trkpt lat="47.78054" lon="-3.64165">
        <ele>-24.97</ele>
        <time>2019-07-14T10:28:12Z</time>
      </trkpt>
      <trkpt lat="47.78054" lon="-3.64172">
        <ele>-25</ele>
        <time>2019-07-14T10:28:13Z</time>
      </trkpt>
      <trkpt lat="47.78054" lon="-3.6418">
        <ele>-25.01</ele>
        <time>2019-07-14T10:28:14Z</time>
      </trkpt>
      <trkpt lat="47.78053" lon="-3.64187">
        <ele>-25.01</ele>
        <time>2019-07-14T10:28:15Z</time>
      </trkpt>
      <trkpt lat="47.78052" lon="-3.64194">
        <ele>-24.87</ele>
        <time>2019-07-14T10:28:16Z</time>
      </trkpt>
      <trkpt lat="47.78052" lon="-3.64207">
        <ele>-25.11</ele>
        <time>2019-07-14T10:28:18Z</time>
      </trkpt>
      <trkpt lat="47.7805" lon="-3.6422">
        <ele>-25.15</ele>
        <time>2019-07-14T10:28:20Z</time>
      </trkpt>
      <trkpt lat="47.78046" lon="-3.64228">
        <ele>-24.39</ele>
        <time>2019-07-14T10:28:22Z</time>
      </trkpt>
      <trkpt lat="47.78037" lon="-3.6423">
        <ele>-24.75</ele>
        <time>2019-07-14T10:28:24Z</time>
      </trkpt>
      <trkpt lat="47.78033" lon="-3.64228">
        <ele>-25.07</ele>
        <time>2019-07-14T10:28:25Z</time>
      </trkpt>
      <trkpt lat="47.78028" lon="-3.64227">
        <ele>-24.82</ele>
        <time>2019-07-14T10:28:26Z</time>
      </trkpt>
      <trkpt lat="47.78022" lon="-3.64227">
        <ele>-24.6</ele>
        <time>2019-07-14T10:28:27Z</time>
      </trkpt>
      <trkpt lat="47.78016" lon="-3.64227">
        <ele>-23.98</ele>
        <time>2019-07-14T10:28:28Z</time>
      </trkpt>
      <trkpt lat="47.78011" lon="-3.64227">
        <ele>-23.79</ele>
        <time>2019-07-14T10:28:29Z</time>
      </trkpt>
      <trkpt lat="47.78005" lon="-3.64228">
        <ele>-23.6</ele>
        <time>2019-07-14T10:28:30Z</time>
      </trkpt>
      <trkpt lat="47.78" lon="-3.64228">
        <ele>-23.68</ele>
        <time>2019-07-14T10:28:31Z</time>
      </trkpt>
      <trkpt lat="47.77995" lon="-3.64228">
        <ele>-23.77</ele>
        <time>2019-07-14T10:28:32Z</time>
      </trkpt>
      <trkpt lat="47.77989" lon="-3.64229">
        <ele>-23.73</ele>
        <time>2019-07-14T10:28:33Z</time>
      </trkpt>
      <trkpt lat="47.77984" lon="-3.64229">
        <ele>-23.86</ele>
        <time>2019-07-14T10:28:34Z</time>
      </trkpt>
      <trkpt lat="47.77979" lon="-3.64229">
        <ele>-23.83</ele>
        <time>2019-07-14T10:28:35Z</time>
      </trkpt>
      <trkpt lat="47.77973" lon="-3.64229">
        <ele>-23.75</ele>
        <time>2019-07-14T10:28:36Z</time>
      </trkpt>
      <trkpt lat="47.77968" lon="-3.6423">
        <ele>-23.93</ele>
        <time>2019-07-14T10:28:37Z</time>
      </trkpt>
      <trkpt lat="47.77962" lon="-3.6423">
        <ele>-24.13</ele>
        <time>2019-07-14T10:28:38Z</time>
      </trkpt>
      <trkpt lat="47.77957" lon="-3.64229">
        <ele>-24.19</ele>
        <time>2019-07-14T10:28:39Z</time>
      </trkpt>
      <trkpt lat="47.77951" lon="-3.64229">
        <ele>-24.27</ele>
        <time>2019-07-14T10:28:40Z</time>
      </trkpt>
      <trkpt lat="47.77946" lon="-3.64227">
        <ele>-24.37</ele>
        <time>2019-07-14T10:28:41Z</time>
      </trkpt>
      <trkpt lat="47.7794" lon="-3.64226">
        <ele>-24.47</ele>
        <time>2019-07-14T10:28:42Z</time>
      </trkpt>
      <trkpt lat="47.77935" lon="-3.64225">
        <ele>-24.64</ele>
        <time>2019-07-14T10:28:43Z</time>
      </trkpt>
      <trkpt lat="47.77929" lon="-3.64224">
        <ele>-24.83</ele>
        <time>2019-07-14T10:28:44Z</time>
      </trkpt>
      <trkpt lat="47.77923" lon="-3.64223">
        <ele>-24.96</ele>
        <time>2019-07-14T10:28:45Z</time>
      </trkpt>
      <trkpt lat="47.77918" lon="-3.64221">
        <ele>-24.86</ele>
        <time>2019-07-14T10:28:46Z</time>
      </trkpt>
      <trkpt lat="47.77912" lon="-3.6422">
        <ele>-24.62</ele>
        <time>2019-07-14T10:28:47Z</time>
      </trkpt>
      <trkpt lat="47.77906" lon="-3.64218">
        <ele>-24.47</ele>
        <time>2019-07-14T10:28:48Z</time>
      </trkpt>
      <trkpt lat="47.77901" lon="-3.64216">
        <ele>-24.43</ele>
        <time>2019-07-14T10:28:49Z</time>
      </trkpt>
      <trkpt lat="47.77895" lon="-3.64214">
        <ele>-24.35</ele>
        <time>2019-07-14T10:28:50Z</time>
      </trkpt>
      <trkpt lat="47.77889" lon="-3.64213">
        <ele>-24.39</ele>
        <time>2019-07-14T10:28:51Z</time>
      </trkpt>
      <trkpt lat="47.77884" lon="-3.64212">
        <ele>-24.34</ele>
        <time>2019-07-14T10:28:52Z</time>
      </trkpt>
      <trkpt lat="47.77878" lon="-3.6421">
        <ele>-24.18</ele>
        <time>2019-07-14T10:28:53Z</time>
      </trkpt>
      <trkpt lat="47.77871" lon="-3.64209">
        <ele>-24.2</ele>
        <time>2019-07-14T10:28:54Z</time>
      </trkpt>
      <trkpt lat="47.77865" lon="-3.64208">
        <ele>-24.21</ele>
        <time>2019-07-14T10:28:55Z</time>
      </trkpt>
      <trkpt lat="47.7786" lon="-3.64207">
        <ele>-24.28</ele>
        <time>2019-07-14T10:28:56Z</time>
      </trkpt>
      <trkpt lat="47.77854" lon="-3.64205">
        <ele>-24.16</ele>
        <time>2019-07-14T10:28:57Z</time>
      </trkpt>
      <trkpt lat="47.77848" lon="-3.64204">
        <ele>-24.34</ele>
        <time>2019-07-14T10:28:58Z</time>
      </trkpt>
      <trkpt lat="47.77842" lon="-3.64203">
        <ele>-24.67</ele>
        <time>2019-07-14T10:28:59Z</time>
      </trkpt>
      <trkpt lat="47.77837" lon="-3.64204">
        <ele>-24.84</ele>
        <time>2019-07-14T10:29:00Z</time>
      </trkpt>
      <trkpt lat="47.77831" lon="-3.64207">
        <ele>-25.24</ele>
        <time>2019-07-14T10:29:01Z</time>
      </trkpt>
      <trkpt lat="47.77827" lon="-3.64212">
        <ele>-25.5</ele>
        <time>2019-07-14T10:29:02Z</time>
      </trkpt>
      <trkpt lat="47.77824" lon="-3.6422">
        <ele>-25.25</ele>
        <time>2019-07-14T10:29:04Z</time>
      </trkpt>
      <trkpt lat="47.77827" lon="-3.64215">
        <ele>-24.12</ele>
        <time>2019-07-14T10:29:08Z</time>
      </trkpt>
      <trkpt lat="47.77831" lon="-3.64208">
        <ele>-24.52</ele>
        <time>2019-07-14T10:29:10Z</time>
      </trkpt>
      <trkpt lat="47.77829" lon="-3.64199">
        <ele>-24.6</ele>
        <time>2019-07-14T10:29:12Z</time>
      </trkpt>
      <trkpt lat="47.77827" lon="-3.64193">
        <ele>-24.33</ele>
        <time>2019-07-14T10:29:13Z</time>
      </trkpt>
      <trkpt lat="47.77824" lon="-3.64187">
        <ele>-24.11</ele>
        <time>2019-07-14T10:29:14Z</time>
      </trkpt>
      <trkpt lat="47.77821" lon="-3.6418">
        <ele>-23.62</ele>
        <time>2019-07-14T10:29:15Z</time>
      </trkpt>
      <trkpt lat="47.77819" lon="-3.64173">
        <ele>-23.12</ele>
        <time>2019-07-14T10:29:16Z</time>
      </trkpt>
      <trkpt lat="47.77817" lon="-3.64165">
        <ele>-22.77</ele>
        <time>2019-07-14T10:29:17Z</time>
      </trkpt>
      <trkpt lat="47.77815" lon="-3.64158">
        <ele>-22.66</ele>
        <time>2019-07-14T10:29:18Z</time>
      </trkpt>
      <trkpt lat="47.77812" lon="-3.6415">
        <ele>-22.77</ele>
        <time>2019-07-14T10:29:19Z</time>
      </trkpt>
      <trkpt lat="47.77811" lon="-3.64141">
        <ele>-22.8</ele>
        <time>2019-07-14T10:29:20Z</time>
      </trkpt>
      <trkpt lat="47.77809" lon="-3.64133">
        <ele>-23.02</ele>
        <time>2019-07-14T10:29:21Z</time>
      </trkpt>
      <trkpt lat="47.77807" lon="-3.64125">
        <ele>-23.15</ele>
        <time>2019-07-14T10:29:22Z</time>
      </trkpt>
      <trkpt lat="47.77803" lon="-3.64119">
        <ele>-23.19</ele>
        <time>2019-07-14T10:29:23Z</time>
      </trkpt>
      <trkpt lat="47.77798" lon="-3.64116">
        <ele>-23.14</ele>
        <time>2019-07-14T10:29:24Z</time>
      </trkpt>
      <trkpt lat="47.77792" lon="-3.64116">
        <ele>-23.12</ele>
        <time>2019-07-14T10:29:25Z</time>
      </trkpt>
      <trkpt lat="47.77787" lon="-3.64117">
        <ele>-23.25</ele>
        <time>2019-07-14T10:29:26Z</time>
      </trkpt>
      <trkpt lat="47.77782" lon="-3.64117">
        <ele>-23.29</ele>
        <time>2019-07-14T10:29:27Z</time>
      </trkpt>
      <trkpt lat="47.77777" lon="-3.64117">
        <ele>-23.38</ele>
        <time>2019-07-14T10:29:28Z</time>
      </trkpt>
      <trkpt lat="47.77772" lon="-3.64115">
        <ele>-23.68</ele>
        <time>2019-07-14T10:29:29Z</time>
      </trkpt>
      <trkpt lat="47.77766" lon="-3.64113">
        <ele>-25.1</ele>
        <time>2019-07-14T10:29:30Z</time>
      </trkpt>
      <trkpt lat="47.77763" lon="-3.64108">
        <ele>-25.81</ele>
        <time>2019-07-14T10:29:31Z</time>
      </trkpt>
      <trkpt lat="47.77761" lon="-3.64096">
        <ele>-26.98</ele>
        <time>2019-07-14T10:29:33Z</time>
      </trkpt>
      <trkpt lat="47.77763" lon="-3.6409">
        <ele>-27.35</ele>
        <time>2019-07-14T10:29:34Z</time>
      </trkpt>
      <trkpt lat="47.77763" lon="-3.64082">
        <ele>-27.32</ele>
        <time>2019-07-14T10:29:35Z</time>
      </trkpt>
      <trkpt lat="47.77762" lon="-3.64075">
        <ele>-27.81</ele>
        <time>2019-07-14T10:29:36Z</time>
      </trkpt>
      <trkpt lat="47.77759" lon="-3.64069">
        <ele>-28.44</ele>
        <time>2019-07-14T10:29:37Z</time>
      </trkpt>
      <trkpt lat="47.77755" lon="-3.64064">
        <ele>-28.91</ele>
        <time>2019-07-14T10:29:38Z</time>
      </trkpt>
      <trkpt lat="47.77751" lon="-3.6406">
        <ele>-29.05</ele>
        <time>2019-07-14T10:29:39Z</time>
      </trkpt>
      <trkpt lat="47.77746" lon="-3.64058">
        <ele>-28.88</ele>
        <time>2019-07-14T10:29:40Z</time>
      </trkpt>
      <trkpt lat="47.77741" lon="-3.64057">
        <ele>-28.83</ele>
        <time>2019-07-14T10:29:41Z</time>
      </trkpt>
      <trkpt lat="47.77736" lon="-3.64056">
        <ele>-28.96</ele>
        <time>2019-07-14T10:29:42Z</time>
      </trkpt>
      <trkpt lat="47.7773" lon="-3.64057">
        <ele>-29.07</ele>
        <time>2019-07-14T10:29:43Z</time>
      </trkpt>
      <trkpt lat="47.77724" lon="-3.64058">
        <ele>-29.24</ele>
        <time>2019-07-14T10:29:44Z</time>
      </trkpt>
      <trkpt lat="47.77718" lon="-3.64058">
        <ele>-29.85</ele>
        <time>2019-07-14T10:29:45Z</time>
      </trkpt>
      <trkpt lat="47.77712" lon="-3.6406">
        <ele>-30.38</ele>
        <time>2019-07-14T10:29:46Z</time>
      </trkpt>
      <trkpt lat="47.77705" lon="-3.64061">
        <ele>-31.17</ele>
        <time>2019-07-14T10:29:47Z</time>
      </trkpt>
      <trkpt lat="47.77699" lon="-3.64062">
        <ele>-32.18</ele>
        <time>2019-07-14T10:29:48Z</time>
      </trkpt>
      <trkpt lat="47.77693" lon="-3.64062">
        <ele>-33.32</ele>
        <time>2019-07-14T10:29:49Z</time>
      </trkpt>
      <trkpt lat="47.77686" lon="-3.64063">
        <ele>-34.37</ele>
        <time>2019-07-14T10:29:50Z</time>
      </trkpt>
      <trkpt lat="47.7768" lon="-3.64063">
        <ele>-34.89</ele>
        <time>2019-07-14T10:29:51Z</time>
      </trkpt>
      <trkpt lat="47.77674" lon="-3.64061">
        <ele>-35.32</ele>
        <time>2019-07-14T10:29:52Z</time>
      </trkpt>
      <trkpt lat="47.77669" lon="-3.64055">
        <ele>-35.46</ele>
        <time>2019-07-14T10:29:53Z</time>
      </trkpt>
      <trkpt lat="47.77665" lon="-3.64049">
        <ele>-35.43</ele>
        <time>2019-07-14T10:29:54Z</time>
      </trkpt>
      <trkpt lat="47.77661" lon="-3.64042">
        <ele>-35.21</ele>
        <time>2019-07-14T10:29:55Z</time>
      </trkpt>
      <trkpt lat="47.77658" lon="-3.64037">
        <ele>-36.05</ele>
        <time>2019-07-14T10:29:56Z</time>
      </trkpt>
      <trkpt lat="47.7765" lon="-3.64035">
        <ele>-37.51</ele>
        <time>2019-07-14T10:29:58Z</time>
      </trkpt>
      <trkpt lat="47.77641" lon="-3.64039">
        <ele>-38.8</ele>
        <time>2019-07-14T10:30:00Z</time>
      </trkpt>
      <trkpt lat="47.77637" lon="-3.64041">
        <ele>-39.37</ele>
        <time>2019-07-14T10:30:01Z</time>
      </trkpt>
      <trkpt lat="47.77633" lon="-3.64052">
        <ele>-40.2</ele>
        <time>2019-07-14T10:30:03Z</time>
      </trkpt>
      <trkpt lat="47.77633" lon="-3.64061">
        <ele>-40.14</ele>
        <time>2019-07-14T10:30:04Z</time>
      </trkpt>
      <trkpt lat="47.77633" lon="-3.64069">
        <ele>-39.77</ele>
        <time>2019-07-14T10:30:05Z</time>
      </trkpt>
      <trkpt lat="47.77633" lon="-3.64078">
        <ele>-39.03</ele>
        <time>2019-07-14T10:30:06Z</time>
      </trkpt>
      <trkpt lat="47.77633" lon="-3.64085">
        <ele>-38.74</ele>
        <time>2019-07-14T10:30:07Z</time>
      </trkpt>
      <trkpt lat="47.77632" lon="-3.64093">
        <ele>-38.51</ele>
        <time>2019-07-14T10:30:08Z</time>
      </trkpt>
      <trkpt lat="47.77631" lon="-3.64101">
        <ele>-38.23</ele>
        <time>2019-07-14T10:30:09Z</time>
      </trkpt>
      <trkpt lat="47.77631" lon="-3.64109">
        <ele>-38.01</ele>
        <time>2019-07-14T10:30:10Z</time>
      </trkpt>
      <trkpt lat="47.7763" lon="-3.64117">
        <ele>-37.8</ele>
        <time>2019-07-14T10:30:11Z</time>
      </trkpt>
      <trkpt lat="47.7763" lon="-3.64124">
        <ele>-37.53</ele>
        <time>2019-07-14T10:30:12Z</time>
      </trkpt>
      <trkpt lat="47.77631" lon="-3.64132">
        <ele>-36.96</ele>
        <time>2019-07-14T10:30:13Z</time>
      </trkpt>
      <trkpt lat="47.77634" lon="-3.64138">
        <ele>-37.28</ele>
        <time>2019-07-14T10:30:14Z</time>
      </trkpt>
      <trkpt lat="47.77642" lon="-3.64142">
        <ele>-37.74</ele>
        <time>2019-07-14T10:30:16Z</time>
      </trkpt>
      <trkpt lat="47.7765" lon="-3.64144">
        <ele>-36.93</ele>
        <time>2019-07-14T10:30:18Z</time>
      </trkpt>
      <trkpt lat="47.77655" lon="-3.64145">
        <ele>-36.36</ele>
        <time>2019-07-14T10:30:19Z</time>
      </trkpt>
      <trkpt lat="47.77661" lon="-3.64151">
        <ele>-35.19</ele>
        <time>2019-07-14T10:30:21Z</time>
      </trkpt>
      <trkpt lat="47.77662" lon="-3.64163">
        <ele>-34.94</ele>
        <time>2019-07-14T10:30:23Z</time>
      </trkpt>
      <trkpt lat="47.77661" lon="-3.6417">
        <ele>-35.06</ele>
        <time>2019-07-14T10:30:24Z</time>
      </trkpt>
      <trkpt lat="47.77661" lon="-3.64177">
        <ele>-35.03</ele>
        <time>2019-07-14T10:30:25Z</time>
      </trkpt>
      <trkpt lat="47.7766" lon="-3.64184">
        <ele>-34.53</ele>
        <time>2019-07-14T10:30:26Z</time>
      </trkpt>
      <trkpt lat="47.77659" lon="-3.64192">
        <ele>-34.1</ele>
        <time>2019-07-14T10:30:27Z</time>
      </trkpt>
      <trkpt lat="47.77659" lon="-3.642">
        <ele>-33.76</ele>
        <time>2019-07-14T10:30:28Z</time>
      </trkpt>
      <trkpt lat="47.77659" lon="-3.64207">
        <ele>-33.59</ele>
        <time>2019-07-14T10:30:29Z</time>
      </trkpt>
      <trkpt lat="47.77658" lon="-3.64214">
        <ele>-33.81</ele>
        <time>2019-07-14T10:30:30Z</time>
      </trkpt>
      <trkpt lat="47.77657" lon="-3.64222">
        <ele>-33.67</ele>
        <time>2019-07-14T10:30:31Z</time>
      </trkpt>
      <trkpt lat="47.77654" lon="-3.6423">
        <ele>-33.91</ele>
        <time>2019-07-14T10:30:32Z</time>
      </trkpt>
      <trkpt lat="47.77653" lon="-3.64238">
        <ele>-34.26</ele>
        <time>2019-07-14T10:30:33Z</time>
      </trkpt>
      <trkpt lat="47.77652" lon="-3.64246">
        <ele>-34.16</ele>
        <time>2019-07-14T10:30:34Z</time>
      </trkpt>
      <trkpt lat="47.77651" lon="-3.64253">
        <ele>-34.41</ele>
        <time>2019-07-14T10:30:35Z</time>
      </trkpt>
      <trkpt lat="47.7765" lon="-3.64261">
        <ele>-34.83</ele>
        <time>2019-07-14T10:30:36Z</time>
      </trkpt>
      <trkpt lat="47.7765" lon="-3.64269">
        <ele>-34.96</ele>
        <time>2019-07-14T10:30:37Z</time>
      </trkpt>
      <trkpt lat="47.77649" lon="-3.64277">
        <ele>-34.37</ele>
        <time>2019-07-14T10:30:38Z</time>
      </trkpt>
      <trkpt lat="47.77648" lon="-3.64285">
        <ele>-33.98</ele>
        <time>2019-07-14T10:30:39Z</time>
      </trkpt>
      <trkpt lat="47.77647" lon="-3.64293">
        <ele>-34.14</ele>
        <time>2019-07-14T10:30:40Z</time>
      </trkpt>
      <trkpt lat="47.77647" lon="-3.64301">
        <ele>-34.75</ele>
        <time>2019-07-14T10:30:41Z</time>
      </trkpt>
      <trkpt lat="47.77646" lon="-3.64309">
        <ele>-34.93</ele>
        <time>2019-07-14T10:30:42Z</time>
      </trkpt>
      <trkpt lat="47.77646" lon="-3.64318">
        <ele>-35.2</ele>
        <time>2019-07-14T10:30:43Z</time>
      </trkpt>
      <trkpt lat="47.77647" lon="-3.64326">
        <ele>-35.07</ele>
        <time>2019-07-14T10:30:44Z</time>
      </trkpt>
      <trkpt lat="47.77648" lon="-3.64334">
        <ele>-34.82</ele>
        <time>2019-07-14T10:30:45Z</time>
      </trkpt>
      <trkpt lat="47.77651" lon="-3.6434">
        <ele>-34.39</ele>
        <time>2019-07-14T10:30:46Z</time>
      </trkpt>
      <trkpt lat="47.77654" lon="-3.64346">
        <ele>-34.27</ele>
        <time>2019-07-14T10:30:47Z</time>
      </trkpt>
      <trkpt lat="47.77657" lon="-3.64353">
        <ele>-33.88</ele>
        <time>2019-07-14T10:30:48Z</time>
      </trkpt>
      <trkpt lat="47.77659" lon="-3.64359">
        <ele>-33.41</ele>
        <time>2019-07-14T10:30:49Z</time>
      </trkpt>
      <trkpt lat="47.77662" lon="-3.64366">
        <ele>-33.06</ele>
        <time>2019-07-14T10:30:50Z</time>
      </trkpt>
      <trkpt lat="47.77665" lon="-3.64373">
        <ele>-32.75</ele>
        <time>2019-07-14T10:30:51Z</time>
      </trkpt>
      <trkpt lat="47.77667" lon="-3.6438">
        <ele>-32.51</ele>
        <time>2019-07-14T10:30:52Z</time>
      </trkpt>
      <trkpt lat="47.77673" lon="-3.64391">
        <ele>-33.17</ele>
        <time>2019-07-14T10:30:54Z</time>
      </trkpt>
      <trkpt lat="47.77676" lon="-3.64396">
        <ele>-34.11</ele>
        <time>2019-07-14T10:30:55Z</time>
      </trkpt>
      <trkpt lat="47.7768" lon="-3.64405">
        <ele>-34.33</ele>
        <time>2019-07-14T10:30:57Z</time>
      </trkpt>
      <trkpt lat="47.77689" lon="-3.64408">
        <ele>-33.49</ele>
        <time>2019-07-14T10:30:59Z</time>
      </trkpt>
      <trkpt lat="47.77693" lon="-3.64409">
        <ele>-32.94</ele>
        <time>2019-07-14T10:31:00Z</time>
      </trkpt>
      <trkpt lat="47.77699" lon="-3.64409">
        <ele>-32.08</ele>
        <time>2019-07-14T10:31:01Z</time>
      </trkpt>
      <trkpt lat="47.77703" lon="-3.6441">
        <ele>-31.4</ele>
        <time>2019-07-14T10:31:02Z</time>
      </trkpt>
      <trkpt lat="47.77709" lon="-3.6441">
        <ele>-30.85</ele>
        <time>2019-07-14T10:31:03Z</time>
      </trkpt>
      <trkpt lat="47.77714" lon="-3.6441">
        <ele>-30.47</ele>
        <time>2019-07-14T10:31:04Z</time>
      </trkpt>
      <trkpt lat="47.77719" lon="-3.64409">
        <ele>-30.22</ele>
        <time>2019-07-14T10:31:05Z</time>
      </trkpt>
      <trkpt lat="47.77724" lon="-3.64409">
        <ele>-30.14</ele>
        <time>2019-07-14T10:31:06Z</time>
      </trkpt>
      <trkpt lat="47.7773" lon="-3.6441">
        <ele>-29.98</ele>
        <time>2019-07-14T10:31:07Z</time>
      </trkpt>
      <trkpt lat="47.77735" lon="-3.64409">
        <ele>-29.79</ele>
        <time>2019-07-14T10:31:08Z</time>
      </trkpt>
      <trkpt lat="47.7774" lon="-3.64409">
        <ele>-29.39</ele>
        <time>2019-07-14T10:31:09Z</time>
      </trkpt>
      <trkpt lat="47.77745" lon="-3.64408">
        <ele>-28.91</ele>
        <time>2019-07-14T10:31:10Z</time>
      </trkpt>
      <trkpt lat="47.7775" lon="-3.64407">
        <ele>-28.42</ele>
        <time>2019-07-14T10:31:11Z</time>
      </trkpt>
      <trkpt lat="47.77755" lon="-3.64407">
        <ele>-28.14</ele>
        <time>2019-07-14T10:31:12Z</time>
      </trkpt>
      <trkpt lat="47.7776" lon="-3.64406">
        <ele>-27.84</ele>
        <time>2019-07-14T10:31:13Z</time>
      </trkpt>
      <trkpt lat="47.77766" lon="-3.64404">
        <ele>-27</ele>
        <time>2019-07-14T10:31:15Z</time>
      </trkpt>
      <trkpt lat="47.77765" lon="-3.64413">
        <ele>-27.13</ele>
        <time>2019-07-14T10:31:18Z</time>
      </trkpt>
      <trkpt lat="47.77766" lon="-3.64423">
        <ele>-27.6</ele>
        <time>2019-07-14T10:31:20Z</time>
      </trkpt>
      <trkpt lat="47.77767" lon="-3.64437">
        <ele>-28.28</ele>
        <time>2019-07-14T10:31:22Z</time>
      </trkpt>
      <trkpt lat="47.77766" lon="-3.64445">
        <ele>-28.79</ele>
        <time>2019-07-14T10:31:23Z</time>
      </trkpt>
      <trkpt lat="47.77766" lon="-3.64452">
        <ele>-28.95</ele>
        <time>2019-07-14T10:31:24Z</time>
      </trkpt>
      <trkpt lat="47.77765" lon="-3.64461">
        <ele>-29.48</ele>
        <time>2019-07-14T10:31:25Z</time>
      </trkpt>
      <trkpt lat="47.77763" lon="-3.64469">
        <ele>-29.92</ele>
        <time>2019-07-14T10:31:26Z</time>
      </trkpt>
      <trkpt lat="47.77762" lon="-3.64477">
        <ele>-30.2</ele>
        <time>2019-07-14T10:31:27Z</time>
      </trkpt>
      <trkpt lat="47.77761" lon="-3.64486">
        <ele>-30.98</ele>
        <time>2019-07-14T10:31:28Z</time>
      </trkpt>
      <trkpt lat="47.77759" lon="-3.64495">
        <ele>-31.77</ele>
        <time>2019-07-14T10:31:29Z</time>
      </trkpt>
      <trkpt lat="47.77759" lon="-3.64505">
        <ele>-32.5</ele>
        <time>2019-07-14T10:31:30Z</time>
      </trkpt>
      <trkpt lat="47.77759" lon="-3.64512">
        <ele>-33.56</ele>
        <time>2019-07-14T10:31:31Z</time>
      </trkpt>
      <trkpt lat="47.77762" lon="-3.64521">
        <ele>-35.95</ele>
        <time>2019-07-14T10:31:33Z</time>
      </trkpt>
      <trkpt lat="47.77769" lon="-3.64524">
        <ele>-37.38</ele>
        <time>2019-07-14T10:31:35Z</time>
      </trkpt>
      <trkpt lat="47.77777" lon="-3.64526">
        <ele>-37.91</ele>
        <time>2019-07-14T10:31:37Z</time>
      </trkpt>
      <trkpt lat="47.77785" lon="-3.6453">
        <ele>-37.59</ele>
        <time>2019-07-14T10:31:39Z</time>
      </trkpt>
      <trkpt lat="47.77795" lon="-3.64531">
        <ele>-37.01</ele>
        <time>2019-07-14T10:31:41Z</time>
      </trkpt>
      <trkpt lat="47.77799" lon="-3.64532">
        <ele>-36.73</ele>
        <time>2019-07-14T10:31:42Z</time>
      </trkpt>
      <trkpt lat="47.77804" lon="-3.64533">
        <ele>-36.51</ele>
        <time>2019-07-14T10:31:43Z</time>
      </trkpt>
      <trkpt lat="47.77809" lon="-3.64533">
        <ele>-36.37</ele>
        <time>2019-07-14T10:31:44Z</time>
      </trkpt>
      <trkpt lat="47.77814" lon="-3.64533">
        <ele>-36.26</ele>
        <time>2019-07-14T10:31:45Z</time>
      </trkpt>
      <trkpt lat="47.77818" lon="-3.64533">
        <ele>-36.3</ele>
        <time>2019-07-14T10:31:46Z</time>
      </trkpt>
      <trkpt lat="47.77823" lon="-3.64532">
        <ele>-36.24</ele>
        <time>2019-07-14T10:31:47Z</time>
      </trkpt>
      <trkpt lat="47.77831" lon="-3.64532">
        <ele>-35.62</ele>
        <time>2019-07-14T10:31:49Z</time>
      </trkpt>
      <trkpt lat="47.77836" lon="-3.64532">
        <ele>-35.26</ele>
        <time>2019-07-14T10:31:50Z</time>
      </trkpt>
      <trkpt lat="47.77841" lon="-3.64531">
        <ele>-34.81</ele>
        <time>2019-07-14T10:31:51Z</time>
      </trkpt>
      <trkpt lat="47.77845" lon="-3.64531">
        <ele>-34.53</ele>
        <time>2019-07-14T10:31:52Z</time>
      </trkpt>
      <trkpt lat="47.77854" lon="-3.64528">
        <ele>-33.75</ele>
        <time>2019-07-14T10:31:54Z</time>
      </trkpt>
      <trkpt lat="47.77859" lon="-3.64526">
        <ele>-33.51</ele>
        <time>2019-07-14T10:31:55Z</time>
      </trkpt>
      <trkpt lat="47.77864" lon="-3.64525">
        <ele>-33.79</ele>
        <time>2019-07-14T10:31:56Z</time>
      </trkpt>
      <trkpt lat="47.77868" lon="-3.64523">
        <ele>-33.95</ele>
        <time>2019-07-14T10:31:57Z</time>
      </trkpt>
      <trkpt lat="47.77877" lon="-3.64521">
        <ele>-34.69</ele>
        <time>2019-07-14T10:31:59Z</time>
      </trkpt>
      <trkpt lat="47.77881" lon="-3.6452">
        <ele>-34.99</ele>
        <time>2019-07-14T10:32:00Z</time>
      </trkpt>
      <trkpt lat="47.77886" lon="-3.64519">
        <ele>-35.42</ele>
        <time>2019-07-14T10:32:01Z</time>
      </trkpt>
      <trkpt lat="47.7789" lon="-3.64518">
        <ele>-35.84</ele>
        <time>2019-07-14T10:32:02Z</time>
      </trkpt>
      <trkpt lat="47.77895" lon="-3.64516">
        <ele>-36.31</ele>
        <time>2019-07-14T10:32:03Z</time>
      </trkpt>
      <trkpt lat="47.77899" lon="-3.64514">
        <ele>-36.24</ele>
        <time>2019-07-14T10:32:04Z</time>
      </trkpt>
      <trkpt lat="47.77904" lon="-3.64512">
        <ele>-35.73</ele>
        <time>2019-07-14T10:32:05Z</time>
      </trkpt>
      <trkpt lat="47.77912" lon="-3.64509">
        <ele>-34.47</ele>
        <time>2019-07-14T10:32:07Z</time>
      </trkpt>
      <trkpt lat="47.7792" lon="-3.64508">
        <ele>-33.66</ele>
        <time>2019-07-14T10:32:09Z</time>
      </trkpt>
      <trkpt lat="47.77929" lon="-3.64507">
        <ele>-32.41</ele>
        <time>2019-07-14T10:32:11Z</time>
      </trkpt>
      <trkpt lat="47.77934" lon="-3.64507">
        <ele>-32.48</ele>
        <time>2019-07-14T10:32:12Z</time>
      </trkpt>
      <trkpt lat="47.77939" lon="-3.64507">
        <ele>-32.64</ele>
        <time>2019-07-14T10:32:13Z</time>
      </trkpt>
      <trkpt lat="47.77944" lon="-3.64506">
        <ele>-32.83</ele>
        <time>2019-07-14T10:32:14Z</time>
      </trkpt>
      <trkpt lat="47.77949" lon="-3.64505">
        <ele>-32.75</ele>
        <time>2019-07-14T10:32:15Z</time>
      </trkpt>
      <trkpt lat="47.77955" lon="-3.64503">
        <ele>-32.65</ele>
        <time>2019-07-14T10:32:16Z</time>
      </trkpt>
      <trkpt lat="47.77959" lon="-3.645">
        <ele>-32.69</ele>
        <time>2019-07-14T10:32:17Z</time>
      </trkpt>
      <trkpt lat="47.77965" lon="-3.64498">
        <ele>-32.71</ele>
        <time>2019-07-14T10:32:18Z</time>
      </trkpt>
      <trkpt lat="47.77969" lon="-3.64496">
        <ele>-32.78</ele>
        <time>2019-07-14T10:32:19Z</time>
      </trkpt>
      <trkpt lat="47.77974" lon="-3.64493">
        <ele>-32.94</ele>
        <time>2019-07-14T10:32:20Z</time>
      </trkpt>
      <trkpt lat="47.77977" lon="-3.64489">
        <ele>-33.2</ele>
        <time>2019-07-14T10:32:21Z</time>
      </trkpt>
      <trkpt lat="47.77985" lon="-3.64484">
        <ele>-33.3</ele>
        <time>2019-07-14T10:32:23Z</time>
      </trkpt>
      <trkpt lat="47.7799" lon="-3.64477">
        <ele>-33.73</ele>
        <time>2019-07-14T10:32:24Z</time>
      </trkpt>
      <trkpt lat="47.77998" lon="-3.64469">
        <ele>-34.04</ele>
        <time>2019-07-14T10:32:26Z</time>
      </trkpt>
      <trkpt lat="47.78002" lon="-3.64463">
        <ele>-34.37</ele>
        <time>2019-07-14T10:32:27Z</time>
      </trkpt>
      <trkpt lat="47.78007" lon="-3.64457">
        <ele>-34.4</ele>
        <time>2019-07-14T10:32:28Z</time>
      </trkpt>
      <trkpt lat="47.78011" lon="-3.64452">
        <ele>-34.62</ele>
        <time>2019-07-14T10:32:29Z</time>
      </trkpt>
      <trkpt lat="47.78015" lon="-3.64447">
        <ele>-34.68</ele>
        <time>2019-07-14T10:32:30Z</time>
      </trkpt>
      <trkpt lat="47.78018" lon="-3.64444">
        <ele>-34.63</ele>
        <time>2019-07-14T10:32:31Z</time>
      </trkpt>
      <trkpt lat="47.78022" lon="-3.6444">
        <ele>-34.69</ele>
        <time>2019-07-14T10:32:32Z</time>
      </trkpt>
      <trkpt lat="47.78029" lon="-3.64432">
        <ele>-34.62</ele>
        <time>2019-07-14T10:32:34Z</time>
      </trkpt>
      <trkpt lat="47.78036" lon="-3.64424">
        <ele>-34.63</ele>
        <time>2019-07-14T10:32:36Z</time>
      </trkpt>
      <trkpt lat="47.7804" lon="-3.6442">
        <ele>-34.55</ele>
        <time>2019-07-14T10:32:37Z</time>
      </trkpt>
      <trkpt lat="47.78045" lon="-3.64413">
        <ele>-34.24</ele>
        <time>2019-07-14T10:32:39Z</time>
      </trkpt>
      <trkpt lat="47.78049" lon="-3.64404">
        <ele>-34.14</ele>
        <time>2019-07-14T10:32:41Z</time>
      </trkpt>
      <trkpt lat="47.78052" lon="-3.64394">
        <ele>-34.09</ele>
        <time>2019-07-14T10:32:43Z</time>
      </trkpt>
      <trkpt lat="47.78055" lon="-3.64385">
        <ele>-34.04</ele>
        <time>2019-07-14T10:32:45Z</time>
      </trkpt>
      <trkpt lat="47.78057" lon="-3.64371">
        <ele>-33.85</ele>
        <time>2019-07-14T10:32:47Z</time>
      </trkpt>
      <trkpt lat="47.78059" lon="-3.64364">
        <ele>-33.61</ele>
        <time>2019-07-14T10:32:48Z</time>
      </trkpt>
      <trkpt lat="47.7806" lon="-3.64358">
        <ele>-33.47</ele>
        <time>2019-07-14T10:32:49Z</time>
      </trkpt>
      <trkpt lat="47.78061" lon="-3.6435">
        <ele>-33.22</ele>
        <time>2019-07-14T10:32:50Z</time>
      </trkpt>
      <trkpt lat="47.78061" lon="-3.64343">
        <ele>-32.93</ele>
        <time>2019-07-14T10:32:51Z</time>
      </trkpt>
      <trkpt lat="47.78062" lon="-3.64337">
        <ele>-32.78</ele>
        <time>2019-07-14T10:32:52Z</time>
      </trkpt>
      <trkpt lat="47.78064" lon="-3.64325">
        <ele>-32.49</ele>
        <time>2019-07-14T10:32:54Z</time>
      </trkpt>
      <trkpt lat="47.78067" lon="-3.64315">
        <ele>-32.42</ele>
        <time>2019-07-14T10:32:56Z</time>
      </trkpt>
      <trkpt lat="47.78074" lon="-3.64314">
        <ele>-31.86</ele>
        <time>2019-07-14T10:32:58Z</time>
      </trkpt>
      <trkpt lat="47.7808" lon="-3.64317">
        <ele>-31.31</ele>
        <time>2019-07-14T10:33:00Z</time>
      </trkpt>
      <trkpt lat="47.78087" lon="-3.64322">
        <ele>-29.97</ele>
        <time>2019-07-14T10:33:02Z</time>
      </trkpt>
      <trkpt lat="47.78095" lon="-3.64327">
        <ele>-28.69</ele>
        <time>2019-07-14T10:33:04Z</time>
      </trkpt>
      <trkpt lat="47.781" lon="-3.64329">
        <ele>-28.21</ele>
        <time>2019-07-14T10:33:05Z</time>
      </trkpt>
      <trkpt lat="47.78104" lon="-3.64332">
        <ele>-28.21</ele>
        <time>2019-07-14T10:33:06Z</time>
      </trkpt>
      <trkpt lat="47.78109" lon="-3.64335">
        <ele>-28.14</ele>
        <time>2019-07-14T10:33:07Z</time>
      </trkpt>
      <trkpt lat="47.78114" lon="-3.64336">
        <ele>-27.7</ele>
        <time>2019-07-14T10:33:08Z</time>
      </trkpt>
      <trkpt lat="47.78119" lon="-3.64337">
        <ele>-27.01</ele>
        <time>2019-07-14T10:33:09Z</time>
      </trkpt>
      <trkpt lat="47.78124" lon="-3.64337">
        <ele>-26.73</ele>
        <time>2019-07-14T10:33:10Z</time>
      </trkpt>
      <trkpt lat="47.7813" lon="-3.64338">
        <ele>-26.51</ele>
        <time>2019-07-14T10:33:11Z</time>
      </trkpt>
      <trkpt lat="47.78134" lon="-3.64338">
        <ele>-25.6</ele>
        <time>2019-07-14T10:33:12Z</time>
      </trkpt>
      <trkpt lat="47.7814" lon="-3.64338">
        <ele>-25.19</ele>
        <time>2019-07-14T10:33:13Z</time>
      </trkpt>
      <trkpt lat="47.78144" lon="-3.64337">
        <ele>-24.78</ele>
        <time>2019-07-14T10:33:14Z</time>
      </trkpt>
      <trkpt lat="47.7815" lon="-3.64336">
        <ele>-24.31</ele>
        <time>2019-07-14T10:33:15Z</time>
      </trkpt>
      <trkpt lat="47.78155" lon="-3.64335">
        <ele>-23.61</ele>
        <time>2019-07-14T10:33:16Z</time>
      </trkpt>
      <trkpt lat="47.7816" lon="-3.64334">
        <ele>-23.12</ele>
        <time>2019-07-14T10:33:17Z</time>
      </trkpt>
      <trkpt lat="47.78169" lon="-3.64331">
        <ele>-22.15</ele>
        <time>2019-07-14T10:33:19Z</time>
      </trkpt>
      <trkpt lat="47.78177" lon="-3.64327">
        <ele>-21.34</ele>
        <time>2019-07-14T10:33:21Z</time>
      </trkpt>
      <trkpt lat="47.78184" lon="-3.64319">
        <ele>-21.57</ele>
        <time>2019-07-14T10:33:23Z</time>
      </trkpt>
      <trkpt lat="47.78186" lon="-3.64307">
        <ele>-21.97</ele>
        <time>2019-07-14T10:33:25Z</time>
      </trkpt>
      <trkpt lat="47.78187" lon="-3.64301">
        <ele>-21.86</ele>
        <time>2019-07-14T10:33:26Z</time>
      </trkpt>
      <trkpt lat="47.78188" lon="-3.64293">
        <ele>-21.48</ele>
        <time>2019-07-14T10:33:27Z</time>
      </trkpt>
      <trkpt lat="47.78189" lon="-3.64287">
        <ele>-21.71</ele>
        <time>2019-07-14T10:33:28Z</time>
      </trkpt>
      <trkpt lat="47.78191" lon="-3.6428">
        <ele>-22.13</ele>
        <time>2019-07-14T10:33:29Z</time>
      </trkpt>
      <trkpt lat="47.78193" lon="-3.64273">
        <ele>-22.26</ele>
        <time>2019-07-14T10:33:30Z</time>
      </trkpt>
      <trkpt lat="47.78196" lon="-3.64266">
        <ele>-21.88</ele>
        <time>2019-07-14T10:33:31Z</time>
      </trkpt>
      <trkpt lat="47.78202" lon="-3.64255">
        <ele>-22.1</ele>
        <time>2019-07-14T10:33:33Z</time>
      </trkpt>
      <trkpt lat="47.78205" lon="-3.64249">
        <ele>-22.04</ele>
        <time>2019-07-14T10:33:34Z</time>
      </trkpt>
      <trkpt lat="47.78209" lon="-3.64244">
        <ele>-21.67</ele>
        <time>2019-07-14T10:33:35Z</time>
      </trkpt>
      <trkpt lat="47.78213" lon="-3.64239">
        <ele>-21.42</ele>
        <time>2019-07-14T10:33:36Z</time>
      </trkpt>
      <trkpt lat="47.78217" lon="-3.64235">
        <ele>-21.06</ele>
        <time>2019-07-14T10:33:37Z</time>
      </trkpt>
      <trkpt lat="47.78221" lon="-3.6423">
        <ele>-21.03</ele>
        <time>2019-07-14T10:33:38Z</time>
      </trkpt>
      <trkpt lat="47.78225" lon="-3.64225">
        <ele>-21.37</ele>
        <time>2019-07-14T10:33:39Z</time>
      </trkpt>
      <trkpt lat="47.7823" lon="-3.64219">
        <ele>-21.33</ele>
        <time>2019-07-14T10:33:40Z</time>
      </trkpt>
      <trkpt lat="47.78234" lon="-3.64214">
        <ele>-21.18</ele>
        <time>2019-07-14T10:33:41Z</time>
      </trkpt>
      <trkpt lat="47.78237" lon="-3.64209">
        <ele>-21.34</ele>
        <time>2019-07-14T10:33:42Z</time>
      </trkpt>
      <trkpt lat="47.78241" lon="-3.64203">
        <ele>-22.02</ele>
        <time>2019-07-14T10:33:43Z</time>
      </trkpt>
      <trkpt lat="47.78245" lon="-3.64197">
        <ele>-22.78</ele>
        <time>2019-07-14T10:33:44Z</time>
      </trkpt>
      <trkpt lat="47.78248" lon="-3.64192">
        <ele>-23.71</ele>
        <time>2019-07-14T10:33:45Z</time>
      </trkpt>
      <trkpt lat="47.78252" lon="-3.64185">
        <ele>-24.41</ele>
        <time>2019-07-14T10:33:46Z</time>
      </trkpt>
      <trkpt lat="47.78255" lon="-3.64178">
        <ele>-24.97</ele>
        <time>2019-07-14T10:33:47Z</time>
      </trkpt>
      <trkpt lat="47.78258" lon="-3.64171">
        <ele>-25.42</ele>
        <time>2019-07-14T10:33:48Z</time>
      </trkpt>
      <trkpt lat="47.78261" lon="-3.64163">
        <ele>-25.48</ele>
        <time>2019-07-14T10:33:49Z</time>
      </trkpt>
      <trkpt lat="47.78263" lon="-3.64154">
        <ele>-25.92</ele>
        <time>2019-07-14T10:33:50Z</time>
      </trkpt>
      <trkpt lat="47.78265" lon="-3.64147">
        <ele>-26.41</ele>
        <time>2019-07-14T10:33:51Z</time>
      </trkpt>
      <trkpt lat="47.78267" lon="-3.64139">
        <ele>-26.83</ele>
        <time>2019-07-14T10:33:52Z</time>
      </trkpt>
      <trkpt lat="47.78269" lon="-3.64132">
        <ele>-27.17</ele>
        <time>2019-07-14T10:33:53Z</time>
      </trkpt>
      <trkpt lat="47.7827" lon="-3.64124">
        <ele>-27.27</ele>
        <time>2019-07-14T10:33:54Z</time>
      </trkpt>
      <trkpt lat="47.78273" lon="-3.64117">
        <ele>-28.14</ele>
        <time>2019-07-14T10:33:55Z</time>
      </trkpt>
      <trkpt lat="47.78275" lon="-3.6411">
        <ele>-29.17</ele>
        <time>2019-07-14T10:33:56Z</time>
      </trkpt>
      <trkpt lat="47.78278" lon="-3.64102">
        <ele>-29.48</ele>
        <time>2019-07-14T10:33:57Z</time>
      </trkpt>
      <trkpt lat="47.78279" lon="-3.64094">
        <ele>-29.43</ele>
        <time>2019-07-14T10:33:58Z</time>
      </trkpt>
      <trkpt lat="47.78281" lon="-3.64086">
        <ele>-29.42</ele>
        <time>2019-07-14T10:33:59Z</time>
      </trkpt>
      <trkpt lat="47.78283" lon="-3.64078">
        <ele>-29.34</ele>
        <time>2019-07-14T10:34:00Z</time>
      </trkpt>
      <trkpt lat="47.78285" lon="-3.64069">
        <ele>-28.97</ele>
        <time>2019-07-14T10:34:01Z</time>
      </trkpt>
      <trkpt lat="47.78287" lon="-3.64061">
        <ele>-28.72</ele>
        <time>2019-07-14T10:34:02Z</time>
      </trkpt>
      <trkpt lat="47.78289" lon="-3.64053">
        <ele>-28.43</ele>
        <time>2019-07-14T10:34:03Z</time>
      </trkpt>
      <trkpt lat="47.78291" lon="-3.64046">
        <ele>-27.72</ele>
        <time>2019-07-14T10:34:04Z</time>
      </trkpt>
      <trkpt lat="47.78293" lon="-3.64038">
        <ele>-26.8</ele>
        <time>2019-07-14T10:34:05Z</time>
      </trkpt>
      <trkpt lat="47.78296" lon="-3.64033">
        <ele>-26.11</ele>
        <time>2019-07-14T10:34:06Z</time>
      </trkpt>
      <trkpt lat="47.78299" lon="-3.64027">
        <ele>-25.41</ele>
        <time>2019-07-14T10:34:07Z</time>
      </trkpt>
      <trkpt lat="47.78304" lon="-3.64016">
        <ele>-24.4</ele>
        <time>2019-07-14T10:34:09Z</time>
      </trkpt>
      <trkpt lat="47.78306" lon="-3.64003">
        <ele>-23.7</ele>
        <time>2019-07-14T10:34:11Z</time>
      </trkpt>
      <trkpt lat="47.78308" lon="-3.6399">
        <ele>-23.35</ele>
        <time>2019-07-14T10:34:13Z</time>
      </trkpt>
      <trkpt lat="47.78309" lon="-3.63983">
        <ele>-23.25</ele>
        <time>2019-07-14T10:34:14Z</time>
      </trkpt>
      <trkpt lat="47.7831" lon="-3.63977">
        <ele>-22.87</ele>
        <time>2019-07-14T10:34:15Z</time>
      </trkpt>
      <trkpt lat="47.7831" lon="-3.63969">
        <ele>-22.48</ele>
        <time>2019-07-14T10:34:16Z</time>
      </trkpt>
      <trkpt lat="47.78311" lon="-3.63962">
        <ele>-22.22</ele>
        <time>2019-07-14T10:34:17Z</time>
      </trkpt>
      <trkpt lat="47.78313" lon="-3.63956">
        <ele>-21.87</ele>
        <time>2019-07-14T10:34:18Z</time>
      </trkpt>
      <trkpt lat="47.78315" lon="-3.63949">
        <ele>-21.62</ele>
        <time>2019-07-14T10:34:19Z</time>
      </trkpt>
      <trkpt lat="47.78318" lon="-3.63942">
        <ele>-21.47</ele>
        <time>2019-07-14T10:34:20Z</time>
      </trkpt>
      <trkpt lat="47.7832" lon="-3.63936">
        <ele>-21.22</ele>
        <time>2019-07-14T10:34:21Z</time>
      </trkpt>
      <trkpt lat="47.78324" lon="-3.6393">
        <ele>-20.93</ele>
        <time>2019-07-14T10:34:22Z</time>
      </trkpt>
      <trkpt lat="47.78327" lon="-3.63924">
        <ele>-20.71</ele>
        <time>2019-07-14T10:34:23Z</time>
      </trkpt>
      <trkpt lat="47.7833" lon="-3.63918">
        <ele>-20.36</ele>
        <time>2019-07-14T10:34:24Z</time>
      </trkpt>
      <trkpt lat="47.78334" lon="-3.63913">
        <ele>-19.98</ele>
        <time>2019-07-14T10:34:25Z</time>
      </trkpt>
      <trkpt lat="47.78338" lon="-3.63908">
        <ele>-19.65</ele>
        <time>2019-07-14T10:34:26Z</time>
      </trkpt>
      <trkpt lat="47.78341" lon="-3.63901">
        <ele>-19.34</ele>
        <time>2019-07-14T10:34:27Z</time>
      </trkpt>
      <trkpt lat="47.78344" lon="-3.63895">
        <ele>-19.04</ele>
        <time>2019-07-14T10:34:28Z</time>
      </trkpt>
      <trkpt lat="47.78347" lon="-3.63889">
        <ele>-18.88</ele>
        <time>2019-07-14T10:34:29Z</time>
      </trkpt>
      <trkpt lat="47.78351" lon="-3.63884">
        <ele>-18.62</ele>
        <time>2019-07-14T10:34:30Z</time>
      </trkpt>
      <trkpt lat="47.78354" lon="-3.63879">
        <ele>-18.9</ele>
        <time>2019-07-14T10:34:31Z</time>
      </trkpt>
      <trkpt lat="47.78357" lon="-3.63874">
        <ele>-19.68</ele>
        <time>2019-07-14T10:34:32Z</time>
      </trkpt>
      <trkpt lat="47.78364" lon="-3.63866">
        <ele>-20.72</ele>
        <time>2019-07-14T10:34:34Z</time>
      </trkpt>
      <trkpt lat="47.78368" lon="-3.63862">
        <ele>-20.78</ele>
        <time>2019-07-14T10:34:35Z</time>
      </trkpt>
      <trkpt lat="47.78372" lon="-3.63857">
        <ele>-20.73</ele>
        <time>2019-07-14T10:34:36Z</time>
      </trkpt>
      <trkpt lat="47.78376" lon="-3.63853">
        <ele>-20.58</ele>
        <time>2019-07-14T10:34:37Z</time>
      </trkpt>
      <trkpt lat="47.7838" lon="-3.63848">
        <ele>-20.25</ele>
        <time>2019-07-14T10:34:38Z</time>
      </trkpt>
      <trkpt lat="47.78385" lon="-3.63843">
        <ele>-19.87</ele>
        <time>2019-07-14T10:34:39Z</time>
      </trkpt>
      <trkpt lat="47.7839" lon="-3.6384">
        <ele>-19.62</ele>
        <time>2019-07-14T10:34:40Z</time>
      </trkpt>
      <trkpt lat="47.78395" lon="-3.63835">
        <ele>-19.4</ele>
        <time>2019-07-14T10:34:41Z</time>
      </trkpt>
      <trkpt lat="47.784" lon="-3.6383">
        <ele>-19.13</ele>
        <time>2019-07-14T10:34:42Z</time>
      </trkpt>
      <trkpt lat="47.78405" lon="-3.63825">
        <ele>-18.91</ele>
        <time>2019-07-14T10:34:43Z</time>
      </trkpt>
      <trkpt lat="47.7841" lon="-3.6382">
        <ele>-18.98</ele>
        <time>2019-07-14T10:34:44Z</time>
      </trkpt>
      <trkpt lat="47.78416" lon="-3.63815">
        <ele>-18.93</ele>
        <time>2019-07-14T10:34:45Z</time>
      </trkpt>
      <trkpt lat="47.78422" lon="-3.63808">
        <ele>-18.71</ele>
        <time>2019-07-14T10:34:46Z</time>
      </trkpt>
      <trkpt lat="47.78426" lon="-3.63802">
        <ele>-18.36</ele>
        <time>2019-07-14T10:34:47Z</time>
      </trkpt>
      <trkpt lat="47.7843" lon="-3.63796">
        <ele>-17.98</ele>
        <time>2019-07-14T10:34:48Z</time>
      </trkpt>
      <trkpt lat="47.78434" lon="-3.6379">
        <ele>-17.58</ele>
        <time>2019-07-14T10:34:49Z</time>
      </trkpt>
      <trkpt lat="47.78438" lon="-3.63785">
        <ele>-17.25</ele>
        <time>2019-07-14T10:34:50Z</time>
      </trkpt>
      <trkpt lat="47.78441" lon="-3.6378">
        <ele>-17.08</ele>
        <time>2019-07-14T10:34:51Z</time>
      </trkpt>
      <trkpt lat="47.78445" lon="-3.63775">
        <ele>-17.1</ele>
        <time>2019-07-14T10:34:52Z</time>
      </trkpt>
      <trkpt lat="47.78448" lon="-3.63768">
        <ele>-17.04</ele>
        <time>2019-07-14T10:34:53Z</time>
      </trkpt>
      <trkpt lat="47.78451" lon="-3.63761">
        <ele>-16.88</ele>
        <time>2019-07-14T10:34:54Z</time>
      </trkpt>
      <trkpt lat="47.78456" lon="-3.63754">
        <ele>-16.76</ele>
        <time>2019-07-14T10:34:55Z</time>
      </trkpt>
      <trkpt lat="47.78459" lon="-3.63748">
        <ele>-16.73</ele>
        <time>2019-07-14T10:34:56Z</time>
      </trkpt>
      <trkpt lat="47.78463" lon="-3.63741">
        <ele>-16.65</ele>
        <time>2019-07-14T10:34:57Z</time>
      </trkpt>
      <trkpt lat="47.78467" lon="-3.63734">
        <ele>-16.55</ele>
        <time>2019-07-14T10:34:58Z</time>
      </trkpt>
      <trkpt lat="47.78471" lon="-3.63727">
        <ele>-16.59</ele>
        <time>2019-07-14T10:34:59Z</time>
      </trkpt>
      <trkpt lat="47.78475" lon="-3.63721">
        <ele>-16.82</ele>
        <time>2019-07-14T10:35:00Z</time>
      </trkpt>
      <trkpt lat="47.78479" lon="-3.63715">
        <ele>-16.88</ele>
        <time>2019-07-14T10:35:01Z</time>
      </trkpt>
      <trkpt lat="47.78482" lon="-3.63709">
        <ele>-16.9</ele>
        <time>2019-07-14T10:35:02Z</time>
      </trkpt>
      <trkpt lat="47.78485" lon="-3.63704">
        <ele>-16.91</ele>
        <time>2019-07-14T10:35:03Z</time>
      </trkpt>
      <trkpt lat="47.7849" lon="-3.63699">
        <ele>-17.05</ele>
        <time>2019-07-14T10:35:04Z</time>
      </trkpt>
      <trkpt lat="47.78494" lon="-3.63695">
        <ele>-17.44</ele>
        <time>2019-07-14T10:35:05Z</time>
      </trkpt>
      <trkpt lat="47.78498" lon="-3.63691">
        <ele>-17.84</ele>
        <time>2019-07-14T10:35:06Z</time>
      </trkpt>
      <trkpt lat="47.78502" lon="-3.63688">
        <ele>-18.1</ele>
        <time>2019-07-14T10:35:07Z</time>
      </trkpt>
      <trkpt lat="47.78507" lon="-3.63686">
        <ele>-18.53</ele>
        <time>2019-07-14T10:35:08Z</time>
      </trkpt>
      <trkpt lat="47.78511" lon="-3.63683">
        <ele>-19.01</ele>
        <time>2019-07-14T10:35:09Z</time>
      </trkpt>
      <trkpt lat="47.78516" lon="-3.63679">
        <ele>-19.43</ele>
        <time>2019-07-14T10:35:10Z</time>
      </trkpt>
      <trkpt lat="47.78525" lon="-3.63672">
        <ele>-21.54</ele>
        <time>2019-07-14T10:35:12Z</time>
      </trkpt>
      <trkpt lat="47.7853" lon="-3.63669">
        <ele>-22.29</ele>
        <time>2019-07-14T10:35:13Z</time>
      </trkpt>
      <trkpt lat="47.78535" lon="-3.63665">
        <ele>-22.31</ele>
        <time>2019-07-14T10:35:14Z</time>
      </trkpt>
      <trkpt lat="47.7854" lon="-3.63661">
        <ele>-21.96</ele>
        <time>2019-07-14T10:35:15Z</time>
      </trkpt>
      <trkpt lat="47.78545" lon="-3.63656">
        <ele>-21.44</ele>
        <time>2019-07-14T10:35:16Z</time>
      </trkpt>
      <trkpt lat="47.7855" lon="-3.63652">
        <ele>-21.35</ele>
        <time>2019-07-14T10:35:17Z</time>
      </trkpt>
      <trkpt lat="47.78554" lon="-3.63649">
        <ele>-21.18</ele>
        <time>2019-07-14T10:35:18Z</time>
      </trkpt>
      <trkpt lat="47.78559" lon="-3.63645">
        <ele>-20.99</ele>
        <time>2019-07-14T10:35:19Z</time>
      </trkpt>
      <trkpt lat="47.78564" lon="-3.63642">
        <ele>-20.59</ele>
        <time>2019-07-14T10:35:20Z</time>
      </trkpt>
      <trkpt lat="47.78568" lon="-3.63638">
        <ele>-19.97</ele>
        <time>2019-07-14T10:35:21Z</time>
      </trkpt>
      <trkpt lat="47.78573" lon="-3.63635">
        <ele>-19.72</ele>
        <time>2019-07-14T10:35:22Z</time>
      </trkpt>
      <trkpt lat="47.78578" lon="-3.63631">
        <ele>-19.64</ele>
        <time>2019-07-14T10:35:23Z</time>
      </trkpt>
      <trkpt lat="47.78583" lon="-3.63628">
        <ele>-19.69</ele>
        <time>2019-07-14T10:35:24Z</time>
      </trkpt>
      <trkpt lat="47.78588" lon="-3.63625">
        <ele>-19.92</ele>
        <time>2019-07-14T10:35:25Z</time>
      </trkpt>
      <trkpt lat="47.78593" lon="-3.63622">
        <ele>-19.98</ele>
        <time>2019-07-14T10:35:26Z</time>
      </trkpt>
      <trkpt lat="47.78597" lon="-3.63619">
        <ele>-19.93</ele>
        <time>2019-07-14T10:35:27Z</time>
      </trkpt>
      <trkpt lat="47.78602" lon="-3.63616">
        <ele>-19.99</ele>
        <time>2019-07-14T10:35:28Z</time>
      </trkpt>
      <trkpt lat="47.78606" lon="-3.63613">
        <ele>-20.21</ele>
        <time>2019-07-14T10:35:29Z</time>
      </trkpt>
      <trkpt lat="47.78614" lon="-3.63609">
        <ele>-20.14</ele>
        <time>2019-07-14T10:35:31Z</time>
      </trkpt>
      <trkpt lat="47.78621" lon="-3.63605">
        <ele>-19.7</ele>
        <time>2019-07-14T10:35:33Z</time>
      </trkpt>
      <trkpt lat="47.78628" lon="-3.63601">
        <ele>-18.68</ele>
        <time>2019-07-14T10:35:35Z</time>
      </trkpt>
      <trkpt lat="47.78635" lon="-3.63596">
        <ele>-17.88</ele>
        <time>2019-07-14T10:35:37Z</time>
      </trkpt>
      <trkpt lat="47.78643" lon="-3.63591">
        <ele>-17.92</ele>
        <time>2019-07-14T10:35:39Z</time>
      </trkpt>
      <trkpt lat="47.78651" lon="-3.63586">
        <ele>-17.77</ele>
        <time>2019-07-14T10:35:41Z</time>
      </trkpt>
      <trkpt lat="47.78659" lon="-3.63581">
        <ele>-17.35</ele>
        <time>2019-07-14T10:35:43Z</time>
      </trkpt>
      <trkpt lat="47.78666" lon="-3.63573">
        <ele>-17.32</ele>
        <time>2019-07-14T10:35:45Z</time>
      </trkpt>
      <trkpt lat="47.78673" lon="-3.63566">
        <ele>-17.68</ele>
        <time>2019-07-14T10:35:47Z</time>
      </trkpt>
      <trkpt lat="47.7868" lon="-3.63557">
        <ele>-17.88</ele>
        <time>2019-07-14T10:35:49Z</time>
      </trkpt>
      <trkpt lat="47.78687" lon="-3.63551">
        <ele>-18.28</ele>
        <time>2019-07-14T10:35:51Z</time>
      </trkpt>
      <trkpt lat="47.78702" lon="-3.63542">
        <ele>-18.56</ele>
        <time>2019-07-14T10:35:55Z</time>
      </trkpt>
      <trkpt lat="47.78711" lon="-3.63544">
        <ele>-19.03</ele>
        <time>2019-07-14T10:35:57Z</time>
      </trkpt>
      <trkpt lat="47.78719" lon="-3.63546">
        <ele>-18.69</ele>
        <time>2019-07-14T10:35:59Z</time>
      </trkpt>
      <trkpt lat="47.78727" lon="-3.63547">
        <ele>-18.35</ele>
        <time>2019-07-14T10:36:01Z</time>
      </trkpt>
      <trkpt lat="47.78732" lon="-3.63548">
        <ele>-18.39</ele>
        <time>2019-07-14T10:36:02Z</time>
      </trkpt>
      <trkpt lat="47.78737" lon="-3.63549">
        <ele>-18.55</ele>
        <time>2019-07-14T10:36:03Z</time>
      </trkpt>
      <trkpt lat="47.78741" lon="-3.6355">
        <ele>-18.94</ele>
        <time>2019-07-14T10:36:04Z</time>
      </trkpt>
      <trkpt lat="47.78746" lon="-3.6355">
        <ele>-19.13</ele>
        <time>2019-07-14T10:36:05Z</time>
      </trkpt>
      <trkpt lat="47.78751" lon="-3.63551">
        <ele>-19.26</ele>
        <time>2019-07-14T10:36:06Z</time>
      </trkpt>
      <trkpt lat="47.78759" lon="-3.63553">
        <ele>-19.65</ele>
        <time>2019-07-14T10:36:08Z</time>
      </trkpt>
      <trkpt lat="47.78769" lon="-3.63556">
        <ele>-19.62</ele>
        <time>2019-07-14T10:36:10Z</time>
      </trkpt>
      <trkpt lat="47.78774" lon="-3.63555">
        <ele>-19.68</ele>
        <time>2019-07-14T10:36:11Z</time>
      </trkpt>
      <trkpt lat="47.78779" lon="-3.63554">
        <ele>-19.98</ele>
        <time>2019-07-14T10:36:12Z</time>
      </trkpt>
      <trkpt lat="47.78784" lon="-3.63553">
        <ele>-20.14</ele>
        <time>2019-07-14T10:36:13Z</time>
      </trkpt>
      <trkpt lat="47.78789" lon="-3.63551">
        <ele>-20.33</ele>
        <time>2019-07-14T10:36:14Z</time>
      </trkpt>
      <trkpt lat="47.78794" lon="-3.6355">
        <ele>-20.32</ele>
        <time>2019-07-14T10:36:15Z</time>
      </trkpt>
      <trkpt lat="47.78799" lon="-3.6355">
        <ele>-20.52</ele>
        <time>2019-07-14T10:36:16Z</time>
      </trkpt>
      <trkpt lat="47.78807" lon="-3.63549">
        <ele>-21.48</ele>
        <time>2019-07-14T10:36:18Z</time>
      </trkpt>
      <trkpt lat="47.78813" lon="-3.63549">
        <ele>-22.61</ele>
        <time>2019-07-14T10:36:20Z</time>
      </trkpt>
      <trkpt lat="47.78818" lon="-3.63549">
        <ele>-23.42</ele>
        <time>2019-07-14T10:36:22Z</time>
      </trkpt>
      <trkpt lat="47.78823" lon="-3.63545">
        <ele>-25.14</ele>
        <time>2019-07-14T10:36:41Z</time>
      </trkpt>
      <trkpt lat="47.78828" lon="-3.63542">
        <ele>-25.5</ele>
        <time>2019-07-14T10:36:44Z</time>
      </trkpt>
      <trkpt lat="47.78833" lon="-3.63539">
        <ele>-25.58</ele>
        <time>2019-07-14T10:36:47Z</time>
      </trkpt>
      <trkpt lat="47.78837" lon="-3.63535">
        <ele>-25.61</ele>
        <time>2019-07-14T10:36:49Z</time>
      </trkpt>
      <trkpt lat="47.78841" lon="-3.63529">
        <ele>-25.68</ele>
        <time>2019-07-14T10:36:51Z</time>
      </trkpt>
      <trkpt lat="47.78847" lon="-3.63527">
        <ele>-25.71</ele>
        <time>2019-07-14T10:36:53Z</time>
      </trkpt>
      <trkpt lat="47.78854" lon="-3.63525">
        <ele>-25.8</ele>
        <time>2019-07-14T10:36:55Z</time>
      </trkpt>
      <trkpt lat="47.78861" lon="-3.63523">
        <ele>-25.97</ele>
        <time>2019-07-14T10:36:57Z</time>
      </trkpt>
      <trkpt lat="47.78869" lon="-3.63521">
        <ele>-25.94</ele>
        <time>2019-07-14T10:36:59Z</time>
      </trkpt>
      <trkpt lat="47.78876" lon="-3.6352">
        <ele>-25.89</ele>
        <time>2019-07-14T10:37:01Z</time>
      </trkpt>
      <trkpt lat="47.78882" lon="-3.6352">
        <ele>-25.84</ele>
        <time>2019-07-14T10:37:03Z</time>
      </trkpt>
      <trkpt lat="47.78889" lon="-3.63525">
        <ele>-25.56</ele>
        <time>2019-07-14T10:37:05Z</time>
      </trkpt>
      <trkpt lat="47.78896" lon="-3.63528">
        <ele>-25.5</ele>
        <time>2019-07-14T10:37:07Z</time>
      </trkpt>
      <trkpt lat="47.789" lon="-3.63534">
        <ele>-24.43</ele>
        <time>2019-07-14T10:37:10Z</time>
      </trkpt>
      <trkpt lat="47.78901" lon="-3.63544">
        <ele>-23.67</ele>
        <time>2019-07-14T10:37:12Z</time>
      </trkpt>
      <trkpt lat="47.78898" lon="-3.63553">
        <ele>-22.92</ele>
        <time>2019-07-14T10:37:14Z</time>
      </trkpt>
      <trkpt lat="47.78897" lon="-3.63562">
        <ele>-21.84</ele>
        <time>2019-07-14T10:37:16Z</time>
      </trkpt>
      <trkpt lat="47.78894" lon="-3.63569">
        <ele>-21.29</ele>
        <time>2019-07-14T10:37:18Z</time>
      </trkpt>
      <trkpt lat="47.78893" lon="-3.63576">
        <ele>-20.51</ele>
        <time>2019-07-14T10:37:20Z</time>
      </trkpt>
      <trkpt lat="47.78892" lon="-3.63584">
        <ele>-20.77</ele>
        <time>2019-07-14T10:37:22Z</time>
      </trkpt>
      <trkpt lat="47.7889" lon="-3.63593">
        <ele>-21.73</ele>
        <time>2019-07-14T10:37:24Z</time>
      </trkpt>
      <trkpt lat="47.78888" lon="-3.63602">
        <ele>-21.5</ele>
        <time>2019-07-14T10:37:26Z</time>
      </trkpt>
      <trkpt lat="47.78885" lon="-3.63612">
        <ele>-21.5</ele>
        <time>2019-07-14T10:37:28Z</time>
      </trkpt>
      <trkpt lat="47.78882" lon="-3.63623">
        <ele>-22.32</ele>
        <time>2019-07-14T10:37:30Z</time>
      </trkpt>
      <trkpt lat="47.7888" lon="-3.63629">
        <ele>-23.08</ele>
        <time>2019-07-14T10:37:31Z</time>
      </trkpt>
      <trkpt lat="47.78878" lon="-3.63635">
        <ele>-23.52</ele>
        <time>2019-07-14T10:37:32Z</time>
      </trkpt>
      <trkpt lat="47.78876" lon="-3.63642">
        <ele>-24.01</ele>
        <time>2019-07-14T10:37:33Z</time>
      </trkpt>
      <trkpt lat="47.78874" lon="-3.63648">
        <ele>-24.5</ele>
        <time>2019-07-14T10:37:34Z</time>
      </trkpt>
      <trkpt lat="47.7887" lon="-3.6366">
        <ele>-25.25</ele>
        <time>2019-07-14T10:37:36Z</time>
      </trkpt>
      <trkpt lat="47.78866" lon="-3.6367">
        <ele>-25.12</ele>
        <time>2019-07-14T10:37:38Z</time>
      </trkpt>
      <trkpt lat="47.78862" lon="-3.63678">
        <ele>-24.03</ele>
        <time>2019-07-14T10:37:40Z</time>
      </trkpt>
      <trkpt lat="47.78863" lon="-3.63669">
        <ele>-25.64</ele>
        <time>2019-07-14T10:37:46Z</time>
      </trkpt>
      <trkpt lat="47.7887" lon="-3.63663">
        <ele>-26.62</ele>
        <time>2019-07-14T10:37:48Z</time>
      </trkpt>
      <trkpt lat="47.78877" lon="-3.63659">
        <ele>-27.34</ele>
        <time>2019-07-14T10:37:50Z</time>
      </trkpt>
      <trkpt lat="47.78883" lon="-3.63661">
        <ele>-27.43</ele>
        <time>2019-07-14T10:37:52Z</time>
      </trkpt>
      <trkpt lat="47.78886" lon="-3.63668">
        <ele>-28.04</ele>
        <time>2019-07-14T10:37:54Z</time>
      </trkpt>
      <trkpt lat="47.78891" lon="-3.63674">
        <ele>-28.61</ele>
        <time>2019-07-14T10:37:56Z</time>
      </trkpt>
      <trkpt lat="47.78899" lon="-3.63677">
        <ele>-29.02</ele>
        <time>2019-07-14T10:37:58Z</time>
      </trkpt>
      <trkpt lat="47.78904" lon="-3.63678">
        <ele>-29.27</ele>
        <time>2019-07-14T10:38:00Z</time>
      </trkpt>
      <trkpt lat="47.78911" lon="-3.63679">
        <ele>-28.54</ele>
        <time>2019-07-14T10:38:18Z</time>
      </trkpt>
      <trkpt lat="47.78918" lon="-3.6368">
        <ele>-27.9</ele>
        <time>2019-07-14T10:38:20Z</time>
      </trkpt>
      <trkpt lat="47.78922" lon="-3.63682">
        <ele>-27.77</ele>
        <time>2019-07-14T10:38:21Z</time>
      </trkpt>
      <trkpt lat="47.78931" lon="-3.63683">
        <ele>-28.15</ele>
        <time>2019-07-14T10:38:23Z</time>
      </trkpt>
      <trkpt lat="47.78937" lon="-3.63682">
        <ele>-28.19</ele>
        <time>2019-07-14T10:38:24Z</time>
      </trkpt>
      <trkpt lat="47.78941" lon="-3.63682">
        <ele>-28.35</ele>
        <time>2019-07-14T10:38:25Z</time>
      </trkpt>
      <trkpt lat="47.7895" lon="-3.63681">
        <ele>-28.75</ele>
        <time>2019-07-14T10:38:27Z</time>
      </trkpt>
      <trkpt lat="47.78955" lon="-3.63681">
        <ele>-29</ele>
        <time>2019-07-14T10:38:28Z</time>
      </trkpt>
      <trkpt lat="47.7896" lon="-3.63683">
        <ele>-29.22</ele>
        <time>2019-07-14T10:38:29Z</time>
      </trkpt>
      <trkpt lat="47.78965" lon="-3.63686">
        <ele>-29.56</ele>
        <time>2019-07-14T10:38:30Z</time>
      </trkpt>
      <trkpt lat="47.7897" lon="-3.63689">
        <ele>-29.95</ele>
        <time>2019-07-14T10:38:31Z</time>
      </trkpt>
      <trkpt lat="47.78974" lon="-3.63692">
        <ele>-30.2</ele>
        <time>2019-07-14T10:38:32Z</time>
      </trkpt>
      <trkpt lat="47.78978" lon="-3.63696">
        <ele>-30.63</ele>
        <time>2019-07-14T10:38:33Z</time>
      </trkpt>
      <trkpt lat="47.78983" lon="-3.63704">
        <ele>-31.46</ele>
        <time>2019-07-14T10:38:35Z</time>
      </trkpt>
      <trkpt lat="47.78986" lon="-3.63715">
        <ele>-31.97</ele>
        <time>2019-07-14T10:38:37Z</time>
      </trkpt>
      <trkpt lat="47.78988" lon="-3.63722">
        <ele>-32.42</ele>
        <time>2019-07-14T10:38:38Z</time>
      </trkpt>
      <trkpt lat="47.78989" lon="-3.63729">
        <ele>-32.9</ele>
        <time>2019-07-14T10:38:39Z</time>
      </trkpt>
      <trkpt lat="47.7899" lon="-3.63735">
        <ele>-33.4</ele>
        <time>2019-07-14T10:38:40Z</time>
      </trkpt>
      <trkpt lat="47.78992" lon="-3.63748">
        <ele>-34.26</ele>
        <time>2019-07-14T10:38:42Z</time>
      </trkpt>
      <trkpt lat="47.78996" lon="-3.6376">
        <ele>-34.95</ele>
        <time>2019-07-14T10:38:44Z</time>
      </trkpt>
      <trkpt lat="47.79" lon="-3.63766">
        <ele>-35.13</ele>
        <time>2019-07-14T10:38:45Z</time>
      </trkpt>
      <trkpt lat="47.79007" lon="-3.63775">
        <ele>-34.72</ele>
        <time>2019-07-14T10:38:47Z</time>
      </trkpt>
      <trkpt lat="47.79011" lon="-3.63781">
        <ele>-34.57</ele>
        <time>2019-07-14T10:38:48Z</time>
      </trkpt>
      <trkpt lat="47.79016" lon="-3.63787">
        <ele>-34.74</ele>
        <time>2019-07-14T10:38:49Z</time>
      </trkpt>
      <trkpt lat="47.79021" lon="-3.63794">
        <ele>-35.07</ele>
        <time>2019-07-14T10:38:50Z</time>
      </trkpt>
      <trkpt lat="47.79025" lon="-3.63799">
        <ele>-35.1</ele>
        <time>2019-07-14T10:38:51Z</time>
      </trkpt>
      <trkpt lat="47.7903" lon="-3.63804">
        <ele>-35.81</ele>
        <time>2019-07-14T10:38:52Z</time>
      </trkpt>
      <trkpt lat="47.79035" lon="-3.63806">
        <ele>-36.02</ele>
        <time>2019-07-14T10:38:53Z</time>
      </trkpt>
      <trkpt lat="47.79039" lon="-3.63809">
        <ele>-35.94</ele>
        <time>2019-07-14T10:38:54Z</time>
      </trkpt>
      <trkpt lat="47.79046" lon="-3.6381">
        <ele>-35.71</ele>
        <time>2019-07-14T10:38:55Z</time>
      </trkpt>
      <trkpt lat="47.79052" lon="-3.63811">
        <ele>-35.78</ele>
        <time>2019-07-14T10:38:56Z</time>
      </trkpt>
      <trkpt lat="47.79059" lon="-3.63814">
        <ele>-35.1</ele>
        <time>2019-07-14T10:38:57Z</time>
      </trkpt>
      <trkpt lat="47.79065" lon="-3.63815">
        <ele>-34.83</ele>
        <time>2019-07-14T10:38:58Z</time>
      </trkpt>
      <trkpt lat="47.79069" lon="-3.63816">
        <ele>-34.89</ele>
        <time>2019-07-14T10:38:59Z</time>
      </trkpt>
      <trkpt lat="47.79078" lon="-3.63817">
        <ele>-34.22</ele>
        <time>2019-07-14T10:39:01Z</time>
      </trkpt>
      <trkpt lat="47.79086" lon="-3.63817">
        <ele>-33.3</ele>
        <time>2019-07-14T10:39:03Z</time>
      </trkpt>
      <trkpt lat="47.79094" lon="-3.63819">
        <ele>-33.44</ele>
        <time>2019-07-14T10:39:05Z</time>
      </trkpt>
      <trkpt lat="47.79102" lon="-3.6382">
        <ele>-33.34</ele>
        <time>2019-07-14T10:39:07Z</time>
      </trkpt>
      <trkpt lat="47.79111" lon="-3.6382">
        <ele>-33.16</ele>
        <time>2019-07-14T10:39:09Z</time>
      </trkpt>
      <trkpt lat="47.79119" lon="-3.63819">
        <ele>-32.36</ele>
        <time>2019-07-14T10:39:11Z</time>
      </trkpt>
      <trkpt lat="47.79126" lon="-3.63819">
        <ele>-31.53</ele>
        <time>2019-07-14T10:39:13Z</time>
      </trkpt>
      <trkpt lat="47.79133" lon="-3.63816">
        <ele>-31.28</ele>
        <time>2019-07-14T10:39:15Z</time>
      </trkpt>
      <trkpt lat="47.79138" lon="-3.63813">
        <ele>-30.18</ele>
        <time>2019-07-14T10:39:17Z</time>
      </trkpt>
      <trkpt lat="47.79144" lon="-3.63807">
        <ele>-28.6</ele>
        <time>2019-07-14T10:39:19Z</time>
      </trkpt>
      <trkpt lat="47.7915" lon="-3.63803">
        <ele>-27.48</ele>
        <time>2019-07-14T10:39:21Z</time>
      </trkpt>
      <trkpt lat="47.79156" lon="-3.63797">
        <ele>-26.44</ele>
        <time>2019-07-14T10:39:23Z</time>
      </trkpt>
      <trkpt lat="47.79164" lon="-3.63792">
        <ele>-26.28</ele>
        <time>2019-07-14T10:39:25Z</time>
      </trkpt>
      <trkpt lat="47.79169" lon="-3.63789">
        <ele>-26.44</ele>
        <time>2019-07-14T10:39:26Z</time>
      </trkpt>
      <trkpt lat="47.79173" lon="-3.63785">
        <ele>-26.42</ele>
        <time>2019-07-14T10:39:27Z</time>
      </trkpt>
      <trkpt lat="47.79178" lon="-3.63783">
        <ele>-26.69</ele>
        <time>2019-07-14T10:39:28Z</time>
      </trkpt>
      <trkpt lat="47.79183" lon="-3.6378">
        <ele>-27.34</ele>
        <time>2019-07-14T10:39:29Z</time>
      </trkpt>
      <trkpt lat="47.79187" lon="-3.63777">
        <ele>-28.16</ele>
        <time>2019-07-14T10:39:30Z</time>
      </trkpt>
      <trkpt lat="47.79192" lon="-3.63773">
        <ele>-27.5</ele>
        <time>2019-07-14T10:39:31Z</time>
      </trkpt>
      <trkpt lat="47.79196" lon="-3.6377">
        <ele>-27.58</ele>
        <time>2019-07-14T10:39:32Z</time>
      </trkpt>
      <trkpt lat="47.792" lon="-3.63767">
        <ele>-28.16</ele>
        <time>2019-07-14T10:39:33Z</time>
      </trkpt>
      <trkpt lat="47.79205" lon="-3.63762">
        <ele>-28.62</ele>
        <time>2019-07-14T10:39:34Z</time>
      </trkpt>
      <trkpt lat="47.7921" lon="-3.63758">
        <ele>-29.31</ele>
        <time>2019-07-14T10:39:35Z</time>
      </trkpt>
      <trkpt lat="47.79214" lon="-3.63754">
        <ele>-29.94</ele>
        <time>2019-07-14T10:39:36Z</time>
      </trkpt>
      <trkpt lat="47.79219" lon="-3.6375">
        <ele>-30.27</ele>
        <time>2019-07-14T10:39:37Z</time>
      </trkpt>
      <trkpt lat="47.79223" lon="-3.63747">
        <ele>-30.44</ele>
        <time>2019-07-14T10:39:38Z</time>
      </trkpt>
      <trkpt lat="47.79229" lon="-3.63743">
        <ele>-30.77</ele>
        <time>2019-07-14T10:39:39Z</time>
      </trkpt>
      <trkpt lat="47.79233" lon="-3.63738">
        <ele>-30.59</ele>
        <time>2019-07-14T10:39:40Z</time>
      </trkpt>
      <trkpt lat="47.79239" lon="-3.63734">
        <ele>-30.33</ele>
        <time>2019-07-14T10:39:41Z</time>
      </trkpt>
      <trkpt lat="47.79244" lon="-3.63728">
        <ele>-30.04</ele>
        <time>2019-07-14T10:39:42Z</time>
      </trkpt>
      <trkpt lat="47.79248" lon="-3.63722">
        <ele>-29.74</ele>
        <time>2019-07-14T10:39:43Z</time>
      </trkpt>
      <trkpt lat="47.79253" lon="-3.63716">
        <ele>-29.58</ele>
        <time>2019-07-14T10:39:44Z</time>
      </trkpt>
      <trkpt lat="47.79257" lon="-3.6371">
        <ele>-29.39</ele>
        <time>2019-07-14T10:39:45Z</time>
      </trkpt>
      <trkpt lat="47.79261" lon="-3.63702">
        <ele>-29.34</ele>
        <time>2019-07-14T10:39:46Z</time>
      </trkpt>
      <trkpt lat="47.79266" lon="-3.63695">
        <ele>-29.53</ele>
        <time>2019-07-14T10:39:47Z</time>
      </trkpt>
      <trkpt lat="47.79271" lon="-3.63686">
        <ele>-29.8</ele>
        <time>2019-07-14T10:39:48Z</time>
      </trkpt>
      <trkpt lat="47.79277" lon="-3.63678">
        <ele>-30.09</ele>
        <time>2019-07-14T10:39:49Z</time>
      </trkpt>
      <trkpt lat="47.79283" lon="-3.6367">
        <ele>-30.24</ele>
        <time>2019-07-14T10:39:50Z</time>
      </trkpt>
      <trkpt lat="47.79289" lon="-3.63664">
        <ele>-30.36</ele>
        <time>2019-07-14T10:39:51Z</time>
      </trkpt>
      <trkpt lat="47.79293" lon="-3.63658">
        <ele>-30.61</ele>
        <time>2019-07-14T10:39:52Z</time>
      </trkpt>
      <trkpt lat="47.79298" lon="-3.63655">
        <ele>-30.82</ele>
        <time>2019-07-14T10:39:53Z</time>
      </trkpt>
      <trkpt lat="47.79305" lon="-3.63656">
        <ele>-31.92</ele>
        <time>2019-07-14T10:39:55Z</time>
      </trkpt>
      <trkpt lat="47.79308" lon="-3.63664">
        <ele>-32.72</ele>
        <time>2019-07-14T10:39:57Z</time>
      </trkpt>
      <trkpt lat="47.79312" lon="-3.63674">
        <ele>-34.56</ele>
        <time>2019-07-14T10:39:59Z</time>
      </trkpt>
      <trkpt lat="47.79313" lon="-3.63681">
        <ele>-35.37</ele>
        <time>2019-07-14T10:40:00Z</time>
      </trkpt>
      <trkpt lat="47.79312" lon="-3.63691">
        <ele>-35.82</ele>
        <time>2019-07-14T10:40:01Z</time>
      </trkpt>
      <trkpt lat="47.7931" lon="-3.63702">
        <ele>-36.09</ele>
        <time>2019-07-14T10:40:02Z</time>
      </trkpt>
      <trkpt lat="47.79307" lon="-3.6371">
        <ele>-36.32</ele>
        <time>2019-07-14T10:40:03Z</time>
      </trkpt>
      <trkpt lat="47.79304" lon="-3.63718">
        <ele>-36.52</ele>
        <time>2019-07-14T10:40:04Z</time>
      </trkpt>
      <trkpt lat="47.79302" lon="-3.63726">
        <ele>-36.8</ele>
        <time>2019-07-14T10:40:05Z</time>
      </trkpt>
      <trkpt lat="47.79299" lon="-3.63733">
        <ele>-37.02</ele>
        <time>2019-07-14T10:40:06Z</time>
      </trkpt>
      <trkpt lat="47.79293" lon="-3.63743">
        <ele>-38.71</ele>
        <time>2019-07-14T10:40:08Z</time>
      </trkpt>
      <trkpt lat="47.79286" lon="-3.63753">
        <ele>-39.81</ele>
        <time>2019-07-14T10:40:10Z</time>
      </trkpt>
      <trkpt lat="47.79283" lon="-3.63759">
        <ele>-40.3</ele>
        <time>2019-07-14T10:40:11Z</time>
      </trkpt>
      <trkpt lat="47.7928" lon="-3.63764">
        <ele>-40.66</ele>
        <time>2019-07-14T10:40:12Z</time>
      </trkpt>
      <trkpt lat="47.79277" lon="-3.6377">
        <ele>-41.05</ele>
        <time>2019-07-14T10:40:13Z</time>
      </trkpt>
      <trkpt lat="47.79273" lon="-3.63777">
        <ele>-41.51</ele>
        <time>2019-07-14T10:40:14Z</time>
      </trkpt>
      <trkpt lat="47.7927" lon="-3.63782">
        <ele>-41.86</ele>
        <time>2019-07-14T10:40:15Z</time>
      </trkpt>
      <trkpt lat="47.79266" lon="-3.63791">
        <ele>-42.46</ele>
        <time>2019-07-14T10:40:17Z</time>
      </trkpt>
      <trkpt lat="47.79267" lon="-3.638">
        <ele>-43.12</ele>
        <time>2019-07-14T10:40:20Z</time>
      </trkpt>
      <trkpt lat="47.79271" lon="-3.63808">
        <ele>-43.91</ele>
        <time>2019-07-14T10:40:22Z</time>
      </trkpt>
      <trkpt lat="47.79274" lon="-3.63816">
        <ele>-44.18</ele>
        <time>2019-07-14T10:40:25Z</time>
      </trkpt>
      <trkpt lat="47.79276" lon="-3.63823">
        <ele>-44.63</ele>
        <time>2019-07-14T10:40:28Z</time>
      </trkpt>
      <trkpt lat="47.79279" lon="-3.6383">
        <ele>-45.61</ele>
        <time>2019-07-14T10:40:30Z</time>
      </trkpt>
      <trkpt lat="47.79284" lon="-3.63826">
        <ele>-46.11</ele>
        <time>2019-07-14T10:40:39Z</time>
      </trkpt>
      <trkpt lat="47.79288" lon="-3.63822">
        <ele>-45.95</ele>
        <time>2019-07-14T10:40:41Z</time>
      </trkpt>
      <trkpt lat="47.79292" lon="-3.63817">
        <ele>-45.75</ele>
        <time>2019-07-14T10:40:43Z</time>
      </trkpt>
      <trkpt lat="47.79296" lon="-3.63812">
        <ele>-45.55</ele>
        <time>2019-07-14T10:40:46Z</time>
      </trkpt>
      <trkpt lat="47.79303" lon="-3.6381">
        <ele>-45.06</ele>
        <time>2019-07-14T10:40:50Z</time>
      </trkpt>
      <trkpt lat="47.79308" lon="-3.6381">
        <ele>-44.66</ele>
        <time>2019-07-14T10:40:53Z</time>
      </trkpt>
      <trkpt lat="47.79313" lon="-3.63809">
        <ele>-44.16</ele>
        <time>2019-07-14T10:40:57Z</time>
      </trkpt>
      <trkpt lat="47.79321" lon="-3.63812">
        <ele>-43.66</ele>
        <time>2019-07-14T10:41:03Z</time>
      </trkpt>
      <trkpt lat="47.79326" lon="-3.63813">
        <ele>-43.43</ele>
        <time>2019-07-14T10:41:06Z</time>
      </trkpt>
      <trkpt lat="47.7933" lon="-3.63816">
        <ele>-43.34</ele>
        <time>2019-07-14T10:41:09Z</time>
      </trkpt>
      <trkpt lat="47.79335" lon="-3.63819">
        <ele>-43.36</ele>
        <time>2019-07-14T10:41:11Z</time>
      </trkpt>
      <trkpt lat="47.7934" lon="-3.63823">
        <ele>-43.06</ele>
        <time>2019-07-14T10:41:14Z</time>
      </trkpt>
      <trkpt lat="47.79345" lon="-3.63829">
        <ele>-42.85</ele>
        <time>2019-07-14T10:41:17Z</time>
      </trkpt>
      <trkpt lat="47.79349" lon="-3.63835">
        <ele>-43.02</ele>
        <time>2019-07-14T10:41:19Z</time>
      </trkpt>
      <trkpt lat="47.7935" lon="-3.63842">
        <ele>-42.64</ele>
        <time>2019-07-14T10:41:22Z</time>
      </trkpt>
      <trkpt lat="47.79354" lon="-3.63847">
        <ele>-42.17</ele>
        <time>2019-07-14T10:41:25Z</time>
      </trkpt>
      <trkpt lat="47.79357" lon="-3.63852">
        <ele>-41.98</ele>
        <time>2019-07-14T10:41:27Z</time>
      </trkpt>
      <trkpt lat="47.7936" lon="-3.63859">
        <ele>-41.11</ele>
        <time>2019-07-14T10:41:30Z</time>
      </trkpt>
      <trkpt lat="47.79362" lon="-3.63866">
        <ele>-41.16</ele>
        <time>2019-07-14T10:41:33Z</time>
      </trkpt>
      <trkpt lat="47.79365" lon="-3.63871">
        <ele>-41.53</ele>
        <time>2019-07-14T10:41:35Z</time>
      </trkpt>
      <trkpt lat="47.7937" lon="-3.63876">
        <ele>-40.9</ele>
        <time>2019-07-14T10:41:38Z</time>
      </trkpt>
      <trkpt lat="47.79373" lon="-3.63883">
        <ele>-39.71</ele>
        <time>2019-07-14T10:41:41Z</time>
      </trkpt>
      <trkpt lat="47.79375" lon="-3.63891">
        <ele>-37.89</ele>
        <time>2019-07-14T10:41:44Z</time>
      </trkpt>
      <trkpt lat="47.79379" lon="-3.639">
        <ele>-36.1</ele>
        <time>2019-07-14T10:41:47Z</time>
      </trkpt>
      <trkpt lat="47.7938" lon="-3.63907">
        <ele>-34.88</ele>
        <time>2019-07-14T10:41:50Z</time>
      </trkpt>
      <trkpt lat="47.79378" lon="-3.63917">
        <ele>-33.78</ele>
        <time>2019-07-14T10:41:53Z</time>
      </trkpt>
      <trkpt lat="47.79378" lon="-3.63927">
        <ele>-33.13</ele>
        <time>2019-07-14T10:41:56Z</time>
      </trkpt>
      <trkpt lat="47.79378" lon="-3.63935">
        <ele>-32.61</ele>
        <time>2019-07-14T10:41:58Z</time>
      </trkpt>
      <trkpt lat="47.79378" lon="-3.63942">
        <ele>-31.95</ele>
        <time>2019-07-14T10:42:00Z</time>
      </trkpt>
      <trkpt lat="47.7938" lon="-3.6395">
        <ele>-31.59</ele>
        <time>2019-07-14T10:42:02Z</time>
      </trkpt>
      <trkpt lat="47.79382" lon="-3.63959">
        <ele>-30.8</ele>
        <time>2019-07-14T10:42:05Z</time>
      </trkpt>
      <trkpt lat="47.79385" lon="-3.63966">
        <ele>-30.68</ele>
        <time>2019-07-14T10:42:07Z</time>
      </trkpt>
      <trkpt lat="47.79389" lon="-3.63972">
        <ele>-30.44</ele>
        <time>2019-07-14T10:42:09Z</time>
      </trkpt>
      <trkpt lat="47.79393" lon="-3.6398">
        <ele>-30</ele>
        <time>2019-07-14T10:42:11Z</time>
      </trkpt>
      <trkpt lat="47.79395" lon="-3.63987">
        <ele>-29.28</ele>
        <time>2019-07-14T10:42:13Z</time>
      </trkpt>
      <trkpt lat="47.79398" lon="-3.63997">
        <ele>-28.16</ele>
        <time>2019-07-14T10:42:15Z</time>
      </trkpt>
      <trkpt lat="47.79399" lon="-3.64005">
        <ele>-27.2</ele>
        <time>2019-07-14T10:42:17Z</time>
      </trkpt>
      <trkpt lat="47.794" lon="-3.64014">
        <ele>-27.54</ele>
        <time>2019-07-14T10:42:19Z</time>
      </trkpt>
      <trkpt lat="47.79401" lon="-3.64023">
        <ele>-28.64</ele>
        <time>2019-07-14T10:42:21Z</time>
      </trkpt>
      <trkpt lat="47.79401" lon="-3.6403">
        <ele>-28.98</ele>
        <time>2019-07-14T10:42:23Z</time>
      </trkpt>
      <trkpt lat="47.794" lon="-3.64039">
        <ele>-28.46</ele>
        <time>2019-07-14T10:42:25Z</time>
      </trkpt>
      <trkpt lat="47.794" lon="-3.64047">
        <ele>-27.63</ele>
        <time>2019-07-14T10:42:27Z</time>
      </trkpt>
      <trkpt lat="47.794" lon="-3.64054">
        <ele>-27.21</ele>
        <time>2019-07-14T10:42:29Z</time>
      </trkpt>
      <trkpt lat="47.794" lon="-3.64063">
        <ele>-25.42</ele>
        <time>2019-07-14T10:42:32Z</time>
      </trkpt>
      <trkpt lat="47.79403" lon="-3.6407">
        <ele>-23.87</ele>
        <time>2019-07-14T10:42:35Z</time>
      </trkpt>
      <trkpt lat="47.79408" lon="-3.64075">
        <ele>-21.43</ele>
        <time>2019-07-14T10:42:38Z</time>
      </trkpt>
      <trkpt lat="47.79414" lon="-3.64078">
        <ele>-19.92</ele>
        <time>2019-07-14T10:42:40Z</time>
      </trkpt>
      <trkpt lat="47.79419" lon="-3.6408">
        <ele>-18.69</ele>
        <time>2019-07-14T10:42:42Z</time>
      </trkpt>
      <trkpt lat="47.79425" lon="-3.64083">
        <ele>-17.47</ele>
        <time>2019-07-14T10:42:44Z</time>
      </trkpt>
      <trkpt lat="47.7943" lon="-3.64086">
        <ele>-16.39</ele>
        <time>2019-07-14T10:42:46Z</time>
      </trkpt>
      <trkpt lat="47.79436" lon="-3.64091">
        <ele>-15.74</ele>
        <time>2019-07-14T10:42:48Z</time>
      </trkpt>
      <trkpt lat="47.79442" lon="-3.64096">
        <ele>-15.53</ele>
        <time>2019-07-14T10:42:50Z</time>
      </trkpt>
      <trkpt lat="47.79446" lon="-3.64099">
        <ele>-15.66</ele>
        <time>2019-07-14T10:42:51Z</time>
      </trkpt>
      <trkpt lat="47.7945" lon="-3.64102">
        <ele>-15.56</ele>
        <time>2019-07-14T10:42:52Z</time>
      </trkpt>
      <trkpt lat="47.79455" lon="-3.64104">
        <ele>-15.31</ele>
        <time>2019-07-14T10:42:53Z</time>
      </trkpt>
      <trkpt lat="47.79463" lon="-3.64109">
        <ele>-15.33</ele>
        <time>2019-07-14T10:42:55Z</time>
      </trkpt>
      <trkpt lat="47.79468" lon="-3.64112">
        <ele>-15.18</ele>
        <time>2019-07-14T10:42:56Z</time>
      </trkpt>
      <trkpt lat="47.79473" lon="-3.64115">
        <ele>-15.13</ele>
        <time>2019-07-14T10:42:57Z</time>
      </trkpt>
      <trkpt lat="47.79477" lon="-3.64118">
        <ele>-14.84</ele>
        <time>2019-07-14T10:42:58Z</time>
      </trkpt>
      <trkpt lat="47.79481" lon="-3.64121">
        <ele>-14.54</ele>
        <time>2019-07-14T10:42:59Z</time>
      </trkpt>
      <trkpt lat="47.79485" lon="-3.64125">
        <ele>-14.38</ele>
        <time>2019-07-14T10:43:00Z</time>
      </trkpt>
      <trkpt lat="47.79492" lon="-3.64131">
        <ele>-13.51</ele>
        <time>2019-07-14T10:43:02Z</time>
      </trkpt>
      <trkpt lat="47.79501" lon="-3.64137">
        <ele>-12.6</ele>
        <time>2019-07-14T10:43:04Z</time>
      </trkpt>
      <trkpt lat="47.79506" lon="-3.6414">
        <ele>-12.12</ele>
        <time>2019-07-14T10:43:05Z</time>
      </trkpt>
      <trkpt lat="47.7951" lon="-3.64144">
        <ele>-11.9</ele>
        <time>2019-07-14T10:43:06Z</time>
      </trkpt>
      <trkpt lat="47.79517" lon="-3.64148">
        <ele>-11.56</ele>
        <time>2019-07-14T10:43:07Z</time>
      </trkpt>
      <trkpt lat="47.79522" lon="-3.64151">
        <ele>-11.25</ele>
        <time>2019-07-14T10:43:08Z</time>
      </trkpt>
      <trkpt lat="47.79527" lon="-3.64154">
        <ele>-11.29</ele>
        <time>2019-07-14T10:43:09Z</time>
      </trkpt>
      <trkpt lat="47.79532" lon="-3.64157">
        <ele>-11.31</ele>
        <time>2019-07-14T10:43:10Z</time>
      </trkpt>
      <trkpt lat="47.79536" lon="-3.6416">
        <ele>-11.24</ele>
        <time>2019-07-14T10:43:11Z</time>
      </trkpt>
      <trkpt lat="47.79541" lon="-3.64164">
        <ele>-11.15</ele>
        <time>2019-07-14T10:43:12Z</time>
      </trkpt>
      <trkpt lat="47.79547" lon="-3.64168">
        <ele>-11.12</ele>
        <time>2019-07-14T10:43:13Z</time>
      </trkpt>
      <trkpt lat="47.79551" lon="-3.64174">
        <ele>-11.12</ele>
        <time>2019-07-14T10:43:14Z</time>
      </trkpt>
      <trkpt lat="47.79555" lon="-3.6418">
        <ele>-11.18</ele>
        <time>2019-07-14T10:43:15Z</time>
      </trkpt>
      <trkpt lat="47.7956" lon="-3.64187">
        <ele>-11.41</ele>
        <time>2019-07-14T10:43:16Z</time>
      </trkpt>
      <trkpt lat="47.79564" lon="-3.64193">
        <ele>-11.9</ele>
        <time>2019-07-14T10:43:17Z</time>
      </trkpt>
      <trkpt lat="47.79568" lon="-3.642">
        <ele>-12.26</ele>
        <time>2019-07-14T10:43:18Z</time>
      </trkpt>
      <trkpt lat="47.79573" lon="-3.64206">
        <ele>-12.93</ele>
        <time>2019-07-14T10:43:19Z</time>
      </trkpt>
      <trkpt lat="47.79578" lon="-3.64211">
        <ele>-13.62</ele>
        <time>2019-07-14T10:43:20Z</time>
      </trkpt>
      <trkpt lat="47.79583" lon="-3.64215">
        <ele>-14.38</ele>
        <time>2019-07-14T10:43:21Z</time>
      </trkpt>
      <trkpt lat="47.79588" lon="-3.6422">
        <ele>-14.89</ele>
        <time>2019-07-14T10:43:22Z</time>
      </trkpt>
      <trkpt lat="47.79592" lon="-3.64225">
        <ele>-15.05</ele>
        <time>2019-07-14T10:43:23Z</time>
      </trkpt>
      <trkpt lat="47.79596" lon="-3.64231">
        <ele>-15.58</ele>
        <time>2019-07-14T10:43:24Z</time>
      </trkpt>
      <trkpt lat="47.79599" lon="-3.64237">
        <ele>-15.88</ele>
        <time>2019-07-14T10:43:25Z</time>
      </trkpt>
      <trkpt lat="47.79601" lon="-3.64249">
        <ele>-16.92</ele>
        <time>2019-07-14T10:43:27Z</time>
      </trkpt>
      <trkpt lat="47.79602" lon="-3.64262">
        <ele>-17.7</ele>
        <time>2019-07-14T10:43:29Z</time>
      </trkpt>
      <trkpt lat="47.79603" lon="-3.64273">
        <ele>-19.66</ele>
        <time>2019-07-14T10:43:31Z</time>
      </trkpt>
      <trkpt lat="47.79606" lon="-3.64285">
        <ele>-21.74</ele>
        <time>2019-07-14T10:43:33Z</time>
      </trkpt>
      <trkpt lat="47.79608" lon="-3.64299">
        <ele>-22.56</ele>
        <time>2019-07-14T10:43:35Z</time>
      </trkpt>
      <trkpt lat="47.79609" lon="-3.64305">
        <ele>-22.67</ele>
        <time>2019-07-14T10:43:36Z</time>
      </trkpt>
      <trkpt lat="47.7961" lon="-3.64319">
        <ele>-22.92</ele>
        <time>2019-07-14T10:43:38Z</time>
      </trkpt>
      <trkpt lat="47.7961" lon="-3.64326">
        <ele>-23.12</ele>
        <time>2019-07-14T10:43:39Z</time>
      </trkpt>
      <trkpt lat="47.79612" lon="-3.64338">
        <ele>-22.78</ele>
        <time>2019-07-14T10:43:41Z</time>
      </trkpt>
      <trkpt lat="47.79612" lon="-3.64351">
        <ele>-22.21</ele>
        <time>2019-07-14T10:43:43Z</time>
      </trkpt>
      <trkpt lat="47.79611" lon="-3.64364">
        <ele>-22.16</ele>
        <time>2019-07-14T10:43:45Z</time>
      </trkpt>
      <trkpt lat="47.79612" lon="-3.64371">
        <ele>-21.92</ele>
        <time>2019-07-14T10:43:46Z</time>
      </trkpt>
      <trkpt lat="47.79613" lon="-3.64385">
        <ele>-21.93</ele>
        <time>2019-07-14T10:43:48Z</time>
      </trkpt>
      <trkpt lat="47.79613" lon="-3.64392">
        <ele>-21.78</ele>
        <time>2019-07-14T10:43:49Z</time>
      </trkpt>
      <trkpt lat="47.79613" lon="-3.64399">
        <ele>-21.45</ele>
        <time>2019-07-14T10:43:50Z</time>
      </trkpt>
      <trkpt lat="47.79614" lon="-3.64412">
        <ele>-21.4</ele>
        <time>2019-07-14T10:43:52Z</time>
      </trkpt>
      <trkpt lat="47.79616" lon="-3.64425">
        <ele>-20.92</ele>
        <time>2019-07-14T10:43:54Z</time>
      </trkpt>
      <trkpt lat="47.79618" lon="-3.64436">
        <ele>-21.68</ele>
        <time>2019-07-14T10:43:56Z</time>
      </trkpt>
      <trkpt lat="47.7962" lon="-3.64448">
        <ele>-22.09</ele>
        <time>2019-07-14T10:43:58Z</time>
      </trkpt>
      <trkpt lat="47.7962" lon="-3.64455">
        <ele>-22.32</ele>
        <time>2019-07-14T10:43:59Z</time>
      </trkpt>
      <trkpt lat="47.79621" lon="-3.64463">
        <ele>-22.66</ele>
        <time>2019-07-14T10:44:00Z</time>
      </trkpt>
      <trkpt lat="47.79622" lon="-3.6447">
        <ele>-23.89</ele>
        <time>2019-07-14T10:44:01Z</time>
      </trkpt>
      <trkpt lat="47.79623" lon="-3.64478">
        <ele>-24.88</ele>
        <time>2019-07-14T10:44:02Z</time>
      </trkpt>
      <trkpt lat="47.79623" lon="-3.64486">
        <ele>-25.04</ele>
        <time>2019-07-14T10:44:03Z</time>
      </trkpt>
      <trkpt lat="47.79623" lon="-3.64499">
        <ele>-26.24</ele>
        <time>2019-07-14T10:44:05Z</time>
      </trkpt>
      <trkpt lat="47.79624" lon="-3.64506">
        <ele>-25.73</ele>
        <time>2019-07-14T10:44:06Z</time>
      </trkpt>
      <trkpt lat="47.79625" lon="-3.64517">
        <ele>-26.48</ele>
        <time>2019-07-14T10:44:08Z</time>
      </trkpt>
      <trkpt lat="47.79629" lon="-3.64524">
        <ele>-22.89</ele>
        <time>2019-07-14T10:44:11Z</time>
      </trkpt>
      <trkpt lat="47.79635" lon="-3.64525">
        <ele>-21.38</ele>
        <time>2019-07-14T10:44:13Z</time>
      </trkpt>
      <trkpt lat="47.79642" lon="-3.6453">
        <ele>-21.2</ele>
        <time>2019-07-14T10:44:15Z</time>
      </trkpt>
      <trkpt lat="47.79649" lon="-3.64533">
        <ele>-20.05</ele>
        <time>2019-07-14T10:44:17Z</time>
      </trkpt>
      <trkpt lat="47.79657" lon="-3.64535">
        <ele>-19.03</ele>
        <time>2019-07-14T10:44:19Z</time>
      </trkpt>
      <trkpt lat="47.79662" lon="-3.64537">
        <ele>-18.6</ele>
        <time>2019-07-14T10:44:20Z</time>
      </trkpt>
      <trkpt lat="47.79667" lon="-3.64538">
        <ele>-18.19</ele>
        <time>2019-07-14T10:44:21Z</time>
      </trkpt>
      <trkpt lat="47.79673" lon="-3.64538">
        <ele>-17.78</ele>
        <time>2019-07-14T10:44:22Z</time>
      </trkpt>
      <trkpt lat="47.79678" lon="-3.64538">
        <ele>-17.31</ele>
        <time>2019-07-14T10:44:23Z</time>
      </trkpt>
      <trkpt lat="47.79683" lon="-3.64539">
        <ele>-16.68</ele>
        <time>2019-07-14T10:44:24Z</time>
      </trkpt>
      <trkpt lat="47.79691" lon="-3.64542">
        <ele>-15.77</ele>
        <time>2019-07-14T10:44:26Z</time>
      </trkpt>
      <trkpt lat="47.79696" lon="-3.64552">
        <ele>-14.89</ele>
        <time>2019-07-14T10:44:28Z</time>
      </trkpt>
      <trkpt lat="47.79696" lon="-3.64563">
        <ele>-13.8</ele>
        <time>2019-07-14T10:44:30Z</time>
      </trkpt>
      <trkpt lat="47.79697" lon="-3.64574">
        <ele>-13.44</ele>
        <time>2019-07-14T10:44:32Z</time>
      </trkpt>
      <trkpt lat="47.79697" lon="-3.64586">
        <ele>-13.58</ele>
        <time>2019-07-14T10:44:34Z</time>
      </trkpt>
      <trkpt lat="47.79698" lon="-3.64593">
        <ele>-13.6</ele>
        <time>2019-07-14T10:44:35Z</time>
      </trkpt>
      <trkpt lat="47.79697" lon="-3.646">
        <ele>-13.54</ele>
        <time>2019-07-14T10:44:36Z</time>
      </trkpt>
      <trkpt lat="47.79697" lon="-3.64607">
        <ele>-13.38</ele>
        <time>2019-07-14T10:44:37Z</time>
      </trkpt>
      <trkpt lat="47.79696" lon="-3.64615">
        <ele>-13.33</ele>
        <time>2019-07-14T10:44:38Z</time>
      </trkpt>
      <trkpt lat="47.79696" lon="-3.64621">
        <ele>-13.04</ele>
        <time>2019-07-14T10:44:39Z</time>
      </trkpt>
      <trkpt lat="47.79695" lon="-3.64629">
        <ele>-12.6</ele>
        <time>2019-07-14T10:44:40Z</time>
      </trkpt>
      <trkpt lat="47.79695" lon="-3.64637">
        <ele>-12.54</ele>
        <time>2019-07-14T10:44:41Z</time>
      </trkpt>
      <trkpt lat="47.79695" lon="-3.64644">
        <ele>-12.31</ele>
        <time>2019-07-14T10:44:42Z</time>
      </trkpt>
      <trkpt lat="47.79694" lon="-3.64651">
        <ele>-12.03</ele>
        <time>2019-07-14T10:44:43Z</time>
      </trkpt>
      <trkpt lat="47.79694" lon="-3.64659">
        <ele>-11.6</ele>
        <time>2019-07-14T10:44:44Z</time>
      </trkpt>
      <trkpt lat="47.79695" lon="-3.64667">
        <ele>-11.12</ele>
        <time>2019-07-14T10:44:45Z</time>
      </trkpt>
      <trkpt lat="47.79695" lon="-3.64674">
        <ele>-10.76</ele>
        <time>2019-07-14T10:44:46Z</time>
      </trkpt>
      <trkpt lat="47.79697" lon="-3.64681">
        <ele>-10.38</ele>
        <time>2019-07-14T10:44:47Z</time>
      </trkpt>
      <trkpt lat="47.79699" lon="-3.64693">
        <ele>-9.72</ele>
        <time>2019-07-14T10:44:49Z</time>
      </trkpt>
      <trkpt lat="47.79704" lon="-3.64703">
        <ele>-9.33</ele>
        <time>2019-07-14T10:44:51Z</time>
      </trkpt>
      <trkpt lat="47.79712" lon="-3.64707">
        <ele>-9.33</ele>
        <time>2019-07-14T10:44:53Z</time>
      </trkpt>
      <trkpt lat="47.79717" lon="-3.64707">
        <ele>-9.46</ele>
        <time>2019-07-14T10:44:54Z</time>
      </trkpt>
      <trkpt lat="47.79722" lon="-3.64708">
        <ele>-9.64</ele>
        <time>2019-07-14T10:44:55Z</time>
      </trkpt>
      <trkpt lat="47.79727" lon="-3.64708">
        <ele>-10.11</ele>
        <time>2019-07-14T10:44:56Z</time>
      </trkpt>
      <trkpt lat="47.79732" lon="-3.64708">
        <ele>-10.46</ele>
        <time>2019-07-14T10:44:57Z</time>
      </trkpt>
      <trkpt lat="47.79737" lon="-3.64708">
        <ele>-10.85</ele>
        <time>2019-07-14T10:44:58Z</time>
      </trkpt>
      <trkpt lat="47.79742" lon="-3.64708">
        <ele>-11.31</ele>
        <time>2019-07-14T10:44:59Z</time>
      </trkpt>
      <trkpt lat="47.79747" lon="-3.64708">
        <ele>-11.66</ele>
        <time>2019-07-14T10:45:00Z</time>
      </trkpt>
      <trkpt lat="47.79752" lon="-3.64708">
        <ele>-11.77</ele>
        <time>2019-07-14T10:45:01Z</time>
      </trkpt>
      <trkpt lat="47.79758" lon="-3.64708">
        <ele>-11.87</ele>
        <time>2019-07-14T10:45:02Z</time>
      </trkpt>
      <trkpt lat="47.79763" lon="-3.64708">
        <ele>-12.04</ele>
        <time>2019-07-14T10:45:03Z</time>
      </trkpt>
      <trkpt lat="47.79768" lon="-3.64707">
        <ele>-12.37</ele>
        <time>2019-07-14T10:45:04Z</time>
      </trkpt>
      <trkpt lat="47.79774" lon="-3.64707">
        <ele>-12.61</ele>
        <time>2019-07-14T10:45:05Z</time>
      </trkpt>
      <trkpt lat="47.79779" lon="-3.64706">
        <ele>-12.75</ele>
        <time>2019-07-14T10:45:06Z</time>
      </trkpt>
      <trkpt lat="47.79784" lon="-3.64706">
        <ele>-12.79</ele>
        <time>2019-07-14T10:45:07Z</time>
      </trkpt>
      <trkpt lat="47.79788" lon="-3.64706">
        <ele>-12.74</ele>
        <time>2019-07-14T10:45:08Z</time>
      </trkpt>
      <trkpt lat="47.79793" lon="-3.64706">
        <ele>-12.79</ele>
        <time>2019-07-14T10:45:09Z</time>
      </trkpt>
      <trkpt lat="47.79798" lon="-3.64705">
        <ele>-12.81</ele>
        <time>2019-07-14T10:45:10Z</time>
      </trkpt>
      <trkpt lat="47.79803" lon="-3.64704">
        <ele>-12.6</ele>
        <time>2019-07-14T10:45:11Z</time>
      </trkpt>
      <trkpt lat="47.79807" lon="-3.64703">
        <ele>-12.4</ele>
        <time>2019-07-14T10:45:12Z</time>
      </trkpt>
      <trkpt lat="47.79812" lon="-3.64703">
        <ele>-11.92</ele>
        <time>2019-07-14T10:45:13Z</time>
      </trkpt>
      <trkpt lat="47.79817" lon="-3.64702">
        <ele>-11.7</ele>
        <time>2019-07-14T10:45:14Z</time>
      </trkpt>
      <trkpt lat="47.79822" lon="-3.64703">
        <ele>-11.43</ele>
        <time>2019-07-14T10:45:15Z</time>
      </trkpt>
      <trkpt lat="47.79827" lon="-3.64702">
        <ele>-10.86</ele>
        <time>2019-07-14T10:45:16Z</time>
      </trkpt>
      <trkpt lat="47.79832" lon="-3.64701">
        <ele>-10.55</ele>
        <time>2019-07-14T10:45:17Z</time>
      </trkpt>
      <trkpt lat="47.79837" lon="-3.64701">
        <ele>-10.31</ele>
        <time>2019-07-14T10:45:18Z</time>
      </trkpt>
      <trkpt lat="47.79842" lon="-3.647">
        <ele>-10.31</ele>
        <time>2019-07-14T10:45:19Z</time>
      </trkpt>
      <trkpt lat="47.79846" lon="-3.647">
        <ele>-10.45</ele>
        <time>2019-07-14T10:45:20Z</time>
      </trkpt>
      <trkpt lat="47.79851" lon="-3.647">
        <ele>-10.56</ele>
        <time>2019-07-14T10:45:21Z</time>
      </trkpt>
      <trkpt lat="47.79856" lon="-3.647">
        <ele>-10.74</ele>
        <time>2019-07-14T10:45:22Z</time>
      </trkpt>
      <trkpt lat="47.79861" lon="-3.64699">
        <ele>-10.86</ele>
        <time>2019-07-14T10:45:23Z</time>
      </trkpt>
      <trkpt lat="47.79866" lon="-3.64699">
        <ele>-10.69</ele>
        <time>2019-07-14T10:45:24Z</time>
      </trkpt>
      <trkpt lat="47.7987" lon="-3.64698">
        <ele>-10.56</ele>
        <time>2019-07-14T10:45:25Z</time>
      </trkpt>
      <trkpt lat="47.79876" lon="-3.64698">
        <ele>-10.32</ele>
        <time>2019-07-14T10:45:26Z</time>
      </trkpt>
      <trkpt lat="47.79881" lon="-3.64697">
        <ele>-10.24</ele>
        <time>2019-07-14T10:45:27Z</time>
      </trkpt>
      <trkpt lat="47.79886" lon="-3.64697">
        <ele>-10.15</ele>
        <time>2019-07-14T10:45:28Z</time>
      </trkpt>
      <trkpt lat="47.79892" lon="-3.64696">
        <ele>-9.98</ele>
        <time>2019-07-14T10:45:29Z</time>
      </trkpt>
      <trkpt lat="47.79896" lon="-3.64696">
        <ele>-10</ele>
        <time>2019-07-14T10:45:30Z</time>
      </trkpt>
      <trkpt lat="47.79905" lon="-3.64693">
        <ele>-9.34</ele>
        <time>2019-07-14T10:45:32Z</time>
      </trkpt>
      <trkpt lat="47.7991" lon="-3.64692">
        <ele>-8.69</ele>
        <time>2019-07-14T10:45:33Z</time>
      </trkpt>
      <trkpt lat="47.79916" lon="-3.64692">
        <ele>-8.22</ele>
        <time>2019-07-14T10:45:34Z</time>
      </trkpt>
      <trkpt lat="47.79921" lon="-3.64691">
        <ele>-7.79</ele>
        <time>2019-07-14T10:45:35Z</time>
      </trkpt>
      <trkpt lat="47.79926" lon="-3.6469">
        <ele>-7.46</ele>
        <time>2019-07-14T10:45:36Z</time>
      </trkpt>
      <trkpt lat="47.79931" lon="-3.64689">
        <ele>-7.08</ele>
        <time>2019-07-14T10:45:37Z</time>
      </trkpt>
      <trkpt lat="47.79935" lon="-3.64687">
        <ele>-6.68</ele>
        <time>2019-07-14T10:45:38Z</time>
      </trkpt>
      <trkpt lat="47.79941" lon="-3.64687">
        <ele>-5.79</ele>
        <time>2019-07-14T10:45:39Z</time>
      </trkpt>
      <trkpt lat="47.79946" lon="-3.64687">
        <ele>-5.11</ele>
        <time>2019-07-14T10:45:40Z</time>
      </trkpt>
      <trkpt lat="47.79951" lon="-3.64687">
        <ele>-4.69</ele>
        <time>2019-07-14T10:45:41Z</time>
      </trkpt>
      <trkpt lat="47.79956" lon="-3.64686">
        <ele>-4.36</ele>
        <time>2019-07-14T10:45:42Z</time>
      </trkpt>
      <trkpt lat="47.79962" lon="-3.64686">
        <ele>-4.12</ele>
        <time>2019-07-14T10:45:43Z</time>
      </trkpt>
      <trkpt lat="47.79968" lon="-3.64686">
        <ele>-3.9</ele>
        <time>2019-07-14T10:45:44Z</time>
      </trkpt>
      <trkpt lat="47.79974" lon="-3.64685">
        <ele>-3.91</ele>
        <time>2019-07-14T10:45:45Z</time>
      </trkpt>
      <trkpt lat="47.7998" lon="-3.64685">
        <ele>-4.12</ele>
        <time>2019-07-14T10:45:46Z</time>
      </trkpt>
      <trkpt lat="47.79985" lon="-3.64684">
        <ele>-4.11</ele>
        <time>2019-07-14T10:45:47Z</time>
      </trkpt>
      <trkpt lat="47.79991" lon="-3.64682">
        <ele>-3.62</ele>
        <time>2019-07-14T10:45:48Z</time>
      </trkpt>
      <trkpt lat="47.79997" lon="-3.64681">
        <ele>-3.13</ele>
        <time>2019-07-14T10:45:49Z</time>
      </trkpt>
      <trkpt lat="47.80002" lon="-3.6468">
        <ele>-2.98</ele>
        <time>2019-07-14T10:45:50Z</time>
      </trkpt>
      <trkpt lat="47.80008" lon="-3.64679">
        <ele>-3.07</ele>
        <time>2019-07-14T10:45:51Z</time>
      </trkpt>
      <trkpt lat="47.80013" lon="-3.64679">
        <ele>-3.24</ele>
        <time>2019-07-14T10:45:52Z</time>
      </trkpt>
      <trkpt lat="47.80019" lon="-3.64678">
        <ele>-3.22</ele>
        <time>2019-07-14T10:45:53Z</time>
      </trkpt>
      <trkpt lat="47.80024" lon="-3.64678">
        <ele>-3.56</ele>
        <time>2019-07-14T10:45:54Z</time>
      </trkpt>
      <trkpt lat="47.8003" lon="-3.64678">
        <ele>-3.81</ele>
        <time>2019-07-14T10:45:55Z</time>
      </trkpt>
      <trkpt lat="47.80036" lon="-3.64678">
        <ele>-3.81</ele>
        <time>2019-07-14T10:45:56Z</time>
      </trkpt>
      <trkpt lat="47.80042" lon="-3.64679">
        <ele>-3.95</ele>
        <time>2019-07-14T10:45:57Z</time>
      </trkpt>
      <trkpt lat="47.80048" lon="-3.64679">
        <ele>-3.92</ele>
        <time>2019-07-14T10:45:58Z</time>
      </trkpt>
      <trkpt lat="47.80054" lon="-3.6468">
        <ele>-4.13</ele>
        <time>2019-07-14T10:45:59Z</time>
      </trkpt>
      <trkpt lat="47.8006" lon="-3.64682">
        <ele>-3.98</ele>
        <time>2019-07-14T10:46:00Z</time>
      </trkpt>
      <trkpt lat="47.80065" lon="-3.64683">
        <ele>-3.72</ele>
        <time>2019-07-14T10:46:01Z</time>
      </trkpt>
      <trkpt lat="47.80071" lon="-3.64685">
        <ele>-3.64</ele>
        <time>2019-07-14T10:46:02Z</time>
      </trkpt>
      <trkpt lat="47.80077" lon="-3.64687">
        <ele>-3.69</ele>
        <time>2019-07-14T10:46:03Z</time>
      </trkpt>
      <trkpt lat="47.80082" lon="-3.6469">
        <ele>-3.92</ele>
        <time>2019-07-14T10:46:04Z</time>
      </trkpt>
      <trkpt lat="47.80087" lon="-3.64692">
        <ele>-4.26</ele>
        <time>2019-07-14T10:46:05Z</time>
      </trkpt>
      <trkpt lat="47.80093" lon="-3.64693">
        <ele>-4.58</ele>
        <time>2019-07-14T10:46:06Z</time>
      </trkpt>
      <trkpt lat="47.80098" lon="-3.64695">
        <ele>-4.81</ele>
        <time>2019-07-14T10:46:07Z</time>
      </trkpt>
      <trkpt lat="47.80104" lon="-3.64696">
        <ele>-5.02</ele>
        <time>2019-07-14T10:46:08Z</time>
      </trkpt>
      <trkpt lat="47.80109" lon="-3.64697">
        <ele>-4.87</ele>
        <time>2019-07-14T10:46:09Z</time>
      </trkpt>
      <trkpt lat="47.80115" lon="-3.64698">
        <ele>-4.97</ele>
        <time>2019-07-14T10:46:10Z</time>
      </trkpt>
      <trkpt lat="47.8012" lon="-3.64698">
        <ele>-4.93</ele>
        <time>2019-07-14T10:46:11Z</time>
      </trkpt>
      <trkpt lat="47.80126" lon="-3.64698">
        <ele>-4.78</ele>
        <time>2019-07-14T10:46:12Z</time>
      </trkpt>
      <trkpt lat="47.80131" lon="-3.64698">
        <ele>-4.73</ele>
        <time>2019-07-14T10:46:13Z</time>
      </trkpt>
      <trkpt lat="47.80137" lon="-3.64698">
        <ele>-4.79</ele>
        <time>2019-07-14T10:46:14Z</time>
      </trkpt>
      <trkpt lat="47.80142" lon="-3.64697">
        <ele>-4.87</ele>
        <time>2019-07-14T10:46:15Z</time>
      </trkpt>
      <trkpt lat="47.80147" lon="-3.64696">
        <ele>-4.97</ele>
        <time>2019-07-14T10:46:16Z</time>
      </trkpt>
      <trkpt lat="47.80152" lon="-3.64696">
        <ele>-5</ele>
        <time>2019-07-14T10:46:17Z</time>
      </trkpt>
      <trkpt lat="47.80157" lon="-3.64696">
        <ele>-5.01</ele>
        <time>2019-07-14T10:46:18Z</time>
      </trkpt>
      <trkpt lat="47.80165" lon="-3.64694">
        <ele>-5.17</ele>
        <time>2019-07-14T10:46:20Z</time>
      </trkpt>
      <trkpt lat="47.80172" lon="-3.64693">
        <ele>-5.87</ele>
        <time>2019-07-14T10:46:22Z</time>
      </trkpt>
      <trkpt lat="47.8018" lon="-3.64692">
        <ele>-5.73</ele>
        <time>2019-07-14T10:46:24Z</time>
      </trkpt>
      <trkpt lat="47.80185" lon="-3.64696">
        <ele>-5.64</ele>
        <time>2019-07-14T10:46:26Z</time>
      </trkpt>
      <trkpt lat="47.80186" lon="-3.64708">
        <ele>-5.7</ele>
        <time>2019-07-14T10:46:59Z</time>
      </trkpt>
      <trkpt lat="47.80186" lon="-3.64718">
        <ele>-5.55</ele>
        <time>2019-07-14T10:47:01Z</time>
      </trkpt>
      <trkpt lat="47.80187" lon="-3.6473">
        <ele>-5.42</ele>
        <time>2019-07-14T10:47:03Z</time>
      </trkpt>
      <trkpt lat="47.80188" lon="-3.64742">
        <ele>-5.5</ele>
        <time>2019-07-14T10:47:05Z</time>
      </trkpt>
      <trkpt lat="47.80189" lon="-3.64749">
        <ele>-5.51</ele>
        <time>2019-07-14T10:47:06Z</time>
      </trkpt>
      <trkpt lat="47.8019" lon="-3.64755">
        <ele>-5.51</ele>
        <time>2019-07-14T10:47:07Z</time>
      </trkpt>
      <trkpt lat="47.80191" lon="-3.64762">
        <ele>-5.44</ele>
        <time>2019-07-14T10:47:08Z</time>
      </trkpt>
      <trkpt lat="47.80194" lon="-3.64777">
        <ele>-5.3</ele>
        <time>2019-07-14T10:47:10Z</time>
      </trkpt>
      <trkpt lat="47.80196" lon="-3.64784">
        <ele>-5.24</ele>
        <time>2019-07-14T10:47:11Z</time>
      </trkpt>
      <trkpt lat="47.80199" lon="-3.64795">
        <ele>-5.31</ele>
        <time>2019-07-14T10:47:13Z</time>
      </trkpt>
      <trkpt lat="47.80199" lon="-3.64802">
        <ele>-5.17</ele>
        <time>2019-07-14T10:47:14Z</time>
      </trkpt>
      <trkpt lat="47.80199" lon="-3.64814">
        <ele>-5.19</ele>
        <time>2019-07-14T10:47:16Z</time>
      </trkpt>
      <trkpt lat="47.802" lon="-3.64821">
        <ele>-5.27</ele>
        <time>2019-07-14T10:47:17Z</time>
      </trkpt>
      <trkpt lat="47.802" lon="-3.64835">
        <ele>-5.95</ele>
        <time>2019-07-14T10:47:19Z</time>
      </trkpt>
      <trkpt lat="47.802" lon="-3.64842">
        <ele>-6.27</ele>
        <time>2019-07-14T10:47:20Z</time>
      </trkpt>
      <trkpt lat="47.802" lon="-3.6485">
        <ele>-6.72</ele>
        <time>2019-07-14T10:47:21Z</time>
      </trkpt>
      <trkpt lat="47.802" lon="-3.64857">
        <ele>-7.13</ele>
        <time>2019-07-14T10:47:22Z</time>
      </trkpt>
      <trkpt lat="47.80202" lon="-3.64867">
        <ele>-7.32</ele>
        <time>2019-07-14T10:47:24Z</time>
      </trkpt>
      <trkpt lat="47.80208" lon="-3.64869">
        <ele>-7.4</ele>
        <time>2019-07-14T10:47:26Z</time>
      </trkpt>
      <trkpt lat="47.80213" lon="-3.64872">
        <ele>-7.41</ele>
        <time>2019-07-14T10:47:28Z</time>
      </trkpt>
      <trkpt lat="47.80218" lon="-3.6488">
        <ele>-7.66</ele>
        <time>2019-07-14T10:47:30Z</time>
      </trkpt>
      <trkpt lat="47.8022" lon="-3.6489">
        <ele>-8.14</ele>
        <time>2019-07-14T10:47:32Z</time>
      </trkpt>
      <trkpt lat="47.80221" lon="-3.64901">
        <ele>-8.58</ele>
        <time>2019-07-14T10:47:34Z</time>
      </trkpt>
      <trkpt lat="47.80221" lon="-3.64915">
        <ele>-9</ele>
        <time>2019-07-14T10:47:36Z</time>
      </trkpt>
      <trkpt lat="47.80221" lon="-3.64927">
        <ele>-9.24</ele>
        <time>2019-07-14T10:47:38Z</time>
      </trkpt>
      <trkpt lat="47.80221" lon="-3.6494">
        <ele>-9.56</ele>
        <time>2019-07-14T10:47:40Z</time>
      </trkpt>
      <trkpt lat="47.80221" lon="-3.64948">
        <ele>-9.74</ele>
        <time>2019-07-14T10:47:41Z</time>
      </trkpt>
      <trkpt lat="47.8022" lon="-3.64955">
        <ele>-9.86</ele>
        <time>2019-07-14T10:47:42Z</time>
      </trkpt>
      <trkpt lat="47.80219" lon="-3.64963">
        <ele>-10.04</ele>
        <time>2019-07-14T10:47:43Z</time>
      </trkpt>
      <trkpt lat="47.80219" lon="-3.6497">
        <ele>-10.09</ele>
        <time>2019-07-14T10:47:44Z</time>
      </trkpt>
      <trkpt lat="47.80218" lon="-3.64978">
        <ele>-10.11</ele>
        <time>2019-07-14T10:47:45Z</time>
      </trkpt>
      <trkpt lat="47.80219" lon="-3.6499">
        <ele>-10.23</ele>
        <time>2019-07-14T10:47:47Z</time>
      </trkpt>
      <trkpt lat="47.80219" lon="-3.65002">
        <ele>-10.54</ele>
        <time>2019-07-14T10:47:49Z</time>
      </trkpt>
      <trkpt lat="47.8022" lon="-3.65016">
        <ele>-10.88</ele>
        <time>2019-07-14T10:47:51Z</time>
      </trkpt>
      <trkpt lat="47.80219" lon="-3.65024">
        <ele>-10.69</ele>
        <time>2019-07-14T10:47:52Z</time>
      </trkpt>
      <trkpt lat="47.80218" lon="-3.65037">
        <ele>-10.48</ele>
        <time>2019-07-14T10:47:54Z</time>
      </trkpt>
      <trkpt lat="47.80216" lon="-3.65048">
        <ele>-10.03</ele>
        <time>2019-07-14T10:47:56Z</time>
      </trkpt>
      <trkpt lat="47.80208" lon="-3.65056">
        <ele>-9.86</ele>
        <time>2019-07-14T10:47:58Z</time>
      </trkpt>
      <trkpt lat="47.80203" lon="-3.6506">
        <ele>-9.76</ele>
        <time>2019-07-14T10:47:59Z</time>
      </trkpt>
      <trkpt lat="47.80198" lon="-3.65064">
        <ele>-9.59</ele>
        <time>2019-07-14T10:48:00Z</time>
      </trkpt>
      <trkpt lat="47.80193" lon="-3.65067">
        <ele>-9.53</ele>
        <time>2019-07-14T10:48:01Z</time>
      </trkpt>
      <trkpt lat="47.80189" lon="-3.65073">
        <ele>-9.31</ele>
        <time>2019-07-14T10:48:02Z</time>
      </trkpt>
      <trkpt lat="47.80189" lon="-3.65084">
        <ele>-8.67</ele>
        <time>2019-07-14T10:48:04Z</time>
      </trkpt>
      <trkpt lat="47.80189" lon="-3.65096">
        <ele>-8.3</ele>
        <time>2019-07-14T10:48:06Z</time>
      </trkpt>
      <trkpt lat="47.80192" lon="-3.65108">
        <ele>-7.58</ele>
        <time>2019-07-14T10:48:08Z</time>
      </trkpt>
      <trkpt lat="47.80193" lon="-3.65114">
        <ele>-7.46</ele>
        <time>2019-07-14T10:48:09Z</time>
      </trkpt>
      <trkpt lat="47.80194" lon="-3.65121">
        <ele>-7.22</ele>
        <time>2019-07-14T10:48:10Z</time>
      </trkpt>
      <trkpt lat="47.80194" lon="-3.65128">
        <ele>-6.86</ele>
        <time>2019-07-14T10:48:11Z</time>
      </trkpt>
      <trkpt lat="47.80195" lon="-3.65135">
        <ele>-6.55</ele>
        <time>2019-07-14T10:48:12Z</time>
      </trkpt>
      <trkpt lat="47.80199" lon="-3.65148">
        <ele>-6.35</ele>
        <time>2019-07-14T10:48:14Z</time>
      </trkpt>
      <trkpt lat="47.80201" lon="-3.65156">
        <ele>-6.18</ele>
        <time>2019-07-14T10:48:15Z</time>
      </trkpt>
      <trkpt lat="47.80203" lon="-3.65162">
        <ele>-6.41</ele>
        <time>2019-07-14T10:48:16Z</time>
      </trkpt>
      <trkpt lat="47.80206" lon="-3.6517">
        <ele>-6.48</ele>
        <time>2019-07-14T10:48:17Z</time>
      </trkpt>
      <trkpt lat="47.8021" lon="-3.65177">
        <ele>-6.64</ele>
        <time>2019-07-14T10:48:18Z</time>
      </trkpt>
      <trkpt lat="47.80212" lon="-3.65184">
        <ele>-6.34</ele>
        <time>2019-07-14T10:48:19Z</time>
      </trkpt>
      <trkpt lat="47.80215" lon="-3.6519">
        <ele>-6.39</ele>
        <time>2019-07-14T10:48:20Z</time>
      </trkpt>
      <trkpt lat="47.80218" lon="-3.65197">
        <ele>-6.06</ele>
        <time>2019-07-14T10:48:21Z</time>
      </trkpt>
      <trkpt lat="47.80223" lon="-3.65208">
        <ele>-5.76</ele>
        <time>2019-07-14T10:48:23Z</time>
      </trkpt>
      <trkpt lat="47.80228" lon="-3.65219">
        <ele>-4.95</ele>
        <time>2019-07-14T10:48:25Z</time>
      </trkpt>
      <trkpt lat="47.80232" lon="-3.65227">
        <ele>-5.22</ele>
        <time>2019-07-14T10:48:27Z</time>
      </trkpt>
      <trkpt lat="47.80235" lon="-3.65237">
        <ele>-7.22</ele>
        <time>2019-07-14T10:48:29Z</time>
      </trkpt>
      <trkpt lat="47.80237" lon="-3.65244">
        <ele>-7.36</ele>
        <time>2019-07-14T10:48:30Z</time>
      </trkpt>
      <trkpt lat="47.80238" lon="-3.65251">
        <ele>-7.11</ele>
        <time>2019-07-14T10:48:31Z</time>
      </trkpt>
      <trkpt lat="47.8024" lon="-3.6526">
        <ele>-6.34</ele>
        <time>2019-07-14T10:48:32Z</time>
      </trkpt>
      <trkpt lat="47.80241" lon="-3.65269">
        <ele>-5.62</ele>
        <time>2019-07-14T10:48:33Z</time>
      </trkpt>
      <trkpt lat="47.80242" lon="-3.65278">
        <ele>-4.77</ele>
        <time>2019-07-14T10:48:34Z</time>
      </trkpt>
      <trkpt lat="47.80243" lon="-3.65286">
        <ele>-4.52</ele>
        <time>2019-07-14T10:48:35Z</time>
      </trkpt>
      <trkpt lat="47.80244" lon="-3.65294">
        <ele>-4.72</ele>
        <time>2019-07-14T10:48:36Z</time>
      </trkpt>
      <trkpt lat="47.80245" lon="-3.65302">
        <ele>-5</ele>
        <time>2019-07-14T10:48:37Z</time>
      </trkpt>
      <trkpt lat="47.80246" lon="-3.65309">
        <ele>-5.15</ele>
        <time>2019-07-14T10:48:38Z</time>
      </trkpt>
      <trkpt lat="47.80247" lon="-3.65316">
        <ele>-5.54</ele>
        <time>2019-07-14T10:48:39Z</time>
      </trkpt>
      <trkpt lat="47.80248" lon="-3.65324">
        <ele>-5.66</ele>
        <time>2019-07-14T10:48:40Z</time>
      </trkpt>
      <trkpt lat="47.80249" lon="-3.65331">
        <ele>-5.35</ele>
        <time>2019-07-14T10:48:41Z</time>
      </trkpt>
      <trkpt lat="47.8025" lon="-3.65339">
        <ele>-5.25</ele>
        <time>2019-07-14T10:48:42Z</time>
      </trkpt>
      <trkpt lat="47.80251" lon="-3.65347">
        <ele>-5.36</ele>
        <time>2019-07-14T10:48:43Z</time>
      </trkpt>
      <trkpt lat="47.80253" lon="-3.65356">
        <ele>-4.91</ele>
        <time>2019-07-14T10:48:44Z</time>
      </trkpt>
      <trkpt lat="47.80254" lon="-3.65364">
        <ele>-4.49</ele>
        <time>2019-07-14T10:48:45Z</time>
      </trkpt>
      <trkpt lat="47.80255" lon="-3.65373">
        <ele>-4.37</ele>
        <time>2019-07-14T10:48:46Z</time>
      </trkpt>
      <trkpt lat="47.80257" lon="-3.65382">
        <ele>-4.4</ele>
        <time>2019-07-14T10:48:47Z</time>
      </trkpt>
      <trkpt lat="47.80258" lon="-3.65391">
        <ele>-4.83</ele>
        <time>2019-07-14T10:48:48Z</time>
      </trkpt>
      <trkpt lat="47.8026" lon="-3.65399">
        <ele>-5.03</ele>
        <time>2019-07-14T10:48:49Z</time>
      </trkpt>
      <trkpt lat="47.80261" lon="-3.65408">
        <ele>-5.23</ele>
        <time>2019-07-14T10:48:50Z</time>
      </trkpt>
      <trkpt lat="47.80263" lon="-3.65418">
        <ele>-5.57</ele>
        <time>2019-07-14T10:48:51Z</time>
      </trkpt>
      <trkpt lat="47.80264" lon="-3.65427">
        <ele>-6.16</ele>
        <time>2019-07-14T10:48:52Z</time>
      </trkpt>
      <trkpt lat="47.80266" lon="-3.65435">
        <ele>-6.62</ele>
        <time>2019-07-14T10:48:53Z</time>
      </trkpt>
      <trkpt lat="47.80268" lon="-3.65443">
        <ele>-7.17</ele>
        <time>2019-07-14T10:48:54Z</time>
      </trkpt>
      <trkpt lat="47.80275" lon="-3.65448">
        <ele>-7.57</ele>
        <time>2019-07-14T10:48:56Z</time>
      </trkpt>
      <trkpt lat="47.80283" lon="-3.65443">
        <ele>-7.68</ele>
        <time>2019-07-14T10:48:58Z</time>
      </trkpt>
      <trkpt lat="47.80287" lon="-3.65438">
        <ele>-7.63</ele>
        <time>2019-07-14T10:48:59Z</time>
      </trkpt>
      <trkpt lat="47.80292" lon="-3.65432">
        <ele>-7.83</ele>
        <time>2019-07-14T10:49:00Z</time>
      </trkpt>
      <trkpt lat="47.80297" lon="-3.65428">
        <ele>-8.03</ele>
        <time>2019-07-14T10:49:01Z</time>
      </trkpt>
      <trkpt lat="47.80301" lon="-3.65423">
        <ele>-8.37</ele>
        <time>2019-07-14T10:49:02Z</time>
      </trkpt>
      <trkpt lat="47.80305" lon="-3.65418">
        <ele>-8.82</ele>
        <time>2019-07-14T10:49:03Z</time>
      </trkpt>
      <trkpt lat="47.8031" lon="-3.65413">
        <ele>-9.09</ele>
        <time>2019-07-14T10:49:04Z</time>
      </trkpt>
      <trkpt lat="47.80315" lon="-3.65408">
        <ele>-9.11</ele>
        <time>2019-07-14T10:49:05Z</time>
      </trkpt>
      <trkpt lat="47.80319" lon="-3.65404">
        <ele>-9.04</ele>
        <time>2019-07-14T10:49:06Z</time>
      </trkpt>
      <trkpt lat="47.80323" lon="-3.654">
        <ele>-9.09</ele>
        <time>2019-07-14T10:49:07Z</time>
      </trkpt>
      <trkpt lat="47.80329" lon="-3.65395">
        <ele>-9.52</ele>
        <time>2019-07-14T10:49:09Z</time>
      </trkpt>
      <trkpt lat="47.80333" lon="-3.65392">
        <ele>-9.44</ele>
        <time>2019-07-14T10:49:11Z</time>
      </trkpt>
      <trkpt lat="47.80339" lon="-3.65395">
        <ele>-9.62</ele>
        <time>2019-07-14T10:49:13Z</time>
      </trkpt>
      <trkpt lat="47.80344" lon="-3.65405">
        <ele>-9.68</ele>
        <time>2019-07-14T10:49:15Z</time>
      </trkpt>
      <trkpt lat="47.80345" lon="-3.65412">
        <ele>-9.77</ele>
        <time>2019-07-14T10:49:16Z</time>
      </trkpt>
      <trkpt lat="47.80346" lon="-3.65421">
        <ele>-9.94</ele>
        <time>2019-07-14T10:49:17Z</time>
      </trkpt>
      <trkpt lat="47.80348" lon="-3.65429">
        <ele>-10.13</ele>
        <time>2019-07-14T10:49:18Z</time>
      </trkpt>
      <trkpt lat="47.80349" lon="-3.65437">
        <ele>-10.47</ele>
        <time>2019-07-14T10:49:19Z</time>
      </trkpt>
      <trkpt lat="47.80351" lon="-3.65445">
        <ele>-10.78</ele>
        <time>2019-07-14T10:49:20Z</time>
      </trkpt>
      <trkpt lat="47.80353" lon="-3.65453">
        <ele>-10.94</ele>
        <time>2019-07-14T10:49:21Z</time>
      </trkpt>
      <trkpt lat="47.80355" lon="-3.65462">
        <ele>-11.2</ele>
        <time>2019-07-14T10:49:22Z</time>
      </trkpt>
      <trkpt lat="47.80356" lon="-3.6547">
        <ele>-11.63</ele>
        <time>2019-07-14T10:49:23Z</time>
      </trkpt>
      <trkpt lat="47.80358" lon="-3.65478">
        <ele>-11.83</ele>
        <time>2019-07-14T10:49:24Z</time>
      </trkpt>
      <trkpt lat="47.8036" lon="-3.65487">
        <ele>-11.82</ele>
        <time>2019-07-14T10:49:25Z</time>
      </trkpt>
      <trkpt lat="47.80362" lon="-3.65497">
        <ele>-11.81</ele>
        <time>2019-07-14T10:49:26Z</time>
      </trkpt>
      <trkpt lat="47.80365" lon="-3.65506">
        <ele>-11.95</ele>
        <time>2019-07-14T10:49:27Z</time>
      </trkpt>
      <trkpt lat="47.80366" lon="-3.65514">
        <ele>-11.99</ele>
        <time>2019-07-14T10:49:28Z</time>
      </trkpt>
      <trkpt lat="47.80368" lon="-3.65522">
        <ele>-12.01</ele>
        <time>2019-07-14T10:49:29Z</time>
      </trkpt>
      <trkpt lat="47.80369" lon="-3.6553">
        <ele>-12.15</ele>
        <time>2019-07-14T10:49:30Z</time>
      </trkpt>
      <trkpt lat="47.80372" lon="-3.65537">
        <ele>-12.47</ele>
        <time>2019-07-14T10:49:31Z</time>
      </trkpt>
      <trkpt lat="47.80373" lon="-3.65545">
        <ele>-12.78</ele>
        <time>2019-07-14T10:49:32Z</time>
      </trkpt>
      <trkpt lat="47.80375" lon="-3.65554">
        <ele>-12.94</ele>
        <time>2019-07-14T10:49:33Z</time>
      </trkpt>
      <trkpt lat="47.80376" lon="-3.65563">
        <ele>-12.99</ele>
        <time>2019-07-14T10:49:34Z</time>
      </trkpt>
      <trkpt lat="47.80378" lon="-3.65573">
        <ele>-13.5</ele>
        <time>2019-07-14T10:49:35Z</time>
      </trkpt>
      <trkpt lat="47.80382" lon="-3.65581">
        <ele>-13.86</ele>
        <time>2019-07-14T10:49:36Z</time>
      </trkpt>
      <trkpt lat="47.80386" lon="-3.65589">
        <ele>-14.11</ele>
        <time>2019-07-14T10:49:37Z</time>
      </trkpt>
      <trkpt lat="47.8039" lon="-3.65597">
        <ele>-14.6</ele>
        <time>2019-07-14T10:49:38Z</time>
      </trkpt>
      <trkpt lat="47.80394" lon="-3.65603">
        <ele>-14.96</ele>
        <time>2019-07-14T10:49:39Z</time>
      </trkpt>
      <trkpt lat="47.80398" lon="-3.65607">
        <ele>-15.21</ele>
        <time>2019-07-14T10:49:40Z</time>
      </trkpt>
      <trkpt lat="47.80406" lon="-3.65605">
        <ele>-15.76</ele>
        <time>2019-07-14T10:49:42Z</time>
      </trkpt>
      <trkpt lat="47.80412" lon="-3.65606">
        <ele>-16.11</ele>
        <time>2019-07-14T10:49:44Z</time>
      </trkpt>
      <trkpt lat="47.80418" lon="-3.6561">
        <ele>-16.62</ele>
        <time>2019-07-14T10:49:46Z</time>
      </trkpt>
      <trkpt lat="47.80421" lon="-3.65615">
        <ele>-17.23</ele>
        <time>2019-07-14T10:49:48Z</time>
      </trkpt>
      <trkpt lat="47.80424" lon="-3.65623">
        <ele>-17.49</ele>
        <time>2019-07-14T10:49:50Z</time>
      </trkpt>
      <trkpt lat="47.80427" lon="-3.65632">
        <ele>-17.74</ele>
        <time>2019-07-14T10:49:52Z</time>
      </trkpt>
      <trkpt lat="47.8043" lon="-3.65638">
        <ele>-18.04</ele>
        <time>2019-07-14T10:49:54Z</time>
      </trkpt>
      <trkpt lat="47.80432" lon="-3.65644">
        <ele>-18.43</ele>
        <time>2019-07-14T10:49:56Z</time>
      </trkpt>
      <trkpt lat="47.80434" lon="-3.65651">
        <ele>-18.77</ele>
        <time>2019-07-14T10:49:59Z</time>
      </trkpt>
      <trkpt lat="47.80441" lon="-3.65659">
        <ele>-19.33</ele>
        <time>2019-07-14T10:50:29Z</time>
      </trkpt>
      <trkpt lat="47.80444" lon="-3.65665">
        <ele>-19.93</ele>
        <time>2019-07-14T10:50:32Z</time>
      </trkpt>
      <trkpt lat="47.80447" lon="-3.65674">
        <ele>-20.37</ele>
        <time>2019-07-14T10:50:35Z</time>
      </trkpt>
      <trkpt lat="47.80451" lon="-3.65681">
        <ele>-20.48</ele>
        <time>2019-07-14T10:50:37Z</time>
      </trkpt>
      <trkpt lat="47.80455" lon="-3.65689">
        <ele>-20.58</ele>
        <time>2019-07-14T10:50:39Z</time>
      </trkpt>
      <trkpt lat="47.8046" lon="-3.65697">
        <ele>-20.61</ele>
        <time>2019-07-14T10:50:41Z</time>
      </trkpt>
      <trkpt lat="47.80463" lon="-3.65703">
        <ele>-20.77</ele>
        <time>2019-07-14T10:50:43Z</time>
      </trkpt>
      <trkpt lat="47.80466" lon="-3.65709">
        <ele>-20.74</ele>
        <time>2019-07-14T10:50:46Z</time>
      </trkpt>
      <trkpt lat="47.80469" lon="-3.65715">
        <ele>-20.59</ele>
        <time>2019-07-14T10:50:50Z</time>
      </trkpt>
      <trkpt lat="47.80474" lon="-3.65727">
        <ele>-19.77</ele>
        <time>2019-07-14T10:51:06Z</time>
      </trkpt>
      <trkpt lat="47.80482" lon="-3.65734">
        <ele>-18.28</ele>
        <time>2019-07-14T10:51:27Z</time>
      </trkpt>
      <trkpt lat="47.80485" lon="-3.65739">
        <ele>-18.16</ele>
        <time>2019-07-14T10:51:31Z</time>
      </trkpt>
      <trkpt lat="47.8049" lon="-3.65746">
        <ele>-17.32</ele>
        <time>2019-07-14T10:51:48Z</time>
      </trkpt>
      <trkpt lat="47.80494" lon="-3.65751">
        <ele>-16.96</ele>
        <time>2019-07-14T10:51:51Z</time>
      </trkpt>
      <trkpt lat="47.80499" lon="-3.65756">
        <ele>-16.76</ele>
        <time>2019-07-14T10:51:53Z</time>
      </trkpt>
      <trkpt lat="47.80505" lon="-3.65762">
        <ele>-16.48</ele>
        <time>2019-07-14T10:51:55Z</time>
      </trkpt>
      <trkpt lat="47.80509" lon="-3.65766">
        <ele>-16.15</ele>
        <time>2019-07-14T10:51:56Z</time>
      </trkpt>
      <trkpt lat="47.80513" lon="-3.6577">
        <ele>-15.77</ele>
        <time>2019-07-14T10:51:57Z</time>
      </trkpt>
      <trkpt lat="47.80519" lon="-3.65779">
        <ele>-15.05</ele>
        <time>2019-07-14T10:51:59Z</time>
      </trkpt>
      <trkpt lat="47.80522" lon="-3.65784">
        <ele>-14.53</ele>
        <time>2019-07-14T10:52:00Z</time>
      </trkpt>
      <trkpt lat="47.80529" lon="-3.65794">
        <ele>-13.64</ele>
        <time>2019-07-14T10:52:02Z</time>
      </trkpt>
      <trkpt lat="47.80532" lon="-3.658">
        <ele>-13.2</ele>
        <time>2019-07-14T10:52:03Z</time>
      </trkpt>
      <trkpt lat="47.80535" lon="-3.65806">
        <ele>-12.79</ele>
        <time>2019-07-14T10:52:04Z</time>
      </trkpt>
      <trkpt lat="47.80539" lon="-3.65812">
        <ele>-12.59</ele>
        <time>2019-07-14T10:52:05Z</time>
      </trkpt>
      <trkpt lat="47.80543" lon="-3.65818">
        <ele>-12.4</ele>
        <time>2019-07-14T10:52:06Z</time>
      </trkpt>
      <trkpt lat="47.80546" lon="-3.65823">
        <ele>-12.41</ele>
        <time>2019-07-14T10:52:07Z</time>
      </trkpt>
      <trkpt lat="47.8055" lon="-3.65829">
        <ele>-12.2</ele>
        <time>2019-07-14T10:52:08Z</time>
      </trkpt>
      <trkpt lat="47.80553" lon="-3.65835">
        <ele>-11.93</ele>
        <time>2019-07-14T10:52:09Z</time>
      </trkpt>
      <trkpt lat="47.80556" lon="-3.65841">
        <ele>-11.57</ele>
        <time>2019-07-14T10:52:10Z</time>
      </trkpt>
      <trkpt lat="47.80559" lon="-3.65847">
        <ele>-11.32</ele>
        <time>2019-07-14T10:52:11Z</time>
      </trkpt>
      <trkpt lat="47.80564" lon="-3.65858">
        <ele>-10.74</ele>
        <time>2019-07-14T10:52:13Z</time>
      </trkpt>
      <trkpt lat="47.80569" lon="-3.6587">
        <ele>-10.14</ele>
        <time>2019-07-14T10:52:15Z</time>
      </trkpt>
      <trkpt lat="47.80572" lon="-3.65881">
        <ele>-9.93</ele>
        <time>2019-07-14T10:52:17Z</time>
      </trkpt>
      <trkpt lat="47.80576" lon="-3.65887">
        <ele>-9.5</ele>
        <time>2019-07-14T10:52:18Z</time>
      </trkpt>
      <trkpt lat="47.8058" lon="-3.65894">
        <ele>-9.09</ele>
        <time>2019-07-14T10:52:19Z</time>
      </trkpt>
      <trkpt lat="47.80583" lon="-3.65901">
        <ele>-8.61</ele>
        <time>2019-07-14T10:52:20Z</time>
      </trkpt>
      <trkpt lat="47.80587" lon="-3.65907">
        <ele>-8.12</ele>
        <time>2019-07-14T10:52:21Z</time>
      </trkpt>
      <trkpt lat="47.8059" lon="-3.65912">
        <ele>-7.84</ele>
        <time>2019-07-14T10:52:22Z</time>
      </trkpt>
      <trkpt lat="47.80594" lon="-3.65918">
        <ele>-7.47</ele>
        <time>2019-07-14T10:52:23Z</time>
      </trkpt>
      <trkpt lat="47.80598" lon="-3.65925">
        <ele>-7.08</ele>
        <time>2019-07-14T10:52:24Z</time>
      </trkpt>
      <trkpt lat="47.80601" lon="-3.6593">
        <ele>-6.82</ele>
        <time>2019-07-14T10:52:25Z</time>
      </trkpt>
      <trkpt lat="47.80605" lon="-3.65936">
        <ele>-6.47</ele>
        <time>2019-07-14T10:52:26Z</time>
      </trkpt>
      <trkpt lat="47.80609" lon="-3.65941">
        <ele>-6.22</ele>
        <time>2019-07-14T10:52:27Z</time>
      </trkpt>
      <trkpt lat="47.80613" lon="-3.65948">
        <ele>-6.35</ele>
        <time>2019-07-14T10:52:28Z</time>
      </trkpt>
      <trkpt lat="47.80617" lon="-3.65955">
        <ele>-6.53</ele>
        <time>2019-07-14T10:52:29Z</time>
      </trkpt>
      <trkpt lat="47.80622" lon="-3.65962">
        <ele>-7.08</ele>
        <time>2019-07-14T10:52:30Z</time>
      </trkpt>
      <trkpt lat="47.80626" lon="-3.65968">
        <ele>-7.52</ele>
        <time>2019-07-14T10:52:31Z</time>
      </trkpt>
      <trkpt lat="47.80631" lon="-3.65976">
        <ele>-7.59</ele>
        <time>2019-07-14T10:52:32Z</time>
      </trkpt>
      <trkpt lat="47.80635" lon="-3.65983">
        <ele>-7.74</ele>
        <time>2019-07-14T10:52:33Z</time>
      </trkpt>
      <trkpt lat="47.80638" lon="-3.65991">
        <ele>-8.07</ele>
        <time>2019-07-14T10:52:34Z</time>
      </trkpt>
      <trkpt lat="47.80642" lon="-3.65999">
        <ele>-8.1</ele>
        <time>2019-07-14T10:52:35Z</time>
      </trkpt>
      <trkpt lat="47.80645" lon="-3.66008">
        <ele>-8.6</ele>
        <time>2019-07-14T10:52:36Z</time>
      </trkpt>
      <trkpt lat="47.80648" lon="-3.66015">
        <ele>-8.75</ele>
        <time>2019-07-14T10:52:37Z</time>
      </trkpt>
      <trkpt lat="47.80652" lon="-3.66022">
        <ele>-9.14</ele>
        <time>2019-07-14T10:52:38Z</time>
      </trkpt>
      <trkpt lat="47.80656" lon="-3.66028">
        <ele>-9.75</ele>
        <time>2019-07-14T10:52:39Z</time>
      </trkpt>
      <trkpt lat="47.80659" lon="-3.66036">
        <ele>-9.93</ele>
        <time>2019-07-14T10:52:40Z</time>
      </trkpt>
      <trkpt lat="47.80663" lon="-3.66042">
        <ele>-10.06</ele>
        <time>2019-07-14T10:52:41Z</time>
      </trkpt>
      <trkpt lat="47.80666" lon="-3.6605">
        <ele>-9.89</ele>
        <time>2019-07-14T10:52:42Z</time>
      </trkpt>
      <trkpt lat="47.80669" lon="-3.66057">
        <ele>-9.55</ele>
        <time>2019-07-14T10:52:43Z</time>
      </trkpt>
      <trkpt lat="47.80672" lon="-3.66065">
        <ele>-9.17</ele>
        <time>2019-07-14T10:52:44Z</time>
      </trkpt>
      <trkpt lat="47.80676" lon="-3.66073">
        <ele>-9.06</ele>
        <time>2019-07-14T10:52:45Z</time>
      </trkpt>
      <trkpt lat="47.80681" lon="-3.66081">
        <ele>-9.73</ele>
        <time>2019-07-14T10:52:46Z</time>
      </trkpt>
      <trkpt lat="47.80685" lon="-3.66089">
        <ele>-9.86</ele>
        <time>2019-07-14T10:52:47Z</time>
      </trkpt>
      <trkpt lat="47.80689" lon="-3.66096">
        <ele>-9.83</ele>
        <time>2019-07-14T10:52:48Z</time>
      </trkpt>
      <trkpt lat="47.80692" lon="-3.66103">
        <ele>-9.61</ele>
        <time>2019-07-14T10:52:49Z</time>
      </trkpt>
      <trkpt lat="47.80696" lon="-3.66111">
        <ele>-9.4</ele>
        <time>2019-07-14T10:52:50Z</time>
      </trkpt>
      <trkpt lat="47.807" lon="-3.66119">
        <ele>-9.41</ele>
        <time>2019-07-14T10:52:51Z</time>
      </trkpt>
      <trkpt lat="47.80703" lon="-3.66127">
        <ele>-9.34</ele>
        <time>2019-07-14T10:52:52Z</time>
      </trkpt>
      <trkpt lat="47.80707" lon="-3.66135">
        <ele>-9.46</ele>
        <time>2019-07-14T10:52:53Z</time>
      </trkpt>
      <trkpt lat="47.80711" lon="-3.66142">
        <ele>-9.15</ele>
        <time>2019-07-14T10:52:54Z</time>
      </trkpt>
      <trkpt lat="47.80715" lon="-3.66149">
        <ele>-9.26</ele>
        <time>2019-07-14T10:52:55Z</time>
      </trkpt>
      <trkpt lat="47.80719" lon="-3.66157">
        <ele>-9.37</ele>
        <time>2019-07-14T10:52:56Z</time>
      </trkpt>
      <trkpt lat="47.80722" lon="-3.66164">
        <ele>-9.4</ele>
        <time>2019-07-14T10:52:57Z</time>
      </trkpt>
      <trkpt lat="47.80726" lon="-3.66171">
        <ele>-9.83</ele>
        <time>2019-07-14T10:52:58Z</time>
      </trkpt>
      <trkpt lat="47.8073" lon="-3.66179">
        <ele>-10.52</ele>
        <time>2019-07-14T10:52:59Z</time>
      </trkpt>
      <trkpt lat="47.80734" lon="-3.66186">
        <ele>-11</ele>
        <time>2019-07-14T10:53:00Z</time>
      </trkpt>
      <trkpt lat="47.80738" lon="-3.66194">
        <ele>-11.15</ele>
        <time>2019-07-14T10:53:01Z</time>
      </trkpt>
      <trkpt lat="47.80742" lon="-3.66202">
        <ele>-11.33</ele>
        <time>2019-07-14T10:53:02Z</time>
      </trkpt>
      <trkpt lat="47.80746" lon="-3.66209">
        <ele>-11.74</ele>
        <time>2019-07-14T10:53:03Z</time>
      </trkpt>
      <trkpt lat="47.80748" lon="-3.66217">
        <ele>-12</ele>
        <time>2019-07-14T10:53:04Z</time>
      </trkpt>
      <trkpt lat="47.80752" lon="-3.66224">
        <ele>-12.22</ele>
        <time>2019-07-14T10:53:05Z</time>
      </trkpt>
      <trkpt lat="47.80754" lon="-3.66231">
        <ele>-12.91</ele>
        <time>2019-07-14T10:53:06Z</time>
      </trkpt>
      <trkpt lat="47.80757" lon="-3.66237">
        <ele>-13.4</ele>
        <time>2019-07-14T10:53:07Z</time>
      </trkpt>
      <trkpt lat="47.8076" lon="-3.66242">
        <ele>-13.41</ele>
        <time>2019-07-14T10:53:08Z</time>
      </trkpt>
      <trkpt lat="47.80767" lon="-3.66248">
        <ele>-13.95</ele>
        <time>2019-07-14T10:53:10Z</time>
      </trkpt>
      <trkpt lat="47.8077" lon="-3.66253">
        <ele>-12.35</ele>
        <time>2019-07-14T10:53:12Z</time>
      </trkpt>
      <trkpt lat="47.80775" lon="-3.6626">
        <ele>-12.69</ele>
        <time>2019-07-14T10:53:14Z</time>
      </trkpt>
      <trkpt lat="47.80779" lon="-3.66264">
        <ele>-13.19</ele>
        <time>2019-07-14T10:53:15Z</time>
      </trkpt>
      <trkpt lat="47.80783" lon="-3.66267">
        <ele>-13.28</ele>
        <time>2019-07-14T10:53:16Z</time>
      </trkpt>
      <trkpt lat="47.80788" lon="-3.66269">
        <ele>-13.09</ele>
        <time>2019-07-14T10:53:17Z</time>
      </trkpt>
      <trkpt lat="47.80794" lon="-3.66272">
        <ele>-13.25</ele>
        <time>2019-07-14T10:53:18Z</time>
      </trkpt>
      <trkpt lat="47.80799" lon="-3.66275">
        <ele>-13.01</ele>
        <time>2019-07-14T10:53:19Z</time>
      </trkpt>
      <trkpt lat="47.80804" lon="-3.66278">
        <ele>-12.8</ele>
        <time>2019-07-14T10:53:20Z</time>
      </trkpt>
      <trkpt lat="47.80809" lon="-3.66281">
        <ele>-12.53</ele>
        <time>2019-07-14T10:53:21Z</time>
      </trkpt>
      <trkpt lat="47.80814" lon="-3.66285">
        <ele>-12.38</ele>
        <time>2019-07-14T10:53:22Z</time>
      </trkpt>
      <trkpt lat="47.80819" lon="-3.66289">
        <ele>-12.26</ele>
        <time>2019-07-14T10:53:23Z</time>
      </trkpt>
      <trkpt lat="47.80825" lon="-3.66292">
        <ele>-12.16</ele>
        <time>2019-07-14T10:53:24Z</time>
      </trkpt>
      <trkpt lat="47.8083" lon="-3.66295">
        <ele>-12.34</ele>
        <time>2019-07-14T10:53:25Z</time>
      </trkpt>
      <trkpt lat="47.80836" lon="-3.66298">
        <ele>-12.18</ele>
        <time>2019-07-14T10:53:26Z</time>
      </trkpt>
      <trkpt lat="47.80841" lon="-3.66302">
        <ele>-12.06</ele>
        <time>2019-07-14T10:53:27Z</time>
      </trkpt>
      <trkpt lat="47.80846" lon="-3.66307">
        <ele>-11.82</ele>
        <time>2019-07-14T10:53:28Z</time>
      </trkpt>
      <trkpt lat="47.80851" lon="-3.6631">
        <ele>-11.53</ele>
        <time>2019-07-14T10:53:29Z</time>
      </trkpt>
      <trkpt lat="47.80856" lon="-3.66312">
        <ele>-11.31</ele>
        <time>2019-07-14T10:53:30Z</time>
      </trkpt>
      <trkpt lat="47.80861" lon="-3.66314">
        <ele>-11.17</ele>
        <time>2019-07-14T10:53:31Z</time>
      </trkpt>
      <trkpt lat="47.80865" lon="-3.66317">
        <ele>-11.06</ele>
        <time>2019-07-14T10:53:32Z</time>
      </trkpt>
      <trkpt lat="47.8087" lon="-3.6632">
        <ele>-10.96</ele>
        <time>2019-07-14T10:53:33Z</time>
      </trkpt>
      <trkpt lat="47.80877" lon="-3.66327">
        <ele>-11.08</ele>
        <time>2019-07-14T10:53:35Z</time>
      </trkpt>
      <trkpt lat="47.80885" lon="-3.66332">
        <ele>-11.04</ele>
        <time>2019-07-14T10:53:37Z</time>
      </trkpt>
      <trkpt lat="47.8089" lon="-3.66337">
        <ele>-11.02</ele>
        <time>2019-07-14T10:53:38Z</time>
      </trkpt>
      <trkpt lat="47.80895" lon="-3.66341">
        <ele>-10.94</ele>
        <time>2019-07-14T10:53:39Z</time>
      </trkpt>
      <trkpt lat="47.80899" lon="-3.66347">
        <ele>-11.13</ele>
        <time>2019-07-14T10:53:40Z</time>
      </trkpt>
      <trkpt lat="47.80904" lon="-3.66352">
        <ele>-11.61</ele>
        <time>2019-07-14T10:53:41Z</time>
      </trkpt>
      <trkpt lat="47.80913" lon="-3.66363">
        <ele>-12.17</ele>
        <time>2019-07-14T10:53:43Z</time>
      </trkpt>
      <trkpt lat="47.80917" lon="-3.66369">
        <ele>-12.55</ele>
        <time>2019-07-14T10:53:44Z</time>
      </trkpt>
      <trkpt lat="47.80927" lon="-3.66371">
        <ele>-11.75</ele>
        <time>2019-07-14T10:53:45Z</time>
      </trkpt>
      <trkpt lat="47.80931" lon="-3.66375">
        <ele>-11.51</ele>
        <time>2019-07-14T10:53:46Z</time>
      </trkpt>
      <trkpt lat="47.80936" lon="-3.66379">
        <ele>-11.44</ele>
        <time>2019-07-14T10:53:47Z</time>
      </trkpt>
      <trkpt lat="47.8094" lon="-3.66383">
        <ele>-11.42</ele>
        <time>2019-07-14T10:53:48Z</time>
      </trkpt>
      <trkpt lat="47.80946" lon="-3.66387">
        <ele>-10.92</ele>
        <time>2019-07-14T10:53:49Z</time>
      </trkpt>
      <trkpt lat="47.80952" lon="-3.66391">
        <ele>-10.57</ele>
        <time>2019-07-14T10:53:50Z</time>
      </trkpt>
      <trkpt lat="47.80956" lon="-3.66395">
        <ele>-10.53</ele>
        <time>2019-07-14T10:53:51Z</time>
      </trkpt>
      <trkpt lat="47.80961" lon="-3.664">
        <ele>-10.17</ele>
        <time>2019-07-14T10:53:52Z</time>
      </trkpt>
      <trkpt lat="47.80966" lon="-3.66405">
        <ele>-9.22</ele>
        <time>2019-07-14T10:53:53Z</time>
      </trkpt>
      <trkpt lat="47.80971" lon="-3.66409">
        <ele>-8.65</ele>
        <time>2019-07-14T10:53:54Z</time>
      </trkpt>
      <trkpt lat="47.80975" lon="-3.66414">
        <ele>-8.41</ele>
        <time>2019-07-14T10:53:55Z</time>
      </trkpt>
      <trkpt lat="47.80978" lon="-3.6642">
        <ele>-9.39</ele>
        <time>2019-07-14T10:53:56Z</time>
      </trkpt>
      <trkpt lat="47.80982" lon="-3.66424">
        <ele>-9.62</ele>
        <time>2019-07-14T10:53:57Z</time>
      </trkpt>
      <trkpt lat="47.80986" lon="-3.66429">
        <ele>-10.1</ele>
        <time>2019-07-14T10:53:58Z</time>
      </trkpt>
      <trkpt lat="47.8099" lon="-3.66435">
        <ele>-10.39</ele>
        <time>2019-07-14T10:53:59Z</time>
      </trkpt>
      <trkpt lat="47.80995" lon="-3.6644">
        <ele>-10.2</ele>
        <time>2019-07-14T10:54:00Z</time>
      </trkpt>
      <trkpt lat="47.80998" lon="-3.66447">
        <ele>-8.95</ele>
        <time>2019-07-14T10:54:01Z</time>
      </trkpt>
      <trkpt lat="47.81" lon="-3.66454">
        <ele>-8.01</ele>
        <time>2019-07-14T10:54:02Z</time>
      </trkpt>
      <trkpt lat="47.81001" lon="-3.66462">
        <ele>-7.45</ele>
        <time>2019-07-14T10:54:03Z</time>
      </trkpt>
      <trkpt lat="47.81001" lon="-3.6647">
        <ele>-7</ele>
        <time>2019-07-14T10:54:04Z</time>
      </trkpt>
      <trkpt lat="47.81" lon="-3.66478">
        <ele>-7.01</ele>
        <time>2019-07-14T10:54:05Z</time>
      </trkpt>
      <trkpt lat="47.81" lon="-3.66486">
        <ele>-7.08</ele>
        <time>2019-07-14T10:54:06Z</time>
      </trkpt>
      <trkpt lat="47.81" lon="-3.66494">
        <ele>-6.82</ele>
        <time>2019-07-14T10:54:07Z</time>
      </trkpt>
      <trkpt lat="47.80999" lon="-3.66502">
        <ele>-6.26</ele>
        <time>2019-07-14T10:54:08Z</time>
      </trkpt>
      <trkpt lat="47.80999" lon="-3.6651">
        <ele>-5.73</ele>
        <time>2019-07-14T10:54:09Z</time>
      </trkpt>
      <trkpt lat="47.80998" lon="-3.66517">
        <ele>-5.51</ele>
        <time>2019-07-14T10:54:10Z</time>
      </trkpt>
      <trkpt lat="47.80997" lon="-3.66524">
        <ele>-5.16</ele>
        <time>2019-07-14T10:54:11Z</time>
      </trkpt>
      <trkpt lat="47.80996" lon="-3.66531">
        <ele>-5.06</ele>
        <time>2019-07-14T10:54:12Z</time>
      </trkpt>
      <trkpt lat="47.80996" lon="-3.66539">
        <ele>-4.68</ele>
        <time>2019-07-14T10:54:13Z</time>
      </trkpt>
      <trkpt lat="47.80995" lon="-3.66547">
        <ele>-4.49</ele>
        <time>2019-07-14T10:54:14Z</time>
      </trkpt>
      <trkpt lat="47.80993" lon="-3.66555">
        <ele>-4.3</ele>
        <time>2019-07-14T10:54:15Z</time>
      </trkpt>
      <trkpt lat="47.80992" lon="-3.66563">
        <ele>-3.96</ele>
        <time>2019-07-14T10:54:16Z</time>
      </trkpt>
      <trkpt lat="47.80991" lon="-3.66572">
        <ele>-3.37</ele>
        <time>2019-07-14T10:54:17Z</time>
      </trkpt>
      <trkpt lat="47.8099" lon="-3.6658">
        <ele>-2.91</ele>
        <time>2019-07-14T10:54:18Z</time>
      </trkpt>
      <trkpt lat="47.8099" lon="-3.66589">
        <ele>-2.49</ele>
        <time>2019-07-14T10:54:19Z</time>
      </trkpt>
      <trkpt lat="47.80989" lon="-3.66598">
        <ele>-2.3</ele>
        <time>2019-07-14T10:54:20Z</time>
      </trkpt>
      <trkpt lat="47.80989" lon="-3.66607">
        <ele>-1.89</ele>
        <time>2019-07-14T10:54:21Z</time>
      </trkpt>
      <trkpt lat="47.80989" lon="-3.66616">
        <ele>-1.55</ele>
        <time>2019-07-14T10:54:22Z</time>
      </trkpt>
      <trkpt lat="47.80988" lon="-3.66625">
        <ele>-1.17</ele>
        <time>2019-07-14T10:54:23Z</time>
      </trkpt>
      <trkpt lat="47.80987" lon="-3.66634">
        <ele>-0.78</ele>
        <time>2019-07-14T10:54:24Z</time>
      </trkpt>
      <trkpt lat="47.80986" lon="-3.66643">
        <ele>-0.52</ele>
        <time>2019-07-14T10:54:25Z</time>
      </trkpt>
      <trkpt lat="47.80985" lon="-3.66652">
        <ele>-0.45</ele>
        <time>2019-07-14T10:54:26Z</time>
      </trkpt>
      <trkpt lat="47.80984" lon="-3.66662">
        <ele>-0.35</ele>
        <time>2019-07-14T10:54:27Z</time>
      </trkpt>
      <trkpt lat="47.80982" lon="-3.66671">
        <ele>-0.46</ele>
        <time>2019-07-14T10:54:28Z</time>
      </trkpt>
      <trkpt lat="47.8098" lon="-3.6668">
        <ele>-0.71</ele>
        <time>2019-07-14T10:54:29Z</time>
      </trkpt>
      <trkpt lat="47.80979" lon="-3.6669">
        <ele>-0.92</ele>
        <time>2019-07-14T10:54:30Z</time>
      </trkpt>
      <trkpt lat="47.80978" lon="-3.66699">
        <ele>-1.05</ele>
        <time>2019-07-14T10:54:31Z</time>
      </trkpt>
      <trkpt lat="47.80977" lon="-3.66709">
        <ele>-1.09</ele>
        <time>2019-07-14T10:54:32Z</time>
      </trkpt>
      <trkpt lat="47.80977" lon="-3.66719">
        <ele>-1.04</ele>
        <time>2019-07-14T10:54:33Z</time>
      </trkpt>
      <trkpt lat="47.80976" lon="-3.66729">
        <ele>-0.81</ele>
        <time>2019-07-14T10:54:34Z</time>
      </trkpt>
      <trkpt lat="47.80975" lon="-3.6674">
        <ele>-0.81</ele>
        <time>2019-07-14T10:54:35Z</time>
      </trkpt>
      <trkpt lat="47.80974" lon="-3.6675">
        <ele>-0.74</ele>
        <time>2019-07-14T10:54:36Z</time>
      </trkpt>
      <trkpt lat="47.80973" lon="-3.6676">
        <ele>-0.79</ele>
        <time>2019-07-14T10:54:37Z</time>
      </trkpt>
      <trkpt lat="47.80973" lon="-3.66771">
        <ele>-0.81</ele>
        <time>2019-07-14T10:54:38Z</time>
      </trkpt>
      <trkpt lat="47.80972" lon="-3.6678">
        <ele>-0.74</ele>
        <time>2019-07-14T10:54:39Z</time>
      </trkpt>
      <trkpt lat="47.8097" lon="-3.6679">
        <ele>-0.65</ele>
        <time>2019-07-14T10:54:40Z</time>
      </trkpt>
      <trkpt lat="47.8097" lon="-3.66799">
        <ele>-0.62</ele>
        <time>2019-07-14T10:54:41Z</time>
      </trkpt>
      <trkpt lat="47.80969" lon="-3.66807">
        <ele>-0.76</ele>
        <time>2019-07-14T10:54:42Z</time>
      </trkpt>
      <trkpt lat="47.80967" lon="-3.66816">
        <ele>-1.64</ele>
        <time>2019-07-14T10:54:43Z</time>
      </trkpt>
      <trkpt lat="47.80964" lon="-3.66825">
        <ele>-2.81</ele>
        <time>2019-07-14T10:54:44Z</time>
      </trkpt>
      <trkpt lat="47.80964" lon="-3.66834">
        <ele>-3.3</ele>
        <time>2019-07-14T10:54:45Z</time>
      </trkpt>
      <trkpt lat="47.80963" lon="-3.66843">
        <ele>-3.59</ele>
        <time>2019-07-14T10:54:46Z</time>
      </trkpt>
      <trkpt lat="47.80963" lon="-3.66852">
        <ele>-4.31</ele>
        <time>2019-07-14T10:54:47Z</time>
      </trkpt>
      <trkpt lat="47.80963" lon="-3.66861">
        <ele>-5.08</ele>
        <time>2019-07-14T10:54:48Z</time>
      </trkpt>
      <trkpt lat="47.80962" lon="-3.6687">
        <ele>-6.15</ele>
        <time>2019-07-14T10:54:49Z</time>
      </trkpt>
      <trkpt lat="47.80961" lon="-3.66878">
        <ele>-7.1</ele>
        <time>2019-07-14T10:54:50Z</time>
      </trkpt>
      <trkpt lat="47.8096" lon="-3.66887">
        <ele>-7.74</ele>
        <time>2019-07-14T10:54:51Z</time>
      </trkpt>
      <trkpt lat="47.8096" lon="-3.66895">
        <ele>-8.77</ele>
        <time>2019-07-14T10:54:52Z</time>
      </trkpt>
      <trkpt lat="47.80959" lon="-3.66904">
        <ele>-9.22</ele>
        <time>2019-07-14T10:54:53Z</time>
      </trkpt>
      <trkpt lat="47.80959" lon="-3.66913">
        <ele>-9.56</ele>
        <time>2019-07-14T10:54:54Z</time>
      </trkpt>
      <trkpt lat="47.80958" lon="-3.66922">
        <ele>-9.6</ele>
        <time>2019-07-14T10:54:55Z</time>
      </trkpt>
      <trkpt lat="47.80957" lon="-3.66931">
        <ele>-9.26</ele>
        <time>2019-07-14T10:54:56Z</time>
      </trkpt>
      <trkpt lat="47.80956" lon="-3.66941">
        <ele>-9.23</ele>
        <time>2019-07-14T10:54:57Z</time>
      </trkpt>
      <trkpt lat="47.80956" lon="-3.6695">
        <ele>-9.15</ele>
        <time>2019-07-14T10:54:58Z</time>
      </trkpt>
      <trkpt lat="47.80955" lon="-3.6696">
        <ele>-8.63</ele>
        <time>2019-07-14T10:54:59Z</time>
      </trkpt>
      <trkpt lat="47.80954" lon="-3.66969">
        <ele>-8.41</ele>
        <time>2019-07-14T10:55:00Z</time>
      </trkpt>
      <trkpt lat="47.80953" lon="-3.66979">
        <ele>-8.06</ele>
        <time>2019-07-14T10:55:01Z</time>
      </trkpt>
      <trkpt lat="47.80953" lon="-3.66987">
        <ele>-8.24</ele>
        <time>2019-07-14T10:55:02Z</time>
      </trkpt>
      <trkpt lat="47.80952" lon="-3.66996">
        <ele>-7.87</ele>
        <time>2019-07-14T10:55:03Z</time>
      </trkpt>
      <trkpt lat="47.80952" lon="-3.67005">
        <ele>-7.62</ele>
        <time>2019-07-14T10:55:04Z</time>
      </trkpt>
      <trkpt lat="47.80951" lon="-3.67014">
        <ele>-7.54</ele>
        <time>2019-07-14T10:55:05Z</time>
      </trkpt>
      <trkpt lat="47.8095" lon="-3.67023">
        <ele>-7.17</ele>
        <time>2019-07-14T10:55:06Z</time>
      </trkpt>
      <trkpt lat="47.8095" lon="-3.67032">
        <ele>-7.13</ele>
        <time>2019-07-14T10:55:07Z</time>
      </trkpt>
      <trkpt lat="47.80949" lon="-3.67041">
        <ele>-6.98</ele>
        <time>2019-07-14T10:55:08Z</time>
      </trkpt>
      <trkpt lat="47.80949" lon="-3.67049">
        <ele>-7.07</ele>
        <time>2019-07-14T10:55:09Z</time>
      </trkpt>
      <trkpt lat="47.80948" lon="-3.67058">
        <ele>-7.03</ele>
        <time>2019-07-14T10:55:10Z</time>
      </trkpt>
      <trkpt lat="47.80947" lon="-3.67067">
        <ele>-7.02</ele>
        <time>2019-07-14T10:55:11Z</time>
      </trkpt>
      <trkpt lat="47.80946" lon="-3.67076">
        <ele>-6.94</ele>
        <time>2019-07-14T10:55:12Z</time>
      </trkpt>
      <trkpt lat="47.80946" lon="-3.67085">
        <ele>-6.78</ele>
        <time>2019-07-14T10:55:13Z</time>
      </trkpt>
      <trkpt lat="47.80945" lon="-3.67093">
        <ele>-6.24</ele>
        <time>2019-07-14T10:55:14Z</time>
      </trkpt>
      <trkpt lat="47.80944" lon="-3.67102">
        <ele>-5.73</ele>
        <time>2019-07-14T10:55:15Z</time>
      </trkpt>
      <trkpt lat="47.80943" lon="-3.67111">
        <ele>-5.3</ele>
        <time>2019-07-14T10:55:16Z</time>
      </trkpt>
      <trkpt lat="47.80942" lon="-3.6712">
        <ele>-5.17</ele>
        <time>2019-07-14T10:55:17Z</time>
      </trkpt>
      <trkpt lat="47.80942" lon="-3.67129">
        <ele>-4.99</ele>
        <time>2019-07-14T10:55:18Z</time>
      </trkpt>
      <trkpt lat="47.8094" lon="-3.67138">
        <ele>-4.94</ele>
        <time>2019-07-14T10:55:19Z</time>
      </trkpt>
      <trkpt lat="47.8094" lon="-3.67147">
        <ele>-4.64</ele>
        <time>2019-07-14T10:55:20Z</time>
      </trkpt>
      <trkpt lat="47.8094" lon="-3.67156">
        <ele>-4.2</ele>
        <time>2019-07-14T10:55:21Z</time>
      </trkpt>
      <trkpt lat="47.8094" lon="-3.67165">
        <ele>-4</ele>
        <time>2019-07-14T10:55:22Z</time>
      </trkpt>
      <trkpt lat="47.8094" lon="-3.67174">
        <ele>-3.94</ele>
        <time>2019-07-14T10:55:23Z</time>
      </trkpt>
      <trkpt lat="47.80939" lon="-3.67183">
        <ele>-3.85</ele>
        <time>2019-07-14T10:55:24Z</time>
      </trkpt>
      <trkpt lat="47.80938" lon="-3.67191">
        <ele>-3.89</ele>
        <time>2019-07-14T10:55:25Z</time>
      </trkpt>
      <trkpt lat="47.80937" lon="-3.67199">
        <ele>-3.84</ele>
        <time>2019-07-14T10:55:26Z</time>
      </trkpt>
      <trkpt lat="47.80937" lon="-3.67207">
        <ele>-4.24</ele>
        <time>2019-07-14T10:55:27Z</time>
      </trkpt>
      <trkpt lat="47.80938" lon="-3.67215">
        <ele>-4.36</ele>
        <time>2019-07-14T10:55:28Z</time>
      </trkpt>
      <trkpt lat="47.80942" lon="-3.6722">
        <ele>-4.4</ele>
        <time>2019-07-14T10:55:29Z</time>
      </trkpt>
      <trkpt lat="47.80946" lon="-3.67222">
        <ele>-4.06</ele>
        <time>2019-07-14T10:55:30Z</time>
      </trkpt>
      <trkpt lat="47.80952" lon="-3.67224">
        <ele>-3.54</ele>
        <time>2019-07-14T10:55:31Z</time>
      </trkpt>
      <trkpt lat="47.80959" lon="-3.67226">
        <ele>-2.96</ele>
        <time>2019-07-14T10:55:32Z</time>
      </trkpt>
      <trkpt lat="47.80964" lon="-3.67228">
        <ele>-2.58</ele>
        <time>2019-07-14T10:55:33Z</time>
      </trkpt>
      <trkpt lat="47.8097" lon="-3.67229">
        <ele>-1.83</ele>
        <time>2019-07-14T10:55:34Z</time>
      </trkpt>
      <trkpt lat="47.80975" lon="-3.6723">
        <ele>-2.24</ele>
        <time>2019-07-14T10:55:35Z</time>
      </trkpt>
      <trkpt lat="47.8098" lon="-3.67232">
        <ele>-3.2</ele>
        <time>2019-07-14T10:55:36Z</time>
      </trkpt>
      <trkpt lat="47.80985" lon="-3.67233">
        <ele>-3.91</ele>
        <time>2019-07-14T10:55:37Z</time>
      </trkpt>
      <trkpt lat="47.8099" lon="-3.67235">
        <ele>-4.05</ele>
        <time>2019-07-14T10:55:38Z</time>
      </trkpt>
      <trkpt lat="47.80996" lon="-3.67237">
        <ele>-3.88</ele>
        <time>2019-07-14T10:55:39Z</time>
      </trkpt>
      <trkpt lat="47.81002" lon="-3.67239">
        <ele>-3.83</ele>
        <time>2019-07-14T10:55:40Z</time>
      </trkpt>
      <trkpt lat="47.81008" lon="-3.67242">
        <ele>-3.68</ele>
        <time>2019-07-14T10:55:41Z</time>
      </trkpt>
      <trkpt lat="47.81014" lon="-3.67244">
        <ele>-3.98</ele>
        <time>2019-07-14T10:55:42Z</time>
      </trkpt>
      <trkpt lat="47.81019" lon="-3.67246">
        <ele>-4.21</ele>
        <time>2019-07-14T10:55:43Z</time>
      </trkpt>
      <trkpt lat="47.81025" lon="-3.67249">
        <ele>-4.28</ele>
        <time>2019-07-14T10:55:44Z</time>
      </trkpt>
      <trkpt lat="47.8103" lon="-3.67251">
        <ele>-3.74</ele>
        <time>2019-07-14T10:55:45Z</time>
      </trkpt>
      <trkpt lat="47.81036" lon="-3.67254">
        <ele>-3.37</ele>
        <time>2019-07-14T10:55:46Z</time>
      </trkpt>
      <trkpt lat="47.81041" lon="-3.67257">
        <ele>-3.26</ele>
        <time>2019-07-14T10:55:47Z</time>
      </trkpt>
      <trkpt lat="47.81047" lon="-3.67259">
        <ele>-3.02</ele>
        <time>2019-07-14T10:55:48Z</time>
      </trkpt>
      <trkpt lat="47.81052" lon="-3.67262">
        <ele>-2.94</ele>
        <time>2019-07-14T10:55:49Z</time>
      </trkpt>
      <trkpt lat="47.81058" lon="-3.67265">
        <ele>-2.92</ele>
        <time>2019-07-14T10:55:50Z</time>
      </trkpt>
      <trkpt lat="47.81063" lon="-3.67268">
        <ele>-2.84</ele>
        <time>2019-07-14T10:55:51Z</time>
      </trkpt>
      <trkpt lat="47.81068" lon="-3.6727">
        <ele>-2.96</ele>
        <time>2019-07-14T10:55:52Z</time>
      </trkpt>
      <trkpt lat="47.81072" lon="-3.67273">
        <ele>-3.14</ele>
        <time>2019-07-14T10:55:53Z</time>
      </trkpt>
      <trkpt lat="47.81077" lon="-3.67275">
        <ele>-3.26</ele>
        <time>2019-07-14T10:55:54Z</time>
      </trkpt>
      <trkpt lat="47.81085" lon="-3.6728">
        <ele>-3.1</ele>
        <time>2019-07-14T10:55:56Z</time>
      </trkpt>
      <trkpt lat="47.81093" lon="-3.67285">
        <ele>-3.57</ele>
        <time>2019-07-14T10:55:58Z</time>
      </trkpt>
      <trkpt lat="47.81096" lon="-3.6729">
        <ele>-3.03</ele>
        <time>2019-07-14T10:56:00Z</time>
      </trkpt>
      <trkpt lat="47.81097" lon="-3.67299">
        <ele>-2.81</ele>
        <time>2019-07-14T10:56:02Z</time>
      </trkpt>
      <trkpt lat="47.81097" lon="-3.67306">
        <ele>-3.23</ele>
        <time>2019-07-14T10:56:03Z</time>
      </trkpt>
      <trkpt lat="47.81097" lon="-3.67314">
        <ele>-3.64</ele>
        <time>2019-07-14T10:56:04Z</time>
      </trkpt>
      <trkpt lat="47.81096" lon="-3.67322">
        <ele>-4.18</ele>
        <time>2019-07-14T10:56:05Z</time>
      </trkpt>
      <trkpt lat="47.81094" lon="-3.67331">
        <ele>-4.83</ele>
        <time>2019-07-14T10:56:06Z</time>
      </trkpt>
      <trkpt lat="47.81092" lon="-3.67339">
        <ele>-4.96</ele>
        <time>2019-07-14T10:56:07Z</time>
      </trkpt>
      <trkpt lat="47.81091" lon="-3.67348">
        <ele>-4.86</ele>
        <time>2019-07-14T10:56:08Z</time>
      </trkpt>
      <trkpt lat="47.81089" lon="-3.67356">
        <ele>-5.11</ele>
        <time>2019-07-14T10:56:09Z</time>
      </trkpt>
      <trkpt lat="47.81087" lon="-3.67364">
        <ele>-5.32</ele>
        <time>2019-07-14T10:56:10Z</time>
      </trkpt>
      <trkpt lat="47.81085" lon="-3.67373">
        <ele>-5.59</ele>
        <time>2019-07-14T10:56:11Z</time>
      </trkpt>
      <trkpt lat="47.81084" lon="-3.67381">
        <ele>-5.96</ele>
        <time>2019-07-14T10:56:12Z</time>
      </trkpt>
      <trkpt lat="47.81086" lon="-3.67392">
        <ele>-6.23</ele>
        <time>2019-07-14T10:56:14Z</time>
      </trkpt>
      <trkpt lat="47.81094" lon="-3.67393">
        <ele>-6.21</ele>
        <time>2019-07-14T10:56:17Z</time>
      </trkpt>
      <trkpt lat="47.81103" lon="-3.67392">
        <ele>-6.05</ele>
        <time>2019-07-14T10:56:19Z</time>
      </trkpt>
      <trkpt lat="47.81108" lon="-3.67391">
        <ele>-5.88</ele>
        <time>2019-07-14T10:56:20Z</time>
      </trkpt>
      <trkpt lat="47.81114" lon="-3.6739">
        <ele>-5.76</ele>
        <time>2019-07-14T10:56:21Z</time>
      </trkpt>
      <trkpt lat="47.8112" lon="-3.67389">
        <ele>-5.66</ele>
        <time>2019-07-14T10:56:22Z</time>
      </trkpt>
      <trkpt lat="47.81126" lon="-3.67387">
        <ele>-5.21</ele>
        <time>2019-07-14T10:56:23Z</time>
      </trkpt>
      <trkpt lat="47.81131" lon="-3.67387">
        <ele>-4.93</ele>
        <time>2019-07-14T10:56:24Z</time>
      </trkpt>
      <trkpt lat="47.81137" lon="-3.67387">
        <ele>-4.78</ele>
        <time>2019-07-14T10:56:25Z</time>
      </trkpt>
      <trkpt lat="47.81142" lon="-3.67389">
        <ele>-4.52</ele>
        <time>2019-07-14T10:56:26Z</time>
      </trkpt>
      <trkpt lat="47.81147" lon="-3.67391">
        <ele>-4.3</ele>
        <time>2019-07-14T10:56:27Z</time>
      </trkpt>
      <trkpt lat="47.81153" lon="-3.67394">
        <ele>-3.96</ele>
        <time>2019-07-14T10:56:28Z</time>
      </trkpt>
      <trkpt lat="47.81157" lon="-3.67398">
        <ele>-3.79</ele>
        <time>2019-07-14T10:56:29Z</time>
      </trkpt>
      <trkpt lat="47.81163" lon="-3.67402">
        <ele>-3.73</ele>
        <time>2019-07-14T10:56:30Z</time>
      </trkpt>
      <trkpt lat="47.81168" lon="-3.67406">
        <ele>-3.86</ele>
        <time>2019-07-14T10:56:31Z</time>
      </trkpt>
      <trkpt lat="47.81174" lon="-3.6741">
        <ele>-3.83</ele>
        <time>2019-07-14T10:56:32Z</time>
      </trkpt>
      <trkpt lat="47.81178" lon="-3.67414">
        <ele>-3.61</ele>
        <time>2019-07-14T10:56:33Z</time>
      </trkpt>
      <trkpt lat="47.81183" lon="-3.67419">
        <ele>-3.82</ele>
        <time>2019-07-14T10:56:34Z</time>
      </trkpt>
      <trkpt lat="47.81187" lon="-3.67424">
        <ele>-4.09</ele>
        <time>2019-07-14T10:56:35Z</time>
      </trkpt>
      <trkpt lat="47.81192" lon="-3.67429">
        <ele>-4.39</ele>
        <time>2019-07-14T10:56:36Z</time>
      </trkpt>
      <trkpt lat="47.81197" lon="-3.67433">
        <ele>-4.54</ele>
        <time>2019-07-14T10:56:37Z</time>
      </trkpt>
      <trkpt lat="47.81203" lon="-3.67438">
        <ele>-4.59</ele>
        <time>2019-07-14T10:56:38Z</time>
      </trkpt>
      <trkpt lat="47.81207" lon="-3.67443">
        <ele>-5.03</ele>
        <time>2019-07-14T10:56:39Z</time>
      </trkpt>
      <trkpt lat="47.81211" lon="-3.67446">
        <ele>-5.3</ele>
        <time>2019-07-14T10:56:40Z</time>
      </trkpt>
      <trkpt lat="47.81215" lon="-3.67451">
        <ele>-5.79</ele>
        <time>2019-07-14T10:56:42Z</time>
      </trkpt>
      <trkpt lat="47.8122" lon="-3.67452">
        <ele>-7.1</ele>
        <time>2019-07-14T10:56:46Z</time>
      </trkpt>
      <trkpt lat="47.81225" lon="-3.67447">
        <ele>-7.48</ele>
        <time>2019-07-14T10:56:48Z</time>
      </trkpt>
      <trkpt lat="47.81229" lon="-3.6744">
        <ele>-7.37</ele>
        <time>2019-07-14T10:56:50Z</time>
      </trkpt>
      <trkpt lat="47.81234" lon="-3.6743">
        <ele>-6.7</ele>
        <time>2019-07-14T10:56:52Z</time>
      </trkpt>
      <trkpt lat="47.81237" lon="-3.67424">
        <ele>-6.5</ele>
        <time>2019-07-14T10:56:53Z</time>
      </trkpt>
      <trkpt lat="47.81241" lon="-3.67419">
        <ele>-6.44</ele>
        <time>2019-07-14T10:56:54Z</time>
      </trkpt>
      <trkpt lat="47.81246" lon="-3.67417">
        <ele>-6.35</ele>
        <time>2019-07-14T10:56:55Z</time>
      </trkpt>
      <trkpt lat="47.81251" lon="-3.67419">
        <ele>-6.18</ele>
        <time>2019-07-14T10:56:56Z</time>
      </trkpt>
      <trkpt lat="47.81257" lon="-3.67423">
        <ele>-5.99</ele>
        <time>2019-07-14T10:56:57Z</time>
      </trkpt>
      <trkpt lat="47.81262" lon="-3.67428">
        <ele>-5.94</ele>
        <time>2019-07-14T10:56:58Z</time>
      </trkpt>
      <trkpt lat="47.81267" lon="-3.67433">
        <ele>-5.85</ele>
        <time>2019-07-14T10:56:59Z</time>
      </trkpt>
      <trkpt lat="47.81272" lon="-3.67439">
        <ele>-5.89</ele>
        <time>2019-07-14T10:57:00Z</time>
      </trkpt>
      <trkpt lat="47.81276" lon="-3.67446">
        <ele>-6.33</ele>
        <time>2019-07-14T10:57:01Z</time>
      </trkpt>
      <trkpt lat="47.81281" lon="-3.67452">
        <ele>-6.81</ele>
        <time>2019-07-14T10:57:02Z</time>
      </trkpt>
      <trkpt lat="47.81286" lon="-3.67458">
        <ele>-7.58</ele>
        <time>2019-07-14T10:57:03Z</time>
      </trkpt>
      <trkpt lat="47.81291" lon="-3.67464">
        <ele>-8.09</ele>
        <time>2019-07-14T10:57:04Z</time>
      </trkpt>
      <trkpt lat="47.81297" lon="-3.67469">
        <ele>-8.53</ele>
        <time>2019-07-14T10:57:05Z</time>
      </trkpt>
      <trkpt lat="47.81302" lon="-3.67475">
        <ele>-8.73</ele>
        <time>2019-07-14T10:57:06Z</time>
      </trkpt>
      <trkpt lat="47.81308" lon="-3.6748">
        <ele>-8.86</ele>
        <time>2019-07-14T10:57:07Z</time>
      </trkpt>
      <trkpt lat="47.81314" lon="-3.67485">
        <ele>-8.97</ele>
        <time>2019-07-14T10:57:08Z</time>
      </trkpt>
      <trkpt lat="47.81321" lon="-3.67488">
        <ele>-9.07</ele>
        <time>2019-07-14T10:57:09Z</time>
      </trkpt>
      <trkpt lat="47.81326" lon="-3.6749">
        <ele>-9.17</ele>
        <time>2019-07-14T10:57:10Z</time>
      </trkpt>
      <trkpt lat="47.81331" lon="-3.6749">
        <ele>-9.34</ele>
        <time>2019-07-14T10:57:11Z</time>
      </trkpt>
      <trkpt lat="47.8134" lon="-3.67486">
        <ele>-10.07</ele>
        <time>2019-07-14T10:57:13Z</time>
      </trkpt>
      <trkpt lat="47.81345" lon="-3.67484">
        <ele>-10.03</ele>
        <time>2019-07-14T10:57:14Z</time>
      </trkpt>
      <trkpt lat="47.8135" lon="-3.67483">
        <ele>-9.88</ele>
        <time>2019-07-14T10:57:15Z</time>
      </trkpt>
      <trkpt lat="47.81355" lon="-3.67482">
        <ele>-9.76</ele>
        <time>2019-07-14T10:57:16Z</time>
      </trkpt>
      <trkpt lat="47.8136" lon="-3.67481">
        <ele>-9.73</ele>
        <time>2019-07-14T10:57:17Z</time>
      </trkpt>
      <trkpt lat="47.81366" lon="-3.6748">
        <ele>-9.65</ele>
        <time>2019-07-14T10:57:18Z</time>
      </trkpt>
      <trkpt lat="47.81372" lon="-3.6748">
        <ele>-9.62</ele>
        <time>2019-07-14T10:57:19Z</time>
      </trkpt>
      <trkpt lat="47.81379" lon="-3.67483">
        <ele>-9.41</ele>
        <time>2019-07-14T10:57:20Z</time>
      </trkpt>
      <trkpt lat="47.81384" lon="-3.67483">
        <ele>-9.34</ele>
        <time>2019-07-14T10:57:21Z</time>
      </trkpt>
      <trkpt lat="47.8139" lon="-3.67482">
        <ele>-9.11</ele>
        <time>2019-07-14T10:57:22Z</time>
      </trkpt>
      <trkpt lat="47.81396" lon="-3.67482">
        <ele>-9.04</ele>
        <time>2019-07-14T10:57:23Z</time>
      </trkpt>
      <trkpt lat="47.81401" lon="-3.6748">
        <ele>-9.16</ele>
        <time>2019-07-14T10:57:24Z</time>
      </trkpt>
      <trkpt lat="47.81407" lon="-3.67474">
        <ele>-9.05</ele>
        <time>2019-07-14T10:57:26Z</time>
      </trkpt>
      <trkpt lat="47.81412" lon="-3.67463">
        <ele>-8.85</ele>
        <time>2019-07-14T10:57:28Z</time>
      </trkpt>
      <trkpt lat="47.81414" lon="-3.67455">
        <ele>-9.03</ele>
        <time>2019-07-14T10:57:29Z</time>
      </trkpt>
      <trkpt lat="47.81416" lon="-3.67447">
        <ele>-9.23</ele>
        <time>2019-07-14T10:57:30Z</time>
      </trkpt>
      <trkpt lat="47.81419" lon="-3.67439">
        <ele>-9.71</ele>
        <time>2019-07-14T10:57:31Z</time>
      </trkpt>
      <trkpt lat="47.81423" lon="-3.67428">
        <ele>-10.48</ele>
        <time>2019-07-14T10:57:32Z</time>
      </trkpt>
      <trkpt lat="47.81426" lon="-3.6742">
        <ele>-10.85</ele>
        <time>2019-07-14T10:57:33Z</time>
      </trkpt>
      <trkpt lat="47.81429" lon="-3.67412">
        <ele>-11.1</ele>
        <time>2019-07-14T10:57:34Z</time>
      </trkpt>
      <trkpt lat="47.81432" lon="-3.67404">
        <ele>-10.97</ele>
        <time>2019-07-14T10:57:35Z</time>
      </trkpt>
      <trkpt lat="47.81437" lon="-3.67397">
        <ele>-10.44</ele>
        <time>2019-07-14T10:57:36Z</time>
      </trkpt>
      <trkpt lat="47.81441" lon="-3.6739">
        <ele>-10.07</ele>
        <time>2019-07-14T10:57:37Z</time>
      </trkpt>
      <trkpt lat="47.81445" lon="-3.67382">
        <ele>-9.61</ele>
        <time>2019-07-14T10:57:38Z</time>
      </trkpt>
      <trkpt lat="47.81449" lon="-3.67375">
        <ele>-9.33</ele>
        <time>2019-07-14T10:57:39Z</time>
      </trkpt>
      <trkpt lat="47.81452" lon="-3.6737">
        <ele>-9.04</ele>
        <time>2019-07-14T10:57:40Z</time>
      </trkpt>
      <trkpt lat="47.81456" lon="-3.67366">
        <ele>-9.02</ele>
        <time>2019-07-14T10:57:41Z</time>
      </trkpt>
      <trkpt lat="47.8146" lon="-3.6736">
        <ele>-9.5</ele>
        <time>2019-07-14T10:57:42Z</time>
      </trkpt>
      <trkpt lat="47.81464" lon="-3.67356">
        <ele>-9.93</ele>
        <time>2019-07-14T10:57:43Z</time>
      </trkpt>
      <trkpt lat="47.81468" lon="-3.67353">
        <ele>-10.69</ele>
        <time>2019-07-14T10:57:44Z</time>
      </trkpt>
      <trkpt lat="47.81473" lon="-3.67349">
        <ele>-11.05</ele>
        <time>2019-07-14T10:57:45Z</time>
      </trkpt>
      <trkpt lat="47.81477" lon="-3.67345">
        <ele>-11.79</ele>
        <time>2019-07-14T10:57:46Z</time>
      </trkpt>
      <trkpt lat="47.81485" lon="-3.67342">
        <ele>-12.22</ele>
        <time>2019-07-14T10:57:48Z</time>
      </trkpt>
      <trkpt lat="47.81489" lon="-3.6735">
        <ele>-11.34</ele>
        <time>2019-07-14T10:57:50Z</time>
      </trkpt>
      <trkpt lat="47.81491" lon="-3.67356">
        <ele>-10.83</ele>
        <time>2019-07-14T10:57:51Z</time>
      </trkpt>
      <trkpt lat="47.81493" lon="-3.67363">
        <ele>-9.98</ele>
        <time>2019-07-14T10:57:52Z</time>
      </trkpt>
      <trkpt lat="47.81494" lon="-3.6737">
        <ele>-9.72</ele>
        <time>2019-07-14T10:57:53Z</time>
      </trkpt>
      <trkpt lat="47.81497" lon="-3.67378">
        <ele>-9.36</ele>
        <time>2019-07-14T10:57:54Z</time>
      </trkpt>
      <trkpt lat="47.81498" lon="-3.67385">
        <ele>-9.12</ele>
        <time>2019-07-14T10:57:55Z</time>
      </trkpt>
      <trkpt lat="47.81501" lon="-3.67393">
        <ele>-8.69</ele>
        <time>2019-07-14T10:57:56Z</time>
      </trkpt>
      <trkpt lat="47.81503" lon="-3.674">
        <ele>-8.43</ele>
        <time>2019-07-14T10:57:57Z</time>
      </trkpt>
      <trkpt lat="47.81505" lon="-3.67407">
        <ele>-8.49</ele>
        <time>2019-07-14T10:57:58Z</time>
      </trkpt>
      <trkpt lat="47.81506" lon="-3.67414">
        <ele>-8.64</ele>
        <time>2019-07-14T10:57:59Z</time>
      </trkpt>
      <trkpt lat="47.81507" lon="-3.67422">
        <ele>-8.55</ele>
        <time>2019-07-14T10:58:00Z</time>
      </trkpt>
      <trkpt lat="47.81508" lon="-3.6743">
        <ele>-8.31</ele>
        <time>2019-07-14T10:58:01Z</time>
      </trkpt>
      <trkpt lat="47.8151" lon="-3.67437">
        <ele>-7.96</ele>
        <time>2019-07-14T10:58:02Z</time>
      </trkpt>
      <trkpt lat="47.81511" lon="-3.67446">
        <ele>-7.58</ele>
        <time>2019-07-14T10:58:03Z</time>
      </trkpt>
      <trkpt lat="47.81513" lon="-3.67454">
        <ele>-7.32</ele>
        <time>2019-07-14T10:58:04Z</time>
      </trkpt>
      <trkpt lat="47.81514" lon="-3.67463">
        <ele>-7.1</ele>
        <time>2019-07-14T10:58:05Z</time>
      </trkpt>
      <trkpt lat="47.81517" lon="-3.67472">
        <ele>-7.46</ele>
        <time>2019-07-14T10:58:06Z</time>
      </trkpt>
      <trkpt lat="47.81519" lon="-3.67481">
        <ele>-7.78</ele>
        <time>2019-07-14T10:58:07Z</time>
      </trkpt>
      <trkpt lat="47.81521" lon="-3.6749">
        <ele>-7.38</ele>
        <time>2019-07-14T10:58:08Z</time>
      </trkpt>
      <trkpt lat="47.81523" lon="-3.675">
        <ele>-7.05</ele>
        <time>2019-07-14T10:58:09Z</time>
      </trkpt>
      <trkpt lat="47.81525" lon="-3.67509">
        <ele>-6.74</ele>
        <time>2019-07-14T10:58:10Z</time>
      </trkpt>
      <trkpt lat="47.81527" lon="-3.67517">
        <ele>-6.65</ele>
        <time>2019-07-14T10:58:11Z</time>
      </trkpt>
      <trkpt lat="47.8153" lon="-3.67526">
        <ele>-6.2</ele>
        <time>2019-07-14T10:58:12Z</time>
      </trkpt>
      <trkpt lat="47.8153" lon="-3.67537">
        <ele>-7.19</ele>
        <time>2019-07-14T10:58:13Z</time>
      </trkpt>
      <trkpt lat="47.81531" lon="-3.67547">
        <ele>-8.05</ele>
        <time>2019-07-14T10:58:14Z</time>
      </trkpt>
      <trkpt lat="47.81533" lon="-3.67557">
        <ele>-8.79</ele>
        <time>2019-07-14T10:58:15Z</time>
      </trkpt>
      <trkpt lat="47.81535" lon="-3.67568">
        <ele>-9.79</ele>
        <time>2019-07-14T10:58:16Z</time>
      </trkpt>
      <trkpt lat="47.81537" lon="-3.67578">
        <ele>-10.85</ele>
        <time>2019-07-14T10:58:17Z</time>
      </trkpt>
      <trkpt lat="47.8154" lon="-3.67587">
        <ele>-11.8</ele>
        <time>2019-07-14T10:58:18Z</time>
      </trkpt>
      <trkpt lat="47.81542" lon="-3.67597">
        <ele>-12.37</ele>
        <time>2019-07-14T10:58:19Z</time>
      </trkpt>
      <trkpt lat="47.81544" lon="-3.67605">
        <ele>-12.61</ele>
        <time>2019-07-14T10:58:20Z</time>
      </trkpt>
      <trkpt lat="47.81546" lon="-3.67614">
        <ele>-12.89</ele>
        <time>2019-07-14T10:58:21Z</time>
      </trkpt>
      <trkpt lat="47.81548" lon="-3.67623">
        <ele>-12.98</ele>
        <time>2019-07-14T10:58:22Z</time>
      </trkpt>
      <trkpt lat="47.81551" lon="-3.67632">
        <ele>-12.65</ele>
        <time>2019-07-14T10:58:23Z</time>
      </trkpt>
      <trkpt lat="47.81553" lon="-3.6764">
        <ele>-12.06</ele>
        <time>2019-07-14T10:58:24Z</time>
      </trkpt>
      <trkpt lat="47.81555" lon="-3.67649">
        <ele>-11.61</ele>
        <time>2019-07-14T10:58:25Z</time>
      </trkpt>
      <trkpt lat="47.81557" lon="-3.67657">
        <ele>-11.12</ele>
        <time>2019-07-14T10:58:26Z</time>
      </trkpt>
      <trkpt lat="47.81558" lon="-3.67666">
        <ele>-10.27</ele>
        <time>2019-07-14T10:58:27Z</time>
      </trkpt>
      <trkpt lat="47.81559" lon="-3.67674">
        <ele>-9.74</ele>
        <time>2019-07-14T10:58:28Z</time>
      </trkpt>
      <trkpt lat="47.81561" lon="-3.67682">
        <ele>-9.16</ele>
        <time>2019-07-14T10:58:29Z</time>
      </trkpt>
      <trkpt lat="47.81563" lon="-3.6769">
        <ele>-8.78</ele>
        <time>2019-07-14T10:58:30Z</time>
      </trkpt>
      <trkpt lat="47.81565" lon="-3.67699">
        <ele>-8.59</ele>
        <time>2019-07-14T10:58:31Z</time>
      </trkpt>
      <trkpt lat="47.81567" lon="-3.67707">
        <ele>-8.33</ele>
        <time>2019-07-14T10:58:32Z</time>
      </trkpt>
      <trkpt lat="47.81569" lon="-3.67715">
        <ele>-8.04</ele>
        <time>2019-07-14T10:58:33Z</time>
      </trkpt>
      <trkpt lat="47.81571" lon="-3.67723">
        <ele>-7.74</ele>
        <time>2019-07-14T10:58:34Z</time>
      </trkpt>
      <trkpt lat="47.81573" lon="-3.67732">
        <ele>-7.3</ele>
        <time>2019-07-14T10:58:35Z</time>
      </trkpt>
      <trkpt lat="47.81575" lon="-3.67739">
        <ele>-7.59</ele>
        <time>2019-07-14T10:58:36Z</time>
      </trkpt>
      <trkpt lat="47.81577" lon="-3.67747">
        <ele>-7.81</ele>
        <time>2019-07-14T10:58:37Z</time>
      </trkpt>
      <trkpt lat="47.81578" lon="-3.67755">
        <ele>-8.23</ele>
        <time>2019-07-14T10:58:38Z</time>
      </trkpt>
      <trkpt lat="47.8158" lon="-3.67764">
        <ele>-8.15</ele>
        <time>2019-07-14T10:58:39Z</time>
      </trkpt>
      <trkpt lat="47.81583" lon="-3.67772">
        <ele>-8.19</ele>
        <time>2019-07-14T10:58:40Z</time>
      </trkpt>
      <trkpt lat="47.81584" lon="-3.67781">
        <ele>-8.28</ele>
        <time>2019-07-14T10:58:41Z</time>
      </trkpt>
      <trkpt lat="47.81586" lon="-3.6779">
        <ele>-8.44</ele>
        <time>2019-07-14T10:58:42Z</time>
      </trkpt>
      <trkpt lat="47.81588" lon="-3.67798">
        <ele>-8.7</ele>
        <time>2019-07-14T10:58:43Z</time>
      </trkpt>
      <trkpt lat="47.8159" lon="-3.67807">
        <ele>-8.78</ele>
        <time>2019-07-14T10:58:44Z</time>
      </trkpt>
      <trkpt lat="47.81592" lon="-3.67815">
        <ele>-8.59</ele>
        <time>2019-07-14T10:58:45Z</time>
      </trkpt>
      <trkpt lat="47.81593" lon="-3.67824">
        <ele>-8.26</ele>
        <time>2019-07-14T10:58:46Z</time>
      </trkpt>
      <trkpt lat="47.81595" lon="-3.67832">
        <ele>-8.23</ele>
        <time>2019-07-14T10:58:47Z</time>
      </trkpt>
      <trkpt lat="47.81596" lon="-3.67841">
        <ele>-8.22</ele>
        <time>2019-07-14T10:58:48Z</time>
      </trkpt>
      <trkpt lat="47.81597" lon="-3.67849">
        <ele>-8.14</ele>
        <time>2019-07-14T10:58:49Z</time>
      </trkpt>
      <trkpt lat="47.816" lon="-3.67857">
        <ele>-8.12</ele>
        <time>2019-07-14T10:58:50Z</time>
      </trkpt>
      <trkpt lat="47.81602" lon="-3.67866">
        <ele>-7.62</ele>
        <time>2019-07-14T10:58:51Z</time>
      </trkpt>
      <trkpt lat="47.81603" lon="-3.67874">
        <ele>-6.92</ele>
        <time>2019-07-14T10:58:52Z</time>
      </trkpt>
      <trkpt lat="47.81605" lon="-3.67882">
        <ele>-6.49</ele>
        <time>2019-07-14T10:58:53Z</time>
      </trkpt>
      <trkpt lat="47.81606" lon="-3.67891">
        <ele>-6.44</ele>
        <time>2019-07-14T10:58:54Z</time>
      </trkpt>
      <trkpt lat="47.81607" lon="-3.679">
        <ele>-6.42</ele>
        <time>2019-07-14T10:58:55Z</time>
      </trkpt>
      <trkpt lat="47.81608" lon="-3.67909">
        <ele>-6.55</ele>
        <time>2019-07-14T10:58:56Z</time>
      </trkpt>
      <trkpt lat="47.8161" lon="-3.67918">
        <ele>-7.08</ele>
        <time>2019-07-14T10:58:57Z</time>
      </trkpt>
      <trkpt lat="47.81613" lon="-3.67927">
        <ele>-8.15</ele>
        <time>2019-07-14T10:58:58Z</time>
      </trkpt>
      <trkpt lat="47.81614" lon="-3.67935">
        <ele>-8.82</ele>
        <time>2019-07-14T10:58:59Z</time>
      </trkpt>
      <trkpt lat="47.81615" lon="-3.67942">
        <ele>-9.31</ele>
        <time>2019-07-14T10:59:00Z</time>
      </trkpt>
      <trkpt lat="47.81615" lon="-3.6795">
        <ele>-9.8</ele>
        <time>2019-07-14T10:59:01Z</time>
      </trkpt>
      <trkpt lat="47.81613" lon="-3.67962">
        <ele>-10.91</ele>
        <time>2019-07-14T10:59:03Z</time>
      </trkpt>
      <trkpt lat="47.81611" lon="-3.67969">
        <ele>-11.33</ele>
        <time>2019-07-14T10:59:04Z</time>
      </trkpt>
      <trkpt lat="47.81609" lon="-3.67976">
        <ele>-12.02</ele>
        <time>2019-07-14T10:59:05Z</time>
      </trkpt>
      <trkpt lat="47.81607" lon="-3.67983">
        <ele>-12.85</ele>
        <time>2019-07-14T10:59:06Z</time>
      </trkpt>
      <trkpt lat="47.81606" lon="-3.6799">
        <ele>-13.38</ele>
        <time>2019-07-14T10:59:07Z</time>
      </trkpt>
      <trkpt lat="47.81604" lon="-3.67997">
        <ele>-13.89</ele>
        <time>2019-07-14T10:59:08Z</time>
      </trkpt>
      <trkpt lat="47.81604" lon="-3.68004">
        <ele>-14.4</ele>
        <time>2019-07-14T10:59:09Z</time>
      </trkpt>
      <trkpt lat="47.81603" lon="-3.68011">
        <ele>-14.83</ele>
        <time>2019-07-14T10:59:10Z</time>
      </trkpt>
      <trkpt lat="47.81603" lon="-3.68022">
        <ele>-15.87</ele>
        <time>2019-07-14T10:59:12Z</time>
      </trkpt>
      <trkpt lat="47.81604" lon="-3.68033">
        <ele>-16.66</ele>
        <time>2019-07-14T10:59:14Z</time>
      </trkpt>
      <trkpt lat="47.81602" lon="-3.68046">
        <ele>-17.42</ele>
        <time>2019-07-14T10:59:16Z</time>
      </trkpt>
      <trkpt lat="47.816" lon="-3.68053">
        <ele>-17.69</ele>
        <time>2019-07-14T10:59:17Z</time>
      </trkpt>
      <trkpt lat="47.816" lon="-3.6806">
        <ele>-17.85</ele>
        <time>2019-07-14T10:59:18Z</time>
      </trkpt>
      <trkpt lat="47.81599" lon="-3.68067">
        <ele>-18.24</ele>
        <time>2019-07-14T10:59:19Z</time>
      </trkpt>
      <trkpt lat="47.816" lon="-3.68074">
        <ele>-18.64</ele>
        <time>2019-07-14T10:59:20Z</time>
      </trkpt>
      <trkpt lat="47.81602" lon="-3.68086">
        <ele>-19.46</ele>
        <time>2019-07-14T10:59:22Z</time>
      </trkpt>
      <trkpt lat="47.81603" lon="-3.681">
        <ele>-20.21</ele>
        <time>2019-07-14T10:59:24Z</time>
      </trkpt>
      <trkpt lat="47.81605" lon="-3.68111">
        <ele>-20.95</ele>
        <time>2019-07-14T10:59:26Z</time>
      </trkpt>
      <trkpt lat="47.81607" lon="-3.68117">
        <ele>-21.13</ele>
        <time>2019-07-14T10:59:27Z</time>
      </trkpt>
      <trkpt lat="47.8161" lon="-3.68125">
        <ele>-21.75</ele>
        <time>2019-07-14T10:59:28Z</time>
      </trkpt>
      <trkpt lat="47.81613" lon="-3.68134">
        <ele>-23.12</ele>
        <time>2019-07-14T10:59:30Z</time>
      </trkpt>
      <trkpt lat="47.81615" lon="-3.68142">
        <ele>-24.42</ele>
        <time>2019-07-14T10:59:32Z</time>
      </trkpt>
      <trkpt lat="47.81616" lon="-3.68151">
        <ele>-25.42</ele>
        <time>2019-07-14T10:59:34Z</time>
      </trkpt>
      <trkpt lat="47.81618" lon="-3.68158">
        <ele>-25.83</ele>
        <time>2019-07-14T10:59:35Z</time>
      </trkpt>
      <trkpt lat="47.8162" lon="-3.68165">
        <ele>-26.38</ele>
        <time>2019-07-14T10:59:36Z</time>
      </trkpt>
      <trkpt lat="47.81623" lon="-3.68172">
        <ele>-26.75</ele>
        <time>2019-07-14T10:59:37Z</time>
      </trkpt>
      <trkpt lat="47.81624" lon="-3.68181">
        <ele>-27</ele>
        <time>2019-07-14T10:59:38Z</time>
      </trkpt>
      <trkpt lat="47.81625" lon="-3.68189">
        <ele>-27.29</ele>
        <time>2019-07-14T10:59:39Z</time>
      </trkpt>
      <trkpt lat="47.81625" lon="-3.68196">
        <ele>-27.66</ele>
        <time>2019-07-14T10:59:40Z</time>
      </trkpt>
      <trkpt lat="47.81624" lon="-3.68204">
        <ele>-28.04</ele>
        <time>2019-07-14T10:59:41Z</time>
      </trkpt>
      <trkpt lat="47.81624" lon="-3.68218">
        <ele>-29.18</ele>
        <time>2019-07-14T10:59:43Z</time>
      </trkpt>
      <trkpt lat="47.81623" lon="-3.68226">
        <ele>-29.83</ele>
        <time>2019-07-14T10:59:44Z</time>
      </trkpt>
      <trkpt lat="47.81624" lon="-3.68233">
        <ele>-30.52</ele>
        <time>2019-07-14T10:59:45Z</time>
      </trkpt>
      <trkpt lat="47.81626" lon="-3.68244">
        <ele>-31.93</ele>
        <time>2019-07-14T10:59:47Z</time>
      </trkpt>
      <trkpt lat="47.81627" lon="-3.68258">
        <ele>-32.93</ele>
        <time>2019-07-14T10:59:49Z</time>
      </trkpt>
      <trkpt lat="47.81627" lon="-3.68265">
        <ele>-33.13</ele>
        <time>2019-07-14T10:59:50Z</time>
      </trkpt>
      <trkpt lat="47.81626" lon="-3.68279">
        <ele>-33.34</ele>
        <time>2019-07-14T10:59:52Z</time>
      </trkpt>
      <trkpt lat="47.81625" lon="-3.68286">
        <ele>-33.18</ele>
        <time>2019-07-14T10:59:53Z</time>
      </trkpt>
      <trkpt lat="47.81622" lon="-3.68297">
        <ele>-33.28</ele>
        <time>2019-07-14T10:59:55Z</time>
      </trkpt>
      <trkpt lat="47.81621" lon="-3.68308">
        <ele>-33.56</ele>
        <time>2019-07-14T10:59:57Z</time>
      </trkpt>
      <trkpt lat="47.81618" lon="-3.68317">
        <ele>-33.54</ele>
        <time>2019-07-14T10:59:59Z</time>
      </trkpt>
      <trkpt lat="47.81616" lon="-3.68323">
        <ele>-33.45</ele>
        <time>2019-07-14T11:00:00Z</time>
      </trkpt>
      <trkpt lat="47.81612" lon="-3.68333">
        <ele>-33.23</ele>
        <time>2019-07-14T11:00:02Z</time>
      </trkpt>
      <trkpt lat="47.8161" lon="-3.68342">
        <ele>-32.82</ele>
        <time>2019-07-14T11:00:04Z</time>
      </trkpt>
      <trkpt lat="47.81608" lon="-3.68351">
        <ele>-32.19</ele>
        <time>2019-07-14T11:00:06Z</time>
      </trkpt>
      <trkpt lat="47.81607" lon="-3.68362">
        <ele>-31.17</ele>
        <time>2019-07-14T11:00:08Z</time>
      </trkpt>
      <trkpt lat="47.81606" lon="-3.68374">
        <ele>-28.94</ele>
        <time>2019-07-14T11:00:10Z</time>
      </trkpt>
      <trkpt lat="47.81604" lon="-3.68386">
        <ele>-27.63</ele>
        <time>2019-07-14T11:00:12Z</time>
      </trkpt>
      <trkpt lat="47.81605" lon="-3.68397">
        <ele>-25.59</ele>
        <time>2019-07-14T11:00:14Z</time>
      </trkpt>
      <trkpt lat="47.81607" lon="-3.68407">
        <ele>-23.99</ele>
        <time>2019-07-14T11:00:16Z</time>
      </trkpt>
      <trkpt lat="47.8161" lon="-3.68415">
        <ele>-22.68</ele>
        <time>2019-07-14T11:00:18Z</time>
      </trkpt>
      <trkpt lat="47.81615" lon="-3.68424">
        <ele>-22.6</ele>
        <time>2019-07-14T11:00:20Z</time>
      </trkpt>
      <trkpt lat="47.81619" lon="-3.68433">
        <ele>-23.23</ele>
        <time>2019-07-14T11:00:22Z</time>
      </trkpt>
      <trkpt lat="47.81623" lon="-3.6844">
        <ele>-23.29</ele>
        <time>2019-07-14T11:00:24Z</time>
      </trkpt>
      <trkpt lat="47.81627" lon="-3.68446">
        <ele>-24.27</ele>
        <time>2019-07-14T11:00:27Z</time>
      </trkpt>
      <trkpt lat="47.81631" lon="-3.68454">
        <ele>-23.91</ele>
        <time>2019-07-14T11:00:30Z</time>
      </trkpt>
      <trkpt lat="47.81636" lon="-3.6846">
        <ele>-24.11</ele>
        <time>2019-07-14T11:00:32Z</time>
      </trkpt>
      <trkpt lat="47.8164" lon="-3.68465">
        <ele>-23.4</ele>
        <time>2019-07-14T11:00:34Z</time>
      </trkpt>
      <trkpt lat="47.81645" lon="-3.68473">
        <ele>-23.77</ele>
        <time>2019-07-14T11:00:36Z</time>
      </trkpt>
      <trkpt lat="47.81648" lon="-3.68482">
        <ele>-24.04</ele>
        <time>2019-07-14T11:00:38Z</time>
      </trkpt>
      <trkpt lat="47.81651" lon="-3.68492">
        <ele>-23.6</ele>
        <time>2019-07-14T11:00:40Z</time>
      </trkpt>
      <trkpt lat="47.81653" lon="-3.68501">
        <ele>-22.05</ele>
        <time>2019-07-14T11:00:42Z</time>
      </trkpt>
      <trkpt lat="47.81653" lon="-3.68508">
        <ele>-21.04</ele>
        <time>2019-07-14T11:00:43Z</time>
      </trkpt>
      <trkpt lat="47.81654" lon="-3.68517">
        <ele>-19.9</ele>
        <time>2019-07-14T11:00:44Z</time>
      </trkpt>
      <trkpt lat="47.81654" lon="-3.68524">
        <ele>-18.93</ele>
        <time>2019-07-14T11:00:45Z</time>
      </trkpt>
      <trkpt lat="47.81654" lon="-3.68531">
        <ele>-18.08</ele>
        <time>2019-07-14T11:00:46Z</time>
      </trkpt>
      <trkpt lat="47.81654" lon="-3.68539">
        <ele>-17.12</ele>
        <time>2019-07-14T11:00:47Z</time>
      </trkpt>
      <trkpt lat="47.81655" lon="-3.68546">
        <ele>-16.06</ele>
        <time>2019-07-14T11:00:48Z</time>
      </trkpt>
      <trkpt lat="47.81655" lon="-3.68553">
        <ele>-14.77</ele>
        <time>2019-07-14T11:00:49Z</time>
      </trkpt>
      <trkpt lat="47.81655" lon="-3.6856">
        <ele>-13.61</ele>
        <time>2019-07-14T11:00:50Z</time>
      </trkpt>
      <trkpt lat="47.81656" lon="-3.6857">
        <ele>-11.72</ele>
        <time>2019-07-14T11:00:51Z</time>
      </trkpt>
      <trkpt lat="47.81656" lon="-3.68582">
        <ele>-10.37</ele>
        <time>2019-07-14T11:00:53Z</time>
      </trkpt>
      <trkpt lat="47.81658" lon="-3.68598">
        <ele>-8.9</ele>
        <time>2019-07-14T11:00:55Z</time>
      </trkpt>
      <trkpt lat="47.81659" lon="-3.68609">
        <ele>-7.97</ele>
        <time>2019-07-14T11:00:57Z</time>
      </trkpt>
      <trkpt lat="47.81659" lon="-3.68621">
        <ele>-7.81</ele>
        <time>2019-07-14T11:00:59Z</time>
      </trkpt>
      <trkpt lat="47.81658" lon="-3.68628">
        <ele>-7.88</ele>
        <time>2019-07-14T11:01:00Z</time>
      </trkpt>
      <trkpt lat="47.81658" lon="-3.68635">
        <ele>-7.97</ele>
        <time>2019-07-14T11:01:01Z</time>
      </trkpt>
      <trkpt lat="47.81656" lon="-3.68643">
        <ele>-8.21</ele>
        <time>2019-07-14T11:01:02Z</time>
      </trkpt>
      <trkpt lat="47.81653" lon="-3.68655">
        <ele>-8.14</ele>
        <time>2019-07-14T11:01:04Z</time>
      </trkpt>
      <trkpt lat="47.81651" lon="-3.68662">
        <ele>-8.05</ele>
        <time>2019-07-14T11:01:05Z</time>
      </trkpt>
      <trkpt lat="47.81648" lon="-3.68675">
        <ele>-8.55</ele>
        <time>2019-07-14T11:01:07Z</time>
      </trkpt>
      <trkpt lat="47.81645" lon="-3.68681">
        <ele>-8.73</ele>
        <time>2019-07-14T11:01:08Z</time>
      </trkpt>
      <trkpt lat="47.81641" lon="-3.68687">
        <ele>-8.79</ele>
        <time>2019-07-14T11:01:09Z</time>
      </trkpt>
      <trkpt lat="47.81638" lon="-3.68693">
        <ele>-8.32</ele>
        <time>2019-07-14T11:01:10Z</time>
      </trkpt>
      <trkpt lat="47.81636" lon="-3.68699">
        <ele>-7.75</ele>
        <time>2019-07-14T11:01:11Z</time>
      </trkpt>
      <trkpt lat="47.81633" lon="-3.68705">
        <ele>-7.44</ele>
        <time>2019-07-14T11:01:12Z</time>
      </trkpt>
      <trkpt lat="47.81631" lon="-3.68711">
        <ele>-7.56</ele>
        <time>2019-07-14T11:01:13Z</time>
      </trkpt>
      <trkpt lat="47.81627" lon="-3.68723">
        <ele>-6.91</ele>
        <time>2019-07-14T11:01:15Z</time>
      </trkpt>
      <trkpt lat="47.81625" lon="-3.68729">
        <ele>-6.21</ele>
        <time>2019-07-14T11:01:16Z</time>
      </trkpt>
      <trkpt lat="47.81623" lon="-3.68737">
        <ele>-5.44</ele>
        <time>2019-07-14T11:01:17Z</time>
      </trkpt>
      <trkpt lat="47.81621" lon="-3.68745">
        <ele>-4.58</ele>
        <time>2019-07-14T11:01:18Z</time>
      </trkpt>
      <trkpt lat="47.81618" lon="-3.68753">
        <ele>-4.25</ele>
        <time>2019-07-14T11:01:19Z</time>
      </trkpt>
      <trkpt lat="47.81615" lon="-3.68763">
        <ele>-4.22</ele>
        <time>2019-07-14T11:01:20Z</time>
      </trkpt>
      <trkpt lat="47.81612" lon="-3.6877">
        <ele>-4.15</ele>
        <time>2019-07-14T11:01:21Z</time>
      </trkpt>
      <trkpt lat="47.81609" lon="-3.68778">
        <ele>-4.47</ele>
        <time>2019-07-14T11:01:22Z</time>
      </trkpt>
      <trkpt lat="47.81607" lon="-3.68786">
        <ele>-4.5</ele>
        <time>2019-07-14T11:01:23Z</time>
      </trkpt>
      <trkpt lat="47.81604" lon="-3.68794">
        <ele>-4.51</ele>
        <time>2019-07-14T11:01:24Z</time>
      </trkpt>
      <trkpt lat="47.81602" lon="-3.68803">
        <ele>-4.3</ele>
        <time>2019-07-14T11:01:25Z</time>
      </trkpt>
      <trkpt lat="47.81602" lon="-3.6881">
        <ele>-4.45</ele>
        <time>2019-07-14T11:01:26Z</time>
      </trkpt>
      <trkpt lat="47.816" lon="-3.68818">
        <ele>-4.98</ele>
        <time>2019-07-14T11:01:27Z</time>
      </trkpt>
      <trkpt lat="47.816" lon="-3.68825">
        <ele>-5.42</ele>
        <time>2019-07-14T11:01:28Z</time>
      </trkpt>
      <trkpt lat="47.81598" lon="-3.68832">
        <ele>-6.26</ele>
        <time>2019-07-14T11:01:29Z</time>
      </trkpt>
      <trkpt lat="47.81596" lon="-3.68844">
        <ele>-7.5</ele>
        <time>2019-07-14T11:01:31Z</time>
      </trkpt>
      <trkpt lat="47.81595" lon="-3.68851">
        <ele>-7.93</ele>
        <time>2019-07-14T11:01:32Z</time>
      </trkpt>
      <trkpt lat="47.81594" lon="-3.68858">
        <ele>-8.34</ele>
        <time>2019-07-14T11:01:33Z</time>
      </trkpt>
      <trkpt lat="47.81593" lon="-3.68865">
        <ele>-8.53</ele>
        <time>2019-07-14T11:01:34Z</time>
      </trkpt>
      <trkpt lat="47.8159" lon="-3.68874">
        <ele>-8.8</ele>
        <time>2019-07-14T11:01:35Z</time>
      </trkpt>
      <trkpt lat="47.81587" lon="-3.68883">
        <ele>-8.74</ele>
        <time>2019-07-14T11:01:36Z</time>
      </trkpt>
      <trkpt lat="47.81584" lon="-3.68891">
        <ele>-8.72</ele>
        <time>2019-07-14T11:01:37Z</time>
      </trkpt>
      <trkpt lat="47.81581" lon="-3.68897">
        <ele>-8.85</ele>
        <time>2019-07-14T11:01:38Z</time>
      </trkpt>
      <trkpt lat="47.8158" lon="-3.68904">
        <ele>-9.1</ele>
        <time>2019-07-14T11:01:39Z</time>
      </trkpt>
      <trkpt lat="47.81578" lon="-3.68913">
        <ele>-9.04</ele>
        <time>2019-07-14T11:01:40Z</time>
      </trkpt>
      <trkpt lat="47.81576" lon="-3.68923">
        <ele>-9.02</ele>
        <time>2019-07-14T11:01:41Z</time>
      </trkpt>
      <trkpt lat="47.81574" lon="-3.68932">
        <ele>-9.29</ele>
        <time>2019-07-14T11:01:42Z</time>
      </trkpt>
      <trkpt lat="47.81571" lon="-3.68941">
        <ele>-10.08</ele>
        <time>2019-07-14T11:01:43Z</time>
      </trkpt>
      <trkpt lat="47.81569" lon="-3.6895">
        <ele>-10.59</ele>
        <time>2019-07-14T11:01:44Z</time>
      </trkpt>
      <trkpt lat="47.81567" lon="-3.68959">
        <ele>-10.89</ele>
        <time>2019-07-14T11:01:45Z</time>
      </trkpt>
      <trkpt lat="47.81565" lon="-3.68969">
        <ele>-11.39</ele>
        <time>2019-07-14T11:01:46Z</time>
      </trkpt>
      <trkpt lat="47.81563" lon="-3.68979">
        <ele>-11.9</ele>
        <time>2019-07-14T11:01:47Z</time>
      </trkpt>
      <trkpt lat="47.8156" lon="-3.68989">
        <ele>-12.26</ele>
        <time>2019-07-14T11:01:48Z</time>
      </trkpt>
      <trkpt lat="47.81559" lon="-3.68998">
        <ele>-12.86</ele>
        <time>2019-07-14T11:01:49Z</time>
      </trkpt>
      <trkpt lat="47.81557" lon="-3.69007">
        <ele>-13.39</ele>
        <time>2019-07-14T11:01:50Z</time>
      </trkpt>
      <trkpt lat="47.81555" lon="-3.69017">
        <ele>-14.31</ele>
        <time>2019-07-14T11:01:51Z</time>
      </trkpt>
      <trkpt lat="47.81554" lon="-3.69026">
        <ele>-14.73</ele>
        <time>2019-07-14T11:01:52Z</time>
      </trkpt>
      <trkpt lat="47.81553" lon="-3.69035">
        <ele>-15.07</ele>
        <time>2019-07-14T11:01:53Z</time>
      </trkpt>
      <trkpt lat="47.81552" lon="-3.69043">
        <ele>-15.17</ele>
        <time>2019-07-14T11:01:54Z</time>
      </trkpt>
      <trkpt lat="47.81551" lon="-3.69051">
        <ele>-15.41</ele>
        <time>2019-07-14T11:01:55Z</time>
      </trkpt>
      <trkpt lat="47.8155" lon="-3.69059">
        <ele>-15.62</ele>
        <time>2019-07-14T11:01:56Z</time>
      </trkpt>
      <trkpt lat="47.81549" lon="-3.69067">
        <ele>-15.89</ele>
        <time>2019-07-14T11:01:57Z</time>
      </trkpt>
      <trkpt lat="47.81548" lon="-3.69074">
        <ele>-15.91</ele>
        <time>2019-07-14T11:01:58Z</time>
      </trkpt>
      <trkpt lat="47.81547" lon="-3.69082">
        <ele>-15.91</ele>
        <time>2019-07-14T11:01:59Z</time>
      </trkpt>
      <trkpt lat="47.81547" lon="-3.6909">
        <ele>-15.7</ele>
        <time>2019-07-14T11:02:00Z</time>
      </trkpt>
      <trkpt lat="47.81547" lon="-3.69098">
        <ele>-15.85</ele>
        <time>2019-07-14T11:02:01Z</time>
      </trkpt>
      <trkpt lat="47.81547" lon="-3.69105">
        <ele>-16.1</ele>
        <time>2019-07-14T11:02:02Z</time>
      </trkpt>
      <trkpt lat="47.81547" lon="-3.69114">
        <ele>-16.88</ele>
        <time>2019-07-14T11:02:03Z</time>
      </trkpt>
      <trkpt lat="47.81545" lon="-3.69121">
        <ele>-17.81</ele>
        <time>2019-07-14T11:02:04Z</time>
      </trkpt>
      <trkpt lat="47.8154" lon="-3.69132">
        <ele>-19.28</ele>
        <time>2019-07-14T11:02:06Z</time>
      </trkpt>
      <trkpt lat="47.81534" lon="-3.69137">
        <ele>-21.23</ele>
        <time>2019-07-14T11:02:09Z</time>
      </trkpt>
      <trkpt lat="47.81528" lon="-3.69137">
        <ele>-21.86</ele>
        <time>2019-07-14T11:02:11Z</time>
      </trkpt>
      <trkpt lat="47.81519" lon="-3.69139">
        <ele>-22.89</ele>
        <time>2019-07-14T11:02:13Z</time>
      </trkpt>
      <trkpt lat="47.81514" lon="-3.6914">
        <ele>-23.4</ele>
        <time>2019-07-14T11:02:14Z</time>
      </trkpt>
      <trkpt lat="47.81509" lon="-3.69141">
        <ele>-23.83</ele>
        <time>2019-07-14T11:02:15Z</time>
      </trkpt>
      <trkpt lat="47.81504" lon="-3.69142">
        <ele>-24.1</ele>
        <time>2019-07-14T11:02:16Z</time>
      </trkpt>
      <trkpt lat="47.81498" lon="-3.69143">
        <ele>-24.04</ele>
        <time>2019-07-14T11:02:17Z</time>
      </trkpt>
      <trkpt lat="47.81492" lon="-3.69144">
        <ele>-24.09</ele>
        <time>2019-07-14T11:02:18Z</time>
      </trkpt>
      <trkpt lat="47.81486" lon="-3.69145">
        <ele>-23.83</ele>
        <time>2019-07-14T11:02:19Z</time>
      </trkpt>
      <trkpt lat="47.8148" lon="-3.69145">
        <ele>-23.19</ele>
        <time>2019-07-14T11:02:20Z</time>
      </trkpt>
      <trkpt lat="47.81474" lon="-3.69145">
        <ele>-22.08</ele>
        <time>2019-07-14T11:02:21Z</time>
      </trkpt>
      <trkpt lat="47.81468" lon="-3.69146">
        <ele>-21.26</ele>
        <time>2019-07-14T11:02:22Z</time>
      </trkpt>
      <trkpt lat="47.81462" lon="-3.69146">
        <ele>-20.32</ele>
        <time>2019-07-14T11:02:23Z</time>
      </trkpt>
      <trkpt lat="47.81457" lon="-3.69147">
        <ele>-19.89</ele>
        <time>2019-07-14T11:02:24Z</time>
      </trkpt>
      <trkpt lat="47.8145" lon="-3.6915">
        <ele>-21.24</ele>
        <time>2019-07-14T11:02:25Z</time>
      </trkpt>
      <trkpt lat="47.81445" lon="-3.6915">
        <ele>-21.64</ele>
        <time>2019-07-14T11:02:26Z</time>
      </trkpt>
      <trkpt lat="47.81439" lon="-3.6915">
        <ele>-21.13</ele>
        <time>2019-07-14T11:02:28Z</time>
      </trkpt>
      <trkpt lat="47.81433" lon="-3.69148">
        <ele>-19.37</ele>
        <time>2019-07-14T11:02:30Z</time>
      </trkpt>
      <trkpt lat="47.81424" lon="-3.69145">
        <ele>-18.95</ele>
        <time>2019-07-14T11:02:32Z</time>
      </trkpt>
      <trkpt lat="47.81419" lon="-3.69143">
        <ele>-18.57</ele>
        <time>2019-07-14T11:02:33Z</time>
      </trkpt>
      <trkpt lat="47.81413" lon="-3.69142">
        <ele>-18.18</ele>
        <time>2019-07-14T11:02:34Z</time>
      </trkpt>
      <trkpt lat="47.81407" lon="-3.6914">
        <ele>-16.87</ele>
        <time>2019-07-14T11:02:35Z</time>
      </trkpt>
      <trkpt lat="47.81401" lon="-3.69139">
        <ele>-16.06</ele>
        <time>2019-07-14T11:02:36Z</time>
      </trkpt>
      <trkpt lat="47.81395" lon="-3.69137">
        <ele>-15.33</ele>
        <time>2019-07-14T11:02:37Z</time>
      </trkpt>
      <trkpt lat="47.8139" lon="-3.69136">
        <ele>-14.83</ele>
        <time>2019-07-14T11:02:38Z</time>
      </trkpt>
      <trkpt lat="47.81384" lon="-3.69135">
        <ele>-14.47</ele>
        <time>2019-07-14T11:02:39Z</time>
      </trkpt>
      <trkpt lat="47.81379" lon="-3.69134">
        <ele>-14.15</ele>
        <time>2019-07-14T11:02:40Z</time>
      </trkpt>
      <trkpt lat="47.81374" lon="-3.69133">
        <ele>-13.77</ele>
        <time>2019-07-14T11:02:41Z</time>
      </trkpt>
      <trkpt lat="47.81369" lon="-3.69131">
        <ele>-13.87</ele>
        <time>2019-07-14T11:02:42Z</time>
      </trkpt>
      <trkpt lat="47.81364" lon="-3.6913">
        <ele>-13.9</ele>
        <time>2019-07-14T11:02:43Z</time>
      </trkpt>
      <trkpt lat="47.81359" lon="-3.69129">
        <ele>-13.91</ele>
        <time>2019-07-14T11:02:44Z</time>
      </trkpt>
      <trkpt lat="47.81354" lon="-3.69129">
        <ele>-13.7</ele>
        <time>2019-07-14T11:02:45Z</time>
      </trkpt>
      <trkpt lat="47.81349" lon="-3.69128">
        <ele>-13.5</ele>
        <time>2019-07-14T11:02:46Z</time>
      </trkpt>
      <trkpt lat="47.81344" lon="-3.69127">
        <ele>-13.23</ele>
        <time>2019-07-14T11:02:47Z</time>
      </trkpt>
      <trkpt lat="47.81339" lon="-3.69126">
        <ele>-13.01</ele>
        <time>2019-07-14T11:02:48Z</time>
      </trkpt>
      <trkpt lat="47.81334" lon="-3.69124">
        <ele>-13.08</ele>
        <time>2019-07-14T11:02:49Z</time>
      </trkpt>
      <trkpt lat="47.81328" lon="-3.69123">
        <ele>-12.68</ele>
        <time>2019-07-14T11:02:50Z</time>
      </trkpt>
      <trkpt lat="47.81323" lon="-3.69123">
        <ele>-12.28</ele>
        <time>2019-07-14T11:02:51Z</time>
      </trkpt>
      <trkpt lat="47.81319" lon="-3.69125">
        <ele>-11.67</ele>
        <time>2019-07-14T11:02:52Z</time>
      </trkpt>
      <trkpt lat="47.81315" lon="-3.69135">
        <ele>-11.2</ele>
        <time>2019-07-14T11:02:54Z</time>
      </trkpt>
      <trkpt lat="47.81314" lon="-3.69142">
        <ele>-11.07</ele>
        <time>2019-07-14T11:02:55Z</time>
      </trkpt>
      <trkpt lat="47.81315" lon="-3.69149">
        <ele>-10.75</ele>
        <time>2019-07-14T11:02:56Z</time>
      </trkpt>
      <trkpt lat="47.81316" lon="-3.69157">
        <ele>-10.44</ele>
        <time>2019-07-14T11:02:57Z</time>
      </trkpt>
      <trkpt lat="47.81317" lon="-3.69164">
        <ele>-10.14</ele>
        <time>2019-07-14T11:02:58Z</time>
      </trkpt>
      <trkpt lat="47.81318" lon="-3.69173">
        <ele>-9.7</ele>
        <time>2019-07-14T11:02:59Z</time>
      </trkpt>
      <trkpt lat="47.81319" lon="-3.6918">
        <ele>-9.01</ele>
        <time>2019-07-14T11:03:00Z</time>
      </trkpt>
      <trkpt lat="47.81319" lon="-3.69189">
        <ele>-8.8</ele>
        <time>2019-07-14T11:03:01Z</time>
      </trkpt>
      <trkpt lat="47.8132" lon="-3.69197">
        <ele>-8.81</ele>
        <time>2019-07-14T11:03:02Z</time>
      </trkpt>
      <trkpt lat="47.8132" lon="-3.69206">
        <ele>-8.81</ele>
        <time>2019-07-14T11:03:03Z</time>
      </trkpt>
      <trkpt lat="47.8132" lon="-3.69214">
        <ele>-8.88</ele>
        <time>2019-07-14T11:03:04Z</time>
      </trkpt>
      <trkpt lat="47.8132" lon="-3.69223">
        <ele>-8.9</ele>
        <time>2019-07-14T11:03:05Z</time>
      </trkpt>
      <trkpt lat="47.8132" lon="-3.69232">
        <ele>-9.12</ele>
        <time>2019-07-14T11:03:06Z</time>
      </trkpt>
      <trkpt lat="47.81319" lon="-3.69241">
        <ele>-9.18</ele>
        <time>2019-07-14T11:03:07Z</time>
      </trkpt>
      <trkpt lat="47.81318" lon="-3.69249">
        <ele>-9.34</ele>
        <time>2019-07-14T11:03:08Z</time>
      </trkpt>
      <trkpt lat="47.81317" lon="-3.69256">
        <ele>-9.39</ele>
        <time>2019-07-14T11:03:09Z</time>
      </trkpt>
      <trkpt lat="47.81311" lon="-3.69265">
        <ele>-10.53</ele>
        <time>2019-07-14T11:03:11Z</time>
      </trkpt>
      <trkpt lat="47.81304" lon="-3.69266">
        <ele>-10.37</ele>
        <time>2019-07-14T11:03:13Z</time>
      </trkpt>
      <trkpt lat="47.81296" lon="-3.69263">
        <ele>-10.25</ele>
        <time>2019-07-14T11:03:15Z</time>
      </trkpt>
      <trkpt lat="47.81291" lon="-3.69262">
        <ele>-10.29</ele>
        <time>2019-07-14T11:03:16Z</time>
      </trkpt>
      <trkpt lat="47.81286" lon="-3.6926">
        <ele>-10.1</ele>
        <time>2019-07-14T11:03:17Z</time>
      </trkpt>
      <trkpt lat="47.8128" lon="-3.69258">
        <ele>-9.9</ele>
        <time>2019-07-14T11:03:18Z</time>
      </trkpt>
      <trkpt lat="47.81274" lon="-3.69257">
        <ele>-9.84</ele>
        <time>2019-07-14T11:03:19Z</time>
      </trkpt>
      <trkpt lat="47.81268" lon="-3.69256">
        <ele>-9.47</ele>
        <time>2019-07-14T11:03:20Z</time>
      </trkpt>
      <trkpt lat="47.81263" lon="-3.69255">
        <ele>-9.29</ele>
        <time>2019-07-14T11:03:21Z</time>
      </trkpt>
      <trkpt lat="47.81257" lon="-3.69254">
        <ele>-8.96</ele>
        <time>2019-07-14T11:03:22Z</time>
      </trkpt>
      <trkpt lat="47.81251" lon="-3.69252">
        <ele>-9.13</ele>
        <time>2019-07-14T11:03:23Z</time>
      </trkpt>
      <trkpt lat="47.81246" lon="-3.69251">
        <ele>-9.54</ele>
        <time>2019-07-14T11:03:24Z</time>
      </trkpt>
      <trkpt lat="47.81239" lon="-3.69249">
        <ele>-9.66</ele>
        <time>2019-07-14T11:03:25Z</time>
      </trkpt>
      <trkpt lat="47.81233" lon="-3.69248">
        <ele>-9.7</ele>
        <time>2019-07-14T11:03:26Z</time>
      </trkpt>
      <trkpt lat="47.81227" lon="-3.69246">
        <ele>-9.71</ele>
        <time>2019-07-14T11:03:27Z</time>
      </trkpt>
      <trkpt lat="47.81221" lon="-3.69245">
        <ele>-10.06</ele>
        <time>2019-07-14T11:03:28Z</time>
      </trkpt>
      <trkpt lat="47.81214" lon="-3.69243">
        <ele>-10.87</ele>
        <time>2019-07-14T11:03:29Z</time>
      </trkpt>
      <trkpt lat="47.81208" lon="-3.69242">
        <ele>-11.53</ele>
        <time>2019-07-14T11:03:30Z</time>
      </trkpt>
      <trkpt lat="47.81202" lon="-3.6924">
        <ele>-11.8</ele>
        <time>2019-07-14T11:03:31Z</time>
      </trkpt>
      <trkpt lat="47.81196" lon="-3.69239">
        <ele>-12.16</ele>
        <time>2019-07-14T11:03:32Z</time>
      </trkpt>
      <trkpt lat="47.81189" lon="-3.69237">
        <ele>-12.55</ele>
        <time>2019-07-14T11:03:33Z</time>
      </trkpt>
      <trkpt lat="47.81183" lon="-3.69236">
        <ele>-13.01</ele>
        <time>2019-07-14T11:03:34Z</time>
      </trkpt>
      <trkpt lat="47.81177" lon="-3.69234">
        <ele>-13.5</ele>
        <time>2019-07-14T11:03:35Z</time>
      </trkpt>
      <trkpt lat="47.81171" lon="-3.69233">
        <ele>-13.93</ele>
        <time>2019-07-14T11:03:36Z</time>
      </trkpt>
      <trkpt lat="47.81166" lon="-3.69231">
        <ele>-14.2</ele>
        <time>2019-07-14T11:03:37Z</time>
      </trkpt>
      <trkpt lat="47.8116" lon="-3.69229">
        <ele>-14.28</ele>
        <time>2019-07-14T11:03:38Z</time>
      </trkpt>
      <trkpt lat="47.81154" lon="-3.69228">
        <ele>-14.23</ele>
        <time>2019-07-14T11:03:39Z</time>
      </trkpt>
      <trkpt lat="47.81148" lon="-3.69226">
        <ele>-14.29</ele>
        <time>2019-07-14T11:03:40Z</time>
      </trkpt>
      <trkpt lat="47.81143" lon="-3.69224">
        <ele>-14.37</ele>
        <time>2019-07-14T11:03:41Z</time>
      </trkpt>
      <trkpt lat="47.81137" lon="-3.69221">
        <ele>-14.61</ele>
        <time>2019-07-14T11:03:42Z</time>
      </trkpt>
      <trkpt lat="47.81131" lon="-3.69218">
        <ele>-14.68</ele>
        <time>2019-07-14T11:03:43Z</time>
      </trkpt>
      <trkpt lat="47.81125" lon="-3.69214">
        <ele>-14.77</ele>
        <time>2019-07-14T11:03:44Z</time>
      </trkpt>
      <trkpt lat="47.81119" lon="-3.69209">
        <ele>-14.8</ele>
        <time>2019-07-14T11:03:45Z</time>
      </trkpt>
      <trkpt lat="47.81114" lon="-3.69205">
        <ele>-14.74</ele>
        <time>2019-07-14T11:03:46Z</time>
      </trkpt>
      <trkpt lat="47.81108" lon="-3.69199">
        <ele>-14.58</ele>
        <time>2019-07-14T11:03:47Z</time>
      </trkpt>
      <trkpt lat="47.81102" lon="-3.69194">
        <ele>-14.46</ele>
        <time>2019-07-14T11:03:48Z</time>
      </trkpt>
      <trkpt lat="47.81097" lon="-3.69189">
        <ele>-14.36</ele>
        <time>2019-07-14T11:03:49Z</time>
      </trkpt>
      <trkpt lat="47.81092" lon="-3.69183">
        <ele>-14.19</ele>
        <time>2019-07-14T11:03:50Z</time>
      </trkpt>
      <trkpt lat="47.81086" lon="-3.69177">
        <ele>-13.71</ele>
        <time>2019-07-14T11:03:51Z</time>
      </trkpt>
      <trkpt lat="47.81081" lon="-3.6917">
        <ele>-13.57</ele>
        <time>2019-07-14T11:03:52Z</time>
      </trkpt>
      <trkpt lat="47.81076" lon="-3.69163">
        <ele>-13.67</ele>
        <time>2019-07-14T11:03:53Z</time>
      </trkpt>
      <trkpt lat="47.81072" lon="-3.69157">
        <ele>-13.42</ele>
        <time>2019-07-14T11:03:54Z</time>
      </trkpt>
      <trkpt lat="47.81067" lon="-3.6915">
        <ele>-13.48</ele>
        <time>2019-07-14T11:03:55Z</time>
      </trkpt>
      <trkpt lat="47.81063" lon="-3.69144">
        <ele>-13.5</ele>
        <time>2019-07-14T11:03:56Z</time>
      </trkpt>
      <trkpt lat="47.81058" lon="-3.69138">
        <ele>-13.51</ele>
        <time>2019-07-14T11:03:57Z</time>
      </trkpt>
      <trkpt lat="47.81053" lon="-3.69132">
        <ele>-13.37</ele>
        <time>2019-07-14T11:03:58Z</time>
      </trkpt>
      <trkpt lat="47.81048" lon="-3.69126">
        <ele>-13.19</ele>
        <time>2019-07-14T11:03:59Z</time>
      </trkpt>
      <trkpt lat="47.81044" lon="-3.69121">
        <ele>-13.35</ele>
        <time>2019-07-14T11:04:00Z</time>
      </trkpt>
      <trkpt lat="47.81038" lon="-3.69116">
        <ele>-13.46</ele>
        <time>2019-07-14T11:04:01Z</time>
      </trkpt>
      <trkpt lat="47.81033" lon="-3.69112">
        <ele>-13.29</ele>
        <time>2019-07-14T11:04:02Z</time>
      </trkpt>
      <trkpt lat="47.81027" lon="-3.6911">
        <ele>-13.16</ele>
        <time>2019-07-14T11:04:03Z</time>
      </trkpt>
      <trkpt lat="47.8102" lon="-3.69108">
        <ele>-13.2</ele>
        <time>2019-07-14T11:04:04Z</time>
      </trkpt>
      <trkpt lat="47.81015" lon="-3.69107">
        <ele>-13.21</ele>
        <time>2019-07-14T11:04:05Z</time>
      </trkpt>
      <trkpt lat="47.81009" lon="-3.69106">
        <ele>-13.7</ele>
        <time>2019-07-14T11:04:06Z</time>
      </trkpt>
      <trkpt lat="47.81003" lon="-3.69107">
        <ele>-14.69</ele>
        <time>2019-07-14T11:04:07Z</time>
      </trkpt>
      <trkpt lat="47.80999" lon="-3.69107">
        <ele>-15.68</ele>
        <time>2019-07-14T11:04:08Z</time>
      </trkpt>
      <trkpt lat="47.80994" lon="-3.69109">
        <ele>-16.4</ele>
        <time>2019-07-14T11:04:09Z</time>
      </trkpt>
      <trkpt lat="47.80989" lon="-3.69112">
        <ele>-16.83</ele>
        <time>2019-07-14T11:04:10Z</time>
      </trkpt>
      <trkpt lat="47.80984" lon="-3.69116">
        <ele>-16.96</ele>
        <time>2019-07-14T11:04:11Z</time>
      </trkpt>
      <trkpt lat="47.8098" lon="-3.69122">
        <ele>-16.79</ele>
        <time>2019-07-14T11:04:12Z</time>
      </trkpt>
      <trkpt lat="47.80976" lon="-3.69127">
        <ele>-16.66</ele>
        <time>2019-07-14T11:04:13Z</time>
      </trkpt>
      <trkpt lat="47.80973" lon="-3.69133">
        <ele>-16.56</ele>
        <time>2019-07-14T11:04:14Z</time>
      </trkpt>
      <trkpt lat="47.80971" lon="-3.69139">
        <ele>-16.46</ele>
        <time>2019-07-14T11:04:15Z</time>
      </trkpt>
      <trkpt lat="47.80968" lon="-3.69144">
        <ele>-16.36</ele>
        <time>2019-07-14T11:04:16Z</time>
      </trkpt>
      <trkpt lat="47.80964" lon="-3.69147">
        <ele>-16.11</ele>
        <time>2019-07-14T11:04:17Z</time>
      </trkpt>
      <trkpt lat="47.80955" lon="-3.69147">
        <ele>-15.4</ele>
        <time>2019-07-14T11:04:19Z</time>
      </trkpt>
      <trkpt lat="47.8095" lon="-3.69145">
        <ele>-15.13</ele>
        <time>2019-07-14T11:04:20Z</time>
      </trkpt>
      <trkpt lat="47.80946" lon="-3.69143">
        <ele>-15.12</ele>
        <time>2019-07-14T11:04:21Z</time>
      </trkpt>
      <trkpt lat="47.8094" lon="-3.69142">
        <ele>-14.2</ele>
        <time>2019-07-14T11:04:22Z</time>
      </trkpt>
      <trkpt lat="47.80931" lon="-3.6914">
        <ele>-13.43</ele>
        <time>2019-07-14T11:04:24Z</time>
      </trkpt>
      <trkpt lat="47.80927" lon="-3.69141">
        <ele>-13.28</ele>
        <time>2019-07-14T11:04:25Z</time>
      </trkpt>
      <trkpt lat="47.80921" lon="-3.69141">
        <ele>-13.16</ele>
        <time>2019-07-14T11:04:26Z</time>
      </trkpt>
      <trkpt lat="47.80915" lon="-3.69143">
        <ele>-13.34</ele>
        <time>2019-07-14T11:04:27Z</time>
      </trkpt>
      <trkpt lat="47.80909" lon="-3.69144">
        <ele>-13.39</ele>
        <time>2019-07-14T11:04:28Z</time>
      </trkpt>
      <trkpt lat="47.80902" lon="-3.69144">
        <ele>-13.55</ele>
        <time>2019-07-14T11:04:29Z</time>
      </trkpt>
      <trkpt lat="47.80896" lon="-3.69143">
        <ele>-13.73</ele>
        <time>2019-07-14T11:04:30Z</time>
      </trkpt>
      <trkpt lat="47.80889" lon="-3.69141">
        <ele>-13.79</ele>
        <time>2019-07-14T11:04:31Z</time>
      </trkpt>
      <trkpt lat="47.80881" lon="-3.69143">
        <ele>-13.94</ele>
        <time>2019-07-14T11:04:32Z</time>
      </trkpt>
      <trkpt lat="47.80874" lon="-3.69144">
        <ele>-14.06</ele>
        <time>2019-07-14T11:04:33Z</time>
      </trkpt>
      <trkpt lat="47.80867" lon="-3.69144">
        <ele>-14.17</ele>
        <time>2019-07-14T11:04:34Z</time>
      </trkpt>
      <trkpt lat="47.80859" lon="-3.69145">
        <ele>-14.62</ele>
        <time>2019-07-14T11:04:35Z</time>
      </trkpt>
      <trkpt lat="47.80851" lon="-3.69143">
        <ele>-15.03</ele>
        <time>2019-07-14T11:04:36Z</time>
      </trkpt>
      <trkpt lat="47.80843" lon="-3.6914">
        <ele>-15.16</ele>
        <time>2019-07-14T11:04:37Z</time>
      </trkpt>
      <trkpt lat="47.80835" lon="-3.69137">
        <ele>-15.27</ele>
        <time>2019-07-14T11:04:38Z</time>
      </trkpt>
      <trkpt lat="47.80828" lon="-3.69134">
        <ele>-15.23</ele>
        <time>2019-07-14T11:04:39Z</time>
      </trkpt>
      <trkpt lat="47.80823" lon="-3.69126">
        <ele>-15.5</ele>
        <time>2019-07-14T11:04:40Z</time>
      </trkpt>
      <trkpt lat="47.80817" lon="-3.69116">
        <ele>-16.14</ele>
        <time>2019-07-14T11:04:41Z</time>
      </trkpt>
      <trkpt lat="47.80813" lon="-3.69106">
        <ele>-16.68</ele>
        <time>2019-07-14T11:04:42Z</time>
      </trkpt>
      <trkpt lat="47.80809" lon="-3.69099">
        <ele>-17.05</ele>
        <time>2019-07-14T11:04:43Z</time>
      </trkpt>
      <trkpt lat="47.80803" lon="-3.69095">
        <ele>-17.58</ele>
        <time>2019-07-14T11:04:44Z</time>
      </trkpt>
      <trkpt lat="47.80798" lon="-3.69095">
        <ele>-17.88</ele>
        <time>2019-07-14T11:04:45Z</time>
      </trkpt>
      <trkpt lat="47.80794" lon="-3.69097">
        <ele>-18.11</ele>
        <time>2019-07-14T11:04:46Z</time>
      </trkpt>
      <trkpt lat="47.80786" lon="-3.69103">
        <ele>-18.97</ele>
        <time>2019-07-14T11:04:48Z</time>
      </trkpt>
      <trkpt lat="47.80784" lon="-3.69113">
        <ele>-20.11</ele>
        <time>2019-07-14T11:04:50Z</time>
      </trkpt>
      <trkpt lat="47.80783" lon="-3.69124">
        <ele>-20.45</ele>
        <time>2019-07-14T11:04:52Z</time>
      </trkpt>
      <trkpt lat="47.80783" lon="-3.69133">
        <ele>-20.94</ele>
        <time>2019-07-14T11:04:55Z</time>
      </trkpt>
      <trkpt lat="47.80784" lon="-3.6914">
        <ele>-21.78</ele>
        <time>2019-07-14T11:04:58Z</time>
      </trkpt>
      <trkpt lat="47.80784" lon="-3.69151">
        <ele>-22.13</ele>
        <time>2019-07-14T11:05:00Z</time>
      </trkpt>
      <trkpt lat="47.80785" lon="-3.69158">
        <ele>-22.26</ele>
        <time>2019-07-14T11:05:01Z</time>
      </trkpt>
      <trkpt lat="47.80785" lon="-3.69167">
        <ele>-22.37</ele>
        <time>2019-07-14T11:05:02Z</time>
      </trkpt>
      <trkpt lat="47.80786" lon="-3.69176">
        <ele>-22.54</ele>
        <time>2019-07-14T11:05:03Z</time>
      </trkpt>
      <trkpt lat="47.80786" lon="-3.69184">
        <ele>-22.73</ele>
        <time>2019-07-14T11:05:04Z</time>
      </trkpt>
      <trkpt lat="47.80784" lon="-3.69195">
        <ele>-22.97</ele>
        <time>2019-07-14T11:05:06Z</time>
      </trkpt>
      <trkpt lat="47.80779" lon="-3.69197">
        <ele>-23.26</ele>
        <time>2019-07-14T11:05:08Z</time>
      </trkpt>
      <trkpt lat="47.80773" lon="-3.69201">
        <ele>-23.74</ele>
        <time>2019-07-14T11:05:11Z</time>
      </trkpt>
      <trkpt lat="47.80769" lon="-3.69208">
        <ele>-24.07</ele>
        <time>2019-07-14T11:05:14Z</time>
      </trkpt>
      <trkpt lat="47.80768" lon="-3.69217">
        <ele>-24.43</ele>
        <time>2019-07-14T11:05:16Z</time>
      </trkpt>
      <trkpt lat="47.80763" lon="-3.69226">
        <ele>-24.99</ele>
        <time>2019-07-14T11:05:18Z</time>
      </trkpt>
      <trkpt lat="47.80761" lon="-3.69236">
        <ele>-25.49</ele>
        <time>2019-07-14T11:05:20Z</time>
      </trkpt>
      <trkpt lat="47.80758" lon="-3.69244">
        <ele>-26.01</ele>
        <time>2019-07-14T11:05:22Z</time>
      </trkpt>
      <trkpt lat="47.80753" lon="-3.6925">
        <ele>-26.79</ele>
        <time>2019-07-14T11:05:25Z</time>
      </trkpt>
      <trkpt lat="47.80749" lon="-3.69255">
        <ele>-27.22</ele>
        <time>2019-07-14T11:05:27Z</time>
      </trkpt>
      <trkpt lat="47.80744" lon="-3.69263">
        <ele>-27.72</ele>
        <time>2019-07-14T11:05:29Z</time>
      </trkpt>
      <trkpt lat="47.80743" lon="-3.6927">
        <ele>-28.2</ele>
        <time>2019-07-14T11:05:31Z</time>
      </trkpt>
      <trkpt lat="47.80741" lon="-3.69279">
        <ele>-28.62</ele>
        <time>2019-07-14T11:05:33Z</time>
      </trkpt>
      <trkpt lat="47.80741" lon="-3.69288">
        <ele>-29.17</ele>
        <time>2019-07-14T11:05:35Z</time>
      </trkpt>
      <trkpt lat="47.80744" lon="-3.69297">
        <ele>-30.47</ele>
        <time>2019-07-14T11:05:38Z</time>
      </trkpt>
      <trkpt lat="47.80749" lon="-3.69305">
        <ele>-31.49</ele>
        <time>2019-07-14T11:05:40Z</time>
      </trkpt>
      <trkpt lat="47.80753" lon="-3.69312">
        <ele>-31.94</ele>
        <time>2019-07-14T11:05:42Z</time>
      </trkpt>
      <trkpt lat="47.80756" lon="-3.6932">
        <ele>-32.19</ele>
        <time>2019-07-14T11:05:44Z</time>
      </trkpt>
      <trkpt lat="47.80759" lon="-3.69327">
        <ele>-32.37</ele>
        <time>2019-07-14T11:05:46Z</time>
      </trkpt>
      <trkpt lat="47.80759" lon="-3.69337">
        <ele>-32.22</ele>
        <time>2019-07-14T11:05:48Z</time>
      </trkpt>
      <trkpt lat="47.8076" lon="-3.69346">
        <ele>-32.1</ele>
        <time>2019-07-14T11:05:50Z</time>
      </trkpt>
      <trkpt lat="47.80761" lon="-3.69357">
        <ele>-32.22</ele>
        <time>2019-07-14T11:05:52Z</time>
      </trkpt>
      <trkpt lat="47.80763" lon="-3.6937">
        <ele>-32.18</ele>
        <time>2019-07-14T11:05:54Z</time>
      </trkpt>
      <trkpt lat="47.80765" lon="-3.69377">
        <ele>-31.85</ele>
        <time>2019-07-14T11:05:55Z</time>
      </trkpt>
      <trkpt lat="47.80766" lon="-3.69388">
        <ele>-31.59</ele>
        <time>2019-07-14T11:05:57Z</time>
      </trkpt>
      <trkpt lat="47.80766" lon="-3.69398">
        <ele>-31.61</ele>
        <time>2019-07-14T11:05:59Z</time>
      </trkpt>
      <trkpt lat="47.80767" lon="-3.69408">
        <ele>-32.35</ele>
        <time>2019-07-14T11:06:01Z</time>
      </trkpt>
      <trkpt lat="47.8077" lon="-3.69422">
        <ele>-32.1</ele>
        <time>2019-07-14T11:06:03Z</time>
      </trkpt>
      <trkpt lat="47.80773" lon="-3.69428">
        <ele>-32.18</ele>
        <time>2019-07-14T11:06:04Z</time>
      </trkpt>
      <trkpt lat="47.80776" lon="-3.69437">
        <ele>-31.66</ele>
        <time>2019-07-14T11:06:06Z</time>
      </trkpt>
      <trkpt lat="47.80778" lon="-3.69445">
        <ele>-29.74</ele>
        <time>2019-07-14T11:06:07Z</time>
      </trkpt>
      <trkpt lat="47.8078" lon="-3.69451">
        <ele>-28.6</ele>
        <time>2019-07-14T11:06:08Z</time>
      </trkpt>
      <trkpt lat="47.80783" lon="-3.69461">
        <ele>-28.06</ele>
        <time>2019-07-14T11:06:10Z</time>
      </trkpt>
      <trkpt lat="47.80784" lon="-3.69469">
        <ele>-27.93</ele>
        <time>2019-07-14T11:06:12Z</time>
      </trkpt>
      <trkpt lat="47.80783" lon="-3.69477">
        <ele>-28.28</ele>
        <time>2019-07-14T11:06:14Z</time>
      </trkpt>
      <trkpt lat="47.80782" lon="-3.69485">
        <ele>-27.83</ele>
        <time>2019-07-14T11:06:16Z</time>
      </trkpt>
      <trkpt lat="47.8078" lon="-3.69494">
        <ele>-27.01</ele>
        <time>2019-07-14T11:06:18Z</time>
      </trkpt>
      <trkpt lat="47.8078" lon="-3.69501">
        <ele>-25.79</ele>
        <time>2019-07-14T11:06:20Z</time>
      </trkpt>
      <trkpt lat="47.8078" lon="-3.69508">
        <ele>-24.81</ele>
        <time>2019-07-14T11:06:22Z</time>
      </trkpt>
      <trkpt lat="47.80779" lon="-3.69519">
        <ele>-25.36</ele>
        <time>2019-07-14T11:06:24Z</time>
      </trkpt>
      <trkpt lat="47.80779" lon="-3.69531">
        <ele>-25.61</ele>
        <time>2019-07-14T11:06:26Z</time>
      </trkpt>
      <trkpt lat="47.80778" lon="-3.69541">
        <ele>-24.96</ele>
        <time>2019-07-14T11:06:28Z</time>
      </trkpt>
      <trkpt lat="47.80776" lon="-3.69551">
        <ele>-24.51</ele>
        <time>2019-07-14T11:06:30Z</time>
      </trkpt>
      <trkpt lat="47.80774" lon="-3.69561">
        <ele>-24.89</ele>
        <time>2019-07-14T11:06:32Z</time>
      </trkpt>
      <trkpt lat="47.80771" lon="-3.69569">
        <ele>-24.95</ele>
        <time>2019-07-14T11:06:34Z</time>
      </trkpt>
      <trkpt lat="47.80766" lon="-3.69577">
        <ele>-25.74</ele>
        <time>2019-07-14T11:06:36Z</time>
      </trkpt>
      <trkpt lat="47.80761" lon="-3.69583">
        <ele>-26.75</ele>
        <time>2019-07-14T11:06:38Z</time>
      </trkpt>
      <trkpt lat="47.80757" lon="-3.69591">
        <ele>-28.02</ele>
        <time>2019-07-14T11:06:40Z</time>
      </trkpt>
      <trkpt lat="47.80753" lon="-3.69598">
        <ele>-28.1</ele>
        <time>2019-07-14T11:06:42Z</time>
      </trkpt>
      <trkpt lat="47.80748" lon="-3.69604">
        <ele>-27.4</ele>
        <time>2019-07-14T11:06:44Z</time>
      </trkpt>
      <trkpt lat="47.80742" lon="-3.69609">
        <ele>-26.58</ele>
        <time>2019-07-14T11:06:46Z</time>
      </trkpt>
      <trkpt lat="47.80735" lon="-3.69614">
        <ele>-25.72</ele>
        <time>2019-07-14T11:06:48Z</time>
      </trkpt>
      <trkpt lat="47.80727" lon="-3.69619">
        <ele>-24.19</ele>
        <time>2019-07-14T11:06:50Z</time>
      </trkpt>
      <trkpt lat="47.80722" lon="-3.69622">
        <ele>-23.79</ele>
        <time>2019-07-14T11:06:51Z</time>
      </trkpt>
      <trkpt lat="47.80714" lon="-3.69627">
        <ele>-22.57</ele>
        <time>2019-07-14T11:06:53Z</time>
      </trkpt>
      <trkpt lat="47.80708" lon="-3.69631">
        <ele>-21.28</ele>
        <time>2019-07-14T11:06:55Z</time>
      </trkpt>
      <trkpt lat="47.807" lon="-3.69634">
        <ele>-20.57</ele>
        <time>2019-07-14T11:06:57Z</time>
      </trkpt>
      <trkpt lat="47.80695" lon="-3.69637">
        <ele>-20.88</ele>
        <time>2019-07-14T11:06:58Z</time>
      </trkpt>
      <trkpt lat="47.8069" lon="-3.69639">
        <ele>-21.39</ele>
        <time>2019-07-14T11:06:59Z</time>
      </trkpt>
      <trkpt lat="47.80685" lon="-3.6964">
        <ele>-22.04</ele>
        <time>2019-07-14T11:07:00Z</time>
      </trkpt>
      <trkpt lat="47.80678" lon="-3.69641">
        <ele>-22.42</ele>
        <time>2019-07-14T11:07:02Z</time>
      </trkpt>
      <trkpt lat="47.80672" lon="-3.69644">
        <ele>-21.45</ele>
        <time>2019-07-14T11:07:04Z</time>
      </trkpt>
      <trkpt lat="47.80665" lon="-3.69651">
        <ele>-19.71</ele>
        <time>2019-07-14T11:07:06Z</time>
      </trkpt>
      <trkpt lat="47.80659" lon="-3.69658">
        <ele>-19.08</ele>
        <time>2019-07-14T11:07:08Z</time>
      </trkpt>
      <trkpt lat="47.80652" lon="-3.69666">
        <ele>-17.21</ele>
        <time>2019-07-14T11:07:10Z</time>
      </trkpt>
      <trkpt lat="47.80645" lon="-3.69668">
        <ele>-15.71</ele>
        <time>2019-07-14T11:07:12Z</time>
      </trkpt>
      <trkpt lat="47.8064" lon="-3.69665">
        <ele>-15.62</ele>
        <time>2019-07-14T11:07:14Z</time>
      </trkpt>
      <trkpt lat="47.80635" lon="-3.69659">
        <ele>-15.15</ele>
        <time>2019-07-14T11:07:16Z</time>
      </trkpt>
      <trkpt lat="47.8063" lon="-3.6965">
        <ele>-15.02</ele>
        <time>2019-07-14T11:07:18Z</time>
      </trkpt>
      <trkpt lat="47.80624" lon="-3.69639">
        <ele>-15.06</ele>
        <time>2019-07-14T11:07:20Z</time>
      </trkpt>
      <trkpt lat="47.80621" lon="-3.69634">
        <ele>-14.88</ele>
        <time>2019-07-14T11:07:21Z</time>
      </trkpt>
      <trkpt lat="47.80617" lon="-3.69629">
        <ele>-14.76</ele>
        <time>2019-07-14T11:07:22Z</time>
      </trkpt>
      <trkpt lat="47.80614" lon="-3.69624">
        <ele>-15.01</ele>
        <time>2019-07-14T11:07:23Z</time>
      </trkpt>
      <trkpt lat="47.80608" lon="-3.69615">
        <ele>-15.54</ele>
        <time>2019-07-14T11:07:25Z</time>
      </trkpt>
      <trkpt lat="47.806" lon="-3.69613">
        <ele>-15.98</ele>
        <time>2019-07-14T11:07:27Z</time>
      </trkpt>
      <trkpt lat="47.80596" lon="-3.69622">
        <ele>-16.27</ele>
        <time>2019-07-14T11:07:29Z</time>
      </trkpt>
      <trkpt lat="47.80595" lon="-3.69629">
        <ele>-16.09</ele>
        <time>2019-07-14T11:07:30Z</time>
      </trkpt>
      <trkpt lat="47.80594" lon="-3.69635">
        <ele>-16.11</ele>
        <time>2019-07-14T11:07:31Z</time>
      </trkpt>
      <trkpt lat="47.80592" lon="-3.69642">
        <ele>-16.18</ele>
        <time>2019-07-14T11:07:32Z</time>
      </trkpt>
      <trkpt lat="47.8059" lon="-3.69649">
        <ele>-16.41</ele>
        <time>2019-07-14T11:07:33Z</time>
      </trkpt>
      <trkpt lat="47.80588" lon="-3.69655">
        <ele>-16.62</ele>
        <time>2019-07-14T11:07:34Z</time>
      </trkpt>
      <trkpt lat="47.80586" lon="-3.69662">
        <ele>-17.11</ele>
        <time>2019-07-14T11:07:35Z</time>
      </trkpt>
      <trkpt lat="47.80584" lon="-3.69669">
        <ele>-16.83</ele>
        <time>2019-07-14T11:07:36Z</time>
      </trkpt>
      <trkpt lat="47.80581" lon="-3.69677">
        <ele>-16.75</ele>
        <time>2019-07-14T11:07:37Z</time>
      </trkpt>
      <trkpt lat="47.80579" lon="-3.69684">
        <ele>-16.79</ele>
        <time>2019-07-14T11:07:38Z</time>
      </trkpt>
      <trkpt lat="47.80577" lon="-3.69691">
        <ele>-16.81</ele>
        <time>2019-07-14T11:07:39Z</time>
      </trkpt>
      <trkpt lat="47.80575" lon="-3.69699">
        <ele>-16.81</ele>
        <time>2019-07-14T11:07:40Z</time>
      </trkpt>
      <trkpt lat="47.80573" lon="-3.69707">
        <ele>-16.81</ele>
        <time>2019-07-14T11:07:41Z</time>
      </trkpt>
      <trkpt lat="47.80572" lon="-3.69715">
        <ele>-16.46</ele>
        <time>2019-07-14T11:07:42Z</time>
      </trkpt>
      <trkpt lat="47.8057" lon="-3.69724">
        <ele>-16.01</ele>
        <time>2019-07-14T11:07:43Z</time>
      </trkpt>
      <trkpt lat="47.80569" lon="-3.69732">
        <ele>-14.82</ele>
        <time>2019-07-14T11:07:44Z</time>
      </trkpt>
      <trkpt lat="47.80568" lon="-3.69742">
        <ele>-13.76</ele>
        <time>2019-07-14T11:07:45Z</time>
      </trkpt>
      <trkpt lat="47.80568" lon="-3.69751">
        <ele>-12.82</ele>
        <time>2019-07-14T11:07:46Z</time>
      </trkpt>
      <trkpt lat="47.80567" lon="-3.6976">
        <ele>-12.11</ele>
        <time>2019-07-14T11:07:47Z</time>
      </trkpt>
      <trkpt lat="47.80566" lon="-3.6977">
        <ele>-11.62</ele>
        <time>2019-07-14T11:07:48Z</time>
      </trkpt>
      <trkpt lat="47.80564" lon="-3.69779">
        <ele>-11.97</ele>
        <time>2019-07-14T11:07:49Z</time>
      </trkpt>
      <trkpt lat="47.80562" lon="-3.69788">
        <ele>-12.14</ele>
        <time>2019-07-14T11:07:50Z</time>
      </trkpt>
      <trkpt lat="47.8056" lon="-3.69797">
        <ele>-12.05</ele>
        <time>2019-07-14T11:07:51Z</time>
      </trkpt>
      <trkpt lat="47.80558" lon="-3.69807">
        <ele>-11.88</ele>
        <time>2019-07-14T11:07:52Z</time>
      </trkpt>
      <trkpt lat="47.80556" lon="-3.69815">
        <ele>-12.18</ele>
        <time>2019-07-14T11:07:53Z</time>
      </trkpt>
      <trkpt lat="47.80555" lon="-3.69824">
        <ele>-12.2</ele>
        <time>2019-07-14T11:07:54Z</time>
      </trkpt>
      <trkpt lat="47.80554" lon="-3.69832">
        <ele>-12.56</ele>
        <time>2019-07-14T11:07:55Z</time>
      </trkpt>
      <trkpt lat="47.80553" lon="-3.69839">
        <ele>-13.37</ele>
        <time>2019-07-14T11:07:56Z</time>
      </trkpt>
      <trkpt lat="47.80548" lon="-3.69845">
        <ele>-14.22</ele>
        <time>2019-07-14T11:07:58Z</time>
      </trkpt>
      <trkpt lat="47.80539" lon="-3.69847">
        <ele>-15.47</ele>
        <time>2019-07-14T11:08:00Z</time>
      </trkpt>
      <trkpt lat="47.80534" lon="-3.69849">
        <ele>-16.2</ele>
        <time>2019-07-14T11:08:01Z</time>
      </trkpt>
      <trkpt lat="47.80529" lon="-3.69851">
        <ele>-16.49</ele>
        <time>2019-07-14T11:08:02Z</time>
      </trkpt>
      <trkpt lat="47.80525" lon="-3.69855">
        <ele>-16.22</ele>
        <time>2019-07-14T11:08:03Z</time>
      </trkpt>
      <trkpt lat="47.8052" lon="-3.69858">
        <ele>-15.87</ele>
        <time>2019-07-14T11:08:04Z</time>
      </trkpt>
      <trkpt lat="47.80516" lon="-3.6986">
        <ele>-16.11</ele>
        <time>2019-07-14T11:08:05Z</time>
      </trkpt>
      <trkpt lat="47.8051" lon="-3.69866">
        <ele>-16.45</ele>
        <time>2019-07-14T11:08:07Z</time>
      </trkpt>
      <trkpt lat="47.80514" lon="-3.69858">
        <ele>-15.95</ele>
        <time>2019-07-14T11:08:29Z</time>
      </trkpt>
      <trkpt lat="47.80521" lon="-3.69852">
        <ele>-15.78</ele>
        <time>2019-07-14T11:08:31Z</time>
      </trkpt>
      <trkpt lat="47.80528" lon="-3.69847">
        <ele>-15.35</ele>
        <time>2019-07-14T11:08:33Z</time>
      </trkpt>
      <trkpt lat="47.80535" lon="-3.69842">
        <ele>-14.56</ele>
        <time>2019-07-14T11:08:35Z</time>
      </trkpt>
      <trkpt lat="47.80543" lon="-3.69838">
        <ele>-13.28</ele>
        <time>2019-07-14T11:08:37Z</time>
      </trkpt>
      <trkpt lat="47.8055" lon="-3.69832">
        <ele>-12.51</ele>
        <time>2019-07-14T11:08:39Z</time>
      </trkpt>
      <trkpt lat="47.80554" lon="-3.69826">
        <ele>-12.37</ele>
        <time>2019-07-14T11:08:40Z</time>
      </trkpt>
      <trkpt lat="47.80556" lon="-3.6982">
        <ele>-12.19</ele>
        <time>2019-07-14T11:08:41Z</time>
      </trkpt>
      <trkpt lat="47.8056" lon="-3.69808">
        <ele>-12.17</ele>
        <time>2019-07-14T11:08:43Z</time>
      </trkpt>
      <trkpt lat="47.8056" lon="-3.69798">
        <ele>-13.03</ele>
        <time>2019-07-14T11:08:45Z</time>
      </trkpt>
      <trkpt lat="47.80555" lon="-3.6979">
        <ele>-13.46</ele>
        <time>2019-07-14T11:08:47Z</time>
      </trkpt>
      <trkpt lat="47.80547" lon="-3.69788">
        <ele>-15.12</ele>
        <time>2019-07-14T11:08:49Z</time>
      </trkpt>
      <trkpt lat="47.80538" lon="-3.69784">
        <ele>-16.34</ele>
        <time>2019-07-14T11:08:51Z</time>
      </trkpt>
      <trkpt lat="47.80534" lon="-3.69781">
        <ele>-16.25</ele>
        <time>2019-07-14T11:08:52Z</time>
      </trkpt>
      <trkpt lat="47.8053" lon="-3.69776">
        <ele>-16.15</ele>
        <time>2019-07-14T11:08:53Z</time>
      </trkpt>
      <trkpt lat="47.80524" lon="-3.69766">
        <ele>-16.57</ele>
        <time>2019-07-14T11:08:55Z</time>
      </trkpt>
      <trkpt lat="47.80522" lon="-3.6976">
        <ele>-16.67</ele>
        <time>2019-07-14T11:08:56Z</time>
      </trkpt>
      <trkpt lat="47.80519" lon="-3.69753">
        <ele>-16.84</ele>
        <time>2019-07-14T11:08:57Z</time>
      </trkpt>
      <trkpt lat="47.80516" lon="-3.69745">
        <ele>-16.89</ele>
        <time>2019-07-14T11:08:58Z</time>
      </trkpt>
      <trkpt lat="47.80513" lon="-3.69738">
        <ele>-16.77</ele>
        <time>2019-07-14T11:08:59Z</time>
      </trkpt>
      <trkpt lat="47.8051" lon="-3.69732">
        <ele>-16.94</ele>
        <time>2019-07-14T11:09:00Z</time>
      </trkpt>
      <trkpt lat="47.80502" lon="-3.69724">
        <ele>-17.39</ele>
        <time>2019-07-14T11:09:02Z</time>
      </trkpt>
      <trkpt lat="47.80498" lon="-3.6972">
        <ele>-17.34</ele>
        <time>2019-07-14T11:09:03Z</time>
      </trkpt>
      <trkpt lat="47.80494" lon="-3.69718">
        <ele>-17.25</ele>
        <time>2019-07-14T11:09:04Z</time>
      </trkpt>
      <trkpt lat="47.80489" lon="-3.69717">
        <ele>-17.22</ele>
        <time>2019-07-14T11:09:05Z</time>
      </trkpt>
      <trkpt lat="47.80481" lon="-3.69721">
        <ele>-17.35</ele>
        <time>2019-07-14T11:09:07Z</time>
      </trkpt>
      <trkpt lat="47.80474" lon="-3.69722">
        <ele>-17.67</ele>
        <time>2019-07-14T11:09:08Z</time>
      </trkpt>
      <trkpt lat="47.80468" lon="-3.69723">
        <ele>-17.91</ele>
        <time>2019-07-14T11:09:09Z</time>
      </trkpt>
      <trkpt lat="47.80462" lon="-3.69723">
        <ele>-17.91</ele>
        <time>2019-07-14T11:09:10Z</time>
      </trkpt>
      <trkpt lat="47.80455" lon="-3.69723">
        <ele>-17.91</ele>
        <time>2019-07-14T11:09:11Z</time>
      </trkpt>
      <trkpt lat="47.80449" lon="-3.69723">
        <ele>-18.05</ele>
        <time>2019-07-14T11:09:12Z</time>
      </trkpt>
      <trkpt lat="47.80444" lon="-3.69725">
        <ele>-18.02</ele>
        <time>2019-07-14T11:09:13Z</time>
      </trkpt>
      <trkpt lat="47.80438" lon="-3.69729">
        <ele>-17.95</ele>
        <time>2019-07-14T11:09:14Z</time>
      </trkpt>
      <trkpt lat="47.80431" lon="-3.69735">
        <ele>-17.85</ele>
        <time>2019-07-14T11:09:15Z</time>
      </trkpt>
      <trkpt lat="47.80426" lon="-3.69741">
        <ele>-17.68</ele>
        <time>2019-07-14T11:09:16Z</time>
      </trkpt>
      <trkpt lat="47.80421" lon="-3.69748">
        <ele>-17.49</ele>
        <time>2019-07-14T11:09:17Z</time>
      </trkpt>
      <trkpt lat="47.80417" lon="-3.69754">
        <ele>-17.37</ele>
        <time>2019-07-14T11:09:18Z</time>
      </trkpt>
      <trkpt lat="47.80414" lon="-3.69761">
        <ele>-17.33</ele>
        <time>2019-07-14T11:09:19Z</time>
      </trkpt>
      <trkpt lat="47.80411" lon="-3.69768">
        <ele>-17.39</ele>
        <time>2019-07-14T11:09:20Z</time>
      </trkpt>
      <trkpt lat="47.80408" lon="-3.69778">
        <ele>-17.57</ele>
        <time>2019-07-14T11:09:22Z</time>
      </trkpt>
      <trkpt lat="47.80405" lon="-3.69791">
        <ele>-17.88</ele>
        <time>2019-07-14T11:09:24Z</time>
      </trkpt>
      <trkpt lat="47.80404" lon="-3.69799">
        <ele>-17.9</ele>
        <time>2019-07-14T11:09:25Z</time>
      </trkpt>
      <trkpt lat="47.80402" lon="-3.69807">
        <ele>-17.98</ele>
        <time>2019-07-14T11:09:26Z</time>
      </trkpt>
      <trkpt lat="47.804" lon="-3.69815">
        <ele>-18.21</ele>
        <time>2019-07-14T11:09:27Z</time>
      </trkpt>
      <trkpt lat="47.80398" lon="-3.69824">
        <ele>-18.42</ele>
        <time>2019-07-14T11:09:28Z</time>
      </trkpt>
      <trkpt lat="47.80396" lon="-3.69832">
        <ele>-18.49</ele>
        <time>2019-07-14T11:09:29Z</time>
      </trkpt>
      <trkpt lat="47.80394" lon="-3.69842">
        <ele>-18.43</ele>
        <time>2019-07-14T11:09:30Z</time>
      </trkpt>
      <trkpt lat="47.80392" lon="-3.69849">
        <ele>-18.56</ele>
        <time>2019-07-14T11:09:31Z</time>
      </trkpt>
      <trkpt lat="47.8039" lon="-3.69857">
        <ele>-18.67</ele>
        <time>2019-07-14T11:09:32Z</time>
      </trkpt>
      <trkpt lat="47.80389" lon="-3.69864">
        <ele>-18.77</ele>
        <time>2019-07-14T11:09:33Z</time>
      </trkpt>
      <trkpt lat="47.80388" lon="-3.69871">
        <ele>-18.8</ele>
        <time>2019-07-14T11:09:34Z</time>
      </trkpt>
      <trkpt lat="47.80385" lon="-3.69883">
        <ele>-19.16</ele>
        <time>2019-07-14T11:09:36Z</time>
      </trkpt>
      <trkpt lat="47.80385" lon="-3.6989">
        <ele>-19.62</ele>
        <time>2019-07-14T11:09:37Z</time>
      </trkpt>
      <trkpt lat="47.80387" lon="-3.69898">
        <ele>-20.6</ele>
        <time>2019-07-14T11:09:39Z</time>
      </trkpt>
      <trkpt lat="47.80389" lon="-3.69906">
        <ele>-21.22</ele>
        <time>2019-07-14T11:09:42Z</time>
      </trkpt>
      <trkpt lat="47.80393" lon="-3.69912">
        <ele>-20.12</ele>
        <time>2019-07-14T11:09:54Z</time>
      </trkpt>
      <trkpt lat="47.80397" lon="-3.69917">
        <ele>-19.33</ele>
        <time>2019-07-14T11:09:57Z</time>
      </trkpt>
      <trkpt lat="47.80392" lon="-3.69926">
        <ele>-19.32</ele>
        <time>2019-07-14T11:10:05Z</time>
      </trkpt>
      <trkpt lat="47.80389" lon="-3.69934">
        <ele>-19.11</ele>
        <time>2019-07-14T11:10:08Z</time>
      </trkpt>
      <trkpt lat="47.80396" lon="-3.69931">
        <ele>-17.25</ele>
        <time>2019-07-14T11:10:18Z</time>
      </trkpt>
      <trkpt lat="47.80401" lon="-3.6993">
        <ele>-16.85</ele>
        <time>2019-07-14T11:10:20Z</time>
      </trkpt>
      <trkpt lat="47.80407" lon="-3.69931">
        <ele>-16.47</ele>
        <time>2019-07-14T11:10:23Z</time>
      </trkpt>
      <trkpt lat="47.80412" lon="-3.6993">
        <ele>-16.42</ele>
        <time>2019-07-14T11:10:25Z</time>
      </trkpt>
      <trkpt lat="47.80419" lon="-3.69932">
        <ele>-16.96</ele>
        <time>2019-07-14T11:10:27Z</time>
      </trkpt>
      <trkpt lat="47.80427" lon="-3.69932">
        <ele>-17.21</ele>
        <time>2019-07-14T11:10:29Z</time>
      </trkpt>
      <trkpt lat="47.80431" lon="-3.69931">
        <ele>-17.21</ele>
        <time>2019-07-14T11:10:30Z</time>
      </trkpt>
      <trkpt lat="47.8044" lon="-3.69929">
        <ele>-16.77</ele>
        <time>2019-07-14T11:10:32Z</time>
      </trkpt>
      <trkpt lat="47.80445" lon="-3.69928">
        <ele>-15.75</ele>
        <time>2019-07-14T11:10:33Z</time>
      </trkpt>
      <trkpt lat="47.8045" lon="-3.69929">
        <ele>-15.65</ele>
        <time>2019-07-14T11:10:34Z</time>
      </trkpt>
      <trkpt lat="47.80455" lon="-3.69931">
        <ele>-15.55</ele>
        <time>2019-07-14T11:10:35Z</time>
      </trkpt>
      <trkpt lat="47.8046" lon="-3.69934">
        <ele>-15.59</ele>
        <time>2019-07-14T11:10:36Z</time>
      </trkpt>
      <trkpt lat="47.80464" lon="-3.69937">
        <ele>-15.26</ele>
        <time>2019-07-14T11:10:37Z</time>
      </trkpt>
      <trkpt lat="47.80469" lon="-3.6994">
        <ele>-14.95</ele>
        <time>2019-07-14T11:10:38Z</time>
      </trkpt>
      <trkpt lat="47.80474" lon="-3.69942">
        <ele>-14.5</ele>
        <time>2019-07-14T11:10:39Z</time>
      </trkpt>
      <trkpt lat="47.80478" lon="-3.69944">
        <ele>-14.51</ele>
        <time>2019-07-14T11:10:40Z</time>
      </trkpt>
      <trkpt lat="47.80486" lon="-3.69949">
        <ele>-13.55</ele>
        <time>2019-07-14T11:10:42Z</time>
      </trkpt>
      <trkpt lat="47.80494" lon="-3.69954">
        <ele>-12.87</ele>
        <time>2019-07-14T11:10:44Z</time>
      </trkpt>
      <trkpt lat="47.80501" lon="-3.69959">
        <ele>-13.05</ele>
        <time>2019-07-14T11:10:46Z</time>
      </trkpt>
      <trkpt lat="47.80503" lon="-3.69969">
        <ele>-13.08</ele>
        <time>2019-07-14T11:10:48Z</time>
      </trkpt>
      <trkpt lat="47.80505" lon="-3.69982">
        <ele>-13.59</ele>
        <time>2019-07-14T11:10:50Z</time>
      </trkpt>
      <trkpt lat="47.80505" lon="-3.69994">
        <ele>-14.09</ele>
        <time>2019-07-14T11:10:52Z</time>
      </trkpt>
      <trkpt lat="47.80504" lon="-3.70006">
        <ele>-15.3</ele>
        <time>2019-07-14T11:10:54Z</time>
      </trkpt>
      <trkpt lat="47.80503" lon="-3.70019">
        <ele>-16.86</ele>
        <time>2019-07-14T11:10:56Z</time>
      </trkpt>
      <trkpt lat="47.80503" lon="-3.70026">
        <ele>-17.18</ele>
        <time>2019-07-14T11:10:57Z</time>
      </trkpt>
      <trkpt lat="47.80502" lon="-3.70033">
        <ele>-18.11</ele>
        <time>2019-07-14T11:10:58Z</time>
      </trkpt>
      <trkpt lat="47.80501" lon="-3.7004">
        <ele>-18.88</ele>
        <time>2019-07-14T11:10:59Z</time>
      </trkpt>
      <trkpt lat="47.805" lon="-3.70047">
        <ele>-19.6</ele>
        <time>2019-07-14T11:11:00Z</time>
      </trkpt>
      <trkpt lat="47.80499" lon="-3.70055">
        <ele>-20.17</ele>
        <time>2019-07-14T11:11:01Z</time>
      </trkpt>
      <trkpt lat="47.80497" lon="-3.70062">
        <ele>-20.9</ele>
        <time>2019-07-14T11:11:02Z</time>
      </trkpt>
      <trkpt lat="47.80496" lon="-3.7007">
        <ele>-21.47</ele>
        <time>2019-07-14T11:11:03Z</time>
      </trkpt>
      <trkpt lat="47.80494" lon="-3.70078">
        <ele>-22.34</ele>
        <time>2019-07-14T11:11:04Z</time>
      </trkpt>
      <trkpt lat="47.80493" lon="-3.70085">
        <ele>-23.02</ele>
        <time>2019-07-14T11:11:05Z</time>
      </trkpt>
      <trkpt lat="47.80492" lon="-3.70092">
        <ele>-23.78</ele>
        <time>2019-07-14T11:11:06Z</time>
      </trkpt>
      <trkpt lat="47.80491" lon="-3.70099">
        <ele>-24.78</ele>
        <time>2019-07-14T11:11:07Z</time>
      </trkpt>
      <trkpt lat="47.8049" lon="-3.70108">
        <ele>-25.36</ele>
        <time>2019-07-14T11:11:08Z</time>
      </trkpt>
      <trkpt lat="47.80487" lon="-3.70115">
        <ele>-24.7</ele>
        <time>2019-07-14T11:11:09Z</time>
      </trkpt>
      <trkpt lat="47.80486" lon="-3.70123">
        <ele>-24.22</ele>
        <time>2019-07-14T11:11:10Z</time>
      </trkpt>
      <trkpt lat="47.80484" lon="-3.70131">
        <ele>-23.51</ele>
        <time>2019-07-14T11:11:11Z</time>
      </trkpt>
      <trkpt lat="47.80484" lon="-3.70139">
        <ele>-22.5</ele>
        <time>2019-07-14T11:11:13Z</time>
      </trkpt>
      <trkpt lat="47.80487" lon="-3.70148">
        <ele>-20.61</ele>
        <time>2019-07-14T11:11:16Z</time>
      </trkpt>
      <trkpt lat="47.80485" lon="-3.70155">
        <ele>-20.63</ele>
        <time>2019-07-14T11:11:18Z</time>
      </trkpt>
      <trkpt lat="47.80484" lon="-3.70163">
        <ele>-19.42</ele>
        <time>2019-07-14T11:11:20Z</time>
      </trkpt>
      <trkpt lat="47.80484" lon="-3.7017">
        <ele>-18.31</ele>
        <time>2019-07-14T11:11:22Z</time>
      </trkpt>
      <trkpt lat="47.80483" lon="-3.70179">
        <ele>-17.53</ele>
        <time>2019-07-14T11:11:24Z</time>
      </trkpt>
      <trkpt lat="47.80482" lon="-3.70188">
        <ele>-15.54</ele>
        <time>2019-07-14T11:11:26Z</time>
      </trkpt>
      <trkpt lat="47.80481" lon="-3.70194">
        <ele>-13.61</ele>
        <time>2019-07-14T11:11:31Z</time>
      </trkpt>
      <trkpt lat="47.80471" lon="-3.70191">
        <ele>-13.99</ele>
        <time>2019-07-14T11:11:54Z</time>
      </trkpt>
      <trkpt lat="47.80467" lon="-3.70191">
        <ele>-14.21</ele>
        <time>2019-07-14T11:11:58Z</time>
      </trkpt>
      <trkpt lat="47.80461" lon="-3.70184">
        <ele>-14.28</ele>
        <time>2019-07-14T11:12:05Z</time>
      </trkpt>
      <trkpt lat="47.80458" lon="-3.70178">
        <ele>-14.24</ele>
        <time>2019-07-14T11:12:09Z</time>
      </trkpt>
      <trkpt lat="47.80455" lon="-3.70173">
        <ele>-14.19</ele>
        <time>2019-07-14T11:12:14Z</time>
      </trkpt>
      <trkpt lat="47.8045" lon="-3.70174">
        <ele>-15.22</ele>
        <time>2019-07-14T11:12:29Z</time>
      </trkpt>
      <trkpt lat="47.80455" lon="-3.70175">
        <ele>-16.44</ele>
        <time>2019-07-14T11:12:51Z</time>
      </trkpt>
      <trkpt lat="47.80458" lon="-3.70181">
        <ele>-16.03</ele>
        <time>2019-07-14T11:12:55Z</time>
      </trkpt>
      <trkpt lat="47.80463" lon="-3.70183">
        <ele>-15.75</ele>
        <time>2019-07-14T11:12:58Z</time>
      </trkpt>
      <trkpt lat="47.80467" lon="-3.70183">
        <ele>-15.65</ele>
        <time>2019-07-14T11:13:00Z</time>
      </trkpt>
      <trkpt lat="47.80473" lon="-3.70186">
        <ele>-16.04</ele>
        <time>2019-07-14T11:13:03Z</time>
      </trkpt>
      <trkpt lat="47.80477" lon="-3.70188">
        <ele>-16.97</ele>
        <time>2019-07-14T11:13:07Z</time>
      </trkpt>
      <trkpt lat="47.80481" lon="-3.70184">
        <ele>-17.37</ele>
        <time>2019-07-14T11:13:10Z</time>
      </trkpt>
      <trkpt lat="47.80484" lon="-3.70176">
        <ele>-17.33</ele>
        <time>2019-07-14T11:13:13Z</time>
      </trkpt>
      <trkpt lat="47.80485" lon="-3.70167">
        <ele>-17.57</ele>
        <time>2019-07-14T11:13:16Z</time>
      </trkpt>
      <trkpt lat="47.80486" lon="-3.7016">
        <ele>-18.06</ele>
        <time>2019-07-14T11:13:18Z</time>
      </trkpt>
      <trkpt lat="47.80487" lon="-3.70153">
        <ele>-19.23</ele>
        <time>2019-07-14T11:13:20Z</time>
      </trkpt>
      <trkpt lat="47.80487" lon="-3.70145">
        <ele>-20.17</ele>
        <time>2019-07-14T11:13:23Z</time>
      </trkpt>
      <trkpt lat="47.80487" lon="-3.70136">
        <ele>-20.64</ele>
        <time>2019-07-14T11:13:26Z</time>
      </trkpt>
      <trkpt lat="47.80489" lon="-3.70128">
        <ele>-20.54</ele>
        <time>2019-07-14T11:13:29Z</time>
      </trkpt>
      <trkpt lat="47.8049" lon="-3.7012">
        <ele>-19.94</ele>
        <time>2019-07-14T11:13:31Z</time>
      </trkpt>
      <trkpt lat="47.8049" lon="-3.70112">
        <ele>-20.23</ele>
        <time>2019-07-14T11:13:33Z</time>
      </trkpt>
      <trkpt lat="47.80491" lon="-3.70103">
        <ele>-20.42</ele>
        <time>2019-07-14T11:13:35Z</time>
      </trkpt>
      <trkpt lat="47.80492" lon="-3.70096">
        <ele>-20.76</ele>
        <time>2019-07-14T11:13:37Z</time>
      </trkpt>
      <trkpt lat="47.80493" lon="-3.70089">
        <ele>-21.26</ele>
        <time>2019-07-14T11:13:39Z</time>
      </trkpt>
      <trkpt lat="47.80493" lon="-3.70081">
        <ele>-21.49</ele>
        <time>2019-07-14T11:13:41Z</time>
      </trkpt>
      <trkpt lat="47.80496" lon="-3.70073">
        <ele>-21.49</ele>
        <time>2019-07-14T11:13:43Z</time>
      </trkpt>
      <trkpt lat="47.805" lon="-3.70064">
        <ele>-21.44</ele>
        <time>2019-07-14T11:13:45Z</time>
      </trkpt>
      <trkpt lat="47.80501" lon="-3.70056">
        <ele>-21.48</ele>
        <time>2019-07-14T11:13:47Z</time>
      </trkpt>
      <trkpt lat="47.80502" lon="-3.70045">
        <ele>-21.1</ele>
        <time>2019-07-14T11:13:49Z</time>
      </trkpt>
      <trkpt lat="47.80503" lon="-3.70035">
        <ele>-21.04</ele>
        <time>2019-07-14T11:13:51Z</time>
      </trkpt>
      <trkpt lat="47.80504" lon="-3.70025">
        <ele>-20.81</ele>
        <time>2019-07-14T11:13:53Z</time>
      </trkpt>
      <trkpt lat="47.80505" lon="-3.70016">
        <ele>-21.07</ele>
        <time>2019-07-14T11:13:55Z</time>
      </trkpt>
      <trkpt lat="47.80506" lon="-3.70005">
        <ele>-20.42</ele>
        <time>2019-07-14T11:13:57Z</time>
      </trkpt>
      <trkpt lat="47.80506" lon="-3.69993">
        <ele>-19.43</ele>
        <time>2019-07-14T11:13:59Z</time>
      </trkpt>
      <trkpt lat="47.80507" lon="-3.69981">
        <ele>-18.15</ele>
        <time>2019-07-14T11:14:01Z</time>
      </trkpt>
      <trkpt lat="47.80508" lon="-3.69968">
        <ele>-16.41</ele>
        <time>2019-07-14T11:14:03Z</time>
      </trkpt>
      <trkpt lat="47.80504" lon="-3.69957">
        <ele>-15.5</ele>
        <time>2019-07-14T11:14:05Z</time>
      </trkpt>
      <trkpt lat="47.80498" lon="-3.69951">
        <ele>-15.49</ele>
        <time>2019-07-14T11:14:07Z</time>
      </trkpt>
      <trkpt lat="47.80494" lon="-3.69948">
        <ele>-15.37</ele>
        <time>2019-07-14T11:14:08Z</time>
      </trkpt>
      <trkpt lat="47.80486" lon="-3.69943">
        <ele>-15.45</ele>
        <time>2019-07-14T11:14:10Z</time>
      </trkpt>
      <trkpt lat="47.80478" lon="-3.69939">
        <ele>-15.14</ele>
        <time>2019-07-14T11:14:12Z</time>
      </trkpt>
      <trkpt lat="47.8047" lon="-3.69935">
        <ele>-15.78</ele>
        <time>2019-07-14T11:14:14Z</time>
      </trkpt>
      <trkpt lat="47.80466" lon="-3.69933">
        <ele>-15.94</ele>
        <time>2019-07-14T11:14:15Z</time>
      </trkpt>
      <trkpt lat="47.80458" lon="-3.69929">
        <ele>-16.4</ele>
        <time>2019-07-14T11:14:17Z</time>
      </trkpt>
      <trkpt lat="47.80453" lon="-3.69925">
        <ele>-16.52</ele>
        <time>2019-07-14T11:14:19Z</time>
      </trkpt>
      <trkpt lat="47.80447" lon="-3.69924">
        <ele>-16.79</ele>
        <time>2019-07-14T11:14:21Z</time>
      </trkpt>
      <trkpt lat="47.80439" lon="-3.69922">
        <ele>-18.04</ele>
        <time>2019-07-14T11:14:23Z</time>
      </trkpt>
      <trkpt lat="47.80434" lon="-3.69922">
        <ele>-18.23</ele>
        <time>2019-07-14T11:14:24Z</time>
      </trkpt>
      <trkpt lat="47.80429" lon="-3.69922">
        <ele>-18.29</ele>
        <time>2019-07-14T11:14:25Z</time>
      </trkpt>
      <trkpt lat="47.80425" lon="-3.69922">
        <ele>-18.37</ele>
        <time>2019-07-14T11:14:26Z</time>
      </trkpt>
      <trkpt lat="47.8042" lon="-3.69922">
        <ele>-18.33</ele>
        <time>2019-07-14T11:14:27Z</time>
      </trkpt>
      <trkpt lat="47.80415" lon="-3.69922">
        <ele>-18.32</ele>
        <time>2019-07-14T11:14:28Z</time>
      </trkpt>
      <trkpt lat="47.80411" lon="-3.69922">
        <ele>-18.45</ele>
        <time>2019-07-14T11:14:29Z</time>
      </trkpt>
      <trkpt lat="47.80403" lon="-3.6992">
        <ele>-18.92</ele>
        <time>2019-07-14T11:14:31Z</time>
      </trkpt>
      <trkpt lat="47.80398" lon="-3.69918">
        <ele>-19.26</ele>
        <time>2019-07-14T11:14:32Z</time>
      </trkpt>
      <trkpt lat="47.8039" lon="-3.69914">
        <ele>-20.22</ele>
        <time>2019-07-14T11:14:34Z</time>
      </trkpt>
      <trkpt lat="47.80385" lon="-3.69911">
        <ele>-21.11</ele>
        <time>2019-07-14T11:14:36Z</time>
      </trkpt>
      <trkpt lat="47.80383" lon="-3.69904">
        <ele>-22.97</ele>
        <time>2019-07-14T11:14:39Z</time>
      </trkpt>
      <trkpt lat="47.80381" lon="-3.69897">
        <ele>-23.74</ele>
        <time>2019-07-14T11:14:41Z</time>
      </trkpt>
      <trkpt lat="47.80374" lon="-3.69897">
        <ele>-24.82</ele>
        <time>2019-07-14T11:14:44Z</time>
      </trkpt>
      <trkpt lat="47.80369" lon="-3.69904">
        <ele>-25.66</ele>
        <time>2019-07-14T11:14:46Z</time>
      </trkpt>
      <trkpt lat="47.80364" lon="-3.69909">
        <ele>-26.14</ele>
        <time>2019-07-14T11:14:48Z</time>
      </trkpt>
      <trkpt lat="47.8036" lon="-3.69914">
        <ele>-26.32</ele>
        <time>2019-07-14T11:14:50Z</time>
      </trkpt>
      <trkpt lat="47.80358" lon="-3.69922">
        <ele>-26.49</ele>
        <time>2019-07-14T11:14:52Z</time>
      </trkpt>
      <trkpt lat="47.80354" lon="-3.69932">
        <ele>-26.14</ele>
        <time>2019-07-14T11:14:54Z</time>
      </trkpt>
      <trkpt lat="47.80352" lon="-3.69941">
        <ele>-25.7</ele>
        <time>2019-07-14T11:14:56Z</time>
      </trkpt>
      <trkpt lat="47.80348" lon="-3.69951">
        <ele>-25.62</ele>
        <time>2019-07-14T11:14:58Z</time>
      </trkpt>
      <trkpt lat="47.80346" lon="-3.69957">
        <ele>-25.61</ele>
        <time>2019-07-14T11:14:59Z</time>
      </trkpt>
      <trkpt lat="47.80346" lon="-3.69965">
        <ele>-25.54</ele>
        <time>2019-07-14T11:15:00Z</time>
      </trkpt>
      <trkpt lat="47.80344" lon="-3.69979">
        <ele>-25.68</ele>
        <time>2019-07-14T11:15:02Z</time>
      </trkpt>
      <trkpt lat="47.80344" lon="-3.69995">
        <ele>-26.03</ele>
        <time>2019-07-14T11:15:04Z</time>
      </trkpt>
      <trkpt lat="47.80344" lon="-3.70005">
        <ele>-25.46</ele>
        <time>2019-07-14T11:15:05Z</time>
      </trkpt>
      <trkpt lat="47.80344" lon="-3.70012">
        <ele>-24.87</ele>
        <time>2019-07-14T11:15:06Z</time>
      </trkpt>
      <trkpt lat="47.80344" lon="-3.70019">
        <ele>-24.62</ele>
        <time>2019-07-14T11:15:07Z</time>
      </trkpt>
      <trkpt lat="47.80342" lon="-3.70032">
        <ele>-24.13</ele>
        <time>2019-07-14T11:15:09Z</time>
      </trkpt>
      <trkpt lat="47.80342" lon="-3.70039">
        <ele>-23.91</ele>
        <time>2019-07-14T11:15:10Z</time>
      </trkpt>
      <trkpt lat="47.80341" lon="-3.70046">
        <ele>-23.7</ele>
        <time>2019-07-14T11:15:11Z</time>
      </trkpt>
      <trkpt lat="47.8034" lon="-3.70054">
        <ele>-23.5</ele>
        <time>2019-07-14T11:15:12Z</time>
      </trkpt>
      <trkpt lat="47.80341" lon="-3.70061">
        <ele>-23.3</ele>
        <time>2019-07-14T11:15:13Z</time>
      </trkpt>
      <trkpt lat="47.80341" lon="-3.70069">
        <ele>-23.1</ele>
        <time>2019-07-14T11:15:14Z</time>
      </trkpt>
      <trkpt lat="47.80342" lon="-3.70076">
        <ele>-23.04</ele>
        <time>2019-07-14T11:15:15Z</time>
      </trkpt>
      <trkpt lat="47.80343" lon="-3.70083">
        <ele>-23.02</ele>
        <time>2019-07-14T11:15:16Z</time>
      </trkpt>
      <trkpt lat="47.80344" lon="-3.7009">
        <ele>-23.01</ele>
        <time>2019-07-14T11:15:17Z</time>
      </trkpt>
      <trkpt lat="47.80346" lon="-3.70097">
        <ele>-23.01</ele>
        <time>2019-07-14T11:15:18Z</time>
      </trkpt>
      <trkpt lat="47.80347" lon="-3.70103">
        <ele>-22.87</ele>
        <time>2019-07-14T11:15:19Z</time>
      </trkpt>
      <trkpt lat="47.8035" lon="-3.70116">
        <ele>-22.52</ele>
        <time>2019-07-14T11:15:21Z</time>
      </trkpt>
      <trkpt lat="47.80353" lon="-3.70122">
        <ele>-22.66</ele>
        <time>2019-07-14T11:15:22Z</time>
      </trkpt>
      <trkpt lat="47.80358" lon="-3.70132">
        <ele>-22.55</ele>
        <time>2019-07-14T11:15:24Z</time>
      </trkpt>
      <trkpt lat="47.80363" lon="-3.70142">
        <ele>-22.47</ele>
        <time>2019-07-14T11:15:26Z</time>
      </trkpt>
      <trkpt lat="47.80366" lon="-3.70151">
        <ele>-22.54</ele>
        <time>2019-07-14T11:15:28Z</time>
      </trkpt>
      <trkpt lat="47.80372" lon="-3.7016">
        <ele>-23.69</ele>
        <time>2019-07-14T11:15:30Z</time>
      </trkpt>
      <trkpt lat="47.80375" lon="-3.70167">
        <ele>-24.34</ele>
        <time>2019-07-14T11:15:31Z</time>
      </trkpt>
      <trkpt lat="47.80377" lon="-3.70173">
        <ele>-24.81</ele>
        <time>2019-07-14T11:15:32Z</time>
      </trkpt>
      <trkpt lat="47.8038" lon="-3.70179">
        <ele>-25.23</ele>
        <time>2019-07-14T11:15:33Z</time>
      </trkpt>
      <trkpt lat="47.80383" lon="-3.70185">
        <ele>-25.57</ele>
        <time>2019-07-14T11:15:34Z</time>
      </trkpt>
      <trkpt lat="47.80386" lon="-3.70191">
        <ele>-25.88</ele>
        <time>2019-07-14T11:15:35Z</time>
      </trkpt>
      <trkpt lat="47.80389" lon="-3.70197">
        <ele>-26.18</ele>
        <time>2019-07-14T11:15:36Z</time>
      </trkpt>
      <trkpt lat="47.80392" lon="-3.70203">
        <ele>-26.41</ele>
        <time>2019-07-14T11:15:37Z</time>
      </trkpt>
      <trkpt lat="47.80395" lon="-3.70209">
        <ele>-26.62</ele>
        <time>2019-07-14T11:15:38Z</time>
      </trkpt>
      <trkpt lat="47.80398" lon="-3.70216">
        <ele>-26.83</ele>
        <time>2019-07-14T11:15:39Z</time>
      </trkpt>
      <trkpt lat="47.80401" lon="-3.70223">
        <ele>-26.96</ele>
        <time>2019-07-14T11:15:40Z</time>
      </trkpt>
      <trkpt lat="47.80403" lon="-3.70229">
        <ele>-27.21</ele>
        <time>2019-07-14T11:15:41Z</time>
      </trkpt>
      <trkpt lat="47.80406" lon="-3.70235">
        <ele>-27.77</ele>
        <time>2019-07-14T11:15:42Z</time>
      </trkpt>
      <trkpt lat="47.80409" lon="-3.70242">
        <ele>-28.5</ele>
        <time>2019-07-14T11:15:43Z</time>
      </trkpt>
      <trkpt lat="47.80412" lon="-3.70247">
        <ele>-29</ele>
        <time>2019-07-14T11:15:44Z</time>
      </trkpt>
      <trkpt lat="47.80416" lon="-3.70251">
        <ele>-29.85</ele>
        <time>2019-07-14T11:15:45Z</time>
      </trkpt>
      <trkpt lat="47.8042" lon="-3.70256">
        <ele>-30.17</ele>
        <time>2019-07-14T11:15:46Z</time>
      </trkpt>
      <trkpt lat="47.80423" lon="-3.70262">
        <ele>-30.34</ele>
        <time>2019-07-14T11:15:47Z</time>
      </trkpt>
      <trkpt lat="47.80426" lon="-3.70266">
        <ele>-30.39</ele>
        <time>2019-07-14T11:15:48Z</time>
      </trkpt>
      <trkpt lat="47.80432" lon="-3.70275">
        <ele>-30.57</ele>
        <time>2019-07-14T11:15:50Z</time>
      </trkpt>
      <trkpt lat="47.80438" lon="-3.7028">
        <ele>-31</ele>
        <time>2019-07-14T11:15:52Z</time>
      </trkpt>
      <trkpt lat="47.80439" lon="-3.70288">
        <ele>-31.04</ele>
        <time>2019-07-14T11:15:54Z</time>
      </trkpt>
      <trkpt lat="47.80438" lon="-3.70297">
        <ele>-32.98</ele>
        <time>2019-07-14T11:15:56Z</time>
      </trkpt>
      <trkpt lat="47.80434" lon="-3.7031">
        <ele>-34.53</ele>
        <time>2019-07-14T11:15:58Z</time>
      </trkpt>
      <trkpt lat="47.80432" lon="-3.70323">
        <ele>-35.36</ele>
        <time>2019-07-14T11:16:00Z</time>
      </trkpt>
      <trkpt lat="47.8043" lon="-3.70329">
        <ele>-35.61</ele>
        <time>2019-07-14T11:16:01Z</time>
      </trkpt>
      <trkpt lat="47.80429" lon="-3.70336">
        <ele>-36.03</ele>
        <time>2019-07-14T11:16:02Z</time>
      </trkpt>
      <trkpt lat="47.80429" lon="-3.70344">
        <ele>-37</ele>
        <time>2019-07-14T11:16:03Z</time>
      </trkpt>
      <trkpt lat="47.8043" lon="-3.70355">
        <ele>-38.23</ele>
        <time>2019-07-14T11:16:05Z</time>
      </trkpt>
      <trkpt lat="47.80429" lon="-3.70368">
        <ele>-38.79</ele>
        <time>2019-07-14T11:16:07Z</time>
      </trkpt>
      <trkpt lat="47.80428" lon="-3.70375">
        <ele>-38.87</ele>
        <time>2019-07-14T11:16:08Z</time>
      </trkpt>
      <trkpt lat="47.80427" lon="-3.70382">
        <ele>-38.83</ele>
        <time>2019-07-14T11:16:09Z</time>
      </trkpt>
      <trkpt lat="47.80426" lon="-3.7039">
        <ele>-38.89</ele>
        <time>2019-07-14T11:16:10Z</time>
      </trkpt>
      <trkpt lat="47.80424" lon="-3.70398">
        <ele>-39.04</ele>
        <time>2019-07-14T11:16:11Z</time>
      </trkpt>
      <trkpt lat="47.80424" lon="-3.70406">
        <ele>-39.09</ele>
        <time>2019-07-14T11:16:12Z</time>
      </trkpt>
      <trkpt lat="47.80422" lon="-3.70414">
        <ele>-39.25</ele>
        <time>2019-07-14T11:16:13Z</time>
      </trkpt>
      <trkpt lat="47.80421" lon="-3.70422">
        <ele>-39.43</ele>
        <time>2019-07-14T11:16:14Z</time>
      </trkpt>
      <trkpt lat="47.8042" lon="-3.7043">
        <ele>-39.42</ele>
        <time>2019-07-14T11:16:15Z</time>
      </trkpt>
      <trkpt lat="47.80419" lon="-3.70439">
        <ele>-39.41</ele>
        <time>2019-07-14T11:16:16Z</time>
      </trkpt>
      <trkpt lat="47.80418" lon="-3.70447">
        <ele>-39.55</ele>
        <time>2019-07-14T11:16:17Z</time>
      </trkpt>
      <trkpt lat="47.80417" lon="-3.70455">
        <ele>-39.52</ele>
        <time>2019-07-14T11:16:18Z</time>
      </trkpt>
      <trkpt lat="47.80416" lon="-3.70467">
        <ele>-40.32</ele>
        <time>2019-07-14T11:16:20Z</time>
      </trkpt>
      <trkpt lat="47.80418" lon="-3.70477">
        <ele>-41.41</ele>
        <time>2019-07-14T11:16:22Z</time>
      </trkpt>
      <trkpt lat="47.80423" lon="-3.70488">
        <ele>-41.94</ele>
        <time>2019-07-14T11:16:24Z</time>
      </trkpt>
      <trkpt lat="47.80425" lon="-3.70501">
        <ele>-41.98</ele>
        <time>2019-07-14T11:16:26Z</time>
      </trkpt>
      <trkpt lat="47.80425" lon="-3.70509">
        <ele>-41.86</ele>
        <time>2019-07-14T11:16:27Z</time>
      </trkpt>
      <trkpt lat="47.80424" lon="-3.70519">
        <ele>-41.76</ele>
        <time>2019-07-14T11:16:28Z</time>
      </trkpt>
      <trkpt lat="47.80424" lon="-3.70526">
        <ele>-41.73</ele>
        <time>2019-07-14T11:16:29Z</time>
      </trkpt>
      <trkpt lat="47.80423" lon="-3.70535">
        <ele>-41.79</ele>
        <time>2019-07-14T11:16:30Z</time>
      </trkpt>
      <trkpt lat="47.80423" lon="-3.70543">
        <ele>-41.8</ele>
        <time>2019-07-14T11:16:31Z</time>
      </trkpt>
      <trkpt lat="47.80422" lon="-3.70551">
        <ele>-41.81</ele>
        <time>2019-07-14T11:16:32Z</time>
      </trkpt>
      <trkpt lat="47.80422" lon="-3.7056">
        <ele>-41.81</ele>
        <time>2019-07-14T11:16:33Z</time>
      </trkpt>
      <trkpt lat="47.80422" lon="-3.70569">
        <ele>-41.74</ele>
        <time>2019-07-14T11:16:34Z</time>
      </trkpt>
      <trkpt lat="47.80422" lon="-3.70578">
        <ele>-41.65</ele>
        <time>2019-07-14T11:16:35Z</time>
      </trkpt>
      <trkpt lat="47.80421" lon="-3.70587">
        <ele>-41.62</ele>
        <time>2019-07-14T11:16:36Z</time>
      </trkpt>
      <trkpt lat="47.80421" lon="-3.70594">
        <ele>-41.55</ele>
        <time>2019-07-14T11:16:37Z</time>
      </trkpt>
      <trkpt lat="47.8042" lon="-3.70602">
        <ele>-41.52</ele>
        <time>2019-07-14T11:16:38Z</time>
      </trkpt>
      <trkpt lat="47.80419" lon="-3.70611">
        <ele>-41.52</ele>
        <time>2019-07-14T11:16:39Z</time>
      </trkpt>
      <trkpt lat="47.80419" lon="-3.7062">
        <ele>-41.51</ele>
        <time>2019-07-14T11:16:40Z</time>
      </trkpt>
      <trkpt lat="47.80418" lon="-3.70629">
        <ele>-41.58</ele>
        <time>2019-07-14T11:16:41Z</time>
      </trkpt>
      <trkpt lat="47.80417" lon="-3.70638">
        <ele>-41.53</ele>
        <time>2019-07-14T11:16:42Z</time>
      </trkpt>
      <trkpt lat="47.80416" lon="-3.70648">
        <ele>-41.52</ele>
        <time>2019-07-14T11:16:43Z</time>
      </trkpt>
      <trkpt lat="47.80414" lon="-3.70658">
        <ele>-41.44</ele>
        <time>2019-07-14T11:16:44Z</time>
      </trkpt>
      <trkpt lat="47.80414" lon="-3.70666">
        <ele>-41.49</ele>
        <time>2019-07-14T11:16:45Z</time>
      </trkpt>
      <trkpt lat="47.80412" lon="-3.70675">
        <ele>-41.58</ele>
        <time>2019-07-14T11:16:46Z</time>
      </trkpt>
      <trkpt lat="47.80412" lon="-3.70684">
        <ele>-41.53</ele>
        <time>2019-07-14T11:16:47Z</time>
      </trkpt>
      <trkpt lat="47.80411" lon="-3.70693">
        <ele>-41.52</ele>
        <time>2019-07-14T11:16:48Z</time>
      </trkpt>
      <trkpt lat="47.8041" lon="-3.70704">
        <ele>-41.58</ele>
        <time>2019-07-14T11:16:49Z</time>
      </trkpt>
      <trkpt lat="47.80409" lon="-3.70714">
        <ele>-41.74</ele>
        <time>2019-07-14T11:16:50Z</time>
      </trkpt>
      <trkpt lat="47.80408" lon="-3.70723">
        <ele>-41.86</ele>
        <time>2019-07-14T11:16:51Z</time>
      </trkpt>
      <trkpt lat="47.80408" lon="-3.70732">
        <ele>-41.97</ele>
        <time>2019-07-14T11:16:52Z</time>
      </trkpt>
      <trkpt lat="47.80406" lon="-3.70741">
        <ele>-41.93</ele>
        <time>2019-07-14T11:16:53Z</time>
      </trkpt>
      <trkpt lat="47.80405" lon="-3.70748">
        <ele>-41.85</ele>
        <time>2019-07-14T11:16:54Z</time>
      </trkpt>
      <trkpt lat="47.80404" lon="-3.70756">
        <ele>-41.82</ele>
        <time>2019-07-14T11:16:55Z</time>
      </trkpt>
      <trkpt lat="47.80404" lon="-3.70764">
        <ele>-41.68</ele>
        <time>2019-07-14T11:16:56Z</time>
      </trkpt>
      <trkpt lat="47.80402" lon="-3.70774">
        <ele>-41.56</ele>
        <time>2019-07-14T11:16:57Z</time>
      </trkpt>
      <trkpt lat="47.80403" lon="-3.70781">
        <ele>-41.53</ele>
        <time>2019-07-14T11:16:58Z</time>
      </trkpt>
      <trkpt lat="47.80403" lon="-3.70794">
        <ele>-41.51</ele>
        <time>2019-07-14T11:17:00Z</time>
      </trkpt>
      <trkpt lat="47.80403" lon="-3.70801">
        <ele>-41.51</ele>
        <time>2019-07-14T11:17:01Z</time>
      </trkpt>
      <trkpt lat="47.80401" lon="-3.70809">
        <ele>-41.58</ele>
        <time>2019-07-14T11:17:02Z</time>
      </trkpt>
      <trkpt lat="47.80401" lon="-3.70818">
        <ele>-41.74</ele>
        <time>2019-07-14T11:17:03Z</time>
      </trkpt>
      <trkpt lat="47.804" lon="-3.70827">
        <ele>-41.65</ele>
        <time>2019-07-14T11:17:04Z</time>
      </trkpt>
      <trkpt lat="47.80399" lon="-3.70835">
        <ele>-41.55</ele>
        <time>2019-07-14T11:17:05Z</time>
      </trkpt>
      <trkpt lat="47.80398" lon="-3.70844">
        <ele>-41.45</ele>
        <time>2019-07-14T11:17:06Z</time>
      </trkpt>
      <trkpt lat="47.80397" lon="-3.70853">
        <ele>-41.35</ele>
        <time>2019-07-14T11:17:07Z</time>
      </trkpt>
      <trkpt lat="47.80396" lon="-3.70861">
        <ele>-41.11</ele>
        <time>2019-07-14T11:17:08Z</time>
      </trkpt>
      <trkpt lat="47.80395" lon="-3.70873">
        <ele>-40.84</ele>
        <time>2019-07-14T11:17:10Z</time>
      </trkpt>
      <trkpt lat="47.80397" lon="-3.70885">
        <ele>-40.54</ele>
        <time>2019-07-14T11:17:12Z</time>
      </trkpt>
      <trkpt lat="47.80399" lon="-3.70896">
        <ele>-40.89</ele>
        <time>2019-07-14T11:17:14Z</time>
      </trkpt>
      <trkpt lat="47.80402" lon="-3.70902">
        <ele>-41.17</ele>
        <time>2019-07-14T11:17:16Z</time>
      </trkpt>
      <trkpt lat="47.80405" lon="-3.70911">
        <ele>-40.04</ele>
        <time>2019-07-14T11:17:28Z</time>
      </trkpt>
      <trkpt lat="47.80411" lon="-3.70911">
        <ele>-39.47</ele>
        <time>2019-07-14T11:17:34Z</time>
      </trkpt>
      <trkpt lat="47.80417" lon="-3.70912">
        <ele>-38.97</ele>
        <time>2019-07-14T11:17:38Z</time>
      </trkpt>
      <trkpt lat="47.80421" lon="-3.70914">
        <ele>-38.72</ele>
        <time>2019-07-14T11:17:42Z</time>
      </trkpt>
      <trkpt lat="47.80416" lon="-3.70915">
        <ele>-37.85</ele>
        <time>2019-07-14T11:18:10Z</time>
      </trkpt>
      <trkpt lat="47.80409" lon="-3.70913">
        <ele>-37.58</ele>
        <time>2019-07-14T11:18:12Z</time>
      </trkpt>
      <trkpt lat="47.80404" lon="-3.70918">
        <ele>-36.93</ele>
        <time>2019-07-14T11:18:15Z</time>
      </trkpt>
      <trkpt lat="47.80401" lon="-3.70924">
        <ele>-36.43</ele>
        <time>2019-07-14T11:18:17Z</time>
      </trkpt>
      <trkpt lat="47.80398" lon="-3.70931">
        <ele>-35.72</ele>
        <time>2019-07-14T11:18:19Z</time>
      </trkpt>
      <trkpt lat="47.80395" lon="-3.70938">
        <ele>-35.19</ele>
        <time>2019-07-14T11:18:21Z</time>
      </trkpt>
      <trkpt lat="47.80392" lon="-3.70946">
        <ele>-34.71</ele>
        <time>2019-07-14T11:18:23Z</time>
      </trkpt>
      <trkpt lat="47.80391" lon="-3.70954">
        <ele>-34.21</ele>
        <time>2019-07-14T11:18:25Z</time>
      </trkpt>
      <trkpt lat="47.80387" lon="-3.70964">
        <ele>-33.62</ele>
        <time>2019-07-14T11:18:27Z</time>
      </trkpt>
      <trkpt lat="47.80381" lon="-3.70971">
        <ele>-33.04</ele>
        <time>2019-07-14T11:18:29Z</time>
      </trkpt>
      <trkpt lat="47.80375" lon="-3.70973">
        <ele>-32.69</ele>
        <time>2019-07-14T11:18:31Z</time>
      </trkpt>
      <trkpt lat="47.8037" lon="-3.70967">
        <ele>-32.64</ele>
        <time>2019-07-14T11:18:33Z</time>
      </trkpt>
      <trkpt lat="47.80367" lon="-3.70956">
        <ele>-32.43</ele>
        <time>2019-07-14T11:18:35Z</time>
      </trkpt>
      <trkpt lat="47.80368" lon="-3.70943">
        <ele>-32.25</ele>
        <time>2019-07-14T11:18:37Z</time>
      </trkpt>
      <trkpt lat="47.80368" lon="-3.70929">
        <ele>-32.15</ele>
        <time>2019-07-14T11:18:39Z</time>
      </trkpt>
      <trkpt lat="47.80368" lon="-3.70923">
        <ele>-31.98</ele>
        <time>2019-07-14T11:18:40Z</time>
      </trkpt>
      <trkpt lat="47.80367" lon="-3.70912">
        <ele>-31.76</ele>
        <time>2019-07-14T11:18:42Z</time>
      </trkpt>
      <trkpt lat="47.80363" lon="-3.70905">
        <ele>-31.39</ele>
        <time>2019-07-14T11:18:44Z</time>
      </trkpt>
      <trkpt lat="47.80358" lon="-3.70906">
        <ele>-30.71</ele>
        <time>2019-07-14T11:18:47Z</time>
      </trkpt>
      <trkpt lat="47.80352" lon="-3.70909">
        <ele>-30.39</ele>
        <time>2019-07-14T11:18:49Z</time>
      </trkpt>
      <trkpt lat="47.80348" lon="-3.70914">
        <ele>-30</ele>
        <time>2019-07-14T11:18:51Z</time>
      </trkpt>
      <trkpt lat="47.80344" lon="-3.70922">
        <ele>-29.44</ele>
        <time>2019-07-14T11:18:53Z</time>
      </trkpt>
      <trkpt lat="47.80341" lon="-3.7093">
        <ele>-29</ele>
        <time>2019-07-14T11:18:55Z</time>
      </trkpt>
      <trkpt lat="47.80337" lon="-3.7094">
        <ele>-28.53</ele>
        <time>2019-07-14T11:18:57Z</time>
      </trkpt>
      <trkpt lat="47.80334" lon="-3.7095">
        <ele>-27.99</ele>
        <time>2019-07-14T11:18:59Z</time>
      </trkpt>
      <trkpt lat="47.80332" lon="-3.7096">
        <ele>-27.44</ele>
        <time>2019-07-14T11:19:01Z</time>
      </trkpt>
      <trkpt lat="47.80329" lon="-3.70969">
        <ele>-27</ele>
        <time>2019-07-14T11:19:03Z</time>
      </trkpt>
      <trkpt lat="47.80327" lon="-3.70978">
        <ele>-26.67</ele>
        <time>2019-07-14T11:19:05Z</time>
      </trkpt>
      <trkpt lat="47.80323" lon="-3.70987">
        <ele>-26.51</ele>
        <time>2019-07-14T11:19:07Z</time>
      </trkpt>
      <trkpt lat="47.80319" lon="-3.70994">
        <ele>-26.46</ele>
        <time>2019-07-14T11:19:09Z</time>
      </trkpt>
      <trkpt lat="47.80317" lon="-3.71005">
        <ele>-25.95</ele>
        <time>2019-07-14T11:19:11Z</time>
      </trkpt>
      <trkpt lat="47.80316" lon="-3.71015">
        <ele>-25.34</ele>
        <time>2019-07-14T11:19:13Z</time>
      </trkpt>
      <trkpt lat="47.80313" lon="-3.71025">
        <ele>-24.74</ele>
        <time>2019-07-14T11:19:15Z</time>
      </trkpt>
      <trkpt lat="47.8031" lon="-3.71035">
        <ele>-23.8</ele>
        <time>2019-07-14T11:19:18Z</time>
      </trkpt>
      <trkpt lat="47.80305" lon="-3.71042">
        <ele>-22.8</ele>
        <time>2019-07-14T11:19:20Z</time>
      </trkpt>
      <trkpt lat="47.80302" lon="-3.71048">
        <ele>-22.01</ele>
        <time>2019-07-14T11:19:22Z</time>
      </trkpt>
      <trkpt lat="47.80295" lon="-3.71057">
        <ele>-21.25</ele>
        <time>2019-07-14T11:20:20Z</time>
      </trkpt>
      <trkpt lat="47.80294" lon="-3.71067">
        <ele>-21.29</ele>
        <time>2019-07-14T11:20:23Z</time>
      </trkpt>
      <trkpt lat="47.80295" lon="-3.71075">
        <ele>-21.12</ele>
        <time>2019-07-14T11:20:26Z</time>
      </trkpt>
      <trkpt lat="47.80295" lon="-3.71086">
        <ele>-21.22</ele>
        <time>2019-07-14T11:20:29Z</time>
      </trkpt>
      <trkpt lat="47.80296" lon="-3.71095">
        <ele>-21.47</ele>
        <time>2019-07-14T11:20:31Z</time>
      </trkpt>
      <trkpt lat="47.80294" lon="-3.71104">
        <ele>-21.48</ele>
        <time>2019-07-14T11:20:33Z</time>
      </trkpt>
      <trkpt lat="47.80291" lon="-3.71114">
        <ele>-21.4</ele>
        <time>2019-07-14T11:20:35Z</time>
      </trkpt>
      <trkpt lat="47.80289" lon="-3.71124">
        <ele>-21.62</ele>
        <time>2019-07-14T11:20:37Z</time>
      </trkpt>
      <trkpt lat="47.80287" lon="-3.71131">
        <ele>-21.7</ele>
        <time>2019-07-14T11:20:39Z</time>
      </trkpt>
      <trkpt lat="47.80285" lon="-3.71141">
        <ele>-21.19</ele>
        <time>2019-07-14T11:20:41Z</time>
      </trkpt>
      <trkpt lat="47.80283" lon="-3.7115">
        <ele>-21.03</ele>
        <time>2019-07-14T11:20:43Z</time>
      </trkpt>
      <trkpt lat="47.80281" lon="-3.71157">
        <ele>-21.23</ele>
        <time>2019-07-14T11:20:44Z</time>
      </trkpt>
      <trkpt lat="47.80277" lon="-3.71166">
        <ele>-21.7</ele>
        <time>2019-07-14T11:20:46Z</time>
      </trkpt>
      <trkpt lat="47.80273" lon="-3.71177">
        <ele>-21.71</ele>
        <time>2019-07-14T11:20:48Z</time>
      </trkpt>
      <trkpt lat="47.80271" lon="-3.71186">
        <ele>-22.8</ele>
        <time>2019-07-14T11:20:50Z</time>
      </trkpt>
      <trkpt lat="47.80268" lon="-3.71199">
        <ele>-24.03</ele>
        <time>2019-07-14T11:20:52Z</time>
      </trkpt>
      <trkpt lat="47.8027" lon="-3.71208">
        <ele>-24.36</ele>
        <time>2019-07-14T11:20:54Z</time>
      </trkpt>
      <trkpt lat="47.80272" lon="-3.7122">
        <ele>-25.02</ele>
        <time>2019-07-14T11:20:56Z</time>
      </trkpt>
      <trkpt lat="47.80278" lon="-3.71228">
        <ele>-25.34</ele>
        <time>2019-07-14T11:20:58Z</time>
      </trkpt>
      <trkpt lat="47.80283" lon="-3.71235">
        <ele>-27.03</ele>
        <time>2019-07-14T11:21:00Z</time>
      </trkpt>
      <trkpt lat="47.80287" lon="-3.71244">
        <ele>-27.08</ele>
        <time>2019-07-14T11:21:02Z</time>
      </trkpt>
      <trkpt lat="47.80288" lon="-3.71252">
        <ele>-27.6</ele>
        <time>2019-07-14T11:21:04Z</time>
      </trkpt>
      <trkpt lat="47.8029" lon="-3.71263">
        <ele>-27.93</ele>
        <time>2019-07-14T11:21:06Z</time>
      </trkpt>
      <trkpt lat="47.8029" lon="-3.71269">
        <ele>-28.27</ele>
        <time>2019-07-14T11:21:07Z</time>
      </trkpt>
      <trkpt lat="47.8029" lon="-3.71281">
        <ele>-29.15</ele>
        <time>2019-07-14T11:21:09Z</time>
      </trkpt>
      <trkpt lat="47.8029" lon="-3.71289">
        <ele>-29.4</ele>
        <time>2019-07-14T11:21:10Z</time>
      </trkpt>
      <trkpt lat="47.80288" lon="-3.71297">
        <ele>-29.62</ele>
        <time>2019-07-14T11:21:11Z</time>
      </trkpt>
      <trkpt lat="47.80287" lon="-3.71303">
        <ele>-29.89</ele>
        <time>2019-07-14T11:21:12Z</time>
      </trkpt>
      <trkpt lat="47.80285" lon="-3.7131">
        <ele>-30.19</ele>
        <time>2019-07-14T11:21:13Z</time>
      </trkpt>
      <trkpt lat="47.80284" lon="-3.71321">
        <ele>-30.62</ele>
        <time>2019-07-14T11:21:15Z</time>
      </trkpt>
      <trkpt lat="47.80283" lon="-3.71332">
        <ele>-31.38</ele>
        <time>2019-07-14T11:21:17Z</time>
      </trkpt>
      <trkpt lat="47.80283" lon="-3.71346">
        <ele>-32.23</ele>
        <time>2019-07-14T11:21:19Z</time>
      </trkpt>
      <trkpt lat="47.8028" lon="-3.71357">
        <ele>-32.3</ele>
        <time>2019-07-14T11:21:21Z</time>
      </trkpt>
      <trkpt lat="47.80278" lon="-3.71369">
        <ele>-32.15</ele>
        <time>2019-07-14T11:21:23Z</time>
      </trkpt>
      <trkpt lat="47.80277" lon="-3.7138">
        <ele>-31.98</ele>
        <time>2019-07-14T11:21:25Z</time>
      </trkpt>
      <trkpt lat="47.80276" lon="-3.71389">
        <ele>-31.41</ele>
        <time>2019-07-14T11:21:27Z</time>
      </trkpt>
      <trkpt lat="47.80275" lon="-3.71398">
        <ele>-31.21</ele>
        <time>2019-07-14T11:21:29Z</time>
      </trkpt>
      <trkpt lat="47.80273" lon="-3.71406">
        <ele>-31.41</ele>
        <time>2019-07-14T11:21:31Z</time>
      </trkpt>
      <trkpt lat="47.80271" lon="-3.71414">
        <ele>-31.53</ele>
        <time>2019-07-14T11:21:33Z</time>
      </trkpt>
      <trkpt lat="47.80266" lon="-3.71418">
        <ele>-32.29</ele>
        <time>2019-07-14T11:21:35Z</time>
      </trkpt>
      <trkpt lat="47.8026" lon="-3.7142">
        <ele>-32</ele>
        <time>2019-07-14T11:21:42Z</time>
      </trkpt>
      <trkpt lat="47.80255" lon="-3.71424">
        <ele>-32.22</ele>
        <time>2019-07-14T11:21:44Z</time>
      </trkpt>
      <trkpt lat="47.80251" lon="-3.71431">
        <ele>-32.39</ele>
        <time>2019-07-14T11:21:46Z</time>
      </trkpt>
      <trkpt lat="47.80248" lon="-3.71438">
        <ele>-32.93</ele>
        <time>2019-07-14T11:21:49Z</time>
      </trkpt>
      <trkpt lat="47.80247" lon="-3.71448">
        <ele>-33.59</ele>
        <time>2019-07-14T11:21:57Z</time>
      </trkpt>
      <trkpt lat="47.80248" lon="-3.71454">
        <ele>-34.1</ele>
        <time>2019-07-14T11:21:58Z</time>
      </trkpt>
      <trkpt lat="47.80249" lon="-3.71462">
        <ele>-34.6</ele>
        <time>2019-07-14T11:21:59Z</time>
      </trkpt>
      <trkpt lat="47.80251" lon="-3.71471">
        <ele>-34.82</ele>
        <time>2019-07-14T11:22:00Z</time>
      </trkpt>
      <trkpt lat="47.80255" lon="-3.71477">
        <ele>-35.02</ele>
        <time>2019-07-14T11:22:01Z</time>
      </trkpt>
      <trkpt lat="47.80259" lon="-3.71484">
        <ele>-35.3</ele>
        <time>2019-07-14T11:22:02Z</time>
      </trkpt>
      <trkpt lat="47.80263" lon="-3.71492">
        <ele>-35.59</ele>
        <time>2019-07-14T11:22:03Z</time>
      </trkpt>
      <trkpt lat="47.80267" lon="-3.715">
        <ele>-35.95</ele>
        <time>2019-07-14T11:22:04Z</time>
      </trkpt>
      <trkpt lat="47.8027" lon="-3.71507">
        <ele>-36.2</ele>
        <time>2019-07-14T11:22:05Z</time>
      </trkpt>
      <trkpt lat="47.80273" lon="-3.71513">
        <ele>-36.7</ele>
        <time>2019-07-14T11:22:06Z</time>
      </trkpt>
      <trkpt lat="47.80277" lon="-3.71522">
        <ele>-37.88</ele>
        <time>2019-07-14T11:22:08Z</time>
      </trkpt>
      <trkpt lat="47.8028" lon="-3.7153">
        <ele>-37.91</ele>
        <time>2019-07-14T11:22:12Z</time>
      </trkpt>
      <trkpt lat="47.80281" lon="-3.71538">
        <ele>-38.74</ele>
        <time>2019-07-14T11:22:14Z</time>
      </trkpt>
      <trkpt lat="47.8028" lon="-3.7155">
        <ele>-40.21</ele>
        <time>2019-07-14T11:22:16Z</time>
      </trkpt>
      <trkpt lat="47.80279" lon="-3.71556">
        <ele>-40.77</ele>
        <time>2019-07-14T11:22:17Z</time>
      </trkpt>
      <trkpt lat="47.80278" lon="-3.71563">
        <ele>-41.5</ele>
        <time>2019-07-14T11:22:18Z</time>
      </trkpt>
      <trkpt lat="47.80277" lon="-3.7157">
        <ele>-42.21</ele>
        <time>2019-07-14T11:22:19Z</time>
      </trkpt>
      <trkpt lat="47.80275" lon="-3.71578">
        <ele>-42.77</ele>
        <time>2019-07-14T11:22:20Z</time>
      </trkpt>
      <trkpt lat="47.80273" lon="-3.71586">
        <ele>-42.73</ele>
        <time>2019-07-14T11:22:21Z</time>
      </trkpt>
      <trkpt lat="47.80272" lon="-3.71594">
        <ele>-42.44</ele>
        <time>2019-07-14T11:22:22Z</time>
      </trkpt>
      <trkpt lat="47.8027" lon="-3.71602">
        <ele>-42</ele>
        <time>2019-07-14T11:22:23Z</time>
      </trkpt>
      <trkpt lat="47.80268" lon="-3.7161">
        <ele>-41.52</ele>
        <time>2019-07-14T11:22:24Z</time>
      </trkpt>
      <trkpt lat="47.80266" lon="-3.71617">
        <ele>-41.3</ele>
        <time>2019-07-14T11:22:25Z</time>
      </trkpt>
      <trkpt lat="47.80264" lon="-3.71625">
        <ele>-41.24</ele>
        <time>2019-07-14T11:22:26Z</time>
      </trkpt>
      <trkpt lat="47.80262" lon="-3.71632">
        <ele>-41.57</ele>
        <time>2019-07-14T11:22:27Z</time>
      </trkpt>
      <trkpt lat="47.80261" lon="-3.7164">
        <ele>-41.53</ele>
        <time>2019-07-14T11:22:28Z</time>
      </trkpt>
      <trkpt lat="47.80261" lon="-3.71648">
        <ele>-41.38</ele>
        <time>2019-07-14T11:22:29Z</time>
      </trkpt>
      <trkpt lat="47.8026" lon="-3.71655">
        <ele>-41.61</ele>
        <time>2019-07-14T11:22:30Z</time>
      </trkpt>
      <trkpt lat="47.80259" lon="-3.71662">
        <ele>-41.82</ele>
        <time>2019-07-14T11:22:31Z</time>
      </trkpt>
      <trkpt lat="47.80258" lon="-3.71669">
        <ele>-42.09</ele>
        <time>2019-07-14T11:22:32Z</time>
      </trkpt>
      <trkpt lat="47.80257" lon="-3.71675">
        <ele>-42.6</ele>
        <time>2019-07-14T11:22:33Z</time>
      </trkpt>
      <trkpt lat="47.80257" lon="-3.71683">
        <ele>-43.38</ele>
        <time>2019-07-14T11:22:34Z</time>
      </trkpt>
      <trkpt lat="47.80255" lon="-3.71691">
        <ele>-44.31</ele>
        <time>2019-07-14T11:22:35Z</time>
      </trkpt>
      <trkpt lat="47.80254" lon="-3.717">
        <ele>-44.8</ele>
        <time>2019-07-14T11:22:36Z</time>
      </trkpt>
      <trkpt lat="47.80253" lon="-3.71708">
        <ele>-44.95</ele>
        <time>2019-07-14T11:22:37Z</time>
      </trkpt>
      <trkpt lat="47.80251" lon="-3.71715">
        <ele>-45.34</ele>
        <time>2019-07-14T11:22:38Z</time>
      </trkpt>
      <trkpt lat="47.80249" lon="-3.71724">
        <ele>-46.16</ele>
        <time>2019-07-14T11:22:39Z</time>
      </trkpt>
      <trkpt lat="47.80247" lon="-3.71732">
        <ele>-46.27</ele>
        <time>2019-07-14T11:22:40Z</time>
      </trkpt>
      <trkpt lat="47.80247" lon="-3.7174">
        <ele>-46.23</ele>
        <time>2019-07-14T11:22:41Z</time>
      </trkpt>
      <trkpt lat="47.80246" lon="-3.71748">
        <ele>-46.08</ele>
        <time>2019-07-14T11:22:42Z</time>
      </trkpt>
      <trkpt lat="47.80245" lon="-3.71756">
        <ele>-45.82</ele>
        <time>2019-07-14T11:22:43Z</time>
      </trkpt>
      <trkpt lat="47.80244" lon="-3.71763">
        <ele>-46.09</ele>
        <time>2019-07-14T11:22:44Z</time>
      </trkpt>
      <trkpt lat="47.80243" lon="-3.7177">
        <ele>-45.97</ele>
        <time>2019-07-14T11:22:45Z</time>
      </trkpt>
      <trkpt lat="47.80241" lon="-3.71778">
        <ele>-46.07</ele>
        <time>2019-07-14T11:22:46Z</time>
      </trkpt>
      <trkpt lat="47.80239" lon="-3.71786">
        <ele>-45.33</ele>
        <time>2019-07-14T11:22:47Z</time>
      </trkpt>
      <trkpt lat="47.80237" lon="-3.71793">
        <ele>-45.04</ele>
        <time>2019-07-14T11:22:48Z</time>
      </trkpt>
      <trkpt lat="47.80235" lon="-3.71802">
        <ele>-45.09</ele>
        <time>2019-07-14T11:22:49Z</time>
      </trkpt>
      <trkpt lat="47.80233" lon="-3.71809">
        <ele>-45.25</ele>
        <time>2019-07-14T11:22:50Z</time>
      </trkpt>
      <trkpt lat="47.80231" lon="-3.71818">
        <ele>-45.22</ele>
        <time>2019-07-14T11:22:51Z</time>
      </trkpt>
      <trkpt lat="47.80229" lon="-3.71825">
        <ele>-45.49</ele>
        <time>2019-07-14T11:22:52Z</time>
      </trkpt>
      <trkpt lat="47.80227" lon="-3.71834">
        <ele>-45.3</ele>
        <time>2019-07-14T11:22:53Z</time>
      </trkpt>
      <trkpt lat="47.80224" lon="-3.71842">
        <ele>-45.45</ele>
        <time>2019-07-14T11:22:54Z</time>
      </trkpt>
      <trkpt lat="47.80222" lon="-3.7185">
        <ele>-45.21</ele>
        <time>2019-07-14T11:22:55Z</time>
      </trkpt>
      <trkpt lat="47.80221" lon="-3.71859">
        <ele>-44.72</ele>
        <time>2019-07-14T11:22:56Z</time>
      </trkpt>
      <trkpt lat="47.80218" lon="-3.71867">
        <ele>-44.44</ele>
        <time>2019-07-14T11:22:57Z</time>
      </trkpt>
      <trkpt lat="47.80216" lon="-3.71875">
        <ele>-44.35</ele>
        <time>2019-07-14T11:22:58Z</time>
      </trkpt>
      <trkpt lat="47.80213" lon="-3.71884">
        <ele>-44.18</ele>
        <time>2019-07-14T11:22:59Z</time>
      </trkpt>
      <trkpt lat="47.80211" lon="-3.71892">
        <ele>-44.27</ele>
        <time>2019-07-14T11:23:00Z</time>
      </trkpt>
      <trkpt lat="47.80209" lon="-3.71901">
        <ele>-44.58</ele>
        <time>2019-07-14T11:23:01Z</time>
      </trkpt>
      <trkpt lat="47.80206" lon="-3.71908">
        <ele>-45.02</ele>
        <time>2019-07-14T11:23:02Z</time>
      </trkpt>
      <trkpt lat="47.80204" lon="-3.71915">
        <ele>-45.3</ele>
        <time>2019-07-14T11:23:03Z</time>
      </trkpt>
      <trkpt lat="47.80201" lon="-3.71921">
        <ele>-45.73</ele>
        <time>2019-07-14T11:23:04Z</time>
      </trkpt>
      <trkpt lat="47.80198" lon="-3.71927">
        <ele>-45.79</ele>
        <time>2019-07-14T11:23:05Z</time>
      </trkpt>
      <trkpt lat="47.80195" lon="-3.71932">
        <ele>-45.66</ele>
        <time>2019-07-14T11:23:06Z</time>
      </trkpt>
      <trkpt lat="47.80189" lon="-3.71941">
        <ele>-45.18</ele>
        <time>2019-07-14T11:23:08Z</time>
      </trkpt>
      <trkpt lat="47.80184" lon="-3.71951">
        <ele>-44.59</ele>
        <time>2019-07-14T11:23:10Z</time>
      </trkpt>
      <trkpt lat="47.80179" lon="-3.71959">
        <ele>-43.94</ele>
        <time>2019-07-14T11:23:12Z</time>
      </trkpt>
      <trkpt lat="47.80175" lon="-3.71965">
        <ele>-43.69</ele>
        <time>2019-07-14T11:23:14Z</time>
      </trkpt>
      <trkpt lat="47.8017" lon="-3.71969">
        <ele>-44.16</ele>
        <time>2019-07-14T11:23:17Z</time>
      </trkpt>
      <trkpt lat="47.80165" lon="-3.7197">
        <ele>-43.58</ele>
        <time>2019-07-14T11:23:23Z</time>
      </trkpt>
      <trkpt lat="47.80163" lon="-3.7198">
        <ele>-43.19</ele>
        <time>2019-07-14T11:23:26Z</time>
      </trkpt>
      <trkpt lat="47.80159" lon="-3.71986">
        <ele>-42.96</ele>
        <time>2019-07-14T11:23:28Z</time>
      </trkpt>
      <trkpt lat="47.80151" lon="-3.7199">
        <ele>-43.38</ele>
        <time>2019-07-14T11:23:30Z</time>
      </trkpt>
      <trkpt lat="47.80143" lon="-3.71995">
        <ele>-43.94</ele>
        <time>2019-07-14T11:23:32Z</time>
      </trkpt>
      <trkpt lat="47.80136" lon="-3.71999">
        <ele>-44.17</ele>
        <time>2019-07-14T11:23:34Z</time>
      </trkpt>
      <trkpt lat="47.8013" lon="-3.72004">
        <ele>-44.65</ele>
        <time>2019-07-14T11:23:36Z</time>
      </trkpt>
      <trkpt lat="47.80124" lon="-3.72008">
        <ele>-45.62</ele>
        <time>2019-07-14T11:23:38Z</time>
      </trkpt>
      <trkpt lat="47.80118" lon="-3.72012">
        <ele>-45.66</ele>
        <time>2019-07-14T11:23:40Z</time>
      </trkpt>
      <trkpt lat="47.80111" lon="-3.72014">
        <ele>-45.04</ele>
        <time>2019-07-14T11:23:42Z</time>
      </trkpt>
      <trkpt lat="47.80105" lon="-3.72015">
        <ele>-44.37</ele>
        <time>2019-07-14T11:23:44Z</time>
      </trkpt>
      <trkpt lat="47.80099" lon="-3.72017">
        <ele>-43.83</ele>
        <time>2019-07-14T11:23:46Z</time>
      </trkpt>
      <trkpt lat="47.80094" lon="-3.72019">
        <ele>-43.15</ele>
        <time>2019-07-14T11:23:48Z</time>
      </trkpt>
      <trkpt lat="47.80089" lon="-3.72025">
        <ele>-42.62</ele>
        <time>2019-07-14T11:23:51Z</time>
      </trkpt>
      <trkpt lat="47.80086" lon="-3.72032">
        <ele>-42.4</ele>
        <time>2019-07-14T11:23:54Z</time>
      </trkpt>
      <trkpt lat="47.80084" lon="-3.72038">
        <ele>-41.9</ele>
        <time>2019-07-14T11:23:56Z</time>
      </trkpt>
      <trkpt lat="47.80082" lon="-3.72046">
        <ele>-40.6</ele>
        <time>2019-07-14T11:23:58Z</time>
      </trkpt>
      <trkpt lat="47.80082" lon="-3.72054">
        <ele>-38.72</ele>
        <time>2019-07-14T11:24:00Z</time>
      </trkpt>
      <trkpt lat="47.80082" lon="-3.72065">
        <ele>-37.24</ele>
        <time>2019-07-14T11:24:02Z</time>
      </trkpt>
      <trkpt lat="47.80082" lon="-3.72077">
        <ele>-36.82</ele>
        <time>2019-07-14T11:24:04Z</time>
      </trkpt>
      <trkpt lat="47.80079" lon="-3.72089">
        <ele>-36.35</ele>
        <time>2019-07-14T11:24:06Z</time>
      </trkpt>
      <trkpt lat="47.80075" lon="-3.72098">
        <ele>-35.35</ele>
        <time>2019-07-14T11:24:08Z</time>
      </trkpt>
      <trkpt lat="47.80069" lon="-3.72106">
        <ele>-35.11</ele>
        <time>2019-07-14T11:24:10Z</time>
      </trkpt>
      <trkpt lat="47.80063" lon="-3.72112">
        <ele>-35.87</ele>
        <time>2019-07-14T11:24:12Z</time>
      </trkpt>
      <trkpt lat="47.80056" lon="-3.72118">
        <ele>-36.51</ele>
        <time>2019-07-14T11:24:14Z</time>
      </trkpt>
      <trkpt lat="47.80052" lon="-3.72122">
        <ele>-37</ele>
        <time>2019-07-14T11:24:15Z</time>
      </trkpt>
      <trkpt lat="47.80048" lon="-3.72127">
        <ele>-37.15</ele>
        <time>2019-07-14T11:24:16Z</time>
      </trkpt>
      <trkpt lat="47.8004" lon="-3.72134">
        <ele>-36.95</ele>
        <time>2019-07-14T11:24:18Z</time>
      </trkpt>
      <trkpt lat="47.80036" lon="-3.72137">
        <ele>-37.34</ele>
        <time>2019-07-14T11:24:19Z</time>
      </trkpt>
      <trkpt lat="47.80031" lon="-3.72139">
        <ele>-37.81</ele>
        <time>2019-07-14T11:24:20Z</time>
      </trkpt>
      <trkpt lat="47.80023" lon="-3.72144">
        <ele>-39</ele>
        <time>2019-07-14T11:24:22Z</time>
      </trkpt>
      <trkpt lat="47.80014" lon="-3.72145">
        <ele>-40.18</ele>
        <time>2019-07-14T11:24:24Z</time>
      </trkpt>
      <trkpt lat="47.8001" lon="-3.72146">
        <ele>-40.97</ele>
        <time>2019-07-14T11:24:25Z</time>
      </trkpt>
      <trkpt lat="47.80002" lon="-3.72143">
        <ele>-41.34</ele>
        <time>2019-07-14T11:24:27Z</time>
      </trkpt>
      <trkpt lat="47.79997" lon="-3.72142">
        <ele>-41.71</ele>
        <time>2019-07-14T11:24:29Z</time>
      </trkpt>
      <trkpt lat="47.79991" lon="-3.72144">
        <ele>-42.47</ele>
        <time>2019-07-14T11:24:32Z</time>
      </trkpt>
      <trkpt lat="47.79987" lon="-3.7215">
        <ele>-43.11</ele>
        <time>2019-07-14T11:24:34Z</time>
      </trkpt>
      <trkpt lat="47.79984" lon="-3.72157">
        <ele>-43.64</ele>
        <time>2019-07-14T11:24:36Z</time>
      </trkpt>
      <trkpt lat="47.7998" lon="-3.72163">
        <ele>-43.62</ele>
        <time>2019-07-14T11:24:39Z</time>
      </trkpt>
      <trkpt lat="47.79978" lon="-3.72169">
        <ele>-42.68</ele>
        <time>2019-07-14T11:24:42Z</time>
      </trkpt>
      <trkpt lat="47.79975" lon="-3.72175">
        <ele>-41.84</ele>
        <time>2019-07-14T11:24:44Z</time>
      </trkpt>
      <trkpt lat="47.79972" lon="-3.7218">
        <ele>-41.54</ele>
        <time>2019-07-14T11:24:46Z</time>
      </trkpt>
      <trkpt lat="47.79969" lon="-3.72188">
        <ele>-41.88</ele>
        <time>2019-07-14T11:24:48Z</time>
      </trkpt>
      <trkpt lat="47.79969" lon="-3.72197">
        <ele>-41.88</ele>
        <time>2019-07-14T11:24:50Z</time>
      </trkpt>
      <trkpt lat="47.79965" lon="-3.72206">
        <ele>-42.63</ele>
        <time>2019-07-14T11:24:52Z</time>
      </trkpt>
      <trkpt lat="47.79959" lon="-3.7221">
        <ele>-42.43</ele>
        <time>2019-07-14T11:24:54Z</time>
      </trkpt>
      <trkpt lat="47.79954" lon="-3.72216">
        <ele>-42.53</ele>
        <time>2019-07-14T11:24:56Z</time>
      </trkpt>
      <trkpt lat="47.79949" lon="-3.72222">
        <ele>-43.16</ele>
        <time>2019-07-14T11:24:58Z</time>
      </trkpt>
      <trkpt lat="47.79942" lon="-3.72225">
        <ele>-43.34</ele>
        <time>2019-07-14T11:25:00Z</time>
      </trkpt>
      <trkpt lat="47.79937" lon="-3.72229">
        <ele>-42.64</ele>
        <time>2019-07-14T11:25:02Z</time>
      </trkpt>
      <trkpt lat="47.79933" lon="-3.72236">
        <ele>-41.47</ele>
        <time>2019-07-14T11:25:04Z</time>
      </trkpt>
      <trkpt lat="47.79929" lon="-3.72246">
        <ele>-40.62</ele>
        <time>2019-07-14T11:25:06Z</time>
      </trkpt>
      <trkpt lat="47.79923" lon="-3.72255">
        <ele>-40.54</ele>
        <time>2019-07-14T11:25:08Z</time>
      </trkpt>
      <trkpt lat="47.79919" lon="-3.72259">
        <ele>-40.8</ele>
        <time>2019-07-14T11:25:09Z</time>
      </trkpt>
      <trkpt lat="47.79914" lon="-3.72262">
        <ele>-41.93</ele>
        <time>2019-07-14T11:25:10Z</time>
      </trkpt>
      <trkpt lat="47.7991" lon="-3.72265">
        <ele>-42.2</ele>
        <time>2019-07-14T11:25:11Z</time>
      </trkpt>
      <trkpt lat="47.79905" lon="-3.72268">
        <ele>-42.28</ele>
        <time>2019-07-14T11:25:12Z</time>
      </trkpt>
      <trkpt lat="47.79897" lon="-3.7227">
        <ele>-41.87</ele>
        <time>2019-07-14T11:25:14Z</time>
      </trkpt>
      <trkpt lat="47.79891" lon="-3.72267">
        <ele>-41.73</ele>
        <time>2019-07-14T11:25:16Z</time>
      </trkpt>
      <trkpt lat="47.79885" lon="-3.72263">
        <ele>-41.55</ele>
        <time>2019-07-14T11:25:18Z</time>
      </trkpt>
      <trkpt lat="47.7988" lon="-3.72256">
        <ele>-40.89</ele>
        <time>2019-07-14T11:25:20Z</time>
      </trkpt>
      <trkpt lat="47.79876" lon="-3.72248">
        <ele>-40.43</ele>
        <time>2019-07-14T11:25:22Z</time>
      </trkpt>
      <trkpt lat="47.79872" lon="-3.72241">
        <ele>-40.6</ele>
        <time>2019-07-14T11:25:24Z</time>
      </trkpt>
      <trkpt lat="47.79866" lon="-3.72239">
        <ele>-41.67</ele>
        <time>2019-07-14T11:25:26Z</time>
      </trkpt>
      <trkpt lat="47.79859" lon="-3.72238">
        <ele>-42.3</ele>
        <time>2019-07-14T11:25:28Z</time>
      </trkpt>
      <trkpt lat="47.79852" lon="-3.7224">
        <ele>-43.32</ele>
        <time>2019-07-14T11:25:30Z</time>
      </trkpt>
      <trkpt lat="47.79845" lon="-3.72244">
        <ele>-43.15</ele>
        <time>2019-07-14T11:25:32Z</time>
      </trkpt>
      <trkpt lat="47.79838" lon="-3.72252">
        <ele>-43.44</ele>
        <time>2019-07-14T11:25:34Z</time>
      </trkpt>
      <trkpt lat="47.79834" lon="-3.72255">
        <ele>-44.12</ele>
        <time>2019-07-14T11:25:35Z</time>
      </trkpt>
      <trkpt lat="47.79829" lon="-3.72255">
        <ele>-45.16</ele>
        <time>2019-07-14T11:25:36Z</time>
      </trkpt>
      <trkpt lat="47.79824" lon="-3.72252">
        <ele>-45.48</ele>
        <time>2019-07-14T11:25:37Z</time>
      </trkpt>
      <trkpt lat="47.79819" lon="-3.72249">
        <ele>-45.57</ele>
        <time>2019-07-14T11:25:38Z</time>
      </trkpt>
      <trkpt lat="47.79815" lon="-3.72245">
        <ele>-45.81</ele>
        <time>2019-07-14T11:25:39Z</time>
      </trkpt>
      <trkpt lat="47.79811" lon="-3.72241">
        <ele>-45.95</ele>
        <time>2019-07-14T11:25:40Z</time>
      </trkpt>
      <trkpt lat="47.79806" lon="-3.72236">
        <ele>-46.13</ele>
        <time>2019-07-14T11:25:41Z</time>
      </trkpt>
      <trkpt lat="47.798" lon="-3.72227">
        <ele>-45.95</ele>
        <time>2019-07-14T11:25:43Z</time>
      </trkpt>
      <trkpt lat="47.79797" lon="-3.72215">
        <ele>-45.75</ele>
        <time>2019-07-14T11:25:45Z</time>
      </trkpt>
      <trkpt lat="47.79796" lon="-3.72204">
        <ele>-45.14</ele>
        <time>2019-07-14T11:25:47Z</time>
      </trkpt>
      <trkpt lat="47.79797" lon="-3.72193">
        <ele>-44.31</ele>
        <time>2019-07-14T11:25:49Z</time>
      </trkpt>
      <trkpt lat="47.79799" lon="-3.72183">
        <ele>-43.25</ele>
        <time>2019-07-14T11:25:51Z</time>
      </trkpt>
      <trkpt lat="47.79801" lon="-3.72172">
        <ele>-42.17</ele>
        <time>2019-07-14T11:25:53Z</time>
      </trkpt>
      <trkpt lat="47.79802" lon="-3.72161">
        <ele>-41.33</ele>
        <time>2019-07-14T11:25:55Z</time>
      </trkpt>
      <trkpt lat="47.79802" lon="-3.72149">
        <ele>-40.68</ele>
        <time>2019-07-14T11:25:57Z</time>
      </trkpt>
      <trkpt lat="47.79802" lon="-3.72139">
        <ele>-41.03</ele>
        <time>2019-07-14T11:25:59Z</time>
      </trkpt>
      <trkpt lat="47.79803" lon="-3.72128">
        <ele>-40.99</ele>
        <time>2019-07-14T11:26:01Z</time>
      </trkpt>
      <trkpt lat="47.79801" lon="-3.72117">
        <ele>-40.91</ele>
        <time>2019-07-14T11:26:03Z</time>
      </trkpt>
      <trkpt lat="47.79802" lon="-3.72105">
        <ele>-39.9</ele>
        <time>2019-07-14T11:26:05Z</time>
      </trkpt>
      <trkpt lat="47.79802" lon="-3.72094">
        <ele>-39.71</ele>
        <time>2019-07-14T11:26:07Z</time>
      </trkpt>
      <trkpt lat="47.79802" lon="-3.72083">
        <ele>-40.26</ele>
        <time>2019-07-14T11:26:09Z</time>
      </trkpt>
      <trkpt lat="47.79799" lon="-3.72073">
        <ele>-40.9</ele>
        <time>2019-07-14T11:26:11Z</time>
      </trkpt>
      <trkpt lat="47.79793" lon="-3.72063">
        <ele>-41.3</ele>
        <time>2019-07-14T11:26:13Z</time>
      </trkpt>
      <trkpt lat="47.7979" lon="-3.72058">
        <ele>-41.66</ele>
        <time>2019-07-14T11:26:14Z</time>
      </trkpt>
      <trkpt lat="47.79787" lon="-3.72052">
        <ele>-41.91</ele>
        <time>2019-07-14T11:26:15Z</time>
      </trkpt>
      <trkpt lat="47.79783" lon="-3.72045">
        <ele>-41.98</ele>
        <time>2019-07-14T11:26:16Z</time>
      </trkpt>
      <trkpt lat="47.7978" lon="-3.72039">
        <ele>-42.21</ele>
        <time>2019-07-14T11:26:17Z</time>
      </trkpt>
      <trkpt lat="47.79777" lon="-3.72032">
        <ele>-42.77</ele>
        <time>2019-07-14T11:26:18Z</time>
      </trkpt>
      <trkpt lat="47.79775" lon="-3.72026">
        <ele>-42.8</ele>
        <time>2019-07-14T11:26:19Z</time>
      </trkpt>
      <trkpt lat="47.79774" lon="-3.72019">
        <ele>-43.02</ele>
        <time>2019-07-14T11:26:20Z</time>
      </trkpt>
      <trkpt lat="47.79775" lon="-3.72007">
        <ele>-42.71</ele>
        <time>2019-07-14T11:26:22Z</time>
      </trkpt>
      <trkpt lat="47.79775" lon="-3.71995">
        <ele>-42.78</ele>
        <time>2019-07-14T11:26:24Z</time>
      </trkpt>
      <trkpt lat="47.79775" lon="-3.71982">
        <ele>-42.92</ele>
        <time>2019-07-14T11:26:26Z</time>
      </trkpt>
      <trkpt lat="47.79775" lon="-3.7197">
        <ele>-42.78</ele>
        <time>2019-07-14T11:26:28Z</time>
      </trkpt>
      <trkpt lat="47.79776" lon="-3.71959">
        <ele>-43.03</ele>
        <time>2019-07-14T11:26:30Z</time>
      </trkpt>
      <trkpt lat="47.79776" lon="-3.71948">
        <ele>-43.04</ele>
        <time>2019-07-14T11:26:32Z</time>
      </trkpt>
      <trkpt lat="47.79775" lon="-3.71937">
        <ele>-42.85</ele>
        <time>2019-07-14T11:26:34Z</time>
      </trkpt>
      <trkpt lat="47.79773" lon="-3.71927">
        <ele>-42.79</ele>
        <time>2019-07-14T11:26:36Z</time>
      </trkpt>
      <trkpt lat="47.79771" lon="-3.71916">
        <ele>-43.38</ele>
        <time>2019-07-14T11:26:38Z</time>
      </trkpt>
      <trkpt lat="47.79772" lon="-3.71904">
        <ele>-44.32</ele>
        <time>2019-07-14T11:26:40Z</time>
      </trkpt>
      <trkpt lat="47.79774" lon="-3.71895">
        <ele>-45.31</ele>
        <time>2019-07-14T11:26:42Z</time>
      </trkpt>
      <trkpt lat="47.79776" lon="-3.71884">
        <ele>-46.66</ele>
        <time>2019-07-14T11:26:44Z</time>
      </trkpt>
      <trkpt lat="47.79774" lon="-3.71875">
        <ele>-47.86</ele>
        <time>2019-07-14T11:26:46Z</time>
      </trkpt>
      <trkpt lat="47.7977" lon="-3.71873">
        <ele>-47.33</ele>
        <time>2019-07-14T11:26:48Z</time>
      </trkpt>
      <trkpt lat="47.79765" lon="-3.71875">
        <ele>-47.94</ele>
        <time>2019-07-14T11:26:50Z</time>
      </trkpt>
      <trkpt lat="47.7976" lon="-3.71875">
        <ele>-48.3</ele>
        <time>2019-07-14T11:26:52Z</time>
      </trkpt>
      <trkpt lat="47.79751" lon="-3.71868">
        <ele>-48.51</ele>
        <time>2019-07-14T11:27:12Z</time>
      </trkpt>
      <trkpt lat="47.7974" lon="-3.71863">
        <ele>-47.18</ele>
        <time>2019-07-14T11:27:26Z</time>
      </trkpt>
      <trkpt lat="47.79735" lon="-3.7186">
        <ele>-46.59</ele>
        <time>2019-07-14T11:27:28Z</time>
      </trkpt>
      <trkpt lat="47.79732" lon="-3.71855">
        <ele>-45.83</ele>
        <time>2019-07-14T11:27:30Z</time>
      </trkpt>
      <trkpt lat="47.79729" lon="-3.7185">
        <ele>-45.36</ele>
        <time>2019-07-14T11:27:32Z</time>
      </trkpt>
      <trkpt lat="47.79725" lon="-3.71844">
        <ele>-45.11</ele>
        <time>2019-07-14T11:27:34Z</time>
      </trkpt>
      <trkpt lat="47.7972" lon="-3.71839">
        <ele>-45.04</ele>
        <time>2019-07-14T11:27:36Z</time>
      </trkpt>
      <trkpt lat="47.79716" lon="-3.71835">
        <ele>-45.15</ele>
        <time>2019-07-14T11:27:38Z</time>
      </trkpt>
      <trkpt lat="47.79712" lon="-3.71832">
        <ele>-44.53</ele>
        <time>2019-07-14T11:27:40Z</time>
      </trkpt>
      <trkpt lat="47.79708" lon="-3.71827">
        <ele>-43.72</ele>
        <time>2019-07-14T11:27:42Z</time>
      </trkpt>
      <trkpt lat="47.79705" lon="-3.71821">
        <ele>-43.56</ele>
        <time>2019-07-14T11:27:44Z</time>
      </trkpt>
      <trkpt lat="47.79702" lon="-3.71814">
        <ele>-43.33</ele>
        <time>2019-07-14T11:27:46Z</time>
      </trkpt>
      <trkpt lat="47.79699" lon="-3.71807">
        <ele>-43.08</ele>
        <time>2019-07-14T11:27:48Z</time>
      </trkpt>
      <trkpt lat="47.79696" lon="-3.71799">
        <ele>-42.4</ele>
        <time>2019-07-14T11:27:50Z</time>
      </trkpt>
      <trkpt lat="47.79692" lon="-3.71792">
        <ele>-42.02</ele>
        <time>2019-07-14T11:27:52Z</time>
      </trkpt>
      <trkpt lat="47.79688" lon="-3.71785">
        <ele>-41.09</ele>
        <time>2019-07-14T11:27:54Z</time>
      </trkpt>
      <trkpt lat="47.79683" lon="-3.71779">
        <ele>-40.17</ele>
        <time>2019-07-14T11:27:56Z</time>
      </trkpt>
      <trkpt lat="47.79677" lon="-3.71773">
        <ele>-39.61</ele>
        <time>2019-07-14T11:27:58Z</time>
      </trkpt>
      <trkpt lat="47.79671" lon="-3.71766">
        <ele>-38.74</ele>
        <time>2019-07-14T11:28:00Z</time>
      </trkpt>
      <trkpt lat="47.79665" lon="-3.71759">
        <ele>-37.94</ele>
        <time>2019-07-14T11:28:02Z</time>
      </trkpt>
      <trkpt lat="47.79658" lon="-3.71752">
        <ele>-37.8</ele>
        <time>2019-07-14T11:28:04Z</time>
      </trkpt>
      <trkpt lat="47.79651" lon="-3.71744">
        <ele>-38.5</ele>
        <time>2019-07-14T11:28:06Z</time>
      </trkpt>
      <trkpt lat="47.79645" lon="-3.71735">
        <ele>-38.41</ele>
        <time>2019-07-14T11:28:08Z</time>
      </trkpt>
      <trkpt lat="47.7964" lon="-3.71725">
        <ele>-38.41</ele>
        <time>2019-07-14T11:28:10Z</time>
      </trkpt>
      <trkpt lat="47.79637" lon="-3.71717">
        <ele>-38.16</ele>
        <time>2019-07-14T11:28:12Z</time>
      </trkpt>
      <trkpt lat="47.79633" lon="-3.7171">
        <ele>-37.1</ele>
        <time>2019-07-14T11:28:14Z</time>
      </trkpt>
      <trkpt lat="47.79629" lon="-3.71704">
        <ele>-36.63</ele>
        <time>2019-07-14T11:28:17Z</time>
      </trkpt>
      <trkpt lat="47.79625" lon="-3.71696">
        <ele>-36.03</ele>
        <time>2019-07-14T11:28:20Z</time>
      </trkpt>
      <trkpt lat="47.7962" lon="-3.71691">
        <ele>-35.74</ele>
        <time>2019-07-14T11:28:22Z</time>
      </trkpt>
      <trkpt lat="47.79615" lon="-3.71686">
        <ele>-35.83</ele>
        <time>2019-07-14T11:28:24Z</time>
      </trkpt>
      <trkpt lat="47.79611" lon="-3.7168">
        <ele>-36.18</ele>
        <time>2019-07-14T11:28:26Z</time>
      </trkpt>
      <trkpt lat="47.79608" lon="-3.71672">
        <ele>-36.05</ele>
        <time>2019-07-14T11:28:28Z</time>
      </trkpt>
      <trkpt lat="47.79605" lon="-3.71664">
        <ele>-36.34</ele>
        <time>2019-07-14T11:28:30Z</time>
      </trkpt>
      <trkpt lat="47.79601" lon="-3.71656">
        <ele>-36.45</ele>
        <time>2019-07-14T11:28:32Z</time>
      </trkpt>
      <trkpt lat="47.79596" lon="-3.71652">
        <ele>-36.51</ele>
        <time>2019-07-14T11:28:34Z</time>
      </trkpt>
      <trkpt lat="47.79591" lon="-3.71649">
        <ele>-36.35</ele>
        <time>2019-07-14T11:28:36Z</time>
      </trkpt>
      <trkpt lat="47.79585" lon="-3.71645">
        <ele>-36.11</ele>
        <time>2019-07-14T11:28:38Z</time>
      </trkpt>
      <trkpt lat="47.79581" lon="-3.71637">
        <ele>-36.27</ele>
        <time>2019-07-14T11:28:40Z</time>
      </trkpt>
      <trkpt lat="47.79578" lon="-3.71628">
        <ele>-36.95</ele>
        <time>2019-07-14T11:28:42Z</time>
      </trkpt>
      <trkpt lat="47.79572" lon="-3.71619">
        <ele>-36.96</ele>
        <time>2019-07-14T11:28:44Z</time>
      </trkpt>
      <trkpt lat="47.79568" lon="-3.71608">
        <ele>-37.88</ele>
        <time>2019-07-14T11:28:46Z</time>
      </trkpt>
      <trkpt lat="47.79567" lon="-3.71601">
        <ele>-38.25</ele>
        <time>2019-07-14T11:28:47Z</time>
      </trkpt>
      <trkpt lat="47.79566" lon="-3.71589">
        <ele>-38.44</ele>
        <time>2019-07-14T11:28:49Z</time>
      </trkpt>
      <trkpt lat="47.79567" lon="-3.7158">
        <ele>-38.81</ele>
        <time>2019-07-14T11:28:51Z</time>
      </trkpt>
      <trkpt lat="47.79566" lon="-3.71572">
        <ele>-38.74</ele>
        <time>2019-07-14T11:28:53Z</time>
      </trkpt>
      <trkpt lat="47.79566" lon="-3.71563">
        <ele>-37.8</ele>
        <time>2019-07-14T11:28:56Z</time>
      </trkpt>
      <trkpt lat="47.79565" lon="-3.71554">
        <ele>-36.64</ele>
        <time>2019-07-14T11:28:59Z</time>
      </trkpt>
      <trkpt lat="47.79557" lon="-3.71552">
        <ele>-37.83</ele>
        <time>2019-07-14T11:29:14Z</time>
      </trkpt>
      <trkpt lat="47.79554" lon="-3.71544">
        <ele>-38.6</ele>
        <time>2019-07-14T11:29:19Z</time>
      </trkpt>
      <trkpt lat="47.79553" lon="-3.71537">
        <ele>-38.95</ele>
        <time>2019-07-14T11:29:21Z</time>
      </trkpt>
      <trkpt lat="47.79553" lon="-3.71529">
        <ele>-39.03</ele>
        <time>2019-07-14T11:29:23Z</time>
      </trkpt>
      <trkpt lat="47.79551" lon="-3.71522">
        <ele>-39.08</ele>
        <time>2019-07-14T11:29:25Z</time>
      </trkpt>
      <trkpt lat="47.79547" lon="-3.71514">
        <ele>-39.02</ele>
        <time>2019-07-14T11:29:27Z</time>
      </trkpt>
      <trkpt lat="47.79543" lon="-3.71506">
        <ele>-39.01</ele>
        <time>2019-07-14T11:29:29Z</time>
      </trkpt>
      <trkpt lat="47.79539" lon="-3.71499">
        <ele>-39.19</ele>
        <time>2019-07-14T11:29:31Z</time>
      </trkpt>
      <trkpt lat="47.79534" lon="-3.7149">
        <ele>-39.07</ele>
        <time>2019-07-14T11:29:33Z</time>
      </trkpt>
      <trkpt lat="47.79528" lon="-3.71484">
        <ele>-38.98</ele>
        <time>2019-07-14T11:29:35Z</time>
      </trkpt>
      <trkpt lat="47.79524" lon="-3.71476">
        <ele>-39.38</ele>
        <time>2019-07-14T11:29:37Z</time>
      </trkpt>
      <trkpt lat="47.7952" lon="-3.71466">
        <ele>-39.87</ele>
        <time>2019-07-14T11:29:39Z</time>
      </trkpt>
      <trkpt lat="47.79518" lon="-3.71456">
        <ele>-40.28</ele>
        <time>2019-07-14T11:29:41Z</time>
      </trkpt>
      <trkpt lat="47.79518" lon="-3.71446">
        <ele>-41.35</ele>
        <time>2019-07-14T11:29:43Z</time>
      </trkpt>
      <trkpt lat="47.79518" lon="-3.71436">
        <ele>-41.22</ele>
        <time>2019-07-14T11:29:45Z</time>
      </trkpt>
      <trkpt lat="47.79514" lon="-3.71428">
        <ele>-40.82</ele>
        <time>2019-07-14T11:29:47Z</time>
      </trkpt>
      <trkpt lat="47.79509" lon="-3.71422">
        <ele>-40.41</ele>
        <time>2019-07-14T11:29:49Z</time>
      </trkpt>
      <trkpt lat="47.79502" lon="-3.71422">
        <ele>-41.04</ele>
        <time>2019-07-14T11:29:51Z</time>
      </trkpt>
      <trkpt lat="47.79493" lon="-3.71422">
        <ele>-42.16</ele>
        <time>2019-07-14T11:29:53Z</time>
      </trkpt>
      <trkpt lat="47.79489" lon="-3.71422">
        <ele>-42.27</ele>
        <time>2019-07-14T11:29:54Z</time>
      </trkpt>
      <trkpt lat="47.79484" lon="-3.71422">
        <ele>-42.51</ele>
        <time>2019-07-14T11:29:55Z</time>
      </trkpt>
      <trkpt lat="47.7948" lon="-3.71422">
        <ele>-43.42</ele>
        <time>2019-07-14T11:29:56Z</time>
      </trkpt>
      <trkpt lat="47.79474" lon="-3.71422">
        <ele>-44.39</ele>
        <time>2019-07-14T11:29:57Z</time>
      </trkpt>
      <trkpt lat="47.79468" lon="-3.71422">
        <ele>-44.9</ele>
        <time>2019-07-14T11:29:58Z</time>
      </trkpt>
      <trkpt lat="47.79463" lon="-3.7142">
        <ele>-45.4</ele>
        <time>2019-07-14T11:29:59Z</time>
      </trkpt>
      <trkpt lat="47.79458" lon="-3.71418">
        <ele>-45.97</ele>
        <time>2019-07-14T11:30:00Z</time>
      </trkpt>
      <trkpt lat="47.79454" lon="-3.71414">
        <ele>-46.42</ele>
        <time>2019-07-14T11:30:01Z</time>
      </trkpt>
      <trkpt lat="47.7945" lon="-3.7141">
        <ele>-46.69</ele>
        <time>2019-07-14T11:30:02Z</time>
      </trkpt>
      <trkpt lat="47.79446" lon="-3.71405">
        <ele>-46.64</ele>
        <time>2019-07-14T11:30:03Z</time>
      </trkpt>
      <trkpt lat="47.79443" lon="-3.71401">
        <ele>-46.55</ele>
        <time>2019-07-14T11:30:04Z</time>
      </trkpt>
      <trkpt lat="47.79439" lon="-3.71395">
        <ele>-46.52</ele>
        <time>2019-07-14T11:30:05Z</time>
      </trkpt>
      <trkpt lat="47.79437" lon="-3.7139">
        <ele>-46.24</ele>
        <time>2019-07-14T11:30:06Z</time>
      </trkpt>
      <trkpt lat="47.79431" lon="-3.71381">
        <ele>-45.58</ele>
        <time>2019-07-14T11:30:08Z</time>
      </trkpt>
      <trkpt lat="47.79423" lon="-3.71376">
        <ele>-45.61</ele>
        <time>2019-07-14T11:30:10Z</time>
      </trkpt>
      <trkpt lat="47.79416" lon="-3.71371">
        <ele>-45.72</ele>
        <time>2019-07-14T11:30:12Z</time>
      </trkpt>
      <trkpt lat="47.79411" lon="-3.71363">
        <ele>-45.44</ele>
        <time>2019-07-14T11:30:14Z</time>
      </trkpt>
      <trkpt lat="47.79409" lon="-3.71353">
        <ele>-45.13</ele>
        <time>2019-07-14T11:30:16Z</time>
      </trkpt>
      <trkpt lat="47.79407" lon="-3.71346">
        <ele>-43.97</ele>
        <time>2019-07-14T11:30:18Z</time>
      </trkpt>
      <trkpt lat="47.79406" lon="-3.71339">
        <ele>-42.56</ele>
        <time>2019-07-14T11:30:20Z</time>
      </trkpt>
      <trkpt lat="47.79405" lon="-3.7133">
        <ele>-41.37</ele>
        <time>2019-07-14T11:30:22Z</time>
      </trkpt>
      <trkpt lat="47.79403" lon="-3.71321">
        <ele>-41.05</ele>
        <time>2019-07-14T11:30:24Z</time>
      </trkpt>
      <trkpt lat="47.794" lon="-3.7131">
        <ele>-41.15</ele>
        <time>2019-07-14T11:30:26Z</time>
      </trkpt>
      <trkpt lat="47.79398" lon="-3.71299">
        <ele>-41.23</ele>
        <time>2019-07-14T11:30:28Z</time>
      </trkpt>
      <trkpt lat="47.79397" lon="-3.71289">
        <ele>-41.87</ele>
        <time>2019-07-14T11:30:30Z</time>
      </trkpt>
      <trkpt lat="47.79397" lon="-3.7128">
        <ele>-42.26</ele>
        <time>2019-07-14T11:30:32Z</time>
      </trkpt>
      <trkpt lat="47.794" lon="-3.71269">
        <ele>-43.22</ele>
        <time>2019-07-14T11:30:34Z</time>
      </trkpt>
      <trkpt lat="47.79403" lon="-3.71261">
        <ele>-43.72</ele>
        <time>2019-07-14T11:30:36Z</time>
      </trkpt>
      <trkpt lat="47.79407" lon="-3.71257">
        <ele>-43.64</ele>
        <time>2019-07-14T11:30:38Z</time>
      </trkpt>
      <trkpt lat="47.79413" lon="-3.71254">
        <ele>-43.71</ele>
        <time>2019-07-14T11:30:40Z</time>
      </trkpt>
      <trkpt lat="47.79418" lon="-3.7125">
        <ele>-43.12</ele>
        <time>2019-07-14T11:30:42Z</time>
      </trkpt>
      <trkpt lat="47.79424" lon="-3.71247">
        <ele>-42.34</ele>
        <time>2019-07-14T11:30:44Z</time>
      </trkpt>
      <trkpt lat="47.79429" lon="-3.71246">
        <ele>-41.74</ele>
        <time>2019-07-14T11:30:46Z</time>
      </trkpt>
      <trkpt lat="47.79433" lon="-3.71241">
        <ele>-42.2</ele>
        <time>2019-07-14T11:30:49Z</time>
      </trkpt>
      <trkpt lat="47.79438" lon="-3.71232">
        <ele>-43.66</ele>
        <time>2019-07-14T11:30:59Z</time>
      </trkpt>
      <trkpt lat="47.79437" lon="-3.71224">
        <ele>-43.78</ele>
        <time>2019-07-14T11:31:02Z</time>
      </trkpt>
      <trkpt lat="47.79439" lon="-3.71214">
        <ele>-44.59</ele>
        <time>2019-07-14T11:31:06Z</time>
      </trkpt>
      <trkpt lat="47.79438" lon="-3.71207">
        <ele>-45.6</ele>
        <time>2019-07-14T11:31:08Z</time>
      </trkpt>
      <trkpt lat="47.79435" lon="-3.71197">
        <ele>-48.09</ele>
        <time>2019-07-14T11:31:11Z</time>
      </trkpt>
      <trkpt lat="47.79433" lon="-3.71191">
        <ele>-50.26</ele>
        <time>2019-07-14T11:31:14Z</time>
      </trkpt>
      <trkpt lat="47.79429" lon="-3.71186">
        <ele>-50.5</ele>
        <time>2019-07-14T11:31:17Z</time>
      </trkpt>
      <trkpt lat="47.79424" lon="-3.71185">
        <ele>-50.37</ele>
        <time>2019-07-14T11:31:19Z</time>
      </trkpt>
      <trkpt lat="47.79419" lon="-3.71186">
        <ele>-49.67</ele>
        <time>2019-07-14T11:31:21Z</time>
      </trkpt>
      <trkpt lat="47.79413" lon="-3.71188">
        <ele>-48.55</ele>
        <time>2019-07-14T11:31:24Z</time>
      </trkpt>
      <trkpt lat="47.79408" lon="-3.71184">
        <ele>-47.7</ele>
        <time>2019-07-14T11:31:27Z</time>
      </trkpt>
      <trkpt lat="47.794" lon="-3.71173">
        <ele>-46.17</ele>
        <time>2019-07-14T11:31:39Z</time>
      </trkpt>
      <trkpt lat="47.79396" lon="-3.71168">
        <ele>-45.27</ele>
        <time>2019-07-14T11:31:49Z</time>
      </trkpt>
      <trkpt lat="47.7939" lon="-3.71162">
        <ele>-45.24</ele>
        <time>2019-07-14T11:31:52Z</time>
      </trkpt>
      <trkpt lat="47.79387" lon="-3.71157">
        <ele>-44.87</ele>
        <time>2019-07-14T11:31:54Z</time>
      </trkpt>
      <trkpt lat="47.79383" lon="-3.7115">
        <ele>-43.74</ele>
        <time>2019-07-14T11:31:56Z</time>
      </trkpt>
      <trkpt lat="47.7938" lon="-3.71142">
        <ele>-43.1</ele>
        <time>2019-07-14T11:31:58Z</time>
      </trkpt>
      <trkpt lat="47.79377" lon="-3.71135">
        <ele>-42.61</ele>
        <time>2019-07-14T11:32:00Z</time>
      </trkpt>
      <trkpt lat="47.79373" lon="-3.71126">
        <ele>-42.53</ele>
        <time>2019-07-14T11:32:02Z</time>
      </trkpt>
      <trkpt lat="47.7937" lon="-3.71117">
        <ele>-42.24</ele>
        <time>2019-07-14T11:32:04Z</time>
      </trkpt>
      <trkpt lat="47.79366" lon="-3.71108">
        <ele>-42.7</ele>
        <time>2019-07-14T11:32:06Z</time>
      </trkpt>
      <trkpt lat="47.79362" lon="-3.71099">
        <ele>-43.86</ele>
        <time>2019-07-14T11:32:08Z</time>
      </trkpt>
      <trkpt lat="47.79357" lon="-3.71091">
        <ele>-44.85</ele>
        <time>2019-07-14T11:32:10Z</time>
      </trkpt>
      <trkpt lat="47.79352" lon="-3.71084">
        <ele>-45.54</ele>
        <time>2019-07-14T11:32:12Z</time>
      </trkpt>
      <trkpt lat="47.79347" lon="-3.7108">
        <ele>-46.16</ele>
        <time>2019-07-14T11:32:14Z</time>
      </trkpt>
      <trkpt lat="47.79342" lon="-3.71077">
        <ele>-46.21</ele>
        <time>2019-07-14T11:32:16Z</time>
      </trkpt>
      <trkpt lat="47.79337" lon="-3.71073">
        <ele>-45.69</ele>
        <time>2019-07-14T11:32:18Z</time>
      </trkpt>
      <trkpt lat="47.79333" lon="-3.71067">
        <ele>-45.69</ele>
        <time>2019-07-14T11:32:20Z</time>
      </trkpt>
      <trkpt lat="47.79329" lon="-3.7106">
        <ele>-46.23</ele>
        <time>2019-07-14T11:32:22Z</time>
      </trkpt>
      <trkpt lat="47.79325" lon="-3.71053">
        <ele>-46.84</ele>
        <time>2019-07-14T11:32:24Z</time>
      </trkpt>
      <trkpt lat="47.79321" lon="-3.71047">
        <ele>-46.6</ele>
        <time>2019-07-14T11:32:26Z</time>
      </trkpt>
      <trkpt lat="47.79315" lon="-3.71042">
        <ele>-46.48</ele>
        <time>2019-07-14T11:32:28Z</time>
      </trkpt>
      <trkpt lat="47.79309" lon="-3.71038">
        <ele>-46.58</ele>
        <time>2019-07-14T11:32:30Z</time>
      </trkpt>
      <trkpt lat="47.79301" lon="-3.71034">
        <ele>-46.29</ele>
        <time>2019-07-14T11:32:32Z</time>
      </trkpt>
      <trkpt lat="47.79295" lon="-3.71029">
        <ele>-45.69</ele>
        <time>2019-07-14T11:32:34Z</time>
      </trkpt>
      <trkpt lat="47.79289" lon="-3.71021">
        <ele>-45.6</ele>
        <time>2019-07-14T11:32:36Z</time>
      </trkpt>
      <trkpt lat="47.79282" lon="-3.71015">
        <ele>-45.47</ele>
        <time>2019-07-14T11:32:38Z</time>
      </trkpt>
      <trkpt lat="47.79274" lon="-3.7101">
        <ele>-45.28</ele>
        <time>2019-07-14T11:32:40Z</time>
      </trkpt>
      <trkpt lat="47.79267" lon="-3.71004">
        <ele>-45.46</ele>
        <time>2019-07-14T11:32:42Z</time>
      </trkpt>
      <trkpt lat="47.79261" lon="-3.70999">
        <ele>-45.75</ele>
        <time>2019-07-14T11:32:44Z</time>
      </trkpt>
      <trkpt lat="47.79253" lon="-3.70994">
        <ele>-45.88</ele>
        <time>2019-07-14T11:32:46Z</time>
      </trkpt>
      <trkpt lat="47.7925" lon="-3.7099">
        <ele>-45.97</ele>
        <time>2019-07-14T11:32:47Z</time>
      </trkpt>
      <trkpt lat="47.79243" lon="-3.70983">
        <ele>-45.64</ele>
        <time>2019-07-14T11:32:49Z</time>
      </trkpt>
      <trkpt lat="47.79236" lon="-3.70976">
        <ele>-45.66</ele>
        <time>2019-07-14T11:32:51Z</time>
      </trkpt>
      <trkpt lat="47.7923" lon="-3.70961">
        <ele>-45.38</ele>
        <time>2019-07-14T11:32:54Z</time>
      </trkpt>
      <trkpt lat="47.79228" lon="-3.7095">
        <ele>-44.72</ele>
        <time>2019-07-14T11:32:56Z</time>
      </trkpt>
      <trkpt lat="47.79224" lon="-3.7094">
        <ele>-43.94</ele>
        <time>2019-07-14T11:32:58Z</time>
      </trkpt>
      <trkpt lat="47.79217" lon="-3.70933">
        <ele>-44.22</ele>
        <time>2019-07-14T11:33:00Z</time>
      </trkpt>
      <trkpt lat="47.79214" lon="-3.70929">
        <ele>-44.35</ele>
        <time>2019-07-14T11:33:01Z</time>
      </trkpt>
      <trkpt lat="47.79207" lon="-3.7092">
        <ele>-44.73</ele>
        <time>2019-07-14T11:33:03Z</time>
      </trkpt>
      <trkpt lat="47.79201" lon="-3.7091">
        <ele>-44.31</ele>
        <time>2019-07-14T11:33:05Z</time>
      </trkpt>
      <trkpt lat="47.79201" lon="-3.70898">
        <ele>-44.72</ele>
        <time>2019-07-14T11:33:07Z</time>
      </trkpt>
      <trkpt lat="47.79202" lon="-3.70887">
        <ele>-45.15</ele>
        <time>2019-07-14T11:33:09Z</time>
      </trkpt>
      <trkpt lat="47.79203" lon="-3.70877">
        <ele>-45.53</ele>
        <time>2019-07-14T11:33:11Z</time>
      </trkpt>
      <trkpt lat="47.79206" lon="-3.70867">
        <ele>-46.04</ele>
        <time>2019-07-14T11:33:13Z</time>
      </trkpt>
      <trkpt lat="47.79209" lon="-3.70856">
        <ele>-46.85</ele>
        <time>2019-07-14T11:33:15Z</time>
      </trkpt>
      <trkpt lat="47.7921" lon="-3.70845">
        <ele>-47.59</ele>
        <time>2019-07-14T11:33:17Z</time>
      </trkpt>
      <trkpt lat="47.79212" lon="-3.70835">
        <ele>-47.96</ele>
        <time>2019-07-14T11:33:19Z</time>
      </trkpt>
      <trkpt lat="47.79213" lon="-3.70816">
        <ele>-47.77</ele>
        <time>2019-07-14T11:33:44Z</time>
      </trkpt>
      <trkpt lat="47.79213" lon="-3.70807">
        <ele>-46.96</ele>
        <time>2019-07-14T11:33:49Z</time>
      </trkpt>
      <trkpt lat="47.79211" lon="-3.70799">
        <ele>-46.82</ele>
        <time>2019-07-14T11:33:52Z</time>
      </trkpt>
      <trkpt lat="47.79206" lon="-3.70795">
        <ele>-46.64</ele>
        <time>2019-07-14T11:33:55Z</time>
      </trkpt>
      <trkpt lat="47.79201" lon="-3.70798">
        <ele>-46.68</ele>
        <time>2019-07-14T11:33:58Z</time>
      </trkpt>
      <trkpt lat="47.79196" lon="-3.70798">
        <ele>-46.88</ele>
        <time>2019-07-14T11:34:01Z</time>
      </trkpt>
      <trkpt lat="47.79189" lon="-3.70804">
        <ele>-46.73</ele>
        <time>2019-07-14T11:34:13Z</time>
      </trkpt>
      <trkpt lat="47.79184" lon="-3.70805">
        <ele>-46.84</ele>
        <time>2019-07-14T11:34:19Z</time>
      </trkpt>
      <trkpt lat="47.7918" lon="-3.70805">
        <ele>-46.46</ele>
        <time>2019-07-14T11:34:24Z</time>
      </trkpt>
      <trkpt lat="47.79173" lon="-3.70803">
        <ele>-45.57</ele>
        <time>2019-07-14T11:34:33Z</time>
      </trkpt>
      <trkpt lat="47.79167" lon="-3.70804">
        <ele>-43.21</ele>
        <time>2019-07-14T11:34:40Z</time>
      </trkpt>
      <trkpt lat="47.79162" lon="-3.70808">
        <ele>-42.52</ele>
        <time>2019-07-14T11:34:43Z</time>
      </trkpt>
      <trkpt lat="47.79157" lon="-3.70813">
        <ele>-42.01</ele>
        <time>2019-07-14T11:34:45Z</time>
      </trkpt>
      <trkpt lat="47.79151" lon="-3.70819">
        <ele>-41.65</ele>
        <time>2019-07-14T11:34:47Z</time>
      </trkpt>
      <trkpt lat="47.79144" lon="-3.70822">
        <ele>-41.2</ele>
        <time>2019-07-14T11:34:49Z</time>
      </trkpt>
      <trkpt lat="47.79137" lon="-3.70824">
        <ele>-41.19</ele>
        <time>2019-07-14T11:34:51Z</time>
      </trkpt>
      <trkpt lat="47.79132" lon="-3.70824">
        <ele>-41.42</ele>
        <time>2019-07-14T11:34:52Z</time>
      </trkpt>
      <trkpt lat="47.79128" lon="-3.70824">
        <ele>-41.13</ele>
        <time>2019-07-14T11:34:53Z</time>
      </trkpt>
      <trkpt lat="47.79123" lon="-3.70823">
        <ele>-41.05</ele>
        <time>2019-07-14T11:34:54Z</time>
      </trkpt>
      <trkpt lat="47.79115" lon="-3.70819">
        <ele>-40.76</ele>
        <time>2019-07-14T11:34:56Z</time>
      </trkpt>
      <trkpt lat="47.79108" lon="-3.70813">
        <ele>-40.51</ele>
        <time>2019-07-14T11:34:58Z</time>
      </trkpt>
      <trkpt lat="47.79103" lon="-3.70805">
        <ele>-40.37</ele>
        <time>2019-07-14T11:35:00Z</time>
      </trkpt>
      <trkpt lat="47.79098" lon="-3.70796">
        <ele>-40.14</ele>
        <time>2019-07-14T11:35:02Z</time>
      </trkpt>
      <trkpt lat="47.79095" lon="-3.70787">
        <ele>-39.74</ele>
        <time>2019-07-14T11:35:04Z</time>
      </trkpt>
      <trkpt lat="47.7909" lon="-3.70777">
        <ele>-39.58</ele>
        <time>2019-07-14T11:35:06Z</time>
      </trkpt>
      <trkpt lat="47.79087" lon="-3.70767">
        <ele>-40.23</ele>
        <time>2019-07-14T11:35:08Z</time>
      </trkpt>
      <trkpt lat="47.79084" lon="-3.70757">
        <ele>-41.29</ele>
        <time>2019-07-14T11:35:10Z</time>
      </trkpt>
      <trkpt lat="47.7908" lon="-3.70748">
        <ele>-42.22</ele>
        <time>2019-07-14T11:35:12Z</time>
      </trkpt>
      <trkpt lat="47.79076" lon="-3.70739">
        <ele>-43.28</ele>
        <time>2019-07-14T11:35:14Z</time>
      </trkpt>
      <trkpt lat="47.79076" lon="-3.70729">
        <ele>-44.75</ele>
        <time>2019-07-14T11:35:16Z</time>
      </trkpt>
      <trkpt lat="47.79077" lon="-3.70718">
        <ele>-45.74</ele>
        <time>2019-07-14T11:35:18Z</time>
      </trkpt>
      <trkpt lat="47.79078" lon="-3.70706">
        <ele>-45.9</ele>
        <time>2019-07-14T11:35:20Z</time>
      </trkpt>
      <trkpt lat="47.79079" lon="-3.70694">
        <ele>-46.12</ele>
        <time>2019-07-14T11:35:22Z</time>
      </trkpt>
      <trkpt lat="47.7908" lon="-3.70683">
        <ele>-45.63</ele>
        <time>2019-07-14T11:35:24Z</time>
      </trkpt>
      <trkpt lat="47.79081" lon="-3.70672">
        <ele>-45.15</ele>
        <time>2019-07-14T11:35:26Z</time>
      </trkpt>
      <trkpt lat="47.7908" lon="-3.70661">
        <ele>-45.37</ele>
        <time>2019-07-14T11:35:28Z</time>
      </trkpt>
      <trkpt lat="47.79077" lon="-3.7065">
        <ele>-45.4</ele>
        <time>2019-07-14T11:35:30Z</time>
      </trkpt>
      <trkpt lat="47.79075" lon="-3.70643">
        <ele>-44.64</ele>
        <time>2019-07-14T11:35:31Z</time>
      </trkpt>
      <trkpt lat="47.79071" lon="-3.70633">
        <ele>-44.11</ele>
        <time>2019-07-14T11:35:33Z</time>
      </trkpt>
      <trkpt lat="47.79065" lon="-3.70624">
        <ele>-44.14</ele>
        <time>2019-07-14T11:35:35Z</time>
      </trkpt>
      <trkpt lat="47.79062" lon="-3.7062">
        <ele>-44.19</ele>
        <time>2019-07-14T11:35:36Z</time>
      </trkpt>
      <trkpt lat="47.79058" lon="-3.70614">
        <ele>-44.35</ele>
        <time>2019-07-14T11:35:37Z</time>
      </trkpt>
      <trkpt lat="47.79054" lon="-3.70604">
        <ele>-45.28</ele>
        <time>2019-07-14T11:35:39Z</time>
      </trkpt>
      <trkpt lat="47.79056" lon="-3.70594">
        <ele>-46.39</ele>
        <time>2019-07-14T11:35:41Z</time>
      </trkpt>
      <trkpt lat="47.79062" lon="-3.70585">
        <ele>-47.69</ele>
        <time>2019-07-14T11:35:43Z</time>
      </trkpt>
      <trkpt lat="47.79067" lon="-3.70575">
        <ele>-48.52</ele>
        <time>2019-07-14T11:35:45Z</time>
      </trkpt>
      <trkpt lat="47.79069" lon="-3.70569">
        <ele>-48.93</ele>
        <time>2019-07-14T11:35:46Z</time>
      </trkpt>
      <trkpt lat="47.79071" lon="-3.70558">
        <ele>-49.24</ele>
        <time>2019-07-14T11:35:48Z</time>
      </trkpt>
      <trkpt lat="47.79068" lon="-3.7055">
        <ele>-49.14</ele>
        <time>2019-07-14T11:35:50Z</time>
      </trkpt>
      <trkpt lat="47.79065" lon="-3.70543">
        <ele>-50.24</ele>
        <time>2019-07-14T11:35:52Z</time>
      </trkpt>
      <trkpt lat="47.79061" lon="-3.70542">
        <ele>-49.34</ele>
        <time>2019-07-14T11:35:54Z</time>
      </trkpt>
      <trkpt lat="47.79055" lon="-3.70545">
        <ele>-48.78</ele>
        <time>2019-07-14T11:35:56Z</time>
      </trkpt>
      <trkpt lat="47.79048" lon="-3.70546">
        <ele>-48.26</ele>
        <time>2019-07-14T11:35:58Z</time>
      </trkpt>
      <trkpt lat="47.79041" lon="-3.70545">
        <ele>-48.47</ele>
        <time>2019-07-14T11:36:00Z</time>
      </trkpt>
      <trkpt lat="47.79036" lon="-3.70544">
        <ele>-47.86</ele>
        <time>2019-07-14T11:36:02Z</time>
      </trkpt>
      <trkpt lat="47.7903" lon="-3.70543">
        <ele>-46.85</ele>
        <time>2019-07-14T11:36:05Z</time>
      </trkpt>
      <trkpt lat="47.79026" lon="-3.70539">
        <ele>-45.95</ele>
        <time>2019-07-14T11:36:08Z</time>
      </trkpt>
      <trkpt lat="47.79013" lon="-3.70537">
        <ele>-44.51</ele>
        <time>2019-07-14T11:36:25Z</time>
      </trkpt>
      <trkpt lat="47.79007" lon="-3.70537">
        <ele>-45.17</ele>
        <time>2019-07-14T11:36:28Z</time>
      </trkpt>
      <trkpt lat="47.79003" lon="-3.70535">
        <ele>-45.02</ele>
        <time>2019-07-14T11:36:30Z</time>
      </trkpt>
      <trkpt lat="47.78998" lon="-3.70531">
        <ele>-44.62</ele>
        <time>2019-07-14T11:36:32Z</time>
      </trkpt>
      <trkpt lat="47.78994" lon="-3.70525">
        <ele>-44.36</ele>
        <time>2019-07-14T11:36:34Z</time>
      </trkpt>
      <trkpt lat="47.78992" lon="-3.70518">
        <ele>-44.3</ele>
        <time>2019-07-14T11:36:36Z</time>
      </trkpt>
      <trkpt lat="47.7899" lon="-3.70511">
        <ele>-44.56</ele>
        <time>2019-07-14T11:36:38Z</time>
      </trkpt>
      <trkpt lat="47.78989" lon="-3.70503">
        <ele>-44.31</ele>
        <time>2019-07-14T11:36:40Z</time>
      </trkpt>
      <trkpt lat="47.78988" lon="-3.70495">
        <ele>-44.18</ele>
        <time>2019-07-14T11:36:42Z</time>
      </trkpt>
      <trkpt lat="47.78986" lon="-3.70486">
        <ele>-44.09</ele>
        <time>2019-07-14T11:36:44Z</time>
      </trkpt>
      <trkpt lat="47.78983" lon="-3.70479">
        <ele>-43.6</ele>
        <time>2019-07-14T11:36:46Z</time>
      </trkpt>
      <trkpt lat="47.78979" lon="-3.70472">
        <ele>-42.78</ele>
        <time>2019-07-14T11:36:48Z</time>
      </trkpt>
      <trkpt lat="47.78975" lon="-3.70465">
        <ele>-41.66</ele>
        <time>2019-07-14T11:36:50Z</time>
      </trkpt>
      <trkpt lat="47.78971" lon="-3.70457">
        <ele>-40.01</ele>
        <time>2019-07-14T11:36:52Z</time>
      </trkpt>
      <trkpt lat="47.78968" lon="-3.7045">
        <ele>-38.49</ele>
        <time>2019-07-14T11:36:54Z</time>
      </trkpt>
      <trkpt lat="47.78965" lon="-3.70443">
        <ele>-37.28</ele>
        <time>2019-07-14T11:36:56Z</time>
      </trkpt>
      <trkpt lat="47.78962" lon="-3.70435">
        <ele>-36.57</ele>
        <time>2019-07-14T11:36:58Z</time>
      </trkpt>
      <trkpt lat="47.78959" lon="-3.70428">
        <ele>-35.92</ele>
        <time>2019-07-14T11:37:00Z</time>
      </trkpt>
      <trkpt lat="47.78956" lon="-3.7042">
        <ele>-35.43</ele>
        <time>2019-07-14T11:37:02Z</time>
      </trkpt>
      <trkpt lat="47.78954" lon="-3.70411">
        <ele>-35.55</ele>
        <time>2019-07-14T11:37:05Z</time>
      </trkpt>
      <trkpt lat="47.78954" lon="-3.70404">
        <ele>-35.52</ele>
        <time>2019-07-14T11:37:07Z</time>
      </trkpt>
      <trkpt lat="47.78953" lon="-3.70397">
        <ele>-35.14</ele>
        <time>2019-07-14T11:37:09Z</time>
      </trkpt>
      <trkpt lat="47.78951" lon="-3.70388">
        <ele>-33.28</ele>
        <time>2019-07-14T11:37:12Z</time>
      </trkpt>
      <trkpt lat="47.78948" lon="-3.70381">
        <ele>-33.34</ele>
        <time>2019-07-14T11:37:14Z</time>
      </trkpt>
      <trkpt lat="47.78943" lon="-3.70375">
        <ele>-33.5</ele>
        <time>2019-07-14T11:37:16Z</time>
      </trkpt>
      <trkpt lat="47.78936" lon="-3.70368">
        <ele>-34.41</ele>
        <time>2019-07-14T11:37:18Z</time>
      </trkpt>
      <trkpt lat="47.78932" lon="-3.70363">
        <ele>-34.62</ele>
        <time>2019-07-14T11:37:19Z</time>
      </trkpt>
      <trkpt lat="47.78928" lon="-3.70358">
        <ele>-35.31</ele>
        <time>2019-07-14T11:37:20Z</time>
      </trkpt>
      <trkpt lat="47.78924" lon="-3.70352">
        <ele>-35.94</ele>
        <time>2019-07-14T11:37:21Z</time>
      </trkpt>
      <trkpt lat="47.78919" lon="-3.70345">
        <ele>-37.25</ele>
        <time>2019-07-14T11:37:22Z</time>
      </trkpt>
      <trkpt lat="47.78914" lon="-3.70337">
        <ele>-38.55</ele>
        <time>2019-07-14T11:37:23Z</time>
      </trkpt>
      <trkpt lat="47.78908" lon="-3.70329">
        <ele>-39.43</ele>
        <time>2019-07-14T11:37:24Z</time>
      </trkpt>
      <trkpt lat="47.78902" lon="-3.7032">
        <ele>-39.77</ele>
        <time>2019-07-14T11:37:25Z</time>
      </trkpt>
      <trkpt lat="47.78896" lon="-3.7031">
        <ele>-40.43</ele>
        <time>2019-07-14T11:37:26Z</time>
      </trkpt>
      <trkpt lat="47.78891" lon="-3.70299">
        <ele>-40.91</ele>
        <time>2019-07-14T11:37:27Z</time>
      </trkpt>
      <trkpt lat="47.78887" lon="-3.70288">
        <ele>-41.19</ele>
        <time>2019-07-14T11:37:28Z</time>
      </trkpt>
      <trkpt lat="47.78882" lon="-3.70277">
        <ele>-41.28</ele>
        <time>2019-07-14T11:37:29Z</time>
      </trkpt>
      <trkpt lat="47.78878" lon="-3.70268">
        <ele>-41.51</ele>
        <time>2019-07-14T11:37:30Z</time>
      </trkpt>
      <trkpt lat="47.78874" lon="-3.70258">
        <ele>-41.79</ele>
        <time>2019-07-14T11:37:31Z</time>
      </trkpt>
      <trkpt lat="47.78869" lon="-3.70249">
        <ele>-42.16</ele>
        <time>2019-07-14T11:37:32Z</time>
      </trkpt>
      <trkpt lat="47.78866" lon="-3.7024">
        <ele>-42.48</ele>
        <time>2019-07-14T11:37:33Z</time>
      </trkpt>
      <trkpt lat="47.78862" lon="-3.70232">
        <ele>-42.57</ele>
        <time>2019-07-14T11:37:34Z</time>
      </trkpt>
      <trkpt lat="47.78857" lon="-3.70223">
        <ele>-42.74</ele>
        <time>2019-07-14T11:37:35Z</time>
      </trkpt>
      <trkpt lat="47.78853" lon="-3.70215">
        <ele>-43.21</ele>
        <time>2019-07-14T11:37:36Z</time>
      </trkpt>
      <trkpt lat="47.78849" lon="-3.70207">
        <ele>-43.49</ele>
        <time>2019-07-14T11:37:37Z</time>
      </trkpt>
      <trkpt lat="47.78844" lon="-3.70199">
        <ele>-43.72</ele>
        <time>2019-07-14T11:37:38Z</time>
      </trkpt>
      <trkpt lat="47.7884" lon="-3.70191">
        <ele>-43.99</ele>
        <time>2019-07-14T11:37:39Z</time>
      </trkpt>
      <trkpt lat="47.78837" lon="-3.70184">
        <ele>-44.36</ele>
        <time>2019-07-14T11:37:40Z</time>
      </trkpt>
      <trkpt lat="47.78835" lon="-3.70177">
        <ele>-44.61</ele>
        <time>2019-07-14T11:37:41Z</time>
      </trkpt>
      <trkpt lat="47.78834" lon="-3.70169">
        <ele>-44.82</ele>
        <time>2019-07-14T11:37:42Z</time>
      </trkpt>
      <trkpt lat="47.78834" lon="-3.70161">
        <ele>-44.95</ele>
        <time>2019-07-14T11:37:43Z</time>
      </trkpt>
      <trkpt lat="47.78833" lon="-3.70149">
        <ele>-45.21</ele>
        <time>2019-07-14T11:37:45Z</time>
      </trkpt>
      <trkpt lat="47.7883" lon="-3.70139">
        <ele>-45.3</ele>
        <time>2019-07-14T11:37:47Z</time>
      </trkpt>
      <trkpt lat="47.78828" lon="-3.70128">
        <ele>-45.01</ele>
        <time>2019-07-14T11:37:49Z</time>
      </trkpt>
      <trkpt lat="47.78825" lon="-3.70116">
        <ele>-44.55</ele>
        <time>2019-07-14T11:37:51Z</time>
      </trkpt>
      <trkpt lat="47.78822" lon="-3.70104">
        <ele>-42.98</ele>
        <time>2019-07-14T11:37:53Z</time>
      </trkpt>
      <trkpt lat="47.7882" lon="-3.70091">
        <ele>-43.23</ele>
        <time>2019-07-14T11:37:55Z</time>
      </trkpt>
      <trkpt lat="47.78819" lon="-3.70078">
        <ele>-43.41</ele>
        <time>2019-07-14T11:37:57Z</time>
      </trkpt>
      <trkpt lat="47.78818" lon="-3.70072">
        <ele>-43.13</ele>
        <time>2019-07-14T11:37:58Z</time>
      </trkpt>
      <trkpt lat="47.78816" lon="-3.70065">
        <ele>-42.7</ele>
        <time>2019-07-14T11:37:59Z</time>
      </trkpt>
      <trkpt lat="47.78813" lon="-3.70055">
        <ele>-41.74</ele>
        <time>2019-07-14T11:38:01Z</time>
      </trkpt>
      <trkpt lat="47.78809" lon="-3.70049">
        <ele>-40.71</ele>
        <time>2019-07-14T11:38:03Z</time>
      </trkpt>
      <trkpt lat="47.78804" lon="-3.70054">
        <ele>-40.54</ele>
        <time>2019-07-14T11:38:13Z</time>
      </trkpt>
      <trkpt lat="47.78799" lon="-3.70058">
        <ele>-40.58</ele>
        <time>2019-07-14T11:38:15Z</time>
      </trkpt>
      <trkpt lat="47.78792" lon="-3.70065">
        <ele>-40.54</ele>
        <time>2019-07-14T11:38:17Z</time>
      </trkpt>
      <trkpt lat="47.78784" lon="-3.70065">
        <ele>-40.35</ele>
        <time>2019-07-14T11:38:19Z</time>
      </trkpt>
      <trkpt lat="47.78775" lon="-3.70063">
        <ele>-40.43</ele>
        <time>2019-07-14T11:38:21Z</time>
      </trkpt>
      <trkpt lat="47.7877" lon="-3.70062">
        <ele>-41.33</ele>
        <time>2019-07-14T11:38:22Z</time>
      </trkpt>
      <trkpt lat="47.78762" lon="-3.70057">
        <ele>-42.59</ele>
        <time>2019-07-14T11:38:24Z</time>
      </trkpt>
      <trkpt lat="47.78755" lon="-3.70051">
        <ele>-43.51</ele>
        <time>2019-07-14T11:38:26Z</time>
      </trkpt>
      <trkpt lat="47.7875" lon="-3.70041">
        <ele>-44.49</ele>
        <time>2019-07-14T11:38:28Z</time>
      </trkpt>
      <trkpt lat="47.78745" lon="-3.70031">
        <ele>-44.07</ele>
        <time>2019-07-14T11:38:30Z</time>
      </trkpt>
      <trkpt lat="47.7874" lon="-3.7002">
        <ele>-43.44</ele>
        <time>2019-07-14T11:38:32Z</time>
      </trkpt>
      <trkpt lat="47.78737" lon="-3.70015">
        <ele>-43.42</ele>
        <time>2019-07-14T11:38:33Z</time>
      </trkpt>
      <trkpt lat="47.7873" lon="-3.70008">
        <ele>-43.29</ele>
        <time>2019-07-14T11:38:35Z</time>
      </trkpt>
      <trkpt lat="47.78725" lon="-3.70007">
        <ele>-43.1</ele>
        <time>2019-07-14T11:38:36Z</time>
      </trkpt>
      <trkpt lat="47.7872" lon="-3.70005">
        <ele>-43.25</ele>
        <time>2019-07-14T11:38:37Z</time>
      </trkpt>
      <trkpt lat="47.78714" lon="-3.70004">
        <ele>-43.22</ele>
        <time>2019-07-14T11:38:38Z</time>
      </trkpt>
      <trkpt lat="47.78708" lon="-3.70001">
        <ele>-43.71</ele>
        <time>2019-07-14T11:38:39Z</time>
      </trkpt>
      <trkpt lat="47.78702" lon="-3.69999">
        <ele>-44.48</ele>
        <time>2019-07-14T11:38:40Z</time>
      </trkpt>
      <trkpt lat="47.78698" lon="-3.69997">
        <ele>-45.62</ele>
        <time>2019-07-14T11:38:41Z</time>
      </trkpt>
      <trkpt lat="47.78693" lon="-3.69996">
        <ele>-46.39</ele>
        <time>2019-07-14T11:38:42Z</time>
      </trkpt>
      <trkpt lat="47.78686" lon="-3.6999">
        <ele>-47.14</ele>
        <time>2019-07-14T11:38:44Z</time>
      </trkpt>
      <trkpt lat="47.78681" lon="-3.69983">
        <ele>-47.88</ele>
        <time>2019-07-14T11:38:46Z</time>
      </trkpt>
      <trkpt lat="47.7868" lon="-3.69971">
        <ele>-48.02</ele>
        <time>2019-07-14T11:38:48Z</time>
      </trkpt>
      <trkpt lat="47.7868" lon="-3.69961">
        <ele>-48.38</ele>
        <time>2019-07-14T11:38:50Z</time>
      </trkpt>
      <trkpt lat="47.78678" lon="-3.6995">
        <ele>-48.49</ele>
        <time>2019-07-14T11:38:52Z</time>
      </trkpt>
      <trkpt lat="47.78674" lon="-3.69941">
        <ele>-48.33</ele>
        <time>2019-07-14T11:38:54Z</time>
      </trkpt>
      <trkpt lat="47.78668" lon="-3.6993">
        <ele>-48.75</ele>
        <time>2019-07-14T11:38:56Z</time>
      </trkpt>
      <trkpt lat="47.78668" lon="-3.69923">
        <ele>-49.28</ele>
        <time>2019-07-14T11:38:57Z</time>
      </trkpt>
      <trkpt lat="47.78668" lon="-3.69916">
        <ele>-49.72</ele>
        <time>2019-07-14T11:38:58Z</time>
      </trkpt>
      <trkpt lat="47.78668" lon="-3.69909">
        <ele>-49.79</ele>
        <time>2019-07-14T11:38:59Z</time>
      </trkpt>
      <trkpt lat="47.78669" lon="-3.69897">
        <ele>-49.56</ele>
        <time>2019-07-14T11:39:01Z</time>
      </trkpt>
      <trkpt lat="47.78669" lon="-3.69885">
        <ele>-49.61</ele>
        <time>2019-07-14T11:39:03Z</time>
      </trkpt>
      <trkpt lat="47.78669" lon="-3.69872">
        <ele>-49.58</ele>
        <time>2019-07-14T11:39:05Z</time>
      </trkpt>
      <trkpt lat="47.78668" lon="-3.69866">
        <ele>-49.53</ele>
        <time>2019-07-14T11:39:06Z</time>
      </trkpt>
      <trkpt lat="47.78666" lon="-3.69854">
        <ele>-48.94</ele>
        <time>2019-07-14T11:39:08Z</time>
      </trkpt>
      <trkpt lat="47.78662" lon="-3.69842">
        <ele>-48.89</ele>
        <time>2019-07-14T11:39:10Z</time>
      </trkpt>
      <trkpt lat="47.78656" lon="-3.69832">
        <ele>-48.54</ele>
        <time>2019-07-14T11:39:12Z</time>
      </trkpt>
      <trkpt lat="47.78651" lon="-3.69823">
        <ele>-48.03</ele>
        <time>2019-07-14T11:39:14Z</time>
      </trkpt>
      <trkpt lat="47.78647" lon="-3.69813">
        <ele>-47.69</ele>
        <time>2019-07-14T11:39:16Z</time>
      </trkpt>
      <trkpt lat="47.78645" lon="-3.69803">
        <ele>-47.4</ele>
        <time>2019-07-14T11:39:18Z</time>
      </trkpt>
      <trkpt lat="47.78643" lon="-3.69793">
        <ele>-47.52</ele>
        <time>2019-07-14T11:39:20Z</time>
      </trkpt>
      <trkpt lat="47.78638" lon="-3.69784">
        <ele>-47.12</ele>
        <time>2019-07-14T11:39:22Z</time>
      </trkpt>
      <trkpt lat="47.78635" lon="-3.69773">
        <ele>-45.73</ele>
        <time>2019-07-14T11:39:24Z</time>
      </trkpt>
      <trkpt lat="47.78636" lon="-3.69766">
        <ele>-45.37</ele>
        <time>2019-07-14T11:39:25Z</time>
      </trkpt>
      <trkpt lat="47.78635" lon="-3.69753">
        <ele>-45.41</ele>
        <time>2019-07-14T11:39:27Z</time>
      </trkpt>
      <trkpt lat="47.78632" lon="-3.6974">
        <ele>-45.69</ele>
        <time>2019-07-14T11:39:29Z</time>
      </trkpt>
      <trkpt lat="47.78631" lon="-3.69733">
        <ele>-45.85</ele>
        <time>2019-07-14T11:39:30Z</time>
      </trkpt>
      <trkpt lat="47.78629" lon="-3.69727">
        <ele>-46.17</ele>
        <time>2019-07-14T11:39:31Z</time>
      </trkpt>
      <trkpt lat="47.78628" lon="-3.69719">
        <ele>-46.69</ele>
        <time>2019-07-14T11:39:32Z</time>
      </trkpt>
      <trkpt lat="47.78627" lon="-3.69712">
        <ele>-46.92</ele>
        <time>2019-07-14T11:39:33Z</time>
      </trkpt>
      <trkpt lat="47.78626" lon="-3.69705">
        <ele>-47.4</ele>
        <time>2019-07-14T11:39:34Z</time>
      </trkpt>
      <trkpt lat="47.78626" lon="-3.69698">
        <ele>-47.97</ele>
        <time>2019-07-14T11:39:35Z</time>
      </trkpt>
      <trkpt lat="47.78626" lon="-3.6969">
        <ele>-48.7</ele>
        <time>2019-07-14T11:39:36Z</time>
      </trkpt>
      <trkpt lat="47.78628" lon="-3.69683">
        <ele>-48.85</ele>
        <time>2019-07-14T11:39:37Z</time>
      </trkpt>
      <trkpt lat="47.7863" lon="-3.69676">
        <ele>-49.03</ele>
        <time>2019-07-14T11:39:38Z</time>
      </trkpt>
      <trkpt lat="47.78632" lon="-3.6967">
        <ele>-49.16</ele>
        <time>2019-07-14T11:39:39Z</time>
      </trkpt>
      <trkpt lat="47.78633" lon="-3.69663">
        <ele>-49.34</ele>
        <time>2019-07-14T11:39:40Z</time>
      </trkpt>
      <trkpt lat="47.78638" lon="-3.69652">
        <ele>-49.1</ele>
        <time>2019-07-14T11:39:42Z</time>
      </trkpt>
      <trkpt lat="47.78645" lon="-3.69645">
        <ele>-48.95</ele>
        <time>2019-07-14T11:39:44Z</time>
      </trkpt>
      <trkpt lat="47.78654" lon="-3.69641">
        <ele>-48.85</ele>
        <time>2019-07-14T11:39:46Z</time>
      </trkpt>
      <trkpt lat="47.78661" lon="-3.69636">
        <ele>-47.87</ele>
        <time>2019-07-14T11:39:48Z</time>
      </trkpt>
      <trkpt lat="47.78665" lon="-3.69627">
        <ele>-46.28</ele>
        <time>2019-07-14T11:39:50Z</time>
      </trkpt>
      <trkpt lat="47.78669" lon="-3.69618">
        <ele>-44.14</ele>
        <time>2019-07-14T11:39:52Z</time>
      </trkpt>
      <trkpt lat="47.78672" lon="-3.69612">
        <ele>-43.18</ele>
        <time>2019-07-14T11:39:54Z</time>
      </trkpt>
      <trkpt lat="47.78676" lon="-3.69603">
        <ele>-43.3</ele>
        <time>2019-07-14T11:39:56Z</time>
      </trkpt>
      <trkpt lat="47.78679" lon="-3.69596">
        <ele>-44.5</ele>
        <time>2019-07-14T11:39:57Z</time>
      </trkpt>
      <trkpt lat="47.78682" lon="-3.6959">
        <ele>-44.86</ele>
        <time>2019-07-14T11:39:58Z</time>
      </trkpt>
      <trkpt lat="47.78685" lon="-3.69585">
        <ele>-44.9</ele>
        <time>2019-07-14T11:39:59Z</time>
      </trkpt>
      <trkpt lat="47.78692" lon="-3.69582">
        <ele>-45.02</ele>
        <time>2019-07-14T11:40:01Z</time>
      </trkpt>
      <trkpt lat="47.78698" lon="-3.69579">
        <ele>-46.37</ele>
        <time>2019-07-14T11:40:03Z</time>
      </trkpt>
      <trkpt lat="47.78704" lon="-3.69576">
        <ele>-48.4</ele>
        <time>2019-07-14T11:40:05Z</time>
      </trkpt>
      <trkpt lat="47.78711" lon="-3.69571">
        <ele>-48.98</ele>
        <time>2019-07-14T11:40:07Z</time>
      </trkpt>
      <trkpt lat="47.78717" lon="-3.69566">
        <ele>-48.81</ele>
        <time>2019-07-14T11:40:09Z</time>
      </trkpt>
      <trkpt lat="47.78721" lon="-3.69561">
        <ele>-49.67</ele>
        <time>2019-07-14T11:40:11Z</time>
      </trkpt>
      <trkpt lat="47.7872" lon="-3.69554">
        <ele>-50.44</ele>
        <time>2019-07-14T11:40:15Z</time>
      </trkpt>
      <trkpt lat="47.78722" lon="-3.69547">
        <ele>-50.39</ele>
        <time>2019-07-14T11:40:17Z</time>
      </trkpt>
      <trkpt lat="47.78726" lon="-3.69538">
        <ele>-50.76</ele>
        <time>2019-07-14T11:40:19Z</time>
      </trkpt>
      <trkpt lat="47.78729" lon="-3.69529">
        <ele>-51.06</ele>
        <time>2019-07-14T11:40:21Z</time>
      </trkpt>
      <trkpt lat="47.78727" lon="-3.6952">
        <ele>-51.71</ele>
        <time>2019-07-14T11:40:24Z</time>
      </trkpt>
      <trkpt lat="47.78722" lon="-3.69514">
        <ele>-51.22</ele>
        <time>2019-07-14T11:40:26Z</time>
      </trkpt>
      <trkpt lat="47.78717" lon="-3.69506">
        <ele>-50.69</ele>
        <time>2019-07-14T11:40:28Z</time>
      </trkpt>
      <trkpt lat="47.78711" lon="-3.69498">
        <ele>-51.14</ele>
        <time>2019-07-14T11:40:30Z</time>
      </trkpt>
      <trkpt lat="47.78706" lon="-3.69489">
        <ele>-50.97</ele>
        <time>2019-07-14T11:40:32Z</time>
      </trkpt>
      <trkpt lat="47.78701" lon="-3.69484">
        <ele>-50.5</ele>
        <time>2019-07-14T11:40:34Z</time>
      </trkpt>
      <trkpt lat="47.78694" lon="-3.69482">
        <ele>-50.83</ele>
        <time>2019-07-14T11:40:36Z</time>
      </trkpt>
      <trkpt lat="47.7869" lon="-3.69482">
        <ele>-51.18</ele>
        <time>2019-07-14T11:40:39Z</time>
      </trkpt>
      <trkpt lat="47.78685" lon="-3.69487">
        <ele>-50.84</ele>
        <time>2019-07-14T11:40:41Z</time>
      </trkpt>
      <trkpt lat="47.78681" lon="-3.6949">
        <ele>-51</ele>
        <time>2019-07-14T11:40:43Z</time>
      </trkpt>
      <trkpt lat="47.78676" lon="-3.69491">
        <ele>-50.34</ele>
        <time>2019-07-14T11:40:45Z</time>
      </trkpt>
      <trkpt lat="47.7867" lon="-3.69495">
        <ele>-48.33</ele>
        <time>2019-07-14T11:40:48Z</time>
      </trkpt>
      <trkpt lat="47.78665" lon="-3.69499">
        <ele>-46.82</ele>
        <time>2019-07-14T11:40:50Z</time>
      </trkpt>
      <trkpt lat="47.7866" lon="-3.69502">
        <ele>-45.43</ele>
        <time>2019-07-14T11:40:52Z</time>
      </trkpt>
      <trkpt lat="47.78655" lon="-3.69505">
        <ele>-43.81</ele>
        <time>2019-07-14T11:40:54Z</time>
      </trkpt>
      <trkpt lat="47.78649" lon="-3.6951">
        <ele>-42.27</ele>
        <time>2019-07-14T11:40:56Z</time>
      </trkpt>
      <trkpt lat="47.78644" lon="-3.69516">
        <ele>-41.58</ele>
        <time>2019-07-14T11:40:58Z</time>
      </trkpt>
      <trkpt lat="47.78638" lon="-3.69523">
        <ele>-41.87</ele>
        <time>2019-07-14T11:41:00Z</time>
      </trkpt>
      <trkpt lat="47.78633" lon="-3.6953">
        <ele>-42.5</ele>
        <time>2019-07-14T11:41:02Z</time>
      </trkpt>
      <trkpt lat="47.78629" lon="-3.69538">
        <ele>-42.48</ele>
        <time>2019-07-14T11:41:04Z</time>
      </trkpt>
      <trkpt lat="47.78625" lon="-3.69548">
        <ele>-42.59</ele>
        <time>2019-07-14T11:41:06Z</time>
      </trkpt>
      <trkpt lat="47.78619" lon="-3.69556">
        <ele>-43.3</ele>
        <time>2019-07-14T11:41:08Z</time>
      </trkpt>
      <trkpt lat="47.7861" lon="-3.69559">
        <ele>-44.26</ele>
        <time>2019-07-14T11:41:10Z</time>
      </trkpt>
      <trkpt lat="47.78602" lon="-3.69557">
        <ele>-44.79</ele>
        <time>2019-07-14T11:41:12Z</time>
      </trkpt>
      <trkpt lat="47.78596" lon="-3.69553">
        <ele>-45.55</ele>
        <time>2019-07-14T11:41:14Z</time>
      </trkpt>
      <trkpt lat="47.7859" lon="-3.69548">
        <ele>-44.88</ele>
        <time>2019-07-14T11:41:16Z</time>
      </trkpt>
      <trkpt lat="47.78582" lon="-3.69544">
        <ele>-43.71</ele>
        <time>2019-07-14T11:41:18Z</time>
      </trkpt>
      <trkpt lat="47.78573" lon="-3.69544">
        <ele>-44.76</ele>
        <time>2019-07-14T11:41:20Z</time>
      </trkpt>
      <trkpt lat="47.78566" lon="-3.69547">
        <ele>-44.63</ele>
        <time>2019-07-14T11:41:22Z</time>
      </trkpt>
      <trkpt lat="47.78558" lon="-3.6955">
        <ele>-45.22</ele>
        <time>2019-07-14T11:41:24Z</time>
      </trkpt>
      <trkpt lat="47.7855" lon="-3.69552">
        <ele>-46.2</ele>
        <time>2019-07-14T11:41:26Z</time>
      </trkpt>
      <trkpt lat="47.78546" lon="-3.69551">
        <ele>-46.7</ele>
        <time>2019-07-14T11:41:27Z</time>
      </trkpt>
      <trkpt lat="47.78537" lon="-3.69545">
        <ele>-47.45</ele>
        <time>2019-07-14T11:41:29Z</time>
      </trkpt>
      <trkpt lat="47.78534" lon="-3.6954">
        <ele>-47.98</ele>
        <time>2019-07-14T11:41:30Z</time>
      </trkpt>
      <trkpt lat="47.78531" lon="-3.69535">
        <ele>-48.14</ele>
        <time>2019-07-14T11:41:31Z</time>
      </trkpt>
      <trkpt lat="47.78527" lon="-3.69524">
        <ele>-49.22</ele>
        <time>2019-07-14T11:41:33Z</time>
      </trkpt>
      <trkpt lat="47.78524" lon="-3.69511">
        <ele>-50.15</ele>
        <time>2019-07-14T11:41:35Z</time>
      </trkpt>
      <trkpt lat="47.78523" lon="-3.69498">
        <ele>-49.91</ele>
        <time>2019-07-14T11:41:37Z</time>
      </trkpt>
      <trkpt lat="47.78522" lon="-3.69486">
        <ele>-49.4</ele>
        <time>2019-07-14T11:41:39Z</time>
      </trkpt>
      <trkpt lat="47.78523" lon="-3.69474">
        <ele>-49.02</ele>
        <time>2019-07-14T11:41:41Z</time>
      </trkpt>
      <trkpt lat="47.78524" lon="-3.69468">
        <ele>-48.52</ele>
        <time>2019-07-14T11:41:42Z</time>
      </trkpt>
      <trkpt lat="47.78525" lon="-3.69461">
        <ele>-48.17</ele>
        <time>2019-07-14T11:41:43Z</time>
      </trkpt>
      <trkpt lat="47.78527" lon="-3.69454">
        <ele>-47.78</ele>
        <time>2019-07-14T11:41:44Z</time>
      </trkpt>
      <trkpt lat="47.78528" lon="-3.69448">
        <ele>-47.59</ele>
        <time>2019-07-14T11:41:45Z</time>
      </trkpt>
      <trkpt lat="47.78529" lon="-3.69441">
        <ele>-47.47</ele>
        <time>2019-07-14T11:41:46Z</time>
      </trkpt>
      <trkpt lat="47.78531" lon="-3.69434">
        <ele>-46.94</ele>
        <time>2019-07-14T11:41:47Z</time>
      </trkpt>
      <trkpt lat="47.78533" lon="-3.69422">
        <ele>-46.6</ele>
        <time>2019-07-14T11:41:49Z</time>
      </trkpt>
      <trkpt lat="47.78532" lon="-3.69412">
        <ele>-47.02</ele>
        <time>2019-07-14T11:41:51Z</time>
      </trkpt>
      <trkpt lat="47.78529" lon="-3.69401">
        <ele>-46.78</ele>
        <time>2019-07-14T11:41:53Z</time>
      </trkpt>
      <trkpt lat="47.78524" lon="-3.69394">
        <ele>-46.86</ele>
        <time>2019-07-14T11:41:55Z</time>
      </trkpt>
      <trkpt lat="47.7852" lon="-3.69387">
        <ele>-46.19</ele>
        <time>2019-07-14T11:41:57Z</time>
      </trkpt>
      <trkpt lat="47.78521" lon="-3.69379">
        <ele>-45.5</ele>
        <time>2019-07-14T11:41:59Z</time>
      </trkpt>
      <trkpt lat="47.78524" lon="-3.69371">
        <ele>-45.7</ele>
        <time>2019-07-14T11:42:01Z</time>
      </trkpt>
      <trkpt lat="47.78526" lon="-3.69364">
        <ele>-46.89</ele>
        <time>2019-07-14T11:42:03Z</time>
      </trkpt>
      <trkpt lat="47.78524" lon="-3.69355">
        <ele>-49.47</ele>
        <time>2019-07-14T11:42:06Z</time>
      </trkpt>
      <trkpt lat="47.78524" lon="-3.69346">
        <ele>-51.12</ele>
        <time>2019-07-14T11:42:09Z</time>
      </trkpt>
      <trkpt lat="47.78524" lon="-3.69338">
        <ele>-51.84</ele>
        <time>2019-07-14T11:42:12Z</time>
      </trkpt>
      <trkpt lat="47.78526" lon="-3.69331">
        <ele>-51.94</ele>
        <time>2019-07-14T11:42:15Z</time>
      </trkpt>
      <trkpt lat="47.78526" lon="-3.69324">
        <ele>-52</ele>
        <time>2019-07-14T11:42:18Z</time>
      </trkpt>
      <trkpt lat="47.78523" lon="-3.69317">
        <ele>-51.92</ele>
        <time>2019-07-14T11:42:21Z</time>
      </trkpt>
      <trkpt lat="47.78518" lon="-3.69314">
        <ele>-50.81</ele>
        <time>2019-07-14T11:42:23Z</time>
      </trkpt>
      <trkpt lat="47.78514" lon="-3.69308">
        <ele>-48.75</ele>
        <time>2019-07-14T11:42:26Z</time>
      </trkpt>
      <trkpt lat="47.78508" lon="-3.69305">
        <ele>-47.38</ele>
        <time>2019-07-14T11:42:29Z</time>
      </trkpt>
      <trkpt lat="47.78504" lon="-3.69305">
        <ele>-47</ele>
        <time>2019-07-14T11:42:31Z</time>
      </trkpt>
      <trkpt lat="47.78499" lon="-3.69305">
        <ele>-47.01</ele>
        <time>2019-07-14T11:42:34Z</time>
      </trkpt>
      <trkpt lat="47.78494" lon="-3.69304">
        <ele>-46.69</ele>
        <time>2019-07-14T11:42:38Z</time>
      </trkpt>
      <trkpt lat="47.78489" lon="-3.69304">
        <ele>-45.71</ele>
        <time>2019-07-14T11:42:41Z</time>
      </trkpt>
      <trkpt lat="47.78485" lon="-3.69299">
        <ele>-45.23</ele>
        <time>2019-07-14T11:42:43Z</time>
      </trkpt>
      <trkpt lat="47.78481" lon="-3.69294">
        <ele>-44.46</ele>
        <time>2019-07-14T11:42:45Z</time>
      </trkpt>
      <trkpt lat="47.78477" lon="-3.69289">
        <ele>-43.18</ele>
        <time>2019-07-14T11:42:47Z</time>
      </trkpt>
      <trkpt lat="47.78473" lon="-3.69284">
        <ele>-41.69</ele>
        <time>2019-07-14T11:42:49Z</time>
      </trkpt>
      <trkpt lat="47.78468" lon="-3.69279">
        <ele>-39.99</ele>
        <time>2019-07-14T11:42:51Z</time>
      </trkpt>
      <trkpt lat="47.78463" lon="-3.69272">
        <ele>-39.67</ele>
        <time>2019-07-14T11:42:53Z</time>
      </trkpt>
      <trkpt lat="47.78458" lon="-3.69266">
        <ele>-39.29</ele>
        <time>2019-07-14T11:42:55Z</time>
      </trkpt>
      <trkpt lat="47.78452" lon="-3.6926">
        <ele>-39.31</ele>
        <time>2019-07-14T11:42:57Z</time>
      </trkpt>
      <trkpt lat="47.78447" lon="-3.69254">
        <ele>-39.37</ele>
        <time>2019-07-14T11:42:59Z</time>
      </trkpt>
      <trkpt lat="47.78442" lon="-3.69247">
        <ele>-39.37</ele>
        <time>2019-07-14T11:43:01Z</time>
      </trkpt>
      <trkpt lat="47.78437" lon="-3.69241">
        <ele>-38.99</ele>
        <time>2019-07-14T11:43:03Z</time>
      </trkpt>
      <trkpt lat="47.78431" lon="-3.69233">
        <ele>-39.25</ele>
        <time>2019-07-14T11:43:05Z</time>
      </trkpt>
      <trkpt lat="47.78425" lon="-3.69226">
        <ele>-39.95</ele>
        <time>2019-07-14T11:43:07Z</time>
      </trkpt>
      <trkpt lat="47.7842" lon="-3.69218">
        <ele>-40.19</ele>
        <time>2019-07-14T11:43:09Z</time>
      </trkpt>
      <trkpt lat="47.78414" lon="-3.69209">
        <ele>-40.32</ele>
        <time>2019-07-14T11:43:11Z</time>
      </trkpt>
      <trkpt lat="47.78409" lon="-3.69199">
        <ele>-40.22</ele>
        <time>2019-07-14T11:43:13Z</time>
      </trkpt>
      <trkpt lat="47.78404" lon="-3.69189">
        <ele>-40.63</ele>
        <time>2019-07-14T11:43:15Z</time>
      </trkpt>
      <trkpt lat="47.78399" lon="-3.6918">
        <ele>-41.58</ele>
        <time>2019-07-14T11:43:17Z</time>
      </trkpt>
      <trkpt lat="47.78395" lon="-3.6917">
        <ele>-43.08</ele>
        <time>2019-07-14T11:43:19Z</time>
      </trkpt>
      <trkpt lat="47.78389" lon="-3.6916">
        <ele>-43.82</ele>
        <time>2019-07-14T11:43:21Z</time>
      </trkpt>
      <trkpt lat="47.78384" lon="-3.6915">
        <ele>-44.68</ele>
        <time>2019-07-14T11:43:23Z</time>
      </trkpt>
      <trkpt lat="47.78379" lon="-3.69141">
        <ele>-45.28</ele>
        <time>2019-07-14T11:43:25Z</time>
      </trkpt>
      <trkpt lat="47.78376" lon="-3.69136">
        <ele>-45.44</ele>
        <time>2019-07-14T11:43:26Z</time>
      </trkpt>
      <trkpt lat="47.78372" lon="-3.69126">
        <ele>-46.08</ele>
        <time>2019-07-14T11:43:28Z</time>
      </trkpt>
      <trkpt lat="47.78369" lon="-3.69114">
        <ele>-45.97</ele>
        <time>2019-07-14T11:43:30Z</time>
      </trkpt>
      <trkpt lat="47.78365" lon="-3.69102">
        <ele>-46.29</ele>
        <time>2019-07-14T11:43:32Z</time>
      </trkpt>
      <trkpt lat="47.78362" lon="-3.6909">
        <ele>-46.74</ele>
        <time>2019-07-14T11:43:34Z</time>
      </trkpt>
      <trkpt lat="47.7836" lon="-3.69078">
        <ele>-46.78</ele>
        <time>2019-07-14T11:43:36Z</time>
      </trkpt>
      <trkpt lat="47.78356" lon="-3.69067">
        <ele>-46.76</ele>
        <time>2019-07-14T11:43:38Z</time>
      </trkpt>
      <trkpt lat="47.78355" lon="-3.6906">
        <ele>-46.38</ele>
        <time>2019-07-14T11:43:39Z</time>
      </trkpt>
      <trkpt lat="47.78353" lon="-3.69054">
        <ele>-45.91</ele>
        <time>2019-07-14T11:43:40Z</time>
      </trkpt>
      <trkpt lat="47.78352" lon="-3.69047">
        <ele>-45.56</ele>
        <time>2019-07-14T11:43:41Z</time>
      </trkpt>
      <trkpt lat="47.78351" lon="-3.6904">
        <ele>-45.11</ele>
        <time>2019-07-14T11:43:42Z</time>
      </trkpt>
      <trkpt lat="47.7835" lon="-3.69033">
        <ele>-45.11</ele>
        <time>2019-07-14T11:43:43Z</time>
      </trkpt>
      <trkpt lat="47.78349" lon="-3.69026">
        <ele>-44.83</ele>
        <time>2019-07-14T11:43:44Z</time>
      </trkpt>
      <trkpt lat="47.78349" lon="-3.69019">
        <ele>-44.47</ele>
        <time>2019-07-14T11:43:45Z</time>
      </trkpt>
      <trkpt lat="47.78349" lon="-3.69006">
        <ele>-43.89</ele>
        <time>2019-07-14T11:43:47Z</time>
      </trkpt>
      <trkpt lat="47.78349" lon="-3.68993">
        <ele>-43.24</ele>
        <time>2019-07-14T11:43:49Z</time>
      </trkpt>
      <trkpt lat="47.78349" lon="-3.68986">
        <ele>-42.8</ele>
        <time>2019-07-14T11:43:50Z</time>
      </trkpt>
      <trkpt lat="47.78348" lon="-3.68979">
        <ele>-42.32</ele>
        <time>2019-07-14T11:43:51Z</time>
      </trkpt>
      <trkpt lat="47.78348" lon="-3.68972">
        <ele>-42.03</ele>
        <time>2019-07-14T11:43:52Z</time>
      </trkpt>
      <trkpt lat="47.78347" lon="-3.68965">
        <ele>-41.88</ele>
        <time>2019-07-14T11:43:53Z</time>
      </trkpt>
      <trkpt lat="47.78347" lon="-3.68958">
        <ele>-41.55</ele>
        <time>2019-07-14T11:43:54Z</time>
      </trkpt>
      <trkpt lat="47.78347" lon="-3.68945">
        <ele>-41.58</ele>
        <time>2019-07-14T11:43:56Z</time>
      </trkpt>
      <trkpt lat="47.78348" lon="-3.68939">
        <ele>-41.46</ele>
        <time>2019-07-14T11:43:57Z</time>
      </trkpt>
      <trkpt lat="47.78348" lon="-3.68931">
        <ele>-41.5</ele>
        <time>2019-07-14T11:43:58Z</time>
      </trkpt>
      <trkpt lat="47.78349" lon="-3.68924">
        <ele>-41.37</ele>
        <time>2019-07-14T11:43:59Z</time>
      </trkpt>
      <trkpt lat="47.7835" lon="-3.68917">
        <ele>-41.26</ele>
        <time>2019-07-14T11:44:00Z</time>
      </trkpt>
      <trkpt lat="47.7835" lon="-3.6891">
        <ele>-41.16</ele>
        <time>2019-07-14T11:44:01Z</time>
      </trkpt>
      <trkpt lat="47.78354" lon="-3.689">
        <ele>-41.23</ele>
        <time>2019-07-14T11:44:03Z</time>
      </trkpt>
      <trkpt lat="47.7836" lon="-3.68895">
        <ele>-41.47</ele>
        <time>2019-07-14T11:44:05Z</time>
      </trkpt>
      <trkpt lat="47.78367" lon="-3.68888">
        <ele>-41.48</ele>
        <time>2019-07-14T11:44:07Z</time>
      </trkpt>
      <trkpt lat="47.78371" lon="-3.68884">
        <ele>-41.29</ele>
        <time>2019-07-14T11:44:08Z</time>
      </trkpt>
      <trkpt lat="47.78375" lon="-3.68881">
        <ele>-41.17</ele>
        <time>2019-07-14T11:44:09Z</time>
      </trkpt>
      <trkpt lat="47.78381" lon="-3.68875">
        <ele>-41.51</ele>
        <time>2019-07-14T11:44:11Z</time>
      </trkpt>
      <trkpt lat="47.78388" lon="-3.68868">
        <ele>-41.6</ele>
        <time>2019-07-14T11:44:13Z</time>
      </trkpt>
      <trkpt lat="47.78395" lon="-3.68861">
        <ele>-42.33</ele>
        <time>2019-07-14T11:44:15Z</time>
      </trkpt>
      <trkpt lat="47.78402" lon="-3.68852">
        <ele>-43.09</ele>
        <time>2019-07-14T11:44:17Z</time>
      </trkpt>
      <trkpt lat="47.78408" lon="-3.68845">
        <ele>-43.91</ele>
        <time>2019-07-14T11:44:19Z</time>
      </trkpt>
      <trkpt lat="47.78412" lon="-3.6884">
        <ele>-44.4</ele>
        <time>2019-07-14T11:44:20Z</time>
      </trkpt>
      <trkpt lat="47.78414" lon="-3.68835">
        <ele>-44.27</ele>
        <time>2019-07-14T11:44:21Z</time>
      </trkpt>
      <trkpt lat="47.7842" lon="-3.68824">
        <ele>-44.7</ele>
        <time>2019-07-14T11:44:23Z</time>
      </trkpt>
      <trkpt lat="47.78426" lon="-3.68815">
        <ele>-44.5</ele>
        <time>2019-07-14T11:44:25Z</time>
      </trkpt>
      <trkpt lat="47.78429" lon="-3.68809">
        <ele>-44.44</ele>
        <time>2019-07-14T11:44:26Z</time>
      </trkpt>
      <trkpt lat="47.78432" lon="-3.68804">
        <ele>-44.14</ele>
        <time>2019-07-14T11:44:27Z</time>
      </trkpt>
      <trkpt lat="47.78437" lon="-3.68792">
        <ele>-42.97</ele>
        <time>2019-07-14T11:44:29Z</time>
      </trkpt>
      <trkpt lat="47.78441" lon="-3.6878">
        <ele>-42.85</ele>
        <time>2019-07-14T11:44:31Z</time>
      </trkpt>
      <trkpt lat="47.78442" lon="-3.6877">
        <ele>-44.03</ele>
        <time>2019-07-14T11:44:33Z</time>
      </trkpt>
      <trkpt lat="47.78446" lon="-3.6876">
        <ele>-45.18</ele>
        <time>2019-07-14T11:44:35Z</time>
      </trkpt>
      <trkpt lat="47.78451" lon="-3.68752">
        <ele>-45.59</ele>
        <time>2019-07-14T11:44:37Z</time>
      </trkpt>
      <trkpt lat="47.78456" lon="-3.68744">
        <ele>-46.46</ele>
        <time>2019-07-14T11:44:39Z</time>
      </trkpt>
      <trkpt lat="47.7846" lon="-3.68735">
        <ele>-47.01</ele>
        <time>2019-07-14T11:44:41Z</time>
      </trkpt>
      <trkpt lat="47.78466" lon="-3.68729">
        <ele>-46.07</ele>
        <time>2019-07-14T11:44:43Z</time>
      </trkpt>
      <trkpt lat="47.78471" lon="-3.68722">
        <ele>-45.28</ele>
        <time>2019-07-14T11:44:45Z</time>
      </trkpt>
      <trkpt lat="47.78477" lon="-3.68713">
        <ele>-43.49</ele>
        <time>2019-07-14T11:44:47Z</time>
      </trkpt>
      <trkpt lat="47.78481" lon="-3.68706">
        <ele>-42.87</ele>
        <time>2019-07-14T11:44:49Z</time>
      </trkpt>
      <trkpt lat="47.78487" lon="-3.68697">
        <ele>-42.26</ele>
        <time>2019-07-14T11:44:51Z</time>
      </trkpt>
      <trkpt lat="47.78491" lon="-3.68692">
        <ele>-41.74</ele>
        <time>2019-07-14T11:44:52Z</time>
      </trkpt>
      <trkpt lat="47.78497" lon="-3.68684">
        <ele>-41.09</ele>
        <time>2019-07-14T11:44:54Z</time>
      </trkpt>
      <trkpt lat="47.785" lon="-3.68679">
        <ele>-40.76</ele>
        <time>2019-07-14T11:44:55Z</time>
      </trkpt>
      <trkpt lat="47.78504" lon="-3.68674">
        <ele>-40.52</ele>
        <time>2019-07-14T11:44:56Z</time>
      </trkpt>
      <trkpt lat="47.78507" lon="-3.68669">
        <ele>-39.88</ele>
        <time>2019-07-14T11:44:57Z</time>
      </trkpt>
      <trkpt lat="47.78514" lon="-3.6866">
        <ele>-38.24</ele>
        <time>2019-07-14T11:44:59Z</time>
      </trkpt>
      <trkpt lat="47.78521" lon="-3.68653">
        <ele>-37.57</ele>
        <time>2019-07-14T11:45:01Z</time>
      </trkpt>
      <trkpt lat="47.78525" lon="-3.6865">
        <ele>-37.11</ele>
        <time>2019-07-14T11:45:02Z</time>
      </trkpt>
      <trkpt lat="47.78533" lon="-3.68644">
        <ele>-36.17</ele>
        <time>2019-07-14T11:45:04Z</time>
      </trkpt>
      <trkpt lat="47.78539" lon="-3.6864">
        <ele>-35.56</ele>
        <time>2019-07-14T11:45:06Z</time>
      </trkpt>
      <trkpt lat="47.78546" lon="-3.68635">
        <ele>-35.19</ele>
        <time>2019-07-14T11:45:08Z</time>
      </trkpt>
      <trkpt lat="47.78553" lon="-3.6863">
        <ele>-34.4</ele>
        <time>2019-07-14T11:45:10Z</time>
      </trkpt>
      <trkpt lat="47.7856" lon="-3.68625">
        <ele>-34.4</ele>
        <time>2019-07-14T11:45:12Z</time>
      </trkpt>
      <trkpt lat="47.78566" lon="-3.6862">
        <ele>-35.56</ele>
        <time>2019-07-14T11:45:14Z</time>
      </trkpt>
      <trkpt lat="47.78571" lon="-3.68617">
        <ele>-35.79</ele>
        <time>2019-07-14T11:45:16Z</time>
      </trkpt>
      <trkpt lat="47.78576" lon="-3.68613">
        <ele>-35.92</ele>
        <time>2019-07-14T11:45:18Z</time>
      </trkpt>
      <trkpt lat="47.78583" lon="-3.68611">
        <ele>-36.91</ele>
        <time>2019-07-14T11:45:20Z</time>
      </trkpt>
      <trkpt lat="47.78589" lon="-3.68607">
        <ele>-36.42</ele>
        <time>2019-07-14T11:45:22Z</time>
      </trkpt>
      <trkpt lat="47.78593" lon="-3.68602">
        <ele>-34.1</ele>
        <time>2019-07-14T11:45:24Z</time>
      </trkpt>
      <trkpt lat="47.78599" lon="-3.68597">
        <ele>-31.51</ele>
        <time>2019-07-14T11:45:26Z</time>
      </trkpt>
      <trkpt lat="47.78605" lon="-3.68599">
        <ele>-28.92</ele>
        <time>2019-07-14T11:45:28Z</time>
      </trkpt>
      <trkpt lat="47.7861" lon="-3.68599">
        <ele>-27.76</ele>
        <time>2019-07-14T11:45:30Z</time>
      </trkpt>
      <trkpt lat="47.78616" lon="-3.68596">
        <ele>-27.07</ele>
        <time>2019-07-14T11:45:32Z</time>
      </trkpt>
      <trkpt lat="47.78623" lon="-3.68593">
        <ele>-26.19</ele>
        <time>2019-07-14T11:45:34Z</time>
      </trkpt>
      <trkpt lat="47.7863" lon="-3.68589">
        <ele>-25.31</ele>
        <time>2019-07-14T11:45:36Z</time>
      </trkpt>
      <trkpt lat="47.78636" lon="-3.68585">
        <ele>-24.23</ele>
        <time>2019-07-14T11:45:38Z</time>
      </trkpt>
      <trkpt lat="47.78642" lon="-3.68581">
        <ele>-23.39</ele>
        <time>2019-07-14T11:45:40Z</time>
      </trkpt>
      <trkpt lat="47.7865" lon="-3.68576">
        <ele>-22.81</ele>
        <time>2019-07-14T11:45:42Z</time>
      </trkpt>
      <trkpt lat="47.78658" lon="-3.68569">
        <ele>-22.58</ele>
        <time>2019-07-14T11:45:44Z</time>
      </trkpt>
      <trkpt lat="47.78667" lon="-3.68562">
        <ele>-22.14</ele>
        <time>2019-07-14T11:45:46Z</time>
      </trkpt>
      <trkpt lat="47.78673" lon="-3.68556">
        <ele>-22.26</ele>
        <time>2019-07-14T11:45:47Z</time>
      </trkpt>
      <trkpt lat="47.78677" lon="-3.68552">
        <ele>-22.86</ele>
        <time>2019-07-14T11:45:48Z</time>
      </trkpt>
      <trkpt lat="47.78681" lon="-3.68548">
        <ele>-23.46</ele>
        <time>2019-07-14T11:45:49Z</time>
      </trkpt>
      <trkpt lat="47.78685" lon="-3.68543">
        <ele>-23.99</ele>
        <time>2019-07-14T11:45:50Z</time>
      </trkpt>
      <trkpt lat="47.78688" lon="-3.68539">
        <ele>-24.35</ele>
        <time>2019-07-14T11:45:51Z</time>
      </trkpt>
      <trkpt lat="47.78692" lon="-3.68533">
        <ele>-24.74</ele>
        <time>2019-07-14T11:45:52Z</time>
      </trkpt>
      <trkpt lat="47.78696" lon="-3.68527">
        <ele>-25.21</ele>
        <time>2019-07-14T11:45:53Z</time>
      </trkpt>
      <trkpt lat="47.78699" lon="-3.68522">
        <ele>-25.21</ele>
        <time>2019-07-14T11:45:54Z</time>
      </trkpt>
      <trkpt lat="47.78702" lon="-3.68517">
        <ele>-25.42</ele>
        <time>2019-07-14T11:45:55Z</time>
      </trkpt>
      <trkpt lat="47.78705" lon="-3.68511">
        <ele>-25.48</ele>
        <time>2019-07-14T11:45:56Z</time>
      </trkpt>
      <trkpt lat="47.7871" lon="-3.685">
        <ele>-24.32</ele>
        <time>2019-07-14T11:45:58Z</time>
      </trkpt>
      <trkpt lat="47.78712" lon="-3.68494">
        <ele>-23.75</ele>
        <time>2019-07-14T11:45:59Z</time>
      </trkpt>
      <trkpt lat="47.78715" lon="-3.68487">
        <ele>-23.37</ele>
        <time>2019-07-14T11:46:00Z</time>
      </trkpt>
      <trkpt lat="47.78717" lon="-3.6848">
        <ele>-22.98</ele>
        <time>2019-07-14T11:46:01Z</time>
      </trkpt>
      <trkpt lat="47.78718" lon="-3.68474">
        <ele>-22.51</ele>
        <time>2019-07-14T11:46:02Z</time>
      </trkpt>
      <trkpt lat="47.7872" lon="-3.68466">
        <ele>-21.81</ele>
        <time>2019-07-14T11:46:03Z</time>
      </trkpt>
      <trkpt lat="47.78721" lon="-3.68458">
        <ele>-20.97</ele>
        <time>2019-07-14T11:46:04Z</time>
      </trkpt>
      <trkpt lat="47.78722" lon="-3.68451">
        <ele>-20.86</ele>
        <time>2019-07-14T11:46:05Z</time>
      </trkpt>
      <trkpt lat="47.78723" lon="-3.68444">
        <ele>-21.04</ele>
        <time>2019-07-14T11:46:06Z</time>
      </trkpt>
      <trkpt lat="47.78724" lon="-3.68436">
        <ele>-21.3</ele>
        <time>2019-07-14T11:46:07Z</time>
      </trkpt>
      <trkpt lat="47.78725" lon="-3.68429">
        <ele>-20.89</ele>
        <time>2019-07-14T11:46:08Z</time>
      </trkpt>
      <trkpt lat="47.78727" lon="-3.68417">
        <ele>-20.98</ele>
        <time>2019-07-14T11:46:10Z</time>
      </trkpt>
      <trkpt lat="47.78729" lon="-3.68403">
        <ele>-20.9</ele>
        <time>2019-07-14T11:46:12Z</time>
      </trkpt>
      <trkpt lat="47.78731" lon="-3.68397">
        <ele>-20.56</ele>
        <time>2019-07-14T11:46:13Z</time>
      </trkpt>
      <trkpt lat="47.78733" lon="-3.68383">
        <ele>-20.43</ele>
        <time>2019-07-14T11:46:15Z</time>
      </trkpt>
      <trkpt lat="47.78734" lon="-3.68377">
        <ele>-21.05</ele>
        <time>2019-07-14T11:46:16Z</time>
      </trkpt>
      <trkpt lat="47.78734" lon="-3.68363">
        <ele>-22.04</ele>
        <time>2019-07-14T11:46:18Z</time>
      </trkpt>
      <trkpt lat="47.78735" lon="-3.68357">
        <ele>-22.44</ele>
        <time>2019-07-14T11:46:19Z</time>
      </trkpt>
      <trkpt lat="47.78736" lon="-3.68349">
        <ele>-22.49</ele>
        <time>2019-07-14T11:46:20Z</time>
      </trkpt>
      <trkpt lat="47.78737" lon="-3.68343">
        <ele>-22.86</ele>
        <time>2019-07-14T11:46:21Z</time>
      </trkpt>
      <trkpt lat="47.78738" lon="-3.68336">
        <ele>-23.39</ele>
        <time>2019-07-14T11:46:22Z</time>
      </trkpt>
      <trkpt lat="47.78739" lon="-3.68329">
        <ele>-23.75</ele>
        <time>2019-07-14T11:46:23Z</time>
      </trkpt>
      <trkpt lat="47.78741" lon="-3.68317">
        <ele>-24.2</ele>
        <time>2019-07-14T11:46:25Z</time>
      </trkpt>
      <trkpt lat="47.78745" lon="-3.6831">
        <ele>-24.28</ele>
        <time>2019-07-14T11:46:27Z</time>
      </trkpt>
      <trkpt lat="47.78752" lon="-3.68309">
        <ele>-24.62</ele>
        <time>2019-07-14T11:46:29Z</time>
      </trkpt>
      <trkpt lat="47.78761" lon="-3.68311">
        <ele>-24.15</ele>
        <time>2019-07-14T11:46:31Z</time>
      </trkpt>
      <trkpt lat="47.7877" lon="-3.68313">
        <ele>-24.26</ele>
        <time>2019-07-14T11:46:33Z</time>
      </trkpt>
      <trkpt lat="47.78778" lon="-3.68315">
        <ele>-25.55</ele>
        <time>2019-07-14T11:46:35Z</time>
      </trkpt>
      <trkpt lat="47.78783" lon="-3.68315">
        <ele>-25.94</ele>
        <time>2019-07-14T11:46:36Z</time>
      </trkpt>
      <trkpt lat="47.78789" lon="-3.68314">
        <ele>-26.41</ele>
        <time>2019-07-14T11:46:37Z</time>
      </trkpt>
      <trkpt lat="47.78794" lon="-3.68313">
        <ele>-27.04</ele>
        <time>2019-07-14T11:46:38Z</time>
      </trkpt>
      <trkpt lat="47.78799" lon="-3.68313">
        <ele>-27.51</ele>
        <time>2019-07-14T11:46:39Z</time>
      </trkpt>
      <trkpt lat="47.78804" lon="-3.68313">
        <ele>-27.58</ele>
        <time>2019-07-14T11:46:40Z</time>
      </trkpt>
      <trkpt lat="47.78809" lon="-3.68313">
        <ele>-27.46</ele>
        <time>2019-07-14T11:46:41Z</time>
      </trkpt>
      <trkpt lat="47.78815" lon="-3.68313">
        <ele>-27.36</ele>
        <time>2019-07-14T11:46:42Z</time>
      </trkpt>
      <trkpt lat="47.78821" lon="-3.68313">
        <ele>-27.33</ele>
        <time>2019-07-14T11:46:43Z</time>
      </trkpt>
      <trkpt lat="47.78827" lon="-3.68314">
        <ele>-27.32</ele>
        <time>2019-07-14T11:46:44Z</time>
      </trkpt>
      <trkpt lat="47.78832" lon="-3.68315">
        <ele>-26.96</ele>
        <time>2019-07-14T11:46:45Z</time>
      </trkpt>
      <trkpt lat="47.78838" lon="-3.68317">
        <ele>-26.93</ele>
        <time>2019-07-14T11:46:46Z</time>
      </trkpt>
      <trkpt lat="47.78844" lon="-3.68318">
        <ele>-27.2</ele>
        <time>2019-07-14T11:46:47Z</time>
      </trkpt>
      <trkpt lat="47.7885" lon="-3.68319">
        <ele>-27.28</ele>
        <time>2019-07-14T11:46:48Z</time>
      </trkpt>
      <trkpt lat="47.78854" lon="-3.6832">
        <ele>-27.37</ele>
        <time>2019-07-14T11:46:49Z</time>
      </trkpt>
      <trkpt lat="47.78863" lon="-3.68319">
        <ele>-28.37</ele>
        <time>2019-07-14T11:46:51Z</time>
      </trkpt>
      <trkpt lat="47.78868" lon="-3.68319">
        <ele>-28.4</ele>
        <time>2019-07-14T11:46:52Z</time>
      </trkpt>
      <trkpt lat="47.78872" lon="-3.68319">
        <ele>-28.06</ele>
        <time>2019-07-14T11:46:53Z</time>
      </trkpt>
      <trkpt lat="47.78878" lon="-3.6832">
        <ele>-27.82</ele>
        <time>2019-07-14T11:46:54Z</time>
      </trkpt>
      <trkpt lat="47.78883" lon="-3.6832">
        <ele>-27.6</ele>
        <time>2019-07-14T11:46:55Z</time>
      </trkpt>
      <trkpt lat="47.78888" lon="-3.6832">
        <ele>-27.4</ele>
        <time>2019-07-14T11:46:56Z</time>
      </trkpt>
      <trkpt lat="47.78894" lon="-3.68319">
        <ele>-27.48</ele>
        <time>2019-07-14T11:46:57Z</time>
      </trkpt>
      <trkpt lat="47.78898" lon="-3.68319">
        <ele>-27.36</ele>
        <time>2019-07-14T11:46:58Z</time>
      </trkpt>
      <trkpt lat="47.78903" lon="-3.68319">
        <ele>-28.03</ele>
        <time>2019-07-14T11:46:59Z</time>
      </trkpt>
      <trkpt lat="47.78908" lon="-3.68319">
        <ele>-28.79</ele>
        <time>2019-07-14T11:47:00Z</time>
      </trkpt>
      <trkpt lat="47.78913" lon="-3.68319">
        <ele>-29.22</ele>
        <time>2019-07-14T11:47:01Z</time>
      </trkpt>
      <trkpt lat="47.78918" lon="-3.6832">
        <ele>-29.71</ele>
        <time>2019-07-14T11:47:02Z</time>
      </trkpt>
      <trkpt lat="47.78923" lon="-3.6832">
        <ele>-30.06</ele>
        <time>2019-07-14T11:47:03Z</time>
      </trkpt>
      <trkpt lat="47.78928" lon="-3.68321">
        <ele>-30.52</ele>
        <time>2019-07-14T11:47:04Z</time>
      </trkpt>
      <trkpt lat="47.78933" lon="-3.68319">
        <ele>-30.86</ele>
        <time>2019-07-14T11:47:05Z</time>
      </trkpt>
      <trkpt lat="47.78937" lon="-3.68315">
        <ele>-31.32</ele>
        <time>2019-07-14T11:47:06Z</time>
      </trkpt>
      <trkpt lat="47.78941" lon="-3.68311">
        <ele>-31.38</ele>
        <time>2019-07-14T11:47:07Z</time>
      </trkpt>
      <trkpt lat="47.78946" lon="-3.68305">
        <ele>-32.1</ele>
        <time>2019-07-14T11:47:08Z</time>
      </trkpt>
      <trkpt lat="47.7895" lon="-3.683">
        <ele>-32.46</ele>
        <time>2019-07-14T11:47:09Z</time>
      </trkpt>
      <trkpt lat="47.78954" lon="-3.68296">
        <ele>-32.78</ele>
        <time>2019-07-14T11:47:10Z</time>
      </trkpt>
      <trkpt lat="47.78957" lon="-3.68291">
        <ele>-32.87</ele>
        <time>2019-07-14T11:47:11Z</time>
      </trkpt>
      <trkpt lat="47.78961" lon="-3.68287">
        <ele>-32.34</ele>
        <time>2019-07-14T11:47:12Z</time>
      </trkpt>
      <trkpt lat="47.78965" lon="-3.6828">
        <ele>-31.41</ele>
        <time>2019-07-14T11:47:13Z</time>
      </trkpt>
      <trkpt lat="47.78969" lon="-3.68275">
        <ele>-31.83</ele>
        <time>2019-07-14T11:47:14Z</time>
      </trkpt>
      <trkpt lat="47.78973" lon="-3.6827">
        <ele>-32.03</ele>
        <time>2019-07-14T11:47:15Z</time>
      </trkpt>
      <trkpt lat="47.78977" lon="-3.68266">
        <ele>-32.16</ele>
        <time>2019-07-14T11:47:16Z</time>
      </trkpt>
      <trkpt lat="47.78981" lon="-3.68262">
        <ele>-31.64</ele>
        <time>2019-07-14T11:47:17Z</time>
      </trkpt>
      <trkpt lat="47.78986" lon="-3.68258">
        <ele>-30.99</ele>
        <time>2019-07-14T11:47:18Z</time>
      </trkpt>
      <trkpt lat="47.7899" lon="-3.68253">
        <ele>-30.73</ele>
        <time>2019-07-14T11:47:19Z</time>
      </trkpt>
      <trkpt lat="47.78994" lon="-3.68248">
        <ele>-30.37</ele>
        <time>2019-07-14T11:47:20Z</time>
      </trkpt>
      <trkpt lat="47.78998" lon="-3.68244">
        <ele>-30.19</ele>
        <time>2019-07-14T11:47:21Z</time>
      </trkpt>
      <trkpt lat="47.79002" lon="-3.68239">
        <ele>-30.13</ele>
        <time>2019-07-14T11:47:22Z</time>
      </trkpt>
      <trkpt lat="47.79006" lon="-3.68234">
        <ele>-29.56</ele>
        <time>2019-07-14T11:47:23Z</time>
      </trkpt>
      <trkpt lat="47.7901" lon="-3.68228">
        <ele>-28.97</ele>
        <time>2019-07-14T11:47:24Z</time>
      </trkpt>
      <trkpt lat="47.79014" lon="-3.68222">
        <ele>-28.02</ele>
        <time>2019-07-14T11:47:25Z</time>
      </trkpt>
      <trkpt lat="47.79018" lon="-3.68217">
        <ele>-27.31</ele>
        <time>2019-07-14T11:47:26Z</time>
      </trkpt>
      <trkpt lat="47.79021" lon="-3.68211">
        <ele>-26.89</ele>
        <time>2019-07-14T11:47:27Z</time>
      </trkpt>
      <trkpt lat="47.79025" lon="-3.68205">
        <ele>-26.07</ele>
        <time>2019-07-14T11:47:28Z</time>
      </trkpt>
      <trkpt lat="47.79029" lon="-3.68198">
        <ele>-25.33</ele>
        <time>2019-07-14T11:47:29Z</time>
      </trkpt>
      <trkpt lat="47.79032" lon="-3.68192">
        <ele>-24.97</ele>
        <time>2019-07-14T11:47:30Z</time>
      </trkpt>
      <trkpt lat="47.79036" lon="-3.68186">
        <ele>-24.58</ele>
        <time>2019-07-14T11:47:31Z</time>
      </trkpt>
      <trkpt lat="47.79039" lon="-3.68181">
        <ele>-23.62</ele>
        <time>2019-07-14T11:47:32Z</time>
      </trkpt>
      <trkpt lat="47.79043" lon="-3.68175">
        <ele>-22.98</ele>
        <time>2019-07-14T11:47:33Z</time>
      </trkpt>
      <trkpt lat="47.79046" lon="-3.68168">
        <ele>-22.51</ele>
        <time>2019-07-14T11:47:34Z</time>
      </trkpt>
      <trkpt lat="47.7905" lon="-3.68161">
        <ele>-22.09</ele>
        <time>2019-07-14T11:47:35Z</time>
      </trkpt>
      <trkpt lat="47.79053" lon="-3.68154">
        <ele>-21.69</ele>
        <time>2019-07-14T11:47:36Z</time>
      </trkpt>
      <trkpt lat="47.79057" lon="-3.68148">
        <ele>-21.07</ele>
        <time>2019-07-14T11:47:37Z</time>
      </trkpt>
      <trkpt lat="47.7906" lon="-3.68141">
        <ele>-20.82</ele>
        <time>2019-07-14T11:47:38Z</time>
      </trkpt>
      <trkpt lat="47.79064" lon="-3.68135">
        <ele>-20.67</ele>
        <time>2019-07-14T11:47:39Z</time>
      </trkpt>
      <trkpt lat="47.79068" lon="-3.68129">
        <ele>-20.49</ele>
        <time>2019-07-14T11:47:40Z</time>
      </trkpt>
      <trkpt lat="47.79071" lon="-3.68123">
        <ele>-20.02</ele>
        <time>2019-07-14T11:47:41Z</time>
      </trkpt>
      <trkpt lat="47.79075" lon="-3.68117">
        <ele>-19.52</ele>
        <time>2019-07-14T11:47:42Z</time>
      </trkpt>
      <trkpt lat="47.79079" lon="-3.68111">
        <ele>-19.1</ele>
        <time>2019-07-14T11:47:43Z</time>
      </trkpt>
      <trkpt lat="47.79083" lon="-3.68104">
        <ele>-18.62</ele>
        <time>2019-07-14T11:47:44Z</time>
      </trkpt>
      <trkpt lat="47.79086" lon="-3.68097">
        <ele>-18.4</ele>
        <time>2019-07-14T11:47:45Z</time>
      </trkpt>
      <trkpt lat="47.7909" lon="-3.68091">
        <ele>-18.13</ele>
        <time>2019-07-14T11:47:46Z</time>
      </trkpt>
      <trkpt lat="47.79093" lon="-3.68085">
        <ele>-17.98</ele>
        <time>2019-07-14T11:47:47Z</time>
      </trkpt>
      <trkpt lat="47.79096" lon="-3.68079">
        <ele>-18</ele>
        <time>2019-07-14T11:47:48Z</time>
      </trkpt>
      <trkpt lat="47.79099" lon="-3.68073">
        <ele>-18.15</ele>
        <time>2019-07-14T11:47:49Z</time>
      </trkpt>
      <trkpt lat="47.79105" lon="-3.68064">
        <ele>-18.6</ele>
        <time>2019-07-14T11:47:51Z</time>
      </trkpt>
      <trkpt lat="47.79108" lon="-3.68053">
        <ele>-18.43</ele>
        <time>2019-07-14T11:47:53Z</time>
      </trkpt>
      <trkpt lat="47.79107" lon="-3.68042">
        <ele>-17.93</ele>
        <time>2019-07-14T11:47:55Z</time>
      </trkpt>
      <trkpt lat="47.79104" lon="-3.68031">
        <ele>-17.41</ele>
        <time>2019-07-14T11:47:57Z</time>
      </trkpt>
      <trkpt lat="47.79099" lon="-3.68019">
        <ele>-16.83</ele>
        <time>2019-07-14T11:47:59Z</time>
      </trkpt>
      <trkpt lat="47.79097" lon="-3.68013">
        <ele>-16.54</ele>
        <time>2019-07-14T11:48:00Z</time>
      </trkpt>
      <trkpt lat="47.79094" lon="-3.68006">
        <ele>-16.59</ele>
        <time>2019-07-14T11:48:01Z</time>
      </trkpt>
      <trkpt lat="47.79091" lon="-3.67999">
        <ele>-16.75</ele>
        <time>2019-07-14T11:48:02Z</time>
      </trkpt>
      <trkpt lat="47.79088" lon="-3.67991">
        <ele>-16.65</ele>
        <time>2019-07-14T11:48:03Z</time>
      </trkpt>
      <trkpt lat="47.79086" lon="-3.67984">
        <ele>-16.48</ele>
        <time>2019-07-14T11:48:04Z</time>
      </trkpt>
      <trkpt lat="47.79084" lon="-3.67977">
        <ele>-16.29</ele>
        <time>2019-07-14T11:48:05Z</time>
      </trkpt>
      <trkpt lat="47.79081" lon="-3.67971">
        <ele>-16.45</ele>
        <time>2019-07-14T11:48:06Z</time>
      </trkpt>
      <trkpt lat="47.79079" lon="-3.67964">
        <ele>-16.98</ele>
        <time>2019-07-14T11:48:07Z</time>
      </trkpt>
      <trkpt lat="47.79076" lon="-3.67957">
        <ele>-17.49</ele>
        <time>2019-07-14T11:48:08Z</time>
      </trkpt>
      <trkpt lat="47.79073" lon="-3.6795">
        <ele>-17.58</ele>
        <time>2019-07-14T11:48:09Z</time>
      </trkpt>
      <trkpt lat="47.7907" lon="-3.67943">
        <ele>-18.79</ele>
        <time>2019-07-14T11:48:10Z</time>
      </trkpt>
      <trkpt lat="47.79068" lon="-3.67937">
        <ele>-19.86</ele>
        <time>2019-07-14T11:48:11Z</time>
      </trkpt>
      <trkpt lat="47.79066" lon="-3.6793">
        <ele>-20.88</ele>
        <time>2019-07-14T11:48:12Z</time>
      </trkpt>
      <trkpt lat="47.79063" lon="-3.67922">
        <ele>-21.53</ele>
        <time>2019-07-14T11:48:13Z</time>
      </trkpt>
      <trkpt lat="47.79061" lon="-3.67915">
        <ele>-21.94</ele>
        <time>2019-07-14T11:48:14Z</time>
      </trkpt>
      <trkpt lat="47.79059" lon="-3.67906">
        <ele>-22.27</ele>
        <time>2019-07-14T11:48:15Z</time>
      </trkpt>
      <trkpt lat="47.79056" lon="-3.67898">
        <ele>-22.51</ele>
        <time>2019-07-14T11:48:16Z</time>
      </trkpt>
      <trkpt lat="47.79055" lon="-3.6789">
        <ele>-23.07</ele>
        <time>2019-07-14T11:48:17Z</time>
      </trkpt>
      <trkpt lat="47.79053" lon="-3.67882">
        <ele>-23.59</ele>
        <time>2019-07-14T11:48:18Z</time>
      </trkpt>
      <trkpt lat="47.79052" lon="-3.67874">
        <ele>-23.82</ele>
        <time>2019-07-14T11:48:19Z</time>
      </trkpt>
      <trkpt lat="47.79051" lon="-3.67865">
        <ele>-24.09</ele>
        <time>2019-07-14T11:48:20Z</time>
      </trkpt>
      <trkpt lat="47.79049" lon="-3.67856">
        <ele>-24.46</ele>
        <time>2019-07-14T11:48:21Z</time>
      </trkpt>
      <trkpt lat="47.79048" lon="-3.67847">
        <ele>-24.64</ele>
        <time>2019-07-14T11:48:22Z</time>
      </trkpt>
      <trkpt lat="47.79047" lon="-3.67837">
        <ele>-24.69</ele>
        <time>2019-07-14T11:48:23Z</time>
      </trkpt>
      <trkpt lat="47.79045" lon="-3.67828">
        <ele>-24.85</ele>
        <time>2019-07-14T11:48:24Z</time>
      </trkpt>
      <trkpt lat="47.79043" lon="-3.67818">
        <ele>-24.96</ele>
        <time>2019-07-14T11:48:25Z</time>
      </trkpt>
      <trkpt lat="47.79042" lon="-3.67808">
        <ele>-25.14</ele>
        <time>2019-07-14T11:48:26Z</time>
      </trkpt>
      <trkpt lat="47.79041" lon="-3.67799">
        <ele>-25.47</ele>
        <time>2019-07-14T11:48:27Z</time>
      </trkpt>
      <trkpt lat="47.7904" lon="-3.6779">
        <ele>-25.85</ele>
        <time>2019-07-14T11:48:28Z</time>
      </trkpt>
      <trkpt lat="47.79039" lon="-3.67781">
        <ele>-26.03</ele>
        <time>2019-07-14T11:48:29Z</time>
      </trkpt>
      <trkpt lat="47.79038" lon="-3.67772">
        <ele>-26.16</ele>
        <time>2019-07-14T11:48:30Z</time>
      </trkpt>
      <trkpt lat="47.79037" lon="-3.67764">
        <ele>-26.34</ele>
        <time>2019-07-14T11:48:31Z</time>
      </trkpt>
      <trkpt lat="47.79036" lon="-3.67756">
        <ele>-26.46</ele>
        <time>2019-07-14T11:48:32Z</time>
      </trkpt>
      <trkpt lat="47.79036" lon="-3.67748">
        <ele>-26.57</ele>
        <time>2019-07-14T11:48:33Z</time>
      </trkpt>
      <trkpt lat="47.79036" lon="-3.6774">
        <ele>-26.6</ele>
        <time>2019-07-14T11:48:34Z</time>
      </trkpt>
      <trkpt lat="47.79035" lon="-3.67733">
        <ele>-26.75</ele>
        <time>2019-07-14T11:48:35Z</time>
      </trkpt>
      <trkpt lat="47.79035" lon="-3.67725">
        <ele>-27.21</ele>
        <time>2019-07-14T11:48:36Z</time>
      </trkpt>
      <trkpt lat="47.79034" lon="-3.67717">
        <ele>-27.98</ele>
        <time>2019-07-14T11:48:37Z</time>
      </trkpt>
      <trkpt lat="47.79032" lon="-3.67703">
        <ele>-29.31</ele>
        <time>2019-07-14T11:48:39Z</time>
      </trkpt>
      <trkpt lat="47.79029" lon="-3.67696">
        <ele>-29.8</ele>
        <time>2019-07-14T11:48:40Z</time>
      </trkpt>
      <trkpt lat="47.79027" lon="-3.67689">
        <ele>-30.44</ele>
        <time>2019-07-14T11:48:41Z</time>
      </trkpt>
      <trkpt lat="47.79025" lon="-3.67682">
        <ele>-30.84</ele>
        <time>2019-07-14T11:48:42Z</time>
      </trkpt>
      <trkpt lat="47.79023" lon="-3.67674">
        <ele>-31.17</ele>
        <time>2019-07-14T11:48:43Z</time>
      </trkpt>
      <trkpt lat="47.79023" lon="-3.67666">
        <ele>-31.55</ele>
        <time>2019-07-14T11:48:44Z</time>
      </trkpt>
      <trkpt lat="47.79023" lon="-3.67657">
        <ele>-31.87</ele>
        <time>2019-07-14T11:48:45Z</time>
      </trkpt>
      <trkpt lat="47.79023" lon="-3.67649">
        <ele>-32.25</ele>
        <time>2019-07-14T11:48:46Z</time>
      </trkpt>
      <trkpt lat="47.79024" lon="-3.67641">
        <ele>-32.71</ele>
        <time>2019-07-14T11:48:47Z</time>
      </trkpt>
      <trkpt lat="47.79024" lon="-3.67632">
        <ele>-32.64</ele>
        <time>2019-07-14T11:48:48Z</time>
      </trkpt>
      <trkpt lat="47.79024" lon="-3.67624">
        <ele>-33.04</ele>
        <time>2019-07-14T11:48:49Z</time>
      </trkpt>
      <trkpt lat="47.79026" lon="-3.67615">
        <ele>-33.37</ele>
        <time>2019-07-14T11:48:50Z</time>
      </trkpt>
      <trkpt lat="47.79027" lon="-3.67607">
        <ele>-33.4</ele>
        <time>2019-07-14T11:48:51Z</time>
      </trkpt>
      <trkpt lat="47.79025" lon="-3.67594">
        <ele>-33.89</ele>
        <time>2019-07-14T11:48:53Z</time>
      </trkpt>
      <trkpt lat="47.79022" lon="-3.67586">
        <ele>-33.35</ele>
        <time>2019-07-14T11:48:54Z</time>
      </trkpt>
      <trkpt lat="47.79018" lon="-3.6758">
        <ele>-32.9</ele>
        <time>2019-07-14T11:48:55Z</time>
      </trkpt>
      <trkpt lat="47.79014" lon="-3.67575">
        <ele>-32.14</ele>
        <time>2019-07-14T11:48:56Z</time>
      </trkpt>
      <trkpt lat="47.7901" lon="-3.67572">
        <ele>-31.84</ele>
        <time>2019-07-14T11:48:57Z</time>
      </trkpt>
      <trkpt lat="47.79007" lon="-3.67564">
        <ele>-32.14</ele>
        <time>2019-07-14T11:48:59Z</time>
      </trkpt>
      <trkpt lat="47.7901" lon="-3.67557">
        <ele>-31.79</ele>
        <time>2019-07-14T11:49:02Z</time>
      </trkpt>
      <trkpt lat="47.7901" lon="-3.67547">
        <ele>-30.17</ele>
        <time>2019-07-14T11:49:23Z</time>
      </trkpt>
      <trkpt lat="47.7901" lon="-3.67539">
        <ele>-30.05</ele>
        <time>2019-07-14T11:49:25Z</time>
      </trkpt>
      <trkpt lat="47.79012" lon="-3.67531">
        <ele>-29.92</ele>
        <time>2019-07-14T11:49:27Z</time>
      </trkpt>
      <trkpt lat="47.79013" lon="-3.67522">
        <ele>-29.75</ele>
        <time>2019-07-14T11:49:29Z</time>
      </trkpt>
      <trkpt lat="47.79014" lon="-3.67511">
        <ele>-29.55</ele>
        <time>2019-07-14T11:49:31Z</time>
      </trkpt>
      <trkpt lat="47.79017" lon="-3.67499">
        <ele>-29.52</ele>
        <time>2019-07-14T11:49:33Z</time>
      </trkpt>
      <trkpt lat="47.79019" lon="-3.67493">
        <ele>-29.65</ele>
        <time>2019-07-14T11:49:34Z</time>
      </trkpt>
      <trkpt lat="47.79021" lon="-3.67487">
        <ele>-29.69</ele>
        <time>2019-07-14T11:49:35Z</time>
      </trkpt>
      <trkpt lat="47.79023" lon="-3.67479">
        <ele>-29.71</ele>
        <time>2019-07-14T11:49:36Z</time>
      </trkpt>
      <trkpt lat="47.79025" lon="-3.67472">
        <ele>-29.78</ele>
        <time>2019-07-14T11:49:37Z</time>
      </trkpt>
      <trkpt lat="47.79027" lon="-3.67466">
        <ele>-29.73</ele>
        <time>2019-07-14T11:49:38Z</time>
      </trkpt>
      <trkpt lat="47.7903" lon="-3.6746">
        <ele>-29.65</ele>
        <time>2019-07-14T11:49:39Z</time>
      </trkpt>
      <trkpt lat="47.79031" lon="-3.67447">
        <ele>-29.62</ele>
        <time>2019-07-14T11:49:41Z</time>
      </trkpt>
      <trkpt lat="47.79031" lon="-3.67436">
        <ele>-29.54</ele>
        <time>2019-07-14T11:49:43Z</time>
      </trkpt>
      <trkpt lat="47.79033" lon="-3.67425">
        <ele>-29.51</ele>
        <time>2019-07-14T11:49:45Z</time>
      </trkpt>
      <trkpt lat="47.79035" lon="-3.67419">
        <ele>-29.51</ele>
        <time>2019-07-14T11:49:46Z</time>
      </trkpt>
      <trkpt lat="47.79042" lon="-3.67409">
        <ele>-29.49</ele>
        <time>2019-07-14T11:49:48Z</time>
      </trkpt>
      <trkpt lat="47.79048" lon="-3.67401">
        <ele>-29.51</ele>
        <time>2019-07-14T11:49:50Z</time>
      </trkpt>
      <trkpt lat="47.79052" lon="-3.67396">
        <ele>-29.58</ele>
        <time>2019-07-14T11:49:52Z</time>
      </trkpt>
      <trkpt lat="47.79058" lon="-3.67395">
        <ele>-29.7</ele>
        <time>2019-07-14T11:49:54Z</time>
      </trkpt>
      <trkpt lat="47.79065" lon="-3.67394">
        <ele>-29.55</ele>
        <time>2019-07-14T11:49:56Z</time>
      </trkpt>
      <trkpt lat="47.7907" lon="-3.67394">
        <ele>-29.38</ele>
        <time>2019-07-14T11:49:57Z</time>
      </trkpt>
      <trkpt lat="47.79078" lon="-3.67395">
        <ele>-29.16</ele>
        <time>2019-07-14T11:49:59Z</time>
      </trkpt>
      <trkpt lat="47.79083" lon="-3.67394">
        <ele>-28.99</ele>
        <time>2019-07-14T11:50:00Z</time>
      </trkpt>
      <trkpt lat="47.79092" lon="-3.67394">
        <ele>-28.76</ele>
        <time>2019-07-14T11:50:02Z</time>
      </trkpt>
      <trkpt lat="47.79098" lon="-3.67396">
        <ele>-28.53</ele>
        <time>2019-07-14T11:50:04Z</time>
      </trkpt>
      <trkpt lat="47.79102" lon="-3.67398">
        <ele>-28.66</ele>
        <time>2019-07-14T11:50:05Z</time>
      </trkpt>
      <trkpt lat="47.79111" lon="-3.67401">
        <ele>-28.48</ele>
        <time>2019-07-14T11:50:07Z</time>
      </trkpt>
      <trkpt lat="47.79118" lon="-3.67402">
        <ele>-28</ele>
        <time>2019-07-14T11:50:09Z</time>
      </trkpt>
      <trkpt lat="47.79123" lon="-3.67403">
        <ele>-27.59</ele>
        <time>2019-07-14T11:50:10Z</time>
      </trkpt>
      <trkpt lat="47.79128" lon="-3.67404">
        <ele>-27.12</ele>
        <time>2019-07-14T11:50:11Z</time>
      </trkpt>
      <trkpt lat="47.79136" lon="-3.67405">
        <ele>-26.68</ele>
        <time>2019-07-14T11:50:13Z</time>
      </trkpt>
      <trkpt lat="47.7914" lon="-3.67406">
        <ele>-26.49</ele>
        <time>2019-07-14T11:50:14Z</time>
      </trkpt>
      <trkpt lat="47.79145" lon="-3.67407">
        <ele>-26.37</ele>
        <time>2019-07-14T11:50:15Z</time>
      </trkpt>
      <trkpt lat="47.79151" lon="-3.67409">
        <ele>-26.09</ele>
        <time>2019-07-14T11:50:17Z</time>
      </trkpt>
      <trkpt lat="47.79163" lon="-3.67407">
        <ele>-25.61</ele>
        <time>2019-07-14T11:50:19Z</time>
      </trkpt>
      <trkpt lat="47.79171" lon="-3.67404">
        <ele>-25.19</ele>
        <time>2019-07-14T11:50:20Z</time>
      </trkpt>
      <trkpt lat="47.79176" lon="-3.67403">
        <ele>-24.93</ele>
        <time>2019-07-14T11:50:21Z</time>
      </trkpt>
      <trkpt lat="47.79184" lon="-3.67404">
        <ele>-24.41</ele>
        <time>2019-07-14T11:50:23Z</time>
      </trkpt>
      <trkpt lat="47.79188" lon="-3.67405">
        <ele>-24.13</ele>
        <time>2019-07-14T11:50:24Z</time>
      </trkpt>
      <trkpt lat="47.79194" lon="-3.67406">
        <ele>-23.84</ele>
        <time>2019-07-14T11:50:25Z</time>
      </trkpt>
      <trkpt lat="47.79199" lon="-3.67406">
        <ele>-23.47</ele>
        <time>2019-07-14T11:50:26Z</time>
      </trkpt>
      <trkpt lat="47.79204" lon="-3.67406">
        <ele>-23.08</ele>
        <time>2019-07-14T11:50:27Z</time>
      </trkpt>
      <trkpt lat="47.7921" lon="-3.67405">
        <ele>-22.68</ele>
        <time>2019-07-14T11:50:28Z</time>
      </trkpt>
      <trkpt lat="47.79216" lon="-3.67406">
        <ele>-22.35</ele>
        <time>2019-07-14T11:50:29Z</time>
      </trkpt>
      <trkpt lat="47.79222" lon="-3.67404">
        <ele>-22.04</ele>
        <time>2019-07-14T11:50:30Z</time>
      </trkpt>
      <trkpt lat="47.79229" lon="-3.67401">
        <ele>-21.67</ele>
        <time>2019-07-14T11:50:31Z</time>
      </trkpt>
      <trkpt lat="47.79234" lon="-3.674">
        <ele>-21.28</ele>
        <time>2019-07-14T11:50:32Z</time>
      </trkpt>
      <trkpt lat="47.79244" lon="-3.67399">
        <ele>-20.39</ele>
        <time>2019-07-14T11:50:34Z</time>
      </trkpt>
      <trkpt lat="47.79248" lon="-3.674">
        <ele>-20.2</ele>
        <time>2019-07-14T11:50:35Z</time>
      </trkpt>
      <trkpt lat="47.79254" lon="-3.67401">
        <ele>-20.21</ele>
        <time>2019-07-14T11:50:36Z</time>
      </trkpt>
      <trkpt lat="47.7926" lon="-3.67401">
        <ele>-20</ele>
        <time>2019-07-14T11:50:37Z</time>
      </trkpt>
      <trkpt lat="47.79266" lon="-3.67401">
        <ele>-19.66</ele>
        <time>2019-07-14T11:50:38Z</time>
      </trkpt>
      <trkpt lat="47.79275" lon="-3.67398">
        <ele>-18.9</ele>
        <time>2019-07-14T11:50:40Z</time>
      </trkpt>
      <trkpt lat="47.7928" lon="-3.67398">
        <ele>-18.49</ele>
        <time>2019-07-14T11:50:41Z</time>
      </trkpt>
      <trkpt lat="47.79286" lon="-3.67396">
        <ele>-18.02</ele>
        <time>2019-07-14T11:50:42Z</time>
      </trkpt>
      <trkpt lat="47.79291" lon="-3.67393">
        <ele>-17.59</ele>
        <time>2019-07-14T11:50:43Z</time>
      </trkpt>
      <trkpt lat="47.79296" lon="-3.6739">
        <ele>-17.33</ele>
        <time>2019-07-14T11:50:44Z</time>
      </trkpt>
      <trkpt lat="47.79301" lon="-3.67387">
        <ele>-17.25</ele>
        <time>2019-07-14T11:50:45Z</time>
      </trkpt>
      <trkpt lat="47.79306" lon="-3.67385">
        <ele>-17.15</ele>
        <time>2019-07-14T11:50:46Z</time>
      </trkpt>
      <trkpt lat="47.79311" lon="-3.67384">
        <ele>-17.12</ele>
        <time>2019-07-14T11:50:47Z</time>
      </trkpt>
      <trkpt lat="47.79316" lon="-3.67381">
        <ele>-16.91</ele>
        <time>2019-07-14T11:50:48Z</time>
      </trkpt>
      <trkpt lat="47.79323" lon="-3.67379">
        <ele>-16.56</ele>
        <time>2019-07-14T11:50:49Z</time>
      </trkpt>
      <trkpt lat="47.7933" lon="-3.67375">
        <ele>-16.39</ele>
        <time>2019-07-14T11:50:50Z</time>
      </trkpt>
      <trkpt lat="47.79337" lon="-3.67372">
        <ele>-16.26</ele>
        <time>2019-07-14T11:50:51Z</time>
      </trkpt>
      <trkpt lat="47.79344" lon="-3.67368">
        <ele>-16.23</ele>
        <time>2019-07-14T11:50:52Z</time>
      </trkpt>
      <trkpt lat="47.79351" lon="-3.67365">
        <ele>-16.15</ele>
        <time>2019-07-14T11:50:53Z</time>
      </trkpt>
      <trkpt lat="47.7936" lon="-3.67361">
        <ele>-16.05</ele>
        <time>2019-07-14T11:50:54Z</time>
      </trkpt>
      <trkpt lat="47.79367" lon="-3.67358">
        <ele>-15.88</ele>
        <time>2019-07-14T11:50:55Z</time>
      </trkpt>
      <trkpt lat="47.79375" lon="-3.67356">
        <ele>-15.76</ele>
        <time>2019-07-14T11:50:56Z</time>
      </trkpt>
      <trkpt lat="47.79383" lon="-3.67352">
        <ele>-16.08</ele>
        <time>2019-07-14T11:50:57Z</time>
      </trkpt>
      <trkpt lat="47.7939" lon="-3.6735">
        <ele>-16.45</ele>
        <time>2019-07-14T11:50:58Z</time>
      </trkpt>
      <trkpt lat="47.79397" lon="-3.67347">
        <ele>-16.7</ele>
        <time>2019-07-14T11:50:59Z</time>
      </trkpt>
      <trkpt lat="47.79403" lon="-3.67345">
        <ele>-17.13</ele>
        <time>2019-07-14T11:51:00Z</time>
      </trkpt>
      <trkpt lat="47.79408" lon="-3.67341">
        <ele>-17.47</ele>
        <time>2019-07-14T11:51:01Z</time>
      </trkpt>
      <trkpt lat="47.79413" lon="-3.67337">
        <ele>-17.78</ele>
        <time>2019-07-14T11:51:02Z</time>
      </trkpt>
      <trkpt lat="47.79416" lon="-3.67331">
        <ele>-18.29</ele>
        <time>2019-07-14T11:51:03Z</time>
      </trkpt>
      <trkpt lat="47.7942" lon="-3.67325">
        <ele>-18.59</ele>
        <time>2019-07-14T11:51:04Z</time>
      </trkpt>
      <trkpt lat="47.79421" lon="-3.67318">
        <ele>-18.81</ele>
        <time>2019-07-14T11:51:05Z</time>
      </trkpt>
      <trkpt lat="47.79423" lon="-3.67311">
        <ele>-18.95</ele>
        <time>2019-07-14T11:51:06Z</time>
      </trkpt>
      <trkpt lat="47.79426" lon="-3.67302">
        <ele>-19.27</ele>
        <time>2019-07-14T11:51:07Z</time>
      </trkpt>
      <trkpt lat="47.79428" lon="-3.67294">
        <ele>-19.44</ele>
        <time>2019-07-14T11:51:08Z</time>
      </trkpt>
      <trkpt lat="47.7943" lon="-3.67286">
        <ele>-19.42</ele>
        <time>2019-07-14T11:51:09Z</time>
      </trkpt>
      <trkpt lat="47.79432" lon="-3.67279">
        <ele>-19.41</ele>
        <time>2019-07-14T11:51:10Z</time>
      </trkpt>
      <trkpt lat="47.79435" lon="-3.67272">
        <ele>-19.69</ele>
        <time>2019-07-14T11:51:11Z</time>
      </trkpt>
      <trkpt lat="47.79437" lon="-3.67265">
        <ele>-19.85</ele>
        <time>2019-07-14T11:51:12Z</time>
      </trkpt>
      <trkpt lat="47.7944" lon="-3.67258">
        <ele>-19.96</ele>
        <time>2019-07-14T11:51:13Z</time>
      </trkpt>
      <trkpt lat="47.79441" lon="-3.67249">
        <ele>-20.21</ele>
        <time>2019-07-14T11:51:14Z</time>
      </trkpt>
      <trkpt lat="47.79441" lon="-3.67234">
        <ele>-21.11</ele>
        <time>2019-07-14T11:51:16Z</time>
      </trkpt>
      <trkpt lat="47.79441" lon="-3.67227">
        <ele>-21.6</ele>
        <time>2019-07-14T11:51:17Z</time>
      </trkpt>
      <trkpt lat="47.79441" lon="-3.67219">
        <ele>-21.96</ele>
        <time>2019-07-14T11:51:18Z</time>
      </trkpt>
      <trkpt lat="47.79442" lon="-3.67207">
        <ele>-22.79</ele>
        <time>2019-07-14T11:51:20Z</time>
      </trkpt>
      <trkpt lat="47.79441" lon="-3.672">
        <ele>-23.16</ele>
        <time>2019-07-14T11:51:21Z</time>
      </trkpt>
      <trkpt lat="47.79441" lon="-3.67193">
        <ele>-23.34</ele>
        <time>2019-07-14T11:51:22Z</time>
      </trkpt>
      <trkpt lat="47.7944" lon="-3.67181">
        <ele>-23.87</ele>
        <time>2019-07-14T11:51:24Z</time>
      </trkpt>
      <trkpt lat="47.79442" lon="-3.6717">
        <ele>-24.55</ele>
        <time>2019-07-14T11:51:26Z</time>
      </trkpt>
      <trkpt lat="47.79445" lon="-3.67163">
        <ele>-25.2</ele>
        <time>2019-07-14T11:51:28Z</time>
      </trkpt>
      <trkpt lat="47.7945" lon="-3.67158">
        <ele>-25.55</ele>
        <time>2019-07-14T11:51:30Z</time>
      </trkpt>
      <trkpt lat="47.79453" lon="-3.67154">
        <ele>-25.45</ele>
        <time>2019-07-14T11:51:32Z</time>
      </trkpt>
      <trkpt lat="47.79456" lon="-3.67147">
        <ele>-25.36</ele>
        <time>2019-07-14T11:51:35Z</time>
      </trkpt>
      <trkpt lat="47.79458" lon="-3.67138">
        <ele>-26.19</ele>
        <time>2019-07-14T11:51:38Z</time>
      </trkpt>
      <trkpt lat="47.79458" lon="-3.67129">
        <ele>-26.44</ele>
        <time>2019-07-14T11:51:40Z</time>
      </trkpt>
      <trkpt lat="47.79458" lon="-3.67122">
        <ele>-26.92</ele>
        <time>2019-07-14T11:51:42Z</time>
      </trkpt>
      <trkpt lat="47.79461" lon="-3.67115">
        <ele>-27.71</ele>
        <time>2019-07-14T11:51:45Z</time>
      </trkpt>
      <trkpt lat="47.79465" lon="-3.67108">
        <ele>-28.35</ele>
        <time>2019-07-14T11:51:48Z</time>
      </trkpt>
      <trkpt lat="47.79469" lon="-3.67101">
        <ele>-28.95</ele>
        <time>2019-07-14T11:51:51Z</time>
      </trkpt>
      <trkpt lat="47.79473" lon="-3.67096">
        <ele>-29.41</ele>
        <time>2019-07-14T11:51:52Z</time>
      </trkpt>
      <trkpt lat="47.79479" lon="-3.67092">
        <ele>-29.62</ele>
        <time>2019-07-14T11:51:54Z</time>
      </trkpt>
      <trkpt lat="47.79487" lon="-3.67088">
        <ele>-29.52</ele>
        <time>2019-07-14T11:51:56Z</time>
      </trkpt>
      <trkpt lat="47.79491" lon="-3.67086">
        <ele>-29.44</ele>
        <time>2019-07-14T11:51:57Z</time>
      </trkpt>
      <trkpt lat="47.79499" lon="-3.67081">
        <ele>-29.16</ele>
        <time>2019-07-14T11:51:59Z</time>
      </trkpt>
      <trkpt lat="47.79507" lon="-3.67076">
        <ele>-29.03</ele>
        <time>2019-07-14T11:52:01Z</time>
      </trkpt>
      <trkpt lat="47.79512" lon="-3.67072">
        <ele>-28.88</ele>
        <time>2019-07-14T11:52:02Z</time>
      </trkpt>
      <trkpt lat="47.79518" lon="-3.67067">
        <ele>-28.76</ele>
        <time>2019-07-14T11:52:03Z</time>
      </trkpt>
      <trkpt lat="47.79522" lon="-3.67062">
        <ele>-28.8</ele>
        <time>2019-07-14T11:52:04Z</time>
      </trkpt>
      <trkpt lat="47.79527" lon="-3.67058">
        <ele>-28.81</ele>
        <time>2019-07-14T11:52:05Z</time>
      </trkpt>
      <trkpt lat="47.79532" lon="-3.67054">
        <ele>-28.81</ele>
        <time>2019-07-14T11:52:06Z</time>
      </trkpt>
      <trkpt lat="47.79538" lon="-3.67047">
        <ele>-28.72</ele>
        <time>2019-07-14T11:52:08Z</time>
      </trkpt>
      <trkpt lat="47.79542" lon="-3.67043">
        <ele>-28.57</ele>
        <time>2019-07-14T11:52:09Z</time>
      </trkpt>
      <trkpt lat="47.79547" lon="-3.67037">
        <ele>-28.39</ele>
        <time>2019-07-14T11:52:10Z</time>
      </trkpt>
      <trkpt lat="47.7955" lon="-3.67032">
        <ele>-28.52</ele>
        <time>2019-07-14T11:52:12Z</time>
      </trkpt>
      <trkpt lat="47.79557" lon="-3.67026">
        <ele>-28.7</ele>
        <time>2019-07-14T11:52:14Z</time>
      </trkpt>
      <trkpt lat="47.7956" lon="-3.67021">
        <ele>-28.82</ele>
        <time>2019-07-14T11:52:16Z</time>
      </trkpt>
      <trkpt lat="47.79564" lon="-3.67013">
        <ele>-28.73</ele>
        <time>2019-07-14T11:52:19Z</time>
      </trkpt>
      <trkpt lat="47.79567" lon="-3.67007">
        <ele>-28.62</ele>
        <time>2019-07-14T11:52:21Z</time>
      </trkpt>
      <trkpt lat="47.79571" lon="-3.67">
        <ele>-28.47</ele>
        <time>2019-07-14T11:52:23Z</time>
      </trkpt>
      <trkpt lat="47.79575" lon="-3.66995">
        <ele>-28.58</ele>
        <time>2019-07-14T11:52:25Z</time>
      </trkpt>
      <trkpt lat="47.7958" lon="-3.6699">
        <ele>-28.68</ele>
        <time>2019-07-14T11:52:27Z</time>
      </trkpt>
      <trkpt lat="47.79584" lon="-3.66987">
        <ele>-28.78</ele>
        <time>2019-07-14T11:52:29Z</time>
      </trkpt>
      <trkpt lat="47.7959" lon="-3.66984">
        <ele>-28.58</ele>
        <time>2019-07-14T11:52:31Z</time>
      </trkpt>
      <trkpt lat="47.79596" lon="-3.66981">
        <ele>-28.43</ele>
        <time>2019-07-14T11:52:33Z</time>
      </trkpt>
      <trkpt lat="47.79602" lon="-3.66977">
        <ele>-28.57</ele>
        <time>2019-07-14T11:52:35Z</time>
      </trkpt>
      <trkpt lat="47.79608" lon="-3.66972">
        <ele>-28.86</ele>
        <time>2019-07-14T11:52:37Z</time>
      </trkpt>
      <trkpt lat="47.79614" lon="-3.66969">
        <ele>-29.07</ele>
        <time>2019-07-14T11:52:39Z</time>
      </trkpt>
      <trkpt lat="47.7962" lon="-3.66965">
        <ele>-29.32</ele>
        <time>2019-07-14T11:52:41Z</time>
      </trkpt>
      <trkpt lat="47.79624" lon="-3.66961">
        <ele>-29.63</ele>
        <time>2019-07-14T11:52:43Z</time>
      </trkpt>
      <trkpt lat="47.79629" lon="-3.66957">
        <ele>-29.71</ele>
        <time>2019-07-14T11:52:45Z</time>
      </trkpt>
      <trkpt lat="47.79634" lon="-3.6695">
        <ele>-29.32</ele>
        <time>2019-07-14T11:52:47Z</time>
      </trkpt>
      <trkpt lat="47.79639" lon="-3.66944">
        <ele>-30.1</ele>
        <time>2019-07-14T11:52:49Z</time>
      </trkpt>
      <trkpt lat="47.79645" lon="-3.66938">
        <ele>-31.21</ele>
        <time>2019-07-14T11:52:51Z</time>
      </trkpt>
      <trkpt lat="47.79651" lon="-3.66931">
        <ele>-31.72</ele>
        <time>2019-07-14T11:52:53Z</time>
      </trkpt>
      <trkpt lat="47.79656" lon="-3.66927">
        <ele>-32.08</ele>
        <time>2019-07-14T11:52:55Z</time>
      </trkpt>
      <trkpt lat="47.79662" lon="-3.66922">
        <ele>-32.49</ele>
        <time>2019-07-14T11:52:57Z</time>
      </trkpt>
      <trkpt lat="47.79669" lon="-3.66917">
        <ele>-32.93</ele>
        <time>2019-07-14T11:52:59Z</time>
      </trkpt>
      <trkpt lat="47.79676" lon="-3.66913">
        <ele>-32.45</ele>
        <time>2019-07-14T11:53:01Z</time>
      </trkpt>
      <trkpt lat="47.79683" lon="-3.66911">
        <ele>-31.98</ele>
        <time>2019-07-14T11:53:03Z</time>
      </trkpt>
      <trkpt lat="47.7969" lon="-3.66911">
        <ele>-32.86</ele>
        <time>2019-07-14T11:53:05Z</time>
      </trkpt>
      <trkpt lat="47.79696" lon="-3.6691">
        <ele>-33.6</ele>
        <time>2019-07-14T11:53:07Z</time>
      </trkpt>
      <trkpt lat="47.79705" lon="-3.66909">
        <ele>-36.2</ele>
        <time>2019-07-14T11:53:09Z</time>
      </trkpt>
      <trkpt lat="47.79709" lon="-3.66908">
        <ele>-37.26</ele>
        <time>2019-07-14T11:53:10Z</time>
      </trkpt>
      <trkpt lat="47.79716" lon="-3.66902">
        <ele>-38.48</ele>
        <time>2019-07-14T11:53:12Z</time>
      </trkpt>
      <trkpt lat="47.79719" lon="-3.66894">
        <ele>-38.39</ele>
        <time>2019-07-14T11:53:14Z</time>
      </trkpt>
      <trkpt lat="47.79722" lon="-3.66882">
        <ele>-36.93</ele>
        <time>2019-07-14T11:53:16Z</time>
      </trkpt>
      <trkpt lat="47.79724" lon="-3.66871">
        <ele>-35.11</ele>
        <time>2019-07-14T11:53:18Z</time>
      </trkpt>
      <trkpt lat="47.79724" lon="-3.66864">
        <ele>-34.34</ele>
        <time>2019-07-14T11:53:19Z</time>
      </trkpt>
      <trkpt lat="47.79725" lon="-3.66857">
        <ele>-33.27</ele>
        <time>2019-07-14T11:53:20Z</time>
      </trkpt>
      <trkpt lat="47.79726" lon="-3.6685">
        <ele>-32.25</ele>
        <time>2019-07-14T11:53:21Z</time>
      </trkpt>
      <trkpt lat="47.79728" lon="-3.66838">
        <ele>-30.47</ele>
        <time>2019-07-14T11:53:23Z</time>
      </trkpt>
      <trkpt lat="47.79729" lon="-3.66827">
        <ele>-28.97</ele>
        <time>2019-07-14T11:53:25Z</time>
      </trkpt>
      <trkpt lat="47.7973" lon="-3.66817">
        <ele>-27.22</ele>
        <time>2019-07-14T11:53:27Z</time>
      </trkpt>
      <trkpt lat="47.7973" lon="-3.66806">
        <ele>-26.9</ele>
        <time>2019-07-14T11:53:29Z</time>
      </trkpt>
      <trkpt lat="47.79731" lon="-3.66795">
        <ele>-27.21</ele>
        <time>2019-07-14T11:53:31Z</time>
      </trkpt>
      <trkpt lat="47.79732" lon="-3.66784">
        <ele>-26.86</ele>
        <time>2019-07-14T11:53:33Z</time>
      </trkpt>
      <trkpt lat="47.79732" lon="-3.66771">
        <ele>-26.07</ele>
        <time>2019-07-14T11:53:35Z</time>
      </trkpt>
      <trkpt lat="47.79732" lon="-3.66759">
        <ele>-26.47</ele>
        <time>2019-07-14T11:53:37Z</time>
      </trkpt>
      <trkpt lat="47.79733" lon="-3.66752">
        <ele>-26.57</ele>
        <time>2019-07-14T11:53:38Z</time>
      </trkpt>
      <trkpt lat="47.79733" lon="-3.66745">
        <ele>-26.53</ele>
        <time>2019-07-14T11:53:39Z</time>
      </trkpt>
      <trkpt lat="47.79732" lon="-3.66738">
        <ele>-26.03</ele>
        <time>2019-07-14T11:53:40Z</time>
      </trkpt>
      <trkpt lat="47.79733" lon="-3.66725">
        <ele>-24.4</ele>
        <time>2019-07-14T11:53:42Z</time>
      </trkpt>
      <trkpt lat="47.79734" lon="-3.66718">
        <ele>-23.5</ele>
        <time>2019-07-14T11:53:43Z</time>
      </trkpt>
      <trkpt lat="47.79734" lon="-3.66705">
        <ele>-22.2</ele>
        <time>2019-07-14T11:53:45Z</time>
      </trkpt>
      <trkpt lat="47.79733" lon="-3.66692">
        <ele>-22.13</ele>
        <time>2019-07-14T11:53:47Z</time>
      </trkpt>
      <trkpt lat="47.79732" lon="-3.66685">
        <ele>-22.47</ele>
        <time>2019-07-14T11:53:48Z</time>
      </trkpt>
      <trkpt lat="47.79732" lon="-3.66678">
        <ele>-22.5</ele>
        <time>2019-07-14T11:53:49Z</time>
      </trkpt>
      <trkpt lat="47.79731" lon="-3.66671">
        <ele>-22.44</ele>
        <time>2019-07-14T11:53:50Z</time>
      </trkpt>
      <trkpt lat="47.7973" lon="-3.66664">
        <ele>-22.42</ele>
        <time>2019-07-14T11:53:51Z</time>
      </trkpt>
      <trkpt lat="47.79729" lon="-3.66657">
        <ele>-22.34</ele>
        <time>2019-07-14T11:53:52Z</time>
      </trkpt>
      <trkpt lat="47.79728" lon="-3.6665">
        <ele>-22.53</ele>
        <time>2019-07-14T11:53:53Z</time>
      </trkpt>
      <trkpt lat="47.79727" lon="-3.66643">
        <ele>-22.94</ele>
        <time>2019-07-14T11:53:54Z</time>
      </trkpt>
      <trkpt lat="47.79726" lon="-3.66636">
        <ele>-23.34</ele>
        <time>2019-07-14T11:53:55Z</time>
      </trkpt>
      <trkpt lat="47.79725" lon="-3.66628">
        <ele>-23.88</ele>
        <time>2019-07-14T11:53:56Z</time>
      </trkpt>
      <trkpt lat="47.79724" lon="-3.6662">
        <ele>-24.25</ele>
        <time>2019-07-14T11:53:57Z</time>
      </trkpt>
      <trkpt lat="47.79723" lon="-3.66613">
        <ele>-24.36</ele>
        <time>2019-07-14T11:53:58Z</time>
      </trkpt>
      <trkpt lat="47.79722" lon="-3.66605">
        <ele>-24.61</ele>
        <time>2019-07-14T11:53:59Z</time>
      </trkpt>
      <trkpt lat="47.79721" lon="-3.66597">
        <ele>-24.61</ele>
        <time>2019-07-14T11:54:00Z</time>
      </trkpt>
      <trkpt lat="47.79721" lon="-3.6659">
        <ele>-25.87</ele>
        <time>2019-07-14T11:54:01Z</time>
      </trkpt>
      <trkpt lat="47.7972" lon="-3.66583">
        <ele>-27.37</ele>
        <time>2019-07-14T11:54:02Z</time>
      </trkpt>
      <trkpt lat="47.79719" lon="-3.66576">
        <ele>-28.66</ele>
        <time>2019-07-14T11:54:03Z</time>
      </trkpt>
      <trkpt lat="47.79718" lon="-3.66568">
        <ele>-29.68</ele>
        <time>2019-07-14T11:54:04Z</time>
      </trkpt>
      <trkpt lat="47.79717" lon="-3.6656">
        <ele>-30.19</ele>
        <time>2019-07-14T11:54:05Z</time>
      </trkpt>
      <trkpt lat="47.79716" lon="-3.66553">
        <ele>-30.28</ele>
        <time>2019-07-14T11:54:06Z</time>
      </trkpt>
      <trkpt lat="47.79716" lon="-3.66545">
        <ele>-30.09</ele>
        <time>2019-07-14T11:54:07Z</time>
      </trkpt>
      <trkpt lat="47.79718" lon="-3.66538">
        <ele>-29.13</ele>
        <time>2019-07-14T11:54:08Z</time>
      </trkpt>
      <trkpt lat="47.79721" lon="-3.66533">
        <ele>-28.42</ele>
        <time>2019-07-14T11:54:09Z</time>
      </trkpt>
      <trkpt lat="47.79729" lon="-3.66528">
        <ele>-27.59</ele>
        <time>2019-07-14T11:54:11Z</time>
      </trkpt>
      <trkpt lat="47.79734" lon="-3.66527">
        <ele>-27.32</ele>
        <time>2019-07-14T11:54:12Z</time>
      </trkpt>
      <trkpt lat="47.79738" lon="-3.66526">
        <ele>-26.9</ele>
        <time>2019-07-14T11:54:13Z</time>
      </trkpt>
      <trkpt lat="47.79743" lon="-3.66525">
        <ele>-26.63</ele>
        <time>2019-07-14T11:54:14Z</time>
      </trkpt>
      <trkpt lat="47.79748" lon="-3.66524">
        <ele>-26.34</ele>
        <time>2019-07-14T11:54:15Z</time>
      </trkpt>
      <trkpt lat="47.79753" lon="-3.66522">
        <ele>-26.53</ele>
        <time>2019-07-14T11:54:16Z</time>
      </trkpt>
      <trkpt lat="47.79758" lon="-3.6652">
        <ele>-26.1</ele>
        <time>2019-07-14T11:54:17Z</time>
      </trkpt>
      <trkpt lat="47.79762" lon="-3.66518">
        <ele>-25.76</ele>
        <time>2019-07-14T11:54:18Z</time>
      </trkpt>
      <trkpt lat="47.7977" lon="-3.66512">
        <ele>-25.79</ele>
        <time>2019-07-14T11:54:20Z</time>
      </trkpt>
      <trkpt lat="47.79774" lon="-3.66508">
        <ele>-26.02</ele>
        <time>2019-07-14T11:54:21Z</time>
      </trkpt>
      <trkpt lat="47.79781" lon="-3.665">
        <ele>-26.47</ele>
        <time>2019-07-14T11:54:23Z</time>
      </trkpt>
      <trkpt lat="47.79785" lon="-3.66497">
        <ele>-27.06</ele>
        <time>2019-07-14T11:54:24Z</time>
      </trkpt>
      <trkpt lat="47.79789" lon="-3.66492">
        <ele>-27.24</ele>
        <time>2019-07-14T11:54:25Z</time>
      </trkpt>
      <trkpt lat="47.79793" lon="-3.66488">
        <ele>-27.64</ele>
        <time>2019-07-14T11:54:26Z</time>
      </trkpt>
      <trkpt lat="47.79797" lon="-3.66483">
        <ele>-27.83</ele>
        <time>2019-07-14T11:54:27Z</time>
      </trkpt>
      <trkpt lat="47.798" lon="-3.66479">
        <ele>-27.82</ele>
        <time>2019-07-14T11:54:28Z</time>
      </trkpt>
      <trkpt lat="47.79807" lon="-3.66471">
        <ele>-27.28</ele>
        <time>2019-07-14T11:54:30Z</time>
      </trkpt>
      <trkpt lat="47.79814" lon="-3.66462">
        <ele>-26.12</ele>
        <time>2019-07-14T11:54:32Z</time>
      </trkpt>
      <trkpt lat="47.79821" lon="-3.66454">
        <ele>-25.36</ele>
        <time>2019-07-14T11:54:34Z</time>
      </trkpt>
      <trkpt lat="47.79827" lon="-3.66445">
        <ele>-24.53</ele>
        <time>2019-07-14T11:54:36Z</time>
      </trkpt>
      <trkpt lat="47.79831" lon="-3.66441">
        <ele>-23.96</ele>
        <time>2019-07-14T11:54:37Z</time>
      </trkpt>
      <trkpt lat="47.79835" lon="-3.66436">
        <ele>-23.37</ele>
        <time>2019-07-14T11:54:38Z</time>
      </trkpt>
      <trkpt lat="47.79839" lon="-3.66432">
        <ele>-22.84</ele>
        <time>2019-07-14T11:54:39Z</time>
      </trkpt>
      <trkpt lat="47.79843" lon="-3.66426">
        <ele>-21.84</ele>
        <time>2019-07-14T11:54:40Z</time>
      </trkpt>
      <trkpt lat="47.79847" lon="-3.66422">
        <ele>-20.77</ele>
        <time>2019-07-14T11:54:41Z</time>
      </trkpt>
      <trkpt lat="47.79854" lon="-3.66413">
        <ele>-18.22</ele>
        <time>2019-07-14T11:54:43Z</time>
      </trkpt>
      <trkpt lat="47.79857" lon="-3.66408">
        <ele>-17.58</ele>
        <time>2019-07-14T11:54:44Z</time>
      </trkpt>
      <trkpt lat="47.79861" lon="-3.66403">
        <ele>-16.97</ele>
        <time>2019-07-14T11:54:45Z</time>
      </trkpt>
      <trkpt lat="47.79864" lon="-3.66399">
        <ele>-16.23</ele>
        <time>2019-07-14T11:54:46Z</time>
      </trkpt>
      <trkpt lat="47.79872" lon="-3.66391">
        <ele>-15.6</ele>
        <time>2019-07-14T11:54:48Z</time>
      </trkpt>
      <trkpt lat="47.79879" lon="-3.66382">
        <ele>-15.38</ele>
        <time>2019-07-14T11:54:50Z</time>
      </trkpt>
      <trkpt lat="47.79882" lon="-3.66377">
        <ele>-15.12</ele>
        <time>2019-07-14T11:54:51Z</time>
      </trkpt>
      <trkpt lat="47.79886" lon="-3.66373">
        <ele>-15.47</ele>
        <time>2019-07-14T11:54:52Z</time>
      </trkpt>
      <trkpt lat="47.79889" lon="-3.66368">
        <ele>-16.34</ele>
        <time>2019-07-14T11:54:53Z</time>
      </trkpt>
      <trkpt lat="47.79896" lon="-3.6636">
        <ele>-19.25</ele>
        <time>2019-07-14T11:54:55Z</time>
      </trkpt>
      <trkpt lat="47.79899" lon="-3.66355">
        <ele>-20.06</ele>
        <time>2019-07-14T11:54:56Z</time>
      </trkpt>
      <trkpt lat="47.79903" lon="-3.6635">
        <ele>-20.87</ele>
        <time>2019-07-14T11:54:57Z</time>
      </trkpt>
      <trkpt lat="47.79906" lon="-3.66345">
        <ele>-21.32</ele>
        <time>2019-07-14T11:54:58Z</time>
      </trkpt>
      <trkpt lat="47.7991" lon="-3.6634">
        <ele>-21.87</ele>
        <time>2019-07-14T11:54:59Z</time>
      </trkpt>
      <trkpt lat="47.79913" lon="-3.66336">
        <ele>-22.6</ele>
        <time>2019-07-14T11:55:00Z</time>
      </trkpt>
      <trkpt lat="47.79917" lon="-3.66331">
        <ele>-23.38</ele>
        <time>2019-07-14T11:55:01Z</time>
      </trkpt>
      <trkpt lat="47.7992" lon="-3.66326">
        <ele>-23.96</ele>
        <time>2019-07-14T11:55:02Z</time>
      </trkpt>
      <trkpt lat="47.79924" lon="-3.66321">
        <ele>-24.35</ele>
        <time>2019-07-14T11:55:03Z</time>
      </trkpt>
      <trkpt lat="47.79928" lon="-3.66315">
        <ele>-24.6</ele>
        <time>2019-07-14T11:55:04Z</time>
      </trkpt>
      <trkpt lat="47.79932" lon="-3.6631">
        <ele>-24.61</ele>
        <time>2019-07-14T11:55:05Z</time>
      </trkpt>
      <trkpt lat="47.79935" lon="-3.66305">
        <ele>-24.61</ele>
        <time>2019-07-14T11:55:06Z</time>
      </trkpt>
      <trkpt lat="47.79939" lon="-3.663">
        <ele>-24.68</ele>
        <time>2019-07-14T11:55:07Z</time>
      </trkpt>
      <trkpt lat="47.79942" lon="-3.66294">
        <ele>-24.98</ele>
        <time>2019-07-14T11:55:08Z</time>
      </trkpt>
      <trkpt lat="47.79946" lon="-3.66289">
        <ele>-25.28</ele>
        <time>2019-07-14T11:55:09Z</time>
      </trkpt>
      <trkpt lat="47.7995" lon="-3.66285">
        <ele>-25.44</ele>
        <time>2019-07-14T11:55:10Z</time>
      </trkpt>
      <trkpt lat="47.79954" lon="-3.6628">
        <ele>-25.49</ele>
        <time>2019-07-14T11:55:11Z</time>
      </trkpt>
      <trkpt lat="47.79958" lon="-3.66275">
        <ele>-25.23</ele>
        <time>2019-07-14T11:55:12Z</time>
      </trkpt>
      <trkpt lat="47.79962" lon="-3.66271">
        <ele>-25.5</ele>
        <time>2019-07-14T11:55:13Z</time>
      </trkpt>
      <trkpt lat="47.79965" lon="-3.66266">
        <ele>-25.65</ele>
        <time>2019-07-14T11:55:14Z</time>
      </trkpt>
      <trkpt lat="47.79969" lon="-3.66261">
        <ele>-25.76</ele>
        <time>2019-07-14T11:55:15Z</time>
      </trkpt>
      <trkpt lat="47.79973" lon="-3.66257">
        <ele>-25.87</ele>
        <time>2019-07-14T11:55:16Z</time>
      </trkpt>
      <trkpt lat="47.79977" lon="-3.66252">
        <ele>-26.11</ele>
        <time>2019-07-14T11:55:17Z</time>
      </trkpt>
      <trkpt lat="47.79981" lon="-3.66248">
        <ele>-25.97</ele>
        <time>2019-07-14T11:55:18Z</time>
      </trkpt>
      <trkpt lat="47.79984" lon="-3.66242">
        <ele>-25.58</ele>
        <time>2019-07-14T11:55:19Z</time>
      </trkpt>
      <trkpt lat="47.79988" lon="-3.66238">
        <ele>-25.32</ele>
        <time>2019-07-14T11:55:20Z</time>
      </trkpt>
      <trkpt lat="47.79992" lon="-3.66233">
        <ele>-25.18</ele>
        <time>2019-07-14T11:55:21Z</time>
      </trkpt>
      <trkpt lat="47.79995" lon="-3.66228">
        <ele>-25.13</ele>
        <time>2019-07-14T11:55:22Z</time>
      </trkpt>
      <trkpt lat="47.79999" lon="-3.66223">
        <ele>-24.77</ele>
        <time>2019-07-14T11:55:23Z</time>
      </trkpt>
      <trkpt lat="47.80002" lon="-3.66219">
        <ele>-24.31</ele>
        <time>2019-07-14T11:55:24Z</time>
      </trkpt>
      <trkpt lat="47.80006" lon="-3.66214">
        <ele>-23.54</ele>
        <time>2019-07-14T11:55:25Z</time>
      </trkpt>
      <trkpt lat="47.80009" lon="-3.66209">
        <ele>-23.03</ele>
        <time>2019-07-14T11:55:26Z</time>
      </trkpt>
      <trkpt lat="47.80013" lon="-3.66205">
        <ele>-22.67</ele>
        <time>2019-07-14T11:55:27Z</time>
      </trkpt>
      <trkpt lat="47.80016" lon="-3.662">
        <ele>-22.56</ele>
        <time>2019-07-14T11:55:28Z</time>
      </trkpt>
      <trkpt lat="47.8002" lon="-3.66195">
        <ele>-22.25</ele>
        <time>2019-07-14T11:55:29Z</time>
      </trkpt>
      <trkpt lat="47.80027" lon="-3.66186">
        <ele>-21.67</ele>
        <time>2019-07-14T11:55:31Z</time>
      </trkpt>
      <trkpt lat="47.8003" lon="-3.66181">
        <ele>-21.7</ele>
        <time>2019-07-14T11:55:32Z</time>
      </trkpt>
      <trkpt lat="47.80034" lon="-3.66177">
        <ele>-21.85</ele>
        <time>2019-07-14T11:55:33Z</time>
      </trkpt>
      <trkpt lat="47.8004" lon="-3.66169">
        <ele>-21.96</ele>
        <time>2019-07-14T11:55:35Z</time>
      </trkpt>
      <trkpt lat="47.80047" lon="-3.66162">
        <ele>-21.94</ele>
        <time>2019-07-14T11:55:37Z</time>
      </trkpt>
      <trkpt lat="47.80054" lon="-3.66161">
        <ele>-21.98</ele>
        <time>2019-07-14T11:55:39Z</time>
      </trkpt>
      <trkpt lat="47.80061" lon="-3.66167">
        <ele>-21.89</ele>
        <time>2019-07-14T11:55:41Z</time>
      </trkpt>
      <trkpt lat="47.80065" lon="-3.66178">
        <ele>-21.25</ele>
        <time>2019-07-14T11:55:43Z</time>
      </trkpt>
      <trkpt lat="47.80067" lon="-3.66184">
        <ele>-21.01</ele>
        <time>2019-07-14T11:55:44Z</time>
      </trkpt>
      <trkpt lat="47.80069" lon="-3.66191">
        <ele>-20.73</ele>
        <time>2019-07-14T11:55:45Z</time>
      </trkpt>
      <trkpt lat="47.80071" lon="-3.66197">
        <ele>-20.58</ele>
        <time>2019-07-14T11:55:46Z</time>
      </trkpt>
      <trkpt lat="47.80074" lon="-3.66203">
        <ele>-20.46</ele>
        <time>2019-07-14T11:55:47Z</time>
      </trkpt>
      <trkpt lat="47.80079" lon="-3.66215">
        <ele>-19.89</ele>
        <time>2019-07-14T11:55:49Z</time>
      </trkpt>
      <trkpt lat="47.80082" lon="-3.66225">
        <ele>-19.04</ele>
        <time>2019-07-14T11:55:51Z</time>
      </trkpt>
      <trkpt lat="47.80087" lon="-3.66235">
        <ele>-17.59</ele>
        <time>2019-07-14T11:55:53Z</time>
      </trkpt>
      <trkpt lat="47.80095" lon="-3.66236">
        <ele>-15.96</ele>
        <time>2019-07-14T11:55:55Z</time>
      </trkpt>
      <trkpt lat="47.80099" lon="-3.66231">
        <ele>-15.37</ele>
        <time>2019-07-14T11:55:56Z</time>
      </trkpt>
      <trkpt lat="47.80103" lon="-3.66225">
        <ele>-14.84</ele>
        <time>2019-07-14T11:55:57Z</time>
      </trkpt>
      <trkpt lat="47.80106" lon="-3.66219">
        <ele>-14.19</ele>
        <time>2019-07-14T11:55:58Z</time>
      </trkpt>
      <trkpt lat="47.8011" lon="-3.66213">
        <ele>-13.44</ele>
        <time>2019-07-14T11:55:59Z</time>
      </trkpt>
      <trkpt lat="47.80113" lon="-3.66206">
        <ele>-12.79</ele>
        <time>2019-07-14T11:56:00Z</time>
      </trkpt>
      <trkpt lat="47.80116" lon="-3.662">
        <ele>-12.18</ele>
        <time>2019-07-14T11:56:01Z</time>
      </trkpt>
      <trkpt lat="47.80118" lon="-3.66195">
        <ele>-12.13</ele>
        <time>2019-07-14T11:56:02Z</time>
      </trkpt>
      <trkpt lat="47.80121" lon="-3.66189">
        <ele>-12.26</ele>
        <time>2019-07-14T11:56:03Z</time>
      </trkpt>
      <trkpt lat="47.80124" lon="-3.66183">
        <ele>-11.95</ele>
        <time>2019-07-14T11:56:04Z</time>
      </trkpt>
      <trkpt lat="47.80127" lon="-3.66176">
        <ele>-11.57</ele>
        <time>2019-07-14T11:56:05Z</time>
      </trkpt>
      <trkpt lat="47.8013" lon="-3.6617">
        <ele>-11.53</ele>
        <time>2019-07-14T11:56:06Z</time>
      </trkpt>
      <trkpt lat="47.80133" lon="-3.66164">
        <ele>-11.73</ele>
        <time>2019-07-14T11:56:07Z</time>
      </trkpt>
      <trkpt lat="47.80136" lon="-3.66158">
        <ele>-12</ele>
        <time>2019-07-14T11:56:08Z</time>
      </trkpt>
      <trkpt lat="47.80139" lon="-3.66152">
        <ele>-12.22</ele>
        <time>2019-07-14T11:56:09Z</time>
      </trkpt>
      <trkpt lat="47.80142" lon="-3.66146">
        <ele>-12.14</ele>
        <time>2019-07-14T11:56:10Z</time>
      </trkpt>
      <trkpt lat="47.80145" lon="-3.66139">
        <ele>-12.12</ele>
        <time>2019-07-14T11:56:11Z</time>
      </trkpt>
      <trkpt lat="47.80149" lon="-3.66132">
        <ele>-12.32</ele>
        <time>2019-07-14T11:56:12Z</time>
      </trkpt>
      <trkpt lat="47.80151" lon="-3.66125">
        <ele>-12.32</ele>
        <time>2019-07-14T11:56:13Z</time>
      </trkpt>
      <trkpt lat="47.80154" lon="-3.66118">
        <ele>-12.59</ele>
        <time>2019-07-14T11:56:14Z</time>
      </trkpt>
      <trkpt lat="47.80157" lon="-3.66112">
        <ele>-13.03</ele>
        <time>2019-07-14T11:56:15Z</time>
      </trkpt>
      <trkpt lat="47.8016" lon="-3.66105">
        <ele>-13.3</ele>
        <time>2019-07-14T11:56:16Z</time>
      </trkpt>
      <trkpt lat="47.80163" lon="-3.66098">
        <ele>-13.66</ele>
        <time>2019-07-14T11:56:17Z</time>
      </trkpt>
      <trkpt lat="47.80166" lon="-3.66092">
        <ele>-14.05</ele>
        <time>2019-07-14T11:56:18Z</time>
      </trkpt>
      <trkpt lat="47.80169" lon="-3.66085">
        <ele>-14.65</ele>
        <time>2019-07-14T11:56:19Z</time>
      </trkpt>
      <trkpt lat="47.80173" lon="-3.66078">
        <ele>-14.97</ele>
        <time>2019-07-14T11:56:20Z</time>
      </trkpt>
      <trkpt lat="47.80176" lon="-3.66071">
        <ele>-15.07</ele>
        <time>2019-07-14T11:56:21Z</time>
      </trkpt>
      <trkpt lat="47.8018" lon="-3.66065">
        <ele>-14.96</ele>
        <time>2019-07-14T11:56:22Z</time>
      </trkpt>
      <trkpt lat="47.80184" lon="-3.66059">
        <ele>-14.93</ele>
        <time>2019-07-14T11:56:23Z</time>
      </trkpt>
      <trkpt lat="47.80188" lon="-3.66054">
        <ele>-14.78</ele>
        <time>2019-07-14T11:56:24Z</time>
      </trkpt>
      <trkpt lat="47.80193" lon="-3.66049">
        <ele>-14.59</ele>
        <time>2019-07-14T11:56:25Z</time>
      </trkpt>
      <trkpt lat="47.80198" lon="-3.66044">
        <ele>-14.26</ele>
        <time>2019-07-14T11:56:26Z</time>
      </trkpt>
      <trkpt lat="47.80202" lon="-3.6604">
        <ele>-14.09</ele>
        <time>2019-07-14T11:56:27Z</time>
      </trkpt>
      <trkpt lat="47.80207" lon="-3.66035">
        <ele>-13.54</ele>
        <time>2019-07-14T11:56:28Z</time>
      </trkpt>
      <trkpt lat="47.80211" lon="-3.6603">
        <ele>-13.24</ele>
        <time>2019-07-14T11:56:29Z</time>
      </trkpt>
      <trkpt lat="47.80216" lon="-3.66025">
        <ele>-13.08</ele>
        <time>2019-07-14T11:56:30Z</time>
      </trkpt>
      <trkpt lat="47.80221" lon="-3.6602">
        <ele>-12.96</ele>
        <time>2019-07-14T11:56:31Z</time>
      </trkpt>
      <trkpt lat="47.80225" lon="-3.66015">
        <ele>-12.58</ele>
        <time>2019-07-14T11:56:32Z</time>
      </trkpt>
      <trkpt lat="47.8023" lon="-3.6601">
        <ele>-12.6</ele>
        <time>2019-07-14T11:56:33Z</time>
      </trkpt>
      <trkpt lat="47.80234" lon="-3.66005">
        <ele>-12.89</ele>
        <time>2019-07-14T11:56:34Z</time>
      </trkpt>
      <trkpt lat="47.80239" lon="-3.66">
        <ele>-13.12</ele>
        <time>2019-07-14T11:56:35Z</time>
      </trkpt>
      <trkpt lat="47.80243" lon="-3.65995">
        <ele>-13.11</ele>
        <time>2019-07-14T11:56:36Z</time>
      </trkpt>
      <trkpt lat="47.80248" lon="-3.65989">
        <ele>-13.04</ele>
        <time>2019-07-14T11:56:37Z</time>
      </trkpt>
      <trkpt lat="47.80253" lon="-3.65984">
        <ele>-13.02</ele>
        <time>2019-07-14T11:56:38Z</time>
      </trkpt>
      <trkpt lat="47.80257" lon="-3.65979">
        <ele>-13.5</ele>
        <time>2019-07-14T11:56:39Z</time>
      </trkpt>
      <trkpt lat="47.80262" lon="-3.65974">
        <ele>-14.28</ele>
        <time>2019-07-14T11:56:40Z</time>
      </trkpt>
      <trkpt lat="47.80267" lon="-3.65968">
        <ele>-14.86</ele>
        <time>2019-07-14T11:56:41Z</time>
      </trkpt>
      <trkpt lat="47.80272" lon="-3.65963">
        <ele>-15.11</ele>
        <time>2019-07-14T11:56:42Z</time>
      </trkpt>
      <trkpt lat="47.80277" lon="-3.65958">
        <ele>-15.39</ele>
        <time>2019-07-14T11:56:43Z</time>
      </trkpt>
      <trkpt lat="47.80281" lon="-3.65953">
        <ele>-15.41</ele>
        <time>2019-07-14T11:56:44Z</time>
      </trkpt>
      <trkpt lat="47.80286" lon="-3.65947">
        <ele>-15.13</ele>
        <time>2019-07-14T11:56:45Z</time>
      </trkpt>
      <trkpt lat="47.80291" lon="-3.65942">
        <ele>-14.91</ele>
        <time>2019-07-14T11:56:46Z</time>
      </trkpt>
      <trkpt lat="47.80296" lon="-3.65937">
        <ele>-14.49</ele>
        <time>2019-07-14T11:56:47Z</time>
      </trkpt>
      <trkpt lat="47.80306" lon="-3.65927">
        <ele>-13.81</ele>
        <time>2019-07-14T11:56:49Z</time>
      </trkpt>
      <trkpt lat="47.80311" lon="-3.65921">
        <ele>-13.6</ele>
        <time>2019-07-14T11:56:50Z</time>
      </trkpt>
      <trkpt lat="47.80316" lon="-3.65916">
        <ele>-13.47</ele>
        <time>2019-07-14T11:56:51Z</time>
      </trkpt>
      <trkpt lat="47.8032" lon="-3.65911">
        <ele>-13.22</ele>
        <time>2019-07-14T11:56:52Z</time>
      </trkpt>
      <trkpt lat="47.80325" lon="-3.65905">
        <ele>-13</ele>
        <time>2019-07-14T11:56:53Z</time>
      </trkpt>
      <trkpt lat="47.80329" lon="-3.659">
        <ele>-13.15</ele>
        <time>2019-07-14T11:56:54Z</time>
      </trkpt>
      <trkpt lat="47.80333" lon="-3.65896">
        <ele>-13.4</ele>
        <time>2019-07-14T11:56:55Z</time>
      </trkpt>
      <trkpt lat="47.80337" lon="-3.65891">
        <ele>-13.9</ele>
        <time>2019-07-14T11:56:56Z</time>
      </trkpt>
      <trkpt lat="47.80342" lon="-3.65887">
        <ele>-14.4</ele>
        <time>2019-07-14T11:56:57Z</time>
      </trkpt>
      <trkpt lat="47.80346" lon="-3.65882">
        <ele>-14.97</ele>
        <time>2019-07-14T11:56:58Z</time>
      </trkpt>
      <trkpt lat="47.80351" lon="-3.65876">
        <ele>-14.86</ele>
        <time>2019-07-14T11:56:59Z</time>
      </trkpt>
      <trkpt lat="47.80356" lon="-3.65871">
        <ele>-14.34</ele>
        <time>2019-07-14T11:57:00Z</time>
      </trkpt>
      <trkpt lat="47.80361" lon="-3.65865">
        <ele>-13.48</ele>
        <time>2019-07-14T11:57:01Z</time>
      </trkpt>
      <trkpt lat="47.80366" lon="-3.6586">
        <ele>-12.66</ele>
        <time>2019-07-14T11:57:02Z</time>
      </trkpt>
      <trkpt lat="47.80371" lon="-3.65855">
        <ele>-11.79</ele>
        <time>2019-07-14T11:57:03Z</time>
      </trkpt>
      <trkpt lat="47.80375" lon="-3.65851">
        <ele>-10.4</ele>
        <time>2019-07-14T11:57:04Z</time>
      </trkpt>
      <trkpt lat="47.8038" lon="-3.65846">
        <ele>-9.5</ele>
        <time>2019-07-14T11:57:05Z</time>
      </trkpt>
      <trkpt lat="47.80385" lon="-3.65841">
        <ele>-9.23</ele>
        <time>2019-07-14T11:57:06Z</time>
      </trkpt>
      <trkpt lat="47.80389" lon="-3.65837">
        <ele>-9.78</ele>
        <time>2019-07-14T11:57:07Z</time>
      </trkpt>
      <trkpt lat="47.80394" lon="-3.65832">
        <ele>-10.71</ele>
        <time>2019-07-14T11:57:08Z</time>
      </trkpt>
      <trkpt lat="47.80399" lon="-3.65828">
        <ele>-11.13</ele>
        <time>2019-07-14T11:57:09Z</time>
      </trkpt>
      <trkpt lat="47.80404" lon="-3.65824">
        <ele>-11.12</ele>
        <time>2019-07-14T11:57:10Z</time>
      </trkpt>
      <trkpt lat="47.80408" lon="-3.65821">
        <ele>-11.04</ele>
        <time>2019-07-14T11:57:11Z</time>
      </trkpt>
      <trkpt lat="47.80413" lon="-3.65818">
        <ele>-10.81</ele>
        <time>2019-07-14T11:57:12Z</time>
      </trkpt>
      <trkpt lat="47.80418" lon="-3.65815">
        <ele>-10.32</ele>
        <time>2019-07-14T11:57:13Z</time>
      </trkpt>
      <trkpt lat="47.80423" lon="-3.65812">
        <ele>-9.68</ele>
        <time>2019-07-14T11:57:14Z</time>
      </trkpt>
      <trkpt lat="47.80427" lon="-3.65808">
        <ele>-9.14</ele>
        <time>2019-07-14T11:57:15Z</time>
      </trkpt>
      <trkpt lat="47.80432" lon="-3.65805">
        <ele>-8.49</ele>
        <time>2019-07-14T11:57:16Z</time>
      </trkpt>
      <trkpt lat="47.80436" lon="-3.65802">
        <ele>-7.95</ele>
        <time>2019-07-14T11:57:17Z</time>
      </trkpt>
      <trkpt lat="47.80441" lon="-3.65799">
        <ele>-7.36</ele>
        <time>2019-07-14T11:57:18Z</time>
      </trkpt>
      <trkpt lat="47.80446" lon="-3.65795">
        <ele>-6.21</ele>
        <time>2019-07-14T11:57:19Z</time>
      </trkpt>
      <trkpt lat="47.8045" lon="-3.65792">
        <ele>-5.09</ele>
        <time>2019-07-14T11:57:20Z</time>
      </trkpt>
      <trkpt lat="47.80454" lon="-3.65788">
        <ele>-4.41</ele>
        <time>2019-07-14T11:57:21Z</time>
      </trkpt>
      <trkpt lat="47.80459" lon="-3.65784">
        <ele>-4.34</ele>
        <time>2019-07-14T11:57:22Z</time>
      </trkpt>
      <trkpt lat="47.80463" lon="-3.6578">
        <ele>-3.97</ele>
        <time>2019-07-14T11:57:23Z</time>
      </trkpt>
      <trkpt lat="47.80471" lon="-3.65775">
        <ele>-3.53</ele>
        <time>2019-07-14T11:57:25Z</time>
      </trkpt>
      <trkpt lat="47.80477" lon="-3.6577">
        <ele>-2.94</ele>
        <time>2019-07-14T11:57:27Z</time>
      </trkpt>
      <trkpt lat="47.80483" lon="-3.65766">
        <ele>-2.62</ele>
        <time>2019-07-14T11:57:29Z</time>
      </trkpt>
      <trkpt lat="47.80486" lon="-3.65761">
        <ele>-2.5</ele>
        <time>2019-07-14T11:57:31Z</time>
      </trkpt>
      <trkpt lat="47.80488" lon="-3.65751">
        <ele>-2</ele>
        <time>2019-07-14T11:57:57Z</time>
      </trkpt>
      <trkpt lat="47.80492" lon="-3.65742">
        <ele>-1.31</ele>
        <time>2019-07-14T12:00:07Z</time>
      </trkpt>
      <trkpt lat="47.80496" lon="-3.65735">
        <ele>-0.86</ele>
        <time>2019-07-14T12:00:10Z</time>
      </trkpt>
      <trkpt lat="47.80499" lon="-3.65728">
        <ele>-0.73</ele>
        <time>2019-07-14T12:00:12Z</time>
      </trkpt>
      <trkpt lat="47.805" lon="-3.6572">
        <ele>-0.55</ele>
        <time>2019-07-14T12:00:15Z</time>
      </trkpt>
      <trkpt lat="47.80503" lon="-3.65712">
        <ele>-0.35</ele>
        <time>2019-07-14T12:00:18Z</time>
      </trkpt>
      <trkpt lat="47.80506" lon="-3.65703">
        <ele>-0.05</ele>
        <time>2019-07-14T12:00:21Z</time>
      </trkpt>
      <trkpt lat="47.80506" lon="-3.65696">
        <ele>0.01</ele>
        <time>2019-07-14T12:00:23Z</time>
      </trkpt>
      <trkpt lat="47.80507" lon="-3.65687">
        <ele>-0.15</ele>
        <time>2019-07-14T12:00:25Z</time>
      </trkpt>
      <trkpt lat="47.80508" lon="-3.6568">
        <ele>-0.46</ele>
        <time>2019-07-14T12:00:27Z</time>
      </trkpt>
      <trkpt lat="47.80511" lon="-3.65668">
        <ele>-0.88</ele>
        <time>2019-07-14T12:00:29Z</time>
      </trkpt>
      <trkpt lat="47.80513" lon="-3.65658">
        <ele>-1.95</ele>
        <time>2019-07-14T12:00:31Z</time>
      </trkpt>
      <trkpt lat="47.80516" lon="-3.65651">
        <ele>-2.69</ele>
        <time>2019-07-14T12:00:32Z</time>
      </trkpt>
      <trkpt lat="47.80517" lon="-3.65644">
        <ele>-3.06</ele>
        <time>2019-07-14T12:00:33Z</time>
      </trkpt>
      <trkpt lat="47.80519" lon="-3.65632">
        <ele>-2.6</ele>
        <time>2019-07-14T12:00:35Z</time>
      </trkpt>
      <trkpt lat="47.80522" lon="-3.65619">
        <ele>-2.38</ele>
        <time>2019-07-14T12:00:37Z</time>
      </trkpt>
      <trkpt lat="47.80524" lon="-3.65613">
        <ele>-2.19</ele>
        <time>2019-07-14T12:00:38Z</time>
      </trkpt>
      <trkpt lat="47.80526" lon="-3.65607">
        <ele>-2.14</ele>
        <time>2019-07-14T12:00:39Z</time>
      </trkpt>
      <trkpt lat="47.8053" lon="-3.65595">
        <ele>-2.37</ele>
        <time>2019-07-14T12:00:41Z</time>
      </trkpt>
      <trkpt lat="47.80534" lon="-3.65583">
        <ele>-2.09</ele>
        <time>2019-07-14T12:00:43Z</time>
      </trkpt>
      <trkpt lat="47.80536" lon="-3.65577">
        <ele>-1.75</ele>
        <time>2019-07-14T12:00:44Z</time>
      </trkpt>
      <trkpt lat="47.80539" lon="-3.6557">
        <ele>-1.3</ele>
        <time>2019-07-14T12:00:45Z</time>
      </trkpt>
      <trkpt lat="47.80542" lon="-3.6556">
        <ele>-0.32</ele>
        <time>2019-07-14T12:00:47Z</time>
      </trkpt>
      <trkpt lat="47.80544" lon="-3.65548">
        <ele>0.47</ele>
        <time>2019-07-14T12:00:49Z</time>
      </trkpt>
      <trkpt lat="47.80546" lon="-3.65542">
        <ele>0.76</ele>
        <time>2019-07-14T12:00:50Z</time>
      </trkpt>
      <trkpt lat="47.80548" lon="-3.65535">
        <ele>1.2</ele>
        <time>2019-07-14T12:00:51Z</time>
      </trkpt>
      <trkpt lat="47.8055" lon="-3.65528">
        <ele>1.12</ele>
        <time>2019-07-14T12:00:52Z</time>
      </trkpt>
      <trkpt lat="47.80552" lon="-3.65522">
        <ele>1.31</ele>
        <time>2019-07-14T12:00:53Z</time>
      </trkpt>
      <trkpt lat="47.80555" lon="-3.65509">
        <ele>2.68</ele>
        <time>2019-07-14T12:00:55Z</time>
      </trkpt>
      <trkpt lat="47.80558" lon="-3.65502">
        <ele>3.32</ele>
        <time>2019-07-14T12:00:56Z</time>
      </trkpt>
      <trkpt lat="47.80561" lon="-3.65493">
        <ele>4.23</ele>
        <time>2019-07-14T12:00:58Z</time>
      </trkpt>
      <trkpt lat="47.80565" lon="-3.65484">
        <ele>4.62</ele>
        <time>2019-07-14T12:01:00Z</time>
      </trkpt>
      <trkpt lat="47.80569" lon="-3.65476">
        <ele>3.42</ele>
        <time>2019-07-14T12:01:02Z</time>
      </trkpt>
      <trkpt lat="47.80573" lon="-3.65467">
        <ele>2.63</ele>
        <time>2019-07-14T12:01:04Z</time>
      </trkpt>
      <trkpt lat="47.80576" lon="-3.65458">
        <ele>1.14</ele>
        <time>2019-07-14T12:01:07Z</time>
      </trkpt>
      <trkpt lat="47.80578" lon="-3.6545">
        <ele>0.86</ele>
        <time>2019-07-14T12:01:09Z</time>
      </trkpt>
      <trkpt lat="47.80581" lon="-3.6544">
        <ele>0.78</ele>
        <time>2019-07-14T12:01:11Z</time>
      </trkpt>
      <trkpt lat="47.80585" lon="-3.65431">
        <ele>1.56</ele>
        <time>2019-07-14T12:01:13Z</time>
      </trkpt>
      <trkpt lat="47.80589" lon="-3.65426">
        <ele>1.79</ele>
        <time>2019-07-14T12:01:14Z</time>
      </trkpt>
      <trkpt lat="47.80593" lon="-3.65418">
        <ele>2.34</ele>
        <time>2019-07-14T12:01:16Z</time>
      </trkpt>
      <trkpt lat="47.80597" lon="-3.65409">
        <ele>2.43</ele>
        <time>2019-07-14T12:01:18Z</time>
      </trkpt>
      <trkpt lat="47.80601" lon="-3.65401">
        <ele>3.03</ele>
        <time>2019-07-14T12:01:20Z</time>
      </trkpt>
      <trkpt lat="47.80604" lon="-3.65393">
        <ele>3.57</ele>
        <time>2019-07-14T12:01:22Z</time>
      </trkpt>
      <trkpt lat="47.80607" lon="-3.65385">
        <ele>3.59</ele>
        <time>2019-07-14T12:01:24Z</time>
      </trkpt>
      <trkpt lat="47.8061" lon="-3.65376">
        <ele>2.94</ele>
        <time>2019-07-14T12:01:26Z</time>
      </trkpt>
      <trkpt lat="47.80612" lon="-3.6537">
        <ele>3.38</ele>
        <time>2019-07-14T12:01:28Z</time>
      </trkpt>
      <trkpt lat="47.80614" lon="-3.65363">
        <ele>4.11</ele>
        <time>2019-07-14T12:01:31Z</time>
      </trkpt>
      <trkpt lat="47.80618" lon="-3.65356">
        <ele>4.8</ele>
        <time>2019-07-14T12:01:33Z</time>
      </trkpt>
      <trkpt lat="47.80622" lon="-3.65349">
        <ele>5.04</ele>
        <time>2019-07-14T12:01:35Z</time>
      </trkpt>
      <trkpt lat="47.80628" lon="-3.65342">
        <ele>5.36</ele>
        <time>2019-07-14T12:01:37Z</time>
      </trkpt>
      <trkpt lat="47.80633" lon="-3.65335">
        <ele>6.05</ele>
        <time>2019-07-14T12:01:39Z</time>
      </trkpt>
      <trkpt lat="47.80639" lon="-3.65327">
        <ele>6.75</ele>
        <time>2019-07-14T12:01:41Z</time>
      </trkpt>
      <trkpt lat="47.80644" lon="-3.65319">
        <ele>7.59</ele>
        <time>2019-07-14T12:01:43Z</time>
      </trkpt>
      <trkpt lat="47.8065" lon="-3.6531">
        <ele>8.67</ele>
        <time>2019-07-14T12:01:45Z</time>
      </trkpt>
      <trkpt lat="47.80653" lon="-3.65304">
        <ele>9.31</ele>
        <time>2019-07-14T12:01:46Z</time>
      </trkpt>
      <trkpt lat="47.80656" lon="-3.65298">
        <ele>9.72</ele>
        <time>2019-07-14T12:01:47Z</time>
      </trkpt>
      <trkpt lat="47.80659" lon="-3.65292">
        <ele>10.05</ele>
        <time>2019-07-14T12:01:48Z</time>
      </trkpt>
      <trkpt lat="47.80662" lon="-3.65286">
        <ele>10.08</ele>
        <time>2019-07-14T12:01:49Z</time>
      </trkpt>
      <trkpt lat="47.80665" lon="-3.6528">
        <ele>9.87</ele>
        <time>2019-07-14T12:01:50Z</time>
      </trkpt>
      <trkpt lat="47.80669" lon="-3.65274">
        <ele>9.88</ele>
        <time>2019-07-14T12:01:51Z</time>
      </trkpt>
      <trkpt lat="47.80673" lon="-3.65262">
        <ele>9.96</ele>
        <time>2019-07-14T12:01:53Z</time>
      </trkpt>
      <trkpt lat="47.80674" lon="-3.65256">
        <ele>10.19</ele>
        <time>2019-07-14T12:01:54Z</time>
      </trkpt>
      <trkpt lat="47.80677" lon="-3.65245">
        <ele>10.21</ele>
        <time>2019-07-14T12:01:56Z</time>
      </trkpt>
      <trkpt lat="47.8068" lon="-3.65239">
        <ele>10.33</ele>
        <time>2019-07-14T12:01:57Z</time>
      </trkpt>
      <trkpt lat="47.80683" lon="-3.65228">
        <ele>10.59</ele>
        <time>2019-07-14T12:01:59Z</time>
      </trkpt>
      <trkpt lat="47.80686" lon="-3.65219">
        <ele>9.87</ele>
        <time>2019-07-14T12:02:01Z</time>
      </trkpt>
      <trkpt lat="47.8069" lon="-3.65206">
        <ele>8.68</ele>
        <time>2019-07-14T12:02:03Z</time>
      </trkpt>
      <trkpt lat="47.80693" lon="-3.652">
        <ele>8.89</ele>
        <time>2019-07-14T12:02:04Z</time>
      </trkpt>
      <trkpt lat="47.80695" lon="-3.65194">
        <ele>9.1</ele>
        <time>2019-07-14T12:02:05Z</time>
      </trkpt>
      <trkpt lat="47.80699" lon="-3.65181">
        <ele>8.1</ele>
        <time>2019-07-14T12:02:07Z</time>
      </trkpt>
      <trkpt lat="47.807" lon="-3.65175">
        <ele>7.04</ele>
        <time>2019-07-14T12:02:08Z</time>
      </trkpt>
      <trkpt lat="47.80702" lon="-3.65168">
        <ele>6.65</ele>
        <time>2019-07-14T12:02:09Z</time>
      </trkpt>
      <trkpt lat="47.80704" lon="-3.65161">
        <ele>6.82</ele>
        <time>2019-07-14T12:02:10Z</time>
      </trkpt>
      <trkpt lat="47.80707" lon="-3.65155">
        <ele>6.66</ele>
        <time>2019-07-14T12:02:11Z</time>
      </trkpt>
      <trkpt lat="47.8071" lon="-3.65149">
        <ele>6.68</ele>
        <time>2019-07-14T12:02:12Z</time>
      </trkpt>
      <trkpt lat="47.80712" lon="-3.65142">
        <ele>6.9</ele>
        <time>2019-07-14T12:02:13Z</time>
      </trkpt>
      <trkpt lat="47.80715" lon="-3.65137">
        <ele>6.68</ele>
        <time>2019-07-14T12:02:14Z</time>
      </trkpt>
      <trkpt lat="47.8072" lon="-3.65124">
        <ele>6.27</ele>
        <time>2019-07-14T12:02:16Z</time>
      </trkpt>
      <trkpt lat="47.80723" lon="-3.65118">
        <ele>6</ele>
        <time>2019-07-14T12:02:17Z</time>
      </trkpt>
      <trkpt lat="47.80727" lon="-3.65111">
        <ele>5.5</ele>
        <time>2019-07-14T12:02:18Z</time>
      </trkpt>
      <trkpt lat="47.8073" lon="-3.65105">
        <ele>4.93</ele>
        <time>2019-07-14T12:02:19Z</time>
      </trkpt>
      <trkpt lat="47.80732" lon="-3.65098">
        <ele>4.13</ele>
        <time>2019-07-14T12:02:20Z</time>
      </trkpt>
      <trkpt lat="47.80735" lon="-3.6509">
        <ele>3.4</ele>
        <time>2019-07-14T12:02:21Z</time>
      </trkpt>
      <trkpt lat="47.8074" lon="-3.65083">
        <ele>3.39</ele>
        <time>2019-07-14T12:02:22Z</time>
      </trkpt>
      <trkpt lat="47.80744" lon="-3.65079">
        <ele>3.39</ele>
        <time>2019-07-14T12:02:23Z</time>
      </trkpt>
      <trkpt lat="47.80752" lon="-3.65075">
        <ele>2.86</ele>
        <time>2019-07-14T12:02:25Z</time>
      </trkpt>
      <trkpt lat="47.80758" lon="-3.65075">
        <ele>2.32</ele>
        <time>2019-07-14T12:02:27Z</time>
      </trkpt>
      <trkpt lat="47.80766" lon="-3.65075">
        <ele>2.22</ele>
        <time>2019-07-14T12:02:29Z</time>
      </trkpt>
      <trkpt lat="47.8077" lon="-3.65076">
        <ele>2.2</ele>
        <time>2019-07-14T12:02:30Z</time>
      </trkpt>
      <trkpt lat="47.80779" lon="-3.65078">
        <ele>2.2</ele>
        <time>2019-07-14T12:02:32Z</time>
      </trkpt>
      <trkpt lat="47.80787" lon="-3.65081">
        <ele>1.79</ele>
        <time>2019-07-14T12:02:34Z</time>
      </trkpt>
      <trkpt lat="47.80796" lon="-3.65083">
        <ele>1.54</ele>
        <time>2019-07-14T12:02:36Z</time>
      </trkpt>
      <trkpt lat="47.808" lon="-3.65085">
        <ele>1.5</ele>
        <time>2019-07-14T12:02:37Z</time>
      </trkpt>
      <trkpt lat="47.80805" lon="-3.65087">
        <ele>1.49</ele>
        <time>2019-07-14T12:02:38Z</time>
      </trkpt>
      <trkpt lat="47.80809" lon="-3.65088">
        <ele>1.56</ele>
        <time>2019-07-14T12:02:39Z</time>
      </trkpt>
      <trkpt lat="47.80814" lon="-3.6509">
        <ele>1.93</ele>
        <time>2019-07-14T12:02:40Z</time>
      </trkpt>
      <trkpt lat="47.80819" lon="-3.65092">
        <ele>1.83</ele>
        <time>2019-07-14T12:02:41Z</time>
      </trkpt>
      <trkpt lat="47.80824" lon="-3.65093">
        <ele>2.15</ele>
        <time>2019-07-14T12:02:42Z</time>
      </trkpt>
      <trkpt lat="47.80833" lon="-3.65094">
        <ele>2.39</ele>
        <time>2019-07-14T12:02:44Z</time>
      </trkpt>
      <trkpt lat="47.80838" lon="-3.65095">
        <ele>2.32</ele>
        <time>2019-07-14T12:02:45Z</time>
      </trkpt>
      <trkpt lat="47.80846" lon="-3.65096">
        <ele>1.77</ele>
        <time>2019-07-14T12:02:47Z</time>
      </trkpt>
      <trkpt lat="47.80854" lon="-3.65098">
        <ele>1.58</ele>
        <time>2019-07-14T12:02:49Z</time>
      </trkpt>
      <trkpt lat="47.80862" lon="-3.65101">
        <ele>1.14</ele>
        <time>2019-07-14T12:02:51Z</time>
      </trkpt>
      <trkpt lat="47.80867" lon="-3.65103">
        <ele>-0.58</ele>
        <time>2019-07-14T12:02:52Z</time>
      </trkpt>
      <trkpt lat="47.80872" lon="-3.65101">
        <ele>-1.16</ele>
        <time>2019-07-14T12:02:53Z</time>
      </trkpt>
      <trkpt lat="47.80877" lon="-3.65094">
        <ele>-1.33</ele>
        <time>2019-07-14T12:02:55Z</time>
      </trkpt>
      <trkpt lat="47.80881" lon="-3.65081">
        <ele>-0.62</ele>
        <time>2019-07-14T12:02:57Z</time>
      </trkpt>
      <trkpt lat="47.80882" lon="-3.65074">
        <ele>-0.47</ele>
        <time>2019-07-14T12:02:58Z</time>
      </trkpt>
      <trkpt lat="47.80882" lon="-3.65067">
        <ele>-0.29</ele>
        <time>2019-07-14T12:02:59Z</time>
      </trkpt>
      <trkpt lat="47.80882" lon="-3.65059">
        <ele>-0.17</ele>
        <time>2019-07-14T12:03:00Z</time>
      </trkpt>
      <trkpt lat="47.80883" lon="-3.65052">
        <ele>-0.27</ele>
        <time>2019-07-14T12:03:01Z</time>
      </trkpt>
      <trkpt lat="47.80884" lon="-3.65044">
        <ele>-0.86</ele>
        <time>2019-07-14T12:03:02Z</time>
      </trkpt>
      <trkpt lat="47.80885" lon="-3.65036">
        <ele>-1.04</ele>
        <time>2019-07-14T12:03:03Z</time>
      </trkpt>
      <trkpt lat="47.80888" lon="-3.6503">
        <ele>-1.23</ele>
        <time>2019-07-14T12:03:04Z</time>
      </trkpt>
      <trkpt lat="47.80891" lon="-3.65024">
        <ele>-1.08</ele>
        <time>2019-07-14T12:03:05Z</time>
      </trkpt>
      <trkpt lat="47.80897" lon="-3.65021">
        <ele>-0.61</ele>
        <time>2019-07-14T12:03:06Z</time>
      </trkpt>
      <trkpt lat="47.80903" lon="-3.6502">
        <ele>-0.19</ele>
        <time>2019-07-14T12:03:07Z</time>
      </trkpt>
      <trkpt lat="47.80908" lon="-3.6502">
        <ele>0.21</ele>
        <time>2019-07-14T12:03:08Z</time>
      </trkpt>
      <trkpt lat="47.80914" lon="-3.65021">
        <ele>0.76</ele>
        <time>2019-07-14T12:03:09Z</time>
      </trkpt>
      <trkpt lat="47.80921" lon="-3.65021">
        <ele>1.27</ele>
        <time>2019-07-14T12:03:10Z</time>
      </trkpt>
      <trkpt lat="47.80929" lon="-3.65022">
        <ele>1.56</ele>
        <time>2019-07-14T12:03:11Z</time>
      </trkpt>
      <trkpt lat="47.80935" lon="-3.65023">
        <ele>1.79</ele>
        <time>2019-07-14T12:03:12Z</time>
      </trkpt>
      <trkpt lat="47.80941" lon="-3.65024">
        <ele>2</ele>
        <time>2019-07-14T12:03:13Z</time>
      </trkpt>
      <trkpt lat="47.80947" lon="-3.65025">
        <ele>2.06</ele>
        <time>2019-07-14T12:03:14Z</time>
      </trkpt>
      <trkpt lat="47.80953" lon="-3.65027">
        <ele>2.29</ele>
        <time>2019-07-14T12:03:15Z</time>
      </trkpt>
      <trkpt lat="47.8096" lon="-3.65029">
        <ele>2.5</ele>
        <time>2019-07-14T12:03:16Z</time>
      </trkpt>
      <trkpt lat="47.80967" lon="-3.65031">
        <ele>2.7</ele>
        <time>2019-07-14T12:03:17Z</time>
      </trkpt>
      <trkpt lat="47.80975" lon="-3.65033">
        <ele>2.69</ele>
        <time>2019-07-14T12:03:18Z</time>
      </trkpt>
      <trkpt lat="47.80982" lon="-3.65035">
        <ele>2.48</ele>
        <time>2019-07-14T12:03:19Z</time>
      </trkpt>
      <trkpt lat="47.8099" lon="-3.65037">
        <ele>2.14</ele>
        <time>2019-07-14T12:03:20Z</time>
      </trkpt>
      <trkpt lat="47.80998" lon="-3.65042">
        <ele>0.84</ele>
        <time>2019-07-14T12:03:21Z</time>
      </trkpt>
      <trkpt lat="47.81005" lon="-3.65045">
        <ele>-0.46</ele>
        <time>2019-07-14T12:03:22Z</time>
      </trkpt>
      <trkpt lat="47.81013" lon="-3.65048">
        <ele>-1.2</ele>
        <time>2019-07-14T12:03:23Z</time>
      </trkpt>
      <trkpt lat="47.8102" lon="-3.65052">
        <ele>-2.12</ele>
        <time>2019-07-14T12:03:24Z</time>
      </trkpt>
      <trkpt lat="47.81028" lon="-3.65055">
        <ele>-3.02</ele>
        <time>2019-07-14T12:03:25Z</time>
      </trkpt>
      <trkpt lat="47.81035" lon="-3.65058">
        <ele>-3.37</ele>
        <time>2019-07-14T12:03:26Z</time>
      </trkpt>
      <trkpt lat="47.81041" lon="-3.6506">
        <ele>-3.61</ele>
        <time>2019-07-14T12:03:27Z</time>
      </trkpt>
      <trkpt lat="47.81048" lon="-3.65063">
        <ele>-4.03</ele>
        <time>2019-07-14T12:03:28Z</time>
      </trkpt>
      <trkpt lat="47.81055" lon="-3.65066">
        <ele>-4.16</ele>
        <time>2019-07-14T12:03:29Z</time>
      </trkpt>
      <trkpt lat="47.81063" lon="-3.65068">
        <ele>-4.97</ele>
        <time>2019-07-14T12:03:30Z</time>
      </trkpt>
      <trkpt lat="47.8107" lon="-3.65071">
        <ele>-5.28</ele>
        <time>2019-07-14T12:03:31Z</time>
      </trkpt>
      <trkpt lat="47.81076" lon="-3.65074">
        <ele>-5.37</ele>
        <time>2019-07-14T12:03:32Z</time>
      </trkpt>
      <trkpt lat="47.81083" lon="-3.65077">
        <ele>-5.33</ele>
        <time>2019-07-14T12:03:33Z</time>
      </trkpt>
      <trkpt lat="47.8109" lon="-3.6508">
        <ele>-5.32</ele>
        <time>2019-07-14T12:03:34Z</time>
      </trkpt>
      <trkpt lat="47.81096" lon="-3.65084">
        <ele>-5.52</ele>
        <time>2019-07-14T12:03:35Z</time>
      </trkpt>
      <trkpt lat="47.81102" lon="-3.65087">
        <ele>-5.73</ele>
        <time>2019-07-14T12:03:36Z</time>
      </trkpt>
      <trkpt lat="47.81108" lon="-3.6509">
        <ele>-5.86</ele>
        <time>2019-07-14T12:03:37Z</time>
      </trkpt>
      <trkpt lat="47.81114" lon="-3.6509">
        <ele>-6.18</ele>
        <time>2019-07-14T12:03:38Z</time>
      </trkpt>
      <trkpt lat="47.81119" lon="-3.65086">
        <ele>-6.27</ele>
        <time>2019-07-14T12:03:39Z</time>
      </trkpt>
      <trkpt lat="47.81124" lon="-3.6508">
        <ele>-6.3</ele>
        <time>2019-07-14T12:03:40Z</time>
      </trkpt>
      <trkpt lat="47.8113" lon="-3.65075">
        <ele>-6.38</ele>
        <time>2019-07-14T12:03:41Z</time>
      </trkpt>
      <trkpt lat="47.81134" lon="-3.65071">
        <ele>-6.54</ele>
        <time>2019-07-14T12:03:42Z</time>
      </trkpt>
      <trkpt lat="47.81139" lon="-3.65069">
        <ele>-7.01</ele>
        <time>2019-07-14T12:03:43Z</time>
      </trkpt>
      <trkpt lat="47.81146" lon="-3.65073">
        <ele>-8.92</ele>
        <time>2019-07-14T12:03:45Z</time>
      </trkpt>
      <trkpt lat="47.81149" lon="-3.65086">
        <ele>-9.59</ele>
        <time>2019-07-14T12:03:47Z</time>
      </trkpt>
      <trkpt lat="47.8115" lon="-3.65093">
        <ele>-9.82</ele>
        <time>2019-07-14T12:03:48Z</time>
      </trkpt>
      <trkpt lat="47.81151" lon="-3.65099">
        <ele>-9.95</ele>
        <time>2019-07-14T12:03:49Z</time>
      </trkpt>
      <trkpt lat="47.81151" lon="-3.65108">
        <ele>-8.94</ele>
        <time>2019-07-14T12:03:50Z</time>
      </trkpt>
      <trkpt lat="47.81151" lon="-3.65115">
        <ele>-8.29</ele>
        <time>2019-07-14T12:03:51Z</time>
      </trkpt>
      <trkpt lat="47.8115" lon="-3.65126">
        <ele>-6.75</ele>
        <time>2019-07-14T12:03:53Z</time>
      </trkpt>
      <trkpt lat="47.81154" lon="-3.65135">
        <ele>-5.8</ele>
        <time>2019-07-14T12:03:55Z</time>
      </trkpt>
      <trkpt lat="47.81163" lon="-3.65139">
        <ele>-4.53</ele>
        <time>2019-07-14T12:03:57Z</time>
      </trkpt>
      <trkpt lat="47.81169" lon="-3.6514">
        <ele>-4.59</ele>
        <time>2019-07-14T12:03:58Z</time>
      </trkpt>
      <trkpt lat="47.81174" lon="-3.65142">
        <ele>-4.81</ele>
        <time>2019-07-14T12:03:59Z</time>
      </trkpt>
      <trkpt lat="47.8118" lon="-3.65145">
        <ele>-4.88</ele>
        <time>2019-07-14T12:04:00Z</time>
      </trkpt>
      <trkpt lat="47.81186" lon="-3.65147">
        <ele>-5.11</ele>
        <time>2019-07-14T12:04:01Z</time>
      </trkpt>
      <trkpt lat="47.81192" lon="-3.6515">
        <ele>-5.32</ele>
        <time>2019-07-14T12:04:02Z</time>
      </trkpt>
      <trkpt lat="47.81197" lon="-3.65153">
        <ele>-5.46</ele>
        <time>2019-07-14T12:04:03Z</time>
      </trkpt>
      <trkpt lat="47.81203" lon="-3.65156">
        <ele>-5.91</ele>
        <time>2019-07-14T12:04:04Z</time>
      </trkpt>
      <trkpt lat="47.81209" lon="-3.65159">
        <ele>-6.05</ele>
        <time>2019-07-14T12:04:05Z</time>
      </trkpt>
      <trkpt lat="47.81214" lon="-3.65162">
        <ele>-6.02</ele>
        <time>2019-07-14T12:04:06Z</time>
      </trkpt>
      <trkpt lat="47.8122" lon="-3.65165">
        <ele>-6.09</ele>
        <time>2019-07-14T12:04:07Z</time>
      </trkpt>
      <trkpt lat="47.81225" lon="-3.65167">
        <ele>-6.31</ele>
        <time>2019-07-14T12:04:08Z</time>
      </trkpt>
      <trkpt lat="47.81231" lon="-3.6517">
        <ele>-6.52</ele>
        <time>2019-07-14T12:04:09Z</time>
      </trkpt>
      <trkpt lat="47.81237" lon="-3.65173">
        <ele>-5.89</ele>
        <time>2019-07-14T12:04:10Z</time>
      </trkpt>
      <trkpt lat="47.81242" lon="-3.65175">
        <ele>-5.62</ele>
        <time>2019-07-14T12:04:11Z</time>
      </trkpt>
      <trkpt lat="47.81249" lon="-3.65178">
        <ele>-6.32</ele>
        <time>2019-07-14T12:04:12Z</time>
      </trkpt>
      <trkpt lat="47.81255" lon="-3.65181">
        <ele>-7.15</ele>
        <time>2019-07-14T12:04:13Z</time>
      </trkpt>
      <trkpt lat="47.81262" lon="-3.65184">
        <ele>-7.47</ele>
        <time>2019-07-14T12:04:14Z</time>
      </trkpt>
      <trkpt lat="47.81268" lon="-3.65187">
        <ele>-8.2</ele>
        <time>2019-07-14T12:04:15Z</time>
      </trkpt>
      <trkpt lat="47.81275" lon="-3.65189">
        <ele>-8.7</ele>
        <time>2019-07-14T12:04:16Z</time>
      </trkpt>
      <trkpt lat="47.81281" lon="-3.65191">
        <ele>-9.41</ele>
        <time>2019-07-14T12:04:17Z</time>
      </trkpt>
      <trkpt lat="47.81288" lon="-3.65193">
        <ele>-9.97</ele>
        <time>2019-07-14T12:04:18Z</time>
      </trkpt>
      <trkpt lat="47.81294" lon="-3.65195">
        <ele>-10.63</ele>
        <time>2019-07-14T12:04:19Z</time>
      </trkpt>
      <trkpt lat="47.813" lon="-3.65198">
        <ele>-11.39</ele>
        <time>2019-07-14T12:04:20Z</time>
      </trkpt>
      <trkpt lat="47.81307" lon="-3.652">
        <ele>-11.96</ele>
        <time>2019-07-14T12:04:21Z</time>
      </trkpt>
      <trkpt lat="47.81314" lon="-3.65202">
        <ele>-12.42</ele>
        <time>2019-07-14T12:04:22Z</time>
      </trkpt>
      <trkpt lat="47.8132" lon="-3.65205">
        <ele>-12.76</ele>
        <time>2019-07-14T12:04:23Z</time>
      </trkpt>
      <trkpt lat="47.81326" lon="-3.65207">
        <ele>-12.94</ele>
        <time>2019-07-14T12:04:24Z</time>
      </trkpt>
      <trkpt lat="47.81333" lon="-3.6521">
        <ele>-12.99</ele>
        <time>2019-07-14T12:04:25Z</time>
      </trkpt>
      <trkpt lat="47.81339" lon="-3.65214">
        <ele>-12.8</ele>
        <time>2019-07-14T12:04:26Z</time>
      </trkpt>
      <trkpt lat="47.81344" lon="-3.65219">
        <ele>-13.09</ele>
        <time>2019-07-14T12:04:27Z</time>
      </trkpt>
      <trkpt lat="47.8135" lon="-3.65224">
        <ele>-13.1</ele>
        <time>2019-07-14T12:04:28Z</time>
      </trkpt>
      <trkpt lat="47.81355" lon="-3.6523">
        <ele>-13.25</ele>
        <time>2019-07-14T12:04:29Z</time>
      </trkpt>
      <trkpt lat="47.8136" lon="-3.65235">
        <ele>-13.5</ele>
        <time>2019-07-14T12:04:30Z</time>
      </trkpt>
      <trkpt lat="47.81365" lon="-3.65241">
        <ele>-13.65</ele>
        <time>2019-07-14T12:04:31Z</time>
      </trkpt>
      <trkpt lat="47.81369" lon="-3.65246">
        <ele>-13.62</ele>
        <time>2019-07-14T12:04:32Z</time>
      </trkpt>
      <trkpt lat="47.81374" lon="-3.65251">
        <ele>-13.69</ele>
        <time>2019-07-14T12:04:33Z</time>
      </trkpt>
      <trkpt lat="47.8138" lon="-3.65256">
        <ele>-13.7</ele>
        <time>2019-07-14T12:04:34Z</time>
      </trkpt>
      <trkpt lat="47.81385" lon="-3.65261">
        <ele>-13.85</ele>
        <time>2019-07-14T12:04:35Z</time>
      </trkpt>
      <trkpt lat="47.8139" lon="-3.65267">
        <ele>-14.38</ele>
        <time>2019-07-14T12:04:36Z</time>
      </trkpt>
      <trkpt lat="47.81395" lon="-3.65272">
        <ele>-15.17</ele>
        <time>2019-07-14T12:04:37Z</time>
      </trkpt>
      <trkpt lat="47.814" lon="-3.65277">
        <ele>-16.18</ele>
        <time>2019-07-14T12:04:38Z</time>
      </trkpt>
      <trkpt lat="47.81406" lon="-3.65282">
        <ele>-16.76</ele>
        <time>2019-07-14T12:04:39Z</time>
      </trkpt>
      <trkpt lat="47.81412" lon="-3.65287">
        <ele>-17.22</ele>
        <time>2019-07-14T12:04:40Z</time>
      </trkpt>
      <trkpt lat="47.81418" lon="-3.65292">
        <ele>-17.49</ele>
        <time>2019-07-14T12:04:41Z</time>
      </trkpt>
      <trkpt lat="47.81423" lon="-3.65296">
        <ele>-17.58</ele>
        <time>2019-07-14T12:04:42Z</time>
      </trkpt>
      <trkpt lat="47.81429" lon="-3.65299">
        <ele>-17.81</ele>
        <time>2019-07-14T12:04:43Z</time>
      </trkpt>
      <trkpt lat="47.81435" lon="-3.65303">
        <ele>-17.95</ele>
        <time>2019-07-14T12:04:44Z</time>
      </trkpt>
      <trkpt lat="47.81441" lon="-3.65306">
        <ele>-18.06</ele>
        <time>2019-07-14T12:04:45Z</time>
      </trkpt>
      <trkpt lat="47.81447" lon="-3.65309">
        <ele>-18.03</ele>
        <time>2019-07-14T12:04:46Z</time>
      </trkpt>
      <trkpt lat="47.81453" lon="-3.65312">
        <ele>-18.09</ele>
        <time>2019-07-14T12:04:47Z</time>
      </trkpt>
      <trkpt lat="47.81459" lon="-3.65314">
        <ele>-18.03</ele>
        <time>2019-07-14T12:04:48Z</time>
      </trkpt>
      <trkpt lat="47.81466" lon="-3.65317">
        <ele>-18.02</ele>
        <time>2019-07-14T12:04:49Z</time>
      </trkpt>
      <trkpt lat="47.81472" lon="-3.65319">
        <ele>-18.15</ele>
        <time>2019-07-14T12:04:50Z</time>
      </trkpt>
      <trkpt lat="47.81479" lon="-3.65321">
        <ele>-17.7</ele>
        <time>2019-07-14T12:04:51Z</time>
      </trkpt>
      <trkpt lat="47.81485" lon="-3.65323">
        <ele>-17.22</ele>
        <time>2019-07-14T12:04:52Z</time>
      </trkpt>
      <trkpt lat="47.81492" lon="-3.65325">
        <ele>-16.93</ele>
        <time>2019-07-14T12:04:53Z</time>
      </trkpt>
      <trkpt lat="47.81498" lon="-3.65327">
        <ele>-16.92</ele>
        <time>2019-07-14T12:04:54Z</time>
      </trkpt>
      <trkpt lat="47.81505" lon="-3.65329">
        <ele>-16.56</ele>
        <time>2019-07-14T12:04:55Z</time>
      </trkpt>
      <trkpt lat="47.81512" lon="-3.65331">
        <ele>-16.25</ele>
        <time>2019-07-14T12:04:56Z</time>
      </trkpt>
      <trkpt lat="47.81519" lon="-3.65333">
        <ele>-16.01</ele>
        <time>2019-07-14T12:04:57Z</time>
      </trkpt>
      <trkpt lat="47.81526" lon="-3.65334">
        <ele>-15.73</ele>
        <time>2019-07-14T12:04:58Z</time>
      </trkpt>
      <trkpt lat="47.81533" lon="-3.65335">
        <ele>-15.44</ele>
        <time>2019-07-14T12:04:59Z</time>
      </trkpt>
      <trkpt lat="47.8154" lon="-3.65336">
        <ele>-15.21</ele>
        <time>2019-07-14T12:05:00Z</time>
      </trkpt>
      <trkpt lat="47.81546" lon="-3.65337">
        <ele>-15.14</ele>
        <time>2019-07-14T12:05:01Z</time>
      </trkpt>
      <trkpt lat="47.81553" lon="-3.65339">
        <ele>-15.54</ele>
        <time>2019-07-14T12:05:02Z</time>
      </trkpt>
      <trkpt lat="47.81559" lon="-3.65338">
        <ele>-15.31</ele>
        <time>2019-07-14T12:05:03Z</time>
      </trkpt>
      <trkpt lat="47.81565" lon="-3.65339">
        <ele>-14.96</ele>
        <time>2019-07-14T12:05:04Z</time>
      </trkpt>
      <trkpt lat="47.81572" lon="-3.6534">
        <ele>-15.21</ele>
        <time>2019-07-14T12:05:05Z</time>
      </trkpt>
      <trkpt lat="47.81579" lon="-3.65341">
        <ele>-15.07</ele>
        <time>2019-07-14T12:05:06Z</time>
      </trkpt>
      <trkpt lat="47.81586" lon="-3.65342">
        <ele>-14.61</ele>
        <time>2019-07-14T12:05:07Z</time>
      </trkpt>
      <trkpt lat="47.81593" lon="-3.65343">
        <ele>-14.19</ele>
        <time>2019-07-14T12:05:08Z</time>
      </trkpt>
      <trkpt lat="47.816" lon="-3.65344">
        <ele>-13.72</ele>
        <time>2019-07-14T12:05:09Z</time>
      </trkpt>
      <trkpt lat="47.81606" lon="-3.65345">
        <ele>-13.57</ele>
        <time>2019-07-14T12:05:10Z</time>
      </trkpt>
      <trkpt lat="47.81612" lon="-3.65345">
        <ele>-13.11</ele>
        <time>2019-07-14T12:05:11Z</time>
      </trkpt>
      <trkpt lat="47.81618" lon="-3.65345">
        <ele>-12.55</ele>
        <time>2019-07-14T12:05:12Z</time>
      </trkpt>
      <trkpt lat="47.81623" lon="-3.65346">
        <ele>-12.1</ele>
        <time>2019-07-14T12:05:13Z</time>
      </trkpt>
      <trkpt lat="47.81629" lon="-3.65346">
        <ele>-11.69</ele>
        <time>2019-07-14T12:05:14Z</time>
      </trkpt>
      <trkpt lat="47.81635" lon="-3.65346">
        <ele>-11.15</ele>
        <time>2019-07-14T12:05:15Z</time>
      </trkpt>
      <trkpt lat="47.81642" lon="-3.65347">
        <ele>-10.7</ele>
        <time>2019-07-14T12:05:16Z</time>
      </trkpt>
      <trkpt lat="47.81647" lon="-3.65349">
        <ele>-10.78</ele>
        <time>2019-07-14T12:05:17Z</time>
      </trkpt>
      <trkpt lat="47.81652" lon="-3.65351">
        <ele>-11.08</ele>
        <time>2019-07-14T12:05:18Z</time>
      </trkpt>
      <trkpt lat="47.81657" lon="-3.65353">
        <ele>-11.66</ele>
        <time>2019-07-14T12:05:19Z</time>
      </trkpt>
      <trkpt lat="47.81663" lon="-3.65354">
        <ele>-11.91</ele>
        <time>2019-07-14T12:05:20Z</time>
      </trkpt>
      <trkpt lat="47.81669" lon="-3.65355">
        <ele>-11.91</ele>
        <time>2019-07-14T12:05:21Z</time>
      </trkpt>
      <trkpt lat="47.81675" lon="-3.65356">
        <ele>-11.77</ele>
        <time>2019-07-14T12:05:22Z</time>
      </trkpt>
      <trkpt lat="47.8168" lon="-3.65358">
        <ele>-12.08</ele>
        <time>2019-07-14T12:05:23Z</time>
      </trkpt>
      <trkpt lat="47.81685" lon="-3.65361">
        <ele>-12.17</ele>
        <time>2019-07-14T12:05:24Z</time>
      </trkpt>
      <trkpt lat="47.8169" lon="-3.65364">
        <ele>-11.85</ele>
        <time>2019-07-14T12:05:25Z</time>
      </trkpt>
      <trkpt lat="47.81695" lon="-3.65368">
        <ele>-11.82</ele>
        <time>2019-07-14T12:05:26Z</time>
      </trkpt>
      <trkpt lat="47.81698" lon="-3.65373">
        <ele>-11.47</ele>
        <time>2019-07-14T12:05:27Z</time>
      </trkpt>
      <trkpt lat="47.81703" lon="-3.65378">
        <ele>-11.22</ele>
        <time>2019-07-14T12:05:28Z</time>
      </trkpt>
      <trkpt lat="47.81706" lon="-3.65382">
        <ele>-11.35</ele>
        <time>2019-07-14T12:05:29Z</time>
      </trkpt>
      <trkpt lat="47.81711" lon="-3.65391">
        <ele>-11.25</ele>
        <time>2019-07-14T12:05:31Z</time>
      </trkpt>
      <trkpt lat="47.81715" lon="-3.65399">
        <ele>-10.89</ele>
        <time>2019-07-14T12:05:33Z</time>
      </trkpt>
      <trkpt lat="47.81723" lon="-3.65406">
        <ele>-11.18</ele>
        <time>2019-07-14T12:05:35Z</time>
      </trkpt>
      <trkpt lat="47.81727" lon="-3.65411">
        <ele>-11.62</ele>
        <time>2019-07-14T12:05:36Z</time>
      </trkpt>
      <trkpt lat="47.81731" lon="-3.65416">
        <ele>-11.9</ele>
        <time>2019-07-14T12:05:37Z</time>
      </trkpt>
      <trkpt lat="47.81735" lon="-3.65422">
        <ele>-11.91</ele>
        <time>2019-07-14T12:05:38Z</time>
      </trkpt>
      <trkpt lat="47.81739" lon="-3.65428">
        <ele>-11.84</ele>
        <time>2019-07-14T12:05:39Z</time>
      </trkpt>
      <trkpt lat="47.81743" lon="-3.65434">
        <ele>-11.61</ele>
        <time>2019-07-14T12:05:40Z</time>
      </trkpt>
      <trkpt lat="47.81745" lon="-3.6544">
        <ele>-11.4</ele>
        <time>2019-07-14T12:05:41Z</time>
      </trkpt>
      <trkpt lat="47.8175" lon="-3.65442">
        <ele>-10.98</ele>
        <time>2019-07-14T12:05:43Z</time>
      </trkpt>
      <trkpt lat="47.81753" lon="-3.65436">
        <ele>-10.69</ele>
        <time>2019-07-14T12:05:45Z</time>
      </trkpt>
      <trkpt lat="47.81757" lon="-3.6543">
        <ele>-10.56</ele>
        <time>2019-07-14T12:05:46Z</time>
      </trkpt>
      <trkpt lat="47.81758" lon="-3.65422">
        <ele>-10.25</ele>
        <time>2019-07-14T12:05:47Z</time>
      </trkpt>
      <trkpt lat="47.81759" lon="-3.65415">
        <ele>-10.5</ele>
        <time>2019-07-14T12:05:48Z</time>
      </trkpt>
      <trkpt lat="47.8176" lon="-3.65408">
        <ele>-10.58</ele>
        <time>2019-07-14T12:05:49Z</time>
      </trkpt>
      <trkpt lat="47.81761" lon="-3.654">
        <ele>-10.39</ele>
        <time>2019-07-14T12:05:50Z</time>
      </trkpt>
      <trkpt lat="47.81761" lon="-3.65392">
        <ele>-10.27</ele>
        <time>2019-07-14T12:05:51Z</time>
      </trkpt>
      <trkpt lat="47.81763" lon="-3.65383">
        <ele>-10.37</ele>
        <time>2019-07-14T12:05:52Z</time>
      </trkpt>
      <trkpt lat="47.81763" lon="-3.65374">
        <ele>-10.47</ele>
        <time>2019-07-14T12:05:53Z</time>
      </trkpt>
      <trkpt lat="47.81764" lon="-3.65364">
        <ele>-10.5</ele>
        <time>2019-07-14T12:05:54Z</time>
      </trkpt>
      <trkpt lat="47.81763" lon="-3.65352">
        <ele>-10.51</ele>
        <time>2019-07-14T12:05:55Z</time>
      </trkpt>
      <trkpt lat="47.81762" lon="-3.6534">
        <ele>-10.93</ele>
        <time>2019-07-14T12:05:56Z</time>
      </trkpt>
      <trkpt lat="47.8176" lon="-3.65328">
        <ele>-11.06</ele>
        <time>2019-07-14T12:05:57Z</time>
      </trkpt>
      <trkpt lat="47.81758" lon="-3.65317">
        <ele>-11.1</ele>
        <time>2019-07-14T12:05:58Z</time>
      </trkpt>
      <trkpt lat="47.81756" lon="-3.65306">
        <ele>-12.09</ele>
        <time>2019-07-14T12:05:59Z</time>
      </trkpt>
      <trkpt lat="47.81755" lon="-3.65296">
        <ele>-13.08</ele>
        <time>2019-07-14T12:06:00Z</time>
      </trkpt>
      <trkpt lat="47.81755" lon="-3.65287">
        <ele>-14.08</ele>
        <time>2019-07-14T12:06:01Z</time>
      </trkpt>
      <trkpt lat="47.81756" lon="-3.65277">
        <ele>-15.29</ele>
        <time>2019-07-14T12:06:02Z</time>
      </trkpt>
      <trkpt lat="47.81758" lon="-3.65269">
        <ele>-16.85</ele>
        <time>2019-07-14T12:06:03Z</time>
      </trkpt>
      <trkpt lat="47.8176" lon="-3.65263">
        <ele>-18.36</ele>
        <time>2019-07-14T12:06:04Z</time>
      </trkpt>
      <trkpt lat="47.81763" lon="-3.65255">
        <ele>-21.38</ele>
        <time>2019-07-14T12:06:06Z</time>
      </trkpt>
      <trkpt lat="47.81766" lon="-3.65245">
        <ele>-24.16</ele>
        <time>2019-07-14T12:06:08Z</time>
      </trkpt>
      <trkpt lat="47.81766" lon="-3.65233">
        <ele>-25.48</ele>
        <time>2019-07-14T12:06:10Z</time>
      </trkpt>
      <trkpt lat="47.81763" lon="-3.65222">
        <ele>-25.78</ele>
        <time>2019-07-14T12:06:12Z</time>
      </trkpt>
      <trkpt lat="47.81761" lon="-3.65211">
        <ele>-26.64</ele>
        <time>2019-07-14T12:06:14Z</time>
      </trkpt>
      <trkpt lat="47.81764" lon="-3.65201">
        <ele>-28.55</ele>
        <time>2019-07-14T12:06:16Z</time>
      </trkpt>
      <trkpt lat="47.8177" lon="-3.65193">
        <ele>-30.3</ele>
        <time>2019-07-14T12:06:18Z</time>
      </trkpt>
      <trkpt lat="47.81776" lon="-3.65184">
        <ele>-31.9</ele>
        <time>2019-07-14T12:06:20Z</time>
      </trkpt>
      <trkpt lat="47.8178" lon="-3.65175">
        <ele>-32.85</ele>
        <time>2019-07-14T12:06:22Z</time>
      </trkpt>
      <trkpt lat="47.81782" lon="-3.65164">
        <ele>-33.53</ele>
        <time>2019-07-14T12:06:24Z</time>
      </trkpt>
      <trkpt lat="47.81783" lon="-3.65153">
        <ele>-34.36</ele>
        <time>2019-07-14T12:06:26Z</time>
      </trkpt>
      <trkpt lat="47.81779" lon="-3.65145">
        <ele>-34.89</ele>
        <time>2019-07-14T12:06:28Z</time>
      </trkpt>
      <trkpt lat="47.81774" lon="-3.6514">
        <ele>-35.67</ele>
        <time>2019-07-14T12:06:30Z</time>
      </trkpt>
      <trkpt lat="47.81768" lon="-3.65134">
        <ele>-35.76</ele>
        <time>2019-07-14T12:06:32Z</time>
      </trkpt>
      <trkpt lat="47.81764" lon="-3.65129">
        <ele>-35.37</ele>
        <time>2019-07-14T12:06:34Z</time>
      </trkpt>
      <trkpt lat="47.81764" lon="-3.6512">
        <ele>-34.69</ele>
        <time>2019-07-14T12:06:37Z</time>
      </trkpt>
      <trkpt lat="47.81763" lon="-3.65109">
        <ele>-34.44</ele>
        <time>2019-07-14T12:06:40Z</time>
      </trkpt>
      <trkpt lat="47.81762" lon="-3.651">
        <ele>-33.98</ele>
        <time>2019-07-14T12:06:42Z</time>
      </trkpt>
      <trkpt lat="47.81761" lon="-3.65092">
        <ele>-33.76</ele>
        <time>2019-07-14T12:06:44Z</time>
      </trkpt>
      <trkpt lat="47.8176" lon="-3.65083">
        <ele>-33.37</ele>
        <time>2019-07-14T12:06:46Z</time>
      </trkpt>
      <trkpt lat="47.81762" lon="-3.65076">
        <ele>-32.67</ele>
        <time>2019-07-14T12:06:48Z</time>
      </trkpt>
      <trkpt lat="47.81765" lon="-3.6507">
        <ele>-31.67</ele>
        <time>2019-07-14T12:06:50Z</time>
      </trkpt>
      <trkpt lat="47.81771" lon="-3.65063">
        <ele>-29.97</ele>
        <time>2019-07-14T12:06:53Z</time>
      </trkpt>
      <trkpt lat="47.81776" lon="-3.65057">
        <ele>-28.24</ele>
        <time>2019-07-14T12:06:55Z</time>
      </trkpt>
      <trkpt lat="47.81781" lon="-3.65053">
        <ele>-26.84</ele>
        <time>2019-07-14T12:06:57Z</time>
      </trkpt>
      <trkpt lat="47.81787" lon="-3.65048">
        <ele>-24.93</ele>
        <time>2019-07-14T12:06:59Z</time>
      </trkpt>
      <trkpt lat="47.81793" lon="-3.65044">
        <ele>-23.26</ele>
        <time>2019-07-14T12:07:01Z</time>
      </trkpt>
      <trkpt lat="47.81799" lon="-3.65038">
        <ele>-21.66</ele>
        <time>2019-07-14T12:07:03Z</time>
      </trkpt>
      <trkpt lat="47.81805" lon="-3.6503">
        <ele>-20.17</ele>
        <time>2019-07-14T12:07:05Z</time>
      </trkpt>
      <trkpt lat="47.8181" lon="-3.6502">
        <ele>-19.04</ele>
        <time>2019-07-14T12:07:07Z</time>
      </trkpt>
      <trkpt lat="47.81813" lon="-3.65009">
        <ele>-18.02</ele>
        <time>2019-07-14T12:07:09Z</time>
      </trkpt>
      <trkpt lat="47.81818" lon="-3.64998">
        <ele>-16.24</ele>
        <time>2019-07-14T12:07:11Z</time>
      </trkpt>
      <trkpt lat="47.81821" lon="-3.64987">
        <ele>-15.65</ele>
        <time>2019-07-14T12:07:13Z</time>
      </trkpt>
      <trkpt lat="47.81823" lon="-3.64977">
        <ele>-15.1</ele>
        <time>2019-07-14T12:07:15Z</time>
      </trkpt>
      <trkpt lat="47.81825" lon="-3.64966">
        <ele>-14.19</ele>
        <time>2019-07-14T12:07:17Z</time>
      </trkpt>
      <trkpt lat="47.81827" lon="-3.64955">
        <ele>-13.52</ele>
        <time>2019-07-14T12:07:19Z</time>
      </trkpt>
      <trkpt lat="47.81829" lon="-3.64949">
        <ele>-13.45</ele>
        <time>2019-07-14T12:07:20Z</time>
      </trkpt>
      <trkpt lat="47.81832" lon="-3.64943">
        <ele>-13.42</ele>
        <time>2019-07-14T12:07:21Z</time>
      </trkpt>
      <trkpt lat="47.81835" lon="-3.64938">
        <ele>-13.35</ele>
        <time>2019-07-14T12:07:22Z</time>
      </trkpt>
      <trkpt lat="47.81838" lon="-3.64933">
        <ele>-13.25</ele>
        <time>2019-07-14T12:07:23Z</time>
      </trkpt>
      <trkpt lat="47.81842" lon="-3.64929">
        <ele>-13.08</ele>
        <time>2019-07-14T12:07:24Z</time>
      </trkpt>
      <trkpt lat="47.81847" lon="-3.64923">
        <ele>-12.82</ele>
        <time>2019-07-14T12:07:25Z</time>
      </trkpt>
      <trkpt lat="47.8185" lon="-3.64917">
        <ele>-12.47</ele>
        <time>2019-07-14T12:07:26Z</time>
      </trkpt>
      <trkpt lat="47.81853" lon="-3.64911">
        <ele>-12.36</ele>
        <time>2019-07-14T12:07:27Z</time>
      </trkpt>
      <trkpt lat="47.81856" lon="-3.649">
        <ele>-12.34</ele>
        <time>2019-07-14T12:07:29Z</time>
      </trkpt>
      <trkpt lat="47.8186" lon="-3.64888">
        <ele>-12.32</ele>
        <time>2019-07-14T12:07:31Z</time>
      </trkpt>
      <trkpt lat="47.81862" lon="-3.64882">
        <ele>-13.01</ele>
        <time>2019-07-14T12:07:32Z</time>
      </trkpt>
      <trkpt lat="47.81863" lon="-3.6487">
        <ele>-13.81</ele>
        <time>2019-07-14T12:07:34Z</time>
      </trkpt>
      <trkpt lat="47.81861" lon="-3.64862">
        <ele>-14.39</ele>
        <time>2019-07-14T12:07:36Z</time>
      </trkpt>
      <trkpt lat="47.81858" lon="-3.64852">
        <ele>-14.75</ele>
        <time>2019-07-14T12:07:38Z</time>
      </trkpt>
      <trkpt lat="47.81855" lon="-3.64843">
        <ele>-14.88</ele>
        <time>2019-07-14T12:07:40Z</time>
      </trkpt>
      <trkpt lat="47.8185" lon="-3.64835">
        <ele>-15.09</ele>
        <time>2019-07-14T12:07:42Z</time>
      </trkpt>
      <trkpt lat="47.81845" lon="-3.64827">
        <ele>-15.28</ele>
        <time>2019-07-14T12:07:44Z</time>
      </trkpt>
      <trkpt lat="47.81841" lon="-3.64821">
        <ele>-15.83</ele>
        <time>2019-07-14T12:07:46Z</time>
      </trkpt>
      <trkpt lat="47.81835" lon="-3.64814">
        <ele>-16.71</ele>
        <time>2019-07-14T12:07:48Z</time>
      </trkpt>
      <trkpt lat="47.81829" lon="-3.64807">
        <ele>-17.51</ele>
        <time>2019-07-14T12:07:50Z</time>
      </trkpt>
      <trkpt lat="47.81823" lon="-3.64798">
        <ele>-18.96</ele>
        <time>2019-07-14T12:07:52Z</time>
      </trkpt>
      <trkpt lat="47.81818" lon="-3.64788">
        <ele>-19.82</ele>
        <time>2019-07-14T12:07:54Z</time>
      </trkpt>
      <trkpt lat="47.81813" lon="-3.6478">
        <ele>-19.84</ele>
        <time>2019-07-14T12:07:56Z</time>
      </trkpt>
      <trkpt lat="47.81809" lon="-3.6477">
        <ele>-19.35</ele>
        <time>2019-07-14T12:07:58Z</time>
      </trkpt>
      <trkpt lat="47.81806" lon="-3.64759">
        <ele>-19.36</ele>
        <time>2019-07-14T12:08:00Z</time>
      </trkpt>
      <trkpt lat="47.81802" lon="-3.64749">
        <ele>-18.86</ele>
        <time>2019-07-14T12:08:02Z</time>
      </trkpt>
      <trkpt lat="47.81798" lon="-3.64738">
        <ele>-18.5</ele>
        <time>2019-07-14T12:08:04Z</time>
      </trkpt>
      <trkpt lat="47.81793" lon="-3.64729">
        <ele>-18.85</ele>
        <time>2019-07-14T12:08:06Z</time>
      </trkpt>
      <trkpt lat="47.81793" lon="-3.64719">
        <ele>-17.79</ele>
        <time>2019-07-14T12:08:08Z</time>
      </trkpt>
      <trkpt lat="47.81792" lon="-3.64706">
        <ele>-16.82</ele>
        <time>2019-07-14T12:08:10Z</time>
      </trkpt>
      <trkpt lat="47.81792" lon="-3.64694">
        <ele>-15.62</ele>
        <time>2019-07-14T12:08:12Z</time>
      </trkpt>
      <trkpt lat="47.81791" lon="-3.64682">
        <ele>-15.45</ele>
        <time>2019-07-14T12:08:14Z</time>
      </trkpt>
      <trkpt lat="47.8179" lon="-3.6467">
        <ele>-14.97</ele>
        <time>2019-07-14T12:08:16Z</time>
      </trkpt>
      <trkpt lat="47.81788" lon="-3.64658">
        <ele>-14.39</ele>
        <time>2019-07-14T12:08:18Z</time>
      </trkpt>
      <trkpt lat="47.81787" lon="-3.6465">
        <ele>-13.92</ele>
        <time>2019-07-14T12:08:19Z</time>
      </trkpt>
      <trkpt lat="47.81786" lon="-3.64637">
        <ele>-13.64</ele>
        <time>2019-07-14T12:08:21Z</time>
      </trkpt>
      <trkpt lat="47.81784" lon="-3.6463">
        <ele>-13.62</ele>
        <time>2019-07-14T12:08:22Z</time>
      </trkpt>
      <trkpt lat="47.81783" lon="-3.64622">
        <ele>-13.4</ele>
        <time>2019-07-14T12:08:23Z</time>
      </trkpt>
      <trkpt lat="47.81782" lon="-3.64614">
        <ele>-13.06</ele>
        <time>2019-07-14T12:08:24Z</time>
      </trkpt>
      <trkpt lat="47.8178" lon="-3.64605">
        <ele>-12.19</ele>
        <time>2019-07-14T12:08:25Z</time>
      </trkpt>
      <trkpt lat="47.81778" lon="-3.64597">
        <ele>-11.57</ele>
        <time>2019-07-14T12:08:26Z</time>
      </trkpt>
      <trkpt lat="47.81776" lon="-3.6459">
        <ele>-11.18</ele>
        <time>2019-07-14T12:08:27Z</time>
      </trkpt>
      <trkpt lat="47.81774" lon="-3.64582">
        <ele>-10.85</ele>
        <time>2019-07-14T12:08:28Z</time>
      </trkpt>
      <trkpt lat="47.81771" lon="-3.64575">
        <ele>-10.75</ele>
        <time>2019-07-14T12:08:29Z</time>
      </trkpt>
      <trkpt lat="47.81768" lon="-3.64568">
        <ele>-9.88</ele>
        <time>2019-07-14T12:08:30Z</time>
      </trkpt>
      <trkpt lat="47.81766" lon="-3.6456">
        <ele>-9.62</ele>
        <time>2019-07-14T12:08:31Z</time>
      </trkpt>
      <trkpt lat="47.81764" lon="-3.64553">
        <ele>-9.48</ele>
        <time>2019-07-14T12:08:32Z</time>
      </trkpt>
      <trkpt lat="47.81761" lon="-3.64546">
        <ele>-9.43</ele>
        <time>2019-07-14T12:08:33Z</time>
      </trkpt>
      <trkpt lat="47.81759" lon="-3.64539">
        <ele>-9.49</ele>
        <time>2019-07-14T12:08:34Z</time>
      </trkpt>
      <trkpt lat="47.81757" lon="-3.64532">
        <ele>-9.57</ele>
        <time>2019-07-14T12:08:35Z</time>
      </trkpt>
      <trkpt lat="47.81756" lon="-3.64524">
        <ele>-9.6</ele>
        <time>2019-07-14T12:08:36Z</time>
      </trkpt>
      <trkpt lat="47.81755" lon="-3.64516">
        <ele>-9.82</ele>
        <time>2019-07-14T12:08:37Z</time>
      </trkpt>
      <trkpt lat="47.81753" lon="-3.64506">
        <ele>-9.95</ele>
        <time>2019-07-14T12:08:38Z</time>
      </trkpt>
      <trkpt lat="47.81751" lon="-3.64498">
        <ele>-9.92</ele>
        <time>2019-07-14T12:08:39Z</time>
      </trkpt>
      <trkpt lat="47.8175" lon="-3.6449">
        <ele>-9.85</ele>
        <time>2019-07-14T12:08:40Z</time>
      </trkpt>
      <trkpt lat="47.81747" lon="-3.64483">
        <ele>-9.68</ele>
        <time>2019-07-14T12:08:41Z</time>
      </trkpt>
      <trkpt lat="47.81745" lon="-3.64475">
        <ele>-9.56</ele>
        <time>2019-07-14T12:08:42Z</time>
      </trkpt>
      <trkpt lat="47.81743" lon="-3.64466">
        <ele>-9.25</ele>
        <time>2019-07-14T12:08:43Z</time>
      </trkpt>
      <trkpt lat="47.8174" lon="-3.64457">
        <ele>-9.15</ele>
        <time>2019-07-14T12:08:44Z</time>
      </trkpt>
      <trkpt lat="47.81737" lon="-3.64449">
        <ele>-8.91</ele>
        <time>2019-07-14T12:08:45Z</time>
      </trkpt>
      <trkpt lat="47.81735" lon="-3.64438">
        <ele>-8.42</ele>
        <time>2019-07-14T12:08:46Z</time>
      </trkpt>
      <trkpt lat="47.81732" lon="-3.6443">
        <ele>-8.42</ele>
        <time>2019-07-14T12:08:47Z</time>
      </trkpt>
      <trkpt lat="47.81731" lon="-3.64421">
        <ele>-8.9</ele>
        <time>2019-07-14T12:08:48Z</time>
      </trkpt>
      <trkpt lat="47.81728" lon="-3.64412">
        <ele>-9.05</ele>
        <time>2019-07-14T12:08:49Z</time>
      </trkpt>
      <trkpt lat="47.81725" lon="-3.64403">
        <ele>-9.16</ele>
        <time>2019-07-14T12:08:50Z</time>
      </trkpt>
      <trkpt lat="47.81723" lon="-3.64395">
        <ele>-9.27</ele>
        <time>2019-07-14T12:08:51Z</time>
      </trkpt>
      <trkpt lat="47.8172" lon="-3.64385">
        <ele>-9.65</ele>
        <time>2019-07-14T12:08:52Z</time>
      </trkpt>
      <trkpt lat="47.81719" lon="-3.64375">
        <ele>-9.83</ele>
        <time>2019-07-14T12:08:53Z</time>
      </trkpt>
      <trkpt lat="47.81718" lon="-3.64365">
        <ele>-9.96</ele>
        <time>2019-07-14T12:08:54Z</time>
      </trkpt>
      <trkpt lat="47.81716" lon="-3.64357">
        <ele>-10.63</ele>
        <time>2019-07-14T12:08:55Z</time>
      </trkpt>
      <trkpt lat="47.81714" lon="-3.64348">
        <ele>-10.83</ele>
        <time>2019-07-14T12:08:56Z</time>
      </trkpt>
      <trkpt lat="47.81714" lon="-3.64339">
        <ele>-11.03</ele>
        <time>2019-07-14T12:08:57Z</time>
      </trkpt>
      <trkpt lat="47.81714" lon="-3.64332">
        <ele>-11.44</ele>
        <time>2019-07-14T12:08:58Z</time>
      </trkpt>
      <trkpt lat="47.81714" lon="-3.64321">
        <ele>-11.86</ele>
        <time>2019-07-14T12:09:00Z</time>
      </trkpt>
      <trkpt lat="47.81713" lon="-3.64314">
        <ele>-11.44</ele>
        <time>2019-07-14T12:09:02Z</time>
      </trkpt>
      <trkpt lat="47.81707" lon="-3.64312">
        <ele>-11.83</ele>
        <time>2019-07-14T12:09:04Z</time>
      </trkpt>
      <trkpt lat="47.81701" lon="-3.64308">
        <ele>-12.32</ele>
        <time>2019-07-14T12:09:06Z</time>
      </trkpt>
      <trkpt lat="47.81693" lon="-3.64306">
        <ele>-12.47</ele>
        <time>2019-07-14T12:09:08Z</time>
      </trkpt>
      <trkpt lat="47.81688" lon="-3.64305">
        <ele>-12.15</ele>
        <time>2019-07-14T12:09:09Z</time>
      </trkpt>
      <trkpt lat="47.81683" lon="-3.64304">
        <ele>-12.47</ele>
        <time>2019-07-14T12:09:10Z</time>
      </trkpt>
      <trkpt lat="47.81675" lon="-3.64302">
        <ele>-12.68</ele>
        <time>2019-07-14T12:09:12Z</time>
      </trkpt>
      <trkpt lat="47.81666" lon="-3.64301">
        <ele>-12.81</ele>
        <time>2019-07-14T12:09:14Z</time>
      </trkpt>
      <trkpt lat="47.81657" lon="-3.64299">
        <ele>-11.42</ele>
        <time>2019-07-14T12:09:16Z</time>
      </trkpt>
      <trkpt lat="47.81653" lon="-3.64299">
        <ele>-10.57</ele>
        <time>2019-07-14T12:09:17Z</time>
      </trkpt>
      <trkpt lat="47.81648" lon="-3.643">
        <ele>-10.25</ele>
        <time>2019-07-14T12:09:18Z</time>
      </trkpt>
      <trkpt lat="47.8164" lon="-3.64301">
        <ele>-9.09</ele>
        <time>2019-07-14T12:09:20Z</time>
      </trkpt>
      <trkpt lat="47.81635" lon="-3.64301">
        <ele>-9.1</ele>
        <time>2019-07-14T12:09:21Z</time>
      </trkpt>
      <trkpt lat="47.8163" lon="-3.64301">
        <ele>-9.04</ele>
        <time>2019-07-14T12:09:22Z</time>
      </trkpt>
      <trkpt lat="47.81625" lon="-3.64302">
        <ele>-8.95</ele>
        <time>2019-07-14T12:09:23Z</time>
      </trkpt>
      <trkpt lat="47.8162" lon="-3.64303">
        <ele>-8.99</ele>
        <time>2019-07-14T12:09:24Z</time>
      </trkpt>
      <trkpt lat="47.81614" lon="-3.64304">
        <ele>-9.36</ele>
        <time>2019-07-14T12:09:25Z</time>
      </trkpt>
      <trkpt lat="47.81609" lon="-3.64305">
        <ele>-9.47</ele>
        <time>2019-07-14T12:09:26Z</time>
      </trkpt>
      <trkpt lat="47.81604" lon="-3.64305">
        <ele>-9.71</ele>
        <time>2019-07-14T12:09:27Z</time>
      </trkpt>
      <trkpt lat="47.81599" lon="-3.64305">
        <ele>-10.34</ele>
        <time>2019-07-14T12:09:28Z</time>
      </trkpt>
      <trkpt lat="47.8159" lon="-3.64307">
        <ele>-11.41</ele>
        <time>2019-07-14T12:09:30Z</time>
      </trkpt>
      <trkpt lat="47.81585" lon="-3.64308">
        <ele>-11.62</ele>
        <time>2019-07-14T12:09:31Z</time>
      </trkpt>
      <trkpt lat="47.8158" lon="-3.64309">
        <ele>-11.97</ele>
        <time>2019-07-14T12:09:32Z</time>
      </trkpt>
      <trkpt lat="47.81576" lon="-3.6431">
        <ele>-12.49</ele>
        <time>2019-07-14T12:09:33Z</time>
      </trkpt>
      <trkpt lat="47.81571" lon="-3.64309">
        <ele>-13.41</ele>
        <time>2019-07-14T12:09:34Z</time>
      </trkpt>
      <trkpt lat="47.81563" lon="-3.64309">
        <ele>-14.3</ele>
        <time>2019-07-14T12:09:36Z</time>
      </trkpt>
      <trkpt lat="47.81558" lon="-3.64309">
        <ele>-14.66</ele>
        <time>2019-07-14T12:09:37Z</time>
      </trkpt>
      <trkpt lat="47.81554" lon="-3.6431">
        <ele>-15.05</ele>
        <time>2019-07-14T12:09:38Z</time>
      </trkpt>
      <trkpt lat="47.81549" lon="-3.64311">
        <ele>-15.09</ele>
        <time>2019-07-14T12:09:39Z</time>
      </trkpt>
      <trkpt lat="47.81544" lon="-3.64311">
        <ele>-14.76</ele>
        <time>2019-07-14T12:09:40Z</time>
      </trkpt>
      <trkpt lat="47.81538" lon="-3.64311">
        <ele>-14.1</ele>
        <time>2019-07-14T12:09:41Z</time>
      </trkpt>
      <trkpt lat="47.81534" lon="-3.64311">
        <ele>-13.41</ele>
        <time>2019-07-14T12:09:42Z</time>
      </trkpt>
      <trkpt lat="47.81529" lon="-3.64312">
        <ele>-12.43</ele>
        <time>2019-07-14T12:09:43Z</time>
      </trkpt>
      <trkpt lat="47.81523" lon="-3.64309">
        <ele>-12.28</ele>
        <time>2019-07-14T12:09:45Z</time>
      </trkpt>
      <trkpt lat="47.81517" lon="-3.64307">
        <ele>-12.01</ele>
        <time>2019-07-14T12:09:47Z</time>
      </trkpt>
      <trkpt lat="47.8151" lon="-3.64306">
        <ele>-11.51</ele>
        <time>2019-07-14T12:09:49Z</time>
      </trkpt>
      <trkpt lat="47.81505" lon="-3.64306">
        <ele>-12</ele>
        <time>2019-07-14T12:09:50Z</time>
      </trkpt>
      <trkpt lat="47.815" lon="-3.64305">
        <ele>-12.92</ele>
        <time>2019-07-14T12:09:51Z</time>
      </trkpt>
      <trkpt lat="47.81495" lon="-3.64305">
        <ele>-13.61</ele>
        <time>2019-07-14T12:09:52Z</time>
      </trkpt>
      <trkpt lat="47.81489" lon="-3.64305">
        <ele>-13.75</ele>
        <time>2019-07-14T12:09:53Z</time>
      </trkpt>
      <trkpt lat="47.81484" lon="-3.64305">
        <ele>-14.35</ele>
        <time>2019-07-14T12:09:54Z</time>
      </trkpt>
      <trkpt lat="47.81478" lon="-3.64307">
        <ele>-14.88</ele>
        <time>2019-07-14T12:09:55Z</time>
      </trkpt>
      <trkpt lat="47.81472" lon="-3.64309">
        <ele>-15.39</ele>
        <time>2019-07-14T12:09:56Z</time>
      </trkpt>
      <trkpt lat="47.81464" lon="-3.6431">
        <ele>-14.99</ele>
        <time>2019-07-14T12:09:57Z</time>
      </trkpt>
      <trkpt lat="47.81458" lon="-3.64312">
        <ele>-14.02</ele>
        <time>2019-07-14T12:09:58Z</time>
      </trkpt>
      <trkpt lat="47.81452" lon="-3.64312">
        <ele>-13.95</ele>
        <time>2019-07-14T12:09:59Z</time>
      </trkpt>
      <trkpt lat="47.81447" lon="-3.64314">
        <ele>-13.57</ele>
        <time>2019-07-14T12:10:00Z</time>
      </trkpt>
      <trkpt lat="47.81442" lon="-3.64314">
        <ele>-12.97</ele>
        <time>2019-07-14T12:10:01Z</time>
      </trkpt>
      <trkpt lat="47.81437" lon="-3.64315">
        <ele>-12.86</ele>
        <time>2019-07-14T12:10:02Z</time>
      </trkpt>
      <trkpt lat="47.81432" lon="-3.64317">
        <ele>-12.34</ele>
        <time>2019-07-14T12:10:03Z</time>
      </trkpt>
      <trkpt lat="47.81428" lon="-3.64319">
        <ele>-11.76</ele>
        <time>2019-07-14T12:10:04Z</time>
      </trkpt>
      <trkpt lat="47.81423" lon="-3.6432">
        <ele>-10.96</ele>
        <time>2019-07-14T12:10:05Z</time>
      </trkpt>
      <trkpt lat="47.81419" lon="-3.64322">
        <ele>-10.51</ele>
        <time>2019-07-14T12:10:06Z</time>
      </trkpt>
      <trkpt lat="47.81414" lon="-3.64325">
        <ele>-10.16</ele>
        <time>2019-07-14T12:10:07Z</time>
      </trkpt>
      <trkpt lat="47.81409" lon="-3.64328">
        <ele>-9.85</ele>
        <time>2019-07-14T12:10:08Z</time>
      </trkpt>
      <trkpt lat="47.81403" lon="-3.64332">
        <ele>-9.26</ele>
        <time>2019-07-14T12:10:09Z</time>
      </trkpt>
      <trkpt lat="47.81399" lon="-3.64337">
        <ele>-9.09</ele>
        <time>2019-07-14T12:10:10Z</time>
      </trkpt>
      <trkpt lat="47.81394" lon="-3.64342">
        <ele>-7.91</ele>
        <time>2019-07-14T12:10:11Z</time>
      </trkpt>
      <trkpt lat="47.8139" lon="-3.64347">
        <ele>-8.47</ele>
        <time>2019-07-14T12:10:12Z</time>
      </trkpt>
      <trkpt lat="47.81385" lon="-3.6435">
        <ele>-9.55</ele>
        <time>2019-07-14T12:10:13Z</time>
      </trkpt>
      <trkpt lat="47.81381" lon="-3.64351">
        <ele>-11.83</ele>
        <time>2019-07-14T12:10:14Z</time>
      </trkpt>
      <trkpt lat="47.81373" lon="-3.64353">
        <ele>-12.84</ele>
        <time>2019-07-14T12:10:16Z</time>
      </trkpt>
      <trkpt lat="47.81367" lon="-3.64349">
        <ele>-11.36</ele>
        <time>2019-07-14T12:10:18Z</time>
      </trkpt>
      <trkpt lat="47.81364" lon="-3.64343">
        <ele>-10.72</ele>
        <time>2019-07-14T12:10:20Z</time>
      </trkpt>
      <trkpt lat="47.81359" lon="-3.64335">
        <ele>-10.08</ele>
        <time>2019-07-14T12:10:22Z</time>
      </trkpt>
      <trkpt lat="47.81352" lon="-3.6433">
        <ele>-9.51</ele>
        <time>2019-07-14T12:10:24Z</time>
      </trkpt>
      <trkpt lat="47.81346" lon="-3.64321">
        <ele>-9.05</ele>
        <time>2019-07-14T12:10:26Z</time>
      </trkpt>
      <trkpt lat="47.81341" lon="-3.6431">
        <ele>-7.96</ele>
        <time>2019-07-14T12:10:28Z</time>
      </trkpt>
      <trkpt lat="47.81339" lon="-3.64304">
        <ele>-7.51</ele>
        <time>2019-07-14T12:10:29Z</time>
      </trkpt>
      <trkpt lat="47.81336" lon="-3.64298">
        <ele>-7.51</ele>
        <time>2019-07-14T12:10:30Z</time>
      </trkpt>
      <trkpt lat="47.81333" lon="-3.64292">
        <ele>-7.3</ele>
        <time>2019-07-14T12:10:31Z</time>
      </trkpt>
      <trkpt lat="47.8133" lon="-3.64287">
        <ele>-7.1</ele>
        <time>2019-07-14T12:10:32Z</time>
      </trkpt>
      <trkpt lat="47.81327" lon="-3.64281">
        <ele>-6.48</ele>
        <time>2019-07-14T12:10:33Z</time>
      </trkpt>
      <trkpt lat="47.81325" lon="-3.64275">
        <ele>-5.94</ele>
        <time>2019-07-14T12:10:34Z</time>
      </trkpt>
      <trkpt lat="47.81322" lon="-3.64269">
        <ele>-5.5</ele>
        <time>2019-07-14T12:10:35Z</time>
      </trkpt>
      <trkpt lat="47.8132" lon="-3.64263">
        <ele>-5.23</ele>
        <time>2019-07-14T12:10:36Z</time>
      </trkpt>
      <trkpt lat="47.81317" lon="-3.64256">
        <ele>-4.94</ele>
        <time>2019-07-14T12:10:37Z</time>
      </trkpt>
      <trkpt lat="47.81314" lon="-3.6425">
        <ele>-5.2</ele>
        <time>2019-07-14T12:10:38Z</time>
      </trkpt>
      <trkpt lat="47.81311" lon="-3.64244">
        <ele>-5.42</ele>
        <time>2019-07-14T12:10:39Z</time>
      </trkpt>
      <trkpt lat="47.81309" lon="-3.64238">
        <ele>-5.27</ele>
        <time>2019-07-14T12:10:40Z</time>
      </trkpt>
      <trkpt lat="47.81307" lon="-3.64231">
        <ele>-5.37</ele>
        <time>2019-07-14T12:10:41Z</time>
      </trkpt>
      <trkpt lat="47.81304" lon="-3.64225">
        <ele>-5.75</ele>
        <time>2019-07-14T12:10:42Z</time>
      </trkpt>
      <trkpt lat="47.81302" lon="-3.64218">
        <ele>-5.93</ele>
        <time>2019-07-14T12:10:43Z</time>
      </trkpt>
      <trkpt lat="47.813" lon="-3.64212">
        <ele>-6.13</ele>
        <time>2019-07-14T12:10:44Z</time>
      </trkpt>
      <trkpt lat="47.81298" lon="-3.64206">
        <ele>-6.19</ele>
        <time>2019-07-14T12:10:45Z</time>
      </trkpt>
      <trkpt lat="47.81296" lon="-3.64199">
        <ele>-6.41</ele>
        <time>2019-07-14T12:10:46Z</time>
      </trkpt>
      <trkpt lat="47.81294" lon="-3.64192">
        <ele>-6.55</ele>
        <time>2019-07-14T12:10:47Z</time>
      </trkpt>
      <trkpt lat="47.81292" lon="-3.64186">
        <ele>-6.59</ele>
        <time>2019-07-14T12:10:48Z</time>
      </trkpt>
      <trkpt lat="47.81289" lon="-3.64179">
        <ele>-7.45</ele>
        <time>2019-07-14T12:10:49Z</time>
      </trkpt>
      <trkpt lat="47.81287" lon="-3.64172">
        <ele>-7.84</ele>
        <time>2019-07-14T12:10:50Z</time>
      </trkpt>
      <trkpt lat="47.81285" lon="-3.64165">
        <ele>-8.17</ele>
        <time>2019-07-14T12:10:51Z</time>
      </trkpt>
      <trkpt lat="47.81283" lon="-3.64158">
        <ele>-8.41</ele>
        <time>2019-07-14T12:10:52Z</time>
      </trkpt>
      <trkpt lat="47.81281" lon="-3.64151">
        <ele>-8.41</ele>
        <time>2019-07-14T12:10:53Z</time>
      </trkpt>
      <trkpt lat="47.81279" lon="-3.64144">
        <ele>-8.69</ele>
        <time>2019-07-14T12:10:54Z</time>
      </trkpt>
      <trkpt lat="47.81278" lon="-3.64137">
        <ele>-8.71</ele>
        <time>2019-07-14T12:10:55Z</time>
      </trkpt>
      <trkpt lat="47.81276" lon="-3.64129">
        <ele>-8.71</ele>
        <time>2019-07-14T12:10:56Z</time>
      </trkpt>
      <trkpt lat="47.81275" lon="-3.64121">
        <ele>-8.71</ele>
        <time>2019-07-14T12:10:57Z</time>
      </trkpt>
      <trkpt lat="47.81274" lon="-3.64114">
        <ele>-8.43</ele>
        <time>2019-07-14T12:10:58Z</time>
      </trkpt>
      <trkpt lat="47.81272" lon="-3.64107">
        <ele>-8.28</ele>
        <time>2019-07-14T12:10:59Z</time>
      </trkpt>
      <trkpt lat="47.81271" lon="-3.64099">
        <ele>-8.23</ele>
        <time>2019-07-14T12:11:00Z</time>
      </trkpt>
      <trkpt lat="47.8127" lon="-3.64092">
        <ele>-8.57</ele>
        <time>2019-07-14T12:11:01Z</time>
      </trkpt>
      <trkpt lat="47.81269" lon="-3.64084">
        <ele>-8.95</ele>
        <time>2019-07-14T12:11:02Z</time>
      </trkpt>
      <trkpt lat="47.81268" lon="-3.64077">
        <ele>-9.27</ele>
        <time>2019-07-14T12:11:03Z</time>
      </trkpt>
      <trkpt lat="47.81267" lon="-3.64069">
        <ele>-9.37</ele>
        <time>2019-07-14T12:11:04Z</time>
      </trkpt>
      <trkpt lat="47.81267" lon="-3.64062">
        <ele>-9.75</ele>
        <time>2019-07-14T12:11:05Z</time>
      </trkpt>
      <trkpt lat="47.81266" lon="-3.64054">
        <ele>-9.93</ele>
        <time>2019-07-14T12:11:06Z</time>
      </trkpt>
      <trkpt lat="47.81265" lon="-3.64046">
        <ele>-10.27</ele>
        <time>2019-07-14T12:11:07Z</time>
      </trkpt>
      <trkpt lat="47.81265" lon="-3.64039">
        <ele>-10.65</ele>
        <time>2019-07-14T12:11:08Z</time>
      </trkpt>
      <trkpt lat="47.81264" lon="-3.64032">
        <ele>-10.69</ele>
        <time>2019-07-14T12:11:09Z</time>
      </trkpt>
      <trkpt lat="47.81264" lon="-3.64025">
        <ele>-10.64</ele>
        <time>2019-07-14T12:11:10Z</time>
      </trkpt>
      <trkpt lat="47.81265" lon="-3.64018">
        <ele>-10.48</ele>
        <time>2019-07-14T12:11:11Z</time>
      </trkpt>
      <trkpt lat="47.81265" lon="-3.64011">
        <ele>-10.15</ele>
        <time>2019-07-14T12:11:12Z</time>
      </trkpt>
      <trkpt lat="47.81266" lon="-3.64003">
        <ele>-9.84</ele>
        <time>2019-07-14T12:11:13Z</time>
      </trkpt>
      <trkpt lat="47.81267" lon="-3.63996">
        <ele>-9.75</ele>
        <time>2019-07-14T12:11:14Z</time>
      </trkpt>
      <trkpt lat="47.81267" lon="-3.63988">
        <ele>-9.3</ele>
        <time>2019-07-14T12:11:15Z</time>
      </trkpt>
      <trkpt lat="47.81267" lon="-3.63981">
        <ele>-8.82</ele>
        <time>2019-07-14T12:11:16Z</time>
      </trkpt>
      <trkpt lat="47.81267" lon="-3.63974">
        <ele>-8.46</ele>
        <time>2019-07-14T12:11:17Z</time>
      </trkpt>
      <trkpt lat="47.81268" lon="-3.63966">
        <ele>-8.08</ele>
        <time>2019-07-14T12:11:18Z</time>
      </trkpt>
      <trkpt lat="47.81268" lon="-3.63959">
        <ele>-7.61</ele>
        <time>2019-07-14T12:11:19Z</time>
      </trkpt>
      <trkpt lat="47.81269" lon="-3.63951">
        <ele>-7.05</ele>
        <time>2019-07-14T12:11:20Z</time>
      </trkpt>
      <trkpt lat="47.8127" lon="-3.63943">
        <ele>-6.32</ele>
        <time>2019-07-14T12:11:21Z</time>
      </trkpt>
      <trkpt lat="47.81271" lon="-3.63936">
        <ele>-5.48</ele>
        <time>2019-07-14T12:11:22Z</time>
      </trkpt>
      <trkpt lat="47.81271" lon="-3.63928">
        <ele>-4.59</ele>
        <time>2019-07-14T12:11:23Z</time>
      </trkpt>
      <trkpt lat="47.81272" lon="-3.63921">
        <ele>-3.42</ele>
        <time>2019-07-14T12:11:24Z</time>
      </trkpt>
      <trkpt lat="47.81273" lon="-3.63914">
        <ele>-2.5</ele>
        <time>2019-07-14T12:11:25Z</time>
      </trkpt>
      <trkpt lat="47.81275" lon="-3.63907">
        <ele>-2.3</ele>
        <time>2019-07-14T12:11:26Z</time>
      </trkpt>
      <trkpt lat="47.81276" lon="-3.639">
        <ele>-2.24</ele>
        <time>2019-07-14T12:11:27Z</time>
      </trkpt>
      <trkpt lat="47.81278" lon="-3.63892">
        <ele>-2.29</ele>
        <time>2019-07-14T12:11:28Z</time>
      </trkpt>
      <trkpt lat="47.81279" lon="-3.63885">
        <ele>-2.38</ele>
        <time>2019-07-14T12:11:29Z</time>
      </trkpt>
      <trkpt lat="47.8128" lon="-3.63878">
        <ele>-2.4</ele>
        <time>2019-07-14T12:11:30Z</time>
      </trkpt>
      <trkpt lat="47.81282" lon="-3.63871">
        <ele>-2.41</ele>
        <time>2019-07-14T12:11:31Z</time>
      </trkpt>
      <trkpt lat="47.81284" lon="-3.63864">
        <ele>-2.34</ele>
        <time>2019-07-14T12:11:32Z</time>
      </trkpt>
      <trkpt lat="47.81286" lon="-3.63857">
        <ele>-2.46</ele>
        <time>2019-07-14T12:11:33Z</time>
      </trkpt>
      <trkpt lat="47.81288" lon="-3.6385">
        <ele>-2.5</ele>
        <time>2019-07-14T12:11:34Z</time>
      </trkpt>
      <trkpt lat="47.81289" lon="-3.63843">
        <ele>-2.23</ele>
        <time>2019-07-14T12:11:35Z</time>
      </trkpt>
      <trkpt lat="47.81291" lon="-3.63836">
        <ele>-1.94</ele>
        <time>2019-07-14T12:11:36Z</time>
      </trkpt>
      <trkpt lat="47.81292" lon="-3.63829">
        <ele>-1.71</ele>
        <time>2019-07-14T12:11:37Z</time>
      </trkpt>
      <trkpt lat="47.81294" lon="-3.63823">
        <ele>-1.71</ele>
        <time>2019-07-14T12:11:38Z</time>
      </trkpt>
      <trkpt lat="47.81295" lon="-3.63815">
        <ele>-1.71</ele>
        <time>2019-07-14T12:11:39Z</time>
      </trkpt>
      <trkpt lat="47.81297" lon="-3.63808">
        <ele>-1.57</ele>
        <time>2019-07-14T12:11:40Z</time>
      </trkpt>
      <trkpt lat="47.81298" lon="-3.638">
        <ele>-1.25</ele>
        <time>2019-07-14T12:11:41Z</time>
      </trkpt>
      <trkpt lat="47.81299" lon="-3.63792">
        <ele>-0.87</ele>
        <time>2019-07-14T12:11:42Z</time>
      </trkpt>
      <trkpt lat="47.81301" lon="-3.63785">
        <ele>-0.83</ele>
        <time>2019-07-14T12:11:43Z</time>
      </trkpt>
      <trkpt lat="47.81303" lon="-3.63777">
        <ele>-0.89</ele>
        <time>2019-07-14T12:11:44Z</time>
      </trkpt>
      <trkpt lat="47.81305" lon="-3.63769">
        <ele>-0.9</ele>
        <time>2019-07-14T12:11:45Z</time>
      </trkpt>
      <trkpt lat="47.81307" lon="-3.6376">
        <ele>-0.98</ele>
        <time>2019-07-14T12:11:46Z</time>
      </trkpt>
      <trkpt lat="47.81309" lon="-3.63753">
        <ele>-1.07</ele>
        <time>2019-07-14T12:11:47Z</time>
      </trkpt>
      <trkpt lat="47.81311" lon="-3.63744">
        <ele>-1.17</ele>
        <time>2019-07-14T12:11:48Z</time>
      </trkpt>
      <trkpt lat="47.81313" lon="-3.63736">
        <ele>-1.41</ele>
        <time>2019-07-14T12:11:49Z</time>
      </trkpt>
      <trkpt lat="47.81315" lon="-3.63728">
        <ele>-1.34</ele>
        <time>2019-07-14T12:11:50Z</time>
      </trkpt>
      <trkpt lat="47.81317" lon="-3.6372">
        <ele>-1.25</ele>
        <time>2019-07-14T12:11:51Z</time>
      </trkpt>
      <trkpt lat="47.81319" lon="-3.63711">
        <ele>-1.29</ele>
        <time>2019-07-14T12:11:52Z</time>
      </trkpt>
      <trkpt lat="47.8132" lon="-3.63702">
        <ele>-1.17</ele>
        <time>2019-07-14T12:11:53Z</time>
      </trkpt>
      <trkpt lat="47.81322" lon="-3.63694">
        <ele>-1.06</ele>
        <time>2019-07-14T12:11:54Z</time>
      </trkpt>
      <trkpt lat="47.81324" lon="-3.63686">
        <ele>-0.96</ele>
        <time>2019-07-14T12:11:55Z</time>
      </trkpt>
      <trkpt lat="47.81328" lon="-3.6367">
        <ele>-0.51</ele>
        <time>2019-07-14T12:11:57Z</time>
      </trkpt>
      <trkpt lat="47.8133" lon="-3.63662">
        <ele>-0.51</ele>
        <time>2019-07-14T12:11:58Z</time>
      </trkpt>
      <trkpt lat="47.81331" lon="-3.63654">
        <ele>-0.44</ele>
        <time>2019-07-14T12:11:59Z</time>
      </trkpt>
      <trkpt lat="47.81333" lon="-3.63647">
        <ele>-0.35</ele>
        <time>2019-07-14T12:12:00Z</time>
      </trkpt>
      <trkpt lat="47.81335" lon="-3.63639">
        <ele>-0.18</ele>
        <time>2019-07-14T12:12:01Z</time>
      </trkpt>
      <trkpt lat="47.81337" lon="-3.63631">
        <ele>-0.2</ele>
        <time>2019-07-14T12:12:02Z</time>
      </trkpt>
      <trkpt lat="47.81338" lon="-3.63623">
        <ele>-0.35</ele>
        <time>2019-07-14T12:12:03Z</time>
      </trkpt>
      <trkpt lat="47.8134" lon="-3.63615">
        <ele>-0.46</ele>
        <time>2019-07-14T12:12:04Z</time>
      </trkpt>
      <trkpt lat="47.81341" lon="-3.63606">
        <ele>-0.64</ele>
        <time>2019-07-14T12:12:05Z</time>
      </trkpt>
      <trkpt lat="47.81343" lon="-3.63598">
        <ele>-0.9</ele>
        <time>2019-07-14T12:12:06Z</time>
      </trkpt>
      <trkpt lat="47.81345" lon="-3.63589">
        <ele>-1.19</ele>
        <time>2019-07-14T12:12:07Z</time>
      </trkpt>
      <trkpt lat="47.81347" lon="-3.63581">
        <ele>-1.55</ele>
        <time>2019-07-14T12:12:08Z</time>
      </trkpt>
      <trkpt lat="47.81349" lon="-3.63572">
        <ele>-2.15</ele>
        <time>2019-07-14T12:12:09Z</time>
      </trkpt>
      <trkpt lat="47.81351" lon="-3.63564">
        <ele>-2.82</ele>
        <time>2019-07-14T12:12:10Z</time>
      </trkpt>
      <trkpt lat="47.81352" lon="-3.63555">
        <ele>-3.24</ele>
        <time>2019-07-14T12:12:11Z</time>
      </trkpt>
      <trkpt lat="47.81354" lon="-3.63546">
        <ele>-3.64</ele>
        <time>2019-07-14T12:12:12Z</time>
      </trkpt>
      <trkpt lat="47.81355" lon="-3.63538">
        <ele>-4.18</ele>
        <time>2019-07-14T12:12:13Z</time>
      </trkpt>
      <trkpt lat="47.81357" lon="-3.6353">
        <ele>-4.62</ele>
        <time>2019-07-14T12:12:14Z</time>
      </trkpt>
      <trkpt lat="47.81358" lon="-3.63521">
        <ele>-4.76</ele>
        <time>2019-07-14T12:12:15Z</time>
      </trkpt>
      <trkpt lat="47.81359" lon="-3.63512">
        <ele>-4.65</ele>
        <time>2019-07-14T12:12:16Z</time>
      </trkpt>
      <trkpt lat="47.8136" lon="-3.63504">
        <ele>-4.41</ele>
        <time>2019-07-14T12:12:17Z</time>
      </trkpt>
      <trkpt lat="47.81362" lon="-3.63495">
        <ele>-4.27</ele>
        <time>2019-07-14T12:12:18Z</time>
      </trkpt>
      <trkpt lat="47.81363" lon="-3.63487">
        <ele>-4.37</ele>
        <time>2019-07-14T12:12:19Z</time>
      </trkpt>
      <trkpt lat="47.81364" lon="-3.63478">
        <ele>-4.54</ele>
        <time>2019-07-14T12:12:20Z</time>
      </trkpt>
      <trkpt lat="47.81365" lon="-3.63469">
        <ele>-4.66</ele>
        <time>2019-07-14T12:12:21Z</time>
      </trkpt>
      <trkpt lat="47.81366" lon="-3.63461">
        <ele>-4.56</ele>
        <time>2019-07-14T12:12:22Z</time>
      </trkpt>
      <trkpt lat="47.81367" lon="-3.63452">
        <ele>-4.53</ele>
        <time>2019-07-14T12:12:23Z</time>
      </trkpt>
      <trkpt lat="47.81367" lon="-3.63443">
        <ele>-4.45</ele>
        <time>2019-07-14T12:12:24Z</time>
      </trkpt>
      <trkpt lat="47.81368" lon="-3.63435">
        <ele>-4.35</ele>
        <time>2019-07-14T12:12:25Z</time>
      </trkpt>
      <trkpt lat="47.81369" lon="-3.63425">
        <ele>-4.39</ele>
        <time>2019-07-14T12:12:26Z</time>
      </trkpt>
      <trkpt lat="47.8137" lon="-3.63416">
        <ele>-4.34</ele>
        <time>2019-07-14T12:12:27Z</time>
      </trkpt>
      <trkpt lat="47.81372" lon="-3.63407">
        <ele>-4.11</ele>
        <time>2019-07-14T12:12:28Z</time>
      </trkpt>
      <trkpt lat="47.81373" lon="-3.63397">
        <ele>-4.04</ele>
        <time>2019-07-14T12:12:29Z</time>
      </trkpt>
      <trkpt lat="47.81374" lon="-3.63388">
        <ele>-3.95</ele>
        <time>2019-07-14T12:12:30Z</time>
      </trkpt>
      <trkpt lat="47.81375" lon="-3.63379">
        <ele>-3.64</ele>
        <time>2019-07-14T12:12:31Z</time>
      </trkpt>
      <trkpt lat="47.81376" lon="-3.6337">
        <ele>-3.41</ele>
        <time>2019-07-14T12:12:32Z</time>
      </trkpt>
      <trkpt lat="47.81377" lon="-3.63362">
        <ele>-3.34</ele>
        <time>2019-07-14T12:12:33Z</time>
      </trkpt>
      <trkpt lat="47.81378" lon="-3.63353">
        <ele>-3.18</ele>
        <time>2019-07-14T12:12:34Z</time>
      </trkpt>
      <trkpt lat="47.8138" lon="-3.63344">
        <ele>-2.92</ele>
        <time>2019-07-14T12:12:35Z</time>
      </trkpt>
      <trkpt lat="47.81381" lon="-3.63335">
        <ele>-2.71</ele>
        <time>2019-07-14T12:12:36Z</time>
      </trkpt>
      <trkpt lat="47.81382" lon="-3.63327">
        <ele>-2.71</ele>
        <time>2019-07-14T12:12:37Z</time>
      </trkpt>
      <trkpt lat="47.81383" lon="-3.63318">
        <ele>-2.57</ele>
        <time>2019-07-14T12:12:38Z</time>
      </trkpt>
      <trkpt lat="47.81384" lon="-3.63309">
        <ele>-2.67</ele>
        <time>2019-07-14T12:12:39Z</time>
      </trkpt>
      <trkpt lat="47.81384" lon="-3.63301">
        <ele>-3.05</ele>
        <time>2019-07-14T12:12:40Z</time>
      </trkpt>
      <trkpt lat="47.81386" lon="-3.63292">
        <ele>-3.02</ele>
        <time>2019-07-14T12:12:41Z</time>
      </trkpt>
      <trkpt lat="47.81386" lon="-3.63284">
        <ele>-2.88</ele>
        <time>2019-07-14T12:12:42Z</time>
      </trkpt>
      <trkpt lat="47.81388" lon="-3.63276">
        <ele>-2.62</ele>
        <time>2019-07-14T12:12:43Z</time>
      </trkpt>
      <trkpt lat="47.81389" lon="-3.63268">
        <ele>-2.26</ele>
        <time>2019-07-14T12:12:44Z</time>
      </trkpt>
      <trkpt lat="47.8139" lon="-3.63259">
        <ele>-2.3</ele>
        <time>2019-07-14T12:12:45Z</time>
      </trkpt>
      <trkpt lat="47.81391" lon="-3.63251">
        <ele>-2.03</ele>
        <time>2019-07-14T12:12:46Z</time>
      </trkpt>
      <trkpt lat="47.81393" lon="-3.63242">
        <ele>-1.81</ele>
        <time>2019-07-14T12:12:47Z</time>
      </trkpt>
      <trkpt lat="47.81393" lon="-3.63234">
        <ele>-1.46</ele>
        <time>2019-07-14T12:12:48Z</time>
      </trkpt>
      <trkpt lat="47.81395" lon="-3.63225">
        <ele>-1.08</ele>
        <time>2019-07-14T12:12:49Z</time>
      </trkpt>
      <trkpt lat="47.81396" lon="-3.63217">
        <ele>-0.54</ele>
        <time>2019-07-14T12:12:50Z</time>
      </trkpt>
      <trkpt lat="47.81397" lon="-3.63209">
        <ele>-0.38</ele>
        <time>2019-07-14T12:12:51Z</time>
      </trkpt>
      <trkpt lat="47.81399" lon="-3.63201">
        <ele>-0.4</ele>
        <time>2019-07-14T12:12:52Z</time>
      </trkpt>
      <trkpt lat="47.814" lon="-3.63193">
        <ele>-0.48</ele>
        <time>2019-07-14T12:12:53Z</time>
      </trkpt>
      <trkpt lat="47.81401" lon="-3.63185">
        <ele>-0.92</ele>
        <time>2019-07-14T12:12:54Z</time>
      </trkpt>
      <trkpt lat="47.81402" lon="-3.63177">
        <ele>-0.99</ele>
        <time>2019-07-14T12:12:55Z</time>
      </trkpt>
      <trkpt lat="47.81403" lon="-3.63169">
        <ele>-0.79</ele>
        <time>2019-07-14T12:12:56Z</time>
      </trkpt>
      <trkpt lat="47.81404" lon="-3.63162">
        <ele>-0.39</ele>
        <time>2019-07-14T12:12:57Z</time>
      </trkpt>
      <trkpt lat="47.81405" lon="-3.63154">
        <ele>0.02</ele>
        <time>2019-07-14T12:12:58Z</time>
      </trkpt>
      <trkpt lat="47.81406" lon="-3.63146">
        <ele>0.14</ele>
        <time>2019-07-14T12:12:59Z</time>
      </trkpt>
      <trkpt lat="47.81406" lon="-3.63138">
        <ele>-0.04</ele>
        <time>2019-07-14T12:13:00Z</time>
      </trkpt>
      <trkpt lat="47.81407" lon="-3.63129">
        <ele>0.12</ele>
        <time>2019-07-14T12:13:01Z</time>
      </trkpt>
      <trkpt lat="47.81406" lon="-3.6312">
        <ele>0.31</ele>
        <time>2019-07-14T12:13:02Z</time>
      </trkpt>
      <trkpt lat="47.81405" lon="-3.63112">
        <ele>0.64</ele>
        <time>2019-07-14T12:13:03Z</time>
      </trkpt>
      <trkpt lat="47.81404" lon="-3.63104">
        <ele>0.88</ele>
        <time>2019-07-14T12:13:04Z</time>
      </trkpt>
      <trkpt lat="47.81402" lon="-3.63096">
        <ele>0.82</ele>
        <time>2019-07-14T12:13:05Z</time>
      </trkpt>
      <trkpt lat="47.814" lon="-3.63088">
        <ele>0.87</ele>
        <time>2019-07-14T12:13:06Z</time>
      </trkpt>
      <trkpt lat="47.81398" lon="-3.6308">
        <ele>0.6</ele>
        <time>2019-07-14T12:13:07Z</time>
      </trkpt>
      <trkpt lat="47.81395" lon="-3.63072">
        <ele>0.24</ele>
        <time>2019-07-14T12:13:08Z</time>
      </trkpt>
      <trkpt lat="47.81392" lon="-3.63064">
        <ele>0.06</ele>
        <time>2019-07-14T12:13:09Z</time>
      </trkpt>
      <trkpt lat="47.81389" lon="-3.63056">
        <ele>-0.13</ele>
        <time>2019-07-14T12:13:10Z</time>
      </trkpt>
      <trkpt lat="47.81386" lon="-3.63048">
        <ele>-0.26</ele>
        <time>2019-07-14T12:13:11Z</time>
      </trkpt>
      <trkpt lat="47.81383" lon="-3.63041">
        <ele>-0.3</ele>
        <time>2019-07-14T12:13:12Z</time>
      </trkpt>
      <trkpt lat="47.8138" lon="-3.63032">
        <ele>-0.24</ele>
        <time>2019-07-14T12:13:13Z</time>
      </trkpt>
      <trkpt lat="47.81377" lon="-3.63024">
        <ele>-0.15</ele>
        <time>2019-07-14T12:13:14Z</time>
      </trkpt>
      <trkpt lat="47.81374" lon="-3.63015">
        <ele>-0.19</ele>
        <time>2019-07-14T12:13:15Z</time>
      </trkpt>
      <trkpt lat="47.81371" lon="-3.63008">
        <ele>-0.35</ele>
        <time>2019-07-14T12:13:16Z</time>
      </trkpt>
      <trkpt lat="47.81369" lon="-3.63">
        <ele>-0.67</ele>
        <time>2019-07-14T12:13:17Z</time>
      </trkpt>
      <trkpt lat="47.81366" lon="-3.62992">
        <ele>-0.77</ele>
        <time>2019-07-14T12:13:18Z</time>
      </trkpt>
      <trkpt lat="47.81363" lon="-3.62985">
        <ele>-1.22</ele>
        <time>2019-07-14T12:13:19Z</time>
      </trkpt>
      <trkpt lat="47.8136" lon="-3.62977">
        <ele>-1.49</ele>
        <time>2019-07-14T12:13:20Z</time>
      </trkpt>
      <trkpt lat="47.81359" lon="-3.6297">
        <ele>-1.65</ele>
        <time>2019-07-14T12:13:21Z</time>
      </trkpt>
      <trkpt lat="47.81358" lon="-3.62963">
        <ele>-2.11</ele>
        <time>2019-07-14T12:13:22Z</time>
      </trkpt>
      <trkpt lat="47.81358" lon="-3.62956">
        <ele>-2.53</ele>
        <time>2019-07-14T12:13:23Z</time>
      </trkpt>
      <trkpt lat="47.8136" lon="-3.62949">
        <ele>-2.17</ele>
        <time>2019-07-14T12:13:24Z</time>
      </trkpt>
      <trkpt lat="47.81363" lon="-3.62943">
        <ele>-1.36</ele>
        <time>2019-07-14T12:13:25Z</time>
      </trkpt>
      <trkpt lat="47.81367" lon="-3.62938">
        <ele>-0.42</ele>
        <time>2019-07-14T12:13:26Z</time>
      </trkpt>
      <trkpt lat="47.81371" lon="-3.62933">
        <ele>0.22</ele>
        <time>2019-07-14T12:13:27Z</time>
      </trkpt>
      <trkpt lat="47.81375" lon="-3.62929">
        <ele>0.69</ele>
        <time>2019-07-14T12:13:28Z</time>
      </trkpt>
      <trkpt lat="47.81378" lon="-3.62924">
        <ele>1.25</ele>
        <time>2019-07-14T12:13:29Z</time>
      </trkpt>
      <trkpt lat="47.81382" lon="-3.62914">
        <ele>1.47</ele>
        <time>2019-07-14T12:13:31Z</time>
      </trkpt>
      <trkpt lat="47.81386" lon="-3.62902">
        <ele>2.32</ele>
        <time>2019-07-14T12:13:33Z</time>
      </trkpt>
      <trkpt lat="47.8139" lon="-3.62889">
        <ele>2.16</ele>
        <time>2019-07-14T12:13:35Z</time>
      </trkpt>
      <trkpt lat="47.81392" lon="-3.62881">
        <ele>2.81</ele>
        <time>2019-07-14T12:13:36Z</time>
      </trkpt>
      <trkpt lat="47.81393" lon="-3.62874">
        <ele>3.14</ele>
        <time>2019-07-14T12:13:37Z</time>
      </trkpt>
      <trkpt lat="47.81395" lon="-3.62867">
        <ele>3.17</ele>
        <time>2019-07-14T12:13:38Z</time>
      </trkpt>
      <trkpt lat="47.81397" lon="-3.6286">
        <ele>3.04</ele>
        <time>2019-07-14T12:13:39Z</time>
      </trkpt>
      <trkpt lat="47.81398" lon="-3.62853">
        <ele>3.28</ele>
        <time>2019-07-14T12:13:40Z</time>
      </trkpt>
      <trkpt lat="47.81395" lon="-3.62843">
        <ele>3.83</ele>
        <time>2019-07-14T12:13:42Z</time>
      </trkpt>
      <trkpt lat="47.81391" lon="-3.62839">
        <ele>4.15</ele>
        <time>2019-07-14T12:13:43Z</time>
      </trkpt>
      <trkpt lat="47.81386" lon="-3.62835">
        <ele>4.74</ele>
        <time>2019-07-14T12:13:44Z</time>
      </trkpt>
      <trkpt lat="47.81381" lon="-3.62829">
        <ele>4.98</ele>
        <time>2019-07-14T12:13:45Z</time>
      </trkpt>
      <trkpt lat="47.81376" lon="-3.62824">
        <ele>5.41</ele>
        <time>2019-07-14T12:13:46Z</time>
      </trkpt>
      <trkpt lat="47.81372" lon="-3.6282">
        <ele>5.81</ele>
        <time>2019-07-14T12:13:47Z</time>
      </trkpt>
      <trkpt lat="47.81367" lon="-3.62815">
        <ele>5.8</ele>
        <time>2019-07-14T12:13:48Z</time>
      </trkpt>
      <trkpt lat="47.81363" lon="-3.62809">
        <ele>5.16</ele>
        <time>2019-07-14T12:13:49Z</time>
      </trkpt>
      <trkpt lat="47.81358" lon="-3.62804">
        <ele>4.06</ele>
        <time>2019-07-14T12:13:50Z</time>
      </trkpt>
      <trkpt lat="47.81353" lon="-3.62798">
        <ele>3.03</ele>
        <time>2019-07-14T12:13:51Z</time>
      </trkpt>
      <trkpt lat="47.81348" lon="-3.62792">
        <ele>2.3</ele>
        <time>2019-07-14T12:13:52Z</time>
      </trkpt>
      <trkpt lat="47.81343" lon="-3.62786">
        <ele>1.66</ele>
        <time>2019-07-14T12:13:53Z</time>
      </trkpt>
      <trkpt lat="47.81338" lon="-3.6278">
        <ele>0.98</ele>
        <time>2019-07-14T12:13:54Z</time>
      </trkpt>
      <trkpt lat="47.81334" lon="-3.62773">
        <ele>0.43</ele>
        <time>2019-07-14T12:13:55Z</time>
      </trkpt>
      <trkpt lat="47.81328" lon="-3.62768">
        <ele>-0.58</ele>
        <time>2019-07-14T12:13:56Z</time>
      </trkpt>
      <trkpt lat="47.81323" lon="-3.62762">
        <ele>-1.09</ele>
        <time>2019-07-14T12:13:57Z</time>
      </trkpt>
      <trkpt lat="47.81319" lon="-3.62757">
        <ele>-2.09</ele>
        <time>2019-07-14T12:13:58Z</time>
      </trkpt>
      <trkpt lat="47.81315" lon="-3.62752">
        <ele>-2.73</ele>
        <time>2019-07-14T12:13:59Z</time>
      </trkpt>
      <trkpt lat="47.8131" lon="-3.62743">
        <ele>-3.91</ele>
        <time>2019-07-14T12:14:01Z</time>
      </trkpt>
      <trkpt lat="47.81303" lon="-3.62737">
        <ele>-4.71</ele>
        <time>2019-07-14T12:14:03Z</time>
      </trkpt>
      <trkpt lat="47.81297" lon="-3.62731">
        <ele>-4.91</ele>
        <time>2019-07-14T12:14:05Z</time>
      </trkpt>
      <trkpt lat="47.81297" lon="-3.62721">
        <ele>-5.42</ele>
        <time>2019-07-14T12:14:07Z</time>
      </trkpt>
      <trkpt lat="47.81302" lon="-3.62711">
        <ele>-5.09</ele>
        <time>2019-07-14T12:14:09Z</time>
      </trkpt>
      <trkpt lat="47.81307" lon="-3.627">
        <ele>-4.59</ele>
        <time>2019-07-14T12:14:11Z</time>
      </trkpt>
      <trkpt lat="47.81307" lon="-3.62689">
        <ele>-4.71</ele>
        <time>2019-07-14T12:14:13Z</time>
      </trkpt>
      <trkpt lat="47.81299" lon="-3.62682">
        <ele>-4.82</ele>
        <time>2019-07-14T12:14:15Z</time>
      </trkpt>
      <trkpt lat="47.81295" lon="-3.62679">
        <ele>-4.68</ele>
        <time>2019-07-14T12:14:16Z</time>
      </trkpt>
      <trkpt lat="47.8129" lon="-3.62674">
        <ele>-4.28</ele>
        <time>2019-07-14T12:14:17Z</time>
      </trkpt>
      <trkpt lat="47.81284" lon="-3.6267">
        <ele>-4.51</ele>
        <time>2019-07-14T12:14:18Z</time>
      </trkpt>
      <trkpt lat="47.81279" lon="-3.62666">
        <ele>-4.58</ele>
        <time>2019-07-14T12:14:19Z</time>
      </trkpt>
      <trkpt lat="47.81274" lon="-3.62662">
        <ele>-4.67</ele>
        <time>2019-07-14T12:14:20Z</time>
      </trkpt>
      <trkpt lat="47.81268" lon="-3.62658">
        <ele>-4.77</ele>
        <time>2019-07-14T12:14:21Z</time>
      </trkpt>
      <trkpt lat="47.81263" lon="-3.62654">
        <ele>-4.66</ele>
        <time>2019-07-14T12:14:22Z</time>
      </trkpt>
      <trkpt lat="47.81258" lon="-3.6265">
        <ele>-4.91</ele>
        <time>2019-07-14T12:14:23Z</time>
      </trkpt>
      <trkpt lat="47.81254" lon="-3.62645">
        <ele>-5.26</ele>
        <time>2019-07-14T12:14:24Z</time>
      </trkpt>
      <trkpt lat="47.8125" lon="-3.6264">
        <ele>-5.44</ele>
        <time>2019-07-14T12:14:25Z</time>
      </trkpt>
      <trkpt lat="47.81248" lon="-3.62634">
        <ele>-5</ele>
        <time>2019-07-14T12:14:26Z</time>
      </trkpt>
      <trkpt lat="47.81246" lon="-3.62627">
        <ele>-4.66</ele>
        <time>2019-07-14T12:14:27Z</time>
      </trkpt>
      <trkpt lat="47.81245" lon="-3.6262">
        <ele>-4.35</ele>
        <time>2019-07-14T12:14:28Z</time>
      </trkpt>
      <trkpt lat="47.81246" lon="-3.62613">
        <ele>-3.76</ele>
        <time>2019-07-14T12:14:29Z</time>
      </trkpt>
      <trkpt lat="47.81248" lon="-3.62607">
        <ele>-3.03</ele>
        <time>2019-07-14T12:14:30Z</time>
      </trkpt>
      <trkpt lat="47.81252" lon="-3.626">
        <ele>-2.32</ele>
        <time>2019-07-14T12:14:31Z</time>
      </trkpt>
      <trkpt lat="47.81255" lon="-3.62595">
        <ele>-1.61</ele>
        <time>2019-07-14T12:14:32Z</time>
      </trkpt>
      <trkpt lat="47.81258" lon="-3.62589">
        <ele>-0.98</ele>
        <time>2019-07-14T12:14:33Z</time>
      </trkpt>
      <trkpt lat="47.81264" lon="-3.6258">
        <ele>-1.37</ele>
        <time>2019-07-14T12:14:35Z</time>
      </trkpt>
      <trkpt lat="47.81266" lon="-3.62575">
        <ele>-1.54</ele>
        <time>2019-07-14T12:14:36Z</time>
      </trkpt>
      <trkpt lat="47.81271" lon="-3.62562">
        <ele>-2.22</ele>
        <time>2019-07-14T12:14:38Z</time>
      </trkpt>
      <trkpt lat="47.81274" lon="-3.62557">
        <ele>-2.35</ele>
        <time>2019-07-14T12:14:39Z</time>
      </trkpt>
      <trkpt lat="47.81277" lon="-3.62551">
        <ele>-2.6</ele>
        <time>2019-07-14T12:14:40Z</time>
      </trkpt>
      <trkpt lat="47.81279" lon="-3.62545">
        <ele>-2.47</ele>
        <time>2019-07-14T12:14:41Z</time>
      </trkpt>
      <trkpt lat="47.81282" lon="-3.6254">
        <ele>-2.36</ele>
        <time>2019-07-14T12:14:42Z</time>
      </trkpt>
      <trkpt lat="47.81285" lon="-3.62534">
        <ele>-2.47</ele>
        <time>2019-07-14T12:14:43Z</time>
      </trkpt>
      <trkpt lat="47.81288" lon="-3.62529">
        <ele>-2.85</ele>
        <time>2019-07-14T12:14:44Z</time>
      </trkpt>
      <trkpt lat="47.81291" lon="-3.62523">
        <ele>-2.89</ele>
        <time>2019-07-14T12:14:45Z</time>
      </trkpt>
      <trkpt lat="47.81294" lon="-3.62517">
        <ele>-2.84</ele>
        <time>2019-07-14T12:14:46Z</time>
      </trkpt>
      <trkpt lat="47.81297" lon="-3.62511">
        <ele>-2.89</ele>
        <time>2019-07-14T12:14:47Z</time>
      </trkpt>
      <trkpt lat="47.81301" lon="-3.62504">
        <ele>-2.49</ele>
        <time>2019-07-14T12:14:48Z</time>
      </trkpt>
      <trkpt lat="47.81304" lon="-3.62498">
        <ele>-2.43</ele>
        <time>2019-07-14T12:14:49Z</time>
      </trkpt>
      <trkpt lat="47.81307" lon="-3.62492">
        <ele>-2.35</ele>
        <time>2019-07-14T12:14:50Z</time>
      </trkpt>
      <trkpt lat="47.8131" lon="-3.62485">
        <ele>-2.32</ele>
        <time>2019-07-14T12:14:51Z</time>
      </trkpt>
      <trkpt lat="47.81312" lon="-3.62478">
        <ele>-2.04</ele>
        <time>2019-07-14T12:14:52Z</time>
      </trkpt>
      <trkpt lat="47.81315" lon="-3.62472">
        <ele>-2.02</ele>
        <time>2019-07-14T12:14:53Z</time>
      </trkpt>
      <trkpt lat="47.81318" lon="-3.62465">
        <ele>-1.73</ele>
        <time>2019-07-14T12:14:54Z</time>
      </trkpt>
      <trkpt lat="47.81321" lon="-3.62459">
        <ele>-1.3</ele>
        <time>2019-07-14T12:14:55Z</time>
      </trkpt>
      <trkpt lat="47.81324" lon="-3.62452">
        <ele>-1.1</ele>
        <time>2019-07-14T12:14:56Z</time>
      </trkpt>
      <trkpt lat="47.81326" lon="-3.62445">
        <ele>-0.83</ele>
        <time>2019-07-14T12:14:57Z</time>
      </trkpt>
      <trkpt lat="47.81329" lon="-3.62438">
        <ele>-0.54</ele>
        <time>2019-07-14T12:14:58Z</time>
      </trkpt>
      <trkpt lat="47.81332" lon="-3.62431">
        <ele>-0.45</ele>
        <time>2019-07-14T12:14:59Z</time>
      </trkpt>
      <trkpt lat="47.81335" lon="-3.62424">
        <ele>-0.07</ele>
        <time>2019-07-14T12:15:00Z</time>
      </trkpt>
      <trkpt lat="47.81338" lon="-3.62417">
        <ele>-0.24</ele>
        <time>2019-07-14T12:15:01Z</time>
      </trkpt>
      <trkpt lat="47.81341" lon="-3.62411">
        <ele>-0.36</ele>
        <time>2019-07-14T12:15:02Z</time>
      </trkpt>
      <trkpt lat="47.81344" lon="-3.62404">
        <ele>-0.26</ele>
        <time>2019-07-14T12:15:03Z</time>
      </trkpt>
      <trkpt lat="47.81347" lon="-3.62397">
        <ele>0.12</ele>
        <time>2019-07-14T12:15:04Z</time>
      </trkpt>
      <trkpt lat="47.8135" lon="-3.62391">
        <ele>0.66</ele>
        <time>2019-07-14T12:15:05Z</time>
      </trkpt>
      <trkpt lat="47.81354" lon="-3.62385">
        <ele>1.17</ele>
        <time>2019-07-14T12:15:06Z</time>
      </trkpt>
      <trkpt lat="47.81358" lon="-3.62379">
        <ele>1.6</ele>
        <time>2019-07-14T12:15:07Z</time>
      </trkpt>
      <trkpt lat="47.81362" lon="-3.62373">
        <ele>1.73</ele>
        <time>2019-07-14T12:15:08Z</time>
      </trkpt>
      <trkpt lat="47.81366" lon="-3.62366">
        <ele>1.77</ele>
        <time>2019-07-14T12:15:09Z</time>
      </trkpt>
      <trkpt lat="47.81369" lon="-3.62361">
        <ele>1.71</ele>
        <time>2019-07-14T12:15:10Z</time>
      </trkpt>
      <trkpt lat="47.81373" lon="-3.62356">
        <ele>1.7</ele>
        <time>2019-07-14T12:15:11Z</time>
      </trkpt>
      <trkpt lat="47.81377" lon="-3.62352">
        <ele>1.83</ele>
        <time>2019-07-14T12:15:12Z</time>
      </trkpt>
      <trkpt lat="47.81383" lon="-3.62344">
        <ele>1.74</ele>
        <time>2019-07-14T12:15:14Z</time>
      </trkpt>
      <trkpt lat="47.81391" lon="-3.62336">
        <ele>2.11</ele>
        <time>2019-07-14T12:15:16Z</time>
      </trkpt>
      <trkpt lat="47.81395" lon="-3.62332">
        <ele>2.16</ele>
        <time>2019-07-14T12:15:17Z</time>
      </trkpt>
      <trkpt lat="47.81402" lon="-3.62324">
        <ele>1.26</ele>
        <time>2019-07-14T12:15:19Z</time>
      </trkpt>
      <trkpt lat="47.81409" lon="-3.62318">
        <ele>1.61</ele>
        <time>2019-07-14T12:15:21Z</time>
      </trkpt>
      <trkpt lat="47.81415" lon="-3.62315">
        <ele>1.43</ele>
        <time>2019-07-14T12:15:23Z</time>
      </trkpt>
      <trkpt lat="47.81421" lon="-3.62312">
        <ele>1.06</ele>
        <time>2019-07-14T12:15:27Z</time>
      </trkpt>
      <trkpt lat="47.81426" lon="-3.6231">
        <ele>0.76</ele>
        <time>2019-07-14T12:15:29Z</time>
      </trkpt>
      <trkpt lat="47.81433" lon="-3.62309">
        <ele>0.74</ele>
        <time>2019-07-14T12:15:31Z</time>
      </trkpt>
      <trkpt lat="47.8144" lon="-3.62305">
        <ele>1.23</ele>
        <time>2019-07-14T12:15:33Z</time>
      </trkpt>
      <trkpt lat="47.81442" lon="-3.62295">
        <ele>1.47</ele>
        <time>2019-07-14T12:15:35Z</time>
      </trkpt>
      <trkpt lat="47.81439" lon="-3.62283">
        <ele>1.72</ele>
        <time>2019-07-14T12:15:37Z</time>
      </trkpt>
      <trkpt lat="47.81436" lon="-3.62276">
        <ele>1.56</ele>
        <time>2019-07-14T12:15:38Z</time>
      </trkpt>
      <trkpt lat="47.81434" lon="-3.6227">
        <ele>1.58</ele>
        <time>2019-07-14T12:15:39Z</time>
      </trkpt>
      <trkpt lat="47.81432" lon="-3.62263">
        <ele>1.66</ele>
        <time>2019-07-14T12:15:40Z</time>
      </trkpt>
      <trkpt lat="47.81429" lon="-3.62256">
        <ele>1.82</ele>
        <time>2019-07-14T12:15:41Z</time>
      </trkpt>
      <trkpt lat="47.81426" lon="-3.62248">
        <ele>1.8</ele>
        <time>2019-07-14T12:15:42Z</time>
      </trkpt>
      <trkpt lat="47.81424" lon="-3.62241">
        <ele>1.65</ele>
        <time>2019-07-14T12:15:43Z</time>
      </trkpt>
      <trkpt lat="47.81422" lon="-3.62234">
        <ele>1.33</ele>
        <time>2019-07-14T12:15:44Z</time>
      </trkpt>
      <trkpt lat="47.8142" lon="-3.62226">
        <ele>1.02</ele>
        <time>2019-07-14T12:15:45Z</time>
      </trkpt>
      <trkpt lat="47.81418" lon="-3.62218">
        <ele>0.86</ele>
        <time>2019-07-14T12:15:46Z</time>
      </trkpt>
      <trkpt lat="47.81416" lon="-3.6221">
        <ele>0.81</ele>
        <time>2019-07-14T12:15:47Z</time>
      </trkpt>
      <trkpt lat="47.81414" lon="-3.62202">
        <ele>0.72</ele>
        <time>2019-07-14T12:15:48Z</time>
      </trkpt>
      <trkpt lat="47.81412" lon="-3.62194">
        <ele>0.77</ele>
        <time>2019-07-14T12:15:49Z</time>
      </trkpt>
      <trkpt lat="47.81411" lon="-3.62186">
        <ele>1.13</ele>
        <time>2019-07-14T12:15:50Z</time>
      </trkpt>
      <trkpt lat="47.81409" lon="-3.62178">
        <ele>1.38</ele>
        <time>2019-07-14T12:15:51Z</time>
      </trkpt>
      <trkpt lat="47.81408" lon="-3.6217">
        <ele>1.67</ele>
        <time>2019-07-14T12:15:52Z</time>
      </trkpt>
      <trkpt lat="47.81407" lon="-3.62162">
        <ele>1.82</ele>
        <time>2019-07-14T12:15:53Z</time>
      </trkpt>
      <trkpt lat="47.81406" lon="-3.62153">
        <ele>1.73</ele>
        <time>2019-07-14T12:15:54Z</time>
      </trkpt>
      <trkpt lat="47.81406" lon="-3.62145">
        <ele>1.42</ele>
        <time>2019-07-14T12:15:55Z</time>
      </trkpt>
      <trkpt lat="47.81406" lon="-3.62137">
        <ele>0.42</ele>
        <time>2019-07-14T12:15:56Z</time>
      </trkpt>
      <trkpt lat="47.81406" lon="-3.62129">
        <ele>-0.23</ele>
        <time>2019-07-14T12:15:57Z</time>
      </trkpt>
      <trkpt lat="47.81406" lon="-3.62122">
        <ele>-0.78</ele>
        <time>2019-07-14T12:15:58Z</time>
      </trkpt>
      <trkpt lat="47.81406" lon="-3.6211">
        <ele>-1.59</ele>
        <time>2019-07-14T12:16:00Z</time>
      </trkpt>
      <trkpt lat="47.81408" lon="-3.62099">
        <ele>-1.04</ele>
        <time>2019-07-14T12:16:02Z</time>
      </trkpt>
      <trkpt lat="47.81409" lon="-3.62092">
        <ele>-0.74</ele>
        <time>2019-07-14T12:16:03Z</time>
      </trkpt>
      <trkpt lat="47.81409" lon="-3.62085">
        <ele>-0.23</ele>
        <time>2019-07-14T12:16:04Z</time>
      </trkpt>
      <trkpt lat="47.8141" lon="-3.62077">
        <ele>0.27</ele>
        <time>2019-07-14T12:16:05Z</time>
      </trkpt>
      <trkpt lat="47.81411" lon="-3.62069">
        <ele>0.84</ele>
        <time>2019-07-14T12:16:06Z</time>
      </trkpt>
      <trkpt lat="47.81412" lon="-3.62061">
        <ele>1.5</ele>
        <time>2019-07-14T12:16:07Z</time>
      </trkpt>
      <trkpt lat="47.81413" lon="-3.62053">
        <ele>2.4</ele>
        <time>2019-07-14T12:16:08Z</time>
      </trkpt>
      <trkpt lat="47.81414" lon="-3.62044">
        <ele>3.09</ele>
        <time>2019-07-14T12:16:09Z</time>
      </trkpt>
      <trkpt lat="47.81415" lon="-3.62035">
        <ele>3.58</ele>
        <time>2019-07-14T12:16:10Z</time>
      </trkpt>
      <trkpt lat="47.81416" lon="-3.62026">
        <ele>4.15</ele>
        <time>2019-07-14T12:16:11Z</time>
      </trkpt>
      <trkpt lat="47.81416" lon="-3.62017">
        <ele>3.97</ele>
        <time>2019-07-14T12:16:12Z</time>
      </trkpt>
      <trkpt lat="47.81417" lon="-3.62008">
        <ele>3.63</ele>
        <time>2019-07-14T12:16:13Z</time>
      </trkpt>
      <trkpt lat="47.81418" lon="-3.61999">
        <ele>3.32</ele>
        <time>2019-07-14T12:16:14Z</time>
      </trkpt>
      <trkpt lat="47.81418" lon="-3.6199">
        <ele>3.09</ele>
        <time>2019-07-14T12:16:15Z</time>
      </trkpt>
      <trkpt lat="47.81419" lon="-3.6198">
        <ele>2.6</ele>
        <time>2019-07-14T12:16:16Z</time>
      </trkpt>
      <trkpt lat="47.81419" lon="-3.6197">
        <ele>2.24</ele>
        <time>2019-07-14T12:16:17Z</time>
      </trkpt>
      <trkpt lat="47.81419" lon="-3.61961">
        <ele>1.85</ele>
        <time>2019-07-14T12:16:18Z</time>
      </trkpt>
      <trkpt lat="47.81419" lon="-3.61951">
        <ele>1.53</ele>
        <time>2019-07-14T12:16:19Z</time>
      </trkpt>
      <trkpt lat="47.81419" lon="-3.61942">
        <ele>1.01</ele>
        <time>2019-07-14T12:16:20Z</time>
      </trkpt>
      <trkpt lat="47.81418" lon="-3.61933">
        <ele>0.5</ele>
        <time>2019-07-14T12:16:21Z</time>
      </trkpt>
      <trkpt lat="47.81418" lon="-3.61924">
        <ele>0.07</ele>
        <time>2019-07-14T12:16:22Z</time>
      </trkpt>
      <trkpt lat="47.81417" lon="-3.61915">
        <ele>-0.41</ele>
        <time>2019-07-14T12:16:23Z</time>
      </trkpt>
      <trkpt lat="47.81416" lon="-3.61905">
        <ele>-1.11</ele>
        <time>2019-07-14T12:16:24Z</time>
      </trkpt>
      <trkpt lat="47.81414" lon="-3.61895">
        <ele>-1.46</ele>
        <time>2019-07-14T12:16:25Z</time>
      </trkpt>
      <trkpt lat="47.81412" lon="-3.61885">
        <ele>-2.06</ele>
        <time>2019-07-14T12:16:26Z</time>
      </trkpt>
      <trkpt lat="47.81411" lon="-3.61875">
        <ele>-2.24</ele>
        <time>2019-07-14T12:16:27Z</time>
      </trkpt>
      <trkpt lat="47.81409" lon="-3.61865">
        <ele>-2.36</ele>
        <time>2019-07-14T12:16:28Z</time>
      </trkpt>
      <trkpt lat="47.81407" lon="-3.61855">
        <ele>-2.68</ele>
        <time>2019-07-14T12:16:29Z</time>
      </trkpt>
      <trkpt lat="47.81406" lon="-3.61845">
        <ele>-2.98</ele>
        <time>2019-07-14T12:16:30Z</time>
      </trkpt>
      <trkpt lat="47.81404" lon="-3.61835">
        <ele>-2.86</ele>
        <time>2019-07-14T12:16:31Z</time>
      </trkpt>
      <trkpt lat="47.81402" lon="-3.61824">
        <ele>-2.13</ele>
        <time>2019-07-14T12:16:32Z</time>
      </trkpt>
      <trkpt lat="47.814" lon="-3.61814">
        <ele>-1.56</ele>
        <time>2019-07-14T12:16:33Z</time>
      </trkpt>
      <trkpt lat="47.81399" lon="-3.61804">
        <ele>-1.32</ele>
        <time>2019-07-14T12:16:34Z</time>
      </trkpt>
      <trkpt lat="47.81397" lon="-3.61794">
        <ele>-1.1</ele>
        <time>2019-07-14T12:16:35Z</time>
      </trkpt>
      <trkpt lat="47.81396" lon="-3.61783">
        <ele>-1.18</ele>
        <time>2019-07-14T12:16:36Z</time>
      </trkpt>
      <trkpt lat="47.81394" lon="-3.61772">
        <ele>-1.2</ele>
        <time>2019-07-14T12:16:37Z</time>
      </trkpt>
      <trkpt lat="47.81394" lon="-3.61762">
        <ele>-1.84</ele>
        <time>2019-07-14T12:16:38Z</time>
      </trkpt>
      <trkpt lat="47.81393" lon="-3.61751">
        <ele>-2.17</ele>
        <time>2019-07-14T12:16:39Z</time>
      </trkpt>
      <trkpt lat="47.81392" lon="-3.61741">
        <ele>-2.2</ele>
        <time>2019-07-14T12:16:40Z</time>
      </trkpt>
      <trkpt lat="47.81392" lon="-3.6173">
        <ele>-2.35</ele>
        <time>2019-07-14T12:16:41Z</time>
      </trkpt>
      <trkpt lat="47.81392" lon="-3.61719">
        <ele>-2.25</ele>
        <time>2019-07-14T12:16:42Z</time>
      </trkpt>
      <trkpt lat="47.81392" lon="-3.61709">
        <ele>-2.01</ele>
        <time>2019-07-14T12:16:43Z</time>
      </trkpt>
      <trkpt lat="47.81392" lon="-3.61699">
        <ele>-1.8</ele>
        <time>2019-07-14T12:16:44Z</time>
      </trkpt>
      <trkpt lat="47.81393" lon="-3.61688">
        <ele>-2.3</ele>
        <time>2019-07-14T12:16:45Z</time>
      </trkpt>
      <trkpt lat="47.81393" lon="-3.61678">
        <ele>-2.8</ele>
        <time>2019-07-14T12:16:46Z</time>
      </trkpt>
      <trkpt lat="47.81394" lon="-3.61668">
        <ele>-3.16</ele>
        <time>2019-07-14T12:16:47Z</time>
      </trkpt>
      <trkpt lat="47.81394" lon="-3.61657">
        <ele>-3.27</ele>
        <time>2019-07-14T12:16:48Z</time>
      </trkpt>
      <trkpt lat="47.81395" lon="-3.61647">
        <ele>-2.95</ele>
        <time>2019-07-14T12:16:49Z</time>
      </trkpt>
      <trkpt lat="47.81395" lon="-3.61637">
        <ele>-2.43</ele>
        <time>2019-07-14T12:16:50Z</time>
      </trkpt>
      <trkpt lat="47.81396" lon="-3.61628">
        <ele>-2.21</ele>
        <time>2019-07-14T12:16:51Z</time>
      </trkpt>
      <trkpt lat="47.81396" lon="-3.61618">
        <ele>-2</ele>
        <time>2019-07-14T12:16:52Z</time>
      </trkpt>
      <trkpt lat="47.81397" lon="-3.61608">
        <ele>-2.43</ele>
        <time>2019-07-14T12:16:53Z</time>
      </trkpt>
      <trkpt lat="47.81397" lon="-3.61598">
        <ele>-2.77</ele>
        <time>2019-07-14T12:16:54Z</time>
      </trkpt>
      <trkpt lat="47.81397" lon="-3.61588">
        <ele>-3.15</ele>
        <time>2019-07-14T12:16:55Z</time>
      </trkpt>
      <trkpt lat="47.81397" lon="-3.61579">
        <ele>-3.12</ele>
        <time>2019-07-14T12:16:56Z</time>
      </trkpt>
      <trkpt lat="47.81397" lon="-3.6157">
        <ele>-3.12</ele>
        <time>2019-07-14T12:16:57Z</time>
      </trkpt>
      <trkpt lat="47.81398" lon="-3.61561">
        <ele>-3.25</ele>
        <time>2019-07-14T12:16:58Z</time>
      </trkpt>
      <trkpt lat="47.81398" lon="-3.61552">
        <ele>-3.01</ele>
        <time>2019-07-14T12:16:59Z</time>
      </trkpt>
      <trkpt lat="47.81399" lon="-3.61543">
        <ele>-2.87</ele>
        <time>2019-07-14T12:17:00Z</time>
      </trkpt>
      <trkpt lat="47.81399" lon="-3.61533">
        <ele>-2.55</ele>
        <time>2019-07-14T12:17:01Z</time>
      </trkpt>
      <trkpt lat="47.81398" lon="-3.61524">
        <ele>-2.31</ele>
        <time>2019-07-14T12:17:02Z</time>
      </trkpt>
      <trkpt lat="47.81398" lon="-3.61515">
        <ele>-1.96</ele>
        <time>2019-07-14T12:17:03Z</time>
      </trkpt>
      <trkpt lat="47.81397" lon="-3.61506">
        <ele>-1.44</ele>
        <time>2019-07-14T12:17:04Z</time>
      </trkpt>
      <trkpt lat="47.81397" lon="-3.61497">
        <ele>-1.07</ele>
        <time>2019-07-14T12:17:05Z</time>
      </trkpt>
      <trkpt lat="47.81396" lon="-3.61488">
        <ele>-0.82</ele>
        <time>2019-07-14T12:17:06Z</time>
      </trkpt>
      <trkpt lat="47.81396" lon="-3.61479">
        <ele>-0.39</ele>
        <time>2019-07-14T12:17:07Z</time>
      </trkpt>
      <trkpt lat="47.81395" lon="-3.61469">
        <ele>-0.2</ele>
        <time>2019-07-14T12:17:08Z</time>
      </trkpt>
      <trkpt lat="47.81395" lon="-3.6146">
        <ele>-0.28</ele>
        <time>2019-07-14T12:17:09Z</time>
      </trkpt>
      <trkpt lat="47.81394" lon="-3.61452">
        <ele>-0.37</ele>
        <time>2019-07-14T12:17:10Z</time>
      </trkpt>
      <trkpt lat="47.81393" lon="-3.61444">
        <ele>-0.54</ele>
        <time>2019-07-14T12:17:11Z</time>
      </trkpt>
      <trkpt lat="47.81393" lon="-3.61436">
        <ele>-0.59</ele>
        <time>2019-07-14T12:17:12Z</time>
      </trkpt>
      <trkpt lat="47.81392" lon="-3.6143">
        <ele>-0.26</ele>
        <time>2019-07-14T12:17:13Z</time>
      </trkpt>
      <trkpt lat="47.8139" lon="-3.61423">
        <ele>0.33</ele>
        <time>2019-07-14T12:17:14Z</time>
      </trkpt>
      <trkpt lat="47.81388" lon="-3.61417">
        <ele>0.79</ele>
        <time>2019-07-14T12:17:15Z</time>
      </trkpt>
      <trkpt lat="47.81384" lon="-3.61413">
        <ele>1.28</ele>
        <time>2019-07-14T12:17:16Z</time>
      </trkpt>
      <trkpt lat="47.8138" lon="-3.61411">
        <ele>1.78</ele>
        <time>2019-07-14T12:17:17Z</time>
      </trkpt>
      <trkpt lat="47.81374" lon="-3.6141">
        <ele>2.2</ele>
        <time>2019-07-14T12:17:18Z</time>
      </trkpt>
      <trkpt lat="47.81369" lon="-3.61411">
        <ele>2.47</ele>
        <time>2019-07-14T12:17:19Z</time>
      </trkpt>
      <trkpt lat="47.81363" lon="-3.61411">
        <ele>2.9</ele>
        <time>2019-07-14T12:17:20Z</time>
      </trkpt>
      <trkpt lat="47.81357" lon="-3.61412">
        <ele>3.17</ele>
        <time>2019-07-14T12:17:21Z</time>
      </trkpt>
      <trkpt lat="47.81352" lon="-3.61413">
        <ele>3.6</ele>
        <time>2019-07-14T12:17:22Z</time>
      </trkpt>
      <trkpt lat="47.81346" lon="-3.61413">
        <ele>3.66</ele>
        <time>2019-07-14T12:17:23Z</time>
      </trkpt>
      <trkpt lat="47.8134" lon="-3.61414">
        <ele>3.89</ele>
        <time>2019-07-14T12:17:24Z</time>
      </trkpt>
      <trkpt lat="47.81335" lon="-3.61415">
        <ele>3.96</ele>
        <time>2019-07-14T12:17:25Z</time>
      </trkpt>
      <trkpt lat="47.8133" lon="-3.61415">
        <ele>3.98</ele>
        <time>2019-07-14T12:17:26Z</time>
      </trkpt>
      <trkpt lat="47.81324" lon="-3.61416">
        <ele>4.27</ele>
        <time>2019-07-14T12:17:27Z</time>
      </trkpt>
      <trkpt lat="47.81319" lon="-3.61416">
        <ele>4.84</ele>
        <time>2019-07-14T12:17:28Z</time>
      </trkpt>
      <trkpt lat="47.81314" lon="-3.61416">
        <ele>5.29</ele>
        <time>2019-07-14T12:17:29Z</time>
      </trkpt>
      <trkpt lat="47.81308" lon="-3.61415">
        <ele>5.85</ele>
        <time>2019-07-14T12:17:30Z</time>
      </trkpt>
      <trkpt lat="47.81302" lon="-3.61414">
        <ele>6.79</ele>
        <time>2019-07-14T12:17:31Z</time>
      </trkpt>
      <trkpt lat="47.81297" lon="-3.61414">
        <ele>7.35</ele>
        <time>2019-07-14T12:17:32Z</time>
      </trkpt>
      <trkpt lat="47.8129" lon="-3.61414">
        <ele>7.59</ele>
        <time>2019-07-14T12:17:33Z</time>
      </trkpt>
      <trkpt lat="47.81284" lon="-3.61413">
        <ele>7.45</ele>
        <time>2019-07-14T12:17:34Z</time>
      </trkpt>
      <trkpt lat="47.81278" lon="-3.61411">
        <ele>7.34</ele>
        <time>2019-07-14T12:17:35Z</time>
      </trkpt>
      <trkpt lat="47.81271" lon="-3.61409">
        <ele>7.3</ele>
        <time>2019-07-14T12:17:36Z</time>
      </trkpt>
      <trkpt lat="47.81265" lon="-3.61407">
        <ele>7.08</ele>
        <time>2019-07-14T12:17:37Z</time>
      </trkpt>
      <trkpt lat="47.81258" lon="-3.61404">
        <ele>6.81</ele>
        <time>2019-07-14T12:17:38Z</time>
      </trkpt>
      <trkpt lat="47.81252" lon="-3.61401">
        <ele>6.58</ele>
        <time>2019-07-14T12:17:39Z</time>
      </trkpt>
      <trkpt lat="47.81246" lon="-3.61397">
        <ele>6.31</ele>
        <time>2019-07-14T12:17:40Z</time>
      </trkpt>
      <trkpt lat="47.81239" lon="-3.61393">
        <ele>5.66</ele>
        <time>2019-07-14T12:17:41Z</time>
      </trkpt>
      <trkpt lat="47.81233" lon="-3.6139">
        <ele>5.68</ele>
        <time>2019-07-14T12:17:42Z</time>
      </trkpt>
      <trkpt lat="47.81227" lon="-3.61386">
        <ele>5.55</ele>
        <time>2019-07-14T12:17:43Z</time>
      </trkpt>
      <trkpt lat="47.81221" lon="-3.61382">
        <ele>5.09</ele>
        <time>2019-07-14T12:17:44Z</time>
      </trkpt>
      <trkpt lat="47.81215" lon="-3.61377">
        <ele>4.88</ele>
        <time>2019-07-14T12:17:45Z</time>
      </trkpt>
      <trkpt lat="47.81209" lon="-3.61373">
        <ele>5.09</ele>
        <time>2019-07-14T12:17:46Z</time>
      </trkpt>
      <trkpt lat="47.81203" lon="-3.61369">
        <ele>5.16</ele>
        <time>2019-07-14T12:17:47Z</time>
      </trkpt>
      <trkpt lat="47.81197" lon="-3.61365">
        <ele>5.18</ele>
        <time>2019-07-14T12:17:48Z</time>
      </trkpt>
      <trkpt lat="47.8119" lon="-3.61361">
        <ele>4.91</ele>
        <time>2019-07-14T12:17:49Z</time>
      </trkpt>
      <trkpt lat="47.81185" lon="-3.61358">
        <ele>4.68</ele>
        <time>2019-07-14T12:17:50Z</time>
      </trkpt>
      <trkpt lat="47.81179" lon="-3.61353">
        <ele>4.48</ele>
        <time>2019-07-14T12:17:51Z</time>
      </trkpt>
      <trkpt lat="47.81173" lon="-3.61349">
        <ele>4.13</ele>
        <time>2019-07-14T12:17:52Z</time>
      </trkpt>
      <trkpt lat="47.81166" lon="-3.61345">
        <ele>3.96</ele>
        <time>2019-07-14T12:17:53Z</time>
      </trkpt>
      <trkpt lat="47.8116" lon="-3.6134">
        <ele>3.98</ele>
        <time>2019-07-14T12:17:54Z</time>
      </trkpt>
      <trkpt lat="47.81154" lon="-3.61336">
        <ele>4.06</ele>
        <time>2019-07-14T12:17:55Z</time>
      </trkpt>
      <trkpt lat="47.81149" lon="-3.61331">
        <ele>4.08</ele>
        <time>2019-07-14T12:17:56Z</time>
      </trkpt>
      <trkpt lat="47.81142" lon="-3.61327">
        <ele>4.02</ele>
        <time>2019-07-14T12:17:57Z</time>
      </trkpt>
      <trkpt lat="47.81136" lon="-3.61323">
        <ele>4.14</ele>
        <time>2019-07-14T12:17:58Z</time>
      </trkpt>
      <trkpt lat="47.8113" lon="-3.61319">
        <ele>3.96</ele>
        <time>2019-07-14T12:17:59Z</time>
      </trkpt>
      <trkpt lat="47.81124" lon="-3.61315">
        <ele>3.91</ele>
        <time>2019-07-14T12:18:00Z</time>
      </trkpt>
      <trkpt lat="47.81117" lon="-3.61311">
        <ele>3.89</ele>
        <time>2019-07-14T12:18:01Z</time>
      </trkpt>
      <trkpt lat="47.8111" lon="-3.61307">
        <ele>4.17</ele>
        <time>2019-07-14T12:18:02Z</time>
      </trkpt>
      <trkpt lat="47.81104" lon="-3.61302">
        <ele>3.97</ele>
        <time>2019-07-14T12:18:03Z</time>
      </trkpt>
      <trkpt lat="47.81098" lon="-3.61298">
        <ele>3.84</ele>
        <time>2019-07-14T12:18:04Z</time>
      </trkpt>
      <trkpt lat="47.81091" lon="-3.61294">
        <ele>3.52</ele>
        <time>2019-07-14T12:18:05Z</time>
      </trkpt>
      <trkpt lat="47.81085" lon="-3.61289">
        <ele>2.94</ele>
        <time>2019-07-14T12:18:06Z</time>
      </trkpt>
      <trkpt lat="47.81078" lon="-3.61285">
        <ele>2.34</ele>
        <time>2019-07-14T12:18:07Z</time>
      </trkpt>
      <trkpt lat="47.81072" lon="-3.61282">
        <ele>1.39</ele>
        <time>2019-07-14T12:18:08Z</time>
      </trkpt>
      <trkpt lat="47.81065" lon="-3.61278">
        <ele>0.55</ele>
        <time>2019-07-14T12:18:09Z</time>
      </trkpt>
      <trkpt lat="47.81058" lon="-3.61274">
        <ele>-0.4</ele>
        <time>2019-07-14T12:18:10Z</time>
      </trkpt>
      <trkpt lat="47.81051" lon="-3.6127">
        <ele>-0.76</ele>
        <time>2019-07-14T12:18:11Z</time>
      </trkpt>
      <trkpt lat="47.81045" lon="-3.61266">
        <ele>-1.29</ele>
        <time>2019-07-14T12:18:12Z</time>
      </trkpt>
      <trkpt lat="47.81038" lon="-3.61262">
        <ele>-1.58</ele>
        <time>2019-07-14T12:18:13Z</time>
      </trkpt>
      <trkpt lat="47.81032" lon="-3.61259">
        <ele>-1.95</ele>
        <time>2019-07-14T12:18:14Z</time>
      </trkpt>
      <trkpt lat="47.81025" lon="-3.61255">
        <ele>-1.71</ele>
        <time>2019-07-14T12:18:15Z</time>
      </trkpt>
      <trkpt lat="47.81018" lon="-3.61252">
        <ele>-1.57</ele>
        <time>2019-07-14T12:18:16Z</time>
      </trkpt>
      <trkpt lat="47.81011" lon="-3.6125">
        <ele>-1.39</ele>
        <time>2019-07-14T12:18:17Z</time>
      </trkpt>
      <trkpt lat="47.81004" lon="-3.61248">
        <ele>-1.2</ele>
        <time>2019-07-14T12:18:18Z</time>
      </trkpt>
      <trkpt lat="47.80997" lon="-3.61247">
        <ele>-0.86</ele>
        <time>2019-07-14T12:18:19Z</time>
      </trkpt>
      <trkpt lat="47.80989" lon="-3.61245">
        <ele>-0.62</ele>
        <time>2019-07-14T12:18:20Z</time>
      </trkpt>
      <trkpt lat="47.80982" lon="-3.61245">
        <ele>-0.68</ele>
        <time>2019-07-14T12:18:21Z</time>
      </trkpt>
      <trkpt lat="47.80974" lon="-3.61244">
        <ele>-1.05</ele>
        <time>2019-07-14T12:18:22Z</time>
      </trkpt>
      <trkpt lat="47.80966" lon="-3.61243">
        <ele>-1.65</ele>
        <time>2019-07-14T12:18:23Z</time>
      </trkpt>
      <trkpt lat="47.80958" lon="-3.61243">
        <ele>-2.39</ele>
        <time>2019-07-14T12:18:24Z</time>
      </trkpt>
      <trkpt lat="47.8095" lon="-3.61244">
        <ele>-2.9</ele>
        <time>2019-07-14T12:18:25Z</time>
      </trkpt>
      <trkpt lat="47.80941" lon="-3.61244">
        <ele>-3.19</ele>
        <time>2019-07-14T12:18:26Z</time>
      </trkpt>
      <trkpt lat="47.80933" lon="-3.61244">
        <ele>-3.76</ele>
        <time>2019-07-14T12:18:27Z</time>
      </trkpt>
      <trkpt lat="47.80924" lon="-3.61244">
        <ele>-4.08</ele>
        <time>2019-07-14T12:18:28Z</time>
      </trkpt>
      <trkpt lat="47.80916" lon="-3.61244">
        <ele>-4.24</ele>
        <time>2019-07-14T12:18:29Z</time>
      </trkpt>
      <trkpt lat="47.80907" lon="-3.61245">
        <ele>-4.78</ele>
        <time>2019-07-14T12:18:30Z</time>
      </trkpt>
      <trkpt lat="47.80898" lon="-3.61245">
        <ele>-5.15</ele>
        <time>2019-07-14T12:18:31Z</time>
      </trkpt>
      <trkpt lat="47.8089" lon="-3.61246">
        <ele>-5.61</ele>
        <time>2019-07-14T12:18:32Z</time>
      </trkpt>
      <trkpt lat="47.80881" lon="-3.61247">
        <ele>-5.19</ele>
        <time>2019-07-14T12:18:33Z</time>
      </trkpt>
      <trkpt lat="47.80872" lon="-3.61246">
        <ele>-5.28</ele>
        <time>2019-07-14T12:18:34Z</time>
      </trkpt>
      <trkpt lat="47.80864" lon="-3.61246">
        <ele>-5.51</ele>
        <time>2019-07-14T12:18:35Z</time>
      </trkpt>
      <trkpt lat="47.80856" lon="-3.61246">
        <ele>-5.86</ele>
        <time>2019-07-14T12:18:36Z</time>
      </trkpt>
      <trkpt lat="47.80848" lon="-3.61246">
        <ele>-5.97</ele>
        <time>2019-07-14T12:18:37Z</time>
      </trkpt>
      <trkpt lat="47.8084" lon="-3.61246">
        <ele>-6</ele>
        <time>2019-07-14T12:18:38Z</time>
      </trkpt>
      <trkpt lat="47.80833" lon="-3.61247">
        <ele>-6.08</ele>
        <time>2019-07-14T12:18:39Z</time>
      </trkpt>
      <trkpt lat="47.80825" lon="-3.61248">
        <ele>-6.31</ele>
        <time>2019-07-14T12:18:40Z</time>
      </trkpt>
      <trkpt lat="47.80818" lon="-3.61248">
        <ele>-6.31</ele>
        <time>2019-07-14T12:18:41Z</time>
      </trkpt>
      <trkpt lat="47.80812" lon="-3.61247">
        <ele>-6.52</ele>
        <time>2019-07-14T12:18:42Z</time>
      </trkpt>
      <trkpt lat="47.80805" lon="-3.61247">
        <ele>-6.72</ele>
        <time>2019-07-14T12:18:43Z</time>
      </trkpt>
      <trkpt lat="47.80797" lon="-3.61248">
        <ele>-7</ele>
        <time>2019-07-14T12:18:44Z</time>
      </trkpt>
      <trkpt lat="47.8079" lon="-3.61247">
        <ele>-7.29</ele>
        <time>2019-07-14T12:18:45Z</time>
      </trkpt>
      <trkpt lat="47.80784" lon="-3.61246">
        <ele>-7.58</ele>
        <time>2019-07-14T12:18:46Z</time>
      </trkpt>
      <trkpt lat="47.80778" lon="-3.61247">
        <ele>-7.6</ele>
        <time>2019-07-14T12:18:47Z</time>
      </trkpt>
      <trkpt lat="47.80771" lon="-3.61248">
        <ele>-7.54</ele>
        <time>2019-07-14T12:18:48Z</time>
      </trkpt>
      <trkpt lat="47.80763" lon="-3.61249">
        <ele>-7.52</ele>
        <time>2019-07-14T12:18:49Z</time>
      </trkpt>
      <trkpt lat="47.80756" lon="-3.6125">
        <ele>-7.65</ele>
        <time>2019-07-14T12:18:50Z</time>
      </trkpt>
      <trkpt lat="47.80748" lon="-3.61249">
        <ele>-7.48</ele>
        <time>2019-07-14T12:18:51Z</time>
      </trkpt>
      <trkpt lat="47.80741" lon="-3.61249">
        <ele>-7.29</ele>
        <time>2019-07-14T12:18:52Z</time>
      </trkpt>
      <trkpt lat="47.80734" lon="-3.61248">
        <ele>-6.82</ele>
        <time>2019-07-14T12:18:53Z</time>
      </trkpt>
      <trkpt lat="47.80728" lon="-3.61247">
        <ele>-6.32</ele>
        <time>2019-07-14T12:18:54Z</time>
      </trkpt>
      <trkpt lat="47.80722" lon="-3.61246">
        <ele>-5.9</ele>
        <time>2019-07-14T12:18:55Z</time>
      </trkpt>
      <trkpt lat="47.80716" lon="-3.61246">
        <ele>-5.63</ele>
        <time>2019-07-14T12:18:56Z</time>
      </trkpt>
      <trkpt lat="47.8071" lon="-3.61247">
        <ele>-5.62</ele>
        <time>2019-07-14T12:18:57Z</time>
      </trkpt>
      <trkpt lat="47.80705" lon="-3.61248">
        <ele>-5.54</ele>
        <time>2019-07-14T12:18:58Z</time>
      </trkpt>
      <trkpt lat="47.80699" lon="-3.61248">
        <ele>-5.73</ele>
        <time>2019-07-14T12:18:59Z</time>
      </trkpt>
      <trkpt lat="47.80694" lon="-3.61248">
        <ele>-5.72</ele>
        <time>2019-07-14T12:19:00Z</time>
      </trkpt>
      <trkpt lat="47.80687" lon="-3.6125">
        <ele>-5.01</ele>
        <time>2019-07-14T12:19:01Z</time>
      </trkpt>
      <trkpt lat="47.80681" lon="-3.61251">
        <ele>-4.38</ele>
        <time>2019-07-14T12:19:02Z</time>
      </trkpt>
      <trkpt lat="47.80675" lon="-3.61253">
        <ele>-4.05</ele>
        <time>2019-07-14T12:19:03Z</time>
      </trkpt>
      <trkpt lat="47.80669" lon="-3.61255">
        <ele>-3.53</ele>
        <time>2019-07-14T12:19:04Z</time>
      </trkpt>
      <trkpt lat="47.80664" lon="-3.61257">
        <ele>-3.38</ele>
        <time>2019-07-14T12:19:05Z</time>
      </trkpt>
      <trkpt lat="47.80658" lon="-3.61258">
        <ele>-3.33</ele>
        <time>2019-07-14T12:19:06Z</time>
      </trkpt>
      <trkpt lat="47.80652" lon="-3.61261">
        <ele>-3.32</ele>
        <time>2019-07-14T12:19:07Z</time>
      </trkpt>
      <trkpt lat="47.80646" lon="-3.61264">
        <ele>-3.59</ele>
        <time>2019-07-14T12:19:08Z</time>
      </trkpt>
      <trkpt lat="47.80641" lon="-3.61268">
        <ele>-3.68</ele>
        <time>2019-07-14T12:19:09Z</time>
      </trkpt>
      <trkpt lat="47.80635" lon="-3.61271">
        <ele>-3.7</ele>
        <time>2019-07-14T12:19:10Z</time>
      </trkpt>
      <trkpt lat="47.8063" lon="-3.61274">
        <ele>-3.64</ele>
        <time>2019-07-14T12:19:11Z</time>
      </trkpt>
      <trkpt lat="47.80624" lon="-3.61276">
        <ele>-3.34</ele>
        <time>2019-07-14T12:19:12Z</time>
      </trkpt>
      <trkpt lat="47.80619" lon="-3.61278">
        <ele>-2.76</ele>
        <time>2019-07-14T12:19:13Z</time>
      </trkpt>
      <trkpt lat="47.80613" lon="-3.61281">
        <ele>-2.17</ele>
        <time>2019-07-14T12:19:14Z</time>
      </trkpt>
      <trkpt lat="47.80608" lon="-3.61284">
        <ele>-1.57</ele>
        <time>2019-07-14T12:19:15Z</time>
      </trkpt>
      <trkpt lat="47.80602" lon="-3.61287">
        <ele>-1.04</ele>
        <time>2019-07-14T12:19:16Z</time>
      </trkpt>
      <trkpt lat="47.80596" lon="-3.61291">
        <ele>-0.88</ele>
        <time>2019-07-14T12:19:17Z</time>
      </trkpt>
      <trkpt lat="47.8059" lon="-3.61293">
        <ele>-0.55</ele>
        <time>2019-07-14T12:19:18Z</time>
      </trkpt>
      <trkpt lat="47.80584" lon="-3.61296">
        <ele>-0.59</ele>
        <time>2019-07-14T12:19:19Z</time>
      </trkpt>
      <trkpt lat="47.80579" lon="-3.61299">
        <ele>-0.68</ele>
        <time>2019-07-14T12:19:20Z</time>
      </trkpt>
      <trkpt lat="47.80574" lon="-3.61302">
        <ele>-0.49</ele>
        <time>2019-07-14T12:19:21Z</time>
      </trkpt>
      <trkpt lat="47.80569" lon="-3.61305">
        <ele>-0.3</ele>
        <time>2019-07-14T12:19:22Z</time>
      </trkpt>
      <trkpt lat="47.80563" lon="-3.61309">
        <ele>-0.03</ele>
        <time>2019-07-14T12:19:23Z</time>
      </trkpt>
      <trkpt lat="47.80558" lon="-3.61312">
        <ele>0.19</ele>
        <time>2019-07-14T12:19:24Z</time>
      </trkpt>
      <trkpt lat="47.80552" lon="-3.61315">
        <ele>0.12</ele>
        <time>2019-07-14T12:19:25Z</time>
      </trkpt>
      <trkpt lat="47.80546" lon="-3.61319">
        <ele>0.24</ele>
        <time>2019-07-14T12:19:26Z</time>
      </trkpt>
      <trkpt lat="47.8054" lon="-3.61322">
        <ele>0.62</ele>
        <time>2019-07-14T12:19:27Z</time>
      </trkpt>
      <trkpt lat="47.80535" lon="-3.61325">
        <ele>0.53</ele>
        <time>2019-07-14T12:19:28Z</time>
      </trkpt>
      <trkpt lat="47.80529" lon="-3.61328">
        <ele>0.43</ele>
        <time>2019-07-14T12:19:29Z</time>
      </trkpt>
      <trkpt lat="47.80525" lon="-3.61332">
        <ele>0.05</ele>
        <time>2019-07-14T12:19:30Z</time>
      </trkpt>
      <trkpt lat="47.8052" lon="-3.61335">
        <ele>-0.2</ele>
        <time>2019-07-14T12:19:31Z</time>
      </trkpt>
      <trkpt lat="47.80515" lon="-3.61338">
        <ele>53</ele>
        <time>2019-07-14T12:19:32Z</time>
      </trkpt>
      <trkpt lat="47.80509" lon="-3.61342">
        <ele>0.27</ele>
        <time>2019-07-14T12:19:33Z</time>
      </trkpt>
      <trkpt lat="47.80504" lon="-3.61345">
        <ele>53.8</ele>
        <time>2019-07-14T12:19:34Z</time>
      </trkpt>
      <trkpt lat="47.80498" lon="-3.61347">
        <ele>0.13</ele>
        <time>2019-07-14T12:19:35Z</time>
      </trkpt>
      <trkpt lat="47.80493" lon="-3.61349">
        <ele>0.03</ele>
        <time>2019-07-14T12:19:36Z</time>
      </trkpt>
      <trkpt lat="47.80488" lon="-3.61351">
        <ele>-0.28</ele>
        <time>2019-07-14T12:19:37Z</time>
      </trkpt>
      <trkpt lat="47.80482" lon="-3.61354">
        <ele>-0.65</ele>
        <time>2019-07-14T12:19:38Z</time>
      </trkpt>
      <trkpt lat="47.80477" lon="-3.61357">
        <ele>-1.32</ele>
        <time>2019-07-14T12:19:39Z</time>
      </trkpt>
      <trkpt lat="47.80472" lon="-3.6136">
        <ele>-1.32</ele>
        <time>2019-07-14T12:19:40Z</time>
      </trkpt>
      <trkpt lat="47.80467" lon="-3.61363">
        <ele>-1.17</ele>
        <time>2019-07-14T12:19:41Z</time>
      </trkpt>
      <trkpt lat="47.80461" lon="-3.61366">
        <ele>-0.85</ele>
        <time>2019-07-14T12:19:42Z</time>
      </trkpt>
      <trkpt lat="47.80456" lon="-3.61369">
        <ele>-0.4</ele>
        <time>2019-07-14T12:19:43Z</time>
      </trkpt>
      <trkpt lat="47.80451" lon="-3.61372">
        <ele>-0.69</ele>
        <time>2019-07-14T12:19:44Z</time>
      </trkpt>
      <trkpt lat="47.80446" lon="-3.61375">
        <ele>-0.78</ele>
        <time>2019-07-14T12:19:45Z</time>
      </trkpt>
      <trkpt lat="47.80441" lon="-3.61378">
        <ele>-0.87</ele>
        <time>2019-07-14T12:19:46Z</time>
      </trkpt>
      <trkpt lat="47.80435" lon="-3.61381">
        <ele>-1.32</ele>
        <time>2019-07-14T12:19:47Z</time>
      </trkpt>
      <trkpt lat="47.8043" lon="-3.61384">
        <ele>-1.24</ele>
        <time>2019-07-14T12:19:48Z</time>
      </trkpt>
      <trkpt lat="47.80424" lon="-3.61386">
        <ele>-0.52</ele>
        <time>2019-07-14T12:19:49Z</time>
      </trkpt>
      <trkpt lat="47.80419" lon="-3.61388">
        <ele>0.19</ele>
        <time>2019-07-14T12:19:50Z</time>
      </trkpt>
      <trkpt lat="47.80414" lon="-3.61391">
        <ele>0.61</ele>
        <time>2019-07-14T12:19:51Z</time>
      </trkpt>
      <trkpt lat="47.80408" lon="-3.61393">
        <ele>1.01</ele>
        <time>2019-07-14T12:19:52Z</time>
      </trkpt>
      <trkpt lat="47.80403" lon="-3.61394">
        <ele>1.49</ele>
        <time>2019-07-14T12:19:53Z</time>
      </trkpt>
      <trkpt lat="47.80398" lon="-3.61396">
        <ele>1.7</ele>
        <time>2019-07-14T12:19:54Z</time>
      </trkpt>
      <trkpt lat="47.80392" lon="-3.61397">
        <ele>2.04</ele>
        <time>2019-07-14T12:19:55Z</time>
      </trkpt>
      <trkpt lat="47.80386" lon="-3.61398">
        <ele>2.07</ele>
        <time>2019-07-14T12:19:56Z</time>
      </trkpt>
      <trkpt lat="47.80381" lon="-3.61399">
        <ele>2.01</ele>
        <time>2019-07-14T12:19:57Z</time>
      </trkpt>
      <trkpt lat="47.80375" lon="-3.61399">
        <ele>2.14</ele>
        <time>2019-07-14T12:19:58Z</time>
      </trkpt>
      <trkpt lat="47.80369" lon="-3.614">
        <ele>2.45</ele>
        <time>2019-07-14T12:19:59Z</time>
      </trkpt>
      <trkpt lat="47.80364" lon="-3.614">
        <ele>3.11</ele>
        <time>2019-07-14T12:20:00Z</time>
      </trkpt>
      <trkpt lat="47.80358" lon="-3.614">
        <ele>3.72</ele>
        <time>2019-07-14T12:20:01Z</time>
      </trkpt>
      <trkpt lat="47.80352" lon="-3.614">
        <ele>4.54</ele>
        <time>2019-07-14T12:20:02Z</time>
      </trkpt>
      <trkpt lat="47.80346" lon="-3.61399">
        <ele>5.27</ele>
        <time>2019-07-14T12:20:03Z</time>
      </trkpt>
      <trkpt lat="47.8034" lon="-3.61399">
        <ele>5</ele>
        <time>2019-07-14T12:20:04Z</time>
      </trkpt>
      <trkpt lat="47.80334" lon="-3.61398">
        <ele>4.43</ele>
        <time>2019-07-14T12:20:05Z</time>
      </trkpt>
      <trkpt lat="47.80328" lon="-3.61398">
        <ele>3.84</ele>
        <time>2019-07-14T12:20:06Z</time>
      </trkpt>
      <trkpt lat="47.80322" lon="-3.61397">
        <ele>3.66</ele>
        <time>2019-07-14T12:20:07Z</time>
      </trkpt>
      <trkpt lat="47.80316" lon="-3.61397">
        <ele>3.4</ele>
        <time>2019-07-14T12:20:08Z</time>
      </trkpt>
      <trkpt lat="47.8031" lon="-3.61396">
        <ele>3.39</ele>
        <time>2019-07-14T12:20:09Z</time>
      </trkpt>
      <trkpt lat="47.80304" lon="-3.61396">
        <ele>3.67</ele>
        <time>2019-07-14T12:20:10Z</time>
      </trkpt>
      <trkpt lat="47.80299" lon="-3.61396">
        <ele>3.89</ele>
        <time>2019-07-14T12:20:11Z</time>
      </trkpt>
      <trkpt lat="47.80293" lon="-3.61395">
        <ele>4.31</ele>
        <time>2019-07-14T12:20:12Z</time>
      </trkpt>
      <trkpt lat="47.80287" lon="-3.61395">
        <ele>4.71</ele>
        <time>2019-07-14T12:20:13Z</time>
      </trkpt>
      <trkpt lat="47.8028" lon="-3.61395">
        <ele>4.84</ele>
        <time>2019-07-14T12:20:14Z</time>
      </trkpt>
      <trkpt lat="47.80274" lon="-3.61395">
        <ele>4.94</ele>
        <time>2019-07-14T12:20:15Z</time>
      </trkpt>
      <trkpt lat="47.80268" lon="-3.61394">
        <ele>5.11</ele>
        <time>2019-07-14T12:20:16Z</time>
      </trkpt>
      <trkpt lat="47.80262" lon="-3.61394">
        <ele>5.52</ele>
        <time>2019-07-14T12:20:17Z</time>
      </trkpt>
      <trkpt lat="47.80256" lon="-3.61394">
        <ele>5.85</ele>
        <time>2019-07-14T12:20:18Z</time>
      </trkpt>
      <trkpt lat="47.8025" lon="-3.61394">
        <ele>6.23</ele>
        <time>2019-07-14T12:20:19Z</time>
      </trkpt>
      <trkpt lat="47.80244" lon="-3.61394">
        <ele>6.83</ele>
        <time>2019-07-14T12:20:20Z</time>
      </trkpt>
      <trkpt lat="47.80238" lon="-3.61394">
        <ele>7.43</ele>
        <time>2019-07-14T12:20:21Z</time>
      </trkpt>
      <trkpt lat="47.80233" lon="-3.61393">
        <ele>7.82</ele>
        <time>2019-07-14T12:20:22Z</time>
      </trkpt>
      <trkpt lat="47.80227" lon="-3.61392">
        <ele>8.08</ele>
        <time>2019-07-14T12:20:23Z</time>
      </trkpt>
      <trkpt lat="47.80222" lon="-3.61392">
        <ele>8.36</ele>
        <time>2019-07-14T12:20:24Z</time>
      </trkpt>
      <trkpt lat="47.80218" lon="-3.61391">
        <ele>8.24</ele>
        <time>2019-07-14T12:20:25Z</time>
      </trkpt>
      <trkpt lat="47.80213" lon="-3.6139">
        <ele>7.92</ele>
        <time>2019-07-14T12:20:26Z</time>
      </trkpt>
      <trkpt lat="47.80208" lon="-3.6139">
        <ele>7.48</ele>
        <time>2019-07-14T12:20:27Z</time>
      </trkpt>
      <trkpt lat="47.80203" lon="-3.6139">
        <ele>7.28</ele>
        <time>2019-07-14T12:20:28Z</time>
      </trkpt>
      <trkpt lat="47.80197" lon="-3.61388">
        <ele>6.72</ele>
        <time>2019-07-14T12:20:29Z</time>
      </trkpt>
      <trkpt lat="47.80192" lon="-3.61386">
        <ele>6.56</ele>
        <time>2019-07-14T12:20:30Z</time>
      </trkpt>
      <trkpt lat="47.80188" lon="-3.61381">
        <ele>6.44</ele>
        <time>2019-07-14T12:20:31Z</time>
      </trkpt>
      <trkpt lat="47.80184" lon="-3.61376">
        <ele>6.19</ele>
        <time>2019-07-14T12:20:32Z</time>
      </trkpt>
      <trkpt lat="47.80181" lon="-3.61369">
        <ele>5.91</ele>
        <time>2019-07-14T12:20:33Z</time>
      </trkpt>
      <trkpt lat="47.80179" lon="-3.61362">
        <ele>5.33</ele>
        <time>2019-07-14T12:20:34Z</time>
      </trkpt>
      <trkpt lat="47.80178" lon="-3.61355">
        <ele>4.81</ele>
        <time>2019-07-14T12:20:35Z</time>
      </trkpt>
      <trkpt lat="47.80178" lon="-3.61346">
        <ele>4.66</ele>
        <time>2019-07-14T12:20:36Z</time>
      </trkpt>
      <trkpt lat="47.80177" lon="-3.61338">
        <ele>4.68</ele>
        <time>2019-07-14T12:20:37Z</time>
      </trkpt>
      <trkpt lat="47.80177" lon="-3.61328">
        <ele>5.04</ele>
        <time>2019-07-14T12:20:38Z</time>
      </trkpt>
      <trkpt lat="47.80177" lon="-3.61319">
        <ele>4.58</ele>
        <time>2019-07-14T12:20:39Z</time>
      </trkpt>
      <trkpt lat="47.80177" lon="-3.61309">
        <ele>4.17</ele>
        <time>2019-07-14T12:20:40Z</time>
      </trkpt>
      <trkpt lat="47.80176" lon="-3.61301">
        <ele>4.11</ele>
        <time>2019-07-14T12:20:41Z</time>
      </trkpt>
      <trkpt lat="47.80176" lon="-3.61294">
        <ele>3.82</ele>
        <time>2019-07-14T12:20:42Z</time>
      </trkpt>
      <trkpt lat="47.80175" lon="-3.61285">
        <ele>3.24</ele>
        <time>2019-07-14T12:20:43Z</time>
      </trkpt>
      <trkpt lat="47.80175" lon="-3.61277">
        <ele>2.71</ele>
        <time>2019-07-14T12:20:44Z</time>
      </trkpt>
      <trkpt lat="47.80175" lon="-3.61268">
        <ele>2.63</ele>
        <time>2019-07-14T12:20:45Z</time>
      </trkpt>
      <trkpt lat="47.80175" lon="-3.61259">
        <ele>2.74</ele>
        <time>2019-07-14T12:20:46Z</time>
      </trkpt>
      <trkpt lat="47.80175" lon="-3.6125">
        <ele>3.05</ele>
        <time>2019-07-14T12:20:47Z</time>
      </trkpt>
      <trkpt lat="47.80175" lon="-3.61241">
        <ele>3.36</ele>
        <time>2019-07-14T12:20:48Z</time>
      </trkpt>
      <trkpt lat="47.80174" lon="-3.61232">
        <ele>3.66</ele>
        <time>2019-07-14T12:20:49Z</time>
      </trkpt>
      <trkpt lat="47.80174" lon="-3.61223">
        <ele>4.03</ele>
        <time>2019-07-14T12:20:50Z</time>
      </trkpt>
      <trkpt lat="47.80173" lon="-3.61215">
        <ele>4.35</ele>
        <time>2019-07-14T12:20:51Z</time>
      </trkpt>
      <trkpt lat="47.80173" lon="-3.61206">
        <ele>4.8</ele>
        <time>2019-07-14T12:20:52Z</time>
      </trkpt>
      <trkpt lat="47.80173" lon="-3.61197">
        <ele>5.14</ele>
        <time>2019-07-14T12:20:53Z</time>
      </trkpt>
      <trkpt lat="47.80173" lon="-3.61187">
        <ele>5.45</ele>
        <time>2019-07-14T12:20:54Z</time>
      </trkpt>
      <trkpt lat="47.80172" lon="-3.61178">
        <ele>5.41</ele>
        <time>2019-07-14T12:20:55Z</time>
      </trkpt>
      <trkpt lat="47.80172" lon="-3.61168">
        <ele>5.46</ele>
        <time>2019-07-14T12:20:56Z</time>
      </trkpt>
      <trkpt lat="47.80172" lon="-3.61158">
        <ele>5.62</ele>
        <time>2019-07-14T12:20:57Z</time>
      </trkpt>
      <trkpt lat="47.80171" lon="-3.61148">
        <ele>5.81</ele>
        <time>2019-07-14T12:20:58Z</time>
      </trkpt>
      <trkpt lat="47.80172" lon="-3.61138">
        <ele>6</ele>
        <time>2019-07-14T12:20:59Z</time>
      </trkpt>
      <trkpt lat="47.80172" lon="-3.61129">
        <ele>6.2</ele>
        <time>2019-07-14T12:21:00Z</time>
      </trkpt>
      <trkpt lat="47.80173" lon="-3.61119">
        <ele>6.33</ele>
        <time>2019-07-14T12:21:01Z</time>
      </trkpt>
      <trkpt lat="47.80173" lon="-3.6111">
        <ele>6.44</ele>
        <time>2019-07-14T12:21:02Z</time>
      </trkpt>
      <trkpt lat="47.80172" lon="-3.611">
        <ele>6.4</ele>
        <time>2019-07-14T12:21:03Z</time>
      </trkpt>
      <trkpt lat="47.80171" lon="-3.61091">
        <ele>6.25</ele>
        <time>2019-07-14T12:21:04Z</time>
      </trkpt>
      <trkpt lat="47.80171" lon="-3.61081">
        <ele>6.42</ele>
        <time>2019-07-14T12:21:05Z</time>
      </trkpt>
      <trkpt lat="47.80172" lon="-3.61071">
        <ele>6.75</ele>
        <time>2019-07-14T12:21:06Z</time>
      </trkpt>
      <trkpt lat="47.80172" lon="-3.61061">
        <ele>7.13</ele>
        <time>2019-07-14T12:21:07Z</time>
      </trkpt>
      <trkpt lat="47.80172" lon="-3.61052">
        <ele>7.59</ele>
        <time>2019-07-14T12:21:08Z</time>
      </trkpt>
      <trkpt lat="47.80172" lon="-3.61041">
        <ele>7.87</ele>
        <time>2019-07-14T12:21:09Z</time>
      </trkpt>
      <trkpt lat="47.80173" lon="-3.61029">
        <ele>8.16</ele>
        <time>2019-07-14T12:21:10Z</time>
      </trkpt>
      <trkpt lat="47.80173" lon="-3.61018">
        <ele>8.39</ele>
        <time>2019-07-14T12:21:11Z</time>
      </trkpt>
      <trkpt lat="47.80173" lon="-3.61008">
        <ele>8.6</ele>
        <time>2019-07-14T12:21:12Z</time>
      </trkpt>
      <trkpt lat="47.80174" lon="-3.60997">
        <ele>8.94</ele>
        <time>2019-07-14T12:21:13Z</time>
      </trkpt>
      <trkpt lat="47.80174" lon="-3.60987">
        <ele>9.18</ele>
        <time>2019-07-14T12:21:14Z</time>
      </trkpt>
      <trkpt lat="47.80175" lon="-3.60976">
        <ele>9.26</ele>
        <time>2019-07-14T12:21:15Z</time>
      </trkpt>
      <trkpt lat="47.80175" lon="-3.60966">
        <ele>9.56</ele>
        <time>2019-07-14T12:21:16Z</time>
      </trkpt>
      <trkpt lat="47.80175" lon="-3.60956">
        <ele>9.93</ele>
        <time>2019-07-14T12:21:17Z</time>
      </trkpt>
      <trkpt lat="47.80174" lon="-3.60946">
        <ele>9.83</ele>
        <time>2019-07-14T12:21:18Z</time>
      </trkpt>
      <trkpt lat="47.80174" lon="-3.60936">
        <ele>9.73</ele>
        <time>2019-07-14T12:21:19Z</time>
      </trkpt>
      <trkpt lat="47.80175" lon="-3.60926">
        <ele>9.77</ele>
        <time>2019-07-14T12:21:20Z</time>
      </trkpt>
      <trkpt lat="47.80175" lon="-3.60917">
        <ele>9.64</ele>
        <time>2019-07-14T12:21:21Z</time>
      </trkpt>
      <trkpt lat="47.80175" lon="-3.60907">
        <ele>9.39</ele>
        <time>2019-07-14T12:21:22Z</time>
      </trkpt>
      <trkpt lat="47.80175" lon="-3.60898">
        <ele>9.25</ele>
        <time>2019-07-14T12:21:23Z</time>
      </trkpt>
      <trkpt lat="47.80175" lon="-3.60888">
        <ele>9.14</ele>
        <time>2019-07-14T12:21:24Z</time>
      </trkpt>
      <trkpt lat="47.80175" lon="-3.60879">
        <ele>8.82</ele>
        <time>2019-07-14T12:21:25Z</time>
      </trkpt>
      <trkpt lat="47.80175" lon="-3.60869">
        <ele>8.24</ele>
        <time>2019-07-14T12:21:26Z</time>
      </trkpt>
      <trkpt lat="47.80175" lon="-3.60859">
        <ele>7.71</ele>
        <time>2019-07-14T12:21:27Z</time>
      </trkpt>
      <trkpt lat="47.80175" lon="-3.6085">
        <ele>7.63</ele>
        <time>2019-07-14T12:21:28Z</time>
      </trkpt>
      <trkpt lat="47.80175" lon="-3.6084">
        <ele>7.81</ele>
        <time>2019-07-14T12:21:29Z</time>
      </trkpt>
      <trkpt lat="47.80175" lon="-3.60831">
        <ele>8</ele>
        <time>2019-07-14T12:21:30Z</time>
      </trkpt>
      <trkpt lat="47.80175" lon="-3.60822">
        <ele>7.99</ele>
        <time>2019-07-14T12:21:31Z</time>
      </trkpt>
      <trkpt lat="47.80175" lon="-3.60813">
        <ele>8.2</ele>
        <time>2019-07-14T12:21:32Z</time>
      </trkpt>
      <trkpt lat="47.80173" lon="-3.60806">
        <ele>8.4</ele>
        <time>2019-07-14T12:21:33Z</time>
      </trkpt>
      <trkpt lat="47.80169" lon="-3.60801">
        <ele>8.74</ele>
        <time>2019-07-14T12:21:34Z</time>
      </trkpt>
      <trkpt lat="47.80164" lon="-3.60799">
        <ele>8.84</ele>
        <time>2019-07-14T12:21:35Z</time>
      </trkpt>
      <trkpt lat="47.8016" lon="-3.60799">
        <ele>8.94</ele>
        <time>2019-07-14T12:21:36Z</time>
      </trkpt>
      <trkpt lat="47.80154" lon="-3.60802">
        <ele>8.77</ele>
        <time>2019-07-14T12:21:37Z</time>
      </trkpt>
      <trkpt lat="47.80149" lon="-3.60806">
        <ele>9.62</ele>
        <time>2019-07-14T12:21:38Z</time>
      </trkpt>
      <trkpt lat="47.80144" lon="-3.60809">
        <ele>10.3</ele>
        <time>2019-07-14T12:21:39Z</time>
      </trkpt>
      <trkpt lat="47.80138" lon="-3.60813">
        <ele>10.78</ele>
        <time>2019-07-14T12:21:40Z</time>
      </trkpt>
      <trkpt lat="47.80133" lon="-3.60817">
        <ele>11.35</ele>
        <time>2019-07-14T12:21:41Z</time>
      </trkpt>
      <trkpt lat="47.80127" lon="-3.6082">
        <ele>11.59</ele>
        <time>2019-07-14T12:21:42Z</time>
      </trkpt>
      <trkpt lat="47.80121" lon="-3.60824">
        <ele>11.66</ele>
        <time>2019-07-14T12:21:43Z</time>
      </trkpt>
      <trkpt lat="47.80116" lon="-3.60828">
        <ele>11.89</ele>
        <time>2019-07-14T12:21:44Z</time>
      </trkpt>
      <trkpt lat="47.8011" lon="-3.60832">
        <ele>11.75</ele>
        <time>2019-07-14T12:21:45Z</time>
      </trkpt>
      <trkpt lat="47.80104" lon="-3.60836">
        <ele>11.64</ele>
        <time>2019-07-14T12:21:46Z</time>
      </trkpt>
      <trkpt lat="47.80098" lon="-3.60841">
        <ele>11.74</ele>
        <time>2019-07-14T12:21:47Z</time>
      </trkpt>
      <trkpt lat="47.80092" lon="-3.60845">
        <ele>11.7</ele>
        <time>2019-07-14T12:21:48Z</time>
      </trkpt>
      <trkpt lat="47.80086" lon="-3.6085">
        <ele>11.55</ele>
        <time>2019-07-14T12:21:49Z</time>
      </trkpt>
      <trkpt lat="47.8008" lon="-3.60856">
        <ele>11.72</ele>
        <time>2019-07-14T12:21:50Z</time>
      </trkpt>
      <trkpt lat="47.80074" lon="-3.60861">
        <ele>12.05</ele>
        <time>2019-07-14T12:21:51Z</time>
      </trkpt>
      <trkpt lat="47.80069" lon="-3.60866">
        <ele>12.15</ele>
        <time>2019-07-14T12:21:52Z</time>
      </trkpt>
      <trkpt lat="47.80063" lon="-3.60872">
        <ele>12.18</ele>
        <time>2019-07-14T12:21:53Z</time>
      </trkpt>
      <trkpt lat="47.80057" lon="-3.60877">
        <ele>12.32</ele>
        <time>2019-07-14T12:21:54Z</time>
      </trkpt>
      <trkpt lat="47.80051" lon="-3.60883">
        <ele>12.93</ele>
        <time>2019-07-14T12:21:55Z</time>
      </trkpt>
      <trkpt lat="47.80045" lon="-3.60888">
        <ele>14.02</ele>
        <time>2019-07-14T12:21:56Z</time>
      </trkpt>
      <trkpt lat="47.80039" lon="-3.60895">
        <ele>14.84</ele>
        <time>2019-07-14T12:21:57Z</time>
      </trkpt>
      <trkpt lat="47.80033" lon="-3.609">
        <ele>15.22</ele>
        <time>2019-07-14T12:21:58Z</time>
      </trkpt>
      <trkpt lat="47.80027" lon="-3.60906">
        <ele>15.55</ele>
        <time>2019-07-14T12:21:59Z</time>
      </trkpt>
      <trkpt lat="47.80021" lon="-3.60912">
        <ele>16</ele>
        <time>2019-07-14T12:22:00Z</time>
      </trkpt>
      <trkpt lat="47.80015" lon="-3.60918">
        <ele>16.41</ele>
        <time>2019-07-14T12:22:01Z</time>
      </trkpt>
      <trkpt lat="47.80008" lon="-3.60922">
        <ele>16.74</ele>
        <time>2019-07-14T12:22:02Z</time>
      </trkpt>
      <trkpt lat="47.80002" lon="-3.60928">
        <ele>16.71</ele>
        <time>2019-07-14T12:22:03Z</time>
      </trkpt>
      <trkpt lat="47.79995" lon="-3.60933">
        <ele>16.34</ele>
        <time>2019-07-14T12:22:04Z</time>
      </trkpt>
      <trkpt lat="47.7999" lon="-3.60939">
        <ele>16.02</ele>
        <time>2019-07-14T12:22:05Z</time>
      </trkpt>
      <trkpt lat="47.79984" lon="-3.60944">
        <ele>15.72</ele>
        <time>2019-07-14T12:22:06Z</time>
      </trkpt>
      <trkpt lat="47.79978" lon="-3.6095">
        <ele>15.28</ele>
        <time>2019-07-14T12:22:07Z</time>
      </trkpt>
      <trkpt lat="47.79973" lon="-3.60954">
        <ele>14.86</ele>
        <time>2019-07-14T12:22:08Z</time>
      </trkpt>
      <trkpt lat="47.79966" lon="-3.60958">
        <ele>14.46</ele>
        <time>2019-07-14T12:22:09Z</time>
      </trkpt>
      <trkpt lat="47.79961" lon="-3.60962">
        <ele>13.99</ele>
        <time>2019-07-14T12:22:10Z</time>
      </trkpt>
      <trkpt lat="47.79955" lon="-3.60965">
        <ele>13.5</ele>
        <time>2019-07-14T12:22:11Z</time>
      </trkpt>
      <trkpt lat="47.7995" lon="-3.60968">
        <ele>13</ele>
        <time>2019-07-14T12:22:12Z</time>
      </trkpt>
      <trkpt lat="47.79945" lon="-3.60971">
        <ele>12.64</ele>
        <time>2019-07-14T12:22:13Z</time>
      </trkpt>
      <trkpt lat="47.79939" lon="-3.60975">
        <ele>12.32</ele>
        <time>2019-07-14T12:22:14Z</time>
      </trkpt>
      <trkpt lat="47.79933" lon="-3.60979">
        <ele>11.95</ele>
        <time>2019-07-14T12:22:15Z</time>
      </trkpt>
      <trkpt lat="47.79928" lon="-3.60982">
        <ele>11.56</ele>
        <time>2019-07-14T12:22:16Z</time>
      </trkpt>
      <trkpt lat="47.79923" lon="-3.60984">
        <ele>11.16</ele>
        <time>2019-07-14T12:22:17Z</time>
      </trkpt>
      <trkpt lat="47.79918" lon="-3.60986">
        <ele>10.9</ele>
        <time>2019-07-14T12:22:18Z</time>
      </trkpt>
      <trkpt lat="47.79912" lon="-3.60989">
        <ele>11.03</ele>
        <time>2019-07-14T12:22:19Z</time>
      </trkpt>
      <trkpt lat="47.79906" lon="-3.60993">
        <ele>11.42</ele>
        <time>2019-07-14T12:22:20Z</time>
      </trkpt>
      <trkpt lat="47.79899" lon="-3.60997">
        <ele>11.4</ele>
        <time>2019-07-14T12:22:21Z</time>
      </trkpt>
      <trkpt lat="47.79893" lon="-3.61001">
        <ele>11.11</ele>
        <time>2019-07-14T12:22:22Z</time>
      </trkpt>
      <trkpt lat="47.79887" lon="-3.61005">
        <ele>10.6</ele>
        <time>2019-07-14T12:22:23Z</time>
      </trkpt>
      <trkpt lat="47.79881" lon="-3.61009">
        <ele>10.1</ele>
        <time>2019-07-14T12:22:24Z</time>
      </trkpt>
      <trkpt lat="47.79875" lon="-3.61012">
        <ele>9.6</ele>
        <time>2019-07-14T12:22:25Z</time>
      </trkpt>
      <trkpt lat="47.7987" lon="-3.61016">
        <ele>9.17</ele>
        <time>2019-07-14T12:22:26Z</time>
      </trkpt>
      <trkpt lat="47.79865" lon="-3.6102">
        <ele>8.62</ele>
        <time>2019-07-14T12:22:27Z</time>
      </trkpt>
      <trkpt lat="47.79859" lon="-3.61024">
        <ele>8.46</ele>
        <time>2019-07-14T12:22:28Z</time>
      </trkpt>
      <trkpt lat="47.79853" lon="-3.61029">
        <ele>8.41</ele>
        <time>2019-07-14T12:22:29Z</time>
      </trkpt>
      <trkpt lat="47.79848" lon="-3.61033">
        <ele>8.18</ele>
        <time>2019-07-14T12:22:30Z</time>
      </trkpt>
      <trkpt lat="47.79842" lon="-3.61039">
        <ele>7.42</ele>
        <time>2019-07-14T12:22:31Z</time>
      </trkpt>
      <trkpt lat="47.79836" lon="-3.61043">
        <ele>6.98</ele>
        <time>2019-07-14T12:22:32Z</time>
      </trkpt>
      <trkpt lat="47.7983" lon="-3.61048">
        <ele>7.05</ele>
        <time>2019-07-14T12:22:33Z</time>
      </trkpt>
      <trkpt lat="47.79824" lon="-3.61052">
        <ele>6.8</ele>
        <time>2019-07-14T12:22:34Z</time>
      </trkpt>
      <trkpt lat="47.79819" lon="-3.61057">
        <ele>5.81</ele>
        <time>2019-07-14T12:22:35Z</time>
      </trkpt>
      <trkpt lat="47.79813" lon="-3.61062">
        <ele>5.16</ele>
        <time>2019-07-14T12:22:36Z</time>
      </trkpt>
      <trkpt lat="47.79808" lon="-3.61066">
        <ele>4.55</ele>
        <time>2019-07-14T12:22:37Z</time>
      </trkpt>
      <trkpt lat="47.79802" lon="-3.61071">
        <ele>4.09</ele>
        <time>2019-07-14T12:22:38Z</time>
      </trkpt>
      <trkpt lat="47.79795" lon="-3.61075">
        <ele>4.02</ele>
        <time>2019-07-14T12:22:39Z</time>
      </trkpt>
      <trkpt lat="47.79789" lon="-3.6108">
        <ele>3.58</ele>
        <time>2019-07-14T12:22:40Z</time>
      </trkpt>
      <trkpt lat="47.79784" lon="-3.61085">
        <ele>3.09</ele>
        <time>2019-07-14T12:22:41Z</time>
      </trkpt>
      <trkpt lat="47.79778" lon="-3.61091">
        <ele>2.88</ele>
        <time>2019-07-14T12:22:42Z</time>
      </trkpt>
      <trkpt lat="47.79771" lon="-3.61096">
        <ele>2.33</ele>
        <time>2019-07-14T12:22:43Z</time>
      </trkpt>
      <trkpt lat="47.79765" lon="-3.61101">
        <ele>1.32</ele>
        <time>2019-07-14T12:22:44Z</time>
      </trkpt>
      <trkpt lat="47.79757" lon="-3.61106">
        <ele>-0.03</ele>
        <time>2019-07-14T12:22:45Z</time>
      </trkpt>
      <trkpt lat="47.7975" lon="-3.61111">
        <ele>-0.93</ele>
        <time>2019-07-14T12:22:46Z</time>
      </trkpt>
      <trkpt lat="47.79743" lon="-3.61117">
        <ele>-1.83</ele>
        <time>2019-07-14T12:22:47Z</time>
      </trkpt>
      <trkpt lat="47.79736" lon="-3.61123">
        <ele>-2.52</ele>
        <time>2019-07-14T12:22:48Z</time>
      </trkpt>
      <trkpt lat="47.79729" lon="-3.61129">
        <ele>-3.28</ele>
        <time>2019-07-14T12:22:49Z</time>
      </trkpt>
      <trkpt lat="47.79723" lon="-3.61136">
        <ele>-4.21</ele>
        <time>2019-07-14T12:22:50Z</time>
      </trkpt>
      <trkpt lat="47.79716" lon="-3.61141">
        <ele>-5.05</ele>
        <time>2019-07-14T12:22:51Z</time>
      </trkpt>
      <trkpt lat="47.7971" lon="-3.61147">
        <ele>-5.16</ele>
        <time>2019-07-14T12:22:52Z</time>
      </trkpt>
      <trkpt lat="47.79703" lon="-3.61152">
        <ele>-4.99</ele>
        <time>2019-07-14T12:22:53Z</time>
      </trkpt>
      <trkpt lat="47.79696" lon="-3.61157">
        <ele>-4.93</ele>
        <time>2019-07-14T12:22:54Z</time>
      </trkpt>
      <trkpt lat="47.79689" lon="-3.61162">
        <ele>-4.64</ele>
        <time>2019-07-14T12:22:55Z</time>
      </trkpt>
      <trkpt lat="47.79683" lon="-3.61167">
        <ele>-4.48</ele>
        <time>2019-07-14T12:22:56Z</time>
      </trkpt>
      <trkpt lat="47.79676" lon="-3.61173">
        <ele>-4.29</ele>
        <time>2019-07-14T12:22:57Z</time>
      </trkpt>
      <trkpt lat="47.79669" lon="-3.61178">
        <ele>-4.31</ele>
        <time>2019-07-14T12:22:58Z</time>
      </trkpt>
      <trkpt lat="47.79663" lon="-3.61183">
        <ele>-4.52</ele>
        <time>2019-07-14T12:22:59Z</time>
      </trkpt>
      <trkpt lat="47.79655" lon="-3.61189">
        <ele>-4.51</ele>
        <time>2019-07-14T12:23:00Z</time>
      </trkpt>
      <trkpt lat="47.79648" lon="-3.61194">
        <ele>-4.65</ele>
        <time>2019-07-14T12:23:01Z</time>
      </trkpt>
      <trkpt lat="47.7964" lon="-3.612">
        <ele>-4.76</ele>
        <time>2019-07-14T12:23:02Z</time>
      </trkpt>
      <trkpt lat="47.79633" lon="-3.61205">
        <ele>-4.94</ele>
        <time>2019-07-14T12:23:03Z</time>
      </trkpt>
      <trkpt lat="47.79625" lon="-3.61211">
        <ele>-4.71</ele>
        <time>2019-07-14T12:23:04Z</time>
      </trkpt>
      <trkpt lat="47.79618" lon="-3.61216">
        <ele>-4.36</ele>
        <time>2019-07-14T12:23:05Z</time>
      </trkpt>
      <trkpt lat="47.7961" lon="-3.61222">
        <ele>-4.12</ele>
        <time>2019-07-14T12:23:06Z</time>
      </trkpt>
      <trkpt lat="47.79603" lon="-3.61227">
        <ele>-4.18</ele>
        <time>2019-07-14T12:23:07Z</time>
      </trkpt>
      <trkpt lat="47.79596" lon="-3.61233">
        <ele>-4.41</ele>
        <time>2019-07-14T12:23:08Z</time>
      </trkpt>
      <trkpt lat="47.79588" lon="-3.61238">
        <ele>-4.62</ele>
        <time>2019-07-14T12:23:09Z</time>
      </trkpt>
      <trkpt lat="47.79581" lon="-3.61244">
        <ele>-5.04</ele>
        <time>2019-07-14T12:23:10Z</time>
      </trkpt>
      <trkpt lat="47.79574" lon="-3.6125">
        <ele>-5.3</ele>
        <time>2019-07-14T12:23:11Z</time>
      </trkpt>
      <trkpt lat="47.79567" lon="-3.61256">
        <ele>-4.89</ele>
        <time>2019-07-14T12:23:12Z</time>
      </trkpt>
      <trkpt lat="47.79559" lon="-3.61262">
        <ele>-4.76</ele>
        <time>2019-07-14T12:23:13Z</time>
      </trkpt>
      <trkpt lat="47.79552" lon="-3.61268">
        <ele>-4.94</ele>
        <time>2019-07-14T12:23:14Z</time>
      </trkpt>
      <trkpt lat="47.79546" lon="-3.61273">
        <ele>-4.99</ele>
        <time>2019-07-14T12:23:15Z</time>
      </trkpt>
      <trkpt lat="47.79539" lon="-3.61279">
        <ele>-4.59</ele>
        <time>2019-07-14T12:23:16Z</time>
      </trkpt>
      <trkpt lat="47.79532" lon="-3.61284">
        <ele>-4.32</ele>
        <time>2019-07-14T12:23:17Z</time>
      </trkpt>
      <trkpt lat="47.79525" lon="-3.6129">
        <ele>-4.18</ele>
        <time>2019-07-14T12:23:18Z</time>
      </trkpt>
      <trkpt lat="47.79517" lon="-3.61295">
        <ele>-4.06</ele>
        <time>2019-07-14T12:23:19Z</time>
      </trkpt>
      <trkpt lat="47.7951" lon="-3.61301">
        <ele>-4.52</ele>
        <time>2019-07-14T12:23:20Z</time>
      </trkpt>
      <trkpt lat="47.79502" lon="-3.61307">
        <ele>-5</ele>
        <time>2019-07-14T12:23:21Z</time>
      </trkpt>
      <trkpt lat="47.79495" lon="-3.61313">
        <ele>-5.5</ele>
        <time>2019-07-14T12:23:22Z</time>
      </trkpt>
      <trkpt lat="47.79487" lon="-3.61319">
        <ele>-5.93</ele>
        <time>2019-07-14T12:23:23Z</time>
      </trkpt>
      <trkpt lat="47.7948" lon="-3.61325">
        <ele>-5.92</ele>
        <time>2019-07-14T12:23:24Z</time>
      </trkpt>
      <trkpt lat="47.79472" lon="-3.61331">
        <ele>-6.4</ele>
        <time>2019-07-14T12:23:25Z</time>
      </trkpt>
      <trkpt lat="47.79465" lon="-3.61337">
        <ele>-6.9</ele>
        <time>2019-07-14T12:23:26Z</time>
      </trkpt>
      <trkpt lat="47.79457" lon="-3.61343">
        <ele>-7.54</ele>
        <time>2019-07-14T12:23:27Z</time>
      </trkpt>
      <trkpt lat="47.7945" lon="-3.61349">
        <ele>-8.15</ele>
        <time>2019-07-14T12:23:28Z</time>
      </trkpt>
      <trkpt lat="47.79442" lon="-3.61355">
        <ele>-9.17</ele>
        <time>2019-07-14T12:23:29Z</time>
      </trkpt>
      <trkpt lat="47.79435" lon="-3.61361">
        <ele>-9.69</ele>
        <time>2019-07-14T12:23:30Z</time>
      </trkpt>
      <trkpt lat="47.79427" lon="-3.61366">
        <ele>-10.48</ele>
        <time>2019-07-14T12:23:31Z</time>
      </trkpt>
      <trkpt lat="47.7942" lon="-3.61371">
        <ele>-10.85</ele>
        <time>2019-07-14T12:23:32Z</time>
      </trkpt>
      <trkpt lat="47.79413" lon="-3.61376">
        <ele>-11.03</ele>
        <time>2019-07-14T12:23:33Z</time>
      </trkpt>
      <trkpt lat="47.79405" lon="-3.61381">
        <ele>-11.37</ele>
        <time>2019-07-14T12:23:34Z</time>
      </trkpt>
      <trkpt lat="47.79398" lon="-3.61387">
        <ele>-11.47</ele>
        <time>2019-07-14T12:23:35Z</time>
      </trkpt>
      <trkpt lat="47.79391" lon="-3.61392">
        <ele>-11.08</ele>
        <time>2019-07-14T12:23:36Z</time>
      </trkpt>
      <trkpt lat="47.79385" lon="-3.61397">
        <ele>-10.61</ele>
        <time>2019-07-14T12:23:37Z</time>
      </trkpt>
      <trkpt lat="47.79378" lon="-3.61403">
        <ele>-10.54</ele>
        <time>2019-07-14T12:23:38Z</time>
      </trkpt>
      <trkpt lat="47.79371" lon="-3.61409">
        <ele>-10.8</ele>
        <time>2019-07-14T12:23:39Z</time>
      </trkpt>
      <trkpt lat="47.79364" lon="-3.61414">
        <ele>-10.95</ele>
        <time>2019-07-14T12:23:40Z</time>
      </trkpt>
      <trkpt lat="47.79356" lon="-3.6142">
        <ele>-11.41</ele>
        <time>2019-07-14T12:23:41Z</time>
      </trkpt>
      <trkpt lat="47.79349" lon="-3.61426">
        <ele>-11.27</ele>
        <time>2019-07-14T12:23:42Z</time>
      </trkpt>
      <trkpt lat="47.79342" lon="-3.61432">
        <ele>-10.95</ele>
        <time>2019-07-14T12:23:43Z</time>
      </trkpt>
      <trkpt lat="47.79335" lon="-3.61437">
        <ele>-10.78</ele>
        <time>2019-07-14T12:23:44Z</time>
      </trkpt>
      <trkpt lat="47.79328" lon="-3.61442">
        <ele>-10.59</ele>
        <time>2019-07-14T12:23:45Z</time>
      </trkpt>
      <trkpt lat="47.7932" lon="-3.61447">
        <ele>-10.47</ele>
        <time>2019-07-14T12:23:46Z</time>
      </trkpt>
      <trkpt lat="47.79313" lon="-3.61453">
        <ele>-10.36</ele>
        <time>2019-07-14T12:23:47Z</time>
      </trkpt>
      <trkpt lat="47.79306" lon="-3.61458">
        <ele>-10.61</ele>
        <time>2019-07-14T12:23:48Z</time>
      </trkpt>
      <trkpt lat="47.79299" lon="-3.61464">
        <ele>-10.75</ele>
        <time>2019-07-14T12:23:49Z</time>
      </trkpt>
      <trkpt lat="47.79292" lon="-3.61469">
        <ele>-10.51</ele>
        <time>2019-07-14T12:23:50Z</time>
      </trkpt>
      <trkpt lat="47.79285" lon="-3.61475">
        <ele>-9.74</ele>
        <time>2019-07-14T12:23:51Z</time>
      </trkpt>
      <trkpt lat="47.79278" lon="-3.61481">
        <ele>-9.23</ele>
        <time>2019-07-14T12:23:52Z</time>
      </trkpt>
      <trkpt lat="47.79271" lon="-3.61487">
        <ele>-8.17</ele>
        <time>2019-07-14T12:23:53Z</time>
      </trkpt>
      <trkpt lat="47.79264" lon="-3.61492">
        <ele>-6.87</ele>
        <time>2019-07-14T12:23:54Z</time>
      </trkpt>
      <trkpt lat="47.79257" lon="-3.61497">
        <ele>-5.57</ele>
        <time>2019-07-14T12:23:55Z</time>
      </trkpt>
      <trkpt lat="47.79249" lon="-3.61503">
        <ele>-4.69</ele>
        <time>2019-07-14T12:23:56Z</time>
      </trkpt>
      <trkpt lat="47.79242" lon="-3.61508">
        <ele>-4.43</ele>
        <time>2019-07-14T12:23:57Z</time>
      </trkpt>
      <trkpt lat="47.79234" lon="-3.61514">
        <ele>-4.49</ele>
        <time>2019-07-14T12:23:58Z</time>
      </trkpt>
      <trkpt lat="47.79227" lon="-3.6152">
        <ele>-4.43</ele>
        <time>2019-07-14T12:23:59Z</time>
      </trkpt>
      <trkpt lat="47.7922" lon="-3.61525">
        <ele>-4.35</ele>
        <time>2019-07-14T12:24:00Z</time>
      </trkpt>
      <trkpt lat="47.79214" lon="-3.61531">
        <ele>-4.46</ele>
        <time>2019-07-14T12:24:01Z</time>
      </trkpt>
      <trkpt lat="47.79208" lon="-3.61536">
        <ele>-4.29</ele>
        <time>2019-07-14T12:24:02Z</time>
      </trkpt>
      <trkpt lat="47.79202" lon="-3.61541">
        <ele>-4.02</ele>
        <time>2019-07-14T12:24:03Z</time>
      </trkpt>
      <trkpt lat="47.79196" lon="-3.61545">
        <ele>-3.67</ele>
        <time>2019-07-14T12:24:04Z</time>
      </trkpt>
      <trkpt lat="47.7919" lon="-3.6155">
        <ele>-3.35</ele>
        <time>2019-07-14T12:24:05Z</time>
      </trkpt>
      <trkpt lat="47.79186" lon="-3.61555">
        <ele>-3.18</ele>
        <time>2019-07-14T12:24:06Z</time>
      </trkpt>
      <trkpt lat="47.7918" lon="-3.6156">
        <ele>-2.85</ele>
        <time>2019-07-14T12:24:07Z</time>
      </trkpt>
      <trkpt lat="47.79176" lon="-3.61565">
        <ele>-2.19</ele>
        <time>2019-07-14T12:24:08Z</time>
      </trkpt>
      <trkpt lat="47.79171" lon="-3.6157">
        <ele>-1.58</ele>
        <time>2019-07-14T12:24:09Z</time>
      </trkpt>
      <trkpt lat="47.79165" lon="-3.61572">
        <ele>-1.46</ele>
        <time>2019-07-14T12:24:10Z</time>
      </trkpt>
      <trkpt lat="47.79159" lon="-3.61572">
        <ele>-2.41</ele>
        <time>2019-07-14T12:24:11Z</time>
      </trkpt>
      <trkpt lat="47.79153" lon="-3.6157">
        <ele>-3.04</ele>
        <time>2019-07-14T12:24:12Z</time>
      </trkpt>
      <trkpt lat="47.79147" lon="-3.61567">
        <ele>-3.65</ele>
        <time>2019-07-14T12:24:13Z</time>
      </trkpt>
      <trkpt lat="47.7914" lon="-3.61563">
        <ele>-4.11</ele>
        <time>2019-07-14T12:24:14Z</time>
      </trkpt>
      <trkpt lat="47.79132" lon="-3.6156">
        <ele>-4.18</ele>
        <time>2019-07-14T12:24:15Z</time>
      </trkpt>
      <trkpt lat="47.79125" lon="-3.61556">
        <ele>-3.92</ele>
        <time>2019-07-14T12:24:16Z</time>
      </trkpt>
      <trkpt lat="47.79118" lon="-3.61552">
        <ele>-4.34</ele>
        <time>2019-07-14T12:24:17Z</time>
      </trkpt>
      <trkpt lat="47.79111" lon="-3.61549">
        <ele>-4.39</ele>
        <time>2019-07-14T12:24:18Z</time>
      </trkpt>
      <trkpt lat="47.79104" lon="-3.61545">
        <ele>-4.69</ele>
        <time>2019-07-14T12:24:19Z</time>
      </trkpt>
      <trkpt lat="47.79097" lon="-3.61542">
        <ele>-4.84</ele>
        <time>2019-07-14T12:24:20Z</time>
      </trkpt>
      <trkpt lat="47.79091" lon="-3.61541">
        <ele>-4.68</ele>
        <time>2019-07-14T12:24:21Z</time>
      </trkpt>
      <trkpt lat="47.79086" lon="-3.61541">
        <ele>-4.63</ele>
        <time>2019-07-14T12:24:22Z</time>
      </trkpt>
      <trkpt lat="47.79078" lon="-3.61544">
        <ele>-7.97</ele>
        <time>2019-07-14T12:24:24Z</time>
      </trkpt>
      <trkpt lat="47.79069" lon="-3.61549">
        <ele>-9.66</ele>
        <time>2019-07-14T12:24:26Z</time>
      </trkpt>
      <trkpt lat="47.79061" lon="-3.61551">
        <ele>-10.34</ele>
        <time>2019-07-14T12:24:28Z</time>
      </trkpt>
      <trkpt lat="47.79053" lon="-3.6155">
        <ele>-11.41</ele>
        <time>2019-07-14T12:24:30Z</time>
      </trkpt>
      <trkpt lat="47.79045" lon="-3.61551">
        <ele>-12.33</ele>
        <time>2019-07-14T12:24:32Z</time>
      </trkpt>
      <trkpt lat="47.79036" lon="-3.6155">
        <ele>-15.11</ele>
        <time>2019-07-14T12:24:34Z</time>
      </trkpt>
      <trkpt lat="47.79031" lon="-3.6154">
        <ele>-17.02</ele>
        <time>2019-07-14T12:24:36Z</time>
      </trkpt>
      <trkpt lat="47.7903" lon="-3.61534">
        <ele>-17.37</ele>
        <time>2019-07-14T12:24:37Z</time>
      </trkpt>
      <trkpt lat="47.79029" lon="-3.61527">
        <ele>-17.75</ele>
        <time>2019-07-14T12:24:38Z</time>
      </trkpt>
      <trkpt lat="47.79029" lon="-3.61519">
        <ele>-17.37</ele>
        <time>2019-07-14T12:24:39Z</time>
      </trkpt>
      <trkpt lat="47.79029" lon="-3.61512">
        <ele>-17.47</ele>
        <time>2019-07-14T12:24:40Z</time>
      </trkpt>
      <trkpt lat="47.79028" lon="-3.61504">
        <ele>-17.78</ele>
        <time>2019-07-14T12:24:41Z</time>
      </trkpt>
      <trkpt lat="47.79027" lon="-3.61497">
        <ele>-18.01</ele>
        <time>2019-07-14T12:24:42Z</time>
      </trkpt>
      <trkpt lat="47.79026" lon="-3.61489">
        <ele>-18.08</ele>
        <time>2019-07-14T12:24:43Z</time>
      </trkpt>
      <trkpt lat="47.79025" lon="-3.61482">
        <ele>-17.82</ele>
        <time>2019-07-14T12:24:44Z</time>
      </trkpt>
      <trkpt lat="47.79024" lon="-3.61475">
        <ele>-18.03</ele>
        <time>2019-07-14T12:24:45Z</time>
      </trkpt>
      <trkpt lat="47.79022" lon="-3.61467">
        <ele>-17.46</ele>
        <time>2019-07-14T12:24:46Z</time>
      </trkpt>
      <trkpt lat="47.7902" lon="-3.61459">
        <ele>-17.22</ele>
        <time>2019-07-14T12:24:47Z</time>
      </trkpt>
      <trkpt lat="47.79018" lon="-3.61451">
        <ele>-17.21</ele>
        <time>2019-07-14T12:24:48Z</time>
      </trkpt>
      <trkpt lat="47.79016" lon="-3.61443">
        <ele>-17.63</ele>
        <time>2019-07-14T12:24:49Z</time>
      </trkpt>
      <trkpt lat="47.79013" lon="-3.61434">
        <ele>-17.27</ele>
        <time>2019-07-14T12:24:50Z</time>
      </trkpt>
      <trkpt lat="47.79012" lon="-3.61426">
        <ele>-16.74</ele>
        <time>2019-07-14T12:24:51Z</time>
      </trkpt>
      <trkpt lat="47.79009" lon="-3.61419">
        <ele>-15.95</ele>
        <time>2019-07-14T12:24:52Z</time>
      </trkpt>
      <trkpt lat="47.79005" lon="-3.61414">
        <ele>-15.5</ele>
        <time>2019-07-14T12:24:53Z</time>
      </trkpt>
      <trkpt lat="47.78998" lon="-3.6141">
        <ele>-15.06</ele>
        <time>2019-07-14T12:24:55Z</time>
      </trkpt>
      <trkpt lat="47.78993" lon="-3.61413">
        <ele>-14.89</ele>
        <time>2019-07-14T12:24:56Z</time>
      </trkpt>
      <trkpt lat="47.78984" lon="-3.61419">
        <ele>-14.28</ele>
        <time>2019-07-14T12:24:58Z</time>
      </trkpt>
      <trkpt lat="47.78979" lon="-3.61422">
        <ele>-13.81</ele>
        <time>2019-07-14T12:24:59Z</time>
      </trkpt>
      <trkpt lat="47.78973" lon="-3.61424">
        <ele>-13.39</ele>
        <time>2019-07-14T12:25:00Z</time>
      </trkpt>
      <trkpt lat="47.78968" lon="-3.61428">
        <ele>-13.41</ele>
        <time>2019-07-14T12:25:01Z</time>
      </trkpt>
      <trkpt lat="47.78963" lon="-3.61432">
        <ele>-13.76</ele>
        <time>2019-07-14T12:25:02Z</time>
      </trkpt>
      <trkpt lat="47.78957" lon="-3.61435">
        <ele>-14.29</ele>
        <time>2019-07-14T12:25:03Z</time>
      </trkpt>
      <trkpt lat="47.78952" lon="-3.61438">
        <ele>-14.37</ele>
        <time>2019-07-14T12:25:04Z</time>
      </trkpt>
      <trkpt lat="47.78946" lon="-3.6144">
        <ele>-14.54</ele>
        <time>2019-07-14T12:25:05Z</time>
      </trkpt>
      <trkpt lat="47.7894" lon="-3.61443">
        <ele>-14.87</ele>
        <time>2019-07-14T12:25:06Z</time>
      </trkpt>
      <trkpt lat="47.78934" lon="-3.61446">
        <ele>-14.76</ele>
        <time>2019-07-14T12:25:07Z</time>
      </trkpt>
      <trkpt lat="47.78928" lon="-3.61449">
        <ele>-14.31</ele>
        <time>2019-07-14T12:25:08Z</time>
      </trkpt>
      <trkpt lat="47.78923" lon="-3.61452">
        <ele>-14.1</ele>
        <time>2019-07-14T12:25:09Z</time>
      </trkpt>
      <trkpt lat="47.78917" lon="-3.61454">
        <ele>-13.9</ele>
        <time>2019-07-14T12:25:10Z</time>
      </trkpt>
      <trkpt lat="47.78912" lon="-3.61455">
        <ele>-13.77</ele>
        <time>2019-07-14T12:25:11Z</time>
      </trkpt>
      <trkpt lat="47.78907" lon="-3.61456">
        <ele>-13.24</ele>
        <time>2019-07-14T12:25:12Z</time>
      </trkpt>
      <trkpt lat="47.78901" lon="-3.61457">
        <ele>-13.43</ele>
        <time>2019-07-14T12:25:13Z</time>
      </trkpt>
      <trkpt lat="47.78896" lon="-3.61457">
        <ele>-13.84</ele>
        <time>2019-07-14T12:25:14Z</time>
      </trkpt>
      <trkpt lat="47.78891" lon="-3.61457">
        <ele>-14.1</ele>
        <time>2019-07-14T12:25:15Z</time>
      </trkpt>
      <trkpt lat="47.78885" lon="-3.61458">
        <ele>-13.9</ele>
        <time>2019-07-14T12:25:16Z</time>
      </trkpt>
      <trkpt lat="47.78879" lon="-3.61459">
        <ele>-13.91</ele>
        <time>2019-07-14T12:25:17Z</time>
      </trkpt>
      <trkpt lat="47.78874" lon="-3.61459">
        <ele>-13.91</ele>
        <time>2019-07-14T12:25:18Z</time>
      </trkpt>
      <trkpt lat="47.78868" lon="-3.61459">
        <ele>-14.19</ele>
        <time>2019-07-14T12:25:19Z</time>
      </trkpt>
      <trkpt lat="47.78862" lon="-3.61457">
        <ele>-14.28</ele>
        <time>2019-07-14T12:25:20Z</time>
      </trkpt>
      <trkpt lat="47.78856" lon="-3.61455">
        <ele>-14.65</ele>
        <time>2019-07-14T12:25:21Z</time>
      </trkpt>
      <trkpt lat="47.7885" lon="-3.61453">
        <ele>-15.18</ele>
        <time>2019-07-14T12:25:22Z</time>
      </trkpt>
      <trkpt lat="47.78845" lon="-3.61451">
        <ele>-15.83</ele>
        <time>2019-07-14T12:25:23Z</time>
      </trkpt>
      <trkpt lat="47.78839" lon="-3.61449">
        <ele>-15.68</ele>
        <time>2019-07-14T12:25:24Z</time>
      </trkpt>
      <trkpt lat="47.78832" lon="-3.61446">
        <ele>-15.77</ele>
        <time>2019-07-14T12:25:25Z</time>
      </trkpt>
      <trkpt lat="47.78826" lon="-3.61443">
        <ele>-16.15</ele>
        <time>2019-07-14T12:25:26Z</time>
      </trkpt>
      <trkpt lat="47.7882" lon="-3.61441">
        <ele>-15.98</ele>
        <time>2019-07-14T12:25:27Z</time>
      </trkpt>
      <trkpt lat="47.78815" lon="-3.61439">
        <ele>-16.42</ele>
        <time>2019-07-14T12:25:28Z</time>
      </trkpt>
      <trkpt lat="47.78808" lon="-3.61437">
        <ele>-16.02</ele>
        <time>2019-07-14T12:25:30Z</time>
      </trkpt>
      <trkpt lat="47.78801" lon="-3.61437">
        <ele>-15.54</ele>
        <time>2019-07-14T12:25:32Z</time>
      </trkpt>
      <trkpt lat="47.78795" lon="-3.61438">
        <ele>-14.7</ele>
        <time>2019-07-14T12:25:34Z</time>
      </trkpt>
      <trkpt lat="47.7879" lon="-3.61438">
        <ele>-14.73</ele>
        <time>2019-07-14T12:25:36Z</time>
      </trkpt>
      <trkpt lat="47.78785" lon="-3.61435">
        <ele>-15.07</ele>
        <time>2019-07-14T12:25:40Z</time>
      </trkpt>
      <trkpt lat="47.78778" lon="-3.61435">
        <ele>-17.22</ele>
        <time>2019-07-14T12:25:43Z</time>
      </trkpt>
      <trkpt lat="47.78771" lon="-3.61433">
        <ele>-18.54</ele>
        <time>2019-07-14T12:25:45Z</time>
      </trkpt>
      <trkpt lat="47.78766" lon="-3.61431">
        <ele>-20.25</ele>
        <time>2019-07-14T12:25:47Z</time>
      </trkpt>
      <trkpt lat="47.7876" lon="-3.61427">
        <ele>-20.59</ele>
        <time>2019-07-14T12:25:49Z</time>
      </trkpt>
      <trkpt lat="47.78754" lon="-3.61424">
        <ele>-21.02</ele>
        <time>2019-07-14T12:25:51Z</time>
      </trkpt>
      <trkpt lat="47.78749" lon="-3.61418">
        <ele>-20.73</ele>
        <time>2019-07-14T12:25:53Z</time>
      </trkpt>
      <trkpt lat="47.78747" lon="-3.61409">
        <ele>-20</ele>
        <time>2019-07-14T12:25:55Z</time>
      </trkpt>
      <trkpt lat="47.78745" lon="-3.61398">
        <ele>-20.39</ele>
        <time>2019-07-14T12:25:57Z</time>
      </trkpt>
      <trkpt lat="47.78744" lon="-3.61386">
        <ele>-20.86</ele>
        <time>2019-07-14T12:25:59Z</time>
      </trkpt>
      <trkpt lat="47.78743" lon="-3.61373">
        <ele>-20.68</ele>
        <time>2019-07-14T12:26:01Z</time>
      </trkpt>
      <trkpt lat="47.78742" lon="-3.6136">
        <ele>-20.97</ele>
        <time>2019-07-14T12:26:03Z</time>
      </trkpt>
      <trkpt lat="47.78742" lon="-3.61353">
        <ele>-21.28</ele>
        <time>2019-07-14T12:26:04Z</time>
      </trkpt>
      <trkpt lat="47.78741" lon="-3.61347">
        <ele>-21.44</ele>
        <time>2019-07-14T12:26:05Z</time>
      </trkpt>
      <trkpt lat="47.78741" lon="-3.61333">
        <ele>-21.58</ele>
        <time>2019-07-14T12:26:07Z</time>
      </trkpt>
      <trkpt lat="47.7874" lon="-3.61327">
        <ele>-21.25</ele>
        <time>2019-07-14T12:26:08Z</time>
      </trkpt>
      <trkpt lat="47.78738" lon="-3.61313">
        <ele>-20.66</ele>
        <time>2019-07-14T12:26:10Z</time>
      </trkpt>
      <trkpt lat="47.78737" lon="-3.61306">
        <ele>-20.35</ele>
        <time>2019-07-14T12:26:11Z</time>
      </trkpt>
      <trkpt lat="47.78737" lon="-3.613">
        <ele>-20.04</ele>
        <time>2019-07-14T12:26:12Z</time>
      </trkpt>
      <trkpt lat="47.78736" lon="-3.61293">
        <ele>-19.81</ele>
        <time>2019-07-14T12:26:13Z</time>
      </trkpt>
      <trkpt lat="47.78736" lon="-3.61279">
        <ele>-19.27</ele>
        <time>2019-07-14T12:26:15Z</time>
      </trkpt>
      <trkpt lat="47.78736" lon="-3.61272">
        <ele>-19.16</ele>
        <time>2019-07-14T12:26:16Z</time>
      </trkpt>
      <trkpt lat="47.78735" lon="-3.61266">
        <ele>-19.13</ele>
        <time>2019-07-14T12:26:17Z</time>
      </trkpt>
      <trkpt lat="47.78734" lon="-3.61254">
        <ele>-19.48</ele>
        <time>2019-07-14T12:26:19Z</time>
      </trkpt>
      <trkpt lat="47.78734" lon="-3.61242">
        <ele>-19.35</ele>
        <time>2019-07-14T12:26:21Z</time>
      </trkpt>
      <trkpt lat="47.78733" lon="-3.61229">
        <ele>-19.25</ele>
        <time>2019-07-14T12:26:23Z</time>
      </trkpt>
      <trkpt lat="47.78733" lon="-3.61217">
        <ele>-19.1</ele>
        <time>2019-07-14T12:26:25Z</time>
      </trkpt>
      <trkpt lat="47.78733" lon="-3.61206">
        <ele>-19.38</ele>
        <time>2019-07-14T12:26:27Z</time>
      </trkpt>
      <trkpt lat="47.78733" lon="-3.61194">
        <ele>-20.1</ele>
        <time>2019-07-14T12:26:29Z</time>
      </trkpt>
      <trkpt lat="47.78733" lon="-3.61183">
        <ele>-20.14</ele>
        <time>2019-07-14T12:26:31Z</time>
      </trkpt>
      <trkpt lat="47.78731" lon="-3.61173">
        <ele>-19.9</ele>
        <time>2019-07-14T12:26:33Z</time>
      </trkpt>
      <trkpt lat="47.7873" lon="-3.61163">
        <ele>-19.66</ele>
        <time>2019-07-14T12:26:35Z</time>
      </trkpt>
      <trkpt lat="47.78729" lon="-3.61152">
        <ele>-18.81</ele>
        <time>2019-07-14T12:26:37Z</time>
      </trkpt>
      <trkpt lat="47.78727" lon="-3.61141">
        <ele>-18.26</ele>
        <time>2019-07-14T12:26:39Z</time>
      </trkpt>
      <trkpt lat="47.78726" lon="-3.6113">
        <ele>-17.75</ele>
        <time>2019-07-14T12:26:41Z</time>
      </trkpt>
      <trkpt lat="47.78725" lon="-3.61118">
        <ele>-16.73</ele>
        <time>2019-07-14T12:26:43Z</time>
      </trkpt>
      <trkpt lat="47.78723" lon="-3.61107">
        <ele>-15.52</ele>
        <time>2019-07-14T12:26:45Z</time>
      </trkpt>
      <trkpt lat="47.78722" lon="-3.61095">
        <ele>-14.6</ele>
        <time>2019-07-14T12:26:47Z</time>
      </trkpt>
      <trkpt lat="47.78721" lon="-3.61083">
        <ele>-14.39</ele>
        <time>2019-07-14T12:26:49Z</time>
      </trkpt>
      <trkpt lat="47.78721" lon="-3.6107">
        <ele>-14.25</ele>
        <time>2019-07-14T12:26:51Z</time>
      </trkpt>
      <trkpt lat="47.7872" lon="-3.61058">
        <ele>-13.87</ele>
        <time>2019-07-14T12:26:53Z</time>
      </trkpt>
      <trkpt lat="47.78718" lon="-3.61046">
        <ele>-13.93</ele>
        <time>2019-07-14T12:26:55Z</time>
      </trkpt>
      <trkpt lat="47.78717" lon="-3.61034">
        <ele>-13.41</ele>
        <time>2019-07-14T12:26:57Z</time>
      </trkpt>
      <trkpt lat="47.78716" lon="-3.61023">
        <ele>-13.09</ele>
        <time>2019-07-14T12:26:59Z</time>
      </trkpt>
      <trkpt lat="47.78714" lon="-3.61014">
        <ele>-12.56</ele>
        <time>2019-07-14T12:27:01Z</time>
      </trkpt>
      <trkpt lat="47.78713" lon="-3.61006">
        <ele>-11.92</ele>
        <time>2019-07-14T12:27:03Z</time>
      </trkpt>
      <trkpt lat="47.7871" lon="-3.60998">
        <ele>-11.33</ele>
        <time>2019-07-14T12:27:06Z</time>
      </trkpt>
      <trkpt lat="47.78704" lon="-3.61">
        <ele>-11.52</ele>
        <time>2019-07-14T12:27:08Z</time>
      </trkpt>
      <trkpt lat="47.78697" lon="-3.61004">
        <ele>-12.02</ele>
        <time>2019-07-14T12:27:10Z</time>
      </trkpt>
      <trkpt lat="47.78688" lon="-3.61009">
        <ele>-11.98</ele>
        <time>2019-07-14T12:27:12Z</time>
      </trkpt>
      <trkpt lat="47.78684" lon="-3.61012">
        <ele>-11.72</ele>
        <time>2019-07-14T12:27:13Z</time>
      </trkpt>
      <trkpt lat="47.78679" lon="-3.61016">
        <ele>-11.3</ele>
        <time>2019-07-14T12:27:14Z</time>
      </trkpt>
      <trkpt lat="47.78674" lon="-3.61019">
        <ele>-11.1</ele>
        <time>2019-07-14T12:27:15Z</time>
      </trkpt>
      <trkpt lat="47.78669" lon="-3.61022">
        <ele>-10.9</ele>
        <time>2019-07-14T12:27:16Z</time>
      </trkpt>
      <trkpt lat="47.78664" lon="-3.61025">
        <ele>-10.84</ele>
        <time>2019-07-14T12:27:17Z</time>
      </trkpt>
      <trkpt lat="47.78659" lon="-3.61028">
        <ele>-10.96</ele>
        <time>2019-07-14T12:27:18Z</time>
      </trkpt>
      <trkpt lat="47.78653" lon="-3.61032">
        <ele>-11</ele>
        <time>2019-07-14T12:27:19Z</time>
      </trkpt>
      <trkpt lat="47.78648" lon="-3.61035">
        <ele>-10.87</ele>
        <time>2019-07-14T12:27:20Z</time>
      </trkpt>
      <trkpt lat="47.78642" lon="-3.61038">
        <ele>-10.48</ele>
        <time>2019-07-14T12:27:21Z</time>
      </trkpt>
      <trkpt lat="47.78636" lon="-3.6104">
        <ele>-10.36</ele>
        <time>2019-07-14T12:27:22Z</time>
      </trkpt>
      <trkpt lat="47.78631" lon="-3.61042">
        <ele>-10.12</ele>
        <time>2019-07-14T12:27:23Z</time>
      </trkpt>
      <trkpt lat="47.78626" lon="-3.61044">
        <ele>-10.11</ele>
        <time>2019-07-14T12:27:24Z</time>
      </trkpt>
      <trkpt lat="47.7862" lon="-3.61046">
        <ele>-9.76</ele>
        <time>2019-07-14T12:27:25Z</time>
      </trkpt>
      <trkpt lat="47.78615" lon="-3.61048">
        <ele>-10.08</ele>
        <time>2019-07-14T12:27:26Z</time>
      </trkpt>
      <trkpt lat="47.78609" lon="-3.6105">
        <ele>-10.03</ele>
        <time>2019-07-14T12:27:27Z</time>
      </trkpt>
      <trkpt lat="47.78604" lon="-3.61052">
        <ele>-9.95</ele>
        <time>2019-07-14T12:27:28Z</time>
      </trkpt>
      <trkpt lat="47.78598" lon="-3.61053">
        <ele>-10.13</ele>
        <time>2019-07-14T12:27:29Z</time>
      </trkpt>
      <trkpt lat="47.78592" lon="-3.61055">
        <ele>-10.26</ele>
        <time>2019-07-14T12:27:30Z</time>
      </trkpt>
      <trkpt lat="47.78586" lon="-3.61057">
        <ele>-9.95</ele>
        <time>2019-07-14T12:27:31Z</time>
      </trkpt>
      <trkpt lat="47.78581" lon="-3.61059">
        <ele>-10.06</ele>
        <time>2019-07-14T12:27:32Z</time>
      </trkpt>
      <trkpt lat="47.78576" lon="-3.61062">
        <ele>-10.03</ele>
        <time>2019-07-14T12:27:33Z</time>
      </trkpt>
      <trkpt lat="47.7857" lon="-3.61064">
        <ele>-10.16</ele>
        <time>2019-07-14T12:27:34Z</time>
      </trkpt>
      <trkpt lat="47.78564" lon="-3.61066">
        <ele>-10.13</ele>
        <time>2019-07-14T12:27:35Z</time>
      </trkpt>
      <trkpt lat="47.78559" lon="-3.61069">
        <ele>-10.05</ele>
        <time>2019-07-14T12:27:36Z</time>
      </trkpt>
      <trkpt lat="47.78553" lon="-3.61071">
        <ele>-10.23</ele>
        <time>2019-07-14T12:27:37Z</time>
      </trkpt>
      <trkpt lat="47.78547" lon="-3.61074">
        <ele>-10.22</ele>
        <time>2019-07-14T12:27:38Z</time>
      </trkpt>
      <trkpt lat="47.78541" lon="-3.61076">
        <ele>-9.93</ele>
        <time>2019-07-14T12:27:39Z</time>
      </trkpt>
      <trkpt lat="47.78535" lon="-3.61078">
        <ele>-9.57</ele>
        <time>2019-07-14T12:27:40Z</time>
      </trkpt>
      <trkpt lat="47.7853" lon="-3.6108">
        <ele>-9.39</ele>
        <time>2019-07-14T12:27:41Z</time>
      </trkpt>
      <trkpt lat="47.78523" lon="-3.61082">
        <ele>-9.41</ele>
        <time>2019-07-14T12:27:42Z</time>
      </trkpt>
      <trkpt lat="47.78517" lon="-3.61083">
        <ele>-8.85</ele>
        <time>2019-07-14T12:27:43Z</time>
      </trkpt>
      <trkpt lat="47.78512" lon="-3.61084">
        <ele>-8.19</ele>
        <time>2019-07-14T12:27:44Z</time>
      </trkpt>
      <trkpt lat="47.78506" lon="-3.61086">
        <ele>-7.86</ele>
        <time>2019-07-14T12:27:45Z</time>
      </trkpt>
      <trkpt lat="47.785" lon="-3.61087">
        <ele>-7.48</ele>
        <time>2019-07-14T12:27:46Z</time>
      </trkpt>
      <trkpt lat="47.78494" lon="-3.61087">
        <ele>-7.29</ele>
        <time>2019-07-14T12:27:47Z</time>
      </trkpt>
      <trkpt lat="47.78488" lon="-3.61088">
        <ele>-7.03</ele>
        <time>2019-07-14T12:27:48Z</time>
      </trkpt>
      <trkpt lat="47.78482" lon="-3.61089">
        <ele>-6.81</ele>
        <time>2019-07-14T12:27:49Z</time>
      </trkpt>
      <trkpt lat="47.78477" lon="-3.61089">
        <ele>-6.95</ele>
        <time>2019-07-14T12:27:50Z</time>
      </trkpt>
      <trkpt lat="47.78471" lon="-3.61089">
        <ele>-7.2</ele>
        <time>2019-07-14T12:27:51Z</time>
      </trkpt>
      <trkpt lat="47.78465" lon="-3.6109">
        <ele>-7.98</ele>
        <time>2019-07-14T12:27:52Z</time>
      </trkpt>
      <trkpt lat="47.78458" lon="-3.61091">
        <ele>-10.8</ele>
        <time>2019-07-14T12:27:53Z</time>
      </trkpt>
      <trkpt lat="47.78452" lon="-3.61091">
        <ele>-11.79</ele>
        <time>2019-07-14T12:27:54Z</time>
      </trkpt>
      <trkpt lat="47.78447" lon="-3.61092">
        <ele>-12.44</ele>
        <time>2019-07-14T12:27:55Z</time>
      </trkpt>
      <trkpt lat="47.78442" lon="-3.61092">
        <ele>-12.49</ele>
        <time>2019-07-14T12:27:56Z</time>
      </trkpt>
      <trkpt lat="47.78433" lon="-3.61092">
        <ele>-12.58</ele>
        <time>2019-07-14T12:27:58Z</time>
      </trkpt>
      <trkpt lat="47.78426" lon="-3.61087">
        <ele>-12.18</ele>
        <time>2019-07-14T12:28:00Z</time>
      </trkpt>
      <trkpt lat="47.78422" lon="-3.61084">
        <ele>-12.13</ele>
        <time>2019-07-14T12:28:01Z</time>
      </trkpt>
      <trkpt lat="47.78418" lon="-3.6108">
        <ele>-11.84</ele>
        <time>2019-07-14T12:28:02Z</time>
      </trkpt>
      <trkpt lat="47.78413" lon="-3.61077">
        <ele>-11.33</ele>
        <time>2019-07-14T12:28:03Z</time>
      </trkpt>
      <trkpt lat="47.78409" lon="-3.61073">
        <ele>-10.97</ele>
        <time>2019-07-14T12:28:04Z</time>
      </trkpt>
      <trkpt lat="47.78404" lon="-3.61071">
        <ele>-10.72</ele>
        <time>2019-07-14T12:28:05Z</time>
      </trkpt>
      <trkpt lat="47.78399" lon="-3.61068">
        <ele>-10.5</ele>
        <time>2019-07-14T12:28:06Z</time>
      </trkpt>
      <trkpt lat="47.78394" lon="-3.61064">
        <ele>-10.44</ele>
        <time>2019-07-14T12:28:07Z</time>
      </trkpt>
      <trkpt lat="47.78389" lon="-3.61062">
        <ele>-10.35</ele>
        <time>2019-07-14T12:28:08Z</time>
      </trkpt>
      <trkpt lat="47.78384" lon="-3.61059">
        <ele>-10.25</ele>
        <time>2019-07-14T12:28:09Z</time>
      </trkpt>
      <trkpt lat="47.78378" lon="-3.61057">
        <ele>-9.8</ele>
        <time>2019-07-14T12:28:10Z</time>
      </trkpt>
      <trkpt lat="47.78372" lon="-3.61054">
        <ele>-9.53</ele>
        <time>2019-07-14T12:28:11Z</time>
      </trkpt>
      <trkpt lat="47.78367" lon="-3.61051">
        <ele>-9.24</ele>
        <time>2019-07-14T12:28:12Z</time>
      </trkpt>
      <trkpt lat="47.7836" lon="-3.61048">
        <ele>-9.15</ele>
        <time>2019-07-14T12:28:13Z</time>
      </trkpt>
      <trkpt lat="47.78354" lon="-3.61045">
        <ele>-9.05</ele>
        <time>2019-07-14T12:28:14Z</time>
      </trkpt>
      <trkpt lat="47.78349" lon="-3.61041">
        <ele>-8.95</ele>
        <time>2019-07-14T12:28:15Z</time>
      </trkpt>
      <trkpt lat="47.78343" lon="-3.61038">
        <ele>-8.71</ele>
        <time>2019-07-14T12:28:16Z</time>
      </trkpt>
      <trkpt lat="47.78337" lon="-3.61036">
        <ele>-8.29</ele>
        <time>2019-07-14T12:28:17Z</time>
      </trkpt>
      <trkpt lat="47.78331" lon="-3.61033">
        <ele>-8.38</ele>
        <time>2019-07-14T12:28:18Z</time>
      </trkpt>
      <trkpt lat="47.78325" lon="-3.6103">
        <ele>-8.54</ele>
        <time>2019-07-14T12:28:19Z</time>
      </trkpt>
      <trkpt lat="47.78319" lon="-3.61027">
        <ele>-9.43</ele>
        <time>2019-07-14T12:28:20Z</time>
      </trkpt>
      <trkpt lat="47.78313" lon="-3.61024">
        <ele>-10.54</ele>
        <time>2019-07-14T12:28:21Z</time>
      </trkpt>
      <trkpt lat="47.78306" lon="-3.6102">
        <ele>-11.22</ele>
        <time>2019-07-14T12:28:22Z</time>
      </trkpt>
      <trkpt lat="47.783" lon="-3.61017">
        <ele>-11.84</ele>
        <time>2019-07-14T12:28:23Z</time>
      </trkpt>
      <trkpt lat="47.78294" lon="-3.61013">
        <ele>-12.45</ele>
        <time>2019-07-14T12:28:24Z</time>
      </trkpt>
      <trkpt lat="47.78287" lon="-3.6101">
        <ele>-12.77</ele>
        <time>2019-07-14T12:28:25Z</time>
      </trkpt>
      <trkpt lat="47.78281" lon="-3.61008">
        <ele>-12.87</ele>
        <time>2019-07-14T12:28:26Z</time>
      </trkpt>
      <trkpt lat="47.78275" lon="-3.61004">
        <ele>-12.69</ele>
        <time>2019-07-14T12:28:27Z</time>
      </trkpt>
      <trkpt lat="47.78269" lon="-3.61001">
        <ele>-12.64</ele>
        <time>2019-07-14T12:28:28Z</time>
      </trkpt>
      <trkpt lat="47.78264" lon="-3.60998">
        <ele>-12.83</ele>
        <time>2019-07-14T12:28:29Z</time>
      </trkpt>
      <trkpt lat="47.78257" lon="-3.60995">
        <ele>-12.68</ele>
        <time>2019-07-14T12:28:30Z</time>
      </trkpt>
      <trkpt lat="47.78251" lon="-3.60993">
        <ele>-12.49</ele>
        <time>2019-07-14T12:28:31Z</time>
      </trkpt>
      <trkpt lat="47.78245" lon="-3.60991">
        <ele>-12.72</ele>
        <time>2019-07-14T12:28:32Z</time>
      </trkpt>
      <trkpt lat="47.78239" lon="-3.60989">
        <ele>-13.34</ele>
        <time>2019-07-14T12:28:33Z</time>
      </trkpt>
      <trkpt lat="47.78233" lon="-3.60986">
        <ele>-13.95</ele>
        <time>2019-07-14T12:28:34Z</time>
      </trkpt>
      <trkpt lat="47.78228" lon="-3.60982">
        <ele>-14.41</ele>
        <time>2019-07-14T12:28:35Z</time>
      </trkpt>
      <trkpt lat="47.78224" lon="-3.60979">
        <ele>-14.55</ele>
        <time>2019-07-14T12:28:36Z</time>
      </trkpt>
      <trkpt lat="47.78219" lon="-3.60977">
        <ele>-14.73</ele>
        <time>2019-07-14T12:28:37Z</time>
      </trkpt>
      <trkpt lat="47.78213" lon="-3.60974">
        <ele>-14.86</ele>
        <time>2019-07-14T12:28:38Z</time>
      </trkpt>
      <trkpt lat="47.78208" lon="-3.60973">
        <ele>-15.32</ele>
        <time>2019-07-14T12:28:39Z</time>
      </trkpt>
      <trkpt lat="47.78203" lon="-3.60971">
        <ele>-15.73</ele>
        <time>2019-07-14T12:28:40Z</time>
      </trkpt>
      <trkpt lat="47.78198" lon="-3.60969">
        <ele>-16.21</ele>
        <time>2019-07-14T12:28:41Z</time>
      </trkpt>
      <trkpt lat="47.78192" lon="-3.60967">
        <ele>-16.49</ele>
        <time>2019-07-14T12:28:42Z</time>
      </trkpt>
      <trkpt lat="47.78186" lon="-3.60964">
        <ele>-17.14</ele>
        <time>2019-07-14T12:28:43Z</time>
      </trkpt>
      <trkpt lat="47.78179" lon="-3.60961">
        <ele>-17.68</ele>
        <time>2019-07-14T12:28:44Z</time>
      </trkpt>
      <trkpt lat="47.78173" lon="-3.60958">
        <ele>-17.84</ele>
        <time>2019-07-14T12:28:45Z</time>
      </trkpt>
      <trkpt lat="47.78166" lon="-3.60954">
        <ele>-17.75</ele>
        <time>2019-07-14T12:28:46Z</time>
      </trkpt>
      <trkpt lat="47.78159" lon="-3.60952">
        <ele>-17.58</ele>
        <time>2019-07-14T12:28:47Z</time>
      </trkpt>
      <trkpt lat="47.78152" lon="-3.60949">
        <ele>-17.46</ele>
        <time>2019-07-14T12:28:48Z</time>
      </trkpt>
      <trkpt lat="47.78146" lon="-3.60946">
        <ele>-17.78</ele>
        <time>2019-07-14T12:28:49Z</time>
      </trkpt>
      <trkpt lat="47.78139" lon="-3.60942">
        <ele>-17.94</ele>
        <time>2019-07-14T12:28:50Z</time>
      </trkpt>
      <trkpt lat="47.78133" lon="-3.60939">
        <ele>-18.55</ele>
        <time>2019-07-14T12:28:51Z</time>
      </trkpt>
      <trkpt lat="47.78127" lon="-3.60937">
        <ele>-19.15</ele>
        <time>2019-07-14T12:28:52Z</time>
      </trkpt>
      <trkpt lat="47.7812" lon="-3.60935">
        <ele>-19.75</ele>
        <time>2019-07-14T12:28:53Z</time>
      </trkpt>
      <trkpt lat="47.78114" lon="-3.60933">
        <ele>-20.56</ele>
        <time>2019-07-14T12:28:54Z</time>
      </trkpt>
      <trkpt lat="47.78107" lon="-3.6093">
        <ele>-21.37</ele>
        <time>2019-07-14T12:28:55Z</time>
      </trkpt>
      <trkpt lat="47.781" lon="-3.60928">
        <ele>-22.1</ele>
        <time>2019-07-14T12:28:56Z</time>
      </trkpt>
      <trkpt lat="47.78094" lon="-3.60927">
        <ele>-22.88</ele>
        <time>2019-07-14T12:28:57Z</time>
      </trkpt>
      <trkpt lat="47.78087" lon="-3.60926">
        <ele>-23.81</ele>
        <time>2019-07-14T12:28:58Z</time>
      </trkpt>
      <trkpt lat="47.7808" lon="-3.60925">
        <ele>-25.14</ele>
        <time>2019-07-14T12:28:59Z</time>
      </trkpt>
      <trkpt lat="47.78073" lon="-3.60923">
        <ele>-26.38</ele>
        <time>2019-07-14T12:29:00Z</time>
      </trkpt>
      <trkpt lat="47.78066" lon="-3.60921">
        <ele>-26.54</ele>
        <time>2019-07-14T12:29:01Z</time>
      </trkpt>
      <trkpt lat="47.7806" lon="-3.60921">
        <ele>-27.08</ele>
        <time>2019-07-14T12:29:02Z</time>
      </trkpt>
      <trkpt lat="47.78055" lon="-3.60921">
        <ele>-28.16</ele>
        <time>2019-07-14T12:29:04Z</time>
      </trkpt>
      <trkpt lat="47.78052" lon="-3.60914">
        <ele>-28.48</ele>
        <time>2019-07-14T12:29:18Z</time>
      </trkpt>
      <trkpt lat="47.78053" lon="-3.60907">
        <ele>-27.61</ele>
        <time>2019-07-14T12:29:20Z</time>
      </trkpt>
      <trkpt lat="47.78054" lon="-3.609">
        <ele>-26.79</ele>
        <time>2019-07-14T12:29:22Z</time>
      </trkpt>
      <trkpt lat="47.78055" lon="-3.60889">
        <ele>-26.13</ele>
        <time>2019-07-14T12:29:25Z</time>
      </trkpt>
      <trkpt lat="47.78054" lon="-3.60881">
        <ele>-26.06</ele>
        <time>2019-07-14T12:29:27Z</time>
      </trkpt>
      <trkpt lat="47.78053" lon="-3.60871">
        <ele>-25.88</ele>
        <time>2019-07-14T12:29:29Z</time>
      </trkpt>
      <trkpt lat="47.78053" lon="-3.60861">
        <ele>-25.38</ele>
        <time>2019-07-14T12:29:31Z</time>
      </trkpt>
      <trkpt lat="47.7805" lon="-3.60852">
        <ele>-25.36</ele>
        <time>2019-07-14T12:29:33Z</time>
      </trkpt>
      <trkpt lat="47.78046" lon="-3.60842">
        <ele>-25.89</ele>
        <time>2019-07-14T12:29:35Z</time>
      </trkpt>
      <trkpt lat="47.78039" lon="-3.60832">
        <ele>-26.88</ele>
        <time>2019-07-14T12:29:37Z</time>
      </trkpt>
      <trkpt lat="47.78035" lon="-3.60827">
        <ele>-27.25</ele>
        <time>2019-07-14T12:29:38Z</time>
      </trkpt>
      <trkpt lat="47.78032" lon="-3.60821">
        <ele>-27.36</ele>
        <time>2019-07-14T12:29:39Z</time>
      </trkpt>
      <trkpt lat="47.78028" lon="-3.60815">
        <ele>-27.19</ele>
        <time>2019-07-14T12:29:40Z</time>
      </trkpt>
      <trkpt lat="47.78025" lon="-3.6081">
        <ele>-27.13</ele>
        <time>2019-07-14T12:29:41Z</time>
      </trkpt>
      <trkpt lat="47.78023" lon="-3.60803">
        <ele>-27.12</ele>
        <time>2019-07-14T12:29:42Z</time>
      </trkpt>
      <trkpt lat="47.78022" lon="-3.60794">
        <ele>-27.05</ele>
        <time>2019-07-14T12:29:44Z</time>
      </trkpt>
      <trkpt lat="47.78021" lon="-3.60786">
        <ele>-26.78</ele>
        <time>2019-07-14T12:29:46Z</time>
      </trkpt>
      <trkpt lat="47.78018" lon="-3.60778">
        <ele>-25.77</ele>
        <time>2019-07-14T12:29:48Z</time>
      </trkpt>
      <trkpt lat="47.78015" lon="-3.60768">
        <ele>-24.44</ele>
        <time>2019-07-14T12:29:50Z</time>
      </trkpt>
      <trkpt lat="47.78015" lon="-3.6076">
        <ele>-22.56</ele>
        <time>2019-07-14T12:29:52Z</time>
      </trkpt>
      <trkpt lat="47.78014" lon="-3.60751">
        <ele>-21.74</ele>
        <time>2019-07-14T12:29:54Z</time>
      </trkpt>
      <trkpt lat="47.78011" lon="-3.60743">
        <ele>-22.23</ele>
        <time>2019-07-14T12:29:56Z</time>
      </trkpt>
      <trkpt lat="47.78004" lon="-3.6074">
        <ele>-24.85</ele>
        <time>2019-07-14T12:29:59Z</time>
      </trkpt>
      <trkpt lat="47.77998" lon="-3.60742">
        <ele>-25.84</ele>
        <time>2019-07-14T12:30:01Z</time>
      </trkpt>
      <trkpt lat="47.7799" lon="-3.60744">
        <ele>-26.94</ele>
        <time>2019-07-14T12:30:03Z</time>
      </trkpt>
      <trkpt lat="47.77982" lon="-3.60744">
        <ele>-28.13</ele>
        <time>2019-07-14T12:30:05Z</time>
      </trkpt>
      <trkpt lat="47.77978" lon="-3.60744">
        <ele>-28.61</ele>
        <time>2019-07-14T12:30:06Z</time>
      </trkpt>
      <trkpt lat="47.77973" lon="-3.60743">
        <ele>-29.03</ele>
        <time>2019-07-14T12:30:07Z</time>
      </trkpt>
      <trkpt lat="47.77965" lon="-3.60742">
        <ele>-30.01</ele>
        <time>2019-07-14T12:30:09Z</time>
      </trkpt>
      <trkpt lat="47.7796" lon="-3.60741">
        <ele>-30.64</ele>
        <time>2019-07-14T12:30:10Z</time>
      </trkpt>
      <trkpt lat="47.77956" lon="-3.6074">
        <ele>-31.6</ele>
        <time>2019-07-14T12:30:11Z</time>
      </trkpt>
      <trkpt lat="47.7795" lon="-3.6074">
        <ele>-32.73</ele>
        <time>2019-07-14T12:30:12Z</time>
      </trkpt>
      <trkpt lat="47.77945" lon="-3.60739">
        <ele>-33.49</ele>
        <time>2019-07-14T12:30:13Z</time>
      </trkpt>
      <trkpt lat="47.7794" lon="-3.60739">
        <ele>-34.27</ele>
        <time>2019-07-14T12:30:14Z</time>
      </trkpt>
      <trkpt lat="47.77935" lon="-3.6074">
        <ele>-34.86</ele>
        <time>2019-07-14T12:30:15Z</time>
      </trkpt>
      <trkpt lat="47.77928" lon="-3.6074">
        <ele>-35.49</ele>
        <time>2019-07-14T12:30:17Z</time>
      </trkpt>
      <trkpt lat="47.77922" lon="-3.60739">
        <ele>-36.8</ele>
        <time>2019-07-14T12:30:19Z</time>
      </trkpt>
      <trkpt lat="47.77917" lon="-3.60738">
        <ele>-38.35</ele>
        <time>2019-07-14T12:30:21Z</time>
      </trkpt>
      <trkpt lat="47.77911" lon="-3.60738">
        <ele>-39.46</ele>
        <time>2019-07-14T12:30:23Z</time>
      </trkpt>
      <trkpt lat="47.77907" lon="-3.60742">
        <ele>-42.08</ele>
        <time>2019-07-14T12:30:25Z</time>
      </trkpt>
      <trkpt lat="47.77903" lon="-3.60747">
        <ele>-43.62</ele>
        <time>2019-07-14T12:30:28Z</time>
      </trkpt>
      <trkpt lat="47.77903" lon="-3.60738">
        <ele>-42.12</ele>
        <time>2019-07-14T12:30:44Z</time>
      </trkpt>
      <trkpt lat="47.77904" lon="-3.6073">
        <ele>-41.92</ele>
        <time>2019-07-14T12:30:47Z</time>
      </trkpt>
      <trkpt lat="47.77904" lon="-3.60723">
        <ele>-41.75</ele>
        <time>2019-07-14T12:30:49Z</time>
      </trkpt>
      <trkpt lat="47.77906" lon="-3.60714">
        <ele>-41.62</ele>
        <time>2019-07-14T12:30:52Z</time>
      </trkpt>
      <trkpt lat="47.77909" lon="-3.60705">
        <ele>-41.77</ele>
        <time>2019-07-14T12:30:54Z</time>
      </trkpt>
      <trkpt lat="47.7791" lon="-3.60693">
        <ele>-41.81</ele>
        <time>2019-07-14T12:30:56Z</time>
      </trkpt>
      <trkpt lat="47.77909" lon="-3.6068">
        <ele>-42.27</ele>
        <time>2019-07-14T12:30:58Z</time>
      </trkpt>
      <trkpt lat="47.77909" lon="-3.60673">
        <ele>-42.65</ele>
        <time>2019-07-14T12:30:59Z</time>
      </trkpt>
      <trkpt lat="47.7791" lon="-3.60665">
        <ele>-42.97</ele>
        <time>2019-07-14T12:31:00Z</time>
      </trkpt>
      <trkpt lat="47.7791" lon="-3.60658">
        <ele>-43.35</ele>
        <time>2019-07-14T12:31:01Z</time>
      </trkpt>
      <trkpt lat="47.77911" lon="-3.60648">
        <ele>-43.67</ele>
        <time>2019-07-14T12:31:02Z</time>
      </trkpt>
      <trkpt lat="47.77911" lon="-3.60638">
        <ele>-44.05</ele>
        <time>2019-07-14T12:31:03Z</time>
      </trkpt>
      <trkpt lat="47.77912" lon="-3.6063">
        <ele>-44.58</ele>
        <time>2019-07-14T12:31:04Z</time>
      </trkpt>
      <trkpt lat="47.77911" lon="-3.6062">
        <ele>-45.62</ele>
        <time>2019-07-14T12:31:06Z</time>
      </trkpt>
      <trkpt lat="47.7791" lon="-3.60613">
        <ele>-47.57</ele>
        <time>2019-07-14T12:31:09Z</time>
      </trkpt>
      <trkpt lat="47.77908" lon="-3.60604">
        <ele>-48.55</ele>
        <time>2019-07-14T12:31:11Z</time>
      </trkpt>
      <trkpt lat="47.77905" lon="-3.60593">
        <ele>-49.27</ele>
        <time>2019-07-14T12:31:13Z</time>
      </trkpt>
      <trkpt lat="47.77903" lon="-3.60587">
        <ele>-49.65</ele>
        <time>2019-07-14T12:31:14Z</time>
      </trkpt>
      <trkpt lat="47.779" lon="-3.6058">
        <ele>-49.97</ele>
        <time>2019-07-14T12:31:15Z</time>
      </trkpt>
      <trkpt lat="47.77898" lon="-3.60574">
        <ele>-50.14</ele>
        <time>2019-07-14T12:31:16Z</time>
      </trkpt>
      <trkpt lat="47.77895" lon="-3.60568">
        <ele>-50.19</ele>
        <time>2019-07-14T12:31:17Z</time>
      </trkpt>
      <trkpt lat="47.77892" lon="-3.60562">
        <ele>-50.42</ele>
        <time>2019-07-14T12:31:18Z</time>
      </trkpt>
      <trkpt lat="47.7789" lon="-3.60555">
        <ele>-51.11</ele>
        <time>2019-07-14T12:31:19Z</time>
      </trkpt>
      <trkpt lat="47.77888" lon="-3.60549">
        <ele>-52.02</ele>
        <time>2019-07-14T12:31:20Z</time>
      </trkpt>
      <trkpt lat="47.77883" lon="-3.6054">
        <ele>-53.62</ele>
        <time>2019-07-14T12:31:22Z</time>
      </trkpt>
      <trkpt lat="47.77877" lon="-3.60534">
        <ele>-54.28</ele>
        <time>2019-07-14T12:31:24Z</time>
      </trkpt>
      <trkpt lat="47.77869" lon="-3.60527">
        <ele>-54.19</ele>
        <time>2019-07-14T12:31:26Z</time>
      </trkpt>
      <trkpt lat="47.77863" lon="-3.60524">
        <ele>-53.59</ele>
        <time>2019-07-14T12:31:28Z</time>
      </trkpt>
      <trkpt lat="47.77858" lon="-3.60521">
        <ele>-53.22</ele>
        <time>2019-07-14T12:31:30Z</time>
      </trkpt>
      <trkpt lat="47.77851" lon="-3.60516">
        <ele>-51.9</ele>
        <time>2019-07-14T12:31:32Z</time>
      </trkpt>
      <trkpt lat="47.77847" lon="-3.60511">
        <ele>-49.2</ele>
        <time>2019-07-14T12:31:35Z</time>
      </trkpt>
      <trkpt lat="47.77842" lon="-3.60509">
        <ele>-46.75</ele>
        <time>2019-07-14T12:31:37Z</time>
      </trkpt>
      <trkpt lat="47.77833" lon="-3.60507">
        <ele>-44.48</ele>
        <time>2019-07-14T12:31:39Z</time>
      </trkpt>
      <trkpt lat="47.77828" lon="-3.60504">
        <ele>-43.94</ele>
        <time>2019-07-14T12:31:40Z</time>
      </trkpt>
      <trkpt lat="47.77823" lon="-3.60501">
        <ele>-43.64</ele>
        <time>2019-07-14T12:31:41Z</time>
      </trkpt>
      <trkpt lat="47.77818" lon="-3.60498">
        <ele>-43.41</ele>
        <time>2019-07-14T12:31:42Z</time>
      </trkpt>
      <trkpt lat="47.77813" lon="-3.60494">
        <ele>-43.48</ele>
        <time>2019-07-14T12:31:43Z</time>
      </trkpt>
      <trkpt lat="47.77808" lon="-3.60491">
        <ele>-43.85</ele>
        <time>2019-07-14T12:31:44Z</time>
      </trkpt>
      <trkpt lat="47.77803" lon="-3.60488">
        <ele>-44.1</ele>
        <time>2019-07-14T12:31:45Z</time>
      </trkpt>
      <trkpt lat="47.77797" lon="-3.60484">
        <ele>-44.25</ele>
        <time>2019-07-14T12:31:46Z</time>
      </trkpt>
      <trkpt lat="47.77791" lon="-3.6048">
        <ele>-44.22</ele>
        <time>2019-07-14T12:31:47Z</time>
      </trkpt>
      <trkpt lat="47.77785" lon="-3.60475">
        <ele>-44.29</ele>
        <time>2019-07-14T12:31:48Z</time>
      </trkpt>
      <trkpt lat="47.77778" lon="-3.60471">
        <ele>-43.95</ele>
        <time>2019-07-14T12:31:49Z</time>
      </trkpt>
      <trkpt lat="47.77771" lon="-3.60467">
        <ele>-43.85</ele>
        <time>2019-07-14T12:31:50Z</time>
      </trkpt>
      <trkpt lat="47.77763" lon="-3.60461">
        <ele>-43.96</ele>
        <time>2019-07-14T12:31:51Z</time>
      </trkpt>
      <trkpt lat="47.77756" lon="-3.60456">
        <ele>-43.79</ele>
        <time>2019-07-14T12:31:52Z</time>
      </trkpt>
      <trkpt lat="47.77749" lon="-3.60451">
        <ele>-43.87</ele>
        <time>2019-07-14T12:31:53Z</time>
      </trkpt>
      <trkpt lat="47.77742" lon="-3.60445">
        <ele>-44.46</ele>
        <time>2019-07-14T12:31:54Z</time>
      </trkpt>
      <trkpt lat="47.77735" lon="-3.60441">
        <ele>-45.06</ele>
        <time>2019-07-14T12:31:55Z</time>
      </trkpt>
      <trkpt lat="47.77728" lon="-3.60435">
        <ele>-45.24</ele>
        <time>2019-07-14T12:31:56Z</time>
      </trkpt>
      <trkpt lat="47.7772" lon="-3.60431">
        <ele>-45.78</ele>
        <time>2019-07-14T12:31:57Z</time>
      </trkpt>
      <trkpt lat="47.77713" lon="-3.60426">
        <ele>-46.15</ele>
        <time>2019-07-14T12:31:58Z</time>
      </trkpt>
      <trkpt lat="47.77707" lon="-3.60422">
        <ele>-46.61</ele>
        <time>2019-07-14T12:31:59Z</time>
      </trkpt>
      <trkpt lat="47.77701" lon="-3.60418">
        <ele>-47.03</ele>
        <time>2019-07-14T12:32:00Z</time>
      </trkpt>
      <trkpt lat="47.77695" lon="-3.60413">
        <ele>-47.23</ele>
        <time>2019-07-14T12:32:01Z</time>
      </trkpt>
      <trkpt lat="47.77689" lon="-3.60409">
        <ele>-47.57</ele>
        <time>2019-07-14T12:32:02Z</time>
      </trkpt>
      <trkpt lat="47.77683" lon="-3.60406">
        <ele>-48.16</ele>
        <time>2019-07-14T12:32:03Z</time>
      </trkpt>
      <trkpt lat="47.77678" lon="-3.60402">
        <ele>-48.55</ele>
        <time>2019-07-14T12:32:04Z</time>
      </trkpt>
      <trkpt lat="47.77674" lon="-3.60399">
        <ele>-48.66</ele>
        <time>2019-07-14T12:32:05Z</time>
      </trkpt>
      <trkpt lat="47.77669" lon="-3.60396">
        <ele>-48.49</ele>
        <time>2019-07-14T12:32:06Z</time>
      </trkpt>
      <trkpt lat="47.77662" lon="-3.6039">
        <ele>-48.23</ele>
        <time>2019-07-14T12:32:08Z</time>
      </trkpt>
      <trkpt lat="47.77656" lon="-3.60382">
        <ele>-46.55</ele>
        <time>2019-07-14T12:32:10Z</time>
      </trkpt>
      <trkpt lat="47.77652" lon="-3.60373">
        <ele>-44.89</ele>
        <time>2019-07-14T12:32:12Z</time>
      </trkpt>
      <trkpt lat="47.7765" lon="-3.60361">
        <ele>-44.52</ele>
        <time>2019-07-14T12:32:14Z</time>
      </trkpt>
      <trkpt lat="47.7765" lon="-3.60349">
        <ele>-44.24</ele>
        <time>2019-07-14T12:32:16Z</time>
      </trkpt>
      <trkpt lat="47.77651" lon="-3.60342">
        <ele>-44.22</ele>
        <time>2019-07-14T12:32:17Z</time>
      </trkpt>
      <trkpt lat="47.77653" lon="-3.60329">
        <ele>-44.37</ele>
        <time>2019-07-14T12:32:19Z</time>
      </trkpt>
      <trkpt lat="47.77654" lon="-3.60321">
        <ele>-44.82</ele>
        <time>2019-07-14T12:32:20Z</time>
      </trkpt>
      <trkpt lat="47.77654" lon="-3.60313">
        <ele>-45.02</ele>
        <time>2019-07-14T12:32:21Z</time>
      </trkpt>
      <trkpt lat="47.77653" lon="-3.60305">
        <ele>-45.16</ele>
        <time>2019-07-14T12:32:22Z</time>
      </trkpt>
      <trkpt lat="47.77653" lon="-3.60296">
        <ele>-45.48</ele>
        <time>2019-07-14T12:32:23Z</time>
      </trkpt>
      <trkpt lat="47.77652" lon="-3.60287">
        <ele>-45.92</ele>
        <time>2019-07-14T12:32:24Z</time>
      </trkpt>
      <trkpt lat="47.77651" lon="-3.60277">
        <ele>-46.54</ele>
        <time>2019-07-14T12:32:25Z</time>
      </trkpt>
      <trkpt lat="47.7765" lon="-3.60268">
        <ele>-47.22</ele>
        <time>2019-07-14T12:32:26Z</time>
      </trkpt>
      <trkpt lat="47.77648" lon="-3.60258">
        <ele>-47.84</ele>
        <time>2019-07-14T12:32:27Z</time>
      </trkpt>
      <trkpt lat="47.77647" lon="-3.60248">
        <ele>-48.45</ele>
        <time>2019-07-14T12:32:28Z</time>
      </trkpt>
      <trkpt lat="47.77646" lon="-3.60239">
        <ele>-48.84</ele>
        <time>2019-07-14T12:32:29Z</time>
      </trkpt>
      <trkpt lat="47.77646" lon="-3.60231">
        <ele>-48.89</ele>
        <time>2019-07-14T12:32:30Z</time>
      </trkpt>
      <trkpt lat="47.77646" lon="-3.60222">
        <ele>-49.05</ele>
        <time>2019-07-14T12:32:31Z</time>
      </trkpt>
      <trkpt lat="47.77647" lon="-3.60213">
        <ele>-49.37</ele>
        <time>2019-07-14T12:32:32Z</time>
      </trkpt>
      <trkpt lat="47.77649" lon="-3.60205">
        <ele>-49.89</ele>
        <time>2019-07-14T12:32:33Z</time>
      </trkpt>
      <trkpt lat="47.77651" lon="-3.60196">
        <ele>-50.54</ele>
        <time>2019-07-14T12:32:34Z</time>
      </trkpt>
      <trkpt lat="47.77653" lon="-3.60188">
        <ele>-51.08</ele>
        <time>2019-07-14T12:32:35Z</time>
      </trkpt>
      <trkpt lat="47.77656" lon="-3.60181">
        <ele>-51.87</ele>
        <time>2019-07-14T12:32:36Z</time>
      </trkpt>
      <trkpt lat="47.77659" lon="-3.60174">
        <ele>-52.25</ele>
        <time>2019-07-14T12:32:37Z</time>
      </trkpt>
      <trkpt lat="47.77663" lon="-3.60167">
        <ele>-52.36</ele>
        <time>2019-07-14T12:32:38Z</time>
      </trkpt>
      <trkpt lat="47.77667" lon="-3.60161">
        <ele>-52.26</ele>
        <time>2019-07-14T12:32:39Z</time>
      </trkpt>
      <trkpt lat="47.7767" lon="-3.60155">
        <ele>-52.37</ele>
        <time>2019-07-14T12:32:40Z</time>
      </trkpt>
      <trkpt lat="47.77673" lon="-3.60144">
        <ele>-51.95</ele>
        <time>2019-07-14T12:32:42Z</time>
      </trkpt>
      <trkpt lat="47.77674" lon="-3.60137">
        <ele>-51.5</ele>
        <time>2019-07-14T12:32:43Z</time>
      </trkpt>
      <trkpt lat="47.77677" lon="-3.60126">
        <ele>-50.66</ele>
        <time>2019-07-14T12:32:45Z</time>
      </trkpt>
      <trkpt lat="47.7768" lon="-3.60114">
        <ele>-49.86</ele>
        <time>2019-07-14T12:32:47Z</time>
      </trkpt>
      <trkpt lat="47.77682" lon="-3.60102">
        <ele>-49.08</ele>
        <time>2019-07-14T12:32:49Z</time>
      </trkpt>
      <trkpt lat="47.77682" lon="-3.60089">
        <ele>-48.56</ele>
        <time>2019-07-14T12:32:51Z</time>
      </trkpt>
      <trkpt lat="47.77681" lon="-3.60077">
        <ele>-48.31</ele>
        <time>2019-07-14T12:32:53Z</time>
      </trkpt>
      <trkpt lat="47.77681" lon="-3.60065">
        <ele>-47.56</ele>
        <time>2019-07-14T12:32:55Z</time>
      </trkpt>
      <trkpt lat="47.77681" lon="-3.60052">
        <ele>-46.6</ele>
        <time>2019-07-14T12:32:57Z</time>
      </trkpt>
      <trkpt lat="47.77681" lon="-3.60039">
        <ele>-45.69</ele>
        <time>2019-07-14T12:32:59Z</time>
      </trkpt>
      <trkpt lat="47.7768" lon="-3.60026">
        <ele>-44.74</ele>
        <time>2019-07-14T12:33:01Z</time>
      </trkpt>
      <trkpt lat="47.7768" lon="-3.60013">
        <ele>-43.62</ele>
        <time>2019-07-14T12:33:03Z</time>
      </trkpt>
      <trkpt lat="47.77679" lon="-3.60002">
        <ele>-42.28</ele>
        <time>2019-07-14T12:33:05Z</time>
      </trkpt>
      <trkpt lat="47.77679" lon="-3.59991">
        <ele>-42.22</ele>
        <time>2019-07-14T12:33:07Z</time>
      </trkpt>
      <trkpt lat="47.77679" lon="-3.59982">
        <ele>-42.7</ele>
        <time>2019-07-14T12:33:09Z</time>
      </trkpt>
      <trkpt lat="47.77678" lon="-3.59974">
        <ele>-42.7</ele>
        <time>2019-07-14T12:33:11Z</time>
      </trkpt>
      <trkpt lat="47.77678" lon="-3.59964">
        <ele>-42.09</ele>
        <time>2019-07-14T12:33:13Z</time>
      </trkpt>
      <trkpt lat="47.77677" lon="-3.59953">
        <ele>-41.65</ele>
        <time>2019-07-14T12:33:15Z</time>
      </trkpt>
      <trkpt lat="47.77677" lon="-3.59942">
        <ele>-41.56</ele>
        <time>2019-07-14T12:33:17Z</time>
      </trkpt>
      <trkpt lat="47.77677" lon="-3.59929">
        <ele>-41.33</ele>
        <time>2019-07-14T12:33:19Z</time>
      </trkpt>
      <trkpt lat="47.77678" lon="-3.59921">
        <ele>-41.74</ele>
        <time>2019-07-14T12:33:20Z</time>
      </trkpt>
      <trkpt lat="47.77678" lon="-3.59909">
        <ele>-42.15</ele>
        <time>2019-07-14T12:33:22Z</time>
      </trkpt>
      <trkpt lat="47.77678" lon="-3.59897">
        <ele>-43.56</ele>
        <time>2019-07-14T12:33:24Z</time>
      </trkpt>
      <trkpt lat="47.77678" lon="-3.59886">
        <ele>-44.41</ele>
        <time>2019-07-14T12:33:26Z</time>
      </trkpt>
      <trkpt lat="47.77679" lon="-3.59874">
        <ele>-44.39</ele>
        <time>2019-07-14T12:33:28Z</time>
      </trkpt>
      <trkpt lat="47.7768" lon="-3.59861">
        <ele>-44.25</ele>
        <time>2019-07-14T12:33:30Z</time>
      </trkpt>
      <trkpt lat="47.7768" lon="-3.59848">
        <ele>-43.84</ele>
        <time>2019-07-14T12:33:32Z</time>
      </trkpt>
      <trkpt lat="47.7768" lon="-3.59841">
        <ele>-43.54</ele>
        <time>2019-07-14T12:33:33Z</time>
      </trkpt>
      <trkpt lat="47.7768" lon="-3.59834">
        <ele>-41.98</ele>
        <time>2019-07-14T12:33:34Z</time>
      </trkpt>
      <trkpt lat="47.7768" lon="-3.59827">
        <ele>-41.09</ele>
        <time>2019-07-14T12:33:35Z</time>
      </trkpt>
      <trkpt lat="47.77681" lon="-3.59814">
        <ele>-39.98</ele>
        <time>2019-07-14T12:33:37Z</time>
      </trkpt>
      <trkpt lat="47.77681" lon="-3.59807">
        <ele>-39.79</ele>
        <time>2019-07-14T12:33:38Z</time>
      </trkpt>
      <trkpt lat="47.77683" lon="-3.59794">
        <ele>-39.51</ele>
        <time>2019-07-14T12:33:40Z</time>
      </trkpt>
      <trkpt lat="47.77683" lon="-3.59781">
        <ele>-39.19</ele>
        <time>2019-07-14T12:33:42Z</time>
      </trkpt>
      <trkpt lat="47.77684" lon="-3.59774">
        <ele>-39.07</ele>
        <time>2019-07-14T12:33:43Z</time>
      </trkpt>
      <trkpt lat="47.77684" lon="-3.59767">
        <ele>-38.96</ele>
        <time>2019-07-14T12:33:44Z</time>
      </trkpt>
      <trkpt lat="47.77685" lon="-3.5976">
        <ele>-38.86</ele>
        <time>2019-07-14T12:33:45Z</time>
      </trkpt>
      <trkpt lat="47.77685" lon="-3.59753">
        <ele>-38.48</ele>
        <time>2019-07-14T12:33:46Z</time>
      </trkpt>
      <trkpt lat="47.77686" lon="-3.59746">
        <ele>-38.08</ele>
        <time>2019-07-14T12:33:47Z</time>
      </trkpt>
      <trkpt lat="47.77686" lon="-3.59739">
        <ele>-37.61</ele>
        <time>2019-07-14T12:33:48Z</time>
      </trkpt>
      <trkpt lat="47.77686" lon="-3.59726">
        <ele>-37.05</ele>
        <time>2019-07-14T12:33:50Z</time>
      </trkpt>
      <trkpt lat="47.77687" lon="-3.59713">
        <ele>-36.9</ele>
        <time>2019-07-14T12:33:52Z</time>
      </trkpt>
      <trkpt lat="47.77687" lon="-3.59706">
        <ele>-36.98</ele>
        <time>2019-07-14T12:33:53Z</time>
      </trkpt>
      <trkpt lat="47.77687" lon="-3.59699">
        <ele>-37.07</ele>
        <time>2019-07-14T12:33:54Z</time>
      </trkpt>
      <trkpt lat="47.77688" lon="-3.59692">
        <ele>-37.38</ele>
        <time>2019-07-14T12:33:55Z</time>
      </trkpt>
      <trkpt lat="47.77688" lon="-3.59685">
        <ele>-37.61</ele>
        <time>2019-07-14T12:33:56Z</time>
      </trkpt>
      <trkpt lat="47.77688" lon="-3.59678">
        <ele>-37.61</ele>
        <time>2019-07-14T12:33:57Z</time>
      </trkpt>
      <trkpt lat="47.77689" lon="-3.59671">
        <ele>-37.26</ele>
        <time>2019-07-14T12:33:58Z</time>
      </trkpt>
      <trkpt lat="47.77689" lon="-3.59664">
        <ele>-37.02</ele>
        <time>2019-07-14T12:33:59Z</time>
      </trkpt>
      <trkpt lat="47.77689" lon="-3.59657">
        <ele>-36.87</ele>
        <time>2019-07-14T12:34:00Z</time>
      </trkpt>
      <trkpt lat="47.77689" lon="-3.5965">
        <ele>-36.62</ele>
        <time>2019-07-14T12:34:01Z</time>
      </trkpt>
      <trkpt lat="47.77688" lon="-3.59643">
        <ele>-36.26</ele>
        <time>2019-07-14T12:34:02Z</time>
      </trkpt>
      <trkpt lat="47.77688" lon="-3.59636">
        <ele>-36.02</ele>
        <time>2019-07-14T12:34:03Z</time>
      </trkpt>
      <trkpt lat="47.77689" lon="-3.59628">
        <ele>-35.73</ele>
        <time>2019-07-14T12:34:04Z</time>
      </trkpt>
      <trkpt lat="47.77688" lon="-3.59621">
        <ele>-35.44</ele>
        <time>2019-07-14T12:34:05Z</time>
      </trkpt>
      <trkpt lat="47.77688" lon="-3.59614">
        <ele>-35.07</ele>
        <time>2019-07-14T12:34:06Z</time>
      </trkpt>
      <trkpt lat="47.77688" lon="-3.59606">
        <ele>-34.82</ele>
        <time>2019-07-14T12:34:07Z</time>
      </trkpt>
      <trkpt lat="47.77688" lon="-3.59598">
        <ele>-34.67</ele>
        <time>2019-07-14T12:34:08Z</time>
      </trkpt>
      <trkpt lat="47.77687" lon="-3.5959">
        <ele>-34.7</ele>
        <time>2019-07-14T12:34:09Z</time>
      </trkpt>
      <trkpt lat="47.77687" lon="-3.59582">
        <ele>-34.57</ele>
        <time>2019-07-14T12:34:10Z</time>
      </trkpt>
      <trkpt lat="47.77687" lon="-3.59574">
        <ele>-34.74</ele>
        <time>2019-07-14T12:34:11Z</time>
      </trkpt>
      <trkpt lat="47.77687" lon="-3.59567">
        <ele>-34.86</ele>
        <time>2019-07-14T12:34:12Z</time>
      </trkpt>
      <trkpt lat="47.77687" lon="-3.59559">
        <ele>-35.11</ele>
        <time>2019-07-14T12:34:13Z</time>
      </trkpt>
      <trkpt lat="47.77687" lon="-3.59551">
        <ele>-35.04</ele>
        <time>2019-07-14T12:34:14Z</time>
      </trkpt>
      <trkpt lat="47.77687" lon="-3.59542">
        <ele>-34.95</ele>
        <time>2019-07-14T12:34:15Z</time>
      </trkpt>
      <trkpt lat="47.77687" lon="-3.59535">
        <ele>-34.99</ele>
        <time>2019-07-14T12:34:16Z</time>
      </trkpt>
      <trkpt lat="47.77687" lon="-3.59527">
        <ele>-35.08</ele>
        <time>2019-07-14T12:34:17Z</time>
      </trkpt>
      <trkpt lat="47.77687" lon="-3.59519">
        <ele>-34.89</ele>
        <time>2019-07-14T12:34:18Z</time>
      </trkpt>
      <trkpt lat="47.77687" lon="-3.59511">
        <ele>-34.7</ele>
        <time>2019-07-14T12:34:19Z</time>
      </trkpt>
      <trkpt lat="47.77687" lon="-3.59503">
        <ele>-34.64</ele>
        <time>2019-07-14T12:34:20Z</time>
      </trkpt>
      <trkpt lat="47.77687" lon="-3.59494">
        <ele>-34.69</ele>
        <time>2019-07-14T12:34:21Z</time>
      </trkpt>
      <trkpt lat="47.77687" lon="-3.59486">
        <ele>-34.78</ele>
        <time>2019-07-14T12:34:22Z</time>
      </trkpt>
      <trkpt lat="47.77687" lon="-3.59479">
        <ele>-34.8</ele>
        <time>2019-07-14T12:34:23Z</time>
      </trkpt>
      <trkpt lat="47.77687" lon="-3.59465">
        <ele>-35.13</ele>
        <time>2019-07-14T12:34:25Z</time>
      </trkpt>
      <trkpt lat="47.77688" lon="-3.59458">
        <ele>-34.84</ele>
        <time>2019-07-14T12:34:26Z</time>
      </trkpt>
      <trkpt lat="47.7769" lon="-3.59451">
        <ele>-34.96</ele>
        <time>2019-07-14T12:34:27Z</time>
      </trkpt>
      <trkpt lat="47.77692" lon="-3.59444">
        <ele>-34.93</ele>
        <time>2019-07-14T12:34:28Z</time>
      </trkpt>
      <trkpt lat="47.77694" lon="-3.59437">
        <ele>-34.99</ele>
        <time>2019-07-14T12:34:29Z</time>
      </trkpt>
      <trkpt lat="47.77697" lon="-3.59431">
        <ele>-34.79</ele>
        <time>2019-07-14T12:34:30Z</time>
      </trkpt>
      <trkpt lat="47.777" lon="-3.59424">
        <ele>-34.53</ele>
        <time>2019-07-14T12:34:31Z</time>
      </trkpt>
      <trkpt lat="47.77703" lon="-3.59417">
        <ele>-34.45</ele>
        <time>2019-07-14T12:34:32Z</time>
      </trkpt>
      <trkpt lat="47.77706" lon="-3.59411">
        <ele>-34.35</ele>
        <time>2019-07-14T12:34:33Z</time>
      </trkpt>
      <trkpt lat="47.77709" lon="-3.59406">
        <ele>-33.76</ele>
        <time>2019-07-14T12:34:34Z</time>
      </trkpt>
      <trkpt lat="47.77713" lon="-3.59401">
        <ele>-33.31</ele>
        <time>2019-07-14T12:34:35Z</time>
      </trkpt>
      <trkpt lat="47.77717" lon="-3.59399">
        <ele>-32.82</ele>
        <time>2019-07-14T12:34:36Z</time>
      </trkpt>
      <trkpt lat="47.77722" lon="-3.59397">
        <ele>-32.25</ele>
        <time>2019-07-14T12:34:37Z</time>
      </trkpt>
      <trkpt lat="47.77727" lon="-3.59395">
        <ele>-31.45</ele>
        <time>2019-07-14T12:34:38Z</time>
      </trkpt>
      <trkpt lat="47.77732" lon="-3.59394">
        <ele>-30.65</ele>
        <time>2019-07-14T12:34:39Z</time>
      </trkpt>
      <trkpt lat="47.77737" lon="-3.59392">
        <ele>-29.71</ele>
        <time>2019-07-14T12:34:40Z</time>
      </trkpt>
      <trkpt lat="47.77742" lon="-3.59391">
        <ele>-28.8</ele>
        <time>2019-07-14T12:34:41Z</time>
      </trkpt>
      <trkpt lat="47.77747" lon="-3.59389">
        <ele>-27.97</ele>
        <time>2019-07-14T12:34:42Z</time>
      </trkpt>
      <trkpt lat="47.77752" lon="-3.59386">
        <ele>-26.18</ele>
        <time>2019-07-14T12:34:43Z</time>
      </trkpt>
      <trkpt lat="47.77757" lon="-3.59385">
        <ele>-26.06</ele>
        <time>2019-07-14T12:34:44Z</time>
      </trkpt>
      <trkpt lat="47.77762" lon="-3.59385">
        <ele>-26.31</ele>
        <time>2019-07-14T12:34:45Z</time>
      </trkpt>
      <trkpt lat="47.77767" lon="-3.59384">
        <ele>-26.8</ele>
        <time>2019-07-14T12:34:46Z</time>
      </trkpt>
      <trkpt lat="47.77772" lon="-3.59383">
        <ele>-27.37</ele>
        <time>2019-07-14T12:34:47Z</time>
      </trkpt>
      <trkpt lat="47.77777" lon="-3.59382">
        <ele>-27.82</ele>
        <time>2019-07-14T12:34:48Z</time>
      </trkpt>
      <trkpt lat="47.77782" lon="-3.59381">
        <ele>-28.16</ele>
        <time>2019-07-14T12:34:49Z</time>
      </trkpt>
      <trkpt lat="47.77787" lon="-3.5938">
        <ele>-28.13</ele>
        <time>2019-07-14T12:34:50Z</time>
      </trkpt>
      <trkpt lat="47.77792" lon="-3.59379">
        <ele>-28.26</ele>
        <time>2019-07-14T12:34:51Z</time>
      </trkpt>
      <trkpt lat="47.77797" lon="-3.59377">
        <ele>-28.23</ele>
        <time>2019-07-14T12:34:52Z</time>
      </trkpt>
      <trkpt lat="47.77802" lon="-3.59375">
        <ele>-27.87</ele>
        <time>2019-07-14T12:34:53Z</time>
      </trkpt>
      <trkpt lat="47.77807" lon="-3.59374">
        <ele>-27.9</ele>
        <time>2019-07-14T12:34:54Z</time>
      </trkpt>
      <trkpt lat="47.77811" lon="-3.59372">
        <ele>-27.42</ele>
        <time>2019-07-14T12:34:55Z</time>
      </trkpt>
      <trkpt lat="47.77816" lon="-3.59371">
        <ele>-27.06</ele>
        <time>2019-07-14T12:34:56Z</time>
      </trkpt>
      <trkpt lat="47.77821" lon="-3.59369">
        <ele>-26.89</ele>
        <time>2019-07-14T12:34:57Z</time>
      </trkpt>
      <trkpt lat="47.77826" lon="-3.59368">
        <ele>-26.48</ele>
        <time>2019-07-14T12:34:58Z</time>
      </trkpt>
      <trkpt lat="47.77831" lon="-3.59366">
        <ele>-26.15</ele>
        <time>2019-07-14T12:34:59Z</time>
      </trkpt>
      <trkpt lat="47.77835" lon="-3.59364">
        <ele>-25.7</ele>
        <time>2019-07-14T12:35:00Z</time>
      </trkpt>
      <trkpt lat="47.7784" lon="-3.59362">
        <ele>-25.5</ele>
        <time>2019-07-14T12:35:01Z</time>
      </trkpt>
      <trkpt lat="47.77845" lon="-3.59358">
        <ele>-25.93</ele>
        <time>2019-07-14T12:35:02Z</time>
      </trkpt>
      <trkpt lat="47.7785" lon="-3.59355">
        <ele>-26.06</ele>
        <time>2019-07-14T12:35:03Z</time>
      </trkpt>
      <trkpt lat="47.77854" lon="-3.59352">
        <ele>-26.03</ele>
        <time>2019-07-14T12:35:04Z</time>
      </trkpt>
      <trkpt lat="47.77859" lon="-3.5935">
        <ele>-26.02</ele>
        <time>2019-07-14T12:35:05Z</time>
      </trkpt>
      <trkpt lat="47.77864" lon="-3.59348">
        <ele>-25.73</ele>
        <time>2019-07-14T12:35:06Z</time>
      </trkpt>
      <trkpt lat="47.77869" lon="-3.59345">
        <ele>-25.3</ele>
        <time>2019-07-14T12:35:07Z</time>
      </trkpt>
      <trkpt lat="47.77873" lon="-3.59342">
        <ele>-24.89</ele>
        <time>2019-07-14T12:35:08Z</time>
      </trkpt>
      <trkpt lat="47.77877" lon="-3.59339">
        <ele>-24.27</ele>
        <time>2019-07-14T12:35:09Z</time>
      </trkpt>
      <trkpt lat="47.77882" lon="-3.59337">
        <ele>-24.23</ele>
        <time>2019-07-14T12:35:10Z</time>
      </trkpt>
      <trkpt lat="47.77887" lon="-3.59334">
        <ele>-24.22</ele>
        <time>2019-07-14T12:35:11Z</time>
      </trkpt>
      <trkpt lat="47.77891" lon="-3.59331">
        <ele>-24.42</ele>
        <time>2019-07-14T12:35:12Z</time>
      </trkpt>
      <trkpt lat="47.77896" lon="-3.59328">
        <ele>-24.91</ele>
        <time>2019-07-14T12:35:13Z</time>
      </trkpt>
      <trkpt lat="47.77901" lon="-3.59324">
        <ele>-25.33</ele>
        <time>2019-07-14T12:35:14Z</time>
      </trkpt>
      <trkpt lat="47.77906" lon="-3.5932">
        <ele>-25.39</ele>
        <time>2019-07-14T12:35:15Z</time>
      </trkpt>
      <trkpt lat="47.7791" lon="-3.59317">
        <ele>-25.47</ele>
        <time>2019-07-14T12:35:16Z</time>
      </trkpt>
      <trkpt lat="47.77915" lon="-3.59313">
        <ele>-25.43</ele>
        <time>2019-07-14T12:35:17Z</time>
      </trkpt>
      <trkpt lat="47.77919" lon="-3.59309">
        <ele>-25.42</ele>
        <time>2019-07-14T12:35:18Z</time>
      </trkpt>
      <trkpt lat="47.77923" lon="-3.59306">
        <ele>-25.55</ele>
        <time>2019-07-14T12:35:19Z</time>
      </trkpt>
      <trkpt lat="47.77928" lon="-3.59303">
        <ele>-25.31</ele>
        <time>2019-07-14T12:35:20Z</time>
      </trkpt>
      <trkpt lat="47.77933" lon="-3.59299">
        <ele>-24.96</ele>
        <time>2019-07-14T12:35:21Z</time>
      </trkpt>
      <trkpt lat="47.77937" lon="-3.59297">
        <ele>-24.72</ele>
        <time>2019-07-14T12:35:22Z</time>
      </trkpt>
      <trkpt lat="47.77942" lon="-3.59294">
        <ele>-24.36</ele>
        <time>2019-07-14T12:35:23Z</time>
      </trkpt>
      <trkpt lat="47.77946" lon="-3.59292">
        <ele>-23.91</ele>
        <time>2019-07-14T12:35:24Z</time>
      </trkpt>
      <trkpt lat="47.77951" lon="-3.59289">
        <ele>-23.63</ele>
        <time>2019-07-14T12:35:25Z</time>
      </trkpt>
      <trkpt lat="47.77955" lon="-3.59286">
        <ele>-23.41</ele>
        <time>2019-07-14T12:35:26Z</time>
      </trkpt>
      <trkpt lat="47.7796" lon="-3.59284">
        <ele>-22.85</ele>
        <time>2019-07-14T12:35:27Z</time>
      </trkpt>
      <trkpt lat="47.77965" lon="-3.59282">
        <ele>-22.4</ele>
        <time>2019-07-14T12:35:28Z</time>
      </trkpt>
      <trkpt lat="47.77969" lon="-3.5928">
        <ele>-22.41</ele>
        <time>2019-07-14T12:35:29Z</time>
      </trkpt>
      <trkpt lat="47.77975" lon="-3.59279">
        <ele>-22.06</ele>
        <time>2019-07-14T12:35:30Z</time>
      </trkpt>
      <trkpt lat="47.77979" lon="-3.59277">
        <ele>-21.47</ele>
        <time>2019-07-14T12:35:31Z</time>
      </trkpt>
      <trkpt lat="47.77984" lon="-3.59276">
        <ele>-20.94</ele>
        <time>2019-07-14T12:35:32Z</time>
      </trkpt>
      <trkpt lat="47.77989" lon="-3.59274">
        <ele>-20.22</ele>
        <time>2019-07-14T12:35:33Z</time>
      </trkpt>
      <trkpt lat="47.77994" lon="-3.59273">
        <ele>-19.58</ele>
        <time>2019-07-14T12:35:34Z</time>
      </trkpt>
      <trkpt lat="47.77999" lon="-3.59272">
        <ele>-19.25</ele>
        <time>2019-07-14T12:35:35Z</time>
      </trkpt>
      <trkpt lat="47.78004" lon="-3.5927">
        <ele>-19.08</ele>
        <time>2019-07-14T12:35:36Z</time>
      </trkpt>
      <trkpt lat="47.78008" lon="-3.5927">
        <ele>-18.89</ele>
        <time>2019-07-14T12:35:37Z</time>
      </trkpt>
      <trkpt lat="47.78013" lon="-3.59268">
        <ele>-18.84</ele>
        <time>2019-07-14T12:35:38Z</time>
      </trkpt>
      <trkpt lat="47.78018" lon="-3.59267">
        <ele>-18.61</ele>
        <time>2019-07-14T12:35:39Z</time>
      </trkpt>
      <trkpt lat="47.78023" lon="-3.59265">
        <ele>-18.26</ele>
        <time>2019-07-14T12:35:40Z</time>
      </trkpt>
      <trkpt lat="47.78028" lon="-3.59264">
        <ele>-17.95</ele>
        <time>2019-07-14T12:35:41Z</time>
      </trkpt>
      <trkpt lat="47.78033" lon="-3.59263">
        <ele>-17.71</ele>
        <time>2019-07-14T12:35:42Z</time>
      </trkpt>
      <trkpt lat="47.78038" lon="-3.59261">
        <ele>-17.01</ele>
        <time>2019-07-14T12:35:43Z</time>
      </trkpt>
      <trkpt lat="47.78043" lon="-3.5926">
        <ele>-16.59</ele>
        <time>2019-07-14T12:35:44Z</time>
      </trkpt>
      <trkpt lat="47.78048" lon="-3.59259">
        <ele>-15.91</ele>
        <time>2019-07-14T12:35:45Z</time>
      </trkpt>
      <trkpt lat="47.78053" lon="-3.59257">
        <ele>-15.56</ele>
        <time>2019-07-14T12:35:46Z</time>
      </trkpt>
      <trkpt lat="47.78058" lon="-3.59255">
        <ele>-15.39</ele>
        <time>2019-07-14T12:35:47Z</time>
      </trkpt>
      <trkpt lat="47.78063" lon="-3.59253">
        <ele>-15.26</ele>
        <time>2019-07-14T12:35:48Z</time>
      </trkpt>
      <trkpt lat="47.78068" lon="-3.59251">
        <ele>-15.3</ele>
        <time>2019-07-14T12:35:49Z</time>
      </trkpt>
      <trkpt lat="47.78072" lon="-3.59249">
        <ele>-15.38</ele>
        <time>2019-07-14T12:35:50Z</time>
      </trkpt>
      <trkpt lat="47.78077" lon="-3.59247">
        <ele>-15.26</ele>
        <time>2019-07-14T12:35:51Z</time>
      </trkpt>
      <trkpt lat="47.78081" lon="-3.59245">
        <ele>-14.88</ele>
        <time>2019-07-14T12:35:52Z</time>
      </trkpt>
      <trkpt lat="47.78086" lon="-3.59242">
        <ele>-14.41</ele>
        <time>2019-07-14T12:35:53Z</time>
      </trkpt>
      <trkpt lat="47.78091" lon="-3.5924">
        <ele>-13.99</ele>
        <time>2019-07-14T12:35:54Z</time>
      </trkpt>
      <trkpt lat="47.78095" lon="-3.59237">
        <ele>-13.59</ele>
        <time>2019-07-14T12:35:55Z</time>
      </trkpt>
      <trkpt lat="47.78099" lon="-3.59234">
        <ele>-13.25</ele>
        <time>2019-07-14T12:35:56Z</time>
      </trkpt>
      <trkpt lat="47.78104" lon="-3.5923">
        <ele>-12.94</ele>
        <time>2019-07-14T12:35:57Z</time>
      </trkpt>
      <trkpt lat="47.78108" lon="-3.59226">
        <ele>-12.64</ele>
        <time>2019-07-14T12:35:58Z</time>
      </trkpt>
      <trkpt lat="47.78112" lon="-3.59222">
        <ele>-12.34</ele>
        <time>2019-07-14T12:35:59Z</time>
      </trkpt>
      <trkpt lat="47.78116" lon="-3.59218">
        <ele>-12.39</ele>
        <time>2019-07-14T12:36:00Z</time>
      </trkpt>
      <trkpt lat="47.7812" lon="-3.59214">
        <ele>-12.06</ele>
        <time>2019-07-14T12:36:01Z</time>
      </trkpt>
      <trkpt lat="47.78124" lon="-3.59209">
        <ele>-11.61</ele>
        <time>2019-07-14T12:36:02Z</time>
      </trkpt>
      <trkpt lat="47.78127" lon="-3.59204">
        <ele>-11.47</ele>
        <time>2019-07-14T12:36:03Z</time>
      </trkpt>
      <trkpt lat="47.78131" lon="-3.59199">
        <ele>-11.5</ele>
        <time>2019-07-14T12:36:04Z</time>
      </trkpt>
      <trkpt lat="47.78134" lon="-3.59194">
        <ele>-11.51</ele>
        <time>2019-07-14T12:36:05Z</time>
      </trkpt>
      <trkpt lat="47.78137" lon="-3.59189">
        <ele>-11.3</ele>
        <time>2019-07-14T12:36:06Z</time>
      </trkpt>
      <trkpt lat="47.7814" lon="-3.59184">
        <ele>-11.03</ele>
        <time>2019-07-14T12:36:07Z</time>
      </trkpt>
      <trkpt lat="47.78144" lon="-3.59178">
        <ele>-10.67</ele>
        <time>2019-07-14T12:36:08Z</time>
      </trkpt>
      <trkpt lat="47.78147" lon="-3.59173">
        <ele>-9.72</ele>
        <time>2019-07-14T12:36:09Z</time>
      </trkpt>
      <trkpt lat="47.7815" lon="-3.59167">
        <ele>-9.15</ele>
        <time>2019-07-14T12:36:10Z</time>
      </trkpt>
      <trkpt lat="47.78153" lon="-3.59161">
        <ele>-8.42</ele>
        <time>2019-07-14T12:36:11Z</time>
      </trkpt>
      <trkpt lat="47.78156" lon="-3.59154">
        <ele>-8.07</ele>
        <time>2019-07-14T12:36:12Z</time>
      </trkpt>
      <trkpt lat="47.7816" lon="-3.59148">
        <ele>-7.89</ele>
        <time>2019-07-14T12:36:13Z</time>
      </trkpt>
      <trkpt lat="47.78163" lon="-3.59141">
        <ele>-7.69</ele>
        <time>2019-07-14T12:36:14Z</time>
      </trkpt>
      <trkpt lat="47.78166" lon="-3.59135">
        <ele>-7.57</ele>
        <time>2019-07-14T12:36:15Z</time>
      </trkpt>
      <trkpt lat="47.78169" lon="-3.59128">
        <ele>-7.39</ele>
        <time>2019-07-14T12:36:16Z</time>
      </trkpt>
      <trkpt lat="47.78172" lon="-3.59121">
        <ele>-7.47</ele>
        <time>2019-07-14T12:36:17Z</time>
      </trkpt>
      <trkpt lat="47.78175" lon="-3.59115">
        <ele>-7.85</ele>
        <time>2019-07-14T12:36:18Z</time>
      </trkpt>
      <trkpt lat="47.78178" lon="-3.59108">
        <ele>-8.17</ele>
        <time>2019-07-14T12:36:19Z</time>
      </trkpt>
      <trkpt lat="47.78182" lon="-3.59102">
        <ele>-8.62</ele>
        <time>2019-07-14T12:36:20Z</time>
      </trkpt>
      <trkpt lat="47.78185" lon="-3.59095">
        <ele>-8.96</ele>
        <time>2019-07-14T12:36:21Z</time>
      </trkpt>
      <trkpt lat="47.78189" lon="-3.59089">
        <ele>-9.28</ele>
        <time>2019-07-14T12:36:22Z</time>
      </trkpt>
      <trkpt lat="47.78192" lon="-3.59083">
        <ele>-9.72</ele>
        <time>2019-07-14T12:36:23Z</time>
      </trkpt>
      <trkpt lat="47.78195" lon="-3.59077">
        <ele>-10.13</ele>
        <time>2019-07-14T12:36:24Z</time>
      </trkpt>
      <trkpt lat="47.78198" lon="-3.5907">
        <ele>-11.03</ele>
        <time>2019-07-14T12:36:25Z</time>
      </trkpt>
      <trkpt lat="47.78201" lon="-3.59064">
        <ele>-12</ele>
        <time>2019-07-14T12:36:26Z</time>
      </trkpt>
      <trkpt lat="47.78204" lon="-3.59058">
        <ele>-12.57</ele>
        <time>2019-07-14T12:36:27Z</time>
      </trkpt>
      <trkpt lat="47.78209" lon="-3.59047">
        <ele>-12.77</ele>
        <time>2019-07-14T12:36:29Z</time>
      </trkpt>
      <trkpt lat="47.78218" lon="-3.59043">
        <ele>-12.42</ele>
        <time>2019-07-14T12:36:31Z</time>
      </trkpt>
      <trkpt lat="47.78222" lon="-3.59043">
        <ele>-12.2</ele>
        <time>2019-07-14T12:36:32Z</time>
      </trkpt>
      <trkpt lat="47.78227" lon="-3.59044">
        <ele>-12.07</ele>
        <time>2019-07-14T12:36:33Z</time>
      </trkpt>
      <trkpt lat="47.78232" lon="-3.59046">
        <ele>-11.61</ele>
        <time>2019-07-14T12:36:34Z</time>
      </trkpt>
      <trkpt lat="47.78236" lon="-3.59048">
        <ele>-11.12</ele>
        <time>2019-07-14T12:36:35Z</time>
      </trkpt>
      <trkpt lat="47.78242" lon="-3.5905">
        <ele>-10.9</ele>
        <time>2019-07-14T12:36:36Z</time>
      </trkpt>
      <trkpt lat="47.78247" lon="-3.59053">
        <ele>-11.12</ele>
        <time>2019-07-14T12:36:37Z</time>
      </trkpt>
      <trkpt lat="47.78252" lon="-3.59055">
        <ele>-11.18</ele>
        <time>2019-07-14T12:36:38Z</time>
      </trkpt>
      <trkpt lat="47.78258" lon="-3.59056">
        <ele>-11.27</ele>
        <time>2019-07-14T12:36:39Z</time>
      </trkpt>
      <trkpt lat="47.78263" lon="-3.59057">
        <ele>-11.3</ele>
        <time>2019-07-14T12:36:40Z</time>
      </trkpt>
      <trkpt lat="47.78268" lon="-3.59059">
        <ele>-11.31</ele>
        <time>2019-07-14T12:36:41Z</time>
      </trkpt>
      <trkpt lat="47.78274" lon="-3.5906">
        <ele>-11.17</ele>
        <time>2019-07-14T12:36:42Z</time>
      </trkpt>
      <trkpt lat="47.7828" lon="-3.59062">
        <ele>-11.06</ele>
        <time>2019-07-14T12:36:43Z</time>
      </trkpt>
      <trkpt lat="47.78286" lon="-3.59063">
        <ele>-11.03</ele>
        <time>2019-07-14T12:36:44Z</time>
      </trkpt>
      <trkpt lat="47.78292" lon="-3.59064">
        <ele>-10.81</ele>
        <time>2019-07-14T12:36:45Z</time>
      </trkpt>
      <trkpt lat="47.78299" lon="-3.59064">
        <ele>-10.88</ele>
        <time>2019-07-14T12:36:46Z</time>
      </trkpt>
      <trkpt lat="47.78305" lon="-3.59063">
        <ele>-10.55</ele>
        <time>2019-07-14T12:36:47Z</time>
      </trkpt>
      <trkpt lat="47.78312" lon="-3.59061">
        <ele>-10.66</ele>
        <time>2019-07-14T12:36:48Z</time>
      </trkpt>
      <trkpt lat="47.78319" lon="-3.59058">
        <ele>-10.63</ele>
        <time>2019-07-14T12:36:49Z</time>
      </trkpt>
      <trkpt lat="47.78325" lon="-3.59054">
        <ele>-10.83</ele>
        <time>2019-07-14T12:36:50Z</time>
      </trkpt>
      <trkpt lat="47.78331" lon="-3.59049">
        <ele>-11.45</ele>
        <time>2019-07-14T12:36:51Z</time>
      </trkpt>
      <trkpt lat="47.78338" lon="-3.59046">
        <ele>-12.12</ele>
        <time>2019-07-14T12:36:52Z</time>
      </trkpt>
      <trkpt lat="47.78344" lon="-3.59042">
        <ele>-12.82</ele>
        <time>2019-07-14T12:36:53Z</time>
      </trkpt>
      <trkpt lat="47.7835" lon="-3.5904">
        <ele>-13.37</ele>
        <time>2019-07-14T12:36:54Z</time>
      </trkpt>
      <trkpt lat="47.78357" lon="-3.59039">
        <ele>-13.75</ele>
        <time>2019-07-14T12:36:55Z</time>
      </trkpt>
      <trkpt lat="47.78363" lon="-3.59037">
        <ele>-14.07</ele>
        <time>2019-07-14T12:36:56Z</time>
      </trkpt>
      <trkpt lat="47.78368" lon="-3.59036">
        <ele>-13.89</ele>
        <time>2019-07-14T12:36:57Z</time>
      </trkpt>
      <trkpt lat="47.78373" lon="-3.59035">
        <ele>-13.77</ele>
        <time>2019-07-14T12:36:58Z</time>
      </trkpt>
      <trkpt lat="47.78381" lon="-3.59034">
        <ele>-13.74</ele>
        <time>2019-07-14T12:37:00Z</time>
      </trkpt>
      <trkpt lat="47.78388" lon="-3.59035">
        <ele>-12.98</ele>
        <time>2019-07-14T12:37:02Z</time>
      </trkpt>
      <trkpt lat="47.78395" lon="-3.59035">
        <ele>-12.48</ele>
        <time>2019-07-14T12:37:04Z</time>
      </trkpt>
      <trkpt lat="47.78403" lon="-3.59035">
        <ele>-12.77</ele>
        <time>2019-07-14T12:37:06Z</time>
      </trkpt>
      <trkpt lat="47.78409" lon="-3.59033">
        <ele>-14.52</ele>
        <time>2019-07-14T12:37:08Z</time>
      </trkpt>
      <trkpt lat="47.78414" lon="-3.59033">
        <ele>-14.86</ele>
        <time>2019-07-14T12:37:09Z</time>
      </trkpt>
      <trkpt lat="47.78419" lon="-3.59032">
        <ele>-14.9</ele>
        <time>2019-07-14T12:37:10Z</time>
      </trkpt>
      <trkpt lat="47.78423" lon="-3.59031">
        <ele>-14.63</ele>
        <time>2019-07-14T12:37:11Z</time>
      </trkpt>
      <trkpt lat="47.78432" lon="-3.59029">
        <ele>-13.67</ele>
        <time>2019-07-14T12:37:13Z</time>
      </trkpt>
      <trkpt lat="47.78436" lon="-3.59028">
        <ele>-12.93</ele>
        <time>2019-07-14T12:37:14Z</time>
      </trkpt>
      <trkpt lat="47.78441" lon="-3.59027">
        <ele>-12.36</ele>
        <time>2019-07-14T12:37:15Z</time>
      </trkpt>
      <trkpt lat="47.78449" lon="-3.59024">
        <ele>-11.53</ele>
        <time>2019-07-14T12:37:17Z</time>
      </trkpt>
      <trkpt lat="47.78458" lon="-3.59021">
        <ele>-9.99</ele>
        <time>2019-07-14T12:37:19Z</time>
      </trkpt>
      <trkpt lat="47.78466" lon="-3.59018">
        <ele>-8.64</ele>
        <time>2019-07-14T12:37:21Z</time>
      </trkpt>
      <trkpt lat="47.78474" lon="-3.59015">
        <ele>-7.53</ele>
        <time>2019-07-14T12:37:23Z</time>
      </trkpt>
      <trkpt lat="47.78482" lon="-3.59012">
        <ele>-6.21</ele>
        <time>2019-07-14T12:37:25Z</time>
      </trkpt>
      <trkpt lat="47.78487" lon="-3.59011">
        <ele>-5.51</ele>
        <time>2019-07-14T12:37:26Z</time>
      </trkpt>
      <trkpt lat="47.78495" lon="-3.59009">
        <ele>-4.71</ele>
        <time>2019-07-14T12:37:28Z</time>
      </trkpt>
      <trkpt lat="47.78503" lon="-3.59007">
        <ele>-3.82</ele>
        <time>2019-07-14T12:37:30Z</time>
      </trkpt>
      <trkpt lat="47.7851" lon="-3.59004">
        <ele>-2.92</ele>
        <time>2019-07-14T12:37:32Z</time>
      </trkpt>
      <trkpt lat="47.78518" lon="-3.59">
        <ele>-2.5</ele>
        <time>2019-07-14T12:37:34Z</time>
      </trkpt>
      <trkpt lat="47.78527" lon="-3.58993">
        <ele>-2.03</ele>
        <time>2019-07-14T12:37:36Z</time>
      </trkpt>
      <trkpt lat="47.78532" lon="-3.5899">
        <ele>-2.44</ele>
        <time>2019-07-14T12:37:37Z</time>
      </trkpt>
      <trkpt lat="47.78538" lon="-3.58986">
        <ele>-2.77</ele>
        <time>2019-07-14T12:37:38Z</time>
      </trkpt>
      <trkpt lat="47.78543" lon="-3.58982">
        <ele>-3.01</ele>
        <time>2019-07-14T12:37:39Z</time>
      </trkpt>
      <trkpt lat="47.78547" lon="-3.58978">
        <ele>-3.22</ele>
        <time>2019-07-14T12:37:40Z</time>
      </trkpt>
      <trkpt lat="47.7855" lon="-3.58973">
        <ele>-3.21</ele>
        <time>2019-07-14T12:37:41Z</time>
      </trkpt>
      <trkpt lat="47.78554" lon="-3.58968">
        <ele>-3.35</ele>
        <time>2019-07-14T12:37:42Z</time>
      </trkpt>
      <trkpt lat="47.78559" lon="-3.58964">
        <ele>-3.39</ele>
        <time>2019-07-14T12:37:43Z</time>
      </trkpt>
      <trkpt lat="47.78566" lon="-3.58956">
        <ele>-2.49</ele>
        <time>2019-07-14T12:37:45Z</time>
      </trkpt>
      <trkpt lat="47.7857" lon="-3.58951">
        <ele>-2.72</ele>
        <time>2019-07-14T12:37:46Z</time>
      </trkpt>
      <trkpt lat="47.78574" lon="-3.58947">
        <ele>-3.06</ele>
        <time>2019-07-14T12:37:47Z</time>
      </trkpt>
      <trkpt lat="47.78579" lon="-3.58944">
        <ele>-3.38</ele>
        <time>2019-07-14T12:37:48Z</time>
      </trkpt>
      <trkpt lat="47.78584" lon="-3.5894">
        <ele>-4.17</ele>
        <time>2019-07-14T12:37:49Z</time>
      </trkpt>
      <trkpt lat="47.78589" lon="-3.58936">
        <ele>-5.04</ele>
        <time>2019-07-14T12:37:50Z</time>
      </trkpt>
      <trkpt lat="47.78594" lon="-3.58933">
        <ele>-5.58</ele>
        <time>2019-07-14T12:37:51Z</time>
      </trkpt>
      <trkpt lat="47.78599" lon="-3.58929">
        <ele>-6.58</ele>
        <time>2019-07-14T12:37:52Z</time>
      </trkpt>
      <trkpt lat="47.78604" lon="-3.58925">
        <ele>-7.23</ele>
        <time>2019-07-14T12:37:53Z</time>
      </trkpt>
      <trkpt lat="47.78609" lon="-3.58922">
        <ele>-7.57</ele>
        <time>2019-07-14T12:37:54Z</time>
      </trkpt>
      <trkpt lat="47.78614" lon="-3.58919">
        <ele>-7.95</ele>
        <time>2019-07-14T12:37:55Z</time>
      </trkpt>
      <trkpt lat="47.78619" lon="-3.58915">
        <ele>-8.27</ele>
        <time>2019-07-14T12:37:56Z</time>
      </trkpt>
      <trkpt lat="47.78625" lon="-3.58912">
        <ele>-8.23</ele>
        <time>2019-07-14T12:37:57Z</time>
      </trkpt>
      <trkpt lat="47.7863" lon="-3.58909">
        <ele>-8.43</ele>
        <time>2019-07-14T12:37:58Z</time>
      </trkpt>
      <trkpt lat="47.78636" lon="-3.58905">
        <ele>-8.63</ele>
        <time>2019-07-14T12:37:59Z</time>
      </trkpt>
      <trkpt lat="47.78641" lon="-3.58902">
        <ele>-8.69</ele>
        <time>2019-07-14T12:38:00Z</time>
      </trkpt>
      <trkpt lat="47.78647" lon="-3.58899">
        <ele>-8.98</ele>
        <time>2019-07-14T12:38:01Z</time>
      </trkpt>
      <trkpt lat="47.78653" lon="-3.58896">
        <ele>-9.28</ele>
        <time>2019-07-14T12:38:02Z</time>
      </trkpt>
      <trkpt lat="47.78658" lon="-3.58894">
        <ele>-9.51</ele>
        <time>2019-07-14T12:38:03Z</time>
      </trkpt>
      <trkpt lat="47.78664" lon="-3.58892">
        <ele>-9.93</ele>
        <time>2019-07-14T12:38:04Z</time>
      </trkpt>
      <trkpt lat="47.78669" lon="-3.58889">
        <ele>-9.99</ele>
        <time>2019-07-14T12:38:05Z</time>
      </trkpt>
      <trkpt lat="47.78675" lon="-3.58886">
        <ele>-10.07</ele>
        <time>2019-07-14T12:38:06Z</time>
      </trkpt>
      <trkpt lat="47.78681" lon="-3.58882">
        <ele>-10.03</ele>
        <time>2019-07-14T12:38:07Z</time>
      </trkpt>
      <trkpt lat="47.78686" lon="-3.58879">
        <ele>-9.88</ele>
        <time>2019-07-14T12:38:08Z</time>
      </trkpt>
      <trkpt lat="47.78692" lon="-3.58875">
        <ele>-9.97</ele>
        <time>2019-07-14T12:38:09Z</time>
      </trkpt>
      <trkpt lat="47.78698" lon="-3.58872">
        <ele>-10.07</ele>
        <time>2019-07-14T12:38:10Z</time>
      </trkpt>
      <trkpt lat="47.78705" lon="-3.58867">
        <ele>-10.73</ele>
        <time>2019-07-14T12:38:11Z</time>
      </trkpt>
      <trkpt lat="47.78711" lon="-3.58863">
        <ele>-11.07</ele>
        <time>2019-07-14T12:38:12Z</time>
      </trkpt>
      <trkpt lat="47.78718" lon="-3.5886">
        <ele>-11.59</ele>
        <time>2019-07-14T12:38:13Z</time>
      </trkpt>
      <trkpt lat="47.78724" lon="-3.58858">
        <ele>-11.67</ele>
        <time>2019-07-14T12:38:14Z</time>
      </trkpt>
      <trkpt lat="47.78732" lon="-3.58856">
        <ele>-12.4</ele>
        <time>2019-07-14T12:38:15Z</time>
      </trkpt>
      <trkpt lat="47.78739" lon="-3.58856">
        <ele>-13.18</ele>
        <time>2019-07-14T12:38:16Z</time>
      </trkpt>
      <trkpt lat="47.78745" lon="-3.58855">
        <ele>-14.04</ele>
        <time>2019-07-14T12:38:17Z</time>
      </trkpt>
      <trkpt lat="47.78751" lon="-3.58854">
        <ele>-15.42</ele>
        <time>2019-07-14T12:38:18Z</time>
      </trkpt>
      <trkpt lat="47.78758" lon="-3.58852">
        <ele>-15.83</ele>
        <time>2019-07-14T12:38:19Z</time>
      </trkpt>
      <trkpt lat="47.78764" lon="-3.58849">
        <ele>-16.17</ele>
        <time>2019-07-14T12:38:20Z</time>
      </trkpt>
      <trkpt lat="47.78768" lon="-3.58846">
        <ele>-15.99</ele>
        <time>2019-07-14T12:38:21Z</time>
      </trkpt>
      <trkpt lat="47.78771" lon="-3.5884">
        <ele>-15.31</ele>
        <time>2019-07-14T12:38:22Z</time>
      </trkpt>
      <trkpt lat="47.78776" lon="-3.58829">
        <ele>-14.28</ele>
        <time>2019-07-14T12:38:24Z</time>
      </trkpt>
      <trkpt lat="47.78779" lon="-3.58823">
        <ele>-13.88</ele>
        <time>2019-07-14T12:38:25Z</time>
      </trkpt>
      <trkpt lat="47.78781" lon="-3.58816">
        <ele>-13.55</ele>
        <time>2019-07-14T12:38:26Z</time>
      </trkpt>
      <trkpt lat="47.78784" lon="-3.58809">
        <ele>-13.94</ele>
        <time>2019-07-14T12:38:27Z</time>
      </trkpt>
      <trkpt lat="47.78786" lon="-3.58801">
        <ele>-14.13</ele>
        <time>2019-07-14T12:38:28Z</time>
      </trkpt>
      <trkpt lat="47.7879" lon="-3.58794">
        <ele>-15.03</ele>
        <time>2019-07-14T12:38:29Z</time>
      </trkpt>
      <trkpt lat="47.78792" lon="-3.58786">
        <ele>-15.93</ele>
        <time>2019-07-14T12:38:30Z</time>
      </trkpt>
      <trkpt lat="47.78794" lon="-3.58778">
        <ele>-16.55</ele>
        <time>2019-07-14T12:38:31Z</time>
      </trkpt>
      <trkpt lat="47.78796" lon="-3.5877">
        <ele>-17.22</ele>
        <time>2019-07-14T12:38:32Z</time>
      </trkpt>
      <trkpt lat="47.78799" lon="-3.58761">
        <ele>-17.43</ele>
        <time>2019-07-14T12:38:33Z</time>
      </trkpt>
      <trkpt lat="47.78801" lon="-3.58754">
        <ele>-17.42</ele>
        <time>2019-07-14T12:38:34Z</time>
      </trkpt>
      <trkpt lat="47.78801" lon="-3.58746">
        <ele>-17.69</ele>
        <time>2019-07-14T12:38:35Z</time>
      </trkpt>
      <trkpt lat="47.788" lon="-3.58738">
        <ele>-17.71</ele>
        <time>2019-07-14T12:38:36Z</time>
      </trkpt>
      <trkpt lat="47.78799" lon="-3.5873">
        <ele>-17.99</ele>
        <time>2019-07-14T12:38:37Z</time>
      </trkpt>
      <trkpt lat="47.78798" lon="-3.58722">
        <ele>-18.15</ele>
        <time>2019-07-14T12:38:38Z</time>
      </trkpt>
      <trkpt lat="47.78797" lon="-3.58714">
        <ele>-18.05</ele>
        <time>2019-07-14T12:38:39Z</time>
      </trkpt>
      <trkpt lat="47.78796" lon="-3.58707">
        <ele>-18.02</ele>
        <time>2019-07-14T12:38:40Z</time>
      </trkpt>
      <trkpt lat="47.78794" lon="-3.58699">
        <ele>-18.09</ele>
        <time>2019-07-14T12:38:41Z</time>
      </trkpt>
      <trkpt lat="47.78793" lon="-3.58691">
        <ele>-17.82</ele>
        <time>2019-07-14T12:38:42Z</time>
      </trkpt>
      <trkpt lat="47.78792" lon="-3.58683">
        <ele>-17.61</ele>
        <time>2019-07-14T12:38:43Z</time>
      </trkpt>
      <trkpt lat="47.78791" lon="-3.58675">
        <ele>-17.54</ele>
        <time>2019-07-14T12:38:44Z</time>
      </trkpt>
      <trkpt lat="47.7879" lon="-3.58667">
        <ele>-17.52</ele>
        <time>2019-07-14T12:38:45Z</time>
      </trkpt>
      <trkpt lat="47.78788" lon="-3.58659">
        <ele>-18</ele>
        <time>2019-07-14T12:38:46Z</time>
      </trkpt>
      <trkpt lat="47.78787" lon="-3.58651">
        <ele>-18.5</ele>
        <time>2019-07-14T12:38:47Z</time>
      </trkpt>
      <trkpt lat="47.78786" lon="-3.58642">
        <ele>-18.86</ele>
        <time>2019-07-14T12:38:48Z</time>
      </trkpt>
      <trkpt lat="47.78784" lon="-3.58634">
        <ele>-19.04</ele>
        <time>2019-07-14T12:38:49Z</time>
      </trkpt>
      <trkpt lat="47.78783" lon="-3.58625">
        <ele>-18.88</ele>
        <time>2019-07-14T12:38:50Z</time>
      </trkpt>
      <trkpt lat="47.78782" lon="-3.58617">
        <ele>-18.62</ele>
        <time>2019-07-14T12:38:51Z</time>
      </trkpt>
      <trkpt lat="47.7878" lon="-3.58608">
        <ele>-18.34</ele>
        <time>2019-07-14T12:38:52Z</time>
      </trkpt>
      <trkpt lat="47.78779" lon="-3.586">
        <ele>-17.69</ele>
        <time>2019-07-14T12:38:53Z</time>
      </trkpt>
      <trkpt lat="47.78777" lon="-3.58592">
        <ele>-17.08</ele>
        <time>2019-07-14T12:38:54Z</time>
      </trkpt>
      <trkpt lat="47.78776" lon="-3.58584">
        <ele>-16.89</ele>
        <time>2019-07-14T12:38:55Z</time>
      </trkpt>
      <trkpt lat="47.78774" lon="-3.58576">
        <ele>-16.7</ele>
        <time>2019-07-14T12:38:56Z</time>
      </trkpt>
      <trkpt lat="47.78773" lon="-3.58568">
        <ele>-16.43</ele>
        <time>2019-07-14T12:38:57Z</time>
      </trkpt>
      <trkpt lat="47.78771" lon="-3.5856">
        <ele>-16.07</ele>
        <time>2019-07-14T12:38:58Z</time>
      </trkpt>
      <trkpt lat="47.78769" lon="-3.58552">
        <ele>-15.75</ele>
        <time>2019-07-14T12:38:59Z</time>
      </trkpt>
      <trkpt lat="47.78767" lon="-3.58545">
        <ele>-15.37</ele>
        <time>2019-07-14T12:39:00Z</time>
      </trkpt>
      <trkpt lat="47.78764" lon="-3.58538">
        <ele>-15.26</ele>
        <time>2019-07-14T12:39:01Z</time>
      </trkpt>
      <trkpt lat="47.78762" lon="-3.58531">
        <ele>-15.09</ele>
        <time>2019-07-14T12:39:02Z</time>
      </trkpt>
      <trkpt lat="47.7876" lon="-3.58524">
        <ele>-15.03</ele>
        <time>2019-07-14T12:39:03Z</time>
      </trkpt>
      <trkpt lat="47.78757" lon="-3.58517">
        <ele>-15.02</ele>
        <time>2019-07-14T12:39:04Z</time>
      </trkpt>
      <trkpt lat="47.78754" lon="-3.58511">
        <ele>-15.36</ele>
        <time>2019-07-14T12:39:05Z</time>
      </trkpt>
      <trkpt lat="47.78752" lon="-3.58504">
        <ele>-15.33</ele>
        <time>2019-07-14T12:39:06Z</time>
      </trkpt>
      <trkpt lat="47.78749" lon="-3.58497">
        <ele>-15.32</ele>
        <time>2019-07-14T12:39:07Z</time>
      </trkpt>
      <trkpt lat="47.78746" lon="-3.5849">
        <ele>-15.17</ele>
        <time>2019-07-14T12:39:08Z</time>
      </trkpt>
      <trkpt lat="47.78743" lon="-3.58483">
        <ele>-15.2</ele>
        <time>2019-07-14T12:39:09Z</time>
      </trkpt>
      <trkpt lat="47.78739" lon="-3.58478">
        <ele>-14.86</ele>
        <time>2019-07-14T12:39:10Z</time>
      </trkpt>
      <trkpt lat="47.78736" lon="-3.58472">
        <ele>-14.48</ele>
        <time>2019-07-14T12:39:11Z</time>
      </trkpt>
      <trkpt lat="47.78733" lon="-3.58465">
        <ele>-14.01</ele>
        <time>2019-07-14T12:39:12Z</time>
      </trkpt>
      <trkpt lat="47.7873" lon="-3.58458">
        <ele>-13.87</ele>
        <time>2019-07-14T12:39:13Z</time>
      </trkpt>
      <trkpt lat="47.78727" lon="-3.58452">
        <ele>-13.83</ele>
        <time>2019-07-14T12:39:14Z</time>
      </trkpt>
      <trkpt lat="47.78724" lon="-3.58445">
        <ele>-13.75</ele>
        <time>2019-07-14T12:39:15Z</time>
      </trkpt>
      <trkpt lat="47.78721" lon="-3.58438">
        <ele>-13.93</ele>
        <time>2019-07-14T12:39:16Z</time>
      </trkpt>
      <trkpt lat="47.78718" lon="-3.58432">
        <ele>-13.92</ele>
        <time>2019-07-14T12:39:17Z</time>
      </trkpt>
      <trkpt lat="47.78715" lon="-3.58425">
        <ele>-13.77</ele>
        <time>2019-07-14T12:39:18Z</time>
      </trkpt>
      <trkpt lat="47.78712" lon="-3.58418">
        <ele>-13.59</ele>
        <time>2019-07-14T12:39:19Z</time>
      </trkpt>
      <trkpt lat="47.7871" lon="-3.58411">
        <ele>-13.47</ele>
        <time>2019-07-14T12:39:20Z</time>
      </trkpt>
      <trkpt lat="47.78708" lon="-3.58404">
        <ele>-13.5</ele>
        <time>2019-07-14T12:39:21Z</time>
      </trkpt>
      <trkpt lat="47.78706" lon="-3.58397">
        <ele>-13.37</ele>
        <time>2019-07-14T12:39:22Z</time>
      </trkpt>
      <trkpt lat="47.78704" lon="-3.5839">
        <ele>-12.91</ele>
        <time>2019-07-14T12:39:23Z</time>
      </trkpt>
      <trkpt lat="47.78701" lon="-3.58383">
        <ele>-12.49</ele>
        <time>2019-07-14T12:39:24Z</time>
      </trkpt>
      <trkpt lat="47.78699" lon="-3.58376">
        <ele>-11.88</ele>
        <time>2019-07-14T12:39:25Z</time>
      </trkpt>
      <trkpt lat="47.78696" lon="-3.58368">
        <ele>-11.55</ele>
        <time>2019-07-14T12:39:26Z</time>
      </trkpt>
      <trkpt lat="47.78694" lon="-3.58362">
        <ele>-11.24</ele>
        <time>2019-07-14T12:39:27Z</time>
      </trkpt>
      <trkpt lat="47.78692" lon="-3.58355">
        <ele>-10.87</ele>
        <time>2019-07-14T12:39:28Z</time>
      </trkpt>
      <trkpt lat="47.78689" lon="-3.58348">
        <ele>-10.27</ele>
        <time>2019-07-14T12:39:29Z</time>
      </trkpt>
      <trkpt lat="47.78687" lon="-3.58342">
        <ele>-9.88</ele>
        <time>2019-07-14T12:39:30Z</time>
      </trkpt>
      <trkpt lat="47.78685" lon="-3.58335">
        <ele>-9.62</ele>
        <time>2019-07-14T12:39:31Z</time>
      </trkpt>
      <trkpt lat="47.78682" lon="-3.58328">
        <ele>-9.41</ele>
        <time>2019-07-14T12:39:32Z</time>
      </trkpt>
      <trkpt lat="47.7868" lon="-3.58322">
        <ele>-9.48</ele>
        <time>2019-07-14T12:39:33Z</time>
      </trkpt>
      <trkpt lat="47.78674" lon="-3.5831">
        <ele>-9.78</ele>
        <time>2019-07-14T12:39:35Z</time>
      </trkpt>
      <trkpt lat="47.78669" lon="-3.58299">
        <ele>-9.76</ele>
        <time>2019-07-14T12:39:37Z</time>
      </trkpt>
      <trkpt lat="47.78664" lon="-3.58289">
        <ele>-10.28</ele>
        <time>2019-07-14T12:39:39Z</time>
      </trkpt>
      <trkpt lat="47.78661" lon="-3.58285">
        <ele>-10.58</ele>
        <time>2019-07-14T12:39:40Z</time>
      </trkpt>
      <trkpt lat="47.78658" lon="-3.58279">
        <ele>-10.81</ele>
        <time>2019-07-14T12:39:41Z</time>
      </trkpt>
      <trkpt lat="47.78655" lon="-3.58273">
        <ele>-10.88</ele>
        <time>2019-07-14T12:39:42Z</time>
      </trkpt>
      <trkpt lat="47.78652" lon="-3.58268">
        <ele>-10.83</ele>
        <time>2019-07-14T12:39:43Z</time>
      </trkpt>
      <trkpt lat="47.7865" lon="-3.58262">
        <ele>-10.82</ele>
        <time>2019-07-14T12:39:44Z</time>
      </trkpt>
      <trkpt lat="47.78647" lon="-3.58255">
        <ele>-10.81</ele>
        <time>2019-07-14T12:39:45Z</time>
      </trkpt>
      <trkpt lat="47.78644" lon="-3.58249">
        <ele>-10.6</ele>
        <time>2019-07-14T12:39:46Z</time>
      </trkpt>
      <trkpt lat="47.78642" lon="-3.58242">
        <ele>-9.56</ele>
        <time>2019-07-14T12:39:47Z</time>
      </trkpt>
      <trkpt lat="47.7864" lon="-3.58236">
        <ele>-8.97</ele>
        <time>2019-07-14T12:39:48Z</time>
      </trkpt>
      <trkpt lat="47.78638" lon="-3.58229">
        <ele>-8.58</ele>
        <time>2019-07-14T12:39:49Z</time>
      </trkpt>
      <trkpt lat="47.78635" lon="-3.58222">
        <ele>-8.32</ele>
        <time>2019-07-14T12:39:50Z</time>
      </trkpt>
      <trkpt lat="47.78632" lon="-3.58216">
        <ele>-7.82</ele>
        <time>2019-07-14T12:39:51Z</time>
      </trkpt>
      <trkpt lat="47.78628" lon="-3.58206">
        <ele>-7.05</ele>
        <time>2019-07-14T12:39:53Z</time>
      </trkpt>
      <trkpt lat="47.78625" lon="-3.58197">
        <ele>-5.29</ele>
        <time>2019-07-14T12:39:55Z</time>
      </trkpt>
      <trkpt lat="47.78621" lon="-3.58187">
        <ele>-3.98</ele>
        <time>2019-07-14T12:39:57Z</time>
      </trkpt>
      <trkpt lat="47.78616" lon="-3.58178">
        <ele>-2.56</ele>
        <time>2019-07-14T12:39:59Z</time>
      </trkpt>
      <trkpt lat="47.78612" lon="-3.58174">
        <ele>-1.69</ele>
        <time>2019-07-14T12:40:00Z</time>
      </trkpt>
      <trkpt lat="47.78606" lon="-3.58173">
        <ele>-0.44</ele>
        <time>2019-07-14T12:40:01Z</time>
      </trkpt>
      <trkpt lat="47.78597" lon="-3.58174">
        <ele>0.14</ele>
        <time>2019-07-14T12:40:03Z</time>
      </trkpt>
      <trkpt lat="47.78592" lon="-3.58174">
        <ele>0.52</ele>
        <time>2019-07-14T12:40:04Z</time>
      </trkpt>
      <trkpt lat="47.78587" lon="-3.58174">
        <ele>1.27</ele>
        <time>2019-07-14T12:40:05Z</time>
      </trkpt>
      <trkpt lat="47.78582" lon="-3.58174">
        <ele>2.12</ele>
        <time>2019-07-14T12:40:06Z</time>
      </trkpt>
      <trkpt lat="47.78576" lon="-3.58174">
        <ele>2.73</ele>
        <time>2019-07-14T12:40:07Z</time>
      </trkpt>
      <trkpt lat="47.78571" lon="-3.58174">
        <ele>2.91</ele>
        <time>2019-07-14T12:40:08Z</time>
      </trkpt>
      <trkpt lat="47.78565" lon="-3.58174">
        <ele>3.03</ele>
        <time>2019-07-14T12:40:09Z</time>
      </trkpt>
      <trkpt lat="47.7856" lon="-3.58174">
        <ele>3.07</ele>
        <time>2019-07-14T12:40:10Z</time>
      </trkpt>
      <trkpt lat="47.78554" lon="-3.58173">
        <ele>3.78</ele>
        <time>2019-07-14T12:40:11Z</time>
      </trkpt>
      <trkpt lat="47.78549" lon="-3.58173">
        <ele>4.21</ele>
        <time>2019-07-14T12:40:12Z</time>
      </trkpt>
      <trkpt lat="47.78544" lon="-3.58173">
        <ele>4.26</ele>
        <time>2019-07-14T12:40:13Z</time>
      </trkpt>
      <trkpt lat="47.78538" lon="-3.58172">
        <ele>3.51</ele>
        <time>2019-07-14T12:40:14Z</time>
      </trkpt>
      <trkpt lat="47.78533" lon="-3.58172">
        <ele>3.35</ele>
        <time>2019-07-14T12:40:15Z</time>
      </trkpt>
      <trkpt lat="47.78528" lon="-3.58172">
        <ele>2.96</ele>
        <time>2019-07-14T12:40:16Z</time>
      </trkpt>
      <trkpt lat="47.78523" lon="-3.58171">
        <ele>2.35</ele>
        <time>2019-07-14T12:40:17Z</time>
      </trkpt>
      <trkpt lat="47.78518" lon="-3.58171">
        <ele>1.89</ele>
        <time>2019-07-14T12:40:18Z</time>
      </trkpt>
      <trkpt lat="47.78513" lon="-3.5817">
        <ele>1.54</ele>
        <time>2019-07-14T12:40:19Z</time>
      </trkpt>
      <trkpt lat="47.78507" lon="-3.5817">
        <ele>1.22</ele>
        <time>2019-07-14T12:40:20Z</time>
      </trkpt>
      <trkpt lat="47.78502" lon="-3.58169">
        <ele>1.13</ele>
        <time>2019-07-14T12:40:21Z</time>
      </trkpt>
      <trkpt lat="47.78497" lon="-3.58168">
        <ele>0.82</ele>
        <time>2019-07-14T12:40:22Z</time>
      </trkpt>
      <trkpt lat="47.78492" lon="-3.58168">
        <ele>0.8</ele>
        <time>2019-07-14T12:40:23Z</time>
      </trkpt>
      <trkpt lat="47.78487" lon="-3.58168">
        <ele>1.21</ele>
        <time>2019-07-14T12:40:24Z</time>
      </trkpt>
      <trkpt lat="47.78482" lon="-3.58168">
        <ele>1.4</ele>
        <time>2019-07-14T12:40:25Z</time>
      </trkpt>
      <trkpt lat="47.78477" lon="-3.58168">
        <ele>1.95</ele>
        <time>2019-07-14T12:40:26Z</time>
      </trkpt>
      <trkpt lat="47.78472" lon="-3.58168">
        <ele>2.4</ele>
        <time>2019-07-14T12:40:27Z</time>
      </trkpt>
      <trkpt lat="47.78467" lon="-3.58168">
        <ele>2.81</ele>
        <time>2019-07-14T12:40:28Z</time>
      </trkpt>
      <trkpt lat="47.78462" lon="-3.58168">
        <ele>3.14</ele>
        <time>2019-07-14T12:40:29Z</time>
      </trkpt>
      <trkpt lat="47.78456" lon="-3.58167">
        <ele>3.39</ele>
        <time>2019-07-14T12:40:30Z</time>
      </trkpt>
      <trkpt lat="47.78451" lon="-3.58167">
        <ele>3.53</ele>
        <time>2019-07-14T12:40:31Z</time>
      </trkpt>
      <trkpt lat="47.78445" lon="-3.58167">
        <ele>3.92</ele>
        <time>2019-07-14T12:40:32Z</time>
      </trkpt>
      <trkpt lat="47.7844" lon="-3.58168">
        <ele>4.11</ele>
        <time>2019-07-14T12:40:33Z</time>
      </trkpt>
      <trkpt lat="47.78435" lon="-3.58169">
        <ele>4.09</ele>
        <time>2019-07-14T12:40:34Z</time>
      </trkpt>
      <trkpt lat="47.78429" lon="-3.5817">
        <ele>4.02</ele>
        <time>2019-07-14T12:40:35Z</time>
      </trkpt>
      <trkpt lat="47.78423" lon="-3.58171">
        <ele>3.86</ele>
        <time>2019-07-14T12:40:36Z</time>
      </trkpt>
      <trkpt lat="47.78417" lon="-3.58171">
        <ele>3.32</ele>
        <time>2019-07-14T12:40:37Z</time>
      </trkpt>
      <trkpt lat="47.78411" lon="-3.58172">
        <ele>3.16</ele>
        <time>2019-07-14T12:40:38Z</time>
      </trkpt>
      <trkpt lat="47.78405" lon="-3.58173">
        <ele>2.97</ele>
        <time>2019-07-14T12:40:39Z</time>
      </trkpt>
      <trkpt lat="47.78399" lon="-3.58174">
        <ele>3.33</ele>
        <time>2019-07-14T12:40:40Z</time>
      </trkpt>
      <trkpt lat="47.78392" lon="-3.58175">
        <ele>3.51</ele>
        <time>2019-07-14T12:40:41Z</time>
      </trkpt>
      <trkpt lat="47.78386" lon="-3.58176">
        <ele>3.84</ele>
        <time>2019-07-14T12:40:42Z</time>
      </trkpt>
      <trkpt lat="47.7838" lon="-3.58177">
        <ele>3.46</ele>
        <time>2019-07-14T12:40:43Z</time>
      </trkpt>
      <trkpt lat="47.78375" lon="-3.58177">
        <ele>1.52</ele>
        <time>2019-07-14T12:40:44Z</time>
      </trkpt>
      <trkpt lat="47.7837" lon="-3.58174">
        <ele>-0.18</ele>
        <time>2019-07-14T12:40:45Z</time>
      </trkpt>
      <trkpt lat="47.78367" lon="-3.58167">
        <ele>-1.18</ele>
        <time>2019-07-14T12:40:46Z</time>
      </trkpt>
      <trkpt lat="47.78366" lon="-3.58159">
        <ele>-1.69</ele>
        <time>2019-07-14T12:40:47Z</time>
      </trkpt>
      <trkpt lat="47.78367" lon="-3.5815">
        <ele>-1.64</ele>
        <time>2019-07-14T12:40:48Z</time>
      </trkpt>
      <trkpt lat="47.78368" lon="-3.58142">
        <ele>-1.55</ele>
        <time>2019-07-14T12:40:49Z</time>
      </trkpt>
      <trkpt lat="47.78369" lon="-3.58134">
        <ele>-1.52</ele>
        <time>2019-07-14T12:40:50Z</time>
      </trkpt>
      <trkpt lat="47.7837" lon="-3.58126">
        <ele>-1.59</ele>
        <time>2019-07-14T12:40:51Z</time>
      </trkpt>
      <trkpt lat="47.78371" lon="-3.58118">
        <ele>-1.39</ele>
        <time>2019-07-14T12:40:52Z</time>
      </trkpt>
      <trkpt lat="47.78371" lon="-3.58112">
        <ele>-1.34</ele>
        <time>2019-07-14T12:40:53Z</time>
      </trkpt>
      <trkpt lat="47.7837" lon="-3.58104">
        <ele>-1.04</ele>
        <time>2019-07-14T12:40:55Z</time>
      </trkpt>
      <trkpt lat="47.78365" lon="-3.58101">
        <ele>-0.29</ele>
        <time>2019-07-14T12:40:57Z</time>
      </trkpt>
      <trkpt lat="47.78359" lon="-3.58097">
        <ele>0.01</ele>
        <time>2019-07-14T12:40:59Z</time>
      </trkpt>
      <trkpt lat="47.7835" lon="-3.58091">
        <ele>0.03</ele>
        <time>2019-07-14T12:41:01Z</time>
      </trkpt>
      <trkpt lat="47.78346" lon="-3.58088">
        <ele>0.28</ele>
        <time>2019-07-14T12:41:02Z</time>
      </trkpt>
      <trkpt lat="47.78342" lon="-3.58083">
        <ele>0.5</ele>
        <time>2019-07-14T12:41:03Z</time>
      </trkpt>
      <trkpt lat="47.78338" lon="-3.58078">
        <ele>0.56</ele>
        <time>2019-07-14T12:41:04Z</time>
      </trkpt>
      <trkpt lat="47.78334" lon="-3.58074">
        <ele>0.65</ele>
        <time>2019-07-14T12:41:05Z</time>
      </trkpt>
      <trkpt lat="47.7833" lon="-3.5807">
        <ele>0.61</ele>
        <time>2019-07-14T12:41:06Z</time>
      </trkpt>
      <trkpt lat="47.78326" lon="-3.58065">
        <ele>0.52</ele>
        <time>2019-07-14T12:41:07Z</time>
      </trkpt>
      <trkpt lat="47.78322" lon="-3.58061">
        <ele>0.43</ele>
        <time>2019-07-14T12:41:08Z</time>
      </trkpt>
      <trkpt lat="47.78318" lon="-3.58058">
        <ele>0.75</ele>
        <time>2019-07-14T12:41:09Z</time>
      </trkpt>
      <trkpt lat="47.78314" lon="-3.58054">
        <ele>1.06</ele>
        <time>2019-07-14T12:41:10Z</time>
      </trkpt>
      <trkpt lat="47.7831" lon="-3.5805">
        <ele>1.57</ele>
        <time>2019-07-14T12:41:11Z</time>
      </trkpt>
      <trkpt lat="47.78305" lon="-3.58046">
        <ele>1.65</ele>
        <time>2019-07-14T12:41:12Z</time>
      </trkpt>
      <trkpt lat="47.78301" lon="-3.58042">
        <ele>1.54</ele>
        <time>2019-07-14T12:41:13Z</time>
      </trkpt>
      <trkpt lat="47.78297" lon="-3.58038">
        <ele>1.29</ele>
        <time>2019-07-14T12:41:14Z</time>
      </trkpt>
      <trkpt lat="47.78292" lon="-3.58033">
        <ele>1.08</ele>
        <time>2019-07-14T12:41:15Z</time>
      </trkpt>
      <trkpt lat="47.78288" lon="-3.5803">
        <ele>0.53</ele>
        <time>2019-07-14T12:41:16Z</time>
      </trkpt>
      <trkpt lat="47.78283" lon="-3.58026">
        <ele>0.15</ele>
        <time>2019-07-14T12:41:17Z</time>
      </trkpt>
      <trkpt lat="47.78279" lon="-3.58022">
        <ele>0.53</ele>
        <time>2019-07-14T12:41:18Z</time>
      </trkpt>
      <trkpt lat="47.78274" lon="-3.58017">
        <ele>0.57</ele>
        <time>2019-07-14T12:41:19Z</time>
      </trkpt>
      <trkpt lat="47.78269" lon="-3.58013">
        <ele>0.16</ele>
        <time>2019-07-14T12:41:20Z</time>
      </trkpt>
      <trkpt lat="47.78265" lon="-3.58009">
        <ele>-0.31</ele>
        <time>2019-07-14T12:41:21Z</time>
      </trkpt>
      <trkpt lat="47.7826" lon="-3.58005">
        <ele>-0.52</ele>
        <time>2019-07-14T12:41:22Z</time>
      </trkpt>
      <trkpt lat="47.78255" lon="-3.58">
        <ele>-1.07</ele>
        <time>2019-07-14T12:41:23Z</time>
      </trkpt>
      <trkpt lat="47.78251" lon="-3.57996">
        <ele>-1.73</ele>
        <time>2019-07-14T12:41:24Z</time>
      </trkpt>
      <trkpt lat="47.78248" lon="-3.57992">
        <ele>-2</ele>
        <time>2019-07-14T12:41:25Z</time>
      </trkpt>
      <trkpt lat="47.78245" lon="-3.57985">
        <ele>-2.15</ele>
        <time>2019-07-14T12:41:26Z</time>
      </trkpt>
      <trkpt lat="47.78243" lon="-3.57979">
        <ele>-2.12</ele>
        <time>2019-07-14T12:41:27Z</time>
      </trkpt>
      <trkpt lat="47.78239" lon="-3.5797">
        <ele>-2.39</ele>
        <time>2019-07-14T12:41:29Z</time>
      </trkpt>
      <trkpt lat="47.78232" lon="-3.57965">
        <ele>-2.46</ele>
        <time>2019-07-14T12:41:31Z</time>
      </trkpt>
      <trkpt lat="47.78224" lon="-3.57961">
        <ele>-2.78</ele>
        <time>2019-07-14T12:41:33Z</time>
      </trkpt>
      <trkpt lat="47.78219" lon="-3.57959">
        <ele>-2.8</ele>
        <time>2019-07-14T12:41:34Z</time>
      </trkpt>
      <trkpt lat="47.78215" lon="-3.57956">
        <ele>-2.81</ele>
        <time>2019-07-14T12:41:35Z</time>
      </trkpt>
      <trkpt lat="47.7821" lon="-3.57954">
        <ele>-2.74</ele>
        <time>2019-07-14T12:41:36Z</time>
      </trkpt>
      <trkpt lat="47.78205" lon="-3.57952">
        <ele>-2.44</ele>
        <time>2019-07-14T12:41:37Z</time>
      </trkpt>
      <trkpt lat="47.78202" lon="-3.57947">
        <ele>-2.49</ele>
        <time>2019-07-14T12:41:38Z</time>
      </trkpt>
      <trkpt lat="47.782" lon="-3.57934">
        <ele>-2.88</ele>
        <time>2019-07-14T12:41:40Z</time>
      </trkpt>
      <trkpt lat="47.78202" lon="-3.57925">
        <ele>-3.53</ele>
        <time>2019-07-14T12:41:41Z</time>
      </trkpt>
      <trkpt lat="47.78203" lon="-3.57917">
        <ele>-4.5</ele>
        <time>2019-07-14T12:41:42Z</time>
      </trkpt>
      <trkpt lat="47.78204" lon="-3.57908">
        <ele>-5.56</ele>
        <time>2019-07-14T12:41:43Z</time>
      </trkpt>
      <trkpt lat="47.78205" lon="-3.57898">
        <ele>-6.86</ele>
        <time>2019-07-14T12:41:44Z</time>
      </trkpt>
      <trkpt lat="47.78206" lon="-3.5789">
        <ele>-7.6</ele>
        <time>2019-07-14T12:41:45Z</time>
      </trkpt>
      <trkpt lat="47.78207" lon="-3.57881">
        <ele>-8.03</ele>
        <time>2019-07-14T12:41:46Z</time>
      </trkpt>
      <trkpt lat="47.78209" lon="-3.57873">
        <ele>-8.3</ele>
        <time>2019-07-14T12:41:47Z</time>
      </trkpt>
      <trkpt lat="47.7821" lon="-3.57864">
        <ele>-8.73</ele>
        <time>2019-07-14T12:41:48Z</time>
      </trkpt>
      <trkpt lat="47.78209" lon="-3.57857">
        <ele>-9.14</ele>
        <time>2019-07-14T12:41:49Z</time>
      </trkpt>
      <trkpt lat="47.78203" lon="-3.57851">
        <ele>-10.12</ele>
        <time>2019-07-14T12:41:51Z</time>
      </trkpt>
      <trkpt lat="47.78199" lon="-3.57848">
        <ele>-10.54</ele>
        <time>2019-07-14T12:41:52Z</time>
      </trkpt>
      <trkpt lat="47.78194" lon="-3.57845">
        <ele>-10.52</ele>
        <time>2019-07-14T12:41:53Z</time>
      </trkpt>
      <trkpt lat="47.78189" lon="-3.57842">
        <ele>-10.51</ele>
        <time>2019-07-14T12:41:54Z</time>
      </trkpt>
      <trkpt lat="47.78184" lon="-3.5784">
        <ele>-10.44</ele>
        <time>2019-07-14T12:41:55Z</time>
      </trkpt>
      <trkpt lat="47.78179" lon="-3.57838">
        <ele>-10.35</ele>
        <time>2019-07-14T12:41:56Z</time>
      </trkpt>
      <trkpt lat="47.78173" lon="-3.57837">
        <ele>-10.46</ele>
        <time>2019-07-14T12:41:57Z</time>
      </trkpt>
      <trkpt lat="47.78168" lon="-3.57835">
        <ele>-10.64</ele>
        <time>2019-07-14T12:41:58Z</time>
      </trkpt>
      <trkpt lat="47.78162" lon="-3.57834">
        <ele>-10.83</ele>
        <time>2019-07-14T12:41:59Z</time>
      </trkpt>
      <trkpt lat="47.78156" lon="-3.57832">
        <ele>-11.17</ele>
        <time>2019-07-14T12:42:00Z</time>
      </trkpt>
      <trkpt lat="47.78151" lon="-3.57832">
        <ele>-11.27</ele>
        <time>2019-07-14T12:42:01Z</time>
      </trkpt>
      <trkpt lat="47.78146" lon="-3.57831">
        <ele>-11.23</ele>
        <time>2019-07-14T12:42:02Z</time>
      </trkpt>
      <trkpt lat="47.78137" lon="-3.5783">
        <ele>-11.84</ele>
        <time>2019-07-14T12:42:04Z</time>
      </trkpt>
      <trkpt lat="47.78133" lon="-3.57823">
        <ele>-12.73</ele>
        <time>2019-07-14T12:42:06Z</time>
      </trkpt>
      <trkpt lat="47.78134" lon="-3.57816">
        <ele>-13.29</ele>
        <time>2019-07-14T12:42:08Z</time>
      </trkpt>
      <trkpt lat="47.78136" lon="-3.57809">
        <ele>-13.58</ele>
        <time>2019-07-14T12:42:10Z</time>
      </trkpt>
      <trkpt lat="47.78139" lon="-3.578">
        <ele>-13.63</ele>
        <time>2019-07-14T12:42:12Z</time>
      </trkpt>
      <trkpt lat="47.78141" lon="-3.57788">
        <ele>-13.87</ele>
        <time>2019-07-14T12:42:14Z</time>
      </trkpt>
      <trkpt lat="47.78143" lon="-3.57776">
        <ele>-13.24</ele>
        <time>2019-07-14T12:42:16Z</time>
      </trkpt>
      <trkpt lat="47.78143" lon="-3.57769">
        <ele>-12.31</ele>
        <time>2019-07-14T12:42:17Z</time>
      </trkpt>
      <trkpt lat="47.78142" lon="-3.57762">
        <ele>-11.47</ele>
        <time>2019-07-14T12:42:18Z</time>
      </trkpt>
      <trkpt lat="47.78142" lon="-3.57755">
        <ele>-10.8</ele>
        <time>2019-07-14T12:42:19Z</time>
      </trkpt>
      <trkpt lat="47.78141" lon="-3.57742">
        <ele>-10.75</ele>
        <time>2019-07-14T12:42:21Z</time>
      </trkpt>
      <trkpt lat="47.78142" lon="-3.57729">
        <ele>-12.21</ele>
        <time>2019-07-14T12:42:23Z</time>
      </trkpt>
      <trkpt lat="47.78142" lon="-3.57722">
        <ele>-12.63</ele>
        <time>2019-07-14T12:42:24Z</time>
      </trkpt>
      <trkpt lat="47.78141" lon="-3.57715">
        <ele>-12.83</ele>
        <time>2019-07-14T12:42:25Z</time>
      </trkpt>
      <trkpt lat="47.7814" lon="-3.57708">
        <ele>-13.03</ele>
        <time>2019-07-14T12:42:26Z</time>
      </trkpt>
      <trkpt lat="47.78139" lon="-3.57702">
        <ele>-13.3</ele>
        <time>2019-07-14T12:42:27Z</time>
      </trkpt>
      <trkpt lat="47.78138" lon="-3.57695">
        <ele>-13.45</ele>
        <time>2019-07-14T12:42:28Z</time>
      </trkpt>
      <trkpt lat="47.78137" lon="-3.57688">
        <ele>-13.14</ele>
        <time>2019-07-14T12:42:29Z</time>
      </trkpt>
      <trkpt lat="47.78136" lon="-3.5768">
        <ele>-12.98</ele>
        <time>2019-07-14T12:42:30Z</time>
      </trkpt>
      <trkpt lat="47.78135" lon="-3.57674">
        <ele>-12.65</ele>
        <time>2019-07-14T12:42:31Z</time>
      </trkpt>
      <trkpt lat="47.78133" lon="-3.57667">
        <ele>-12.34</ele>
        <time>2019-07-14T12:42:32Z</time>
      </trkpt>
      <trkpt lat="47.78131" lon="-3.5766">
        <ele>-12.18</ele>
        <time>2019-07-14T12:42:33Z</time>
      </trkpt>
      <trkpt lat="47.7813" lon="-3.57653">
        <ele>-12.06</ele>
        <time>2019-07-14T12:42:34Z</time>
      </trkpt>
      <trkpt lat="47.78129" lon="-3.57645">
        <ele>-11.75</ele>
        <time>2019-07-14T12:42:35Z</time>
      </trkpt>
      <trkpt lat="47.78128" lon="-3.57638">
        <ele>-11.79</ele>
        <time>2019-07-14T12:42:36Z</time>
      </trkpt>
      <trkpt lat="47.78127" lon="-3.5763">
        <ele>-12.16</ele>
        <time>2019-07-14T12:42:37Z</time>
      </trkpt>
      <trkpt lat="47.78127" lon="-3.57623">
        <ele>-12.27</ele>
        <time>2019-07-14T12:42:38Z</time>
      </trkpt>
      <trkpt lat="47.78127" lon="-3.57615">
        <ele>-12.79</ele>
        <time>2019-07-14T12:42:39Z</time>
      </trkpt>
      <trkpt lat="47.78128" lon="-3.57607">
        <ele>-12.8</ele>
        <time>2019-07-14T12:42:40Z</time>
      </trkpt>
      <trkpt lat="47.78129" lon="-3.57599">
        <ele>-12.88</ele>
        <time>2019-07-14T12:42:41Z</time>
      </trkpt>
      <trkpt lat="47.7813" lon="-3.57591">
        <ele>-12.62</ele>
        <time>2019-07-14T12:42:42Z</time>
      </trkpt>
      <trkpt lat="47.7813" lon="-3.57583">
        <ele>-12.27</ele>
        <time>2019-07-14T12:42:43Z</time>
      </trkpt>
      <trkpt lat="47.78131" lon="-3.57574">
        <ele>-11.81</ele>
        <time>2019-07-14T12:42:44Z</time>
      </trkpt>
      <trkpt lat="47.78131" lon="-3.57566">
        <ele>-11.88</ele>
        <time>2019-07-14T12:42:45Z</time>
      </trkpt>
      <trkpt lat="47.78131" lon="-3.57559">
        <ele>-12.18</ele>
        <time>2019-07-14T12:42:46Z</time>
      </trkpt>
      <trkpt lat="47.78131" lon="-3.57552">
        <ele>-11.85</ele>
        <time>2019-07-14T12:42:47Z</time>
      </trkpt>
      <trkpt lat="47.78126" lon="-3.57541">
        <ele>-11.2</ele>
        <time>2019-07-14T12:42:49Z</time>
      </trkpt>
      <trkpt lat="47.78122" lon="-3.57537">
        <ele>-11.14</ele>
        <time>2019-07-14T12:42:50Z</time>
      </trkpt>
      <trkpt lat="47.78118" lon="-3.57533">
        <ele>-10.98</ele>
        <time>2019-07-14T12:42:51Z</time>
      </trkpt>
      <trkpt lat="47.78113" lon="-3.57529">
        <ele>-11</ele>
        <time>2019-07-14T12:42:52Z</time>
      </trkpt>
      <trkpt lat="47.78107" lon="-3.57525">
        <ele>-11.01</ele>
        <time>2019-07-14T12:42:53Z</time>
      </trkpt>
      <trkpt lat="47.78102" lon="-3.57521">
        <ele>-10.73</ele>
        <time>2019-07-14T12:42:54Z</time>
      </trkpt>
      <trkpt lat="47.78096" lon="-3.57517">
        <ele>-10.65</ele>
        <time>2019-07-14T12:42:55Z</time>
      </trkpt>
      <trkpt lat="47.7809" lon="-3.57512">
        <ele>-10.55</ele>
        <time>2019-07-14T12:42:56Z</time>
      </trkpt>
      <trkpt lat="47.78084" lon="-3.57508">
        <ele>-10.31</ele>
        <time>2019-07-14T12:42:57Z</time>
      </trkpt>
      <trkpt lat="47.78079" lon="-3.57503">
        <ele>-10.24</ele>
        <time>2019-07-14T12:42:58Z</time>
      </trkpt>
      <trkpt lat="47.78073" lon="-3.57498">
        <ele>-10.5</ele>
        <time>2019-07-14T12:42:59Z</time>
      </trkpt>
      <trkpt lat="47.78067" lon="-3.57494">
        <ele>-10.65</ele>
        <time>2019-07-14T12:43:00Z</time>
      </trkpt>
      <trkpt lat="47.78061" lon="-3.57489">
        <ele>-11.18</ele>
        <time>2019-07-14T12:43:01Z</time>
      </trkpt>
      <trkpt lat="47.78061" lon="-3.57477">
        <ele>-11.49</ele>
        <time>2019-07-14T12:43:03Z</time>
      </trkpt>
      <trkpt lat="47.78063" lon="-3.57468">
        <ele>-11.83</ele>
        <time>2019-07-14T12:43:05Z</time>
      </trkpt>
      <trkpt lat="47.78063" lon="-3.57461">
        <ele>-12.14</ele>
        <time>2019-07-14T12:43:07Z</time>
      </trkpt>
      <trkpt lat="47.78059" lon="-3.57455">
        <ele>-12.41</ele>
        <time>2019-07-14T12:43:09Z</time>
      </trkpt>
      <trkpt lat="47.78053" lon="-3.57447">
        <ele>-12.34</ele>
        <time>2019-07-14T12:43:11Z</time>
      </trkpt>
      <trkpt lat="47.7805" lon="-3.57443">
        <ele>-12.25</ele>
        <time>2019-07-14T12:43:12Z</time>
      </trkpt>
      <trkpt lat="47.78043" lon="-3.57436">
        <ele>-11.89</ele>
        <time>2019-07-14T12:43:14Z</time>
      </trkpt>
      <trkpt lat="47.78037" lon="-3.57429">
        <ele>-11.98</ele>
        <time>2019-07-14T12:43:16Z</time>
      </trkpt>
      <trkpt lat="47.78034" lon="-3.57424">
        <ele>-12.21</ele>
        <time>2019-07-14T12:43:17Z</time>
      </trkpt>
      <trkpt lat="47.7803" lon="-3.57418">
        <ele>-13.12</ele>
        <time>2019-07-14T12:43:18Z</time>
      </trkpt>
      <trkpt lat="47.78027" lon="-3.57412">
        <ele>-13.82</ele>
        <time>2019-07-14T12:43:19Z</time>
      </trkpt>
      <trkpt lat="47.78024" lon="-3.57405">
        <ele>-14.16</ele>
        <time>2019-07-14T12:43:20Z</time>
      </trkpt>
      <trkpt lat="47.78022" lon="-3.57399">
        <ele>-14.55</ele>
        <time>2019-07-14T12:43:21Z</time>
      </trkpt>
      <trkpt lat="47.78019" lon="-3.57387">
        <ele>-15.16</ele>
        <time>2019-07-14T12:43:23Z</time>
      </trkpt>
      <trkpt lat="47.78015" lon="-3.57378">
        <ele>-15.54</ele>
        <time>2019-07-14T12:43:25Z</time>
      </trkpt>
      <trkpt lat="47.78011" lon="-3.57367">
        <ele>-14.52</ele>
        <time>2019-07-14T12:43:27Z</time>
      </trkpt>
      <trkpt lat="47.78006" lon="-3.5736">
        <ele>-14.03</ele>
        <time>2019-07-14T12:43:29Z</time>
      </trkpt>
      <trkpt lat="47.78001" lon="-3.57359">
        <ele>-13.39</ele>
        <time>2019-07-14T12:43:30Z</time>
      </trkpt>
      <trkpt lat="47.77993" lon="-3.57358">
        <ele>-12.91</ele>
        <time>2019-07-14T12:43:32Z</time>
      </trkpt>
      <trkpt lat="47.77984" lon="-3.57356">
        <ele>-11.83</ele>
        <time>2019-07-14T12:43:34Z</time>
      </trkpt>
      <trkpt lat="47.77979" lon="-3.57356">
        <ele>-10.98</ele>
        <time>2019-07-14T12:43:35Z</time>
      </trkpt>
      <trkpt lat="47.77975" lon="-3.57356">
        <ele>-9.95</ele>
        <time>2019-07-14T12:43:36Z</time>
      </trkpt>
      <trkpt lat="47.7797" lon="-3.57355">
        <ele>-8.87</ele>
        <time>2019-07-14T12:43:37Z</time>
      </trkpt>
      <trkpt lat="47.77965" lon="-3.57355">
        <ele>-7.99</ele>
        <time>2019-07-14T12:43:38Z</time>
      </trkpt>
      <trkpt lat="47.77956" lon="-3.57355">
        <ele>-5.84</ele>
        <time>2019-07-14T12:43:40Z</time>
      </trkpt>
      <trkpt lat="47.77952" lon="-3.57355">
        <ele>-5.96</ele>
        <time>2019-07-14T12:43:41Z</time>
      </trkpt>
      <trkpt lat="47.77947" lon="-3.57355">
        <ele>-6.21</ele>
        <time>2019-07-14T12:43:42Z</time>
      </trkpt>
      <trkpt lat="47.77938" lon="-3.57356">
        <ele>-5.08</ele>
        <time>2019-07-14T12:43:44Z</time>
      </trkpt>
      <trkpt lat="47.77933" lon="-3.57357">
        <ele>-4.61</ele>
        <time>2019-07-14T12:43:45Z</time>
      </trkpt>
      <trkpt lat="47.77929" lon="-3.57357">
        <ele>-4.19</ele>
        <time>2019-07-14T12:43:46Z</time>
      </trkpt>
      <trkpt lat="47.77923" lon="-3.57357">
        <ele>-3.02</ele>
        <time>2019-07-14T12:43:47Z</time>
      </trkpt>
      <trkpt lat="47.77917" lon="-3.57358">
        <ele>-1.96</ele>
        <time>2019-07-14T12:43:48Z</time>
      </trkpt>
      <trkpt lat="47.77913" lon="-3.57359">
        <ele>-1.09</ele>
        <time>2019-07-14T12:43:49Z</time>
      </trkpt>
      <trkpt lat="47.77908" lon="-3.57359">
        <ele>-0.19</ele>
        <time>2019-07-14T12:43:50Z</time>
      </trkpt>
      <trkpt lat="47.77898" lon="-3.5736">
        <ele>0.75</ele>
        <time>2019-07-14T12:43:52Z</time>
      </trkpt>
      <trkpt lat="47.77892" lon="-3.57361">
        <ele>0.78</ele>
        <time>2019-07-14T12:43:53Z</time>
      </trkpt>
      <trkpt lat="47.77887" lon="-3.57362">
        <ele>0.85</ele>
        <time>2019-07-14T12:43:54Z</time>
      </trkpt>
      <trkpt lat="47.77881" lon="-3.57362">
        <ele>0.74</ele>
        <time>2019-07-14T12:43:55Z</time>
      </trkpt>
      <trkpt lat="47.77875" lon="-3.57363">
        <ele>0.98</ele>
        <time>2019-07-14T12:43:56Z</time>
      </trkpt>
      <trkpt lat="47.7787" lon="-3.57365">
        <ele>1.48</ele>
        <time>2019-07-14T12:43:57Z</time>
      </trkpt>
      <trkpt lat="47.77864" lon="-3.57366">
        <ele>1.06</ele>
        <time>2019-07-14T12:43:58Z</time>
      </trkpt>
      <trkpt lat="47.77858" lon="-3.57366">
        <ele>0.17</ele>
        <time>2019-07-14T12:43:59Z</time>
      </trkpt>
      <trkpt lat="47.77852" lon="-3.57367">
        <ele>-0.1</ele>
        <time>2019-07-14T12:44:00Z</time>
      </trkpt>
      <trkpt lat="47.77847" lon="-3.57368">
        <ele>0.03</ele>
        <time>2019-07-14T12:44:01Z</time>
      </trkpt>
      <trkpt lat="47.77841" lon="-3.5737">
        <ele>-0.84</ele>
        <time>2019-07-14T12:44:02Z</time>
      </trkpt>
      <trkpt lat="47.77835" lon="-3.57372">
        <ele>-2.29</ele>
        <time>2019-07-14T12:44:03Z</time>
      </trkpt>
      <trkpt lat="47.7783" lon="-3.57374">
        <ele>-3.43</ele>
        <time>2019-07-14T12:44:04Z</time>
      </trkpt>
      <trkpt lat="47.77824" lon="-3.57376">
        <ele>-4.33</ele>
        <time>2019-07-14T12:44:05Z</time>
      </trkpt>
      <trkpt lat="47.77818" lon="-3.57376">
        <ele>-5.09</ele>
        <time>2019-07-14T12:44:06Z</time>
      </trkpt>
      <trkpt lat="47.77812" lon="-3.57377">
        <ele>-5.94</ele>
        <time>2019-07-14T12:44:07Z</time>
      </trkpt>
      <trkpt lat="47.77806" lon="-3.57378">
        <ele>-6.83</ele>
        <time>2019-07-14T12:44:08Z</time>
      </trkpt>
      <trkpt lat="47.778" lon="-3.57379">
        <ele>-7.52</ele>
        <time>2019-07-14T12:44:09Z</time>
      </trkpt>
      <trkpt lat="47.77793" lon="-3.57379">
        <ele>-8.56</ele>
        <time>2019-07-14T12:44:10Z</time>
      </trkpt>
      <trkpt lat="47.77786" lon="-3.5738">
        <ele>-9.51</ele>
        <time>2019-07-14T12:44:11Z</time>
      </trkpt>
      <trkpt lat="47.7778" lon="-3.57381">
        <ele>-10.07</ele>
        <time>2019-07-14T12:44:12Z</time>
      </trkpt>
      <trkpt lat="47.77773" lon="-3.57382">
        <ele>-10.38</ele>
        <time>2019-07-14T12:44:13Z</time>
      </trkpt>
      <trkpt lat="47.77766" lon="-3.57385">
        <ele>-10.61</ele>
        <time>2019-07-14T12:44:14Z</time>
      </trkpt>
      <trkpt lat="47.7776" lon="-3.57388">
        <ele>-10.96</ele>
        <time>2019-07-14T12:44:15Z</time>
      </trkpt>
      <trkpt lat="47.77754" lon="-3.57389">
        <ele>-11.77</ele>
        <time>2019-07-14T12:44:16Z</time>
      </trkpt>
      <trkpt lat="47.77747" lon="-3.57391">
        <ele>-12.71</ele>
        <time>2019-07-14T12:44:17Z</time>
      </trkpt>
      <trkpt lat="47.77741" lon="-3.57392">
        <ele>-13.97</ele>
        <time>2019-07-14T12:44:18Z</time>
      </trkpt>
      <trkpt lat="47.77735" lon="-3.57394">
        <ele>-14.91</ele>
        <time>2019-07-14T12:44:19Z</time>
      </trkpt>
      <trkpt lat="47.77729" lon="-3.57395">
        <ele>-15.68</ele>
        <time>2019-07-14T12:44:20Z</time>
      </trkpt>
      <trkpt lat="47.77723" lon="-3.57397">
        <ele>-15.84</ele>
        <time>2019-07-14T12:44:21Z</time>
      </trkpt>
      <trkpt lat="47.77717" lon="-3.57399">
        <ele>-16.24</ele>
        <time>2019-07-14T12:44:22Z</time>
      </trkpt>
      <trkpt lat="47.77711" lon="-3.574">
        <ele>-16.36</ele>
        <time>2019-07-14T12:44:23Z</time>
      </trkpt>
      <trkpt lat="47.77706" lon="-3.57401">
        <ele>-16.4</ele>
        <time>2019-07-14T12:44:24Z</time>
      </trkpt>
      <trkpt lat="47.777" lon="-3.57402">
        <ele>-16.62</ele>
        <time>2019-07-14T12:44:25Z</time>
      </trkpt>
      <trkpt lat="47.77694" lon="-3.57404">
        <ele>-17.03</ele>
        <time>2019-07-14T12:44:26Z</time>
      </trkpt>
      <trkpt lat="47.77689" lon="-3.57406">
        <ele>-17.51</ele>
        <time>2019-07-14T12:44:27Z</time>
      </trkpt>
      <trkpt lat="47.77683" lon="-3.57408">
        <ele>-17.86</ele>
        <time>2019-07-14T12:44:28Z</time>
      </trkpt>
      <trkpt lat="47.77678" lon="-3.57411">
        <ele>-18.04</ele>
        <time>2019-07-14T12:44:29Z</time>
      </trkpt>
      <trkpt lat="47.77672" lon="-3.57413">
        <ele>-18.44</ele>
        <time>2019-07-14T12:44:30Z</time>
      </trkpt>
      <trkpt lat="47.77667" lon="-3.57417">
        <ele>-19.26</ele>
        <time>2019-07-14T12:44:31Z</time>
      </trkpt>
      <trkpt lat="47.77662" lon="-3.57421">
        <ele>-20.14</ele>
        <time>2019-07-14T12:44:32Z</time>
      </trkpt>
      <trkpt lat="47.77657" lon="-3.57425">
        <ele>-20.61</ele>
        <time>2019-07-14T12:44:33Z</time>
      </trkpt>
      <trkpt lat="47.77651" lon="-3.57428">
        <ele>-20.96</ele>
        <time>2019-07-14T12:44:34Z</time>
      </trkpt>
      <trkpt lat="47.77646" lon="-3.57433">
        <ele>-21.14</ele>
        <time>2019-07-14T12:44:35Z</time>
      </trkpt>
      <trkpt lat="47.77641" lon="-3.57437">
        <ele>-20.98</ele>
        <time>2019-07-14T12:44:36Z</time>
      </trkpt>
      <trkpt lat="47.77636" lon="-3.57441">
        <ele>-20.93</ele>
        <time>2019-07-14T12:44:37Z</time>
      </trkpt>
      <trkpt lat="47.77632" lon="-3.57446">
        <ele>-20.71</ele>
        <time>2019-07-14T12:44:38Z</time>
      </trkpt>
      <trkpt lat="47.77629" lon="-3.57451">
        <ele>-20.64</ele>
        <time>2019-07-14T12:44:39Z</time>
      </trkpt>
      <trkpt lat="47.77625" lon="-3.57456">
        <ele>-21.6</ele>
        <time>2019-07-14T12:44:40Z</time>
      </trkpt>
      <trkpt lat="47.77622" lon="-3.57461">
        <ele>-22.31</ele>
        <time>2019-07-14T12:44:41Z</time>
      </trkpt>
      <trkpt lat="47.77617" lon="-3.57465">
        <ele>-22.87</ele>
        <time>2019-07-14T12:44:42Z</time>
      </trkpt>
      <trkpt lat="47.77612" lon="-3.57469">
        <ele>-23.67</ele>
        <time>2019-07-14T12:44:43Z</time>
      </trkpt>
      <trkpt lat="47.77607" lon="-3.57473">
        <ele>-24.68</ele>
        <time>2019-07-14T12:44:44Z</time>
      </trkpt>
      <trkpt lat="47.77601" lon="-3.57476">
        <ele>-25.54</ele>
        <time>2019-07-14T12:44:45Z</time>
      </trkpt>
      <trkpt lat="47.77595" lon="-3.5748">
        <ele>-26.22</ele>
        <time>2019-07-14T12:44:46Z</time>
      </trkpt>
      <trkpt lat="47.77589" lon="-3.57485">
        <ele>-26.84</ele>
        <time>2019-07-14T12:44:47Z</time>
      </trkpt>
      <trkpt lat="47.77584" lon="-3.57491">
        <ele>-27.38</ele>
        <time>2019-07-14T12:44:48Z</time>
      </trkpt>
      <trkpt lat="47.77579" lon="-3.57495">
        <ele>-27.89</ele>
        <time>2019-07-14T12:44:49Z</time>
      </trkpt>
      <trkpt lat="47.77573" lon="-3.575">
        <ele>-28.4</ele>
        <time>2019-07-14T12:44:50Z</time>
      </trkpt>
      <trkpt lat="47.77569" lon="-3.57504">
        <ele>-28.83</ele>
        <time>2019-07-14T12:44:51Z</time>
      </trkpt>
      <trkpt lat="47.77563" lon="-3.57507">
        <ele>-29.45</ele>
        <time>2019-07-14T12:44:52Z</time>
      </trkpt>
      <trkpt lat="47.77558" lon="-3.57511">
        <ele>-30.12</ele>
        <time>2019-07-14T12:44:53Z</time>
      </trkpt>
      <trkpt lat="47.77552" lon="-3.57515">
        <ele>-30.33</ele>
        <time>2019-07-14T12:44:54Z</time>
      </trkpt>
      <trkpt lat="47.77546" lon="-3.57519">
        <ele>-29.9</ele>
        <time>2019-07-14T12:44:55Z</time>
      </trkpt>
      <trkpt lat="47.77541" lon="-3.57521">
        <ele>-29.7</ele>
        <time>2019-07-14T12:44:56Z</time>
      </trkpt>
      <trkpt lat="47.77535" lon="-3.57523">
        <ele>-29.71</ele>
        <time>2019-07-14T12:44:57Z</time>
      </trkpt>
      <trkpt lat="47.77529" lon="-3.57524">
        <ele>-29.99</ele>
        <time>2019-07-14T12:44:58Z</time>
      </trkpt>
      <trkpt lat="47.77522" lon="-3.57526">
        <ele>-30.43</ele>
        <time>2019-07-14T12:44:59Z</time>
      </trkpt>
      <trkpt lat="47.77514" lon="-3.57527">
        <ele>-30.84</ele>
        <time>2019-07-14T12:45:00Z</time>
      </trkpt>
      <trkpt lat="47.77506" lon="-3.57527">
        <ele>-30.96</ele>
        <time>2019-07-14T12:45:01Z</time>
      </trkpt>
      <trkpt lat="47.77499" lon="-3.57526">
        <ele>-31.14</ele>
        <time>2019-07-14T12:45:02Z</time>
      </trkpt>
      <trkpt lat="47.77491" lon="-3.57525">
        <ele>-31.26</ele>
        <time>2019-07-14T12:45:03Z</time>
      </trkpt>
      <trkpt lat="47.77483" lon="-3.57522">
        <ele>-31.58</ele>
        <time>2019-07-14T12:45:04Z</time>
      </trkpt>
      <trkpt lat="47.77476" lon="-3.57518">
        <ele>-31.81</ele>
        <time>2019-07-14T12:45:05Z</time>
      </trkpt>
      <trkpt lat="47.7747" lon="-3.57515">
        <ele>-31.46</ele>
        <time>2019-07-14T12:45:06Z</time>
      </trkpt>
      <trkpt lat="47.77462" lon="-3.57511">
        <ele>-31.08</ele>
        <time>2019-07-14T12:45:07Z</time>
      </trkpt>
      <trkpt lat="47.77455" lon="-3.57508">
        <ele>-31.1</ele>
        <time>2019-07-14T12:45:08Z</time>
      </trkpt>
      <trkpt lat="47.77448" lon="-3.57505">
        <ele>-30.97</ele>
        <time>2019-07-14T12:45:09Z</time>
      </trkpt>
      <trkpt lat="47.77441" lon="-3.57503">
        <ele>-30.79</ele>
        <time>2019-07-14T12:45:10Z</time>
      </trkpt>
      <trkpt lat="47.77434" lon="-3.57502">
        <ele>-30.81</ele>
        <time>2019-07-14T12:45:11Z</time>
      </trkpt>
      <trkpt lat="47.77428" lon="-3.57505">
        <ele>-30.6</ele>
        <time>2019-07-14T12:45:12Z</time>
      </trkpt>
      <trkpt lat="47.77422" lon="-3.57506">
        <ele>-30.61</ele>
        <time>2019-07-14T12:45:13Z</time>
      </trkpt>
      <trkpt lat="47.77417" lon="-3.57507">
        <ele>-30.68</ele>
        <time>2019-07-14T12:45:14Z</time>
      </trkpt>
      <trkpt lat="47.77412" lon="-3.57507">
        <ele>-30.35</ele>
        <time>2019-07-14T12:45:15Z</time>
      </trkpt>
      <trkpt lat="47.77407" lon="-3.57507">
        <ele>-30.25</ele>
        <time>2019-07-14T12:45:16Z</time>
      </trkpt>
      <trkpt lat="47.77402" lon="-3.57506">
        <ele>-30.5</ele>
        <time>2019-07-14T12:45:17Z</time>
      </trkpt>
      <trkpt lat="47.77398" lon="-3.57503">
        <ele>-30.72</ele>
        <time>2019-07-14T12:45:18Z</time>
      </trkpt>
      <trkpt lat="47.77393" lon="-3.57501">
        <ele>-30.22</ele>
        <time>2019-07-14T12:45:19Z</time>
      </trkpt>
      <trkpt lat="47.77389" lon="-3.57498">
        <ele>-29.59</ele>
        <time>2019-07-14T12:45:20Z</time>
      </trkpt>
      <trkpt lat="47.77384" lon="-3.57496">
        <ele>-29.11</ele>
        <time>2019-07-14T12:45:21Z</time>
      </trkpt>
      <trkpt lat="47.77379" lon="-3.57494">
        <ele>-28.62</ele>
        <time>2019-07-14T12:45:22Z</time>
      </trkpt>
      <trkpt lat="47.77375" lon="-3.57493">
        <ele>-28.27</ele>
        <time>2019-07-14T12:45:23Z</time>
      </trkpt>
      <trkpt lat="47.77369" lon="-3.57491">
        <ele>-28.16</ele>
        <time>2019-07-14T12:45:24Z</time>
      </trkpt>
      <trkpt lat="47.77365" lon="-3.57489">
        <ele>-27.57</ele>
        <time>2019-07-14T12:45:25Z</time>
      </trkpt>
      <trkpt lat="47.7736" lon="-3.57486">
        <ele>-27.04</ele>
        <time>2019-07-14T12:45:26Z</time>
      </trkpt>
      <trkpt lat="47.77355" lon="-3.57484">
        <ele>-26.53</ele>
        <time>2019-07-14T12:45:27Z</time>
      </trkpt>
      <trkpt lat="47.77347" lon="-3.57482">
        <ele>-26.31</ele>
        <time>2019-07-14T12:45:29Z</time>
      </trkpt>
      <trkpt lat="47.77339" lon="-3.5748">
        <ele>-25.46</ele>
        <time>2019-07-14T12:45:31Z</time>
      </trkpt>
      <trkpt lat="47.77331" lon="-3.57477">
        <ele>-24.96</ele>
        <time>2019-07-14T12:45:33Z</time>
      </trkpt>
      <trkpt lat="47.77322" lon="-3.57474">
        <ele>-24.87</ele>
        <time>2019-07-14T12:45:35Z</time>
      </trkpt>
      <trkpt lat="47.77313" lon="-3.57472">
        <ele>-24.4</ele>
        <time>2019-07-14T12:45:37Z</time>
      </trkpt>
      <trkpt lat="47.77308" lon="-3.57471">
        <ele>-24.34</ele>
        <time>2019-07-14T12:45:38Z</time>
      </trkpt>
      <trkpt lat="47.77303" lon="-3.57471">
        <ele>-24.04</ele>
        <time>2019-07-14T12:45:39Z</time>
      </trkpt>
      <trkpt lat="47.77299" lon="-3.57472">
        <ele>-23.46</ele>
        <time>2019-07-14T12:45:40Z</time>
      </trkpt>
      <trkpt lat="47.77294" lon="-3.57473">
        <ele>-22.87</ele>
        <time>2019-07-14T12:45:41Z</time>
      </trkpt>
      <trkpt lat="47.77289" lon="-3.57475">
        <ele>-22.34</ele>
        <time>2019-07-14T12:45:42Z</time>
      </trkpt>
      <trkpt lat="47.77284" lon="-3.57477">
        <ele>-22.46</ele>
        <time>2019-07-14T12:45:43Z</time>
      </trkpt>
      <trkpt lat="47.7728" lon="-3.5748">
        <ele>-22.5</ele>
        <time>2019-07-14T12:45:44Z</time>
      </trkpt>
      <trkpt lat="47.77276" lon="-3.57483">
        <ele>-22.37</ele>
        <time>2019-07-14T12:45:45Z</time>
      </trkpt>
      <trkpt lat="47.77271" lon="-3.57486">
        <ele>-22.61</ele>
        <time>2019-07-14T12:45:46Z</time>
      </trkpt>
      <trkpt lat="47.77267" lon="-3.57489">
        <ele>-22.89</ele>
        <time>2019-07-14T12:45:47Z</time>
      </trkpt>
      <trkpt lat="47.77261" lon="-3.57491">
        <ele>-23.12</ele>
        <time>2019-07-14T12:45:48Z</time>
      </trkpt>
      <trkpt lat="47.77256" lon="-3.57494">
        <ele>-23.32</ele>
        <time>2019-07-14T12:45:49Z</time>
      </trkpt>
      <trkpt lat="47.7725" lon="-3.57496">
        <ele>-23.81</ele>
        <time>2019-07-14T12:45:50Z</time>
      </trkpt>
      <trkpt lat="47.77243" lon="-3.57498">
        <ele>-24.65</ele>
        <time>2019-07-14T12:45:51Z</time>
      </trkpt>
      <trkpt lat="47.77238" lon="-3.57498">
        <ele>-25.74</ele>
        <time>2019-07-14T12:45:52Z</time>
      </trkpt>
      <trkpt lat="47.7723" lon="-3.57493">
        <ele>-26.45</ele>
        <time>2019-07-14T12:45:54Z</time>
      </trkpt>
      <trkpt lat="47.77229" lon="-3.57483">
        <ele>-27.1</ele>
        <time>2019-07-14T12:45:56Z</time>
      </trkpt>
      <trkpt lat="47.77232" lon="-3.57471">
        <ele>-28.1</ele>
        <time>2019-07-14T12:45:58Z</time>
      </trkpt>
      <trkpt lat="47.77234" lon="-3.57464">
        <ele>-28.46</ele>
        <time>2019-07-14T12:45:59Z</time>
      </trkpt>
      <trkpt lat="47.77237" lon="-3.57457">
        <ele>-28.92</ele>
        <time>2019-07-14T12:46:00Z</time>
      </trkpt>
      <trkpt lat="47.77241" lon="-3.5745">
        <ele>-29.26</ele>
        <time>2019-07-14T12:46:01Z</time>
      </trkpt>
      <trkpt lat="47.77244" lon="-3.57443">
        <ele>-29.58</ele>
        <time>2019-07-14T12:46:02Z</time>
      </trkpt>
      <trkpt lat="47.77247" lon="-3.57436">
        <ele>-30.02</ele>
        <time>2019-07-14T12:46:03Z</time>
      </trkpt>
      <trkpt lat="47.7725" lon="-3.57428">
        <ele>-30.71</ele>
        <time>2019-07-14T12:46:04Z</time>
      </trkpt>
      <trkpt lat="47.77253" lon="-3.5742">
        <ele>-31.83</ele>
        <time>2019-07-14T12:46:05Z</time>
      </trkpt>
      <trkpt lat="47.77255" lon="-3.5741">
        <ele>-32.73</ele>
        <time>2019-07-14T12:46:06Z</time>
      </trkpt>
      <trkpt lat="47.77257" lon="-3.57402">
        <ele>-33.49</ele>
        <time>2019-07-14T12:46:07Z</time>
      </trkpt>
      <trkpt lat="47.77257" lon="-3.57394">
        <ele>-34.27</ele>
        <time>2019-07-14T12:46:08Z</time>
      </trkpt>
      <trkpt lat="47.77257" lon="-3.57386">
        <ele>-35</ele>
        <time>2019-07-14T12:46:09Z</time>
      </trkpt>
      <trkpt lat="47.77258" lon="-3.57374">
        <ele>-36.87</ele>
        <time>2019-07-14T12:46:11Z</time>
      </trkpt>
      <trkpt lat="47.77262" lon="-3.57363">
        <ele>-38.38</ele>
        <time>2019-07-14T12:46:13Z</time>
      </trkpt>
      <trkpt lat="47.77264" lon="-3.57356">
        <ele>-39.03</ele>
        <time>2019-07-14T12:46:14Z</time>
      </trkpt>
      <trkpt lat="47.77266" lon="-3.57349">
        <ele>-39.9</ele>
        <time>2019-07-14T12:46:16Z</time>
      </trkpt>
      <trkpt lat="47.77263" lon="-3.57342">
        <ele>-40.81</ele>
        <time>2019-07-14T12:46:19Z</time>
      </trkpt>
      <trkpt lat="47.77258" lon="-3.5734">
        <ele>-41.01</ele>
        <time>2019-07-14T12:46:22Z</time>
      </trkpt>
      <trkpt lat="47.77252" lon="-3.57341">
        <ele>-41.47</ele>
        <time>2019-07-14T12:46:25Z</time>
      </trkpt>
      <trkpt lat="47.77248" lon="-3.57338">
        <ele>-42.5</ele>
        <time>2019-07-14T12:46:27Z</time>
      </trkpt>
      <trkpt lat="47.77243" lon="-3.57336">
        <ele>-43.13</ele>
        <time>2019-07-14T12:46:29Z</time>
      </trkpt>
      <trkpt lat="47.77237" lon="-3.57334">
        <ele>-42.95</ele>
        <time>2019-07-14T12:46:31Z</time>
      </trkpt>
      <trkpt lat="47.77233" lon="-3.57332">
        <ele>-42.5</ele>
        <time>2019-07-14T12:46:33Z</time>
      </trkpt>
      <trkpt lat="47.77226" lon="-3.57333">
        <ele>-41.78</ele>
        <time>2019-07-14T12:46:35Z</time>
      </trkpt>
      <trkpt lat="47.77217" lon="-3.57333">
        <ele>-41.07</ele>
        <time>2019-07-14T12:46:37Z</time>
      </trkpt>
      <trkpt lat="47.7721" lon="-3.57334">
        <ele>-40.77</ele>
        <time>2019-07-14T12:46:39Z</time>
      </trkpt>
      <trkpt lat="47.77202" lon="-3.57334">
        <ele>-39.91</ele>
        <time>2019-07-14T12:46:41Z</time>
      </trkpt>
      <trkpt lat="47.77194" lon="-3.57336">
        <ele>-39.13</ele>
        <time>2019-07-14T12:46:43Z</time>
      </trkpt>
      <trkpt lat="47.77186" lon="-3.57339">
        <ele>-37.8</ele>
        <time>2019-07-14T12:46:45Z</time>
      </trkpt>
      <trkpt lat="47.77179" lon="-3.5734">
        <ele>-35.61</ele>
        <time>2019-07-14T12:46:47Z</time>
      </trkpt>
      <trkpt lat="47.77173" lon="-3.57344">
        <ele>-33.75</ele>
        <time>2019-07-14T12:46:49Z</time>
      </trkpt>
      <trkpt lat="47.77167" lon="-3.57349">
        <ele>-31.76</ele>
        <time>2019-07-14T12:46:51Z</time>
      </trkpt>
      <trkpt lat="47.77161" lon="-3.57356">
        <ele>-29.59</ele>
        <time>2019-07-14T12:46:53Z</time>
      </trkpt>
      <trkpt lat="47.77156" lon="-3.57366">
        <ele>-29.06</ele>
        <time>2019-07-14T12:46:55Z</time>
      </trkpt>
      <trkpt lat="47.77153" lon="-3.57377">
        <ele>-27.71</ele>
        <time>2019-07-14T12:46:57Z</time>
      </trkpt>
      <trkpt lat="47.77152" lon="-3.57389">
        <ele>-26.11</ele>
        <time>2019-07-14T12:46:59Z</time>
      </trkpt>
      <trkpt lat="47.77152" lon="-3.57401">
        <ele>-26.11</ele>
        <time>2019-07-14T12:47:01Z</time>
      </trkpt>
      <trkpt lat="47.77153" lon="-3.57411">
        <ele>-25.56</ele>
        <time>2019-07-14T12:47:03Z</time>
      </trkpt>
      <trkpt lat="47.77152" lon="-3.5742">
        <ele>-24.73</ele>
        <time>2019-07-14T12:47:05Z</time>
      </trkpt>
      <trkpt lat="47.77145" lon="-3.57422">
        <ele>-23.61</ele>
        <time>2019-07-14T12:47:08Z</time>
      </trkpt>
      <trkpt lat="47.77138" lon="-3.57418">
        <ele>-23.74</ele>
        <time>2019-07-14T12:47:10Z</time>
      </trkpt>
      <trkpt lat="47.7713" lon="-3.57415">
        <ele>-24.72</ele>
        <time>2019-07-14T12:47:12Z</time>
      </trkpt>
      <trkpt lat="47.77122" lon="-3.57414">
        <ele>-25.24</ele>
        <time>2019-07-14T12:47:14Z</time>
      </trkpt>
      <trkpt lat="47.77124" lon="-3.5742">
        <ele>-25.57</ele>
        <time>2019-07-14T12:47:40Z</time>
      </trkpt>
      <trkpt lat="47.77118" lon="-3.57419">
        <ele>-25.95</ele>
        <time>2019-07-14T12:47:42Z</time>
      </trkpt>
      <trkpt lat="47.77112" lon="-3.57418">
        <ele>-26.33</ele>
        <time>2019-07-14T12:47:44Z</time>
      </trkpt>
      <trkpt lat="47.77106" lon="-3.57418">
        <ele>-26.47</ele>
        <time>2019-07-14T12:47:46Z</time>
      </trkpt>
      <trkpt lat="47.77099" lon="-3.57416">
        <ele>-26.9</ele>
        <time>2019-07-14T12:47:48Z</time>
      </trkpt>
      <trkpt lat="47.77093" lon="-3.57414">
        <ele>-27.33</ele>
        <time>2019-07-14T12:47:49Z</time>
      </trkpt>
      <trkpt lat="47.77088" lon="-3.57411">
        <ele>-27.74</ele>
        <time>2019-07-14T12:47:50Z</time>
      </trkpt>
      <trkpt lat="47.77083" lon="-3.57407">
        <ele>-28.35</ele>
        <time>2019-07-14T12:47:51Z</time>
      </trkpt>
      <trkpt lat="47.77077" lon="-3.57403">
        <ele>-29.23</ele>
        <time>2019-07-14T12:47:52Z</time>
      </trkpt>
      <trkpt lat="47.77072" lon="-3.57399">
        <ele>-29.99</ele>
        <time>2019-07-14T12:47:53Z</time>
      </trkpt>
      <trkpt lat="47.77066" lon="-3.57396">
        <ele>-30.42</ele>
        <time>2019-07-14T12:47:54Z</time>
      </trkpt>
      <trkpt lat="47.7706" lon="-3.57392">
        <ele>-31.12</ele>
        <time>2019-07-14T12:47:55Z</time>
      </trkpt>
      <trkpt lat="47.77053" lon="-3.57387">
        <ele>-32.09</ele>
        <time>2019-07-14T12:47:56Z</time>
      </trkpt>
      <trkpt lat="47.77046" lon="-3.57382">
        <ele>-33.16</ele>
        <time>2019-07-14T12:47:57Z</time>
      </trkpt>
      <trkpt lat="47.77039" lon="-3.57377">
        <ele>-34.18</ele>
        <time>2019-07-14T12:47:58Z</time>
      </trkpt>
      <trkpt lat="47.77033" lon="-3.57373">
        <ele>-34.83</ele>
        <time>2019-07-14T12:47:59Z</time>
      </trkpt>
      <trkpt lat="47.77027" lon="-3.57371">
        <ele>-35.59</ele>
        <time>2019-07-14T12:48:00Z</time>
      </trkpt>
      <trkpt lat="47.7702" lon="-3.57369">
        <ele>-36.51</ele>
        <time>2019-07-14T12:48:01Z</time>
      </trkpt>
      <trkpt lat="47.77014" lon="-3.57367">
        <ele>-37.91</ele>
        <time>2019-07-14T12:48:02Z</time>
      </trkpt>
      <trkpt lat="47.77008" lon="-3.57366">
        <ele>-39.17</ele>
        <time>2019-07-14T12:48:03Z</time>
      </trkpt>
      <trkpt lat="47.77001" lon="-3.57365">
        <ele>-40.25</ele>
        <time>2019-07-14T12:48:04Z</time>
      </trkpt>
      <trkpt lat="47.76996" lon="-3.57364">
        <ele>-41.34</ele>
        <time>2019-07-14T12:48:05Z</time>
      </trkpt>
      <trkpt lat="47.76991" lon="-3.57363">
        <ele>-42.23</ele>
        <time>2019-07-14T12:48:06Z</time>
      </trkpt>
      <trkpt lat="47.76986" lon="-3.57362">
        <ele>-44.12</ele>
        <time>2019-07-14T12:48:08Z</time>
      </trkpt>
      <trkpt lat="47.76989" lon="-3.57355">
        <ele>-45.61</ele>
        <time>2019-07-14T12:48:11Z</time>
      </trkpt>
      <trkpt lat="47.76995" lon="-3.57353">
        <ele>-45.91</ele>
        <time>2019-07-14T12:48:13Z</time>
      </trkpt>
      <trkpt lat="47.77003" lon="-3.57349">
        <ele>-45.93</ele>
        <time>2019-07-14T12:48:15Z</time>
      </trkpt>
      <trkpt lat="47.7701" lon="-3.57344">
        <ele>-46.45</ele>
        <time>2019-07-14T12:48:17Z</time>
      </trkpt>
      <trkpt lat="47.77018" lon="-3.57339">
        <ele>-47.54</ele>
        <time>2019-07-14T12:48:19Z</time>
      </trkpt>
      <trkpt lat="47.77024" lon="-3.5733">
        <ele>-48.31</ele>
        <time>2019-07-14T12:48:21Z</time>
      </trkpt>
      <trkpt lat="47.77023" lon="-3.57321">
        <ele>-47.97</ele>
        <time>2019-07-14T12:48:23Z</time>
      </trkpt>
      <trkpt lat="47.7702" lon="-3.57314">
        <ele>-47.74</ele>
        <time>2019-07-14T12:48:25Z</time>
      </trkpt>
      <trkpt lat="47.77014" lon="-3.5731">
        <ele>-49</ele>
        <time>2019-07-14T12:48:28Z</time>
      </trkpt>
      <trkpt lat="47.77011" lon="-3.57305">
        <ele>-49.87</ele>
        <time>2019-07-14T12:48:31Z</time>
      </trkpt>
      <trkpt lat="47.77007" lon="-3.573">
        <ele>-49.08</ele>
        <time>2019-07-14T12:48:34Z</time>
      </trkpt>
      <trkpt lat="47.77003" lon="-3.57294">
        <ele>-48.64</ele>
        <time>2019-07-14T12:48:37Z</time>
      </trkpt>
      <trkpt lat="47.77" lon="-3.57288">
        <ele>-48.35</ele>
        <time>2019-07-14T12:48:40Z</time>
      </trkpt>
      <trkpt lat="47.76997" lon="-3.57282">
        <ele>-48.8</ele>
        <time>2019-07-14T12:48:42Z</time>
      </trkpt>
      <trkpt lat="47.76992" lon="-3.57275">
        <ele>-48.87</ele>
        <time>2019-07-14T12:48:45Z</time>
      </trkpt>
      <trkpt lat="47.76988" lon="-3.57269">
        <ele>-48.81</ele>
        <time>2019-07-14T12:48:48Z</time>
      </trkpt>
      <trkpt lat="47.76986" lon="-3.57262">
        <ele>-48.25</ele>
        <time>2019-07-14T12:48:51Z</time>
      </trkpt>
      <trkpt lat="47.76984" lon="-3.57254">
        <ele>-48</ele>
        <time>2019-07-14T12:48:54Z</time>
      </trkpt>
      <trkpt lat="47.76981" lon="-3.57248">
        <ele>-47.38</ele>
        <time>2019-07-14T12:48:57Z</time>
      </trkpt>
      <trkpt lat="47.76978" lon="-3.57242">
        <ele>-45.84</ele>
        <time>2019-07-14T12:49:00Z</time>
      </trkpt>
      <trkpt lat="47.76975" lon="-3.57237">
        <ele>-43.48</ele>
        <time>2019-07-14T12:49:03Z</time>
      </trkpt>
      <trkpt lat="47.76972" lon="-3.5723">
        <ele>-41.97</ele>
        <time>2019-07-14T12:49:06Z</time>
      </trkpt>
      <trkpt lat="47.7697" lon="-3.57222">
        <ele>-41.79</ele>
        <time>2019-07-14T12:49:09Z</time>
      </trkpt>
      <trkpt lat="47.76968" lon="-3.57213">
        <ele>-42.52</ele>
        <time>2019-07-14T12:49:12Z</time>
      </trkpt>
      <trkpt lat="47.76966" lon="-3.57204">
        <ele>-43.15</ele>
        <time>2019-07-14T12:49:15Z</time>
      </trkpt>
      <trkpt lat="47.76963" lon="-3.57196">
        <ele>-42.82</ele>
        <time>2019-07-14T12:49:18Z</time>
      </trkpt>
      <trkpt lat="47.7696" lon="-3.57189">
        <ele>-41.68</ele>
        <time>2019-07-14T12:49:21Z</time>
      </trkpt>
      <trkpt lat="47.76957" lon="-3.57181">
        <ele>-40.01</ele>
        <time>2019-07-14T12:49:24Z</time>
      </trkpt>
      <trkpt lat="47.76956" lon="-3.57171">
        <ele>-39.15</ele>
        <time>2019-07-14T12:49:27Z</time>
      </trkpt>
      <trkpt lat="47.76956" lon="-3.57162">
        <ele>-38.21</ele>
        <time>2019-07-14T12:49:30Z</time>
      </trkpt>
      <trkpt lat="47.76956" lon="-3.57152">
        <ele>-37.73</ele>
        <time>2019-07-14T12:49:33Z</time>
      </trkpt>
      <trkpt lat="47.76955" lon="-3.57143">
        <ele>-37.85</ele>
        <time>2019-07-14T12:49:36Z</time>
      </trkpt>
      <trkpt lat="47.76952" lon="-3.57134">
        <ele>-38.2</ele>
        <time>2019-07-14T12:49:39Z</time>
      </trkpt>
      <trkpt lat="47.76952" lon="-3.57127">
        <ele>-38.01</ele>
        <time>2019-07-14T12:49:41Z</time>
      </trkpt>
      <trkpt lat="47.76954" lon="-3.57121">
        <ele>-37.37</ele>
        <time>2019-07-14T12:49:43Z</time>
      </trkpt>
      <trkpt lat="47.76955" lon="-3.57111">
        <ele>-36.58</ele>
        <time>2019-07-14T12:49:46Z</time>
      </trkpt>
      <trkpt lat="47.76956" lon="-3.57102">
        <ele>-35.79</ele>
        <time>2019-07-14T12:49:49Z</time>
      </trkpt>
      <trkpt lat="47.76956" lon="-3.57095">
        <ele>-35.45</ele>
        <time>2019-07-14T12:49:51Z</time>
      </trkpt>
      <trkpt lat="47.76955" lon="-3.57087">
        <ele>-34.7</ele>
        <time>2019-07-14T12:49:53Z</time>
      </trkpt>
      <trkpt lat="47.76955" lon="-3.57079">
        <ele>-34.23</ele>
        <time>2019-07-14T12:49:55Z</time>
      </trkpt>
      <trkpt lat="47.76955" lon="-3.5707">
        <ele>-33.57</ele>
        <time>2019-07-14T12:49:57Z</time>
      </trkpt>
      <trkpt lat="47.76955" lon="-3.57063">
        <ele>-32.62</ele>
        <time>2019-07-14T12:49:59Z</time>
      </trkpt>
      <trkpt lat="47.76955" lon="-3.57054">
        <ele>-32.27</ele>
        <time>2019-07-14T12:50:01Z</time>
      </trkpt>
      <trkpt lat="47.76954" lon="-3.57044">
        <ele>-32.91</ele>
        <time>2019-07-14T12:50:03Z</time>
      </trkpt>
      <trkpt lat="47.76952" lon="-3.57035">
        <ele>-34.04</ele>
        <time>2019-07-14T12:50:05Z</time>
      </trkpt>
      <trkpt lat="47.76951" lon="-3.57028">
        <ele>-34.84</ele>
        <time>2019-07-14T12:50:07Z</time>
      </trkpt>
      <trkpt lat="47.76948" lon="-3.57019">
        <ele>-34.98</ele>
        <time>2019-07-14T12:50:10Z</time>
      </trkpt>
      <trkpt lat="47.76944" lon="-3.57012">
        <ele>-35.03</ele>
        <time>2019-07-14T12:50:12Z</time>
      </trkpt>
      <trkpt lat="47.7694" lon="-3.57003">
        <ele>-35.41</ele>
        <time>2019-07-14T12:50:14Z</time>
      </trkpt>
      <trkpt lat="47.76934" lon="-3.56992">
        <ele>-36.08</ele>
        <time>2019-07-14T12:50:16Z</time>
      </trkpt>
      <trkpt lat="47.76932" lon="-3.56979">
        <ele>-37.26</ele>
        <time>2019-07-14T12:50:18Z</time>
      </trkpt>
      <trkpt lat="47.76931" lon="-3.56972">
        <ele>-37.93</ele>
        <time>2019-07-14T12:50:19Z</time>
      </trkpt>
      <trkpt lat="47.7693" lon="-3.56965">
        <ele>-38.34</ele>
        <time>2019-07-14T12:50:20Z</time>
      </trkpt>
      <trkpt lat="47.76928" lon="-3.56958">
        <ele>-38.88</ele>
        <time>2019-07-14T12:50:21Z</time>
      </trkpt>
      <trkpt lat="47.76926" lon="-3.56951">
        <ele>-39.25</ele>
        <time>2019-07-14T12:50:22Z</time>
      </trkpt>
      <trkpt lat="47.76925" lon="-3.56944">
        <ele>-39.92</ele>
        <time>2019-07-14T12:50:23Z</time>
      </trkpt>
      <trkpt lat="47.76922" lon="-3.56936">
        <ele>-40.83</ele>
        <time>2019-07-14T12:50:24Z</time>
      </trkpt>
      <trkpt lat="47.76919" lon="-3.5693">
        <ele>-41.52</ele>
        <time>2019-07-14T12:50:25Z</time>
      </trkpt>
      <trkpt lat="47.76916" lon="-3.56924">
        <ele>-42</ele>
        <time>2019-07-14T12:50:26Z</time>
      </trkpt>
      <trkpt lat="47.76912" lon="-3.56917">
        <ele>-42.57</ele>
        <time>2019-07-14T12:50:27Z</time>
      </trkpt>
      <trkpt lat="47.76908" lon="-3.5691">
        <ele>-43.16</ele>
        <time>2019-07-14T12:50:28Z</time>
      </trkpt>
      <trkpt lat="47.76904" lon="-3.56903">
        <ele>-43.76</ele>
        <time>2019-07-14T12:50:29Z</time>
      </trkpt>
      <trkpt lat="47.76899" lon="-3.56897">
        <ele>-44.15</ele>
        <time>2019-07-14T12:50:30Z</time>
      </trkpt>
      <trkpt lat="47.76895" lon="-3.5689">
        <ele>-43.84</ele>
        <time>2019-07-14T12:50:31Z</time>
      </trkpt>
      <trkpt lat="47.7689" lon="-3.56883">
        <ele>-43.26</ele>
        <time>2019-07-14T12:50:32Z</time>
      </trkpt>
      <trkpt lat="47.76888" lon="-3.56875">
        <ele>-44.07</ele>
        <time>2019-07-14T12:50:33Z</time>
      </trkpt>
      <trkpt lat="47.76888" lon="-3.56865">
        <ele>-45.43</ele>
        <time>2019-07-14T12:50:34Z</time>
      </trkpt>
      <trkpt lat="47.76889" lon="-3.56857">
        <ele>-46.12</ele>
        <time>2019-07-14T12:50:35Z</time>
      </trkpt>
      <trkpt lat="47.7689" lon="-3.56848">
        <ele>-47.3</ele>
        <time>2019-07-14T12:50:36Z</time>
      </trkpt>
      <trkpt lat="47.76892" lon="-3.56841">
        <ele>-47.94</ele>
        <time>2019-07-14T12:50:37Z</time>
      </trkpt>
      <trkpt lat="47.76898" lon="-3.56832">
        <ele>-47.89</ele>
        <time>2019-07-14T12:50:39Z</time>
      </trkpt>
      <trkpt lat="47.76902" lon="-3.56827">
        <ele>-47.83</ele>
        <time>2019-07-14T12:50:40Z</time>
      </trkpt>
      <trkpt lat="47.76909" lon="-3.5682">
        <ele>-47.51</ele>
        <time>2019-07-14T12:50:42Z</time>
      </trkpt>
      <trkpt lat="47.76913" lon="-3.56817">
        <ele>-47.09</ele>
        <time>2019-07-14T12:50:43Z</time>
      </trkpt>
      <trkpt lat="47.76921" lon="-3.56813">
        <ele>-46.79</ele>
        <time>2019-07-14T12:50:45Z</time>
      </trkpt>
      <trkpt lat="47.76927" lon="-3.56807">
        <ele>-46.89</ele>
        <time>2019-07-14T12:50:47Z</time>
      </trkpt>
      <trkpt lat="47.7693" lon="-3.56795">
        <ele>-47.35</ele>
        <time>2019-07-14T12:50:49Z</time>
      </trkpt>
      <trkpt lat="47.76931" lon="-3.56788">
        <ele>-47.11</ele>
        <time>2019-07-14T12:50:50Z</time>
      </trkpt>
      <trkpt lat="47.76933" lon="-3.56782">
        <ele>-47.11</ele>
        <time>2019-07-14T12:50:51Z</time>
      </trkpt>
      <trkpt lat="47.76933" lon="-3.56775">
        <ele>-46.97</ele>
        <time>2019-07-14T12:50:52Z</time>
      </trkpt>
      <trkpt lat="47.76932" lon="-3.56763">
        <ele>-48.42</ele>
        <time>2019-07-14T12:50:54Z</time>
      </trkpt>
      <trkpt lat="47.76932" lon="-3.56756">
        <ele>-48.98</ele>
        <time>2019-07-14T12:50:55Z</time>
      </trkpt>
      <trkpt lat="47.76931" lon="-3.56749">
        <ele>-49.7</ele>
        <time>2019-07-14T12:50:56Z</time>
      </trkpt>
      <trkpt lat="47.76924" lon="-3.56739">
        <ele>-51.07</ele>
        <time>2019-07-14T12:50:58Z</time>
      </trkpt>
      <trkpt lat="47.7692" lon="-3.56735">
        <ele>-51.59</ele>
        <time>2019-07-14T12:50:59Z</time>
      </trkpt>
      <trkpt lat="47.76917" lon="-3.56729">
        <ele>-52.24</ele>
        <time>2019-07-14T12:51:00Z</time>
      </trkpt>
      <trkpt lat="47.76916" lon="-3.56722">
        <ele>-52.64</ele>
        <time>2019-07-14T12:51:01Z</time>
      </trkpt>
      <trkpt lat="47.76915" lon="-3.56709">
        <ele>-53.05</ele>
        <time>2019-07-14T12:51:03Z</time>
      </trkpt>
      <trkpt lat="47.76912" lon="-3.567">
        <ele>-52.34</ele>
        <time>2019-07-14T12:51:05Z</time>
      </trkpt>
      <trkpt lat="47.76908" lon="-3.56693">
        <ele>-51.45</ele>
        <time>2019-07-14T12:51:07Z</time>
      </trkpt>
      <trkpt lat="47.76907" lon="-3.56686">
        <ele>-50.91</ele>
        <time>2019-07-14T12:51:09Z</time>
      </trkpt>
      <trkpt lat="47.76904" lon="-3.56678">
        <ele>-49.56</ele>
        <time>2019-07-14T12:51:12Z</time>
      </trkpt>
      <trkpt lat="47.76901" lon="-3.5667">
        <ele>-48.66</ele>
        <time>2019-07-14T12:51:14Z</time>
      </trkpt>
      <trkpt lat="47.769" lon="-3.56659">
        <ele>-48.76</ele>
        <time>2019-07-14T12:51:16Z</time>
      </trkpt>
      <trkpt lat="47.76901" lon="-3.56646">
        <ele>-49.24</ele>
        <time>2019-07-14T12:51:18Z</time>
      </trkpt>
      <trkpt lat="47.76901" lon="-3.56635">
        <ele>-48.84</ele>
        <time>2019-07-14T12:51:20Z</time>
      </trkpt>
      <trkpt lat="47.76903" lon="-3.56625">
        <ele>-47.76</ele>
        <time>2019-07-14T12:51:22Z</time>
      </trkpt>
      <trkpt lat="47.76904" lon="-3.56617">
        <ele>-47.16</ele>
        <time>2019-07-14T12:51:24Z</time>
      </trkpt>
      <trkpt lat="47.76905" lon="-3.5661">
        <ele>-45.88</ele>
        <time>2019-07-14T12:51:26Z</time>
      </trkpt>
      <trkpt lat="47.76905" lon="-3.56602">
        <ele>-45</ele>
        <time>2019-07-14T12:51:28Z</time>
      </trkpt>
      <trkpt lat="47.76903" lon="-3.56594">
        <ele>-44.42</ele>
        <time>2019-07-14T12:51:30Z</time>
      </trkpt>
      <trkpt lat="47.769" lon="-3.56586">
        <ele>-43.61</ele>
        <time>2019-07-14T12:51:32Z</time>
      </trkpt>
      <trkpt lat="47.76897" lon="-3.56579">
        <ele>-42.53</ele>
        <time>2019-07-14T12:51:34Z</time>
      </trkpt>
      <trkpt lat="47.76894" lon="-3.56571">
        <ele>-41.25</ele>
        <time>2019-07-14T12:51:36Z</time>
      </trkpt>
      <trkpt lat="47.76893" lon="-3.56561">
        <ele>-40.58</ele>
        <time>2019-07-14T12:51:38Z</time>
      </trkpt>
      <trkpt lat="47.76893" lon="-3.56551">
        <ele>-39.94</ele>
        <time>2019-07-14T12:51:40Z</time>
      </trkpt>
      <trkpt lat="47.76894" lon="-3.5654">
        <ele>-39.09</ele>
        <time>2019-07-14T12:51:42Z</time>
      </trkpt>
      <trkpt lat="47.76894" lon="-3.56529">
        <ele>-38.37</ele>
        <time>2019-07-14T12:51:44Z</time>
      </trkpt>
      <trkpt lat="47.76893" lon="-3.56519">
        <ele>-37.86</ele>
        <time>2019-07-14T12:51:46Z</time>
      </trkpt>
      <trkpt lat="47.76893" lon="-3.56508">
        <ele>-37.63</ele>
        <time>2019-07-14T12:51:48Z</time>
      </trkpt>
      <trkpt lat="47.76895" lon="-3.56497">
        <ele>-37.87</ele>
        <time>2019-07-14T12:51:50Z</time>
      </trkpt>
      <trkpt lat="47.76896" lon="-3.56486">
        <ele>-38.92</ele>
        <time>2019-07-14T12:51:52Z</time>
      </trkpt>
      <trkpt lat="47.76897" lon="-3.56479">
        <ele>-39.69</ele>
        <time>2019-07-14T12:51:53Z</time>
      </trkpt>
      <trkpt lat="47.76898" lon="-3.56466">
        <ele>-39.94</ele>
        <time>2019-07-14T12:51:55Z</time>
      </trkpt>
      <trkpt lat="47.76898" lon="-3.56459">
        <ele>-40.2</ele>
        <time>2019-07-14T12:51:56Z</time>
      </trkpt>
      <trkpt lat="47.76896" lon="-3.56447">
        <ele>-40.55</ele>
        <time>2019-07-14T12:51:58Z</time>
      </trkpt>
      <trkpt lat="47.76894" lon="-3.56436">
        <ele>-41.87</ele>
        <time>2019-07-14T12:52:00Z</time>
      </trkpt>
      <trkpt lat="47.76892" lon="-3.56424">
        <ele>-42.03</ele>
        <time>2019-07-14T12:52:02Z</time>
      </trkpt>
      <trkpt lat="47.76891" lon="-3.56413">
        <ele>-43.11</ele>
        <time>2019-07-14T12:52:04Z</time>
      </trkpt>
      <trkpt lat="47.76887" lon="-3.56401">
        <ele>-43.43</ele>
        <time>2019-07-14T12:52:06Z</time>
      </trkpt>
      <trkpt lat="47.76886" lon="-3.56388">
        <ele>-43.89</ele>
        <time>2019-07-14T12:52:08Z</time>
      </trkpt>
      <trkpt lat="47.76888" lon="-3.56376">
        <ele>-44.48</ele>
        <time>2019-07-14T12:52:10Z</time>
      </trkpt>
      <trkpt lat="47.7689" lon="-3.56369">
        <ele>-44.92</ele>
        <time>2019-07-14T12:52:11Z</time>
      </trkpt>
      <trkpt lat="47.76893" lon="-3.56363">
        <ele>-45.2</ele>
        <time>2019-07-14T12:52:12Z</time>
      </trkpt>
      <trkpt lat="47.76896" lon="-3.56356">
        <ele>-45.35</ele>
        <time>2019-07-14T12:52:13Z</time>
      </trkpt>
      <trkpt lat="47.76899" lon="-3.56349">
        <ele>-45.53</ele>
        <time>2019-07-14T12:52:14Z</time>
      </trkpt>
      <trkpt lat="47.76901" lon="-3.56341">
        <ele>-45.59</ele>
        <time>2019-07-14T12:52:15Z</time>
      </trkpt>
      <trkpt lat="47.76903" lon="-3.56334">
        <ele>-45.46</ele>
        <time>2019-07-14T12:52:16Z</time>
      </trkpt>
      <trkpt lat="47.76906" lon="-3.56326">
        <ele>-45.43</ele>
        <time>2019-07-14T12:52:17Z</time>
      </trkpt>
      <trkpt lat="47.76908" lon="-3.56317">
        <ele>-45.35</ele>
        <time>2019-07-14T12:52:18Z</time>
      </trkpt>
      <trkpt lat="47.76909" lon="-3.56309">
        <ele>-45.6</ele>
        <time>2019-07-14T12:52:19Z</time>
      </trkpt>
      <trkpt lat="47.76911" lon="-3.563">
        <ele>-46.38</ele>
        <time>2019-07-14T12:52:20Z</time>
      </trkpt>
      <trkpt lat="47.76913" lon="-3.56293">
        <ele>-46.75</ele>
        <time>2019-07-14T12:52:21Z</time>
      </trkpt>
      <trkpt lat="47.76916" lon="-3.56285">
        <ele>-47.28</ele>
        <time>2019-07-14T12:52:22Z</time>
      </trkpt>
      <trkpt lat="47.76918" lon="-3.56276">
        <ele>-47.09</ele>
        <time>2019-07-14T12:52:23Z</time>
      </trkpt>
      <trkpt lat="47.76921" lon="-3.56268">
        <ele>-47.04</ele>
        <time>2019-07-14T12:52:24Z</time>
      </trkpt>
      <trkpt lat="47.76923" lon="-3.5626">
        <ele>-47.23</ele>
        <time>2019-07-14T12:52:25Z</time>
      </trkpt>
      <trkpt lat="47.76925" lon="-3.56253">
        <ele>-47.15</ele>
        <time>2019-07-14T12:52:26Z</time>
      </trkpt>
      <trkpt lat="47.76926" lon="-3.56247">
        <ele>-47.12</ele>
        <time>2019-07-14T12:52:27Z</time>
      </trkpt>
      <trkpt lat="47.76929" lon="-3.56234">
        <ele>-46.79</ele>
        <time>2019-07-14T12:52:29Z</time>
      </trkpt>
      <trkpt lat="47.76932" lon="-3.56224">
        <ele>-47.37</ele>
        <time>2019-07-14T12:52:31Z</time>
      </trkpt>
      <trkpt lat="47.76936" lon="-3.56213">
        <ele>-47.5</ele>
        <time>2019-07-14T12:52:33Z</time>
      </trkpt>
      <trkpt lat="47.76939" lon="-3.56202">
        <ele>-47.83</ele>
        <time>2019-07-14T12:52:35Z</time>
      </trkpt>
      <trkpt lat="47.76942" lon="-3.56191">
        <ele>-48</ele>
        <time>2019-07-14T12:52:37Z</time>
      </trkpt>
      <trkpt lat="47.76943" lon="-3.5618">
        <ele>-47.8</ele>
        <time>2019-07-14T12:52:39Z</time>
      </trkpt>
      <trkpt lat="47.76945" lon="-3.56168">
        <ele>-47.72</ele>
        <time>2019-07-14T12:52:41Z</time>
      </trkpt>
      <trkpt lat="47.76947" lon="-3.56157">
        <ele>-46.41</ele>
        <time>2019-07-14T12:52:43Z</time>
      </trkpt>
      <trkpt lat="47.76948" lon="-3.56145">
        <ele>-45.49</ele>
        <time>2019-07-14T12:52:45Z</time>
      </trkpt>
      <trkpt lat="47.76949" lon="-3.56133">
        <ele>-44.56</ele>
        <time>2019-07-14T12:52:47Z</time>
      </trkpt>
      <trkpt lat="47.76949" lon="-3.56122">
        <ele>-43.43</ele>
        <time>2019-07-14T12:52:49Z</time>
      </trkpt>
      <trkpt lat="47.7695" lon="-3.56111">
        <ele>-43</ele>
        <time>2019-07-14T12:52:51Z</time>
      </trkpt>
      <trkpt lat="47.76953" lon="-3.56102">
        <ele>-40.28</ele>
        <time>2019-07-14T12:52:53Z</time>
      </trkpt>
      <trkpt lat="47.76954" lon="-3.56091">
        <ele>-38.37</ele>
        <time>2019-07-14T12:52:55Z</time>
      </trkpt>
      <trkpt lat="47.76955" lon="-3.5608">
        <ele>-37.14</ele>
        <time>2019-07-14T12:52:57Z</time>
      </trkpt>
      <trkpt lat="47.76955" lon="-3.5607">
        <ele>-36.36</ele>
        <time>2019-07-14T12:52:59Z</time>
      </trkpt>
      <trkpt lat="47.76956" lon="-3.56062">
        <ele>-36.04</ele>
        <time>2019-07-14T12:53:01Z</time>
      </trkpt>
      <trkpt lat="47.76956" lon="-3.56054">
        <ele>-36.84</ele>
        <time>2019-07-14T12:53:03Z</time>
      </trkpt>
      <trkpt lat="47.76954" lon="-3.56047">
        <ele>-36.23</ele>
        <time>2019-07-14T12:53:05Z</time>
      </trkpt>
      <trkpt lat="47.7695" lon="-3.5604">
        <ele>-35.8</ele>
        <time>2019-07-14T12:53:07Z</time>
      </trkpt>
      <trkpt lat="47.76955" lon="-3.56036">
        <ele>-34.81</ele>
        <time>2019-07-14T12:53:10Z</time>
      </trkpt>
      <trkpt lat="47.76959" lon="-3.56027">
        <ele>-35.98</ele>
        <time>2019-07-14T12:53:13Z</time>
      </trkpt>
      <trkpt lat="47.76961" lon="-3.56017">
        <ele>-35.97</ele>
        <time>2019-07-14T12:53:15Z</time>
      </trkpt>
      <trkpt lat="47.76962" lon="-3.56006">
        <ele>-35.8</ele>
        <time>2019-07-14T12:53:17Z</time>
      </trkpt>
      <trkpt lat="47.76963" lon="-3.55996">
        <ele>-35.97</ele>
        <time>2019-07-14T12:53:19Z</time>
      </trkpt>
      <trkpt lat="47.76965" lon="-3.55984">
        <ele>-36.1</ele>
        <time>2019-07-14T12:53:21Z</time>
      </trkpt>
      <trkpt lat="47.76966" lon="-3.55971">
        <ele>-35.95</ele>
        <time>2019-07-14T12:53:23Z</time>
      </trkpt>
      <trkpt lat="47.76968" lon="-3.55958">
        <ele>-35.94</ele>
        <time>2019-07-14T12:53:25Z</time>
      </trkpt>
      <trkpt lat="47.7697" lon="-3.55945">
        <ele>-36.01</ele>
        <time>2019-07-14T12:53:27Z</time>
      </trkpt>
      <trkpt lat="47.76972" lon="-3.55934">
        <ele>-35.9</ele>
        <time>2019-07-14T12:53:29Z</time>
      </trkpt>
      <trkpt lat="47.76975" lon="-3.55921">
        <ele>-35.87</ele>
        <time>2019-07-14T12:53:31Z</time>
      </trkpt>
      <trkpt lat="47.76978" lon="-3.55909">
        <ele>-36.62</ele>
        <time>2019-07-14T12:53:33Z</time>
      </trkpt>
      <trkpt lat="47.76982" lon="-3.55898">
        <ele>-36.47</ele>
        <time>2019-07-14T12:53:35Z</time>
      </trkpt>
      <trkpt lat="47.76985" lon="-3.55892">
        <ele>-36.15</ele>
        <time>2019-07-14T12:53:36Z</time>
      </trkpt>
      <trkpt lat="47.76989" lon="-3.55882">
        <ele>-35.26</ele>
        <time>2019-07-14T12:53:38Z</time>
      </trkpt>
      <trkpt lat="47.76991" lon="-3.55874">
        <ele>-33.91</ele>
        <time>2019-07-14T12:53:40Z</time>
      </trkpt>
      <trkpt lat="47.76995" lon="-3.55866">
        <ele>-32.29</ele>
        <time>2019-07-14T12:53:42Z</time>
      </trkpt>
      <trkpt lat="47.76998" lon="-3.5586">
        <ele>-30.08</ele>
        <time>2019-07-14T12:53:45Z</time>
      </trkpt>
      <trkpt lat="47.76991" lon="-3.55857">
        <ele>-29.62</ele>
        <time>2019-07-14T12:54:00Z</time>
      </trkpt>
      <trkpt lat="47.76985" lon="-3.55857">
        <ele>-29.84</ele>
        <time>2019-07-14T12:54:02Z</time>
      </trkpt>
      <trkpt lat="47.76977" lon="-3.55858">
        <ele>-30.21</ele>
        <time>2019-07-14T12:54:04Z</time>
      </trkpt>
      <trkpt lat="47.76971" lon="-3.55859">
        <ele>-30.35</ele>
        <time>2019-07-14T12:54:05Z</time>
      </trkpt>
      <trkpt lat="47.76965" lon="-3.55859">
        <ele>-30.95</ele>
        <time>2019-07-14T12:54:06Z</time>
      </trkpt>
      <trkpt lat="47.76959" lon="-3.5586">
        <ele>-31.48</ele>
        <time>2019-07-14T12:54:07Z</time>
      </trkpt>
      <trkpt lat="47.76953" lon="-3.55861">
        <ele>-31.99</ele>
        <time>2019-07-14T12:54:08Z</time>
      </trkpt>
      <trkpt lat="47.76947" lon="-3.55862">
        <ele>-32.57</ele>
        <time>2019-07-14T12:54:09Z</time>
      </trkpt>
      <trkpt lat="47.76942" lon="-3.55862">
        <ele>-33.23</ele>
        <time>2019-07-14T12:54:10Z</time>
      </trkpt>
      <trkpt lat="47.76937" lon="-3.55861">
        <ele>-33.85</ele>
        <time>2019-07-14T12:54:11Z</time>
      </trkpt>
      <trkpt lat="47.76932" lon="-3.5586">
        <ele>-34.59</ele>
        <time>2019-07-14T12:54:12Z</time>
      </trkpt>
      <trkpt lat="47.76926" lon="-3.55858">
        <ele>-35.45</ele>
        <time>2019-07-14T12:54:13Z</time>
      </trkpt>
      <trkpt lat="47.76919" lon="-3.55857">
        <ele>-35.84</ele>
        <time>2019-07-14T12:54:14Z</time>
      </trkpt>
      <trkpt lat="47.76912" lon="-3.55854">
        <ele>-36.17</ele>
        <time>2019-07-14T12:54:15Z</time>
      </trkpt>
      <trkpt lat="47.76906" lon="-3.55851">
        <ele>-36.41</ele>
        <time>2019-07-14T12:54:16Z</time>
      </trkpt>
      <trkpt lat="47.76899" lon="-3.55847">
        <ele>-36.76</ele>
        <time>2019-07-14T12:54:17Z</time>
      </trkpt>
      <trkpt lat="47.76893" lon="-3.55843">
        <ele>-36.94</ele>
        <time>2019-07-14T12:54:18Z</time>
      </trkpt>
      <trkpt lat="47.76886" lon="-3.55839">
        <ele>-37.27</ele>
        <time>2019-07-14T12:54:19Z</time>
      </trkpt>
      <trkpt lat="47.7688" lon="-3.55834">
        <ele>-37.86</ele>
        <time>2019-07-14T12:54:20Z</time>
      </trkpt>
      <trkpt lat="47.76873" lon="-3.5583">
        <ele>-38.74</ele>
        <time>2019-07-14T12:54:21Z</time>
      </trkpt>
      <trkpt lat="47.76867" lon="-3.55825">
        <ele>-39</ele>
        <time>2019-07-14T12:54:22Z</time>
      </trkpt>
      <trkpt lat="47.76861" lon="-3.5582">
        <ele>-39.29</ele>
        <time>2019-07-14T12:54:23Z</time>
      </trkpt>
      <trkpt lat="47.76857" lon="-3.55816">
        <ele>-39.93</ele>
        <time>2019-07-14T12:54:24Z</time>
      </trkpt>
      <trkpt lat="47.76855" lon="-3.55805">
        <ele>-41.34</ele>
        <time>2019-07-14T12:54:26Z</time>
      </trkpt>
      <trkpt lat="47.76856" lon="-3.55798">
        <ele>-42.44</ele>
        <time>2019-07-14T12:54:27Z</time>
      </trkpt>
      <trkpt lat="47.76858" lon="-3.55791">
        <ele>-43.47</ele>
        <time>2019-07-14T12:54:28Z</time>
      </trkpt>
      <trkpt lat="47.7686" lon="-3.55783">
        <ele>-44.48</ele>
        <time>2019-07-14T12:54:29Z</time>
      </trkpt>
      <trkpt lat="47.76863" lon="-3.55774">
        <ele>-45.2</ele>
        <time>2019-07-14T12:54:30Z</time>
      </trkpt>
      <trkpt lat="47.76865" lon="-3.55765">
        <ele>-45.77</ele>
        <time>2019-07-14T12:54:31Z</time>
      </trkpt>
      <trkpt lat="47.76868" lon="-3.55756">
        <ele>-46.64</ele>
        <time>2019-07-14T12:54:32Z</time>
      </trkpt>
      <trkpt lat="47.76871" lon="-3.55747">
        <ele>-47.53</ele>
        <time>2019-07-14T12:54:33Z</time>
      </trkpt>
      <trkpt lat="47.76873" lon="-3.55739">
        <ele>-48.36</ele>
        <time>2019-07-14T12:54:34Z</time>
      </trkpt>
      <trkpt lat="47.76876" lon="-3.55731">
        <ele>-48.47</ele>
        <time>2019-07-14T12:54:35Z</time>
      </trkpt>
      <trkpt lat="47.76876" lon="-3.55721">
        <ele>-49.24</ele>
        <time>2019-07-14T12:54:37Z</time>
      </trkpt>
      <trkpt lat="47.76875" lon="-3.55712">
        <ele>-49.62</ele>
        <time>2019-07-14T12:54:41Z</time>
      </trkpt>
      <trkpt lat="47.76873" lon="-3.55704">
        <ele>-51.31</ele>
        <time>2019-07-14T12:54:43Z</time>
      </trkpt>
      <trkpt lat="47.7687" lon="-3.55696">
        <ele>-52.2</ele>
        <time>2019-07-14T12:54:45Z</time>
      </trkpt>
      <trkpt lat="47.76867" lon="-3.55688">
        <ele>-52.37</ele>
        <time>2019-07-14T12:54:47Z</time>
      </trkpt>
      <trkpt lat="47.76869" lon="-3.55679">
        <ele>-51.57</ele>
        <time>2019-07-14T12:54:49Z</time>
      </trkpt>
      <trkpt lat="47.76873" lon="-3.55669">
        <ele>-50.22</ele>
        <time>2019-07-14T12:54:51Z</time>
      </trkpt>
      <trkpt lat="47.76878" lon="-3.5566">
        <ele>-48.99</ele>
        <time>2019-07-14T12:54:53Z</time>
      </trkpt>
      <trkpt lat="47.76883" lon="-3.5565">
        <ele>-48.96</ele>
        <time>2019-07-14T12:54:55Z</time>
      </trkpt>
      <trkpt lat="47.76887" lon="-3.55638">
        <ele>-49.12</ele>
        <time>2019-07-14T12:54:57Z</time>
      </trkpt>
      <trkpt lat="47.7689" lon="-3.55627">
        <ele>-48.56</ele>
        <time>2019-07-14T12:54:59Z</time>
      </trkpt>
      <trkpt lat="47.76894" lon="-3.55617">
        <ele>-48.54</ele>
        <time>2019-07-14T12:55:01Z</time>
      </trkpt>
      <trkpt lat="47.76896" lon="-3.55607">
        <ele>-48.91</ele>
        <time>2019-07-14T12:55:03Z</time>
      </trkpt>
      <trkpt lat="47.76898" lon="-3.55597">
        <ele>-49.62</ele>
        <time>2019-07-14T12:55:05Z</time>
      </trkpt>
      <trkpt lat="47.76898" lon="-3.55588">
        <ele>-50.42</ele>
        <time>2019-07-14T12:55:07Z</time>
      </trkpt>
      <trkpt lat="47.76901" lon="-3.55581">
        <ele>-50.66</ele>
        <time>2019-07-14T12:55:09Z</time>
      </trkpt>
      <trkpt lat="47.76907" lon="-3.55578">
        <ele>-50.67</ele>
        <time>2019-07-14T12:55:12Z</time>
      </trkpt>
      <trkpt lat="47.76912" lon="-3.55578">
        <ele>-49.65</ele>
        <time>2019-07-14T12:55:13Z</time>
      </trkpt>
      <trkpt lat="47.76917" lon="-3.55576">
        <ele>-48.72</ele>
        <time>2019-07-14T12:55:15Z</time>
      </trkpt>
      <trkpt lat="47.76924" lon="-3.55574">
        <ele>-47.03</ele>
        <time>2019-07-14T12:55:17Z</time>
      </trkpt>
      <trkpt lat="47.7693" lon="-3.5557">
        <ele>-44.26</ele>
        <time>2019-07-14T12:55:20Z</time>
      </trkpt>
      <trkpt lat="47.76934" lon="-3.55567">
        <ele>-42.78</ele>
        <time>2019-07-14T12:55:22Z</time>
      </trkpt>
      <trkpt lat="47.76935" lon="-3.55558">
        <ele>-41.87</ele>
        <time>2019-07-14T12:55:26Z</time>
      </trkpt>
      <trkpt lat="47.76934" lon="-3.5555">
        <ele>-41.66</ele>
        <time>2019-07-14T12:55:28Z</time>
      </trkpt>
      <trkpt lat="47.76932" lon="-3.55538">
        <ele>-42.43</ele>
        <time>2019-07-14T12:55:30Z</time>
      </trkpt>
      <trkpt lat="47.76931" lon="-3.55525">
        <ele>-42.98</ele>
        <time>2019-07-14T12:55:32Z</time>
      </trkpt>
      <trkpt lat="47.7693" lon="-3.55519">
        <ele>-43.35</ele>
        <time>2019-07-14T12:55:33Z</time>
      </trkpt>
      <trkpt lat="47.7693" lon="-3.55511">
        <ele>-43.46</ele>
        <time>2019-07-14T12:55:34Z</time>
      </trkpt>
      <trkpt lat="47.7693" lon="-3.55504">
        <ele>-43.5</ele>
        <time>2019-07-14T12:55:35Z</time>
      </trkpt>
      <trkpt lat="47.7693" lon="-3.55498">
        <ele>-43.79</ele>
        <time>2019-07-14T12:55:36Z</time>
      </trkpt>
      <trkpt lat="47.7693" lon="-3.55485">
        <ele>-43.88</ele>
        <time>2019-07-14T12:55:38Z</time>
      </trkpt>
      <trkpt lat="47.76932" lon="-3.55474">
        <ele>-44.16</ele>
        <time>2019-07-14T12:55:40Z</time>
      </trkpt>
      <trkpt lat="47.76934" lon="-3.55464">
        <ele>-44.21</ele>
        <time>2019-07-14T12:55:42Z</time>
      </trkpt>
      <trkpt lat="47.76937" lon="-3.55454">
        <ele>-43.98</ele>
        <time>2019-07-14T12:55:44Z</time>
      </trkpt>
      <trkpt lat="47.76941" lon="-3.55447">
        <ele>-43.32</ele>
        <time>2019-07-14T12:55:46Z</time>
      </trkpt>
      <trkpt lat="47.76946" lon="-3.55441">
        <ele>-42.78</ele>
        <time>2019-07-14T12:55:48Z</time>
      </trkpt>
      <trkpt lat="47.76953" lon="-3.55437">
        <ele>-42.33</ele>
        <time>2019-07-14T12:55:50Z</time>
      </trkpt>
      <trkpt lat="47.76959" lon="-3.55436">
        <ele>-42.15</ele>
        <time>2019-07-14T12:55:52Z</time>
      </trkpt>
      <trkpt lat="47.76965" lon="-3.55436">
        <ele>-41.95</ele>
        <time>2019-07-14T12:55:54Z</time>
      </trkpt>
      <trkpt lat="47.76971" lon="-3.55436">
        <ele>-41.01</ele>
        <time>2019-07-14T12:55:56Z</time>
      </trkpt>
      <trkpt lat="47.76977" lon="-3.55436">
        <ele>-39.96</ele>
        <time>2019-07-14T12:55:58Z</time>
      </trkpt>
      <trkpt lat="47.76983" lon="-3.55435">
        <ele>-39.85</ele>
        <time>2019-07-14T12:56:00Z</time>
      </trkpt>
      <trkpt lat="47.76989" lon="-3.55435">
        <ele>-39.35</ele>
        <time>2019-07-14T12:56:02Z</time>
      </trkpt>
      <trkpt lat="47.76995" lon="-3.55436">
        <ele>-37.93</ele>
        <time>2019-07-14T12:56:04Z</time>
      </trkpt>
      <trkpt lat="47.77" lon="-3.55435">
        <ele>-36.67</ele>
        <time>2019-07-14T12:56:07Z</time>
      </trkpt>
      <trkpt lat="47.77006" lon="-3.55435">
        <ele>-34.03</ele>
        <time>2019-07-14T12:56:15Z</time>
      </trkpt>
      <trkpt lat="47.7701" lon="-3.55433">
        <ele>-34.65</ele>
        <time>2019-07-14T12:56:17Z</time>
      </trkpt>
      <trkpt lat="47.77014" lon="-3.55428">
        <ele>-34.34</ele>
        <time>2019-07-14T12:56:19Z</time>
      </trkpt>
      <trkpt lat="47.77016" lon="-3.55419">
        <ele>-34.51</ele>
        <time>2019-07-14T12:56:22Z</time>
      </trkpt>
      <trkpt lat="47.77015" lon="-3.5541">
        <ele>-35.02</ele>
        <time>2019-07-14T12:56:24Z</time>
      </trkpt>
      <trkpt lat="47.77015" lon="-3.55402">
        <ele>-35.19</ele>
        <time>2019-07-14T12:56:26Z</time>
      </trkpt>
      <trkpt lat="47.77015" lon="-3.55394">
        <ele>-35.65</ele>
        <time>2019-07-14T12:56:28Z</time>
      </trkpt>
      <trkpt lat="47.77015" lon="-3.55385">
        <ele>-36.12</ele>
        <time>2019-07-14T12:56:30Z</time>
      </trkpt>
      <trkpt lat="47.77011" lon="-3.55377">
        <ele>-36.02</ele>
        <time>2019-07-14T12:56:32Z</time>
      </trkpt>
      <trkpt lat="47.77008" lon="-3.55368">
        <ele>-36.59</ele>
        <time>2019-07-14T12:56:34Z</time>
      </trkpt>
      <trkpt lat="47.77007" lon="-3.5536">
        <ele>-37.37</ele>
        <time>2019-07-14T12:56:36Z</time>
      </trkpt>
      <trkpt lat="47.77005" lon="-3.55351">
        <ele>-38.07</ele>
        <time>2019-07-14T12:56:38Z</time>
      </trkpt>
      <trkpt lat="47.77004" lon="-3.55342">
        <ele>-37.87</ele>
        <time>2019-07-14T12:56:40Z</time>
      </trkpt>
      <trkpt lat="47.77002" lon="-3.55333">
        <ele>-37.89</ele>
        <time>2019-07-14T12:56:42Z</time>
      </trkpt>
      <trkpt lat="47.77001" lon="-3.55324">
        <ele>-38.21</ele>
        <time>2019-07-14T12:56:44Z</time>
      </trkpt>
      <trkpt lat="47.77002" lon="-3.55315">
        <ele>-37.75</ele>
        <time>2019-07-14T12:56:46Z</time>
      </trkpt>
      <trkpt lat="47.77004" lon="-3.55305">
        <ele>-37.67</ele>
        <time>2019-07-14T12:56:48Z</time>
      </trkpt>
      <trkpt lat="47.77008" lon="-3.55296">
        <ele>-37.83</ele>
        <time>2019-07-14T12:56:50Z</time>
      </trkpt>
      <trkpt lat="47.77011" lon="-3.55286">
        <ele>-38.27</ele>
        <time>2019-07-14T12:56:52Z</time>
      </trkpt>
      <trkpt lat="47.77012" lon="-3.55275">
        <ele>-37.78</ele>
        <time>2019-07-14T12:56:54Z</time>
      </trkpt>
      <trkpt lat="47.77013" lon="-3.55264">
        <ele>-37.26</ele>
        <time>2019-07-14T12:56:56Z</time>
      </trkpt>
      <trkpt lat="47.77015" lon="-3.55254">
        <ele>-36.74</ele>
        <time>2019-07-14T12:56:58Z</time>
      </trkpt>
      <trkpt lat="47.77017" lon="-3.55244">
        <ele>-36.69</ele>
        <time>2019-07-14T12:57:00Z</time>
      </trkpt>
      <trkpt lat="47.77019" lon="-3.55236">
        <ele>-36.09</ele>
        <time>2019-07-14T12:57:02Z</time>
      </trkpt>
      <trkpt lat="47.77021" lon="-3.55229">
        <ele>-35.72</ele>
        <time>2019-07-14T12:57:04Z</time>
      </trkpt>
      <trkpt lat="47.77022" lon="-3.55218">
        <ele>-35.63</ele>
        <time>2019-07-14T12:57:06Z</time>
      </trkpt>
      <trkpt lat="47.77023" lon="-3.55207">
        <ele>-35.66</ele>
        <time>2019-07-14T12:57:08Z</time>
      </trkpt>
      <trkpt lat="47.77025" lon="-3.55195">
        <ele>-35.98</ele>
        <time>2019-07-14T12:57:10Z</time>
      </trkpt>
      <trkpt lat="47.77026" lon="-3.55188">
        <ele>-36.14</ele>
        <time>2019-07-14T12:57:11Z</time>
      </trkpt>
      <trkpt lat="47.77025" lon="-3.5518">
        <ele>-36.82</ele>
        <time>2019-07-14T12:57:12Z</time>
      </trkpt>
      <trkpt lat="47.77024" lon="-3.55174">
        <ele>-37.02</ele>
        <time>2019-07-14T12:57:13Z</time>
      </trkpt>
      <trkpt lat="47.77023" lon="-3.55164">
        <ele>-36.87</ele>
        <time>2019-07-14T12:57:15Z</time>
      </trkpt>
      <trkpt lat="47.77025" lon="-3.55153">
        <ele>-36.5</ele>
        <time>2019-07-14T12:57:23Z</time>
      </trkpt>
      <trkpt lat="47.7703" lon="-3.55149">
        <ele>-36.12</ele>
        <time>2019-07-14T12:57:25Z</time>
      </trkpt>
      <trkpt lat="47.77036" lon="-3.55142">
        <ele>-35.6</ele>
        <time>2019-07-14T12:57:27Z</time>
      </trkpt>
      <trkpt lat="47.77042" lon="-3.55138">
        <ele>-35.43</ele>
        <time>2019-07-14T12:57:29Z</time>
      </trkpt>
      <trkpt lat="47.77047" lon="-3.55135">
        <ele>-35.37</ele>
        <time>2019-07-14T12:57:31Z</time>
      </trkpt>
      <trkpt lat="47.77053" lon="-3.55131">
        <ele>-35.77</ele>
        <time>2019-07-14T12:57:33Z</time>
      </trkpt>
      <trkpt lat="47.77058" lon="-3.55127">
        <ele>-36.2</ele>
        <time>2019-07-14T12:57:35Z</time>
      </trkpt>
      <trkpt lat="47.77063" lon="-3.55124">
        <ele>-36.5</ele>
        <time>2019-07-14T12:57:37Z</time>
      </trkpt>
      <trkpt lat="47.77068" lon="-3.55123">
        <ele>-36.79</ele>
        <time>2019-07-14T12:57:39Z</time>
      </trkpt>
      <trkpt lat="47.77076" lon="-3.5512">
        <ele>-37.29</ele>
        <time>2019-07-14T12:57:41Z</time>
      </trkpt>
      <trkpt lat="47.77082" lon="-3.55118">
        <ele>-37.33</ele>
        <time>2019-07-14T12:57:43Z</time>
      </trkpt>
      <trkpt lat="47.77086" lon="-3.55117">
        <ele>-37.38</ele>
        <time>2019-07-14T12:57:45Z</time>
      </trkpt>
      <trkpt lat="47.77091" lon="-3.55119">
        <ele>-37.91</ele>
        <time>2019-07-14T12:57:47Z</time>
      </trkpt>
      <trkpt lat="47.77096" lon="-3.5512">
        <ele>-38.19</ele>
        <time>2019-07-14T12:57:49Z</time>
      </trkpt>
      <trkpt lat="47.77101" lon="-3.55121">
        <ele>-38.69</ele>
        <time>2019-07-14T12:57:51Z</time>
      </trkpt>
      <trkpt lat="47.77109" lon="-3.55122">
        <ele>-38.82</ele>
        <time>2019-07-14T12:57:53Z</time>
      </trkpt>
      <trkpt lat="47.77116" lon="-3.55124">
        <ele>-38.83</ele>
        <time>2019-07-14T12:57:55Z</time>
      </trkpt>
      <trkpt lat="47.77123" lon="-3.55126">
        <ele>-38.67</ele>
        <time>2019-07-14T12:57:57Z</time>
      </trkpt>
      <trkpt lat="47.7713" lon="-3.55126">
        <ele>-38.3</ele>
        <time>2019-07-14T12:57:59Z</time>
      </trkpt>
      <trkpt lat="47.77136" lon="-3.55126">
        <ele>-38.15</ele>
        <time>2019-07-14T12:58:01Z</time>
      </trkpt>
      <trkpt lat="47.77144" lon="-3.55127">
        <ele>-38.49</ele>
        <time>2019-07-14T12:58:03Z</time>
      </trkpt>
      <trkpt lat="47.77152" lon="-3.55128">
        <ele>-38.04</ele>
        <time>2019-07-14T12:58:05Z</time>
      </trkpt>
      <trkpt lat="47.77159" lon="-3.5513">
        <ele>-36.61</ele>
        <time>2019-07-14T12:58:07Z</time>
      </trkpt>
      <trkpt lat="47.77167" lon="-3.55131">
        <ele>-35.53</ele>
        <time>2019-07-14T12:58:09Z</time>
      </trkpt>
      <trkpt lat="47.77173" lon="-3.55133">
        <ele>-34.76</ele>
        <time>2019-07-14T12:58:11Z</time>
      </trkpt>
      <trkpt lat="47.77179" lon="-3.55134">
        <ele>-33.87</ele>
        <time>2019-07-14T12:58:13Z</time>
      </trkpt>
      <trkpt lat="47.77185" lon="-3.55134">
        <ele>-33.26</ele>
        <time>2019-07-14T12:58:15Z</time>
      </trkpt>
      <trkpt lat="47.77191" lon="-3.55136">
        <ele>-31.81</ele>
        <time>2019-07-14T12:58:17Z</time>
      </trkpt>
      <trkpt lat="47.77198" lon="-3.55139">
        <ele>-29.92</ele>
        <time>2019-07-14T12:58:19Z</time>
      </trkpt>
      <trkpt lat="47.77204" lon="-3.55142">
        <ele>-27.69</ele>
        <time>2019-07-14T12:58:21Z</time>
      </trkpt>
      <trkpt lat="47.7721" lon="-3.55146">
        <ele>-26.65</ele>
        <time>2019-07-14T12:58:23Z</time>
      </trkpt>
      <trkpt lat="47.77216" lon="-3.5515">
        <ele>-25.61</ele>
        <time>2019-07-14T12:58:25Z</time>
      </trkpt>
      <trkpt lat="47.77223" lon="-3.55153">
        <ele>-23.75</ele>
        <time>2019-07-14T12:58:27Z</time>
      </trkpt>
      <trkpt lat="47.7723" lon="-3.55156">
        <ele>-21.91</ele>
        <time>2019-07-14T12:58:29Z</time>
      </trkpt>
      <trkpt lat="47.77237" lon="-3.5516">
        <ele>-20.77</ele>
        <time>2019-07-14T12:58:31Z</time>
      </trkpt>
      <trkpt lat="47.77243" lon="-3.55162">
        <ele>-19.93</ele>
        <time>2019-07-14T12:58:33Z</time>
      </trkpt>
      <trkpt lat="47.77248" lon="-3.55166">
        <ele>-19.51</ele>
        <time>2019-07-14T12:58:35Z</time>
      </trkpt>
      <trkpt lat="47.77253" lon="-3.55168">
        <ele>-18.96</ele>
        <time>2019-07-14T12:58:37Z</time>
      </trkpt>
      <trkpt lat="47.7726" lon="-3.55172">
        <ele>-19.15</ele>
        <time>2019-07-14T12:58:39Z</time>
      </trkpt>
      <trkpt lat="47.77265" lon="-3.55175">
        <ele>-18.03</ele>
        <time>2019-07-14T12:58:41Z</time>
      </trkpt>
      <trkpt lat="47.7727" lon="-3.55178">
        <ele>-16.87</ele>
        <time>2019-07-14T12:58:43Z</time>
      </trkpt>
      <trkpt lat="47.77276" lon="-3.5518">
        <ele>-15.58</ele>
        <time>2019-07-14T12:58:46Z</time>
      </trkpt>
      <trkpt lat="47.7728" lon="-3.55176">
        <ele>-14.11</ele>
        <time>2019-07-14T12:59:02Z</time>
      </trkpt>
      <trkpt lat="47.7728" lon="-3.55168">
        <ele>-14.11</ele>
        <time>2019-07-14T12:59:04Z</time>
      </trkpt>
      <trkpt lat="47.7728" lon="-3.55158">
        <ele>-14.04</ele>
        <time>2019-07-14T12:59:06Z</time>
      </trkpt>
      <trkpt lat="47.7728" lon="-3.5515">
        <ele>-14.11</ele>
        <time>2019-07-14T12:59:08Z</time>
      </trkpt>
      <trkpt lat="47.77281" lon="-3.5514">
        <ele>-14.34</ele>
        <time>2019-07-14T12:59:10Z</time>
      </trkpt>
      <trkpt lat="47.77282" lon="-3.55128">
        <ele>-15.17</ele>
        <time>2019-07-14T12:59:12Z</time>
      </trkpt>
      <trkpt lat="47.77283" lon="-3.55121">
        <ele>-15.27</ele>
        <time>2019-07-14T12:59:13Z</time>
      </trkpt>
      <trkpt lat="47.77283" lon="-3.55111">
        <ele>-15.22</ele>
        <time>2019-07-14T12:59:15Z</time>
      </trkpt>
      <trkpt lat="47.77283" lon="-3.55101">
        <ele>-16.21</ele>
        <time>2019-07-14T12:59:17Z</time>
      </trkpt>
      <trkpt lat="47.77285" lon="-3.55092">
        <ele>-17.42</ele>
        <time>2019-07-14T12:59:19Z</time>
      </trkpt>
      <trkpt lat="47.77282" lon="-3.55085">
        <ele>-19.05</ele>
        <time>2019-07-14T12:59:22Z</time>
      </trkpt>
      <trkpt lat="47.77279" lon="-3.55095">
        <ele>-19.04</ele>
        <time>2019-07-14T12:59:25Z</time>
      </trkpt>
      <trkpt lat="47.77277" lon="-3.55102">
        <ele>-18.92</ele>
        <time>2019-07-14T12:59:27Z</time>
      </trkpt>
      <trkpt lat="47.77271" lon="-3.55104">
        <ele>-19.16</ele>
        <time>2019-07-14T12:59:30Z</time>
      </trkpt>
    </trkseg>
  </trk>
  <trk>
    <name><![CDATA[Doëlan]]></name>
    <trkseg>
      <trkpt lat="47.76833" lon="-3.55219">
        <ele>6</ele>
        <time>2018-07-14T11:04:28Z</time>
      </trkpt>
      <trkpt lat="47.76833" lon="-3.55215">
        <ele>6</ele>
        <time>2018-07-14T11:04:29Z</time>
      </trkpt>
      <trkpt lat="47.76832" lon="-3.55212">
        <ele>6</ele>
        <time>2018-07-14T11:04:30Z</time>
      </trkpt>
      <trkpt lat="47.76831" lon="-3.55208">
        <ele>7</ele>
        <time>2018-07-14T11:04:31Z</time>
      </trkpt>
      <trkpt lat="47.76829" lon="-3.55206">
        <ele>7</ele>
        <time>2018-07-14T11:04:32Z</time>
      </trkpt>
      <trkpt lat="47.76827" lon="-3.55203">
        <ele>7</ele>
        <time>2018-07-14T11:04:33Z</time>
      </trkpt>
      <trkpt lat="47.76824" lon="-3.55202">
        <ele>8</ele>
        <time>2018-07-14T11:04:34Z</time>
      </trkpt>
      <trkpt lat="47.76821" lon="-3.552">
        <ele>8</ele>
        <time>2018-07-14T11:04:35Z</time>
      </trkpt>
      <trkpt lat="47.76818" lon="-3.55198">
        <ele>8</ele>
        <time>2018-07-14T11:04:36Z</time>
      </trkpt>
      <trkpt lat="47.76816" lon="-3.55196">
        <ele>8</ele>
        <time>2018-07-14T11:04:37Z</time>
      </trkpt>
      <trkpt lat="47.76813" lon="-3.55194">
        <ele>9</ele>
        <time>2018-07-14T11:04:38Z</time>
      </trkpt>
      <trkpt lat="47.7681" lon="-3.55192">
        <ele>9</ele>
        <time>2018-07-14T11:04:39Z</time>
      </trkpt>
      <trkpt lat="47.76808" lon="-3.55189">
        <ele>9</ele>
        <time>2018-07-14T11:04:40Z</time>
      </trkpt>
      <trkpt lat="47.76805" lon="-3.55187">
        <ele>10</ele>
        <time>2018-07-14T11:04:41Z</time>
      </trkpt>
      <trkpt lat="47.76802" lon="-3.55184">
        <ele>10</ele>
        <time>2018-07-14T11:04:42Z</time>
      </trkpt>
      <trkpt lat="47.768" lon="-3.55181">
        <ele>10</ele>
        <time>2018-07-14T11:04:43Z</time>
      </trkpt>
      <trkpt lat="47.76797" lon="-3.55178">
        <ele>10</ele>
        <time>2018-07-14T11:04:44Z</time>
      </trkpt>
      <trkpt lat="47.76794" lon="-3.55175">
        <ele>11</ele>
        <time>2018-07-14T11:04:45Z</time>
      </trkpt>
      <trkpt lat="47.76791" lon="-3.55172">
        <ele>11</ele>
        <time>2018-07-14T11:04:46Z</time>
      </trkpt>
      <trkpt lat="47.76788" lon="-3.55168">
        <ele>11</ele>
        <time>2018-07-14T11:04:47Z</time>
      </trkpt>
      <trkpt lat="47.76785" lon="-3.55164">
        <ele>11</ele>
        <time>2018-07-14T11:04:48Z</time>
      </trkpt>
      <trkpt lat="47.76782" lon="-3.55159">
        <ele>12</ele>
        <time>2018-07-14T11:04:49Z</time>
      </trkpt>
      <trkpt lat="47.7678" lon="-3.55155">
        <ele>12</ele>
        <time>2018-07-14T11:04:50Z</time>
      </trkpt>
      <trkpt lat="47.76777" lon="-3.55151">
        <ele>12</ele>
        <time>2018-07-14T11:04:51Z</time>
      </trkpt>
      <trkpt lat="47.76773" lon="-3.55147">
        <ele>12</ele>
        <time>2018-07-14T11:04:52Z</time>
      </trkpt>
      <trkpt lat="47.7677" lon="-3.55142">
        <ele>12</ele>
        <time>2018-07-14T11:04:53Z</time>
      </trkpt>
      <trkpt lat="47.76767" lon="-3.55138">
        <ele>12</ele>
        <time>2018-07-14T11:04:54Z</time>
      </trkpt>
      <trkpt lat="47.76763" lon="-3.55134">
        <ele>13</ele>
        <time>2018-07-14T11:04:55Z</time>
      </trkpt>
      <trkpt lat="47.7676" lon="-3.5513">
        <ele>13</ele>
        <time>2018-07-14T11:04:56Z</time>
      </trkpt>
      <trkpt lat="47.76756" lon="-3.55126">
        <ele>13</ele>
        <time>2018-07-14T11:04:57Z</time>
      </trkpt>
      <trkpt lat="47.76752" lon="-3.55123">
        <ele>13</ele>
        <time>2018-07-14T11:04:58Z</time>
      </trkpt>
      <trkpt lat="47.76748" lon="-3.5512">
        <ele>13</ele>
        <time>2018-07-14T11:04:59Z</time>
      </trkpt>
      <trkpt lat="47.76744" lon="-3.55117">
        <ele>13</ele>
        <time>2018-07-14T11:05:00Z</time>
      </trkpt>
      <trkpt lat="47.76739" lon="-3.55115">
        <ele>13</ele>
        <time>2018-07-14T11:05:01Z</time>
      </trkpt>
      <trkpt lat="47.76735" lon="-3.55113">
        <ele>13</ele>
        <time>2018-07-14T11:05:02Z</time>
      </trkpt>
      <trkpt lat="47.76731" lon="-3.55111">
        <ele>13</ele>
        <time>2018-07-14T11:05:03Z</time>
      </trkpt>
      <trkpt lat="47.76726" lon="-3.55109">
        <ele>13</ele>
        <time>2018-07-14T11:05:04Z</time>
      </trkpt>
      <trkpt lat="47.76722" lon="-3.55108">
        <ele>14</ele>
        <time>2018-07-14T11:05:05Z</time>
      </trkpt>
      <trkpt lat="47.76717" lon="-3.55106">
        <ele>14</ele>
        <time>2018-07-14T11:05:06Z</time>
      </trkpt>
      <trkpt lat="47.76712" lon="-3.55105">
        <ele>14</ele>
        <time>2018-07-14T11:05:07Z</time>
      </trkpt>
      <trkpt lat="47.76708" lon="-3.55103">
        <ele>14</ele>
        <time>2018-07-14T11:05:08Z</time>
      </trkpt>
      <trkpt lat="47.76703" lon="-3.55101">
        <ele>14</ele>
        <time>2018-07-14T11:05:09Z</time>
      </trkpt>
      <trkpt lat="47.76698" lon="-3.551">
        <ele>14</ele>
        <time>2018-07-14T11:05:10Z</time>
      </trkpt>
      <trkpt lat="47.76693" lon="-3.55098">
        <ele>14</ele>
        <time>2018-07-14T11:05:11Z</time>
      </trkpt>
      <trkpt lat="47.76689" lon="-3.55097">
        <ele>14</ele>
        <time>2018-07-14T11:05:12Z</time>
      </trkpt>
      <trkpt lat="47.76684" lon="-3.55095">
        <ele>14</ele>
        <time>2018-07-14T11:05:13Z</time>
      </trkpt>
      <trkpt lat="47.76679" lon="-3.55094">
        <ele>14</ele>
        <time>2018-07-14T11:05:14Z</time>
      </trkpt>
      <trkpt lat="47.76675" lon="-3.55093">
        <ele>14</ele>
        <time>2018-07-14T11:05:15Z</time>
      </trkpt>
      <trkpt lat="47.7667" lon="-3.55094">
        <ele>14</ele>
        <time>2018-07-14T11:05:16Z</time>
      </trkpt>
      <trkpt lat="47.76666" lon="-3.55096">
        <ele>14</ele>
        <time>2018-07-14T11:05:17Z</time>
      </trkpt>
      <trkpt lat="47.76662" lon="-3.55099">
        <ele>14</ele>
        <time>2018-07-14T11:05:18Z</time>
      </trkpt>
      <trkpt lat="47.76658" lon="-3.55103">
        <ele>14</ele>
        <time>2018-07-14T11:05:19Z</time>
      </trkpt>
      <trkpt lat="47.76655" lon="-3.55108">
        <ele>14</ele>
        <time>2018-07-14T11:05:20Z</time>
      </trkpt>
      <trkpt lat="47.76653" lon="-3.55114">
        <ele>14</ele>
        <time>2018-07-14T11:05:21Z</time>
      </trkpt>
      <trkpt lat="47.76651" lon="-3.55121">
        <ele>14</ele>
        <time>2018-07-14T11:05:22Z</time>
      </trkpt>
      <trkpt lat="47.7665" lon="-3.55129">
        <ele>14</ele>
        <time>2018-07-14T11:05:23Z</time>
      </trkpt>
      <trkpt lat="47.76649" lon="-3.55137">
        <ele>14</ele>
        <time>2018-07-14T11:05:24Z</time>
      </trkpt>
      <trkpt lat="47.76648" lon="-3.55146">
        <ele>14</ele>
        <time>2018-07-14T11:05:25Z</time>
      </trkpt>
      <trkpt lat="47.76648" lon="-3.55154">
        <ele>13</ele>
        <time>2018-07-14T11:05:26Z</time>
      </trkpt>
      <trkpt lat="47.76649" lon="-3.55164">
        <ele>13</ele>
        <time>2018-07-14T11:05:27Z</time>
      </trkpt>
      <trkpt lat="47.76649" lon="-3.55173">
        <ele>13</ele>
        <time>2018-07-14T11:05:28Z</time>
      </trkpt>
      <trkpt lat="47.7665" lon="-3.55183">
        <ele>13</ele>
        <time>2018-07-14T11:05:29Z</time>
      </trkpt>
      <trkpt lat="47.7665" lon="-3.55192">
        <ele>13</ele>
        <time>2018-07-14T11:05:30Z</time>
      </trkpt>
      <trkpt lat="47.7665" lon="-3.55202">
        <ele>12</ele>
        <time>2018-07-14T11:05:31Z</time>
      </trkpt>
      <trkpt lat="47.76651" lon="-3.55211">
        <ele>12</ele>
        <time>2018-07-14T11:05:32Z</time>
      </trkpt>
      <trkpt lat="47.76651" lon="-3.55221">
        <ele>12</ele>
        <time>2018-07-14T11:05:33Z</time>
      </trkpt>
      <trkpt lat="47.76652" lon="-3.55231">
        <ele>12</ele>
        <time>2018-07-14T11:05:34Z</time>
      </trkpt>
      <trkpt lat="47.76652" lon="-3.55242">
        <ele>12</ele>
        <time>2018-07-14T11:05:35Z</time>
      </trkpt>
      <trkpt lat="47.76653" lon="-3.55252">
        <ele>11</ele>
        <time>2018-07-14T11:05:36Z</time>
      </trkpt>
      <trkpt lat="47.76653" lon="-3.55263">
        <ele>11</ele>
        <time>2018-07-14T11:05:37Z</time>
      </trkpt>
      <trkpt lat="47.76653" lon="-3.55274">
        <ele>11</ele>
        <time>2018-07-14T11:05:38Z</time>
      </trkpt>
      <trkpt lat="47.76654" lon="-3.55285">
        <ele>11</ele>
        <time>2018-07-14T11:05:39Z</time>
      </trkpt>
      <trkpt lat="47.76654" lon="-3.55296">
        <ele>11</ele>
        <time>2018-07-14T11:05:40Z</time>
      </trkpt>
      <trkpt lat="47.76654" lon="-3.55307">
        <ele>11</ele>
        <time>2018-07-14T11:05:41Z</time>
      </trkpt>
      <trkpt lat="47.76655" lon="-3.55318">
        <ele>11</ele>
        <time>2018-07-14T11:05:42Z</time>
      </trkpt>
      <trkpt lat="47.76656" lon="-3.55328">
        <ele>11</ele>
        <time>2018-07-14T11:05:43Z</time>
      </trkpt>
      <trkpt lat="47.76656" lon="-3.55339">
        <ele>11</ele>
        <time>2018-07-14T11:05:44Z</time>
      </trkpt>
      <trkpt lat="47.76656" lon="-3.5535">
        <ele>11</ele>
        <time>2018-07-14T11:05:45Z</time>
      </trkpt>
      <trkpt lat="47.76657" lon="-3.5536">
        <ele>11</ele>
        <time>2018-07-14T11:05:46Z</time>
      </trkpt>
      <trkpt lat="47.76657" lon="-3.55371">
        <ele>11</ele>
        <time>2018-07-14T11:05:47Z</time>
      </trkpt>
      <trkpt lat="47.76658" lon="-3.55381">
        <ele>11</ele>
        <time>2018-07-14T11:05:48Z</time>
      </trkpt>
      <trkpt lat="47.76659" lon="-3.55392">
        <ele>10</ele>
        <time>2018-07-14T11:05:49Z</time>
      </trkpt>
      <trkpt lat="47.76659" lon="-3.55403">
        <ele>10</ele>
        <time>2018-07-14T11:05:50Z</time>
      </trkpt>
      <trkpt lat="47.7666" lon="-3.55413">
        <ele>10</ele>
        <time>2018-07-14T11:05:51Z</time>
      </trkpt>
      <trkpt lat="47.7666" lon="-3.55424">
        <ele>10</ele>
        <time>2018-07-14T11:05:52Z</time>
      </trkpt>
      <trkpt lat="47.76661" lon="-3.55435">
        <ele>9</ele>
        <time>2018-07-14T11:05:53Z</time>
      </trkpt>
      <trkpt lat="47.76662" lon="-3.55446">
        <ele>9</ele>
        <time>2018-07-14T11:05:54Z</time>
      </trkpt>
      <trkpt lat="47.76663" lon="-3.55456">
        <ele>9</ele>
        <time>2018-07-14T11:05:55Z</time>
      </trkpt>
      <trkpt lat="47.76664" lon="-3.55466">
        <ele>9</ele>
        <time>2018-07-14T11:05:56Z</time>
      </trkpt>
      <trkpt lat="47.76666" lon="-3.55476">
        <ele>9</ele>
        <time>2018-07-14T11:05:57Z</time>
      </trkpt>
      <trkpt lat="47.76669" lon="-3.55485">
        <ele>9</ele>
        <time>2018-07-14T11:05:58Z</time>
      </trkpt>
      <trkpt lat="47.76672" lon="-3.55495">
        <ele>9</ele>
        <time>2018-07-14T11:05:59Z</time>
      </trkpt>
      <trkpt lat="47.76675" lon="-3.55503">
        <ele>9</ele>
        <time>2018-07-14T11:06:00Z</time>
      </trkpt>
      <trkpt lat="47.76679" lon="-3.55511">
        <ele>9</ele>
        <time>2018-07-14T11:06:01Z</time>
      </trkpt>
      <trkpt lat="47.76682" lon="-3.55517">
        <ele>9</ele>
        <time>2018-07-14T11:06:02Z</time>
      </trkpt>
      <trkpt lat="47.76684" lon="-3.55523">
        <ele>8</ele>
        <time>2018-07-14T11:06:03Z</time>
      </trkpt>
      <trkpt lat="47.76687" lon="-3.55527">
        <ele>8</ele>
        <time>2018-07-14T11:06:04Z</time>
      </trkpt>
      <trkpt lat="47.76688" lon="-3.55531">
        <ele>8</ele>
        <time>2018-07-14T11:06:05Z</time>
      </trkpt>
      <trkpt lat="47.7669" lon="-3.55535">
        <ele>8</ele>
        <time>2018-07-14T11:06:06Z</time>
      </trkpt>
      <trkpt lat="47.76691" lon="-3.55539">
        <ele>8</ele>
        <time>2018-07-14T11:06:07Z</time>
      </trkpt>
      <trkpt lat="47.76693" lon="-3.55544">
        <ele>8</ele>
        <time>2018-07-14T11:06:08Z</time>
      </trkpt>
      <trkpt lat="47.76695" lon="-3.55547">
        <ele>8</ele>
        <time>2018-07-14T11:06:09Z</time>
      </trkpt>
      <trkpt lat="47.76696" lon="-3.55551">
        <ele>8</ele>
        <time>2018-07-14T11:06:10Z</time>
      </trkpt>
      <trkpt lat="47.76699" lon="-3.55552">
        <ele>8</ele>
        <time>2018-07-14T11:06:11Z</time>
      </trkpt>
      <trkpt lat="47.76702" lon="-3.55553">
        <ele>8</ele>
        <time>2018-07-14T11:06:12Z</time>
      </trkpt>
      <trkpt lat="47.76704" lon="-3.55551">
        <ele>8</ele>
        <time>2018-07-14T11:06:13Z</time>
      </trkpt>
      <trkpt lat="47.76706" lon="-3.55547">
        <ele>7</ele>
        <time>2018-07-14T11:06:14Z</time>
      </trkpt>
      <trkpt lat="47.76708" lon="-3.55544">
        <ele>7</ele>
        <time>2018-07-14T11:06:15Z</time>
      </trkpt>
      <trkpt lat="47.76709" lon="-3.55541">
        <ele>7</ele>
        <time>2018-07-14T11:06:16Z</time>
      </trkpt>
      <trkpt lat="47.76711" lon="-3.55539">
        <ele>7</ele>
        <time>2018-07-14T11:06:17Z</time>
      </trkpt>
      <trkpt lat="47.76714" lon="-3.55538">
        <ele>7</ele>
        <time>2018-07-14T11:06:18Z</time>
      </trkpt>
      <trkpt lat="47.76717" lon="-3.55537">
        <ele>7</ele>
        <time>2018-07-14T11:06:19Z</time>
      </trkpt>
      <trkpt lat="47.7672" lon="-3.55536">
        <ele>7</ele>
        <time>2018-07-14T11:06:20Z</time>
      </trkpt>
      <trkpt lat="47.76724" lon="-3.55534">
        <ele>7</ele>
        <time>2018-07-14T11:06:21Z</time>
      </trkpt>
      <trkpt lat="47.76727" lon="-3.55531">
        <ele>7</ele>
        <time>2018-07-14T11:06:22Z</time>
      </trkpt>
      <trkpt lat="47.76731" lon="-3.55528">
        <ele>7</ele>
        <time>2018-07-14T11:06:23Z</time>
      </trkpt>
      <trkpt lat="47.76735" lon="-3.55525">
        <ele>6</ele>
        <time>2018-07-14T11:06:24Z</time>
      </trkpt>
      <trkpt lat="47.76739" lon="-3.55522">
        <ele>6</ele>
        <time>2018-07-14T11:06:25Z</time>
      </trkpt>
      <trkpt lat="47.76743" lon="-3.5552">
        <ele>6</ele>
        <time>2018-07-14T11:06:26Z</time>
      </trkpt>
      <trkpt lat="47.76747" lon="-3.55519">
        <ele>6</ele>
        <time>2018-07-14T11:06:27Z</time>
      </trkpt>
      <trkpt lat="47.76751" lon="-3.55519">
        <ele>6</ele>
        <time>2018-07-14T11:06:28Z</time>
      </trkpt>
      <trkpt lat="47.76755" lon="-3.55521">
        <ele>6</ele>
        <time>2018-07-14T11:06:29Z</time>
      </trkpt>
      <trkpt lat="47.76759" lon="-3.55525">
        <ele>6</ele>
        <time>2018-07-14T11:06:30Z</time>
      </trkpt>
      <trkpt lat="47.76762" lon="-3.5553">
        <ele>6</ele>
        <time>2018-07-14T11:06:31Z</time>
      </trkpt>
      <trkpt lat="47.76764" lon="-3.55535">
        <ele>6</ele>
        <time>2018-07-14T11:06:32Z</time>
      </trkpt>
      <trkpt lat="47.76766" lon="-3.55541">
        <ele>7</ele>
        <time>2018-07-14T11:06:33Z</time>
      </trkpt>
      <trkpt lat="47.76768" lon="-3.55547">
        <ele>7</ele>
        <time>2018-07-14T11:06:34Z</time>
      </trkpt>
      <trkpt lat="47.7677" lon="-3.55552">
        <ele>7</ele>
        <time>2018-07-14T11:06:35Z</time>
      </trkpt>
      <trkpt lat="47.76772" lon="-3.55558">
        <ele>7</ele>
        <time>2018-07-14T11:06:36Z</time>
      </trkpt>
      <trkpt lat="47.76774" lon="-3.55563">
        <ele>7</ele>
        <time>2018-07-14T11:06:37Z</time>
      </trkpt>
      <trkpt lat="47.76777" lon="-3.55567">
        <ele>7</ele>
        <time>2018-07-14T11:06:38Z</time>
      </trkpt>
      <trkpt lat="47.76779" lon="-3.55571">
        <ele>7</ele>
        <time>2018-07-14T11:06:39Z</time>
      </trkpt>
      <trkpt lat="47.76781" lon="-3.55574">
        <ele>8</ele>
        <time>2018-07-14T11:06:40Z</time>
      </trkpt>
      <trkpt lat="47.76784" lon="-3.55578">
        <ele>8</ele>
        <time>2018-07-14T11:06:41Z</time>
      </trkpt>
      <trkpt lat="47.76786" lon="-3.55581">
        <ele>8</ele>
        <time>2018-07-14T11:06:42Z</time>
      </trkpt>
      <trkpt lat="47.76789" lon="-3.55585">
        <ele>8</ele>
        <time>2018-07-14T11:06:43Z</time>
      </trkpt>
      <trkpt lat="47.76792" lon="-3.55589">
        <ele>8</ele>
        <time>2018-07-14T11:06:44Z</time>
      </trkpt>
      <trkpt lat="47.76794" lon="-3.55593">
        <ele>8</ele>
        <time>2018-07-14T11:06:45Z</time>
      </trkpt>
      <trkpt lat="47.76797" lon="-3.55596">
        <ele>9</ele>
        <time>2018-07-14T11:06:46Z</time>
      </trkpt>
      <trkpt lat="47.768" lon="-3.556">
        <ele>9</ele>
        <time>2018-07-14T11:06:47Z</time>
      </trkpt>
      <trkpt lat="47.76801" lon="-3.55604">
        <ele>9</ele>
        <time>2018-07-14T11:06:48Z</time>
      </trkpt>
      <trkpt lat="47.76803" lon="-3.55608">
        <ele>9</ele>
        <time>2018-07-14T11:06:49Z</time>
      </trkpt>
      <trkpt lat="47.76804" lon="-3.55612">
        <ele>9</ele>
        <time>2018-07-14T11:06:50Z</time>
      </trkpt>
      <trkpt lat="47.76804" lon="-3.55617">
        <ele>9</ele>
        <time>2018-07-14T11:06:51Z</time>
      </trkpt>
      <trkpt lat="47.76804" lon="-3.55622">
        <ele>9</ele>
        <time>2018-07-14T11:06:52Z</time>
      </trkpt>
      <trkpt lat="47.76805" lon="-3.55627">
        <ele>9</ele>
        <time>2018-07-14T11:06:53Z</time>
      </trkpt>
      <trkpt lat="47.76807" lon="-3.55632">
        <ele>9</ele>
        <time>2018-07-14T11:06:54Z</time>
      </trkpt>
      <trkpt lat="47.76808" lon="-3.55637">
        <ele>9</ele>
        <time>2018-07-14T11:06:55Z</time>
      </trkpt>
      <trkpt lat="47.76811" lon="-3.55642">
        <ele>10</ele>
        <time>2018-07-14T11:06:56Z</time>
      </trkpt>
      <trkpt lat="47.76813" lon="-3.55646">
        <ele>10</ele>
        <time>2018-07-14T11:06:57Z</time>
      </trkpt>
      <trkpt lat="47.76816" lon="-3.5565">
        <ele>10</ele>
        <time>2018-07-14T11:06:58Z</time>
      </trkpt>
      <trkpt lat="47.7682" lon="-3.55654">
        <ele>10</ele>
        <time>2018-07-14T11:06:59Z</time>
      </trkpt>
      <trkpt lat="47.76824" lon="-3.55657">
        <ele>10</ele>
        <time>2018-07-14T11:07:00Z</time>
      </trkpt>
      <trkpt lat="47.76828" lon="-3.55661">
        <ele>10</ele>
        <time>2018-07-14T11:07:01Z</time>
      </trkpt>
      <trkpt lat="47.76831" lon="-3.55664">
        <ele>10</ele>
        <time>2018-07-14T11:07:02Z</time>
      </trkpt>
      <trkpt lat="47.76836" lon="-3.55668">
        <ele>9</ele>
        <time>2018-07-14T11:07:03Z</time>
      </trkpt>
      <trkpt lat="47.7684" lon="-3.55671">
        <ele>9</ele>
        <time>2018-07-14T11:07:04Z</time>
      </trkpt>
      <trkpt lat="47.76844" lon="-3.55674">
        <ele>9</ele>
        <time>2018-07-14T11:07:05Z</time>
      </trkpt>
      <trkpt lat="47.76849" lon="-3.55678">
        <ele>9</ele>
        <time>2018-07-14T11:07:06Z</time>
      </trkpt>
      <trkpt lat="47.76852" lon="-3.55682">
        <ele>10</ele>
        <time>2018-07-14T11:07:07Z</time>
      </trkpt>
      <trkpt lat="47.76856" lon="-3.55686">
        <ele>10</ele>
        <time>2018-07-14T11:07:08Z</time>
      </trkpt>
      <trkpt lat="47.7686" lon="-3.5569">
        <ele>10</ele>
        <time>2018-07-14T11:07:09Z</time>
      </trkpt>
      <trkpt lat="47.76863" lon="-3.55694">
        <ele>10</ele>
        <time>2018-07-14T11:07:10Z</time>
      </trkpt>
      <trkpt lat="47.76866" lon="-3.55698">
        <ele>10</ele>
        <time>2018-07-14T11:07:11Z</time>
      </trkpt>
      <trkpt lat="47.76869" lon="-3.55703">
        <ele>10</ele>
        <time>2018-07-14T11:07:12Z</time>
      </trkpt>
      <trkpt lat="47.76871" lon="-3.55708">
        <ele>10</ele>
        <time>2018-07-14T11:07:13Z</time>
      </trkpt>
      <trkpt lat="47.76874" lon="-3.55713">
        <ele>10</ele>
        <time>2018-07-14T11:07:14Z</time>
      </trkpt>
      <trkpt lat="47.76876" lon="-3.55719">
        <ele>11</ele>
        <time>2018-07-14T11:07:15Z</time>
      </trkpt>
      <trkpt lat="47.76876" lon="-3.55725">
        <ele>11</ele>
        <time>2018-07-14T11:07:16Z</time>
      </trkpt>
      <trkpt lat="47.76876" lon="-3.55732">
        <ele>11</ele>
        <time>2018-07-14T11:07:17Z</time>
      </trkpt>
      <trkpt lat="47.76876" lon="-3.55739">
        <ele>11</ele>
        <time>2018-07-14T11:07:18Z</time>
      </trkpt>
      <trkpt lat="47.76875" lon="-3.55745">
        <ele>11</ele>
        <time>2018-07-14T11:07:19Z</time>
      </trkpt>
      <trkpt lat="47.76873" lon="-3.55752">
        <ele>11</ele>
        <time>2018-07-14T11:07:20Z</time>
      </trkpt>
      <trkpt lat="47.76871" lon="-3.55758">
        <ele>11</ele>
        <time>2018-07-14T11:07:21Z</time>
      </trkpt>
      <trkpt lat="47.7687" lon="-3.55765">
        <ele>11</ele>
        <time>2018-07-14T11:07:22Z</time>
      </trkpt>
      <trkpt lat="47.76868" lon="-3.55772">
        <ele>12</ele>
        <time>2018-07-14T11:07:23Z</time>
      </trkpt>
      <trkpt lat="47.76866" lon="-3.55778">
        <ele>12</ele>
        <time>2018-07-14T11:07:24Z</time>
      </trkpt>
      <trkpt lat="47.76864" lon="-3.55784">
        <ele>12</ele>
        <time>2018-07-14T11:07:25Z</time>
      </trkpt>
      <trkpt lat="47.76862" lon="-3.5579">
        <ele>12</ele>
        <time>2018-07-14T11:07:26Z</time>
      </trkpt>
      <trkpt lat="47.7686" lon="-3.55796">
        <ele>13</ele>
        <time>2018-07-14T11:07:27Z</time>
      </trkpt>
      <trkpt lat="47.76859" lon="-3.55802">
        <ele>13</ele>
        <time>2018-07-14T11:07:28Z</time>
      </trkpt>
      <trkpt lat="47.76858" lon="-3.55807">
        <ele>13</ele>
        <time>2018-07-14T11:07:29Z</time>
      </trkpt>
      <trkpt lat="47.76857" lon="-3.55812">
        <ele>13</ele>
        <time>2018-07-14T11:07:30Z</time>
      </trkpt>
      <trkpt lat="47.76857" lon="-3.55817">
        <ele>13</ele>
        <time>2018-07-14T11:07:31Z</time>
      </trkpt>
      <trkpt lat="47.76858" lon="-3.55821">
        <ele>14</ele>
        <time>2018-07-14T11:07:32Z</time>
      </trkpt>
      <trkpt lat="47.76859" lon="-3.55826">
        <ele>14</ele>
        <time>2018-07-14T11:07:33Z</time>
      </trkpt>
      <trkpt lat="47.76861" lon="-3.55831">
        <ele>14</ele>
        <time>2018-07-14T11:07:34Z</time>
      </trkpt>
      <trkpt lat="47.76863" lon="-3.55836">
        <ele>14</ele>
        <time>2018-07-14T11:07:35Z</time>
      </trkpt>
      <trkpt lat="47.76867" lon="-3.5584">
        <ele>14</ele>
        <time>2018-07-14T11:07:36Z</time>
      </trkpt>
      <trkpt lat="47.76871" lon="-3.55843">
        <ele>14</ele>
        <time>2018-07-14T11:07:37Z</time>
      </trkpt>
      <trkpt lat="47.76875" lon="-3.55846">
        <ele>14</ele>
        <time>2018-07-14T11:07:38Z</time>
      </trkpt>
      <trkpt lat="47.7688" lon="-3.55848">
        <ele>14</ele>
        <time>2018-07-14T11:07:39Z</time>
      </trkpt>
      <trkpt lat="47.76884" lon="-3.5585">
        <ele>14</ele>
        <time>2018-07-14T11:07:40Z</time>
      </trkpt>
      <trkpt lat="47.76889" lon="-3.55852">
        <ele>14</ele>
        <time>2018-07-14T11:07:41Z</time>
      </trkpt>
      <trkpt lat="47.76893" lon="-3.55854">
        <ele>15</ele>
        <time>2018-07-14T11:07:42Z</time>
      </trkpt>
      <trkpt lat="47.76898" lon="-3.55856">
        <ele>15</ele>
        <time>2018-07-14T11:07:43Z</time>
      </trkpt>
      <trkpt lat="47.76902" lon="-3.55858">
        <ele>15</ele>
        <time>2018-07-14T11:07:44Z</time>
      </trkpt>
      <trkpt lat="47.76907" lon="-3.55859">
        <ele>15</ele>
        <time>2018-07-14T11:07:45Z</time>
      </trkpt>
      <trkpt lat="47.76911" lon="-3.55861">
        <ele>15</ele>
        <time>2018-07-14T11:07:46Z</time>
      </trkpt>
      <trkpt lat="47.76915" lon="-3.55862">
        <ele>16</ele>
        <time>2018-07-14T11:07:47Z</time>
      </trkpt>
      <trkpt lat="47.7692" lon="-3.55863">
        <ele>16</ele>
        <time>2018-07-14T11:07:48Z</time>
      </trkpt>
      <trkpt lat="47.76924" lon="-3.55863">
        <ele>16</ele>
        <time>2018-07-14T11:07:49Z</time>
      </trkpt>
      <trkpt lat="47.76928" lon="-3.55864">
        <ele>16</ele>
        <time>2018-07-14T11:07:50Z</time>
      </trkpt>
      <trkpt lat="47.76932" lon="-3.55865">
        <ele>16</ele>
        <time>2018-07-14T11:07:51Z</time>
      </trkpt>
      <trkpt lat="47.76936" lon="-3.55865">
        <ele>17</ele>
        <time>2018-07-14T11:07:52Z</time>
      </trkpt>
      <trkpt lat="47.7694" lon="-3.55866">
        <ele>17</ele>
        <time>2018-07-14T11:07:53Z</time>
      </trkpt>
      <trkpt lat="47.76943" lon="-3.55866">
        <ele>17</ele>
        <time>2018-07-14T11:07:54Z</time>
      </trkpt>
      <trkpt lat="47.76947" lon="-3.55865">
        <ele>17</ele>
        <time>2018-07-14T11:07:55Z</time>
      </trkpt>
      <trkpt lat="47.7695" lon="-3.55865">
        <ele>17</ele>
        <time>2018-07-14T11:07:56Z</time>
      </trkpt>
      <trkpt lat="47.76954" lon="-3.55864">
        <ele>17</ele>
        <time>2018-07-14T11:07:57Z</time>
      </trkpt>
      <trkpt lat="47.76957" lon="-3.55863">
        <ele>17</ele>
        <time>2018-07-14T11:07:58Z</time>
      </trkpt>
      <trkpt lat="47.76961" lon="-3.55862">
        <ele>18</ele>
        <time>2018-07-14T11:07:59Z</time>
      </trkpt>
      <trkpt lat="47.76965" lon="-3.55862">
        <ele>18</ele>
        <time>2018-07-14T11:08:00Z</time>
      </trkpt>
      <trkpt lat="47.76968" lon="-3.55861">
        <ele>18</ele>
        <time>2018-07-14T11:08:01Z</time>
      </trkpt>
      <trkpt lat="47.76972" lon="-3.5586">
        <ele>19</ele>
        <time>2018-07-14T11:08:02Z</time>
      </trkpt>
      <trkpt lat="47.76975" lon="-3.5586">
        <ele>19</ele>
        <time>2018-07-14T11:08:03Z</time>
      </trkpt>
      <trkpt lat="47.76978" lon="-3.5586">
        <ele>20</ele>
        <time>2018-07-14T11:08:04Z</time>
      </trkpt>
      <trkpt lat="47.76981" lon="-3.5586">
        <ele>20</ele>
        <time>2018-07-14T11:08:05Z</time>
      </trkpt>
      <trkpt lat="47.76984" lon="-3.5586">
        <ele>20</ele>
        <time>2018-07-14T11:08:06Z</time>
      </trkpt>
      <trkpt lat="47.76987" lon="-3.5586">
        <ele>21</ele>
        <time>2018-07-14T11:08:07Z</time>
      </trkpt>
      <trkpt lat="47.7699" lon="-3.5586">
        <ele>21</ele>
        <time>2018-07-14T11:08:08Z</time>
      </trkpt>
      <trkpt lat="47.76994" lon="-3.5586">
        <ele>21</ele>
        <time>2018-07-14T11:08:09Z</time>
      </trkpt>
      <trkpt lat="47.76996" lon="-3.55859">
        <ele>22</ele>
        <time>2018-07-14T11:08:10Z</time>
      </trkpt>
      <trkpt lat="47.76999" lon="-3.55859">
        <ele>22</ele>
        <time>2018-07-14T11:08:11Z</time>
      </trkpt>
      <trkpt lat="47.77001" lon="-3.55857">
        <ele>22</ele>
        <time>2018-07-14T11:08:12Z</time>
      </trkpt>
      <trkpt lat="47.77003" lon="-3.55857">
        <ele>23</ele>
        <time>2018-07-14T11:08:13Z</time>
      </trkpt>
      <trkpt lat="47.77004" lon="-3.55856">
        <ele>23</ele>
        <time>2018-07-14T11:08:14Z</time>
      </trkpt>
      <trkpt lat="47.77007" lon="-3.55856">
        <ele>23</ele>
        <time>2018-07-14T11:08:15Z</time>
      </trkpt>
      <trkpt lat="47.77008" lon="-3.55855">
        <ele>23</ele>
        <time>2018-07-14T11:08:16Z</time>
      </trkpt>
      <trkpt lat="47.77011" lon="-3.55855">
        <ele>24</ele>
        <time>2018-07-14T11:08:17Z</time>
      </trkpt>
      <trkpt lat="47.77013" lon="-3.55855">
        <ele>24</ele>
        <time>2018-07-14T11:08:18Z</time>
      </trkpt>
      <trkpt lat="47.77016" lon="-3.55855">
        <ele>24</ele>
        <time>2018-07-14T11:08:19Z</time>
      </trkpt>
      <trkpt lat="47.77019" lon="-3.55856">
        <ele>24</ele>
        <time>2018-07-14T11:08:20Z</time>
      </trkpt>
      <trkpt lat="47.77023" lon="-3.55856">
        <ele>24</ele>
        <time>2018-07-14T11:08:21Z</time>
      </trkpt>
      <trkpt lat="47.77026" lon="-3.55857">
        <ele>24</ele>
        <time>2018-07-14T11:08:22Z</time>
      </trkpt>
      <trkpt lat="47.7703" lon="-3.55859">
        <ele>24</ele>
        <time>2018-07-14T11:08:23Z</time>
      </trkpt>
      <trkpt lat="47.77034" lon="-3.5586">
        <ele>24</ele>
        <time>2018-07-14T11:08:24Z</time>
      </trkpt>
      <trkpt lat="47.77037" lon="-3.55862">
        <ele>25</ele>
        <time>2018-07-14T11:08:25Z</time>
      </trkpt>
      <trkpt lat="47.77041" lon="-3.55864">
        <ele>25</ele>
        <time>2018-07-14T11:08:26Z</time>
      </trkpt>
      <trkpt lat="47.77045" lon="-3.55866">
        <ele>25</ele>
        <time>2018-07-14T11:08:27Z</time>
      </trkpt>
      <trkpt lat="47.77049" lon="-3.55868">
        <ele>25</ele>
        <time>2018-07-14T11:08:28Z</time>
      </trkpt>
      <trkpt lat="47.77053" lon="-3.5587">
        <ele>25</ele>
        <time>2018-07-14T11:08:29Z</time>
      </trkpt>
      <trkpt lat="47.77057" lon="-3.55873">
        <ele>25</ele>
        <time>2018-07-14T11:08:30Z</time>
      </trkpt>
      <trkpt lat="47.7706" lon="-3.55875">
        <ele>25</ele>
        <time>2018-07-14T11:08:31Z</time>
      </trkpt>
      <trkpt lat="47.77064" lon="-3.55877">
        <ele>25</ele>
        <time>2018-07-14T11:08:32Z</time>
      </trkpt>
      <trkpt lat="47.77068" lon="-3.55879">
        <ele>26</ele>
        <time>2018-07-14T11:08:33Z</time>
      </trkpt>
      <trkpt lat="47.77072" lon="-3.55881">
        <ele>26</ele>
        <time>2018-07-14T11:08:34Z</time>
      </trkpt>
      <trkpt lat="47.77076" lon="-3.55884">
        <ele>26</ele>
        <time>2018-07-14T11:08:35Z</time>
      </trkpt>
      <trkpt lat="47.7708" lon="-3.55886">
        <ele>26</ele>
        <time>2018-07-14T11:08:36Z</time>
      </trkpt>
      <trkpt lat="47.77083" lon="-3.55888">
        <ele>26</ele>
        <time>2018-07-14T11:08:37Z</time>
      </trkpt>
      <trkpt lat="47.77087" lon="-3.55889">
        <ele>26</ele>
        <time>2018-07-14T11:08:38Z</time>
      </trkpt>
      <trkpt lat="47.77091" lon="-3.55891">
        <ele>26</ele>
        <time>2018-07-14T11:08:39Z</time>
      </trkpt>
      <trkpt lat="47.77095" lon="-3.55892">
        <ele>26</ele>
        <time>2018-07-14T11:08:40Z</time>
      </trkpt>
      <trkpt lat="47.77099" lon="-3.55893">
        <ele>26</ele>
        <time>2018-07-14T11:08:41Z</time>
      </trkpt>
      <trkpt lat="47.77103" lon="-3.55895">
        <ele>26</ele>
        <time>2018-07-14T11:08:42Z</time>
      </trkpt>
      <trkpt lat="47.77107" lon="-3.55896">
        <ele>27</ele>
        <time>2018-07-14T11:08:43Z</time>
      </trkpt>
      <trkpt lat="47.77112" lon="-3.55897">
        <ele>27</ele>
        <time>2018-07-14T11:08:44Z</time>
      </trkpt>
      <trkpt lat="47.77116" lon="-3.55897">
        <ele>27</ele>
        <time>2018-07-14T11:08:45Z</time>
      </trkpt>
      <trkpt lat="47.7712" lon="-3.55897">
        <ele>27</ele>
        <time>2018-07-14T11:08:46Z</time>
      </trkpt>
      <trkpt lat="47.77125" lon="-3.55897">
        <ele>27</ele>
        <time>2018-07-14T11:08:47Z</time>
      </trkpt>
      <trkpt lat="47.77129" lon="-3.55897">
        <ele>27</ele>
        <time>2018-07-14T11:08:48Z</time>
      </trkpt>
      <trkpt lat="47.77134" lon="-3.55896">
        <ele>27</ele>
        <time>2018-07-14T11:08:49Z</time>
      </trkpt>
      <trkpt lat="47.77139" lon="-3.55896">
        <ele>27</ele>
        <time>2018-07-14T11:08:50Z</time>
      </trkpt>
      <trkpt lat="47.77143" lon="-3.55896">
        <ele>27</ele>
        <time>2018-07-14T11:08:51Z</time>
      </trkpt>
      <trkpt lat="47.77148" lon="-3.55895">
        <ele>28</ele>
        <time>2018-07-14T11:08:52Z</time>
      </trkpt>
      <trkpt lat="47.77153" lon="-3.55895">
        <ele>28</ele>
        <time>2018-07-14T11:08:53Z</time>
      </trkpt>
      <trkpt lat="47.77158" lon="-3.55894">
        <ele>28</ele>
        <time>2018-07-14T11:08:54Z</time>
      </trkpt>
      <trkpt lat="47.77162" lon="-3.55894">
        <ele>28</ele>
        <time>2018-07-14T11:08:55Z</time>
      </trkpt>
      <trkpt lat="47.77167" lon="-3.55894">
        <ele>28</ele>
        <time>2018-07-14T11:08:56Z</time>
      </trkpt>
      <trkpt lat="47.77171" lon="-3.55894">
        <ele>28</ele>
        <time>2018-07-14T11:08:57Z</time>
      </trkpt>
      <trkpt lat="47.77176" lon="-3.55895">
        <ele>29</ele>
        <time>2018-07-14T11:08:58Z</time>
      </trkpt>
      <trkpt lat="47.7718" lon="-3.55896">
        <ele>29</ele>
        <time>2018-07-14T11:08:59Z</time>
      </trkpt>
      <trkpt lat="47.77184" lon="-3.55897">
        <ele>29</ele>
        <time>2018-07-14T11:09:00Z</time>
      </trkpt>
      <trkpt lat="47.77189" lon="-3.55897">
        <ele>29</ele>
        <time>2018-07-14T11:09:01Z</time>
      </trkpt>
      <trkpt lat="47.77194" lon="-3.55898">
        <ele>29</ele>
        <time>2018-07-14T11:09:02Z</time>
      </trkpt>
      <trkpt lat="47.772" lon="-3.55899">
        <ele>29</ele>
        <time>2018-07-14T11:09:03Z</time>
      </trkpt>
      <trkpt lat="47.77205" lon="-3.55901">
        <ele>29</ele>
        <time>2018-07-14T11:09:04Z</time>
      </trkpt>
      <trkpt lat="47.7721" lon="-3.55902">
        <ele>29</ele>
        <time>2018-07-14T11:09:05Z</time>
      </trkpt>
      <trkpt lat="47.77215" lon="-3.55904">
        <ele>29</ele>
        <time>2018-07-14T11:09:06Z</time>
      </trkpt>
      <trkpt lat="47.77219" lon="-3.55905">
        <ele>28</ele>
        <time>2018-07-14T11:09:07Z</time>
      </trkpt>
      <trkpt lat="47.77224" lon="-3.55907">
        <ele>29</ele>
        <time>2018-07-14T11:09:08Z</time>
      </trkpt>
      <trkpt lat="47.77228" lon="-3.55909">
        <ele>29</ele>
        <time>2018-07-14T11:09:09Z</time>
      </trkpt>
      <trkpt lat="47.77231" lon="-3.5591">
        <ele>29</ele>
        <time>2018-07-14T11:09:10Z</time>
      </trkpt>
      <trkpt lat="47.77234" lon="-3.55912">
        <ele>29</ele>
        <time>2018-07-14T11:09:11Z</time>
      </trkpt>
      <trkpt lat="47.77238" lon="-3.55913">
        <ele>29</ele>
        <time>2018-07-14T11:09:12Z</time>
      </trkpt>
      <trkpt lat="47.77241" lon="-3.55914">
        <ele>29</ele>
        <time>2018-07-14T11:09:13Z</time>
      </trkpt>
      <trkpt lat="47.77245" lon="-3.55915">
        <ele>29</ele>
        <time>2018-07-14T11:09:14Z</time>
      </trkpt>
      <trkpt lat="47.77248" lon="-3.55914">
        <ele>29</ele>
        <time>2018-07-14T11:09:15Z</time>
      </trkpt>
      <trkpt lat="47.77252" lon="-3.55912">
        <ele>28</ele>
        <time>2018-07-14T11:09:16Z</time>
      </trkpt>
      <trkpt lat="47.77257" lon="-3.55912">
        <ele>28</ele>
        <time>2018-07-14T11:09:17Z</time>
      </trkpt>
      <trkpt lat="47.77261" lon="-3.55912">
        <ele>28</ele>
        <time>2018-07-14T11:09:18Z</time>
      </trkpt>
      <trkpt lat="47.77266" lon="-3.55914">
        <ele>28</ele>
        <time>2018-07-14T11:09:19Z</time>
      </trkpt>
      <trkpt lat="47.7727" lon="-3.55916">
        <ele>28</ele>
        <time>2018-07-14T11:09:20Z</time>
      </trkpt>
      <trkpt lat="47.77274" lon="-3.55919">
        <ele>28</ele>
        <time>2018-07-14T11:09:21Z</time>
      </trkpt>
      <trkpt lat="47.77277" lon="-3.55923">
        <ele>28</ele>
        <time>2018-07-14T11:09:22Z</time>
      </trkpt>
      <trkpt lat="47.77279" lon="-3.55928">
        <ele>28</ele>
        <time>2018-07-14T11:09:23Z</time>
      </trkpt>
      <trkpt lat="47.7728" lon="-3.55933">
        <ele>28</ele>
        <time>2018-07-14T11:09:24Z</time>
      </trkpt>
      <trkpt lat="47.77282" lon="-3.55938">
        <ele>28</ele>
        <time>2018-07-14T11:09:25Z</time>
      </trkpt>
      <trkpt lat="47.77283" lon="-3.55944">
        <ele>28</ele>
        <time>2018-07-14T11:09:26Z</time>
      </trkpt>
      <trkpt lat="47.77285" lon="-3.55949">
        <ele>28</ele>
        <time>2018-07-14T11:09:27Z</time>
      </trkpt>
      <trkpt lat="47.77286" lon="-3.55954">
        <ele>28</ele>
        <time>2018-07-14T11:09:28Z</time>
      </trkpt>
      <trkpt lat="47.77287" lon="-3.55958">
        <ele>28</ele>
        <time>2018-07-14T11:09:29Z</time>
      </trkpt>
      <trkpt lat="47.77289" lon="-3.55962">
        <ele>28</ele>
        <time>2018-07-14T11:09:30Z</time>
      </trkpt>
      <trkpt lat="47.7729" lon="-3.55966">
        <ele>29</ele>
        <time>2018-07-14T11:09:31Z</time>
      </trkpt>
      <trkpt lat="47.7729" lon="-3.5597">
        <ele>29</ele>
        <time>2018-07-14T11:09:32Z</time>
      </trkpt>
      <trkpt lat="47.77291" lon="-3.55972">
        <ele>29</ele>
        <time>2018-07-14T11:09:33Z</time>
      </trkpt>
      <trkpt lat="47.77292" lon="-3.55975">
        <ele>29</ele>
        <time>2018-07-14T11:09:34Z</time>
      </trkpt>
      <trkpt lat="47.77293" lon="-3.55978">
        <ele>29</ele>
        <time>2018-07-14T11:09:35Z</time>
      </trkpt>
      <trkpt lat="47.77295" lon="-3.5598">
        <ele>29</ele>
        <time>2018-07-14T11:09:36Z</time>
      </trkpt>
      <trkpt lat="47.77297" lon="-3.55983">
        <ele>29</ele>
        <time>2018-07-14T11:09:37Z</time>
      </trkpt>
      <trkpt lat="47.77299" lon="-3.55986">
        <ele>29</ele>
        <time>2018-07-14T11:09:38Z</time>
      </trkpt>
      <trkpt lat="47.77302" lon="-3.55989">
        <ele>29</ele>
        <time>2018-07-14T11:09:39Z</time>
      </trkpt>
      <trkpt lat="47.77304" lon="-3.55993">
        <ele>30</ele>
        <time>2018-07-14T11:09:40Z</time>
      </trkpt>
      <trkpt lat="47.77306" lon="-3.55997">
        <ele>30</ele>
        <time>2018-07-14T11:09:41Z</time>
      </trkpt>
      <trkpt lat="47.77308" lon="-3.56001">
        <ele>30</ele>
        <time>2018-07-14T11:09:42Z</time>
      </trkpt>
      <trkpt lat="47.7731" lon="-3.56005">
        <ele>30</ele>
        <time>2018-07-14T11:09:43Z</time>
      </trkpt>
      <trkpt lat="47.77311" lon="-3.56009">
        <ele>31</ele>
        <time>2018-07-14T11:09:44Z</time>
      </trkpt>
      <trkpt lat="47.77313" lon="-3.56013">
        <ele>31</ele>
        <time>2018-07-14T11:09:45Z</time>
      </trkpt>
      <trkpt lat="47.77314" lon="-3.56017">
        <ele>31</ele>
        <time>2018-07-14T11:09:46Z</time>
      </trkpt>
      <trkpt lat="47.77315" lon="-3.5602">
        <ele>31</ele>
        <time>2018-07-14T11:09:47Z</time>
      </trkpt>
      <trkpt lat="47.77316" lon="-3.56023">
        <ele>31</ele>
        <time>2018-07-14T11:09:48Z</time>
      </trkpt>
      <trkpt lat="47.77317" lon="-3.56027">
        <ele>31</ele>
        <time>2018-07-14T11:09:49Z</time>
      </trkpt>
      <trkpt lat="47.77318" lon="-3.5603">
        <ele>31</ele>
        <time>2018-07-14T11:09:50Z</time>
      </trkpt>
      <trkpt lat="47.77319" lon="-3.56033">
        <ele>31</ele>
        <time>2018-07-14T11:09:51Z</time>
      </trkpt>
      <trkpt lat="47.7732" lon="-3.56036">
        <ele>31</ele>
        <time>2018-07-14T11:09:52Z</time>
      </trkpt>
      <trkpt lat="47.77322" lon="-3.56039">
        <ele>31</ele>
        <time>2018-07-14T11:09:53Z</time>
      </trkpt>
      <trkpt lat="47.77323" lon="-3.56042">
        <ele>31</ele>
        <time>2018-07-14T11:09:54Z</time>
      </trkpt>
      <trkpt lat="47.77324" lon="-3.56044">
        <ele>31</ele>
        <time>2018-07-14T11:09:55Z</time>
      </trkpt>
      <trkpt lat="47.77326" lon="-3.56047">
        <ele>31</ele>
        <time>2018-07-14T11:09:56Z</time>
      </trkpt>
      <trkpt lat="47.77327" lon="-3.5605">
        <ele>31</ele>
        <time>2018-07-14T11:09:57Z</time>
      </trkpt>
      <trkpt lat="47.77329" lon="-3.56052">
        <ele>31</ele>
        <time>2018-07-14T11:09:58Z</time>
      </trkpt>
      <trkpt lat="47.77331" lon="-3.56054">
        <ele>31</ele>
        <time>2018-07-14T11:09:59Z</time>
      </trkpt>
      <trkpt lat="47.77333" lon="-3.56056">
        <ele>32</ele>
        <time>2018-07-14T11:10:00Z</time>
      </trkpt>
      <trkpt lat="47.77335" lon="-3.56058">
        <ele>32</ele>
        <time>2018-07-14T11:10:01Z</time>
      </trkpt>
      <trkpt lat="47.77338" lon="-3.5606">
        <ele>32</ele>
        <time>2018-07-14T11:10:02Z</time>
      </trkpt>
      <trkpt lat="47.77341" lon="-3.56062">
        <ele>32</ele>
        <time>2018-07-14T11:10:03Z</time>
      </trkpt>
      <trkpt lat="47.77343" lon="-3.56063">
        <ele>32</ele>
        <time>2018-07-14T11:10:04Z</time>
      </trkpt>
      <trkpt lat="47.77347" lon="-3.56065">
        <ele>32</ele>
        <time>2018-07-14T11:10:05Z</time>
      </trkpt>
      <trkpt lat="47.7735" lon="-3.56067">
        <ele>33</ele>
        <time>2018-07-14T11:10:06Z</time>
      </trkpt>
      <trkpt lat="47.77353" lon="-3.56068">
        <ele>33</ele>
        <time>2018-07-14T11:10:07Z</time>
      </trkpt>
      <trkpt lat="47.77356" lon="-3.56069">
        <ele>33</ele>
        <time>2018-07-14T11:10:08Z</time>
      </trkpt>
      <trkpt lat="47.7736" lon="-3.56069">
        <ele>33</ele>
        <time>2018-07-14T11:10:09Z</time>
      </trkpt>
      <trkpt lat="47.77363" lon="-3.5607">
        <ele>33</ele>
        <time>2018-07-14T11:10:10Z</time>
      </trkpt>
      <trkpt lat="47.77367" lon="-3.56071">
        <ele>34</ele>
        <time>2018-07-14T11:10:11Z</time>
      </trkpt>
      <trkpt lat="47.7737" lon="-3.56072">
        <ele>34</ele>
        <time>2018-07-14T11:10:12Z</time>
      </trkpt>
      <trkpt lat="47.77374" lon="-3.56073">
        <ele>34</ele>
        <time>2018-07-14T11:10:13Z</time>
      </trkpt>
      <trkpt lat="47.77377" lon="-3.56075">
        <ele>34</ele>
        <time>2018-07-14T11:10:14Z</time>
      </trkpt>
      <trkpt lat="47.77381" lon="-3.56077">
        <ele>34</ele>
        <time>2018-07-14T11:10:15Z</time>
      </trkpt>
      <trkpt lat="47.77384" lon="-3.56079">
        <ele>35</ele>
        <time>2018-07-14T11:10:16Z</time>
      </trkpt>
      <trkpt lat="47.77387" lon="-3.56081">
        <ele>35</ele>
        <time>2018-07-14T11:10:17Z</time>
      </trkpt>
      <trkpt lat="47.77391" lon="-3.56082">
        <ele>35</ele>
        <time>2018-07-14T11:10:18Z</time>
      </trkpt>
      <trkpt lat="47.77394" lon="-3.56084">
        <ele>35</ele>
        <time>2018-07-14T11:10:19Z</time>
      </trkpt>
      <trkpt lat="47.77398" lon="-3.56086">
        <ele>35</ele>
        <time>2018-07-14T11:10:20Z</time>
      </trkpt>
      <trkpt lat="47.77401" lon="-3.56088">
        <ele>35</ele>
        <time>2018-07-14T11:10:21Z</time>
      </trkpt>
      <trkpt lat="47.77405" lon="-3.5609">
        <ele>35</ele>
        <time>2018-07-14T11:10:22Z</time>
      </trkpt>
      <trkpt lat="47.77408" lon="-3.56092">
        <ele>36</ele>
        <time>2018-07-14T11:10:23Z</time>
      </trkpt>
      <trkpt lat="47.77412" lon="-3.56094">
        <ele>36</ele>
        <time>2018-07-14T11:10:24Z</time>
      </trkpt>
      <trkpt lat="47.77416" lon="-3.56096">
        <ele>36</ele>
        <time>2018-07-14T11:10:25Z</time>
      </trkpt>
      <trkpt lat="47.7742" lon="-3.56098">
        <ele>36</ele>
        <time>2018-07-14T11:10:26Z</time>
      </trkpt>
      <trkpt lat="47.77424" lon="-3.561">
        <ele>36</ele>
        <time>2018-07-14T11:10:27Z</time>
      </trkpt>
      <trkpt lat="47.77427" lon="-3.56102">
        <ele>36</ele>
        <time>2018-07-14T11:10:28Z</time>
      </trkpt>
      <trkpt lat="47.77431" lon="-3.56104">
        <ele>36</ele>
        <time>2018-07-14T11:10:29Z</time>
      </trkpt>
      <trkpt lat="47.77435" lon="-3.56106">
        <ele>37</ele>
        <time>2018-07-14T11:10:30Z</time>
      </trkpt>
      <trkpt lat="47.77439" lon="-3.56108">
        <ele>37</ele>
        <time>2018-07-14T11:10:31Z</time>
      </trkpt>
      <trkpt lat="47.77443" lon="-3.56111">
        <ele>37</ele>
        <time>2018-07-14T11:10:32Z</time>
      </trkpt>
      <trkpt lat="47.77447" lon="-3.56113">
        <ele>37</ele>
        <time>2018-07-14T11:10:33Z</time>
      </trkpt>
      <trkpt lat="47.77451" lon="-3.56115">
        <ele>37</ele>
        <time>2018-07-14T11:10:34Z</time>
      </trkpt>
      <trkpt lat="47.77455" lon="-3.56117">
        <ele>37</ele>
        <time>2018-07-14T11:10:35Z</time>
      </trkpt>
      <trkpt lat="47.77459" lon="-3.56119">
        <ele>38</ele>
        <time>2018-07-14T11:10:36Z</time>
      </trkpt>
      <trkpt lat="47.77463" lon="-3.56121">
        <ele>38</ele>
        <time>2018-07-14T11:10:37Z</time>
      </trkpt>
      <trkpt lat="47.77467" lon="-3.56123">
        <ele>38</ele>
        <time>2018-07-14T11:10:38Z</time>
      </trkpt>
      <trkpt lat="47.77471" lon="-3.56126">
        <ele>38</ele>
        <time>2018-07-14T11:10:39Z</time>
      </trkpt>
      <trkpt lat="47.77475" lon="-3.56128">
        <ele>38</ele>
        <time>2018-07-14T11:10:40Z</time>
      </trkpt>
      <trkpt lat="47.77479" lon="-3.5613">
        <ele>38</ele>
        <time>2018-07-14T11:10:41Z</time>
      </trkpt>
      <trkpt lat="47.77483" lon="-3.56132">
        <ele>38</ele>
        <time>2018-07-14T11:10:42Z</time>
      </trkpt>
      <trkpt lat="47.77487" lon="-3.56134">
        <ele>39</ele>
        <time>2018-07-14T11:10:43Z</time>
      </trkpt>
      <trkpt lat="47.77491" lon="-3.56136">
        <ele>39</ele>
        <time>2018-07-14T11:10:44Z</time>
      </trkpt>
      <trkpt lat="47.77495" lon="-3.56138">
        <ele>39</ele>
        <time>2018-07-14T11:10:45Z</time>
      </trkpt>
      <trkpt lat="47.77499" lon="-3.5614">
        <ele>39</ele>
        <time>2018-07-14T11:10:46Z</time>
      </trkpt>
      <trkpt lat="47.77503" lon="-3.56142">
        <ele>39</ele>
        <time>2018-07-14T11:10:47Z</time>
      </trkpt>
      <trkpt lat="47.77507" lon="-3.56145">
        <ele>39</ele>
        <time>2018-07-14T11:10:48Z</time>
      </trkpt>
      <trkpt lat="47.77511" lon="-3.56147">
        <ele>39</ele>
        <time>2018-07-14T11:10:49Z</time>
      </trkpt>
      <trkpt lat="47.77515" lon="-3.56149">
        <ele>39</ele>
        <time>2018-07-14T11:10:50Z</time>
      </trkpt>
      <trkpt lat="47.77519" lon="-3.56151">
        <ele>39</ele>
        <time>2018-07-14T11:10:51Z</time>
      </trkpt>
      <trkpt lat="47.77523" lon="-3.56153">
        <ele>39</ele>
        <time>2018-07-14T11:10:52Z</time>
      </trkpt>
      <trkpt lat="47.77527" lon="-3.56156">
        <ele>40</ele>
        <time>2018-07-14T11:10:53Z</time>
      </trkpt>
      <trkpt lat="47.77531" lon="-3.56159">
        <ele>40</ele>
        <time>2018-07-14T11:10:54Z</time>
      </trkpt>
      <trkpt lat="47.77535" lon="-3.56162">
        <ele>40</ele>
        <time>2018-07-14T11:10:55Z</time>
      </trkpt>
      <trkpt lat="47.77539" lon="-3.56165">
        <ele>40</ele>
        <time>2018-07-14T11:10:56Z</time>
      </trkpt>
      <trkpt lat="47.77543" lon="-3.56169">
        <ele>40</ele>
        <time>2018-07-14T11:10:57Z</time>
      </trkpt>
      <trkpt lat="47.77547" lon="-3.56172">
        <ele>40</ele>
        <time>2018-07-14T11:10:58Z</time>
      </trkpt>
      <trkpt lat="47.77551" lon="-3.56175">
        <ele>40</ele>
        <time>2018-07-14T11:10:59Z</time>
      </trkpt>
      <trkpt lat="47.77555" lon="-3.56178">
        <ele>40</ele>
        <time>2018-07-14T11:11:00Z</time>
      </trkpt>
      <trkpt lat="47.77559" lon="-3.56181">
        <ele>40</ele>
        <time>2018-07-14T11:11:01Z</time>
      </trkpt>
      <trkpt lat="47.77563" lon="-3.56184">
        <ele>40</ele>
        <time>2018-07-14T11:11:02Z</time>
      </trkpt>
      <trkpt lat="47.77567" lon="-3.56187">
        <ele>41</ele>
        <time>2018-07-14T11:11:03Z</time>
      </trkpt>
      <trkpt lat="47.77571" lon="-3.5619">
        <ele>41</ele>
        <time>2018-07-14T11:11:04Z</time>
      </trkpt>
      <trkpt lat="47.77575" lon="-3.56193">
        <ele>41</ele>
        <time>2018-07-14T11:11:05Z</time>
      </trkpt>
      <trkpt lat="47.77579" lon="-3.56195">
        <ele>41</ele>
        <time>2018-07-14T11:11:06Z</time>
      </trkpt>
      <trkpt lat="47.77583" lon="-3.56198">
        <ele>41</ele>
        <time>2018-07-14T11:11:07Z</time>
      </trkpt>
      <trkpt lat="47.77587" lon="-3.56201">
        <ele>41</ele>
        <time>2018-07-14T11:11:08Z</time>
      </trkpt>
      <trkpt lat="47.77592" lon="-3.56203">
        <ele>41</ele>
        <time>2018-07-14T11:11:09Z</time>
      </trkpt>
      <trkpt lat="47.77596" lon="-3.56206">
        <ele>41</ele>
        <time>2018-07-14T11:11:10Z</time>
      </trkpt>
      <trkpt lat="47.776" lon="-3.56208">
        <ele>41</ele>
        <time>2018-07-14T11:11:11Z</time>
      </trkpt>
      <trkpt lat="47.77605" lon="-3.56211">
        <ele>41</ele>
        <time>2018-07-14T11:11:12Z</time>
      </trkpt>
      <trkpt lat="47.77609" lon="-3.56213">
        <ele>41</ele>
        <time>2018-07-14T11:11:13Z</time>
      </trkpt>
      <trkpt lat="47.77613" lon="-3.56216">
        <ele>41</ele>
        <time>2018-07-14T11:11:14Z</time>
      </trkpt>
      <trkpt lat="47.77617" lon="-3.56218">
        <ele>41</ele>
        <time>2018-07-14T11:11:15Z</time>
      </trkpt>
      <trkpt lat="47.77621" lon="-3.56221">
        <ele>41</ele>
        <time>2018-07-14T11:11:16Z</time>
      </trkpt>
      <trkpt lat="47.77626" lon="-3.56224">
        <ele>41</ele>
        <time>2018-07-14T11:11:17Z</time>
      </trkpt>
      <trkpt lat="47.7763" lon="-3.56227">
        <ele>41</ele>
        <time>2018-07-14T11:11:18Z</time>
      </trkpt>
      <trkpt lat="47.77634" lon="-3.56229">
        <ele>41</ele>
        <time>2018-07-14T11:11:19Z</time>
      </trkpt>
      <trkpt lat="47.77638" lon="-3.56232">
        <ele>41</ele>
        <time>2018-07-14T11:11:20Z</time>
      </trkpt>
      <trkpt lat="47.77642" lon="-3.56235">
        <ele>41</ele>
        <time>2018-07-14T11:11:21Z</time>
      </trkpt>
      <trkpt lat="47.77647" lon="-3.56237">
        <ele>41</ele>
        <time>2018-07-14T11:11:22Z</time>
      </trkpt>
      <trkpt lat="47.77651" lon="-3.5624">
        <ele>41</ele>
        <time>2018-07-14T11:11:23Z</time>
      </trkpt>
      <trkpt lat="47.77654" lon="-3.56243">
        <ele>41</ele>
        <time>2018-07-14T11:11:24Z</time>
      </trkpt>
      <trkpt lat="47.77659" lon="-3.56245">
        <ele>41</ele>
        <time>2018-07-14T11:11:25Z</time>
      </trkpt>
      <trkpt lat="47.77663" lon="-3.56248">
        <ele>41</ele>
        <time>2018-07-14T11:11:26Z</time>
      </trkpt>
      <trkpt lat="47.77667" lon="-3.5625">
        <ele>41</ele>
        <time>2018-07-14T11:11:27Z</time>
      </trkpt>
      <trkpt lat="47.77671" lon="-3.56252">
        <ele>41</ele>
        <time>2018-07-14T11:11:28Z</time>
      </trkpt>
      <trkpt lat="47.77675" lon="-3.56253">
        <ele>41</ele>
        <time>2018-07-14T11:11:29Z</time>
      </trkpt>
      <trkpt lat="47.7768" lon="-3.56255">
        <ele>41</ele>
        <time>2018-07-14T11:11:30Z</time>
      </trkpt>
      <trkpt lat="47.77684" lon="-3.56257">
        <ele>41</ele>
        <time>2018-07-14T11:11:31Z</time>
      </trkpt>
      <trkpt lat="47.77689" lon="-3.5626">
        <ele>41</ele>
        <time>2018-07-14T11:11:32Z</time>
      </trkpt>
      <trkpt lat="47.77694" lon="-3.56263">
        <ele>41</ele>
        <time>2018-07-14T11:11:33Z</time>
      </trkpt>
      <trkpt lat="47.77699" lon="-3.56267">
        <ele>41</ele>
        <time>2018-07-14T11:11:34Z</time>
      </trkpt>
      <trkpt lat="47.77703" lon="-3.56272">
        <ele>42</ele>
        <time>2018-07-14T11:11:35Z</time>
      </trkpt>
      <trkpt lat="47.77706" lon="-3.56277">
        <ele>42</ele>
        <time>2018-07-14T11:11:36Z</time>
      </trkpt>
      <trkpt lat="47.77708" lon="-3.56284">
        <ele>42</ele>
        <time>2018-07-14T11:11:37Z</time>
      </trkpt>
      <trkpt lat="47.7771" lon="-3.56291">
        <ele>41</ele>
        <time>2018-07-14T11:11:38Z</time>
      </trkpt>
      <trkpt lat="47.77712" lon="-3.56298">
        <ele>41</ele>
        <time>2018-07-14T11:11:39Z</time>
      </trkpt>
      <trkpt lat="47.77712" lon="-3.56306">
        <ele>42</ele>
        <time>2018-07-14T11:11:40Z</time>
      </trkpt>
      <trkpt lat="47.77713" lon="-3.56313">
        <ele>42</ele>
        <time>2018-07-14T11:11:41Z</time>
      </trkpt>
      <trkpt lat="47.77713" lon="-3.56319">
        <ele>42</ele>
        <time>2018-07-14T11:11:42Z</time>
      </trkpt>
      <trkpt lat="47.77713" lon="-3.56326">
        <ele>42</ele>
        <time>2018-07-14T11:11:43Z</time>
      </trkpt>
      <trkpt lat="47.77713" lon="-3.56332">
        <ele>43</ele>
        <time>2018-07-14T11:11:44Z</time>
      </trkpt>
      <trkpt lat="47.77713" lon="-3.56337">
        <ele>43</ele>
        <time>2018-07-14T11:11:45Z</time>
      </trkpt>
      <trkpt lat="47.77712" lon="-3.56341">
        <ele>44</ele>
        <time>2018-07-14T11:11:46Z</time>
      </trkpt>
      <trkpt lat="47.7771" lon="-3.56345">
        <ele>44</ele>
        <time>2018-07-14T11:11:47Z</time>
      </trkpt>
      <trkpt lat="47.77708" lon="-3.56348">
        <ele>44</ele>
        <time>2018-07-14T11:11:48Z</time>
      </trkpt>
      <trkpt lat="47.77705" lon="-3.56351">
        <ele>45</ele>
        <time>2018-07-14T11:11:49Z</time>
      </trkpt>
      <trkpt lat="47.77701" lon="-3.56353">
        <ele>45</ele>
        <time>2018-07-14T11:11:50Z</time>
      </trkpt>
      <trkpt lat="47.77696" lon="-3.56354">
        <ele>45</ele>
        <time>2018-07-14T11:11:51Z</time>
      </trkpt>
      <trkpt lat="47.77691" lon="-3.56353">
        <ele>45</ele>
        <time>2018-07-14T11:11:52Z</time>
      </trkpt>
      <trkpt lat="47.77686" lon="-3.56352">
        <ele>46</ele>
        <time>2018-07-14T11:11:53Z</time>
      </trkpt>
      <trkpt lat="47.77681" lon="-3.56351">
        <ele>46</ele>
        <time>2018-07-14T11:11:54Z</time>
      </trkpt>
      <trkpt lat="47.77676" lon="-3.56351">
        <ele>46</ele>
        <time>2018-07-14T11:11:55Z</time>
      </trkpt>
      <trkpt lat="47.77671" lon="-3.56351">
        <ele>46</ele>
        <time>2018-07-14T11:11:56Z</time>
      </trkpt>
      <trkpt lat="47.77666" lon="-3.56351">
        <ele>47</ele>
        <time>2018-07-14T11:11:57Z</time>
      </trkpt>
      <trkpt lat="47.77661" lon="-3.5635">
        <ele>47</ele>
        <time>2018-07-14T11:11:58Z</time>
      </trkpt>
      <trkpt lat="47.77657" lon="-3.56349">
        <ele>47</ele>
        <time>2018-07-14T11:11:59Z</time>
      </trkpt>
      <trkpt lat="47.77652" lon="-3.56348">
        <ele>47</ele>
        <time>2018-07-14T11:12:00Z</time>
      </trkpt>
      <trkpt lat="47.77647" lon="-3.56346">
        <ele>47</ele>
        <time>2018-07-14T11:12:01Z</time>
      </trkpt>
      <trkpt lat="47.77642" lon="-3.56346">
        <ele>47</ele>
        <time>2018-07-14T11:12:02Z</time>
      </trkpt>
      <trkpt lat="47.77637" lon="-3.56345">
        <ele>48</ele>
        <time>2018-07-14T11:12:03Z</time>
      </trkpt>
      <trkpt lat="47.77632" lon="-3.56344">
        <ele>48</ele>
        <time>2018-07-14T11:12:04Z</time>
      </trkpt>
      <trkpt lat="47.77628" lon="-3.56343">
        <ele>48</ele>
        <time>2018-07-14T11:12:05Z</time>
      </trkpt>
      <trkpt lat="47.77623" lon="-3.56342">
        <ele>48</ele>
        <time>2018-07-14T11:12:06Z</time>
      </trkpt>
      <trkpt lat="47.77618" lon="-3.56342">
        <ele>48</ele>
        <time>2018-07-14T11:12:07Z</time>
      </trkpt>
      <trkpt lat="47.77613" lon="-3.56343">
        <ele>48</ele>
        <time>2018-07-14T11:12:08Z</time>
      </trkpt>
      <trkpt lat="47.77608" lon="-3.56344">
        <ele>48</ele>
        <time>2018-07-14T11:12:09Z</time>
      </trkpt>
      <trkpt lat="47.77603" lon="-3.56345">
        <ele>48</ele>
        <time>2018-07-14T11:12:10Z</time>
      </trkpt>
      <trkpt lat="47.77598" lon="-3.56346">
        <ele>48</ele>
        <time>2018-07-14T11:12:11Z</time>
      </trkpt>
      <trkpt lat="47.77594" lon="-3.56348">
        <ele>48</ele>
        <time>2018-07-14T11:12:12Z</time>
      </trkpt>
      <trkpt lat="47.77589" lon="-3.5635">
        <ele>48</ele>
        <time>2018-07-14T11:12:13Z</time>
      </trkpt>
      <trkpt lat="47.77586" lon="-3.56354">
        <ele>48</ele>
        <time>2018-07-14T11:12:14Z</time>
      </trkpt>
      <trkpt lat="47.77582" lon="-3.56357">
        <ele>48</ele>
        <time>2018-07-14T11:12:15Z</time>
      </trkpt>
      <trkpt lat="47.77579" lon="-3.56361">
        <ele>48</ele>
        <time>2018-07-14T11:12:16Z</time>
      </trkpt>
      <trkpt lat="47.77576" lon="-3.56365">
        <ele>48</ele>
        <time>2018-07-14T11:12:17Z</time>
      </trkpt>
      <trkpt lat="47.77573" lon="-3.56369">
        <ele>48</ele>
        <time>2018-07-14T11:12:18Z</time>
      </trkpt>
      <trkpt lat="47.7757" lon="-3.56373">
        <ele>48</ele>
        <time>2018-07-14T11:12:19Z</time>
      </trkpt>
      <trkpt lat="47.77568" lon="-3.56378">
        <ele>48</ele>
        <time>2018-07-14T11:12:20Z</time>
      </trkpt>
      <trkpt lat="47.77565" lon="-3.56383">
        <ele>47</ele>
        <time>2018-07-14T11:12:21Z</time>
      </trkpt>
      <trkpt lat="47.77562" lon="-3.56388">
        <ele>47</ele>
        <time>2018-07-14T11:12:22Z</time>
      </trkpt>
      <trkpt lat="47.77559" lon="-3.56394">
        <ele>47</ele>
        <time>2018-07-14T11:12:23Z</time>
      </trkpt>
      <trkpt lat="47.77556" lon="-3.564">
        <ele>47</ele>
        <time>2018-07-14T11:12:24Z</time>
      </trkpt>
      <trkpt lat="47.77553" lon="-3.56406">
        <ele>47</ele>
        <time>2018-07-14T11:12:25Z</time>
      </trkpt>
      <trkpt lat="47.7755" lon="-3.56412">
        <ele>47</ele>
        <time>2018-07-14T11:12:26Z</time>
      </trkpt>
      <trkpt lat="47.77546" lon="-3.56417">
        <ele>46</ele>
        <time>2018-07-14T11:12:27Z</time>
      </trkpt>
      <trkpt lat="47.77542" lon="-3.56422">
        <ele>46</ele>
        <time>2018-07-14T11:12:28Z</time>
      </trkpt>
      <trkpt lat="47.77537" lon="-3.56427">
        <ele>46</ele>
        <time>2018-07-14T11:12:29Z</time>
      </trkpt>
      <trkpt lat="47.77532" lon="-3.56433">
        <ele>46</ele>
        <time>2018-07-14T11:12:30Z</time>
      </trkpt>
      <trkpt lat="47.77527" lon="-3.56438">
        <ele>46</ele>
        <time>2018-07-14T11:12:31Z</time>
      </trkpt>
      <trkpt lat="47.77523" lon="-3.56444">
        <ele>46</ele>
        <time>2018-07-14T11:12:32Z</time>
      </trkpt>
      <trkpt lat="47.77518" lon="-3.5645">
        <ele>45</ele>
        <time>2018-07-14T11:12:33Z</time>
      </trkpt>
      <trkpt lat="47.77514" lon="-3.56457">
        <ele>45</ele>
        <time>2018-07-14T11:12:34Z</time>
      </trkpt>
      <trkpt lat="47.77509" lon="-3.56463">
        <ele>45</ele>
        <time>2018-07-14T11:12:35Z</time>
      </trkpt>
      <trkpt lat="47.77505" lon="-3.5647">
        <ele>45</ele>
        <time>2018-07-14T11:12:36Z</time>
      </trkpt>
      <trkpt lat="47.77502" lon="-3.56476">
        <ele>45</ele>
        <time>2018-07-14T11:12:37Z</time>
      </trkpt>
      <trkpt lat="47.77498" lon="-3.56483">
        <ele>44</ele>
        <time>2018-07-14T11:12:38Z</time>
      </trkpt>
      <trkpt lat="47.77494" lon="-3.5649">
        <ele>44</ele>
        <time>2018-07-14T11:12:39Z</time>
      </trkpt>
      <trkpt lat="47.7749" lon="-3.56496">
        <ele>44</ele>
        <time>2018-07-14T11:12:40Z</time>
      </trkpt>
      <trkpt lat="47.77487" lon="-3.56503">
        <ele>44</ele>
        <time>2018-07-14T11:12:41Z</time>
      </trkpt>
      <trkpt lat="47.77484" lon="-3.56511">
        <ele>44</ele>
        <time>2018-07-14T11:12:42Z</time>
      </trkpt>
      <trkpt lat="47.77481" lon="-3.56518">
        <ele>44</ele>
        <time>2018-07-14T11:12:43Z</time>
      </trkpt>
      <trkpt lat="47.77478" lon="-3.56524">
        <ele>45</ele>
        <time>2018-07-14T11:12:44Z</time>
      </trkpt>
      <trkpt lat="47.77475" lon="-3.5653">
        <ele>45</ele>
        <time>2018-07-14T11:12:45Z</time>
      </trkpt>
      <trkpt lat="47.77472" lon="-3.56535">
        <ele>45</ele>
        <time>2018-07-14T11:12:46Z</time>
      </trkpt>
      <trkpt lat="47.77468" lon="-3.56539">
        <ele>45</ele>
        <time>2018-07-14T11:12:47Z</time>
      </trkpt>
      <trkpt lat="47.77464" lon="-3.56542">
        <ele>45</ele>
        <time>2018-07-14T11:12:48Z</time>
      </trkpt>
      <trkpt lat="47.7746" lon="-3.56545">
        <ele>45</ele>
        <time>2018-07-14T11:12:49Z</time>
      </trkpt>
      <trkpt lat="47.77456" lon="-3.56547">
        <ele>45</ele>
        <time>2018-07-14T11:12:50Z</time>
      </trkpt>
      <trkpt lat="47.77451" lon="-3.56547">
        <ele>45</ele>
        <time>2018-07-14T11:12:51Z</time>
      </trkpt>
      <trkpt lat="47.77447" lon="-3.56545">
        <ele>45</ele>
        <time>2018-07-14T11:12:52Z</time>
      </trkpt>
      <trkpt lat="47.77442" lon="-3.56542">
        <ele>45</ele>
        <time>2018-07-14T11:12:53Z</time>
      </trkpt>
      <trkpt lat="47.77437" lon="-3.56539">
        <ele>45</ele>
        <time>2018-07-14T11:12:54Z</time>
      </trkpt>
      <trkpt lat="47.77433" lon="-3.56536">
        <ele>45</ele>
        <time>2018-07-14T11:12:55Z</time>
      </trkpt>
      <trkpt lat="47.7743" lon="-3.56535">
        <ele>45</ele>
        <time>2018-07-14T11:12:56Z</time>
      </trkpt>
      <trkpt lat="47.77428" lon="-3.56533">
        <ele>45</ele>
        <time>2018-07-14T11:12:57Z</time>
      </trkpt>
      <trkpt lat="47.77428" lon="-3.56533">
        <ele>45</ele>
        <time>2018-07-14T11:12:58Z</time>
      </trkpt>
      <trkpt lat="47.77428" lon="-3.56533">
        <ele>45</ele>
        <time>2018-07-14T11:12:59Z</time>
      </trkpt>
      <trkpt lat="47.77428" lon="-3.56534">
        <ele>46</ele>
        <time>2018-07-14T11:13:00Z</time>
      </trkpt>
      <trkpt lat="47.7743" lon="-3.56537">
        <ele>45</ele>
        <time>2018-07-14T11:13:01Z</time>
      </trkpt>
      <trkpt lat="47.7743" lon="-3.56541">
        <ele>45</ele>
        <time>2018-07-14T11:13:02Z</time>
      </trkpt>
      <trkpt lat="47.77431" lon="-3.56544">
        <ele>45</ele>
        <time>2018-07-14T11:13:03Z</time>
      </trkpt>
      <trkpt lat="47.7743" lon="-3.56546">
        <ele>45</ele>
        <time>2018-07-14T11:13:04Z</time>
      </trkpt>
      <trkpt lat="47.77428" lon="-3.56549">
        <ele>45</ele>
        <time>2018-07-14T11:13:05Z</time>
      </trkpt>
      <trkpt lat="47.77427" lon="-3.5655">
        <ele>45</ele>
        <time>2018-07-14T11:13:06Z</time>
      </trkpt>
      <trkpt lat="47.77424" lon="-3.56551">
        <ele>45</ele>
        <time>2018-07-14T11:13:07Z</time>
      </trkpt>
      <trkpt lat="47.77421" lon="-3.56552">
        <ele>45</ele>
        <time>2018-07-14T11:13:08Z</time>
      </trkpt>
      <trkpt lat="47.77417" lon="-3.56552">
        <ele>45</ele>
        <time>2018-07-14T11:13:09Z</time>
      </trkpt>
      <trkpt lat="47.77412" lon="-3.56552">
        <ele>45</ele>
        <time>2018-07-14T11:13:10Z</time>
      </trkpt>
      <trkpt lat="47.77408" lon="-3.56551">
        <ele>45</ele>
        <time>2018-07-14T11:13:11Z</time>
      </trkpt>
      <trkpt lat="47.77403" lon="-3.56551">
        <ele>45</ele>
        <time>2018-07-14T11:13:12Z</time>
      </trkpt>
      <trkpt lat="47.77398" lon="-3.56551">
        <ele>45</ele>
        <time>2018-07-14T11:13:13Z</time>
      </trkpt>
      <trkpt lat="47.77394" lon="-3.5655">
        <ele>45</ele>
        <time>2018-07-14T11:13:14Z</time>
      </trkpt>
      <trkpt lat="47.77389" lon="-3.56549">
        <ele>45</ele>
        <time>2018-07-14T11:13:15Z</time>
      </trkpt>
      <trkpt lat="47.77384" lon="-3.56548">
        <ele>45</ele>
        <time>2018-07-14T11:13:16Z</time>
      </trkpt>
      <trkpt lat="47.77378" lon="-3.56548">
        <ele>45</ele>
        <time>2018-07-14T11:13:17Z</time>
      </trkpt>
      <trkpt lat="47.77373" lon="-3.56546">
        <ele>45</ele>
        <time>2018-07-14T11:13:18Z</time>
      </trkpt>
      <trkpt lat="47.77368" lon="-3.56545">
        <ele>45</ele>
        <time>2018-07-14T11:13:19Z</time>
      </trkpt>
      <trkpt lat="47.77362" lon="-3.56543">
        <ele>45</ele>
        <time>2018-07-14T11:13:20Z</time>
      </trkpt>
      <trkpt lat="47.77357" lon="-3.56541">
        <ele>45</ele>
        <time>2018-07-14T11:13:21Z</time>
      </trkpt>
      <trkpt lat="47.77352" lon="-3.56539">
        <ele>45</ele>
        <time>2018-07-14T11:13:22Z</time>
      </trkpt>
      <trkpt lat="47.77346" lon="-3.56536">
        <ele>45</ele>
        <time>2018-07-14T11:13:23Z</time>
      </trkpt>
      <trkpt lat="47.77341" lon="-3.56534">
        <ele>45</ele>
        <time>2018-07-14T11:13:24Z</time>
      </trkpt>
      <trkpt lat="47.77336" lon="-3.56532">
        <ele>45</ele>
        <time>2018-07-14T11:13:25Z</time>
      </trkpt>
      <trkpt lat="47.77331" lon="-3.56529">
        <ele>45</ele>
        <time>2018-07-14T11:13:26Z</time>
      </trkpt>
      <trkpt lat="47.77326" lon="-3.56526">
        <ele>44</ele>
        <time>2018-07-14T11:13:27Z</time>
      </trkpt>
      <trkpt lat="47.77322" lon="-3.56522">
        <ele>44</ele>
        <time>2018-07-14T11:13:28Z</time>
      </trkpt>
      <trkpt lat="47.77317" lon="-3.56518">
        <ele>44</ele>
        <time>2018-07-14T11:13:29Z</time>
      </trkpt>
      <trkpt lat="47.77313" lon="-3.56515">
        <ele>44</ele>
        <time>2018-07-14T11:13:30Z</time>
      </trkpt>
      <trkpt lat="47.77308" lon="-3.56512">
        <ele>44</ele>
        <time>2018-07-14T11:13:31Z</time>
      </trkpt>
      <trkpt lat="47.77303" lon="-3.5651">
        <ele>44</ele>
        <time>2018-07-14T11:13:32Z</time>
      </trkpt>
      <trkpt lat="47.77298" lon="-3.56508">
        <ele>44</ele>
        <time>2018-07-14T11:13:33Z</time>
      </trkpt>
      <trkpt lat="47.77293" lon="-3.56505">
        <ele>44</ele>
        <time>2018-07-14T11:13:34Z</time>
      </trkpt>
      <trkpt lat="47.77289" lon="-3.56502">
        <ele>44</ele>
        <time>2018-07-14T11:13:35Z</time>
      </trkpt>
      <trkpt lat="47.77284" lon="-3.56501">
        <ele>44</ele>
        <time>2018-07-14T11:13:36Z</time>
      </trkpt>
      <trkpt lat="47.7728" lon="-3.56499">
        <ele>44</ele>
        <time>2018-07-14T11:13:37Z</time>
      </trkpt>
      <trkpt lat="47.77274" lon="-3.56499">
        <ele>44</ele>
        <time>2018-07-14T11:13:38Z</time>
      </trkpt>
      <trkpt lat="47.77269" lon="-3.565">
        <ele>44</ele>
        <time>2018-07-14T11:13:39Z</time>
      </trkpt>
      <trkpt lat="47.77263" lon="-3.56502">
        <ele>44</ele>
        <time>2018-07-14T11:13:40Z</time>
      </trkpt>
      <trkpt lat="47.77257" lon="-3.56505">
        <ele>44</ele>
        <time>2018-07-14T11:13:41Z</time>
      </trkpt>
      <trkpt lat="47.77253" lon="-3.56509">
        <ele>44</ele>
        <time>2018-07-14T11:13:42Z</time>
      </trkpt>
      <trkpt lat="47.77248" lon="-3.56515">
        <ele>44</ele>
        <time>2018-07-14T11:13:43Z</time>
      </trkpt>
      <trkpt lat="47.77243" lon="-3.5652">
        <ele>43</ele>
        <time>2018-07-14T11:13:44Z</time>
      </trkpt>
      <trkpt lat="47.77238" lon="-3.56526">
        <ele>43</ele>
        <time>2018-07-14T11:13:45Z</time>
      </trkpt>
      <trkpt lat="47.77233" lon="-3.56531">
        <ele>43</ele>
        <time>2018-07-14T11:13:46Z</time>
      </trkpt>
      <trkpt lat="47.77228" lon="-3.56535">
        <ele>43</ele>
        <time>2018-07-14T11:13:47Z</time>
      </trkpt>
      <trkpt lat="47.77223" lon="-3.56539">
        <ele>43</ele>
        <time>2018-07-14T11:13:48Z</time>
      </trkpt>
      <trkpt lat="47.77217" lon="-3.56543">
        <ele>43</ele>
        <time>2018-07-14T11:13:49Z</time>
      </trkpt>
      <trkpt lat="47.77212" lon="-3.56547">
        <ele>43</ele>
        <time>2018-07-14T11:13:50Z</time>
      </trkpt>
      <trkpt lat="47.77206" lon="-3.56551">
        <ele>43</ele>
        <time>2018-07-14T11:13:51Z</time>
      </trkpt>
      <trkpt lat="47.77201" lon="-3.56554">
        <ele>43</ele>
        <time>2018-07-14T11:13:52Z</time>
      </trkpt>
      <trkpt lat="47.77195" lon="-3.56558">
        <ele>43</ele>
        <time>2018-07-14T11:13:53Z</time>
      </trkpt>
      <trkpt lat="47.7719" lon="-3.56563">
        <ele>42</ele>
        <time>2018-07-14T11:13:54Z</time>
      </trkpt>
      <trkpt lat="47.77184" lon="-3.56568">
        <ele>42</ele>
        <time>2018-07-14T11:13:55Z</time>
      </trkpt>
      <trkpt lat="47.77178" lon="-3.56573">
        <ele>42</ele>
        <time>2018-07-14T11:13:56Z</time>
      </trkpt>
      <trkpt lat="47.77173" lon="-3.56578">
        <ele>42</ele>
        <time>2018-07-14T11:13:57Z</time>
      </trkpt>
      <trkpt lat="47.77168" lon="-3.56584">
        <ele>42</ele>
        <time>2018-07-14T11:13:58Z</time>
      </trkpt>
      <trkpt lat="47.77163" lon="-3.56591">
        <ele>41</ele>
        <time>2018-07-14T11:13:59Z</time>
      </trkpt>
      <trkpt lat="47.77159" lon="-3.566">
        <ele>41</ele>
        <time>2018-07-14T11:14:00Z</time>
      </trkpt>
      <trkpt lat="47.77155" lon="-3.56609">
        <ele>41</ele>
        <time>2018-07-14T11:14:01Z</time>
      </trkpt>
      <trkpt lat="47.7715" lon="-3.5662">
        <ele>40</ele>
        <time>2018-07-14T11:14:02Z</time>
      </trkpt>
      <trkpt lat="47.77146" lon="-3.56633">
        <ele>40</ele>
        <time>2018-07-14T11:14:03Z</time>
      </trkpt>
      <trkpt lat="47.77142" lon="-3.56646">
        <ele>39</ele>
        <time>2018-07-14T11:14:04Z</time>
      </trkpt>
      <trkpt lat="47.77138" lon="-3.5666">
        <ele>39</ele>
        <time>2018-07-14T11:14:05Z</time>
      </trkpt>
      <trkpt lat="47.77135" lon="-3.56673">
        <ele>38</ele>
        <time>2018-07-14T11:14:06Z</time>
      </trkpt>
      <trkpt lat="47.77131" lon="-3.56685">
        <ele>38</ele>
        <time>2018-07-14T11:14:07Z</time>
      </trkpt>
      <trkpt lat="47.77128" lon="-3.56696">
        <ele>38</ele>
        <time>2018-07-14T11:14:08Z</time>
      </trkpt>
      <trkpt lat="47.77126" lon="-3.56707">
        <ele>37</ele>
        <time>2018-07-14T11:14:09Z</time>
      </trkpt>
      <trkpt lat="47.77124" lon="-3.56716">
        <ele>37</ele>
        <time>2018-07-14T11:14:10Z</time>
      </trkpt>
      <trkpt lat="47.77122" lon="-3.56725">
        <ele>37</ele>
        <time>2018-07-14T11:14:11Z</time>
      </trkpt>
      <trkpt lat="47.7712" lon="-3.56734">
        <ele>37</ele>
        <time>2018-07-14T11:14:12Z</time>
      </trkpt>
      <trkpt lat="47.77119" lon="-3.56742">
        <ele>37</ele>
        <time>2018-07-14T11:14:13Z</time>
      </trkpt>
      <trkpt lat="47.77117" lon="-3.56751">
        <ele>37</ele>
        <time>2018-07-14T11:14:14Z</time>
      </trkpt>
      <trkpt lat="47.77115" lon="-3.56759">
        <ele>37</ele>
        <time>2018-07-14T11:14:15Z</time>
      </trkpt>
      <trkpt lat="47.77113" lon="-3.56768">
        <ele>38</ele>
        <time>2018-07-14T11:14:16Z</time>
      </trkpt>
      <trkpt lat="47.77112" lon="-3.56776">
        <ele>38</ele>
        <time>2018-07-14T11:14:17Z</time>
      </trkpt>
      <trkpt lat="47.7711" lon="-3.56784">
        <ele>38</ele>
        <time>2018-07-14T11:14:18Z</time>
      </trkpt>
      <trkpt lat="47.77109" lon="-3.56792">
        <ele>38</ele>
        <time>2018-07-14T11:14:19Z</time>
      </trkpt>
      <trkpt lat="47.77107" lon="-3.568">
        <ele>38</ele>
        <time>2018-07-14T11:14:20Z</time>
      </trkpt>
      <trkpt lat="47.77106" lon="-3.56808">
        <ele>38</ele>
        <time>2018-07-14T11:14:21Z</time>
      </trkpt>
      <trkpt lat="47.77106" lon="-3.56814">
        <ele>39</ele>
        <time>2018-07-14T11:14:22Z</time>
      </trkpt>
      <trkpt lat="47.77106" lon="-3.56819">
        <ele>39</ele>
        <time>2018-07-14T11:14:23Z</time>
      </trkpt>
      <trkpt lat="47.77109" lon="-3.56821">
        <ele>39</ele>
        <time>2018-07-14T11:14:24Z</time>
      </trkpt>
      <trkpt lat="47.77111" lon="-3.56821">
        <ele>39</ele>
        <time>2018-07-14T11:14:25Z</time>
      </trkpt>
      <trkpt lat="47.77114" lon="-3.56819">
        <ele>39</ele>
        <time>2018-07-14T11:14:26Z</time>
      </trkpt>
      <trkpt lat="47.77118" lon="-3.56819">
        <ele>39</ele>
        <time>2018-07-14T11:14:27Z</time>
      </trkpt>
      <trkpt lat="47.77122" lon="-3.56819">
        <ele>39</ele>
        <time>2018-07-14T11:14:28Z</time>
      </trkpt>
      <trkpt lat="47.77126" lon="-3.5682">
        <ele>39</ele>
        <time>2018-07-14T11:14:29Z</time>
      </trkpt>
      <trkpt lat="47.7713" lon="-3.56821">
        <ele>39</ele>
        <time>2018-07-14T11:14:30Z</time>
      </trkpt>
      <trkpt lat="47.77134" lon="-3.56822">
        <ele>40</ele>
        <time>2018-07-14T11:14:31Z</time>
      </trkpt>
      <trkpt lat="47.77139" lon="-3.56824">
        <ele>40</ele>
        <time>2018-07-14T11:14:32Z</time>
      </trkpt>
      <trkpt lat="47.77143" lon="-3.56825">
        <ele>40</ele>
        <time>2018-07-14T11:14:33Z</time>
      </trkpt>
      <trkpt lat="47.77148" lon="-3.56826">
        <ele>41</ele>
        <time>2018-07-14T11:14:34Z</time>
      </trkpt>
      <trkpt lat="47.77152" lon="-3.56828">
        <ele>41</ele>
        <time>2018-07-14T11:14:35Z</time>
      </trkpt>
      <trkpt lat="47.77156" lon="-3.56829">
        <ele>41</ele>
        <time>2018-07-14T11:14:36Z</time>
      </trkpt>
      <trkpt lat="47.7716" lon="-3.56831">
        <ele>41</ele>
        <time>2018-07-14T11:14:37Z</time>
      </trkpt>
      <trkpt lat="47.77164" lon="-3.56833">
        <ele>41</ele>
        <time>2018-07-14T11:14:38Z</time>
      </trkpt>
      <trkpt lat="47.77168" lon="-3.56835">
        <ele>41</ele>
        <time>2018-07-14T11:14:39Z</time>
      </trkpt>
      <trkpt lat="47.77172" lon="-3.56837">
        <ele>41</ele>
        <time>2018-07-14T11:14:40Z</time>
      </trkpt>
      <trkpt lat="47.77176" lon="-3.56838">
        <ele>41</ele>
        <time>2018-07-14T11:14:41Z</time>
      </trkpt>
      <trkpt lat="47.77181" lon="-3.56841">
        <ele>41</ele>
        <time>2018-07-14T11:14:42Z</time>
      </trkpt>
      <trkpt lat="47.77186" lon="-3.56843">
        <ele>42</ele>
        <time>2018-07-14T11:14:43Z</time>
      </trkpt>
      <trkpt lat="47.77191" lon="-3.56845">
        <ele>42</ele>
        <time>2018-07-14T11:14:44Z</time>
      </trkpt>
      <trkpt lat="47.77195" lon="-3.56847">
        <ele>42</ele>
        <time>2018-07-14T11:14:45Z</time>
      </trkpt>
      <trkpt lat="47.772" lon="-3.56849">
        <ele>42</ele>
        <time>2018-07-14T11:14:46Z</time>
      </trkpt>
      <trkpt lat="47.77204" lon="-3.56851">
        <ele>42</ele>
        <time>2018-07-14T11:14:47Z</time>
      </trkpt>
      <trkpt lat="47.77209" lon="-3.56853">
        <ele>42</ele>
        <time>2018-07-14T11:14:48Z</time>
      </trkpt>
      <trkpt lat="47.77213" lon="-3.56856">
        <ele>42</ele>
        <time>2018-07-14T11:14:49Z</time>
      </trkpt>
      <trkpt lat="47.77217" lon="-3.56858">
        <ele>42</ele>
        <time>2018-07-14T11:14:50Z</time>
      </trkpt>
      <trkpt lat="47.77222" lon="-3.56861">
        <ele>42</ele>
        <time>2018-07-14T11:14:51Z</time>
      </trkpt>
      <trkpt lat="47.77226" lon="-3.56863">
        <ele>42</ele>
        <time>2018-07-14T11:14:52Z</time>
      </trkpt>
      <trkpt lat="47.77231" lon="-3.56866">
        <ele>43</ele>
        <time>2018-07-14T11:14:53Z</time>
      </trkpt>
      <trkpt lat="47.77235" lon="-3.56869">
        <ele>43</ele>
        <time>2018-07-14T11:14:54Z</time>
      </trkpt>
      <trkpt lat="47.7724" lon="-3.56872">
        <ele>43</ele>
        <time>2018-07-14T11:14:55Z</time>
      </trkpt>
      <trkpt lat="47.77245" lon="-3.56874">
        <ele>43</ele>
        <time>2018-07-14T11:14:56Z</time>
      </trkpt>
      <trkpt lat="47.77249" lon="-3.56877">
        <ele>43</ele>
        <time>2018-07-14T11:14:57Z</time>
      </trkpt>
      <trkpt lat="47.77254" lon="-3.5688">
        <ele>43</ele>
        <time>2018-07-14T11:14:58Z</time>
      </trkpt>
      <trkpt lat="47.77258" lon="-3.56883">
        <ele>43</ele>
        <time>2018-07-14T11:14:59Z</time>
      </trkpt>
      <trkpt lat="47.77263" lon="-3.56885">
        <ele>43</ele>
        <time>2018-07-14T11:15:00Z</time>
      </trkpt>
      <trkpt lat="47.77267" lon="-3.56888">
        <ele>43</ele>
        <time>2018-07-14T11:15:01Z</time>
      </trkpt>
      <trkpt lat="47.77271" lon="-3.56891">
        <ele>44</ele>
        <time>2018-07-14T11:15:02Z</time>
      </trkpt>
      <trkpt lat="47.77275" lon="-3.56894">
        <ele>44</ele>
        <time>2018-07-14T11:15:03Z</time>
      </trkpt>
      <trkpt lat="47.77279" lon="-3.56897">
        <ele>44</ele>
        <time>2018-07-14T11:15:04Z</time>
      </trkpt>
      <trkpt lat="47.77284" lon="-3.569">
        <ele>44</ele>
        <time>2018-07-14T11:15:05Z</time>
      </trkpt>
      <trkpt lat="47.77289" lon="-3.56903">
        <ele>44</ele>
        <time>2018-07-14T11:15:06Z</time>
      </trkpt>
      <trkpt lat="47.77293" lon="-3.56906">
        <ele>44</ele>
        <time>2018-07-14T11:15:07Z</time>
      </trkpt>
      <trkpt lat="47.77298" lon="-3.56908">
        <ele>44</ele>
        <time>2018-07-14T11:15:08Z</time>
      </trkpt>
      <trkpt lat="47.77303" lon="-3.56911">
        <ele>44</ele>
        <time>2018-07-14T11:15:09Z</time>
      </trkpt>
      <trkpt lat="47.77308" lon="-3.56913">
        <ele>44</ele>
        <time>2018-07-14T11:15:10Z</time>
      </trkpt>
      <trkpt lat="47.77313" lon="-3.56915">
        <ele>44</ele>
        <time>2018-07-14T11:15:11Z</time>
      </trkpt>
      <trkpt lat="47.77318" lon="-3.56917">
        <ele>44</ele>
        <time>2018-07-14T11:15:12Z</time>
      </trkpt>
      <trkpt lat="47.77323" lon="-3.56919">
        <ele>44</ele>
        <time>2018-07-14T11:15:13Z</time>
      </trkpt>
      <trkpt lat="47.77327" lon="-3.56921">
        <ele>44</ele>
        <time>2018-07-14T11:15:14Z</time>
      </trkpt>
      <trkpt lat="47.77332" lon="-3.56923">
        <ele>44</ele>
        <time>2018-07-14T11:15:15Z</time>
      </trkpt>
      <trkpt lat="47.77336" lon="-3.56926">
        <ele>44</ele>
        <time>2018-07-14T11:15:16Z</time>
      </trkpt>
      <trkpt lat="47.7734" lon="-3.56929">
        <ele>44</ele>
        <time>2018-07-14T11:15:17Z</time>
      </trkpt>
      <trkpt lat="47.77345" lon="-3.56932">
        <ele>44</ele>
        <time>2018-07-14T11:15:18Z</time>
      </trkpt>
      <trkpt lat="47.7735" lon="-3.56935">
        <ele>44</ele>
        <time>2018-07-14T11:15:19Z</time>
      </trkpt>
      <trkpt lat="47.77355" lon="-3.56939">
        <ele>44</ele>
        <time>2018-07-14T11:15:20Z</time>
      </trkpt>
      <trkpt lat="47.7736" lon="-3.56944">
        <ele>44</ele>
        <time>2018-07-14T11:15:21Z</time>
      </trkpt>
      <trkpt lat="47.77365" lon="-3.56949">
        <ele>44</ele>
        <time>2018-07-14T11:15:22Z</time>
      </trkpt>
      <trkpt lat="47.7737" lon="-3.56955">
        <ele>44</ele>
        <time>2018-07-14T11:15:23Z</time>
      </trkpt>
      <trkpt lat="47.77375" lon="-3.56959">
        <ele>44</ele>
        <time>2018-07-14T11:15:24Z</time>
      </trkpt>
      <trkpt lat="47.77379" lon="-3.56965">
        <ele>44</ele>
        <time>2018-07-14T11:15:25Z</time>
      </trkpt>
      <trkpt lat="47.77384" lon="-3.56969">
        <ele>44</ele>
        <time>2018-07-14T11:15:26Z</time>
      </trkpt>
      <trkpt lat="47.77388" lon="-3.56974">
        <ele>44</ele>
        <time>2018-07-14T11:15:27Z</time>
      </trkpt>
      <trkpt lat="47.77392" lon="-3.56978">
        <ele>44</ele>
        <time>2018-07-14T11:15:28Z</time>
      </trkpt>
      <trkpt lat="47.77397" lon="-3.56983">
        <ele>45</ele>
        <time>2018-07-14T11:15:29Z</time>
      </trkpt>
      <trkpt lat="47.77401" lon="-3.56987">
        <ele>45</ele>
        <time>2018-07-14T11:15:30Z</time>
      </trkpt>
      <trkpt lat="47.77406" lon="-3.56991">
        <ele>45</ele>
        <time>2018-07-14T11:15:31Z</time>
      </trkpt>
      <trkpt lat="47.77411" lon="-3.56994">
        <ele>45</ele>
        <time>2018-07-14T11:15:32Z</time>
      </trkpt>
      <trkpt lat="47.77416" lon="-3.56996">
        <ele>45</ele>
        <time>2018-07-14T11:15:33Z</time>
      </trkpt>
      <trkpt lat="47.77421" lon="-3.56998">
        <ele>45</ele>
        <time>2018-07-14T11:15:34Z</time>
      </trkpt>
      <trkpt lat="47.77426" lon="-3.57">
        <ele>45</ele>
        <time>2018-07-14T11:15:35Z</time>
      </trkpt>
      <trkpt lat="47.77431" lon="-3.57">
        <ele>45</ele>
        <time>2018-07-14T11:15:36Z</time>
      </trkpt>
      <trkpt lat="47.77436" lon="-3.56999">
        <ele>45</ele>
        <time>2018-07-14T11:15:37Z</time>
      </trkpt>
      <trkpt lat="47.77441" lon="-3.56999">
        <ele>46</ele>
        <time>2018-07-14T11:15:38Z</time>
      </trkpt>
      <trkpt lat="47.77446" lon="-3.56998">
        <ele>46</ele>
        <time>2018-07-14T11:15:39Z</time>
      </trkpt>
      <trkpt lat="47.77451" lon="-3.56996">
        <ele>46</ele>
        <time>2018-07-14T11:15:40Z</time>
      </trkpt>
      <trkpt lat="47.77455" lon="-3.56995">
        <ele>46</ele>
        <time>2018-07-14T11:15:41Z</time>
      </trkpt>
      <trkpt lat="47.7746" lon="-3.56992">
        <ele>46</ele>
        <time>2018-07-14T11:15:42Z</time>
      </trkpt>
      <trkpt lat="47.77465" lon="-3.5699">
        <ele>46</ele>
        <time>2018-07-14T11:15:43Z</time>
      </trkpt>
      <trkpt lat="47.7747" lon="-3.56988">
        <ele>46</ele>
        <time>2018-07-14T11:15:44Z</time>
      </trkpt>
      <trkpt lat="47.77475" lon="-3.56985">
        <ele>47</ele>
        <time>2018-07-14T11:15:45Z</time>
      </trkpt>
      <trkpt lat="47.7748" lon="-3.56982">
        <ele>47</ele>
        <time>2018-07-14T11:15:46Z</time>
      </trkpt>
      <trkpt lat="47.77484" lon="-3.56979">
        <ele>47</ele>
        <time>2018-07-14T11:15:47Z</time>
      </trkpt>
      <trkpt lat="47.77489" lon="-3.56976">
        <ele>47</ele>
        <time>2018-07-14T11:15:48Z</time>
      </trkpt>
      <trkpt lat="47.77494" lon="-3.56973">
        <ele>47</ele>
        <time>2018-07-14T11:15:49Z</time>
      </trkpt>
      <trkpt lat="47.77499" lon="-3.56969">
        <ele>48</ele>
        <time>2018-07-14T11:15:50Z</time>
      </trkpt>
      <trkpt lat="47.77504" lon="-3.56965">
        <ele>48</ele>
        <time>2018-07-14T11:15:51Z</time>
      </trkpt>
      <trkpt lat="47.77509" lon="-3.56961">
        <ele>48</ele>
        <time>2018-07-14T11:15:52Z</time>
      </trkpt>
      <trkpt lat="47.77513" lon="-3.56957">
        <ele>48</ele>
        <time>2018-07-14T11:15:53Z</time>
      </trkpt>
      <trkpt lat="47.77518" lon="-3.56952">
        <ele>48</ele>
        <time>2018-07-14T11:15:54Z</time>
      </trkpt>
      <trkpt lat="47.77523" lon="-3.56948">
        <ele>48</ele>
        <time>2018-07-14T11:15:55Z</time>
      </trkpt>
      <trkpt lat="47.77528" lon="-3.56944">
        <ele>48</ele>
        <time>2018-07-14T11:15:56Z</time>
      </trkpt>
      <trkpt lat="47.77533" lon="-3.5694">
        <ele>48</ele>
        <time>2018-07-14T11:15:57Z</time>
      </trkpt>
      <trkpt lat="47.77537" lon="-3.56936">
        <ele>48</ele>
        <time>2018-07-14T11:15:58Z</time>
      </trkpt>
      <trkpt lat="47.77542" lon="-3.56933">
        <ele>48</ele>
        <time>2018-07-14T11:15:59Z</time>
      </trkpt>
      <trkpt lat="47.77548" lon="-3.56929">
        <ele>48</ele>
        <time>2018-07-14T11:16:00Z</time>
      </trkpt>
      <trkpt lat="47.77553" lon="-3.56926">
        <ele>48</ele>
        <time>2018-07-14T11:16:01Z</time>
      </trkpt>
      <trkpt lat="47.77558" lon="-3.56923">
        <ele>48</ele>
        <time>2018-07-14T11:16:02Z</time>
      </trkpt>
      <trkpt lat="47.77563" lon="-3.56921">
        <ele>48</ele>
        <time>2018-07-14T11:16:03Z</time>
      </trkpt>
      <trkpt lat="47.77569" lon="-3.56918">
        <ele>48</ele>
        <time>2018-07-14T11:16:04Z</time>
      </trkpt>
      <trkpt lat="47.77574" lon="-3.56916">
        <ele>48</ele>
        <time>2018-07-14T11:16:05Z</time>
      </trkpt>
      <trkpt lat="47.7758" lon="-3.56914">
        <ele>48</ele>
        <time>2018-07-14T11:16:06Z</time>
      </trkpt>
      <trkpt lat="47.77585" lon="-3.56912">
        <ele>48</ele>
        <time>2018-07-14T11:16:07Z</time>
      </trkpt>
      <trkpt lat="47.77591" lon="-3.5691">
        <ele>48</ele>
        <time>2018-07-14T11:16:08Z</time>
      </trkpt>
      <trkpt lat="47.77597" lon="-3.56907">
        <ele>48</ele>
        <time>2018-07-14T11:16:09Z</time>
      </trkpt>
      <trkpt lat="47.77603" lon="-3.56906">
        <ele>48</ele>
        <time>2018-07-14T11:16:10Z</time>
      </trkpt>
      <trkpt lat="47.77609" lon="-3.56904">
        <ele>48</ele>
        <time>2018-07-14T11:16:11Z</time>
      </trkpt>
      <trkpt lat="47.77614" lon="-3.56902">
        <ele>48</ele>
        <time>2018-07-14T11:16:12Z</time>
      </trkpt>
      <trkpt lat="47.77619" lon="-3.56901">
        <ele>48</ele>
        <time>2018-07-14T11:16:13Z</time>
      </trkpt>
      <trkpt lat="47.77623" lon="-3.569">
        <ele>49</ele>
        <time>2018-07-14T11:16:14Z</time>
      </trkpt>
      <trkpt lat="47.77626" lon="-3.56899">
        <ele>49</ele>
        <time>2018-07-14T11:16:15Z</time>
      </trkpt>
      <trkpt lat="47.77628" lon="-3.56899">
        <ele>49</ele>
        <time>2018-07-14T11:16:16Z</time>
      </trkpt>
      <trkpt lat="47.77629" lon="-3.56899">
        <ele>49</ele>
        <time>2018-07-14T11:16:17Z</time>
      </trkpt>
      <trkpt lat="47.77631" lon="-3.569">
        <ele>49</ele>
        <time>2018-07-14T11:16:18Z</time>
      </trkpt>
      <trkpt lat="47.77634" lon="-3.56903">
        <ele>49</ele>
        <time>2018-07-14T11:16:19Z</time>
      </trkpt>
      <trkpt lat="47.77635" lon="-3.56908">
        <ele>49</ele>
        <time>2018-07-14T11:16:20Z</time>
      </trkpt>
      <trkpt lat="47.77635" lon="-3.56914">
        <ele>49</ele>
        <time>2018-07-14T11:16:21Z</time>
      </trkpt>
      <trkpt lat="47.77636" lon="-3.56922">
        <ele>49</ele>
        <time>2018-07-14T11:16:22Z</time>
      </trkpt>
      <trkpt lat="47.77636" lon="-3.5693">
        <ele>48</ele>
        <time>2018-07-14T11:16:23Z</time>
      </trkpt>
      <trkpt lat="47.77636" lon="-3.56938">
        <ele>48</ele>
        <time>2018-07-14T11:16:24Z</time>
      </trkpt>
      <trkpt lat="47.77637" lon="-3.56948">
        <ele>47</ele>
        <time>2018-07-14T11:16:25Z</time>
      </trkpt>
      <trkpt lat="47.77637" lon="-3.56957">
        <ele>47</ele>
        <time>2018-07-14T11:16:26Z</time>
      </trkpt>
      <trkpt lat="47.77638" lon="-3.56968">
        <ele>46</ele>
        <time>2018-07-14T11:16:27Z</time>
      </trkpt>
      <trkpt lat="47.77639" lon="-3.56979">
        <ele>46</ele>
        <time>2018-07-14T11:16:28Z</time>
      </trkpt>
      <trkpt lat="47.7764" lon="-3.5699">
        <ele>45</ele>
        <time>2018-07-14T11:16:29Z</time>
      </trkpt>
      <trkpt lat="47.77641" lon="-3.57002">
        <ele>45</ele>
        <time>2018-07-14T11:16:30Z</time>
      </trkpt>
      <trkpt lat="47.77642" lon="-3.57015">
        <ele>44</ele>
        <time>2018-07-14T11:16:31Z</time>
      </trkpt>
      <trkpt lat="47.77642" lon="-3.57027">
        <ele>44</ele>
        <time>2018-07-14T11:16:32Z</time>
      </trkpt>
      <trkpt lat="47.77643" lon="-3.57039">
        <ele>43</ele>
        <time>2018-07-14T11:16:33Z</time>
      </trkpt>
      <trkpt lat="47.77644" lon="-3.57052">
        <ele>43</ele>
        <time>2018-07-14T11:16:34Z</time>
      </trkpt>
      <trkpt lat="47.77645" lon="-3.57064">
        <ele>43</ele>
        <time>2018-07-14T11:16:35Z</time>
      </trkpt>
      <trkpt lat="47.77647" lon="-3.57076">
        <ele>42</ele>
        <time>2018-07-14T11:16:36Z</time>
      </trkpt>
      <trkpt lat="47.77649" lon="-3.57088">
        <ele>42</ele>
        <time>2018-07-14T11:16:37Z</time>
      </trkpt>
      <trkpt lat="47.7765" lon="-3.57098">
        <ele>42</ele>
        <time>2018-07-14T11:16:38Z</time>
      </trkpt>
      <trkpt lat="47.77651" lon="-3.57108">
        <ele>41</ele>
        <time>2018-07-14T11:16:39Z</time>
      </trkpt>
      <trkpt lat="47.77652" lon="-3.57116">
        <ele>41</ele>
        <time>2018-07-14T11:16:40Z</time>
      </trkpt>
      <trkpt lat="47.77653" lon="-3.57122">
        <ele>41</ele>
        <time>2018-07-14T11:16:41Z</time>
      </trkpt>
      <trkpt lat="47.77655" lon="-3.57127">
        <ele>41</ele>
        <time>2018-07-14T11:16:42Z</time>
      </trkpt>
      <trkpt lat="47.77656" lon="-3.57131">
        <ele>41</ele>
        <time>2018-07-14T11:16:43Z</time>
      </trkpt>
      <trkpt lat="47.77656" lon="-3.57133">
        <ele>41</ele>
        <time>2018-07-14T11:16:44Z</time>
      </trkpt>
      <trkpt lat="47.77656" lon="-3.57134">
        <ele>41</ele>
        <time>2018-07-14T11:16:45Z</time>
      </trkpt>
      <trkpt lat="47.77657" lon="-3.57134">
        <ele>41</ele>
        <time>2018-07-14T11:16:46Z</time>
      </trkpt>
      <trkpt lat="47.77657" lon="-3.57134">
        <ele>41</ele>
        <time>2018-07-14T11:16:47Z</time>
      </trkpt>
      <trkpt lat="47.77656" lon="-3.57139">
        <ele>40</ele>
        <time>2018-07-14T11:16:48Z</time>
      </trkpt>
      <trkpt lat="47.77656" lon="-3.57142">
        <ele>40</ele>
        <time>2018-07-14T11:16:49Z</time>
      </trkpt>
      <trkpt lat="47.77655" lon="-3.57145">
        <ele>40</ele>
        <time>2018-07-14T11:16:50Z</time>
      </trkpt>
      <trkpt lat="47.77654" lon="-3.57148">
        <ele>41</ele>
        <time>2018-07-14T11:16:51Z</time>
      </trkpt>
      <trkpt lat="47.77655" lon="-3.57152">
        <ele>41</ele>
        <time>2018-07-14T11:16:52Z</time>
      </trkpt>
      <trkpt lat="47.77656" lon="-3.57156">
        <ele>41</ele>
        <time>2018-07-14T11:16:53Z</time>
      </trkpt>
      <trkpt lat="47.77657" lon="-3.57161">
        <ele>41</ele>
        <time>2018-07-14T11:16:54Z</time>
      </trkpt>
      <trkpt lat="47.77657" lon="-3.57166">
        <ele>41</ele>
        <time>2018-07-14T11:16:55Z</time>
      </trkpt>
      <trkpt lat="47.77658" lon="-3.57171">
        <ele>41</ele>
        <time>2018-07-14T11:16:56Z</time>
      </trkpt>
      <trkpt lat="47.77658" lon="-3.57176">
        <ele>41</ele>
        <time>2018-07-14T11:16:57Z</time>
      </trkpt>
      <trkpt lat="47.77658" lon="-3.57182">
        <ele>41</ele>
        <time>2018-07-14T11:16:58Z</time>
      </trkpt>
      <trkpt lat="47.77658" lon="-3.57188">
        <ele>41</ele>
        <time>2018-07-14T11:16:59Z</time>
      </trkpt>
      <trkpt lat="47.77658" lon="-3.57195">
        <ele>42</ele>
        <time>2018-07-14T11:17:00Z</time>
      </trkpt>
      <trkpt lat="47.77658" lon="-3.57201">
        <ele>42</ele>
        <time>2018-07-14T11:17:01Z</time>
      </trkpt>
      <trkpt lat="47.77658" lon="-3.57207">
        <ele>42</ele>
        <time>2018-07-14T11:17:02Z</time>
      </trkpt>
      <trkpt lat="47.77658" lon="-3.57214">
        <ele>42</ele>
        <time>2018-07-14T11:17:03Z</time>
      </trkpt>
      <trkpt lat="47.77657" lon="-3.5722">
        <ele>42</ele>
        <time>2018-07-14T11:17:04Z</time>
      </trkpt>
      <trkpt lat="47.77657" lon="-3.57226">
        <ele>42</ele>
        <time>2018-07-14T11:17:05Z</time>
      </trkpt>
      <trkpt lat="47.77656" lon="-3.57232">
        <ele>42</ele>
        <time>2018-07-14T11:17:06Z</time>
      </trkpt>
      <trkpt lat="47.77655" lon="-3.57239">
        <ele>43</ele>
        <time>2018-07-14T11:17:07Z</time>
      </trkpt>
      <trkpt lat="47.77653" lon="-3.57245">
        <ele>43</ele>
        <time>2018-07-14T11:17:08Z</time>
      </trkpt>
      <trkpt lat="47.77651" lon="-3.57252">
        <ele>43</ele>
        <time>2018-07-14T11:17:09Z</time>
      </trkpt>
      <trkpt lat="47.7765" lon="-3.57258">
        <ele>43</ele>
        <time>2018-07-14T11:17:10Z</time>
      </trkpt>
      <trkpt lat="47.77647" lon="-3.57265">
        <ele>43</ele>
        <time>2018-07-14T11:17:11Z</time>
      </trkpt>
      <trkpt lat="47.77645" lon="-3.57271">
        <ele>43</ele>
        <time>2018-07-14T11:17:12Z</time>
      </trkpt>
      <trkpt lat="47.77643" lon="-3.57278">
        <ele>43</ele>
        <time>2018-07-14T11:17:13Z</time>
      </trkpt>
      <trkpt lat="47.77641" lon="-3.57285">
        <ele>43</ele>
        <time>2018-07-14T11:17:14Z</time>
      </trkpt>
      <trkpt lat="47.7764" lon="-3.57292">
        <ele>43</ele>
        <time>2018-07-14T11:17:15Z</time>
      </trkpt>
      <trkpt lat="47.77638" lon="-3.573">
        <ele>43</ele>
        <time>2018-07-14T11:17:16Z</time>
      </trkpt>
      <trkpt lat="47.77637" lon="-3.57307">
        <ele>43</ele>
        <time>2018-07-14T11:17:17Z</time>
      </trkpt>
      <trkpt lat="47.77635" lon="-3.57315">
        <ele>43</ele>
        <time>2018-07-14T11:17:18Z</time>
      </trkpt>
      <trkpt lat="47.77634" lon="-3.57323">
        <ele>43</ele>
        <time>2018-07-14T11:17:19Z</time>
      </trkpt>
      <trkpt lat="47.77633" lon="-3.5733">
        <ele>43</ele>
        <time>2018-07-14T11:17:20Z</time>
      </trkpt>
      <trkpt lat="47.77633" lon="-3.57338">
        <ele>43</ele>
        <time>2018-07-14T11:17:21Z</time>
      </trkpt>
      <trkpt lat="47.77632" lon="-3.57346">
        <ele>44</ele>
        <time>2018-07-14T11:17:22Z</time>
      </trkpt>
      <trkpt lat="47.77631" lon="-3.57354">
        <ele>44</ele>
        <time>2018-07-14T11:17:23Z</time>
      </trkpt>
      <trkpt lat="47.77631" lon="-3.57362">
        <ele>44</ele>
        <time>2018-07-14T11:17:24Z</time>
      </trkpt>
      <trkpt lat="47.7763" lon="-3.5737">
        <ele>44</ele>
        <time>2018-07-14T11:17:25Z</time>
      </trkpt>
      <trkpt lat="47.7763" lon="-3.57379">
        <ele>44</ele>
        <time>2018-07-14T11:17:26Z</time>
      </trkpt>
      <trkpt lat="47.7763" lon="-3.57387">
        <ele>44</ele>
        <time>2018-07-14T11:17:27Z</time>
      </trkpt>
      <trkpt lat="47.77629" lon="-3.57396">
        <ele>44</ele>
        <time>2018-07-14T11:17:28Z</time>
      </trkpt>
      <trkpt lat="47.77629" lon="-3.57405">
        <ele>43</ele>
        <time>2018-07-14T11:17:29Z</time>
      </trkpt>
      <trkpt lat="47.77628" lon="-3.57414">
        <ele>43</ele>
        <time>2018-07-14T11:17:30Z</time>
      </trkpt>
      <trkpt lat="47.77628" lon="-3.57423">
        <ele>43</ele>
        <time>2018-07-14T11:17:31Z</time>
      </trkpt>
      <trkpt lat="47.77627" lon="-3.57432">
        <ele>43</ele>
        <time>2018-07-14T11:17:32Z</time>
      </trkpt>
      <trkpt lat="47.77626" lon="-3.57439">
        <ele>43</ele>
        <time>2018-07-14T11:17:33Z</time>
      </trkpt>
      <trkpt lat="47.77626" lon="-3.57445">
        <ele>43</ele>
        <time>2018-07-14T11:17:34Z</time>
      </trkpt>
      <trkpt lat="47.77627" lon="-3.5745">
        <ele>43</ele>
        <time>2018-07-14T11:17:35Z</time>
      </trkpt>
      <trkpt lat="47.77628" lon="-3.57451">
        <ele>43</ele>
        <time>2018-07-14T11:17:36Z</time>
      </trkpt>
      <trkpt lat="47.77631" lon="-3.5745">
        <ele>43</ele>
        <time>2018-07-14T11:17:37Z</time>
      </trkpt>
      <trkpt lat="47.77633" lon="-3.57448">
        <ele>43</ele>
        <time>2018-07-14T11:17:38Z</time>
      </trkpt>
      <trkpt lat="47.77635" lon="-3.57445">
        <ele>42</ele>
        <time>2018-07-14T11:17:39Z</time>
      </trkpt>
      <trkpt lat="47.77638" lon="-3.57442">
        <ele>42</ele>
        <time>2018-07-14T11:17:40Z</time>
      </trkpt>
      <trkpt lat="47.77641" lon="-3.5744">
        <ele>42</ele>
        <time>2018-07-14T11:17:41Z</time>
      </trkpt>
      <trkpt lat="47.77643" lon="-3.57438">
        <ele>42</ele>
        <time>2018-07-14T11:17:42Z</time>
      </trkpt>
      <trkpt lat="47.77646" lon="-3.57436">
        <ele>42</ele>
        <time>2018-07-14T11:17:43Z</time>
      </trkpt>
      <trkpt lat="47.77649" lon="-3.57435">
        <ele>42</ele>
        <time>2018-07-14T11:17:44Z</time>
      </trkpt>
      <trkpt lat="47.77652" lon="-3.57433">
        <ele>42</ele>
        <time>2018-07-14T11:17:45Z</time>
      </trkpt>
      <trkpt lat="47.77656" lon="-3.57432">
        <ele>42</ele>
        <time>2018-07-14T11:17:46Z</time>
      </trkpt>
      <trkpt lat="47.7766" lon="-3.5743">
        <ele>42</ele>
        <time>2018-07-14T11:17:47Z</time>
      </trkpt>
      <trkpt lat="47.77665" lon="-3.57428">
        <ele>41</ele>
        <time>2018-07-14T11:17:48Z</time>
      </trkpt>
      <trkpt lat="47.7767" lon="-3.57426">
        <ele>41</ele>
        <time>2018-07-14T11:17:49Z</time>
      </trkpt>
      <trkpt lat="47.77675" lon="-3.57424">
        <ele>41</ele>
        <time>2018-07-14T11:17:50Z</time>
      </trkpt>
      <trkpt lat="47.7768" lon="-3.57423">
        <ele>41</ele>
        <time>2018-07-14T11:17:51Z</time>
      </trkpt>
      <trkpt lat="47.77684" lon="-3.57423">
        <ele>41</ele>
        <time>2018-07-14T11:17:52Z</time>
      </trkpt>
      <trkpt lat="47.77688" lon="-3.57422">
        <ele>41</ele>
        <time>2018-07-14T11:17:53Z</time>
      </trkpt>
      <trkpt lat="47.77693" lon="-3.57421">
        <ele>41</ele>
        <time>2018-07-14T11:17:54Z</time>
      </trkpt>
      <trkpt lat="47.77698" lon="-3.57419">
        <ele>41</ele>
        <time>2018-07-14T11:17:55Z</time>
      </trkpt>
      <trkpt lat="47.77703" lon="-3.57417">
        <ele>41</ele>
        <time>2018-07-14T11:17:56Z</time>
      </trkpt>
      <trkpt lat="47.77708" lon="-3.57415">
        <ele>41</ele>
        <time>2018-07-14T11:17:57Z</time>
      </trkpt>
      <trkpt lat="47.77713" lon="-3.57413">
        <ele>41</ele>
        <time>2018-07-14T11:17:58Z</time>
      </trkpt>
      <trkpt lat="47.77718" lon="-3.57412">
        <ele>41</ele>
        <time>2018-07-14T11:17:59Z</time>
      </trkpt>
      <trkpt lat="47.77723" lon="-3.57409">
        <ele>42</ele>
        <time>2018-07-14T11:18:00Z</time>
      </trkpt>
      <trkpt lat="47.77728" lon="-3.57407">
        <ele>42</ele>
        <time>2018-07-14T11:18:01Z</time>
      </trkpt>
      <trkpt lat="47.77733" lon="-3.57404">
        <ele>42</ele>
        <time>2018-07-14T11:18:02Z</time>
      </trkpt>
      <trkpt lat="47.77738" lon="-3.57402">
        <ele>42</ele>
        <time>2018-07-14T11:18:03Z</time>
      </trkpt>
      <trkpt lat="47.77743" lon="-3.574">
        <ele>42</ele>
        <time>2018-07-14T11:18:04Z</time>
      </trkpt>
      <trkpt lat="47.77749" lon="-3.57398">
        <ele>42</ele>
        <time>2018-07-14T11:18:05Z</time>
      </trkpt>
      <trkpt lat="47.77754" lon="-3.57396">
        <ele>43</ele>
        <time>2018-07-14T11:18:06Z</time>
      </trkpt>
      <trkpt lat="47.77759" lon="-3.57394">
        <ele>43</ele>
        <time>2018-07-14T11:18:07Z</time>
      </trkpt>
      <trkpt lat="47.77764" lon="-3.57392">
        <ele>43</ele>
        <time>2018-07-14T11:18:08Z</time>
      </trkpt>
      <trkpt lat="47.77769" lon="-3.5739">
        <ele>43</ele>
        <time>2018-07-14T11:18:09Z</time>
      </trkpt>
      <trkpt lat="47.77774" lon="-3.57388">
        <ele>44</ele>
        <time>2018-07-14T11:18:10Z</time>
      </trkpt>
      <trkpt lat="47.77779" lon="-3.57386">
        <ele>44</ele>
        <time>2018-07-14T11:18:11Z</time>
      </trkpt>
      <trkpt lat="47.77783" lon="-3.57385">
        <ele>44</ele>
        <time>2018-07-14T11:18:12Z</time>
      </trkpt>
      <trkpt lat="47.77788" lon="-3.57385">
        <ele>44</ele>
        <time>2018-07-14T11:18:13Z</time>
      </trkpt>
      <trkpt lat="47.77792" lon="-3.57385">
        <ele>44</ele>
        <time>2018-07-14T11:18:14Z</time>
      </trkpt>
      <trkpt lat="47.77797" lon="-3.57383">
        <ele>44</ele>
        <time>2018-07-14T11:18:15Z</time>
      </trkpt>
      <trkpt lat="47.77801" lon="-3.57382">
        <ele>44</ele>
        <time>2018-07-14T11:18:16Z</time>
      </trkpt>
      <trkpt lat="47.77805" lon="-3.57381">
        <ele>45</ele>
        <time>2018-07-14T11:18:17Z</time>
      </trkpt>
      <trkpt lat="47.7781" lon="-3.5738">
        <ele>45</ele>
        <time>2018-07-14T11:18:18Z</time>
      </trkpt>
      <trkpt lat="47.77815" lon="-3.57379">
        <ele>45</ele>
        <time>2018-07-14T11:18:19Z</time>
      </trkpt>
      <trkpt lat="47.77819" lon="-3.57377">
        <ele>45</ele>
        <time>2018-07-14T11:18:20Z</time>
      </trkpt>
      <trkpt lat="47.77825" lon="-3.57375">
        <ele>45</ele>
        <time>2018-07-14T11:18:21Z</time>
      </trkpt>
      <trkpt lat="47.77829" lon="-3.57373">
        <ele>45</ele>
        <time>2018-07-14T11:18:22Z</time>
      </trkpt>
      <trkpt lat="47.77834" lon="-3.57371">
        <ele>45</ele>
        <time>2018-07-14T11:18:23Z</time>
      </trkpt>
      <trkpt lat="47.77839" lon="-3.5737">
        <ele>46</ele>
        <time>2018-07-14T11:18:24Z</time>
      </trkpt>
      <trkpt lat="47.77843" lon="-3.5737">
        <ele>46</ele>
        <time>2018-07-14T11:18:25Z</time>
      </trkpt>
      <trkpt lat="47.77848" lon="-3.5737">
        <ele>46</ele>
        <time>2018-07-14T11:18:26Z</time>
      </trkpt>
      <trkpt lat="47.77853" lon="-3.57369">
        <ele>46</ele>
        <time>2018-07-14T11:18:27Z</time>
      </trkpt>
      <trkpt lat="47.77857" lon="-3.57368">
        <ele>46</ele>
        <time>2018-07-14T11:18:28Z</time>
      </trkpt>
      <trkpt lat="47.77862" lon="-3.57367">
        <ele>47</ele>
        <time>2018-07-14T11:18:29Z</time>
      </trkpt>
      <trkpt lat="47.77867" lon="-3.57366">
        <ele>47</ele>
        <time>2018-07-14T11:18:30Z</time>
      </trkpt>
      <trkpt lat="47.77872" lon="-3.57365">
        <ele>47</ele>
        <time>2018-07-14T11:18:31Z</time>
      </trkpt>
      <trkpt lat="47.77877" lon="-3.57364">
        <ele>47</ele>
        <time>2018-07-14T11:18:32Z</time>
      </trkpt>
      <trkpt lat="47.77882" lon="-3.57363">
        <ele>47</ele>
        <time>2018-07-14T11:18:33Z</time>
      </trkpt>
      <trkpt lat="47.77888" lon="-3.57362">
        <ele>47</ele>
        <time>2018-07-14T11:18:34Z</time>
      </trkpt>
      <trkpt lat="47.77894" lon="-3.57361">
        <ele>47</ele>
        <time>2018-07-14T11:18:35Z</time>
      </trkpt>
      <trkpt lat="47.77899" lon="-3.5736">
        <ele>47</ele>
        <time>2018-07-14T11:18:36Z</time>
      </trkpt>
      <trkpt lat="47.77903" lon="-3.5736">
        <ele>48</ele>
        <time>2018-07-14T11:18:37Z</time>
      </trkpt>
      <trkpt lat="47.77908" lon="-3.5736">
        <ele>48</ele>
        <time>2018-07-14T11:18:38Z</time>
      </trkpt>
      <trkpt lat="47.77913" lon="-3.5736">
        <ele>48</ele>
        <time>2018-07-14T11:18:39Z</time>
      </trkpt>
      <trkpt lat="47.77917" lon="-3.57359">
        <ele>48</ele>
        <time>2018-07-14T11:18:40Z</time>
      </trkpt>
      <trkpt lat="47.77922" lon="-3.57359">
        <ele>48</ele>
        <time>2018-07-14T11:18:41Z</time>
      </trkpt>
      <trkpt lat="47.77927" lon="-3.57359">
        <ele>48</ele>
        <time>2018-07-14T11:18:42Z</time>
      </trkpt>
      <trkpt lat="47.77932" lon="-3.57358">
        <ele>48</ele>
        <time>2018-07-14T11:18:43Z</time>
      </trkpt>
      <trkpt lat="47.77938" lon="-3.57357">
        <ele>48</ele>
        <time>2018-07-14T11:18:44Z</time>
      </trkpt>
      <trkpt lat="47.77944" lon="-3.57357">
        <ele>49</ele>
        <time>2018-07-14T11:18:45Z</time>
      </trkpt>
      <trkpt lat="47.77949" lon="-3.57357">
        <ele>49</ele>
        <time>2018-07-14T11:18:46Z</time>
      </trkpt>
      <trkpt lat="47.77954" lon="-3.57357">
        <ele>49</ele>
        <time>2018-07-14T11:18:47Z</time>
      </trkpt>
      <trkpt lat="47.7796" lon="-3.57357">
        <ele>49</ele>
        <time>2018-07-14T11:18:48Z</time>
      </trkpt>
      <trkpt lat="47.77965" lon="-3.57357">
        <ele>49</ele>
        <time>2018-07-14T11:18:49Z</time>
      </trkpt>
      <trkpt lat="47.77971" lon="-3.57357">
        <ele>49</ele>
        <time>2018-07-14T11:18:50Z</time>
      </trkpt>
      <trkpt lat="47.77976" lon="-3.57356">
        <ele>49</ele>
        <time>2018-07-14T11:18:51Z</time>
      </trkpt>
      <trkpt lat="47.77982" lon="-3.57355">
        <ele>49</ele>
        <time>2018-07-14T11:18:52Z</time>
      </trkpt>
      <trkpt lat="47.77989" lon="-3.57355">
        <ele>49</ele>
        <time>2018-07-14T11:18:53Z</time>
      </trkpt>
      <trkpt lat="47.77995" lon="-3.57355">
        <ele>49</ele>
        <time>2018-07-14T11:18:54Z</time>
      </trkpt>
      <trkpt lat="47.78001" lon="-3.57356">
        <ele>49</ele>
        <time>2018-07-14T11:18:55Z</time>
      </trkpt>
      <trkpt lat="47.78006" lon="-3.57359">
        <ele>49</ele>
        <time>2018-07-14T11:18:56Z</time>
      </trkpt>
      <trkpt lat="47.78011" lon="-3.57364">
        <ele>49</ele>
        <time>2018-07-14T11:18:57Z</time>
      </trkpt>
      <trkpt lat="47.78014" lon="-3.57371">
        <ele>50</ele>
        <time>2018-07-14T11:18:58Z</time>
      </trkpt>
      <trkpt lat="47.78016" lon="-3.57378">
        <ele>50</ele>
        <time>2018-07-14T11:18:59Z</time>
      </trkpt>
      <trkpt lat="47.78018" lon="-3.57385">
        <ele>50</ele>
        <time>2018-07-14T11:19:00Z</time>
      </trkpt>
      <trkpt lat="47.7802" lon="-3.57391">
        <ele>50</ele>
        <time>2018-07-14T11:19:01Z</time>
      </trkpt>
      <trkpt lat="47.78021" lon="-3.57397">
        <ele>50</ele>
        <time>2018-07-14T11:19:02Z</time>
      </trkpt>
      <trkpt lat="47.78022" lon="-3.57403">
        <ele>50</ele>
        <time>2018-07-14T11:19:03Z</time>
      </trkpt>
      <trkpt lat="47.78024" lon="-3.57408">
        <ele>51</ele>
        <time>2018-07-14T11:19:04Z</time>
      </trkpt>
      <trkpt lat="47.78026" lon="-3.57413">
        <ele>51</ele>
        <time>2018-07-14T11:19:05Z</time>
      </trkpt>
      <trkpt lat="47.78028" lon="-3.57418">
        <ele>51</ele>
        <time>2018-07-14T11:19:06Z</time>
      </trkpt>
      <trkpt lat="47.78031" lon="-3.57422">
        <ele>51</ele>
        <time>2018-07-14T11:19:07Z</time>
      </trkpt>
      <trkpt lat="47.78034" lon="-3.57426">
        <ele>51</ele>
        <time>2018-07-14T11:19:08Z</time>
      </trkpt>
      <trkpt lat="47.78037" lon="-3.57431">
        <ele>51</ele>
        <time>2018-07-14T11:19:09Z</time>
      </trkpt>
      <trkpt lat="47.78039" lon="-3.57435">
        <ele>51</ele>
        <time>2018-07-14T11:19:10Z</time>
      </trkpt>
      <trkpt lat="47.78042" lon="-3.57439">
        <ele>51</ele>
        <time>2018-07-14T11:19:11Z</time>
      </trkpt>
      <trkpt lat="47.78046" lon="-3.57444">
        <ele>51</ele>
        <time>2018-07-14T11:19:12Z</time>
      </trkpt>
      <trkpt lat="47.7805" lon="-3.57447">
        <ele>51</ele>
        <time>2018-07-14T11:19:13Z</time>
      </trkpt>
      <trkpt lat="47.78053" lon="-3.57452">
        <ele>51</ele>
        <time>2018-07-14T11:19:14Z</time>
      </trkpt>
      <trkpt lat="47.78054" lon="-3.57457">
        <ele>50</ele>
        <time>2018-07-14T11:19:15Z</time>
      </trkpt>
      <trkpt lat="47.78056" lon="-3.57461">
        <ele>50</ele>
        <time>2018-07-14T11:19:16Z</time>
      </trkpt>
      <trkpt lat="47.78056" lon="-3.57467">
        <ele>50</ele>
        <time>2018-07-14T11:19:17Z</time>
      </trkpt>
      <trkpt lat="47.78056" lon="-3.57473">
        <ele>50</ele>
        <time>2018-07-14T11:19:18Z</time>
      </trkpt>
      <trkpt lat="47.78057" lon="-3.57478">
        <ele>50</ele>
        <time>2018-07-14T11:19:19Z</time>
      </trkpt>
      <trkpt lat="47.78059" lon="-3.57482">
        <ele>50</ele>
        <time>2018-07-14T11:19:20Z</time>
      </trkpt>
      <trkpt lat="47.78061" lon="-3.57485">
        <ele>49</ele>
        <time>2018-07-14T11:19:21Z</time>
      </trkpt>
      <trkpt lat="47.78064" lon="-3.57489">
        <ele>49</ele>
        <time>2018-07-14T11:19:22Z</time>
      </trkpt>
      <trkpt lat="47.78068" lon="-3.57492">
        <ele>49</ele>
        <time>2018-07-14T11:19:23Z</time>
      </trkpt>
      <trkpt lat="47.78071" lon="-3.57496">
        <ele>49</ele>
        <time>2018-07-14T11:19:24Z</time>
      </trkpt>
      <trkpt lat="47.78075" lon="-3.575">
        <ele>49</ele>
        <time>2018-07-14T11:19:25Z</time>
      </trkpt>
      <trkpt lat="47.78078" lon="-3.57503">
        <ele>49</ele>
        <time>2018-07-14T11:19:26Z</time>
      </trkpt>
      <trkpt lat="47.78081" lon="-3.57506">
        <ele>48</ele>
        <time>2018-07-14T11:19:27Z</time>
      </trkpt>
      <trkpt lat="47.78085" lon="-3.57509">
        <ele>48</ele>
        <time>2018-07-14T11:19:28Z</time>
      </trkpt>
      <trkpt lat="47.78088" lon="-3.57513">
        <ele>48</ele>
        <time>2018-07-14T11:19:29Z</time>
      </trkpt>
      <trkpt lat="47.78092" lon="-3.57516">
        <ele>48</ele>
        <time>2018-07-14T11:19:30Z</time>
      </trkpt>
      <trkpt lat="47.78095" lon="-3.5752">
        <ele>48</ele>
        <time>2018-07-14T11:19:31Z</time>
      </trkpt>
      <trkpt lat="47.78099" lon="-3.57523">
        <ele>48</ele>
        <time>2018-07-14T11:19:32Z</time>
      </trkpt>
      <trkpt lat="47.78102" lon="-3.57526">
        <ele>48</ele>
        <time>2018-07-14T11:19:33Z</time>
      </trkpt>
      <trkpt lat="47.78106" lon="-3.57529">
        <ele>48</ele>
        <time>2018-07-14T11:19:34Z</time>
      </trkpt>
      <trkpt lat="47.78109" lon="-3.57533">
        <ele>48</ele>
        <time>2018-07-14T11:19:35Z</time>
      </trkpt>
      <trkpt lat="47.78112" lon="-3.57539">
        <ele>47</ele>
        <time>2018-07-14T11:19:36Z</time>
      </trkpt>
      <trkpt lat="47.78114" lon="-3.57545">
        <ele>47</ele>
        <time>2018-07-14T11:19:37Z</time>
      </trkpt>
      <trkpt lat="47.78115" lon="-3.57552">
        <ele>47</ele>
        <time>2018-07-14T11:19:38Z</time>
      </trkpt>
      <trkpt lat="47.78116" lon="-3.5756">
        <ele>47</ele>
        <time>2018-07-14T11:19:39Z</time>
      </trkpt>
      <trkpt lat="47.78116" lon="-3.57567">
        <ele>47</ele>
        <time>2018-07-14T11:19:40Z</time>
      </trkpt>
      <trkpt lat="47.78116" lon="-3.57574">
        <ele>47</ele>
        <time>2018-07-14T11:19:41Z</time>
      </trkpt>
      <trkpt lat="47.78117" lon="-3.57582">
        <ele>47</ele>
        <time>2018-07-14T11:19:42Z</time>
      </trkpt>
      <trkpt lat="47.78117" lon="-3.57589">
        <ele>47</ele>
        <time>2018-07-14T11:19:43Z</time>
      </trkpt>
      <trkpt lat="47.78118" lon="-3.57596">
        <ele>47</ele>
        <time>2018-07-14T11:19:44Z</time>
      </trkpt>
      <trkpt lat="47.78118" lon="-3.57603">
        <ele>48</ele>
        <time>2018-07-14T11:19:45Z</time>
      </trkpt>
      <trkpt lat="47.78119" lon="-3.57611">
        <ele>48</ele>
        <time>2018-07-14T11:19:46Z</time>
      </trkpt>
      <trkpt lat="47.7812" lon="-3.57619">
        <ele>48</ele>
        <time>2018-07-14T11:19:47Z</time>
      </trkpt>
      <trkpt lat="47.7812" lon="-3.57627">
        <ele>48</ele>
        <time>2018-07-14T11:19:48Z</time>
      </trkpt>
      <trkpt lat="47.78121" lon="-3.57635">
        <ele>48</ele>
        <time>2018-07-14T11:19:49Z</time>
      </trkpt>
      <trkpt lat="47.78122" lon="-3.57642">
        <ele>48</ele>
        <time>2018-07-14T11:19:50Z</time>
      </trkpt>
      <trkpt lat="47.78124" lon="-3.57649">
        <ele>48</ele>
        <time>2018-07-14T11:19:51Z</time>
      </trkpt>
      <trkpt lat="47.78126" lon="-3.57657">
        <ele>48</ele>
        <time>2018-07-14T11:19:52Z</time>
      </trkpt>
      <trkpt lat="47.78127" lon="-3.57664">
        <ele>48</ele>
        <time>2018-07-14T11:19:53Z</time>
      </trkpt>
      <trkpt lat="47.78129" lon="-3.57671">
        <ele>48</ele>
        <time>2018-07-14T11:19:54Z</time>
      </trkpt>
      <trkpt lat="47.7813" lon="-3.57678">
        <ele>48</ele>
        <time>2018-07-14T11:19:55Z</time>
      </trkpt>
      <trkpt lat="47.78131" lon="-3.57686">
        <ele>48</ele>
        <time>2018-07-14T11:19:56Z</time>
      </trkpt>
      <trkpt lat="47.78131" lon="-3.57694">
        <ele>48</ele>
        <time>2018-07-14T11:19:57Z</time>
      </trkpt>
      <trkpt lat="47.78131" lon="-3.57701">
        <ele>48</ele>
        <time>2018-07-14T11:19:58Z</time>
      </trkpt>
      <trkpt lat="47.78131" lon="-3.57708">
        <ele>48</ele>
        <time>2018-07-14T11:19:59Z</time>
      </trkpt>
      <trkpt lat="47.7813" lon="-3.57717">
        <ele>48</ele>
        <time>2018-07-14T11:20:00Z</time>
      </trkpt>
      <trkpt lat="47.7813" lon="-3.57725">
        <ele>48</ele>
        <time>2018-07-14T11:20:01Z</time>
      </trkpt>
      <trkpt lat="47.78128" lon="-3.57732">
        <ele>48</ele>
        <time>2018-07-14T11:20:02Z</time>
      </trkpt>
      <trkpt lat="47.78128" lon="-3.5774">
        <ele>48</ele>
        <time>2018-07-14T11:20:03Z</time>
      </trkpt>
      <trkpt lat="47.78128" lon="-3.57746">
        <ele>48</ele>
        <time>2018-07-14T11:20:04Z</time>
      </trkpt>
      <trkpt lat="47.78129" lon="-3.57753">
        <ele>48</ele>
        <time>2018-07-14T11:20:05Z</time>
      </trkpt>
      <trkpt lat="47.7813" lon="-3.57759">
        <ele>48</ele>
        <time>2018-07-14T11:20:06Z</time>
      </trkpt>
      <trkpt lat="47.78132" lon="-3.57766">
        <ele>49</ele>
        <time>2018-07-14T11:20:07Z</time>
      </trkpt>
      <trkpt lat="47.78132" lon="-3.57772">
        <ele>49</ele>
        <time>2018-07-14T11:20:08Z</time>
      </trkpt>
      <trkpt lat="47.78131" lon="-3.57778">
        <ele>49</ele>
        <time>2018-07-14T11:20:09Z</time>
      </trkpt>
      <trkpt lat="47.78131" lon="-3.57783">
        <ele>49</ele>
        <time>2018-07-14T11:20:10Z</time>
      </trkpt>
      <trkpt lat="47.7813" lon="-3.57788">
        <ele>49</ele>
        <time>2018-07-14T11:20:11Z</time>
      </trkpt>
      <trkpt lat="47.7813" lon="-3.57792">
        <ele>49</ele>
        <time>2018-07-14T11:20:12Z</time>
      </trkpt>
      <trkpt lat="47.7813" lon="-3.57797">
        <ele>49</ele>
        <time>2018-07-14T11:20:13Z</time>
      </trkpt>
      <trkpt lat="47.78129" lon="-3.57803">
        <ele>49</ele>
        <time>2018-07-14T11:20:14Z</time>
      </trkpt>
      <trkpt lat="47.78129" lon="-3.57807">
        <ele>49</ele>
        <time>2018-07-14T11:20:15Z</time>
      </trkpt>
      <trkpt lat="47.78129" lon="-3.57812">
        <ele>49</ele>
        <time>2018-07-14T11:20:16Z</time>
      </trkpt>
      <trkpt lat="47.7813" lon="-3.57818">
        <ele>49</ele>
        <time>2018-07-14T11:20:17Z</time>
      </trkpt>
      <trkpt lat="47.78131" lon="-3.57821">
        <ele>49</ele>
        <time>2018-07-14T11:20:18Z</time>
      </trkpt>
      <trkpt lat="47.78134" lon="-3.57822">
        <ele>48</ele>
        <time>2018-07-14T11:20:19Z</time>
      </trkpt>
      <trkpt lat="47.78136" lon="-3.57822">
        <ele>48</ele>
        <time>2018-07-14T11:20:20Z</time>
      </trkpt>
      <trkpt lat="47.78139" lon="-3.57823">
        <ele>48</ele>
        <time>2018-07-14T11:20:21Z</time>
      </trkpt>
      <trkpt lat="47.78143" lon="-3.57823">
        <ele>48</ele>
        <time>2018-07-14T11:20:22Z</time>
      </trkpt>
      <trkpt lat="47.78147" lon="-3.57824">
        <ele>48</ele>
        <time>2018-07-14T11:20:23Z</time>
      </trkpt>
      <trkpt lat="47.78151" lon="-3.57825">
        <ele>48</ele>
        <time>2018-07-14T11:20:24Z</time>
      </trkpt>
      <trkpt lat="47.78156" lon="-3.57827">
        <ele>48</ele>
        <time>2018-07-14T11:20:25Z</time>
      </trkpt>
      <trkpt lat="47.7816" lon="-3.57829">
        <ele>48</ele>
        <time>2018-07-14T11:20:26Z</time>
      </trkpt>
      <trkpt lat="47.78165" lon="-3.57831">
        <ele>48</ele>
        <time>2018-07-14T11:20:27Z</time>
      </trkpt>
      <trkpt lat="47.7817" lon="-3.57832">
        <ele>48</ele>
        <time>2018-07-14T11:20:28Z</time>
      </trkpt>
      <trkpt lat="47.78174" lon="-3.57833">
        <ele>48</ele>
        <time>2018-07-14T11:20:29Z</time>
      </trkpt>
      <trkpt lat="47.78179" lon="-3.57835">
        <ele>48</ele>
        <time>2018-07-14T11:20:30Z</time>
      </trkpt>
      <trkpt lat="47.78185" lon="-3.57838">
        <ele>48</ele>
        <time>2018-07-14T11:20:31Z</time>
      </trkpt>
      <trkpt lat="47.7819" lon="-3.57841">
        <ele>49</ele>
        <time>2018-07-14T11:20:32Z</time>
      </trkpt>
      <trkpt lat="47.78195" lon="-3.57843">
        <ele>49</ele>
        <time>2018-07-14T11:20:33Z</time>
      </trkpt>
      <trkpt lat="47.782" lon="-3.57846">
        <ele>49</ele>
        <time>2018-07-14T11:20:34Z</time>
      </trkpt>
      <trkpt lat="47.78205" lon="-3.57849">
        <ele>49</ele>
        <time>2018-07-14T11:20:35Z</time>
      </trkpt>
      <trkpt lat="47.78208" lon="-3.57854">
        <ele>49</ele>
        <time>2018-07-14T11:20:36Z</time>
      </trkpt>
      <trkpt lat="47.78209" lon="-3.57858">
        <ele>49</ele>
        <time>2018-07-14T11:20:37Z</time>
      </trkpt>
      <trkpt lat="47.78209" lon="-3.57862">
        <ele>49</ele>
        <time>2018-07-14T11:20:38Z</time>
      </trkpt>
      <trkpt lat="47.78208" lon="-3.57867">
        <ele>50</ele>
        <time>2018-07-14T11:20:39Z</time>
      </trkpt>
      <trkpt lat="47.78207" lon="-3.57872">
        <ele>50</ele>
        <time>2018-07-14T11:20:40Z</time>
      </trkpt>
      <trkpt lat="47.78207" lon="-3.57878">
        <ele>50</ele>
        <time>2018-07-14T11:20:41Z</time>
      </trkpt>
      <trkpt lat="47.78206" lon="-3.57885">
        <ele>50</ele>
        <time>2018-07-14T11:20:42Z</time>
      </trkpt>
      <trkpt lat="47.78205" lon="-3.57894">
        <ele>50</ele>
        <time>2018-07-14T11:20:43Z</time>
      </trkpt>
      <trkpt lat="47.78203" lon="-3.57901">
        <ele>50</ele>
        <time>2018-07-14T11:20:44Z</time>
      </trkpt>
      <trkpt lat="47.78202" lon="-3.57908">
        <ele>50</ele>
        <time>2018-07-14T11:20:45Z</time>
      </trkpt>
      <trkpt lat="47.78201" lon="-3.57915">
        <ele>50</ele>
        <time>2018-07-14T11:20:46Z</time>
      </trkpt>
      <trkpt lat="47.782" lon="-3.57923">
        <ele>51</ele>
        <time>2018-07-14T11:20:47Z</time>
      </trkpt>
      <trkpt lat="47.78199" lon="-3.57929">
        <ele>51</ele>
        <time>2018-07-14T11:20:48Z</time>
      </trkpt>
      <trkpt lat="47.78198" lon="-3.57936">
        <ele>51</ele>
        <time>2018-07-14T11:20:49Z</time>
      </trkpt>
      <trkpt lat="47.78199" lon="-3.57941">
        <ele>51</ele>
        <time>2018-07-14T11:20:50Z</time>
      </trkpt>
      <trkpt lat="47.78202" lon="-3.57944">
        <ele>51</ele>
        <time>2018-07-14T11:20:51Z</time>
      </trkpt>
      <trkpt lat="47.78204" lon="-3.57947">
        <ele>51</ele>
        <time>2018-07-14T11:20:52Z</time>
      </trkpt>
      <trkpt lat="47.78208" lon="-3.57949">
        <ele>52</ele>
        <time>2018-07-14T11:20:53Z</time>
      </trkpt>
      <trkpt lat="47.78212" lon="-3.57951">
        <ele>52</ele>
        <time>2018-07-14T11:20:54Z</time>
      </trkpt>
      <trkpt lat="47.78215" lon="-3.57954">
        <ele>52</ele>
        <time>2018-07-14T11:20:55Z</time>
      </trkpt>
      <trkpt lat="47.78219" lon="-3.57956">
        <ele>52</ele>
        <time>2018-07-14T11:20:56Z</time>
      </trkpt>
      <trkpt lat="47.78222" lon="-3.57958">
        <ele>52</ele>
        <time>2018-07-14T11:20:57Z</time>
      </trkpt>
      <trkpt lat="47.78226" lon="-3.5796">
        <ele>52</ele>
        <time>2018-07-14T11:20:58Z</time>
      </trkpt>
      <trkpt lat="47.7823" lon="-3.57962">
        <ele>52</ele>
        <time>2018-07-14T11:20:59Z</time>
      </trkpt>
      <trkpt lat="47.78233" lon="-3.57964">
        <ele>52</ele>
        <time>2018-07-14T11:21:00Z</time>
      </trkpt>
      <trkpt lat="47.78235" lon="-3.57965">
        <ele>52</ele>
        <time>2018-07-14T11:21:01Z</time>
      </trkpt>
      <trkpt lat="47.78235" lon="-3.57966">
        <ele>52</ele>
        <time>2018-07-14T11:21:02Z</time>
      </trkpt>
      <trkpt lat="47.78236" lon="-3.57966">
        <ele>53</ele>
        <time>2018-07-14T11:21:03Z</time>
      </trkpt>
      <trkpt lat="47.78236" lon="-3.57966">
        <ele>53</ele>
        <time>2018-07-14T11:21:04Z</time>
      </trkpt>
      <trkpt lat="47.78236" lon="-3.57967">
        <ele>53</ele>
        <time>2018-07-14T11:21:05Z</time>
      </trkpt>
      <trkpt lat="47.78238" lon="-3.5797">
        <ele>53</ele>
        <time>2018-07-14T11:21:06Z</time>
      </trkpt>
      <trkpt lat="47.78238" lon="-3.57972">
        <ele>53</ele>
        <time>2018-07-14T11:21:07Z</time>
      </trkpt>
      <trkpt lat="47.78239" lon="-3.57975">
        <ele>53</ele>
        <time>2018-07-14T11:21:08Z</time>
      </trkpt>
      <trkpt lat="47.7824" lon="-3.57978">
        <ele>53</ele>
        <time>2018-07-14T11:21:09Z</time>
      </trkpt>
      <trkpt lat="47.78241" lon="-3.57982">
        <ele>53</ele>
        <time>2018-07-14T11:21:10Z</time>
      </trkpt>
      <trkpt lat="47.78242" lon="-3.57985">
        <ele>53</ele>
        <time>2018-07-14T11:21:11Z</time>
      </trkpt>
      <trkpt lat="47.78243" lon="-3.57987">
        <ele>54</ele>
        <time>2018-07-14T11:21:12Z</time>
      </trkpt>
      <trkpt lat="47.78245" lon="-3.5799">
        <ele>54</ele>
        <time>2018-07-14T11:21:13Z</time>
      </trkpt>
      <trkpt lat="47.78248" lon="-3.57992">
        <ele>54</ele>
        <time>2018-07-14T11:21:14Z</time>
      </trkpt>
      <trkpt lat="47.78251" lon="-3.57995">
        <ele>54</ele>
        <time>2018-07-14T11:21:15Z</time>
      </trkpt>
      <trkpt lat="47.78254" lon="-3.57998">
        <ele>54</ele>
        <time>2018-07-14T11:21:16Z</time>
      </trkpt>
      <trkpt lat="47.78257" lon="-3.58001">
        <ele>54</ele>
        <time>2018-07-14T11:21:17Z</time>
      </trkpt>
      <trkpt lat="47.7826" lon="-3.58005">
        <ele>54</ele>
        <time>2018-07-14T11:21:18Z</time>
      </trkpt>
      <trkpt lat="47.78264" lon="-3.58008">
        <ele>54</ele>
        <time>2018-07-14T11:21:19Z</time>
      </trkpt>
      <trkpt lat="47.78267" lon="-3.58011">
        <ele>54</ele>
        <time>2018-07-14T11:21:20Z</time>
      </trkpt>
      <trkpt lat="47.78271" lon="-3.58014">
        <ele>54</ele>
        <time>2018-07-14T11:21:21Z</time>
      </trkpt>
      <trkpt lat="47.78274" lon="-3.58018">
        <ele>55</ele>
        <time>2018-07-14T11:21:22Z</time>
      </trkpt>
      <trkpt lat="47.78278" lon="-3.58022">
        <ele>55</ele>
        <time>2018-07-14T11:21:23Z</time>
      </trkpt>
      <trkpt lat="47.78281" lon="-3.58025">
        <ele>55</ele>
        <time>2018-07-14T11:21:24Z</time>
      </trkpt>
      <trkpt lat="47.78285" lon="-3.58029">
        <ele>55</ele>
        <time>2018-07-14T11:21:25Z</time>
      </trkpt>
      <trkpt lat="47.78289" lon="-3.58032">
        <ele>55</ele>
        <time>2018-07-14T11:21:26Z</time>
      </trkpt>
      <trkpt lat="47.78293" lon="-3.58036">
        <ele>56</ele>
        <time>2018-07-14T11:21:27Z</time>
      </trkpt>
      <trkpt lat="47.78297" lon="-3.5804">
        <ele>56</ele>
        <time>2018-07-14T11:21:28Z</time>
      </trkpt>
      <trkpt lat="47.78301" lon="-3.58043">
        <ele>56</ele>
        <time>2018-07-14T11:21:29Z</time>
      </trkpt>
      <trkpt lat="47.78304" lon="-3.58047">
        <ele>56</ele>
        <time>2018-07-14T11:21:30Z</time>
      </trkpt>
      <trkpt lat="47.78308" lon="-3.5805">
        <ele>57</ele>
        <time>2018-07-14T11:21:31Z</time>
      </trkpt>
      <trkpt lat="47.78312" lon="-3.58054">
        <ele>57</ele>
        <time>2018-07-14T11:21:32Z</time>
      </trkpt>
      <trkpt lat="47.78316" lon="-3.58058">
        <ele>57</ele>
        <time>2018-07-14T11:21:33Z</time>
      </trkpt>
      <trkpt lat="47.78319" lon="-3.58061">
        <ele>57</ele>
        <time>2018-07-14T11:21:34Z</time>
      </trkpt>
      <trkpt lat="47.78322" lon="-3.58065">
        <ele>57</ele>
        <time>2018-07-14T11:21:35Z</time>
      </trkpt>
      <trkpt lat="47.78326" lon="-3.58069">
        <ele>58</ele>
        <time>2018-07-14T11:21:36Z</time>
      </trkpt>
      <trkpt lat="47.7833" lon="-3.58072">
        <ele>58</ele>
        <time>2018-07-14T11:21:37Z</time>
      </trkpt>
      <trkpt lat="47.78334" lon="-3.58076">
        <ele>58</ele>
        <time>2018-07-14T11:21:38Z</time>
      </trkpt>
      <trkpt lat="47.78338" lon="-3.5808">
        <ele>58</ele>
        <time>2018-07-14T11:21:39Z</time>
      </trkpt>
      <trkpt lat="47.78341" lon="-3.58084">
        <ele>58</ele>
        <time>2018-07-14T11:21:40Z</time>
      </trkpt>
      <trkpt lat="47.78345" lon="-3.58087">
        <ele>58</ele>
        <time>2018-07-14T11:21:41Z</time>
      </trkpt>
      <trkpt lat="47.78349" lon="-3.58091">
        <ele>59</ele>
        <time>2018-07-14T11:21:42Z</time>
      </trkpt>
      <trkpt lat="47.78353" lon="-3.58095">
        <ele>59</ele>
        <time>2018-07-14T11:21:43Z</time>
      </trkpt>
      <trkpt lat="47.78356" lon="-3.58098">
        <ele>59</ele>
        <time>2018-07-14T11:21:44Z</time>
      </trkpt>
      <trkpt lat="47.7836" lon="-3.58102">
        <ele>59</ele>
        <time>2018-07-14T11:21:45Z</time>
      </trkpt>
      <trkpt lat="47.78363" lon="-3.58106">
        <ele>59</ele>
        <time>2018-07-14T11:21:46Z</time>
      </trkpt>
      <trkpt lat="47.78366" lon="-3.5811">
        <ele>59</ele>
        <time>2018-07-14T11:21:47Z</time>
      </trkpt>
      <trkpt lat="47.78368" lon="-3.58116">
        <ele>59</ele>
        <time>2018-07-14T11:21:48Z</time>
      </trkpt>
      <trkpt lat="47.78369" lon="-3.58122">
        <ele>59</ele>
        <time>2018-07-14T11:21:49Z</time>
      </trkpt>
      <trkpt lat="47.78369" lon="-3.58129">
        <ele>59</ele>
        <time>2018-07-14T11:21:50Z</time>
      </trkpt>
      <trkpt lat="47.78369" lon="-3.58137">
        <ele>59</ele>
        <time>2018-07-14T11:21:51Z</time>
      </trkpt>
      <trkpt lat="47.78368" lon="-3.58144">
        <ele>59</ele>
        <time>2018-07-14T11:21:52Z</time>
      </trkpt>
      <trkpt lat="47.78368" lon="-3.58152">
        <ele>59</ele>
        <time>2018-07-14T11:21:53Z</time>
      </trkpt>
      <trkpt lat="47.78368" lon="-3.58159">
        <ele>59</ele>
        <time>2018-07-14T11:21:54Z</time>
      </trkpt>
      <trkpt lat="47.7837" lon="-3.58166">
        <ele>59</ele>
        <time>2018-07-14T11:21:55Z</time>
      </trkpt>
      <trkpt lat="47.78373" lon="-3.58171">
        <ele>59</ele>
        <time>2018-07-14T11:21:56Z</time>
      </trkpt>
      <trkpt lat="47.78376" lon="-3.58174">
        <ele>59</ele>
        <time>2018-07-14T11:21:57Z</time>
      </trkpt>
      <trkpt lat="47.7838" lon="-3.58174">
        <ele>59</ele>
        <time>2018-07-14T11:21:58Z</time>
      </trkpt>
      <trkpt lat="47.78384" lon="-3.58173">
        <ele>59</ele>
        <time>2018-07-14T11:21:59Z</time>
      </trkpt>
      <trkpt lat="47.78388" lon="-3.58173">
        <ele>59</ele>
        <time>2018-07-14T11:22:00Z</time>
      </trkpt>
      <trkpt lat="47.78392" lon="-3.58172">
        <ele>59</ele>
        <time>2018-07-14T11:22:01Z</time>
      </trkpt>
      <trkpt lat="47.78396" lon="-3.58171">
        <ele>59</ele>
        <time>2018-07-14T11:22:02Z</time>
      </trkpt>
      <trkpt lat="47.78401" lon="-3.5817">
        <ele>59</ele>
        <time>2018-07-14T11:22:03Z</time>
      </trkpt>
      <trkpt lat="47.78406" lon="-3.58169">
        <ele>59</ele>
        <time>2018-07-14T11:22:04Z</time>
      </trkpt>
      <trkpt lat="47.7841" lon="-3.58168">
        <ele>60</ele>
        <time>2018-07-14T11:22:05Z</time>
      </trkpt>
      <trkpt lat="47.78414" lon="-3.58168">
        <ele>60</ele>
        <time>2018-07-14T11:22:06Z</time>
      </trkpt>
      <trkpt lat="47.78419" lon="-3.58167">
        <ele>60</ele>
        <time>2018-07-14T11:22:07Z</time>
      </trkpt>
      <trkpt lat="47.78422" lon="-3.58166">
        <ele>60</ele>
        <time>2018-07-14T11:22:08Z</time>
      </trkpt>
      <trkpt lat="47.78427" lon="-3.58165">
        <ele>60</ele>
        <time>2018-07-14T11:22:09Z</time>
      </trkpt>
      <trkpt lat="47.78431" lon="-3.58165">
        <ele>60</ele>
        <time>2018-07-14T11:22:10Z</time>
      </trkpt>
      <trkpt lat="47.78436" lon="-3.58165">
        <ele>60</ele>
        <time>2018-07-14T11:22:11Z</time>
      </trkpt>
      <trkpt lat="47.78441" lon="-3.58165">
        <ele>60</ele>
        <time>2018-07-14T11:22:12Z</time>
      </trkpt>
      <trkpt lat="47.78445" lon="-3.58165">
        <ele>60</ele>
        <time>2018-07-14T11:22:13Z</time>
      </trkpt>
      <trkpt lat="47.7845" lon="-3.58164">
        <ele>60</ele>
        <time>2018-07-14T11:22:14Z</time>
      </trkpt>
      <trkpt lat="47.78455" lon="-3.58164">
        <ele>61</ele>
        <time>2018-07-14T11:22:15Z</time>
      </trkpt>
      <trkpt lat="47.78461" lon="-3.58164">
        <ele>61</ele>
        <time>2018-07-14T11:22:16Z</time>
      </trkpt>
      <trkpt lat="47.78466" lon="-3.58164">
        <ele>61</ele>
        <time>2018-07-14T11:22:17Z</time>
      </trkpt>
      <trkpt lat="47.78472" lon="-3.58163">
        <ele>61</ele>
        <time>2018-07-14T11:22:18Z</time>
      </trkpt>
      <trkpt lat="47.78477" lon="-3.58163">
        <ele>60</ele>
        <time>2018-07-14T11:22:19Z</time>
      </trkpt>
      <trkpt lat="47.78483" lon="-3.58163">
        <ele>60</ele>
        <time>2018-07-14T11:22:20Z</time>
      </trkpt>
      <trkpt lat="47.78488" lon="-3.58164">
        <ele>60</ele>
        <time>2018-07-14T11:22:21Z</time>
      </trkpt>
      <trkpt lat="47.78494" lon="-3.58164">
        <ele>60</ele>
        <time>2018-07-14T11:22:22Z</time>
      </trkpt>
      <trkpt lat="47.785" lon="-3.58165">
        <ele>60</ele>
        <time>2018-07-14T11:22:23Z</time>
      </trkpt>
      <trkpt lat="47.78506" lon="-3.58165">
        <ele>61</ele>
        <time>2018-07-14T11:22:24Z</time>
      </trkpt>
      <trkpt lat="47.78512" lon="-3.58166">
        <ele>61</ele>
        <time>2018-07-14T11:22:25Z</time>
      </trkpt>
      <trkpt lat="47.78518" lon="-3.58167">
        <ele>60</ele>
        <time>2018-07-14T11:22:26Z</time>
      </trkpt>
      <trkpt lat="47.78524" lon="-3.58167">
        <ele>60</ele>
        <time>2018-07-14T11:22:27Z</time>
      </trkpt>
      <trkpt lat="47.78531" lon="-3.58168">
        <ele>60</ele>
        <time>2018-07-14T11:22:28Z</time>
      </trkpt>
      <trkpt lat="47.78537" lon="-3.58169">
        <ele>60</ele>
        <time>2018-07-14T11:22:29Z</time>
      </trkpt>
      <trkpt lat="47.78544" lon="-3.5817">
        <ele>60</ele>
        <time>2018-07-14T11:22:30Z</time>
      </trkpt>
      <trkpt lat="47.7855" lon="-3.5817">
        <ele>60</ele>
        <time>2018-07-14T11:22:31Z</time>
      </trkpt>
      <trkpt lat="47.78557" lon="-3.58171">
        <ele>60</ele>
        <time>2018-07-14T11:22:32Z</time>
      </trkpt>
      <trkpt lat="47.78564" lon="-3.58171">
        <ele>59</ele>
        <time>2018-07-14T11:22:33Z</time>
      </trkpt>
      <trkpt lat="47.78571" lon="-3.58171">
        <ele>59</ele>
        <time>2018-07-14T11:22:34Z</time>
      </trkpt>
      <trkpt lat="47.78578" lon="-3.58172">
        <ele>59</ele>
        <time>2018-07-14T11:22:35Z</time>
      </trkpt>
      <trkpt lat="47.78585" lon="-3.58172">
        <ele>59</ele>
        <time>2018-07-14T11:22:36Z</time>
      </trkpt>
      <trkpt lat="47.78592" lon="-3.58171">
        <ele>59</ele>
        <time>2018-07-14T11:22:37Z</time>
      </trkpt>
      <trkpt lat="47.78598" lon="-3.58171">
        <ele>59</ele>
        <time>2018-07-14T11:22:38Z</time>
      </trkpt>
      <trkpt lat="47.78604" lon="-3.5817">
        <ele>59</ele>
        <time>2018-07-14T11:22:39Z</time>
      </trkpt>
      <trkpt lat="47.7861" lon="-3.58168">
        <ele>58</ele>
        <time>2018-07-14T11:22:40Z</time>
      </trkpt>
      <trkpt lat="47.78615" lon="-3.58167">
        <ele>58</ele>
        <time>2018-07-14T11:22:41Z</time>
      </trkpt>
      <trkpt lat="47.7862" lon="-3.58167">
        <ele>58</ele>
        <time>2018-07-14T11:22:42Z</time>
      </trkpt>
      <trkpt lat="47.78626" lon="-3.58169">
        <ele>58</ele>
        <time>2018-07-14T11:22:43Z</time>
      </trkpt>
      <trkpt lat="47.78631" lon="-3.58172">
        <ele>58</ele>
        <time>2018-07-14T11:22:44Z</time>
      </trkpt>
      <trkpt lat="47.78635" lon="-3.58175">
        <ele>58</ele>
        <time>2018-07-14T11:22:45Z</time>
      </trkpt>
      <trkpt lat="47.7864" lon="-3.58179">
        <ele>57</ele>
        <time>2018-07-14T11:22:46Z</time>
      </trkpt>
      <trkpt lat="47.78645" lon="-3.58182">
        <ele>57</ele>
        <time>2018-07-14T11:22:47Z</time>
      </trkpt>
      <trkpt lat="47.78649" lon="-3.58184">
        <ele>57</ele>
        <time>2018-07-14T11:22:48Z</time>
      </trkpt>
      <trkpt lat="47.78653" lon="-3.58187">
        <ele>57</ele>
        <time>2018-07-14T11:22:49Z</time>
      </trkpt>
      <trkpt lat="47.78657" lon="-3.58189">
        <ele>57</ele>
        <time>2018-07-14T11:22:50Z</time>
      </trkpt>
      <trkpt lat="47.78661" lon="-3.58191">
        <ele>57</ele>
        <time>2018-07-14T11:22:51Z</time>
      </trkpt>
      <trkpt lat="47.78664" lon="-3.58194">
        <ele>57</ele>
        <time>2018-07-14T11:22:52Z</time>
      </trkpt>
      <trkpt lat="47.78668" lon="-3.58196">
        <ele>57</ele>
        <time>2018-07-14T11:22:53Z</time>
      </trkpt>
      <trkpt lat="47.78671" lon="-3.58199">
        <ele>57</ele>
        <time>2018-07-14T11:22:54Z</time>
      </trkpt>
      <trkpt lat="47.78675" lon="-3.58202">
        <ele>57</ele>
        <time>2018-07-14T11:22:55Z</time>
      </trkpt>
      <trkpt lat="47.78679" lon="-3.58205">
        <ele>57</ele>
        <time>2018-07-14T11:22:56Z</time>
      </trkpt>
      <trkpt lat="47.78683" lon="-3.58208">
        <ele>57</ele>
        <time>2018-07-14T11:22:57Z</time>
      </trkpt>
      <trkpt lat="47.78687" lon="-3.58211">
        <ele>57</ele>
        <time>2018-07-14T11:22:58Z</time>
      </trkpt>
      <trkpt lat="47.78691" lon="-3.58214">
        <ele>57</ele>
        <time>2018-07-14T11:22:59Z</time>
      </trkpt>
      <trkpt lat="47.78696" lon="-3.58217">
        <ele>57</ele>
        <time>2018-07-14T11:23:00Z</time>
      </trkpt>
      <trkpt lat="47.787" lon="-3.5822">
        <ele>57</ele>
        <time>2018-07-14T11:23:01Z</time>
      </trkpt>
      <trkpt lat="47.78705" lon="-3.58224">
        <ele>57</ele>
        <time>2018-07-14T11:23:02Z</time>
      </trkpt>
      <trkpt lat="47.78708" lon="-3.58229">
        <ele>57</ele>
        <time>2018-07-14T11:23:03Z</time>
      </trkpt>
      <trkpt lat="47.78712" lon="-3.58235">
        <ele>57</ele>
        <time>2018-07-14T11:23:04Z</time>
      </trkpt>
      <trkpt lat="47.78714" lon="-3.58242">
        <ele>57</ele>
        <time>2018-07-14T11:23:05Z</time>
      </trkpt>
      <trkpt lat="47.78714" lon="-3.58248">
        <ele>57</ele>
        <time>2018-07-14T11:23:06Z</time>
      </trkpt>
      <trkpt lat="47.78715" lon="-3.58255">
        <ele>57</ele>
        <time>2018-07-14T11:23:07Z</time>
      </trkpt>
      <trkpt lat="47.78716" lon="-3.58262">
        <ele>56</ele>
        <time>2018-07-14T11:23:08Z</time>
      </trkpt>
      <trkpt lat="47.78717" lon="-3.58269">
        <ele>56</ele>
        <time>2018-07-14T11:23:09Z</time>
      </trkpt>
      <trkpt lat="47.78717" lon="-3.58276">
        <ele>56</ele>
        <time>2018-07-14T11:23:10Z</time>
      </trkpt>
      <trkpt lat="47.78717" lon="-3.58282">
        <ele>56</ele>
        <time>2018-07-14T11:23:11Z</time>
      </trkpt>
      <trkpt lat="47.78714" lon="-3.58285">
        <ele>56</ele>
        <time>2018-07-14T11:23:12Z</time>
      </trkpt>
      <trkpt lat="47.78711" lon="-3.58287">
        <ele>56</ele>
        <time>2018-07-14T11:23:13Z</time>
      </trkpt>
      <trkpt lat="47.78707" lon="-3.58287">
        <ele>56</ele>
        <time>2018-07-14T11:23:14Z</time>
      </trkpt>
      <trkpt lat="47.78703" lon="-3.58286">
        <ele>56</ele>
        <time>2018-07-14T11:23:15Z</time>
      </trkpt>
      <trkpt lat="47.78699" lon="-3.58286">
        <ele>55</ele>
        <time>2018-07-14T11:23:16Z</time>
      </trkpt>
      <trkpt lat="47.78694" lon="-3.58286">
        <ele>55</ele>
        <time>2018-07-14T11:23:17Z</time>
      </trkpt>
      <trkpt lat="47.78689" lon="-3.58286">
        <ele>55</ele>
        <time>2018-07-14T11:23:18Z</time>
      </trkpt>
      <trkpt lat="47.78684" lon="-3.58286">
        <ele>55</ele>
        <time>2018-07-14T11:23:19Z</time>
      </trkpt>
      <trkpt lat="47.78679" lon="-3.58285">
        <ele>55</ele>
        <time>2018-07-14T11:23:20Z</time>
      </trkpt>
      <trkpt lat="47.78675" lon="-3.58287">
        <ele>55</ele>
        <time>2018-07-14T11:23:21Z</time>
      </trkpt>
      <trkpt lat="47.78673" lon="-3.5829">
        <ele>55</ele>
        <time>2018-07-14T11:23:22Z</time>
      </trkpt>
      <trkpt lat="47.78672" lon="-3.58295">
        <ele>55</ele>
        <time>2018-07-14T11:23:23Z</time>
      </trkpt>
      <trkpt lat="47.78674" lon="-3.58302">
        <ele>56</ele>
        <time>2018-07-14T11:23:24Z</time>
      </trkpt>
      <trkpt lat="47.78676" lon="-3.58309">
        <ele>56</ele>
        <time>2018-07-14T11:23:25Z</time>
      </trkpt>
      <trkpt lat="47.78679" lon="-3.58316">
        <ele>55</ele>
        <time>2018-07-14T11:23:26Z</time>
      </trkpt>
      <trkpt lat="47.78683" lon="-3.58324">
        <ele>55</ele>
        <time>2018-07-14T11:23:27Z</time>
      </trkpt>
      <trkpt lat="47.78686" lon="-3.58332">
        <ele>55</ele>
        <time>2018-07-14T11:23:28Z</time>
      </trkpt>
      <trkpt lat="47.78689" lon="-3.5834">
        <ele>55</ele>
        <time>2018-07-14T11:23:29Z</time>
      </trkpt>
      <trkpt lat="47.78692" lon="-3.58349">
        <ele>55</ele>
        <time>2018-07-14T11:23:30Z</time>
      </trkpt>
      <trkpt lat="47.78695" lon="-3.58358">
        <ele>55</ele>
        <time>2018-07-14T11:23:31Z</time>
      </trkpt>
      <trkpt lat="47.78698" lon="-3.58367">
        <ele>55</ele>
        <time>2018-07-14T11:23:32Z</time>
      </trkpt>
      <trkpt lat="47.78701" lon="-3.58376">
        <ele>54</ele>
        <time>2018-07-14T11:23:33Z</time>
      </trkpt>
      <trkpt lat="47.78704" lon="-3.58384">
        <ele>54</ele>
        <time>2018-07-14T11:23:34Z</time>
      </trkpt>
      <trkpt lat="47.78708" lon="-3.58393">
        <ele>54</ele>
        <time>2018-07-14T11:23:35Z</time>
      </trkpt>
      <trkpt lat="47.78711" lon="-3.58402">
        <ele>54</ele>
        <time>2018-07-14T11:23:36Z</time>
      </trkpt>
      <trkpt lat="47.78714" lon="-3.58411">
        <ele>54</ele>
        <time>2018-07-14T11:23:37Z</time>
      </trkpt>
      <trkpt lat="47.78717" lon="-3.5842">
        <ele>53</ele>
        <time>2018-07-14T11:23:38Z</time>
      </trkpt>
      <trkpt lat="47.7872" lon="-3.58429">
        <ele>53</ele>
        <time>2018-07-14T11:23:39Z</time>
      </trkpt>
      <trkpt lat="47.78724" lon="-3.58437">
        <ele>53</ele>
        <time>2018-07-14T11:23:40Z</time>
      </trkpt>
      <trkpt lat="47.78727" lon="-3.58446">
        <ele>53</ele>
        <time>2018-07-14T11:23:41Z</time>
      </trkpt>
      <trkpt lat="47.78731" lon="-3.58455">
        <ele>52</ele>
        <time>2018-07-14T11:23:42Z</time>
      </trkpt>
      <trkpt lat="47.78735" lon="-3.58464">
        <ele>52</ele>
        <time>2018-07-14T11:23:43Z</time>
      </trkpt>
      <trkpt lat="47.78739" lon="-3.58473">
        <ele>52</ele>
        <time>2018-07-14T11:23:44Z</time>
      </trkpt>
      <trkpt lat="47.78743" lon="-3.58482">
        <ele>52</ele>
        <time>2018-07-14T11:23:45Z</time>
      </trkpt>
      <trkpt lat="47.78747" lon="-3.58491">
        <ele>51</ele>
        <time>2018-07-14T11:23:46Z</time>
      </trkpt>
      <trkpt lat="47.78751" lon="-3.58499">
        <ele>51</ele>
        <time>2018-07-14T11:23:47Z</time>
      </trkpt>
      <trkpt lat="47.78755" lon="-3.58508">
        <ele>51</ele>
        <time>2018-07-14T11:23:48Z</time>
      </trkpt>
      <trkpt lat="47.78759" lon="-3.58518">
        <ele>51</ele>
        <time>2018-07-14T11:23:49Z</time>
      </trkpt>
      <trkpt lat="47.78763" lon="-3.58527">
        <ele>51</ele>
        <time>2018-07-14T11:23:50Z</time>
      </trkpt>
      <trkpt lat="47.78766" lon="-3.58537">
        <ele>50</ele>
        <time>2018-07-14T11:23:51Z</time>
      </trkpt>
      <trkpt lat="47.7877" lon="-3.58547">
        <ele>50</ele>
        <time>2018-07-14T11:23:52Z</time>
      </trkpt>
      <trkpt lat="47.78773" lon="-3.58557">
        <ele>50</ele>
        <time>2018-07-14T11:23:53Z</time>
      </trkpt>
      <trkpt lat="47.78775" lon="-3.58567">
        <ele>50</ele>
        <time>2018-07-14T11:23:54Z</time>
      </trkpt>
      <trkpt lat="47.78777" lon="-3.58577">
        <ele>49</ele>
        <time>2018-07-14T11:23:55Z</time>
      </trkpt>
      <trkpt lat="47.78778" lon="-3.58588">
        <ele>49</ele>
        <time>2018-07-14T11:23:56Z</time>
      </trkpt>
      <trkpt lat="47.7878" lon="-3.58599">
        <ele>49</ele>
        <time>2018-07-14T11:23:57Z</time>
      </trkpt>
      <trkpt lat="47.78781" lon="-3.58609">
        <ele>48</ele>
        <time>2018-07-14T11:23:58Z</time>
      </trkpt>
      <trkpt lat="47.78783" lon="-3.5862">
        <ele>48</ele>
        <time>2018-07-14T11:23:59Z</time>
      </trkpt>
      <trkpt lat="47.78785" lon="-3.5863">
        <ele>48</ele>
        <time>2018-07-14T11:24:00Z</time>
      </trkpt>
      <trkpt lat="47.78787" lon="-3.5864">
        <ele>48</ele>
        <time>2018-07-14T11:24:01Z</time>
      </trkpt>
      <trkpt lat="47.78789" lon="-3.58651">
        <ele>48</ele>
        <time>2018-07-14T11:24:02Z</time>
      </trkpt>
      <trkpt lat="47.7879" lon="-3.58661">
        <ele>47</ele>
        <time>2018-07-14T11:24:03Z</time>
      </trkpt>
      <trkpt lat="47.78792" lon="-3.58671">
        <ele>47</ele>
        <time>2018-07-14T11:24:04Z</time>
      </trkpt>
      <trkpt lat="47.78793" lon="-3.58681">
        <ele>47</ele>
        <time>2018-07-14T11:24:05Z</time>
      </trkpt>
      <trkpt lat="47.78795" lon="-3.58691">
        <ele>47</ele>
        <time>2018-07-14T11:24:06Z</time>
      </trkpt>
      <trkpt lat="47.78796" lon="-3.587">
        <ele>47</ele>
        <time>2018-07-14T11:24:07Z</time>
      </trkpt>
      <trkpt lat="47.78798" lon="-3.58709">
        <ele>47</ele>
        <time>2018-07-14T11:24:08Z</time>
      </trkpt>
      <trkpt lat="47.78799" lon="-3.58719">
        <ele>47</ele>
        <time>2018-07-14T11:24:09Z</time>
      </trkpt>
      <trkpt lat="47.788" lon="-3.58728">
        <ele>46</ele>
        <time>2018-07-14T11:24:10Z</time>
      </trkpt>
      <trkpt lat="47.78801" lon="-3.58737">
        <ele>46</ele>
        <time>2018-07-14T11:24:11Z</time>
      </trkpt>
      <trkpt lat="47.78802" lon="-3.58746">
        <ele>46</ele>
        <time>2018-07-14T11:24:12Z</time>
      </trkpt>
      <trkpt lat="47.78802" lon="-3.58754">
        <ele>46</ele>
        <time>2018-07-14T11:24:13Z</time>
      </trkpt>
      <trkpt lat="47.788" lon="-3.58762">
        <ele>46</ele>
        <time>2018-07-14T11:24:14Z</time>
      </trkpt>
      <trkpt lat="47.78798" lon="-3.58768">
        <ele>46</ele>
        <time>2018-07-14T11:24:15Z</time>
      </trkpt>
      <trkpt lat="47.78796" lon="-3.58775">
        <ele>46</ele>
        <time>2018-07-14T11:24:16Z</time>
      </trkpt>
      <trkpt lat="47.78794" lon="-3.58781">
        <ele>46</ele>
        <time>2018-07-14T11:24:17Z</time>
      </trkpt>
      <trkpt lat="47.78792" lon="-3.58788">
        <ele>46</ele>
        <time>2018-07-14T11:24:18Z</time>
      </trkpt>
      <trkpt lat="47.7879" lon="-3.58794">
        <ele>46</ele>
        <time>2018-07-14T11:24:19Z</time>
      </trkpt>
      <trkpt lat="47.78788" lon="-3.58801">
        <ele>46</ele>
        <time>2018-07-14T11:24:20Z</time>
      </trkpt>
      <trkpt lat="47.78786" lon="-3.58808">
        <ele>46</ele>
        <time>2018-07-14T11:24:21Z</time>
      </trkpt>
      <trkpt lat="47.78784" lon="-3.58815">
        <ele>47</ele>
        <time>2018-07-14T11:24:22Z</time>
      </trkpt>
      <trkpt lat="47.78781" lon="-3.58822">
        <ele>47</ele>
        <time>2018-07-14T11:24:23Z</time>
      </trkpt>
      <trkpt lat="47.78779" lon="-3.58828">
        <ele>47</ele>
        <time>2018-07-14T11:24:24Z</time>
      </trkpt>
      <trkpt lat="47.78776" lon="-3.58835">
        <ele>47</ele>
        <time>2018-07-14T11:24:25Z</time>
      </trkpt>
      <trkpt lat="47.78773" lon="-3.58841">
        <ele>47</ele>
        <time>2018-07-14T11:24:26Z</time>
      </trkpt>
      <trkpt lat="47.7877" lon="-3.58847">
        <ele>47</ele>
        <time>2018-07-14T11:24:27Z</time>
      </trkpt>
      <trkpt lat="47.78767" lon="-3.58851">
        <ele>47</ele>
        <time>2018-07-14T11:24:28Z</time>
      </trkpt>
      <trkpt lat="47.78764" lon="-3.58853">
        <ele>47</ele>
        <time>2018-07-14T11:24:29Z</time>
      </trkpt>
      <trkpt lat="47.78761" lon="-3.58854">
        <ele>47</ele>
        <time>2018-07-14T11:24:30Z</time>
      </trkpt>
      <trkpt lat="47.78757" lon="-3.58854">
        <ele>47</ele>
        <time>2018-07-14T11:24:31Z</time>
      </trkpt>
      <trkpt lat="47.78753" lon="-3.58854">
        <ele>47</ele>
        <time>2018-07-14T11:24:32Z</time>
      </trkpt>
      <trkpt lat="47.78749" lon="-3.58855">
        <ele>47</ele>
        <time>2018-07-14T11:24:33Z</time>
      </trkpt>
      <trkpt lat="47.78744" lon="-3.58856">
        <ele>47</ele>
        <time>2018-07-14T11:24:34Z</time>
      </trkpt>
      <trkpt lat="47.7874" lon="-3.58857">
        <ele>47</ele>
        <time>2018-07-14T11:24:35Z</time>
      </trkpt>
      <trkpt lat="47.78735" lon="-3.58858">
        <ele>47</ele>
        <time>2018-07-14T11:24:36Z</time>
      </trkpt>
      <trkpt lat="47.78732" lon="-3.58859">
        <ele>47</ele>
        <time>2018-07-14T11:24:37Z</time>
      </trkpt>
      <trkpt lat="47.78728" lon="-3.58859">
        <ele>47</ele>
        <time>2018-07-14T11:24:38Z</time>
      </trkpt>
      <trkpt lat="47.78724" lon="-3.5886">
        <ele>47</ele>
        <time>2018-07-14T11:24:39Z</time>
      </trkpt>
      <trkpt lat="47.7872" lon="-3.58861">
        <ele>47</ele>
        <time>2018-07-14T11:24:40Z</time>
      </trkpt>
      <trkpt lat="47.78715" lon="-3.58863">
        <ele>47</ele>
        <time>2018-07-14T11:24:41Z</time>
      </trkpt>
      <trkpt lat="47.7871" lon="-3.58865">
        <ele>47</ele>
        <time>2018-07-14T11:24:42Z</time>
      </trkpt>
      <trkpt lat="47.78705" lon="-3.58867">
        <ele>47</ele>
        <time>2018-07-14T11:24:43Z</time>
      </trkpt>
      <trkpt lat="47.78701" lon="-3.58869">
        <ele>47</ele>
        <time>2018-07-14T11:24:44Z</time>
      </trkpt>
      <trkpt lat="47.78697" lon="-3.58872">
        <ele>47</ele>
        <time>2018-07-14T11:24:45Z</time>
      </trkpt>
      <trkpt lat="47.78693" lon="-3.58873">
        <ele>47</ele>
        <time>2018-07-14T11:24:46Z</time>
      </trkpt>
      <trkpt lat="47.7869" lon="-3.58876">
        <ele>47</ele>
        <time>2018-07-14T11:24:47Z</time>
      </trkpt>
      <trkpt lat="47.78686" lon="-3.58879">
        <ele>47</ele>
        <time>2018-07-14T11:24:48Z</time>
      </trkpt>
      <trkpt lat="47.78683" lon="-3.58881">
        <ele>47</ele>
        <time>2018-07-14T11:24:49Z</time>
      </trkpt>
      <trkpt lat="47.78678" lon="-3.58884">
        <ele>47</ele>
        <time>2018-07-14T11:24:50Z</time>
      </trkpt>
      <trkpt lat="47.78674" lon="-3.58886">
        <ele>47</ele>
        <time>2018-07-14T11:24:51Z</time>
      </trkpt>
      <trkpt lat="47.78669" lon="-3.58888">
        <ele>47</ele>
        <time>2018-07-14T11:24:52Z</time>
      </trkpt>
      <trkpt lat="47.78665" lon="-3.5889">
        <ele>47</ele>
        <time>2018-07-14T11:24:53Z</time>
      </trkpt>
      <trkpt lat="47.78662" lon="-3.58892">
        <ele>47</ele>
        <time>2018-07-14T11:24:54Z</time>
      </trkpt>
      <trkpt lat="47.78658" lon="-3.58893">
        <ele>47</ele>
        <time>2018-07-14T11:24:55Z</time>
      </trkpt>
      <trkpt lat="47.78654" lon="-3.58896">
        <ele>47</ele>
        <time>2018-07-14T11:24:56Z</time>
      </trkpt>
      <trkpt lat="47.78649" lon="-3.58898">
        <ele>47</ele>
        <time>2018-07-14T11:24:57Z</time>
      </trkpt>
      <trkpt lat="47.78645" lon="-3.58901">
        <ele>47</ele>
        <time>2018-07-14T11:24:58Z</time>
      </trkpt>
      <trkpt lat="47.78641" lon="-3.58903">
        <ele>47</ele>
        <time>2018-07-14T11:24:59Z</time>
      </trkpt>
      <trkpt lat="47.78636" lon="-3.58905">
        <ele>47</ele>
        <time>2018-07-14T11:25:00Z</time>
      </trkpt>
      <trkpt lat="47.78632" lon="-3.58907">
        <ele>47</ele>
        <time>2018-07-14T11:25:01Z</time>
      </trkpt>
      <trkpt lat="47.78629" lon="-3.58909">
        <ele>47</ele>
        <time>2018-07-14T11:25:02Z</time>
      </trkpt>
      <trkpt lat="47.78625" lon="-3.58911">
        <ele>47</ele>
        <time>2018-07-14T11:25:03Z</time>
      </trkpt>
      <trkpt lat="47.78622" lon="-3.58912">
        <ele>47</ele>
        <time>2018-07-14T11:25:04Z</time>
      </trkpt>
      <trkpt lat="47.78618" lon="-3.58914">
        <ele>47</ele>
        <time>2018-07-14T11:25:05Z</time>
      </trkpt>
      <trkpt lat="47.78614" lon="-3.58916">
        <ele>47</ele>
        <time>2018-07-14T11:25:06Z</time>
      </trkpt>
      <trkpt lat="47.7861" lon="-3.58919">
        <ele>47</ele>
        <time>2018-07-14T11:25:07Z</time>
      </trkpt>
      <trkpt lat="47.78605" lon="-3.58922">
        <ele>47</ele>
        <time>2018-07-14T11:25:08Z</time>
      </trkpt>
      <trkpt lat="47.78601" lon="-3.58925">
        <ele>47</ele>
        <time>2018-07-14T11:25:09Z</time>
      </trkpt>
      <trkpt lat="47.78597" lon="-3.58928">
        <ele>47</ele>
        <time>2018-07-14T11:25:10Z</time>
      </trkpt>
      <trkpt lat="47.78593" lon="-3.58931">
        <ele>47</ele>
        <time>2018-07-14T11:25:11Z</time>
      </trkpt>
      <trkpt lat="47.78589" lon="-3.58934">
        <ele>47</ele>
        <time>2018-07-14T11:25:12Z</time>
      </trkpt>
      <trkpt lat="47.78584" lon="-3.58938">
        <ele>47</ele>
        <time>2018-07-14T11:25:13Z</time>
      </trkpt>
      <trkpt lat="47.7858" lon="-3.58942">
        <ele>47</ele>
        <time>2018-07-14T11:25:14Z</time>
      </trkpt>
      <trkpt lat="47.78576" lon="-3.58945">
        <ele>46</ele>
        <time>2018-07-14T11:25:15Z</time>
      </trkpt>
      <trkpt lat="47.78571" lon="-3.5895">
        <ele>46</ele>
        <time>2018-07-14T11:25:16Z</time>
      </trkpt>
      <trkpt lat="47.78567" lon="-3.58955">
        <ele>46</ele>
        <time>2018-07-14T11:25:17Z</time>
      </trkpt>
      <trkpt lat="47.78563" lon="-3.5896">
        <ele>47</ele>
        <time>2018-07-14T11:25:18Z</time>
      </trkpt>
      <trkpt lat="47.78559" lon="-3.58965">
        <ele>47</ele>
        <time>2018-07-14T11:25:19Z</time>
      </trkpt>
      <trkpt lat="47.78554" lon="-3.5897">
        <ele>47</ele>
        <time>2018-07-14T11:25:20Z</time>
      </trkpt>
      <trkpt lat="47.78549" lon="-3.58975">
        <ele>47</ele>
        <time>2018-07-14T11:25:21Z</time>
      </trkpt>
      <trkpt lat="47.78544" lon="-3.58979">
        <ele>47</ele>
        <time>2018-07-14T11:25:22Z</time>
      </trkpt>
      <trkpt lat="47.78538" lon="-3.58982">
        <ele>47</ele>
        <time>2018-07-14T11:25:23Z</time>
      </trkpt>
      <trkpt lat="47.78532" lon="-3.58985">
        <ele>47</ele>
        <time>2018-07-14T11:25:24Z</time>
      </trkpt>
      <trkpt lat="47.78527" lon="-3.58988">
        <ele>47</ele>
        <time>2018-07-14T11:25:25Z</time>
      </trkpt>
      <trkpt lat="47.78521" lon="-3.58991">
        <ele>48</ele>
        <time>2018-07-14T11:25:26Z</time>
      </trkpt>
      <trkpt lat="47.78516" lon="-3.58994">
        <ele>48</ele>
        <time>2018-07-14T11:25:27Z</time>
      </trkpt>
      <trkpt lat="47.78511" lon="-3.58996">
        <ele>48</ele>
        <time>2018-07-14T11:25:28Z</time>
      </trkpt>
      <trkpt lat="47.78506" lon="-3.58998">
        <ele>48</ele>
        <time>2018-07-14T11:25:29Z</time>
      </trkpt>
      <trkpt lat="47.78501" lon="-3.59">
        <ele>48</ele>
        <time>2018-07-14T11:25:30Z</time>
      </trkpt>
      <trkpt lat="47.78495" lon="-3.59002">
        <ele>48</ele>
        <time>2018-07-14T11:25:31Z</time>
      </trkpt>
      <trkpt lat="47.78488" lon="-3.59005">
        <ele>48</ele>
        <time>2018-07-14T11:25:32Z</time>
      </trkpt>
      <trkpt lat="47.78482" lon="-3.59008">
        <ele>49</ele>
        <time>2018-07-14T11:25:33Z</time>
      </trkpt>
      <trkpt lat="47.78476" lon="-3.59011">
        <ele>49</ele>
        <time>2018-07-14T11:25:34Z</time>
      </trkpt>
      <trkpt lat="47.78469" lon="-3.59014">
        <ele>49</ele>
        <time>2018-07-14T11:25:35Z</time>
      </trkpt>
      <trkpt lat="47.78463" lon="-3.59016">
        <ele>49</ele>
        <time>2018-07-14T11:25:36Z</time>
      </trkpt>
      <trkpt lat="47.78456" lon="-3.59019">
        <ele>49</ele>
        <time>2018-07-14T11:25:37Z</time>
      </trkpt>
      <trkpt lat="47.7845" lon="-3.59021">
        <ele>50</ele>
        <time>2018-07-14T11:25:38Z</time>
      </trkpt>
      <trkpt lat="47.78443" lon="-3.59023">
        <ele>50</ele>
        <time>2018-07-14T11:25:39Z</time>
      </trkpt>
      <trkpt lat="47.78436" lon="-3.59025">
        <ele>50</ele>
        <time>2018-07-14T11:25:40Z</time>
      </trkpt>
      <trkpt lat="47.78429" lon="-3.59027">
        <ele>50</ele>
        <time>2018-07-14T11:25:41Z</time>
      </trkpt>
      <trkpt lat="47.78422" lon="-3.59029">
        <ele>50</ele>
        <time>2018-07-14T11:25:42Z</time>
      </trkpt>
      <trkpt lat="47.78416" lon="-3.59031">
        <ele>50</ele>
        <time>2018-07-14T11:25:43Z</time>
      </trkpt>
      <trkpt lat="47.78409" lon="-3.59032">
        <ele>50</ele>
        <time>2018-07-14T11:25:44Z</time>
      </trkpt>
      <trkpt lat="47.78402" lon="-3.59033">
        <ele>50</ele>
        <time>2018-07-14T11:25:45Z</time>
      </trkpt>
      <trkpt lat="47.78395" lon="-3.59032">
        <ele>50</ele>
        <time>2018-07-14T11:25:46Z</time>
      </trkpt>
      <trkpt lat="47.78389" lon="-3.59031">
        <ele>50</ele>
        <time>2018-07-14T11:25:47Z</time>
      </trkpt>
      <trkpt lat="47.78383" lon="-3.59031">
        <ele>49</ele>
        <time>2018-07-14T11:25:48Z</time>
      </trkpt>
      <trkpt lat="47.78376" lon="-3.59031">
        <ele>49</ele>
        <time>2018-07-14T11:25:49Z</time>
      </trkpt>
      <trkpt lat="47.78369" lon="-3.59033">
        <ele>49</ele>
        <time>2018-07-14T11:25:50Z</time>
      </trkpt>
      <trkpt lat="47.78362" lon="-3.59036">
        <ele>49</ele>
        <time>2018-07-14T11:25:51Z</time>
      </trkpt>
      <trkpt lat="47.78355" lon="-3.59038">
        <ele>48</ele>
        <time>2018-07-14T11:25:52Z</time>
      </trkpt>
      <trkpt lat="47.78349" lon="-3.59041">
        <ele>48</ele>
        <time>2018-07-14T11:25:53Z</time>
      </trkpt>
      <trkpt lat="47.78343" lon="-3.59045">
        <ele>48</ele>
        <time>2018-07-14T11:25:54Z</time>
      </trkpt>
      <trkpt lat="47.78337" lon="-3.59049">
        <ele>47</ele>
        <time>2018-07-14T11:25:55Z</time>
      </trkpt>
      <trkpt lat="47.78333" lon="-3.59052">
        <ele>47</ele>
        <time>2018-07-14T11:25:56Z</time>
      </trkpt>
      <trkpt lat="47.78327" lon="-3.59056">
        <ele>47</ele>
        <time>2018-07-14T11:25:57Z</time>
      </trkpt>
      <trkpt lat="47.78322" lon="-3.59059">
        <ele>47</ele>
        <time>2018-07-14T11:25:58Z</time>
      </trkpt>
      <trkpt lat="47.78317" lon="-3.5906">
        <ele>46</ele>
        <time>2018-07-14T11:25:59Z</time>
      </trkpt>
      <trkpt lat="47.78312" lon="-3.59062">
        <ele>46</ele>
        <time>2018-07-14T11:26:00Z</time>
      </trkpt>
      <trkpt lat="47.78307" lon="-3.59063">
        <ele>46</ele>
        <time>2018-07-14T11:26:01Z</time>
      </trkpt>
      <trkpt lat="47.78302" lon="-3.59063">
        <ele>46</ele>
        <time>2018-07-14T11:26:02Z</time>
      </trkpt>
      <trkpt lat="47.78297" lon="-3.59063">
        <ele>46</ele>
        <time>2018-07-14T11:26:03Z</time>
      </trkpt>
      <trkpt lat="47.78292" lon="-3.59063">
        <ele>46</ele>
        <time>2018-07-14T11:26:04Z</time>
      </trkpt>
      <trkpt lat="47.78287" lon="-3.59063">
        <ele>46</ele>
        <time>2018-07-14T11:26:05Z</time>
      </trkpt>
      <trkpt lat="47.78282" lon="-3.59062">
        <ele>46</ele>
        <time>2018-07-14T11:26:06Z</time>
      </trkpt>
      <trkpt lat="47.78277" lon="-3.59061">
        <ele>46</ele>
        <time>2018-07-14T11:26:07Z</time>
      </trkpt>
      <trkpt lat="47.78272" lon="-3.5906">
        <ele>46</ele>
        <time>2018-07-14T11:26:08Z</time>
      </trkpt>
      <trkpt lat="47.78267" lon="-3.59059">
        <ele>46</ele>
        <time>2018-07-14T11:26:09Z</time>
      </trkpt>
      <trkpt lat="47.78262" lon="-3.59057">
        <ele>46</ele>
        <time>2018-07-14T11:26:10Z</time>
      </trkpt>
      <trkpt lat="47.78258" lon="-3.59056">
        <ele>46</ele>
        <time>2018-07-14T11:26:11Z</time>
      </trkpt>
      <trkpt lat="47.78253" lon="-3.59054">
        <ele>46</ele>
        <time>2018-07-14T11:26:12Z</time>
      </trkpt>
      <trkpt lat="47.78248" lon="-3.59053">
        <ele>46</ele>
        <time>2018-07-14T11:26:13Z</time>
      </trkpt>
      <trkpt lat="47.78243" lon="-3.59051">
        <ele>46</ele>
        <time>2018-07-14T11:26:14Z</time>
      </trkpt>
      <trkpt lat="47.78238" lon="-3.59049">
        <ele>47</ele>
        <time>2018-07-14T11:26:15Z</time>
      </trkpt>
      <trkpt lat="47.78234" lon="-3.59048">
        <ele>47</ele>
        <time>2018-07-14T11:26:16Z</time>
      </trkpt>
      <trkpt lat="47.7823" lon="-3.59047">
        <ele>47</ele>
        <time>2018-07-14T11:26:17Z</time>
      </trkpt>
      <trkpt lat="47.78225" lon="-3.59045">
        <ele>47</ele>
        <time>2018-07-14T11:26:18Z</time>
      </trkpt>
      <trkpt lat="47.78222" lon="-3.59044">
        <ele>47</ele>
        <time>2018-07-14T11:26:19Z</time>
      </trkpt>
      <trkpt lat="47.78218" lon="-3.59044">
        <ele>47</ele>
        <time>2018-07-14T11:26:20Z</time>
      </trkpt>
      <trkpt lat="47.78213" lon="-3.59044">
        <ele>48</ele>
        <time>2018-07-14T11:26:21Z</time>
      </trkpt>
      <trkpt lat="47.7821" lon="-3.59047">
        <ele>48</ele>
        <time>2018-07-14T11:26:22Z</time>
      </trkpt>
      <trkpt lat="47.78207" lon="-3.59052">
        <ele>48</ele>
        <time>2018-07-14T11:26:23Z</time>
      </trkpt>
      <trkpt lat="47.78204" lon="-3.59058">
        <ele>48</ele>
        <time>2018-07-14T11:26:24Z</time>
      </trkpt>
      <trkpt lat="47.78201" lon="-3.59064">
        <ele>49</ele>
        <time>2018-07-14T11:26:25Z</time>
      </trkpt>
      <trkpt lat="47.78198" lon="-3.59071">
        <ele>49</ele>
        <time>2018-07-14T11:26:26Z</time>
      </trkpt>
      <trkpt lat="47.78194" lon="-3.59077">
        <ele>49</ele>
        <time>2018-07-14T11:26:27Z</time>
      </trkpt>
      <trkpt lat="47.7819" lon="-3.59084">
        <ele>49</ele>
        <time>2018-07-14T11:26:28Z</time>
      </trkpt>
      <trkpt lat="47.78187" lon="-3.59091">
        <ele>49</ele>
        <time>2018-07-14T11:26:29Z</time>
      </trkpt>
      <trkpt lat="47.78183" lon="-3.59099">
        <ele>50</ele>
        <time>2018-07-14T11:26:30Z</time>
      </trkpt>
      <trkpt lat="47.7818" lon="-3.59106">
        <ele>50</ele>
        <time>2018-07-14T11:26:31Z</time>
      </trkpt>
      <trkpt lat="47.78176" lon="-3.59113">
        <ele>50</ele>
        <time>2018-07-14T11:26:32Z</time>
      </trkpt>
      <trkpt lat="47.78172" lon="-3.59121">
        <ele>50</ele>
        <time>2018-07-14T11:26:33Z</time>
      </trkpt>
      <trkpt lat="47.78168" lon="-3.59129">
        <ele>51</ele>
        <time>2018-07-14T11:26:34Z</time>
      </trkpt>
      <trkpt lat="47.78164" lon="-3.59136">
        <ele>51</ele>
        <time>2018-07-14T11:26:35Z</time>
      </trkpt>
      <trkpt lat="47.7816" lon="-3.59144">
        <ele>51</ele>
        <time>2018-07-14T11:26:36Z</time>
      </trkpt>
      <trkpt lat="47.78156" lon="-3.59152">
        <ele>51</ele>
        <time>2018-07-14T11:26:37Z</time>
      </trkpt>
      <trkpt lat="47.78152" lon="-3.5916">
        <ele>51</ele>
        <time>2018-07-14T11:26:38Z</time>
      </trkpt>
      <trkpt lat="47.78148" lon="-3.59168">
        <ele>51</ele>
        <time>2018-07-14T11:26:39Z</time>
      </trkpt>
      <trkpt lat="47.78144" lon="-3.59177">
        <ele>51</ele>
        <time>2018-07-14T11:26:40Z</time>
      </trkpt>
      <trkpt lat="47.78139" lon="-3.59185">
        <ele>51</ele>
        <time>2018-07-14T11:26:41Z</time>
      </trkpt>
      <trkpt lat="47.78134" lon="-3.59193">
        <ele>51</ele>
        <time>2018-07-14T11:26:42Z</time>
      </trkpt>
      <trkpt lat="47.78129" lon="-3.59201">
        <ele>51</ele>
        <time>2018-07-14T11:26:43Z</time>
      </trkpt>
      <trkpt lat="47.78124" lon="-3.59209">
        <ele>51</ele>
        <time>2018-07-14T11:26:44Z</time>
      </trkpt>
      <trkpt lat="47.78118" lon="-3.59216">
        <ele>51</ele>
        <time>2018-07-14T11:26:45Z</time>
      </trkpt>
      <trkpt lat="47.78112" lon="-3.59224">
        <ele>51</ele>
        <time>2018-07-14T11:26:46Z</time>
      </trkpt>
      <trkpt lat="47.78105" lon="-3.59231">
        <ele>51</ele>
        <time>2018-07-14T11:26:47Z</time>
      </trkpt>
      <trkpt lat="47.78098" lon="-3.59237">
        <ele>51</ele>
        <time>2018-07-14T11:26:48Z</time>
      </trkpt>
      <trkpt lat="47.78091" lon="-3.59243">
        <ele>51</ele>
        <time>2018-07-14T11:26:49Z</time>
      </trkpt>
      <trkpt lat="47.78083" lon="-3.59247">
        <ele>50</ele>
        <time>2018-07-14T11:26:50Z</time>
      </trkpt>
      <trkpt lat="47.78074" lon="-3.59252">
        <ele>50</ele>
        <time>2018-07-14T11:26:51Z</time>
      </trkpt>
      <trkpt lat="47.78065" lon="-3.59256">
        <ele>49</ele>
        <time>2018-07-14T11:26:52Z</time>
      </trkpt>
      <trkpt lat="47.78056" lon="-3.59259">
        <ele>49</ele>
        <time>2018-07-14T11:26:53Z</time>
      </trkpt>
      <trkpt lat="47.78047" lon="-3.59262">
        <ele>48</ele>
        <time>2018-07-14T11:26:54Z</time>
      </trkpt>
      <trkpt lat="47.78038" lon="-3.59265">
        <ele>48</ele>
        <time>2018-07-14T11:26:55Z</time>
      </trkpt>
      <trkpt lat="47.78028" lon="-3.59268">
        <ele>47</ele>
        <time>2018-07-14T11:26:56Z</time>
      </trkpt>
      <trkpt lat="47.78018" lon="-3.5927">
        <ele>47</ele>
        <time>2018-07-14T11:26:57Z</time>
      </trkpt>
      <trkpt lat="47.78008" lon="-3.59273">
        <ele>47</ele>
        <time>2018-07-14T11:26:58Z</time>
      </trkpt>
      <trkpt lat="47.77998" lon="-3.59277">
        <ele>46</ele>
        <time>2018-07-14T11:26:59Z</time>
      </trkpt>
      <trkpt lat="47.77988" lon="-3.5928">
        <ele>46</ele>
        <time>2018-07-14T11:27:00Z</time>
      </trkpt>
      <trkpt lat="47.77978" lon="-3.59283">
        <ele>45</ele>
        <time>2018-07-14T11:27:01Z</time>
      </trkpt>
      <trkpt lat="47.77968" lon="-3.59287">
        <ele>45</ele>
        <time>2018-07-14T11:27:02Z</time>
      </trkpt>
      <trkpt lat="47.77958" lon="-3.59291">
        <ele>45</ele>
        <time>2018-07-14T11:27:03Z</time>
      </trkpt>
      <trkpt lat="47.77948" lon="-3.59296">
        <ele>44</ele>
        <time>2018-07-14T11:27:04Z</time>
      </trkpt>
      <trkpt lat="47.77939" lon="-3.59301">
        <ele>44</ele>
        <time>2018-07-14T11:27:05Z</time>
      </trkpt>
      <trkpt lat="47.7793" lon="-3.59306">
        <ele>43</ele>
        <time>2018-07-14T11:27:06Z</time>
      </trkpt>
      <trkpt lat="47.77921" lon="-3.59312">
        <ele>43</ele>
        <time>2018-07-14T11:27:07Z</time>
      </trkpt>
      <trkpt lat="47.77912" lon="-3.59318">
        <ele>43</ele>
        <time>2018-07-14T11:27:08Z</time>
      </trkpt>
      <trkpt lat="47.77904" lon="-3.59325">
        <ele>42</ele>
        <time>2018-07-14T11:27:09Z</time>
      </trkpt>
      <trkpt lat="47.77896" lon="-3.59331">
        <ele>42</ele>
        <time>2018-07-14T11:27:10Z</time>
      </trkpt>
      <trkpt lat="47.77887" lon="-3.59337">
        <ele>42</ele>
        <time>2018-07-14T11:27:11Z</time>
      </trkpt>
      <trkpt lat="47.77879" lon="-3.59342">
        <ele>42</ele>
        <time>2018-07-14T11:27:12Z</time>
      </trkpt>
      <trkpt lat="47.77871" lon="-3.59348">
        <ele>41</ele>
        <time>2018-07-14T11:27:13Z</time>
      </trkpt>
      <trkpt lat="47.77863" lon="-3.59353">
        <ele>41</ele>
        <time>2018-07-14T11:27:14Z</time>
      </trkpt>
      <trkpt lat="47.77855" lon="-3.59358">
        <ele>41</ele>
        <time>2018-07-14T11:27:15Z</time>
      </trkpt>
      <trkpt lat="47.77847" lon="-3.59363">
        <ele>40</ele>
        <time>2018-07-14T11:27:16Z</time>
      </trkpt>
      <trkpt lat="47.77839" lon="-3.59367">
        <ele>40</ele>
        <time>2018-07-14T11:27:17Z</time>
      </trkpt>
      <trkpt lat="47.77831" lon="-3.59371">
        <ele>40</ele>
        <time>2018-07-14T11:27:18Z</time>
      </trkpt>
      <trkpt lat="47.77822" lon="-3.59375">
        <ele>39</ele>
        <time>2018-07-14T11:27:19Z</time>
      </trkpt>
      <trkpt lat="47.77814" lon="-3.59378">
        <ele>39</ele>
        <time>2018-07-14T11:27:20Z</time>
      </trkpt>
      <trkpt lat="47.77806" lon="-3.59381">
        <ele>39</ele>
        <time>2018-07-14T11:27:21Z</time>
      </trkpt>
      <trkpt lat="47.77798" lon="-3.59384">
        <ele>38</ele>
        <time>2018-07-14T11:27:22Z</time>
      </trkpt>
      <trkpt lat="47.77791" lon="-3.59386">
        <ele>38</ele>
        <time>2018-07-14T11:27:23Z</time>
      </trkpt>
      <trkpt lat="47.77783" lon="-3.59388">
        <ele>38</ele>
        <time>2018-07-14T11:27:24Z</time>
      </trkpt>
      <trkpt lat="47.77775" lon="-3.5939">
        <ele>38</ele>
        <time>2018-07-14T11:27:25Z</time>
      </trkpt>
      <trkpt lat="47.77767" lon="-3.59392">
        <ele>37</ele>
        <time>2018-07-14T11:27:26Z</time>
      </trkpt>
      <trkpt lat="47.77759" lon="-3.59395">
        <ele>37</ele>
        <time>2018-07-14T11:27:27Z</time>
      </trkpt>
      <trkpt lat="47.7775" lon="-3.59397">
        <ele>36</ele>
        <time>2018-07-14T11:27:28Z</time>
      </trkpt>
      <trkpt lat="47.77742" lon="-3.59399">
        <ele>36</ele>
        <time>2018-07-14T11:27:29Z</time>
      </trkpt>
      <trkpt lat="47.77733" lon="-3.59401">
        <ele>36</ele>
        <time>2018-07-14T11:27:30Z</time>
      </trkpt>
      <trkpt lat="47.77725" lon="-3.59403">
        <ele>35</ele>
        <time>2018-07-14T11:27:31Z</time>
      </trkpt>
      <trkpt lat="47.77716" lon="-3.59405">
        <ele>35</ele>
        <time>2018-07-14T11:27:32Z</time>
      </trkpt>
      <trkpt lat="47.77709" lon="-3.59411">
        <ele>34</ele>
        <time>2018-07-14T11:27:33Z</time>
      </trkpt>
      <trkpt lat="47.77703" lon="-3.59417">
        <ele>34</ele>
        <time>2018-07-14T11:27:34Z</time>
      </trkpt>
      <trkpt lat="47.77697" lon="-3.59426">
        <ele>33</ele>
        <time>2018-07-14T11:27:35Z</time>
      </trkpt>
      <trkpt lat="47.77692" lon="-3.59436">
        <ele>33</ele>
        <time>2018-07-14T11:27:36Z</time>
      </trkpt>
      <trkpt lat="47.77688" lon="-3.59447">
        <ele>33</ele>
        <time>2018-07-14T11:27:37Z</time>
      </trkpt>
      <trkpt lat="47.77685" lon="-3.59459">
        <ele>33</ele>
        <time>2018-07-14T11:27:38Z</time>
      </trkpt>
      <trkpt lat="47.77684" lon="-3.59473">
        <ele>32</ele>
        <time>2018-07-14T11:27:39Z</time>
      </trkpt>
      <trkpt lat="47.77684" lon="-3.59485">
        <ele>32</ele>
        <time>2018-07-14T11:27:40Z</time>
      </trkpt>
      <trkpt lat="47.77684" lon="-3.59498">
        <ele>32</ele>
        <time>2018-07-14T11:27:41Z</time>
      </trkpt>
      <trkpt lat="47.77684" lon="-3.5951">
        <ele>31</ele>
        <time>2018-07-14T11:27:42Z</time>
      </trkpt>
      <trkpt lat="47.77684" lon="-3.59522">
        <ele>31</ele>
        <time>2018-07-14T11:27:43Z</time>
      </trkpt>
      <trkpt lat="47.77684" lon="-3.59533">
        <ele>31</ele>
        <time>2018-07-14T11:27:44Z</time>
      </trkpt>
      <trkpt lat="47.77684" lon="-3.59545">
        <ele>30</ele>
        <time>2018-07-14T11:27:45Z</time>
      </trkpt>
      <trkpt lat="47.77685" lon="-3.59556">
        <ele>30</ele>
        <time>2018-07-14T11:27:46Z</time>
      </trkpt>
      <trkpt lat="47.77685" lon="-3.59568">
        <ele>30</ele>
        <time>2018-07-14T11:27:47Z</time>
      </trkpt>
      <trkpt lat="47.77685" lon="-3.59579">
        <ele>29</ele>
        <time>2018-07-14T11:27:48Z</time>
      </trkpt>
      <trkpt lat="47.77686" lon="-3.5959">
        <ele>29</ele>
        <time>2018-07-14T11:27:49Z</time>
      </trkpt>
      <trkpt lat="47.77686" lon="-3.59601">
        <ele>29</ele>
        <time>2018-07-14T11:27:50Z</time>
      </trkpt>
      <trkpt lat="47.77686" lon="-3.59612">
        <ele>29</ele>
        <time>2018-07-14T11:27:51Z</time>
      </trkpt>
      <trkpt lat="47.77686" lon="-3.59623">
        <ele>28</ele>
        <time>2018-07-14T11:27:52Z</time>
      </trkpt>
      <trkpt lat="47.77687" lon="-3.59634">
        <ele>28</ele>
        <time>2018-07-14T11:27:53Z</time>
      </trkpt>
      <trkpt lat="47.77687" lon="-3.59645">
        <ele>28</ele>
        <time>2018-07-14T11:27:54Z</time>
      </trkpt>
      <trkpt lat="47.77687" lon="-3.59656">
        <ele>27</ele>
        <time>2018-07-14T11:27:55Z</time>
      </trkpt>
      <trkpt lat="47.77687" lon="-3.59667">
        <ele>27</ele>
        <time>2018-07-14T11:27:56Z</time>
      </trkpt>
      <trkpt lat="47.77687" lon="-3.59678">
        <ele>27</ele>
        <time>2018-07-14T11:27:57Z</time>
      </trkpt>
      <trkpt lat="47.77687" lon="-3.5969">
        <ele>26</ele>
        <time>2018-07-14T11:27:58Z</time>
      </trkpt>
      <trkpt lat="47.77687" lon="-3.59701">
        <ele>26</ele>
        <time>2018-07-14T11:27:59Z</time>
      </trkpt>
      <trkpt lat="47.77686" lon="-3.59712">
        <ele>26</ele>
        <time>2018-07-14T11:28:00Z</time>
      </trkpt>
      <trkpt lat="47.77686" lon="-3.59723">
        <ele>25</ele>
        <time>2018-07-14T11:28:01Z</time>
      </trkpt>
      <trkpt lat="47.77686" lon="-3.59734">
        <ele>25</ele>
        <time>2018-07-14T11:28:02Z</time>
      </trkpt>
      <trkpt lat="47.77685" lon="-3.59746">
        <ele>25</ele>
        <time>2018-07-14T11:28:03Z</time>
      </trkpt>
      <trkpt lat="47.77685" lon="-3.59758">
        <ele>24</ele>
        <time>2018-07-14T11:28:04Z</time>
      </trkpt>
      <trkpt lat="47.77684" lon="-3.5977">
        <ele>24</ele>
        <time>2018-07-14T11:28:05Z</time>
      </trkpt>
      <trkpt lat="47.77684" lon="-3.59782">
        <ele>24</ele>
        <time>2018-07-14T11:28:06Z</time>
      </trkpt>
      <trkpt lat="47.77684" lon="-3.59795">
        <ele>23</ele>
        <time>2018-07-14T11:28:07Z</time>
      </trkpt>
      <trkpt lat="47.77683" lon="-3.59807">
        <ele>23</ele>
        <time>2018-07-14T11:28:08Z</time>
      </trkpt>
      <trkpt lat="47.77683" lon="-3.5982">
        <ele>22</ele>
        <time>2018-07-14T11:28:09Z</time>
      </trkpt>
      <trkpt lat="47.77682" lon="-3.59832">
        <ele>22</ele>
        <time>2018-07-14T11:28:10Z</time>
      </trkpt>
      <trkpt lat="47.77682" lon="-3.59845">
        <ele>21</ele>
        <time>2018-07-14T11:28:11Z</time>
      </trkpt>
      <trkpt lat="47.77681" lon="-3.59857">
        <ele>21</ele>
        <time>2018-07-14T11:28:12Z</time>
      </trkpt>
      <trkpt lat="47.77681" lon="-3.59869">
        <ele>21</ele>
        <time>2018-07-14T11:28:13Z</time>
      </trkpt>
      <trkpt lat="47.7768" lon="-3.59881">
        <ele>20</ele>
        <time>2018-07-14T11:28:14Z</time>
      </trkpt>
      <trkpt lat="47.7768" lon="-3.59893">
        <ele>20</ele>
        <time>2018-07-14T11:28:15Z</time>
      </trkpt>
      <trkpt lat="47.7768" lon="-3.59904">
        <ele>20</ele>
        <time>2018-07-14T11:28:16Z</time>
      </trkpt>
      <trkpt lat="47.7768" lon="-3.59916">
        <ele>19</ele>
        <time>2018-07-14T11:28:17Z</time>
      </trkpt>
      <trkpt lat="47.7768" lon="-3.59927">
        <ele>19</ele>
        <time>2018-07-14T11:28:18Z</time>
      </trkpt>
      <trkpt lat="47.7768" lon="-3.59939">
        <ele>19</ele>
        <time>2018-07-14T11:28:19Z</time>
      </trkpt>
      <trkpt lat="47.7768" lon="-3.5995">
        <ele>18</ele>
        <time>2018-07-14T11:28:20Z</time>
      </trkpt>
      <trkpt lat="47.7768" lon="-3.59962">
        <ele>18</ele>
        <time>2018-07-14T11:28:21Z</time>
      </trkpt>
      <trkpt lat="47.7768" lon="-3.59973">
        <ele>18</ele>
        <time>2018-07-14T11:28:22Z</time>
      </trkpt>
      <trkpt lat="47.7768" lon="-3.59985">
        <ele>18</ele>
        <time>2018-07-14T11:28:23Z</time>
      </trkpt>
      <trkpt lat="47.7768" lon="-3.59997">
        <ele>17</ele>
        <time>2018-07-14T11:28:24Z</time>
      </trkpt>
      <trkpt lat="47.77681" lon="-3.60008">
        <ele>17</ele>
        <time>2018-07-14T11:28:25Z</time>
      </trkpt>
      <trkpt lat="47.77681" lon="-3.6002">
        <ele>17</ele>
        <time>2018-07-14T11:28:26Z</time>
      </trkpt>
      <trkpt lat="47.77682" lon="-3.60031">
        <ele>17</ele>
        <time>2018-07-14T11:28:27Z</time>
      </trkpt>
      <trkpt lat="47.77682" lon="-3.60042">
        <ele>16</ele>
        <time>2018-07-14T11:28:28Z</time>
      </trkpt>
      <trkpt lat="47.77682" lon="-3.60054">
        <ele>16</ele>
        <time>2018-07-14T11:28:29Z</time>
      </trkpt>
      <trkpt lat="47.77682" lon="-3.60066">
        <ele>16</ele>
        <time>2018-07-14T11:28:30Z</time>
      </trkpt>
      <trkpt lat="47.77681" lon="-3.60078">
        <ele>16</ele>
        <time>2018-07-14T11:28:31Z</time>
      </trkpt>
      <trkpt lat="47.77681" lon="-3.6009">
        <ele>16</ele>
        <time>2018-07-14T11:28:32Z</time>
      </trkpt>
      <trkpt lat="47.77681" lon="-3.60102">
        <ele>15</ele>
        <time>2018-07-14T11:28:33Z</time>
      </trkpt>
      <trkpt lat="47.7768" lon="-3.60114">
        <ele>15</ele>
        <time>2018-07-14T11:28:34Z</time>
      </trkpt>
      <trkpt lat="47.77678" lon="-3.60126">
        <ele>15</ele>
        <time>2018-07-14T11:28:35Z</time>
      </trkpt>
      <trkpt lat="47.77676" lon="-3.60138">
        <ele>15</ele>
        <time>2018-07-14T11:28:36Z</time>
      </trkpt>
      <trkpt lat="47.77673" lon="-3.60149">
        <ele>14</ele>
        <time>2018-07-14T11:28:37Z</time>
      </trkpt>
      <trkpt lat="47.77669" lon="-3.60161">
        <ele>14</ele>
        <time>2018-07-14T11:28:38Z</time>
      </trkpt>
      <trkpt lat="47.77665" lon="-3.60172">
        <ele>14</ele>
        <time>2018-07-14T11:28:39Z</time>
      </trkpt>
      <trkpt lat="47.7766" lon="-3.60183">
        <ele>13</ele>
        <time>2018-07-14T11:28:40Z</time>
      </trkpt>
      <trkpt lat="47.77654" lon="-3.60193">
        <ele>13</ele>
        <time>2018-07-14T11:28:41Z</time>
      </trkpt>
      <trkpt lat="47.7765" lon="-3.60203">
        <ele>13</ele>
        <time>2018-07-14T11:28:42Z</time>
      </trkpt>
      <trkpt lat="47.77646" lon="-3.60213">
        <ele>13</ele>
        <time>2018-07-14T11:28:43Z</time>
      </trkpt>
      <trkpt lat="47.77644" lon="-3.60222">
        <ele>12</ele>
        <time>2018-07-14T11:28:44Z</time>
      </trkpt>
      <trkpt lat="47.77641" lon="-3.60233">
        <ele>12</ele>
        <time>2018-07-14T11:28:45Z</time>
      </trkpt>
      <trkpt lat="47.77639" lon="-3.60244">
        <ele>12</ele>
        <time>2018-07-14T11:28:46Z</time>
      </trkpt>
      <trkpt lat="47.7764" lon="-3.60254">
        <ele>12</ele>
        <time>2018-07-14T11:28:47Z</time>
      </trkpt>
      <trkpt lat="47.77641" lon="-3.60263">
        <ele>12</ele>
        <time>2018-07-14T11:28:48Z</time>
      </trkpt>
      <trkpt lat="47.77642" lon="-3.60271">
        <ele>12</ele>
        <time>2018-07-14T11:28:49Z</time>
      </trkpt>
      <trkpt lat="47.77643" lon="-3.60278">
        <ele>12</ele>
        <time>2018-07-14T11:28:50Z</time>
      </trkpt>
      <trkpt lat="47.77644" lon="-3.60285">
        <ele>12</ele>
        <time>2018-07-14T11:28:51Z</time>
      </trkpt>
      <trkpt lat="47.77645" lon="-3.60292">
        <ele>12</ele>
        <time>2018-07-14T11:28:52Z</time>
      </trkpt>
      <trkpt lat="47.77646" lon="-3.60298">
        <ele>12</ele>
        <time>2018-07-14T11:28:53Z</time>
      </trkpt>
      <trkpt lat="47.77647" lon="-3.60304">
        <ele>12</ele>
        <time>2018-07-14T11:28:54Z</time>
      </trkpt>
      <trkpt lat="47.77648" lon="-3.6031">
        <ele>13</ele>
        <time>2018-07-14T11:28:55Z</time>
      </trkpt>
      <trkpt lat="47.77649" lon="-3.60314">
        <ele>13</ele>
        <time>2018-07-14T11:28:56Z</time>
      </trkpt>
      <trkpt lat="47.7765" lon="-3.6032">
        <ele>13</ele>
        <time>2018-07-14T11:28:57Z</time>
      </trkpt>
      <trkpt lat="47.7765" lon="-3.60325">
        <ele>13</ele>
        <time>2018-07-14T11:28:58Z</time>
      </trkpt>
      <trkpt lat="47.7765" lon="-3.6033">
        <ele>13</ele>
        <time>2018-07-14T11:28:59Z</time>
      </trkpt>
      <trkpt lat="47.7765" lon="-3.60335">
        <ele>13</ele>
        <time>2018-07-14T11:29:00Z</time>
      </trkpt>
      <trkpt lat="47.7765" lon="-3.6034">
        <ele>13</ele>
        <time>2018-07-14T11:29:01Z</time>
      </trkpt>
      <trkpt lat="47.77649" lon="-3.60345">
        <ele>13</ele>
        <time>2018-07-14T11:29:02Z</time>
      </trkpt>
      <trkpt lat="47.77648" lon="-3.60351">
        <ele>13</ele>
        <time>2018-07-14T11:29:03Z</time>
      </trkpt>
      <trkpt lat="47.77646" lon="-3.60356">
        <ele>13</ele>
        <time>2018-07-14T11:29:04Z</time>
      </trkpt>
      <trkpt lat="47.77644" lon="-3.60361">
        <ele>13</ele>
        <time>2018-07-14T11:29:05Z</time>
      </trkpt>
      <trkpt lat="47.77641" lon="-3.60365">
        <ele>14</ele>
        <time>2018-07-14T11:29:06Z</time>
      </trkpt>
      <trkpt lat="47.77638" lon="-3.60368">
        <ele>14</ele>
        <time>2018-07-14T11:29:07Z</time>
      </trkpt>
      <trkpt lat="47.77634" lon="-3.60371">
        <ele>14</ele>
        <time>2018-07-14T11:29:08Z</time>
      </trkpt>
      <trkpt lat="47.77631" lon="-3.60372">
        <ele>14</ele>
        <time>2018-07-14T11:29:09Z</time>
      </trkpt>
      <trkpt lat="47.77627" lon="-3.60373">
        <ele>14</ele>
        <time>2018-07-14T11:29:10Z</time>
      </trkpt>
      <trkpt lat="47.77623" lon="-3.60373">
        <ele>14</ele>
        <time>2018-07-14T11:29:11Z</time>
      </trkpt>
      <trkpt lat="47.77619" lon="-3.60373">
        <ele>14</ele>
        <time>2018-07-14T11:29:12Z</time>
      </trkpt>
      <trkpt lat="47.77615" lon="-3.60373">
        <ele>14</ele>
        <time>2018-07-14T11:29:13Z</time>
      </trkpt>
      <trkpt lat="47.7761" lon="-3.60373">
        <ele>14</ele>
        <time>2018-07-14T11:29:14Z</time>
      </trkpt>
      <trkpt lat="47.77605" lon="-3.60373">
        <ele>14</ele>
        <time>2018-07-14T11:29:15Z</time>
      </trkpt>
      <trkpt lat="47.77601" lon="-3.60374">
        <ele>14</ele>
        <time>2018-07-14T11:29:16Z</time>
      </trkpt>
      <trkpt lat="47.77595" lon="-3.60374">
        <ele>14</ele>
        <time>2018-07-14T11:29:17Z</time>
      </trkpt>
      <trkpt lat="47.7759" lon="-3.60375">
        <ele>14</ele>
        <time>2018-07-14T11:29:18Z</time>
      </trkpt>
      <trkpt lat="47.77585" lon="-3.60375">
        <ele>14</ele>
        <time>2018-07-14T11:29:19Z</time>
      </trkpt>
      <trkpt lat="47.7758" lon="-3.60377">
        <ele>14</ele>
        <time>2018-07-14T11:29:20Z</time>
      </trkpt>
      <trkpt lat="47.77574" lon="-3.60379">
        <ele>14</ele>
        <time>2018-07-14T11:29:21Z</time>
      </trkpt>
      <trkpt lat="47.77569" lon="-3.60381">
        <ele>14</ele>
        <time>2018-07-14T11:29:22Z</time>
      </trkpt>
      <trkpt lat="47.77564" lon="-3.60385">
        <ele>14</ele>
        <time>2018-07-14T11:29:23Z</time>
      </trkpt>
      <trkpt lat="47.77559" lon="-3.60389">
        <ele>14</ele>
        <time>2018-07-14T11:29:24Z</time>
      </trkpt>
      <trkpt lat="47.77554" lon="-3.60393">
        <ele>14</ele>
        <time>2018-07-14T11:29:25Z</time>
      </trkpt>
      <trkpt lat="47.7755" lon="-3.60398">
        <ele>14</ele>
        <time>2018-07-14T11:29:26Z</time>
      </trkpt>
      <trkpt lat="47.77546" lon="-3.60404">
        <ele>14</ele>
        <time>2018-07-14T11:29:27Z</time>
      </trkpt>
      <trkpt lat="47.77542" lon="-3.60409">
        <ele>14</ele>
        <time>2018-07-14T11:29:28Z</time>
      </trkpt>
      <trkpt lat="47.7754" lon="-3.60415">
        <ele>14</ele>
        <time>2018-07-14T11:29:29Z</time>
      </trkpt>
      <trkpt lat="47.77537" lon="-3.60421">
        <ele>14</ele>
        <time>2018-07-14T11:29:30Z</time>
      </trkpt>
      <trkpt lat="47.77534" lon="-3.60428">
        <ele>14</ele>
        <time>2018-07-14T11:29:31Z</time>
      </trkpt>
      <trkpt lat="47.7753" lon="-3.60434">
        <ele>14</ele>
        <time>2018-07-14T11:29:32Z</time>
      </trkpt>
      <trkpt lat="47.77526" lon="-3.6044">
        <ele>14</ele>
        <time>2018-07-14T11:29:33Z</time>
      </trkpt>
      <trkpt lat="47.77521" lon="-3.60446">
        <ele>14</ele>
        <time>2018-07-14T11:29:34Z</time>
      </trkpt>
      <trkpt lat="47.77515" lon="-3.60452">
        <ele>14</ele>
        <time>2018-07-14T11:29:35Z</time>
      </trkpt>
      <trkpt lat="47.7751" lon="-3.60458">
        <ele>13</ele>
        <time>2018-07-14T11:29:36Z</time>
      </trkpt>
      <trkpt lat="47.77503" lon="-3.60463">
        <ele>13</ele>
        <time>2018-07-14T11:29:37Z</time>
      </trkpt>
      <trkpt lat="47.77496" lon="-3.60468">
        <ele>13</ele>
        <time>2018-07-14T11:29:38Z</time>
      </trkpt>
      <trkpt lat="47.7749" lon="-3.60471">
        <ele>13</ele>
        <time>2018-07-14T11:29:39Z</time>
      </trkpt>
      <trkpt lat="47.77483" lon="-3.60475">
        <ele>13</ele>
        <time>2018-07-14T11:29:40Z</time>
      </trkpt>
      <trkpt lat="47.77477" lon="-3.60478">
        <ele>13</ele>
        <time>2018-07-14T11:29:41Z</time>
      </trkpt>
      <trkpt lat="47.7747" lon="-3.60479">
        <ele>13</ele>
        <time>2018-07-14T11:29:42Z</time>
      </trkpt>
      <trkpt lat="47.77464" lon="-3.60481">
        <ele>13</ele>
        <time>2018-07-14T11:29:43Z</time>
      </trkpt>
      <trkpt lat="47.77458" lon="-3.60483">
        <ele>13</ele>
        <time>2018-07-14T11:29:44Z</time>
      </trkpt>
      <trkpt lat="47.77453" lon="-3.60485">
        <ele>13</ele>
        <time>2018-07-14T11:29:45Z</time>
      </trkpt>
      <trkpt lat="47.77447" lon="-3.60488">
        <ele>13</ele>
        <time>2018-07-14T11:29:46Z</time>
      </trkpt>
      <trkpt lat="47.77442" lon="-3.60492">
        <ele>13</ele>
        <time>2018-07-14T11:29:47Z</time>
      </trkpt>
      <trkpt lat="47.77437" lon="-3.60497">
        <ele>13</ele>
        <time>2018-07-14T11:29:48Z</time>
      </trkpt>
      <trkpt lat="47.77433" lon="-3.60503">
        <ele>13</ele>
        <time>2018-07-14T11:29:49Z</time>
      </trkpt>
      <trkpt lat="47.77429" lon="-3.60509">
        <ele>13</ele>
        <time>2018-07-14T11:29:50Z</time>
      </trkpt>
      <trkpt lat="47.77427" lon="-3.60516">
        <ele>14</ele>
        <time>2018-07-14T11:29:51Z</time>
      </trkpt>
      <trkpt lat="47.77424" lon="-3.60523">
        <ele>14</ele>
        <time>2018-07-14T11:29:52Z</time>
      </trkpt>
      <trkpt lat="47.77423" lon="-3.6053">
        <ele>14</ele>
        <time>2018-07-14T11:29:53Z</time>
      </trkpt>
      <trkpt lat="47.77421" lon="-3.60538">
        <ele>14</ele>
        <time>2018-07-14T11:29:54Z</time>
      </trkpt>
      <trkpt lat="47.77419" lon="-3.60546">
        <ele>14</ele>
        <time>2018-07-14T11:29:55Z</time>
      </trkpt>
      <trkpt lat="47.77417" lon="-3.60553">
        <ele>14</ele>
        <time>2018-07-14T11:29:56Z</time>
      </trkpt>
      <trkpt lat="47.77415" lon="-3.6056">
        <ele>14</ele>
        <time>2018-07-14T11:29:57Z</time>
      </trkpt>
      <trkpt lat="47.77412" lon="-3.60567">
        <ele>15</ele>
        <time>2018-07-14T11:29:58Z</time>
      </trkpt>
      <trkpt lat="47.7741" lon="-3.60575">
        <ele>15</ele>
        <time>2018-07-14T11:29:59Z</time>
      </trkpt>
      <trkpt lat="47.77407" lon="-3.60582">
        <ele>15</ele>
        <time>2018-07-14T11:30:00Z</time>
      </trkpt>
      <trkpt lat="47.77404" lon="-3.60589">
        <ele>15</ele>
        <time>2018-07-14T11:30:01Z</time>
      </trkpt>
      <trkpt lat="47.77401" lon="-3.60596">
        <ele>15</ele>
        <time>2018-07-14T11:30:02Z</time>
      </trkpt>
      <trkpt lat="47.77398" lon="-3.60603">
        <ele>15</ele>
        <time>2018-07-14T11:30:03Z</time>
      </trkpt>
      <trkpt lat="47.77395" lon="-3.6061">
        <ele>15</ele>
        <time>2018-07-14T11:30:04Z</time>
      </trkpt>
      <trkpt lat="47.77393" lon="-3.60618">
        <ele>15</ele>
        <time>2018-07-14T11:30:05Z</time>
      </trkpt>
      <trkpt lat="47.77391" lon="-3.60626">
        <ele>15</ele>
        <time>2018-07-14T11:30:06Z</time>
      </trkpt>
      <trkpt lat="47.7739" lon="-3.60634">
        <ele>15</ele>
        <time>2018-07-14T11:30:07Z</time>
      </trkpt>
      <trkpt lat="47.77388" lon="-3.60642">
        <ele>15</ele>
        <time>2018-07-14T11:30:08Z</time>
      </trkpt>
      <trkpt lat="47.77387" lon="-3.6065">
        <ele>15</ele>
        <time>2018-07-14T11:30:09Z</time>
      </trkpt>
      <trkpt lat="47.77385" lon="-3.60658">
        <ele>15</ele>
        <time>2018-07-14T11:30:10Z</time>
      </trkpt>
      <trkpt lat="47.77384" lon="-3.60666">
        <ele>15</ele>
        <time>2018-07-14T11:30:11Z</time>
      </trkpt>
      <trkpt lat="47.77382" lon="-3.60673">
        <ele>15</ele>
        <time>2018-07-14T11:30:12Z</time>
      </trkpt>
      <trkpt lat="47.77381" lon="-3.60681">
        <ele>15</ele>
        <time>2018-07-14T11:30:13Z</time>
      </trkpt>
      <trkpt lat="47.7738" lon="-3.60688">
        <ele>15</ele>
        <time>2018-07-14T11:30:14Z</time>
      </trkpt>
      <trkpt lat="47.77378" lon="-3.60696">
        <ele>15</ele>
        <time>2018-07-14T11:30:15Z</time>
      </trkpt>
      <trkpt lat="47.77377" lon="-3.60704">
        <ele>15</ele>
        <time>2018-07-14T11:30:16Z</time>
      </trkpt>
      <trkpt lat="47.77375" lon="-3.60712">
        <ele>15</ele>
        <time>2018-07-14T11:30:17Z</time>
      </trkpt>
      <trkpt lat="47.77373" lon="-3.6072">
        <ele>15</ele>
        <time>2018-07-14T11:30:18Z</time>
      </trkpt>
      <trkpt lat="47.77372" lon="-3.60727">
        <ele>15</ele>
        <time>2018-07-14T11:30:19Z</time>
      </trkpt>
      <trkpt lat="47.77369" lon="-3.60734">
        <ele>15</ele>
        <time>2018-07-14T11:30:20Z</time>
      </trkpt>
      <trkpt lat="47.77367" lon="-3.6074">
        <ele>15</ele>
        <time>2018-07-14T11:30:21Z</time>
      </trkpt>
      <trkpt lat="47.77365" lon="-3.60745">
        <ele>15</ele>
        <time>2018-07-14T11:30:22Z</time>
      </trkpt>
      <trkpt lat="47.77362" lon="-3.6075">
        <ele>15</ele>
        <time>2018-07-14T11:30:23Z</time>
      </trkpt>
      <trkpt lat="47.7736" lon="-3.60755">
        <ele>15</ele>
        <time>2018-07-14T11:30:24Z</time>
      </trkpt>
      <trkpt lat="47.77357" lon="-3.6076">
        <ele>16</ele>
        <time>2018-07-14T11:30:25Z</time>
      </trkpt>
      <trkpt lat="47.77354" lon="-3.60764">
        <ele>16</ele>
        <time>2018-07-14T11:30:26Z</time>
      </trkpt>
      <trkpt lat="47.7735" lon="-3.60769">
        <ele>16</ele>
        <time>2018-07-14T11:30:27Z</time>
      </trkpt>
      <trkpt lat="47.77346" lon="-3.60773">
        <ele>16</ele>
        <time>2018-07-14T11:30:28Z</time>
      </trkpt>
      <trkpt lat="47.77342" lon="-3.60777">
        <ele>16</ele>
        <time>2018-07-14T11:30:29Z</time>
      </trkpt>
      <trkpt lat="47.77337" lon="-3.60781">
        <ele>15</ele>
        <time>2018-07-14T11:30:30Z</time>
      </trkpt>
      <trkpt lat="47.77333" lon="-3.60784">
        <ele>15</ele>
        <time>2018-07-14T11:30:31Z</time>
      </trkpt>
      <trkpt lat="47.77328" lon="-3.60787">
        <ele>15</ele>
        <time>2018-07-14T11:30:32Z</time>
      </trkpt>
      <trkpt lat="47.77323" lon="-3.60791">
        <ele>15</ele>
        <time>2018-07-14T11:30:33Z</time>
      </trkpt>
      <trkpt lat="47.77319" lon="-3.60795">
        <ele>15</ele>
        <time>2018-07-14T11:30:34Z</time>
      </trkpt>
      <trkpt lat="47.77316" lon="-3.60798">
        <ele>15</ele>
        <time>2018-07-14T11:30:35Z</time>
      </trkpt>
      <trkpt lat="47.77312" lon="-3.60801">
        <ele>15</ele>
        <time>2018-07-14T11:30:36Z</time>
      </trkpt>
      <trkpt lat="47.77307" lon="-3.60803">
        <ele>15</ele>
        <time>2018-07-14T11:30:37Z</time>
      </trkpt>
      <trkpt lat="47.77303" lon="-3.60806">
        <ele>15</ele>
        <time>2018-07-14T11:30:38Z</time>
      </trkpt>
      <trkpt lat="47.77299" lon="-3.60807">
        <ele>15</ele>
        <time>2018-07-14T11:30:39Z</time>
      </trkpt>
      <trkpt lat="47.77295" lon="-3.60809">
        <ele>15</ele>
        <time>2018-07-14T11:30:40Z</time>
      </trkpt>
      <trkpt lat="47.77291" lon="-3.60811">
        <ele>15</ele>
        <time>2018-07-14T11:30:41Z</time>
      </trkpt>
      <trkpt lat="47.77286" lon="-3.60812">
        <ele>15</ele>
        <time>2018-07-14T11:30:42Z</time>
      </trkpt>
      <trkpt lat="47.77282" lon="-3.60813">
        <ele>15</ele>
        <time>2018-07-14T11:30:43Z</time>
      </trkpt>
      <trkpt lat="47.77278" lon="-3.60814">
        <ele>15</ele>
        <time>2018-07-14T11:30:44Z</time>
      </trkpt>
      <trkpt lat="47.77274" lon="-3.60815">
        <ele>15</ele>
        <time>2018-07-14T11:30:45Z</time>
      </trkpt>
      <trkpt lat="47.77271" lon="-3.60815">
        <ele>16</ele>
        <time>2018-07-14T11:30:46Z</time>
      </trkpt>
      <trkpt lat="47.77267" lon="-3.60816">
        <ele>16</ele>
        <time>2018-07-14T11:30:47Z</time>
      </trkpt>
      <trkpt lat="47.77263" lon="-3.60817">
        <ele>16</ele>
        <time>2018-07-14T11:30:48Z</time>
      </trkpt>
      <trkpt lat="47.7726" lon="-3.60817">
        <ele>16</ele>
        <time>2018-07-14T11:30:49Z</time>
      </trkpt>
      <trkpt lat="47.77256" lon="-3.60817">
        <ele>16</ele>
        <time>2018-07-14T11:30:50Z</time>
      </trkpt>
      <trkpt lat="47.77252" lon="-3.60818">
        <ele>16</ele>
        <time>2018-07-14T11:30:51Z</time>
      </trkpt>
      <trkpt lat="47.77248" lon="-3.60819">
        <ele>17</ele>
        <time>2018-07-14T11:30:52Z</time>
      </trkpt>
      <trkpt lat="47.77244" lon="-3.60821">
        <ele>17</ele>
        <time>2018-07-14T11:30:53Z</time>
      </trkpt>
      <trkpt lat="47.7724" lon="-3.60823">
        <ele>17</ele>
        <time>2018-07-14T11:30:54Z</time>
      </trkpt>
      <trkpt lat="47.77236" lon="-3.60825">
        <ele>17</ele>
        <time>2018-07-14T11:30:55Z</time>
      </trkpt>
      <trkpt lat="47.77232" lon="-3.60826">
        <ele>17</ele>
        <time>2018-07-14T11:30:56Z</time>
      </trkpt>
      <trkpt lat="47.77228" lon="-3.60828">
        <ele>17</ele>
        <time>2018-07-14T11:30:57Z</time>
      </trkpt>
      <trkpt lat="47.77224" lon="-3.6083">
        <ele>17</ele>
        <time>2018-07-14T11:30:58Z</time>
      </trkpt>
      <trkpt lat="47.77219" lon="-3.60832">
        <ele>18</ele>
        <time>2018-07-14T11:30:59Z</time>
      </trkpt>
      <trkpt lat="47.77215" lon="-3.60833">
        <ele>18</ele>
        <time>2018-07-14T11:31:00Z</time>
      </trkpt>
      <trkpt lat="47.77211" lon="-3.60835">
        <ele>18</ele>
        <time>2018-07-14T11:31:01Z</time>
      </trkpt>
      <trkpt lat="47.77207" lon="-3.60836">
        <ele>18</ele>
        <time>2018-07-14T11:31:02Z</time>
      </trkpt>
      <trkpt lat="47.77204" lon="-3.60836">
        <ele>18</ele>
        <time>2018-07-14T11:31:03Z</time>
      </trkpt>
      <trkpt lat="47.772" lon="-3.60836">
        <ele>19</ele>
        <time>2018-07-14T11:31:04Z</time>
      </trkpt>
      <trkpt lat="47.77198" lon="-3.60832">
        <ele>19</ele>
        <time>2018-07-14T11:31:05Z</time>
      </trkpt>
      <trkpt lat="47.77197" lon="-3.60828">
        <ele>19</ele>
        <time>2018-07-14T11:31:06Z</time>
      </trkpt>
      <trkpt lat="47.77196" lon="-3.60824">
        <ele>20</ele>
        <time>2018-07-14T11:31:07Z</time>
      </trkpt>
      <trkpt lat="47.77198" lon="-3.60819">
        <ele>20</ele>
        <time>2018-07-14T11:31:08Z</time>
      </trkpt>
      <trkpt lat="47.77199" lon="-3.60815">
        <ele>20</ele>
        <time>2018-07-14T11:31:09Z</time>
      </trkpt>
      <trkpt lat="47.77201" lon="-3.60811">
        <ele>20</ele>
        <time>2018-07-14T11:31:10Z</time>
      </trkpt>
      <trkpt lat="47.77203" lon="-3.60807">
        <ele>20</ele>
        <time>2018-07-14T11:31:11Z</time>
      </trkpt>
      <trkpt lat="47.77204" lon="-3.60802">
        <ele>21</ele>
        <time>2018-07-14T11:31:12Z</time>
      </trkpt>
      <trkpt lat="47.77206" lon="-3.60798">
        <ele>21</ele>
        <time>2018-07-14T11:31:13Z</time>
      </trkpt>
      <trkpt lat="47.77207" lon="-3.60793">
        <ele>21</ele>
        <time>2018-07-14T11:31:14Z</time>
      </trkpt>
      <trkpt lat="47.77207" lon="-3.60788">
        <ele>21</ele>
        <time>2018-07-14T11:31:15Z</time>
      </trkpt>
      <trkpt lat="47.77208" lon="-3.60783">
        <ele>21</ele>
        <time>2018-07-14T11:31:16Z</time>
      </trkpt>
      <trkpt lat="47.77208" lon="-3.60778">
        <ele>22</ele>
        <time>2018-07-14T11:31:17Z</time>
      </trkpt>
      <trkpt lat="47.77208" lon="-3.60773">
        <ele>22</ele>
        <time>2018-07-14T11:31:18Z</time>
      </trkpt>
      <trkpt lat="47.77208" lon="-3.60767">
        <ele>22</ele>
        <time>2018-07-14T11:31:19Z</time>
      </trkpt>
      <trkpt lat="47.77208" lon="-3.60762">
        <ele>22</ele>
        <time>2018-07-14T11:31:20Z</time>
      </trkpt>
      <trkpt lat="47.77208" lon="-3.60757">
        <ele>22</ele>
        <time>2018-07-14T11:31:21Z</time>
      </trkpt>
      <trkpt lat="47.77208" lon="-3.60751">
        <ele>22</ele>
        <time>2018-07-14T11:31:22Z</time>
      </trkpt>
      <trkpt lat="47.77207" lon="-3.60746">
        <ele>23</ele>
        <time>2018-07-14T11:31:23Z</time>
      </trkpt>
      <trkpt lat="47.77206" lon="-3.6074">
        <ele>23</ele>
        <time>2018-07-14T11:31:24Z</time>
      </trkpt>
      <trkpt lat="47.77205" lon="-3.60734">
        <ele>23</ele>
        <time>2018-07-14T11:31:25Z</time>
      </trkpt>
      <trkpt lat="47.77204" lon="-3.60729">
        <ele>23</ele>
        <time>2018-07-14T11:31:26Z</time>
      </trkpt>
      <trkpt lat="47.77202" lon="-3.60724">
        <ele>23</ele>
        <time>2018-07-14T11:31:27Z</time>
      </trkpt>
      <trkpt lat="47.772" lon="-3.60718">
        <ele>23</ele>
        <time>2018-07-14T11:31:28Z</time>
      </trkpt>
      <trkpt lat="47.77198" lon="-3.60714">
        <ele>23</ele>
        <time>2018-07-14T11:31:29Z</time>
      </trkpt>
      <trkpt lat="47.77195" lon="-3.60709">
        <ele>23</ele>
        <time>2018-07-14T11:31:30Z</time>
      </trkpt>
      <trkpt lat="47.77193" lon="-3.60704">
        <ele>24</ele>
        <time>2018-07-14T11:31:31Z</time>
      </trkpt>
      <trkpt lat="47.77191" lon="-3.60698">
        <ele>24</ele>
        <time>2018-07-14T11:31:32Z</time>
      </trkpt>
      <trkpt lat="47.77189" lon="-3.60692">
        <ele>24</ele>
        <time>2018-07-14T11:31:33Z</time>
      </trkpt>
      <trkpt lat="47.77188" lon="-3.60686">
        <ele>24</ele>
        <time>2018-07-14T11:31:34Z</time>
      </trkpt>
      <trkpt lat="47.77186" lon="-3.6068">
        <ele>24</ele>
        <time>2018-07-14T11:31:35Z</time>
      </trkpt>
      <trkpt lat="47.77185" lon="-3.60674">
        <ele>24</ele>
        <time>2018-07-14T11:31:36Z</time>
      </trkpt>
      <trkpt lat="47.77184" lon="-3.60667">
        <ele>24</ele>
        <time>2018-07-14T11:31:37Z</time>
      </trkpt>
      <trkpt lat="47.77183" lon="-3.60661">
        <ele>24</ele>
        <time>2018-07-14T11:31:38Z</time>
      </trkpt>
      <trkpt lat="47.77182" lon="-3.60654">
        <ele>24</ele>
        <time>2018-07-14T11:31:39Z</time>
      </trkpt>
      <trkpt lat="47.77181" lon="-3.60647">
        <ele>25</ele>
        <time>2018-07-14T11:31:40Z</time>
      </trkpt>
      <trkpt lat="47.77181" lon="-3.6064">
        <ele>25</ele>
        <time>2018-07-14T11:31:41Z</time>
      </trkpt>
      <trkpt lat="47.77181" lon="-3.60633">
        <ele>25</ele>
        <time>2018-07-14T11:31:42Z</time>
      </trkpt>
      <trkpt lat="47.7718" lon="-3.60626">
        <ele>25</ele>
        <time>2018-07-14T11:31:43Z</time>
      </trkpt>
      <trkpt lat="47.77179" lon="-3.60619">
        <ele>25</ele>
        <time>2018-07-14T11:31:44Z</time>
      </trkpt>
      <trkpt lat="47.77178" lon="-3.60612">
        <ele>25</ele>
        <time>2018-07-14T11:31:45Z</time>
      </trkpt>
      <trkpt lat="47.77178" lon="-3.60605">
        <ele>25</ele>
        <time>2018-07-14T11:31:46Z</time>
      </trkpt>
      <trkpt lat="47.77178" lon="-3.60598">
        <ele>25</ele>
        <time>2018-07-14T11:31:47Z</time>
      </trkpt>
      <trkpt lat="47.77177" lon="-3.60591">
        <ele>25</ele>
        <time>2018-07-14T11:31:48Z</time>
      </trkpt>
      <trkpt lat="47.77177" lon="-3.60583">
        <ele>25</ele>
        <time>2018-07-14T11:31:49Z</time>
      </trkpt>
      <trkpt lat="47.77176" lon="-3.60576">
        <ele>25</ele>
        <time>2018-07-14T11:31:50Z</time>
      </trkpt>
      <trkpt lat="47.77176" lon="-3.60568">
        <ele>25</ele>
        <time>2018-07-14T11:31:51Z</time>
      </trkpt>
      <trkpt lat="47.77175" lon="-3.60561">
        <ele>26</ele>
        <time>2018-07-14T11:31:52Z</time>
      </trkpt>
      <trkpt lat="47.77175" lon="-3.60553">
        <ele>26</ele>
        <time>2018-07-14T11:31:53Z</time>
      </trkpt>
      <trkpt lat="47.77175" lon="-3.60546">
        <ele>26</ele>
        <time>2018-07-14T11:31:54Z</time>
      </trkpt>
      <trkpt lat="47.77174" lon="-3.60538">
        <ele>26</ele>
        <time>2018-07-14T11:31:55Z</time>
      </trkpt>
      <trkpt lat="47.77174" lon="-3.6053">
        <ele>26</ele>
        <time>2018-07-14T11:31:56Z</time>
      </trkpt>
      <trkpt lat="47.77173" lon="-3.60522">
        <ele>26</ele>
        <time>2018-07-14T11:31:57Z</time>
      </trkpt>
      <trkpt lat="47.77172" lon="-3.60514">
        <ele>26</ele>
        <time>2018-07-14T11:31:58Z</time>
      </trkpt>
      <trkpt lat="47.77172" lon="-3.60506">
        <ele>26</ele>
        <time>2018-07-14T11:31:59Z</time>
      </trkpt>
      <trkpt lat="47.77172" lon="-3.60498">
        <ele>26</ele>
        <time>2018-07-14T11:32:00Z</time>
      </trkpt>
      <trkpt lat="47.77171" lon="-3.6049">
        <ele>26</ele>
        <time>2018-07-14T11:32:01Z</time>
      </trkpt>
      <trkpt lat="47.77171" lon="-3.60482">
        <ele>27</ele>
        <time>2018-07-14T11:32:02Z</time>
      </trkpt>
      <trkpt lat="47.7717" lon="-3.60475">
        <ele>27</ele>
        <time>2018-07-14T11:32:03Z</time>
      </trkpt>
      <trkpt lat="47.7717" lon="-3.60467">
        <ele>27</ele>
        <time>2018-07-14T11:32:04Z</time>
      </trkpt>
      <trkpt lat="47.7717" lon="-3.6046">
        <ele>27</ele>
        <time>2018-07-14T11:32:05Z</time>
      </trkpt>
      <trkpt lat="47.77169" lon="-3.60452">
        <ele>27</ele>
        <time>2018-07-14T11:32:06Z</time>
      </trkpt>
      <trkpt lat="47.77169" lon="-3.60445">
        <ele>27</ele>
        <time>2018-07-14T11:32:07Z</time>
      </trkpt>
      <trkpt lat="47.77169" lon="-3.60437">
        <ele>27</ele>
        <time>2018-07-14T11:32:08Z</time>
      </trkpt>
      <trkpt lat="47.77171" lon="-3.6043">
        <ele>27</ele>
        <time>2018-07-14T11:32:09Z</time>
      </trkpt>
      <trkpt lat="47.77173" lon="-3.60424">
        <ele>27</ele>
        <time>2018-07-14T11:32:10Z</time>
      </trkpt>
      <trkpt lat="47.77175" lon="-3.60418">
        <ele>27</ele>
        <time>2018-07-14T11:32:11Z</time>
      </trkpt>
      <trkpt lat="47.77178" lon="-3.60412">
        <ele>27</ele>
        <time>2018-07-14T11:32:12Z</time>
      </trkpt>
      <trkpt lat="47.7718" lon="-3.60408">
        <ele>27</ele>
        <time>2018-07-14T11:32:13Z</time>
      </trkpt>
      <trkpt lat="47.77183" lon="-3.60403">
        <ele>27</ele>
        <time>2018-07-14T11:32:14Z</time>
      </trkpt>
      <trkpt lat="47.77185" lon="-3.60399">
        <ele>27</ele>
        <time>2018-07-14T11:32:15Z</time>
      </trkpt>
      <trkpt lat="47.77187" lon="-3.60396">
        <ele>27</ele>
        <time>2018-07-14T11:32:16Z</time>
      </trkpt>
      <trkpt lat="47.77189" lon="-3.60394">
        <ele>27</ele>
        <time>2018-07-14T11:32:17Z</time>
      </trkpt>
      <trkpt lat="47.77191" lon="-3.60392">
        <ele>28</ele>
        <time>2018-07-14T11:32:18Z</time>
      </trkpt>
      <trkpt lat="47.77193" lon="-3.60391">
        <ele>28</ele>
        <time>2018-07-14T11:32:19Z</time>
      </trkpt>
      <trkpt lat="47.77196" lon="-3.6039">
        <ele>28</ele>
        <time>2018-07-14T11:32:20Z</time>
      </trkpt>
      <trkpt lat="47.77198" lon="-3.60389">
        <ele>28</ele>
        <time>2018-07-14T11:32:21Z</time>
      </trkpt>
      <trkpt lat="47.772" lon="-3.60388">
        <ele>28</ele>
        <time>2018-07-14T11:32:22Z</time>
      </trkpt>
      <trkpt lat="47.77202" lon="-3.60388">
        <ele>28</ele>
        <time>2018-07-14T11:32:23Z</time>
      </trkpt>
      <trkpt lat="47.77202" lon="-3.6039">
        <ele>28</ele>
        <time>2018-07-14T11:32:24Z</time>
      </trkpt>
      <trkpt lat="47.77202" lon="-3.60392">
        <ele>28</ele>
        <time>2018-07-14T11:32:25Z</time>
      </trkpt>
      <trkpt lat="47.77199" lon="-3.60393">
        <ele>28</ele>
        <time>2018-07-14T11:32:26Z</time>
      </trkpt>
      <trkpt lat="47.77196" lon="-3.60393">
        <ele>28</ele>
        <time>2018-07-14T11:32:27Z</time>
      </trkpt>
      <trkpt lat="47.77193" lon="-3.60392">
        <ele>28</ele>
        <time>2018-07-14T11:32:28Z</time>
      </trkpt>
      <trkpt lat="47.7719" lon="-3.60391">
        <ele>29</ele>
        <time>2018-07-14T11:32:29Z</time>
      </trkpt>
      <trkpt lat="47.77187" lon="-3.60391">
        <ele>29</ele>
        <time>2018-07-14T11:32:30Z</time>
      </trkpt>
      <trkpt lat="47.77183" lon="-3.60391">
        <ele>29</ele>
        <time>2018-07-14T11:32:31Z</time>
      </trkpt>
      <trkpt lat="47.77179" lon="-3.60392">
        <ele>29</ele>
        <time>2018-07-14T11:32:32Z</time>
      </trkpt>
      <trkpt lat="47.77175" lon="-3.60392">
        <ele>29</ele>
        <time>2018-07-14T11:32:33Z</time>
      </trkpt>
      <trkpt lat="47.77171" lon="-3.60393">
        <ele>29</ele>
        <time>2018-07-14T11:32:34Z</time>
      </trkpt>
      <trkpt lat="47.77166" lon="-3.60394">
        <ele>29</ele>
        <time>2018-07-14T11:32:35Z</time>
      </trkpt>
      <trkpt lat="47.77162" lon="-3.60394">
        <ele>29</ele>
        <time>2018-07-14T11:32:36Z</time>
      </trkpt>
      <trkpt lat="47.77158" lon="-3.60393">
        <ele>29</ele>
        <time>2018-07-14T11:32:37Z</time>
      </trkpt>
      <trkpt lat="47.77154" lon="-3.60391">
        <ele>29</ele>
        <time>2018-07-14T11:32:38Z</time>
      </trkpt>
      <trkpt lat="47.77152" lon="-3.60387">
        <ele>29</ele>
        <time>2018-07-14T11:32:39Z</time>
      </trkpt>
      <trkpt lat="47.7715" lon="-3.60382">
        <ele>29</ele>
        <time>2018-07-14T11:32:40Z</time>
      </trkpt>
      <trkpt lat="47.77149" lon="-3.60376">
        <ele>28</ele>
        <time>2018-07-14T11:32:41Z</time>
      </trkpt>
      <trkpt lat="47.77148" lon="-3.60369">
        <ele>28</ele>
        <time>2018-07-14T11:32:42Z</time>
      </trkpt>
      <trkpt lat="47.77148" lon="-3.60363">
        <ele>28</ele>
        <time>2018-07-14T11:32:43Z</time>
      </trkpt>
      <trkpt lat="47.77148" lon="-3.60356">
        <ele>28</ele>
        <time>2018-07-14T11:32:44Z</time>
      </trkpt>
      <trkpt lat="47.77148" lon="-3.60349">
        <ele>28</ele>
        <time>2018-07-14T11:32:45Z</time>
      </trkpt>
      <trkpt lat="47.77148" lon="-3.60342">
        <ele>28</ele>
        <time>2018-07-14T11:32:46Z</time>
      </trkpt>
      <trkpt lat="47.77148" lon="-3.60335">
        <ele>28</ele>
        <time>2018-07-14T11:32:47Z</time>
      </trkpt>
      <trkpt lat="47.77148" lon="-3.60327">
        <ele>28</ele>
        <time>2018-07-14T11:32:48Z</time>
      </trkpt>
      <trkpt lat="47.77148" lon="-3.6032">
        <ele>28</ele>
        <time>2018-07-14T11:32:49Z</time>
      </trkpt>
      <trkpt lat="47.77148" lon="-3.60312">
        <ele>28</ele>
        <time>2018-07-14T11:32:50Z</time>
      </trkpt>
      <trkpt lat="47.77149" lon="-3.60304">
        <ele>28</ele>
        <time>2018-07-14T11:32:51Z</time>
      </trkpt>
      <trkpt lat="47.77149" lon="-3.60297">
        <ele>28</ele>
        <time>2018-07-14T11:32:52Z</time>
      </trkpt>
      <trkpt lat="47.77149" lon="-3.60288">
        <ele>27</ele>
        <time>2018-07-14T11:32:53Z</time>
      </trkpt>
      <trkpt lat="47.77149" lon="-3.60281">
        <ele>27</ele>
        <time>2018-07-14T11:32:54Z</time>
      </trkpt>
      <trkpt lat="47.77149" lon="-3.60272">
        <ele>27</ele>
        <time>2018-07-14T11:32:55Z</time>
      </trkpt>
      <trkpt lat="47.77149" lon="-3.60264">
        <ele>27</ele>
        <time>2018-07-14T11:32:56Z</time>
      </trkpt>
      <trkpt lat="47.77149" lon="-3.60255">
        <ele>27</ele>
        <time>2018-07-14T11:32:57Z</time>
      </trkpt>
      <trkpt lat="47.77148" lon="-3.60246">
        <ele>27</ele>
        <time>2018-07-14T11:32:58Z</time>
      </trkpt>
      <trkpt lat="47.77147" lon="-3.60238">
        <ele>27</ele>
        <time>2018-07-14T11:32:59Z</time>
      </trkpt>
      <trkpt lat="47.77146" lon="-3.60229">
        <ele>26</ele>
        <time>2018-07-14T11:33:00Z</time>
      </trkpt>
      <trkpt lat="47.77145" lon="-3.60222">
        <ele>26</ele>
        <time>2018-07-14T11:33:01Z</time>
      </trkpt>
      <trkpt lat="47.77144" lon="-3.60214">
        <ele>26</ele>
        <time>2018-07-14T11:33:02Z</time>
      </trkpt>
      <trkpt lat="47.77142" lon="-3.60206">
        <ele>26</ele>
        <time>2018-07-14T11:33:03Z</time>
      </trkpt>
      <trkpt lat="47.77141" lon="-3.60199">
        <ele>26</ele>
        <time>2018-07-14T11:33:04Z</time>
      </trkpt>
      <trkpt lat="47.7714" lon="-3.60192">
        <ele>26</ele>
        <time>2018-07-14T11:33:05Z</time>
      </trkpt>
      <trkpt lat="47.7714" lon="-3.60186">
        <ele>27</ele>
        <time>2018-07-14T11:33:06Z</time>
      </trkpt>
      <trkpt lat="47.7714" lon="-3.6018">
        <ele>27</ele>
        <time>2018-07-14T11:33:07Z</time>
      </trkpt>
      <trkpt lat="47.7714" lon="-3.60174">
        <ele>26</ele>
        <time>2018-07-14T11:33:08Z</time>
      </trkpt>
      <trkpt lat="47.7714" lon="-3.60167">
        <ele>26</ele>
        <time>2018-07-14T11:33:09Z</time>
      </trkpt>
      <trkpt lat="47.7714" lon="-3.60161">
        <ele>26</ele>
        <time>2018-07-14T11:33:10Z</time>
      </trkpt>
      <trkpt lat="47.7714" lon="-3.60155">
        <ele>26</ele>
        <time>2018-07-14T11:33:11Z</time>
      </trkpt>
      <trkpt lat="47.77139" lon="-3.60148">
        <ele>26</ele>
        <time>2018-07-14T11:33:12Z</time>
      </trkpt>
      <trkpt lat="47.77139" lon="-3.60141">
        <ele>26</ele>
        <time>2018-07-14T11:33:13Z</time>
      </trkpt>
      <trkpt lat="47.77139" lon="-3.60134">
        <ele>26</ele>
        <time>2018-07-14T11:33:14Z</time>
      </trkpt>
      <trkpt lat="47.77139" lon="-3.60126">
        <ele>26</ele>
        <time>2018-07-14T11:33:15Z</time>
      </trkpt>
      <trkpt lat="47.77139" lon="-3.60119">
        <ele>26</ele>
        <time>2018-07-14T11:33:16Z</time>
      </trkpt>
      <trkpt lat="47.77139" lon="-3.60111">
        <ele>26</ele>
        <time>2018-07-14T11:33:17Z</time>
      </trkpt>
      <trkpt lat="47.7714" lon="-3.60103">
        <ele>26</ele>
        <time>2018-07-14T11:33:18Z</time>
      </trkpt>
      <trkpt lat="47.77141" lon="-3.60095">
        <ele>26</ele>
        <time>2018-07-14T11:33:19Z</time>
      </trkpt>
      <trkpt lat="47.77142" lon="-3.60087">
        <ele>26</ele>
        <time>2018-07-14T11:33:20Z</time>
      </trkpt>
      <trkpt lat="47.77143" lon="-3.6008">
        <ele>25</ele>
        <time>2018-07-14T11:33:21Z</time>
      </trkpt>
      <trkpt lat="47.77145" lon="-3.60072">
        <ele>25</ele>
        <time>2018-07-14T11:33:22Z</time>
      </trkpt>
      <trkpt lat="47.77145" lon="-3.60065">
        <ele>25</ele>
        <time>2018-07-14T11:33:23Z</time>
      </trkpt>
      <trkpt lat="47.77144" lon="-3.60058">
        <ele>26</ele>
        <time>2018-07-14T11:33:24Z</time>
      </trkpt>
      <trkpt lat="47.77142" lon="-3.60052">
        <ele>26</ele>
        <time>2018-07-14T11:33:25Z</time>
      </trkpt>
      <trkpt lat="47.77139" lon="-3.60047">
        <ele>26</ele>
        <time>2018-07-14T11:33:26Z</time>
      </trkpt>
      <trkpt lat="47.77136" lon="-3.60041">
        <ele>26</ele>
        <time>2018-07-14T11:33:27Z</time>
      </trkpt>
      <trkpt lat="47.77132" lon="-3.60036">
        <ele>26</ele>
        <time>2018-07-14T11:33:28Z</time>
      </trkpt>
      <trkpt lat="47.77129" lon="-3.6003">
        <ele>26</ele>
        <time>2018-07-14T11:33:29Z</time>
      </trkpt>
      <trkpt lat="47.77125" lon="-3.60025">
        <ele>26</ele>
        <time>2018-07-14T11:33:30Z</time>
      </trkpt>
      <trkpt lat="47.77121" lon="-3.60018">
        <ele>26</ele>
        <time>2018-07-14T11:33:31Z</time>
      </trkpt>
      <trkpt lat="47.77117" lon="-3.60012">
        <ele>26</ele>
        <time>2018-07-14T11:33:32Z</time>
      </trkpt>
      <trkpt lat="47.77112" lon="-3.60005">
        <ele>25</ele>
        <time>2018-07-14T11:33:33Z</time>
      </trkpt>
      <trkpt lat="47.77106" lon="-3.59998">
        <ele>25</ele>
        <time>2018-07-14T11:33:34Z</time>
      </trkpt>
      <trkpt lat="47.77101" lon="-3.59992">
        <ele>25</ele>
        <time>2018-07-14T11:33:35Z</time>
      </trkpt>
      <trkpt lat="47.77096" lon="-3.59985">
        <ele>25</ele>
        <time>2018-07-14T11:33:36Z</time>
      </trkpt>
      <trkpt lat="47.7709" lon="-3.59978">
        <ele>25</ele>
        <time>2018-07-14T11:33:37Z</time>
      </trkpt>
      <trkpt lat="47.77086" lon="-3.59972">
        <ele>24</ele>
        <time>2018-07-14T11:33:38Z</time>
      </trkpt>
      <trkpt lat="47.77082" lon="-3.59965">
        <ele>24</ele>
        <time>2018-07-14T11:33:39Z</time>
      </trkpt>
      <trkpt lat="47.7708" lon="-3.59957">
        <ele>24</ele>
        <time>2018-07-14T11:33:40Z</time>
      </trkpt>
      <trkpt lat="47.77079" lon="-3.59949">
        <ele>24</ele>
        <time>2018-07-14T11:33:41Z</time>
      </trkpt>
      <trkpt lat="47.77078" lon="-3.59942">
        <ele>24</ele>
        <time>2018-07-14T11:33:42Z</time>
      </trkpt>
      <trkpt lat="47.77078" lon="-3.59935">
        <ele>24</ele>
        <time>2018-07-14T11:33:43Z</time>
      </trkpt>
      <trkpt lat="47.77077" lon="-3.59927">
        <ele>24</ele>
        <time>2018-07-14T11:33:44Z</time>
      </trkpt>
      <trkpt lat="47.77076" lon="-3.5992">
        <ele>24</ele>
        <time>2018-07-14T11:33:45Z</time>
      </trkpt>
      <trkpt lat="47.77076" lon="-3.59912">
        <ele>24</ele>
        <time>2018-07-14T11:33:46Z</time>
      </trkpt>
      <trkpt lat="47.77075" lon="-3.59905">
        <ele>24</ele>
        <time>2018-07-14T11:33:47Z</time>
      </trkpt>
      <trkpt lat="47.77074" lon="-3.59897">
        <ele>23</ele>
        <time>2018-07-14T11:33:48Z</time>
      </trkpt>
      <trkpt lat="47.77072" lon="-3.59889">
        <ele>23</ele>
        <time>2018-07-14T11:33:49Z</time>
      </trkpt>
      <trkpt lat="47.7707" lon="-3.59881">
        <ele>23</ele>
        <time>2018-07-14T11:33:50Z</time>
      </trkpt>
      <trkpt lat="47.77069" lon="-3.59873">
        <ele>23</ele>
        <time>2018-07-14T11:33:51Z</time>
      </trkpt>
      <trkpt lat="47.77067" lon="-3.59864">
        <ele>23</ele>
        <time>2018-07-14T11:33:52Z</time>
      </trkpt>
      <trkpt lat="47.77066" lon="-3.59856">
        <ele>23</ele>
        <time>2018-07-14T11:33:53Z</time>
      </trkpt>
      <trkpt lat="47.77064" lon="-3.5985">
        <ele>22</ele>
        <time>2018-07-14T11:33:54Z</time>
      </trkpt>
      <trkpt lat="47.77061" lon="-3.59845">
        <ele>22</ele>
        <time>2018-07-14T11:33:55Z</time>
      </trkpt>
      <trkpt lat="47.77056" lon="-3.59843">
        <ele>22</ele>
        <time>2018-07-14T11:33:56Z</time>
      </trkpt>
      <trkpt lat="47.77051" lon="-3.59842">
        <ele>22</ele>
        <time>2018-07-14T11:33:57Z</time>
      </trkpt>
      <trkpt lat="47.77048" lon="-3.5984">
        <ele>22</ele>
        <time>2018-07-14T11:33:58Z</time>
      </trkpt>
      <trkpt lat="47.77046" lon="-3.59835">
        <ele>22</ele>
        <time>2018-07-14T11:33:59Z</time>
      </trkpt>
      <trkpt lat="47.77045" lon="-3.59831">
        <ele>22</ele>
        <time>2018-07-14T11:34:00Z</time>
      </trkpt>
      <trkpt lat="47.77045" lon="-3.59825">
        <ele>21</ele>
        <time>2018-07-14T11:34:01Z</time>
      </trkpt>
      <trkpt lat="47.77045" lon="-3.5982">
        <ele>21</ele>
        <time>2018-07-14T11:34:02Z</time>
      </trkpt>
      <trkpt lat="47.77044" lon="-3.59814">
        <ele>21</ele>
        <time>2018-07-14T11:34:03Z</time>
      </trkpt>
      <trkpt lat="47.77044" lon="-3.59809">
        <ele>21</ele>
        <time>2018-07-14T11:34:04Z</time>
      </trkpt>
      <trkpt lat="47.77043" lon="-3.59803">
        <ele>22</ele>
        <time>2018-07-14T11:34:05Z</time>
      </trkpt>
      <trkpt lat="47.77042" lon="-3.59797">
        <ele>22</ele>
        <time>2018-07-14T11:34:06Z</time>
      </trkpt>
      <trkpt lat="47.77042" lon="-3.59792">
        <ele>22</ele>
        <time>2018-07-14T11:34:07Z</time>
      </trkpt>
      <trkpt lat="47.77042" lon="-3.59787">
        <ele>22</ele>
        <time>2018-07-14T11:34:08Z</time>
      </trkpt>
      <trkpt lat="47.77042" lon="-3.59782">
        <ele>22</ele>
        <time>2018-07-14T11:34:09Z</time>
      </trkpt>
      <trkpt lat="47.77043" lon="-3.59777">
        <ele>22</ele>
        <time>2018-07-14T11:34:10Z</time>
      </trkpt>
      <trkpt lat="47.77043" lon="-3.59772">
        <ele>22</ele>
        <time>2018-07-14T11:34:11Z</time>
      </trkpt>
      <trkpt lat="47.77043" lon="-3.59766">
        <ele>22</ele>
        <time>2018-07-14T11:34:12Z</time>
      </trkpt>
      <trkpt lat="47.77043" lon="-3.59761">
        <ele>22</ele>
        <time>2018-07-14T11:34:13Z</time>
      </trkpt>
      <trkpt lat="47.77044" lon="-3.59756">
        <ele>22</ele>
        <time>2018-07-14T11:34:14Z</time>
      </trkpt>
      <trkpt lat="47.77046" lon="-3.5975">
        <ele>22</ele>
        <time>2018-07-14T11:34:15Z</time>
      </trkpt>
      <trkpt lat="47.77048" lon="-3.59745">
        <ele>22</ele>
        <time>2018-07-14T11:34:16Z</time>
      </trkpt>
      <trkpt lat="47.7705" lon="-3.59739">
        <ele>22</ele>
        <time>2018-07-14T11:34:17Z</time>
      </trkpt>
      <trkpt lat="47.77052" lon="-3.59731">
        <ele>22</ele>
        <time>2018-07-14T11:34:18Z</time>
      </trkpt>
      <trkpt lat="47.77055" lon="-3.59723">
        <ele>22</ele>
        <time>2018-07-14T11:34:19Z</time>
      </trkpt>
      <trkpt lat="47.77057" lon="-3.59714">
        <ele>21</ele>
        <time>2018-07-14T11:34:20Z</time>
      </trkpt>
      <trkpt lat="47.77057" lon="-3.59704">
        <ele>21</ele>
        <time>2018-07-14T11:34:21Z</time>
      </trkpt>
      <trkpt lat="47.77057" lon="-3.59695">
        <ele>21</ele>
        <time>2018-07-14T11:34:22Z</time>
      </trkpt>
      <trkpt lat="47.77055" lon="-3.59686">
        <ele>21</ele>
        <time>2018-07-14T11:34:23Z</time>
      </trkpt>
      <trkpt lat="47.77054" lon="-3.59679">
        <ele>21</ele>
        <time>2018-07-14T11:34:24Z</time>
      </trkpt>
      <trkpt lat="47.77052" lon="-3.59672">
        <ele>21</ele>
        <time>2018-07-14T11:34:25Z</time>
      </trkpt>
      <trkpt lat="47.7705" lon="-3.59665">
        <ele>21</ele>
        <time>2018-07-14T11:34:26Z</time>
      </trkpt>
      <trkpt lat="47.77049" lon="-3.59659">
        <ele>22</ele>
        <time>2018-07-14T11:34:27Z</time>
      </trkpt>
      <trkpt lat="47.77047" lon="-3.59652">
        <ele>22</ele>
        <time>2018-07-14T11:34:28Z</time>
      </trkpt>
      <trkpt lat="47.77045" lon="-3.59646">
        <ele>22</ele>
        <time>2018-07-14T11:34:29Z</time>
      </trkpt>
      <trkpt lat="47.77043" lon="-3.5964">
        <ele>22</ele>
        <time>2018-07-14T11:34:30Z</time>
      </trkpt>
      <trkpt lat="47.77041" lon="-3.59633">
        <ele>22</ele>
        <time>2018-07-14T11:34:31Z</time>
      </trkpt>
      <trkpt lat="47.7704" lon="-3.59627">
        <ele>23</ele>
        <time>2018-07-14T11:34:32Z</time>
      </trkpt>
      <trkpt lat="47.77038" lon="-3.59621">
        <ele>23</ele>
        <time>2018-07-14T11:34:33Z</time>
      </trkpt>
      <trkpt lat="47.77037" lon="-3.59615">
        <ele>23</ele>
        <time>2018-07-14T11:34:34Z</time>
      </trkpt>
      <trkpt lat="47.77035" lon="-3.5961">
        <ele>23</ele>
        <time>2018-07-14T11:34:35Z</time>
      </trkpt>
      <trkpt lat="47.77033" lon="-3.59604">
        <ele>24</ele>
        <time>2018-07-14T11:34:36Z</time>
      </trkpt>
      <trkpt lat="47.77032" lon="-3.59598">
        <ele>24</ele>
        <time>2018-07-14T11:34:37Z</time>
      </trkpt>
      <trkpt lat="47.7703" lon="-3.59592">
        <ele>24</ele>
        <time>2018-07-14T11:34:38Z</time>
      </trkpt>
      <trkpt lat="47.77029" lon="-3.59586">
        <ele>24</ele>
        <time>2018-07-14T11:34:39Z</time>
      </trkpt>
      <trkpt lat="47.77028" lon="-3.59579">
        <ele>24</ele>
        <time>2018-07-14T11:34:40Z</time>
      </trkpt>
      <trkpt lat="47.77027" lon="-3.59572">
        <ele>24</ele>
        <time>2018-07-14T11:34:41Z</time>
      </trkpt>
      <trkpt lat="47.77027" lon="-3.59566">
        <ele>25</ele>
        <time>2018-07-14T11:34:42Z</time>
      </trkpt>
      <trkpt lat="47.77028" lon="-3.59559">
        <ele>25</ele>
        <time>2018-07-14T11:34:43Z</time>
      </trkpt>
      <trkpt lat="47.7703" lon="-3.59553">
        <ele>25</ele>
        <time>2018-07-14T11:34:44Z</time>
      </trkpt>
      <trkpt lat="47.77031" lon="-3.59547">
        <ele>25</ele>
        <time>2018-07-14T11:34:45Z</time>
      </trkpt>
      <trkpt lat="47.77033" lon="-3.59543">
        <ele>25</ele>
        <time>2018-07-14T11:34:46Z</time>
      </trkpt>
      <trkpt lat="47.77035" lon="-3.59539">
        <ele>26</ele>
        <time>2018-07-14T11:34:47Z</time>
      </trkpt>
      <trkpt lat="47.77038" lon="-3.59535">
        <ele>26</ele>
        <time>2018-07-14T11:34:48Z</time>
      </trkpt>
      <trkpt lat="47.77041" lon="-3.59531">
        <ele>26</ele>
        <time>2018-07-14T11:34:49Z</time>
      </trkpt>
      <trkpt lat="47.77044" lon="-3.59527">
        <ele>26</ele>
        <time>2018-07-14T11:34:50Z</time>
      </trkpt>
      <trkpt lat="47.77047" lon="-3.59524">
        <ele>26</ele>
        <time>2018-07-14T11:34:51Z</time>
      </trkpt>
      <trkpt lat="47.77051" lon="-3.59521">
        <ele>26</ele>
        <time>2018-07-14T11:34:52Z</time>
      </trkpt>
      <trkpt lat="47.77055" lon="-3.59518">
        <ele>26</ele>
        <time>2018-07-14T11:34:53Z</time>
      </trkpt>
      <trkpt lat="47.77059" lon="-3.59516">
        <ele>26</ele>
        <time>2018-07-14T11:34:54Z</time>
      </trkpt>
      <trkpt lat="47.77062" lon="-3.59514">
        <ele>27</ele>
        <time>2018-07-14T11:34:55Z</time>
      </trkpt>
      <trkpt lat="47.77064" lon="-3.59513">
        <ele>27</ele>
        <time>2018-07-14T11:34:56Z</time>
      </trkpt>
      <trkpt lat="47.77066" lon="-3.59513">
        <ele>27</ele>
        <time>2018-07-14T11:34:57Z</time>
      </trkpt>
      <trkpt lat="47.77067" lon="-3.59515">
        <ele>27</ele>
        <time>2018-07-14T11:34:58Z</time>
      </trkpt>
      <trkpt lat="47.77067" lon="-3.59516">
        <ele>27</ele>
        <time>2018-07-14T11:34:59Z</time>
      </trkpt>
      <trkpt lat="47.77065" lon="-3.59515">
        <ele>27</ele>
        <time>2018-07-14T11:35:00Z</time>
      </trkpt>
      <trkpt lat="47.77063" lon="-3.59512">
        <ele>27</ele>
        <time>2018-07-14T11:35:01Z</time>
      </trkpt>
      <trkpt lat="47.77061" lon="-3.59509">
        <ele>27</ele>
        <time>2018-07-14T11:35:02Z</time>
      </trkpt>
      <trkpt lat="47.77061" lon="-3.59504">
        <ele>27</ele>
        <time>2018-07-14T11:35:03Z</time>
      </trkpt>
      <trkpt lat="47.77061" lon="-3.595">
        <ele>27</ele>
        <time>2018-07-14T11:35:04Z</time>
      </trkpt>
      <trkpt lat="47.77061" lon="-3.59494">
        <ele>27</ele>
        <time>2018-07-14T11:35:05Z</time>
      </trkpt>
      <trkpt lat="47.77063" lon="-3.5949">
        <ele>27</ele>
        <time>2018-07-14T11:35:06Z</time>
      </trkpt>
      <trkpt lat="47.77064" lon="-3.59486">
        <ele>27</ele>
        <time>2018-07-14T11:35:07Z</time>
      </trkpt>
      <trkpt lat="47.77066" lon="-3.59481">
        <ele>27</ele>
        <time>2018-07-14T11:35:08Z</time>
      </trkpt>
      <trkpt lat="47.77068" lon="-3.59476">
        <ele>27</ele>
        <time>2018-07-14T11:35:09Z</time>
      </trkpt>
      <trkpt lat="47.77069" lon="-3.5947">
        <ele>27</ele>
        <time>2018-07-14T11:35:10Z</time>
      </trkpt>
      <trkpt lat="47.77071" lon="-3.59465">
        <ele>27</ele>
        <time>2018-07-14T11:35:11Z</time>
      </trkpt>
      <trkpt lat="47.77073" lon="-3.5946">
        <ele>27</ele>
        <time>2018-07-14T11:35:12Z</time>
      </trkpt>
      <trkpt lat="47.77074" lon="-3.59454">
        <ele>27</ele>
        <time>2018-07-14T11:35:13Z</time>
      </trkpt>
      <trkpt lat="47.77074" lon="-3.59449">
        <ele>27</ele>
        <time>2018-07-14T11:35:14Z</time>
      </trkpt>
      <trkpt lat="47.77074" lon="-3.59443">
        <ele>27</ele>
        <time>2018-07-14T11:35:15Z</time>
      </trkpt>
      <trkpt lat="47.77074" lon="-3.59437">
        <ele>27</ele>
        <time>2018-07-14T11:35:16Z</time>
      </trkpt>
      <trkpt lat="47.77073" lon="-3.59432">
        <ele>27</ele>
        <time>2018-07-14T11:35:17Z</time>
      </trkpt>
      <trkpt lat="47.77072" lon="-3.59426">
        <ele>27</ele>
        <time>2018-07-14T11:35:18Z</time>
      </trkpt>
      <trkpt lat="47.77071" lon="-3.5942">
        <ele>27</ele>
        <time>2018-07-14T11:35:19Z</time>
      </trkpt>
      <trkpt lat="47.77071" lon="-3.59414">
        <ele>27</ele>
        <time>2018-07-14T11:35:20Z</time>
      </trkpt>
      <trkpt lat="47.7707" lon="-3.59408">
        <ele>28</ele>
        <time>2018-07-14T11:35:21Z</time>
      </trkpt>
      <trkpt lat="47.7707" lon="-3.59401">
        <ele>28</ele>
        <time>2018-07-14T11:35:22Z</time>
      </trkpt>
      <trkpt lat="47.77069" lon="-3.59395">
        <ele>28</ele>
        <time>2018-07-14T11:35:23Z</time>
      </trkpt>
      <trkpt lat="47.77069" lon="-3.59388">
        <ele>28</ele>
        <time>2018-07-14T11:35:24Z</time>
      </trkpt>
      <trkpt lat="47.77069" lon="-3.59381">
        <ele>28</ele>
        <time>2018-07-14T11:35:25Z</time>
      </trkpt>
      <trkpt lat="47.7707" lon="-3.59374">
        <ele>29</ele>
        <time>2018-07-14T11:35:26Z</time>
      </trkpt>
      <trkpt lat="47.7707" lon="-3.59368">
        <ele>29</ele>
        <time>2018-07-14T11:35:27Z</time>
      </trkpt>
      <trkpt lat="47.77071" lon="-3.5936">
        <ele>29</ele>
        <time>2018-07-14T11:35:28Z</time>
      </trkpt>
      <trkpt lat="47.77071" lon="-3.59353">
        <ele>29</ele>
        <time>2018-07-14T11:35:29Z</time>
      </trkpt>
      <trkpt lat="47.77071" lon="-3.59346">
        <ele>29</ele>
        <time>2018-07-14T11:35:30Z</time>
      </trkpt>
      <trkpt lat="47.77072" lon="-3.59339">
        <ele>29</ele>
        <time>2018-07-14T11:35:31Z</time>
      </trkpt>
      <trkpt lat="47.77072" lon="-3.59332">
        <ele>29</ele>
        <time>2018-07-14T11:35:32Z</time>
      </trkpt>
      <trkpt lat="47.77072" lon="-3.59324">
        <ele>30</ele>
        <time>2018-07-14T11:35:33Z</time>
      </trkpt>
      <trkpt lat="47.77072" lon="-3.59317">
        <ele>30</ele>
        <time>2018-07-14T11:35:34Z</time>
      </trkpt>
      <trkpt lat="47.77073" lon="-3.59311">
        <ele>30</ele>
        <time>2018-07-14T11:35:35Z</time>
      </trkpt>
      <trkpt lat="47.77073" lon="-3.59304">
        <ele>30</ele>
        <time>2018-07-14T11:35:36Z</time>
      </trkpt>
      <trkpt lat="47.77074" lon="-3.59297">
        <ele>30</ele>
        <time>2018-07-14T11:35:37Z</time>
      </trkpt>
      <trkpt lat="47.77074" lon="-3.59289">
        <ele>30</ele>
        <time>2018-07-14T11:35:38Z</time>
      </trkpt>
      <trkpt lat="47.77076" lon="-3.59282">
        <ele>30</ele>
        <time>2018-07-14T11:35:39Z</time>
      </trkpt>
      <trkpt lat="47.77077" lon="-3.59275">
        <ele>30</ele>
        <time>2018-07-14T11:35:40Z</time>
      </trkpt>
      <trkpt lat="47.77078" lon="-3.59267">
        <ele>30</ele>
        <time>2018-07-14T11:35:41Z</time>
      </trkpt>
      <trkpt lat="47.77079" lon="-3.5926">
        <ele>30</ele>
        <time>2018-07-14T11:35:42Z</time>
      </trkpt>
      <trkpt lat="47.77079" lon="-3.59253">
        <ele>30</ele>
        <time>2018-07-14T11:35:43Z</time>
      </trkpt>
      <trkpt lat="47.77079" lon="-3.59246">
        <ele>30</ele>
        <time>2018-07-14T11:35:44Z</time>
      </trkpt>
      <trkpt lat="47.77079" lon="-3.59238">
        <ele>30</ele>
        <time>2018-07-14T11:35:45Z</time>
      </trkpt>
      <trkpt lat="47.77079" lon="-3.59231">
        <ele>30</ele>
        <time>2018-07-14T11:35:46Z</time>
      </trkpt>
      <trkpt lat="47.7708" lon="-3.59224">
        <ele>30</ele>
        <time>2018-07-14T11:35:47Z</time>
      </trkpt>
      <trkpt lat="47.77082" lon="-3.59217">
        <ele>30</ele>
        <time>2018-07-14T11:35:48Z</time>
      </trkpt>
      <trkpt lat="47.77084" lon="-3.5921">
        <ele>30</ele>
        <time>2018-07-14T11:35:49Z</time>
      </trkpt>
      <trkpt lat="47.77086" lon="-3.59202">
        <ele>30</ele>
        <time>2018-07-14T11:35:50Z</time>
      </trkpt>
      <trkpt lat="47.77089" lon="-3.59194">
        <ele>30</ele>
        <time>2018-07-14T11:35:51Z</time>
      </trkpt>
      <trkpt lat="47.77093" lon="-3.59187">
        <ele>30</ele>
        <time>2018-07-14T11:35:52Z</time>
      </trkpt>
      <trkpt lat="47.77096" lon="-3.59178">
        <ele>30</ele>
        <time>2018-07-14T11:35:53Z</time>
      </trkpt>
      <trkpt lat="47.77099" lon="-3.59171">
        <ele>29</ele>
        <time>2018-07-14T11:35:54Z</time>
      </trkpt>
      <trkpt lat="47.77101" lon="-3.59164">
        <ele>29</ele>
        <time>2018-07-14T11:35:55Z</time>
      </trkpt>
      <trkpt lat="47.77103" lon="-3.59158">
        <ele>29</ele>
        <time>2018-07-14T11:35:56Z</time>
      </trkpt>
      <trkpt lat="47.77103" lon="-3.59154">
        <ele>29</ele>
        <time>2018-07-14T11:35:57Z</time>
      </trkpt>
      <trkpt lat="47.77101" lon="-3.5915">
        <ele>29</ele>
        <time>2018-07-14T11:35:58Z</time>
      </trkpt>
      <trkpt lat="47.77099" lon="-3.59147">
        <ele>29</ele>
        <time>2018-07-14T11:35:59Z</time>
      </trkpt>
      <trkpt lat="47.77096" lon="-3.59145">
        <ele>28</ele>
        <time>2018-07-14T11:36:00Z</time>
      </trkpt>
      <trkpt lat="47.77092" lon="-3.59143">
        <ele>28</ele>
        <time>2018-07-14T11:36:01Z</time>
      </trkpt>
      <trkpt lat="47.77089" lon="-3.59141">
        <ele>28</ele>
        <time>2018-07-14T11:36:02Z</time>
      </trkpt>
      <trkpt lat="47.77085" lon="-3.59139">
        <ele>28</ele>
        <time>2018-07-14T11:36:03Z</time>
      </trkpt>
      <trkpt lat="47.77081" lon="-3.59136">
        <ele>28</ele>
        <time>2018-07-14T11:36:04Z</time>
      </trkpt>
      <trkpt lat="47.77076" lon="-3.59133">
        <ele>28</ele>
        <time>2018-07-14T11:36:05Z</time>
      </trkpt>
      <trkpt lat="47.77073" lon="-3.5913">
        <ele>28</ele>
        <time>2018-07-14T11:36:06Z</time>
      </trkpt>
      <trkpt lat="47.77069" lon="-3.59127">
        <ele>28</ele>
        <time>2018-07-14T11:36:07Z</time>
      </trkpt>
      <trkpt lat="47.77065" lon="-3.59124">
        <ele>28</ele>
        <time>2018-07-14T11:36:08Z</time>
      </trkpt>
      <trkpt lat="47.77061" lon="-3.5912">
        <ele>28</ele>
        <time>2018-07-14T11:36:09Z</time>
      </trkpt>
      <trkpt lat="47.77056" lon="-3.59117">
        <ele>28</ele>
        <time>2018-07-14T11:36:10Z</time>
      </trkpt>
      <trkpt lat="47.77051" lon="-3.59113">
        <ele>28</ele>
        <time>2018-07-14T11:36:11Z</time>
      </trkpt>
      <trkpt lat="47.77046" lon="-3.59109">
        <ele>28</ele>
        <time>2018-07-14T11:36:12Z</time>
      </trkpt>
      <trkpt lat="47.77041" lon="-3.59105">
        <ele>28</ele>
        <time>2018-07-14T11:36:13Z</time>
      </trkpt>
      <trkpt lat="47.77036" lon="-3.59101">
        <ele>28</ele>
        <time>2018-07-14T11:36:14Z</time>
      </trkpt>
      <trkpt lat="47.77031" lon="-3.59096">
        <ele>28</ele>
        <time>2018-07-14T11:36:15Z</time>
      </trkpt>
      <trkpt lat="47.77027" lon="-3.5909">
        <ele>28</ele>
        <time>2018-07-14T11:36:16Z</time>
      </trkpt>
      <trkpt lat="47.77023" lon="-3.59084">
        <ele>28</ele>
        <time>2018-07-14T11:36:17Z</time>
      </trkpt>
      <trkpt lat="47.77019" lon="-3.59077">
        <ele>28</ele>
        <time>2018-07-14T11:36:18Z</time>
      </trkpt>
      <trkpt lat="47.77015" lon="-3.59071">
        <ele>28</ele>
        <time>2018-07-14T11:36:19Z</time>
      </trkpt>
      <trkpt lat="47.77011" lon="-3.59064">
        <ele>28</ele>
        <time>2018-07-14T11:36:20Z</time>
      </trkpt>
      <trkpt lat="47.77007" lon="-3.59056">
        <ele>28</ele>
        <time>2018-07-14T11:36:21Z</time>
      </trkpt>
      <trkpt lat="47.77004" lon="-3.5905">
        <ele>28</ele>
        <time>2018-07-14T11:36:22Z</time>
      </trkpt>
      <trkpt lat="47.77002" lon="-3.59043">
        <ele>28</ele>
        <time>2018-07-14T11:36:23Z</time>
      </trkpt>
      <trkpt lat="47.76999" lon="-3.59036">
        <ele>28</ele>
        <time>2018-07-14T11:36:24Z</time>
      </trkpt>
      <trkpt lat="47.76996" lon="-3.59029">
        <ele>28</ele>
        <time>2018-07-14T11:36:25Z</time>
      </trkpt>
      <trkpt lat="47.76993" lon="-3.59023">
        <ele>28</ele>
        <time>2018-07-14T11:36:26Z</time>
      </trkpt>
      <trkpt lat="47.7699" lon="-3.59016">
        <ele>28</ele>
        <time>2018-07-14T11:36:27Z</time>
      </trkpt>
      <trkpt lat="47.76986" lon="-3.59008">
        <ele>28</ele>
        <time>2018-07-14T11:36:28Z</time>
      </trkpt>
      <trkpt lat="47.76983" lon="-3.59001">
        <ele>28</ele>
        <time>2018-07-14T11:36:29Z</time>
      </trkpt>
      <trkpt lat="47.7698" lon="-3.58993">
        <ele>29</ele>
        <time>2018-07-14T11:36:30Z</time>
      </trkpt>
      <trkpt lat="47.76977" lon="-3.58985">
        <ele>28</ele>
        <time>2018-07-14T11:36:31Z</time>
      </trkpt>
      <trkpt lat="47.76974" lon="-3.58978">
        <ele>29</ele>
        <time>2018-07-14T11:36:32Z</time>
      </trkpt>
      <trkpt lat="47.7697" lon="-3.5897">
        <ele>29</ele>
        <time>2018-07-14T11:36:33Z</time>
      </trkpt>
      <trkpt lat="47.76967" lon="-3.58963">
        <ele>29</ele>
        <time>2018-07-14T11:36:34Z</time>
      </trkpt>
      <trkpt lat="47.76965" lon="-3.58956">
        <ele>29</ele>
        <time>2018-07-14T11:36:35Z</time>
      </trkpt>
      <trkpt lat="47.76963" lon="-3.58949">
        <ele>29</ele>
        <time>2018-07-14T11:36:36Z</time>
      </trkpt>
      <trkpt lat="47.76961" lon="-3.58944">
        <ele>29</ele>
        <time>2018-07-14T11:36:37Z</time>
      </trkpt>
      <trkpt lat="47.76958" lon="-3.58937">
        <ele>29</ele>
        <time>2018-07-14T11:36:38Z</time>
      </trkpt>
      <trkpt lat="47.76956" lon="-3.58931">
        <ele>29</ele>
        <time>2018-07-14T11:36:39Z</time>
      </trkpt>
      <trkpt lat="47.76954" lon="-3.58924">
        <ele>29</ele>
        <time>2018-07-14T11:36:40Z</time>
      </trkpt>
      <trkpt lat="47.76952" lon="-3.58917">
        <ele>29</ele>
        <time>2018-07-14T11:36:41Z</time>
      </trkpt>
      <trkpt lat="47.7695" lon="-3.5891">
        <ele>29</ele>
        <time>2018-07-14T11:36:42Z</time>
      </trkpt>
      <trkpt lat="47.76948" lon="-3.58903">
        <ele>29</ele>
        <time>2018-07-14T11:36:43Z</time>
      </trkpt>
      <trkpt lat="47.76946" lon="-3.58896">
        <ele>29</ele>
        <time>2018-07-14T11:36:44Z</time>
      </trkpt>
      <trkpt lat="47.76944" lon="-3.58889">
        <ele>29</ele>
        <time>2018-07-14T11:36:45Z</time>
      </trkpt>
      <trkpt lat="47.76942" lon="-3.58881">
        <ele>29</ele>
        <time>2018-07-14T11:36:46Z</time>
      </trkpt>
      <trkpt lat="47.76942" lon="-3.58873">
        <ele>29</ele>
        <time>2018-07-14T11:36:47Z</time>
      </trkpt>
      <trkpt lat="47.76941" lon="-3.58865">
        <ele>29</ele>
        <time>2018-07-14T11:36:48Z</time>
      </trkpt>
      <trkpt lat="47.76941" lon="-3.58856">
        <ele>29</ele>
        <time>2018-07-14T11:36:49Z</time>
      </trkpt>
      <trkpt lat="47.76941" lon="-3.58848">
        <ele>29</ele>
        <time>2018-07-14T11:36:50Z</time>
      </trkpt>
      <trkpt lat="47.76941" lon="-3.58839">
        <ele>28</ele>
        <time>2018-07-14T11:36:51Z</time>
      </trkpt>
      <trkpt lat="47.7694" lon="-3.5883">
        <ele>28</ele>
        <time>2018-07-14T11:36:52Z</time>
      </trkpt>
      <trkpt lat="47.7694" lon="-3.58821">
        <ele>28</ele>
        <time>2018-07-14T11:36:53Z</time>
      </trkpt>
      <trkpt lat="47.7694" lon="-3.58814">
        <ele>28</ele>
        <time>2018-07-14T11:36:54Z</time>
      </trkpt>
      <trkpt lat="47.76938" lon="-3.58806">
        <ele>28</ele>
        <time>2018-07-14T11:36:55Z</time>
      </trkpt>
      <trkpt lat="47.76935" lon="-3.58799">
        <ele>27</ele>
        <time>2018-07-14T11:36:56Z</time>
      </trkpt>
      <trkpt lat="47.76931" lon="-3.58791">
        <ele>27</ele>
        <time>2018-07-14T11:36:57Z</time>
      </trkpt>
      <trkpt lat="47.76929" lon="-3.58785">
        <ele>27</ele>
        <time>2018-07-14T11:36:58Z</time>
      </trkpt>
      <trkpt lat="47.76926" lon="-3.5878">
        <ele>26</ele>
        <time>2018-07-14T11:36:59Z</time>
      </trkpt>
      <trkpt lat="47.76926" lon="-3.58776">
        <ele>26</ele>
        <time>2018-07-14T11:37:00Z</time>
      </trkpt>
      <trkpt lat="47.76927" lon="-3.58774">
        <ele>26</ele>
        <time>2018-07-14T11:37:01Z</time>
      </trkpt>
      <trkpt lat="47.76929" lon="-3.58773">
        <ele>25</ele>
        <time>2018-07-14T11:37:02Z</time>
      </trkpt>
      <trkpt lat="47.76931" lon="-3.58772">
        <ele>25</ele>
        <time>2018-07-14T11:37:03Z</time>
      </trkpt>
      <trkpt lat="47.76934" lon="-3.58772">
        <ele>25</ele>
        <time>2018-07-14T11:37:04Z</time>
      </trkpt>
      <trkpt lat="47.76936" lon="-3.58773">
        <ele>25</ele>
        <time>2018-07-14T11:37:05Z</time>
      </trkpt>
      <trkpt lat="47.76938" lon="-3.58773">
        <ele>24</ele>
        <time>2018-07-14T11:37:06Z</time>
      </trkpt>
      <trkpt lat="47.76941" lon="-3.58773">
        <ele>24</ele>
        <time>2018-07-14T11:37:07Z</time>
      </trkpt>
      <trkpt lat="47.76944" lon="-3.58774">
        <ele>24</ele>
        <time>2018-07-14T11:37:08Z</time>
      </trkpt>
      <trkpt lat="47.76947" lon="-3.58774">
        <ele>24</ele>
        <time>2018-07-14T11:37:09Z</time>
      </trkpt>
      <trkpt lat="47.7695" lon="-3.58775">
        <ele>24</ele>
        <time>2018-07-14T11:37:10Z</time>
      </trkpt>
      <trkpt lat="47.76953" lon="-3.58776">
        <ele>24</ele>
        <time>2018-07-14T11:37:11Z</time>
      </trkpt>
      <trkpt lat="47.76956" lon="-3.58777">
        <ele>24</ele>
        <time>2018-07-14T11:37:12Z</time>
      </trkpt>
      <trkpt lat="47.76958" lon="-3.58778">
        <ele>24</ele>
        <time>2018-07-14T11:37:13Z</time>
      </trkpt>
      <trkpt lat="47.76961" lon="-3.58779">
        <ele>24</ele>
        <time>2018-07-14T11:37:14Z</time>
      </trkpt>
      <trkpt lat="47.76964" lon="-3.58781">
        <ele>24</ele>
        <time>2018-07-14T11:37:15Z</time>
      </trkpt>
      <trkpt lat="47.76967" lon="-3.58782">
        <ele>23</ele>
        <time>2018-07-14T11:37:16Z</time>
      </trkpt>
      <trkpt lat="47.76969" lon="-3.58783">
        <ele>23</ele>
        <time>2018-07-14T11:37:17Z</time>
      </trkpt>
      <trkpt lat="47.76972" lon="-3.58784">
        <ele>23</ele>
        <time>2018-07-14T11:37:18Z</time>
      </trkpt>
      <trkpt lat="47.76975" lon="-3.58786">
        <ele>23</ele>
        <time>2018-07-14T11:37:19Z</time>
      </trkpt>
      <trkpt lat="47.76978" lon="-3.58787">
        <ele>23</ele>
        <time>2018-07-14T11:37:20Z</time>
      </trkpt>
      <trkpt lat="47.76981" lon="-3.58788">
        <ele>24</ele>
        <time>2018-07-14T11:37:21Z</time>
      </trkpt>
      <trkpt lat="47.76984" lon="-3.5879">
        <ele>24</ele>
        <time>2018-07-14T11:37:22Z</time>
      </trkpt>
      <trkpt lat="47.76987" lon="-3.58792">
        <ele>24</ele>
        <time>2018-07-14T11:37:23Z</time>
      </trkpt>
      <trkpt lat="47.7699" lon="-3.58793">
        <ele>24</ele>
        <time>2018-07-14T11:37:24Z</time>
      </trkpt>
      <trkpt lat="47.76993" lon="-3.58795">
        <ele>24</ele>
        <time>2018-07-14T11:37:25Z</time>
      </trkpt>
      <trkpt lat="47.76996" lon="-3.58797">
        <ele>25</ele>
        <time>2018-07-14T11:37:26Z</time>
      </trkpt>
      <trkpt lat="47.76999" lon="-3.58799">
        <ele>25</ele>
        <time>2018-07-14T11:37:27Z</time>
      </trkpt>
      <trkpt lat="47.77001" lon="-3.58801">
        <ele>25</ele>
        <time>2018-07-14T11:37:28Z</time>
      </trkpt>
      <trkpt lat="47.77004" lon="-3.58803">
        <ele>25</ele>
        <time>2018-07-14T11:37:29Z</time>
      </trkpt>
      <trkpt lat="47.77007" lon="-3.58805">
        <ele>25</ele>
        <time>2018-07-14T11:37:30Z</time>
      </trkpt>
      <trkpt lat="47.77009" lon="-3.58807">
        <ele>25</ele>
        <time>2018-07-14T11:37:31Z</time>
      </trkpt>
      <trkpt lat="47.77012" lon="-3.5881">
        <ele>25</ele>
        <time>2018-07-14T11:37:32Z</time>
      </trkpt>
      <trkpt lat="47.77014" lon="-3.58812">
        <ele>26</ele>
        <time>2018-07-14T11:37:33Z</time>
      </trkpt>
      <trkpt lat="47.77017" lon="-3.58813">
        <ele>26</ele>
        <time>2018-07-14T11:37:34Z</time>
      </trkpt>
      <trkpt lat="47.7702" lon="-3.58813">
        <ele>26</ele>
        <time>2018-07-14T11:37:35Z</time>
      </trkpt>
      <trkpt lat="47.77022" lon="-3.58812">
        <ele>26</ele>
        <time>2018-07-14T11:37:36Z</time>
      </trkpt>
      <trkpt lat="47.77024" lon="-3.5881">
        <ele>25</ele>
        <time>2018-07-14T11:37:37Z</time>
      </trkpt>
      <trkpt lat="47.77027" lon="-3.58807">
        <ele>25</ele>
        <time>2018-07-14T11:37:38Z</time>
      </trkpt>
      <trkpt lat="47.77029" lon="-3.58805">
        <ele>25</ele>
        <time>2018-07-14T11:37:39Z</time>
      </trkpt>
      <trkpt lat="47.77031" lon="-3.58803">
        <ele>25</ele>
        <time>2018-07-14T11:37:40Z</time>
      </trkpt>
      <trkpt lat="47.77034" lon="-3.58801">
        <ele>26</ele>
        <time>2018-07-14T11:37:41Z</time>
      </trkpt>
      <trkpt lat="47.77036" lon="-3.58799">
        <ele>26</ele>
        <time>2018-07-14T11:37:42Z</time>
      </trkpt>
      <trkpt lat="47.77038" lon="-3.58795">
        <ele>26</ele>
        <time>2018-07-14T11:37:43Z</time>
      </trkpt>
      <trkpt lat="47.7704" lon="-3.58791">
        <ele>26</ele>
        <time>2018-07-14T11:37:44Z</time>
      </trkpt>
      <trkpt lat="47.77043" lon="-3.58788">
        <ele>26</ele>
        <time>2018-07-14T11:37:45Z</time>
      </trkpt>
      <trkpt lat="47.77045" lon="-3.58784">
        <ele>26</ele>
        <time>2018-07-14T11:37:46Z</time>
      </trkpt>
      <trkpt lat="47.77047" lon="-3.5878">
        <ele>26</ele>
        <time>2018-07-14T11:37:47Z</time>
      </trkpt>
      <trkpt lat="47.77049" lon="-3.58775">
        <ele>26</ele>
        <time>2018-07-14T11:37:48Z</time>
      </trkpt>
      <trkpt lat="47.77051" lon="-3.58771">
        <ele>26</ele>
        <time>2018-07-14T11:37:49Z</time>
      </trkpt>
      <trkpt lat="47.77053" lon="-3.58767">
        <ele>26</ele>
        <time>2018-07-14T11:37:50Z</time>
      </trkpt>
      <trkpt lat="47.77055" lon="-3.58762">
        <ele>26</ele>
        <time>2018-07-14T11:37:51Z</time>
      </trkpt>
      <trkpt lat="47.77058" lon="-3.58758">
        <ele>26</ele>
        <time>2018-07-14T11:37:52Z</time>
      </trkpt>
      <trkpt lat="47.7706" lon="-3.58754">
        <ele>26</ele>
        <time>2018-07-14T11:37:53Z</time>
      </trkpt>
      <trkpt lat="47.77063" lon="-3.58749">
        <ele>26</ele>
        <time>2018-07-14T11:37:54Z</time>
      </trkpt>
      <trkpt lat="47.77066" lon="-3.58746">
        <ele>26</ele>
        <time>2018-07-14T11:37:55Z</time>
      </trkpt>
      <trkpt lat="47.77069" lon="-3.58742">
        <ele>26</ele>
        <time>2018-07-14T11:37:56Z</time>
      </trkpt>
      <trkpt lat="47.77071" lon="-3.58737">
        <ele>26</ele>
        <time>2018-07-14T11:37:57Z</time>
      </trkpt>
      <trkpt lat="47.77073" lon="-3.58731">
        <ele>26</ele>
        <time>2018-07-14T11:37:58Z</time>
      </trkpt>
      <trkpt lat="47.77076" lon="-3.58726">
        <ele>26</ele>
        <time>2018-07-14T11:37:59Z</time>
      </trkpt>
      <trkpt lat="47.77079" lon="-3.58721">
        <ele>26</ele>
        <time>2018-07-14T11:38:00Z</time>
      </trkpt>
      <trkpt lat="47.77081" lon="-3.58719">
        <ele>26</ele>
        <time>2018-07-14T11:38:01Z</time>
      </trkpt>
      <trkpt lat="47.77083" lon="-3.58719">
        <ele>26</ele>
        <time>2018-07-14T11:38:02Z</time>
      </trkpt>
      <trkpt lat="47.77086" lon="-3.58721">
        <ele>25</ele>
        <time>2018-07-14T11:38:03Z</time>
      </trkpt>
      <trkpt lat="47.77087" lon="-3.58724">
        <ele>25</ele>
        <time>2018-07-14T11:38:04Z</time>
      </trkpt>
      <trkpt lat="47.77089" lon="-3.58726">
        <ele>25</ele>
        <time>2018-07-14T11:38:05Z</time>
      </trkpt>
      <trkpt lat="47.77091" lon="-3.58728">
        <ele>25</ele>
        <time>2018-07-14T11:38:06Z</time>
      </trkpt>
      <trkpt lat="47.77094" lon="-3.58731">
        <ele>25</ele>
        <time>2018-07-14T11:38:07Z</time>
      </trkpt>
      <trkpt lat="47.77096" lon="-3.58733">
        <ele>25</ele>
        <time>2018-07-14T11:38:08Z</time>
      </trkpt>
      <trkpt lat="47.77099" lon="-3.58734">
        <ele>25</ele>
        <time>2018-07-14T11:38:09Z</time>
      </trkpt>
      <trkpt lat="47.77102" lon="-3.58735">
        <ele>25</ele>
        <time>2018-07-14T11:38:10Z</time>
      </trkpt>
      <trkpt lat="47.77105" lon="-3.58735">
        <ele>25</ele>
        <time>2018-07-14T11:38:11Z</time>
      </trkpt>
      <trkpt lat="47.77108" lon="-3.58736">
        <ele>24</ele>
        <time>2018-07-14T11:38:12Z</time>
      </trkpt>
      <trkpt lat="47.77111" lon="-3.58737">
        <ele>24</ele>
        <time>2018-07-14T11:38:13Z</time>
      </trkpt>
      <trkpt lat="47.77115" lon="-3.58738">
        <ele>24</ele>
        <time>2018-07-14T11:38:14Z</time>
      </trkpt>
      <trkpt lat="47.77119" lon="-3.58738">
        <ele>24</ele>
        <time>2018-07-14T11:38:15Z</time>
      </trkpt>
      <trkpt lat="47.77123" lon="-3.58739">
        <ele>24</ele>
        <time>2018-07-14T11:38:16Z</time>
      </trkpt>
      <trkpt lat="47.77127" lon="-3.58739">
        <ele>24</ele>
        <time>2018-07-14T11:38:17Z</time>
      </trkpt>
      <trkpt lat="47.77131" lon="-3.5874">
        <ele>24</ele>
        <time>2018-07-14T11:38:18Z</time>
      </trkpt>
      <trkpt lat="47.77135" lon="-3.5874">
        <ele>24</ele>
        <time>2018-07-14T11:38:19Z</time>
      </trkpt>
      <trkpt lat="47.7714" lon="-3.58739">
        <ele>24</ele>
        <time>2018-07-14T11:38:20Z</time>
      </trkpt>
      <trkpt lat="47.77145" lon="-3.58739">
        <ele>24</ele>
        <time>2018-07-14T11:38:21Z</time>
      </trkpt>
      <trkpt lat="47.7715" lon="-3.58738">
        <ele>24</ele>
        <time>2018-07-14T11:38:22Z</time>
      </trkpt>
      <trkpt lat="47.77154" lon="-3.58739">
        <ele>24</ele>
        <time>2018-07-14T11:38:23Z</time>
      </trkpt>
      <trkpt lat="47.77157" lon="-3.58739">
        <ele>24</ele>
        <time>2018-07-14T11:38:24Z</time>
      </trkpt>
      <trkpt lat="47.7716" lon="-3.58742">
        <ele>24</ele>
        <time>2018-07-14T11:38:25Z</time>
      </trkpt>
      <trkpt lat="47.77162" lon="-3.58745">
        <ele>24</ele>
        <time>2018-07-14T11:38:26Z</time>
      </trkpt>
      <trkpt lat="47.77165" lon="-3.58748">
        <ele>24</ele>
        <time>2018-07-14T11:38:27Z</time>
      </trkpt>
      <trkpt lat="47.77168" lon="-3.58752">
        <ele>25</ele>
        <time>2018-07-14T11:38:28Z</time>
      </trkpt>
      <trkpt lat="47.77172" lon="-3.58755">
        <ele>25</ele>
        <time>2018-07-14T11:38:29Z</time>
      </trkpt>
      <trkpt lat="47.77176" lon="-3.58758">
        <ele>25</ele>
        <time>2018-07-14T11:38:30Z</time>
      </trkpt>
      <trkpt lat="47.77181" lon="-3.58762">
        <ele>25</ele>
        <time>2018-07-14T11:38:31Z</time>
      </trkpt>
      <trkpt lat="47.77185" lon="-3.58764">
        <ele>25</ele>
        <time>2018-07-14T11:38:32Z</time>
      </trkpt>
      <trkpt lat="47.7719" lon="-3.58767">
        <ele>25</ele>
        <time>2018-07-14T11:38:33Z</time>
      </trkpt>
      <trkpt lat="47.77194" lon="-3.5877">
        <ele>26</ele>
        <time>2018-07-14T11:38:34Z</time>
      </trkpt>
      <trkpt lat="47.77198" lon="-3.58772">
        <ele>26</ele>
        <time>2018-07-14T11:38:35Z</time>
      </trkpt>
      <trkpt lat="47.77203" lon="-3.58773">
        <ele>26</ele>
        <time>2018-07-14T11:38:36Z</time>
      </trkpt>
      <trkpt lat="47.77208" lon="-3.58775">
        <ele>26</ele>
        <time>2018-07-14T11:38:37Z</time>
      </trkpt>
      <trkpt lat="47.77212" lon="-3.58777">
        <ele>27</ele>
        <time>2018-07-14T11:38:38Z</time>
      </trkpt>
      <trkpt lat="47.77216" lon="-3.5878">
        <ele>27</ele>
        <time>2018-07-14T11:38:39Z</time>
      </trkpt>
      <trkpt lat="47.77221" lon="-3.58782">
        <ele>27</ele>
        <time>2018-07-14T11:38:40Z</time>
      </trkpt>
      <trkpt lat="47.77225" lon="-3.58786">
        <ele>28</ele>
        <time>2018-07-14T11:38:41Z</time>
      </trkpt>
      <trkpt lat="47.77229" lon="-3.58789">
        <ele>28</ele>
        <time>2018-07-14T11:38:42Z</time>
      </trkpt>
      <trkpt lat="47.77234" lon="-3.58792">
        <ele>28</ele>
        <time>2018-07-14T11:38:43Z</time>
      </trkpt>
      <trkpt lat="47.77238" lon="-3.58795">
        <ele>29</ele>
        <time>2018-07-14T11:38:44Z</time>
      </trkpt>
      <trkpt lat="47.77242" lon="-3.58798">
        <ele>29</ele>
        <time>2018-07-14T11:38:45Z</time>
      </trkpt>
      <trkpt lat="47.77245" lon="-3.58801">
        <ele>29</ele>
        <time>2018-07-14T11:38:46Z</time>
      </trkpt>
      <trkpt lat="47.77249" lon="-3.58804">
        <ele>30</ele>
        <time>2018-07-14T11:38:47Z</time>
      </trkpt>
      <trkpt lat="47.77253" lon="-3.58805">
        <ele>30</ele>
        <time>2018-07-14T11:38:48Z</time>
      </trkpt>
      <trkpt lat="47.77257" lon="-3.58807">
        <ele>30</ele>
        <time>2018-07-14T11:38:49Z</time>
      </trkpt>
      <trkpt lat="47.77261" lon="-3.5881">
        <ele>31</ele>
        <time>2018-07-14T11:38:50Z</time>
      </trkpt>
      <trkpt lat="47.77265" lon="-3.58813">
        <ele>31</ele>
        <time>2018-07-14T11:38:51Z</time>
      </trkpt>
      <trkpt lat="47.77268" lon="-3.58816">
        <ele>31</ele>
        <time>2018-07-14T11:38:52Z</time>
      </trkpt>
      <trkpt lat="47.77272" lon="-3.5882">
        <ele>31</ele>
        <time>2018-07-14T11:38:53Z</time>
      </trkpt>
      <trkpt lat="47.77275" lon="-3.58825">
        <ele>32</ele>
        <time>2018-07-14T11:38:54Z</time>
      </trkpt>
      <trkpt lat="47.77278" lon="-3.58829">
        <ele>32</ele>
        <time>2018-07-14T11:38:55Z</time>
      </trkpt>
      <trkpt lat="47.7728" lon="-3.58833">
        <ele>32</ele>
        <time>2018-07-14T11:38:56Z</time>
      </trkpt>
      <trkpt lat="47.77282" lon="-3.58837">
        <ele>32</ele>
        <time>2018-07-14T11:38:57Z</time>
      </trkpt>
      <trkpt lat="47.77284" lon="-3.58841">
        <ele>32</ele>
        <time>2018-07-14T11:38:58Z</time>
      </trkpt>
      <trkpt lat="47.77286" lon="-3.58846">
        <ele>33</ele>
        <time>2018-07-14T11:38:59Z</time>
      </trkpt>
      <trkpt lat="47.77288" lon="-3.58851">
        <ele>33</ele>
        <time>2018-07-14T11:39:00Z</time>
      </trkpt>
      <trkpt lat="47.7729" lon="-3.58857">
        <ele>33</ele>
        <time>2018-07-14T11:39:01Z</time>
      </trkpt>
      <trkpt lat="47.7729" lon="-3.58863">
        <ele>33</ele>
        <time>2018-07-14T11:39:02Z</time>
      </trkpt>
      <trkpt lat="47.7729" lon="-3.58869">
        <ele>33</ele>
        <time>2018-07-14T11:39:03Z</time>
      </trkpt>
      <trkpt lat="47.77291" lon="-3.58875">
        <ele>33</ele>
        <time>2018-07-14T11:39:04Z</time>
      </trkpt>
      <trkpt lat="47.77292" lon="-3.58881">
        <ele>34</ele>
        <time>2018-07-14T11:39:05Z</time>
      </trkpt>
      <trkpt lat="47.77294" lon="-3.58885">
        <ele>34</ele>
        <time>2018-07-14T11:39:06Z</time>
      </trkpt>
      <trkpt lat="47.77299" lon="-3.58886">
        <ele>34</ele>
        <time>2018-07-14T11:39:07Z</time>
      </trkpt>
      <trkpt lat="47.77303" lon="-3.58887">
        <ele>34</ele>
        <time>2018-07-14T11:39:08Z</time>
      </trkpt>
      <trkpt lat="47.77307" lon="-3.58887">
        <ele>35</ele>
        <time>2018-07-14T11:39:09Z</time>
      </trkpt>
      <trkpt lat="47.77312" lon="-3.58888">
        <ele>35</ele>
        <time>2018-07-14T11:39:10Z</time>
      </trkpt>
      <trkpt lat="47.77316" lon="-3.58889">
        <ele>35</ele>
        <time>2018-07-14T11:39:11Z</time>
      </trkpt>
      <trkpt lat="47.77321" lon="-3.5889">
        <ele>36</ele>
        <time>2018-07-14T11:39:12Z</time>
      </trkpt>
      <trkpt lat="47.77326" lon="-3.58891">
        <ele>36</ele>
        <time>2018-07-14T11:39:13Z</time>
      </trkpt>
      <trkpt lat="47.7733" lon="-3.58892">
        <ele>37</ele>
        <time>2018-07-14T11:39:14Z</time>
      </trkpt>
      <trkpt lat="47.77335" lon="-3.58893">
        <ele>37</ele>
        <time>2018-07-14T11:39:15Z</time>
      </trkpt>
      <trkpt lat="47.7734" lon="-3.58894">
        <ele>37</ele>
        <time>2018-07-14T11:39:16Z</time>
      </trkpt>
      <trkpt lat="47.77344" lon="-3.58895">
        <ele>38</ele>
        <time>2018-07-14T11:39:17Z</time>
      </trkpt>
      <trkpt lat="47.77349" lon="-3.58896">
        <ele>38</ele>
        <time>2018-07-14T11:39:18Z</time>
      </trkpt>
      <trkpt lat="47.77354" lon="-3.58897">
        <ele>38</ele>
        <time>2018-07-14T11:39:19Z</time>
      </trkpt>
      <trkpt lat="47.77359" lon="-3.58898">
        <ele>39</ele>
        <time>2018-07-14T11:39:20Z</time>
      </trkpt>
      <trkpt lat="47.77363" lon="-3.58898">
        <ele>39</ele>
        <time>2018-07-14T11:39:21Z</time>
      </trkpt>
      <trkpt lat="47.77368" lon="-3.58899">
        <ele>39</ele>
        <time>2018-07-14T11:39:22Z</time>
      </trkpt>
      <trkpt lat="47.77373" lon="-3.58899">
        <ele>40</ele>
        <time>2018-07-14T11:39:23Z</time>
      </trkpt>
      <trkpt lat="47.77378" lon="-3.58899">
        <ele>40</ele>
        <time>2018-07-14T11:39:24Z</time>
      </trkpt>
      <trkpt lat="47.77382" lon="-3.58899">
        <ele>40</ele>
        <time>2018-07-14T11:39:25Z</time>
      </trkpt>
      <trkpt lat="47.77387" lon="-3.58899">
        <ele>41</ele>
        <time>2018-07-14T11:39:26Z</time>
      </trkpt>
      <trkpt lat="47.77392" lon="-3.58899">
        <ele>41</ele>
        <time>2018-07-14T11:39:27Z</time>
      </trkpt>
      <trkpt lat="47.77396" lon="-3.58898">
        <ele>41</ele>
        <time>2018-07-14T11:39:28Z</time>
      </trkpt>
      <trkpt lat="47.77401" lon="-3.58899">
        <ele>41</ele>
        <time>2018-07-14T11:39:29Z</time>
      </trkpt>
      <trkpt lat="47.77405" lon="-3.58898">
        <ele>42</ele>
        <time>2018-07-14T11:39:30Z</time>
      </trkpt>
      <trkpt lat="47.7741" lon="-3.58898">
        <ele>42</ele>
        <time>2018-07-14T11:39:31Z</time>
      </trkpt>
      <trkpt lat="47.77415" lon="-3.58897">
        <ele>42</ele>
        <time>2018-07-14T11:39:32Z</time>
      </trkpt>
      <trkpt lat="47.7742" lon="-3.58897">
        <ele>43</ele>
        <time>2018-07-14T11:39:33Z</time>
      </trkpt>
      <trkpt lat="47.77424" lon="-3.58897">
        <ele>43</ele>
        <time>2018-07-14T11:39:34Z</time>
      </trkpt>
      <trkpt lat="47.77429" lon="-3.58897">
        <ele>43</ele>
        <time>2018-07-14T11:39:35Z</time>
      </trkpt>
      <trkpt lat="47.77434" lon="-3.58897">
        <ele>43</ele>
        <time>2018-07-14T11:39:36Z</time>
      </trkpt>
      <trkpt lat="47.77438" lon="-3.58898">
        <ele>44</ele>
        <time>2018-07-14T11:39:37Z</time>
      </trkpt>
      <trkpt lat="47.77443" lon="-3.58897">
        <ele>44</ele>
        <time>2018-07-14T11:39:38Z</time>
      </trkpt>
      <trkpt lat="47.77447" lon="-3.58894">
        <ele>44</ele>
        <time>2018-07-14T11:39:39Z</time>
      </trkpt>
      <trkpt lat="47.77451" lon="-3.5889">
        <ele>44</ele>
        <time>2018-07-14T11:39:40Z</time>
      </trkpt>
      <trkpt lat="47.77453" lon="-3.58884">
        <ele>44</ele>
        <time>2018-07-14T11:39:41Z</time>
      </trkpt>
      <trkpt lat="47.77453" lon="-3.58878">
        <ele>44</ele>
        <time>2018-07-14T11:39:42Z</time>
      </trkpt>
      <trkpt lat="47.77453" lon="-3.58872">
        <ele>44</ele>
        <time>2018-07-14T11:39:43Z</time>
      </trkpt>
      <trkpt lat="47.77452" lon="-3.58865">
        <ele>44</ele>
        <time>2018-07-14T11:39:44Z</time>
      </trkpt>
      <trkpt lat="47.77452" lon="-3.58858">
        <ele>44</ele>
        <time>2018-07-14T11:39:45Z</time>
      </trkpt>
      <trkpt lat="47.77452" lon="-3.58851">
        <ele>44</ele>
        <time>2018-07-14T11:39:46Z</time>
      </trkpt>
      <trkpt lat="47.77451" lon="-3.58843">
        <ele>44</ele>
        <time>2018-07-14T11:39:47Z</time>
      </trkpt>
      <trkpt lat="47.77451" lon="-3.58836">
        <ele>44</ele>
        <time>2018-07-14T11:39:48Z</time>
      </trkpt>
      <trkpt lat="47.77451" lon="-3.58827">
        <ele>44</ele>
        <time>2018-07-14T11:39:49Z</time>
      </trkpt>
      <trkpt lat="47.7745" lon="-3.58819">
        <ele>44</ele>
        <time>2018-07-14T11:39:50Z</time>
      </trkpt>
      <trkpt lat="47.7745" lon="-3.58811">
        <ele>44</ele>
        <time>2018-07-14T11:39:51Z</time>
      </trkpt>
      <trkpt lat="47.77449" lon="-3.58803">
        <ele>44</ele>
        <time>2018-07-14T11:39:52Z</time>
      </trkpt>
      <trkpt lat="47.77448" lon="-3.58794">
        <ele>44</ele>
        <time>2018-07-14T11:39:53Z</time>
      </trkpt>
      <trkpt lat="47.77447" lon="-3.58785">
        <ele>44</ele>
        <time>2018-07-14T11:39:54Z</time>
      </trkpt>
      <trkpt lat="47.77446" lon="-3.58777">
        <ele>44</ele>
        <time>2018-07-14T11:39:55Z</time>
      </trkpt>
      <trkpt lat="47.77445" lon="-3.58768">
        <ele>44</ele>
        <time>2018-07-14T11:39:56Z</time>
      </trkpt>
      <trkpt lat="47.77444" lon="-3.58759">
        <ele>44</ele>
        <time>2018-07-14T11:39:57Z</time>
      </trkpt>
      <trkpt lat="47.77442" lon="-3.5875">
        <ele>44</ele>
        <time>2018-07-14T11:39:58Z</time>
      </trkpt>
      <trkpt lat="47.77441" lon="-3.58741">
        <ele>43</ele>
        <time>2018-07-14T11:39:59Z</time>
      </trkpt>
      <trkpt lat="47.77441" lon="-3.58732">
        <ele>43</ele>
        <time>2018-07-14T11:40:00Z</time>
      </trkpt>
      <trkpt lat="47.7744" lon="-3.58723">
        <ele>43</ele>
        <time>2018-07-14T11:40:01Z</time>
      </trkpt>
      <trkpt lat="47.7744" lon="-3.58714">
        <ele>43</ele>
        <time>2018-07-14T11:40:02Z</time>
      </trkpt>
      <trkpt lat="47.77441" lon="-3.58705">
        <ele>43</ele>
        <time>2018-07-14T11:40:03Z</time>
      </trkpt>
      <trkpt lat="47.77441" lon="-3.58695">
        <ele>42</ele>
        <time>2018-07-14T11:40:04Z</time>
      </trkpt>
      <trkpt lat="47.77442" lon="-3.58685">
        <ele>42</ele>
        <time>2018-07-14T11:40:05Z</time>
      </trkpt>
      <trkpt lat="47.77443" lon="-3.58676">
        <ele>42</ele>
        <time>2018-07-14T11:40:06Z</time>
      </trkpt>
      <trkpt lat="47.77444" lon="-3.58666">
        <ele>42</ele>
        <time>2018-07-14T11:40:07Z</time>
      </trkpt>
      <trkpt lat="47.77445" lon="-3.58656">
        <ele>42</ele>
        <time>2018-07-14T11:40:08Z</time>
      </trkpt>
      <trkpt lat="47.77446" lon="-3.58648">
        <ele>42</ele>
        <time>2018-07-14T11:40:09Z</time>
      </trkpt>
      <trkpt lat="47.77448" lon="-3.5864">
        <ele>41</ele>
        <time>2018-07-14T11:40:10Z</time>
      </trkpt>
      <trkpt lat="47.7745" lon="-3.58637">
        <ele>41</ele>
        <time>2018-07-14T11:40:11Z</time>
      </trkpt>
      <trkpt lat="47.77452" lon="-3.58636">
        <ele>41</ele>
        <time>2018-07-14T11:40:12Z</time>
      </trkpt>
      <trkpt lat="47.77453" lon="-3.58636">
        <ele>41</ele>
        <time>2018-07-14T11:40:13Z</time>
      </trkpt>
      <trkpt lat="47.77453" lon="-3.58636">
        <ele>41</ele>
        <time>2018-07-14T11:40:14Z</time>
      </trkpt>
      <trkpt lat="47.77453" lon="-3.58635">
        <ele>41</ele>
        <time>2018-07-14T11:40:15Z</time>
      </trkpt>
      <trkpt lat="47.77453" lon="-3.58633">
        <ele>41</ele>
        <time>2018-07-14T11:40:16Z</time>
      </trkpt>
      <trkpt lat="47.77453" lon="-3.5863">
        <ele>41</ele>
        <time>2018-07-14T11:40:17Z</time>
      </trkpt>
      <trkpt lat="47.77452" lon="-3.58627">
        <ele>41</ele>
        <time>2018-07-14T11:40:18Z</time>
      </trkpt>
      <trkpt lat="47.77451" lon="-3.58624">
        <ele>42</ele>
        <time>2018-07-14T11:40:19Z</time>
      </trkpt>
      <trkpt lat="47.7745" lon="-3.5862">
        <ele>42</ele>
        <time>2018-07-14T11:40:20Z</time>
      </trkpt>
      <trkpt lat="47.7745" lon="-3.58615">
        <ele>42</ele>
        <time>2018-07-14T11:40:21Z</time>
      </trkpt>
      <trkpt lat="47.7745" lon="-3.5861">
        <ele>42</ele>
        <time>2018-07-14T11:40:22Z</time>
      </trkpt>
      <trkpt lat="47.77451" lon="-3.58604">
        <ele>42</ele>
        <time>2018-07-14T11:40:23Z</time>
      </trkpt>
      <trkpt lat="47.77452" lon="-3.58599">
        <ele>42</ele>
        <time>2018-07-14T11:40:24Z</time>
      </trkpt>
      <trkpt lat="47.77453" lon="-3.58593">
        <ele>42</ele>
        <time>2018-07-14T11:40:25Z</time>
      </trkpt>
      <trkpt lat="47.77455" lon="-3.58587">
        <ele>43</ele>
        <time>2018-07-14T11:40:26Z</time>
      </trkpt>
      <trkpt lat="47.77458" lon="-3.58584">
        <ele>43</ele>
        <time>2018-07-14T11:40:27Z</time>
      </trkpt>
      <trkpt lat="47.77462" lon="-3.58583">
        <ele>43</ele>
        <time>2018-07-14T11:40:28Z</time>
      </trkpt>
      <trkpt lat="47.77467" lon="-3.58583">
        <ele>43</ele>
        <time>2018-07-14T11:40:29Z</time>
      </trkpt>
      <trkpt lat="47.77471" lon="-3.58584">
        <ele>43</ele>
        <time>2018-07-14T11:40:30Z</time>
      </trkpt>
      <trkpt lat="47.77476" lon="-3.58586">
        <ele>43</ele>
        <time>2018-07-14T11:40:31Z</time>
      </trkpt>
      <trkpt lat="47.7748" lon="-3.58587">
        <ele>44</ele>
        <time>2018-07-14T11:40:32Z</time>
      </trkpt>
      <trkpt lat="47.77484" lon="-3.58587">
        <ele>44</ele>
        <time>2018-07-14T11:40:33Z</time>
      </trkpt>
      <trkpt lat="47.77489" lon="-3.58588">
        <ele>44</ele>
        <time>2018-07-14T11:40:34Z</time>
      </trkpt>
      <trkpt lat="47.77493" lon="-3.58589">
        <ele>44</ele>
        <time>2018-07-14T11:40:35Z</time>
      </trkpt>
      <trkpt lat="47.77498" lon="-3.5859">
        <ele>44</ele>
        <time>2018-07-14T11:40:36Z</time>
      </trkpt>
      <trkpt lat="47.77502" lon="-3.5859">
        <ele>44</ele>
        <time>2018-07-14T11:40:37Z</time>
      </trkpt>
      <trkpt lat="47.77507" lon="-3.5859">
        <ele>44</ele>
        <time>2018-07-14T11:40:38Z</time>
      </trkpt>
      <trkpt lat="47.77512" lon="-3.58591">
        <ele>45</ele>
        <time>2018-07-14T11:40:39Z</time>
      </trkpt>
      <trkpt lat="47.77517" lon="-3.58591">
        <ele>45</ele>
        <time>2018-07-14T11:40:40Z</time>
      </trkpt>
      <trkpt lat="47.77522" lon="-3.58591">
        <ele>45</ele>
        <time>2018-07-14T11:40:41Z</time>
      </trkpt>
      <trkpt lat="47.77526" lon="-3.58591">
        <ele>45</ele>
        <time>2018-07-14T11:40:42Z</time>
      </trkpt>
      <trkpt lat="47.77531" lon="-3.5859">
        <ele>45</ele>
        <time>2018-07-14T11:40:43Z</time>
      </trkpt>
      <trkpt lat="47.77536" lon="-3.5859">
        <ele>46</ele>
        <time>2018-07-14T11:40:44Z</time>
      </trkpt>
      <trkpt lat="47.77541" lon="-3.5859">
        <ele>46</ele>
        <time>2018-07-14T11:40:45Z</time>
      </trkpt>
      <trkpt lat="47.77546" lon="-3.5859">
        <ele>46</ele>
        <time>2018-07-14T11:40:46Z</time>
      </trkpt>
      <trkpt lat="47.77551" lon="-3.5859">
        <ele>46</ele>
        <time>2018-07-14T11:40:47Z</time>
      </trkpt>
      <trkpt lat="47.77556" lon="-3.5859">
        <ele>46</ele>
        <time>2018-07-14T11:40:48Z</time>
      </trkpt>
      <trkpt lat="47.77561" lon="-3.5859">
        <ele>46</ele>
        <time>2018-07-14T11:40:49Z</time>
      </trkpt>
      <trkpt lat="47.77565" lon="-3.5859">
        <ele>46</ele>
        <time>2018-07-14T11:40:50Z</time>
      </trkpt>
      <trkpt lat="47.7757" lon="-3.58589">
        <ele>46</ele>
        <time>2018-07-14T11:40:51Z</time>
      </trkpt>
      <trkpt lat="47.77575" lon="-3.58588">
        <ele>46</ele>
        <time>2018-07-14T11:40:52Z</time>
      </trkpt>
      <trkpt lat="47.7758" lon="-3.58588">
        <ele>47</ele>
        <time>2018-07-14T11:40:53Z</time>
      </trkpt>
      <trkpt lat="47.77586" lon="-3.58587">
        <ele>47</ele>
        <time>2018-07-14T11:40:54Z</time>
      </trkpt>
      <trkpt lat="47.77591" lon="-3.58586">
        <ele>47</ele>
        <time>2018-07-14T11:40:55Z</time>
      </trkpt>
      <trkpt lat="47.77597" lon="-3.58586">
        <ele>47</ele>
        <time>2018-07-14T11:40:56Z</time>
      </trkpt>
      <trkpt lat="47.77602" lon="-3.58585">
        <ele>47</ele>
        <time>2018-07-14T11:40:57Z</time>
      </trkpt>
      <trkpt lat="47.77608" lon="-3.58584">
        <ele>47</ele>
        <time>2018-07-14T11:40:58Z</time>
      </trkpt>
      <trkpt lat="47.77613" lon="-3.58583">
        <ele>47</ele>
        <time>2018-07-14T11:40:59Z</time>
      </trkpt>
      <trkpt lat="47.77618" lon="-3.58582">
        <ele>47</ele>
        <time>2018-07-14T11:41:00Z</time>
      </trkpt>
      <trkpt lat="47.77624" lon="-3.58581">
        <ele>47</ele>
        <time>2018-07-14T11:41:01Z</time>
      </trkpt>
      <trkpt lat="47.77629" lon="-3.5858">
        <ele>47</ele>
        <time>2018-07-14T11:41:02Z</time>
      </trkpt>
      <trkpt lat="47.77635" lon="-3.5858">
        <ele>46</ele>
        <time>2018-07-14T11:41:03Z</time>
      </trkpt>
      <trkpt lat="47.77641" lon="-3.58579">
        <ele>46</ele>
        <time>2018-07-14T11:41:04Z</time>
      </trkpt>
      <trkpt lat="47.77647" lon="-3.58578">
        <ele>46</ele>
        <time>2018-07-14T11:41:05Z</time>
      </trkpt>
      <trkpt lat="47.77652" lon="-3.58578">
        <ele>46</ele>
        <time>2018-07-14T11:41:06Z</time>
      </trkpt>
      <trkpt lat="47.77657" lon="-3.58577">
        <ele>46</ele>
        <time>2018-07-14T11:41:07Z</time>
      </trkpt>
      <trkpt lat="47.77663" lon="-3.58577">
        <ele>46</ele>
        <time>2018-07-14T11:41:08Z</time>
      </trkpt>
      <trkpt lat="47.77668" lon="-3.58577">
        <ele>46</ele>
        <time>2018-07-14T11:41:09Z</time>
      </trkpt>
      <trkpt lat="47.77674" lon="-3.58577">
        <ele>46</ele>
        <time>2018-07-14T11:41:10Z</time>
      </trkpt>
      <trkpt lat="47.77679" lon="-3.58576">
        <ele>46</ele>
        <time>2018-07-14T11:41:11Z</time>
      </trkpt>
      <trkpt lat="47.77684" lon="-3.58576">
        <ele>45</ele>
        <time>2018-07-14T11:41:12Z</time>
      </trkpt>
      <trkpt lat="47.7769" lon="-3.58575">
        <ele>45</ele>
        <time>2018-07-14T11:41:13Z</time>
      </trkpt>
      <trkpt lat="47.77695" lon="-3.58574">
        <ele>45</ele>
        <time>2018-07-14T11:41:14Z</time>
      </trkpt>
      <trkpt lat="47.777" lon="-3.58573">
        <ele>45</ele>
        <time>2018-07-14T11:41:15Z</time>
      </trkpt>
      <trkpt lat="47.77706" lon="-3.58572">
        <ele>45</ele>
        <time>2018-07-14T11:41:16Z</time>
      </trkpt>
      <trkpt lat="47.77712" lon="-3.58572">
        <ele>45</ele>
        <time>2018-07-14T11:41:17Z</time>
      </trkpt>
      <trkpt lat="47.77717" lon="-3.58574">
        <ele>45</ele>
        <time>2018-07-14T11:41:18Z</time>
      </trkpt>
      <trkpt lat="47.77723" lon="-3.58575">
        <ele>45</ele>
        <time>2018-07-14T11:41:19Z</time>
      </trkpt>
      <trkpt lat="47.77729" lon="-3.58576">
        <ele>45</ele>
        <time>2018-07-14T11:41:20Z</time>
      </trkpt>
      <trkpt lat="47.77736" lon="-3.58577">
        <ele>45</ele>
        <time>2018-07-14T11:41:21Z</time>
      </trkpt>
      <trkpt lat="47.77742" lon="-3.58578">
        <ele>45</ele>
        <time>2018-07-14T11:41:22Z</time>
      </trkpt>
      <trkpt lat="47.77748" lon="-3.5858">
        <ele>45</ele>
        <time>2018-07-14T11:41:23Z</time>
      </trkpt>
      <trkpt lat="47.77754" lon="-3.58581">
        <ele>45</ele>
        <time>2018-07-14T11:41:24Z</time>
      </trkpt>
      <trkpt lat="47.7776" lon="-3.58584">
        <ele>45</ele>
        <time>2018-07-14T11:41:25Z</time>
      </trkpt>
      <trkpt lat="47.77766" lon="-3.58585">
        <ele>45</ele>
        <time>2018-07-14T11:41:26Z</time>
      </trkpt>
      <trkpt lat="47.77772" lon="-3.58587">
        <ele>44</ele>
        <time>2018-07-14T11:41:27Z</time>
      </trkpt>
      <trkpt lat="47.77778" lon="-3.58589">
        <ele>44</ele>
        <time>2018-07-14T11:41:28Z</time>
      </trkpt>
      <trkpt lat="47.77783" lon="-3.58591">
        <ele>44</ele>
        <time>2018-07-14T11:41:29Z</time>
      </trkpt>
      <trkpt lat="47.77789" lon="-3.58592">
        <ele>44</ele>
        <time>2018-07-14T11:41:30Z</time>
      </trkpt>
      <trkpt lat="47.77793" lon="-3.58594">
        <ele>44</ele>
        <time>2018-07-14T11:41:31Z</time>
      </trkpt>
      <trkpt lat="47.77797" lon="-3.58597">
        <ele>44</ele>
        <time>2018-07-14T11:41:32Z</time>
      </trkpt>
      <trkpt lat="47.77801" lon="-3.58602">
        <ele>44</ele>
        <time>2018-07-14T11:41:33Z</time>
      </trkpt>
      <trkpt lat="47.77805" lon="-3.58605">
        <ele>43</ele>
        <time>2018-07-14T11:41:34Z</time>
      </trkpt>
      <trkpt lat="47.77809" lon="-3.58607">
        <ele>43</ele>
        <time>2018-07-14T11:41:35Z</time>
      </trkpt>
      <trkpt lat="47.77814" lon="-3.58609">
        <ele>43</ele>
        <time>2018-07-14T11:41:36Z</time>
      </trkpt>
      <trkpt lat="47.77819" lon="-3.5861">
        <ele>43</ele>
        <time>2018-07-14T11:41:37Z</time>
      </trkpt>
      <trkpt lat="47.77825" lon="-3.5861">
        <ele>43</ele>
        <time>2018-07-14T11:41:38Z</time>
      </trkpt>
      <trkpt lat="47.7783" lon="-3.5861">
        <ele>42</ele>
        <time>2018-07-14T11:41:39Z</time>
      </trkpt>
      <trkpt lat="47.77835" lon="-3.58609">
        <ele>42</ele>
        <time>2018-07-14T11:41:40Z</time>
      </trkpt>
      <trkpt lat="47.77841" lon="-3.58607">
        <ele>42</ele>
        <time>2018-07-14T11:41:41Z</time>
      </trkpt>
      <trkpt lat="47.77846" lon="-3.58605">
        <ele>43</ele>
        <time>2018-07-14T11:41:42Z</time>
      </trkpt>
      <trkpt lat="47.77851" lon="-3.58603">
        <ele>43</ele>
        <time>2018-07-14T11:41:43Z</time>
      </trkpt>
      <trkpt lat="47.77855" lon="-3.58602">
        <ele>43</ele>
        <time>2018-07-14T11:41:44Z</time>
      </trkpt>
      <trkpt lat="47.7786" lon="-3.586">
        <ele>42</ele>
        <time>2018-07-14T11:41:45Z</time>
      </trkpt>
      <trkpt lat="47.77864" lon="-3.58598">
        <ele>42</ele>
        <time>2018-07-14T11:41:46Z</time>
      </trkpt>
      <trkpt lat="47.77867" lon="-3.58595">
        <ele>42</ele>
        <time>2018-07-14T11:41:47Z</time>
      </trkpt>
      <trkpt lat="47.7787" lon="-3.5859">
        <ele>42</ele>
        <time>2018-07-14T11:41:48Z</time>
      </trkpt>
      <trkpt lat="47.77871" lon="-3.58584">
        <ele>42</ele>
        <time>2018-07-14T11:41:49Z</time>
      </trkpt>
      <trkpt lat="47.77871" lon="-3.58577">
        <ele>42</ele>
        <time>2018-07-14T11:41:50Z</time>
      </trkpt>
      <trkpt lat="47.7787" lon="-3.58571">
        <ele>42</ele>
        <time>2018-07-14T11:41:51Z</time>
      </trkpt>
      <trkpt lat="47.7787" lon="-3.58564">
        <ele>42</ele>
        <time>2018-07-14T11:41:52Z</time>
      </trkpt>
      <trkpt lat="47.77869" lon="-3.58557">
        <ele>42</ele>
        <time>2018-07-14T11:41:53Z</time>
      </trkpt>
      <trkpt lat="47.77867" lon="-3.58551">
        <ele>42</ele>
        <time>2018-07-14T11:41:54Z</time>
      </trkpt>
      <trkpt lat="47.77865" lon="-3.58544">
        <ele>42</ele>
        <time>2018-07-14T11:41:55Z</time>
      </trkpt>
      <trkpt lat="47.77864" lon="-3.58538">
        <ele>43</ele>
        <time>2018-07-14T11:41:56Z</time>
      </trkpt>
      <trkpt lat="47.77862" lon="-3.5853">
        <ele>43</ele>
        <time>2018-07-14T11:41:57Z</time>
      </trkpt>
      <trkpt lat="47.77861" lon="-3.58523">
        <ele>43</ele>
        <time>2018-07-14T11:41:58Z</time>
      </trkpt>
      <trkpt lat="47.77859" lon="-3.58516">
        <ele>43</ele>
        <time>2018-07-14T11:41:59Z</time>
      </trkpt>
      <trkpt lat="47.77857" lon="-3.58509">
        <ele>43</ele>
        <time>2018-07-14T11:42:00Z</time>
      </trkpt>
      <trkpt lat="47.77856" lon="-3.58503">
        <ele>43</ele>
        <time>2018-07-14T11:42:01Z</time>
      </trkpt>
      <trkpt lat="47.77854" lon="-3.58496">
        <ele>44</ele>
        <time>2018-07-14T11:42:02Z</time>
      </trkpt>
      <trkpt lat="47.77852" lon="-3.58489">
        <ele>44</ele>
        <time>2018-07-14T11:42:03Z</time>
      </trkpt>
      <trkpt lat="47.77851" lon="-3.58483">
        <ele>44</ele>
        <time>2018-07-14T11:42:04Z</time>
      </trkpt>
      <trkpt lat="47.7785" lon="-3.5848">
        <ele>44</ele>
        <time>2018-07-14T11:42:05Z</time>
      </trkpt>
      <trkpt lat="47.77849" lon="-3.58477">
        <ele>44</ele>
        <time>2018-07-14T11:42:06Z</time>
      </trkpt>
      <trkpt lat="47.77849" lon="-3.58474">
        <ele>45</ele>
        <time>2018-07-14T11:42:07Z</time>
      </trkpt>
      <trkpt lat="47.77848" lon="-3.58471">
        <ele>45</ele>
        <time>2018-07-14T11:42:08Z</time>
      </trkpt>
      <trkpt lat="47.77848" lon="-3.58468">
        <ele>45</ele>
        <time>2018-07-14T11:42:09Z</time>
      </trkpt>
      <trkpt lat="47.77848" lon="-3.58463">
        <ele>45</ele>
        <time>2018-07-14T11:42:10Z</time>
      </trkpt>
      <trkpt lat="47.77848" lon="-3.58458">
        <ele>45</ele>
        <time>2018-07-14T11:42:11Z</time>
      </trkpt>
      <trkpt lat="47.77847" lon="-3.58452">
        <ele>46</ele>
        <time>2018-07-14T11:42:12Z</time>
      </trkpt>
      <trkpt lat="47.77847" lon="-3.58446">
        <ele>46</ele>
        <time>2018-07-14T11:42:13Z</time>
      </trkpt>
      <trkpt lat="47.77847" lon="-3.5844">
        <ele>46</ele>
        <time>2018-07-14T11:42:14Z</time>
      </trkpt>
      <trkpt lat="47.77846" lon="-3.58434">
        <ele>46</ele>
        <time>2018-07-14T11:42:15Z</time>
      </trkpt>
      <trkpt lat="47.77846" lon="-3.58427">
        <ele>46</ele>
        <time>2018-07-14T11:42:16Z</time>
      </trkpt>
      <trkpt lat="47.77845" lon="-3.58421">
        <ele>46</ele>
        <time>2018-07-14T11:42:17Z</time>
      </trkpt>
      <trkpt lat="47.77845" lon="-3.58414">
        <ele>46</ele>
        <time>2018-07-14T11:42:18Z</time>
      </trkpt>
      <trkpt lat="47.77844" lon="-3.58407">
        <ele>46</ele>
        <time>2018-07-14T11:42:19Z</time>
      </trkpt>
      <trkpt lat="47.77844" lon="-3.58401">
        <ele>47</ele>
        <time>2018-07-14T11:42:20Z</time>
      </trkpt>
      <trkpt lat="47.77843" lon="-3.58394">
        <ele>47</ele>
        <time>2018-07-14T11:42:21Z</time>
      </trkpt>
      <trkpt lat="47.77843" lon="-3.58387">
        <ele>47</ele>
        <time>2018-07-14T11:42:22Z</time>
      </trkpt>
      <trkpt lat="47.77842" lon="-3.58379">
        <ele>47</ele>
        <time>2018-07-14T11:42:23Z</time>
      </trkpt>
      <trkpt lat="47.77842" lon="-3.58372">
        <ele>48</ele>
        <time>2018-07-14T11:42:24Z</time>
      </trkpt>
      <trkpt lat="47.77841" lon="-3.58365">
        <ele>48</ele>
        <time>2018-07-14T11:42:25Z</time>
      </trkpt>
      <trkpt lat="47.77841" lon="-3.58357">
        <ele>48</ele>
        <time>2018-07-14T11:42:26Z</time>
      </trkpt>
      <trkpt lat="47.77841" lon="-3.5835">
        <ele>48</ele>
        <time>2018-07-14T11:42:27Z</time>
      </trkpt>
      <trkpt lat="47.77841" lon="-3.58343">
        <ele>48</ele>
        <time>2018-07-14T11:42:28Z</time>
      </trkpt>
      <trkpt lat="47.7784" lon="-3.58335">
        <ele>48</ele>
        <time>2018-07-14T11:42:29Z</time>
      </trkpt>
      <trkpt lat="47.7784" lon="-3.58328">
        <ele>48</ele>
        <time>2018-07-14T11:42:30Z</time>
      </trkpt>
      <trkpt lat="47.7784" lon="-3.5832">
        <ele>48</ele>
        <time>2018-07-14T11:42:31Z</time>
      </trkpt>
      <trkpt lat="47.77841" lon="-3.58312">
        <ele>48</ele>
        <time>2018-07-14T11:42:32Z</time>
      </trkpt>
      <trkpt lat="47.77842" lon="-3.58306">
        <ele>48</ele>
        <time>2018-07-14T11:42:33Z</time>
      </trkpt>
      <trkpt lat="47.77845" lon="-3.58301">
        <ele>48</ele>
        <time>2018-07-14T11:42:34Z</time>
      </trkpt>
      <trkpt lat="47.77848" lon="-3.58298">
        <ele>48</ele>
        <time>2018-07-14T11:42:35Z</time>
      </trkpt>
      <trkpt lat="47.77852" lon="-3.58297">
        <ele>48</ele>
        <time>2018-07-14T11:42:36Z</time>
      </trkpt>
      <trkpt lat="47.77857" lon="-3.58295">
        <ele>48</ele>
        <time>2018-07-14T11:42:37Z</time>
      </trkpt>
      <trkpt lat="47.7786" lon="-3.58291">
        <ele>48</ele>
        <time>2018-07-14T11:42:38Z</time>
      </trkpt>
      <trkpt lat="47.77862" lon="-3.58285">
        <ele>48</ele>
        <time>2018-07-14T11:42:39Z</time>
      </trkpt>
      <trkpt lat="47.77863" lon="-3.58278">
        <ele>48</ele>
        <time>2018-07-14T11:42:40Z</time>
      </trkpt>
      <trkpt lat="47.77864" lon="-3.5827">
        <ele>48</ele>
        <time>2018-07-14T11:42:41Z</time>
      </trkpt>
      <trkpt lat="47.77867" lon="-3.58264">
        <ele>48</ele>
        <time>2018-07-14T11:42:42Z</time>
      </trkpt>
      <trkpt lat="47.7787" lon="-3.58258">
        <ele>48</ele>
        <time>2018-07-14T11:42:43Z</time>
      </trkpt>
      <trkpt lat="47.77871" lon="-3.58251">
        <ele>48</ele>
        <time>2018-07-14T11:42:44Z</time>
      </trkpt>
      <trkpt lat="47.77873" lon="-3.58243">
        <ele>47</ele>
        <time>2018-07-14T11:42:45Z</time>
      </trkpt>
      <trkpt lat="47.77874" lon="-3.58235">
        <ele>47</ele>
        <time>2018-07-14T11:42:46Z</time>
      </trkpt>
      <trkpt lat="47.77875" lon="-3.58227">
        <ele>47</ele>
        <time>2018-07-14T11:42:47Z</time>
      </trkpt>
      <trkpt lat="47.77876" lon="-3.58219">
        <ele>47</ele>
        <time>2018-07-14T11:42:48Z</time>
      </trkpt>
      <trkpt lat="47.77877" lon="-3.5821">
        <ele>47</ele>
        <time>2018-07-14T11:42:49Z</time>
      </trkpt>
      <trkpt lat="47.77878" lon="-3.58202">
        <ele>46</ele>
        <time>2018-07-14T11:42:50Z</time>
      </trkpt>
      <trkpt lat="47.7788" lon="-3.58193">
        <ele>46</ele>
        <time>2018-07-14T11:42:51Z</time>
      </trkpt>
      <trkpt lat="47.77881" lon="-3.58184">
        <ele>46</ele>
        <time>2018-07-14T11:42:52Z</time>
      </trkpt>
      <trkpt lat="47.77882" lon="-3.58175">
        <ele>46</ele>
        <time>2018-07-14T11:42:53Z</time>
      </trkpt>
      <trkpt lat="47.77884" lon="-3.58166">
        <ele>45</ele>
        <time>2018-07-14T11:42:54Z</time>
      </trkpt>
      <trkpt lat="47.77885" lon="-3.58157">
        <ele>45</ele>
        <time>2018-07-14T11:42:55Z</time>
      </trkpt>
      <trkpt lat="47.77887" lon="-3.58148">
        <ele>45</ele>
        <time>2018-07-14T11:42:56Z</time>
      </trkpt>
      <trkpt lat="47.77888" lon="-3.5814">
        <ele>45</ele>
        <time>2018-07-14T11:42:57Z</time>
      </trkpt>
      <trkpt lat="47.7789" lon="-3.58132">
        <ele>45</ele>
        <time>2018-07-14T11:42:58Z</time>
      </trkpt>
      <trkpt lat="47.77891" lon="-3.58124">
        <ele>45</ele>
        <time>2018-07-14T11:42:59Z</time>
      </trkpt>
      <trkpt lat="47.77893" lon="-3.58117">
        <ele>45</ele>
        <time>2018-07-14T11:43:00Z</time>
      </trkpt>
      <trkpt lat="47.77895" lon="-3.58109">
        <ele>44</ele>
        <time>2018-07-14T11:43:01Z</time>
      </trkpt>
      <trkpt lat="47.77897" lon="-3.58102">
        <ele>44</ele>
        <time>2018-07-14T11:43:02Z</time>
      </trkpt>
      <trkpt lat="47.77898" lon="-3.58095">
        <ele>44</ele>
        <time>2018-07-14T11:43:03Z</time>
      </trkpt>
      <trkpt lat="47.779" lon="-3.58087">
        <ele>44</ele>
        <time>2018-07-14T11:43:04Z</time>
      </trkpt>
      <trkpt lat="47.77903" lon="-3.5808">
        <ele>44</ele>
        <time>2018-07-14T11:43:05Z</time>
      </trkpt>
      <trkpt lat="47.77905" lon="-3.58073">
        <ele>44</ele>
        <time>2018-07-14T11:43:06Z</time>
      </trkpt>
      <trkpt lat="47.77908" lon="-3.58067">
        <ele>44</ele>
        <time>2018-07-14T11:43:07Z</time>
      </trkpt>
      <trkpt lat="47.7791" lon="-3.58062">
        <ele>44</ele>
        <time>2018-07-14T11:43:08Z</time>
      </trkpt>
      <trkpt lat="47.77913" lon="-3.58057">
        <ele>44</ele>
        <time>2018-07-14T11:43:09Z</time>
      </trkpt>
      <trkpt lat="47.77915" lon="-3.58052">
        <ele>44</ele>
        <time>2018-07-14T11:43:10Z</time>
      </trkpt>
      <trkpt lat="47.77917" lon="-3.58048">
        <ele>44</ele>
        <time>2018-07-14T11:43:11Z</time>
      </trkpt>
      <trkpt lat="47.77918" lon="-3.58044">
        <ele>43</ele>
        <time>2018-07-14T11:43:12Z</time>
      </trkpt>
      <trkpt lat="47.7792" lon="-3.58041">
        <ele>43</ele>
        <time>2018-07-14T11:43:13Z</time>
      </trkpt>
      <trkpt lat="47.7792" lon="-3.58038">
        <ele>43</ele>
        <time>2018-07-14T11:43:14Z</time>
      </trkpt>
      <trkpt lat="47.77918" lon="-3.58034">
        <ele>43</ele>
        <time>2018-07-14T11:43:15Z</time>
      </trkpt>
      <trkpt lat="47.77916" lon="-3.5803">
        <ele>43</ele>
        <time>2018-07-14T11:43:16Z</time>
      </trkpt>
      <trkpt lat="47.77914" lon="-3.58026">
        <ele>44</ele>
        <time>2018-07-14T11:43:17Z</time>
      </trkpt>
      <trkpt lat="47.77911" lon="-3.58022">
        <ele>44</ele>
        <time>2018-07-14T11:43:18Z</time>
      </trkpt>
      <trkpt lat="47.77907" lon="-3.58019">
        <ele>44</ele>
        <time>2018-07-14T11:43:19Z</time>
      </trkpt>
      <trkpt lat="47.77903" lon="-3.58016">
        <ele>44</ele>
        <time>2018-07-14T11:43:20Z</time>
      </trkpt>
      <trkpt lat="47.77898" lon="-3.58012">
        <ele>44</ele>
        <time>2018-07-14T11:43:21Z</time>
      </trkpt>
      <trkpt lat="47.77893" lon="-3.5801">
        <ele>44</ele>
        <time>2018-07-14T11:43:22Z</time>
      </trkpt>
      <trkpt lat="47.77887" lon="-3.58009">
        <ele>44</ele>
        <time>2018-07-14T11:43:23Z</time>
      </trkpt>
      <trkpt lat="47.77881" lon="-3.58007">
        <ele>44</ele>
        <time>2018-07-14T11:43:24Z</time>
      </trkpt>
      <trkpt lat="47.77876" lon="-3.58006">
        <ele>44</ele>
        <time>2018-07-14T11:43:25Z</time>
      </trkpt>
      <trkpt lat="47.77871" lon="-3.58005">
        <ele>44</ele>
        <time>2018-07-14T11:43:26Z</time>
      </trkpt>
      <trkpt lat="47.77867" lon="-3.58003">
        <ele>44</ele>
        <time>2018-07-14T11:43:27Z</time>
      </trkpt>
      <trkpt lat="47.77862" lon="-3.58002">
        <ele>44</ele>
        <time>2018-07-14T11:43:28Z</time>
      </trkpt>
      <trkpt lat="47.77857" lon="-3.58">
        <ele>44</ele>
        <time>2018-07-14T11:43:29Z</time>
      </trkpt>
      <trkpt lat="47.77852" lon="-3.57997">
        <ele>44</ele>
        <time>2018-07-14T11:43:30Z</time>
      </trkpt>
      <trkpt lat="47.77848" lon="-3.57995">
        <ele>44</ele>
        <time>2018-07-14T11:43:31Z</time>
      </trkpt>
      <trkpt lat="47.77842" lon="-3.57992">
        <ele>44</ele>
        <time>2018-07-14T11:43:32Z</time>
      </trkpt>
      <trkpt lat="47.77838" lon="-3.57988">
        <ele>44</ele>
        <time>2018-07-14T11:43:33Z</time>
      </trkpt>
      <trkpt lat="47.77833" lon="-3.57985">
        <ele>43</ele>
        <time>2018-07-14T11:43:34Z</time>
      </trkpt>
      <trkpt lat="47.77829" lon="-3.57981">
        <ele>43</ele>
        <time>2018-07-14T11:43:35Z</time>
      </trkpt>
      <trkpt lat="47.77825" lon="-3.57977">
        <ele>43</ele>
        <time>2018-07-14T11:43:36Z</time>
      </trkpt>
      <trkpt lat="47.77821" lon="-3.57974">
        <ele>44</ele>
        <time>2018-07-14T11:43:37Z</time>
      </trkpt>
      <trkpt lat="47.77817" lon="-3.5797">
        <ele>44</ele>
        <time>2018-07-14T11:43:38Z</time>
      </trkpt>
      <trkpt lat="47.77813" lon="-3.57967">
        <ele>44</ele>
        <time>2018-07-14T11:43:39Z</time>
      </trkpt>
      <trkpt lat="47.7781" lon="-3.57963">
        <ele>44</ele>
        <time>2018-07-14T11:43:40Z</time>
      </trkpt>
      <trkpt lat="47.77806" lon="-3.57959">
        <ele>44</ele>
        <time>2018-07-14T11:43:41Z</time>
      </trkpt>
      <trkpt lat="47.77802" lon="-3.57954">
        <ele>44</ele>
        <time>2018-07-14T11:43:42Z</time>
      </trkpt>
      <trkpt lat="47.77798" lon="-3.5795">
        <ele>44</ele>
        <time>2018-07-14T11:43:43Z</time>
      </trkpt>
      <trkpt lat="47.77795" lon="-3.57944">
        <ele>44</ele>
        <time>2018-07-14T11:43:44Z</time>
      </trkpt>
      <trkpt lat="47.77792" lon="-3.5794">
        <ele>44</ele>
        <time>2018-07-14T11:43:45Z</time>
      </trkpt>
      <trkpt lat="47.77788" lon="-3.57936">
        <ele>44</ele>
        <time>2018-07-14T11:43:46Z</time>
      </trkpt>
      <trkpt lat="47.77783" lon="-3.57933">
        <ele>44</ele>
        <time>2018-07-14T11:43:47Z</time>
      </trkpt>
      <trkpt lat="47.77778" lon="-3.5793">
        <ele>44</ele>
        <time>2018-07-14T11:43:48Z</time>
      </trkpt>
      <trkpt lat="47.77773" lon="-3.57928">
        <ele>44</ele>
        <time>2018-07-14T11:43:49Z</time>
      </trkpt>
      <trkpt lat="47.77767" lon="-3.57928">
        <ele>44</ele>
        <time>2018-07-14T11:43:50Z</time>
      </trkpt>
      <trkpt lat="47.7776" lon="-3.57927">
        <ele>44</ele>
        <time>2018-07-14T11:43:51Z</time>
      </trkpt>
      <trkpt lat="47.77754" lon="-3.57927">
        <ele>44</ele>
        <time>2018-07-14T11:43:52Z</time>
      </trkpt>
      <trkpt lat="47.77747" lon="-3.57926">
        <ele>44</ele>
        <time>2018-07-14T11:43:53Z</time>
      </trkpt>
      <trkpt lat="47.77741" lon="-3.57924">
        <ele>44</ele>
        <time>2018-07-14T11:43:54Z</time>
      </trkpt>
      <trkpt lat="47.77734" lon="-3.57922">
        <ele>44</ele>
        <time>2018-07-14T11:43:55Z</time>
      </trkpt>
      <trkpt lat="47.77727" lon="-3.57918">
        <ele>44</ele>
        <time>2018-07-14T11:43:56Z</time>
      </trkpt>
      <trkpt lat="47.77721" lon="-3.57913">
        <ele>44</ele>
        <time>2018-07-14T11:43:57Z</time>
      </trkpt>
      <trkpt lat="47.77715" lon="-3.57908">
        <ele>44</ele>
        <time>2018-07-14T11:43:58Z</time>
      </trkpt>
      <trkpt lat="47.7771" lon="-3.57902">
        <ele>44</ele>
        <time>2018-07-14T11:43:59Z</time>
      </trkpt>
      <trkpt lat="47.77704" lon="-3.57898">
        <ele>44</ele>
        <time>2018-07-14T11:44:00Z</time>
      </trkpt>
      <trkpt lat="47.777" lon="-3.57894">
        <ele>44</ele>
        <time>2018-07-14T11:44:01Z</time>
      </trkpt>
      <trkpt lat="47.77696" lon="-3.57888">
        <ele>44</ele>
        <time>2018-07-14T11:44:02Z</time>
      </trkpt>
      <trkpt lat="47.77692" lon="-3.57882">
        <ele>44</ele>
        <time>2018-07-14T11:44:03Z</time>
      </trkpt>
      <trkpt lat="47.77688" lon="-3.57876">
        <ele>44</ele>
        <time>2018-07-14T11:44:04Z</time>
      </trkpt>
      <trkpt lat="47.77686" lon="-3.5787">
        <ele>44</ele>
        <time>2018-07-14T11:44:05Z</time>
      </trkpt>
      <trkpt lat="47.77685" lon="-3.57865">
        <ele>44</ele>
        <time>2018-07-14T11:44:06Z</time>
      </trkpt>
      <trkpt lat="47.77686" lon="-3.57861">
        <ele>44</ele>
        <time>2018-07-14T11:44:07Z</time>
      </trkpt>
      <trkpt lat="47.77688" lon="-3.57856">
        <ele>44</ele>
        <time>2018-07-14T11:44:08Z</time>
      </trkpt>
      <trkpt lat="47.77691" lon="-3.57853">
        <ele>43</ele>
        <time>2018-07-14T11:44:09Z</time>
      </trkpt>
      <trkpt lat="47.77695" lon="-3.57851">
        <ele>43</ele>
        <time>2018-07-14T11:44:10Z</time>
      </trkpt>
      <trkpt lat="47.77699" lon="-3.57849">
        <ele>43</ele>
        <time>2018-07-14T11:44:11Z</time>
      </trkpt>
      <trkpt lat="47.77703" lon="-3.57848">
        <ele>43</ele>
        <time>2018-07-14T11:44:12Z</time>
      </trkpt>
      <trkpt lat="47.77706" lon="-3.57847">
        <ele>43</ele>
        <time>2018-07-14T11:44:13Z</time>
      </trkpt>
      <trkpt lat="47.7771" lon="-3.57847">
        <ele>43</ele>
        <time>2018-07-14T11:44:14Z</time>
      </trkpt>
      <trkpt lat="47.77715" lon="-3.57848">
        <ele>42</ele>
        <time>2018-07-14T11:44:15Z</time>
      </trkpt>
      <trkpt lat="47.77719" lon="-3.57849">
        <ele>42</ele>
        <time>2018-07-14T11:44:16Z</time>
      </trkpt>
      <trkpt lat="47.77721" lon="-3.57849">
        <ele>42</ele>
        <time>2018-07-14T11:44:17Z</time>
      </trkpt>
      <trkpt lat="47.77724" lon="-3.57849">
        <ele>42</ele>
        <time>2018-07-14T11:44:18Z</time>
      </trkpt>
      <trkpt lat="47.77726" lon="-3.5785">
        <ele>41</ele>
        <time>2018-07-14T11:44:19Z</time>
      </trkpt>
      <trkpt lat="47.77727" lon="-3.57851">
        <ele>41</ele>
        <time>2018-07-14T11:44:20Z</time>
      </trkpt>
      <trkpt lat="47.77727" lon="-3.57851">
        <ele>41</ele>
        <time>2018-07-14T11:44:21Z</time>
      </trkpt>
      <trkpt lat="47.77726" lon="-3.57851">
        <ele>41</ele>
        <time>2018-07-14T11:44:22Z</time>
      </trkpt>
      <trkpt lat="47.77724" lon="-3.57851">
        <ele>41</ele>
        <time>2018-07-14T11:44:23Z</time>
      </trkpt>
      <trkpt lat="47.77722" lon="-3.57849">
        <ele>41</ele>
        <time>2018-07-14T11:44:24Z</time>
      </trkpt>
      <trkpt lat="47.77718" lon="-3.57848">
        <ele>41</ele>
        <time>2018-07-14T11:44:25Z</time>
      </trkpt>
      <trkpt lat="47.77715" lon="-3.57847">
        <ele>41</ele>
        <time>2018-07-14T11:44:26Z</time>
      </trkpt>
      <trkpt lat="47.77712" lon="-3.57846">
        <ele>40</ele>
        <time>2018-07-14T11:44:27Z</time>
      </trkpt>
      <trkpt lat="47.77709" lon="-3.57845">
        <ele>40</ele>
        <time>2018-07-14T11:44:28Z</time>
      </trkpt>
      <trkpt lat="47.77705" lon="-3.57845">
        <ele>40</ele>
        <time>2018-07-14T11:44:29Z</time>
      </trkpt>
      <trkpt lat="47.77701" lon="-3.57845">
        <ele>40</ele>
        <time>2018-07-14T11:44:30Z</time>
      </trkpt>
      <trkpt lat="47.77698" lon="-3.57845">
        <ele>40</ele>
        <time>2018-07-14T11:44:31Z</time>
      </trkpt>
      <trkpt lat="47.77694" lon="-3.57846">
        <ele>40</ele>
        <time>2018-07-14T11:44:32Z</time>
      </trkpt>
      <trkpt lat="47.7769" lon="-3.57847">
        <ele>40</ele>
        <time>2018-07-14T11:44:33Z</time>
      </trkpt>
      <trkpt lat="47.77687" lon="-3.57847">
        <ele>40</ele>
        <time>2018-07-14T11:44:34Z</time>
      </trkpt>
      <trkpt lat="47.77683" lon="-3.57848">
        <ele>40</ele>
        <time>2018-07-14T11:44:35Z</time>
      </trkpt>
      <trkpt lat="47.77679" lon="-3.57847">
        <ele>40</ele>
        <time>2018-07-14T11:44:36Z</time>
      </trkpt>
      <trkpt lat="47.77675" lon="-3.57845">
        <ele>40</ele>
        <time>2018-07-14T11:44:37Z</time>
      </trkpt>
      <trkpt lat="47.77671" lon="-3.57843">
        <ele>40</ele>
        <time>2018-07-14T11:44:38Z</time>
      </trkpt>
      <trkpt lat="47.77666" lon="-3.57839">
        <ele>39</ele>
        <time>2018-07-14T11:44:39Z</time>
      </trkpt>
      <trkpt lat="47.77662" lon="-3.57834">
        <ele>39</ele>
        <time>2018-07-14T11:44:40Z</time>
      </trkpt>
      <trkpt lat="47.77658" lon="-3.57829">
        <ele>39</ele>
        <time>2018-07-14T11:44:41Z</time>
      </trkpt>
      <trkpt lat="47.77654" lon="-3.57825">
        <ele>39</ele>
        <time>2018-07-14T11:44:42Z</time>
      </trkpt>
      <trkpt lat="47.7765" lon="-3.57821">
        <ele>39</ele>
        <time>2018-07-14T11:44:43Z</time>
      </trkpt>
      <trkpt lat="47.77647" lon="-3.57817">
        <ele>39</ele>
        <time>2018-07-14T11:44:44Z</time>
      </trkpt>
      <trkpt lat="47.77646" lon="-3.57812">
        <ele>39</ele>
        <time>2018-07-14T11:44:45Z</time>
      </trkpt>
      <trkpt lat="47.77644" lon="-3.57806">
        <ele>39</ele>
        <time>2018-07-14T11:44:46Z</time>
      </trkpt>
      <trkpt lat="47.77644" lon="-3.57799">
        <ele>39</ele>
        <time>2018-07-14T11:44:47Z</time>
      </trkpt>
      <trkpt lat="47.77643" lon="-3.57793">
        <ele>40</ele>
        <time>2018-07-14T11:44:48Z</time>
      </trkpt>
      <trkpt lat="47.77643" lon="-3.57786">
        <ele>40</ele>
        <time>2018-07-14T11:44:49Z</time>
      </trkpt>
      <trkpt lat="47.77642" lon="-3.5778">
        <ele>40</ele>
        <time>2018-07-14T11:44:50Z</time>
      </trkpt>
      <trkpt lat="47.77641" lon="-3.57773">
        <ele>40</ele>
        <time>2018-07-14T11:44:51Z</time>
      </trkpt>
      <trkpt lat="47.7764" lon="-3.57767">
        <ele>40</ele>
        <time>2018-07-14T11:44:52Z</time>
      </trkpt>
      <trkpt lat="47.77639" lon="-3.5776">
        <ele>40</ele>
        <time>2018-07-14T11:44:53Z</time>
      </trkpt>
      <trkpt lat="47.77638" lon="-3.57753">
        <ele>40</ele>
        <time>2018-07-14T11:44:54Z</time>
      </trkpt>
      <trkpt lat="47.77638" lon="-3.57747">
        <ele>40</ele>
        <time>2018-07-14T11:44:55Z</time>
      </trkpt>
      <trkpt lat="47.77637" lon="-3.5774">
        <ele>40</ele>
        <time>2018-07-14T11:44:56Z</time>
      </trkpt>
      <trkpt lat="47.77636" lon="-3.57733">
        <ele>40</ele>
        <time>2018-07-14T11:44:57Z</time>
      </trkpt>
      <trkpt lat="47.77635" lon="-3.57726">
        <ele>40</ele>
        <time>2018-07-14T11:44:58Z</time>
      </trkpt>
      <trkpt lat="47.77634" lon="-3.5772">
        <ele>41</ele>
        <time>2018-07-14T11:44:59Z</time>
      </trkpt>
      <trkpt lat="47.77633" lon="-3.57713">
        <ele>41</ele>
        <time>2018-07-14T11:45:00Z</time>
      </trkpt>
      <trkpt lat="47.77632" lon="-3.57706">
        <ele>41</ele>
        <time>2018-07-14T11:45:01Z</time>
      </trkpt>
      <trkpt lat="47.77631" lon="-3.57699">
        <ele>41</ele>
        <time>2018-07-14T11:45:02Z</time>
      </trkpt>
      <trkpt lat="47.7763" lon="-3.57693">
        <ele>41</ele>
        <time>2018-07-14T11:45:03Z</time>
      </trkpt>
      <trkpt lat="47.77629" lon="-3.57686">
        <ele>41</ele>
        <time>2018-07-14T11:45:04Z</time>
      </trkpt>
      <trkpt lat="47.77628" lon="-3.5768">
        <ele>41</ele>
        <time>2018-07-14T11:45:05Z</time>
      </trkpt>
      <trkpt lat="47.77627" lon="-3.57673">
        <ele>41</ele>
        <time>2018-07-14T11:45:06Z</time>
      </trkpt>
      <trkpt lat="47.77626" lon="-3.57667">
        <ele>41</ele>
        <time>2018-07-14T11:45:07Z</time>
      </trkpt>
      <trkpt lat="47.77624" lon="-3.57661">
        <ele>42</ele>
        <time>2018-07-14T11:45:08Z</time>
      </trkpt>
      <trkpt lat="47.77623" lon="-3.57655">
        <ele>42</ele>
        <time>2018-07-14T11:45:09Z</time>
      </trkpt>
      <trkpt lat="47.77622" lon="-3.57648">
        <ele>42</ele>
        <time>2018-07-14T11:45:10Z</time>
      </trkpt>
      <trkpt lat="47.7762" lon="-3.57642">
        <ele>42</ele>
        <time>2018-07-14T11:45:11Z</time>
      </trkpt>
      <trkpt lat="47.77619" lon="-3.57635">
        <ele>42</ele>
        <time>2018-07-14T11:45:12Z</time>
      </trkpt>
      <trkpt lat="47.77618" lon="-3.57629">
        <ele>42</ele>
        <time>2018-07-14T11:45:13Z</time>
      </trkpt>
      <trkpt lat="47.77618" lon="-3.57622">
        <ele>42</ele>
        <time>2018-07-14T11:45:14Z</time>
      </trkpt>
      <trkpt lat="47.77617" lon="-3.57615">
        <ele>42</ele>
        <time>2018-07-14T11:45:15Z</time>
      </trkpt>
      <trkpt lat="47.77617" lon="-3.57608">
        <ele>42</ele>
        <time>2018-07-14T11:45:16Z</time>
      </trkpt>
      <trkpt lat="47.77617" lon="-3.57601">
        <ele>42</ele>
        <time>2018-07-14T11:45:17Z</time>
      </trkpt>
      <trkpt lat="47.77617" lon="-3.57593">
        <ele>42</ele>
        <time>2018-07-14T11:45:18Z</time>
      </trkpt>
      <trkpt lat="47.77617" lon="-3.57586">
        <ele>42</ele>
        <time>2018-07-14T11:45:19Z</time>
      </trkpt>
      <trkpt lat="47.77618" lon="-3.57578">
        <ele>42</ele>
        <time>2018-07-14T11:45:20Z</time>
      </trkpt>
      <trkpt lat="47.77618" lon="-3.5757">
        <ele>42</ele>
        <time>2018-07-14T11:45:21Z</time>
      </trkpt>
      <trkpt lat="47.77619" lon="-3.57562">
        <ele>42</ele>
        <time>2018-07-14T11:45:22Z</time>
      </trkpt>
      <trkpt lat="47.77619" lon="-3.57554">
        <ele>42</ele>
        <time>2018-07-14T11:45:23Z</time>
      </trkpt>
      <trkpt lat="47.7762" lon="-3.57546">
        <ele>42</ele>
        <time>2018-07-14T11:45:24Z</time>
      </trkpt>
      <trkpt lat="47.77621" lon="-3.57538">
        <ele>42</ele>
        <time>2018-07-14T11:45:25Z</time>
      </trkpt>
      <trkpt lat="47.77621" lon="-3.5753">
        <ele>42</ele>
        <time>2018-07-14T11:45:26Z</time>
      </trkpt>
      <trkpt lat="47.77622" lon="-3.57522">
        <ele>42</ele>
        <time>2018-07-14T11:45:27Z</time>
      </trkpt>
      <trkpt lat="47.77622" lon="-3.57515">
        <ele>42</ele>
        <time>2018-07-14T11:45:28Z</time>
      </trkpt>
      <trkpt lat="47.77622" lon="-3.57508">
        <ele>42</ele>
        <time>2018-07-14T11:45:29Z</time>
      </trkpt>
      <trkpt lat="47.77623" lon="-3.57501">
        <ele>42</ele>
        <time>2018-07-14T11:45:30Z</time>
      </trkpt>
      <trkpt lat="47.77623" lon="-3.57494">
        <ele>42</ele>
        <time>2018-07-14T11:45:31Z</time>
      </trkpt>
      <trkpt lat="47.77624" lon="-3.57487">
        <ele>43</ele>
        <time>2018-07-14T11:45:32Z</time>
      </trkpt>
      <trkpt lat="47.77624" lon="-3.57481">
        <ele>43</ele>
        <time>2018-07-14T11:45:33Z</time>
      </trkpt>
      <trkpt lat="47.77625" lon="-3.57475">
        <ele>43</ele>
        <time>2018-07-14T11:45:34Z</time>
      </trkpt>
      <trkpt lat="47.77625" lon="-3.57471">
        <ele>43</ele>
        <time>2018-07-14T11:45:35Z</time>
      </trkpt>
      <trkpt lat="47.77624" lon="-3.57469">
        <ele>43</ele>
        <time>2018-07-14T11:45:36Z</time>
      </trkpt>
      <trkpt lat="47.77622" lon="-3.5747">
        <ele>43</ele>
        <time>2018-07-14T11:45:37Z</time>
      </trkpt>
      <trkpt lat="47.77618" lon="-3.57471">
        <ele>43</ele>
        <time>2018-07-14T11:45:38Z</time>
      </trkpt>
      <trkpt lat="47.77614" lon="-3.57474">
        <ele>43</ele>
        <time>2018-07-14T11:45:39Z</time>
      </trkpt>
      <trkpt lat="47.7761" lon="-3.57476">
        <ele>43</ele>
        <time>2018-07-14T11:45:40Z</time>
      </trkpt>
      <trkpt lat="47.77605" lon="-3.57478">
        <ele>43</ele>
        <time>2018-07-14T11:45:41Z</time>
      </trkpt>
      <trkpt lat="47.77601" lon="-3.57481">
        <ele>42</ele>
        <time>2018-07-14T11:45:42Z</time>
      </trkpt>
      <trkpt lat="47.77597" lon="-3.57485">
        <ele>42</ele>
        <time>2018-07-14T11:45:43Z</time>
      </trkpt>
      <trkpt lat="47.77592" lon="-3.57489">
        <ele>42</ele>
        <time>2018-07-14T11:45:44Z</time>
      </trkpt>
      <trkpt lat="47.77587" lon="-3.57493">
        <ele>42</ele>
        <time>2018-07-14T11:45:45Z</time>
      </trkpt>
      <trkpt lat="47.77582" lon="-3.57496">
        <ele>42</ele>
        <time>2018-07-14T11:45:46Z</time>
      </trkpt>
      <trkpt lat="47.77578" lon="-3.57501">
        <ele>42</ele>
        <time>2018-07-14T11:45:47Z</time>
      </trkpt>
      <trkpt lat="47.77573" lon="-3.57504">
        <ele>42</ele>
        <time>2018-07-14T11:45:48Z</time>
      </trkpt>
      <trkpt lat="47.77568" lon="-3.57507">
        <ele>42</ele>
        <time>2018-07-14T11:45:49Z</time>
      </trkpt>
      <trkpt lat="47.77563" lon="-3.57511">
        <ele>42</ele>
        <time>2018-07-14T11:45:50Z</time>
      </trkpt>
      <trkpt lat="47.77557" lon="-3.57514">
        <ele>42</ele>
        <time>2018-07-14T11:45:51Z</time>
      </trkpt>
      <trkpt lat="47.77552" lon="-3.57518">
        <ele>42</ele>
        <time>2018-07-14T11:45:52Z</time>
      </trkpt>
      <trkpt lat="47.77546" lon="-3.5752">
        <ele>42</ele>
        <time>2018-07-14T11:45:53Z</time>
      </trkpt>
      <trkpt lat="47.77541" lon="-3.57521">
        <ele>42</ele>
        <time>2018-07-14T11:45:54Z</time>
      </trkpt>
      <trkpt lat="47.77536" lon="-3.57522">
        <ele>42</ele>
        <time>2018-07-14T11:45:55Z</time>
      </trkpt>
      <trkpt lat="47.7753" lon="-3.57523">
        <ele>42</ele>
        <time>2018-07-14T11:45:56Z</time>
      </trkpt>
      <trkpt lat="47.77523" lon="-3.57524">
        <ele>42</ele>
        <time>2018-07-14T11:45:57Z</time>
      </trkpt>
      <trkpt lat="47.77517" lon="-3.57525">
        <ele>42</ele>
        <time>2018-07-14T11:45:58Z</time>
      </trkpt>
      <trkpt lat="47.7751" lon="-3.57525">
        <ele>42</ele>
        <time>2018-07-14T11:45:59Z</time>
      </trkpt>
      <trkpt lat="47.77503" lon="-3.57525">
        <ele>42</ele>
        <time>2018-07-14T11:46:00Z</time>
      </trkpt>
      <trkpt lat="47.77496" lon="-3.57524">
        <ele>42</ele>
        <time>2018-07-14T11:46:01Z</time>
      </trkpt>
      <trkpt lat="47.7749" lon="-3.57522">
        <ele>42</ele>
        <time>2018-07-14T11:46:02Z</time>
      </trkpt>
      <trkpt lat="47.77484" lon="-3.5752">
        <ele>42</ele>
        <time>2018-07-14T11:46:03Z</time>
      </trkpt>
      <trkpt lat="47.7748" lon="-3.57517">
        <ele>42</ele>
        <time>2018-07-14T11:46:04Z</time>
      </trkpt>
      <trkpt lat="47.77474" lon="-3.57514">
        <ele>42</ele>
        <time>2018-07-14T11:46:05Z</time>
      </trkpt>
      <trkpt lat="47.7747" lon="-3.57511">
        <ele>42</ele>
        <time>2018-07-14T11:46:06Z</time>
      </trkpt>
      <trkpt lat="47.77465" lon="-3.57508">
        <ele>42</ele>
        <time>2018-07-14T11:46:07Z</time>
      </trkpt>
      <trkpt lat="47.77459" lon="-3.57506">
        <ele>42</ele>
        <time>2018-07-14T11:46:08Z</time>
      </trkpt>
      <trkpt lat="47.77454" lon="-3.57504">
        <ele>42</ele>
        <time>2018-07-14T11:46:09Z</time>
      </trkpt>
      <trkpt lat="47.77449" lon="-3.57503">
        <ele>42</ele>
        <time>2018-07-14T11:46:10Z</time>
      </trkpt>
      <trkpt lat="47.77445" lon="-3.57503">
        <ele>42</ele>
        <time>2018-07-14T11:46:11Z</time>
      </trkpt>
      <trkpt lat="47.77441" lon="-3.57504">
        <ele>42</ele>
        <time>2018-07-14T11:46:12Z</time>
      </trkpt>
      <trkpt lat="47.77435" lon="-3.57504">
        <ele>42</ele>
        <time>2018-07-14T11:46:13Z</time>
      </trkpt>
      <trkpt lat="47.7743" lon="-3.57505">
        <ele>42</ele>
        <time>2018-07-14T11:46:14Z</time>
      </trkpt>
      <trkpt lat="47.77425" lon="-3.57505">
        <ele>42</ele>
        <time>2018-07-14T11:46:15Z</time>
      </trkpt>
      <trkpt lat="47.77419" lon="-3.57505">
        <ele>42</ele>
        <time>2018-07-14T11:46:16Z</time>
      </trkpt>
      <trkpt lat="47.77414" lon="-3.57504">
        <ele>41</ele>
        <time>2018-07-14T11:46:17Z</time>
      </trkpt>
      <trkpt lat="47.77409" lon="-3.57503">
        <ele>41</ele>
        <time>2018-07-14T11:46:18Z</time>
      </trkpt>
      <trkpt lat="47.77404" lon="-3.575">
        <ele>41</ele>
        <time>2018-07-14T11:46:19Z</time>
      </trkpt>
      <trkpt lat="47.77399" lon="-3.57497">
        <ele>41</ele>
        <time>2018-07-14T11:46:20Z</time>
      </trkpt>
      <trkpt lat="47.77395" lon="-3.57495">
        <ele>41</ele>
        <time>2018-07-14T11:46:21Z</time>
      </trkpt>
      <trkpt lat="47.7739" lon="-3.57493">
        <ele>41</ele>
        <time>2018-07-14T11:46:22Z</time>
      </trkpt>
      <trkpt lat="47.77385" lon="-3.57492">
        <ele>40</ele>
        <time>2018-07-14T11:46:23Z</time>
      </trkpt>
      <trkpt lat="47.77381" lon="-3.5749">
        <ele>40</ele>
        <time>2018-07-14T11:46:24Z</time>
      </trkpt>
      <trkpt lat="47.77376" lon="-3.57487">
        <ele>40</ele>
        <time>2018-07-14T11:46:25Z</time>
      </trkpt>
      <trkpt lat="47.77371" lon="-3.57484">
        <ele>40</ele>
        <time>2018-07-14T11:46:26Z</time>
      </trkpt>
      <trkpt lat="47.77367" lon="-3.57482">
        <ele>40</ele>
        <time>2018-07-14T11:46:27Z</time>
      </trkpt>
      <trkpt lat="47.77363" lon="-3.5748">
        <ele>40</ele>
        <time>2018-07-14T11:46:28Z</time>
      </trkpt>
      <trkpt lat="47.77358" lon="-3.57478">
        <ele>40</ele>
        <time>2018-07-14T11:46:29Z</time>
      </trkpt>
      <trkpt lat="47.77353" lon="-3.57477">
        <ele>40</ele>
        <time>2018-07-14T11:46:30Z</time>
      </trkpt>
      <trkpt lat="47.77348" lon="-3.57477">
        <ele>40</ele>
        <time>2018-07-14T11:46:31Z</time>
      </trkpt>
      <trkpt lat="47.77343" lon="-3.57475">
        <ele>40</ele>
        <time>2018-07-14T11:46:32Z</time>
      </trkpt>
      <trkpt lat="47.77339" lon="-3.57474">
        <ele>40</ele>
        <time>2018-07-14T11:46:33Z</time>
      </trkpt>
      <trkpt lat="47.77334" lon="-3.57472">
        <ele>40</ele>
        <time>2018-07-14T11:46:34Z</time>
      </trkpt>
      <trkpt lat="47.77329" lon="-3.57471">
        <ele>40</ele>
        <time>2018-07-14T11:46:35Z</time>
      </trkpt>
      <trkpt lat="47.77324" lon="-3.5747">
        <ele>40</ele>
        <time>2018-07-14T11:46:36Z</time>
      </trkpt>
      <trkpt lat="47.77319" lon="-3.57469">
        <ele>41</ele>
        <time>2018-07-14T11:46:37Z</time>
      </trkpt>
      <trkpt lat="47.77314" lon="-3.57468">
        <ele>41</ele>
        <time>2018-07-14T11:46:38Z</time>
      </trkpt>
      <trkpt lat="47.77309" lon="-3.57468">
        <ele>41</ele>
        <time>2018-07-14T11:46:39Z</time>
      </trkpt>
      <trkpt lat="47.77304" lon="-3.57469">
        <ele>41</ele>
        <time>2018-07-14T11:46:40Z</time>
      </trkpt>
      <trkpt lat="47.77299" lon="-3.5747">
        <ele>41</ele>
        <time>2018-07-14T11:46:41Z</time>
      </trkpt>
      <trkpt lat="47.77294" lon="-3.57471">
        <ele>42</ele>
        <time>2018-07-14T11:46:42Z</time>
      </trkpt>
      <trkpt lat="47.7729" lon="-3.57473">
        <ele>42</ele>
        <time>2018-07-14T11:46:43Z</time>
      </trkpt>
      <trkpt lat="47.77286" lon="-3.57475">
        <ele>42</ele>
        <time>2018-07-14T11:46:44Z</time>
      </trkpt>
      <trkpt lat="47.77283" lon="-3.57477">
        <ele>42</ele>
        <time>2018-07-14T11:46:45Z</time>
      </trkpt>
      <trkpt lat="47.7728" lon="-3.57478">
        <ele>42</ele>
        <time>2018-07-14T11:46:46Z</time>
      </trkpt>
      <trkpt lat="47.77279" lon="-3.57478">
        <ele>42</ele>
        <time>2018-07-14T11:46:47Z</time>
      </trkpt>
      <trkpt lat="47.77279" lon="-3.57478">
        <ele>43</ele>
        <time>2018-07-14T11:46:48Z</time>
      </trkpt>
      <trkpt lat="47.77279" lon="-3.57479">
        <ele>43</ele>
        <time>2018-07-14T11:46:49Z</time>
      </trkpt>
      <trkpt lat="47.77278" lon="-3.57479">
        <ele>43</ele>
        <time>2018-07-14T11:46:50Z</time>
      </trkpt>
      <trkpt lat="47.77277" lon="-3.5748">
        <ele>42</ele>
        <time>2018-07-14T11:46:51Z</time>
      </trkpt>
      <trkpt lat="47.77276" lon="-3.57481">
        <ele>42</ele>
        <time>2018-07-14T11:46:52Z</time>
      </trkpt>
      <trkpt lat="47.77274" lon="-3.57482">
        <ele>42</ele>
        <time>2018-07-14T11:46:53Z</time>
      </trkpt>
      <trkpt lat="47.77271" lon="-3.57484">
        <ele>42</ele>
        <time>2018-07-14T11:46:54Z</time>
      </trkpt>
      <trkpt lat="47.77268" lon="-3.57486">
        <ele>41</ele>
        <time>2018-07-14T11:46:55Z</time>
      </trkpt>
      <trkpt lat="47.77264" lon="-3.57488">
        <ele>41</ele>
        <time>2018-07-14T11:46:56Z</time>
      </trkpt>
      <trkpt lat="47.7726" lon="-3.57489">
        <ele>41</ele>
        <time>2018-07-14T11:46:57Z</time>
      </trkpt>
      <trkpt lat="47.77257" lon="-3.5749">
        <ele>41</ele>
        <time>2018-07-14T11:46:58Z</time>
      </trkpt>
      <trkpt lat="47.77254" lon="-3.57491">
        <ele>41</ele>
        <time>2018-07-14T11:46:59Z</time>
      </trkpt>
      <trkpt lat="47.7725" lon="-3.57493">
        <ele>40</ele>
        <time>2018-07-14T11:47:00Z</time>
      </trkpt>
      <trkpt lat="47.77246" lon="-3.57494">
        <ele>40</ele>
        <time>2018-07-14T11:47:01Z</time>
      </trkpt>
      <trkpt lat="47.77242" lon="-3.57494">
        <ele>40</ele>
        <time>2018-07-14T11:47:02Z</time>
      </trkpt>
      <trkpt lat="47.77239" lon="-3.57492">
        <ele>40</ele>
        <time>2018-07-14T11:47:03Z</time>
      </trkpt>
      <trkpt lat="47.77237" lon="-3.57487">
        <ele>40</ele>
        <time>2018-07-14T11:47:04Z</time>
      </trkpt>
      <trkpt lat="47.77237" lon="-3.57483">
        <ele>39</ele>
        <time>2018-07-14T11:47:05Z</time>
      </trkpt>
      <trkpt lat="47.77238" lon="-3.57479">
        <ele>39</ele>
        <time>2018-07-14T11:47:06Z</time>
      </trkpt>
      <trkpt lat="47.7724" lon="-3.57474">
        <ele>39</ele>
        <time>2018-07-14T11:47:07Z</time>
      </trkpt>
      <trkpt lat="47.77241" lon="-3.5747">
        <ele>39</ele>
        <time>2018-07-14T11:47:08Z</time>
      </trkpt>
      <trkpt lat="47.77244" lon="-3.57465">
        <ele>39</ele>
        <time>2018-07-14T11:47:09Z</time>
      </trkpt>
      <trkpt lat="47.77246" lon="-3.57459">
        <ele>38</ele>
        <time>2018-07-14T11:47:10Z</time>
      </trkpt>
      <trkpt lat="47.77248" lon="-3.57455">
        <ele>38</ele>
        <time>2018-07-14T11:47:11Z</time>
      </trkpt>
      <trkpt lat="47.77252" lon="-3.57449">
        <ele>38</ele>
        <time>2018-07-14T11:47:12Z</time>
      </trkpt>
      <trkpt lat="47.77254" lon="-3.57445">
        <ele>38</ele>
        <time>2018-07-14T11:47:13Z</time>
      </trkpt>
      <trkpt lat="47.77257" lon="-3.5744">
        <ele>38</ele>
        <time>2018-07-14T11:47:14Z</time>
      </trkpt>
      <trkpt lat="47.7726" lon="-3.57436">
        <ele>38</ele>
        <time>2018-07-14T11:47:15Z</time>
      </trkpt>
      <trkpt lat="47.77262" lon="-3.57432">
        <ele>38</ele>
        <time>2018-07-14T11:47:16Z</time>
      </trkpt>
      <trkpt lat="47.77263" lon="-3.57428">
        <ele>38</ele>
        <time>2018-07-14T11:47:17Z</time>
      </trkpt>
      <trkpt lat="47.77265" lon="-3.57421">
        <ele>37</ele>
        <time>2018-07-14T11:47:18Z</time>
      </trkpt>
      <trkpt lat="47.77266" lon="-3.57415">
        <ele>37</ele>
        <time>2018-07-14T11:47:19Z</time>
      </trkpt>
      <trkpt lat="47.77267" lon="-3.57407">
        <ele>37</ele>
        <time>2018-07-14T11:47:20Z</time>
      </trkpt>
      <trkpt lat="47.77266" lon="-3.57401">
        <ele>37</ele>
        <time>2018-07-14T11:47:21Z</time>
      </trkpt>
      <trkpt lat="47.77267" lon="-3.57395">
        <ele>37</ele>
        <time>2018-07-14T11:47:22Z</time>
      </trkpt>
      <trkpt lat="47.77268" lon="-3.57389">
        <ele>37</ele>
        <time>2018-07-14T11:47:23Z</time>
      </trkpt>
      <trkpt lat="47.7727" lon="-3.57382">
        <ele>37</ele>
        <time>2018-07-14T11:47:24Z</time>
      </trkpt>
      <trkpt lat="47.77272" lon="-3.57376">
        <ele>37</ele>
        <time>2018-07-14T11:47:25Z</time>
      </trkpt>
      <trkpt lat="47.77274" lon="-3.57372">
        <ele>36</ele>
        <time>2018-07-14T11:47:26Z</time>
      </trkpt>
      <trkpt lat="47.77276" lon="-3.57369">
        <ele>36</ele>
        <time>2018-07-14T11:47:27Z</time>
      </trkpt>
      <trkpt lat="47.77278" lon="-3.57366">
        <ele>36</ele>
        <time>2018-07-14T11:47:28Z</time>
      </trkpt>
      <trkpt lat="47.7728" lon="-3.57364">
        <ele>36</ele>
        <time>2018-07-14T11:47:29Z</time>
      </trkpt>
      <trkpt lat="47.77282" lon="-3.57363">
        <ele>36</ele>
        <time>2018-07-14T11:47:30Z</time>
      </trkpt>
      <trkpt lat="47.77283" lon="-3.57361">
        <ele>36</ele>
        <time>2018-07-14T11:47:31Z</time>
      </trkpt>
      <trkpt lat="47.77285" lon="-3.57359">
        <ele>36</ele>
        <time>2018-07-14T11:47:32Z</time>
      </trkpt>
      <trkpt lat="47.77287" lon="-3.57358">
        <ele>36</ele>
        <time>2018-07-14T11:47:33Z</time>
      </trkpt>
      <trkpt lat="47.77288" lon="-3.57356">
        <ele>35</ele>
        <time>2018-07-14T11:47:34Z</time>
      </trkpt>
      <trkpt lat="47.77289" lon="-3.57354">
        <ele>35</ele>
        <time>2018-07-14T11:47:35Z</time>
      </trkpt>
      <trkpt lat="47.77291" lon="-3.57352">
        <ele>35</ele>
        <time>2018-07-14T11:47:36Z</time>
      </trkpt>
      <trkpt lat="47.77292" lon="-3.5735">
        <ele>35</ele>
        <time>2018-07-14T11:47:37Z</time>
      </trkpt>
      <trkpt lat="47.77293" lon="-3.57349">
        <ele>35</ele>
        <time>2018-07-14T11:47:38Z</time>
      </trkpt>
      <trkpt lat="47.77293" lon="-3.57347">
        <ele>35</ele>
        <time>2018-07-14T11:47:39Z</time>
      </trkpt>
      <trkpt lat="47.77293" lon="-3.57347">
        <ele>35</ele>
        <time>2018-07-14T11:47:40Z</time>
      </trkpt>
      <trkpt lat="47.77293" lon="-3.57346">
        <ele>35</ele>
        <time>2018-07-14T11:47:41Z</time>
      </trkpt>
      <trkpt lat="47.77293" lon="-3.57344">
        <ele>34</ele>
        <time>2018-07-14T11:47:42Z</time>
      </trkpt>
      <trkpt lat="47.77294" lon="-3.57343">
        <ele>34</ele>
        <time>2018-07-14T11:47:43Z</time>
      </trkpt>
      <trkpt lat="47.77293" lon="-3.57342">
        <ele>34</ele>
        <time>2018-07-14T11:47:44Z</time>
      </trkpt>
      <trkpt lat="47.77293" lon="-3.5734">
        <ele>34</ele>
        <time>2018-07-14T11:47:45Z</time>
      </trkpt>
      <trkpt lat="47.77292" lon="-3.57339">
        <ele>34</ele>
        <time>2018-07-14T11:47:46Z</time>
      </trkpt>
      <trkpt lat="47.77292" lon="-3.57336">
        <ele>34</ele>
        <time>2018-07-14T11:47:47Z</time>
      </trkpt>
      <trkpt lat="47.77291" lon="-3.57334">
        <ele>34</ele>
        <time>2018-07-14T11:47:48Z</time>
      </trkpt>
      <trkpt lat="47.7729" lon="-3.57331">
        <ele>34</ele>
        <time>2018-07-14T11:47:49Z</time>
      </trkpt>
      <trkpt lat="47.77289" lon="-3.57329">
        <ele>34</ele>
        <time>2018-07-14T11:47:50Z</time>
      </trkpt>
      <trkpt lat="47.77289" lon="-3.57326">
        <ele>34</ele>
        <time>2018-07-14T11:47:51Z</time>
      </trkpt>
      <trkpt lat="47.77289" lon="-3.57324">
        <ele>34</ele>
        <time>2018-07-14T11:47:52Z</time>
      </trkpt>
      <trkpt lat="47.7729" lon="-3.57323">
        <ele>34</ele>
        <time>2018-07-14T11:47:53Z</time>
      </trkpt>
      <trkpt lat="47.77292" lon="-3.57324">
        <ele>34</ele>
        <time>2018-07-14T11:47:54Z</time>
      </trkpt>
      <trkpt lat="47.77294" lon="-3.57324">
        <ele>34</ele>
        <time>2018-07-14T11:47:55Z</time>
      </trkpt>
      <trkpt lat="47.77295" lon="-3.57325">
        <ele>34</ele>
        <time>2018-07-14T11:47:56Z</time>
      </trkpt>
      <trkpt lat="47.77296" lon="-3.57324">
        <ele>34</ele>
        <time>2018-07-14T11:47:57Z</time>
      </trkpt>
      <trkpt lat="47.77297" lon="-3.57324">
        <ele>34</ele>
        <time>2018-07-14T11:47:58Z</time>
      </trkpt>
      <trkpt lat="47.77298" lon="-3.57325">
        <ele>34</ele>
        <time>2018-07-14T11:47:59Z</time>
      </trkpt>
      <trkpt lat="47.77298" lon="-3.57325">
        <ele>34</ele>
        <time>2018-07-14T11:48:00Z</time>
      </trkpt>
      <trkpt lat="47.77299" lon="-3.57326">
        <ele>34</ele>
        <time>2018-07-14T11:48:01Z</time>
      </trkpt>
      <trkpt lat="47.77299" lon="-3.57325">
        <ele>34</ele>
        <time>2018-07-14T11:48:02Z</time>
      </trkpt>
      <trkpt lat="47.773" lon="-3.57324">
        <ele>34</ele>
        <time>2018-07-14T11:48:03Z</time>
      </trkpt>
      <trkpt lat="47.77303" lon="-3.57324">
        <ele>34</ele>
        <time>2018-07-14T11:48:04Z</time>
      </trkpt>
      <trkpt lat="47.77305" lon="-3.57324">
        <ele>34</ele>
        <time>2018-07-14T11:48:05Z</time>
      </trkpt>
      <trkpt lat="47.77307" lon="-3.57324">
        <ele>34</ele>
        <time>2018-07-14T11:48:06Z</time>
      </trkpt>
      <trkpt lat="47.7731" lon="-3.57324">
        <ele>34</ele>
        <time>2018-07-14T11:48:07Z</time>
      </trkpt>
      <trkpt lat="47.77313" lon="-3.57324">
        <ele>33</ele>
        <time>2018-07-14T11:48:08Z</time>
      </trkpt>
      <trkpt lat="47.77315" lon="-3.57324">
        <ele>33</ele>
        <time>2018-07-14T11:48:09Z</time>
      </trkpt>
      <trkpt lat="47.77318" lon="-3.57324">
        <ele>33</ele>
        <time>2018-07-14T11:48:10Z</time>
      </trkpt>
      <trkpt lat="47.77321" lon="-3.57323">
        <ele>33</ele>
        <time>2018-07-14T11:48:11Z</time>
      </trkpt>
      <trkpt lat="47.77324" lon="-3.57324">
        <ele>33</ele>
        <time>2018-07-14T11:48:12Z</time>
      </trkpt>
      <trkpt lat="47.77326" lon="-3.57324">
        <ele>33</ele>
        <time>2018-07-14T11:48:13Z</time>
      </trkpt>
      <trkpt lat="47.77329" lon="-3.57323">
        <ele>33</ele>
        <time>2018-07-14T11:48:14Z</time>
      </trkpt>
      <trkpt lat="47.77332" lon="-3.57323">
        <ele>33</ele>
        <time>2018-07-14T11:48:15Z</time>
      </trkpt>
      <trkpt lat="47.77336" lon="-3.57322">
        <ele>33</ele>
        <time>2018-07-14T11:48:16Z</time>
      </trkpt>
      <trkpt lat="47.77339" lon="-3.57322">
        <ele>33</ele>
        <time>2018-07-14T11:48:17Z</time>
      </trkpt>
      <trkpt lat="47.77342" lon="-3.57322">
        <ele>33</ele>
        <time>2018-07-14T11:48:18Z</time>
      </trkpt>
      <trkpt lat="47.77344" lon="-3.57322">
        <ele>33</ele>
        <time>2018-07-14T11:48:19Z</time>
      </trkpt>
      <trkpt lat="47.77347" lon="-3.57321">
        <ele>33</ele>
        <time>2018-07-14T11:48:20Z</time>
      </trkpt>
      <trkpt lat="47.7735" lon="-3.5732">
        <ele>33</ele>
        <time>2018-07-14T11:48:21Z</time>
      </trkpt>
      <trkpt lat="47.77353" lon="-3.57319">
        <ele>33</ele>
        <time>2018-07-14T11:48:22Z</time>
      </trkpt>
      <trkpt lat="47.77356" lon="-3.57319">
        <ele>33</ele>
        <time>2018-07-14T11:48:23Z</time>
      </trkpt>
      <trkpt lat="47.77359" lon="-3.57318">
        <ele>33</ele>
        <time>2018-07-14T11:48:24Z</time>
      </trkpt>
      <trkpt lat="47.77363" lon="-3.57317">
        <ele>33</ele>
        <time>2018-07-14T11:48:25Z</time>
      </trkpt>
      <trkpt lat="47.77366" lon="-3.57316">
        <ele>33</ele>
        <time>2018-07-14T11:48:26Z</time>
      </trkpt>
      <trkpt lat="47.7737" lon="-3.57315">
        <ele>33</ele>
        <time>2018-07-14T11:48:27Z</time>
      </trkpt>
      <trkpt lat="47.77373" lon="-3.57313">
        <ele>34</ele>
        <time>2018-07-14T11:48:28Z</time>
      </trkpt>
      <trkpt lat="47.77376" lon="-3.57312">
        <ele>34</ele>
        <time>2018-07-14T11:48:29Z</time>
      </trkpt>
      <trkpt lat="47.77379" lon="-3.5731">
        <ele>34</ele>
        <time>2018-07-14T11:48:30Z</time>
      </trkpt>
      <trkpt lat="47.77383" lon="-3.57309">
        <ele>34</ele>
        <time>2018-07-14T11:48:31Z</time>
      </trkpt>
      <trkpt lat="47.77386" lon="-3.57308">
        <ele>34</ele>
        <time>2018-07-14T11:48:32Z</time>
      </trkpt>
      <trkpt lat="47.7739" lon="-3.57306">
        <ele>34</ele>
        <time>2018-07-14T11:48:33Z</time>
      </trkpt>
      <trkpt lat="47.77393" lon="-3.57304">
        <ele>34</ele>
        <time>2018-07-14T11:48:34Z</time>
      </trkpt>
      <trkpt lat="47.77396" lon="-3.57302">
        <ele>35</ele>
        <time>2018-07-14T11:48:35Z</time>
      </trkpt>
      <trkpt lat="47.77399" lon="-3.573">
        <ele>35</ele>
        <time>2018-07-14T11:48:36Z</time>
      </trkpt>
      <trkpt lat="47.77402" lon="-3.573">
        <ele>35</ele>
        <time>2018-07-14T11:48:37Z</time>
      </trkpt>
      <trkpt lat="47.77407" lon="-3.57299">
        <ele>35</ele>
        <time>2018-07-14T11:48:38Z</time>
      </trkpt>
      <trkpt lat="47.77411" lon="-3.57298">
        <ele>35</ele>
        <time>2018-07-14T11:48:39Z</time>
      </trkpt>
      <trkpt lat="47.77415" lon="-3.57297">
        <ele>35</ele>
        <time>2018-07-14T11:48:40Z</time>
      </trkpt>
      <trkpt lat="47.7742" lon="-3.57297">
        <ele>36</ele>
        <time>2018-07-14T11:48:41Z</time>
      </trkpt>
      <trkpt lat="47.77424" lon="-3.57296">
        <ele>36</ele>
        <time>2018-07-14T11:48:42Z</time>
      </trkpt>
      <trkpt lat="47.77429" lon="-3.57294">
        <ele>36</ele>
        <time>2018-07-14T11:48:43Z</time>
      </trkpt>
      <trkpt lat="47.77432" lon="-3.57293">
        <ele>36</ele>
        <time>2018-07-14T11:48:44Z</time>
      </trkpt>
      <trkpt lat="47.77436" lon="-3.57293">
        <ele>36</ele>
        <time>2018-07-14T11:48:45Z</time>
      </trkpt>
      <trkpt lat="47.7744" lon="-3.57292">
        <ele>37</ele>
        <time>2018-07-14T11:48:46Z</time>
      </trkpt>
      <trkpt lat="47.77443" lon="-3.57291">
        <ele>37</ele>
        <time>2018-07-14T11:48:47Z</time>
      </trkpt>
      <trkpt lat="47.77447" lon="-3.57289">
        <ele>37</ele>
        <time>2018-07-14T11:48:48Z</time>
      </trkpt>
      <trkpt lat="47.77452" lon="-3.57287">
        <ele>37</ele>
        <time>2018-07-14T11:48:49Z</time>
      </trkpt>
      <trkpt lat="47.77457" lon="-3.57286">
        <ele>37</ele>
        <time>2018-07-14T11:48:50Z</time>
      </trkpt>
      <trkpt lat="47.77461" lon="-3.57284">
        <ele>37</ele>
        <time>2018-07-14T11:48:51Z</time>
      </trkpt>
      <trkpt lat="47.77467" lon="-3.57283">
        <ele>38</ele>
        <time>2018-07-14T11:48:52Z</time>
      </trkpt>
      <trkpt lat="47.77472" lon="-3.57282">
        <ele>38</ele>
        <time>2018-07-14T11:48:53Z</time>
      </trkpt>
      <trkpt lat="47.77476" lon="-3.5728">
        <ele>38</ele>
        <time>2018-07-14T11:48:54Z</time>
      </trkpt>
      <trkpt lat="47.7748" lon="-3.57278">
        <ele>38</ele>
        <time>2018-07-14T11:48:55Z</time>
      </trkpt>
      <trkpt lat="47.77484" lon="-3.57275">
        <ele>39</ele>
        <time>2018-07-14T11:48:56Z</time>
      </trkpt>
      <trkpt lat="47.77488" lon="-3.57273">
        <ele>39</ele>
        <time>2018-07-14T11:48:57Z</time>
      </trkpt>
      <trkpt lat="47.77492" lon="-3.57271">
        <ele>39</ele>
        <time>2018-07-14T11:48:58Z</time>
      </trkpt>
      <trkpt lat="47.77497" lon="-3.5727">
        <ele>39</ele>
        <time>2018-07-14T11:48:59Z</time>
      </trkpt>
      <trkpt lat="47.77501" lon="-3.57268">
        <ele>39</ele>
        <time>2018-07-14T11:49:00Z</time>
      </trkpt>
      <trkpt lat="47.77506" lon="-3.57266">
        <ele>40</ele>
        <time>2018-07-14T11:49:01Z</time>
      </trkpt>
      <trkpt lat="47.7751" lon="-3.57266">
        <ele>40</ele>
        <time>2018-07-14T11:49:02Z</time>
      </trkpt>
      <trkpt lat="47.77513" lon="-3.57266">
        <ele>40</ele>
        <time>2018-07-14T11:49:03Z</time>
      </trkpt>
      <trkpt lat="47.77516" lon="-3.57265">
        <ele>40</ele>
        <time>2018-07-14T11:49:04Z</time>
      </trkpt>
      <trkpt lat="47.77519" lon="-3.57265">
        <ele>40</ele>
        <time>2018-07-14T11:49:05Z</time>
      </trkpt>
      <trkpt lat="47.77522" lon="-3.57265">
        <ele>41</ele>
        <time>2018-07-14T11:49:06Z</time>
      </trkpt>
      <trkpt lat="47.77525" lon="-3.57265">
        <ele>41</ele>
        <time>2018-07-14T11:49:07Z</time>
      </trkpt>
      <trkpt lat="47.77528" lon="-3.57265">
        <ele>41</ele>
        <time>2018-07-14T11:49:08Z</time>
      </trkpt>
      <trkpt lat="47.7753" lon="-3.57266">
        <ele>41</ele>
        <time>2018-07-14T11:49:09Z</time>
      </trkpt>
      <trkpt lat="47.77532" lon="-3.57267">
        <ele>42</ele>
        <time>2018-07-14T11:49:10Z</time>
      </trkpt>
      <trkpt lat="47.77535" lon="-3.57268">
        <ele>42</ele>
        <time>2018-07-14T11:49:11Z</time>
      </trkpt>
      <trkpt lat="47.77539" lon="-3.57268">
        <ele>42</ele>
        <time>2018-07-14T11:49:12Z</time>
      </trkpt>
      <trkpt lat="47.77543" lon="-3.57268">
        <ele>42</ele>
        <time>2018-07-14T11:49:13Z</time>
      </trkpt>
      <trkpt lat="47.77547" lon="-3.57268">
        <ele>43</ele>
        <time>2018-07-14T11:49:14Z</time>
      </trkpt>
      <trkpt lat="47.77551" lon="-3.57269">
        <ele>43</ele>
        <time>2018-07-14T11:49:15Z</time>
      </trkpt>
      <trkpt lat="47.77555" lon="-3.57269">
        <ele>43</ele>
        <time>2018-07-14T11:49:16Z</time>
      </trkpt>
      <trkpt lat="47.77559" lon="-3.57269">
        <ele>43</ele>
        <time>2018-07-14T11:49:17Z</time>
      </trkpt>
      <trkpt lat="47.77563" lon="-3.5727">
        <ele>43</ele>
        <time>2018-07-14T11:49:18Z</time>
      </trkpt>
      <trkpt lat="47.77567" lon="-3.57271">
        <ele>44</ele>
        <time>2018-07-14T11:49:19Z</time>
      </trkpt>
      <trkpt lat="47.77571" lon="-3.57271">
        <ele>44</ele>
        <time>2018-07-14T11:49:20Z</time>
      </trkpt>
      <trkpt lat="47.77576" lon="-3.57272">
        <ele>44</ele>
        <time>2018-07-14T11:49:21Z</time>
      </trkpt>
      <trkpt lat="47.7758" lon="-3.57272">
        <ele>44</ele>
        <time>2018-07-14T11:49:22Z</time>
      </trkpt>
      <trkpt lat="47.77584" lon="-3.57271">
        <ele>44</ele>
        <time>2018-07-14T11:49:23Z</time>
      </trkpt>
      <trkpt lat="47.77587" lon="-3.57271">
        <ele>44</ele>
        <time>2018-07-14T11:49:24Z</time>
      </trkpt>
      <trkpt lat="47.77591" lon="-3.57271">
        <ele>44</ele>
        <time>2018-07-14T11:49:25Z</time>
      </trkpt>
      <trkpt lat="47.77594" lon="-3.57272">
        <ele>45</ele>
        <time>2018-07-14T11:49:26Z</time>
      </trkpt>
      <trkpt lat="47.77598" lon="-3.57273">
        <ele>45</ele>
        <time>2018-07-14T11:49:27Z</time>
      </trkpt>
      <trkpt lat="47.77601" lon="-3.57273">
        <ele>45</ele>
        <time>2018-07-14T11:49:28Z</time>
      </trkpt>
      <trkpt lat="47.77605" lon="-3.57274">
        <ele>45</ele>
        <time>2018-07-14T11:49:29Z</time>
      </trkpt>
      <trkpt lat="47.77609" lon="-3.57274">
        <ele>45</ele>
        <time>2018-07-14T11:49:30Z</time>
      </trkpt>
      <trkpt lat="47.77614" lon="-3.57274">
        <ele>45</ele>
        <time>2018-07-14T11:49:31Z</time>
      </trkpt>
      <trkpt lat="47.77618" lon="-3.57274">
        <ele>45</ele>
        <time>2018-07-14T11:49:32Z</time>
      </trkpt>
      <trkpt lat="47.77622" lon="-3.57274">
        <ele>45</ele>
        <time>2018-07-14T11:49:33Z</time>
      </trkpt>
      <trkpt lat="47.77626" lon="-3.57273">
        <ele>45</ele>
        <time>2018-07-14T11:49:34Z</time>
      </trkpt>
      <trkpt lat="47.7763" lon="-3.57272">
        <ele>45</ele>
        <time>2018-07-14T11:49:35Z</time>
      </trkpt>
      <trkpt lat="47.77634" lon="-3.5727">
        <ele>45</ele>
        <time>2018-07-14T11:49:36Z</time>
      </trkpt>
      <trkpt lat="47.77637" lon="-3.57267">
        <ele>45</ele>
        <time>2018-07-14T11:49:37Z</time>
      </trkpt>
      <trkpt lat="47.7764" lon="-3.57263">
        <ele>45</ele>
        <time>2018-07-14T11:49:38Z</time>
      </trkpt>
      <trkpt lat="47.77642" lon="-3.57258">
        <ele>45</ele>
        <time>2018-07-14T11:49:39Z</time>
      </trkpt>
      <trkpt lat="47.77645" lon="-3.57252">
        <ele>45</ele>
        <time>2018-07-14T11:49:40Z</time>
      </trkpt>
      <trkpt lat="47.77647" lon="-3.57247">
        <ele>45</ele>
        <time>2018-07-14T11:49:41Z</time>
      </trkpt>
      <trkpt lat="47.77649" lon="-3.57241">
        <ele>45</ele>
        <time>2018-07-14T11:49:42Z</time>
      </trkpt>
      <trkpt lat="47.7765" lon="-3.57235">
        <ele>45</ele>
        <time>2018-07-14T11:49:43Z</time>
      </trkpt>
      <trkpt lat="47.77652" lon="-3.57229">
        <ele>45</ele>
        <time>2018-07-14T11:49:44Z</time>
      </trkpt>
      <trkpt lat="47.77653" lon="-3.57223">
        <ele>45</ele>
        <time>2018-07-14T11:49:45Z</time>
      </trkpt>
      <trkpt lat="47.77653" lon="-3.57216">
        <ele>45</ele>
        <time>2018-07-14T11:49:46Z</time>
      </trkpt>
      <trkpt lat="47.77654" lon="-3.57208">
        <ele>45</ele>
        <time>2018-07-14T11:49:47Z</time>
      </trkpt>
      <trkpt lat="47.77654" lon="-3.57201">
        <ele>45</ele>
        <time>2018-07-14T11:49:48Z</time>
      </trkpt>
      <trkpt lat="47.77654" lon="-3.57193">
        <ele>45</ele>
        <time>2018-07-14T11:49:49Z</time>
      </trkpt>
      <trkpt lat="47.77655" lon="-3.57185">
        <ele>45</ele>
        <time>2018-07-14T11:49:50Z</time>
      </trkpt>
      <trkpt lat="47.77654" lon="-3.57178">
        <ele>45</ele>
        <time>2018-07-14T11:49:51Z</time>
      </trkpt>
      <trkpt lat="47.77654" lon="-3.5717">
        <ele>45</ele>
        <time>2018-07-14T11:49:52Z</time>
      </trkpt>
      <trkpt lat="47.77653" lon="-3.57162">
        <ele>45</ele>
        <time>2018-07-14T11:49:53Z</time>
      </trkpt>
      <trkpt lat="47.77652" lon="-3.57153">
        <ele>44</ele>
        <time>2018-07-14T11:49:54Z</time>
      </trkpt>
      <trkpt lat="47.77652" lon="-3.57145">
        <ele>44</ele>
        <time>2018-07-14T11:49:55Z</time>
      </trkpt>
      <trkpt lat="47.77653" lon="-3.57139">
        <ele>44</ele>
        <time>2018-07-14T11:49:56Z</time>
      </trkpt>
      <trkpt lat="47.77653" lon="-3.57136">
        <ele>44</ele>
        <time>2018-07-14T11:49:57Z</time>
      </trkpt>
      <trkpt lat="47.77654" lon="-3.57135">
        <ele>44</ele>
        <time>2018-07-14T11:49:58Z</time>
      </trkpt>
      <trkpt lat="47.77654" lon="-3.57135">
        <ele>44</ele>
        <time>2018-07-14T11:49:59Z</time>
      </trkpt>
      <trkpt lat="47.77654" lon="-3.57135">
        <ele>44</ele>
        <time>2018-07-14T11:50:00Z</time>
      </trkpt>
      <trkpt lat="47.77654" lon="-3.57136">
        <ele>44</ele>
        <time>2018-07-14T11:50:01Z</time>
      </trkpt>
      <trkpt lat="47.77655" lon="-3.57137">
        <ele>44</ele>
        <time>2018-07-14T11:50:02Z</time>
      </trkpt>
      <trkpt lat="47.77655" lon="-3.57138">
        <ele>44</ele>
        <time>2018-07-14T11:50:03Z</time>
      </trkpt>
      <trkpt lat="47.77656" lon="-3.5714">
        <ele>44</ele>
        <time>2018-07-14T11:50:04Z</time>
      </trkpt>
      <trkpt lat="47.77658" lon="-3.57142">
        <ele>44</ele>
        <time>2018-07-14T11:50:05Z</time>
      </trkpt>
      <trkpt lat="47.7766" lon="-3.57143">
        <ele>44</ele>
        <time>2018-07-14T11:50:06Z</time>
      </trkpt>
      <trkpt lat="47.77663" lon="-3.57144">
        <ele>44</ele>
        <time>2018-07-14T11:50:07Z</time>
      </trkpt>
      <trkpt lat="47.77665" lon="-3.57145">
        <ele>44</ele>
        <time>2018-07-14T11:50:08Z</time>
      </trkpt>
      <trkpt lat="47.77668" lon="-3.57146">
        <ele>44</ele>
        <time>2018-07-14T11:50:09Z</time>
      </trkpt>
      <trkpt lat="47.77671" lon="-3.57147">
        <ele>44</ele>
        <time>2018-07-14T11:50:10Z</time>
      </trkpt>
      <trkpt lat="47.77675" lon="-3.57148">
        <ele>44</ele>
        <time>2018-07-14T11:50:11Z</time>
      </trkpt>
      <trkpt lat="47.77679" lon="-3.5715">
        <ele>44</ele>
        <time>2018-07-14T11:50:12Z</time>
      </trkpt>
      <trkpt lat="47.77683" lon="-3.57151">
        <ele>44</ele>
        <time>2018-07-14T11:50:13Z</time>
      </trkpt>
      <trkpt lat="47.77686" lon="-3.57153">
        <ele>44</ele>
        <time>2018-07-14T11:50:14Z</time>
      </trkpt>
      <trkpt lat="47.7769" lon="-3.57154">
        <ele>44</ele>
        <time>2018-07-14T11:50:15Z</time>
      </trkpt>
      <trkpt lat="47.77694" lon="-3.57154">
        <ele>44</ele>
        <time>2018-07-14T11:50:16Z</time>
      </trkpt>
      <trkpt lat="47.77698" lon="-3.57153">
        <ele>44</ele>
        <time>2018-07-14T11:50:17Z</time>
      </trkpt>
      <trkpt lat="47.77701" lon="-3.57152">
        <ele>44</ele>
        <time>2018-07-14T11:50:18Z</time>
      </trkpt>
      <trkpt lat="47.77704" lon="-3.57152">
        <ele>44</ele>
        <time>2018-07-14T11:50:19Z</time>
      </trkpt>
      <trkpt lat="47.77706" lon="-3.57152">
        <ele>44</ele>
        <time>2018-07-14T11:50:20Z</time>
      </trkpt>
      <trkpt lat="47.77709" lon="-3.57151">
        <ele>44</ele>
        <time>2018-07-14T11:50:21Z</time>
      </trkpt>
      <trkpt lat="47.77712" lon="-3.5715">
        <ele>44</ele>
        <time>2018-07-14T11:50:22Z</time>
      </trkpt>
      <trkpt lat="47.77715" lon="-3.5715">
        <ele>44</ele>
        <time>2018-07-14T11:50:23Z</time>
      </trkpt>
      <trkpt lat="47.77719" lon="-3.57149">
        <ele>44</ele>
        <time>2018-07-14T11:50:24Z</time>
      </trkpt>
      <trkpt lat="47.77722" lon="-3.57148">
        <ele>44</ele>
        <time>2018-07-14T11:50:25Z</time>
      </trkpt>
      <trkpt lat="47.77725" lon="-3.57147">
        <ele>44</ele>
        <time>2018-07-14T11:50:26Z</time>
      </trkpt>
      <trkpt lat="47.77729" lon="-3.57147">
        <ele>44</ele>
        <time>2018-07-14T11:50:27Z</time>
      </trkpt>
      <trkpt lat="47.77732" lon="-3.57147">
        <ele>44</ele>
        <time>2018-07-14T11:50:28Z</time>
      </trkpt>
      <trkpt lat="47.77736" lon="-3.57147">
        <ele>44</ele>
        <time>2018-07-14T11:50:29Z</time>
      </trkpt>
      <trkpt lat="47.77741" lon="-3.57147">
        <ele>44</ele>
        <time>2018-07-14T11:50:30Z</time>
      </trkpt>
      <trkpt lat="47.77745" lon="-3.57146">
        <ele>44</ele>
        <time>2018-07-14T11:50:31Z</time>
      </trkpt>
      <trkpt lat="47.77749" lon="-3.57146">
        <ele>44</ele>
        <time>2018-07-14T11:50:32Z</time>
      </trkpt>
      <trkpt lat="47.77753" lon="-3.57145">
        <ele>44</ele>
        <time>2018-07-14T11:50:33Z</time>
      </trkpt>
      <trkpt lat="47.77757" lon="-3.57143">
        <ele>45</ele>
        <time>2018-07-14T11:50:34Z</time>
      </trkpt>
      <trkpt lat="47.77761" lon="-3.57142">
        <ele>45</ele>
        <time>2018-07-14T11:50:35Z</time>
      </trkpt>
      <trkpt lat="47.77764" lon="-3.5714">
        <ele>45</ele>
        <time>2018-07-14T11:50:36Z</time>
      </trkpt>
      <trkpt lat="47.77768" lon="-3.57138">
        <ele>45</ele>
        <time>2018-07-14T11:50:37Z</time>
      </trkpt>
      <trkpt lat="47.77771" lon="-3.57137">
        <ele>45</ele>
        <time>2018-07-14T11:50:38Z</time>
      </trkpt>
      <trkpt lat="47.77773" lon="-3.57137">
        <ele>45</ele>
        <time>2018-07-14T11:50:39Z</time>
      </trkpt>
      <trkpt lat="47.77775" lon="-3.57136">
        <ele>45</ele>
        <time>2018-07-14T11:50:40Z</time>
      </trkpt>
      <trkpt lat="47.77777" lon="-3.57136">
        <ele>45</ele>
        <time>2018-07-14T11:50:41Z</time>
      </trkpt>
      <trkpt lat="47.77779" lon="-3.57135">
        <ele>45</ele>
        <time>2018-07-14T11:50:42Z</time>
      </trkpt>
      <trkpt lat="47.77781" lon="-3.57133">
        <ele>45</ele>
        <time>2018-07-14T11:50:43Z</time>
      </trkpt>
      <trkpt lat="47.77784" lon="-3.57132">
        <ele>45</ele>
        <time>2018-07-14T11:50:44Z</time>
      </trkpt>
      <trkpt lat="47.77787" lon="-3.5713">
        <ele>45</ele>
        <time>2018-07-14T11:50:45Z</time>
      </trkpt>
      <trkpt lat="47.77789" lon="-3.57129">
        <ele>45</ele>
        <time>2018-07-14T11:50:46Z</time>
      </trkpt>
      <trkpt lat="47.77792" lon="-3.57127">
        <ele>45</ele>
        <time>2018-07-14T11:50:47Z</time>
      </trkpt>
      <trkpt lat="47.77794" lon="-3.57126">
        <ele>45</ele>
        <time>2018-07-14T11:50:48Z</time>
      </trkpt>
      <trkpt lat="47.77797" lon="-3.57124">
        <ele>45</ele>
        <time>2018-07-14T11:50:49Z</time>
      </trkpt>
      <trkpt lat="47.77799" lon="-3.57123">
        <ele>45</ele>
        <time>2018-07-14T11:50:50Z</time>
      </trkpt>
      <trkpt lat="47.77802" lon="-3.57121">
        <ele>45</ele>
        <time>2018-07-14T11:50:51Z</time>
      </trkpt>
      <trkpt lat="47.77805" lon="-3.57119">
        <ele>45</ele>
        <time>2018-07-14T11:50:52Z</time>
      </trkpt>
      <trkpt lat="47.77807" lon="-3.57117">
        <ele>46</ele>
        <time>2018-07-14T11:50:53Z</time>
      </trkpt>
      <trkpt lat="47.7781" lon="-3.57114">
        <ele>46</ele>
        <time>2018-07-14T11:50:54Z</time>
      </trkpt>
      <trkpt lat="47.77813" lon="-3.57112">
        <ele>46</ele>
        <time>2018-07-14T11:50:55Z</time>
      </trkpt>
      <trkpt lat="47.77815" lon="-3.57111">
        <ele>46</ele>
        <time>2018-07-14T11:50:56Z</time>
      </trkpt>
      <trkpt lat="47.77818" lon="-3.5711">
        <ele>46</ele>
        <time>2018-07-14T11:50:57Z</time>
      </trkpt>
      <trkpt lat="47.77821" lon="-3.57109">
        <ele>46</ele>
        <time>2018-07-14T11:50:58Z</time>
      </trkpt>
      <trkpt lat="47.77825" lon="-3.57107">
        <ele>46</ele>
        <time>2018-07-14T11:50:59Z</time>
      </trkpt>
      <trkpt lat="47.77828" lon="-3.57105">
        <ele>46</ele>
        <time>2018-07-14T11:51:00Z</time>
      </trkpt>
      <trkpt lat="47.77831" lon="-3.57103">
        <ele>47</ele>
        <time>2018-07-14T11:51:01Z</time>
      </trkpt>
      <trkpt lat="47.77834" lon="-3.57101">
        <ele>47</ele>
        <time>2018-07-14T11:51:02Z</time>
      </trkpt>
      <trkpt lat="47.77835" lon="-3.57098">
        <ele>47</ele>
        <time>2018-07-14T11:51:03Z</time>
      </trkpt>
      <trkpt lat="47.77838" lon="-3.57096">
        <ele>47</ele>
        <time>2018-07-14T11:51:04Z</time>
      </trkpt>
      <trkpt lat="47.77841" lon="-3.57094">
        <ele>48</ele>
        <time>2018-07-14T11:51:05Z</time>
      </trkpt>
      <trkpt lat="47.77844" lon="-3.57091">
        <ele>48</ele>
        <time>2018-07-14T11:51:06Z</time>
      </trkpt>
      <trkpt lat="47.77848" lon="-3.57088">
        <ele>48</ele>
        <time>2018-07-14T11:51:07Z</time>
      </trkpt>
      <trkpt lat="47.77851" lon="-3.57086">
        <ele>49</ele>
        <time>2018-07-14T11:51:08Z</time>
      </trkpt>
      <trkpt lat="47.77854" lon="-3.57084">
        <ele>49</ele>
        <time>2018-07-14T11:51:09Z</time>
      </trkpt>
      <trkpt lat="47.77858" lon="-3.57082">
        <ele>49</ele>
        <time>2018-07-14T11:51:10Z</time>
      </trkpt>
      <trkpt lat="47.77861" lon="-3.57081">
        <ele>49</ele>
        <time>2018-07-14T11:51:11Z</time>
      </trkpt>
      <trkpt lat="47.77865" lon="-3.57079">
        <ele>49</ele>
        <time>2018-07-14T11:51:12Z</time>
      </trkpt>
      <trkpt lat="47.77868" lon="-3.57077">
        <ele>49</ele>
        <time>2018-07-14T11:51:13Z</time>
      </trkpt>
      <trkpt lat="47.77871" lon="-3.57075">
        <ele>50</ele>
        <time>2018-07-14T11:51:14Z</time>
      </trkpt>
      <trkpt lat="47.77875" lon="-3.57073">
        <ele>50</ele>
        <time>2018-07-14T11:51:15Z</time>
      </trkpt>
      <trkpt lat="47.7788" lon="-3.57072">
        <ele>50</ele>
        <time>2018-07-14T11:51:16Z</time>
      </trkpt>
      <trkpt lat="47.77883" lon="-3.57071">
        <ele>50</ele>
        <time>2018-07-14T11:51:17Z</time>
      </trkpt>
      <trkpt lat="47.77887" lon="-3.5707">
        <ele>50</ele>
        <time>2018-07-14T11:51:18Z</time>
      </trkpt>
      <trkpt lat="47.77891" lon="-3.5707">
        <ele>50</ele>
        <time>2018-07-14T11:51:19Z</time>
      </trkpt>
      <trkpt lat="47.77895" lon="-3.5707">
        <ele>50</ele>
        <time>2018-07-14T11:51:20Z</time>
      </trkpt>
      <trkpt lat="47.77899" lon="-3.57069">
        <ele>50</ele>
        <time>2018-07-14T11:51:21Z</time>
      </trkpt>
      <trkpt lat="47.77904" lon="-3.57068">
        <ele>50</ele>
        <time>2018-07-14T11:51:22Z</time>
      </trkpt>
      <trkpt lat="47.77909" lon="-3.57067">
        <ele>50</ele>
        <time>2018-07-14T11:51:23Z</time>
      </trkpt>
      <trkpt lat="47.77913" lon="-3.57066">
        <ele>50</ele>
        <time>2018-07-14T11:51:24Z</time>
      </trkpt>
      <trkpt lat="47.77917" lon="-3.57065">
        <ele>50</ele>
        <time>2018-07-14T11:51:25Z</time>
      </trkpt>
      <trkpt lat="47.77922" lon="-3.57064">
        <ele>50</ele>
        <time>2018-07-14T11:51:26Z</time>
      </trkpt>
      <trkpt lat="47.77926" lon="-3.57063">
        <ele>50</ele>
        <time>2018-07-14T11:51:27Z</time>
      </trkpt>
      <trkpt lat="47.77931" lon="-3.57062">
        <ele>50</ele>
        <time>2018-07-14T11:51:28Z</time>
      </trkpt>
      <trkpt lat="47.77936" lon="-3.57061">
        <ele>50</ele>
        <time>2018-07-14T11:51:29Z</time>
      </trkpt>
      <trkpt lat="47.77941" lon="-3.57061">
        <ele>50</ele>
        <time>2018-07-14T11:51:30Z</time>
      </trkpt>
      <trkpt lat="47.77946" lon="-3.57061">
        <ele>51</ele>
        <time>2018-07-14T11:51:31Z</time>
      </trkpt>
      <trkpt lat="47.7795" lon="-3.57062">
        <ele>51</ele>
        <time>2018-07-14T11:51:32Z</time>
      </trkpt>
      <trkpt lat="47.77956" lon="-3.57063">
        <ele>51</ele>
        <time>2018-07-14T11:51:33Z</time>
      </trkpt>
      <trkpt lat="47.7796" lon="-3.57063">
        <ele>51</ele>
        <time>2018-07-14T11:51:34Z</time>
      </trkpt>
      <trkpt lat="47.77965" lon="-3.57064">
        <ele>51</ele>
        <time>2018-07-14T11:51:35Z</time>
      </trkpt>
      <trkpt lat="47.7797" lon="-3.57066">
        <ele>52</ele>
        <time>2018-07-14T11:51:36Z</time>
      </trkpt>
      <trkpt lat="47.77975" lon="-3.57067">
        <ele>52</ele>
        <time>2018-07-14T11:51:37Z</time>
      </trkpt>
      <trkpt lat="47.77979" lon="-3.57069">
        <ele>52</ele>
        <time>2018-07-14T11:51:38Z</time>
      </trkpt>
      <trkpt lat="47.77984" lon="-3.57071">
        <ele>52</ele>
        <time>2018-07-14T11:51:39Z</time>
      </trkpt>
      <trkpt lat="47.77988" lon="-3.57073">
        <ele>52</ele>
        <time>2018-07-14T11:51:40Z</time>
      </trkpt>
      <trkpt lat="47.77993" lon="-3.57076">
        <ele>52</ele>
        <time>2018-07-14T11:51:41Z</time>
      </trkpt>
      <trkpt lat="47.77997" lon="-3.57078">
        <ele>52</ele>
        <time>2018-07-14T11:51:42Z</time>
      </trkpt>
      <trkpt lat="47.78001" lon="-3.57081">
        <ele>53</ele>
        <time>2018-07-14T11:51:43Z</time>
      </trkpt>
      <trkpt lat="47.78006" lon="-3.57084">
        <ele>53</ele>
        <time>2018-07-14T11:51:44Z</time>
      </trkpt>
      <trkpt lat="47.7801" lon="-3.57087">
        <ele>53</ele>
        <time>2018-07-14T11:51:45Z</time>
      </trkpt>
      <trkpt lat="47.78014" lon="-3.5709">
        <ele>53</ele>
        <time>2018-07-14T11:51:46Z</time>
      </trkpt>
      <trkpt lat="47.78018" lon="-3.57093">
        <ele>53</ele>
        <time>2018-07-14T11:51:47Z</time>
      </trkpt>
      <trkpt lat="47.78022" lon="-3.57096">
        <ele>53</ele>
        <time>2018-07-14T11:51:48Z</time>
      </trkpt>
      <trkpt lat="47.78027" lon="-3.57099">
        <ele>53</ele>
        <time>2018-07-14T11:51:49Z</time>
      </trkpt>
      <trkpt lat="47.78031" lon="-3.57101">
        <ele>52</ele>
        <time>2018-07-14T11:51:50Z</time>
      </trkpt>
      <trkpt lat="47.78036" lon="-3.57103">
        <ele>52</ele>
        <time>2018-07-14T11:51:51Z</time>
      </trkpt>
      <trkpt lat="47.7804" lon="-3.57105">
        <ele>52</ele>
        <time>2018-07-14T11:51:52Z</time>
      </trkpt>
      <trkpt lat="47.78045" lon="-3.57107">
        <ele>52</ele>
        <time>2018-07-14T11:51:53Z</time>
      </trkpt>
      <trkpt lat="47.78049" lon="-3.57109">
        <ele>52</ele>
        <time>2018-07-14T11:51:54Z</time>
      </trkpt>
      <trkpt lat="47.78053" lon="-3.57111">
        <ele>52</ele>
        <time>2018-07-14T11:51:55Z</time>
      </trkpt>
      <trkpt lat="47.78056" lon="-3.57113">
        <ele>52</ele>
        <time>2018-07-14T11:51:56Z</time>
      </trkpt>
      <trkpt lat="47.7806" lon="-3.57115">
        <ele>52</ele>
        <time>2018-07-14T11:51:57Z</time>
      </trkpt>
      <trkpt lat="47.78062" lon="-3.57118">
        <ele>52</ele>
        <time>2018-07-14T11:51:58Z</time>
      </trkpt>
      <trkpt lat="47.78066" lon="-3.5712">
        <ele>52</ele>
        <time>2018-07-14T11:51:59Z</time>
      </trkpt>
      <trkpt lat="47.7807" lon="-3.57122">
        <ele>52</ele>
        <time>2018-07-14T11:52:00Z</time>
      </trkpt>
      <trkpt lat="47.78074" lon="-3.57124">
        <ele>52</ele>
        <time>2018-07-14T11:52:01Z</time>
      </trkpt>
      <trkpt lat="47.78077" lon="-3.57127">
        <ele>52</ele>
        <time>2018-07-14T11:52:02Z</time>
      </trkpt>
      <trkpt lat="47.78081" lon="-3.5713">
        <ele>52</ele>
        <time>2018-07-14T11:52:03Z</time>
      </trkpt>
      <trkpt lat="47.78085" lon="-3.57133">
        <ele>52</ele>
        <time>2018-07-14T11:52:04Z</time>
      </trkpt>
      <trkpt lat="47.78089" lon="-3.57136">
        <ele>52</ele>
        <time>2018-07-14T11:52:05Z</time>
      </trkpt>
      <trkpt lat="47.78093" lon="-3.57139">
        <ele>52</ele>
        <time>2018-07-14T11:52:06Z</time>
      </trkpt>
      <trkpt lat="47.78096" lon="-3.57142">
        <ele>52</ele>
        <time>2018-07-14T11:52:07Z</time>
      </trkpt>
      <trkpt lat="47.78099" lon="-3.57145">
        <ele>52</ele>
        <time>2018-07-14T11:52:08Z</time>
      </trkpt>
      <trkpt lat="47.78102" lon="-3.57148">
        <ele>52</ele>
        <time>2018-07-14T11:52:09Z</time>
      </trkpt>
      <trkpt lat="47.78104" lon="-3.57151">
        <ele>52</ele>
        <time>2018-07-14T11:52:10Z</time>
      </trkpt>
      <trkpt lat="47.78107" lon="-3.57153">
        <ele>52</ele>
        <time>2018-07-14T11:52:11Z</time>
      </trkpt>
      <trkpt lat="47.7811" lon="-3.57154">
        <ele>52</ele>
        <time>2018-07-14T11:52:12Z</time>
      </trkpt>
      <trkpt lat="47.78113" lon="-3.57153">
        <ele>52</ele>
        <time>2018-07-14T11:52:13Z</time>
      </trkpt>
      <trkpt lat="47.78115" lon="-3.57149">
        <ele>52</ele>
        <time>2018-07-14T11:52:14Z</time>
      </trkpt>
      <trkpt lat="47.78117" lon="-3.57145">
        <ele>52</ele>
        <time>2018-07-14T11:52:15Z</time>
      </trkpt>
      <trkpt lat="47.78119" lon="-3.5714">
        <ele>52</ele>
        <time>2018-07-14T11:52:16Z</time>
      </trkpt>
      <trkpt lat="47.78121" lon="-3.57135">
        <ele>52</ele>
        <time>2018-07-14T11:52:17Z</time>
      </trkpt>
      <trkpt lat="47.78124" lon="-3.5713">
        <ele>52</ele>
        <time>2018-07-14T11:52:18Z</time>
      </trkpt>
      <trkpt lat="47.78127" lon="-3.57125">
        <ele>52</ele>
        <time>2018-07-14T11:52:19Z</time>
      </trkpt>
      <trkpt lat="47.78129" lon="-3.5712">
        <ele>52</ele>
        <time>2018-07-14T11:52:20Z</time>
      </trkpt>
      <trkpt lat="47.78132" lon="-3.57115">
        <ele>53</ele>
        <time>2018-07-14T11:52:21Z</time>
      </trkpt>
      <trkpt lat="47.78135" lon="-3.5711">
        <ele>53</ele>
        <time>2018-07-14T11:52:22Z</time>
      </trkpt>
      <trkpt lat="47.78138" lon="-3.57104">
        <ele>53</ele>
        <time>2018-07-14T11:52:23Z</time>
      </trkpt>
      <trkpt lat="47.78141" lon="-3.57099">
        <ele>53</ele>
        <time>2018-07-14T11:52:24Z</time>
      </trkpt>
      <trkpt lat="47.78143" lon="-3.57093">
        <ele>53</ele>
        <time>2018-07-14T11:52:25Z</time>
      </trkpt>
      <trkpt lat="47.78146" lon="-3.57088">
        <ele>53</ele>
        <time>2018-07-14T11:52:26Z</time>
      </trkpt>
      <trkpt lat="47.78149" lon="-3.57083">
        <ele>53</ele>
        <time>2018-07-14T11:52:27Z</time>
      </trkpt>
      <trkpt lat="47.78152" lon="-3.57077">
        <ele>53</ele>
        <time>2018-07-14T11:52:28Z</time>
      </trkpt>
      <trkpt lat="47.78155" lon="-3.57072">
        <ele>53</ele>
        <time>2018-07-14T11:52:29Z</time>
      </trkpt>
      <trkpt lat="47.78158" lon="-3.57067">
        <ele>54</ele>
        <time>2018-07-14T11:52:30Z</time>
      </trkpt>
      <trkpt lat="47.78161" lon="-3.57061">
        <ele>54</ele>
        <time>2018-07-14T11:52:31Z</time>
      </trkpt>
      <trkpt lat="47.78164" lon="-3.57055">
        <ele>54</ele>
        <time>2018-07-14T11:52:32Z</time>
      </trkpt>
      <trkpt lat="47.78167" lon="-3.5705">
        <ele>54</ele>
        <time>2018-07-14T11:52:33Z</time>
      </trkpt>
      <trkpt lat="47.7817" lon="-3.57045">
        <ele>54</ele>
        <time>2018-07-14T11:52:34Z</time>
      </trkpt>
      <trkpt lat="47.78172" lon="-3.57041">
        <ele>54</ele>
        <time>2018-07-14T11:52:35Z</time>
      </trkpt>
      <trkpt lat="47.78175" lon="-3.57036">
        <ele>54</ele>
        <time>2018-07-14T11:52:36Z</time>
      </trkpt>
      <trkpt lat="47.78176" lon="-3.57031">
        <ele>54</ele>
        <time>2018-07-14T11:52:37Z</time>
      </trkpt>
      <trkpt lat="47.78176" lon="-3.57027">
        <ele>54</ele>
        <time>2018-07-14T11:52:38Z</time>
      </trkpt>
      <trkpt lat="47.78174" lon="-3.57023">
        <ele>55</ele>
        <time>2018-07-14T11:52:39Z</time>
      </trkpt>
      <trkpt lat="47.78171" lon="-3.5702">
        <ele>55</ele>
        <time>2018-07-14T11:52:40Z</time>
      </trkpt>
      <trkpt lat="47.78167" lon="-3.57016">
        <ele>55</ele>
        <time>2018-07-14T11:52:41Z</time>
      </trkpt>
      <trkpt lat="47.78163" lon="-3.57013">
        <ele>55</ele>
        <time>2018-07-14T11:52:42Z</time>
      </trkpt>
      <trkpt lat="47.78159" lon="-3.5701">
        <ele>55</ele>
        <time>2018-07-14T11:52:43Z</time>
      </trkpt>
      <trkpt lat="47.78155" lon="-3.57006">
        <ele>55</ele>
        <time>2018-07-14T11:52:44Z</time>
      </trkpt>
      <trkpt lat="47.7815" lon="-3.57003">
        <ele>55</ele>
        <time>2018-07-14T11:52:45Z</time>
      </trkpt>
      <trkpt lat="47.78146" lon="-3.56999">
        <ele>55</ele>
        <time>2018-07-14T11:52:46Z</time>
      </trkpt>
      <trkpt lat="47.78141" lon="-3.56995">
        <ele>55</ele>
        <time>2018-07-14T11:52:47Z</time>
      </trkpt>
      <trkpt lat="47.78136" lon="-3.56992">
        <ele>55</ele>
        <time>2018-07-14T11:52:48Z</time>
      </trkpt>
      <trkpt lat="47.78131" lon="-3.56988">
        <ele>55</ele>
        <time>2018-07-14T11:52:49Z</time>
      </trkpt>
      <trkpt lat="47.78126" lon="-3.56984">
        <ele>55</ele>
        <time>2018-07-14T11:52:50Z</time>
      </trkpt>
      <trkpt lat="47.78121" lon="-3.5698">
        <ele>55</ele>
        <time>2018-07-14T11:52:51Z</time>
      </trkpt>
      <trkpt lat="47.78115" lon="-3.56976">
        <ele>55</ele>
        <time>2018-07-14T11:52:52Z</time>
      </trkpt>
      <trkpt lat="47.7811" lon="-3.56972">
        <ele>55</ele>
        <time>2018-07-14T11:52:53Z</time>
      </trkpt>
      <trkpt lat="47.78105" lon="-3.56969">
        <ele>55</ele>
        <time>2018-07-14T11:52:54Z</time>
      </trkpt>
      <trkpt lat="47.781" lon="-3.56965">
        <ele>55</ele>
        <time>2018-07-14T11:52:55Z</time>
      </trkpt>
      <trkpt lat="47.78095" lon="-3.56961">
        <ele>55</ele>
        <time>2018-07-14T11:52:56Z</time>
      </trkpt>
      <trkpt lat="47.78089" lon="-3.56957">
        <ele>55</ele>
        <time>2018-07-14T11:52:57Z</time>
      </trkpt>
      <trkpt lat="47.78084" lon="-3.56953">
        <ele>55</ele>
        <time>2018-07-14T11:52:58Z</time>
      </trkpt>
      <trkpt lat="47.78079" lon="-3.56949">
        <ele>55</ele>
        <time>2018-07-14T11:52:59Z</time>
      </trkpt>
      <trkpt lat="47.78073" lon="-3.56945">
        <ele>55</ele>
        <time>2018-07-14T11:53:00Z</time>
      </trkpt>
      <trkpt lat="47.78068" lon="-3.56941">
        <ele>55</ele>
        <time>2018-07-14T11:53:01Z</time>
      </trkpt>
      <trkpt lat="47.78062" lon="-3.56937">
        <ele>55</ele>
        <time>2018-07-14T11:53:02Z</time>
      </trkpt>
      <trkpt lat="47.78056" lon="-3.56933">
        <ele>55</ele>
        <time>2018-07-14T11:53:03Z</time>
      </trkpt>
      <trkpt lat="47.78051" lon="-3.56929">
        <ele>55</ele>
        <time>2018-07-14T11:53:04Z</time>
      </trkpt>
      <trkpt lat="47.78045" lon="-3.56925">
        <ele>55</ele>
        <time>2018-07-14T11:53:05Z</time>
      </trkpt>
      <trkpt lat="47.78039" lon="-3.5692">
        <ele>55</ele>
        <time>2018-07-14T11:53:06Z</time>
      </trkpt>
      <trkpt lat="47.78034" lon="-3.56916">
        <ele>55</ele>
        <time>2018-07-14T11:53:07Z</time>
      </trkpt>
      <trkpt lat="47.78028" lon="-3.56911">
        <ele>55</ele>
        <time>2018-07-14T11:53:08Z</time>
      </trkpt>
      <trkpt lat="47.78022" lon="-3.56907">
        <ele>55</ele>
        <time>2018-07-14T11:53:09Z</time>
      </trkpt>
      <trkpt lat="47.78016" lon="-3.56903">
        <ele>55</ele>
        <time>2018-07-14T11:53:10Z</time>
      </trkpt>
      <trkpt lat="47.7801" lon="-3.56899">
        <ele>55</ele>
        <time>2018-07-14T11:53:11Z</time>
      </trkpt>
      <trkpt lat="47.78005" lon="-3.56894">
        <ele>55</ele>
        <time>2018-07-14T11:53:12Z</time>
      </trkpt>
      <trkpt lat="47.77999" lon="-3.5689">
        <ele>55</ele>
        <time>2018-07-14T11:53:13Z</time>
      </trkpt>
      <trkpt lat="47.77993" lon="-3.56885">
        <ele>55</ele>
        <time>2018-07-14T11:53:14Z</time>
      </trkpt>
      <trkpt lat="47.77987" lon="-3.5688">
        <ele>55</ele>
        <time>2018-07-14T11:53:15Z</time>
      </trkpt>
      <trkpt lat="47.77982" lon="-3.56874">
        <ele>55</ele>
        <time>2018-07-14T11:53:16Z</time>
      </trkpt>
      <trkpt lat="47.77976" lon="-3.56869">
        <ele>55</ele>
        <time>2018-07-14T11:53:17Z</time>
      </trkpt>
      <trkpt lat="47.7797" lon="-3.56864">
        <ele>54</ele>
        <time>2018-07-14T11:53:18Z</time>
      </trkpt>
      <trkpt lat="47.77964" lon="-3.56858">
        <ele>54</ele>
        <time>2018-07-14T11:53:19Z</time>
      </trkpt>
      <trkpt lat="47.77958" lon="-3.56853">
        <ele>54</ele>
        <time>2018-07-14T11:53:20Z</time>
      </trkpt>
      <trkpt lat="47.77953" lon="-3.56847">
        <ele>54</ele>
        <time>2018-07-14T11:53:21Z</time>
      </trkpt>
      <trkpt lat="47.77947" lon="-3.56841">
        <ele>54</ele>
        <time>2018-07-14T11:53:22Z</time>
      </trkpt>
      <trkpt lat="47.77942" lon="-3.56834">
        <ele>54</ele>
        <time>2018-07-14T11:53:23Z</time>
      </trkpt>
      <trkpt lat="47.77936" lon="-3.56828">
        <ele>54</ele>
        <time>2018-07-14T11:53:24Z</time>
      </trkpt>
      <trkpt lat="47.77931" lon="-3.56822">
        <ele>54</ele>
        <time>2018-07-14T11:53:25Z</time>
      </trkpt>
      <trkpt lat="47.77925" lon="-3.56815">
        <ele>54</ele>
        <time>2018-07-14T11:53:26Z</time>
      </trkpt>
      <trkpt lat="47.7792" lon="-3.56809">
        <ele>54</ele>
        <time>2018-07-14T11:53:27Z</time>
      </trkpt>
      <trkpt lat="47.77914" lon="-3.56802">
        <ele>54</ele>
        <time>2018-07-14T11:53:28Z</time>
      </trkpt>
      <trkpt lat="47.7791" lon="-3.56795">
        <ele>53</ele>
        <time>2018-07-14T11:53:29Z</time>
      </trkpt>
      <trkpt lat="47.77905" lon="-3.56789">
        <ele>53</ele>
        <time>2018-07-14T11:53:30Z</time>
      </trkpt>
      <trkpt lat="47.779" lon="-3.56782">
        <ele>53</ele>
        <time>2018-07-14T11:53:31Z</time>
      </trkpt>
      <trkpt lat="47.77896" lon="-3.56775">
        <ele>53</ele>
        <time>2018-07-14T11:53:32Z</time>
      </trkpt>
      <trkpt lat="47.77893" lon="-3.56768">
        <ele>53</ele>
        <time>2018-07-14T11:53:33Z</time>
      </trkpt>
      <trkpt lat="47.77891" lon="-3.56759">
        <ele>53</ele>
        <time>2018-07-14T11:53:34Z</time>
      </trkpt>
      <trkpt lat="47.77892" lon="-3.56751">
        <ele>53</ele>
        <time>2018-07-14T11:53:35Z</time>
      </trkpt>
      <trkpt lat="47.77895" lon="-3.56744">
        <ele>53</ele>
        <time>2018-07-14T11:53:36Z</time>
      </trkpt>
      <trkpt lat="47.77898" lon="-3.56739">
        <ele>53</ele>
        <time>2018-07-14T11:53:37Z</time>
      </trkpt>
      <trkpt lat="47.77903" lon="-3.56737">
        <ele>53</ele>
        <time>2018-07-14T11:53:38Z</time>
      </trkpt>
      <trkpt lat="47.77907" lon="-3.56738">
        <ele>53</ele>
        <time>2018-07-14T11:53:39Z</time>
      </trkpt>
      <trkpt lat="47.77912" lon="-3.5674">
        <ele>53</ele>
        <time>2018-07-14T11:53:40Z</time>
      </trkpt>
      <trkpt lat="47.77916" lon="-3.56743">
        <ele>53</ele>
        <time>2018-07-14T11:53:41Z</time>
      </trkpt>
      <trkpt lat="47.7792" lon="-3.56746">
        <ele>53</ele>
        <time>2018-07-14T11:53:42Z</time>
      </trkpt>
      <trkpt lat="47.77925" lon="-3.56749">
        <ele>53</ele>
        <time>2018-07-14T11:53:43Z</time>
      </trkpt>
      <trkpt lat="47.77929" lon="-3.56752">
        <ele>53</ele>
        <time>2018-07-14T11:53:44Z</time>
      </trkpt>
      <trkpt lat="47.77934" lon="-3.56754">
        <ele>54</ele>
        <time>2018-07-14T11:53:45Z</time>
      </trkpt>
      <trkpt lat="47.77939" lon="-3.56757">
        <ele>54</ele>
        <time>2018-07-14T11:53:46Z</time>
      </trkpt>
      <trkpt lat="47.77943" lon="-3.56759">
        <ele>54</ele>
        <time>2018-07-14T11:53:47Z</time>
      </trkpt>
      <trkpt lat="47.77947" lon="-3.56761">
        <ele>54</ele>
        <time>2018-07-14T11:53:48Z</time>
      </trkpt>
      <trkpt lat="47.77952" lon="-3.56763">
        <ele>54</ele>
        <time>2018-07-14T11:53:49Z</time>
      </trkpt>
      <trkpt lat="47.77957" lon="-3.56765">
        <ele>54</ele>
        <time>2018-07-14T11:53:50Z</time>
      </trkpt>
      <trkpt lat="47.77961" lon="-3.56767">
        <ele>54</ele>
        <time>2018-07-14T11:53:51Z</time>
      </trkpt>
      <trkpt lat="47.77966" lon="-3.56768">
        <ele>54</ele>
        <time>2018-07-14T11:53:52Z</time>
      </trkpt>
      <trkpt lat="47.77971" lon="-3.56769">
        <ele>55</ele>
        <time>2018-07-14T11:53:53Z</time>
      </trkpt>
      <trkpt lat="47.77976" lon="-3.5677">
        <ele>55</ele>
        <time>2018-07-14T11:53:54Z</time>
      </trkpt>
      <trkpt lat="47.77981" lon="-3.56771">
        <ele>55</ele>
        <time>2018-07-14T11:53:55Z</time>
      </trkpt>
      <trkpt lat="47.77986" lon="-3.56772">
        <ele>55</ele>
        <time>2018-07-14T11:53:56Z</time>
      </trkpt>
      <trkpt lat="47.77991" lon="-3.56773">
        <ele>55</ele>
        <time>2018-07-14T11:53:57Z</time>
      </trkpt>
      <trkpt lat="47.77996" lon="-3.56774">
        <ele>55</ele>
        <time>2018-07-14T11:53:58Z</time>
      </trkpt>
      <trkpt lat="47.78001" lon="-3.56775">
        <ele>56</ele>
        <time>2018-07-14T11:53:59Z</time>
      </trkpt>
      <trkpt lat="47.78006" lon="-3.56776">
        <ele>56</ele>
        <time>2018-07-14T11:54:00Z</time>
      </trkpt>
      <trkpt lat="47.78011" lon="-3.56778">
        <ele>56</ele>
        <time>2018-07-14T11:54:01Z</time>
      </trkpt>
      <trkpt lat="47.78016" lon="-3.56779">
        <ele>56</ele>
        <time>2018-07-14T11:54:02Z</time>
      </trkpt>
      <trkpt lat="47.78021" lon="-3.5678">
        <ele>56</ele>
        <time>2018-07-14T11:54:03Z</time>
      </trkpt>
      <trkpt lat="47.78026" lon="-3.56781">
        <ele>56</ele>
        <time>2018-07-14T11:54:04Z</time>
      </trkpt>
      <trkpt lat="47.78032" lon="-3.56782">
        <ele>56</ele>
        <time>2018-07-14T11:54:05Z</time>
      </trkpt>
      <trkpt lat="47.78037" lon="-3.56783">
        <ele>56</ele>
        <time>2018-07-14T11:54:06Z</time>
      </trkpt>
      <trkpt lat="47.78042" lon="-3.56784">
        <ele>56</ele>
        <time>2018-07-14T11:54:07Z</time>
      </trkpt>
      <trkpt lat="47.78047" lon="-3.56785">
        <ele>56</ele>
        <time>2018-07-14T11:54:08Z</time>
      </trkpt>
      <trkpt lat="47.78052" lon="-3.56786">
        <ele>56</ele>
        <time>2018-07-14T11:54:09Z</time>
      </trkpt>
      <trkpt lat="47.78058" lon="-3.56788">
        <ele>57</ele>
        <time>2018-07-14T11:54:10Z</time>
      </trkpt>
      <trkpt lat="47.78063" lon="-3.56788">
        <ele>57</ele>
        <time>2018-07-14T11:54:11Z</time>
      </trkpt>
      <trkpt lat="47.78068" lon="-3.56789">
        <ele>57</ele>
        <time>2018-07-14T11:54:12Z</time>
      </trkpt>
      <trkpt lat="47.78074" lon="-3.56791">
        <ele>57</ele>
        <time>2018-07-14T11:54:13Z</time>
      </trkpt>
      <trkpt lat="47.78079" lon="-3.56792">
        <ele>57</ele>
        <time>2018-07-14T11:54:14Z</time>
      </trkpt>
      <trkpt lat="47.78084" lon="-3.56794">
        <ele>57</ele>
        <time>2018-07-14T11:54:15Z</time>
      </trkpt>
      <trkpt lat="47.7809" lon="-3.56796">
        <ele>57</ele>
        <time>2018-07-14T11:54:16Z</time>
      </trkpt>
      <trkpt lat="47.78095" lon="-3.56799">
        <ele>58</ele>
        <time>2018-07-14T11:54:17Z</time>
      </trkpt>
      <trkpt lat="47.781" lon="-3.56801">
        <ele>58</ele>
        <time>2018-07-14T11:54:18Z</time>
      </trkpt>
      <trkpt lat="47.78105" lon="-3.56804">
        <ele>58</ele>
        <time>2018-07-14T11:54:19Z</time>
      </trkpt>
      <trkpt lat="47.7811" lon="-3.56807">
        <ele>58</ele>
        <time>2018-07-14T11:54:20Z</time>
      </trkpt>
      <trkpt lat="47.78116" lon="-3.56811">
        <ele>58</ele>
        <time>2018-07-14T11:54:21Z</time>
      </trkpt>
      <trkpt lat="47.7812" lon="-3.56813">
        <ele>58</ele>
        <time>2018-07-14T11:54:22Z</time>
      </trkpt>
      <trkpt lat="47.78126" lon="-3.56816">
        <ele>58</ele>
        <time>2018-07-14T11:54:23Z</time>
      </trkpt>
      <trkpt lat="47.78131" lon="-3.56818">
        <ele>58</ele>
        <time>2018-07-14T11:54:24Z</time>
      </trkpt>
      <trkpt lat="47.78136" lon="-3.56819">
        <ele>58</ele>
        <time>2018-07-14T11:54:25Z</time>
      </trkpt>
      <trkpt lat="47.78141" lon="-3.56819">
        <ele>58</ele>
        <time>2018-07-14T11:54:26Z</time>
      </trkpt>
      <trkpt lat="47.78145" lon="-3.56819">
        <ele>58</ele>
        <time>2018-07-14T11:54:27Z</time>
      </trkpt>
      <trkpt lat="47.78148" lon="-3.56818">
        <ele>58</ele>
        <time>2018-07-14T11:54:28Z</time>
      </trkpt>
      <trkpt lat="47.78151" lon="-3.56817">
        <ele>58</ele>
        <time>2018-07-14T11:54:29Z</time>
      </trkpt>
      <trkpt lat="47.78153" lon="-3.56817">
        <ele>58</ele>
        <time>2018-07-14T11:54:30Z</time>
      </trkpt>
      <trkpt lat="47.78155" lon="-3.56817">
        <ele>58</ele>
        <time>2018-07-14T11:54:31Z</time>
      </trkpt>
      <trkpt lat="47.78157" lon="-3.56818">
        <ele>58</ele>
        <time>2018-07-14T11:54:32Z</time>
      </trkpt>
      <trkpt lat="47.7816" lon="-3.56818">
        <ele>59</ele>
        <time>2018-07-14T11:54:33Z</time>
      </trkpt>
      <trkpt lat="47.78163" lon="-3.56817">
        <ele>59</ele>
        <time>2018-07-14T11:54:34Z</time>
      </trkpt>
      <trkpt lat="47.78165" lon="-3.56813">
        <ele>59</ele>
        <time>2018-07-14T11:54:35Z</time>
      </trkpt>
      <trkpt lat="47.78168" lon="-3.56808">
        <ele>59</ele>
        <time>2018-07-14T11:54:36Z</time>
      </trkpt>
      <trkpt lat="47.7817" lon="-3.56802">
        <ele>59</ele>
        <time>2018-07-14T11:54:37Z</time>
      </trkpt>
      <trkpt lat="47.78173" lon="-3.56797">
        <ele>59</ele>
        <time>2018-07-14T11:54:38Z</time>
      </trkpt>
      <trkpt lat="47.78175" lon="-3.5679">
        <ele>59</ele>
        <time>2018-07-14T11:54:39Z</time>
      </trkpt>
      <trkpt lat="47.78177" lon="-3.56782">
        <ele>59</ele>
        <time>2018-07-14T11:54:40Z</time>
      </trkpt>
      <trkpt lat="47.7818" lon="-3.56775">
        <ele>58</ele>
        <time>2018-07-14T11:54:41Z</time>
      </trkpt>
      <trkpt lat="47.78182" lon="-3.56767">
        <ele>58</ele>
        <time>2018-07-14T11:54:42Z</time>
      </trkpt>
      <trkpt lat="47.78184" lon="-3.56759">
        <ele>58</ele>
        <time>2018-07-14T11:54:43Z</time>
      </trkpt>
      <trkpt lat="47.78185" lon="-3.5675">
        <ele>57</ele>
        <time>2018-07-14T11:54:44Z</time>
      </trkpt>
      <trkpt lat="47.78186" lon="-3.56742">
        <ele>57</ele>
        <time>2018-07-14T11:54:45Z</time>
      </trkpt>
      <trkpt lat="47.78188" lon="-3.56733">
        <ele>57</ele>
        <time>2018-07-14T11:54:46Z</time>
      </trkpt>
      <trkpt lat="47.78189" lon="-3.56725">
        <ele>56</ele>
        <time>2018-07-14T11:54:47Z</time>
      </trkpt>
      <trkpt lat="47.7819" lon="-3.56716">
        <ele>56</ele>
        <time>2018-07-14T11:54:48Z</time>
      </trkpt>
      <trkpt lat="47.78192" lon="-3.56709">
        <ele>56</ele>
        <time>2018-07-14T11:54:49Z</time>
      </trkpt>
      <trkpt lat="47.78193" lon="-3.56701">
        <ele>55</ele>
        <time>2018-07-14T11:54:50Z</time>
      </trkpt>
      <trkpt lat="47.78195" lon="-3.56693">
        <ele>55</ele>
        <time>2018-07-14T11:54:51Z</time>
      </trkpt>
      <trkpt lat="47.78196" lon="-3.56686">
        <ele>55</ele>
        <time>2018-07-14T11:54:52Z</time>
      </trkpt>
      <trkpt lat="47.78198" lon="-3.56679">
        <ele>55</ele>
        <time>2018-07-14T11:54:53Z</time>
      </trkpt>
      <trkpt lat="47.782" lon="-3.56671">
        <ele>55</ele>
        <time>2018-07-14T11:54:54Z</time>
      </trkpt>
      <trkpt lat="47.78201" lon="-3.56663">
        <ele>55</ele>
        <time>2018-07-14T11:54:55Z</time>
      </trkpt>
      <trkpt lat="47.78203" lon="-3.56655">
        <ele>55</ele>
        <time>2018-07-14T11:54:56Z</time>
      </trkpt>
      <trkpt lat="47.78204" lon="-3.56647">
        <ele>55</ele>
        <time>2018-07-14T11:54:57Z</time>
      </trkpt>
      <trkpt lat="47.78205" lon="-3.5664">
        <ele>55</ele>
        <time>2018-07-14T11:54:58Z</time>
      </trkpt>
      <trkpt lat="47.78206" lon="-3.56633">
        <ele>55</ele>
        <time>2018-07-14T11:54:59Z</time>
      </trkpt>
      <trkpt lat="47.78207" lon="-3.56627">
        <ele>55</ele>
        <time>2018-07-14T11:55:00Z</time>
      </trkpt>
      <trkpt lat="47.78209" lon="-3.56621">
        <ele>55</ele>
        <time>2018-07-14T11:55:01Z</time>
      </trkpt>
      <trkpt lat="47.78209" lon="-3.56615">
        <ele>55</ele>
        <time>2018-07-14T11:55:02Z</time>
      </trkpt>
      <trkpt lat="47.7821" lon="-3.56609">
        <ele>54</ele>
        <time>2018-07-14T11:55:03Z</time>
      </trkpt>
      <trkpt lat="47.7821" lon="-3.56601">
        <ele>54</ele>
        <time>2018-07-14T11:55:04Z</time>
      </trkpt>
      <trkpt lat="47.7821" lon="-3.56593">
        <ele>54</ele>
        <time>2018-07-14T11:55:05Z</time>
      </trkpt>
      <trkpt lat="47.7821" lon="-3.56585">
        <ele>54</ele>
        <time>2018-07-14T11:55:06Z</time>
      </trkpt>
      <trkpt lat="47.78211" lon="-3.56577">
        <ele>54</ele>
        <time>2018-07-14T11:55:07Z</time>
      </trkpt>
      <trkpt lat="47.78212" lon="-3.56569">
        <ele>54</ele>
        <time>2018-07-14T11:55:08Z</time>
      </trkpt>
      <trkpt lat="47.78213" lon="-3.56562">
        <ele>54</ele>
        <time>2018-07-14T11:55:09Z</time>
      </trkpt>
      <trkpt lat="47.78215" lon="-3.56554">
        <ele>54</ele>
        <time>2018-07-14T11:55:10Z</time>
      </trkpt>
      <trkpt lat="47.78216" lon="-3.56546">
        <ele>53</ele>
        <time>2018-07-14T11:55:11Z</time>
      </trkpt>
      <trkpt lat="47.78218" lon="-3.56539">
        <ele>53</ele>
        <time>2018-07-14T11:55:12Z</time>
      </trkpt>
      <trkpt lat="47.7822" lon="-3.56532">
        <ele>53</ele>
        <time>2018-07-14T11:55:13Z</time>
      </trkpt>
      <trkpt lat="47.78222" lon="-3.56526">
        <ele>53</ele>
        <time>2018-07-14T11:55:14Z</time>
      </trkpt>
      <trkpt lat="47.78225" lon="-3.5652">
        <ele>53</ele>
        <time>2018-07-14T11:55:15Z</time>
      </trkpt>
      <trkpt lat="47.78228" lon="-3.56513">
        <ele>53</ele>
        <time>2018-07-14T11:55:16Z</time>
      </trkpt>
      <trkpt lat="47.78231" lon="-3.56507">
        <ele>52</ele>
        <time>2018-07-14T11:55:17Z</time>
      </trkpt>
      <trkpt lat="47.78233" lon="-3.56501">
        <ele>52</ele>
        <time>2018-07-14T11:55:18Z</time>
      </trkpt>
      <trkpt lat="47.78236" lon="-3.56495">
        <ele>52</ele>
        <time>2018-07-14T11:55:19Z</time>
      </trkpt>
      <trkpt lat="47.7824" lon="-3.56491">
        <ele>52</ele>
        <time>2018-07-14T11:55:20Z</time>
      </trkpt>
      <trkpt lat="47.78244" lon="-3.56487">
        <ele>52</ele>
        <time>2018-07-14T11:55:21Z</time>
      </trkpt>
      <trkpt lat="47.78248" lon="-3.56484">
        <ele>52</ele>
        <time>2018-07-14T11:55:22Z</time>
      </trkpt>
      <trkpt lat="47.78252" lon="-3.5648">
        <ele>52</ele>
        <time>2018-07-14T11:55:23Z</time>
      </trkpt>
      <trkpt lat="47.78256" lon="-3.56475">
        <ele>52</ele>
        <time>2018-07-14T11:55:24Z</time>
      </trkpt>
      <trkpt lat="47.78258" lon="-3.56469">
        <ele>51</ele>
        <time>2018-07-14T11:55:25Z</time>
      </trkpt>
      <trkpt lat="47.78261" lon="-3.56463">
        <ele>51</ele>
        <time>2018-07-14T11:55:26Z</time>
      </trkpt>
      <trkpt lat="47.78262" lon="-3.56457">
        <ele>51</ele>
        <time>2018-07-14T11:55:27Z</time>
      </trkpt>
      <trkpt lat="47.78265" lon="-3.5645">
        <ele>50</ele>
        <time>2018-07-14T11:55:28Z</time>
      </trkpt>
      <trkpt lat="47.78267" lon="-3.56444">
        <ele>50</ele>
        <time>2018-07-14T11:55:29Z</time>
      </trkpt>
      <trkpt lat="47.78269" lon="-3.56437">
        <ele>50</ele>
        <time>2018-07-14T11:55:30Z</time>
      </trkpt>
      <trkpt lat="47.78271" lon="-3.56429">
        <ele>50</ele>
        <time>2018-07-14T11:55:31Z</time>
      </trkpt>
      <trkpt lat="47.78273" lon="-3.56422">
        <ele>50</ele>
        <time>2018-07-14T11:55:32Z</time>
      </trkpt>
      <trkpt lat="47.78274" lon="-3.56414">
        <ele>50</ele>
        <time>2018-07-14T11:55:33Z</time>
      </trkpt>
      <trkpt lat="47.78276" lon="-3.56406">
        <ele>50</ele>
        <time>2018-07-14T11:55:34Z</time>
      </trkpt>
      <trkpt lat="47.78278" lon="-3.56398">
        <ele>50</ele>
        <time>2018-07-14T11:55:35Z</time>
      </trkpt>
      <trkpt lat="47.7828" lon="-3.5639">
        <ele>50</ele>
        <time>2018-07-14T11:55:36Z</time>
      </trkpt>
      <trkpt lat="47.78281" lon="-3.56382">
        <ele>49</ele>
        <time>2018-07-14T11:55:37Z</time>
      </trkpt>
      <trkpt lat="47.78283" lon="-3.56374">
        <ele>49</ele>
        <time>2018-07-14T11:55:38Z</time>
      </trkpt>
      <trkpt lat="47.78284" lon="-3.56366">
        <ele>49</ele>
        <time>2018-07-14T11:55:39Z</time>
      </trkpt>
      <trkpt lat="47.78285" lon="-3.56358">
        <ele>49</ele>
        <time>2018-07-14T11:55:40Z</time>
      </trkpt>
      <trkpt lat="47.78285" lon="-3.56351">
        <ele>49</ele>
        <time>2018-07-14T11:55:41Z</time>
      </trkpt>
      <trkpt lat="47.78286" lon="-3.56347">
        <ele>49</ele>
        <time>2018-07-14T11:55:42Z</time>
      </trkpt>
      <trkpt lat="47.78286" lon="-3.56345">
        <ele>49</ele>
        <time>2018-07-14T11:55:43Z</time>
      </trkpt>
      <trkpt lat="47.78286" lon="-3.56344">
        <ele>49</ele>
        <time>2018-07-14T11:55:44Z</time>
      </trkpt>
      <trkpt lat="47.78285" lon="-3.56343">
        <ele>48</ele>
        <time>2018-07-14T11:55:45Z</time>
      </trkpt>
      <trkpt lat="47.78285" lon="-3.56342">
        <ele>48</ele>
        <time>2018-07-14T11:55:46Z</time>
      </trkpt>
      <trkpt lat="47.78284" lon="-3.56343">
        <ele>48</ele>
        <time>2018-07-14T11:55:47Z</time>
      </trkpt>
      <trkpt lat="47.78284" lon="-3.56343">
        <ele>48</ele>
        <time>2018-07-14T11:55:48Z</time>
      </trkpt>
      <trkpt lat="47.78285" lon="-3.56344">
        <ele>48</ele>
        <time>2018-07-14T11:55:49Z</time>
      </trkpt>
      <trkpt lat="47.78285" lon="-3.56345">
        <ele>48</ele>
        <time>2018-07-14T11:55:50Z</time>
      </trkpt>
      <trkpt lat="47.78287" lon="-3.56346">
        <ele>48</ele>
        <time>2018-07-14T11:55:51Z</time>
      </trkpt>
      <trkpt lat="47.78288" lon="-3.56346">
        <ele>48</ele>
        <time>2018-07-14T11:55:52Z</time>
      </trkpt>
      <trkpt lat="47.7829" lon="-3.56347">
        <ele>48</ele>
        <time>2018-07-14T11:55:53Z</time>
      </trkpt>
      <trkpt lat="47.78291" lon="-3.56348">
        <ele>48</ele>
        <time>2018-07-14T11:55:54Z</time>
      </trkpt>
      <trkpt lat="47.78294" lon="-3.56349">
        <ele>48</ele>
        <time>2018-07-14T11:55:55Z</time>
      </trkpt>
      <trkpt lat="47.78296" lon="-3.5635">
        <ele>48</ele>
        <time>2018-07-14T11:55:56Z</time>
      </trkpt>
      <trkpt lat="47.78297" lon="-3.56351">
        <ele>48</ele>
        <time>2018-07-14T11:55:57Z</time>
      </trkpt>
      <trkpt lat="47.78299" lon="-3.56351">
        <ele>48</ele>
        <time>2018-07-14T11:55:58Z</time>
      </trkpt>
      <trkpt lat="47.78301" lon="-3.56349">
        <ele>48</ele>
        <time>2018-07-14T11:55:59Z</time>
      </trkpt>
      <trkpt lat="47.78302" lon="-3.56347">
        <ele>48</ele>
        <time>2018-07-14T11:56:00Z</time>
      </trkpt>
      <trkpt lat="47.78304" lon="-3.56345">
        <ele>48</ele>
        <time>2018-07-14T11:56:01Z</time>
      </trkpt>
      <trkpt lat="47.78307" lon="-3.56343">
        <ele>48</ele>
        <time>2018-07-14T11:56:02Z</time>
      </trkpt>
      <trkpt lat="47.78311" lon="-3.56341">
        <ele>48</ele>
        <time>2018-07-14T11:56:03Z</time>
      </trkpt>
      <trkpt lat="47.78315" lon="-3.56337">
        <ele>47</ele>
        <time>2018-07-14T11:56:04Z</time>
      </trkpt>
      <trkpt lat="47.78319" lon="-3.56334">
        <ele>47</ele>
        <time>2018-07-14T11:56:05Z</time>
      </trkpt>
      <trkpt lat="47.78322" lon="-3.56331">
        <ele>47</ele>
        <time>2018-07-14T11:56:06Z</time>
      </trkpt>
      <trkpt lat="47.78326" lon="-3.56328">
        <ele>47</ele>
        <time>2018-07-14T11:56:07Z</time>
      </trkpt>
      <trkpt lat="47.7833" lon="-3.56325">
        <ele>47</ele>
        <time>2018-07-14T11:56:08Z</time>
      </trkpt>
      <trkpt lat="47.78334" lon="-3.56321">
        <ele>47</ele>
        <time>2018-07-14T11:56:09Z</time>
      </trkpt>
      <trkpt lat="47.78339" lon="-3.56318">
        <ele>46</ele>
        <time>2018-07-14T11:56:10Z</time>
      </trkpt>
      <trkpt lat="47.78344" lon="-3.56315">
        <ele>46</ele>
        <time>2018-07-14T11:56:11Z</time>
      </trkpt>
      <trkpt lat="47.7835" lon="-3.56313">
        <ele>46</ele>
        <time>2018-07-14T11:56:12Z</time>
      </trkpt>
      <trkpt lat="47.78354" lon="-3.5631">
        <ele>46</ele>
        <time>2018-07-14T11:56:13Z</time>
      </trkpt>
      <trkpt lat="47.78357" lon="-3.56308">
        <ele>46</ele>
        <time>2018-07-14T11:56:14Z</time>
      </trkpt>
      <trkpt lat="47.7836" lon="-3.56306">
        <ele>45</ele>
        <time>2018-07-14T11:56:15Z</time>
      </trkpt>
      <trkpt lat="47.78364" lon="-3.56303">
        <ele>45</ele>
        <time>2018-07-14T11:56:16Z</time>
      </trkpt>
      <trkpt lat="47.78367" lon="-3.56299">
        <ele>45</ele>
        <time>2018-07-14T11:56:17Z</time>
      </trkpt>
      <trkpt lat="47.78371" lon="-3.56294">
        <ele>45</ele>
        <time>2018-07-14T11:56:18Z</time>
      </trkpt>
      <trkpt lat="47.78376" lon="-3.56289">
        <ele>45</ele>
        <time>2018-07-14T11:56:19Z</time>
      </trkpt>
      <trkpt lat="47.78381" lon="-3.56284">
        <ele>45</ele>
        <time>2018-07-14T11:56:20Z</time>
      </trkpt>
      <trkpt lat="47.78386" lon="-3.56278">
        <ele>45</ele>
        <time>2018-07-14T11:56:21Z</time>
      </trkpt>
      <trkpt lat="47.78392" lon="-3.56273">
        <ele>45</ele>
        <time>2018-07-14T11:56:22Z</time>
      </trkpt>
      <trkpt lat="47.78396" lon="-3.56267">
        <ele>45</ele>
        <time>2018-07-14T11:56:23Z</time>
      </trkpt>
      <trkpt lat="47.78401" lon="-3.5626">
        <ele>45</ele>
        <time>2018-07-14T11:56:24Z</time>
      </trkpt>
      <trkpt lat="47.78405" lon="-3.56253">
        <ele>45</ele>
        <time>2018-07-14T11:56:25Z</time>
      </trkpt>
      <trkpt lat="47.78408" lon="-3.56243">
        <ele>45</ele>
        <time>2018-07-14T11:56:26Z</time>
      </trkpt>
      <trkpt lat="47.78412" lon="-3.56233">
        <ele>45</ele>
        <time>2018-07-14T11:56:27Z</time>
      </trkpt>
      <trkpt lat="47.78416" lon="-3.56224">
        <ele>45</ele>
        <time>2018-07-14T11:56:28Z</time>
      </trkpt>
      <trkpt lat="47.78419" lon="-3.56216">
        <ele>45</ele>
        <time>2018-07-14T11:56:29Z</time>
      </trkpt>
      <trkpt lat="47.78422" lon="-3.5621">
        <ele>45</ele>
        <time>2018-07-14T11:56:30Z</time>
      </trkpt>
      <trkpt lat="47.78424" lon="-3.56203">
        <ele>45</ele>
        <time>2018-07-14T11:56:31Z</time>
      </trkpt>
      <trkpt lat="47.78426" lon="-3.56196">
        <ele>45</ele>
        <time>2018-07-14T11:56:32Z</time>
      </trkpt>
      <trkpt lat="47.78427" lon="-3.56191">
        <ele>44</ele>
        <time>2018-07-14T11:56:33Z</time>
      </trkpt>
      <trkpt lat="47.78427" lon="-3.56188">
        <ele>44</ele>
        <time>2018-07-14T11:56:34Z</time>
      </trkpt>
      <trkpt lat="47.78427" lon="-3.56185">
        <ele>44</ele>
        <time>2018-07-14T11:56:35Z</time>
      </trkpt>
      <trkpt lat="47.78427" lon="-3.56182">
        <ele>44</ele>
        <time>2018-07-14T11:56:36Z</time>
      </trkpt>
      <trkpt lat="47.78427" lon="-3.56179">
        <ele>44</ele>
        <time>2018-07-14T11:56:37Z</time>
      </trkpt>
      <trkpt lat="47.78427" lon="-3.56176">
        <ele>44</ele>
        <time>2018-07-14T11:56:38Z</time>
      </trkpt>
      <trkpt lat="47.78427" lon="-3.56174">
        <ele>44</ele>
        <time>2018-07-14T11:56:39Z</time>
      </trkpt>
      <trkpt lat="47.78426" lon="-3.56171">
        <ele>44</ele>
        <time>2018-07-14T11:56:40Z</time>
      </trkpt>
      <trkpt lat="47.78425" lon="-3.56168">
        <ele>44</ele>
        <time>2018-07-14T11:56:41Z</time>
      </trkpt>
      <trkpt lat="47.78425" lon="-3.56167">
        <ele>44</ele>
        <time>2018-07-14T11:56:42Z</time>
      </trkpt>
      <trkpt lat="47.78425" lon="-3.56165">
        <ele>44</ele>
        <time>2018-07-14T11:56:43Z</time>
      </trkpt>
      <trkpt lat="47.78425" lon="-3.56164">
        <ele>44</ele>
        <time>2018-07-14T11:56:44Z</time>
      </trkpt>
      <trkpt lat="47.78424" lon="-3.56162">
        <ele>44</ele>
        <time>2018-07-14T11:56:45Z</time>
      </trkpt>
      <trkpt lat="47.78424" lon="-3.56161">
        <ele>44</ele>
        <time>2018-07-14T11:56:46Z</time>
      </trkpt>
      <trkpt lat="47.78424" lon="-3.5616">
        <ele>44</ele>
        <time>2018-07-14T11:56:47Z</time>
      </trkpt>
      <trkpt lat="47.78424" lon="-3.56158">
        <ele>44</ele>
        <time>2018-07-14T11:56:48Z</time>
      </trkpt>
      <trkpt lat="47.78423" lon="-3.56157">
        <ele>43</ele>
        <time>2018-07-14T11:56:49Z</time>
      </trkpt>
      <trkpt lat="47.78423" lon="-3.56155">
        <ele>43</ele>
        <time>2018-07-14T11:56:50Z</time>
      </trkpt>
      <trkpt lat="47.78423" lon="-3.56153">
        <ele>43</ele>
        <time>2018-07-14T11:56:51Z</time>
      </trkpt>
      <trkpt lat="47.78423" lon="-3.56152">
        <ele>43</ele>
        <time>2018-07-14T11:56:52Z</time>
      </trkpt>
      <trkpt lat="47.78423" lon="-3.56151">
        <ele>43</ele>
        <time>2018-07-14T11:56:53Z</time>
      </trkpt>
      <trkpt lat="47.78424" lon="-3.56149">
        <ele>43</ele>
        <time>2018-07-14T11:56:54Z</time>
      </trkpt>
      <trkpt lat="47.78424" lon="-3.56148">
        <ele>43</ele>
        <time>2018-07-14T11:56:55Z</time>
      </trkpt>
      <trkpt lat="47.78424" lon="-3.56147">
        <ele>43</ele>
        <time>2018-07-14T11:56:56Z</time>
      </trkpt>
      <trkpt lat="47.78425" lon="-3.56146">
        <ele>43</ele>
        <time>2018-07-14T11:56:57Z</time>
      </trkpt>
      <trkpt lat="47.78428" lon="-3.56144">
        <ele>43</ele>
        <time>2018-07-14T11:56:58Z</time>
      </trkpt>
      <trkpt lat="47.7843" lon="-3.56143">
        <ele>42</ele>
        <time>2018-07-14T11:56:59Z</time>
      </trkpt>
      <trkpt lat="47.78433" lon="-3.56142">
        <ele>42</ele>
        <time>2018-07-14T11:57:00Z</time>
      </trkpt>
      <trkpt lat="47.78435" lon="-3.56142">
        <ele>42</ele>
        <time>2018-07-14T11:57:01Z</time>
      </trkpt>
      <trkpt lat="47.78437" lon="-3.56141">
        <ele>42</ele>
        <time>2018-07-14T11:57:02Z</time>
      </trkpt>
      <trkpt lat="47.78439" lon="-3.56139">
        <ele>42</ele>
        <time>2018-07-14T11:57:03Z</time>
      </trkpt>
      <trkpt lat="47.78442" lon="-3.56138">
        <ele>42</ele>
        <time>2018-07-14T11:57:04Z</time>
      </trkpt>
      <trkpt lat="47.78446" lon="-3.56136">
        <ele>42</ele>
        <time>2018-07-14T11:57:05Z</time>
      </trkpt>
      <trkpt lat="47.78449" lon="-3.56134">
        <ele>42</ele>
        <time>2018-07-14T11:57:06Z</time>
      </trkpt>
      <trkpt lat="47.78452" lon="-3.56132">
        <ele>42</ele>
        <time>2018-07-14T11:57:07Z</time>
      </trkpt>
      <trkpt lat="47.78455" lon="-3.56129">
        <ele>42</ele>
        <time>2018-07-14T11:57:08Z</time>
      </trkpt>
      <trkpt lat="47.78458" lon="-3.56127">
        <ele>42</ele>
        <time>2018-07-14T11:57:09Z</time>
      </trkpt>
      <trkpt lat="47.78461" lon="-3.56125">
        <ele>42</ele>
        <time>2018-07-14T11:57:10Z</time>
      </trkpt>
      <trkpt lat="47.78464" lon="-3.56123">
        <ele>42</ele>
        <time>2018-07-14T11:57:11Z</time>
      </trkpt>
      <trkpt lat="47.78467" lon="-3.56121">
        <ele>42</ele>
        <time>2018-07-14T11:57:12Z</time>
      </trkpt>
      <trkpt lat="47.78469" lon="-3.56118">
        <ele>42</ele>
        <time>2018-07-14T11:57:13Z</time>
      </trkpt>
      <trkpt lat="47.78473" lon="-3.56115">
        <ele>41</ele>
        <time>2018-07-14T11:57:14Z</time>
      </trkpt>
      <trkpt lat="47.78476" lon="-3.56111">
        <ele>41</ele>
        <time>2018-07-14T11:57:15Z</time>
      </trkpt>
      <trkpt lat="47.78479" lon="-3.56108">
        <ele>41</ele>
        <time>2018-07-14T11:57:16Z</time>
      </trkpt>
      <trkpt lat="47.78483" lon="-3.56104">
        <ele>41</ele>
        <time>2018-07-14T11:57:17Z</time>
      </trkpt>
      <trkpt lat="47.78486" lon="-3.561">
        <ele>41</ele>
        <time>2018-07-14T11:57:18Z</time>
      </trkpt>
      <trkpt lat="47.7849" lon="-3.56098">
        <ele>41</ele>
        <time>2018-07-14T11:57:19Z</time>
      </trkpt>
      <trkpt lat="47.78493" lon="-3.56095">
        <ele>40</ele>
        <time>2018-07-14T11:57:20Z</time>
      </trkpt>
      <trkpt lat="47.78496" lon="-3.56092">
        <ele>40</ele>
        <time>2018-07-14T11:57:21Z</time>
      </trkpt>
      <trkpt lat="47.785" lon="-3.56089">
        <ele>40</ele>
        <time>2018-07-14T11:57:22Z</time>
      </trkpt>
      <trkpt lat="47.78503" lon="-3.56085">
        <ele>40</ele>
        <time>2018-07-14T11:57:23Z</time>
      </trkpt>
      <trkpt lat="47.78506" lon="-3.56081">
        <ele>40</ele>
        <time>2018-07-14T11:57:24Z</time>
      </trkpt>
      <trkpt lat="47.78508" lon="-3.56077">
        <ele>39</ele>
        <time>2018-07-14T11:57:25Z</time>
      </trkpt>
      <trkpt lat="47.7851" lon="-3.56075">
        <ele>39</ele>
        <time>2018-07-14T11:57:26Z</time>
      </trkpt>
      <trkpt lat="47.78512" lon="-3.56073">
        <ele>39</ele>
        <time>2018-07-14T11:57:27Z</time>
      </trkpt>
      <trkpt lat="47.78514" lon="-3.5607">
        <ele>39</ele>
        <time>2018-07-14T11:57:28Z</time>
      </trkpt>
      <trkpt lat="47.78517" lon="-3.56068">
        <ele>39</ele>
        <time>2018-07-14T11:57:29Z</time>
      </trkpt>
      <trkpt lat="47.7852" lon="-3.56065">
        <ele>39</ele>
        <time>2018-07-14T11:57:30Z</time>
      </trkpt>
      <trkpt lat="47.78522" lon="-3.56062">
        <ele>39</ele>
        <time>2018-07-14T11:57:31Z</time>
      </trkpt>
      <trkpt lat="47.78525" lon="-3.56057">
        <ele>39</ele>
        <time>2018-07-14T11:57:32Z</time>
      </trkpt>
      <trkpt lat="47.78529" lon="-3.56052">
        <ele>39</ele>
        <time>2018-07-14T11:57:33Z</time>
      </trkpt>
      <trkpt lat="47.78532" lon="-3.56046">
        <ele>38</ele>
        <time>2018-07-14T11:57:34Z</time>
      </trkpt>
      <trkpt lat="47.78536" lon="-3.56039">
        <ele>38</ele>
        <time>2018-07-14T11:57:35Z</time>
      </trkpt>
      <trkpt lat="47.7854" lon="-3.56032">
        <ele>38</ele>
        <time>2018-07-14T11:57:36Z</time>
      </trkpt>
      <trkpt lat="47.78543" lon="-3.56025">
        <ele>38</ele>
        <time>2018-07-14T11:57:37Z</time>
      </trkpt>
      <trkpt lat="47.78545" lon="-3.5602">
        <ele>38</ele>
        <time>2018-07-14T11:57:38Z</time>
      </trkpt>
      <trkpt lat="47.78547" lon="-3.56015">
        <ele>38</ele>
        <time>2018-07-14T11:57:39Z</time>
      </trkpt>
      <trkpt lat="47.78549" lon="-3.56012">
        <ele>38</ele>
        <time>2018-07-14T11:57:40Z</time>
      </trkpt>
      <trkpt lat="47.7855" lon="-3.5601">
        <ele>38</ele>
        <time>2018-07-14T11:57:41Z</time>
      </trkpt>
      <trkpt lat="47.78551" lon="-3.56007">
        <ele>38</ele>
        <time>2018-07-14T11:57:42Z</time>
      </trkpt>
      <trkpt lat="47.78551" lon="-3.56005">
        <ele>38</ele>
        <time>2018-07-14T11:57:43Z</time>
      </trkpt>
      <trkpt lat="47.7855" lon="-3.56003">
        <ele>38</ele>
        <time>2018-07-14T11:57:44Z</time>
      </trkpt>
      <trkpt lat="47.7855" lon="-3.56002">
        <ele>38</ele>
        <time>2018-07-14T11:57:45Z</time>
      </trkpt>
      <trkpt lat="47.78549" lon="-3.56">
        <ele>37</ele>
        <time>2018-07-14T11:57:46Z</time>
      </trkpt>
      <trkpt lat="47.78549" lon="-3.55999">
        <ele>37</ele>
        <time>2018-07-14T11:57:47Z</time>
      </trkpt>
      <trkpt lat="47.78548" lon="-3.55999">
        <ele>37</ele>
        <time>2018-07-14T11:57:48Z</time>
      </trkpt>
      <trkpt lat="47.78547" lon="-3.55998">
        <ele>37</ele>
        <time>2018-07-14T11:57:49Z</time>
      </trkpt>
      <trkpt lat="47.78547" lon="-3.55996">
        <ele>37</ele>
        <time>2018-07-14T11:57:50Z</time>
      </trkpt>
      <trkpt lat="47.78547" lon="-3.55994">
        <ele>36</ele>
        <time>2018-07-14T11:57:51Z</time>
      </trkpt>
      <trkpt lat="47.78547" lon="-3.55993">
        <ele>36</ele>
        <time>2018-07-14T11:57:52Z</time>
      </trkpt>
      <trkpt lat="47.78548" lon="-3.5599">
        <ele>36</ele>
        <time>2018-07-14T11:57:53Z</time>
      </trkpt>
      <trkpt lat="47.7855" lon="-3.55988">
        <ele>36</ele>
        <time>2018-07-14T11:57:54Z</time>
      </trkpt>
      <trkpt lat="47.78551" lon="-3.55985">
        <ele>36</ele>
        <time>2018-07-14T11:57:55Z</time>
      </trkpt>
      <trkpt lat="47.78553" lon="-3.55983">
        <ele>36</ele>
        <time>2018-07-14T11:57:56Z</time>
      </trkpt>
      <trkpt lat="47.78555" lon="-3.5598">
        <ele>35</ele>
        <time>2018-07-14T11:57:57Z</time>
      </trkpt>
      <trkpt lat="47.78557" lon="-3.55977">
        <ele>35</ele>
        <time>2018-07-14T11:57:58Z</time>
      </trkpt>
      <trkpt lat="47.7856" lon="-3.55974">
        <ele>35</ele>
        <time>2018-07-14T11:57:59Z</time>
      </trkpt>
      <trkpt lat="47.78562" lon="-3.55972">
        <ele>35</ele>
        <time>2018-07-14T11:58:00Z</time>
      </trkpt>
      <trkpt lat="47.78565" lon="-3.55969">
        <ele>35</ele>
        <time>2018-07-14T11:58:01Z</time>
      </trkpt>
      <trkpt lat="47.78568" lon="-3.55967">
        <ele>35</ele>
        <time>2018-07-14T11:58:02Z</time>
      </trkpt>
      <trkpt lat="47.7857" lon="-3.55965">
        <ele>35</ele>
        <time>2018-07-14T11:58:03Z</time>
      </trkpt>
      <trkpt lat="47.78573" lon="-3.55963">
        <ele>35</ele>
        <time>2018-07-14T11:58:04Z</time>
      </trkpt>
      <trkpt lat="47.78575" lon="-3.5596">
        <ele>35</ele>
        <time>2018-07-14T11:58:05Z</time>
      </trkpt>
      <trkpt lat="47.78576" lon="-3.55958">
        <ele>35</ele>
        <time>2018-07-14T11:58:06Z</time>
      </trkpt>
      <trkpt lat="47.78578" lon="-3.55956">
        <ele>35</ele>
        <time>2018-07-14T11:58:07Z</time>
      </trkpt>
      <trkpt lat="47.7858" lon="-3.55954">
        <ele>35</ele>
        <time>2018-07-14T11:58:08Z</time>
      </trkpt>
      <trkpt lat="47.78582" lon="-3.55953">
        <ele>35</ele>
        <time>2018-07-14T11:58:09Z</time>
      </trkpt>
      <trkpt lat="47.78583" lon="-3.55951">
        <ele>35</ele>
        <time>2018-07-14T11:58:10Z</time>
      </trkpt>
      <trkpt lat="47.78585" lon="-3.55949">
        <ele>35</ele>
        <time>2018-07-14T11:58:11Z</time>
      </trkpt>
      <trkpt lat="47.78587" lon="-3.55946">
        <ele>35</ele>
        <time>2018-07-14T11:58:12Z</time>
      </trkpt>
      <trkpt lat="47.78587" lon="-3.55943">
        <ele>35</ele>
        <time>2018-07-14T11:58:13Z</time>
      </trkpt>
      <trkpt lat="47.78588" lon="-3.5594">
        <ele>35</ele>
        <time>2018-07-14T11:58:14Z</time>
      </trkpt>
      <trkpt lat="47.78589" lon="-3.55937">
        <ele>35</ele>
        <time>2018-07-14T11:58:15Z</time>
      </trkpt>
      <trkpt lat="47.7859" lon="-3.55934">
        <ele>35</ele>
        <time>2018-07-14T11:58:16Z</time>
      </trkpt>
      <trkpt lat="47.78591" lon="-3.55931">
        <ele>35</ele>
        <time>2018-07-14T11:58:17Z</time>
      </trkpt>
      <trkpt lat="47.78593" lon="-3.55928">
        <ele>35</ele>
        <time>2018-07-14T11:58:18Z</time>
      </trkpt>
      <trkpt lat="47.78595" lon="-3.55926">
        <ele>35</ele>
        <time>2018-07-14T11:58:19Z</time>
      </trkpt>
      <trkpt lat="47.78596" lon="-3.55924">
        <ele>35</ele>
        <time>2018-07-14T11:58:20Z</time>
      </trkpt>
      <trkpt lat="47.78597" lon="-3.55921">
        <ele>35</ele>
        <time>2018-07-14T11:58:21Z</time>
      </trkpt>
      <trkpt lat="47.78597" lon="-3.55918">
        <ele>35</ele>
        <time>2018-07-14T11:58:22Z</time>
      </trkpt>
      <trkpt lat="47.78598" lon="-3.55914">
        <ele>35</ele>
        <time>2018-07-14T11:58:23Z</time>
      </trkpt>
      <trkpt lat="47.78597" lon="-3.55911">
        <ele>35</ele>
        <time>2018-07-14T11:58:24Z</time>
      </trkpt>
      <trkpt lat="47.78597" lon="-3.55907">
        <ele>35</ele>
        <time>2018-07-14T11:58:25Z</time>
      </trkpt>
      <trkpt lat="47.78597" lon="-3.55903">
        <ele>34</ele>
        <time>2018-07-14T11:58:26Z</time>
      </trkpt>
      <trkpt lat="47.78597" lon="-3.559">
        <ele>34</ele>
        <time>2018-07-14T11:58:27Z</time>
      </trkpt>
      <trkpt lat="47.78597" lon="-3.55896">
        <ele>34</ele>
        <time>2018-07-14T11:58:28Z</time>
      </trkpt>
      <trkpt lat="47.78597" lon="-3.55893">
        <ele>34</ele>
        <time>2018-07-14T11:58:29Z</time>
      </trkpt>
      <trkpt lat="47.78596" lon="-3.55888">
        <ele>34</ele>
        <time>2018-07-14T11:58:30Z</time>
      </trkpt>
      <trkpt lat="47.78596" lon="-3.55884">
        <ele>34</ele>
        <time>2018-07-14T11:58:31Z</time>
      </trkpt>
      <trkpt lat="47.78597" lon="-3.5588">
        <ele>34</ele>
        <time>2018-07-14T11:58:32Z</time>
      </trkpt>
      <trkpt lat="47.78597" lon="-3.55875">
        <ele>34</ele>
        <time>2018-07-14T11:58:33Z</time>
      </trkpt>
      <trkpt lat="47.78597" lon="-3.5587">
        <ele>34</ele>
        <time>2018-07-14T11:58:34Z</time>
      </trkpt>
      <trkpt lat="47.78598" lon="-3.55866">
        <ele>34</ele>
        <time>2018-07-14T11:58:35Z</time>
      </trkpt>
      <trkpt lat="47.78599" lon="-3.55861">
        <ele>33</ele>
        <time>2018-07-14T11:58:36Z</time>
      </trkpt>
      <trkpt lat="47.786" lon="-3.55856">
        <ele>33</ele>
        <time>2018-07-14T11:58:37Z</time>
      </trkpt>
      <trkpt lat="47.78601" lon="-3.55851">
        <ele>33</ele>
        <time>2018-07-14T11:58:38Z</time>
      </trkpt>
      <trkpt lat="47.78602" lon="-3.55846">
        <ele>33</ele>
        <time>2018-07-14T11:58:39Z</time>
      </trkpt>
      <trkpt lat="47.78604" lon="-3.55841">
        <ele>33</ele>
        <time>2018-07-14T11:58:40Z</time>
      </trkpt>
      <trkpt lat="47.78605" lon="-3.55837">
        <ele>33</ele>
        <time>2018-07-14T11:58:41Z</time>
      </trkpt>
      <trkpt lat="47.78607" lon="-3.55833">
        <ele>33</ele>
        <time>2018-07-14T11:58:42Z</time>
      </trkpt>
      <trkpt lat="47.7861" lon="-3.55829">
        <ele>33</ele>
        <time>2018-07-14T11:58:43Z</time>
      </trkpt>
      <trkpt lat="47.78612" lon="-3.55826">
        <ele>33</ele>
        <time>2018-07-14T11:58:44Z</time>
      </trkpt>
      <trkpt lat="47.78614" lon="-3.55823">
        <ele>33</ele>
        <time>2018-07-14T11:58:45Z</time>
      </trkpt>
      <trkpt lat="47.78616" lon="-3.5582">
        <ele>33</ele>
        <time>2018-07-14T11:58:46Z</time>
      </trkpt>
      <trkpt lat="47.78616" lon="-3.55817">
        <ele>33</ele>
        <time>2018-07-14T11:58:47Z</time>
      </trkpt>
      <trkpt lat="47.78616" lon="-3.55817">
        <ele>32</ele>
        <time>2018-07-14T11:58:50Z</time>
      </trkpt>
      <trkpt lat="47.78616" lon="-3.55817">
        <ele>32</ele>
        <time>2018-07-14T11:58:51Z</time>
      </trkpt>
      <trkpt lat="47.78623" lon="-3.55802">
        <ele>33</ele>
        <time>2018-07-14T11:58:52Z</time>
      </trkpt>
      <trkpt lat="47.78625" lon="-3.55798">
        <ele>33</ele>
        <time>2018-07-14T11:58:53Z</time>
      </trkpt>
      <trkpt lat="47.78627" lon="-3.55793">
        <ele>33</ele>
        <time>2018-07-14T11:58:54Z</time>
      </trkpt>
      <trkpt lat="47.78628" lon="-3.55788">
        <ele>33</ele>
        <time>2018-07-14T11:58:55Z</time>
      </trkpt>
      <trkpt lat="47.78629" lon="-3.55784">
        <ele>33</ele>
        <time>2018-07-14T11:58:56Z</time>
      </trkpt>
      <trkpt lat="47.7863" lon="-3.5578">
        <ele>32</ele>
        <time>2018-07-14T11:58:57Z</time>
      </trkpt>
      <trkpt lat="47.78631" lon="-3.55775">
        <ele>32</ele>
        <time>2018-07-14T11:58:58Z</time>
      </trkpt>
      <trkpt lat="47.78633" lon="-3.55771">
        <ele>33</ele>
        <time>2018-07-14T11:58:59Z</time>
      </trkpt>
      <trkpt lat="47.78634" lon="-3.55767">
        <ele>32</ele>
        <time>2018-07-14T11:59:00Z</time>
      </trkpt>
      <trkpt lat="47.78635" lon="-3.55764">
        <ele>32</ele>
        <time>2018-07-14T11:59:01Z</time>
      </trkpt>
      <trkpt lat="47.78637" lon="-3.5576">
        <ele>32</ele>
        <time>2018-07-14T11:59:02Z</time>
      </trkpt>
      <trkpt lat="47.78638" lon="-3.55755">
        <ele>31</ele>
        <time>2018-07-14T11:59:03Z</time>
      </trkpt>
      <trkpt lat="47.78639" lon="-3.55749">
        <ele>30</ele>
        <time>2018-07-14T11:59:04Z</time>
      </trkpt>
      <trkpt lat="47.78641" lon="-3.55745">
        <ele>29</ele>
        <time>2018-07-14T11:59:05Z</time>
      </trkpt>
      <trkpt lat="47.78641" lon="-3.55741">
        <ele>28</ele>
        <time>2018-07-14T11:59:06Z</time>
      </trkpt>
      <trkpt lat="47.78642" lon="-3.55736">
        <ele>27</ele>
        <time>2018-07-14T11:59:07Z</time>
      </trkpt>
      <trkpt lat="47.78642" lon="-3.55732">
        <ele>26</ele>
        <time>2018-07-14T11:59:08Z</time>
      </trkpt>
      <trkpt lat="47.78642" lon="-3.55728">
        <ele>26</ele>
        <time>2018-07-14T11:59:09Z</time>
      </trkpt>
      <trkpt lat="47.78642" lon="-3.55723">
        <ele>25</ele>
        <time>2018-07-14T11:59:10Z</time>
      </trkpt>
      <trkpt lat="47.78642" lon="-3.55718">
        <ele>25</ele>
        <time>2018-07-14T11:59:11Z</time>
      </trkpt>
      <trkpt lat="47.78642" lon="-3.55712">
        <ele>25</ele>
        <time>2018-07-14T11:59:12Z</time>
      </trkpt>
      <trkpt lat="47.78642" lon="-3.55706">
        <ele>25</ele>
        <time>2018-07-14T11:59:13Z</time>
      </trkpt>
      <trkpt lat="47.78643" lon="-3.557">
        <ele>25</ele>
        <time>2018-07-14T11:59:14Z</time>
      </trkpt>
      <trkpt lat="47.78643" lon="-3.55694">
        <ele>25</ele>
        <time>2018-07-14T11:59:15Z</time>
      </trkpt>
      <trkpt lat="47.78644" lon="-3.55688">
        <ele>25</ele>
        <time>2018-07-14T11:59:16Z</time>
      </trkpt>
      <trkpt lat="47.78645" lon="-3.55682">
        <ele>26</ele>
        <time>2018-07-14T11:59:17Z</time>
      </trkpt>
      <trkpt lat="47.78646" lon="-3.55676">
        <ele>26</ele>
        <time>2018-07-14T11:59:18Z</time>
      </trkpt>
      <trkpt lat="47.78647" lon="-3.5567">
        <ele>26</ele>
        <time>2018-07-14T11:59:19Z</time>
      </trkpt>
      <trkpt lat="47.78648" lon="-3.55664">
        <ele>27</ele>
        <time>2018-07-14T11:59:20Z</time>
      </trkpt>
      <trkpt lat="47.78648" lon="-3.55659">
        <ele>28</ele>
        <time>2018-07-14T11:59:21Z</time>
      </trkpt>
      <trkpt lat="47.78649" lon="-3.55654">
        <ele>28</ele>
        <time>2018-07-14T11:59:22Z</time>
      </trkpt>
      <trkpt lat="47.78649" lon="-3.55648">
        <ele>29</ele>
        <time>2018-07-14T11:59:23Z</time>
      </trkpt>
      <trkpt lat="47.7865" lon="-3.55643">
        <ele>29</ele>
        <time>2018-07-14T11:59:24Z</time>
      </trkpt>
      <trkpt lat="47.78651" lon="-3.55637">
        <ele>29</ele>
        <time>2018-07-14T11:59:25Z</time>
      </trkpt>
      <trkpt lat="47.78651" lon="-3.55631">
        <ele>30</ele>
        <time>2018-07-14T11:59:26Z</time>
      </trkpt>
      <trkpt lat="47.78652" lon="-3.55625">
        <ele>30</ele>
        <time>2018-07-14T11:59:27Z</time>
      </trkpt>
      <trkpt lat="47.78653" lon="-3.55619">
        <ele>30</ele>
        <time>2018-07-14T11:59:28Z</time>
      </trkpt>
      <trkpt lat="47.78655" lon="-3.55613">
        <ele>31</ele>
        <time>2018-07-14T11:59:29Z</time>
      </trkpt>
      <trkpt lat="47.78656" lon="-3.55607">
        <ele>31</ele>
        <time>2018-07-14T11:59:30Z</time>
      </trkpt>
      <trkpt lat="47.78657" lon="-3.55603">
        <ele>31</ele>
        <time>2018-07-14T11:59:31Z</time>
      </trkpt>
      <trkpt lat="47.78659" lon="-3.55597">
        <ele>32</ele>
        <time>2018-07-14T11:59:32Z</time>
      </trkpt>
      <trkpt lat="47.78662" lon="-3.55593">
        <ele>32</ele>
        <time>2018-07-14T11:59:33Z</time>
      </trkpt>
      <trkpt lat="47.78665" lon="-3.55589">
        <ele>32</ele>
        <time>2018-07-14T11:59:34Z</time>
      </trkpt>
      <trkpt lat="47.78669" lon="-3.55586">
        <ele>32</ele>
        <time>2018-07-14T11:59:35Z</time>
      </trkpt>
      <trkpt lat="47.78673" lon="-3.55582">
        <ele>32</ele>
        <time>2018-07-14T11:59:36Z</time>
      </trkpt>
      <trkpt lat="47.78677" lon="-3.5558">
        <ele>32</ele>
        <time>2018-07-14T11:59:37Z</time>
      </trkpt>
      <trkpt lat="47.7868" lon="-3.55576">
        <ele>32</ele>
        <time>2018-07-14T11:59:38Z</time>
      </trkpt>
      <trkpt lat="47.78683" lon="-3.55573">
        <ele>32</ele>
        <time>2018-07-14T11:59:39Z</time>
      </trkpt>
      <trkpt lat="47.78688" lon="-3.55569">
        <ele>32</ele>
        <time>2018-07-14T11:59:40Z</time>
      </trkpt>
      <trkpt lat="47.78692" lon="-3.55564">
        <ele>32</ele>
        <time>2018-07-14T11:59:41Z</time>
      </trkpt>
      <trkpt lat="47.78696" lon="-3.5556">
        <ele>32</ele>
        <time>2018-07-14T11:59:42Z</time>
      </trkpt>
      <trkpt lat="47.78701" lon="-3.55556">
        <ele>32</ele>
        <time>2018-07-14T11:59:43Z</time>
      </trkpt>
      <trkpt lat="47.78706" lon="-3.55551">
        <ele>31</ele>
        <time>2018-07-14T11:59:44Z</time>
      </trkpt>
      <trkpt lat="47.78711" lon="-3.55547">
        <ele>31</ele>
        <time>2018-07-14T11:59:45Z</time>
      </trkpt>
      <trkpt lat="47.78715" lon="-3.55542">
        <ele>31</ele>
        <time>2018-07-14T11:59:46Z</time>
      </trkpt>
      <trkpt lat="47.78719" lon="-3.55538">
        <ele>30</ele>
        <time>2018-07-14T11:59:47Z</time>
      </trkpt>
      <trkpt lat="47.78723" lon="-3.55534">
        <ele>30</ele>
        <time>2018-07-14T11:59:48Z</time>
      </trkpt>
      <trkpt lat="47.78726" lon="-3.55531">
        <ele>30</ele>
        <time>2018-07-14T11:59:49Z</time>
      </trkpt>
      <trkpt lat="47.78729" lon="-3.55528">
        <ele>30</ele>
        <time>2018-07-14T11:59:50Z</time>
      </trkpt>
      <trkpt lat="47.78732" lon="-3.55525">
        <ele>30</ele>
        <time>2018-07-14T11:59:51Z</time>
      </trkpt>
      <trkpt lat="47.78735" lon="-3.55521">
        <ele>29</ele>
        <time>2018-07-14T11:59:52Z</time>
      </trkpt>
      <trkpt lat="47.78738" lon="-3.55517">
        <ele>29</ele>
        <time>2018-07-14T11:59:53Z</time>
      </trkpt>
      <trkpt lat="47.7874" lon="-3.55514">
        <ele>29</ele>
        <time>2018-07-14T11:59:54Z</time>
      </trkpt>
      <trkpt lat="47.78743" lon="-3.55511">
        <ele>29</ele>
        <time>2018-07-14T11:59:55Z</time>
      </trkpt>
      <trkpt lat="47.78746" lon="-3.55507">
        <ele>29</ele>
        <time>2018-07-14T11:59:56Z</time>
      </trkpt>
      <trkpt lat="47.7875" lon="-3.55502">
        <ele>29</ele>
        <time>2018-07-14T11:59:57Z</time>
      </trkpt>
      <trkpt lat="47.78753" lon="-3.55497">
        <ele>29</ele>
        <time>2018-07-14T11:59:58Z</time>
      </trkpt>
      <trkpt lat="47.78756" lon="-3.55492">
        <ele>29</ele>
        <time>2018-07-14T11:59:59Z</time>
      </trkpt>
      <trkpt lat="47.78758" lon="-3.55487">
        <ele>28</ele>
        <time>2018-07-14T12:00:00Z</time>
      </trkpt>
      <trkpt lat="47.78761" lon="-3.55482">
        <ele>28</ele>
        <time>2018-07-14T12:00:01Z</time>
      </trkpt>
      <trkpt lat="47.78764" lon="-3.55477">
        <ele>28</ele>
        <time>2018-07-14T12:00:02Z</time>
      </trkpt>
      <trkpt lat="47.78766" lon="-3.55473">
        <ele>28</ele>
        <time>2018-07-14T12:00:03Z</time>
      </trkpt>
      <trkpt lat="47.78769" lon="-3.55469">
        <ele>28</ele>
        <time>2018-07-14T12:00:04Z</time>
      </trkpt>
      <trkpt lat="47.78772" lon="-3.55465">
        <ele>28</ele>
        <time>2018-07-14T12:00:05Z</time>
      </trkpt>
      <trkpt lat="47.78775" lon="-3.55461">
        <ele>28</ele>
        <time>2018-07-14T12:00:06Z</time>
      </trkpt>
      <trkpt lat="47.78778" lon="-3.55456">
        <ele>28</ele>
        <time>2018-07-14T12:00:07Z</time>
      </trkpt>
      <trkpt lat="47.78781" lon="-3.55452">
        <ele>28</ele>
        <time>2018-07-14T12:00:08Z</time>
      </trkpt>
      <trkpt lat="47.78785" lon="-3.55447">
        <ele>28</ele>
        <time>2018-07-14T12:00:09Z</time>
      </trkpt>
      <trkpt lat="47.78788" lon="-3.55443">
        <ele>27</ele>
        <time>2018-07-14T12:00:10Z</time>
      </trkpt>
      <trkpt lat="47.78792" lon="-3.55439">
        <ele>27</ele>
        <time>2018-07-14T12:00:11Z</time>
      </trkpt>
      <trkpt lat="47.78795" lon="-3.55436">
        <ele>27</ele>
        <time>2018-07-14T12:00:12Z</time>
      </trkpt>
      <trkpt lat="47.78798" lon="-3.55433">
        <ele>27</ele>
        <time>2018-07-14T12:00:13Z</time>
      </trkpt>
      <trkpt lat="47.78801" lon="-3.5543">
        <ele>27</ele>
        <time>2018-07-14T12:00:14Z</time>
      </trkpt>
      <trkpt lat="47.78803" lon="-3.55428">
        <ele>27</ele>
        <time>2018-07-14T12:00:15Z</time>
      </trkpt>
      <trkpt lat="47.78805" lon="-3.55426">
        <ele>27</ele>
        <time>2018-07-14T12:00:16Z</time>
      </trkpt>
      <trkpt lat="47.78807" lon="-3.55424">
        <ele>26</ele>
        <time>2018-07-14T12:00:17Z</time>
      </trkpt>
      <trkpt lat="47.7881" lon="-3.55421">
        <ele>26</ele>
        <time>2018-07-14T12:00:18Z</time>
      </trkpt>
      <trkpt lat="47.78813" lon="-3.55418">
        <ele>26</ele>
        <time>2018-07-14T12:00:19Z</time>
      </trkpt>
      <trkpt lat="47.78816" lon="-3.55413">
        <ele>26</ele>
        <time>2018-07-14T12:00:20Z</time>
      </trkpt>
      <trkpt lat="47.78818" lon="-3.55407">
        <ele>25</ele>
        <time>2018-07-14T12:00:21Z</time>
      </trkpt>
      <trkpt lat="47.78821" lon="-3.554">
        <ele>25</ele>
        <time>2018-07-14T12:00:22Z</time>
      </trkpt>
      <trkpt lat="47.78824" lon="-3.55392">
        <ele>25</ele>
        <time>2018-07-14T12:00:23Z</time>
      </trkpt>
      <trkpt lat="47.78828" lon="-3.55384">
        <ele>24</ele>
        <time>2018-07-14T12:00:24Z</time>
      </trkpt>
      <trkpt lat="47.78832" lon="-3.55376">
        <ele>24</ele>
        <time>2018-07-14T12:00:25Z</time>
      </trkpt>
      <trkpt lat="47.78836" lon="-3.55367">
        <ele>23</ele>
        <time>2018-07-14T12:00:26Z</time>
      </trkpt>
      <trkpt lat="47.7884" lon="-3.55357">
        <ele>22</ele>
        <time>2018-07-14T12:00:27Z</time>
      </trkpt>
      <trkpt lat="47.78845" lon="-3.55348">
        <ele>22</ele>
        <time>2018-07-14T12:00:28Z</time>
      </trkpt>
      <trkpt lat="47.7885" lon="-3.55337">
        <ele>21</ele>
        <time>2018-07-14T12:00:29Z</time>
      </trkpt>
      <trkpt lat="47.78855" lon="-3.55327">
        <ele>21</ele>
        <time>2018-07-14T12:00:30Z</time>
      </trkpt>
      <trkpt lat="47.78861" lon="-3.55315">
        <ele>21</ele>
        <time>2018-07-14T12:00:31Z</time>
      </trkpt>
      <trkpt lat="47.78866" lon="-3.55304">
        <ele>20</ele>
        <time>2018-07-14T12:00:32Z</time>
      </trkpt>
      <trkpt lat="47.78872" lon="-3.55291">
        <ele>20</ele>
        <time>2018-07-14T12:00:33Z</time>
      </trkpt>
      <trkpt lat="47.78878" lon="-3.55279">
        <ele>20</ele>
        <time>2018-07-14T12:00:34Z</time>
      </trkpt>
      <trkpt lat="47.78884" lon="-3.55268">
        <ele>19</ele>
        <time>2018-07-14T12:00:35Z</time>
      </trkpt>
      <trkpt lat="47.78889" lon="-3.55256">
        <ele>19</ele>
        <time>2018-07-14T12:00:36Z</time>
      </trkpt>
      <trkpt lat="47.78894" lon="-3.55245">
        <ele>19</ele>
        <time>2018-07-14T12:00:37Z</time>
      </trkpt>
      <trkpt lat="47.78898" lon="-3.55234">
        <ele>19</ele>
        <time>2018-07-14T12:00:38Z</time>
      </trkpt>
      <trkpt lat="47.78902" lon="-3.55224">
        <ele>18</ele>
        <time>2018-07-14T12:00:39Z</time>
      </trkpt>
      <trkpt lat="47.78906" lon="-3.55215">
        <ele>18</ele>
        <time>2018-07-14T12:00:40Z</time>
      </trkpt>
      <trkpt lat="47.78909" lon="-3.55205">
        <ele>18</ele>
        <time>2018-07-14T12:00:41Z</time>
      </trkpt>
      <trkpt lat="47.78912" lon="-3.55196">
        <ele>18</ele>
        <time>2018-07-14T12:00:42Z</time>
      </trkpt>
      <trkpt lat="47.78915" lon="-3.55187">
        <ele>17</ele>
        <time>2018-07-14T12:00:43Z</time>
      </trkpt>
      <trkpt lat="47.78918" lon="-3.55179">
        <ele>17</ele>
        <time>2018-07-14T12:00:44Z</time>
      </trkpt>
      <trkpt lat="47.78921" lon="-3.5517">
        <ele>17</ele>
        <time>2018-07-14T12:00:45Z</time>
      </trkpt>
      <trkpt lat="47.78923" lon="-3.55162">
        <ele>17</ele>
        <time>2018-07-14T12:00:46Z</time>
      </trkpt>
      <trkpt lat="47.78926" lon="-3.55154">
        <ele>17</ele>
        <time>2018-07-14T12:00:47Z</time>
      </trkpt>
      <trkpt lat="47.78929" lon="-3.55146">
        <ele>17</ele>
        <time>2018-07-14T12:00:48Z</time>
      </trkpt>
      <trkpt lat="47.78932" lon="-3.55137">
        <ele>17</ele>
        <time>2018-07-14T12:00:49Z</time>
      </trkpt>
      <trkpt lat="47.78934" lon="-3.55129">
        <ele>17</ele>
        <time>2018-07-14T12:00:50Z</time>
      </trkpt>
      <trkpt lat="47.78937" lon="-3.55121">
        <ele>18</ele>
        <time>2018-07-14T12:00:51Z</time>
      </trkpt>
      <trkpt lat="47.7894" lon="-3.55113">
        <ele>18</ele>
        <time>2018-07-14T12:00:52Z</time>
      </trkpt>
      <trkpt lat="47.78942" lon="-3.55105">
        <ele>18</ele>
        <time>2018-07-14T12:00:53Z</time>
      </trkpt>
      <trkpt lat="47.78945" lon="-3.55097">
        <ele>18</ele>
        <time>2018-07-14T12:00:54Z</time>
      </trkpt>
      <trkpt lat="47.78947" lon="-3.55088">
        <ele>18</ele>
        <time>2018-07-14T12:00:55Z</time>
      </trkpt>
      <trkpt lat="47.78949" lon="-3.5508">
        <ele>18</ele>
        <time>2018-07-14T12:00:56Z</time>
      </trkpt>
      <trkpt lat="47.78951" lon="-3.55072">
        <ele>18</ele>
        <time>2018-07-14T12:00:57Z</time>
      </trkpt>
      <trkpt lat="47.78953" lon="-3.55063">
        <ele>18</ele>
        <time>2018-07-14T12:00:58Z</time>
      </trkpt>
      <trkpt lat="47.78955" lon="-3.55055">
        <ele>18</ele>
        <time>2018-07-14T12:00:59Z</time>
      </trkpt>
      <trkpt lat="47.78956" lon="-3.55046">
        <ele>17</ele>
        <time>2018-07-14T12:01:00Z</time>
      </trkpt>
      <trkpt lat="47.78956" lon="-3.55037">
        <ele>17</ele>
        <time>2018-07-14T12:01:01Z</time>
      </trkpt>
      <trkpt lat="47.78954" lon="-3.55029">
        <ele>16</ele>
        <time>2018-07-14T12:01:02Z</time>
      </trkpt>
      <trkpt lat="47.78952" lon="-3.5502">
        <ele>16</ele>
        <time>2018-07-14T12:01:03Z</time>
      </trkpt>
      <trkpt lat="47.78949" lon="-3.55013">
        <ele>16</ele>
        <time>2018-07-14T12:01:04Z</time>
      </trkpt>
      <trkpt lat="47.78946" lon="-3.55006">
        <ele>15</ele>
        <time>2018-07-14T12:01:05Z</time>
      </trkpt>
      <trkpt lat="47.78943" lon="-3.55">
        <ele>15</ele>
        <time>2018-07-14T12:01:06Z</time>
      </trkpt>
      <trkpt lat="47.78939" lon="-3.54994">
        <ele>15</ele>
        <time>2018-07-14T12:01:07Z</time>
      </trkpt>
      <trkpt lat="47.78936" lon="-3.54989">
        <ele>15</ele>
        <time>2018-07-14T12:01:08Z</time>
      </trkpt>
      <trkpt lat="47.78932" lon="-3.54984">
        <ele>14</ele>
        <time>2018-07-14T12:01:09Z</time>
      </trkpt>
      <trkpt lat="47.78928" lon="-3.5498">
        <ele>14</ele>
        <time>2018-07-14T12:01:10Z</time>
      </trkpt>
      <trkpt lat="47.78924" lon="-3.54977">
        <ele>14</ele>
        <time>2018-07-14T12:01:11Z</time>
      </trkpt>
      <trkpt lat="47.78921" lon="-3.54975">
        <ele>14</ele>
        <time>2018-07-14T12:01:12Z</time>
      </trkpt>
      <trkpt lat="47.78918" lon="-3.54972">
        <ele>14</ele>
        <time>2018-07-14T12:01:13Z</time>
      </trkpt>
      <trkpt lat="47.78918" lon="-3.5497">
        <ele>14</ele>
        <time>2018-07-14T12:01:14Z</time>
      </trkpt>
      <trkpt lat="47.78917" lon="-3.54968">
        <ele>14</ele>
        <time>2018-07-14T12:01:15Z</time>
      </trkpt>
      <trkpt lat="47.78918" lon="-3.54966">
        <ele>13</ele>
        <time>2018-07-14T12:01:16Z</time>
      </trkpt>
      <trkpt lat="47.78918" lon="-3.54963">
        <ele>13</ele>
        <time>2018-07-14T12:01:17Z</time>
      </trkpt>
      <trkpt lat="47.7892" lon="-3.54959">
        <ele>13</ele>
        <time>2018-07-14T12:01:18Z</time>
      </trkpt>
      <trkpt lat="47.78922" lon="-3.54954">
        <ele>13</ele>
        <time>2018-07-14T12:01:19Z</time>
      </trkpt>
      <trkpt lat="47.78924" lon="-3.5495">
        <ele>13</ele>
        <time>2018-07-14T12:01:20Z</time>
      </trkpt>
      <trkpt lat="47.78926" lon="-3.54945">
        <ele>13</ele>
        <time>2018-07-14T12:01:21Z</time>
      </trkpt>
      <trkpt lat="47.78927" lon="-3.54941">
        <ele>13</ele>
        <time>2018-07-14T12:01:22Z</time>
      </trkpt>
      <trkpt lat="47.78928" lon="-3.54939">
        <ele>13</ele>
        <time>2018-07-14T12:01:23Z</time>
      </trkpt>
      <trkpt lat="47.78929" lon="-3.54937">
        <ele>13</ele>
        <time>2018-07-14T12:01:24Z</time>
      </trkpt>
      <trkpt lat="47.78929" lon="-3.54936">
        <ele>13</ele>
        <time>2018-07-14T12:01:25Z</time>
      </trkpt>
      <trkpt lat="47.78929" lon="-3.54936">
        <ele>13</ele>
        <time>2018-07-14T12:01:26Z</time>
      </trkpt>
      <trkpt lat="47.78928" lon="-3.54934">
        <ele>13</ele>
        <time>2018-07-14T12:01:27Z</time>
      </trkpt>
      <trkpt lat="47.78928" lon="-3.54932">
        <ele>13</ele>
        <time>2018-07-14T12:01:28Z</time>
      </trkpt>
      <trkpt lat="47.78928" lon="-3.5493">
        <ele>12</ele>
        <time>2018-07-14T12:01:29Z</time>
      </trkpt>
      <trkpt lat="47.78928" lon="-3.54927">
        <ele>12</ele>
        <time>2018-07-14T12:01:30Z</time>
      </trkpt>
      <trkpt lat="47.78929" lon="-3.54924">
        <ele>12</ele>
        <time>2018-07-14T12:01:31Z</time>
      </trkpt>
      <trkpt lat="47.7893" lon="-3.5492">
        <ele>12</ele>
        <time>2018-07-14T12:01:32Z</time>
      </trkpt>
      <trkpt lat="47.78931" lon="-3.54916">
        <ele>12</ele>
        <time>2018-07-14T12:01:33Z</time>
      </trkpt>
      <trkpt lat="47.78932" lon="-3.54911">
        <ele>12</ele>
        <time>2018-07-14T12:01:34Z</time>
      </trkpt>
      <trkpt lat="47.78933" lon="-3.54906">
        <ele>12</ele>
        <time>2018-07-14T12:01:35Z</time>
      </trkpt>
      <trkpt lat="47.78934" lon="-3.549">
        <ele>12</ele>
        <time>2018-07-14T12:01:36Z</time>
      </trkpt>
      <trkpt lat="47.78936" lon="-3.54894">
        <ele>12</ele>
        <time>2018-07-14T12:01:37Z</time>
      </trkpt>
      <trkpt lat="47.78938" lon="-3.54887">
        <ele>12</ele>
        <time>2018-07-14T12:01:38Z</time>
      </trkpt>
      <trkpt lat="47.7894" lon="-3.54881">
        <ele>12</ele>
        <time>2018-07-14T12:01:39Z</time>
      </trkpt>
      <trkpt lat="47.78943" lon="-3.54876">
        <ele>12</ele>
        <time>2018-07-14T12:01:40Z</time>
      </trkpt>
      <trkpt lat="47.78946" lon="-3.54871">
        <ele>12</ele>
        <time>2018-07-14T12:01:41Z</time>
      </trkpt>
      <trkpt lat="47.78948" lon="-3.54866">
        <ele>13</ele>
        <time>2018-07-14T12:01:42Z</time>
      </trkpt>
      <trkpt lat="47.78951" lon="-3.54862">
        <ele>13</ele>
        <time>2018-07-14T12:01:43Z</time>
      </trkpt>
      <trkpt lat="47.78953" lon="-3.54858">
        <ele>13</ele>
        <time>2018-07-14T12:01:44Z</time>
      </trkpt>
      <trkpt lat="47.78956" lon="-3.54852">
        <ele>13</ele>
        <time>2018-07-14T12:01:45Z</time>
      </trkpt>
      <trkpt lat="47.78958" lon="-3.54846">
        <ele>13</ele>
        <time>2018-07-14T12:01:46Z</time>
      </trkpt>
      <trkpt lat="47.78961" lon="-3.54839">
        <ele>13</ele>
        <time>2018-07-14T12:01:47Z</time>
      </trkpt>
      <trkpt lat="47.78965" lon="-3.54833">
        <ele>13</ele>
        <time>2018-07-14T12:01:48Z</time>
      </trkpt>
      <trkpt lat="47.78969" lon="-3.54826">
        <ele>13</ele>
        <time>2018-07-14T12:01:49Z</time>
      </trkpt>
      <trkpt lat="47.78973" lon="-3.54821">
        <ele>13</ele>
        <time>2018-07-14T12:01:50Z</time>
      </trkpt>
      <trkpt lat="47.78977" lon="-3.54816">
        <ele>13</ele>
        <time>2018-07-14T12:01:51Z</time>
      </trkpt>
      <trkpt lat="47.78979" lon="-3.5481">
        <ele>13</ele>
        <time>2018-07-14T12:01:52Z</time>
      </trkpt>
      <trkpt lat="47.78981" lon="-3.54804">
        <ele>13</ele>
        <time>2018-07-14T12:01:53Z</time>
      </trkpt>
      <trkpt lat="47.78983" lon="-3.54798">
        <ele>13</ele>
        <time>2018-07-14T12:01:54Z</time>
      </trkpt>
      <trkpt lat="47.78986" lon="-3.54792">
        <ele>13</ele>
        <time>2018-07-14T12:01:55Z</time>
      </trkpt>
      <trkpt lat="47.78987" lon="-3.54786">
        <ele>13</ele>
        <time>2018-07-14T12:01:56Z</time>
      </trkpt>
      <trkpt lat="47.78989" lon="-3.5478">
        <ele>13</ele>
        <time>2018-07-14T12:01:57Z</time>
      </trkpt>
      <trkpt lat="47.7899" lon="-3.54773">
        <ele>13</ele>
        <time>2018-07-14T12:01:58Z</time>
      </trkpt>
      <trkpt lat="47.78992" lon="-3.54767">
        <ele>13</ele>
        <time>2018-07-14T12:01:59Z</time>
      </trkpt>
      <trkpt lat="47.78993" lon="-3.54762">
        <ele>14</ele>
        <time>2018-07-14T12:02:00Z</time>
      </trkpt>
      <trkpt lat="47.78992" lon="-3.54757">
        <ele>14</ele>
        <time>2018-07-14T12:02:01Z</time>
      </trkpt>
      <trkpt lat="47.78992" lon="-3.54753">
        <ele>14</ele>
        <time>2018-07-14T12:02:02Z</time>
      </trkpt>
      <trkpt lat="47.78992" lon="-3.54749">
        <ele>14</ele>
        <time>2018-07-14T12:02:03Z</time>
      </trkpt>
      <trkpt lat="47.78992" lon="-3.54745">
        <ele>14</ele>
        <time>2018-07-14T12:02:04Z</time>
      </trkpt>
      <trkpt lat="47.78992" lon="-3.54743">
        <ele>14</ele>
        <time>2018-07-14T12:02:05Z</time>
      </trkpt>
      <trkpt lat="47.78992" lon="-3.5474">
        <ele>14</ele>
        <time>2018-07-14T12:02:06Z</time>
      </trkpt>
      <trkpt lat="47.78992" lon="-3.54738">
        <ele>14</ele>
        <time>2018-07-14T12:02:07Z</time>
      </trkpt>
      <trkpt lat="47.78993" lon="-3.54735">
        <ele>15</ele>
        <time>2018-07-14T12:02:08Z</time>
      </trkpt>
      <trkpt lat="47.78993" lon="-3.54731">
        <ele>15</ele>
        <time>2018-07-14T12:02:09Z</time>
      </trkpt>
      <trkpt lat="47.78994" lon="-3.54727">
        <ele>15</ele>
        <time>2018-07-14T12:02:10Z</time>
      </trkpt>
      <trkpt lat="47.78994" lon="-3.54723">
        <ele>15</ele>
        <time>2018-07-14T12:02:11Z</time>
      </trkpt>
      <trkpt lat="47.78994" lon="-3.54719">
        <ele>16</ele>
        <time>2018-07-14T12:02:12Z</time>
      </trkpt>
      <trkpt lat="47.78994" lon="-3.54716">
        <ele>16</ele>
        <time>2018-07-14T12:02:13Z</time>
      </trkpt>
      <trkpt lat="47.78994" lon="-3.54713">
        <ele>16</ele>
        <time>2018-07-14T12:02:14Z</time>
      </trkpt>
      <trkpt lat="47.78994" lon="-3.5471">
        <ele>16</ele>
        <time>2018-07-14T12:02:15Z</time>
      </trkpt>
      <trkpt lat="47.78993" lon="-3.54707">
        <ele>16</ele>
        <time>2018-07-14T12:02:16Z</time>
      </trkpt>
      <trkpt lat="47.78993" lon="-3.54705">
        <ele>16</ele>
        <time>2018-07-14T12:02:17Z</time>
      </trkpt>
      <trkpt lat="47.78993" lon="-3.54703">
        <ele>16</ele>
        <time>2018-07-14T12:02:18Z</time>
      </trkpt>
      <trkpt lat="47.78992" lon="-3.54702">
        <ele>17</ele>
        <time>2018-07-14T12:02:19Z</time>
      </trkpt>
      <trkpt lat="47.78992" lon="-3.547">
        <ele>17</ele>
        <time>2018-07-14T12:02:20Z</time>
      </trkpt>
      <trkpt lat="47.78991" lon="-3.54697">
        <ele>17</ele>
        <time>2018-07-14T12:02:21Z</time>
      </trkpt>
      <trkpt lat="47.78991" lon="-3.54694">
        <ele>16</ele>
        <time>2018-07-14T12:02:22Z</time>
      </trkpt>
      <trkpt lat="47.78991" lon="-3.54691">
        <ele>16</ele>
        <time>2018-07-14T12:02:23Z</time>
      </trkpt>
      <trkpt lat="47.78991" lon="-3.54687">
        <ele>16</ele>
        <time>2018-07-14T12:02:24Z</time>
      </trkpt>
      <trkpt lat="47.78992" lon="-3.54684">
        <ele>16</ele>
        <time>2018-07-14T12:02:25Z</time>
      </trkpt>
      <trkpt lat="47.78993" lon="-3.54681">
        <ele>16</ele>
        <time>2018-07-14T12:02:26Z</time>
      </trkpt>
      <trkpt lat="47.78995" lon="-3.54677">
        <ele>16</ele>
        <time>2018-07-14T12:02:27Z</time>
      </trkpt>
      <trkpt lat="47.78997" lon="-3.54673">
        <ele>16</ele>
        <time>2018-07-14T12:02:28Z</time>
      </trkpt>
      <trkpt lat="47.78998" lon="-3.5467">
        <ele>16</ele>
        <time>2018-07-14T12:02:29Z</time>
      </trkpt>
      <trkpt lat="47.79" lon="-3.54668">
        <ele>16</ele>
        <time>2018-07-14T12:02:30Z</time>
      </trkpt>
      <trkpt lat="47.79002" lon="-3.54665">
        <ele>16</ele>
        <time>2018-07-14T12:02:31Z</time>
      </trkpt>
      <trkpt lat="47.79004" lon="-3.54663">
        <ele>16</ele>
        <time>2018-07-14T12:02:32Z</time>
      </trkpt>
      <trkpt lat="47.79006" lon="-3.54662">
        <ele>16</ele>
        <time>2018-07-14T12:02:33Z</time>
      </trkpt>
      <trkpt lat="47.79008" lon="-3.5466">
        <ele>16</ele>
        <time>2018-07-14T12:02:34Z</time>
      </trkpt>
      <trkpt lat="47.7901" lon="-3.54658">
        <ele>16</ele>
        <time>2018-07-14T12:02:35Z</time>
      </trkpt>
      <trkpt lat="47.79013" lon="-3.54655">
        <ele>16</ele>
        <time>2018-07-14T12:02:36Z</time>
      </trkpt>
      <trkpt lat="47.79015" lon="-3.5465">
        <ele>16</ele>
        <time>2018-07-14T12:02:37Z</time>
      </trkpt>
      <trkpt lat="47.79017" lon="-3.54644">
        <ele>16</ele>
        <time>2018-07-14T12:02:38Z</time>
      </trkpt>
      <trkpt lat="47.79019" lon="-3.54638">
        <ele>17</ele>
        <time>2018-07-14T12:02:39Z</time>
      </trkpt>
      <trkpt lat="47.7902" lon="-3.54634">
        <ele>17</ele>
        <time>2018-07-14T12:02:40Z</time>
      </trkpt>
      <trkpt lat="47.79022" lon="-3.54629">
        <ele>17</ele>
        <time>2018-07-14T12:02:41Z</time>
      </trkpt>
      <trkpt lat="47.79023" lon="-3.54625">
        <ele>17</ele>
        <time>2018-07-14T12:02:42Z</time>
      </trkpt>
      <trkpt lat="47.79025" lon="-3.54619">
        <ele>17</ele>
        <time>2018-07-14T12:02:43Z</time>
      </trkpt>
      <trkpt lat="47.79026" lon="-3.54613">
        <ele>17</ele>
        <time>2018-07-14T12:02:44Z</time>
      </trkpt>
      <trkpt lat="47.79029" lon="-3.54608">
        <ele>17</ele>
        <time>2018-07-14T12:02:45Z</time>
      </trkpt>
      <trkpt lat="47.79032" lon="-3.54604">
        <ele>17</ele>
        <time>2018-07-14T12:02:46Z</time>
      </trkpt>
      <trkpt lat="47.79035" lon="-3.54599">
        <ele>17</ele>
        <time>2018-07-14T12:02:47Z</time>
      </trkpt>
      <trkpt lat="47.79037" lon="-3.54595">
        <ele>17</ele>
        <time>2018-07-14T12:02:48Z</time>
      </trkpt>
      <trkpt lat="47.79039" lon="-3.5459">
        <ele>17</ele>
        <time>2018-07-14T12:02:49Z</time>
      </trkpt>
      <trkpt lat="47.79041" lon="-3.54585">
        <ele>17</ele>
        <time>2018-07-14T12:02:50Z</time>
      </trkpt>
      <trkpt lat="47.79043" lon="-3.54579">
        <ele>17</ele>
        <time>2018-07-14T12:02:51Z</time>
      </trkpt>
      <trkpt lat="47.79044" lon="-3.54574">
        <ele>18</ele>
        <time>2018-07-14T12:02:52Z</time>
      </trkpt>
      <trkpt lat="47.79045" lon="-3.54569">
        <ele>18</ele>
        <time>2018-07-14T12:02:53Z</time>
      </trkpt>
      <trkpt lat="47.79046" lon="-3.54563">
        <ele>18</ele>
        <time>2018-07-14T12:02:54Z</time>
      </trkpt>
      <trkpt lat="47.79046" lon="-3.54558">
        <ele>18</ele>
        <time>2018-07-14T12:02:55Z</time>
      </trkpt>
      <trkpt lat="47.79046" lon="-3.54553">
        <ele>18</ele>
        <time>2018-07-14T12:02:56Z</time>
      </trkpt>
      <trkpt lat="47.79046" lon="-3.54547">
        <ele>18</ele>
        <time>2018-07-14T12:02:57Z</time>
      </trkpt>
      <trkpt lat="47.79046" lon="-3.54543">
        <ele>18</ele>
        <time>2018-07-14T12:02:58Z</time>
      </trkpt>
      <trkpt lat="47.79045" lon="-3.54537">
        <ele>18</ele>
        <time>2018-07-14T12:02:59Z</time>
      </trkpt>
      <trkpt lat="47.79043" lon="-3.54531">
        <ele>18</ele>
        <time>2018-07-14T12:03:00Z</time>
      </trkpt>
      <trkpt lat="47.7904" lon="-3.54526">
        <ele>18</ele>
        <time>2018-07-14T12:03:01Z</time>
      </trkpt>
      <trkpt lat="47.79037" lon="-3.54521">
        <ele>18</ele>
        <time>2018-07-14T12:03:02Z</time>
      </trkpt>
      <trkpt lat="47.79034" lon="-3.54517">
        <ele>18</ele>
        <time>2018-07-14T12:03:03Z</time>
      </trkpt>
      <trkpt lat="47.7903" lon="-3.54513">
        <ele>18</ele>
        <time>2018-07-14T12:03:04Z</time>
      </trkpt>
      <trkpt lat="47.79026" lon="-3.54508">
        <ele>18</ele>
        <time>2018-07-14T12:03:05Z</time>
      </trkpt>
      <trkpt lat="47.79023" lon="-3.54504">
        <ele>17</ele>
        <time>2018-07-14T12:03:06Z</time>
      </trkpt>
      <trkpt lat="47.79019" lon="-3.54501">
        <ele>17</ele>
        <time>2018-07-14T12:03:07Z</time>
      </trkpt>
      <trkpt lat="47.79016" lon="-3.54498">
        <ele>17</ele>
        <time>2018-07-14T12:03:08Z</time>
      </trkpt>
      <trkpt lat="47.79013" lon="-3.54494">
        <ele>17</ele>
        <time>2018-07-14T12:03:09Z</time>
      </trkpt>
      <trkpt lat="47.7901" lon="-3.54491">
        <ele>17</ele>
        <time>2018-07-14T12:03:10Z</time>
      </trkpt>
      <trkpt lat="47.79009" lon="-3.54488">
        <ele>17</ele>
        <time>2018-07-14T12:03:11Z</time>
      </trkpt>
      <trkpt lat="47.79007" lon="-3.54486">
        <ele>17</ele>
        <time>2018-07-14T12:03:12Z</time>
      </trkpt>
      <trkpt lat="47.79006" lon="-3.54485">
        <ele>17</ele>
        <time>2018-07-14T12:03:13Z</time>
      </trkpt>
      <trkpt lat="47.79006" lon="-3.54484">
        <ele>16</ele>
        <time>2018-07-14T12:03:14Z</time>
      </trkpt>
      <trkpt lat="47.79005" lon="-3.54483">
        <ele>16</ele>
        <time>2018-07-14T12:03:15Z</time>
      </trkpt>
      <trkpt lat="47.79005" lon="-3.54482">
        <ele>16</ele>
        <time>2018-07-14T12:03:16Z</time>
      </trkpt>
      <trkpt lat="47.79004" lon="-3.54481">
        <ele>16</ele>
        <time>2018-07-14T12:03:17Z</time>
      </trkpt>
      <trkpt lat="47.79004" lon="-3.54481">
        <ele>16</ele>
        <time>2018-07-14T12:03:18Z</time>
      </trkpt>
      <trkpt lat="47.79003" lon="-3.5448">
        <ele>16</ele>
        <time>2018-07-14T12:03:19Z</time>
      </trkpt>
      <trkpt lat="47.79003" lon="-3.54479">
        <ele>16</ele>
        <time>2018-07-14T12:03:20Z</time>
      </trkpt>
      <trkpt lat="47.79002" lon="-3.54478">
        <ele>15</ele>
        <time>2018-07-14T12:03:21Z</time>
      </trkpt>
      <trkpt lat="47.79002" lon="-3.54477">
        <ele>15</ele>
        <time>2018-07-14T12:03:22Z</time>
      </trkpt>
      <trkpt lat="47.79001" lon="-3.54476">
        <ele>15</ele>
        <time>2018-07-14T12:03:23Z</time>
      </trkpt>
      <trkpt lat="47.79002" lon="-3.54475">
        <ele>15</ele>
        <time>2018-07-14T12:03:24Z</time>
      </trkpt>
      <trkpt lat="47.79002" lon="-3.54475">
        <ele>15</ele>
        <time>2018-07-14T12:03:25Z</time>
      </trkpt>
      <trkpt lat="47.78998" lon="-3.54474">
        <ele>15</ele>
        <time>2018-07-14T12:03:26Z</time>
      </trkpt>
      <trkpt lat="47.78997" lon="-3.54474">
        <ele>15</ele>
        <time>2018-07-14T12:03:27Z</time>
      </trkpt>
      <trkpt lat="47.78997" lon="-3.54473">
        <ele>15</ele>
        <time>2018-07-14T12:03:28Z</time>
      </trkpt>
      <trkpt lat="47.78997" lon="-3.54472">
        <ele>15</ele>
        <time>2018-07-14T12:03:29Z</time>
      </trkpt>
      <trkpt lat="47.78996" lon="-3.54472">
        <ele>16</ele>
        <time>2018-07-14T12:03:30Z</time>
      </trkpt>
      <trkpt lat="47.78996" lon="-3.54471">
        <ele>16</ele>
        <time>2018-07-14T12:03:31Z</time>
      </trkpt>
      <trkpt lat="47.78994" lon="-3.54471">
        <ele>16</ele>
        <time>2018-07-14T12:03:32Z</time>
      </trkpt>
      <trkpt lat="47.78994" lon="-3.54471">
        <ele>16</ele>
        <time>2018-07-14T12:03:33Z</time>
      </trkpt>
      <trkpt lat="47.78993" lon="-3.54471">
        <ele>16</ele>
        <time>2018-07-14T12:03:34Z</time>
      </trkpt>
      <trkpt lat="47.78993" lon="-3.54472">
        <ele>16</ele>
        <time>2018-07-14T12:03:35Z</time>
      </trkpt>
      <trkpt lat="47.78992" lon="-3.54472">
        <ele>16</ele>
        <time>2018-07-14T12:03:36Z</time>
      </trkpt>
      <trkpt lat="47.78991" lon="-3.54473">
        <ele>16</ele>
        <time>2018-07-14T12:03:37Z</time>
      </trkpt>
      <trkpt lat="47.7899" lon="-3.54474">
        <ele>16</ele>
        <time>2018-07-14T12:03:38Z</time>
      </trkpt>
      <trkpt lat="47.7899" lon="-3.54474">
        <ele>16</ele>
        <time>2018-07-14T12:03:39Z</time>
      </trkpt>
      <trkpt lat="47.78989" lon="-3.54474">
        <ele>17</ele>
        <time>2018-07-14T12:03:40Z</time>
      </trkpt>
      <trkpt lat="47.78989" lon="-3.54474">
        <ele>17</ele>
        <time>2018-07-14T12:03:41Z</time>
      </trkpt>
      <trkpt lat="47.78988" lon="-3.54473">
        <ele>16</ele>
        <time>2018-07-14T12:03:42Z</time>
      </trkpt>
      <trkpt lat="47.78987" lon="-3.54473">
        <ele>16</ele>
        <time>2018-07-14T12:03:43Z</time>
      </trkpt>
      <trkpt lat="47.78987" lon="-3.54473">
        <ele>16</ele>
        <time>2018-07-14T12:03:44Z</time>
      </trkpt>
      <trkpt lat="47.78986" lon="-3.54472">
        <ele>16</ele>
        <time>2018-07-14T12:03:45Z</time>
      </trkpt>
      <trkpt lat="47.78985" lon="-3.54471">
        <ele>16</ele>
        <time>2018-07-14T12:03:46Z</time>
      </trkpt>
      <trkpt lat="47.78984" lon="-3.54471">
        <ele>16</ele>
        <time>2018-07-14T12:03:47Z</time>
      </trkpt>
      <trkpt lat="47.78984" lon="-3.5447">
        <ele>16</ele>
        <time>2018-07-14T12:03:48Z</time>
      </trkpt>
      <trkpt lat="47.78983" lon="-3.5447">
        <ele>16</ele>
        <time>2018-07-14T12:03:49Z</time>
      </trkpt>
      <trkpt lat="47.78982" lon="-3.5447">
        <ele>16</ele>
        <time>2018-07-14T12:03:50Z</time>
      </trkpt>
      <trkpt lat="47.78981" lon="-3.5447">
        <ele>15</ele>
        <time>2018-07-14T12:03:51Z</time>
      </trkpt>
      <trkpt lat="47.78981" lon="-3.5447">
        <ele>15</ele>
        <time>2018-07-14T12:03:52Z</time>
      </trkpt>
      <trkpt lat="47.7898" lon="-3.5447">
        <ele>15</ele>
        <time>2018-07-14T12:03:53Z</time>
      </trkpt>
      <trkpt lat="47.7898" lon="-3.54469">
        <ele>15</ele>
        <time>2018-07-14T12:03:54Z</time>
      </trkpt>
      <trkpt lat="47.78978" lon="-3.54468">
        <ele>15</ele>
        <time>2018-07-14T12:03:55Z</time>
      </trkpt>
      <trkpt lat="47.78977" lon="-3.54467">
        <ele>15</ele>
        <time>2018-07-14T12:03:56Z</time>
      </trkpt>
      <trkpt lat="47.78976" lon="-3.54465">
        <ele>15</ele>
        <time>2018-07-14T12:03:57Z</time>
      </trkpt>
      <trkpt lat="47.78974" lon="-3.54464">
        <ele>15</ele>
        <time>2018-07-14T12:03:58Z</time>
      </trkpt>
      <trkpt lat="47.78972" lon="-3.54461">
        <ele>14</ele>
        <time>2018-07-14T12:03:59Z</time>
      </trkpt>
      <trkpt lat="47.7897" lon="-3.54459">
        <ele>14</ele>
        <time>2018-07-14T12:04:00Z</time>
      </trkpt>
      <trkpt lat="47.78968" lon="-3.54457">
        <ele>14</ele>
        <time>2018-07-14T12:04:01Z</time>
      </trkpt>
      <trkpt lat="47.78966" lon="-3.54454">
        <ele>14</ele>
        <time>2018-07-14T12:04:02Z</time>
      </trkpt>
      <trkpt lat="47.78964" lon="-3.54451">
        <ele>14</ele>
        <time>2018-07-14T12:04:03Z</time>
      </trkpt>
      <trkpt lat="47.78962" lon="-3.54449">
        <ele>14</ele>
        <time>2018-07-14T12:04:04Z</time>
      </trkpt>
      <trkpt lat="47.78959" lon="-3.54447">
        <ele>14</ele>
        <time>2018-07-14T12:04:05Z</time>
      </trkpt>
      <trkpt lat="47.78957" lon="-3.54444">
        <ele>14</ele>
        <time>2018-07-14T12:04:06Z</time>
      </trkpt>
      <trkpt lat="47.78955" lon="-3.54441">
        <ele>14</ele>
        <time>2018-07-14T12:04:07Z</time>
      </trkpt>
      <trkpt lat="47.78954" lon="-3.54438">
        <ele>14</ele>
        <time>2018-07-14T12:04:08Z</time>
      </trkpt>
      <trkpt lat="47.78952" lon="-3.54434">
        <ele>14</ele>
        <time>2018-07-14T12:04:09Z</time>
      </trkpt>
      <trkpt lat="47.78951" lon="-3.54431">
        <ele>14</ele>
        <time>2018-07-14T12:04:10Z</time>
      </trkpt>
      <trkpt lat="47.7895" lon="-3.54429">
        <ele>14</ele>
        <time>2018-07-14T12:04:11Z</time>
      </trkpt>
      <trkpt lat="47.78948" lon="-3.54427">
        <ele>14</ele>
        <time>2018-07-14T12:04:12Z</time>
      </trkpt>
      <trkpt lat="47.78946" lon="-3.54425">
        <ele>14</ele>
        <time>2018-07-14T12:04:13Z</time>
      </trkpt>
      <trkpt lat="47.78944" lon="-3.54424">
        <ele>14</ele>
        <time>2018-07-14T12:04:14Z</time>
      </trkpt>
      <trkpt lat="47.78942" lon="-3.54422">
        <ele>14</ele>
        <time>2018-07-14T12:04:15Z</time>
      </trkpt>
      <trkpt lat="47.7894" lon="-3.54419">
        <ele>14</ele>
        <time>2018-07-14T12:04:16Z</time>
      </trkpt>
      <trkpt lat="47.78938" lon="-3.54417">
        <ele>15</ele>
        <time>2018-07-14T12:04:17Z</time>
      </trkpt>
      <trkpt lat="47.78936" lon="-3.54414">
        <ele>15</ele>
        <time>2018-07-14T12:04:18Z</time>
      </trkpt>
      <trkpt lat="47.78935" lon="-3.54411">
        <ele>15</ele>
        <time>2018-07-14T12:04:19Z</time>
      </trkpt>
      <trkpt lat="47.78934" lon="-3.54408">
        <ele>15</ele>
        <time>2018-07-14T12:04:20Z</time>
      </trkpt>
      <trkpt lat="47.78932" lon="-3.54405">
        <ele>15</ele>
        <time>2018-07-14T12:04:21Z</time>
      </trkpt>
      <trkpt lat="47.78931" lon="-3.54402">
        <ele>15</ele>
        <time>2018-07-14T12:04:22Z</time>
      </trkpt>
      <trkpt lat="47.78931" lon="-3.544">
        <ele>16</ele>
        <time>2018-07-14T12:04:23Z</time>
      </trkpt>
      <trkpt lat="47.7893" lon="-3.54398">
        <ele>16</ele>
        <time>2018-07-14T12:04:24Z</time>
      </trkpt>
      <trkpt lat="47.78929" lon="-3.54396">
        <ele>16</ele>
        <time>2018-07-14T12:04:25Z</time>
      </trkpt>
      <trkpt lat="47.78927" lon="-3.54394">
        <ele>16</ele>
        <time>2018-07-14T12:04:26Z</time>
      </trkpt>
      <trkpt lat="47.78926" lon="-3.54392">
        <ele>16</ele>
        <time>2018-07-14T12:04:27Z</time>
      </trkpt>
      <trkpt lat="47.78925" lon="-3.54391">
        <ele>17</ele>
        <time>2018-07-14T12:04:28Z</time>
      </trkpt>
      <trkpt lat="47.78923" lon="-3.54391">
        <ele>17</ele>
        <time>2018-07-14T12:04:29Z</time>
      </trkpt>
      <trkpt lat="47.78922" lon="-3.5439">
        <ele>17</ele>
        <time>2018-07-14T12:04:30Z</time>
      </trkpt>
      <trkpt lat="47.78922" lon="-3.5439">
        <ele>17</ele>
        <time>2018-07-14T12:04:31Z</time>
      </trkpt>
      <trkpt lat="47.78921" lon="-3.54391">
        <ele>18</ele>
        <time>2018-07-14T12:04:32Z</time>
      </trkpt>
      <trkpt lat="47.7892" lon="-3.54392">
        <ele>18</ele>
        <time>2018-07-14T12:04:33Z</time>
      </trkpt>
      <trkpt lat="47.78918" lon="-3.54392">
        <ele>18</ele>
        <time>2018-07-14T12:04:34Z</time>
      </trkpt>
      <trkpt lat="47.78916" lon="-3.54392">
        <ele>18</ele>
        <time>2018-07-14T12:04:35Z</time>
      </trkpt>
      <trkpt lat="47.78915" lon="-3.5439">
        <ele>19</ele>
        <time>2018-07-14T12:04:36Z</time>
      </trkpt>
      <trkpt lat="47.78912" lon="-3.54388">
        <ele>19</ele>
        <time>2018-07-14T12:04:37Z</time>
      </trkpt>
      <trkpt lat="47.7891" lon="-3.54385">
        <ele>19</ele>
        <time>2018-07-14T12:04:38Z</time>
      </trkpt>
      <trkpt lat="47.78908" lon="-3.54383">
        <ele>19</ele>
        <time>2018-07-14T12:04:39Z</time>
      </trkpt>
      <trkpt lat="47.78906" lon="-3.54381">
        <ele>20</ele>
        <time>2018-07-14T12:04:40Z</time>
      </trkpt>
      <trkpt lat="47.78904" lon="-3.54378">
        <ele>20</ele>
        <time>2018-07-14T12:04:41Z</time>
      </trkpt>
      <trkpt lat="47.78903" lon="-3.54376">
        <ele>20</ele>
        <time>2018-07-14T12:04:42Z</time>
      </trkpt>
      <trkpt lat="47.78901" lon="-3.54373">
        <ele>20</ele>
        <time>2018-07-14T12:04:43Z</time>
      </trkpt>
      <trkpt lat="47.78899" lon="-3.5437">
        <ele>20</ele>
        <time>2018-07-14T12:04:44Z</time>
      </trkpt>
      <trkpt lat="47.78897" lon="-3.54367">
        <ele>20</ele>
        <time>2018-07-14T12:04:45Z</time>
      </trkpt>
      <trkpt lat="47.78894" lon="-3.54364">
        <ele>20</ele>
        <time>2018-07-14T12:04:46Z</time>
      </trkpt>
      <trkpt lat="47.78891" lon="-3.54362">
        <ele>20</ele>
        <time>2018-07-14T12:04:47Z</time>
      </trkpt>
      <trkpt lat="47.78888" lon="-3.54359">
        <ele>20</ele>
        <time>2018-07-14T12:04:48Z</time>
      </trkpt>
      <trkpt lat="47.78884" lon="-3.54356">
        <ele>20</ele>
        <time>2018-07-14T12:04:49Z</time>
      </trkpt>
      <trkpt lat="47.7888" lon="-3.54353">
        <ele>20</ele>
        <time>2018-07-14T12:04:50Z</time>
      </trkpt>
      <trkpt lat="47.78875" lon="-3.54349">
        <ele>20</ele>
        <time>2018-07-14T12:04:51Z</time>
      </trkpt>
      <trkpt lat="47.78871" lon="-3.54345">
        <ele>20</ele>
        <time>2018-07-14T12:04:52Z</time>
      </trkpt>
      <trkpt lat="47.78867" lon="-3.54342">
        <ele>20</ele>
        <time>2018-07-14T12:04:53Z</time>
      </trkpt>
      <trkpt lat="47.78864" lon="-3.54338">
        <ele>20</ele>
        <time>2018-07-14T12:04:54Z</time>
      </trkpt>
      <trkpt lat="47.78862" lon="-3.54336">
        <ele>20</ele>
        <time>2018-07-14T12:04:55Z</time>
      </trkpt>
      <trkpt lat="47.78859" lon="-3.54334">
        <ele>20</ele>
        <time>2018-07-14T12:04:56Z</time>
      </trkpt>
      <trkpt lat="47.78856" lon="-3.54331">
        <ele>20</ele>
        <time>2018-07-14T12:04:57Z</time>
      </trkpt>
      <trkpt lat="47.78853" lon="-3.54328">
        <ele>20</ele>
        <time>2018-07-14T12:04:58Z</time>
      </trkpt>
      <trkpt lat="47.7885" lon="-3.54326">
        <ele>20</ele>
        <time>2018-07-14T12:04:59Z</time>
      </trkpt>
      <trkpt lat="47.78847" lon="-3.54324">
        <ele>20</ele>
        <time>2018-07-14T12:05:00Z</time>
      </trkpt>
      <trkpt lat="47.78843" lon="-3.54323">
        <ele>20</ele>
        <time>2018-07-14T12:05:01Z</time>
      </trkpt>
      <trkpt lat="47.7884" lon="-3.54321">
        <ele>20</ele>
        <time>2018-07-14T12:05:02Z</time>
      </trkpt>
      <trkpt lat="47.78837" lon="-3.54319">
        <ele>20</ele>
        <time>2018-07-14T12:05:03Z</time>
      </trkpt>
      <trkpt lat="47.78834" lon="-3.54317">
        <ele>20</ele>
        <time>2018-07-14T12:05:04Z</time>
      </trkpt>
      <trkpt lat="47.78831" lon="-3.54314">
        <ele>20</ele>
        <time>2018-07-14T12:05:05Z</time>
      </trkpt>
      <trkpt lat="47.78828" lon="-3.54311">
        <ele>20</ele>
        <time>2018-07-14T12:05:06Z</time>
      </trkpt>
      <trkpt lat="47.78825" lon="-3.54309">
        <ele>20</ele>
        <time>2018-07-14T12:05:07Z</time>
      </trkpt>
      <trkpt lat="47.78822" lon="-3.54307">
        <ele>20</ele>
        <time>2018-07-14T12:05:08Z</time>
      </trkpt>
      <trkpt lat="47.78819" lon="-3.54304">
        <ele>20</ele>
        <time>2018-07-14T12:05:09Z</time>
      </trkpt>
      <trkpt lat="47.78817" lon="-3.543">
        <ele>20</ele>
        <time>2018-07-14T12:05:10Z</time>
      </trkpt>
      <trkpt lat="47.78814" lon="-3.54297">
        <ele>20</ele>
        <time>2018-07-14T12:05:11Z</time>
      </trkpt>
      <trkpt lat="47.78811" lon="-3.54293">
        <ele>20</ele>
        <time>2018-07-14T12:05:12Z</time>
      </trkpt>
      <trkpt lat="47.78809" lon="-3.5429">
        <ele>20</ele>
        <time>2018-07-14T12:05:13Z</time>
      </trkpt>
      <trkpt lat="47.78806" lon="-3.54287">
        <ele>20</ele>
        <time>2018-07-14T12:05:14Z</time>
      </trkpt>
      <trkpt lat="47.78804" lon="-3.54283">
        <ele>20</ele>
        <time>2018-07-14T12:05:15Z</time>
      </trkpt>
      <trkpt lat="47.78801" lon="-3.54281">
        <ele>20</ele>
        <time>2018-07-14T12:05:16Z</time>
      </trkpt>
      <trkpt lat="47.78799" lon="-3.54279">
        <ele>20</ele>
        <time>2018-07-14T12:05:17Z</time>
      </trkpt>
      <trkpt lat="47.78796" lon="-3.54277">
        <ele>20</ele>
        <time>2018-07-14T12:05:18Z</time>
      </trkpt>
      <trkpt lat="47.78794" lon="-3.54276">
        <ele>20</ele>
        <time>2018-07-14T12:05:19Z</time>
      </trkpt>
      <trkpt lat="47.78793" lon="-3.54276">
        <ele>20</ele>
        <time>2018-07-14T12:05:20Z</time>
      </trkpt>
      <trkpt lat="47.78791" lon="-3.54275">
        <ele>20</ele>
        <time>2018-07-14T12:05:21Z</time>
      </trkpt>
      <trkpt lat="47.78789" lon="-3.54275">
        <ele>20</ele>
        <time>2018-07-14T12:05:22Z</time>
      </trkpt>
      <trkpt lat="47.78786" lon="-3.54275">
        <ele>20</ele>
        <time>2018-07-14T12:05:23Z</time>
      </trkpt>
      <trkpt lat="47.78784" lon="-3.54274">
        <ele>20</ele>
        <time>2018-07-14T12:05:24Z</time>
      </trkpt>
      <trkpt lat="47.78781" lon="-3.54274">
        <ele>20</ele>
        <time>2018-07-14T12:05:25Z</time>
      </trkpt>
      <trkpt lat="47.78777" lon="-3.54274">
        <ele>20</ele>
        <time>2018-07-14T12:05:26Z</time>
      </trkpt>
      <trkpt lat="47.78773" lon="-3.54274">
        <ele>21</ele>
        <time>2018-07-14T12:05:27Z</time>
      </trkpt>
      <trkpt lat="47.7877" lon="-3.54274">
        <ele>21</ele>
        <time>2018-07-14T12:05:28Z</time>
      </trkpt>
      <trkpt lat="47.78766" lon="-3.54275">
        <ele>21</ele>
        <time>2018-07-14T12:05:29Z</time>
      </trkpt>
      <trkpt lat="47.78761" lon="-3.54275">
        <ele>21</ele>
        <time>2018-07-14T12:05:30Z</time>
      </trkpt>
      <trkpt lat="47.78757" lon="-3.54277">
        <ele>21</ele>
        <time>2018-07-14T12:05:31Z</time>
      </trkpt>
      <trkpt lat="47.78753" lon="-3.54278">
        <ele>22</ele>
        <time>2018-07-14T12:05:32Z</time>
      </trkpt>
      <trkpt lat="47.78749" lon="-3.5428">
        <ele>22</ele>
        <time>2018-07-14T12:05:33Z</time>
      </trkpt>
      <trkpt lat="47.78746" lon="-3.54281">
        <ele>22</ele>
        <time>2018-07-14T12:05:34Z</time>
      </trkpt>
      <trkpt lat="47.78742" lon="-3.54282">
        <ele>22</ele>
        <time>2018-07-14T12:05:35Z</time>
      </trkpt>
      <trkpt lat="47.78738" lon="-3.54284">
        <ele>22</ele>
        <time>2018-07-14T12:05:36Z</time>
      </trkpt>
      <trkpt lat="47.78735" lon="-3.54284">
        <ele>22</ele>
        <time>2018-07-14T12:05:37Z</time>
      </trkpt>
      <trkpt lat="47.78731" lon="-3.54285">
        <ele>23</ele>
        <time>2018-07-14T12:05:38Z</time>
      </trkpt>
      <trkpt lat="47.78727" lon="-3.54286">
        <ele>23</ele>
        <time>2018-07-14T12:05:39Z</time>
      </trkpt>
      <trkpt lat="47.78724" lon="-3.54285">
        <ele>23</ele>
        <time>2018-07-14T12:05:40Z</time>
      </trkpt>
      <trkpt lat="47.7872" lon="-3.54284">
        <ele>23</ele>
        <time>2018-07-14T12:05:41Z</time>
      </trkpt>
      <trkpt lat="47.78718" lon="-3.54284">
        <ele>23</ele>
        <time>2018-07-14T12:05:42Z</time>
      </trkpt>
      <trkpt lat="47.78715" lon="-3.54283">
        <ele>23</ele>
        <time>2018-07-14T12:05:43Z</time>
      </trkpt>
      <trkpt lat="47.78713" lon="-3.54283">
        <ele>23</ele>
        <time>2018-07-14T12:05:44Z</time>
      </trkpt>
      <trkpt lat="47.78711" lon="-3.54282">
        <ele>23</ele>
        <time>2018-07-14T12:05:45Z</time>
      </trkpt>
      <trkpt lat="47.78708" lon="-3.54282">
        <ele>23</ele>
        <time>2018-07-14T12:05:46Z</time>
      </trkpt>
      <trkpt lat="47.78705" lon="-3.54282">
        <ele>24</ele>
        <time>2018-07-14T12:05:47Z</time>
      </trkpt>
      <trkpt lat="47.78703" lon="-3.54283">
        <ele>24</ele>
        <time>2018-07-14T12:05:48Z</time>
      </trkpt>
      <trkpt lat="47.78701" lon="-3.54284">
        <ele>24</ele>
        <time>2018-07-14T12:05:49Z</time>
      </trkpt>
      <trkpt lat="47.78701" lon="-3.54284">
        <ele>24</ele>
        <time>2018-07-14T12:05:50Z</time>
      </trkpt>
      <trkpt lat="47.787" lon="-3.54284">
        <ele>24</ele>
        <time>2018-07-14T12:05:51Z</time>
      </trkpt>
      <trkpt lat="47.78699" lon="-3.54286">
        <ele>24</ele>
        <time>2018-07-14T12:05:52Z</time>
      </trkpt>
      <trkpt lat="47.78698" lon="-3.54287">
        <ele>24</ele>
        <time>2018-07-14T12:05:53Z</time>
      </trkpt>
      <trkpt lat="47.78698" lon="-3.54288">
        <ele>24</ele>
        <time>2018-07-14T12:05:54Z</time>
      </trkpt>
      <trkpt lat="47.78697" lon="-3.5429">
        <ele>24</ele>
        <time>2018-07-14T12:05:55Z</time>
      </trkpt>
      <trkpt lat="47.78696" lon="-3.54292">
        <ele>24</ele>
        <time>2018-07-14T12:05:56Z</time>
      </trkpt>
      <trkpt lat="47.78695" lon="-3.54295">
        <ele>24</ele>
        <time>2018-07-14T12:05:57Z</time>
      </trkpt>
      <trkpt lat="47.78694" lon="-3.54298">
        <ele>24</ele>
        <time>2018-07-14T12:05:58Z</time>
      </trkpt>
      <trkpt lat="47.78693" lon="-3.543">
        <ele>24</ele>
        <time>2018-07-14T12:05:59Z</time>
      </trkpt>
      <trkpt lat="47.78691" lon="-3.54303">
        <ele>24</ele>
        <time>2018-07-14T12:06:00Z</time>
      </trkpt>
      <trkpt lat="47.7869" lon="-3.54306">
        <ele>24</ele>
        <time>2018-07-14T12:06:01Z</time>
      </trkpt>
      <trkpt lat="47.78688" lon="-3.54309">
        <ele>24</ele>
        <time>2018-07-14T12:06:02Z</time>
      </trkpt>
      <trkpt lat="47.78687" lon="-3.54312">
        <ele>24</ele>
        <time>2018-07-14T12:06:03Z</time>
      </trkpt>
      <trkpt lat="47.78685" lon="-3.54314">
        <ele>24</ele>
        <time>2018-07-14T12:06:04Z</time>
      </trkpt>
      <trkpt lat="47.78684" lon="-3.54317">
        <ele>24</ele>
        <time>2018-07-14T12:06:05Z</time>
      </trkpt>
      <trkpt lat="47.78682" lon="-3.54319">
        <ele>24</ele>
        <time>2018-07-14T12:06:06Z</time>
      </trkpt>
      <trkpt lat="47.7868" lon="-3.54322">
        <ele>24</ele>
        <time>2018-07-14T12:06:07Z</time>
      </trkpt>
      <trkpt lat="47.78678" lon="-3.54325">
        <ele>24</ele>
        <time>2018-07-14T12:06:08Z</time>
      </trkpt>
      <trkpt lat="47.78676" lon="-3.54327">
        <ele>25</ele>
        <time>2018-07-14T12:06:09Z</time>
      </trkpt>
      <trkpt lat="47.78674" lon="-3.54329">
        <ele>25</ele>
        <time>2018-07-14T12:06:10Z</time>
      </trkpt>
      <trkpt lat="47.78672" lon="-3.54332">
        <ele>25</ele>
        <time>2018-07-14T12:06:11Z</time>
      </trkpt>
      <trkpt lat="47.78669" lon="-3.54334">
        <ele>25</ele>
        <time>2018-07-14T12:06:12Z</time>
      </trkpt>
      <trkpt lat="47.78667" lon="-3.54336">
        <ele>25</ele>
        <time>2018-07-14T12:06:13Z</time>
      </trkpt>
      <trkpt lat="47.78664" lon="-3.54339">
        <ele>26</ele>
        <time>2018-07-14T12:06:14Z</time>
      </trkpt>
      <trkpt lat="47.78662" lon="-3.54342">
        <ele>26</ele>
        <time>2018-07-14T12:06:15Z</time>
      </trkpt>
      <trkpt lat="47.78659" lon="-3.54344">
        <ele>26</ele>
        <time>2018-07-14T12:06:16Z</time>
      </trkpt>
      <trkpt lat="47.78657" lon="-3.54346">
        <ele>26</ele>
        <time>2018-07-14T12:06:17Z</time>
      </trkpt>
      <trkpt lat="47.78655" lon="-3.54347">
        <ele>26</ele>
        <time>2018-07-14T12:06:18Z</time>
      </trkpt>
      <trkpt lat="47.78652" lon="-3.54348">
        <ele>26</ele>
        <time>2018-07-14T12:06:19Z</time>
      </trkpt>
      <trkpt lat="47.78651" lon="-3.54349">
        <ele>26</ele>
        <time>2018-07-14T12:06:20Z</time>
      </trkpt>
      <trkpt lat="47.78649" lon="-3.54351">
        <ele>27</ele>
        <time>2018-07-14T12:06:21Z</time>
      </trkpt>
      <trkpt lat="47.78646" lon="-3.54352">
        <ele>27</ele>
        <time>2018-07-14T12:06:22Z</time>
      </trkpt>
      <trkpt lat="47.78645" lon="-3.54353">
        <ele>27</ele>
        <time>2018-07-14T12:06:23Z</time>
      </trkpt>
      <trkpt lat="47.78642" lon="-3.54355">
        <ele>27</ele>
        <time>2018-07-14T12:06:24Z</time>
      </trkpt>
      <trkpt lat="47.78639" lon="-3.54357">
        <ele>27</ele>
        <time>2018-07-14T12:06:25Z</time>
      </trkpt>
      <trkpt lat="47.78638" lon="-3.54359">
        <ele>27</ele>
        <time>2018-07-14T12:06:26Z</time>
      </trkpt>
      <trkpt lat="47.78635" lon="-3.54361">
        <ele>28</ele>
        <time>2018-07-14T12:06:27Z</time>
      </trkpt>
      <trkpt lat="47.78633" lon="-3.54364">
        <ele>28</ele>
        <time>2018-07-14T12:06:28Z</time>
      </trkpt>
      <trkpt lat="47.78631" lon="-3.54368">
        <ele>28</ele>
        <time>2018-07-14T12:06:29Z</time>
      </trkpt>
      <trkpt lat="47.78628" lon="-3.54371">
        <ele>28</ele>
        <time>2018-07-14T12:06:30Z</time>
      </trkpt>
      <trkpt lat="47.78625" lon="-3.54374">
        <ele>28</ele>
        <time>2018-07-14T12:06:31Z</time>
      </trkpt>
      <trkpt lat="47.78623" lon="-3.54377">
        <ele>29</ele>
        <time>2018-07-14T12:06:32Z</time>
      </trkpt>
      <trkpt lat="47.7862" lon="-3.54379">
        <ele>29</ele>
        <time>2018-07-14T12:06:33Z</time>
      </trkpt>
      <trkpt lat="47.78617" lon="-3.54382">
        <ele>29</ele>
        <time>2018-07-14T12:06:34Z</time>
      </trkpt>
      <trkpt lat="47.78614" lon="-3.54384">
        <ele>29</ele>
        <time>2018-07-14T12:06:35Z</time>
      </trkpt>
      <trkpt lat="47.78612" lon="-3.54386">
        <ele>30</ele>
        <time>2018-07-14T12:06:36Z</time>
      </trkpt>
      <trkpt lat="47.78609" lon="-3.54389">
        <ele>30</ele>
        <time>2018-07-14T12:06:37Z</time>
      </trkpt>
      <trkpt lat="47.78607" lon="-3.54391">
        <ele>30</ele>
        <time>2018-07-14T12:06:38Z</time>
      </trkpt>
      <trkpt lat="47.78605" lon="-3.54393">
        <ele>31</ele>
        <time>2018-07-14T12:06:39Z</time>
      </trkpt>
      <trkpt lat="47.78603" lon="-3.54396">
        <ele>31</ele>
        <time>2018-07-14T12:06:40Z</time>
      </trkpt>
      <trkpt lat="47.786" lon="-3.54398">
        <ele>31</ele>
        <time>2018-07-14T12:06:41Z</time>
      </trkpt>
      <trkpt lat="47.78598" lon="-3.54401">
        <ele>31</ele>
        <time>2018-07-14T12:06:42Z</time>
      </trkpt>
      <trkpt lat="47.78596" lon="-3.54403">
        <ele>31</ele>
        <time>2018-07-14T12:06:43Z</time>
      </trkpt>
      <trkpt lat="47.78593" lon="-3.54405">
        <ele>32</ele>
        <time>2018-07-14T12:06:44Z</time>
      </trkpt>
      <trkpt lat="47.78592" lon="-3.54408">
        <ele>32</ele>
        <time>2018-07-14T12:06:45Z</time>
      </trkpt>
      <trkpt lat="47.7859" lon="-3.54412">
        <ele>32</ele>
        <time>2018-07-14T12:06:46Z</time>
      </trkpt>
      <trkpt lat="47.78588" lon="-3.54415">
        <ele>32</ele>
        <time>2018-07-14T12:06:47Z</time>
      </trkpt>
      <trkpt lat="47.78586" lon="-3.54419">
        <ele>32</ele>
        <time>2018-07-14T12:06:48Z</time>
      </trkpt>
      <trkpt lat="47.78585" lon="-3.54422">
        <ele>32</ele>
        <time>2018-07-14T12:06:49Z</time>
      </trkpt>
      <trkpt lat="47.78583" lon="-3.54425">
        <ele>33</ele>
        <time>2018-07-14T12:06:50Z</time>
      </trkpt>
      <trkpt lat="47.78582" lon="-3.54429">
        <ele>33</ele>
        <time>2018-07-14T12:06:51Z</time>
      </trkpt>
      <trkpt lat="47.7858" lon="-3.54432">
        <ele>33</ele>
        <time>2018-07-14T12:06:52Z</time>
      </trkpt>
      <trkpt lat="47.78578" lon="-3.54435">
        <ele>33</ele>
        <time>2018-07-14T12:06:53Z</time>
      </trkpt>
      <trkpt lat="47.78577" lon="-3.54437">
        <ele>34</ele>
        <time>2018-07-14T12:06:54Z</time>
      </trkpt>
      <trkpt lat="47.78576" lon="-3.5444">
        <ele>34</ele>
        <time>2018-07-14T12:06:55Z</time>
      </trkpt>
      <trkpt lat="47.78574" lon="-3.54443">
        <ele>35</ele>
        <time>2018-07-14T12:06:56Z</time>
      </trkpt>
      <trkpt lat="47.78572" lon="-3.54447">
        <ele>35</ele>
        <time>2018-07-14T12:06:57Z</time>
      </trkpt>
      <trkpt lat="47.7857" lon="-3.5445">
        <ele>35</ele>
        <time>2018-07-14T12:06:58Z</time>
      </trkpt>
      <trkpt lat="47.78568" lon="-3.54454">
        <ele>36</ele>
        <time>2018-07-14T12:06:59Z</time>
      </trkpt>
      <trkpt lat="47.78566" lon="-3.54458">
        <ele>36</ele>
        <time>2018-07-14T12:07:00Z</time>
      </trkpt>
      <trkpt lat="47.78564" lon="-3.54462">
        <ele>36</ele>
        <time>2018-07-14T12:07:01Z</time>
      </trkpt>
      <trkpt lat="47.78562" lon="-3.54465">
        <ele>37</ele>
        <time>2018-07-14T12:07:02Z</time>
      </trkpt>
      <trkpt lat="47.7856" lon="-3.54469">
        <ele>37</ele>
        <time>2018-07-14T12:07:03Z</time>
      </trkpt>
      <trkpt lat="47.78558" lon="-3.54473">
        <ele>37</ele>
        <time>2018-07-14T12:07:04Z</time>
      </trkpt>
      <trkpt lat="47.78556" lon="-3.54477">
        <ele>37</ele>
        <time>2018-07-14T12:07:05Z</time>
      </trkpt>
      <trkpt lat="47.78555" lon="-3.54482">
        <ele>37</ele>
        <time>2018-07-14T12:07:06Z</time>
      </trkpt>
      <trkpt lat="47.78553" lon="-3.54487">
        <ele>38</ele>
        <time>2018-07-14T12:07:07Z</time>
      </trkpt>
      <trkpt lat="47.78552" lon="-3.54492">
        <ele>38</ele>
        <time>2018-07-14T12:07:08Z</time>
      </trkpt>
      <trkpt lat="47.78551" lon="-3.54496">
        <ele>38</ele>
        <time>2018-07-14T12:07:09Z</time>
      </trkpt>
      <trkpt lat="47.78551" lon="-3.54501">
        <ele>38</ele>
        <time>2018-07-14T12:07:10Z</time>
      </trkpt>
      <trkpt lat="47.7855" lon="-3.54505">
        <ele>38</ele>
        <time>2018-07-14T12:07:11Z</time>
      </trkpt>
      <trkpt lat="47.7855" lon="-3.5451">
        <ele>38</ele>
        <time>2018-07-14T12:07:12Z</time>
      </trkpt>
      <trkpt lat="47.78549" lon="-3.54514">
        <ele>38</ele>
        <time>2018-07-14T12:07:13Z</time>
      </trkpt>
      <trkpt lat="47.78549" lon="-3.54519">
        <ele>38</ele>
        <time>2018-07-14T12:07:14Z</time>
      </trkpt>
      <trkpt lat="47.78548" lon="-3.54525">
        <ele>38</ele>
        <time>2018-07-14T12:07:15Z</time>
      </trkpt>
      <trkpt lat="47.78548" lon="-3.54529">
        <ele>38</ele>
        <time>2018-07-14T12:07:16Z</time>
      </trkpt>
      <trkpt lat="47.78547" lon="-3.54534">
        <ele>38</ele>
        <time>2018-07-14T12:07:17Z</time>
      </trkpt>
      <trkpt lat="47.78547" lon="-3.54539">
        <ele>38</ele>
        <time>2018-07-14T12:07:18Z</time>
      </trkpt>
      <trkpt lat="47.78547" lon="-3.54543">
        <ele>38</ele>
        <time>2018-07-14T12:07:19Z</time>
      </trkpt>
      <trkpt lat="47.78547" lon="-3.54548">
        <ele>38</ele>
        <time>2018-07-14T12:07:20Z</time>
      </trkpt>
      <trkpt lat="47.78548" lon="-3.54552">
        <ele>38</ele>
        <time>2018-07-14T12:07:21Z</time>
      </trkpt>
      <trkpt lat="47.78548" lon="-3.54557">
        <ele>38</ele>
        <time>2018-07-14T12:07:22Z</time>
      </trkpt>
      <trkpt lat="47.78549" lon="-3.54561">
        <ele>38</ele>
        <time>2018-07-14T12:07:23Z</time>
      </trkpt>
      <trkpt lat="47.7855" lon="-3.54565">
        <ele>38</ele>
        <time>2018-07-14T12:07:24Z</time>
      </trkpt>
      <trkpt lat="47.78551" lon="-3.5457">
        <ele>38</ele>
        <time>2018-07-14T12:07:25Z</time>
      </trkpt>
      <trkpt lat="47.78552" lon="-3.54575">
        <ele>38</ele>
        <time>2018-07-14T12:07:26Z</time>
      </trkpt>
      <trkpt lat="47.78552" lon="-3.54579">
        <ele>38</ele>
        <time>2018-07-14T12:07:27Z</time>
      </trkpt>
      <trkpt lat="47.78553" lon="-3.54584">
        <ele>38</ele>
        <time>2018-07-14T12:07:28Z</time>
      </trkpt>
      <trkpt lat="47.78552" lon="-3.54589">
        <ele>38</ele>
        <time>2018-07-14T12:07:29Z</time>
      </trkpt>
      <trkpt lat="47.7855" lon="-3.54593">
        <ele>38</ele>
        <time>2018-07-14T12:07:30Z</time>
      </trkpt>
      <trkpt lat="47.78548" lon="-3.54598">
        <ele>38</ele>
        <time>2018-07-14T12:07:31Z</time>
      </trkpt>
      <trkpt lat="47.78546" lon="-3.54603">
        <ele>38</ele>
        <time>2018-07-14T12:07:32Z</time>
      </trkpt>
      <trkpt lat="47.78544" lon="-3.54608">
        <ele>37</ele>
        <time>2018-07-14T12:07:33Z</time>
      </trkpt>
      <trkpt lat="47.78541" lon="-3.54613">
        <ele>37</ele>
        <time>2018-07-14T12:07:34Z</time>
      </trkpt>
      <trkpt lat="47.78538" lon="-3.5462">
        <ele>37</ele>
        <time>2018-07-14T12:07:35Z</time>
      </trkpt>
      <trkpt lat="47.78533" lon="-3.54626">
        <ele>37</ele>
        <time>2018-07-14T12:07:36Z</time>
      </trkpt>
      <trkpt lat="47.78528" lon="-3.54631">
        <ele>37</ele>
        <time>2018-07-14T12:07:37Z</time>
      </trkpt>
      <trkpt lat="47.78524" lon="-3.54635">
        <ele>37</ele>
        <time>2018-07-14T12:07:38Z</time>
      </trkpt>
      <trkpt lat="47.7852" lon="-3.54639">
        <ele>37</ele>
        <time>2018-07-14T12:07:39Z</time>
      </trkpt>
      <trkpt lat="47.78516" lon="-3.54645">
        <ele>37</ele>
        <time>2018-07-14T12:07:40Z</time>
      </trkpt>
      <trkpt lat="47.78513" lon="-3.54651">
        <ele>37</ele>
        <time>2018-07-14T12:07:41Z</time>
      </trkpt>
      <trkpt lat="47.78511" lon="-3.54656">
        <ele>37</ele>
        <time>2018-07-14T12:07:42Z</time>
      </trkpt>
      <trkpt lat="47.78509" lon="-3.54662">
        <ele>37</ele>
        <time>2018-07-14T12:07:43Z</time>
      </trkpt>
      <trkpt lat="47.78508" lon="-3.5467">
        <ele>37</ele>
        <time>2018-07-14T12:07:44Z</time>
      </trkpt>
      <trkpt lat="47.78506" lon="-3.54677">
        <ele>37</ele>
        <time>2018-07-14T12:07:45Z</time>
      </trkpt>
      <trkpt lat="47.78505" lon="-3.54685">
        <ele>37</ele>
        <time>2018-07-14T12:07:46Z</time>
      </trkpt>
      <trkpt lat="47.78503" lon="-3.54692">
        <ele>38</ele>
        <time>2018-07-14T12:07:47Z</time>
      </trkpt>
      <trkpt lat="47.78502" lon="-3.547">
        <ele>38</ele>
        <time>2018-07-14T12:07:48Z</time>
      </trkpt>
      <trkpt lat="47.785" lon="-3.54707">
        <ele>38</ele>
        <time>2018-07-14T12:07:49Z</time>
      </trkpt>
      <trkpt lat="47.78499" lon="-3.54715">
        <ele>38</ele>
        <time>2018-07-14T12:07:50Z</time>
      </trkpt>
      <trkpt lat="47.78497" lon="-3.54723">
        <ele>38</ele>
        <time>2018-07-14T12:07:51Z</time>
      </trkpt>
      <trkpt lat="47.78495" lon="-3.54731">
        <ele>38</ele>
        <time>2018-07-14T12:07:52Z</time>
      </trkpt>
      <trkpt lat="47.78494" lon="-3.54739">
        <ele>38</ele>
        <time>2018-07-14T12:07:53Z</time>
      </trkpt>
      <trkpt lat="47.78491" lon="-3.54747">
        <ele>38</ele>
        <time>2018-07-14T12:07:54Z</time>
      </trkpt>
      <trkpt lat="47.78489" lon="-3.54752">
        <ele>38</ele>
        <time>2018-07-14T12:07:55Z</time>
      </trkpt>
      <trkpt lat="47.78487" lon="-3.54756">
        <ele>38</ele>
        <time>2018-07-14T12:07:56Z</time>
      </trkpt>
      <trkpt lat="47.78484" lon="-3.54758">
        <ele>38</ele>
        <time>2018-07-14T12:07:57Z</time>
      </trkpt>
      <trkpt lat="47.78483" lon="-3.54759">
        <ele>39</ele>
        <time>2018-07-14T12:07:58Z</time>
      </trkpt>
      <trkpt lat="47.78482" lon="-3.5476">
        <ele>39</ele>
        <time>2018-07-14T12:07:59Z</time>
      </trkpt>
      <trkpt lat="47.78481" lon="-3.54764">
        <ele>39</ele>
        <time>2018-07-14T12:08:00Z</time>
      </trkpt>
      <trkpt lat="47.7848" lon="-3.54768">
        <ele>39</ele>
        <time>2018-07-14T12:08:01Z</time>
      </trkpt>
      <trkpt lat="47.78479" lon="-3.54774">
        <ele>39</ele>
        <time>2018-07-14T12:08:02Z</time>
      </trkpt>
      <trkpt lat="47.78477" lon="-3.5478">
        <ele>39</ele>
        <time>2018-07-14T12:08:03Z</time>
      </trkpt>
      <trkpt lat="47.78476" lon="-3.54787">
        <ele>40</ele>
        <time>2018-07-14T12:08:04Z</time>
      </trkpt>
      <trkpt lat="47.78474" lon="-3.54794">
        <ele>40</ele>
        <time>2018-07-14T12:08:05Z</time>
      </trkpt>
      <trkpt lat="47.78472" lon="-3.54801">
        <ele>40</ele>
        <time>2018-07-14T12:08:06Z</time>
      </trkpt>
      <trkpt lat="47.78471" lon="-3.54808">
        <ele>40</ele>
        <time>2018-07-14T12:08:07Z</time>
      </trkpt>
      <trkpt lat="47.78468" lon="-3.54815">
        <ele>40</ele>
        <time>2018-07-14T12:08:08Z</time>
      </trkpt>
      <trkpt lat="47.78465" lon="-3.54822">
        <ele>40</ele>
        <time>2018-07-14T12:08:09Z</time>
      </trkpt>
      <trkpt lat="47.78463" lon="-3.54828">
        <ele>40</ele>
        <time>2018-07-14T12:08:10Z</time>
      </trkpt>
      <trkpt lat="47.78459" lon="-3.54834">
        <ele>41</ele>
        <time>2018-07-14T12:08:11Z</time>
      </trkpt>
      <trkpt lat="47.78457" lon="-3.5484">
        <ele>41</ele>
        <time>2018-07-14T12:08:12Z</time>
      </trkpt>
      <trkpt lat="47.78455" lon="-3.54846">
        <ele>41</ele>
        <time>2018-07-14T12:08:13Z</time>
      </trkpt>
      <trkpt lat="47.78453" lon="-3.54853">
        <ele>41</ele>
        <time>2018-07-14T12:08:14Z</time>
      </trkpt>
      <trkpt lat="47.78451" lon="-3.54859">
        <ele>41</ele>
        <time>2018-07-14T12:08:15Z</time>
      </trkpt>
      <trkpt lat="47.78449" lon="-3.54865">
        <ele>41</ele>
        <time>2018-07-14T12:08:16Z</time>
      </trkpt>
      <trkpt lat="47.78448" lon="-3.5487">
        <ele>41</ele>
        <time>2018-07-14T12:08:17Z</time>
      </trkpt>
      <trkpt lat="47.78446" lon="-3.54874">
        <ele>41</ele>
        <time>2018-07-14T12:08:18Z</time>
      </trkpt>
      <trkpt lat="47.78445" lon="-3.54878">
        <ele>41</ele>
        <time>2018-07-14T12:08:19Z</time>
      </trkpt>
      <trkpt lat="47.78444" lon="-3.54882">
        <ele>41</ele>
        <time>2018-07-14T12:08:20Z</time>
      </trkpt>
      <trkpt lat="47.78443" lon="-3.54887">
        <ele>41</ele>
        <time>2018-07-14T12:08:21Z</time>
      </trkpt>
      <trkpt lat="47.78441" lon="-3.54891">
        <ele>42</ele>
        <time>2018-07-14T12:08:22Z</time>
      </trkpt>
      <trkpt lat="47.7844" lon="-3.54895">
        <ele>42</ele>
        <time>2018-07-14T12:08:23Z</time>
      </trkpt>
      <trkpt lat="47.78439" lon="-3.549">
        <ele>42</ele>
        <time>2018-07-14T12:08:24Z</time>
      </trkpt>
      <trkpt lat="47.78439" lon="-3.54905">
        <ele>42</ele>
        <time>2018-07-14T12:08:25Z</time>
      </trkpt>
      <trkpt lat="47.78437" lon="-3.54911">
        <ele>41</ele>
        <time>2018-07-14T12:08:26Z</time>
      </trkpt>
      <trkpt lat="47.78436" lon="-3.54917">
        <ele>41</ele>
        <time>2018-07-14T12:08:27Z</time>
      </trkpt>
      <trkpt lat="47.78435" lon="-3.54923">
        <ele>41</ele>
        <time>2018-07-14T12:08:28Z</time>
      </trkpt>
      <trkpt lat="47.78433" lon="-3.54928">
        <ele>41</ele>
        <time>2018-07-14T12:08:29Z</time>
      </trkpt>
      <trkpt lat="47.78431" lon="-3.54934">
        <ele>41</ele>
        <time>2018-07-14T12:08:30Z</time>
      </trkpt>
      <trkpt lat="47.78429" lon="-3.5494">
        <ele>41</ele>
        <time>2018-07-14T12:08:31Z</time>
      </trkpt>
      <trkpt lat="47.78426" lon="-3.54946">
        <ele>41</ele>
        <time>2018-07-14T12:08:32Z</time>
      </trkpt>
      <trkpt lat="47.78423" lon="-3.54951">
        <ele>41</ele>
        <time>2018-07-14T12:08:33Z</time>
      </trkpt>
      <trkpt lat="47.7842" lon="-3.54958">
        <ele>41</ele>
        <time>2018-07-14T12:08:34Z</time>
      </trkpt>
      <trkpt lat="47.78416" lon="-3.54966">
        <ele>41</ele>
        <time>2018-07-14T12:08:35Z</time>
      </trkpt>
      <trkpt lat="47.78411" lon="-3.54973">
        <ele>41</ele>
        <time>2018-07-14T12:08:36Z</time>
      </trkpt>
      <trkpt lat="47.78406" lon="-3.54982">
        <ele>41</ele>
        <time>2018-07-14T12:08:37Z</time>
      </trkpt>
      <trkpt lat="47.78401" lon="-3.5499">
        <ele>41</ele>
        <time>2018-07-14T12:08:38Z</time>
      </trkpt>
      <trkpt lat="47.78395" lon="-3.54998">
        <ele>40</ele>
        <time>2018-07-14T12:08:39Z</time>
      </trkpt>
      <trkpt lat="47.7839" lon="-3.55007">
        <ele>40</ele>
        <time>2018-07-14T12:08:40Z</time>
      </trkpt>
      <trkpt lat="47.78384" lon="-3.55014">
        <ele>40</ele>
        <time>2018-07-14T12:08:41Z</time>
      </trkpt>
      <trkpt lat="47.78378" lon="-3.55022">
        <ele>40</ele>
        <time>2018-07-14T12:08:42Z</time>
      </trkpt>
      <trkpt lat="47.78372" lon="-3.5503">
        <ele>40</ele>
        <time>2018-07-14T12:08:43Z</time>
      </trkpt>
      <trkpt lat="47.78366" lon="-3.55038">
        <ele>39</ele>
        <time>2018-07-14T12:08:44Z</time>
      </trkpt>
      <trkpt lat="47.78361" lon="-3.55046">
        <ele>39</ele>
        <time>2018-07-14T12:08:45Z</time>
      </trkpt>
      <trkpt lat="47.78357" lon="-3.55055">
        <ele>39</ele>
        <time>2018-07-14T12:08:46Z</time>
      </trkpt>
      <trkpt lat="47.78353" lon="-3.55062">
        <ele>39</ele>
        <time>2018-07-14T12:08:47Z</time>
      </trkpt>
      <trkpt lat="47.7835" lon="-3.5507">
        <ele>39</ele>
        <time>2018-07-14T12:08:48Z</time>
      </trkpt>
      <trkpt lat="47.78347" lon="-3.55077">
        <ele>39</ele>
        <time>2018-07-14T12:08:49Z</time>
      </trkpt>
      <trkpt lat="47.78344" lon="-3.55084">
        <ele>39</ele>
        <time>2018-07-14T12:08:50Z</time>
      </trkpt>
      <trkpt lat="47.78341" lon="-3.55089">
        <ele>39</ele>
        <time>2018-07-14T12:08:51Z</time>
      </trkpt>
      <trkpt lat="47.7834" lon="-3.55094">
        <ele>38</ele>
        <time>2018-07-14T12:08:52Z</time>
      </trkpt>
      <trkpt lat="47.78337" lon="-3.551">
        <ele>38</ele>
        <time>2018-07-14T12:08:53Z</time>
      </trkpt>
      <trkpt lat="47.78336" lon="-3.55107">
        <ele>38</ele>
        <time>2018-07-14T12:08:54Z</time>
      </trkpt>
      <trkpt lat="47.78334" lon="-3.55113">
        <ele>38</ele>
        <time>2018-07-14T12:08:55Z</time>
      </trkpt>
      <trkpt lat="47.78332" lon="-3.55121">
        <ele>38</ele>
        <time>2018-07-14T12:08:56Z</time>
      </trkpt>
      <trkpt lat="47.7833" lon="-3.55128">
        <ele>37</ele>
        <time>2018-07-14T12:08:57Z</time>
      </trkpt>
      <trkpt lat="47.78327" lon="-3.55134">
        <ele>37</ele>
        <time>2018-07-14T12:08:58Z</time>
      </trkpt>
      <trkpt lat="47.78324" lon="-3.55139">
        <ele>36</ele>
        <time>2018-07-14T12:08:59Z</time>
      </trkpt>
      <trkpt lat="47.78321" lon="-3.55143">
        <ele>36</ele>
        <time>2018-07-14T12:09:00Z</time>
      </trkpt>
      <trkpt lat="47.78318" lon="-3.55146">
        <ele>35</ele>
        <time>2018-07-14T12:09:01Z</time>
      </trkpt>
      <trkpt lat="47.78316" lon="-3.55149">
        <ele>35</ele>
        <time>2018-07-14T12:09:02Z</time>
      </trkpt>
      <trkpt lat="47.78313" lon="-3.55153">
        <ele>34</ele>
        <time>2018-07-14T12:09:03Z</time>
      </trkpt>
      <trkpt lat="47.78311" lon="-3.55156">
        <ele>34</ele>
        <time>2018-07-14T12:09:04Z</time>
      </trkpt>
      <trkpt lat="47.78309" lon="-3.55159">
        <ele>34</ele>
        <time>2018-07-14T12:09:05Z</time>
      </trkpt>
      <trkpt lat="47.78307" lon="-3.55161">
        <ele>33</ele>
        <time>2018-07-14T12:09:06Z</time>
      </trkpt>
      <trkpt lat="47.78306" lon="-3.55163">
        <ele>33</ele>
        <time>2018-07-14T12:09:07Z</time>
      </trkpt>
      <trkpt lat="47.78304" lon="-3.55166">
        <ele>33</ele>
        <time>2018-07-14T12:09:08Z</time>
      </trkpt>
      <trkpt lat="47.78303" lon="-3.55169">
        <ele>32</ele>
        <time>2018-07-14T12:09:09Z</time>
      </trkpt>
      <trkpt lat="47.783" lon="-3.55172">
        <ele>32</ele>
        <time>2018-07-14T12:09:10Z</time>
      </trkpt>
      <trkpt lat="47.78297" lon="-3.55175">
        <ele>32</ele>
        <time>2018-07-14T12:09:11Z</time>
      </trkpt>
      <trkpt lat="47.78294" lon="-3.55178">
        <ele>32</ele>
        <time>2018-07-14T12:09:12Z</time>
      </trkpt>
      <trkpt lat="47.78292" lon="-3.55181">
        <ele>32</ele>
        <time>2018-07-14T12:09:13Z</time>
      </trkpt>
      <trkpt lat="47.7829" lon="-3.55183">
        <ele>32</ele>
        <time>2018-07-14T12:09:14Z</time>
      </trkpt>
      <trkpt lat="47.78289" lon="-3.55185">
        <ele>32</ele>
        <time>2018-07-14T12:09:15Z</time>
      </trkpt>
      <trkpt lat="47.78288" lon="-3.55186">
        <ele>32</ele>
        <time>2018-07-14T12:09:16Z</time>
      </trkpt>
      <trkpt lat="47.78287" lon="-3.55188">
        <ele>32</ele>
        <time>2018-07-14T12:09:17Z</time>
      </trkpt>
      <trkpt lat="47.78286" lon="-3.5519">
        <ele>32</ele>
        <time>2018-07-14T12:09:18Z</time>
      </trkpt>
      <trkpt lat="47.78285" lon="-3.55192">
        <ele>32</ele>
        <time>2018-07-14T12:09:19Z</time>
      </trkpt>
      <trkpt lat="47.78284" lon="-3.55193">
        <ele>32</ele>
        <time>2018-07-14T12:09:20Z</time>
      </trkpt>
      <trkpt lat="47.78282" lon="-3.55194">
        <ele>32</ele>
        <time>2018-07-14T12:09:21Z</time>
      </trkpt>
      <trkpt lat="47.7828" lon="-3.55196">
        <ele>32</ele>
        <time>2018-07-14T12:09:22Z</time>
      </trkpt>
      <trkpt lat="47.78279" lon="-3.55198">
        <ele>32</ele>
        <time>2018-07-14T12:09:23Z</time>
      </trkpt>
      <trkpt lat="47.78277" lon="-3.552">
        <ele>32</ele>
        <time>2018-07-14T12:09:24Z</time>
      </trkpt>
      <trkpt lat="47.78275" lon="-3.55202">
        <ele>32</ele>
        <time>2018-07-14T12:09:25Z</time>
      </trkpt>
      <trkpt lat="47.78272" lon="-3.55203">
        <ele>32</ele>
        <time>2018-07-14T12:09:26Z</time>
      </trkpt>
      <trkpt lat="47.7827" lon="-3.55205">
        <ele>32</ele>
        <time>2018-07-14T12:09:27Z</time>
      </trkpt>
      <trkpt lat="47.78268" lon="-3.55206">
        <ele>31</ele>
        <time>2018-07-14T12:09:28Z</time>
      </trkpt>
      <trkpt lat="47.78266" lon="-3.55208">
        <ele>31</ele>
        <time>2018-07-14T12:09:29Z</time>
      </trkpt>
      <trkpt lat="47.78264" lon="-3.55209">
        <ele>31</ele>
        <time>2018-07-14T12:09:30Z</time>
      </trkpt>
      <trkpt lat="47.78262" lon="-3.55211">
        <ele>31</ele>
        <time>2018-07-14T12:09:31Z</time>
      </trkpt>
      <trkpt lat="47.78261" lon="-3.55213">
        <ele>31</ele>
        <time>2018-07-14T12:09:32Z</time>
      </trkpt>
      <trkpt lat="47.78259" lon="-3.55215">
        <ele>31</ele>
        <time>2018-07-14T12:09:33Z</time>
      </trkpt>
      <trkpt lat="47.78257" lon="-3.55218">
        <ele>31</ele>
        <time>2018-07-14T12:09:34Z</time>
      </trkpt>
      <trkpt lat="47.78255" lon="-3.5522">
        <ele>31</ele>
        <time>2018-07-14T12:09:35Z</time>
      </trkpt>
      <trkpt lat="47.78254" lon="-3.55222">
        <ele>30</ele>
        <time>2018-07-14T12:09:36Z</time>
      </trkpt>
      <trkpt lat="47.78251" lon="-3.55224">
        <ele>30</ele>
        <time>2018-07-14T12:09:37Z</time>
      </trkpt>
      <trkpt lat="47.78249" lon="-3.55226">
        <ele>30</ele>
        <time>2018-07-14T12:09:38Z</time>
      </trkpt>
      <trkpt lat="47.78247" lon="-3.55228">
        <ele>30</ele>
        <time>2018-07-14T12:09:39Z</time>
      </trkpt>
      <trkpt lat="47.78245" lon="-3.55229">
        <ele>30</ele>
        <time>2018-07-14T12:09:40Z</time>
      </trkpt>
      <trkpt lat="47.78243" lon="-3.55231">
        <ele>30</ele>
        <time>2018-07-14T12:09:41Z</time>
      </trkpt>
      <trkpt lat="47.7824" lon="-3.55234">
        <ele>30</ele>
        <time>2018-07-14T12:09:42Z</time>
      </trkpt>
      <trkpt lat="47.78238" lon="-3.55236">
        <ele>30</ele>
        <time>2018-07-14T12:09:43Z</time>
      </trkpt>
      <trkpt lat="47.78235" lon="-3.55238">
        <ele>30</ele>
        <time>2018-07-14T12:09:44Z</time>
      </trkpt>
      <trkpt lat="47.78232" lon="-3.5524">
        <ele>30</ele>
        <time>2018-07-14T12:09:45Z</time>
      </trkpt>
      <trkpt lat="47.78228" lon="-3.55243">
        <ele>30</ele>
        <time>2018-07-14T12:09:46Z</time>
      </trkpt>
      <trkpt lat="47.78225" lon="-3.55245">
        <ele>31</ele>
        <time>2018-07-14T12:09:47Z</time>
      </trkpt>
      <trkpt lat="47.78222" lon="-3.55249">
        <ele>31</ele>
        <time>2018-07-14T12:09:48Z</time>
      </trkpt>
      <trkpt lat="47.78219" lon="-3.55251">
        <ele>31</ele>
        <time>2018-07-14T12:09:49Z</time>
      </trkpt>
      <trkpt lat="47.78216" lon="-3.55254">
        <ele>31</ele>
        <time>2018-07-14T12:09:50Z</time>
      </trkpt>
      <trkpt lat="47.78211" lon="-3.55257">
        <ele>31</ele>
        <time>2018-07-14T12:09:51Z</time>
      </trkpt>
      <trkpt lat="47.78207" lon="-3.5526">
        <ele>31</ele>
        <time>2018-07-14T12:09:52Z</time>
      </trkpt>
      <trkpt lat="47.78202" lon="-3.55264">
        <ele>32</ele>
        <time>2018-07-14T12:09:53Z</time>
      </trkpt>
      <trkpt lat="47.78196" lon="-3.55267">
        <ele>32</ele>
        <time>2018-07-14T12:09:54Z</time>
      </trkpt>
      <trkpt lat="47.78191" lon="-3.55269">
        <ele>32</ele>
        <time>2018-07-14T12:09:55Z</time>
      </trkpt>
      <trkpt lat="47.78186" lon="-3.55272">
        <ele>32</ele>
        <time>2018-07-14T12:09:56Z</time>
      </trkpt>
      <trkpt lat="47.78181" lon="-3.55275">
        <ele>33</ele>
        <time>2018-07-14T12:09:57Z</time>
      </trkpt>
      <trkpt lat="47.78176" lon="-3.55277">
        <ele>33</ele>
        <time>2018-07-14T12:09:58Z</time>
      </trkpt>
      <trkpt lat="47.78172" lon="-3.55279">
        <ele>33</ele>
        <time>2018-07-14T12:09:59Z</time>
      </trkpt>
      <trkpt lat="47.78168" lon="-3.5528">
        <ele>33</ele>
        <time>2018-07-14T12:10:00Z</time>
      </trkpt>
      <trkpt lat="47.78164" lon="-3.55282">
        <ele>34</ele>
        <time>2018-07-14T12:10:01Z</time>
      </trkpt>
      <trkpt lat="47.7816" lon="-3.55283">
        <ele>34</ele>
        <time>2018-07-14T12:10:02Z</time>
      </trkpt>
      <trkpt lat="47.78156" lon="-3.55285">
        <ele>34</ele>
        <time>2018-07-14T12:10:03Z</time>
      </trkpt>
      <trkpt lat="47.78153" lon="-3.55287">
        <ele>34</ele>
        <time>2018-07-14T12:10:04Z</time>
      </trkpt>
      <trkpt lat="47.7815" lon="-3.55289">
        <ele>34</ele>
        <time>2018-07-14T12:10:05Z</time>
      </trkpt>
      <trkpt lat="47.78147" lon="-3.55291">
        <ele>34</ele>
        <time>2018-07-14T12:10:06Z</time>
      </trkpt>
      <trkpt lat="47.78144" lon="-3.55292">
        <ele>35</ele>
        <time>2018-07-14T12:10:07Z</time>
      </trkpt>
      <trkpt lat="47.78143" lon="-3.55294">
        <ele>35</ele>
        <time>2018-07-14T12:10:08Z</time>
      </trkpt>
      <trkpt lat="47.78141" lon="-3.55295">
        <ele>35</ele>
        <time>2018-07-14T12:10:09Z</time>
      </trkpt>
      <trkpt lat="47.7814" lon="-3.55295">
        <ele>35</ele>
        <time>2018-07-14T12:10:10Z</time>
      </trkpt>
      <trkpt lat="47.78139" lon="-3.55297">
        <ele>35</ele>
        <time>2018-07-14T12:10:11Z</time>
      </trkpt>
      <trkpt lat="47.78136" lon="-3.55297">
        <ele>35</ele>
        <time>2018-07-14T12:10:12Z</time>
      </trkpt>
      <trkpt lat="47.78134" lon="-3.55298">
        <ele>35</ele>
        <time>2018-07-14T12:10:13Z</time>
      </trkpt>
      <trkpt lat="47.78132" lon="-3.55299">
        <ele>35</ele>
        <time>2018-07-14T12:10:14Z</time>
      </trkpt>
      <trkpt lat="47.7813" lon="-3.55299">
        <ele>35</ele>
        <time>2018-07-14T12:10:15Z</time>
      </trkpt>
      <trkpt lat="47.78127" lon="-3.553">
        <ele>35</ele>
        <time>2018-07-14T12:10:16Z</time>
      </trkpt>
      <trkpt lat="47.78124" lon="-3.55301">
        <ele>35</ele>
        <time>2018-07-14T12:10:17Z</time>
      </trkpt>
      <trkpt lat="47.78121" lon="-3.55301">
        <ele>36</ele>
        <time>2018-07-14T12:10:18Z</time>
      </trkpt>
      <trkpt lat="47.78118" lon="-3.55302">
        <ele>36</ele>
        <time>2018-07-14T12:10:19Z</time>
      </trkpt>
      <trkpt lat="47.78115" lon="-3.55304">
        <ele>36</ele>
        <time>2018-07-14T12:10:20Z</time>
      </trkpt>
      <trkpt lat="47.78112" lon="-3.55304">
        <ele>36</ele>
        <time>2018-07-14T12:10:21Z</time>
      </trkpt>
      <trkpt lat="47.78108" lon="-3.55305">
        <ele>36</ele>
        <time>2018-07-14T12:10:22Z</time>
      </trkpt>
      <trkpt lat="47.78104" lon="-3.55306">
        <ele>36</ele>
        <time>2018-07-14T12:10:23Z</time>
      </trkpt>
      <trkpt lat="47.78101" lon="-3.55306">
        <ele>36</ele>
        <time>2018-07-14T12:10:24Z</time>
      </trkpt>
      <trkpt lat="47.78097" lon="-3.55307">
        <ele>36</ele>
        <time>2018-07-14T12:10:25Z</time>
      </trkpt>
      <trkpt lat="47.78094" lon="-3.55307">
        <ele>36</ele>
        <time>2018-07-14T12:10:26Z</time>
      </trkpt>
      <trkpt lat="47.78089" lon="-3.55306">
        <ele>36</ele>
        <time>2018-07-14T12:10:27Z</time>
      </trkpt>
      <trkpt lat="47.78085" lon="-3.55305">
        <ele>36</ele>
        <time>2018-07-14T12:10:28Z</time>
      </trkpt>
      <trkpt lat="47.78081" lon="-3.55305">
        <ele>36</ele>
        <time>2018-07-14T12:10:29Z</time>
      </trkpt>
      <trkpt lat="47.78076" lon="-3.55306">
        <ele>37</ele>
        <time>2018-07-14T12:10:30Z</time>
      </trkpt>
      <trkpt lat="47.78071" lon="-3.55307">
        <ele>37</ele>
        <time>2018-07-14T12:10:31Z</time>
      </trkpt>
      <trkpt lat="47.78067" lon="-3.55307">
        <ele>37</ele>
        <time>2018-07-14T12:10:32Z</time>
      </trkpt>
      <trkpt lat="47.78063" lon="-3.55307">
        <ele>37</ele>
        <time>2018-07-14T12:10:33Z</time>
      </trkpt>
      <trkpt lat="47.7806" lon="-3.55307">
        <ele>37</ele>
        <time>2018-07-14T12:10:34Z</time>
      </trkpt>
      <trkpt lat="47.78055" lon="-3.55307">
        <ele>37</ele>
        <time>2018-07-14T12:10:35Z</time>
      </trkpt>
      <trkpt lat="47.78051" lon="-3.55307">
        <ele>38</ele>
        <time>2018-07-14T12:10:36Z</time>
      </trkpt>
      <trkpt lat="47.78046" lon="-3.55308">
        <ele>38</ele>
        <time>2018-07-14T12:10:37Z</time>
      </trkpt>
      <trkpt lat="47.78041" lon="-3.5531">
        <ele>38</ele>
        <time>2018-07-14T12:10:38Z</time>
      </trkpt>
      <trkpt lat="47.78035" lon="-3.55312">
        <ele>38</ele>
        <time>2018-07-14T12:10:39Z</time>
      </trkpt>
      <trkpt lat="47.7803" lon="-3.55313">
        <ele>38</ele>
        <time>2018-07-14T12:10:40Z</time>
      </trkpt>
      <trkpt lat="47.78026" lon="-3.55315">
        <ele>39</ele>
        <time>2018-07-14T12:10:41Z</time>
      </trkpt>
      <trkpt lat="47.78022" lon="-3.55316">
        <ele>39</ele>
        <time>2018-07-14T12:10:42Z</time>
      </trkpt>
      <trkpt lat="47.78018" lon="-3.55317">
        <ele>39</ele>
        <time>2018-07-14T12:10:43Z</time>
      </trkpt>
      <trkpt lat="47.78013" lon="-3.55318">
        <ele>39</ele>
        <time>2018-07-14T12:10:44Z</time>
      </trkpt>
      <trkpt lat="47.78008" lon="-3.55319">
        <ele>39</ele>
        <time>2018-07-14T12:10:45Z</time>
      </trkpt>
      <trkpt lat="47.78003" lon="-3.55319">
        <ele>39</ele>
        <time>2018-07-14T12:10:46Z</time>
      </trkpt>
      <trkpt lat="47.77997" lon="-3.5532">
        <ele>40</ele>
        <time>2018-07-14T12:10:47Z</time>
      </trkpt>
      <trkpt lat="47.77991" lon="-3.55321">
        <ele>40</ele>
        <time>2018-07-14T12:10:48Z</time>
      </trkpt>
      <trkpt lat="47.77986" lon="-3.55321">
        <ele>40</ele>
        <time>2018-07-14T12:10:49Z</time>
      </trkpt>
      <trkpt lat="47.77979" lon="-3.55321">
        <ele>40</ele>
        <time>2018-07-14T12:10:50Z</time>
      </trkpt>
      <trkpt lat="47.77974" lon="-3.55321">
        <ele>40</ele>
        <time>2018-07-14T12:10:51Z</time>
      </trkpt>
      <trkpt lat="47.77968" lon="-3.55322">
        <ele>41</ele>
        <time>2018-07-14T12:10:52Z</time>
      </trkpt>
      <trkpt lat="47.77962" lon="-3.55322">
        <ele>41</ele>
        <time>2018-07-14T12:10:53Z</time>
      </trkpt>
      <trkpt lat="47.77957" lon="-3.55322">
        <ele>41</ele>
        <time>2018-07-14T12:10:54Z</time>
      </trkpt>
      <trkpt lat="47.77951" lon="-3.55322">
        <ele>41</ele>
        <time>2018-07-14T12:10:55Z</time>
      </trkpt>
      <trkpt lat="47.77945" lon="-3.55322">
        <ele>41</ele>
        <time>2018-07-14T12:10:56Z</time>
      </trkpt>
      <trkpt lat="47.77939" lon="-3.55322">
        <ele>41</ele>
        <time>2018-07-14T12:10:57Z</time>
      </trkpt>
      <trkpt lat="47.77934" lon="-3.55322">
        <ele>42</ele>
        <time>2018-07-14T12:10:58Z</time>
      </trkpt>
      <trkpt lat="47.77928" lon="-3.55324">
        <ele>42</ele>
        <time>2018-07-14T12:10:59Z</time>
      </trkpt>
      <trkpt lat="47.77921" lon="-3.55325">
        <ele>42</ele>
        <time>2018-07-14T12:11:00Z</time>
      </trkpt>
      <trkpt lat="47.77915" lon="-3.55327">
        <ele>42</ele>
        <time>2018-07-14T12:11:01Z</time>
      </trkpt>
      <trkpt lat="47.77909" lon="-3.55328">
        <ele>42</ele>
        <time>2018-07-14T12:11:02Z</time>
      </trkpt>
      <trkpt lat="47.77904" lon="-3.55328">
        <ele>42</ele>
        <time>2018-07-14T12:11:03Z</time>
      </trkpt>
      <trkpt lat="47.779" lon="-3.55329">
        <ele>42</ele>
        <time>2018-07-14T12:11:04Z</time>
      </trkpt>
      <trkpt lat="47.77897" lon="-3.5533">
        <ele>42</ele>
        <time>2018-07-14T12:11:05Z</time>
      </trkpt>
      <trkpt lat="47.77894" lon="-3.55329">
        <ele>42</ele>
        <time>2018-07-14T12:11:06Z</time>
      </trkpt>
      <trkpt lat="47.77891" lon="-3.55329">
        <ele>42</ele>
        <time>2018-07-14T12:11:07Z</time>
      </trkpt>
      <trkpt lat="47.77888" lon="-3.55329">
        <ele>42</ele>
        <time>2018-07-14T12:11:08Z</time>
      </trkpt>
      <trkpt lat="47.77884" lon="-3.55329">
        <ele>42</ele>
        <time>2018-07-14T12:11:09Z</time>
      </trkpt>
      <trkpt lat="47.7788" lon="-3.5533">
        <ele>42</ele>
        <time>2018-07-14T12:11:10Z</time>
      </trkpt>
      <trkpt lat="47.77876" lon="-3.5533">
        <ele>42</ele>
        <time>2018-07-14T12:11:11Z</time>
      </trkpt>
      <trkpt lat="47.77872" lon="-3.55329">
        <ele>42</ele>
        <time>2018-07-14T12:11:12Z</time>
      </trkpt>
      <trkpt lat="47.77867" lon="-3.5533">
        <ele>42</ele>
        <time>2018-07-14T12:11:13Z</time>
      </trkpt>
      <trkpt lat="47.77862" lon="-3.5533">
        <ele>42</ele>
        <time>2018-07-14T12:11:14Z</time>
      </trkpt>
      <trkpt lat="47.77857" lon="-3.5533">
        <ele>42</ele>
        <time>2018-07-14T12:11:15Z</time>
      </trkpt>
      <trkpt lat="47.77852" lon="-3.5533">
        <ele>42</ele>
        <time>2018-07-14T12:11:16Z</time>
      </trkpt>
      <trkpt lat="47.77848" lon="-3.5533">
        <ele>42</ele>
        <time>2018-07-14T12:11:17Z</time>
      </trkpt>
      <trkpt lat="47.77843" lon="-3.5533">
        <ele>42</ele>
        <time>2018-07-14T12:11:18Z</time>
      </trkpt>
      <trkpt lat="47.77838" lon="-3.55329">
        <ele>42</ele>
        <time>2018-07-14T12:11:19Z</time>
      </trkpt>
      <trkpt lat="47.77835" lon="-3.55328">
        <ele>42</ele>
        <time>2018-07-14T12:11:20Z</time>
      </trkpt>
      <trkpt lat="47.77831" lon="-3.55328">
        <ele>42</ele>
        <time>2018-07-14T12:11:21Z</time>
      </trkpt>
      <trkpt lat="47.77827" lon="-3.55328">
        <ele>42</ele>
        <time>2018-07-14T12:11:22Z</time>
      </trkpt>
      <trkpt lat="47.77823" lon="-3.55328">
        <ele>42</ele>
        <time>2018-07-14T12:11:23Z</time>
      </trkpt>
      <trkpt lat="47.77819" lon="-3.55328">
        <ele>43</ele>
        <time>2018-07-14T12:11:24Z</time>
      </trkpt>
      <trkpt lat="47.77815" lon="-3.55327">
        <ele>43</ele>
        <time>2018-07-14T12:11:25Z</time>
      </trkpt>
      <trkpt lat="47.77811" lon="-3.55326">
        <ele>43</ele>
        <time>2018-07-14T12:11:26Z</time>
      </trkpt>
      <trkpt lat="47.77807" lon="-3.55324">
        <ele>43</ele>
        <time>2018-07-14T12:11:27Z</time>
      </trkpt>
      <trkpt lat="47.77804" lon="-3.5532">
        <ele>43</ele>
        <time>2018-07-14T12:11:28Z</time>
      </trkpt>
      <trkpt lat="47.77802" lon="-3.55315">
        <ele>43</ele>
        <time>2018-07-14T12:11:29Z</time>
      </trkpt>
      <trkpt lat="47.77799" lon="-3.55312">
        <ele>43</ele>
        <time>2018-07-14T12:11:30Z</time>
      </trkpt>
      <trkpt lat="47.77797" lon="-3.55309">
        <ele>43</ele>
        <time>2018-07-14T12:11:31Z</time>
      </trkpt>
      <trkpt lat="47.77795" lon="-3.55307">
        <ele>43</ele>
        <time>2018-07-14T12:11:32Z</time>
      </trkpt>
      <trkpt lat="47.77791" lon="-3.55307">
        <ele>43</ele>
        <time>2018-07-14T12:11:33Z</time>
      </trkpt>
      <trkpt lat="47.77787" lon="-3.55308">
        <ele>43</ele>
        <time>2018-07-14T12:11:34Z</time>
      </trkpt>
      <trkpt lat="47.77782" lon="-3.55309">
        <ele>43</ele>
        <time>2018-07-14T12:11:35Z</time>
      </trkpt>
      <trkpt lat="47.77778" lon="-3.55311">
        <ele>43</ele>
        <time>2018-07-14T12:11:36Z</time>
      </trkpt>
      <trkpt lat="47.77773" lon="-3.55312">
        <ele>43</ele>
        <time>2018-07-14T12:11:37Z</time>
      </trkpt>
      <trkpt lat="47.77768" lon="-3.55314">
        <ele>43</ele>
        <time>2018-07-14T12:11:38Z</time>
      </trkpt>
      <trkpt lat="47.77763" lon="-3.55317">
        <ele>43</ele>
        <time>2018-07-14T12:11:39Z</time>
      </trkpt>
      <trkpt lat="47.77758" lon="-3.55321">
        <ele>43</ele>
        <time>2018-07-14T12:11:40Z</time>
      </trkpt>
      <trkpt lat="47.77753" lon="-3.55326">
        <ele>43</ele>
        <time>2018-07-14T12:11:41Z</time>
      </trkpt>
      <trkpt lat="47.77749" lon="-3.55331">
        <ele>43</ele>
        <time>2018-07-14T12:11:42Z</time>
      </trkpt>
      <trkpt lat="47.77745" lon="-3.55335">
        <ele>43</ele>
        <time>2018-07-14T12:11:43Z</time>
      </trkpt>
      <trkpt lat="47.7774" lon="-3.5534">
        <ele>43</ele>
        <time>2018-07-14T12:11:44Z</time>
      </trkpt>
      <trkpt lat="47.77735" lon="-3.55342">
        <ele>43</ele>
        <time>2018-07-14T12:11:45Z</time>
      </trkpt>
      <trkpt lat="47.77729" lon="-3.55344">
        <ele>43</ele>
        <time>2018-07-14T12:11:46Z</time>
      </trkpt>
      <trkpt lat="47.77724" lon="-3.55345">
        <ele>43</ele>
        <time>2018-07-14T12:11:47Z</time>
      </trkpt>
      <trkpt lat="47.77718" lon="-3.55346">
        <ele>43</ele>
        <time>2018-07-14T12:11:48Z</time>
      </trkpt>
      <trkpt lat="47.77713" lon="-3.55347">
        <ele>43</ele>
        <time>2018-07-14T12:11:49Z</time>
      </trkpt>
      <trkpt lat="47.77707" lon="-3.55347">
        <ele>43</ele>
        <time>2018-07-14T12:11:50Z</time>
      </trkpt>
      <trkpt lat="47.77702" lon="-3.55348">
        <ele>43</ele>
        <time>2018-07-14T12:11:51Z</time>
      </trkpt>
      <trkpt lat="47.77697" lon="-3.55348">
        <ele>43</ele>
        <time>2018-07-14T12:11:52Z</time>
      </trkpt>
      <trkpt lat="47.77692" lon="-3.55349">
        <ele>43</ele>
        <time>2018-07-14T12:11:53Z</time>
      </trkpt>
      <trkpt lat="47.77687" lon="-3.5535">
        <ele>43</ele>
        <time>2018-07-14T12:11:54Z</time>
      </trkpt>
      <trkpt lat="47.77683" lon="-3.5535">
        <ele>43</ele>
        <time>2018-07-14T12:11:55Z</time>
      </trkpt>
      <trkpt lat="47.7768" lon="-3.55351">
        <ele>43</ele>
        <time>2018-07-14T12:11:56Z</time>
      </trkpt>
      <trkpt lat="47.77676" lon="-3.55351">
        <ele>43</ele>
        <time>2018-07-14T12:11:57Z</time>
      </trkpt>
      <trkpt lat="47.77671" lon="-3.5535">
        <ele>43</ele>
        <time>2018-07-14T12:11:58Z</time>
      </trkpt>
      <trkpt lat="47.77667" lon="-3.5535">
        <ele>43</ele>
        <time>2018-07-14T12:11:59Z</time>
      </trkpt>
      <trkpt lat="47.77663" lon="-3.55349">
        <ele>43</ele>
        <time>2018-07-14T12:12:00Z</time>
      </trkpt>
      <trkpt lat="47.77658" lon="-3.55349">
        <ele>43</ele>
        <time>2018-07-14T12:12:01Z</time>
      </trkpt>
      <trkpt lat="47.77654" lon="-3.55349">
        <ele>43</ele>
        <time>2018-07-14T12:12:02Z</time>
      </trkpt>
      <trkpt lat="47.77651" lon="-3.5535">
        <ele>44</ele>
        <time>2018-07-14T12:12:03Z</time>
      </trkpt>
      <trkpt lat="47.77647" lon="-3.55351">
        <ele>44</ele>
        <time>2018-07-14T12:12:04Z</time>
      </trkpt>
      <trkpt lat="47.77644" lon="-3.55352">
        <ele>44</ele>
        <time>2018-07-14T12:12:05Z</time>
      </trkpt>
      <trkpt lat="47.77641" lon="-3.55354">
        <ele>44</ele>
        <time>2018-07-14T12:12:06Z</time>
      </trkpt>
      <trkpt lat="47.77637" lon="-3.55355">
        <ele>44</ele>
        <time>2018-07-14T12:12:07Z</time>
      </trkpt>
      <trkpt lat="47.77633" lon="-3.55357">
        <ele>43</ele>
        <time>2018-07-14T12:12:08Z</time>
      </trkpt>
      <trkpt lat="47.7763" lon="-3.55358">
        <ele>43</ele>
        <time>2018-07-14T12:12:09Z</time>
      </trkpt>
      <trkpt lat="47.77626" lon="-3.5536">
        <ele>43</ele>
        <time>2018-07-14T12:12:10Z</time>
      </trkpt>
      <trkpt lat="47.77622" lon="-3.55361">
        <ele>44</ele>
        <time>2018-07-14T12:12:11Z</time>
      </trkpt>
      <trkpt lat="47.77619" lon="-3.55362">
        <ele>43</ele>
        <time>2018-07-14T12:12:12Z</time>
      </trkpt>
      <trkpt lat="47.77615" lon="-3.55364">
        <ele>43</ele>
        <time>2018-07-14T12:12:13Z</time>
      </trkpt>
      <trkpt lat="47.77611" lon="-3.55365">
        <ele>43</ele>
        <time>2018-07-14T12:12:14Z</time>
      </trkpt>
      <trkpt lat="47.77606" lon="-3.55366">
        <ele>43</ele>
        <time>2018-07-14T12:12:15Z</time>
      </trkpt>
      <trkpt lat="47.77601" lon="-3.55368">
        <ele>44</ele>
        <time>2018-07-14T12:12:16Z</time>
      </trkpt>
      <trkpt lat="47.77596" lon="-3.55369">
        <ele>44</ele>
        <time>2018-07-14T12:12:17Z</time>
      </trkpt>
      <trkpt lat="47.77591" lon="-3.5537">
        <ele>44</ele>
        <time>2018-07-14T12:12:18Z</time>
      </trkpt>
      <trkpt lat="47.77586" lon="-3.55371">
        <ele>44</ele>
        <time>2018-07-14T12:12:19Z</time>
      </trkpt>
      <trkpt lat="47.77581" lon="-3.55371">
        <ele>44</ele>
        <time>2018-07-14T12:12:20Z</time>
      </trkpt>
      <trkpt lat="47.77577" lon="-3.55371">
        <ele>44</ele>
        <time>2018-07-14T12:12:21Z</time>
      </trkpt>
      <trkpt lat="47.77572" lon="-3.55371">
        <ele>44</ele>
        <time>2018-07-14T12:12:22Z</time>
      </trkpt>
      <trkpt lat="47.77567" lon="-3.55371">
        <ele>44</ele>
        <time>2018-07-14T12:12:23Z</time>
      </trkpt>
      <trkpt lat="47.77563" lon="-3.55371">
        <ele>44</ele>
        <time>2018-07-14T12:12:24Z</time>
      </trkpt>
      <trkpt lat="47.77558" lon="-3.55372">
        <ele>44</ele>
        <time>2018-07-14T12:12:25Z</time>
      </trkpt>
      <trkpt lat="47.77553" lon="-3.55373">
        <ele>44</ele>
        <time>2018-07-14T12:12:26Z</time>
      </trkpt>
      <trkpt lat="47.77548" lon="-3.55375">
        <ele>44</ele>
        <time>2018-07-14T12:12:27Z</time>
      </trkpt>
      <trkpt lat="47.77543" lon="-3.55377">
        <ele>44</ele>
        <time>2018-07-14T12:12:28Z</time>
      </trkpt>
      <trkpt lat="47.77537" lon="-3.55378">
        <ele>44</ele>
        <time>2018-07-14T12:12:29Z</time>
      </trkpt>
      <trkpt lat="47.77532" lon="-3.5538">
        <ele>44</ele>
        <time>2018-07-14T12:12:30Z</time>
      </trkpt>
      <trkpt lat="47.77526" lon="-3.55382">
        <ele>44</ele>
        <time>2018-07-14T12:12:31Z</time>
      </trkpt>
      <trkpt lat="47.77521" lon="-3.55384">
        <ele>44</ele>
        <time>2018-07-14T12:12:32Z</time>
      </trkpt>
      <trkpt lat="47.77515" lon="-3.55384">
        <ele>44</ele>
        <time>2018-07-14T12:12:33Z</time>
      </trkpt>
      <trkpt lat="47.7751" lon="-3.55384">
        <ele>44</ele>
        <time>2018-07-14T12:12:34Z</time>
      </trkpt>
      <trkpt lat="47.77505" lon="-3.55382">
        <ele>44</ele>
        <time>2018-07-14T12:12:35Z</time>
      </trkpt>
      <trkpt lat="47.775" lon="-3.55378">
        <ele>44</ele>
        <time>2018-07-14T12:12:36Z</time>
      </trkpt>
      <trkpt lat="47.77496" lon="-3.55375">
        <ele>44</ele>
        <time>2018-07-14T12:12:37Z</time>
      </trkpt>
      <trkpt lat="47.77492" lon="-3.55371">
        <ele>44</ele>
        <time>2018-07-14T12:12:38Z</time>
      </trkpt>
      <trkpt lat="47.77487" lon="-3.55367">
        <ele>44</ele>
        <time>2018-07-14T12:12:39Z</time>
      </trkpt>
      <trkpt lat="47.77483" lon="-3.55362">
        <ele>44</ele>
        <time>2018-07-14T12:12:40Z</time>
      </trkpt>
      <trkpt lat="47.77479" lon="-3.55357">
        <ele>44</ele>
        <time>2018-07-14T12:12:41Z</time>
      </trkpt>
      <trkpt lat="47.77475" lon="-3.55352">
        <ele>44</ele>
        <time>2018-07-14T12:12:42Z</time>
      </trkpt>
      <trkpt lat="47.77471" lon="-3.55347">
        <ele>44</ele>
        <time>2018-07-14T12:12:43Z</time>
      </trkpt>
      <trkpt lat="47.77467" lon="-3.55343">
        <ele>44</ele>
        <time>2018-07-14T12:12:44Z</time>
      </trkpt>
      <trkpt lat="47.77463" lon="-3.55337">
        <ele>44</ele>
        <time>2018-07-14T12:12:45Z</time>
      </trkpt>
      <trkpt lat="47.77458" lon="-3.55333">
        <ele>44</ele>
        <time>2018-07-14T12:12:46Z</time>
      </trkpt>
      <trkpt lat="47.77454" lon="-3.55329">
        <ele>44</ele>
        <time>2018-07-14T12:12:47Z</time>
      </trkpt>
      <trkpt lat="47.77449" lon="-3.55325">
        <ele>44</ele>
        <time>2018-07-14T12:12:48Z</time>
      </trkpt>
      <trkpt lat="47.77444" lon="-3.55321">
        <ele>44</ele>
        <time>2018-07-14T12:12:49Z</time>
      </trkpt>
      <trkpt lat="47.7744" lon="-3.55317">
        <ele>44</ele>
        <time>2018-07-14T12:12:50Z</time>
      </trkpt>
      <trkpt lat="47.77436" lon="-3.55312">
        <ele>44</ele>
        <time>2018-07-14T12:12:51Z</time>
      </trkpt>
      <trkpt lat="47.77431" lon="-3.55308">
        <ele>44</ele>
        <time>2018-07-14T12:12:52Z</time>
      </trkpt>
      <trkpt lat="47.77427" lon="-3.55303">
        <ele>44</ele>
        <time>2018-07-14T12:12:53Z</time>
      </trkpt>
      <trkpt lat="47.77423" lon="-3.55298">
        <ele>44</ele>
        <time>2018-07-14T12:12:54Z</time>
      </trkpt>
      <trkpt lat="47.77419" lon="-3.55294">
        <ele>44</ele>
        <time>2018-07-14T12:12:55Z</time>
      </trkpt>
      <trkpt lat="47.77415" lon="-3.5529">
        <ele>44</ele>
        <time>2018-07-14T12:12:56Z</time>
      </trkpt>
      <trkpt lat="47.77411" lon="-3.55285">
        <ele>44</ele>
        <time>2018-07-14T12:12:57Z</time>
      </trkpt>
      <trkpt lat="47.77408" lon="-3.5528">
        <ele>44</ele>
        <time>2018-07-14T12:12:58Z</time>
      </trkpt>
      <trkpt lat="47.77404" lon="-3.55276">
        <ele>44</ele>
        <time>2018-07-14T12:12:59Z</time>
      </trkpt>
      <trkpt lat="47.77399" lon="-3.55272">
        <ele>44</ele>
        <time>2018-07-14T12:13:00Z</time>
      </trkpt>
      <trkpt lat="47.77395" lon="-3.55267">
        <ele>44</ele>
        <time>2018-07-14T12:13:01Z</time>
      </trkpt>
      <trkpt lat="47.77391" lon="-3.55263">
        <ele>43</ele>
        <time>2018-07-14T12:13:02Z</time>
      </trkpt>
      <trkpt lat="47.77387" lon="-3.55258">
        <ele>43</ele>
        <time>2018-07-14T12:13:03Z</time>
      </trkpt>
      <trkpt lat="47.77382" lon="-3.55254">
        <ele>43</ele>
        <time>2018-07-14T12:13:04Z</time>
      </trkpt>
      <trkpt lat="47.77378" lon="-3.5525">
        <ele>43</ele>
        <time>2018-07-14T12:13:05Z</time>
      </trkpt>
      <trkpt lat="47.77375" lon="-3.55245">
        <ele>43</ele>
        <time>2018-07-14T12:13:06Z</time>
      </trkpt>
      <trkpt lat="47.77371" lon="-3.55241">
        <ele>43</ele>
        <time>2018-07-14T12:13:07Z</time>
      </trkpt>
      <trkpt lat="47.77366" lon="-3.55236">
        <ele>43</ele>
        <time>2018-07-14T12:13:08Z</time>
      </trkpt>
      <trkpt lat="47.77362" lon="-3.55232">
        <ele>43</ele>
        <time>2018-07-14T12:13:09Z</time>
      </trkpt>
      <trkpt lat="47.77358" lon="-3.55228">
        <ele>43</ele>
        <time>2018-07-14T12:13:10Z</time>
      </trkpt>
      <trkpt lat="47.77353" lon="-3.55224">
        <ele>43</ele>
        <time>2018-07-14T12:13:11Z</time>
      </trkpt>
      <trkpt lat="47.77349" lon="-3.5522">
        <ele>43</ele>
        <time>2018-07-14T12:13:12Z</time>
      </trkpt>
      <trkpt lat="47.77344" lon="-3.55216">
        <ele>43</ele>
        <time>2018-07-14T12:13:13Z</time>
      </trkpt>
      <trkpt lat="47.7734" lon="-3.55213">
        <ele>43</ele>
        <time>2018-07-14T12:13:14Z</time>
      </trkpt>
      <trkpt lat="47.77336" lon="-3.55209">
        <ele>43</ele>
        <time>2018-07-14T12:13:15Z</time>
      </trkpt>
      <trkpt lat="47.77331" lon="-3.55205">
        <ele>43</ele>
        <time>2018-07-14T12:13:16Z</time>
      </trkpt>
      <trkpt lat="47.77326" lon="-3.55203">
        <ele>43</ele>
        <time>2018-07-14T12:13:17Z</time>
      </trkpt>
      <trkpt lat="47.77321" lon="-3.552">
        <ele>44</ele>
        <time>2018-07-14T12:13:18Z</time>
      </trkpt>
      <trkpt lat="47.77316" lon="-3.55197">
        <ele>44</ele>
        <time>2018-07-14T12:13:19Z</time>
      </trkpt>
      <trkpt lat="47.77311" lon="-3.55195">
        <ele>44</ele>
        <time>2018-07-14T12:13:20Z</time>
      </trkpt>
      <trkpt lat="47.77306" lon="-3.55192">
        <ele>44</ele>
        <time>2018-07-14T12:13:21Z</time>
      </trkpt>
      <trkpt lat="47.77301" lon="-3.55189">
        <ele>44</ele>
        <time>2018-07-14T12:13:22Z</time>
      </trkpt>
      <trkpt lat="47.77297" lon="-3.55186">
        <ele>44</ele>
        <time>2018-07-14T12:13:23Z</time>
      </trkpt>
      <trkpt lat="47.77292" lon="-3.55184">
        <ele>44</ele>
        <time>2018-07-14T12:13:24Z</time>
      </trkpt>
      <trkpt lat="47.77287" lon="-3.55182">
        <ele>44</ele>
        <time>2018-07-14T12:13:25Z</time>
      </trkpt>
      <trkpt lat="47.77282" lon="-3.5518">
        <ele>44</ele>
        <time>2018-07-14T12:13:26Z</time>
      </trkpt>
      <trkpt lat="47.77278" lon="-3.55178">
        <ele>44</ele>
        <time>2018-07-14T12:13:27Z</time>
      </trkpt>
      <trkpt lat="47.77275" lon="-3.55177">
        <ele>44</ele>
        <time>2018-07-14T12:13:28Z</time>
      </trkpt>
      <trkpt lat="47.77271" lon="-3.55176">
        <ele>44</ele>
        <time>2018-07-14T12:13:29Z</time>
      </trkpt>
      <trkpt lat="47.77267" lon="-3.55173">
        <ele>44</ele>
        <time>2018-07-14T12:13:30Z</time>
      </trkpt>
      <trkpt lat="47.77262" lon="-3.55171">
        <ele>44</ele>
        <time>2018-07-14T12:13:31Z</time>
      </trkpt>
      <trkpt lat="47.77257" lon="-3.55168">
        <ele>43</ele>
        <time>2018-07-14T12:13:32Z</time>
      </trkpt>
      <trkpt lat="47.77252" lon="-3.55166">
        <ele>43</ele>
        <time>2018-07-14T12:13:33Z</time>
      </trkpt>
      <trkpt lat="47.77247" lon="-3.55163">
        <ele>43</ele>
        <time>2018-07-14T12:13:34Z</time>
      </trkpt>
      <trkpt lat="47.77241" lon="-3.5516">
        <ele>43</ele>
        <time>2018-07-14T12:13:35Z</time>
      </trkpt>
      <trkpt lat="47.77235" lon="-3.55157">
        <ele>42</ele>
        <time>2018-07-14T12:13:36Z</time>
      </trkpt>
      <trkpt lat="47.7723" lon="-3.55154">
        <ele>42</ele>
        <time>2018-07-14T12:13:37Z</time>
      </trkpt>
      <trkpt lat="47.77223" lon="-3.5515">
        <ele>42</ele>
        <time>2018-07-14T12:13:38Z</time>
      </trkpt>
      <trkpt lat="47.77217" lon="-3.55147">
        <ele>42</ele>
        <time>2018-07-14T12:13:39Z</time>
      </trkpt>
      <trkpt lat="47.77211" lon="-3.55143">
        <ele>41</ele>
        <time>2018-07-14T12:13:40Z</time>
      </trkpt>
      <trkpt lat="47.77204" lon="-3.55139">
        <ele>41</ele>
        <time>2018-07-14T12:13:41Z</time>
      </trkpt>
      <trkpt lat="47.77196" lon="-3.55136">
        <ele>41</ele>
        <time>2018-07-14T12:13:42Z</time>
      </trkpt>
      <trkpt lat="47.77189" lon="-3.55134">
        <ele>40</ele>
        <time>2018-07-14T12:13:43Z</time>
      </trkpt>
      <trkpt lat="47.77182" lon="-3.55131">
        <ele>40</ele>
        <time>2018-07-14T12:13:44Z</time>
      </trkpt>
      <trkpt lat="47.77175" lon="-3.55128">
        <ele>40</ele>
        <time>2018-07-14T12:13:45Z</time>
      </trkpt>
      <trkpt lat="47.77167" lon="-3.55125">
        <ele>39</ele>
        <time>2018-07-14T12:13:46Z</time>
      </trkpt>
      <trkpt lat="47.77159" lon="-3.55123">
        <ele>39</ele>
        <time>2018-07-14T12:13:47Z</time>
      </trkpt>
      <trkpt lat="47.77152" lon="-3.5512">
        <ele>39</ele>
        <time>2018-07-14T12:13:48Z</time>
      </trkpt>
      <trkpt lat="47.77144" lon="-3.55117">
        <ele>38</ele>
        <time>2018-07-14T12:13:49Z</time>
      </trkpt>
      <trkpt lat="47.77136" lon="-3.55115">
        <ele>38</ele>
        <time>2018-07-14T12:13:50Z</time>
      </trkpt>
      <trkpt lat="47.77128" lon="-3.55114">
        <ele>38</ele>
        <time>2018-07-14T12:13:51Z</time>
      </trkpt>
      <trkpt lat="47.77118" lon="-3.55113">
        <ele>38</ele>
        <time>2018-07-14T12:13:52Z</time>
      </trkpt>
      <trkpt lat="47.77109" lon="-3.55112">
        <ele>37</ele>
        <time>2018-07-14T12:13:53Z</time>
      </trkpt>
      <trkpt lat="47.77101" lon="-3.55112">
        <ele>37</ele>
        <time>2018-07-14T12:13:54Z</time>
      </trkpt>
      <trkpt lat="47.77092" lon="-3.55112">
        <ele>37</ele>
        <time>2018-07-14T12:13:55Z</time>
      </trkpt>
      <trkpt lat="47.77084" lon="-3.55112">
        <ele>37</ele>
        <time>2018-07-14T12:13:56Z</time>
      </trkpt>
      <trkpt lat="47.77076" lon="-3.55114">
        <ele>36</ele>
        <time>2018-07-14T12:13:57Z</time>
      </trkpt>
      <trkpt lat="47.77069" lon="-3.55115">
        <ele>36</ele>
        <time>2018-07-14T12:13:58Z</time>
      </trkpt>
      <trkpt lat="47.77061" lon="-3.55117">
        <ele>36</ele>
        <time>2018-07-14T12:13:59Z</time>
      </trkpt>
      <trkpt lat="47.77054" lon="-3.55118">
        <ele>36</ele>
        <time>2018-07-14T12:14:00Z</time>
      </trkpt>
      <trkpt lat="47.77047" lon="-3.55119">
        <ele>35</ele>
        <time>2018-07-14T12:14:01Z</time>
      </trkpt>
      <trkpt lat="47.77041" lon="-3.55118">
        <ele>35</ele>
        <time>2018-07-14T12:14:02Z</time>
      </trkpt>
      <trkpt lat="47.77035" lon="-3.55115">
        <ele>35</ele>
        <time>2018-07-14T12:14:03Z</time>
      </trkpt>
      <trkpt lat="47.77028" lon="-3.55112">
        <ele>35</ele>
        <time>2018-07-14T12:14:04Z</time>
      </trkpt>
      <trkpt lat="47.77021" lon="-3.5511">
        <ele>35</ele>
        <time>2018-07-14T12:14:05Z</time>
      </trkpt>
      <trkpt lat="47.77014" lon="-3.55108">
        <ele>35</ele>
        <time>2018-07-14T12:14:06Z</time>
      </trkpt>
      <trkpt lat="47.77007" lon="-3.55106">
        <ele>35</ele>
        <time>2018-07-14T12:14:07Z</time>
      </trkpt>
      <trkpt lat="47.77001" lon="-3.55104">
        <ele>35</ele>
        <time>2018-07-14T12:14:08Z</time>
      </trkpt>
      <trkpt lat="47.76996" lon="-3.55104">
        <ele>34</ele>
        <time>2018-07-14T12:14:09Z</time>
      </trkpt>
      <trkpt lat="47.76991" lon="-3.55103">
        <ele>34</ele>
        <time>2018-07-14T12:14:10Z</time>
      </trkpt>
      <trkpt lat="47.76986" lon="-3.55103">
        <ele>33</ele>
        <time>2018-07-14T12:14:11Z</time>
      </trkpt>
      <trkpt lat="47.76982" lon="-3.55102">
        <ele>33</ele>
        <time>2018-07-14T12:14:12Z</time>
      </trkpt>
      <trkpt lat="47.76978" lon="-3.55102">
        <ele>32</ele>
        <time>2018-07-14T12:14:13Z</time>
      </trkpt>
      <trkpt lat="47.76975" lon="-3.55101">
        <ele>32</ele>
        <time>2018-07-14T12:14:14Z</time>
      </trkpt>
      <trkpt lat="47.76972" lon="-3.551">
        <ele>32</ele>
        <time>2018-07-14T12:14:15Z</time>
      </trkpt>
      <trkpt lat="47.76969" lon="-3.55098">
        <ele>31</ele>
        <time>2018-07-14T12:14:16Z</time>
      </trkpt>
      <trkpt lat="47.76967" lon="-3.55097">
        <ele>31</ele>
        <time>2018-07-14T12:14:17Z</time>
      </trkpt>
      <trkpt lat="47.76967" lon="-3.55095">
        <ele>31</ele>
        <time>2018-07-14T12:14:18Z</time>
      </trkpt>
      <trkpt lat="47.76967" lon="-3.55095">
        <ele>30</ele>
        <time>2018-07-14T12:14:19Z</time>
      </trkpt>
      <trkpt lat="47.76968" lon="-3.55095">
        <ele>30</ele>
        <time>2018-07-14T12:14:20Z</time>
      </trkpt>
      <trkpt lat="47.76969" lon="-3.55096">
        <ele>30</ele>
        <time>2018-07-14T12:14:21Z</time>
      </trkpt>
      <trkpt lat="47.76969" lon="-3.55097">
        <ele>30</ele>
        <time>2018-07-14T12:14:22Z</time>
      </trkpt>
      <trkpt lat="47.76969" lon="-3.55097">
        <ele>29</ele>
        <time>2018-07-14T12:14:23Z</time>
      </trkpt>
      <trkpt lat="47.76968" lon="-3.55097">
        <ele>29</ele>
        <time>2018-07-14T12:14:24Z</time>
      </trkpt>
      <trkpt lat="47.76968" lon="-3.55097">
        <ele>29</ele>
        <time>2018-07-14T12:14:25Z</time>
      </trkpt>
      <trkpt lat="47.76968" lon="-3.55097">
        <ele>29</ele>
        <time>2018-07-14T12:14:26Z</time>
      </trkpt>
      <trkpt lat="47.76966" lon="-3.55097">
        <ele>28</ele>
        <time>2018-07-14T12:14:27Z</time>
      </trkpt>
      <trkpt lat="47.76965" lon="-3.55095">
        <ele>28</ele>
        <time>2018-07-14T12:14:28Z</time>
      </trkpt>
      <trkpt lat="47.76964" lon="-3.55094">
        <ele>28</ele>
        <time>2018-07-14T12:14:29Z</time>
      </trkpt>
      <trkpt lat="47.76962" lon="-3.55093">
        <ele>27</ele>
        <time>2018-07-14T12:14:30Z</time>
      </trkpt>
      <trkpt lat="47.76959" lon="-3.55091">
        <ele>27</ele>
        <time>2018-07-14T12:14:31Z</time>
      </trkpt>
      <trkpt lat="47.76957" lon="-3.55089">
        <ele>27</ele>
        <time>2018-07-14T12:14:32Z</time>
      </trkpt>
      <trkpt lat="47.76954" lon="-3.55088">
        <ele>27</ele>
        <time>2018-07-14T12:14:33Z</time>
      </trkpt>
      <trkpt lat="47.76951" lon="-3.55087">
        <ele>26</ele>
        <time>2018-07-14T12:14:34Z</time>
      </trkpt>
      <trkpt lat="47.76948" lon="-3.55085">
        <ele>26</ele>
        <time>2018-07-14T12:14:35Z</time>
      </trkpt>
      <trkpt lat="47.76944" lon="-3.55085">
        <ele>25</ele>
        <time>2018-07-14T12:14:36Z</time>
      </trkpt>
      <trkpt lat="47.76941" lon="-3.55083">
        <ele>25</ele>
        <time>2018-07-14T12:14:37Z</time>
      </trkpt>
      <trkpt lat="47.76937" lon="-3.55082">
        <ele>25</ele>
        <time>2018-07-14T12:14:38Z</time>
      </trkpt>
      <trkpt lat="47.76934" lon="-3.55082">
        <ele>24</ele>
        <time>2018-07-14T12:14:39Z</time>
      </trkpt>
      <trkpt lat="47.76931" lon="-3.55081">
        <ele>24</ele>
        <time>2018-07-14T12:14:40Z</time>
      </trkpt>
      <trkpt lat="47.76928" lon="-3.55082">
        <ele>23</ele>
        <time>2018-07-14T12:14:41Z</time>
      </trkpt>
      <trkpt lat="47.76924" lon="-3.55083">
        <ele>23</ele>
        <time>2018-07-14T12:14:42Z</time>
      </trkpt>
      <trkpt lat="47.7692" lon="-3.55085">
        <ele>22</ele>
        <time>2018-07-14T12:14:43Z</time>
      </trkpt>
      <trkpt lat="47.76916" lon="-3.55087">
        <ele>22</ele>
        <time>2018-07-14T12:14:44Z</time>
      </trkpt>
      <trkpt lat="47.76911" lon="-3.55091">
        <ele>22</ele>
        <time>2018-07-14T12:14:45Z</time>
      </trkpt>
      <trkpt lat="47.76906" lon="-3.55095">
        <ele>21</ele>
        <time>2018-07-14T12:14:46Z</time>
      </trkpt>
      <trkpt lat="47.76901" lon="-3.55101">
        <ele>21</ele>
        <time>2018-07-14T12:14:47Z</time>
      </trkpt>
      <trkpt lat="47.76896" lon="-3.55108">
        <ele>20</ele>
        <time>2018-07-14T12:14:48Z</time>
      </trkpt>
      <trkpt lat="47.76892" lon="-3.55115">
        <ele>19</ele>
        <time>2018-07-14T12:14:49Z</time>
      </trkpt>
      <trkpt lat="47.76888" lon="-3.55124">
        <ele>19</ele>
        <time>2018-07-14T12:14:50Z</time>
      </trkpt>
      <trkpt lat="47.76885" lon="-3.55133">
        <ele>19</ele>
        <time>2018-07-14T12:14:51Z</time>
      </trkpt>
      <trkpt lat="47.76882" lon="-3.55141">
        <ele>18</ele>
        <time>2018-07-14T12:14:52Z</time>
      </trkpt>
      <trkpt lat="47.76878" lon="-3.5515">
        <ele>18</ele>
        <time>2018-07-14T12:14:53Z</time>
      </trkpt>
      <trkpt lat="47.76875" lon="-3.55159">
        <ele>18</ele>
        <time>2018-07-14T12:14:54Z</time>
      </trkpt>
      <trkpt lat="47.76871" lon="-3.55167">
        <ele>17</ele>
        <time>2018-07-14T12:14:55Z</time>
      </trkpt>
      <trkpt lat="47.76867" lon="-3.55174">
        <ele>17</ele>
        <time>2018-07-14T12:14:56Z</time>
      </trkpt>
      <trkpt lat="47.76864" lon="-3.55182">
        <ele>17</ele>
        <time>2018-07-14T12:14:57Z</time>
      </trkpt>
      <trkpt lat="47.76861" lon="-3.55189">
        <ele>17</ele>
        <time>2018-07-14T12:14:58Z</time>
      </trkpt>
      <trkpt lat="47.76858" lon="-3.55195">
        <ele>17</ele>
        <time>2018-07-14T12:14:59Z</time>
      </trkpt>
      <trkpt lat="47.76855" lon="-3.55201">
        <ele>17</ele>
        <time>2018-07-14T12:15:00Z</time>
      </trkpt>
      <trkpt lat="47.76852" lon="-3.55205">
        <ele>16</ele>
        <time>2018-07-14T12:15:01Z</time>
      </trkpt>
      <trkpt lat="47.76848" lon="-3.55209">
        <ele>16</ele>
        <time>2018-07-14T12:15:02Z</time>
      </trkpt>
      <trkpt lat="47.76846" lon="-3.55211">
        <ele>16</ele>
        <time>2018-07-14T12:15:03Z</time>
      </trkpt>
      <trkpt lat="47.76843" lon="-3.55215">
        <ele>16</ele>
        <time>2018-07-14T12:15:04Z</time>
      </trkpt>
      <trkpt lat="47.76841" lon="-3.55218">
        <ele>15</ele>
        <time>2018-07-14T12:15:05Z</time>
      </trkpt>
      <trkpt lat="47.76839" lon="-3.5522">
        <ele>15</ele>
        <time>2018-07-14T12:15:06Z</time>
      </trkpt>
      <trkpt lat="47.76838" lon="-3.55223">
        <ele>15</ele>
        <time>2018-07-14T12:15:07Z</time>
      </trkpt>
      <trkpt lat="47.76837" lon="-3.55226">
        <ele>14</ele>
        <time>2018-07-14T12:15:08Z</time>
      </trkpt>
      <trkpt lat="47.76837" lon="-3.55227">
        <ele>14</ele>
        <time>2018-07-14T12:15:09Z</time>
      </trkpt>
      <trkpt lat="47.76837" lon="-3.55227">
        <ele>14</ele>
        <time>2018-07-14T12:15:10Z</time>
      </trkpt>
      <trkpt lat="47.76837" lon="-3.55227">
        <ele>14</ele>
        <time>2018-07-14T12:15:11Z</time>
      </trkpt>
      <trkpt lat="47.76837" lon="-3.55227">
        <ele>14</ele>
        <time>2018-07-14T12:15:12Z</time>
      </trkpt>
    </trkseg>
  </trk>
  <trk>
    <name><![CDATA[Guidel]]></name>
    <trkseg>
      <trkpt lat="47.79006" lon="-3.48851">
        <ele>47.213467</ele>
      </trkpt>
      <trkpt lat="47.79006" lon="-3.48896">
        <ele>46.19886</ele>
      </trkpt>
      <trkpt lat="47.78992" lon="-3.48906">
        <ele>46.181149</ele>
      </trkpt>
      <trkpt lat="47.78946" lon="-3.48882">
        <ele>47.504375</ele>
      </trkpt>
      <trkpt lat="47.78937" lon="-3.48867">
        <ele>47.508751</ele>
      </trkpt>
      <trkpt lat="47.78938" lon="-3.48846">
        <ele>47.869999</ele>
      </trkpt>
      <trkpt lat="47.78935" lon="-3.4887">
        <ele>47.431564</ele>
      </trkpt>
      <trkpt lat="47.78913" lon="-3.48899">
        <ele>46.49844</ele>
      </trkpt>
      <trkpt lat="47.78892" lon="-3.48908">
        <ele>45.854885</ele>
      </trkpt>
      <trkpt lat="47.78836" lon="-3.48913">
        <ele>43.960186</ele>
      </trkpt>
      <trkpt lat="47.78735" lon="-3.48907">
        <ele>38.696465</ele>
      </trkpt>
      <trkpt lat="47.78685" lon="-3.4891">
        <ele>37.569687</ele>
      </trkpt>
      <trkpt lat="47.78674" lon="-3.48905">
        <ele>37.273315</ele>
      </trkpt>
      <trkpt lat="47.78557" lon="-3.48947">
        <ele>39.029037</ele>
      </trkpt>
      <trkpt lat="47.78506" lon="-3.48942">
        <ele>40.488655</ele>
      </trkpt>
      <trkpt lat="47.78493" lon="-3.48945">
        <ele>40.619095</ele>
      </trkpt>
      <trkpt lat="47.78484" lon="-3.48962">
        <ele>40.120625</ele>
      </trkpt>
      <trkpt lat="47.78473" lon="-3.49035">
        <ele>39</ele>
      </trkpt>
      <trkpt lat="47.78458" lon="-3.49104">
        <ele>39.342476</ele>
      </trkpt>
      <trkpt lat="47.7841" lon="-3.49106">
        <ele>39.267422</ele>
      </trkpt>
      <trkpt lat="47.78379" lon="-3.49121">
        <ele>38.091671</ele>
      </trkpt>
      <trkpt lat="47.78352" lon="-3.49152">
        <ele>35.008011</ele>
      </trkpt>
      <trkpt lat="47.78338" lon="-3.49151">
        <ele>33.806873</ele>
      </trkpt>
      <trkpt lat="47.7832" lon="-3.49055">
        <ele>35.710007</ele>
      </trkpt>
      <trkpt lat="47.78308" lon="-3.4904">
        <ele>35.119999</ele>
      </trkpt>
      <trkpt lat="47.78263" lon="-3.49064">
        <ele>30.922926</ele>
      </trkpt>
      <trkpt lat="47.78256" lon="-3.49082">
        <ele>29.34</ele>
      </trkpt>
      <trkpt lat="47.78265" lon="-3.49124">
        <ele>27.646063</ele>
      </trkpt>
      <trkpt lat="47.78272" lon="-3.4917">
        <ele>25.743538</ele>
      </trkpt>
      <trkpt lat="47.78278" lon="-3.494">
        <ele>20.748125</ele>
      </trkpt>
      <trkpt lat="47.78284" lon="-3.49422">
        <ele>20.54483</ele>
      </trkpt>
      <trkpt lat="47.78296" lon="-3.49442">
        <ele>20.187574</ele>
      </trkpt>
      <trkpt lat="47.78301" lon="-3.49494">
        <ele>17.632944</ele>
      </trkpt>
      <trkpt lat="47.78305" lon="-3.49521">
        <ele>16.346123</ele>
      </trkpt>
      <trkpt lat="47.78317" lon="-3.49566">
        <ele>15.294484</ele>
      </trkpt>
      <trkpt lat="47.78353" lon="-3.49604">
        <ele>15.665</ele>
      </trkpt>
      <trkpt lat="47.78395" lon="-3.49629">
        <ele>16.625</ele>
      </trkpt>
      <trkpt lat="47.784" lon="-3.4965">
        <ele>16.75</ele>
      </trkpt>
      <trkpt lat="47.78374" lon="-3.49706">
        <ele>16.245001</ele>
      </trkpt>
      <trkpt lat="47.78379" lon="-3.49725">
        <ele>16.389376</ele>
      </trkpt>
      <trkpt lat="47.78392" lon="-3.49713">
        <ele>16.65</ele>
      </trkpt>
      <trkpt lat="47.78401" lon="-3.49695">
        <ele>16.83</ele>
      </trkpt>
      <trkpt lat="47.78415" lon="-3.49691">
        <ele>17</ele>
      </trkpt>
      <trkpt lat="47.78416" lon="-3.49705">
        <ele>17</ele>
      </trkpt>
      <trkpt lat="47.78418" lon="-3.49734">
        <ele>17.117413</ele>
      </trkpt>
      <trkpt lat="47.78401" lon="-3.49836">
        <ele>19.922287</ele>
      </trkpt>
      <trkpt lat="47.78403" lon="-3.49859">
        <ele>20.985937</ele>
      </trkpt>
      <trkpt lat="47.78365" lon="-3.50048">
        <ele>27.733749</ele>
      </trkpt>
      <trkpt lat="47.78374" lon="-3.50068">
        <ele>28.194782</ele>
      </trkpt>
      <trkpt lat="47.78406" lon="-3.50079">
        <ele>27.8134</ele>
      </trkpt>
      <trkpt lat="47.78412" lon="-3.50056">
        <ele>27.385338</ele>
      </trkpt>
      <trkpt lat="47.78431" lon="-3.50012">
        <ele>26.253</ele>
      </trkpt>
      <trkpt lat="47.78475" lon="-3.50027">
        <ele>23.8825</ele>
      </trkpt>
      <trkpt lat="47.78517" lon="-3.50035">
        <ele>20.335312</ele>
      </trkpt>
      <trkpt lat="47.7855" lon="-3.50033">
        <ele>18.838438</ele>
      </trkpt>
      <trkpt lat="47.78553" lon="-3.50054">
        <ele>19.057188</ele>
      </trkpt>
      <trkpt lat="47.78556" lon="-3.50148">
        <ele>21.307812</ele>
      </trkpt>
      <trkpt lat="47.78536" lon="-3.50187">
        <ele>22.713242</ele>
      </trkpt>
      <trkpt lat="47.78526" lon="-3.50295">
        <ele>23.558325</ele>
      </trkpt>
      <trkpt lat="47.78539" lon="-3.5029">
        <ele>22.995104</ele>
      </trkpt>
      <trkpt lat="47.78529" lon="-3.50305">
        <ele>23.474363</ele>
      </trkpt>
      <trkpt lat="47.78527" lon="-3.50327">
        <ele>23.593996</ele>
      </trkpt>
      <trkpt lat="47.78509" lon="-3.50438">
        <ele>25.858963</ele>
      </trkpt>
      <trkpt lat="47.78496" lon="-3.50476">
        <ele>28.116543</ele>
      </trkpt>
      <trkpt lat="47.78494" lon="-3.505">
        <ele>30.925474</ele>
      </trkpt>
      <trkpt lat="47.78484" lon="-3.50513">
        <ele>32.275227</ele>
      </trkpt>
      <trkpt lat="47.78497" lon="-3.50519">
        <ele>33.298904</ele>
      </trkpt>
      <trkpt lat="47.78524" lon="-3.50521">
        <ele>33.807499</ele>
      </trkpt>
      <trkpt lat="47.78566" lon="-3.50549">
        <ele>37.59375</ele>
      </trkpt>
      <trkpt lat="47.78595" lon="-3.50557">
        <ele>38.384773</ele>
      </trkpt>
      <trkpt lat="47.78607" lon="-3.50573">
        <ele>39.38995</ele>
      </trkpt>
      <trkpt lat="47.78614" lon="-3.50593">
        <ele>41.113785</ele>
      </trkpt>
      <trkpt lat="47.78626" lon="-3.50605">
        <ele>42.111263</ele>
      </trkpt>
      <trkpt lat="47.78626" lon="-3.50626">
        <ele>44.192711</ele>
      </trkpt>
      <trkpt lat="47.7864" lon="-3.50633">
        <ele>44.333488</ele>
      </trkpt>
      <trkpt lat="47.78646" lon="-3.50656">
        <ele>45.286049</ele>
      </trkpt>
      <trkpt lat="47.78655" lon="-3.50672">
        <ele>45.993313</ele>
      </trkpt>
      <trkpt lat="47.78662" lon="-3.50654">
        <ele>44.91452</ele>
      </trkpt>
      <trkpt lat="47.78676" lon="-3.50638">
        <ele>43.690464</ele>
      </trkpt>
      <trkpt lat="47.78724" lon="-3.50617">
        <ele>38.949158</ele>
      </trkpt>
      <trkpt lat="47.78742" lon="-3.5062">
        <ele>39.17194</ele>
      </trkpt>
      <trkpt lat="47.78773" lon="-3.50635">
        <ele>40.669922</ele>
      </trkpt>
      <trkpt lat="47.788" lon="-3.50632">
        <ele>39.863674</ele>
      </trkpt>
      <trkpt lat="47.7885" lon="-3.5065">
        <ele>41.409462</ele>
      </trkpt>
      <trkpt lat="47.78904" lon="-3.50659">
        <ele>43.683277</ele>
      </trkpt>
      <trkpt lat="47.78925" lon="-3.50657">
        <ele>45.220345</ele>
      </trkpt>
      <trkpt lat="47.78962" lon="-3.50633">
        <ele>47.509377</ele>
      </trkpt>
      <trkpt lat="47.78983" lon="-3.50597">
        <ele>48.063751</ele>
      </trkpt>
      <trkpt lat="47.79" lon="-3.5059">
        <ele>48.607502</ele>
      </trkpt>
      <trkpt lat="47.79063" lon="-3.50635">
        <ele>47.812973</ele>
      </trkpt>
      <trkpt lat="47.79096" lon="-3.50648">
        <ele>47.256405</ele>
      </trkpt>
      <trkpt lat="47.79154" lon="-3.50644">
        <ele>42.959999</ele>
      </trkpt>
      <trkpt lat="47.79204" lon="-3.50663">
        <ele>42.42643</ele>
      </trkpt>
      <trkpt lat="47.7925" lon="-3.50674">
        <ele>44.315548</ele>
      </trkpt>
      <trkpt lat="47.79241" lon="-3.5065">
        <ele>43.137096</ele>
      </trkpt>
      <trkpt lat="47.79208" lon="-3.50591">
        <ele>39.918861</ele>
      </trkpt>
      <trkpt lat="47.79185" lon="-3.50562">
        <ele>37.991856</ele>
      </trkpt>
      <trkpt lat="47.79143" lon="-3.50532">
        <ele>33.541252</ele>
      </trkpt>
      <trkpt lat="47.79115" lon="-3.50519">
        <ele>32.880611</ele>
      </trkpt>
      <trkpt lat="47.79111" lon="-3.50496">
        <ele>32.041908</ele>
      </trkpt>
      <trkpt lat="47.79112" lon="-3.50451">
        <ele>29.986563</ele>
      </trkpt>
      <trkpt lat="47.79118" lon="-3.50434">
        <ele>29.161562</ele>
      </trkpt>
      <trkpt lat="47.79117" lon="-3.50416">
        <ele>28.357187</ele>
      </trkpt>
      <trkpt lat="47.79107" lon="-3.50376">
        <ele>27.301153</ele>
      </trkpt>
      <trkpt lat="47.79095" lon="-3.50347">
        <ele>26.359238</ele>
      </trkpt>
      <trkpt lat="47.79092" lon="-3.50328">
        <ele>27.194933</ele>
      </trkpt>
      <trkpt lat="47.79096" lon="-3.50308">
        <ele>29.430325</ele>
      </trkpt>
      <trkpt lat="47.79129" lon="-3.50314">
        <ele>30.457541</ele>
      </trkpt>
      <trkpt lat="47.79198" lon="-3.50286">
        <ele>32.693428</ele>
      </trkpt>
      <trkpt lat="47.79214" lon="-3.50277">
        <ele>33.675747</ele>
      </trkpt>
      <trkpt lat="47.79223" lon="-3.50263">
        <ele>35.148487</ele>
      </trkpt>
      <trkpt lat="47.79229" lon="-3.50238">
        <ele>37.697433</ele>
      </trkpt>
      <trkpt lat="47.79252" lon="-3.50194">
        <ele>39.716564</ele>
      </trkpt>
      <trkpt lat="47.79321" lon="-3.50134">
        <ele>39.193264</ele>
      </trkpt>
      <trkpt lat="47.79358" lon="-3.50114">
        <ele>40.387348</ele>
      </trkpt>
      <trkpt lat="47.79373" lon="-3.50099">
        <ele>41.773125</ele>
      </trkpt>
      <trkpt lat="47.79381" lon="-3.50159">
        <ele>38.869499</ele>
      </trkpt>
      <trkpt lat="47.79382" lon="-3.50189">
        <ele>38.164158</ele>
      </trkpt>
      <trkpt lat="47.79403" lon="-3.50332">
        <ele>33.800938</ele>
      </trkpt>
      <trkpt lat="47.79419" lon="-3.50395">
        <ele>32.548382</ele>
      </trkpt>
      <trkpt lat="47.79462" lon="-3.50508">
        <ele>42.86348</ele>
      </trkpt>
      <trkpt lat="47.7949" lon="-3.50508">
        <ele>45.808861</ele>
      </trkpt>
      <trkpt lat="47.79518" lon="-3.50517">
        <ele>48.992924</ele>
      </trkpt>
      <trkpt lat="47.79559" lon="-3.50532">
        <ele>53.228195</ele>
      </trkpt>
      <trkpt lat="47.79585" lon="-3.50514">
        <ele>55.412502</ele>
      </trkpt>
      <trkpt lat="47.79674" lon="-3.50502">
        <ele>54.504013</ele>
      </trkpt>
      <trkpt lat="47.79743" lon="-3.50486">
        <ele>57.619896</ele>
      </trkpt>
      <trkpt lat="47.79751" lon="-3.50471">
        <ele>57.314205</ele>
      </trkpt>
      <trkpt lat="47.79759" lon="-3.50409">
        <ele>52.582638</ele>
      </trkpt>
      <trkpt lat="47.79766" lon="-3.504">
        <ele>52.858925</ele>
      </trkpt>
      <trkpt lat="47.79775" lon="-3.50416">
        <ele>54.567871</ele>
      </trkpt>
      <trkpt lat="47.79805" lon="-3.50417">
        <ele>57.092609</ele>
      </trkpt>
      <trkpt lat="47.79834" lon="-3.50395">
        <ele>57.673023</ele>
      </trkpt>
      <trkpt lat="47.79864" lon="-3.50384">
        <ele>58.085098</ele>
      </trkpt>
      <trkpt lat="47.79895" lon="-3.50383">
        <ele>56.362518</ele>
      </trkpt>
      <trkpt lat="47.79909" lon="-3.50384">
        <ele>55.488155</ele>
      </trkpt>
      <trkpt lat="47.79945" lon="-3.504">
        <ele>51.156754</ele>
      </trkpt>
      <trkpt lat="47.79981" lon="-3.50399">
        <ele>47.546951</ele>
      </trkpt>
      <trkpt lat="47.8009" lon="-3.50437">
        <ele>41.884998</ele>
      </trkpt>
      <trkpt lat="47.80122" lon="-3.50392">
        <ele>41.240002</ele>
      </trkpt>
      <trkpt lat="47.80135" lon="-3.50384">
        <ele>41</ele>
      </trkpt>
      <trkpt lat="47.80201" lon="-3.50387">
        <ele>41.52</ele>
      </trkpt>
      <trkpt lat="47.80255" lon="-3.50399">
        <ele>42.73</ele>
      </trkpt>
      <trkpt lat="47.80323" lon="-3.50408">
        <ele>45.720627</ele>
      </trkpt>
      <trkpt lat="47.80425" lon="-3.50408">
        <ele>50.5</ele>
      </trkpt>
      <trkpt lat="47.8051" lon="-3.50378">
        <ele>51.907188</ele>
      </trkpt>
      <trkpt lat="47.80524" lon="-3.50381">
        <ele>51.813591</ele>
      </trkpt>
      <trkpt lat="47.80522" lon="-3.50458">
        <ele>49.825108</ele>
      </trkpt>
      <trkpt lat="47.80509" lon="-3.50578">
        <ele>42.403095</ele>
      </trkpt>
      <trkpt lat="47.80471" lon="-3.50714">
        <ele>44.345516</ele>
      </trkpt>
      <trkpt lat="47.80453" lon="-3.50816">
        <ele>43.934063</ele>
      </trkpt>
      <trkpt lat="47.80466" lon="-3.50861">
        <ele>41.510937</ele>
      </trkpt>
      <trkpt lat="47.80465" lon="-3.50966">
        <ele>33.014431</ele>
      </trkpt>
      <trkpt lat="47.80477" lon="-3.50974">
        <ele>31.796141</ele>
      </trkpt>
      <trkpt lat="47.80491" lon="-3.50972">
        <ele>30.311853</ele>
      </trkpt>
      <trkpt lat="47.80506" lon="-3.50932">
        <ele>31.038237</ele>
      </trkpt>
      <trkpt lat="47.80518" lon="-3.50917">
        <ele>30.5266</ele>
      </trkpt>
      <trkpt lat="47.80531" lon="-3.50912">
        <ele>28.551849</ele>
      </trkpt>
      <trkpt lat="47.80572" lon="-3.50918">
        <ele>26.700937</ele>
      </trkpt>
      <trkpt lat="47.80566" lon="-3.50899">
        <ele>25.567951</ele>
      </trkpt>
      <trkpt lat="47.80587" lon="-3.50812">
        <ele>29.383488</ele>
      </trkpt>
      <trkpt lat="47.80591" lon="-3.5077">
        <ele>30.813749</ele>
      </trkpt>
      <trkpt lat="47.80614" lon="-3.50753">
        <ele>34.895576</ele>
      </trkpt>
      <trkpt lat="47.80618" lon="-3.50741">
        <ele>35.475273</ele>
      </trkpt>
      <trkpt lat="47.8062" lon="-3.50717">
        <ele>36.104488</ele>
      </trkpt>
      <trkpt lat="47.80626" lon="-3.50696">
        <ele>36.236267</ele>
      </trkpt>
      <trkpt lat="47.80638" lon="-3.50684">
        <ele>36.500023</ele>
      </trkpt>
      <trkpt lat="47.80653" lon="-3.5068">
        <ele>37.180637</ele>
      </trkpt>
      <trkpt lat="47.80666" lon="-3.50678">
        <ele>37.637188</ele>
      </trkpt>
      <trkpt lat="47.80681" lon="-3.50684">
        <ele>38.042187</ele>
      </trkpt>
      <trkpt lat="47.80701" lon="-3.50698">
        <ele>38.656563</ele>
      </trkpt>
      <trkpt lat="47.80723" lon="-3.50657">
        <ele>38.044998</ele>
      </trkpt>
      <trkpt lat="47.80821" lon="-3.50521">
        <ele>37.404999</ele>
      </trkpt>
      <trkpt lat="47.80831" lon="-3.50506">
        <ele>37.625</ele>
      </trkpt>
      <trkpt lat="47.8083" lon="-3.50552">
        <ele>37.758686</ele>
      </trkpt>
      <trkpt lat="47.80839" lon="-3.5062">
        <ele>38</ele>
      </trkpt>
      <trkpt lat="47.80849" lon="-3.5066">
        <ele>37.805</ele>
      </trkpt>
      <trkpt lat="47.80878" lon="-3.50669">
        <ele>37.165001</ele>
      </trkpt>
      <trkpt lat="47.80881" lon="-3.50695">
        <ele>37.365757</ele>
      </trkpt>
      <trkpt lat="47.80878" lon="-3.50749">
        <ele>37.46418</ele>
      </trkpt>
      <trkpt lat="47.80866" lon="-3.50887">
        <ele>30.600824</ele>
      </trkpt>
      <trkpt lat="47.80846" lon="-3.51019">
        <ele>34.515705</ele>
      </trkpt>
      <trkpt lat="47.80848" lon="-3.5107">
        <ele>38.907501</ele>
      </trkpt>
      <trkpt lat="47.80834" lon="-3.51161">
        <ele>40.924587</ele>
      </trkpt>
      <trkpt lat="47.80833" lon="-3.51203">
        <ele>41.999851</ele>
      </trkpt>
      <trkpt lat="47.80843" lon="-3.51221">
        <ele>43.06884</ele>
      </trkpt>
      <trkpt lat="47.80876" lon="-3.51223">
        <ele>44.266602</ele>
      </trkpt>
      <trkpt lat="47.8101" lon="-3.51247">
        <ele>45.760162</ele>
      </trkpt>
      <trkpt lat="47.81046" lon="-3.51253">
        <ele>45.437813</ele>
      </trkpt>
      <trkpt lat="47.81113" lon="-3.51266">
        <ele>45.527813</ele>
      </trkpt>
      <trkpt lat="47.81127" lon="-3.51256">
        <ele>45.338749</ele>
      </trkpt>
      <trkpt lat="47.81137" lon="-3.51161">
        <ele>42.908443</ele>
      </trkpt>
      <trkpt lat="47.81223" lon="-3.5089">
        <ele>35.445</ele>
      </trkpt>
      <trkpt lat="47.81251" lon="-3.50785">
        <ele>33.080158</ele>
      </trkpt>
      <trkpt lat="47.81266" lon="-3.5074">
        <ele>32.722553</ele>
      </trkpt>
      <trkpt lat="47.81281" lon="-3.50738">
        <ele>32.910751</ele>
      </trkpt>
      <trkpt lat="47.81364" lon="-3.50827">
        <ele>30.228296</ele>
      </trkpt>
      <trkpt lat="47.81398" lon="-3.50851">
        <ele>29.300625</ele>
      </trkpt>
      <trkpt lat="47.81464" lon="-3.50878">
        <ele>29.197453</ele>
      </trkpt>
      <trkpt lat="47.81479" lon="-3.50875">
        <ele>29.419132</ele>
      </trkpt>
      <trkpt lat="47.81523" lon="-3.50834">
        <ele>31.205</ele>
      </trkpt>
      <trkpt lat="47.8156" lon="-3.50789">
        <ele>32.603466</ele>
      </trkpt>
      <trkpt lat="47.81593" lon="-3.5074">
        <ele>34.26125</ele>
      </trkpt>
      <trkpt lat="47.81619" lon="-3.50686">
        <ele>35.958752</ele>
      </trkpt>
      <trkpt lat="47.8165" lon="-3.50534">
        <ele>37.421387</ele>
      </trkpt>
      <trkpt lat="47.81671" lon="-3.50405">
        <ele>39.250313</ele>
      </trkpt>
      <trkpt lat="47.81691" lon="-3.50378">
        <ele>39.687813</ele>
      </trkpt>
      <trkpt lat="47.81694" lon="-3.50357">
        <ele>40.00415</ele>
      </trkpt>
      <trkpt lat="47.81701" lon="-3.50335">
        <ele>40.098572</ele>
      </trkpt>
      <trkpt lat="47.81721" lon="-3.50299">
        <ele>39.880001</ele>
      </trkpt>
      <trkpt lat="47.81725" lon="-3.50278">
        <ele>39.805</ele>
      </trkpt>
      <trkpt lat="47.81727" lon="-3.50233">
        <ele>39.82</ele>
      </trkpt>
      <trkpt lat="47.81749" lon="-3.50171">
        <ele>38.853199</ele>
      </trkpt>
      <trkpt lat="47.81775" lon="-3.50141">
        <ele>38.1782</ele>
      </trkpt>
      <trkpt lat="47.81793" lon="-3.50137">
        <ele>37.682243</ele>
      </trkpt>
      <trkpt lat="47.81842" lon="-3.5009">
        <ele>36.906876</ele>
      </trkpt>
      <trkpt lat="47.81875" lon="-3.50012">
        <ele>37.654133</ele>
      </trkpt>
      <trkpt lat="47.81889" lon="-3.50004">
        <ele>37.270538</ele>
      </trkpt>
      <trkpt lat="47.81973" lon="-3.4999">
        <ele>33.255287</ele>
      </trkpt>
      <trkpt lat="47.82064" lon="-3.50001">
        <ele>35.118847</ele>
      </trkpt>
      <trkpt lat="47.8234" lon="-3.50063">
        <ele>45.189716</ele>
      </trkpt>
      <trkpt lat="47.824" lon="-3.50072">
        <ele>44.469971</ele>
      </trkpt>
      <trkpt lat="47.82499" lon="-3.50027">
        <ele>46.579826</ele>
      </trkpt>
      <trkpt lat="47.82513" lon="-3.50026">
        <ele>46.864223</ele>
      </trkpt>
      <trkpt lat="47.82543" lon="-3.50042">
        <ele>46.465</ele>
      </trkpt>
      <trkpt lat="47.82586" lon="-3.50079">
        <ele>45.28228</ele>
      </trkpt>
      <trkpt lat="47.82619" lon="-3.50087">
        <ele>45.48867</ele>
      </trkpt>
      <trkpt lat="47.82633" lon="-3.50104">
        <ele>45.431236</ele>
      </trkpt>
      <trkpt lat="47.82657" lon="-3.50173">
        <ele>45.564159</ele>
      </trkpt>
      <trkpt lat="47.82675" lon="-3.50246">
        <ele>45.664249</ele>
      </trkpt>
      <trkpt lat="47.82676" lon="-3.50297">
        <ele>45.945595</ele>
      </trkpt>
      <trkpt lat="47.82672" lon="-3.50392">
        <ele>47.205624</ele>
      </trkpt>
      <trkpt lat="47.82658" lon="-3.50462">
        <ele>47.968719</ele>
      </trkpt>
      <trkpt lat="47.82654" lon="-3.5051">
        <ele>48</ele>
      </trkpt>
      <trkpt lat="47.82666" lon="-3.50521">
        <ele>48</ele>
      </trkpt>
      <trkpt lat="47.82714" lon="-3.50531">
        <ele>48.400002</ele>
      </trkpt>
      <trkpt lat="47.82721" lon="-3.50549">
        <ele>48.584999</ele>
      </trkpt>
      <trkpt lat="47.82735" lon="-3.50564">
        <ele>48.900002</ele>
      </trkpt>
      <trkpt lat="47.82765" lon="-3.50566">
        <ele>49.57</ele>
      </trkpt>
      <trkpt lat="47.82778" lon="-3.50581">
        <ele>49.884998</ele>
      </trkpt>
      <trkpt lat="47.82778" lon="-3.50629">
        <ele>49.939999</ele>
      </trkpt>
      <trkpt lat="47.82793" lon="-3.50668">
        <ele>50</ele>
      </trkpt>
      <trkpt lat="47.82798" lon="-3.5071">
        <ele>49.335392</ele>
      </trkpt>
      <trkpt lat="47.82805" lon="-3.50732">
        <ele>48.980751</ele>
      </trkpt>
      <trkpt lat="47.82811" lon="-3.50777">
        <ele>48.000626</ele>
      </trkpt>
      <trkpt lat="47.82823" lon="-3.50812">
        <ele>47.174999</ele>
      </trkpt>
      <trkpt lat="47.82826" lon="-3.5084">
        <ele>46.826775</ele>
      </trkpt>
      <trkpt lat="47.82829" lon="-3.50891">
        <ele>46.777599</ele>
      </trkpt>
      <trkpt lat="47.82823" lon="-3.50911">
        <ele>46.793201</ele>
      </trkpt>
      <trkpt lat="47.8282" lon="-3.5098">
        <ele>47.259998</ele>
      </trkpt>
      <trkpt lat="47.82841" lon="-3.51116">
        <ele>45.449688</ele>
      </trkpt>
      <trkpt lat="47.82846" lon="-3.51142">
        <ele>45.201252</ele>
      </trkpt>
      <trkpt lat="47.82876" lon="-3.5122">
        <ele>45.759998</ele>
      </trkpt>
      <trkpt lat="47.8294" lon="-3.51403">
        <ele>46.634724</ele>
      </trkpt>
      <trkpt lat="47.82954" lon="-3.51497">
        <ele>45.065937</ele>
      </trkpt>
      <trkpt lat="47.82958" lon="-3.5152">
        <ele>45.220501</ele>
      </trkpt>
      <trkpt lat="47.82958" lon="-3.51545">
        <ele>45.579094</ele>
      </trkpt>
      <trkpt lat="47.82952" lon="-3.51598">
        <ele>45.859299</ele>
      </trkpt>
      <trkpt lat="47.82922" lon="-3.51703">
        <ele>48.945</ele>
      </trkpt>
      <trkpt lat="47.82888" lon="-3.51805">
        <ele>56.763611</ele>
      </trkpt>
      <trkpt lat="47.82889" lon="-3.51829">
        <ele>58.430889</ele>
      </trkpt>
      <trkpt lat="47.82897" lon="-3.51847">
        <ele>59.573936</ele>
      </trkpt>
      <trkpt lat="47.8291" lon="-3.51865">
        <ele>60.600761</ele>
      </trkpt>
      <trkpt lat="47.82952" lon="-3.51905">
        <ele>63.301662</ele>
      </trkpt>
      <trkpt lat="47.83023" lon="-3.51958">
        <ele>64.883347</ele>
      </trkpt>
      <trkpt lat="47.83063" lon="-3.51997">
        <ele>65.809013</ele>
      </trkpt>
      <trkpt lat="47.83099" lon="-3.52037">
        <ele>65.869804</ele>
      </trkpt>
      <trkpt lat="47.83149" lon="-3.52118">
        <ele>66.045395</ele>
      </trkpt>
      <trkpt lat="47.83173" lon="-3.52144">
        <ele>65.16539</ele>
      </trkpt>
      <trkpt lat="47.83171" lon="-3.52219">
        <ele>64.22892</ele>
      </trkpt>
      <trkpt lat="47.83153" lon="-3.52408">
        <ele>61.49321</ele>
      </trkpt>
      <trkpt lat="47.83161" lon="-3.52507">
        <ele>57.04187</ele>
      </trkpt>
      <trkpt lat="47.83159" lon="-3.52541">
        <ele>55.088799</ele>
      </trkpt>
      <trkpt lat="47.83132" lon="-3.52603">
        <ele>53.168659</ele>
      </trkpt>
      <trkpt lat="47.83119" lon="-3.5267">
        <ele>54.663288</ele>
      </trkpt>
      <trkpt lat="47.83116" lon="-3.5272">
        <ele>54.509216</ele>
      </trkpt>
      <trkpt lat="47.83117" lon="-3.52768">
        <ele>54.752438</ele>
      </trkpt>
      <trkpt lat="47.83123" lon="-3.52811">
        <ele>55.891445</ele>
      </trkpt>
      <trkpt lat="47.83122" lon="-3.52832">
        <ele>56.810604</ele>
      </trkpt>
      <trkpt lat="47.83195" lon="-3.52856">
        <ele>63.322498</ele>
      </trkpt>
      <trkpt lat="47.83341" lon="-3.52919">
        <ele>63.759037</ele>
      </trkpt>
      <trkpt lat="47.83348" lon="-3.5294">
        <ele>64.652206</ele>
      </trkpt>
      <trkpt lat="47.83339" lon="-3.52984">
        <ele>66.973717</ele>
      </trkpt>
      <trkpt lat="47.83321" lon="-3.53018">
        <ele>68.721054</ele>
      </trkpt>
      <trkpt lat="47.83308" lon="-3.5308">
        <ele>69.003609</ele>
      </trkpt>
      <trkpt lat="47.83311" lon="-3.53128">
        <ele>66.606987</ele>
      </trkpt>
      <trkpt lat="47.83357" lon="-3.53218">
        <ele>58.924999</ele>
      </trkpt>
      <trkpt lat="47.83399" lon="-3.53293">
        <ele>47.2146</ele>
      </trkpt>
      <trkpt lat="47.83384" lon="-3.53305">
        <ele>46.985973</ele>
      </trkpt>
      <trkpt lat="47.83342" lon="-3.53311">
        <ele>48.694798</ele>
      </trkpt>
      <trkpt lat="47.83282" lon="-3.53338">
        <ele>47.504543</ele>
      </trkpt>
      <trkpt lat="47.83236" lon="-3.53347">
        <ele>47.268192</ele>
      </trkpt>
      <trkpt lat="47.83222" lon="-3.53353">
        <ele>46.799686</ele>
      </trkpt>
      <trkpt lat="47.83194" lon="-3.53378">
        <ele>44.402813</ele>
      </trkpt>
      <trkpt lat="47.83186" lon="-3.53396">
        <ele>42.584064</ele>
      </trkpt>
      <trkpt lat="47.83195" lon="-3.53414">
        <ele>41.224255</ele>
      </trkpt>
      <trkpt lat="47.8323" lon="-3.53455">
        <ele>34.895939</ele>
      </trkpt>
      <trkpt lat="47.83249" lon="-3.53468">
        <ele>31.367594</ele>
      </trkpt>
      <trkpt lat="47.833" lon="-3.53522">
        <ele>25.657801</ele>
      </trkpt>
      <trkpt lat="47.8336" lon="-3.53561">
        <ele>18.962481</ele>
      </trkpt>
      <trkpt lat="47.8339" lon="-3.53569">
        <ele>18.54575</ele>
      </trkpt>
      <trkpt lat="47.83405" lon="-3.53567">
        <ele>18.168512</ele>
      </trkpt>
      <trkpt lat="47.83452" lon="-3.53581">
        <ele>14.228427</ele>
      </trkpt>
      <trkpt lat="47.83467" lon="-3.53573">
        <ele>13.07951</ele>
      </trkpt>
      <trkpt lat="47.83476" lon="-3.53555">
        <ele>13.052854</ele>
      </trkpt>
      <trkpt lat="47.83506" lon="-3.53422">
        <ele>22.26758</ele>
      </trkpt>
      <trkpt lat="47.83561" lon="-3.53371">
        <ele>31.689161</ele>
      </trkpt>
      <trkpt lat="47.83575" lon="-3.5338">
        <ele>32.902554</ele>
      </trkpt>
      <trkpt lat="47.83605" lon="-3.53435">
        <ele>30.538778</ele>
      </trkpt>
      <trkpt lat="47.83636" lon="-3.53459">
        <ele>31.0439</ele>
      </trkpt>
      <trkpt lat="47.8366" lon="-3.53485">
        <ele>28.016493</ele>
      </trkpt>
      <trkpt lat="47.8369" lon="-3.53504">
        <ele>25.070625</ele>
      </trkpt>
      <trkpt lat="47.83699" lon="-3.53519">
        <ele>21.928749</ele>
      </trkpt>
      <trkpt lat="47.83714" lon="-3.5353">
        <ele>19.762913</ele>
      </trkpt>
      <trkpt lat="47.83749" lon="-3.53534">
        <ele>14.735532</ele>
      </trkpt>
      <trkpt lat="47.83782" lon="-3.53521">
        <ele>10.861012</ele>
      </trkpt>
      <trkpt lat="47.83794" lon="-3.5351">
        <ele>9.229512</ele>
      </trkpt>
      <trkpt lat="47.83806" lon="-3.53494">
        <ele>7.291525</ele>
      </trkpt>
      <trkpt lat="47.8381" lon="-3.53474">
        <ele>6.92875</ele>
      </trkpt>
      <trkpt lat="47.83821" lon="-3.53455">
        <ele>7.2962</ele>
      </trkpt>
      <trkpt lat="47.83858" lon="-3.53413">
        <ele>4.001431</ele>
      </trkpt>
      <trkpt lat="47.83878" lon="-3.53369">
        <ele>5.47668</ele>
      </trkpt>
      <trkpt lat="47.8389" lon="-3.53357">
        <ele>5.148994</ele>
      </trkpt>
      <trkpt lat="47.8389" lon="-3.53362">
        <ele>4.990589</ele>
      </trkpt>
      <trkpt lat="47.83905" lon="-3.53354">
        <ele>4.06235</ele>
      </trkpt>
      <trkpt lat="47.83914" lon="-3.53336">
        <ele>3.86</ele>
      </trkpt>
      <trkpt lat="47.83897" lon="-3.5327">
        <ele>6.997188</ele>
      </trkpt>
      <trkpt lat="47.83888" lon="-3.53252">
        <ele>10.548075</ele>
      </trkpt>
      <trkpt lat="47.83887" lon="-3.5323">
        <ele>13.609225</ele>
      </trkpt>
      <trkpt lat="47.83911" lon="-3.53197">
        <ele>10.249144</ele>
      </trkpt>
      <trkpt lat="47.83945" lon="-3.53078">
        <ele>10.361969</ele>
      </trkpt>
      <trkpt lat="47.8396" lon="-3.53071">
        <ele>8.528984</ele>
      </trkpt>
      <trkpt lat="47.83983" lon="-3.53014">
        <ele>9.662112</ele>
      </trkpt>
      <trkpt lat="47.8402" lon="-3.5293">
        <ele>13.922675</ele>
      </trkpt>
      <trkpt lat="47.84077" lon="-3.5282">
        <ele>18.64547</ele>
      </trkpt>
      <trkpt lat="47.84083" lon="-3.52775">
        <ele>21.486538</ele>
      </trkpt>
      <trkpt lat="47.84092" lon="-3.52775">
        <ele>20.879938</ele>
      </trkpt>
      <trkpt lat="47.84102" lon="-3.52764">
        <ele>21.174143</ele>
      </trkpt>
      <trkpt lat="47.84146" lon="-3.52734">
        <ele>18.739441</ele>
      </trkpt>
      <trkpt lat="47.84154" lon="-3.52715">
        <ele>19.297169</ele>
      </trkpt>
      <trkpt lat="47.8418" lon="-3.52731">
        <ele>15.53616</ele>
      </trkpt>
      <trkpt lat="47.84211" lon="-3.52759">
        <ele>9.053101</ele>
      </trkpt>
      <trkpt lat="47.84214" lon="-3.52739">
        <ele>10.875175</ele>
      </trkpt>
      <trkpt lat="47.84212" lon="-3.52713">
        <ele>14.397449</ele>
      </trkpt>
      <trkpt lat="47.84217" lon="-3.52684">
        <ele>16.717052</ele>
      </trkpt>
      <trkpt lat="47.84289" lon="-3.52597">
        <ele>5.441082</ele>
      </trkpt>
      <trkpt lat="47.84293" lon="-3.52584">
        <ele>5.56275</ele>
      </trkpt>
      <trkpt lat="47.84293" lon="-3.52565">
        <ele>8.060804</ele>
      </trkpt>
      <trkpt lat="47.84286" lon="-3.52546">
        <ele>9.413852</ele>
      </trkpt>
      <trkpt lat="47.8425" lon="-3.52498">
        <ele>12.425128</ele>
      </trkpt>
      <trkpt lat="47.84245" lon="-3.52477">
        <ele>16.260574</ele>
      </trkpt>
      <trkpt lat="47.84203" lon="-3.52442">
        <ele>16.230949</ele>
      </trkpt>
      <trkpt lat="47.84182" lon="-3.52414">
        <ele>20.045925</ele>
      </trkpt>
      <trkpt lat="47.84158" lon="-3.52385">
        <ele>22.204063</ele>
      </trkpt>
      <trkpt lat="47.84142" lon="-3.52351">
        <ele>22.16301</ele>
      </trkpt>
      <trkpt lat="47.84131" lon="-3.52337">
        <ele>23.643221</ele>
      </trkpt>
      <trkpt lat="47.8408" lon="-3.52294">
        <ele>25.0825</ele>
      </trkpt>
      <trkpt lat="47.84047" lon="-3.52252">
        <ele>30.809</ele>
      </trkpt>
      <trkpt lat="47.84032" lon="-3.52246">
        <ele>31.535469</ele>
      </trkpt>
      <trkpt lat="47.8402" lon="-3.52234">
        <ele>32.19603</ele>
      </trkpt>
      <trkpt lat="47.84016" lon="-3.52253">
        <ele>31.223312</ele>
      </trkpt>
      <trkpt lat="47.84026" lon="-3.52273">
        <ele>29.31222</ele>
      </trkpt>
      <trkpt lat="47.84091" lon="-3.52345">
        <ele>26.717094</ele>
      </trkpt>
      <trkpt lat="47.84098" lon="-3.52367">
        <ele>25.8675</ele>
      </trkpt>
      <trkpt lat="47.84091" lon="-3.52388">
        <ele>29.793602</ele>
      </trkpt>
      <trkpt lat="47.84092" lon="-3.52411">
        <ele>31.705954</ele>
      </trkpt>
      <trkpt lat="47.84109" lon="-3.5245">
        <ele>30.359983</ele>
      </trkpt>
      <trkpt lat="47.84119" lon="-3.52493">
        <ele>34.336006</ele>
      </trkpt>
      <trkpt lat="47.84149" lon="-3.52555">
        <ele>31.669798</ele>
      </trkpt>
      <trkpt lat="47.84154" lon="-3.52576">
        <ele>31.296654</ele>
      </trkpt>
      <trkpt lat="47.84157" lon="-3.5261">
        <ele>28.416649</ele>
      </trkpt>
      <trkpt lat="47.84139" lon="-3.52646">
        <ele>25.987537</ele>
      </trkpt>
      <trkpt lat="47.8413" lon="-3.52669">
        <ele>24.63287</ele>
      </trkpt>
      <trkpt lat="47.84118" lon="-3.52682">
        <ele>24.483582</ele>
      </trkpt>
      <trkpt lat="47.84065" lon="-3.52721">
        <ele>27.290001</ele>
      </trkpt>
      <trkpt lat="47.84002" lon="-3.52789">
        <ele>30.103437</ele>
      </trkpt>
      <trkpt lat="47.83903" lon="-3.52865">
        <ele>37.0755</ele>
      </trkpt>
      <trkpt lat="47.83852" lon="-3.52913">
        <ele>41.826015</ele>
      </trkpt>
      <trkpt lat="47.83845" lon="-3.52892">
        <ele>43.422558</ele>
      </trkpt>
      <trkpt lat="47.83827" lon="-3.52783">
        <ele>44.129791</ele>
      </trkpt>
      <trkpt lat="47.83804" lon="-3.52703">
        <ele>45.463581</ele>
      </trkpt>
      <trkpt lat="47.838" lon="-3.52679">
        <ele>45.919334</ele>
      </trkpt>
      <trkpt lat="47.838" lon="-3.52654">
        <ele>46.347813</ele>
      </trkpt>
      <trkpt lat="47.83776" lon="-3.5254">
        <ele>47.810001</ele>
      </trkpt>
      <trkpt lat="47.8377" lon="-3.5249">
        <ele>46.821251</ele>
      </trkpt>
      <trkpt lat="47.83752" lon="-3.52399">
        <ele>43.723125</ele>
      </trkpt>
      <trkpt lat="47.83735" lon="-3.52327">
        <ele>39.997711</ele>
      </trkpt>
      <trkpt lat="47.83726" lon="-3.52307">
        <ele>41.221821</ele>
      </trkpt>
      <trkpt lat="47.83713" lon="-3.52303">
        <ele>42.607105</ele>
      </trkpt>
      <trkpt lat="47.83686" lon="-3.52289">
        <ele>45.617039</ele>
      </trkpt>
      <trkpt lat="47.83641" lon="-3.52288">
        <ele>48.535141</ele>
      </trkpt>
      <trkpt lat="47.83624" lon="-3.52291">
        <ele>49.079952</ele>
      </trkpt>
      <trkpt lat="47.83579" lon="-3.52312">
        <ele>51.422771</ele>
      </trkpt>
      <trkpt lat="47.83536" lon="-3.52321">
        <ele>54.46085</ele>
      </trkpt>
      <trkpt lat="47.83492" lon="-3.52306">
        <ele>54.87125</ele>
      </trkpt>
      <trkpt lat="47.83465" lon="-3.52301">
        <ele>54.221249</ele>
      </trkpt>
      <trkpt lat="47.83438" lon="-3.52279">
        <ele>52.738403</ele>
      </trkpt>
      <trkpt lat="47.83393" lon="-3.52255">
        <ele>52.480431</ele>
      </trkpt>
      <trkpt lat="47.8335" lon="-3.52256">
        <ele>53.450001</ele>
      </trkpt>
      <trkpt lat="47.8329" lon="-3.52228">
        <ele>53.747356</ele>
      </trkpt>
      <trkpt lat="47.83245" lon="-3.52196">
        <ele>59.776875</ele>
      </trkpt>
      <trkpt lat="47.83236" lon="-3.52181">
        <ele>60.613968</ele>
      </trkpt>
      <trkpt lat="47.83179" lon="-3.52148">
        <ele>64.824188</ele>
      </trkpt>
      <trkpt lat="47.83165" lon="-3.52147">
        <ele>65.520546</ele>
      </trkpt>
      <trkpt lat="47.83101" lon="-3.52211">
        <ele>67.344955</ele>
      </trkpt>
      <trkpt lat="47.83071" lon="-3.52234">
        <ele>67.102417</ele>
      </trkpt>
      <trkpt lat="47.82934" lon="-3.52363">
        <ele>56.144638</ele>
      </trkpt>
      <trkpt lat="47.82879" lon="-3.52409">
        <ele>57.700001</ele>
      </trkpt>
      <trkpt lat="47.8287" lon="-3.52429">
        <ele>58.025002</ele>
      </trkpt>
      <trkpt lat="47.82871" lon="-3.52451">
        <ele>57.949516</ele>
      </trkpt>
      <trkpt lat="47.82885" lon="-3.52498">
        <ele>57.61079</ele>
      </trkpt>
      <trkpt lat="47.82892" lon="-3.52541">
        <ele>57.400002</ele>
      </trkpt>
      <trkpt lat="47.82886" lon="-3.52561">
        <ele>57.514999</ele>
      </trkpt>
      <trkpt lat="47.82814" lon="-3.52592">
        <ele>56.294022</ele>
      </trkpt>
      <trkpt lat="47.82756" lon="-3.52619">
        <ele>53.005424</ele>
      </trkpt>
      <trkpt lat="47.82708" lon="-3.5263">
        <ele>52.545788</ele>
      </trkpt>
      <trkpt lat="47.82651" lon="-3.52633">
        <ele>52.078121</ele>
      </trkpt>
      <trkpt lat="47.82525" lon="-3.52672">
        <ele>49.55658</ele>
      </trkpt>
      <trkpt lat="47.8251" lon="-3.52679">
        <ele>49.12299</ele>
      </trkpt>
      <trkpt lat="47.82513" lon="-3.52708">
        <ele>48.045158</ele>
      </trkpt>
      <trkpt lat="47.82556" lon="-3.52792">
        <ele>45.226875</ele>
      </trkpt>
      <trkpt lat="47.82594" lon="-3.52858">
        <ele>45.041744</ele>
      </trkpt>
      <trkpt lat="47.82601" lon="-3.52907">
        <ele>45.665001</ele>
      </trkpt>
      <trkpt lat="47.82625" lon="-3.52946">
        <ele>47.374767</ele>
      </trkpt>
      <trkpt lat="47.82634" lon="-3.52969">
        <ele>47.909355</ele>
      </trkpt>
      <trkpt lat="47.82639" lon="-3.53012">
        <ele>48.080624</ele>
      </trkpt>
      <trkpt lat="47.82634" lon="-3.53078">
        <ele>49.02375</ele>
      </trkpt>
      <trkpt lat="47.82631" lon="-3.53126">
        <ele>49.725624</ele>
      </trkpt>
      <trkpt lat="47.82615" lon="-3.53255">
        <ele>47.921101</ele>
      </trkpt>
      <trkpt lat="47.82604" lon="-3.53405">
        <ele>42.881874</ele>
      </trkpt>
      <trkpt lat="47.82589" lon="-3.5357">
        <ele>44.112602</ele>
      </trkpt>
      <trkpt lat="47.82603" lon="-3.53608">
        <ele>45.446251</ele>
      </trkpt>
      <trkpt lat="47.82601" lon="-3.53629">
        <ele>45.090313</ele>
      </trkpt>
      <trkpt lat="47.82582" lon="-3.53689">
        <ele>41.868889</ele>
      </trkpt>
      <trkpt lat="47.82582" lon="-3.53756">
        <ele>38.164925</ele>
      </trkpt>
      <trkpt lat="47.82576" lon="-3.53776">
        <ele>36.483002</ele>
      </trkpt>
      <trkpt lat="47.82547" lon="-3.53768">
        <ele>34.137497</ele>
      </trkpt>
      <trkpt lat="47.82526" lon="-3.53803">
        <ele>28.71184</ele>
      </trkpt>
      <trkpt lat="47.82526" lon="-3.53824">
        <ele>24.130136</ele>
      </trkpt>
      <trkpt lat="47.8252" lon="-3.53842">
        <ele>20.019501</ele>
      </trkpt>
      <trkpt lat="47.82525" lon="-3.53861">
        <ele>15.831838</ele>
      </trkpt>
      <trkpt lat="47.82516" lon="-3.53878">
        <ele>12.946563</ele>
      </trkpt>
      <trkpt lat="47.82426" lon="-3.53873">
        <ele>13.3821</ele>
      </trkpt>
      <trkpt lat="47.82411" lon="-3.5387">
        <ele>13.455897</ele>
      </trkpt>
      <trkpt lat="47.82396" lon="-3.53855">
        <ele>15.309387</ele>
      </trkpt>
      <trkpt lat="47.82372" lon="-3.53821">
        <ele>17.455807</ele>
      </trkpt>
      <trkpt lat="47.82345" lon="-3.53792">
        <ele>18.510574</ele>
      </trkpt>
      <trkpt lat="47.82331" lon="-3.53791">
        <ele>16.203249</ele>
      </trkpt>
      <trkpt lat="47.82322" lon="-3.53773">
        <ele>16.887127</ele>
      </trkpt>
      <trkpt lat="47.82324" lon="-3.53749">
        <ele>18.969851</ele>
      </trkpt>
      <trkpt lat="47.82291" lon="-3.53701">
        <ele>16.420109</ele>
      </trkpt>
      <trkpt lat="47.82274" lon="-3.53665">
        <ele>12.268439</ele>
      </trkpt>
      <trkpt lat="47.82279" lon="-3.53645">
        <ele>12.649321</ele>
      </trkpt>
      <trkpt lat="47.82291" lon="-3.53633">
        <ele>15.0478</ele>
      </trkpt>
      <trkpt lat="47.82291" lon="-3.53587">
        <ele>12.178836</ele>
      </trkpt>
      <trkpt lat="47.82297" lon="-3.53563">
        <ele>13.634344</ele>
      </trkpt>
      <trkpt lat="47.82289" lon="-3.53545">
        <ele>15.615281</ele>
      </trkpt>
      <trkpt lat="47.82316" lon="-3.53533">
        <ele>19.533281</ele>
      </trkpt>
      <trkpt lat="47.82303" lon="-3.53531">
        <ele>18.966093</ele>
      </trkpt>
      <trkpt lat="47.82274" lon="-3.53555">
        <ele>11.42875</ele>
      </trkpt>
      <trkpt lat="47.82255" lon="-3.53591">
        <ele>8.7592</ele>
      </trkpt>
      <trkpt lat="47.82247" lon="-3.5357">
        <ele>9.50945</ele>
      </trkpt>
      <trkpt lat="47.82244" lon="-3.53548">
        <ele>12.488281</ele>
      </trkpt>
      <trkpt lat="47.82214" lon="-3.535">
        <ele>12.263375</ele>
      </trkpt>
      <trkpt lat="47.82228" lon="-3.53461">
        <ele>15.674606</ele>
      </trkpt>
      <trkpt lat="47.82237" lon="-3.53417">
        <ele>16.9118</ele>
      </trkpt>
      <trkpt lat="47.82225" lon="-3.53437">
        <ele>15.294427</ele>
      </trkpt>
      <trkpt lat="47.82211" lon="-3.53449">
        <ele>13.477162</ele>
      </trkpt>
      <trkpt lat="47.82193" lon="-3.5344">
        <ele>11.848937</ele>
      </trkpt>
      <trkpt lat="47.82144" lon="-3.53342">
        <ele>25.285028</ele>
      </trkpt>
      <trkpt lat="47.82097" lon="-3.533">
        <ele>24.004601</ele>
      </trkpt>
      <trkpt lat="47.82069" lon="-3.53267">
        <ele>23.645332</ele>
      </trkpt>
      <trkpt lat="47.82028" lon="-3.53243">
        <ele>21.886219</ele>
      </trkpt>
      <trkpt lat="47.82018" lon="-3.53203">
        <ele>28.955006</ele>
      </trkpt>
      <trkpt lat="47.82007" lon="-3.53189">
        <ele>28.895882</ele>
      </trkpt>
      <trkpt lat="47.81973" lon="-3.53153">
        <ele>30.240974</ele>
      </trkpt>
      <trkpt lat="47.81968" lon="-3.53173">
        <ele>27.792601</ele>
      </trkpt>
      <trkpt lat="47.81955" lon="-3.5318">
        <ele>27.126825</ele>
      </trkpt>
      <trkpt lat="47.81947" lon="-3.53198">
        <ele>25.833515</ele>
      </trkpt>
      <trkpt lat="47.81946" lon="-3.53221">
        <ele>23.398504</ele>
      </trkpt>
      <trkpt lat="47.81928" lon="-3.53252">
        <ele>23.622499</ele>
      </trkpt>
      <trkpt lat="47.81848" lon="-3.53324">
        <ele>23.413124</ele>
      </trkpt>
      <trkpt lat="47.81833" lon="-3.5333">
        <ele>27.541245</ele>
      </trkpt>
      <trkpt lat="47.8182" lon="-3.53329">
        <ele>29.790869</ele>
      </trkpt>
      <trkpt lat="47.81836" lon="-3.53327">
        <ele>27.070938</ele>
      </trkpt>
      <trkpt lat="47.81844" lon="-3.53345">
        <ele>21.724688</ele>
      </trkpt>
      <trkpt lat="47.81838" lon="-3.53366">
        <ele>20.570938</ele>
      </trkpt>
      <trkpt lat="47.8182" lon="-3.53404">
        <ele>18.589165</ele>
      </trkpt>
      <trkpt lat="47.81785" lon="-3.53443">
        <ele>18.284056</ele>
      </trkpt>
      <trkpt lat="47.81781" lon="-3.53464">
        <ele>14.91755</ele>
      </trkpt>
      <trkpt lat="47.81766" lon="-3.53485">
        <ele>12.252163</ele>
      </trkpt>
      <trkpt lat="47.81742" lon="-3.53505">
        <ele>11.021572</ele>
      </trkpt>
      <trkpt lat="47.81722" lon="-3.53532">
        <ele>9.355427</ele>
      </trkpt>
      <trkpt lat="47.81667" lon="-3.53564">
        <ele>8.415034</ele>
      </trkpt>
      <trkpt lat="47.81642" lon="-3.5358">
        <ele>8.42015</ele>
      </trkpt>
      <trkpt lat="47.81596" lon="-3.53578">
        <ele>10.174063</ele>
      </trkpt>
      <trkpt lat="47.81569" lon="-3.53551">
        <ele>10.096237</ele>
      </trkpt>
      <trkpt lat="47.81536" lon="-3.53539">
        <ele>9.144375</ele>
      </trkpt>
      <trkpt lat="47.81512" lon="-3.53513">
        <ele>10.5304</ele>
      </trkpt>
      <trkpt lat="47.81467" lon="-3.53483">
        <ele>9.851734</ele>
      </trkpt>
      <trkpt lat="47.81454" lon="-3.53468">
        <ele>9.3625</ele>
      </trkpt>
      <trkpt lat="47.81448" lon="-3.5345">
        <ele>9.907812</ele>
      </trkpt>
      <trkpt lat="47.81434" lon="-3.53435">
        <ele>9.340625</ele>
      </trkpt>
      <trkpt lat="47.81445" lon="-3.53384">
        <ele>14.7092</ele>
      </trkpt>
      <trkpt lat="47.81493" lon="-3.533">
        <ele>26.067751</ele>
      </trkpt>
      <trkpt lat="47.81501" lon="-3.53274">
        <ele>28.530624</ele>
      </trkpt>
      <trkpt lat="47.81531" lon="-3.53233">
        <ele>32.369736</ele>
      </trkpt>
      <trkpt lat="47.81563" lon="-3.5317">
        <ele>37.188919</ele>
      </trkpt>
      <trkpt lat="47.81603" lon="-3.5311">
        <ele>41.365623</ele>
      </trkpt>
      <trkpt lat="47.81625" lon="-3.53051">
        <ele>44.410625</ele>
      </trkpt>
      <trkpt lat="47.81621" lon="-3.52945">
        <ele>45.599483</ele>
      </trkpt>
      <trkpt lat="47.81618" lon="-3.52849">
        <ele>46.022812</ele>
      </trkpt>
      <trkpt lat="47.81614" lon="-3.52826">
        <ele>46.148438</ele>
      </trkpt>
      <trkpt lat="47.81625" lon="-3.52688">
        <ele>46.206184</ele>
      </trkpt>
      <trkpt lat="47.81637" lon="-3.52624">
        <ele>45.41375</ele>
      </trkpt>
      <trkpt lat="47.81637" lon="-3.52601">
        <ele>44.666874</ele>
      </trkpt>
      <trkpt lat="47.81617" lon="-3.52592">
        <ele>43.142498</ele>
      </trkpt>
      <trkpt lat="47.81602" lon="-3.52603">
        <ele>42.545624</ele>
      </trkpt>
      <trkpt lat="47.81568" lon="-3.52609">
        <ele>40.797813</ele>
      </trkpt>
      <trkpt lat="47.81434" lon="-3.52655">
        <ele>32.271011</ele>
      </trkpt>
      <trkpt lat="47.81389" lon="-3.52658">
        <ele>26.343349</ele>
      </trkpt>
      <trkpt lat="47.81358" lon="-3.5262">
        <ele>25.666857</ele>
      </trkpt>
      <trkpt lat="47.81331" lon="-3.52578">
        <ele>24.853437</ele>
      </trkpt>
      <trkpt lat="47.81324" lon="-3.52555">
        <ele>23.402382</ele>
      </trkpt>
      <trkpt lat="47.81296" lon="-3.52491">
        <ele>20.224604</ele>
      </trkpt>
      <trkpt lat="47.81269" lon="-3.5248">
        <ele>16.019026</ele>
      </trkpt>
      <trkpt lat="47.81256" lon="-3.52469">
        <ele>14.068953</ele>
      </trkpt>
      <trkpt lat="47.81245" lon="-3.52453">
        <ele>12.82175</ele>
      </trkpt>
      <trkpt lat="47.81229" lon="-3.52411">
        <ele>15.291</ele>
      </trkpt>
      <trkpt lat="47.81199" lon="-3.52363">
        <ele>13.187</ele>
      </trkpt>
      <trkpt lat="47.8119" lon="-3.52319">
        <ele>16.360165</ele>
      </trkpt>
      <trkpt lat="47.8117" lon="-3.52285">
        <ele>18.456055</ele>
      </trkpt>
      <trkpt lat="47.8113" lon="-3.5225">
        <ele>24.067293</ele>
      </trkpt>
      <trkpt lat="47.81092" lon="-3.5221">
        <ele>28.992165</ele>
      </trkpt>
      <trkpt lat="47.81041" lon="-3.52154">
        <ele>33.127377</ele>
      </trkpt>
      <trkpt lat="47.81034" lon="-3.52133">
        <ele>34.391251</ele>
      </trkpt>
      <trkpt lat="47.81037" lon="-3.52085">
        <ele>36.18</ele>
      </trkpt>
      <trkpt lat="47.81032" lon="-3.52064">
        <ele>36.555</ele>
      </trkpt>
      <trkpt lat="47.80974" lon="-3.52036">
        <ele>40.029999</ele>
      </trkpt>
      <trkpt lat="47.80929" lon="-3.52016">
        <ele>42.040291</ele>
      </trkpt>
      <trkpt lat="47.80801" lon="-3.51916">
        <ele>47.253124</ele>
      </trkpt>
      <trkpt lat="47.80777" lon="-3.51895">
        <ele>47.526875</ele>
      </trkpt>
      <trkpt lat="47.80704" lon="-3.51811">
        <ele>47.745235</ele>
      </trkpt>
      <trkpt lat="47.80659" lon="-3.51796">
        <ele>46.279999</ele>
      </trkpt>
      <trkpt lat="47.80602" lon="-3.51767">
        <ele>41.887924</ele>
      </trkpt>
      <trkpt lat="47.80563" lon="-3.51638">
        <ele>41.510571</ele>
      </trkpt>
      <trkpt lat="47.80545" lon="-3.5159">
        <ele>39.05114</ele>
      </trkpt>
      <trkpt lat="47.80539" lon="-3.51497">
        <ele>34.109661</ele>
      </trkpt>
      <trkpt lat="47.80543" lon="-3.51469">
        <ele>31.258474</ele>
      </trkpt>
      <trkpt lat="47.80563" lon="-3.51437">
        <ele>31.711048</ele>
      </trkpt>
      <trkpt lat="47.80602" lon="-3.51345">
        <ele>29.822599</ele>
      </trkpt>
      <trkpt lat="47.80608" lon="-3.51305">
        <ele>27.996695</ele>
      </trkpt>
      <trkpt lat="47.80617" lon="-3.51166">
        <ele>26.4205</ele>
      </trkpt>
      <trkpt lat="47.80609" lon="-3.51122">
        <ele>23.2068</ele>
      </trkpt>
      <trkpt lat="47.80569" lon="-3.51013">
        <ele>25.583174</ele>
      </trkpt>
      <trkpt lat="47.80567" lon="-3.50987">
        <ele>25.504812</ele>
      </trkpt>
      <trkpt lat="47.80575" lon="-3.50924">
        <ele>27.29125</ele>
      </trkpt>
      <trkpt lat="47.80542" lon="-3.50911">
        <ele>26.720482</ele>
      </trkpt>
      <trkpt lat="47.80528" lon="-3.50915">
        <ele>28.865549</ele>
      </trkpt>
      <trkpt lat="47.80518" lon="-3.5093">
        <ele>29.51815</ele>
      </trkpt>
      <trkpt lat="47.805" lon="-3.50965">
        <ele>29.167307</ele>
      </trkpt>
      <trkpt lat="47.80486" lon="-3.50981">
        <ele>30.959845</ele>
      </trkpt>
      <trkpt lat="47.80498" lon="-3.50995">
        <ele>29.969419</ele>
      </trkpt>
      <trkpt lat="47.80503" lon="-3.51088">
        <ele>27.448126</ele>
      </trkpt>
      <trkpt lat="47.80495" lon="-3.51107">
        <ele>26.740225</ele>
      </trkpt>
      <trkpt lat="47.80483" lon="-3.51124">
        <ele>26.18944</ele>
      </trkpt>
      <trkpt lat="47.80474" lon="-3.51154">
        <ele>24.261593</ele>
      </trkpt>
      <trkpt lat="47.80487" lon="-3.51213">
        <ele>24.720669</ele>
      </trkpt>
      <trkpt lat="47.80487" lon="-3.51263">
        <ele>24.8561</ele>
      </trkpt>
      <trkpt lat="47.80476" lon="-3.51338">
        <ele>25.254742</ele>
      </trkpt>
      <trkpt lat="47.80465" lon="-3.51389">
        <ele>24.869993</ele>
      </trkpt>
      <trkpt lat="47.80431" lon="-3.51482">
        <ele>25.794701</ele>
      </trkpt>
      <trkpt lat="47.80408" lon="-3.51559">
        <ele>23.630619</ele>
      </trkpt>
      <trkpt lat="47.80388" lon="-3.51721">
        <ele>33.640911</ele>
      </trkpt>
      <trkpt lat="47.80375" lon="-3.51726">
        <ele>37.350853</ele>
      </trkpt>
      <trkpt lat="47.80247" lon="-3.51723">
        <ele>39.726116</ele>
      </trkpt>
      <trkpt lat="47.80171" lon="-3.517">
        <ele>36.273125</ele>
      </trkpt>
      <trkpt lat="47.80138" lon="-3.51674">
        <ele>37.94651</ele>
      </trkpt>
      <trkpt lat="47.80129" lon="-3.51695">
        <ele>37.625599</ele>
      </trkpt>
      <trkpt lat="47.80126" lon="-3.51718">
        <ele>37.138023</ele>
      </trkpt>
      <trkpt lat="47.80093" lon="-3.51791">
        <ele>39.060013</ele>
      </trkpt>
      <trkpt lat="47.80045" lon="-3.51824">
        <ele>34.738377</ele>
      </trkpt>
      <trkpt lat="47.80014" lon="-3.51809">
        <ele>37.27697</ele>
      </trkpt>
      <trkpt lat="47.79982" lon="-3.51794">
        <ele>39.717251</ele>
      </trkpt>
      <trkpt lat="47.79922" lon="-3.518">
        <ele>42.806496</ele>
      </trkpt>
      <trkpt lat="47.79864" lon="-3.51829">
        <ele>42.444275</ele>
      </trkpt>
      <trkpt lat="47.79811" lon="-3.51881">
        <ele>40.060978</ele>
      </trkpt>
      <trkpt lat="47.79792" lon="-3.51893">
        <ele>40.669296</ele>
      </trkpt>
      <trkpt lat="47.79759" lon="-3.51904">
        <ele>38.931591</ele>
      </trkpt>
      <trkpt lat="47.7973" lon="-3.5191">
        <ele>38.445442</ele>
      </trkpt>
      <trkpt lat="47.79721" lon="-3.51926">
        <ele>37.262337</ele>
      </trkpt>
      <trkpt lat="47.79691" lon="-3.51946">
        <ele>37.826454</ele>
      </trkpt>
      <trkpt lat="47.79682" lon="-3.51962">
        <ele>35.468819</ele>
      </trkpt>
      <trkpt lat="47.7965" lon="-3.51986">
        <ele>36.56065</ele>
      </trkpt>
      <trkpt lat="47.79627" lon="-3.52017">
        <ele>35.206554</ele>
      </trkpt>
      <trkpt lat="47.7961" lon="-3.52065">
        <ele>32.363068</ele>
      </trkpt>
      <trkpt lat="47.79606" lon="-3.52085">
        <ele>30.271261</ele>
      </trkpt>
      <trkpt lat="47.79583" lon="-3.52138">
        <ele>27.704929</ele>
      </trkpt>
      <trkpt lat="47.79588" lon="-3.5219">
        <ele>19.193554</ele>
      </trkpt>
      <trkpt lat="47.796" lon="-3.52249">
        <ele>15.1514</ele>
      </trkpt>
      <trkpt lat="47.79602" lon="-3.5228">
        <ele>14.25116</ele>
      </trkpt>
      <trkpt lat="47.79601" lon="-3.52308">
        <ele>13.546403</ele>
      </trkpt>
      <trkpt lat="47.79592" lon="-3.5236">
        <ele>12.860863</ele>
      </trkpt>
      <trkpt lat="47.79604" lon="-3.5237">
        <ele>9.0288</ele>
      </trkpt>
      <trkpt lat="47.7958" lon="-3.52396">
        <ele>11.606666</ele>
      </trkpt>
      <trkpt lat="47.79577" lon="-3.52421">
        <ele>10.822297</ele>
      </trkpt>
      <trkpt lat="47.79593" lon="-3.5246">
        <ele>6.496676</ele>
      </trkpt>
      <trkpt lat="47.79586" lon="-3.52514">
        <ele>5.170781</ele>
      </trkpt>
      <trkpt lat="47.79573" lon="-3.5252">
        <ele>5.7811</ele>
      </trkpt>
      <trkpt lat="47.79544" lon="-3.52504">
        <ele>10.405119</ele>
      </trkpt>
      <trkpt lat="47.79516" lon="-3.52513">
        <ele>12.295862</ele>
      </trkpt>
      <trkpt lat="47.79508" lon="-3.52534">
        <ele>10.340287</ele>
      </trkpt>
      <trkpt lat="47.79489" lon="-3.52541">
        <ele>10.067325</ele>
      </trkpt>
      <trkpt lat="47.7946" lon="-3.52529">
        <ele>13.753125</ele>
      </trkpt>
      <trkpt lat="47.79429" lon="-3.52535">
        <ele>14.332687</ele>
      </trkpt>
      <trkpt lat="47.79384" lon="-3.52507">
        <ele>19.183594</ele>
      </trkpt>
      <trkpt lat="47.79373" lon="-3.52493">
        <ele>21.860222</ele>
      </trkpt>
      <trkpt lat="47.79318" lon="-3.52466">
        <ele>28.712038</ele>
      </trkpt>
      <trkpt lat="47.793" lon="-3.52465">
        <ele>29.223534</ele>
      </trkpt>
      <trkpt lat="47.79286" lon="-3.52475">
        <ele>26.084032</ele>
      </trkpt>
      <trkpt lat="47.79271" lon="-3.52478">
        <ele>24.902391</ele>
      </trkpt>
      <trkpt lat="47.79231" lon="-3.52475">
        <ele>27.216516</ele>
      </trkpt>
      <trkpt lat="47.79217" lon="-3.52483">
        <ele>26.718588</ele>
      </trkpt>
      <trkpt lat="47.79189" lon="-3.52474">
        <ele>27.949213</ele>
      </trkpt>
      <trkpt lat="47.79127" lon="-3.52479">
        <ele>25.410645</ele>
      </trkpt>
      <trkpt lat="47.79112" lon="-3.52492">
        <ele>23.58235</ele>
      </trkpt>
      <trkpt lat="47.79076" lon="-3.52544">
        <ele>22.151819</ele>
      </trkpt>
      <trkpt lat="47.79027" lon="-3.52624">
        <ele>15.593228</ele>
      </trkpt>
      <trkpt lat="47.79025" lon="-3.52604">
        <ele>19.45145</ele>
      </trkpt>
      <trkpt lat="47.79033" lon="-3.52559">
        <ele>24.498766</ele>
      </trkpt>
      <trkpt lat="47.79053" lon="-3.5232">
        <ele>18.412813</ele>
      </trkpt>
      <trkpt lat="47.79072" lon="-3.52306">
        <ele>20.611563</ele>
      </trkpt>
      <trkpt lat="47.79084" lon="-3.52268">
        <ele>22.765909</ele>
      </trkpt>
      <trkpt lat="47.79085" lon="-3.52244">
        <ele>24.292999</ele>
      </trkpt>
      <trkpt lat="47.79081" lon="-3.52195">
        <ele>26.445938</ele>
      </trkpt>
      <trkpt lat="47.79087" lon="-3.52151">
        <ele>28.765938</ele>
      </trkpt>
      <trkpt lat="47.79097" lon="-3.52138">
        <ele>30.167034</ele>
      </trkpt>
      <trkpt lat="47.79124" lon="-3.52147">
        <ele>32.414684</ele>
      </trkpt>
      <trkpt lat="47.79136" lon="-3.52135">
        <ele>33.657314</ele>
      </trkpt>
      <trkpt lat="47.7915" lon="-3.52045">
        <ele>35.681252</ele>
      </trkpt>
      <trkpt lat="47.79159" lon="-3.52028">
        <ele>36.312813</ele>
      </trkpt>
      <trkpt lat="47.79201" lon="-3.52006">
        <ele>38.528439</ele>
      </trkpt>
      <trkpt lat="47.7921" lon="-3.51991">
        <ele>39.137501</ele>
      </trkpt>
      <trkpt lat="47.79214" lon="-3.51922">
        <ele>39.5084</ele>
      </trkpt>
      <trkpt lat="47.79216" lon="-3.51874">
        <ele>39.279999</ele>
      </trkpt>
      <trkpt lat="47.79205" lon="-3.51827">
        <ele>38.139999</ele>
      </trkpt>
      <trkpt lat="47.79202" lon="-3.51772">
        <ele>34.470741</ele>
      </trkpt>
      <trkpt lat="47.79214" lon="-3.5171">
        <ele>30.375578</ele>
      </trkpt>
      <trkpt lat="47.79216" lon="-3.51655">
        <ele>29.534676</ele>
      </trkpt>
      <trkpt lat="47.79214" lon="-3.51629">
        <ele>29.91659</ele>
      </trkpt>
      <trkpt lat="47.79205" lon="-3.51611">
        <ele>28.957644</ele>
      </trkpt>
      <trkpt lat="47.79195" lon="-3.51598">
        <ele>28.26144</ele>
      </trkpt>
      <trkpt lat="47.7918" lon="-3.51593">
        <ele>27.004456</ele>
      </trkpt>
      <trkpt lat="47.7913" lon="-3.51589">
        <ele>25.987499</ele>
      </trkpt>
      <trkpt lat="47.79069" lon="-3.51575">
        <ele>24.826523</ele>
      </trkpt>
      <trkpt lat="47.79021" lon="-3.51574">
        <ele>23.622013</ele>
      </trkpt>
      <trkpt lat="47.78953" lon="-3.51596">
        <ele>21.930372</ele>
      </trkpt>
      <trkpt lat="47.78934" lon="-3.51596">
        <ele>22.638737</ele>
      </trkpt>
      <trkpt lat="47.78871" lon="-3.51575">
        <ele>23.318438</ele>
      </trkpt>
      <trkpt lat="47.78839" lon="-3.51563">
        <ele>21.958124</ele>
      </trkpt>
      <trkpt lat="47.78824" lon="-3.51551">
        <ele>21.967501</ele>
      </trkpt>
      <trkpt lat="47.78772" lon="-3.51526">
        <ele>20.497391</ele>
      </trkpt>
      <trkpt lat="47.78758" lon="-3.51529">
        <ele>18.641907</ele>
      </trkpt>
      <trkpt lat="47.787" lon="-3.51509">
        <ele>12.424156</ele>
      </trkpt>
      <trkpt lat="47.78671" lon="-3.5149">
        <ele>9.65375</ele>
      </trkpt>
      <trkpt lat="47.78637" lon="-3.51475">
        <ele>11.269688</ele>
      </trkpt>
      <trkpt lat="47.78623" lon="-3.51478">
        <ele>12.579125</ele>
      </trkpt>
      <trkpt lat="47.78608" lon="-3.51493">
        <ele>13.069727</ele>
      </trkpt>
      <trkpt lat="47.78532" lon="-3.51541">
        <ele>13.370525</ele>
      </trkpt>
      <trkpt lat="47.78505" lon="-3.51565">
        <ele>15.164656</ele>
      </trkpt>
      <trkpt lat="47.78439" lon="-3.51598">
        <ele>16.725901</ele>
      </trkpt>
      <trkpt lat="47.78385" lon="-3.51635">
        <ele>18.320625</ele>
      </trkpt>
      <trkpt lat="47.78367" lon="-3.5164">
        <ele>18.922295</ele>
      </trkpt>
      <trkpt lat="47.78278" lon="-3.51701">
        <ele>22.942188</ele>
      </trkpt>
      <trkpt lat="47.78148" lon="-3.51781">
        <ele>26.348125</ele>
      </trkpt>
      <trkpt lat="47.78134" lon="-3.51794">
        <ele>26.404062</ele>
      </trkpt>
      <trkpt lat="47.78131" lon="-3.51817">
        <ele>26.107813</ele>
      </trkpt>
      <trkpt lat="47.78146" lon="-3.51889">
        <ele>26.8575</ele>
      </trkpt>
      <trkpt lat="47.78145" lon="-3.51938">
        <ele>28.495012</ele>
      </trkpt>
      <trkpt lat="47.78134" lon="-3.52006">
        <ele>30.798389</ele>
      </trkpt>
      <trkpt lat="47.7811" lon="-3.52178">
        <ele>35.394108</ele>
      </trkpt>
      <trkpt lat="47.78106" lon="-3.52247">
        <ele>38.757774</ele>
      </trkpt>
      <trkpt lat="47.78109" lon="-3.52291">
        <ele>41.282295</ele>
      </trkpt>
      <trkpt lat="47.78122" lon="-3.52304">
        <ele>41.962265</ele>
      </trkpt>
      <trkpt lat="47.78235" lon="-3.52273">
        <ele>38.308556</ele>
      </trkpt>
      <trkpt lat="47.78268" lon="-3.52268">
        <ele>36.585567</ele>
      </trkpt>
      <trkpt lat="47.78302" lon="-3.52271">
        <ele>34.584736</ele>
      </trkpt>
      <trkpt lat="47.78312" lon="-3.52283">
        <ele>34.074398</ele>
      </trkpt>
      <trkpt lat="47.78302" lon="-3.52361">
        <ele>35.007126</ele>
      </trkpt>
      <trkpt lat="47.7828" lon="-3.52544">
        <ele>37.759998</ele>
      </trkpt>
      <trkpt lat="47.78268" lon="-3.5267">
        <ele>38.559738</ele>
      </trkpt>
      <trkpt lat="47.78257" lon="-3.52721">
        <ele>40.838291</ele>
      </trkpt>
      <trkpt lat="47.78241" lon="-3.52762">
        <ele>41.494869</ele>
      </trkpt>
      <trkpt lat="47.78224" lon="-3.52774">
        <ele>42.714439</ele>
      </trkpt>
      <trkpt lat="47.78208" lon="-3.52775">
        <ele>44.025002</ele>
      </trkpt>
      <trkpt lat="47.78164" lon="-3.52772">
        <ele>44.994999</ele>
      </trkpt>
      <trkpt lat="47.781" lon="-3.52778">
        <ele>44.842026</ele>
      </trkpt>
      <trkpt lat="47.7807" lon="-3.52774">
        <ele>44.731533</ele>
      </trkpt>
      <trkpt lat="47.77872" lon="-3.527">
        <ele>41.556877</ele>
      </trkpt>
      <trkpt lat="47.77831" lon="-3.52679">
        <ele>40.401768</ele>
      </trkpt>
      <trkpt lat="47.77756" lon="-3.52654">
        <ele>38.861866</ele>
      </trkpt>
      <trkpt lat="47.77681" lon="-3.52621">
        <ele>36.743046</ele>
      </trkpt>
      <trkpt lat="47.77627" lon="-3.526">
        <ele>35.452499</ele>
      </trkpt>
      <trkpt lat="47.77617" lon="-3.52613">
        <ele>34.794376</ele>
      </trkpt>
      <trkpt lat="47.77621" lon="-3.52699">
        <ele>32.534039</ele>
      </trkpt>
      <trkpt lat="47.77618" lon="-3.52721">
        <ele>31.780399</ele>
      </trkpt>
      <trkpt lat="47.77602" lon="-3.5273">
        <ele>31.236567</ele>
      </trkpt>
      <trkpt lat="47.7757" lon="-3.5272">
        <ele>31.431875</ele>
      </trkpt>
      <trkpt lat="47.77483" lon="-3.52712">
        <ele>26.96137</ele>
      </trkpt>
      <trkpt lat="47.77366" lon="-3.527">
        <ele>26.192913</ele>
      </trkpt>
      <trkpt lat="47.77338" lon="-3.52684">
        <ele>24.206789</ele>
      </trkpt>
      <trkpt lat="47.77314" lon="-3.52676">
        <ele>21.811996</ele>
      </trkpt>
      <trkpt lat="47.77254" lon="-3.52682">
        <ele>13.943046</ele>
      </trkpt>
      <trkpt lat="47.77251" lon="-3.52661">
        <ele>11.550703</ele>
      </trkpt>
      <trkpt lat="47.77254" lon="-3.52633">
        <ele>9.281935</ele>
      </trkpt>
      <trkpt lat="47.77239" lon="-3.52627">
        <ele>6.6731</ele>
      </trkpt>
      <trkpt lat="47.7721" lon="-3.52631">
        <ele>4.794656</ele>
      </trkpt>
      <trkpt lat="47.77173" lon="-3.52675">
        <ele>3.438163</ele>
      </trkpt>
      <trkpt lat="47.77156" lon="-3.52678">
        <ele>3.674472</ele>
      </trkpt>
      <trkpt lat="47.7714" lon="-3.5267">
        <ele>3.743638</ele>
      </trkpt>
      <trkpt lat="47.77075" lon="-3.52559">
        <ele>13.011875</ele>
      </trkpt>
      <trkpt lat="47.77051" lon="-3.52526">
        <ele>11.890625</ele>
      </trkpt>
      <trkpt lat="47.77024" lon="-3.52507">
        <ele>8.539055</ele>
      </trkpt>
      <trkpt lat="47.76961" lon="-3.52487">
        <ele>2.388912</ele>
      </trkpt>
      <trkpt lat="47.76934" lon="-3.52472">
        <ele>3.458158</ele>
      </trkpt>
      <trkpt lat="47.76934" lon="-3.52451">
        <ele>4.007859</ele>
      </trkpt>
      <trkpt lat="47.76945" lon="-3.52433">
        <ele>3.84</ele>
      </trkpt>
      <trkpt lat="47.76952" lon="-3.52414">
        <ele>3.55</ele>
      </trkpt>
      <trkpt lat="47.76958" lon="-3.52366">
        <ele>3.35813</ele>
      </trkpt>
      <trkpt lat="47.76957" lon="-3.52319">
        <ele>3.32025</ele>
      </trkpt>
      <trkpt lat="47.76961" lon="-3.52246">
        <ele>5.185</ele>
      </trkpt>
      <trkpt lat="47.76957" lon="-3.52195">
        <ele>6.9698</ele>
      </trkpt>
      <trkpt lat="47.76966" lon="-3.52106">
        <ele>9.838037</ele>
      </trkpt>
      <trkpt lat="47.7696" lon="-3.52063">
        <ele>12.087812</ele>
      </trkpt>
      <trkpt lat="47.76961" lon="-3.52042">
        <ele>13.081182</ele>
      </trkpt>
      <trkpt lat="47.7697" lon="-3.52024">
        <ele>14.973825</ele>
      </trkpt>
      <trkpt lat="47.76999" lon="-3.51995">
        <ele>19.911707</ele>
      </trkpt>
      <trkpt lat="47.77002" lon="-3.51974">
        <ele>21.546501</ele>
      </trkpt>
      <trkpt lat="47.76996" lon="-3.51952">
        <ele>21.602625</ele>
      </trkpt>
      <trkpt lat="47.76979" lon="-3.51947">
        <ele>20.218725</ele>
      </trkpt>
      <trkpt lat="47.76966" lon="-3.51934">
        <ele>19.552282</ele>
      </trkpt>
      <trkpt lat="47.76964" lon="-3.51889">
        <ele>20.824375</ele>
      </trkpt>
      <trkpt lat="47.76958" lon="-3.51871">
        <ele>20.8925</ele>
      </trkpt>
      <trkpt lat="47.76991" lon="-3.5171">
        <ele>27.64625</ele>
      </trkpt>
      <trkpt lat="47.76981" lon="-3.51694">
        <ele>27.604376</ele>
      </trkpt>
      <trkpt lat="47.76964" lon="-3.51694">
        <ele>26.82</ele>
      </trkpt>
      <trkpt lat="47.76916" lon="-3.5168">
        <ele>26.380175</ele>
      </trkpt>
      <trkpt lat="47.76851" lon="-3.51689">
        <ele>25.3279</ele>
      </trkpt>
      <trkpt lat="47.76834" lon="-3.51686">
        <ele>24.510468</ele>
      </trkpt>
      <trkpt lat="47.76795" lon="-3.51671">
        <ele>22.698246</ele>
      </trkpt>
      <trkpt lat="47.76639" lon="-3.51635">
        <ele>18.349062</ele>
      </trkpt>
      <trkpt lat="47.76348" lon="-3.51626">
        <ele>20.676788</ele>
      </trkpt>
      <trkpt lat="47.76318" lon="-3.51628">
        <ele>22.058619</ele>
      </trkpt>
      <trkpt lat="47.76304" lon="-3.51638">
        <ele>22.998484</ele>
      </trkpt>
      <trkpt lat="47.76274" lon="-3.51734">
        <ele>22.139999</ele>
      </trkpt>
      <trkpt lat="47.76261" lon="-3.51751">
        <ele>22.456875</ele>
      </trkpt>
      <trkpt lat="47.76187" lon="-3.5179">
        <ele>24.39883</ele>
      </trkpt>
      <trkpt lat="47.76174" lon="-3.51803">
        <ele>23.983631</ele>
      </trkpt>
      <trkpt lat="47.76163" lon="-3.51821">
        <ele>23.394375</ele>
      </trkpt>
      <trkpt lat="47.76138" lon="-3.51908">
        <ele>20.261</ele>
      </trkpt>
      <trkpt lat="47.76124" lon="-3.51899">
        <ele>20.724375</ele>
      </trkpt>
      <trkpt lat="47.76123" lon="-3.5185">
        <ele>22.785</ele>
      </trkpt>
      <trkpt lat="47.76115" lon="-3.51827">
        <ele>23.946249</ele>
      </trkpt>
      <trkpt lat="47.76108" lon="-3.51809">
        <ele>24.724155</ele>
      </trkpt>
      <trkpt lat="47.76088" lon="-3.5173">
        <ele>24.759724</ele>
      </trkpt>
      <trkpt lat="47.76082" lon="-3.51683">
        <ele>24.271351</ele>
      </trkpt>
      <trkpt lat="47.76079" lon="-3.51662">
        <ele>24.166485</ele>
      </trkpt>
      <trkpt lat="47.76052" lon="-3.51637">
        <ele>23.363125</ele>
      </trkpt>
      <trkpt lat="47.76036" lon="-3.51626">
        <ele>22.742813</ele>
      </trkpt>
      <trkpt lat="47.76013" lon="-3.51592">
        <ele>21.771011</ele>
      </trkpt>
      <trkpt lat="47.75998" lon="-3.51581">
        <ele>20.365601</ele>
      </trkpt>
      <trkpt lat="47.76007" lon="-3.51565">
        <ele>20.816444</ele>
      </trkpt>
      <trkpt lat="47.76036" lon="-3.5156">
        <ele>22.220312</ele>
      </trkpt>
      <trkpt lat="47.76051" lon="-3.51551">
        <ele>22.700937</ele>
      </trkpt>
      <trkpt lat="47.76096" lon="-3.51547">
        <ele>22.283228</ele>
      </trkpt>
      <trkpt lat="47.761" lon="-3.51527">
        <ele>21.5516</ele>
      </trkpt>
      <trkpt lat="47.76103" lon="-3.51461">
        <ele>19.728125</ele>
      </trkpt>
      <trkpt lat="47.76174" lon="-3.51337">
        <ele>17.315001</ele>
      </trkpt>
      <trkpt lat="47.76189" lon="-3.51334">
        <ele>17.229553</ele>
      </trkpt>
      <trkpt lat="47.76187" lon="-3.51311">
        <ele>16.385237</ele>
      </trkpt>
      <trkpt lat="47.76193" lon="-3.51286">
        <ele>15.529314</ele>
      </trkpt>
      <trkpt lat="47.76273" lon="-3.51104">
        <ele>12.176597</ele>
      </trkpt>
      <trkpt lat="47.76283" lon="-3.51091">
        <ele>11.890625</ele>
      </trkpt>
      <trkpt lat="47.76297" lon="-3.51103">
        <ele>12.026297</ele>
      </trkpt>
      <trkpt lat="47.76346" lon="-3.51202">
        <ele>9.64125</ele>
      </trkpt>
      <trkpt lat="47.764" lon="-3.51262">
        <ele>7.054062</ele>
      </trkpt>
      <trkpt lat="47.76423" lon="-3.51319">
        <ele>7.378125</ele>
      </trkpt>
      <trkpt lat="47.76436" lon="-3.5134">
        <ele>7.775597</ele>
      </trkpt>
      <trkpt lat="47.76507" lon="-3.51362">
        <ele>10.213703</ele>
      </trkpt>
      <trkpt lat="47.7652" lon="-3.51367">
        <ele>10.952513</ele>
      </trkpt>
      <trkpt lat="47.76528" lon="-3.51346">
        <ele>11.324113</ele>
      </trkpt>
      <trkpt lat="47.76534" lon="-3.51299">
        <ele>12.112439</ele>
      </trkpt>
      <trkpt lat="47.76529" lon="-3.51276">
        <ele>12.050338</ele>
      </trkpt>
      <trkpt lat="47.76519" lon="-3.51257">
        <ele>11.305625</ele>
      </trkpt>
      <trkpt lat="47.76506" lon="-3.51212">
        <ele>11.305625</ele>
      </trkpt>
      <trkpt lat="47.76491" lon="-3.51173">
        <ele>10.632813</ele>
      </trkpt>
      <trkpt lat="47.76486" lon="-3.51145">
        <ele>10.467793</ele>
      </trkpt>
      <trkpt lat="47.76483" lon="-3.5108">
        <ele>10.054344</ele>
      </trkpt>
      <trkpt lat="47.7649" lon="-3.51013">
        <ele>9.982187</ele>
      </trkpt>
      <trkpt lat="47.7649" lon="-3.5094">
        <ele>8.449688</ele>
      </trkpt>
      <trkpt lat="47.76491" lon="-3.50895">
        <ele>7.347561</ele>
      </trkpt>
      <trkpt lat="47.76499" lon="-3.50852">
        <ele>6.614503</ele>
      </trkpt>
      <trkpt lat="47.76499" lon="-3.50832">
        <ele>5.702839</ele>
      </trkpt>
      <trkpt lat="47.76512" lon="-3.5081">
        <ele>4.859259</ele>
      </trkpt>
      <trkpt lat="47.7652" lon="-3.50806">
        <ele>4.482702</ele>
      </trkpt>
      <trkpt lat="47.76558" lon="-3.50824">
        <ele>4.732945</ele>
      </trkpt>
      <trkpt lat="47.76585" lon="-3.50851">
        <ele>4.529344</ele>
      </trkpt>
      <trkpt lat="47.76622" lon="-3.50868">
        <ele>6.039463</ele>
      </trkpt>
      <trkpt lat="47.76646" lon="-3.50861">
        <ele>6.791563</ele>
      </trkpt>
      <trkpt lat="47.76652" lon="-3.50842">
        <ele>5.993438</ele>
      </trkpt>
      <trkpt lat="47.76684" lon="-3.50855">
        <ele>7.196787</ele>
      </trkpt>
      <trkpt lat="47.767" lon="-3.50846">
        <ele>7.275256</ele>
      </trkpt>
      <trkpt lat="47.76733" lon="-3.50837">
        <ele>7.406262</ele>
      </trkpt>
      <trkpt lat="47.76744" lon="-3.50824">
        <ele>6.3365</ele>
      </trkpt>
      <trkpt lat="47.76733" lon="-3.50776">
        <ele>11.722771</ele>
      </trkpt>
      <trkpt lat="47.7672" lon="-3.5078">
        <ele>10.562891</ele>
      </trkpt>
      <trkpt lat="47.7663" lon="-3.50759">
        <ele>9.326425</ele>
      </trkpt>
      <trkpt lat="47.76616" lon="-3.50743">
        <ele>10.32115</ele>
      </trkpt>
      <trkpt lat="47.76596" lon="-3.50685">
        <ele>7.621905</ele>
      </trkpt>
      <trkpt lat="47.76604" lon="-3.50663">
        <ele>7.149063</ele>
      </trkpt>
      <trkpt lat="47.76621" lon="-3.50644">
        <ele>8.086562</ele>
      </trkpt>
      <trkpt lat="47.76646" lon="-3.50623">
        <ele>9.605312</ele>
      </trkpt>
      <trkpt lat="47.7669" lon="-3.5056">
        <ele>11.762825</ele>
      </trkpt>
      <trkpt lat="47.76753" lon="-3.50402">
        <ele>14.016663</ele>
      </trkpt>
      <trkpt lat="47.76777" lon="-3.50371">
        <ele>13.53885</ele>
      </trkpt>
      <trkpt lat="47.7681" lon="-3.50328">
        <ele>12.8725</ele>
      </trkpt>
      <trkpt lat="47.76817" lon="-3.50311">
        <ele>11.20375</ele>
      </trkpt>
      <trkpt lat="47.76843" lon="-3.50287">
        <ele>9.627149</ele>
      </trkpt>
      <trkpt lat="47.76957" lon="-3.50285">
        <ele>16.772942</ele>
      </trkpt>
      <trkpt lat="47.76967" lon="-3.5027">
        <ele>15.637037</ele>
      </trkpt>
      <trkpt lat="47.76969" lon="-3.50247">
        <ele>14.46295</ele>
      </trkpt>
      <trkpt lat="47.76985" lon="-3.50177">
        <ele>8.550076</ele>
      </trkpt>
      <trkpt lat="47.76986" lon="-3.50155">
        <ele>7.654375</ele>
      </trkpt>
      <trkpt lat="47.76993" lon="-3.50134">
        <ele>6.87015</ele>
      </trkpt>
      <trkpt lat="47.77009" lon="-3.50131">
        <ele>6.970784</ele>
      </trkpt>
      <trkpt lat="47.77039" lon="-3.50175">
        <ele>8.681983</ele>
      </trkpt>
      <trkpt lat="47.77063" lon="-3.50178">
        <ele>11.3879</ele>
      </trkpt>
      <trkpt lat="47.77068" lon="-3.50151">
        <ele>11.800931</ele>
      </trkpt>
      <trkpt lat="47.77071" lon="-3.50021">
        <ele>9.310706</ele>
      </trkpt>
      <trkpt lat="47.77084" lon="-3.49924">
        <ele>4.55535</ele>
      </trkpt>
      <trkpt lat="47.77091" lon="-3.49909">
        <ele>3.869444</ele>
      </trkpt>
      <trkpt lat="47.77102" lon="-3.49907">
        <ele>3.633017</ele>
      </trkpt>
      <trkpt lat="47.77114" lon="-3.49913">
        <ele>3.428728</ele>
      </trkpt>
      <trkpt lat="47.77134" lon="-3.49932">
        <ele>3.537675</ele>
      </trkpt>
      <trkpt lat="47.77147" lon="-3.49937">
        <ele>3.52635</ele>
      </trkpt>
      <trkpt lat="47.77161" lon="-3.49944">
        <ele>3.552938</ele>
      </trkpt>
      <trkpt lat="47.77185" lon="-3.49973">
        <ele>3.63175</ele>
      </trkpt>
      <trkpt lat="47.77233" lon="-3.49997">
        <ele>3.019789</ele>
      </trkpt>
      <trkpt lat="47.77276" lon="-3.5003">
        <ele>3.395</ele>
      </trkpt>
      <trkpt lat="47.77302" lon="-3.50056">
        <ele>3.734062</ele>
      </trkpt>
      <trkpt lat="47.77329" lon="-3.50069">
        <ele>3.89125</ele>
      </trkpt>
      <trkpt lat="47.77354" lon="-3.50095">
        <ele>5.591065</ele>
      </trkpt>
      <trkpt lat="47.77383" lon="-3.50098">
        <ele>7.973003</ele>
      </trkpt>
      <trkpt lat="47.7741" lon="-3.50079">
        <ele>9.618266</ele>
      </trkpt>
      <trkpt lat="47.77455" lon="-3.50062">
        <ele>12.926875</ele>
      </trkpt>
      <trkpt lat="47.77468" lon="-3.50056">
        <ele>13.337625</ele>
      </trkpt>
      <trkpt lat="47.77507" lon="-3.50006">
        <ele>10.40575</ele>
      </trkpt>
      <trkpt lat="47.77513" lon="-3.49988">
        <ele>8.851751</ele>
      </trkpt>
      <trkpt lat="47.77531" lon="-3.49895">
        <ele>11.751875</ele>
      </trkpt>
      <trkpt lat="47.77549" lon="-3.49853">
        <ele>13.37839</ele>
      </trkpt>
      <trkpt lat="47.77561" lon="-3.49813">
        <ele>14.899006</ele>
      </trkpt>
      <trkpt lat="47.77564" lon="-3.49791">
        <ele>15.484219</ele>
      </trkpt>
      <trkpt lat="47.77557" lon="-3.49719">
        <ele>15.244544</ele>
      </trkpt>
      <trkpt lat="47.7756" lon="-3.49677">
        <ele>15.223875</ele>
      </trkpt>
      <trkpt lat="47.77563" lon="-3.49653">
        <ele>14.535438</ele>
      </trkpt>
      <trkpt lat="47.77549" lon="-3.4964">
        <ele>11.396641</ele>
      </trkpt>
      <trkpt lat="47.77534" lon="-3.49638">
        <ele>8.861593</ele>
      </trkpt>
      <trkpt lat="47.77522" lon="-3.49653">
        <ele>6.831656</ele>
      </trkpt>
      <trkpt lat="47.77524" lon="-3.49676">
        <ele>7.276328</ele>
      </trkpt>
      <trkpt lat="47.77515" lon="-3.49748">
        <ele>5.217919</ele>
      </trkpt>
      <trkpt lat="47.77501" lon="-3.4981">
        <ele>3</ele>
      </trkpt>
      <trkpt lat="47.77488" lon="-3.49823">
        <ele>5.036414</ele>
      </trkpt>
      <trkpt lat="47.77443" lon="-3.49846">
        <ele>8.584369</ele>
      </trkpt>
      <trkpt lat="47.77399" lon="-3.49844">
        <ele>10.788688</ele>
      </trkpt>
      <trkpt lat="47.77371" lon="-3.49833">
        <ele>13.371219</ele>
      </trkpt>
      <trkpt lat="47.77329" lon="-3.49831">
        <ele>13.290937</ele>
      </trkpt>
      <trkpt lat="47.77273" lon="-3.49852">
        <ele>11.389544</ele>
      </trkpt>
      <trkpt lat="47.77235" lon="-3.49845">
        <ele>12.658997</ele>
      </trkpt>
      <trkpt lat="47.77209" lon="-3.49827">
        <ele>12.024978</ele>
      </trkpt>
      <trkpt lat="47.77183" lon="-3.49824">
        <ele>9.570406</ele>
      </trkpt>
      <trkpt lat="47.77131" lon="-3.49772">
        <ele>13.341925</ele>
      </trkpt>
      <trkpt lat="47.77104" lon="-3.4976">
        <ele>12.141012</ele>
      </trkpt>
      <trkpt lat="47.7706" lon="-3.4976">
        <ele>11.305826</ele>
      </trkpt>
      <trkpt lat="47.77041" lon="-3.49727">
        <ele>14.44984</ele>
      </trkpt>
      <trkpt lat="47.77035" lon="-3.49682">
        <ele>16.319937</ele>
      </trkpt>
      <trkpt lat="47.7702" lon="-3.49676">
        <ele>13.481469</ele>
      </trkpt>
      <trkpt lat="47.77006" lon="-3.49739">
        <ele>7.7139</ele>
      </trkpt>
      <trkpt lat="47.77008" lon="-3.49763">
        <ele>5.789131</ele>
      </trkpt>
      <trkpt lat="47.76971" lon="-3.49835">
        <ele>4.504331</ele>
      </trkpt>
      <trkpt lat="47.76957" lon="-3.4988">
        <ele>3.637422</ele>
      </trkpt>
      <trkpt lat="47.76906" lon="-3.49911">
        <ele>5.922165</ele>
      </trkpt>
      <trkpt lat="47.76879" lon="-3.49921">
        <ele>8.51065</ele>
      </trkpt>
      <trkpt lat="47.76865" lon="-3.49919">
        <ele>10.193487</ele>
      </trkpt>
      <trkpt lat="47.76837" lon="-3.49902">
        <ele>13.343437</ele>
      </trkpt>
      <trkpt lat="47.76828" lon="-3.49888">
        <ele>15.660625</ele>
      </trkpt>
      <trkpt lat="47.76799" lon="-3.49842">
        <ele>19.344263</ele>
      </trkpt>
      <trkpt lat="47.76784" lon="-3.49805">
        <ele>22.296495</ele>
      </trkpt>
      <trkpt lat="47.7681" lon="-3.49672">
        <ele>27.195313</ele>
      </trkpt>
      <trkpt lat="47.76772" lon="-3.49484">
        <ele>29.496544</ele>
      </trkpt>
      <trkpt lat="47.7676" lon="-3.49409">
        <ele>30.918438</ele>
      </trkpt>
      <trkpt lat="47.76751" lon="-3.49293">
        <ele>32.340313</ele>
      </trkpt>
      <trkpt lat="47.76729" lon="-3.49092">
        <ele>33</ele>
      </trkpt>
      <trkpt lat="47.7672" lon="-3.48984">
        <ele>33.238827</ele>
      </trkpt>
      <trkpt lat="47.76729" lon="-3.48909">
        <ele>33.869999</ele>
      </trkpt>
      <trkpt lat="47.76744" lon="-3.48851">
        <ele>33.693737</ele>
      </trkpt>
      <trkpt lat="47.76763" lon="-3.48732">
        <ele>31.753023</ele>
      </trkpt>
      <trkpt lat="47.76768" lon="-3.48711">
        <ele>31.288128</ele>
      </trkpt>
      <trkpt lat="47.76754" lon="-3.48711">
        <ele>31.184479</ele>
      </trkpt>
      <trkpt lat="47.76664" lon="-3.48683">
        <ele>27.98</ele>
      </trkpt>
      <trkpt lat="47.76651" lon="-3.48678">
        <ele>27.566401</ele>
      </trkpt>
      <trkpt lat="47.76645" lon="-3.48656">
        <ele>26.346703</ele>
      </trkpt>
      <trkpt lat="47.76652" lon="-3.48611">
        <ele>24.210976</ele>
      </trkpt>
      <trkpt lat="47.76682" lon="-3.48609">
        <ele>25.350723</ele>
      </trkpt>
      <trkpt lat="47.76691" lon="-3.48591">
        <ele>25.020426</ele>
      </trkpt>
      <trkpt lat="47.76682" lon="-3.48575">
        <ele>24.197805</ele>
      </trkpt>
      <trkpt lat="47.7664" lon="-3.48584">
        <ele>22.779013</ele>
      </trkpt>
      <trkpt lat="47.76597" lon="-3.48597">
        <ele>21.084063</ele>
      </trkpt>
      <trkpt lat="47.76556" lon="-3.48594">
        <ele>20.220428</ele>
      </trkpt>
      <trkpt lat="47.76534" lon="-3.48605">
        <ele>20.274887</ele>
      </trkpt>
      <trkpt lat="47.76436" lon="-3.48708">
        <ele>14.781887</ele>
      </trkpt>
      <trkpt lat="47.76424" lon="-3.48693">
        <ele>13.978516</ele>
      </trkpt>
      <trkpt lat="47.76438" lon="-3.48627">
        <ele>15.675625</ele>
      </trkpt>
      <trkpt lat="47.76444" lon="-3.48608">
        <ele>16.695313</ele>
      </trkpt>
      <trkpt lat="47.76453" lon="-3.48522">
        <ele>21.466249</ele>
      </trkpt>
      <trkpt lat="47.76462" lon="-3.48504">
        <ele>22.635544</ele>
      </trkpt>
      <trkpt lat="47.76468" lon="-3.48461">
        <ele>24.158825</ele>
      </trkpt>
      <trkpt lat="47.7649" lon="-3.48378">
        <ele>26.983109</ele>
      </trkpt>
      <trkpt lat="47.76507" lon="-3.48293">
        <ele>29.339788</ele>
      </trkpt>
      <trkpt lat="47.7652" lon="-3.48155">
        <ele>28.4175</ele>
      </trkpt>
      <trkpt lat="47.76526" lon="-3.48129">
        <ele>28.23625</ele>
      </trkpt>
      <trkpt lat="47.76549" lon="-3.48074">
        <ele>28.932531</ele>
      </trkpt>
      <trkpt lat="47.7657" lon="-3.48008">
        <ele>31.578751</ele>
      </trkpt>
      <trkpt lat="47.76585" lon="-3.47943">
        <ele>33.926876</ele>
      </trkpt>
      <trkpt lat="47.76598" lon="-3.47937">
        <ele>34.440624</ele>
      </trkpt>
      <trkpt lat="47.77135" lon="-3.47886">
        <ele>46.563828</ele>
      </trkpt>
      <trkpt lat="47.77164" lon="-3.47877">
        <ele>45.045918</ele>
      </trkpt>
      <trkpt lat="47.77155" lon="-3.47787">
        <ele>45.654232</ele>
      </trkpt>
      <trkpt lat="47.77156" lon="-3.47744">
        <ele>45.086563</ele>
      </trkpt>
      <trkpt lat="47.77176" lon="-3.47646">
        <ele>42.535576</ele>
      </trkpt>
      <trkpt lat="47.77186" lon="-3.47628">
        <ele>42.047657</ele>
      </trkpt>
      <trkpt lat="47.77203" lon="-3.47625">
        <ele>41.003689</ele>
      </trkpt>
      <trkpt lat="47.77255" lon="-3.47637">
        <ele>35.339375</ele>
      </trkpt>
      <trkpt lat="47.77306" lon="-3.47661">
        <ele>28.177681</ele>
      </trkpt>
      <trkpt lat="47.77326" lon="-3.47667">
        <ele>24.91098</ele>
      </trkpt>
      <trkpt lat="47.77368" lon="-3.47676">
        <ele>19.610399</ele>
      </trkpt>
      <trkpt lat="47.77431" lon="-3.477">
        <ele>25.064329</ele>
      </trkpt>
      <trkpt lat="47.77473" lon="-3.47741">
        <ele>31.418047</ele>
      </trkpt>
      <trkpt lat="47.77482" lon="-3.47762">
        <ele>32.029373</ele>
      </trkpt>
      <trkpt lat="47.77482" lon="-3.47831">
        <ele>31.48</ele>
      </trkpt>
      <trkpt lat="47.77563" lon="-3.47994">
        <ele>40.893436</ele>
      </trkpt>
      <trkpt lat="47.77608" lon="-3.48074">
        <ele>45.213413</ele>
      </trkpt>
      <trkpt lat="47.77635" lon="-3.48086">
        <ele>45.966572</ele>
      </trkpt>
      <trkpt lat="47.77666" lon="-3.48108">
        <ele>45.23</ele>
      </trkpt>
      <trkpt lat="47.77704" lon="-3.48149">
        <ele>43.709999</ele>
      </trkpt>
      <trkpt lat="47.77761" lon="-3.48177">
        <ele>40.270767</ele>
      </trkpt>
      <trkpt lat="47.77912" lon="-3.4818">
        <ele>40.91634</ele>
      </trkpt>
      <trkpt lat="47.77927" lon="-3.48186">
        <ele>41.665947</ele>
      </trkpt>
      <trkpt lat="47.77951" lon="-3.4821">
        <ele>42.899834</ele>
      </trkpt>
      <trkpt lat="47.77995" lon="-3.4824">
        <ele>41.880001</ele>
      </trkpt>
      <trkpt lat="47.7802" lon="-3.48269">
        <ele>40.511875</ele>
      </trkpt>
      <trkpt lat="47.78062" lon="-3.48287">
        <ele>39.084766</ele>
      </trkpt>
      <trkpt lat="47.78076" lon="-3.483">
        <ele>37.939087</ele>
      </trkpt>
      <trkpt lat="47.78094" lon="-3.48341">
        <ele>35.086933</ele>
      </trkpt>
      <trkpt lat="47.78095" lon="-3.48396">
        <ele>32.515312</ele>
      </trkpt>
      <trkpt lat="47.78095" lon="-3.485">
        <ele>28.701151</ele>
      </trkpt>
      <trkpt lat="47.78083" lon="-3.48518">
        <ele>28.320126</ele>
      </trkpt>
      <trkpt lat="47.78052" lon="-3.48524">
        <ele>28.703043</ele>
      </trkpt>
      <trkpt lat="47.78038" lon="-3.48534">
        <ele>28.831396</ele>
      </trkpt>
      <trkpt lat="47.78028" lon="-3.48551">
        <ele>28.578438</ele>
      </trkpt>
      <trkpt lat="47.77995" lon="-3.48627">
        <ele>26.193701</ele>
      </trkpt>
      <trkpt lat="47.77957" lon="-3.48695">
        <ele>23.625391</ele>
      </trkpt>
      <trkpt lat="47.7792" lon="-3.48749">
        <ele>21.601076</ele>
      </trkpt>
      <trkpt lat="47.77908" lon="-3.48759">
        <ele>21.203688</ele>
      </trkpt>
      <trkpt lat="47.77885" lon="-3.48768">
        <ele>21.298563</ele>
      </trkpt>
      <trkpt lat="47.77828" lon="-3.48777">
        <ele>21.968544</ele>
      </trkpt>
      <trkpt lat="47.77816" lon="-3.48791">
        <ele>20.877195</ele>
      </trkpt>
      <trkpt lat="47.778" lon="-3.48816">
        <ele>20.883474</ele>
      </trkpt>
      <trkpt lat="47.77789" lon="-3.48843">
        <ele>19.575232</ele>
      </trkpt>
      <trkpt lat="47.77798" lon="-3.48858">
        <ele>18.420622</ele>
      </trkpt>
      <trkpt lat="47.77828" lon="-3.48851">
        <ele>18.5723</ele>
      </trkpt>
      <trkpt lat="47.77857" lon="-3.48852">
        <ele>19.564388</ele>
      </trkpt>
      <trkpt lat="47.77924" lon="-3.48881">
        <ele>30.585907</ele>
      </trkpt>
      <trkpt lat="47.78019" lon="-3.48902">
        <ele>37.675114</ele>
      </trkpt>
      <trkpt lat="47.7813" lon="-3.48902">
        <ele>32.335938</ele>
      </trkpt>
      <trkpt lat="47.78178" lon="-3.48908">
        <ele>30.863438</ele>
      </trkpt>
      <trkpt lat="47.78326" lon="-3.48902">
        <ele>35.052811</ele>
      </trkpt>
      <trkpt lat="47.78383" lon="-3.48911">
        <ele>38.925213</ele>
      </trkpt>
      <trkpt lat="47.78397" lon="-3.48908">
        <ele>39.996758</ele>
      </trkpt>
      <trkpt lat="47.7844" lon="-3.4892">
        <ele>41.165455</ele>
      </trkpt>
      <trkpt lat="47.78527" lon="-3.48938">
        <ele>40.203609</ele>
      </trkpt>
      <trkpt lat="47.78575" lon="-3.48933">
        <ele>38.489307</ele>
      </trkpt>
      <trkpt lat="47.78637" lon="-3.48908">
        <ele>37.068512</ele>
      </trkpt>
      <trkpt lat="47.78699" lon="-3.48896">
        <ele>37.644688</ele>
      </trkpt>
      <trkpt lat="47.78756" lon="-3.48899">
        <ele>38.934685</ele>
      </trkpt>
      <trkpt lat="47.78826" lon="-3.48906">
        <ele>43.200245</ele>
      </trkpt>
      <trkpt lat="47.78856" lon="-3.48899">
        <ele>44.804226</ele>
      </trkpt>
      <trkpt lat="47.78899" lon="-3.48903">
        <ele>46.112278</ele>
      </trkpt>
      <trkpt lat="47.78928" lon="-3.48884">
        <ele>47.0625</ele>
      </trkpt>
      <trkpt lat="47.78935" lon="-3.48864">
        <ele>47.51125</ele>
      </trkpt>
      <trkpt lat="47.78931" lon="-3.48845">
        <ele>47.720627</ele>
      </trkpt>
    </trkseg>
  </trk>
  <trk>
    <name><![CDATA[huit de Doëlan]]></name>
    <trkseg>
      <trkpt lat="47.77629" lon="-3.60366">
        <ele>1.8</ele>
      </trkpt>
      <trkpt lat="47.77831" lon="-3.60507">
        <ele>11.4</ele>
      </trkpt>
      <trkpt lat="47.77872" lon="-3.60526">
        <ele>10.4</ele>
      </trkpt>
      <trkpt lat="47.77896" lon="-3.60577">
        <ele>12.6</ele>
      </trkpt>
      <trkpt lat="47.77888" lon="-3.60797">
        <ele>19.9</ele>
      </trkpt>
      <trkpt lat="47.77867" lon="-3.60856">
        <ele>22.5</ele>
      </trkpt>
      <trkpt lat="47.77865" lon="-3.60895">
        <ele>23.6</ele>
      </trkpt>
      <trkpt lat="47.77872" lon="-3.60909">
        <ele>23.7</ele>
      </trkpt>
      <trkpt lat="47.77968" lon="-3.60894">
        <ele>23.6</ele>
      </trkpt>
      <trkpt lat="47.78131" lon="-3.60934">
        <ele>34.4</ele>
      </trkpt>
      <trkpt lat="47.78274" lon="-3.60998">
        <ele>41</ele>
      </trkpt>
      <trkpt lat="47.78431" lon="-3.61093">
        <ele>43.2</ele>
      </trkpt>
      <trkpt lat="47.78608" lon="-3.61036">
        <ele>41.1</ele>
      </trkpt>
      <trkpt lat="47.78701" lon="-3.60994">
        <ele>40.1</ele>
      </trkpt>
      <trkpt lat="47.78737" lon="-3.61416">
        <ele>30.7</ele>
      </trkpt>
      <trkpt lat="47.78849" lon="-3.6145">
        <ele>33.5</ele>
      </trkpt>
      <trkpt lat="47.78919" lon="-3.61451">
        <ele>34.6</ele>
      </trkpt>
      <trkpt lat="47.78996" lon="-3.61411">
        <ele>36.2</ele>
      </trkpt>
      <trkpt lat="47.79017" lon="-3.61495">
        <ele>36.8</ele>
      </trkpt>
      <trkpt lat="47.79028" lon="-3.61665">
        <ele>39.5</ele>
      </trkpt>
      <trkpt lat="47.7906" lon="-3.61868">
        <ele>39.5</ele>
      </trkpt>
      <trkpt lat="47.78993" lon="-3.6193">
        <ele>40.8</ele>
      </trkpt>
      <trkpt lat="47.79" lon="-3.62116">
        <ele>34.8</ele>
      </trkpt>
      <trkpt lat="47.79019" lon="-3.62213">
        <ele>37</ele>
      </trkpt>
      <trkpt lat="47.79028" lon="-3.62273">
        <ele>38</ele>
      </trkpt>
      <trkpt lat="47.79092" lon="-3.62255">
        <ele>37.5</ele>
      </trkpt>
      <trkpt lat="47.79113" lon="-3.62316">
        <ele>38.3</ele>
      </trkpt>
      <trkpt lat="47.7915" lon="-3.6232">
        <ele>39.2</ele>
      </trkpt>
      <trkpt lat="47.79137" lon="-3.62399">
        <ele>38.9</ele>
      </trkpt>
      <trkpt lat="47.79127" lon="-3.62501">
        <ele>38.6</ele>
      </trkpt>
      <trkpt lat="47.79268" lon="-3.62477">
        <ele>45.7</ele>
      </trkpt>
      <trkpt lat="47.79269" lon="-3.62565">
        <ele>46</ele>
      </trkpt>
      <trkpt lat="47.793" lon="-3.62734">
        <ele>46.6</ele>
      </trkpt>
      <trkpt lat="47.79282" lon="-3.62901">
        <ele>41</ele>
      </trkpt>
      <trkpt lat="47.79288" lon="-3.6315">
        <ele>31</ele>
      </trkpt>
      <trkpt lat="47.79319" lon="-3.63174">
        <ele>31.8</ele>
      </trkpt>
      <trkpt lat="47.79331" lon="-3.63224">
        <ele>30.8</ele>
      </trkpt>
      <trkpt lat="47.7931" lon="-3.63342">
        <ele>27.8</ele>
      </trkpt>
      <trkpt lat="47.79262" lon="-3.63333">
        <ele>22.6</ele>
      </trkpt>
      <trkpt lat="47.79248" lon="-3.6347">
        <ele>19.3</ele>
      </trkpt>
      <trkpt lat="47.79304" lon="-3.63649">
        <ele>11.7</ele>
      </trkpt>
      <trkpt lat="47.79224" lon="-3.63738">
        <ele>22.3</ele>
      </trkpt>
      <trkpt lat="47.79157" lon="-3.63805">
        <ele>21.7</ele>
      </trkpt>
      <trkpt lat="47.79045" lon="-3.63816">
        <ele>19.9</ele>
      </trkpt>
      <trkpt lat="47.79004" lon="-3.6378">
        <ele>17.8</ele>
      </trkpt>
      <trkpt lat="47.78986" lon="-3.63699">
        <ele>20.6</ele>
      </trkpt>
      <trkpt lat="47.78956" lon="-3.63677">
        <ele>20.6</ele>
      </trkpt>
      <trkpt lat="47.78904" lon="-3.63698">
        <ele>23.8</ele>
      </trkpt>
      <trkpt lat="47.78866" lon="-3.63648">
        <ele>27.8</ele>
      </trkpt>
      <trkpt lat="47.78915" lon="-3.63493">
        <ele>27.9</ele>
      </trkpt>
      <trkpt lat="47.78888" lon="-3.63429">
        <ele>31.2</ele>
      </trkpt>
      <trkpt lat="47.78851" lon="-3.63413">
        <ele>32.9</ele>
      </trkpt>
      <trkpt lat="47.78836" lon="-3.63374">
        <ele>33.9</ele>
      </trkpt>
      <trkpt lat="47.78835" lon="-3.63278">
        <ele>35.5</ele>
      </trkpt>
      <trkpt lat="47.7875" lon="-3.63271">
        <ele>35.7</ele>
      </trkpt>
      <trkpt lat="47.78736" lon="-3.63188">
        <ele>35.8</ele>
      </trkpt>
      <trkpt lat="47.78628" lon="-3.63223">
        <ele>31.9</ele>
      </trkpt>
      <trkpt lat="47.78561" lon="-3.6328">
        <ele>28.3</ele>
      </trkpt>
      <trkpt lat="47.78538" lon="-3.63353">
        <ele>27.8</ele>
      </trkpt>
      <trkpt lat="47.7855" lon="-3.63425">
        <ele>31.1</ele>
      </trkpt>
      <trkpt lat="47.78593" lon="-3.63617">
        <ele>35.8</ele>
      </trkpt>
      <trkpt lat="47.78479" lon="-3.63714">
        <ele>33.2</ele>
      </trkpt>
      <trkpt lat="47.7839" lon="-3.63842">
        <ele>32.5</ele>
      </trkpt>
      <trkpt lat="47.78308" lon="-3.63949">
        <ele>32.1</ele>
      </trkpt>
      <trkpt lat="47.78299" lon="-3.64031">
        <ele>30.9</ele>
      </trkpt>
      <trkpt lat="47.78245" lon="-3.64193">
        <ele>30.1</ele>
      </trkpt>
      <trkpt lat="47.78193" lon="-3.64254">
        <ele>30</ele>
      </trkpt>
      <trkpt lat="47.78177" lon="-3.64328">
        <ele>28.9</ele>
      </trkpt>
      <trkpt lat="47.78116" lon="-3.64337">
        <ele>28</ele>
      </trkpt>
      <trkpt lat="47.78061" lon="-3.64314">
        <ele>27.8</ele>
      </trkpt>
      <trkpt lat="47.78047" lon="-3.64396">
        <ele>25.3</ele>
      </trkpt>
      <trkpt lat="47.78" lon="-3.64455">
        <ele>23.4</ele>
      </trkpt>
      <trkpt lat="47.77992" lon="-3.64487">
        <ele>22.4</ele>
      </trkpt>
      <trkpt lat="47.77879" lon="-3.6452">
        <ele>21.8</ele>
      </trkpt>
      <trkpt lat="47.77785" lon="-3.64528">
        <ele>19.7</ele>
      </trkpt>
      <trkpt lat="47.77751" lon="-3.64512">
        <ele>15.6</ele>
      </trkpt>
      <trkpt lat="47.77753" lon="-3.64412">
        <ele>26.3</ele>
      </trkpt>
      <trkpt lat="47.77669" lon="-3.64409">
        <ele>23.8</ele>
      </trkpt>
      <trkpt lat="47.77639" lon="-3.64316">
        <ele>22.7</ele>
      </trkpt>
      <trkpt lat="47.77655" lon="-3.64156">
        <ele>23.1</ele>
      </trkpt>
      <trkpt lat="47.77629" lon="-3.64128">
        <ele>20.7</ele>
      </trkpt>
      <trkpt lat="47.77626" lon="-3.64078">
        <ele>19.5</ele>
      </trkpt>
      <trkpt lat="47.77651" lon="-3.64033">
        <ele>20</ele>
      </trkpt>
      <trkpt lat="47.7768" lon="-3.64065">
        <ele>23</ele>
      </trkpt>
      <trkpt lat="47.77736" lon="-3.64057">
        <ele>24.1</ele>
      </trkpt>
      <trkpt lat="47.7776" lon="-3.64078">
        <ele>25.1</ele>
      </trkpt>
      <trkpt lat="47.77759" lon="-3.64111">
        <ele>25.7</ele>
      </trkpt>
      <trkpt lat="47.77805" lon="-3.64129">
        <ele>26.6</ele>
      </trkpt>
      <trkpt lat="47.77824" lon="-3.64206">
        <ele>27.9</ele>
      </trkpt>
      <trkpt lat="47.7804" lon="-3.6423">
        <ele>28.7</ele>
      </trkpt>
      <trkpt lat="47.78048" lon="-3.64134">
        <ele>28.3</ele>
      </trkpt>
      <trkpt lat="47.78127" lon="-3.6412">
        <ele>28.1</ele>
      </trkpt>
      <trkpt lat="47.78274" lon="-3.64065">
        <ele>29.1</ele>
      </trkpt>
      <trkpt lat="47.78292" lon="-3.64018">
        <ele>30.7</ele>
      </trkpt>
      <trkpt lat="47.78255" lon="-3.63849">
        <ele>29.8</ele>
      </trkpt>
      <trkpt lat="47.78203" lon="-3.63873">
        <ele>27.1</ele>
      </trkpt>
      <trkpt lat="47.78144" lon="-3.63878">
        <ele>22.3</ele>
      </trkpt>
      <trkpt lat="47.78121" lon="-3.6394">
        <ele>19.3</ele>
      </trkpt>
      <trkpt lat="47.7807" lon="-3.63934">
        <ele>19.9</ele>
      </trkpt>
      <trkpt lat="47.78042" lon="-3.639">
        <ele>17.5</ele>
      </trkpt>
      <trkpt lat="47.77847" lon="-3.63957">
        <ele>11.9</ele>
      </trkpt>
      <trkpt lat="47.77724" lon="-3.63928">
        <ele>7.5</ele>
      </trkpt>
      <trkpt lat="47.77721" lon="-3.63895">
        <ele>8.1</ele>
      </trkpt>
      <trkpt lat="47.77702" lon="-3.6388">
        <ele>8.3</ele>
      </trkpt>
      <trkpt lat="47.77739" lon="-3.63796">
        <ele>19.5</ele>
      </trkpt>
      <trkpt lat="47.77766" lon="-3.63837">
        <ele>14.4</ele>
      </trkpt>
      <trkpt lat="47.77827" lon="-3.63884">
        <ele>11.8</ele>
      </trkpt>
      <trkpt lat="47.77946" lon="-3.63848">
        <ele>15.9</ele>
      </trkpt>
      <trkpt lat="47.77979" lon="-3.63798">
        <ele>17.4</ele>
      </trkpt>
      <trkpt lat="47.77932" lon="-3.63715">
        <ele>25.3</ele>
      </trkpt>
      <trkpt lat="47.78022" lon="-3.63752">
        <ele>18.8</ele>
      </trkpt>
      <trkpt lat="47.78075" lon="-3.63739">
        <ele>16.6</ele>
      </trkpt>
      <trkpt lat="47.7813" lon="-3.63677">
        <ele>19.8</ele>
      </trkpt>
      <trkpt lat="47.78129" lon="-3.63539">
        <ele>29.3</ele>
      </trkpt>
      <trkpt lat="47.7817" lon="-3.6354">
        <ele>27.8</ele>
      </trkpt>
      <trkpt lat="47.78232" lon="-3.63495">
        <ele>25.7</ele>
      </trkpt>
      <trkpt lat="47.78334" lon="-3.63487">
        <ele>22.4</ele>
      </trkpt>
      <trkpt lat="47.78428" lon="-3.6337">
        <ele>22.6</ele>
      </trkpt>
      <trkpt lat="47.7845" lon="-3.63301">
        <ele>21.9</ele>
      </trkpt>
      <trkpt lat="47.78441" lon="-3.63215">
        <ele>25</ele>
      </trkpt>
      <trkpt lat="47.78347" lon="-3.63098">
        <ele>33.7</ele>
      </trkpt>
      <trkpt lat="47.78146" lon="-3.63211">
        <ele>33.8</ele>
      </trkpt>
      <trkpt lat="47.78116" lon="-3.63255">
        <ele>33.2</ele>
      </trkpt>
      <trkpt lat="47.78056" lon="-3.6329">
        <ele>32.8</ele>
      </trkpt>
      <trkpt lat="47.78037" lon="-3.6319">
        <ele>31</ele>
      </trkpt>
      <trkpt lat="47.77955" lon="-3.63328">
        <ele>31.9</ele>
      </trkpt>
      <trkpt lat="47.77864" lon="-3.63426">
        <ele>31</ele>
      </trkpt>
      <trkpt lat="47.77842" lon="-3.63469">
        <ele>30.5</ele>
      </trkpt>
      <trkpt lat="47.77658" lon="-3.63497">
        <ele>24.7</ele>
      </trkpt>
      <trkpt lat="47.7761" lon="-3.63416">
        <ele>25</ele>
      </trkpt>
      <trkpt lat="47.77559" lon="-3.63421">
        <ele>23.3</ele>
      </trkpt>
      <trkpt lat="47.77508" lon="-3.63465">
        <ele>19.7</ele>
      </trkpt>
      <trkpt lat="47.77451" lon="-3.63447">
        <ele>13.3</ele>
      </trkpt>
      <trkpt lat="47.77455" lon="-3.63328">
        <ele>16.9</ele>
      </trkpt>
      <trkpt lat="47.77368" lon="-3.63303">
        <ele>17.3</ele>
      </trkpt>
      <trkpt lat="47.77331" lon="-3.63268">
        <ele>16.9</ele>
      </trkpt>
      <trkpt lat="47.77333" lon="-3.6298">
        <ele>16.5</ele>
      </trkpt>
      <trkpt lat="47.77422" lon="-3.63031">
        <ele>21.2</ele>
      </trkpt>
      <trkpt lat="47.77431" lon="-3.62957">
        <ele>16</ele>
      </trkpt>
      <trkpt lat="47.77462" lon="-3.62931">
        <ele>15.8</ele>
      </trkpt>
      <trkpt lat="47.77524" lon="-3.62922">
        <ele>23.2</ele>
      </trkpt>
      <trkpt lat="47.7767" lon="-3.6298">
        <ele>25.3</ele>
      </trkpt>
      <trkpt lat="47.77702" lon="-3.63021">
        <ele>26.8</ele>
      </trkpt>
      <trkpt lat="47.77831" lon="-3.62961">
        <ele>20</ele>
      </trkpt>
      <trkpt lat="47.77896" lon="-3.6298">
        <ele>15.2</ele>
      </trkpt>
      <trkpt lat="47.77954" lon="-3.629">
        <ele>16.9</ele>
      </trkpt>
      <trkpt lat="47.78022" lon="-3.62922">
        <ele>22.2</ele>
      </trkpt>
      <trkpt lat="47.78074" lon="-3.62907">
        <ele>23.8</ele>
      </trkpt>
      <trkpt lat="47.78058" lon="-3.62762">
        <ele>13.8</ele>
      </trkpt>
      <trkpt lat="47.78015" lon="-3.62649">
        <ele>15.6</ele>
      </trkpt>
      <trkpt lat="47.77922" lon="-3.62705">
        <ele>21.5</ele>
      </trkpt>
      <trkpt lat="47.77845" lon="-3.62677">
        <ele>21.5</ele>
      </trkpt>
      <trkpt lat="47.77756" lon="-3.62698">
        <ele>24.5</ele>
      </trkpt>
      <trkpt lat="47.7771" lon="-3.62677">
        <ele>25</ele>
      </trkpt>
      <trkpt lat="47.77775" lon="-3.62441">
        <ele>30</ele>
      </trkpt>
      <trkpt lat="47.77748" lon="-3.62438">
        <ele>29.2</ele>
      </trkpt>
      <trkpt lat="47.77812" lon="-3.62175">
        <ele>28.5</ele>
      </trkpt>
      <trkpt lat="47.779" lon="-3.62188">
        <ele>32.6</ele>
      </trkpt>
      <trkpt lat="47.77892" lon="-3.62139">
        <ele>33</ele>
      </trkpt>
      <trkpt lat="47.77883" lon="-3.61947">
        <ele>32</ele>
      </trkpt>
      <trkpt lat="47.77844" lon="-3.61739">
        <ele>27.5</ele>
      </trkpt>
      <trkpt lat="47.77806" lon="-3.6171">
        <ele>27.8</ele>
      </trkpt>
      <trkpt lat="47.77781" lon="-3.61661">
        <ele>29.2</ele>
      </trkpt>
      <trkpt lat="47.77693" lon="-3.61685">
        <ele>29.9</ele>
      </trkpt>
      <trkpt lat="47.77669" lon="-3.61717">
        <ele>30</ele>
      </trkpt>
      <trkpt lat="47.77563" lon="-3.61745">
        <ele>29.1</ele>
      </trkpt>
      <trkpt lat="47.77464" lon="-3.61705">
        <ele>30.6</ele>
      </trkpt>
      <trkpt lat="47.77353" lon="-3.61719">
        <ele>29.6</ele>
      </trkpt>
      <trkpt lat="47.77137" lon="-3.61695">
        <ele>27.5</ele>
      </trkpt>
      <trkpt lat="47.77151" lon="-3.61576">
        <ele>27.3</ele>
      </trkpt>
      <trkpt lat="47.77117" lon="-3.61441">
        <ele>20.6</ele>
      </trkpt>
      <trkpt lat="47.77204" lon="-3.61172">
        <ele>21.5</ele>
      </trkpt>
      <trkpt lat="47.77231" lon="-3.61183">
        <ele>22.2</ele>
      </trkpt>
      <trkpt lat="47.77286" lon="-3.61152">
        <ele>20</ele>
      </trkpt>
      <trkpt lat="47.77338" lon="-3.61203">
        <ele>22.3</ele>
      </trkpt>
      <trkpt lat="47.77394" lon="-3.61216">
        <ele>23.5</ele>
      </trkpt>
      <trkpt lat="47.77366" lon="-3.61363">
        <ele>29.2</ele>
      </trkpt>
      <trkpt lat="47.77372" lon="-3.61548">
        <ele>32.9</ele>
      </trkpt>
      <trkpt lat="47.77396" lon="-3.61599">
        <ele>32.5</ele>
      </trkpt>
      <trkpt lat="47.77445" lon="-3.61646">
        <ele>31.3</ele>
      </trkpt>
      <trkpt lat="47.77466" lon="-3.61697">
        <ele>30.9</ele>
      </trkpt>
      <trkpt lat="47.77529" lon="-3.61689">
        <ele>30</ele>
      </trkpt>
      <trkpt lat="47.77577" lon="-3.61624">
        <ele>29.9</ele>
      </trkpt>
      <trkpt lat="47.7762" lon="-3.61595">
        <ele>30</ele>
      </trkpt>
      <trkpt lat="47.77618" lon="-3.61489">
        <ele>26.6</ele>
      </trkpt>
      <trkpt lat="47.7761" lon="-3.61409">
        <ele>26.3</ele>
      </trkpt>
      <trkpt lat="47.77645" lon="-3.61313">
        <ele>27</ele>
      </trkpt>
      <trkpt lat="47.77635" lon="-3.61289">
        <ele>25.9</ele>
      </trkpt>
      <trkpt lat="47.77638" lon="-3.61248">
        <ele>24.8</ele>
      </trkpt>
      <trkpt lat="47.77697" lon="-3.61262">
        <ele>27.6</ele>
      </trkpt>
      <trkpt lat="47.77699" lon="-3.61153">
        <ele>29.5</ele>
      </trkpt>
      <trkpt lat="47.77757" lon="-3.60947">
        <ele>26.7</ele>
      </trkpt>
      <trkpt lat="47.77828" lon="-3.60973">
        <ele>26.2</ele>
      </trkpt>
      <trkpt lat="47.77866" lon="-3.60943">
        <ele>24.8</ele>
      </trkpt>
      <trkpt lat="47.77866" lon="-3.60835">
        <ele>21.9</ele>
      </trkpt>
      <trkpt lat="47.77897" lon="-3.60774">
        <ele>18.8</ele>
      </trkpt>
      <trkpt lat="47.77901" lon="-3.60591">
        <ele>13.4</ele>
      </trkpt>
      <trkpt lat="47.7785" lon="-3.60521">
        <ele>12.3</ele>
      </trkpt>
      <trkpt lat="47.77618" lon="-3.60357">
        <ele>4.1</ele>
      </trkpt>
      <trkpt lat="47.7752" lon="-3.6033">
        <ele>15</ele>
      </trkpt>
      <trkpt lat="47.77479" lon="-3.60333">
        <ele>19.7</ele>
      </trkpt>
      <trkpt lat="47.77462" lon="-3.60365">
        <ele>19.1</ele>
      </trkpt>
      <trkpt lat="47.77242" lon="-3.60367">
        <ele>25.3</ele>
      </trkpt>
      <trkpt lat="47.77145" lon="-3.60394">
        <ele>21.3</ele>
      </trkpt>
      <trkpt lat="47.77137" lon="-3.60201">
        <ele>20.1</ele>
      </trkpt>
      <trkpt lat="47.77144" lon="-3.60067">
        <ele>23.1</ele>
      </trkpt>
      <trkpt lat="47.77076" lon="-3.59968">
        <ele>18.2</ele>
      </trkpt>
      <trkpt lat="47.77061" lon="-3.59854">
        <ele>20.7</ele>
      </trkpt>
      <trkpt lat="47.77039" lon="-3.59844">
        <ele>15.3</ele>
      </trkpt>
      <trkpt lat="47.77036" lon="-3.59769">
        <ele>17.6</ele>
      </trkpt>
      <trkpt lat="47.77054" lon="-3.59708">
        <ele>15.7</ele>
      </trkpt>
      <trkpt lat="47.77023" lon="-3.59588">
        <ele>20.5</ele>
      </trkpt>
      <trkpt lat="47.77029" lon="-3.59535">
        <ele>23.6</ele>
      </trkpt>
      <trkpt lat="47.77054" lon="-3.59504">
        <ele>26.4</ele>
      </trkpt>
      <trkpt lat="47.77067" lon="-3.59446">
        <ele>28.3</ele>
      </trkpt>
      <trkpt lat="47.77063" lon="-3.59322">
        <ele>29.3</ele>
      </trkpt>
      <trkpt lat="47.7709" lon="-3.59145">
        <ele>24</ele>
      </trkpt>
      <trkpt lat="47.77016" lon="-3.59095">
        <ele>20.1</ele>
      </trkpt>
      <trkpt lat="47.76938" lon="-3.58907">
        <ele>20.9</ele>
      </trkpt>
      <trkpt lat="47.76926" lon="-3.58778">
        <ele>15.2</ele>
      </trkpt>
      <trkpt lat="47.77009" lon="-3.58813">
        <ele>23.3</ele>
      </trkpt>
      <trkpt lat="47.77068" lon="-3.58722">
        <ele>23.5</ele>
      </trkpt>
      <trkpt lat="47.77173" lon="-3.58746">
        <ele>28.5</ele>
      </trkpt>
      <trkpt lat="47.77286" lon="-3.58837">
        <ele>35.8</ele>
      </trkpt>
      <trkpt lat="47.77295" lon="-3.58897">
        <ele>36.3</ele>
      </trkpt>
      <trkpt lat="47.77449" lon="-3.589">
        <ele>40.9</ele>
      </trkpt>
      <trkpt lat="47.77439" lon="-3.58715">
        <ele>39.5</ele>
      </trkpt>
      <trkpt lat="47.7745" lon="-3.58585">
        <ele>39.7</ele>
      </trkpt>
      <trkpt lat="47.77535" lon="-3.58595">
        <ele>41</ele>
      </trkpt>
      <trkpt lat="47.77703" lon="-3.58572">
        <ele>37.8</ele>
      </trkpt>
      <trkpt lat="47.77794" lon="-3.58624">
        <ele>35.5</ele>
      </trkpt>
      <trkpt lat="47.77863" lon="-3.58605">
        <ele>36.4</ele>
      </trkpt>
      <trkpt lat="47.7786" lon="-3.58542">
        <ele>38.4</ele>
      </trkpt>
      <trkpt lat="47.77837" lon="-3.58385">
        <ele>42.1</ele>
      </trkpt>
      <trkpt lat="47.77835" lon="-3.58298">
        <ele>42</ele>
      </trkpt>
      <trkpt lat="47.77861" lon="-3.58294">
        <ele>42.4</ele>
      </trkpt>
      <trkpt lat="47.77912" lon="-3.5804">
        <ele>40.8</ele>
      </trkpt>
      <trkpt lat="47.77806" lon="-3.57991">
        <ele>37.4</ele>
      </trkpt>
      <trkpt lat="47.77775" lon="-3.57942">
        <ele>37</ele>
      </trkpt>
      <trkpt lat="47.77716" lon="-3.57929">
        <ele>36.5</ele>
      </trkpt>
      <trkpt lat="47.77661" lon="-3.57848">
        <ele>30.9</ele>
      </trkpt>
      <trkpt lat="47.77632" lon="-3.57841">
        <ele>28.6</ele>
      </trkpt>
      <trkpt lat="47.77628" lon="-3.57724">
        <ele>31.9</ele>
      </trkpt>
      <trkpt lat="47.77612" lon="-3.57628">
        <ele>36</ele>
      </trkpt>
      <trkpt lat="47.77618" lon="-3.57467">
        <ele>37.8</ele>
      </trkpt>
      <trkpt lat="47.77545" lon="-3.57523">
        <ele>34.7</ele>
      </trkpt>
      <trkpt lat="47.77496" lon="-3.57528">
        <ele>33.4</ele>
      </trkpt>
      <trkpt lat="47.77437" lon="-3.57503">
        <ele>31.8</ele>
      </trkpt>
      <trkpt lat="47.77314" lon="-3.57483">
        <ele>31.9</ele>
      </trkpt>
      <trkpt lat="47.7723" lon="-3.57498">
        <ele>29.5</ele>
      </trkpt>
      <trkpt lat="47.77273" lon="-3.57335">
        <ele>20.5</ele>
      </trkpt>
      <trkpt lat="47.77409" lon="-3.57306">
        <ele>32.9</ele>
      </trkpt>
      <trkpt lat="47.77506" lon="-3.57238">
        <ele>34.9</ele>
      </trkpt>
      <trkpt lat="47.77631" lon="-3.57277">
        <ele>40.4</ele>
      </trkpt>
      <trkpt lat="47.77648" lon="-3.57237">
        <ele>40.1</ele>
      </trkpt>
      <trkpt lat="47.7765" lon="-3.57152">
        <ele>37.2</ele>
      </trkpt>
      <trkpt lat="47.77627" lon="-3.56894">
        <ele>45.1</ele>
      </trkpt>
      <trkpt lat="47.77557" lon="-3.56928">
        <ele>43.3</ele>
      </trkpt>
      <trkpt lat="47.77459" lon="-3.56992">
        <ele>42.4</ele>
      </trkpt>
      <trkpt lat="47.77393" lon="-3.56984">
        <ele>40</ele>
      </trkpt>
      <trkpt lat="47.77358" lon="-3.56928">
        <ele>40.8</ele>
      </trkpt>
      <trkpt lat="47.77229" lon="-3.56854">
        <ele>38.6</ele>
      </trkpt>
      <trkpt lat="47.77103" lon="-3.56821">
        <ele>33.9</ele>
      </trkpt>
      <trkpt lat="47.77156" lon="-3.56621">
        <ele>32.4</ele>
      </trkpt>
      <trkpt lat="47.77192" lon="-3.5656">
        <ele>36</ele>
      </trkpt>
      <trkpt lat="47.7728" lon="-3.56507">
        <ele>39.8</ele>
      </trkpt>
      <trkpt lat="47.77359" lon="-3.5655">
        <ele>41.2</ele>
      </trkpt>
      <trkpt lat="47.77459" lon="-3.56553">
        <ele>40.3</ele>
      </trkpt>
      <trkpt lat="47.7766" lon="-3.5635">
        <ele>41.5</ele>
      </trkpt>
      <trkpt lat="47.77703" lon="-3.56345">
        <ele>42.2</ele>
      </trkpt>
      <trkpt lat="47.77686" lon="-3.5626">
        <ele>40.8</ele>
      </trkpt>
      <trkpt lat="47.77356" lon="-3.56069">
        <ele>35.8</ele>
      </trkpt>
      <trkpt lat="47.77324" lon="-3.56059">
        <ele>32.3</ele>
      </trkpt>
      <trkpt lat="47.77267" lon="-3.55905">
        <ele>22.2</ele>
      </trkpt>
      <trkpt lat="47.77121" lon="-3.55897">
        <ele>29.9</ele>
      </trkpt>
      <trkpt lat="47.77009" lon="-3.55835">
        <ele>26</ele>
      </trkpt>
      <trkpt lat="47.76989" lon="-3.55863">
        <ele>24.5</ele>
      </trkpt>
      <trkpt lat="47.76921" lon="-3.55863">
        <ele>18.5</ele>
      </trkpt>
      <trkpt lat="47.76853" lon="-3.55811">
        <ele>13.4</ele>
      </trkpt>
      <trkpt lat="47.76877" lon="-3.55723">
        <ele>10</ele>
      </trkpt>
      <trkpt lat="47.76762" lon="-3.55609">
        <ele>8.5</ele>
      </trkpt>
      <trkpt lat="47.76723" lon="-3.55485">
        <ele>5.4</ele>
      </trkpt>
      <trkpt lat="47.76675" lon="-3.55513">
        <ele>5.5</ele>
      </trkpt>
      <trkpt lat="47.76656" lon="-3.5545">
        <ele>5.1</ele>
      </trkpt>
      <trkpt lat="47.76647" lon="-3.5509">
        <ele>13.7</ele>
      </trkpt>
      <trkpt lat="47.76705" lon="-3.55096">
        <ele>13.8</ele>
      </trkpt>
      <trkpt lat="47.76748" lon="-3.55117">
        <ele>14.6</ele>
      </trkpt>
      <trkpt lat="47.76803" lon="-3.55194">
        <ele>10.2</ele>
      </trkpt>
      <trkpt lat="47.76853" lon="-3.5521">
        <ele>7.7</ele>
      </trkpt>
      <trkpt lat="47.76891" lon="-3.55102">
        <ele>9.2</ele>
      </trkpt>
      <trkpt lat="47.76932" lon="-3.55081">
        <ele>12</ele>
      </trkpt>
      <trkpt lat="47.76979" lon="-3.55097">
        <ele>17.4</ele>
      </trkpt>
      <trkpt lat="47.77079" lon="-3.55119">
        <ele>25.7</ele>
      </trkpt>
      <trkpt lat="47.77181" lon="-3.5513">
        <ele>33.3</ele>
      </trkpt>
      <trkpt lat="47.77277" lon="-3.55183">
        <ele>38.9</ele>
      </trkpt>
      <trkpt lat="47.77511" lon="-3.55385">
        <ele>39.8</ele>
      </trkpt>
      <trkpt lat="47.77734" lon="-3.55327">
        <ele>37.4</ele>
      </trkpt>
      <trkpt lat="47.77791" lon="-3.55308">
        <ele>37.1</ele>
      </trkpt>
      <trkpt lat="47.77798" lon="-3.55334">
        <ele>35.9</ele>
      </trkpt>
      <trkpt lat="47.77994" lon="-3.55333">
        <ele>40</ele>
      </trkpt>
      <trkpt lat="47.78114" lon="-3.55314">
        <ele>36.3</ele>
      </trkpt>
      <trkpt lat="47.782" lon="-3.55279">
        <ele>30.2</ele>
      </trkpt>
      <trkpt lat="47.78349" lon="-3.55123">
        <ele>23.5</ele>
      </trkpt>
      <trkpt lat="47.78428" lon="-3.54959">
        <ele>31.3</ele>
      </trkpt>
      <trkpt lat="47.78482" lon="-3.54767">
        <ele>35.1</ele>
      </trkpt>
      <trkpt lat="47.78503" lon="-3.54663">
        <ele>35.9</ele>
      </trkpt>
      <trkpt lat="47.78527" lon="-3.5467">
        <ele>35.3</ele>
      </trkpt>
      <trkpt lat="47.78558" lon="-3.54609">
        <ele>35.7</ele>
      </trkpt>
      <trkpt lat="47.78536" lon="-3.54567">
        <ele>35.7</ele>
      </trkpt>
      <trkpt lat="47.78591" lon="-3.54396">
        <ele>32.1</ele>
      </trkpt>
      <trkpt lat="47.78654" lon="-3.54351">
        <ele>27.4</ele>
      </trkpt>
      <trkpt lat="47.78692" lon="-3.5428">
        <ele>20.5</ele>
      </trkpt>
      <trkpt lat="47.7879" lon="-3.54256">
        <ele>17.6</ele>
      </trkpt>
      <trkpt lat="47.78914" lon="-3.54353">
        <ele>10.8</ele>
      </trkpt>
      <trkpt lat="47.78988" lon="-3.54492">
        <ele>7.6</ele>
      </trkpt>
      <trkpt lat="47.79024" lon="-3.54527">
        <ele>5.8</ele>
      </trkpt>
      <trkpt lat="47.7902" lon="-3.54612">
        <ele>6.9</ele>
      </trkpt>
      <trkpt lat="47.78973" lon="-3.54734">
        <ele>8.2</ele>
      </trkpt>
      <trkpt lat="47.78915" lon="-3.54969">
        <ele>5.3</ele>
      </trkpt>
      <trkpt lat="47.78961" lon="-3.55026">
        <ele>4.6</ele>
      </trkpt>
      <trkpt lat="47.78889" lon="-3.55239">
        <ele>8.8</ele>
      </trkpt>
      <trkpt lat="47.78799" lon="-3.5542">
        <ele>13.4</ele>
      </trkpt>
      <trkpt lat="47.78746" lon="-3.5552">
        <ele>15.6</ele>
      </trkpt>
      <trkpt lat="47.78676" lon="-3.55561">
        <ele>15.8</ele>
      </trkpt>
      <trkpt lat="47.78605" lon="-3.55812">
        <ele>16.7</ele>
      </trkpt>
      <trkpt lat="47.78603" lon="-3.5589">
        <ele>16.5</ele>
      </trkpt>
      <trkpt lat="47.78468" lon="-3.56149">
        <ele>26.1</ele>
      </trkpt>
      <trkpt lat="47.78305" lon="-3.56337">
        <ele>40.4</ele>
      </trkpt>
      <trkpt lat="47.78278" lon="-3.56338">
        <ele>44.5</ele>
      </trkpt>
      <trkpt lat="47.78239" lon="-3.56483">
        <ele>44</ele>
      </trkpt>
      <trkpt lat="47.78202" lon="-3.56562">
        <ele>44.7</ele>
      </trkpt>
      <trkpt lat="47.78168" lon="-3.56806">
        <ele>52</ele>
      </trkpt>
      <trkpt lat="47.78154" lon="-3.56834">
        <ele>53.1</ele>
      </trkpt>
      <trkpt lat="47.78075" lon="-3.56799">
        <ele>53</ele>
      </trkpt>
      <trkpt lat="47.77945" lon="-3.56766">
        <ele>48.7</ele>
      </trkpt>
      <trkpt lat="47.77901" lon="-3.56739">
        <ele>47.1</ele>
      </trkpt>
      <trkpt lat="47.77854" lon="-3.5686">
        <ele>45</ele>
      </trkpt>
      <trkpt lat="47.77756" lon="-3.56914">
        <ele>43.8</ele>
      </trkpt>
      <trkpt lat="47.77755" lon="-3.57134">
        <ele>40.2</ele>
      </trkpt>
      <trkpt lat="47.77659" lon="-3.57161">
        <ele>38.2</ele>
      </trkpt>
      <trkpt lat="47.77657" lon="-3.57248">
        <ele>40.6</ele>
      </trkpt>
      <trkpt lat="47.77635" lon="-3.57302">
        <ele>40.8</ele>
      </trkpt>
      <trkpt lat="47.77624" lon="-3.57457">
        <ele>38.2</ele>
      </trkpt>
      <trkpt lat="47.77689" lon="-3.57405">
        <ele>39.7</ele>
      </trkpt>
      <trkpt lat="47.78001" lon="-3.57346">
        <ele>43.9</ele>
      </trkpt>
      <trkpt lat="47.78015" lon="-3.57415">
        <ele>41.1</ele>
      </trkpt>
      <trkpt lat="47.78062" lon="-3.57454">
        <ele>40.6</ele>
      </trkpt>
      <trkpt lat="47.78062" lon="-3.57484">
        <ele>40.6</ele>
      </trkpt>
      <trkpt lat="47.78127" lon="-3.5754">
        <ele>44.3</ele>
      </trkpt>
      <trkpt lat="47.78123" lon="-3.57633">
        <ele>44.9</ele>
      </trkpt>
      <trkpt lat="47.78134" lon="-3.57728">
        <ele>44.2</ele>
      </trkpt>
      <trkpt lat="47.78134" lon="-3.57834">
        <ele>45.1</ele>
      </trkpt>
      <trkpt lat="47.78202" lon="-3.57848">
        <ele>47.2</ele>
      </trkpt>
      <trkpt lat="47.78193" lon="-3.57949">
        <ele>48.6</ele>
      </trkpt>
      <trkpt lat="47.78249" lon="-3.57993">
        <ele>50.8</ele>
      </trkpt>
      <trkpt lat="47.78369" lon="-3.58108">
        <ele>55</ele>
      </trkpt>
      <trkpt lat="47.78366" lon="-3.58174">
        <ele>54.2</ele>
      </trkpt>
      <trkpt lat="47.78486" lon="-3.58165">
        <ele>54.9</ele>
      </trkpt>
      <trkpt lat="47.78616" lon="-3.58177">
        <ele>49.3</ele>
      </trkpt>
      <trkpt lat="47.78671" lon="-3.58303">
        <ele>48.8</ele>
      </trkpt>
      <trkpt lat="47.78765" lon="-3.58551">
        <ele>42.2</ele>
      </trkpt>
      <trkpt lat="47.78803" lon="-3.58757">
        <ele>38.4</ele>
      </trkpt>
      <trkpt lat="47.78757" lon="-3.58856">
        <ele>40.9</ele>
      </trkpt>
      <trkpt lat="47.7858" lon="-3.58938">
        <ele>46.5</ele>
      </trkpt>
      <trkpt lat="47.78535" lon="-3.58993">
        <ele>46.5</ele>
      </trkpt>
      <trkpt lat="47.78315" lon="-3.5907">
        <ele>39.5</ele>
      </trkpt>
      <trkpt lat="47.78209" lon="-3.59043">
        <ele>43.5</ele>
      </trkpt>
      <trkpt lat="47.78102" lon="-3.59245">
        <ele>40.8</ele>
      </trkpt>
      <trkpt lat="47.77932" lon="-3.59297">
        <ele>31.3</ele>
      </trkpt>
      <trkpt lat="47.77841" lon="-3.59358">
        <ele>28.1</ele>
      </trkpt>
      <trkpt lat="47.77689" lon="-3.59427">
        <ele>17.5</ele>
      </trkpt>
      <trkpt lat="47.77676" lon="-3.60131">
        <ele>10.4</ele>
      </trkpt>
      <trkpt lat="47.77644" lon="-3.60203">
        <ele>8.1</ele>
      </trkpt>
      <trkpt lat="47.77654" lon="-3.60301">
        <ele>5</ele>
      </trkpt>
      <trkpt lat="47.77642" lon="-3.60356">
        <ele>2.6</ele>
      </trkpt>
    </trkseg>
  </trk>
  <trk>
    <name><![CDATA[Laita-Guidel]]></name>
    <trkseg>
      <trkpt lat="47.78844" lon="-3.48691">
        <ele>38.6</ele>
      </trkpt>
      <trkpt lat="47.78844" lon="-3.48688">
        <ele>37.400002</ele>
      </trkpt>
      <trkpt lat="47.78839" lon="-3.48688">
        <ele>37.4</ele>
      </trkpt>
      <trkpt lat="47.78838" lon="-3.48703">
        <ele>37.4</ele>
      </trkpt>
      <trkpt lat="47.78827" lon="-3.48717">
        <ele>37.400002</ele>
      </trkpt>
      <trkpt lat="47.78812" lon="-3.48716">
        <ele>37.400002</ele>
      </trkpt>
      <trkpt lat="47.78798" lon="-3.48706">
        <ele>37.400002</ele>
      </trkpt>
      <trkpt lat="47.78794" lon="-3.48699">
        <ele>37.4</ele>
      </trkpt>
      <trkpt lat="47.78795" lon="-3.48689">
        <ele>37.400002</ele>
      </trkpt>
      <trkpt lat="47.78804" lon="-3.48654">
        <ele>37.400002</ele>
      </trkpt>
      <trkpt lat="47.78804" lon="-3.4864">
        <ele>37.4</ele>
      </trkpt>
      <trkpt lat="47.78802" lon="-3.48636">
        <ele>37.4</ele>
      </trkpt>
      <trkpt lat="47.78762" lon="-3.48618">
        <ele>37</ele>
      </trkpt>
      <trkpt lat="47.78758" lon="-3.48621">
        <ele>36.2</ele>
      </trkpt>
      <trkpt lat="47.78727" lon="-3.48738">
        <ele>35.400002</ele>
      </trkpt>
      <trkpt lat="47.7871" lon="-3.48842">
        <ele>35.400002</ele>
      </trkpt>
      <trkpt lat="47.78706" lon="-3.48872">
        <ele>35.400002</ele>
      </trkpt>
      <trkpt lat="47.787" lon="-3.489">
        <ele>37.400002</ele>
      </trkpt>
      <trkpt lat="47.78701" lon="-3.48917">
        <ele>37.400002</ele>
      </trkpt>
      <trkpt lat="47.78698" lon="-3.48934">
        <ele>37.400002</ele>
      </trkpt>
      <trkpt lat="47.78692" lon="-3.48942">
        <ele>37.4</ele>
      </trkpt>
      <trkpt lat="47.78676" lon="-3.48986">
        <ele>37.4</ele>
      </trkpt>
      <trkpt lat="47.78664" lon="-3.49036">
        <ele>37.400002</ele>
      </trkpt>
      <trkpt lat="47.78658" lon="-3.49089">
        <ele>37.400002</ele>
      </trkpt>
      <trkpt lat="47.78652" lon="-3.49163">
        <ele>37.4</ele>
      </trkpt>
      <trkpt lat="47.78658" lon="-3.49186">
        <ele>38</ele>
      </trkpt>
      <trkpt lat="47.78655" lon="-3.49198">
        <ele>38.6</ele>
      </trkpt>
      <trkpt lat="47.78649" lon="-3.49206">
        <ele>39.4</ele>
      </trkpt>
      <trkpt lat="47.78623" lon="-3.49225">
        <ele>39.4</ele>
      </trkpt>
      <trkpt lat="47.78586" lon="-3.49294">
        <ele>37.400002</ele>
      </trkpt>
      <trkpt lat="47.78566" lon="-3.49335">
        <ele>37.2</ele>
      </trkpt>
      <trkpt lat="47.78531" lon="-3.49419">
        <ele>33</ele>
      </trkpt>
      <trkpt lat="47.78504" lon="-3.49473">
        <ele>29.200001</ele>
      </trkpt>
      <trkpt lat="47.78503" lon="-3.49479">
        <ele>28.6</ele>
      </trkpt>
      <trkpt lat="47.78509" lon="-3.49498">
        <ele>26.6</ele>
      </trkpt>
      <trkpt lat="47.78541" lon="-3.49555">
        <ele>23.200001</ele>
      </trkpt>
      <trkpt lat="47.78578" lon="-3.49578">
        <ele>19.6</ele>
      </trkpt>
      <trkpt lat="47.78594" lon="-3.49597">
        <ele>18</ele>
      </trkpt>
      <trkpt lat="47.78598" lon="-3.49598">
        <ele>18.6</ele>
      </trkpt>
      <trkpt lat="47.78604" lon="-3.49596">
        <ele>20.2</ele>
      </trkpt>
      <trkpt lat="47.7861" lon="-3.49584">
        <ele>20.2</ele>
      </trkpt>
      <trkpt lat="47.78642" lon="-3.49551">
        <ele>22.200001</ele>
      </trkpt>
      <trkpt lat="47.78674" lon="-3.49524">
        <ele>24.2</ele>
      </trkpt>
      <trkpt lat="47.78679" lon="-3.49497">
        <ele>24.2</ele>
      </trkpt>
      <trkpt lat="47.78677" lon="-3.49466">
        <ele>24.2</ele>
      </trkpt>
      <trkpt lat="47.78671" lon="-3.49444">
        <ele>24.2</ele>
      </trkpt>
      <trkpt lat="47.78674" lon="-3.49416">
        <ele>24.200001</ele>
      </trkpt>
      <trkpt lat="47.78688" lon="-3.49364">
        <ele>25.200001</ele>
      </trkpt>
      <trkpt lat="47.78694" lon="-3.49299">
        <ele>28</ele>
      </trkpt>
      <trkpt lat="47.78697" lon="-3.49285">
        <ele>28.2</ele>
      </trkpt>
      <trkpt lat="47.78704" lon="-3.49268">
        <ele>28.2</ele>
      </trkpt>
      <trkpt lat="47.7871" lon="-3.49285">
        <ele>28.2</ele>
      </trkpt>
      <trkpt lat="47.78706" lon="-3.49322">
        <ele>27</ele>
      </trkpt>
      <trkpt lat="47.78728" lon="-3.49332">
        <ele>26.200001</ele>
      </trkpt>
      <trkpt lat="47.78737" lon="-3.49347">
        <ele>27</ele>
      </trkpt>
      <trkpt lat="47.78729" lon="-3.4944">
        <ele>28.200001</ele>
      </trkpt>
      <trkpt lat="47.78706" lon="-3.49483">
        <ele>27.6</ele>
      </trkpt>
      <trkpt lat="47.78686" lon="-3.49503">
        <ele>26.200001</ele>
      </trkpt>
      <trkpt lat="47.78685" lon="-3.49506">
        <ele>24</ele>
      </trkpt>
      <trkpt lat="47.78685" lon="-3.49504">
        <ele>24</ele>
      </trkpt>
      <trkpt lat="47.7867" lon="-3.49518">
        <ele>24</ele>
      </trkpt>
      <trkpt lat="47.78666" lon="-3.49547">
        <ele>24.6</ele>
      </trkpt>
      <trkpt lat="47.78652" lon="-3.49556">
        <ele>26.2</ele>
      </trkpt>
      <trkpt lat="47.78652" lon="-3.4956">
        <ele>26.2</ele>
      </trkpt>
      <trkpt lat="47.78658" lon="-3.49565">
        <ele>26.200001</ele>
      </trkpt>
      <trkpt lat="47.78661" lon="-3.49577">
        <ele>26.200001</ele>
      </trkpt>
      <trkpt lat="47.78683" lon="-3.49594">
        <ele>26.200001</ele>
      </trkpt>
      <trkpt lat="47.78685" lon="-3.49589">
        <ele>26.200001</ele>
      </trkpt>
      <trkpt lat="47.78688" lon="-3.49573">
        <ele>26.2</ele>
      </trkpt>
      <trkpt lat="47.78703" lon="-3.49554">
        <ele>27</ele>
      </trkpt>
      <trkpt lat="47.78709" lon="-3.49533">
        <ele>28.2</ele>
      </trkpt>
      <trkpt lat="47.78718" lon="-3.49509">
        <ele>28.200001</ele>
      </trkpt>
      <trkpt lat="47.78727" lon="-3.49496">
        <ele>28.200001</ele>
      </trkpt>
      <trkpt lat="47.78739" lon="-3.49463">
        <ele>28.200001</ele>
      </trkpt>
      <trkpt lat="47.78743" lon="-3.49434">
        <ele>28.200001</ele>
      </trkpt>
      <trkpt lat="47.78745" lon="-3.49436">
        <ele>28.2</ele>
      </trkpt>
      <trkpt lat="47.7875" lon="-3.49432">
        <ele>28.6</ele>
      </trkpt>
      <trkpt lat="47.7875" lon="-3.49423">
        <ele>29.6</ele>
      </trkpt>
      <trkpt lat="47.78753" lon="-3.49417">
        <ele>30.2</ele>
      </trkpt>
      <trkpt lat="47.78753" lon="-3.4941">
        <ele>30.2</ele>
      </trkpt>
      <trkpt lat="47.78751" lon="-3.49407">
        <ele>30.2</ele>
      </trkpt>
      <trkpt lat="47.78752" lon="-3.49401">
        <ele>30.2</ele>
      </trkpt>
      <trkpt lat="47.78748" lon="-3.49397">
        <ele>30.200001</ele>
      </trkpt>
      <trkpt lat="47.78749" lon="-3.49392">
        <ele>30.200001</ele>
      </trkpt>
      <trkpt lat="47.78752" lon="-3.49393">
        <ele>30.2</ele>
      </trkpt>
      <trkpt lat="47.78755" lon="-3.49382">
        <ele>30.200001</ele>
      </trkpt>
      <trkpt lat="47.78754" lon="-3.49351">
        <ele>30.6</ele>
      </trkpt>
      <trkpt lat="47.78763" lon="-3.49319">
        <ele>32.200001</ele>
      </trkpt>
      <trkpt lat="47.78765" lon="-3.49321">
        <ele>32.2</ele>
      </trkpt>
      <trkpt lat="47.78763" lon="-3.49329">
        <ele>32.2</ele>
      </trkpt>
      <trkpt lat="47.7877" lon="-3.49338">
        <ele>32.4</ele>
      </trkpt>
      <trkpt lat="47.78776" lon="-3.49341">
        <ele>34.4</ele>
      </trkpt>
      <trkpt lat="47.78785" lon="-3.49341">
        <ele>34.4</ele>
      </trkpt>
      <trkpt lat="47.78779" lon="-3.49346">
        <ele>34.400002</ele>
      </trkpt>
      <trkpt lat="47.78777" lon="-3.49357">
        <ele>34.400002</ele>
      </trkpt>
      <trkpt lat="47.78779" lon="-3.49375">
        <ele>34.4</ele>
      </trkpt>
      <trkpt lat="47.78785" lon="-3.49393">
        <ele>34.4</ele>
      </trkpt>
      <trkpt lat="47.78793" lon="-3.49405">
        <ele>34.400002</ele>
      </trkpt>
      <trkpt lat="47.7879" lon="-3.4944">
        <ele>34.400002</ele>
      </trkpt>
      <trkpt lat="47.78784" lon="-3.49453">
        <ele>34.4</ele>
      </trkpt>
      <trkpt lat="47.78775" lon="-3.49459">
        <ele>34.4</ele>
      </trkpt>
      <trkpt lat="47.7877" lon="-3.49511">
        <ele>34.400002</ele>
      </trkpt>
      <trkpt lat="47.78775" lon="-3.49522">
        <ele>34.4</ele>
      </trkpt>
      <trkpt lat="47.78781" lon="-3.49552">
        <ele>34.4</ele>
      </trkpt>
      <trkpt lat="47.78761" lon="-3.49567">
        <ele>34.4</ele>
      </trkpt>
      <trkpt lat="47.78753" lon="-3.49603">
        <ele>34.400002</ele>
      </trkpt>
      <trkpt lat="47.78737" lon="-3.49613">
        <ele>33.400002</ele>
      </trkpt>
      <trkpt lat="47.78724" lon="-3.49615">
        <ele>31.2</ele>
      </trkpt>
      <trkpt lat="47.78724" lon="-3.49628">
        <ele>29.200001</ele>
      </trkpt>
      <trkpt lat="47.78727" lon="-3.49636">
        <ele>28.2</ele>
      </trkpt>
      <trkpt lat="47.78738" lon="-3.49643">
        <ele>28</ele>
      </trkpt>
      <trkpt lat="47.78742" lon="-3.4965">
        <ele>28</ele>
      </trkpt>
      <trkpt lat="47.78737" lon="-3.49649">
        <ele>28</ele>
      </trkpt>
      <trkpt lat="47.78713" lon="-3.49625">
        <ele>27.2</ele>
      </trkpt>
      <trkpt lat="47.78688" lon="-3.49609">
        <ele>23.6</ele>
      </trkpt>
      <trkpt lat="47.78704" lon="-3.4962">
        <ele>23.6</ele>
      </trkpt>
      <trkpt lat="47.78722" lon="-3.4964">
        <ele>23.6</ele>
      </trkpt>
      <trkpt lat="47.78739" lon="-3.49654">
        <ele>25.6</ele>
      </trkpt>
      <trkpt lat="47.78742" lon="-3.49654">
        <ele>25.6</ele>
      </trkpt>
      <trkpt lat="47.78743" lon="-3.49643">
        <ele>25.6</ele>
      </trkpt>
      <trkpt lat="47.78745" lon="-3.49645">
        <ele>25.6</ele>
      </trkpt>
      <trkpt lat="47.78741" lon="-3.49653">
        <ele>25.6</ele>
      </trkpt>
      <trkpt lat="47.78683" lon="-3.49611">
        <ele>23.200001</ele>
      </trkpt>
      <trkpt lat="47.78648" lon="-3.49593">
        <ele>22.200001</ele>
      </trkpt>
      <trkpt lat="47.78631" lon="-3.4959">
        <ele>20.6</ele>
      </trkpt>
      <trkpt lat="47.78612" lon="-3.49591">
        <ele>17.6</ele>
      </trkpt>
      <trkpt lat="47.78605" lon="-3.49587">
        <ele>16.6</ele>
      </trkpt>
      <trkpt lat="47.78597" lon="-3.49589">
        <ele>15</ele>
      </trkpt>
      <trkpt lat="47.78589" lon="-3.49595">
        <ele>14</ele>
      </trkpt>
      <trkpt lat="47.78585" lon="-3.49602">
        <ele>12.8</ele>
      </trkpt>
      <trkpt lat="47.7858" lon="-3.49606">
        <ele>11.6</ele>
      </trkpt>
      <trkpt lat="47.78572" lon="-3.49626">
        <ele>11.6</ele>
      </trkpt>
      <trkpt lat="47.78568" lon="-3.49659">
        <ele>11.6</ele>
      </trkpt>
      <trkpt lat="47.78568" lon="-3.49679">
        <ele>11.6</ele>
      </trkpt>
      <trkpt lat="47.78556" lon="-3.49693">
        <ele>11.6</ele>
      </trkpt>
      <trkpt lat="47.78546" lon="-3.49721">
        <ele>11.6</ele>
      </trkpt>
      <trkpt lat="47.78553" lon="-3.4973">
        <ele>11.6</ele>
      </trkpt>
      <trkpt lat="47.78562" lon="-3.49749">
        <ele>11.6</ele>
      </trkpt>
      <trkpt lat="47.78586" lon="-3.49809">
        <ele>11.6</ele>
      </trkpt>
      <trkpt lat="47.7859" lon="-3.49823">
        <ele>11.6</ele>
      </trkpt>
      <trkpt lat="47.78604" lon="-3.49923">
        <ele>11.6</ele>
      </trkpt>
      <trkpt lat="47.78608" lon="-3.49937">
        <ele>11.6</ele>
      </trkpt>
      <trkpt lat="47.78696" lon="-3.50096">
        <ele>11.6</ele>
      </trkpt>
      <trkpt lat="47.78717" lon="-3.50111">
        <ele>11.6</ele>
      </trkpt>
      <trkpt lat="47.7873" lon="-3.50115">
        <ele>11.6</ele>
      </trkpt>
      <trkpt lat="47.78776" lon="-3.50116">
        <ele>11.6</ele>
      </trkpt>
      <trkpt lat="47.78808" lon="-3.50127">
        <ele>11.6</ele>
      </trkpt>
      <trkpt lat="47.78816" lon="-3.50132">
        <ele>11.6</ele>
      </trkpt>
      <trkpt lat="47.78827" lon="-3.50146">
        <ele>11.6</ele>
      </trkpt>
      <trkpt lat="47.78852" lon="-3.50195">
        <ele>12.8</ele>
      </trkpt>
      <trkpt lat="47.78856" lon="-3.50198">
        <ele>13</ele>
      </trkpt>
      <trkpt lat="47.78878" lon="-3.50199">
        <ele>13.6</ele>
      </trkpt>
      <trkpt lat="47.78938" lon="-3.50212">
        <ele>13.6</ele>
      </trkpt>
      <trkpt lat="47.78962" lon="-3.50225">
        <ele>13.6</ele>
      </trkpt>
      <trkpt lat="47.79018" lon="-3.50249">
        <ele>15.6</ele>
      </trkpt>
      <trkpt lat="47.79027" lon="-3.50251">
        <ele>15.6</ele>
      </trkpt>
      <trkpt lat="47.7906" lon="-3.50267">
        <ele>15.6</ele>
      </trkpt>
      <trkpt lat="47.7907" lon="-3.50278">
        <ele>15.6</ele>
      </trkpt>
      <trkpt lat="47.7907" lon="-3.50295">
        <ele>16.6</ele>
      </trkpt>
      <trkpt lat="47.79072" lon="-3.50303">
        <ele>17.6</ele>
      </trkpt>
      <trkpt lat="47.79088" lon="-3.50338">
        <ele>18.200001</ele>
      </trkpt>
      <trkpt lat="47.79094" lon="-3.50362">
        <ele>19.6</ele>
      </trkpt>
      <trkpt lat="47.79094" lon="-3.50375">
        <ele>20.2</ele>
      </trkpt>
      <trkpt lat="47.79105" lon="-3.50396">
        <ele>21.200001</ele>
      </trkpt>
      <trkpt lat="47.79106" lon="-3.5042">
        <ele>23</ele>
      </trkpt>
      <trkpt lat="47.79095" lon="-3.50451">
        <ele>23.6</ele>
      </trkpt>
      <trkpt lat="47.79104" lon="-3.50504">
        <ele>26</ele>
      </trkpt>
      <trkpt lat="47.79119" lon="-3.50523">
        <ele>26</ele>
      </trkpt>
      <trkpt lat="47.79184" lon="-3.50568">
        <ele>26</ele>
      </trkpt>
      <trkpt lat="47.7921" lon="-3.50591">
        <ele>28</ele>
      </trkpt>
      <trkpt lat="47.79247" lon="-3.50662">
        <ele>31</ele>
      </trkpt>
      <trkpt lat="47.79261" lon="-3.50675">
        <ele>32.200001</ele>
      </trkpt>
      <trkpt lat="47.79279" lon="-3.50673">
        <ele>32.200001</ele>
      </trkpt>
      <trkpt lat="47.79299" lon="-3.50662">
        <ele>34.6</ele>
      </trkpt>
      <trkpt lat="47.79311" lon="-3.50651">
        <ele>36.4</ele>
      </trkpt>
      <trkpt lat="47.79365" lon="-3.5062">
        <ele>37.200001</ele>
      </trkpt>
      <trkpt lat="47.79459" lon="-3.50524">
        <ele>38.4</ele>
      </trkpt>
      <trkpt lat="47.79467" lon="-3.50512">
        <ele>36.400002</ele>
      </trkpt>
      <trkpt lat="47.79471" lon="-3.50509">
        <ele>36.2</ele>
      </trkpt>
      <trkpt lat="47.7951" lon="-3.50512">
        <ele>36.200001</ele>
      </trkpt>
      <trkpt lat="47.79564" lon="-3.50531">
        <ele>40</ele>
      </trkpt>
      <trkpt lat="47.79572" lon="-3.5053">
        <ele>41</ele>
      </trkpt>
      <trkpt lat="47.79587" lon="-3.50517">
        <ele>42.6</ele>
      </trkpt>
      <trkpt lat="47.79602" lon="-3.50512">
        <ele>43.2</ele>
      </trkpt>
      <trkpt lat="47.79706" lon="-3.50497">
        <ele>49.400002</ele>
      </trkpt>
      <trkpt lat="47.79732" lon="-3.50497">
        <ele>49.400002</ele>
      </trkpt>
      <trkpt lat="47.79753" lon="-3.50491">
        <ele>49.4</ele>
      </trkpt>
      <trkpt lat="47.79773" lon="-3.50476">
        <ele>49.4</ele>
      </trkpt>
      <trkpt lat="47.79782" lon="-3.50438">
        <ele>47.599998</ele>
      </trkpt>
      <trkpt lat="47.7979" lon="-3.50426">
        <ele>47.400002</ele>
      </trkpt>
      <trkpt lat="47.79805" lon="-3.50423">
        <ele>47.4</ele>
      </trkpt>
      <trkpt lat="47.7982" lon="-3.50413">
        <ele>47.400002</ele>
      </trkpt>
      <trkpt lat="47.79862" lon="-3.50391">
        <ele>47.400002</ele>
      </trkpt>
      <trkpt lat="47.79905" lon="-3.50387">
        <ele>47.4</ele>
      </trkpt>
      <trkpt lat="47.80016" lon="-3.50419">
        <ele>41.400002</ele>
      </trkpt>
      <trkpt lat="47.80048" lon="-3.50432">
        <ele>39.200001</ele>
      </trkpt>
      <trkpt lat="47.8008" lon="-3.50439">
        <ele>36.599998</ele>
      </trkpt>
      <trkpt lat="47.80089" lon="-3.50435">
        <ele>35.4</ele>
      </trkpt>
      <trkpt lat="47.80107" lon="-3.5041">
        <ele>33.2</ele>
      </trkpt>
      <trkpt lat="47.80112" lon="-3.50407">
        <ele>33.200001</ele>
      </trkpt>
      <trkpt lat="47.80135" lon="-3.50401">
        <ele>33.2</ele>
      </trkpt>
      <trkpt lat="47.80197" lon="-3.50402">
        <ele>33.200001</ele>
      </trkpt>
      <trkpt lat="47.80223" lon="-3.50405">
        <ele>33.200001</ele>
      </trkpt>
      <trkpt lat="47.80247" lon="-3.50412">
        <ele>33.200001</ele>
      </trkpt>
      <trkpt lat="47.80366" lon="-3.50418">
        <ele>35.599998</ele>
      </trkpt>
      <trkpt lat="47.80393" lon="-3.50417">
        <ele>37.400002</ele>
      </trkpt>
      <trkpt lat="47.80438" lon="-3.5041">
        <ele>39.6</ele>
      </trkpt>
      <trkpt lat="47.80504" lon="-3.50388">
        <ele>42</ele>
      </trkpt>
      <trkpt lat="47.80529" lon="-3.5037">
        <ele>42</ele>
      </trkpt>
      <trkpt lat="47.80576" lon="-3.50362">
        <ele>42</ele>
      </trkpt>
      <trkpt lat="47.80605" lon="-3.50351">
        <ele>42</ele>
      </trkpt>
      <trkpt lat="47.80648" lon="-3.5033">
        <ele>39.4</ele>
      </trkpt>
      <trkpt lat="47.80693" lon="-3.50299">
        <ele>34.6</ele>
      </trkpt>
      <trkpt lat="47.80725" lon="-3.5028">
        <ele>30.2</ele>
      </trkpt>
      <trkpt lat="47.80738" lon="-3.50278">
        <ele>28.6</ele>
      </trkpt>
      <trkpt lat="47.80743" lon="-3.50281">
        <ele>27.6</ele>
      </trkpt>
      <trkpt lat="47.80756" lon="-3.50282">
        <ele>27</ele>
      </trkpt>
      <trkpt lat="47.80762" lon="-3.50286">
        <ele>26.200001</ele>
      </trkpt>
      <trkpt lat="47.80764" lon="-3.50292">
        <ele>25.200001</ele>
      </trkpt>
      <trkpt lat="47.80764" lon="-3.50313">
        <ele>24.6</ele>
      </trkpt>
      <trkpt lat="47.80754" lon="-3.5035">
        <ele>24.6</ele>
      </trkpt>
      <trkpt lat="47.80736" lon="-3.50389">
        <ele>23</ele>
      </trkpt>
      <trkpt lat="47.80694" lon="-3.50446">
        <ele>22.6</ele>
      </trkpt>
      <trkpt lat="47.80634" lon="-3.50506">
        <ele>22.2</ele>
      </trkpt>
      <trkpt lat="47.80596" lon="-3.50552">
        <ele>20.6</ele>
      </trkpt>
      <trkpt lat="47.80583" lon="-3.50572">
        <ele>20.6</ele>
      </trkpt>
      <trkpt lat="47.80573" lon="-3.50603">
        <ele>20.6</ele>
      </trkpt>
      <trkpt lat="47.8057" lon="-3.50619">
        <ele>20.6</ele>
      </trkpt>
      <trkpt lat="47.80569" lon="-3.50647">
        <ele>20.6</ele>
      </trkpt>
      <trkpt lat="47.80574" lon="-3.50702">
        <ele>20.6</ele>
      </trkpt>
      <trkpt lat="47.8058" lon="-3.5073">
        <ele>20.200001</ele>
      </trkpt>
      <trkpt lat="47.80578" lon="-3.50769">
        <ele>18.6</ele>
      </trkpt>
      <trkpt lat="47.80585" lon="-3.50768">
        <ele>18.6</ele>
      </trkpt>
      <trkpt lat="47.80592" lon="-3.50757">
        <ele>17</ele>
      </trkpt>
      <trkpt lat="47.80607" lon="-3.50748">
        <ele>16.2</ele>
      </trkpt>
      <trkpt lat="47.80624" lon="-3.50714">
        <ele>16.200001</ele>
      </trkpt>
      <trkpt lat="47.80633" lon="-3.50702">
        <ele>16.6</ele>
      </trkpt>
      <trkpt lat="47.80654" lon="-3.50684">
        <ele>20.6</ele>
      </trkpt>
      <trkpt lat="47.80675" lon="-3.5068">
        <ele>24.200001</ele>
      </trkpt>
      <trkpt lat="47.8069" lon="-3.50688">
        <ele>24.6</ele>
      </trkpt>
      <trkpt lat="47.80701" lon="-3.50689">
        <ele>24.6</ele>
      </trkpt>
      <trkpt lat="47.80764" lon="-3.506">
        <ele>28.200001</ele>
      </trkpt>
      <trkpt lat="47.80784" lon="-3.50574">
        <ele>29</ele>
      </trkpt>
      <trkpt lat="47.80879" lon="-3.50438">
        <ele>29</ele>
      </trkpt>
      <trkpt lat="47.80893" lon="-3.50435">
        <ele>29</ele>
      </trkpt>
      <trkpt lat="47.80945" lon="-3.50456">
        <ele>29</ele>
      </trkpt>
      <trkpt lat="47.81129" lon="-3.50569">
        <ele>22.200001</ele>
      </trkpt>
      <trkpt lat="47.81142" lon="-3.50579">
        <ele>21.2</ele>
      </trkpt>
      <trkpt lat="47.81265" lon="-3.50717">
        <ele>20.2</ele>
      </trkpt>
      <trkpt lat="47.81372" lon="-3.5083">
        <ele>22.200001</ele>
      </trkpt>
      <trkpt lat="47.81394" lon="-3.50849">
        <ele>21.6</ele>
      </trkpt>
      <trkpt lat="47.81413" lon="-3.50858">
        <ele>20.2</ele>
      </trkpt>
      <trkpt lat="47.81477" lon="-3.50878">
        <ele>20.2</ele>
      </trkpt>
      <trkpt lat="47.81488" lon="-3.50872">
        <ele>20.2</ele>
      </trkpt>
      <trkpt lat="47.81523" lon="-3.5084">
        <ele>18.2</ele>
      </trkpt>
      <trkpt lat="47.81544" lon="-3.50816">
        <ele>18.200001</ele>
      </trkpt>
      <trkpt lat="47.81591" lon="-3.50746">
        <ele>20.200001</ele>
      </trkpt>
      <trkpt lat="47.81614" lon="-3.50698">
        <ele>20.2</ele>
      </trkpt>
      <trkpt lat="47.81621" lon="-3.50673">
        <ele>21.200001</ele>
      </trkpt>
      <trkpt lat="47.81653" lon="-3.50505">
        <ele>22.200001</ele>
      </trkpt>
      <trkpt lat="47.81664" lon="-3.50461">
        <ele>24.6</ele>
      </trkpt>
      <trkpt lat="47.81681" lon="-3.50411">
        <ele>24.6</ele>
      </trkpt>
      <trkpt lat="47.81689" lon="-3.504">
        <ele>24.6</ele>
      </trkpt>
      <trkpt lat="47.81694" lon="-3.50396">
        <ele>24.6</ele>
      </trkpt>
      <trkpt lat="47.81697" lon="-3.50368">
        <ele>25</ele>
      </trkpt>
      <trkpt lat="47.81702" lon="-3.50351">
        <ele>26.6</ele>
      </trkpt>
      <trkpt lat="47.81716" lon="-3.50325">
        <ele>26.6</ele>
      </trkpt>
      <trkpt lat="47.81726" lon="-3.50298">
        <ele>26.6</ele>
      </trkpt>
      <trkpt lat="47.81733" lon="-3.50247">
        <ele>26.6</ele>
      </trkpt>
      <trkpt lat="47.81734" lon="-3.50222">
        <ele>26.6</ele>
      </trkpt>
      <trkpt lat="47.81743" lon="-3.50192">
        <ele>26.6</ele>
      </trkpt>
      <trkpt lat="47.81754" lon="-3.5017">
        <ele>26.6</ele>
      </trkpt>
      <trkpt lat="47.81769" lon="-3.50155">
        <ele>26.6</ele>
      </trkpt>
      <trkpt lat="47.81793" lon="-3.50142">
        <ele>26.6</ele>
      </trkpt>
      <trkpt lat="47.81822" lon="-3.50115">
        <ele>26.200001</ele>
      </trkpt>
      <trkpt lat="47.81838" lon="-3.50091">
        <ele>24.200001</ele>
      </trkpt>
      <trkpt lat="47.81868" lon="-3.50032">
        <ele>24.200001</ele>
      </trkpt>
      <trkpt lat="47.81878" lon="-3.50021">
        <ele>24.200001</ele>
      </trkpt>
      <trkpt lat="47.81889" lon="-3.50021">
        <ele>24.2</ele>
      </trkpt>
      <trkpt lat="47.81991" lon="-3.50003">
        <ele>23.2</ele>
      </trkpt>
      <trkpt lat="47.82007" lon="-3.50003">
        <ele>22.200001</ele>
      </trkpt>
      <trkpt lat="47.82061" lon="-3.50013">
        <ele>21.2</ele>
      </trkpt>
      <trkpt lat="47.82181" lon="-3.50029">
        <ele>22.6</ele>
      </trkpt>
      <trkpt lat="47.82362" lon="-3.50066">
        <ele>30.6</ele>
      </trkpt>
      <trkpt lat="47.82402" lon="-3.50071">
        <ele>30.6</ele>
      </trkpt>
      <trkpt lat="47.8246" lon="-3.50046">
        <ele>30.6</ele>
      </trkpt>
      <trkpt lat="47.82508" lon="-3.50023">
        <ele>30.6</ele>
      </trkpt>
      <trkpt lat="47.82517" lon="-3.50024">
        <ele>30.6</ele>
      </trkpt>
      <trkpt lat="47.82545" lon="-3.50039">
        <ele>30.6</ele>
      </trkpt>
      <trkpt lat="47.82565" lon="-3.50063">
        <ele>30.6</ele>
      </trkpt>
      <trkpt lat="47.8259" lon="-3.50078">
        <ele>30.6</ele>
      </trkpt>
      <trkpt lat="47.82619" lon="-3.50083">
        <ele>30.6</ele>
      </trkpt>
      <trkpt lat="47.82629" lon="-3.50091">
        <ele>30.6</ele>
      </trkpt>
      <trkpt lat="47.82641" lon="-3.50117">
        <ele>30.6</ele>
      </trkpt>
      <trkpt lat="47.82655" lon="-3.50158">
        <ele>30.6</ele>
      </trkpt>
      <trkpt lat="47.82662" lon="-3.50163">
        <ele>30.6</ele>
      </trkpt>
      <trkpt lat="47.82751" lon="-3.50177">
        <ele>32.599998</ele>
      </trkpt>
      <trkpt lat="47.82828" lon="-3.50197">
        <ele>32.599998</ele>
      </trkpt>
      <trkpt lat="47.82867" lon="-3.5021">
        <ele>34.400002</ele>
      </trkpt>
      <trkpt lat="47.8289" lon="-3.50223">
        <ele>35</ele>
      </trkpt>
      <trkpt lat="47.8295" lon="-3.50236">
        <ele>37</ele>
      </trkpt>
      <trkpt lat="47.83003" lon="-3.50255">
        <ele>37</ele>
      </trkpt>
      <trkpt lat="47.83013" lon="-3.5025">
        <ele>37</ele>
      </trkpt>
      <trkpt lat="47.83022" lon="-3.50197">
        <ele>37</ele>
      </trkpt>
      <trkpt lat="47.83031" lon="-3.50168">
        <ele>37</ele>
      </trkpt>
      <trkpt lat="47.83051" lon="-3.50129">
        <ele>36.4</ele>
      </trkpt>
      <trkpt lat="47.83136" lon="-3.49976">
        <ele>32.6</ele>
      </trkpt>
      <trkpt lat="47.83148" lon="-3.49948">
        <ele>32.6</ele>
      </trkpt>
      <trkpt lat="47.83157" lon="-3.49943">
        <ele>32.6</ele>
      </trkpt>
      <trkpt lat="47.83171" lon="-3.49952">
        <ele>32.6</ele>
      </trkpt>
      <trkpt lat="47.83238" lon="-3.50006">
        <ele>32.6</ele>
      </trkpt>
      <trkpt lat="47.8326" lon="-3.50029">
        <ele>31.6</ele>
      </trkpt>
      <trkpt lat="47.83339" lon="-3.50087">
        <ele>28.6</ele>
      </trkpt>
      <trkpt lat="47.83563" lon="-3.5019">
        <ele>28.6</ele>
      </trkpt>
      <trkpt lat="47.83611" lon="-3.50216">
        <ele>30.6</ele>
      </trkpt>
      <trkpt lat="47.83616" lon="-3.50221">
        <ele>30.6</ele>
      </trkpt>
      <trkpt lat="47.83608" lon="-3.50243">
        <ele>30.6</ele>
      </trkpt>
      <trkpt lat="47.83578" lon="-3.50335">
        <ele>30.6</ele>
      </trkpt>
      <trkpt lat="47.83559" lon="-3.50384">
        <ele>30.6</ele>
      </trkpt>
      <trkpt lat="47.83537" lon="-3.50428">
        <ele>30.6</ele>
      </trkpt>
      <trkpt lat="47.83526" lon="-3.50477">
        <ele>30.6</ele>
      </trkpt>
      <trkpt lat="47.83515" lon="-3.5051">
        <ele>30.6</ele>
      </trkpt>
      <trkpt lat="47.83484" lon="-3.50559">
        <ele>30.6</ele>
      </trkpt>
      <trkpt lat="47.8346" lon="-3.50609">
        <ele>30.6</ele>
      </trkpt>
      <trkpt lat="47.83455" lon="-3.50632">
        <ele>30.6</ele>
      </trkpt>
      <trkpt lat="47.83466" lon="-3.5067">
        <ele>30.6</ele>
      </trkpt>
      <trkpt lat="47.83502" lon="-3.50759">
        <ele>30.6</ele>
      </trkpt>
      <trkpt lat="47.83533" lon="-3.50817">
        <ele>30.6</ele>
      </trkpt>
      <trkpt lat="47.83562" lon="-3.50854">
        <ele>28.6</ele>
      </trkpt>
      <trkpt lat="47.83627" lon="-3.50899">
        <ele>28.6</ele>
      </trkpt>
      <trkpt lat="47.83636" lon="-3.50914">
        <ele>28.6</ele>
      </trkpt>
      <trkpt lat="47.8366" lon="-3.50979">
        <ele>28.6</ele>
      </trkpt>
      <trkpt lat="47.83661" lon="-3.50996">
        <ele>28.6</ele>
      </trkpt>
      <trkpt lat="47.83657" lon="-3.51035">
        <ele>28.6</ele>
      </trkpt>
      <trkpt lat="47.83656" lon="-3.51068">
        <ele>28.6</ele>
      </trkpt>
      <trkpt lat="47.83658" lon="-3.51125">
        <ele>28.6</ele>
      </trkpt>
      <trkpt lat="47.83665" lon="-3.51152">
        <ele>28.6</ele>
      </trkpt>
      <trkpt lat="47.8369" lon="-3.51181">
        <ele>28.6</ele>
      </trkpt>
      <trkpt lat="47.83717" lon="-3.51231">
        <ele>28.6</ele>
      </trkpt>
      <trkpt lat="47.83732" lon="-3.51247">
        <ele>28.6</ele>
      </trkpt>
      <trkpt lat="47.83761" lon="-3.51265">
        <ele>28.6</ele>
      </trkpt>
      <trkpt lat="47.83795" lon="-3.51277">
        <ele>27</ele>
      </trkpt>
      <trkpt lat="47.83817" lon="-3.51279">
        <ele>26.6</ele>
      </trkpt>
      <trkpt lat="47.83869" lon="-3.51263">
        <ele>24.2</ele>
      </trkpt>
      <trkpt lat="47.8388" lon="-3.51265">
        <ele>24.2</ele>
      </trkpt>
      <trkpt lat="47.83888" lon="-3.51283">
        <ele>24.2</ele>
      </trkpt>
      <trkpt lat="47.83888" lon="-3.51328">
        <ele>25.200001</ele>
      </trkpt>
      <trkpt lat="47.83894" lon="-3.51337">
        <ele>26</ele>
      </trkpt>
      <trkpt lat="47.8393" lon="-3.51353">
        <ele>26.2</ele>
      </trkpt>
      <trkpt lat="47.83949" lon="-3.5135">
        <ele>26.2</ele>
      </trkpt>
      <trkpt lat="47.84001" lon="-3.5133">
        <ele>24.6</ele>
      </trkpt>
      <trkpt lat="47.84009" lon="-3.51331">
        <ele>24.2</ele>
      </trkpt>
      <trkpt lat="47.84023" lon="-3.51346">
        <ele>24.200001</ele>
      </trkpt>
      <trkpt lat="47.84031" lon="-3.51391">
        <ele>24.2</ele>
      </trkpt>
      <trkpt lat="47.84046" lon="-3.51431">
        <ele>24.6</ele>
      </trkpt>
      <trkpt lat="47.84062" lon="-3.51496">
        <ele>28.6</ele>
      </trkpt>
      <trkpt lat="47.84065" lon="-3.51531">
        <ele>28.6</ele>
      </trkpt>
      <trkpt lat="47.84065" lon="-3.51588">
        <ele>28.6</ele>
      </trkpt>
      <trkpt lat="47.84073" lon="-3.51722">
        <ele>24.200001</ele>
      </trkpt>
      <trkpt lat="47.84069" lon="-3.51808">
        <ele>22.6</ele>
      </trkpt>
      <trkpt lat="47.84067" lon="-3.51818">
        <ele>22.200001</ele>
      </trkpt>
      <trkpt lat="47.84061" lon="-3.51833">
        <ele>21.6</ele>
      </trkpt>
      <trkpt lat="47.84014" lon="-3.51894">
        <ele>19.6</ele>
      </trkpt>
      <trkpt lat="47.84005" lon="-3.51926">
        <ele>18.200001</ele>
      </trkpt>
      <trkpt lat="47.83986" lon="-3.51967">
        <ele>17.2</ele>
      </trkpt>
      <trkpt lat="47.83981" lon="-3.51989">
        <ele>17.200001</ele>
      </trkpt>
      <trkpt lat="47.83973" lon="-3.52004">
        <ele>17.200001</ele>
      </trkpt>
      <trkpt lat="47.83976" lon="-3.52019">
        <ele>17.200001</ele>
      </trkpt>
      <trkpt lat="47.83986" lon="-3.52047">
        <ele>17.200001</ele>
      </trkpt>
      <trkpt lat="47.83997" lon="-3.52101">
        <ele>17.200001</ele>
      </trkpt>
      <trkpt lat="47.84009" lon="-3.52131">
        <ele>17.200001</ele>
      </trkpt>
      <trkpt lat="47.84011" lon="-3.52147">
        <ele>17.2</ele>
      </trkpt>
      <trkpt lat="47.84003" lon="-3.52181">
        <ele>17.200001</ele>
      </trkpt>
      <trkpt lat="47.84013" lon="-3.52208">
        <ele>17.200001</ele>
      </trkpt>
      <trkpt lat="47.84023" lon="-3.52219">
        <ele>17.2</ele>
      </trkpt>
      <trkpt lat="47.84049" lon="-3.5224">
        <ele>16.6</ele>
      </trkpt>
      <trkpt lat="47.8408" lon="-3.52282">
        <ele>13.2</ele>
      </trkpt>
      <trkpt lat="47.84102" lon="-3.52296">
        <ele>13.2</ele>
      </trkpt>
      <trkpt lat="47.84126" lon="-3.52317">
        <ele>13.2</ele>
      </trkpt>
      <trkpt lat="47.84136" lon="-3.5233">
        <ele>12.8</ele>
      </trkpt>
      <trkpt lat="47.84154" lon="-3.5236">
        <ele>11.2</ele>
      </trkpt>
      <trkpt lat="47.84169" lon="-3.524">
        <ele>9</ele>
      </trkpt>
      <trkpt lat="47.84183" lon="-3.52422">
        <ele>7.4</ele>
      </trkpt>
      <trkpt lat="47.84191" lon="-3.52429">
        <ele>6.8</ele>
      </trkpt>
      <trkpt lat="47.84205" lon="-3.52437">
        <ele>4.4</ele>
      </trkpt>
      <trkpt lat="47.84234" lon="-3.52445">
        <ele>2.2</ele>
      </trkpt>
      <trkpt lat="47.84247" lon="-3.52454">
        <ele>0.6</ele>
      </trkpt>
      <trkpt lat="47.84264" lon="-3.52474">
        <ele>-1.8</ele>
      </trkpt>
      <trkpt lat="47.84271" lon="-3.52489">
        <ele>-3.6</ele>
      </trkpt>
      <trkpt lat="47.84283" lon="-3.52529">
        <ele>-6</ele>
      </trkpt>
      <trkpt lat="47.84288" lon="-3.52562">
        <ele>-7.6</ele>
      </trkpt>
      <trkpt lat="47.84294" lon="-3.52586">
        <ele>-9</ele>
      </trkpt>
      <trkpt lat="47.84291" lon="-3.526">
        <ele>-9.2</ele>
      </trkpt>
      <trkpt lat="47.84268" lon="-3.5263">
        <ele>-9.2</ele>
      </trkpt>
      <trkpt lat="47.84245" lon="-3.52668">
        <ele>-7</ele>
      </trkpt>
      <trkpt lat="47.84235" lon="-3.52689">
        <ele>-7</ele>
      </trkpt>
      <trkpt lat="47.84226" lon="-3.52723">
        <ele>-5.6</ele>
      </trkpt>
      <trkpt lat="47.84216" lon="-3.5274">
        <ele>-4</ele>
      </trkpt>
      <trkpt lat="47.84209" lon="-3.52744">
        <ele>-1.8</ele>
      </trkpt>
      <trkpt lat="47.84208" lon="-3.52741">
        <ele>-1</ele>
      </trkpt>
      <trkpt lat="47.84209" lon="-3.52731">
        <ele>0.4</ele>
      </trkpt>
      <trkpt lat="47.84208" lon="-3.52724">
        <ele>1.6</ele>
      </trkpt>
      <trkpt lat="47.84212" lon="-3.5271">
        <ele>3.4</ele>
      </trkpt>
      <trkpt lat="47.84214" lon="-3.52662">
        <ele>6.8</ele>
      </trkpt>
      <trkpt lat="47.84209" lon="-3.52642">
        <ele>8</ele>
      </trkpt>
      <trkpt lat="47.84208" lon="-3.52623">
        <ele>8.6</ele>
      </trkpt>
      <trkpt lat="47.84205" lon="-3.52616">
        <ele>10</ele>
      </trkpt>
      <trkpt lat="47.84204" lon="-3.52603">
        <ele>10.6</ele>
      </trkpt>
      <trkpt lat="47.84229" lon="-3.52556">
        <ele>12.2</ele>
      </trkpt>
      <trkpt lat="47.84239" lon="-3.5253">
        <ele>12.2</ele>
      </trkpt>
      <trkpt lat="47.84238" lon="-3.52507">
        <ele>12.2</ele>
      </trkpt>
      <trkpt lat="47.84229" lon="-3.52494">
        <ele>12.2</ele>
      </trkpt>
      <trkpt lat="47.84179" lon="-3.52455">
        <ele>14.2</ele>
      </trkpt>
      <trkpt lat="47.84161" lon="-3.52437">
        <ele>14.2</ele>
      </trkpt>
      <trkpt lat="47.84144" lon="-3.52431">
        <ele>14.2</ele>
      </trkpt>
      <trkpt lat="47.84122" lon="-3.52469">
        <ele>19.200001</ele>
      </trkpt>
      <trkpt lat="47.84121" lon="-3.52477">
        <ele>20.2</ele>
      </trkpt>
      <trkpt lat="47.84142" lon="-3.52533">
        <ele>20.6</ele>
      </trkpt>
      <trkpt lat="47.8416" lon="-3.52568">
        <ele>20.2</ele>
      </trkpt>
      <trkpt lat="47.84162" lon="-3.52595">
        <ele>18.6</ele>
      </trkpt>
      <trkpt lat="47.84159" lon="-3.52603">
        <ele>18.2</ele>
      </trkpt>
      <trkpt lat="47.84144" lon="-3.52618">
        <ele>16.200001</ele>
      </trkpt>
      <trkpt lat="47.8414" lon="-3.52624">
        <ele>15.6</ele>
      </trkpt>
      <trkpt lat="47.84137" lon="-3.52645">
        <ele>14</ele>
      </trkpt>
      <trkpt lat="47.8413" lon="-3.52666">
        <ele>14</ele>
      </trkpt>
      <trkpt lat="47.8413" lon="-3.52671">
        <ele>14</ele>
      </trkpt>
      <trkpt lat="47.84144" lon="-3.52691">
        <ele>13.2</ele>
      </trkpt>
      <trkpt lat="47.84147" lon="-3.52703">
        <ele>12</ele>
      </trkpt>
      <trkpt lat="47.8416" lon="-3.5272">
        <ele>11</ele>
      </trkpt>
      <trkpt lat="47.84171" lon="-3.52749">
        <ele>7.8</ele>
      </trkpt>
      <trkpt lat="47.84167" lon="-3.52757">
        <ele>5.4</ele>
      </trkpt>
      <trkpt lat="47.84162" lon="-3.52757">
        <ele>2.6</ele>
      </trkpt>
      <trkpt lat="47.84153" lon="-3.52753">
        <ele>2.4</ele>
      </trkpt>
      <trkpt lat="47.84134" lon="-3.52727">
        <ele>7.4</ele>
      </trkpt>
      <trkpt lat="47.8413" lon="-3.52725">
        <ele>8.6</ele>
      </trkpt>
      <trkpt lat="47.84127" lon="-3.52719">
        <ele>8.6</ele>
      </trkpt>
      <trkpt lat="47.84121" lon="-3.52703">
        <ele>9.8</ele>
      </trkpt>
      <trkpt lat="47.84117" lon="-3.52695">
        <ele>10.6</ele>
      </trkpt>
      <trkpt lat="47.84111" lon="-3.52692">
        <ele>10.6</ele>
      </trkpt>
      <trkpt lat="47.84105" lon="-3.52693">
        <ele>10.6</ele>
      </trkpt>
      <trkpt lat="47.84087" lon="-3.52704">
        <ele>10.6</ele>
      </trkpt>
      <trkpt lat="47.84084" lon="-3.52723">
        <ele>10.6</ele>
      </trkpt>
      <trkpt lat="47.84087" lon="-3.52759">
        <ele>10.6</ele>
      </trkpt>
      <trkpt lat="47.84086" lon="-3.52788">
        <ele>10.6</ele>
      </trkpt>
      <trkpt lat="47.84078" lon="-3.52817">
        <ele>10</ele>
      </trkpt>
      <trkpt lat="47.8407" lon="-3.52836">
        <ele>9</ele>
      </trkpt>
      <trkpt lat="47.84031" lon="-3.52902">
        <ele>4.4</ele>
      </trkpt>
      <trkpt lat="47.84029" lon="-3.52912">
        <ele>2.6</ele>
      </trkpt>
      <trkpt lat="47.84034" lon="-3.52919">
        <ele>-1.4</ele>
      </trkpt>
      <trkpt lat="47.84054" lon="-3.52932">
        <ele>-3.6</ele>
      </trkpt>
      <trkpt lat="47.84101" lon="-3.52949">
        <ele>-6</ele>
      </trkpt>
      <trkpt lat="47.84117" lon="-3.52951">
        <ele>-8</ele>
      </trkpt>
      <trkpt lat="47.84137" lon="-3.52957">
        <ele>-8.8</ele>
      </trkpt>
      <trkpt lat="47.84139" lon="-3.52959">
        <ele>-9</ele>
      </trkpt>
      <trkpt lat="47.84112" lon="-3.52999">
        <ele>-10.2</ele>
      </trkpt>
      <trkpt lat="47.841" lon="-3.5301">
        <ele>-11.4</ele>
      </trkpt>
      <trkpt lat="47.84079" lon="-3.53035">
        <ele>-12</ele>
      </trkpt>
      <trkpt lat="47.84057" lon="-3.53069">
        <ele>-12</ele>
      </trkpt>
      <trkpt lat="47.84035" lon="-3.53096">
        <ele>-12</ele>
      </trkpt>
      <trkpt lat="47.84022" lon="-3.53123">
        <ele>-12</ele>
      </trkpt>
      <trkpt lat="47.84013" lon="-3.53159">
        <ele>-12</ele>
      </trkpt>
      <trkpt lat="47.83995" lon="-3.53204">
        <ele>-12</ele>
      </trkpt>
      <trkpt lat="47.83986" lon="-3.5322">
        <ele>-12</ele>
      </trkpt>
      <trkpt lat="47.83974" lon="-3.53216">
        <ele>-12</ele>
      </trkpt>
      <trkpt lat="47.83959" lon="-3.53206">
        <ele>-12</ele>
      </trkpt>
      <trkpt lat="47.83946" lon="-3.53202">
        <ele>-11</ele>
      </trkpt>
      <trkpt lat="47.83928" lon="-3.53205">
        <ele>-8</ele>
      </trkpt>
      <trkpt lat="47.83925" lon="-3.53202">
        <ele>-7.6</ele>
      </trkpt>
      <trkpt lat="47.83924" lon="-3.53195">
        <ele>-7.2</ele>
      </trkpt>
      <trkpt lat="47.83926" lon="-3.53194">
        <ele>-7</ele>
      </trkpt>
      <trkpt lat="47.83928" lon="-3.53185">
        <ele>-6</ele>
      </trkpt>
      <trkpt lat="47.83934" lon="-3.53173">
        <ele>-5.6</ele>
      </trkpt>
      <trkpt lat="47.83953" lon="-3.5307">
        <ele>-4.6</ele>
      </trkpt>
      <trkpt lat="47.83951" lon="-3.5302">
        <ele>-3</ele>
      </trkpt>
      <trkpt lat="47.83947" lon="-3.53005">
        <ele>-0.6</ele>
      </trkpt>
      <trkpt lat="47.83947" lon="-3.52994">
        <ele>0.8</ele>
      </trkpt>
      <trkpt lat="47.83962" lon="-3.52951">
        <ele>0.8</ele>
      </trkpt>
      <trkpt lat="47.83969" lon="-3.52935">
        <ele>0.8</ele>
      </trkpt>
      <trkpt lat="47.83977" lon="-3.52912">
        <ele>0.8</ele>
      </trkpt>
      <trkpt lat="47.83974" lon="-3.52906">
        <ele>1.2</ele>
      </trkpt>
      <trkpt lat="47.83965" lon="-3.52901">
        <ele>3.2</ele>
      </trkpt>
      <trkpt lat="47.83935" lon="-3.52909">
        <ele>9</ele>
      </trkpt>
      <trkpt lat="47.83928" lon="-3.52915">
        <ele>11</ele>
      </trkpt>
      <trkpt lat="47.83907" lon="-3.52919">
        <ele>16.6</ele>
      </trkpt>
      <trkpt lat="47.83906" lon="-3.52922">
        <ele>18.2</ele>
      </trkpt>
      <trkpt lat="47.83848" lon="-3.52944">
        <ele>26.6</ele>
      </trkpt>
      <trkpt lat="47.83833" lon="-3.52947">
        <ele>26.6</ele>
      </trkpt>
      <trkpt lat="47.83829" lon="-3.52952">
        <ele>27.2</ele>
      </trkpt>
      <trkpt lat="47.83829" lon="-3.52956">
        <ele>27.6</ele>
      </trkpt>
      <trkpt lat="47.83843" lon="-3.52977">
        <ele>28.6</ele>
      </trkpt>
      <trkpt lat="47.83846" lon="-3.52991">
        <ele>27.6</ele>
      </trkpt>
      <trkpt lat="47.83846" lon="-3.53">
        <ele>26.2</ele>
      </trkpt>
      <trkpt lat="47.8385" lon="-3.53017">
        <ele>24</ele>
      </trkpt>
      <trkpt lat="47.83852" lon="-3.53038">
        <ele>24</ele>
      </trkpt>
      <trkpt lat="47.83845" lon="-3.53052">
        <ele>24</ele>
      </trkpt>
      <trkpt lat="47.83844" lon="-3.53051">
        <ele>24</ele>
      </trkpt>
      <trkpt lat="47.83847" lon="-3.53059">
        <ele>24</ele>
      </trkpt>
      <trkpt lat="47.83849" lon="-3.5306">
        <ele>22</ele>
      </trkpt>
      <trkpt lat="47.83849" lon="-3.53056">
        <ele>22</ele>
      </trkpt>
      <trkpt lat="47.83847" lon="-3.53057">
        <ele>22</ele>
      </trkpt>
      <trkpt lat="47.8385" lon="-3.53063">
        <ele>22</ele>
      </trkpt>
      <trkpt lat="47.83846" lon="-3.53143">
        <ele>21</ele>
      </trkpt>
      <trkpt lat="47.83842" lon="-3.53153">
        <ele>19</ele>
      </trkpt>
      <trkpt lat="47.8384" lon="-3.53164">
        <ele>17</ele>
      </trkpt>
      <trkpt lat="47.83843" lon="-3.53187">
        <ele>13.2</ele>
      </trkpt>
      <trkpt lat="47.8385" lon="-3.53206">
        <ele>9.8</ele>
      </trkpt>
      <trkpt lat="47.83864" lon="-3.53224">
        <ele>3.6</ele>
      </trkpt>
      <trkpt lat="47.83876" lon="-3.53229">
        <ele>1.6</ele>
      </trkpt>
      <trkpt lat="47.83888" lon="-3.53224">
        <ele>-0.6</ele>
      </trkpt>
      <trkpt lat="47.83898" lon="-3.53223">
        <ele>-2.6</ele>
      </trkpt>
      <trkpt lat="47.83902" lon="-3.53225">
        <ele>-4.2</ele>
      </trkpt>
      <trkpt lat="47.83899" lon="-3.53238">
        <ele>-5</ele>
      </trkpt>
      <trkpt lat="47.83904" lon="-3.53253">
        <ele>-5.6</ele>
      </trkpt>
      <trkpt lat="47.83906" lon="-3.5327">
        <ele>-7.2</ele>
      </trkpt>
      <trkpt lat="47.8391" lon="-3.53282">
        <ele>-8.4</ele>
      </trkpt>
      <trkpt lat="47.83912" lon="-3.53308">
        <ele>-10.4</ele>
      </trkpt>
      <trkpt lat="47.83911" lon="-3.53317">
        <ele>-11.2</ele>
      </trkpt>
      <trkpt lat="47.83883" lon="-3.53362">
        <ele>-13.2</ele>
      </trkpt>
      <trkpt lat="47.8387" lon="-3.53389">
        <ele>-12</ele>
      </trkpt>
      <trkpt lat="47.83841" lon="-3.53419">
        <ele>-10</ele>
      </trkpt>
      <trkpt lat="47.83838" lon="-3.53426">
        <ele>-9</ele>
      </trkpt>
      <trkpt lat="47.8382" lon="-3.53454">
        <ele>-6.6</ele>
      </trkpt>
      <trkpt lat="47.83814" lon="-3.5347">
        <ele>-6.2</ele>
      </trkpt>
      <trkpt lat="47.83797" lon="-3.53497">
        <ele>-4.6</ele>
      </trkpt>
      <trkpt lat="47.83773" lon="-3.53511">
        <ele>-4.6</ele>
      </trkpt>
      <trkpt lat="47.83748" lon="-3.53522">
        <ele>-2.6</ele>
      </trkpt>
      <trkpt lat="47.83731" lon="-3.53534">
        <ele>-2.6</ele>
      </trkpt>
      <trkpt lat="47.83713" lon="-3.53565">
        <ele>-5</ele>
      </trkpt>
      <trkpt lat="47.83712" lon="-3.53564">
        <ele>-7.6</ele>
      </trkpt>
      <trkpt lat="47.83714" lon="-3.53564">
        <ele>-7.6</ele>
      </trkpt>
      <trkpt lat="47.83714" lon="-3.53549">
        <ele>-5.6</ele>
      </trkpt>
      <trkpt lat="47.83704" lon="-3.53515">
        <ele>1.2</ele>
      </trkpt>
      <trkpt lat="47.83706" lon="-3.53505">
        <ele>3.2</ele>
      </trkpt>
      <trkpt lat="47.83708" lon="-3.53503">
        <ele>3.4</ele>
      </trkpt>
      <trkpt lat="47.83709" lon="-3.53492">
        <ele>7</ele>
      </trkpt>
      <trkpt lat="47.83718" lon="-3.53476">
        <ele>10.8</ele>
      </trkpt>
      <trkpt lat="47.8372" lon="-3.53478">
        <ele>11.8</ele>
      </trkpt>
      <trkpt lat="47.83724" lon="-3.53478">
        <ele>12.6</ele>
      </trkpt>
      <trkpt lat="47.83728" lon="-3.53471">
        <ele>13.8</ele>
      </trkpt>
      <trkpt lat="47.8375" lon="-3.5345">
        <ele>16</ele>
      </trkpt>
      <trkpt lat="47.83759" lon="-3.53433">
        <ele>17.6</ele>
      </trkpt>
      <trkpt lat="47.83761" lon="-3.53432">
        <ele>18</ele>
      </trkpt>
      <trkpt lat="47.83765" lon="-3.53426">
        <ele>18</ele>
      </trkpt>
      <trkpt lat="47.83772" lon="-3.53399">
        <ele>18</ele>
      </trkpt>
      <trkpt lat="47.83771" lon="-3.53388">
        <ele>18</ele>
      </trkpt>
      <trkpt lat="47.83766" lon="-3.5338">
        <ele>18.6</ele>
      </trkpt>
      <trkpt lat="47.83763" lon="-3.5337">
        <ele>19.6</ele>
      </trkpt>
      <trkpt lat="47.83749" lon="-3.53352">
        <ele>21.2</ele>
      </trkpt>
      <trkpt lat="47.83737" lon="-3.5335">
        <ele>22.2</ele>
      </trkpt>
      <trkpt lat="47.8373" lon="-3.53352">
        <ele>24</ele>
      </trkpt>
      <trkpt lat="47.83723" lon="-3.53359">
        <ele>24.2</ele>
      </trkpt>
      <trkpt lat="47.83703" lon="-3.53352">
        <ele>26</ele>
      </trkpt>
      <trkpt lat="47.83697" lon="-3.53348">
        <ele>26.2</ele>
      </trkpt>
      <trkpt lat="47.83698" lon="-3.53341">
        <ele>26.2</ele>
      </trkpt>
      <trkpt lat="47.83683" lon="-3.53342">
        <ele>24.6</ele>
      </trkpt>
      <trkpt lat="47.83681" lon="-3.53337">
        <ele>24.200001</ele>
      </trkpt>
      <trkpt lat="47.83648" lon="-3.53333">
        <ele>20.6</ele>
      </trkpt>
      <trkpt lat="47.83639" lon="-3.53329">
        <ele>19.200001</ele>
      </trkpt>
      <trkpt lat="47.83634" lon="-3.53313">
        <ele>17.6</ele>
      </trkpt>
      <trkpt lat="47.83637" lon="-3.53299">
        <ele>17.6</ele>
      </trkpt>
      <trkpt lat="47.83628" lon="-3.53275">
        <ele>17.6</ele>
      </trkpt>
      <trkpt lat="47.83629" lon="-3.53267">
        <ele>18</ele>
      </trkpt>
      <trkpt lat="47.83646" lon="-3.53226">
        <ele>20.6</ele>
      </trkpt>
      <trkpt lat="47.83702" lon="-3.53102">
        <ele>26</ele>
      </trkpt>
      <trkpt lat="47.83711" lon="-3.53071">
        <ele>28.2</ele>
      </trkpt>
      <trkpt lat="47.8373" lon="-3.53045">
        <ele>28.200001</ele>
      </trkpt>
      <trkpt lat="47.83756" lon="-3.53002">
        <ele>28.2</ele>
      </trkpt>
      <trkpt lat="47.83808" lon="-3.52949">
        <ele>28.2</ele>
      </trkpt>
      <trkpt lat="47.83852" lon="-3.52913">
        <ele>28.2</ele>
      </trkpt>
      <trkpt lat="47.83881" lon="-3.52883">
        <ele>28.200001</ele>
      </trkpt>
      <trkpt lat="47.83923" lon="-3.52843">
        <ele>26.6</ele>
      </trkpt>
      <trkpt lat="47.84006" lon="-3.52776">
        <ele>21</ele>
      </trkpt>
      <trkpt lat="47.84021" lon="-3.52762">
        <ele>18.200001</ele>
      </trkpt>
      <trkpt lat="47.84019" lon="-3.5276">
        <ele>17.200001</ele>
      </trkpt>
      <trkpt lat="47.84" lon="-3.52778">
        <ele>17.2</ele>
      </trkpt>
      <trkpt lat="47.83988" lon="-3.52784">
        <ele>17.2</ele>
      </trkpt>
      <trkpt lat="47.83973" lon="-3.52801">
        <ele>17.6</ele>
      </trkpt>
      <trkpt lat="47.83914" lon="-3.52851">
        <ele>22.200001</ele>
      </trkpt>
      <trkpt lat="47.83907" lon="-3.52859">
        <ele>23.6</ele>
      </trkpt>
      <trkpt lat="47.83851" lon="-3.52907">
        <ele>27.6</ele>
      </trkpt>
      <trkpt lat="47.83845" lon="-3.52904">
        <ele>28</ele>
      </trkpt>
      <trkpt lat="47.83742" lon="-3.52322">
        <ele>29.2</ele>
      </trkpt>
      <trkpt lat="47.83734" lon="-3.52311">
        <ele>28.2</ele>
      </trkpt>
      <trkpt lat="47.83671" lon="-3.52291">
        <ele>27.200001</ele>
      </trkpt>
      <trkpt lat="47.83653" lon="-3.52289">
        <ele>29.6</ele>
      </trkpt>
      <trkpt lat="47.83631" lon="-3.52291">
        <ele>30.6</ele>
      </trkpt>
      <trkpt lat="47.83612" lon="-3.523">
        <ele>33</ele>
      </trkpt>
      <trkpt lat="47.83549" lon="-3.52318">
        <ele>38</ele>
      </trkpt>
      <trkpt lat="47.83532" lon="-3.52318">
        <ele>38</ele>
      </trkpt>
      <trkpt lat="47.83507" lon="-3.52313">
        <ele>38</ele>
      </trkpt>
      <trkpt lat="47.83477" lon="-3.523">
        <ele>38</ele>
      </trkpt>
      <trkpt lat="47.83414" lon="-3.52262">
        <ele>38</ele>
      </trkpt>
      <trkpt lat="47.83402" lon="-3.52256">
        <ele>38</ele>
      </trkpt>
      <trkpt lat="47.83363" lon="-3.52255">
        <ele>38</ele>
      </trkpt>
      <trkpt lat="47.83337" lon="-3.52248">
        <ele>38</ele>
      </trkpt>
      <trkpt lat="47.833" lon="-3.52223">
        <ele>38.400002</ele>
      </trkpt>
      <trkpt lat="47.83233" lon="-3.52182">
        <ele>43.400002</ele>
      </trkpt>
      <trkpt lat="47.83178" lon="-3.52145">
        <ele>47</ele>
      </trkpt>
      <trkpt lat="47.83166" lon="-3.52148">
        <ele>48.4</ele>
      </trkpt>
      <trkpt lat="47.83084" lon="-3.52218">
        <ele>50.599998</ele>
      </trkpt>
      <trkpt lat="47.83058" lon="-3.52244">
        <ele>50.200001</ele>
      </trkpt>
      <trkpt lat="47.82984" lon="-3.52306">
        <ele>44.400002</ele>
      </trkpt>
      <trkpt lat="47.8292" lon="-3.52365">
        <ele>41</ele>
      </trkpt>
      <trkpt lat="47.82886" lon="-3.52393">
        <ele>41</ele>
      </trkpt>
      <trkpt lat="47.82875" lon="-3.52406">
        <ele>41</ele>
      </trkpt>
      <trkpt lat="47.82872" lon="-3.52426">
        <ele>41</ele>
      </trkpt>
      <trkpt lat="47.8289" lon="-3.52512">
        <ele>41</ele>
      </trkpt>
      <trkpt lat="47.82894" lon="-3.5254">
        <ele>41</ele>
      </trkpt>
      <trkpt lat="47.82893" lon="-3.52546">
        <ele>41</ele>
      </trkpt>
      <trkpt lat="47.82737" lon="-3.52617">
        <ele>36.400002</ele>
      </trkpt>
      <trkpt lat="47.82634" lon="-3.52638">
        <ele>35.6</ele>
      </trkpt>
      <trkpt lat="47.82581" lon="-3.52657">
        <ele>34.400002</ele>
      </trkpt>
      <trkpt lat="47.82513" lon="-3.52672">
        <ele>32.400002</ele>
      </trkpt>
      <trkpt lat="47.82508" lon="-3.5268">
        <ele>31.6</ele>
      </trkpt>
      <trkpt lat="47.8251" lon="-3.52693">
        <ele>30.6</ele>
      </trkpt>
      <trkpt lat="47.82606" lon="-3.52888">
        <ele>26</ele>
      </trkpt>
      <trkpt lat="47.82637" lon="-3.52957">
        <ele>26</ele>
      </trkpt>
      <trkpt lat="47.82644" lon="-3.52987">
        <ele>26</ele>
      </trkpt>
      <trkpt lat="47.82645" lon="-3.53011">
        <ele>27.6</ele>
      </trkpt>
      <trkpt lat="47.8259" lon="-3.53576">
        <ele>24</ele>
      </trkpt>
      <trkpt lat="47.82601" lon="-3.53599">
        <ele>24</ele>
      </trkpt>
      <trkpt lat="47.82601" lon="-3.53607">
        <ele>24</ele>
      </trkpt>
      <trkpt lat="47.82588" lon="-3.53637">
        <ele>24</ele>
      </trkpt>
      <trkpt lat="47.82585" lon="-3.5365">
        <ele>23</ele>
      </trkpt>
      <trkpt lat="47.82585" lon="-3.5369">
        <ele>20.6</ele>
      </trkpt>
      <trkpt lat="47.82583" lon="-3.53722">
        <ele>18.2</ele>
      </trkpt>
      <trkpt lat="47.82579" lon="-3.5374">
        <ele>16.6</ele>
      </trkpt>
      <trkpt lat="47.82573" lon="-3.53746">
        <ele>15.6</ele>
      </trkpt>
      <trkpt lat="47.82547" lon="-3.53752">
        <ele>11</ele>
      </trkpt>
      <trkpt lat="47.82533" lon="-3.53774">
        <ele>6.4</ele>
      </trkpt>
      <trkpt lat="47.82529" lon="-3.53789">
        <ele>4</ele>
      </trkpt>
      <trkpt lat="47.82528" lon="-3.53834">
        <ele>-5</ele>
      </trkpt>
      <trkpt lat="47.82524" lon="-3.53864">
        <ele>-12.2</ele>
      </trkpt>
      <trkpt lat="47.82519" lon="-3.53867">
        <ele>-14</ele>
      </trkpt>
      <trkpt lat="47.82443" lon="-3.53866">
        <ele>-14</ele>
      </trkpt>
      <trkpt lat="47.82424" lon="-3.53861">
        <ele>-14</ele>
      </trkpt>
      <trkpt lat="47.82393" lon="-3.53839">
        <ele>-14</ele>
      </trkpt>
      <trkpt lat="47.82367" lon="-3.53797">
        <ele>-13.2</ele>
      </trkpt>
      <trkpt lat="47.82355" lon="-3.53788">
        <ele>-11.8</ele>
      </trkpt>
      <trkpt lat="47.82351" lon="-3.53763">
        <ele>-13.4</ele>
      </trkpt>
      <trkpt lat="47.82319" lon="-3.53732">
        <ele>-14</ele>
      </trkpt>
      <trkpt lat="47.82308" lon="-3.53725">
        <ele>-14</ele>
      </trkpt>
      <trkpt lat="47.82281" lon="-3.53691">
        <ele>-14</ele>
      </trkpt>
      <trkpt lat="47.82275" lon="-3.53675">
        <ele>-14</ele>
      </trkpt>
      <trkpt lat="47.82284" lon="-3.53661">
        <ele>-10</ele>
      </trkpt>
      <trkpt lat="47.82309" lon="-3.53591">
        <ele>-7.6</ele>
      </trkpt>
      <trkpt lat="47.82316" lon="-3.53581">
        <ele>-7.6</ele>
      </trkpt>
      <trkpt lat="47.82319" lon="-3.53566">
        <ele>-7.6</ele>
      </trkpt>
      <trkpt lat="47.82316" lon="-3.53556">
        <ele>-7.6</ele>
      </trkpt>
      <trkpt lat="47.82297" lon="-3.53539">
        <ele>-7.6</ele>
      </trkpt>
      <trkpt lat="47.8229" lon="-3.53542">
        <ele>-7.6</ele>
      </trkpt>
      <trkpt lat="47.82284" lon="-3.53552">
        <ele>-7.6</ele>
      </trkpt>
      <trkpt lat="47.82268" lon="-3.53568">
        <ele>-8.2</ele>
      </trkpt>
      <trkpt lat="47.82265" lon="-3.53577">
        <ele>-10.2</ele>
      </trkpt>
      <trkpt lat="47.8226" lon="-3.5357">
        <ele>-13.8</ele>
      </trkpt>
      <trkpt lat="47.82258" lon="-3.53556">
        <ele>-14.2</ele>
      </trkpt>
      <trkpt lat="47.8222" lon="-3.53506">
        <ele>-14.2</ele>
      </trkpt>
      <trkpt lat="47.82214" lon="-3.53493">
        <ele>-14.2</ele>
      </trkpt>
      <trkpt lat="47.82216" lon="-3.53485">
        <ele>-14.2</ele>
      </trkpt>
      <trkpt lat="47.82234" lon="-3.53458">
        <ele>-14</ele>
      </trkpt>
      <trkpt lat="47.82242" lon="-3.53433">
        <ele>-12.2</ele>
      </trkpt>
      <trkpt lat="47.82238" lon="-3.53422">
        <ele>-12</ele>
      </trkpt>
      <trkpt lat="47.82233" lon="-3.53421">
        <ele>-11</ele>
      </trkpt>
      <trkpt lat="47.82204" lon="-3.53435">
        <ele>-10</ele>
      </trkpt>
      <trkpt lat="47.82191" lon="-3.53437">
        <ele>-11.4</ele>
      </trkpt>
      <trkpt lat="47.82184" lon="-3.53434">
        <ele>-12.2</ele>
      </trkpt>
      <trkpt lat="47.82173" lon="-3.53401">
        <ele>-12.2</ele>
      </trkpt>
      <trkpt lat="47.82163" lon="-3.53382">
        <ele>-12.2</ele>
      </trkpt>
      <trkpt lat="47.82144" lon="-3.53357">
        <ele>-12.2</ele>
      </trkpt>
      <trkpt lat="47.82131" lon="-3.53333">
        <ele>-12.2</ele>
      </trkpt>
      <trkpt lat="47.82079" lon="-3.53277">
        <ele>-12</ele>
      </trkpt>
      <trkpt lat="47.82046" lon="-3.53247">
        <ele>-8</ele>
      </trkpt>
      <trkpt lat="47.82032" lon="-3.53238">
        <ele>-8</ele>
      </trkpt>
      <trkpt lat="47.82028" lon="-3.53232">
        <ele>-6</ele>
      </trkpt>
      <trkpt lat="47.82013" lon="-3.53188">
        <ele>-1.8</ele>
      </trkpt>
      <trkpt lat="47.81996" lon="-3.5317">
        <ele>2.4</ele>
      </trkpt>
      <trkpt lat="47.81991" lon="-3.53159">
        <ele>4.8</ele>
      </trkpt>
      <trkpt lat="47.81985" lon="-3.53157">
        <ele>7</ele>
      </trkpt>
      <trkpt lat="47.8196" lon="-3.53167">
        <ele>11</ele>
      </trkpt>
      <trkpt lat="47.81949" lon="-3.5318">
        <ele>13</ele>
      </trkpt>
      <trkpt lat="47.81933" lon="-3.53224">
        <ele>13</ele>
      </trkpt>
      <trkpt lat="47.81902" lon="-3.53244">
        <ele>10.8</ele>
      </trkpt>
      <trkpt lat="47.81896" lon="-3.53251">
        <ele>9.8</ele>
      </trkpt>
      <trkpt lat="47.81879" lon="-3.53278">
        <ele>8.8</ele>
      </trkpt>
      <trkpt lat="47.81859" lon="-3.53298">
        <ele>12</ele>
      </trkpt>
      <trkpt lat="47.81853" lon="-3.53307">
        <ele>13.2</ele>
      </trkpt>
      <trkpt lat="47.81845" lon="-3.53314">
        <ele>13.2</ele>
      </trkpt>
      <trkpt lat="47.81847" lon="-3.53331">
        <ele>15</ele>
      </trkpt>
      <trkpt lat="47.81838" lon="-3.53361">
        <ele>13.8</ele>
      </trkpt>
      <trkpt lat="47.81833" lon="-3.53368">
        <ele>12.2</ele>
      </trkpt>
      <trkpt lat="47.81829" lon="-3.53383">
        <ele>8.8</ele>
      </trkpt>
      <trkpt lat="47.81816" lon="-3.53394">
        <ele>5</ele>
      </trkpt>
      <trkpt lat="47.81788" lon="-3.5346">
        <ele>-4.2</ele>
      </trkpt>
      <trkpt lat="47.8179" lon="-3.5347">
        <ele>-8.4</ele>
      </trkpt>
      <trkpt lat="47.8179" lon="-3.53479">
        <ele>-10.4</ele>
      </trkpt>
      <trkpt lat="47.81787" lon="-3.53481">
        <ele>-10.4</ele>
      </trkpt>
      <trkpt lat="47.81772" lon="-3.53507">
        <ele>-12.8</ele>
      </trkpt>
      <trkpt lat="47.81754" lon="-3.5351">
        <ele>-12.8</ele>
      </trkpt>
      <trkpt lat="47.81725" lon="-3.53527">
        <ele>-10.8</ele>
      </trkpt>
      <trkpt lat="47.81706" lon="-3.53547">
        <ele>-10.8</ele>
      </trkpt>
      <trkpt lat="47.81638" lon="-3.53582">
        <ele>-10.8</ele>
      </trkpt>
      <trkpt lat="47.81622" lon="-3.53582">
        <ele>-10.8</ele>
      </trkpt>
      <trkpt lat="47.81605" lon="-3.53578">
        <ele>-10.8</ele>
      </trkpt>
      <trkpt lat="47.81595" lon="-3.53567">
        <ele>-10.8</ele>
      </trkpt>
      <trkpt lat="47.81588" lon="-3.53554">
        <ele>-10.8</ele>
      </trkpt>
      <trkpt lat="47.81538" lon="-3.53529">
        <ele>-10.8</ele>
      </trkpt>
      <trkpt lat="47.81513" lon="-3.53506">
        <ele>-10.8</ele>
      </trkpt>
      <trkpt lat="47.81478" lon="-3.5349">
        <ele>-10.8</ele>
      </trkpt>
      <trkpt lat="47.81461" lon="-3.53447">
        <ele>-10.8</ele>
      </trkpt>
      <trkpt lat="47.81433" lon="-3.53407">
        <ele>-10.8</ele>
      </trkpt>
      <trkpt lat="47.8142" lon="-3.53371">
        <ele>-10.8</ele>
      </trkpt>
      <trkpt lat="47.81406" lon="-3.53342">
        <ele>-12.8</ele>
      </trkpt>
      <trkpt lat="47.81398" lon="-3.53319">
        <ele>-12.8</ele>
      </trkpt>
      <trkpt lat="47.81393" lon="-3.53292">
        <ele>-12.8</ele>
      </trkpt>
      <trkpt lat="47.81367" lon="-3.53239">
        <ele>-12.8</ele>
      </trkpt>
      <trkpt lat="47.81361" lon="-3.53212">
        <ele>-12.8</ele>
      </trkpt>
      <trkpt lat="47.81363" lon="-3.53193">
        <ele>-12.8</ele>
      </trkpt>
      <trkpt lat="47.81374" lon="-3.53167">
        <ele>-12.8</ele>
      </trkpt>
      <trkpt lat="47.81373" lon="-3.53157">
        <ele>-12.8</ele>
      </trkpt>
      <trkpt lat="47.81348" lon="-3.53129">
        <ele>-12.8</ele>
      </trkpt>
      <trkpt lat="47.81343" lon="-3.53089">
        <ele>-12.8</ele>
      </trkpt>
      <trkpt lat="47.81337" lon="-3.53073">
        <ele>-12.8</ele>
      </trkpt>
      <trkpt lat="47.81335" lon="-3.53062">
        <ele>-12.8</ele>
      </trkpt>
      <trkpt lat="47.81336" lon="-3.53061">
        <ele>-11.8</ele>
      </trkpt>
      <trkpt lat="47.81336" lon="-3.53054">
        <ele>-10.2</ele>
      </trkpt>
      <trkpt lat="47.81341" lon="-3.53059">
        <ele>-6</ele>
      </trkpt>
      <trkpt lat="47.81343" lon="-3.53057">
        <ele>-6</ele>
      </trkpt>
      <trkpt lat="47.81347" lon="-3.53058">
        <ele>-4</ele>
      </trkpt>
      <trkpt lat="47.8135" lon="-3.53062">
        <ele>-3.6</ele>
      </trkpt>
      <trkpt lat="47.81348" lon="-3.53062">
        <ele>-1.8</ele>
      </trkpt>
      <trkpt lat="47.8136" lon="-3.53067">
        <ele>-1</ele>
      </trkpt>
      <trkpt lat="47.81366" lon="-3.53067">
        <ele>0.8</ele>
      </trkpt>
      <trkpt lat="47.81372" lon="-3.53071">
        <ele>2.4</ele>
      </trkpt>
      <trkpt lat="47.81375" lon="-3.5306">
        <ele>4</ele>
      </trkpt>
      <trkpt lat="47.81376" lon="-3.5304">
        <ele>7.8</ele>
      </trkpt>
      <trkpt lat="47.81379" lon="-3.53025">
        <ele>11.2</ele>
      </trkpt>
      <trkpt lat="47.81384" lon="-3.53018">
        <ele>11.2</ele>
      </trkpt>
      <trkpt lat="47.81391" lon="-3.53017">
        <ele>13.6</ele>
      </trkpt>
      <trkpt lat="47.81417" lon="-3.53">
        <ele>17.200001</ele>
      </trkpt>
      <trkpt lat="47.81437" lon="-3.5299">
        <ele>18.6</ele>
      </trkpt>
      <trkpt lat="47.81446" lon="-3.52982">
        <ele>19.6</ele>
      </trkpt>
      <trkpt lat="47.81457" lon="-3.52978">
        <ele>19.6</ele>
      </trkpt>
      <trkpt lat="47.81462" lon="-3.52988">
        <ele>19.6</ele>
      </trkpt>
      <trkpt lat="47.81474" lon="-3.53003">
        <ele>19.6</ele>
      </trkpt>
      <trkpt lat="47.81531" lon="-3.53042">
        <ele>20.6</ele>
      </trkpt>
      <trkpt lat="47.8156" lon="-3.5307">
        <ele>21.6</ele>
      </trkpt>
      <trkpt lat="47.81594" lon="-3.53096">
        <ele>21.6</ele>
      </trkpt>
      <trkpt lat="47.81601" lon="-3.53099">
        <ele>22.200001</ele>
      </trkpt>
      <trkpt lat="47.81607" lon="-3.53096">
        <ele>23.2</ele>
      </trkpt>
      <trkpt lat="47.81624" lon="-3.53066">
        <ele>24.200001</ele>
      </trkpt>
      <trkpt lat="47.81627" lon="-3.53051">
        <ele>26</ele>
      </trkpt>
      <trkpt lat="47.81629" lon="-3.53022">
        <ele>26</ele>
      </trkpt>
      <trkpt lat="47.81623" lon="-3.52743">
        <ele>28</ele>
      </trkpt>
      <trkpt lat="47.81624" lon="-3.52684">
        <ele>28</ele>
      </trkpt>
      <trkpt lat="47.81632" lon="-3.52603">
        <ele>28</ele>
      </trkpt>
      <trkpt lat="47.81631" lon="-3.52597">
        <ele>28</ele>
      </trkpt>
      <trkpt lat="47.81621" lon="-3.52587">
        <ele>28</ele>
      </trkpt>
      <trkpt lat="47.8145" lon="-3.52646">
        <ele>20.6</ele>
      </trkpt>
      <trkpt lat="47.81425" lon="-3.52652">
        <ele>18.200001</ele>
      </trkpt>
      <trkpt lat="47.81408" lon="-3.52652">
        <ele>16.200001</ele>
      </trkpt>
      <trkpt lat="47.81393" lon="-3.52648">
        <ele>14.6</ele>
      </trkpt>
      <trkpt lat="47.81377" lon="-3.52639">
        <ele>12.6</ele>
      </trkpt>
      <trkpt lat="47.81347" lon="-3.52603">
        <ele>7</ele>
      </trkpt>
      <trkpt lat="47.81334" lon="-3.52577">
        <ele>4.4</ele>
      </trkpt>
      <trkpt lat="47.81321" lon="-3.52539">
        <ele>1.6</ele>
      </trkpt>
      <trkpt lat="47.81309" lon="-3.52512">
        <ele>-1.4</ele>
      </trkpt>
      <trkpt lat="47.81297" lon="-3.52492">
        <ele>-3.6</ele>
      </trkpt>
      <trkpt lat="47.8129" lon="-3.52486">
        <ele>-4.6</ele>
      </trkpt>
      <trkpt lat="47.8127" lon="-3.5248">
        <ele>-6</ele>
      </trkpt>
      <trkpt lat="47.81261" lon="-3.52474">
        <ele>-6</ele>
      </trkpt>
      <trkpt lat="47.8125" lon="-3.52462">
        <ele>-6</ele>
      </trkpt>
      <trkpt lat="47.81233" lon="-3.52425">
        <ele>-6</ele>
      </trkpt>
      <trkpt lat="47.81226" lon="-3.52402">
        <ele>-4.6</ele>
      </trkpt>
      <trkpt lat="47.81224" lon="-3.52388">
        <ele>-3.4</ele>
      </trkpt>
      <trkpt lat="47.81217" lon="-3.52367">
        <ele>-1</ele>
      </trkpt>
      <trkpt lat="47.81207" lon="-3.52345">
        <ele>1.2</ele>
      </trkpt>
      <trkpt lat="47.81204" lon="-3.52325">
        <ele>3.4</ele>
      </trkpt>
      <trkpt lat="47.81199" lon="-3.52313">
        <ele>5</ele>
      </trkpt>
      <trkpt lat="47.81187" lon="-3.52297">
        <ele>5</ele>
      </trkpt>
      <trkpt lat="47.81092" lon="-3.52206">
        <ele>9.2</ele>
      </trkpt>
      <trkpt lat="47.81052" lon="-3.52164">
        <ele>12</ele>
      </trkpt>
      <trkpt lat="47.81047" lon="-3.52154">
        <ele>13.8</ele>
      </trkpt>
      <trkpt lat="47.81042" lon="-3.52134">
        <ele>15.6</ele>
      </trkpt>
      <trkpt lat="47.81045" lon="-3.52093">
        <ele>18</ele>
      </trkpt>
      <trkpt lat="47.81043" lon="-3.52073">
        <ele>18</ele>
      </trkpt>
      <trkpt lat="47.81029" lon="-3.52064">
        <ele>19.6</ele>
      </trkpt>
      <trkpt lat="47.81011" lon="-3.52055">
        <ele>21.6</ele>
      </trkpt>
      <trkpt lat="47.80991" lon="-3.52041">
        <ele>22.2</ele>
      </trkpt>
      <trkpt lat="47.80967" lon="-3.5203">
        <ele>24.2</ele>
      </trkpt>
      <trkpt lat="47.80915" lon="-3.51995">
        <ele>26.200001</ele>
      </trkpt>
      <trkpt lat="47.80901" lon="-3.51989">
        <ele>27</ele>
      </trkpt>
      <trkpt lat="47.808" lon="-3.51914">
        <ele>30.200001</ele>
      </trkpt>
      <trkpt lat="47.80756" lon="-3.51873">
        <ele>30.200001</ele>
      </trkpt>
      <trkpt lat="47.80704" lon="-3.51812">
        <ele>30.200001</ele>
      </trkpt>
      <trkpt lat="47.8069" lon="-3.51801">
        <ele>30.2</ele>
      </trkpt>
      <trkpt lat="47.80639" lon="-3.51784">
        <ele>29.6</ele>
      </trkpt>
      <trkpt lat="47.80608" lon="-3.5177">
        <ele>26</ele>
      </trkpt>
      <trkpt lat="47.80602" lon="-3.51762">
        <ele>24.2</ele>
      </trkpt>
      <trkpt lat="47.80593" lon="-3.51732">
        <ele>22.6</ele>
      </trkpt>
      <trkpt lat="47.80556" lon="-3.51626">
        <ele>20.6</ele>
      </trkpt>
      <trkpt lat="47.80542" lon="-3.51581">
        <ele>19.6</ele>
      </trkpt>
      <trkpt lat="47.80538" lon="-3.5155">
        <ele>18.6</ele>
      </trkpt>
      <trkpt lat="47.80538" lon="-3.51528">
        <ele>18.6</ele>
      </trkpt>
      <trkpt lat="47.80544" lon="-3.51485">
        <ele>17.6</ele>
      </trkpt>
      <trkpt lat="47.80551" lon="-3.51466">
        <ele>16.6</ele>
      </trkpt>
      <trkpt lat="47.80583" lon="-3.514">
        <ele>14</ele>
      </trkpt>
      <trkpt lat="47.80599" lon="-3.51359">
        <ele>13.6</ele>
      </trkpt>
      <trkpt lat="47.80612" lon="-3.51292">
        <ele>10.8</ele>
      </trkpt>
      <trkpt lat="47.80618" lon="-3.51167">
        <ele>7</ele>
      </trkpt>
      <trkpt lat="47.80617" lon="-3.51156">
        <ele>7</ele>
      </trkpt>
      <trkpt lat="47.8061" lon="-3.51124">
        <ele>7</ele>
      </trkpt>
      <trkpt lat="47.80604" lon="-3.51105">
        <ele>6</ele>
      </trkpt>
      <trkpt lat="47.80574" lon="-3.51042">
        <ele>4.8</ele>
      </trkpt>
      <trkpt lat="47.80565" lon="-3.51013">
        <ele>4.8</ele>
      </trkpt>
      <trkpt lat="47.80562" lon="-3.50978">
        <ele>6.4</ele>
      </trkpt>
      <trkpt lat="47.80562" lon="-3.50915">
        <ele>6.8</ele>
      </trkpt>
      <trkpt lat="47.80559" lon="-3.50913">
        <ele>6.8</ele>
      </trkpt>
      <trkpt lat="47.80532" lon="-3.50912">
        <ele>9.2</ele>
      </trkpt>
      <trkpt lat="47.8052" lon="-3.50919">
        <ele>11</ele>
      </trkpt>
      <trkpt lat="47.80509" lon="-3.50934">
        <ele>11</ele>
      </trkpt>
      <trkpt lat="47.80495" lon="-3.50959">
        <ele>13.6</ele>
      </trkpt>
      <trkpt lat="47.80495" lon="-3.50968">
        <ele>15</ele>
      </trkpt>
      <trkpt lat="47.80497" lon="-3.50972">
        <ele>15.2</ele>
      </trkpt>
      <trkpt lat="47.80498" lon="-3.51029">
        <ele>15.2</ele>
      </trkpt>
      <trkpt lat="47.80494" lon="-3.51061">
        <ele>15</ele>
      </trkpt>
      <trkpt lat="47.80491" lon="-3.51071">
        <ele>14.6</ele>
      </trkpt>
      <trkpt lat="47.8047" lon="-3.51119">
        <ele>11.8</ele>
      </trkpt>
      <trkpt lat="47.80469" lon="-3.51128">
        <ele>11</ele>
      </trkpt>
      <trkpt lat="47.80477" lon="-3.51171">
        <ele>10.6</ele>
      </trkpt>
      <trkpt lat="47.80481" lon="-3.51204">
        <ele>11.2</ele>
      </trkpt>
      <trkpt lat="47.8048" lon="-3.51209">
        <ele>12</ele>
      </trkpt>
      <trkpt lat="47.80479" lon="-3.51256">
        <ele>12.6</ele>
      </trkpt>
      <trkpt lat="47.80471" lon="-3.51306">
        <ele>12.6</ele>
      </trkpt>
      <trkpt lat="47.80457" lon="-3.51368">
        <ele>12.6</ele>
      </trkpt>
      <trkpt lat="47.80428" lon="-3.51453">
        <ele>14</ele>
      </trkpt>
      <trkpt lat="47.80423" lon="-3.51472">
        <ele>14.8</ele>
      </trkpt>
      <trkpt lat="47.80413" lon="-3.51491">
        <ele>14.8</ele>
      </trkpt>
      <trkpt lat="47.80404" lon="-3.51518">
        <ele>15.6</ele>
      </trkpt>
      <trkpt lat="47.80404" lon="-3.51527">
        <ele>16.2</ele>
      </trkpt>
      <trkpt lat="47.80399" lon="-3.51546">
        <ele>16.6</ele>
      </trkpt>
      <trkpt lat="47.80394" lon="-3.51579">
        <ele>19</ele>
      </trkpt>
      <trkpt lat="47.80389" lon="-3.51596">
        <ele>19</ele>
      </trkpt>
      <trkpt lat="47.80389" lon="-3.51606">
        <ele>19.6</ele>
      </trkpt>
      <trkpt lat="47.80375" lon="-3.51636">
        <ele>22.2</ele>
      </trkpt>
      <trkpt lat="47.8036" lon="-3.51677">
        <ele>24</ele>
      </trkpt>
      <trkpt lat="47.80353" lon="-3.5169">
        <ele>25.200001</ele>
      </trkpt>
      <trkpt lat="47.80339" lon="-3.51699">
        <ele>25.2</ele>
      </trkpt>
      <trkpt lat="47.8028" lon="-3.51686">
        <ele>23</ele>
      </trkpt>
      <trkpt lat="47.80258" lon="-3.51678">
        <ele>23</ele>
      </trkpt>
      <trkpt lat="47.80237" lon="-3.5168">
        <ele>22.200001</ele>
      </trkpt>
      <trkpt lat="47.80207" lon="-3.51692">
        <ele>20</ele>
      </trkpt>
      <trkpt lat="47.8015" lon="-3.51669">
        <ele>18.6</ele>
      </trkpt>
      <trkpt lat="47.80135" lon="-3.51688">
        <ele>18.6</ele>
      </trkpt>
      <trkpt lat="47.80124" lon="-3.51724">
        <ele>22</ele>
      </trkpt>
      <trkpt lat="47.80124" lon="-3.5173">
        <ele>23</ele>
      </trkpt>
      <trkpt lat="47.801" lon="-3.51773">
        <ele>22.6</ele>
      </trkpt>
      <trkpt lat="47.80084" lon="-3.51792">
        <ele>20.2</ele>
      </trkpt>
      <trkpt lat="47.80052" lon="-3.51807">
        <ele>18</ele>
      </trkpt>
      <trkpt lat="47.80037" lon="-3.51806">
        <ele>18</ele>
      </trkpt>
      <trkpt lat="47.80025" lon="-3.51801">
        <ele>18</ele>
      </trkpt>
      <trkpt lat="47.80009" lon="-3.51788">
        <ele>20.6</ele>
      </trkpt>
      <trkpt lat="47.7999" lon="-3.5178">
        <ele>24.2</ele>
      </trkpt>
      <trkpt lat="47.79962" lon="-3.5178">
        <ele>26.6</ele>
      </trkpt>
      <trkpt lat="47.79932" lon="-3.51783">
        <ele>27.6</ele>
      </trkpt>
      <trkpt lat="47.79916" lon="-3.5179">
        <ele>28.6</ele>
      </trkpt>
      <trkpt lat="47.79882" lon="-3.51823">
        <ele>28.6</ele>
      </trkpt>
      <trkpt lat="47.79867" lon="-3.51845">
        <ele>28.6</ele>
      </trkpt>
      <trkpt lat="47.79815" lon="-3.51873">
        <ele>26</ele>
      </trkpt>
      <trkpt lat="47.79793" lon="-3.5188">
        <ele>24.6</ele>
      </trkpt>
      <trkpt lat="47.79769" lon="-3.51897">
        <ele>24.6</ele>
      </trkpt>
      <trkpt lat="47.79752" lon="-3.51904">
        <ele>24.6</ele>
      </trkpt>
      <trkpt lat="47.79745" lon="-3.5191">
        <ele>24.6</ele>
      </trkpt>
      <trkpt lat="47.79736" lon="-3.51914">
        <ele>24.6</ele>
      </trkpt>
      <trkpt lat="47.79728" lon="-3.51921">
        <ele>24.6</ele>
      </trkpt>
      <trkpt lat="47.797" lon="-3.51961">
        <ele>24.6</ele>
      </trkpt>
      <trkpt lat="47.79679" lon="-3.51971">
        <ele>24.6</ele>
      </trkpt>
      <trkpt lat="47.79657" lon="-3.51993">
        <ele>24.6</ele>
      </trkpt>
      <trkpt lat="47.79645" lon="-3.51998">
        <ele>24.6</ele>
      </trkpt>
      <trkpt lat="47.79632" lon="-3.52012">
        <ele>24.6</ele>
      </trkpt>
      <trkpt lat="47.79623" lon="-3.52027">
        <ele>24.2</ele>
      </trkpt>
      <trkpt lat="47.79615" lon="-3.52061">
        <ele>23</ele>
      </trkpt>
      <trkpt lat="47.79605" lon="-3.52079">
        <ele>22</ele>
      </trkpt>
      <trkpt lat="47.79593" lon="-3.52114">
        <ele>20.6</ele>
      </trkpt>
      <trkpt lat="47.79591" lon="-3.52127">
        <ele>20.200001</ele>
      </trkpt>
      <trkpt lat="47.79594" lon="-3.52194">
        <ele>16.6</ele>
      </trkpt>
      <trkpt lat="47.79597" lon="-3.52207">
        <ele>16.2</ele>
      </trkpt>
      <trkpt lat="47.79604" lon="-3.52262">
        <ele>13.6</ele>
      </trkpt>
      <trkpt lat="47.79599" lon="-3.52297">
        <ele>9.6</ele>
      </trkpt>
      <trkpt lat="47.796" lon="-3.5231">
        <ele>6.8</ele>
      </trkpt>
      <trkpt lat="47.79616" lon="-3.5232">
        <ele>-0.6</ele>
      </trkpt>
      <trkpt lat="47.79627" lon="-3.52337">
        <ele>-6.6</ele>
      </trkpt>
      <trkpt lat="47.79631" lon="-3.5234">
        <ele>-9.8</ele>
      </trkpt>
      <trkpt lat="47.79634" lon="-3.52338">
        <ele>-9.8</ele>
      </trkpt>
      <trkpt lat="47.79633" lon="-3.5234">
        <ele>-9.8</ele>
      </trkpt>
      <trkpt lat="47.79636" lon="-3.52342">
        <ele>-9.8</ele>
      </trkpt>
      <trkpt lat="47.7964" lon="-3.52356">
        <ele>-9.8</ele>
      </trkpt>
      <trkpt lat="47.7964" lon="-3.52385">
        <ele>-9.8</ele>
      </trkpt>
      <trkpt lat="47.79634" lon="-3.52406">
        <ele>-9.8</ele>
      </trkpt>
      <trkpt lat="47.79607" lon="-3.52455">
        <ele>-7</ele>
      </trkpt>
      <trkpt lat="47.79601" lon="-3.52456">
        <ele>-6</ele>
      </trkpt>
      <trkpt lat="47.79586" lon="-3.52443">
        <ele>-3.8</ele>
      </trkpt>
      <trkpt lat="47.79581" lon="-3.52412">
        <ele>-1</ele>
      </trkpt>
      <trkpt lat="47.79574" lon="-3.52402">
        <ele>1</ele>
      </trkpt>
      <trkpt lat="47.79569" lon="-3.52399">
        <ele>1</ele>
      </trkpt>
      <trkpt lat="47.79553" lon="-3.52401">
        <ele>1</ele>
      </trkpt>
      <trkpt lat="47.79499" lon="-3.52422">
        <ele>5</ele>
      </trkpt>
      <trkpt lat="47.79464" lon="-3.5243">
        <ele>7</ele>
      </trkpt>
      <trkpt lat="47.79418" lon="-3.52435">
        <ele>10.8</ele>
      </trkpt>
      <trkpt lat="47.79381" lon="-3.52434">
        <ele>13</ele>
      </trkpt>
      <trkpt lat="47.79347" lon="-3.52424">
        <ele>14.8</ele>
      </trkpt>
      <trkpt lat="47.79298" lon="-3.52398">
        <ele>16</ele>
      </trkpt>
      <trkpt lat="47.79289" lon="-3.52406">
        <ele>17.6</ele>
      </trkpt>
      <trkpt lat="47.79272" lon="-3.52396">
        <ele>19.6</ele>
      </trkpt>
      <trkpt lat="47.79263" lon="-3.52374">
        <ele>19.6</ele>
      </trkpt>
      <trkpt lat="47.79256" lon="-3.52362">
        <ele>19.6</ele>
      </trkpt>
      <trkpt lat="47.79244" lon="-3.52334">
        <ele>19.6</ele>
      </trkpt>
      <trkpt lat="47.79242" lon="-3.52318">
        <ele>19.6</ele>
      </trkpt>
      <trkpt lat="47.79226" lon="-3.52276">
        <ele>19.6</ele>
      </trkpt>
      <trkpt lat="47.79211" lon="-3.52219">
        <ele>19.6</ele>
      </trkpt>
      <trkpt lat="47.79204" lon="-3.52178">
        <ele>19.6</ele>
      </trkpt>
      <trkpt lat="47.79201" lon="-3.52175">
        <ele>19.6</ele>
      </trkpt>
      <trkpt lat="47.79153" lon="-3.52165">
        <ele>18.6</ele>
      </trkpt>
      <trkpt lat="47.79133" lon="-3.52156">
        <ele>16.6</ele>
      </trkpt>
      <trkpt lat="47.79131" lon="-3.52146">
        <ele>15.6</ele>
      </trkpt>
      <trkpt lat="47.79151" lon="-3.52035">
        <ele>17</ele>
      </trkpt>
      <trkpt lat="47.79155" lon="-3.52027">
        <ele>17</ele>
      </trkpt>
      <trkpt lat="47.79168" lon="-3.5202">
        <ele>17</ele>
      </trkpt>
      <trkpt lat="47.79194" lon="-3.52011">
        <ele>19.200001</ele>
      </trkpt>
      <trkpt lat="47.79204" lon="-3.52">
        <ele>19.200001</ele>
      </trkpt>
      <trkpt lat="47.79207" lon="-3.51991">
        <ele>19.6</ele>
      </trkpt>
      <trkpt lat="47.79209" lon="-3.51975">
        <ele>20.6</ele>
      </trkpt>
      <trkpt lat="47.79212" lon="-3.51891">
        <ele>21.2</ele>
      </trkpt>
      <trkpt lat="47.79211" lon="-3.51863">
        <ele>21.2</ele>
      </trkpt>
      <trkpt lat="47.792" lon="-3.51829">
        <ele>21.200001</ele>
      </trkpt>
      <trkpt lat="47.79197" lon="-3.51806">
        <ele>20.200001</ele>
      </trkpt>
      <trkpt lat="47.79196" lon="-3.51771">
        <ele>18.6</ele>
      </trkpt>
      <trkpt lat="47.79205" lon="-3.5172">
        <ele>16.2</ele>
      </trkpt>
      <trkpt lat="47.79208" lon="-3.51679">
        <ele>14.8</ele>
      </trkpt>
      <trkpt lat="47.79205" lon="-3.51641">
        <ele>11.8</ele>
      </trkpt>
      <trkpt lat="47.79202" lon="-3.5163">
        <ele>11</ele>
      </trkpt>
      <trkpt lat="47.79194" lon="-3.51612">
        <ele>9.8</ele>
      </trkpt>
      <trkpt lat="47.79183" lon="-3.51603">
        <ele>8.6</ele>
      </trkpt>
      <trkpt lat="47.79106" lon="-3.51581">
        <ele>6</ele>
      </trkpt>
      <trkpt lat="47.79047" lon="-3.51571">
        <ele>3.6</ele>
      </trkpt>
      <trkpt lat="47.79011" lon="-3.51572">
        <ele>3.6</ele>
      </trkpt>
      <trkpt lat="47.7898" lon="-3.51581">
        <ele>3.6</ele>
      </trkpt>
      <trkpt lat="47.78948" lon="-3.51586">
        <ele>3.6</ele>
      </trkpt>
      <trkpt lat="47.78887" lon="-3.51569">
        <ele>3</ele>
      </trkpt>
      <trkpt lat="47.78798" lon="-3.5152">
        <ele>16.6</ele>
      </trkpt>
      <trkpt lat="47.78754" lon="-3.51518">
        <ele>-1.4</ele>
      </trkpt>
      <trkpt lat="47.78731" lon="-3.51512">
        <ele>-2.6</ele>
      </trkpt>
      <trkpt lat="47.787" lon="-3.51499">
        <ele>-4</ele>
      </trkpt>
      <trkpt lat="47.78676" lon="-3.51482">
        <ele>-5</ele>
      </trkpt>
      <trkpt lat="47.78641" lon="-3.51468">
        <ele>-5</ele>
      </trkpt>
      <trkpt lat="47.78605" lon="-3.5149">
        <ele>-5</ele>
      </trkpt>
      <trkpt lat="47.78563" lon="-3.51508">
        <ele>-5</ele>
      </trkpt>
      <trkpt lat="47.78508" lon="-3.51543">
        <ele>-2.8</ele>
      </trkpt>
      <trkpt lat="47.78499" lon="-3.51545">
        <ele>-2.8</ele>
      </trkpt>
      <trkpt lat="47.78497" lon="-3.51548">
        <ele>-2.8</ele>
      </trkpt>
      <trkpt lat="47.78496" lon="-3.51563">
        <ele>-2.8</ele>
      </trkpt>
      <trkpt lat="47.78515" lon="-3.51594">
        <ele>-2.8</ele>
      </trkpt>
      <trkpt lat="47.78517" lon="-3.51613">
        <ele>-0.8</ele>
      </trkpt>
      <trkpt lat="47.78521" lon="-3.51624">
        <ele>3.2</ele>
      </trkpt>
      <trkpt lat="47.78516" lon="-3.51638">
        <ele>5.4</ele>
      </trkpt>
      <trkpt lat="47.78518" lon="-3.51648">
        <ele>5.4</ele>
      </trkpt>
      <trkpt lat="47.78517" lon="-3.51672">
        <ele>7.4</ele>
      </trkpt>
      <trkpt lat="47.78528" lon="-3.51702">
        <ele>10.6</ele>
      </trkpt>
      <trkpt lat="47.78528" lon="-3.5171">
        <ele>11.8</ele>
      </trkpt>
      <trkpt lat="47.78526" lon="-3.51714">
        <ele>12.2</ele>
      </trkpt>
      <trkpt lat="47.78528" lon="-3.51721">
        <ele>13.6</ele>
      </trkpt>
      <trkpt lat="47.78527" lon="-3.51787">
        <ele>16.200001</ele>
      </trkpt>
      <trkpt lat="47.78529" lon="-3.51799">
        <ele>17</ele>
      </trkpt>
      <trkpt lat="47.78529" lon="-3.51823">
        <ele>18.2</ele>
      </trkpt>
      <trkpt lat="47.78533" lon="-3.51831">
        <ele>18.2</ele>
      </trkpt>
      <trkpt lat="47.78535" lon="-3.51845">
        <ele>18.2</ele>
      </trkpt>
      <trkpt lat="47.78533" lon="-3.51878">
        <ele>18.2</ele>
      </trkpt>
      <trkpt lat="47.78539" lon="-3.5189">
        <ele>18.200001</ele>
      </trkpt>
      <trkpt lat="47.78539" lon="-3.51908">
        <ele>18.200001</ele>
      </trkpt>
      <trkpt lat="47.78537" lon="-3.51923">
        <ele>18.200001</ele>
      </trkpt>
      <trkpt lat="47.78537" lon="-3.51942">
        <ele>18.200001</ele>
      </trkpt>
      <trkpt lat="47.78542" lon="-3.51981">
        <ele>18.6</ele>
      </trkpt>
      <trkpt lat="47.78546" lon="-3.52">
        <ele>20.200001</ele>
      </trkpt>
      <trkpt lat="47.78547" lon="-3.52013">
        <ele>20.200001</ele>
      </trkpt>
      <trkpt lat="47.78543" lon="-3.52023">
        <ele>20.2</ele>
      </trkpt>
      <trkpt lat="47.78534" lon="-3.52033">
        <ele>20.2</ele>
      </trkpt>
      <trkpt lat="47.7853" lon="-3.52042">
        <ele>20.2</ele>
      </trkpt>
      <trkpt lat="47.78525" lon="-3.52071">
        <ele>20.200001</ele>
      </trkpt>
      <trkpt lat="47.78531" lon="-3.5226">
        <ele>18.200001</ele>
      </trkpt>
      <trkpt lat="47.78527" lon="-3.52269">
        <ele>18.200001</ele>
      </trkpt>
      <trkpt lat="47.7852" lon="-3.52272">
        <ele>17.200001</ele>
      </trkpt>
      <trkpt lat="47.78443" lon="-3.52256">
        <ele>14</ele>
      </trkpt>
      <trkpt lat="47.78411" lon="-3.52254">
        <ele>11.8</ele>
      </trkpt>
      <trkpt lat="47.78384" lon="-3.52256">
        <ele>12.2</ele>
      </trkpt>
      <trkpt lat="47.7835" lon="-3.52269">
        <ele>16.200001</ele>
      </trkpt>
      <trkpt lat="47.78318" lon="-3.52286">
        <ele>16.200001</ele>
      </trkpt>
      <trkpt lat="47.78315" lon="-3.52294">
        <ele>16.6</ele>
      </trkpt>
      <trkpt lat="47.78296" lon="-3.52376">
        <ele>20.200001</ele>
      </trkpt>
      <trkpt lat="47.78263" lon="-3.52671">
        <ele>22.6</ele>
      </trkpt>
      <trkpt lat="47.78256" lon="-3.52706">
        <ele>22.6</ele>
      </trkpt>
      <trkpt lat="47.78246" lon="-3.5274">
        <ele>22.6</ele>
      </trkpt>
      <trkpt lat="47.78236" lon="-3.52756">
        <ele>22.6</ele>
      </trkpt>
      <trkpt lat="47.7822" lon="-3.52765">
        <ele>22.6</ele>
      </trkpt>
      <trkpt lat="47.78192" lon="-3.52768">
        <ele>24.6</ele>
      </trkpt>
      <trkpt lat="47.78152" lon="-3.52764">
        <ele>24.6</ele>
      </trkpt>
      <trkpt lat="47.78087" lon="-3.52769">
        <ele>26.6</ele>
      </trkpt>
      <trkpt lat="47.78052" lon="-3.52764">
        <ele>26.6</ele>
      </trkpt>
      <trkpt lat="47.77626" lon="-3.52597">
        <ele>18</ele>
      </trkpt>
      <trkpt lat="47.77618" lon="-3.52601">
        <ele>17.200001</ele>
      </trkpt>
      <trkpt lat="47.77616" lon="-3.52608">
        <ele>16.6</ele>
      </trkpt>
      <trkpt lat="47.77617" lon="-3.52709">
        <ele>16.200001</ele>
      </trkpt>
      <trkpt lat="47.77612" lon="-3.52721">
        <ele>15.2</ele>
      </trkpt>
      <trkpt lat="47.77602" lon="-3.52723">
        <ele>14</ele>
      </trkpt>
      <trkpt lat="47.77587" lon="-3.52718">
        <ele>14</ele>
      </trkpt>
      <trkpt lat="47.77361" lon="-3.52695">
        <ele>6.4</ele>
      </trkpt>
      <trkpt lat="47.77322" lon="-3.5268">
        <ele>6</ele>
      </trkpt>
      <trkpt lat="47.77304" lon="-3.52676">
        <ele>5</ele>
      </trkpt>
      <trkpt lat="47.77249" lon="-3.52681">
        <ele>-4.2</ele>
      </trkpt>
      <trkpt lat="47.77243" lon="-3.52687">
        <ele>-6.2</ele>
      </trkpt>
      <trkpt lat="47.77242" lon="-3.52692">
        <ele>-7</ele>
      </trkpt>
      <trkpt lat="47.77242" lon="-3.52717">
        <ele>-9.8</ele>
      </trkpt>
      <trkpt lat="47.77239" lon="-3.5276">
        <ele>-9.8</ele>
      </trkpt>
      <trkpt lat="47.77241" lon="-3.52785">
        <ele>-9.8</ele>
      </trkpt>
      <trkpt lat="47.77245" lon="-3.52793">
        <ele>-9.8</ele>
      </trkpt>
      <trkpt lat="47.77277" lon="-3.52819">
        <ele>-11.4</ele>
      </trkpt>
      <trkpt lat="47.7728" lon="-3.52826">
        <ele>-12</ele>
      </trkpt>
      <trkpt lat="47.77278" lon="-3.52837">
        <ele>-12.8</ele>
      </trkpt>
      <trkpt lat="47.77247" lon="-3.52869">
        <ele>-14</ele>
      </trkpt>
      <trkpt lat="47.77242" lon="-3.5287">
        <ele>-14</ele>
      </trkpt>
      <trkpt lat="47.77229" lon="-3.52862">
        <ele>-14</ele>
      </trkpt>
      <trkpt lat="47.77225" lon="-3.52849">
        <ele>-14.2</ele>
      </trkpt>
      <trkpt lat="47.77222" lon="-3.52836">
        <ele>-15.4</ele>
      </trkpt>
      <trkpt lat="47.77202" lon="-3.52799">
        <ele>-13.4</ele>
      </trkpt>
      <trkpt lat="47.77195" lon="-3.52775">
        <ele>-13.4</ele>
      </trkpt>
      <trkpt lat="47.77166" lon="-3.52727">
        <ele>-13.4</ele>
      </trkpt>
      <trkpt lat="47.7709" lon="-3.52589">
        <ele>-13.4</ele>
      </trkpt>
      <trkpt lat="47.77064" lon="-3.52551">
        <ele>-13.4</ele>
      </trkpt>
      <trkpt lat="47.7704" lon="-3.52525">
        <ele>-13.4</ele>
      </trkpt>
      <trkpt lat="47.77037" lon="-3.52518">
        <ele>-13.4</ele>
      </trkpt>
      <trkpt lat="47.77041" lon="-3.52496">
        <ele>-13.4</ele>
      </trkpt>
      <trkpt lat="47.77031" lon="-3.52437">
        <ele>-13.4</ele>
      </trkpt>
      <trkpt lat="47.77023" lon="-3.52322">
        <ele>-13.4</ele>
      </trkpt>
      <trkpt lat="47.77017" lon="-3.52273">
        <ele>-13.4</ele>
      </trkpt>
      <trkpt lat="47.7701" lon="-3.52229">
        <ele>-13.4</ele>
      </trkpt>
      <trkpt lat="47.77012" lon="-3.52209">
        <ele>-13.4</ele>
      </trkpt>
      <trkpt lat="47.77005" lon="-3.52175">
        <ele>-13.4</ele>
      </trkpt>
      <trkpt lat="47.77007" lon="-3.52156">
        <ele>-13.4</ele>
      </trkpt>
      <trkpt lat="47.77011" lon="-3.52147">
        <ele>-13.4</ele>
      </trkpt>
      <trkpt lat="47.77006" lon="-3.52103">
        <ele>-13.4</ele>
      </trkpt>
      <trkpt lat="47.76998" lon="-3.52078">
        <ele>-13.4</ele>
      </trkpt>
      <trkpt lat="47.77002" lon="-3.52031">
        <ele>-11.2</ele>
      </trkpt>
      <trkpt lat="47.77" lon="-3.52021">
        <ele>-11.2</ele>
      </trkpt>
      <trkpt lat="47.76994" lon="-3.52016">
        <ele>-11.2</ele>
      </trkpt>
      <trkpt lat="47.76981" lon="-3.52022">
        <ele>-11</ele>
      </trkpt>
      <trkpt lat="47.76977" lon="-3.5203">
        <ele>-9.8</ele>
      </trkpt>
      <trkpt lat="47.76965" lon="-3.52032">
        <ele>-9</ele>
      </trkpt>
      <trkpt lat="47.76961" lon="-3.5202">
        <ele>-5.6</ele>
      </trkpt>
      <trkpt lat="47.76964" lon="-3.51985">
        <ele>-5</ele>
      </trkpt>
      <trkpt lat="47.76969" lon="-3.51958">
        <ele>-5</ele>
      </trkpt>
      <trkpt lat="47.76968" lon="-3.51934">
        <ele>-5</ele>
      </trkpt>
      <trkpt lat="47.76969" lon="-3.51916">
        <ele>-4.6</ele>
      </trkpt>
      <trkpt lat="47.76962" lon="-3.51878">
        <ele>-1.8</ele>
      </trkpt>
      <trkpt lat="47.76965" lon="-3.51838">
        <ele>-1</ele>
      </trkpt>
      <trkpt lat="47.76981" lon="-3.51756">
        <ele>1.2</ele>
      </trkpt>
      <trkpt lat="47.76981" lon="-3.51748">
        <ele>1.6</ele>
      </trkpt>
      <trkpt lat="47.76979" lon="-3.51746">
        <ele>2</ele>
      </trkpt>
      <trkpt lat="47.76908" lon="-3.51749">
        <ele>5.4</ele>
      </trkpt>
      <trkpt lat="47.76889" lon="-3.51777">
        <ele>5.4</ele>
      </trkpt>
      <trkpt lat="47.7688" lon="-3.51796">
        <ele>5.4</ele>
      </trkpt>
      <trkpt lat="47.76869" lon="-3.51796">
        <ele>5.4</ele>
      </trkpt>
      <trkpt lat="47.76839" lon="-3.51695">
        <ele>3.2</ele>
      </trkpt>
      <trkpt lat="47.76829" lon="-3.51681">
        <ele>3.2</ele>
      </trkpt>
      <trkpt lat="47.7682" lon="-3.51685">
        <ele>3.2</ele>
      </trkpt>
      <trkpt lat="47.76658" lon="-3.51648">
        <ele>2.4</ele>
      </trkpt>
      <trkpt lat="47.76627" lon="-3.51643">
        <ele>1.2</ele>
      </trkpt>
      <trkpt lat="47.76485" lon="-3.51638">
        <ele>1.2</ele>
      </trkpt>
      <trkpt lat="47.76458" lon="-3.51635">
        <ele>1.2</ele>
      </trkpt>
      <trkpt lat="47.76445" lon="-3.51626">
        <ele>1.2</ele>
      </trkpt>
      <trkpt lat="47.76329" lon="-3.51625">
        <ele>1.6</ele>
      </trkpt>
      <trkpt lat="47.76316" lon="-3.51628">
        <ele>3.2</ele>
      </trkpt>
      <trkpt lat="47.76302" lon="-3.51642">
        <ele>3.2</ele>
      </trkpt>
      <trkpt lat="47.76293" lon="-3.51671">
        <ele>3.4</ele>
      </trkpt>
      <trkpt lat="47.76278" lon="-3.51732">
        <ele>5.4</ele>
      </trkpt>
      <trkpt lat="47.76258" lon="-3.51753">
        <ele>5.4</ele>
      </trkpt>
      <trkpt lat="47.76174" lon="-3.51799">
        <ele>5.4</ele>
      </trkpt>
      <trkpt lat="47.76164" lon="-3.51809">
        <ele>5.4</ele>
      </trkpt>
      <trkpt lat="47.76156" lon="-3.51809">
        <ele>5.4</ele>
      </trkpt>
      <trkpt lat="47.76138" lon="-3.51815">
        <ele>4.4</ele>
      </trkpt>
      <trkpt lat="47.76127" lon="-3.51816">
        <ele>3.2</ele>
      </trkpt>
      <trkpt lat="47.76109" lon="-3.5181">
        <ele>3.2</ele>
      </trkpt>
      <trkpt lat="47.76088" lon="-3.51727">
        <ele>3.2</ele>
      </trkpt>
      <trkpt lat="47.76081" lon="-3.51665">
        <ele>3.2</ele>
      </trkpt>
      <trkpt lat="47.76078" lon="-3.51656">
        <ele>3.2</ele>
      </trkpt>
      <trkpt lat="47.76075" lon="-3.51655">
        <ele>3.2</ele>
      </trkpt>
      <trkpt lat="47.76051" lon="-3.51632">
        <ele>2.6</ele>
      </trkpt>
      <trkpt lat="47.76038" lon="-3.51622">
        <ele>1.6</ele>
      </trkpt>
      <trkpt lat="47.76021" lon="-3.51596">
        <ele>0.2</ele>
      </trkpt>
      <trkpt lat="47.75999" lon="-3.51579">
        <ele>-1.4</ele>
      </trkpt>
      <trkpt lat="47.75987" lon="-3.51576">
        <ele>-1.4</ele>
      </trkpt>
      <trkpt lat="47.75971" lon="-3.51579">
        <ele>-2.4</ele>
      </trkpt>
      <trkpt lat="47.75966" lon="-3.51578">
        <ele>-2.6</ele>
      </trkpt>
      <trkpt lat="47.75944" lon="-3.51582">
        <ele>-3.6</ele>
      </trkpt>
      <trkpt lat="47.75809" lon="-3.51587">
        <ele>-3.6</ele>
      </trkpt>
      <trkpt lat="47.75799" lon="-3.51585">
        <ele>-3.6</ele>
      </trkpt>
      <trkpt lat="47.75766" lon="-3.51569">
        <ele>-4.2</ele>
      </trkpt>
      <trkpt lat="47.75734" lon="-3.51537">
        <ele>-7.6</ele>
      </trkpt>
      <trkpt lat="47.75721" lon="-3.5152">
        <ele>-9.8</ele>
      </trkpt>
      <trkpt lat="47.75697" lon="-3.51517">
        <ele>-13</ele>
      </trkpt>
      <trkpt lat="47.75693" lon="-3.51512">
        <ele>-13.4</ele>
      </trkpt>
      <trkpt lat="47.75694" lon="-3.51492">
        <ele>-14.8</ele>
      </trkpt>
      <trkpt lat="47.75678" lon="-3.51452">
        <ele>-14.8</ele>
      </trkpt>
      <trkpt lat="47.75665" lon="-3.51438">
        <ele>-14.8</ele>
      </trkpt>
      <trkpt lat="47.75656" lon="-3.51432">
        <ele>-13.4</ele>
      </trkpt>
      <trkpt lat="47.75638" lon="-3.51429">
        <ele>-12.4</ele>
      </trkpt>
      <trkpt lat="47.75631" lon="-3.51421">
        <ele>-12.4</ele>
      </trkpt>
      <trkpt lat="47.75616" lon="-3.51374">
        <ele>-12.4</ele>
      </trkpt>
      <trkpt lat="47.75609" lon="-3.51338">
        <ele>-12.4</ele>
      </trkpt>
      <trkpt lat="47.75609" lon="-3.51302">
        <ele>-12.4</ele>
      </trkpt>
      <trkpt lat="47.75606" lon="-3.51275">
        <ele>-13</ele>
      </trkpt>
      <trkpt lat="47.75601" lon="-3.51246">
        <ele>-14.2</ele>
      </trkpt>
      <trkpt lat="47.75594" lon="-3.51226">
        <ele>-15</ele>
      </trkpt>
      <trkpt lat="47.75578" lon="-3.51194">
        <ele>-15.2</ele>
      </trkpt>
      <trkpt lat="47.75577" lon="-3.51185">
        <ele>-15.8</ele>
      </trkpt>
      <trkpt lat="47.75582" lon="-3.51169">
        <ele>-16.799999</ele>
      </trkpt>
      <trkpt lat="47.75612" lon="-3.5114">
        <ele>-18.799999</ele>
      </trkpt>
      <trkpt lat="47.75639" lon="-3.5111">
        <ele>-19</ele>
      </trkpt>
      <trkpt lat="47.75673" lon="-3.51055">
        <ele>-19</ele>
      </trkpt>
      <trkpt lat="47.75691" lon="-3.50987">
        <ele>-17.799999</ele>
      </trkpt>
      <trkpt lat="47.75691" lon="-3.5098">
        <ele>-16.8</ele>
      </trkpt>
      <trkpt lat="47.75695" lon="-3.50969">
        <ele>-16.799999</ele>
      </trkpt>
      <trkpt lat="47.75688" lon="-3.50958">
        <ele>-16.799999</ele>
      </trkpt>
      <trkpt lat="47.75559" lon="-3.50924">
        <ele>-14.8</ele>
      </trkpt>
      <trkpt lat="47.75531" lon="-3.50912">
        <ele>-14.8</ele>
      </trkpt>
      <trkpt lat="47.75516" lon="-3.50902">
        <ele>-14.8</ele>
      </trkpt>
      <trkpt lat="47.75501" lon="-3.50913">
        <ele>-14.8</ele>
      </trkpt>
      <trkpt lat="47.75507" lon="-3.50918">
        <ele>-14.8</ele>
      </trkpt>
      <trkpt lat="47.75505" lon="-3.50917">
        <ele>-14.8</ele>
      </trkpt>
      <trkpt lat="47.75506" lon="-3.50916">
        <ele>-14.8</ele>
      </trkpt>
      <trkpt lat="47.75504" lon="-3.50916">
        <ele>-14.8</ele>
      </trkpt>
      <trkpt lat="47.75505" lon="-3.50914">
        <ele>-14.8</ele>
      </trkpt>
      <trkpt lat="47.75505" lon="-3.50916">
        <ele>-14.8</ele>
      </trkpt>
      <trkpt lat="47.75505" lon="-3.50914">
        <ele>-14.8</ele>
      </trkpt>
      <trkpt lat="47.75506" lon="-3.50915">
        <ele>-14.8</ele>
      </trkpt>
      <trkpt lat="47.75502" lon="-3.50913">
        <ele>-14.8</ele>
      </trkpt>
      <trkpt lat="47.75503" lon="-3.50917">
        <ele>-14.8</ele>
      </trkpt>
      <trkpt lat="47.75504" lon="-3.50916">
        <ele>-14.8</ele>
      </trkpt>
      <trkpt lat="47.75501" lon="-3.50914">
        <ele>-14.8</ele>
      </trkpt>
      <trkpt lat="47.75497" lon="-3.50903">
        <ele>-14.8</ele>
      </trkpt>
      <trkpt lat="47.75491" lon="-3.509">
        <ele>-14.8</ele>
      </trkpt>
      <trkpt lat="47.75438" lon="-3.50825">
        <ele>-16.4</ele>
      </trkpt>
      <trkpt lat="47.75395" lon="-3.50797">
        <ele>-16.8</ele>
      </trkpt>
      <trkpt lat="47.7532" lon="-3.50771">
        <ele>-18.799999</ele>
      </trkpt>
      <trkpt lat="47.75292" lon="-3.50774">
        <ele>-18.8</ele>
      </trkpt>
      <trkpt lat="47.75268" lon="-3.50768">
        <ele>-16.799999</ele>
      </trkpt>
      <trkpt lat="47.75256" lon="-3.50755">
        <ele>-15.8</ele>
      </trkpt>
      <trkpt lat="47.75239" lon="-3.50745">
        <ele>-14.2</ele>
      </trkpt>
      <trkpt lat="47.75228" lon="-3.50743">
        <ele>-12.2</ele>
      </trkpt>
      <trkpt lat="47.75177" lon="-3.50717">
        <ele>-10</ele>
      </trkpt>
      <trkpt lat="47.7515" lon="-3.5073">
        <ele>-7.6</ele>
      </trkpt>
      <trkpt lat="47.7512" lon="-3.50738">
        <ele>-5</ele>
      </trkpt>
      <trkpt lat="47.75092" lon="-3.50725">
        <ele>-3.8</ele>
      </trkpt>
      <trkpt lat="47.75081" lon="-3.50723">
        <ele>-2.6</ele>
      </trkpt>
      <trkpt lat="47.75077" lon="-3.5072">
        <ele>-1.8</ele>
      </trkpt>
      <trkpt lat="47.75074" lon="-3.50705">
        <ele>-1.8</ele>
      </trkpt>
      <trkpt lat="47.75073" lon="-3.50677">
        <ele>-1.8</ele>
      </trkpt>
      <trkpt lat="47.75067" lon="-3.50642">
        <ele>22.6</ele>
      </trkpt>
      <trkpt lat="47.75048" lon="-3.50569">
        <ele>0.4</ele>
      </trkpt>
      <trkpt lat="47.7504" lon="-3.50562">
        <ele>0.4</ele>
      </trkpt>
      <trkpt lat="47.75026" lon="-3.50572">
        <ele>0.4</ele>
      </trkpt>
      <trkpt lat="47.75022" lon="-3.50572">
        <ele>0.4</ele>
      </trkpt>
      <trkpt lat="47.74996" lon="-3.50548">
        <ele>0.4</ele>
      </trkpt>
      <trkpt lat="47.74983" lon="-3.50532">
        <ele>0.4</ele>
      </trkpt>
      <trkpt lat="47.74957" lon="-3.50485">
        <ele>0.4</ele>
      </trkpt>
      <trkpt lat="47.74931" lon="-3.50431">
        <ele>0.4</ele>
      </trkpt>
      <trkpt lat="47.7492" lon="-3.50401">
        <ele>0.4</ele>
      </trkpt>
      <trkpt lat="47.74915" lon="-3.50375">
        <ele>0.4</ele>
      </trkpt>
      <trkpt lat="47.74913" lon="-3.50328">
        <ele>18.7</ele>
      </trkpt>
      <trkpt lat="47.74913" lon="-3.503">
        <ele>-1.4</ele>
      </trkpt>
      <trkpt lat="47.7491" lon="-3.50225">
        <ele>-2.6</ele>
      </trkpt>
      <trkpt lat="47.74905" lon="-3.50216">
        <ele>-3.6</ele>
      </trkpt>
      <trkpt lat="47.74892" lon="-3.50199">
        <ele>-4</ele>
      </trkpt>
      <trkpt lat="47.74855" lon="-3.502">
        <ele>-5</ele>
      </trkpt>
      <trkpt lat="47.74838" lon="-3.50209">
        <ele>-6.2</ele>
      </trkpt>
      <trkpt lat="47.74802" lon="-3.50207">
        <ele>-6.2</ele>
      </trkpt>
      <trkpt lat="47.74801" lon="-3.50197">
        <ele>-7.6</ele>
      </trkpt>
      <trkpt lat="47.7479" lon="-3.50192">
        <ele>-8.4</ele>
      </trkpt>
      <trkpt lat="47.74784" lon="-3.50184">
        <ele>-8.4</ele>
      </trkpt>
      <trkpt lat="47.74785" lon="-3.50178">
        <ele>-8.4</ele>
      </trkpt>
      <trkpt lat="47.74798" lon="-3.50157">
        <ele>-8.4</ele>
      </trkpt>
      <trkpt lat="47.74805" lon="-3.50121">
        <ele>-8.4</ele>
      </trkpt>
      <trkpt lat="47.74804" lon="-3.50089">
        <ele>-8.4</ele>
      </trkpt>
      <trkpt lat="47.74795" lon="-3.50061">
        <ele>-8.4</ele>
      </trkpt>
      <trkpt lat="47.74791" lon="-3.50024">
        <ele>-8.4</ele>
      </trkpt>
      <trkpt lat="47.74784" lon="-3.50006">
        <ele>-7.2</ele>
      </trkpt>
      <trkpt lat="47.7473" lon="-3.49961">
        <ele>-7</ele>
      </trkpt>
      <trkpt lat="47.74701" lon="-3.49947">
        <ele>-9.2</ele>
      </trkpt>
      <trkpt lat="47.74677" lon="-3.4994">
        <ele>-10.4</ele>
      </trkpt>
      <trkpt lat="47.74674" lon="-3.49941">
        <ele>-11</ele>
      </trkpt>
      <trkpt lat="47.74669" lon="-3.49963">
        <ele>-13</ele>
      </trkpt>
      <trkpt lat="47.74651" lon="-3.50003">
        <ele>-13</ele>
      </trkpt>
      <trkpt lat="47.74558" lon="-3.50165">
        <ele>-11</ele>
      </trkpt>
      <trkpt lat="47.74549" lon="-3.50173">
        <ele>-11</ele>
      </trkpt>
      <trkpt lat="47.74485" lon="-3.50209">
        <ele>-13</ele>
      </trkpt>
      <trkpt lat="47.74456" lon="-3.50218">
        <ele>-15</ele>
      </trkpt>
      <trkpt lat="47.74414" lon="-3.50219">
        <ele>-15</ele>
      </trkpt>
      <trkpt lat="47.74378" lon="-3.50226">
        <ele>-15</ele>
      </trkpt>
      <trkpt lat="47.74353" lon="-3.50223">
        <ele>-15</ele>
      </trkpt>
      <trkpt lat="47.7434" lon="-3.50233">
        <ele>-15</ele>
      </trkpt>
      <trkpt lat="47.74332" lon="-3.50243">
        <ele>-15</ele>
      </trkpt>
      <trkpt lat="47.74308" lon="-3.50263">
        <ele>-15</ele>
      </trkpt>
      <trkpt lat="47.74301" lon="-3.50264">
        <ele>-15</ele>
      </trkpt>
      <trkpt lat="47.74283" lon="-3.50259">
        <ele>-15</ele>
      </trkpt>
      <trkpt lat="47.74276" lon="-3.50261">
        <ele>-15</ele>
      </trkpt>
      <trkpt lat="47.7427" lon="-3.50288">
        <ele>-15</ele>
      </trkpt>
      <trkpt lat="47.7426" lon="-3.50294">
        <ele>-15</ele>
      </trkpt>
      <trkpt lat="47.74234" lon="-3.50285">
        <ele>-15</ele>
      </trkpt>
      <trkpt lat="47.74217" lon="-3.50275">
        <ele>-15</ele>
      </trkpt>
      <trkpt lat="47.74209" lon="-3.50277">
        <ele>-15</ele>
      </trkpt>
      <trkpt lat="47.74182" lon="-3.50264">
        <ele>-15</ele>
      </trkpt>
      <trkpt lat="47.74164" lon="-3.50263">
        <ele>-15</ele>
      </trkpt>
      <trkpt lat="47.74151" lon="-3.50259">
        <ele>-16</ele>
      </trkpt>
      <trkpt lat="47.74115" lon="-3.5026">
        <ele>-15.8</ele>
      </trkpt>
      <trkpt lat="47.74086" lon="-3.50239">
        <ele>-14.8</ele>
      </trkpt>
      <trkpt lat="47.74075" lon="-3.50221">
        <ele>-14.8</ele>
      </trkpt>
      <trkpt lat="47.74063" lon="-3.50209">
        <ele>-16</ele>
      </trkpt>
      <trkpt lat="47.7406" lon="-3.502">
        <ele>-16.8</ele>
      </trkpt>
      <trkpt lat="47.74061" lon="-3.50186">
        <ele>-16.799999</ele>
      </trkpt>
      <trkpt lat="47.74077" lon="-3.50188">
        <ele>-16.799999</ele>
      </trkpt>
      <trkpt lat="47.74084" lon="-3.50176">
        <ele>-16.799999</ele>
      </trkpt>
      <trkpt lat="47.74128" lon="-3.50151">
        <ele>-16.799999</ele>
      </trkpt>
      <trkpt lat="47.74142" lon="-3.50141">
        <ele>-16.799999</ele>
      </trkpt>
      <trkpt lat="47.7415" lon="-3.50131">
        <ele>-16.799999</ele>
      </trkpt>
      <trkpt lat="47.74164" lon="-3.50096">
        <ele>-16.799999</ele>
      </trkpt>
      <trkpt lat="47.74232" lon="-3.49899">
        <ele>-16.799999</ele>
      </trkpt>
      <trkpt lat="47.74257" lon="-3.49832">
        <ele>-16.799999</ele>
      </trkpt>
      <trkpt lat="47.74323" lon="-3.49691">
        <ele>-16.799999</ele>
      </trkpt>
      <trkpt lat="47.74346" lon="-3.4963">
        <ele>-16.8</ele>
      </trkpt>
      <trkpt lat="47.74385" lon="-3.4949">
        <ele>-16.799999</ele>
      </trkpt>
      <trkpt lat="47.74395" lon="-3.49459">
        <ele>-16.799999</ele>
      </trkpt>
      <trkpt lat="47.74403" lon="-3.49445">
        <ele>-16.799999</ele>
      </trkpt>
      <trkpt lat="47.74423" lon="-3.49424">
        <ele>-16.799999</ele>
      </trkpt>
      <trkpt lat="47.74493" lon="-3.4937">
        <ele>-14.8</ele>
      </trkpt>
      <trkpt lat="47.74502" lon="-3.49351">
        <ele>-14.8</ele>
      </trkpt>
      <trkpt lat="47.74552" lon="-3.49107">
        <ele>-6.2</ele>
      </trkpt>
      <trkpt lat="47.74555" lon="-3.49098">
        <ele>-6.2</ele>
      </trkpt>
      <trkpt lat="47.74561" lon="-3.49065">
        <ele>-4</ele>
      </trkpt>
      <trkpt lat="47.74563" lon="-3.49032">
        <ele>-3.4</ele>
      </trkpt>
      <trkpt lat="47.74559" lon="-3.49025">
        <ele>-2.6</ele>
      </trkpt>
      <trkpt lat="47.74537" lon="-3.4902">
        <ele>-2</ele>
      </trkpt>
      <trkpt lat="47.7451" lon="-3.4901">
        <ele>-2.8</ele>
      </trkpt>
      <trkpt lat="47.74501" lon="-3.49009">
        <ele>-4</ele>
      </trkpt>
      <trkpt lat="47.74483" lon="-3.49015">
        <ele>-7</ele>
      </trkpt>
      <trkpt lat="47.74466" lon="-3.4901">
        <ele>-9.8</ele>
      </trkpt>
      <trkpt lat="47.74462" lon="-3.49005">
        <ele>-10.8</ele>
      </trkpt>
      <trkpt lat="47.74454" lon="-3.48983">
        <ele>-15</ele>
      </trkpt>
      <trkpt lat="47.74435" lon="-3.48951">
        <ele>-15.2</ele>
      </trkpt>
      <trkpt lat="47.74387" lon="-3.4892">
        <ele>-17</ele>
      </trkpt>
      <trkpt lat="47.74376" lon="-3.48909">
        <ele>-17</ele>
      </trkpt>
      <trkpt lat="47.74373" lon="-3.48893">
        <ele>-17</ele>
      </trkpt>
      <trkpt lat="47.74384" lon="-3.48838">
        <ele>-15</ele>
      </trkpt>
      <trkpt lat="47.74378" lon="-3.48838">
        <ele>-14</ele>
      </trkpt>
      <trkpt lat="47.74372" lon="-3.48824">
        <ele>-12.2</ele>
      </trkpt>
      <trkpt lat="47.74364" lon="-3.48826">
        <ele>-10.8</ele>
      </trkpt>
      <trkpt lat="47.74361" lon="-3.48822">
        <ele>-10.8</ele>
      </trkpt>
      <trkpt lat="47.74355" lon="-3.48822">
        <ele>-9</ele>
      </trkpt>
      <trkpt lat="47.74346" lon="-3.48816">
        <ele>-8.4</ele>
      </trkpt>
      <trkpt lat="47.74343" lon="-3.48803">
        <ele>-8.4</ele>
      </trkpt>
      <trkpt lat="47.74347" lon="-3.48796">
        <ele>-7.2</ele>
      </trkpt>
      <trkpt lat="47.74351" lon="-3.4877">
        <ele>-6.6</ele>
      </trkpt>
      <trkpt lat="47.74355" lon="-3.48764">
        <ele>-7.2</ele>
      </trkpt>
      <trkpt lat="47.74361" lon="-3.48763">
        <ele>-8.2</ele>
      </trkpt>
      <trkpt lat="47.7438" lon="-3.48771">
        <ele>-10.8</ele>
      </trkpt>
      <trkpt lat="47.74403" lon="-3.48758">
        <ele>-12.8</ele>
      </trkpt>
      <trkpt lat="47.7444" lon="-3.48744">
        <ele>-15</ele>
      </trkpt>
      <trkpt lat="47.7446" lon="-3.48731">
        <ele>-15</ele>
      </trkpt>
      <trkpt lat="47.74469" lon="-3.48722">
        <ele>-15</ele>
      </trkpt>
      <trkpt lat="47.74531" lon="-3.48688">
        <ele>-15</ele>
      </trkpt>
      <trkpt lat="47.74531" lon="-3.48694">
        <ele>-15</ele>
      </trkpt>
      <trkpt lat="47.74543" lon="-3.48728">
        <ele>-10.8</ele>
      </trkpt>
      <trkpt lat="47.74547" lon="-3.48755">
        <ele>-6.2</ele>
      </trkpt>
      <trkpt lat="47.74553" lon="-3.48775">
        <ele>-2.4</ele>
      </trkpt>
      <trkpt lat="47.74556" lon="-3.48778">
        <ele>-2.4</ele>
      </trkpt>
      <trkpt lat="47.74595" lon="-3.48776">
        <ele>0.4</ele>
      </trkpt>
      <trkpt lat="47.74609" lon="-3.48777">
        <ele>2</ele>
      </trkpt>
      <trkpt lat="47.74635" lon="-3.48795">
        <ele>5.4</ele>
      </trkpt>
      <trkpt lat="47.74658" lon="-3.48801">
        <ele>6.4</ele>
      </trkpt>
      <trkpt lat="47.74667" lon="-3.48808">
        <ele>6.4</ele>
      </trkpt>
      <trkpt lat="47.74673" lon="-3.48826">
        <ele>6.4</ele>
      </trkpt>
      <trkpt lat="47.74692" lon="-3.48915">
        <ele>6.4</ele>
      </trkpt>
      <trkpt lat="47.74703" lon="-3.48946">
        <ele>6.4</ele>
      </trkpt>
      <trkpt lat="47.74713" lon="-3.48948">
        <ele>6.4</ele>
      </trkpt>
      <trkpt lat="47.74731" lon="-3.48941">
        <ele>6.4</ele>
      </trkpt>
      <trkpt lat="47.74879" lon="-3.48906">
        <ele>7</ele>
      </trkpt>
      <trkpt lat="47.74896" lon="-3.48905">
        <ele>6</ele>
      </trkpt>
      <trkpt lat="47.75017" lon="-3.48979">
        <ele>8.2</ele>
      </trkpt>
      <trkpt lat="47.75035" lon="-3.48992">
        <ele>8.2</ele>
      </trkpt>
      <trkpt lat="47.75042" lon="-3.49005">
        <ele>8.8</ele>
      </trkpt>
      <trkpt lat="47.75074" lon="-3.49167">
        <ele>10.2</ele>
      </trkpt>
      <trkpt lat="47.7508" lon="-3.49209">
        <ele>10.2</ele>
      </trkpt>
      <trkpt lat="47.75083" lon="-3.49215">
        <ele>10.2</ele>
      </trkpt>
      <trkpt lat="47.75096" lon="-3.49224">
        <ele>10.2</ele>
      </trkpt>
      <trkpt lat="47.75128" lon="-3.49238">
        <ele>10.2</ele>
      </trkpt>
      <trkpt lat="47.75153" lon="-3.49246">
        <ele>8.8</ele>
      </trkpt>
      <trkpt lat="47.75193" lon="-3.49264">
        <ele>7</ele>
      </trkpt>
      <trkpt lat="47.75208" lon="-3.49268">
        <ele>6</ele>
      </trkpt>
      <trkpt lat="47.75238" lon="-3.49268">
        <ele>5</ele>
      </trkpt>
      <trkpt lat="47.75406" lon="-3.49253">
        <ele>-1.4</ele>
      </trkpt>
      <trkpt lat="47.75413" lon="-3.49255">
        <ele>-1.8</ele>
      </trkpt>
      <trkpt lat="47.75526" lon="-3.49319">
        <ele>-4.6</ele>
      </trkpt>
      <trkpt lat="47.75534" lon="-3.49329">
        <ele>-4.6</ele>
      </trkpt>
      <trkpt lat="47.75538" lon="-3.49351">
        <ele>-4.6</ele>
      </trkpt>
      <trkpt lat="47.75537" lon="-3.49367">
        <ele>-4.6</ele>
      </trkpt>
      <trkpt lat="47.75537" lon="-3.49536">
        <ele>-4.6</ele>
      </trkpt>
      <trkpt lat="47.75538" lon="-3.49558">
        <ele>-4.6</ele>
      </trkpt>
      <trkpt lat="47.75565" lon="-3.49725">
        <ele>-1</ele>
      </trkpt>
      <trkpt lat="47.75574" lon="-3.4976">
        <ele>-0.4</ele>
      </trkpt>
      <trkpt lat="47.75572" lon="-3.49814">
        <ele>1.6</ele>
      </trkpt>
      <trkpt lat="47.75574" lon="-3.49835">
        <ele>1.6</ele>
      </trkpt>
      <trkpt lat="47.75588" lon="-3.49866">
        <ele>4</ele>
      </trkpt>
      <trkpt lat="47.75588" lon="-3.49879">
        <ele>4</ele>
      </trkpt>
      <trkpt lat="47.75577" lon="-3.49909">
        <ele>4</ele>
      </trkpt>
      <trkpt lat="47.75579" lon="-3.50024">
        <ele>4</ele>
      </trkpt>
      <trkpt lat="47.75576" lon="-3.5004">
        <ele>4</ele>
      </trkpt>
      <trkpt lat="47.75561" lon="-3.50073">
        <ele>4</ele>
      </trkpt>
      <trkpt lat="47.75561" lon="-3.50078">
        <ele>4</ele>
      </trkpt>
      <trkpt lat="47.75632" lon="-3.50164">
        <ele>-0.8</ele>
      </trkpt>
      <trkpt lat="47.75641" lon="-3.50179">
        <ele>-1.8</ele>
      </trkpt>
      <trkpt lat="47.75795" lon="-3.50515">
        <ele>-10</ele>
      </trkpt>
      <trkpt lat="47.75802" lon="-3.50516">
        <ele>-11</ele>
      </trkpt>
      <trkpt lat="47.75819" lon="-3.50496">
        <ele>-14</ele>
      </trkpt>
      <trkpt lat="47.75825" lon="-3.50492">
        <ele>-14</ele>
      </trkpt>
      <trkpt lat="47.75832" lon="-3.50503">
        <ele>-14.4</ele>
      </trkpt>
      <trkpt lat="47.75879" lon="-3.50452">
        <ele>-16.8</ele>
      </trkpt>
      <trkpt lat="47.75893" lon="-3.50421">
        <ele>-16.799999</ele>
      </trkpt>
      <trkpt lat="47.75903" lon="-3.50389">
        <ele>-16.799999</ele>
      </trkpt>
      <trkpt lat="47.75916" lon="-3.50315">
        <ele>-16.799999</ele>
      </trkpt>
      <trkpt lat="47.7592" lon="-3.50301">
        <ele>-17</ele>
      </trkpt>
      <trkpt lat="47.75922" lon="-3.50285">
        <ele>-17.799999</ele>
      </trkpt>
      <trkpt lat="47.75914" lon="-3.50252">
        <ele>-18.8</ele>
      </trkpt>
      <trkpt lat="47.75912" lon="-3.50229">
        <ele>-18.8</ele>
      </trkpt>
      <trkpt lat="47.75912" lon="-3.50215">
        <ele>-18.8</ele>
      </trkpt>
      <trkpt lat="47.75923" lon="-3.50183">
        <ele>-18.8</ele>
      </trkpt>
      <trkpt lat="47.75919" lon="-3.50156">
        <ele>-18.8</ele>
      </trkpt>
      <trkpt lat="47.75924" lon="-3.50152">
        <ele>-18.8</ele>
      </trkpt>
      <trkpt lat="47.75944" lon="-3.50121">
        <ele>-18.799999</ele>
      </trkpt>
      <trkpt lat="47.76005" lon="-3.50038">
        <ele>-14.4</ele>
      </trkpt>
      <trkpt lat="47.76049" lon="-3.49986">
        <ele>-15.8</ele>
      </trkpt>
      <trkpt lat="47.76054" lon="-3.49975">
        <ele>-16.4</ele>
      </trkpt>
      <trkpt lat="47.76055" lon="-3.49964">
        <ele>-16.4</ele>
      </trkpt>
      <trkpt lat="47.76049" lon="-3.49858">
        <ele>-10.4</ele>
      </trkpt>
      <trkpt lat="47.76049" lon="-3.49791">
        <ele>-6.2</ele>
      </trkpt>
      <trkpt lat="47.76057" lon="-3.49736">
        <ele>-2</ele>
      </trkpt>
      <trkpt lat="47.76062" lon="-3.49725">
        <ele>-2</ele>
      </trkpt>
      <trkpt lat="47.76073" lon="-3.49681">
        <ele>0.6</ele>
      </trkpt>
      <trkpt lat="47.76071" lon="-3.49676">
        <ele>1.2</ele>
      </trkpt>
      <trkpt lat="47.76093" lon="-3.49576">
        <ele>6.4</ele>
      </trkpt>
      <trkpt lat="47.76097" lon="-3.49571">
        <ele>6.4</ele>
      </trkpt>
      <trkpt lat="47.76116" lon="-3.49577">
        <ele>6.4</ele>
      </trkpt>
      <trkpt lat="47.76138" lon="-3.49579">
        <ele>6.4</ele>
      </trkpt>
      <trkpt lat="47.76142" lon="-3.49576">
        <ele>6.4</ele>
      </trkpt>
      <trkpt lat="47.76153" lon="-3.49551">
        <ele>6.4</ele>
      </trkpt>
      <trkpt lat="47.76191" lon="-3.4945">
        <ele>4.4</ele>
      </trkpt>
      <trkpt lat="47.76198" lon="-3.49441">
        <ele>4.4</ele>
      </trkpt>
      <trkpt lat="47.76203" lon="-3.49442">
        <ele>4.4</ele>
      </trkpt>
      <trkpt lat="47.76259" lon="-3.49487">
        <ele>1.2</ele>
      </trkpt>
      <trkpt lat="47.76281" lon="-3.495">
        <ele>-0.6</ele>
      </trkpt>
      <trkpt lat="47.76327" lon="-3.49536">
        <ele>-4.2</ele>
      </trkpt>
      <trkpt lat="47.76345" lon="-3.49555">
        <ele>-6</ele>
      </trkpt>
      <trkpt lat="47.76374" lon="-3.49575">
        <ele>-10.8</ele>
      </trkpt>
      <trkpt lat="47.76379" lon="-3.49573">
        <ele>-12.4</ele>
      </trkpt>
      <trkpt lat="47.76377" lon="-3.49546">
        <ele>-16</ele>
      </trkpt>
      <trkpt lat="47.76386" lon="-3.49486">
        <ele>-16</ele>
      </trkpt>
      <trkpt lat="47.76393" lon="-3.49452">
        <ele>-16</ele>
      </trkpt>
      <trkpt lat="47.76406" lon="-3.49443">
        <ele>-16</ele>
      </trkpt>
      <trkpt lat="47.76416" lon="-3.49418">
        <ele>-16</ele>
      </trkpt>
      <trkpt lat="47.76418" lon="-3.49359">
        <ele>-16</ele>
      </trkpt>
      <trkpt lat="47.76422" lon="-3.49345">
        <ele>-16</ele>
      </trkpt>
      <trkpt lat="47.76437" lon="-3.49277">
        <ele>-18</ele>
      </trkpt>
      <trkpt lat="47.76439" lon="-3.49255">
        <ele>-18</ele>
      </trkpt>
      <trkpt lat="47.76405" lon="-3.49124">
        <ele>-16</ele>
      </trkpt>
      <trkpt lat="47.76399" lon="-3.49061">
        <ele>-16</ele>
      </trkpt>
      <trkpt lat="47.76403" lon="-3.49044">
        <ele>-15.8</ele>
      </trkpt>
      <trkpt lat="47.76404" lon="-3.48993">
        <ele>-14</ele>
      </trkpt>
      <trkpt lat="47.76397" lon="-3.48901">
        <ele>-14</ele>
      </trkpt>
      <trkpt lat="47.76385" lon="-3.48846">
        <ele>-13</ele>
      </trkpt>
      <trkpt lat="47.76367" lon="-3.48744">
        <ele>-12</ele>
      </trkpt>
      <trkpt lat="47.76369" lon="-3.48733">
        <ele>-12</ele>
      </trkpt>
      <trkpt lat="47.76378" lon="-3.48725">
        <ele>-12</ele>
      </trkpt>
      <trkpt lat="47.76399" lon="-3.48719">
        <ele>-12</ele>
      </trkpt>
      <trkpt lat="47.76426" lon="-3.48707">
        <ele>-12</ele>
      </trkpt>
      <trkpt lat="47.76428" lon="-3.48701">
        <ele>-12</ele>
      </trkpt>
      <trkpt lat="47.76439" lon="-3.48646">
        <ele>-10</ele>
      </trkpt>
      <trkpt lat="47.76457" lon="-3.4858">
        <ele>-7</ele>
      </trkpt>
      <trkpt lat="47.76475" lon="-3.48461">
        <ele>-1.4</ele>
      </trkpt>
      <trkpt lat="47.76496" lon="-3.48354">
        <ele>0.8</ele>
      </trkpt>
      <trkpt lat="47.76505" lon="-3.48323">
        <ele>3</ele>
      </trkpt>
      <trkpt lat="47.76511" lon="-3.48292">
        <ele>3</ele>
      </trkpt>
      <trkpt lat="47.7652" lon="-3.48223">
        <ele>4</ele>
      </trkpt>
      <trkpt lat="47.76524" lon="-3.48162">
        <ele>5</ele>
      </trkpt>
      <trkpt lat="47.76531" lon="-3.4813">
        <ele>5</ele>
      </trkpt>
      <trkpt lat="47.76544" lon="-3.48097">
        <ele>5</ele>
      </trkpt>
      <trkpt lat="47.76569" lon="-3.48018">
        <ele>5</ele>
      </trkpt>
      <trkpt lat="47.76582" lon="-3.47957">
        <ele>7</ele>
      </trkpt>
      <trkpt lat="47.7659" lon="-3.4794">
        <ele>7</ele>
      </trkpt>
      <trkpt lat="47.76628" lon="-3.4794">
        <ele>9</ele>
      </trkpt>
      <trkpt lat="47.76922" lon="-3.47909">
        <ele>17.6</ele>
      </trkpt>
      <trkpt lat="47.76992" lon="-3.47904">
        <ele>20</ele>
      </trkpt>
      <trkpt lat="47.77088" lon="-3.47893">
        <ele>23.6</ele>
      </trkpt>
      <trkpt lat="47.77143" lon="-3.4789">
        <ele>23.6</ele>
      </trkpt>
      <trkpt lat="47.77165" lon="-3.4788">
        <ele>23.6</ele>
      </trkpt>
      <trkpt lat="47.77156" lon="-3.47765">
        <ele>23.6</ele>
      </trkpt>
      <trkpt lat="47.77161" lon="-3.47723">
        <ele>23.6</ele>
      </trkpt>
      <trkpt lat="47.77185" lon="-3.4761">
        <ele>23.200001</ele>
      </trkpt>
      <trkpt lat="47.77184" lon="-3.47603">
        <ele>22.6</ele>
      </trkpt>
      <trkpt lat="47.77187" lon="-3.47601">
        <ele>21.6</ele>
      </trkpt>
      <trkpt lat="47.77188" lon="-3.47609">
        <ele>21.6</ele>
      </trkpt>
      <trkpt lat="47.77186" lon="-3.47617">
        <ele>21.6</ele>
      </trkpt>
      <trkpt lat="47.77188" lon="-3.47625">
        <ele>21.6</ele>
      </trkpt>
      <trkpt lat="47.77198" lon="-3.47631">
        <ele>21.6</ele>
      </trkpt>
      <trkpt lat="47.7725" lon="-3.4764">
        <ele>21</ele>
      </trkpt>
      <trkpt lat="47.77344" lon="-3.47678">
        <ele>9.8</ele>
      </trkpt>
      <trkpt lat="47.77356" lon="-3.47679">
        <ele>7.8</ele>
      </trkpt>
      <trkpt lat="47.77428" lon="-3.47705">
        <ele>-0.4</ele>
      </trkpt>
      <trkpt lat="47.77461" lon="-3.47732">
        <ele>-1</ele>
      </trkpt>
      <trkpt lat="47.7747" lon="-3.47745">
        <ele>0.4</ele>
      </trkpt>
      <trkpt lat="47.77475" lon="-3.47772">
        <ele>2.2</ele>
      </trkpt>
      <trkpt lat="47.77477" lon="-3.47795">
        <ele>3.4</ele>
      </trkpt>
      <trkpt lat="47.77475" lon="-3.47827">
        <ele>3.6</ele>
      </trkpt>
      <trkpt lat="47.77484" lon="-3.47855">
        <ele>5.4</ele>
      </trkpt>
      <trkpt lat="47.77503" lon="-3.47896">
        <ele>7.4</ele>
      </trkpt>
      <trkpt lat="47.77546" lon="-3.47975">
        <ele>11.8</ele>
      </trkpt>
      <trkpt lat="47.77579" lon="-3.48028">
        <ele>16.6</ele>
      </trkpt>
      <trkpt lat="47.77592" lon="-3.48056">
        <ele>19.200001</ele>
      </trkpt>
      <trkpt lat="47.77605" lon="-3.4807">
        <ele>20.200001</ele>
      </trkpt>
      <trkpt lat="47.7763" lon="-3.48085">
        <ele>22.2</ele>
      </trkpt>
      <trkpt lat="47.77705" lon="-3.48154">
        <ele>24.200001</ele>
      </trkpt>
      <trkpt lat="47.77727" lon="-3.48167">
        <ele>24.2</ele>
      </trkpt>
      <trkpt lat="47.7775" lon="-3.48176">
        <ele>24</ele>
      </trkpt>
      <trkpt lat="47.77777" lon="-3.4818">
        <ele>22.200001</ele>
      </trkpt>
      <trkpt lat="47.77879" lon="-3.48185">
        <ele>18</ele>
      </trkpt>
      <trkpt lat="47.77919" lon="-3.48185">
        <ele>18</ele>
      </trkpt>
      <trkpt lat="47.77928" lon="-3.48188">
        <ele>18</ele>
      </trkpt>
      <trkpt lat="47.77966" lon="-3.48222">
        <ele>18</ele>
      </trkpt>
      <trkpt lat="47.77985" lon="-3.48235">
        <ele>18</ele>
      </trkpt>
      <trkpt lat="47.78033" lon="-3.4828">
        <ele>18</ele>
      </trkpt>
      <trkpt lat="47.78055" lon="-3.48295">
        <ele>17.200001</ele>
      </trkpt>
      <trkpt lat="47.78073" lon="-3.48321">
        <ele>15.8</ele>
      </trkpt>
      <trkpt lat="47.78088" lon="-3.48335">
        <ele>15</ele>
      </trkpt>
      <trkpt lat="47.78094" lon="-3.48389">
        <ele>13.6</ele>
      </trkpt>
      <trkpt lat="47.78094" lon="-3.48499">
        <ele>9</ele>
      </trkpt>
      <trkpt lat="47.78097" lon="-3.48504">
        <ele>7.8</ele>
      </trkpt>
      <trkpt lat="47.78149" lon="-3.48497">
        <ele>4</ele>
      </trkpt>
      <trkpt lat="47.78187" lon="-3.48496">
        <ele>4</ele>
      </trkpt>
      <trkpt lat="47.7822" lon="-3.485">
        <ele>4</ele>
      </trkpt>
      <trkpt lat="47.78255" lon="-3.48519">
        <ele>4</ele>
      </trkpt>
      <trkpt lat="47.78264" lon="-3.48526">
        <ele>4</ele>
      </trkpt>
      <trkpt lat="47.78274" lon="-3.48539">
        <ele>4</ele>
      </trkpt>
      <trkpt lat="47.78281" lon="-3.48552">
        <ele>4</ele>
      </trkpt>
      <trkpt lat="47.78284" lon="-3.48552">
        <ele>4</ele>
      </trkpt>
      <trkpt lat="47.78298" lon="-3.48536">
        <ele>4.4</ele>
      </trkpt>
      <trkpt lat="47.78307" lon="-3.4853">
        <ele>6.4</ele>
      </trkpt>
      <trkpt lat="47.78336" lon="-3.48488">
        <ele>8.6</ele>
      </trkpt>
      <trkpt lat="47.78355" lon="-3.48451">
        <ele>8.6</ele>
      </trkpt>
      <trkpt lat="47.78371" lon="-3.48432">
        <ele>8.6</ele>
      </trkpt>
      <trkpt lat="47.78393" lon="-3.48411">
        <ele>8.6</ele>
      </trkpt>
      <trkpt lat="47.78409" lon="-3.48403">
        <ele>9</ele>
      </trkpt>
      <trkpt lat="47.78433" lon="-3.48384">
        <ele>10.6</ele>
      </trkpt>
      <trkpt lat="47.78473" lon="-3.48371">
        <ele>10.6</ele>
      </trkpt>
      <trkpt lat="47.7854" lon="-3.48339">
        <ele>10.6</ele>
      </trkpt>
      <trkpt lat="47.78556" lon="-3.48342">
        <ele>12</ele>
      </trkpt>
      <trkpt lat="47.78585" lon="-3.48334">
        <ele>12.6</ele>
      </trkpt>
      <trkpt lat="47.78616" lon="-3.48332">
        <ele>13</ele>
      </trkpt>
      <trkpt lat="47.78622" lon="-3.48334">
        <ele>14</ele>
      </trkpt>
      <trkpt lat="47.78633" lon="-3.48342">
        <ele>14.8</ele>
      </trkpt>
      <trkpt lat="47.78646" lon="-3.48344">
        <ele>14.8</ele>
      </trkpt>
      <trkpt lat="47.7866" lon="-3.4834">
        <ele>14.8</ele>
      </trkpt>
      <trkpt lat="47.7867" lon="-3.48347">
        <ele>14.8</ele>
      </trkpt>
      <trkpt lat="47.78675" lon="-3.48362">
        <ele>14.8</ele>
      </trkpt>
      <trkpt lat="47.78676" lon="-3.48385">
        <ele>14.8</ele>
      </trkpt>
      <trkpt lat="47.78671" lon="-3.48398">
        <ele>16</ele>
      </trkpt>
      <trkpt lat="47.78663" lon="-3.48425">
        <ele>16.6</ele>
      </trkpt>
      <trkpt lat="47.78657" lon="-3.48476">
        <ele>21.200001</ele>
      </trkpt>
      <trkpt lat="47.78657" lon="-3.48492">
        <ele>21.200001</ele>
      </trkpt>
      <trkpt lat="47.78676" lon="-3.48508">
        <ele>23.200001</ele>
      </trkpt>
      <trkpt lat="47.78688" lon="-3.48532">
        <ele>23.2</ele>
      </trkpt>
      <trkpt lat="47.78704" lon="-3.48556">
        <ele>23.2</ele>
      </trkpt>
      <trkpt lat="47.78717" lon="-3.48568">
        <ele>22</ele>
      </trkpt>
      <trkpt lat="47.78734" lon="-3.48591">
        <ele>19.200001</ele>
      </trkpt>
      <trkpt lat="47.78747" lon="-3.48614">
        <ele>15.2</ele>
      </trkpt>
      <trkpt lat="47.78763" lon="-3.48619">
        <ele>12</ele>
      </trkpt>
      <trkpt lat="47.78773" lon="-3.48626">
        <ele>12</ele>
      </trkpt>
      <trkpt lat="47.78771" lon="-3.48632">
        <ele>12</ele>
      </trkpt>
      <trkpt lat="47.78778" lon="-3.48622">
        <ele>12</ele>
      </trkpt>
      <trkpt lat="47.78801" lon="-3.48632">
        <ele>12.2</ele>
      </trkpt>
      <trkpt lat="47.78815" lon="-3.48635">
        <ele>14</ele>
      </trkpt>
      <trkpt lat="47.78818" lon="-3.48632">
        <ele>14</ele>
      </trkpt>
      <trkpt lat="47.78834" lon="-3.48573">
        <ele>14</ele>
      </trkpt>
      <trkpt lat="47.78834" lon="-3.48562">
        <ele>14</ele>
      </trkpt>
      <trkpt lat="47.78829" lon="-3.48553">
        <ele>14</ele>
      </trkpt>
      <trkpt lat="47.78829" lon="-3.48549">
        <ele>14</ele>
      </trkpt>
      <trkpt lat="47.78833" lon="-3.48549">
        <ele>14</ele>
      </trkpt>
    </trkseg>
  </trk>
  <trk>
    <name><![CDATA[Laïta-Quimperlé]]></name>
    <trkseg>
      <trkpt lat="47.77271" lon="-3.55103">
        <ele>42</ele>
        <time>2019-07-15T09:09:32Z</time>
      </trkpt>
      <trkpt lat="47.77271" lon="-3.55103">
        <ele>42</ele>
        <time>2019-07-15T09:09:33Z</time>
      </trkpt>
      <trkpt lat="47.77271" lon="-3.55103">
        <ele>42</ele>
        <time>2019-07-15T09:09:34Z</time>
      </trkpt>
      <trkpt lat="47.77271" lon="-3.55103">
        <ele>42</ele>
        <time>2019-07-15T09:09:35Z</time>
      </trkpt>
      <trkpt lat="47.77271" lon="-3.55103">
        <ele>42</ele>
        <time>2019-07-15T09:09:36Z</time>
      </trkpt>
      <trkpt lat="47.77271" lon="-3.55103">
        <ele>41</ele>
        <time>2019-07-15T09:09:37Z</time>
      </trkpt>
      <trkpt lat="47.77271" lon="-3.55103">
        <ele>41</ele>
        <time>2019-07-15T09:09:38Z</time>
      </trkpt>
      <trkpt lat="47.77271" lon="-3.55103">
        <ele>41</ele>
        <time>2019-07-15T09:09:39Z</time>
      </trkpt>
      <trkpt lat="47.77271" lon="-3.55103">
        <ele>41</ele>
        <time>2019-07-15T09:09:40Z</time>
      </trkpt>
      <trkpt lat="47.77271" lon="-3.55104">
        <ele>41</ele>
        <time>2019-07-15T09:09:41Z</time>
      </trkpt>
      <trkpt lat="47.77271" lon="-3.55104">
        <ele>41</ele>
        <time>2019-07-15T09:09:42Z</time>
      </trkpt>
      <trkpt lat="47.77271" lon="-3.55104">
        <ele>41</ele>
        <time>2019-07-15T09:09:43Z</time>
      </trkpt>
      <trkpt lat="47.77271" lon="-3.55104">
        <ele>41</ele>
        <time>2019-07-15T09:09:44Z</time>
      </trkpt>
      <trkpt lat="47.77271" lon="-3.55104">
        <ele>41</ele>
        <time>2019-07-15T09:09:45Z</time>
      </trkpt>
      <trkpt lat="47.77271" lon="-3.55104">
        <ele>41</ele>
        <time>2019-07-15T09:09:46Z</time>
      </trkpt>
      <trkpt lat="47.77271" lon="-3.55104">
        <ele>41</ele>
        <time>2019-07-15T09:09:47Z</time>
      </trkpt>
      <trkpt lat="47.77271" lon="-3.55104">
        <ele>41</ele>
        <time>2019-07-15T09:09:48Z</time>
      </trkpt>
      <trkpt lat="47.77271" lon="-3.55104">
        <ele>41</ele>
        <time>2019-07-15T09:09:49Z</time>
      </trkpt>
      <trkpt lat="47.77271" lon="-3.55104">
        <ele>41</ele>
        <time>2019-07-15T09:09:50Z</time>
      </trkpt>
      <trkpt lat="47.77272" lon="-3.55104">
        <ele>41</ele>
        <time>2019-07-15T09:09:51Z</time>
      </trkpt>
      <trkpt lat="47.77273" lon="-3.55104">
        <ele>41</ele>
        <time>2019-07-15T09:09:52Z</time>
      </trkpt>
      <trkpt lat="47.77274" lon="-3.55104">
        <ele>41</ele>
        <time>2019-07-15T09:09:53Z</time>
      </trkpt>
      <trkpt lat="47.77275" lon="-3.55104">
        <ele>41</ele>
        <time>2019-07-15T09:09:54Z</time>
      </trkpt>
      <trkpt lat="47.77276" lon="-3.55104">
        <ele>41</ele>
        <time>2019-07-15T09:09:55Z</time>
      </trkpt>
      <trkpt lat="47.77277" lon="-3.55103">
        <ele>41</ele>
        <time>2019-07-15T09:09:56Z</time>
      </trkpt>
      <trkpt lat="47.77278" lon="-3.55101">
        <ele>40</ele>
        <time>2019-07-15T09:09:57Z</time>
      </trkpt>
      <trkpt lat="47.77279" lon="-3.55099">
        <ele>40</ele>
        <time>2019-07-15T09:09:58Z</time>
      </trkpt>
      <trkpt lat="47.77279" lon="-3.55095">
        <ele>40</ele>
        <time>2019-07-15T09:09:59Z</time>
      </trkpt>
      <trkpt lat="47.77279" lon="-3.55091">
        <ele>40</ele>
        <time>2019-07-15T09:10:00Z</time>
      </trkpt>
      <trkpt lat="47.7728" lon="-3.55088">
        <ele>40</ele>
        <time>2019-07-15T09:10:01Z</time>
      </trkpt>
      <trkpt lat="47.77281" lon="-3.55085">
        <ele>40</ele>
        <time>2019-07-15T09:10:02Z</time>
      </trkpt>
      <trkpt lat="47.77282" lon="-3.55082">
        <ele>40</ele>
        <time>2019-07-15T09:10:03Z</time>
      </trkpt>
      <trkpt lat="47.77284" lon="-3.55081">
        <ele>40</ele>
        <time>2019-07-15T09:10:04Z</time>
      </trkpt>
      <trkpt lat="47.77285" lon="-3.55079">
        <ele>39</ele>
        <time>2019-07-15T09:10:05Z</time>
      </trkpt>
      <trkpt lat="47.77286" lon="-3.55077">
        <ele>39</ele>
        <time>2019-07-15T09:10:06Z</time>
      </trkpt>
      <trkpt lat="47.77287" lon="-3.55075">
        <ele>39</ele>
        <time>2019-07-15T09:10:07Z</time>
      </trkpt>
      <trkpt lat="47.77287" lon="-3.55073">
        <ele>39</ele>
        <time>2019-07-15T09:10:08Z</time>
      </trkpt>
      <trkpt lat="47.77287" lon="-3.5507">
        <ele>38</ele>
        <time>2019-07-15T09:10:09Z</time>
      </trkpt>
      <trkpt lat="47.77287" lon="-3.55068">
        <ele>38</ele>
        <time>2019-07-15T09:10:10Z</time>
      </trkpt>
      <trkpt lat="47.77287" lon="-3.55065">
        <ele>38</ele>
        <time>2019-07-15T09:10:11Z</time>
      </trkpt>
      <trkpt lat="47.77287" lon="-3.55062">
        <ele>38</ele>
        <time>2019-07-15T09:10:12Z</time>
      </trkpt>
      <trkpt lat="47.77287" lon="-3.55058">
        <ele>38</ele>
        <time>2019-07-15T09:10:13Z</time>
      </trkpt>
      <trkpt lat="47.77287" lon="-3.55054">
        <ele>38</ele>
        <time>2019-07-15T09:10:14Z</time>
      </trkpt>
      <trkpt lat="47.77287" lon="-3.55049">
        <ele>38</ele>
        <time>2019-07-15T09:10:15Z</time>
      </trkpt>
      <trkpt lat="47.77287" lon="-3.55044">
        <ele>37</ele>
        <time>2019-07-15T09:10:16Z</time>
      </trkpt>
      <trkpt lat="47.77287" lon="-3.55039">
        <ele>37</ele>
        <time>2019-07-15T09:10:17Z</time>
      </trkpt>
      <trkpt lat="47.77288" lon="-3.55032">
        <ele>37</ele>
        <time>2019-07-15T09:10:18Z</time>
      </trkpt>
      <trkpt lat="47.77289" lon="-3.55026">
        <ele>37</ele>
        <time>2019-07-15T09:10:19Z</time>
      </trkpt>
      <trkpt lat="47.7729" lon="-3.55019">
        <ele>37</ele>
        <time>2019-07-15T09:10:20Z</time>
      </trkpt>
      <trkpt lat="47.77292" lon="-3.55013">
        <ele>37</ele>
        <time>2019-07-15T09:10:21Z</time>
      </trkpt>
      <trkpt lat="47.77293" lon="-3.55007">
        <ele>37</ele>
        <time>2019-07-15T09:10:22Z</time>
      </trkpt>
      <trkpt lat="47.77295" lon="-3.55001">
        <ele>37</ele>
        <time>2019-07-15T09:10:23Z</time>
      </trkpt>
      <trkpt lat="47.77296" lon="-3.54995">
        <ele>37</ele>
        <time>2019-07-15T09:10:24Z</time>
      </trkpt>
      <trkpt lat="47.77298" lon="-3.54989">
        <ele>37</ele>
        <time>2019-07-15T09:10:25Z</time>
      </trkpt>
      <trkpt lat="47.77299" lon="-3.54984">
        <ele>37</ele>
        <time>2019-07-15T09:10:26Z</time>
      </trkpt>
      <trkpt lat="47.773" lon="-3.5498">
        <ele>37</ele>
        <time>2019-07-15T09:10:27Z</time>
      </trkpt>
      <trkpt lat="47.77301" lon="-3.54976">
        <ele>37</ele>
        <time>2019-07-15T09:10:28Z</time>
      </trkpt>
      <trkpt lat="47.77301" lon="-3.54973">
        <ele>37</ele>
        <time>2019-07-15T09:10:29Z</time>
      </trkpt>
      <trkpt lat="47.77302" lon="-3.54969">
        <ele>37</ele>
        <time>2019-07-15T09:10:30Z</time>
      </trkpt>
      <trkpt lat="47.77303" lon="-3.54965">
        <ele>37</ele>
        <time>2019-07-15T09:10:31Z</time>
      </trkpt>
      <trkpt lat="47.77303" lon="-3.54963">
        <ele>37</ele>
        <time>2019-07-15T09:10:32Z</time>
      </trkpt>
      <trkpt lat="47.77305" lon="-3.54961">
        <ele>37</ele>
        <time>2019-07-15T09:10:33Z</time>
      </trkpt>
      <trkpt lat="47.77306" lon="-3.54962">
        <ele>37</ele>
        <time>2019-07-15T09:10:34Z</time>
      </trkpt>
      <trkpt lat="47.77309" lon="-3.54962">
        <ele>37</ele>
        <time>2019-07-15T09:10:35Z</time>
      </trkpt>
      <trkpt lat="47.7731" lon="-3.54963">
        <ele>37</ele>
        <time>2019-07-15T09:10:36Z</time>
      </trkpt>
      <trkpt lat="47.77312" lon="-3.54962">
        <ele>37</ele>
        <time>2019-07-15T09:10:37Z</time>
      </trkpt>
      <trkpt lat="47.77313" lon="-3.54962">
        <ele>36</ele>
        <time>2019-07-15T09:10:38Z</time>
      </trkpt>
      <trkpt lat="47.77314" lon="-3.54962">
        <ele>36</ele>
        <time>2019-07-15T09:10:39Z</time>
      </trkpt>
      <trkpt lat="47.77315" lon="-3.54961">
        <ele>36</ele>
        <time>2019-07-15T09:10:40Z</time>
      </trkpt>
      <trkpt lat="47.77315" lon="-3.54961">
        <ele>36</ele>
        <time>2019-07-15T09:10:41Z</time>
      </trkpt>
      <trkpt lat="47.77316" lon="-3.54961">
        <ele>36</ele>
        <time>2019-07-15T09:10:42Z</time>
      </trkpt>
      <trkpt lat="47.77316" lon="-3.54962">
        <ele>36</ele>
        <time>2019-07-15T09:10:43Z</time>
      </trkpt>
      <trkpt lat="47.77316" lon="-3.54962">
        <ele>35</ele>
        <time>2019-07-15T09:10:44Z</time>
      </trkpt>
      <trkpt lat="47.77317" lon="-3.54959">
        <ele>34</ele>
        <time>2019-07-15T09:10:45Z</time>
      </trkpt>
      <trkpt lat="47.77317" lon="-3.54956">
        <ele>34</ele>
        <time>2019-07-15T09:10:46Z</time>
      </trkpt>
      <trkpt lat="47.77318" lon="-3.54952">
        <ele>34</ele>
        <time>2019-07-15T09:10:47Z</time>
      </trkpt>
      <trkpt lat="47.77319" lon="-3.54949">
        <ele>34</ele>
        <time>2019-07-15T09:10:48Z</time>
      </trkpt>
      <trkpt lat="47.7732" lon="-3.54946">
        <ele>34</ele>
        <time>2019-07-15T09:10:49Z</time>
      </trkpt>
      <trkpt lat="47.77322" lon="-3.54942">
        <ele>34</ele>
        <time>2019-07-15T09:10:50Z</time>
      </trkpt>
      <trkpt lat="47.77323" lon="-3.54938">
        <ele>34</ele>
        <time>2019-07-15T09:10:51Z</time>
      </trkpt>
      <trkpt lat="47.77325" lon="-3.54934">
        <ele>34</ele>
        <time>2019-07-15T09:10:52Z</time>
      </trkpt>
      <trkpt lat="47.77325" lon="-3.5493">
        <ele>34</ele>
        <time>2019-07-15T09:10:53Z</time>
      </trkpt>
      <trkpt lat="47.77325" lon="-3.54926">
        <ele>34</ele>
        <time>2019-07-15T09:10:54Z</time>
      </trkpt>
      <trkpt lat="47.77325" lon="-3.54923">
        <ele>34</ele>
        <time>2019-07-15T09:10:55Z</time>
      </trkpt>
      <trkpt lat="47.77324" lon="-3.54921">
        <ele>34</ele>
        <time>2019-07-15T09:10:56Z</time>
      </trkpt>
      <trkpt lat="47.77323" lon="-3.54918">
        <ele>34</ele>
        <time>2019-07-15T09:10:57Z</time>
      </trkpt>
      <trkpt lat="47.77322" lon="-3.54916">
        <ele>34</ele>
        <time>2019-07-15T09:10:58Z</time>
      </trkpt>
      <trkpt lat="47.77322" lon="-3.54914">
        <ele>34</ele>
        <time>2019-07-15T09:10:59Z</time>
      </trkpt>
      <trkpt lat="47.77322" lon="-3.54911">
        <ele>34</ele>
        <time>2019-07-15T09:11:00Z</time>
      </trkpt>
      <trkpt lat="47.77322" lon="-3.54909">
        <ele>34</ele>
        <time>2019-07-15T09:11:01Z</time>
      </trkpt>
      <trkpt lat="47.77322" lon="-3.54907">
        <ele>34</ele>
        <time>2019-07-15T09:11:02Z</time>
      </trkpt>
      <trkpt lat="47.77323" lon="-3.54904">
        <ele>34</ele>
        <time>2019-07-15T09:11:03Z</time>
      </trkpt>
      <trkpt lat="47.77324" lon="-3.54902">
        <ele>34</ele>
        <time>2019-07-15T09:11:04Z</time>
      </trkpt>
      <trkpt lat="47.77325" lon="-3.549">
        <ele>34</ele>
        <time>2019-07-15T09:11:05Z</time>
      </trkpt>
      <trkpt lat="47.77326" lon="-3.54898">
        <ele>34</ele>
        <time>2019-07-15T09:11:06Z</time>
      </trkpt>
      <trkpt lat="47.77327" lon="-3.54895">
        <ele>34</ele>
        <time>2019-07-15T09:11:07Z</time>
      </trkpt>
      <trkpt lat="47.77328" lon="-3.54892">
        <ele>34</ele>
        <time>2019-07-15T09:11:08Z</time>
      </trkpt>
      <trkpt lat="47.77328" lon="-3.54889">
        <ele>34</ele>
        <time>2019-07-15T09:11:09Z</time>
      </trkpt>
      <trkpt lat="47.77329" lon="-3.54885">
        <ele>34</ele>
        <time>2019-07-15T09:11:10Z</time>
      </trkpt>
      <trkpt lat="47.77329" lon="-3.54882">
        <ele>34</ele>
        <time>2019-07-15T09:11:11Z</time>
      </trkpt>
      <trkpt lat="47.7733" lon="-3.54878">
        <ele>34</ele>
        <time>2019-07-15T09:11:12Z</time>
      </trkpt>
      <trkpt lat="47.7733" lon="-3.54875">
        <ele>34</ele>
        <time>2019-07-15T09:11:13Z</time>
      </trkpt>
      <trkpt lat="47.77331" lon="-3.54871">
        <ele>34</ele>
        <time>2019-07-15T09:11:14Z</time>
      </trkpt>
      <trkpt lat="47.77331" lon="-3.54867">
        <ele>34</ele>
        <time>2019-07-15T09:11:15Z</time>
      </trkpt>
      <trkpt lat="47.77332" lon="-3.54864">
        <ele>34</ele>
        <time>2019-07-15T09:11:16Z</time>
      </trkpt>
      <trkpt lat="47.77332" lon="-3.54861">
        <ele>34</ele>
        <time>2019-07-15T09:11:17Z</time>
      </trkpt>
      <trkpt lat="47.77333" lon="-3.54857">
        <ele>34</ele>
        <time>2019-07-15T09:11:18Z</time>
      </trkpt>
      <trkpt lat="47.77334" lon="-3.54853">
        <ele>34</ele>
        <time>2019-07-15T09:11:19Z</time>
      </trkpt>
      <trkpt lat="47.77335" lon="-3.54849">
        <ele>34</ele>
        <time>2019-07-15T09:11:20Z</time>
      </trkpt>
      <trkpt lat="47.77336" lon="-3.54846">
        <ele>34</ele>
        <time>2019-07-15T09:11:21Z</time>
      </trkpt>
      <trkpt lat="47.77336" lon="-3.54842">
        <ele>34</ele>
        <time>2019-07-15T09:11:22Z</time>
      </trkpt>
      <trkpt lat="47.77337" lon="-3.54839">
        <ele>34</ele>
        <time>2019-07-15T09:11:23Z</time>
      </trkpt>
      <trkpt lat="47.77338" lon="-3.54835">
        <ele>34</ele>
        <time>2019-07-15T09:11:24Z</time>
      </trkpt>
      <trkpt lat="47.77339" lon="-3.54831">
        <ele>34</ele>
        <time>2019-07-15T09:11:25Z</time>
      </trkpt>
      <trkpt lat="47.77339" lon="-3.54827">
        <ele>34</ele>
        <time>2019-07-15T09:11:26Z</time>
      </trkpt>
      <trkpt lat="47.77338" lon="-3.54823">
        <ele>34</ele>
        <time>2019-07-15T09:11:27Z</time>
      </trkpt>
      <trkpt lat="47.77337" lon="-3.5482">
        <ele>33</ele>
        <time>2019-07-15T09:11:28Z</time>
      </trkpt>
      <trkpt lat="47.77336" lon="-3.54816">
        <ele>33</ele>
        <time>2019-07-15T09:11:29Z</time>
      </trkpt>
      <trkpt lat="47.77335" lon="-3.54812">
        <ele>33</ele>
        <time>2019-07-15T09:11:30Z</time>
      </trkpt>
      <trkpt lat="47.77333" lon="-3.54808">
        <ele>33</ele>
        <time>2019-07-15T09:11:31Z</time>
      </trkpt>
      <trkpt lat="47.77332" lon="-3.54804">
        <ele>33</ele>
        <time>2019-07-15T09:11:32Z</time>
      </trkpt>
      <trkpt lat="47.7733" lon="-3.548">
        <ele>33</ele>
        <time>2019-07-15T09:11:33Z</time>
      </trkpt>
      <trkpt lat="47.77329" lon="-3.54796">
        <ele>32</ele>
        <time>2019-07-15T09:11:34Z</time>
      </trkpt>
      <trkpt lat="47.77328" lon="-3.54793">
        <ele>32</ele>
        <time>2019-07-15T09:11:35Z</time>
      </trkpt>
      <trkpt lat="47.77326" lon="-3.54789">
        <ele>32</ele>
        <time>2019-07-15T09:11:36Z</time>
      </trkpt>
      <trkpt lat="47.77325" lon="-3.54786">
        <ele>32</ele>
        <time>2019-07-15T09:11:37Z</time>
      </trkpt>
      <trkpt lat="47.77323" lon="-3.54782">
        <ele>32</ele>
        <time>2019-07-15T09:11:38Z</time>
      </trkpt>
      <trkpt lat="47.77321" lon="-3.54778">
        <ele>32</ele>
        <time>2019-07-15T09:11:39Z</time>
      </trkpt>
      <trkpt lat="47.7732" lon="-3.54775">
        <ele>32</ele>
        <time>2019-07-15T09:11:40Z</time>
      </trkpt>
      <trkpt lat="47.77318" lon="-3.54771">
        <ele>31</ele>
        <time>2019-07-15T09:11:41Z</time>
      </trkpt>
      <trkpt lat="47.77316" lon="-3.54767">
        <ele>31</ele>
        <time>2019-07-15T09:11:42Z</time>
      </trkpt>
      <trkpt lat="47.77314" lon="-3.54764">
        <ele>31</ele>
        <time>2019-07-15T09:11:43Z</time>
      </trkpt>
      <trkpt lat="47.77312" lon="-3.54761">
        <ele>31</ele>
        <time>2019-07-15T09:11:44Z</time>
      </trkpt>
      <trkpt lat="47.7731" lon="-3.54757">
        <ele>31</ele>
        <time>2019-07-15T09:11:45Z</time>
      </trkpt>
      <trkpt lat="47.77308" lon="-3.54753">
        <ele>31</ele>
        <time>2019-07-15T09:11:46Z</time>
      </trkpt>
      <trkpt lat="47.77306" lon="-3.5475">
        <ele>31</ele>
        <time>2019-07-15T09:11:47Z</time>
      </trkpt>
      <trkpt lat="47.77303" lon="-3.54746">
        <ele>31</ele>
        <time>2019-07-15T09:11:48Z</time>
      </trkpt>
      <trkpt lat="47.77302" lon="-3.54741">
        <ele>31</ele>
        <time>2019-07-15T09:11:49Z</time>
      </trkpt>
      <trkpt lat="47.773" lon="-3.54737">
        <ele>31</ele>
        <time>2019-07-15T09:11:50Z</time>
      </trkpt>
      <trkpt lat="47.77298" lon="-3.54733">
        <ele>31</ele>
        <time>2019-07-15T09:11:51Z</time>
      </trkpt>
      <trkpt lat="47.77297" lon="-3.54729">
        <ele>31</ele>
        <time>2019-07-15T09:11:52Z</time>
      </trkpt>
      <trkpt lat="47.77295" lon="-3.54725">
        <ele>31</ele>
        <time>2019-07-15T09:11:53Z</time>
      </trkpt>
      <trkpt lat="47.77294" lon="-3.54721">
        <ele>32</ele>
        <time>2019-07-15T09:11:54Z</time>
      </trkpt>
      <trkpt lat="47.77293" lon="-3.54717">
        <ele>32</ele>
        <time>2019-07-15T09:11:55Z</time>
      </trkpt>
      <trkpt lat="47.77292" lon="-3.54712">
        <ele>32</ele>
        <time>2019-07-15T09:11:56Z</time>
      </trkpt>
      <trkpt lat="47.77292" lon="-3.54707">
        <ele>32</ele>
        <time>2019-07-15T09:11:57Z</time>
      </trkpt>
      <trkpt lat="47.77292" lon="-3.54703">
        <ele>33</ele>
        <time>2019-07-15T09:11:58Z</time>
      </trkpt>
      <trkpt lat="47.77291" lon="-3.54697">
        <ele>33</ele>
        <time>2019-07-15T09:11:59Z</time>
      </trkpt>
      <trkpt lat="47.77291" lon="-3.54691">
        <ele>33</ele>
        <time>2019-07-15T09:12:00Z</time>
      </trkpt>
      <trkpt lat="47.77291" lon="-3.54686">
        <ele>33</ele>
        <time>2019-07-15T09:12:01Z</time>
      </trkpt>
      <trkpt lat="47.77291" lon="-3.5468">
        <ele>34</ele>
        <time>2019-07-15T09:12:02Z</time>
      </trkpt>
      <trkpt lat="47.77291" lon="-3.54674">
        <ele>34</ele>
        <time>2019-07-15T09:12:03Z</time>
      </trkpt>
      <trkpt lat="47.77292" lon="-3.54669">
        <ele>34</ele>
        <time>2019-07-15T09:12:04Z</time>
      </trkpt>
      <trkpt lat="47.77292" lon="-3.54664">
        <ele>34</ele>
        <time>2019-07-15T09:12:05Z</time>
      </trkpt>
      <trkpt lat="47.77293" lon="-3.5466">
        <ele>35</ele>
        <time>2019-07-15T09:12:06Z</time>
      </trkpt>
      <trkpt lat="47.77293" lon="-3.54656">
        <ele>35</ele>
        <time>2019-07-15T09:12:07Z</time>
      </trkpt>
      <trkpt lat="47.77295" lon="-3.54653">
        <ele>35</ele>
        <time>2019-07-15T09:12:08Z</time>
      </trkpt>
      <trkpt lat="47.77296" lon="-3.54651">
        <ele>35</ele>
        <time>2019-07-15T09:12:09Z</time>
      </trkpt>
      <trkpt lat="47.77298" lon="-3.54648">
        <ele>35</ele>
        <time>2019-07-15T09:12:10Z</time>
      </trkpt>
      <trkpt lat="47.77301" lon="-3.54647">
        <ele>36</ele>
        <time>2019-07-15T09:12:11Z</time>
      </trkpt>
      <trkpt lat="47.77304" lon="-3.54646">
        <ele>36</ele>
        <time>2019-07-15T09:12:12Z</time>
      </trkpt>
      <trkpt lat="47.77307" lon="-3.54646">
        <ele>36</ele>
        <time>2019-07-15T09:12:13Z</time>
      </trkpt>
      <trkpt lat="47.77311" lon="-3.54647">
        <ele>36</ele>
        <time>2019-07-15T09:12:14Z</time>
      </trkpt>
      <trkpt lat="47.77315" lon="-3.54647">
        <ele>36</ele>
        <time>2019-07-15T09:12:15Z</time>
      </trkpt>
      <trkpt lat="47.77318" lon="-3.54648">
        <ele>36</ele>
        <time>2019-07-15T09:12:16Z</time>
      </trkpt>
      <trkpt lat="47.77322" lon="-3.54649">
        <ele>36</ele>
        <time>2019-07-15T09:12:17Z</time>
      </trkpt>
      <trkpt lat="47.77326" lon="-3.54649">
        <ele>36</ele>
        <time>2019-07-15T09:12:18Z</time>
      </trkpt>
      <trkpt lat="47.77329" lon="-3.54649">
        <ele>36</ele>
        <time>2019-07-15T09:12:19Z</time>
      </trkpt>
      <trkpt lat="47.77333" lon="-3.54649">
        <ele>36</ele>
        <time>2019-07-15T09:12:20Z</time>
      </trkpt>
      <trkpt lat="47.77337" lon="-3.54648">
        <ele>36</ele>
        <time>2019-07-15T09:12:21Z</time>
      </trkpt>
      <trkpt lat="47.77341" lon="-3.54648">
        <ele>36</ele>
        <time>2019-07-15T09:12:22Z</time>
      </trkpt>
      <trkpt lat="47.77344" lon="-3.54647">
        <ele>36</ele>
        <time>2019-07-15T09:12:23Z</time>
      </trkpt>
      <trkpt lat="47.77348" lon="-3.54647">
        <ele>36</ele>
        <time>2019-07-15T09:12:24Z</time>
      </trkpt>
      <trkpt lat="47.77351" lon="-3.54646">
        <ele>36</ele>
        <time>2019-07-15T09:12:25Z</time>
      </trkpt>
      <trkpt lat="47.77355" lon="-3.54645">
        <ele>36</ele>
        <time>2019-07-15T09:12:26Z</time>
      </trkpt>
      <trkpt lat="47.77358" lon="-3.54644">
        <ele>36</ele>
        <time>2019-07-15T09:12:27Z</time>
      </trkpt>
      <trkpt lat="47.77361" lon="-3.54642">
        <ele>37</ele>
        <time>2019-07-15T09:12:28Z</time>
      </trkpt>
      <trkpt lat="47.77363" lon="-3.5464">
        <ele>37</ele>
        <time>2019-07-15T09:12:29Z</time>
      </trkpt>
      <trkpt lat="47.77366" lon="-3.54638">
        <ele>37</ele>
        <time>2019-07-15T09:12:30Z</time>
      </trkpt>
      <trkpt lat="47.77369" lon="-3.54635">
        <ele>37</ele>
        <time>2019-07-15T09:12:31Z</time>
      </trkpt>
      <trkpt lat="47.77372" lon="-3.54632">
        <ele>37</ele>
        <time>2019-07-15T09:12:32Z</time>
      </trkpt>
      <trkpt lat="47.77375" lon="-3.54628">
        <ele>37</ele>
        <time>2019-07-15T09:12:33Z</time>
      </trkpt>
      <trkpt lat="47.77379" lon="-3.54625">
        <ele>38</ele>
        <time>2019-07-15T09:12:34Z</time>
      </trkpt>
      <trkpt lat="47.77384" lon="-3.54621">
        <ele>38</ele>
        <time>2019-07-15T09:12:35Z</time>
      </trkpt>
      <trkpt lat="47.77388" lon="-3.54617">
        <ele>38</ele>
        <time>2019-07-15T09:12:36Z</time>
      </trkpt>
      <trkpt lat="47.77391" lon="-3.54613">
        <ele>38</ele>
        <time>2019-07-15T09:12:37Z</time>
      </trkpt>
      <trkpt lat="47.77396" lon="-3.5461">
        <ele>38</ele>
        <time>2019-07-15T09:12:38Z</time>
      </trkpt>
      <trkpt lat="47.774" lon="-3.54606">
        <ele>38</ele>
        <time>2019-07-15T09:12:39Z</time>
      </trkpt>
      <trkpt lat="47.77404" lon="-3.54603">
        <ele>38</ele>
        <time>2019-07-15T09:12:40Z</time>
      </trkpt>
      <trkpt lat="47.77408" lon="-3.546">
        <ele>38</ele>
        <time>2019-07-15T09:12:41Z</time>
      </trkpt>
      <trkpt lat="47.77413" lon="-3.54597">
        <ele>38</ele>
        <time>2019-07-15T09:12:42Z</time>
      </trkpt>
      <trkpt lat="47.77417" lon="-3.54593">
        <ele>38</ele>
        <time>2019-07-15T09:12:43Z</time>
      </trkpt>
      <trkpt lat="47.77421" lon="-3.5459">
        <ele>38</ele>
        <time>2019-07-15T09:12:44Z</time>
      </trkpt>
      <trkpt lat="47.77425" lon="-3.54588">
        <ele>38</ele>
        <time>2019-07-15T09:12:45Z</time>
      </trkpt>
      <trkpt lat="47.77429" lon="-3.54585">
        <ele>38</ele>
        <time>2019-07-15T09:12:46Z</time>
      </trkpt>
      <trkpt lat="47.77432" lon="-3.5458">
        <ele>38</ele>
        <time>2019-07-15T09:12:47Z</time>
      </trkpt>
      <trkpt lat="47.77434" lon="-3.54575">
        <ele>38</ele>
        <time>2019-07-15T09:12:48Z</time>
      </trkpt>
      <trkpt lat="47.77434" lon="-3.54568">
        <ele>38</ele>
        <time>2019-07-15T09:12:49Z</time>
      </trkpt>
      <trkpt lat="47.77434" lon="-3.54562">
        <ele>38</ele>
        <time>2019-07-15T09:12:50Z</time>
      </trkpt>
      <trkpt lat="47.77432" lon="-3.54556">
        <ele>38</ele>
        <time>2019-07-15T09:12:51Z</time>
      </trkpt>
      <trkpt lat="47.77431" lon="-3.5455">
        <ele>38</ele>
        <time>2019-07-15T09:12:52Z</time>
      </trkpt>
      <trkpt lat="47.77429" lon="-3.54543">
        <ele>38</ele>
        <time>2019-07-15T09:12:53Z</time>
      </trkpt>
      <trkpt lat="47.77427" lon="-3.54537">
        <ele>37</ele>
        <time>2019-07-15T09:12:54Z</time>
      </trkpt>
      <trkpt lat="47.77425" lon="-3.5453">
        <ele>37</ele>
        <time>2019-07-15T09:12:55Z</time>
      </trkpt>
      <trkpt lat="47.77423" lon="-3.54524">
        <ele>37</ele>
        <time>2019-07-15T09:12:56Z</time>
      </trkpt>
      <trkpt lat="47.7742" lon="-3.54518">
        <ele>37</ele>
        <time>2019-07-15T09:12:57Z</time>
      </trkpt>
      <trkpt lat="47.77418" lon="-3.54511">
        <ele>37</ele>
        <time>2019-07-15T09:12:58Z</time>
      </trkpt>
      <trkpt lat="47.77415" lon="-3.54505">
        <ele>36</ele>
        <time>2019-07-15T09:12:59Z</time>
      </trkpt>
      <trkpt lat="47.77412" lon="-3.54499">
        <ele>36</ele>
        <time>2019-07-15T09:13:00Z</time>
      </trkpt>
      <trkpt lat="47.77409" lon="-3.54493">
        <ele>36</ele>
        <time>2019-07-15T09:13:01Z</time>
      </trkpt>
      <trkpt lat="47.77406" lon="-3.54487">
        <ele>36</ele>
        <time>2019-07-15T09:13:02Z</time>
      </trkpt>
      <trkpt lat="47.77404" lon="-3.5448">
        <ele>36</ele>
        <time>2019-07-15T09:13:03Z</time>
      </trkpt>
      <trkpt lat="47.77401" lon="-3.54474">
        <ele>36</ele>
        <time>2019-07-15T09:13:04Z</time>
      </trkpt>
      <trkpt lat="47.77398" lon="-3.54468">
        <ele>36</ele>
        <time>2019-07-15T09:13:05Z</time>
      </trkpt>
      <trkpt lat="47.77394" lon="-3.54462">
        <ele>36</ele>
        <time>2019-07-15T09:13:06Z</time>
      </trkpt>
      <trkpt lat="47.77391" lon="-3.54457">
        <ele>35</ele>
        <time>2019-07-15T09:13:07Z</time>
      </trkpt>
      <trkpt lat="47.77388" lon="-3.54451">
        <ele>35</ele>
        <time>2019-07-15T09:13:08Z</time>
      </trkpt>
      <trkpt lat="47.77384" lon="-3.54445">
        <ele>35</ele>
        <time>2019-07-15T09:13:09Z</time>
      </trkpt>
      <trkpt lat="47.77381" lon="-3.5444">
        <ele>35</ele>
        <time>2019-07-15T09:13:10Z</time>
      </trkpt>
      <trkpt lat="47.77377" lon="-3.54435">
        <ele>35</ele>
        <time>2019-07-15T09:13:11Z</time>
      </trkpt>
      <trkpt lat="47.77374" lon="-3.54429">
        <ele>35</ele>
        <time>2019-07-15T09:13:12Z</time>
      </trkpt>
      <trkpt lat="47.7737" lon="-3.54424">
        <ele>35</ele>
        <time>2019-07-15T09:13:13Z</time>
      </trkpt>
      <trkpt lat="47.77366" lon="-3.54418">
        <ele>35</ele>
        <time>2019-07-15T09:13:14Z</time>
      </trkpt>
      <trkpt lat="47.77362" lon="-3.54413">
        <ele>35</ele>
        <time>2019-07-15T09:13:15Z</time>
      </trkpt>
      <trkpt lat="47.77358" lon="-3.54408">
        <ele>35</ele>
        <time>2019-07-15T09:13:16Z</time>
      </trkpt>
      <trkpt lat="47.77354" lon="-3.54403">
        <ele>35</ele>
        <time>2019-07-15T09:13:17Z</time>
      </trkpt>
      <trkpt lat="47.7735" lon="-3.54398">
        <ele>35</ele>
        <time>2019-07-15T09:13:18Z</time>
      </trkpt>
      <trkpt lat="47.77346" lon="-3.54393">
        <ele>35</ele>
        <time>2019-07-15T09:13:19Z</time>
      </trkpt>
      <trkpt lat="47.77342" lon="-3.54388">
        <ele>35</ele>
        <time>2019-07-15T09:13:20Z</time>
      </trkpt>
      <trkpt lat="47.77339" lon="-3.54383">
        <ele>35</ele>
        <time>2019-07-15T09:13:21Z</time>
      </trkpt>
      <trkpt lat="47.77335" lon="-3.54379">
        <ele>35</ele>
        <time>2019-07-15T09:13:22Z</time>
      </trkpt>
      <trkpt lat="47.77332" lon="-3.54374">
        <ele>35</ele>
        <time>2019-07-15T09:13:23Z</time>
      </trkpt>
      <trkpt lat="47.77328" lon="-3.5437">
        <ele>35</ele>
        <time>2019-07-15T09:13:24Z</time>
      </trkpt>
      <trkpt lat="47.77325" lon="-3.54366">
        <ele>35</ele>
        <time>2019-07-15T09:13:25Z</time>
      </trkpt>
      <trkpt lat="47.77322" lon="-3.54361">
        <ele>35</ele>
        <time>2019-07-15T09:13:26Z</time>
      </trkpt>
      <trkpt lat="47.77319" lon="-3.54357">
        <ele>35</ele>
        <time>2019-07-15T09:13:27Z</time>
      </trkpt>
      <trkpt lat="47.77316" lon="-3.54353">
        <ele>35</ele>
        <time>2019-07-15T09:13:28Z</time>
      </trkpt>
      <trkpt lat="47.77313" lon="-3.54349">
        <ele>35</ele>
        <time>2019-07-15T09:13:29Z</time>
      </trkpt>
      <trkpt lat="47.77309" lon="-3.54345">
        <ele>35</ele>
        <time>2019-07-15T09:13:30Z</time>
      </trkpt>
      <trkpt lat="47.77306" lon="-3.5434">
        <ele>35</ele>
        <time>2019-07-15T09:13:31Z</time>
      </trkpt>
      <trkpt lat="47.77303" lon="-3.54336">
        <ele>35</ele>
        <time>2019-07-15T09:13:32Z</time>
      </trkpt>
      <trkpt lat="47.773" lon="-3.54332">
        <ele>35</ele>
        <time>2019-07-15T09:13:33Z</time>
      </trkpt>
      <trkpt lat="47.77297" lon="-3.54328">
        <ele>35</ele>
        <time>2019-07-15T09:13:34Z</time>
      </trkpt>
      <trkpt lat="47.77295" lon="-3.54324">
        <ele>35</ele>
        <time>2019-07-15T09:13:35Z</time>
      </trkpt>
      <trkpt lat="47.77292" lon="-3.5432">
        <ele>35</ele>
        <time>2019-07-15T09:13:36Z</time>
      </trkpt>
      <trkpt lat="47.7729" lon="-3.54317">
        <ele>35</ele>
        <time>2019-07-15T09:13:37Z</time>
      </trkpt>
      <trkpt lat="47.77288" lon="-3.54313">
        <ele>35</ele>
        <time>2019-07-15T09:13:38Z</time>
      </trkpt>
      <trkpt lat="47.77286" lon="-3.5431">
        <ele>35</ele>
        <time>2019-07-15T09:13:39Z</time>
      </trkpt>
      <trkpt lat="47.77284" lon="-3.54307">
        <ele>35</ele>
        <time>2019-07-15T09:13:40Z</time>
      </trkpt>
      <trkpt lat="47.77282" lon="-3.54303">
        <ele>36</ele>
        <time>2019-07-15T09:13:41Z</time>
      </trkpt>
      <trkpt lat="47.7728" lon="-3.54299">
        <ele>36</ele>
        <time>2019-07-15T09:13:42Z</time>
      </trkpt>
      <trkpt lat="47.77278" lon="-3.54294">
        <ele>36</ele>
        <time>2019-07-15T09:13:43Z</time>
      </trkpt>
      <trkpt lat="47.77276" lon="-3.54288">
        <ele>36</ele>
        <time>2019-07-15T09:13:44Z</time>
      </trkpt>
      <trkpt lat="47.77273" lon="-3.54282">
        <ele>36</ele>
        <time>2019-07-15T09:13:45Z</time>
      </trkpt>
      <trkpt lat="47.7727" lon="-3.54276">
        <ele>36</ele>
        <time>2019-07-15T09:13:46Z</time>
      </trkpt>
      <trkpt lat="47.77268" lon="-3.5427">
        <ele>36</ele>
        <time>2019-07-15T09:13:47Z</time>
      </trkpt>
      <trkpt lat="47.77265" lon="-3.54264">
        <ele>36</ele>
        <time>2019-07-15T09:13:48Z</time>
      </trkpt>
      <trkpt lat="47.77262" lon="-3.54258">
        <ele>36</ele>
        <time>2019-07-15T09:13:49Z</time>
      </trkpt>
      <trkpt lat="47.77259" lon="-3.54252">
        <ele>36</ele>
        <time>2019-07-15T09:13:50Z</time>
      </trkpt>
      <trkpt lat="47.77256" lon="-3.54247">
        <ele>36</ele>
        <time>2019-07-15T09:13:51Z</time>
      </trkpt>
      <trkpt lat="47.77254" lon="-3.54242">
        <ele>36</ele>
        <time>2019-07-15T09:13:52Z</time>
      </trkpt>
      <trkpt lat="47.77251" lon="-3.54237">
        <ele>36</ele>
        <time>2019-07-15T09:13:53Z</time>
      </trkpt>
      <trkpt lat="47.77248" lon="-3.54232">
        <ele>36</ele>
        <time>2019-07-15T09:13:54Z</time>
      </trkpt>
      <trkpt lat="47.77246" lon="-3.54228">
        <ele>36</ele>
        <time>2019-07-15T09:13:55Z</time>
      </trkpt>
      <trkpt lat="47.77243" lon="-3.54223">
        <ele>36</ele>
        <time>2019-07-15T09:13:56Z</time>
      </trkpt>
      <trkpt lat="47.7724" lon="-3.54218">
        <ele>36</ele>
        <time>2019-07-15T09:13:57Z</time>
      </trkpt>
      <trkpt lat="47.77238" lon="-3.54213">
        <ele>36</ele>
        <time>2019-07-15T09:13:58Z</time>
      </trkpt>
      <trkpt lat="47.77235" lon="-3.54208">
        <ele>36</ele>
        <time>2019-07-15T09:13:59Z</time>
      </trkpt>
      <trkpt lat="47.77233" lon="-3.54203">
        <ele>36</ele>
        <time>2019-07-15T09:14:00Z</time>
      </trkpt>
      <trkpt lat="47.7723" lon="-3.54198">
        <ele>36</ele>
        <time>2019-07-15T09:14:01Z</time>
      </trkpt>
      <trkpt lat="47.77227" lon="-3.54192">
        <ele>37</ele>
        <time>2019-07-15T09:14:02Z</time>
      </trkpt>
      <trkpt lat="47.77225" lon="-3.54185">
        <ele>37</ele>
        <time>2019-07-15T09:14:03Z</time>
      </trkpt>
      <trkpt lat="47.77223" lon="-3.54178">
        <ele>37</ele>
        <time>2019-07-15T09:14:04Z</time>
      </trkpt>
      <trkpt lat="47.77221" lon="-3.54171">
        <ele>37</ele>
        <time>2019-07-15T09:14:05Z</time>
      </trkpt>
      <trkpt lat="47.77219" lon="-3.54164">
        <ele>37</ele>
        <time>2019-07-15T09:14:06Z</time>
      </trkpt>
      <trkpt lat="47.77217" lon="-3.54157">
        <ele>37</ele>
        <time>2019-07-15T09:14:07Z</time>
      </trkpt>
      <trkpt lat="47.77215" lon="-3.54149">
        <ele>37</ele>
        <time>2019-07-15T09:14:08Z</time>
      </trkpt>
      <trkpt lat="47.77213" lon="-3.54142">
        <ele>38</ele>
        <time>2019-07-15T09:14:09Z</time>
      </trkpt>
      <trkpt lat="47.77212" lon="-3.54135">
        <ele>38</ele>
        <time>2019-07-15T09:14:10Z</time>
      </trkpt>
      <trkpt lat="47.7721" lon="-3.54127">
        <ele>38</ele>
        <time>2019-07-15T09:14:11Z</time>
      </trkpt>
      <trkpt lat="47.77208" lon="-3.5412">
        <ele>38</ele>
        <time>2019-07-15T09:14:12Z</time>
      </trkpt>
      <trkpt lat="47.77207" lon="-3.54112">
        <ele>38</ele>
        <time>2019-07-15T09:14:13Z</time>
      </trkpt>
      <trkpt lat="47.77205" lon="-3.54104">
        <ele>38</ele>
        <time>2019-07-15T09:14:14Z</time>
      </trkpt>
      <trkpt lat="47.77203" lon="-3.54097">
        <ele>39</ele>
        <time>2019-07-15T09:14:15Z</time>
      </trkpt>
      <trkpt lat="47.77201" lon="-3.54089">
        <ele>39</ele>
        <time>2019-07-15T09:14:16Z</time>
      </trkpt>
      <trkpt lat="47.772" lon="-3.54081">
        <ele>39</ele>
        <time>2019-07-15T09:14:17Z</time>
      </trkpt>
      <trkpt lat="47.77198" lon="-3.54073">
        <ele>39</ele>
        <time>2019-07-15T09:14:18Z</time>
      </trkpt>
      <trkpt lat="47.77196" lon="-3.54066">
        <ele>39</ele>
        <time>2019-07-15T09:14:19Z</time>
      </trkpt>
      <trkpt lat="47.77194" lon="-3.5406">
        <ele>39</ele>
        <time>2019-07-15T09:14:20Z</time>
      </trkpt>
      <trkpt lat="47.77191" lon="-3.54055">
        <ele>39</ele>
        <time>2019-07-15T09:14:21Z</time>
      </trkpt>
      <trkpt lat="47.77189" lon="-3.54052">
        <ele>39</ele>
        <time>2019-07-15T09:14:22Z</time>
      </trkpt>
      <trkpt lat="47.77187" lon="-3.54049">
        <ele>40</ele>
        <time>2019-07-15T09:14:23Z</time>
      </trkpt>
      <trkpt lat="47.77184" lon="-3.54048">
        <ele>40</ele>
        <time>2019-07-15T09:14:24Z</time>
      </trkpt>
      <trkpt lat="47.77181" lon="-3.54047">
        <ele>40</ele>
        <time>2019-07-15T09:14:25Z</time>
      </trkpt>
      <trkpt lat="47.77179" lon="-3.54047">
        <ele>40</ele>
        <time>2019-07-15T09:14:26Z</time>
      </trkpt>
      <trkpt lat="47.77177" lon="-3.54047">
        <ele>40</ele>
        <time>2019-07-15T09:14:27Z</time>
      </trkpt>
      <trkpt lat="47.77177" lon="-3.54046">
        <ele>39</ele>
        <time>2019-07-15T09:14:28Z</time>
      </trkpt>
      <trkpt lat="47.77176" lon="-3.54046">
        <ele>39</ele>
        <time>2019-07-15T09:14:29Z</time>
      </trkpt>
      <trkpt lat="47.77173" lon="-3.54046">
        <ele>39</ele>
        <time>2019-07-15T09:14:30Z</time>
      </trkpt>
      <trkpt lat="47.77171" lon="-3.54046">
        <ele>39</ele>
        <time>2019-07-15T09:14:31Z</time>
      </trkpt>
      <trkpt lat="47.77168" lon="-3.54046">
        <ele>38</ele>
        <time>2019-07-15T09:14:32Z</time>
      </trkpt>
      <trkpt lat="47.77166" lon="-3.54046">
        <ele>38</ele>
        <time>2019-07-15T09:14:33Z</time>
      </trkpt>
      <trkpt lat="47.77162" lon="-3.54046">
        <ele>38</ele>
        <time>2019-07-15T09:14:34Z</time>
      </trkpt>
      <trkpt lat="47.77158" lon="-3.54047">
        <ele>38</ele>
        <time>2019-07-15T09:14:35Z</time>
      </trkpt>
      <trkpt lat="47.77154" lon="-3.54047">
        <ele>38</ele>
        <time>2019-07-15T09:14:36Z</time>
      </trkpt>
      <trkpt lat="47.7715" lon="-3.54047">
        <ele>37</ele>
        <time>2019-07-15T09:14:37Z</time>
      </trkpt>
      <trkpt lat="47.77145" lon="-3.54046">
        <ele>37</ele>
        <time>2019-07-15T09:14:38Z</time>
      </trkpt>
      <trkpt lat="47.77141" lon="-3.54045">
        <ele>37</ele>
        <time>2019-07-15T09:14:39Z</time>
      </trkpt>
      <trkpt lat="47.77136" lon="-3.54044">
        <ele>37</ele>
        <time>2019-07-15T09:14:40Z</time>
      </trkpt>
      <trkpt lat="47.77132" lon="-3.54043">
        <ele>37</ele>
        <time>2019-07-15T09:14:41Z</time>
      </trkpt>
      <trkpt lat="47.77127" lon="-3.5404">
        <ele>36</ele>
        <time>2019-07-15T09:14:42Z</time>
      </trkpt>
      <trkpt lat="47.77123" lon="-3.54038">
        <ele>36</ele>
        <time>2019-07-15T09:14:43Z</time>
      </trkpt>
      <trkpt lat="47.77118" lon="-3.54036">
        <ele>36</ele>
        <time>2019-07-15T09:14:44Z</time>
      </trkpt>
      <trkpt lat="47.77112" lon="-3.54034">
        <ele>36</ele>
        <time>2019-07-15T09:14:45Z</time>
      </trkpt>
      <trkpt lat="47.77106" lon="-3.54031">
        <ele>36</ele>
        <time>2019-07-15T09:14:46Z</time>
      </trkpt>
      <trkpt lat="47.771" lon="-3.54029">
        <ele>35</ele>
        <time>2019-07-15T09:14:47Z</time>
      </trkpt>
      <trkpt lat="47.77094" lon="-3.54027">
        <ele>35</ele>
        <time>2019-07-15T09:14:48Z</time>
      </trkpt>
      <trkpt lat="47.77088" lon="-3.54025">
        <ele>35</ele>
        <time>2019-07-15T09:14:49Z</time>
      </trkpt>
      <trkpt lat="47.77081" lon="-3.54023">
        <ele>35</ele>
        <time>2019-07-15T09:14:50Z</time>
      </trkpt>
      <trkpt lat="47.77074" lon="-3.5402">
        <ele>34</ele>
        <time>2019-07-15T09:14:51Z</time>
      </trkpt>
      <trkpt lat="47.77066" lon="-3.54018">
        <ele>34</ele>
        <time>2019-07-15T09:14:52Z</time>
      </trkpt>
      <trkpt lat="47.77057" lon="-3.54016">
        <ele>33</ele>
        <time>2019-07-15T09:14:53Z</time>
      </trkpt>
      <trkpt lat="47.77048" lon="-3.54015">
        <ele>33</ele>
        <time>2019-07-15T09:14:54Z</time>
      </trkpt>
      <trkpt lat="47.7704" lon="-3.54015">
        <ele>32</ele>
        <time>2019-07-15T09:14:55Z</time>
      </trkpt>
      <trkpt lat="47.77033" lon="-3.54017">
        <ele>31</ele>
        <time>2019-07-15T09:14:56Z</time>
      </trkpt>
      <trkpt lat="47.77027" lon="-3.5402">
        <ele>31</ele>
        <time>2019-07-15T09:14:57Z</time>
      </trkpt>
      <trkpt lat="47.77023" lon="-3.54022">
        <ele>31</ele>
        <time>2019-07-15T09:14:58Z</time>
      </trkpt>
      <trkpt lat="47.77018" lon="-3.54023">
        <ele>30</ele>
        <time>2019-07-15T09:14:59Z</time>
      </trkpt>
      <trkpt lat="47.77014" lon="-3.54024">
        <ele>30</ele>
        <time>2019-07-15T09:15:00Z</time>
      </trkpt>
      <trkpt lat="47.7701" lon="-3.54024">
        <ele>29</ele>
        <time>2019-07-15T09:15:01Z</time>
      </trkpt>
      <trkpt lat="47.77006" lon="-3.54025">
        <ele>29</ele>
        <time>2019-07-15T09:15:02Z</time>
      </trkpt>
      <trkpt lat="47.77002" lon="-3.54026">
        <ele>29</ele>
        <time>2019-07-15T09:15:03Z</time>
      </trkpt>
      <trkpt lat="47.76999" lon="-3.54028">
        <ele>28</ele>
        <time>2019-07-15T09:15:04Z</time>
      </trkpt>
      <trkpt lat="47.76997" lon="-3.54028">
        <ele>28</ele>
        <time>2019-07-15T09:15:05Z</time>
      </trkpt>
      <trkpt lat="47.76993" lon="-3.54028">
        <ele>27</ele>
        <time>2019-07-15T09:15:06Z</time>
      </trkpt>
      <trkpt lat="47.7699" lon="-3.5403">
        <ele>27</ele>
        <time>2019-07-15T09:15:07Z</time>
      </trkpt>
      <trkpt lat="47.76986" lon="-3.54031">
        <ele>27</ele>
        <time>2019-07-15T09:15:08Z</time>
      </trkpt>
      <trkpt lat="47.76982" lon="-3.54032">
        <ele>26</ele>
        <time>2019-07-15T09:15:09Z</time>
      </trkpt>
      <trkpt lat="47.76977" lon="-3.54034">
        <ele>26</ele>
        <time>2019-07-15T09:15:10Z</time>
      </trkpt>
      <trkpt lat="47.76972" lon="-3.54034">
        <ele>26</ele>
        <time>2019-07-15T09:15:11Z</time>
      </trkpt>
      <trkpt lat="47.76968" lon="-3.54034">
        <ele>25</ele>
        <time>2019-07-15T09:15:12Z</time>
      </trkpt>
      <trkpt lat="47.76963" lon="-3.54035">
        <ele>25</ele>
        <time>2019-07-15T09:15:13Z</time>
      </trkpt>
      <trkpt lat="47.76958" lon="-3.54035">
        <ele>25</ele>
        <time>2019-07-15T09:15:14Z</time>
      </trkpt>
      <trkpt lat="47.76952" lon="-3.54037">
        <ele>24</ele>
        <time>2019-07-15T09:15:15Z</time>
      </trkpt>
      <trkpt lat="47.76947" lon="-3.54038">
        <ele>24</ele>
        <time>2019-07-15T09:15:16Z</time>
      </trkpt>
      <trkpt lat="47.76942" lon="-3.5404">
        <ele>24</ele>
        <time>2019-07-15T09:15:17Z</time>
      </trkpt>
      <trkpt lat="47.76937" lon="-3.54044">
        <ele>23</ele>
        <time>2019-07-15T09:15:18Z</time>
      </trkpt>
      <trkpt lat="47.76933" lon="-3.54048">
        <ele>23</ele>
        <time>2019-07-15T09:15:19Z</time>
      </trkpt>
      <trkpt lat="47.76931" lon="-3.54054">
        <ele>23</ele>
        <time>2019-07-15T09:15:20Z</time>
      </trkpt>
      <trkpt lat="47.76928" lon="-3.5406">
        <ele>22</ele>
        <time>2019-07-15T09:15:21Z</time>
      </trkpt>
      <trkpt lat="47.76925" lon="-3.54065">
        <ele>22</ele>
        <time>2019-07-15T09:15:22Z</time>
      </trkpt>
      <trkpt lat="47.76923" lon="-3.54069">
        <ele>22</ele>
        <time>2019-07-15T09:15:23Z</time>
      </trkpt>
      <trkpt lat="47.76922" lon="-3.54074">
        <ele>21</ele>
        <time>2019-07-15T09:15:24Z</time>
      </trkpt>
      <trkpt lat="47.7692" lon="-3.54078">
        <ele>21</ele>
        <time>2019-07-15T09:15:25Z</time>
      </trkpt>
      <trkpt lat="47.76918" lon="-3.54083">
        <ele>21</ele>
        <time>2019-07-15T09:15:26Z</time>
      </trkpt>
      <trkpt lat="47.76916" lon="-3.54087">
        <ele>21</ele>
        <time>2019-07-15T09:15:27Z</time>
      </trkpt>
      <trkpt lat="47.76914" lon="-3.54089">
        <ele>20</ele>
        <time>2019-07-15T09:15:28Z</time>
      </trkpt>
      <trkpt lat="47.76911" lon="-3.5409">
        <ele>20</ele>
        <time>2019-07-15T09:15:29Z</time>
      </trkpt>
      <trkpt lat="47.76908" lon="-3.5409">
        <ele>20</ele>
        <time>2019-07-15T09:15:30Z</time>
      </trkpt>
      <trkpt lat="47.76904" lon="-3.54091">
        <ele>20</ele>
        <time>2019-07-15T09:15:31Z</time>
      </trkpt>
      <trkpt lat="47.76901" lon="-3.54091">
        <ele>20</ele>
        <time>2019-07-15T09:15:32Z</time>
      </trkpt>
      <trkpt lat="47.76897" lon="-3.54091">
        <ele>20</ele>
        <time>2019-07-15T09:15:33Z</time>
      </trkpt>
      <trkpt lat="47.76894" lon="-3.54092">
        <ele>19</ele>
        <time>2019-07-15T09:15:34Z</time>
      </trkpt>
      <trkpt lat="47.76891" lon="-3.54092">
        <ele>19</ele>
        <time>2019-07-15T09:15:35Z</time>
      </trkpt>
      <trkpt lat="47.76888" lon="-3.54093">
        <ele>19</ele>
        <time>2019-07-15T09:15:36Z</time>
      </trkpt>
      <trkpt lat="47.76885" lon="-3.54093">
        <ele>19</ele>
        <time>2019-07-15T09:15:37Z</time>
      </trkpt>
      <trkpt lat="47.76882" lon="-3.54093">
        <ele>19</ele>
        <time>2019-07-15T09:15:38Z</time>
      </trkpt>
      <trkpt lat="47.76879" lon="-3.54094">
        <ele>19</ele>
        <time>2019-07-15T09:15:39Z</time>
      </trkpt>
      <trkpt lat="47.76876" lon="-3.54094">
        <ele>19</ele>
        <time>2019-07-15T09:15:40Z</time>
      </trkpt>
      <trkpt lat="47.76873" lon="-3.54095">
        <ele>19</ele>
        <time>2019-07-15T09:15:41Z</time>
      </trkpt>
      <trkpt lat="47.7687" lon="-3.54095">
        <ele>19</ele>
        <time>2019-07-15T09:15:42Z</time>
      </trkpt>
      <trkpt lat="47.76867" lon="-3.54096">
        <ele>18</ele>
        <time>2019-07-15T09:15:43Z</time>
      </trkpt>
      <trkpt lat="47.76864" lon="-3.54096">
        <ele>18</ele>
        <time>2019-07-15T09:15:44Z</time>
      </trkpt>
      <trkpt lat="47.76862" lon="-3.54097">
        <ele>18</ele>
        <time>2019-07-15T09:15:45Z</time>
      </trkpt>
      <trkpt lat="47.76859" lon="-3.54096">
        <ele>18</ele>
        <time>2019-07-15T09:15:46Z</time>
      </trkpt>
      <trkpt lat="47.76856" lon="-3.54097">
        <ele>19</ele>
        <time>2019-07-15T09:15:47Z</time>
      </trkpt>
      <trkpt lat="47.76854" lon="-3.54096">
        <ele>19</ele>
        <time>2019-07-15T09:15:48Z</time>
      </trkpt>
      <trkpt lat="47.76852" lon="-3.54097">
        <ele>19</ele>
        <time>2019-07-15T09:15:49Z</time>
      </trkpt>
      <trkpt lat="47.76849" lon="-3.54097">
        <ele>19</ele>
        <time>2019-07-15T09:15:50Z</time>
      </trkpt>
      <trkpt lat="47.76846" lon="-3.54097">
        <ele>19</ele>
        <time>2019-07-15T09:15:51Z</time>
      </trkpt>
      <trkpt lat="47.76843" lon="-3.54098">
        <ele>19</ele>
        <time>2019-07-15T09:15:52Z</time>
      </trkpt>
      <trkpt lat="47.7684" lon="-3.54098">
        <ele>19</ele>
        <time>2019-07-15T09:15:53Z</time>
      </trkpt>
      <trkpt lat="47.76837" lon="-3.54099">
        <ele>19</ele>
        <time>2019-07-15T09:15:54Z</time>
      </trkpt>
      <trkpt lat="47.76834" lon="-3.54099">
        <ele>19</ele>
        <time>2019-07-15T09:15:55Z</time>
      </trkpt>
      <trkpt lat="47.76831" lon="-3.54099">
        <ele>19</ele>
        <time>2019-07-15T09:15:56Z</time>
      </trkpt>
      <trkpt lat="47.76829" lon="-3.54099">
        <ele>20</ele>
        <time>2019-07-15T09:15:57Z</time>
      </trkpt>
      <trkpt lat="47.76826" lon="-3.541">
        <ele>20</ele>
        <time>2019-07-15T09:15:58Z</time>
      </trkpt>
      <trkpt lat="47.76823" lon="-3.541">
        <ele>20</ele>
        <time>2019-07-15T09:15:59Z</time>
      </trkpt>
      <trkpt lat="47.76819" lon="-3.54101">
        <ele>20</ele>
        <time>2019-07-15T09:16:00Z</time>
      </trkpt>
      <trkpt lat="47.76816" lon="-3.54101">
        <ele>21</ele>
        <time>2019-07-15T09:16:01Z</time>
      </trkpt>
      <trkpt lat="47.76813" lon="-3.54102">
        <ele>21</ele>
        <time>2019-07-15T09:16:02Z</time>
      </trkpt>
      <trkpt lat="47.7681" lon="-3.54102">
        <ele>21</ele>
        <time>2019-07-15T09:16:03Z</time>
      </trkpt>
      <trkpt lat="47.76807" lon="-3.54103">
        <ele>21</ele>
        <time>2019-07-15T09:16:04Z</time>
      </trkpt>
      <trkpt lat="47.76804" lon="-3.54103">
        <ele>22</ele>
        <time>2019-07-15T09:16:05Z</time>
      </trkpt>
      <trkpt lat="47.768" lon="-3.54103">
        <ele>22</ele>
        <time>2019-07-15T09:16:06Z</time>
      </trkpt>
      <trkpt lat="47.76797" lon="-3.54104">
        <ele>22</ele>
        <time>2019-07-15T09:16:07Z</time>
      </trkpt>
      <trkpt lat="47.76794" lon="-3.54104">
        <ele>22</ele>
        <time>2019-07-15T09:16:08Z</time>
      </trkpt>
      <trkpt lat="47.7679" lon="-3.54105">
        <ele>22</ele>
        <time>2019-07-15T09:16:09Z</time>
      </trkpt>
      <trkpt lat="47.76787" lon="-3.54105">
        <ele>23</ele>
        <time>2019-07-15T09:16:10Z</time>
      </trkpt>
      <trkpt lat="47.76784" lon="-3.54106">
        <ele>23</ele>
        <time>2019-07-15T09:16:11Z</time>
      </trkpt>
      <trkpt lat="47.7678" lon="-3.54105">
        <ele>23</ele>
        <time>2019-07-15T09:16:12Z</time>
      </trkpt>
      <trkpt lat="47.76776" lon="-3.54105">
        <ele>23</ele>
        <time>2019-07-15T09:16:13Z</time>
      </trkpt>
      <trkpt lat="47.76773" lon="-3.54104">
        <ele>23</ele>
        <time>2019-07-15T09:16:14Z</time>
      </trkpt>
      <trkpt lat="47.76769" lon="-3.54103">
        <ele>23</ele>
        <time>2019-07-15T09:16:15Z</time>
      </trkpt>
      <trkpt lat="47.76765" lon="-3.54102">
        <ele>24</ele>
        <time>2019-07-15T09:16:16Z</time>
      </trkpt>
      <trkpt lat="47.76762" lon="-3.541">
        <ele>24</ele>
        <time>2019-07-15T09:16:17Z</time>
      </trkpt>
      <trkpt lat="47.76759" lon="-3.54099">
        <ele>24</ele>
        <time>2019-07-15T09:16:18Z</time>
      </trkpt>
      <trkpt lat="47.76757" lon="-3.54099">
        <ele>24</ele>
        <time>2019-07-15T09:16:19Z</time>
      </trkpt>
      <trkpt lat="47.76755" lon="-3.54099">
        <ele>24</ele>
        <time>2019-07-15T09:16:20Z</time>
      </trkpt>
      <trkpt lat="47.76755" lon="-3.54099">
        <ele>24</ele>
        <time>2019-07-15T09:16:21Z</time>
      </trkpt>
      <trkpt lat="47.76755" lon="-3.54099">
        <ele>24</ele>
        <time>2019-07-15T09:16:22Z</time>
      </trkpt>
      <trkpt lat="47.76755" lon="-3.54099">
        <ele>24</ele>
        <time>2019-07-15T09:16:23Z</time>
      </trkpt>
      <trkpt lat="47.76751" lon="-3.54099">
        <ele>25</ele>
        <time>2019-07-15T09:16:24Z</time>
      </trkpt>
      <trkpt lat="47.76748" lon="-3.541">
        <ele>25</ele>
        <time>2019-07-15T09:16:25Z</time>
      </trkpt>
      <trkpt lat="47.76744" lon="-3.54103">
        <ele>25</ele>
        <time>2019-07-15T09:16:26Z</time>
      </trkpt>
      <trkpt lat="47.76741" lon="-3.54106">
        <ele>25</ele>
        <time>2019-07-15T09:16:27Z</time>
      </trkpt>
      <trkpt lat="47.76737" lon="-3.54109">
        <ele>25</ele>
        <time>2019-07-15T09:16:28Z</time>
      </trkpt>
      <trkpt lat="47.76733" lon="-3.54113">
        <ele>25</ele>
        <time>2019-07-15T09:16:29Z</time>
      </trkpt>
      <trkpt lat="47.7673" lon="-3.54117">
        <ele>25</ele>
        <time>2019-07-15T09:16:30Z</time>
      </trkpt>
      <trkpt lat="47.76726" lon="-3.5412">
        <ele>25</ele>
        <time>2019-07-15T09:16:31Z</time>
      </trkpt>
      <trkpt lat="47.76722" lon="-3.54122">
        <ele>25</ele>
        <time>2019-07-15T09:16:32Z</time>
      </trkpt>
      <trkpt lat="47.76718" lon="-3.54122">
        <ele>25</ele>
        <time>2019-07-15T09:16:33Z</time>
      </trkpt>
      <trkpt lat="47.76713" lon="-3.5412">
        <ele>25</ele>
        <time>2019-07-15T09:16:34Z</time>
      </trkpt>
      <trkpt lat="47.76708" lon="-3.54119">
        <ele>25</ele>
        <time>2019-07-15T09:16:35Z</time>
      </trkpt>
      <trkpt lat="47.76703" lon="-3.54118">
        <ele>25</ele>
        <time>2019-07-15T09:16:36Z</time>
      </trkpt>
      <trkpt lat="47.76699" lon="-3.54116">
        <ele>25</ele>
        <time>2019-07-15T09:16:37Z</time>
      </trkpt>
      <trkpt lat="47.76693" lon="-3.54115">
        <ele>25</ele>
        <time>2019-07-15T09:16:38Z</time>
      </trkpt>
      <trkpt lat="47.76688" lon="-3.54113">
        <ele>25</ele>
        <time>2019-07-15T09:16:39Z</time>
      </trkpt>
      <trkpt lat="47.76682" lon="-3.54111">
        <ele>24</ele>
        <time>2019-07-15T09:16:40Z</time>
      </trkpt>
      <trkpt lat="47.76676" lon="-3.54109">
        <ele>24</ele>
        <time>2019-07-15T09:16:41Z</time>
      </trkpt>
      <trkpt lat="47.7667" lon="-3.54107">
        <ele>24</ele>
        <time>2019-07-15T09:16:42Z</time>
      </trkpt>
      <trkpt lat="47.76663" lon="-3.54105">
        <ele>24</ele>
        <time>2019-07-15T09:16:43Z</time>
      </trkpt>
      <trkpt lat="47.76656" lon="-3.54103">
        <ele>24</ele>
        <time>2019-07-15T09:16:44Z</time>
      </trkpt>
      <trkpt lat="47.7665" lon="-3.541">
        <ele>24</ele>
        <time>2019-07-15T09:16:45Z</time>
      </trkpt>
      <trkpt lat="47.76643" lon="-3.54097">
        <ele>23</ele>
        <time>2019-07-15T09:16:46Z</time>
      </trkpt>
      <trkpt lat="47.76636" lon="-3.54093">
        <ele>23</ele>
        <time>2019-07-15T09:16:47Z</time>
      </trkpt>
      <trkpt lat="47.76629" lon="-3.5409">
        <ele>23</ele>
        <time>2019-07-15T09:16:48Z</time>
      </trkpt>
      <trkpt lat="47.76621" lon="-3.54088">
        <ele>22</ele>
        <time>2019-07-15T09:16:49Z</time>
      </trkpt>
      <trkpt lat="47.76614" lon="-3.54086">
        <ele>22</ele>
        <time>2019-07-15T09:16:50Z</time>
      </trkpt>
      <trkpt lat="47.76606" lon="-3.54084">
        <ele>22</ele>
        <time>2019-07-15T09:16:51Z</time>
      </trkpt>
      <trkpt lat="47.76598" lon="-3.54083">
        <ele>21</ele>
        <time>2019-07-15T09:16:52Z</time>
      </trkpt>
      <trkpt lat="47.76591" lon="-3.54083">
        <ele>21</ele>
        <time>2019-07-15T09:16:53Z</time>
      </trkpt>
      <trkpt lat="47.76582" lon="-3.54082">
        <ele>20</ele>
        <time>2019-07-15T09:16:54Z</time>
      </trkpt>
      <trkpt lat="47.76574" lon="-3.54081">
        <ele>20</ele>
        <time>2019-07-15T09:16:55Z</time>
      </trkpt>
      <trkpt lat="47.76566" lon="-3.5408">
        <ele>19</ele>
        <time>2019-07-15T09:16:56Z</time>
      </trkpt>
      <trkpt lat="47.76558" lon="-3.54078">
        <ele>19</ele>
        <time>2019-07-15T09:16:57Z</time>
      </trkpt>
      <trkpt lat="47.7655" lon="-3.54077">
        <ele>18</ele>
        <time>2019-07-15T09:16:58Z</time>
      </trkpt>
      <trkpt lat="47.76541" lon="-3.54076">
        <ele>18</ele>
        <time>2019-07-15T09:16:59Z</time>
      </trkpt>
      <trkpt lat="47.76533" lon="-3.54076">
        <ele>18</ele>
        <time>2019-07-15T09:17:00Z</time>
      </trkpt>
      <trkpt lat="47.76525" lon="-3.54076">
        <ele>17</ele>
        <time>2019-07-15T09:17:01Z</time>
      </trkpt>
      <trkpt lat="47.76518" lon="-3.54075">
        <ele>17</ele>
        <time>2019-07-15T09:17:02Z</time>
      </trkpt>
      <trkpt lat="47.7651" lon="-3.54075">
        <ele>17</ele>
        <time>2019-07-15T09:17:03Z</time>
      </trkpt>
      <trkpt lat="47.76502" lon="-3.54074">
        <ele>17</ele>
        <time>2019-07-15T09:17:04Z</time>
      </trkpt>
      <trkpt lat="47.76495" lon="-3.54074">
        <ele>17</ele>
        <time>2019-07-15T09:17:05Z</time>
      </trkpt>
      <trkpt lat="47.76488" lon="-3.54074">
        <ele>16</ele>
        <time>2019-07-15T09:17:06Z</time>
      </trkpt>
      <trkpt lat="47.76481" lon="-3.54074">
        <ele>16</ele>
        <time>2019-07-15T09:17:07Z</time>
      </trkpt>
      <trkpt lat="47.76474" lon="-3.54073">
        <ele>16</ele>
        <time>2019-07-15T09:17:08Z</time>
      </trkpt>
      <trkpt lat="47.76468" lon="-3.54072">
        <ele>16</ele>
        <time>2019-07-15T09:17:09Z</time>
      </trkpt>
      <trkpt lat="47.76461" lon="-3.54071">
        <ele>16</ele>
        <time>2019-07-15T09:17:10Z</time>
      </trkpt>
      <trkpt lat="47.76455" lon="-3.5407">
        <ele>16</ele>
        <time>2019-07-15T09:17:11Z</time>
      </trkpt>
      <trkpt lat="47.76449" lon="-3.5407">
        <ele>15</ele>
        <time>2019-07-15T09:17:12Z</time>
      </trkpt>
      <trkpt lat="47.76443" lon="-3.54068">
        <ele>15</ele>
        <time>2019-07-15T09:17:13Z</time>
      </trkpt>
      <trkpt lat="47.76437" lon="-3.54067">
        <ele>15</ele>
        <time>2019-07-15T09:17:14Z</time>
      </trkpt>
      <trkpt lat="47.76432" lon="-3.54067">
        <ele>15</ele>
        <time>2019-07-15T09:17:15Z</time>
      </trkpt>
      <trkpt lat="47.76426" lon="-3.54066">
        <ele>15</ele>
        <time>2019-07-15T09:17:16Z</time>
      </trkpt>
      <trkpt lat="47.76421" lon="-3.54065">
        <ele>15</ele>
        <time>2019-07-15T09:17:17Z</time>
      </trkpt>
      <trkpt lat="47.76416" lon="-3.54064">
        <ele>15</ele>
        <time>2019-07-15T09:17:18Z</time>
      </trkpt>
      <trkpt lat="47.7641" lon="-3.54062">
        <ele>14</ele>
        <time>2019-07-15T09:17:19Z</time>
      </trkpt>
      <trkpt lat="47.76405" lon="-3.5406">
        <ele>14</ele>
        <time>2019-07-15T09:17:20Z</time>
      </trkpt>
      <trkpt lat="47.764" lon="-3.54057">
        <ele>14</ele>
        <time>2019-07-15T09:17:21Z</time>
      </trkpt>
      <trkpt lat="47.76395" lon="-3.54053">
        <ele>14</ele>
        <time>2019-07-15T09:17:22Z</time>
      </trkpt>
      <trkpt lat="47.76391" lon="-3.54049">
        <ele>14</ele>
        <time>2019-07-15T09:17:23Z</time>
      </trkpt>
      <trkpt lat="47.76387" lon="-3.54044">
        <ele>14</ele>
        <time>2019-07-15T09:17:24Z</time>
      </trkpt>
      <trkpt lat="47.76382" lon="-3.54038">
        <ele>14</ele>
        <time>2019-07-15T09:17:25Z</time>
      </trkpt>
      <trkpt lat="47.76378" lon="-3.54033">
        <ele>13</ele>
        <time>2019-07-15T09:17:26Z</time>
      </trkpt>
      <trkpt lat="47.76373" lon="-3.54028">
        <ele>13</ele>
        <time>2019-07-15T09:17:27Z</time>
      </trkpt>
      <trkpt lat="47.76368" lon="-3.54024">
        <ele>13</ele>
        <time>2019-07-15T09:17:28Z</time>
      </trkpt>
      <trkpt lat="47.76363" lon="-3.5402">
        <ele>13</ele>
        <time>2019-07-15T09:17:29Z</time>
      </trkpt>
      <trkpt lat="47.76358" lon="-3.54016">
        <ele>13</ele>
        <time>2019-07-15T09:17:30Z</time>
      </trkpt>
      <trkpt lat="47.76353" lon="-3.54012">
        <ele>13</ele>
        <time>2019-07-15T09:17:31Z</time>
      </trkpt>
      <trkpt lat="47.76349" lon="-3.54009">
        <ele>13</ele>
        <time>2019-07-15T09:17:32Z</time>
      </trkpt>
      <trkpt lat="47.76345" lon="-3.54006">
        <ele>14</ele>
        <time>2019-07-15T09:17:33Z</time>
      </trkpt>
      <trkpt lat="47.76341" lon="-3.54003">
        <ele>14</ele>
        <time>2019-07-15T09:17:34Z</time>
      </trkpt>
      <trkpt lat="47.76337" lon="-3.54001">
        <ele>14</ele>
        <time>2019-07-15T09:17:35Z</time>
      </trkpt>
      <trkpt lat="47.76334" lon="-3.53999">
        <ele>14</ele>
        <time>2019-07-15T09:17:36Z</time>
      </trkpt>
      <trkpt lat="47.7633" lon="-3.53996">
        <ele>14</ele>
        <time>2019-07-15T09:17:37Z</time>
      </trkpt>
      <trkpt lat="47.76327" lon="-3.53994">
        <ele>14</ele>
        <time>2019-07-15T09:17:38Z</time>
      </trkpt>
      <trkpt lat="47.76323" lon="-3.53992">
        <ele>14</ele>
        <time>2019-07-15T09:17:39Z</time>
      </trkpt>
      <trkpt lat="47.76319" lon="-3.5399">
        <ele>14</ele>
        <time>2019-07-15T09:17:40Z</time>
      </trkpt>
      <trkpt lat="47.76316" lon="-3.53988">
        <ele>14</ele>
        <time>2019-07-15T09:17:41Z</time>
      </trkpt>
      <trkpt lat="47.76314" lon="-3.53985">
        <ele>15</ele>
        <time>2019-07-15T09:17:42Z</time>
      </trkpt>
      <trkpt lat="47.76311" lon="-3.53983">
        <ele>15</ele>
        <time>2019-07-15T09:17:43Z</time>
      </trkpt>
      <trkpt lat="47.76309" lon="-3.5398">
        <ele>15</ele>
        <time>2019-07-15T09:17:44Z</time>
      </trkpt>
      <trkpt lat="47.76308" lon="-3.53977">
        <ele>15</ele>
        <time>2019-07-15T09:17:45Z</time>
      </trkpt>
      <trkpt lat="47.76306" lon="-3.53974">
        <ele>15</ele>
        <time>2019-07-15T09:17:46Z</time>
      </trkpt>
      <trkpt lat="47.76304" lon="-3.53971">
        <ele>15</ele>
        <time>2019-07-15T09:17:47Z</time>
      </trkpt>
      <trkpt lat="47.76301" lon="-3.53967">
        <ele>15</ele>
        <time>2019-07-15T09:17:48Z</time>
      </trkpt>
      <trkpt lat="47.76298" lon="-3.53962">
        <ele>15</ele>
        <time>2019-07-15T09:17:49Z</time>
      </trkpt>
      <trkpt lat="47.76295" lon="-3.53957">
        <ele>15</ele>
        <time>2019-07-15T09:17:50Z</time>
      </trkpt>
      <trkpt lat="47.76291" lon="-3.53952">
        <ele>14</ele>
        <time>2019-07-15T09:17:51Z</time>
      </trkpt>
      <trkpt lat="47.76288" lon="-3.53947">
        <ele>14</ele>
        <time>2019-07-15T09:17:52Z</time>
      </trkpt>
      <trkpt lat="47.76287" lon="-3.53941">
        <ele>14</ele>
        <time>2019-07-15T09:17:53Z</time>
      </trkpt>
      <trkpt lat="47.76287" lon="-3.53935">
        <ele>14</ele>
        <time>2019-07-15T09:17:54Z</time>
      </trkpt>
      <trkpt lat="47.76288" lon="-3.53929">
        <ele>14</ele>
        <time>2019-07-15T09:17:55Z</time>
      </trkpt>
      <trkpt lat="47.76289" lon="-3.53922">
        <ele>14</ele>
        <time>2019-07-15T09:17:56Z</time>
      </trkpt>
      <trkpt lat="47.76292" lon="-3.53915">
        <ele>14</ele>
        <time>2019-07-15T09:17:57Z</time>
      </trkpt>
      <trkpt lat="47.76295" lon="-3.53909">
        <ele>14</ele>
        <time>2019-07-15T09:17:58Z</time>
      </trkpt>
      <trkpt lat="47.76298" lon="-3.53904">
        <ele>14</ele>
        <time>2019-07-15T09:17:59Z</time>
      </trkpt>
      <trkpt lat="47.76299" lon="-3.53898">
        <ele>14</ele>
        <time>2019-07-15T09:18:00Z</time>
      </trkpt>
      <trkpt lat="47.76299" lon="-3.53892">
        <ele>14</ele>
        <time>2019-07-15T09:18:01Z</time>
      </trkpt>
      <trkpt lat="47.76296" lon="-3.53885">
        <ele>14</ele>
        <time>2019-07-15T09:18:02Z</time>
      </trkpt>
      <trkpt lat="47.76294" lon="-3.53878">
        <ele>14</ele>
        <time>2019-07-15T09:18:03Z</time>
      </trkpt>
      <trkpt lat="47.76293" lon="-3.5387">
        <ele>14</ele>
        <time>2019-07-15T09:18:04Z</time>
      </trkpt>
      <trkpt lat="47.76293" lon="-3.53861">
        <ele>14</ele>
        <time>2019-07-15T09:18:05Z</time>
      </trkpt>
      <trkpt lat="47.76295" lon="-3.53853">
        <ele>15</ele>
        <time>2019-07-15T09:18:06Z</time>
      </trkpt>
      <trkpt lat="47.76297" lon="-3.53845">
        <ele>15</ele>
        <time>2019-07-15T09:18:07Z</time>
      </trkpt>
      <trkpt lat="47.76299" lon="-3.53838">
        <ele>15</ele>
        <time>2019-07-15T09:18:08Z</time>
      </trkpt>
      <trkpt lat="47.76301" lon="-3.53832">
        <ele>15</ele>
        <time>2019-07-15T09:18:09Z</time>
      </trkpt>
      <trkpt lat="47.76304" lon="-3.53827">
        <ele>15</ele>
        <time>2019-07-15T09:18:10Z</time>
      </trkpt>
      <trkpt lat="47.76307" lon="-3.53823">
        <ele>16</ele>
        <time>2019-07-15T09:18:11Z</time>
      </trkpt>
      <trkpt lat="47.7631" lon="-3.53819">
        <ele>16</ele>
        <time>2019-07-15T09:18:12Z</time>
      </trkpt>
      <trkpt lat="47.76314" lon="-3.53817">
        <ele>16</ele>
        <time>2019-07-15T09:18:13Z</time>
      </trkpt>
      <trkpt lat="47.76317" lon="-3.53815">
        <ele>16</ele>
        <time>2019-07-15T09:18:14Z</time>
      </trkpt>
      <trkpt lat="47.7632" lon="-3.53814">
        <ele>16</ele>
        <time>2019-07-15T09:18:15Z</time>
      </trkpt>
      <trkpt lat="47.76323" lon="-3.53813">
        <ele>17</ele>
        <time>2019-07-15T09:18:16Z</time>
      </trkpt>
      <trkpt lat="47.76326" lon="-3.53812">
        <ele>17</ele>
        <time>2019-07-15T09:18:17Z</time>
      </trkpt>
      <trkpt lat="47.76329" lon="-3.53811">
        <ele>17</ele>
        <time>2019-07-15T09:18:18Z</time>
      </trkpt>
      <trkpt lat="47.76332" lon="-3.53812">
        <ele>16</ele>
        <time>2019-07-15T09:18:19Z</time>
      </trkpt>
      <trkpt lat="47.76337" lon="-3.53812">
        <ele>16</ele>
        <time>2019-07-15T09:18:20Z</time>
      </trkpt>
      <trkpt lat="47.76341" lon="-3.53812">
        <ele>16</ele>
        <time>2019-07-15T09:18:21Z</time>
      </trkpt>
      <trkpt lat="47.76345" lon="-3.53812">
        <ele>16</ele>
        <time>2019-07-15T09:18:22Z</time>
      </trkpt>
      <trkpt lat="47.76348" lon="-3.53813">
        <ele>16</ele>
        <time>2019-07-15T09:18:23Z</time>
      </trkpt>
      <trkpt lat="47.76351" lon="-3.53814">
        <ele>15</ele>
        <time>2019-07-15T09:18:24Z</time>
      </trkpt>
      <trkpt lat="47.76353" lon="-3.53817">
        <ele>15</ele>
        <time>2019-07-15T09:18:25Z</time>
      </trkpt>
      <trkpt lat="47.76355" lon="-3.53821">
        <ele>15</ele>
        <time>2019-07-15T09:18:26Z</time>
      </trkpt>
      <trkpt lat="47.76357" lon="-3.53823">
        <ele>15</ele>
        <time>2019-07-15T09:18:27Z</time>
      </trkpt>
      <trkpt lat="47.76359" lon="-3.53827">
        <ele>15</ele>
        <time>2019-07-15T09:18:28Z</time>
      </trkpt>
      <trkpt lat="47.76362" lon="-3.53831">
        <ele>15</ele>
        <time>2019-07-15T09:18:29Z</time>
      </trkpt>
      <trkpt lat="47.76364" lon="-3.53835">
        <ele>14</ele>
        <time>2019-07-15T09:18:30Z</time>
      </trkpt>
      <trkpt lat="47.76368" lon="-3.53839">
        <ele>14</ele>
        <time>2019-07-15T09:18:31Z</time>
      </trkpt>
      <trkpt lat="47.76371" lon="-3.53844">
        <ele>14</ele>
        <time>2019-07-15T09:18:32Z</time>
      </trkpt>
      <trkpt lat="47.76375" lon="-3.53848">
        <ele>14</ele>
        <time>2019-07-15T09:18:33Z</time>
      </trkpt>
      <trkpt lat="47.76379" lon="-3.53852">
        <ele>14</ele>
        <time>2019-07-15T09:18:34Z</time>
      </trkpt>
      <trkpt lat="47.76383" lon="-3.53856">
        <ele>14</ele>
        <time>2019-07-15T09:18:35Z</time>
      </trkpt>
      <trkpt lat="47.76388" lon="-3.53858">
        <ele>14</ele>
        <time>2019-07-15T09:18:36Z</time>
      </trkpt>
      <trkpt lat="47.76393" lon="-3.53858">
        <ele>14</ele>
        <time>2019-07-15T09:18:37Z</time>
      </trkpt>
      <trkpt lat="47.76398" lon="-3.53858">
        <ele>14</ele>
        <time>2019-07-15T09:18:38Z</time>
      </trkpt>
      <trkpt lat="47.76403" lon="-3.53858">
        <ele>14</ele>
        <time>2019-07-15T09:18:39Z</time>
      </trkpt>
      <trkpt lat="47.76408" lon="-3.53859">
        <ele>14</ele>
        <time>2019-07-15T09:18:40Z</time>
      </trkpt>
      <trkpt lat="47.76413" lon="-3.5386">
        <ele>14</ele>
        <time>2019-07-15T09:18:41Z</time>
      </trkpt>
      <trkpt lat="47.76417" lon="-3.53863">
        <ele>14</ele>
        <time>2019-07-15T09:18:42Z</time>
      </trkpt>
      <trkpt lat="47.76422" lon="-3.53866">
        <ele>14</ele>
        <time>2019-07-15T09:18:43Z</time>
      </trkpt>
      <trkpt lat="47.76427" lon="-3.53868">
        <ele>13</ele>
        <time>2019-07-15T09:18:44Z</time>
      </trkpt>
      <trkpt lat="47.76432" lon="-3.53871">
        <ele>13</ele>
        <time>2019-07-15T09:18:45Z</time>
      </trkpt>
      <trkpt lat="47.76436" lon="-3.53873">
        <ele>13</ele>
        <time>2019-07-15T09:18:46Z</time>
      </trkpt>
      <trkpt lat="47.76441" lon="-3.53874">
        <ele>13</ele>
        <time>2019-07-15T09:18:47Z</time>
      </trkpt>
      <trkpt lat="47.76445" lon="-3.53873">
        <ele>13</ele>
        <time>2019-07-15T09:18:48Z</time>
      </trkpt>
      <trkpt lat="47.76448" lon="-3.5387">
        <ele>13</ele>
        <time>2019-07-15T09:18:49Z</time>
      </trkpt>
      <trkpt lat="47.76451" lon="-3.53866">
        <ele>13</ele>
        <time>2019-07-15T09:18:50Z</time>
      </trkpt>
      <trkpt lat="47.76453" lon="-3.53861">
        <ele>13</ele>
        <time>2019-07-15T09:18:51Z</time>
      </trkpt>
      <trkpt lat="47.76457" lon="-3.53857">
        <ele>13</ele>
        <time>2019-07-15T09:18:52Z</time>
      </trkpt>
      <trkpt lat="47.76461" lon="-3.53854">
        <ele>13</ele>
        <time>2019-07-15T09:18:53Z</time>
      </trkpt>
      <trkpt lat="47.76466" lon="-3.53853">
        <ele>13</ele>
        <time>2019-07-15T09:18:54Z</time>
      </trkpt>
      <trkpt lat="47.7647" lon="-3.53856">
        <ele>12</ele>
        <time>2019-07-15T09:18:55Z</time>
      </trkpt>
      <trkpt lat="47.76474" lon="-3.53859">
        <ele>12</ele>
        <time>2019-07-15T09:18:56Z</time>
      </trkpt>
      <trkpt lat="47.76478" lon="-3.53862">
        <ele>12</ele>
        <time>2019-07-15T09:18:57Z</time>
      </trkpt>
      <trkpt lat="47.76482" lon="-3.53864">
        <ele>12</ele>
        <time>2019-07-15T09:18:58Z</time>
      </trkpt>
      <trkpt lat="47.76487" lon="-3.53864">
        <ele>12</ele>
        <time>2019-07-15T09:18:59Z</time>
      </trkpt>
      <trkpt lat="47.76491" lon="-3.53862">
        <ele>12</ele>
        <time>2019-07-15T09:19:00Z</time>
      </trkpt>
      <trkpt lat="47.76495" lon="-3.5386">
        <ele>12</ele>
        <time>2019-07-15T09:19:01Z</time>
      </trkpt>
      <trkpt lat="47.76499" lon="-3.53857">
        <ele>12</ele>
        <time>2019-07-15T09:19:02Z</time>
      </trkpt>
      <trkpt lat="47.76503" lon="-3.53852">
        <ele>12</ele>
        <time>2019-07-15T09:19:03Z</time>
      </trkpt>
      <trkpt lat="47.76506" lon="-3.53848">
        <ele>13</ele>
        <time>2019-07-15T09:19:04Z</time>
      </trkpt>
      <trkpt lat="47.7651" lon="-3.53843">
        <ele>13</ele>
        <time>2019-07-15T09:19:05Z</time>
      </trkpt>
      <trkpt lat="47.76512" lon="-3.53838">
        <ele>13</ele>
        <time>2019-07-15T09:19:06Z</time>
      </trkpt>
      <trkpt lat="47.76514" lon="-3.53833">
        <ele>13</ele>
        <time>2019-07-15T09:19:07Z</time>
      </trkpt>
      <trkpt lat="47.76517" lon="-3.53828">
        <ele>13</ele>
        <time>2019-07-15T09:19:08Z</time>
      </trkpt>
      <trkpt lat="47.7652" lon="-3.53824">
        <ele>13</ele>
        <time>2019-07-15T09:19:09Z</time>
      </trkpt>
      <trkpt lat="47.76524" lon="-3.53821">
        <ele>13</ele>
        <time>2019-07-15T09:19:10Z</time>
      </trkpt>
      <trkpt lat="47.76527" lon="-3.53818">
        <ele>13</ele>
        <time>2019-07-15T09:19:11Z</time>
      </trkpt>
      <trkpt lat="47.7653" lon="-3.53812">
        <ele>13</ele>
        <time>2019-07-15T09:19:12Z</time>
      </trkpt>
      <trkpt lat="47.76534" lon="-3.53807">
        <ele>13</ele>
        <time>2019-07-15T09:19:13Z</time>
      </trkpt>
      <trkpt lat="47.76537" lon="-3.53804">
        <ele>13</ele>
        <time>2019-07-15T09:19:14Z</time>
      </trkpt>
      <trkpt lat="47.76542" lon="-3.53804">
        <ele>13</ele>
        <time>2019-07-15T09:19:15Z</time>
      </trkpt>
      <trkpt lat="47.76546" lon="-3.53805">
        <ele>13</ele>
        <time>2019-07-15T09:19:16Z</time>
      </trkpt>
      <trkpt lat="47.76551" lon="-3.53807">
        <ele>13</ele>
        <time>2019-07-15T09:19:17Z</time>
      </trkpt>
      <trkpt lat="47.76555" lon="-3.53806">
        <ele>13</ele>
        <time>2019-07-15T09:19:18Z</time>
      </trkpt>
      <trkpt lat="47.76559" lon="-3.53803">
        <ele>13</ele>
        <time>2019-07-15T09:19:19Z</time>
      </trkpt>
      <trkpt lat="47.76561" lon="-3.53798">
        <ele>13</ele>
        <time>2019-07-15T09:19:20Z</time>
      </trkpt>
      <trkpt lat="47.76564" lon="-3.53793">
        <ele>13</ele>
        <time>2019-07-15T09:19:21Z</time>
      </trkpt>
      <trkpt lat="47.76567" lon="-3.53788">
        <ele>13</ele>
        <time>2019-07-15T09:19:22Z</time>
      </trkpt>
      <trkpt lat="47.7657" lon="-3.53785">
        <ele>14</ele>
        <time>2019-07-15T09:19:23Z</time>
      </trkpt>
      <trkpt lat="47.76574" lon="-3.53782">
        <ele>14</ele>
        <time>2019-07-15T09:19:24Z</time>
      </trkpt>
      <trkpt lat="47.76577" lon="-3.5378">
        <ele>14</ele>
        <time>2019-07-15T09:19:25Z</time>
      </trkpt>
      <trkpt lat="47.76582" lon="-3.53778">
        <ele>14</ele>
        <time>2019-07-15T09:19:26Z</time>
      </trkpt>
      <trkpt lat="47.76586" lon="-3.53777">
        <ele>14</ele>
        <time>2019-07-15T09:19:27Z</time>
      </trkpt>
      <trkpt lat="47.7659" lon="-3.53775">
        <ele>14</ele>
        <time>2019-07-15T09:19:28Z</time>
      </trkpt>
      <trkpt lat="47.76594" lon="-3.53773">
        <ele>14</ele>
        <time>2019-07-15T09:19:29Z</time>
      </trkpt>
      <trkpt lat="47.76599" lon="-3.53769">
        <ele>14</ele>
        <time>2019-07-15T09:19:30Z</time>
      </trkpt>
      <trkpt lat="47.76603" lon="-3.53765">
        <ele>14</ele>
        <time>2019-07-15T09:19:31Z</time>
      </trkpt>
      <trkpt lat="47.76606" lon="-3.5376">
        <ele>14</ele>
        <time>2019-07-15T09:19:32Z</time>
      </trkpt>
      <trkpt lat="47.76609" lon="-3.53754">
        <ele>14</ele>
        <time>2019-07-15T09:19:33Z</time>
      </trkpt>
      <trkpt lat="47.76611" lon="-3.53748">
        <ele>14</ele>
        <time>2019-07-15T09:19:34Z</time>
      </trkpt>
      <trkpt lat="47.76612" lon="-3.5374">
        <ele>14</ele>
        <time>2019-07-15T09:19:35Z</time>
      </trkpt>
      <trkpt lat="47.76612" lon="-3.53733">
        <ele>14</ele>
        <time>2019-07-15T09:19:36Z</time>
      </trkpt>
      <trkpt lat="47.76612" lon="-3.53726">
        <ele>14</ele>
        <time>2019-07-15T09:19:37Z</time>
      </trkpt>
      <trkpt lat="47.76612" lon="-3.53719">
        <ele>15</ele>
        <time>2019-07-15T09:19:38Z</time>
      </trkpt>
      <trkpt lat="47.76613" lon="-3.53712">
        <ele>15</ele>
        <time>2019-07-15T09:19:39Z</time>
      </trkpt>
      <trkpt lat="47.76616" lon="-3.53706">
        <ele>15</ele>
        <time>2019-07-15T09:19:40Z</time>
      </trkpt>
      <trkpt lat="47.76618" lon="-3.53699">
        <ele>15</ele>
        <time>2019-07-15T09:19:41Z</time>
      </trkpt>
      <trkpt lat="47.76621" lon="-3.53693">
        <ele>15</ele>
        <time>2019-07-15T09:19:42Z</time>
      </trkpt>
      <trkpt lat="47.76623" lon="-3.53687">
        <ele>15</ele>
        <time>2019-07-15T09:19:43Z</time>
      </trkpt>
      <trkpt lat="47.76625" lon="-3.53682">
        <ele>15</ele>
        <time>2019-07-15T09:19:44Z</time>
      </trkpt>
      <trkpt lat="47.76627" lon="-3.53675">
        <ele>15</ele>
        <time>2019-07-15T09:19:45Z</time>
      </trkpt>
      <trkpt lat="47.76629" lon="-3.53669">
        <ele>15</ele>
        <time>2019-07-15T09:19:46Z</time>
      </trkpt>
      <trkpt lat="47.7663" lon="-3.53661">
        <ele>15</ele>
        <time>2019-07-15T09:19:47Z</time>
      </trkpt>
      <trkpt lat="47.76631" lon="-3.53654">
        <ele>15</ele>
        <time>2019-07-15T09:19:48Z</time>
      </trkpt>
      <trkpt lat="47.76633" lon="-3.53647">
        <ele>15</ele>
        <time>2019-07-15T09:19:49Z</time>
      </trkpt>
      <trkpt lat="47.76633" lon="-3.53639">
        <ele>15</ele>
        <time>2019-07-15T09:19:50Z</time>
      </trkpt>
      <trkpt lat="47.76634" lon="-3.53631">
        <ele>15</ele>
        <time>2019-07-15T09:19:51Z</time>
      </trkpt>
      <trkpt lat="47.76636" lon="-3.53624">
        <ele>15</ele>
        <time>2019-07-15T09:19:52Z</time>
      </trkpt>
      <trkpt lat="47.76637" lon="-3.53617">
        <ele>15</ele>
        <time>2019-07-15T09:19:53Z</time>
      </trkpt>
      <trkpt lat="47.76639" lon="-3.5361">
        <ele>15</ele>
        <time>2019-07-15T09:19:54Z</time>
      </trkpt>
      <trkpt lat="47.7664" lon="-3.53603">
        <ele>15</ele>
        <time>2019-07-15T09:19:55Z</time>
      </trkpt>
      <trkpt lat="47.76642" lon="-3.53597">
        <ele>15</ele>
        <time>2019-07-15T09:19:56Z</time>
      </trkpt>
      <trkpt lat="47.76644" lon="-3.53591">
        <ele>15</ele>
        <time>2019-07-15T09:19:57Z</time>
      </trkpt>
      <trkpt lat="47.76645" lon="-3.53585">
        <ele>15</ele>
        <time>2019-07-15T09:19:58Z</time>
      </trkpt>
      <trkpt lat="47.76646" lon="-3.53578">
        <ele>15</ele>
        <time>2019-07-15T09:19:59Z</time>
      </trkpt>
      <trkpt lat="47.76646" lon="-3.53571">
        <ele>15</ele>
        <time>2019-07-15T09:20:00Z</time>
      </trkpt>
      <trkpt lat="47.76646" lon="-3.53564">
        <ele>15</ele>
        <time>2019-07-15T09:20:01Z</time>
      </trkpt>
      <trkpt lat="47.76647" lon="-3.53556">
        <ele>15</ele>
        <time>2019-07-15T09:20:02Z</time>
      </trkpt>
      <trkpt lat="47.76647" lon="-3.53548">
        <ele>15</ele>
        <time>2019-07-15T09:20:03Z</time>
      </trkpt>
      <trkpt lat="47.76647" lon="-3.5354">
        <ele>15</ele>
        <time>2019-07-15T09:20:04Z</time>
      </trkpt>
      <trkpt lat="47.76649" lon="-3.53532">
        <ele>15</ele>
        <time>2019-07-15T09:20:05Z</time>
      </trkpt>
      <trkpt lat="47.76653" lon="-3.53527">
        <ele>15</ele>
        <time>2019-07-15T09:20:06Z</time>
      </trkpt>
      <trkpt lat="47.76656" lon="-3.53524">
        <ele>15</ele>
        <time>2019-07-15T09:20:07Z</time>
      </trkpt>
      <trkpt lat="47.7666" lon="-3.53521">
        <ele>15</ele>
        <time>2019-07-15T09:20:08Z</time>
      </trkpt>
      <trkpt lat="47.76662" lon="-3.53519">
        <ele>15</ele>
        <time>2019-07-15T09:20:09Z</time>
      </trkpt>
      <trkpt lat="47.76664" lon="-3.53518">
        <ele>16</ele>
        <time>2019-07-15T09:20:10Z</time>
      </trkpt>
      <trkpt lat="47.76666" lon="-3.53516">
        <ele>16</ele>
        <time>2019-07-15T09:20:11Z</time>
      </trkpt>
      <trkpt lat="47.76667" lon="-3.53515">
        <ele>16</ele>
        <time>2019-07-15T09:20:12Z</time>
      </trkpt>
      <trkpt lat="47.76668" lon="-3.53514">
        <ele>16</ele>
        <time>2019-07-15T09:20:13Z</time>
      </trkpt>
      <trkpt lat="47.76669" lon="-3.53512">
        <ele>16</ele>
        <time>2019-07-15T09:20:14Z</time>
      </trkpt>
      <trkpt lat="47.76671" lon="-3.5351">
        <ele>16</ele>
        <time>2019-07-15T09:20:15Z</time>
      </trkpt>
      <trkpt lat="47.76673" lon="-3.53506">
        <ele>17</ele>
        <time>2019-07-15T09:20:16Z</time>
      </trkpt>
      <trkpt lat="47.76674" lon="-3.53501">
        <ele>17</ele>
        <time>2019-07-15T09:20:17Z</time>
      </trkpt>
      <trkpt lat="47.76674" lon="-3.53495">
        <ele>17</ele>
        <time>2019-07-15T09:20:18Z</time>
      </trkpt>
      <trkpt lat="47.76675" lon="-3.53489">
        <ele>17</ele>
        <time>2019-07-15T09:20:19Z</time>
      </trkpt>
      <trkpt lat="47.76676" lon="-3.53483">
        <ele>17</ele>
        <time>2019-07-15T09:20:20Z</time>
      </trkpt>
      <trkpt lat="47.76676" lon="-3.53477">
        <ele>17</ele>
        <time>2019-07-15T09:20:21Z</time>
      </trkpt>
      <trkpt lat="47.76677" lon="-3.53473">
        <ele>17</ele>
        <time>2019-07-15T09:20:22Z</time>
      </trkpt>
      <trkpt lat="47.76679" lon="-3.53471">
        <ele>17</ele>
        <time>2019-07-15T09:20:23Z</time>
      </trkpt>
      <trkpt lat="47.7668" lon="-3.53467">
        <ele>17</ele>
        <time>2019-07-15T09:20:24Z</time>
      </trkpt>
      <trkpt lat="47.76683" lon="-3.53464">
        <ele>17</ele>
        <time>2019-07-15T09:20:25Z</time>
      </trkpt>
      <trkpt lat="47.76686" lon="-3.53463">
        <ele>17</ele>
        <time>2019-07-15T09:20:26Z</time>
      </trkpt>
      <trkpt lat="47.7669" lon="-3.53463">
        <ele>17</ele>
        <time>2019-07-15T09:20:27Z</time>
      </trkpt>
      <trkpt lat="47.76695" lon="-3.53461">
        <ele>17</ele>
        <time>2019-07-15T09:20:28Z</time>
      </trkpt>
      <trkpt lat="47.76699" lon="-3.53459">
        <ele>17</ele>
        <time>2019-07-15T09:20:29Z</time>
      </trkpt>
      <trkpt lat="47.76702" lon="-3.53456">
        <ele>17</ele>
        <time>2019-07-15T09:20:30Z</time>
      </trkpt>
      <trkpt lat="47.76706" lon="-3.53453">
        <ele>17</ele>
        <time>2019-07-15T09:20:31Z</time>
      </trkpt>
      <trkpt lat="47.76709" lon="-3.53448">
        <ele>17</ele>
        <time>2019-07-15T09:20:32Z</time>
      </trkpt>
      <trkpt lat="47.76712" lon="-3.53443">
        <ele>17</ele>
        <time>2019-07-15T09:20:33Z</time>
      </trkpt>
      <trkpt lat="47.76713" lon="-3.53436">
        <ele>17</ele>
        <time>2019-07-15T09:20:34Z</time>
      </trkpt>
      <trkpt lat="47.76713" lon="-3.53429">
        <ele>17</ele>
        <time>2019-07-15T09:20:35Z</time>
      </trkpt>
      <trkpt lat="47.76712" lon="-3.53422">
        <ele>16</ele>
        <time>2019-07-15T09:20:36Z</time>
      </trkpt>
      <trkpt lat="47.7671" lon="-3.53415">
        <ele>16</ele>
        <time>2019-07-15T09:20:37Z</time>
      </trkpt>
      <trkpt lat="47.76707" lon="-3.53408">
        <ele>16</ele>
        <time>2019-07-15T09:20:38Z</time>
      </trkpt>
      <trkpt lat="47.76706" lon="-3.53401">
        <ele>16</ele>
        <time>2019-07-15T09:20:39Z</time>
      </trkpt>
      <trkpt lat="47.76707" lon="-3.53393">
        <ele>16</ele>
        <time>2019-07-15T09:20:40Z</time>
      </trkpt>
      <trkpt lat="47.7671" lon="-3.53385">
        <ele>16</ele>
        <time>2019-07-15T09:20:41Z</time>
      </trkpt>
      <trkpt lat="47.76713" lon="-3.53377">
        <ele>15</ele>
        <time>2019-07-15T09:20:42Z</time>
      </trkpt>
      <trkpt lat="47.76716" lon="-3.53371">
        <ele>15</ele>
        <time>2019-07-15T09:20:43Z</time>
      </trkpt>
      <trkpt lat="47.76719" lon="-3.53367">
        <ele>16</ele>
        <time>2019-07-15T09:20:44Z</time>
      </trkpt>
      <trkpt lat="47.7672" lon="-3.53365">
        <ele>16</ele>
        <time>2019-07-15T09:20:45Z</time>
      </trkpt>
      <trkpt lat="47.76721" lon="-3.5336">
        <ele>16</ele>
        <time>2019-07-15T09:20:46Z</time>
      </trkpt>
      <trkpt lat="47.76721" lon="-3.53355">
        <ele>15</ele>
        <time>2019-07-15T09:20:47Z</time>
      </trkpt>
      <trkpt lat="47.76721" lon="-3.53348">
        <ele>15</ele>
        <time>2019-07-15T09:20:48Z</time>
      </trkpt>
      <trkpt lat="47.76721" lon="-3.53341">
        <ele>15</ele>
        <time>2019-07-15T09:20:49Z</time>
      </trkpt>
      <trkpt lat="47.76721" lon="-3.53334">
        <ele>15</ele>
        <time>2019-07-15T09:20:50Z</time>
      </trkpt>
      <trkpt lat="47.7672" lon="-3.53326">
        <ele>15</ele>
        <time>2019-07-15T09:20:51Z</time>
      </trkpt>
      <trkpt lat="47.7672" lon="-3.53318">
        <ele>15</ele>
        <time>2019-07-15T09:20:52Z</time>
      </trkpt>
      <trkpt lat="47.76722" lon="-3.5331">
        <ele>15</ele>
        <time>2019-07-15T09:20:53Z</time>
      </trkpt>
      <trkpt lat="47.76724" lon="-3.53303">
        <ele>14</ele>
        <time>2019-07-15T09:20:54Z</time>
      </trkpt>
      <trkpt lat="47.76728" lon="-3.53296">
        <ele>14</ele>
        <time>2019-07-15T09:20:55Z</time>
      </trkpt>
      <trkpt lat="47.76731" lon="-3.5329">
        <ele>14</ele>
        <time>2019-07-15T09:20:56Z</time>
      </trkpt>
      <trkpt lat="47.76735" lon="-3.53284">
        <ele>14</ele>
        <time>2019-07-15T09:20:57Z</time>
      </trkpt>
      <trkpt lat="47.76737" lon="-3.53278">
        <ele>14</ele>
        <time>2019-07-15T09:20:58Z</time>
      </trkpt>
      <trkpt lat="47.76737" lon="-3.53271">
        <ele>13</ele>
        <time>2019-07-15T09:20:59Z</time>
      </trkpt>
      <trkpt lat="47.76738" lon="-3.53265">
        <ele>13</ele>
        <time>2019-07-15T09:21:00Z</time>
      </trkpt>
      <trkpt lat="47.7674" lon="-3.5326">
        <ele>13</ele>
        <time>2019-07-15T09:21:01Z</time>
      </trkpt>
      <trkpt lat="47.76744" lon="-3.53255">
        <ele>13</ele>
        <time>2019-07-15T09:21:02Z</time>
      </trkpt>
      <trkpt lat="47.76747" lon="-3.53251">
        <ele>13</ele>
        <time>2019-07-15T09:21:03Z</time>
      </trkpt>
      <trkpt lat="47.76751" lon="-3.53247">
        <ele>13</ele>
        <time>2019-07-15T09:21:04Z</time>
      </trkpt>
      <trkpt lat="47.76756" lon="-3.53244">
        <ele>13</ele>
        <time>2019-07-15T09:21:05Z</time>
      </trkpt>
      <trkpt lat="47.7676" lon="-3.53242">
        <ele>12</ele>
        <time>2019-07-15T09:21:06Z</time>
      </trkpt>
      <trkpt lat="47.76762" lon="-3.5324">
        <ele>12</ele>
        <time>2019-07-15T09:21:07Z</time>
      </trkpt>
      <trkpt lat="47.76764" lon="-3.53239">
        <ele>12</ele>
        <time>2019-07-15T09:21:08Z</time>
      </trkpt>
      <trkpt lat="47.76764" lon="-3.53239">
        <ele>12</ele>
        <time>2019-07-15T09:21:09Z</time>
      </trkpt>
      <trkpt lat="47.76764" lon="-3.53239">
        <ele>12</ele>
        <time>2019-07-15T09:21:10Z</time>
      </trkpt>
      <trkpt lat="47.76762" lon="-3.53239">
        <ele>10</ele>
        <time>2019-07-15T09:21:11Z</time>
      </trkpt>
      <trkpt lat="47.7676" lon="-3.5324">
        <ele>10</ele>
        <time>2019-07-15T09:21:12Z</time>
      </trkpt>
      <trkpt lat="47.76758" lon="-3.53242">
        <ele>10</ele>
        <time>2019-07-15T09:21:13Z</time>
      </trkpt>
      <trkpt lat="47.76755" lon="-3.53243">
        <ele>10</ele>
        <time>2019-07-15T09:21:14Z</time>
      </trkpt>
      <trkpt lat="47.76752" lon="-3.53245">
        <ele>9</ele>
        <time>2019-07-15T09:21:15Z</time>
      </trkpt>
      <trkpt lat="47.7675" lon="-3.53248">
        <ele>9</ele>
        <time>2019-07-15T09:21:16Z</time>
      </trkpt>
      <trkpt lat="47.76747" lon="-3.53251">
        <ele>9</ele>
        <time>2019-07-15T09:21:17Z</time>
      </trkpt>
      <trkpt lat="47.76744" lon="-3.53254">
        <ele>9</ele>
        <time>2019-07-15T09:21:18Z</time>
      </trkpt>
      <trkpt lat="47.76741" lon="-3.53257">
        <ele>9</ele>
        <time>2019-07-15T09:21:19Z</time>
      </trkpt>
      <trkpt lat="47.76739" lon="-3.53262">
        <ele>9</ele>
        <time>2019-07-15T09:21:20Z</time>
      </trkpt>
      <trkpt lat="47.76738" lon="-3.53266">
        <ele>9</ele>
        <time>2019-07-15T09:21:21Z</time>
      </trkpt>
      <trkpt lat="47.76738" lon="-3.5327">
        <ele>9</ele>
        <time>2019-07-15T09:21:22Z</time>
      </trkpt>
      <trkpt lat="47.76738" lon="-3.53275">
        <ele>9</ele>
        <time>2019-07-15T09:21:23Z</time>
      </trkpt>
      <trkpt lat="47.76737" lon="-3.53279">
        <ele>9</ele>
        <time>2019-07-15T09:21:24Z</time>
      </trkpt>
      <trkpt lat="47.76735" lon="-3.53283">
        <ele>8</ele>
        <time>2019-07-15T09:21:25Z</time>
      </trkpt>
      <trkpt lat="47.76733" lon="-3.53287">
        <ele>8</ele>
        <time>2019-07-15T09:21:26Z</time>
      </trkpt>
      <trkpt lat="47.76731" lon="-3.5329">
        <ele>8</ele>
        <time>2019-07-15T09:21:27Z</time>
      </trkpt>
      <trkpt lat="47.76729" lon="-3.53294">
        <ele>8</ele>
        <time>2019-07-15T09:21:28Z</time>
      </trkpt>
      <trkpt lat="47.76727" lon="-3.53298">
        <ele>8</ele>
        <time>2019-07-15T09:21:29Z</time>
      </trkpt>
      <trkpt lat="47.76725" lon="-3.53301">
        <ele>8</ele>
        <time>2019-07-15T09:21:30Z</time>
      </trkpt>
      <trkpt lat="47.76724" lon="-3.53306">
        <ele>8</ele>
        <time>2019-07-15T09:21:31Z</time>
      </trkpt>
      <trkpt lat="47.76723" lon="-3.5331">
        <ele>9</ele>
        <time>2019-07-15T09:21:32Z</time>
      </trkpt>
      <trkpt lat="47.76722" lon="-3.53313">
        <ele>9</ele>
        <time>2019-07-15T09:21:33Z</time>
      </trkpt>
      <trkpt lat="47.76722" lon="-3.53316">
        <ele>9</ele>
        <time>2019-07-15T09:21:34Z</time>
      </trkpt>
      <trkpt lat="47.76722" lon="-3.53318">
        <ele>9</ele>
        <time>2019-07-15T09:21:35Z</time>
      </trkpt>
      <trkpt lat="47.76722" lon="-3.53319">
        <ele>9</ele>
        <time>2019-07-15T09:21:36Z</time>
      </trkpt>
      <trkpt lat="47.76723" lon="-3.53319">
        <ele>9</ele>
        <time>2019-07-15T09:21:37Z</time>
      </trkpt>
      <trkpt lat="47.76723" lon="-3.53319">
        <ele>9</ele>
        <time>2019-07-15T09:21:38Z</time>
      </trkpt>
      <trkpt lat="47.76722" lon="-3.53323">
        <ele>9</ele>
        <time>2019-07-15T09:21:39Z</time>
      </trkpt>
      <trkpt lat="47.76722" lon="-3.53325">
        <ele>9</ele>
        <time>2019-07-15T09:21:40Z</time>
      </trkpt>
      <trkpt lat="47.76721" lon="-3.53328">
        <ele>9</ele>
        <time>2019-07-15T09:21:41Z</time>
      </trkpt>
      <trkpt lat="47.76722" lon="-3.5333">
        <ele>9</ele>
        <time>2019-07-15T09:21:42Z</time>
      </trkpt>
      <trkpt lat="47.76722" lon="-3.53334">
        <ele>9</ele>
        <time>2019-07-15T09:21:43Z</time>
      </trkpt>
      <trkpt lat="47.76722" lon="-3.53338">
        <ele>9</ele>
        <time>2019-07-15T09:21:44Z</time>
      </trkpt>
      <trkpt lat="47.76723" lon="-3.53342">
        <ele>9</ele>
        <time>2019-07-15T09:21:45Z</time>
      </trkpt>
      <trkpt lat="47.76723" lon="-3.53346">
        <ele>9</ele>
        <time>2019-07-15T09:21:46Z</time>
      </trkpt>
      <trkpt lat="47.76723" lon="-3.53351">
        <ele>9</ele>
        <time>2019-07-15T09:21:47Z</time>
      </trkpt>
      <trkpt lat="47.76723" lon="-3.53355">
        <ele>9</ele>
        <time>2019-07-15T09:21:48Z</time>
      </trkpt>
      <trkpt lat="47.76723" lon="-3.53358">
        <ele>9</ele>
        <time>2019-07-15T09:21:49Z</time>
      </trkpt>
      <trkpt lat="47.76723" lon="-3.53361">
        <ele>9</ele>
        <time>2019-07-15T09:21:50Z</time>
      </trkpt>
      <trkpt lat="47.76724" lon="-3.53364">
        <ele>9</ele>
        <time>2019-07-15T09:21:51Z</time>
      </trkpt>
      <trkpt lat="47.76725" lon="-3.53366">
        <ele>9</ele>
        <time>2019-07-15T09:21:52Z</time>
      </trkpt>
      <trkpt lat="47.76728" lon="-3.53367">
        <ele>9</ele>
        <time>2019-07-15T09:21:53Z</time>
      </trkpt>
      <trkpt lat="47.76731" lon="-3.53368">
        <ele>9</ele>
        <time>2019-07-15T09:21:54Z</time>
      </trkpt>
      <trkpt lat="47.76734" lon="-3.5337">
        <ele>9</ele>
        <time>2019-07-15T09:21:55Z</time>
      </trkpt>
      <trkpt lat="47.76736" lon="-3.53371">
        <ele>10</ele>
        <time>2019-07-15T09:21:56Z</time>
      </trkpt>
      <trkpt lat="47.76739" lon="-3.53373">
        <ele>10</ele>
        <time>2019-07-15T09:21:57Z</time>
      </trkpt>
      <trkpt lat="47.76742" lon="-3.53374">
        <ele>10</ele>
        <time>2019-07-15T09:21:58Z</time>
      </trkpt>
      <trkpt lat="47.76746" lon="-3.53376">
        <ele>10</ele>
        <time>2019-07-15T09:21:59Z</time>
      </trkpt>
      <trkpt lat="47.76749" lon="-3.53378">
        <ele>10</ele>
        <time>2019-07-15T09:22:00Z</time>
      </trkpt>
      <trkpt lat="47.76752" lon="-3.53379">
        <ele>10</ele>
        <time>2019-07-15T09:22:01Z</time>
      </trkpt>
      <trkpt lat="47.76755" lon="-3.5338">
        <ele>10</ele>
        <time>2019-07-15T09:22:02Z</time>
      </trkpt>
      <trkpt lat="47.76758" lon="-3.53381">
        <ele>10</ele>
        <time>2019-07-15T09:22:03Z</time>
      </trkpt>
      <trkpt lat="47.76761" lon="-3.53381">
        <ele>10</ele>
        <time>2019-07-15T09:22:04Z</time>
      </trkpt>
      <trkpt lat="47.76764" lon="-3.53381">
        <ele>11</ele>
        <time>2019-07-15T09:22:05Z</time>
      </trkpt>
      <trkpt lat="47.76767" lon="-3.53382">
        <ele>11</ele>
        <time>2019-07-15T09:22:06Z</time>
      </trkpt>
      <trkpt lat="47.7677" lon="-3.53383">
        <ele>11</ele>
        <time>2019-07-15T09:22:07Z</time>
      </trkpt>
      <trkpt lat="47.76774" lon="-3.53384">
        <ele>11</ele>
        <time>2019-07-15T09:22:08Z</time>
      </trkpt>
      <trkpt lat="47.76777" lon="-3.53385">
        <ele>11</ele>
        <time>2019-07-15T09:22:09Z</time>
      </trkpt>
      <trkpt lat="47.76781" lon="-3.53387">
        <ele>11</ele>
        <time>2019-07-15T09:22:10Z</time>
      </trkpt>
      <trkpt lat="47.76785" lon="-3.53389">
        <ele>12</ele>
        <time>2019-07-15T09:22:11Z</time>
      </trkpt>
      <trkpt lat="47.76789" lon="-3.53391">
        <ele>12</ele>
        <time>2019-07-15T09:22:12Z</time>
      </trkpt>
      <trkpt lat="47.76793" lon="-3.53393">
        <ele>12</ele>
        <time>2019-07-15T09:22:13Z</time>
      </trkpt>
      <trkpt lat="47.76797" lon="-3.53395">
        <ele>12</ele>
        <time>2019-07-15T09:22:14Z</time>
      </trkpt>
      <trkpt lat="47.76801" lon="-3.53397">
        <ele>12</ele>
        <time>2019-07-15T09:22:15Z</time>
      </trkpt>
      <trkpt lat="47.76804" lon="-3.53398">
        <ele>12</ele>
        <time>2019-07-15T09:22:16Z</time>
      </trkpt>
      <trkpt lat="47.76809" lon="-3.53397">
        <ele>12</ele>
        <time>2019-07-15T09:22:17Z</time>
      </trkpt>
      <trkpt lat="47.76812" lon="-3.53393">
        <ele>12</ele>
        <time>2019-07-15T09:22:18Z</time>
      </trkpt>
      <trkpt lat="47.76814" lon="-3.53386">
        <ele>12</ele>
        <time>2019-07-15T09:22:19Z</time>
      </trkpt>
      <trkpt lat="47.76816" lon="-3.53378">
        <ele>12</ele>
        <time>2019-07-15T09:22:20Z</time>
      </trkpt>
      <trkpt lat="47.76817" lon="-3.53369">
        <ele>12</ele>
        <time>2019-07-15T09:22:21Z</time>
      </trkpt>
      <trkpt lat="47.76819" lon="-3.5336">
        <ele>12</ele>
        <time>2019-07-15T09:22:22Z</time>
      </trkpt>
      <trkpt lat="47.7682" lon="-3.5335">
        <ele>11</ele>
        <time>2019-07-15T09:22:23Z</time>
      </trkpt>
      <trkpt lat="47.76823" lon="-3.5334">
        <ele>11</ele>
        <time>2019-07-15T09:22:24Z</time>
      </trkpt>
      <trkpt lat="47.76826" lon="-3.5333">
        <ele>11</ele>
        <time>2019-07-15T09:22:25Z</time>
      </trkpt>
      <trkpt lat="47.7683" lon="-3.53319">
        <ele>10</ele>
        <time>2019-07-15T09:22:26Z</time>
      </trkpt>
      <trkpt lat="47.76833" lon="-3.5331">
        <ele>10</ele>
        <time>2019-07-15T09:22:27Z</time>
      </trkpt>
      <trkpt lat="47.76836" lon="-3.533">
        <ele>10</ele>
        <time>2019-07-15T09:22:28Z</time>
      </trkpt>
      <trkpt lat="47.76839" lon="-3.5329">
        <ele>9</ele>
        <time>2019-07-15T09:22:29Z</time>
      </trkpt>
      <trkpt lat="47.76843" lon="-3.53282">
        <ele>9</ele>
        <time>2019-07-15T09:22:30Z</time>
      </trkpt>
      <trkpt lat="47.76848" lon="-3.53273">
        <ele>8</ele>
        <time>2019-07-15T09:22:31Z</time>
      </trkpt>
      <trkpt lat="47.76853" lon="-3.53266">
        <ele>8</ele>
        <time>2019-07-15T09:22:32Z</time>
      </trkpt>
      <trkpt lat="47.7686" lon="-3.53258">
        <ele>7</ele>
        <time>2019-07-15T09:22:33Z</time>
      </trkpt>
      <trkpt lat="47.76866" lon="-3.53251">
        <ele>7</ele>
        <time>2019-07-15T09:22:34Z</time>
      </trkpt>
      <trkpt lat="47.76873" lon="-3.53244">
        <ele>6</ele>
        <time>2019-07-15T09:22:35Z</time>
      </trkpt>
      <trkpt lat="47.7688" lon="-3.53239">
        <ele>6</ele>
        <time>2019-07-15T09:22:36Z</time>
      </trkpt>
      <trkpt lat="47.76887" lon="-3.53235">
        <ele>6</ele>
        <time>2019-07-15T09:22:37Z</time>
      </trkpt>
      <trkpt lat="47.76893" lon="-3.53231">
        <ele>5</ele>
        <time>2019-07-15T09:22:38Z</time>
      </trkpt>
      <trkpt lat="47.769" lon="-3.53228">
        <ele>5</ele>
        <time>2019-07-15T09:22:39Z</time>
      </trkpt>
      <trkpt lat="47.76907" lon="-3.53226">
        <ele>5</ele>
        <time>2019-07-15T09:22:40Z</time>
      </trkpt>
      <trkpt lat="47.76913" lon="-3.53224">
        <ele>5</ele>
        <time>2019-07-15T09:22:41Z</time>
      </trkpt>
      <trkpt lat="47.76919" lon="-3.53223">
        <ele>5</ele>
        <time>2019-07-15T09:22:42Z</time>
      </trkpt>
      <trkpt lat="47.76925" lon="-3.53223">
        <ele>5</ele>
        <time>2019-07-15T09:22:43Z</time>
      </trkpt>
      <trkpt lat="47.76931" lon="-3.53222">
        <ele>5</ele>
        <time>2019-07-15T09:22:44Z</time>
      </trkpt>
      <trkpt lat="47.76936" lon="-3.53221">
        <ele>5</ele>
        <time>2019-07-15T09:22:45Z</time>
      </trkpt>
      <trkpt lat="47.76942" lon="-3.5322">
        <ele>5</ele>
        <time>2019-07-15T09:22:46Z</time>
      </trkpt>
      <trkpt lat="47.76948" lon="-3.5322">
        <ele>5</ele>
        <time>2019-07-15T09:22:47Z</time>
      </trkpt>
      <trkpt lat="47.76953" lon="-3.53219">
        <ele>4</ele>
        <time>2019-07-15T09:22:48Z</time>
      </trkpt>
      <trkpt lat="47.76958" lon="-3.53219">
        <ele>4</ele>
        <time>2019-07-15T09:22:49Z</time>
      </trkpt>
      <trkpt lat="47.76963" lon="-3.53218">
        <ele>4</ele>
        <time>2019-07-15T09:22:50Z</time>
      </trkpt>
      <trkpt lat="47.76968" lon="-3.53218">
        <ele>4</ele>
        <time>2019-07-15T09:22:51Z</time>
      </trkpt>
      <trkpt lat="47.76973" lon="-3.53218">
        <ele>5</ele>
        <time>2019-07-15T09:22:52Z</time>
      </trkpt>
      <trkpt lat="47.76978" lon="-3.53219">
        <ele>5</ele>
        <time>2019-07-15T09:22:53Z</time>
      </trkpt>
      <trkpt lat="47.76982" lon="-3.5322">
        <ele>5</ele>
        <time>2019-07-15T09:22:54Z</time>
      </trkpt>
      <trkpt lat="47.76986" lon="-3.53222">
        <ele>5</ele>
        <time>2019-07-15T09:22:55Z</time>
      </trkpt>
      <trkpt lat="47.7699" lon="-3.53224">
        <ele>5</ele>
        <time>2019-07-15T09:22:56Z</time>
      </trkpt>
      <trkpt lat="47.76993" lon="-3.53226">
        <ele>5</ele>
        <time>2019-07-15T09:22:57Z</time>
      </trkpt>
      <trkpt lat="47.76997" lon="-3.53227">
        <ele>5</ele>
        <time>2019-07-15T09:22:58Z</time>
      </trkpt>
      <trkpt lat="47.77001" lon="-3.53226">
        <ele>5</ele>
        <time>2019-07-15T09:22:59Z</time>
      </trkpt>
      <trkpt lat="47.77005" lon="-3.53223">
        <ele>5</ele>
        <time>2019-07-15T09:23:00Z</time>
      </trkpt>
      <trkpt lat="47.7701" lon="-3.53221">
        <ele>5</ele>
        <time>2019-07-15T09:23:01Z</time>
      </trkpt>
      <trkpt lat="47.77014" lon="-3.53218">
        <ele>4</ele>
        <time>2019-07-15T09:23:02Z</time>
      </trkpt>
      <trkpt lat="47.7702" lon="-3.53215">
        <ele>4</ele>
        <time>2019-07-15T09:23:03Z</time>
      </trkpt>
      <trkpt lat="47.77026" lon="-3.53212">
        <ele>4</ele>
        <time>2019-07-15T09:23:04Z</time>
      </trkpt>
      <trkpt lat="47.77032" lon="-3.53208">
        <ele>4</ele>
        <time>2019-07-15T09:23:05Z</time>
      </trkpt>
      <trkpt lat="47.77038" lon="-3.53204">
        <ele>4</ele>
        <time>2019-07-15T09:23:06Z</time>
      </trkpt>
      <trkpt lat="47.77045" lon="-3.532">
        <ele>4</ele>
        <time>2019-07-15T09:23:07Z</time>
      </trkpt>
      <trkpt lat="47.77051" lon="-3.53197">
        <ele>4</ele>
        <time>2019-07-15T09:23:08Z</time>
      </trkpt>
      <trkpt lat="47.77057" lon="-3.53194">
        <ele>4</ele>
        <time>2019-07-15T09:23:09Z</time>
      </trkpt>
      <trkpt lat="47.77063" lon="-3.53192">
        <ele>4</ele>
        <time>2019-07-15T09:23:10Z</time>
      </trkpt>
      <trkpt lat="47.77067" lon="-3.53189">
        <ele>4</ele>
        <time>2019-07-15T09:23:11Z</time>
      </trkpt>
      <trkpt lat="47.77072" lon="-3.53185">
        <ele>4</ele>
        <time>2019-07-15T09:23:12Z</time>
      </trkpt>
      <trkpt lat="47.77076" lon="-3.53182">
        <ele>4</ele>
        <time>2019-07-15T09:23:13Z</time>
      </trkpt>
      <trkpt lat="47.7708" lon="-3.53177">
        <ele>4</ele>
        <time>2019-07-15T09:23:14Z</time>
      </trkpt>
      <trkpt lat="47.77083" lon="-3.53173">
        <ele>4</ele>
        <time>2019-07-15T09:23:15Z</time>
      </trkpt>
      <trkpt lat="47.77086" lon="-3.53168">
        <ele>4</ele>
        <time>2019-07-15T09:23:16Z</time>
      </trkpt>
      <trkpt lat="47.7709" lon="-3.53164">
        <ele>4</ele>
        <time>2019-07-15T09:23:17Z</time>
      </trkpt>
      <trkpt lat="47.77093" lon="-3.5316">
        <ele>4</ele>
        <time>2019-07-15T09:23:18Z</time>
      </trkpt>
      <trkpt lat="47.77097" lon="-3.53157">
        <ele>4</ele>
        <time>2019-07-15T09:23:19Z</time>
      </trkpt>
      <trkpt lat="47.771" lon="-3.53157">
        <ele>4</ele>
        <time>2019-07-15T09:23:20Z</time>
      </trkpt>
      <trkpt lat="47.77104" lon="-3.53159">
        <ele>4</ele>
        <time>2019-07-15T09:23:21Z</time>
      </trkpt>
      <trkpt lat="47.77106" lon="-3.53162">
        <ele>4</ele>
        <time>2019-07-15T09:23:22Z</time>
      </trkpt>
      <trkpt lat="47.77109" lon="-3.53165">
        <ele>4</ele>
        <time>2019-07-15T09:23:23Z</time>
      </trkpt>
      <trkpt lat="47.77112" lon="-3.53169">
        <ele>3</ele>
        <time>2019-07-15T09:23:24Z</time>
      </trkpt>
      <trkpt lat="47.77115" lon="-3.53173">
        <ele>3</ele>
        <time>2019-07-15T09:23:25Z</time>
      </trkpt>
      <trkpt lat="47.77117" lon="-3.53176">
        <ele>3</ele>
        <time>2019-07-15T09:23:26Z</time>
      </trkpt>
      <trkpt lat="47.77118" lon="-3.53179">
        <ele>3</ele>
        <time>2019-07-15T09:23:27Z</time>
      </trkpt>
      <trkpt lat="47.7712" lon="-3.53182">
        <ele>3</ele>
        <time>2019-07-15T09:23:28Z</time>
      </trkpt>
      <trkpt lat="47.77122" lon="-3.53185">
        <ele>3</ele>
        <time>2019-07-15T09:23:29Z</time>
      </trkpt>
      <trkpt lat="47.77123" lon="-3.53189">
        <ele>2</ele>
        <time>2019-07-15T09:23:30Z</time>
      </trkpt>
      <trkpt lat="47.77125" lon="-3.53192">
        <ele>2</ele>
        <time>2019-07-15T09:23:31Z</time>
      </trkpt>
      <trkpt lat="47.77127" lon="-3.53195">
        <ele>2</ele>
        <time>2019-07-15T09:23:32Z</time>
      </trkpt>
      <trkpt lat="47.77129" lon="-3.53197">
        <ele>2</ele>
        <time>2019-07-15T09:23:33Z</time>
      </trkpt>
      <trkpt lat="47.77131" lon="-3.532">
        <ele>2</ele>
        <time>2019-07-15T09:23:34Z</time>
      </trkpt>
      <trkpt lat="47.77133" lon="-3.53203">
        <ele>2</ele>
        <time>2019-07-15T09:23:35Z</time>
      </trkpt>
      <trkpt lat="47.77136" lon="-3.53206">
        <ele>2</ele>
        <time>2019-07-15T09:23:36Z</time>
      </trkpt>
      <trkpt lat="47.77138" lon="-3.53208">
        <ele>2</ele>
        <time>2019-07-15T09:23:37Z</time>
      </trkpt>
      <trkpt lat="47.77141" lon="-3.53211">
        <ele>1</ele>
        <time>2019-07-15T09:23:38Z</time>
      </trkpt>
      <trkpt lat="47.77142" lon="-3.53216">
        <ele>1</ele>
        <time>2019-07-15T09:23:39Z</time>
      </trkpt>
      <trkpt lat="47.77145" lon="-3.5322">
        <ele>1</ele>
        <time>2019-07-15T09:23:40Z</time>
      </trkpt>
      <trkpt lat="47.77147" lon="-3.53224">
        <ele>1</ele>
        <time>2019-07-15T09:23:41Z</time>
      </trkpt>
      <trkpt lat="47.77149" lon="-3.53227">
        <ele>1</ele>
        <time>2019-07-15T09:23:42Z</time>
      </trkpt>
      <trkpt lat="47.77152" lon="-3.53229">
        <ele>1</ele>
        <time>2019-07-15T09:23:43Z</time>
      </trkpt>
      <trkpt lat="47.77156" lon="-3.53229">
        <ele>1</ele>
        <time>2019-07-15T09:23:44Z</time>
      </trkpt>
      <trkpt lat="47.7716" lon="-3.5323">
        <ele>1</ele>
        <time>2019-07-15T09:23:45Z</time>
      </trkpt>
      <trkpt lat="47.77164" lon="-3.53231">
        <ele>1</ele>
        <time>2019-07-15T09:23:46Z</time>
      </trkpt>
      <trkpt lat="47.77168" lon="-3.53234">
        <ele>1</ele>
        <time>2019-07-15T09:23:47Z</time>
      </trkpt>
      <trkpt lat="47.7717" lon="-3.53237">
        <ele>1</ele>
        <time>2019-07-15T09:23:48Z</time>
      </trkpt>
      <trkpt lat="47.77173" lon="-3.5324">
        <ele>1</ele>
        <time>2019-07-15T09:23:49Z</time>
      </trkpt>
      <trkpt lat="47.77174" lon="-3.53243">
        <ele>1</ele>
        <time>2019-07-15T09:23:50Z</time>
      </trkpt>
      <trkpt lat="47.77175" lon="-3.53244">
        <ele>1</ele>
        <time>2019-07-15T09:23:51Z</time>
      </trkpt>
      <trkpt lat="47.77175" lon="-3.53244">
        <ele>1</ele>
        <time>2019-07-15T09:23:52Z</time>
      </trkpt>
      <trkpt lat="47.77175" lon="-3.53244">
        <ele>1</ele>
        <time>2019-07-15T09:23:53Z</time>
      </trkpt>
      <trkpt lat="47.77175" lon="-3.53244">
        <ele>1</ele>
        <time>2019-07-15T09:23:54Z</time>
      </trkpt>
      <trkpt lat="47.77171" lon="-3.53237">
        <ele>1</ele>
        <time>2019-07-15T09:23:55Z</time>
      </trkpt>
      <trkpt lat="47.7717" lon="-3.53234">
        <ele>1</ele>
        <time>2019-07-15T09:23:56Z</time>
      </trkpt>
      <trkpt lat="47.77168" lon="-3.53233">
        <ele>1</ele>
        <time>2019-07-15T09:23:57Z</time>
      </trkpt>
      <trkpt lat="47.77165" lon="-3.53232">
        <ele>1</ele>
        <time>2019-07-15T09:23:58Z</time>
      </trkpt>
      <trkpt lat="47.77162" lon="-3.53231">
        <ele>1</ele>
        <time>2019-07-15T09:23:59Z</time>
      </trkpt>
      <trkpt lat="47.7716" lon="-3.53229">
        <ele>1</ele>
        <time>2019-07-15T09:24:00Z</time>
      </trkpt>
      <trkpt lat="47.77157" lon="-3.53229">
        <ele>1</ele>
        <time>2019-07-15T09:24:01Z</time>
      </trkpt>
      <trkpt lat="47.77154" lon="-3.5323">
        <ele>1</ele>
        <time>2019-07-15T09:24:02Z</time>
      </trkpt>
      <trkpt lat="47.77152" lon="-3.53228">
        <ele>1</ele>
        <time>2019-07-15T09:24:03Z</time>
      </trkpt>
      <trkpt lat="47.77149" lon="-3.53226">
        <ele>1</ele>
        <time>2019-07-15T09:24:04Z</time>
      </trkpt>
      <trkpt lat="47.77147" lon="-3.53222">
        <ele>1</ele>
        <time>2019-07-15T09:24:05Z</time>
      </trkpt>
      <trkpt lat="47.77145" lon="-3.53218">
        <ele>1</ele>
        <time>2019-07-15T09:24:06Z</time>
      </trkpt>
      <trkpt lat="47.77144" lon="-3.53215">
        <ele>1</ele>
        <time>2019-07-15T09:24:07Z</time>
      </trkpt>
      <trkpt lat="47.77143" lon="-3.53214">
        <ele>1</ele>
        <time>2019-07-15T09:24:08Z</time>
      </trkpt>
      <trkpt lat="47.77143" lon="-3.53214">
        <ele>1</ele>
        <time>2019-07-15T09:24:09Z</time>
      </trkpt>
      <trkpt lat="47.77143" lon="-3.53214">
        <ele>3.1</ele>
        <time>2019-07-15T09:24:10Z</time>
      </trkpt>
      <trkpt lat="47.77143" lon="-3.53214">
        <ele>3.1</ele>
        <time>2019-07-15T09:24:11Z</time>
      </trkpt>
      <trkpt lat="47.77133" lon="-3.53241">
        <ele>10</ele>
        <time>2019-07-15T09:24:12Z</time>
      </trkpt>
      <trkpt lat="47.77135" lon="-3.53243">
        <ele>10</ele>
        <time>2019-07-15T09:24:13Z</time>
      </trkpt>
      <trkpt lat="47.77137" lon="-3.53244">
        <ele>10</ele>
        <time>2019-07-15T09:24:14Z</time>
      </trkpt>
      <trkpt lat="47.77139" lon="-3.53246">
        <ele>10</ele>
        <time>2019-07-15T09:24:15Z</time>
      </trkpt>
      <trkpt lat="47.7714" lon="-3.53249">
        <ele>11</ele>
        <time>2019-07-15T09:24:16Z</time>
      </trkpt>
      <trkpt lat="47.77142" lon="-3.53251">
        <ele>11</ele>
        <time>2019-07-15T09:24:17Z</time>
      </trkpt>
      <trkpt lat="47.77145" lon="-3.53254">
        <ele>11</ele>
        <time>2019-07-15T09:24:18Z</time>
      </trkpt>
      <trkpt lat="47.77148" lon="-3.53257">
        <ele>11</ele>
        <time>2019-07-15T09:24:19Z</time>
      </trkpt>
      <trkpt lat="47.77151" lon="-3.5326">
        <ele>11</ele>
        <time>2019-07-15T09:24:20Z</time>
      </trkpt>
      <trkpt lat="47.77154" lon="-3.53263">
        <ele>11</ele>
        <time>2019-07-15T09:24:21Z</time>
      </trkpt>
      <trkpt lat="47.77157" lon="-3.53267">
        <ele>12</ele>
        <time>2019-07-15T09:24:22Z</time>
      </trkpt>
      <trkpt lat="47.7716" lon="-3.53271">
        <ele>12</ele>
        <time>2019-07-15T09:24:23Z</time>
      </trkpt>
      <trkpt lat="47.77162" lon="-3.53276">
        <ele>12</ele>
        <time>2019-07-15T09:24:24Z</time>
      </trkpt>
      <trkpt lat="47.77165" lon="-3.53282">
        <ele>12</ele>
        <time>2019-07-15T09:24:25Z</time>
      </trkpt>
      <trkpt lat="47.77167" lon="-3.53288">
        <ele>12</ele>
        <time>2019-07-15T09:24:26Z</time>
      </trkpt>
      <trkpt lat="47.77168" lon="-3.53294">
        <ele>12</ele>
        <time>2019-07-15T09:24:27Z</time>
      </trkpt>
      <trkpt lat="47.77169" lon="-3.533">
        <ele>12</ele>
        <time>2019-07-15T09:24:28Z</time>
      </trkpt>
      <trkpt lat="47.77171" lon="-3.53305">
        <ele>12</ele>
        <time>2019-07-15T09:24:29Z</time>
      </trkpt>
      <trkpt lat="47.77172" lon="-3.5331">
        <ele>13</ele>
        <time>2019-07-15T09:24:30Z</time>
      </trkpt>
      <trkpt lat="47.77175" lon="-3.53316">
        <ele>13</ele>
        <time>2019-07-15T09:24:31Z</time>
      </trkpt>
      <trkpt lat="47.77178" lon="-3.53321">
        <ele>13</ele>
        <time>2019-07-15T09:24:32Z</time>
      </trkpt>
      <trkpt lat="47.77182" lon="-3.53324">
        <ele>12</ele>
        <time>2019-07-15T09:24:33Z</time>
      </trkpt>
      <trkpt lat="47.77186" lon="-3.53327">
        <ele>12</ele>
        <time>2019-07-15T09:24:34Z</time>
      </trkpt>
      <trkpt lat="47.77191" lon="-3.53329">
        <ele>12</ele>
        <time>2019-07-15T09:24:35Z</time>
      </trkpt>
      <trkpt lat="47.77195" lon="-3.53331">
        <ele>12</ele>
        <time>2019-07-15T09:24:36Z</time>
      </trkpt>
      <trkpt lat="47.772" lon="-3.53332">
        <ele>12</ele>
        <time>2019-07-15T09:24:37Z</time>
      </trkpt>
      <trkpt lat="47.77204" lon="-3.53334">
        <ele>12</ele>
        <time>2019-07-15T09:24:38Z</time>
      </trkpt>
      <trkpt lat="47.77208" lon="-3.53336">
        <ele>12</ele>
        <time>2019-07-15T09:24:39Z</time>
      </trkpt>
      <trkpt lat="47.77212" lon="-3.53339">
        <ele>12</ele>
        <time>2019-07-15T09:24:40Z</time>
      </trkpt>
      <trkpt lat="47.77215" lon="-3.53342">
        <ele>12</ele>
        <time>2019-07-15T09:24:41Z</time>
      </trkpt>
      <trkpt lat="47.77219" lon="-3.53344">
        <ele>12</ele>
        <time>2019-07-15T09:24:42Z</time>
      </trkpt>
      <trkpt lat="47.77223" lon="-3.53346">
        <ele>12</ele>
        <time>2019-07-15T09:24:43Z</time>
      </trkpt>
      <trkpt lat="47.77227" lon="-3.53348">
        <ele>12</ele>
        <time>2019-07-15T09:24:44Z</time>
      </trkpt>
      <trkpt lat="47.7723" lon="-3.5335">
        <ele>12</ele>
        <time>2019-07-15T09:24:45Z</time>
      </trkpt>
      <trkpt lat="47.77234" lon="-3.53352">
        <ele>11</ele>
        <time>2019-07-15T09:24:46Z</time>
      </trkpt>
      <trkpt lat="47.77238" lon="-3.53354">
        <ele>12</ele>
        <time>2019-07-15T09:24:47Z</time>
      </trkpt>
      <trkpt lat="47.77241" lon="-3.53355">
        <ele>12</ele>
        <time>2019-07-15T09:24:48Z</time>
      </trkpt>
      <trkpt lat="47.77245" lon="-3.53356">
        <ele>12</ele>
        <time>2019-07-15T09:24:49Z</time>
      </trkpt>
      <trkpt lat="47.77248" lon="-3.53358">
        <ele>12</ele>
        <time>2019-07-15T09:24:50Z</time>
      </trkpt>
      <trkpt lat="47.77251" lon="-3.53359">
        <ele>12</ele>
        <time>2019-07-15T09:24:51Z</time>
      </trkpt>
      <trkpt lat="47.77255" lon="-3.5336">
        <ele>12</ele>
        <time>2019-07-15T09:24:52Z</time>
      </trkpt>
      <trkpt lat="47.77258" lon="-3.53362">
        <ele>12</ele>
        <time>2019-07-15T09:24:53Z</time>
      </trkpt>
      <trkpt lat="47.77262" lon="-3.53365">
        <ele>12</ele>
        <time>2019-07-15T09:24:54Z</time>
      </trkpt>
      <trkpt lat="47.77266" lon="-3.53367">
        <ele>12</ele>
        <time>2019-07-15T09:24:55Z</time>
      </trkpt>
      <trkpt lat="47.7727" lon="-3.5337">
        <ele>12</ele>
        <time>2019-07-15T09:24:56Z</time>
      </trkpt>
      <trkpt lat="47.77272" lon="-3.53371">
        <ele>12</ele>
        <time>2019-07-15T09:24:57Z</time>
      </trkpt>
      <trkpt lat="47.77273" lon="-3.53371">
        <ele>12</ele>
        <time>2019-07-15T09:24:58Z</time>
      </trkpt>
      <trkpt lat="47.77273" lon="-3.53371">
        <ele>12</ele>
        <time>2019-07-15T09:24:59Z</time>
      </trkpt>
      <trkpt lat="47.77273" lon="-3.53371">
        <ele>12</ele>
        <time>2019-07-15T09:25:00Z</time>
      </trkpt>
      <trkpt lat="47.77274" lon="-3.53372">
        <ele>12</ele>
        <time>2019-07-15T09:25:01Z</time>
      </trkpt>
      <trkpt lat="47.77279" lon="-3.5337">
        <ele>11</ele>
        <time>2019-07-15T09:25:02Z</time>
      </trkpt>
      <trkpt lat="47.7728" lon="-3.53369">
        <ele>11</ele>
        <time>2019-07-15T09:25:03Z</time>
      </trkpt>
      <trkpt lat="47.77282" lon="-3.53369">
        <ele>11</ele>
        <time>2019-07-15T09:25:04Z</time>
      </trkpt>
      <trkpt lat="47.77284" lon="-3.53368">
        <ele>11</ele>
        <time>2019-07-15T09:25:05Z</time>
      </trkpt>
      <trkpt lat="47.77288" lon="-3.53368">
        <ele>11</ele>
        <time>2019-07-15T09:25:06Z</time>
      </trkpt>
      <trkpt lat="47.77291" lon="-3.53367">
        <ele>12</ele>
        <time>2019-07-15T09:25:07Z</time>
      </trkpt>
      <trkpt lat="47.77295" lon="-3.53365">
        <ele>12</ele>
        <time>2019-07-15T09:25:08Z</time>
      </trkpt>
      <trkpt lat="47.77298" lon="-3.53362">
        <ele>12</ele>
        <time>2019-07-15T09:25:09Z</time>
      </trkpt>
      <trkpt lat="47.773" lon="-3.53361">
        <ele>12</ele>
        <time>2019-07-15T09:25:10Z</time>
      </trkpt>
      <trkpt lat="47.77302" lon="-3.53361">
        <ele>12</ele>
        <time>2019-07-15T09:25:11Z</time>
      </trkpt>
      <trkpt lat="47.77304" lon="-3.53361">
        <ele>12</ele>
        <time>2019-07-15T09:25:12Z</time>
      </trkpt>
      <trkpt lat="47.77305" lon="-3.53361">
        <ele>12</ele>
        <time>2019-07-15T09:25:13Z</time>
      </trkpt>
      <trkpt lat="47.77307" lon="-3.53362">
        <ele>12</ele>
        <time>2019-07-15T09:25:14Z</time>
      </trkpt>
      <trkpt lat="47.77308" lon="-3.53361">
        <ele>12</ele>
        <time>2019-07-15T09:25:15Z</time>
      </trkpt>
      <trkpt lat="47.77309" lon="-3.53362">
        <ele>12</ele>
        <time>2019-07-15T09:25:16Z</time>
      </trkpt>
      <trkpt lat="47.77311" lon="-3.53362">
        <ele>12</ele>
        <time>2019-07-15T09:25:17Z</time>
      </trkpt>
      <trkpt lat="47.77312" lon="-3.53362">
        <ele>12</ele>
        <time>2019-07-15T09:25:18Z</time>
      </trkpt>
      <trkpt lat="47.77314" lon="-3.53362">
        <ele>12</ele>
        <time>2019-07-15T09:25:19Z</time>
      </trkpt>
      <trkpt lat="47.77316" lon="-3.53362">
        <ele>12</ele>
        <time>2019-07-15T09:25:20Z</time>
      </trkpt>
      <trkpt lat="47.77317" lon="-3.53362">
        <ele>12</ele>
        <time>2019-07-15T09:25:21Z</time>
      </trkpt>
      <trkpt lat="47.77319" lon="-3.53362">
        <ele>12</ele>
        <time>2019-07-15T09:25:22Z</time>
      </trkpt>
      <trkpt lat="47.77321" lon="-3.53362">
        <ele>12</ele>
        <time>2019-07-15T09:25:23Z</time>
      </trkpt>
      <trkpt lat="47.77322" lon="-3.53361">
        <ele>12</ele>
        <time>2019-07-15T09:25:24Z</time>
      </trkpt>
      <trkpt lat="47.77324" lon="-3.53361">
        <ele>12</ele>
        <time>2019-07-15T09:25:25Z</time>
      </trkpt>
      <trkpt lat="47.77326" lon="-3.53361">
        <ele>12</ele>
        <time>2019-07-15T09:25:26Z</time>
      </trkpt>
      <trkpt lat="47.77328" lon="-3.53361">
        <ele>12</ele>
        <time>2019-07-15T09:25:27Z</time>
      </trkpt>
      <trkpt lat="47.77331" lon="-3.53361">
        <ele>12</ele>
        <time>2019-07-15T09:25:28Z</time>
      </trkpt>
      <trkpt lat="47.77333" lon="-3.53361">
        <ele>12</ele>
        <time>2019-07-15T09:25:29Z</time>
      </trkpt>
      <trkpt lat="47.77336" lon="-3.53361">
        <ele>12</ele>
        <time>2019-07-15T09:25:30Z</time>
      </trkpt>
      <trkpt lat="47.77338" lon="-3.5336">
        <ele>11</ele>
        <time>2019-07-15T09:25:31Z</time>
      </trkpt>
      <trkpt lat="47.77341" lon="-3.5336">
        <ele>11</ele>
        <time>2019-07-15T09:25:32Z</time>
      </trkpt>
      <trkpt lat="47.77344" lon="-3.53358">
        <ele>11</ele>
        <time>2019-07-15T09:25:33Z</time>
      </trkpt>
      <trkpt lat="47.77348" lon="-3.53357">
        <ele>11</ele>
        <time>2019-07-15T09:25:34Z</time>
      </trkpt>
      <trkpt lat="47.77354" lon="-3.53355">
        <ele>11</ele>
        <time>2019-07-15T09:25:35Z</time>
      </trkpt>
      <trkpt lat="47.77361" lon="-3.53354">
        <ele>11</ele>
        <time>2019-07-15T09:25:36Z</time>
      </trkpt>
      <trkpt lat="47.77367" lon="-3.53353">
        <ele>11</ele>
        <time>2019-07-15T09:25:37Z</time>
      </trkpt>
      <trkpt lat="47.77373" lon="-3.53352">
        <ele>11</ele>
        <time>2019-07-15T09:25:38Z</time>
      </trkpt>
      <trkpt lat="47.77379" lon="-3.53351">
        <ele>10</ele>
        <time>2019-07-15T09:25:39Z</time>
      </trkpt>
      <trkpt lat="47.77385" lon="-3.53351">
        <ele>10</ele>
        <time>2019-07-15T09:25:40Z</time>
      </trkpt>
      <trkpt lat="47.7739" lon="-3.53351">
        <ele>10</ele>
        <time>2019-07-15T09:25:41Z</time>
      </trkpt>
      <trkpt lat="47.77394" lon="-3.53351">
        <ele>10</ele>
        <time>2019-07-15T09:25:42Z</time>
      </trkpt>
      <trkpt lat="47.77397" lon="-3.5335">
        <ele>10</ele>
        <time>2019-07-15T09:25:43Z</time>
      </trkpt>
      <trkpt lat="47.77401" lon="-3.53349">
        <ele>10</ele>
        <time>2019-07-15T09:25:44Z</time>
      </trkpt>
      <trkpt lat="47.77404" lon="-3.5335">
        <ele>10</ele>
        <time>2019-07-15T09:25:45Z</time>
      </trkpt>
      <trkpt lat="47.77408" lon="-3.53351">
        <ele>10</ele>
        <time>2019-07-15T09:25:46Z</time>
      </trkpt>
      <trkpt lat="47.77411" lon="-3.53353">
        <ele>10</ele>
        <time>2019-07-15T09:25:47Z</time>
      </trkpt>
      <trkpt lat="47.77414" lon="-3.53355">
        <ele>10</ele>
        <time>2019-07-15T09:25:48Z</time>
      </trkpt>
      <trkpt lat="47.77416" lon="-3.53356">
        <ele>10</ele>
        <time>2019-07-15T09:25:49Z</time>
      </trkpt>
      <trkpt lat="47.77419" lon="-3.53358">
        <ele>10</ele>
        <time>2019-07-15T09:25:50Z</time>
      </trkpt>
      <trkpt lat="47.77421" lon="-3.53359">
        <ele>10</ele>
        <time>2019-07-15T09:25:51Z</time>
      </trkpt>
      <trkpt lat="47.77424" lon="-3.53361">
        <ele>10</ele>
        <time>2019-07-15T09:25:52Z</time>
      </trkpt>
      <trkpt lat="47.77428" lon="-3.53365">
        <ele>10</ele>
        <time>2019-07-15T09:25:53Z</time>
      </trkpt>
      <trkpt lat="47.77431" lon="-3.5337">
        <ele>10</ele>
        <time>2019-07-15T09:25:54Z</time>
      </trkpt>
      <trkpt lat="47.77434" lon="-3.53375">
        <ele>10</ele>
        <time>2019-07-15T09:25:55Z</time>
      </trkpt>
      <trkpt lat="47.77438" lon="-3.5338">
        <ele>10</ele>
        <time>2019-07-15T09:25:56Z</time>
      </trkpt>
      <trkpt lat="47.77441" lon="-3.53384">
        <ele>10</ele>
        <time>2019-07-15T09:25:57Z</time>
      </trkpt>
      <trkpt lat="47.77443" lon="-3.53387">
        <ele>11</ele>
        <time>2019-07-15T09:25:58Z</time>
      </trkpt>
      <trkpt lat="47.77447" lon="-3.53391">
        <ele>11</ele>
        <time>2019-07-15T09:25:59Z</time>
      </trkpt>
      <trkpt lat="47.77451" lon="-3.53396">
        <ele>11</ele>
        <time>2019-07-15T09:26:00Z</time>
      </trkpt>
      <trkpt lat="47.77455" lon="-3.53401">
        <ele>11</ele>
        <time>2019-07-15T09:26:01Z</time>
      </trkpt>
      <trkpt lat="47.7746" lon="-3.53408">
        <ele>11</ele>
        <time>2019-07-15T09:26:02Z</time>
      </trkpt>
      <trkpt lat="47.77464" lon="-3.53417">
        <ele>11</ele>
        <time>2019-07-15T09:26:03Z</time>
      </trkpt>
      <trkpt lat="47.77467" lon="-3.53426">
        <ele>11</ele>
        <time>2019-07-15T09:26:04Z</time>
      </trkpt>
      <trkpt lat="47.77469" lon="-3.53436">
        <ele>11</ele>
        <time>2019-07-15T09:26:05Z</time>
      </trkpt>
      <trkpt lat="47.77471" lon="-3.53445">
        <ele>11</ele>
        <time>2019-07-15T09:26:06Z</time>
      </trkpt>
      <trkpt lat="47.77472" lon="-3.53455">
        <ele>11</ele>
        <time>2019-07-15T09:26:07Z</time>
      </trkpt>
      <trkpt lat="47.77473" lon="-3.53464">
        <ele>11</ele>
        <time>2019-07-15T09:26:08Z</time>
      </trkpt>
      <trkpt lat="47.77474" lon="-3.53472">
        <ele>11</ele>
        <time>2019-07-15T09:26:09Z</time>
      </trkpt>
      <trkpt lat="47.77474" lon="-3.53479">
        <ele>11</ele>
        <time>2019-07-15T09:26:10Z</time>
      </trkpt>
      <trkpt lat="47.77473" lon="-3.53486">
        <ele>11</ele>
        <time>2019-07-15T09:26:11Z</time>
      </trkpt>
      <trkpt lat="47.77471" lon="-3.53492">
        <ele>11</ele>
        <time>2019-07-15T09:26:12Z</time>
      </trkpt>
      <trkpt lat="47.7747" lon="-3.53497">
        <ele>11</ele>
        <time>2019-07-15T09:26:13Z</time>
      </trkpt>
      <trkpt lat="47.77468" lon="-3.53502">
        <ele>11</ele>
        <time>2019-07-15T09:26:14Z</time>
      </trkpt>
      <trkpt lat="47.77467" lon="-3.53506">
        <ele>12</ele>
        <time>2019-07-15T09:26:15Z</time>
      </trkpt>
      <trkpt lat="47.77465" lon="-3.5351">
        <ele>12</ele>
        <time>2019-07-15T09:26:16Z</time>
      </trkpt>
      <trkpt lat="47.77464" lon="-3.53514">
        <ele>12</ele>
        <time>2019-07-15T09:26:17Z</time>
      </trkpt>
      <trkpt lat="47.77463" lon="-3.53518">
        <ele>12</ele>
        <time>2019-07-15T09:26:18Z</time>
      </trkpt>
      <trkpt lat="47.77462" lon="-3.53523">
        <ele>12</ele>
        <time>2019-07-15T09:26:19Z</time>
      </trkpt>
      <trkpt lat="47.77462" lon="-3.53528">
        <ele>12</ele>
        <time>2019-07-15T09:26:20Z</time>
      </trkpt>
      <trkpt lat="47.77461" lon="-3.53533">
        <ele>12</ele>
        <time>2019-07-15T09:26:21Z</time>
      </trkpt>
      <trkpt lat="47.7746" lon="-3.53539">
        <ele>12</ele>
        <time>2019-07-15T09:26:22Z</time>
      </trkpt>
      <trkpt lat="47.7746" lon="-3.53545">
        <ele>12</ele>
        <time>2019-07-15T09:26:23Z</time>
      </trkpt>
      <trkpt lat="47.77459" lon="-3.53551">
        <ele>12</ele>
        <time>2019-07-15T09:26:24Z</time>
      </trkpt>
      <trkpt lat="47.77458" lon="-3.53558">
        <ele>12</ele>
        <time>2019-07-15T09:26:25Z</time>
      </trkpt>
      <trkpt lat="47.77459" lon="-3.53565">
        <ele>12</ele>
        <time>2019-07-15T09:26:26Z</time>
      </trkpt>
      <trkpt lat="47.77459" lon="-3.53572">
        <ele>12</ele>
        <time>2019-07-15T09:26:27Z</time>
      </trkpt>
      <trkpt lat="47.77459" lon="-3.53579">
        <ele>12</ele>
        <time>2019-07-15T09:26:28Z</time>
      </trkpt>
      <trkpt lat="47.77459" lon="-3.53587">
        <ele>12</ele>
        <time>2019-07-15T09:26:29Z</time>
      </trkpt>
      <trkpt lat="47.77459" lon="-3.53595">
        <ele>12</ele>
        <time>2019-07-15T09:26:30Z</time>
      </trkpt>
      <trkpt lat="47.7746" lon="-3.53604">
        <ele>12</ele>
        <time>2019-07-15T09:26:31Z</time>
      </trkpt>
      <trkpt lat="47.77461" lon="-3.53612">
        <ele>12</ele>
        <time>2019-07-15T09:26:32Z</time>
      </trkpt>
      <trkpt lat="47.77462" lon="-3.5362">
        <ele>12</ele>
        <time>2019-07-15T09:26:33Z</time>
      </trkpt>
      <trkpt lat="47.77461" lon="-3.53626">
        <ele>12</ele>
        <time>2019-07-15T09:26:34Z</time>
      </trkpt>
      <trkpt lat="47.77459" lon="-3.53631">
        <ele>12</ele>
        <time>2019-07-15T09:26:35Z</time>
      </trkpt>
      <trkpt lat="47.77457" lon="-3.53636">
        <ele>12</ele>
        <time>2019-07-15T09:26:36Z</time>
      </trkpt>
      <trkpt lat="47.77456" lon="-3.5364">
        <ele>12</ele>
        <time>2019-07-15T09:26:37Z</time>
      </trkpt>
      <trkpt lat="47.77455" lon="-3.53645">
        <ele>12</ele>
        <time>2019-07-15T09:26:38Z</time>
      </trkpt>
      <trkpt lat="47.77454" lon="-3.53651">
        <ele>12</ele>
        <time>2019-07-15T09:26:39Z</time>
      </trkpt>
      <trkpt lat="47.77454" lon="-3.53655">
        <ele>13</ele>
        <time>2019-07-15T09:26:40Z</time>
      </trkpt>
      <trkpt lat="47.77453" lon="-3.5366">
        <ele>13</ele>
        <time>2019-07-15T09:26:41Z</time>
      </trkpt>
      <trkpt lat="47.77454" lon="-3.53664">
        <ele>13</ele>
        <time>2019-07-15T09:26:42Z</time>
      </trkpt>
      <trkpt lat="47.77456" lon="-3.53667">
        <ele>13</ele>
        <time>2019-07-15T09:26:43Z</time>
      </trkpt>
      <trkpt lat="47.77458" lon="-3.5367">
        <ele>13</ele>
        <time>2019-07-15T09:26:44Z</time>
      </trkpt>
      <trkpt lat="47.7746" lon="-3.53673">
        <ele>14</ele>
        <time>2019-07-15T09:26:45Z</time>
      </trkpt>
      <trkpt lat="47.77463" lon="-3.53675">
        <ele>14</ele>
        <time>2019-07-15T09:26:46Z</time>
      </trkpt>
      <trkpt lat="47.77465" lon="-3.53677">
        <ele>15</ele>
        <time>2019-07-15T09:26:47Z</time>
      </trkpt>
      <trkpt lat="47.77467" lon="-3.53679">
        <ele>15</ele>
        <time>2019-07-15T09:26:48Z</time>
      </trkpt>
      <trkpt lat="47.77469" lon="-3.53681">
        <ele>15</ele>
        <time>2019-07-15T09:26:49Z</time>
      </trkpt>
      <trkpt lat="47.77471" lon="-3.53683">
        <ele>15</ele>
        <time>2019-07-15T09:26:50Z</time>
      </trkpt>
      <trkpt lat="47.77474" lon="-3.53688">
        <ele>16</ele>
        <time>2019-07-15T09:26:51Z</time>
      </trkpt>
      <trkpt lat="47.77476" lon="-3.53693">
        <ele>16</ele>
        <time>2019-07-15T09:26:52Z</time>
      </trkpt>
      <trkpt lat="47.77478" lon="-3.53699">
        <ele>16</ele>
        <time>2019-07-15T09:26:53Z</time>
      </trkpt>
      <trkpt lat="47.77482" lon="-3.53705">
        <ele>16</ele>
        <time>2019-07-15T09:26:54Z</time>
      </trkpt>
      <trkpt lat="47.77486" lon="-3.53712">
        <ele>16</ele>
        <time>2019-07-15T09:26:55Z</time>
      </trkpt>
      <trkpt lat="47.77491" lon="-3.53719">
        <ele>16</ele>
        <time>2019-07-15T09:26:56Z</time>
      </trkpt>
      <trkpt lat="47.77495" lon="-3.53727">
        <ele>16</ele>
        <time>2019-07-15T09:26:57Z</time>
      </trkpt>
      <trkpt lat="47.775" lon="-3.53736">
        <ele>16</ele>
        <time>2019-07-15T09:26:58Z</time>
      </trkpt>
      <trkpt lat="47.77504" lon="-3.53744">
        <ele>16</ele>
        <time>2019-07-15T09:26:59Z</time>
      </trkpt>
      <trkpt lat="47.77509" lon="-3.53753">
        <ele>15</ele>
        <time>2019-07-15T09:27:00Z</time>
      </trkpt>
      <trkpt lat="47.77513" lon="-3.53762">
        <ele>15</ele>
        <time>2019-07-15T09:27:01Z</time>
      </trkpt>
      <trkpt lat="47.77518" lon="-3.5377">
        <ele>15</ele>
        <time>2019-07-15T09:27:02Z</time>
      </trkpt>
      <trkpt lat="47.77521" lon="-3.53779">
        <ele>15</ele>
        <time>2019-07-15T09:27:03Z</time>
      </trkpt>
      <trkpt lat="47.77524" lon="-3.53788">
        <ele>15</ele>
        <time>2019-07-15T09:27:04Z</time>
      </trkpt>
      <trkpt lat="47.77528" lon="-3.53796">
        <ele>15</ele>
        <time>2019-07-15T09:27:05Z</time>
      </trkpt>
      <trkpt lat="47.7753" lon="-3.53805">
        <ele>15</ele>
        <time>2019-07-15T09:27:06Z</time>
      </trkpt>
      <trkpt lat="47.77532" lon="-3.53813">
        <ele>14</ele>
        <time>2019-07-15T09:27:07Z</time>
      </trkpt>
      <trkpt lat="47.77533" lon="-3.53821">
        <ele>14</ele>
        <time>2019-07-15T09:27:08Z</time>
      </trkpt>
      <trkpt lat="47.77535" lon="-3.53828">
        <ele>14</ele>
        <time>2019-07-15T09:27:09Z</time>
      </trkpt>
      <trkpt lat="47.77536" lon="-3.53835">
        <ele>14</ele>
        <time>2019-07-15T09:27:10Z</time>
      </trkpt>
      <trkpt lat="47.77538" lon="-3.5384">
        <ele>14</ele>
        <time>2019-07-15T09:27:11Z</time>
      </trkpt>
      <trkpt lat="47.77541" lon="-3.53844">
        <ele>13</ele>
        <time>2019-07-15T09:27:12Z</time>
      </trkpt>
      <trkpt lat="47.77544" lon="-3.53845">
        <ele>13</ele>
        <time>2019-07-15T09:27:13Z</time>
      </trkpt>
      <trkpt lat="47.77547" lon="-3.53846">
        <ele>13</ele>
        <time>2019-07-15T09:27:14Z</time>
      </trkpt>
      <trkpt lat="47.77551" lon="-3.53846">
        <ele>12</ele>
        <time>2019-07-15T09:27:15Z</time>
      </trkpt>
      <trkpt lat="47.77554" lon="-3.53847">
        <ele>12</ele>
        <time>2019-07-15T09:27:16Z</time>
      </trkpt>
      <trkpt lat="47.77557" lon="-3.53847">
        <ele>11</ele>
        <time>2019-07-15T09:27:17Z</time>
      </trkpt>
      <trkpt lat="47.7756" lon="-3.53848">
        <ele>11</ele>
        <time>2019-07-15T09:27:18Z</time>
      </trkpt>
      <trkpt lat="47.77563" lon="-3.53848">
        <ele>10</ele>
        <time>2019-07-15T09:27:19Z</time>
      </trkpt>
      <trkpt lat="47.77565" lon="-3.53848">
        <ele>10</ele>
        <time>2019-07-15T09:27:20Z</time>
      </trkpt>
      <trkpt lat="47.77567" lon="-3.53847">
        <ele>10</ele>
        <time>2019-07-15T09:27:21Z</time>
      </trkpt>
      <trkpt lat="47.77569" lon="-3.53847">
        <ele>10</ele>
        <time>2019-07-15T09:27:22Z</time>
      </trkpt>
      <trkpt lat="47.77569" lon="-3.53848">
        <ele>10</ele>
        <time>2019-07-15T09:27:23Z</time>
      </trkpt>
      <trkpt lat="47.7757" lon="-3.53848">
        <ele>10</ele>
        <time>2019-07-15T09:27:24Z</time>
      </trkpt>
      <trkpt lat="47.7757" lon="-3.53848">
        <ele>9</ele>
        <time>2019-07-15T09:27:25Z</time>
      </trkpt>
      <trkpt lat="47.77574" lon="-3.53845">
        <ele>8</ele>
        <time>2019-07-15T09:27:26Z</time>
      </trkpt>
      <trkpt lat="47.77573" lon="-3.53843">
        <ele>8</ele>
        <time>2019-07-15T09:27:27Z</time>
      </trkpt>
      <trkpt lat="47.77572" lon="-3.53839">
        <ele>8</ele>
        <time>2019-07-15T09:27:28Z</time>
      </trkpt>
      <trkpt lat="47.77571" lon="-3.53835">
        <ele>8</ele>
        <time>2019-07-15T09:27:29Z</time>
      </trkpt>
      <trkpt lat="47.7757" lon="-3.53831">
        <ele>8</ele>
        <time>2019-07-15T09:27:30Z</time>
      </trkpt>
      <trkpt lat="47.7757" lon="-3.53827">
        <ele>8</ele>
        <time>2019-07-15T09:27:31Z</time>
      </trkpt>
      <trkpt lat="47.77569" lon="-3.53823">
        <ele>8</ele>
        <time>2019-07-15T09:27:32Z</time>
      </trkpt>
      <trkpt lat="47.77569" lon="-3.53819">
        <ele>8</ele>
        <time>2019-07-15T09:27:33Z</time>
      </trkpt>
      <trkpt lat="47.77568" lon="-3.53815">
        <ele>8</ele>
        <time>2019-07-15T09:27:34Z</time>
      </trkpt>
      <trkpt lat="47.77567" lon="-3.53811">
        <ele>8</ele>
        <time>2019-07-15T09:27:35Z</time>
      </trkpt>
      <trkpt lat="47.77565" lon="-3.53806">
        <ele>8</ele>
        <time>2019-07-15T09:27:36Z</time>
      </trkpt>
      <trkpt lat="47.77563" lon="-3.53801">
        <ele>8</ele>
        <time>2019-07-15T09:27:37Z</time>
      </trkpt>
      <trkpt lat="47.77562" lon="-3.53795">
        <ele>8</ele>
        <time>2019-07-15T09:27:38Z</time>
      </trkpt>
      <trkpt lat="47.7756" lon="-3.53789">
        <ele>8</ele>
        <time>2019-07-15T09:27:39Z</time>
      </trkpt>
      <trkpt lat="47.77558" lon="-3.53785">
        <ele>8</ele>
        <time>2019-07-15T09:27:40Z</time>
      </trkpt>
      <trkpt lat="47.77557" lon="-3.5378">
        <ele>8</ele>
        <time>2019-07-15T09:27:41Z</time>
      </trkpt>
      <trkpt lat="47.77555" lon="-3.53775">
        <ele>8</ele>
        <time>2019-07-15T09:27:42Z</time>
      </trkpt>
      <trkpt lat="47.77553" lon="-3.53771">
        <ele>8</ele>
        <time>2019-07-15T09:27:43Z</time>
      </trkpt>
      <trkpt lat="47.77552" lon="-3.53767">
        <ele>8</ele>
        <time>2019-07-15T09:27:44Z</time>
      </trkpt>
      <trkpt lat="47.7755" lon="-3.53763">
        <ele>8</ele>
        <time>2019-07-15T09:27:45Z</time>
      </trkpt>
      <trkpt lat="47.77549" lon="-3.53758">
        <ele>8</ele>
        <time>2019-07-15T09:27:46Z</time>
      </trkpt>
      <trkpt lat="47.77548" lon="-3.53753">
        <ele>8</ele>
        <time>2019-07-15T09:27:47Z</time>
      </trkpt>
      <trkpt lat="47.77546" lon="-3.53748">
        <ele>8</ele>
        <time>2019-07-15T09:27:48Z</time>
      </trkpt>
      <trkpt lat="47.77545" lon="-3.53742">
        <ele>8</ele>
        <time>2019-07-15T09:27:49Z</time>
      </trkpt>
      <trkpt lat="47.77543" lon="-3.53737">
        <ele>8</ele>
        <time>2019-07-15T09:27:50Z</time>
      </trkpt>
      <trkpt lat="47.77542" lon="-3.53731">
        <ele>8</ele>
        <time>2019-07-15T09:27:51Z</time>
      </trkpt>
      <trkpt lat="47.77541" lon="-3.53725">
        <ele>8</ele>
        <time>2019-07-15T09:27:52Z</time>
      </trkpt>
      <trkpt lat="47.7754" lon="-3.53718">
        <ele>8</ele>
        <time>2019-07-15T09:27:53Z</time>
      </trkpt>
      <trkpt lat="47.77538" lon="-3.53711">
        <ele>8</ele>
        <time>2019-07-15T09:27:54Z</time>
      </trkpt>
      <trkpt lat="47.77537" lon="-3.53704">
        <ele>8</ele>
        <time>2019-07-15T09:27:55Z</time>
      </trkpt>
      <trkpt lat="47.77536" lon="-3.53697">
        <ele>8</ele>
        <time>2019-07-15T09:27:56Z</time>
      </trkpt>
      <trkpt lat="47.77535" lon="-3.53691">
        <ele>8</ele>
        <time>2019-07-15T09:27:57Z</time>
      </trkpt>
      <trkpt lat="47.77533" lon="-3.53686">
        <ele>8</ele>
        <time>2019-07-15T09:27:58Z</time>
      </trkpt>
      <trkpt lat="47.77532" lon="-3.53678">
        <ele>9</ele>
        <time>2019-07-15T09:27:59Z</time>
      </trkpt>
      <trkpt lat="47.77531" lon="-3.53671">
        <ele>9</ele>
        <time>2019-07-15T09:28:00Z</time>
      </trkpt>
      <trkpt lat="47.77531" lon="-3.53665">
        <ele>9</ele>
        <time>2019-07-15T09:28:01Z</time>
      </trkpt>
      <trkpt lat="47.77531" lon="-3.53659">
        <ele>9</ele>
        <time>2019-07-15T09:28:02Z</time>
      </trkpt>
      <trkpt lat="47.77531" lon="-3.53653">
        <ele>9</ele>
        <time>2019-07-15T09:28:03Z</time>
      </trkpt>
      <trkpt lat="47.77532" lon="-3.53648">
        <ele>9</ele>
        <time>2019-07-15T09:28:04Z</time>
      </trkpt>
      <trkpt lat="47.77533" lon="-3.53643">
        <ele>9</ele>
        <time>2019-07-15T09:28:05Z</time>
      </trkpt>
      <trkpt lat="47.77533" lon="-3.53637">
        <ele>9</ele>
        <time>2019-07-15T09:28:06Z</time>
      </trkpt>
      <trkpt lat="47.77533" lon="-3.53633">
        <ele>9</ele>
        <time>2019-07-15T09:28:07Z</time>
      </trkpt>
      <trkpt lat="47.77533" lon="-3.53626">
        <ele>9</ele>
        <time>2019-07-15T09:28:08Z</time>
      </trkpt>
      <trkpt lat="47.77535" lon="-3.53619">
        <ele>9</ele>
        <time>2019-07-15T09:28:09Z</time>
      </trkpt>
      <trkpt lat="47.77537" lon="-3.53611">
        <ele>9</ele>
        <time>2019-07-15T09:28:10Z</time>
      </trkpt>
      <trkpt lat="47.77539" lon="-3.53605">
        <ele>10</ele>
        <time>2019-07-15T09:28:11Z</time>
      </trkpt>
      <trkpt lat="47.77542" lon="-3.53601">
        <ele>10</ele>
        <time>2019-07-15T09:28:12Z</time>
      </trkpt>
      <trkpt lat="47.77544" lon="-3.53599">
        <ele>10</ele>
        <time>2019-07-15T09:28:13Z</time>
      </trkpt>
      <trkpt lat="47.77547" lon="-3.53597">
        <ele>10</ele>
        <time>2019-07-15T09:28:14Z</time>
      </trkpt>
      <trkpt lat="47.7755" lon="-3.53595">
        <ele>10</ele>
        <time>2019-07-15T09:28:15Z</time>
      </trkpt>
      <trkpt lat="47.77553" lon="-3.53593">
        <ele>10</ele>
        <time>2019-07-15T09:28:16Z</time>
      </trkpt>
      <trkpt lat="47.77558" lon="-3.53588">
        <ele>10</ele>
        <time>2019-07-15T09:28:17Z</time>
      </trkpt>
      <trkpt lat="47.77561" lon="-3.53581">
        <ele>10</ele>
        <time>2019-07-15T09:28:18Z</time>
      </trkpt>
      <trkpt lat="47.77563" lon="-3.53574">
        <ele>10</ele>
        <time>2019-07-15T09:28:19Z</time>
      </trkpt>
      <trkpt lat="47.77564" lon="-3.53567">
        <ele>10</ele>
        <time>2019-07-15T09:28:20Z</time>
      </trkpt>
      <trkpt lat="47.77565" lon="-3.53561">
        <ele>10</ele>
        <time>2019-07-15T09:28:21Z</time>
      </trkpt>
      <trkpt lat="47.77567" lon="-3.53556">
        <ele>10</ele>
        <time>2019-07-15T09:28:22Z</time>
      </trkpt>
      <trkpt lat="47.77569" lon="-3.53551">
        <ele>10</ele>
        <time>2019-07-15T09:28:23Z</time>
      </trkpt>
      <trkpt lat="47.77571" lon="-3.53545">
        <ele>10</ele>
        <time>2019-07-15T09:28:24Z</time>
      </trkpt>
      <trkpt lat="47.77574" lon="-3.53538">
        <ele>10</ele>
        <time>2019-07-15T09:28:25Z</time>
      </trkpt>
      <trkpt lat="47.77576" lon="-3.5353">
        <ele>11</ele>
        <time>2019-07-15T09:28:26Z</time>
      </trkpt>
      <trkpt lat="47.77577" lon="-3.53522">
        <ele>11</ele>
        <time>2019-07-15T09:28:27Z</time>
      </trkpt>
      <trkpt lat="47.77578" lon="-3.53515">
        <ele>11</ele>
        <time>2019-07-15T09:28:28Z</time>
      </trkpt>
      <trkpt lat="47.77579" lon="-3.53507">
        <ele>11</ele>
        <time>2019-07-15T09:28:29Z</time>
      </trkpt>
      <trkpt lat="47.77581" lon="-3.53499">
        <ele>11</ele>
        <time>2019-07-15T09:28:30Z</time>
      </trkpt>
      <trkpt lat="47.77582" lon="-3.53492">
        <ele>11</ele>
        <time>2019-07-15T09:28:31Z</time>
      </trkpt>
      <trkpt lat="47.77583" lon="-3.53484">
        <ele>11</ele>
        <time>2019-07-15T09:28:32Z</time>
      </trkpt>
      <trkpt lat="47.77584" lon="-3.53477">
        <ele>11</ele>
        <time>2019-07-15T09:28:33Z</time>
      </trkpt>
      <trkpt lat="47.77584" lon="-3.5347">
        <ele>11</ele>
        <time>2019-07-15T09:28:34Z</time>
      </trkpt>
      <trkpt lat="47.77583" lon="-3.53463">
        <ele>11</ele>
        <time>2019-07-15T09:28:35Z</time>
      </trkpt>
      <trkpt lat="47.77582" lon="-3.53456">
        <ele>11</ele>
        <time>2019-07-15T09:28:36Z</time>
      </trkpt>
      <trkpt lat="47.77581" lon="-3.5345">
        <ele>11</ele>
        <time>2019-07-15T09:28:37Z</time>
      </trkpt>
      <trkpt lat="47.7758" lon="-3.53444">
        <ele>11</ele>
        <time>2019-07-15T09:28:38Z</time>
      </trkpt>
      <trkpt lat="47.77579" lon="-3.53439">
        <ele>11</ele>
        <time>2019-07-15T09:28:39Z</time>
      </trkpt>
      <trkpt lat="47.77578" lon="-3.53432">
        <ele>11</ele>
        <time>2019-07-15T09:28:40Z</time>
      </trkpt>
      <trkpt lat="47.77577" lon="-3.53425">
        <ele>10</ele>
        <time>2019-07-15T09:28:41Z</time>
      </trkpt>
      <trkpt lat="47.77576" lon="-3.53419">
        <ele>10</ele>
        <time>2019-07-15T09:28:42Z</time>
      </trkpt>
      <trkpt lat="47.77576" lon="-3.53413">
        <ele>10</ele>
        <time>2019-07-15T09:28:43Z</time>
      </trkpt>
      <trkpt lat="47.77577" lon="-3.53405">
        <ele>10</ele>
        <time>2019-07-15T09:28:44Z</time>
      </trkpt>
      <trkpt lat="47.77578" lon="-3.53398">
        <ele>10</ele>
        <time>2019-07-15T09:28:45Z</time>
      </trkpt>
      <trkpt lat="47.77579" lon="-3.53391">
        <ele>10</ele>
        <time>2019-07-15T09:28:46Z</time>
      </trkpt>
      <trkpt lat="47.77579" lon="-3.53382">
        <ele>10</ele>
        <time>2019-07-15T09:28:47Z</time>
      </trkpt>
      <trkpt lat="47.77581" lon="-3.53374">
        <ele>10</ele>
        <time>2019-07-15T09:28:48Z</time>
      </trkpt>
      <trkpt lat="47.77582" lon="-3.53367">
        <ele>9</ele>
        <time>2019-07-15T09:28:49Z</time>
      </trkpt>
      <trkpt lat="47.77584" lon="-3.53358">
        <ele>9</ele>
        <time>2019-07-15T09:28:50Z</time>
      </trkpt>
      <trkpt lat="47.77587" lon="-3.53351">
        <ele>9</ele>
        <time>2019-07-15T09:28:51Z</time>
      </trkpt>
      <trkpt lat="47.77591" lon="-3.53346">
        <ele>9</ele>
        <time>2019-07-15T09:28:52Z</time>
      </trkpt>
      <trkpt lat="47.77596" lon="-3.53343">
        <ele>9</ele>
        <time>2019-07-15T09:28:53Z</time>
      </trkpt>
      <trkpt lat="47.776" lon="-3.53342">
        <ele>9</ele>
        <time>2019-07-15T09:28:54Z</time>
      </trkpt>
      <trkpt lat="47.77604" lon="-3.53343">
        <ele>8</ele>
        <time>2019-07-15T09:28:55Z</time>
      </trkpt>
      <trkpt lat="47.77608" lon="-3.53344">
        <ele>8</ele>
        <time>2019-07-15T09:28:56Z</time>
      </trkpt>
      <trkpt lat="47.77611" lon="-3.53346">
        <ele>8</ele>
        <time>2019-07-15T09:28:57Z</time>
      </trkpt>
      <trkpt lat="47.77614" lon="-3.53348">
        <ele>8</ele>
        <time>2019-07-15T09:28:58Z</time>
      </trkpt>
      <trkpt lat="47.77617" lon="-3.53351">
        <ele>8</ele>
        <time>2019-07-15T09:28:59Z</time>
      </trkpt>
      <trkpt lat="47.77621" lon="-3.53353">
        <ele>8</ele>
        <time>2019-07-15T09:29:00Z</time>
      </trkpt>
      <trkpt lat="47.77624" lon="-3.53355">
        <ele>8</ele>
        <time>2019-07-15T09:29:01Z</time>
      </trkpt>
      <trkpt lat="47.77628" lon="-3.53357">
        <ele>8</ele>
        <time>2019-07-15T09:29:02Z</time>
      </trkpt>
      <trkpt lat="47.77631" lon="-3.53358">
        <ele>8</ele>
        <time>2019-07-15T09:29:03Z</time>
      </trkpt>
      <trkpt lat="47.77635" lon="-3.53359">
        <ele>8</ele>
        <time>2019-07-15T09:29:04Z</time>
      </trkpt>
      <trkpt lat="47.77638" lon="-3.53359">
        <ele>8</ele>
        <time>2019-07-15T09:29:05Z</time>
      </trkpt>
      <trkpt lat="47.77642" lon="-3.5336">
        <ele>8</ele>
        <time>2019-07-15T09:29:06Z</time>
      </trkpt>
      <trkpt lat="47.77647" lon="-3.53361">
        <ele>8</ele>
        <time>2019-07-15T09:29:07Z</time>
      </trkpt>
      <trkpt lat="47.77651" lon="-3.53361">
        <ele>8</ele>
        <time>2019-07-15T09:29:08Z</time>
      </trkpt>
      <trkpt lat="47.77656" lon="-3.53362">
        <ele>8</ele>
        <time>2019-07-15T09:29:09Z</time>
      </trkpt>
      <trkpt lat="47.77661" lon="-3.53364">
        <ele>8</ele>
        <time>2019-07-15T09:29:10Z</time>
      </trkpt>
      <trkpt lat="47.77666" lon="-3.53365">
        <ele>8</ele>
        <time>2019-07-15T09:29:11Z</time>
      </trkpt>
      <trkpt lat="47.7767" lon="-3.53367">
        <ele>8</ele>
        <time>2019-07-15T09:29:12Z</time>
      </trkpt>
      <trkpt lat="47.77675" lon="-3.53368">
        <ele>8</ele>
        <time>2019-07-15T09:29:13Z</time>
      </trkpt>
      <trkpt lat="47.7768" lon="-3.5337">
        <ele>8</ele>
        <time>2019-07-15T09:29:14Z</time>
      </trkpt>
      <trkpt lat="47.77685" lon="-3.5337">
        <ele>8</ele>
        <time>2019-07-15T09:29:15Z</time>
      </trkpt>
      <trkpt lat="47.77689" lon="-3.53369">
        <ele>8</ele>
        <time>2019-07-15T09:29:16Z</time>
      </trkpt>
      <trkpt lat="47.77692" lon="-3.53369">
        <ele>8</ele>
        <time>2019-07-15T09:29:17Z</time>
      </trkpt>
      <trkpt lat="47.77695" lon="-3.53368">
        <ele>8</ele>
        <time>2019-07-15T09:29:18Z</time>
      </trkpt>
      <trkpt lat="47.77698" lon="-3.53368">
        <ele>8</ele>
        <time>2019-07-15T09:29:19Z</time>
      </trkpt>
      <trkpt lat="47.77701" lon="-3.53366">
        <ele>8</ele>
        <time>2019-07-15T09:29:20Z</time>
      </trkpt>
      <trkpt lat="47.77704" lon="-3.53364">
        <ele>8</ele>
        <time>2019-07-15T09:29:21Z</time>
      </trkpt>
      <trkpt lat="47.77708" lon="-3.53362">
        <ele>8</ele>
        <time>2019-07-15T09:29:22Z</time>
      </trkpt>
      <trkpt lat="47.77712" lon="-3.53361">
        <ele>8</ele>
        <time>2019-07-15T09:29:23Z</time>
      </trkpt>
      <trkpt lat="47.77716" lon="-3.53359">
        <ele>8</ele>
        <time>2019-07-15T09:29:24Z</time>
      </trkpt>
      <trkpt lat="47.77719" lon="-3.53358">
        <ele>8</ele>
        <time>2019-07-15T09:29:25Z</time>
      </trkpt>
      <trkpt lat="47.77723" lon="-3.53357">
        <ele>8</ele>
        <time>2019-07-15T09:29:26Z</time>
      </trkpt>
      <trkpt lat="47.77726" lon="-3.53357">
        <ele>8</ele>
        <time>2019-07-15T09:29:27Z</time>
      </trkpt>
      <trkpt lat="47.7773" lon="-3.53356">
        <ele>8</ele>
        <time>2019-07-15T09:29:28Z</time>
      </trkpt>
      <trkpt lat="47.77733" lon="-3.53355">
        <ele>8</ele>
        <time>2019-07-15T09:29:29Z</time>
      </trkpt>
      <trkpt lat="47.77736" lon="-3.53353">
        <ele>8</ele>
        <time>2019-07-15T09:29:30Z</time>
      </trkpt>
      <trkpt lat="47.7774" lon="-3.53352">
        <ele>8</ele>
        <time>2019-07-15T09:29:31Z</time>
      </trkpt>
      <trkpt lat="47.77744" lon="-3.53351">
        <ele>8</ele>
        <time>2019-07-15T09:29:32Z</time>
      </trkpt>
      <trkpt lat="47.77748" lon="-3.53351">
        <ele>8</ele>
        <time>2019-07-15T09:29:33Z</time>
      </trkpt>
      <trkpt lat="47.77753" lon="-3.53352">
        <ele>8</ele>
        <time>2019-07-15T09:29:34Z</time>
      </trkpt>
      <trkpt lat="47.77757" lon="-3.53353">
        <ele>8</ele>
        <time>2019-07-15T09:29:35Z</time>
      </trkpt>
      <trkpt lat="47.77761" lon="-3.53353">
        <ele>8</ele>
        <time>2019-07-15T09:29:36Z</time>
      </trkpt>
      <trkpt lat="47.77765" lon="-3.53353">
        <ele>8</ele>
        <time>2019-07-15T09:29:37Z</time>
      </trkpt>
      <trkpt lat="47.77769" lon="-3.53353">
        <ele>8</ele>
        <time>2019-07-15T09:29:38Z</time>
      </trkpt>
      <trkpt lat="47.77772" lon="-3.53353">
        <ele>8</ele>
        <time>2019-07-15T09:29:39Z</time>
      </trkpt>
      <trkpt lat="47.77774" lon="-3.53353">
        <ele>8</ele>
        <time>2019-07-15T09:29:40Z</time>
      </trkpt>
      <trkpt lat="47.77777" lon="-3.53352">
        <ele>8</ele>
        <time>2019-07-15T09:29:41Z</time>
      </trkpt>
      <trkpt lat="47.7778" lon="-3.53353">
        <ele>8</ele>
        <time>2019-07-15T09:29:42Z</time>
      </trkpt>
      <trkpt lat="47.77782" lon="-3.53353">
        <ele>7</ele>
        <time>2019-07-15T09:29:43Z</time>
      </trkpt>
      <trkpt lat="47.77785" lon="-3.53352">
        <ele>7</ele>
        <time>2019-07-15T09:29:44Z</time>
      </trkpt>
      <trkpt lat="47.77788" lon="-3.53352">
        <ele>8</ele>
        <time>2019-07-15T09:29:45Z</time>
      </trkpt>
      <trkpt lat="47.77791" lon="-3.53352">
        <ele>8</ele>
        <time>2019-07-15T09:29:46Z</time>
      </trkpt>
      <trkpt lat="47.77794" lon="-3.53352">
        <ele>8</ele>
        <time>2019-07-15T09:29:47Z</time>
      </trkpt>
      <trkpt lat="47.77798" lon="-3.53352">
        <ele>8</ele>
        <time>2019-07-15T09:29:48Z</time>
      </trkpt>
      <trkpt lat="47.77801" lon="-3.53352">
        <ele>8</ele>
        <time>2019-07-15T09:29:49Z</time>
      </trkpt>
      <trkpt lat="47.77804" lon="-3.53351">
        <ele>8</ele>
        <time>2019-07-15T09:29:50Z</time>
      </trkpt>
      <trkpt lat="47.77806" lon="-3.53351">
        <ele>8</ele>
        <time>2019-07-15T09:29:51Z</time>
      </trkpt>
      <trkpt lat="47.77808" lon="-3.53351">
        <ele>8</ele>
        <time>2019-07-15T09:29:52Z</time>
      </trkpt>
      <trkpt lat="47.77812" lon="-3.53351">
        <ele>8</ele>
        <time>2019-07-15T09:29:53Z</time>
      </trkpt>
      <trkpt lat="47.77817" lon="-3.5335">
        <ele>8</ele>
        <time>2019-07-15T09:29:54Z</time>
      </trkpt>
      <trkpt lat="47.77822" lon="-3.53349">
        <ele>8</ele>
        <time>2019-07-15T09:29:55Z</time>
      </trkpt>
      <trkpt lat="47.77827" lon="-3.53348">
        <ele>8</ele>
        <time>2019-07-15T09:29:56Z</time>
      </trkpt>
      <trkpt lat="47.77832" lon="-3.53347">
        <ele>8</ele>
        <time>2019-07-15T09:29:57Z</time>
      </trkpt>
      <trkpt lat="47.77837" lon="-3.53346">
        <ele>8</ele>
        <time>2019-07-15T09:29:58Z</time>
      </trkpt>
      <trkpt lat="47.7784" lon="-3.53345">
        <ele>9</ele>
        <time>2019-07-15T09:29:59Z</time>
      </trkpt>
      <trkpt lat="47.77842" lon="-3.53345">
        <ele>9</ele>
        <time>2019-07-15T09:30:00Z</time>
      </trkpt>
      <trkpt lat="47.77845" lon="-3.53345">
        <ele>9</ele>
        <time>2019-07-15T09:30:01Z</time>
      </trkpt>
      <trkpt lat="47.77849" lon="-3.53344">
        <ele>9</ele>
        <time>2019-07-15T09:30:02Z</time>
      </trkpt>
      <trkpt lat="47.77852" lon="-3.53344">
        <ele>9</ele>
        <time>2019-07-15T09:30:03Z</time>
      </trkpt>
      <trkpt lat="47.77855" lon="-3.53343">
        <ele>9</ele>
        <time>2019-07-15T09:30:04Z</time>
      </trkpt>
      <trkpt lat="47.77858" lon="-3.53342">
        <ele>9</ele>
        <time>2019-07-15T09:30:05Z</time>
      </trkpt>
      <trkpt lat="47.77862" lon="-3.5334">
        <ele>9</ele>
        <time>2019-07-15T09:30:06Z</time>
      </trkpt>
      <trkpt lat="47.77867" lon="-3.53337">
        <ele>9</ele>
        <time>2019-07-15T09:30:07Z</time>
      </trkpt>
      <trkpt lat="47.77871" lon="-3.53333">
        <ele>9</ele>
        <time>2019-07-15T09:30:08Z</time>
      </trkpt>
      <trkpt lat="47.77875" lon="-3.53331">
        <ele>9</ele>
        <time>2019-07-15T09:30:09Z</time>
      </trkpt>
      <trkpt lat="47.7788" lon="-3.53329">
        <ele>9</ele>
        <time>2019-07-15T09:30:10Z</time>
      </trkpt>
      <trkpt lat="47.77885" lon="-3.53328">
        <ele>9</ele>
        <time>2019-07-15T09:30:11Z</time>
      </trkpt>
      <trkpt lat="47.77889" lon="-3.53324">
        <ele>9</ele>
        <time>2019-07-15T09:30:12Z</time>
      </trkpt>
      <trkpt lat="47.77894" lon="-3.5332">
        <ele>9</ele>
        <time>2019-07-15T09:30:13Z</time>
      </trkpt>
      <trkpt lat="47.77898" lon="-3.53318">
        <ele>8</ele>
        <time>2019-07-15T09:30:14Z</time>
      </trkpt>
      <trkpt lat="47.77902" lon="-3.53317">
        <ele>8</ele>
        <time>2019-07-15T09:30:15Z</time>
      </trkpt>
      <trkpt lat="47.77907" lon="-3.53315">
        <ele>8</ele>
        <time>2019-07-15T09:30:16Z</time>
      </trkpt>
      <trkpt lat="47.77911" lon="-3.53314">
        <ele>8</ele>
        <time>2019-07-15T09:30:17Z</time>
      </trkpt>
      <trkpt lat="47.77915" lon="-3.53315">
        <ele>8</ele>
        <time>2019-07-15T09:30:18Z</time>
      </trkpt>
      <trkpt lat="47.77917" lon="-3.53316">
        <ele>8</ele>
        <time>2019-07-15T09:30:19Z</time>
      </trkpt>
      <trkpt lat="47.7792" lon="-3.53318">
        <ele>8</ele>
        <time>2019-07-15T09:30:20Z</time>
      </trkpt>
      <trkpt lat="47.77921" lon="-3.53319">
        <ele>8</ele>
        <time>2019-07-15T09:30:21Z</time>
      </trkpt>
      <trkpt lat="47.77923" lon="-3.53321">
        <ele>7</ele>
        <time>2019-07-15T09:30:22Z</time>
      </trkpt>
      <trkpt lat="47.77926" lon="-3.53324">
        <ele>7</ele>
        <time>2019-07-15T09:30:23Z</time>
      </trkpt>
      <trkpt lat="47.77928" lon="-3.53328">
        <ele>7</ele>
        <time>2019-07-15T09:30:24Z</time>
      </trkpt>
      <trkpt lat="47.7793" lon="-3.53331">
        <ele>7</ele>
        <time>2019-07-15T09:30:25Z</time>
      </trkpt>
      <trkpt lat="47.77933" lon="-3.53335">
        <ele>7</ele>
        <time>2019-07-15T09:30:26Z</time>
      </trkpt>
      <trkpt lat="47.77936" lon="-3.5334">
        <ele>7</ele>
        <time>2019-07-15T09:30:27Z</time>
      </trkpt>
      <trkpt lat="47.7794" lon="-3.53345">
        <ele>7</ele>
        <time>2019-07-15T09:30:28Z</time>
      </trkpt>
      <trkpt lat="47.77943" lon="-3.53348">
        <ele>7</ele>
        <time>2019-07-15T09:30:29Z</time>
      </trkpt>
      <trkpt lat="47.77946" lon="-3.53349">
        <ele>7</ele>
        <time>2019-07-15T09:30:30Z</time>
      </trkpt>
      <trkpt lat="47.77947" lon="-3.53348">
        <ele>7</ele>
        <time>2019-07-15T09:30:31Z</time>
      </trkpt>
      <trkpt lat="47.77949" lon="-3.53347">
        <ele>7</ele>
        <time>2019-07-15T09:30:32Z</time>
      </trkpt>
      <trkpt lat="47.77951" lon="-3.53345">
        <ele>7</ele>
        <time>2019-07-15T09:30:33Z</time>
      </trkpt>
      <trkpt lat="47.77954" lon="-3.53343">
        <ele>7</ele>
        <time>2019-07-15T09:30:34Z</time>
      </trkpt>
      <trkpt lat="47.77957" lon="-3.53342">
        <ele>7</ele>
        <time>2019-07-15T09:30:35Z</time>
      </trkpt>
      <trkpt lat="47.7796" lon="-3.53341">
        <ele>7</ele>
        <time>2019-07-15T09:30:36Z</time>
      </trkpt>
      <trkpt lat="47.77963" lon="-3.5334">
        <ele>7</ele>
        <time>2019-07-15T09:30:37Z</time>
      </trkpt>
      <trkpt lat="47.77967" lon="-3.53339">
        <ele>7</ele>
        <time>2019-07-15T09:30:38Z</time>
      </trkpt>
      <trkpt lat="47.7797" lon="-3.53339">
        <ele>7</ele>
        <time>2019-07-15T09:30:39Z</time>
      </trkpt>
      <trkpt lat="47.77973" lon="-3.53339">
        <ele>7</ele>
        <time>2019-07-15T09:30:40Z</time>
      </trkpt>
      <trkpt lat="47.77975" lon="-3.53339">
        <ele>7</ele>
        <time>2019-07-15T09:30:41Z</time>
      </trkpt>
      <trkpt lat="47.77978" lon="-3.53338">
        <ele>7</ele>
        <time>2019-07-15T09:30:42Z</time>
      </trkpt>
      <trkpt lat="47.7798" lon="-3.53336">
        <ele>7</ele>
        <time>2019-07-15T09:30:43Z</time>
      </trkpt>
      <trkpt lat="47.77982" lon="-3.53334">
        <ele>7</ele>
        <time>2019-07-15T09:30:44Z</time>
      </trkpt>
      <trkpt lat="47.77985" lon="-3.5333">
        <ele>7</ele>
        <time>2019-07-15T09:30:45Z</time>
      </trkpt>
      <trkpt lat="47.77988" lon="-3.53326">
        <ele>7</ele>
        <time>2019-07-15T09:30:46Z</time>
      </trkpt>
      <trkpt lat="47.77992" lon="-3.53322">
        <ele>7</ele>
        <time>2019-07-15T09:30:47Z</time>
      </trkpt>
      <trkpt lat="47.77996" lon="-3.53317">
        <ele>7</ele>
        <time>2019-07-15T09:30:48Z</time>
      </trkpt>
      <trkpt lat="47.78001" lon="-3.53314">
        <ele>7</ele>
        <time>2019-07-15T09:30:49Z</time>
      </trkpt>
      <trkpt lat="47.78005" lon="-3.53311">
        <ele>8</ele>
        <time>2019-07-15T09:30:50Z</time>
      </trkpt>
      <trkpt lat="47.78009" lon="-3.53309">
        <ele>8</ele>
        <time>2019-07-15T09:30:51Z</time>
      </trkpt>
      <trkpt lat="47.78013" lon="-3.53307">
        <ele>8</ele>
        <time>2019-07-15T09:30:52Z</time>
      </trkpt>
      <trkpt lat="47.78016" lon="-3.53306">
        <ele>7</ele>
        <time>2019-07-15T09:30:53Z</time>
      </trkpt>
      <trkpt lat="47.7802" lon="-3.53306">
        <ele>7</ele>
        <time>2019-07-15T09:30:54Z</time>
      </trkpt>
      <trkpt lat="47.78023" lon="-3.53305">
        <ele>7</ele>
        <time>2019-07-15T09:30:55Z</time>
      </trkpt>
      <trkpt lat="47.78027" lon="-3.53304">
        <ele>7</ele>
        <time>2019-07-15T09:30:56Z</time>
      </trkpt>
      <trkpt lat="47.78031" lon="-3.53302">
        <ele>7</ele>
        <time>2019-07-15T09:30:57Z</time>
      </trkpt>
      <trkpt lat="47.78035" lon="-3.53299">
        <ele>8</ele>
        <time>2019-07-15T09:30:58Z</time>
      </trkpt>
      <trkpt lat="47.7804" lon="-3.53296">
        <ele>8</ele>
        <time>2019-07-15T09:30:59Z</time>
      </trkpt>
      <trkpt lat="47.78044" lon="-3.53294">
        <ele>8</ele>
        <time>2019-07-15T09:31:00Z</time>
      </trkpt>
      <trkpt lat="47.78049" lon="-3.53292">
        <ele>8</ele>
        <time>2019-07-15T09:31:01Z</time>
      </trkpt>
      <trkpt lat="47.78054" lon="-3.53291">
        <ele>8</ele>
        <time>2019-07-15T09:31:02Z</time>
      </trkpt>
      <trkpt lat="47.78058" lon="-3.5329">
        <ele>8</ele>
        <time>2019-07-15T09:31:03Z</time>
      </trkpt>
      <trkpt lat="47.78062" lon="-3.53289">
        <ele>8</ele>
        <time>2019-07-15T09:31:04Z</time>
      </trkpt>
      <trkpt lat="47.78066" lon="-3.5329">
        <ele>8</ele>
        <time>2019-07-15T09:31:05Z</time>
      </trkpt>
      <trkpt lat="47.7807" lon="-3.5329">
        <ele>8</ele>
        <time>2019-07-15T09:31:06Z</time>
      </trkpt>
      <trkpt lat="47.78073" lon="-3.53289">
        <ele>8</ele>
        <time>2019-07-15T09:31:07Z</time>
      </trkpt>
      <trkpt lat="47.78078" lon="-3.53288">
        <ele>8</ele>
        <time>2019-07-15T09:31:08Z</time>
      </trkpt>
      <trkpt lat="47.78082" lon="-3.53286">
        <ele>8</ele>
        <time>2019-07-15T09:31:09Z</time>
      </trkpt>
      <trkpt lat="47.78085" lon="-3.53284">
        <ele>8</ele>
        <time>2019-07-15T09:31:10Z</time>
      </trkpt>
      <trkpt lat="47.78089" lon="-3.53283">
        <ele>8</ele>
        <time>2019-07-15T09:31:11Z</time>
      </trkpt>
      <trkpt lat="47.78093" lon="-3.53282">
        <ele>8</ele>
        <time>2019-07-15T09:31:12Z</time>
      </trkpt>
      <trkpt lat="47.78098" lon="-3.53281">
        <ele>8</ele>
        <time>2019-07-15T09:31:13Z</time>
      </trkpt>
      <trkpt lat="47.78102" lon="-3.53279">
        <ele>7</ele>
        <time>2019-07-15T09:31:14Z</time>
      </trkpt>
      <trkpt lat="47.78105" lon="-3.53277">
        <ele>7</ele>
        <time>2019-07-15T09:31:15Z</time>
      </trkpt>
      <trkpt lat="47.78108" lon="-3.53276">
        <ele>7</ele>
        <time>2019-07-15T09:31:16Z</time>
      </trkpt>
      <trkpt lat="47.78112" lon="-3.53274">
        <ele>7</ele>
        <time>2019-07-15T09:31:17Z</time>
      </trkpt>
      <trkpt lat="47.78114" lon="-3.53273">
        <ele>7</ele>
        <time>2019-07-15T09:31:18Z</time>
      </trkpt>
      <trkpt lat="47.78117" lon="-3.53271">
        <ele>7</ele>
        <time>2019-07-15T09:31:19Z</time>
      </trkpt>
      <trkpt lat="47.78121" lon="-3.53267">
        <ele>7</ele>
        <time>2019-07-15T09:31:20Z</time>
      </trkpt>
      <trkpt lat="47.78125" lon="-3.53263">
        <ele>7</ele>
        <time>2019-07-15T09:31:21Z</time>
      </trkpt>
      <trkpt lat="47.7813" lon="-3.5326">
        <ele>7</ele>
        <time>2019-07-15T09:31:22Z</time>
      </trkpt>
      <trkpt lat="47.78135" lon="-3.53257">
        <ele>7</ele>
        <time>2019-07-15T09:31:23Z</time>
      </trkpt>
      <trkpt lat="47.7814" lon="-3.53256">
        <ele>7</ele>
        <time>2019-07-15T09:31:24Z</time>
      </trkpt>
      <trkpt lat="47.78145" lon="-3.53255">
        <ele>7</ele>
        <time>2019-07-15T09:31:25Z</time>
      </trkpt>
      <trkpt lat="47.78148" lon="-3.53256">
        <ele>7</ele>
        <time>2019-07-15T09:31:26Z</time>
      </trkpt>
      <trkpt lat="47.78152" lon="-3.53255">
        <ele>7</ele>
        <time>2019-07-15T09:31:27Z</time>
      </trkpt>
      <trkpt lat="47.78155" lon="-3.53254">
        <ele>7</ele>
        <time>2019-07-15T09:31:28Z</time>
      </trkpt>
      <trkpt lat="47.78159" lon="-3.53253">
        <ele>7</ele>
        <time>2019-07-15T09:31:29Z</time>
      </trkpt>
      <trkpt lat="47.78163" lon="-3.53252">
        <ele>7</ele>
        <time>2019-07-15T09:31:30Z</time>
      </trkpt>
      <trkpt lat="47.78168" lon="-3.53252">
        <ele>7</ele>
        <time>2019-07-15T09:31:31Z</time>
      </trkpt>
      <trkpt lat="47.78172" lon="-3.53253">
        <ele>7</ele>
        <time>2019-07-15T09:31:32Z</time>
      </trkpt>
      <trkpt lat="47.78176" lon="-3.53253">
        <ele>7</ele>
        <time>2019-07-15T09:31:33Z</time>
      </trkpt>
      <trkpt lat="47.7818" lon="-3.53254">
        <ele>7</ele>
        <time>2019-07-15T09:31:34Z</time>
      </trkpt>
      <trkpt lat="47.78184" lon="-3.53255">
        <ele>7</ele>
        <time>2019-07-15T09:31:35Z</time>
      </trkpt>
      <trkpt lat="47.78188" lon="-3.53256">
        <ele>7</ele>
        <time>2019-07-15T09:31:36Z</time>
      </trkpt>
      <trkpt lat="47.78191" lon="-3.53256">
        <ele>7</ele>
        <time>2019-07-15T09:31:37Z</time>
      </trkpt>
      <trkpt lat="47.78195" lon="-3.53255">
        <ele>7</ele>
        <time>2019-07-15T09:31:38Z</time>
      </trkpt>
      <trkpt lat="47.782" lon="-3.53253">
        <ele>7</ele>
        <time>2019-07-15T09:31:39Z</time>
      </trkpt>
      <trkpt lat="47.78203" lon="-3.53251">
        <ele>7</ele>
        <time>2019-07-15T09:31:40Z</time>
      </trkpt>
      <trkpt lat="47.78207" lon="-3.53249">
        <ele>7</ele>
        <time>2019-07-15T09:31:41Z</time>
      </trkpt>
      <trkpt lat="47.78211" lon="-3.53247">
        <ele>7</ele>
        <time>2019-07-15T09:31:42Z</time>
      </trkpt>
      <trkpt lat="47.78214" lon="-3.53245">
        <ele>7</ele>
        <time>2019-07-15T09:31:43Z</time>
      </trkpt>
      <trkpt lat="47.78218" lon="-3.53242">
        <ele>7</ele>
        <time>2019-07-15T09:31:44Z</time>
      </trkpt>
      <trkpt lat="47.78222" lon="-3.5324">
        <ele>7</ele>
        <time>2019-07-15T09:31:45Z</time>
      </trkpt>
      <trkpt lat="47.78225" lon="-3.53239">
        <ele>7</ele>
        <time>2019-07-15T09:31:46Z</time>
      </trkpt>
      <trkpt lat="47.78229" lon="-3.53237">
        <ele>7</ele>
        <time>2019-07-15T09:31:47Z</time>
      </trkpt>
      <trkpt lat="47.78234" lon="-3.53236">
        <ele>7</ele>
        <time>2019-07-15T09:31:48Z</time>
      </trkpt>
      <trkpt lat="47.78238" lon="-3.53235">
        <ele>7</ele>
        <time>2019-07-15T09:31:49Z</time>
      </trkpt>
      <trkpt lat="47.78242" lon="-3.53234">
        <ele>7</ele>
        <time>2019-07-15T09:31:50Z</time>
      </trkpt>
      <trkpt lat="47.78245" lon="-3.53231">
        <ele>7</ele>
        <time>2019-07-15T09:31:51Z</time>
      </trkpt>
      <trkpt lat="47.7825" lon="-3.5323">
        <ele>7</ele>
        <time>2019-07-15T09:31:52Z</time>
      </trkpt>
      <trkpt lat="47.78254" lon="-3.5323">
        <ele>7</ele>
        <time>2019-07-15T09:31:53Z</time>
      </trkpt>
      <trkpt lat="47.78259" lon="-3.53231">
        <ele>7</ele>
        <time>2019-07-15T09:31:54Z</time>
      </trkpt>
      <trkpt lat="47.78264" lon="-3.53231">
        <ele>7</ele>
        <time>2019-07-15T09:31:55Z</time>
      </trkpt>
      <trkpt lat="47.78269" lon="-3.5323">
        <ele>7</ele>
        <time>2019-07-15T09:31:56Z</time>
      </trkpt>
      <trkpt lat="47.78275" lon="-3.5323">
        <ele>7</ele>
        <time>2019-07-15T09:31:57Z</time>
      </trkpt>
      <trkpt lat="47.7828" lon="-3.53231">
        <ele>7</ele>
        <time>2019-07-15T09:31:58Z</time>
      </trkpt>
      <trkpt lat="47.78285" lon="-3.53231">
        <ele>7</ele>
        <time>2019-07-15T09:31:59Z</time>
      </trkpt>
      <trkpt lat="47.7829" lon="-3.53231">
        <ele>7</ele>
        <time>2019-07-15T09:32:00Z</time>
      </trkpt>
      <trkpt lat="47.78295" lon="-3.53232">
        <ele>7</ele>
        <time>2019-07-15T09:32:01Z</time>
      </trkpt>
      <trkpt lat="47.783" lon="-3.53235">
        <ele>7</ele>
        <time>2019-07-15T09:32:02Z</time>
      </trkpt>
      <trkpt lat="47.78304" lon="-3.53237">
        <ele>7</ele>
        <time>2019-07-15T09:32:03Z</time>
      </trkpt>
      <trkpt lat="47.78308" lon="-3.53238">
        <ele>7</ele>
        <time>2019-07-15T09:32:04Z</time>
      </trkpt>
      <trkpt lat="47.78311" lon="-3.53239">
        <ele>7</ele>
        <time>2019-07-15T09:32:05Z</time>
      </trkpt>
      <trkpt lat="47.78313" lon="-3.53238">
        <ele>6</ele>
        <time>2019-07-15T09:32:06Z</time>
      </trkpt>
      <trkpt lat="47.78314" lon="-3.53238">
        <ele>6</ele>
        <time>2019-07-15T09:32:07Z</time>
      </trkpt>
      <trkpt lat="47.78316" lon="-3.53239">
        <ele>6</ele>
        <time>2019-07-15T09:32:08Z</time>
      </trkpt>
      <trkpt lat="47.78317" lon="-3.53239">
        <ele>6</ele>
        <time>2019-07-15T09:32:09Z</time>
      </trkpt>
      <trkpt lat="47.78319" lon="-3.5324">
        <ele>6</ele>
        <time>2019-07-15T09:32:10Z</time>
      </trkpt>
      <trkpt lat="47.78321" lon="-3.53241">
        <ele>6</ele>
        <time>2019-07-15T09:32:11Z</time>
      </trkpt>
      <trkpt lat="47.78323" lon="-3.53241">
        <ele>5</ele>
        <time>2019-07-15T09:32:12Z</time>
      </trkpt>
      <trkpt lat="47.78326" lon="-3.53241">
        <ele>5</ele>
        <time>2019-07-15T09:32:13Z</time>
      </trkpt>
      <trkpt lat="47.78329" lon="-3.5324">
        <ele>5</ele>
        <time>2019-07-15T09:32:14Z</time>
      </trkpt>
      <trkpt lat="47.7833" lon="-3.5324">
        <ele>5</ele>
        <time>2019-07-15T09:32:15Z</time>
      </trkpt>
      <trkpt lat="47.78332" lon="-3.53239">
        <ele>5</ele>
        <time>2019-07-15T09:32:16Z</time>
      </trkpt>
      <trkpt lat="47.78334" lon="-3.53238">
        <ele>5</ele>
        <time>2019-07-15T09:32:17Z</time>
      </trkpt>
      <trkpt lat="47.78335" lon="-3.53237">
        <ele>5</ele>
        <time>2019-07-15T09:32:18Z</time>
      </trkpt>
      <trkpt lat="47.78337" lon="-3.53236">
        <ele>4</ele>
        <time>2019-07-15T09:32:19Z</time>
      </trkpt>
      <trkpt lat="47.78337" lon="-3.53236">
        <ele>4</ele>
        <time>2019-07-15T09:32:20Z</time>
      </trkpt>
      <trkpt lat="47.78338" lon="-3.53236">
        <ele>4</ele>
        <time>2019-07-15T09:32:21Z</time>
      </trkpt>
      <trkpt lat="47.78339" lon="-3.53235">
        <ele>4</ele>
        <time>2019-07-15T09:32:22Z</time>
      </trkpt>
      <trkpt lat="47.78339" lon="-3.53234">
        <ele>4</ele>
        <time>2019-07-15T09:32:23Z</time>
      </trkpt>
      <trkpt lat="47.7834" lon="-3.53233">
        <ele>4</ele>
        <time>2019-07-15T09:32:24Z</time>
      </trkpt>
      <trkpt lat="47.7834" lon="-3.53233">
        <ele>4</ele>
        <time>2019-07-15T09:32:25Z</time>
      </trkpt>
      <trkpt lat="47.78348" lon="-3.53226">
        <ele>4</ele>
        <time>2019-07-15T09:32:26Z</time>
      </trkpt>
      <trkpt lat="47.78349" lon="-3.53225">
        <ele>4</ele>
        <time>2019-07-15T09:32:27Z</time>
      </trkpt>
      <trkpt lat="47.78352" lon="-3.53218">
        <ele>4</ele>
        <time>2019-07-15T09:32:28Z</time>
      </trkpt>
      <trkpt lat="47.78353" lon="-3.53217">
        <ele>5</ele>
        <time>2019-07-15T09:32:29Z</time>
      </trkpt>
      <trkpt lat="47.78353" lon="-3.53216">
        <ele>5</ele>
        <time>2019-07-15T09:32:30Z</time>
      </trkpt>
      <trkpt lat="47.78353" lon="-3.53214">
        <ele>5</ele>
        <time>2019-07-15T09:32:31Z</time>
      </trkpt>
      <trkpt lat="47.78354" lon="-3.53213">
        <ele>5</ele>
        <time>2019-07-15T09:32:32Z</time>
      </trkpt>
      <trkpt lat="47.78354" lon="-3.53211">
        <ele>5</ele>
        <time>2019-07-15T09:32:33Z</time>
      </trkpt>
      <trkpt lat="47.78354" lon="-3.53209">
        <ele>6</ele>
        <time>2019-07-15T09:32:34Z</time>
      </trkpt>
      <trkpt lat="47.78354" lon="-3.53207">
        <ele>6</ele>
        <time>2019-07-15T09:32:35Z</time>
      </trkpt>
      <trkpt lat="47.78355" lon="-3.53205">
        <ele>6</ele>
        <time>2019-07-15T09:32:36Z</time>
      </trkpt>
      <trkpt lat="47.78355" lon="-3.53203">
        <ele>6</ele>
        <time>2019-07-15T09:32:37Z</time>
      </trkpt>
      <trkpt lat="47.78355" lon="-3.53201">
        <ele>6</ele>
        <time>2019-07-15T09:32:38Z</time>
      </trkpt>
      <trkpt lat="47.78355" lon="-3.532">
        <ele>6</ele>
        <time>2019-07-15T09:32:39Z</time>
      </trkpt>
      <trkpt lat="47.78356" lon="-3.53197">
        <ele>6</ele>
        <time>2019-07-15T09:32:40Z</time>
      </trkpt>
      <trkpt lat="47.78356" lon="-3.53195">
        <ele>6</ele>
        <time>2019-07-15T09:32:41Z</time>
      </trkpt>
      <trkpt lat="47.78356" lon="-3.53194">
        <ele>6</ele>
        <time>2019-07-15T09:32:42Z</time>
      </trkpt>
      <trkpt lat="47.78357" lon="-3.53191">
        <ele>7</ele>
        <time>2019-07-15T09:32:43Z</time>
      </trkpt>
      <trkpt lat="47.78357" lon="-3.5319">
        <ele>7</ele>
        <time>2019-07-15T09:32:44Z</time>
      </trkpt>
      <trkpt lat="47.78357" lon="-3.53188">
        <ele>7</ele>
        <time>2019-07-15T09:32:45Z</time>
      </trkpt>
      <trkpt lat="47.78358" lon="-3.53187">
        <ele>7</ele>
        <time>2019-07-15T09:32:46Z</time>
      </trkpt>
      <trkpt lat="47.78358" lon="-3.53187">
        <ele>7</ele>
        <time>2019-07-15T09:32:47Z</time>
      </trkpt>
      <trkpt lat="47.78358" lon="-3.53187">
        <ele>7</ele>
        <time>2019-07-15T09:32:48Z</time>
      </trkpt>
      <trkpt lat="47.7836" lon="-3.53182">
        <ele>7</ele>
        <time>2019-07-15T09:32:49Z</time>
      </trkpt>
      <trkpt lat="47.78361" lon="-3.53179">
        <ele>7</ele>
        <time>2019-07-15T09:32:50Z</time>
      </trkpt>
      <trkpt lat="47.78362" lon="-3.53175">
        <ele>7</ele>
        <time>2019-07-15T09:32:51Z</time>
      </trkpt>
      <trkpt lat="47.78364" lon="-3.53171">
        <ele>7</ele>
        <time>2019-07-15T09:32:52Z</time>
      </trkpt>
      <trkpt lat="47.78366" lon="-3.53168">
        <ele>7</ele>
        <time>2019-07-15T09:32:53Z</time>
      </trkpt>
      <trkpt lat="47.78369" lon="-3.53165">
        <ele>7</ele>
        <time>2019-07-15T09:32:54Z</time>
      </trkpt>
      <trkpt lat="47.78372" lon="-3.53162">
        <ele>7</ele>
        <time>2019-07-15T09:32:55Z</time>
      </trkpt>
      <trkpt lat="47.78375" lon="-3.5316">
        <ele>6</ele>
        <time>2019-07-15T09:32:56Z</time>
      </trkpt>
      <trkpt lat="47.78377" lon="-3.53158">
        <ele>6</ele>
        <time>2019-07-15T09:32:57Z</time>
      </trkpt>
      <trkpt lat="47.78379" lon="-3.53156">
        <ele>6</ele>
        <time>2019-07-15T09:32:58Z</time>
      </trkpt>
      <trkpt lat="47.78381" lon="-3.53155">
        <ele>6</ele>
        <time>2019-07-15T09:32:59Z</time>
      </trkpt>
      <trkpt lat="47.78383" lon="-3.53154">
        <ele>6</ele>
        <time>2019-07-15T09:33:00Z</time>
      </trkpt>
      <trkpt lat="47.78386" lon="-3.53152">
        <ele>6</ele>
        <time>2019-07-15T09:33:01Z</time>
      </trkpt>
      <trkpt lat="47.78388" lon="-3.5315">
        <ele>6</ele>
        <time>2019-07-15T09:33:02Z</time>
      </trkpt>
      <trkpt lat="47.7839" lon="-3.53149">
        <ele>6</ele>
        <time>2019-07-15T09:33:03Z</time>
      </trkpt>
      <trkpt lat="47.78393" lon="-3.53148">
        <ele>6</ele>
        <time>2019-07-15T09:33:04Z</time>
      </trkpt>
      <trkpt lat="47.78395" lon="-3.53146">
        <ele>6</ele>
        <time>2019-07-15T09:33:05Z</time>
      </trkpt>
      <trkpt lat="47.78396" lon="-3.53145">
        <ele>6</ele>
        <time>2019-07-15T09:33:06Z</time>
      </trkpt>
      <trkpt lat="47.78399" lon="-3.53144">
        <ele>6</ele>
        <time>2019-07-15T09:33:07Z</time>
      </trkpt>
      <trkpt lat="47.78401" lon="-3.53142">
        <ele>6</ele>
        <time>2019-07-15T09:33:08Z</time>
      </trkpt>
      <trkpt lat="47.78404" lon="-3.53141">
        <ele>6</ele>
        <time>2019-07-15T09:33:09Z</time>
      </trkpt>
      <trkpt lat="47.78406" lon="-3.53139">
        <ele>6</ele>
        <time>2019-07-15T09:33:10Z</time>
      </trkpt>
      <trkpt lat="47.78409" lon="-3.53138">
        <ele>6</ele>
        <time>2019-07-15T09:33:11Z</time>
      </trkpt>
      <trkpt lat="47.7841" lon="-3.53137">
        <ele>6</ele>
        <time>2019-07-15T09:33:12Z</time>
      </trkpt>
      <trkpt lat="47.78413" lon="-3.53134">
        <ele>6</ele>
        <time>2019-07-15T09:33:13Z</time>
      </trkpt>
      <trkpt lat="47.78416" lon="-3.53131">
        <ele>6</ele>
        <time>2019-07-15T09:33:14Z</time>
      </trkpt>
      <trkpt lat="47.78418" lon="-3.53127">
        <ele>7</ele>
        <time>2019-07-15T09:33:15Z</time>
      </trkpt>
      <trkpt lat="47.78422" lon="-3.53122">
        <ele>7</ele>
        <time>2019-07-15T09:33:16Z</time>
      </trkpt>
      <trkpt lat="47.78425" lon="-3.53117">
        <ele>7</ele>
        <time>2019-07-15T09:33:17Z</time>
      </trkpt>
      <trkpt lat="47.78428" lon="-3.53111">
        <ele>7</ele>
        <time>2019-07-15T09:33:18Z</time>
      </trkpt>
      <trkpt lat="47.7843" lon="-3.53106">
        <ele>7</ele>
        <time>2019-07-15T09:33:19Z</time>
      </trkpt>
      <trkpt lat="47.78433" lon="-3.531">
        <ele>7</ele>
        <time>2019-07-15T09:33:20Z</time>
      </trkpt>
      <trkpt lat="47.78435" lon="-3.53095">
        <ele>7</ele>
        <time>2019-07-15T09:33:21Z</time>
      </trkpt>
      <trkpt lat="47.78439" lon="-3.53091">
        <ele>7</ele>
        <time>2019-07-15T09:33:22Z</time>
      </trkpt>
      <trkpt lat="47.78441" lon="-3.53087">
        <ele>7</ele>
        <time>2019-07-15T09:33:23Z</time>
      </trkpt>
      <trkpt lat="47.78444" lon="-3.53082">
        <ele>7</ele>
        <time>2019-07-15T09:33:24Z</time>
      </trkpt>
      <trkpt lat="47.78446" lon="-3.53077">
        <ele>7</ele>
        <time>2019-07-15T09:33:25Z</time>
      </trkpt>
      <trkpt lat="47.78447" lon="-3.53074">
        <ele>7</ele>
        <time>2019-07-15T09:33:26Z</time>
      </trkpt>
      <trkpt lat="47.78449" lon="-3.53071">
        <ele>8</ele>
        <time>2019-07-15T09:33:27Z</time>
      </trkpt>
      <trkpt lat="47.7845" lon="-3.53069">
        <ele>8</ele>
        <time>2019-07-15T09:33:28Z</time>
      </trkpt>
      <trkpt lat="47.78452" lon="-3.53067">
        <ele>7</ele>
        <time>2019-07-15T09:33:29Z</time>
      </trkpt>
      <trkpt lat="47.78453" lon="-3.53065">
        <ele>7</ele>
        <time>2019-07-15T09:33:30Z</time>
      </trkpt>
      <trkpt lat="47.78454" lon="-3.53063">
        <ele>7</ele>
        <time>2019-07-15T09:33:31Z</time>
      </trkpt>
      <trkpt lat="47.78455" lon="-3.5306">
        <ele>7</ele>
        <time>2019-07-15T09:33:32Z</time>
      </trkpt>
      <trkpt lat="47.78455" lon="-3.53058">
        <ele>7</ele>
        <time>2019-07-15T09:33:33Z</time>
      </trkpt>
      <trkpt lat="47.78456" lon="-3.53055">
        <ele>7</ele>
        <time>2019-07-15T09:33:34Z</time>
      </trkpt>
      <trkpt lat="47.78458" lon="-3.53051">
        <ele>7</ele>
        <time>2019-07-15T09:33:35Z</time>
      </trkpt>
      <trkpt lat="47.78459" lon="-3.53049">
        <ele>7</ele>
        <time>2019-07-15T09:33:36Z</time>
      </trkpt>
      <trkpt lat="47.7846" lon="-3.53046">
        <ele>7</ele>
        <time>2019-07-15T09:33:37Z</time>
      </trkpt>
      <trkpt lat="47.78462" lon="-3.53043">
        <ele>7</ele>
        <time>2019-07-15T09:33:38Z</time>
      </trkpt>
      <trkpt lat="47.78464" lon="-3.53041">
        <ele>7</ele>
        <time>2019-07-15T09:33:39Z</time>
      </trkpt>
      <trkpt lat="47.78465" lon="-3.53038">
        <ele>7</ele>
        <time>2019-07-15T09:33:40Z</time>
      </trkpt>
      <trkpt lat="47.78467" lon="-3.53035">
        <ele>7</ele>
        <time>2019-07-15T09:33:41Z</time>
      </trkpt>
      <trkpt lat="47.78469" lon="-3.53033">
        <ele>7</ele>
        <time>2019-07-15T09:33:42Z</time>
      </trkpt>
      <trkpt lat="47.78471" lon="-3.5303">
        <ele>7</ele>
        <time>2019-07-15T09:33:43Z</time>
      </trkpt>
      <trkpt lat="47.78472" lon="-3.53028">
        <ele>7</ele>
        <time>2019-07-15T09:33:44Z</time>
      </trkpt>
      <trkpt lat="47.78475" lon="-3.53026">
        <ele>7</ele>
        <time>2019-07-15T09:33:45Z</time>
      </trkpt>
      <trkpt lat="47.78476" lon="-3.53023">
        <ele>7</ele>
        <time>2019-07-15T09:33:46Z</time>
      </trkpt>
      <trkpt lat="47.78478" lon="-3.53021">
        <ele>7</ele>
        <time>2019-07-15T09:33:47Z</time>
      </trkpt>
      <trkpt lat="47.7848" lon="-3.53017">
        <ele>6</ele>
        <time>2019-07-15T09:33:48Z</time>
      </trkpt>
      <trkpt lat="47.78483" lon="-3.53013">
        <ele>7</ele>
        <time>2019-07-15T09:33:49Z</time>
      </trkpt>
      <trkpt lat="47.78485" lon="-3.53009">
        <ele>7</ele>
        <time>2019-07-15T09:33:50Z</time>
      </trkpt>
      <trkpt lat="47.78487" lon="-3.53005">
        <ele>7</ele>
        <time>2019-07-15T09:33:51Z</time>
      </trkpt>
      <trkpt lat="47.78489" lon="-3.53002">
        <ele>7</ele>
        <time>2019-07-15T09:33:52Z</time>
      </trkpt>
      <trkpt lat="47.78492" lon="-3.52999">
        <ele>7</ele>
        <time>2019-07-15T09:33:53Z</time>
      </trkpt>
      <trkpt lat="47.78494" lon="-3.52996">
        <ele>7</ele>
        <time>2019-07-15T09:33:54Z</time>
      </trkpt>
      <trkpt lat="47.78496" lon="-3.52993">
        <ele>7</ele>
        <time>2019-07-15T09:33:55Z</time>
      </trkpt>
      <trkpt lat="47.78498" lon="-3.5299">
        <ele>7</ele>
        <time>2019-07-15T09:33:56Z</time>
      </trkpt>
      <trkpt lat="47.785" lon="-3.52986">
        <ele>7</ele>
        <time>2019-07-15T09:33:57Z</time>
      </trkpt>
      <trkpt lat="47.78502" lon="-3.52983">
        <ele>7</ele>
        <time>2019-07-15T09:33:58Z</time>
      </trkpt>
      <trkpt lat="47.78505" lon="-3.52979">
        <ele>7</ele>
        <time>2019-07-15T09:33:59Z</time>
      </trkpt>
      <trkpt lat="47.78508" lon="-3.52976">
        <ele>7</ele>
        <time>2019-07-15T09:34:00Z</time>
      </trkpt>
      <trkpt lat="47.78511" lon="-3.52973">
        <ele>7</ele>
        <time>2019-07-15T09:34:01Z</time>
      </trkpt>
      <trkpt lat="47.78513" lon="-3.5297">
        <ele>7</ele>
        <time>2019-07-15T09:34:02Z</time>
      </trkpt>
      <trkpt lat="47.78516" lon="-3.52967">
        <ele>8</ele>
        <time>2019-07-15T09:34:03Z</time>
      </trkpt>
      <trkpt lat="47.78518" lon="-3.52963">
        <ele>8</ele>
        <time>2019-07-15T09:34:04Z</time>
      </trkpt>
      <trkpt lat="47.7852" lon="-3.5296">
        <ele>8</ele>
        <time>2019-07-15T09:34:05Z</time>
      </trkpt>
      <trkpt lat="47.78524" lon="-3.52955">
        <ele>8</ele>
        <time>2019-07-15T09:34:06Z</time>
      </trkpt>
      <trkpt lat="47.78528" lon="-3.52948">
        <ele>8</ele>
        <time>2019-07-15T09:34:07Z</time>
      </trkpt>
      <trkpt lat="47.78532" lon="-3.52941">
        <ele>8</ele>
        <time>2019-07-15T09:34:08Z</time>
      </trkpt>
      <trkpt lat="47.78535" lon="-3.52933">
        <ele>9</ele>
        <time>2019-07-15T09:34:09Z</time>
      </trkpt>
      <trkpt lat="47.78537" lon="-3.52926">
        <ele>9</ele>
        <time>2019-07-15T09:34:10Z</time>
      </trkpt>
      <trkpt lat="47.78539" lon="-3.52919">
        <ele>9</ele>
        <time>2019-07-15T09:34:11Z</time>
      </trkpt>
      <trkpt lat="47.78542" lon="-3.52914">
        <ele>9</ele>
        <time>2019-07-15T09:34:12Z</time>
      </trkpt>
      <trkpt lat="47.78545" lon="-3.5291">
        <ele>9</ele>
        <time>2019-07-15T09:34:13Z</time>
      </trkpt>
      <trkpt lat="47.78548" lon="-3.52905">
        <ele>9</ele>
        <time>2019-07-15T09:34:14Z</time>
      </trkpt>
      <trkpt lat="47.78551" lon="-3.52899">
        <ele>9</ele>
        <time>2019-07-15T09:34:15Z</time>
      </trkpt>
      <trkpt lat="47.78554" lon="-3.52894">
        <ele>10</ele>
        <time>2019-07-15T09:34:16Z</time>
      </trkpt>
      <trkpt lat="47.78557" lon="-3.5289">
        <ele>10</ele>
        <time>2019-07-15T09:34:17Z</time>
      </trkpt>
      <trkpt lat="47.7856" lon="-3.52886">
        <ele>10</ele>
        <time>2019-07-15T09:34:18Z</time>
      </trkpt>
      <trkpt lat="47.78563" lon="-3.52884">
        <ele>10</ele>
        <time>2019-07-15T09:34:19Z</time>
      </trkpt>
      <trkpt lat="47.78565" lon="-3.52882">
        <ele>10</ele>
        <time>2019-07-15T09:34:20Z</time>
      </trkpt>
      <trkpt lat="47.78567" lon="-3.52878">
        <ele>10</ele>
        <time>2019-07-15T09:34:21Z</time>
      </trkpt>
      <trkpt lat="47.78569" lon="-3.52875">
        <ele>10</ele>
        <time>2019-07-15T09:34:22Z</time>
      </trkpt>
      <trkpt lat="47.78573" lon="-3.52872">
        <ele>10</ele>
        <time>2019-07-15T09:34:23Z</time>
      </trkpt>
      <trkpt lat="47.78576" lon="-3.52869">
        <ele>10</ele>
        <time>2019-07-15T09:34:24Z</time>
      </trkpt>
      <trkpt lat="47.78579" lon="-3.52865">
        <ele>10</ele>
        <time>2019-07-15T09:34:25Z</time>
      </trkpt>
      <trkpt lat="47.78582" lon="-3.5286">
        <ele>10</ele>
        <time>2019-07-15T09:34:26Z</time>
      </trkpt>
      <trkpt lat="47.78587" lon="-3.52855">
        <ele>10</ele>
        <time>2019-07-15T09:34:27Z</time>
      </trkpt>
      <trkpt lat="47.78592" lon="-3.52851">
        <ele>10</ele>
        <time>2019-07-15T09:34:28Z</time>
      </trkpt>
      <trkpt lat="47.78598" lon="-3.52848">
        <ele>10</ele>
        <time>2019-07-15T09:34:29Z</time>
      </trkpt>
      <trkpt lat="47.78604" lon="-3.52846">
        <ele>10</ele>
        <time>2019-07-15T09:34:30Z</time>
      </trkpt>
      <trkpt lat="47.78609" lon="-3.52845">
        <ele>9</ele>
        <time>2019-07-15T09:34:31Z</time>
      </trkpt>
      <trkpt lat="47.78612" lon="-3.52843">
        <ele>9</ele>
        <time>2019-07-15T09:34:32Z</time>
      </trkpt>
      <trkpt lat="47.78616" lon="-3.52843">
        <ele>9</ele>
        <time>2019-07-15T09:34:33Z</time>
      </trkpt>
      <trkpt lat="47.78619" lon="-3.52842">
        <ele>9</ele>
        <time>2019-07-15T09:34:34Z</time>
      </trkpt>
      <trkpt lat="47.78622" lon="-3.52841">
        <ele>9</ele>
        <time>2019-07-15T09:34:35Z</time>
      </trkpt>
      <trkpt lat="47.78625" lon="-3.52841">
        <ele>9</ele>
        <time>2019-07-15T09:34:36Z</time>
      </trkpt>
      <trkpt lat="47.78629" lon="-3.5284">
        <ele>9</ele>
        <time>2019-07-15T09:34:37Z</time>
      </trkpt>
      <trkpt lat="47.78632" lon="-3.5284">
        <ele>9</ele>
        <time>2019-07-15T09:34:38Z</time>
      </trkpt>
      <trkpt lat="47.78634" lon="-3.5284">
        <ele>9</ele>
        <time>2019-07-15T09:34:39Z</time>
      </trkpt>
      <trkpt lat="47.78638" lon="-3.52839">
        <ele>9</ele>
        <time>2019-07-15T09:34:40Z</time>
      </trkpt>
      <trkpt lat="47.78641" lon="-3.52839">
        <ele>9</ele>
        <time>2019-07-15T09:34:41Z</time>
      </trkpt>
      <trkpt lat="47.78644" lon="-3.52838">
        <ele>9</ele>
        <time>2019-07-15T09:34:42Z</time>
      </trkpt>
      <trkpt lat="47.78648" lon="-3.52839">
        <ele>9</ele>
        <time>2019-07-15T09:34:43Z</time>
      </trkpt>
      <trkpt lat="47.78651" lon="-3.52839">
        <ele>9</ele>
        <time>2019-07-15T09:34:44Z</time>
      </trkpt>
      <trkpt lat="47.78654" lon="-3.5284">
        <ele>9</ele>
        <time>2019-07-15T09:34:45Z</time>
      </trkpt>
      <trkpt lat="47.78658" lon="-3.5284">
        <ele>9</ele>
        <time>2019-07-15T09:34:46Z</time>
      </trkpt>
      <trkpt lat="47.78661" lon="-3.52841">
        <ele>9</ele>
        <time>2019-07-15T09:34:47Z</time>
      </trkpt>
      <trkpt lat="47.78664" lon="-3.52842">
        <ele>9</ele>
        <time>2019-07-15T09:34:48Z</time>
      </trkpt>
      <trkpt lat="47.78668" lon="-3.52842">
        <ele>9</ele>
        <time>2019-07-15T09:34:49Z</time>
      </trkpt>
      <trkpt lat="47.78671" lon="-3.52843">
        <ele>9</ele>
        <time>2019-07-15T09:34:50Z</time>
      </trkpt>
      <trkpt lat="47.78674" lon="-3.52844">
        <ele>9</ele>
        <time>2019-07-15T09:34:51Z</time>
      </trkpt>
      <trkpt lat="47.78677" lon="-3.52845">
        <ele>9</ele>
        <time>2019-07-15T09:34:52Z</time>
      </trkpt>
      <trkpt lat="47.7868" lon="-3.52846">
        <ele>9</ele>
        <time>2019-07-15T09:34:53Z</time>
      </trkpt>
      <trkpt lat="47.78683" lon="-3.52847">
        <ele>9</ele>
        <time>2019-07-15T09:34:54Z</time>
      </trkpt>
      <trkpt lat="47.78686" lon="-3.52849">
        <ele>9</ele>
        <time>2019-07-15T09:34:55Z</time>
      </trkpt>
      <trkpt lat="47.78689" lon="-3.52852">
        <ele>8</ele>
        <time>2019-07-15T09:34:56Z</time>
      </trkpt>
      <trkpt lat="47.78691" lon="-3.52855">
        <ele>8</ele>
        <time>2019-07-15T09:34:57Z</time>
      </trkpt>
      <trkpt lat="47.78694" lon="-3.52859">
        <ele>8</ele>
        <time>2019-07-15T09:34:58Z</time>
      </trkpt>
      <trkpt lat="47.78698" lon="-3.52862">
        <ele>8</ele>
        <time>2019-07-15T09:34:59Z</time>
      </trkpt>
      <trkpt lat="47.78703" lon="-3.52866">
        <ele>8</ele>
        <time>2019-07-15T09:35:00Z</time>
      </trkpt>
      <trkpt lat="47.78708" lon="-3.52871">
        <ele>8</ele>
        <time>2019-07-15T09:35:01Z</time>
      </trkpt>
      <trkpt lat="47.78713" lon="-3.52878">
        <ele>8</ele>
        <time>2019-07-15T09:35:02Z</time>
      </trkpt>
      <trkpt lat="47.78717" lon="-3.52885">
        <ele>8</ele>
        <time>2019-07-15T09:35:03Z</time>
      </trkpt>
      <trkpt lat="47.78721" lon="-3.5289">
        <ele>8</ele>
        <time>2019-07-15T09:35:04Z</time>
      </trkpt>
      <trkpt lat="47.78724" lon="-3.52896">
        <ele>8</ele>
        <time>2019-07-15T09:35:05Z</time>
      </trkpt>
      <trkpt lat="47.78727" lon="-3.52901">
        <ele>8</ele>
        <time>2019-07-15T09:35:06Z</time>
      </trkpt>
      <trkpt lat="47.7873" lon="-3.52907">
        <ele>8</ele>
        <time>2019-07-15T09:35:07Z</time>
      </trkpt>
      <trkpt lat="47.78733" lon="-3.52914">
        <ele>8</ele>
        <time>2019-07-15T09:35:08Z</time>
      </trkpt>
      <trkpt lat="47.78737" lon="-3.52919">
        <ele>8</ele>
        <time>2019-07-15T09:35:09Z</time>
      </trkpt>
      <trkpt lat="47.78739" lon="-3.52925">
        <ele>8</ele>
        <time>2019-07-15T09:35:10Z</time>
      </trkpt>
      <trkpt lat="47.78742" lon="-3.5293">
        <ele>8</ele>
        <time>2019-07-15T09:35:11Z</time>
      </trkpt>
      <trkpt lat="47.78745" lon="-3.52936">
        <ele>8</ele>
        <time>2019-07-15T09:35:12Z</time>
      </trkpt>
      <trkpt lat="47.78748" lon="-3.5294">
        <ele>8</ele>
        <time>2019-07-15T09:35:13Z</time>
      </trkpt>
      <trkpt lat="47.78752" lon="-3.52944">
        <ele>8</ele>
        <time>2019-07-15T09:35:14Z</time>
      </trkpt>
      <trkpt lat="47.78756" lon="-3.52947">
        <ele>8</ele>
        <time>2019-07-15T09:35:15Z</time>
      </trkpt>
      <trkpt lat="47.78759" lon="-3.5295">
        <ele>8</ele>
        <time>2019-07-15T09:35:16Z</time>
      </trkpt>
      <trkpt lat="47.78762" lon="-3.52953">
        <ele>8</ele>
        <time>2019-07-15T09:35:17Z</time>
      </trkpt>
      <trkpt lat="47.78767" lon="-3.52956">
        <ele>7</ele>
        <time>2019-07-15T09:35:18Z</time>
      </trkpt>
      <trkpt lat="47.78772" lon="-3.52959">
        <ele>7</ele>
        <time>2019-07-15T09:35:19Z</time>
      </trkpt>
      <trkpt lat="47.78778" lon="-3.52962">
        <ele>7</ele>
        <time>2019-07-15T09:35:20Z</time>
      </trkpt>
      <trkpt lat="47.78784" lon="-3.52964">
        <ele>7</ele>
        <time>2019-07-15T09:35:21Z</time>
      </trkpt>
      <trkpt lat="47.7879" lon="-3.52965">
        <ele>6</ele>
        <time>2019-07-15T09:35:22Z</time>
      </trkpt>
      <trkpt lat="47.78795" lon="-3.52967">
        <ele>6</ele>
        <time>2019-07-15T09:35:23Z</time>
      </trkpt>
      <trkpt lat="47.78798" lon="-3.52969">
        <ele>6</ele>
        <time>2019-07-15T09:35:24Z</time>
      </trkpt>
      <trkpt lat="47.78801" lon="-3.5297">
        <ele>6</ele>
        <time>2019-07-15T09:35:25Z</time>
      </trkpt>
      <trkpt lat="47.78803" lon="-3.52972">
        <ele>6</ele>
        <time>2019-07-15T09:35:26Z</time>
      </trkpt>
      <trkpt lat="47.78806" lon="-3.52973">
        <ele>6</ele>
        <time>2019-07-15T09:35:27Z</time>
      </trkpt>
      <trkpt lat="47.78808" lon="-3.52974">
        <ele>6</ele>
        <time>2019-07-15T09:35:28Z</time>
      </trkpt>
      <trkpt lat="47.78809" lon="-3.52975">
        <ele>5</ele>
        <time>2019-07-15T09:35:29Z</time>
      </trkpt>
      <trkpt lat="47.78811" lon="-3.52977">
        <ele>5</ele>
        <time>2019-07-15T09:35:30Z</time>
      </trkpt>
      <trkpt lat="47.78813" lon="-3.52977">
        <ele>5</ele>
        <time>2019-07-15T09:35:31Z</time>
      </trkpt>
      <trkpt lat="47.78814" lon="-3.52979">
        <ele>5</ele>
        <time>2019-07-15T09:35:32Z</time>
      </trkpt>
      <trkpt lat="47.78816" lon="-3.5298">
        <ele>5</ele>
        <time>2019-07-15T09:35:33Z</time>
      </trkpt>
      <trkpt lat="47.78817" lon="-3.52982">
        <ele>5</ele>
        <time>2019-07-15T09:35:34Z</time>
      </trkpt>
      <trkpt lat="47.78819" lon="-3.52984">
        <ele>5</ele>
        <time>2019-07-15T09:35:35Z</time>
      </trkpt>
      <trkpt lat="47.7882" lon="-3.52986">
        <ele>5</ele>
        <time>2019-07-15T09:35:36Z</time>
      </trkpt>
      <trkpt lat="47.78821" lon="-3.52988">
        <ele>5</ele>
        <time>2019-07-15T09:35:37Z</time>
      </trkpt>
      <trkpt lat="47.78822" lon="-3.5299">
        <ele>5</ele>
        <time>2019-07-15T09:35:38Z</time>
      </trkpt>
      <trkpt lat="47.78823" lon="-3.52992">
        <ele>5</ele>
        <time>2019-07-15T09:35:39Z</time>
      </trkpt>
      <trkpt lat="47.78824" lon="-3.52994">
        <ele>5</ele>
        <time>2019-07-15T09:35:40Z</time>
      </trkpt>
      <trkpt lat="47.78826" lon="-3.52996">
        <ele>5</ele>
        <time>2019-07-15T09:35:41Z</time>
      </trkpt>
      <trkpt lat="47.78827" lon="-3.52997">
        <ele>5</ele>
        <time>2019-07-15T09:35:42Z</time>
      </trkpt>
      <trkpt lat="47.78828" lon="-3.53">
        <ele>5</ele>
        <time>2019-07-15T09:35:43Z</time>
      </trkpt>
      <trkpt lat="47.7883" lon="-3.53001">
        <ele>5</ele>
        <time>2019-07-15T09:35:44Z</time>
      </trkpt>
      <trkpt lat="47.78832" lon="-3.53003">
        <ele>6</ele>
        <time>2019-07-15T09:35:45Z</time>
      </trkpt>
      <trkpt lat="47.78833" lon="-3.53006">
        <ele>6</ele>
        <time>2019-07-15T09:35:46Z</time>
      </trkpt>
      <trkpt lat="47.78834" lon="-3.53008">
        <ele>6</ele>
        <time>2019-07-15T09:35:47Z</time>
      </trkpt>
      <trkpt lat="47.78835" lon="-3.53011">
        <ele>6</ele>
        <time>2019-07-15T09:35:48Z</time>
      </trkpt>
      <trkpt lat="47.78836" lon="-3.53013">
        <ele>7</ele>
        <time>2019-07-15T09:35:49Z</time>
      </trkpt>
      <trkpt lat="47.78837" lon="-3.53016">
        <ele>7</ele>
        <time>2019-07-15T09:35:50Z</time>
      </trkpt>
      <trkpt lat="47.78838" lon="-3.53019">
        <ele>7</ele>
        <time>2019-07-15T09:35:51Z</time>
      </trkpt>
      <trkpt lat="47.78839" lon="-3.53021">
        <ele>7</ele>
        <time>2019-07-15T09:35:52Z</time>
      </trkpt>
      <trkpt lat="47.7884" lon="-3.53024">
        <ele>8</ele>
        <time>2019-07-15T09:35:53Z</time>
      </trkpt>
      <trkpt lat="47.78841" lon="-3.53026">
        <ele>8</ele>
        <time>2019-07-15T09:35:54Z</time>
      </trkpt>
      <trkpt lat="47.78842" lon="-3.5303">
        <ele>8</ele>
        <time>2019-07-15T09:35:55Z</time>
      </trkpt>
      <trkpt lat="47.78842" lon="-3.53033">
        <ele>9</ele>
        <time>2019-07-15T09:35:56Z</time>
      </trkpt>
      <trkpt lat="47.78843" lon="-3.53036">
        <ele>9</ele>
        <time>2019-07-15T09:35:57Z</time>
      </trkpt>
      <trkpt lat="47.78844" lon="-3.5304">
        <ele>9</ele>
        <time>2019-07-15T09:35:58Z</time>
      </trkpt>
      <trkpt lat="47.78844" lon="-3.53043">
        <ele>9</ele>
        <time>2019-07-15T09:35:59Z</time>
      </trkpt>
      <trkpt lat="47.78845" lon="-3.53046">
        <ele>10</ele>
        <time>2019-07-15T09:36:00Z</time>
      </trkpt>
      <trkpt lat="47.78846" lon="-3.53049">
        <ele>10</ele>
        <time>2019-07-15T09:36:01Z</time>
      </trkpt>
      <trkpt lat="47.78847" lon="-3.53053">
        <ele>10</ele>
        <time>2019-07-15T09:36:02Z</time>
      </trkpt>
      <trkpt lat="47.78848" lon="-3.53056">
        <ele>10</ele>
        <time>2019-07-15T09:36:03Z</time>
      </trkpt>
      <trkpt lat="47.78849" lon="-3.53059">
        <ele>10</ele>
        <time>2019-07-15T09:36:04Z</time>
      </trkpt>
      <trkpt lat="47.7885" lon="-3.53061">
        <ele>11</ele>
        <time>2019-07-15T09:36:05Z</time>
      </trkpt>
      <trkpt lat="47.78852" lon="-3.53064">
        <ele>11</ele>
        <time>2019-07-15T09:36:06Z</time>
      </trkpt>
      <trkpt lat="47.78853" lon="-3.53067">
        <ele>11</ele>
        <time>2019-07-15T09:36:07Z</time>
      </trkpt>
      <trkpt lat="47.78855" lon="-3.53069">
        <ele>11</ele>
        <time>2019-07-15T09:36:08Z</time>
      </trkpt>
      <trkpt lat="47.78856" lon="-3.53071">
        <ele>11</ele>
        <time>2019-07-15T09:36:09Z</time>
      </trkpt>
      <trkpt lat="47.78857" lon="-3.53073">
        <ele>11</ele>
        <time>2019-07-15T09:36:10Z</time>
      </trkpt>
      <trkpt lat="47.78858" lon="-3.53075">
        <ele>11</ele>
        <time>2019-07-15T09:36:11Z</time>
      </trkpt>
      <trkpt lat="47.78859" lon="-3.53076">
        <ele>12</ele>
        <time>2019-07-15T09:36:12Z</time>
      </trkpt>
      <trkpt lat="47.78861" lon="-3.53079">
        <ele>12</ele>
        <time>2019-07-15T09:36:13Z</time>
      </trkpt>
      <trkpt lat="47.78862" lon="-3.53081">
        <ele>12</ele>
        <time>2019-07-15T09:36:14Z</time>
      </trkpt>
      <trkpt lat="47.78863" lon="-3.53083">
        <ele>12</ele>
        <time>2019-07-15T09:36:15Z</time>
      </trkpt>
      <trkpt lat="47.78865" lon="-3.53086">
        <ele>12</ele>
        <time>2019-07-15T09:36:16Z</time>
      </trkpt>
      <trkpt lat="47.78867" lon="-3.53088">
        <ele>12</ele>
        <time>2019-07-15T09:36:17Z</time>
      </trkpt>
      <trkpt lat="47.78869" lon="-3.5309">
        <ele>13</ele>
        <time>2019-07-15T09:36:18Z</time>
      </trkpt>
      <trkpt lat="47.78871" lon="-3.53093">
        <ele>13</ele>
        <time>2019-07-15T09:36:19Z</time>
      </trkpt>
      <trkpt lat="47.78872" lon="-3.53095">
        <ele>13</ele>
        <time>2019-07-15T09:36:20Z</time>
      </trkpt>
      <trkpt lat="47.78875" lon="-3.53097">
        <ele>13</ele>
        <time>2019-07-15T09:36:21Z</time>
      </trkpt>
      <trkpt lat="47.78877" lon="-3.53099">
        <ele>14</ele>
        <time>2019-07-15T09:36:22Z</time>
      </trkpt>
      <trkpt lat="47.7888" lon="-3.531">
        <ele>14</ele>
        <time>2019-07-15T09:36:23Z</time>
      </trkpt>
      <trkpt lat="47.78883" lon="-3.53102">
        <ele>14</ele>
        <time>2019-07-15T09:36:24Z</time>
      </trkpt>
      <trkpt lat="47.78888" lon="-3.53104">
        <ele>14</ele>
        <time>2019-07-15T09:36:25Z</time>
      </trkpt>
      <trkpt lat="47.78894" lon="-3.53106">
        <ele>14</ele>
        <time>2019-07-15T09:36:26Z</time>
      </trkpt>
      <trkpt lat="47.78901" lon="-3.53108">
        <ele>15</ele>
        <time>2019-07-15T09:36:27Z</time>
      </trkpt>
      <trkpt lat="47.78908" lon="-3.53111">
        <ele>15</ele>
        <time>2019-07-15T09:36:28Z</time>
      </trkpt>
      <trkpt lat="47.78913" lon="-3.53113">
        <ele>15</ele>
        <time>2019-07-15T09:36:29Z</time>
      </trkpt>
      <trkpt lat="47.78918" lon="-3.53116">
        <ele>15</ele>
        <time>2019-07-15T09:36:30Z</time>
      </trkpt>
      <trkpt lat="47.78923" lon="-3.53118">
        <ele>15</ele>
        <time>2019-07-15T09:36:31Z</time>
      </trkpt>
      <trkpt lat="47.78928" lon="-3.5312">
        <ele>15</ele>
        <time>2019-07-15T09:36:32Z</time>
      </trkpt>
      <trkpt lat="47.78934" lon="-3.53121">
        <ele>15</ele>
        <time>2019-07-15T09:36:33Z</time>
      </trkpt>
      <trkpt lat="47.78939" lon="-3.53122">
        <ele>14</ele>
        <time>2019-07-15T09:36:34Z</time>
      </trkpt>
      <trkpt lat="47.78943" lon="-3.53124">
        <ele>14</ele>
        <time>2019-07-15T09:36:35Z</time>
      </trkpt>
      <trkpt lat="47.78948" lon="-3.53126">
        <ele>14</ele>
        <time>2019-07-15T09:36:36Z</time>
      </trkpt>
      <trkpt lat="47.78953" lon="-3.53131">
        <ele>14</ele>
        <time>2019-07-15T09:36:37Z</time>
      </trkpt>
      <trkpt lat="47.78957" lon="-3.53135">
        <ele>14</ele>
        <time>2019-07-15T09:36:38Z</time>
      </trkpt>
      <trkpt lat="47.7896" lon="-3.53139">
        <ele>14</ele>
        <time>2019-07-15T09:36:39Z</time>
      </trkpt>
      <trkpt lat="47.78963" lon="-3.53142">
        <ele>14</ele>
        <time>2019-07-15T09:36:40Z</time>
      </trkpt>
      <trkpt lat="47.78966" lon="-3.53146">
        <ele>14</ele>
        <time>2019-07-15T09:36:41Z</time>
      </trkpt>
      <trkpt lat="47.78968" lon="-3.53149">
        <ele>13</ele>
        <time>2019-07-15T09:36:42Z</time>
      </trkpt>
      <trkpt lat="47.78972" lon="-3.53151">
        <ele>13</ele>
        <time>2019-07-15T09:36:43Z</time>
      </trkpt>
      <trkpt lat="47.78977" lon="-3.53155">
        <ele>13</ele>
        <time>2019-07-15T09:36:44Z</time>
      </trkpt>
      <trkpt lat="47.78982" lon="-3.53158">
        <ele>12</ele>
        <time>2019-07-15T09:36:45Z</time>
      </trkpt>
      <trkpt lat="47.78988" lon="-3.53161">
        <ele>12</ele>
        <time>2019-07-15T09:36:46Z</time>
      </trkpt>
      <trkpt lat="47.78995" lon="-3.53164">
        <ele>11</ele>
        <time>2019-07-15T09:36:47Z</time>
      </trkpt>
      <trkpt lat="47.79001" lon="-3.53167">
        <ele>11</ele>
        <time>2019-07-15T09:36:48Z</time>
      </trkpt>
      <trkpt lat="47.79006" lon="-3.5317">
        <ele>10</ele>
        <time>2019-07-15T09:36:49Z</time>
      </trkpt>
      <trkpt lat="47.79012" lon="-3.53174">
        <ele>10</ele>
        <time>2019-07-15T09:36:50Z</time>
      </trkpt>
      <trkpt lat="47.79017" lon="-3.53178">
        <ele>10</ele>
        <time>2019-07-15T09:36:51Z</time>
      </trkpt>
      <trkpt lat="47.79022" lon="-3.53182">
        <ele>9</ele>
        <time>2019-07-15T09:36:52Z</time>
      </trkpt>
      <trkpt lat="47.79027" lon="-3.53186">
        <ele>9</ele>
        <time>2019-07-15T09:36:53Z</time>
      </trkpt>
      <trkpt lat="47.79031" lon="-3.5319">
        <ele>8</ele>
        <time>2019-07-15T09:36:54Z</time>
      </trkpt>
      <trkpt lat="47.79036" lon="-3.53192">
        <ele>8</ele>
        <time>2019-07-15T09:36:55Z</time>
      </trkpt>
      <trkpt lat="47.79041" lon="-3.53193">
        <ele>7</ele>
        <time>2019-07-15T09:36:56Z</time>
      </trkpt>
      <trkpt lat="47.79047" lon="-3.53191">
        <ele>7</ele>
        <time>2019-07-15T09:36:57Z</time>
      </trkpt>
      <trkpt lat="47.79052" lon="-3.53189">
        <ele>7</ele>
        <time>2019-07-15T09:36:58Z</time>
      </trkpt>
      <trkpt lat="47.79057" lon="-3.53187">
        <ele>6</ele>
        <time>2019-07-15T09:36:59Z</time>
      </trkpt>
      <trkpt lat="47.79062" lon="-3.53184">
        <ele>6</ele>
        <time>2019-07-15T09:37:00Z</time>
      </trkpt>
      <trkpt lat="47.79068" lon="-3.53182">
        <ele>5</ele>
        <time>2019-07-15T09:37:01Z</time>
      </trkpt>
      <trkpt lat="47.79072" lon="-3.5318">
        <ele>5</ele>
        <time>2019-07-15T09:37:02Z</time>
      </trkpt>
      <trkpt lat="47.79077" lon="-3.53178">
        <ele>5</ele>
        <time>2019-07-15T09:37:03Z</time>
      </trkpt>
      <trkpt lat="47.79082" lon="-3.53176">
        <ele>5</ele>
        <time>2019-07-15T09:37:04Z</time>
      </trkpt>
      <trkpt lat="47.79086" lon="-3.53174">
        <ele>4</ele>
        <time>2019-07-15T09:37:05Z</time>
      </trkpt>
      <trkpt lat="47.7909" lon="-3.53172">
        <ele>4</ele>
        <time>2019-07-15T09:37:06Z</time>
      </trkpt>
      <trkpt lat="47.79094" lon="-3.5317">
        <ele>4</ele>
        <time>2019-07-15T09:37:07Z</time>
      </trkpt>
      <trkpt lat="47.79098" lon="-3.53168">
        <ele>4</ele>
        <time>2019-07-15T09:37:08Z</time>
      </trkpt>
      <trkpt lat="47.79102" lon="-3.53166">
        <ele>4</ele>
        <time>2019-07-15T09:37:09Z</time>
      </trkpt>
      <trkpt lat="47.79105" lon="-3.53164">
        <ele>3</ele>
        <time>2019-07-15T09:37:10Z</time>
      </trkpt>
      <trkpt lat="47.79109" lon="-3.53162">
        <ele>3</ele>
        <time>2019-07-15T09:37:11Z</time>
      </trkpt>
      <trkpt lat="47.79113" lon="-3.5316">
        <ele>3</ele>
        <time>2019-07-15T09:37:12Z</time>
      </trkpt>
      <trkpt lat="47.79118" lon="-3.53158">
        <ele>3</ele>
        <time>2019-07-15T09:37:13Z</time>
      </trkpt>
      <trkpt lat="47.79122" lon="-3.53156">
        <ele>3</ele>
        <time>2019-07-15T09:37:14Z</time>
      </trkpt>
      <trkpt lat="47.79126" lon="-3.53154">
        <ele>3</ele>
        <time>2019-07-15T09:37:15Z</time>
      </trkpt>
      <trkpt lat="47.79129" lon="-3.53152">
        <ele>3</ele>
        <time>2019-07-15T09:37:16Z</time>
      </trkpt>
      <trkpt lat="47.79133" lon="-3.5315">
        <ele>3</ele>
        <time>2019-07-15T09:37:17Z</time>
      </trkpt>
      <trkpt lat="47.79136" lon="-3.53148">
        <ele>3</ele>
        <time>2019-07-15T09:37:18Z</time>
      </trkpt>
      <trkpt lat="47.79138" lon="-3.53147">
        <ele>3</ele>
        <time>2019-07-15T09:37:19Z</time>
      </trkpt>
      <trkpt lat="47.7914" lon="-3.53146">
        <ele>3</ele>
        <time>2019-07-15T09:37:20Z</time>
      </trkpt>
      <trkpt lat="47.79141" lon="-3.53145">
        <ele>3</ele>
        <time>2019-07-15T09:37:21Z</time>
      </trkpt>
      <trkpt lat="47.79142" lon="-3.53142">
        <ele>3</ele>
        <time>2019-07-15T09:37:22Z</time>
      </trkpt>
      <trkpt lat="47.79143" lon="-3.5314">
        <ele>3</ele>
        <time>2019-07-15T09:37:23Z</time>
      </trkpt>
      <trkpt lat="47.79144" lon="-3.53138">
        <ele>3</ele>
        <time>2019-07-15T09:37:24Z</time>
      </trkpt>
      <trkpt lat="47.79144" lon="-3.53137">
        <ele>3</ele>
        <time>2019-07-15T09:37:25Z</time>
      </trkpt>
      <trkpt lat="47.79144" lon="-3.53137">
        <ele>3</ele>
        <time>2019-07-15T09:37:26Z</time>
      </trkpt>
      <trkpt lat="47.79146" lon="-3.53128">
        <ele>2</ele>
        <time>2019-07-15T09:37:27Z</time>
      </trkpt>
      <trkpt lat="47.79146" lon="-3.53126">
        <ele>2</ele>
        <time>2019-07-15T09:37:28Z</time>
      </trkpt>
      <trkpt lat="47.79146" lon="-3.53124">
        <ele>2</ele>
        <time>2019-07-15T09:37:29Z</time>
      </trkpt>
      <trkpt lat="47.79145" lon="-3.53121">
        <ele>2</ele>
        <time>2019-07-15T09:37:30Z</time>
      </trkpt>
      <trkpt lat="47.79144" lon="-3.53118">
        <ele>2</ele>
        <time>2019-07-15T09:37:31Z</time>
      </trkpt>
      <trkpt lat="47.79144" lon="-3.53114">
        <ele>2</ele>
        <time>2019-07-15T09:37:32Z</time>
      </trkpt>
      <trkpt lat="47.79143" lon="-3.53111">
        <ele>2</ele>
        <time>2019-07-15T09:37:33Z</time>
      </trkpt>
      <trkpt lat="47.79142" lon="-3.53107">
        <ele>2</ele>
        <time>2019-07-15T09:37:34Z</time>
      </trkpt>
      <trkpt lat="47.79141" lon="-3.53103">
        <ele>2</ele>
        <time>2019-07-15T09:37:35Z</time>
      </trkpt>
      <trkpt lat="47.79141" lon="-3.53098">
        <ele>2</ele>
        <time>2019-07-15T09:37:36Z</time>
      </trkpt>
      <trkpt lat="47.7914" lon="-3.53094">
        <ele>2</ele>
        <time>2019-07-15T09:37:37Z</time>
      </trkpt>
      <trkpt lat="47.79138" lon="-3.53089">
        <ele>2</ele>
        <time>2019-07-15T09:37:38Z</time>
      </trkpt>
      <trkpt lat="47.79137" lon="-3.53083">
        <ele>2</ele>
        <time>2019-07-15T09:37:39Z</time>
      </trkpt>
      <trkpt lat="47.79137" lon="-3.53079">
        <ele>2</ele>
        <time>2019-07-15T09:37:40Z</time>
      </trkpt>
      <trkpt lat="47.79136" lon="-3.53074">
        <ele>2</ele>
        <time>2019-07-15T09:37:41Z</time>
      </trkpt>
      <trkpt lat="47.79137" lon="-3.53069">
        <ele>2</ele>
        <time>2019-07-15T09:37:42Z</time>
      </trkpt>
      <trkpt lat="47.79137" lon="-3.53063">
        <ele>2</ele>
        <time>2019-07-15T09:37:43Z</time>
      </trkpt>
      <trkpt lat="47.79138" lon="-3.53058">
        <ele>3</ele>
        <time>2019-07-15T09:37:44Z</time>
      </trkpt>
      <trkpt lat="47.79139" lon="-3.53055">
        <ele>3</ele>
        <time>2019-07-15T09:37:45Z</time>
      </trkpt>
      <trkpt lat="47.79141" lon="-3.53051">
        <ele>3</ele>
        <time>2019-07-15T09:37:46Z</time>
      </trkpt>
      <trkpt lat="47.79142" lon="-3.53048">
        <ele>3</ele>
        <time>2019-07-15T09:37:47Z</time>
      </trkpt>
      <trkpt lat="47.79145" lon="-3.53045">
        <ele>3</ele>
        <time>2019-07-15T09:37:48Z</time>
      </trkpt>
      <trkpt lat="47.79148" lon="-3.53042">
        <ele>3</ele>
        <time>2019-07-15T09:37:49Z</time>
      </trkpt>
      <trkpt lat="47.7915" lon="-3.5304">
        <ele>3</ele>
        <time>2019-07-15T09:37:50Z</time>
      </trkpt>
      <trkpt lat="47.79153" lon="-3.53039">
        <ele>4</ele>
        <time>2019-07-15T09:37:51Z</time>
      </trkpt>
      <trkpt lat="47.79156" lon="-3.53037">
        <ele>4</ele>
        <time>2019-07-15T09:37:52Z</time>
      </trkpt>
      <trkpt lat="47.79159" lon="-3.53036">
        <ele>4</ele>
        <time>2019-07-15T09:37:53Z</time>
      </trkpt>
      <trkpt lat="47.79163" lon="-3.53035">
        <ele>4</ele>
        <time>2019-07-15T09:37:54Z</time>
      </trkpt>
      <trkpt lat="47.79167" lon="-3.53033">
        <ele>4</ele>
        <time>2019-07-15T09:37:55Z</time>
      </trkpt>
      <trkpt lat="47.7917" lon="-3.53032">
        <ele>4</ele>
        <time>2019-07-15T09:37:56Z</time>
      </trkpt>
      <trkpt lat="47.79174" lon="-3.5303">
        <ele>4</ele>
        <time>2019-07-15T09:37:57Z</time>
      </trkpt>
      <trkpt lat="47.79177" lon="-3.53029">
        <ele>4</ele>
        <time>2019-07-15T09:37:58Z</time>
      </trkpt>
      <trkpt lat="47.79179" lon="-3.53027">
        <ele>4</ele>
        <time>2019-07-15T09:37:59Z</time>
      </trkpt>
      <trkpt lat="47.79183" lon="-3.53023">
        <ele>4</ele>
        <time>2019-07-15T09:38:00Z</time>
      </trkpt>
      <trkpt lat="47.79186" lon="-3.53017">
        <ele>4</ele>
        <time>2019-07-15T09:38:01Z</time>
      </trkpt>
      <trkpt lat="47.79188" lon="-3.5301">
        <ele>4</ele>
        <time>2019-07-15T09:38:02Z</time>
      </trkpt>
      <trkpt lat="47.7919" lon="-3.53003">
        <ele>5</ele>
        <time>2019-07-15T09:38:03Z</time>
      </trkpt>
      <trkpt lat="47.79192" lon="-3.52997">
        <ele>5</ele>
        <time>2019-07-15T09:38:04Z</time>
      </trkpt>
      <trkpt lat="47.79193" lon="-3.5299">
        <ele>5</ele>
        <time>2019-07-15T09:38:05Z</time>
      </trkpt>
      <trkpt lat="47.79194" lon="-3.52985">
        <ele>4</ele>
        <time>2019-07-15T09:38:06Z</time>
      </trkpt>
      <trkpt lat="47.79194" lon="-3.52979">
        <ele>4</ele>
        <time>2019-07-15T09:38:07Z</time>
      </trkpt>
      <trkpt lat="47.79195" lon="-3.52974">
        <ele>4</ele>
        <time>2019-07-15T09:38:08Z</time>
      </trkpt>
      <trkpt lat="47.79196" lon="-3.52968">
        <ele>4</ele>
        <time>2019-07-15T09:38:09Z</time>
      </trkpt>
      <trkpt lat="47.79197" lon="-3.52961">
        <ele>4</ele>
        <time>2019-07-15T09:38:10Z</time>
      </trkpt>
      <trkpt lat="47.79199" lon="-3.52954">
        <ele>4</ele>
        <time>2019-07-15T09:38:11Z</time>
      </trkpt>
      <trkpt lat="47.792" lon="-3.52948">
        <ele>4</ele>
        <time>2019-07-15T09:38:12Z</time>
      </trkpt>
      <trkpt lat="47.79203" lon="-3.52942">
        <ele>4</ele>
        <time>2019-07-15T09:38:13Z</time>
      </trkpt>
      <trkpt lat="47.79205" lon="-3.52938">
        <ele>4</ele>
        <time>2019-07-15T09:38:14Z</time>
      </trkpt>
      <trkpt lat="47.79206" lon="-3.52934">
        <ele>4</ele>
        <time>2019-07-15T09:38:15Z</time>
      </trkpt>
      <trkpt lat="47.79207" lon="-3.5293">
        <ele>4</ele>
        <time>2019-07-15T09:38:16Z</time>
      </trkpt>
      <trkpt lat="47.7921" lon="-3.52926">
        <ele>4</ele>
        <time>2019-07-15T09:38:17Z</time>
      </trkpt>
      <trkpt lat="47.79213" lon="-3.52922">
        <ele>4</ele>
        <time>2019-07-15T09:38:18Z</time>
      </trkpt>
      <trkpt lat="47.79215" lon="-3.52919">
        <ele>4</ele>
        <time>2019-07-15T09:38:19Z</time>
      </trkpt>
      <trkpt lat="47.79217" lon="-3.52916">
        <ele>4</ele>
        <time>2019-07-15T09:38:20Z</time>
      </trkpt>
      <trkpt lat="47.7922" lon="-3.52912">
        <ele>4</ele>
        <time>2019-07-15T09:38:21Z</time>
      </trkpt>
      <trkpt lat="47.79222" lon="-3.52909">
        <ele>4</ele>
        <time>2019-07-15T09:38:22Z</time>
      </trkpt>
      <trkpt lat="47.79224" lon="-3.52906">
        <ele>4</ele>
        <time>2019-07-15T09:38:23Z</time>
      </trkpt>
      <trkpt lat="47.79226" lon="-3.52904">
        <ele>4</ele>
        <time>2019-07-15T09:38:24Z</time>
      </trkpt>
      <trkpt lat="47.79228" lon="-3.52901">
        <ele>4</ele>
        <time>2019-07-15T09:38:25Z</time>
      </trkpt>
      <trkpt lat="47.7923" lon="-3.52898">
        <ele>4</ele>
        <time>2019-07-15T09:38:26Z</time>
      </trkpt>
      <trkpt lat="47.79232" lon="-3.52896">
        <ele>4</ele>
        <time>2019-07-15T09:38:27Z</time>
      </trkpt>
      <trkpt lat="47.79235" lon="-3.52893">
        <ele>4</ele>
        <time>2019-07-15T09:38:28Z</time>
      </trkpt>
      <trkpt lat="47.79239" lon="-3.52889">
        <ele>4</ele>
        <time>2019-07-15T09:38:29Z</time>
      </trkpt>
      <trkpt lat="47.79241" lon="-3.52887">
        <ele>4</ele>
        <time>2019-07-15T09:38:30Z</time>
      </trkpt>
      <trkpt lat="47.79245" lon="-3.52885">
        <ele>3</ele>
        <time>2019-07-15T09:38:31Z</time>
      </trkpt>
      <trkpt lat="47.79247" lon="-3.52883">
        <ele>3</ele>
        <time>2019-07-15T09:38:32Z</time>
      </trkpt>
      <trkpt lat="47.79251" lon="-3.52882">
        <ele>3</ele>
        <time>2019-07-15T09:38:33Z</time>
      </trkpt>
      <trkpt lat="47.79255" lon="-3.52881">
        <ele>3</ele>
        <time>2019-07-15T09:38:34Z</time>
      </trkpt>
      <trkpt lat="47.7926" lon="-3.52881">
        <ele>3</ele>
        <time>2019-07-15T09:38:35Z</time>
      </trkpt>
      <trkpt lat="47.79265" lon="-3.5288">
        <ele>3</ele>
        <time>2019-07-15T09:38:36Z</time>
      </trkpt>
      <trkpt lat="47.79269" lon="-3.52879">
        <ele>3</ele>
        <time>2019-07-15T09:38:37Z</time>
      </trkpt>
      <trkpt lat="47.79274" lon="-3.52878">
        <ele>3</ele>
        <time>2019-07-15T09:38:38Z</time>
      </trkpt>
      <trkpt lat="47.79278" lon="-3.52876">
        <ele>3</ele>
        <time>2019-07-15T09:38:39Z</time>
      </trkpt>
      <trkpt lat="47.79282" lon="-3.52874">
        <ele>3</ele>
        <time>2019-07-15T09:38:40Z</time>
      </trkpt>
      <trkpt lat="47.79285" lon="-3.52871">
        <ele>3</ele>
        <time>2019-07-15T09:38:41Z</time>
      </trkpt>
      <trkpt lat="47.79289" lon="-3.52868">
        <ele>3</ele>
        <time>2019-07-15T09:38:42Z</time>
      </trkpt>
      <trkpt lat="47.79293" lon="-3.52866">
        <ele>3</ele>
        <time>2019-07-15T09:38:43Z</time>
      </trkpt>
      <trkpt lat="47.79297" lon="-3.52863">
        <ele>3</ele>
        <time>2019-07-15T09:38:44Z</time>
      </trkpt>
      <trkpt lat="47.79299" lon="-3.52859">
        <ele>3</ele>
        <time>2019-07-15T09:38:45Z</time>
      </trkpt>
      <trkpt lat="47.79302" lon="-3.52856">
        <ele>4</ele>
        <time>2019-07-15T09:38:46Z</time>
      </trkpt>
      <trkpt lat="47.79306" lon="-3.52853">
        <ele>4</ele>
        <time>2019-07-15T09:38:47Z</time>
      </trkpt>
      <trkpt lat="47.79311" lon="-3.5285">
        <ele>4</ele>
        <time>2019-07-15T09:38:48Z</time>
      </trkpt>
      <trkpt lat="47.79315" lon="-3.52849">
        <ele>4</ele>
        <time>2019-07-15T09:38:49Z</time>
      </trkpt>
      <trkpt lat="47.79318" lon="-3.52846">
        <ele>4</ele>
        <time>2019-07-15T09:38:50Z</time>
      </trkpt>
      <trkpt lat="47.79322" lon="-3.52842">
        <ele>4</ele>
        <time>2019-07-15T09:38:51Z</time>
      </trkpt>
      <trkpt lat="47.79326" lon="-3.52839">
        <ele>4</ele>
        <time>2019-07-15T09:38:52Z</time>
      </trkpt>
      <trkpt lat="47.79329" lon="-3.52838">
        <ele>4</ele>
        <time>2019-07-15T09:38:53Z</time>
      </trkpt>
      <trkpt lat="47.79333" lon="-3.52838">
        <ele>4</ele>
        <time>2019-07-15T09:38:54Z</time>
      </trkpt>
      <trkpt lat="47.79337" lon="-3.52837">
        <ele>4</ele>
        <time>2019-07-15T09:38:55Z</time>
      </trkpt>
      <trkpt lat="47.79341" lon="-3.52836">
        <ele>3</ele>
        <time>2019-07-15T09:38:56Z</time>
      </trkpt>
      <trkpt lat="47.79344" lon="-3.52836">
        <ele>3</ele>
        <time>2019-07-15T09:38:57Z</time>
      </trkpt>
      <trkpt lat="47.79348" lon="-3.52834">
        <ele>3</ele>
        <time>2019-07-15T09:38:58Z</time>
      </trkpt>
      <trkpt lat="47.7935" lon="-3.52832">
        <ele>3</ele>
        <time>2019-07-15T09:38:59Z</time>
      </trkpt>
      <trkpt lat="47.79352" lon="-3.52829">
        <ele>3</ele>
        <time>2019-07-15T09:39:00Z</time>
      </trkpt>
      <trkpt lat="47.79355" lon="-3.52823">
        <ele>3</ele>
        <time>2019-07-15T09:39:01Z</time>
      </trkpt>
      <trkpt lat="47.79357" lon="-3.52816">
        <ele>3</ele>
        <time>2019-07-15T09:39:02Z</time>
      </trkpt>
      <trkpt lat="47.79361" lon="-3.5281">
        <ele>3</ele>
        <time>2019-07-15T09:39:03Z</time>
      </trkpt>
      <trkpt lat="47.79364" lon="-3.52805">
        <ele>3</ele>
        <time>2019-07-15T09:39:04Z</time>
      </trkpt>
      <trkpt lat="47.79367" lon="-3.52801">
        <ele>3</ele>
        <time>2019-07-15T09:39:05Z</time>
      </trkpt>
      <trkpt lat="47.7937" lon="-3.52798">
        <ele>3</ele>
        <time>2019-07-15T09:39:06Z</time>
      </trkpt>
      <trkpt lat="47.79373" lon="-3.52797">
        <ele>3</ele>
        <time>2019-07-15T09:39:07Z</time>
      </trkpt>
      <trkpt lat="47.79374" lon="-3.52795">
        <ele>3</ele>
        <time>2019-07-15T09:39:08Z</time>
      </trkpt>
      <trkpt lat="47.79375" lon="-3.52794">
        <ele>3</ele>
        <time>2019-07-15T09:39:09Z</time>
      </trkpt>
      <trkpt lat="47.79377" lon="-3.52793">
        <ele>4</ele>
        <time>2019-07-15T09:39:10Z</time>
      </trkpt>
      <trkpt lat="47.7938" lon="-3.52792">
        <ele>4</ele>
        <time>2019-07-15T09:39:11Z</time>
      </trkpt>
      <trkpt lat="47.79382" lon="-3.5279">
        <ele>4</ele>
        <time>2019-07-15T09:39:12Z</time>
      </trkpt>
      <trkpt lat="47.79385" lon="-3.52788">
        <ele>4</ele>
        <time>2019-07-15T09:39:13Z</time>
      </trkpt>
      <trkpt lat="47.79389" lon="-3.52786">
        <ele>4</ele>
        <time>2019-07-15T09:39:14Z</time>
      </trkpt>
      <trkpt lat="47.79392" lon="-3.52784">
        <ele>5</ele>
        <time>2019-07-15T09:39:15Z</time>
      </trkpt>
      <trkpt lat="47.79394" lon="-3.52783">
        <ele>5</ele>
        <time>2019-07-15T09:39:16Z</time>
      </trkpt>
      <trkpt lat="47.79397" lon="-3.52782">
        <ele>5</ele>
        <time>2019-07-15T09:39:17Z</time>
      </trkpt>
      <trkpt lat="47.794" lon="-3.5278">
        <ele>5</ele>
        <time>2019-07-15T09:39:18Z</time>
      </trkpt>
      <trkpt lat="47.79402" lon="-3.52779">
        <ele>5</ele>
        <time>2019-07-15T09:39:19Z</time>
      </trkpt>
      <trkpt lat="47.79404" lon="-3.52778">
        <ele>5</ele>
        <time>2019-07-15T09:39:20Z</time>
      </trkpt>
      <trkpt lat="47.79407" lon="-3.52777">
        <ele>5</ele>
        <time>2019-07-15T09:39:21Z</time>
      </trkpt>
      <trkpt lat="47.79408" lon="-3.52778">
        <ele>5</ele>
        <time>2019-07-15T09:39:22Z</time>
      </trkpt>
      <trkpt lat="47.7941" lon="-3.52777">
        <ele>5</ele>
        <time>2019-07-15T09:39:23Z</time>
      </trkpt>
      <trkpt lat="47.79412" lon="-3.52777">
        <ele>6</ele>
        <time>2019-07-15T09:39:24Z</time>
      </trkpt>
      <trkpt lat="47.79414" lon="-3.52778">
        <ele>6</ele>
        <time>2019-07-15T09:39:25Z</time>
      </trkpt>
      <trkpt lat="47.79416" lon="-3.5278">
        <ele>6</ele>
        <time>2019-07-15T09:39:26Z</time>
      </trkpt>
      <trkpt lat="47.79417" lon="-3.52782">
        <ele>6</ele>
        <time>2019-07-15T09:39:27Z</time>
      </trkpt>
      <trkpt lat="47.79419" lon="-3.52785">
        <ele>6</ele>
        <time>2019-07-15T09:39:28Z</time>
      </trkpt>
      <trkpt lat="47.7942" lon="-3.52788">
        <ele>6</ele>
        <time>2019-07-15T09:39:29Z</time>
      </trkpt>
      <trkpt lat="47.79422" lon="-3.52791">
        <ele>6</ele>
        <time>2019-07-15T09:39:30Z</time>
      </trkpt>
      <trkpt lat="47.79423" lon="-3.52794">
        <ele>6</ele>
        <time>2019-07-15T09:39:31Z</time>
      </trkpt>
      <trkpt lat="47.79424" lon="-3.52797">
        <ele>6</ele>
        <time>2019-07-15T09:39:32Z</time>
      </trkpt>
      <trkpt lat="47.79426" lon="-3.528">
        <ele>7</ele>
        <time>2019-07-15T09:39:33Z</time>
      </trkpt>
      <trkpt lat="47.79428" lon="-3.52803">
        <ele>7</ele>
        <time>2019-07-15T09:39:34Z</time>
      </trkpt>
      <trkpt lat="47.7943" lon="-3.52806">
        <ele>7</ele>
        <time>2019-07-15T09:39:35Z</time>
      </trkpt>
      <trkpt lat="47.79431" lon="-3.52808">
        <ele>7</ele>
        <time>2019-07-15T09:39:36Z</time>
      </trkpt>
      <trkpt lat="47.79433" lon="-3.5281">
        <ele>7</ele>
        <time>2019-07-15T09:39:37Z</time>
      </trkpt>
      <trkpt lat="47.79435" lon="-3.52813">
        <ele>7</ele>
        <time>2019-07-15T09:39:38Z</time>
      </trkpt>
      <trkpt lat="47.79437" lon="-3.52814">
        <ele>7</ele>
        <time>2019-07-15T09:39:39Z</time>
      </trkpt>
      <trkpt lat="47.79439" lon="-3.52815">
        <ele>7</ele>
        <time>2019-07-15T09:39:40Z</time>
      </trkpt>
      <trkpt lat="47.7944" lon="-3.52816">
        <ele>8</ele>
        <time>2019-07-15T09:39:41Z</time>
      </trkpt>
      <trkpt lat="47.79443" lon="-3.52818">
        <ele>8</ele>
        <time>2019-07-15T09:39:42Z</time>
      </trkpt>
      <trkpt lat="47.79445" lon="-3.52819">
        <ele>8</ele>
        <time>2019-07-15T09:39:43Z</time>
      </trkpt>
      <trkpt lat="47.79446" lon="-3.52819">
        <ele>8</ele>
        <time>2019-07-15T09:39:44Z</time>
      </trkpt>
      <trkpt lat="47.79448" lon="-3.5282">
        <ele>9</ele>
        <time>2019-07-15T09:39:45Z</time>
      </trkpt>
      <trkpt lat="47.79449" lon="-3.52821">
        <ele>9</ele>
        <time>2019-07-15T09:39:46Z</time>
      </trkpt>
      <trkpt lat="47.79451" lon="-3.52822">
        <ele>9</ele>
        <time>2019-07-15T09:39:47Z</time>
      </trkpt>
      <trkpt lat="47.79452" lon="-3.52823">
        <ele>9</ele>
        <time>2019-07-15T09:39:48Z</time>
      </trkpt>
      <trkpt lat="47.79454" lon="-3.52823">
        <ele>9</ele>
        <time>2019-07-15T09:39:49Z</time>
      </trkpt>
      <trkpt lat="47.79457" lon="-3.52823">
        <ele>9</ele>
        <time>2019-07-15T09:39:50Z</time>
      </trkpt>
      <trkpt lat="47.7946" lon="-3.52824">
        <ele>9</ele>
        <time>2019-07-15T09:39:51Z</time>
      </trkpt>
      <trkpt lat="47.79463" lon="-3.52825">
        <ele>9</ele>
        <time>2019-07-15T09:39:52Z</time>
      </trkpt>
      <trkpt lat="47.79465" lon="-3.52827">
        <ele>10</ele>
        <time>2019-07-15T09:39:53Z</time>
      </trkpt>
      <trkpt lat="47.79467" lon="-3.5283">
        <ele>10</ele>
        <time>2019-07-15T09:39:54Z</time>
      </trkpt>
      <trkpt lat="47.7947" lon="-3.52833">
        <ele>10</ele>
        <time>2019-07-15T09:39:55Z</time>
      </trkpt>
      <trkpt lat="47.79473" lon="-3.52837">
        <ele>10</ele>
        <time>2019-07-15T09:39:56Z</time>
      </trkpt>
      <trkpt lat="47.79477" lon="-3.5284">
        <ele>11</ele>
        <time>2019-07-15T09:39:57Z</time>
      </trkpt>
      <trkpt lat="47.7948" lon="-3.52842">
        <ele>11</ele>
        <time>2019-07-15T09:39:58Z</time>
      </trkpt>
      <trkpt lat="47.79484" lon="-3.52843">
        <ele>11</ele>
        <time>2019-07-15T09:39:59Z</time>
      </trkpt>
      <trkpt lat="47.79488" lon="-3.52843">
        <ele>11</ele>
        <time>2019-07-15T09:40:00Z</time>
      </trkpt>
      <trkpt lat="47.7949" lon="-3.52845">
        <ele>11</ele>
        <time>2019-07-15T09:40:01Z</time>
      </trkpt>
      <trkpt lat="47.79492" lon="-3.52846">
        <ele>11</ele>
        <time>2019-07-15T09:40:02Z</time>
      </trkpt>
      <trkpt lat="47.79495" lon="-3.52847">
        <ele>11</ele>
        <time>2019-07-15T09:40:03Z</time>
      </trkpt>
      <trkpt lat="47.79498" lon="-3.52849">
        <ele>11</ele>
        <time>2019-07-15T09:40:04Z</time>
      </trkpt>
      <trkpt lat="47.795" lon="-3.52851">
        <ele>12</ele>
        <time>2019-07-15T09:40:05Z</time>
      </trkpt>
      <trkpt lat="47.79502" lon="-3.52854">
        <ele>12</ele>
        <time>2019-07-15T09:40:06Z</time>
      </trkpt>
      <trkpt lat="47.79504" lon="-3.52857">
        <ele>12</ele>
        <time>2019-07-15T09:40:07Z</time>
      </trkpt>
      <trkpt lat="47.79506" lon="-3.52861">
        <ele>12</ele>
        <time>2019-07-15T09:40:08Z</time>
      </trkpt>
      <trkpt lat="47.79508" lon="-3.52864">
        <ele>12</ele>
        <time>2019-07-15T09:40:09Z</time>
      </trkpt>
      <trkpt lat="47.7951" lon="-3.52868">
        <ele>12</ele>
        <time>2019-07-15T09:40:10Z</time>
      </trkpt>
      <trkpt lat="47.79512" lon="-3.5287">
        <ele>12</ele>
        <time>2019-07-15T09:40:11Z</time>
      </trkpt>
      <trkpt lat="47.79515" lon="-3.52872">
        <ele>12</ele>
        <time>2019-07-15T09:40:12Z</time>
      </trkpt>
      <trkpt lat="47.79518" lon="-3.52873">
        <ele>12</ele>
        <time>2019-07-15T09:40:13Z</time>
      </trkpt>
      <trkpt lat="47.79522" lon="-3.52873">
        <ele>12</ele>
        <time>2019-07-15T09:40:14Z</time>
      </trkpt>
      <trkpt lat="47.79526" lon="-3.52873">
        <ele>11</ele>
        <time>2019-07-15T09:40:15Z</time>
      </trkpt>
      <trkpt lat="47.79532" lon="-3.52873">
        <ele>11</ele>
        <time>2019-07-15T09:40:16Z</time>
      </trkpt>
      <trkpt lat="47.79536" lon="-3.52875">
        <ele>11</ele>
        <time>2019-07-15T09:40:17Z</time>
      </trkpt>
      <trkpt lat="47.79539" lon="-3.52877">
        <ele>11</ele>
        <time>2019-07-15T09:40:18Z</time>
      </trkpt>
      <trkpt lat="47.79541" lon="-3.52879">
        <ele>11</ele>
        <time>2019-07-15T09:40:19Z</time>
      </trkpt>
      <trkpt lat="47.79541" lon="-3.52879">
        <ele>11</ele>
        <time>2019-07-15T09:40:20Z</time>
      </trkpt>
      <trkpt lat="47.79542" lon="-3.5288">
        <ele>11</ele>
        <time>2019-07-15T09:40:21Z</time>
      </trkpt>
      <trkpt lat="47.79543" lon="-3.5288">
        <ele>11</ele>
        <time>2019-07-15T09:40:22Z</time>
      </trkpt>
      <trkpt lat="47.79544" lon="-3.52881">
        <ele>11</ele>
        <time>2019-07-15T09:40:23Z</time>
      </trkpt>
      <trkpt lat="47.79544" lon="-3.52881">
        <ele>11</ele>
        <time>2019-07-15T09:40:24Z</time>
      </trkpt>
      <trkpt lat="47.79555" lon="-3.52893">
        <ele>12</ele>
        <time>2019-07-15T09:40:25Z</time>
      </trkpt>
      <trkpt lat="47.79556" lon="-3.52895">
        <ele>12</ele>
        <time>2019-07-15T09:40:26Z</time>
      </trkpt>
      <trkpt lat="47.79557" lon="-3.52896">
        <ele>12</ele>
        <time>2019-07-15T09:40:27Z</time>
      </trkpt>
      <trkpt lat="47.79557" lon="-3.52898">
        <ele>12</ele>
        <time>2019-07-15T09:40:28Z</time>
      </trkpt>
      <trkpt lat="47.79557" lon="-3.529">
        <ele>13</ele>
        <time>2019-07-15T09:40:29Z</time>
      </trkpt>
      <trkpt lat="47.79558" lon="-3.52902">
        <ele>13</ele>
        <time>2019-07-15T09:40:30Z</time>
      </trkpt>
      <trkpt lat="47.79558" lon="-3.52904">
        <ele>13</ele>
        <time>2019-07-15T09:40:31Z</time>
      </trkpt>
      <trkpt lat="47.79559" lon="-3.52905">
        <ele>13</ele>
        <time>2019-07-15T09:40:32Z</time>
      </trkpt>
      <trkpt lat="47.7956" lon="-3.52907">
        <ele>13</ele>
        <time>2019-07-15T09:40:33Z</time>
      </trkpt>
      <trkpt lat="47.7956" lon="-3.52909">
        <ele>14</ele>
        <time>2019-07-15T09:40:34Z</time>
      </trkpt>
      <trkpt lat="47.79561" lon="-3.52911">
        <ele>14</ele>
        <time>2019-07-15T09:40:35Z</time>
      </trkpt>
      <trkpt lat="47.79561" lon="-3.52912">
        <ele>14</ele>
        <time>2019-07-15T09:40:36Z</time>
      </trkpt>
      <trkpt lat="47.79562" lon="-3.52913">
        <ele>14</ele>
        <time>2019-07-15T09:40:37Z</time>
      </trkpt>
      <trkpt lat="47.79563" lon="-3.52914">
        <ele>15</ele>
        <time>2019-07-15T09:40:38Z</time>
      </trkpt>
      <trkpt lat="47.79564" lon="-3.52914">
        <ele>15</ele>
        <time>2019-07-15T09:40:39Z</time>
      </trkpt>
      <trkpt lat="47.79564" lon="-3.52913">
        <ele>15</ele>
        <time>2019-07-15T09:40:40Z</time>
      </trkpt>
      <trkpt lat="47.79564" lon="-3.52912">
        <ele>16</ele>
        <time>2019-07-15T09:40:41Z</time>
      </trkpt>
      <trkpt lat="47.79565" lon="-3.5291">
        <ele>16</ele>
        <time>2019-07-15T09:40:42Z</time>
      </trkpt>
      <trkpt lat="47.79565" lon="-3.52909">
        <ele>16</ele>
        <time>2019-07-15T09:40:43Z</time>
      </trkpt>
      <trkpt lat="47.79566" lon="-3.52908">
        <ele>16</ele>
        <time>2019-07-15T09:40:44Z</time>
      </trkpt>
      <trkpt lat="47.79567" lon="-3.52907">
        <ele>17</ele>
        <time>2019-07-15T09:40:45Z</time>
      </trkpt>
      <trkpt lat="47.79567" lon="-3.52905">
        <ele>17</ele>
        <time>2019-07-15T09:40:46Z</time>
      </trkpt>
      <trkpt lat="47.79567" lon="-3.52904">
        <ele>17</ele>
        <time>2019-07-15T09:40:47Z</time>
      </trkpt>
      <trkpt lat="47.79568" lon="-3.52903">
        <ele>18</ele>
        <time>2019-07-15T09:40:48Z</time>
      </trkpt>
      <trkpt lat="47.79568" lon="-3.52901">
        <ele>18</ele>
        <time>2019-07-15T09:40:49Z</time>
      </trkpt>
      <trkpt lat="47.79568" lon="-3.52898">
        <ele>18</ele>
        <time>2019-07-15T09:40:50Z</time>
      </trkpt>
      <trkpt lat="47.79568" lon="-3.52896">
        <ele>19</ele>
        <time>2019-07-15T09:40:51Z</time>
      </trkpt>
      <trkpt lat="47.79568" lon="-3.52895">
        <ele>19</ele>
        <time>2019-07-15T09:40:52Z</time>
      </trkpt>
      <trkpt lat="47.79567" lon="-3.52893">
        <ele>19</ele>
        <time>2019-07-15T09:40:53Z</time>
      </trkpt>
      <trkpt lat="47.79567" lon="-3.52892">
        <ele>19</ele>
        <time>2019-07-15T09:40:54Z</time>
      </trkpt>
      <trkpt lat="47.79567" lon="-3.5289">
        <ele>19</ele>
        <time>2019-07-15T09:40:55Z</time>
      </trkpt>
      <trkpt lat="47.79568" lon="-3.5289">
        <ele>19</ele>
        <time>2019-07-15T09:40:56Z</time>
      </trkpt>
      <trkpt lat="47.79568" lon="-3.52889">
        <ele>20</ele>
        <time>2019-07-15T09:40:57Z</time>
      </trkpt>
      <trkpt lat="47.79568" lon="-3.52889">
        <ele>20</ele>
        <time>2019-07-15T09:40:58Z</time>
      </trkpt>
      <trkpt lat="47.79568" lon="-3.52889">
        <ele>20</ele>
        <time>2019-07-15T09:40:59Z</time>
      </trkpt>
      <trkpt lat="47.79568" lon="-3.52882">
        <ele>20</ele>
        <time>2019-07-15T09:41:00Z</time>
      </trkpt>
      <trkpt lat="47.79568" lon="-3.52879">
        <ele>20</ele>
        <time>2019-07-15T09:41:01Z</time>
      </trkpt>
      <trkpt lat="47.79568" lon="-3.52877">
        <ele>20</ele>
        <time>2019-07-15T09:41:02Z</time>
      </trkpt>
      <trkpt lat="47.79569" lon="-3.52875">
        <ele>21</ele>
        <time>2019-07-15T09:41:03Z</time>
      </trkpt>
      <trkpt lat="47.7957" lon="-3.52872">
        <ele>21</ele>
        <time>2019-07-15T09:41:04Z</time>
      </trkpt>
      <trkpt lat="47.79571" lon="-3.52868">
        <ele>21</ele>
        <time>2019-07-15T09:41:05Z</time>
      </trkpt>
      <trkpt lat="47.79572" lon="-3.52863">
        <ele>21</ele>
        <time>2019-07-15T09:41:06Z</time>
      </trkpt>
      <trkpt lat="47.79573" lon="-3.52858">
        <ele>21</ele>
        <time>2019-07-15T09:41:07Z</time>
      </trkpt>
      <trkpt lat="47.79574" lon="-3.52853">
        <ele>21</ele>
        <time>2019-07-15T09:41:08Z</time>
      </trkpt>
      <trkpt lat="47.79577" lon="-3.52847">
        <ele>21</ele>
        <time>2019-07-15T09:41:09Z</time>
      </trkpt>
      <trkpt lat="47.79579" lon="-3.52842">
        <ele>21</ele>
        <time>2019-07-15T09:41:10Z</time>
      </trkpt>
      <trkpt lat="47.79581" lon="-3.52837">
        <ele>21</ele>
        <time>2019-07-15T09:41:11Z</time>
      </trkpt>
      <trkpt lat="47.79584" lon="-3.52834">
        <ele>21</ele>
        <time>2019-07-15T09:41:12Z</time>
      </trkpt>
      <trkpt lat="47.79588" lon="-3.52831">
        <ele>21</ele>
        <time>2019-07-15T09:41:13Z</time>
      </trkpt>
      <trkpt lat="47.79591" lon="-3.52829">
        <ele>21</ele>
        <time>2019-07-15T09:41:14Z</time>
      </trkpt>
      <trkpt lat="47.79595" lon="-3.52828">
        <ele>21</ele>
        <time>2019-07-15T09:41:15Z</time>
      </trkpt>
      <trkpt lat="47.79598" lon="-3.52827">
        <ele>20</ele>
        <time>2019-07-15T09:41:16Z</time>
      </trkpt>
      <trkpt lat="47.79603" lon="-3.52824">
        <ele>20</ele>
        <time>2019-07-15T09:41:17Z</time>
      </trkpt>
      <trkpt lat="47.79609" lon="-3.52818">
        <ele>20</ele>
        <time>2019-07-15T09:41:18Z</time>
      </trkpt>
      <trkpt lat="47.79614" lon="-3.52813">
        <ele>20</ele>
        <time>2019-07-15T09:41:19Z</time>
      </trkpt>
      <trkpt lat="47.79619" lon="-3.52809">
        <ele>20</ele>
        <time>2019-07-15T09:41:20Z</time>
      </trkpt>
      <trkpt lat="47.79624" lon="-3.52805">
        <ele>19</ele>
        <time>2019-07-15T09:41:21Z</time>
      </trkpt>
      <trkpt lat="47.79629" lon="-3.52801">
        <ele>19</ele>
        <time>2019-07-15T09:41:22Z</time>
      </trkpt>
      <trkpt lat="47.79633" lon="-3.52798">
        <ele>19</ele>
        <time>2019-07-15T09:41:23Z</time>
      </trkpt>
      <trkpt lat="47.79637" lon="-3.52795">
        <ele>19</ele>
        <time>2019-07-15T09:41:24Z</time>
      </trkpt>
      <trkpt lat="47.7964" lon="-3.52793">
        <ele>19</ele>
        <time>2019-07-15T09:41:25Z</time>
      </trkpt>
      <trkpt lat="47.79644" lon="-3.5279">
        <ele>18</ele>
        <time>2019-07-15T09:41:26Z</time>
      </trkpt>
      <trkpt lat="47.79648" lon="-3.52788">
        <ele>18</ele>
        <time>2019-07-15T09:41:27Z</time>
      </trkpt>
      <trkpt lat="47.79651" lon="-3.52787">
        <ele>18</ele>
        <time>2019-07-15T09:41:28Z</time>
      </trkpt>
      <trkpt lat="47.79654" lon="-3.52787">
        <ele>18</ele>
        <time>2019-07-15T09:41:29Z</time>
      </trkpt>
      <trkpt lat="47.79656" lon="-3.52786">
        <ele>18</ele>
        <time>2019-07-15T09:41:30Z</time>
      </trkpt>
      <trkpt lat="47.79657" lon="-3.52786">
        <ele>18</ele>
        <time>2019-07-15T09:41:31Z</time>
      </trkpt>
      <trkpt lat="47.79659" lon="-3.52786">
        <ele>18</ele>
        <time>2019-07-15T09:41:32Z</time>
      </trkpt>
      <trkpt lat="47.79661" lon="-3.52785">
        <ele>18</ele>
        <time>2019-07-15T09:41:33Z</time>
      </trkpt>
      <trkpt lat="47.79663" lon="-3.52785">
        <ele>19</ele>
        <time>2019-07-15T09:41:34Z</time>
      </trkpt>
      <trkpt lat="47.79665" lon="-3.52785">
        <ele>19</ele>
        <time>2019-07-15T09:41:35Z</time>
      </trkpt>
      <trkpt lat="47.79667" lon="-3.52785">
        <ele>19</ele>
        <time>2019-07-15T09:41:36Z</time>
      </trkpt>
      <trkpt lat="47.79668" lon="-3.52785">
        <ele>19</ele>
        <time>2019-07-15T09:41:37Z</time>
      </trkpt>
      <trkpt lat="47.79669" lon="-3.52785">
        <ele>19</ele>
        <time>2019-07-15T09:41:38Z</time>
      </trkpt>
      <trkpt lat="47.79669" lon="-3.52784">
        <ele>19</ele>
        <time>2019-07-15T09:41:39Z</time>
      </trkpt>
      <trkpt lat="47.7967" lon="-3.52784">
        <ele>19</ele>
        <time>2019-07-15T09:41:40Z</time>
      </trkpt>
      <trkpt lat="47.79671" lon="-3.52784">
        <ele>18</ele>
        <time>2019-07-15T09:41:41Z</time>
      </trkpt>
      <trkpt lat="47.7969" lon="-3.5278">
        <ele>18</ele>
        <time>2019-07-15T09:41:42Z</time>
      </trkpt>
      <trkpt lat="47.7969" lon="-3.5278">
        <ele>18</ele>
        <time>2019-07-15T09:41:43Z</time>
      </trkpt>
      <trkpt lat="47.79692" lon="-3.5278">
        <ele>18</ele>
        <time>2019-07-15T09:41:44Z</time>
      </trkpt>
      <trkpt lat="47.79692" lon="-3.5278">
        <ele>19</ele>
        <time>2019-07-15T09:41:45Z</time>
      </trkpt>
      <trkpt lat="47.79694" lon="-3.5278">
        <ele>19</ele>
        <time>2019-07-15T09:41:46Z</time>
      </trkpt>
      <trkpt lat="47.79695" lon="-3.5278">
        <ele>19</ele>
        <time>2019-07-15T09:41:47Z</time>
      </trkpt>
      <trkpt lat="47.79696" lon="-3.5278">
        <ele>19</ele>
        <time>2019-07-15T09:41:48Z</time>
      </trkpt>
      <trkpt lat="47.79696" lon="-3.5278">
        <ele>19</ele>
        <time>2019-07-15T09:41:49Z</time>
      </trkpt>
      <trkpt lat="47.79697" lon="-3.52779">
        <ele>19</ele>
        <time>2019-07-15T09:41:50Z</time>
      </trkpt>
      <trkpt lat="47.79698" lon="-3.52779">
        <ele>19</ele>
        <time>2019-07-15T09:41:51Z</time>
      </trkpt>
      <trkpt lat="47.79699" lon="-3.52778">
        <ele>19</ele>
        <time>2019-07-15T09:41:52Z</time>
      </trkpt>
      <trkpt lat="47.79699" lon="-3.52778">
        <ele>20</ele>
        <time>2019-07-15T09:41:53Z</time>
      </trkpt>
      <trkpt lat="47.79699" lon="-3.52778">
        <ele>20</ele>
        <time>2019-07-15T09:41:54Z</time>
      </trkpt>
      <trkpt lat="47.79699" lon="-3.52778">
        <ele>20</ele>
        <time>2019-07-15T09:41:55Z</time>
      </trkpt>
      <trkpt lat="47.797" lon="-3.52778">
        <ele>20</ele>
        <time>2019-07-15T09:41:56Z</time>
      </trkpt>
      <trkpt lat="47.79701" lon="-3.52777">
        <ele>20</ele>
        <time>2019-07-15T09:41:57Z</time>
      </trkpt>
      <trkpt lat="47.79702" lon="-3.52777">
        <ele>20</ele>
        <time>2019-07-15T09:41:58Z</time>
      </trkpt>
      <trkpt lat="47.79702" lon="-3.52776">
        <ele>20</ele>
        <time>2019-07-15T09:41:59Z</time>
      </trkpt>
      <trkpt lat="47.79704" lon="-3.52774">
        <ele>20</ele>
        <time>2019-07-15T09:42:00Z</time>
      </trkpt>
      <trkpt lat="47.79706" lon="-3.52772">
        <ele>20</ele>
        <time>2019-07-15T09:42:01Z</time>
      </trkpt>
      <trkpt lat="47.79708" lon="-3.52769">
        <ele>21</ele>
        <time>2019-07-15T09:42:02Z</time>
      </trkpt>
      <trkpt lat="47.79709" lon="-3.52765">
        <ele>21</ele>
        <time>2019-07-15T09:42:03Z</time>
      </trkpt>
      <trkpt lat="47.79711" lon="-3.52761">
        <ele>21</ele>
        <time>2019-07-15T09:42:04Z</time>
      </trkpt>
      <trkpt lat="47.79713" lon="-3.52758">
        <ele>21</ele>
        <time>2019-07-15T09:42:05Z</time>
      </trkpt>
      <trkpt lat="47.79714" lon="-3.52754">
        <ele>21</ele>
        <time>2019-07-15T09:42:06Z</time>
      </trkpt>
      <trkpt lat="47.79716" lon="-3.5275">
        <ele>21</ele>
        <time>2019-07-15T09:42:07Z</time>
      </trkpt>
      <trkpt lat="47.79718" lon="-3.52745">
        <ele>21</ele>
        <time>2019-07-15T09:42:08Z</time>
      </trkpt>
      <trkpt lat="47.79719" lon="-3.52741">
        <ele>21</ele>
        <time>2019-07-15T09:42:09Z</time>
      </trkpt>
      <trkpt lat="47.7972" lon="-3.52737">
        <ele>21</ele>
        <time>2019-07-15T09:42:10Z</time>
      </trkpt>
      <trkpt lat="47.79721" lon="-3.52733">
        <ele>21</ele>
        <time>2019-07-15T09:42:11Z</time>
      </trkpt>
      <trkpt lat="47.79722" lon="-3.52728">
        <ele>21</ele>
        <time>2019-07-15T09:42:12Z</time>
      </trkpt>
      <trkpt lat="47.79724" lon="-3.52723">
        <ele>21</ele>
        <time>2019-07-15T09:42:13Z</time>
      </trkpt>
      <trkpt lat="47.79726" lon="-3.52716">
        <ele>21</ele>
        <time>2019-07-15T09:42:14Z</time>
      </trkpt>
      <trkpt lat="47.79729" lon="-3.52709">
        <ele>21</ele>
        <time>2019-07-15T09:42:15Z</time>
      </trkpt>
      <trkpt lat="47.79731" lon="-3.52701">
        <ele>21</ele>
        <time>2019-07-15T09:42:16Z</time>
      </trkpt>
      <trkpt lat="47.79733" lon="-3.52693">
        <ele>20</ele>
        <time>2019-07-15T09:42:17Z</time>
      </trkpt>
      <trkpt lat="47.79735" lon="-3.52686">
        <ele>20</ele>
        <time>2019-07-15T09:42:18Z</time>
      </trkpt>
      <trkpt lat="47.79736" lon="-3.5268">
        <ele>20</ele>
        <time>2019-07-15T09:42:19Z</time>
      </trkpt>
      <trkpt lat="47.79737" lon="-3.52675">
        <ele>20</ele>
        <time>2019-07-15T09:42:20Z</time>
      </trkpt>
      <trkpt lat="47.79739" lon="-3.5267">
        <ele>20</ele>
        <time>2019-07-15T09:42:21Z</time>
      </trkpt>
      <trkpt lat="47.7974" lon="-3.52664">
        <ele>20</ele>
        <time>2019-07-15T09:42:22Z</time>
      </trkpt>
      <trkpt lat="47.79743" lon="-3.52656">
        <ele>20</ele>
        <time>2019-07-15T09:42:23Z</time>
      </trkpt>
      <trkpt lat="47.79746" lon="-3.52649">
        <ele>20</ele>
        <time>2019-07-15T09:42:24Z</time>
      </trkpt>
      <trkpt lat="47.79749" lon="-3.52641">
        <ele>20</ele>
        <time>2019-07-15T09:42:25Z</time>
      </trkpt>
      <trkpt lat="47.79752" lon="-3.52631">
        <ele>19</ele>
        <time>2019-07-15T09:42:26Z</time>
      </trkpt>
      <trkpt lat="47.79754" lon="-3.5262">
        <ele>19</ele>
        <time>2019-07-15T09:42:27Z</time>
      </trkpt>
      <trkpt lat="47.79753" lon="-3.5261">
        <ele>19</ele>
        <time>2019-07-15T09:42:28Z</time>
      </trkpt>
      <trkpt lat="47.79751" lon="-3.526">
        <ele>19</ele>
        <time>2019-07-15T09:42:29Z</time>
      </trkpt>
      <trkpt lat="47.7975" lon="-3.5259">
        <ele>18</ele>
        <time>2019-07-15T09:42:30Z</time>
      </trkpt>
      <trkpt lat="47.79751" lon="-3.5258">
        <ele>18</ele>
        <time>2019-07-15T09:42:31Z</time>
      </trkpt>
      <trkpt lat="47.79752" lon="-3.5257">
        <ele>17</ele>
        <time>2019-07-15T09:42:32Z</time>
      </trkpt>
      <trkpt lat="47.79755" lon="-3.52559">
        <ele>17</ele>
        <time>2019-07-15T09:42:33Z</time>
      </trkpt>
      <trkpt lat="47.79757" lon="-3.52549">
        <ele>16</ele>
        <time>2019-07-15T09:42:34Z</time>
      </trkpt>
      <trkpt lat="47.79759" lon="-3.52539">
        <ele>16</ele>
        <time>2019-07-15T09:42:35Z</time>
      </trkpt>
      <trkpt lat="47.79762" lon="-3.52531">
        <ele>15</ele>
        <time>2019-07-15T09:42:36Z</time>
      </trkpt>
      <trkpt lat="47.79765" lon="-3.52522">
        <ele>15</ele>
        <time>2019-07-15T09:42:37Z</time>
      </trkpt>
      <trkpt lat="47.79767" lon="-3.52514">
        <ele>14</ele>
        <time>2019-07-15T09:42:38Z</time>
      </trkpt>
      <trkpt lat="47.7977" lon="-3.52506">
        <ele>14</ele>
        <time>2019-07-15T09:42:39Z</time>
      </trkpt>
      <trkpt lat="47.79772" lon="-3.52498">
        <ele>14</ele>
        <time>2019-07-15T09:42:40Z</time>
      </trkpt>
      <trkpt lat="47.79775" lon="-3.52489">
        <ele>13</ele>
        <time>2019-07-15T09:42:41Z</time>
      </trkpt>
      <trkpt lat="47.79777" lon="-3.52482">
        <ele>13</ele>
        <time>2019-07-15T09:42:42Z</time>
      </trkpt>
      <trkpt lat="47.79778" lon="-3.52475">
        <ele>13</ele>
        <time>2019-07-15T09:42:43Z</time>
      </trkpt>
      <trkpt lat="47.7978" lon="-3.52469">
        <ele>13</ele>
        <time>2019-07-15T09:42:44Z</time>
      </trkpt>
      <trkpt lat="47.79781" lon="-3.52463">
        <ele>13</ele>
        <time>2019-07-15T09:42:45Z</time>
      </trkpt>
      <trkpt lat="47.79783" lon="-3.52459">
        <ele>13</ele>
        <time>2019-07-15T09:42:46Z</time>
      </trkpt>
      <trkpt lat="47.79784" lon="-3.52453">
        <ele>12</ele>
        <time>2019-07-15T09:42:47Z</time>
      </trkpt>
      <trkpt lat="47.79786" lon="-3.52449">
        <ele>12</ele>
        <time>2019-07-15T09:42:48Z</time>
      </trkpt>
      <trkpt lat="47.79787" lon="-3.52445">
        <ele>12</ele>
        <time>2019-07-15T09:42:49Z</time>
      </trkpt>
      <trkpt lat="47.79789" lon="-3.52441">
        <ele>12</ele>
        <time>2019-07-15T09:42:50Z</time>
      </trkpt>
      <trkpt lat="47.7979" lon="-3.52436">
        <ele>12</ele>
        <time>2019-07-15T09:42:51Z</time>
      </trkpt>
      <trkpt lat="47.79792" lon="-3.52432">
        <ele>12</ele>
        <time>2019-07-15T09:42:52Z</time>
      </trkpt>
      <trkpt lat="47.79793" lon="-3.52428">
        <ele>12</ele>
        <time>2019-07-15T09:42:53Z</time>
      </trkpt>
      <trkpt lat="47.79794" lon="-3.52424">
        <ele>12</ele>
        <time>2019-07-15T09:42:54Z</time>
      </trkpt>
      <trkpt lat="47.79796" lon="-3.5242">
        <ele>12</ele>
        <time>2019-07-15T09:42:55Z</time>
      </trkpt>
      <trkpt lat="47.79797" lon="-3.52415">
        <ele>12</ele>
        <time>2019-07-15T09:42:56Z</time>
      </trkpt>
      <trkpt lat="47.79798" lon="-3.52409">
        <ele>12</ele>
        <time>2019-07-15T09:42:57Z</time>
      </trkpt>
      <trkpt lat="47.79798" lon="-3.52404">
        <ele>12</ele>
        <time>2019-07-15T09:42:58Z</time>
      </trkpt>
      <trkpt lat="47.79799" lon="-3.524">
        <ele>12</ele>
        <time>2019-07-15T09:42:59Z</time>
      </trkpt>
      <trkpt lat="47.798" lon="-3.52396">
        <ele>12</ele>
        <time>2019-07-15T09:43:00Z</time>
      </trkpt>
      <trkpt lat="47.79801" lon="-3.52393">
        <ele>12</ele>
        <time>2019-07-15T09:43:01Z</time>
      </trkpt>
      <trkpt lat="47.79802" lon="-3.52389">
        <ele>12</ele>
        <time>2019-07-15T09:43:02Z</time>
      </trkpt>
      <trkpt lat="47.79803" lon="-3.52386">
        <ele>12</ele>
        <time>2019-07-15T09:43:03Z</time>
      </trkpt>
      <trkpt lat="47.79804" lon="-3.52382">
        <ele>12</ele>
        <time>2019-07-15T09:43:04Z</time>
      </trkpt>
      <trkpt lat="47.79806" lon="-3.52377">
        <ele>13</ele>
        <time>2019-07-15T09:43:05Z</time>
      </trkpt>
      <trkpt lat="47.79808" lon="-3.52373">
        <ele>13</ele>
        <time>2019-07-15T09:43:06Z</time>
      </trkpt>
      <trkpt lat="47.7981" lon="-3.52368">
        <ele>13</ele>
        <time>2019-07-15T09:43:07Z</time>
      </trkpt>
      <trkpt lat="47.79812" lon="-3.52363">
        <ele>13</ele>
        <time>2019-07-15T09:43:08Z</time>
      </trkpt>
      <trkpt lat="47.79814" lon="-3.52358">
        <ele>13</ele>
        <time>2019-07-15T09:43:09Z</time>
      </trkpt>
      <trkpt lat="47.79816" lon="-3.52354">
        <ele>13</ele>
        <time>2019-07-15T09:43:10Z</time>
      </trkpt>
      <trkpt lat="47.79818" lon="-3.52349">
        <ele>13</ele>
        <time>2019-07-15T09:43:11Z</time>
      </trkpt>
      <trkpt lat="47.7982" lon="-3.52344">
        <ele>13</ele>
        <time>2019-07-15T09:43:12Z</time>
      </trkpt>
      <trkpt lat="47.79822" lon="-3.5234">
        <ele>13</ele>
        <time>2019-07-15T09:43:13Z</time>
      </trkpt>
      <trkpt lat="47.79824" lon="-3.52336">
        <ele>13</ele>
        <time>2019-07-15T09:43:14Z</time>
      </trkpt>
      <trkpt lat="47.79826" lon="-3.52332">
        <ele>13</ele>
        <time>2019-07-15T09:43:15Z</time>
      </trkpt>
      <trkpt lat="47.79829" lon="-3.52329">
        <ele>13</ele>
        <time>2019-07-15T09:43:16Z</time>
      </trkpt>
      <trkpt lat="47.79832" lon="-3.52326">
        <ele>13</ele>
        <time>2019-07-15T09:43:17Z</time>
      </trkpt>
      <trkpt lat="47.79834" lon="-3.52323">
        <ele>13</ele>
        <time>2019-07-15T09:43:18Z</time>
      </trkpt>
      <trkpt lat="47.79836" lon="-3.52321">
        <ele>12</ele>
        <time>2019-07-15T09:43:19Z</time>
      </trkpt>
      <trkpt lat="47.79837" lon="-3.52319">
        <ele>12</ele>
        <time>2019-07-15T09:43:20Z</time>
      </trkpt>
      <trkpt lat="47.7984" lon="-3.52317">
        <ele>12</ele>
        <time>2019-07-15T09:43:21Z</time>
      </trkpt>
      <trkpt lat="47.79841" lon="-3.52315">
        <ele>12</ele>
        <time>2019-07-15T09:43:22Z</time>
      </trkpt>
      <trkpt lat="47.79842" lon="-3.52311">
        <ele>12</ele>
        <time>2019-07-15T09:43:23Z</time>
      </trkpt>
      <trkpt lat="47.79842" lon="-3.52307">
        <ele>12</ele>
        <time>2019-07-15T09:43:24Z</time>
      </trkpt>
      <trkpt lat="47.79841" lon="-3.52303">
        <ele>12</ele>
        <time>2019-07-15T09:43:25Z</time>
      </trkpt>
      <trkpt lat="47.79839" lon="-3.523">
        <ele>12</ele>
        <time>2019-07-15T09:43:26Z</time>
      </trkpt>
      <trkpt lat="47.79836" lon="-3.523">
        <ele>12</ele>
        <time>2019-07-15T09:43:27Z</time>
      </trkpt>
      <trkpt lat="47.79832" lon="-3.52301">
        <ele>12</ele>
        <time>2019-07-15T09:43:28Z</time>
      </trkpt>
      <trkpt lat="47.79828" lon="-3.52302">
        <ele>12</ele>
        <time>2019-07-15T09:43:29Z</time>
      </trkpt>
      <trkpt lat="47.79824" lon="-3.52303">
        <ele>12</ele>
        <time>2019-07-15T09:43:30Z</time>
      </trkpt>
      <trkpt lat="47.7982" lon="-3.52304">
        <ele>12</ele>
        <time>2019-07-15T09:43:31Z</time>
      </trkpt>
      <trkpt lat="47.79816" lon="-3.52306">
        <ele>12</ele>
        <time>2019-07-15T09:43:32Z</time>
      </trkpt>
      <trkpt lat="47.79812" lon="-3.52308">
        <ele>12</ele>
        <time>2019-07-15T09:43:33Z</time>
      </trkpt>
      <trkpt lat="47.79808" lon="-3.52309">
        <ele>12</ele>
        <time>2019-07-15T09:43:34Z</time>
      </trkpt>
      <trkpt lat="47.79804" lon="-3.5231">
        <ele>12</ele>
        <time>2019-07-15T09:43:35Z</time>
      </trkpt>
      <trkpt lat="47.798" lon="-3.52312">
        <ele>12</ele>
        <time>2019-07-15T09:43:36Z</time>
      </trkpt>
      <trkpt lat="47.79796" lon="-3.52313">
        <ele>12</ele>
        <time>2019-07-15T09:43:37Z</time>
      </trkpt>
      <trkpt lat="47.79791" lon="-3.52314">
        <ele>12</ele>
        <time>2019-07-15T09:43:38Z</time>
      </trkpt>
      <trkpt lat="47.79787" lon="-3.52316">
        <ele>12</ele>
        <time>2019-07-15T09:43:39Z</time>
      </trkpt>
      <trkpt lat="47.79782" lon="-3.52318">
        <ele>12</ele>
        <time>2019-07-15T09:43:40Z</time>
      </trkpt>
      <trkpt lat="47.79778" lon="-3.52319">
        <ele>12</ele>
        <time>2019-07-15T09:43:41Z</time>
      </trkpt>
      <trkpt lat="47.79773" lon="-3.52321">
        <ele>12</ele>
        <time>2019-07-15T09:43:42Z</time>
      </trkpt>
      <trkpt lat="47.79768" lon="-3.52323">
        <ele>12</ele>
        <time>2019-07-15T09:43:43Z</time>
      </trkpt>
      <trkpt lat="47.79763" lon="-3.52324">
        <ele>12</ele>
        <time>2019-07-15T09:43:44Z</time>
      </trkpt>
      <trkpt lat="47.79758" lon="-3.52326">
        <ele>12</ele>
        <time>2019-07-15T09:43:45Z</time>
      </trkpt>
      <trkpt lat="47.79754" lon="-3.52328">
        <ele>12</ele>
        <time>2019-07-15T09:43:46Z</time>
      </trkpt>
      <trkpt lat="47.79749" lon="-3.5233">
        <ele>12</ele>
        <time>2019-07-15T09:43:47Z</time>
      </trkpt>
      <trkpt lat="47.79744" lon="-3.52331">
        <ele>12</ele>
        <time>2019-07-15T09:43:48Z</time>
      </trkpt>
      <trkpt lat="47.79739" lon="-3.52333">
        <ele>12</ele>
        <time>2019-07-15T09:43:49Z</time>
      </trkpt>
      <trkpt lat="47.79734" lon="-3.52335">
        <ele>12</ele>
        <time>2019-07-15T09:43:50Z</time>
      </trkpt>
      <trkpt lat="47.79729" lon="-3.52337">
        <ele>12</ele>
        <time>2019-07-15T09:43:51Z</time>
      </trkpt>
      <trkpt lat="47.79724" lon="-3.52339">
        <ele>12</ele>
        <time>2019-07-15T09:43:52Z</time>
      </trkpt>
      <trkpt lat="47.79719" lon="-3.5234">
        <ele>12</ele>
        <time>2019-07-15T09:43:53Z</time>
      </trkpt>
      <trkpt lat="47.79714" lon="-3.52342">
        <ele>12</ele>
        <time>2019-07-15T09:43:54Z</time>
      </trkpt>
      <trkpt lat="47.79709" lon="-3.52344">
        <ele>12</ele>
        <time>2019-07-15T09:43:55Z</time>
      </trkpt>
      <trkpt lat="47.79703" lon="-3.52346">
        <ele>12</ele>
        <time>2019-07-15T09:43:56Z</time>
      </trkpt>
      <trkpt lat="47.79698" lon="-3.52348">
        <ele>12</ele>
        <time>2019-07-15T09:43:57Z</time>
      </trkpt>
      <trkpt lat="47.79693" lon="-3.5235">
        <ele>12</ele>
        <time>2019-07-15T09:43:58Z</time>
      </trkpt>
      <trkpt lat="47.79688" lon="-3.52352">
        <ele>12</ele>
        <time>2019-07-15T09:43:59Z</time>
      </trkpt>
      <trkpt lat="47.79683" lon="-3.52354">
        <ele>12</ele>
        <time>2019-07-15T09:44:00Z</time>
      </trkpt>
      <trkpt lat="47.79678" lon="-3.52356">
        <ele>12</ele>
        <time>2019-07-15T09:44:01Z</time>
      </trkpt>
      <trkpt lat="47.79672" lon="-3.52357">
        <ele>12</ele>
        <time>2019-07-15T09:44:02Z</time>
      </trkpt>
      <trkpt lat="47.79667" lon="-3.52359">
        <ele>12</ele>
        <time>2019-07-15T09:44:03Z</time>
      </trkpt>
      <trkpt lat="47.79662" lon="-3.52361">
        <ele>12</ele>
        <time>2019-07-15T09:44:04Z</time>
      </trkpt>
      <trkpt lat="47.79657" lon="-3.52363">
        <ele>12</ele>
        <time>2019-07-15T09:44:05Z</time>
      </trkpt>
      <trkpt lat="47.79651" lon="-3.52365">
        <ele>12</ele>
        <time>2019-07-15T09:44:06Z</time>
      </trkpt>
      <trkpt lat="47.79646" lon="-3.52367">
        <ele>12</ele>
        <time>2019-07-15T09:44:07Z</time>
      </trkpt>
      <trkpt lat="47.7964" lon="-3.52369">
        <ele>12</ele>
        <time>2019-07-15T09:44:08Z</time>
      </trkpt>
      <trkpt lat="47.79634" lon="-3.52371">
        <ele>12</ele>
        <time>2019-07-15T09:44:09Z</time>
      </trkpt>
      <trkpt lat="47.79629" lon="-3.52373">
        <ele>12</ele>
        <time>2019-07-15T09:44:10Z</time>
      </trkpt>
      <trkpt lat="47.79623" lon="-3.52374">
        <ele>12</ele>
        <time>2019-07-15T09:44:11Z</time>
      </trkpt>
      <trkpt lat="47.79618" lon="-3.52377">
        <ele>12</ele>
        <time>2019-07-15T09:44:12Z</time>
      </trkpt>
      <trkpt lat="47.79612" lon="-3.52379">
        <ele>12</ele>
        <time>2019-07-15T09:44:13Z</time>
      </trkpt>
      <trkpt lat="47.79607" lon="-3.52381">
        <ele>12</ele>
        <time>2019-07-15T09:44:14Z</time>
      </trkpt>
      <trkpt lat="47.79602" lon="-3.52383">
        <ele>12</ele>
        <time>2019-07-15T09:44:15Z</time>
      </trkpt>
      <trkpt lat="47.79597" lon="-3.52384">
        <ele>12</ele>
        <time>2019-07-15T09:44:16Z</time>
      </trkpt>
      <trkpt lat="47.79593" lon="-3.52386">
        <ele>12</ele>
        <time>2019-07-15T09:44:17Z</time>
      </trkpt>
      <trkpt lat="47.79588" lon="-3.52388">
        <ele>12</ele>
        <time>2019-07-15T09:44:18Z</time>
      </trkpt>
      <trkpt lat="47.79584" lon="-3.52389">
        <ele>12</ele>
        <time>2019-07-15T09:44:19Z</time>
      </trkpt>
      <trkpt lat="47.79581" lon="-3.5239">
        <ele>12</ele>
        <time>2019-07-15T09:44:20Z</time>
      </trkpt>
      <trkpt lat="47.79578" lon="-3.52388">
        <ele>12</ele>
        <time>2019-07-15T09:44:21Z</time>
      </trkpt>
      <trkpt lat="47.79575" lon="-3.52386">
        <ele>12</ele>
        <time>2019-07-15T09:44:22Z</time>
      </trkpt>
      <trkpt lat="47.79575" lon="-3.52385">
        <ele>12</ele>
        <time>2019-07-15T09:44:23Z</time>
      </trkpt>
      <trkpt lat="47.79577" lon="-3.52384">
        <ele>12</ele>
        <time>2019-07-15T09:44:24Z</time>
      </trkpt>
      <trkpt lat="47.7958" lon="-3.52383">
        <ele>12</ele>
        <time>2019-07-15T09:44:25Z</time>
      </trkpt>
      <trkpt lat="47.79583" lon="-3.52382">
        <ele>13</ele>
        <time>2019-07-15T09:44:26Z</time>
      </trkpt>
      <trkpt lat="47.79587" lon="-3.5238">
        <ele>13</ele>
        <time>2019-07-15T09:44:27Z</time>
      </trkpt>
      <trkpt lat="47.7959" lon="-3.5238">
        <ele>13</ele>
        <time>2019-07-15T09:44:28Z</time>
      </trkpt>
      <trkpt lat="47.79594" lon="-3.52379">
        <ele>13</ele>
        <time>2019-07-15T09:44:29Z</time>
      </trkpt>
      <trkpt lat="47.79597" lon="-3.52378">
        <ele>14</ele>
        <time>2019-07-15T09:44:30Z</time>
      </trkpt>
      <trkpt lat="47.796" lon="-3.52377">
        <ele>14</ele>
        <time>2019-07-15T09:44:31Z</time>
      </trkpt>
      <trkpt lat="47.796" lon="-3.52376">
        <ele>14</ele>
        <time>2019-07-15T09:44:32Z</time>
      </trkpt>
      <trkpt lat="47.796" lon="-3.52374">
        <ele>15</ele>
        <time>2019-07-15T09:44:33Z</time>
      </trkpt>
      <trkpt lat="47.796" lon="-3.52373">
        <ele>15</ele>
        <time>2019-07-15T09:44:34Z</time>
      </trkpt>
      <trkpt lat="47.796" lon="-3.52371">
        <ele>15</ele>
        <time>2019-07-15T09:44:35Z</time>
      </trkpt>
      <trkpt lat="47.796" lon="-3.5237">
        <ele>15</ele>
        <time>2019-07-15T09:44:36Z</time>
      </trkpt>
      <trkpt lat="47.796" lon="-3.52369">
        <ele>15</ele>
        <time>2019-07-15T09:44:37Z</time>
      </trkpt>
      <trkpt lat="47.79598" lon="-3.5236">
        <ele>17</ele>
        <time>2019-07-15T09:44:38Z</time>
      </trkpt>
      <trkpt lat="47.79598" lon="-3.52358">
        <ele>17</ele>
        <time>2019-07-15T09:44:39Z</time>
      </trkpt>
      <trkpt lat="47.79598" lon="-3.52356">
        <ele>17</ele>
        <time>2019-07-15T09:44:40Z</time>
      </trkpt>
      <trkpt lat="47.79599" lon="-3.52353">
        <ele>17</ele>
        <time>2019-07-15T09:44:41Z</time>
      </trkpt>
      <trkpt lat="47.796" lon="-3.5235">
        <ele>17</ele>
        <time>2019-07-15T09:44:42Z</time>
      </trkpt>
      <trkpt lat="47.79601" lon="-3.52346">
        <ele>17</ele>
        <time>2019-07-15T09:44:43Z</time>
      </trkpt>
      <trkpt lat="47.79601" lon="-3.52343">
        <ele>17</ele>
        <time>2019-07-15T09:44:44Z</time>
      </trkpt>
      <trkpt lat="47.79601" lon="-3.52339">
        <ele>17</ele>
        <time>2019-07-15T09:44:45Z</time>
      </trkpt>
      <trkpt lat="47.79601" lon="-3.52335">
        <ele>17</ele>
        <time>2019-07-15T09:44:46Z</time>
      </trkpt>
      <trkpt lat="47.79602" lon="-3.52333">
        <ele>17</ele>
        <time>2019-07-15T09:44:47Z</time>
      </trkpt>
      <trkpt lat="47.79603" lon="-3.5233">
        <ele>17</ele>
        <time>2019-07-15T09:44:48Z</time>
      </trkpt>
      <trkpt lat="47.79603" lon="-3.52327">
        <ele>17</ele>
        <time>2019-07-15T09:44:49Z</time>
      </trkpt>
      <trkpt lat="47.79603" lon="-3.52324">
        <ele>17</ele>
        <time>2019-07-15T09:44:50Z</time>
      </trkpt>
      <trkpt lat="47.79604" lon="-3.5232">
        <ele>17</ele>
        <time>2019-07-15T09:44:51Z</time>
      </trkpt>
      <trkpt lat="47.79604" lon="-3.52317">
        <ele>17</ele>
        <time>2019-07-15T09:44:52Z</time>
      </trkpt>
      <trkpt lat="47.79605" lon="-3.52313">
        <ele>17</ele>
        <time>2019-07-15T09:44:53Z</time>
      </trkpt>
      <trkpt lat="47.79606" lon="-3.5231">
        <ele>18</ele>
        <time>2019-07-15T09:44:54Z</time>
      </trkpt>
      <trkpt lat="47.79606" lon="-3.52305">
        <ele>18</ele>
        <time>2019-07-15T09:44:55Z</time>
      </trkpt>
      <trkpt lat="47.79606" lon="-3.52302">
        <ele>18</ele>
        <time>2019-07-15T09:44:56Z</time>
      </trkpt>
      <trkpt lat="47.79606" lon="-3.52298">
        <ele>18</ele>
        <time>2019-07-15T09:44:57Z</time>
      </trkpt>
      <trkpt lat="47.79607" lon="-3.52295">
        <ele>18</ele>
        <time>2019-07-15T09:44:58Z</time>
      </trkpt>
      <trkpt lat="47.79607" lon="-3.52291">
        <ele>18</ele>
        <time>2019-07-15T09:44:59Z</time>
      </trkpt>
      <trkpt lat="47.79607" lon="-3.52288">
        <ele>18</ele>
        <time>2019-07-15T09:45:00Z</time>
      </trkpt>
      <trkpt lat="47.79607" lon="-3.52285">
        <ele>18</ele>
        <time>2019-07-15T09:45:01Z</time>
      </trkpt>
      <trkpt lat="47.79607" lon="-3.52281">
        <ele>18</ele>
        <time>2019-07-15T09:45:02Z</time>
      </trkpt>
      <trkpt lat="47.79607" lon="-3.52278">
        <ele>18</ele>
        <time>2019-07-15T09:45:03Z</time>
      </trkpt>
      <trkpt lat="47.79607" lon="-3.52275">
        <ele>18</ele>
        <time>2019-07-15T09:45:04Z</time>
      </trkpt>
      <trkpt lat="47.79607" lon="-3.52272">
        <ele>19</ele>
        <time>2019-07-15T09:45:05Z</time>
      </trkpt>
      <trkpt lat="47.79607" lon="-3.52269">
        <ele>19</ele>
        <time>2019-07-15T09:45:06Z</time>
      </trkpt>
      <trkpt lat="47.79607" lon="-3.52266">
        <ele>19</ele>
        <time>2019-07-15T09:45:07Z</time>
      </trkpt>
      <trkpt lat="47.79606" lon="-3.52263">
        <ele>19</ele>
        <time>2019-07-15T09:45:08Z</time>
      </trkpt>
      <trkpt lat="47.79606" lon="-3.52259">
        <ele>19</ele>
        <time>2019-07-15T09:45:09Z</time>
      </trkpt>
      <trkpt lat="47.79606" lon="-3.52255">
        <ele>19</ele>
        <time>2019-07-15T09:45:10Z</time>
      </trkpt>
      <trkpt lat="47.79605" lon="-3.52252">
        <ele>19</ele>
        <time>2019-07-15T09:45:11Z</time>
      </trkpt>
      <trkpt lat="47.79605" lon="-3.52249">
        <ele>19</ele>
        <time>2019-07-15T09:45:12Z</time>
      </trkpt>
      <trkpt lat="47.79604" lon="-3.52247">
        <ele>19</ele>
        <time>2019-07-15T09:45:13Z</time>
      </trkpt>
      <trkpt lat="47.79604" lon="-3.52245">
        <ele>20</ele>
        <time>2019-07-15T09:45:14Z</time>
      </trkpt>
      <trkpt lat="47.79604" lon="-3.52243">
        <ele>20</ele>
        <time>2019-07-15T09:45:15Z</time>
      </trkpt>
      <trkpt lat="47.79603" lon="-3.52239">
        <ele>20</ele>
        <time>2019-07-15T09:45:16Z</time>
      </trkpt>
      <trkpt lat="47.79603" lon="-3.52237">
        <ele>20</ele>
        <time>2019-07-15T09:45:17Z</time>
      </trkpt>
      <trkpt lat="47.79602" lon="-3.52233">
        <ele>20</ele>
        <time>2019-07-15T09:45:18Z</time>
      </trkpt>
      <trkpt lat="47.79601" lon="-3.5223">
        <ele>20</ele>
        <time>2019-07-15T09:45:19Z</time>
      </trkpt>
      <trkpt lat="47.79601" lon="-3.52227">
        <ele>20</ele>
        <time>2019-07-15T09:45:20Z</time>
      </trkpt>
      <trkpt lat="47.796" lon="-3.52223">
        <ele>20</ele>
        <time>2019-07-15T09:45:21Z</time>
      </trkpt>
      <trkpt lat="47.79599" lon="-3.5222">
        <ele>21</ele>
        <time>2019-07-15T09:45:22Z</time>
      </trkpt>
      <trkpt lat="47.79599" lon="-3.52218">
        <ele>21</ele>
        <time>2019-07-15T09:45:23Z</time>
      </trkpt>
      <trkpt lat="47.79598" lon="-3.52214">
        <ele>21</ele>
        <time>2019-07-15T09:45:24Z</time>
      </trkpt>
      <trkpt lat="47.79597" lon="-3.52211">
        <ele>21</ele>
        <time>2019-07-15T09:45:25Z</time>
      </trkpt>
      <trkpt lat="47.79597" lon="-3.52208">
        <ele>21</ele>
        <time>2019-07-15T09:45:26Z</time>
      </trkpt>
      <trkpt lat="47.79596" lon="-3.52204">
        <ele>21</ele>
        <time>2019-07-15T09:45:27Z</time>
      </trkpt>
      <trkpt lat="47.79596" lon="-3.52201">
        <ele>21</ele>
        <time>2019-07-15T09:45:28Z</time>
      </trkpt>
      <trkpt lat="47.79595" lon="-3.52197">
        <ele>21</ele>
        <time>2019-07-15T09:45:29Z</time>
      </trkpt>
      <trkpt lat="47.79595" lon="-3.52194">
        <ele>22</ele>
        <time>2019-07-15T09:45:30Z</time>
      </trkpt>
      <trkpt lat="47.79594" lon="-3.5219">
        <ele>22</ele>
        <time>2019-07-15T09:45:31Z</time>
      </trkpt>
      <trkpt lat="47.79594" lon="-3.52187">
        <ele>22</ele>
        <time>2019-07-15T09:45:32Z</time>
      </trkpt>
      <trkpt lat="47.79594" lon="-3.52184">
        <ele>22</ele>
        <time>2019-07-15T09:45:33Z</time>
      </trkpt>
      <trkpt lat="47.79593" lon="-3.52181">
        <ele>22</ele>
        <time>2019-07-15T09:45:34Z</time>
      </trkpt>
      <trkpt lat="47.79592" lon="-3.52177">
        <ele>23</ele>
        <time>2019-07-15T09:45:35Z</time>
      </trkpt>
      <trkpt lat="47.79591" lon="-3.52173">
        <ele>23</ele>
        <time>2019-07-15T09:45:36Z</time>
      </trkpt>
      <trkpt lat="47.79591" lon="-3.5217">
        <ele>23</ele>
        <time>2019-07-15T09:45:37Z</time>
      </trkpt>
      <trkpt lat="47.79591" lon="-3.52166">
        <ele>23</ele>
        <time>2019-07-15T09:45:38Z</time>
      </trkpt>
      <trkpt lat="47.7959" lon="-3.52163">
        <ele>23</ele>
        <time>2019-07-15T09:45:39Z</time>
      </trkpt>
      <trkpt lat="47.7959" lon="-3.52159">
        <ele>24</ele>
        <time>2019-07-15T09:45:40Z</time>
      </trkpt>
      <trkpt lat="47.7959" lon="-3.52156">
        <ele>24</ele>
        <time>2019-07-15T09:45:41Z</time>
      </trkpt>
      <trkpt lat="47.7959" lon="-3.52151">
        <ele>24</ele>
        <time>2019-07-15T09:45:42Z</time>
      </trkpt>
      <trkpt lat="47.79591" lon="-3.52148">
        <ele>24</ele>
        <time>2019-07-15T09:45:43Z</time>
      </trkpt>
      <trkpt lat="47.79591" lon="-3.52144">
        <ele>24</ele>
        <time>2019-07-15T09:45:44Z</time>
      </trkpt>
      <trkpt lat="47.79592" lon="-3.5214">
        <ele>25</ele>
        <time>2019-07-15T09:45:45Z</time>
      </trkpt>
      <trkpt lat="47.79592" lon="-3.52137">
        <ele>25</ele>
        <time>2019-07-15T09:45:46Z</time>
      </trkpt>
      <trkpt lat="47.79593" lon="-3.52134">
        <ele>25</ele>
        <time>2019-07-15T09:45:47Z</time>
      </trkpt>
      <trkpt lat="47.79594" lon="-3.52131">
        <ele>25</ele>
        <time>2019-07-15T09:45:48Z</time>
      </trkpt>
      <trkpt lat="47.79594" lon="-3.52127">
        <ele>26</ele>
        <time>2019-07-15T09:45:49Z</time>
      </trkpt>
      <trkpt lat="47.79595" lon="-3.52124">
        <ele>26</ele>
        <time>2019-07-15T09:45:50Z</time>
      </trkpt>
      <trkpt lat="47.79595" lon="-3.52121">
        <ele>26</ele>
        <time>2019-07-15T09:45:51Z</time>
      </trkpt>
      <trkpt lat="47.79596" lon="-3.52118">
        <ele>26</ele>
        <time>2019-07-15T09:45:52Z</time>
      </trkpt>
      <trkpt lat="47.79597" lon="-3.52115">
        <ele>27</ele>
        <time>2019-07-15T09:45:53Z</time>
      </trkpt>
      <trkpt lat="47.79597" lon="-3.52112">
        <ele>27</ele>
        <time>2019-07-15T09:45:54Z</time>
      </trkpt>
      <trkpt lat="47.79598" lon="-3.5211">
        <ele>27</ele>
        <time>2019-07-15T09:45:55Z</time>
      </trkpt>
      <trkpt lat="47.79599" lon="-3.52107">
        <ele>28</ele>
        <time>2019-07-15T09:45:56Z</time>
      </trkpt>
      <trkpt lat="47.79601" lon="-3.52103">
        <ele>28</ele>
        <time>2019-07-15T09:45:57Z</time>
      </trkpt>
      <trkpt lat="47.79602" lon="-3.521">
        <ele>28</ele>
        <time>2019-07-15T09:45:58Z</time>
      </trkpt>
      <trkpt lat="47.79603" lon="-3.52096">
        <ele>29</ele>
        <time>2019-07-15T09:45:59Z</time>
      </trkpt>
      <trkpt lat="47.79604" lon="-3.52092">
        <ele>29</ele>
        <time>2019-07-15T09:46:00Z</time>
      </trkpt>
      <trkpt lat="47.79605" lon="-3.52088">
        <ele>29</ele>
        <time>2019-07-15T09:46:01Z</time>
      </trkpt>
      <trkpt lat="47.79606" lon="-3.52083">
        <ele>30</ele>
        <time>2019-07-15T09:46:02Z</time>
      </trkpt>
      <trkpt lat="47.79606" lon="-3.52078">
        <ele>30</ele>
        <time>2019-07-15T09:46:03Z</time>
      </trkpt>
      <trkpt lat="47.79606" lon="-3.52074">
        <ele>30</ele>
        <time>2019-07-15T09:46:04Z</time>
      </trkpt>
      <trkpt lat="47.79607" lon="-3.52071">
        <ele>30</ele>
        <time>2019-07-15T09:46:05Z</time>
      </trkpt>
      <trkpt lat="47.79608" lon="-3.52067">
        <ele>31</ele>
        <time>2019-07-15T09:46:06Z</time>
      </trkpt>
      <trkpt lat="47.79608" lon="-3.52062">
        <ele>31</ele>
        <time>2019-07-15T09:46:07Z</time>
      </trkpt>
      <trkpt lat="47.79609" lon="-3.52059">
        <ele>31</ele>
        <time>2019-07-15T09:46:08Z</time>
      </trkpt>
      <trkpt lat="47.7961" lon="-3.52055">
        <ele>31</ele>
        <time>2019-07-15T09:46:09Z</time>
      </trkpt>
      <trkpt lat="47.79611" lon="-3.52051">
        <ele>32</ele>
        <time>2019-07-15T09:46:10Z</time>
      </trkpt>
      <trkpt lat="47.79612" lon="-3.52048">
        <ele>32</ele>
        <time>2019-07-15T09:46:11Z</time>
      </trkpt>
      <trkpt lat="47.79613" lon="-3.52046">
        <ele>32</ele>
        <time>2019-07-15T09:46:12Z</time>
      </trkpt>
      <trkpt lat="47.79614" lon="-3.52045">
        <ele>33</ele>
        <time>2019-07-15T09:46:13Z</time>
      </trkpt>
      <trkpt lat="47.79614" lon="-3.52044">
        <ele>33</ele>
        <time>2019-07-15T09:46:14Z</time>
      </trkpt>
      <trkpt lat="47.79615" lon="-3.52042">
        <ele>34</ele>
        <time>2019-07-15T09:46:15Z</time>
      </trkpt>
      <trkpt lat="47.79616" lon="-3.52041">
        <ele>34</ele>
        <time>2019-07-15T09:46:16Z</time>
      </trkpt>
      <trkpt lat="47.79617" lon="-3.52039">
        <ele>35</ele>
        <time>2019-07-15T09:46:17Z</time>
      </trkpt>
      <trkpt lat="47.79619" lon="-3.52037">
        <ele>35</ele>
        <time>2019-07-15T09:46:18Z</time>
      </trkpt>
      <trkpt lat="47.79621" lon="-3.52035">
        <ele>35</ele>
        <time>2019-07-15T09:46:19Z</time>
      </trkpt>
      <trkpt lat="47.79622" lon="-3.52033">
        <ele>36</ele>
        <time>2019-07-15T09:46:20Z</time>
      </trkpt>
      <trkpt lat="47.79624" lon="-3.52031">
        <ele>36</ele>
        <time>2019-07-15T09:46:21Z</time>
      </trkpt>
      <trkpt lat="47.79625" lon="-3.52029">
        <ele>36</ele>
        <time>2019-07-15T09:46:22Z</time>
      </trkpt>
      <trkpt lat="47.79627" lon="-3.52028">
        <ele>37</ele>
        <time>2019-07-15T09:46:23Z</time>
      </trkpt>
      <trkpt lat="47.79629" lon="-3.52026">
        <ele>37</ele>
        <time>2019-07-15T09:46:24Z</time>
      </trkpt>
      <trkpt lat="47.7963" lon="-3.52024">
        <ele>37</ele>
        <time>2019-07-15T09:46:25Z</time>
      </trkpt>
      <trkpt lat="47.79631" lon="-3.52022">
        <ele>38</ele>
        <time>2019-07-15T09:46:26Z</time>
      </trkpt>
      <trkpt lat="47.79633" lon="-3.5202">
        <ele>38</ele>
        <time>2019-07-15T09:46:27Z</time>
      </trkpt>
      <trkpt lat="47.79636" lon="-3.52018">
        <ele>38</ele>
        <time>2019-07-15T09:46:28Z</time>
      </trkpt>
      <trkpt lat="47.7964" lon="-3.52015">
        <ele>38</ele>
        <time>2019-07-15T09:46:29Z</time>
      </trkpt>
      <trkpt lat="47.79643" lon="-3.52013">
        <ele>39</ele>
        <time>2019-07-15T09:46:30Z</time>
      </trkpt>
      <trkpt lat="47.79646" lon="-3.5201">
        <ele>39</ele>
        <time>2019-07-15T09:46:31Z</time>
      </trkpt>
      <trkpt lat="47.79649" lon="-3.52007">
        <ele>39</ele>
        <time>2019-07-15T09:46:32Z</time>
      </trkpt>
      <trkpt lat="47.79651" lon="-3.52005">
        <ele>39</ele>
        <time>2019-07-15T09:46:33Z</time>
      </trkpt>
      <trkpt lat="47.79653" lon="-3.52002">
        <ele>39</ele>
        <time>2019-07-15T09:46:34Z</time>
      </trkpt>
      <trkpt lat="47.79655" lon="-3.51998">
        <ele>40</ele>
        <time>2019-07-15T09:46:35Z</time>
      </trkpt>
      <trkpt lat="47.79657" lon="-3.51994">
        <ele>40</ele>
        <time>2019-07-15T09:46:36Z</time>
      </trkpt>
      <trkpt lat="47.79658" lon="-3.51991">
        <ele>40</ele>
        <time>2019-07-15T09:46:37Z</time>
      </trkpt>
      <trkpt lat="47.7966" lon="-3.51987">
        <ele>40</ele>
        <time>2019-07-15T09:46:38Z</time>
      </trkpt>
      <trkpt lat="47.79662" lon="-3.51983">
        <ele>41</ele>
        <time>2019-07-15T09:46:39Z</time>
      </trkpt>
      <trkpt lat="47.79664" lon="-3.5198">
        <ele>41</ele>
        <time>2019-07-15T09:46:40Z</time>
      </trkpt>
      <trkpt lat="47.79666" lon="-3.51977">
        <ele>41</ele>
        <time>2019-07-15T09:46:41Z</time>
      </trkpt>
      <trkpt lat="47.79668" lon="-3.51974">
        <ele>41</ele>
        <time>2019-07-15T09:46:42Z</time>
      </trkpt>
      <trkpt lat="47.79671" lon="-3.51971">
        <ele>41</ele>
        <time>2019-07-15T09:46:43Z</time>
      </trkpt>
      <trkpt lat="47.79674" lon="-3.51968">
        <ele>42</ele>
        <time>2019-07-15T09:46:44Z</time>
      </trkpt>
      <trkpt lat="47.79677" lon="-3.51966">
        <ele>42</ele>
        <time>2019-07-15T09:46:45Z</time>
      </trkpt>
      <trkpt lat="47.79679" lon="-3.51963">
        <ele>42</ele>
        <time>2019-07-15T09:46:46Z</time>
      </trkpt>
      <trkpt lat="47.79682" lon="-3.5196">
        <ele>42</ele>
        <time>2019-07-15T09:46:47Z</time>
      </trkpt>
      <trkpt lat="47.79685" lon="-3.51957">
        <ele>42</ele>
        <time>2019-07-15T09:46:48Z</time>
      </trkpt>
      <trkpt lat="47.79688" lon="-3.51955">
        <ele>43</ele>
        <time>2019-07-15T09:46:49Z</time>
      </trkpt>
      <trkpt lat="47.79691" lon="-3.51954">
        <ele>43</ele>
        <time>2019-07-15T09:46:50Z</time>
      </trkpt>
      <trkpt lat="47.79693" lon="-3.51952">
        <ele>43</ele>
        <time>2019-07-15T09:46:51Z</time>
      </trkpt>
      <trkpt lat="47.79696" lon="-3.5195">
        <ele>43</ele>
        <time>2019-07-15T09:46:52Z</time>
      </trkpt>
      <trkpt lat="47.79699" lon="-3.51949">
        <ele>43</ele>
        <time>2019-07-15T09:46:53Z</time>
      </trkpt>
      <trkpt lat="47.79702" lon="-3.51946">
        <ele>43</ele>
        <time>2019-07-15T09:46:54Z</time>
      </trkpt>
      <trkpt lat="47.79706" lon="-3.51942">
        <ele>43</ele>
        <time>2019-07-15T09:46:55Z</time>
      </trkpt>
      <trkpt lat="47.79709" lon="-3.51938">
        <ele>43</ele>
        <time>2019-07-15T09:46:56Z</time>
      </trkpt>
      <trkpt lat="47.79713" lon="-3.51936">
        <ele>43</ele>
        <time>2019-07-15T09:46:57Z</time>
      </trkpt>
      <trkpt lat="47.79716" lon="-3.51933">
        <ele>43</ele>
        <time>2019-07-15T09:46:58Z</time>
      </trkpt>
      <trkpt lat="47.7972" lon="-3.51931">
        <ele>43</ele>
        <time>2019-07-15T09:46:59Z</time>
      </trkpt>
      <trkpt lat="47.79724" lon="-3.51929">
        <ele>43</ele>
        <time>2019-07-15T09:47:00Z</time>
      </trkpt>
      <trkpt lat="47.79728" lon="-3.51928">
        <ele>43</ele>
        <time>2019-07-15T09:47:01Z</time>
      </trkpt>
      <trkpt lat="47.79732" lon="-3.51926">
        <ele>43</ele>
        <time>2019-07-15T09:47:02Z</time>
      </trkpt>
      <trkpt lat="47.79737" lon="-3.51925">
        <ele>42</ele>
        <time>2019-07-15T09:47:03Z</time>
      </trkpt>
      <trkpt lat="47.79742" lon="-3.51923">
        <ele>42</ele>
        <time>2019-07-15T09:47:04Z</time>
      </trkpt>
      <trkpt lat="47.79748" lon="-3.51921">
        <ele>42</ele>
        <time>2019-07-15T09:47:05Z</time>
      </trkpt>
      <trkpt lat="47.79754" lon="-3.51919">
        <ele>42</ele>
        <time>2019-07-15T09:47:06Z</time>
      </trkpt>
      <trkpt lat="47.79759" lon="-3.51918">
        <ele>42</ele>
        <time>2019-07-15T09:47:07Z</time>
      </trkpt>
      <trkpt lat="47.79764" lon="-3.51916">
        <ele>42</ele>
        <time>2019-07-15T09:47:08Z</time>
      </trkpt>
      <trkpt lat="47.79769" lon="-3.51913">
        <ele>42</ele>
        <time>2019-07-15T09:47:09Z</time>
      </trkpt>
      <trkpt lat="47.79774" lon="-3.5191">
        <ele>42</ele>
        <time>2019-07-15T09:47:10Z</time>
      </trkpt>
      <trkpt lat="47.79778" lon="-3.51908">
        <ele>42</ele>
        <time>2019-07-15T09:47:11Z</time>
      </trkpt>
      <trkpt lat="47.79782" lon="-3.51905">
        <ele>42</ele>
        <time>2019-07-15T09:47:12Z</time>
      </trkpt>
      <trkpt lat="47.79787" lon="-3.51904">
        <ele>42</ele>
        <time>2019-07-15T09:47:13Z</time>
      </trkpt>
      <trkpt lat="47.79791" lon="-3.51901">
        <ele>42</ele>
        <time>2019-07-15T09:47:14Z</time>
      </trkpt>
      <trkpt lat="47.79795" lon="-3.51898">
        <ele>42</ele>
        <time>2019-07-15T09:47:15Z</time>
      </trkpt>
      <trkpt lat="47.79798" lon="-3.51896">
        <ele>42</ele>
        <time>2019-07-15T09:47:16Z</time>
      </trkpt>
      <trkpt lat="47.79802" lon="-3.51894">
        <ele>42</ele>
        <time>2019-07-15T09:47:17Z</time>
      </trkpt>
      <trkpt lat="47.79806" lon="-3.51891">
        <ele>42</ele>
        <time>2019-07-15T09:47:18Z</time>
      </trkpt>
      <trkpt lat="47.79809" lon="-3.51888">
        <ele>42</ele>
        <time>2019-07-15T09:47:19Z</time>
      </trkpt>
      <trkpt lat="47.79812" lon="-3.51885">
        <ele>42</ele>
        <time>2019-07-15T09:47:20Z</time>
      </trkpt>
      <trkpt lat="47.79814" lon="-3.51884">
        <ele>42</ele>
        <time>2019-07-15T09:47:21Z</time>
      </trkpt>
      <trkpt lat="47.79818" lon="-3.51881">
        <ele>42</ele>
        <time>2019-07-15T09:47:22Z</time>
      </trkpt>
      <trkpt lat="47.79822" lon="-3.51878">
        <ele>42</ele>
        <time>2019-07-15T09:47:23Z</time>
      </trkpt>
      <trkpt lat="47.79825" lon="-3.51874">
        <ele>42</ele>
        <time>2019-07-15T09:47:24Z</time>
      </trkpt>
      <trkpt lat="47.79829" lon="-3.51871">
        <ele>42</ele>
        <time>2019-07-15T09:47:25Z</time>
      </trkpt>
      <trkpt lat="47.79833" lon="-3.51867">
        <ele>42</ele>
        <time>2019-07-15T09:47:26Z</time>
      </trkpt>
      <trkpt lat="47.79836" lon="-3.51862">
        <ele>42</ele>
        <time>2019-07-15T09:47:27Z</time>
      </trkpt>
      <trkpt lat="47.79838" lon="-3.51859">
        <ele>42</ele>
        <time>2019-07-15T09:47:28Z</time>
      </trkpt>
      <trkpt lat="47.79842" lon="-3.51856">
        <ele>42</ele>
        <time>2019-07-15T09:47:29Z</time>
      </trkpt>
      <trkpt lat="47.79846" lon="-3.51852">
        <ele>42</ele>
        <time>2019-07-15T09:47:30Z</time>
      </trkpt>
      <trkpt lat="47.79849" lon="-3.51849">
        <ele>42</ele>
        <time>2019-07-15T09:47:31Z</time>
      </trkpt>
      <trkpt lat="47.79853" lon="-3.51846">
        <ele>42</ele>
        <time>2019-07-15T09:47:32Z</time>
      </trkpt>
      <trkpt lat="47.79857" lon="-3.51843">
        <ele>42</ele>
        <time>2019-07-15T09:47:33Z</time>
      </trkpt>
      <trkpt lat="47.7986" lon="-3.51841">
        <ele>43</ele>
        <time>2019-07-15T09:47:34Z</time>
      </trkpt>
      <trkpt lat="47.79864" lon="-3.51838">
        <ele>43</ele>
        <time>2019-07-15T09:47:35Z</time>
      </trkpt>
      <trkpt lat="47.79867" lon="-3.51836">
        <ele>43</ele>
        <time>2019-07-15T09:47:36Z</time>
      </trkpt>
      <trkpt lat="47.7987" lon="-3.51835">
        <ele>44</ele>
        <time>2019-07-15T09:47:37Z</time>
      </trkpt>
      <trkpt lat="47.79873" lon="-3.51833">
        <ele>44</ele>
        <time>2019-07-15T09:47:38Z</time>
      </trkpt>
      <trkpt lat="47.79876" lon="-3.5183">
        <ele>44</ele>
        <time>2019-07-15T09:47:39Z</time>
      </trkpt>
      <trkpt lat="47.7988" lon="-3.51828">
        <ele>45</ele>
        <time>2019-07-15T09:47:40Z</time>
      </trkpt>
      <trkpt lat="47.79883" lon="-3.51825">
        <ele>45</ele>
        <time>2019-07-15T09:47:41Z</time>
      </trkpt>
      <trkpt lat="47.79888" lon="-3.51822">
        <ele>45</ele>
        <time>2019-07-15T09:47:42Z</time>
      </trkpt>
      <trkpt lat="47.79893" lon="-3.51819">
        <ele>45</ele>
        <time>2019-07-15T09:47:43Z</time>
      </trkpt>
      <trkpt lat="47.79897" lon="-3.51818">
        <ele>45</ele>
        <time>2019-07-15T09:47:44Z</time>
      </trkpt>
      <trkpt lat="47.79902" lon="-3.51816">
        <ele>45</ele>
        <time>2019-07-15T09:47:45Z</time>
      </trkpt>
      <trkpt lat="47.79906" lon="-3.51815">
        <ele>45</ele>
        <time>2019-07-15T09:47:46Z</time>
      </trkpt>
      <trkpt lat="47.7991" lon="-3.51815">
        <ele>45</ele>
        <time>2019-07-15T09:47:47Z</time>
      </trkpt>
      <trkpt lat="47.79914" lon="-3.51814">
        <ele>45</ele>
        <time>2019-07-15T09:47:48Z</time>
      </trkpt>
      <trkpt lat="47.79918" lon="-3.51813">
        <ele>45</ele>
        <time>2019-07-15T09:47:49Z</time>
      </trkpt>
      <trkpt lat="47.79922" lon="-3.51811">
        <ele>45</ele>
        <time>2019-07-15T09:47:50Z</time>
      </trkpt>
      <trkpt lat="47.79927" lon="-3.51808">
        <ele>45</ele>
        <time>2019-07-15T09:47:51Z</time>
      </trkpt>
      <trkpt lat="47.79931" lon="-3.51807">
        <ele>45</ele>
        <time>2019-07-15T09:47:52Z</time>
      </trkpt>
      <trkpt lat="47.79936" lon="-3.51806">
        <ele>45</ele>
        <time>2019-07-15T09:47:53Z</time>
      </trkpt>
      <trkpt lat="47.79941" lon="-3.51805">
        <ele>44</ele>
        <time>2019-07-15T09:47:54Z</time>
      </trkpt>
      <trkpt lat="47.79945" lon="-3.51805">
        <ele>44</ele>
        <time>2019-07-15T09:47:55Z</time>
      </trkpt>
      <trkpt lat="47.7995" lon="-3.51804">
        <ele>44</ele>
        <time>2019-07-15T09:47:56Z</time>
      </trkpt>
      <trkpt lat="47.79955" lon="-3.51803">
        <ele>44</ele>
        <time>2019-07-15T09:47:57Z</time>
      </trkpt>
      <trkpt lat="47.79961" lon="-3.51805">
        <ele>44</ele>
        <time>2019-07-15T09:47:58Z</time>
      </trkpt>
      <trkpt lat="47.79967" lon="-3.51806">
        <ele>44</ele>
        <time>2019-07-15T09:47:59Z</time>
      </trkpt>
      <trkpt lat="47.79975" lon="-3.51809">
        <ele>44</ele>
        <time>2019-07-15T09:48:00Z</time>
      </trkpt>
      <trkpt lat="47.79984" lon="-3.51813">
        <ele>44</ele>
        <time>2019-07-15T09:48:01Z</time>
      </trkpt>
      <trkpt lat="47.79992" lon="-3.51818">
        <ele>43</ele>
        <time>2019-07-15T09:48:02Z</time>
      </trkpt>
      <trkpt lat="47.80001" lon="-3.51822">
        <ele>43</ele>
        <time>2019-07-15T09:48:03Z</time>
      </trkpt>
      <trkpt lat="47.8001" lon="-3.51825">
        <ele>43</ele>
        <time>2019-07-15T09:48:04Z</time>
      </trkpt>
      <trkpt lat="47.80017" lon="-3.51827">
        <ele>42</ele>
        <time>2019-07-15T09:48:05Z</time>
      </trkpt>
      <trkpt lat="47.80024" lon="-3.51828">
        <ele>42</ele>
        <time>2019-07-15T09:48:06Z</time>
      </trkpt>
      <trkpt lat="47.80029" lon="-3.51828">
        <ele>41</ele>
        <time>2019-07-15T09:48:07Z</time>
      </trkpt>
      <trkpt lat="47.80035" lon="-3.51826">
        <ele>41</ele>
        <time>2019-07-15T09:48:08Z</time>
      </trkpt>
      <trkpt lat="47.8004" lon="-3.51825">
        <ele>41</ele>
        <time>2019-07-15T09:48:09Z</time>
      </trkpt>
      <trkpt lat="47.80045" lon="-3.51823">
        <ele>40</ele>
        <time>2019-07-15T09:48:10Z</time>
      </trkpt>
      <trkpt lat="47.80052" lon="-3.5182">
        <ele>40</ele>
        <time>2019-07-15T09:48:11Z</time>
      </trkpt>
      <trkpt lat="47.80059" lon="-3.51817">
        <ele>40</ele>
        <time>2019-07-15T09:48:12Z</time>
      </trkpt>
      <trkpt lat="47.80065" lon="-3.51813">
        <ele>40</ele>
        <time>2019-07-15T09:48:13Z</time>
      </trkpt>
      <trkpt lat="47.80071" lon="-3.51809">
        <ele>40</ele>
        <time>2019-07-15T09:48:14Z</time>
      </trkpt>
      <trkpt lat="47.80078" lon="-3.51803">
        <ele>40</ele>
        <time>2019-07-15T09:48:15Z</time>
      </trkpt>
      <trkpt lat="47.80084" lon="-3.51797">
        <ele>40</ele>
        <time>2019-07-15T09:48:16Z</time>
      </trkpt>
      <trkpt lat="47.80089" lon="-3.51792">
        <ele>40</ele>
        <time>2019-07-15T09:48:17Z</time>
      </trkpt>
      <trkpt lat="47.80093" lon="-3.51787">
        <ele>40</ele>
        <time>2019-07-15T09:48:18Z</time>
      </trkpt>
      <trkpt lat="47.80096" lon="-3.51783">
        <ele>39</ele>
        <time>2019-07-15T09:48:19Z</time>
      </trkpt>
      <trkpt lat="47.80098" lon="-3.51781">
        <ele>39</ele>
        <time>2019-07-15T09:48:20Z</time>
      </trkpt>
      <trkpt lat="47.80099" lon="-3.51779">
        <ele>39</ele>
        <time>2019-07-15T09:48:21Z</time>
      </trkpt>
      <trkpt lat="47.801" lon="-3.51778">
        <ele>40</ele>
        <time>2019-07-15T09:48:22Z</time>
      </trkpt>
      <trkpt lat="47.80102" lon="-3.51777">
        <ele>40</ele>
        <time>2019-07-15T09:48:23Z</time>
      </trkpt>
      <trkpt lat="47.80103" lon="-3.51776">
        <ele>39</ele>
        <time>2019-07-15T09:48:24Z</time>
      </trkpt>
      <trkpt lat="47.80104" lon="-3.51775">
        <ele>39</ele>
        <time>2019-07-15T09:48:25Z</time>
      </trkpt>
      <trkpt lat="47.80106" lon="-3.51774">
        <ele>39</ele>
        <time>2019-07-15T09:48:26Z</time>
      </trkpt>
      <trkpt lat="47.80106" lon="-3.51773">
        <ele>39</ele>
        <time>2019-07-15T09:48:27Z</time>
      </trkpt>
      <trkpt lat="47.80106" lon="-3.51773">
        <ele>39</ele>
        <time>2019-07-15T09:48:28Z</time>
      </trkpt>
      <trkpt lat="47.80107" lon="-3.51773">
        <ele>39</ele>
        <time>2019-07-15T09:48:29Z</time>
      </trkpt>
      <trkpt lat="47.80118" lon="-3.51762">
        <ele>38</ele>
        <time>2019-07-15T09:48:30Z</time>
      </trkpt>
      <trkpt lat="47.80118" lon="-3.51761">
        <ele>38</ele>
        <time>2019-07-15T09:48:31Z</time>
      </trkpt>
      <trkpt lat="47.80119" lon="-3.51759">
        <ele>38</ele>
        <time>2019-07-15T09:48:32Z</time>
      </trkpt>
      <trkpt lat="47.8012" lon="-3.51756">
        <ele>38</ele>
        <time>2019-07-15T09:48:33Z</time>
      </trkpt>
      <trkpt lat="47.80121" lon="-3.51754">
        <ele>38</ele>
        <time>2019-07-15T09:48:34Z</time>
      </trkpt>
      <trkpt lat="47.80122" lon="-3.51751">
        <ele>38</ele>
        <time>2019-07-15T09:48:35Z</time>
      </trkpt>
      <trkpt lat="47.80123" lon="-3.51749">
        <ele>38</ele>
        <time>2019-07-15T09:48:36Z</time>
      </trkpt>
      <trkpt lat="47.80124" lon="-3.51746">
        <ele>38</ele>
        <time>2019-07-15T09:48:37Z</time>
      </trkpt>
      <trkpt lat="47.80125" lon="-3.51744">
        <ele>38</ele>
        <time>2019-07-15T09:48:38Z</time>
      </trkpt>
      <trkpt lat="47.80125" lon="-3.51741">
        <ele>38</ele>
        <time>2019-07-15T09:48:39Z</time>
      </trkpt>
      <trkpt lat="47.80126" lon="-3.51737">
        <ele>37</ele>
        <time>2019-07-15T09:48:40Z</time>
      </trkpt>
      <trkpt lat="47.80128" lon="-3.51733">
        <ele>37</ele>
        <time>2019-07-15T09:48:41Z</time>
      </trkpt>
      <trkpt lat="47.80129" lon="-3.51728">
        <ele>37</ele>
        <time>2019-07-15T09:48:42Z</time>
      </trkpt>
      <trkpt lat="47.80129" lon="-3.51722">
        <ele>37</ele>
        <time>2019-07-15T09:48:43Z</time>
      </trkpt>
      <trkpt lat="47.8013" lon="-3.51716">
        <ele>37</ele>
        <time>2019-07-15T09:48:44Z</time>
      </trkpt>
      <trkpt lat="47.80132" lon="-3.51709">
        <ele>37</ele>
        <time>2019-07-15T09:48:45Z</time>
      </trkpt>
      <trkpt lat="47.80133" lon="-3.51703">
        <ele>37</ele>
        <time>2019-07-15T09:48:46Z</time>
      </trkpt>
      <trkpt lat="47.80133" lon="-3.51696">
        <ele>37</ele>
        <time>2019-07-15T09:48:47Z</time>
      </trkpt>
      <trkpt lat="47.80134" lon="-3.51691">
        <ele>37</ele>
        <time>2019-07-15T09:48:48Z</time>
      </trkpt>
      <trkpt lat="47.80136" lon="-3.51687">
        <ele>37</ele>
        <time>2019-07-15T09:48:49Z</time>
      </trkpt>
      <trkpt lat="47.80139" lon="-3.51685">
        <ele>37</ele>
        <time>2019-07-15T09:48:50Z</time>
      </trkpt>
      <trkpt lat="47.80142" lon="-3.51685">
        <ele>36</ele>
        <time>2019-07-15T09:48:51Z</time>
      </trkpt>
      <trkpt lat="47.80145" lon="-3.51686">
        <ele>36</ele>
        <time>2019-07-15T09:48:52Z</time>
      </trkpt>
      <trkpt lat="47.80151" lon="-3.51688">
        <ele>36</ele>
        <time>2019-07-15T09:48:53Z</time>
      </trkpt>
      <trkpt lat="47.80155" lon="-3.51691">
        <ele>36</ele>
        <time>2019-07-15T09:48:54Z</time>
      </trkpt>
      <trkpt lat="47.80161" lon="-3.51694">
        <ele>35</ele>
        <time>2019-07-15T09:48:55Z</time>
      </trkpt>
      <trkpt lat="47.80166" lon="-3.51697">
        <ele>35</ele>
        <time>2019-07-15T09:48:56Z</time>
      </trkpt>
      <trkpt lat="47.80171" lon="-3.517">
        <ele>35</ele>
        <time>2019-07-15T09:48:57Z</time>
      </trkpt>
      <trkpt lat="47.80175" lon="-3.51702">
        <ele>35</ele>
        <time>2019-07-15T09:48:58Z</time>
      </trkpt>
      <trkpt lat="47.80179" lon="-3.51704">
        <ele>35</ele>
        <time>2019-07-15T09:48:59Z</time>
      </trkpt>
      <trkpt lat="47.80184" lon="-3.51706">
        <ele>35</ele>
        <time>2019-07-15T09:49:00Z</time>
      </trkpt>
      <trkpt lat="47.80188" lon="-3.51707">
        <ele>34</ele>
        <time>2019-07-15T09:49:01Z</time>
      </trkpt>
      <trkpt lat="47.80192" lon="-3.51707">
        <ele>34</ele>
        <time>2019-07-15T09:49:02Z</time>
      </trkpt>
      <trkpt lat="47.80196" lon="-3.51705">
        <ele>34</ele>
        <time>2019-07-15T09:49:03Z</time>
      </trkpt>
      <trkpt lat="47.80199" lon="-3.51704">
        <ele>34</ele>
        <time>2019-07-15T09:49:04Z</time>
      </trkpt>
      <trkpt lat="47.80202" lon="-3.51704">
        <ele>34</ele>
        <time>2019-07-15T09:49:05Z</time>
      </trkpt>
      <trkpt lat="47.80206" lon="-3.51702">
        <ele>34</ele>
        <time>2019-07-15T09:49:06Z</time>
      </trkpt>
      <trkpt lat="47.80209" lon="-3.51701">
        <ele>34</ele>
        <time>2019-07-15T09:49:07Z</time>
      </trkpt>
      <trkpt lat="47.80212" lon="-3.51701">
        <ele>34</ele>
        <time>2019-07-15T09:49:08Z</time>
      </trkpt>
      <trkpt lat="47.80215" lon="-3.51701">
        <ele>34</ele>
        <time>2019-07-15T09:49:09Z</time>
      </trkpt>
      <trkpt lat="47.80218" lon="-3.517">
        <ele>35</ele>
        <time>2019-07-15T09:49:10Z</time>
      </trkpt>
      <trkpt lat="47.8022" lon="-3.517">
        <ele>35</ele>
        <time>2019-07-15T09:49:11Z</time>
      </trkpt>
      <trkpt lat="47.80223" lon="-3.517">
        <ele>35</ele>
        <time>2019-07-15T09:49:12Z</time>
      </trkpt>
      <trkpt lat="47.80227" lon="-3.51699">
        <ele>35</ele>
        <time>2019-07-15T09:49:13Z</time>
      </trkpt>
      <trkpt lat="47.8023" lon="-3.51699">
        <ele>35</ele>
        <time>2019-07-15T09:49:14Z</time>
      </trkpt>
      <trkpt lat="47.80233" lon="-3.51699">
        <ele>35</ele>
        <time>2019-07-15T09:49:15Z</time>
      </trkpt>
      <trkpt lat="47.80235" lon="-3.51699">
        <ele>35</ele>
        <time>2019-07-15T09:49:16Z</time>
      </trkpt>
      <trkpt lat="47.80239" lon="-3.51699">
        <ele>35</ele>
        <time>2019-07-15T09:49:17Z</time>
      </trkpt>
      <trkpt lat="47.80243" lon="-3.51699">
        <ele>35</ele>
        <time>2019-07-15T09:49:18Z</time>
      </trkpt>
      <trkpt lat="47.80246" lon="-3.51699">
        <ele>35</ele>
        <time>2019-07-15T09:49:19Z</time>
      </trkpt>
      <trkpt lat="47.80249" lon="-3.517">
        <ele>35</ele>
        <time>2019-07-15T09:49:20Z</time>
      </trkpt>
      <trkpt lat="47.80251" lon="-3.517">
        <ele>35</ele>
        <time>2019-07-15T09:49:21Z</time>
      </trkpt>
      <trkpt lat="47.80254" lon="-3.51702">
        <ele>35</ele>
        <time>2019-07-15T09:49:22Z</time>
      </trkpt>
      <trkpt lat="47.80258" lon="-3.51703">
        <ele>35</ele>
        <time>2019-07-15T09:49:23Z</time>
      </trkpt>
      <trkpt lat="47.80261" lon="-3.51704">
        <ele>35</ele>
        <time>2019-07-15T09:49:24Z</time>
      </trkpt>
      <trkpt lat="47.80265" lon="-3.51705">
        <ele>35</ele>
        <time>2019-07-15T09:49:25Z</time>
      </trkpt>
      <trkpt lat="47.80269" lon="-3.51706">
        <ele>35</ele>
        <time>2019-07-15T09:49:26Z</time>
      </trkpt>
      <trkpt lat="47.80273" lon="-3.51707">
        <ele>35</ele>
        <time>2019-07-15T09:49:27Z</time>
      </trkpt>
      <trkpt lat="47.80276" lon="-3.51708">
        <ele>36</ele>
        <time>2019-07-15T09:49:28Z</time>
      </trkpt>
      <trkpt lat="47.8028" lon="-3.51709">
        <ele>36</ele>
        <time>2019-07-15T09:49:29Z</time>
      </trkpt>
      <trkpt lat="47.80283" lon="-3.51709">
        <ele>36</ele>
        <time>2019-07-15T09:49:30Z</time>
      </trkpt>
      <trkpt lat="47.80287" lon="-3.51709">
        <ele>36</ele>
        <time>2019-07-15T09:49:31Z</time>
      </trkpt>
      <trkpt lat="47.80291" lon="-3.5171">
        <ele>36</ele>
        <time>2019-07-15T09:49:32Z</time>
      </trkpt>
      <trkpt lat="47.80295" lon="-3.51712">
        <ele>36</ele>
        <time>2019-07-15T09:49:33Z</time>
      </trkpt>
      <trkpt lat="47.80299" lon="-3.51712">
        <ele>36</ele>
        <time>2019-07-15T09:49:34Z</time>
      </trkpt>
      <trkpt lat="47.80303" lon="-3.51713">
        <ele>36</ele>
        <time>2019-07-15T09:49:35Z</time>
      </trkpt>
      <trkpt lat="47.80307" lon="-3.51713">
        <ele>36</ele>
        <time>2019-07-15T09:49:36Z</time>
      </trkpt>
      <trkpt lat="47.80311" lon="-3.51714">
        <ele>36</ele>
        <time>2019-07-15T09:49:37Z</time>
      </trkpt>
      <trkpt lat="47.80315" lon="-3.51716">
        <ele>37</ele>
        <time>2019-07-15T09:49:38Z</time>
      </trkpt>
      <trkpt lat="47.80319" lon="-3.51717">
        <ele>37</ele>
        <time>2019-07-15T09:49:39Z</time>
      </trkpt>
      <trkpt lat="47.80322" lon="-3.51717">
        <ele>37</ele>
        <time>2019-07-15T09:49:40Z</time>
      </trkpt>
      <trkpt lat="47.80326" lon="-3.51718">
        <ele>37</ele>
        <time>2019-07-15T09:49:41Z</time>
      </trkpt>
      <trkpt lat="47.80328" lon="-3.51718">
        <ele>37</ele>
        <time>2019-07-15T09:49:42Z</time>
      </trkpt>
      <trkpt lat="47.80331" lon="-3.51718">
        <ele>37</ele>
        <time>2019-07-15T09:49:43Z</time>
      </trkpt>
      <trkpt lat="47.80334" lon="-3.51718">
        <ele>37</ele>
        <time>2019-07-15T09:49:44Z</time>
      </trkpt>
      <trkpt lat="47.80337" lon="-3.51717">
        <ele>37</ele>
        <time>2019-07-15T09:49:45Z</time>
      </trkpt>
      <trkpt lat="47.8034" lon="-3.51716">
        <ele>38</ele>
        <time>2019-07-15T09:49:46Z</time>
      </trkpt>
      <trkpt lat="47.80342" lon="-3.51715">
        <ele>38</ele>
        <time>2019-07-15T09:49:47Z</time>
      </trkpt>
      <trkpt lat="47.80344" lon="-3.51714">
        <ele>38</ele>
        <time>2019-07-15T09:49:48Z</time>
      </trkpt>
      <trkpt lat="47.80347" lon="-3.51712">
        <ele>38</ele>
        <time>2019-07-15T09:49:49Z</time>
      </trkpt>
      <trkpt lat="47.80351" lon="-3.51709">
        <ele>38</ele>
        <time>2019-07-15T09:49:50Z</time>
      </trkpt>
      <trkpt lat="47.80355" lon="-3.51707">
        <ele>38</ele>
        <time>2019-07-15T09:49:51Z</time>
      </trkpt>
      <trkpt lat="47.80358" lon="-3.51706">
        <ele>39</ele>
        <time>2019-07-15T09:49:52Z</time>
      </trkpt>
      <trkpt lat="47.80362" lon="-3.51706">
        <ele>39</ele>
        <time>2019-07-15T09:49:53Z</time>
      </trkpt>
      <trkpt lat="47.80365" lon="-3.51706">
        <ele>39</ele>
        <time>2019-07-15T09:49:54Z</time>
      </trkpt>
      <trkpt lat="47.80367" lon="-3.51706">
        <ele>39</ele>
        <time>2019-07-15T09:49:55Z</time>
      </trkpt>
      <trkpt lat="47.80369" lon="-3.51706">
        <ele>39</ele>
        <time>2019-07-15T09:49:56Z</time>
      </trkpt>
      <trkpt lat="47.80371" lon="-3.51706">
        <ele>39</ele>
        <time>2019-07-15T09:49:57Z</time>
      </trkpt>
      <trkpt lat="47.80372" lon="-3.51706">
        <ele>40</ele>
        <time>2019-07-15T09:49:58Z</time>
      </trkpt>
      <trkpt lat="47.80373" lon="-3.51705">
        <ele>40</ele>
        <time>2019-07-15T09:49:59Z</time>
      </trkpt>
      <trkpt lat="47.80374" lon="-3.51705">
        <ele>40</ele>
        <time>2019-07-15T09:50:00Z</time>
      </trkpt>
      <trkpt lat="47.80375" lon="-3.51704">
        <ele>40</ele>
        <time>2019-07-15T09:50:01Z</time>
      </trkpt>
      <trkpt lat="47.80375" lon="-3.51704">
        <ele>40</ele>
        <time>2019-07-15T09:50:02Z</time>
      </trkpt>
      <trkpt lat="47.80382" lon="-3.51704">
        <ele>41</ele>
        <time>2019-07-15T09:50:03Z</time>
      </trkpt>
      <trkpt lat="47.80384" lon="-3.51707">
        <ele>41</ele>
        <time>2019-07-15T09:50:04Z</time>
      </trkpt>
      <trkpt lat="47.80384" lon="-3.51709">
        <ele>41</ele>
        <time>2019-07-15T09:50:05Z</time>
      </trkpt>
      <trkpt lat="47.80385" lon="-3.51712">
        <ele>41</ele>
        <time>2019-07-15T09:50:06Z</time>
      </trkpt>
      <trkpt lat="47.80385" lon="-3.51714">
        <ele>41</ele>
        <time>2019-07-15T09:50:07Z</time>
      </trkpt>
      <trkpt lat="47.80386" lon="-3.51717">
        <ele>41</ele>
        <time>2019-07-15T09:50:08Z</time>
      </trkpt>
      <trkpt lat="47.80388" lon="-3.5172">
        <ele>41</ele>
        <time>2019-07-15T09:50:09Z</time>
      </trkpt>
      <trkpt lat="47.80389" lon="-3.51724">
        <ele>41</ele>
        <time>2019-07-15T09:50:10Z</time>
      </trkpt>
      <trkpt lat="47.80391" lon="-3.51726">
        <ele>41</ele>
        <time>2019-07-15T09:50:11Z</time>
      </trkpt>
      <trkpt lat="47.80393" lon="-3.51727">
        <ele>41</ele>
        <time>2019-07-15T09:50:12Z</time>
      </trkpt>
      <trkpt lat="47.80394" lon="-3.51729">
        <ele>42</ele>
        <time>2019-07-15T09:50:13Z</time>
      </trkpt>
      <trkpt lat="47.80395" lon="-3.51731">
        <ele>42</ele>
        <time>2019-07-15T09:50:14Z</time>
      </trkpt>
      <trkpt lat="47.80395" lon="-3.51733">
        <ele>42</ele>
        <time>2019-07-15T09:50:15Z</time>
      </trkpt>
      <trkpt lat="47.80396" lon="-3.51737">
        <ele>42</ele>
        <time>2019-07-15T09:50:16Z</time>
      </trkpt>
      <trkpt lat="47.80396" lon="-3.51741">
        <ele>42</ele>
        <time>2019-07-15T09:50:17Z</time>
      </trkpt>
      <trkpt lat="47.80396" lon="-3.51745">
        <ele>42</ele>
        <time>2019-07-15T09:50:18Z</time>
      </trkpt>
      <trkpt lat="47.80395" lon="-3.5175">
        <ele>42</ele>
        <time>2019-07-15T09:50:19Z</time>
      </trkpt>
      <trkpt lat="47.80396" lon="-3.51754">
        <ele>42</ele>
        <time>2019-07-15T09:50:20Z</time>
      </trkpt>
      <trkpt lat="47.80396" lon="-3.51757">
        <ele>42</ele>
        <time>2019-07-15T09:50:21Z</time>
      </trkpt>
      <trkpt lat="47.80396" lon="-3.5176">
        <ele>43</ele>
        <time>2019-07-15T09:50:22Z</time>
      </trkpt>
      <trkpt lat="47.80396" lon="-3.51765">
        <ele>43</ele>
        <time>2019-07-15T09:50:23Z</time>
      </trkpt>
      <trkpt lat="47.80397" lon="-3.5177">
        <ele>43</ele>
        <time>2019-07-15T09:50:24Z</time>
      </trkpt>
      <trkpt lat="47.80398" lon="-3.51774">
        <ele>43</ele>
        <time>2019-07-15T09:50:25Z</time>
      </trkpt>
      <trkpt lat="47.80399" lon="-3.51778">
        <ele>43</ele>
        <time>2019-07-15T09:50:26Z</time>
      </trkpt>
      <trkpt lat="47.80402" lon="-3.5178">
        <ele>43</ele>
        <time>2019-07-15T09:50:27Z</time>
      </trkpt>
      <trkpt lat="47.80403" lon="-3.51783">
        <ele>43</ele>
        <time>2019-07-15T09:50:28Z</time>
      </trkpt>
      <trkpt lat="47.80405" lon="-3.51786">
        <ele>42</ele>
        <time>2019-07-15T09:50:29Z</time>
      </trkpt>
      <trkpt lat="47.80407" lon="-3.5179">
        <ele>42</ele>
        <time>2019-07-15T09:50:30Z</time>
      </trkpt>
      <trkpt lat="47.80408" lon="-3.51795">
        <ele>42</ele>
        <time>2019-07-15T09:50:31Z</time>
      </trkpt>
      <trkpt lat="47.80411" lon="-3.51799">
        <ele>42</ele>
        <time>2019-07-15T09:50:32Z</time>
      </trkpt>
      <trkpt lat="47.80414" lon="-3.51804">
        <ele>42</ele>
        <time>2019-07-15T09:50:33Z</time>
      </trkpt>
      <trkpt lat="47.80417" lon="-3.51807">
        <ele>41</ele>
        <time>2019-07-15T09:50:34Z</time>
      </trkpt>
      <trkpt lat="47.80419" lon="-3.51809">
        <ele>41</ele>
        <time>2019-07-15T09:50:35Z</time>
      </trkpt>
      <trkpt lat="47.80422" lon="-3.51808">
        <ele>41</ele>
        <time>2019-07-15T09:50:36Z</time>
      </trkpt>
      <trkpt lat="47.80425" lon="-3.51806">
        <ele>40</ele>
        <time>2019-07-15T09:50:37Z</time>
      </trkpt>
      <trkpt lat="47.80426" lon="-3.51804">
        <ele>40</ele>
        <time>2019-07-15T09:50:38Z</time>
      </trkpt>
      <trkpt lat="47.80427" lon="-3.51802">
        <ele>40</ele>
        <time>2019-07-15T09:50:39Z</time>
      </trkpt>
      <trkpt lat="47.80428" lon="-3.51801">
        <ele>39</ele>
        <time>2019-07-15T09:50:40Z</time>
      </trkpt>
      <trkpt lat="47.8043" lon="-3.51799">
        <ele>39</ele>
        <time>2019-07-15T09:50:41Z</time>
      </trkpt>
      <trkpt lat="47.80432" lon="-3.51798">
        <ele>39</ele>
        <time>2019-07-15T09:50:42Z</time>
      </trkpt>
      <trkpt lat="47.80435" lon="-3.51796">
        <ele>39</ele>
        <time>2019-07-15T09:50:43Z</time>
      </trkpt>
      <trkpt lat="47.80438" lon="-3.51793">
        <ele>39</ele>
        <time>2019-07-15T09:50:44Z</time>
      </trkpt>
      <trkpt lat="47.80441" lon="-3.51789">
        <ele>38</ele>
        <time>2019-07-15T09:50:45Z</time>
      </trkpt>
      <trkpt lat="47.80444" lon="-3.51784">
        <ele>38</ele>
        <time>2019-07-15T09:50:46Z</time>
      </trkpt>
      <trkpt lat="47.80446" lon="-3.51782">
        <ele>38</ele>
        <time>2019-07-15T09:50:47Z</time>
      </trkpt>
      <trkpt lat="47.80448" lon="-3.51781">
        <ele>38</ele>
        <time>2019-07-15T09:50:48Z</time>
      </trkpt>
      <trkpt lat="47.8045" lon="-3.51781">
        <ele>37</ele>
        <time>2019-07-15T09:50:49Z</time>
      </trkpt>
      <trkpt lat="47.80451" lon="-3.51782">
        <ele>37</ele>
        <time>2019-07-15T09:50:50Z</time>
      </trkpt>
      <trkpt lat="47.80452" lon="-3.51784">
        <ele>36</ele>
        <time>2019-07-15T09:50:51Z</time>
      </trkpt>
      <trkpt lat="47.80454" lon="-3.51786">
        <ele>36</ele>
        <time>2019-07-15T09:50:52Z</time>
      </trkpt>
      <trkpt lat="47.80455" lon="-3.51788">
        <ele>35</ele>
        <time>2019-07-15T09:50:53Z</time>
      </trkpt>
      <trkpt lat="47.80455" lon="-3.51791">
        <ele>35</ele>
        <time>2019-07-15T09:50:54Z</time>
      </trkpt>
      <trkpt lat="47.80456" lon="-3.51793">
        <ele>35</ele>
        <time>2019-07-15T09:50:55Z</time>
      </trkpt>
      <trkpt lat="47.80457" lon="-3.51795">
        <ele>34</ele>
        <time>2019-07-15T09:50:56Z</time>
      </trkpt>
      <trkpt lat="47.80457" lon="-3.51796">
        <ele>34</ele>
        <time>2019-07-15T09:50:57Z</time>
      </trkpt>
      <trkpt lat="47.80458" lon="-3.51796">
        <ele>33</ele>
        <time>2019-07-15T09:50:58Z</time>
      </trkpt>
      <trkpt lat="47.80459" lon="-3.51795">
        <ele>33</ele>
        <time>2019-07-15T09:50:59Z</time>
      </trkpt>
      <trkpt lat="47.8046" lon="-3.51792">
        <ele>32</ele>
        <time>2019-07-15T09:51:00Z</time>
      </trkpt>
      <trkpt lat="47.80461" lon="-3.5179">
        <ele>32</ele>
        <time>2019-07-15T09:51:01Z</time>
      </trkpt>
      <trkpt lat="47.80463" lon="-3.51788">
        <ele>31</ele>
        <time>2019-07-15T09:51:02Z</time>
      </trkpt>
      <trkpt lat="47.80465" lon="-3.51786">
        <ele>31</ele>
        <time>2019-07-15T09:51:03Z</time>
      </trkpt>
      <trkpt lat="47.80467" lon="-3.51783">
        <ele>31</ele>
        <time>2019-07-15T09:51:04Z</time>
      </trkpt>
      <trkpt lat="47.80469" lon="-3.51777">
        <ele>30</ele>
        <time>2019-07-15T09:51:05Z</time>
      </trkpt>
      <trkpt lat="47.8047" lon="-3.51772">
        <ele>30</ele>
        <time>2019-07-15T09:51:06Z</time>
      </trkpt>
      <trkpt lat="47.8047" lon="-3.51767">
        <ele>29</ele>
        <time>2019-07-15T09:51:07Z</time>
      </trkpt>
      <trkpt lat="47.80471" lon="-3.51763">
        <ele>29</ele>
        <time>2019-07-15T09:51:08Z</time>
      </trkpt>
      <trkpt lat="47.80471" lon="-3.51759">
        <ele>29</ele>
        <time>2019-07-15T09:51:09Z</time>
      </trkpt>
      <trkpt lat="47.80471" lon="-3.51755">
        <ele>29</ele>
        <time>2019-07-15T09:51:10Z</time>
      </trkpt>
      <trkpt lat="47.80471" lon="-3.51752">
        <ele>28</ele>
        <time>2019-07-15T09:51:11Z</time>
      </trkpt>
      <trkpt lat="47.80472" lon="-3.51748">
        <ele>28</ele>
        <time>2019-07-15T09:51:12Z</time>
      </trkpt>
      <trkpt lat="47.80473" lon="-3.51745">
        <ele>28</ele>
        <time>2019-07-15T09:51:13Z</time>
      </trkpt>
      <trkpt lat="47.80473" lon="-3.51742">
        <ele>28</ele>
        <time>2019-07-15T09:51:14Z</time>
      </trkpt>
      <trkpt lat="47.80474" lon="-3.51738">
        <ele>27</ele>
        <time>2019-07-15T09:51:15Z</time>
      </trkpt>
      <trkpt lat="47.80475" lon="-3.51735">
        <ele>27</ele>
        <time>2019-07-15T09:51:16Z</time>
      </trkpt>
      <trkpt lat="47.80475" lon="-3.51732">
        <ele>27</ele>
        <time>2019-07-15T09:51:17Z</time>
      </trkpt>
      <trkpt lat="47.80476" lon="-3.51729">
        <ele>27</ele>
        <time>2019-07-15T09:51:18Z</time>
      </trkpt>
      <trkpt lat="47.80477" lon="-3.51724">
        <ele>26</ele>
        <time>2019-07-15T09:51:19Z</time>
      </trkpt>
      <trkpt lat="47.80477" lon="-3.5172">
        <ele>26</ele>
        <time>2019-07-15T09:51:20Z</time>
      </trkpt>
      <trkpt lat="47.80478" lon="-3.51716">
        <ele>26</ele>
        <time>2019-07-15T09:51:21Z</time>
      </trkpt>
      <trkpt lat="47.80478" lon="-3.51713">
        <ele>25</ele>
        <time>2019-07-15T09:51:22Z</time>
      </trkpt>
      <trkpt lat="47.80477" lon="-3.51709">
        <ele>25</ele>
        <time>2019-07-15T09:51:23Z</time>
      </trkpt>
      <trkpt lat="47.80477" lon="-3.51706">
        <ele>25</ele>
        <time>2019-07-15T09:51:24Z</time>
      </trkpt>
      <trkpt lat="47.80477" lon="-3.51702">
        <ele>25</ele>
        <time>2019-07-15T09:51:25Z</time>
      </trkpt>
      <trkpt lat="47.80478" lon="-3.51699">
        <ele>25</ele>
        <time>2019-07-15T09:51:26Z</time>
      </trkpt>
      <trkpt lat="47.80478" lon="-3.51696">
        <ele>25</ele>
        <time>2019-07-15T09:51:27Z</time>
      </trkpt>
      <trkpt lat="47.80479" lon="-3.51693">
        <ele>24</ele>
        <time>2019-07-15T09:51:28Z</time>
      </trkpt>
      <trkpt lat="47.80479" lon="-3.51689">
        <ele>24</ele>
        <time>2019-07-15T09:51:29Z</time>
      </trkpt>
      <trkpt lat="47.80479" lon="-3.51685">
        <ele>24</ele>
        <time>2019-07-15T09:51:30Z</time>
      </trkpt>
      <trkpt lat="47.80479" lon="-3.51681">
        <ele>24</ele>
        <time>2019-07-15T09:51:31Z</time>
      </trkpt>
      <trkpt lat="47.80479" lon="-3.51677">
        <ele>24</ele>
        <time>2019-07-15T09:51:32Z</time>
      </trkpt>
      <trkpt lat="47.80479" lon="-3.51672">
        <ele>24</ele>
        <time>2019-07-15T09:51:33Z</time>
      </trkpt>
      <trkpt lat="47.80479" lon="-3.51669">
        <ele>24</ele>
        <time>2019-07-15T09:51:34Z</time>
      </trkpt>
      <trkpt lat="47.80478" lon="-3.51666">
        <ele>24</ele>
        <time>2019-07-15T09:51:35Z</time>
      </trkpt>
      <trkpt lat="47.80477" lon="-3.51664">
        <ele>24</ele>
        <time>2019-07-15T09:51:36Z</time>
      </trkpt>
      <trkpt lat="47.80477" lon="-3.51661">
        <ele>24</ele>
        <time>2019-07-15T09:51:37Z</time>
      </trkpt>
      <trkpt lat="47.80478" lon="-3.51659">
        <ele>24</ele>
        <time>2019-07-15T09:51:38Z</time>
      </trkpt>
      <trkpt lat="47.80479" lon="-3.51655">
        <ele>24</ele>
        <time>2019-07-15T09:51:39Z</time>
      </trkpt>
      <trkpt lat="47.8048" lon="-3.5165">
        <ele>25</ele>
        <time>2019-07-15T09:51:40Z</time>
      </trkpt>
      <trkpt lat="47.80481" lon="-3.51643">
        <ele>25</ele>
        <time>2019-07-15T09:51:41Z</time>
      </trkpt>
      <trkpt lat="47.80483" lon="-3.51637">
        <ele>25</ele>
        <time>2019-07-15T09:51:42Z</time>
      </trkpt>
      <trkpt lat="47.80484" lon="-3.51633">
        <ele>25</ele>
        <time>2019-07-15T09:51:43Z</time>
      </trkpt>
      <trkpt lat="47.80486" lon="-3.51631">
        <ele>25</ele>
        <time>2019-07-15T09:51:44Z</time>
      </trkpt>
      <trkpt lat="47.80488" lon="-3.51631">
        <ele>25</ele>
        <time>2019-07-15T09:51:45Z</time>
      </trkpt>
      <trkpt lat="47.8049" lon="-3.51631">
        <ele>25</ele>
        <time>2019-07-15T09:51:46Z</time>
      </trkpt>
      <trkpt lat="47.8049" lon="-3.51632">
        <ele>25</ele>
        <time>2019-07-15T09:51:47Z</time>
      </trkpt>
      <trkpt lat="47.80489" lon="-3.51633">
        <ele>25</ele>
        <time>2019-07-15T09:51:48Z</time>
      </trkpt>
      <trkpt lat="47.80489" lon="-3.51634">
        <ele>24</ele>
        <time>2019-07-15T09:51:49Z</time>
      </trkpt>
      <trkpt lat="47.80493" lon="-3.51626">
        <ele>23</ele>
        <time>2019-07-15T09:51:50Z</time>
      </trkpt>
      <trkpt lat="47.80494" lon="-3.51625">
        <ele>23</ele>
        <time>2019-07-15T09:51:51Z</time>
      </trkpt>
      <trkpt lat="47.80495" lon="-3.51624">
        <ele>23</ele>
        <time>2019-07-15T09:51:52Z</time>
      </trkpt>
      <trkpt lat="47.80499" lon="-3.5163">
        <ele>20</ele>
        <time>2019-07-15T09:51:53Z</time>
      </trkpt>
      <trkpt lat="47.805" lon="-3.51631">
        <ele>20</ele>
        <time>2019-07-15T09:51:54Z</time>
      </trkpt>
      <trkpt lat="47.80501" lon="-3.51633">
        <ele>19</ele>
        <time>2019-07-15T09:51:55Z</time>
      </trkpt>
      <trkpt lat="47.80502" lon="-3.51634">
        <ele>19</ele>
        <time>2019-07-15T09:51:56Z</time>
      </trkpt>
      <trkpt lat="47.80503" lon="-3.51635">
        <ele>19</ele>
        <time>2019-07-15T09:51:57Z</time>
      </trkpt>
      <trkpt lat="47.80504" lon="-3.51636">
        <ele>19</ele>
        <time>2019-07-15T09:51:58Z</time>
      </trkpt>
      <trkpt lat="47.80505" lon="-3.51637">
        <ele>18</ele>
        <time>2019-07-15T09:51:59Z</time>
      </trkpt>
      <trkpt lat="47.80506" lon="-3.51638">
        <ele>18</ele>
        <time>2019-07-15T09:52:00Z</time>
      </trkpt>
      <trkpt lat="47.80507" lon="-3.5164">
        <ele>18</ele>
        <time>2019-07-15T09:52:01Z</time>
      </trkpt>
      <trkpt lat="47.80507" lon="-3.51641">
        <ele>18</ele>
        <time>2019-07-15T09:52:02Z</time>
      </trkpt>
      <trkpt lat="47.80509" lon="-3.51642">
        <ele>18</ele>
        <time>2019-07-15T09:52:03Z</time>
      </trkpt>
      <trkpt lat="47.80509" lon="-3.51644">
        <ele>18</ele>
        <time>2019-07-15T09:52:04Z</time>
      </trkpt>
      <trkpt lat="47.80509" lon="-3.51646">
        <ele>18</ele>
        <time>2019-07-15T09:52:05Z</time>
      </trkpt>
      <trkpt lat="47.80509" lon="-3.51649">
        <ele>18</ele>
        <time>2019-07-15T09:52:06Z</time>
      </trkpt>
      <trkpt lat="47.8051" lon="-3.51651">
        <ele>18</ele>
        <time>2019-07-15T09:52:07Z</time>
      </trkpt>
      <trkpt lat="47.8051" lon="-3.51654">
        <ele>18</ele>
        <time>2019-07-15T09:52:08Z</time>
      </trkpt>
      <trkpt lat="47.8051" lon="-3.51656">
        <ele>18</ele>
        <time>2019-07-15T09:52:09Z</time>
      </trkpt>
      <trkpt lat="47.8051" lon="-3.51658">
        <ele>18</ele>
        <time>2019-07-15T09:52:10Z</time>
      </trkpt>
      <trkpt lat="47.8051" lon="-3.51662">
        <ele>18</ele>
        <time>2019-07-15T09:52:11Z</time>
      </trkpt>
      <trkpt lat="47.8051" lon="-3.51666">
        <ele>18</ele>
        <time>2019-07-15T09:52:12Z</time>
      </trkpt>
      <trkpt lat="47.8051" lon="-3.51671">
        <ele>18</ele>
        <time>2019-07-15T09:52:13Z</time>
      </trkpt>
      <trkpt lat="47.80509" lon="-3.51675">
        <ele>18</ele>
        <time>2019-07-15T09:52:14Z</time>
      </trkpt>
      <trkpt lat="47.8051" lon="-3.5168">
        <ele>18</ele>
        <time>2019-07-15T09:52:15Z</time>
      </trkpt>
      <trkpt lat="47.8051" lon="-3.51685">
        <ele>18</ele>
        <time>2019-07-15T09:52:16Z</time>
      </trkpt>
      <trkpt lat="47.80511" lon="-3.51691">
        <ele>18</ele>
        <time>2019-07-15T09:52:17Z</time>
      </trkpt>
      <trkpt lat="47.80511" lon="-3.51697">
        <ele>18</ele>
        <time>2019-07-15T09:52:18Z</time>
      </trkpt>
      <trkpt lat="47.80511" lon="-3.51703">
        <ele>18</ele>
        <time>2019-07-15T09:52:19Z</time>
      </trkpt>
      <trkpt lat="47.80511" lon="-3.51708">
        <ele>18</ele>
        <time>2019-07-15T09:52:20Z</time>
      </trkpt>
      <trkpt lat="47.80512" lon="-3.51714">
        <ele>18</ele>
        <time>2019-07-15T09:52:21Z</time>
      </trkpt>
      <trkpt lat="47.80512" lon="-3.51718">
        <ele>18</ele>
        <time>2019-07-15T09:52:22Z</time>
      </trkpt>
      <trkpt lat="47.80514" lon="-3.51723">
        <ele>18</ele>
        <time>2019-07-15T09:52:23Z</time>
      </trkpt>
      <trkpt lat="47.80515" lon="-3.51728">
        <ele>18</ele>
        <time>2019-07-15T09:52:24Z</time>
      </trkpt>
      <trkpt lat="47.80516" lon="-3.51731">
        <ele>18</ele>
        <time>2019-07-15T09:52:25Z</time>
      </trkpt>
      <trkpt lat="47.80517" lon="-3.51734">
        <ele>18</ele>
        <time>2019-07-15T09:52:26Z</time>
      </trkpt>
      <trkpt lat="47.80519" lon="-3.51737">
        <ele>18</ele>
        <time>2019-07-15T09:52:27Z</time>
      </trkpt>
      <trkpt lat="47.8052" lon="-3.5174">
        <ele>18</ele>
        <time>2019-07-15T09:52:28Z</time>
      </trkpt>
      <trkpt lat="47.80522" lon="-3.51743">
        <ele>18</ele>
        <time>2019-07-15T09:52:29Z</time>
      </trkpt>
      <trkpt lat="47.80523" lon="-3.51746">
        <ele>17</ele>
        <time>2019-07-15T09:52:30Z</time>
      </trkpt>
      <trkpt lat="47.80524" lon="-3.5175">
        <ele>17</ele>
        <time>2019-07-15T09:52:31Z</time>
      </trkpt>
      <trkpt lat="47.80525" lon="-3.51752">
        <ele>17</ele>
        <time>2019-07-15T09:52:32Z</time>
      </trkpt>
      <trkpt lat="47.80526" lon="-3.51756">
        <ele>17</ele>
        <time>2019-07-15T09:52:33Z</time>
      </trkpt>
      <trkpt lat="47.80528" lon="-3.5176">
        <ele>17</ele>
        <time>2019-07-15T09:52:34Z</time>
      </trkpt>
      <trkpt lat="47.80529" lon="-3.51764">
        <ele>17</ele>
        <time>2019-07-15T09:52:35Z</time>
      </trkpt>
      <trkpt lat="47.80531" lon="-3.51769">
        <ele>17</ele>
        <time>2019-07-15T09:52:36Z</time>
      </trkpt>
      <trkpt lat="47.80532" lon="-3.51772">
        <ele>16</ele>
        <time>2019-07-15T09:52:37Z</time>
      </trkpt>
      <trkpt lat="47.80533" lon="-3.51775">
        <ele>16</ele>
        <time>2019-07-15T09:52:38Z</time>
      </trkpt>
      <trkpt lat="47.80533" lon="-3.51778">
        <ele>16</ele>
        <time>2019-07-15T09:52:39Z</time>
      </trkpt>
      <trkpt lat="47.80533" lon="-3.51781">
        <ele>16</ele>
        <time>2019-07-15T09:52:40Z</time>
      </trkpt>
      <trkpt lat="47.80534" lon="-3.51785">
        <ele>16</ele>
        <time>2019-07-15T09:52:41Z</time>
      </trkpt>
      <trkpt lat="47.80535" lon="-3.51789">
        <ele>15</ele>
        <time>2019-07-15T09:52:42Z</time>
      </trkpt>
      <trkpt lat="47.80535" lon="-3.51792">
        <ele>15</ele>
        <time>2019-07-15T09:52:43Z</time>
      </trkpt>
      <trkpt lat="47.80535" lon="-3.51796">
        <ele>15</ele>
        <time>2019-07-15T09:52:44Z</time>
      </trkpt>
      <trkpt lat="47.80535" lon="-3.518">
        <ele>15</ele>
        <time>2019-07-15T09:52:45Z</time>
      </trkpt>
      <trkpt lat="47.80536" lon="-3.51805">
        <ele>15</ele>
        <time>2019-07-15T09:52:46Z</time>
      </trkpt>
      <trkpt lat="47.80536" lon="-3.51809">
        <ele>15</ele>
        <time>2019-07-15T09:52:47Z</time>
      </trkpt>
      <trkpt lat="47.80537" lon="-3.51813">
        <ele>15</ele>
        <time>2019-07-15T09:52:48Z</time>
      </trkpt>
      <trkpt lat="47.80538" lon="-3.51817">
        <ele>15</ele>
        <time>2019-07-15T09:52:49Z</time>
      </trkpt>
      <trkpt lat="47.80539" lon="-3.5182">
        <ele>15</ele>
        <time>2019-07-15T09:52:50Z</time>
      </trkpt>
      <trkpt lat="47.80539" lon="-3.51825">
        <ele>14</ele>
        <time>2019-07-15T09:52:51Z</time>
      </trkpt>
      <trkpt lat="47.80538" lon="-3.5183">
        <ele>14</ele>
        <time>2019-07-15T09:52:52Z</time>
      </trkpt>
      <trkpt lat="47.80537" lon="-3.51836">
        <ele>14</ele>
        <time>2019-07-15T09:52:53Z</time>
      </trkpt>
      <trkpt lat="47.80537" lon="-3.51841">
        <ele>14</ele>
        <time>2019-07-15T09:52:54Z</time>
      </trkpt>
      <trkpt lat="47.80536" lon="-3.51846">
        <ele>14</ele>
        <time>2019-07-15T09:52:55Z</time>
      </trkpt>
      <trkpt lat="47.80536" lon="-3.51851">
        <ele>14</ele>
        <time>2019-07-15T09:52:56Z</time>
      </trkpt>
      <trkpt lat="47.80536" lon="-3.51855">
        <ele>14</ele>
        <time>2019-07-15T09:52:57Z</time>
      </trkpt>
      <trkpt lat="47.80537" lon="-3.51858">
        <ele>14</ele>
        <time>2019-07-15T09:52:58Z</time>
      </trkpt>
      <trkpt lat="47.80537" lon="-3.51861">
        <ele>14</ele>
        <time>2019-07-15T09:52:59Z</time>
      </trkpt>
      <trkpt lat="47.80538" lon="-3.51865">
        <ele>14</ele>
        <time>2019-07-15T09:53:00Z</time>
      </trkpt>
      <trkpt lat="47.80538" lon="-3.51868">
        <ele>14</ele>
        <time>2019-07-15T09:53:01Z</time>
      </trkpt>
      <trkpt lat="47.80538" lon="-3.51872">
        <ele>14</ele>
        <time>2019-07-15T09:53:02Z</time>
      </trkpt>
      <trkpt lat="47.80537" lon="-3.51875">
        <ele>14</ele>
        <time>2019-07-15T09:53:03Z</time>
      </trkpt>
      <trkpt lat="47.80537" lon="-3.51878">
        <ele>15</ele>
        <time>2019-07-15T09:53:04Z</time>
      </trkpt>
      <trkpt lat="47.80537" lon="-3.51881">
        <ele>15</ele>
        <time>2019-07-15T09:53:05Z</time>
      </trkpt>
      <trkpt lat="47.80537" lon="-3.51884">
        <ele>15</ele>
        <time>2019-07-15T09:53:06Z</time>
      </trkpt>
      <trkpt lat="47.80537" lon="-3.51886">
        <ele>15</ele>
        <time>2019-07-15T09:53:07Z</time>
      </trkpt>
      <trkpt lat="47.80537" lon="-3.51887">
        <ele>14</ele>
        <time>2019-07-15T09:53:08Z</time>
      </trkpt>
      <trkpt lat="47.80537" lon="-3.51887">
        <ele>14</ele>
        <time>2019-07-15T09:53:09Z</time>
      </trkpt>
      <trkpt lat="47.80537" lon="-3.51888">
        <ele>14</ele>
        <time>2019-07-15T09:53:10Z</time>
      </trkpt>
      <trkpt lat="47.80537" lon="-3.51888">
        <ele>14</ele>
        <time>2019-07-15T09:53:11Z</time>
      </trkpt>
      <trkpt lat="47.80543" lon="-3.51904">
        <ele>11</ele>
        <time>2019-07-15T09:53:12Z</time>
      </trkpt>
      <trkpt lat="47.80544" lon="-3.51904">
        <ele>11</ele>
        <time>2019-07-15T09:53:13Z</time>
      </trkpt>
      <trkpt lat="47.80547" lon="-3.51918">
        <ele>13</ele>
        <time>2019-07-15T09:53:14Z</time>
      </trkpt>
      <trkpt lat="47.80547" lon="-3.51921">
        <ele>13</ele>
        <time>2019-07-15T09:53:15Z</time>
      </trkpt>
      <trkpt lat="47.80546" lon="-3.51924">
        <ele>13</ele>
        <time>2019-07-15T09:53:16Z</time>
      </trkpt>
      <trkpt lat="47.80547" lon="-3.51927">
        <ele>13</ele>
        <time>2019-07-15T09:53:17Z</time>
      </trkpt>
      <trkpt lat="47.80548" lon="-3.5193">
        <ele>13</ele>
        <time>2019-07-15T09:53:18Z</time>
      </trkpt>
      <trkpt lat="47.80549" lon="-3.51934">
        <ele>13</ele>
        <time>2019-07-15T09:53:19Z</time>
      </trkpt>
      <trkpt lat="47.8055" lon="-3.51937">
        <ele>13</ele>
        <time>2019-07-15T09:53:20Z</time>
      </trkpt>
      <trkpt lat="47.80551" lon="-3.5194">
        <ele>13</ele>
        <time>2019-07-15T09:53:21Z</time>
      </trkpt>
      <trkpt lat="47.80552" lon="-3.51943">
        <ele>13</ele>
        <time>2019-07-15T09:53:22Z</time>
      </trkpt>
      <trkpt lat="47.80552" lon="-3.51946">
        <ele>13</ele>
        <time>2019-07-15T09:53:23Z</time>
      </trkpt>
      <trkpt lat="47.80553" lon="-3.51949">
        <ele>13</ele>
        <time>2019-07-15T09:53:24Z</time>
      </trkpt>
      <trkpt lat="47.80554" lon="-3.51951">
        <ele>13</ele>
        <time>2019-07-15T09:53:25Z</time>
      </trkpt>
      <trkpt lat="47.80554" lon="-3.51953">
        <ele>13</ele>
        <time>2019-07-15T09:53:26Z</time>
      </trkpt>
      <trkpt lat="47.80553" lon="-3.51956">
        <ele>13</ele>
        <time>2019-07-15T09:53:27Z</time>
      </trkpt>
      <trkpt lat="47.80553" lon="-3.51962">
        <ele>13</ele>
        <time>2019-07-15T09:53:28Z</time>
      </trkpt>
      <trkpt lat="47.80553" lon="-3.51968">
        <ele>13</ele>
        <time>2019-07-15T09:53:29Z</time>
      </trkpt>
      <trkpt lat="47.80553" lon="-3.51973">
        <ele>13</ele>
        <time>2019-07-15T09:53:30Z</time>
      </trkpt>
      <trkpt lat="47.80554" lon="-3.51977">
        <ele>13</ele>
        <time>2019-07-15T09:53:31Z</time>
      </trkpt>
      <trkpt lat="47.80555" lon="-3.51979">
        <ele>13</ele>
        <time>2019-07-15T09:53:32Z</time>
      </trkpt>
      <trkpt lat="47.80556" lon="-3.51981">
        <ele>13</ele>
        <time>2019-07-15T09:53:33Z</time>
      </trkpt>
      <trkpt lat="47.80557" lon="-3.51984">
        <ele>13</ele>
        <time>2019-07-15T09:53:34Z</time>
      </trkpt>
      <trkpt lat="47.80558" lon="-3.51986">
        <ele>13</ele>
        <time>2019-07-15T09:53:35Z</time>
      </trkpt>
      <trkpt lat="47.80559" lon="-3.5199">
        <ele>13</ele>
        <time>2019-07-15T09:53:36Z</time>
      </trkpt>
      <trkpt lat="47.80559" lon="-3.51992">
        <ele>13</ele>
        <time>2019-07-15T09:53:37Z</time>
      </trkpt>
      <trkpt lat="47.8056" lon="-3.51994">
        <ele>13</ele>
        <time>2019-07-15T09:53:38Z</time>
      </trkpt>
      <trkpt lat="47.8056" lon="-3.51997">
        <ele>13</ele>
        <time>2019-07-15T09:53:39Z</time>
      </trkpt>
      <trkpt lat="47.8056" lon="-3.51999">
        <ele>13</ele>
        <time>2019-07-15T09:53:40Z</time>
      </trkpt>
      <trkpt lat="47.8056" lon="-3.52003">
        <ele>13</ele>
        <time>2019-07-15T09:53:41Z</time>
      </trkpt>
      <trkpt lat="47.80559" lon="-3.52008">
        <ele>13</ele>
        <time>2019-07-15T09:53:42Z</time>
      </trkpt>
      <trkpt lat="47.80558" lon="-3.52012">
        <ele>13</ele>
        <time>2019-07-15T09:53:43Z</time>
      </trkpt>
      <trkpt lat="47.80558" lon="-3.52017">
        <ele>13</ele>
        <time>2019-07-15T09:53:44Z</time>
      </trkpt>
      <trkpt lat="47.80557" lon="-3.52023">
        <ele>13</ele>
        <time>2019-07-15T09:53:45Z</time>
      </trkpt>
      <trkpt lat="47.80556" lon="-3.5203">
        <ele>14</ele>
        <time>2019-07-15T09:53:46Z</time>
      </trkpt>
      <trkpt lat="47.80556" lon="-3.52036">
        <ele>14</ele>
        <time>2019-07-15T09:53:47Z</time>
      </trkpt>
      <trkpt lat="47.80555" lon="-3.52041">
        <ele>14</ele>
        <time>2019-07-15T09:53:48Z</time>
      </trkpt>
      <trkpt lat="47.80554" lon="-3.52045">
        <ele>14</ele>
        <time>2019-07-15T09:53:49Z</time>
      </trkpt>
      <trkpt lat="47.80553" lon="-3.52049">
        <ele>14</ele>
        <time>2019-07-15T09:53:50Z</time>
      </trkpt>
      <trkpt lat="47.80552" lon="-3.52053">
        <ele>14</ele>
        <time>2019-07-15T09:53:51Z</time>
      </trkpt>
      <trkpt lat="47.80552" lon="-3.52057">
        <ele>14</ele>
        <time>2019-07-15T09:53:52Z</time>
      </trkpt>
      <trkpt lat="47.80551" lon="-3.52061">
        <ele>14</ele>
        <time>2019-07-15T09:53:53Z</time>
      </trkpt>
      <trkpt lat="47.8055" lon="-3.52065">
        <ele>14</ele>
        <time>2019-07-15T09:53:54Z</time>
      </trkpt>
      <trkpt lat="47.8055" lon="-3.52069">
        <ele>14</ele>
        <time>2019-07-15T09:53:55Z</time>
      </trkpt>
      <trkpt lat="47.80549" lon="-3.52073">
        <ele>14</ele>
        <time>2019-07-15T09:53:56Z</time>
      </trkpt>
      <trkpt lat="47.80548" lon="-3.52077">
        <ele>14</ele>
        <time>2019-07-15T09:53:57Z</time>
      </trkpt>
      <trkpt lat="47.80547" lon="-3.52081">
        <ele>14</ele>
        <time>2019-07-15T09:53:58Z</time>
      </trkpt>
      <trkpt lat="47.80545" lon="-3.52085">
        <ele>14</ele>
        <time>2019-07-15T09:53:59Z</time>
      </trkpt>
      <trkpt lat="47.80543" lon="-3.52089">
        <ele>14</ele>
        <time>2019-07-15T09:54:00Z</time>
      </trkpt>
      <trkpt lat="47.80539" lon="-3.52094">
        <ele>13</ele>
        <time>2019-07-15T09:54:01Z</time>
      </trkpt>
      <trkpt lat="47.80537" lon="-3.52098">
        <ele>13</ele>
        <time>2019-07-15T09:54:02Z</time>
      </trkpt>
      <trkpt lat="47.80534" lon="-3.52101">
        <ele>13</ele>
        <time>2019-07-15T09:54:03Z</time>
      </trkpt>
      <trkpt lat="47.80531" lon="-3.52105">
        <ele>13</ele>
        <time>2019-07-15T09:54:04Z</time>
      </trkpt>
      <trkpt lat="47.80528" lon="-3.52107">
        <ele>13</ele>
        <time>2019-07-15T09:54:05Z</time>
      </trkpt>
      <trkpt lat="47.80527" lon="-3.52109">
        <ele>12</ele>
        <time>2019-07-15T09:54:06Z</time>
      </trkpt>
      <trkpt lat="47.80527" lon="-3.5211">
        <ele>12</ele>
        <time>2019-07-15T09:54:07Z</time>
      </trkpt>
      <trkpt lat="47.80527" lon="-3.52111">
        <ele>12</ele>
        <time>2019-07-15T09:54:08Z</time>
      </trkpt>
      <trkpt lat="47.80527" lon="-3.52112">
        <ele>12</ele>
        <time>2019-07-15T09:54:09Z</time>
      </trkpt>
      <trkpt lat="47.80527" lon="-3.52113">
        <ele>12</ele>
        <time>2019-07-15T09:54:10Z</time>
      </trkpt>
      <trkpt lat="47.80532" lon="-3.52132">
        <ele>8</ele>
        <time>2019-07-15T09:54:11Z</time>
      </trkpt>
      <trkpt lat="47.80533" lon="-3.52134">
        <ele>8</ele>
        <time>2019-07-15T09:54:12Z</time>
      </trkpt>
      <trkpt lat="47.80534" lon="-3.52136">
        <ele>8</ele>
        <time>2019-07-15T09:54:13Z</time>
      </trkpt>
      <trkpt lat="47.80535" lon="-3.52138">
        <ele>8</ele>
        <time>2019-07-15T09:54:14Z</time>
      </trkpt>
      <trkpt lat="47.80536" lon="-3.5214">
        <ele>8</ele>
        <time>2019-07-15T09:54:15Z</time>
      </trkpt>
      <trkpt lat="47.80537" lon="-3.52141">
        <ele>8</ele>
        <time>2019-07-15T09:54:16Z</time>
      </trkpt>
      <trkpt lat="47.80539" lon="-3.52143">
        <ele>8</ele>
        <time>2019-07-15T09:54:17Z</time>
      </trkpt>
      <trkpt lat="47.8054" lon="-3.52144">
        <ele>8</ele>
        <time>2019-07-15T09:54:18Z</time>
      </trkpt>
      <trkpt lat="47.80542" lon="-3.52145">
        <ele>8</ele>
        <time>2019-07-15T09:54:19Z</time>
      </trkpt>
      <trkpt lat="47.80543" lon="-3.52146">
        <ele>9</ele>
        <time>2019-07-15T09:54:20Z</time>
      </trkpt>
      <trkpt lat="47.80545" lon="-3.52147">
        <ele>9</ele>
        <time>2019-07-15T09:54:21Z</time>
      </trkpt>
      <trkpt lat="47.80546" lon="-3.52148">
        <ele>9</ele>
        <time>2019-07-15T09:54:22Z</time>
      </trkpt>
      <trkpt lat="47.80548" lon="-3.52149">
        <ele>9</ele>
        <time>2019-07-15T09:54:23Z</time>
      </trkpt>
      <trkpt lat="47.80549" lon="-3.52149">
        <ele>10</ele>
        <time>2019-07-15T09:54:24Z</time>
      </trkpt>
      <trkpt lat="47.80551" lon="-3.52149">
        <ele>10</ele>
        <time>2019-07-15T09:54:25Z</time>
      </trkpt>
      <trkpt lat="47.80553" lon="-3.52149">
        <ele>10</ele>
        <time>2019-07-15T09:54:26Z</time>
      </trkpt>
      <trkpt lat="47.80554" lon="-3.52149">
        <ele>10</ele>
        <time>2019-07-15T09:54:27Z</time>
      </trkpt>
      <trkpt lat="47.80555" lon="-3.5215">
        <ele>10</ele>
        <time>2019-07-15T09:54:28Z</time>
      </trkpt>
      <trkpt lat="47.80557" lon="-3.52151">
        <ele>11</ele>
        <time>2019-07-15T09:54:29Z</time>
      </trkpt>
      <trkpt lat="47.80558" lon="-3.52152">
        <ele>11</ele>
        <time>2019-07-15T09:54:30Z</time>
      </trkpt>
      <trkpt lat="47.80559" lon="-3.52152">
        <ele>11</ele>
        <time>2019-07-15T09:54:31Z</time>
      </trkpt>
      <trkpt lat="47.8056" lon="-3.52152">
        <ele>11</ele>
        <time>2019-07-15T09:54:32Z</time>
      </trkpt>
      <trkpt lat="47.8056" lon="-3.52152">
        <ele>11</ele>
        <time>2019-07-15T09:54:33Z</time>
      </trkpt>
      <trkpt lat="47.80561" lon="-3.5215">
        <ele>11</ele>
        <time>2019-07-15T09:54:34Z</time>
      </trkpt>
      <trkpt lat="47.80561" lon="-3.52149">
        <ele>12</ele>
        <time>2019-07-15T09:54:35Z</time>
      </trkpt>
      <trkpt lat="47.80561" lon="-3.52147">
        <ele>12</ele>
        <time>2019-07-15T09:54:36Z</time>
      </trkpt>
      <trkpt lat="47.80562" lon="-3.52146">
        <ele>12</ele>
        <time>2019-07-15T09:54:37Z</time>
      </trkpt>
      <trkpt lat="47.80562" lon="-3.52144">
        <ele>12</ele>
        <time>2019-07-15T09:54:38Z</time>
      </trkpt>
      <trkpt lat="47.80562" lon="-3.52142">
        <ele>12</ele>
        <time>2019-07-15T09:54:39Z</time>
      </trkpt>
      <trkpt lat="47.80563" lon="-3.5214">
        <ele>13</ele>
        <time>2019-07-15T09:54:40Z</time>
      </trkpt>
      <trkpt lat="47.80564" lon="-3.52138">
        <ele>13</ele>
        <time>2019-07-15T09:54:41Z</time>
      </trkpt>
      <trkpt lat="47.80565" lon="-3.52136">
        <ele>13</ele>
        <time>2019-07-15T09:54:42Z</time>
      </trkpt>
      <trkpt lat="47.80566" lon="-3.52133">
        <ele>13</ele>
        <time>2019-07-15T09:54:43Z</time>
      </trkpt>
      <trkpt lat="47.80566" lon="-3.5213">
        <ele>13</ele>
        <time>2019-07-15T09:54:44Z</time>
      </trkpt>
      <trkpt lat="47.80567" lon="-3.52128">
        <ele>14</ele>
        <time>2019-07-15T09:54:45Z</time>
      </trkpt>
      <trkpt lat="47.80567" lon="-3.52126">
        <ele>14</ele>
        <time>2019-07-15T09:54:46Z</time>
      </trkpt>
      <trkpt lat="47.80568" lon="-3.52123">
        <ele>14</ele>
        <time>2019-07-15T09:54:47Z</time>
      </trkpt>
      <trkpt lat="47.80569" lon="-3.5212">
        <ele>14</ele>
        <time>2019-07-15T09:54:48Z</time>
      </trkpt>
      <trkpt lat="47.80569" lon="-3.52118">
        <ele>14</ele>
        <time>2019-07-15T09:54:49Z</time>
      </trkpt>
      <trkpt lat="47.8057" lon="-3.52116">
        <ele>14</ele>
        <time>2019-07-15T09:54:50Z</time>
      </trkpt>
      <trkpt lat="47.80571" lon="-3.52114">
        <ele>15</ele>
        <time>2019-07-15T09:54:51Z</time>
      </trkpt>
      <trkpt lat="47.80572" lon="-3.52112">
        <ele>15</ele>
        <time>2019-07-15T09:54:52Z</time>
      </trkpt>
      <trkpt lat="47.80572" lon="-3.5211">
        <ele>15</ele>
        <time>2019-07-15T09:54:53Z</time>
      </trkpt>
      <trkpt lat="47.80573" lon="-3.52108">
        <ele>15</ele>
        <time>2019-07-15T09:54:54Z</time>
      </trkpt>
      <trkpt lat="47.80574" lon="-3.52105">
        <ele>15</ele>
        <time>2019-07-15T09:54:55Z</time>
      </trkpt>
      <trkpt lat="47.80575" lon="-3.52103">
        <ele>15</ele>
        <time>2019-07-15T09:54:56Z</time>
      </trkpt>
      <trkpt lat="47.80576" lon="-3.521">
        <ele>16</ele>
        <time>2019-07-15T09:54:57Z</time>
      </trkpt>
      <trkpt lat="47.80578" lon="-3.52098">
        <ele>16</ele>
        <time>2019-07-15T09:54:58Z</time>
      </trkpt>
      <trkpt lat="47.80579" lon="-3.52094">
        <ele>16</ele>
        <time>2019-07-15T09:54:59Z</time>
      </trkpt>
      <trkpt lat="47.8058" lon="-3.52092">
        <ele>16</ele>
        <time>2019-07-15T09:55:00Z</time>
      </trkpt>
      <trkpt lat="47.80581" lon="-3.52089">
        <ele>17</ele>
        <time>2019-07-15T09:55:01Z</time>
      </trkpt>
      <trkpt lat="47.80582" lon="-3.52086">
        <ele>17</ele>
        <time>2019-07-15T09:55:02Z</time>
      </trkpt>
      <trkpt lat="47.80584" lon="-3.52084">
        <ele>17</ele>
        <time>2019-07-15T09:55:03Z</time>
      </trkpt>
      <trkpt lat="47.80585" lon="-3.52081">
        <ele>17</ele>
        <time>2019-07-15T09:55:04Z</time>
      </trkpt>
      <trkpt lat="47.80587" lon="-3.52077">
        <ele>18</ele>
        <time>2019-07-15T09:55:05Z</time>
      </trkpt>
      <trkpt lat="47.80588" lon="-3.52074">
        <ele>18</ele>
        <time>2019-07-15T09:55:06Z</time>
      </trkpt>
      <trkpt lat="47.8059" lon="-3.52071">
        <ele>18</ele>
        <time>2019-07-15T09:55:07Z</time>
      </trkpt>
      <trkpt lat="47.80591" lon="-3.52068">
        <ele>18</ele>
        <time>2019-07-15T09:55:08Z</time>
      </trkpt>
      <trkpt lat="47.80592" lon="-3.52064">
        <ele>19</ele>
        <time>2019-07-15T09:55:09Z</time>
      </trkpt>
      <trkpt lat="47.80593" lon="-3.52061">
        <ele>19</ele>
        <time>2019-07-15T09:55:10Z</time>
      </trkpt>
      <trkpt lat="47.80593" lon="-3.52057">
        <ele>19</ele>
        <time>2019-07-15T09:55:11Z</time>
      </trkpt>
      <trkpt lat="47.80594" lon="-3.52053">
        <ele>19</ele>
        <time>2019-07-15T09:55:12Z</time>
      </trkpt>
      <trkpt lat="47.80595" lon="-3.5205">
        <ele>19</ele>
        <time>2019-07-15T09:55:13Z</time>
      </trkpt>
      <trkpt lat="47.80595" lon="-3.52046">
        <ele>20</ele>
        <time>2019-07-15T09:55:14Z</time>
      </trkpt>
      <trkpt lat="47.80596" lon="-3.52042">
        <ele>20</ele>
        <time>2019-07-15T09:55:15Z</time>
      </trkpt>
      <trkpt lat="47.80597" lon="-3.52038">
        <ele>20</ele>
        <time>2019-07-15T09:55:16Z</time>
      </trkpt>
      <trkpt lat="47.80597" lon="-3.52034">
        <ele>20</ele>
        <time>2019-07-15T09:55:17Z</time>
      </trkpt>
      <trkpt lat="47.80597" lon="-3.5203">
        <ele>20</ele>
        <time>2019-07-15T09:55:18Z</time>
      </trkpt>
      <trkpt lat="47.80598" lon="-3.52026">
        <ele>21</ele>
        <time>2019-07-15T09:55:19Z</time>
      </trkpt>
      <trkpt lat="47.80598" lon="-3.52022">
        <ele>21</ele>
        <time>2019-07-15T09:55:20Z</time>
      </trkpt>
      <trkpt lat="47.80598" lon="-3.52019">
        <ele>21</ele>
        <time>2019-07-15T09:55:21Z</time>
      </trkpt>
      <trkpt lat="47.80598" lon="-3.52015">
        <ele>21</ele>
        <time>2019-07-15T09:55:22Z</time>
      </trkpt>
      <trkpt lat="47.80598" lon="-3.52011">
        <ele>22</ele>
        <time>2019-07-15T09:55:23Z</time>
      </trkpt>
      <trkpt lat="47.80598" lon="-3.52008">
        <ele>22</ele>
        <time>2019-07-15T09:55:24Z</time>
      </trkpt>
      <trkpt lat="47.80598" lon="-3.52004">
        <ele>22</ele>
        <time>2019-07-15T09:55:25Z</time>
      </trkpt>
      <trkpt lat="47.80598" lon="-3.52">
        <ele>22</ele>
        <time>2019-07-15T09:55:26Z</time>
      </trkpt>
      <trkpt lat="47.80599" lon="-3.51997">
        <ele>22</ele>
        <time>2019-07-15T09:55:27Z</time>
      </trkpt>
      <trkpt lat="47.80599" lon="-3.51993">
        <ele>22</ele>
        <time>2019-07-15T09:55:28Z</time>
      </trkpt>
      <trkpt lat="47.80599" lon="-3.5199">
        <ele>23</ele>
        <time>2019-07-15T09:55:29Z</time>
      </trkpt>
      <trkpt lat="47.80599" lon="-3.51986">
        <ele>23</ele>
        <time>2019-07-15T09:55:30Z</time>
      </trkpt>
      <trkpt lat="47.80599" lon="-3.51983">
        <ele>23</ele>
        <time>2019-07-15T09:55:31Z</time>
      </trkpt>
      <trkpt lat="47.80599" lon="-3.51979">
        <ele>23</ele>
        <time>2019-07-15T09:55:32Z</time>
      </trkpt>
      <trkpt lat="47.80599" lon="-3.51975">
        <ele>23</ele>
        <time>2019-07-15T09:55:33Z</time>
      </trkpt>
      <trkpt lat="47.806" lon="-3.51971">
        <ele>23</ele>
        <time>2019-07-15T09:55:34Z</time>
      </trkpt>
      <trkpt lat="47.80601" lon="-3.51967">
        <ele>23</ele>
        <time>2019-07-15T09:55:35Z</time>
      </trkpt>
      <trkpt lat="47.80601" lon="-3.51964">
        <ele>23</ele>
        <time>2019-07-15T09:55:36Z</time>
      </trkpt>
      <trkpt lat="47.80601" lon="-3.5196">
        <ele>24</ele>
        <time>2019-07-15T09:55:37Z</time>
      </trkpt>
      <trkpt lat="47.80601" lon="-3.51957">
        <ele>24</ele>
        <time>2019-07-15T09:55:38Z</time>
      </trkpt>
      <trkpt lat="47.80601" lon="-3.51954">
        <ele>24</ele>
        <time>2019-07-15T09:55:39Z</time>
      </trkpt>
      <trkpt lat="47.80601" lon="-3.51951">
        <ele>24</ele>
        <time>2019-07-15T09:55:40Z</time>
      </trkpt>
      <trkpt lat="47.80601" lon="-3.51947">
        <ele>25</ele>
        <time>2019-07-15T09:55:41Z</time>
      </trkpt>
      <trkpt lat="47.80601" lon="-3.51944">
        <ele>25</ele>
        <time>2019-07-15T09:55:42Z</time>
      </trkpt>
      <trkpt lat="47.80601" lon="-3.51939">
        <ele>25</ele>
        <time>2019-07-15T09:55:43Z</time>
      </trkpt>
      <trkpt lat="47.806" lon="-3.51935">
        <ele>25</ele>
        <time>2019-07-15T09:55:44Z</time>
      </trkpt>
      <trkpt lat="47.806" lon="-3.51931">
        <ele>26</ele>
        <time>2019-07-15T09:55:45Z</time>
      </trkpt>
      <trkpt lat="47.806" lon="-3.51927">
        <ele>26</ele>
        <time>2019-07-15T09:55:46Z</time>
      </trkpt>
      <trkpt lat="47.806" lon="-3.51923">
        <ele>26</ele>
        <time>2019-07-15T09:55:47Z</time>
      </trkpt>
      <trkpt lat="47.80599" lon="-3.5192">
        <ele>26</ele>
        <time>2019-07-15T09:55:48Z</time>
      </trkpt>
      <trkpt lat="47.806" lon="-3.51917">
        <ele>26</ele>
        <time>2019-07-15T09:55:49Z</time>
      </trkpt>
      <trkpt lat="47.806" lon="-3.51913">
        <ele>26</ele>
        <time>2019-07-15T09:55:50Z</time>
      </trkpt>
      <trkpt lat="47.806" lon="-3.51909">
        <ele>26</ele>
        <time>2019-07-15T09:55:51Z</time>
      </trkpt>
      <trkpt lat="47.80599" lon="-3.51905">
        <ele>26</ele>
        <time>2019-07-15T09:55:52Z</time>
      </trkpt>
      <trkpt lat="47.80599" lon="-3.51901">
        <ele>26</ele>
        <time>2019-07-15T09:55:53Z</time>
      </trkpt>
      <trkpt lat="47.80598" lon="-3.51897">
        <ele>26</ele>
        <time>2019-07-15T09:55:54Z</time>
      </trkpt>
      <trkpt lat="47.80598" lon="-3.51893">
        <ele>26</ele>
        <time>2019-07-15T09:55:55Z</time>
      </trkpt>
      <trkpt lat="47.80598" lon="-3.51889">
        <ele>26</ele>
        <time>2019-07-15T09:55:56Z</time>
      </trkpt>
      <trkpt lat="47.80597" lon="-3.51885">
        <ele>26</ele>
        <time>2019-07-15T09:55:57Z</time>
      </trkpt>
      <trkpt lat="47.80596" lon="-3.5188">
        <ele>26</ele>
        <time>2019-07-15T09:55:58Z</time>
      </trkpt>
      <trkpt lat="47.80596" lon="-3.51876">
        <ele>26</ele>
        <time>2019-07-15T09:55:59Z</time>
      </trkpt>
      <trkpt lat="47.80595" lon="-3.51871">
        <ele>27</ele>
        <time>2019-07-15T09:56:00Z</time>
      </trkpt>
      <trkpt lat="47.80595" lon="-3.51867">
        <ele>27</ele>
        <time>2019-07-15T09:56:01Z</time>
      </trkpt>
      <trkpt lat="47.80595" lon="-3.51862">
        <ele>27</ele>
        <time>2019-07-15T09:56:02Z</time>
      </trkpt>
      <trkpt lat="47.80595" lon="-3.51858">
        <ele>27</ele>
        <time>2019-07-15T09:56:03Z</time>
      </trkpt>
      <trkpt lat="47.80595" lon="-3.51853">
        <ele>27</ele>
        <time>2019-07-15T09:56:04Z</time>
      </trkpt>
      <trkpt lat="47.80595" lon="-3.51848">
        <ele>28</ele>
        <time>2019-07-15T09:56:05Z</time>
      </trkpt>
      <trkpt lat="47.80596" lon="-3.51844">
        <ele>28</ele>
        <time>2019-07-15T09:56:06Z</time>
      </trkpt>
      <trkpt lat="47.80596" lon="-3.51839">
        <ele>28</ele>
        <time>2019-07-15T09:56:07Z</time>
      </trkpt>
      <trkpt lat="47.80596" lon="-3.51835">
        <ele>28</ele>
        <time>2019-07-15T09:56:08Z</time>
      </trkpt>
      <trkpt lat="47.80596" lon="-3.51831">
        <ele>28</ele>
        <time>2019-07-15T09:56:09Z</time>
      </trkpt>
      <trkpt lat="47.80597" lon="-3.51826">
        <ele>29</ele>
        <time>2019-07-15T09:56:10Z</time>
      </trkpt>
      <trkpt lat="47.80597" lon="-3.51822">
        <ele>29</ele>
        <time>2019-07-15T09:56:11Z</time>
      </trkpt>
      <trkpt lat="47.80598" lon="-3.51818">
        <ele>29</ele>
        <time>2019-07-15T09:56:12Z</time>
      </trkpt>
      <trkpt lat="47.80598" lon="-3.51813">
        <ele>29</ele>
        <time>2019-07-15T09:56:13Z</time>
      </trkpt>
      <trkpt lat="47.80599" lon="-3.51809">
        <ele>29</ele>
        <time>2019-07-15T09:56:14Z</time>
      </trkpt>
      <trkpt lat="47.80599" lon="-3.51804">
        <ele>30</ele>
        <time>2019-07-15T09:56:15Z</time>
      </trkpt>
      <trkpt lat="47.80599" lon="-3.518">
        <ele>30</ele>
        <time>2019-07-15T09:56:16Z</time>
      </trkpt>
      <trkpt lat="47.80599" lon="-3.51795">
        <ele>30</ele>
        <time>2019-07-15T09:56:17Z</time>
      </trkpt>
      <trkpt lat="47.806" lon="-3.51791">
        <ele>30</ele>
        <time>2019-07-15T09:56:18Z</time>
      </trkpt>
      <trkpt lat="47.806" lon="-3.51787">
        <ele>31</ele>
        <time>2019-07-15T09:56:19Z</time>
      </trkpt>
      <trkpt lat="47.80601" lon="-3.51782">
        <ele>31</ele>
        <time>2019-07-15T09:56:20Z</time>
      </trkpt>
      <trkpt lat="47.80602" lon="-3.51779">
        <ele>31</ele>
        <time>2019-07-15T09:56:21Z</time>
      </trkpt>
      <trkpt lat="47.80603" lon="-3.51775">
        <ele>32</ele>
        <time>2019-07-15T09:56:22Z</time>
      </trkpt>
      <trkpt lat="47.80605" lon="-3.51773">
        <ele>32</ele>
        <time>2019-07-15T09:56:23Z</time>
      </trkpt>
      <trkpt lat="47.80607" lon="-3.51771">
        <ele>32</ele>
        <time>2019-07-15T09:56:24Z</time>
      </trkpt>
      <trkpt lat="47.80609" lon="-3.5177">
        <ele>32</ele>
        <time>2019-07-15T09:56:25Z</time>
      </trkpt>
      <trkpt lat="47.80611" lon="-3.5177">
        <ele>33</ele>
        <time>2019-07-15T09:56:26Z</time>
      </trkpt>
      <trkpt lat="47.80614" lon="-3.5177">
        <ele>33</ele>
        <time>2019-07-15T09:56:27Z</time>
      </trkpt>
      <trkpt lat="47.80616" lon="-3.51771">
        <ele>33</ele>
        <time>2019-07-15T09:56:28Z</time>
      </trkpt>
      <trkpt lat="47.80619" lon="-3.51772">
        <ele>33</ele>
        <time>2019-07-15T09:56:29Z</time>
      </trkpt>
      <trkpt lat="47.80621" lon="-3.51773">
        <ele>34</ele>
        <time>2019-07-15T09:56:30Z</time>
      </trkpt>
      <trkpt lat="47.80624" lon="-3.51773">
        <ele>34</ele>
        <time>2019-07-15T09:56:31Z</time>
      </trkpt>
      <trkpt lat="47.80626" lon="-3.51774">
        <ele>34</ele>
        <time>2019-07-15T09:56:32Z</time>
      </trkpt>
      <trkpt lat="47.80628" lon="-3.51776">
        <ele>34</ele>
        <time>2019-07-15T09:56:33Z</time>
      </trkpt>
      <trkpt lat="47.80631" lon="-3.51777">
        <ele>35</ele>
        <time>2019-07-15T09:56:34Z</time>
      </trkpt>
      <trkpt lat="47.80633" lon="-3.51778">
        <ele>35</ele>
        <time>2019-07-15T09:56:35Z</time>
      </trkpt>
      <trkpt lat="47.80636" lon="-3.51779">
        <ele>35</ele>
        <time>2019-07-15T09:56:36Z</time>
      </trkpt>
      <trkpt lat="47.80638" lon="-3.5178">
        <ele>36</ele>
        <time>2019-07-15T09:56:37Z</time>
      </trkpt>
      <trkpt lat="47.80641" lon="-3.51781">
        <ele>36</ele>
        <time>2019-07-15T09:56:38Z</time>
      </trkpt>
      <trkpt lat="47.80644" lon="-3.51782">
        <ele>36</ele>
        <time>2019-07-15T09:56:39Z</time>
      </trkpt>
      <trkpt lat="47.80646" lon="-3.51783">
        <ele>36</ele>
        <time>2019-07-15T09:56:40Z</time>
      </trkpt>
      <trkpt lat="47.80648" lon="-3.51784">
        <ele>37</ele>
        <time>2019-07-15T09:56:41Z</time>
      </trkpt>
      <trkpt lat="47.80651" lon="-3.51786">
        <ele>37</ele>
        <time>2019-07-15T09:56:42Z</time>
      </trkpt>
      <trkpt lat="47.80654" lon="-3.51787">
        <ele>37</ele>
        <time>2019-07-15T09:56:43Z</time>
      </trkpt>
      <trkpt lat="47.80656" lon="-3.51788">
        <ele>38</ele>
        <time>2019-07-15T09:56:44Z</time>
      </trkpt>
      <trkpt lat="47.80659" lon="-3.51789">
        <ele>38</ele>
        <time>2019-07-15T09:56:45Z</time>
      </trkpt>
      <trkpt lat="47.80661" lon="-3.5179">
        <ele>38</ele>
        <time>2019-07-15T09:56:46Z</time>
      </trkpt>
      <trkpt lat="47.80664" lon="-3.51791">
        <ele>39</ele>
        <time>2019-07-15T09:56:47Z</time>
      </trkpt>
      <trkpt lat="47.80667" lon="-3.51792">
        <ele>39</ele>
        <time>2019-07-15T09:56:48Z</time>
      </trkpt>
      <trkpt lat="47.8067" lon="-3.51793">
        <ele>39</ele>
        <time>2019-07-15T09:56:49Z</time>
      </trkpt>
      <trkpt lat="47.80672" lon="-3.51794">
        <ele>39</ele>
        <time>2019-07-15T09:56:50Z</time>
      </trkpt>
      <trkpt lat="47.80675" lon="-3.51795">
        <ele>40</ele>
        <time>2019-07-15T09:56:51Z</time>
      </trkpt>
      <trkpt lat="47.80678" lon="-3.51796">
        <ele>40</ele>
        <time>2019-07-15T09:56:52Z</time>
      </trkpt>
      <trkpt lat="47.8068" lon="-3.51798">
        <ele>40</ele>
        <time>2019-07-15T09:56:53Z</time>
      </trkpt>
      <trkpt lat="47.80683" lon="-3.51799">
        <ele>40</ele>
        <time>2019-07-15T09:56:54Z</time>
      </trkpt>
      <trkpt lat="47.80686" lon="-3.518">
        <ele>40</ele>
        <time>2019-07-15T09:56:55Z</time>
      </trkpt>
      <trkpt lat="47.80689" lon="-3.51801">
        <ele>41</ele>
        <time>2019-07-15T09:56:56Z</time>
      </trkpt>
      <trkpt lat="47.80691" lon="-3.51803">
        <ele>41</ele>
        <time>2019-07-15T09:56:57Z</time>
      </trkpt>
      <trkpt lat="47.80694" lon="-3.51804">
        <ele>41</ele>
        <time>2019-07-15T09:56:58Z</time>
      </trkpt>
      <trkpt lat="47.80697" lon="-3.51806">
        <ele>42</ele>
        <time>2019-07-15T09:56:59Z</time>
      </trkpt>
      <trkpt lat="47.80699" lon="-3.51808">
        <ele>42</ele>
        <time>2019-07-15T09:57:00Z</time>
      </trkpt>
      <trkpt lat="47.80702" lon="-3.51811">
        <ele>42</ele>
        <time>2019-07-15T09:57:01Z</time>
      </trkpt>
      <trkpt lat="47.80704" lon="-3.51813">
        <ele>42</ele>
        <time>2019-07-15T09:57:02Z</time>
      </trkpt>
      <trkpt lat="47.80707" lon="-3.51816">
        <ele>42</ele>
        <time>2019-07-15T09:57:03Z</time>
      </trkpt>
      <trkpt lat="47.8071" lon="-3.51819">
        <ele>42</ele>
        <time>2019-07-15T09:57:04Z</time>
      </trkpt>
      <trkpt lat="47.80712" lon="-3.51822">
        <ele>42</ele>
        <time>2019-07-15T09:57:05Z</time>
      </trkpt>
      <trkpt lat="47.80715" lon="-3.51825">
        <ele>42</ele>
        <time>2019-07-15T09:57:06Z</time>
      </trkpt>
      <trkpt lat="47.80717" lon="-3.51828">
        <ele>42</ele>
        <time>2019-07-15T09:57:07Z</time>
      </trkpt>
      <trkpt lat="47.8072" lon="-3.51831">
        <ele>42</ele>
        <time>2019-07-15T09:57:08Z</time>
      </trkpt>
      <trkpt lat="47.80723" lon="-3.51835">
        <ele>42</ele>
        <time>2019-07-15T09:57:09Z</time>
      </trkpt>
      <trkpt lat="47.80726" lon="-3.51838">
        <ele>42</ele>
        <time>2019-07-15T09:57:10Z</time>
      </trkpt>
      <trkpt lat="47.8073" lon="-3.51842">
        <ele>42</ele>
        <time>2019-07-15T09:57:11Z</time>
      </trkpt>
      <trkpt lat="47.80733" lon="-3.51845">
        <ele>42</ele>
        <time>2019-07-15T09:57:12Z</time>
      </trkpt>
      <trkpt lat="47.80736" lon="-3.51848">
        <ele>42</ele>
        <time>2019-07-15T09:57:13Z</time>
      </trkpt>
      <trkpt lat="47.80739" lon="-3.51852">
        <ele>42</ele>
        <time>2019-07-15T09:57:14Z</time>
      </trkpt>
      <trkpt lat="47.80742" lon="-3.51855">
        <ele>42</ele>
        <time>2019-07-15T09:57:15Z</time>
      </trkpt>
      <trkpt lat="47.80746" lon="-3.51859">
        <ele>42</ele>
        <time>2019-07-15T09:57:16Z</time>
      </trkpt>
      <trkpt lat="47.80749" lon="-3.51863">
        <ele>42</ele>
        <time>2019-07-15T09:57:17Z</time>
      </trkpt>
      <trkpt lat="47.80753" lon="-3.51867">
        <ele>42</ele>
        <time>2019-07-15T09:57:18Z</time>
      </trkpt>
      <trkpt lat="47.80756" lon="-3.51871">
        <ele>42</ele>
        <time>2019-07-15T09:57:19Z</time>
      </trkpt>
      <trkpt lat="47.8076" lon="-3.51874">
        <ele>42</ele>
        <time>2019-07-15T09:57:20Z</time>
      </trkpt>
      <trkpt lat="47.80764" lon="-3.51878">
        <ele>42</ele>
        <time>2019-07-15T09:57:21Z</time>
      </trkpt>
      <trkpt lat="47.80767" lon="-3.51882">
        <ele>42</ele>
        <time>2019-07-15T09:57:22Z</time>
      </trkpt>
      <trkpt lat="47.80771" lon="-3.51886">
        <ele>42</ele>
        <time>2019-07-15T09:57:23Z</time>
      </trkpt>
      <trkpt lat="47.80775" lon="-3.5189">
        <ele>42</ele>
        <time>2019-07-15T09:57:24Z</time>
      </trkpt>
      <trkpt lat="47.80778" lon="-3.51894">
        <ele>42</ele>
        <time>2019-07-15T09:57:25Z</time>
      </trkpt>
      <trkpt lat="47.80782" lon="-3.51897">
        <ele>42</ele>
        <time>2019-07-15T09:57:26Z</time>
      </trkpt>
      <trkpt lat="47.80786" lon="-3.51901">
        <ele>42</ele>
        <time>2019-07-15T09:57:27Z</time>
      </trkpt>
      <trkpt lat="47.8079" lon="-3.51904">
        <ele>42</ele>
        <time>2019-07-15T09:57:28Z</time>
      </trkpt>
      <trkpt lat="47.80793" lon="-3.51908">
        <ele>42</ele>
        <time>2019-07-15T09:57:29Z</time>
      </trkpt>
      <trkpt lat="47.80798" lon="-3.51911">
        <ele>42</ele>
        <time>2019-07-15T09:57:30Z</time>
      </trkpt>
      <trkpt lat="47.80802" lon="-3.51914">
        <ele>42</ele>
        <time>2019-07-15T09:57:31Z</time>
      </trkpt>
      <trkpt lat="47.80806" lon="-3.51917">
        <ele>42</ele>
        <time>2019-07-15T09:57:32Z</time>
      </trkpt>
      <trkpt lat="47.8081" lon="-3.51919">
        <ele>42</ele>
        <time>2019-07-15T09:57:33Z</time>
      </trkpt>
      <trkpt lat="47.80814" lon="-3.51922">
        <ele>42</ele>
        <time>2019-07-15T09:57:34Z</time>
      </trkpt>
      <trkpt lat="47.80818" lon="-3.51925">
        <ele>42</ele>
        <time>2019-07-15T09:57:35Z</time>
      </trkpt>
      <trkpt lat="47.80822" lon="-3.51929">
        <ele>42</ele>
        <time>2019-07-15T09:57:36Z</time>
      </trkpt>
      <trkpt lat="47.80827" lon="-3.51931">
        <ele>42</ele>
        <time>2019-07-15T09:57:37Z</time>
      </trkpt>
      <trkpt lat="47.80831" lon="-3.51935">
        <ele>42</ele>
        <time>2019-07-15T09:57:38Z</time>
      </trkpt>
      <trkpt lat="47.80836" lon="-3.51938">
        <ele>42</ele>
        <time>2019-07-15T09:57:39Z</time>
      </trkpt>
      <trkpt lat="47.8084" lon="-3.51941">
        <ele>42</ele>
        <time>2019-07-15T09:57:40Z</time>
      </trkpt>
      <trkpt lat="47.80845" lon="-3.51945">
        <ele>42</ele>
        <time>2019-07-15T09:57:41Z</time>
      </trkpt>
      <trkpt lat="47.8085" lon="-3.51949">
        <ele>42</ele>
        <time>2019-07-15T09:57:42Z</time>
      </trkpt>
      <trkpt lat="47.80855" lon="-3.51953">
        <ele>41</ele>
        <time>2019-07-15T09:57:43Z</time>
      </trkpt>
      <trkpt lat="47.8086" lon="-3.51956">
        <ele>41</ele>
        <time>2019-07-15T09:57:44Z</time>
      </trkpt>
      <trkpt lat="47.80865" lon="-3.5196">
        <ele>41</ele>
        <time>2019-07-15T09:57:45Z</time>
      </trkpt>
      <trkpt lat="47.8087" lon="-3.51964">
        <ele>41</ele>
        <time>2019-07-15T09:57:46Z</time>
      </trkpt>
      <trkpt lat="47.80875" lon="-3.51968">
        <ele>41</ele>
        <time>2019-07-15T09:57:47Z</time>
      </trkpt>
      <trkpt lat="47.8088" lon="-3.51972">
        <ele>41</ele>
        <time>2019-07-15T09:57:48Z</time>
      </trkpt>
      <trkpt lat="47.80885" lon="-3.51975">
        <ele>41</ele>
        <time>2019-07-15T09:57:49Z</time>
      </trkpt>
      <trkpt lat="47.8089" lon="-3.51979">
        <ele>40</ele>
        <time>2019-07-15T09:57:50Z</time>
      </trkpt>
      <trkpt lat="47.80895" lon="-3.51983">
        <ele>40</ele>
        <time>2019-07-15T09:57:51Z</time>
      </trkpt>
      <trkpt lat="47.809" lon="-3.51986">
        <ele>40</ele>
        <time>2019-07-15T09:57:52Z</time>
      </trkpt>
      <trkpt lat="47.80905" lon="-3.5199">
        <ele>40</ele>
        <time>2019-07-15T09:57:53Z</time>
      </trkpt>
      <trkpt lat="47.8091" lon="-3.51994">
        <ele>40</ele>
        <time>2019-07-15T09:57:54Z</time>
      </trkpt>
      <trkpt lat="47.80915" lon="-3.51997">
        <ele>40</ele>
        <time>2019-07-15T09:57:55Z</time>
      </trkpt>
      <trkpt lat="47.8092" lon="-3.52001">
        <ele>40</ele>
        <time>2019-07-15T09:57:56Z</time>
      </trkpt>
      <trkpt lat="47.80924" lon="-3.52005">
        <ele>40</ele>
        <time>2019-07-15T09:57:57Z</time>
      </trkpt>
      <trkpt lat="47.80929" lon="-3.52009">
        <ele>40</ele>
        <time>2019-07-15T09:57:58Z</time>
      </trkpt>
      <trkpt lat="47.80934" lon="-3.52012">
        <ele>39</ele>
        <time>2019-07-15T09:57:59Z</time>
      </trkpt>
      <trkpt lat="47.80939" lon="-3.52014">
        <ele>39</ele>
        <time>2019-07-15T09:58:00Z</time>
      </trkpt>
      <trkpt lat="47.80944" lon="-3.52017">
        <ele>39</ele>
        <time>2019-07-15T09:58:01Z</time>
      </trkpt>
      <trkpt lat="47.80948" lon="-3.52019">
        <ele>39</ele>
        <time>2019-07-15T09:58:02Z</time>
      </trkpt>
      <trkpt lat="47.80953" lon="-3.52021">
        <ele>39</ele>
        <time>2019-07-15T09:58:03Z</time>
      </trkpt>
      <trkpt lat="47.80958" lon="-3.52024">
        <ele>39</ele>
        <time>2019-07-15T09:58:04Z</time>
      </trkpt>
      <trkpt lat="47.80963" lon="-3.52027">
        <ele>39</ele>
        <time>2019-07-15T09:58:05Z</time>
      </trkpt>
      <trkpt lat="47.80968" lon="-3.5203">
        <ele>39</ele>
        <time>2019-07-15T09:58:06Z</time>
      </trkpt>
      <trkpt lat="47.80973" lon="-3.52033">
        <ele>39</ele>
        <time>2019-07-15T09:58:07Z</time>
      </trkpt>
      <trkpt lat="47.80978" lon="-3.52036">
        <ele>38</ele>
        <time>2019-07-15T09:58:08Z</time>
      </trkpt>
      <trkpt lat="47.80983" lon="-3.52039">
        <ele>38</ele>
        <time>2019-07-15T09:58:09Z</time>
      </trkpt>
      <trkpt lat="47.80989" lon="-3.52042">
        <ele>38</ele>
        <time>2019-07-15T09:58:10Z</time>
      </trkpt>
      <trkpt lat="47.80996" lon="-3.52046">
        <ele>37</ele>
        <time>2019-07-15T09:58:11Z</time>
      </trkpt>
      <trkpt lat="47.81002" lon="-3.5205">
        <ele>37</ele>
        <time>2019-07-15T09:58:12Z</time>
      </trkpt>
      <trkpt lat="47.81008" lon="-3.52054">
        <ele>37</ele>
        <time>2019-07-15T09:58:13Z</time>
      </trkpt>
      <trkpt lat="47.81015" lon="-3.52058">
        <ele>36</ele>
        <time>2019-07-15T09:58:14Z</time>
      </trkpt>
      <trkpt lat="47.81021" lon="-3.52061">
        <ele>36</ele>
        <time>2019-07-15T09:58:15Z</time>
      </trkpt>
      <trkpt lat="47.81026" lon="-3.52064">
        <ele>36</ele>
        <time>2019-07-15T09:58:16Z</time>
      </trkpt>
      <trkpt lat="47.81032" lon="-3.52067">
        <ele>35</ele>
        <time>2019-07-15T09:58:17Z</time>
      </trkpt>
      <trkpt lat="47.81036" lon="-3.5207">
        <ele>35</ele>
        <time>2019-07-15T09:58:18Z</time>
      </trkpt>
      <trkpt lat="47.81039" lon="-3.52075">
        <ele>34</ele>
        <time>2019-07-15T09:58:19Z</time>
      </trkpt>
      <trkpt lat="47.8104" lon="-3.52081">
        <ele>34</ele>
        <time>2019-07-15T09:58:20Z</time>
      </trkpt>
      <trkpt lat="47.81039" lon="-3.52088">
        <ele>34</ele>
        <time>2019-07-15T09:58:21Z</time>
      </trkpt>
      <trkpt lat="47.81038" lon="-3.52095">
        <ele>34</ele>
        <time>2019-07-15T09:58:22Z</time>
      </trkpt>
      <trkpt lat="47.81036" lon="-3.52103">
        <ele>33</ele>
        <time>2019-07-15T09:58:23Z</time>
      </trkpt>
      <trkpt lat="47.81035" lon="-3.52111">
        <ele>33</ele>
        <time>2019-07-15T09:58:24Z</time>
      </trkpt>
      <trkpt lat="47.81034" lon="-3.52118">
        <ele>33</ele>
        <time>2019-07-15T09:58:25Z</time>
      </trkpt>
      <trkpt lat="47.81034" lon="-3.52126">
        <ele>33</ele>
        <time>2019-07-15T09:58:26Z</time>
      </trkpt>
      <trkpt lat="47.81034" lon="-3.52132">
        <ele>33</ele>
        <time>2019-07-15T09:58:27Z</time>
      </trkpt>
      <trkpt lat="47.81036" lon="-3.52139">
        <ele>32</ele>
        <time>2019-07-15T09:58:28Z</time>
      </trkpt>
      <trkpt lat="47.8104" lon="-3.52146">
        <ele>32</ele>
        <time>2019-07-15T09:58:29Z</time>
      </trkpt>
      <trkpt lat="47.81044" lon="-3.52153">
        <ele>32</ele>
        <time>2019-07-15T09:58:30Z</time>
      </trkpt>
      <trkpt lat="47.81048" lon="-3.5216">
        <ele>32</ele>
        <time>2019-07-15T09:58:31Z</time>
      </trkpt>
      <trkpt lat="47.81054" lon="-3.52167">
        <ele>31</ele>
        <time>2019-07-15T09:58:32Z</time>
      </trkpt>
      <trkpt lat="47.81061" lon="-3.52174">
        <ele>31</ele>
        <time>2019-07-15T09:58:33Z</time>
      </trkpt>
      <trkpt lat="47.81068" lon="-3.52182">
        <ele>30</ele>
        <time>2019-07-15T09:58:34Z</time>
      </trkpt>
      <trkpt lat="47.81074" lon="-3.52189">
        <ele>29</ele>
        <time>2019-07-15T09:58:35Z</time>
      </trkpt>
      <trkpt lat="47.81081" lon="-3.52196">
        <ele>29</ele>
        <time>2019-07-15T09:58:36Z</time>
      </trkpt>
      <trkpt lat="47.81088" lon="-3.52204">
        <ele>28</ele>
        <time>2019-07-15T09:58:37Z</time>
      </trkpt>
      <trkpt lat="47.81095" lon="-3.5221">
        <ele>28</ele>
        <time>2019-07-15T09:58:38Z</time>
      </trkpt>
      <trkpt lat="47.81101" lon="-3.52216">
        <ele>27</ele>
        <time>2019-07-15T09:58:39Z</time>
      </trkpt>
      <trkpt lat="47.81108" lon="-3.52222">
        <ele>27</ele>
        <time>2019-07-15T09:58:40Z</time>
      </trkpt>
      <trkpt lat="47.81114" lon="-3.52229">
        <ele>26</ele>
        <time>2019-07-15T09:58:41Z</time>
      </trkpt>
      <trkpt lat="47.81121" lon="-3.52236">
        <ele>25</ele>
        <time>2019-07-15T09:58:42Z</time>
      </trkpt>
      <trkpt lat="47.81127" lon="-3.52242">
        <ele>25</ele>
        <time>2019-07-15T09:58:43Z</time>
      </trkpt>
      <trkpt lat="47.81133" lon="-3.52248">
        <ele>25</ele>
        <time>2019-07-15T09:58:44Z</time>
      </trkpt>
      <trkpt lat="47.81139" lon="-3.52255">
        <ele>24</ele>
        <time>2019-07-15T09:58:45Z</time>
      </trkpt>
      <trkpt lat="47.81146" lon="-3.52261">
        <ele>24</ele>
        <time>2019-07-15T09:58:46Z</time>
      </trkpt>
      <trkpt lat="47.81151" lon="-3.52267">
        <ele>23</ele>
        <time>2019-07-15T09:58:47Z</time>
      </trkpt>
      <trkpt lat="47.81157" lon="-3.52274">
        <ele>23</ele>
        <time>2019-07-15T09:58:48Z</time>
      </trkpt>
      <trkpt lat="47.81163" lon="-3.5228">
        <ele>23</ele>
        <time>2019-07-15T09:58:49Z</time>
      </trkpt>
      <trkpt lat="47.81169" lon="-3.52285">
        <ele>22</ele>
        <time>2019-07-15T09:58:50Z</time>
      </trkpt>
      <trkpt lat="47.81175" lon="-3.52291">
        <ele>22</ele>
        <time>2019-07-15T09:58:51Z</time>
      </trkpt>
      <trkpt lat="47.81181" lon="-3.52297">
        <ele>22</ele>
        <time>2019-07-15T09:58:52Z</time>
      </trkpt>
      <trkpt lat="47.81186" lon="-3.52304">
        <ele>22</ele>
        <time>2019-07-15T09:58:53Z</time>
      </trkpt>
      <trkpt lat="47.8119" lon="-3.52313">
        <ele>21</ele>
        <time>2019-07-15T09:58:54Z</time>
      </trkpt>
      <trkpt lat="47.81194" lon="-3.52322">
        <ele>21</ele>
        <time>2019-07-15T09:58:55Z</time>
      </trkpt>
      <trkpt lat="47.81198" lon="-3.52331">
        <ele>20</ele>
        <time>2019-07-15T09:58:56Z</time>
      </trkpt>
      <trkpt lat="47.81202" lon="-3.52341">
        <ele>20</ele>
        <time>2019-07-15T09:58:57Z</time>
      </trkpt>
      <trkpt lat="47.81206" lon="-3.52351">
        <ele>20</ele>
        <time>2019-07-15T09:58:58Z</time>
      </trkpt>
      <trkpt lat="47.8121" lon="-3.52361">
        <ele>19</ele>
        <time>2019-07-15T09:58:59Z</time>
      </trkpt>
      <trkpt lat="47.81214" lon="-3.52373">
        <ele>19</ele>
        <time>2019-07-15T09:59:00Z</time>
      </trkpt>
      <trkpt lat="47.81218" lon="-3.52386">
        <ele>18</ele>
        <time>2019-07-15T09:59:01Z</time>
      </trkpt>
      <trkpt lat="47.81223" lon="-3.52401">
        <ele>17</ele>
        <time>2019-07-15T09:59:02Z</time>
      </trkpt>
      <trkpt lat="47.81228" lon="-3.52416">
        <ele>17</ele>
        <time>2019-07-15T09:59:03Z</time>
      </trkpt>
      <trkpt lat="47.81233" lon="-3.52429">
        <ele>16</ele>
        <time>2019-07-15T09:59:04Z</time>
      </trkpt>
      <trkpt lat="47.81239" lon="-3.5244">
        <ele>15</ele>
        <time>2019-07-15T09:59:05Z</time>
      </trkpt>
      <trkpt lat="47.81245" lon="-3.5245">
        <ele>14</ele>
        <time>2019-07-15T09:59:06Z</time>
      </trkpt>
      <trkpt lat="47.81251" lon="-3.52457">
        <ele>13</ele>
        <time>2019-07-15T09:59:07Z</time>
      </trkpt>
      <trkpt lat="47.81259" lon="-3.52462">
        <ele>12</ele>
        <time>2019-07-15T09:59:08Z</time>
      </trkpt>
      <trkpt lat="47.81267" lon="-3.52466">
        <ele>12</ele>
        <time>2019-07-15T09:59:09Z</time>
      </trkpt>
      <trkpt lat="47.81275" lon="-3.5247">
        <ele>11</ele>
        <time>2019-07-15T09:59:10Z</time>
      </trkpt>
      <trkpt lat="47.81282" lon="-3.52474">
        <ele>10</ele>
        <time>2019-07-15T09:59:11Z</time>
      </trkpt>
      <trkpt lat="47.8129" lon="-3.52479">
        <ele>9</ele>
        <time>2019-07-15T09:59:12Z</time>
      </trkpt>
      <trkpt lat="47.81296" lon="-3.52486">
        <ele>9</ele>
        <time>2019-07-15T09:59:13Z</time>
      </trkpt>
      <trkpt lat="47.81302" lon="-3.52494">
        <ele>8</ele>
        <time>2019-07-15T09:59:14Z</time>
      </trkpt>
      <trkpt lat="47.81307" lon="-3.52504">
        <ele>8</ele>
        <time>2019-07-15T09:59:15Z</time>
      </trkpt>
      <trkpt lat="47.81311" lon="-3.52514">
        <ele>8</ele>
        <time>2019-07-15T09:59:16Z</time>
      </trkpt>
      <trkpt lat="47.81315" lon="-3.52524">
        <ele>8</ele>
        <time>2019-07-15T09:59:17Z</time>
      </trkpt>
      <trkpt lat="47.81319" lon="-3.52532">
        <ele>8</ele>
        <time>2019-07-15T09:59:18Z</time>
      </trkpt>
      <trkpt lat="47.81321" lon="-3.5254">
        <ele>8</ele>
        <time>2019-07-15T09:59:19Z</time>
      </trkpt>
      <trkpt lat="47.81324" lon="-3.52547">
        <ele>8</ele>
        <time>2019-07-15T09:59:20Z</time>
      </trkpt>
      <trkpt lat="47.81326" lon="-3.52553">
        <ele>8</ele>
        <time>2019-07-15T09:59:21Z</time>
      </trkpt>
      <trkpt lat="47.81327" lon="-3.52557">
        <ele>8</ele>
        <time>2019-07-15T09:59:22Z</time>
      </trkpt>
      <trkpt lat="47.81329" lon="-3.52561">
        <ele>8</ele>
        <time>2019-07-15T09:59:23Z</time>
      </trkpt>
      <trkpt lat="47.8133" lon="-3.52565">
        <ele>8</ele>
        <time>2019-07-15T09:59:24Z</time>
      </trkpt>
      <trkpt lat="47.8133" lon="-3.52568">
        <ele>8</ele>
        <time>2019-07-15T09:59:25Z</time>
      </trkpt>
      <trkpt lat="47.81331" lon="-3.52571">
        <ele>8</ele>
        <time>2019-07-15T09:59:26Z</time>
      </trkpt>
      <trkpt lat="47.81332" lon="-3.52574">
        <ele>8</ele>
        <time>2019-07-15T09:59:27Z</time>
      </trkpt>
      <trkpt lat="47.81333" lon="-3.52578">
        <ele>8</ele>
        <time>2019-07-15T09:59:28Z</time>
      </trkpt>
      <trkpt lat="47.81334" lon="-3.52581">
        <ele>9</ele>
        <time>2019-07-15T09:59:29Z</time>
      </trkpt>
      <trkpt lat="47.81336" lon="-3.52584">
        <ele>9</ele>
        <time>2019-07-15T09:59:30Z</time>
      </trkpt>
      <trkpt lat="47.81338" lon="-3.52586">
        <ele>9</ele>
        <time>2019-07-15T09:59:31Z</time>
      </trkpt>
      <trkpt lat="47.81339" lon="-3.52589">
        <ele>9</ele>
        <time>2019-07-15T09:59:32Z</time>
      </trkpt>
      <trkpt lat="47.8134" lon="-3.52592">
        <ele>9</ele>
        <time>2019-07-15T09:59:33Z</time>
      </trkpt>
      <trkpt lat="47.81341" lon="-3.52595">
        <ele>10</ele>
        <time>2019-07-15T09:59:34Z</time>
      </trkpt>
      <trkpt lat="47.81342" lon="-3.52599">
        <ele>10</ele>
        <time>2019-07-15T09:59:35Z</time>
      </trkpt>
      <trkpt lat="47.81343" lon="-3.52602">
        <ele>10</ele>
        <time>2019-07-15T09:59:36Z</time>
      </trkpt>
      <trkpt lat="47.81344" lon="-3.52605">
        <ele>10</ele>
        <time>2019-07-15T09:59:37Z</time>
      </trkpt>
      <trkpt lat="47.81346" lon="-3.52608">
        <ele>11</ele>
        <time>2019-07-15T09:59:38Z</time>
      </trkpt>
      <trkpt lat="47.81348" lon="-3.52611">
        <ele>11</ele>
        <time>2019-07-15T09:59:39Z</time>
      </trkpt>
      <trkpt lat="47.8135" lon="-3.52614">
        <ele>11</ele>
        <time>2019-07-15T09:59:40Z</time>
      </trkpt>
      <trkpt lat="47.81351" lon="-3.52617">
        <ele>11</ele>
        <time>2019-07-15T09:59:41Z</time>
      </trkpt>
      <trkpt lat="47.81353" lon="-3.5262">
        <ele>12</ele>
        <time>2019-07-15T09:59:42Z</time>
      </trkpt>
      <trkpt lat="47.81355" lon="-3.52623">
        <ele>12</ele>
        <time>2019-07-15T09:59:43Z</time>
      </trkpt>
      <trkpt lat="47.81356" lon="-3.52625">
        <ele>12</ele>
        <time>2019-07-15T09:59:44Z</time>
      </trkpt>
      <trkpt lat="47.81358" lon="-3.52628">
        <ele>12</ele>
        <time>2019-07-15T09:59:45Z</time>
      </trkpt>
      <trkpt lat="47.8136" lon="-3.5263">
        <ele>13</ele>
        <time>2019-07-15T09:59:46Z</time>
      </trkpt>
      <trkpt lat="47.81362" lon="-3.52633">
        <ele>13</ele>
        <time>2019-07-15T09:59:47Z</time>
      </trkpt>
      <trkpt lat="47.81363" lon="-3.52635">
        <ele>13</ele>
        <time>2019-07-15T09:59:48Z</time>
      </trkpt>
      <trkpt lat="47.81366" lon="-3.52637">
        <ele>14</ele>
        <time>2019-07-15T09:59:49Z</time>
      </trkpt>
      <trkpt lat="47.81368" lon="-3.52639">
        <ele>14</ele>
        <time>2019-07-15T09:59:50Z</time>
      </trkpt>
      <trkpt lat="47.8137" lon="-3.52641">
        <ele>15</ele>
        <time>2019-07-15T09:59:51Z</time>
      </trkpt>
      <trkpt lat="47.81372" lon="-3.52642">
        <ele>15</ele>
        <time>2019-07-15T09:59:52Z</time>
      </trkpt>
      <trkpt lat="47.81373" lon="-3.52644">
        <ele>15</ele>
        <time>2019-07-15T09:59:53Z</time>
      </trkpt>
      <trkpt lat="47.81374" lon="-3.52645">
        <ele>16</ele>
        <time>2019-07-15T09:59:54Z</time>
      </trkpt>
      <trkpt lat="47.81376" lon="-3.52647">
        <ele>16</ele>
        <time>2019-07-15T09:59:55Z</time>
      </trkpt>
      <trkpt lat="47.81377" lon="-3.52648">
        <ele>17</ele>
        <time>2019-07-15T09:59:56Z</time>
      </trkpt>
      <trkpt lat="47.81379" lon="-3.5265">
        <ele>17</ele>
        <time>2019-07-15T09:59:57Z</time>
      </trkpt>
      <trkpt lat="47.81381" lon="-3.52651">
        <ele>18</ele>
        <time>2019-07-15T09:59:58Z</time>
      </trkpt>
      <trkpt lat="47.81383" lon="-3.52652">
        <ele>18</ele>
        <time>2019-07-15T09:59:59Z</time>
      </trkpt>
      <trkpt lat="47.81385" lon="-3.52653">
        <ele>18</ele>
        <time>2019-07-15T10:00:00Z</time>
      </trkpt>
      <trkpt lat="47.81387" lon="-3.52655">
        <ele>19</ele>
        <time>2019-07-15T10:00:01Z</time>
      </trkpt>
      <trkpt lat="47.81389" lon="-3.52657">
        <ele>19</ele>
        <time>2019-07-15T10:00:02Z</time>
      </trkpt>
      <trkpt lat="47.81391" lon="-3.52658">
        <ele>19</ele>
        <time>2019-07-15T10:00:03Z</time>
      </trkpt>
      <trkpt lat="47.81393" lon="-3.52658">
        <ele>20</ele>
        <time>2019-07-15T10:00:04Z</time>
      </trkpt>
      <trkpt lat="47.81396" lon="-3.52659">
        <ele>20</ele>
        <time>2019-07-15T10:00:05Z</time>
      </trkpt>
      <trkpt lat="47.81398" lon="-3.5266">
        <ele>21</ele>
        <time>2019-07-15T10:00:06Z</time>
      </trkpt>
      <trkpt lat="47.814" lon="-3.52661">
        <ele>21</ele>
        <time>2019-07-15T10:00:07Z</time>
      </trkpt>
      <trkpt lat="47.81402" lon="-3.52662">
        <ele>22</ele>
        <time>2019-07-15T10:00:08Z</time>
      </trkpt>
      <trkpt lat="47.81403" lon="-3.52662">
        <ele>22</ele>
        <time>2019-07-15T10:00:09Z</time>
      </trkpt>
      <trkpt lat="47.81405" lon="-3.52663">
        <ele>23</ele>
        <time>2019-07-15T10:00:10Z</time>
      </trkpt>
      <trkpt lat="47.81406" lon="-3.52665">
        <ele>23</ele>
        <time>2019-07-15T10:00:11Z</time>
      </trkpt>
      <trkpt lat="47.81408" lon="-3.52665">
        <ele>23</ele>
        <time>2019-07-15T10:00:12Z</time>
      </trkpt>
      <trkpt lat="47.8141" lon="-3.52666">
        <ele>24</ele>
        <time>2019-07-15T10:00:13Z</time>
      </trkpt>
      <trkpt lat="47.81411" lon="-3.52667">
        <ele>24</ele>
        <time>2019-07-15T10:00:14Z</time>
      </trkpt>
      <trkpt lat="47.81413" lon="-3.52667">
        <ele>25</ele>
        <time>2019-07-15T10:00:15Z</time>
      </trkpt>
      <trkpt lat="47.81414" lon="-3.52668">
        <ele>25</ele>
        <time>2019-07-15T10:00:16Z</time>
      </trkpt>
      <trkpt lat="47.81416" lon="-3.52666">
        <ele>25</ele>
        <time>2019-07-15T10:00:17Z</time>
      </trkpt>
      <trkpt lat="47.81419" lon="-3.52665">
        <ele>25</ele>
        <time>2019-07-15T10:00:18Z</time>
      </trkpt>
      <trkpt lat="47.81422" lon="-3.52663">
        <ele>26</ele>
        <time>2019-07-15T10:00:19Z</time>
      </trkpt>
      <trkpt lat="47.81425" lon="-3.52662">
        <ele>26</ele>
        <time>2019-07-15T10:00:20Z</time>
      </trkpt>
      <trkpt lat="47.81428" lon="-3.5266">
        <ele>26</ele>
        <time>2019-07-15T10:00:21Z</time>
      </trkpt>
      <trkpt lat="47.81431" lon="-3.52659">
        <ele>26</ele>
        <time>2019-07-15T10:00:22Z</time>
      </trkpt>
      <trkpt lat="47.81434" lon="-3.52658">
        <ele>27</ele>
        <time>2019-07-15T10:00:23Z</time>
      </trkpt>
      <trkpt lat="47.81437" lon="-3.52657">
        <ele>27</ele>
        <time>2019-07-15T10:00:24Z</time>
      </trkpt>
      <trkpt lat="47.8144" lon="-3.52656">
        <ele>27</ele>
        <time>2019-07-15T10:00:25Z</time>
      </trkpt>
      <trkpt lat="47.81442" lon="-3.52655">
        <ele>27</ele>
        <time>2019-07-15T10:00:26Z</time>
      </trkpt>
      <trkpt lat="47.81444" lon="-3.52655">
        <ele>28</ele>
        <time>2019-07-15T10:00:27Z</time>
      </trkpt>
      <trkpt lat="47.81446" lon="-3.52654">
        <ele>28</ele>
        <time>2019-07-15T10:00:28Z</time>
      </trkpt>
      <trkpt lat="47.81449" lon="-3.52653">
        <ele>28</ele>
        <time>2019-07-15T10:00:29Z</time>
      </trkpt>
      <trkpt lat="47.81452" lon="-3.52652">
        <ele>28</ele>
        <time>2019-07-15T10:00:30Z</time>
      </trkpt>
      <trkpt lat="47.81455" lon="-3.5265">
        <ele>28</ele>
        <time>2019-07-15T10:00:31Z</time>
      </trkpt>
      <trkpt lat="47.81457" lon="-3.52649">
        <ele>28</ele>
        <time>2019-07-15T10:00:32Z</time>
      </trkpt>
      <trkpt lat="47.8146" lon="-3.52649">
        <ele>28</ele>
        <time>2019-07-15T10:00:33Z</time>
      </trkpt>
      <trkpt lat="47.81462" lon="-3.52648">
        <ele>28</ele>
        <time>2019-07-15T10:00:34Z</time>
      </trkpt>
      <trkpt lat="47.81465" lon="-3.52648">
        <ele>28</ele>
        <time>2019-07-15T10:00:35Z</time>
      </trkpt>
      <trkpt lat="47.81467" lon="-3.52646">
        <ele>29</ele>
        <time>2019-07-15T10:00:36Z</time>
      </trkpt>
      <trkpt lat="47.8147" lon="-3.52646">
        <ele>29</ele>
        <time>2019-07-15T10:00:37Z</time>
      </trkpt>
      <trkpt lat="47.81472" lon="-3.52644">
        <ele>29</ele>
        <time>2019-07-15T10:00:38Z</time>
      </trkpt>
      <trkpt lat="47.81475" lon="-3.52643">
        <ele>29</ele>
        <time>2019-07-15T10:00:39Z</time>
      </trkpt>
      <trkpt lat="47.81478" lon="-3.52642">
        <ele>29</ele>
        <time>2019-07-15T10:00:40Z</time>
      </trkpt>
      <trkpt lat="47.81481" lon="-3.5264">
        <ele>29</ele>
        <time>2019-07-15T10:00:41Z</time>
      </trkpt>
      <trkpt lat="47.81484" lon="-3.52639">
        <ele>29</ele>
        <time>2019-07-15T10:00:42Z</time>
      </trkpt>
      <trkpt lat="47.81487" lon="-3.52638">
        <ele>29</ele>
        <time>2019-07-15T10:00:43Z</time>
      </trkpt>
      <trkpt lat="47.8149" lon="-3.52637">
        <ele>29</ele>
        <time>2019-07-15T10:00:44Z</time>
      </trkpt>
      <trkpt lat="47.81494" lon="-3.52636">
        <ele>29</ele>
        <time>2019-07-15T10:00:45Z</time>
      </trkpt>
      <trkpt lat="47.81497" lon="-3.52635">
        <ele>29</ele>
        <time>2019-07-15T10:00:46Z</time>
      </trkpt>
      <trkpt lat="47.815" lon="-3.52633">
        <ele>29</ele>
        <time>2019-07-15T10:00:47Z</time>
      </trkpt>
      <trkpt lat="47.81503" lon="-3.52632">
        <ele>29</ele>
        <time>2019-07-15T10:00:48Z</time>
      </trkpt>
      <trkpt lat="47.81506" lon="-3.5263">
        <ele>29</ele>
        <time>2019-07-15T10:00:49Z</time>
      </trkpt>
      <trkpt lat="47.81509" lon="-3.52629">
        <ele>29</ele>
        <time>2019-07-15T10:00:50Z</time>
      </trkpt>
      <trkpt lat="47.81512" lon="-3.52628">
        <ele>29</ele>
        <time>2019-07-15T10:00:51Z</time>
      </trkpt>
      <trkpt lat="47.81516" lon="-3.52627">
        <ele>30</ele>
        <time>2019-07-15T10:00:52Z</time>
      </trkpt>
      <trkpt lat="47.81519" lon="-3.52626">
        <ele>30</ele>
        <time>2019-07-15T10:00:53Z</time>
      </trkpt>
      <trkpt lat="47.81522" lon="-3.52624">
        <ele>30</ele>
        <time>2019-07-15T10:00:54Z</time>
      </trkpt>
      <trkpt lat="47.81525" lon="-3.52623">
        <ele>30</ele>
        <time>2019-07-15T10:00:55Z</time>
      </trkpt>
      <trkpt lat="47.81528" lon="-3.52622">
        <ele>30</ele>
        <time>2019-07-15T10:00:56Z</time>
      </trkpt>
      <trkpt lat="47.81531" lon="-3.52621">
        <ele>30</ele>
        <time>2019-07-15T10:00:57Z</time>
      </trkpt>
      <trkpt lat="47.81534" lon="-3.5262">
        <ele>30</ele>
        <time>2019-07-15T10:00:58Z</time>
      </trkpt>
      <trkpt lat="47.81537" lon="-3.52619">
        <ele>31</ele>
        <time>2019-07-15T10:00:59Z</time>
      </trkpt>
      <trkpt lat="47.8154" lon="-3.52618">
        <ele>31</ele>
        <time>2019-07-15T10:01:00Z</time>
      </trkpt>
      <trkpt lat="47.81543" lon="-3.52617">
        <ele>31</ele>
        <time>2019-07-15T10:01:01Z</time>
      </trkpt>
      <trkpt lat="47.81546" lon="-3.52616">
        <ele>31</ele>
        <time>2019-07-15T10:01:02Z</time>
      </trkpt>
      <trkpt lat="47.8155" lon="-3.52614">
        <ele>31</ele>
        <time>2019-07-15T10:01:03Z</time>
      </trkpt>
      <trkpt lat="47.81553" lon="-3.52613">
        <ele>32</ele>
        <time>2019-07-15T10:01:04Z</time>
      </trkpt>
      <trkpt lat="47.81556" lon="-3.52612">
        <ele>32</ele>
        <time>2019-07-15T10:01:05Z</time>
      </trkpt>
      <trkpt lat="47.81559" lon="-3.52611">
        <ele>32</ele>
        <time>2019-07-15T10:01:06Z</time>
      </trkpt>
      <trkpt lat="47.81562" lon="-3.5261">
        <ele>32</ele>
        <time>2019-07-15T10:01:07Z</time>
      </trkpt>
      <trkpt lat="47.81565" lon="-3.52609">
        <ele>32</ele>
        <time>2019-07-15T10:01:08Z</time>
      </trkpt>
      <trkpt lat="47.81568" lon="-3.52607">
        <ele>32</ele>
        <time>2019-07-15T10:01:09Z</time>
      </trkpt>
      <trkpt lat="47.81571" lon="-3.52606">
        <ele>32</ele>
        <time>2019-07-15T10:01:10Z</time>
      </trkpt>
      <trkpt lat="47.81575" lon="-3.52605">
        <ele>32</ele>
        <time>2019-07-15T10:01:11Z</time>
      </trkpt>
      <trkpt lat="47.81578" lon="-3.52603">
        <ele>32</ele>
        <time>2019-07-15T10:01:12Z</time>
      </trkpt>
      <trkpt lat="47.81581" lon="-3.52602">
        <ele>32</ele>
        <time>2019-07-15T10:01:13Z</time>
      </trkpt>
      <trkpt lat="47.81584" lon="-3.52601">
        <ele>33</ele>
        <time>2019-07-15T10:01:14Z</time>
      </trkpt>
      <trkpt lat="47.81587" lon="-3.526">
        <ele>33</ele>
        <time>2019-07-15T10:01:15Z</time>
      </trkpt>
      <trkpt lat="47.8159" lon="-3.52599">
        <ele>33</ele>
        <time>2019-07-15T10:01:16Z</time>
      </trkpt>
      <trkpt lat="47.81593" lon="-3.52598">
        <ele>33</ele>
        <time>2019-07-15T10:01:17Z</time>
      </trkpt>
      <trkpt lat="47.81596" lon="-3.52597">
        <ele>33</ele>
        <time>2019-07-15T10:01:18Z</time>
      </trkpt>
      <trkpt lat="47.81599" lon="-3.52596">
        <ele>33</ele>
        <time>2019-07-15T10:01:19Z</time>
      </trkpt>
      <trkpt lat="47.81602" lon="-3.52595">
        <ele>33</ele>
        <time>2019-07-15T10:01:20Z</time>
      </trkpt>
      <trkpt lat="47.81606" lon="-3.52594">
        <ele>34</ele>
        <time>2019-07-15T10:01:21Z</time>
      </trkpt>
      <trkpt lat="47.81608" lon="-3.52593">
        <ele>34</ele>
        <time>2019-07-15T10:01:22Z</time>
      </trkpt>
      <trkpt lat="47.81612" lon="-3.52592">
        <ele>34</ele>
        <time>2019-07-15T10:01:23Z</time>
      </trkpt>
      <trkpt lat="47.81615" lon="-3.52591">
        <ele>34</ele>
        <time>2019-07-15T10:01:24Z</time>
      </trkpt>
      <trkpt lat="47.81617" lon="-3.52591">
        <ele>34</ele>
        <time>2019-07-15T10:01:25Z</time>
      </trkpt>
      <trkpt lat="47.81619" lon="-3.52591">
        <ele>34</ele>
        <time>2019-07-15T10:01:26Z</time>
      </trkpt>
      <trkpt lat="47.81622" lon="-3.52591">
        <ele>34</ele>
        <time>2019-07-15T10:01:27Z</time>
      </trkpt>
      <trkpt lat="47.81625" lon="-3.52592">
        <ele>35</ele>
        <time>2019-07-15T10:01:28Z</time>
      </trkpt>
      <trkpt lat="47.81627" lon="-3.52595">
        <ele>35</ele>
        <time>2019-07-15T10:01:29Z</time>
      </trkpt>
      <trkpt lat="47.81628" lon="-3.52599">
        <ele>35</ele>
        <time>2019-07-15T10:01:30Z</time>
      </trkpt>
      <trkpt lat="47.81629" lon="-3.52603">
        <ele>35</ele>
        <time>2019-07-15T10:01:31Z</time>
      </trkpt>
      <trkpt lat="47.81629" lon="-3.52607">
        <ele>36</ele>
        <time>2019-07-15T10:01:32Z</time>
      </trkpt>
      <trkpt lat="47.81629" lon="-3.52612">
        <ele>36</ele>
        <time>2019-07-15T10:01:33Z</time>
      </trkpt>
      <trkpt lat="47.81628" lon="-3.52616">
        <ele>36</ele>
        <time>2019-07-15T10:01:34Z</time>
      </trkpt>
      <trkpt lat="47.81628" lon="-3.5262">
        <ele>37</ele>
        <time>2019-07-15T10:01:35Z</time>
      </trkpt>
      <trkpt lat="47.81628" lon="-3.52625">
        <ele>37</ele>
        <time>2019-07-15T10:01:36Z</time>
      </trkpt>
      <trkpt lat="47.81628" lon="-3.5263">
        <ele>37</ele>
        <time>2019-07-15T10:01:37Z</time>
      </trkpt>
      <trkpt lat="47.81629" lon="-3.52635">
        <ele>38</ele>
        <time>2019-07-15T10:01:38Z</time>
      </trkpt>
      <trkpt lat="47.81628" lon="-3.52639">
        <ele>38</ele>
        <time>2019-07-15T10:01:39Z</time>
      </trkpt>
      <trkpt lat="47.81628" lon="-3.52644">
        <ele>38</ele>
        <time>2019-07-15T10:01:40Z</time>
      </trkpt>
      <trkpt lat="47.81627" lon="-3.52649">
        <ele>39</ele>
        <time>2019-07-15T10:01:41Z</time>
      </trkpt>
      <trkpt lat="47.81627" lon="-3.52655">
        <ele>39</ele>
        <time>2019-07-15T10:01:42Z</time>
      </trkpt>
      <trkpt lat="47.81626" lon="-3.52661">
        <ele>39</ele>
        <time>2019-07-15T10:01:43Z</time>
      </trkpt>
      <trkpt lat="47.81626" lon="-3.52666">
        <ele>39</ele>
        <time>2019-07-15T10:01:44Z</time>
      </trkpt>
      <trkpt lat="47.81625" lon="-3.52673">
        <ele>40</ele>
        <time>2019-07-15T10:01:45Z</time>
      </trkpt>
      <trkpt lat="47.81625" lon="-3.52679">
        <ele>40</ele>
        <time>2019-07-15T10:01:46Z</time>
      </trkpt>
      <trkpt lat="47.81625" lon="-3.52685">
        <ele>40</ele>
        <time>2019-07-15T10:01:47Z</time>
      </trkpt>
      <trkpt lat="47.81625" lon="-3.52691">
        <ele>40</ele>
        <time>2019-07-15T10:01:48Z</time>
      </trkpt>
      <trkpt lat="47.81624" lon="-3.52696">
        <ele>40</ele>
        <time>2019-07-15T10:01:49Z</time>
      </trkpt>
      <trkpt lat="47.81624" lon="-3.52702">
        <ele>40</ele>
        <time>2019-07-15T10:01:50Z</time>
      </trkpt>
      <trkpt lat="47.81623" lon="-3.52708">
        <ele>40</ele>
        <time>2019-07-15T10:01:51Z</time>
      </trkpt>
      <trkpt lat="47.81623" lon="-3.52715">
        <ele>40</ele>
        <time>2019-07-15T10:01:52Z</time>
      </trkpt>
      <trkpt lat="47.81623" lon="-3.52722">
        <ele>40</ele>
        <time>2019-07-15T10:01:53Z</time>
      </trkpt>
      <trkpt lat="47.81622" lon="-3.5273">
        <ele>41</ele>
        <time>2019-07-15T10:01:54Z</time>
      </trkpt>
      <trkpt lat="47.81622" lon="-3.52738">
        <ele>41</ele>
        <time>2019-07-15T10:01:55Z</time>
      </trkpt>
      <trkpt lat="47.81622" lon="-3.52746">
        <ele>41</ele>
        <time>2019-07-15T10:01:56Z</time>
      </trkpt>
      <trkpt lat="47.81622" lon="-3.52754">
        <ele>41</ele>
        <time>2019-07-15T10:01:57Z</time>
      </trkpt>
      <trkpt lat="47.81622" lon="-3.52761">
        <ele>41</ele>
        <time>2019-07-15T10:01:58Z</time>
      </trkpt>
      <trkpt lat="47.81622" lon="-3.52769">
        <ele>41</ele>
        <time>2019-07-15T10:01:59Z</time>
      </trkpt>
      <trkpt lat="47.81622" lon="-3.52777">
        <ele>41</ele>
        <time>2019-07-15T10:02:00Z</time>
      </trkpt>
      <trkpt lat="47.81622" lon="-3.52785">
        <ele>41</ele>
        <time>2019-07-15T10:02:01Z</time>
      </trkpt>
      <trkpt lat="47.81622" lon="-3.52793">
        <ele>41</ele>
        <time>2019-07-15T10:02:02Z</time>
      </trkpt>
      <trkpt lat="47.81623" lon="-3.52801">
        <ele>41</ele>
        <time>2019-07-15T10:02:03Z</time>
      </trkpt>
      <trkpt lat="47.81623" lon="-3.52809">
        <ele>42</ele>
        <time>2019-07-15T10:02:04Z</time>
      </trkpt>
      <trkpt lat="47.81623" lon="-3.52817">
        <ele>42</ele>
        <time>2019-07-15T10:02:05Z</time>
      </trkpt>
      <trkpt lat="47.81623" lon="-3.52826">
        <ele>42</ele>
        <time>2019-07-15T10:02:06Z</time>
      </trkpt>
      <trkpt lat="47.81623" lon="-3.52834">
        <ele>42</ele>
        <time>2019-07-15T10:02:07Z</time>
      </trkpt>
      <trkpt lat="47.81623" lon="-3.52842">
        <ele>42</ele>
        <time>2019-07-15T10:02:08Z</time>
      </trkpt>
      <trkpt lat="47.81624" lon="-3.52851">
        <ele>42</ele>
        <time>2019-07-15T10:02:09Z</time>
      </trkpt>
      <trkpt lat="47.81624" lon="-3.52859">
        <ele>42</ele>
        <time>2019-07-15T10:02:10Z</time>
      </trkpt>
      <trkpt lat="47.81624" lon="-3.52867">
        <ele>42</ele>
        <time>2019-07-15T10:02:11Z</time>
      </trkpt>
      <trkpt lat="47.81624" lon="-3.52875">
        <ele>42</ele>
        <time>2019-07-15T10:02:12Z</time>
      </trkpt>
      <trkpt lat="47.81624" lon="-3.52883">
        <ele>42</ele>
        <time>2019-07-15T10:02:13Z</time>
      </trkpt>
      <trkpt lat="47.81624" lon="-3.52891">
        <ele>42</ele>
        <time>2019-07-15T10:02:14Z</time>
      </trkpt>
      <trkpt lat="47.81625" lon="-3.52899">
        <ele>42</ele>
        <time>2019-07-15T10:02:15Z</time>
      </trkpt>
      <trkpt lat="47.81625" lon="-3.52906">
        <ele>42</ele>
        <time>2019-07-15T10:02:16Z</time>
      </trkpt>
      <trkpt lat="47.81625" lon="-3.52914">
        <ele>42</ele>
        <time>2019-07-15T10:02:17Z</time>
      </trkpt>
      <trkpt lat="47.81625" lon="-3.52921">
        <ele>41</ele>
        <time>2019-07-15T10:02:18Z</time>
      </trkpt>
      <trkpt lat="47.81626" lon="-3.52929">
        <ele>41</ele>
        <time>2019-07-15T10:02:19Z</time>
      </trkpt>
      <trkpt lat="47.81626" lon="-3.52937">
        <ele>41</ele>
        <time>2019-07-15T10:02:20Z</time>
      </trkpt>
      <trkpt lat="47.81626" lon="-3.52945">
        <ele>41</ele>
        <time>2019-07-15T10:02:21Z</time>
      </trkpt>
      <trkpt lat="47.81626" lon="-3.52953">
        <ele>41</ele>
        <time>2019-07-15T10:02:22Z</time>
      </trkpt>
      <trkpt lat="47.81627" lon="-3.52962">
        <ele>41</ele>
        <time>2019-07-15T10:02:23Z</time>
      </trkpt>
      <trkpt lat="47.81627" lon="-3.52971">
        <ele>41</ele>
        <time>2019-07-15T10:02:24Z</time>
      </trkpt>
      <trkpt lat="47.81627" lon="-3.5298">
        <ele>40</ele>
        <time>2019-07-15T10:02:25Z</time>
      </trkpt>
      <trkpt lat="47.81628" lon="-3.52989">
        <ele>40</ele>
        <time>2019-07-15T10:02:26Z</time>
      </trkpt>
      <trkpt lat="47.81628" lon="-3.52998">
        <ele>40</ele>
        <time>2019-07-15T10:02:27Z</time>
      </trkpt>
      <trkpt lat="47.81629" lon="-3.53008">
        <ele>40</ele>
        <time>2019-07-15T10:02:28Z</time>
      </trkpt>
      <trkpt lat="47.81629" lon="-3.53017">
        <ele>39</ele>
        <time>2019-07-15T10:02:29Z</time>
      </trkpt>
      <trkpt lat="47.81629" lon="-3.53026">
        <ele>39</ele>
        <time>2019-07-15T10:02:30Z</time>
      </trkpt>
      <trkpt lat="47.8163" lon="-3.53036">
        <ele>39</ele>
        <time>2019-07-15T10:02:31Z</time>
      </trkpt>
      <trkpt lat="47.8163" lon="-3.53046">
        <ele>39</ele>
        <time>2019-07-15T10:02:32Z</time>
      </trkpt>
      <trkpt lat="47.81629" lon="-3.53055">
        <ele>39</ele>
        <time>2019-07-15T10:02:33Z</time>
      </trkpt>
      <trkpt lat="47.81628" lon="-3.53064">
        <ele>39</ele>
        <time>2019-07-15T10:02:34Z</time>
      </trkpt>
      <trkpt lat="47.81625" lon="-3.53072">
        <ele>38</ele>
        <time>2019-07-15T10:02:35Z</time>
      </trkpt>
      <trkpt lat="47.81623" lon="-3.5308">
        <ele>38</ele>
        <time>2019-07-15T10:02:36Z</time>
      </trkpt>
      <trkpt lat="47.81619" lon="-3.53088">
        <ele>38</ele>
        <time>2019-07-15T10:02:37Z</time>
      </trkpt>
      <trkpt lat="47.81616" lon="-3.53095">
        <ele>38</ele>
        <time>2019-07-15T10:02:38Z</time>
      </trkpt>
      <trkpt lat="47.81613" lon="-3.531">
        <ele>37</ele>
        <time>2019-07-15T10:02:39Z</time>
      </trkpt>
      <trkpt lat="47.81611" lon="-3.53104">
        <ele>37</ele>
        <time>2019-07-15T10:02:40Z</time>
      </trkpt>
      <trkpt lat="47.81609" lon="-3.53107">
        <ele>37</ele>
        <time>2019-07-15T10:02:41Z</time>
      </trkpt>
      <trkpt lat="47.81606" lon="-3.53108">
        <ele>36</ele>
        <time>2019-07-15T10:02:42Z</time>
      </trkpt>
      <trkpt lat="47.81603" lon="-3.53108">
        <ele>36</ele>
        <time>2019-07-15T10:02:43Z</time>
      </trkpt>
      <trkpt lat="47.816" lon="-3.53106">
        <ele>36</ele>
        <time>2019-07-15T10:02:44Z</time>
      </trkpt>
      <trkpt lat="47.81597" lon="-3.53103">
        <ele>35</ele>
        <time>2019-07-15T10:02:45Z</time>
      </trkpt>
      <trkpt lat="47.81593" lon="-3.531">
        <ele>35</ele>
        <time>2019-07-15T10:02:46Z</time>
      </trkpt>
      <trkpt lat="47.81589" lon="-3.53097">
        <ele>35</ele>
        <time>2019-07-15T10:02:47Z</time>
      </trkpt>
      <trkpt lat="47.81585" lon="-3.53093">
        <ele>34</ele>
        <time>2019-07-15T10:02:48Z</time>
      </trkpt>
      <trkpt lat="47.8158" lon="-3.53089">
        <ele>34</ele>
        <time>2019-07-15T10:02:49Z</time>
      </trkpt>
      <trkpt lat="47.81576" lon="-3.53085">
        <ele>34</ele>
        <time>2019-07-15T10:02:50Z</time>
      </trkpt>
      <trkpt lat="47.81571" lon="-3.53081">
        <ele>33</ele>
        <time>2019-07-15T10:02:51Z</time>
      </trkpt>
      <trkpt lat="47.81566" lon="-3.53078">
        <ele>33</ele>
        <time>2019-07-15T10:02:52Z</time>
      </trkpt>
      <trkpt lat="47.8156" lon="-3.53073">
        <ele>33</ele>
        <time>2019-07-15T10:02:53Z</time>
      </trkpt>
      <trkpt lat="47.81555" lon="-3.5307">
        <ele>32</ele>
        <time>2019-07-15T10:02:54Z</time>
      </trkpt>
      <trkpt lat="47.8155" lon="-3.53066">
        <ele>32</ele>
        <time>2019-07-15T10:02:55Z</time>
      </trkpt>
      <trkpt lat="47.81544" lon="-3.53062">
        <ele>32</ele>
        <time>2019-07-15T10:02:56Z</time>
      </trkpt>
      <trkpt lat="47.81539" lon="-3.53057">
        <ele>32</ele>
        <time>2019-07-15T10:02:57Z</time>
      </trkpt>
      <trkpt lat="47.81534" lon="-3.53054">
        <ele>32</ele>
        <time>2019-07-15T10:02:58Z</time>
      </trkpt>
      <trkpt lat="47.8153" lon="-3.5305">
        <ele>32</ele>
        <time>2019-07-15T10:02:59Z</time>
      </trkpt>
      <trkpt lat="47.81525" lon="-3.53047">
        <ele>31</ele>
        <time>2019-07-15T10:03:00Z</time>
      </trkpt>
      <trkpt lat="47.81521" lon="-3.53043">
        <ele>31</ele>
        <time>2019-07-15T10:03:01Z</time>
      </trkpt>
      <trkpt lat="47.81517" lon="-3.5304">
        <ele>31</ele>
        <time>2019-07-15T10:03:02Z</time>
      </trkpt>
      <trkpt lat="47.81513" lon="-3.53037">
        <ele>31</ele>
        <time>2019-07-15T10:03:03Z</time>
      </trkpt>
      <trkpt lat="47.81508" lon="-3.53033">
        <ele>31</ele>
        <time>2019-07-15T10:03:04Z</time>
      </trkpt>
      <trkpt lat="47.81504" lon="-3.53028">
        <ele>31</ele>
        <time>2019-07-15T10:03:05Z</time>
      </trkpt>
      <trkpt lat="47.81499" lon="-3.53023">
        <ele>31</ele>
        <time>2019-07-15T10:03:06Z</time>
      </trkpt>
      <trkpt lat="47.81496" lon="-3.53018">
        <ele>31</ele>
        <time>2019-07-15T10:03:07Z</time>
      </trkpt>
      <trkpt lat="47.81493" lon="-3.53014">
        <ele>31</ele>
        <time>2019-07-15T10:03:08Z</time>
      </trkpt>
      <trkpt lat="47.81491" lon="-3.53011">
        <ele>31</ele>
        <time>2019-07-15T10:03:09Z</time>
      </trkpt>
      <trkpt lat="47.81491" lon="-3.5301">
        <ele>31</ele>
        <time>2019-07-15T10:03:10Z</time>
      </trkpt>
      <trkpt lat="47.81491" lon="-3.5301">
        <ele>31</ele>
        <time>2019-07-15T10:03:11Z</time>
      </trkpt>
      <trkpt lat="47.81491" lon="-3.53009">
        <ele>32</ele>
        <time>2019-07-15T10:03:12Z</time>
      </trkpt>
      <trkpt lat="47.81491" lon="-3.53009">
        <ele>32</ele>
        <time>2019-07-15T10:03:13Z</time>
      </trkpt>
      <trkpt lat="47.81489" lon="-3.53">
        <ele>32</ele>
        <time>2019-07-15T10:03:14Z</time>
      </trkpt>
      <trkpt lat="47.81488" lon="-3.52997">
        <ele>32</ele>
        <time>2019-07-15T10:03:15Z</time>
      </trkpt>
      <trkpt lat="47.81487" lon="-3.52994">
        <ele>32</ele>
        <time>2019-07-15T10:03:16Z</time>
      </trkpt>
      <trkpt lat="47.81486" lon="-3.5299">
        <ele>32</ele>
        <time>2019-07-15T10:03:17Z</time>
      </trkpt>
      <trkpt lat="47.81485" lon="-3.52985">
        <ele>32</ele>
        <time>2019-07-15T10:03:18Z</time>
      </trkpt>
      <trkpt lat="47.81483" lon="-3.5298">
        <ele>32</ele>
        <time>2019-07-15T10:03:19Z</time>
      </trkpt>
      <trkpt lat="47.81482" lon="-3.52975">
        <ele>32</ele>
        <time>2019-07-15T10:03:20Z</time>
      </trkpt>
      <trkpt lat="47.8148" lon="-3.52971">
        <ele>32</ele>
        <time>2019-07-15T10:03:21Z</time>
      </trkpt>
      <trkpt lat="47.81477" lon="-3.5297">
        <ele>32</ele>
        <time>2019-07-15T10:03:22Z</time>
      </trkpt>
      <trkpt lat="47.81474" lon="-3.52969">
        <ele>33</ele>
        <time>2019-07-15T10:03:23Z</time>
      </trkpt>
      <trkpt lat="47.81472" lon="-3.5297">
        <ele>33</ele>
        <time>2019-07-15T10:03:24Z</time>
      </trkpt>
      <trkpt lat="47.81469" lon="-3.5297">
        <ele>33</ele>
        <time>2019-07-15T10:03:25Z</time>
      </trkpt>
      <trkpt lat="47.81467" lon="-3.5297">
        <ele>33</ele>
        <time>2019-07-15T10:03:26Z</time>
      </trkpt>
      <trkpt lat="47.81463" lon="-3.52971">
        <ele>33</ele>
        <time>2019-07-15T10:03:27Z</time>
      </trkpt>
      <trkpt lat="47.8146" lon="-3.52972">
        <ele>33</ele>
        <time>2019-07-15T10:03:28Z</time>
      </trkpt>
      <trkpt lat="47.81457" lon="-3.52974">
        <ele>34</ele>
        <time>2019-07-15T10:03:29Z</time>
      </trkpt>
      <trkpt lat="47.81453" lon="-3.52976">
        <ele>34</ele>
        <time>2019-07-15T10:03:30Z</time>
      </trkpt>
      <trkpt lat="47.81449" lon="-3.52978">
        <ele>34</ele>
        <time>2019-07-15T10:03:31Z</time>
      </trkpt>
      <trkpt lat="47.81445" lon="-3.52981">
        <ele>34</ele>
        <time>2019-07-15T10:03:32Z</time>
      </trkpt>
      <trkpt lat="47.8144" lon="-3.52983">
        <ele>34</ele>
        <time>2019-07-15T10:03:33Z</time>
      </trkpt>
      <trkpt lat="47.81435" lon="-3.52986">
        <ele>34</ele>
        <time>2019-07-15T10:03:34Z</time>
      </trkpt>
      <trkpt lat="47.8143" lon="-3.52989">
        <ele>34</ele>
        <time>2019-07-15T10:03:35Z</time>
      </trkpt>
      <trkpt lat="47.81425" lon="-3.52991">
        <ele>34</ele>
        <time>2019-07-15T10:03:36Z</time>
      </trkpt>
      <trkpt lat="47.81419" lon="-3.52994">
        <ele>34</ele>
        <time>2019-07-15T10:03:37Z</time>
      </trkpt>
      <trkpt lat="47.81413" lon="-3.52997">
        <ele>33</ele>
        <time>2019-07-15T10:03:38Z</time>
      </trkpt>
      <trkpt lat="47.81406" lon="-3.53">
        <ele>33</ele>
        <time>2019-07-15T10:03:39Z</time>
      </trkpt>
      <trkpt lat="47.814" lon="-3.53003">
        <ele>32</ele>
        <time>2019-07-15T10:03:40Z</time>
      </trkpt>
      <trkpt lat="47.81394" lon="-3.53006">
        <ele>32</ele>
        <time>2019-07-15T10:03:41Z</time>
      </trkpt>
      <trkpt lat="47.8139" lon="-3.5301">
        <ele>31</ele>
        <time>2019-07-15T10:03:42Z</time>
      </trkpt>
      <trkpt lat="47.81386" lon="-3.53016">
        <ele>31</ele>
        <time>2019-07-15T10:03:43Z</time>
      </trkpt>
      <trkpt lat="47.81384" lon="-3.53021">
        <ele>30</ele>
        <time>2019-07-15T10:03:44Z</time>
      </trkpt>
      <trkpt lat="47.81382" lon="-3.53027">
        <ele>30</ele>
        <time>2019-07-15T10:03:45Z</time>
      </trkpt>
      <trkpt lat="47.8138" lon="-3.53032">
        <ele>30</ele>
        <time>2019-07-15T10:03:46Z</time>
      </trkpt>
      <trkpt lat="47.81378" lon="-3.53037">
        <ele>30</ele>
        <time>2019-07-15T10:03:47Z</time>
      </trkpt>
      <trkpt lat="47.81376" lon="-3.53042">
        <ele>29</ele>
        <time>2019-07-15T10:03:48Z</time>
      </trkpt>
      <trkpt lat="47.81375" lon="-3.53046">
        <ele>29</ele>
        <time>2019-07-15T10:03:49Z</time>
      </trkpt>
      <trkpt lat="47.81374" lon="-3.53052">
        <ele>29</ele>
        <time>2019-07-15T10:03:50Z</time>
      </trkpt>
      <trkpt lat="47.81375" lon="-3.53056">
        <ele>29</ele>
        <time>2019-07-15T10:03:51Z</time>
      </trkpt>
      <trkpt lat="47.81375" lon="-3.53059">
        <ele>29</ele>
        <time>2019-07-15T10:03:52Z</time>
      </trkpt>
      <trkpt lat="47.81375" lon="-3.53061">
        <ele>29</ele>
        <time>2019-07-15T10:03:53Z</time>
      </trkpt>
      <trkpt lat="47.81374" lon="-3.53062">
        <ele>29</ele>
        <time>2019-07-15T10:03:54Z</time>
      </trkpt>
      <trkpt lat="47.81373" lon="-3.53062">
        <ele>28</ele>
        <time>2019-07-15T10:03:55Z</time>
      </trkpt>
      <trkpt lat="47.81372" lon="-3.53062">
        <ele>28</ele>
        <time>2019-07-15T10:03:56Z</time>
      </trkpt>
      <trkpt lat="47.8137" lon="-3.53061">
        <ele>28</ele>
        <time>2019-07-15T10:03:57Z</time>
      </trkpt>
      <trkpt lat="47.81367" lon="-3.53061">
        <ele>28</ele>
        <time>2019-07-15T10:03:58Z</time>
      </trkpt>
      <trkpt lat="47.81364" lon="-3.53058">
        <ele>28</ele>
        <time>2019-07-15T10:03:59Z</time>
      </trkpt>
      <trkpt lat="47.81362" lon="-3.53055">
        <ele>28</ele>
        <time>2019-07-15T10:04:00Z</time>
      </trkpt>
      <trkpt lat="47.81359" lon="-3.53051">
        <ele>28</ele>
        <time>2019-07-15T10:04:01Z</time>
      </trkpt>
      <trkpt lat="47.81357" lon="-3.5305">
        <ele>27</ele>
        <time>2019-07-15T10:04:02Z</time>
      </trkpt>
      <trkpt lat="47.81354" lon="-3.5305">
        <ele>27</ele>
        <time>2019-07-15T10:04:03Z</time>
      </trkpt>
      <trkpt lat="47.81351" lon="-3.5305">
        <ele>27</ele>
        <time>2019-07-15T10:04:04Z</time>
      </trkpt>
      <trkpt lat="47.81349" lon="-3.5305">
        <ele>26</ele>
        <time>2019-07-15T10:04:05Z</time>
      </trkpt>
      <trkpt lat="47.81346" lon="-3.53048">
        <ele>26</ele>
        <time>2019-07-15T10:04:06Z</time>
      </trkpt>
      <trkpt lat="47.81344" lon="-3.53048">
        <ele>25</ele>
        <time>2019-07-15T10:04:07Z</time>
      </trkpt>
      <trkpt lat="47.81342" lon="-3.5305">
        <ele>25</ele>
        <time>2019-07-15T10:04:08Z</time>
      </trkpt>
      <trkpt lat="47.8134" lon="-3.53055">
        <ele>25</ele>
        <time>2019-07-15T10:04:09Z</time>
      </trkpt>
      <trkpt lat="47.81339" lon="-3.5306">
        <ele>24</ele>
        <time>2019-07-15T10:04:10Z</time>
      </trkpt>
      <trkpt lat="47.81339" lon="-3.53065">
        <ele>24</ele>
        <time>2019-07-15T10:04:11Z</time>
      </trkpt>
      <trkpt lat="47.81339" lon="-3.53072">
        <ele>23</ele>
        <time>2019-07-15T10:04:12Z</time>
      </trkpt>
      <trkpt lat="47.8134" lon="-3.53078">
        <ele>23</ele>
        <time>2019-07-15T10:04:13Z</time>
      </trkpt>
      <trkpt lat="47.81341" lon="-3.53083">
        <ele>23</ele>
        <time>2019-07-15T10:04:14Z</time>
      </trkpt>
      <trkpt lat="47.81341" lon="-3.5309">
        <ele>22</ele>
        <time>2019-07-15T10:04:15Z</time>
      </trkpt>
      <trkpt lat="47.81341" lon="-3.53096">
        <ele>22</ele>
        <time>2019-07-15T10:04:16Z</time>
      </trkpt>
      <trkpt lat="47.81342" lon="-3.53101">
        <ele>22</ele>
        <time>2019-07-15T10:04:17Z</time>
      </trkpt>
      <trkpt lat="47.81342" lon="-3.53105">
        <ele>21</ele>
        <time>2019-07-15T10:04:18Z</time>
      </trkpt>
      <trkpt lat="47.81342" lon="-3.53107">
        <ele>21</ele>
        <time>2019-07-15T10:04:19Z</time>
      </trkpt>
      <trkpt lat="47.81341" lon="-3.53109">
        <ele>21</ele>
        <time>2019-07-15T10:04:20Z</time>
      </trkpt>
      <trkpt lat="47.81342" lon="-3.53112">
        <ele>20</ele>
        <time>2019-07-15T10:04:21Z</time>
      </trkpt>
      <trkpt lat="47.81342" lon="-3.53116">
        <ele>20</ele>
        <time>2019-07-15T10:04:22Z</time>
      </trkpt>
      <trkpt lat="47.81343" lon="-3.5312">
        <ele>20</ele>
        <time>2019-07-15T10:04:23Z</time>
      </trkpt>
      <trkpt lat="47.81344" lon="-3.53123">
        <ele>19</ele>
        <time>2019-07-15T10:04:24Z</time>
      </trkpt>
      <trkpt lat="47.81345" lon="-3.53125">
        <ele>19</ele>
        <time>2019-07-15T10:04:25Z</time>
      </trkpt>
      <trkpt lat="47.81346" lon="-3.53126">
        <ele>19</ele>
        <time>2019-07-15T10:04:26Z</time>
      </trkpt>
      <trkpt lat="47.81348" lon="-3.53128">
        <ele>18</ele>
        <time>2019-07-15T10:04:27Z</time>
      </trkpt>
      <trkpt lat="47.8135" lon="-3.53129">
        <ele>17</ele>
        <time>2019-07-15T10:04:28Z</time>
      </trkpt>
      <trkpt lat="47.81353" lon="-3.53132">
        <ele>17</ele>
        <time>2019-07-15T10:04:29Z</time>
      </trkpt>
      <trkpt lat="47.81356" lon="-3.53133">
        <ele>16</ele>
        <time>2019-07-15T10:04:30Z</time>
      </trkpt>
      <trkpt lat="47.81358" lon="-3.53135">
        <ele>16</ele>
        <time>2019-07-15T10:04:31Z</time>
      </trkpt>
      <trkpt lat="47.8136" lon="-3.53137">
        <ele>15</ele>
        <time>2019-07-15T10:04:32Z</time>
      </trkpt>
      <trkpt lat="47.81363" lon="-3.53139">
        <ele>15</ele>
        <time>2019-07-15T10:04:33Z</time>
      </trkpt>
      <trkpt lat="47.81365" lon="-3.53141">
        <ele>15</ele>
        <time>2019-07-15T10:04:34Z</time>
      </trkpt>
      <trkpt lat="47.81367" lon="-3.53142">
        <ele>14</ele>
        <time>2019-07-15T10:04:35Z</time>
      </trkpt>
      <trkpt lat="47.81368" lon="-3.53145">
        <ele>14</ele>
        <time>2019-07-15T10:04:36Z</time>
      </trkpt>
      <trkpt lat="47.81369" lon="-3.53148">
        <ele>14</ele>
        <time>2019-07-15T10:04:37Z</time>
      </trkpt>
      <trkpt lat="47.81368" lon="-3.53151">
        <ele>13</ele>
        <time>2019-07-15T10:04:38Z</time>
      </trkpt>
      <trkpt lat="47.81367" lon="-3.53155">
        <ele>13</ele>
        <time>2019-07-15T10:04:39Z</time>
      </trkpt>
      <trkpt lat="47.81365" lon="-3.53159">
        <ele>13</ele>
        <time>2019-07-15T10:04:40Z</time>
      </trkpt>
      <trkpt lat="47.81363" lon="-3.53162">
        <ele>13</ele>
        <time>2019-07-15T10:04:41Z</time>
      </trkpt>
      <trkpt lat="47.81361" lon="-3.53165">
        <ele>12</ele>
        <time>2019-07-15T10:04:42Z</time>
      </trkpt>
      <trkpt lat="47.81359" lon="-3.53168">
        <ele>12</ele>
        <time>2019-07-15T10:04:43Z</time>
      </trkpt>
      <trkpt lat="47.81357" lon="-3.53171">
        <ele>12</ele>
        <time>2019-07-15T10:04:44Z</time>
      </trkpt>
      <trkpt lat="47.81356" lon="-3.53176">
        <ele>11</ele>
        <time>2019-07-15T10:04:45Z</time>
      </trkpt>
      <trkpt lat="47.81356" lon="-3.53181">
        <ele>11</ele>
        <time>2019-07-15T10:04:46Z</time>
      </trkpt>
      <trkpt lat="47.81355" lon="-3.53185">
        <ele>11</ele>
        <time>2019-07-15T10:04:47Z</time>
      </trkpt>
      <trkpt lat="47.81356" lon="-3.5319">
        <ele>11</ele>
        <time>2019-07-15T10:04:48Z</time>
      </trkpt>
      <trkpt lat="47.81356" lon="-3.53194">
        <ele>11</ele>
        <time>2019-07-15T10:04:49Z</time>
      </trkpt>
      <trkpt lat="47.81356" lon="-3.53199">
        <ele>10</ele>
        <time>2019-07-15T10:04:50Z</time>
      </trkpt>
      <trkpt lat="47.81357" lon="-3.53203">
        <ele>10</ele>
        <time>2019-07-15T10:04:51Z</time>
      </trkpt>
      <trkpt lat="47.81357" lon="-3.53206">
        <ele>10</ele>
        <time>2019-07-15T10:04:52Z</time>
      </trkpt>
      <trkpt lat="47.81358" lon="-3.5321">
        <ele>10</ele>
        <time>2019-07-15T10:04:53Z</time>
      </trkpt>
      <trkpt lat="47.81359" lon="-3.53215">
        <ele>10</ele>
        <time>2019-07-15T10:04:54Z</time>
      </trkpt>
      <trkpt lat="47.8136" lon="-3.53219">
        <ele>10</ele>
        <time>2019-07-15T10:04:55Z</time>
      </trkpt>
      <trkpt lat="47.81362" lon="-3.53224">
        <ele>9</ele>
        <time>2019-07-15T10:04:56Z</time>
      </trkpt>
      <trkpt lat="47.81363" lon="-3.53229">
        <ele>9</ele>
        <time>2019-07-15T10:04:57Z</time>
      </trkpt>
      <trkpt lat="47.81366" lon="-3.53234">
        <ele>9</ele>
        <time>2019-07-15T10:04:58Z</time>
      </trkpt>
      <trkpt lat="47.81368" lon="-3.53239">
        <ele>8</ele>
        <time>2019-07-15T10:04:59Z</time>
      </trkpt>
      <trkpt lat="47.8137" lon="-3.53244">
        <ele>8</ele>
        <time>2019-07-15T10:05:00Z</time>
      </trkpt>
      <trkpt lat="47.81373" lon="-3.53249">
        <ele>8</ele>
        <time>2019-07-15T10:05:01Z</time>
      </trkpt>
      <trkpt lat="47.81376" lon="-3.53254">
        <ele>7</ele>
        <time>2019-07-15T10:05:02Z</time>
      </trkpt>
      <trkpt lat="47.81378" lon="-3.5326">
        <ele>7</ele>
        <time>2019-07-15T10:05:03Z</time>
      </trkpt>
      <trkpt lat="47.8138" lon="-3.53265">
        <ele>7</ele>
        <time>2019-07-15T10:05:04Z</time>
      </trkpt>
      <trkpt lat="47.81381" lon="-3.53268">
        <ele>7</ele>
        <time>2019-07-15T10:05:05Z</time>
      </trkpt>
      <trkpt lat="47.81382" lon="-3.53273">
        <ele>6</ele>
        <time>2019-07-15T10:05:06Z</time>
      </trkpt>
      <trkpt lat="47.81382" lon="-3.53278">
        <ele>6</ele>
        <time>2019-07-15T10:05:07Z</time>
      </trkpt>
      <trkpt lat="47.81383" lon="-3.53284">
        <ele>6</ele>
        <time>2019-07-15T10:05:08Z</time>
      </trkpt>
      <trkpt lat="47.81383" lon="-3.53289">
        <ele>6</ele>
        <time>2019-07-15T10:05:09Z</time>
      </trkpt>
      <trkpt lat="47.81384" lon="-3.53295">
        <ele>6</ele>
        <time>2019-07-15T10:05:10Z</time>
      </trkpt>
      <trkpt lat="47.81385" lon="-3.533">
        <ele>6</ele>
        <time>2019-07-15T10:05:11Z</time>
      </trkpt>
      <trkpt lat="47.81386" lon="-3.53305">
        <ele>6</ele>
        <time>2019-07-15T10:05:12Z</time>
      </trkpt>
      <trkpt lat="47.81387" lon="-3.53311">
        <ele>6</ele>
        <time>2019-07-15T10:05:13Z</time>
      </trkpt>
      <trkpt lat="47.81389" lon="-3.53316">
        <ele>6</ele>
        <time>2019-07-15T10:05:14Z</time>
      </trkpt>
      <trkpt lat="47.81391" lon="-3.53322">
        <ele>6</ele>
        <time>2019-07-15T10:05:15Z</time>
      </trkpt>
      <trkpt lat="47.81393" lon="-3.53328">
        <ele>6</ele>
        <time>2019-07-15T10:05:16Z</time>
      </trkpt>
      <trkpt lat="47.81395" lon="-3.53334">
        <ele>6</ele>
        <time>2019-07-15T10:05:17Z</time>
      </trkpt>
      <trkpt lat="47.81397" lon="-3.53339">
        <ele>6</ele>
        <time>2019-07-15T10:05:18Z</time>
      </trkpt>
      <trkpt lat="47.81398" lon="-3.53345">
        <ele>5</ele>
        <time>2019-07-15T10:05:19Z</time>
      </trkpt>
      <trkpt lat="47.814" lon="-3.53349">
        <ele>5</ele>
        <time>2019-07-15T10:05:20Z</time>
      </trkpt>
      <trkpt lat="47.81401" lon="-3.53354">
        <ele>5</ele>
        <time>2019-07-15T10:05:21Z</time>
      </trkpt>
      <trkpt lat="47.81403" lon="-3.53358">
        <ele>5</ele>
        <time>2019-07-15T10:05:22Z</time>
      </trkpt>
      <trkpt lat="47.81404" lon="-3.53361">
        <ele>5</ele>
        <time>2019-07-15T10:05:23Z</time>
      </trkpt>
      <trkpt lat="47.81406" lon="-3.53364">
        <ele>5</ele>
        <time>2019-07-15T10:05:24Z</time>
      </trkpt>
      <trkpt lat="47.81407" lon="-3.53368">
        <ele>5</ele>
        <time>2019-07-15T10:05:25Z</time>
      </trkpt>
      <trkpt lat="47.81409" lon="-3.53373">
        <ele>5</ele>
        <time>2019-07-15T10:05:26Z</time>
      </trkpt>
      <trkpt lat="47.81411" lon="-3.53377">
        <ele>5</ele>
        <time>2019-07-15T10:05:27Z</time>
      </trkpt>
      <trkpt lat="47.81413" lon="-3.53382">
        <ele>5</ele>
        <time>2019-07-15T10:05:28Z</time>
      </trkpt>
      <trkpt lat="47.81416" lon="-3.53385">
        <ele>5</ele>
        <time>2019-07-15T10:05:29Z</time>
      </trkpt>
      <trkpt lat="47.81417" lon="-3.53389">
        <ele>5</ele>
        <time>2019-07-15T10:05:30Z</time>
      </trkpt>
      <trkpt lat="47.81419" lon="-3.53392">
        <ele>5</ele>
        <time>2019-07-15T10:05:31Z</time>
      </trkpt>
      <trkpt lat="47.81421" lon="-3.53395">
        <ele>5</ele>
        <time>2019-07-15T10:05:32Z</time>
      </trkpt>
      <trkpt lat="47.81423" lon="-3.53399">
        <ele>5</ele>
        <time>2019-07-15T10:05:33Z</time>
      </trkpt>
      <trkpt lat="47.81425" lon="-3.53402">
        <ele>5</ele>
        <time>2019-07-15T10:05:34Z</time>
      </trkpt>
      <trkpt lat="47.81427" lon="-3.53406">
        <ele>5</ele>
        <time>2019-07-15T10:05:35Z</time>
      </trkpt>
      <trkpt lat="47.81429" lon="-3.5341">
        <ele>5</ele>
        <time>2019-07-15T10:05:36Z</time>
      </trkpt>
      <trkpt lat="47.81432" lon="-3.53415">
        <ele>5</ele>
        <time>2019-07-15T10:05:37Z</time>
      </trkpt>
      <trkpt lat="47.81435" lon="-3.53419">
        <ele>5</ele>
        <time>2019-07-15T10:05:38Z</time>
      </trkpt>
      <trkpt lat="47.81439" lon="-3.53425">
        <ele>5</ele>
        <time>2019-07-15T10:05:39Z</time>
      </trkpt>
      <trkpt lat="47.81443" lon="-3.53431">
        <ele>5</ele>
        <time>2019-07-15T10:05:40Z</time>
      </trkpt>
      <trkpt lat="47.81447" lon="-3.53438">
        <ele>5</ele>
        <time>2019-07-15T10:05:41Z</time>
      </trkpt>
      <trkpt lat="47.8145" lon="-3.53446">
        <ele>5</ele>
        <time>2019-07-15T10:05:42Z</time>
      </trkpt>
      <trkpt lat="47.81453" lon="-3.53452">
        <ele>5</ele>
        <time>2019-07-15T10:05:43Z</time>
      </trkpt>
      <trkpt lat="47.81455" lon="-3.53458">
        <ele>5</ele>
        <time>2019-07-15T10:05:44Z</time>
      </trkpt>
      <trkpt lat="47.81458" lon="-3.53465">
        <ele>5</ele>
        <time>2019-07-15T10:05:45Z</time>
      </trkpt>
      <trkpt lat="47.81461" lon="-3.53472">
        <ele>5</ele>
        <time>2019-07-15T10:05:46Z</time>
      </trkpt>
      <trkpt lat="47.81464" lon="-3.53478">
        <ele>5</ele>
        <time>2019-07-15T10:05:47Z</time>
      </trkpt>
      <trkpt lat="47.81468" lon="-3.53482">
        <ele>5</ele>
        <time>2019-07-15T10:05:48Z</time>
      </trkpt>
      <trkpt lat="47.81472" lon="-3.53485">
        <ele>5</ele>
        <time>2019-07-15T10:05:49Z</time>
      </trkpt>
      <trkpt lat="47.81476" lon="-3.53487">
        <ele>5</ele>
        <time>2019-07-15T10:05:50Z</time>
      </trkpt>
      <trkpt lat="47.8148" lon="-3.5349">
        <ele>5</ele>
        <time>2019-07-15T10:05:51Z</time>
      </trkpt>
      <trkpt lat="47.81484" lon="-3.53493">
        <ele>5</ele>
        <time>2019-07-15T10:05:52Z</time>
      </trkpt>
      <trkpt lat="47.81488" lon="-3.53496">
        <ele>5</ele>
        <time>2019-07-15T10:05:53Z</time>
      </trkpt>
      <trkpt lat="47.81492" lon="-3.53499">
        <ele>5</ele>
        <time>2019-07-15T10:05:54Z</time>
      </trkpt>
      <trkpt lat="47.81496" lon="-3.53503">
        <ele>5</ele>
        <time>2019-07-15T10:05:55Z</time>
      </trkpt>
      <trkpt lat="47.815" lon="-3.53507">
        <ele>5</ele>
        <time>2019-07-15T10:05:56Z</time>
      </trkpt>
      <trkpt lat="47.81503" lon="-3.5351">
        <ele>5</ele>
        <time>2019-07-15T10:05:57Z</time>
      </trkpt>
      <trkpt lat="47.81507" lon="-3.53513">
        <ele>5</ele>
        <time>2019-07-15T10:05:58Z</time>
      </trkpt>
      <trkpt lat="47.81511" lon="-3.53516">
        <ele>5</ele>
        <time>2019-07-15T10:05:59Z</time>
      </trkpt>
      <trkpt lat="47.81514" lon="-3.53518">
        <ele>5</ele>
        <time>2019-07-15T10:06:00Z</time>
      </trkpt>
      <trkpt lat="47.81519" lon="-3.53521">
        <ele>5</ele>
        <time>2019-07-15T10:06:01Z</time>
      </trkpt>
      <trkpt lat="47.81523" lon="-3.53525">
        <ele>5</ele>
        <time>2019-07-15T10:06:02Z</time>
      </trkpt>
      <trkpt lat="47.81527" lon="-3.53528">
        <ele>5</ele>
        <time>2019-07-15T10:06:03Z</time>
      </trkpt>
      <trkpt lat="47.81532" lon="-3.53531">
        <ele>5</ele>
        <time>2019-07-15T10:06:04Z</time>
      </trkpt>
      <trkpt lat="47.81535" lon="-3.53534">
        <ele>6</ele>
        <time>2019-07-15T10:06:05Z</time>
      </trkpt>
      <trkpt lat="47.81539" lon="-3.53538">
        <ele>6</ele>
        <time>2019-07-15T10:06:06Z</time>
      </trkpt>
      <trkpt lat="47.81543" lon="-3.53541">
        <ele>6</ele>
        <time>2019-07-15T10:06:07Z</time>
      </trkpt>
      <trkpt lat="47.81547" lon="-3.53543">
        <ele>6</ele>
        <time>2019-07-15T10:06:08Z</time>
      </trkpt>
      <trkpt lat="47.81552" lon="-3.53545">
        <ele>6</ele>
        <time>2019-07-15T10:06:09Z</time>
      </trkpt>
      <trkpt lat="47.81557" lon="-3.53546">
        <ele>6</ele>
        <time>2019-07-15T10:06:10Z</time>
      </trkpt>
      <trkpt lat="47.81562" lon="-3.53549">
        <ele>6</ele>
        <time>2019-07-15T10:06:11Z</time>
      </trkpt>
      <trkpt lat="47.81567" lon="-3.53551">
        <ele>6</ele>
        <time>2019-07-15T10:06:12Z</time>
      </trkpt>
      <trkpt lat="47.81571" lon="-3.53552">
        <ele>6</ele>
        <time>2019-07-15T10:06:13Z</time>
      </trkpt>
      <trkpt lat="47.81574" lon="-3.53555">
        <ele>6</ele>
        <time>2019-07-15T10:06:14Z</time>
      </trkpt>
      <trkpt lat="47.81577" lon="-3.53558">
        <ele>6</ele>
        <time>2019-07-15T10:06:15Z</time>
      </trkpt>
      <trkpt lat="47.81579" lon="-3.53562">
        <ele>7</ele>
        <time>2019-07-15T10:06:16Z</time>
      </trkpt>
      <trkpt lat="47.81582" lon="-3.53565">
        <ele>7</ele>
        <time>2019-07-15T10:06:17Z</time>
      </trkpt>
      <trkpt lat="47.81585" lon="-3.53568">
        <ele>7</ele>
        <time>2019-07-15T10:06:18Z</time>
      </trkpt>
      <trkpt lat="47.81588" lon="-3.53571">
        <ele>7</ele>
        <time>2019-07-15T10:06:19Z</time>
      </trkpt>
      <trkpt lat="47.81592" lon="-3.53572">
        <ele>7</ele>
        <time>2019-07-15T10:06:20Z</time>
      </trkpt>
      <trkpt lat="47.81596" lon="-3.53574">
        <ele>7</ele>
        <time>2019-07-15T10:06:21Z</time>
      </trkpt>
      <trkpt lat="47.81599" lon="-3.53576">
        <ele>7</ele>
        <time>2019-07-15T10:06:22Z</time>
      </trkpt>
      <trkpt lat="47.81603" lon="-3.53578">
        <ele>6</ele>
        <time>2019-07-15T10:06:23Z</time>
      </trkpt>
      <trkpt lat="47.81607" lon="-3.53581">
        <ele>6</ele>
        <time>2019-07-15T10:06:24Z</time>
      </trkpt>
      <trkpt lat="47.8161" lon="-3.53583">
        <ele>6</ele>
        <time>2019-07-15T10:06:25Z</time>
      </trkpt>
      <trkpt lat="47.81615" lon="-3.53585">
        <ele>6</ele>
        <time>2019-07-15T10:06:26Z</time>
      </trkpt>
      <trkpt lat="47.81618" lon="-3.53586">
        <ele>6</ele>
        <time>2019-07-15T10:06:27Z</time>
      </trkpt>
      <trkpt lat="47.81621" lon="-3.53588">
        <ele>6</ele>
        <time>2019-07-15T10:06:28Z</time>
      </trkpt>
      <trkpt lat="47.81625" lon="-3.53588">
        <ele>6</ele>
        <time>2019-07-15T10:06:29Z</time>
      </trkpt>
      <trkpt lat="47.81628" lon="-3.53588">
        <ele>6</ele>
        <time>2019-07-15T10:06:30Z</time>
      </trkpt>
      <trkpt lat="47.81631" lon="-3.53587">
        <ele>6</ele>
        <time>2019-07-15T10:06:31Z</time>
      </trkpt>
      <trkpt lat="47.81633" lon="-3.53587">
        <ele>5</ele>
        <time>2019-07-15T10:06:32Z</time>
      </trkpt>
      <trkpt lat="47.81636" lon="-3.53587">
        <ele>5</ele>
        <time>2019-07-15T10:06:33Z</time>
      </trkpt>
      <trkpt lat="47.81637" lon="-3.53588">
        <ele>5</ele>
        <time>2019-07-15T10:06:34Z</time>
      </trkpt>
      <trkpt lat="47.81639" lon="-3.53589">
        <ele>5</ele>
        <time>2019-07-15T10:06:35Z</time>
      </trkpt>
      <trkpt lat="47.81641" lon="-3.53591">
        <ele>5</ele>
        <time>2019-07-15T10:06:36Z</time>
      </trkpt>
      <trkpt lat="47.81645" lon="-3.53591">
        <ele>5</ele>
        <time>2019-07-15T10:06:37Z</time>
      </trkpt>
      <trkpt lat="47.81649" lon="-3.5359">
        <ele>5</ele>
        <time>2019-07-15T10:06:38Z</time>
      </trkpt>
      <trkpt lat="47.81652" lon="-3.53588">
        <ele>5</ele>
        <time>2019-07-15T10:06:39Z</time>
      </trkpt>
      <trkpt lat="47.81655" lon="-3.53586">
        <ele>5</ele>
        <time>2019-07-15T10:06:40Z</time>
      </trkpt>
      <trkpt lat="47.81658" lon="-3.53585">
        <ele>5</ele>
        <time>2019-07-15T10:06:41Z</time>
      </trkpt>
      <trkpt lat="47.81661" lon="-3.53585">
        <ele>5</ele>
        <time>2019-07-15T10:06:42Z</time>
      </trkpt>
      <trkpt lat="47.81665" lon="-3.53585">
        <ele>5</ele>
        <time>2019-07-15T10:06:43Z</time>
      </trkpt>
      <trkpt lat="47.81668" lon="-3.53585">
        <ele>5</ele>
        <time>2019-07-15T10:06:44Z</time>
      </trkpt>
      <trkpt lat="47.8167" lon="-3.53585">
        <ele>5</ele>
        <time>2019-07-15T10:06:45Z</time>
      </trkpt>
      <trkpt lat="47.81671" lon="-3.53584">
        <ele>5</ele>
        <time>2019-07-15T10:06:46Z</time>
      </trkpt>
      <trkpt lat="47.81673" lon="-3.53583">
        <ele>5</ele>
        <time>2019-07-15T10:06:47Z</time>
      </trkpt>
      <trkpt lat="47.81676" lon="-3.5358">
        <ele>5</ele>
        <time>2019-07-15T10:06:48Z</time>
      </trkpt>
      <trkpt lat="47.81679" lon="-3.53576">
        <ele>6</ele>
        <time>2019-07-15T10:06:49Z</time>
      </trkpt>
      <trkpt lat="47.81682" lon="-3.53573">
        <ele>6</ele>
        <time>2019-07-15T10:06:50Z</time>
      </trkpt>
      <trkpt lat="47.81685" lon="-3.53571">
        <ele>6</ele>
        <time>2019-07-15T10:06:51Z</time>
      </trkpt>
      <trkpt lat="47.81687" lon="-3.5357">
        <ele>6</ele>
        <time>2019-07-15T10:06:52Z</time>
      </trkpt>
      <trkpt lat="47.8169" lon="-3.53568">
        <ele>7</ele>
        <time>2019-07-15T10:06:53Z</time>
      </trkpt>
      <trkpt lat="47.81692" lon="-3.53567">
        <ele>7</ele>
        <time>2019-07-15T10:06:54Z</time>
      </trkpt>
      <trkpt lat="47.81695" lon="-3.53565">
        <ele>7</ele>
        <time>2019-07-15T10:06:55Z</time>
      </trkpt>
      <trkpt lat="47.81697" lon="-3.53564">
        <ele>7</ele>
        <time>2019-07-15T10:06:56Z</time>
      </trkpt>
      <trkpt lat="47.81699" lon="-3.53563">
        <ele>8</ele>
        <time>2019-07-15T10:06:57Z</time>
      </trkpt>
      <trkpt lat="47.81701" lon="-3.53561">
        <ele>8</ele>
        <time>2019-07-15T10:06:58Z</time>
      </trkpt>
      <trkpt lat="47.81704" lon="-3.53559">
        <ele>8</ele>
        <time>2019-07-15T10:06:59Z</time>
      </trkpt>
      <trkpt lat="47.81705" lon="-3.53558">
        <ele>8</ele>
        <time>2019-07-15T10:07:00Z</time>
      </trkpt>
      <trkpt lat="47.81707" lon="-3.53557">
        <ele>8</ele>
        <time>2019-07-15T10:07:01Z</time>
      </trkpt>
      <trkpt lat="47.81709" lon="-3.53556">
        <ele>8</ele>
        <time>2019-07-15T10:07:02Z</time>
      </trkpt>
      <trkpt lat="47.81711" lon="-3.53556">
        <ele>9</ele>
        <time>2019-07-15T10:07:03Z</time>
      </trkpt>
      <trkpt lat="47.81712" lon="-3.53555">
        <ele>9</ele>
        <time>2019-07-15T10:07:04Z</time>
      </trkpt>
      <trkpt lat="47.81714" lon="-3.53554">
        <ele>9</ele>
        <time>2019-07-15T10:07:05Z</time>
      </trkpt>
      <trkpt lat="47.81716" lon="-3.53553">
        <ele>9</ele>
        <time>2019-07-15T10:07:06Z</time>
      </trkpt>
      <trkpt lat="47.81717" lon="-3.53552">
        <ele>9</ele>
        <time>2019-07-15T10:07:07Z</time>
      </trkpt>
      <trkpt lat="47.81719" lon="-3.53551">
        <ele>9</ele>
        <time>2019-07-15T10:07:08Z</time>
      </trkpt>
      <trkpt lat="47.81721" lon="-3.5355">
        <ele>9</ele>
        <time>2019-07-15T10:07:09Z</time>
      </trkpt>
      <trkpt lat="47.81724" lon="-3.53549">
        <ele>9</ele>
        <time>2019-07-15T10:07:10Z</time>
      </trkpt>
      <trkpt lat="47.81725" lon="-3.53549">
        <ele>9</ele>
        <time>2019-07-15T10:07:11Z</time>
      </trkpt>
      <trkpt lat="47.81727" lon="-3.53547">
        <ele>9</ele>
        <time>2019-07-15T10:07:12Z</time>
      </trkpt>
      <trkpt lat="47.81728" lon="-3.53545">
        <ele>9</ele>
        <time>2019-07-15T10:07:13Z</time>
      </trkpt>
      <trkpt lat="47.81729" lon="-3.53543">
        <ele>9</ele>
        <time>2019-07-15T10:07:14Z</time>
      </trkpt>
      <trkpt lat="47.81731" lon="-3.53541">
        <ele>9</ele>
        <time>2019-07-15T10:07:15Z</time>
      </trkpt>
      <trkpt lat="47.81732" lon="-3.53539">
        <ele>9</ele>
        <time>2019-07-15T10:07:16Z</time>
      </trkpt>
      <trkpt lat="47.81733" lon="-3.53539">
        <ele>9</ele>
        <time>2019-07-15T10:07:17Z</time>
      </trkpt>
      <trkpt lat="47.81734" lon="-3.53539">
        <ele>9</ele>
        <time>2019-07-15T10:07:18Z</time>
      </trkpt>
      <trkpt lat="47.81734" lon="-3.53538">
        <ele>9</ele>
        <time>2019-07-15T10:07:19Z</time>
      </trkpt>
      <trkpt lat="47.81757" lon="-3.53521">
        <ele>16</ele>
        <time>2019-07-15T10:07:20Z</time>
      </trkpt>
      <trkpt lat="47.81758" lon="-3.5352">
        <ele>16</ele>
        <time>2019-07-15T10:07:21Z</time>
      </trkpt>
      <trkpt lat="47.81759" lon="-3.5352">
        <ele>16</ele>
        <time>2019-07-15T10:07:22Z</time>
      </trkpt>
      <trkpt lat="47.8176" lon="-3.5352">
        <ele>16</ele>
        <time>2019-07-15T10:07:23Z</time>
      </trkpt>
      <trkpt lat="47.81761" lon="-3.53519">
        <ele>17</ele>
        <time>2019-07-15T10:07:24Z</time>
      </trkpt>
      <trkpt lat="47.81762" lon="-3.53518">
        <ele>17</ele>
        <time>2019-07-15T10:07:25Z</time>
      </trkpt>
      <trkpt lat="47.81763" lon="-3.53517">
        <ele>17</ele>
        <time>2019-07-15T10:07:26Z</time>
      </trkpt>
      <trkpt lat="47.81764" lon="-3.53516">
        <ele>18</ele>
        <time>2019-07-15T10:07:27Z</time>
      </trkpt>
      <trkpt lat="47.81764" lon="-3.53515">
        <ele>18</ele>
        <time>2019-07-15T10:07:28Z</time>
      </trkpt>
      <trkpt lat="47.81766" lon="-3.53513">
        <ele>18</ele>
        <time>2019-07-15T10:07:29Z</time>
      </trkpt>
      <trkpt lat="47.81766" lon="-3.53512">
        <ele>19</ele>
        <time>2019-07-15T10:07:30Z</time>
      </trkpt>
      <trkpt lat="47.81767" lon="-3.53512">
        <ele>19</ele>
        <time>2019-07-15T10:07:31Z</time>
      </trkpt>
      <trkpt lat="47.81768" lon="-3.53511">
        <ele>20</ele>
        <time>2019-07-15T10:07:32Z</time>
      </trkpt>
      <trkpt lat="47.81769" lon="-3.53511">
        <ele>20</ele>
        <time>2019-07-15T10:07:33Z</time>
      </trkpt>
      <trkpt lat="47.8177" lon="-3.5351">
        <ele>20</ele>
        <time>2019-07-15T10:07:34Z</time>
      </trkpt>
      <trkpt lat="47.81771" lon="-3.53509">
        <ele>21</ele>
        <time>2019-07-15T10:07:35Z</time>
      </trkpt>
      <trkpt lat="47.81772" lon="-3.53509">
        <ele>21</ele>
        <time>2019-07-15T10:07:36Z</time>
      </trkpt>
      <trkpt lat="47.81773" lon="-3.53508">
        <ele>22</ele>
        <time>2019-07-15T10:07:37Z</time>
      </trkpt>
      <trkpt lat="47.81773" lon="-3.53508">
        <ele>22</ele>
        <time>2019-07-15T10:07:38Z</time>
      </trkpt>
      <trkpt lat="47.81774" lon="-3.53507">
        <ele>22</ele>
        <time>2019-07-15T10:07:39Z</time>
      </trkpt>
      <trkpt lat="47.81775" lon="-3.53506">
        <ele>23</ele>
        <time>2019-07-15T10:07:40Z</time>
      </trkpt>
      <trkpt lat="47.81775" lon="-3.53507">
        <ele>23</ele>
        <time>2019-07-15T10:07:41Z</time>
      </trkpt>
      <trkpt lat="47.81776" lon="-3.53506">
        <ele>23</ele>
        <time>2019-07-15T10:07:42Z</time>
      </trkpt>
      <trkpt lat="47.81776" lon="-3.53506">
        <ele>24</ele>
        <time>2019-07-15T10:07:43Z</time>
      </trkpt>
      <trkpt lat="47.81777" lon="-3.53504">
        <ele>24</ele>
        <time>2019-07-15T10:07:44Z</time>
      </trkpt>
      <trkpt lat="47.81778" lon="-3.53503">
        <ele>24</ele>
        <time>2019-07-15T10:07:45Z</time>
      </trkpt>
      <trkpt lat="47.81778" lon="-3.53502">
        <ele>24</ele>
        <time>2019-07-15T10:07:46Z</time>
      </trkpt>
      <trkpt lat="47.81779" lon="-3.53502">
        <ele>25</ele>
        <time>2019-07-15T10:07:47Z</time>
      </trkpt>
      <trkpt lat="47.81779" lon="-3.53501">
        <ele>25</ele>
        <time>2019-07-15T10:07:48Z</time>
      </trkpt>
      <trkpt lat="47.8178" lon="-3.535">
        <ele>25</ele>
        <time>2019-07-15T10:07:49Z</time>
      </trkpt>
      <trkpt lat="47.8178" lon="-3.53499">
        <ele>25</ele>
        <time>2019-07-15T10:07:50Z</time>
      </trkpt>
      <trkpt lat="47.81781" lon="-3.53498">
        <ele>25</ele>
        <time>2019-07-15T10:07:51Z</time>
      </trkpt>
      <trkpt lat="47.81782" lon="-3.53496">
        <ele>25</ele>
        <time>2019-07-15T10:07:52Z</time>
      </trkpt>
      <trkpt lat="47.81782" lon="-3.53496">
        <ele>25</ele>
        <time>2019-07-15T10:07:53Z</time>
      </trkpt>
      <trkpt lat="47.81782" lon="-3.53495">
        <ele>25</ele>
        <time>2019-07-15T10:07:54Z</time>
      </trkpt>
      <trkpt lat="47.81783" lon="-3.53495">
        <ele>25</ele>
        <time>2019-07-15T10:07:55Z</time>
      </trkpt>
      <trkpt lat="47.81782" lon="-3.53495">
        <ele>25</ele>
        <time>2019-07-15T10:07:56Z</time>
      </trkpt>
      <trkpt lat="47.81782" lon="-3.53494">
        <ele>25</ele>
        <time>2019-07-15T10:07:57Z</time>
      </trkpt>
      <trkpt lat="47.81781" lon="-3.53494">
        <ele>25</ele>
        <time>2019-07-15T10:07:58Z</time>
      </trkpt>
      <trkpt lat="47.81781" lon="-3.53493">
        <ele>25</ele>
        <time>2019-07-15T10:07:59Z</time>
      </trkpt>
      <trkpt lat="47.81785" lon="-3.53471">
        <ele>24</ele>
        <time>2019-07-15T10:08:00Z</time>
      </trkpt>
      <trkpt lat="47.81785" lon="-3.53469">
        <ele>24</ele>
        <time>2019-07-15T10:08:01Z</time>
      </trkpt>
      <trkpt lat="47.81786" lon="-3.53467">
        <ele>24</ele>
        <time>2019-07-15T10:08:02Z</time>
      </trkpt>
      <trkpt lat="47.81787" lon="-3.53466">
        <ele>24</ele>
        <time>2019-07-15T10:08:03Z</time>
      </trkpt>
      <trkpt lat="47.81787" lon="-3.53465">
        <ele>24</ele>
        <time>2019-07-15T10:08:04Z</time>
      </trkpt>
      <trkpt lat="47.81791" lon="-3.53451">
        <ele>24</ele>
        <time>2019-07-15T10:08:05Z</time>
      </trkpt>
      <trkpt lat="47.81791" lon="-3.5345">
        <ele>24</ele>
        <time>2019-07-15T10:08:06Z</time>
      </trkpt>
      <trkpt lat="47.81792" lon="-3.53449">
        <ele>24</ele>
        <time>2019-07-15T10:08:07Z</time>
      </trkpt>
      <trkpt lat="47.81792" lon="-3.53448">
        <ele>24</ele>
        <time>2019-07-15T10:08:08Z</time>
      </trkpt>
      <trkpt lat="47.81797" lon="-3.53437">
        <ele>23</ele>
        <time>2019-07-15T10:08:09Z</time>
      </trkpt>
      <trkpt lat="47.81797" lon="-3.53435">
        <ele>23</ele>
        <time>2019-07-15T10:08:10Z</time>
      </trkpt>
      <trkpt lat="47.81797" lon="-3.53434">
        <ele>23</ele>
        <time>2019-07-15T10:08:11Z</time>
      </trkpt>
      <trkpt lat="47.81797" lon="-3.53433">
        <ele>23</ele>
        <time>2019-07-15T10:08:12Z</time>
      </trkpt>
      <trkpt lat="47.818" lon="-3.53426">
        <ele>23</ele>
        <time>2019-07-15T10:08:13Z</time>
      </trkpt>
      <trkpt lat="47.81801" lon="-3.53424">
        <ele>23</ele>
        <time>2019-07-15T10:08:14Z</time>
      </trkpt>
      <trkpt lat="47.81802" lon="-3.53423">
        <ele>23</ele>
        <time>2019-07-15T10:08:15Z</time>
      </trkpt>
      <trkpt lat="47.81803" lon="-3.53423">
        <ele>23</ele>
        <time>2019-07-15T10:08:16Z</time>
      </trkpt>
      <trkpt lat="47.81804" lon="-3.53422">
        <ele>23</ele>
        <time>2019-07-15T10:08:17Z</time>
      </trkpt>
      <trkpt lat="47.81806" lon="-3.53421">
        <ele>23</ele>
        <time>2019-07-15T10:08:18Z</time>
      </trkpt>
      <trkpt lat="47.81807" lon="-3.5342">
        <ele>23</ele>
        <time>2019-07-15T10:08:19Z</time>
      </trkpt>
      <trkpt lat="47.81809" lon="-3.53419">
        <ele>23</ele>
        <time>2019-07-15T10:08:20Z</time>
      </trkpt>
      <trkpt lat="47.8181" lon="-3.53417">
        <ele>23</ele>
        <time>2019-07-15T10:08:21Z</time>
      </trkpt>
      <trkpt lat="47.81811" lon="-3.53415">
        <ele>23</ele>
        <time>2019-07-15T10:08:22Z</time>
      </trkpt>
      <trkpt lat="47.81812" lon="-3.53414">
        <ele>23</ele>
        <time>2019-07-15T10:08:23Z</time>
      </trkpt>
      <trkpt lat="47.81813" lon="-3.53412">
        <ele>23</ele>
        <time>2019-07-15T10:08:24Z</time>
      </trkpt>
      <trkpt lat="47.81814" lon="-3.5341">
        <ele>23</ele>
        <time>2019-07-15T10:08:25Z</time>
      </trkpt>
      <trkpt lat="47.81814" lon="-3.53408">
        <ele>23</ele>
        <time>2019-07-15T10:08:26Z</time>
      </trkpt>
      <trkpt lat="47.81815" lon="-3.53406">
        <ele>23</ele>
        <time>2019-07-15T10:08:27Z</time>
      </trkpt>
      <trkpt lat="47.81816" lon="-3.53404">
        <ele>23</ele>
        <time>2019-07-15T10:08:28Z</time>
      </trkpt>
      <trkpt lat="47.81817" lon="-3.53403">
        <ele>23</ele>
        <time>2019-07-15T10:08:29Z</time>
      </trkpt>
      <trkpt lat="47.81817" lon="-3.53401">
        <ele>23</ele>
        <time>2019-07-15T10:08:30Z</time>
      </trkpt>
      <trkpt lat="47.81819" lon="-3.53399">
        <ele>23</ele>
        <time>2019-07-15T10:08:31Z</time>
      </trkpt>
      <trkpt lat="47.8182" lon="-3.53398">
        <ele>23</ele>
        <time>2019-07-15T10:08:32Z</time>
      </trkpt>
      <trkpt lat="47.81821" lon="-3.53397">
        <ele>23</ele>
        <time>2019-07-15T10:08:33Z</time>
      </trkpt>
      <trkpt lat="47.81822" lon="-3.53395">
        <ele>23</ele>
        <time>2019-07-15T10:08:34Z</time>
      </trkpt>
      <trkpt lat="47.81823" lon="-3.53393">
        <ele>24</ele>
        <time>2019-07-15T10:08:35Z</time>
      </trkpt>
      <trkpt lat="47.81825" lon="-3.5339">
        <ele>24</ele>
        <time>2019-07-15T10:08:36Z</time>
      </trkpt>
      <trkpt lat="47.81826" lon="-3.53387">
        <ele>24</ele>
        <time>2019-07-15T10:08:37Z</time>
      </trkpt>
      <trkpt lat="47.81827" lon="-3.53385">
        <ele>24</ele>
        <time>2019-07-15T10:08:38Z</time>
      </trkpt>
      <trkpt lat="47.81827" lon="-3.53384">
        <ele>24</ele>
        <time>2019-07-15T10:08:39Z</time>
      </trkpt>
      <trkpt lat="47.81828" lon="-3.53382">
        <ele>24</ele>
        <time>2019-07-15T10:08:40Z</time>
      </trkpt>
      <trkpt lat="47.81829" lon="-3.53381">
        <ele>25</ele>
        <time>2019-07-15T10:08:41Z</time>
      </trkpt>
      <trkpt lat="47.81829" lon="-3.53379">
        <ele>25</ele>
        <time>2019-07-15T10:08:42Z</time>
      </trkpt>
      <trkpt lat="47.8183" lon="-3.53377">
        <ele>25</ele>
        <time>2019-07-15T10:08:43Z</time>
      </trkpt>
      <trkpt lat="47.81831" lon="-3.53375">
        <ele>25</ele>
        <time>2019-07-15T10:08:44Z</time>
      </trkpt>
      <trkpt lat="47.81832" lon="-3.53373">
        <ele>26</ele>
        <time>2019-07-15T10:08:45Z</time>
      </trkpt>
      <trkpt lat="47.81832" lon="-3.53371">
        <ele>26</ele>
        <time>2019-07-15T10:08:46Z</time>
      </trkpt>
      <trkpt lat="47.81833" lon="-3.53369">
        <ele>26</ele>
        <time>2019-07-15T10:08:47Z</time>
      </trkpt>
      <trkpt lat="47.81834" lon="-3.53367">
        <ele>27</ele>
        <time>2019-07-15T10:08:48Z</time>
      </trkpt>
      <trkpt lat="47.81834" lon="-3.53365">
        <ele>27</ele>
        <time>2019-07-15T10:08:49Z</time>
      </trkpt>
      <trkpt lat="47.81835" lon="-3.53363">
        <ele>27</ele>
        <time>2019-07-15T10:08:50Z</time>
      </trkpt>
      <trkpt lat="47.81836" lon="-3.53361">
        <ele>28</ele>
        <time>2019-07-15T10:08:51Z</time>
      </trkpt>
      <trkpt lat="47.81836" lon="-3.53359">
        <ele>28</ele>
        <time>2019-07-15T10:08:52Z</time>
      </trkpt>
      <trkpt lat="47.81836" lon="-3.53357">
        <ele>28</ele>
        <time>2019-07-15T10:08:53Z</time>
      </trkpt>
      <trkpt lat="47.81837" lon="-3.53355">
        <ele>29</ele>
        <time>2019-07-15T10:08:54Z</time>
      </trkpt>
      <trkpt lat="47.81837" lon="-3.53353">
        <ele>29</ele>
        <time>2019-07-15T10:08:55Z</time>
      </trkpt>
      <trkpt lat="47.81838" lon="-3.53351">
        <ele>30</ele>
        <time>2019-07-15T10:08:56Z</time>
      </trkpt>
      <trkpt lat="47.81839" lon="-3.53349">
        <ele>30</ele>
        <time>2019-07-15T10:08:57Z</time>
      </trkpt>
      <trkpt lat="47.8184" lon="-3.53347">
        <ele>31</ele>
        <time>2019-07-15T10:08:58Z</time>
      </trkpt>
      <trkpt lat="47.81841" lon="-3.53346">
        <ele>31</ele>
        <time>2019-07-15T10:08:59Z</time>
      </trkpt>
      <trkpt lat="47.81842" lon="-3.53345">
        <ele>32</ele>
        <time>2019-07-15T10:09:00Z</time>
      </trkpt>
      <trkpt lat="47.81843" lon="-3.53345">
        <ele>32</ele>
        <time>2019-07-15T10:09:01Z</time>
      </trkpt>
      <trkpt lat="47.81845" lon="-3.53343">
        <ele>32</ele>
        <time>2019-07-15T10:09:02Z</time>
      </trkpt>
      <trkpt lat="47.81847" lon="-3.53339">
        <ele>33</ele>
        <time>2019-07-15T10:09:03Z</time>
      </trkpt>
      <trkpt lat="47.8185" lon="-3.53335">
        <ele>33</ele>
        <time>2019-07-15T10:09:04Z</time>
      </trkpt>
      <trkpt lat="47.81853" lon="-3.53331">
        <ele>33</ele>
        <time>2019-07-15T10:09:05Z</time>
      </trkpt>
      <trkpt lat="47.81855" lon="-3.53326">
        <ele>34</ele>
        <time>2019-07-15T10:09:06Z</time>
      </trkpt>
      <trkpt lat="47.81857" lon="-3.53321">
        <ele>34</ele>
        <time>2019-07-15T10:09:07Z</time>
      </trkpt>
      <trkpt lat="47.81859" lon="-3.53314">
        <ele>34</ele>
        <time>2019-07-15T10:09:08Z</time>
      </trkpt>
      <trkpt lat="47.81862" lon="-3.53306">
        <ele>34</ele>
        <time>2019-07-15T10:09:09Z</time>
      </trkpt>
      <trkpt lat="47.81866" lon="-3.533">
        <ele>34</ele>
        <time>2019-07-15T10:09:10Z</time>
      </trkpt>
      <trkpt lat="47.8187" lon="-3.53294">
        <ele>35</ele>
        <time>2019-07-15T10:09:11Z</time>
      </trkpt>
      <trkpt lat="47.81874" lon="-3.53288">
        <ele>35</ele>
        <time>2019-07-15T10:09:12Z</time>
      </trkpt>
      <trkpt lat="47.81878" lon="-3.53282">
        <ele>35</ele>
        <time>2019-07-15T10:09:13Z</time>
      </trkpt>
      <trkpt lat="47.81882" lon="-3.53278">
        <ele>35</ele>
        <time>2019-07-15T10:09:14Z</time>
      </trkpt>
      <trkpt lat="47.81886" lon="-3.53276">
        <ele>35</ele>
        <time>2019-07-15T10:09:15Z</time>
      </trkpt>
      <trkpt lat="47.81891" lon="-3.53272">
        <ele>35</ele>
        <time>2019-07-15T10:09:16Z</time>
      </trkpt>
      <trkpt lat="47.81895" lon="-3.53269">
        <ele>35</ele>
        <time>2019-07-15T10:09:17Z</time>
      </trkpt>
      <trkpt lat="47.81899" lon="-3.53267">
        <ele>35</ele>
        <time>2019-07-15T10:09:18Z</time>
      </trkpt>
      <trkpt lat="47.81902" lon="-3.53265">
        <ele>35</ele>
        <time>2019-07-15T10:09:19Z</time>
      </trkpt>
      <trkpt lat="47.81905" lon="-3.53263">
        <ele>35</ele>
        <time>2019-07-15T10:09:20Z</time>
      </trkpt>
      <trkpt lat="47.81908" lon="-3.53261">
        <ele>35</ele>
        <time>2019-07-15T10:09:21Z</time>
      </trkpt>
      <trkpt lat="47.8191" lon="-3.53258">
        <ele>35</ele>
        <time>2019-07-15T10:09:22Z</time>
      </trkpt>
      <trkpt lat="47.81913" lon="-3.53254">
        <ele>35</ele>
        <time>2019-07-15T10:09:23Z</time>
      </trkpt>
      <trkpt lat="47.81916" lon="-3.53249">
        <ele>35</ele>
        <time>2019-07-15T10:09:24Z</time>
      </trkpt>
      <trkpt lat="47.81918" lon="-3.53244">
        <ele>35</ele>
        <time>2019-07-15T10:09:25Z</time>
      </trkpt>
      <trkpt lat="47.8192" lon="-3.53239">
        <ele>35</ele>
        <time>2019-07-15T10:09:26Z</time>
      </trkpt>
      <trkpt lat="47.81922" lon="-3.53234">
        <ele>34</ele>
        <time>2019-07-15T10:09:27Z</time>
      </trkpt>
      <trkpt lat="47.81924" lon="-3.5323">
        <ele>34</ele>
        <time>2019-07-15T10:09:28Z</time>
      </trkpt>
      <trkpt lat="47.81925" lon="-3.53227">
        <ele>34</ele>
        <time>2019-07-15T10:09:29Z</time>
      </trkpt>
      <trkpt lat="47.81927" lon="-3.53223">
        <ele>34</ele>
        <time>2019-07-15T10:09:30Z</time>
      </trkpt>
      <trkpt lat="47.81929" lon="-3.53218">
        <ele>34</ele>
        <time>2019-07-15T10:09:31Z</time>
      </trkpt>
      <trkpt lat="47.81931" lon="-3.53214">
        <ele>34</ele>
        <time>2019-07-15T10:09:32Z</time>
      </trkpt>
      <trkpt lat="47.81932" lon="-3.5321">
        <ele>34</ele>
        <time>2019-07-15T10:09:33Z</time>
      </trkpt>
      <trkpt lat="47.81934" lon="-3.53207">
        <ele>34</ele>
        <time>2019-07-15T10:09:34Z</time>
      </trkpt>
      <trkpt lat="47.81936" lon="-3.53204">
        <ele>35</ele>
        <time>2019-07-15T10:09:35Z</time>
      </trkpt>
      <trkpt lat="47.81938" lon="-3.53203">
        <ele>35</ele>
        <time>2019-07-15T10:09:36Z</time>
      </trkpt>
      <trkpt lat="47.8194" lon="-3.53202">
        <ele>35</ele>
        <time>2019-07-15T10:09:37Z</time>
      </trkpt>
      <trkpt lat="47.81942" lon="-3.53199">
        <ele>35</ele>
        <time>2019-07-15T10:09:38Z</time>
      </trkpt>
      <trkpt lat="47.81945" lon="-3.53195">
        <ele>35</ele>
        <time>2019-07-15T10:09:39Z</time>
      </trkpt>
      <trkpt lat="47.81948" lon="-3.53191">
        <ele>35</ele>
        <time>2019-07-15T10:09:40Z</time>
      </trkpt>
      <trkpt lat="47.8195" lon="-3.53186">
        <ele>36</ele>
        <time>2019-07-15T10:09:41Z</time>
      </trkpt>
      <trkpt lat="47.81952" lon="-3.53181">
        <ele>36</ele>
        <time>2019-07-15T10:09:42Z</time>
      </trkpt>
      <trkpt lat="47.81955" lon="-3.53177">
        <ele>36</ele>
        <time>2019-07-15T10:09:43Z</time>
      </trkpt>
      <trkpt lat="47.81957" lon="-3.53174">
        <ele>36</ele>
        <time>2019-07-15T10:09:44Z</time>
      </trkpt>
      <trkpt lat="47.8196" lon="-3.53174">
        <ele>36</ele>
        <time>2019-07-15T10:09:45Z</time>
      </trkpt>
      <trkpt lat="47.81962" lon="-3.53174">
        <ele>36</ele>
        <time>2019-07-15T10:09:46Z</time>
      </trkpt>
      <trkpt lat="47.81964" lon="-3.53174">
        <ele>37</ele>
        <time>2019-07-15T10:09:47Z</time>
      </trkpt>
      <trkpt lat="47.81967" lon="-3.53176">
        <ele>37</ele>
        <time>2019-07-15T10:09:48Z</time>
      </trkpt>
      <trkpt lat="47.81969" lon="-3.53177">
        <ele>37</ele>
        <time>2019-07-15T10:09:49Z</time>
      </trkpt>
      <trkpt lat="47.81972" lon="-3.53179">
        <ele>37</ele>
        <time>2019-07-15T10:09:50Z</time>
      </trkpt>
      <trkpt lat="47.81976" lon="-3.53183">
        <ele>37</ele>
        <time>2019-07-15T10:09:51Z</time>
      </trkpt>
      <trkpt lat="47.81979" lon="-3.53185">
        <ele>37</ele>
        <time>2019-07-15T10:09:52Z</time>
      </trkpt>
      <trkpt lat="47.81982" lon="-3.53188">
        <ele>37</ele>
        <time>2019-07-15T10:09:53Z</time>
      </trkpt>
      <trkpt lat="47.81984" lon="-3.53191">
        <ele>37</ele>
        <time>2019-07-15T10:09:54Z</time>
      </trkpt>
      <trkpt lat="47.81987" lon="-3.53191">
        <ele>36</ele>
        <time>2019-07-15T10:09:55Z</time>
      </trkpt>
      <trkpt lat="47.81989" lon="-3.53192">
        <ele>36</ele>
        <time>2019-07-15T10:09:56Z</time>
      </trkpt>
      <trkpt lat="47.81991" lon="-3.53195">
        <ele>36</ele>
        <time>2019-07-15T10:09:57Z</time>
      </trkpt>
      <trkpt lat="47.81993" lon="-3.53198">
        <ele>36</ele>
        <time>2019-07-15T10:09:58Z</time>
      </trkpt>
      <trkpt lat="47.81995" lon="-3.53203">
        <ele>36</ele>
        <time>2019-07-15T10:09:59Z</time>
      </trkpt>
      <trkpt lat="47.81997" lon="-3.53207">
        <ele>36</ele>
        <time>2019-07-15T10:10:00Z</time>
      </trkpt>
      <trkpt lat="47.81998" lon="-3.53213">
        <ele>36</ele>
        <time>2019-07-15T10:10:01Z</time>
      </trkpt>
      <trkpt lat="47.81999" lon="-3.53218">
        <ele>36</ele>
        <time>2019-07-15T10:10:02Z</time>
      </trkpt>
      <trkpt lat="47.82001" lon="-3.53223">
        <ele>35</ele>
        <time>2019-07-15T10:10:03Z</time>
      </trkpt>
      <trkpt lat="47.82002" lon="-3.53227">
        <ele>35</ele>
        <time>2019-07-15T10:10:04Z</time>
      </trkpt>
      <trkpt lat="47.82004" lon="-3.5323">
        <ele>35</ele>
        <time>2019-07-15T10:10:05Z</time>
      </trkpt>
      <trkpt lat="47.82005" lon="-3.53233">
        <ele>35</ele>
        <time>2019-07-15T10:10:06Z</time>
      </trkpt>
      <trkpt lat="47.82006" lon="-3.53234">
        <ele>35</ele>
        <time>2019-07-15T10:10:07Z</time>
      </trkpt>
      <trkpt lat="47.82006" lon="-3.53235">
        <ele>35</ele>
        <time>2019-07-15T10:10:08Z</time>
      </trkpt>
      <trkpt lat="47.82008" lon="-3.53237">
        <ele>34</ele>
        <time>2019-07-15T10:10:09Z</time>
      </trkpt>
      <trkpt lat="47.82012" lon="-3.5324">
        <ele>34</ele>
        <time>2019-07-15T10:10:10Z</time>
      </trkpt>
      <trkpt lat="47.82017" lon="-3.53243">
        <ele>34</ele>
        <time>2019-07-15T10:10:11Z</time>
      </trkpt>
      <trkpt lat="47.82023" lon="-3.53247">
        <ele>34</ele>
        <time>2019-07-15T10:10:12Z</time>
      </trkpt>
      <trkpt lat="47.82028" lon="-3.53251">
        <ele>33</ele>
        <time>2019-07-15T10:10:13Z</time>
      </trkpt>
      <trkpt lat="47.82033" lon="-3.53256">
        <ele>33</ele>
        <time>2019-07-15T10:10:14Z</time>
      </trkpt>
      <trkpt lat="47.82037" lon="-3.53262">
        <ele>32</ele>
        <time>2019-07-15T10:10:15Z</time>
      </trkpt>
      <trkpt lat="47.82043" lon="-3.53268">
        <ele>31</ele>
        <time>2019-07-15T10:10:16Z</time>
      </trkpt>
      <trkpt lat="47.82049" lon="-3.53274">
        <ele>31</ele>
        <time>2019-07-15T10:10:17Z</time>
      </trkpt>
      <trkpt lat="47.82054" lon="-3.5328">
        <ele>30</ele>
        <time>2019-07-15T10:10:18Z</time>
      </trkpt>
      <trkpt lat="47.8206" lon="-3.53286">
        <ele>30</ele>
        <time>2019-07-15T10:10:19Z</time>
      </trkpt>
      <trkpt lat="47.82067" lon="-3.53293">
        <ele>29</ele>
        <time>2019-07-15T10:10:20Z</time>
      </trkpt>
      <trkpt lat="47.82074" lon="-3.533">
        <ele>29</ele>
        <time>2019-07-15T10:10:21Z</time>
      </trkpt>
      <trkpt lat="47.8208" lon="-3.53308">
        <ele>28</ele>
        <time>2019-07-15T10:10:22Z</time>
      </trkpt>
      <trkpt lat="47.82086" lon="-3.53315">
        <ele>28</ele>
        <time>2019-07-15T10:10:23Z</time>
      </trkpt>
      <trkpt lat="47.82092" lon="-3.53322">
        <ele>27</ele>
        <time>2019-07-15T10:10:24Z</time>
      </trkpt>
      <trkpt lat="47.82098" lon="-3.53327">
        <ele>27</ele>
        <time>2019-07-15T10:10:25Z</time>
      </trkpt>
      <trkpt lat="47.82104" lon="-3.53332">
        <ele>26</ele>
        <time>2019-07-15T10:10:26Z</time>
      </trkpt>
      <trkpt lat="47.8211" lon="-3.53336">
        <ele>25</ele>
        <time>2019-07-15T10:10:27Z</time>
      </trkpt>
      <trkpt lat="47.82115" lon="-3.53339">
        <ele>25</ele>
        <time>2019-07-15T10:10:28Z</time>
      </trkpt>
      <trkpt lat="47.82119" lon="-3.53343">
        <ele>24</ele>
        <time>2019-07-15T10:10:29Z</time>
      </trkpt>
      <trkpt lat="47.82122" lon="-3.53347">
        <ele>24</ele>
        <time>2019-07-15T10:10:30Z</time>
      </trkpt>
      <trkpt lat="47.82125" lon="-3.53351">
        <ele>23</ele>
        <time>2019-07-15T10:10:31Z</time>
      </trkpt>
      <trkpt lat="47.82128" lon="-3.53356">
        <ele>22</ele>
        <time>2019-07-15T10:10:32Z</time>
      </trkpt>
      <trkpt lat="47.82132" lon="-3.53362">
        <ele>22</ele>
        <time>2019-07-15T10:10:33Z</time>
      </trkpt>
      <trkpt lat="47.82135" lon="-3.53369">
        <ele>21</ele>
        <time>2019-07-15T10:10:34Z</time>
      </trkpt>
      <trkpt lat="47.82139" lon="-3.53374">
        <ele>21</ele>
        <time>2019-07-15T10:10:35Z</time>
      </trkpt>
      <trkpt lat="47.82144" lon="-3.5338">
        <ele>20</ele>
        <time>2019-07-15T10:10:36Z</time>
      </trkpt>
      <trkpt lat="47.82148" lon="-3.53387">
        <ele>20</ele>
        <time>2019-07-15T10:10:37Z</time>
      </trkpt>
      <trkpt lat="47.82153" lon="-3.53393">
        <ele>19</ele>
        <time>2019-07-15T10:10:38Z</time>
      </trkpt>
      <trkpt lat="47.82157" lon="-3.53399">
        <ele>19</ele>
        <time>2019-07-15T10:10:39Z</time>
      </trkpt>
      <trkpt lat="47.8216" lon="-3.53405">
        <ele>18</ele>
        <time>2019-07-15T10:10:40Z</time>
      </trkpt>
      <trkpt lat="47.82162" lon="-3.53412">
        <ele>18</ele>
        <time>2019-07-15T10:10:41Z</time>
      </trkpt>
      <trkpt lat="47.82164" lon="-3.53418">
        <ele>17</ele>
        <time>2019-07-15T10:10:42Z</time>
      </trkpt>
      <trkpt lat="47.82167" lon="-3.53424">
        <ele>17</ele>
        <time>2019-07-15T10:10:43Z</time>
      </trkpt>
      <trkpt lat="47.8217" lon="-3.53429">
        <ele>16</ele>
        <time>2019-07-15T10:10:44Z</time>
      </trkpt>
      <trkpt lat="47.82173" lon="-3.53434">
        <ele>16</ele>
        <time>2019-07-15T10:10:45Z</time>
      </trkpt>
      <trkpt lat="47.82177" lon="-3.53436">
        <ele>15</ele>
        <time>2019-07-15T10:10:46Z</time>
      </trkpt>
      <trkpt lat="47.82182" lon="-3.53437">
        <ele>15</ele>
        <time>2019-07-15T10:10:47Z</time>
      </trkpt>
      <trkpt lat="47.82186" lon="-3.53438">
        <ele>15</ele>
        <time>2019-07-15T10:10:48Z</time>
      </trkpt>
      <trkpt lat="47.8219" lon="-3.53439">
        <ele>14</ele>
        <time>2019-07-15T10:10:49Z</time>
      </trkpt>
      <trkpt lat="47.82194" lon="-3.53438">
        <ele>14</ele>
        <time>2019-07-15T10:10:50Z</time>
      </trkpt>
      <trkpt lat="47.82197" lon="-3.53437">
        <ele>14</ele>
        <time>2019-07-15T10:10:51Z</time>
      </trkpt>
      <trkpt lat="47.822" lon="-3.53435">
        <ele>13</ele>
        <time>2019-07-15T10:10:52Z</time>
      </trkpt>
      <trkpt lat="47.82203" lon="-3.53434">
        <ele>13</ele>
        <time>2019-07-15T10:10:53Z</time>
      </trkpt>
      <trkpt lat="47.82206" lon="-3.53432">
        <ele>13</ele>
        <time>2019-07-15T10:10:54Z</time>
      </trkpt>
      <trkpt lat="47.82208" lon="-3.53431">
        <ele>13</ele>
        <time>2019-07-15T10:10:55Z</time>
      </trkpt>
      <trkpt lat="47.82211" lon="-3.53428">
        <ele>12</ele>
        <time>2019-07-15T10:10:56Z</time>
      </trkpt>
      <trkpt lat="47.82214" lon="-3.53426">
        <ele>12</ele>
        <time>2019-07-15T10:10:57Z</time>
      </trkpt>
      <trkpt lat="47.82217" lon="-3.53423">
        <ele>12</ele>
        <time>2019-07-15T10:10:58Z</time>
      </trkpt>
      <trkpt lat="47.8222" lon="-3.5342">
        <ele>12</ele>
        <time>2019-07-15T10:10:59Z</time>
      </trkpt>
      <trkpt lat="47.82222" lon="-3.53417">
        <ele>12</ele>
        <time>2019-07-15T10:11:00Z</time>
      </trkpt>
      <trkpt lat="47.82224" lon="-3.53416">
        <ele>12</ele>
        <time>2019-07-15T10:11:01Z</time>
      </trkpt>
      <trkpt lat="47.82226" lon="-3.53416">
        <ele>12</ele>
        <time>2019-07-15T10:11:02Z</time>
      </trkpt>
      <trkpt lat="47.82227" lon="-3.53417">
        <ele>12</ele>
        <time>2019-07-15T10:11:03Z</time>
      </trkpt>
      <trkpt lat="47.82229" lon="-3.53419">
        <ele>12</ele>
        <time>2019-07-15T10:11:04Z</time>
      </trkpt>
      <trkpt lat="47.82231" lon="-3.53421">
        <ele>12</ele>
        <time>2019-07-15T10:11:05Z</time>
      </trkpt>
      <trkpt lat="47.82232" lon="-3.53425">
        <ele>12</ele>
        <time>2019-07-15T10:11:06Z</time>
      </trkpt>
      <trkpt lat="47.82232" lon="-3.53429">
        <ele>12</ele>
        <time>2019-07-15T10:11:07Z</time>
      </trkpt>
      <trkpt lat="47.82231" lon="-3.53434">
        <ele>12</ele>
        <time>2019-07-15T10:11:08Z</time>
      </trkpt>
      <trkpt lat="47.8223" lon="-3.53438">
        <ele>13</ele>
        <time>2019-07-15T10:11:09Z</time>
      </trkpt>
      <trkpt lat="47.82229" lon="-3.53442">
        <ele>13</ele>
        <time>2019-07-15T10:11:10Z</time>
      </trkpt>
      <trkpt lat="47.82228" lon="-3.53446">
        <ele>13</ele>
        <time>2019-07-15T10:11:11Z</time>
      </trkpt>
      <trkpt lat="47.82228" lon="-3.53449">
        <ele>13</ele>
        <time>2019-07-15T10:11:12Z</time>
      </trkpt>
      <trkpt lat="47.82227" lon="-3.53452">
        <ele>13</ele>
        <time>2019-07-15T10:11:13Z</time>
      </trkpt>
      <trkpt lat="47.82227" lon="-3.53453">
        <ele>13</ele>
        <time>2019-07-15T10:11:14Z</time>
      </trkpt>
      <trkpt lat="47.82227" lon="-3.53456">
        <ele>13</ele>
        <time>2019-07-15T10:11:15Z</time>
      </trkpt>
      <trkpt lat="47.82226" lon="-3.53459">
        <ele>14</ele>
        <time>2019-07-15T10:11:16Z</time>
      </trkpt>
      <trkpt lat="47.82225" lon="-3.53462">
        <ele>14</ele>
        <time>2019-07-15T10:11:17Z</time>
      </trkpt>
      <trkpt lat="47.82225" lon="-3.53465">
        <ele>14</ele>
        <time>2019-07-15T10:11:18Z</time>
      </trkpt>
      <trkpt lat="47.82224" lon="-3.53468">
        <ele>14</ele>
        <time>2019-07-15T10:11:19Z</time>
      </trkpt>
      <trkpt lat="47.82223" lon="-3.5347">
        <ele>14</ele>
        <time>2019-07-15T10:11:20Z</time>
      </trkpt>
      <trkpt lat="47.82224" lon="-3.53472">
        <ele>14</ele>
        <time>2019-07-15T10:11:21Z</time>
      </trkpt>
      <trkpt lat="47.82224" lon="-3.53475">
        <ele>14</ele>
        <time>2019-07-15T10:11:22Z</time>
      </trkpt>
      <trkpt lat="47.82224" lon="-3.53477">
        <ele>15</ele>
        <time>2019-07-15T10:11:23Z</time>
      </trkpt>
      <trkpt lat="47.82223" lon="-3.53479">
        <ele>15</ele>
        <time>2019-07-15T10:11:24Z</time>
      </trkpt>
      <trkpt lat="47.82223" lon="-3.5348">
        <ele>15</ele>
        <time>2019-07-15T10:11:25Z</time>
      </trkpt>
      <trkpt lat="47.82222" lon="-3.53482">
        <ele>15</ele>
        <time>2019-07-15T10:11:26Z</time>
      </trkpt>
      <trkpt lat="47.82221" lon="-3.53484">
        <ele>15</ele>
        <time>2019-07-15T10:11:27Z</time>
      </trkpt>
      <trkpt lat="47.82221" lon="-3.53486">
        <ele>15</ele>
        <time>2019-07-15T10:11:28Z</time>
      </trkpt>
      <trkpt lat="47.8222" lon="-3.53489">
        <ele>14</ele>
        <time>2019-07-15T10:11:29Z</time>
      </trkpt>
      <trkpt lat="47.8222" lon="-3.53492">
        <ele>14</ele>
        <time>2019-07-15T10:11:30Z</time>
      </trkpt>
      <trkpt lat="47.8222" lon="-3.53497">
        <ele>14</ele>
        <time>2019-07-15T10:11:31Z</time>
      </trkpt>
      <trkpt lat="47.82221" lon="-3.53501">
        <ele>14</ele>
        <time>2019-07-15T10:11:32Z</time>
      </trkpt>
      <trkpt lat="47.82221" lon="-3.53506">
        <ele>14</ele>
        <time>2019-07-15T10:11:33Z</time>
      </trkpt>
      <trkpt lat="47.82223" lon="-3.53509">
        <ele>14</ele>
        <time>2019-07-15T10:11:34Z</time>
      </trkpt>
      <trkpt lat="47.82224" lon="-3.53513">
        <ele>13</ele>
        <time>2019-07-15T10:11:35Z</time>
      </trkpt>
      <trkpt lat="47.82225" lon="-3.53518">
        <ele>13</ele>
        <time>2019-07-15T10:11:36Z</time>
      </trkpt>
      <trkpt lat="47.82226" lon="-3.53522">
        <ele>13</ele>
        <time>2019-07-15T10:11:37Z</time>
      </trkpt>
      <trkpt lat="47.82227" lon="-3.53527">
        <ele>13</ele>
        <time>2019-07-15T10:11:38Z</time>
      </trkpt>
      <trkpt lat="47.82229" lon="-3.53532">
        <ele>13</ele>
        <time>2019-07-15T10:11:39Z</time>
      </trkpt>
      <trkpt lat="47.8223" lon="-3.53536">
        <ele>12</ele>
        <time>2019-07-15T10:11:40Z</time>
      </trkpt>
      <trkpt lat="47.82231" lon="-3.53541">
        <ele>12</ele>
        <time>2019-07-15T10:11:41Z</time>
      </trkpt>
      <trkpt lat="47.82232" lon="-3.53545">
        <ele>12</ele>
        <time>2019-07-15T10:11:42Z</time>
      </trkpt>
      <trkpt lat="47.82233" lon="-3.53549">
        <ele>12</ele>
        <time>2019-07-15T10:11:43Z</time>
      </trkpt>
      <trkpt lat="47.82233" lon="-3.53554">
        <ele>12</ele>
        <time>2019-07-15T10:11:44Z</time>
      </trkpt>
      <trkpt lat="47.82234" lon="-3.53559">
        <ele>12</ele>
        <time>2019-07-15T10:11:45Z</time>
      </trkpt>
      <trkpt lat="47.82236" lon="-3.53565">
        <ele>11</ele>
        <time>2019-07-15T10:11:46Z</time>
      </trkpt>
      <trkpt lat="47.82237" lon="-3.5357">
        <ele>11</ele>
        <time>2019-07-15T10:11:47Z</time>
      </trkpt>
      <trkpt lat="47.82239" lon="-3.53575">
        <ele>11</ele>
        <time>2019-07-15T10:11:48Z</time>
      </trkpt>
      <trkpt lat="47.82241" lon="-3.53579">
        <ele>11</ele>
        <time>2019-07-15T10:11:49Z</time>
      </trkpt>
      <trkpt lat="47.82244" lon="-3.53583">
        <ele>11</ele>
        <time>2019-07-15T10:11:50Z</time>
      </trkpt>
      <trkpt lat="47.82247" lon="-3.53585">
        <ele>11</ele>
        <time>2019-07-15T10:11:51Z</time>
      </trkpt>
      <trkpt lat="47.82249" lon="-3.53586">
        <ele>10</ele>
        <time>2019-07-15T10:11:52Z</time>
      </trkpt>
      <trkpt lat="47.82251" lon="-3.53586">
        <ele>10</ele>
        <time>2019-07-15T10:11:53Z</time>
      </trkpt>
      <trkpt lat="47.82253" lon="-3.53585">
        <ele>10</ele>
        <time>2019-07-15T10:11:54Z</time>
      </trkpt>
      <trkpt lat="47.82255" lon="-3.53585">
        <ele>10</ele>
        <time>2019-07-15T10:11:55Z</time>
      </trkpt>
      <trkpt lat="47.82257" lon="-3.53585">
        <ele>10</ele>
        <time>2019-07-15T10:11:56Z</time>
      </trkpt>
      <trkpt lat="47.82259" lon="-3.53584">
        <ele>9</ele>
        <time>2019-07-15T10:11:57Z</time>
      </trkpt>
      <trkpt lat="47.82262" lon="-3.53582">
        <ele>9</ele>
        <time>2019-07-15T10:11:58Z</time>
      </trkpt>
      <trkpt lat="47.82264" lon="-3.53579">
        <ele>9</ele>
        <time>2019-07-15T10:11:59Z</time>
      </trkpt>
      <trkpt lat="47.82266" lon="-3.53576">
        <ele>9</ele>
        <time>2019-07-15T10:12:00Z</time>
      </trkpt>
      <trkpt lat="47.82268" lon="-3.53572">
        <ele>9</ele>
        <time>2019-07-15T10:12:01Z</time>
      </trkpt>
      <trkpt lat="47.8227" lon="-3.53568">
        <ele>9</ele>
        <time>2019-07-15T10:12:02Z</time>
      </trkpt>
      <trkpt lat="47.82271" lon="-3.53565">
        <ele>9</ele>
        <time>2019-07-15T10:12:03Z</time>
      </trkpt>
      <trkpt lat="47.82273" lon="-3.53563">
        <ele>9</ele>
        <time>2019-07-15T10:12:04Z</time>
      </trkpt>
      <trkpt lat="47.82275" lon="-3.53561">
        <ele>9</ele>
        <time>2019-07-15T10:12:05Z</time>
      </trkpt>
      <trkpt lat="47.82276" lon="-3.53558">
        <ele>9</ele>
        <time>2019-07-15T10:12:06Z</time>
      </trkpt>
      <trkpt lat="47.82277" lon="-3.53555">
        <ele>9</ele>
        <time>2019-07-15T10:12:07Z</time>
      </trkpt>
      <trkpt lat="47.82278" lon="-3.53554">
        <ele>9</ele>
        <time>2019-07-15T10:12:08Z</time>
      </trkpt>
      <trkpt lat="47.82279" lon="-3.53553">
        <ele>9</ele>
        <time>2019-07-15T10:12:09Z</time>
      </trkpt>
      <trkpt lat="47.82279" lon="-3.53552">
        <ele>9</ele>
        <time>2019-07-15T10:12:10Z</time>
      </trkpt>
      <trkpt lat="47.8228" lon="-3.53552">
        <ele>9</ele>
        <time>2019-07-15T10:12:11Z</time>
      </trkpt>
      <trkpt lat="47.82281" lon="-3.53551">
        <ele>9</ele>
        <time>2019-07-15T10:12:12Z</time>
      </trkpt>
      <trkpt lat="47.82283" lon="-3.53549">
        <ele>10</ele>
        <time>2019-07-15T10:12:13Z</time>
      </trkpt>
      <trkpt lat="47.82283" lon="-3.53548">
        <ele>10</ele>
        <time>2019-07-15T10:12:14Z</time>
      </trkpt>
      <trkpt lat="47.82284" lon="-3.53546">
        <ele>10</ele>
        <time>2019-07-15T10:12:15Z</time>
      </trkpt>
      <trkpt lat="47.82285" lon="-3.53545">
        <ele>10</ele>
        <time>2019-07-15T10:12:16Z</time>
      </trkpt>
      <trkpt lat="47.82285" lon="-3.53544">
        <ele>10</ele>
        <time>2019-07-15T10:12:17Z</time>
      </trkpt>
      <trkpt lat="47.82286" lon="-3.53544">
        <ele>10</ele>
        <time>2019-07-15T10:12:18Z</time>
      </trkpt>
      <trkpt lat="47.82286" lon="-3.53543">
        <ele>10</ele>
        <time>2019-07-15T10:12:19Z</time>
      </trkpt>
      <trkpt lat="47.82287" lon="-3.53543">
        <ele>10</ele>
        <time>2019-07-15T10:12:20Z</time>
      </trkpt>
      <trkpt lat="47.82292" lon="-3.53541">
        <ele>14</ele>
        <time>2019-07-15T10:12:21Z</time>
      </trkpt>
      <trkpt lat="47.82292" lon="-3.53541">
        <ele>14</ele>
        <time>2019-07-15T10:12:22Z</time>
      </trkpt>
      <trkpt lat="47.82294" lon="-3.53541">
        <ele>14</ele>
        <time>2019-07-15T10:12:23Z</time>
      </trkpt>
      <trkpt lat="47.82295" lon="-3.53542">
        <ele>15</ele>
        <time>2019-07-15T10:12:24Z</time>
      </trkpt>
      <trkpt lat="47.82297" lon="-3.53543">
        <ele>15</ele>
        <time>2019-07-15T10:12:25Z</time>
      </trkpt>
      <trkpt lat="47.82299" lon="-3.53543">
        <ele>15</ele>
        <time>2019-07-15T10:12:26Z</time>
      </trkpt>
      <trkpt lat="47.82301" lon="-3.53544">
        <ele>15</ele>
        <time>2019-07-15T10:12:27Z</time>
      </trkpt>
      <trkpt lat="47.82302" lon="-3.53545">
        <ele>16</ele>
        <time>2019-07-15T10:12:28Z</time>
      </trkpt>
      <trkpt lat="47.82304" lon="-3.53546">
        <ele>16</ele>
        <time>2019-07-15T10:12:29Z</time>
      </trkpt>
      <trkpt lat="47.82305" lon="-3.53547">
        <ele>16</ele>
        <time>2019-07-15T10:12:30Z</time>
      </trkpt>
      <trkpt lat="47.82307" lon="-3.53548">
        <ele>16</ele>
        <time>2019-07-15T10:12:31Z</time>
      </trkpt>
      <trkpt lat="47.82308" lon="-3.53549">
        <ele>17</ele>
        <time>2019-07-15T10:12:32Z</time>
      </trkpt>
      <trkpt lat="47.82309" lon="-3.53552">
        <ele>17</ele>
        <time>2019-07-15T10:12:33Z</time>
      </trkpt>
      <trkpt lat="47.82311" lon="-3.53554">
        <ele>17</ele>
        <time>2019-07-15T10:12:34Z</time>
      </trkpt>
      <trkpt lat="47.82312" lon="-3.53555">
        <ele>17</ele>
        <time>2019-07-15T10:12:35Z</time>
      </trkpt>
      <trkpt lat="47.82314" lon="-3.53555">
        <ele>18</ele>
        <time>2019-07-15T10:12:36Z</time>
      </trkpt>
      <trkpt lat="47.82314" lon="-3.53555">
        <ele>18</ele>
        <time>2019-07-15T10:12:37Z</time>
      </trkpt>
      <trkpt lat="47.82315" lon="-3.53555">
        <ele>19</ele>
        <time>2019-07-15T10:12:38Z</time>
      </trkpt>
      <trkpt lat="47.82315" lon="-3.53555">
        <ele>19</ele>
        <time>2019-07-15T10:12:39Z</time>
      </trkpt>
      <trkpt lat="47.82315" lon="-3.53555">
        <ele>19</ele>
        <time>2019-07-15T10:12:40Z</time>
      </trkpt>
      <trkpt lat="47.8232" lon="-3.53562">
        <ele>23</ele>
        <time>2019-07-15T10:12:41Z</time>
      </trkpt>
      <trkpt lat="47.82319" lon="-3.53564">
        <ele>23</ele>
        <time>2019-07-15T10:12:42Z</time>
      </trkpt>
      <trkpt lat="47.82318" lon="-3.53566">
        <ele>23</ele>
        <time>2019-07-15T10:12:43Z</time>
      </trkpt>
      <trkpt lat="47.82317" lon="-3.53568">
        <ele>23</ele>
        <time>2019-07-15T10:12:44Z</time>
      </trkpt>
      <trkpt lat="47.82315" lon="-3.53571">
        <ele>23</ele>
        <time>2019-07-15T10:12:45Z</time>
      </trkpt>
      <trkpt lat="47.82315" lon="-3.53573">
        <ele>23</ele>
        <time>2019-07-15T10:12:46Z</time>
      </trkpt>
      <trkpt lat="47.82314" lon="-3.53575">
        <ele>23</ele>
        <time>2019-07-15T10:12:47Z</time>
      </trkpt>
      <trkpt lat="47.82314" lon="-3.53577">
        <ele>23</ele>
        <time>2019-07-15T10:12:48Z</time>
      </trkpt>
      <trkpt lat="47.82313" lon="-3.53578">
        <ele>24</ele>
        <time>2019-07-15T10:12:49Z</time>
      </trkpt>
      <trkpt lat="47.82312" lon="-3.5358">
        <ele>24</ele>
        <time>2019-07-15T10:12:50Z</time>
      </trkpt>
      <trkpt lat="47.8231" lon="-3.53582">
        <ele>24</ele>
        <time>2019-07-15T10:12:51Z</time>
      </trkpt>
      <trkpt lat="47.82308" lon="-3.53585">
        <ele>24</ele>
        <time>2019-07-15T10:12:52Z</time>
      </trkpt>
      <trkpt lat="47.82306" lon="-3.53589">
        <ele>24</ele>
        <time>2019-07-15T10:12:53Z</time>
      </trkpt>
      <trkpt lat="47.82303" lon="-3.53594">
        <ele>24</ele>
        <time>2019-07-15T10:12:54Z</time>
      </trkpt>
      <trkpt lat="47.82301" lon="-3.536">
        <ele>24</ele>
        <time>2019-07-15T10:12:55Z</time>
      </trkpt>
      <trkpt lat="47.82298" lon="-3.53606">
        <ele>24</ele>
        <time>2019-07-15T10:12:56Z</time>
      </trkpt>
      <trkpt lat="47.82296" lon="-3.53612">
        <ele>24</ele>
        <time>2019-07-15T10:12:57Z</time>
      </trkpt>
      <trkpt lat="47.82293" lon="-3.53618">
        <ele>24</ele>
        <time>2019-07-15T10:12:58Z</time>
      </trkpt>
      <trkpt lat="47.8229" lon="-3.53624">
        <ele>24</ele>
        <time>2019-07-15T10:12:59Z</time>
      </trkpt>
      <trkpt lat="47.82288" lon="-3.5363">
        <ele>24</ele>
        <time>2019-07-15T10:13:00Z</time>
      </trkpt>
      <trkpt lat="47.82286" lon="-3.53636">
        <ele>24</ele>
        <time>2019-07-15T10:13:01Z</time>
      </trkpt>
      <trkpt lat="47.82284" lon="-3.53641">
        <ele>24</ele>
        <time>2019-07-15T10:13:02Z</time>
      </trkpt>
      <trkpt lat="47.82283" lon="-3.53645">
        <ele>23</ele>
        <time>2019-07-15T10:13:03Z</time>
      </trkpt>
      <trkpt lat="47.82282" lon="-3.53647">
        <ele>23</ele>
        <time>2019-07-15T10:13:04Z</time>
      </trkpt>
      <trkpt lat="47.82281" lon="-3.53648">
        <ele>23</ele>
        <time>2019-07-15T10:13:05Z</time>
      </trkpt>
      <trkpt lat="47.8228" lon="-3.5365">
        <ele>23</ele>
        <time>2019-07-15T10:13:06Z</time>
      </trkpt>
      <trkpt lat="47.82279" lon="-3.53652">
        <ele>22</ele>
        <time>2019-07-15T10:13:07Z</time>
      </trkpt>
      <trkpt lat="47.82277" lon="-3.53654">
        <ele>22</ele>
        <time>2019-07-15T10:13:08Z</time>
      </trkpt>
      <trkpt lat="47.82274" lon="-3.53656">
        <ele>21</ele>
        <time>2019-07-15T10:13:09Z</time>
      </trkpt>
      <trkpt lat="47.82271" lon="-3.53657">
        <ele>21</ele>
        <time>2019-07-15T10:13:10Z</time>
      </trkpt>
      <trkpt lat="47.82268" lon="-3.53659">
        <ele>20</ele>
        <time>2019-07-15T10:13:11Z</time>
      </trkpt>
      <trkpt lat="47.82267" lon="-3.53662">
        <ele>20</ele>
        <time>2019-07-15T10:13:12Z</time>
      </trkpt>
      <trkpt lat="47.82266" lon="-3.53666">
        <ele>19</ele>
        <time>2019-07-15T10:13:13Z</time>
      </trkpt>
      <trkpt lat="47.82267" lon="-3.5367">
        <ele>19</ele>
        <time>2019-07-15T10:13:14Z</time>
      </trkpt>
      <trkpt lat="47.82267" lon="-3.53674">
        <ele>18</ele>
        <time>2019-07-15T10:13:15Z</time>
      </trkpt>
      <trkpt lat="47.82268" lon="-3.53678">
        <ele>18</ele>
        <time>2019-07-15T10:13:16Z</time>
      </trkpt>
      <trkpt lat="47.82268" lon="-3.53682">
        <ele>17</ele>
        <time>2019-07-15T10:13:17Z</time>
      </trkpt>
      <trkpt lat="47.82269" lon="-3.53686">
        <ele>17</ele>
        <time>2019-07-15T10:13:18Z</time>
      </trkpt>
      <trkpt lat="47.8227" lon="-3.53691">
        <ele>17</ele>
        <time>2019-07-15T10:13:19Z</time>
      </trkpt>
      <trkpt lat="47.82272" lon="-3.53697">
        <ele>16</ele>
        <time>2019-07-15T10:13:20Z</time>
      </trkpt>
      <trkpt lat="47.82272" lon="-3.53702">
        <ele>16</ele>
        <time>2019-07-15T10:13:21Z</time>
      </trkpt>
      <trkpt lat="47.82273" lon="-3.53706">
        <ele>15</ele>
        <time>2019-07-15T10:13:22Z</time>
      </trkpt>
      <trkpt lat="47.82273" lon="-3.53711">
        <ele>15</ele>
        <time>2019-07-15T10:13:23Z</time>
      </trkpt>
      <trkpt lat="47.82273" lon="-3.53713">
        <ele>14</ele>
        <time>2019-07-15T10:13:24Z</time>
      </trkpt>
      <trkpt lat="47.82274" lon="-3.53716">
        <ele>14</ele>
        <time>2019-07-15T10:13:25Z</time>
      </trkpt>
      <trkpt lat="47.82276" lon="-3.53719">
        <ele>14</ele>
        <time>2019-07-15T10:13:26Z</time>
      </trkpt>
      <trkpt lat="47.82279" lon="-3.53721">
        <ele>13</ele>
        <time>2019-07-15T10:13:27Z</time>
      </trkpt>
      <trkpt lat="47.82282" lon="-3.53723">
        <ele>13</ele>
        <time>2019-07-15T10:13:28Z</time>
      </trkpt>
      <trkpt lat="47.82285" lon="-3.53725">
        <ele>12</ele>
        <time>2019-07-15T10:13:29Z</time>
      </trkpt>
      <trkpt lat="47.82288" lon="-3.53727">
        <ele>12</ele>
        <time>2019-07-15T10:13:30Z</time>
      </trkpt>
      <trkpt lat="47.8229" lon="-3.53729">
        <ele>11</ele>
        <time>2019-07-15T10:13:31Z</time>
      </trkpt>
      <trkpt lat="47.82293" lon="-3.53731">
        <ele>11</ele>
        <time>2019-07-15T10:13:32Z</time>
      </trkpt>
      <trkpt lat="47.82297" lon="-3.53733">
        <ele>11</ele>
        <time>2019-07-15T10:13:33Z</time>
      </trkpt>
      <trkpt lat="47.823" lon="-3.53736">
        <ele>10</ele>
        <time>2019-07-15T10:13:34Z</time>
      </trkpt>
      <trkpt lat="47.82303" lon="-3.53739">
        <ele>10</ele>
        <time>2019-07-15T10:13:35Z</time>
      </trkpt>
      <trkpt lat="47.82306" lon="-3.53741">
        <ele>10</ele>
        <time>2019-07-15T10:13:36Z</time>
      </trkpt>
      <trkpt lat="47.82309" lon="-3.53743">
        <ele>10</ele>
        <time>2019-07-15T10:13:37Z</time>
      </trkpt>
      <trkpt lat="47.82311" lon="-3.53747">
        <ele>10</ele>
        <time>2019-07-15T10:13:38Z</time>
      </trkpt>
      <trkpt lat="47.82312" lon="-3.5375">
        <ele>9</ele>
        <time>2019-07-15T10:13:39Z</time>
      </trkpt>
      <trkpt lat="47.82313" lon="-3.53754">
        <ele>9</ele>
        <time>2019-07-15T10:13:40Z</time>
      </trkpt>
      <trkpt lat="47.82315" lon="-3.53758">
        <ele>9</ele>
        <time>2019-07-15T10:13:41Z</time>
      </trkpt>
      <trkpt lat="47.82316" lon="-3.53762">
        <ele>9</ele>
        <time>2019-07-15T10:13:42Z</time>
      </trkpt>
      <trkpt lat="47.82318" lon="-3.53765">
        <ele>9</ele>
        <time>2019-07-15T10:13:43Z</time>
      </trkpt>
      <trkpt lat="47.8232" lon="-3.53768">
        <ele>9</ele>
        <time>2019-07-15T10:13:44Z</time>
      </trkpt>
      <trkpt lat="47.82322" lon="-3.53771">
        <ele>9</ele>
        <time>2019-07-15T10:13:45Z</time>
      </trkpt>
      <trkpt lat="47.82325" lon="-3.53774">
        <ele>9</ele>
        <time>2019-07-15T10:13:46Z</time>
      </trkpt>
      <trkpt lat="47.82327" lon="-3.53775">
        <ele>9</ele>
        <time>2019-07-15T10:13:47Z</time>
      </trkpt>
      <trkpt lat="47.82329" lon="-3.53777">
        <ele>8</ele>
        <time>2019-07-15T10:13:48Z</time>
      </trkpt>
      <trkpt lat="47.82331" lon="-3.53779">
        <ele>8</ele>
        <time>2019-07-15T10:13:49Z</time>
      </trkpt>
      <trkpt lat="47.82333" lon="-3.53781">
        <ele>8</ele>
        <time>2019-07-15T10:13:50Z</time>
      </trkpt>
      <trkpt lat="47.82335" lon="-3.53782">
        <ele>8</ele>
        <time>2019-07-15T10:13:51Z</time>
      </trkpt>
      <trkpt lat="47.82337" lon="-3.53783">
        <ele>8</ele>
        <time>2019-07-15T10:13:52Z</time>
      </trkpt>
      <trkpt lat="47.82339" lon="-3.53784">
        <ele>8</ele>
        <time>2019-07-15T10:13:53Z</time>
      </trkpt>
      <trkpt lat="47.8234" lon="-3.53784">
        <ele>8</ele>
        <time>2019-07-15T10:13:54Z</time>
      </trkpt>
      <trkpt lat="47.82341" lon="-3.53784">
        <ele>8</ele>
        <time>2019-07-15T10:13:55Z</time>
      </trkpt>
      <trkpt lat="47.82343" lon="-3.53786">
        <ele>7</ele>
        <time>2019-07-15T10:13:56Z</time>
      </trkpt>
      <trkpt lat="47.82346" lon="-3.5379">
        <ele>7</ele>
        <time>2019-07-15T10:13:57Z</time>
      </trkpt>
      <trkpt lat="47.8235" lon="-3.53794">
        <ele>7</ele>
        <time>2019-07-15T10:13:58Z</time>
      </trkpt>
      <trkpt lat="47.82354" lon="-3.53799">
        <ele>7</ele>
        <time>2019-07-15T10:13:59Z</time>
      </trkpt>
      <trkpt lat="47.82358" lon="-3.53805">
        <ele>7</ele>
        <time>2019-07-15T10:14:00Z</time>
      </trkpt>
      <trkpt lat="47.82362" lon="-3.53811">
        <ele>7</ele>
        <time>2019-07-15T10:14:01Z</time>
      </trkpt>
      <trkpt lat="47.82367" lon="-3.53817">
        <ele>7</ele>
        <time>2019-07-15T10:14:02Z</time>
      </trkpt>
      <trkpt lat="47.82371" lon="-3.53824">
        <ele>7</ele>
        <time>2019-07-15T10:14:03Z</time>
      </trkpt>
      <trkpt lat="47.82376" lon="-3.53831">
        <ele>7</ele>
        <time>2019-07-15T10:14:04Z</time>
      </trkpt>
      <trkpt lat="47.82381" lon="-3.53838">
        <ele>7</ele>
        <time>2019-07-15T10:14:05Z</time>
      </trkpt>
      <trkpt lat="47.82385" lon="-3.53846">
        <ele>7</ele>
        <time>2019-07-15T10:14:06Z</time>
      </trkpt>
      <trkpt lat="47.8239" lon="-3.53853">
        <ele>7</ele>
        <time>2019-07-15T10:14:07Z</time>
      </trkpt>
      <trkpt lat="47.82395" lon="-3.53859">
        <ele>7</ele>
        <time>2019-07-15T10:14:08Z</time>
      </trkpt>
      <trkpt lat="47.82401" lon="-3.53863">
        <ele>7</ele>
        <time>2019-07-15T10:14:09Z</time>
      </trkpt>
      <trkpt lat="47.82406" lon="-3.53866">
        <ele>7</ele>
        <time>2019-07-15T10:14:10Z</time>
      </trkpt>
      <trkpt lat="47.8241" lon="-3.53868">
        <ele>7</ele>
        <time>2019-07-15T10:14:11Z</time>
      </trkpt>
      <trkpt lat="47.82414" lon="-3.5387">
        <ele>7</ele>
        <time>2019-07-15T10:14:12Z</time>
      </trkpt>
      <trkpt lat="47.82417" lon="-3.53871">
        <ele>7</ele>
        <time>2019-07-15T10:14:13Z</time>
      </trkpt>
      <trkpt lat="47.8242" lon="-3.53872">
        <ele>7</ele>
        <time>2019-07-15T10:14:14Z</time>
      </trkpt>
      <trkpt lat="47.82422" lon="-3.53874">
        <ele>7</ele>
        <time>2019-07-15T10:14:15Z</time>
      </trkpt>
      <trkpt lat="47.82425" lon="-3.53876">
        <ele>7</ele>
        <time>2019-07-15T10:14:16Z</time>
      </trkpt>
      <trkpt lat="47.82429" lon="-3.53877">
        <ele>7</ele>
        <time>2019-07-15T10:14:17Z</time>
      </trkpt>
      <trkpt lat="47.82432" lon="-3.53878">
        <ele>7</ele>
        <time>2019-07-15T10:14:18Z</time>
      </trkpt>
      <trkpt lat="47.82437" lon="-3.53879">
        <ele>6</ele>
        <time>2019-07-15T10:14:19Z</time>
      </trkpt>
      <trkpt lat="47.82441" lon="-3.5388">
        <ele>6</ele>
        <time>2019-07-15T10:14:20Z</time>
      </trkpt>
      <trkpt lat="47.82446" lon="-3.53882">
        <ele>6</ele>
        <time>2019-07-15T10:14:21Z</time>
      </trkpt>
      <trkpt lat="47.8245" lon="-3.53883">
        <ele>6</ele>
        <time>2019-07-15T10:14:22Z</time>
      </trkpt>
      <trkpt lat="47.82454" lon="-3.53884">
        <ele>6</ele>
        <time>2019-07-15T10:14:23Z</time>
      </trkpt>
      <trkpt lat="47.82458" lon="-3.53885">
        <ele>6</ele>
        <time>2019-07-15T10:14:24Z</time>
      </trkpt>
      <trkpt lat="47.82462" lon="-3.53886">
        <ele>7</ele>
        <time>2019-07-15T10:14:25Z</time>
      </trkpt>
      <trkpt lat="47.82466" lon="-3.53886">
        <ele>7</ele>
        <time>2019-07-15T10:14:26Z</time>
      </trkpt>
      <trkpt lat="47.82469" lon="-3.53887">
        <ele>7</ele>
        <time>2019-07-15T10:14:27Z</time>
      </trkpt>
      <trkpt lat="47.82472" lon="-3.53888">
        <ele>7</ele>
        <time>2019-07-15T10:14:28Z</time>
      </trkpt>
      <trkpt lat="47.82475" lon="-3.53889">
        <ele>7</ele>
        <time>2019-07-15T10:14:29Z</time>
      </trkpt>
      <trkpt lat="47.82479" lon="-3.5389">
        <ele>7</ele>
        <time>2019-07-15T10:14:30Z</time>
      </trkpt>
      <trkpt lat="47.82483" lon="-3.5389">
        <ele>7</ele>
        <time>2019-07-15T10:14:31Z</time>
      </trkpt>
      <trkpt lat="47.82487" lon="-3.5389">
        <ele>7</ele>
        <time>2019-07-15T10:14:32Z</time>
      </trkpt>
      <trkpt lat="47.82491" lon="-3.53891">
        <ele>7</ele>
        <time>2019-07-15T10:14:33Z</time>
      </trkpt>
      <trkpt lat="47.82495" lon="-3.53891">
        <ele>7</ele>
        <time>2019-07-15T10:14:34Z</time>
      </trkpt>
      <trkpt lat="47.82499" lon="-3.53891">
        <ele>7</ele>
        <time>2019-07-15T10:14:35Z</time>
      </trkpt>
      <trkpt lat="47.82503" lon="-3.53891">
        <ele>7</ele>
        <time>2019-07-15T10:14:36Z</time>
      </trkpt>
      <trkpt lat="47.82506" lon="-3.5389">
        <ele>7</ele>
        <time>2019-07-15T10:14:37Z</time>
      </trkpt>
      <trkpt lat="47.82509" lon="-3.5389">
        <ele>7</ele>
        <time>2019-07-15T10:14:38Z</time>
      </trkpt>
      <trkpt lat="47.82512" lon="-3.5389">
        <ele>7</ele>
        <time>2019-07-15T10:14:39Z</time>
      </trkpt>
      <trkpt lat="47.82513" lon="-3.53889">
        <ele>7</ele>
        <time>2019-07-15T10:14:40Z</time>
      </trkpt>
      <trkpt lat="47.82516" lon="-3.53889">
        <ele>7</ele>
        <time>2019-07-15T10:14:41Z</time>
      </trkpt>
      <trkpt lat="47.82518" lon="-3.53887">
        <ele>7</ele>
        <time>2019-07-15T10:14:42Z</time>
      </trkpt>
      <trkpt lat="47.82519" lon="-3.53886">
        <ele>7</ele>
        <time>2019-07-15T10:14:43Z</time>
      </trkpt>
      <trkpt lat="47.82521" lon="-3.53884">
        <ele>7</ele>
        <time>2019-07-15T10:14:44Z</time>
      </trkpt>
      <trkpt lat="47.82522" lon="-3.53881">
        <ele>8</ele>
        <time>2019-07-15T10:14:45Z</time>
      </trkpt>
      <trkpt lat="47.82523" lon="-3.53879">
        <ele>8</ele>
        <time>2019-07-15T10:14:46Z</time>
      </trkpt>
      <trkpt lat="47.82525" lon="-3.53877">
        <ele>8</ele>
        <time>2019-07-15T10:14:47Z</time>
      </trkpt>
      <trkpt lat="47.82526" lon="-3.53875">
        <ele>8</ele>
        <time>2019-07-15T10:14:48Z</time>
      </trkpt>
      <trkpt lat="47.82527" lon="-3.53874">
        <ele>9</ele>
        <time>2019-07-15T10:14:49Z</time>
      </trkpt>
      <trkpt lat="47.82528" lon="-3.53874">
        <ele>9</ele>
        <time>2019-07-15T10:14:50Z</time>
      </trkpt>
      <trkpt lat="47.82529" lon="-3.53874">
        <ele>9</ele>
        <time>2019-07-15T10:14:51Z</time>
      </trkpt>
      <trkpt lat="47.82531" lon="-3.53873">
        <ele>9</ele>
        <time>2019-07-15T10:14:52Z</time>
      </trkpt>
      <trkpt lat="47.82533" lon="-3.53874">
        <ele>10</ele>
        <time>2019-07-15T10:14:53Z</time>
      </trkpt>
      <trkpt lat="47.82536" lon="-3.53874">
        <ele>10</ele>
        <time>2019-07-15T10:14:54Z</time>
      </trkpt>
      <trkpt lat="47.82538" lon="-3.53874">
        <ele>10</ele>
        <time>2019-07-15T10:14:55Z</time>
      </trkpt>
      <trkpt lat="47.82539" lon="-3.53875">
        <ele>10</ele>
        <time>2019-07-15T10:14:56Z</time>
      </trkpt>
      <trkpt lat="47.8254" lon="-3.53876">
        <ele>10</ele>
        <time>2019-07-15T10:14:57Z</time>
      </trkpt>
      <trkpt lat="47.82539" lon="-3.53877">
        <ele>10</ele>
        <time>2019-07-15T10:14:58Z</time>
      </trkpt>
      <trkpt lat="47.8254" lon="-3.53878">
        <ele>10</ele>
        <time>2019-07-15T10:14:59Z</time>
      </trkpt>
      <trkpt lat="47.82541" lon="-3.53879">
        <ele>11</ele>
        <time>2019-07-15T10:15:00Z</time>
      </trkpt>
      <trkpt lat="47.82542" lon="-3.53881">
        <ele>11</ele>
        <time>2019-07-15T10:15:01Z</time>
      </trkpt>
      <trkpt lat="47.82543" lon="-3.53881">
        <ele>11</ele>
        <time>2019-07-15T10:15:02Z</time>
      </trkpt>
      <trkpt lat="47.82543" lon="-3.53882">
        <ele>11</ele>
        <time>2019-07-15T10:15:03Z</time>
      </trkpt>
      <trkpt lat="47.82544" lon="-3.53882">
        <ele>11</ele>
        <time>2019-07-15T10:15:04Z</time>
      </trkpt>
      <trkpt lat="47.82544" lon="-3.53882">
        <ele>11</ele>
        <time>2019-07-15T10:15:05Z</time>
      </trkpt>
      <trkpt lat="47.82545" lon="-3.53882">
        <ele>11</ele>
        <time>2019-07-15T10:15:06Z</time>
      </trkpt>
      <trkpt lat="47.82545" lon="-3.53882">
        <ele>12</ele>
        <time>2019-07-15T10:15:07Z</time>
      </trkpt>
      <trkpt lat="47.82551" lon="-3.53888">
        <ele>13</ele>
        <time>2019-07-15T10:15:08Z</time>
      </trkpt>
      <trkpt lat="47.82552" lon="-3.53889">
        <ele>13</ele>
        <time>2019-07-15T10:15:09Z</time>
      </trkpt>
      <trkpt lat="47.82552" lon="-3.5389">
        <ele>13</ele>
        <time>2019-07-15T10:15:10Z</time>
      </trkpt>
      <trkpt lat="47.82553" lon="-3.5389">
        <ele>13</ele>
        <time>2019-07-15T10:15:11Z</time>
      </trkpt>
      <trkpt lat="47.82553" lon="-3.5389">
        <ele>13</ele>
        <time>2019-07-15T10:15:12Z</time>
      </trkpt>
      <trkpt lat="47.82559" lon="-3.53891">
        <ele>13</ele>
        <time>2019-07-15T10:15:13Z</time>
      </trkpt>
      <trkpt lat="47.82559" lon="-3.53892">
        <ele>13</ele>
        <time>2019-07-15T10:15:14Z</time>
      </trkpt>
      <trkpt lat="47.82559" lon="-3.53893">
        <ele>13</ele>
        <time>2019-07-15T10:15:15Z</time>
      </trkpt>
      <trkpt lat="47.82559" lon="-3.53894">
        <ele>13</ele>
        <time>2019-07-15T10:15:16Z</time>
      </trkpt>
      <trkpt lat="47.82578" lon="-3.53906">
        <ele>16</ele>
        <time>2019-07-15T10:15:17Z</time>
      </trkpt>
      <trkpt lat="47.82579" lon="-3.53906">
        <ele>16</ele>
        <time>2019-07-15T10:15:18Z</time>
      </trkpt>
      <trkpt lat="47.8258" lon="-3.53907">
        <ele>16</ele>
        <time>2019-07-15T10:15:19Z</time>
      </trkpt>
      <trkpt lat="47.8258" lon="-3.53908">
        <ele>16</ele>
        <time>2019-07-15T10:15:20Z</time>
      </trkpt>
      <trkpt lat="47.8258" lon="-3.53907">
        <ele>16</ele>
        <time>2019-07-15T10:15:21Z</time>
      </trkpt>
      <trkpt lat="47.82581" lon="-3.53907">
        <ele>16</ele>
        <time>2019-07-15T10:15:22Z</time>
      </trkpt>
      <trkpt lat="47.82582" lon="-3.53908">
        <ele>16</ele>
        <time>2019-07-15T10:15:23Z</time>
      </trkpt>
      <trkpt lat="47.82582" lon="-3.53908">
        <ele>16</ele>
        <time>2019-07-15T10:15:24Z</time>
      </trkpt>
      <trkpt lat="47.82583" lon="-3.53908">
        <ele>16</ele>
        <time>2019-07-15T10:15:25Z</time>
      </trkpt>
      <trkpt lat="47.82584" lon="-3.53907">
        <ele>16</ele>
        <time>2019-07-15T10:15:26Z</time>
      </trkpt>
      <trkpt lat="47.82585" lon="-3.53906">
        <ele>16</ele>
        <time>2019-07-15T10:15:27Z</time>
      </trkpt>
      <trkpt lat="47.82586" lon="-3.53906">
        <ele>15</ele>
        <time>2019-07-15T10:15:28Z</time>
      </trkpt>
      <trkpt lat="47.82587" lon="-3.53907">
        <ele>15</ele>
        <time>2019-07-15T10:15:29Z</time>
      </trkpt>
      <trkpt lat="47.82587" lon="-3.53907">
        <ele>15</ele>
        <time>2019-07-15T10:15:30Z</time>
      </trkpt>
      <trkpt lat="47.82588" lon="-3.53907">
        <ele>15</ele>
        <time>2019-07-15T10:15:31Z</time>
      </trkpt>
      <trkpt lat="47.82588" lon="-3.53907">
        <ele>15</ele>
        <time>2019-07-15T10:15:32Z</time>
      </trkpt>
      <trkpt lat="47.82596" lon="-3.53906">
        <ele>19</ele>
        <time>2019-07-15T10:15:33Z</time>
      </trkpt>
      <trkpt lat="47.82597" lon="-3.53906">
        <ele>19</ele>
        <time>2019-07-15T10:15:34Z</time>
      </trkpt>
      <trkpt lat="47.82598" lon="-3.53906">
        <ele>20</ele>
        <time>2019-07-15T10:15:35Z</time>
      </trkpt>
      <trkpt lat="47.82599" lon="-3.53905">
        <ele>20</ele>
        <time>2019-07-15T10:15:36Z</time>
      </trkpt>
      <trkpt lat="47.82601" lon="-3.53905">
        <ele>20</ele>
        <time>2019-07-15T10:15:37Z</time>
      </trkpt>
      <trkpt lat="47.82602" lon="-3.53904">
        <ele>20</ele>
        <time>2019-07-15T10:15:38Z</time>
      </trkpt>
      <trkpt lat="47.82603" lon="-3.53903">
        <ele>20</ele>
        <time>2019-07-15T10:15:39Z</time>
      </trkpt>
      <trkpt lat="47.82604" lon="-3.53903">
        <ele>20</ele>
        <time>2019-07-15T10:15:40Z</time>
      </trkpt>
      <trkpt lat="47.82605" lon="-3.53904">
        <ele>20</ele>
        <time>2019-07-15T10:15:41Z</time>
      </trkpt>
      <trkpt lat="47.82606" lon="-3.53903">
        <ele>20</ele>
        <time>2019-07-15T10:15:42Z</time>
      </trkpt>
      <trkpt lat="47.82607" lon="-3.53903">
        <ele>21</ele>
        <time>2019-07-15T10:15:43Z</time>
      </trkpt>
      <trkpt lat="47.82607" lon="-3.53903">
        <ele>21</ele>
        <time>2019-07-15T10:15:44Z</time>
      </trkpt>
      <trkpt lat="47.82607" lon="-3.53904">
        <ele>21</ele>
        <time>2019-07-15T10:15:45Z</time>
      </trkpt>
      <trkpt lat="47.82608" lon="-3.53904">
        <ele>21</ele>
        <time>2019-07-15T10:15:46Z</time>
      </trkpt>
      <trkpt lat="47.82608" lon="-3.53905">
        <ele>21</ele>
        <time>2019-07-15T10:15:47Z</time>
      </trkpt>
      <trkpt lat="47.82625" lon="-3.53905">
        <ele>18</ele>
        <time>2019-07-15T10:15:48Z</time>
      </trkpt>
      <trkpt lat="47.82626" lon="-3.53905">
        <ele>18</ele>
        <time>2019-07-15T10:15:49Z</time>
      </trkpt>
      <trkpt lat="47.82628" lon="-3.53904">
        <ele>18</ele>
        <time>2019-07-15T10:15:50Z</time>
      </trkpt>
      <trkpt lat="47.8263" lon="-3.53904">
        <ele>18</ele>
        <time>2019-07-15T10:15:51Z</time>
      </trkpt>
      <trkpt lat="47.82631" lon="-3.53903">
        <ele>18</ele>
        <time>2019-07-15T10:15:52Z</time>
      </trkpt>
      <trkpt lat="47.82632" lon="-3.53903">
        <ele>18</ele>
        <time>2019-07-15T10:15:53Z</time>
      </trkpt>
      <trkpt lat="47.82634" lon="-3.53904">
        <ele>18</ele>
        <time>2019-07-15T10:15:54Z</time>
      </trkpt>
      <trkpt lat="47.82636" lon="-3.53903">
        <ele>18</ele>
        <time>2019-07-15T10:15:55Z</time>
      </trkpt>
      <trkpt lat="47.82638" lon="-3.53903">
        <ele>18</ele>
        <time>2019-07-15T10:15:56Z</time>
      </trkpt>
      <trkpt lat="47.8264" lon="-3.53902">
        <ele>18</ele>
        <time>2019-07-15T10:15:57Z</time>
      </trkpt>
      <trkpt lat="47.82642" lon="-3.53901">
        <ele>18</ele>
        <time>2019-07-15T10:15:58Z</time>
      </trkpt>
      <trkpt lat="47.82644" lon="-3.53902">
        <ele>18</ele>
        <time>2019-07-15T10:15:59Z</time>
      </trkpt>
      <trkpt lat="47.82645" lon="-3.53901">
        <ele>17</ele>
        <time>2019-07-15T10:16:00Z</time>
      </trkpt>
      <trkpt lat="47.82647" lon="-3.53901">
        <ele>17</ele>
        <time>2019-07-15T10:16:01Z</time>
      </trkpt>
      <trkpt lat="47.8265" lon="-3.539">
        <ele>17</ele>
        <time>2019-07-15T10:16:02Z</time>
      </trkpt>
      <trkpt lat="47.82653" lon="-3.53899">
        <ele>17</ele>
        <time>2019-07-15T10:16:03Z</time>
      </trkpt>
      <trkpt lat="47.82657" lon="-3.53897">
        <ele>17</ele>
        <time>2019-07-15T10:16:04Z</time>
      </trkpt>
      <trkpt lat="47.82661" lon="-3.53897">
        <ele>17</ele>
        <time>2019-07-15T10:16:05Z</time>
      </trkpt>
      <trkpt lat="47.82664" lon="-3.53897">
        <ele>17</ele>
        <time>2019-07-15T10:16:06Z</time>
      </trkpt>
      <trkpt lat="47.82666" lon="-3.53896">
        <ele>17</ele>
        <time>2019-07-15T10:16:07Z</time>
      </trkpt>
      <trkpt lat="47.82669" lon="-3.53896">
        <ele>17</ele>
        <time>2019-07-15T10:16:08Z</time>
      </trkpt>
      <trkpt lat="47.8267" lon="-3.53895">
        <ele>17</ele>
        <time>2019-07-15T10:16:09Z</time>
      </trkpt>
      <trkpt lat="47.82672" lon="-3.53896">
        <ele>17</ele>
        <time>2019-07-15T10:16:10Z</time>
      </trkpt>
      <trkpt lat="47.82674" lon="-3.53898">
        <ele>16</ele>
        <time>2019-07-15T10:16:11Z</time>
      </trkpt>
      <trkpt lat="47.82676" lon="-3.53899">
        <ele>16</ele>
        <time>2019-07-15T10:16:12Z</time>
      </trkpt>
      <trkpt lat="47.82679" lon="-3.53901">
        <ele>16</ele>
        <time>2019-07-15T10:16:13Z</time>
      </trkpt>
      <trkpt lat="47.82681" lon="-3.53903">
        <ele>16</ele>
        <time>2019-07-15T10:16:14Z</time>
      </trkpt>
      <trkpt lat="47.82683" lon="-3.53904">
        <ele>16</ele>
        <time>2019-07-15T10:16:15Z</time>
      </trkpt>
      <trkpt lat="47.82685" lon="-3.53906">
        <ele>16</ele>
        <time>2019-07-15T10:16:16Z</time>
      </trkpt>
      <trkpt lat="47.82686" lon="-3.53908">
        <ele>15</ele>
        <time>2019-07-15T10:16:17Z</time>
      </trkpt>
      <trkpt lat="47.82688" lon="-3.5391">
        <ele>15</ele>
        <time>2019-07-15T10:16:18Z</time>
      </trkpt>
      <trkpt lat="47.8269" lon="-3.53912">
        <ele>15</ele>
        <time>2019-07-15T10:16:19Z</time>
      </trkpt>
      <trkpt lat="47.82692" lon="-3.53915">
        <ele>15</ele>
        <time>2019-07-15T10:16:20Z</time>
      </trkpt>
      <trkpt lat="47.82694" lon="-3.53917">
        <ele>15</ele>
        <time>2019-07-15T10:16:21Z</time>
      </trkpt>
      <trkpt lat="47.82696" lon="-3.53917">
        <ele>15</ele>
        <time>2019-07-15T10:16:22Z</time>
      </trkpt>
      <trkpt lat="47.82697" lon="-3.53918">
        <ele>15</ele>
        <time>2019-07-15T10:16:23Z</time>
      </trkpt>
      <trkpt lat="47.82699" lon="-3.53919">
        <ele>15</ele>
        <time>2019-07-15T10:16:24Z</time>
      </trkpt>
      <trkpt lat="47.827" lon="-3.5392">
        <ele>15</ele>
        <time>2019-07-15T10:16:25Z</time>
      </trkpt>
      <trkpt lat="47.82701" lon="-3.53922">
        <ele>15</ele>
        <time>2019-07-15T10:16:26Z</time>
      </trkpt>
      <trkpt lat="47.82704" lon="-3.53924">
        <ele>15</ele>
        <time>2019-07-15T10:16:27Z</time>
      </trkpt>
      <trkpt lat="47.82706" lon="-3.53926">
        <ele>15</ele>
        <time>2019-07-15T10:16:28Z</time>
      </trkpt>
      <trkpt lat="47.82709" lon="-3.53926">
        <ele>15</ele>
        <time>2019-07-15T10:16:29Z</time>
      </trkpt>
      <trkpt lat="47.82712" lon="-3.53927">
        <ele>15</ele>
        <time>2019-07-15T10:16:30Z</time>
      </trkpt>
      <trkpt lat="47.82715" lon="-3.53928">
        <ele>15</ele>
        <time>2019-07-15T10:16:31Z</time>
      </trkpt>
      <trkpt lat="47.82717" lon="-3.53929">
        <ele>15</ele>
        <time>2019-07-15T10:16:32Z</time>
      </trkpt>
      <trkpt lat="47.82719" lon="-3.53929">
        <ele>15</ele>
        <time>2019-07-15T10:16:33Z</time>
      </trkpt>
      <trkpt lat="47.82722" lon="-3.53928">
        <ele>15</ele>
        <time>2019-07-15T10:16:34Z</time>
      </trkpt>
      <trkpt lat="47.82726" lon="-3.53929">
        <ele>15</ele>
        <time>2019-07-15T10:16:35Z</time>
      </trkpt>
      <trkpt lat="47.8273" lon="-3.5393">
        <ele>15</ele>
        <time>2019-07-15T10:16:36Z</time>
      </trkpt>
      <trkpt lat="47.82733" lon="-3.53931">
        <ele>15</ele>
        <time>2019-07-15T10:16:37Z</time>
      </trkpt>
      <trkpt lat="47.82736" lon="-3.53933">
        <ele>15</ele>
        <time>2019-07-15T10:16:38Z</time>
      </trkpt>
      <trkpt lat="47.82739" lon="-3.53935">
        <ele>15</ele>
        <time>2019-07-15T10:16:39Z</time>
      </trkpt>
      <trkpt lat="47.82742" lon="-3.53936">
        <ele>15</ele>
        <time>2019-07-15T10:16:40Z</time>
      </trkpt>
      <trkpt lat="47.82745" lon="-3.53938">
        <ele>15</ele>
        <time>2019-07-15T10:16:41Z</time>
      </trkpt>
      <trkpt lat="47.82747" lon="-3.5394">
        <ele>15</ele>
        <time>2019-07-15T10:16:42Z</time>
      </trkpt>
      <trkpt lat="47.82749" lon="-3.5394">
        <ele>15</ele>
        <time>2019-07-15T10:16:43Z</time>
      </trkpt>
      <trkpt lat="47.82752" lon="-3.53942">
        <ele>15</ele>
        <time>2019-07-15T10:16:44Z</time>
      </trkpt>
      <trkpt lat="47.82755" lon="-3.53943">
        <ele>15</ele>
        <time>2019-07-15T10:16:45Z</time>
      </trkpt>
      <trkpt lat="47.82758" lon="-3.53945">
        <ele>15</ele>
        <time>2019-07-15T10:16:46Z</time>
      </trkpt>
      <trkpt lat="47.82761" lon="-3.53946">
        <ele>15</ele>
        <time>2019-07-15T10:16:47Z</time>
      </trkpt>
      <trkpt lat="47.82764" lon="-3.53947">
        <ele>14</ele>
        <time>2019-07-15T10:16:48Z</time>
      </trkpt>
      <trkpt lat="47.82768" lon="-3.53948">
        <ele>14</ele>
        <time>2019-07-15T10:16:49Z</time>
      </trkpt>
      <trkpt lat="47.82771" lon="-3.53949">
        <ele>14</ele>
        <time>2019-07-15T10:16:50Z</time>
      </trkpt>
      <trkpt lat="47.82774" lon="-3.5395">
        <ele>14</ele>
        <time>2019-07-15T10:16:51Z</time>
      </trkpt>
      <trkpt lat="47.82777" lon="-3.53952">
        <ele>14</ele>
        <time>2019-07-15T10:16:52Z</time>
      </trkpt>
      <trkpt lat="47.8278" lon="-3.53955">
        <ele>14</ele>
        <time>2019-07-15T10:16:53Z</time>
      </trkpt>
      <trkpt lat="47.82783" lon="-3.53956">
        <ele>14</ele>
        <time>2019-07-15T10:16:54Z</time>
      </trkpt>
      <trkpt lat="47.82787" lon="-3.53958">
        <ele>14</ele>
        <time>2019-07-15T10:16:55Z</time>
      </trkpt>
      <trkpt lat="47.8279" lon="-3.53959">
        <ele>14</ele>
        <time>2019-07-15T10:16:56Z</time>
      </trkpt>
      <trkpt lat="47.82792" lon="-3.53961">
        <ele>14</ele>
        <time>2019-07-15T10:16:57Z</time>
      </trkpt>
      <trkpt lat="47.82795" lon="-3.53963">
        <ele>14</ele>
        <time>2019-07-15T10:16:58Z</time>
      </trkpt>
      <trkpt lat="47.82797" lon="-3.53966">
        <ele>14</ele>
        <time>2019-07-15T10:16:59Z</time>
      </trkpt>
      <trkpt lat="47.828" lon="-3.53968">
        <ele>14</ele>
        <time>2019-07-15T10:17:00Z</time>
      </trkpt>
      <trkpt lat="47.82802" lon="-3.53969">
        <ele>14</ele>
        <time>2019-07-15T10:17:01Z</time>
      </trkpt>
      <trkpt lat="47.82805" lon="-3.53971">
        <ele>14</ele>
        <time>2019-07-15T10:17:02Z</time>
      </trkpt>
      <trkpt lat="47.82809" lon="-3.53972">
        <ele>14</ele>
        <time>2019-07-15T10:17:03Z</time>
      </trkpt>
      <trkpt lat="47.82812" lon="-3.53973">
        <ele>14</ele>
        <time>2019-07-15T10:17:04Z</time>
      </trkpt>
      <trkpt lat="47.82814" lon="-3.53974">
        <ele>14</ele>
        <time>2019-07-15T10:17:05Z</time>
      </trkpt>
      <trkpt lat="47.82818" lon="-3.53975">
        <ele>14</ele>
        <time>2019-07-15T10:17:06Z</time>
      </trkpt>
      <trkpt lat="47.82821" lon="-3.53976">
        <ele>14</ele>
        <time>2019-07-15T10:17:07Z</time>
      </trkpt>
      <trkpt lat="47.82823" lon="-3.53976">
        <ele>14</ele>
        <time>2019-07-15T10:17:08Z</time>
      </trkpt>
      <trkpt lat="47.82825" lon="-3.53977">
        <ele>14</ele>
        <time>2019-07-15T10:17:09Z</time>
      </trkpt>
      <trkpt lat="47.82828" lon="-3.53977">
        <ele>14</ele>
        <time>2019-07-15T10:17:10Z</time>
      </trkpt>
      <trkpt lat="47.82831" lon="-3.53979">
        <ele>14</ele>
        <time>2019-07-15T10:17:11Z</time>
      </trkpt>
      <trkpt lat="47.82834" lon="-3.53981">
        <ele>14</ele>
        <time>2019-07-15T10:17:12Z</time>
      </trkpt>
      <trkpt lat="47.82837" lon="-3.53983">
        <ele>15</ele>
        <time>2019-07-15T10:17:13Z</time>
      </trkpt>
      <trkpt lat="47.8284" lon="-3.53984">
        <ele>15</ele>
        <time>2019-07-15T10:17:14Z</time>
      </trkpt>
      <trkpt lat="47.82843" lon="-3.53985">
        <ele>15</ele>
        <time>2019-07-15T10:17:15Z</time>
      </trkpt>
      <trkpt lat="47.82845" lon="-3.53986">
        <ele>15</ele>
        <time>2019-07-15T10:17:16Z</time>
      </trkpt>
      <trkpt lat="47.82847" lon="-3.53987">
        <ele>15</ele>
        <time>2019-07-15T10:17:17Z</time>
      </trkpt>
      <trkpt lat="47.82849" lon="-3.53988">
        <ele>15</ele>
        <time>2019-07-15T10:17:18Z</time>
      </trkpt>
      <trkpt lat="47.82851" lon="-3.53989">
        <ele>15</ele>
        <time>2019-07-15T10:17:19Z</time>
      </trkpt>
      <trkpt lat="47.82852" lon="-3.5399">
        <ele>15</ele>
        <time>2019-07-15T10:17:20Z</time>
      </trkpt>
      <trkpt lat="47.82854" lon="-3.53991">
        <ele>16</ele>
        <time>2019-07-15T10:17:21Z</time>
      </trkpt>
      <trkpt lat="47.82857" lon="-3.53991">
        <ele>16</ele>
        <time>2019-07-15T10:17:22Z</time>
      </trkpt>
      <trkpt lat="47.82859" lon="-3.53992">
        <ele>16</ele>
        <time>2019-07-15T10:17:23Z</time>
      </trkpt>
      <trkpt lat="47.82861" lon="-3.53993">
        <ele>16</ele>
        <time>2019-07-15T10:17:24Z</time>
      </trkpt>
      <trkpt lat="47.82864" lon="-3.53994">
        <ele>16</ele>
        <time>2019-07-15T10:17:25Z</time>
      </trkpt>
      <trkpt lat="47.82866" lon="-3.53995">
        <ele>16</ele>
        <time>2019-07-15T10:17:26Z</time>
      </trkpt>
      <trkpt lat="47.82868" lon="-3.53995">
        <ele>16</ele>
        <time>2019-07-15T10:17:27Z</time>
      </trkpt>
      <trkpt lat="47.82871" lon="-3.53995">
        <ele>16</ele>
        <time>2019-07-15T10:17:28Z</time>
      </trkpt>
      <trkpt lat="47.82874" lon="-3.53994">
        <ele>16</ele>
        <time>2019-07-15T10:17:29Z</time>
      </trkpt>
      <trkpt lat="47.82877" lon="-3.53994">
        <ele>17</ele>
        <time>2019-07-15T10:17:30Z</time>
      </trkpt>
      <trkpt lat="47.8288" lon="-3.53993">
        <ele>17</ele>
        <time>2019-07-15T10:17:31Z</time>
      </trkpt>
      <trkpt lat="47.82882" lon="-3.53993">
        <ele>17</ele>
        <time>2019-07-15T10:17:32Z</time>
      </trkpt>
      <trkpt lat="47.82885" lon="-3.53993">
        <ele>17</ele>
        <time>2019-07-15T10:17:33Z</time>
      </trkpt>
      <trkpt lat="47.82887" lon="-3.53993">
        <ele>17</ele>
        <time>2019-07-15T10:17:34Z</time>
      </trkpt>
      <trkpt lat="47.8289" lon="-3.53994">
        <ele>17</ele>
        <time>2019-07-15T10:17:35Z</time>
      </trkpt>
      <trkpt lat="47.82892" lon="-3.53993">
        <ele>17</ele>
        <time>2019-07-15T10:17:36Z</time>
      </trkpt>
      <trkpt lat="47.82895" lon="-3.53994">
        <ele>17</ele>
        <time>2019-07-15T10:17:37Z</time>
      </trkpt>
      <trkpt lat="47.82897" lon="-3.53993">
        <ele>17</ele>
        <time>2019-07-15T10:17:38Z</time>
      </trkpt>
      <trkpt lat="47.829" lon="-3.53993">
        <ele>17</ele>
        <time>2019-07-15T10:17:39Z</time>
      </trkpt>
      <trkpt lat="47.82902" lon="-3.53993">
        <ele>17</ele>
        <time>2019-07-15T10:17:40Z</time>
      </trkpt>
      <trkpt lat="47.82905" lon="-3.53993">
        <ele>17</ele>
        <time>2019-07-15T10:17:41Z</time>
      </trkpt>
      <trkpt lat="47.82908" lon="-3.53993">
        <ele>18</ele>
        <time>2019-07-15T10:17:42Z</time>
      </trkpt>
      <trkpt lat="47.82911" lon="-3.53992">
        <ele>18</ele>
        <time>2019-07-15T10:17:43Z</time>
      </trkpt>
      <trkpt lat="47.82913" lon="-3.53992">
        <ele>18</ele>
        <time>2019-07-15T10:17:44Z</time>
      </trkpt>
      <trkpt lat="47.82916" lon="-3.53992">
        <ele>18</ele>
        <time>2019-07-15T10:17:45Z</time>
      </trkpt>
      <trkpt lat="47.82918" lon="-3.53992">
        <ele>18</ele>
        <time>2019-07-15T10:17:46Z</time>
      </trkpt>
      <trkpt lat="47.8292" lon="-3.53991">
        <ele>19</ele>
        <time>2019-07-15T10:17:47Z</time>
      </trkpt>
      <trkpt lat="47.82922" lon="-3.53991">
        <ele>19</ele>
        <time>2019-07-15T10:17:48Z</time>
      </trkpt>
      <trkpt lat="47.82923" lon="-3.53991">
        <ele>19</ele>
        <time>2019-07-15T10:17:49Z</time>
      </trkpt>
      <trkpt lat="47.82926" lon="-3.53991">
        <ele>19</ele>
        <time>2019-07-15T10:17:50Z</time>
      </trkpt>
      <trkpt lat="47.82928" lon="-3.53992">
        <ele>19</ele>
        <time>2019-07-15T10:17:51Z</time>
      </trkpt>
      <trkpt lat="47.82931" lon="-3.53992">
        <ele>20</ele>
        <time>2019-07-15T10:17:52Z</time>
      </trkpt>
      <trkpt lat="47.82934" lon="-3.53992">
        <ele>20</ele>
        <time>2019-07-15T10:17:53Z</time>
      </trkpt>
      <trkpt lat="47.82937" lon="-3.53991">
        <ele>20</ele>
        <time>2019-07-15T10:17:54Z</time>
      </trkpt>
      <trkpt lat="47.82941" lon="-3.53991">
        <ele>20</ele>
        <time>2019-07-15T10:17:55Z</time>
      </trkpt>
      <trkpt lat="47.82944" lon="-3.53991">
        <ele>20</ele>
        <time>2019-07-15T10:17:56Z</time>
      </trkpt>
      <trkpt lat="47.82948" lon="-3.53991">
        <ele>21</ele>
        <time>2019-07-15T10:17:57Z</time>
      </trkpt>
      <trkpt lat="47.82951" lon="-3.53991">
        <ele>21</ele>
        <time>2019-07-15T10:17:58Z</time>
      </trkpt>
      <trkpt lat="47.82954" lon="-3.5399">
        <ele>21</ele>
        <time>2019-07-15T10:17:59Z</time>
      </trkpt>
      <trkpt lat="47.82956" lon="-3.5399">
        <ele>21</ele>
        <time>2019-07-15T10:18:00Z</time>
      </trkpt>
      <trkpt lat="47.82959" lon="-3.5399">
        <ele>21</ele>
        <time>2019-07-15T10:18:01Z</time>
      </trkpt>
      <trkpt lat="47.82961" lon="-3.53989">
        <ele>21</ele>
        <time>2019-07-15T10:18:02Z</time>
      </trkpt>
      <trkpt lat="47.82964" lon="-3.5399">
        <ele>21</ele>
        <time>2019-07-15T10:18:03Z</time>
      </trkpt>
      <trkpt lat="47.82967" lon="-3.53991">
        <ele>21</ele>
        <time>2019-07-15T10:18:04Z</time>
      </trkpt>
      <trkpt lat="47.82969" lon="-3.53991">
        <ele>22</ele>
        <time>2019-07-15T10:18:05Z</time>
      </trkpt>
      <trkpt lat="47.82972" lon="-3.53991">
        <ele>22</ele>
        <time>2019-07-15T10:18:06Z</time>
      </trkpt>
      <trkpt lat="47.82975" lon="-3.53991">
        <ele>22</ele>
        <time>2019-07-15T10:18:07Z</time>
      </trkpt>
      <trkpt lat="47.82978" lon="-3.53991">
        <ele>22</ele>
        <time>2019-07-15T10:18:08Z</time>
      </trkpt>
      <trkpt lat="47.8298" lon="-3.53991">
        <ele>22</ele>
        <time>2019-07-15T10:18:09Z</time>
      </trkpt>
      <trkpt lat="47.82982" lon="-3.53991">
        <ele>22</ele>
        <time>2019-07-15T10:18:10Z</time>
      </trkpt>
      <trkpt lat="47.82985" lon="-3.5399">
        <ele>22</ele>
        <time>2019-07-15T10:18:11Z</time>
      </trkpt>
      <trkpt lat="47.82986" lon="-3.53989">
        <ele>22</ele>
        <time>2019-07-15T10:18:12Z</time>
      </trkpt>
      <trkpt lat="47.82988" lon="-3.53987">
        <ele>22</ele>
        <time>2019-07-15T10:18:13Z</time>
      </trkpt>
      <trkpt lat="47.82989" lon="-3.53984">
        <ele>22</ele>
        <time>2019-07-15T10:18:14Z</time>
      </trkpt>
      <trkpt lat="47.82991" lon="-3.53982">
        <ele>22</ele>
        <time>2019-07-15T10:18:15Z</time>
      </trkpt>
      <trkpt lat="47.82991" lon="-3.53979">
        <ele>22</ele>
        <time>2019-07-15T10:18:16Z</time>
      </trkpt>
      <trkpt lat="47.82992" lon="-3.53977">
        <ele>22</ele>
        <time>2019-07-15T10:18:17Z</time>
      </trkpt>
      <trkpt lat="47.82992" lon="-3.53975">
        <ele>22</ele>
        <time>2019-07-15T10:18:18Z</time>
      </trkpt>
      <trkpt lat="47.82993" lon="-3.53974">
        <ele>22</ele>
        <time>2019-07-15T10:18:19Z</time>
      </trkpt>
      <trkpt lat="47.82993" lon="-3.53972">
        <ele>22</ele>
        <time>2019-07-15T10:18:20Z</time>
      </trkpt>
      <trkpt lat="47.82993" lon="-3.53971">
        <ele>23</ele>
        <time>2019-07-15T10:18:21Z</time>
      </trkpt>
      <trkpt lat="47.82993" lon="-3.5397">
        <ele>23</ele>
        <time>2019-07-15T10:18:22Z</time>
      </trkpt>
      <trkpt lat="47.82992" lon="-3.53968">
        <ele>23</ele>
        <time>2019-07-15T10:18:23Z</time>
      </trkpt>
      <trkpt lat="47.82992" lon="-3.53966">
        <ele>23</ele>
        <time>2019-07-15T10:18:24Z</time>
      </trkpt>
      <trkpt lat="47.82992" lon="-3.53965">
        <ele>23</ele>
        <time>2019-07-15T10:18:25Z</time>
      </trkpt>
      <trkpt lat="47.82992" lon="-3.53964">
        <ele>23</ele>
        <time>2019-07-15T10:18:26Z</time>
      </trkpt>
      <trkpt lat="47.82991" lon="-3.53963">
        <ele>23</ele>
        <time>2019-07-15T10:18:27Z</time>
      </trkpt>
      <trkpt lat="47.8299" lon="-3.53961">
        <ele>24</ele>
        <time>2019-07-15T10:18:28Z</time>
      </trkpt>
      <trkpt lat="47.82989" lon="-3.53959">
        <ele>24</ele>
        <time>2019-07-15T10:18:29Z</time>
      </trkpt>
      <trkpt lat="47.82988" lon="-3.53957">
        <ele>24</ele>
        <time>2019-07-15T10:18:30Z</time>
      </trkpt>
      <trkpt lat="47.82987" lon="-3.53955">
        <ele>24</ele>
        <time>2019-07-15T10:18:31Z</time>
      </trkpt>
      <trkpt lat="47.82987" lon="-3.53953">
        <ele>25</ele>
        <time>2019-07-15T10:18:32Z</time>
      </trkpt>
      <trkpt lat="47.82986" lon="-3.53951">
        <ele>25</ele>
        <time>2019-07-15T10:18:33Z</time>
      </trkpt>
      <trkpt lat="47.82985" lon="-3.5395">
        <ele>25</ele>
        <time>2019-07-15T10:18:34Z</time>
      </trkpt>
      <trkpt lat="47.82984" lon="-3.53949">
        <ele>25</ele>
        <time>2019-07-15T10:18:35Z</time>
      </trkpt>
      <trkpt lat="47.82982" lon="-3.53948">
        <ele>26</ele>
        <time>2019-07-15T10:18:36Z</time>
      </trkpt>
      <trkpt lat="47.82981" lon="-3.53947">
        <ele>26</ele>
        <time>2019-07-15T10:18:37Z</time>
      </trkpt>
      <trkpt lat="47.82979" lon="-3.53946">
        <ele>26</ele>
        <time>2019-07-15T10:18:38Z</time>
      </trkpt>
      <trkpt lat="47.82978" lon="-3.53944">
        <ele>27</ele>
        <time>2019-07-15T10:18:39Z</time>
      </trkpt>
      <trkpt lat="47.82976" lon="-3.53942">
        <ele>27</ele>
        <time>2019-07-15T10:18:40Z</time>
      </trkpt>
      <trkpt lat="47.82974" lon="-3.5394">
        <ele>28</ele>
        <time>2019-07-15T10:18:41Z</time>
      </trkpt>
      <trkpt lat="47.82972" lon="-3.53939">
        <ele>28</ele>
        <time>2019-07-15T10:18:42Z</time>
      </trkpt>
      <trkpt lat="47.82971" lon="-3.53938">
        <ele>28</ele>
        <time>2019-07-15T10:18:43Z</time>
      </trkpt>
      <trkpt lat="47.8297" lon="-3.53936">
        <ele>29</ele>
        <time>2019-07-15T10:18:44Z</time>
      </trkpt>
      <trkpt lat="47.82969" lon="-3.53934">
        <ele>29</ele>
        <time>2019-07-15T10:18:45Z</time>
      </trkpt>
      <trkpt lat="47.82967" lon="-3.53931">
        <ele>30</ele>
        <time>2019-07-15T10:18:46Z</time>
      </trkpt>
      <trkpt lat="47.82966" lon="-3.53929">
        <ele>30</ele>
        <time>2019-07-15T10:18:47Z</time>
      </trkpt>
      <trkpt lat="47.82964" lon="-3.53927">
        <ele>31</ele>
        <time>2019-07-15T10:18:48Z</time>
      </trkpt>
      <trkpt lat="47.82962" lon="-3.53926">
        <ele>31</ele>
        <time>2019-07-15T10:18:49Z</time>
      </trkpt>
      <trkpt lat="47.82959" lon="-3.53924">
        <ele>32</ele>
        <time>2019-07-15T10:18:50Z</time>
      </trkpt>
      <trkpt lat="47.82956" lon="-3.53923">
        <ele>32</ele>
        <time>2019-07-15T10:18:51Z</time>
      </trkpt>
      <trkpt lat="47.82954" lon="-3.53923">
        <ele>33</ele>
        <time>2019-07-15T10:18:52Z</time>
      </trkpt>
      <trkpt lat="47.82951" lon="-3.53923">
        <ele>33</ele>
        <time>2019-07-15T10:18:53Z</time>
      </trkpt>
      <trkpt lat="47.82949" lon="-3.53921">
        <ele>34</ele>
        <time>2019-07-15T10:18:54Z</time>
      </trkpt>
      <trkpt lat="47.82945" lon="-3.5392">
        <ele>34</ele>
        <time>2019-07-15T10:18:55Z</time>
      </trkpt>
      <trkpt lat="47.82943" lon="-3.5392">
        <ele>34</ele>
        <time>2019-07-15T10:18:56Z</time>
      </trkpt>
      <trkpt lat="47.8294" lon="-3.5392">
        <ele>35</ele>
        <time>2019-07-15T10:18:57Z</time>
      </trkpt>
      <trkpt lat="47.82936" lon="-3.5392">
        <ele>35</ele>
        <time>2019-07-15T10:18:58Z</time>
      </trkpt>
      <trkpt lat="47.82932" lon="-3.53919">
        <ele>36</ele>
        <time>2019-07-15T10:18:59Z</time>
      </trkpt>
      <trkpt lat="47.82929" lon="-3.53919">
        <ele>36</ele>
        <time>2019-07-15T10:19:00Z</time>
      </trkpt>
      <trkpt lat="47.82926" lon="-3.53919">
        <ele>36</ele>
        <time>2019-07-15T10:19:01Z</time>
      </trkpt>
      <trkpt lat="47.82924" lon="-3.53918">
        <ele>37</ele>
        <time>2019-07-15T10:19:02Z</time>
      </trkpt>
      <trkpt lat="47.82921" lon="-3.53917">
        <ele>37</ele>
        <time>2019-07-15T10:19:03Z</time>
      </trkpt>
      <trkpt lat="47.82918" lon="-3.53916">
        <ele>37</ele>
        <time>2019-07-15T10:19:04Z</time>
      </trkpt>
      <trkpt lat="47.82915" lon="-3.53916">
        <ele>38</ele>
        <time>2019-07-15T10:19:05Z</time>
      </trkpt>
      <trkpt lat="47.82911" lon="-3.53915">
        <ele>38</ele>
        <time>2019-07-15T10:19:06Z</time>
      </trkpt>
      <trkpt lat="47.82908" lon="-3.53914">
        <ele>38</ele>
        <time>2019-07-15T10:19:07Z</time>
      </trkpt>
      <trkpt lat="47.82905" lon="-3.53913">
        <ele>38</ele>
        <time>2019-07-15T10:19:08Z</time>
      </trkpt>
      <trkpt lat="47.82903" lon="-3.53912">
        <ele>38</ele>
        <time>2019-07-15T10:19:09Z</time>
      </trkpt>
      <trkpt lat="47.829" lon="-3.53911">
        <ele>39</ele>
        <time>2019-07-15T10:19:10Z</time>
      </trkpt>
      <trkpt lat="47.82898" lon="-3.53909">
        <ele>39</ele>
        <time>2019-07-15T10:19:11Z</time>
      </trkpt>
      <trkpt lat="47.82896" lon="-3.53907">
        <ele>39</ele>
        <time>2019-07-15T10:19:12Z</time>
      </trkpt>
      <trkpt lat="47.82893" lon="-3.53906">
        <ele>39</ele>
        <time>2019-07-15T10:19:13Z</time>
      </trkpt>
      <trkpt lat="47.82892" lon="-3.53904">
        <ele>39</ele>
        <time>2019-07-15T10:19:14Z</time>
      </trkpt>
      <trkpt lat="47.82891" lon="-3.53904">
        <ele>39</ele>
        <time>2019-07-15T10:19:15Z</time>
      </trkpt>
      <trkpt lat="47.82891" lon="-3.53904">
        <ele>39</ele>
        <time>2019-07-15T10:19:16Z</time>
      </trkpt>
      <trkpt lat="47.82891" lon="-3.53904">
        <ele>39</ele>
        <time>2019-07-15T10:19:17Z</time>
      </trkpt>
      <trkpt lat="47.82892" lon="-3.53904">
        <ele>39</ele>
        <time>2019-07-15T10:19:18Z</time>
      </trkpt>
      <trkpt lat="47.82893" lon="-3.53903">
        <ele>39</ele>
        <time>2019-07-15T10:19:19Z</time>
      </trkpt>
      <trkpt lat="47.82893" lon="-3.53904">
        <ele>39</ele>
        <time>2019-07-15T10:19:20Z</time>
      </trkpt>
      <trkpt lat="47.82894" lon="-3.53904">
        <ele>40</ele>
        <time>2019-07-15T10:19:21Z</time>
      </trkpt>
      <trkpt lat="47.82894" lon="-3.53905">
        <ele>40</ele>
        <time>2019-07-15T10:19:22Z</time>
      </trkpt>
      <trkpt lat="47.82895" lon="-3.53904">
        <ele>40</ele>
        <time>2019-07-15T10:19:23Z</time>
      </trkpt>
      <trkpt lat="47.82896" lon="-3.53904">
        <ele>40</ele>
        <time>2019-07-15T10:19:24Z</time>
      </trkpt>
      <trkpt lat="47.82896" lon="-3.53903">
        <ele>40</ele>
        <time>2019-07-15T10:19:25Z</time>
      </trkpt>
      <trkpt lat="47.82897" lon="-3.53903">
        <ele>40</ele>
        <time>2019-07-15T10:19:26Z</time>
      </trkpt>
      <trkpt lat="47.82898" lon="-3.53902">
        <ele>40</ele>
        <time>2019-07-15T10:19:27Z</time>
      </trkpt>
      <trkpt lat="47.82898" lon="-3.53901">
        <ele>40</ele>
        <time>2019-07-15T10:19:28Z</time>
      </trkpt>
      <trkpt lat="47.82899" lon="-3.539">
        <ele>40</ele>
        <time>2019-07-15T10:19:29Z</time>
      </trkpt>
      <trkpt lat="47.82901" lon="-3.539">
        <ele>40</ele>
        <time>2019-07-15T10:19:30Z</time>
      </trkpt>
      <trkpt lat="47.82902" lon="-3.53898">
        <ele>40</ele>
        <time>2019-07-15T10:19:31Z</time>
      </trkpt>
      <trkpt lat="47.82903" lon="-3.53896">
        <ele>40</ele>
        <time>2019-07-15T10:19:32Z</time>
      </trkpt>
      <trkpt lat="47.82905" lon="-3.53894">
        <ele>40</ele>
        <time>2019-07-15T10:19:33Z</time>
      </trkpt>
      <trkpt lat="47.82907" lon="-3.53893">
        <ele>40</ele>
        <time>2019-07-15T10:19:34Z</time>
      </trkpt>
      <trkpt lat="47.8291" lon="-3.53891">
        <ele>40</ele>
        <time>2019-07-15T10:19:35Z</time>
      </trkpt>
      <trkpt lat="47.82913" lon="-3.5389">
        <ele>40</ele>
        <time>2019-07-15T10:19:36Z</time>
      </trkpt>
      <trkpt lat="47.82916" lon="-3.53889">
        <ele>41</ele>
        <time>2019-07-15T10:19:37Z</time>
      </trkpt>
      <trkpt lat="47.8292" lon="-3.53887">
        <ele>41</ele>
        <time>2019-07-15T10:19:38Z</time>
      </trkpt>
      <trkpt lat="47.82923" lon="-3.53886">
        <ele>41</ele>
        <time>2019-07-15T10:19:39Z</time>
      </trkpt>
      <trkpt lat="47.82927" lon="-3.53885">
        <ele>41</ele>
        <time>2019-07-15T10:19:40Z</time>
      </trkpt>
      <trkpt lat="47.82929" lon="-3.53885">
        <ele>41</ele>
        <time>2019-07-15T10:19:41Z</time>
      </trkpt>
      <trkpt lat="47.82932" lon="-3.53885">
        <ele>42</ele>
        <time>2019-07-15T10:19:42Z</time>
      </trkpt>
      <trkpt lat="47.82935" lon="-3.53885">
        <ele>42</ele>
        <time>2019-07-15T10:19:43Z</time>
      </trkpt>
      <trkpt lat="47.82937" lon="-3.53885">
        <ele>42</ele>
        <time>2019-07-15T10:19:44Z</time>
      </trkpt>
      <trkpt lat="47.82939" lon="-3.53886">
        <ele>42</ele>
        <time>2019-07-15T10:19:45Z</time>
      </trkpt>
      <trkpt lat="47.82942" lon="-3.53886">
        <ele>42</ele>
        <time>2019-07-15T10:19:46Z</time>
      </trkpt>
      <trkpt lat="47.82943" lon="-3.53886">
        <ele>42</ele>
        <time>2019-07-15T10:19:47Z</time>
      </trkpt>
      <trkpt lat="47.82945" lon="-3.53886">
        <ele>42</ele>
        <time>2019-07-15T10:19:48Z</time>
      </trkpt>
      <trkpt lat="47.82948" lon="-3.53887">
        <ele>43</ele>
        <time>2019-07-15T10:19:49Z</time>
      </trkpt>
      <trkpt lat="47.82949" lon="-3.53887">
        <ele>43</ele>
        <time>2019-07-15T10:19:50Z</time>
      </trkpt>
      <trkpt lat="47.8295" lon="-3.53887">
        <ele>43</ele>
        <time>2019-07-15T10:19:51Z</time>
      </trkpt>
      <trkpt lat="47.8295" lon="-3.53886">
        <ele>43</ele>
        <time>2019-07-15T10:19:52Z</time>
      </trkpt>
      <trkpt lat="47.82951" lon="-3.53886">
        <ele>43</ele>
        <time>2019-07-15T10:19:53Z</time>
      </trkpt>
      <trkpt lat="47.82952" lon="-3.53886">
        <ele>44</ele>
        <time>2019-07-15T10:19:54Z</time>
      </trkpt>
      <trkpt lat="47.82967" lon="-3.5388">
        <ele>50</ele>
        <time>2019-07-15T10:19:55Z</time>
      </trkpt>
      <trkpt lat="47.82968" lon="-3.5388">
        <ele>50</ele>
        <time>2019-07-15T10:19:56Z</time>
      </trkpt>
      <trkpt lat="47.82969" lon="-3.5388">
        <ele>50</ele>
        <time>2019-07-15T10:19:57Z</time>
      </trkpt>
      <trkpt lat="47.8297" lon="-3.53881">
        <ele>50</ele>
        <time>2019-07-15T10:19:58Z</time>
      </trkpt>
      <trkpt lat="47.82972" lon="-3.53881">
        <ele>50</ele>
        <time>2019-07-15T10:19:59Z</time>
      </trkpt>
      <trkpt lat="47.82972" lon="-3.53881">
        <ele>50</ele>
        <time>2019-07-15T10:20:00Z</time>
      </trkpt>
      <trkpt lat="47.82972" lon="-3.53881">
        <ele>50</ele>
        <time>2019-07-15T10:20:01Z</time>
      </trkpt>
      <trkpt lat="47.82977" lon="-3.53887">
        <ele>53</ele>
        <time>2019-07-15T10:20:02Z</time>
      </trkpt>
      <trkpt lat="47.82978" lon="-3.53886">
        <ele>53</ele>
        <time>2019-07-15T10:20:03Z</time>
      </trkpt>
      <trkpt lat="47.82978" lon="-3.53885">
        <ele>53</ele>
        <time>2019-07-15T10:20:04Z</time>
      </trkpt>
      <trkpt lat="47.82979" lon="-3.53884">
        <ele>53</ele>
        <time>2019-07-15T10:20:05Z</time>
      </trkpt>
      <trkpt lat="47.82979" lon="-3.53882">
        <ele>53</ele>
        <time>2019-07-15T10:20:06Z</time>
      </trkpt>
      <trkpt lat="47.8298" lon="-3.53881">
        <ele>53</ele>
        <time>2019-07-15T10:20:07Z</time>
      </trkpt>
      <trkpt lat="47.82981" lon="-3.5388">
        <ele>53</ele>
        <time>2019-07-15T10:20:08Z</time>
      </trkpt>
      <trkpt lat="47.82981" lon="-3.53879">
        <ele>53</ele>
        <time>2019-07-15T10:20:09Z</time>
      </trkpt>
      <trkpt lat="47.82982" lon="-3.53878">
        <ele>53</ele>
        <time>2019-07-15T10:20:10Z</time>
      </trkpt>
      <trkpt lat="47.82987" lon="-3.53864">
        <ele>53</ele>
        <time>2019-07-15T10:20:11Z</time>
      </trkpt>
      <trkpt lat="47.82988" lon="-3.53862">
        <ele>54</ele>
        <time>2019-07-15T10:20:12Z</time>
      </trkpt>
      <trkpt lat="47.82988" lon="-3.53859">
        <ele>54</ele>
        <time>2019-07-15T10:20:13Z</time>
      </trkpt>
      <trkpt lat="47.8299" lon="-3.53856">
        <ele>54</ele>
        <time>2019-07-15T10:20:14Z</time>
      </trkpt>
      <trkpt lat="47.82991" lon="-3.53853">
        <ele>54</ele>
        <time>2019-07-15T10:20:15Z</time>
      </trkpt>
      <trkpt lat="47.82993" lon="-3.5385">
        <ele>55</ele>
        <time>2019-07-15T10:20:16Z</time>
      </trkpt>
      <trkpt lat="47.82994" lon="-3.53848">
        <ele>55</ele>
        <time>2019-07-15T10:20:17Z</time>
      </trkpt>
      <trkpt lat="47.82995" lon="-3.53847">
        <ele>55</ele>
        <time>2019-07-15T10:20:18Z</time>
      </trkpt>
      <trkpt lat="47.82997" lon="-3.53847">
        <ele>56</ele>
        <time>2019-07-15T10:20:19Z</time>
      </trkpt>
      <trkpt lat="47.82999" lon="-3.53846">
        <ele>56</ele>
        <time>2019-07-15T10:20:20Z</time>
      </trkpt>
      <trkpt lat="47.83001" lon="-3.53845">
        <ele>57</ele>
        <time>2019-07-15T10:20:21Z</time>
      </trkpt>
      <trkpt lat="47.83002" lon="-3.53845">
        <ele>57</ele>
        <time>2019-07-15T10:20:22Z</time>
      </trkpt>
      <trkpt lat="47.83005" lon="-3.53844">
        <ele>58</ele>
        <time>2019-07-15T10:20:23Z</time>
      </trkpt>
      <trkpt lat="47.83007" lon="-3.53844">
        <ele>58</ele>
        <time>2019-07-15T10:20:24Z</time>
      </trkpt>
      <trkpt lat="47.8301" lon="-3.53843">
        <ele>58</ele>
        <time>2019-07-15T10:20:25Z</time>
      </trkpt>
      <trkpt lat="47.83012" lon="-3.53843">
        <ele>59</ele>
        <time>2019-07-15T10:20:26Z</time>
      </trkpt>
      <trkpt lat="47.83015" lon="-3.53843">
        <ele>59</ele>
        <time>2019-07-15T10:20:27Z</time>
      </trkpt>
      <trkpt lat="47.83018" lon="-3.53843">
        <ele>60</ele>
        <time>2019-07-15T10:20:28Z</time>
      </trkpt>
      <trkpt lat="47.8302" lon="-3.53843">
        <ele>60</ele>
        <time>2019-07-15T10:20:29Z</time>
      </trkpt>
      <trkpt lat="47.83022" lon="-3.53843">
        <ele>60</ele>
        <time>2019-07-15T10:20:30Z</time>
      </trkpt>
      <trkpt lat="47.83024" lon="-3.53843">
        <ele>61</ele>
        <time>2019-07-15T10:20:31Z</time>
      </trkpt>
      <trkpt lat="47.83027" lon="-3.53843">
        <ele>61</ele>
        <time>2019-07-15T10:20:32Z</time>
      </trkpt>
      <trkpt lat="47.83029" lon="-3.53843">
        <ele>61</ele>
        <time>2019-07-15T10:20:33Z</time>
      </trkpt>
      <trkpt lat="47.83031" lon="-3.53843">
        <ele>61</ele>
        <time>2019-07-15T10:20:34Z</time>
      </trkpt>
      <trkpt lat="47.83033" lon="-3.53843">
        <ele>62</ele>
        <time>2019-07-15T10:20:35Z</time>
      </trkpt>
      <trkpt lat="47.83036" lon="-3.53843">
        <ele>62</ele>
        <time>2019-07-15T10:20:36Z</time>
      </trkpt>
      <trkpt lat="47.83038" lon="-3.53843">
        <ele>62</ele>
        <time>2019-07-15T10:20:37Z</time>
      </trkpt>
      <trkpt lat="47.83041" lon="-3.53843">
        <ele>62</ele>
        <time>2019-07-15T10:20:38Z</time>
      </trkpt>
      <trkpt lat="47.83042" lon="-3.53843">
        <ele>63</ele>
        <time>2019-07-15T10:20:39Z</time>
      </trkpt>
      <trkpt lat="47.83044" lon="-3.53843">
        <ele>63</ele>
        <time>2019-07-15T10:20:40Z</time>
      </trkpt>
      <trkpt lat="47.83046" lon="-3.53844">
        <ele>63</ele>
        <time>2019-07-15T10:20:41Z</time>
      </trkpt>
      <trkpt lat="47.83047" lon="-3.53844">
        <ele>63</ele>
        <time>2019-07-15T10:20:42Z</time>
      </trkpt>
      <trkpt lat="47.83049" lon="-3.53845">
        <ele>63</ele>
        <time>2019-07-15T10:20:43Z</time>
      </trkpt>
      <trkpt lat="47.8305" lon="-3.53844">
        <ele>63</ele>
        <time>2019-07-15T10:20:44Z</time>
      </trkpt>
      <trkpt lat="47.8305" lon="-3.53844">
        <ele>63</ele>
        <time>2019-07-15T10:20:45Z</time>
      </trkpt>
      <trkpt lat="47.83051" lon="-3.53844">
        <ele>64</ele>
        <time>2019-07-15T10:20:46Z</time>
      </trkpt>
      <trkpt lat="47.83051" lon="-3.53844">
        <ele>64</ele>
        <time>2019-07-15T10:20:47Z</time>
      </trkpt>
      <trkpt lat="47.83052" lon="-3.53843">
        <ele>64</ele>
        <time>2019-07-15T10:20:48Z</time>
      </trkpt>
      <trkpt lat="47.83053" lon="-3.5384">
        <ele>64</ele>
        <time>2019-07-15T10:20:49Z</time>
      </trkpt>
      <trkpt lat="47.83054" lon="-3.53838">
        <ele>65</ele>
        <time>2019-07-15T10:20:50Z</time>
      </trkpt>
      <trkpt lat="47.83055" lon="-3.53837">
        <ele>65</ele>
        <time>2019-07-15T10:20:51Z</time>
      </trkpt>
      <trkpt lat="47.83056" lon="-3.53835">
        <ele>65</ele>
        <time>2019-07-15T10:20:52Z</time>
      </trkpt>
      <trkpt lat="47.83057" lon="-3.53834">
        <ele>66</ele>
        <time>2019-07-15T10:20:53Z</time>
      </trkpt>
      <trkpt lat="47.83058" lon="-3.53833">
        <ele>66</ele>
        <time>2019-07-15T10:20:54Z</time>
      </trkpt>
      <trkpt lat="47.8306" lon="-3.53832">
        <ele>66</ele>
        <time>2019-07-15T10:20:55Z</time>
      </trkpt>
      <trkpt lat="47.83061" lon="-3.53831">
        <ele>67</ele>
        <time>2019-07-15T10:20:56Z</time>
      </trkpt>
      <trkpt lat="47.83063" lon="-3.5383">
        <ele>67</ele>
        <time>2019-07-15T10:20:57Z</time>
      </trkpt>
      <trkpt lat="47.83065" lon="-3.5383">
        <ele>67</ele>
        <time>2019-07-15T10:20:58Z</time>
      </trkpt>
      <trkpt lat="47.83067" lon="-3.53829">
        <ele>67</ele>
        <time>2019-07-15T10:20:59Z</time>
      </trkpt>
      <trkpt lat="47.8307" lon="-3.53827">
        <ele>67</ele>
        <time>2019-07-15T10:21:00Z</time>
      </trkpt>
      <trkpt lat="47.83071" lon="-3.53825">
        <ele>67</ele>
        <time>2019-07-15T10:21:01Z</time>
      </trkpt>
      <trkpt lat="47.83073" lon="-3.53824">
        <ele>67</ele>
        <time>2019-07-15T10:21:02Z</time>
      </trkpt>
      <trkpt lat="47.83074" lon="-3.53822">
        <ele>68</ele>
        <time>2019-07-15T10:21:03Z</time>
      </trkpt>
      <trkpt lat="47.83076" lon="-3.5382">
        <ele>68</ele>
        <time>2019-07-15T10:21:04Z</time>
      </trkpt>
      <trkpt lat="47.83077" lon="-3.53817">
        <ele>68</ele>
        <time>2019-07-15T10:21:05Z</time>
      </trkpt>
      <trkpt lat="47.83078" lon="-3.53815">
        <ele>68</ele>
        <time>2019-07-15T10:21:06Z</time>
      </trkpt>
      <trkpt lat="47.83079" lon="-3.53813">
        <ele>68</ele>
        <time>2019-07-15T10:21:07Z</time>
      </trkpt>
      <trkpt lat="47.8308" lon="-3.53811">
        <ele>68</ele>
        <time>2019-07-15T10:21:08Z</time>
      </trkpt>
      <trkpt lat="47.83081" lon="-3.5381">
        <ele>68</ele>
        <time>2019-07-15T10:21:09Z</time>
      </trkpt>
      <trkpt lat="47.83082" lon="-3.53809">
        <ele>68</ele>
        <time>2019-07-15T10:21:10Z</time>
      </trkpt>
      <trkpt lat="47.83083" lon="-3.53807">
        <ele>68</ele>
        <time>2019-07-15T10:21:11Z</time>
      </trkpt>
      <trkpt lat="47.83083" lon="-3.53805">
        <ele>68</ele>
        <time>2019-07-15T10:21:12Z</time>
      </trkpt>
      <trkpt lat="47.83084" lon="-3.53802">
        <ele>68</ele>
        <time>2019-07-15T10:21:13Z</time>
      </trkpt>
      <trkpt lat="47.83084" lon="-3.53798">
        <ele>69</ele>
        <time>2019-07-15T10:21:14Z</time>
      </trkpt>
      <trkpt lat="47.83085" lon="-3.53795">
        <ele>69</ele>
        <time>2019-07-15T10:21:15Z</time>
      </trkpt>
      <trkpt lat="47.83085" lon="-3.53792">
        <ele>69</ele>
        <time>2019-07-15T10:21:16Z</time>
      </trkpt>
      <trkpt lat="47.83085" lon="-3.53788">
        <ele>69</ele>
        <time>2019-07-15T10:21:17Z</time>
      </trkpt>
      <trkpt lat="47.83086" lon="-3.53785">
        <ele>69</ele>
        <time>2019-07-15T10:21:18Z</time>
      </trkpt>
      <trkpt lat="47.83087" lon="-3.53782">
        <ele>69</ele>
        <time>2019-07-15T10:21:19Z</time>
      </trkpt>
      <trkpt lat="47.83088" lon="-3.53779">
        <ele>69</ele>
        <time>2019-07-15T10:21:20Z</time>
      </trkpt>
      <trkpt lat="47.83088" lon="-3.53775">
        <ele>69</ele>
        <time>2019-07-15T10:21:21Z</time>
      </trkpt>
      <trkpt lat="47.83089" lon="-3.53773">
        <ele>69</ele>
        <time>2019-07-15T10:21:22Z</time>
      </trkpt>
      <trkpt lat="47.8309" lon="-3.53771">
        <ele>69</ele>
        <time>2019-07-15T10:21:23Z</time>
      </trkpt>
      <trkpt lat="47.83091" lon="-3.53769">
        <ele>69</ele>
        <time>2019-07-15T10:21:24Z</time>
      </trkpt>
      <trkpt lat="47.83092" lon="-3.53768">
        <ele>69</ele>
        <time>2019-07-15T10:21:25Z</time>
      </trkpt>
      <trkpt lat="47.83093" lon="-3.53766">
        <ele>69</ele>
        <time>2019-07-15T10:21:26Z</time>
      </trkpt>
      <trkpt lat="47.83094" lon="-3.53765">
        <ele>69</ele>
        <time>2019-07-15T10:21:27Z</time>
      </trkpt>
      <trkpt lat="47.83094" lon="-3.53764">
        <ele>69</ele>
        <time>2019-07-15T10:21:28Z</time>
      </trkpt>
      <trkpt lat="47.83095" lon="-3.53764">
        <ele>69</ele>
        <time>2019-07-15T10:21:29Z</time>
      </trkpt>
      <trkpt lat="47.83096" lon="-3.53763">
        <ele>69</ele>
        <time>2019-07-15T10:21:30Z</time>
      </trkpt>
      <trkpt lat="47.83097" lon="-3.53763">
        <ele>69</ele>
        <time>2019-07-15T10:21:31Z</time>
      </trkpt>
      <trkpt lat="47.83099" lon="-3.53762">
        <ele>69</ele>
        <time>2019-07-15T10:21:32Z</time>
      </trkpt>
      <trkpt lat="47.831" lon="-3.53762">
        <ele>69</ele>
        <time>2019-07-15T10:21:33Z</time>
      </trkpt>
      <trkpt lat="47.83102" lon="-3.53761">
        <ele>70</ele>
        <time>2019-07-15T10:21:34Z</time>
      </trkpt>
      <trkpt lat="47.83103" lon="-3.53762">
        <ele>70</ele>
        <time>2019-07-15T10:21:35Z</time>
      </trkpt>
      <trkpt lat="47.83105" lon="-3.53762">
        <ele>70</ele>
        <time>2019-07-15T10:21:36Z</time>
      </trkpt>
      <trkpt lat="47.83107" lon="-3.53762">
        <ele>70</ele>
        <time>2019-07-15T10:21:37Z</time>
      </trkpt>
      <trkpt lat="47.8311" lon="-3.53762">
        <ele>70</ele>
        <time>2019-07-15T10:21:38Z</time>
      </trkpt>
      <trkpt lat="47.83113" lon="-3.53763">
        <ele>70</ele>
        <time>2019-07-15T10:21:39Z</time>
      </trkpt>
      <trkpt lat="47.83116" lon="-3.53764">
        <ele>70</ele>
        <time>2019-07-15T10:21:40Z</time>
      </trkpt>
      <trkpt lat="47.83119" lon="-3.53765">
        <ele>70</ele>
        <time>2019-07-15T10:21:41Z</time>
      </trkpt>
      <trkpt lat="47.83122" lon="-3.53764">
        <ele>70</ele>
        <time>2019-07-15T10:21:42Z</time>
      </trkpt>
      <trkpt lat="47.83125" lon="-3.53764">
        <ele>70</ele>
        <time>2019-07-15T10:21:43Z</time>
      </trkpt>
      <trkpt lat="47.83127" lon="-3.53763">
        <ele>70</ele>
        <time>2019-07-15T10:21:44Z</time>
      </trkpt>
      <trkpt lat="47.83129" lon="-3.53763">
        <ele>70</ele>
        <time>2019-07-15T10:21:45Z</time>
      </trkpt>
      <trkpt lat="47.83131" lon="-3.53762">
        <ele>70</ele>
        <time>2019-07-15T10:21:46Z</time>
      </trkpt>
      <trkpt lat="47.83133" lon="-3.53762">
        <ele>70</ele>
        <time>2019-07-15T10:21:47Z</time>
      </trkpt>
      <trkpt lat="47.83135" lon="-3.53762">
        <ele>71</ele>
        <time>2019-07-15T10:21:48Z</time>
      </trkpt>
      <trkpt lat="47.83138" lon="-3.53761">
        <ele>71</ele>
        <time>2019-07-15T10:21:49Z</time>
      </trkpt>
      <trkpt lat="47.8314" lon="-3.53762">
        <ele>71</ele>
        <time>2019-07-15T10:21:50Z</time>
      </trkpt>
      <trkpt lat="47.83143" lon="-3.53765">
        <ele>71</ele>
        <time>2019-07-15T10:21:51Z</time>
      </trkpt>
      <trkpt lat="47.83146" lon="-3.53767">
        <ele>71</ele>
        <time>2019-07-15T10:21:52Z</time>
      </trkpt>
      <trkpt lat="47.83147" lon="-3.53768">
        <ele>71</ele>
        <time>2019-07-15T10:21:53Z</time>
      </trkpt>
      <trkpt lat="47.83149" lon="-3.53769">
        <ele>71</ele>
        <time>2019-07-15T10:21:54Z</time>
      </trkpt>
      <trkpt lat="47.83153" lon="-3.53769">
        <ele>71</ele>
        <time>2019-07-15T10:21:55Z</time>
      </trkpt>
      <trkpt lat="47.83157" lon="-3.53769">
        <ele>71</ele>
        <time>2019-07-15T10:21:56Z</time>
      </trkpt>
      <trkpt lat="47.83162" lon="-3.53768">
        <ele>71</ele>
        <time>2019-07-15T10:21:57Z</time>
      </trkpt>
      <trkpt lat="47.83165" lon="-3.53768">
        <ele>71</ele>
        <time>2019-07-15T10:21:58Z</time>
      </trkpt>
      <trkpt lat="47.83169" lon="-3.53768">
        <ele>71</ele>
        <time>2019-07-15T10:21:59Z</time>
      </trkpt>
      <trkpt lat="47.83172" lon="-3.53768">
        <ele>71</ele>
        <time>2019-07-15T10:22:00Z</time>
      </trkpt>
      <trkpt lat="47.83177" lon="-3.53767">
        <ele>71</ele>
        <time>2019-07-15T10:22:01Z</time>
      </trkpt>
      <trkpt lat="47.83181" lon="-3.53767">
        <ele>71</ele>
        <time>2019-07-15T10:22:02Z</time>
      </trkpt>
      <trkpt lat="47.83185" lon="-3.53766">
        <ele>71</ele>
        <time>2019-07-15T10:22:03Z</time>
      </trkpt>
      <trkpt lat="47.8319" lon="-3.53766">
        <ele>71</ele>
        <time>2019-07-15T10:22:04Z</time>
      </trkpt>
      <trkpt lat="47.83195" lon="-3.53765">
        <ele>71</ele>
        <time>2019-07-15T10:22:05Z</time>
      </trkpt>
      <trkpt lat="47.83199" lon="-3.53765">
        <ele>70</ele>
        <time>2019-07-15T10:22:06Z</time>
      </trkpt>
      <trkpt lat="47.83203" lon="-3.53765">
        <ele>70</ele>
        <time>2019-07-15T10:22:07Z</time>
      </trkpt>
      <trkpt lat="47.83207" lon="-3.53766">
        <ele>70</ele>
        <time>2019-07-15T10:22:08Z</time>
      </trkpt>
      <trkpt lat="47.8321" lon="-3.53766">
        <ele>70</ele>
        <time>2019-07-15T10:22:09Z</time>
      </trkpt>
      <trkpt lat="47.83214" lon="-3.53765">
        <ele>70</ele>
        <time>2019-07-15T10:22:10Z</time>
      </trkpt>
      <trkpt lat="47.83218" lon="-3.53764">
        <ele>70</ele>
        <time>2019-07-15T10:22:11Z</time>
      </trkpt>
      <trkpt lat="47.83223" lon="-3.53763">
        <ele>70</ele>
        <time>2019-07-15T10:22:12Z</time>
      </trkpt>
      <trkpt lat="47.83226" lon="-3.53761">
        <ele>70</ele>
        <time>2019-07-15T10:22:13Z</time>
      </trkpt>
      <trkpt lat="47.83228" lon="-3.53759">
        <ele>70</ele>
        <time>2019-07-15T10:22:14Z</time>
      </trkpt>
      <trkpt lat="47.8323" lon="-3.53757">
        <ele>70</ele>
        <time>2019-07-15T10:22:15Z</time>
      </trkpt>
      <trkpt lat="47.83231" lon="-3.53755">
        <ele>70</ele>
        <time>2019-07-15T10:22:16Z</time>
      </trkpt>
      <trkpt lat="47.83233" lon="-3.53752">
        <ele>70</ele>
        <time>2019-07-15T10:22:17Z</time>
      </trkpt>
      <trkpt lat="47.83235" lon="-3.53748">
        <ele>70</ele>
        <time>2019-07-15T10:22:18Z</time>
      </trkpt>
      <trkpt lat="47.83236" lon="-3.53744">
        <ele>69</ele>
        <time>2019-07-15T10:22:19Z</time>
      </trkpt>
      <trkpt lat="47.83237" lon="-3.5374">
        <ele>69</ele>
        <time>2019-07-15T10:22:20Z</time>
      </trkpt>
      <trkpt lat="47.83237" lon="-3.53736">
        <ele>69</ele>
        <time>2019-07-15T10:22:21Z</time>
      </trkpt>
      <trkpt lat="47.83236" lon="-3.53732">
        <ele>70</ele>
        <time>2019-07-15T10:22:22Z</time>
      </trkpt>
      <trkpt lat="47.83236" lon="-3.53727">
        <ele>70</ele>
        <time>2019-07-15T10:22:23Z</time>
      </trkpt>
      <trkpt lat="47.83237" lon="-3.53724">
        <ele>69</ele>
        <time>2019-07-15T10:22:24Z</time>
      </trkpt>
      <trkpt lat="47.83238" lon="-3.53722">
        <ele>69</ele>
        <time>2019-07-15T10:22:25Z</time>
      </trkpt>
      <trkpt lat="47.83239" lon="-3.53722">
        <ele>69</ele>
        <time>2019-07-15T10:22:26Z</time>
      </trkpt>
      <trkpt lat="47.8324" lon="-3.5372">
        <ele>69</ele>
        <time>2019-07-15T10:22:27Z</time>
      </trkpt>
      <trkpt lat="47.83241" lon="-3.53719">
        <ele>69</ele>
        <time>2019-07-15T10:22:28Z</time>
      </trkpt>
      <trkpt lat="47.83242" lon="-3.53719">
        <ele>68</ele>
        <time>2019-07-15T10:22:29Z</time>
      </trkpt>
      <trkpt lat="47.83243" lon="-3.53718">
        <ele>68</ele>
        <time>2019-07-15T10:22:30Z</time>
      </trkpt>
      <trkpt lat="47.83244" lon="-3.53718">
        <ele>68</ele>
        <time>2019-07-15T10:22:31Z</time>
      </trkpt>
      <trkpt lat="47.83244" lon="-3.53717">
        <ele>68</ele>
        <time>2019-07-15T10:22:32Z</time>
      </trkpt>
      <trkpt lat="47.83245" lon="-3.53716">
        <ele>68</ele>
        <time>2019-07-15T10:22:33Z</time>
      </trkpt>
      <trkpt lat="47.83246" lon="-3.53716">
        <ele>68</ele>
        <time>2019-07-15T10:22:34Z</time>
      </trkpt>
      <trkpt lat="47.83246" lon="-3.53716">
        <ele>68</ele>
        <time>2019-07-15T10:22:35Z</time>
      </trkpt>
      <trkpt lat="47.83247" lon="-3.53715">
        <ele>67</ele>
        <time>2019-07-15T10:22:36Z</time>
      </trkpt>
      <trkpt lat="47.83247" lon="-3.53715">
        <ele>67</ele>
        <time>2019-07-15T10:22:37Z</time>
      </trkpt>
      <trkpt lat="47.83254" lon="-3.53704">
        <ele>66</ele>
        <time>2019-07-15T10:22:38Z</time>
      </trkpt>
      <trkpt lat="47.83256" lon="-3.53701">
        <ele>66</ele>
        <time>2019-07-15T10:22:39Z</time>
      </trkpt>
      <trkpt lat="47.83257" lon="-3.53697">
        <ele>66</ele>
        <time>2019-07-15T10:22:40Z</time>
      </trkpt>
      <trkpt lat="47.83258" lon="-3.53693">
        <ele>66</ele>
        <time>2019-07-15T10:22:41Z</time>
      </trkpt>
      <trkpt lat="47.83259" lon="-3.53689">
        <ele>66</ele>
        <time>2019-07-15T10:22:42Z</time>
      </trkpt>
      <trkpt lat="47.83259" lon="-3.53686">
        <ele>66</ele>
        <time>2019-07-15T10:22:43Z</time>
      </trkpt>
      <trkpt lat="47.8326" lon="-3.53682">
        <ele>66</ele>
        <time>2019-07-15T10:22:44Z</time>
      </trkpt>
      <trkpt lat="47.83261" lon="-3.53678">
        <ele>66</ele>
        <time>2019-07-15T10:22:45Z</time>
      </trkpt>
      <trkpt lat="47.83263" lon="-3.53674">
        <ele>66</ele>
        <time>2019-07-15T10:22:46Z</time>
      </trkpt>
      <trkpt lat="47.83264" lon="-3.53671">
        <ele>66</ele>
        <time>2019-07-15T10:22:47Z</time>
      </trkpt>
      <trkpt lat="47.83264" lon="-3.53669">
        <ele>66</ele>
        <time>2019-07-15T10:22:48Z</time>
      </trkpt>
      <trkpt lat="47.83264" lon="-3.53666">
        <ele>66</ele>
        <time>2019-07-15T10:22:49Z</time>
      </trkpt>
      <trkpt lat="47.83265" lon="-3.53663">
        <ele>66</ele>
        <time>2019-07-15T10:22:50Z</time>
      </trkpt>
      <trkpt lat="47.83265" lon="-3.5366">
        <ele>66</ele>
        <time>2019-07-15T10:22:51Z</time>
      </trkpt>
      <trkpt lat="47.83266" lon="-3.53657">
        <ele>66</ele>
        <time>2019-07-15T10:22:52Z</time>
      </trkpt>
      <trkpt lat="47.83266" lon="-3.53654">
        <ele>66</ele>
        <time>2019-07-15T10:22:53Z</time>
      </trkpt>
      <trkpt lat="47.83266" lon="-3.53652">
        <ele>66</ele>
        <time>2019-07-15T10:22:54Z</time>
      </trkpt>
      <trkpt lat="47.83266" lon="-3.53649">
        <ele>66</ele>
        <time>2019-07-15T10:22:55Z</time>
      </trkpt>
      <trkpt lat="47.83266" lon="-3.53648">
        <ele>66</ele>
        <time>2019-07-15T10:22:56Z</time>
      </trkpt>
      <trkpt lat="47.83266" lon="-3.53648">
        <ele>66</ele>
        <time>2019-07-15T10:22:57Z</time>
      </trkpt>
      <trkpt lat="47.83266" lon="-3.53647">
        <ele>66</ele>
        <time>2019-07-15T10:22:58Z</time>
      </trkpt>
      <trkpt lat="47.83266" lon="-3.53647">
        <ele>66</ele>
        <time>2019-07-15T10:22:59Z</time>
      </trkpt>
      <trkpt lat="47.83266" lon="-3.53633">
        <ele>65</ele>
        <time>2019-07-15T10:23:00Z</time>
      </trkpt>
      <trkpt lat="47.83267" lon="-3.5363">
        <ele>65</ele>
        <time>2019-07-15T10:23:01Z</time>
      </trkpt>
      <trkpt lat="47.83268" lon="-3.53627">
        <ele>65</ele>
        <time>2019-07-15T10:23:02Z</time>
      </trkpt>
      <trkpt lat="47.83269" lon="-3.53623">
        <ele>65</ele>
        <time>2019-07-15T10:23:03Z</time>
      </trkpt>
      <trkpt lat="47.8327" lon="-3.53619">
        <ele>65</ele>
        <time>2019-07-15T10:23:04Z</time>
      </trkpt>
      <trkpt lat="47.8327" lon="-3.53614">
        <ele>65</ele>
        <time>2019-07-15T10:23:05Z</time>
      </trkpt>
      <trkpt lat="47.8327" lon="-3.5361">
        <ele>65</ele>
        <time>2019-07-15T10:23:06Z</time>
      </trkpt>
      <trkpt lat="47.8327" lon="-3.53606">
        <ele>65</ele>
        <time>2019-07-15T10:23:07Z</time>
      </trkpt>
      <trkpt lat="47.8327" lon="-3.53602">
        <ele>65</ele>
        <time>2019-07-15T10:23:08Z</time>
      </trkpt>
      <trkpt lat="47.8327" lon="-3.53597">
        <ele>65</ele>
        <time>2019-07-15T10:23:09Z</time>
      </trkpt>
      <trkpt lat="47.8327" lon="-3.53592">
        <ele>65</ele>
        <time>2019-07-15T10:23:10Z</time>
      </trkpt>
      <trkpt lat="47.8327" lon="-3.53588">
        <ele>65</ele>
        <time>2019-07-15T10:23:11Z</time>
      </trkpt>
      <trkpt lat="47.83271" lon="-3.53583">
        <ele>65</ele>
        <time>2019-07-15T10:23:12Z</time>
      </trkpt>
      <trkpt lat="47.83271" lon="-3.53578">
        <ele>65</ele>
        <time>2019-07-15T10:23:13Z</time>
      </trkpt>
      <trkpt lat="47.83271" lon="-3.53575">
        <ele>65</ele>
        <time>2019-07-15T10:23:14Z</time>
      </trkpt>
      <trkpt lat="47.8327" lon="-3.53572">
        <ele>65</ele>
        <time>2019-07-15T10:23:15Z</time>
      </trkpt>
      <trkpt lat="47.8327" lon="-3.5357">
        <ele>65</ele>
        <time>2019-07-15T10:23:16Z</time>
      </trkpt>
      <trkpt lat="47.83269" lon="-3.53569">
        <ele>65</ele>
        <time>2019-07-15T10:23:17Z</time>
      </trkpt>
      <trkpt lat="47.83268" lon="-3.53568">
        <ele>64</ele>
        <time>2019-07-15T10:23:18Z</time>
      </trkpt>
      <trkpt lat="47.83267" lon="-3.53565">
        <ele>64</ele>
        <time>2019-07-15T10:23:19Z</time>
      </trkpt>
      <trkpt lat="47.83265" lon="-3.53564">
        <ele>64</ele>
        <time>2019-07-15T10:23:20Z</time>
      </trkpt>
      <trkpt lat="47.83264" lon="-3.53562">
        <ele>64</ele>
        <time>2019-07-15T10:23:21Z</time>
      </trkpt>
      <trkpt lat="47.83263" lon="-3.5356">
        <ele>64</ele>
        <time>2019-07-15T10:23:22Z</time>
      </trkpt>
      <trkpt lat="47.83263" lon="-3.53558">
        <ele>64</ele>
        <time>2019-07-15T10:23:23Z</time>
      </trkpt>
      <trkpt lat="47.83261" lon="-3.53556">
        <ele>64</ele>
        <time>2019-07-15T10:23:24Z</time>
      </trkpt>
      <trkpt lat="47.8326" lon="-3.53553">
        <ele>64</ele>
        <time>2019-07-15T10:23:25Z</time>
      </trkpt>
      <trkpt lat="47.83258" lon="-3.5355">
        <ele>64</ele>
        <time>2019-07-15T10:23:26Z</time>
      </trkpt>
      <trkpt lat="47.83256" lon="-3.53547">
        <ele>63</ele>
        <time>2019-07-15T10:23:27Z</time>
      </trkpt>
      <trkpt lat="47.83254" lon="-3.53543">
        <ele>63</ele>
        <time>2019-07-15T10:23:28Z</time>
      </trkpt>
      <trkpt lat="47.83252" lon="-3.5354">
        <ele>63</ele>
        <time>2019-07-15T10:23:29Z</time>
      </trkpt>
      <trkpt lat="47.8325" lon="-3.53536">
        <ele>63</ele>
        <time>2019-07-15T10:23:30Z</time>
      </trkpt>
      <trkpt lat="47.83248" lon="-3.53532">
        <ele>63</ele>
        <time>2019-07-15T10:23:31Z</time>
      </trkpt>
      <trkpt lat="47.83247" lon="-3.53528">
        <ele>63</ele>
        <time>2019-07-15T10:23:32Z</time>
      </trkpt>
      <trkpt lat="47.83245" lon="-3.53524">
        <ele>63</ele>
        <time>2019-07-15T10:23:33Z</time>
      </trkpt>
      <trkpt lat="47.83244" lon="-3.53519">
        <ele>63</ele>
        <time>2019-07-15T10:23:34Z</time>
      </trkpt>
      <trkpt lat="47.83242" lon="-3.53516">
        <ele>63</ele>
        <time>2019-07-15T10:23:35Z</time>
      </trkpt>
      <trkpt lat="47.83241" lon="-3.53514">
        <ele>63</ele>
        <time>2019-07-15T10:23:36Z</time>
      </trkpt>
      <trkpt lat="47.8324" lon="-3.53512">
        <ele>63</ele>
        <time>2019-07-15T10:23:37Z</time>
      </trkpt>
      <trkpt lat="47.8324" lon="-3.5351">
        <ele>62</ele>
        <time>2019-07-15T10:23:38Z</time>
      </trkpt>
      <trkpt lat="47.83239" lon="-3.53508">
        <ele>62</ele>
        <time>2019-07-15T10:23:39Z</time>
      </trkpt>
      <trkpt lat="47.83238" lon="-3.53506">
        <ele>62</ele>
        <time>2019-07-15T10:23:40Z</time>
      </trkpt>
      <trkpt lat="47.83237" lon="-3.53504">
        <ele>62</ele>
        <time>2019-07-15T10:23:41Z</time>
      </trkpt>
      <trkpt lat="47.83237" lon="-3.53502">
        <ele>62</ele>
        <time>2019-07-15T10:23:42Z</time>
      </trkpt>
      <trkpt lat="47.83237" lon="-3.53501">
        <ele>62</ele>
        <time>2019-07-15T10:23:43Z</time>
      </trkpt>
      <trkpt lat="47.83236" lon="-3.53499">
        <ele>62</ele>
        <time>2019-07-15T10:23:44Z</time>
      </trkpt>
      <trkpt lat="47.83235" lon="-3.53497">
        <ele>61</ele>
        <time>2019-07-15T10:23:45Z</time>
      </trkpt>
      <trkpt lat="47.83234" lon="-3.53494">
        <ele>61</ele>
        <time>2019-07-15T10:23:46Z</time>
      </trkpt>
      <trkpt lat="47.83234" lon="-3.53491">
        <ele>61</ele>
        <time>2019-07-15T10:23:47Z</time>
      </trkpt>
      <trkpt lat="47.83233" lon="-3.53488">
        <ele>61</ele>
        <time>2019-07-15T10:23:48Z</time>
      </trkpt>
      <trkpt lat="47.83232" lon="-3.53485">
        <ele>60</ele>
        <time>2019-07-15T10:23:49Z</time>
      </trkpt>
      <trkpt lat="47.83232" lon="-3.53481">
        <ele>60</ele>
        <time>2019-07-15T10:23:50Z</time>
      </trkpt>
      <trkpt lat="47.83231" lon="-3.53478">
        <ele>60</ele>
        <time>2019-07-15T10:23:51Z</time>
      </trkpt>
      <trkpt lat="47.8323" lon="-3.53475">
        <ele>60</ele>
        <time>2019-07-15T10:23:52Z</time>
      </trkpt>
      <trkpt lat="47.83229" lon="-3.53472">
        <ele>60</ele>
        <time>2019-07-15T10:23:53Z</time>
      </trkpt>
      <trkpt lat="47.83227" lon="-3.53469">
        <ele>60</ele>
        <time>2019-07-15T10:23:54Z</time>
      </trkpt>
      <trkpt lat="47.83224" lon="-3.53466">
        <ele>59</ele>
        <time>2019-07-15T10:23:55Z</time>
      </trkpt>
      <trkpt lat="47.83223" lon="-3.53463">
        <ele>59</ele>
        <time>2019-07-15T10:23:56Z</time>
      </trkpt>
      <trkpt lat="47.83221" lon="-3.5346">
        <ele>59</ele>
        <time>2019-07-15T10:23:57Z</time>
      </trkpt>
      <trkpt lat="47.83219" lon="-3.53456">
        <ele>59</ele>
        <time>2019-07-15T10:23:58Z</time>
      </trkpt>
      <trkpt lat="47.83218" lon="-3.53453">
        <ele>59</ele>
        <time>2019-07-15T10:23:59Z</time>
      </trkpt>
      <trkpt lat="47.83217" lon="-3.5345">
        <ele>59</ele>
        <time>2019-07-15T10:24:00Z</time>
      </trkpt>
      <trkpt lat="47.83216" lon="-3.53447">
        <ele>59</ele>
        <time>2019-07-15T10:24:01Z</time>
      </trkpt>
      <trkpt lat="47.83215" lon="-3.53444">
        <ele>59</ele>
        <time>2019-07-15T10:24:02Z</time>
      </trkpt>
      <trkpt lat="47.83214" lon="-3.53441">
        <ele>59</ele>
        <time>2019-07-15T10:24:03Z</time>
      </trkpt>
      <trkpt lat="47.83212" lon="-3.53438">
        <ele>59</ele>
        <time>2019-07-15T10:24:04Z</time>
      </trkpt>
      <trkpt lat="47.83211" lon="-3.53435">
        <ele>60</ele>
        <time>2019-07-15T10:24:05Z</time>
      </trkpt>
      <trkpt lat="47.8321" lon="-3.53431">
        <ele>60</ele>
        <time>2019-07-15T10:24:06Z</time>
      </trkpt>
      <trkpt lat="47.83208" lon="-3.53428">
        <ele>60</ele>
        <time>2019-07-15T10:24:07Z</time>
      </trkpt>
      <trkpt lat="47.83207" lon="-3.53426">
        <ele>60</ele>
        <time>2019-07-15T10:24:08Z</time>
      </trkpt>
      <trkpt lat="47.83206" lon="-3.53424">
        <ele>60</ele>
        <time>2019-07-15T10:24:09Z</time>
      </trkpt>
      <trkpt lat="47.83205" lon="-3.53423">
        <ele>60</ele>
        <time>2019-07-15T10:24:10Z</time>
      </trkpt>
      <trkpt lat="47.83205" lon="-3.53423">
        <ele>60</ele>
        <time>2019-07-15T10:24:11Z</time>
      </trkpt>
      <trkpt lat="47.83205" lon="-3.53422">
        <ele>60</ele>
        <time>2019-07-15T10:24:12Z</time>
      </trkpt>
      <trkpt lat="47.83204" lon="-3.53421">
        <ele>61</ele>
        <time>2019-07-15T10:24:13Z</time>
      </trkpt>
      <trkpt lat="47.83204" lon="-3.53421">
        <ele>61</ele>
        <time>2019-07-15T10:24:14Z</time>
      </trkpt>
      <trkpt lat="47.83206" lon="-3.53424">
        <ele>61</ele>
        <time>2019-07-15T10:24:15Z</time>
      </trkpt>
      <trkpt lat="47.83208" lon="-3.53425">
        <ele>61</ele>
        <time>2019-07-15T10:24:16Z</time>
      </trkpt>
      <trkpt lat="47.83208" lon="-3.53426">
        <ele>61</ele>
        <time>2019-07-15T10:24:17Z</time>
      </trkpt>
      <trkpt lat="47.83208" lon="-3.53427">
        <ele>61</ele>
        <time>2019-07-15T10:24:18Z</time>
      </trkpt>
      <trkpt lat="47.83208" lon="-3.53427">
        <ele>60</ele>
        <time>2019-07-15T10:24:19Z</time>
      </trkpt>
      <trkpt lat="47.83209" lon="-3.53434">
        <ele>60</ele>
        <time>2019-07-15T10:24:20Z</time>
      </trkpt>
      <trkpt lat="47.8321" lon="-3.53435">
        <ele>60</ele>
        <time>2019-07-15T10:24:21Z</time>
      </trkpt>
      <trkpt lat="47.83212" lon="-3.53436">
        <ele>60</ele>
        <time>2019-07-15T10:24:22Z</time>
      </trkpt>
      <trkpt lat="47.83213" lon="-3.53437">
        <ele>60</ele>
        <time>2019-07-15T10:24:23Z</time>
      </trkpt>
      <trkpt lat="47.83214" lon="-3.53439">
        <ele>60</ele>
        <time>2019-07-15T10:24:24Z</time>
      </trkpt>
      <trkpt lat="47.83216" lon="-3.53441">
        <ele>60</ele>
        <time>2019-07-15T10:24:25Z</time>
      </trkpt>
      <trkpt lat="47.83218" lon="-3.53443">
        <ele>60</ele>
        <time>2019-07-15T10:24:26Z</time>
      </trkpt>
      <trkpt lat="47.8322" lon="-3.53445">
        <ele>60</ele>
        <time>2019-07-15T10:24:27Z</time>
      </trkpt>
      <trkpt lat="47.83223" lon="-3.53447">
        <ele>60</ele>
        <time>2019-07-15T10:24:28Z</time>
      </trkpt>
      <trkpt lat="47.83226" lon="-3.53449">
        <ele>60</ele>
        <time>2019-07-15T10:24:29Z</time>
      </trkpt>
      <trkpt lat="47.83229" lon="-3.5345">
        <ele>60</ele>
        <time>2019-07-15T10:24:30Z</time>
      </trkpt>
      <trkpt lat="47.83231" lon="-3.53453">
        <ele>60</ele>
        <time>2019-07-15T10:24:31Z</time>
      </trkpt>
      <trkpt lat="47.83234" lon="-3.53455">
        <ele>60</ele>
        <time>2019-07-15T10:24:32Z</time>
      </trkpt>
      <trkpt lat="47.83238" lon="-3.53457">
        <ele>60</ele>
        <time>2019-07-15T10:24:33Z</time>
      </trkpt>
      <trkpt lat="47.83241" lon="-3.5346">
        <ele>59</ele>
        <time>2019-07-15T10:24:34Z</time>
      </trkpt>
      <trkpt lat="47.83244" lon="-3.53461">
        <ele>59</ele>
        <time>2019-07-15T10:24:35Z</time>
      </trkpt>
      <trkpt lat="47.83246" lon="-3.53463">
        <ele>59</ele>
        <time>2019-07-15T10:24:36Z</time>
      </trkpt>
      <trkpt lat="47.83249" lon="-3.53464">
        <ele>59</ele>
        <time>2019-07-15T10:24:37Z</time>
      </trkpt>
      <trkpt lat="47.83252" lon="-3.53466">
        <ele>59</ele>
        <time>2019-07-15T10:24:38Z</time>
      </trkpt>
      <trkpt lat="47.83255" lon="-3.53468">
        <ele>59</ele>
        <time>2019-07-15T10:24:39Z</time>
      </trkpt>
      <trkpt lat="47.83258" lon="-3.53469">
        <ele>59</ele>
        <time>2019-07-15T10:24:40Z</time>
      </trkpt>
      <trkpt lat="47.83262" lon="-3.53471">
        <ele>59</ele>
        <time>2019-07-15T10:24:41Z</time>
      </trkpt>
      <trkpt lat="47.83266" lon="-3.53473">
        <ele>59</ele>
        <time>2019-07-15T10:24:42Z</time>
      </trkpt>
      <trkpt lat="47.8327" lon="-3.53475">
        <ele>58</ele>
        <time>2019-07-15T10:24:43Z</time>
      </trkpt>
      <trkpt lat="47.83274" lon="-3.53477">
        <ele>58</ele>
        <time>2019-07-15T10:24:44Z</time>
      </trkpt>
      <trkpt lat="47.83279" lon="-3.5348">
        <ele>58</ele>
        <time>2019-07-15T10:24:45Z</time>
      </trkpt>
      <trkpt lat="47.83283" lon="-3.53483">
        <ele>58</ele>
        <time>2019-07-15T10:24:46Z</time>
      </trkpt>
      <trkpt lat="47.83286" lon="-3.53486">
        <ele>58</ele>
        <time>2019-07-15T10:24:47Z</time>
      </trkpt>
      <trkpt lat="47.83288" lon="-3.53488">
        <ele>57</ele>
        <time>2019-07-15T10:24:48Z</time>
      </trkpt>
      <trkpt lat="47.8329" lon="-3.5349">
        <ele>57</ele>
        <time>2019-07-15T10:24:49Z</time>
      </trkpt>
      <trkpt lat="47.83291" lon="-3.53491">
        <ele>57</ele>
        <time>2019-07-15T10:24:50Z</time>
      </trkpt>
      <trkpt lat="47.83292" lon="-3.53493">
        <ele>57</ele>
        <time>2019-07-15T10:24:51Z</time>
      </trkpt>
      <trkpt lat="47.83293" lon="-3.53494">
        <ele>56</ele>
        <time>2019-07-15T10:24:52Z</time>
      </trkpt>
      <trkpt lat="47.83295" lon="-3.53496">
        <ele>56</ele>
        <time>2019-07-15T10:24:53Z</time>
      </trkpt>
      <trkpt lat="47.83297" lon="-3.53497">
        <ele>56</ele>
        <time>2019-07-15T10:24:54Z</time>
      </trkpt>
      <trkpt lat="47.83299" lon="-3.53499">
        <ele>55</ele>
        <time>2019-07-15T10:24:55Z</time>
      </trkpt>
      <trkpt lat="47.83303" lon="-3.53502">
        <ele>55</ele>
        <time>2019-07-15T10:24:56Z</time>
      </trkpt>
      <trkpt lat="47.83307" lon="-3.53504">
        <ele>55</ele>
        <time>2019-07-15T10:24:57Z</time>
      </trkpt>
      <trkpt lat="47.83311" lon="-3.53507">
        <ele>54</ele>
        <time>2019-07-15T10:24:58Z</time>
      </trkpt>
      <trkpt lat="47.83314" lon="-3.5351">
        <ele>54</ele>
        <time>2019-07-15T10:24:59Z</time>
      </trkpt>
      <trkpt lat="47.83317" lon="-3.53512">
        <ele>53</ele>
        <time>2019-07-15T10:25:00Z</time>
      </trkpt>
      <trkpt lat="47.8332" lon="-3.53513">
        <ele>53</ele>
        <time>2019-07-15T10:25:01Z</time>
      </trkpt>
      <trkpt lat="47.83321" lon="-3.53514">
        <ele>53</ele>
        <time>2019-07-15T10:25:02Z</time>
      </trkpt>
      <trkpt lat="47.83321" lon="-3.53516">
        <ele>52</ele>
        <time>2019-07-15T10:25:03Z</time>
      </trkpt>
      <trkpt lat="47.83321" lon="-3.53517">
        <ele>52</ele>
        <time>2019-07-15T10:25:04Z</time>
      </trkpt>
      <trkpt lat="47.83322" lon="-3.53518">
        <ele>52</ele>
        <time>2019-07-15T10:25:05Z</time>
      </trkpt>
      <trkpt lat="47.83324" lon="-3.53519">
        <ele>51</ele>
        <time>2019-07-15T10:25:06Z</time>
      </trkpt>
      <trkpt lat="47.83324" lon="-3.5352">
        <ele>51</ele>
        <time>2019-07-15T10:25:07Z</time>
      </trkpt>
      <trkpt lat="47.83326" lon="-3.53521">
        <ele>51</ele>
        <time>2019-07-15T10:25:08Z</time>
      </trkpt>
      <trkpt lat="47.83326" lon="-3.53522">
        <ele>51</ele>
        <time>2019-07-15T10:25:09Z</time>
      </trkpt>
      <trkpt lat="47.83327" lon="-3.53522">
        <ele>51</ele>
        <time>2019-07-15T10:25:10Z</time>
      </trkpt>
      <trkpt lat="47.83328" lon="-3.53523">
        <ele>51</ele>
        <time>2019-07-15T10:25:11Z</time>
      </trkpt>
      <trkpt lat="47.83329" lon="-3.53524">
        <ele>51</ele>
        <time>2019-07-15T10:25:12Z</time>
      </trkpt>
      <trkpt lat="47.8333" lon="-3.53524">
        <ele>50</ele>
        <time>2019-07-15T10:25:13Z</time>
      </trkpt>
      <trkpt lat="47.83331" lon="-3.53524">
        <ele>50</ele>
        <time>2019-07-15T10:25:14Z</time>
      </trkpt>
      <trkpt lat="47.83331" lon="-3.53525">
        <ele>50</ele>
        <time>2019-07-15T10:25:15Z</time>
      </trkpt>
      <trkpt lat="47.83332" lon="-3.53525">
        <ele>50</ele>
        <time>2019-07-15T10:25:16Z</time>
      </trkpt>
      <trkpt lat="47.83337" lon="-3.53531">
        <ele>50</ele>
        <time>2019-07-15T10:25:17Z</time>
      </trkpt>
      <trkpt lat="47.83339" lon="-3.53532">
        <ele>50</ele>
        <time>2019-07-15T10:25:18Z</time>
      </trkpt>
      <trkpt lat="47.8334" lon="-3.53533">
        <ele>50</ele>
        <time>2019-07-15T10:25:19Z</time>
      </trkpt>
      <trkpt lat="47.83341" lon="-3.53535">
        <ele>50</ele>
        <time>2019-07-15T10:25:20Z</time>
      </trkpt>
      <trkpt lat="47.83343" lon="-3.53536">
        <ele>50</ele>
        <time>2019-07-15T10:25:21Z</time>
      </trkpt>
      <trkpt lat="47.83345" lon="-3.53537">
        <ele>49</ele>
        <time>2019-07-15T10:25:22Z</time>
      </trkpt>
      <trkpt lat="47.83347" lon="-3.53538">
        <ele>49</ele>
        <time>2019-07-15T10:25:23Z</time>
      </trkpt>
      <trkpt lat="47.83349" lon="-3.53539">
        <ele>49</ele>
        <time>2019-07-15T10:25:24Z</time>
      </trkpt>
      <trkpt lat="47.83351" lon="-3.53541">
        <ele>49</ele>
        <time>2019-07-15T10:25:25Z</time>
      </trkpt>
      <trkpt lat="47.83353" lon="-3.53542">
        <ele>49</ele>
        <time>2019-07-15T10:25:26Z</time>
      </trkpt>
      <trkpt lat="47.83354" lon="-3.53543">
        <ele>49</ele>
        <time>2019-07-15T10:25:27Z</time>
      </trkpt>
      <trkpt lat="47.83356" lon="-3.53544">
        <ele>48</ele>
        <time>2019-07-15T10:25:28Z</time>
      </trkpt>
      <trkpt lat="47.83358" lon="-3.53546">
        <ele>48</ele>
        <time>2019-07-15T10:25:29Z</time>
      </trkpt>
      <trkpt lat="47.83359" lon="-3.53547">
        <ele>48</ele>
        <time>2019-07-15T10:25:30Z</time>
      </trkpt>
      <trkpt lat="47.8336" lon="-3.53548">
        <ele>48</ele>
        <time>2019-07-15T10:25:31Z</time>
      </trkpt>
      <trkpt lat="47.83362" lon="-3.53549">
        <ele>48</ele>
        <time>2019-07-15T10:25:32Z</time>
      </trkpt>
      <trkpt lat="47.83363" lon="-3.5355">
        <ele>48</ele>
        <time>2019-07-15T10:25:33Z</time>
      </trkpt>
      <trkpt lat="47.83365" lon="-3.53551">
        <ele>47</ele>
        <time>2019-07-15T10:25:34Z</time>
      </trkpt>
      <trkpt lat="47.83366" lon="-3.53552">
        <ele>47</ele>
        <time>2019-07-15T10:25:35Z</time>
      </trkpt>
      <trkpt lat="47.83368" lon="-3.53553">
        <ele>47</ele>
        <time>2019-07-15T10:25:36Z</time>
      </trkpt>
      <trkpt lat="47.8337" lon="-3.53553">
        <ele>47</ele>
        <time>2019-07-15T10:25:37Z</time>
      </trkpt>
      <trkpt lat="47.83372" lon="-3.53554">
        <ele>47</ele>
        <time>2019-07-15T10:25:38Z</time>
      </trkpt>
      <trkpt lat="47.83373" lon="-3.53554">
        <ele>46</ele>
        <time>2019-07-15T10:25:39Z</time>
      </trkpt>
      <trkpt lat="47.83375" lon="-3.53555">
        <ele>46</ele>
        <time>2019-07-15T10:25:40Z</time>
      </trkpt>
      <trkpt lat="47.83376" lon="-3.53555">
        <ele>46</ele>
        <time>2019-07-15T10:25:41Z</time>
      </trkpt>
      <trkpt lat="47.83378" lon="-3.53555">
        <ele>46</ele>
        <time>2019-07-15T10:25:42Z</time>
      </trkpt>
      <trkpt lat="47.8338" lon="-3.53556">
        <ele>45</ele>
        <time>2019-07-15T10:25:43Z</time>
      </trkpt>
      <trkpt lat="47.83382" lon="-3.53557">
        <ele>45</ele>
        <time>2019-07-15T10:25:44Z</time>
      </trkpt>
      <trkpt lat="47.83384" lon="-3.53558">
        <ele>45</ele>
        <time>2019-07-15T10:25:45Z</time>
      </trkpt>
      <trkpt lat="47.83386" lon="-3.53558">
        <ele>44</ele>
        <time>2019-07-15T10:25:46Z</time>
      </trkpt>
      <trkpt lat="47.83389" lon="-3.53559">
        <ele>44</ele>
        <time>2019-07-15T10:25:47Z</time>
      </trkpt>
      <trkpt lat="47.83391" lon="-3.53559">
        <ele>44</ele>
        <time>2019-07-15T10:25:48Z</time>
      </trkpt>
      <trkpt lat="47.83392" lon="-3.5356">
        <ele>43</ele>
        <time>2019-07-15T10:25:49Z</time>
      </trkpt>
      <trkpt lat="47.83394" lon="-3.53561">
        <ele>43</ele>
        <time>2019-07-15T10:25:50Z</time>
      </trkpt>
      <trkpt lat="47.83397" lon="-3.53561">
        <ele>43</ele>
        <time>2019-07-15T10:25:51Z</time>
      </trkpt>
      <trkpt lat="47.83399" lon="-3.53561">
        <ele>43</ele>
        <time>2019-07-15T10:25:52Z</time>
      </trkpt>
      <trkpt lat="47.83401" lon="-3.53561">
        <ele>42</ele>
        <time>2019-07-15T10:25:53Z</time>
      </trkpt>
      <trkpt lat="47.83403" lon="-3.53562">
        <ele>42</ele>
        <time>2019-07-15T10:25:54Z</time>
      </trkpt>
      <trkpt lat="47.83404" lon="-3.53562">
        <ele>42</ele>
        <time>2019-07-15T10:25:55Z</time>
      </trkpt>
      <trkpt lat="47.83406" lon="-3.53562">
        <ele>41</ele>
        <time>2019-07-15T10:25:56Z</time>
      </trkpt>
      <trkpt lat="47.83408" lon="-3.53563">
        <ele>41</ele>
        <time>2019-07-15T10:25:57Z</time>
      </trkpt>
      <trkpt lat="47.8341" lon="-3.53564">
        <ele>40</ele>
        <time>2019-07-15T10:25:58Z</time>
      </trkpt>
      <trkpt lat="47.83411" lon="-3.53564">
        <ele>39</ele>
        <time>2019-07-15T10:25:59Z</time>
      </trkpt>
      <trkpt lat="47.83413" lon="-3.53564">
        <ele>39</ele>
        <time>2019-07-15T10:26:00Z</time>
      </trkpt>
      <trkpt lat="47.83415" lon="-3.53564">
        <ele>38</ele>
        <time>2019-07-15T10:26:01Z</time>
      </trkpt>
      <trkpt lat="47.83417" lon="-3.53564">
        <ele>38</ele>
        <time>2019-07-15T10:26:02Z</time>
      </trkpt>
      <trkpt lat="47.83419" lon="-3.53564">
        <ele>37</ele>
        <time>2019-07-15T10:26:03Z</time>
      </trkpt>
      <trkpt lat="47.83421" lon="-3.53565">
        <ele>36</ele>
        <time>2019-07-15T10:26:04Z</time>
      </trkpt>
      <trkpt lat="47.83422" lon="-3.53565">
        <ele>36</ele>
        <time>2019-07-15T10:26:05Z</time>
      </trkpt>
      <trkpt lat="47.83424" lon="-3.53565">
        <ele>35</ele>
        <time>2019-07-15T10:26:06Z</time>
      </trkpt>
      <trkpt lat="47.83426" lon="-3.53566">
        <ele>34</ele>
        <time>2019-07-15T10:26:07Z</time>
      </trkpt>
      <trkpt lat="47.83428" lon="-3.53566">
        <ele>34</ele>
        <time>2019-07-15T10:26:08Z</time>
      </trkpt>
      <trkpt lat="47.83429" lon="-3.53567">
        <ele>33</ele>
        <time>2019-07-15T10:26:09Z</time>
      </trkpt>
      <trkpt lat="47.83431" lon="-3.53568">
        <ele>32</ele>
        <time>2019-07-15T10:26:10Z</time>
      </trkpt>
      <trkpt lat="47.83432" lon="-3.53569">
        <ele>32</ele>
        <time>2019-07-15T10:26:11Z</time>
      </trkpt>
      <trkpt lat="47.83433" lon="-3.53571">
        <ele>31</ele>
        <time>2019-07-15T10:26:12Z</time>
      </trkpt>
      <trkpt lat="47.83434" lon="-3.53572">
        <ele>30</ele>
        <time>2019-07-15T10:26:13Z</time>
      </trkpt>
      <trkpt lat="47.83436" lon="-3.53573">
        <ele>30</ele>
        <time>2019-07-15T10:26:14Z</time>
      </trkpt>
      <trkpt lat="47.83437" lon="-3.53574">
        <ele>29</ele>
        <time>2019-07-15T10:26:15Z</time>
      </trkpt>
      <trkpt lat="47.83439" lon="-3.53574">
        <ele>29</ele>
        <time>2019-07-15T10:26:16Z</time>
      </trkpt>
      <trkpt lat="47.83441" lon="-3.53574">
        <ele>28</ele>
        <time>2019-07-15T10:26:17Z</time>
      </trkpt>
      <trkpt lat="47.83442" lon="-3.53574">
        <ele>28</ele>
        <time>2019-07-15T10:26:18Z</time>
      </trkpt>
      <trkpt lat="47.83443" lon="-3.53574">
        <ele>27</ele>
        <time>2019-07-15T10:26:19Z</time>
      </trkpt>
      <trkpt lat="47.83444" lon="-3.53575">
        <ele>27</ele>
        <time>2019-07-15T10:26:20Z</time>
      </trkpt>
      <trkpt lat="47.83445" lon="-3.53575">
        <ele>26</ele>
        <time>2019-07-15T10:26:21Z</time>
      </trkpt>
      <trkpt lat="47.83445" lon="-3.53575">
        <ele>26</ele>
        <time>2019-07-15T10:26:22Z</time>
      </trkpt>
      <trkpt lat="47.83446" lon="-3.53575">
        <ele>25</ele>
        <time>2019-07-15T10:26:23Z</time>
      </trkpt>
      <trkpt lat="47.83453" lon="-3.53573">
        <ele>23</ele>
        <time>2019-07-15T10:26:24Z</time>
      </trkpt>
      <trkpt lat="47.83455" lon="-3.53572">
        <ele>22</ele>
        <time>2019-07-15T10:26:25Z</time>
      </trkpt>
      <trkpt lat="47.83457" lon="-3.53572">
        <ele>22</ele>
        <time>2019-07-15T10:26:26Z</time>
      </trkpt>
      <trkpt lat="47.83459" lon="-3.5357">
        <ele>22</ele>
        <time>2019-07-15T10:26:27Z</time>
      </trkpt>
      <trkpt lat="47.83461" lon="-3.53568">
        <ele>22</ele>
        <time>2019-07-15T10:26:28Z</time>
      </trkpt>
      <trkpt lat="47.83463" lon="-3.53566">
        <ele>22</ele>
        <time>2019-07-15T10:26:29Z</time>
      </trkpt>
      <trkpt lat="47.83465" lon="-3.53564">
        <ele>21</ele>
        <time>2019-07-15T10:26:30Z</time>
      </trkpt>
      <trkpt lat="47.83467" lon="-3.53561">
        <ele>21</ele>
        <time>2019-07-15T10:26:31Z</time>
      </trkpt>
      <trkpt lat="47.83469" lon="-3.53558">
        <ele>21</ele>
        <time>2019-07-15T10:26:32Z</time>
      </trkpt>
      <trkpt lat="47.83471" lon="-3.53555">
        <ele>21</ele>
        <time>2019-07-15T10:26:33Z</time>
      </trkpt>
      <trkpt lat="47.83473" lon="-3.53551">
        <ele>21</ele>
        <time>2019-07-15T10:26:34Z</time>
      </trkpt>
      <trkpt lat="47.83474" lon="-3.53546">
        <ele>20</ele>
        <time>2019-07-15T10:26:35Z</time>
      </trkpt>
      <trkpt lat="47.83475" lon="-3.53541">
        <ele>20</ele>
        <time>2019-07-15T10:26:36Z</time>
      </trkpt>
      <trkpt lat="47.83476" lon="-3.53536">
        <ele>20</ele>
        <time>2019-07-15T10:26:37Z</time>
      </trkpt>
      <trkpt lat="47.83477" lon="-3.53532">
        <ele>19</ele>
        <time>2019-07-15T10:26:38Z</time>
      </trkpt>
      <trkpt lat="47.83479" lon="-3.53527">
        <ele>19</ele>
        <time>2019-07-15T10:26:39Z</time>
      </trkpt>
      <trkpt lat="47.8348" lon="-3.53522">
        <ele>19</ele>
        <time>2019-07-15T10:26:40Z</time>
      </trkpt>
      <trkpt lat="47.83481" lon="-3.53516">
        <ele>18</ele>
        <time>2019-07-15T10:26:41Z</time>
      </trkpt>
      <trkpt lat="47.83483" lon="-3.53511">
        <ele>18</ele>
        <time>2019-07-15T10:26:42Z</time>
      </trkpt>
      <trkpt lat="47.83484" lon="-3.53506">
        <ele>18</ele>
        <time>2019-07-15T10:26:43Z</time>
      </trkpt>
      <trkpt lat="47.83485" lon="-3.535">
        <ele>17</ele>
        <time>2019-07-15T10:26:44Z</time>
      </trkpt>
      <trkpt lat="47.83486" lon="-3.53495">
        <ele>17</ele>
        <time>2019-07-15T10:26:45Z</time>
      </trkpt>
      <trkpt lat="47.83488" lon="-3.53489">
        <ele>17</ele>
        <time>2019-07-15T10:26:46Z</time>
      </trkpt>
      <trkpt lat="47.83489" lon="-3.53484">
        <ele>17</ele>
        <time>2019-07-15T10:26:47Z</time>
      </trkpt>
      <trkpt lat="47.8349" lon="-3.53479">
        <ele>17</ele>
        <time>2019-07-15T10:26:48Z</time>
      </trkpt>
      <trkpt lat="47.83491" lon="-3.53473">
        <ele>17</ele>
        <time>2019-07-15T10:26:49Z</time>
      </trkpt>
      <trkpt lat="47.83493" lon="-3.53467">
        <ele>17</ele>
        <time>2019-07-15T10:26:50Z</time>
      </trkpt>
      <trkpt lat="47.83494" lon="-3.53461">
        <ele>17</ele>
        <time>2019-07-15T10:26:51Z</time>
      </trkpt>
      <trkpt lat="47.83495" lon="-3.53456">
        <ele>16</ele>
        <time>2019-07-15T10:26:52Z</time>
      </trkpt>
      <trkpt lat="47.83497" lon="-3.5345">
        <ele>16</ele>
        <time>2019-07-15T10:26:53Z</time>
      </trkpt>
      <trkpt lat="47.83498" lon="-3.53445">
        <ele>17</ele>
        <time>2019-07-15T10:26:54Z</time>
      </trkpt>
      <trkpt lat="47.83499" lon="-3.5344">
        <ele>17</ele>
        <time>2019-07-15T10:26:55Z</time>
      </trkpt>
      <trkpt lat="47.835" lon="-3.53434">
        <ele>17</ele>
        <time>2019-07-15T10:26:56Z</time>
      </trkpt>
      <trkpt lat="47.83501" lon="-3.53429">
        <ele>17</ele>
        <time>2019-07-15T10:26:57Z</time>
      </trkpt>
      <trkpt lat="47.83503" lon="-3.53424">
        <ele>17</ele>
        <time>2019-07-15T10:26:58Z</time>
      </trkpt>
      <trkpt lat="47.83505" lon="-3.5342">
        <ele>17</ele>
        <time>2019-07-15T10:26:59Z</time>
      </trkpt>
      <trkpt lat="47.83507" lon="-3.53416">
        <ele>17</ele>
        <time>2019-07-15T10:27:00Z</time>
      </trkpt>
      <trkpt lat="47.8351" lon="-3.53412">
        <ele>18</ele>
        <time>2019-07-15T10:27:01Z</time>
      </trkpt>
      <trkpt lat="47.83512" lon="-3.53409">
        <ele>18</ele>
        <time>2019-07-15T10:27:02Z</time>
      </trkpt>
      <trkpt lat="47.83515" lon="-3.53407">
        <ele>18</ele>
        <time>2019-07-15T10:27:03Z</time>
      </trkpt>
      <trkpt lat="47.83518" lon="-3.53403">
        <ele>18</ele>
        <time>2019-07-15T10:27:04Z</time>
      </trkpt>
      <trkpt lat="47.8352" lon="-3.534">
        <ele>19</ele>
        <time>2019-07-15T10:27:05Z</time>
      </trkpt>
      <trkpt lat="47.83523" lon="-3.53397">
        <ele>19</ele>
        <time>2019-07-15T10:27:06Z</time>
      </trkpt>
      <trkpt lat="47.83526" lon="-3.53394">
        <ele>19</ele>
        <time>2019-07-15T10:27:07Z</time>
      </trkpt>
      <trkpt lat="47.83529" lon="-3.53392">
        <ele>19</ele>
        <time>2019-07-15T10:27:08Z</time>
      </trkpt>
      <trkpt lat="47.83532" lon="-3.5339">
        <ele>20</ele>
        <time>2019-07-15T10:27:09Z</time>
      </trkpt>
      <trkpt lat="47.83535" lon="-3.53388">
        <ele>20</ele>
        <time>2019-07-15T10:27:10Z</time>
      </trkpt>
      <trkpt lat="47.83538" lon="-3.53385">
        <ele>20</ele>
        <time>2019-07-15T10:27:11Z</time>
      </trkpt>
      <trkpt lat="47.8354" lon="-3.53383">
        <ele>20</ele>
        <time>2019-07-15T10:27:12Z</time>
      </trkpt>
      <trkpt lat="47.83543" lon="-3.53381">
        <ele>20</ele>
        <time>2019-07-15T10:27:13Z</time>
      </trkpt>
      <trkpt lat="47.83547" lon="-3.53378">
        <ele>21</ele>
        <time>2019-07-15T10:27:14Z</time>
      </trkpt>
      <trkpt lat="47.8355" lon="-3.53376">
        <ele>21</ele>
        <time>2019-07-15T10:27:15Z</time>
      </trkpt>
      <trkpt lat="47.83553" lon="-3.53374">
        <ele>21</ele>
        <time>2019-07-15T10:27:16Z</time>
      </trkpt>
      <trkpt lat="47.83555" lon="-3.53372">
        <ele>21</ele>
        <time>2019-07-15T10:27:17Z</time>
      </trkpt>
      <trkpt lat="47.83559" lon="-3.53371">
        <ele>22</ele>
        <time>2019-07-15T10:27:18Z</time>
      </trkpt>
      <trkpt lat="47.83562" lon="-3.5337">
        <ele>22</ele>
        <time>2019-07-15T10:27:19Z</time>
      </trkpt>
      <trkpt lat="47.83564" lon="-3.53369">
        <ele>22</ele>
        <time>2019-07-15T10:27:20Z</time>
      </trkpt>
      <trkpt lat="47.83567" lon="-3.53369">
        <ele>22</ele>
        <time>2019-07-15T10:27:21Z</time>
      </trkpt>
      <trkpt lat="47.83569" lon="-3.5337">
        <ele>22</ele>
        <time>2019-07-15T10:27:22Z</time>
      </trkpt>
      <trkpt lat="47.83572" lon="-3.5337">
        <ele>22</ele>
        <time>2019-07-15T10:27:23Z</time>
      </trkpt>
      <trkpt lat="47.83574" lon="-3.53372">
        <ele>22</ele>
        <time>2019-07-15T10:27:24Z</time>
      </trkpt>
      <trkpt lat="47.83577" lon="-3.53374">
        <ele>22</ele>
        <time>2019-07-15T10:27:25Z</time>
      </trkpt>
      <trkpt lat="47.83579" lon="-3.53378">
        <ele>23</ele>
        <time>2019-07-15T10:27:26Z</time>
      </trkpt>
      <trkpt lat="47.83582" lon="-3.53381">
        <ele>23</ele>
        <time>2019-07-15T10:27:27Z</time>
      </trkpt>
      <trkpt lat="47.83583" lon="-3.53384">
        <ele>23</ele>
        <time>2019-07-15T10:27:28Z</time>
      </trkpt>
      <trkpt lat="47.83585" lon="-3.53387">
        <ele>23</ele>
        <time>2019-07-15T10:27:29Z</time>
      </trkpt>
      <trkpt lat="47.83586" lon="-3.5339">
        <ele>23</ele>
        <time>2019-07-15T10:27:30Z</time>
      </trkpt>
      <trkpt lat="47.83588" lon="-3.53393">
        <ele>23</ele>
        <time>2019-07-15T10:27:31Z</time>
      </trkpt>
      <trkpt lat="47.83591" lon="-3.53396">
        <ele>23</ele>
        <time>2019-07-15T10:27:32Z</time>
      </trkpt>
      <trkpt lat="47.83593" lon="-3.534">
        <ele>23</ele>
        <time>2019-07-15T10:27:33Z</time>
      </trkpt>
      <trkpt lat="47.83596" lon="-3.53403">
        <ele>22</ele>
        <time>2019-07-15T10:27:34Z</time>
      </trkpt>
      <trkpt lat="47.836" lon="-3.53406">
        <ele>22</ele>
        <time>2019-07-15T10:27:35Z</time>
      </trkpt>
      <trkpt lat="47.83604" lon="-3.53409">
        <ele>22</ele>
        <time>2019-07-15T10:27:36Z</time>
      </trkpt>
      <trkpt lat="47.83608" lon="-3.53413">
        <ele>22</ele>
        <time>2019-07-15T10:27:37Z</time>
      </trkpt>
      <trkpt lat="47.83614" lon="-3.53419">
        <ele>22</ele>
        <time>2019-07-15T10:27:38Z</time>
      </trkpt>
      <trkpt lat="47.83618" lon="-3.53424">
        <ele>22</ele>
        <time>2019-07-15T10:27:39Z</time>
      </trkpt>
      <trkpt lat="47.83623" lon="-3.53429">
        <ele>22</ele>
        <time>2019-07-15T10:27:40Z</time>
      </trkpt>
      <trkpt lat="47.83627" lon="-3.53433">
        <ele>22</ele>
        <time>2019-07-15T10:27:41Z</time>
      </trkpt>
      <trkpt lat="47.83631" lon="-3.53437">
        <ele>22</ele>
        <time>2019-07-15T10:27:42Z</time>
      </trkpt>
      <trkpt lat="47.83634" lon="-3.53441">
        <ele>22</ele>
        <time>2019-07-15T10:27:43Z</time>
      </trkpt>
      <trkpt lat="47.83636" lon="-3.53444">
        <ele>23</ele>
        <time>2019-07-15T10:27:44Z</time>
      </trkpt>
      <trkpt lat="47.83638" lon="-3.53447">
        <ele>23</ele>
        <time>2019-07-15T10:27:45Z</time>
      </trkpt>
      <trkpt lat="47.8364" lon="-3.53451">
        <ele>23</ele>
        <time>2019-07-15T10:27:46Z</time>
      </trkpt>
      <trkpt lat="47.83642" lon="-3.53456">
        <ele>23</ele>
        <time>2019-07-15T10:27:47Z</time>
      </trkpt>
      <trkpt lat="47.83646" lon="-3.5346">
        <ele>23</ele>
        <time>2019-07-15T10:27:48Z</time>
      </trkpt>
      <trkpt lat="47.83651" lon="-3.53464">
        <ele>23</ele>
        <time>2019-07-15T10:27:49Z</time>
      </trkpt>
      <trkpt lat="47.83655" lon="-3.53467">
        <ele>23</ele>
        <time>2019-07-15T10:27:50Z</time>
      </trkpt>
      <trkpt lat="47.8366" lon="-3.53472">
        <ele>23</ele>
        <time>2019-07-15T10:27:51Z</time>
      </trkpt>
      <trkpt lat="47.83665" lon="-3.53477">
        <ele>23</ele>
        <time>2019-07-15T10:27:52Z</time>
      </trkpt>
      <trkpt lat="47.8367" lon="-3.53482">
        <ele>23</ele>
        <time>2019-07-15T10:27:53Z</time>
      </trkpt>
      <trkpt lat="47.83675" lon="-3.53487">
        <ele>24</ele>
        <time>2019-07-15T10:27:54Z</time>
      </trkpt>
      <trkpt lat="47.8368" lon="-3.53491">
        <ele>24</ele>
        <time>2019-07-15T10:27:55Z</time>
      </trkpt>
      <trkpt lat="47.83685" lon="-3.53496">
        <ele>24</ele>
        <time>2019-07-15T10:27:56Z</time>
      </trkpt>
      <trkpt lat="47.83688" lon="-3.535">
        <ele>24</ele>
        <time>2019-07-15T10:27:57Z</time>
      </trkpt>
      <trkpt lat="47.83693" lon="-3.53503">
        <ele>24</ele>
        <time>2019-07-15T10:27:58Z</time>
      </trkpt>
      <trkpt lat="47.83697" lon="-3.53507">
        <ele>24</ele>
        <time>2019-07-15T10:27:59Z</time>
      </trkpt>
      <trkpt lat="47.83703" lon="-3.5351">
        <ele>24</ele>
        <time>2019-07-15T10:28:00Z</time>
      </trkpt>
      <trkpt lat="47.83709" lon="-3.53514">
        <ele>24</ele>
        <time>2019-07-15T10:28:01Z</time>
      </trkpt>
      <trkpt lat="47.83716" lon="-3.53517">
        <ele>24</ele>
        <time>2019-07-15T10:28:02Z</time>
      </trkpt>
      <trkpt lat="47.83721" lon="-3.53519">
        <ele>24</ele>
        <time>2019-07-15T10:28:03Z</time>
      </trkpt>
      <trkpt lat="47.83725" lon="-3.5352">
        <ele>24</ele>
        <time>2019-07-15T10:28:04Z</time>
      </trkpt>
      <trkpt lat="47.83729" lon="-3.53522">
        <ele>23</ele>
        <time>2019-07-15T10:28:05Z</time>
      </trkpt>
      <trkpt lat="47.83733" lon="-3.53523">
        <ele>23</ele>
        <time>2019-07-15T10:28:06Z</time>
      </trkpt>
      <trkpt lat="47.83737" lon="-3.53524">
        <ele>23</ele>
        <time>2019-07-15T10:28:07Z</time>
      </trkpt>
      <trkpt lat="47.83742" lon="-3.53525">
        <ele>23</ele>
        <time>2019-07-15T10:28:08Z</time>
      </trkpt>
      <trkpt lat="47.83746" lon="-3.53525">
        <ele>23</ele>
        <time>2019-07-15T10:28:09Z</time>
      </trkpt>
      <trkpt lat="47.8375" lon="-3.53525">
        <ele>23</ele>
        <time>2019-07-15T10:28:10Z</time>
      </trkpt>
      <trkpt lat="47.83753" lon="-3.53525">
        <ele>23</ele>
        <time>2019-07-15T10:28:11Z</time>
      </trkpt>
      <trkpt lat="47.83757" lon="-3.53525">
        <ele>23</ele>
        <time>2019-07-15T10:28:12Z</time>
      </trkpt>
      <trkpt lat="47.8376" lon="-3.53525">
        <ele>23</ele>
        <time>2019-07-15T10:28:13Z</time>
      </trkpt>
      <trkpt lat="47.83763" lon="-3.53525">
        <ele>23</ele>
        <time>2019-07-15T10:28:14Z</time>
      </trkpt>
      <trkpt lat="47.83766" lon="-3.53524">
        <ele>23</ele>
        <time>2019-07-15T10:28:15Z</time>
      </trkpt>
      <trkpt lat="47.8377" lon="-3.53523">
        <ele>23</ele>
        <time>2019-07-15T10:28:16Z</time>
      </trkpt>
      <trkpt lat="47.83774" lon="-3.53522">
        <ele>23</ele>
        <time>2019-07-15T10:28:17Z</time>
      </trkpt>
      <trkpt lat="47.83778" lon="-3.53519">
        <ele>22</ele>
        <time>2019-07-15T10:28:18Z</time>
      </trkpt>
      <trkpt lat="47.83783" lon="-3.53515">
        <ele>22</ele>
        <time>2019-07-15T10:28:19Z</time>
      </trkpt>
      <trkpt lat="47.83787" lon="-3.5351">
        <ele>22</ele>
        <time>2019-07-15T10:28:20Z</time>
      </trkpt>
      <trkpt lat="47.83791" lon="-3.53505">
        <ele>22</ele>
        <time>2019-07-15T10:28:21Z</time>
      </trkpt>
      <trkpt lat="47.83795" lon="-3.53499">
        <ele>22</ele>
        <time>2019-07-15T10:28:22Z</time>
      </trkpt>
      <trkpt lat="47.83798" lon="-3.53494">
        <ele>22</ele>
        <time>2019-07-15T10:28:23Z</time>
      </trkpt>
      <trkpt lat="47.83801" lon="-3.53489">
        <ele>22</ele>
        <time>2019-07-15T10:28:24Z</time>
      </trkpt>
      <trkpt lat="47.83804" lon="-3.53483">
        <ele>22</ele>
        <time>2019-07-15T10:28:25Z</time>
      </trkpt>
      <trkpt lat="47.83807" lon="-3.53478">
        <ele>22</ele>
        <time>2019-07-15T10:28:26Z</time>
      </trkpt>
      <trkpt lat="47.83811" lon="-3.53472">
        <ele>22</ele>
        <time>2019-07-15T10:28:27Z</time>
      </trkpt>
      <trkpt lat="47.83814" lon="-3.53466">
        <ele>22</ele>
        <time>2019-07-15T10:28:28Z</time>
      </trkpt>
      <trkpt lat="47.83819" lon="-3.53458">
        <ele>22</ele>
        <time>2019-07-15T10:28:29Z</time>
      </trkpt>
      <trkpt lat="47.83824" lon="-3.53451">
        <ele>22</ele>
        <time>2019-07-15T10:28:30Z</time>
      </trkpt>
      <trkpt lat="47.83829" lon="-3.53444">
        <ele>22</ele>
        <time>2019-07-15T10:28:31Z</time>
      </trkpt>
      <trkpt lat="47.83834" lon="-3.53439">
        <ele>22</ele>
        <time>2019-07-15T10:28:32Z</time>
      </trkpt>
      <trkpt lat="47.83838" lon="-3.53432">
        <ele>22</ele>
        <time>2019-07-15T10:28:33Z</time>
      </trkpt>
      <trkpt lat="47.83842" lon="-3.53426">
        <ele>22</ele>
        <time>2019-07-15T10:28:34Z</time>
      </trkpt>
      <trkpt lat="47.83846" lon="-3.53417">
        <ele>22</ele>
        <time>2019-07-15T10:28:35Z</time>
      </trkpt>
      <trkpt lat="47.8385" lon="-3.53408">
        <ele>22</ele>
        <time>2019-07-15T10:28:36Z</time>
      </trkpt>
      <trkpt lat="47.83854" lon="-3.53399">
        <ele>22</ele>
        <time>2019-07-15T10:28:37Z</time>
      </trkpt>
      <trkpt lat="47.83858" lon="-3.53391">
        <ele>22</ele>
        <time>2019-07-15T10:28:38Z</time>
      </trkpt>
      <trkpt lat="47.83862" lon="-3.53383">
        <ele>22</ele>
        <time>2019-07-15T10:28:39Z</time>
      </trkpt>
      <trkpt lat="47.83866" lon="-3.53377">
        <ele>22</ele>
        <time>2019-07-15T10:28:40Z</time>
      </trkpt>
      <trkpt lat="47.8387" lon="-3.53372">
        <ele>21</ele>
        <time>2019-07-15T10:28:41Z</time>
      </trkpt>
      <trkpt lat="47.83874" lon="-3.53367">
        <ele>21</ele>
        <time>2019-07-15T10:28:42Z</time>
      </trkpt>
      <trkpt lat="47.83878" lon="-3.53363">
        <ele>21</ele>
        <time>2019-07-15T10:28:43Z</time>
      </trkpt>
      <trkpt lat="47.83882" lon="-3.53359">
        <ele>21</ele>
        <time>2019-07-15T10:28:44Z</time>
      </trkpt>
      <trkpt lat="47.83885" lon="-3.53356">
        <ele>21</ele>
        <time>2019-07-15T10:28:45Z</time>
      </trkpt>
      <trkpt lat="47.83889" lon="-3.53354">
        <ele>21</ele>
        <time>2019-07-15T10:28:46Z</time>
      </trkpt>
      <trkpt lat="47.83892" lon="-3.53351">
        <ele>21</ele>
        <time>2019-07-15T10:28:47Z</time>
      </trkpt>
      <trkpt lat="47.83895" lon="-3.53347">
        <ele>21</ele>
        <time>2019-07-15T10:28:48Z</time>
      </trkpt>
      <trkpt lat="47.83897" lon="-3.53342">
        <ele>21</ele>
        <time>2019-07-15T10:28:49Z</time>
      </trkpt>
      <trkpt lat="47.839" lon="-3.53338">
        <ele>21</ele>
        <time>2019-07-15T10:28:50Z</time>
      </trkpt>
      <trkpt lat="47.83901" lon="-3.53334">
        <ele>21</ele>
        <time>2019-07-15T10:28:51Z</time>
      </trkpt>
      <trkpt lat="47.83902" lon="-3.53331">
        <ele>21</ele>
        <time>2019-07-15T10:28:52Z</time>
      </trkpt>
      <trkpt lat="47.83904" lon="-3.53328">
        <ele>21</ele>
        <time>2019-07-15T10:28:53Z</time>
      </trkpt>
      <trkpt lat="47.83905" lon="-3.53323">
        <ele>21</ele>
        <time>2019-07-15T10:28:54Z</time>
      </trkpt>
      <trkpt lat="47.83907" lon="-3.53319">
        <ele>21</ele>
        <time>2019-07-15T10:28:55Z</time>
      </trkpt>
      <trkpt lat="47.83907" lon="-3.53314">
        <ele>21</ele>
        <time>2019-07-15T10:28:56Z</time>
      </trkpt>
      <trkpt lat="47.83908" lon="-3.53309">
        <ele>21</ele>
        <time>2019-07-15T10:28:57Z</time>
      </trkpt>
      <trkpt lat="47.83909" lon="-3.53305">
        <ele>22</ele>
        <time>2019-07-15T10:28:58Z</time>
      </trkpt>
      <trkpt lat="47.83909" lon="-3.533">
        <ele>22</ele>
        <time>2019-07-15T10:28:59Z</time>
      </trkpt>
      <trkpt lat="47.83909" lon="-3.53295">
        <ele>22</ele>
        <time>2019-07-15T10:29:00Z</time>
      </trkpt>
      <trkpt lat="47.83909" lon="-3.5329">
        <ele>22</ele>
        <time>2019-07-15T10:29:01Z</time>
      </trkpt>
      <trkpt lat="47.8391" lon="-3.53286">
        <ele>22</ele>
        <time>2019-07-15T10:29:02Z</time>
      </trkpt>
      <trkpt lat="47.8391" lon="-3.53282">
        <ele>22</ele>
        <time>2019-07-15T10:29:03Z</time>
      </trkpt>
      <trkpt lat="47.83911" lon="-3.53277">
        <ele>22</ele>
        <time>2019-07-15T10:29:04Z</time>
      </trkpt>
      <trkpt lat="47.83912" lon="-3.53273">
        <ele>23</ele>
        <time>2019-07-15T10:29:05Z</time>
      </trkpt>
      <trkpt lat="47.83912" lon="-3.53269">
        <ele>23</ele>
        <time>2019-07-15T10:29:06Z</time>
      </trkpt>
      <trkpt lat="47.83913" lon="-3.53265">
        <ele>23</ele>
        <time>2019-07-15T10:29:07Z</time>
      </trkpt>
      <trkpt lat="47.83914" lon="-3.5326">
        <ele>23</ele>
        <time>2019-07-15T10:29:08Z</time>
      </trkpt>
      <trkpt lat="47.83914" lon="-3.53257">
        <ele>23</ele>
        <time>2019-07-15T10:29:09Z</time>
      </trkpt>
      <trkpt lat="47.83914" lon="-3.53256">
        <ele>24</ele>
        <time>2019-07-15T10:29:10Z</time>
      </trkpt>
      <trkpt lat="47.83914" lon="-3.53255">
        <ele>24</ele>
        <time>2019-07-15T10:29:11Z</time>
      </trkpt>
      <trkpt lat="47.83915" lon="-3.53254">
        <ele>24</ele>
        <time>2019-07-15T10:29:12Z</time>
      </trkpt>
      <trkpt lat="47.83915" lon="-3.53254">
        <ele>24</ele>
        <time>2019-07-15T10:29:13Z</time>
      </trkpt>
      <trkpt lat="47.83911" lon="-3.53241">
        <ele>29</ele>
        <time>2019-07-15T10:29:14Z</time>
      </trkpt>
      <trkpt lat="47.83911" lon="-3.53239">
        <ele>29</ele>
        <time>2019-07-15T10:29:15Z</time>
      </trkpt>
      <trkpt lat="47.8391" lon="-3.53238">
        <ele>29</ele>
        <time>2019-07-15T10:29:16Z</time>
      </trkpt>
      <trkpt lat="47.8391" lon="-3.53237">
        <ele>30</ele>
        <time>2019-07-15T10:29:17Z</time>
      </trkpt>
      <trkpt lat="47.83911" lon="-3.53235">
        <ele>30</ele>
        <time>2019-07-15T10:29:18Z</time>
      </trkpt>
      <trkpt lat="47.83911" lon="-3.53233">
        <ele>30</ele>
        <time>2019-07-15T10:29:19Z</time>
      </trkpt>
      <trkpt lat="47.83912" lon="-3.53231">
        <ele>30</ele>
        <time>2019-07-15T10:29:20Z</time>
      </trkpt>
      <trkpt lat="47.83913" lon="-3.5323">
        <ele>31</ele>
        <time>2019-07-15T10:29:21Z</time>
      </trkpt>
      <trkpt lat="47.83914" lon="-3.53228">
        <ele>31</ele>
        <time>2019-07-15T10:29:22Z</time>
      </trkpt>
      <trkpt lat="47.83915" lon="-3.53226">
        <ele>31</ele>
        <time>2019-07-15T10:29:23Z</time>
      </trkpt>
      <trkpt lat="47.83916" lon="-3.53224">
        <ele>31</ele>
        <time>2019-07-15T10:29:24Z</time>
      </trkpt>
      <trkpt lat="47.83917" lon="-3.53223">
        <ele>31</ele>
        <time>2019-07-15T10:29:25Z</time>
      </trkpt>
      <trkpt lat="47.83917" lon="-3.53222">
        <ele>32</ele>
        <time>2019-07-15T10:29:26Z</time>
      </trkpt>
      <trkpt lat="47.83917" lon="-3.53222">
        <ele>32</ele>
        <time>2019-07-15T10:29:27Z</time>
      </trkpt>
      <trkpt lat="47.83917" lon="-3.53222">
        <ele>32</ele>
        <time>2019-07-15T10:29:28Z</time>
      </trkpt>
      <trkpt lat="47.83916" lon="-3.53221">
        <ele>32</ele>
        <time>2019-07-15T10:29:29Z</time>
      </trkpt>
      <trkpt lat="47.83918" lon="-3.53214">
        <ele>33</ele>
        <time>2019-07-15T10:29:30Z</time>
      </trkpt>
      <trkpt lat="47.83919" lon="-3.53214">
        <ele>33</ele>
        <time>2019-07-15T10:29:31Z</time>
      </trkpt>
      <trkpt lat="47.8392" lon="-3.53214">
        <ele>33</ele>
        <time>2019-07-15T10:29:32Z</time>
      </trkpt>
      <trkpt lat="47.83921" lon="-3.53213">
        <ele>33</ele>
        <time>2019-07-15T10:29:33Z</time>
      </trkpt>
      <trkpt lat="47.83924" lon="-3.53212">
        <ele>33</ele>
        <time>2019-07-15T10:29:34Z</time>
      </trkpt>
      <trkpt lat="47.83926" lon="-3.53211">
        <ele>33</ele>
        <time>2019-07-15T10:29:35Z</time>
      </trkpt>
      <trkpt lat="47.83929" lon="-3.5321">
        <ele>33</ele>
        <time>2019-07-15T10:29:36Z</time>
      </trkpt>
      <trkpt lat="47.83931" lon="-3.5321">
        <ele>33</ele>
        <time>2019-07-15T10:29:37Z</time>
      </trkpt>
      <trkpt lat="47.83935" lon="-3.5321">
        <ele>33</ele>
        <time>2019-07-15T10:29:38Z</time>
      </trkpt>
      <trkpt lat="47.83939" lon="-3.53211">
        <ele>33</ele>
        <time>2019-07-15T10:29:39Z</time>
      </trkpt>
      <trkpt lat="47.83944" lon="-3.53212">
        <ele>33</ele>
        <time>2019-07-15T10:29:40Z</time>
      </trkpt>
      <trkpt lat="47.8395" lon="-3.53214">
        <ele>33</ele>
        <time>2019-07-15T10:29:41Z</time>
      </trkpt>
      <trkpt lat="47.83956" lon="-3.53216">
        <ele>33</ele>
        <time>2019-07-15T10:29:42Z</time>
      </trkpt>
      <trkpt lat="47.83962" lon="-3.53218">
        <ele>33</ele>
        <time>2019-07-15T10:29:43Z</time>
      </trkpt>
      <trkpt lat="47.83968" lon="-3.53219">
        <ele>33</ele>
        <time>2019-07-15T10:29:44Z</time>
      </trkpt>
      <trkpt lat="47.83974" lon="-3.5322">
        <ele>33</ele>
        <time>2019-07-15T10:29:45Z</time>
      </trkpt>
      <trkpt lat="47.83979" lon="-3.53219">
        <ele>33</ele>
        <time>2019-07-15T10:29:46Z</time>
      </trkpt>
      <trkpt lat="47.83983" lon="-3.53215">
        <ele>33</ele>
        <time>2019-07-15T10:29:47Z</time>
      </trkpt>
      <trkpt lat="47.83986" lon="-3.5321">
        <ele>32</ele>
        <time>2019-07-15T10:29:48Z</time>
      </trkpt>
      <trkpt lat="47.83989" lon="-3.53204">
        <ele>32</ele>
        <time>2019-07-15T10:29:49Z</time>
      </trkpt>
      <trkpt lat="47.83992" lon="-3.53199">
        <ele>32</ele>
        <time>2019-07-15T10:29:50Z</time>
      </trkpt>
      <trkpt lat="47.83995" lon="-3.53193">
        <ele>32</ele>
        <time>2019-07-15T10:29:51Z</time>
      </trkpt>
      <trkpt lat="47.83998" lon="-3.53188">
        <ele>31</ele>
        <time>2019-07-15T10:29:52Z</time>
      </trkpt>
      <trkpt lat="47.84" lon="-3.53183">
        <ele>31</ele>
        <time>2019-07-15T10:29:53Z</time>
      </trkpt>
      <trkpt lat="47.84002" lon="-3.53178">
        <ele>31</ele>
        <time>2019-07-15T10:29:54Z</time>
      </trkpt>
      <trkpt lat="47.84003" lon="-3.53174">
        <ele>31</ele>
        <time>2019-07-15T10:29:55Z</time>
      </trkpt>
      <trkpt lat="47.84004" lon="-3.53171">
        <ele>31</ele>
        <time>2019-07-15T10:29:56Z</time>
      </trkpt>
      <trkpt lat="47.84006" lon="-3.53167">
        <ele>31</ele>
        <time>2019-07-15T10:29:57Z</time>
      </trkpt>
      <trkpt lat="47.84008" lon="-3.53162">
        <ele>30</ele>
        <time>2019-07-15T10:29:58Z</time>
      </trkpt>
      <trkpt lat="47.8401" lon="-3.53156">
        <ele>30</ele>
        <time>2019-07-15T10:29:59Z</time>
      </trkpt>
      <trkpt lat="47.84012" lon="-3.53149">
        <ele>30</ele>
        <time>2019-07-15T10:30:00Z</time>
      </trkpt>
      <trkpt lat="47.84013" lon="-3.53143">
        <ele>30</ele>
        <time>2019-07-15T10:30:01Z</time>
      </trkpt>
      <trkpt lat="47.84015" lon="-3.53136">
        <ele>29</ele>
        <time>2019-07-15T10:30:02Z</time>
      </trkpt>
      <trkpt lat="47.84017" lon="-3.5313">
        <ele>29</ele>
        <time>2019-07-15T10:30:03Z</time>
      </trkpt>
      <trkpt lat="47.84019" lon="-3.53124">
        <ele>29</ele>
        <time>2019-07-15T10:30:04Z</time>
      </trkpt>
      <trkpt lat="47.84021" lon="-3.53118">
        <ele>29</ele>
        <time>2019-07-15T10:30:05Z</time>
      </trkpt>
      <trkpt lat="47.84024" lon="-3.53113">
        <ele>29</ele>
        <time>2019-07-15T10:30:06Z</time>
      </trkpt>
      <trkpt lat="47.84027" lon="-3.53109">
        <ele>29</ele>
        <time>2019-07-15T10:30:07Z</time>
      </trkpt>
      <trkpt lat="47.8403" lon="-3.53104">
        <ele>29</ele>
        <time>2019-07-15T10:30:08Z</time>
      </trkpt>
      <trkpt lat="47.84034" lon="-3.53099">
        <ele>28</ele>
        <time>2019-07-15T10:30:09Z</time>
      </trkpt>
      <trkpt lat="47.84037" lon="-3.53094">
        <ele>28</ele>
        <time>2019-07-15T10:30:10Z</time>
      </trkpt>
      <trkpt lat="47.84041" lon="-3.53089">
        <ele>28</ele>
        <time>2019-07-15T10:30:11Z</time>
      </trkpt>
      <trkpt lat="47.84044" lon="-3.53084">
        <ele>28</ele>
        <time>2019-07-15T10:30:12Z</time>
      </trkpt>
      <trkpt lat="47.84048" lon="-3.53079">
        <ele>28</ele>
        <time>2019-07-15T10:30:13Z</time>
      </trkpt>
      <trkpt lat="47.84052" lon="-3.53074">
        <ele>28</ele>
        <time>2019-07-15T10:30:14Z</time>
      </trkpt>
      <trkpt lat="47.84055" lon="-3.53069">
        <ele>28</ele>
        <time>2019-07-15T10:30:15Z</time>
      </trkpt>
      <trkpt lat="47.84059" lon="-3.53063">
        <ele>28</ele>
        <time>2019-07-15T10:30:16Z</time>
      </trkpt>
      <trkpt lat="47.84064" lon="-3.53057">
        <ele>28</ele>
        <time>2019-07-15T10:30:17Z</time>
      </trkpt>
      <trkpt lat="47.84068" lon="-3.53052">
        <ele>28</ele>
        <time>2019-07-15T10:30:18Z</time>
      </trkpt>
      <trkpt lat="47.84071" lon="-3.53046">
        <ele>28</ele>
        <time>2019-07-15T10:30:19Z</time>
      </trkpt>
      <trkpt lat="47.84075" lon="-3.53042">
        <ele>28</ele>
        <time>2019-07-15T10:30:20Z</time>
      </trkpt>
      <trkpt lat="47.84079" lon="-3.53037">
        <ele>28</ele>
        <time>2019-07-15T10:30:21Z</time>
      </trkpt>
      <trkpt lat="47.84082" lon="-3.53034">
        <ele>28</ele>
        <time>2019-07-15T10:30:22Z</time>
      </trkpt>
      <trkpt lat="47.84084" lon="-3.5303">
        <ele>28</ele>
        <time>2019-07-15T10:30:23Z</time>
      </trkpt>
      <trkpt lat="47.84087" lon="-3.53027">
        <ele>28</ele>
        <time>2019-07-15T10:30:24Z</time>
      </trkpt>
      <trkpt lat="47.8409" lon="-3.53023">
        <ele>28</ele>
        <time>2019-07-15T10:30:25Z</time>
      </trkpt>
      <trkpt lat="47.84093" lon="-3.5302">
        <ele>28</ele>
        <time>2019-07-15T10:30:26Z</time>
      </trkpt>
      <trkpt lat="47.84096" lon="-3.53016">
        <ele>28</ele>
        <time>2019-07-15T10:30:27Z</time>
      </trkpt>
      <trkpt lat="47.84099" lon="-3.53012">
        <ele>28</ele>
        <time>2019-07-15T10:30:28Z</time>
      </trkpt>
      <trkpt lat="47.84103" lon="-3.53008">
        <ele>28</ele>
        <time>2019-07-15T10:30:29Z</time>
      </trkpt>
      <trkpt lat="47.84107" lon="-3.53004">
        <ele>28</ele>
        <time>2019-07-15T10:30:30Z</time>
      </trkpt>
      <trkpt lat="47.8411" lon="-3.53">
        <ele>27</ele>
        <time>2019-07-15T10:30:31Z</time>
      </trkpt>
      <trkpt lat="47.84114" lon="-3.52995">
        <ele>27</ele>
        <time>2019-07-15T10:30:32Z</time>
      </trkpt>
      <trkpt lat="47.84118" lon="-3.52991">
        <ele>27</ele>
        <time>2019-07-15T10:30:33Z</time>
      </trkpt>
      <trkpt lat="47.84121" lon="-3.52987">
        <ele>27</ele>
        <time>2019-07-15T10:30:34Z</time>
      </trkpt>
      <trkpt lat="47.84124" lon="-3.52983">
        <ele>27</ele>
        <time>2019-07-15T10:30:35Z</time>
      </trkpt>
      <trkpt lat="47.84127" lon="-3.52979">
        <ele>27</ele>
        <time>2019-07-15T10:30:36Z</time>
      </trkpt>
      <trkpt lat="47.8413" lon="-3.52974">
        <ele>27</ele>
        <time>2019-07-15T10:30:37Z</time>
      </trkpt>
      <trkpt lat="47.84134" lon="-3.52969">
        <ele>27</ele>
        <time>2019-07-15T10:30:38Z</time>
      </trkpt>
      <trkpt lat="47.84136" lon="-3.52964">
        <ele>27</ele>
        <time>2019-07-15T10:30:39Z</time>
      </trkpt>
      <trkpt lat="47.8414" lon="-3.52959">
        <ele>27</ele>
        <time>2019-07-15T10:30:40Z</time>
      </trkpt>
      <trkpt lat="47.84143" lon="-3.52954">
        <ele>27</ele>
        <time>2019-07-15T10:30:41Z</time>
      </trkpt>
      <trkpt lat="47.84148" lon="-3.52948">
        <ele>27</ele>
        <time>2019-07-15T10:30:42Z</time>
      </trkpt>
      <trkpt lat="47.84152" lon="-3.52942">
        <ele>27</ele>
        <time>2019-07-15T10:30:43Z</time>
      </trkpt>
      <trkpt lat="47.84157" lon="-3.52936">
        <ele>27</ele>
        <time>2019-07-15T10:30:44Z</time>
      </trkpt>
      <trkpt lat="47.84162" lon="-3.52931">
        <ele>27</ele>
        <time>2019-07-15T10:30:45Z</time>
      </trkpt>
      <trkpt lat="47.84166" lon="-3.52927">
        <ele>27</ele>
        <time>2019-07-15T10:30:46Z</time>
      </trkpt>
      <trkpt lat="47.8417" lon="-3.52922">
        <ele>27</ele>
        <time>2019-07-15T10:30:47Z</time>
      </trkpt>
      <trkpt lat="47.84174" lon="-3.52917">
        <ele>27</ele>
        <time>2019-07-15T10:30:48Z</time>
      </trkpt>
      <trkpt lat="47.84178" lon="-3.52913">
        <ele>27</ele>
        <time>2019-07-15T10:30:49Z</time>
      </trkpt>
      <trkpt lat="47.84181" lon="-3.52907">
        <ele>27</ele>
        <time>2019-07-15T10:30:50Z</time>
      </trkpt>
      <trkpt lat="47.84184" lon="-3.52902">
        <ele>27</ele>
        <time>2019-07-15T10:30:51Z</time>
      </trkpt>
      <trkpt lat="47.84188" lon="-3.52897">
        <ele>27</ele>
        <time>2019-07-15T10:30:52Z</time>
      </trkpt>
      <trkpt lat="47.8419" lon="-3.52892">
        <ele>27</ele>
        <time>2019-07-15T10:30:53Z</time>
      </trkpt>
      <trkpt lat="47.84193" lon="-3.52886">
        <ele>27</ele>
        <time>2019-07-15T10:30:54Z</time>
      </trkpt>
      <trkpt lat="47.84195" lon="-3.52881">
        <ele>27</ele>
        <time>2019-07-15T10:30:55Z</time>
      </trkpt>
      <trkpt lat="47.84197" lon="-3.52876">
        <ele>27</ele>
        <time>2019-07-15T10:30:56Z</time>
      </trkpt>
      <trkpt lat="47.84199" lon="-3.52872">
        <ele>27</ele>
        <time>2019-07-15T10:30:57Z</time>
      </trkpt>
      <trkpt lat="47.84201" lon="-3.52868">
        <ele>27</ele>
        <time>2019-07-15T10:30:58Z</time>
      </trkpt>
      <trkpt lat="47.84203" lon="-3.52863">
        <ele>27</ele>
        <time>2019-07-15T10:30:59Z</time>
      </trkpt>
      <trkpt lat="47.84204" lon="-3.52858">
        <ele>27</ele>
        <time>2019-07-15T10:31:00Z</time>
      </trkpt>
      <trkpt lat="47.84206" lon="-3.52853">
        <ele>27</ele>
        <time>2019-07-15T10:31:01Z</time>
      </trkpt>
      <trkpt lat="47.84207" lon="-3.52849">
        <ele>27</ele>
        <time>2019-07-15T10:31:02Z</time>
      </trkpt>
      <trkpt lat="47.84208" lon="-3.52845">
        <ele>27</ele>
        <time>2019-07-15T10:31:03Z</time>
      </trkpt>
      <trkpt lat="47.84209" lon="-3.52841">
        <ele>27</ele>
        <time>2019-07-15T10:31:04Z</time>
      </trkpt>
      <trkpt lat="47.84211" lon="-3.52837">
        <ele>27</ele>
        <time>2019-07-15T10:31:05Z</time>
      </trkpt>
      <trkpt lat="47.84213" lon="-3.52833">
        <ele>27</ele>
        <time>2019-07-15T10:31:06Z</time>
      </trkpt>
      <trkpt lat="47.84215" lon="-3.5283">
        <ele>26</ele>
        <time>2019-07-15T10:31:07Z</time>
      </trkpt>
      <trkpt lat="47.84216" lon="-3.52827">
        <ele>26</ele>
        <time>2019-07-15T10:31:08Z</time>
      </trkpt>
      <trkpt lat="47.84217" lon="-3.52824">
        <ele>26</ele>
        <time>2019-07-15T10:31:09Z</time>
      </trkpt>
      <trkpt lat="47.84218" lon="-3.5282">
        <ele>26</ele>
        <time>2019-07-15T10:31:10Z</time>
      </trkpt>
      <trkpt lat="47.84218" lon="-3.52817">
        <ele>26</ele>
        <time>2019-07-15T10:31:11Z</time>
      </trkpt>
      <trkpt lat="47.84219" lon="-3.52814">
        <ele>26</ele>
        <time>2019-07-15T10:31:12Z</time>
      </trkpt>
      <trkpt lat="47.84219" lon="-3.52812">
        <ele>26</ele>
        <time>2019-07-15T10:31:13Z</time>
      </trkpt>
      <trkpt lat="47.8422" lon="-3.52809">
        <ele>26</ele>
        <time>2019-07-15T10:31:14Z</time>
      </trkpt>
      <trkpt lat="47.84221" lon="-3.52807">
        <ele>25</ele>
        <time>2019-07-15T10:31:15Z</time>
      </trkpt>
      <trkpt lat="47.84221" lon="-3.52805">
        <ele>25</ele>
        <time>2019-07-15T10:31:16Z</time>
      </trkpt>
      <trkpt lat="47.84221" lon="-3.52802">
        <ele>25</ele>
        <time>2019-07-15T10:31:17Z</time>
      </trkpt>
      <trkpt lat="47.84222" lon="-3.528">
        <ele>25</ele>
        <time>2019-07-15T10:31:18Z</time>
      </trkpt>
      <trkpt lat="47.84222" lon="-3.52797">
        <ele>25</ele>
        <time>2019-07-15T10:31:19Z</time>
      </trkpt>
      <trkpt lat="47.84222" lon="-3.52795">
        <ele>25</ele>
        <time>2019-07-15T10:31:20Z</time>
      </trkpt>
      <trkpt lat="47.84221" lon="-3.52792">
        <ele>25</ele>
        <time>2019-07-15T10:31:21Z</time>
      </trkpt>
      <trkpt lat="47.84221" lon="-3.5279">
        <ele>25</ele>
        <time>2019-07-15T10:31:22Z</time>
      </trkpt>
      <trkpt lat="47.84222" lon="-3.52786">
        <ele>25</ele>
        <time>2019-07-15T10:31:23Z</time>
      </trkpt>
      <trkpt lat="47.84222" lon="-3.52783">
        <ele>25</ele>
        <time>2019-07-15T10:31:24Z</time>
      </trkpt>
      <trkpt lat="47.84223" lon="-3.5278">
        <ele>25</ele>
        <time>2019-07-15T10:31:25Z</time>
      </trkpt>
      <trkpt lat="47.84223" lon="-3.52777">
        <ele>25</ele>
        <time>2019-07-15T10:31:26Z</time>
      </trkpt>
      <trkpt lat="47.84224" lon="-3.52774">
        <ele>25</ele>
        <time>2019-07-15T10:31:27Z</time>
      </trkpt>
      <trkpt lat="47.84224" lon="-3.52772">
        <ele>25</ele>
        <time>2019-07-15T10:31:28Z</time>
      </trkpt>
      <trkpt lat="47.84225" lon="-3.5277">
        <ele>25</ele>
        <time>2019-07-15T10:31:29Z</time>
      </trkpt>
      <trkpt lat="47.84226" lon="-3.52767">
        <ele>25</ele>
        <time>2019-07-15T10:31:30Z</time>
      </trkpt>
      <trkpt lat="47.84226" lon="-3.52764">
        <ele>26</ele>
        <time>2019-07-15T10:31:31Z</time>
      </trkpt>
      <trkpt lat="47.84227" lon="-3.5276">
        <ele>26</ele>
        <time>2019-07-15T10:31:32Z</time>
      </trkpt>
      <trkpt lat="47.84229" lon="-3.52755">
        <ele>26</ele>
        <time>2019-07-15T10:31:33Z</time>
      </trkpt>
      <trkpt lat="47.8423" lon="-3.5275">
        <ele>26</ele>
        <time>2019-07-15T10:31:34Z</time>
      </trkpt>
      <trkpt lat="47.84232" lon="-3.52743">
        <ele>26</ele>
        <time>2019-07-15T10:31:35Z</time>
      </trkpt>
      <trkpt lat="47.84234" lon="-3.52735">
        <ele>26</ele>
        <time>2019-07-15T10:31:36Z</time>
      </trkpt>
      <trkpt lat="47.84237" lon="-3.52726">
        <ele>27</ele>
        <time>2019-07-15T10:31:37Z</time>
      </trkpt>
      <trkpt lat="47.8424" lon="-3.52717">
        <ele>27</ele>
        <time>2019-07-15T10:31:38Z</time>
      </trkpt>
      <trkpt lat="47.84243" lon="-3.52709">
        <ele>27</ele>
        <time>2019-07-15T10:31:39Z</time>
      </trkpt>
      <trkpt lat="47.84246" lon="-3.52702">
        <ele>27</ele>
        <time>2019-07-15T10:31:40Z</time>
      </trkpt>
      <trkpt lat="47.84249" lon="-3.52695">
        <ele>27</ele>
        <time>2019-07-15T10:31:41Z</time>
      </trkpt>
      <trkpt lat="47.84252" lon="-3.52689">
        <ele>27</ele>
        <time>2019-07-15T10:31:42Z</time>
      </trkpt>
      <trkpt lat="47.84255" lon="-3.52682">
        <ele>28</ele>
        <time>2019-07-15T10:31:43Z</time>
      </trkpt>
      <trkpt lat="47.84259" lon="-3.52675">
        <ele>28</ele>
        <time>2019-07-15T10:31:44Z</time>
      </trkpt>
      <trkpt lat="47.84262" lon="-3.52667">
        <ele>28</ele>
        <time>2019-07-15T10:31:45Z</time>
      </trkpt>
      <trkpt lat="47.84266" lon="-3.52658">
        <ele>28</ele>
        <time>2019-07-15T10:31:46Z</time>
      </trkpt>
      <trkpt lat="47.84269" lon="-3.52651">
        <ele>28</ele>
        <time>2019-07-15T10:31:47Z</time>
      </trkpt>
      <trkpt lat="47.84273" lon="-3.52644">
        <ele>28</ele>
        <time>2019-07-15T10:31:48Z</time>
      </trkpt>
      <trkpt lat="47.84278" lon="-3.52637">
        <ele>28</ele>
        <time>2019-07-15T10:31:49Z</time>
      </trkpt>
      <trkpt lat="47.84282" lon="-3.52629">
        <ele>29</ele>
        <time>2019-07-15T10:31:50Z</time>
      </trkpt>
      <trkpt lat="47.84287" lon="-3.52621">
        <ele>29</ele>
        <time>2019-07-15T10:31:51Z</time>
      </trkpt>
      <trkpt lat="47.84291" lon="-3.52614">
        <ele>29</ele>
        <time>2019-07-15T10:31:52Z</time>
      </trkpt>
      <trkpt lat="47.84293" lon="-3.52606">
        <ele>29</ele>
        <time>2019-07-15T10:31:53Z</time>
      </trkpt>
      <trkpt lat="47.84295" lon="-3.526">
        <ele>29</ele>
        <time>2019-07-15T10:31:54Z</time>
      </trkpt>
      <trkpt lat="47.84297" lon="-3.52593">
        <ele>29</ele>
        <time>2019-07-15T10:31:55Z</time>
      </trkpt>
      <trkpt lat="47.84298" lon="-3.52588">
        <ele>29</ele>
        <time>2019-07-15T10:31:56Z</time>
      </trkpt>
      <trkpt lat="47.84299" lon="-3.52583">
        <ele>29</ele>
        <time>2019-07-15T10:31:57Z</time>
      </trkpt>
      <trkpt lat="47.84299" lon="-3.52579">
        <ele>30</ele>
        <time>2019-07-15T10:31:58Z</time>
      </trkpt>
      <trkpt lat="47.84299" lon="-3.52575">
        <ele>30</ele>
        <time>2019-07-15T10:31:59Z</time>
      </trkpt>
      <trkpt lat="47.84299" lon="-3.52571">
        <ele>30</ele>
        <time>2019-07-15T10:32:00Z</time>
      </trkpt>
      <trkpt lat="47.84299" lon="-3.52566">
        <ele>30</ele>
        <time>2019-07-15T10:32:01Z</time>
      </trkpt>
      <trkpt lat="47.84299" lon="-3.52562">
        <ele>30</ele>
        <time>2019-07-15T10:32:02Z</time>
      </trkpt>
      <trkpt lat="47.84299" lon="-3.52557">
        <ele>30</ele>
        <time>2019-07-15T10:32:03Z</time>
      </trkpt>
      <trkpt lat="47.843" lon="-3.52552">
        <ele>29</ele>
        <time>2019-07-15T10:32:04Z</time>
      </trkpt>
      <trkpt lat="47.84299" lon="-3.52547">
        <ele>29</ele>
        <time>2019-07-15T10:32:05Z</time>
      </trkpt>
      <trkpt lat="47.84298" lon="-3.52542">
        <ele>29</ele>
        <time>2019-07-15T10:32:06Z</time>
      </trkpt>
      <trkpt lat="47.84297" lon="-3.52538">
        <ele>29</ele>
        <time>2019-07-15T10:32:07Z</time>
      </trkpt>
      <trkpt lat="47.84295" lon="-3.52534">
        <ele>29</ele>
        <time>2019-07-15T10:32:08Z</time>
      </trkpt>
      <trkpt lat="47.84294" lon="-3.52529">
        <ele>29</ele>
        <time>2019-07-15T10:32:09Z</time>
      </trkpt>
      <trkpt lat="47.84292" lon="-3.52525">
        <ele>29</ele>
        <time>2019-07-15T10:32:10Z</time>
      </trkpt>
      <trkpt lat="47.84289" lon="-3.52522">
        <ele>29</ele>
        <time>2019-07-15T10:32:11Z</time>
      </trkpt>
      <trkpt lat="47.84287" lon="-3.52519">
        <ele>28</ele>
        <time>2019-07-15T10:32:12Z</time>
      </trkpt>
      <trkpt lat="47.84285" lon="-3.52514">
        <ele>28</ele>
        <time>2019-07-15T10:32:13Z</time>
      </trkpt>
      <trkpt lat="47.84284" lon="-3.5251">
        <ele>28</ele>
        <time>2019-07-15T10:32:14Z</time>
      </trkpt>
      <trkpt lat="47.84282" lon="-3.52505">
        <ele>28</ele>
        <time>2019-07-15T10:32:15Z</time>
      </trkpt>
      <trkpt lat="47.84281" lon="-3.52502">
        <ele>28</ele>
        <time>2019-07-15T10:32:16Z</time>
      </trkpt>
      <trkpt lat="47.84279" lon="-3.52498">
        <ele>28</ele>
        <time>2019-07-15T10:32:17Z</time>
      </trkpt>
      <trkpt lat="47.84277" lon="-3.52495">
        <ele>27</ele>
        <time>2019-07-15T10:32:18Z</time>
      </trkpt>
      <trkpt lat="47.84275" lon="-3.52491">
        <ele>27</ele>
        <time>2019-07-15T10:32:19Z</time>
      </trkpt>
      <trkpt lat="47.84273" lon="-3.52486">
        <ele>27</ele>
        <time>2019-07-15T10:32:20Z</time>
      </trkpt>
      <trkpt lat="47.84272" lon="-3.52482">
        <ele>27</ele>
        <time>2019-07-15T10:32:21Z</time>
      </trkpt>
      <trkpt lat="47.8427" lon="-3.52478">
        <ele>27</ele>
        <time>2019-07-15T10:32:22Z</time>
      </trkpt>
      <trkpt lat="47.84268" lon="-3.52475">
        <ele>27</ele>
        <time>2019-07-15T10:32:23Z</time>
      </trkpt>
      <trkpt lat="47.84266" lon="-3.52473">
        <ele>27</ele>
        <time>2019-07-15T10:32:24Z</time>
      </trkpt>
      <trkpt lat="47.84264" lon="-3.52471">
        <ele>27</ele>
        <time>2019-07-15T10:32:25Z</time>
      </trkpt>
      <trkpt lat="47.84261" lon="-3.52468">
        <ele>27</ele>
        <time>2019-07-15T10:32:26Z</time>
      </trkpt>
      <trkpt lat="47.84259" lon="-3.52467">
        <ele>27</ele>
        <time>2019-07-15T10:32:27Z</time>
      </trkpt>
      <trkpt lat="47.84257" lon="-3.52466">
        <ele>26</ele>
        <time>2019-07-15T10:32:28Z</time>
      </trkpt>
      <trkpt lat="47.84254" lon="-3.52465">
        <ele>26</ele>
        <time>2019-07-15T10:32:29Z</time>
      </trkpt>
      <trkpt lat="47.84252" lon="-3.52463">
        <ele>26</ele>
        <time>2019-07-15T10:32:30Z</time>
      </trkpt>
      <trkpt lat="47.84251" lon="-3.52461">
        <ele>26</ele>
        <time>2019-07-15T10:32:31Z</time>
      </trkpt>
      <trkpt lat="47.84249" lon="-3.52459">
        <ele>26</ele>
        <time>2019-07-15T10:32:32Z</time>
      </trkpt>
      <trkpt lat="47.84246" lon="-3.52459">
        <ele>26</ele>
        <time>2019-07-15T10:32:33Z</time>
      </trkpt>
      <trkpt lat="47.84245" lon="-3.52457">
        <ele>26</ele>
        <time>2019-07-15T10:32:34Z</time>
      </trkpt>
      <trkpt lat="47.84243" lon="-3.52455">
        <ele>26</ele>
        <time>2019-07-15T10:32:35Z</time>
      </trkpt>
      <trkpt lat="47.84241" lon="-3.52453">
        <ele>26</ele>
        <time>2019-07-15T10:32:36Z</time>
      </trkpt>
      <trkpt lat="47.84238" lon="-3.52452">
        <ele>26</ele>
        <time>2019-07-15T10:32:37Z</time>
      </trkpt>
      <trkpt lat="47.84236" lon="-3.52451">
        <ele>26</ele>
        <time>2019-07-15T10:32:38Z</time>
      </trkpt>
      <trkpt lat="47.84234" lon="-3.52449">
        <ele>26</ele>
        <time>2019-07-15T10:32:39Z</time>
      </trkpt>
      <trkpt lat="47.84232" lon="-3.52448">
        <ele>26</ele>
        <time>2019-07-15T10:32:40Z</time>
      </trkpt>
      <trkpt lat="47.8423" lon="-3.52447">
        <ele>26</ele>
        <time>2019-07-15T10:32:41Z</time>
      </trkpt>
      <trkpt lat="47.84228" lon="-3.52446">
        <ele>26</ele>
        <time>2019-07-15T10:32:42Z</time>
      </trkpt>
      <trkpt lat="47.84225" lon="-3.52445">
        <ele>26</ele>
        <time>2019-07-15T10:32:43Z</time>
      </trkpt>
      <trkpt lat="47.84222" lon="-3.52444">
        <ele>25</ele>
        <time>2019-07-15T10:32:44Z</time>
      </trkpt>
      <trkpt lat="47.8422" lon="-3.52443">
        <ele>25</ele>
        <time>2019-07-15T10:32:45Z</time>
      </trkpt>
      <trkpt lat="47.84218" lon="-3.52442">
        <ele>25</ele>
        <time>2019-07-15T10:32:46Z</time>
      </trkpt>
      <trkpt lat="47.84216" lon="-3.5244">
        <ele>25</ele>
        <time>2019-07-15T10:32:47Z</time>
      </trkpt>
      <trkpt lat="47.84214" lon="-3.5244">
        <ele>25</ele>
        <time>2019-07-15T10:32:48Z</time>
      </trkpt>
      <trkpt lat="47.84211" lon="-3.52439">
        <ele>25</ele>
        <time>2019-07-15T10:32:49Z</time>
      </trkpt>
      <trkpt lat="47.84209" lon="-3.52438">
        <ele>24</ele>
        <time>2019-07-15T10:32:50Z</time>
      </trkpt>
      <trkpt lat="47.84207" lon="-3.52437">
        <ele>24</ele>
        <time>2019-07-15T10:32:51Z</time>
      </trkpt>
      <trkpt lat="47.84205" lon="-3.52436">
        <ele>24</ele>
        <time>2019-07-15T10:32:52Z</time>
      </trkpt>
      <trkpt lat="47.84204" lon="-3.52435">
        <ele>24</ele>
        <time>2019-07-15T10:32:53Z</time>
      </trkpt>
      <trkpt lat="47.84202" lon="-3.52434">
        <ele>25</ele>
        <time>2019-07-15T10:32:54Z</time>
      </trkpt>
      <trkpt lat="47.84201" lon="-3.52434">
        <ele>25</ele>
        <time>2019-07-15T10:32:55Z</time>
      </trkpt>
      <trkpt lat="47.842" lon="-3.52432">
        <ele>25</ele>
        <time>2019-07-15T10:32:56Z</time>
      </trkpt>
      <trkpt lat="47.84198" lon="-3.52431">
        <ele>25</ele>
        <time>2019-07-15T10:32:57Z</time>
      </trkpt>
      <trkpt lat="47.84196" lon="-3.52429">
        <ele>25</ele>
        <time>2019-07-15T10:32:58Z</time>
      </trkpt>
      <trkpt lat="47.84194" lon="-3.52426">
        <ele>25</ele>
        <time>2019-07-15T10:32:59Z</time>
      </trkpt>
      <trkpt lat="47.84192" lon="-3.52424">
        <ele>25</ele>
        <time>2019-07-15T10:33:00Z</time>
      </trkpt>
      <trkpt lat="47.8419" lon="-3.52422">
        <ele>26</ele>
        <time>2019-07-15T10:33:01Z</time>
      </trkpt>
      <trkpt lat="47.84188" lon="-3.5242">
        <ele>26</ele>
        <time>2019-07-15T10:33:02Z</time>
      </trkpt>
      <trkpt lat="47.84186" lon="-3.52417">
        <ele>26</ele>
        <time>2019-07-15T10:33:03Z</time>
      </trkpt>
      <trkpt lat="47.84183" lon="-3.52415">
        <ele>26</ele>
        <time>2019-07-15T10:33:04Z</time>
      </trkpt>
      <trkpt lat="47.84181" lon="-3.52413">
        <ele>26</ele>
        <time>2019-07-15T10:33:05Z</time>
      </trkpt>
      <trkpt lat="47.84179" lon="-3.52409">
        <ele>27</ele>
        <time>2019-07-15T10:33:06Z</time>
      </trkpt>
      <trkpt lat="47.84178" lon="-3.52406">
        <ele>27</ele>
        <time>2019-07-15T10:33:07Z</time>
      </trkpt>
      <trkpt lat="47.84177" lon="-3.52403">
        <ele>27</ele>
        <time>2019-07-15T10:33:08Z</time>
      </trkpt>
      <trkpt lat="47.84176" lon="-3.524">
        <ele>27</ele>
        <time>2019-07-15T10:33:09Z</time>
      </trkpt>
      <trkpt lat="47.84175" lon="-3.52397">
        <ele>28</ele>
        <time>2019-07-15T10:33:10Z</time>
      </trkpt>
      <trkpt lat="47.84174" lon="-3.52393">
        <ele>28</ele>
        <time>2019-07-15T10:33:11Z</time>
      </trkpt>
      <trkpt lat="47.84173" lon="-3.52389">
        <ele>28</ele>
        <time>2019-07-15T10:33:12Z</time>
      </trkpt>
      <trkpt lat="47.84172" lon="-3.52385">
        <ele>29</ele>
        <time>2019-07-15T10:33:13Z</time>
      </trkpt>
      <trkpt lat="47.84172" lon="-3.52381">
        <ele>29</ele>
        <time>2019-07-15T10:33:14Z</time>
      </trkpt>
      <trkpt lat="47.84171" lon="-3.52377">
        <ele>29</ele>
        <time>2019-07-15T10:33:15Z</time>
      </trkpt>
      <trkpt lat="47.84171" lon="-3.52374">
        <ele>30</ele>
        <time>2019-07-15T10:33:16Z</time>
      </trkpt>
      <trkpt lat="47.8417" lon="-3.5237">
        <ele>30</ele>
        <time>2019-07-15T10:33:17Z</time>
      </trkpt>
      <trkpt lat="47.8417" lon="-3.52366">
        <ele>30</ele>
        <time>2019-07-15T10:33:18Z</time>
      </trkpt>
      <trkpt lat="47.84169" lon="-3.52363">
        <ele>30</ele>
        <time>2019-07-15T10:33:19Z</time>
      </trkpt>
      <trkpt lat="47.84168" lon="-3.5236">
        <ele>30</ele>
        <time>2019-07-15T10:33:20Z</time>
      </trkpt>
      <trkpt lat="47.84167" lon="-3.52357">
        <ele>31</ele>
        <time>2019-07-15T10:33:21Z</time>
      </trkpt>
      <trkpt lat="47.84166" lon="-3.52354">
        <ele>31</ele>
        <time>2019-07-15T10:33:22Z</time>
      </trkpt>
      <trkpt lat="47.84166" lon="-3.52351">
        <ele>31</ele>
        <time>2019-07-15T10:33:23Z</time>
      </trkpt>
      <trkpt lat="47.84164" lon="-3.52348">
        <ele>31</ele>
        <time>2019-07-15T10:33:24Z</time>
      </trkpt>
      <trkpt lat="47.84164" lon="-3.52345">
        <ele>31</ele>
        <time>2019-07-15T10:33:25Z</time>
      </trkpt>
      <trkpt lat="47.84162" lon="-3.52342">
        <ele>32</ele>
        <time>2019-07-15T10:33:26Z</time>
      </trkpt>
      <trkpt lat="47.8416" lon="-3.52339">
        <ele>32</ele>
        <time>2019-07-15T10:33:27Z</time>
      </trkpt>
      <trkpt lat="47.84158" lon="-3.52337">
        <ele>32</ele>
        <time>2019-07-15T10:33:28Z</time>
      </trkpt>
      <trkpt lat="47.84156" lon="-3.52335">
        <ele>32</ele>
        <time>2019-07-15T10:33:29Z</time>
      </trkpt>
      <trkpt lat="47.84153" lon="-3.52333">
        <ele>32</ele>
        <time>2019-07-15T10:33:30Z</time>
      </trkpt>
      <trkpt lat="47.84151" lon="-3.52332">
        <ele>32</ele>
        <time>2019-07-15T10:33:31Z</time>
      </trkpt>
      <trkpt lat="47.84149" lon="-3.52331">
        <ele>32</ele>
        <time>2019-07-15T10:33:32Z</time>
      </trkpt>
      <trkpt lat="47.84147" lon="-3.52329">
        <ele>33</ele>
        <time>2019-07-15T10:33:33Z</time>
      </trkpt>
      <trkpt lat="47.84146" lon="-3.52328">
        <ele>33</ele>
        <time>2019-07-15T10:33:34Z</time>
      </trkpt>
      <trkpt lat="47.84144" lon="-3.52327">
        <ele>33</ele>
        <time>2019-07-15T10:33:35Z</time>
      </trkpt>
      <trkpt lat="47.84143" lon="-3.52326">
        <ele>33</ele>
        <time>2019-07-15T10:33:36Z</time>
      </trkpt>
      <trkpt lat="47.8414" lon="-3.52324">
        <ele>34</ele>
        <time>2019-07-15T10:33:37Z</time>
      </trkpt>
      <trkpt lat="47.84138" lon="-3.52323">
        <ele>34</ele>
        <time>2019-07-15T10:33:38Z</time>
      </trkpt>
      <trkpt lat="47.84136" lon="-3.52322">
        <ele>34</ele>
        <time>2019-07-15T10:33:39Z</time>
      </trkpt>
      <trkpt lat="47.84134" lon="-3.52321">
        <ele>34</ele>
        <time>2019-07-15T10:33:40Z</time>
      </trkpt>
      <trkpt lat="47.84132" lon="-3.5232">
        <ele>34</ele>
        <time>2019-07-15T10:33:41Z</time>
      </trkpt>
      <trkpt lat="47.84129" lon="-3.52319">
        <ele>35</ele>
        <time>2019-07-15T10:33:42Z</time>
      </trkpt>
      <trkpt lat="47.84127" lon="-3.52317">
        <ele>35</ele>
        <time>2019-07-15T10:33:43Z</time>
      </trkpt>
      <trkpt lat="47.84124" lon="-3.52316">
        <ele>35</ele>
        <time>2019-07-15T10:33:44Z</time>
      </trkpt>
      <trkpt lat="47.84121" lon="-3.52314">
        <ele>35</ele>
        <time>2019-07-15T10:33:45Z</time>
      </trkpt>
      <trkpt lat="47.84119" lon="-3.52311">
        <ele>36</ele>
        <time>2019-07-15T10:33:46Z</time>
      </trkpt>
      <trkpt lat="47.84117" lon="-3.52309">
        <ele>36</ele>
        <time>2019-07-15T10:33:47Z</time>
      </trkpt>
      <trkpt lat="47.84114" lon="-3.52307">
        <ele>36</ele>
        <time>2019-07-15T10:33:48Z</time>
      </trkpt>
      <trkpt lat="47.84111" lon="-3.52305">
        <ele>37</ele>
        <time>2019-07-15T10:33:49Z</time>
      </trkpt>
      <trkpt lat="47.84108" lon="-3.52303">
        <ele>37</ele>
        <time>2019-07-15T10:33:50Z</time>
      </trkpt>
      <trkpt lat="47.84105" lon="-3.52301">
        <ele>37</ele>
        <time>2019-07-15T10:33:51Z</time>
      </trkpt>
      <trkpt lat="47.84103" lon="-3.52299">
        <ele>38</ele>
        <time>2019-07-15T10:33:52Z</time>
      </trkpt>
      <trkpt lat="47.841" lon="-3.52297">
        <ele>38</ele>
        <time>2019-07-15T10:33:53Z</time>
      </trkpt>
      <trkpt lat="47.84097" lon="-3.52295">
        <ele>38</ele>
        <time>2019-07-15T10:33:54Z</time>
      </trkpt>
      <trkpt lat="47.84094" lon="-3.52293">
        <ele>39</ele>
        <time>2019-07-15T10:33:55Z</time>
      </trkpt>
      <trkpt lat="47.84091" lon="-3.52291">
        <ele>39</ele>
        <time>2019-07-15T10:33:56Z</time>
      </trkpt>
      <trkpt lat="47.84088" lon="-3.5229">
        <ele>39</ele>
        <time>2019-07-15T10:33:57Z</time>
      </trkpt>
      <trkpt lat="47.84085" lon="-3.52287">
        <ele>40</ele>
        <time>2019-07-15T10:33:58Z</time>
      </trkpt>
      <trkpt lat="47.84082" lon="-3.52283">
        <ele>40</ele>
        <time>2019-07-15T10:33:59Z</time>
      </trkpt>
      <trkpt lat="47.84079" lon="-3.5228">
        <ele>40</ele>
        <time>2019-07-15T10:34:00Z</time>
      </trkpt>
      <trkpt lat="47.84077" lon="-3.52277">
        <ele>40</ele>
        <time>2019-07-15T10:34:01Z</time>
      </trkpt>
      <trkpt lat="47.84074" lon="-3.52275">
        <ele>41</ele>
        <time>2019-07-15T10:34:02Z</time>
      </trkpt>
      <trkpt lat="47.84071" lon="-3.52272">
        <ele>41</ele>
        <time>2019-07-15T10:34:03Z</time>
      </trkpt>
      <trkpt lat="47.84068" lon="-3.52268">
        <ele>41</ele>
        <time>2019-07-15T10:34:04Z</time>
      </trkpt>
      <trkpt lat="47.84065" lon="-3.52265">
        <ele>41</ele>
        <time>2019-07-15T10:34:05Z</time>
      </trkpt>
      <trkpt lat="47.84061" lon="-3.52262">
        <ele>42</ele>
        <time>2019-07-15T10:34:06Z</time>
      </trkpt>
      <trkpt lat="47.84058" lon="-3.52259">
        <ele>42</ele>
        <time>2019-07-15T10:34:07Z</time>
      </trkpt>
      <trkpt lat="47.84055" lon="-3.52257">
        <ele>42</ele>
        <time>2019-07-15T10:34:08Z</time>
      </trkpt>
      <trkpt lat="47.84052" lon="-3.52254">
        <ele>42</ele>
        <time>2019-07-15T10:34:09Z</time>
      </trkpt>
      <trkpt lat="47.84048" lon="-3.52252">
        <ele>42</ele>
        <time>2019-07-15T10:34:10Z</time>
      </trkpt>
      <trkpt lat="47.84045" lon="-3.52249">
        <ele>42</ele>
        <time>2019-07-15T10:34:11Z</time>
      </trkpt>
      <trkpt lat="47.84044" lon="-3.52247">
        <ele>43</ele>
        <time>2019-07-15T10:34:12Z</time>
      </trkpt>
      <trkpt lat="47.84041" lon="-3.52244">
        <ele>43</ele>
        <time>2019-07-15T10:34:13Z</time>
      </trkpt>
      <trkpt lat="47.84039" lon="-3.52242">
        <ele>43</ele>
        <time>2019-07-15T10:34:14Z</time>
      </trkpt>
      <trkpt lat="47.84036" lon="-3.5224">
        <ele>43</ele>
        <time>2019-07-15T10:34:15Z</time>
      </trkpt>
      <trkpt lat="47.84033" lon="-3.52239">
        <ele>43</ele>
        <time>2019-07-15T10:34:16Z</time>
      </trkpt>
      <trkpt lat="47.84031" lon="-3.52238">
        <ele>43</ele>
        <time>2019-07-15T10:34:17Z</time>
      </trkpt>
      <trkpt lat="47.84028" lon="-3.52237">
        <ele>43</ele>
        <time>2019-07-15T10:34:18Z</time>
      </trkpt>
      <trkpt lat="47.84025" lon="-3.52235">
        <ele>43</ele>
        <time>2019-07-15T10:34:19Z</time>
      </trkpt>
      <trkpt lat="47.84022" lon="-3.52234">
        <ele>43</ele>
        <time>2019-07-15T10:34:20Z</time>
      </trkpt>
      <trkpt lat="47.84019" lon="-3.52232">
        <ele>43</ele>
        <time>2019-07-15T10:34:21Z</time>
      </trkpt>
      <trkpt lat="47.84016" lon="-3.5223">
        <ele>43</ele>
        <time>2019-07-15T10:34:22Z</time>
      </trkpt>
      <trkpt lat="47.84015" lon="-3.52226">
        <ele>44</ele>
        <time>2019-07-15T10:34:23Z</time>
      </trkpt>
      <trkpt lat="47.84014" lon="-3.52222">
        <ele>44</ele>
        <time>2019-07-15T10:34:24Z</time>
      </trkpt>
      <trkpt lat="47.84013" lon="-3.52218">
        <ele>44</ele>
        <time>2019-07-15T10:34:25Z</time>
      </trkpt>
      <trkpt lat="47.84012" lon="-3.52214">
        <ele>44</ele>
        <time>2019-07-15T10:34:26Z</time>
      </trkpt>
      <trkpt lat="47.84013" lon="-3.52211">
        <ele>44</ele>
        <time>2019-07-15T10:34:27Z</time>
      </trkpt>
      <trkpt lat="47.84013" lon="-3.52207">
        <ele>44</ele>
        <time>2019-07-15T10:34:28Z</time>
      </trkpt>
      <trkpt lat="47.84014" lon="-3.52204">
        <ele>44</ele>
        <time>2019-07-15T10:34:29Z</time>
      </trkpt>
      <trkpt lat="47.84015" lon="-3.52201">
        <ele>44</ele>
        <time>2019-07-15T10:34:30Z</time>
      </trkpt>
      <trkpt lat="47.84015" lon="-3.52199">
        <ele>44</ele>
        <time>2019-07-15T10:34:31Z</time>
      </trkpt>
      <trkpt lat="47.84015" lon="-3.52196">
        <ele>44</ele>
        <time>2019-07-15T10:34:32Z</time>
      </trkpt>
      <trkpt lat="47.84016" lon="-3.52193">
        <ele>44</ele>
        <time>2019-07-15T10:34:33Z</time>
      </trkpt>
      <trkpt lat="47.84018" lon="-3.52191">
        <ele>44</ele>
        <time>2019-07-15T10:34:34Z</time>
      </trkpt>
      <trkpt lat="47.84018" lon="-3.5219">
        <ele>44</ele>
        <time>2019-07-15T10:34:35Z</time>
      </trkpt>
      <trkpt lat="47.84019" lon="-3.5219">
        <ele>44</ele>
        <time>2019-07-15T10:34:36Z</time>
      </trkpt>
      <trkpt lat="47.84019" lon="-3.5219">
        <ele>44</ele>
        <time>2019-07-15T10:34:37Z</time>
      </trkpt>
      <trkpt lat="47.84018" lon="-3.5219">
        <ele>45</ele>
        <time>2019-07-15T10:34:38Z</time>
      </trkpt>
      <trkpt lat="47.84018" lon="-3.5219">
        <ele>45</ele>
        <time>2019-07-15T10:34:39Z</time>
      </trkpt>
      <trkpt lat="47.8402" lon="-3.5219">
        <ele>48</ele>
        <time>2019-07-15T10:34:40Z</time>
      </trkpt>
      <trkpt lat="47.84022" lon="-3.5219">
        <ele>48</ele>
        <time>2019-07-15T10:34:41Z</time>
      </trkpt>
      <trkpt lat="47.84023" lon="-3.5219">
        <ele>48</ele>
        <time>2019-07-15T10:34:42Z</time>
      </trkpt>
      <trkpt lat="47.84024" lon="-3.52192">
        <ele>48</ele>
        <time>2019-07-15T10:34:43Z</time>
      </trkpt>
      <trkpt lat="47.84026" lon="-3.52193">
        <ele>48</ele>
        <time>2019-07-15T10:34:44Z</time>
      </trkpt>
      <trkpt lat="47.84028" lon="-3.52194">
        <ele>48</ele>
        <time>2019-07-15T10:34:45Z</time>
      </trkpt>
      <trkpt lat="47.84029" lon="-3.52196">
        <ele>48</ele>
        <time>2019-07-15T10:34:46Z</time>
      </trkpt>
      <trkpt lat="47.84031" lon="-3.52196">
        <ele>48</ele>
        <time>2019-07-15T10:34:47Z</time>
      </trkpt>
      <trkpt lat="47.84034" lon="-3.52197">
        <ele>48</ele>
        <time>2019-07-15T10:34:48Z</time>
      </trkpt>
      <trkpt lat="47.84037" lon="-3.52199">
        <ele>48</ele>
        <time>2019-07-15T10:34:49Z</time>
      </trkpt>
      <trkpt lat="47.8404" lon="-3.52199">
        <ele>48</ele>
        <time>2019-07-15T10:34:50Z</time>
      </trkpt>
      <trkpt lat="47.84043" lon="-3.522">
        <ele>48</ele>
        <time>2019-07-15T10:34:51Z</time>
      </trkpt>
      <trkpt lat="47.84046" lon="-3.52202">
        <ele>48</ele>
        <time>2019-07-15T10:34:52Z</time>
      </trkpt>
      <trkpt lat="47.84049" lon="-3.52203">
        <ele>49</ele>
        <time>2019-07-15T10:34:53Z</time>
      </trkpt>
      <trkpt lat="47.84053" lon="-3.52205">
        <ele>49</ele>
        <time>2019-07-15T10:34:54Z</time>
      </trkpt>
      <trkpt lat="47.84056" lon="-3.52206">
        <ele>49</ele>
        <time>2019-07-15T10:34:55Z</time>
      </trkpt>
      <trkpt lat="47.8406" lon="-3.52207">
        <ele>49</ele>
        <time>2019-07-15T10:34:56Z</time>
      </trkpt>
      <trkpt lat="47.84064" lon="-3.52209">
        <ele>49</ele>
        <time>2019-07-15T10:34:57Z</time>
      </trkpt>
      <trkpt lat="47.84068" lon="-3.5221">
        <ele>49</ele>
        <time>2019-07-15T10:34:58Z</time>
      </trkpt>
      <trkpt lat="47.84071" lon="-3.52211">
        <ele>49</ele>
        <time>2019-07-15T10:34:59Z</time>
      </trkpt>
      <trkpt lat="47.84075" lon="-3.52212">
        <ele>48</ele>
        <time>2019-07-15T10:35:00Z</time>
      </trkpt>
      <trkpt lat="47.84078" lon="-3.52214">
        <ele>48</ele>
        <time>2019-07-15T10:35:01Z</time>
      </trkpt>
      <trkpt lat="47.84081" lon="-3.52215">
        <ele>48</ele>
        <time>2019-07-15T10:35:02Z</time>
      </trkpt>
      <trkpt lat="47.84085" lon="-3.52215">
        <ele>48</ele>
        <time>2019-07-15T10:35:03Z</time>
      </trkpt>
      <trkpt lat="47.84089" lon="-3.52216">
        <ele>48</ele>
        <time>2019-07-15T10:35:04Z</time>
      </trkpt>
      <trkpt lat="47.84093" lon="-3.52217">
        <ele>48</ele>
        <time>2019-07-15T10:35:05Z</time>
      </trkpt>
      <trkpt lat="47.84097" lon="-3.52217">
        <ele>47</ele>
        <time>2019-07-15T10:35:06Z</time>
      </trkpt>
      <trkpt lat="47.84101" lon="-3.52218">
        <ele>47</ele>
        <time>2019-07-15T10:35:07Z</time>
      </trkpt>
      <trkpt lat="47.84105" lon="-3.52217">
        <ele>47</ele>
        <time>2019-07-15T10:35:08Z</time>
      </trkpt>
      <trkpt lat="47.84109" lon="-3.52218">
        <ele>47</ele>
        <time>2019-07-15T10:35:09Z</time>
      </trkpt>
      <trkpt lat="47.84112" lon="-3.52218">
        <ele>47</ele>
        <time>2019-07-15T10:35:10Z</time>
      </trkpt>
      <trkpt lat="47.84116" lon="-3.52217">
        <ele>47</ele>
        <time>2019-07-15T10:35:11Z</time>
      </trkpt>
      <trkpt lat="47.8412" lon="-3.52216">
        <ele>46</ele>
        <time>2019-07-15T10:35:12Z</time>
      </trkpt>
      <trkpt lat="47.84124" lon="-3.52216">
        <ele>46</ele>
        <time>2019-07-15T10:35:13Z</time>
      </trkpt>
      <trkpt lat="47.84128" lon="-3.52215">
        <ele>46</ele>
        <time>2019-07-15T10:35:14Z</time>
      </trkpt>
      <trkpt lat="47.84132" lon="-3.52214">
        <ele>46</ele>
        <time>2019-07-15T10:35:15Z</time>
      </trkpt>
      <trkpt lat="47.84136" lon="-3.52214">
        <ele>46</ele>
        <time>2019-07-15T10:35:16Z</time>
      </trkpt>
      <trkpt lat="47.84139" lon="-3.52213">
        <ele>46</ele>
        <time>2019-07-15T10:35:17Z</time>
      </trkpt>
      <trkpt lat="47.84143" lon="-3.52213">
        <ele>46</ele>
        <time>2019-07-15T10:35:18Z</time>
      </trkpt>
      <trkpt lat="47.84147" lon="-3.52212">
        <ele>46</ele>
        <time>2019-07-15T10:35:19Z</time>
      </trkpt>
      <trkpt lat="47.84151" lon="-3.5221">
        <ele>46</ele>
        <time>2019-07-15T10:35:20Z</time>
      </trkpt>
      <trkpt lat="47.84155" lon="-3.52209">
        <ele>46</ele>
        <time>2019-07-15T10:35:21Z</time>
      </trkpt>
      <trkpt lat="47.84159" lon="-3.52207">
        <ele>46</ele>
        <time>2019-07-15T10:35:22Z</time>
      </trkpt>
      <trkpt lat="47.84163" lon="-3.52206">
        <ele>46</ele>
        <time>2019-07-15T10:35:23Z</time>
      </trkpt>
      <trkpt lat="47.84166" lon="-3.52205">
        <ele>46</ele>
        <time>2019-07-15T10:35:24Z</time>
      </trkpt>
      <trkpt lat="47.84169" lon="-3.52204">
        <ele>46</ele>
        <time>2019-07-15T10:35:25Z</time>
      </trkpt>
      <trkpt lat="47.84172" lon="-3.52203">
        <ele>46</ele>
        <time>2019-07-15T10:35:26Z</time>
      </trkpt>
      <trkpt lat="47.84175" lon="-3.52202">
        <ele>46</ele>
        <time>2019-07-15T10:35:27Z</time>
      </trkpt>
      <trkpt lat="47.84178" lon="-3.52201">
        <ele>45</ele>
        <time>2019-07-15T10:35:28Z</time>
      </trkpt>
      <trkpt lat="47.8418" lon="-3.52199">
        <ele>45</ele>
        <time>2019-07-15T10:35:29Z</time>
      </trkpt>
      <trkpt lat="47.84184" lon="-3.52199">
        <ele>45</ele>
        <time>2019-07-15T10:35:30Z</time>
      </trkpt>
      <trkpt lat="47.84186" lon="-3.52198">
        <ele>45</ele>
        <time>2019-07-15T10:35:31Z</time>
      </trkpt>
      <trkpt lat="47.84189" lon="-3.52196">
        <ele>45</ele>
        <time>2019-07-15T10:35:32Z</time>
      </trkpt>
      <trkpt lat="47.84191" lon="-3.52195">
        <ele>45</ele>
        <time>2019-07-15T10:35:33Z</time>
      </trkpt>
      <trkpt lat="47.84194" lon="-3.52192">
        <ele>45</ele>
        <time>2019-07-15T10:35:34Z</time>
      </trkpt>
      <trkpt lat="47.84198" lon="-3.5219">
        <ele>45</ele>
        <time>2019-07-15T10:35:35Z</time>
      </trkpt>
      <trkpt lat="47.84201" lon="-3.52189">
        <ele>45</ele>
        <time>2019-07-15T10:35:36Z</time>
      </trkpt>
      <trkpt lat="47.84204" lon="-3.52188">
        <ele>45</ele>
        <time>2019-07-15T10:35:37Z</time>
      </trkpt>
      <trkpt lat="47.84207" lon="-3.52189">
        <ele>45</ele>
        <time>2019-07-15T10:35:38Z</time>
      </trkpt>
      <trkpt lat="47.84211" lon="-3.52188">
        <ele>45</ele>
        <time>2019-07-15T10:35:39Z</time>
      </trkpt>
      <trkpt lat="47.84216" lon="-3.52186">
        <ele>45</ele>
        <time>2019-07-15T10:35:40Z</time>
      </trkpt>
      <trkpt lat="47.8422" lon="-3.52184">
        <ele>45</ele>
        <time>2019-07-15T10:35:41Z</time>
      </trkpt>
      <trkpt lat="47.84225" lon="-3.52181">
        <ele>45</ele>
        <time>2019-07-15T10:35:42Z</time>
      </trkpt>
      <trkpt lat="47.84229" lon="-3.52177">
        <ele>45</ele>
        <time>2019-07-15T10:35:43Z</time>
      </trkpt>
      <trkpt lat="47.84233" lon="-3.52175">
        <ele>46</ele>
        <time>2019-07-15T10:35:44Z</time>
      </trkpt>
      <trkpt lat="47.84237" lon="-3.52173">
        <ele>46</ele>
        <time>2019-07-15T10:35:45Z</time>
      </trkpt>
      <trkpt lat="47.84241" lon="-3.5217">
        <ele>46</ele>
        <time>2019-07-15T10:35:46Z</time>
      </trkpt>
      <trkpt lat="47.84245" lon="-3.52168">
        <ele>46</ele>
        <time>2019-07-15T10:35:47Z</time>
      </trkpt>
      <trkpt lat="47.84249" lon="-3.52166">
        <ele>46</ele>
        <time>2019-07-15T10:35:48Z</time>
      </trkpt>
      <trkpt lat="47.84254" lon="-3.52162">
        <ele>46</ele>
        <time>2019-07-15T10:35:49Z</time>
      </trkpt>
      <trkpt lat="47.84259" lon="-3.52159">
        <ele>46</ele>
        <time>2019-07-15T10:35:50Z</time>
      </trkpt>
      <trkpt lat="47.84264" lon="-3.52157">
        <ele>46</ele>
        <time>2019-07-15T10:35:51Z</time>
      </trkpt>
      <trkpt lat="47.84268" lon="-3.52154">
        <ele>46</ele>
        <time>2019-07-15T10:35:52Z</time>
      </trkpt>
      <trkpt lat="47.84273" lon="-3.52151">
        <ele>46</ele>
        <time>2019-07-15T10:35:53Z</time>
      </trkpt>
      <trkpt lat="47.84278" lon="-3.52148">
        <ele>46</ele>
        <time>2019-07-15T10:35:54Z</time>
      </trkpt>
      <trkpt lat="47.84282" lon="-3.52145">
        <ele>46</ele>
        <time>2019-07-15T10:35:55Z</time>
      </trkpt>
      <trkpt lat="47.84288" lon="-3.52141">
        <ele>46</ele>
        <time>2019-07-15T10:35:56Z</time>
      </trkpt>
      <trkpt lat="47.84292" lon="-3.52138">
        <ele>46</ele>
        <time>2019-07-15T10:35:57Z</time>
      </trkpt>
      <trkpt lat="47.84298" lon="-3.52135">
        <ele>46</ele>
        <time>2019-07-15T10:35:58Z</time>
      </trkpt>
      <trkpt lat="47.84302" lon="-3.52132">
        <ele>46</ele>
        <time>2019-07-15T10:35:59Z</time>
      </trkpt>
      <trkpt lat="47.84306" lon="-3.52129">
        <ele>46</ele>
        <time>2019-07-15T10:36:00Z</time>
      </trkpt>
      <trkpt lat="47.8431" lon="-3.52126">
        <ele>46</ele>
        <time>2019-07-15T10:36:01Z</time>
      </trkpt>
      <trkpt lat="47.84312" lon="-3.52123">
        <ele>46</ele>
        <time>2019-07-15T10:36:02Z</time>
      </trkpt>
      <trkpt lat="47.84316" lon="-3.52121">
        <ele>46</ele>
        <time>2019-07-15T10:36:03Z</time>
      </trkpt>
      <trkpt lat="47.8432" lon="-3.5212">
        <ele>46</ele>
        <time>2019-07-15T10:36:04Z</time>
      </trkpt>
      <trkpt lat="47.84325" lon="-3.52117">
        <ele>46</ele>
        <time>2019-07-15T10:36:05Z</time>
      </trkpt>
      <trkpt lat="47.8433" lon="-3.52114">
        <ele>46</ele>
        <time>2019-07-15T10:36:06Z</time>
      </trkpt>
      <trkpt lat="47.84336" lon="-3.52111">
        <ele>46</ele>
        <time>2019-07-15T10:36:07Z</time>
      </trkpt>
      <trkpt lat="47.84342" lon="-3.52108">
        <ele>46</ele>
        <time>2019-07-15T10:36:08Z</time>
      </trkpt>
      <trkpt lat="47.84347" lon="-3.52105">
        <ele>46</ele>
        <time>2019-07-15T10:36:09Z</time>
      </trkpt>
      <trkpt lat="47.84353" lon="-3.52101">
        <ele>46</ele>
        <time>2019-07-15T10:36:10Z</time>
      </trkpt>
      <trkpt lat="47.84358" lon="-3.52098">
        <ele>46</ele>
        <time>2019-07-15T10:36:11Z</time>
      </trkpt>
      <trkpt lat="47.84364" lon="-3.52095">
        <ele>46</ele>
        <time>2019-07-15T10:36:12Z</time>
      </trkpt>
      <trkpt lat="47.8437" lon="-3.52092">
        <ele>46</ele>
        <time>2019-07-15T10:36:13Z</time>
      </trkpt>
      <trkpt lat="47.84375" lon="-3.52088">
        <ele>46</ele>
        <time>2019-07-15T10:36:14Z</time>
      </trkpt>
      <trkpt lat="47.84381" lon="-3.52085">
        <ele>46</ele>
        <time>2019-07-15T10:36:15Z</time>
      </trkpt>
      <trkpt lat="47.84386" lon="-3.52082">
        <ele>46</ele>
        <time>2019-07-15T10:36:16Z</time>
      </trkpt>
      <trkpt lat="47.84392" lon="-3.52078">
        <ele>46</ele>
        <time>2019-07-15T10:36:17Z</time>
      </trkpt>
      <trkpt lat="47.84398" lon="-3.52075">
        <ele>46</ele>
        <time>2019-07-15T10:36:18Z</time>
      </trkpt>
      <trkpt lat="47.84403" lon="-3.52072">
        <ele>46</ele>
        <time>2019-07-15T10:36:19Z</time>
      </trkpt>
      <trkpt lat="47.84408" lon="-3.52068">
        <ele>46</ele>
        <time>2019-07-15T10:36:20Z</time>
      </trkpt>
      <trkpt lat="47.84413" lon="-3.52066">
        <ele>46</ele>
        <time>2019-07-15T10:36:21Z</time>
      </trkpt>
      <trkpt lat="47.84419" lon="-3.52063">
        <ele>46</ele>
        <time>2019-07-15T10:36:22Z</time>
      </trkpt>
      <trkpt lat="47.84424" lon="-3.5206">
        <ele>46</ele>
        <time>2019-07-15T10:36:23Z</time>
      </trkpt>
      <trkpt lat="47.84429" lon="-3.52057">
        <ele>46</ele>
        <time>2019-07-15T10:36:24Z</time>
      </trkpt>
      <trkpt lat="47.84434" lon="-3.52054">
        <ele>46</ele>
        <time>2019-07-15T10:36:25Z</time>
      </trkpt>
      <trkpt lat="47.84439" lon="-3.5205">
        <ele>46</ele>
        <time>2019-07-15T10:36:26Z</time>
      </trkpt>
      <trkpt lat="47.84444" lon="-3.52047">
        <ele>46</ele>
        <time>2019-07-15T10:36:27Z</time>
      </trkpt>
      <trkpt lat="47.84449" lon="-3.52044">
        <ele>46</ele>
        <time>2019-07-15T10:36:28Z</time>
      </trkpt>
      <trkpt lat="47.84455" lon="-3.52041">
        <ele>46</ele>
        <time>2019-07-15T10:36:29Z</time>
      </trkpt>
      <trkpt lat="47.8446" lon="-3.52038">
        <ele>46</ele>
        <time>2019-07-15T10:36:30Z</time>
      </trkpt>
      <trkpt lat="47.84465" lon="-3.52036">
        <ele>46</ele>
        <time>2019-07-15T10:36:31Z</time>
      </trkpt>
      <trkpt lat="47.84469" lon="-3.52034">
        <ele>46</ele>
        <time>2019-07-15T10:36:32Z</time>
      </trkpt>
      <trkpt lat="47.84473" lon="-3.52032">
        <ele>46</ele>
        <time>2019-07-15T10:36:33Z</time>
      </trkpt>
      <trkpt lat="47.84477" lon="-3.52029">
        <ele>46</ele>
        <time>2019-07-15T10:36:34Z</time>
      </trkpt>
      <trkpt lat="47.84482" lon="-3.52026">
        <ele>46</ele>
        <time>2019-07-15T10:36:35Z</time>
      </trkpt>
      <trkpt lat="47.84486" lon="-3.52024">
        <ele>46</ele>
        <time>2019-07-15T10:36:36Z</time>
      </trkpt>
      <trkpt lat="47.84491" lon="-3.52022">
        <ele>45</ele>
        <time>2019-07-15T10:36:37Z</time>
      </trkpt>
      <trkpt lat="47.84495" lon="-3.5202">
        <ele>45</ele>
        <time>2019-07-15T10:36:38Z</time>
      </trkpt>
      <trkpt lat="47.845" lon="-3.52018">
        <ele>45</ele>
        <time>2019-07-15T10:36:39Z</time>
      </trkpt>
      <trkpt lat="47.84504" lon="-3.52015">
        <ele>45</ele>
        <time>2019-07-15T10:36:40Z</time>
      </trkpt>
      <trkpt lat="47.84508" lon="-3.52013">
        <ele>45</ele>
        <time>2019-07-15T10:36:41Z</time>
      </trkpt>
      <trkpt lat="47.84513" lon="-3.52011">
        <ele>45</ele>
        <time>2019-07-15T10:36:42Z</time>
      </trkpt>
      <trkpt lat="47.84518" lon="-3.52008">
        <ele>45</ele>
        <time>2019-07-15T10:36:43Z</time>
      </trkpt>
      <trkpt lat="47.84523" lon="-3.52006">
        <ele>45</ele>
        <time>2019-07-15T10:36:44Z</time>
      </trkpt>
      <trkpt lat="47.84528" lon="-3.52004">
        <ele>45</ele>
        <time>2019-07-15T10:36:45Z</time>
      </trkpt>
      <trkpt lat="47.84533" lon="-3.52002">
        <ele>45</ele>
        <time>2019-07-15T10:36:46Z</time>
      </trkpt>
      <trkpt lat="47.84537" lon="-3.52">
        <ele>46</ele>
        <time>2019-07-15T10:36:47Z</time>
      </trkpt>
      <trkpt lat="47.84542" lon="-3.51997">
        <ele>46</ele>
        <time>2019-07-15T10:36:48Z</time>
      </trkpt>
      <trkpt lat="47.84547" lon="-3.51995">
        <ele>46</ele>
        <time>2019-07-15T10:36:49Z</time>
      </trkpt>
      <trkpt lat="47.84551" lon="-3.51993">
        <ele>46</ele>
        <time>2019-07-15T10:36:50Z</time>
      </trkpt>
      <trkpt lat="47.84556" lon="-3.5199">
        <ele>46</ele>
        <time>2019-07-15T10:36:51Z</time>
      </trkpt>
      <trkpt lat="47.8456" lon="-3.51988">
        <ele>46</ele>
        <time>2019-07-15T10:36:52Z</time>
      </trkpt>
      <trkpt lat="47.84564" lon="-3.51986">
        <ele>46</ele>
        <time>2019-07-15T10:36:53Z</time>
      </trkpt>
      <trkpt lat="47.84568" lon="-3.51984">
        <ele>47</ele>
        <time>2019-07-15T10:36:54Z</time>
      </trkpt>
      <trkpt lat="47.84572" lon="-3.51982">
        <ele>47</ele>
        <time>2019-07-15T10:36:55Z</time>
      </trkpt>
      <trkpt lat="47.84576" lon="-3.5198">
        <ele>47</ele>
        <time>2019-07-15T10:36:56Z</time>
      </trkpt>
      <trkpt lat="47.8458" lon="-3.51979">
        <ele>47</ele>
        <time>2019-07-15T10:36:57Z</time>
      </trkpt>
      <trkpt lat="47.84584" lon="-3.51977">
        <ele>47</ele>
        <time>2019-07-15T10:36:58Z</time>
      </trkpt>
      <trkpt lat="47.84587" lon="-3.51976">
        <ele>48</ele>
        <time>2019-07-15T10:36:59Z</time>
      </trkpt>
      <trkpt lat="47.84591" lon="-3.51975">
        <ele>48</ele>
        <time>2019-07-15T10:37:00Z</time>
      </trkpt>
      <trkpt lat="47.84595" lon="-3.51973">
        <ele>48</ele>
        <time>2019-07-15T10:37:01Z</time>
      </trkpt>
      <trkpt lat="47.84599" lon="-3.51972">
        <ele>48</ele>
        <time>2019-07-15T10:37:02Z</time>
      </trkpt>
      <trkpt lat="47.84602" lon="-3.51971">
        <ele>48</ele>
        <time>2019-07-15T10:37:03Z</time>
      </trkpt>
      <trkpt lat="47.84606" lon="-3.5197">
        <ele>48</ele>
        <time>2019-07-15T10:37:04Z</time>
      </trkpt>
      <trkpt lat="47.8461" lon="-3.51968">
        <ele>48</ele>
        <time>2019-07-15T10:37:05Z</time>
      </trkpt>
      <trkpt lat="47.84613" lon="-3.51967">
        <ele>49</ele>
        <time>2019-07-15T10:37:06Z</time>
      </trkpt>
      <trkpt lat="47.84617" lon="-3.51966">
        <ele>49</ele>
        <time>2019-07-15T10:37:07Z</time>
      </trkpt>
      <trkpt lat="47.8462" lon="-3.51966">
        <ele>49</ele>
        <time>2019-07-15T10:37:08Z</time>
      </trkpt>
      <trkpt lat="47.84623" lon="-3.51966">
        <ele>49</ele>
        <time>2019-07-15T10:37:09Z</time>
      </trkpt>
      <trkpt lat="47.84626" lon="-3.51965">
        <ele>49</ele>
        <time>2019-07-15T10:37:10Z</time>
      </trkpt>
      <trkpt lat="47.84628" lon="-3.51964">
        <ele>50</ele>
        <time>2019-07-15T10:37:11Z</time>
      </trkpt>
      <trkpt lat="47.84631" lon="-3.51964">
        <ele>50</ele>
        <time>2019-07-15T10:37:12Z</time>
      </trkpt>
      <trkpt lat="47.84634" lon="-3.51963">
        <ele>50</ele>
        <time>2019-07-15T10:37:13Z</time>
      </trkpt>
      <trkpt lat="47.84636" lon="-3.51963">
        <ele>50</ele>
        <time>2019-07-15T10:37:14Z</time>
      </trkpt>
      <trkpt lat="47.84639" lon="-3.51961">
        <ele>50</ele>
        <time>2019-07-15T10:37:15Z</time>
      </trkpt>
      <trkpt lat="47.84642" lon="-3.5196">
        <ele>50</ele>
        <time>2019-07-15T10:37:16Z</time>
      </trkpt>
      <trkpt lat="47.84645" lon="-3.51957">
        <ele>51</ele>
        <time>2019-07-15T10:37:17Z</time>
      </trkpt>
      <trkpt lat="47.84648" lon="-3.51956">
        <ele>51</ele>
        <time>2019-07-15T10:37:18Z</time>
      </trkpt>
      <trkpt lat="47.8465" lon="-3.51954">
        <ele>51</ele>
        <time>2019-07-15T10:37:19Z</time>
      </trkpt>
      <trkpt lat="47.84653" lon="-3.51952">
        <ele>51</ele>
        <time>2019-07-15T10:37:20Z</time>
      </trkpt>
      <trkpt lat="47.84658" lon="-3.51948">
        <ele>51</ele>
        <time>2019-07-15T10:37:21Z</time>
      </trkpt>
      <trkpt lat="47.84661" lon="-3.51945">
        <ele>51</ele>
        <time>2019-07-15T10:37:22Z</time>
      </trkpt>
      <trkpt lat="47.84664" lon="-3.51943">
        <ele>51</ele>
        <time>2019-07-15T10:37:23Z</time>
      </trkpt>
      <trkpt lat="47.84668" lon="-3.5194">
        <ele>51</ele>
        <time>2019-07-15T10:37:24Z</time>
      </trkpt>
      <trkpt lat="47.84673" lon="-3.51937">
        <ele>51</ele>
        <time>2019-07-15T10:37:25Z</time>
      </trkpt>
      <trkpt lat="47.84677" lon="-3.51934">
        <ele>51</ele>
        <time>2019-07-15T10:37:26Z</time>
      </trkpt>
      <trkpt lat="47.84682" lon="-3.5193">
        <ele>51</ele>
        <time>2019-07-15T10:37:27Z</time>
      </trkpt>
      <trkpt lat="47.84686" lon="-3.51926">
        <ele>51</ele>
        <time>2019-07-15T10:37:28Z</time>
      </trkpt>
      <trkpt lat="47.84692" lon="-3.51922">
        <ele>51</ele>
        <time>2019-07-15T10:37:29Z</time>
      </trkpt>
      <trkpt lat="47.84697" lon="-3.51918">
        <ele>51</ele>
        <time>2019-07-15T10:37:30Z</time>
      </trkpt>
      <trkpt lat="47.84703" lon="-3.51914">
        <ele>51</ele>
        <time>2019-07-15T10:37:31Z</time>
      </trkpt>
      <trkpt lat="47.84709" lon="-3.51908">
        <ele>51</ele>
        <time>2019-07-15T10:37:32Z</time>
      </trkpt>
      <trkpt lat="47.84715" lon="-3.51903">
        <ele>51</ele>
        <time>2019-07-15T10:37:33Z</time>
      </trkpt>
      <trkpt lat="47.84721" lon="-3.51897">
        <ele>51</ele>
        <time>2019-07-15T10:37:34Z</time>
      </trkpt>
      <trkpt lat="47.84728" lon="-3.51892">
        <ele>51</ele>
        <time>2019-07-15T10:37:35Z</time>
      </trkpt>
      <trkpt lat="47.84736" lon="-3.51886">
        <ele>51</ele>
        <time>2019-07-15T10:37:36Z</time>
      </trkpt>
      <trkpt lat="47.84742" lon="-3.5188">
        <ele>51</ele>
        <time>2019-07-15T10:37:37Z</time>
      </trkpt>
      <trkpt lat="47.8475" lon="-3.51874">
        <ele>51</ele>
        <time>2019-07-15T10:37:38Z</time>
      </trkpt>
      <trkpt lat="47.84757" lon="-3.5187">
        <ele>50</ele>
        <time>2019-07-15T10:37:39Z</time>
      </trkpt>
      <trkpt lat="47.84764" lon="-3.51865">
        <ele>50</ele>
        <time>2019-07-15T10:37:40Z</time>
      </trkpt>
      <trkpt lat="47.84771" lon="-3.51862">
        <ele>50</ele>
        <time>2019-07-15T10:37:41Z</time>
      </trkpt>
      <trkpt lat="47.84779" lon="-3.51858">
        <ele>49</ele>
        <time>2019-07-15T10:37:42Z</time>
      </trkpt>
      <trkpt lat="47.84787" lon="-3.51855">
        <ele>49</ele>
        <time>2019-07-15T10:37:43Z</time>
      </trkpt>
      <trkpt lat="47.84794" lon="-3.51854">
        <ele>49</ele>
        <time>2019-07-15T10:37:44Z</time>
      </trkpt>
      <trkpt lat="47.84801" lon="-3.51854">
        <ele>49</ele>
        <time>2019-07-15T10:37:45Z</time>
      </trkpt>
      <trkpt lat="47.84809" lon="-3.51856">
        <ele>49</ele>
        <time>2019-07-15T10:37:46Z</time>
      </trkpt>
      <trkpt lat="47.84816" lon="-3.51859">
        <ele>49</ele>
        <time>2019-07-15T10:37:47Z</time>
      </trkpt>
      <trkpt lat="47.84823" lon="-3.51864">
        <ele>49</ele>
        <time>2019-07-15T10:37:48Z</time>
      </trkpt>
      <trkpt lat="47.8483" lon="-3.51869">
        <ele>48</ele>
        <time>2019-07-15T10:37:49Z</time>
      </trkpt>
      <trkpt lat="47.84838" lon="-3.51873">
        <ele>48</ele>
        <time>2019-07-15T10:37:50Z</time>
      </trkpt>
      <trkpt lat="47.84845" lon="-3.5188">
        <ele>48</ele>
        <time>2019-07-15T10:37:51Z</time>
      </trkpt>
      <trkpt lat="47.84852" lon="-3.51886">
        <ele>48</ele>
        <time>2019-07-15T10:37:52Z</time>
      </trkpt>
      <trkpt lat="47.84859" lon="-3.51891">
        <ele>48</ele>
        <time>2019-07-15T10:37:53Z</time>
      </trkpt>
      <trkpt lat="47.84866" lon="-3.51895">
        <ele>48</ele>
        <time>2019-07-15T10:37:54Z</time>
      </trkpt>
      <trkpt lat="47.84872" lon="-3.51898">
        <ele>47</ele>
        <time>2019-07-15T10:37:55Z</time>
      </trkpt>
      <trkpt lat="47.84877" lon="-3.519">
        <ele>47</ele>
        <time>2019-07-15T10:37:56Z</time>
      </trkpt>
      <trkpt lat="47.84881" lon="-3.51902">
        <ele>47</ele>
        <time>2019-07-15T10:37:57Z</time>
      </trkpt>
      <trkpt lat="47.84885" lon="-3.51905">
        <ele>47</ele>
        <time>2019-07-15T10:37:58Z</time>
      </trkpt>
      <trkpt lat="47.84889" lon="-3.51906">
        <ele>47</ele>
        <time>2019-07-15T10:37:59Z</time>
      </trkpt>
      <trkpt lat="47.84893" lon="-3.51907">
        <ele>47</ele>
        <time>2019-07-15T10:38:00Z</time>
      </trkpt>
      <trkpt lat="47.84896" lon="-3.51906">
        <ele>47</ele>
        <time>2019-07-15T10:38:01Z</time>
      </trkpt>
      <trkpt lat="47.84899" lon="-3.51901">
        <ele>47</ele>
        <time>2019-07-15T10:38:02Z</time>
      </trkpt>
      <trkpt lat="47.84903" lon="-3.51894">
        <ele>47</ele>
        <time>2019-07-15T10:38:03Z</time>
      </trkpt>
      <trkpt lat="47.84907" lon="-3.51888">
        <ele>47</ele>
        <time>2019-07-15T10:38:04Z</time>
      </trkpt>
      <trkpt lat="47.84913" lon="-3.51882">
        <ele>47</ele>
        <time>2019-07-15T10:38:05Z</time>
      </trkpt>
      <trkpt lat="47.8492" lon="-3.51877">
        <ele>46</ele>
        <time>2019-07-15T10:38:06Z</time>
      </trkpt>
      <trkpt lat="47.84927" lon="-3.51873">
        <ele>46</ele>
        <time>2019-07-15T10:38:07Z</time>
      </trkpt>
      <trkpt lat="47.84933" lon="-3.51871">
        <ele>46</ele>
        <time>2019-07-15T10:38:08Z</time>
      </trkpt>
      <trkpt lat="47.84939" lon="-3.51871">
        <ele>46</ele>
        <time>2019-07-15T10:38:09Z</time>
      </trkpt>
      <trkpt lat="47.84945" lon="-3.51872">
        <ele>46</ele>
        <time>2019-07-15T10:38:10Z</time>
      </trkpt>
      <trkpt lat="47.8495" lon="-3.51873">
        <ele>46</ele>
        <time>2019-07-15T10:38:11Z</time>
      </trkpt>
      <trkpt lat="47.84954" lon="-3.51874">
        <ele>45</ele>
        <time>2019-07-15T10:38:12Z</time>
      </trkpt>
      <trkpt lat="47.84958" lon="-3.51875">
        <ele>45</ele>
        <time>2019-07-15T10:38:13Z</time>
      </trkpt>
      <trkpt lat="47.84962" lon="-3.51875">
        <ele>45</ele>
        <time>2019-07-15T10:38:14Z</time>
      </trkpt>
      <trkpt lat="47.84965" lon="-3.51876">
        <ele>45</ele>
        <time>2019-07-15T10:38:15Z</time>
      </trkpt>
      <trkpt lat="47.84969" lon="-3.51876">
        <ele>45</ele>
        <time>2019-07-15T10:38:16Z</time>
      </trkpt>
      <trkpt lat="47.84972" lon="-3.51876">
        <ele>45</ele>
        <time>2019-07-15T10:38:17Z</time>
      </trkpt>
      <trkpt lat="47.84975" lon="-3.51875">
        <ele>45</ele>
        <time>2019-07-15T10:38:18Z</time>
      </trkpt>
      <trkpt lat="47.84979" lon="-3.51874">
        <ele>44</ele>
        <time>2019-07-15T10:38:19Z</time>
      </trkpt>
      <trkpt lat="47.84982" lon="-3.51873">
        <ele>44</ele>
        <time>2019-07-15T10:38:20Z</time>
      </trkpt>
      <trkpt lat="47.84985" lon="-3.51871">
        <ele>44</ele>
        <time>2019-07-15T10:38:21Z</time>
      </trkpt>
      <trkpt lat="47.84988" lon="-3.5187">
        <ele>44</ele>
        <time>2019-07-15T10:38:22Z</time>
      </trkpt>
      <trkpt lat="47.84992" lon="-3.51868">
        <ele>44</ele>
        <time>2019-07-15T10:38:23Z</time>
      </trkpt>
      <trkpt lat="47.84995" lon="-3.51866">
        <ele>44</ele>
        <time>2019-07-15T10:38:24Z</time>
      </trkpt>
      <trkpt lat="47.84998" lon="-3.51863">
        <ele>44</ele>
        <time>2019-07-15T10:38:25Z</time>
      </trkpt>
      <trkpt lat="47.85001" lon="-3.51862">
        <ele>44</ele>
        <time>2019-07-15T10:38:26Z</time>
      </trkpt>
      <trkpt lat="47.85003" lon="-3.5186">
        <ele>44</ele>
        <time>2019-07-15T10:38:27Z</time>
      </trkpt>
      <trkpt lat="47.85006" lon="-3.51857">
        <ele>44</ele>
        <time>2019-07-15T10:38:28Z</time>
      </trkpt>
      <trkpt lat="47.85009" lon="-3.51855">
        <ele>44</ele>
        <time>2019-07-15T10:38:29Z</time>
      </trkpt>
      <trkpt lat="47.85011" lon="-3.51852">
        <ele>44</ele>
        <time>2019-07-15T10:38:30Z</time>
      </trkpt>
      <trkpt lat="47.85014" lon="-3.51849">
        <ele>44</ele>
        <time>2019-07-15T10:38:31Z</time>
      </trkpt>
      <trkpt lat="47.85017" lon="-3.51846">
        <ele>44</ele>
        <time>2019-07-15T10:38:32Z</time>
      </trkpt>
      <trkpt lat="47.85019" lon="-3.51843">
        <ele>44</ele>
        <time>2019-07-15T10:38:33Z</time>
      </trkpt>
      <trkpt lat="47.85021" lon="-3.5184">
        <ele>44</ele>
        <time>2019-07-15T10:38:34Z</time>
      </trkpt>
      <trkpt lat="47.85023" lon="-3.51838">
        <ele>44</ele>
        <time>2019-07-15T10:38:35Z</time>
      </trkpt>
      <trkpt lat="47.85024" lon="-3.51835">
        <ele>44</ele>
        <time>2019-07-15T10:38:36Z</time>
      </trkpt>
      <trkpt lat="47.85026" lon="-3.51834">
        <ele>44</ele>
        <time>2019-07-15T10:38:37Z</time>
      </trkpt>
      <trkpt lat="47.85027" lon="-3.51832">
        <ele>44</ele>
        <time>2019-07-15T10:38:38Z</time>
      </trkpt>
      <trkpt lat="47.85029" lon="-3.51829">
        <ele>44</ele>
        <time>2019-07-15T10:38:39Z</time>
      </trkpt>
      <trkpt lat="47.85032" lon="-3.51827">
        <ele>44</ele>
        <time>2019-07-15T10:38:40Z</time>
      </trkpt>
      <trkpt lat="47.85035" lon="-3.51825">
        <ele>44</ele>
        <time>2019-07-15T10:38:41Z</time>
      </trkpt>
      <trkpt lat="47.85037" lon="-3.51823">
        <ele>44</ele>
        <time>2019-07-15T10:38:42Z</time>
      </trkpt>
      <trkpt lat="47.8504" lon="-3.51822">
        <ele>44</ele>
        <time>2019-07-15T10:38:43Z</time>
      </trkpt>
      <trkpt lat="47.85042" lon="-3.51822">
        <ele>44</ele>
        <time>2019-07-15T10:38:44Z</time>
      </trkpt>
      <trkpt lat="47.85045" lon="-3.51823">
        <ele>44</ele>
        <time>2019-07-15T10:38:45Z</time>
      </trkpt>
      <trkpt lat="47.85047" lon="-3.51826">
        <ele>44</ele>
        <time>2019-07-15T10:38:46Z</time>
      </trkpt>
      <trkpt lat="47.8505" lon="-3.51829">
        <ele>43</ele>
        <time>2019-07-15T10:38:47Z</time>
      </trkpt>
      <trkpt lat="47.85052" lon="-3.51832">
        <ele>43</ele>
        <time>2019-07-15T10:38:48Z</time>
      </trkpt>
      <trkpt lat="47.85054" lon="-3.51835">
        <ele>43</ele>
        <time>2019-07-15T10:38:49Z</time>
      </trkpt>
      <trkpt lat="47.85056" lon="-3.51838">
        <ele>43</ele>
        <time>2019-07-15T10:38:50Z</time>
      </trkpt>
      <trkpt lat="47.85057" lon="-3.51841">
        <ele>43</ele>
        <time>2019-07-15T10:38:51Z</time>
      </trkpt>
      <trkpt lat="47.85058" lon="-3.51844">
        <ele>43</ele>
        <time>2019-07-15T10:38:52Z</time>
      </trkpt>
      <trkpt lat="47.85059" lon="-3.51846">
        <ele>42</ele>
        <time>2019-07-15T10:38:53Z</time>
      </trkpt>
      <trkpt lat="47.85061" lon="-3.51848">
        <ele>42</ele>
        <time>2019-07-15T10:38:54Z</time>
      </trkpt>
      <trkpt lat="47.85063" lon="-3.5185">
        <ele>42</ele>
        <time>2019-07-15T10:38:55Z</time>
      </trkpt>
      <trkpt lat="47.85064" lon="-3.51852">
        <ele>42</ele>
        <time>2019-07-15T10:38:56Z</time>
      </trkpt>
      <trkpt lat="47.85066" lon="-3.51854">
        <ele>42</ele>
        <time>2019-07-15T10:38:57Z</time>
      </trkpt>
      <trkpt lat="47.85067" lon="-3.51856">
        <ele>41</ele>
        <time>2019-07-15T10:38:58Z</time>
      </trkpt>
      <trkpt lat="47.85068" lon="-3.51858">
        <ele>41</ele>
        <time>2019-07-15T10:38:59Z</time>
      </trkpt>
      <trkpt lat="47.85069" lon="-3.51859">
        <ele>41</ele>
        <time>2019-07-15T10:39:00Z</time>
      </trkpt>
      <trkpt lat="47.8507" lon="-3.51861">
        <ele>41</ele>
        <time>2019-07-15T10:39:01Z</time>
      </trkpt>
      <trkpt lat="47.85071" lon="-3.51863">
        <ele>41</ele>
        <time>2019-07-15T10:39:02Z</time>
      </trkpt>
      <trkpt lat="47.85072" lon="-3.51865">
        <ele>41</ele>
        <time>2019-07-15T10:39:03Z</time>
      </trkpt>
      <trkpt lat="47.85073" lon="-3.51868">
        <ele>42</ele>
        <time>2019-07-15T10:39:04Z</time>
      </trkpt>
      <trkpt lat="47.85074" lon="-3.5187">
        <ele>42</ele>
        <time>2019-07-15T10:39:05Z</time>
      </trkpt>
      <trkpt lat="47.85075" lon="-3.51872">
        <ele>42</ele>
        <time>2019-07-15T10:39:06Z</time>
      </trkpt>
      <trkpt lat="47.85076" lon="-3.51875">
        <ele>42</ele>
        <time>2019-07-15T10:39:07Z</time>
      </trkpt>
      <trkpt lat="47.85077" lon="-3.51877">
        <ele>42</ele>
        <time>2019-07-15T10:39:08Z</time>
      </trkpt>
      <trkpt lat="47.85078" lon="-3.51879">
        <ele>42</ele>
        <time>2019-07-15T10:39:09Z</time>
      </trkpt>
      <trkpt lat="47.85079" lon="-3.51881">
        <ele>42</ele>
        <time>2019-07-15T10:39:10Z</time>
      </trkpt>
      <trkpt lat="47.8508" lon="-3.51883">
        <ele>42</ele>
        <time>2019-07-15T10:39:11Z</time>
      </trkpt>
      <trkpt lat="47.8508" lon="-3.51885">
        <ele>42</ele>
        <time>2019-07-15T10:39:12Z</time>
      </trkpt>
      <trkpt lat="47.85081" lon="-3.51887">
        <ele>42</ele>
        <time>2019-07-15T10:39:13Z</time>
      </trkpt>
      <trkpt lat="47.85081" lon="-3.51888">
        <ele>42</ele>
        <time>2019-07-15T10:39:14Z</time>
      </trkpt>
      <trkpt lat="47.85081" lon="-3.5189">
        <ele>43</ele>
        <time>2019-07-15T10:39:15Z</time>
      </trkpt>
      <trkpt lat="47.8508" lon="-3.51891">
        <ele>43</ele>
        <time>2019-07-15T10:39:16Z</time>
      </trkpt>
      <trkpt lat="47.8508" lon="-3.51893">
        <ele>43</ele>
        <time>2019-07-15T10:39:17Z</time>
      </trkpt>
      <trkpt lat="47.8508" lon="-3.51893">
        <ele>43</ele>
        <time>2019-07-15T10:39:18Z</time>
      </trkpt>
      <trkpt lat="47.8508" lon="-3.51894">
        <ele>43</ele>
        <time>2019-07-15T10:39:19Z</time>
      </trkpt>
      <trkpt lat="47.8508" lon="-3.51894">
        <ele>43</ele>
        <time>2019-07-15T10:39:20Z</time>
      </trkpt>
      <trkpt lat="47.8508" lon="-3.51894">
        <ele>43</ele>
        <time>2019-07-15T10:39:21Z</time>
      </trkpt>
      <trkpt lat="47.85084" lon="-3.51898">
        <ele>45</ele>
        <time>2019-07-15T10:39:22Z</time>
      </trkpt>
      <trkpt lat="47.85086" lon="-3.51899">
        <ele>45</ele>
        <time>2019-07-15T10:39:23Z</time>
      </trkpt>
      <trkpt lat="47.85088" lon="-3.519">
        <ele>45</ele>
        <time>2019-07-15T10:39:24Z</time>
      </trkpt>
      <trkpt lat="47.8509" lon="-3.51902">
        <ele>45</ele>
        <time>2019-07-15T10:39:25Z</time>
      </trkpt>
      <trkpt lat="47.85092" lon="-3.51903">
        <ele>45</ele>
        <time>2019-07-15T10:39:26Z</time>
      </trkpt>
      <trkpt lat="47.85095" lon="-3.51905">
        <ele>45</ele>
        <time>2019-07-15T10:39:27Z</time>
      </trkpt>
      <trkpt lat="47.85097" lon="-3.51906">
        <ele>45</ele>
        <time>2019-07-15T10:39:28Z</time>
      </trkpt>
      <trkpt lat="47.85099" lon="-3.51907">
        <ele>45</ele>
        <time>2019-07-15T10:39:29Z</time>
      </trkpt>
      <trkpt lat="47.85102" lon="-3.51909">
        <ele>45</ele>
        <time>2019-07-15T10:39:30Z</time>
      </trkpt>
      <trkpt lat="47.85105" lon="-3.5191">
        <ele>45</ele>
        <time>2019-07-15T10:39:31Z</time>
      </trkpt>
      <trkpt lat="47.85108" lon="-3.51912">
        <ele>45</ele>
        <time>2019-07-15T10:39:32Z</time>
      </trkpt>
      <trkpt lat="47.85111" lon="-3.51914">
        <ele>45</ele>
        <time>2019-07-15T10:39:33Z</time>
      </trkpt>
      <trkpt lat="47.85113" lon="-3.51916">
        <ele>45</ele>
        <time>2019-07-15T10:39:34Z</time>
      </trkpt>
      <trkpt lat="47.85115" lon="-3.51916">
        <ele>45</ele>
        <time>2019-07-15T10:39:35Z</time>
      </trkpt>
      <trkpt lat="47.85118" lon="-3.51917">
        <ele>44</ele>
        <time>2019-07-15T10:39:36Z</time>
      </trkpt>
      <trkpt lat="47.85119" lon="-3.51918">
        <ele>44</ele>
        <time>2019-07-15T10:39:37Z</time>
      </trkpt>
      <trkpt lat="47.85122" lon="-3.51919">
        <ele>44</ele>
        <time>2019-07-15T10:39:38Z</time>
      </trkpt>
      <trkpt lat="47.85125" lon="-3.5192">
        <ele>44</ele>
        <time>2019-07-15T10:39:39Z</time>
      </trkpt>
      <trkpt lat="47.85127" lon="-3.51921">
        <ele>44</ele>
        <time>2019-07-15T10:39:40Z</time>
      </trkpt>
      <trkpt lat="47.8513" lon="-3.51922">
        <ele>44</ele>
        <time>2019-07-15T10:39:41Z</time>
      </trkpt>
      <trkpt lat="47.85132" lon="-3.51923">
        <ele>44</ele>
        <time>2019-07-15T10:39:42Z</time>
      </trkpt>
      <trkpt lat="47.85135" lon="-3.51925">
        <ele>44</ele>
        <time>2019-07-15T10:39:43Z</time>
      </trkpt>
      <trkpt lat="47.85138" lon="-3.51926">
        <ele>44</ele>
        <time>2019-07-15T10:39:44Z</time>
      </trkpt>
      <trkpt lat="47.85141" lon="-3.51927">
        <ele>44</ele>
        <time>2019-07-15T10:39:45Z</time>
      </trkpt>
      <trkpt lat="47.85144" lon="-3.51928">
        <ele>44</ele>
        <time>2019-07-15T10:39:46Z</time>
      </trkpt>
      <trkpt lat="47.85146" lon="-3.5193">
        <ele>44</ele>
        <time>2019-07-15T10:39:47Z</time>
      </trkpt>
      <trkpt lat="47.85149" lon="-3.51931">
        <ele>45</ele>
        <time>2019-07-15T10:39:48Z</time>
      </trkpt>
      <trkpt lat="47.85151" lon="-3.51932">
        <ele>45</ele>
        <time>2019-07-15T10:39:49Z</time>
      </trkpt>
      <trkpt lat="47.85153" lon="-3.51934">
        <ele>45</ele>
        <time>2019-07-15T10:39:50Z</time>
      </trkpt>
      <trkpt lat="47.85155" lon="-3.51936">
        <ele>45</ele>
        <time>2019-07-15T10:39:51Z</time>
      </trkpt>
      <trkpt lat="47.85157" lon="-3.51939">
        <ele>45</ele>
        <time>2019-07-15T10:39:52Z</time>
      </trkpt>
      <trkpt lat="47.85159" lon="-3.51941">
        <ele>45</ele>
        <time>2019-07-15T10:39:53Z</time>
      </trkpt>
      <trkpt lat="47.85161" lon="-3.51944">
        <ele>45</ele>
        <time>2019-07-15T10:39:54Z</time>
      </trkpt>
      <trkpt lat="47.85163" lon="-3.51947">
        <ele>45</ele>
        <time>2019-07-15T10:39:55Z</time>
      </trkpt>
      <trkpt lat="47.85165" lon="-3.51951">
        <ele>45</ele>
        <time>2019-07-15T10:39:56Z</time>
      </trkpt>
      <trkpt lat="47.85168" lon="-3.51954">
        <ele>45</ele>
        <time>2019-07-15T10:39:57Z</time>
      </trkpt>
      <trkpt lat="47.8517" lon="-3.51957">
        <ele>45</ele>
        <time>2019-07-15T10:39:58Z</time>
      </trkpt>
      <trkpt lat="47.85172" lon="-3.51961">
        <ele>45</ele>
        <time>2019-07-15T10:39:59Z</time>
      </trkpt>
      <trkpt lat="47.85175" lon="-3.51964">
        <ele>45</ele>
        <time>2019-07-15T10:40:00Z</time>
      </trkpt>
      <trkpt lat="47.85177" lon="-3.51966">
        <ele>45</ele>
        <time>2019-07-15T10:40:01Z</time>
      </trkpt>
      <trkpt lat="47.85178" lon="-3.5197">
        <ele>45</ele>
        <time>2019-07-15T10:40:02Z</time>
      </trkpt>
      <trkpt lat="47.8518" lon="-3.51974">
        <ele>45</ele>
        <time>2019-07-15T10:40:03Z</time>
      </trkpt>
      <trkpt lat="47.85182" lon="-3.51978">
        <ele>45</ele>
        <time>2019-07-15T10:40:04Z</time>
      </trkpt>
      <trkpt lat="47.85184" lon="-3.51982">
        <ele>45</ele>
        <time>2019-07-15T10:40:05Z</time>
      </trkpt>
      <trkpt lat="47.85186" lon="-3.51986">
        <ele>45</ele>
        <time>2019-07-15T10:40:06Z</time>
      </trkpt>
      <trkpt lat="47.85188" lon="-3.51989">
        <ele>45</ele>
        <time>2019-07-15T10:40:07Z</time>
      </trkpt>
      <trkpt lat="47.8519" lon="-3.51992">
        <ele>45</ele>
        <time>2019-07-15T10:40:08Z</time>
      </trkpt>
      <trkpt lat="47.85193" lon="-3.51995">
        <ele>45</ele>
        <time>2019-07-15T10:40:09Z</time>
      </trkpt>
      <trkpt lat="47.85195" lon="-3.51997">
        <ele>46</ele>
        <time>2019-07-15T10:40:10Z</time>
      </trkpt>
      <trkpt lat="47.85199" lon="-3.51999">
        <ele>46</ele>
        <time>2019-07-15T10:40:11Z</time>
      </trkpt>
      <trkpt lat="47.85202" lon="-3.52001">
        <ele>46</ele>
        <time>2019-07-15T10:40:12Z</time>
      </trkpt>
      <trkpt lat="47.85205" lon="-3.52004">
        <ele>46</ele>
        <time>2019-07-15T10:40:13Z</time>
      </trkpt>
      <trkpt lat="47.85208" lon="-3.52006">
        <ele>46</ele>
        <time>2019-07-15T10:40:14Z</time>
      </trkpt>
      <trkpt lat="47.85211" lon="-3.52008">
        <ele>46</ele>
        <time>2019-07-15T10:40:15Z</time>
      </trkpt>
      <trkpt lat="47.85214" lon="-3.5201">
        <ele>46</ele>
        <time>2019-07-15T10:40:16Z</time>
      </trkpt>
      <trkpt lat="47.85217" lon="-3.52013">
        <ele>47</ele>
        <time>2019-07-15T10:40:17Z</time>
      </trkpt>
      <trkpt lat="47.8522" lon="-3.52016">
        <ele>47</ele>
        <time>2019-07-15T10:40:18Z</time>
      </trkpt>
      <trkpt lat="47.85223" lon="-3.5202">
        <ele>47</ele>
        <time>2019-07-15T10:40:19Z</time>
      </trkpt>
      <trkpt lat="47.85226" lon="-3.52022">
        <ele>47</ele>
        <time>2019-07-15T10:40:20Z</time>
      </trkpt>
      <trkpt lat="47.8523" lon="-3.52024">
        <ele>47</ele>
        <time>2019-07-15T10:40:21Z</time>
      </trkpt>
      <trkpt lat="47.85234" lon="-3.52025">
        <ele>48</ele>
        <time>2019-07-15T10:40:22Z</time>
      </trkpt>
      <trkpt lat="47.85237" lon="-3.52027">
        <ele>48</ele>
        <time>2019-07-15T10:40:23Z</time>
      </trkpt>
      <trkpt lat="47.85241" lon="-3.5203">
        <ele>48</ele>
        <time>2019-07-15T10:40:24Z</time>
      </trkpt>
      <trkpt lat="47.85243" lon="-3.52032">
        <ele>48</ele>
        <time>2019-07-15T10:40:25Z</time>
      </trkpt>
      <trkpt lat="47.85245" lon="-3.52034">
        <ele>49</ele>
        <time>2019-07-15T10:40:26Z</time>
      </trkpt>
      <trkpt lat="47.85247" lon="-3.52037">
        <ele>49</ele>
        <time>2019-07-15T10:40:27Z</time>
      </trkpt>
      <trkpt lat="47.85249" lon="-3.5204">
        <ele>49</ele>
        <time>2019-07-15T10:40:28Z</time>
      </trkpt>
      <trkpt lat="47.85252" lon="-3.52043">
        <ele>49</ele>
        <time>2019-07-15T10:40:29Z</time>
      </trkpt>
      <trkpt lat="47.85256" lon="-3.52047">
        <ele>49</ele>
        <time>2019-07-15T10:40:30Z</time>
      </trkpt>
      <trkpt lat="47.85259" lon="-3.5205">
        <ele>49</ele>
        <time>2019-07-15T10:40:31Z</time>
      </trkpt>
      <trkpt lat="47.85262" lon="-3.52053">
        <ele>49</ele>
        <time>2019-07-15T10:40:32Z</time>
      </trkpt>
      <trkpt lat="47.85266" lon="-3.52055">
        <ele>50</ele>
        <time>2019-07-15T10:40:33Z</time>
      </trkpt>
      <trkpt lat="47.8527" lon="-3.52057">
        <ele>50</ele>
        <time>2019-07-15T10:40:34Z</time>
      </trkpt>
      <trkpt lat="47.85273" lon="-3.5206">
        <ele>50</ele>
        <time>2019-07-15T10:40:35Z</time>
      </trkpt>
      <trkpt lat="47.85277" lon="-3.52062">
        <ele>50</ele>
        <time>2019-07-15T10:40:36Z</time>
      </trkpt>
      <trkpt lat="47.8528" lon="-3.52063">
        <ele>50</ele>
        <time>2019-07-15T10:40:37Z</time>
      </trkpt>
      <trkpt lat="47.85284" lon="-3.52064">
        <ele>50</ele>
        <time>2019-07-15T10:40:38Z</time>
      </trkpt>
      <trkpt lat="47.85288" lon="-3.52065">
        <ele>50</ele>
        <time>2019-07-15T10:40:39Z</time>
      </trkpt>
      <trkpt lat="47.85291" lon="-3.52067">
        <ele>50</ele>
        <time>2019-07-15T10:40:40Z</time>
      </trkpt>
      <trkpt lat="47.85294" lon="-3.52068">
        <ele>50</ele>
        <time>2019-07-15T10:40:41Z</time>
      </trkpt>
      <trkpt lat="47.85298" lon="-3.52069">
        <ele>50</ele>
        <time>2019-07-15T10:40:42Z</time>
      </trkpt>
      <trkpt lat="47.85301" lon="-3.52069">
        <ele>50</ele>
        <time>2019-07-15T10:40:43Z</time>
      </trkpt>
      <trkpt lat="47.85304" lon="-3.5207">
        <ele>50</ele>
        <time>2019-07-15T10:40:44Z</time>
      </trkpt>
      <trkpt lat="47.85308" lon="-3.52072">
        <ele>50</ele>
        <time>2019-07-15T10:40:45Z</time>
      </trkpt>
      <trkpt lat="47.85312" lon="-3.52073">
        <ele>51</ele>
        <time>2019-07-15T10:40:46Z</time>
      </trkpt>
      <trkpt lat="47.85316" lon="-3.52075">
        <ele>51</ele>
        <time>2019-07-15T10:40:47Z</time>
      </trkpt>
      <trkpt lat="47.8532" lon="-3.52078">
        <ele>51</ele>
        <time>2019-07-15T10:40:48Z</time>
      </trkpt>
      <trkpt lat="47.85324" lon="-3.5208">
        <ele>51</ele>
        <time>2019-07-15T10:40:49Z</time>
      </trkpt>
      <trkpt lat="47.85327" lon="-3.52082">
        <ele>51</ele>
        <time>2019-07-15T10:40:50Z</time>
      </trkpt>
      <trkpt lat="47.85331" lon="-3.52084">
        <ele>52</ele>
        <time>2019-07-15T10:40:51Z</time>
      </trkpt>
      <trkpt lat="47.85334" lon="-3.52085">
        <ele>52</ele>
        <time>2019-07-15T10:40:52Z</time>
      </trkpt>
      <trkpt lat="47.85337" lon="-3.52087">
        <ele>52</ele>
        <time>2019-07-15T10:40:53Z</time>
      </trkpt>
      <trkpt lat="47.8534" lon="-3.52088">
        <ele>52</ele>
        <time>2019-07-15T10:40:54Z</time>
      </trkpt>
      <trkpt lat="47.85342" lon="-3.52091">
        <ele>52</ele>
        <time>2019-07-15T10:40:55Z</time>
      </trkpt>
      <trkpt lat="47.85345" lon="-3.52092">
        <ele>52</ele>
        <time>2019-07-15T10:40:56Z</time>
      </trkpt>
      <trkpt lat="47.85347" lon="-3.52096">
        <ele>52</ele>
        <time>2019-07-15T10:40:57Z</time>
      </trkpt>
      <trkpt lat="47.8535" lon="-3.52099">
        <ele>53</ele>
        <time>2019-07-15T10:40:58Z</time>
      </trkpt>
      <trkpt lat="47.85353" lon="-3.52103">
        <ele>53</ele>
        <time>2019-07-15T10:40:59Z</time>
      </trkpt>
      <trkpt lat="47.85357" lon="-3.52106">
        <ele>53</ele>
        <time>2019-07-15T10:41:00Z</time>
      </trkpt>
      <trkpt lat="47.85361" lon="-3.52109">
        <ele>53</ele>
        <time>2019-07-15T10:41:01Z</time>
      </trkpt>
      <trkpt lat="47.85364" lon="-3.52114">
        <ele>53</ele>
        <time>2019-07-15T10:41:02Z</time>
      </trkpt>
      <trkpt lat="47.85367" lon="-3.52118">
        <ele>53</ele>
        <time>2019-07-15T10:41:03Z</time>
      </trkpt>
      <trkpt lat="47.8537" lon="-3.52122">
        <ele>53</ele>
        <time>2019-07-15T10:41:04Z</time>
      </trkpt>
      <trkpt lat="47.85374" lon="-3.52126">
        <ele>53</ele>
        <time>2019-07-15T10:41:05Z</time>
      </trkpt>
      <trkpt lat="47.85376" lon="-3.52131">
        <ele>53</ele>
        <time>2019-07-15T10:41:06Z</time>
      </trkpt>
      <trkpt lat="47.85379" lon="-3.52136">
        <ele>53</ele>
        <time>2019-07-15T10:41:07Z</time>
      </trkpt>
      <trkpt lat="47.85381" lon="-3.5214">
        <ele>53</ele>
        <time>2019-07-15T10:41:08Z</time>
      </trkpt>
      <trkpt lat="47.85385" lon="-3.52144">
        <ele>53</ele>
        <time>2019-07-15T10:41:09Z</time>
      </trkpt>
      <trkpt lat="47.85389" lon="-3.52149">
        <ele>53</ele>
        <time>2019-07-15T10:41:10Z</time>
      </trkpt>
      <trkpt lat="47.85393" lon="-3.52153">
        <ele>53</ele>
        <time>2019-07-15T10:41:11Z</time>
      </trkpt>
      <trkpt lat="47.85396" lon="-3.52158">
        <ele>53</ele>
        <time>2019-07-15T10:41:12Z</time>
      </trkpt>
      <trkpt lat="47.854" lon="-3.52162">
        <ele>53</ele>
        <time>2019-07-15T10:41:13Z</time>
      </trkpt>
      <trkpt lat="47.85403" lon="-3.52166">
        <ele>53</ele>
        <time>2019-07-15T10:41:14Z</time>
      </trkpt>
      <trkpt lat="47.85406" lon="-3.52169">
        <ele>53</ele>
        <time>2019-07-15T10:41:15Z</time>
      </trkpt>
      <trkpt lat="47.85409" lon="-3.52173">
        <ele>53</ele>
        <time>2019-07-15T10:41:16Z</time>
      </trkpt>
      <trkpt lat="47.85413" lon="-3.52177">
        <ele>53</ele>
        <time>2019-07-15T10:41:17Z</time>
      </trkpt>
      <trkpt lat="47.85416" lon="-3.52181">
        <ele>53</ele>
        <time>2019-07-15T10:41:18Z</time>
      </trkpt>
      <trkpt lat="47.8542" lon="-3.52185">
        <ele>53</ele>
        <time>2019-07-15T10:41:19Z</time>
      </trkpt>
      <trkpt lat="47.85424" lon="-3.52189">
        <ele>53</ele>
        <time>2019-07-15T10:41:20Z</time>
      </trkpt>
      <trkpt lat="47.85429" lon="-3.52193">
        <ele>53</ele>
        <time>2019-07-15T10:41:21Z</time>
      </trkpt>
      <trkpt lat="47.85434" lon="-3.52196">
        <ele>53</ele>
        <time>2019-07-15T10:41:22Z</time>
      </trkpt>
      <trkpt lat="47.85439" lon="-3.522">
        <ele>53</ele>
        <time>2019-07-15T10:41:23Z</time>
      </trkpt>
      <trkpt lat="47.85443" lon="-3.52205">
        <ele>53</ele>
        <time>2019-07-15T10:41:24Z</time>
      </trkpt>
      <trkpt lat="47.85446" lon="-3.52209">
        <ele>53</ele>
        <time>2019-07-15T10:41:25Z</time>
      </trkpt>
      <trkpt lat="47.85449" lon="-3.52216">
        <ele>52</ele>
        <time>2019-07-15T10:41:26Z</time>
      </trkpt>
      <trkpt lat="47.85452" lon="-3.52222">
        <ele>52</ele>
        <time>2019-07-15T10:41:27Z</time>
      </trkpt>
      <trkpt lat="47.85456" lon="-3.52228">
        <ele>52</ele>
        <time>2019-07-15T10:41:28Z</time>
      </trkpt>
      <trkpt lat="47.85459" lon="-3.52235">
        <ele>51</ele>
        <time>2019-07-15T10:41:29Z</time>
      </trkpt>
      <trkpt lat="47.85461" lon="-3.52241">
        <ele>51</ele>
        <time>2019-07-15T10:41:30Z</time>
      </trkpt>
      <trkpt lat="47.85464" lon="-3.52247">
        <ele>51</ele>
        <time>2019-07-15T10:41:31Z</time>
      </trkpt>
      <trkpt lat="47.85466" lon="-3.52253">
        <ele>51</ele>
        <time>2019-07-15T10:41:32Z</time>
      </trkpt>
      <trkpt lat="47.85468" lon="-3.52258">
        <ele>51</ele>
        <time>2019-07-15T10:41:33Z</time>
      </trkpt>
      <trkpt lat="47.85469" lon="-3.52264">
        <ele>50</ele>
        <time>2019-07-15T10:41:34Z</time>
      </trkpt>
      <trkpt lat="47.8547" lon="-3.52272">
        <ele>50</ele>
        <time>2019-07-15T10:41:35Z</time>
      </trkpt>
      <trkpt lat="47.8547" lon="-3.52279">
        <ele>50</ele>
        <time>2019-07-15T10:41:36Z</time>
      </trkpt>
      <trkpt lat="47.85469" lon="-3.52287">
        <ele>50</ele>
        <time>2019-07-15T10:41:37Z</time>
      </trkpt>
      <trkpt lat="47.85468" lon="-3.52295">
        <ele>50</ele>
        <time>2019-07-15T10:41:38Z</time>
      </trkpt>
      <trkpt lat="47.85466" lon="-3.52302">
        <ele>50</ele>
        <time>2019-07-15T10:41:39Z</time>
      </trkpt>
      <trkpt lat="47.85464" lon="-3.52308">
        <ele>50</ele>
        <time>2019-07-15T10:41:40Z</time>
      </trkpt>
      <trkpt lat="47.85463" lon="-3.52314">
        <ele>50</ele>
        <time>2019-07-15T10:41:41Z</time>
      </trkpt>
      <trkpt lat="47.85461" lon="-3.5232">
        <ele>50</ele>
        <time>2019-07-15T10:41:42Z</time>
      </trkpt>
      <trkpt lat="47.85459" lon="-3.52327">
        <ele>50</ele>
        <time>2019-07-15T10:41:43Z</time>
      </trkpt>
      <trkpt lat="47.85458" lon="-3.52333">
        <ele>50</ele>
        <time>2019-07-15T10:41:44Z</time>
      </trkpt>
      <trkpt lat="47.85457" lon="-3.52338">
        <ele>50</ele>
        <time>2019-07-15T10:41:45Z</time>
      </trkpt>
      <trkpt lat="47.85457" lon="-3.52344">
        <ele>50</ele>
        <time>2019-07-15T10:41:46Z</time>
      </trkpt>
      <trkpt lat="47.85457" lon="-3.5235">
        <ele>50</ele>
        <time>2019-07-15T10:41:47Z</time>
      </trkpt>
      <trkpt lat="47.85457" lon="-3.52355">
        <ele>50</ele>
        <time>2019-07-15T10:41:48Z</time>
      </trkpt>
      <trkpt lat="47.85457" lon="-3.5236">
        <ele>50</ele>
        <time>2019-07-15T10:41:49Z</time>
      </trkpt>
      <trkpt lat="47.85457" lon="-3.52363">
        <ele>50</ele>
        <time>2019-07-15T10:41:50Z</time>
      </trkpt>
      <trkpt lat="47.85457" lon="-3.52367">
        <ele>50</ele>
        <time>2019-07-15T10:41:51Z</time>
      </trkpt>
      <trkpt lat="47.85457" lon="-3.5237">
        <ele>50</ele>
        <time>2019-07-15T10:41:52Z</time>
      </trkpt>
      <trkpt lat="47.85458" lon="-3.52373">
        <ele>50</ele>
        <time>2019-07-15T10:41:53Z</time>
      </trkpt>
      <trkpt lat="47.85459" lon="-3.52376">
        <ele>50</ele>
        <time>2019-07-15T10:41:54Z</time>
      </trkpt>
      <trkpt lat="47.8546" lon="-3.5238">
        <ele>50</ele>
        <time>2019-07-15T10:41:55Z</time>
      </trkpt>
      <trkpt lat="47.8546" lon="-3.52383">
        <ele>50</ele>
        <time>2019-07-15T10:41:56Z</time>
      </trkpt>
      <trkpt lat="47.85462" lon="-3.52387">
        <ele>50</ele>
        <time>2019-07-15T10:41:57Z</time>
      </trkpt>
      <trkpt lat="47.85463" lon="-3.5239">
        <ele>50</ele>
        <time>2019-07-15T10:41:58Z</time>
      </trkpt>
      <trkpt lat="47.85463" lon="-3.52393">
        <ele>50</ele>
        <time>2019-07-15T10:41:59Z</time>
      </trkpt>
      <trkpt lat="47.85464" lon="-3.52396">
        <ele>50</ele>
        <time>2019-07-15T10:42:00Z</time>
      </trkpt>
      <trkpt lat="47.85465" lon="-3.52399">
        <ele>49</ele>
        <time>2019-07-15T10:42:01Z</time>
      </trkpt>
      <trkpt lat="47.85466" lon="-3.52402">
        <ele>49</ele>
        <time>2019-07-15T10:42:02Z</time>
      </trkpt>
      <trkpt lat="47.85467" lon="-3.52406">
        <ele>49</ele>
        <time>2019-07-15T10:42:03Z</time>
      </trkpt>
      <trkpt lat="47.85469" lon="-3.52409">
        <ele>49</ele>
        <time>2019-07-15T10:42:04Z</time>
      </trkpt>
      <trkpt lat="47.8547" lon="-3.52412">
        <ele>49</ele>
        <time>2019-07-15T10:42:05Z</time>
      </trkpt>
      <trkpt lat="47.85471" lon="-3.52415">
        <ele>49</ele>
        <time>2019-07-15T10:42:06Z</time>
      </trkpt>
      <trkpt lat="47.85472" lon="-3.52418">
        <ele>49</ele>
        <time>2019-07-15T10:42:07Z</time>
      </trkpt>
      <trkpt lat="47.85473" lon="-3.52422">
        <ele>49</ele>
        <time>2019-07-15T10:42:08Z</time>
      </trkpt>
      <trkpt lat="47.85474" lon="-3.52425">
        <ele>49</ele>
        <time>2019-07-15T10:42:09Z</time>
      </trkpt>
      <trkpt lat="47.85475" lon="-3.52427">
        <ele>49</ele>
        <time>2019-07-15T10:42:10Z</time>
      </trkpt>
      <trkpt lat="47.85476" lon="-3.52429">
        <ele>49</ele>
        <time>2019-07-15T10:42:11Z</time>
      </trkpt>
      <trkpt lat="47.85477" lon="-3.52432">
        <ele>48</ele>
        <time>2019-07-15T10:42:12Z</time>
      </trkpt>
      <trkpt lat="47.85477" lon="-3.52435">
        <ele>48</ele>
        <time>2019-07-15T10:42:13Z</time>
      </trkpt>
      <trkpt lat="47.85478" lon="-3.52438">
        <ele>48</ele>
        <time>2019-07-15T10:42:14Z</time>
      </trkpt>
      <trkpt lat="47.85478" lon="-3.52441">
        <ele>48</ele>
        <time>2019-07-15T10:42:15Z</time>
      </trkpt>
      <trkpt lat="47.85479" lon="-3.52444">
        <ele>48</ele>
        <time>2019-07-15T10:42:16Z</time>
      </trkpt>
      <trkpt lat="47.85479" lon="-3.52446">
        <ele>48</ele>
        <time>2019-07-15T10:42:17Z</time>
      </trkpt>
      <trkpt lat="47.85478" lon="-3.52448">
        <ele>48</ele>
        <time>2019-07-15T10:42:18Z</time>
      </trkpt>
      <trkpt lat="47.85478" lon="-3.52449">
        <ele>47</ele>
        <time>2019-07-15T10:42:19Z</time>
      </trkpt>
      <trkpt lat="47.85477" lon="-3.52451">
        <ele>47</ele>
        <time>2019-07-15T10:42:20Z</time>
      </trkpt>
      <trkpt lat="47.85477" lon="-3.52452">
        <ele>47</ele>
        <time>2019-07-15T10:42:21Z</time>
      </trkpt>
      <trkpt lat="47.85477" lon="-3.52453">
        <ele>47</ele>
        <time>2019-07-15T10:42:22Z</time>
      </trkpt>
      <trkpt lat="47.85477" lon="-3.52455">
        <ele>47</ele>
        <time>2019-07-15T10:42:23Z</time>
      </trkpt>
      <trkpt lat="47.85477" lon="-3.52456">
        <ele>47</ele>
        <time>2019-07-15T10:42:24Z</time>
      </trkpt>
      <trkpt lat="47.85476" lon="-3.52457">
        <ele>47</ele>
        <time>2019-07-15T10:42:25Z</time>
      </trkpt>
      <trkpt lat="47.85476" lon="-3.52459">
        <ele>47</ele>
        <time>2019-07-15T10:42:26Z</time>
      </trkpt>
      <trkpt lat="47.85475" lon="-3.52461">
        <ele>47</ele>
        <time>2019-07-15T10:42:27Z</time>
      </trkpt>
      <trkpt lat="47.85475" lon="-3.52462">
        <ele>47</ele>
        <time>2019-07-15T10:42:28Z</time>
      </trkpt>
      <trkpt lat="47.85475" lon="-3.52463">
        <ele>47</ele>
        <time>2019-07-15T10:42:29Z</time>
      </trkpt>
      <trkpt lat="47.85475" lon="-3.52464">
        <ele>47</ele>
        <time>2019-07-15T10:42:30Z</time>
      </trkpt>
      <trkpt lat="47.85475" lon="-3.52465">
        <ele>47</ele>
        <time>2019-07-15T10:42:31Z</time>
      </trkpt>
      <trkpt lat="47.85477" lon="-3.52465">
        <ele>47</ele>
        <time>2019-07-15T10:42:32Z</time>
      </trkpt>
      <trkpt lat="47.85478" lon="-3.52463">
        <ele>47</ele>
        <time>2019-07-15T10:42:33Z</time>
      </trkpt>
      <trkpt lat="47.8548" lon="-3.52462">
        <ele>47</ele>
        <time>2019-07-15T10:42:34Z</time>
      </trkpt>
      <trkpt lat="47.85481" lon="-3.52461">
        <ele>47</ele>
        <time>2019-07-15T10:42:35Z</time>
      </trkpt>
      <trkpt lat="47.85483" lon="-3.5246">
        <ele>48</ele>
        <time>2019-07-15T10:42:36Z</time>
      </trkpt>
      <trkpt lat="47.85485" lon="-3.5246">
        <ele>48</ele>
        <time>2019-07-15T10:42:37Z</time>
      </trkpt>
      <trkpt lat="47.85486" lon="-3.5246">
        <ele>48</ele>
        <time>2019-07-15T10:42:38Z</time>
      </trkpt>
      <trkpt lat="47.85488" lon="-3.5246">
        <ele>48</ele>
        <time>2019-07-15T10:42:39Z</time>
      </trkpt>
      <trkpt lat="47.85489" lon="-3.5246">
        <ele>48</ele>
        <time>2019-07-15T10:42:40Z</time>
      </trkpt>
      <trkpt lat="47.85491" lon="-3.52461">
        <ele>48</ele>
        <time>2019-07-15T10:42:41Z</time>
      </trkpt>
      <trkpt lat="47.85493" lon="-3.52462">
        <ele>48</ele>
        <time>2019-07-15T10:42:42Z</time>
      </trkpt>
      <trkpt lat="47.85495" lon="-3.52463">
        <ele>48</ele>
        <time>2019-07-15T10:42:43Z</time>
      </trkpt>
      <trkpt lat="47.85496" lon="-3.52465">
        <ele>48</ele>
        <time>2019-07-15T10:42:44Z</time>
      </trkpt>
      <trkpt lat="47.85498" lon="-3.52466">
        <ele>48</ele>
        <time>2019-07-15T10:42:45Z</time>
      </trkpt>
      <trkpt lat="47.85499" lon="-3.52467">
        <ele>48</ele>
        <time>2019-07-15T10:42:46Z</time>
      </trkpt>
      <trkpt lat="47.85501" lon="-3.52467">
        <ele>48</ele>
        <time>2019-07-15T10:42:47Z</time>
      </trkpt>
      <trkpt lat="47.85503" lon="-3.52467">
        <ele>49</ele>
        <time>2019-07-15T10:42:48Z</time>
      </trkpt>
      <trkpt lat="47.85506" lon="-3.52466">
        <ele>49</ele>
        <time>2019-07-15T10:42:49Z</time>
      </trkpt>
      <trkpt lat="47.85507" lon="-3.52465">
        <ele>49</ele>
        <time>2019-07-15T10:42:50Z</time>
      </trkpt>
      <trkpt lat="47.85509" lon="-3.52463">
        <ele>49</ele>
        <time>2019-07-15T10:42:51Z</time>
      </trkpt>
      <trkpt lat="47.8551" lon="-3.52461">
        <ele>49</ele>
        <time>2019-07-15T10:42:52Z</time>
      </trkpt>
      <trkpt lat="47.85512" lon="-3.52458">
        <ele>49</ele>
        <time>2019-07-15T10:42:53Z</time>
      </trkpt>
      <trkpt lat="47.85513" lon="-3.52456">
        <ele>49</ele>
        <time>2019-07-15T10:42:54Z</time>
      </trkpt>
      <trkpt lat="47.85514" lon="-3.52453">
        <ele>49</ele>
        <time>2019-07-15T10:42:55Z</time>
      </trkpt>
      <trkpt lat="47.85515" lon="-3.52452">
        <ele>49</ele>
        <time>2019-07-15T10:42:56Z</time>
      </trkpt>
      <trkpt lat="47.85516" lon="-3.5245">
        <ele>49</ele>
        <time>2019-07-15T10:42:57Z</time>
      </trkpt>
      <trkpt lat="47.85517" lon="-3.52448">
        <ele>49</ele>
        <time>2019-07-15T10:42:58Z</time>
      </trkpt>
      <trkpt lat="47.85518" lon="-3.52446">
        <ele>50</ele>
        <time>2019-07-15T10:42:59Z</time>
      </trkpt>
      <trkpt lat="47.85518" lon="-3.52445">
        <ele>50</ele>
        <time>2019-07-15T10:43:00Z</time>
      </trkpt>
      <trkpt lat="47.85519" lon="-3.52445">
        <ele>50</ele>
        <time>2019-07-15T10:43:01Z</time>
      </trkpt>
      <trkpt lat="47.85519" lon="-3.52445">
        <ele>50</ele>
        <time>2019-07-15T10:43:02Z</time>
      </trkpt>
      <trkpt lat="47.85526" lon="-3.52442">
        <ele>48</ele>
        <time>2019-07-15T10:43:03Z</time>
      </trkpt>
      <trkpt lat="47.85527" lon="-3.52442">
        <ele>48</ele>
        <time>2019-07-15T10:43:04Z</time>
      </trkpt>
      <trkpt lat="47.85528" lon="-3.52442">
        <ele>48</ele>
        <time>2019-07-15T10:43:05Z</time>
      </trkpt>
      <trkpt lat="47.85529" lon="-3.5244">
        <ele>48</ele>
        <time>2019-07-15T10:43:06Z</time>
      </trkpt>
      <trkpt lat="47.85529" lon="-3.52439">
        <ele>48</ele>
        <time>2019-07-15T10:43:07Z</time>
      </trkpt>
      <trkpt lat="47.8553" lon="-3.52438">
        <ele>48</ele>
        <time>2019-07-15T10:43:08Z</time>
      </trkpt>
      <trkpt lat="47.85531" lon="-3.52436">
        <ele>48</ele>
        <time>2019-07-15T10:43:09Z</time>
      </trkpt>
      <trkpt lat="47.85531" lon="-3.52435">
        <ele>48</ele>
        <time>2019-07-15T10:43:10Z</time>
      </trkpt>
      <trkpt lat="47.85531" lon="-3.52435">
        <ele>48</ele>
        <time>2019-07-15T10:43:11Z</time>
      </trkpt>
      <trkpt lat="47.85537" lon="-3.5243">
        <ele>47</ele>
        <time>2019-07-15T10:43:12Z</time>
      </trkpt>
      <trkpt lat="47.85538" lon="-3.52428">
        <ele>47</ele>
        <time>2019-07-15T10:43:13Z</time>
      </trkpt>
      <trkpt lat="47.85539" lon="-3.52426">
        <ele>47</ele>
        <time>2019-07-15T10:43:14Z</time>
      </trkpt>
      <trkpt lat="47.85539" lon="-3.52425">
        <ele>47</ele>
        <time>2019-07-15T10:43:15Z</time>
      </trkpt>
      <trkpt lat="47.8554" lon="-3.52423">
        <ele>47</ele>
        <time>2019-07-15T10:43:16Z</time>
      </trkpt>
      <trkpt lat="47.8554" lon="-3.52423">
        <ele>47</ele>
        <time>2019-07-15T10:43:17Z</time>
      </trkpt>
      <trkpt lat="47.85545" lon="-3.52421">
        <ele>47</ele>
        <time>2019-07-15T10:43:18Z</time>
      </trkpt>
      <trkpt lat="47.85546" lon="-3.52421">
        <ele>47</ele>
        <time>2019-07-15T10:43:19Z</time>
      </trkpt>
      <trkpt lat="47.85547" lon="-3.52421">
        <ele>47</ele>
        <time>2019-07-15T10:43:20Z</time>
      </trkpt>
      <trkpt lat="47.85548" lon="-3.52422">
        <ele>47</ele>
        <time>2019-07-15T10:43:21Z</time>
      </trkpt>
      <trkpt lat="47.85548" lon="-3.52423">
        <ele>47</ele>
        <time>2019-07-15T10:43:22Z</time>
      </trkpt>
      <trkpt lat="47.85549" lon="-3.52424">
        <ele>47</ele>
        <time>2019-07-15T10:43:23Z</time>
      </trkpt>
      <trkpt lat="47.85549" lon="-3.52425">
        <ele>47</ele>
        <time>2019-07-15T10:43:24Z</time>
      </trkpt>
      <trkpt lat="47.85549" lon="-3.52426">
        <ele>47</ele>
        <time>2019-07-15T10:43:25Z</time>
      </trkpt>
      <trkpt lat="47.85549" lon="-3.52426">
        <ele>47</ele>
        <time>2019-07-15T10:43:26Z</time>
      </trkpt>
      <trkpt lat="47.85553" lon="-3.52433">
        <ele>47</ele>
        <time>2019-07-15T10:43:27Z</time>
      </trkpt>
      <trkpt lat="47.85554" lon="-3.52434">
        <ele>47</ele>
        <time>2019-07-15T10:43:28Z</time>
      </trkpt>
      <trkpt lat="47.85555" lon="-3.52435">
        <ele>47</ele>
        <time>2019-07-15T10:43:29Z</time>
      </trkpt>
      <trkpt lat="47.85555" lon="-3.52436">
        <ele>47</ele>
        <time>2019-07-15T10:43:30Z</time>
      </trkpt>
      <trkpt lat="47.85556" lon="-3.52438">
        <ele>47</ele>
        <time>2019-07-15T10:43:31Z</time>
      </trkpt>
      <trkpt lat="47.85557" lon="-3.52439">
        <ele>47</ele>
        <time>2019-07-15T10:43:32Z</time>
      </trkpt>
      <trkpt lat="47.85557" lon="-3.52441">
        <ele>47</ele>
        <time>2019-07-15T10:43:33Z</time>
      </trkpt>
      <trkpt lat="47.85558" lon="-3.52443">
        <ele>47</ele>
        <time>2019-07-15T10:43:34Z</time>
      </trkpt>
      <trkpt lat="47.85558" lon="-3.52445">
        <ele>47</ele>
        <time>2019-07-15T10:43:35Z</time>
      </trkpt>
      <trkpt lat="47.85559" lon="-3.52446">
        <ele>47</ele>
        <time>2019-07-15T10:43:36Z</time>
      </trkpt>
      <trkpt lat="47.85559" lon="-3.52448">
        <ele>47</ele>
        <time>2019-07-15T10:43:37Z</time>
      </trkpt>
      <trkpt lat="47.85559" lon="-3.5245">
        <ele>47</ele>
        <time>2019-07-15T10:43:38Z</time>
      </trkpt>
      <trkpt lat="47.8556" lon="-3.52452">
        <ele>46</ele>
        <time>2019-07-15T10:43:39Z</time>
      </trkpt>
      <trkpt lat="47.8556" lon="-3.52453">
        <ele>46</ele>
        <time>2019-07-15T10:43:40Z</time>
      </trkpt>
      <trkpt lat="47.85561" lon="-3.52454">
        <ele>46</ele>
        <time>2019-07-15T10:43:41Z</time>
      </trkpt>
      <trkpt lat="47.85562" lon="-3.52455">
        <ele>46</ele>
        <time>2019-07-15T10:43:42Z</time>
      </trkpt>
      <trkpt lat="47.85563" lon="-3.52457">
        <ele>46</ele>
        <time>2019-07-15T10:43:43Z</time>
      </trkpt>
      <trkpt lat="47.85564" lon="-3.52458">
        <ele>47</ele>
        <time>2019-07-15T10:43:44Z</time>
      </trkpt>
      <trkpt lat="47.85564" lon="-3.52458">
        <ele>47</ele>
        <time>2019-07-15T10:43:45Z</time>
      </trkpt>
      <trkpt lat="47.85564" lon="-3.52459">
        <ele>47</ele>
        <time>2019-07-15T10:43:46Z</time>
      </trkpt>
      <trkpt lat="47.85564" lon="-3.5246">
        <ele>47</ele>
        <time>2019-07-15T10:43:47Z</time>
      </trkpt>
      <trkpt lat="47.85565" lon="-3.52462">
        <ele>47</ele>
        <time>2019-07-15T10:43:48Z</time>
      </trkpt>
      <trkpt lat="47.85566" lon="-3.52464">
        <ele>47</ele>
        <time>2019-07-15T10:43:49Z</time>
      </trkpt>
      <trkpt lat="47.85568" lon="-3.52466">
        <ele>47</ele>
        <time>2019-07-15T10:43:50Z</time>
      </trkpt>
      <trkpt lat="47.85568" lon="-3.52468">
        <ele>47</ele>
        <time>2019-07-15T10:43:51Z</time>
      </trkpt>
      <trkpt lat="47.8557" lon="-3.52471">
        <ele>47</ele>
        <time>2019-07-15T10:43:52Z</time>
      </trkpt>
      <trkpt lat="47.85571" lon="-3.52474">
        <ele>47</ele>
        <time>2019-07-15T10:43:53Z</time>
      </trkpt>
      <trkpt lat="47.85573" lon="-3.52477">
        <ele>47</ele>
        <time>2019-07-15T10:43:54Z</time>
      </trkpt>
      <trkpt lat="47.85575" lon="-3.5248">
        <ele>47</ele>
        <time>2019-07-15T10:43:55Z</time>
      </trkpt>
      <trkpt lat="47.85576" lon="-3.52482">
        <ele>47</ele>
        <time>2019-07-15T10:43:56Z</time>
      </trkpt>
      <trkpt lat="47.85578" lon="-3.52485">
        <ele>47</ele>
        <time>2019-07-15T10:43:57Z</time>
      </trkpt>
      <trkpt lat="47.85579" lon="-3.52488">
        <ele>47</ele>
        <time>2019-07-15T10:43:58Z</time>
      </trkpt>
      <trkpt lat="47.8558" lon="-3.52489">
        <ele>47</ele>
        <time>2019-07-15T10:43:59Z</time>
      </trkpt>
      <trkpt lat="47.85582" lon="-3.52491">
        <ele>46</ele>
        <time>2019-07-15T10:44:00Z</time>
      </trkpt>
      <trkpt lat="47.85583" lon="-3.52493">
        <ele>46</ele>
        <time>2019-07-15T10:44:01Z</time>
      </trkpt>
      <trkpt lat="47.85584" lon="-3.52495">
        <ele>46</ele>
        <time>2019-07-15T10:44:02Z</time>
      </trkpt>
      <trkpt lat="47.85585" lon="-3.52497">
        <ele>46</ele>
        <time>2019-07-15T10:44:03Z</time>
      </trkpt>
      <trkpt lat="47.85586" lon="-3.52499">
        <ele>46</ele>
        <time>2019-07-15T10:44:04Z</time>
      </trkpt>
      <trkpt lat="47.85587" lon="-3.52501">
        <ele>45</ele>
        <time>2019-07-15T10:44:05Z</time>
      </trkpt>
      <trkpt lat="47.85588" lon="-3.52504">
        <ele>45</ele>
        <time>2019-07-15T10:44:06Z</time>
      </trkpt>
      <trkpt lat="47.85589" lon="-3.52505">
        <ele>45</ele>
        <time>2019-07-15T10:44:07Z</time>
      </trkpt>
      <trkpt lat="47.85591" lon="-3.52507">
        <ele>45</ele>
        <time>2019-07-15T10:44:08Z</time>
      </trkpt>
      <trkpt lat="47.85592" lon="-3.52508">
        <ele>45</ele>
        <time>2019-07-15T10:44:09Z</time>
      </trkpt>
      <trkpt lat="47.85593" lon="-3.52509">
        <ele>45</ele>
        <time>2019-07-15T10:44:10Z</time>
      </trkpt>
      <trkpt lat="47.85594" lon="-3.52511">
        <ele>45</ele>
        <time>2019-07-15T10:44:11Z</time>
      </trkpt>
      <trkpt lat="47.85595" lon="-3.52513">
        <ele>44</ele>
        <time>2019-07-15T10:44:12Z</time>
      </trkpt>
      <trkpt lat="47.85596" lon="-3.52515">
        <ele>44</ele>
        <time>2019-07-15T10:44:13Z</time>
      </trkpt>
      <trkpt lat="47.85598" lon="-3.52518">
        <ele>44</ele>
        <time>2019-07-15T10:44:14Z</time>
      </trkpt>
      <trkpt lat="47.85599" lon="-3.52521">
        <ele>44</ele>
        <time>2019-07-15T10:44:15Z</time>
      </trkpt>
      <trkpt lat="47.856" lon="-3.52523">
        <ele>44</ele>
        <time>2019-07-15T10:44:16Z</time>
      </trkpt>
      <trkpt lat="47.856" lon="-3.52525">
        <ele>44</ele>
        <time>2019-07-15T10:44:17Z</time>
      </trkpt>
      <trkpt lat="47.85601" lon="-3.52528">
        <ele>44</ele>
        <time>2019-07-15T10:44:18Z</time>
      </trkpt>
      <trkpt lat="47.85602" lon="-3.52531">
        <ele>44</ele>
        <time>2019-07-15T10:44:19Z</time>
      </trkpt>
      <trkpt lat="47.85603" lon="-3.52535">
        <ele>44</ele>
        <time>2019-07-15T10:44:20Z</time>
      </trkpt>
      <trkpt lat="47.85604" lon="-3.52538">
        <ele>43</ele>
        <time>2019-07-15T10:44:21Z</time>
      </trkpt>
      <trkpt lat="47.85606" lon="-3.52539">
        <ele>43</ele>
        <time>2019-07-15T10:44:22Z</time>
      </trkpt>
      <trkpt lat="47.85608" lon="-3.5254">
        <ele>43</ele>
        <time>2019-07-15T10:44:23Z</time>
      </trkpt>
      <trkpt lat="47.85609" lon="-3.52539">
        <ele>43</ele>
        <time>2019-07-15T10:44:24Z</time>
      </trkpt>
      <trkpt lat="47.85611" lon="-3.52539">
        <ele>43</ele>
        <time>2019-07-15T10:44:25Z</time>
      </trkpt>
      <trkpt lat="47.85613" lon="-3.52539">
        <ele>43</ele>
        <time>2019-07-15T10:44:26Z</time>
      </trkpt>
      <trkpt lat="47.85614" lon="-3.52539">
        <ele>43</ele>
        <time>2019-07-15T10:44:27Z</time>
      </trkpt>
      <trkpt lat="47.85615" lon="-3.52539">
        <ele>43</ele>
        <time>2019-07-15T10:44:28Z</time>
      </trkpt>
      <trkpt lat="47.85616" lon="-3.5254">
        <ele>43</ele>
        <time>2019-07-15T10:44:29Z</time>
      </trkpt>
      <trkpt lat="47.85616" lon="-3.52541">
        <ele>43</ele>
        <time>2019-07-15T10:44:30Z</time>
      </trkpt>
      <trkpt lat="47.85615" lon="-3.52541">
        <ele>44</ele>
        <time>2019-07-15T10:44:31Z</time>
      </trkpt>
      <trkpt lat="47.85615" lon="-3.5254">
        <ele>44</ele>
        <time>2019-07-15T10:44:32Z</time>
      </trkpt>
      <trkpt lat="47.85613" lon="-3.52539">
        <ele>44</ele>
        <time>2019-07-15T10:44:33Z</time>
      </trkpt>
      <trkpt lat="47.85611" lon="-3.52538">
        <ele>44</ele>
        <time>2019-07-15T10:44:34Z</time>
      </trkpt>
      <trkpt lat="47.85608" lon="-3.52537">
        <ele>44</ele>
        <time>2019-07-15T10:44:35Z</time>
      </trkpt>
      <trkpt lat="47.85605" lon="-3.52538">
        <ele>44</ele>
        <time>2019-07-15T10:44:36Z</time>
      </trkpt>
      <trkpt lat="47.85602" lon="-3.52539">
        <ele>44</ele>
        <time>2019-07-15T10:44:37Z</time>
      </trkpt>
      <trkpt lat="47.85598" lon="-3.52541">
        <ele>44</ele>
        <time>2019-07-15T10:44:38Z</time>
      </trkpt>
      <trkpt lat="47.85594" lon="-3.52544">
        <ele>44</ele>
        <time>2019-07-15T10:44:39Z</time>
      </trkpt>
      <trkpt lat="47.85591" lon="-3.52549">
        <ele>44</ele>
        <time>2019-07-15T10:44:40Z</time>
      </trkpt>
      <trkpt lat="47.85587" lon="-3.52554">
        <ele>44</ele>
        <time>2019-07-15T10:44:41Z</time>
      </trkpt>
      <trkpt lat="47.85583" lon="-3.52559">
        <ele>44</ele>
        <time>2019-07-15T10:44:42Z</time>
      </trkpt>
      <trkpt lat="47.85579" lon="-3.52566">
        <ele>43</ele>
        <time>2019-07-15T10:44:43Z</time>
      </trkpt>
      <trkpt lat="47.85576" lon="-3.52571">
        <ele>43</ele>
        <time>2019-07-15T10:44:44Z</time>
      </trkpt>
      <trkpt lat="47.85573" lon="-3.52578">
        <ele>43</ele>
        <time>2019-07-15T10:44:45Z</time>
      </trkpt>
      <trkpt lat="47.85569" lon="-3.52585">
        <ele>43</ele>
        <time>2019-07-15T10:44:46Z</time>
      </trkpt>
      <trkpt lat="47.85566" lon="-3.52592">
        <ele>43</ele>
        <time>2019-07-15T10:44:47Z</time>
      </trkpt>
      <trkpt lat="47.85562" lon="-3.52599">
        <ele>43</ele>
        <time>2019-07-15T10:44:48Z</time>
      </trkpt>
      <trkpt lat="47.85559" lon="-3.52606">
        <ele>42</ele>
        <time>2019-07-15T10:44:49Z</time>
      </trkpt>
      <trkpt lat="47.85556" lon="-3.52613">
        <ele>42</ele>
        <time>2019-07-15T10:44:50Z</time>
      </trkpt>
      <trkpt lat="47.85553" lon="-3.5262">
        <ele>42</ele>
        <time>2019-07-15T10:44:51Z</time>
      </trkpt>
      <trkpt lat="47.85551" lon="-3.52626">
        <ele>42</ele>
        <time>2019-07-15T10:44:52Z</time>
      </trkpt>
      <trkpt lat="47.85548" lon="-3.52633">
        <ele>42</ele>
        <time>2019-07-15T10:44:53Z</time>
      </trkpt>
      <trkpt lat="47.85546" lon="-3.52641">
        <ele>42</ele>
        <time>2019-07-15T10:44:54Z</time>
      </trkpt>
      <trkpt lat="47.85545" lon="-3.52649">
        <ele>42</ele>
        <time>2019-07-15T10:44:55Z</time>
      </trkpt>
      <trkpt lat="47.85545" lon="-3.52657">
        <ele>42</ele>
        <time>2019-07-15T10:44:56Z</time>
      </trkpt>
      <trkpt lat="47.85545" lon="-3.52665">
        <ele>42</ele>
        <time>2019-07-15T10:44:57Z</time>
      </trkpt>
      <trkpt lat="47.85546" lon="-3.52672">
        <ele>42</ele>
        <time>2019-07-15T10:44:58Z</time>
      </trkpt>
      <trkpt lat="47.85548" lon="-3.52679">
        <ele>42</ele>
        <time>2019-07-15T10:44:59Z</time>
      </trkpt>
      <trkpt lat="47.8555" lon="-3.52686">
        <ele>42</ele>
        <time>2019-07-15T10:45:00Z</time>
      </trkpt>
      <trkpt lat="47.85552" lon="-3.52692">
        <ele>42</ele>
        <time>2019-07-15T10:45:01Z</time>
      </trkpt>
      <trkpt lat="47.85554" lon="-3.52696">
        <ele>42</ele>
        <time>2019-07-15T10:45:02Z</time>
      </trkpt>
      <trkpt lat="47.85557" lon="-3.52701">
        <ele>42</ele>
        <time>2019-07-15T10:45:03Z</time>
      </trkpt>
      <trkpt lat="47.85561" lon="-3.52705">
        <ele>42</ele>
        <time>2019-07-15T10:45:04Z</time>
      </trkpt>
      <trkpt lat="47.85563" lon="-3.52709">
        <ele>42</ele>
        <time>2019-07-15T10:45:05Z</time>
      </trkpt>
      <trkpt lat="47.85565" lon="-3.52713">
        <ele>42</ele>
        <time>2019-07-15T10:45:06Z</time>
      </trkpt>
      <trkpt lat="47.85567" lon="-3.52717">
        <ele>41</ele>
        <time>2019-07-15T10:45:07Z</time>
      </trkpt>
      <trkpt lat="47.8557" lon="-3.5272">
        <ele>41</ele>
        <time>2019-07-15T10:45:08Z</time>
      </trkpt>
      <trkpt lat="47.85573" lon="-3.52725">
        <ele>41</ele>
        <time>2019-07-15T10:45:09Z</time>
      </trkpt>
      <trkpt lat="47.85577" lon="-3.52729">
        <ele>41</ele>
        <time>2019-07-15T10:45:10Z</time>
      </trkpt>
      <trkpt lat="47.85581" lon="-3.52733">
        <ele>41</ele>
        <time>2019-07-15T10:45:11Z</time>
      </trkpt>
      <trkpt lat="47.85585" lon="-3.52737">
        <ele>41</ele>
        <time>2019-07-15T10:45:12Z</time>
      </trkpt>
      <trkpt lat="47.8559" lon="-3.52742">
        <ele>41</ele>
        <time>2019-07-15T10:45:13Z</time>
      </trkpt>
      <trkpt lat="47.85595" lon="-3.52745">
        <ele>41</ele>
        <time>2019-07-15T10:45:14Z</time>
      </trkpt>
      <trkpt lat="47.856" lon="-3.5275">
        <ele>41</ele>
        <time>2019-07-15T10:45:15Z</time>
      </trkpt>
      <trkpt lat="47.85604" lon="-3.52754">
        <ele>41</ele>
        <time>2019-07-15T10:45:16Z</time>
      </trkpt>
      <trkpt lat="47.8561" lon="-3.52758">
        <ele>41</ele>
        <time>2019-07-15T10:45:17Z</time>
      </trkpt>
      <trkpt lat="47.85615" lon="-3.52762">
        <ele>41</ele>
        <time>2019-07-15T10:45:18Z</time>
      </trkpt>
      <trkpt lat="47.85621" lon="-3.52766">
        <ele>41</ele>
        <time>2019-07-15T10:45:19Z</time>
      </trkpt>
      <trkpt lat="47.85627" lon="-3.52769">
        <ele>41</ele>
        <time>2019-07-15T10:45:20Z</time>
      </trkpt>
      <trkpt lat="47.85632" lon="-3.52773">
        <ele>41</ele>
        <time>2019-07-15T10:45:21Z</time>
      </trkpt>
      <trkpt lat="47.85637" lon="-3.52777">
        <ele>41</ele>
        <time>2019-07-15T10:45:22Z</time>
      </trkpt>
      <trkpt lat="47.85642" lon="-3.52781">
        <ele>41</ele>
        <time>2019-07-15T10:45:23Z</time>
      </trkpt>
      <trkpt lat="47.85647" lon="-3.52785">
        <ele>41</ele>
        <time>2019-07-15T10:45:24Z</time>
      </trkpt>
      <trkpt lat="47.85653" lon="-3.52787">
        <ele>40</ele>
        <time>2019-07-15T10:45:25Z</time>
      </trkpt>
      <trkpt lat="47.85659" lon="-3.5279">
        <ele>40</ele>
        <time>2019-07-15T10:45:26Z</time>
      </trkpt>
      <trkpt lat="47.85665" lon="-3.52794">
        <ele>40</ele>
        <time>2019-07-15T10:45:27Z</time>
      </trkpt>
      <trkpt lat="47.8567" lon="-3.52797">
        <ele>40</ele>
        <time>2019-07-15T10:45:28Z</time>
      </trkpt>
      <trkpt lat="47.85676" lon="-3.52801">
        <ele>40</ele>
        <time>2019-07-15T10:45:29Z</time>
      </trkpt>
      <trkpt lat="47.85682" lon="-3.52804">
        <ele>40</ele>
        <time>2019-07-15T10:45:30Z</time>
      </trkpt>
      <trkpt lat="47.85688" lon="-3.52807">
        <ele>39</ele>
        <time>2019-07-15T10:45:31Z</time>
      </trkpt>
      <trkpt lat="47.85694" lon="-3.52809">
        <ele>39</ele>
        <time>2019-07-15T10:45:32Z</time>
      </trkpt>
      <trkpt lat="47.857" lon="-3.52809">
        <ele>39</ele>
        <time>2019-07-15T10:45:33Z</time>
      </trkpt>
      <trkpt lat="47.85706" lon="-3.5281">
        <ele>39</ele>
        <time>2019-07-15T10:45:34Z</time>
      </trkpt>
      <trkpt lat="47.85712" lon="-3.52809">
        <ele>39</ele>
        <time>2019-07-15T10:45:35Z</time>
      </trkpt>
      <trkpt lat="47.85718" lon="-3.52808">
        <ele>39</ele>
        <time>2019-07-15T10:45:36Z</time>
      </trkpt>
      <trkpt lat="47.85723" lon="-3.52807">
        <ele>39</ele>
        <time>2019-07-15T10:45:37Z</time>
      </trkpt>
      <trkpt lat="47.85729" lon="-3.52806">
        <ele>39</ele>
        <time>2019-07-15T10:45:38Z</time>
      </trkpt>
      <trkpt lat="47.85734" lon="-3.52804">
        <ele>39</ele>
        <time>2019-07-15T10:45:39Z</time>
      </trkpt>
      <trkpt lat="47.85739" lon="-3.52803">
        <ele>38</ele>
        <time>2019-07-15T10:45:40Z</time>
      </trkpt>
      <trkpt lat="47.85743" lon="-3.52803">
        <ele>38</ele>
        <time>2019-07-15T10:45:41Z</time>
      </trkpt>
      <trkpt lat="47.85749" lon="-3.52804">
        <ele>38</ele>
        <time>2019-07-15T10:45:42Z</time>
      </trkpt>
      <trkpt lat="47.85756" lon="-3.52807">
        <ele>38</ele>
        <time>2019-07-15T10:45:43Z</time>
      </trkpt>
      <trkpt lat="47.85762" lon="-3.5281">
        <ele>39</ele>
        <time>2019-07-15T10:45:44Z</time>
      </trkpt>
      <trkpt lat="47.85769" lon="-3.52815">
        <ele>39</ele>
        <time>2019-07-15T10:45:45Z</time>
      </trkpt>
      <trkpt lat="47.85774" lon="-3.5282">
        <ele>39</ele>
        <time>2019-07-15T10:45:46Z</time>
      </trkpt>
      <trkpt lat="47.8578" lon="-3.52826">
        <ele>39</ele>
        <time>2019-07-15T10:45:47Z</time>
      </trkpt>
      <trkpt lat="47.85785" lon="-3.52831">
        <ele>39</ele>
        <time>2019-07-15T10:45:48Z</time>
      </trkpt>
      <trkpt lat="47.8579" lon="-3.52836">
        <ele>39</ele>
        <time>2019-07-15T10:45:49Z</time>
      </trkpt>
      <trkpt lat="47.85795" lon="-3.5284">
        <ele>39</ele>
        <time>2019-07-15T10:45:50Z</time>
      </trkpt>
      <trkpt lat="47.85799" lon="-3.52846">
        <ele>39</ele>
        <time>2019-07-15T10:45:51Z</time>
      </trkpt>
      <trkpt lat="47.85804" lon="-3.52851">
        <ele>39</ele>
        <time>2019-07-15T10:45:52Z</time>
      </trkpt>
      <trkpt lat="47.85807" lon="-3.52856">
        <ele>39</ele>
        <time>2019-07-15T10:45:53Z</time>
      </trkpt>
      <trkpt lat="47.8581" lon="-3.5286">
        <ele>39</ele>
        <time>2019-07-15T10:45:54Z</time>
      </trkpt>
      <trkpt lat="47.85813" lon="-3.52864">
        <ele>38</ele>
        <time>2019-07-15T10:45:55Z</time>
      </trkpt>
      <trkpt lat="47.85815" lon="-3.52868">
        <ele>38</ele>
        <time>2019-07-15T10:45:56Z</time>
      </trkpt>
      <trkpt lat="47.85817" lon="-3.52873">
        <ele>38</ele>
        <time>2019-07-15T10:45:57Z</time>
      </trkpt>
      <trkpt lat="47.85819" lon="-3.52878">
        <ele>38</ele>
        <time>2019-07-15T10:45:58Z</time>
      </trkpt>
      <trkpt lat="47.85821" lon="-3.52883">
        <ele>38</ele>
        <time>2019-07-15T10:45:59Z</time>
      </trkpt>
      <trkpt lat="47.85822" lon="-3.52889">
        <ele>37</ele>
        <time>2019-07-15T10:46:00Z</time>
      </trkpt>
      <trkpt lat="47.85824" lon="-3.52895">
        <ele>37</ele>
        <time>2019-07-15T10:46:01Z</time>
      </trkpt>
      <trkpt lat="47.85825" lon="-3.52899">
        <ele>37</ele>
        <time>2019-07-15T10:46:02Z</time>
      </trkpt>
      <trkpt lat="47.85828" lon="-3.52903">
        <ele>37</ele>
        <time>2019-07-15T10:46:03Z</time>
      </trkpt>
      <trkpt lat="47.8583" lon="-3.52908">
        <ele>37</ele>
        <time>2019-07-15T10:46:04Z</time>
      </trkpt>
      <trkpt lat="47.85831" lon="-3.52913">
        <ele>37</ele>
        <time>2019-07-15T10:46:05Z</time>
      </trkpt>
      <trkpt lat="47.85833" lon="-3.52918">
        <ele>37</ele>
        <time>2019-07-15T10:46:06Z</time>
      </trkpt>
      <trkpt lat="47.85834" lon="-3.52924">
        <ele>38</ele>
        <time>2019-07-15T10:46:07Z</time>
      </trkpt>
      <trkpt lat="47.85836" lon="-3.52929">
        <ele>38</ele>
        <time>2019-07-15T10:46:08Z</time>
      </trkpt>
      <trkpt lat="47.85838" lon="-3.52934">
        <ele>38</ele>
        <time>2019-07-15T10:46:09Z</time>
      </trkpt>
      <trkpt lat="47.8584" lon="-3.52938">
        <ele>38</ele>
        <time>2019-07-15T10:46:10Z</time>
      </trkpt>
      <trkpt lat="47.85842" lon="-3.52943">
        <ele>38</ele>
        <time>2019-07-15T10:46:11Z</time>
      </trkpt>
      <trkpt lat="47.85844" lon="-3.52949">
        <ele>38</ele>
        <time>2019-07-15T10:46:12Z</time>
      </trkpt>
      <trkpt lat="47.85845" lon="-3.52955">
        <ele>38</ele>
        <time>2019-07-15T10:46:13Z</time>
      </trkpt>
      <trkpt lat="47.85847" lon="-3.52961">
        <ele>38</ele>
        <time>2019-07-15T10:46:14Z</time>
      </trkpt>
      <trkpt lat="47.85849" lon="-3.52967">
        <ele>38</ele>
        <time>2019-07-15T10:46:15Z</time>
      </trkpt>
      <trkpt lat="47.8585" lon="-3.52973">
        <ele>38</ele>
        <time>2019-07-15T10:46:16Z</time>
      </trkpt>
      <trkpt lat="47.85852" lon="-3.52979">
        <ele>38</ele>
        <time>2019-07-15T10:46:17Z</time>
      </trkpt>
      <trkpt lat="47.85854" lon="-3.52984">
        <ele>38</ele>
        <time>2019-07-15T10:46:18Z</time>
      </trkpt>
      <trkpt lat="47.85856" lon="-3.5299">
        <ele>38</ele>
        <time>2019-07-15T10:46:19Z</time>
      </trkpt>
      <trkpt lat="47.85857" lon="-3.52997">
        <ele>38</ele>
        <time>2019-07-15T10:46:20Z</time>
      </trkpt>
      <trkpt lat="47.85859" lon="-3.53002">
        <ele>38</ele>
        <time>2019-07-15T10:46:21Z</time>
      </trkpt>
      <trkpt lat="47.85861" lon="-3.53008">
        <ele>38</ele>
        <time>2019-07-15T10:46:22Z</time>
      </trkpt>
      <trkpt lat="47.85862" lon="-3.53014">
        <ele>38</ele>
        <time>2019-07-15T10:46:23Z</time>
      </trkpt>
      <trkpt lat="47.85864" lon="-3.5302">
        <ele>37</ele>
        <time>2019-07-15T10:46:24Z</time>
      </trkpt>
      <trkpt lat="47.85865" lon="-3.53027">
        <ele>37</ele>
        <time>2019-07-15T10:46:25Z</time>
      </trkpt>
      <trkpt lat="47.85867" lon="-3.53033">
        <ele>37</ele>
        <time>2019-07-15T10:46:26Z</time>
      </trkpt>
      <trkpt lat="47.85869" lon="-3.5304">
        <ele>37</ele>
        <time>2019-07-15T10:46:27Z</time>
      </trkpt>
      <trkpt lat="47.8587" lon="-3.53048">
        <ele>37</ele>
        <time>2019-07-15T10:46:28Z</time>
      </trkpt>
      <trkpt lat="47.85873" lon="-3.53056">
        <ele>37</ele>
        <time>2019-07-15T10:46:29Z</time>
      </trkpt>
      <trkpt lat="47.85875" lon="-3.53064">
        <ele>37</ele>
        <time>2019-07-15T10:46:30Z</time>
      </trkpt>
      <trkpt lat="47.85877" lon="-3.53073">
        <ele>37</ele>
        <time>2019-07-15T10:46:31Z</time>
      </trkpt>
      <trkpt lat="47.85879" lon="-3.53082">
        <ele>36</ele>
        <time>2019-07-15T10:46:32Z</time>
      </trkpt>
      <trkpt lat="47.85881" lon="-3.53091">
        <ele>36</ele>
        <time>2019-07-15T10:46:33Z</time>
      </trkpt>
      <trkpt lat="47.85883" lon="-3.531">
        <ele>36</ele>
        <time>2019-07-15T10:46:34Z</time>
      </trkpt>
      <trkpt lat="47.85886" lon="-3.5311">
        <ele>36</ele>
        <time>2019-07-15T10:46:35Z</time>
      </trkpt>
      <trkpt lat="47.85888" lon="-3.5312">
        <ele>35</ele>
        <time>2019-07-15T10:46:36Z</time>
      </trkpt>
      <trkpt lat="47.85891" lon="-3.5313">
        <ele>35</ele>
        <time>2019-07-15T10:46:37Z</time>
      </trkpt>
      <trkpt lat="47.85893" lon="-3.5314">
        <ele>35</ele>
        <time>2019-07-15T10:46:38Z</time>
      </trkpt>
      <trkpt lat="47.85897" lon="-3.53149">
        <ele>35</ele>
        <time>2019-07-15T10:46:39Z</time>
      </trkpt>
      <trkpt lat="47.85901" lon="-3.53158">
        <ele>34</ele>
        <time>2019-07-15T10:46:40Z</time>
      </trkpt>
      <trkpt lat="47.85905" lon="-3.53168">
        <ele>34</ele>
        <time>2019-07-15T10:46:41Z</time>
      </trkpt>
      <trkpt lat="47.85909" lon="-3.53179">
        <ele>34</ele>
        <time>2019-07-15T10:46:42Z</time>
      </trkpt>
      <trkpt lat="47.85914" lon="-3.5319">
        <ele>34</ele>
        <time>2019-07-15T10:46:43Z</time>
      </trkpt>
      <trkpt lat="47.85918" lon="-3.53201">
        <ele>34</ele>
        <time>2019-07-15T10:46:44Z</time>
      </trkpt>
      <trkpt lat="47.85922" lon="-3.53213">
        <ele>33</ele>
        <time>2019-07-15T10:46:45Z</time>
      </trkpt>
      <trkpt lat="47.85926" lon="-3.53224">
        <ele>33</ele>
        <time>2019-07-15T10:46:46Z</time>
      </trkpt>
      <trkpt lat="47.85929" lon="-3.53236">
        <ele>33</ele>
        <time>2019-07-15T10:46:47Z</time>
      </trkpt>
      <trkpt lat="47.85932" lon="-3.53249">
        <ele>33</ele>
        <time>2019-07-15T10:46:48Z</time>
      </trkpt>
      <trkpt lat="47.85935" lon="-3.53262">
        <ele>32</ele>
        <time>2019-07-15T10:46:49Z</time>
      </trkpt>
      <trkpt lat="47.85938" lon="-3.53273">
        <ele>32</ele>
        <time>2019-07-15T10:46:50Z</time>
      </trkpt>
      <trkpt lat="47.8594" lon="-3.53286">
        <ele>32</ele>
        <time>2019-07-15T10:46:51Z</time>
      </trkpt>
      <trkpt lat="47.85942" lon="-3.53297">
        <ele>31</ele>
        <time>2019-07-15T10:46:52Z</time>
      </trkpt>
      <trkpt lat="47.85945" lon="-3.53308">
        <ele>31</ele>
        <time>2019-07-15T10:46:53Z</time>
      </trkpt>
      <trkpt lat="47.85947" lon="-3.5332">
        <ele>30</ele>
        <time>2019-07-15T10:46:54Z</time>
      </trkpt>
      <trkpt lat="47.85949" lon="-3.53331">
        <ele>30</ele>
        <time>2019-07-15T10:46:55Z</time>
      </trkpt>
      <trkpt lat="47.85951" lon="-3.53342">
        <ele>30</ele>
        <time>2019-07-15T10:46:56Z</time>
      </trkpt>
      <trkpt lat="47.85952" lon="-3.53353">
        <ele>29</ele>
        <time>2019-07-15T10:46:57Z</time>
      </trkpt>
      <trkpt lat="47.85954" lon="-3.53364">
        <ele>29</ele>
        <time>2019-07-15T10:46:58Z</time>
      </trkpt>
      <trkpt lat="47.85956" lon="-3.53374">
        <ele>29</ele>
        <time>2019-07-15T10:46:59Z</time>
      </trkpt>
      <trkpt lat="47.85958" lon="-3.53384">
        <ele>29</ele>
        <time>2019-07-15T10:47:00Z</time>
      </trkpt>
      <trkpt lat="47.8596" lon="-3.53394">
        <ele>28</ele>
        <time>2019-07-15T10:47:01Z</time>
      </trkpt>
      <trkpt lat="47.85961" lon="-3.53403">
        <ele>28</ele>
        <time>2019-07-15T10:47:02Z</time>
      </trkpt>
      <trkpt lat="47.85962" lon="-3.53412">
        <ele>28</ele>
        <time>2019-07-15T10:47:03Z</time>
      </trkpt>
      <trkpt lat="47.85963" lon="-3.53421">
        <ele>28</ele>
        <time>2019-07-15T10:47:04Z</time>
      </trkpt>
      <trkpt lat="47.85965" lon="-3.53429">
        <ele>28</ele>
        <time>2019-07-15T10:47:05Z</time>
      </trkpt>
      <trkpt lat="47.85965" lon="-3.53437">
        <ele>28</ele>
        <time>2019-07-15T10:47:06Z</time>
      </trkpt>
      <trkpt lat="47.85966" lon="-3.53445">
        <ele>28</ele>
        <time>2019-07-15T10:47:07Z</time>
      </trkpt>
      <trkpt lat="47.85967" lon="-3.53453">
        <ele>28</ele>
        <time>2019-07-15T10:47:08Z</time>
      </trkpt>
      <trkpt lat="47.85967" lon="-3.5346">
        <ele>28</ele>
        <time>2019-07-15T10:47:09Z</time>
      </trkpt>
      <trkpt lat="47.85967" lon="-3.53468">
        <ele>28</ele>
        <time>2019-07-15T10:47:10Z</time>
      </trkpt>
      <trkpt lat="47.85967" lon="-3.53475">
        <ele>28</ele>
        <time>2019-07-15T10:47:11Z</time>
      </trkpt>
      <trkpt lat="47.85967" lon="-3.53482">
        <ele>28</ele>
        <time>2019-07-15T10:47:12Z</time>
      </trkpt>
      <trkpt lat="47.85967" lon="-3.53489">
        <ele>28</ele>
        <time>2019-07-15T10:47:13Z</time>
      </trkpt>
      <trkpt lat="47.85967" lon="-3.53495">
        <ele>28</ele>
        <time>2019-07-15T10:47:14Z</time>
      </trkpt>
      <trkpt lat="47.85966" lon="-3.53501">
        <ele>28</ele>
        <time>2019-07-15T10:47:15Z</time>
      </trkpt>
      <trkpt lat="47.85966" lon="-3.53508">
        <ele>28</ele>
        <time>2019-07-15T10:47:16Z</time>
      </trkpt>
      <trkpt lat="47.85966" lon="-3.53514">
        <ele>28</ele>
        <time>2019-07-15T10:47:17Z</time>
      </trkpt>
      <trkpt lat="47.85965" lon="-3.5352">
        <ele>28</ele>
        <time>2019-07-15T10:47:18Z</time>
      </trkpt>
      <trkpt lat="47.85965" lon="-3.53526">
        <ele>28</ele>
        <time>2019-07-15T10:47:19Z</time>
      </trkpt>
      <trkpt lat="47.85964" lon="-3.53533">
        <ele>28</ele>
        <time>2019-07-15T10:47:20Z</time>
      </trkpt>
      <trkpt lat="47.85964" lon="-3.53539">
        <ele>29</ele>
        <time>2019-07-15T10:47:21Z</time>
      </trkpt>
      <trkpt lat="47.85963" lon="-3.53545">
        <ele>29</ele>
        <time>2019-07-15T10:47:22Z</time>
      </trkpt>
      <trkpt lat="47.85962" lon="-3.53551">
        <ele>29</ele>
        <time>2019-07-15T10:47:23Z</time>
      </trkpt>
      <trkpt lat="47.85962" lon="-3.53557">
        <ele>29</ele>
        <time>2019-07-15T10:47:24Z</time>
      </trkpt>
      <trkpt lat="47.85963" lon="-3.53563">
        <ele>29</ele>
        <time>2019-07-15T10:47:25Z</time>
      </trkpt>
      <trkpt lat="47.85964" lon="-3.53567">
        <ele>29</ele>
        <time>2019-07-15T10:47:26Z</time>
      </trkpt>
      <trkpt lat="47.85966" lon="-3.53571">
        <ele>29</ele>
        <time>2019-07-15T10:47:27Z</time>
      </trkpt>
      <trkpt lat="47.85967" lon="-3.53574">
        <ele>29</ele>
        <time>2019-07-15T10:47:28Z</time>
      </trkpt>
      <trkpt lat="47.85968" lon="-3.53576">
        <ele>29</ele>
        <time>2019-07-15T10:47:29Z</time>
      </trkpt>
      <trkpt lat="47.85968" lon="-3.53578">
        <ele>29</ele>
        <time>2019-07-15T10:47:30Z</time>
      </trkpt>
      <trkpt lat="47.85969" lon="-3.53579">
        <ele>29</ele>
        <time>2019-07-15T10:47:31Z</time>
      </trkpt>
      <trkpt lat="47.85969" lon="-3.53579">
        <ele>29</ele>
        <time>2019-07-15T10:47:32Z</time>
      </trkpt>
      <trkpt lat="47.85971" lon="-3.53583">
        <ele>29</ele>
        <time>2019-07-15T10:47:33Z</time>
      </trkpt>
      <trkpt lat="47.85972" lon="-3.53582">
        <ele>29</ele>
        <time>2019-07-15T10:47:34Z</time>
      </trkpt>
      <trkpt lat="47.85975" lon="-3.53582">
        <ele>29</ele>
        <time>2019-07-15T10:47:35Z</time>
      </trkpt>
      <trkpt lat="47.85977" lon="-3.53583">
        <ele>29</ele>
        <time>2019-07-15T10:47:36Z</time>
      </trkpt>
      <trkpt lat="47.85979" lon="-3.53583">
        <ele>30</ele>
        <time>2019-07-15T10:47:37Z</time>
      </trkpt>
      <trkpt lat="47.85982" lon="-3.53582">
        <ele>30</ele>
        <time>2019-07-15T10:47:38Z</time>
      </trkpt>
      <trkpt lat="47.85985" lon="-3.53581">
        <ele>30</ele>
        <time>2019-07-15T10:47:39Z</time>
      </trkpt>
      <trkpt lat="47.85987" lon="-3.5358">
        <ele>30</ele>
        <time>2019-07-15T10:47:40Z</time>
      </trkpt>
      <trkpt lat="47.8599" lon="-3.53578">
        <ele>30</ele>
        <time>2019-07-15T10:47:41Z</time>
      </trkpt>
      <trkpt lat="47.85994" lon="-3.53576">
        <ele>30</ele>
        <time>2019-07-15T10:47:42Z</time>
      </trkpt>
      <trkpt lat="47.85998" lon="-3.53575">
        <ele>31</ele>
        <time>2019-07-15T10:47:43Z</time>
      </trkpt>
      <trkpt lat="47.86002" lon="-3.53573">
        <ele>31</ele>
        <time>2019-07-15T10:47:44Z</time>
      </trkpt>
      <trkpt lat="47.86007" lon="-3.53571">
        <ele>31</ele>
        <time>2019-07-15T10:47:45Z</time>
      </trkpt>
      <trkpt lat="47.86011" lon="-3.53569">
        <ele>31</ele>
        <time>2019-07-15T10:47:46Z</time>
      </trkpt>
      <trkpt lat="47.86015" lon="-3.53567">
        <ele>31</ele>
        <time>2019-07-15T10:47:47Z</time>
      </trkpt>
      <trkpt lat="47.8602" lon="-3.53565">
        <ele>32</ele>
        <time>2019-07-15T10:47:48Z</time>
      </trkpt>
      <trkpt lat="47.86024" lon="-3.53564">
        <ele>32</ele>
        <time>2019-07-15T10:47:49Z</time>
      </trkpt>
      <trkpt lat="47.86028" lon="-3.53562">
        <ele>32</ele>
        <time>2019-07-15T10:47:50Z</time>
      </trkpt>
      <trkpt lat="47.86032" lon="-3.5356">
        <ele>32</ele>
        <time>2019-07-15T10:47:51Z</time>
      </trkpt>
      <trkpt lat="47.86037" lon="-3.53559">
        <ele>32</ele>
        <time>2019-07-15T10:47:52Z</time>
      </trkpt>
      <trkpt lat="47.86041" lon="-3.53558">
        <ele>33</ele>
        <time>2019-07-15T10:47:53Z</time>
      </trkpt>
      <trkpt lat="47.86045" lon="-3.53558">
        <ele>33</ele>
        <time>2019-07-15T10:47:54Z</time>
      </trkpt>
      <trkpt lat="47.86049" lon="-3.53559">
        <ele>33</ele>
        <time>2019-07-15T10:47:55Z</time>
      </trkpt>
      <trkpt lat="47.86054" lon="-3.53561">
        <ele>33</ele>
        <time>2019-07-15T10:47:56Z</time>
      </trkpt>
      <trkpt lat="47.86057" lon="-3.53564">
        <ele>33</ele>
        <time>2019-07-15T10:47:57Z</time>
      </trkpt>
      <trkpt lat="47.86061" lon="-3.53565">
        <ele>33</ele>
        <time>2019-07-15T10:47:58Z</time>
      </trkpt>
      <trkpt lat="47.86064" lon="-3.53568">
        <ele>34</ele>
        <time>2019-07-15T10:47:59Z</time>
      </trkpt>
      <trkpt lat="47.86068" lon="-3.53571">
        <ele>34</ele>
        <time>2019-07-15T10:48:00Z</time>
      </trkpt>
      <trkpt lat="47.86072" lon="-3.53575">
        <ele>34</ele>
        <time>2019-07-15T10:48:01Z</time>
      </trkpt>
      <trkpt lat="47.86076" lon="-3.53579">
        <ele>34</ele>
        <time>2019-07-15T10:48:02Z</time>
      </trkpt>
      <trkpt lat="47.86079" lon="-3.53583">
        <ele>34</ele>
        <time>2019-07-15T10:48:03Z</time>
      </trkpt>
      <trkpt lat="47.86082" lon="-3.53587">
        <ele>35</ele>
        <time>2019-07-15T10:48:04Z</time>
      </trkpt>
      <trkpt lat="47.86086" lon="-3.5359">
        <ele>35</ele>
        <time>2019-07-15T10:48:05Z</time>
      </trkpt>
      <trkpt lat="47.86089" lon="-3.53593">
        <ele>35</ele>
        <time>2019-07-15T10:48:06Z</time>
      </trkpt>
      <trkpt lat="47.86093" lon="-3.53596">
        <ele>35</ele>
        <time>2019-07-15T10:48:07Z</time>
      </trkpt>
      <trkpt lat="47.86097" lon="-3.53598">
        <ele>35</ele>
        <time>2019-07-15T10:48:08Z</time>
      </trkpt>
      <trkpt lat="47.86101" lon="-3.536">
        <ele>35</ele>
        <time>2019-07-15T10:48:09Z</time>
      </trkpt>
      <trkpt lat="47.86105" lon="-3.536">
        <ele>35</ele>
        <time>2019-07-15T10:48:10Z</time>
      </trkpt>
      <trkpt lat="47.8611" lon="-3.53598">
        <ele>36</ele>
        <time>2019-07-15T10:48:11Z</time>
      </trkpt>
      <trkpt lat="47.86114" lon="-3.53596">
        <ele>36</ele>
        <time>2019-07-15T10:48:12Z</time>
      </trkpt>
      <trkpt lat="47.86118" lon="-3.53594">
        <ele>36</ele>
        <time>2019-07-15T10:48:13Z</time>
      </trkpt>
      <trkpt lat="47.86123" lon="-3.53591">
        <ele>36</ele>
        <time>2019-07-15T10:48:14Z</time>
      </trkpt>
      <trkpt lat="47.86127" lon="-3.53587">
        <ele>36</ele>
        <time>2019-07-15T10:48:15Z</time>
      </trkpt>
      <trkpt lat="47.86131" lon="-3.53584">
        <ele>36</ele>
        <time>2019-07-15T10:48:16Z</time>
      </trkpt>
      <trkpt lat="47.86135" lon="-3.53581">
        <ele>36</ele>
        <time>2019-07-15T10:48:17Z</time>
      </trkpt>
      <trkpt lat="47.86139" lon="-3.53577">
        <ele>37</ele>
        <time>2019-07-15T10:48:18Z</time>
      </trkpt>
      <trkpt lat="47.86144" lon="-3.53574">
        <ele>37</ele>
        <time>2019-07-15T10:48:19Z</time>
      </trkpt>
      <trkpt lat="47.86148" lon="-3.5357">
        <ele>37</ele>
        <time>2019-07-15T10:48:20Z</time>
      </trkpt>
      <trkpt lat="47.86152" lon="-3.53567">
        <ele>37</ele>
        <time>2019-07-15T10:48:21Z</time>
      </trkpt>
      <trkpt lat="47.86156" lon="-3.53564">
        <ele>37</ele>
        <time>2019-07-15T10:48:22Z</time>
      </trkpt>
      <trkpt lat="47.8616" lon="-3.5356">
        <ele>38</ele>
        <time>2019-07-15T10:48:23Z</time>
      </trkpt>
      <trkpt lat="47.86164" lon="-3.53557">
        <ele>38</ele>
        <time>2019-07-15T10:48:24Z</time>
      </trkpt>
      <trkpt lat="47.86168" lon="-3.53553">
        <ele>38</ele>
        <time>2019-07-15T10:48:25Z</time>
      </trkpt>
      <trkpt lat="47.86172" lon="-3.5355">
        <ele>38</ele>
        <time>2019-07-15T10:48:26Z</time>
      </trkpt>
      <trkpt lat="47.86175" lon="-3.53548">
        <ele>38</ele>
        <time>2019-07-15T10:48:27Z</time>
      </trkpt>
      <trkpt lat="47.86179" lon="-3.53548">
        <ele>38</ele>
        <time>2019-07-15T10:48:28Z</time>
      </trkpt>
      <trkpt lat="47.86182" lon="-3.53548">
        <ele>38</ele>
        <time>2019-07-15T10:48:29Z</time>
      </trkpt>
      <trkpt lat="47.86184" lon="-3.53547">
        <ele>39</ele>
        <time>2019-07-15T10:48:30Z</time>
      </trkpt>
      <trkpt lat="47.86187" lon="-3.53546">
        <ele>39</ele>
        <time>2019-07-15T10:48:31Z</time>
      </trkpt>
      <trkpt lat="47.8619" lon="-3.53545">
        <ele>39</ele>
        <time>2019-07-15T10:48:32Z</time>
      </trkpt>
      <trkpt lat="47.86193" lon="-3.53544">
        <ele>39</ele>
        <time>2019-07-15T10:48:33Z</time>
      </trkpt>
      <trkpt lat="47.86195" lon="-3.53544">
        <ele>39</ele>
        <time>2019-07-15T10:48:34Z</time>
      </trkpt>
      <trkpt lat="47.86198" lon="-3.53543">
        <ele>39</ele>
        <time>2019-07-15T10:48:35Z</time>
      </trkpt>
      <trkpt lat="47.862" lon="-3.53542">
        <ele>39</ele>
        <time>2019-07-15T10:48:36Z</time>
      </trkpt>
      <trkpt lat="47.86203" lon="-3.53541">
        <ele>39</ele>
        <time>2019-07-15T10:48:37Z</time>
      </trkpt>
      <trkpt lat="47.86207" lon="-3.53541">
        <ele>39</ele>
        <time>2019-07-15T10:48:38Z</time>
      </trkpt>
      <trkpt lat="47.86211" lon="-3.5354">
        <ele>40</ele>
        <time>2019-07-15T10:48:39Z</time>
      </trkpt>
      <trkpt lat="47.86215" lon="-3.53539">
        <ele>40</ele>
        <time>2019-07-15T10:48:40Z</time>
      </trkpt>
      <trkpt lat="47.86218" lon="-3.53537">
        <ele>40</ele>
        <time>2019-07-15T10:48:41Z</time>
      </trkpt>
      <trkpt lat="47.86222" lon="-3.53537">
        <ele>40</ele>
        <time>2019-07-15T10:48:42Z</time>
      </trkpt>
      <trkpt lat="47.86226" lon="-3.53536">
        <ele>40</ele>
        <time>2019-07-15T10:48:43Z</time>
      </trkpt>
      <trkpt lat="47.8623" lon="-3.53535">
        <ele>40</ele>
        <time>2019-07-15T10:48:44Z</time>
      </trkpt>
      <trkpt lat="47.86234" lon="-3.53535">
        <ele>40</ele>
        <time>2019-07-15T10:48:45Z</time>
      </trkpt>
      <trkpt lat="47.86238" lon="-3.53535">
        <ele>40</ele>
        <time>2019-07-15T10:48:46Z</time>
      </trkpt>
      <trkpt lat="47.86242" lon="-3.53536">
        <ele>40</ele>
        <time>2019-07-15T10:48:47Z</time>
      </trkpt>
      <trkpt lat="47.86246" lon="-3.53537">
        <ele>40</ele>
        <time>2019-07-15T10:48:48Z</time>
      </trkpt>
      <trkpt lat="47.8625" lon="-3.53538">
        <ele>41</ele>
        <time>2019-07-15T10:48:49Z</time>
      </trkpt>
      <trkpt lat="47.86254" lon="-3.53539">
        <ele>41</ele>
        <time>2019-07-15T10:48:50Z</time>
      </trkpt>
      <trkpt lat="47.86257" lon="-3.53539">
        <ele>41</ele>
        <time>2019-07-15T10:48:51Z</time>
      </trkpt>
      <trkpt lat="47.86261" lon="-3.53539">
        <ele>41</ele>
        <time>2019-07-15T10:48:52Z</time>
      </trkpt>
      <trkpt lat="47.86264" lon="-3.53539">
        <ele>41</ele>
        <time>2019-07-15T10:48:53Z</time>
      </trkpt>
      <trkpt lat="47.86268" lon="-3.53539">
        <ele>41</ele>
        <time>2019-07-15T10:48:54Z</time>
      </trkpt>
      <trkpt lat="47.86272" lon="-3.53539">
        <ele>41</ele>
        <time>2019-07-15T10:48:55Z</time>
      </trkpt>
      <trkpt lat="47.86277" lon="-3.53539">
        <ele>41</ele>
        <time>2019-07-15T10:48:56Z</time>
      </trkpt>
      <trkpt lat="47.86282" lon="-3.53538">
        <ele>41</ele>
        <time>2019-07-15T10:48:57Z</time>
      </trkpt>
      <trkpt lat="47.86286" lon="-3.53538">
        <ele>41</ele>
        <time>2019-07-15T10:48:58Z</time>
      </trkpt>
      <trkpt lat="47.8629" lon="-3.53539">
        <ele>41</ele>
        <time>2019-07-15T10:48:59Z</time>
      </trkpt>
      <trkpt lat="47.86294" lon="-3.53538">
        <ele>41</ele>
        <time>2019-07-15T10:49:00Z</time>
      </trkpt>
      <trkpt lat="47.86299" lon="-3.53538">
        <ele>41</ele>
        <time>2019-07-15T10:49:01Z</time>
      </trkpt>
      <trkpt lat="47.86303" lon="-3.53538">
        <ele>41</ele>
        <time>2019-07-15T10:49:02Z</time>
      </trkpt>
      <trkpt lat="47.86307" lon="-3.53538">
        <ele>41</ele>
        <time>2019-07-15T10:49:03Z</time>
      </trkpt>
      <trkpt lat="47.86312" lon="-3.53539">
        <ele>42</ele>
        <time>2019-07-15T10:49:04Z</time>
      </trkpt>
      <trkpt lat="47.86316" lon="-3.53539">
        <ele>42</ele>
        <time>2019-07-15T10:49:05Z</time>
      </trkpt>
      <trkpt lat="47.86322" lon="-3.53539">
        <ele>42</ele>
        <time>2019-07-15T10:49:06Z</time>
      </trkpt>
      <trkpt lat="47.86327" lon="-3.53538">
        <ele>42</ele>
        <time>2019-07-15T10:49:07Z</time>
      </trkpt>
      <trkpt lat="47.86332" lon="-3.53537">
        <ele>42</ele>
        <time>2019-07-15T10:49:08Z</time>
      </trkpt>
      <trkpt lat="47.86336" lon="-3.53536">
        <ele>42</ele>
        <time>2019-07-15T10:49:09Z</time>
      </trkpt>
      <trkpt lat="47.86339" lon="-3.53537">
        <ele>42</ele>
        <time>2019-07-15T10:49:10Z</time>
      </trkpt>
      <trkpt lat="47.86343" lon="-3.53538">
        <ele>42</ele>
        <time>2019-07-15T10:49:11Z</time>
      </trkpt>
      <trkpt lat="47.86348" lon="-3.53539">
        <ele>42</ele>
        <time>2019-07-15T10:49:12Z</time>
      </trkpt>
      <trkpt lat="47.86352" lon="-3.5354">
        <ele>42</ele>
        <time>2019-07-15T10:49:13Z</time>
      </trkpt>
      <trkpt lat="47.86357" lon="-3.53541">
        <ele>43</ele>
        <time>2019-07-15T10:49:14Z</time>
      </trkpt>
      <trkpt lat="47.86362" lon="-3.53543">
        <ele>43</ele>
        <time>2019-07-15T10:49:15Z</time>
      </trkpt>
      <trkpt lat="47.86366" lon="-3.53544">
        <ele>43</ele>
        <time>2019-07-15T10:49:16Z</time>
      </trkpt>
      <trkpt lat="47.86372" lon="-3.53545">
        <ele>43</ele>
        <time>2019-07-15T10:49:17Z</time>
      </trkpt>
      <trkpt lat="47.86376" lon="-3.53546">
        <ele>43</ele>
        <time>2019-07-15T10:49:18Z</time>
      </trkpt>
      <trkpt lat="47.8638" lon="-3.53547">
        <ele>43</ele>
        <time>2019-07-15T10:49:19Z</time>
      </trkpt>
      <trkpt lat="47.86385" lon="-3.53548">
        <ele>43</ele>
        <time>2019-07-15T10:49:20Z</time>
      </trkpt>
      <trkpt lat="47.86389" lon="-3.5355">
        <ele>43</ele>
        <time>2019-07-15T10:49:21Z</time>
      </trkpt>
      <trkpt lat="47.86393" lon="-3.53551">
        <ele>43</ele>
        <time>2019-07-15T10:49:22Z</time>
      </trkpt>
      <trkpt lat="47.86398" lon="-3.53552">
        <ele>43</ele>
        <time>2019-07-15T10:49:23Z</time>
      </trkpt>
      <trkpt lat="47.86402" lon="-3.53554">
        <ele>43</ele>
        <time>2019-07-15T10:49:24Z</time>
      </trkpt>
      <trkpt lat="47.86406" lon="-3.53555">
        <ele>43</ele>
        <time>2019-07-15T10:49:25Z</time>
      </trkpt>
      <trkpt lat="47.86411" lon="-3.53557">
        <ele>43</ele>
        <time>2019-07-15T10:49:26Z</time>
      </trkpt>
      <trkpt lat="47.86415" lon="-3.53559">
        <ele>43</ele>
        <time>2019-07-15T10:49:27Z</time>
      </trkpt>
      <trkpt lat="47.8642" lon="-3.53561">
        <ele>43</ele>
        <time>2019-07-15T10:49:28Z</time>
      </trkpt>
      <trkpt lat="47.86425" lon="-3.53564">
        <ele>42</ele>
        <time>2019-07-15T10:49:29Z</time>
      </trkpt>
      <trkpt lat="47.86431" lon="-3.53566">
        <ele>42</ele>
        <time>2019-07-15T10:49:30Z</time>
      </trkpt>
      <trkpt lat="47.86435" lon="-3.53568">
        <ele>42</ele>
        <time>2019-07-15T10:49:31Z</time>
      </trkpt>
      <trkpt lat="47.86439" lon="-3.53571">
        <ele>42</ele>
        <time>2019-07-15T10:49:32Z</time>
      </trkpt>
      <trkpt lat="47.86443" lon="-3.53572">
        <ele>42</ele>
        <time>2019-07-15T10:49:33Z</time>
      </trkpt>
      <trkpt lat="47.86446" lon="-3.53574">
        <ele>42</ele>
        <time>2019-07-15T10:49:34Z</time>
      </trkpt>
      <trkpt lat="47.86449" lon="-3.53575">
        <ele>42</ele>
        <time>2019-07-15T10:49:35Z</time>
      </trkpt>
      <trkpt lat="47.86451" lon="-3.53577">
        <ele>42</ele>
        <time>2019-07-15T10:49:36Z</time>
      </trkpt>
      <trkpt lat="47.86453" lon="-3.5358">
        <ele>42</ele>
        <time>2019-07-15T10:49:37Z</time>
      </trkpt>
      <trkpt lat="47.86455" lon="-3.53583">
        <ele>41</ele>
        <time>2019-07-15T10:49:38Z</time>
      </trkpt>
      <trkpt lat="47.86458" lon="-3.53586">
        <ele>41</ele>
        <time>2019-07-15T10:49:39Z</time>
      </trkpt>
      <trkpt lat="47.86462" lon="-3.53588">
        <ele>41</ele>
        <time>2019-07-15T10:49:40Z</time>
      </trkpt>
      <trkpt lat="47.86465" lon="-3.53588">
        <ele>41</ele>
        <time>2019-07-15T10:49:41Z</time>
      </trkpt>
      <trkpt lat="47.86469" lon="-3.53587">
        <ele>41</ele>
        <time>2019-07-15T10:49:42Z</time>
      </trkpt>
      <trkpt lat="47.86472" lon="-3.53585">
        <ele>41</ele>
        <time>2019-07-15T10:49:43Z</time>
      </trkpt>
      <trkpt lat="47.86476" lon="-3.53582">
        <ele>41</ele>
        <time>2019-07-15T10:49:44Z</time>
      </trkpt>
      <trkpt lat="47.86479" lon="-3.53579">
        <ele>41</ele>
        <time>2019-07-15T10:49:45Z</time>
      </trkpt>
      <trkpt lat="47.86483" lon="-3.53576">
        <ele>41</ele>
        <time>2019-07-15T10:49:46Z</time>
      </trkpt>
      <trkpt lat="47.86486" lon="-3.53573">
        <ele>41</ele>
        <time>2019-07-15T10:49:47Z</time>
      </trkpt>
      <trkpt lat="47.86488" lon="-3.53569">
        <ele>41</ele>
        <time>2019-07-15T10:49:48Z</time>
      </trkpt>
      <trkpt lat="47.8649" lon="-3.53566">
        <ele>41</ele>
        <time>2019-07-15T10:49:49Z</time>
      </trkpt>
      <trkpt lat="47.86492" lon="-3.53563">
        <ele>41</ele>
        <time>2019-07-15T10:49:50Z</time>
      </trkpt>
      <trkpt lat="47.86493" lon="-3.5356">
        <ele>41</ele>
        <time>2019-07-15T10:49:51Z</time>
      </trkpt>
      <trkpt lat="47.86494" lon="-3.53556">
        <ele>41</ele>
        <time>2019-07-15T10:49:52Z</time>
      </trkpt>
      <trkpt lat="47.86494" lon="-3.53552">
        <ele>41</ele>
        <time>2019-07-15T10:49:53Z</time>
      </trkpt>
      <trkpt lat="47.86495" lon="-3.53549">
        <ele>41</ele>
        <time>2019-07-15T10:49:54Z</time>
      </trkpt>
      <trkpt lat="47.86495" lon="-3.53548">
        <ele>41</ele>
        <time>2019-07-15T10:49:55Z</time>
      </trkpt>
      <trkpt lat="47.86495" lon="-3.53548">
        <ele>41</ele>
        <time>2019-07-15T10:49:56Z</time>
      </trkpt>
      <trkpt lat="47.86496" lon="-3.53548">
        <ele>41</ele>
        <time>2019-07-15T10:49:57Z</time>
      </trkpt>
      <trkpt lat="47.86496" lon="-3.53548">
        <ele>41</ele>
        <time>2019-07-15T10:49:58Z</time>
      </trkpt>
      <trkpt lat="47.86499" lon="-3.53543">
        <ele>44</ele>
        <time>2019-07-15T10:49:59Z</time>
      </trkpt>
      <trkpt lat="47.86498" lon="-3.5354">
        <ele>44</ele>
        <time>2019-07-15T10:50:00Z</time>
      </trkpt>
      <trkpt lat="47.86498" lon="-3.53536">
        <ele>45</ele>
        <time>2019-07-15T10:50:01Z</time>
      </trkpt>
      <trkpt lat="47.86496" lon="-3.53532">
        <ele>45</ele>
        <time>2019-07-15T10:50:02Z</time>
      </trkpt>
      <trkpt lat="47.86494" lon="-3.53527">
        <ele>46</ele>
        <time>2019-07-15T10:50:03Z</time>
      </trkpt>
      <trkpt lat="47.86493" lon="-3.53522">
        <ele>46</ele>
        <time>2019-07-15T10:50:04Z</time>
      </trkpt>
      <trkpt lat="47.8649" lon="-3.53517">
        <ele>47</ele>
        <time>2019-07-15T10:50:05Z</time>
      </trkpt>
      <trkpt lat="47.86488" lon="-3.53512">
        <ele>47</ele>
        <time>2019-07-15T10:50:06Z</time>
      </trkpt>
      <trkpt lat="47.86486" lon="-3.53506">
        <ele>47</ele>
        <time>2019-07-15T10:50:07Z</time>
      </trkpt>
      <trkpt lat="47.86483" lon="-3.535">
        <ele>48</ele>
        <time>2019-07-15T10:50:08Z</time>
      </trkpt>
      <trkpt lat="47.86481" lon="-3.53494">
        <ele>48</ele>
        <time>2019-07-15T10:50:09Z</time>
      </trkpt>
      <trkpt lat="47.86478" lon="-3.53487">
        <ele>48</ele>
        <time>2019-07-15T10:50:10Z</time>
      </trkpt>
      <trkpt lat="47.86475" lon="-3.5348">
        <ele>49</ele>
        <time>2019-07-15T10:50:11Z</time>
      </trkpt>
      <trkpt lat="47.86472" lon="-3.53474">
        <ele>49</ele>
        <time>2019-07-15T10:50:12Z</time>
      </trkpt>
      <trkpt lat="47.8647" lon="-3.53467">
        <ele>49</ele>
        <time>2019-07-15T10:50:13Z</time>
      </trkpt>
      <trkpt lat="47.86468" lon="-3.53462">
        <ele>49</ele>
        <time>2019-07-15T10:50:14Z</time>
      </trkpt>
      <trkpt lat="47.86465" lon="-3.53455">
        <ele>49</ele>
        <time>2019-07-15T10:50:15Z</time>
      </trkpt>
      <trkpt lat="47.86462" lon="-3.53449">
        <ele>50</ele>
        <time>2019-07-15T10:50:16Z</time>
      </trkpt>
      <trkpt lat="47.86458" lon="-3.53442">
        <ele>50</ele>
        <time>2019-07-15T10:50:17Z</time>
      </trkpt>
      <trkpt lat="47.86455" lon="-3.53435">
        <ele>50</ele>
        <time>2019-07-15T10:50:18Z</time>
      </trkpt>
      <trkpt lat="47.86452" lon="-3.53427">
        <ele>50</ele>
        <time>2019-07-15T10:50:19Z</time>
      </trkpt>
      <trkpt lat="47.8645" lon="-3.5342">
        <ele>50</ele>
        <time>2019-07-15T10:50:20Z</time>
      </trkpt>
      <trkpt lat="47.86447" lon="-3.53412">
        <ele>50</ele>
        <time>2019-07-15T10:50:21Z</time>
      </trkpt>
      <trkpt lat="47.86445" lon="-3.53404">
        <ele>50</ele>
        <time>2019-07-15T10:50:22Z</time>
      </trkpt>
      <trkpt lat="47.86442" lon="-3.53396">
        <ele>51</ele>
        <time>2019-07-15T10:50:23Z</time>
      </trkpt>
      <trkpt lat="47.8644" lon="-3.53388">
        <ele>51</ele>
        <time>2019-07-15T10:50:24Z</time>
      </trkpt>
      <trkpt lat="47.86439" lon="-3.5338">
        <ele>51</ele>
        <time>2019-07-15T10:50:25Z</time>
      </trkpt>
      <trkpt lat="47.86438" lon="-3.53371">
        <ele>51</ele>
        <time>2019-07-15T10:50:26Z</time>
      </trkpt>
      <trkpt lat="47.86439" lon="-3.53364">
        <ele>51</ele>
        <time>2019-07-15T10:50:27Z</time>
      </trkpt>
      <trkpt lat="47.86441" lon="-3.53358">
        <ele>51</ele>
        <time>2019-07-15T10:50:28Z</time>
      </trkpt>
      <trkpt lat="47.86444" lon="-3.53353">
        <ele>51</ele>
        <time>2019-07-15T10:50:29Z</time>
      </trkpt>
      <trkpt lat="47.86448" lon="-3.5335">
        <ele>51</ele>
        <time>2019-07-15T10:50:30Z</time>
      </trkpt>
      <trkpt lat="47.86451" lon="-3.53346">
        <ele>51</ele>
        <time>2019-07-15T10:50:31Z</time>
      </trkpt>
      <trkpt lat="47.86455" lon="-3.53344">
        <ele>51</ele>
        <time>2019-07-15T10:50:32Z</time>
      </trkpt>
      <trkpt lat="47.86459" lon="-3.53341">
        <ele>51</ele>
        <time>2019-07-15T10:50:33Z</time>
      </trkpt>
      <trkpt lat="47.86463" lon="-3.53338">
        <ele>51</ele>
        <time>2019-07-15T10:50:34Z</time>
      </trkpt>
      <trkpt lat="47.86468" lon="-3.53335">
        <ele>51</ele>
        <time>2019-07-15T10:50:35Z</time>
      </trkpt>
      <trkpt lat="47.86472" lon="-3.53332">
        <ele>51</ele>
        <time>2019-07-15T10:50:36Z</time>
      </trkpt>
      <trkpt lat="47.86477" lon="-3.5333">
        <ele>51</ele>
        <time>2019-07-15T10:50:37Z</time>
      </trkpt>
      <trkpt lat="47.86481" lon="-3.53328">
        <ele>51</ele>
        <time>2019-07-15T10:50:38Z</time>
      </trkpt>
      <trkpt lat="47.86486" lon="-3.53325">
        <ele>51</ele>
        <time>2019-07-15T10:50:39Z</time>
      </trkpt>
      <trkpt lat="47.8649" lon="-3.53323">
        <ele>51</ele>
        <time>2019-07-15T10:50:40Z</time>
      </trkpt>
      <trkpt lat="47.86495" lon="-3.53321">
        <ele>52</ele>
        <time>2019-07-15T10:50:41Z</time>
      </trkpt>
      <trkpt lat="47.865" lon="-3.53319">
        <ele>52</ele>
        <time>2019-07-15T10:50:42Z</time>
      </trkpt>
      <trkpt lat="47.86505" lon="-3.53317">
        <ele>52</ele>
        <time>2019-07-15T10:50:43Z</time>
      </trkpt>
      <trkpt lat="47.8651" lon="-3.53315">
        <ele>52</ele>
        <time>2019-07-15T10:50:44Z</time>
      </trkpt>
      <trkpt lat="47.86515" lon="-3.53312">
        <ele>51</ele>
        <time>2019-07-15T10:50:45Z</time>
      </trkpt>
      <trkpt lat="47.8652" lon="-3.5331">
        <ele>51</ele>
        <time>2019-07-15T10:50:46Z</time>
      </trkpt>
      <trkpt lat="47.86524" lon="-3.53308">
        <ele>51</ele>
        <time>2019-07-15T10:50:47Z</time>
      </trkpt>
      <trkpt lat="47.86529" lon="-3.53306">
        <ele>51</ele>
        <time>2019-07-15T10:50:48Z</time>
      </trkpt>
      <trkpt lat="47.86534" lon="-3.53303">
        <ele>51</ele>
        <time>2019-07-15T10:50:49Z</time>
      </trkpt>
      <trkpt lat="47.86539" lon="-3.53301">
        <ele>51</ele>
        <time>2019-07-15T10:50:50Z</time>
      </trkpt>
      <trkpt lat="47.86543" lon="-3.53299">
        <ele>51</ele>
        <time>2019-07-15T10:50:51Z</time>
      </trkpt>
      <trkpt lat="47.86548" lon="-3.53296">
        <ele>51</ele>
        <time>2019-07-15T10:50:52Z</time>
      </trkpt>
      <trkpt lat="47.86553" lon="-3.53293">
        <ele>51</ele>
        <time>2019-07-15T10:50:53Z</time>
      </trkpt>
      <trkpt lat="47.86558" lon="-3.53291">
        <ele>51</ele>
        <time>2019-07-15T10:50:54Z</time>
      </trkpt>
      <trkpt lat="47.86562" lon="-3.53288">
        <ele>51</ele>
        <time>2019-07-15T10:50:55Z</time>
      </trkpt>
      <trkpt lat="47.86567" lon="-3.53286">
        <ele>51</ele>
        <time>2019-07-15T10:50:56Z</time>
      </trkpt>
      <trkpt lat="47.86572" lon="-3.53283">
        <ele>51</ele>
        <time>2019-07-15T10:50:57Z</time>
      </trkpt>
      <trkpt lat="47.86576" lon="-3.53281">
        <ele>51</ele>
        <time>2019-07-15T10:50:58Z</time>
      </trkpt>
      <trkpt lat="47.86581" lon="-3.53279">
        <ele>51</ele>
        <time>2019-07-15T10:50:59Z</time>
      </trkpt>
      <trkpt lat="47.86586" lon="-3.53278">
        <ele>51</ele>
        <time>2019-07-15T10:51:00Z</time>
      </trkpt>
      <trkpt lat="47.86591" lon="-3.53278">
        <ele>51</ele>
        <time>2019-07-15T10:51:01Z</time>
      </trkpt>
      <trkpt lat="47.86596" lon="-3.53279">
        <ele>51</ele>
        <time>2019-07-15T10:51:02Z</time>
      </trkpt>
      <trkpt lat="47.86601" lon="-3.53282">
        <ele>51</ele>
        <time>2019-07-15T10:51:03Z</time>
      </trkpt>
      <trkpt lat="47.86605" lon="-3.53287">
        <ele>51</ele>
        <time>2019-07-15T10:51:04Z</time>
      </trkpt>
      <trkpt lat="47.86609" lon="-3.53293">
        <ele>50</ele>
        <time>2019-07-15T10:51:05Z</time>
      </trkpt>
      <trkpt lat="47.86613" lon="-3.533">
        <ele>50</ele>
        <time>2019-07-15T10:51:06Z</time>
      </trkpt>
      <trkpt lat="47.86616" lon="-3.53308">
        <ele>50</ele>
        <time>2019-07-15T10:51:07Z</time>
      </trkpt>
      <trkpt lat="47.86619" lon="-3.53317">
        <ele>50</ele>
        <time>2019-07-15T10:51:08Z</time>
      </trkpt>
      <trkpt lat="47.86622" lon="-3.53325">
        <ele>50</ele>
        <time>2019-07-15T10:51:09Z</time>
      </trkpt>
      <trkpt lat="47.86626" lon="-3.53333">
        <ele>50</ele>
        <time>2019-07-15T10:51:10Z</time>
      </trkpt>
      <trkpt lat="47.86629" lon="-3.53342">
        <ele>50</ele>
        <time>2019-07-15T10:51:11Z</time>
      </trkpt>
      <trkpt lat="47.86633" lon="-3.53351">
        <ele>50</ele>
        <time>2019-07-15T10:51:12Z</time>
      </trkpt>
      <trkpt lat="47.86637" lon="-3.53359">
        <ele>50</ele>
        <time>2019-07-15T10:51:13Z</time>
      </trkpt>
      <trkpt lat="47.86641" lon="-3.53367">
        <ele>50</ele>
        <time>2019-07-15T10:51:14Z</time>
      </trkpt>
      <trkpt lat="47.86645" lon="-3.53376">
        <ele>50</ele>
        <time>2019-07-15T10:51:15Z</time>
      </trkpt>
      <trkpt lat="47.8665" lon="-3.53384">
        <ele>50</ele>
        <time>2019-07-15T10:51:16Z</time>
      </trkpt>
      <trkpt lat="47.86655" lon="-3.53393">
        <ele>50</ele>
        <time>2019-07-15T10:51:17Z</time>
      </trkpt>
      <trkpt lat="47.86659" lon="-3.53401">
        <ele>50</ele>
        <time>2019-07-15T10:51:18Z</time>
      </trkpt>
      <trkpt lat="47.86663" lon="-3.5341">
        <ele>50</ele>
        <time>2019-07-15T10:51:19Z</time>
      </trkpt>
      <trkpt lat="47.86668" lon="-3.53419">
        <ele>50</ele>
        <time>2019-07-15T10:51:20Z</time>
      </trkpt>
      <trkpt lat="47.86672" lon="-3.53429">
        <ele>50</ele>
        <time>2019-07-15T10:51:21Z</time>
      </trkpt>
      <trkpt lat="47.86676" lon="-3.53438">
        <ele>49</ele>
        <time>2019-07-15T10:51:22Z</time>
      </trkpt>
      <trkpt lat="47.86681" lon="-3.53448">
        <ele>49</ele>
        <time>2019-07-15T10:51:23Z</time>
      </trkpt>
      <trkpt lat="47.86685" lon="-3.53457">
        <ele>49</ele>
        <time>2019-07-15T10:51:24Z</time>
      </trkpt>
      <trkpt lat="47.8669" lon="-3.53467">
        <ele>49</ele>
        <time>2019-07-15T10:51:25Z</time>
      </trkpt>
      <trkpt lat="47.86695" lon="-3.53476">
        <ele>49</ele>
        <time>2019-07-15T10:51:26Z</time>
      </trkpt>
      <trkpt lat="47.867" lon="-3.53486">
        <ele>49</ele>
        <time>2019-07-15T10:51:27Z</time>
      </trkpt>
      <trkpt lat="47.86704" lon="-3.53496">
        <ele>49</ele>
        <time>2019-07-15T10:51:28Z</time>
      </trkpt>
      <trkpt lat="47.86709" lon="-3.53505">
        <ele>49</ele>
        <time>2019-07-15T10:51:29Z</time>
      </trkpt>
      <trkpt lat="47.86714" lon="-3.53515">
        <ele>49</ele>
        <time>2019-07-15T10:51:30Z</time>
      </trkpt>
      <trkpt lat="47.86718" lon="-3.53525">
        <ele>49</ele>
        <time>2019-07-15T10:51:31Z</time>
      </trkpt>
      <trkpt lat="47.86723" lon="-3.53534">
        <ele>49</ele>
        <time>2019-07-15T10:51:32Z</time>
      </trkpt>
      <trkpt lat="47.86728" lon="-3.53544">
        <ele>49</ele>
        <time>2019-07-15T10:51:33Z</time>
      </trkpt>
      <trkpt lat="47.86733" lon="-3.53554">
        <ele>49</ele>
        <time>2019-07-15T10:51:34Z</time>
      </trkpt>
      <trkpt lat="47.86738" lon="-3.53563">
        <ele>49</ele>
        <time>2019-07-15T10:51:35Z</time>
      </trkpt>
      <trkpt lat="47.86743" lon="-3.53573">
        <ele>49</ele>
        <time>2019-07-15T10:51:36Z</time>
      </trkpt>
      <trkpt lat="47.86748" lon="-3.53582">
        <ele>49</ele>
        <time>2019-07-15T10:51:37Z</time>
      </trkpt>
      <trkpt lat="47.86753" lon="-3.53592">
        <ele>49</ele>
        <time>2019-07-15T10:51:38Z</time>
      </trkpt>
      <trkpt lat="47.86758" lon="-3.53602">
        <ele>49</ele>
        <time>2019-07-15T10:51:39Z</time>
      </trkpt>
      <trkpt lat="47.86763" lon="-3.53612">
        <ele>49</ele>
        <time>2019-07-15T10:51:40Z</time>
      </trkpt>
      <trkpt lat="47.86768" lon="-3.53622">
        <ele>49</ele>
        <time>2019-07-15T10:51:41Z</time>
      </trkpt>
      <trkpt lat="47.86773" lon="-3.53632">
        <ele>49</ele>
        <time>2019-07-15T10:51:42Z</time>
      </trkpt>
      <trkpt lat="47.86777" lon="-3.53642">
        <ele>49</ele>
        <time>2019-07-15T10:51:43Z</time>
      </trkpt>
      <trkpt lat="47.86781" lon="-3.53653">
        <ele>49</ele>
        <time>2019-07-15T10:51:44Z</time>
      </trkpt>
      <trkpt lat="47.86785" lon="-3.53664">
        <ele>49</ele>
        <time>2019-07-15T10:51:45Z</time>
      </trkpt>
      <trkpt lat="47.86789" lon="-3.53675">
        <ele>49</ele>
        <time>2019-07-15T10:51:46Z</time>
      </trkpt>
      <trkpt lat="47.86792" lon="-3.53686">
        <ele>49</ele>
        <time>2019-07-15T10:51:47Z</time>
      </trkpt>
      <trkpt lat="47.86795" lon="-3.53698">
        <ele>49</ele>
        <time>2019-07-15T10:51:48Z</time>
      </trkpt>
      <trkpt lat="47.86795" lon="-3.53698">
        <ele>49</ele>
        <time>2019-07-15T10:51:51Z</time>
      </trkpt>
      <trkpt lat="47.86795" lon="-3.53698">
        <ele>49</ele>
        <time>2019-07-15T10:51:52Z</time>
      </trkpt>
      <trkpt lat="47.86806" lon="-3.53748">
        <ele>49</ele>
        <time>2019-07-15T10:51:53Z</time>
      </trkpt>
      <trkpt lat="47.86806" lon="-3.53758">
        <ele>49</ele>
        <time>2019-07-15T10:51:54Z</time>
      </trkpt>
      <trkpt lat="47.86807" lon="-3.53767">
        <ele>49</ele>
        <time>2019-07-15T10:51:55Z</time>
      </trkpt>
      <trkpt lat="47.86808" lon="-3.53776">
        <ele>49</ele>
        <time>2019-07-15T10:51:56Z</time>
      </trkpt>
      <trkpt lat="47.86809" lon="-3.53787">
        <ele>48</ele>
        <time>2019-07-15T10:51:57Z</time>
      </trkpt>
      <trkpt lat="47.86809" lon="-3.53797">
        <ele>48</ele>
        <time>2019-07-15T10:51:58Z</time>
      </trkpt>
      <trkpt lat="47.86811" lon="-3.53807">
        <ele>48</ele>
        <time>2019-07-15T10:51:59Z</time>
      </trkpt>
      <trkpt lat="47.86813" lon="-3.53817">
        <ele>48</ele>
        <time>2019-07-15T10:52:00Z</time>
      </trkpt>
      <trkpt lat="47.86815" lon="-3.53827">
        <ele>48</ele>
        <time>2019-07-15T10:52:01Z</time>
      </trkpt>
      <trkpt lat="47.86816" lon="-3.53838">
        <ele>47</ele>
        <time>2019-07-15T10:52:02Z</time>
      </trkpt>
      <trkpt lat="47.86818" lon="-3.53848">
        <ele>47</ele>
        <time>2019-07-15T10:52:03Z</time>
      </trkpt>
      <trkpt lat="47.8682" lon="-3.53858">
        <ele>47</ele>
        <time>2019-07-15T10:52:04Z</time>
      </trkpt>
      <trkpt lat="47.86822" lon="-3.5387">
        <ele>47</ele>
        <time>2019-07-15T10:52:05Z</time>
      </trkpt>
      <trkpt lat="47.86823" lon="-3.53883">
        <ele>46</ele>
        <time>2019-07-15T10:52:06Z</time>
      </trkpt>
      <trkpt lat="47.86825" lon="-3.53896">
        <ele>46</ele>
        <time>2019-07-15T10:52:07Z</time>
      </trkpt>
      <trkpt lat="47.86827" lon="-3.53909">
        <ele>45</ele>
        <time>2019-07-15T10:52:08Z</time>
      </trkpt>
      <trkpt lat="47.86829" lon="-3.53922">
        <ele>45</ele>
        <time>2019-07-15T10:52:09Z</time>
      </trkpt>
      <trkpt lat="47.86831" lon="-3.53935">
        <ele>45</ele>
        <time>2019-07-15T10:52:10Z</time>
      </trkpt>
      <trkpt lat="47.86833" lon="-3.53949">
        <ele>45</ele>
        <time>2019-07-15T10:52:11Z</time>
      </trkpt>
      <trkpt lat="47.86835" lon="-3.53963">
        <ele>44</ele>
        <time>2019-07-15T10:52:12Z</time>
      </trkpt>
      <trkpt lat="47.86836" lon="-3.53977">
        <ele>44</ele>
        <time>2019-07-15T10:52:13Z</time>
      </trkpt>
      <trkpt lat="47.86838" lon="-3.53991">
        <ele>44</ele>
        <time>2019-07-15T10:52:14Z</time>
      </trkpt>
      <trkpt lat="47.8684" lon="-3.54005">
        <ele>44</ele>
        <time>2019-07-15T10:52:15Z</time>
      </trkpt>
      <trkpt lat="47.86842" lon="-3.54019">
        <ele>44</ele>
        <time>2019-07-15T10:52:16Z</time>
      </trkpt>
      <trkpt lat="47.86845" lon="-3.54033">
        <ele>44</ele>
        <time>2019-07-15T10:52:17Z</time>
      </trkpt>
      <trkpt lat="47.86848" lon="-3.54046">
        <ele>44</ele>
        <time>2019-07-15T10:52:18Z</time>
      </trkpt>
      <trkpt lat="47.8685" lon="-3.5406">
        <ele>44</ele>
        <time>2019-07-15T10:52:19Z</time>
      </trkpt>
      <trkpt lat="47.86854" lon="-3.54074">
        <ele>44</ele>
        <time>2019-07-15T10:52:20Z</time>
      </trkpt>
      <trkpt lat="47.86857" lon="-3.54088">
        <ele>44</ele>
        <time>2019-07-15T10:52:21Z</time>
      </trkpt>
      <trkpt lat="47.8686" lon="-3.54101">
        <ele>44</ele>
        <time>2019-07-15T10:52:22Z</time>
      </trkpt>
      <trkpt lat="47.86864" lon="-3.54114">
        <ele>44</ele>
        <time>2019-07-15T10:52:23Z</time>
      </trkpt>
      <trkpt lat="47.86868" lon="-3.54127">
        <ele>44</ele>
        <time>2019-07-15T10:52:24Z</time>
      </trkpt>
      <trkpt lat="47.86873" lon="-3.5414">
        <ele>44</ele>
        <time>2019-07-15T10:52:25Z</time>
      </trkpt>
      <trkpt lat="47.86878" lon="-3.54152">
        <ele>44</ele>
        <time>2019-07-15T10:52:26Z</time>
      </trkpt>
      <trkpt lat="47.86885" lon="-3.54162">
        <ele>44</ele>
        <time>2019-07-15T10:52:27Z</time>
      </trkpt>
      <trkpt lat="47.86892" lon="-3.54171">
        <ele>44</ele>
        <time>2019-07-15T10:52:28Z</time>
      </trkpt>
      <trkpt lat="47.86899" lon="-3.5418">
        <ele>44</ele>
        <time>2019-07-15T10:52:29Z</time>
      </trkpt>
      <trkpt lat="47.86906" lon="-3.54188">
        <ele>44</ele>
        <time>2019-07-15T10:52:30Z</time>
      </trkpt>
      <trkpt lat="47.86914" lon="-3.54196">
        <ele>44</ele>
        <time>2019-07-15T10:52:31Z</time>
      </trkpt>
      <trkpt lat="47.86921" lon="-3.54204">
        <ele>44</ele>
        <time>2019-07-15T10:52:32Z</time>
      </trkpt>
      <trkpt lat="47.86928" lon="-3.54212">
        <ele>43</ele>
        <time>2019-07-15T10:52:33Z</time>
      </trkpt>
      <trkpt lat="47.86935" lon="-3.54221">
        <ele>43</ele>
        <time>2019-07-15T10:52:34Z</time>
      </trkpt>
      <trkpt lat="47.86942" lon="-3.54228">
        <ele>43</ele>
        <time>2019-07-15T10:52:35Z</time>
      </trkpt>
      <trkpt lat="47.86949" lon="-3.54235">
        <ele>43</ele>
        <time>2019-07-15T10:52:36Z</time>
      </trkpt>
      <trkpt lat="47.86954" lon="-3.54244">
        <ele>43</ele>
        <time>2019-07-15T10:52:37Z</time>
      </trkpt>
      <trkpt lat="47.86959" lon="-3.54255">
        <ele>43</ele>
        <time>2019-07-15T10:52:38Z</time>
      </trkpt>
      <trkpt lat="47.86963" lon="-3.54267">
        <ele>43</ele>
        <time>2019-07-15T10:52:39Z</time>
      </trkpt>
      <trkpt lat="47.86966" lon="-3.54278">
        <ele>43</ele>
        <time>2019-07-15T10:52:40Z</time>
      </trkpt>
      <trkpt lat="47.86968" lon="-3.5429">
        <ele>43</ele>
        <time>2019-07-15T10:52:41Z</time>
      </trkpt>
      <trkpt lat="47.8697" lon="-3.54302">
        <ele>43</ele>
        <time>2019-07-15T10:52:42Z</time>
      </trkpt>
      <trkpt lat="47.86971" lon="-3.54314">
        <ele>43</ele>
        <time>2019-07-15T10:52:43Z</time>
      </trkpt>
      <trkpt lat="47.86973" lon="-3.54326">
        <ele>43</ele>
        <time>2019-07-15T10:52:44Z</time>
      </trkpt>
      <trkpt lat="47.86975" lon="-3.54338">
        <ele>43</ele>
        <time>2019-07-15T10:52:45Z</time>
      </trkpt>
      <trkpt lat="47.86978" lon="-3.54349">
        <ele>43</ele>
        <time>2019-07-15T10:52:46Z</time>
      </trkpt>
      <trkpt lat="47.86983" lon="-3.54359">
        <ele>43</ele>
        <time>2019-07-15T10:52:47Z</time>
      </trkpt>
      <trkpt lat="47.86989" lon="-3.54368">
        <ele>43</ele>
        <time>2019-07-15T10:52:48Z</time>
      </trkpt>
      <trkpt lat="47.86996" lon="-3.54374">
        <ele>43</ele>
        <time>2019-07-15T10:52:49Z</time>
      </trkpt>
      <trkpt lat="47.87003" lon="-3.54379">
        <ele>43</ele>
        <time>2019-07-15T10:52:50Z</time>
      </trkpt>
      <trkpt lat="47.8701" lon="-3.54385">
        <ele>43</ele>
        <time>2019-07-15T10:52:51Z</time>
      </trkpt>
      <trkpt lat="47.87017" lon="-3.54389">
        <ele>43</ele>
        <time>2019-07-15T10:52:52Z</time>
      </trkpt>
      <trkpt lat="47.87024" lon="-3.54394">
        <ele>43</ele>
        <time>2019-07-15T10:52:53Z</time>
      </trkpt>
      <trkpt lat="47.87031" lon="-3.54398">
        <ele>43</ele>
        <time>2019-07-15T10:52:54Z</time>
      </trkpt>
      <trkpt lat="47.87037" lon="-3.54402">
        <ele>43</ele>
        <time>2019-07-15T10:52:55Z</time>
      </trkpt>
      <trkpt lat="47.87044" lon="-3.54406">
        <ele>43</ele>
        <time>2019-07-15T10:52:56Z</time>
      </trkpt>
      <trkpt lat="47.8705" lon="-3.5441">
        <ele>43</ele>
        <time>2019-07-15T10:52:57Z</time>
      </trkpt>
      <trkpt lat="47.87057" lon="-3.54413">
        <ele>43</ele>
        <time>2019-07-15T10:52:58Z</time>
      </trkpt>
      <trkpt lat="47.87063" lon="-3.54416">
        <ele>43</ele>
        <time>2019-07-15T10:52:59Z</time>
      </trkpt>
      <trkpt lat="47.87069" lon="-3.5442">
        <ele>43</ele>
        <time>2019-07-15T10:53:00Z</time>
      </trkpt>
      <trkpt lat="47.87075" lon="-3.54422">
        <ele>44</ele>
        <time>2019-07-15T10:53:01Z</time>
      </trkpt>
      <trkpt lat="47.87081" lon="-3.54425">
        <ele>44</ele>
        <time>2019-07-15T10:53:02Z</time>
      </trkpt>
      <trkpt lat="47.87087" lon="-3.54427">
        <ele>44</ele>
        <time>2019-07-15T10:53:03Z</time>
      </trkpt>
      <trkpt lat="47.87087" lon="-3.54427">
        <ele>44</ele>
        <time>2019-07-15T10:53:05Z</time>
      </trkpt>
      <trkpt lat="47.87087" lon="-3.54427">
        <ele>44</ele>
        <time>2019-07-15T10:53:06Z</time>
      </trkpt>
      <trkpt lat="47.87108" lon="-3.54439">
        <ele>44</ele>
        <time>2019-07-15T10:53:07Z</time>
      </trkpt>
      <trkpt lat="47.87114" lon="-3.54441">
        <ele>44</ele>
        <time>2019-07-15T10:53:08Z</time>
      </trkpt>
      <trkpt lat="47.87119" lon="-3.54444">
        <ele>44</ele>
        <time>2019-07-15T10:53:09Z</time>
      </trkpt>
      <trkpt lat="47.87124" lon="-3.54447">
        <ele>44</ele>
        <time>2019-07-15T10:53:10Z</time>
      </trkpt>
      <trkpt lat="47.8713" lon="-3.54449">
        <ele>44</ele>
        <time>2019-07-15T10:53:11Z</time>
      </trkpt>
      <trkpt lat="47.87135" lon="-3.54452">
        <ele>44</ele>
        <time>2019-07-15T10:53:12Z</time>
      </trkpt>
      <trkpt lat="47.8714" lon="-3.54455">
        <ele>44</ele>
        <time>2019-07-15T10:53:13Z</time>
      </trkpt>
      <trkpt lat="47.87145" lon="-3.54457">
        <ele>44</ele>
        <time>2019-07-15T10:53:14Z</time>
      </trkpt>
      <trkpt lat="47.8715" lon="-3.54459">
        <ele>44</ele>
        <time>2019-07-15T10:53:15Z</time>
      </trkpt>
      <trkpt lat="47.87154" lon="-3.54461">
        <ele>44</ele>
        <time>2019-07-15T10:53:16Z</time>
      </trkpt>
      <trkpt lat="47.87157" lon="-3.54463">
        <ele>44</ele>
        <time>2019-07-15T10:53:17Z</time>
      </trkpt>
      <trkpt lat="47.8716" lon="-3.54467">
        <ele>44</ele>
        <time>2019-07-15T10:53:18Z</time>
      </trkpt>
      <trkpt lat="47.8716" lon="-3.54471">
        <ele>44</ele>
        <time>2019-07-15T10:53:19Z</time>
      </trkpt>
      <trkpt lat="47.87159" lon="-3.54475">
        <ele>44</ele>
        <time>2019-07-15T10:53:20Z</time>
      </trkpt>
      <trkpt lat="47.87157" lon="-3.5448">
        <ele>44</ele>
        <time>2019-07-15T10:53:21Z</time>
      </trkpt>
      <trkpt lat="47.87155" lon="-3.54486">
        <ele>44</ele>
        <time>2019-07-15T10:53:22Z</time>
      </trkpt>
      <trkpt lat="47.87154" lon="-3.54491">
        <ele>44</ele>
        <time>2019-07-15T10:53:23Z</time>
      </trkpt>
      <trkpt lat="47.87152" lon="-3.54497">
        <ele>44</ele>
        <time>2019-07-15T10:53:24Z</time>
      </trkpt>
      <trkpt lat="47.8715" lon="-3.54503">
        <ele>43</ele>
        <time>2019-07-15T10:53:25Z</time>
      </trkpt>
      <trkpt lat="47.87148" lon="-3.5451">
        <ele>43</ele>
        <time>2019-07-15T10:53:26Z</time>
      </trkpt>
      <trkpt lat="47.87147" lon="-3.54516">
        <ele>43</ele>
        <time>2019-07-15T10:53:27Z</time>
      </trkpt>
      <trkpt lat="47.87146" lon="-3.54521">
        <ele>43</ele>
        <time>2019-07-15T10:53:28Z</time>
      </trkpt>
      <trkpt lat="47.87144" lon="-3.54527">
        <ele>43</ele>
        <time>2019-07-15T10:53:29Z</time>
      </trkpt>
      <trkpt lat="47.87142" lon="-3.54533">
        <ele>42</ele>
        <time>2019-07-15T10:53:30Z</time>
      </trkpt>
      <trkpt lat="47.8714" lon="-3.54537">
        <ele>42</ele>
        <time>2019-07-15T10:53:31Z</time>
      </trkpt>
      <trkpt lat="47.87136" lon="-3.54538">
        <ele>42</ele>
        <time>2019-07-15T10:53:32Z</time>
      </trkpt>
      <trkpt lat="47.87131" lon="-3.54538">
        <ele>41</ele>
        <time>2019-07-15T10:53:33Z</time>
      </trkpt>
      <trkpt lat="47.87126" lon="-3.54537">
        <ele>40</ele>
        <time>2019-07-15T10:53:34Z</time>
      </trkpt>
      <trkpt lat="47.87121" lon="-3.54536">
        <ele>39</ele>
        <time>2019-07-15T10:53:35Z</time>
      </trkpt>
      <trkpt lat="47.87116" lon="-3.54535">
        <ele>39</ele>
        <time>2019-07-15T10:53:36Z</time>
      </trkpt>
      <trkpt lat="47.87111" lon="-3.54535">
        <ele>38</ele>
        <time>2019-07-15T10:53:37Z</time>
      </trkpt>
      <trkpt lat="47.87105" lon="-3.54534">
        <ele>38</ele>
        <time>2019-07-15T10:53:38Z</time>
      </trkpt>
      <trkpt lat="47.87099" lon="-3.54534">
        <ele>37</ele>
        <time>2019-07-15T10:53:39Z</time>
      </trkpt>
      <trkpt lat="47.87094" lon="-3.54535">
        <ele>37</ele>
        <time>2019-07-15T10:53:40Z</time>
      </trkpt>
      <trkpt lat="47.87088" lon="-3.54536">
        <ele>36</ele>
        <time>2019-07-15T10:53:41Z</time>
      </trkpt>
      <trkpt lat="47.87082" lon="-3.54537">
        <ele>36</ele>
        <time>2019-07-15T10:53:42Z</time>
      </trkpt>
      <trkpt lat="47.87077" lon="-3.54538">
        <ele>36</ele>
        <time>2019-07-15T10:53:43Z</time>
      </trkpt>
      <trkpt lat="47.87071" lon="-3.54539">
        <ele>35</ele>
        <time>2019-07-15T10:53:44Z</time>
      </trkpt>
      <trkpt lat="47.87065" lon="-3.5454">
        <ele>35</ele>
        <time>2019-07-15T10:53:45Z</time>
      </trkpt>
      <trkpt lat="47.8706" lon="-3.5454">
        <ele>35</ele>
        <time>2019-07-15T10:53:46Z</time>
      </trkpt>
      <trkpt lat="47.87055" lon="-3.54541">
        <ele>34</ele>
        <time>2019-07-15T10:53:47Z</time>
      </trkpt>
      <trkpt lat="47.87049" lon="-3.54542">
        <ele>34</ele>
        <time>2019-07-15T10:53:48Z</time>
      </trkpt>
      <trkpt lat="47.87044" lon="-3.54543">
        <ele>34</ele>
        <time>2019-07-15T10:53:49Z</time>
      </trkpt>
      <trkpt lat="47.87039" lon="-3.54543">
        <ele>33</ele>
        <time>2019-07-15T10:53:50Z</time>
      </trkpt>
      <trkpt lat="47.87033" lon="-3.54543">
        <ele>33</ele>
        <time>2019-07-15T10:53:51Z</time>
      </trkpt>
      <trkpt lat="47.87027" lon="-3.54542">
        <ele>33</ele>
        <time>2019-07-15T10:53:52Z</time>
      </trkpt>
      <trkpt lat="47.87022" lon="-3.54542">
        <ele>33</ele>
        <time>2019-07-15T10:53:53Z</time>
      </trkpt>
      <trkpt lat="47.87016" lon="-3.54541">
        <ele>32</ele>
        <time>2019-07-15T10:53:54Z</time>
      </trkpt>
      <trkpt lat="47.8701" lon="-3.5454">
        <ele>32</ele>
        <time>2019-07-15T10:53:55Z</time>
      </trkpt>
      <trkpt lat="47.87005" lon="-3.54539">
        <ele>32</ele>
        <time>2019-07-15T10:53:56Z</time>
      </trkpt>
      <trkpt lat="47.86999" lon="-3.54537">
        <ele>32</ele>
        <time>2019-07-15T10:53:57Z</time>
      </trkpt>
      <trkpt lat="47.86994" lon="-3.54535">
        <ele>31</ele>
        <time>2019-07-15T10:53:58Z</time>
      </trkpt>
      <trkpt lat="47.86988" lon="-3.54532">
        <ele>31</ele>
        <time>2019-07-15T10:53:59Z</time>
      </trkpt>
      <trkpt lat="47.86983" lon="-3.54529">
        <ele>31</ele>
        <time>2019-07-15T10:54:00Z</time>
      </trkpt>
      <trkpt lat="47.86978" lon="-3.54526">
        <ele>31</ele>
        <time>2019-07-15T10:54:01Z</time>
      </trkpt>
      <trkpt lat="47.86973" lon="-3.54523">
        <ele>31</ele>
        <time>2019-07-15T10:54:02Z</time>
      </trkpt>
      <trkpt lat="47.86967" lon="-3.5452">
        <ele>31</ele>
        <time>2019-07-15T10:54:03Z</time>
      </trkpt>
      <trkpt lat="47.86962" lon="-3.54517">
        <ele>30</ele>
        <time>2019-07-15T10:54:04Z</time>
      </trkpt>
      <trkpt lat="47.86956" lon="-3.54514">
        <ele>30</ele>
        <time>2019-07-15T10:54:05Z</time>
      </trkpt>
      <trkpt lat="47.86951" lon="-3.54511">
        <ele>30</ele>
        <time>2019-07-15T10:54:06Z</time>
      </trkpt>
      <trkpt lat="47.86946" lon="-3.54507">
        <ele>30</ele>
        <time>2019-07-15T10:54:07Z</time>
      </trkpt>
      <trkpt lat="47.8694" lon="-3.54504">
        <ele>30</ele>
        <time>2019-07-15T10:54:08Z</time>
      </trkpt>
      <trkpt lat="47.86935" lon="-3.54501">
        <ele>30</ele>
        <time>2019-07-15T10:54:09Z</time>
      </trkpt>
      <trkpt lat="47.8693" lon="-3.54498">
        <ele>30</ele>
        <time>2019-07-15T10:54:10Z</time>
      </trkpt>
      <trkpt lat="47.86924" lon="-3.54496">
        <ele>29</ele>
        <time>2019-07-15T10:54:11Z</time>
      </trkpt>
      <trkpt lat="47.86919" lon="-3.54492">
        <ele>29</ele>
        <time>2019-07-15T10:54:12Z</time>
      </trkpt>
      <trkpt lat="47.86914" lon="-3.54489">
        <ele>29</ele>
        <time>2019-07-15T10:54:13Z</time>
      </trkpt>
      <trkpt lat="47.86908" lon="-3.54486">
        <ele>29</ele>
        <time>2019-07-15T10:54:14Z</time>
      </trkpt>
      <trkpt lat="47.86903" lon="-3.54483">
        <ele>29</ele>
        <time>2019-07-15T10:54:15Z</time>
      </trkpt>
      <trkpt lat="47.86897" lon="-3.5448">
        <ele>29</ele>
        <time>2019-07-15T10:54:16Z</time>
      </trkpt>
      <trkpt lat="47.86892" lon="-3.54477">
        <ele>29</ele>
        <time>2019-07-15T10:54:17Z</time>
      </trkpt>
      <trkpt lat="47.86887" lon="-3.54473">
        <ele>29</ele>
        <time>2019-07-15T10:54:18Z</time>
      </trkpt>
      <trkpt lat="47.86882" lon="-3.5447">
        <ele>28</ele>
        <time>2019-07-15T10:54:19Z</time>
      </trkpt>
      <trkpt lat="47.86877" lon="-3.54466">
        <ele>28</ele>
        <time>2019-07-15T10:54:20Z</time>
      </trkpt>
      <trkpt lat="47.86871" lon="-3.54462">
        <ele>28</ele>
        <time>2019-07-15T10:54:21Z</time>
      </trkpt>
      <trkpt lat="47.86867" lon="-3.54458">
        <ele>28</ele>
        <time>2019-07-15T10:54:22Z</time>
      </trkpt>
      <trkpt lat="47.86862" lon="-3.54453">
        <ele>28</ele>
        <time>2019-07-15T10:54:23Z</time>
      </trkpt>
      <trkpt lat="47.86857" lon="-3.54449">
        <ele>28</ele>
        <time>2019-07-15T10:54:24Z</time>
      </trkpt>
      <trkpt lat="47.86852" lon="-3.54444">
        <ele>28</ele>
        <time>2019-07-15T10:54:25Z</time>
      </trkpt>
      <trkpt lat="47.86848" lon="-3.54439">
        <ele>28</ele>
        <time>2019-07-15T10:54:26Z</time>
      </trkpt>
      <trkpt lat="47.86843" lon="-3.54434">
        <ele>28</ele>
        <time>2019-07-15T10:54:27Z</time>
      </trkpt>
      <trkpt lat="47.86839" lon="-3.5443">
        <ele>28</ele>
        <time>2019-07-15T10:54:28Z</time>
      </trkpt>
      <trkpt lat="47.86835" lon="-3.54425">
        <ele>28</ele>
        <time>2019-07-15T10:54:29Z</time>
      </trkpt>
      <trkpt lat="47.86831" lon="-3.54421">
        <ele>28</ele>
        <time>2019-07-15T10:54:30Z</time>
      </trkpt>
      <trkpt lat="47.86828" lon="-3.54417">
        <ele>28</ele>
        <time>2019-07-15T10:54:31Z</time>
      </trkpt>
      <trkpt lat="47.86825" lon="-3.54415">
        <ele>28</ele>
        <time>2019-07-15T10:54:32Z</time>
      </trkpt>
      <trkpt lat="47.86823" lon="-3.54412">
        <ele>27</ele>
        <time>2019-07-15T10:54:33Z</time>
      </trkpt>
      <trkpt lat="47.86821" lon="-3.54409">
        <ele>27</ele>
        <time>2019-07-15T10:54:34Z</time>
      </trkpt>
      <trkpt lat="47.86821" lon="-3.54404">
        <ele>27</ele>
        <time>2019-07-15T10:54:35Z</time>
      </trkpt>
      <trkpt lat="47.86821" lon="-3.54399">
        <ele>27</ele>
        <time>2019-07-15T10:54:36Z</time>
      </trkpt>
      <trkpt lat="47.86819" lon="-3.54394">
        <ele>27</ele>
        <time>2019-07-15T10:54:37Z</time>
      </trkpt>
      <trkpt lat="47.86817" lon="-3.5439">
        <ele>27</ele>
        <time>2019-07-15T10:54:38Z</time>
      </trkpt>
      <trkpt lat="47.86814" lon="-3.54387">
        <ele>27</ele>
        <time>2019-07-15T10:54:39Z</time>
      </trkpt>
      <trkpt lat="47.86811" lon="-3.54383">
        <ele>27</ele>
        <time>2019-07-15T10:54:40Z</time>
      </trkpt>
      <trkpt lat="47.86808" lon="-3.54379">
        <ele>27</ele>
        <time>2019-07-15T10:54:41Z</time>
      </trkpt>
      <trkpt lat="47.86805" lon="-3.54375">
        <ele>27</ele>
        <time>2019-07-15T10:54:42Z</time>
      </trkpt>
      <trkpt lat="47.86801" lon="-3.54371">
        <ele>27</ele>
        <time>2019-07-15T10:54:43Z</time>
      </trkpt>
      <trkpt lat="47.86797" lon="-3.54366">
        <ele>27</ele>
        <time>2019-07-15T10:54:44Z</time>
      </trkpt>
      <trkpt lat="47.86792" lon="-3.54362">
        <ele>27</ele>
        <time>2019-07-15T10:54:45Z</time>
      </trkpt>
      <trkpt lat="47.86788" lon="-3.54358">
        <ele>27</ele>
        <time>2019-07-15T10:54:46Z</time>
      </trkpt>
      <trkpt lat="47.86783" lon="-3.54354">
        <ele>27</ele>
        <time>2019-07-15T10:54:47Z</time>
      </trkpt>
      <trkpt lat="47.86778" lon="-3.54351">
        <ele>27</ele>
        <time>2019-07-15T10:54:48Z</time>
      </trkpt>
      <trkpt lat="47.86773" lon="-3.54348">
        <ele>27</ele>
        <time>2019-07-15T10:54:49Z</time>
      </trkpt>
      <trkpt lat="47.86767" lon="-3.54345">
        <ele>27</ele>
        <time>2019-07-15T10:54:50Z</time>
      </trkpt>
      <trkpt lat="47.86762" lon="-3.54343">
        <ele>27</ele>
        <time>2019-07-15T10:54:51Z</time>
      </trkpt>
      <trkpt lat="47.86757" lon="-3.5434">
        <ele>27</ele>
        <time>2019-07-15T10:54:52Z</time>
      </trkpt>
      <trkpt lat="47.86752" lon="-3.54339">
        <ele>27</ele>
        <time>2019-07-15T10:54:53Z</time>
      </trkpt>
      <trkpt lat="47.86747" lon="-3.54337">
        <ele>27</ele>
        <time>2019-07-15T10:54:54Z</time>
      </trkpt>
      <trkpt lat="47.86742" lon="-3.54335">
        <ele>27</ele>
        <time>2019-07-15T10:54:55Z</time>
      </trkpt>
      <trkpt lat="47.86737" lon="-3.54333">
        <ele>27</ele>
        <time>2019-07-15T10:54:56Z</time>
      </trkpt>
      <trkpt lat="47.86733" lon="-3.54332">
        <ele>27</ele>
        <time>2019-07-15T10:54:57Z</time>
      </trkpt>
      <trkpt lat="47.86727" lon="-3.5433">
        <ele>27</ele>
        <time>2019-07-15T10:54:58Z</time>
      </trkpt>
      <trkpt lat="47.86723" lon="-3.54328">
        <ele>27</ele>
        <time>2019-07-15T10:54:59Z</time>
      </trkpt>
      <trkpt lat="47.86717" lon="-3.54326">
        <ele>27</ele>
        <time>2019-07-15T10:55:00Z</time>
      </trkpt>
      <trkpt lat="47.86712" lon="-3.54324">
        <ele>26</ele>
        <time>2019-07-15T10:55:01Z</time>
      </trkpt>
      <trkpt lat="47.86707" lon="-3.54323">
        <ele>26</ele>
        <time>2019-07-15T10:55:02Z</time>
      </trkpt>
      <trkpt lat="47.86701" lon="-3.54321">
        <ele>26</ele>
        <time>2019-07-15T10:55:03Z</time>
      </trkpt>
      <trkpt lat="47.86696" lon="-3.54319">
        <ele>26</ele>
        <time>2019-07-15T10:55:04Z</time>
      </trkpt>
      <trkpt lat="47.86691" lon="-3.54317">
        <ele>26</ele>
        <time>2019-07-15T10:55:05Z</time>
      </trkpt>
      <trkpt lat="47.86686" lon="-3.54316">
        <ele>26</ele>
        <time>2019-07-15T10:55:06Z</time>
      </trkpt>
      <trkpt lat="47.86681" lon="-3.54314">
        <ele>26</ele>
        <time>2019-07-15T10:55:07Z</time>
      </trkpt>
      <trkpt lat="47.86676" lon="-3.54313">
        <ele>26</ele>
        <time>2019-07-15T10:55:08Z</time>
      </trkpt>
      <trkpt lat="47.86672" lon="-3.54312">
        <ele>26</ele>
        <time>2019-07-15T10:55:09Z</time>
      </trkpt>
      <trkpt lat="47.86667" lon="-3.54311">
        <ele>26</ele>
        <time>2019-07-15T10:55:10Z</time>
      </trkpt>
      <trkpt lat="47.86662" lon="-3.54309">
        <ele>25</ele>
        <time>2019-07-15T10:55:11Z</time>
      </trkpt>
      <trkpt lat="47.86658" lon="-3.54308">
        <ele>25</ele>
        <time>2019-07-15T10:55:12Z</time>
      </trkpt>
      <trkpt lat="47.86654" lon="-3.54307">
        <ele>25</ele>
        <time>2019-07-15T10:55:13Z</time>
      </trkpt>
      <trkpt lat="47.86649" lon="-3.54306">
        <ele>25</ele>
        <time>2019-07-15T10:55:14Z</time>
      </trkpt>
      <trkpt lat="47.86645" lon="-3.54305">
        <ele>25</ele>
        <time>2019-07-15T10:55:15Z</time>
      </trkpt>
      <trkpt lat="47.86641" lon="-3.54304">
        <ele>25</ele>
        <time>2019-07-15T10:55:16Z</time>
      </trkpt>
      <trkpt lat="47.86638" lon="-3.54303">
        <ele>25</ele>
        <time>2019-07-15T10:55:17Z</time>
      </trkpt>
      <trkpt lat="47.86635" lon="-3.54303">
        <ele>25</ele>
        <time>2019-07-15T10:55:18Z</time>
      </trkpt>
      <trkpt lat="47.86632" lon="-3.54302">
        <ele>26</ele>
        <time>2019-07-15T10:55:19Z</time>
      </trkpt>
      <trkpt lat="47.86629" lon="-3.54302">
        <ele>26</ele>
        <time>2019-07-15T10:55:20Z</time>
      </trkpt>
      <trkpt lat="47.86626" lon="-3.54301">
        <ele>26</ele>
        <time>2019-07-15T10:55:21Z</time>
      </trkpt>
      <trkpt lat="47.86623" lon="-3.543">
        <ele>26</ele>
        <time>2019-07-15T10:55:22Z</time>
      </trkpt>
      <trkpt lat="47.86619" lon="-3.54299">
        <ele>26</ele>
        <time>2019-07-15T10:55:23Z</time>
      </trkpt>
      <trkpt lat="47.86616" lon="-3.54298">
        <ele>26</ele>
        <time>2019-07-15T10:55:24Z</time>
      </trkpt>
      <trkpt lat="47.86612" lon="-3.54297">
        <ele>26</ele>
        <time>2019-07-15T10:55:25Z</time>
      </trkpt>
      <trkpt lat="47.86609" lon="-3.54296">
        <ele>26</ele>
        <time>2019-07-15T10:55:26Z</time>
      </trkpt>
      <trkpt lat="47.86605" lon="-3.54294">
        <ele>26</ele>
        <time>2019-07-15T10:55:27Z</time>
      </trkpt>
      <trkpt lat="47.86601" lon="-3.54293">
        <ele>26</ele>
        <time>2019-07-15T10:55:28Z</time>
      </trkpt>
      <trkpt lat="47.86598" lon="-3.54291">
        <ele>26</ele>
        <time>2019-07-15T10:55:29Z</time>
      </trkpt>
      <trkpt lat="47.86594" lon="-3.54289">
        <ele>26</ele>
        <time>2019-07-15T10:55:30Z</time>
      </trkpt>
      <trkpt lat="47.86591" lon="-3.54287">
        <ele>26</ele>
        <time>2019-07-15T10:55:31Z</time>
      </trkpt>
      <trkpt lat="47.86587" lon="-3.54284">
        <ele>26</ele>
        <time>2019-07-15T10:55:32Z</time>
      </trkpt>
      <trkpt lat="47.86583" lon="-3.54282">
        <ele>26</ele>
        <time>2019-07-15T10:55:33Z</time>
      </trkpt>
      <trkpt lat="47.86579" lon="-3.54279">
        <ele>26</ele>
        <time>2019-07-15T10:55:34Z</time>
      </trkpt>
      <trkpt lat="47.86576" lon="-3.54277">
        <ele>26</ele>
        <time>2019-07-15T10:55:35Z</time>
      </trkpt>
      <trkpt lat="47.86572" lon="-3.54274">
        <ele>26</ele>
        <time>2019-07-15T10:55:36Z</time>
      </trkpt>
      <trkpt lat="47.86568" lon="-3.54271">
        <ele>26</ele>
        <time>2019-07-15T10:55:37Z</time>
      </trkpt>
      <trkpt lat="47.86564" lon="-3.54268">
        <ele>26</ele>
        <time>2019-07-15T10:55:38Z</time>
      </trkpt>
      <trkpt lat="47.8656" lon="-3.54265">
        <ele>26</ele>
        <time>2019-07-15T10:55:39Z</time>
      </trkpt>
      <trkpt lat="47.86556" lon="-3.54262">
        <ele>26</ele>
        <time>2019-07-15T10:55:40Z</time>
      </trkpt>
      <trkpt lat="47.86552" lon="-3.54259">
        <ele>26</ele>
        <time>2019-07-15T10:55:41Z</time>
      </trkpt>
      <trkpt lat="47.86547" lon="-3.54256">
        <ele>26</ele>
        <time>2019-07-15T10:55:42Z</time>
      </trkpt>
      <trkpt lat="47.86543" lon="-3.54252">
        <ele>26</ele>
        <time>2019-07-15T10:55:43Z</time>
      </trkpt>
      <trkpt lat="47.86539" lon="-3.54249">
        <ele>26</ele>
        <time>2019-07-15T10:55:44Z</time>
      </trkpt>
      <trkpt lat="47.86534" lon="-3.54246">
        <ele>26</ele>
        <time>2019-07-15T10:55:45Z</time>
      </trkpt>
      <trkpt lat="47.8653" lon="-3.54243">
        <ele>26</ele>
        <time>2019-07-15T10:55:46Z</time>
      </trkpt>
      <trkpt lat="47.86526" lon="-3.5424">
        <ele>26</ele>
        <time>2019-07-15T10:55:47Z</time>
      </trkpt>
      <trkpt lat="47.86522" lon="-3.54237">
        <ele>26</ele>
        <time>2019-07-15T10:55:48Z</time>
      </trkpt>
      <trkpt lat="47.86518" lon="-3.54234">
        <ele>26</ele>
        <time>2019-07-15T10:55:49Z</time>
      </trkpt>
      <trkpt lat="47.86514" lon="-3.54231">
        <ele>26</ele>
        <time>2019-07-15T10:55:50Z</time>
      </trkpt>
      <trkpt lat="47.8651" lon="-3.54228">
        <ele>26</ele>
        <time>2019-07-15T10:55:51Z</time>
      </trkpt>
      <trkpt lat="47.86506" lon="-3.54225">
        <ele>26</ele>
        <time>2019-07-15T10:55:52Z</time>
      </trkpt>
      <trkpt lat="47.86502" lon="-3.54222">
        <ele>26</ele>
        <time>2019-07-15T10:55:53Z</time>
      </trkpt>
      <trkpt lat="47.86497" lon="-3.54218">
        <ele>26</ele>
        <time>2019-07-15T10:55:54Z</time>
      </trkpt>
      <trkpt lat="47.86493" lon="-3.54215">
        <ele>26</ele>
        <time>2019-07-15T10:55:55Z</time>
      </trkpt>
      <trkpt lat="47.86489" lon="-3.54212">
        <ele>26</ele>
        <time>2019-07-15T10:55:56Z</time>
      </trkpt>
      <trkpt lat="47.86485" lon="-3.54209">
        <ele>26</ele>
        <time>2019-07-15T10:55:57Z</time>
      </trkpt>
      <trkpt lat="47.86481" lon="-3.54206">
        <ele>26</ele>
        <time>2019-07-15T10:55:58Z</time>
      </trkpt>
      <trkpt lat="47.86477" lon="-3.54204">
        <ele>26</ele>
        <time>2019-07-15T10:55:59Z</time>
      </trkpt>
      <trkpt lat="47.86473" lon="-3.542">
        <ele>26</ele>
        <time>2019-07-15T10:56:00Z</time>
      </trkpt>
      <trkpt lat="47.86469" lon="-3.54198">
        <ele>26</ele>
        <time>2019-07-15T10:56:01Z</time>
      </trkpt>
      <trkpt lat="47.86467" lon="-3.54197">
        <ele>26</ele>
        <time>2019-07-15T10:56:02Z</time>
      </trkpt>
      <trkpt lat="47.86466" lon="-3.54196">
        <ele>26</ele>
        <time>2019-07-15T10:56:03Z</time>
      </trkpt>
      <trkpt lat="47.86465" lon="-3.54196">
        <ele>26</ele>
        <time>2019-07-15T10:56:04Z</time>
      </trkpt>
      <trkpt lat="47.86465" lon="-3.54196">
        <ele>26</ele>
        <time>2019-07-15T10:56:05Z</time>
      </trkpt>
      <trkpt lat="47.86465" lon="-3.54196">
        <ele>26</ele>
        <time>2019-07-15T10:56:06Z</time>
      </trkpt>
      <trkpt lat="47.8646" lon="-3.5419">
        <ele>27</ele>
        <time>2019-07-15T10:56:07Z</time>
      </trkpt>
      <trkpt lat="47.86458" lon="-3.54188">
        <ele>27</ele>
        <time>2019-07-15T10:56:08Z</time>
      </trkpt>
      <trkpt lat="47.86454" lon="-3.54186">
        <ele>27</ele>
        <time>2019-07-15T10:56:09Z</time>
      </trkpt>
      <trkpt lat="47.86451" lon="-3.54185">
        <ele>28</ele>
        <time>2019-07-15T10:56:10Z</time>
      </trkpt>
      <trkpt lat="47.86447" lon="-3.54182">
        <ele>28</ele>
        <time>2019-07-15T10:56:11Z</time>
      </trkpt>
      <trkpt lat="47.86443" lon="-3.54181">
        <ele>28</ele>
        <time>2019-07-15T10:56:12Z</time>
      </trkpt>
      <trkpt lat="47.86438" lon="-3.5418">
        <ele>28</ele>
        <time>2019-07-15T10:56:13Z</time>
      </trkpt>
      <trkpt lat="47.86434" lon="-3.54179">
        <ele>28</ele>
        <time>2019-07-15T10:56:14Z</time>
      </trkpt>
      <trkpt lat="47.86429" lon="-3.54179">
        <ele>28</ele>
        <time>2019-07-15T10:56:15Z</time>
      </trkpt>
      <trkpt lat="47.86425" lon="-3.54179">
        <ele>28</ele>
        <time>2019-07-15T10:56:16Z</time>
      </trkpt>
      <trkpt lat="47.86421" lon="-3.54179">
        <ele>28</ele>
        <time>2019-07-15T10:56:17Z</time>
      </trkpt>
      <trkpt lat="47.86416" lon="-3.5418">
        <ele>28</ele>
        <time>2019-07-15T10:56:18Z</time>
      </trkpt>
      <trkpt lat="47.86412" lon="-3.54181">
        <ele>28</ele>
        <time>2019-07-15T10:56:19Z</time>
      </trkpt>
      <trkpt lat="47.86408" lon="-3.54182">
        <ele>28</ele>
        <time>2019-07-15T10:56:20Z</time>
      </trkpt>
      <trkpt lat="47.86403" lon="-3.54183">
        <ele>28</ele>
        <time>2019-07-15T10:56:21Z</time>
      </trkpt>
      <trkpt lat="47.86399" lon="-3.54185">
        <ele>28</ele>
        <time>2019-07-15T10:56:22Z</time>
      </trkpt>
      <trkpt lat="47.86395" lon="-3.54186">
        <ele>28</ele>
        <time>2019-07-15T10:56:23Z</time>
      </trkpt>
      <trkpt lat="47.86391" lon="-3.54188">
        <ele>28</ele>
        <time>2019-07-15T10:56:24Z</time>
      </trkpt>
      <trkpt lat="47.86386" lon="-3.54189">
        <ele>28</ele>
        <time>2019-07-15T10:56:25Z</time>
      </trkpt>
      <trkpt lat="47.86382" lon="-3.54191">
        <ele>28</ele>
        <time>2019-07-15T10:56:26Z</time>
      </trkpt>
      <trkpt lat="47.86378" lon="-3.54193">
        <ele>28</ele>
        <time>2019-07-15T10:56:27Z</time>
      </trkpt>
      <trkpt lat="47.86374" lon="-3.54195">
        <ele>28</ele>
        <time>2019-07-15T10:56:28Z</time>
      </trkpt>
      <trkpt lat="47.8637" lon="-3.54198">
        <ele>28</ele>
        <time>2019-07-15T10:56:29Z</time>
      </trkpt>
      <trkpt lat="47.86366" lon="-3.542">
        <ele>28</ele>
        <time>2019-07-15T10:56:30Z</time>
      </trkpt>
      <trkpt lat="47.86361" lon="-3.54202">
        <ele>28</ele>
        <time>2019-07-15T10:56:31Z</time>
      </trkpt>
      <trkpt lat="47.86357" lon="-3.54204">
        <ele>28</ele>
        <time>2019-07-15T10:56:32Z</time>
      </trkpt>
      <trkpt lat="47.86353" lon="-3.54206">
        <ele>28</ele>
        <time>2019-07-15T10:56:33Z</time>
      </trkpt>
      <trkpt lat="47.8635" lon="-3.54208">
        <ele>28</ele>
        <time>2019-07-15T10:56:34Z</time>
      </trkpt>
      <trkpt lat="47.86346" lon="-3.54209">
        <ele>28</ele>
        <time>2019-07-15T10:56:35Z</time>
      </trkpt>
      <trkpt lat="47.86342" lon="-3.54211">
        <ele>28</ele>
        <time>2019-07-15T10:56:36Z</time>
      </trkpt>
      <trkpt lat="47.86339" lon="-3.54213">
        <ele>29</ele>
        <time>2019-07-15T10:56:37Z</time>
      </trkpt>
      <trkpt lat="47.86335" lon="-3.54215">
        <ele>29</ele>
        <time>2019-07-15T10:56:38Z</time>
      </trkpt>
      <trkpt lat="47.86331" lon="-3.54217">
        <ele>29</ele>
        <time>2019-07-15T10:56:39Z</time>
      </trkpt>
      <trkpt lat="47.86326" lon="-3.54219">
        <ele>29</ele>
        <time>2019-07-15T10:56:40Z</time>
      </trkpt>
      <trkpt lat="47.86323" lon="-3.54221">
        <ele>29</ele>
        <time>2019-07-15T10:56:41Z</time>
      </trkpt>
      <trkpt lat="47.8632" lon="-3.54223">
        <ele>29</ele>
        <time>2019-07-15T10:56:42Z</time>
      </trkpt>
      <trkpt lat="47.86316" lon="-3.54225">
        <ele>29</ele>
        <time>2019-07-15T10:56:43Z</time>
      </trkpt>
      <trkpt lat="47.86311" lon="-3.54228">
        <ele>29</ele>
        <time>2019-07-15T10:56:44Z</time>
      </trkpt>
      <trkpt lat="47.86307" lon="-3.54231">
        <ele>29</ele>
        <time>2019-07-15T10:56:45Z</time>
      </trkpt>
      <trkpt lat="47.86303" lon="-3.54234">
        <ele>29</ele>
        <time>2019-07-15T10:56:46Z</time>
      </trkpt>
      <trkpt lat="47.86298" lon="-3.54238">
        <ele>29</ele>
        <time>2019-07-15T10:56:47Z</time>
      </trkpt>
      <trkpt lat="47.86294" lon="-3.54242">
        <ele>29</ele>
        <time>2019-07-15T10:56:48Z</time>
      </trkpt>
      <trkpt lat="47.8629" lon="-3.54245">
        <ele>29</ele>
        <time>2019-07-15T10:56:49Z</time>
      </trkpt>
      <trkpt lat="47.86286" lon="-3.5425">
        <ele>30</ele>
        <time>2019-07-15T10:56:50Z</time>
      </trkpt>
      <trkpt lat="47.86282" lon="-3.54254">
        <ele>30</ele>
        <time>2019-07-15T10:56:51Z</time>
      </trkpt>
      <trkpt lat="47.86279" lon="-3.54257">
        <ele>30</ele>
        <time>2019-07-15T10:56:52Z</time>
      </trkpt>
      <trkpt lat="47.86276" lon="-3.54261">
        <ele>30</ele>
        <time>2019-07-15T10:56:53Z</time>
      </trkpt>
      <trkpt lat="47.86274" lon="-3.54264">
        <ele>30</ele>
        <time>2019-07-15T10:56:54Z</time>
      </trkpt>
      <trkpt lat="47.86272" lon="-3.54267">
        <ele>30</ele>
        <time>2019-07-15T10:56:55Z</time>
      </trkpt>
      <trkpt lat="47.86269" lon="-3.5427">
        <ele>30</ele>
        <time>2019-07-15T10:56:56Z</time>
      </trkpt>
      <trkpt lat="47.86266" lon="-3.54273">
        <ele>30</ele>
        <time>2019-07-15T10:56:57Z</time>
      </trkpt>
      <trkpt lat="47.86263" lon="-3.54276">
        <ele>30</ele>
        <time>2019-07-15T10:56:58Z</time>
      </trkpt>
      <trkpt lat="47.86259" lon="-3.54279">
        <ele>30</ele>
        <time>2019-07-15T10:56:59Z</time>
      </trkpt>
      <trkpt lat="47.86254" lon="-3.54282">
        <ele>31</ele>
        <time>2019-07-15T10:57:00Z</time>
      </trkpt>
      <trkpt lat="47.8625" lon="-3.54286">
        <ele>31</ele>
        <time>2019-07-15T10:57:01Z</time>
      </trkpt>
      <trkpt lat="47.86245" lon="-3.54289">
        <ele>31</ele>
        <time>2019-07-15T10:57:02Z</time>
      </trkpt>
      <trkpt lat="47.8624" lon="-3.54293">
        <ele>31</ele>
        <time>2019-07-15T10:57:03Z</time>
      </trkpt>
      <trkpt lat="47.86235" lon="-3.54297">
        <ele>31</ele>
        <time>2019-07-15T10:57:04Z</time>
      </trkpt>
      <trkpt lat="47.86231" lon="-3.543">
        <ele>31</ele>
        <time>2019-07-15T10:57:05Z</time>
      </trkpt>
      <trkpt lat="47.86225" lon="-3.54303">
        <ele>31</ele>
        <time>2019-07-15T10:57:06Z</time>
      </trkpt>
      <trkpt lat="47.8622" lon="-3.54307">
        <ele>31</ele>
        <time>2019-07-15T10:57:07Z</time>
      </trkpt>
      <trkpt lat="47.86215" lon="-3.5431">
        <ele>31</ele>
        <time>2019-07-15T10:57:08Z</time>
      </trkpt>
      <trkpt lat="47.86209" lon="-3.54313">
        <ele>31</ele>
        <time>2019-07-15T10:57:09Z</time>
      </trkpt>
      <trkpt lat="47.86204" lon="-3.54317">
        <ele>31</ele>
        <time>2019-07-15T10:57:10Z</time>
      </trkpt>
      <trkpt lat="47.86198" lon="-3.54319">
        <ele>31</ele>
        <time>2019-07-15T10:57:11Z</time>
      </trkpt>
      <trkpt lat="47.86191" lon="-3.54322">
        <ele>31</ele>
        <time>2019-07-15T10:57:12Z</time>
      </trkpt>
      <trkpt lat="47.86185" lon="-3.54324">
        <ele>31</ele>
        <time>2019-07-15T10:57:13Z</time>
      </trkpt>
      <trkpt lat="47.86178" lon="-3.54326">
        <ele>31</ele>
        <time>2019-07-15T10:57:14Z</time>
      </trkpt>
      <trkpt lat="47.86172" lon="-3.54328">
        <ele>31</ele>
        <time>2019-07-15T10:57:15Z</time>
      </trkpt>
      <trkpt lat="47.86166" lon="-3.5433">
        <ele>31</ele>
        <time>2019-07-15T10:57:16Z</time>
      </trkpt>
      <trkpt lat="47.86159" lon="-3.54332">
        <ele>31</ele>
        <time>2019-07-15T10:57:17Z</time>
      </trkpt>
      <trkpt lat="47.86153" lon="-3.54334">
        <ele>31</ele>
        <time>2019-07-15T10:57:18Z</time>
      </trkpt>
      <trkpt lat="47.86148" lon="-3.54337">
        <ele>31</ele>
        <time>2019-07-15T10:57:19Z</time>
      </trkpt>
      <trkpt lat="47.86144" lon="-3.54339">
        <ele>31</ele>
        <time>2019-07-15T10:57:20Z</time>
      </trkpt>
      <trkpt lat="47.86138" lon="-3.54341">
        <ele>31</ele>
        <time>2019-07-15T10:57:21Z</time>
      </trkpt>
      <trkpt lat="47.86133" lon="-3.54342">
        <ele>31</ele>
        <time>2019-07-15T10:57:22Z</time>
      </trkpt>
      <trkpt lat="47.86128" lon="-3.54343">
        <ele>31</ele>
        <time>2019-07-15T10:57:23Z</time>
      </trkpt>
      <trkpt lat="47.86124" lon="-3.54343">
        <ele>31</ele>
        <time>2019-07-15T10:57:24Z</time>
      </trkpt>
      <trkpt lat="47.86117" lon="-3.54345">
        <ele>31</ele>
        <time>2019-07-15T10:57:25Z</time>
      </trkpt>
      <trkpt lat="47.86111" lon="-3.54346">
        <ele>31</ele>
        <time>2019-07-15T10:57:26Z</time>
      </trkpt>
      <trkpt lat="47.86105" lon="-3.54348">
        <ele>31</ele>
        <time>2019-07-15T10:57:27Z</time>
      </trkpt>
      <trkpt lat="47.86099" lon="-3.5435">
        <ele>31</ele>
        <time>2019-07-15T10:57:28Z</time>
      </trkpt>
      <trkpt lat="47.86092" lon="-3.54353">
        <ele>31</ele>
        <time>2019-07-15T10:57:29Z</time>
      </trkpt>
      <trkpt lat="47.86086" lon="-3.54354">
        <ele>31</ele>
        <time>2019-07-15T10:57:30Z</time>
      </trkpt>
      <trkpt lat="47.8608" lon="-3.54356">
        <ele>31</ele>
        <time>2019-07-15T10:57:31Z</time>
      </trkpt>
      <trkpt lat="47.86073" lon="-3.54358">
        <ele>31</ele>
        <time>2019-07-15T10:57:32Z</time>
      </trkpt>
      <trkpt lat="47.86067" lon="-3.5436">
        <ele>31</ele>
        <time>2019-07-15T10:57:33Z</time>
      </trkpt>
      <trkpt lat="47.86061" lon="-3.54362">
        <ele>31</ele>
        <time>2019-07-15T10:57:34Z</time>
      </trkpt>
      <trkpt lat="47.86055" lon="-3.54364">
        <ele>31</ele>
        <time>2019-07-15T10:57:35Z</time>
      </trkpt>
      <trkpt lat="47.8605" lon="-3.54366">
        <ele>31</ele>
        <time>2019-07-15T10:57:36Z</time>
      </trkpt>
      <trkpt lat="47.86044" lon="-3.54368">
        <ele>31</ele>
        <time>2019-07-15T10:57:37Z</time>
      </trkpt>
      <trkpt lat="47.86039" lon="-3.5437">
        <ele>31</ele>
        <time>2019-07-15T10:57:38Z</time>
      </trkpt>
      <trkpt lat="47.86034" lon="-3.54371">
        <ele>30</ele>
        <time>2019-07-15T10:57:39Z</time>
      </trkpt>
      <trkpt lat="47.8603" lon="-3.54373">
        <ele>30</ele>
        <time>2019-07-15T10:57:40Z</time>
      </trkpt>
      <trkpt lat="47.86024" lon="-3.54375">
        <ele>30</ele>
        <time>2019-07-15T10:57:41Z</time>
      </trkpt>
      <trkpt lat="47.8602" lon="-3.54376">
        <ele>30</ele>
        <time>2019-07-15T10:57:42Z</time>
      </trkpt>
      <trkpt lat="47.86015" lon="-3.54378">
        <ele>30</ele>
        <time>2019-07-15T10:57:43Z</time>
      </trkpt>
      <trkpt lat="47.86009" lon="-3.5438">
        <ele>30</ele>
        <time>2019-07-15T10:57:44Z</time>
      </trkpt>
      <trkpt lat="47.86005" lon="-3.54381">
        <ele>30</ele>
        <time>2019-07-15T10:57:45Z</time>
      </trkpt>
      <trkpt lat="47.85999" lon="-3.54383">
        <ele>30</ele>
        <time>2019-07-15T10:57:46Z</time>
      </trkpt>
      <trkpt lat="47.85994" lon="-3.54385">
        <ele>30</ele>
        <time>2019-07-15T10:57:47Z</time>
      </trkpt>
      <trkpt lat="47.85989" lon="-3.54387">
        <ele>30</ele>
        <time>2019-07-15T10:57:48Z</time>
      </trkpt>
      <trkpt lat="47.85984" lon="-3.54389">
        <ele>30</ele>
        <time>2019-07-15T10:57:49Z</time>
      </trkpt>
      <trkpt lat="47.85979" lon="-3.54391">
        <ele>30</ele>
        <time>2019-07-15T10:57:50Z</time>
      </trkpt>
      <trkpt lat="47.85974" lon="-3.54392">
        <ele>30</ele>
        <time>2019-07-15T10:57:51Z</time>
      </trkpt>
      <trkpt lat="47.85969" lon="-3.54395">
        <ele>30</ele>
        <time>2019-07-15T10:57:52Z</time>
      </trkpt>
      <trkpt lat="47.85964" lon="-3.54396">
        <ele>30</ele>
        <time>2019-07-15T10:57:53Z</time>
      </trkpt>
      <trkpt lat="47.85959" lon="-3.54399">
        <ele>30</ele>
        <time>2019-07-15T10:57:54Z</time>
      </trkpt>
      <trkpt lat="47.85955" lon="-3.54401">
        <ele>30</ele>
        <time>2019-07-15T10:57:55Z</time>
      </trkpt>
      <trkpt lat="47.8595" lon="-3.54403">
        <ele>30</ele>
        <time>2019-07-15T10:57:56Z</time>
      </trkpt>
      <trkpt lat="47.85946" lon="-3.54405">
        <ele>30</ele>
        <time>2019-07-15T10:57:57Z</time>
      </trkpt>
      <trkpt lat="47.85942" lon="-3.54406">
        <ele>30</ele>
        <time>2019-07-15T10:57:58Z</time>
      </trkpt>
      <trkpt lat="47.85938" lon="-3.54408">
        <ele>30</ele>
        <time>2019-07-15T10:57:59Z</time>
      </trkpt>
      <trkpt lat="47.85934" lon="-3.54409">
        <ele>30</ele>
        <time>2019-07-15T10:58:00Z</time>
      </trkpt>
      <trkpt lat="47.85929" lon="-3.54411">
        <ele>30</ele>
        <time>2019-07-15T10:58:01Z</time>
      </trkpt>
      <trkpt lat="47.85925" lon="-3.54413">
        <ele>30</ele>
        <time>2019-07-15T10:58:02Z</time>
      </trkpt>
      <trkpt lat="47.8592" lon="-3.54415">
        <ele>30</ele>
        <time>2019-07-15T10:58:03Z</time>
      </trkpt>
      <trkpt lat="47.85915" lon="-3.54416">
        <ele>30</ele>
        <time>2019-07-15T10:58:04Z</time>
      </trkpt>
      <trkpt lat="47.8591" lon="-3.54418">
        <ele>30</ele>
        <time>2019-07-15T10:58:05Z</time>
      </trkpt>
      <trkpt lat="47.85905" lon="-3.5442">
        <ele>30</ele>
        <time>2019-07-15T10:58:06Z</time>
      </trkpt>
      <trkpt lat="47.859" lon="-3.54422">
        <ele>30</ele>
        <time>2019-07-15T10:58:07Z</time>
      </trkpt>
      <trkpt lat="47.85894" lon="-3.54424">
        <ele>30</ele>
        <time>2019-07-15T10:58:08Z</time>
      </trkpt>
      <trkpt lat="47.85889" lon="-3.54427">
        <ele>30</ele>
        <time>2019-07-15T10:58:09Z</time>
      </trkpt>
      <trkpt lat="47.85884" lon="-3.54429">
        <ele>30</ele>
        <time>2019-07-15T10:58:10Z</time>
      </trkpt>
      <trkpt lat="47.85879" lon="-3.54431">
        <ele>30</ele>
        <time>2019-07-15T10:58:11Z</time>
      </trkpt>
      <trkpt lat="47.85873" lon="-3.54433">
        <ele>29</ele>
        <time>2019-07-15T10:58:12Z</time>
      </trkpt>
      <trkpt lat="47.85868" lon="-3.54435">
        <ele>29</ele>
        <time>2019-07-15T10:58:13Z</time>
      </trkpt>
      <trkpt lat="47.85863" lon="-3.54438">
        <ele>29</ele>
        <time>2019-07-15T10:58:14Z</time>
      </trkpt>
      <trkpt lat="47.85857" lon="-3.54441">
        <ele>29</ele>
        <time>2019-07-15T10:58:15Z</time>
      </trkpt>
      <trkpt lat="47.85852" lon="-3.54444">
        <ele>29</ele>
        <time>2019-07-15T10:58:16Z</time>
      </trkpt>
      <trkpt lat="47.85847" lon="-3.54447">
        <ele>29</ele>
        <time>2019-07-15T10:58:17Z</time>
      </trkpt>
      <trkpt lat="47.85842" lon="-3.5445">
        <ele>29</ele>
        <time>2019-07-15T10:58:18Z</time>
      </trkpt>
      <trkpt lat="47.85837" lon="-3.54453">
        <ele>29</ele>
        <time>2019-07-15T10:58:19Z</time>
      </trkpt>
      <trkpt lat="47.85832" lon="-3.54456">
        <ele>29</ele>
        <time>2019-07-15T10:58:20Z</time>
      </trkpt>
      <trkpt lat="47.85827" lon="-3.54459">
        <ele>29</ele>
        <time>2019-07-15T10:58:21Z</time>
      </trkpt>
      <trkpt lat="47.85823" lon="-3.54462">
        <ele>29</ele>
        <time>2019-07-15T10:58:22Z</time>
      </trkpt>
      <trkpt lat="47.85819" lon="-3.54465">
        <ele>29</ele>
        <time>2019-07-15T10:58:23Z</time>
      </trkpt>
      <trkpt lat="47.85814" lon="-3.54468">
        <ele>29</ele>
        <time>2019-07-15T10:58:24Z</time>
      </trkpt>
      <trkpt lat="47.8581" lon="-3.54471">
        <ele>29</ele>
        <time>2019-07-15T10:58:25Z</time>
      </trkpt>
      <trkpt lat="47.85805" lon="-3.54475">
        <ele>29</ele>
        <time>2019-07-15T10:58:26Z</time>
      </trkpt>
      <trkpt lat="47.85801" lon="-3.54478">
        <ele>29</ele>
        <time>2019-07-15T10:58:27Z</time>
      </trkpt>
      <trkpt lat="47.85797" lon="-3.54481">
        <ele>29</ele>
        <time>2019-07-15T10:58:28Z</time>
      </trkpt>
      <trkpt lat="47.85793" lon="-3.54485">
        <ele>29</ele>
        <time>2019-07-15T10:58:29Z</time>
      </trkpt>
      <trkpt lat="47.85789" lon="-3.54489">
        <ele>29</ele>
        <time>2019-07-15T10:58:30Z</time>
      </trkpt>
      <trkpt lat="47.85785" lon="-3.54492">
        <ele>29</ele>
        <time>2019-07-15T10:58:31Z</time>
      </trkpt>
      <trkpt lat="47.85781" lon="-3.54496">
        <ele>29</ele>
        <time>2019-07-15T10:58:32Z</time>
      </trkpt>
      <trkpt lat="47.85777" lon="-3.545">
        <ele>29</ele>
        <time>2019-07-15T10:58:33Z</time>
      </trkpt>
      <trkpt lat="47.85773" lon="-3.54503">
        <ele>29</ele>
        <time>2019-07-15T10:58:34Z</time>
      </trkpt>
      <trkpt lat="47.85769" lon="-3.54507">
        <ele>29</ele>
        <time>2019-07-15T10:58:35Z</time>
      </trkpt>
      <trkpt lat="47.85766" lon="-3.5451">
        <ele>29</ele>
        <time>2019-07-15T10:58:36Z</time>
      </trkpt>
      <trkpt lat="47.85762" lon="-3.54514">
        <ele>29</ele>
        <time>2019-07-15T10:58:37Z</time>
      </trkpt>
      <trkpt lat="47.85758" lon="-3.54517">
        <ele>29</ele>
        <time>2019-07-15T10:58:38Z</time>
      </trkpt>
      <trkpt lat="47.85754" lon="-3.54517">
        <ele>29</ele>
        <time>2019-07-15T10:58:39Z</time>
      </trkpt>
      <trkpt lat="47.85752" lon="-3.54517">
        <ele>30</ele>
        <time>2019-07-15T10:58:40Z</time>
      </trkpt>
      <trkpt lat="47.8575" lon="-3.54516">
        <ele>30</ele>
        <time>2019-07-15T10:58:41Z</time>
      </trkpt>
      <trkpt lat="47.85749" lon="-3.54516">
        <ele>30</ele>
        <time>2019-07-15T10:58:42Z</time>
      </trkpt>
      <trkpt lat="47.85749" lon="-3.54517">
        <ele>30</ele>
        <time>2019-07-15T10:58:43Z</time>
      </trkpt>
      <trkpt lat="47.85748" lon="-3.54519">
        <ele>30</ele>
        <time>2019-07-15T10:58:44Z</time>
      </trkpt>
      <trkpt lat="47.85747" lon="-3.5452">
        <ele>30</ele>
        <time>2019-07-15T10:58:45Z</time>
      </trkpt>
      <trkpt lat="47.85746" lon="-3.54522">
        <ele>30</ele>
        <time>2019-07-15T10:58:46Z</time>
      </trkpt>
      <trkpt lat="47.85745" lon="-3.54523">
        <ele>31</ele>
        <time>2019-07-15T10:58:47Z</time>
      </trkpt>
      <trkpt lat="47.85743" lon="-3.54525">
        <ele>31</ele>
        <time>2019-07-15T10:58:48Z</time>
      </trkpt>
      <trkpt lat="47.85741" lon="-3.54527">
        <ele>31</ele>
        <time>2019-07-15T10:58:49Z</time>
      </trkpt>
      <trkpt lat="47.85739" lon="-3.54529">
        <ele>31</ele>
        <time>2019-07-15T10:58:50Z</time>
      </trkpt>
      <trkpt lat="47.85737" lon="-3.54531">
        <ele>31</ele>
        <time>2019-07-15T10:58:51Z</time>
      </trkpt>
      <trkpt lat="47.85735" lon="-3.54534">
        <ele>32</ele>
        <time>2019-07-15T10:58:52Z</time>
      </trkpt>
      <trkpt lat="47.85733" lon="-3.54536">
        <ele>32</ele>
        <time>2019-07-15T10:58:53Z</time>
      </trkpt>
      <trkpt lat="47.8573" lon="-3.54539">
        <ele>32</ele>
        <time>2019-07-15T10:58:54Z</time>
      </trkpt>
      <trkpt lat="47.85727" lon="-3.54541">
        <ele>32</ele>
        <time>2019-07-15T10:58:55Z</time>
      </trkpt>
      <trkpt lat="47.85725" lon="-3.54543">
        <ele>32</ele>
        <time>2019-07-15T10:58:56Z</time>
      </trkpt>
      <trkpt lat="47.85721" lon="-3.54545">
        <ele>33</ele>
        <time>2019-07-15T10:58:57Z</time>
      </trkpt>
      <trkpt lat="47.85718" lon="-3.54547">
        <ele>33</ele>
        <time>2019-07-15T10:58:58Z</time>
      </trkpt>
      <trkpt lat="47.85715" lon="-3.54551">
        <ele>33</ele>
        <time>2019-07-15T10:58:59Z</time>
      </trkpt>
      <trkpt lat="47.85712" lon="-3.54553">
        <ele>33</ele>
        <time>2019-07-15T10:59:00Z</time>
      </trkpt>
      <trkpt lat="47.85709" lon="-3.54556">
        <ele>33</ele>
        <time>2019-07-15T10:59:01Z</time>
      </trkpt>
      <trkpt lat="47.85706" lon="-3.54558">
        <ele>33</ele>
        <time>2019-07-15T10:59:02Z</time>
      </trkpt>
      <trkpt lat="47.85704" lon="-3.54561">
        <ele>34</ele>
        <time>2019-07-15T10:59:03Z</time>
      </trkpt>
      <trkpt lat="47.85701" lon="-3.54564">
        <ele>34</ele>
        <time>2019-07-15T10:59:04Z</time>
      </trkpt>
      <trkpt lat="47.85699" lon="-3.54567">
        <ele>34</ele>
        <time>2019-07-15T10:59:05Z</time>
      </trkpt>
      <trkpt lat="47.85696" lon="-3.54569">
        <ele>34</ele>
        <time>2019-07-15T10:59:06Z</time>
      </trkpt>
      <trkpt lat="47.85694" lon="-3.54571">
        <ele>34</ele>
        <time>2019-07-15T10:59:07Z</time>
      </trkpt>
      <trkpt lat="47.85692" lon="-3.54575">
        <ele>34</ele>
        <time>2019-07-15T10:59:08Z</time>
      </trkpt>
      <trkpt lat="47.8569" lon="-3.54578">
        <ele>34</ele>
        <time>2019-07-15T10:59:09Z</time>
      </trkpt>
      <trkpt lat="47.85687" lon="-3.54581">
        <ele>34</ele>
        <time>2019-07-15T10:59:10Z</time>
      </trkpt>
      <trkpt lat="47.85684" lon="-3.54584">
        <ele>34</ele>
        <time>2019-07-15T10:59:11Z</time>
      </trkpt>
      <trkpt lat="47.85682" lon="-3.54587">
        <ele>35</ele>
        <time>2019-07-15T10:59:12Z</time>
      </trkpt>
      <trkpt lat="47.85679" lon="-3.54589">
        <ele>35</ele>
        <time>2019-07-15T10:59:13Z</time>
      </trkpt>
      <trkpt lat="47.85676" lon="-3.54592">
        <ele>35</ele>
        <time>2019-07-15T10:59:14Z</time>
      </trkpt>
      <trkpt lat="47.85673" lon="-3.54595">
        <ele>35</ele>
        <time>2019-07-15T10:59:15Z</time>
      </trkpt>
      <trkpt lat="47.8567" lon="-3.54598">
        <ele>35</ele>
        <time>2019-07-15T10:59:16Z</time>
      </trkpt>
      <trkpt lat="47.85668" lon="-3.546">
        <ele>35</ele>
        <time>2019-07-15T10:59:17Z</time>
      </trkpt>
      <trkpt lat="47.85665" lon="-3.54603">
        <ele>36</ele>
        <time>2019-07-15T10:59:18Z</time>
      </trkpt>
      <trkpt lat="47.85663" lon="-3.54606">
        <ele>36</ele>
        <time>2019-07-15T10:59:19Z</time>
      </trkpt>
      <trkpt lat="47.85661" lon="-3.5461">
        <ele>36</ele>
        <time>2019-07-15T10:59:20Z</time>
      </trkpt>
      <trkpt lat="47.85658" lon="-3.54613">
        <ele>36</ele>
        <time>2019-07-15T10:59:21Z</time>
      </trkpt>
      <trkpt lat="47.85655" lon="-3.54616">
        <ele>36</ele>
        <time>2019-07-15T10:59:22Z</time>
      </trkpt>
      <trkpt lat="47.85653" lon="-3.54619">
        <ele>36</ele>
        <time>2019-07-15T10:59:23Z</time>
      </trkpt>
      <trkpt lat="47.85651" lon="-3.54622">
        <ele>37</ele>
        <time>2019-07-15T10:59:24Z</time>
      </trkpt>
      <trkpt lat="47.85648" lon="-3.54625">
        <ele>37</ele>
        <time>2019-07-15T10:59:25Z</time>
      </trkpt>
      <trkpt lat="47.85646" lon="-3.54628">
        <ele>37</ele>
        <time>2019-07-15T10:59:26Z</time>
      </trkpt>
      <trkpt lat="47.85644" lon="-3.5463">
        <ele>37</ele>
        <time>2019-07-15T10:59:27Z</time>
      </trkpt>
      <trkpt lat="47.85641" lon="-3.54633">
        <ele>37</ele>
        <time>2019-07-15T10:59:28Z</time>
      </trkpt>
      <trkpt lat="47.85639" lon="-3.54636">
        <ele>37</ele>
        <time>2019-07-15T10:59:29Z</time>
      </trkpt>
      <trkpt lat="47.85636" lon="-3.54638">
        <ele>37</ele>
        <time>2019-07-15T10:59:30Z</time>
      </trkpt>
      <trkpt lat="47.85633" lon="-3.54641">
        <ele>37</ele>
        <time>2019-07-15T10:59:31Z</time>
      </trkpt>
      <trkpt lat="47.8563" lon="-3.54644">
        <ele>37</ele>
        <time>2019-07-15T10:59:32Z</time>
      </trkpt>
      <trkpt lat="47.85627" lon="-3.54646">
        <ele>37</ele>
        <time>2019-07-15T10:59:33Z</time>
      </trkpt>
      <trkpt lat="47.85624" lon="-3.54648">
        <ele>38</ele>
        <time>2019-07-15T10:59:34Z</time>
      </trkpt>
      <trkpt lat="47.85621" lon="-3.5465">
        <ele>38</ele>
        <time>2019-07-15T10:59:35Z</time>
      </trkpt>
      <trkpt lat="47.85617" lon="-3.54651">
        <ele>38</ele>
        <time>2019-07-15T10:59:36Z</time>
      </trkpt>
      <trkpt lat="47.85615" lon="-3.54652">
        <ele>38</ele>
        <time>2019-07-15T10:59:37Z</time>
      </trkpt>
      <trkpt lat="47.85613" lon="-3.54652">
        <ele>38</ele>
        <time>2019-07-15T10:59:38Z</time>
      </trkpt>
      <trkpt lat="47.8561" lon="-3.54653">
        <ele>38</ele>
        <time>2019-07-15T10:59:39Z</time>
      </trkpt>
      <trkpt lat="47.85607" lon="-3.54654">
        <ele>38</ele>
        <time>2019-07-15T10:59:40Z</time>
      </trkpt>
      <trkpt lat="47.85605" lon="-3.54654">
        <ele>38</ele>
        <time>2019-07-15T10:59:41Z</time>
      </trkpt>
      <trkpt lat="47.85602" lon="-3.54655">
        <ele>38</ele>
        <time>2019-07-15T10:59:42Z</time>
      </trkpt>
      <trkpt lat="47.85601" lon="-3.54656">
        <ele>39</ele>
        <time>2019-07-15T10:59:43Z</time>
      </trkpt>
      <trkpt lat="47.85598" lon="-3.54657">
        <ele>39</ele>
        <time>2019-07-15T10:59:44Z</time>
      </trkpt>
      <trkpt lat="47.85596" lon="-3.54657">
        <ele>39</ele>
        <time>2019-07-15T10:59:45Z</time>
      </trkpt>
      <trkpt lat="47.85594" lon="-3.54657">
        <ele>39</ele>
        <time>2019-07-15T10:59:46Z</time>
      </trkpt>
      <trkpt lat="47.85591" lon="-3.54658">
        <ele>39</ele>
        <time>2019-07-15T10:59:47Z</time>
      </trkpt>
      <trkpt lat="47.8559" lon="-3.54658">
        <ele>39</ele>
        <time>2019-07-15T10:59:48Z</time>
      </trkpt>
      <trkpt lat="47.85588" lon="-3.54659">
        <ele>39</ele>
        <time>2019-07-15T10:59:49Z</time>
      </trkpt>
      <trkpt lat="47.85587" lon="-3.5466">
        <ele>40</ele>
        <time>2019-07-15T10:59:50Z</time>
      </trkpt>
      <trkpt lat="47.85586" lon="-3.54661">
        <ele>40</ele>
        <time>2019-07-15T10:59:51Z</time>
      </trkpt>
      <trkpt lat="47.85586" lon="-3.5466">
        <ele>40</ele>
        <time>2019-07-15T10:59:52Z</time>
      </trkpt>
      <trkpt lat="47.85586" lon="-3.5466">
        <ele>40</ele>
        <time>2019-07-15T10:59:53Z</time>
      </trkpt>
      <trkpt lat="47.85586" lon="-3.54659">
        <ele>40</ele>
        <time>2019-07-15T10:59:54Z</time>
      </trkpt>
      <trkpt lat="47.8558" lon="-3.54661">
        <ele>41</ele>
        <time>2019-07-15T10:59:55Z</time>
      </trkpt>
      <trkpt lat="47.85578" lon="-3.54662">
        <ele>42</ele>
        <time>2019-07-15T10:59:56Z</time>
      </trkpt>
      <trkpt lat="47.85576" lon="-3.54663">
        <ele>42</ele>
        <time>2019-07-15T10:59:57Z</time>
      </trkpt>
      <trkpt lat="47.85574" lon="-3.54664">
        <ele>42</ele>
        <time>2019-07-15T10:59:58Z</time>
      </trkpt>
      <trkpt lat="47.85571" lon="-3.54665">
        <ele>42</ele>
        <time>2019-07-15T10:59:59Z</time>
      </trkpt>
      <trkpt lat="47.85569" lon="-3.54666">
        <ele>42</ele>
        <time>2019-07-15T11:00:00Z</time>
      </trkpt>
      <trkpt lat="47.85567" lon="-3.54667">
        <ele>42</ele>
        <time>2019-07-15T11:00:01Z</time>
      </trkpt>
      <trkpt lat="47.85565" lon="-3.54667">
        <ele>42</ele>
        <time>2019-07-15T11:00:02Z</time>
      </trkpt>
      <trkpt lat="47.85563" lon="-3.54668">
        <ele>42</ele>
        <time>2019-07-15T11:00:03Z</time>
      </trkpt>
      <trkpt lat="47.8556" lon="-3.5467">
        <ele>42</ele>
        <time>2019-07-15T11:00:04Z</time>
      </trkpt>
      <trkpt lat="47.85558" lon="-3.54671">
        <ele>42</ele>
        <time>2019-07-15T11:00:05Z</time>
      </trkpt>
      <trkpt lat="47.85555" lon="-3.54673">
        <ele>42</ele>
        <time>2019-07-15T11:00:06Z</time>
      </trkpt>
      <trkpt lat="47.85553" lon="-3.54674">
        <ele>42</ele>
        <time>2019-07-15T11:00:07Z</time>
      </trkpt>
      <trkpt lat="47.85551" lon="-3.54674">
        <ele>42</ele>
        <time>2019-07-15T11:00:08Z</time>
      </trkpt>
      <trkpt lat="47.85549" lon="-3.54675">
        <ele>42</ele>
        <time>2019-07-15T11:00:09Z</time>
      </trkpt>
      <trkpt lat="47.85546" lon="-3.54677">
        <ele>42</ele>
        <time>2019-07-15T11:00:10Z</time>
      </trkpt>
      <trkpt lat="47.85544" lon="-3.54678">
        <ele>42</ele>
        <time>2019-07-15T11:00:11Z</time>
      </trkpt>
      <trkpt lat="47.85541" lon="-3.5468">
        <ele>42</ele>
        <time>2019-07-15T11:00:12Z</time>
      </trkpt>
      <trkpt lat="47.85539" lon="-3.54682">
        <ele>42</ele>
        <time>2019-07-15T11:00:13Z</time>
      </trkpt>
      <trkpt lat="47.85537" lon="-3.54684">
        <ele>42</ele>
        <time>2019-07-15T11:00:14Z</time>
      </trkpt>
      <trkpt lat="47.85535" lon="-3.54686">
        <ele>42</ele>
        <time>2019-07-15T11:00:15Z</time>
      </trkpt>
      <trkpt lat="47.85533" lon="-3.54689">
        <ele>42</ele>
        <time>2019-07-15T11:00:16Z</time>
      </trkpt>
      <trkpt lat="47.85531" lon="-3.54692">
        <ele>42</ele>
        <time>2019-07-15T11:00:17Z</time>
      </trkpt>
      <trkpt lat="47.85528" lon="-3.54696">
        <ele>42</ele>
        <time>2019-07-15T11:00:18Z</time>
      </trkpt>
      <trkpt lat="47.85525" lon="-3.547">
        <ele>41</ele>
        <time>2019-07-15T11:00:19Z</time>
      </trkpt>
      <trkpt lat="47.85522" lon="-3.54703">
        <ele>41</ele>
        <time>2019-07-15T11:00:20Z</time>
      </trkpt>
      <trkpt lat="47.8552" lon="-3.54707">
        <ele>41</ele>
        <time>2019-07-15T11:00:21Z</time>
      </trkpt>
      <trkpt lat="47.85518" lon="-3.5471">
        <ele>41</ele>
        <time>2019-07-15T11:00:22Z</time>
      </trkpt>
      <trkpt lat="47.85516" lon="-3.54711">
        <ele>41</ele>
        <time>2019-07-15T11:00:23Z</time>
      </trkpt>
      <trkpt lat="47.85514" lon="-3.54713">
        <ele>41</ele>
        <time>2019-07-15T11:00:24Z</time>
      </trkpt>
      <trkpt lat="47.85512" lon="-3.54715">
        <ele>41</ele>
        <time>2019-07-15T11:00:25Z</time>
      </trkpt>
      <trkpt lat="47.85509" lon="-3.54718">
        <ele>40</ele>
        <time>2019-07-15T11:00:26Z</time>
      </trkpt>
      <trkpt lat="47.85507" lon="-3.54722">
        <ele>40</ele>
        <time>2019-07-15T11:00:27Z</time>
      </trkpt>
      <trkpt lat="47.85504" lon="-3.54725">
        <ele>40</ele>
        <time>2019-07-15T11:00:28Z</time>
      </trkpt>
      <trkpt lat="47.85501" lon="-3.54728">
        <ele>40</ele>
        <time>2019-07-15T11:00:29Z</time>
      </trkpt>
      <trkpt lat="47.85497" lon="-3.5473">
        <ele>40</ele>
        <time>2019-07-15T11:00:30Z</time>
      </trkpt>
      <trkpt lat="47.85493" lon="-3.54732">
        <ele>40</ele>
        <time>2019-07-15T11:00:31Z</time>
      </trkpt>
      <trkpt lat="47.85489" lon="-3.54733">
        <ele>40</ele>
        <time>2019-07-15T11:00:32Z</time>
      </trkpt>
      <trkpt lat="47.85486" lon="-3.54734">
        <ele>39</ele>
        <time>2019-07-15T11:00:33Z</time>
      </trkpt>
      <trkpt lat="47.85482" lon="-3.54735">
        <ele>39</ele>
        <time>2019-07-15T11:00:34Z</time>
      </trkpt>
      <trkpt lat="47.85479" lon="-3.54736">
        <ele>39</ele>
        <time>2019-07-15T11:00:35Z</time>
      </trkpt>
      <trkpt lat="47.85475" lon="-3.54735">
        <ele>38</ele>
        <time>2019-07-15T11:00:36Z</time>
      </trkpt>
      <trkpt lat="47.85471" lon="-3.54734">
        <ele>38</ele>
        <time>2019-07-15T11:00:37Z</time>
      </trkpt>
      <trkpt lat="47.85468" lon="-3.54733">
        <ele>37</ele>
        <time>2019-07-15T11:00:38Z</time>
      </trkpt>
      <trkpt lat="47.85465" lon="-3.54732">
        <ele>37</ele>
        <time>2019-07-15T11:00:39Z</time>
      </trkpt>
      <trkpt lat="47.85462" lon="-3.5473">
        <ele>37</ele>
        <time>2019-07-15T11:00:40Z</time>
      </trkpt>
      <trkpt lat="47.8546" lon="-3.54729">
        <ele>36</ele>
        <time>2019-07-15T11:00:41Z</time>
      </trkpt>
      <trkpt lat="47.85457" lon="-3.54727">
        <ele>36</ele>
        <time>2019-07-15T11:00:42Z</time>
      </trkpt>
      <trkpt lat="47.85454" lon="-3.54724">
        <ele>36</ele>
        <time>2019-07-15T11:00:43Z</time>
      </trkpt>
      <trkpt lat="47.85453" lon="-3.5472">
        <ele>36</ele>
        <time>2019-07-15T11:00:44Z</time>
      </trkpt>
      <trkpt lat="47.85451" lon="-3.54717">
        <ele>35</ele>
        <time>2019-07-15T11:00:45Z</time>
      </trkpt>
      <trkpt lat="47.8545" lon="-3.54713">
        <ele>35</ele>
        <time>2019-07-15T11:00:46Z</time>
      </trkpt>
      <trkpt lat="47.8545" lon="-3.5471">
        <ele>35</ele>
        <time>2019-07-15T11:00:47Z</time>
      </trkpt>
      <trkpt lat="47.8545" lon="-3.54707">
        <ele>35</ele>
        <time>2019-07-15T11:00:48Z</time>
      </trkpt>
      <trkpt lat="47.8545" lon="-3.54704">
        <ele>35</ele>
        <time>2019-07-15T11:00:49Z</time>
      </trkpt>
      <trkpt lat="47.85449" lon="-3.547">
        <ele>35</ele>
        <time>2019-07-15T11:00:50Z</time>
      </trkpt>
      <trkpt lat="47.85448" lon="-3.54696">
        <ele>35</ele>
        <time>2019-07-15T11:00:51Z</time>
      </trkpt>
      <trkpt lat="47.85448" lon="-3.54692">
        <ele>35</ele>
        <time>2019-07-15T11:00:52Z</time>
      </trkpt>
      <trkpt lat="47.85448" lon="-3.54687">
        <ele>34</ele>
        <time>2019-07-15T11:00:53Z</time>
      </trkpt>
      <trkpt lat="47.85447" lon="-3.54683">
        <ele>35</ele>
        <time>2019-07-15T11:00:54Z</time>
      </trkpt>
      <trkpt lat="47.85447" lon="-3.54679">
        <ele>35</ele>
        <time>2019-07-15T11:00:55Z</time>
      </trkpt>
      <trkpt lat="47.85446" lon="-3.54674">
        <ele>35</ele>
        <time>2019-07-15T11:00:56Z</time>
      </trkpt>
      <trkpt lat="47.85445" lon="-3.5467">
        <ele>35</ele>
        <time>2019-07-15T11:00:57Z</time>
      </trkpt>
      <trkpt lat="47.85445" lon="-3.54665">
        <ele>35</ele>
        <time>2019-07-15T11:00:58Z</time>
      </trkpt>
      <trkpt lat="47.85444" lon="-3.54661">
        <ele>35</ele>
        <time>2019-07-15T11:00:59Z</time>
      </trkpt>
      <trkpt lat="47.85444" lon="-3.54656">
        <ele>35</ele>
        <time>2019-07-15T11:01:00Z</time>
      </trkpt>
      <trkpt lat="47.85443" lon="-3.54651">
        <ele>35</ele>
        <time>2019-07-15T11:01:01Z</time>
      </trkpt>
      <trkpt lat="47.85442" lon="-3.54646">
        <ele>35</ele>
        <time>2019-07-15T11:01:02Z</time>
      </trkpt>
      <trkpt lat="47.85441" lon="-3.54641">
        <ele>35</ele>
        <time>2019-07-15T11:01:03Z</time>
      </trkpt>
      <trkpt lat="47.8544" lon="-3.54636">
        <ele>35</ele>
        <time>2019-07-15T11:01:04Z</time>
      </trkpt>
      <trkpt lat="47.8544" lon="-3.54632">
        <ele>36</ele>
        <time>2019-07-15T11:01:05Z</time>
      </trkpt>
      <trkpt lat="47.85439" lon="-3.54627">
        <ele>36</ele>
        <time>2019-07-15T11:01:06Z</time>
      </trkpt>
      <trkpt lat="47.85439" lon="-3.54622">
        <ele>36</ele>
        <time>2019-07-15T11:01:07Z</time>
      </trkpt>
      <trkpt lat="47.85438" lon="-3.54618">
        <ele>36</ele>
        <time>2019-07-15T11:01:08Z</time>
      </trkpt>
      <trkpt lat="47.85437" lon="-3.54613">
        <ele>36</ele>
        <time>2019-07-15T11:01:09Z</time>
      </trkpt>
      <trkpt lat="47.85437" lon="-3.54609">
        <ele>36</ele>
        <time>2019-07-15T11:01:10Z</time>
      </trkpt>
      <trkpt lat="47.85437" lon="-3.54604">
        <ele>36</ele>
        <time>2019-07-15T11:01:11Z</time>
      </trkpt>
      <trkpt lat="47.85436" lon="-3.54599">
        <ele>37</ele>
        <time>2019-07-15T11:01:12Z</time>
      </trkpt>
      <trkpt lat="47.85436" lon="-3.54595">
        <ele>37</ele>
        <time>2019-07-15T11:01:13Z</time>
      </trkpt>
      <trkpt lat="47.85436" lon="-3.5459">
        <ele>37</ele>
        <time>2019-07-15T11:01:14Z</time>
      </trkpt>
      <trkpt lat="47.85435" lon="-3.54586">
        <ele>37</ele>
        <time>2019-07-15T11:01:15Z</time>
      </trkpt>
      <trkpt lat="47.85434" lon="-3.54581">
        <ele>37</ele>
        <time>2019-07-15T11:01:16Z</time>
      </trkpt>
      <trkpt lat="47.85434" lon="-3.54577">
        <ele>37</ele>
        <time>2019-07-15T11:01:17Z</time>
      </trkpt>
      <trkpt lat="47.85433" lon="-3.54573">
        <ele>37</ele>
        <time>2019-07-15T11:01:18Z</time>
      </trkpt>
      <trkpt lat="47.85433" lon="-3.54568">
        <ele>38</ele>
        <time>2019-07-15T11:01:19Z</time>
      </trkpt>
      <trkpt lat="47.85432" lon="-3.54564">
        <ele>38</ele>
        <time>2019-07-15T11:01:20Z</time>
      </trkpt>
      <trkpt lat="47.85432" lon="-3.54559">
        <ele>38</ele>
        <time>2019-07-15T11:01:21Z</time>
      </trkpt>
      <trkpt lat="47.85432" lon="-3.54555">
        <ele>38</ele>
        <time>2019-07-15T11:01:22Z</time>
      </trkpt>
      <trkpt lat="47.85432" lon="-3.54551">
        <ele>38</ele>
        <time>2019-07-15T11:01:23Z</time>
      </trkpt>
      <trkpt lat="47.85431" lon="-3.54547">
        <ele>38</ele>
        <time>2019-07-15T11:01:24Z</time>
      </trkpt>
      <trkpt lat="47.8543" lon="-3.54543">
        <ele>39</ele>
        <time>2019-07-15T11:01:25Z</time>
      </trkpt>
      <trkpt lat="47.85429" lon="-3.54539">
        <ele>39</ele>
        <time>2019-07-15T11:01:26Z</time>
      </trkpt>
      <trkpt lat="47.85428" lon="-3.54535">
        <ele>39</ele>
        <time>2019-07-15T11:01:27Z</time>
      </trkpt>
      <trkpt lat="47.85426" lon="-3.54531">
        <ele>39</ele>
        <time>2019-07-15T11:01:28Z</time>
      </trkpt>
      <trkpt lat="47.85424" lon="-3.54528">
        <ele>39</ele>
        <time>2019-07-15T11:01:29Z</time>
      </trkpt>
      <trkpt lat="47.85422" lon="-3.54525">
        <ele>39</ele>
        <time>2019-07-15T11:01:30Z</time>
      </trkpt>
      <trkpt lat="47.8542" lon="-3.54523">
        <ele>39</ele>
        <time>2019-07-15T11:01:31Z</time>
      </trkpt>
      <trkpt lat="47.85418" lon="-3.5452">
        <ele>39</ele>
        <time>2019-07-15T11:01:32Z</time>
      </trkpt>
      <trkpt lat="47.85415" lon="-3.54518">
        <ele>39</ele>
        <time>2019-07-15T11:01:33Z</time>
      </trkpt>
      <trkpt lat="47.85412" lon="-3.54516">
        <ele>39</ele>
        <time>2019-07-15T11:01:34Z</time>
      </trkpt>
      <trkpt lat="47.8541" lon="-3.54515">
        <ele>39</ele>
        <time>2019-07-15T11:01:35Z</time>
      </trkpt>
      <trkpt lat="47.85407" lon="-3.54513">
        <ele>40</ele>
        <time>2019-07-15T11:01:36Z</time>
      </trkpt>
      <trkpt lat="47.85404" lon="-3.54512">
        <ele>40</ele>
        <time>2019-07-15T11:01:37Z</time>
      </trkpt>
      <trkpt lat="47.85401" lon="-3.54511">
        <ele>40</ele>
        <time>2019-07-15T11:01:38Z</time>
      </trkpt>
      <trkpt lat="47.85398" lon="-3.5451">
        <ele>40</ele>
        <time>2019-07-15T11:01:39Z</time>
      </trkpt>
      <trkpt lat="47.85395" lon="-3.54508">
        <ele>40</ele>
        <time>2019-07-15T11:01:40Z</time>
      </trkpt>
      <trkpt lat="47.85392" lon="-3.54507">
        <ele>40</ele>
        <time>2019-07-15T11:01:41Z</time>
      </trkpt>
      <trkpt lat="47.8539" lon="-3.54506">
        <ele>40</ele>
        <time>2019-07-15T11:01:42Z</time>
      </trkpt>
      <trkpt lat="47.85388" lon="-3.54506">
        <ele>40</ele>
        <time>2019-07-15T11:01:43Z</time>
      </trkpt>
      <trkpt lat="47.85385" lon="-3.54505">
        <ele>40</ele>
        <time>2019-07-15T11:01:44Z</time>
      </trkpt>
      <trkpt lat="47.85382" lon="-3.54504">
        <ele>40</ele>
        <time>2019-07-15T11:01:45Z</time>
      </trkpt>
      <trkpt lat="47.8538" lon="-3.54503">
        <ele>40</ele>
        <time>2019-07-15T11:01:46Z</time>
      </trkpt>
      <trkpt lat="47.85377" lon="-3.54503">
        <ele>40</ele>
        <time>2019-07-15T11:01:47Z</time>
      </trkpt>
      <trkpt lat="47.85374" lon="-3.54502">
        <ele>40</ele>
        <time>2019-07-15T11:01:48Z</time>
      </trkpt>
      <trkpt lat="47.85372" lon="-3.54502">
        <ele>40</ele>
        <time>2019-07-15T11:01:49Z</time>
      </trkpt>
      <trkpt lat="47.85369" lon="-3.54501">
        <ele>40</ele>
        <time>2019-07-15T11:01:50Z</time>
      </trkpt>
      <trkpt lat="47.85368" lon="-3.545">
        <ele>41</ele>
        <time>2019-07-15T11:01:51Z</time>
      </trkpt>
      <trkpt lat="47.85365" lon="-3.54499">
        <ele>41</ele>
        <time>2019-07-15T11:01:52Z</time>
      </trkpt>
      <trkpt lat="47.85364" lon="-3.54498">
        <ele>41</ele>
        <time>2019-07-15T11:01:53Z</time>
      </trkpt>
      <trkpt lat="47.85362" lon="-3.54497">
        <ele>41</ele>
        <time>2019-07-15T11:01:54Z</time>
      </trkpt>
      <trkpt lat="47.85361" lon="-3.54496">
        <ele>41</ele>
        <time>2019-07-15T11:01:55Z</time>
      </trkpt>
      <trkpt lat="47.85358" lon="-3.54494">
        <ele>41</ele>
        <time>2019-07-15T11:01:56Z</time>
      </trkpt>
      <trkpt lat="47.85356" lon="-3.54494">
        <ele>42</ele>
        <time>2019-07-15T11:01:57Z</time>
      </trkpt>
      <trkpt lat="47.85354" lon="-3.54493">
        <ele>42</ele>
        <time>2019-07-15T11:01:58Z</time>
      </trkpt>
      <trkpt lat="47.85351" lon="-3.54492">
        <ele>42</ele>
        <time>2019-07-15T11:01:59Z</time>
      </trkpt>
      <trkpt lat="47.85349" lon="-3.54491">
        <ele>42</ele>
        <time>2019-07-15T11:02:00Z</time>
      </trkpt>
      <trkpt lat="47.85346" lon="-3.54489">
        <ele>42</ele>
        <time>2019-07-15T11:02:01Z</time>
      </trkpt>
      <trkpt lat="47.85344" lon="-3.54488">
        <ele>42</ele>
        <time>2019-07-15T11:02:02Z</time>
      </trkpt>
      <trkpt lat="47.85341" lon="-3.54487">
        <ele>42</ele>
        <time>2019-07-15T11:02:03Z</time>
      </trkpt>
      <trkpt lat="47.85338" lon="-3.54486">
        <ele>42</ele>
        <time>2019-07-15T11:02:04Z</time>
      </trkpt>
      <trkpt lat="47.85336" lon="-3.54484">
        <ele>43</ele>
        <time>2019-07-15T11:02:05Z</time>
      </trkpt>
      <trkpt lat="47.85334" lon="-3.54483">
        <ele>43</ele>
        <time>2019-07-15T11:02:06Z</time>
      </trkpt>
      <trkpt lat="47.85331" lon="-3.54481">
        <ele>43</ele>
        <time>2019-07-15T11:02:07Z</time>
      </trkpt>
      <trkpt lat="47.85328" lon="-3.54478">
        <ele>43</ele>
        <time>2019-07-15T11:02:08Z</time>
      </trkpt>
      <trkpt lat="47.85326" lon="-3.54474">
        <ele>44</ele>
        <time>2019-07-15T11:02:09Z</time>
      </trkpt>
      <trkpt lat="47.85324" lon="-3.54471">
        <ele>45</ele>
        <time>2019-07-15T11:02:10Z</time>
      </trkpt>
      <trkpt lat="47.85322" lon="-3.54467">
        <ele>46</ele>
        <time>2019-07-15T11:02:11Z</time>
      </trkpt>
      <trkpt lat="47.8532" lon="-3.54464">
        <ele>46</ele>
        <time>2019-07-15T11:02:12Z</time>
      </trkpt>
      <trkpt lat="47.85318" lon="-3.5446">
        <ele>47</ele>
        <time>2019-07-15T11:02:13Z</time>
      </trkpt>
      <trkpt lat="47.85316" lon="-3.54457">
        <ele>48</ele>
        <time>2019-07-15T11:02:14Z</time>
      </trkpt>
      <trkpt lat="47.85314" lon="-3.54454">
        <ele>48</ele>
        <time>2019-07-15T11:02:15Z</time>
      </trkpt>
      <trkpt lat="47.85312" lon="-3.5445">
        <ele>49</ele>
        <time>2019-07-15T11:02:16Z</time>
      </trkpt>
      <trkpt lat="47.85311" lon="-3.54446">
        <ele>49</ele>
        <time>2019-07-15T11:02:17Z</time>
      </trkpt>
      <trkpt lat="47.85309" lon="-3.54442">
        <ele>49</ele>
        <time>2019-07-15T11:02:18Z</time>
      </trkpt>
      <trkpt lat="47.85307" lon="-3.54438">
        <ele>50</ele>
        <time>2019-07-15T11:02:19Z</time>
      </trkpt>
      <trkpt lat="47.85305" lon="-3.54434">
        <ele>50</ele>
        <time>2019-07-15T11:02:20Z</time>
      </trkpt>
      <trkpt lat="47.85303" lon="-3.54429">
        <ele>50</ele>
        <time>2019-07-15T11:02:21Z</time>
      </trkpt>
      <trkpt lat="47.85301" lon="-3.54425">
        <ele>51</ele>
        <time>2019-07-15T11:02:22Z</time>
      </trkpt>
      <trkpt lat="47.85299" lon="-3.5442">
        <ele>51</ele>
        <time>2019-07-15T11:02:23Z</time>
      </trkpt>
      <trkpt lat="47.85297" lon="-3.54416">
        <ele>51</ele>
        <time>2019-07-15T11:02:24Z</time>
      </trkpt>
      <trkpt lat="47.85295" lon="-3.54412">
        <ele>51</ele>
        <time>2019-07-15T11:02:25Z</time>
      </trkpt>
      <trkpt lat="47.85293" lon="-3.54408">
        <ele>51</ele>
        <time>2019-07-15T11:02:26Z</time>
      </trkpt>
      <trkpt lat="47.85291" lon="-3.54404">
        <ele>52</ele>
        <time>2019-07-15T11:02:27Z</time>
      </trkpt>
      <trkpt lat="47.85289" lon="-3.544">
        <ele>52</ele>
        <time>2019-07-15T11:02:28Z</time>
      </trkpt>
      <trkpt lat="47.85288" lon="-3.54395">
        <ele>52</ele>
        <time>2019-07-15T11:02:29Z</time>
      </trkpt>
      <trkpt lat="47.85287" lon="-3.5439">
        <ele>52</ele>
        <time>2019-07-15T11:02:30Z</time>
      </trkpt>
      <trkpt lat="47.85286" lon="-3.54386">
        <ele>52</ele>
        <time>2019-07-15T11:02:31Z</time>
      </trkpt>
      <trkpt lat="47.85287" lon="-3.54381">
        <ele>52</ele>
        <time>2019-07-15T11:02:32Z</time>
      </trkpt>
      <trkpt lat="47.85287" lon="-3.54377">
        <ele>53</ele>
        <time>2019-07-15T11:02:33Z</time>
      </trkpt>
      <trkpt lat="47.85287" lon="-3.54373">
        <ele>53</ele>
        <time>2019-07-15T11:02:34Z</time>
      </trkpt>
      <trkpt lat="47.85287" lon="-3.5437">
        <ele>53</ele>
        <time>2019-07-15T11:02:35Z</time>
      </trkpt>
      <trkpt lat="47.85287" lon="-3.54367">
        <ele>54</ele>
        <time>2019-07-15T11:02:36Z</time>
      </trkpt>
      <trkpt lat="47.85288" lon="-3.54366">
        <ele>54</ele>
        <time>2019-07-15T11:02:37Z</time>
      </trkpt>
      <trkpt lat="47.85288" lon="-3.54364">
        <ele>54</ele>
        <time>2019-07-15T11:02:38Z</time>
      </trkpt>
      <trkpt lat="47.85288" lon="-3.54363">
        <ele>55</ele>
        <time>2019-07-15T11:02:39Z</time>
      </trkpt>
      <trkpt lat="47.85288" lon="-3.54363">
        <ele>55</ele>
        <time>2019-07-15T11:02:40Z</time>
      </trkpt>
      <trkpt lat="47.85287" lon="-3.54356">
        <ele>58</ele>
        <time>2019-07-15T11:02:41Z</time>
      </trkpt>
      <trkpt lat="47.85288" lon="-3.54355">
        <ele>58</ele>
        <time>2019-07-15T11:02:42Z</time>
      </trkpt>
      <trkpt lat="47.85288" lon="-3.54356">
        <ele>58</ele>
        <time>2019-07-15T11:02:43Z</time>
      </trkpt>
      <trkpt lat="47.85288" lon="-3.54356">
        <ele>58</ele>
        <time>2019-07-15T11:02:44Z</time>
      </trkpt>
      <trkpt lat="47.85291" lon="-3.54352">
        <ele>59</ele>
        <time>2019-07-15T11:02:45Z</time>
      </trkpt>
      <trkpt lat="47.85292" lon="-3.54349">
        <ele>58</ele>
        <time>2019-07-15T11:02:46Z</time>
      </trkpt>
      <trkpt lat="47.85293" lon="-3.54345">
        <ele>58</ele>
        <time>2019-07-15T11:02:47Z</time>
      </trkpt>
      <trkpt lat="47.85295" lon="-3.5434">
        <ele>58</ele>
        <time>2019-07-15T11:02:48Z</time>
      </trkpt>
      <trkpt lat="47.85296" lon="-3.54335">
        <ele>58</ele>
        <time>2019-07-15T11:02:49Z</time>
      </trkpt>
      <trkpt lat="47.85298" lon="-3.5433">
        <ele>58</ele>
        <time>2019-07-15T11:02:50Z</time>
      </trkpt>
      <trkpt lat="47.853" lon="-3.54325">
        <ele>57</ele>
        <time>2019-07-15T11:02:51Z</time>
      </trkpt>
      <trkpt lat="47.85302" lon="-3.54319">
        <ele>57</ele>
        <time>2019-07-15T11:02:52Z</time>
      </trkpt>
      <trkpt lat="47.85304" lon="-3.54313">
        <ele>57</ele>
        <time>2019-07-15T11:02:53Z</time>
      </trkpt>
      <trkpt lat="47.85306" lon="-3.54306">
        <ele>56</ele>
        <time>2019-07-15T11:02:54Z</time>
      </trkpt>
      <trkpt lat="47.85309" lon="-3.543">
        <ele>56</ele>
        <time>2019-07-15T11:02:55Z</time>
      </trkpt>
      <trkpt lat="47.85311" lon="-3.54293">
        <ele>56</ele>
        <time>2019-07-15T11:02:56Z</time>
      </trkpt>
      <trkpt lat="47.85313" lon="-3.54286">
        <ele>55</ele>
        <time>2019-07-15T11:02:57Z</time>
      </trkpt>
      <trkpt lat="47.85315" lon="-3.54278">
        <ele>55</ele>
        <time>2019-07-15T11:02:58Z</time>
      </trkpt>
      <trkpt lat="47.85318" lon="-3.54271">
        <ele>54</ele>
        <time>2019-07-15T11:02:59Z</time>
      </trkpt>
      <trkpt lat="47.8532" lon="-3.54264">
        <ele>54</ele>
        <time>2019-07-15T11:03:00Z</time>
      </trkpt>
      <trkpt lat="47.85322" lon="-3.54257">
        <ele>54</ele>
        <time>2019-07-15T11:03:01Z</time>
      </trkpt>
      <trkpt lat="47.85325" lon="-3.54249">
        <ele>53</ele>
        <time>2019-07-15T11:03:02Z</time>
      </trkpt>
      <trkpt lat="47.85328" lon="-3.54242">
        <ele>53</ele>
        <time>2019-07-15T11:03:03Z</time>
      </trkpt>
      <trkpt lat="47.85331" lon="-3.54234">
        <ele>53</ele>
        <time>2019-07-15T11:03:04Z</time>
      </trkpt>
      <trkpt lat="47.85333" lon="-3.54227">
        <ele>52</ele>
        <time>2019-07-15T11:03:05Z</time>
      </trkpt>
      <trkpt lat="47.85335" lon="-3.54218">
        <ele>52</ele>
        <time>2019-07-15T11:03:06Z</time>
      </trkpt>
      <trkpt lat="47.85338" lon="-3.5421">
        <ele>51</ele>
        <time>2019-07-15T11:03:07Z</time>
      </trkpt>
      <trkpt lat="47.8534" lon="-3.54201">
        <ele>51</ele>
        <time>2019-07-15T11:03:08Z</time>
      </trkpt>
      <trkpt lat="47.85342" lon="-3.54192">
        <ele>51</ele>
        <time>2019-07-15T11:03:09Z</time>
      </trkpt>
      <trkpt lat="47.85344" lon="-3.54183">
        <ele>50</ele>
        <time>2019-07-15T11:03:10Z</time>
      </trkpt>
      <trkpt lat="47.85346" lon="-3.54174">
        <ele>50</ele>
        <time>2019-07-15T11:03:11Z</time>
      </trkpt>
      <trkpt lat="47.85348" lon="-3.54163">
        <ele>50</ele>
        <time>2019-07-15T11:03:12Z</time>
      </trkpt>
      <trkpt lat="47.85349" lon="-3.54152">
        <ele>50</ele>
        <time>2019-07-15T11:03:13Z</time>
      </trkpt>
      <trkpt lat="47.85349" lon="-3.54141">
        <ele>49</ele>
        <time>2019-07-15T11:03:14Z</time>
      </trkpt>
      <trkpt lat="47.8535" lon="-3.5413">
        <ele>49</ele>
        <time>2019-07-15T11:03:15Z</time>
      </trkpt>
      <trkpt lat="47.8535" lon="-3.54119">
        <ele>49</ele>
        <time>2019-07-15T11:03:16Z</time>
      </trkpt>
      <trkpt lat="47.85351" lon="-3.54109">
        <ele>49</ele>
        <time>2019-07-15T11:03:17Z</time>
      </trkpt>
      <trkpt lat="47.85351" lon="-3.541">
        <ele>49</ele>
        <time>2019-07-15T11:03:18Z</time>
      </trkpt>
      <trkpt lat="47.85351" lon="-3.54091">
        <ele>49</ele>
        <time>2019-07-15T11:03:19Z</time>
      </trkpt>
      <trkpt lat="47.85351" lon="-3.54083">
        <ele>48</ele>
        <time>2019-07-15T11:03:20Z</time>
      </trkpt>
      <trkpt lat="47.8535" lon="-3.54076">
        <ele>48</ele>
        <time>2019-07-15T11:03:21Z</time>
      </trkpt>
      <trkpt lat="47.85348" lon="-3.54071">
        <ele>48</ele>
        <time>2019-07-15T11:03:22Z</time>
      </trkpt>
      <trkpt lat="47.85346" lon="-3.54066">
        <ele>48</ele>
        <time>2019-07-15T11:03:23Z</time>
      </trkpt>
      <trkpt lat="47.85344" lon="-3.5406">
        <ele>48</ele>
        <time>2019-07-15T11:03:24Z</time>
      </trkpt>
      <trkpt lat="47.85342" lon="-3.54056">
        <ele>48</ele>
        <time>2019-07-15T11:03:25Z</time>
      </trkpt>
      <trkpt lat="47.85339" lon="-3.54052">
        <ele>48</ele>
        <time>2019-07-15T11:03:26Z</time>
      </trkpt>
      <trkpt lat="47.85336" lon="-3.5405">
        <ele>48</ele>
        <time>2019-07-15T11:03:27Z</time>
      </trkpt>
      <trkpt lat="47.85333" lon="-3.54048">
        <ele>48</ele>
        <time>2019-07-15T11:03:28Z</time>
      </trkpt>
      <trkpt lat="47.85331" lon="-3.54045">
        <ele>48</ele>
        <time>2019-07-15T11:03:29Z</time>
      </trkpt>
      <trkpt lat="47.85328" lon="-3.54042">
        <ele>48</ele>
        <time>2019-07-15T11:03:30Z</time>
      </trkpt>
      <trkpt lat="47.85325" lon="-3.54041">
        <ele>47</ele>
        <time>2019-07-15T11:03:31Z</time>
      </trkpt>
      <trkpt lat="47.85321" lon="-3.54038">
        <ele>48</ele>
        <time>2019-07-15T11:03:32Z</time>
      </trkpt>
      <trkpt lat="47.85318" lon="-3.54036">
        <ele>48</ele>
        <time>2019-07-15T11:03:33Z</time>
      </trkpt>
      <trkpt lat="47.85315" lon="-3.54034">
        <ele>48</ele>
        <time>2019-07-15T11:03:34Z</time>
      </trkpt>
      <trkpt lat="47.85311" lon="-3.54031">
        <ele>48</ele>
        <time>2019-07-15T11:03:35Z</time>
      </trkpt>
      <trkpt lat="47.85308" lon="-3.54028">
        <ele>48</ele>
        <time>2019-07-15T11:03:36Z</time>
      </trkpt>
      <trkpt lat="47.85305" lon="-3.54026">
        <ele>48</ele>
        <time>2019-07-15T11:03:37Z</time>
      </trkpt>
      <trkpt lat="47.85302" lon="-3.54024">
        <ele>48</ele>
        <time>2019-07-15T11:03:38Z</time>
      </trkpt>
      <trkpt lat="47.85298" lon="-3.54021">
        <ele>48</ele>
        <time>2019-07-15T11:03:39Z</time>
      </trkpt>
      <trkpt lat="47.85295" lon="-3.54017">
        <ele>48</ele>
        <time>2019-07-15T11:03:40Z</time>
      </trkpt>
      <trkpt lat="47.85292" lon="-3.54014">
        <ele>48</ele>
        <time>2019-07-15T11:03:41Z</time>
      </trkpt>
      <trkpt lat="47.85288" lon="-3.54012">
        <ele>48</ele>
        <time>2019-07-15T11:03:42Z</time>
      </trkpt>
      <trkpt lat="47.85285" lon="-3.5401">
        <ele>48</ele>
        <time>2019-07-15T11:03:43Z</time>
      </trkpt>
      <trkpt lat="47.85282" lon="-3.54008">
        <ele>48</ele>
        <time>2019-07-15T11:03:44Z</time>
      </trkpt>
      <trkpt lat="47.85278" lon="-3.54007">
        <ele>48</ele>
        <time>2019-07-15T11:03:45Z</time>
      </trkpt>
      <trkpt lat="47.85274" lon="-3.54005">
        <ele>48</ele>
        <time>2019-07-15T11:03:46Z</time>
      </trkpt>
      <trkpt lat="47.85271" lon="-3.54002">
        <ele>48</ele>
        <time>2019-07-15T11:03:47Z</time>
      </trkpt>
      <trkpt lat="47.85267" lon="-3.54">
        <ele>48</ele>
        <time>2019-07-15T11:03:48Z</time>
      </trkpt>
      <trkpt lat="47.85263" lon="-3.53996">
        <ele>48</ele>
        <time>2019-07-15T11:03:49Z</time>
      </trkpt>
      <trkpt lat="47.8526" lon="-3.53992">
        <ele>48</ele>
        <time>2019-07-15T11:03:50Z</time>
      </trkpt>
      <trkpt lat="47.85257" lon="-3.53988">
        <ele>48</ele>
        <time>2019-07-15T11:03:51Z</time>
      </trkpt>
      <trkpt lat="47.85254" lon="-3.53985">
        <ele>48</ele>
        <time>2019-07-15T11:03:52Z</time>
      </trkpt>
      <trkpt lat="47.8525" lon="-3.53981">
        <ele>48</ele>
        <time>2019-07-15T11:03:53Z</time>
      </trkpt>
      <trkpt lat="47.85247" lon="-3.53978">
        <ele>48</ele>
        <time>2019-07-15T11:03:54Z</time>
      </trkpt>
      <trkpt lat="47.85243" lon="-3.53975">
        <ele>48</ele>
        <time>2019-07-15T11:03:55Z</time>
      </trkpt>
      <trkpt lat="47.8524" lon="-3.53971">
        <ele>48</ele>
        <time>2019-07-15T11:03:56Z</time>
      </trkpt>
      <trkpt lat="47.85236" lon="-3.53968">
        <ele>48</ele>
        <time>2019-07-15T11:03:57Z</time>
      </trkpt>
      <trkpt lat="47.85232" lon="-3.53965">
        <ele>48</ele>
        <time>2019-07-15T11:03:58Z</time>
      </trkpt>
      <trkpt lat="47.85228" lon="-3.53961">
        <ele>48</ele>
        <time>2019-07-15T11:03:59Z</time>
      </trkpt>
      <trkpt lat="47.85224" lon="-3.53958">
        <ele>48</ele>
        <time>2019-07-15T11:04:00Z</time>
      </trkpt>
      <trkpt lat="47.8522" lon="-3.53954">
        <ele>48</ele>
        <time>2019-07-15T11:04:01Z</time>
      </trkpt>
      <trkpt lat="47.85215" lon="-3.53951">
        <ele>48</ele>
        <time>2019-07-15T11:04:02Z</time>
      </trkpt>
      <trkpt lat="47.8521" lon="-3.53947">
        <ele>48</ele>
        <time>2019-07-15T11:04:03Z</time>
      </trkpt>
      <trkpt lat="47.85207" lon="-3.53943">
        <ele>48</ele>
        <time>2019-07-15T11:04:04Z</time>
      </trkpt>
      <trkpt lat="47.85202" lon="-3.5394">
        <ele>49</ele>
        <time>2019-07-15T11:04:05Z</time>
      </trkpt>
      <trkpt lat="47.85198" lon="-3.53936">
        <ele>49</ele>
        <time>2019-07-15T11:04:06Z</time>
      </trkpt>
      <trkpt lat="47.85194" lon="-3.53933">
        <ele>49</ele>
        <time>2019-07-15T11:04:07Z</time>
      </trkpt>
      <trkpt lat="47.8519" lon="-3.5393">
        <ele>49</ele>
        <time>2019-07-15T11:04:08Z</time>
      </trkpt>
      <trkpt lat="47.85186" lon="-3.53927">
        <ele>49</ele>
        <time>2019-07-15T11:04:09Z</time>
      </trkpt>
      <trkpt lat="47.85181" lon="-3.53924">
        <ele>49</ele>
        <time>2019-07-15T11:04:10Z</time>
      </trkpt>
      <trkpt lat="47.85179" lon="-3.5392">
        <ele>49</ele>
        <time>2019-07-15T11:04:11Z</time>
      </trkpt>
      <trkpt lat="47.85177" lon="-3.53916">
        <ele>49</ele>
        <time>2019-07-15T11:04:12Z</time>
      </trkpt>
      <trkpt lat="47.85178" lon="-3.53913">
        <ele>50</ele>
        <time>2019-07-15T11:04:13Z</time>
      </trkpt>
      <trkpt lat="47.85178" lon="-3.53909">
        <ele>50</ele>
        <time>2019-07-15T11:04:14Z</time>
      </trkpt>
      <trkpt lat="47.85179" lon="-3.53904">
        <ele>50</ele>
        <time>2019-07-15T11:04:15Z</time>
      </trkpt>
      <trkpt lat="47.8518" lon="-3.53898">
        <ele>50</ele>
        <time>2019-07-15T11:04:16Z</time>
      </trkpt>
      <trkpt lat="47.8518" lon="-3.53894">
        <ele>50</ele>
        <time>2019-07-15T11:04:17Z</time>
      </trkpt>
      <trkpt lat="47.85181" lon="-3.5389">
        <ele>51</ele>
        <time>2019-07-15T11:04:18Z</time>
      </trkpt>
      <trkpt lat="47.85181" lon="-3.53889">
        <ele>51</ele>
        <time>2019-07-15T11:04:19Z</time>
      </trkpt>
      <trkpt lat="47.85181" lon="-3.53889">
        <ele>51</ele>
        <time>2019-07-15T11:04:20Z</time>
      </trkpt>
      <trkpt lat="47.85182" lon="-3.53888">
        <ele>51</ele>
        <time>2019-07-15T11:04:21Z</time>
      </trkpt>
      <trkpt lat="47.85181" lon="-3.53871">
        <ele>52</ele>
        <time>2019-07-15T11:04:22Z</time>
      </trkpt>
      <trkpt lat="47.85181" lon="-3.53868">
        <ele>52</ele>
        <time>2019-07-15T11:04:23Z</time>
      </trkpt>
      <trkpt lat="47.85181" lon="-3.53864">
        <ele>52</ele>
        <time>2019-07-15T11:04:24Z</time>
      </trkpt>
      <trkpt lat="47.85182" lon="-3.5386">
        <ele>52</ele>
        <time>2019-07-15T11:04:25Z</time>
      </trkpt>
      <trkpt lat="47.85183" lon="-3.53856">
        <ele>52</ele>
        <time>2019-07-15T11:04:26Z</time>
      </trkpt>
      <trkpt lat="47.85184" lon="-3.53851">
        <ele>52</ele>
        <time>2019-07-15T11:04:27Z</time>
      </trkpt>
      <trkpt lat="47.85185" lon="-3.53846">
        <ele>52</ele>
        <time>2019-07-15T11:04:28Z</time>
      </trkpt>
      <trkpt lat="47.85185" lon="-3.53841">
        <ele>52</ele>
        <time>2019-07-15T11:04:29Z</time>
      </trkpt>
      <trkpt lat="47.85186" lon="-3.53837">
        <ele>52</ele>
        <time>2019-07-15T11:04:30Z</time>
      </trkpt>
      <trkpt lat="47.85186" lon="-3.53832">
        <ele>52</ele>
        <time>2019-07-15T11:04:31Z</time>
      </trkpt>
      <trkpt lat="47.85186" lon="-3.53827">
        <ele>52</ele>
        <time>2019-07-15T11:04:32Z</time>
      </trkpt>
      <trkpt lat="47.85186" lon="-3.53823">
        <ele>52</ele>
        <time>2019-07-15T11:04:33Z</time>
      </trkpt>
      <trkpt lat="47.85187" lon="-3.53818">
        <ele>52</ele>
        <time>2019-07-15T11:04:34Z</time>
      </trkpt>
      <trkpt lat="47.85188" lon="-3.53812">
        <ele>52</ele>
        <time>2019-07-15T11:04:35Z</time>
      </trkpt>
      <trkpt lat="47.85189" lon="-3.53807">
        <ele>52</ele>
        <time>2019-07-15T11:04:36Z</time>
      </trkpt>
      <trkpt lat="47.8519" lon="-3.53802">
        <ele>52</ele>
        <time>2019-07-15T11:04:37Z</time>
      </trkpt>
      <trkpt lat="47.85191" lon="-3.53797">
        <ele>52</ele>
        <time>2019-07-15T11:04:38Z</time>
      </trkpt>
      <trkpt lat="47.85191" lon="-3.53792">
        <ele>52</ele>
        <time>2019-07-15T11:04:39Z</time>
      </trkpt>
      <trkpt lat="47.85191" lon="-3.53787">
        <ele>52</ele>
        <time>2019-07-15T11:04:40Z</time>
      </trkpt>
      <trkpt lat="47.85191" lon="-3.53781">
        <ele>52</ele>
        <time>2019-07-15T11:04:41Z</time>
      </trkpt>
      <trkpt lat="47.85192" lon="-3.53776">
        <ele>52</ele>
        <time>2019-07-15T11:04:42Z</time>
      </trkpt>
      <trkpt lat="47.85193" lon="-3.5377">
        <ele>52</ele>
        <time>2019-07-15T11:04:43Z</time>
      </trkpt>
      <trkpt lat="47.85193" lon="-3.53765">
        <ele>52</ele>
        <time>2019-07-15T11:04:44Z</time>
      </trkpt>
      <trkpt lat="47.85193" lon="-3.5376">
        <ele>52</ele>
        <time>2019-07-15T11:04:45Z</time>
      </trkpt>
      <trkpt lat="47.85194" lon="-3.53755">
        <ele>52</ele>
        <time>2019-07-15T11:04:46Z</time>
      </trkpt>
      <trkpt lat="47.85195" lon="-3.53749">
        <ele>52</ele>
        <time>2019-07-15T11:04:47Z</time>
      </trkpt>
      <trkpt lat="47.85196" lon="-3.53746">
        <ele>53</ele>
        <time>2019-07-15T11:04:48Z</time>
      </trkpt>
      <trkpt lat="47.85197" lon="-3.53741">
        <ele>53</ele>
        <time>2019-07-15T11:04:49Z</time>
      </trkpt>
      <trkpt lat="47.85198" lon="-3.53736">
        <ele>53</ele>
        <time>2019-07-15T11:04:50Z</time>
      </trkpt>
      <trkpt lat="47.85199" lon="-3.5373">
        <ele>53</ele>
        <time>2019-07-15T11:04:51Z</time>
      </trkpt>
      <trkpt lat="47.852" lon="-3.53725">
        <ele>53</ele>
        <time>2019-07-15T11:04:52Z</time>
      </trkpt>
      <trkpt lat="47.85201" lon="-3.5372">
        <ele>53</ele>
        <time>2019-07-15T11:04:53Z</time>
      </trkpt>
      <trkpt lat="47.85203" lon="-3.53715">
        <ele>53</ele>
        <time>2019-07-15T11:04:54Z</time>
      </trkpt>
      <trkpt lat="47.85204" lon="-3.53709">
        <ele>53</ele>
        <time>2019-07-15T11:04:55Z</time>
      </trkpt>
      <trkpt lat="47.85205" lon="-3.53703">
        <ele>53</ele>
        <time>2019-07-15T11:04:56Z</time>
      </trkpt>
      <trkpt lat="47.85207" lon="-3.53696">
        <ele>53</ele>
        <time>2019-07-15T11:04:57Z</time>
      </trkpt>
      <trkpt lat="47.8521" lon="-3.53688">
        <ele>53</ele>
        <time>2019-07-15T11:04:58Z</time>
      </trkpt>
      <trkpt lat="47.85211" lon="-3.53682">
        <ele>53</ele>
        <time>2019-07-15T11:04:59Z</time>
      </trkpt>
      <trkpt lat="47.85213" lon="-3.53677">
        <ele>53</ele>
        <time>2019-07-15T11:05:00Z</time>
      </trkpt>
      <trkpt lat="47.85214" lon="-3.53673">
        <ele>53</ele>
        <time>2019-07-15T11:05:01Z</time>
      </trkpt>
      <trkpt lat="47.85215" lon="-3.53668">
        <ele>53</ele>
        <time>2019-07-15T11:05:02Z</time>
      </trkpt>
      <trkpt lat="47.85216" lon="-3.53662">
        <ele>53</ele>
        <time>2019-07-15T11:05:03Z</time>
      </trkpt>
      <trkpt lat="47.85217" lon="-3.53655">
        <ele>53</ele>
        <time>2019-07-15T11:05:04Z</time>
      </trkpt>
      <trkpt lat="47.85218" lon="-3.53648">
        <ele>54</ele>
        <time>2019-07-15T11:05:05Z</time>
      </trkpt>
      <trkpt lat="47.85219" lon="-3.53641">
        <ele>54</ele>
        <time>2019-07-15T11:05:06Z</time>
      </trkpt>
      <trkpt lat="47.85221" lon="-3.53636">
        <ele>54</ele>
        <time>2019-07-15T11:05:07Z</time>
      </trkpt>
      <trkpt lat="47.85222" lon="-3.5363">
        <ele>54</ele>
        <time>2019-07-15T11:05:08Z</time>
      </trkpt>
      <trkpt lat="47.85223" lon="-3.53625">
        <ele>54</ele>
        <time>2019-07-15T11:05:09Z</time>
      </trkpt>
      <trkpt lat="47.85224" lon="-3.5362">
        <ele>54</ele>
        <time>2019-07-15T11:05:10Z</time>
      </trkpt>
      <trkpt lat="47.85227" lon="-3.53615">
        <ele>54</ele>
        <time>2019-07-15T11:05:11Z</time>
      </trkpt>
      <trkpt lat="47.8523" lon="-3.53608">
        <ele>54</ele>
        <time>2019-07-15T11:05:12Z</time>
      </trkpt>
      <trkpt lat="47.85232" lon="-3.53602">
        <ele>54</ele>
        <time>2019-07-15T11:05:13Z</time>
      </trkpt>
      <trkpt lat="47.85234" lon="-3.53596">
        <ele>54</ele>
        <time>2019-07-15T11:05:14Z</time>
      </trkpt>
      <trkpt lat="47.85236" lon="-3.53591">
        <ele>54</ele>
        <time>2019-07-15T11:05:15Z</time>
      </trkpt>
      <trkpt lat="47.85237" lon="-3.53585">
        <ele>54</ele>
        <time>2019-07-15T11:05:16Z</time>
      </trkpt>
      <trkpt lat="47.85238" lon="-3.53582">
        <ele>54</ele>
        <time>2019-07-15T11:05:17Z</time>
      </trkpt>
      <trkpt lat="47.8524" lon="-3.53579">
        <ele>55</ele>
        <time>2019-07-15T11:05:18Z</time>
      </trkpt>
      <trkpt lat="47.85241" lon="-3.53577">
        <ele>55</ele>
        <time>2019-07-15T11:05:19Z</time>
      </trkpt>
      <trkpt lat="47.85242" lon="-3.53573">
        <ele>55</ele>
        <time>2019-07-15T11:05:20Z</time>
      </trkpt>
      <trkpt lat="47.85243" lon="-3.5357">
        <ele>55</ele>
        <time>2019-07-15T11:05:21Z</time>
      </trkpt>
      <trkpt lat="47.85244" lon="-3.53566">
        <ele>55</ele>
        <time>2019-07-15T11:05:22Z</time>
      </trkpt>
      <trkpt lat="47.85245" lon="-3.53562">
        <ele>55</ele>
        <time>2019-07-15T11:05:23Z</time>
      </trkpt>
      <trkpt lat="47.85246" lon="-3.53559">
        <ele>55</ele>
        <time>2019-07-15T11:05:24Z</time>
      </trkpt>
      <trkpt lat="47.85247" lon="-3.53555">
        <ele>55</ele>
        <time>2019-07-15T11:05:25Z</time>
      </trkpt>
      <trkpt lat="47.85249" lon="-3.53552">
        <ele>55</ele>
        <time>2019-07-15T11:05:26Z</time>
      </trkpt>
      <trkpt lat="47.85251" lon="-3.53549">
        <ele>55</ele>
        <time>2019-07-15T11:05:27Z</time>
      </trkpt>
      <trkpt lat="47.85253" lon="-3.53545">
        <ele>55</ele>
        <time>2019-07-15T11:05:28Z</time>
      </trkpt>
      <trkpt lat="47.85256" lon="-3.53542">
        <ele>54</ele>
        <time>2019-07-15T11:05:29Z</time>
      </trkpt>
      <trkpt lat="47.85257" lon="-3.53539">
        <ele>54</ele>
        <time>2019-07-15T11:05:30Z</time>
      </trkpt>
      <trkpt lat="47.85259" lon="-3.53535">
        <ele>54</ele>
        <time>2019-07-15T11:05:31Z</time>
      </trkpt>
      <trkpt lat="47.85261" lon="-3.5353">
        <ele>54</ele>
        <time>2019-07-15T11:05:32Z</time>
      </trkpt>
      <trkpt lat="47.85263" lon="-3.53526">
        <ele>54</ele>
        <time>2019-07-15T11:05:33Z</time>
      </trkpt>
      <trkpt lat="47.85264" lon="-3.53523">
        <ele>54</ele>
        <time>2019-07-15T11:05:34Z</time>
      </trkpt>
      <trkpt lat="47.85266" lon="-3.53519">
        <ele>54</ele>
        <time>2019-07-15T11:05:35Z</time>
      </trkpt>
      <trkpt lat="47.85267" lon="-3.53516">
        <ele>53</ele>
        <time>2019-07-15T11:05:36Z</time>
      </trkpt>
      <trkpt lat="47.85269" lon="-3.53512">
        <ele>53</ele>
        <time>2019-07-15T11:05:37Z</time>
      </trkpt>
      <trkpt lat="47.85271" lon="-3.53508">
        <ele>53</ele>
        <time>2019-07-15T11:05:38Z</time>
      </trkpt>
      <trkpt lat="47.85273" lon="-3.53505">
        <ele>53</ele>
        <time>2019-07-15T11:05:39Z</time>
      </trkpt>
      <trkpt lat="47.85275" lon="-3.53501">
        <ele>53</ele>
        <time>2019-07-15T11:05:40Z</time>
      </trkpt>
      <trkpt lat="47.85276" lon="-3.53497">
        <ele>52</ele>
        <time>2019-07-15T11:05:41Z</time>
      </trkpt>
      <trkpt lat="47.85277" lon="-3.53494">
        <ele>52</ele>
        <time>2019-07-15T11:05:42Z</time>
      </trkpt>
      <trkpt lat="47.85278" lon="-3.5349">
        <ele>52</ele>
        <time>2019-07-15T11:05:43Z</time>
      </trkpt>
      <trkpt lat="47.85278" lon="-3.53487">
        <ele>52</ele>
        <time>2019-07-15T11:05:44Z</time>
      </trkpt>
      <trkpt lat="47.85279" lon="-3.53483">
        <ele>51</ele>
        <time>2019-07-15T11:05:45Z</time>
      </trkpt>
      <trkpt lat="47.85281" lon="-3.53479">
        <ele>51</ele>
        <time>2019-07-15T11:05:46Z</time>
      </trkpt>
      <trkpt lat="47.85282" lon="-3.53476">
        <ele>51</ele>
        <time>2019-07-15T11:05:47Z</time>
      </trkpt>
      <trkpt lat="47.85284" lon="-3.53472">
        <ele>50</ele>
        <time>2019-07-15T11:05:48Z</time>
      </trkpt>
      <trkpt lat="47.85286" lon="-3.53467">
        <ele>50</ele>
        <time>2019-07-15T11:05:49Z</time>
      </trkpt>
      <trkpt lat="47.85289" lon="-3.53461">
        <ele>50</ele>
        <time>2019-07-15T11:05:50Z</time>
      </trkpt>
      <trkpt lat="47.85291" lon="-3.53456">
        <ele>49</ele>
        <time>2019-07-15T11:05:51Z</time>
      </trkpt>
      <trkpt lat="47.85293" lon="-3.53452">
        <ele>49</ele>
        <time>2019-07-15T11:05:52Z</time>
      </trkpt>
      <trkpt lat="47.85294" lon="-3.53449">
        <ele>48</ele>
        <time>2019-07-15T11:05:53Z</time>
      </trkpt>
      <trkpt lat="47.85295" lon="-3.53446">
        <ele>48</ele>
        <time>2019-07-15T11:05:54Z</time>
      </trkpt>
      <trkpt lat="47.85295" lon="-3.53445">
        <ele>47</ele>
        <time>2019-07-15T11:05:55Z</time>
      </trkpt>
      <trkpt lat="47.85296" lon="-3.53444">
        <ele>47</ele>
        <time>2019-07-15T11:05:56Z</time>
      </trkpt>
      <trkpt lat="47.85296" lon="-3.53444">
        <ele>46</ele>
        <time>2019-07-15T11:05:57Z</time>
      </trkpt>
      <trkpt lat="47.85297" lon="-3.53443">
        <ele>45</ele>
        <time>2019-07-15T11:05:58Z</time>
      </trkpt>
      <trkpt lat="47.85301" lon="-3.53439">
        <ele>42</ele>
        <time>2019-07-15T11:05:59Z</time>
      </trkpt>
      <trkpt lat="47.85302" lon="-3.53438">
        <ele>41</ele>
        <time>2019-07-15T11:06:00Z</time>
      </trkpt>
      <trkpt lat="47.85303" lon="-3.53436">
        <ele>40</ele>
        <time>2019-07-15T11:06:01Z</time>
      </trkpt>
      <trkpt lat="47.85305" lon="-3.53434">
        <ele>40</ele>
        <time>2019-07-15T11:06:02Z</time>
      </trkpt>
      <trkpt lat="47.85306" lon="-3.53434">
        <ele>39</ele>
        <time>2019-07-15T11:06:03Z</time>
      </trkpt>
      <trkpt lat="47.85306" lon="-3.53433">
        <ele>38</ele>
        <time>2019-07-15T11:06:04Z</time>
      </trkpt>
      <trkpt lat="47.85307" lon="-3.53432">
        <ele>38</ele>
        <time>2019-07-15T11:06:05Z</time>
      </trkpt>
      <trkpt lat="47.85307" lon="-3.53431">
        <ele>37</ele>
        <time>2019-07-15T11:06:06Z</time>
      </trkpt>
      <trkpt lat="47.85308" lon="-3.5343">
        <ele>36</ele>
        <time>2019-07-15T11:06:07Z</time>
      </trkpt>
      <trkpt lat="47.85309" lon="-3.53429">
        <ele>35</ele>
        <time>2019-07-15T11:06:08Z</time>
      </trkpt>
      <trkpt lat="47.85309" lon="-3.53428">
        <ele>35</ele>
        <time>2019-07-15T11:06:09Z</time>
      </trkpt>
      <trkpt lat="47.85309" lon="-3.53426">
        <ele>34</ele>
        <time>2019-07-15T11:06:10Z</time>
      </trkpt>
      <trkpt lat="47.8531" lon="-3.53425">
        <ele>34</ele>
        <time>2019-07-15T11:06:11Z</time>
      </trkpt>
      <trkpt lat="47.8531" lon="-3.53425">
        <ele>33</ele>
        <time>2019-07-15T11:06:12Z</time>
      </trkpt>
      <trkpt lat="47.8531" lon="-3.53424">
        <ele>33</ele>
        <time>2019-07-15T11:06:13Z</time>
      </trkpt>
      <trkpt lat="47.85311" lon="-3.53422">
        <ele>33</ele>
        <time>2019-07-15T11:06:14Z</time>
      </trkpt>
      <trkpt lat="47.85312" lon="-3.53419">
        <ele>32</ele>
        <time>2019-07-15T11:06:15Z</time>
      </trkpt>
      <trkpt lat="47.85313" lon="-3.53415">
        <ele>32</ele>
        <time>2019-07-15T11:06:16Z</time>
      </trkpt>
      <trkpt lat="47.85313" lon="-3.53412">
        <ele>31</ele>
        <time>2019-07-15T11:06:17Z</time>
      </trkpt>
      <trkpt lat="47.85313" lon="-3.53408">
        <ele>31</ele>
        <time>2019-07-15T11:06:18Z</time>
      </trkpt>
      <trkpt lat="47.85313" lon="-3.53403">
        <ele>31</ele>
        <time>2019-07-15T11:06:19Z</time>
      </trkpt>
      <trkpt lat="47.85313" lon="-3.53398">
        <ele>30</ele>
        <time>2019-07-15T11:06:20Z</time>
      </trkpt>
      <trkpt lat="47.85312" lon="-3.53392">
        <ele>30</ele>
        <time>2019-07-15T11:06:21Z</time>
      </trkpt>
      <trkpt lat="47.85311" lon="-3.53385">
        <ele>30</ele>
        <time>2019-07-15T11:06:22Z</time>
      </trkpt>
      <trkpt lat="47.8531" lon="-3.53378">
        <ele>29</ele>
        <time>2019-07-15T11:06:23Z</time>
      </trkpt>
      <trkpt lat="47.85309" lon="-3.5337">
        <ele>29</ele>
        <time>2019-07-15T11:06:24Z</time>
      </trkpt>
      <trkpt lat="47.85309" lon="-3.53363">
        <ele>29</ele>
        <time>2019-07-15T11:06:25Z</time>
      </trkpt>
      <trkpt lat="47.85309" lon="-3.53357">
        <ele>28</ele>
        <time>2019-07-15T11:06:26Z</time>
      </trkpt>
      <trkpt lat="47.85309" lon="-3.53349">
        <ele>28</ele>
        <time>2019-07-15T11:06:27Z</time>
      </trkpt>
      <trkpt lat="47.85309" lon="-3.53344">
        <ele>28</ele>
        <time>2019-07-15T11:06:28Z</time>
      </trkpt>
      <trkpt lat="47.85309" lon="-3.53337">
        <ele>27</ele>
        <time>2019-07-15T11:06:29Z</time>
      </trkpt>
      <trkpt lat="47.85309" lon="-3.53331">
        <ele>27</ele>
        <time>2019-07-15T11:06:30Z</time>
      </trkpt>
      <trkpt lat="47.85309" lon="-3.53326">
        <ele>27</ele>
        <time>2019-07-15T11:06:31Z</time>
      </trkpt>
      <trkpt lat="47.85309" lon="-3.5332">
        <ele>26</ele>
        <time>2019-07-15T11:06:32Z</time>
      </trkpt>
      <trkpt lat="47.85309" lon="-3.53314">
        <ele>26</ele>
        <time>2019-07-15T11:06:33Z</time>
      </trkpt>
      <trkpt lat="47.85308" lon="-3.53309">
        <ele>26</ele>
        <time>2019-07-15T11:06:34Z</time>
      </trkpt>
      <trkpt lat="47.85307" lon="-3.53304">
        <ele>25</ele>
        <time>2019-07-15T11:06:35Z</time>
      </trkpt>
      <trkpt lat="47.85305" lon="-3.53297">
        <ele>25</ele>
        <time>2019-07-15T11:06:36Z</time>
      </trkpt>
      <trkpt lat="47.85303" lon="-3.5329">
        <ele>24</ele>
        <time>2019-07-15T11:06:37Z</time>
      </trkpt>
      <trkpt lat="47.853" lon="-3.53284">
        <ele>24</ele>
        <time>2019-07-15T11:06:38Z</time>
      </trkpt>
      <trkpt lat="47.85298" lon="-3.53278">
        <ele>23</ele>
        <time>2019-07-15T11:06:39Z</time>
      </trkpt>
      <trkpt lat="47.85295" lon="-3.53273">
        <ele>23</ele>
        <time>2019-07-15T11:06:40Z</time>
      </trkpt>
      <trkpt lat="47.85292" lon="-3.53268">
        <ele>22</ele>
        <time>2019-07-15T11:06:41Z</time>
      </trkpt>
      <trkpt lat="47.85287" lon="-3.53263">
        <ele>22</ele>
        <time>2019-07-15T11:06:42Z</time>
      </trkpt>
      <trkpt lat="47.85283" lon="-3.53258">
        <ele>21</ele>
        <time>2019-07-15T11:06:43Z</time>
      </trkpt>
      <trkpt lat="47.85278" lon="-3.53253">
        <ele>20</ele>
        <time>2019-07-15T11:06:44Z</time>
      </trkpt>
      <trkpt lat="47.85274" lon="-3.53248">
        <ele>20</ele>
        <time>2019-07-15T11:06:45Z</time>
      </trkpt>
      <trkpt lat="47.85269" lon="-3.53243">
        <ele>19</ele>
        <time>2019-07-15T11:06:46Z</time>
      </trkpt>
      <trkpt lat="47.85264" lon="-3.53238">
        <ele>19</ele>
        <time>2019-07-15T11:06:47Z</time>
      </trkpt>
      <trkpt lat="47.8526" lon="-3.53233">
        <ele>18</ele>
        <time>2019-07-15T11:06:48Z</time>
      </trkpt>
      <trkpt lat="47.85256" lon="-3.53229">
        <ele>18</ele>
        <time>2019-07-15T11:06:49Z</time>
      </trkpt>
      <trkpt lat="47.85252" lon="-3.53224">
        <ele>17</ele>
        <time>2019-07-15T11:06:50Z</time>
      </trkpt>
      <trkpt lat="47.85247" lon="-3.53218">
        <ele>17</ele>
        <time>2019-07-15T11:06:51Z</time>
      </trkpt>
      <trkpt lat="47.85244" lon="-3.53213">
        <ele>17</ele>
        <time>2019-07-15T11:06:52Z</time>
      </trkpt>
      <trkpt lat="47.8524" lon="-3.53208">
        <ele>16</ele>
        <time>2019-07-15T11:06:53Z</time>
      </trkpt>
      <trkpt lat="47.85235" lon="-3.53203">
        <ele>16</ele>
        <time>2019-07-15T11:06:54Z</time>
      </trkpt>
      <trkpt lat="47.8523" lon="-3.53198">
        <ele>16</ele>
        <time>2019-07-15T11:06:55Z</time>
      </trkpt>
      <trkpt lat="47.85226" lon="-3.53194">
        <ele>15</ele>
        <time>2019-07-15T11:06:56Z</time>
      </trkpt>
      <trkpt lat="47.85221" lon="-3.53189">
        <ele>15</ele>
        <time>2019-07-15T11:06:57Z</time>
      </trkpt>
      <trkpt lat="47.85216" lon="-3.53186">
        <ele>15</ele>
        <time>2019-07-15T11:06:58Z</time>
      </trkpt>
      <trkpt lat="47.85211" lon="-3.53181">
        <ele>15</ele>
        <time>2019-07-15T11:06:59Z</time>
      </trkpt>
      <trkpt lat="47.85206" lon="-3.53177">
        <ele>14</ele>
        <time>2019-07-15T11:07:00Z</time>
      </trkpt>
      <trkpt lat="47.85202" lon="-3.53173">
        <ele>14</ele>
        <time>2019-07-15T11:07:01Z</time>
      </trkpt>
      <trkpt lat="47.85197" lon="-3.5317">
        <ele>14</ele>
        <time>2019-07-15T11:07:02Z</time>
      </trkpt>
      <trkpt lat="47.85193" lon="-3.53166">
        <ele>14</ele>
        <time>2019-07-15T11:07:03Z</time>
      </trkpt>
      <trkpt lat="47.85189" lon="-3.53163">
        <ele>13</ele>
        <time>2019-07-15T11:07:04Z</time>
      </trkpt>
      <trkpt lat="47.85185" lon="-3.53159">
        <ele>13</ele>
        <time>2019-07-15T11:07:05Z</time>
      </trkpt>
      <trkpt lat="47.85182" lon="-3.53156">
        <ele>13</ele>
        <time>2019-07-15T11:07:06Z</time>
      </trkpt>
      <trkpt lat="47.85178" lon="-3.53154">
        <ele>13</ele>
        <time>2019-07-15T11:07:07Z</time>
      </trkpt>
      <trkpt lat="47.85175" lon="-3.53151">
        <ele>12</ele>
        <time>2019-07-15T11:07:08Z</time>
      </trkpt>
      <trkpt lat="47.85171" lon="-3.53149">
        <ele>12</ele>
        <time>2019-07-15T11:07:09Z</time>
      </trkpt>
      <trkpt lat="47.85167" lon="-3.53146">
        <ele>12</ele>
        <time>2019-07-15T11:07:10Z</time>
      </trkpt>
      <trkpt lat="47.85163" lon="-3.53144">
        <ele>12</ele>
        <time>2019-07-15T11:07:11Z</time>
      </trkpt>
      <trkpt lat="47.85159" lon="-3.53143">
        <ele>12</ele>
        <time>2019-07-15T11:07:12Z</time>
      </trkpt>
      <trkpt lat="47.85155" lon="-3.5314">
        <ele>12</ele>
        <time>2019-07-15T11:07:13Z</time>
      </trkpt>
      <trkpt lat="47.85151" lon="-3.53137">
        <ele>12</ele>
        <time>2019-07-15T11:07:14Z</time>
      </trkpt>
      <trkpt lat="47.85146" lon="-3.53135">
        <ele>11</ele>
        <time>2019-07-15T11:07:15Z</time>
      </trkpt>
      <trkpt lat="47.85142" lon="-3.53133">
        <ele>11</ele>
        <time>2019-07-15T11:07:16Z</time>
      </trkpt>
      <trkpt lat="47.85137" lon="-3.53132">
        <ele>11</ele>
        <time>2019-07-15T11:07:17Z</time>
      </trkpt>
      <trkpt lat="47.85133" lon="-3.5313">
        <ele>11</ele>
        <time>2019-07-15T11:07:18Z</time>
      </trkpt>
      <trkpt lat="47.85128" lon="-3.53128">
        <ele>11</ele>
        <time>2019-07-15T11:07:19Z</time>
      </trkpt>
      <trkpt lat="47.85124" lon="-3.53126">
        <ele>11</ele>
        <time>2019-07-15T11:07:20Z</time>
      </trkpt>
      <trkpt lat="47.85119" lon="-3.53125">
        <ele>11</ele>
        <time>2019-07-15T11:07:21Z</time>
      </trkpt>
      <trkpt lat="47.85114" lon="-3.53123">
        <ele>11</ele>
        <time>2019-07-15T11:07:22Z</time>
      </trkpt>
      <trkpt lat="47.8511" lon="-3.53121">
        <ele>11</ele>
        <time>2019-07-15T11:07:23Z</time>
      </trkpt>
      <trkpt lat="47.85106" lon="-3.53118">
        <ele>11</ele>
        <time>2019-07-15T11:07:24Z</time>
      </trkpt>
      <trkpt lat="47.85102" lon="-3.53114">
        <ele>11</ele>
        <time>2019-07-15T11:07:25Z</time>
      </trkpt>
      <trkpt lat="47.85098" lon="-3.53112">
        <ele>11</ele>
        <time>2019-07-15T11:07:26Z</time>
      </trkpt>
      <trkpt lat="47.85094" lon="-3.53109">
        <ele>11</ele>
        <time>2019-07-15T11:07:27Z</time>
      </trkpt>
      <trkpt lat="47.85089" lon="-3.53107">
        <ele>11</ele>
        <time>2019-07-15T11:07:28Z</time>
      </trkpt>
      <trkpt lat="47.85085" lon="-3.53105">
        <ele>11</ele>
        <time>2019-07-15T11:07:29Z</time>
      </trkpt>
      <trkpt lat="47.8508" lon="-3.53104">
        <ele>11</ele>
        <time>2019-07-15T11:07:30Z</time>
      </trkpt>
      <trkpt lat="47.85076" lon="-3.53104">
        <ele>11</ele>
        <time>2019-07-15T11:07:31Z</time>
      </trkpt>
      <trkpt lat="47.85071" lon="-3.53104">
        <ele>11</ele>
        <time>2019-07-15T11:07:32Z</time>
      </trkpt>
      <trkpt lat="47.85067" lon="-3.53103">
        <ele>11</ele>
        <time>2019-07-15T11:07:33Z</time>
      </trkpt>
      <trkpt lat="47.85062" lon="-3.53103">
        <ele>11</ele>
        <time>2019-07-15T11:07:34Z</time>
      </trkpt>
      <trkpt lat="47.85058" lon="-3.53102">
        <ele>11</ele>
        <time>2019-07-15T11:07:35Z</time>
      </trkpt>
      <trkpt lat="47.85053" lon="-3.53102">
        <ele>11</ele>
        <time>2019-07-15T11:07:36Z</time>
      </trkpt>
      <trkpt lat="47.85049" lon="-3.53105">
        <ele>11</ele>
        <time>2019-07-15T11:07:37Z</time>
      </trkpt>
      <trkpt lat="47.85047" lon="-3.53109">
        <ele>11</ele>
        <time>2019-07-15T11:07:38Z</time>
      </trkpt>
      <trkpt lat="47.85045" lon="-3.53113">
        <ele>10</ele>
        <time>2019-07-15T11:07:39Z</time>
      </trkpt>
      <trkpt lat="47.85043" lon="-3.53117">
        <ele>10</ele>
        <time>2019-07-15T11:07:40Z</time>
      </trkpt>
      <trkpt lat="47.8504" lon="-3.5312">
        <ele>10</ele>
        <time>2019-07-15T11:07:41Z</time>
      </trkpt>
      <trkpt lat="47.85038" lon="-3.53122">
        <ele>10</ele>
        <time>2019-07-15T11:07:42Z</time>
      </trkpt>
      <trkpt lat="47.85036" lon="-3.53123">
        <ele>10</ele>
        <time>2019-07-15T11:07:43Z</time>
      </trkpt>
      <trkpt lat="47.85033" lon="-3.53123">
        <ele>10</ele>
        <time>2019-07-15T11:07:44Z</time>
      </trkpt>
      <trkpt lat="47.8503" lon="-3.53122">
        <ele>10</ele>
        <time>2019-07-15T11:07:45Z</time>
      </trkpt>
      <trkpt lat="47.85025" lon="-3.53122">
        <ele>10</ele>
        <time>2019-07-15T11:07:46Z</time>
      </trkpt>
      <trkpt lat="47.8502" lon="-3.53123">
        <ele>10</ele>
        <time>2019-07-15T11:07:47Z</time>
      </trkpt>
      <trkpt lat="47.85015" lon="-3.53124">
        <ele>10</ele>
        <time>2019-07-15T11:07:48Z</time>
      </trkpt>
      <trkpt lat="47.85011" lon="-3.53124">
        <ele>10</ele>
        <time>2019-07-15T11:07:49Z</time>
      </trkpt>
      <trkpt lat="47.85007" lon="-3.53122">
        <ele>10</ele>
        <time>2019-07-15T11:07:50Z</time>
      </trkpt>
      <trkpt lat="47.85004" lon="-3.53119">
        <ele>10</ele>
        <time>2019-07-15T11:07:51Z</time>
      </trkpt>
      <trkpt lat="47.85" lon="-3.53116">
        <ele>10</ele>
        <time>2019-07-15T11:07:52Z</time>
      </trkpt>
      <trkpt lat="47.84996" lon="-3.53113">
        <ele>10</ele>
        <time>2019-07-15T11:07:53Z</time>
      </trkpt>
      <trkpt lat="47.84991" lon="-3.53109">
        <ele>10</ele>
        <time>2019-07-15T11:07:54Z</time>
      </trkpt>
      <trkpt lat="47.84987" lon="-3.53106">
        <ele>10</ele>
        <time>2019-07-15T11:07:55Z</time>
      </trkpt>
      <trkpt lat="47.84982" lon="-3.53103">
        <ele>10</ele>
        <time>2019-07-15T11:07:56Z</time>
      </trkpt>
      <trkpt lat="47.84977" lon="-3.531">
        <ele>10</ele>
        <time>2019-07-15T11:07:57Z</time>
      </trkpt>
      <trkpt lat="47.84973" lon="-3.53098">
        <ele>10</ele>
        <time>2019-07-15T11:07:58Z</time>
      </trkpt>
      <trkpt lat="47.84968" lon="-3.53095">
        <ele>10</ele>
        <time>2019-07-15T11:07:59Z</time>
      </trkpt>
      <trkpt lat="47.84964" lon="-3.53093">
        <ele>10</ele>
        <time>2019-07-15T11:08:00Z</time>
      </trkpt>
      <trkpt lat="47.84959" lon="-3.53091">
        <ele>10</ele>
        <time>2019-07-15T11:08:01Z</time>
      </trkpt>
      <trkpt lat="47.84954" lon="-3.53091">
        <ele>10</ele>
        <time>2019-07-15T11:08:02Z</time>
      </trkpt>
      <trkpt lat="47.84949" lon="-3.5309">
        <ele>10</ele>
        <time>2019-07-15T11:08:03Z</time>
      </trkpt>
      <trkpt lat="47.84945" lon="-3.53089">
        <ele>10</ele>
        <time>2019-07-15T11:08:04Z</time>
      </trkpt>
      <trkpt lat="47.8494" lon="-3.53088">
        <ele>10</ele>
        <time>2019-07-15T11:08:05Z</time>
      </trkpt>
      <trkpt lat="47.84935" lon="-3.53086">
        <ele>10</ele>
        <time>2019-07-15T11:08:06Z</time>
      </trkpt>
      <trkpt lat="47.84931" lon="-3.53086">
        <ele>10</ele>
        <time>2019-07-15T11:08:07Z</time>
      </trkpt>
      <trkpt lat="47.84927" lon="-3.53085">
        <ele>10</ele>
        <time>2019-07-15T11:08:08Z</time>
      </trkpt>
      <trkpt lat="47.84923" lon="-3.53084">
        <ele>10</ele>
        <time>2019-07-15T11:08:09Z</time>
      </trkpt>
      <trkpt lat="47.84919" lon="-3.53083">
        <ele>10</ele>
        <time>2019-07-15T11:08:10Z</time>
      </trkpt>
      <trkpt lat="47.84915" lon="-3.53082">
        <ele>10</ele>
        <time>2019-07-15T11:08:11Z</time>
      </trkpt>
      <trkpt lat="47.84911" lon="-3.53081">
        <ele>10</ele>
        <time>2019-07-15T11:08:12Z</time>
      </trkpt>
      <trkpt lat="47.84905" lon="-3.5308">
        <ele>9</ele>
        <time>2019-07-15T11:08:13Z</time>
      </trkpt>
      <trkpt lat="47.849" lon="-3.5308">
        <ele>9</ele>
        <time>2019-07-15T11:08:14Z</time>
      </trkpt>
      <trkpt lat="47.84895" lon="-3.53079">
        <ele>9</ele>
        <time>2019-07-15T11:08:15Z</time>
      </trkpt>
      <trkpt lat="47.84889" lon="-3.53077">
        <ele>9</ele>
        <time>2019-07-15T11:08:16Z</time>
      </trkpt>
      <trkpt lat="47.84883" lon="-3.53076">
        <ele>9</ele>
        <time>2019-07-15T11:08:17Z</time>
      </trkpt>
      <trkpt lat="47.84878" lon="-3.53076">
        <ele>9</ele>
        <time>2019-07-15T11:08:18Z</time>
      </trkpt>
      <trkpt lat="47.84872" lon="-3.53075">
        <ele>8</ele>
        <time>2019-07-15T11:08:19Z</time>
      </trkpt>
      <trkpt lat="47.84866" lon="-3.53074">
        <ele>8</ele>
        <time>2019-07-15T11:08:20Z</time>
      </trkpt>
      <trkpt lat="47.84862" lon="-3.53074">
        <ele>8</ele>
        <time>2019-07-15T11:08:21Z</time>
      </trkpt>
      <trkpt lat="47.84857" lon="-3.53074">
        <ele>8</ele>
        <time>2019-07-15T11:08:22Z</time>
      </trkpt>
      <trkpt lat="47.84852" lon="-3.53074">
        <ele>8</ele>
        <time>2019-07-15T11:08:23Z</time>
      </trkpt>
      <trkpt lat="47.84847" lon="-3.53073">
        <ele>8</ele>
        <time>2019-07-15T11:08:24Z</time>
      </trkpt>
      <trkpt lat="47.84843" lon="-3.53073">
        <ele>7</ele>
        <time>2019-07-15T11:08:25Z</time>
      </trkpt>
      <trkpt lat="47.84838" lon="-3.53073">
        <ele>7</ele>
        <time>2019-07-15T11:08:26Z</time>
      </trkpt>
      <trkpt lat="47.84833" lon="-3.53073">
        <ele>7</ele>
        <time>2019-07-15T11:08:27Z</time>
      </trkpt>
      <trkpt lat="47.84829" lon="-3.53072">
        <ele>7</ele>
        <time>2019-07-15T11:08:28Z</time>
      </trkpt>
      <trkpt lat="47.84825" lon="-3.53072">
        <ele>7</ele>
        <time>2019-07-15T11:08:29Z</time>
      </trkpt>
      <trkpt lat="47.8482" lon="-3.53072">
        <ele>7</ele>
        <time>2019-07-15T11:08:30Z</time>
      </trkpt>
      <trkpt lat="47.84816" lon="-3.53073">
        <ele>7</ele>
        <time>2019-07-15T11:08:31Z</time>
      </trkpt>
      <trkpt lat="47.84811" lon="-3.53073">
        <ele>7</ele>
        <time>2019-07-15T11:08:32Z</time>
      </trkpt>
      <trkpt lat="47.84806" lon="-3.53074">
        <ele>7</ele>
        <time>2019-07-15T11:08:33Z</time>
      </trkpt>
      <trkpt lat="47.84801" lon="-3.53075">
        <ele>6</ele>
        <time>2019-07-15T11:08:34Z</time>
      </trkpt>
      <trkpt lat="47.84796" lon="-3.53076">
        <ele>6</ele>
        <time>2019-07-15T11:08:35Z</time>
      </trkpt>
      <trkpt lat="47.84792" lon="-3.53077">
        <ele>6</ele>
        <time>2019-07-15T11:08:36Z</time>
      </trkpt>
      <trkpt lat="47.84787" lon="-3.53078">
        <ele>6</ele>
        <time>2019-07-15T11:08:37Z</time>
      </trkpt>
      <trkpt lat="47.84783" lon="-3.53078">
        <ele>6</ele>
        <time>2019-07-15T11:08:38Z</time>
      </trkpt>
      <trkpt lat="47.84778" lon="-3.53079">
        <ele>6</ele>
        <time>2019-07-15T11:08:39Z</time>
      </trkpt>
      <trkpt lat="47.84774" lon="-3.53079">
        <ele>6</ele>
        <time>2019-07-15T11:08:40Z</time>
      </trkpt>
      <trkpt lat="47.84769" lon="-3.5308">
        <ele>6</ele>
        <time>2019-07-15T11:08:41Z</time>
      </trkpt>
      <trkpt lat="47.84765" lon="-3.53081">
        <ele>6</ele>
        <time>2019-07-15T11:08:42Z</time>
      </trkpt>
      <trkpt lat="47.84761" lon="-3.53082">
        <ele>6</ele>
        <time>2019-07-15T11:08:43Z</time>
      </trkpt>
      <trkpt lat="47.84757" lon="-3.53083">
        <ele>6</ele>
        <time>2019-07-15T11:08:44Z</time>
      </trkpt>
      <trkpt lat="47.84753" lon="-3.53083">
        <ele>6</ele>
        <time>2019-07-15T11:08:45Z</time>
      </trkpt>
      <trkpt lat="47.8475" lon="-3.53083">
        <ele>6</ele>
        <time>2019-07-15T11:08:46Z</time>
      </trkpt>
      <trkpt lat="47.84746" lon="-3.53082">
        <ele>6</ele>
        <time>2019-07-15T11:08:47Z</time>
      </trkpt>
      <trkpt lat="47.84743" lon="-3.53079">
        <ele>6</ele>
        <time>2019-07-15T11:08:48Z</time>
      </trkpt>
      <trkpt lat="47.84739" lon="-3.53076">
        <ele>6</ele>
        <time>2019-07-15T11:08:49Z</time>
      </trkpt>
      <trkpt lat="47.84736" lon="-3.53072">
        <ele>6</ele>
        <time>2019-07-15T11:08:50Z</time>
      </trkpt>
      <trkpt lat="47.84733" lon="-3.53067">
        <ele>6</ele>
        <time>2019-07-15T11:08:51Z</time>
      </trkpt>
      <trkpt lat="47.8473" lon="-3.53062">
        <ele>6</ele>
        <time>2019-07-15T11:08:52Z</time>
      </trkpt>
      <trkpt lat="47.84727" lon="-3.53057">
        <ele>6</ele>
        <time>2019-07-15T11:08:53Z</time>
      </trkpt>
      <trkpt lat="47.84724" lon="-3.53053">
        <ele>6</ele>
        <time>2019-07-15T11:08:54Z</time>
      </trkpt>
      <trkpt lat="47.84721" lon="-3.53048">
        <ele>7</ele>
        <time>2019-07-15T11:08:55Z</time>
      </trkpt>
      <trkpt lat="47.84718" lon="-3.53042">
        <ele>7</ele>
        <time>2019-07-15T11:08:56Z</time>
      </trkpt>
      <trkpt lat="47.84716" lon="-3.53036">
        <ele>7</ele>
        <time>2019-07-15T11:08:57Z</time>
      </trkpt>
      <trkpt lat="47.84714" lon="-3.5303">
        <ele>7</ele>
        <time>2019-07-15T11:08:58Z</time>
      </trkpt>
      <trkpt lat="47.84712" lon="-3.53023">
        <ele>8</ele>
        <time>2019-07-15T11:08:59Z</time>
      </trkpt>
      <trkpt lat="47.84711" lon="-3.53017">
        <ele>8</ele>
        <time>2019-07-15T11:09:00Z</time>
      </trkpt>
      <trkpt lat="47.84709" lon="-3.5301">
        <ele>9</ele>
        <time>2019-07-15T11:09:01Z</time>
      </trkpt>
      <trkpt lat="47.84708" lon="-3.53003">
        <ele>9</ele>
        <time>2019-07-15T11:09:02Z</time>
      </trkpt>
      <trkpt lat="47.84706" lon="-3.52996">
        <ele>9</ele>
        <time>2019-07-15T11:09:03Z</time>
      </trkpt>
      <trkpt lat="47.84704" lon="-3.5299">
        <ele>9</ele>
        <time>2019-07-15T11:09:04Z</time>
      </trkpt>
      <trkpt lat="47.84703" lon="-3.52984">
        <ele>9</ele>
        <time>2019-07-15T11:09:05Z</time>
      </trkpt>
      <trkpt lat="47.84702" lon="-3.52977">
        <ele>10</ele>
        <time>2019-07-15T11:09:06Z</time>
      </trkpt>
      <trkpt lat="47.84701" lon="-3.52971">
        <ele>10</ele>
        <time>2019-07-15T11:09:07Z</time>
      </trkpt>
      <trkpt lat="47.847" lon="-3.52965">
        <ele>10</ele>
        <time>2019-07-15T11:09:08Z</time>
      </trkpt>
      <trkpt lat="47.84699" lon="-3.52959">
        <ele>10</ele>
        <time>2019-07-15T11:09:09Z</time>
      </trkpt>
      <trkpt lat="47.84697" lon="-3.52954">
        <ele>10</ele>
        <time>2019-07-15T11:09:10Z</time>
      </trkpt>
      <trkpt lat="47.84695" lon="-3.52948">
        <ele>10</ele>
        <time>2019-07-15T11:09:11Z</time>
      </trkpt>
      <trkpt lat="47.84693" lon="-3.52942">
        <ele>11</ele>
        <time>2019-07-15T11:09:12Z</time>
      </trkpt>
      <trkpt lat="47.8469" lon="-3.52938">
        <ele>11</ele>
        <time>2019-07-15T11:09:13Z</time>
      </trkpt>
      <trkpt lat="47.84687" lon="-3.52934">
        <ele>11</ele>
        <time>2019-07-15T11:09:14Z</time>
      </trkpt>
      <trkpt lat="47.84682" lon="-3.52931">
        <ele>11</ele>
        <time>2019-07-15T11:09:15Z</time>
      </trkpt>
      <trkpt lat="47.84678" lon="-3.52927">
        <ele>11</ele>
        <time>2019-07-15T11:09:16Z</time>
      </trkpt>
      <trkpt lat="47.84673" lon="-3.52924">
        <ele>10</ele>
        <time>2019-07-15T11:09:17Z</time>
      </trkpt>
      <trkpt lat="47.84668" lon="-3.52921">
        <ele>10</ele>
        <time>2019-07-15T11:09:18Z</time>
      </trkpt>
      <trkpt lat="47.84663" lon="-3.52917">
        <ele>10</ele>
        <time>2019-07-15T11:09:19Z</time>
      </trkpt>
      <trkpt lat="47.84658" lon="-3.52913">
        <ele>10</ele>
        <time>2019-07-15T11:09:20Z</time>
      </trkpt>
      <trkpt lat="47.84654" lon="-3.52909">
        <ele>10</ele>
        <time>2019-07-15T11:09:21Z</time>
      </trkpt>
      <trkpt lat="47.8465" lon="-3.52905">
        <ele>10</ele>
        <time>2019-07-15T11:09:22Z</time>
      </trkpt>
      <trkpt lat="47.84646" lon="-3.52902">
        <ele>10</ele>
        <time>2019-07-15T11:09:23Z</time>
      </trkpt>
      <trkpt lat="47.84641" lon="-3.529">
        <ele>9</ele>
        <time>2019-07-15T11:09:24Z</time>
      </trkpt>
      <trkpt lat="47.84637" lon="-3.52898">
        <ele>9</ele>
        <time>2019-07-15T11:09:25Z</time>
      </trkpt>
      <trkpt lat="47.84632" lon="-3.52896">
        <ele>9</ele>
        <time>2019-07-15T11:09:26Z</time>
      </trkpt>
      <trkpt lat="47.84627" lon="-3.52897">
        <ele>9</ele>
        <time>2019-07-15T11:09:27Z</time>
      </trkpt>
      <trkpt lat="47.84622" lon="-3.52898">
        <ele>9</ele>
        <time>2019-07-15T11:09:28Z</time>
      </trkpt>
      <trkpt lat="47.84616" lon="-3.52899">
        <ele>8</ele>
        <time>2019-07-15T11:09:29Z</time>
      </trkpt>
      <trkpt lat="47.8461" lon="-3.529">
        <ele>8</ele>
        <time>2019-07-15T11:09:30Z</time>
      </trkpt>
      <trkpt lat="47.84605" lon="-3.52901">
        <ele>8</ele>
        <time>2019-07-15T11:09:31Z</time>
      </trkpt>
      <trkpt lat="47.84599" lon="-3.52902">
        <ele>8</ele>
        <time>2019-07-15T11:09:32Z</time>
      </trkpt>
      <trkpt lat="47.84593" lon="-3.52904">
        <ele>8</ele>
        <time>2019-07-15T11:09:33Z</time>
      </trkpt>
      <trkpt lat="47.84588" lon="-3.52906">
        <ele>8</ele>
        <time>2019-07-15T11:09:34Z</time>
      </trkpt>
      <trkpt lat="47.84583" lon="-3.52908">
        <ele>8</ele>
        <time>2019-07-15T11:09:35Z</time>
      </trkpt>
      <trkpt lat="47.84579" lon="-3.52911">
        <ele>8</ele>
        <time>2019-07-15T11:09:36Z</time>
      </trkpt>
      <trkpt lat="47.84574" lon="-3.52912">
        <ele>7</ele>
        <time>2019-07-15T11:09:37Z</time>
      </trkpt>
      <trkpt lat="47.8457" lon="-3.52914">
        <ele>7</ele>
        <time>2019-07-15T11:09:38Z</time>
      </trkpt>
      <trkpt lat="47.84566" lon="-3.52915">
        <ele>8</ele>
        <time>2019-07-15T11:09:39Z</time>
      </trkpt>
      <trkpt lat="47.84561" lon="-3.52916">
        <ele>8</ele>
        <time>2019-07-15T11:09:40Z</time>
      </trkpt>
      <trkpt lat="47.84557" lon="-3.52916">
        <ele>8</ele>
        <time>2019-07-15T11:09:41Z</time>
      </trkpt>
      <trkpt lat="47.84552" lon="-3.52916">
        <ele>8</ele>
        <time>2019-07-15T11:09:42Z</time>
      </trkpt>
      <trkpt lat="47.84548" lon="-3.52916">
        <ele>8</ele>
        <time>2019-07-15T11:09:43Z</time>
      </trkpt>
      <trkpt lat="47.84543" lon="-3.52917">
        <ele>8</ele>
        <time>2019-07-15T11:09:44Z</time>
      </trkpt>
      <trkpt lat="47.84539" lon="-3.52917">
        <ele>8</ele>
        <time>2019-07-15T11:09:45Z</time>
      </trkpt>
      <trkpt lat="47.84535" lon="-3.52916">
        <ele>8</ele>
        <time>2019-07-15T11:09:46Z</time>
      </trkpt>
      <trkpt lat="47.84531" lon="-3.52915">
        <ele>8</ele>
        <time>2019-07-15T11:09:47Z</time>
      </trkpt>
      <trkpt lat="47.84526" lon="-3.52915">
        <ele>8</ele>
        <time>2019-07-15T11:09:48Z</time>
      </trkpt>
      <trkpt lat="47.84522" lon="-3.52915">
        <ele>8</ele>
        <time>2019-07-15T11:09:49Z</time>
      </trkpt>
      <trkpt lat="47.84518" lon="-3.52914">
        <ele>8</ele>
        <time>2019-07-15T11:09:50Z</time>
      </trkpt>
      <trkpt lat="47.84514" lon="-3.52914">
        <ele>9</ele>
        <time>2019-07-15T11:09:51Z</time>
      </trkpt>
      <trkpt lat="47.84509" lon="-3.52913">
        <ele>9</ele>
        <time>2019-07-15T11:09:52Z</time>
      </trkpt>
      <trkpt lat="47.84505" lon="-3.52913">
        <ele>9</ele>
        <time>2019-07-15T11:09:53Z</time>
      </trkpt>
      <trkpt lat="47.84501" lon="-3.52913">
        <ele>9</ele>
        <time>2019-07-15T11:09:54Z</time>
      </trkpt>
      <trkpt lat="47.84497" lon="-3.52912">
        <ele>9</ele>
        <time>2019-07-15T11:09:55Z</time>
      </trkpt>
      <trkpt lat="47.84493" lon="-3.52912">
        <ele>9</ele>
        <time>2019-07-15T11:09:56Z</time>
      </trkpt>
      <trkpt lat="47.8449" lon="-3.52909">
        <ele>9</ele>
        <time>2019-07-15T11:09:57Z</time>
      </trkpt>
      <trkpt lat="47.84487" lon="-3.52906">
        <ele>9</ele>
        <time>2019-07-15T11:09:58Z</time>
      </trkpt>
      <trkpt lat="47.84484" lon="-3.52903">
        <ele>9</ele>
        <time>2019-07-15T11:09:59Z</time>
      </trkpt>
      <trkpt lat="47.84482" lon="-3.52899">
        <ele>9</ele>
        <time>2019-07-15T11:10:00Z</time>
      </trkpt>
      <trkpt lat="47.84479" lon="-3.52897">
        <ele>9</ele>
        <time>2019-07-15T11:10:01Z</time>
      </trkpt>
      <trkpt lat="47.84476" lon="-3.52893">
        <ele>10</ele>
        <time>2019-07-15T11:10:02Z</time>
      </trkpt>
      <trkpt lat="47.84473" lon="-3.52891">
        <ele>10</ele>
        <time>2019-07-15T11:10:03Z</time>
      </trkpt>
      <trkpt lat="47.84469" lon="-3.52887">
        <ele>10</ele>
        <time>2019-07-15T11:10:04Z</time>
      </trkpt>
      <trkpt lat="47.84466" lon="-3.52884">
        <ele>10</ele>
        <time>2019-07-15T11:10:05Z</time>
      </trkpt>
      <trkpt lat="47.84462" lon="-3.52882">
        <ele>10</ele>
        <time>2019-07-15T11:10:06Z</time>
      </trkpt>
      <trkpt lat="47.84459" lon="-3.52879">
        <ele>10</ele>
        <time>2019-07-15T11:10:07Z</time>
      </trkpt>
      <trkpt lat="47.84455" lon="-3.52876">
        <ele>11</ele>
        <time>2019-07-15T11:10:08Z</time>
      </trkpt>
      <trkpt lat="47.84452" lon="-3.52874">
        <ele>11</ele>
        <time>2019-07-15T11:10:09Z</time>
      </trkpt>
      <trkpt lat="47.84449" lon="-3.52871">
        <ele>11</ele>
        <time>2019-07-15T11:10:10Z</time>
      </trkpt>
      <trkpt lat="47.84446" lon="-3.52868">
        <ele>11</ele>
        <time>2019-07-15T11:10:11Z</time>
      </trkpt>
      <trkpt lat="47.84443" lon="-3.52865">
        <ele>11</ele>
        <time>2019-07-15T11:10:12Z</time>
      </trkpt>
      <trkpt lat="47.84439" lon="-3.52861">
        <ele>12</ele>
        <time>2019-07-15T11:10:13Z</time>
      </trkpt>
      <trkpt lat="47.84436" lon="-3.52857">
        <ele>12</ele>
        <time>2019-07-15T11:10:14Z</time>
      </trkpt>
      <trkpt lat="47.84433" lon="-3.52853">
        <ele>12</ele>
        <time>2019-07-15T11:10:15Z</time>
      </trkpt>
      <trkpt lat="47.84429" lon="-3.5285">
        <ele>12</ele>
        <time>2019-07-15T11:10:16Z</time>
      </trkpt>
      <trkpt lat="47.84426" lon="-3.52847">
        <ele>12</ele>
        <time>2019-07-15T11:10:17Z</time>
      </trkpt>
      <trkpt lat="47.84421" lon="-3.52846">
        <ele>12</ele>
        <time>2019-07-15T11:10:18Z</time>
      </trkpt>
      <trkpt lat="47.84416" lon="-3.52846">
        <ele>12</ele>
        <time>2019-07-15T11:10:19Z</time>
      </trkpt>
      <trkpt lat="47.84411" lon="-3.52848">
        <ele>12</ele>
        <time>2019-07-15T11:10:20Z</time>
      </trkpt>
      <trkpt lat="47.84407" lon="-3.5285">
        <ele>12</ele>
        <time>2019-07-15T11:10:21Z</time>
      </trkpt>
      <trkpt lat="47.84403" lon="-3.52853">
        <ele>12</ele>
        <time>2019-07-15T11:10:22Z</time>
      </trkpt>
      <trkpt lat="47.84398" lon="-3.52857">
        <ele>12</ele>
        <time>2019-07-15T11:10:23Z</time>
      </trkpt>
      <trkpt lat="47.84394" lon="-3.5286">
        <ele>12</ele>
        <time>2019-07-15T11:10:24Z</time>
      </trkpt>
      <trkpt lat="47.84389" lon="-3.52864">
        <ele>12</ele>
        <time>2019-07-15T11:10:25Z</time>
      </trkpt>
      <trkpt lat="47.84384" lon="-3.52869">
        <ele>12</ele>
        <time>2019-07-15T11:10:26Z</time>
      </trkpt>
      <trkpt lat="47.8438" lon="-3.52874">
        <ele>12</ele>
        <time>2019-07-15T11:10:27Z</time>
      </trkpt>
      <trkpt lat="47.84375" lon="-3.52878">
        <ele>12</ele>
        <time>2019-07-15T11:10:28Z</time>
      </trkpt>
      <trkpt lat="47.84371" lon="-3.52883">
        <ele>12</ele>
        <time>2019-07-15T11:10:29Z</time>
      </trkpt>
      <trkpt lat="47.84367" lon="-3.52889">
        <ele>11</ele>
        <time>2019-07-15T11:10:30Z</time>
      </trkpt>
      <trkpt lat="47.84362" lon="-3.52895">
        <ele>11</ele>
        <time>2019-07-15T11:10:31Z</time>
      </trkpt>
      <trkpt lat="47.84357" lon="-3.52902">
        <ele>11</ele>
        <time>2019-07-15T11:10:32Z</time>
      </trkpt>
      <trkpt lat="47.84353" lon="-3.52909">
        <ele>10</ele>
        <time>2019-07-15T11:10:33Z</time>
      </trkpt>
      <trkpt lat="47.84349" lon="-3.52918">
        <ele>10</ele>
        <time>2019-07-15T11:10:34Z</time>
      </trkpt>
      <trkpt lat="47.84345" lon="-3.52927">
        <ele>10</ele>
        <time>2019-07-15T11:10:35Z</time>
      </trkpt>
      <trkpt lat="47.84343" lon="-3.52935">
        <ele>10</ele>
        <time>2019-07-15T11:10:36Z</time>
      </trkpt>
      <trkpt lat="47.8434" lon="-3.52945">
        <ele>9</ele>
        <time>2019-07-15T11:10:37Z</time>
      </trkpt>
      <trkpt lat="47.84338" lon="-3.52954">
        <ele>9</ele>
        <time>2019-07-15T11:10:38Z</time>
      </trkpt>
      <trkpt lat="47.84337" lon="-3.52963">
        <ele>9</ele>
        <time>2019-07-15T11:10:39Z</time>
      </trkpt>
      <trkpt lat="47.84336" lon="-3.52971">
        <ele>9</ele>
        <time>2019-07-15T11:10:40Z</time>
      </trkpt>
      <trkpt lat="47.84336" lon="-3.52978">
        <ele>9</ele>
        <time>2019-07-15T11:10:41Z</time>
      </trkpt>
      <trkpt lat="47.84337" lon="-3.52983">
        <ele>9</ele>
        <time>2019-07-15T11:10:42Z</time>
      </trkpt>
      <trkpt lat="47.84339" lon="-3.52989">
        <ele>9</ele>
        <time>2019-07-15T11:10:43Z</time>
      </trkpt>
      <trkpt lat="47.8434" lon="-3.52993">
        <ele>9</ele>
        <time>2019-07-15T11:10:44Z</time>
      </trkpt>
      <trkpt lat="47.84343" lon="-3.52997">
        <ele>9</ele>
        <time>2019-07-15T11:10:45Z</time>
      </trkpt>
      <trkpt lat="47.84346" lon="-3.53002">
        <ele>9</ele>
        <time>2019-07-15T11:10:46Z</time>
      </trkpt>
      <trkpt lat="47.84348" lon="-3.53005">
        <ele>8</ele>
        <time>2019-07-15T11:10:47Z</time>
      </trkpt>
      <trkpt lat="47.84352" lon="-3.53008">
        <ele>8</ele>
        <time>2019-07-15T11:10:48Z</time>
      </trkpt>
      <trkpt lat="47.84354" lon="-3.53011">
        <ele>8</ele>
        <time>2019-07-15T11:10:49Z</time>
      </trkpt>
      <trkpt lat="47.84356" lon="-3.53014">
        <ele>7</ele>
        <time>2019-07-15T11:10:50Z</time>
      </trkpt>
      <trkpt lat="47.84357" lon="-3.53017">
        <ele>7</ele>
        <time>2019-07-15T11:10:51Z</time>
      </trkpt>
      <trkpt lat="47.84358" lon="-3.5302">
        <ele>7</ele>
        <time>2019-07-15T11:10:52Z</time>
      </trkpt>
      <trkpt lat="47.8436" lon="-3.53023">
        <ele>7</ele>
        <time>2019-07-15T11:10:53Z</time>
      </trkpt>
      <trkpt lat="47.84362" lon="-3.53026">
        <ele>6</ele>
        <time>2019-07-15T11:10:54Z</time>
      </trkpt>
      <trkpt lat="47.84364" lon="-3.5303">
        <ele>6</ele>
        <time>2019-07-15T11:10:55Z</time>
      </trkpt>
      <trkpt lat="47.84367" lon="-3.53033">
        <ele>6</ele>
        <time>2019-07-15T11:10:56Z</time>
      </trkpt>
      <trkpt lat="47.8437" lon="-3.53037">
        <ele>6</ele>
        <time>2019-07-15T11:10:57Z</time>
      </trkpt>
      <trkpt lat="47.84371" lon="-3.53042">
        <ele>6</ele>
        <time>2019-07-15T11:10:58Z</time>
      </trkpt>
      <trkpt lat="47.84374" lon="-3.53046">
        <ele>5</ele>
        <time>2019-07-15T11:10:59Z</time>
      </trkpt>
      <trkpt lat="47.84377" lon="-3.5305">
        <ele>5</ele>
        <time>2019-07-15T11:11:00Z</time>
      </trkpt>
      <trkpt lat="47.8438" lon="-3.53056">
        <ele>5</ele>
        <time>2019-07-15T11:11:01Z</time>
      </trkpt>
      <trkpt lat="47.84384" lon="-3.53061">
        <ele>5</ele>
        <time>2019-07-15T11:11:02Z</time>
      </trkpt>
      <trkpt lat="47.84387" lon="-3.53067">
        <ele>5</ele>
        <time>2019-07-15T11:11:03Z</time>
      </trkpt>
      <trkpt lat="47.84391" lon="-3.53073">
        <ele>5</ele>
        <time>2019-07-15T11:11:04Z</time>
      </trkpt>
      <trkpt lat="47.84395" lon="-3.53079">
        <ele>5</ele>
        <time>2019-07-15T11:11:05Z</time>
      </trkpt>
      <trkpt lat="47.84399" lon="-3.53085">
        <ele>6</ele>
        <time>2019-07-15T11:11:06Z</time>
      </trkpt>
      <trkpt lat="47.84403" lon="-3.53092">
        <ele>6</ele>
        <time>2019-07-15T11:11:07Z</time>
      </trkpt>
      <trkpt lat="47.84407" lon="-3.53097">
        <ele>6</ele>
        <time>2019-07-15T11:11:08Z</time>
      </trkpt>
      <trkpt lat="47.84411" lon="-3.53101">
        <ele>6</ele>
        <time>2019-07-15T11:11:09Z</time>
      </trkpt>
      <trkpt lat="47.84413" lon="-3.53104">
        <ele>6</ele>
        <time>2019-07-15T11:11:10Z</time>
      </trkpt>
      <trkpt lat="47.84416" lon="-3.53108">
        <ele>6</ele>
        <time>2019-07-15T11:11:11Z</time>
      </trkpt>
      <trkpt lat="47.8442" lon="-3.53113">
        <ele>6</ele>
        <time>2019-07-15T11:11:12Z</time>
      </trkpt>
      <trkpt lat="47.84423" lon="-3.53116">
        <ele>6</ele>
        <time>2019-07-15T11:11:13Z</time>
      </trkpt>
      <trkpt lat="47.84426" lon="-3.53119">
        <ele>6</ele>
        <time>2019-07-15T11:11:14Z</time>
      </trkpt>
      <trkpt lat="47.84429" lon="-3.53122">
        <ele>6</ele>
        <time>2019-07-15T11:11:15Z</time>
      </trkpt>
      <trkpt lat="47.84433" lon="-3.53126">
        <ele>6</ele>
        <time>2019-07-15T11:11:16Z</time>
      </trkpt>
      <trkpt lat="47.84436" lon="-3.5313">
        <ele>6</ele>
        <time>2019-07-15T11:11:17Z</time>
      </trkpt>
      <trkpt lat="47.84439" lon="-3.53134">
        <ele>6</ele>
        <time>2019-07-15T11:11:18Z</time>
      </trkpt>
      <trkpt lat="47.84441" lon="-3.53139">
        <ele>6</ele>
        <time>2019-07-15T11:11:19Z</time>
      </trkpt>
      <trkpt lat="47.84442" lon="-3.53145">
        <ele>7</ele>
        <time>2019-07-15T11:11:20Z</time>
      </trkpt>
      <trkpt lat="47.84442" lon="-3.53151">
        <ele>7</ele>
        <time>2019-07-15T11:11:21Z</time>
      </trkpt>
      <trkpt lat="47.84441" lon="-3.53157">
        <ele>7</ele>
        <time>2019-07-15T11:11:22Z</time>
      </trkpt>
      <trkpt lat="47.84439" lon="-3.53164">
        <ele>7</ele>
        <time>2019-07-15T11:11:23Z</time>
      </trkpt>
      <trkpt lat="47.84436" lon="-3.53171">
        <ele>7</ele>
        <time>2019-07-15T11:11:24Z</time>
      </trkpt>
      <trkpt lat="47.84433" lon="-3.53177">
        <ele>7</ele>
        <time>2019-07-15T11:11:25Z</time>
      </trkpt>
      <trkpt lat="47.8443" lon="-3.53183">
        <ele>8</ele>
        <time>2019-07-15T11:11:26Z</time>
      </trkpt>
      <trkpt lat="47.84428" lon="-3.5319">
        <ele>8</ele>
        <time>2019-07-15T11:11:27Z</time>
      </trkpt>
      <trkpt lat="47.84425" lon="-3.53197">
        <ele>8</ele>
        <time>2019-07-15T11:11:28Z</time>
      </trkpt>
      <trkpt lat="47.84422" lon="-3.53202">
        <ele>8</ele>
        <time>2019-07-15T11:11:29Z</time>
      </trkpt>
      <trkpt lat="47.84419" lon="-3.53206">
        <ele>8</ele>
        <time>2019-07-15T11:11:30Z</time>
      </trkpt>
      <trkpt lat="47.84416" lon="-3.53211">
        <ele>8</ele>
        <time>2019-07-15T11:11:31Z</time>
      </trkpt>
      <trkpt lat="47.84412" lon="-3.53216">
        <ele>8</ele>
        <time>2019-07-15T11:11:32Z</time>
      </trkpt>
      <trkpt lat="47.84407" lon="-3.5322">
        <ele>8</ele>
        <time>2019-07-15T11:11:33Z</time>
      </trkpt>
      <trkpt lat="47.84402" lon="-3.53224">
        <ele>8</ele>
        <time>2019-07-15T11:11:34Z</time>
      </trkpt>
      <trkpt lat="47.84397" lon="-3.53227">
        <ele>9</ele>
        <time>2019-07-15T11:11:35Z</time>
      </trkpt>
      <trkpt lat="47.84393" lon="-3.5323">
        <ele>9</ele>
        <time>2019-07-15T11:11:36Z</time>
      </trkpt>
      <trkpt lat="47.84389" lon="-3.53233">
        <ele>9</ele>
        <time>2019-07-15T11:11:37Z</time>
      </trkpt>
      <trkpt lat="47.84385" lon="-3.53236">
        <ele>9</ele>
        <time>2019-07-15T11:11:38Z</time>
      </trkpt>
      <trkpt lat="47.84381" lon="-3.53237">
        <ele>9</ele>
        <time>2019-07-15T11:11:39Z</time>
      </trkpt>
      <trkpt lat="47.84377" lon="-3.5324">
        <ele>9</ele>
        <time>2019-07-15T11:11:40Z</time>
      </trkpt>
      <trkpt lat="47.84373" lon="-3.53242">
        <ele>9</ele>
        <time>2019-07-15T11:11:41Z</time>
      </trkpt>
      <trkpt lat="47.84369" lon="-3.53243">
        <ele>9</ele>
        <time>2019-07-15T11:11:42Z</time>
      </trkpt>
      <trkpt lat="47.84364" lon="-3.53243">
        <ele>9</ele>
        <time>2019-07-15T11:11:43Z</time>
      </trkpt>
      <trkpt lat="47.8436" lon="-3.53244">
        <ele>9</ele>
        <time>2019-07-15T11:11:44Z</time>
      </trkpt>
      <trkpt lat="47.84356" lon="-3.53246">
        <ele>9</ele>
        <time>2019-07-15T11:11:45Z</time>
      </trkpt>
      <trkpt lat="47.84352" lon="-3.53247">
        <ele>10</ele>
        <time>2019-07-15T11:11:46Z</time>
      </trkpt>
      <trkpt lat="47.84348" lon="-3.53249">
        <ele>10</ele>
        <time>2019-07-15T11:11:47Z</time>
      </trkpt>
      <trkpt lat="47.84344" lon="-3.53251">
        <ele>10</ele>
        <time>2019-07-15T11:11:48Z</time>
      </trkpt>
      <trkpt lat="47.8434" lon="-3.53253">
        <ele>10</ele>
        <time>2019-07-15T11:11:49Z</time>
      </trkpt>
      <trkpt lat="47.84335" lon="-3.53255">
        <ele>10</ele>
        <time>2019-07-15T11:11:50Z</time>
      </trkpt>
      <trkpt lat="47.84331" lon="-3.53257">
        <ele>10</ele>
        <time>2019-07-15T11:11:51Z</time>
      </trkpt>
      <trkpt lat="47.84327" lon="-3.5326">
        <ele>10</ele>
        <time>2019-07-15T11:11:52Z</time>
      </trkpt>
      <trkpt lat="47.84324" lon="-3.53263">
        <ele>10</ele>
        <time>2019-07-15T11:11:53Z</time>
      </trkpt>
      <trkpt lat="47.84321" lon="-3.53266">
        <ele>10</ele>
        <time>2019-07-15T11:11:54Z</time>
      </trkpt>
      <trkpt lat="47.84318" lon="-3.53269">
        <ele>11</ele>
        <time>2019-07-15T11:11:55Z</time>
      </trkpt>
      <trkpt lat="47.84315" lon="-3.53273">
        <ele>11</ele>
        <time>2019-07-15T11:11:56Z</time>
      </trkpt>
      <trkpt lat="47.84312" lon="-3.53276">
        <ele>11</ele>
        <time>2019-07-15T11:11:57Z</time>
      </trkpt>
      <trkpt lat="47.84309" lon="-3.53279">
        <ele>11</ele>
        <time>2019-07-15T11:11:58Z</time>
      </trkpt>
      <trkpt lat="47.84306" lon="-3.53283">
        <ele>11</ele>
        <time>2019-07-15T11:11:59Z</time>
      </trkpt>
      <trkpt lat="47.84304" lon="-3.53286">
        <ele>11</ele>
        <time>2019-07-15T11:12:00Z</time>
      </trkpt>
      <trkpt lat="47.84301" lon="-3.5329">
        <ele>11</ele>
        <time>2019-07-15T11:12:01Z</time>
      </trkpt>
      <trkpt lat="47.84298" lon="-3.53293">
        <ele>12</ele>
        <time>2019-07-15T11:12:02Z</time>
      </trkpt>
      <trkpt lat="47.84295" lon="-3.53296">
        <ele>12</ele>
        <time>2019-07-15T11:12:03Z</time>
      </trkpt>
      <trkpt lat="47.84292" lon="-3.53299">
        <ele>12</ele>
        <time>2019-07-15T11:12:04Z</time>
      </trkpt>
      <trkpt lat="47.8429" lon="-3.53304">
        <ele>12</ele>
        <time>2019-07-15T11:12:05Z</time>
      </trkpt>
      <trkpt lat="47.84288" lon="-3.53308">
        <ele>12</ele>
        <time>2019-07-15T11:12:06Z</time>
      </trkpt>
      <trkpt lat="47.84286" lon="-3.53311">
        <ele>12</ele>
        <time>2019-07-15T11:12:07Z</time>
      </trkpt>
      <trkpt lat="47.84283" lon="-3.53315">
        <ele>12</ele>
        <time>2019-07-15T11:12:08Z</time>
      </trkpt>
      <trkpt lat="47.8428" lon="-3.53318">
        <ele>13</ele>
        <time>2019-07-15T11:12:09Z</time>
      </trkpt>
      <trkpt lat="47.84278" lon="-3.53322">
        <ele>13</ele>
        <time>2019-07-15T11:12:10Z</time>
      </trkpt>
      <trkpt lat="47.84275" lon="-3.53325">
        <ele>13</ele>
        <time>2019-07-15T11:12:11Z</time>
      </trkpt>
      <trkpt lat="47.84273" lon="-3.53329">
        <ele>13</ele>
        <time>2019-07-15T11:12:12Z</time>
      </trkpt>
      <trkpt lat="47.8427" lon="-3.53334">
        <ele>13</ele>
        <time>2019-07-15T11:12:13Z</time>
      </trkpt>
      <trkpt lat="47.84267" lon="-3.53337">
        <ele>13</ele>
        <time>2019-07-15T11:12:14Z</time>
      </trkpt>
      <trkpt lat="47.84265" lon="-3.53342">
        <ele>13</ele>
        <time>2019-07-15T11:12:15Z</time>
      </trkpt>
      <trkpt lat="47.84262" lon="-3.53346">
        <ele>13</ele>
        <time>2019-07-15T11:12:16Z</time>
      </trkpt>
      <trkpt lat="47.84261" lon="-3.5335">
        <ele>13</ele>
        <time>2019-07-15T11:12:17Z</time>
      </trkpt>
      <trkpt lat="47.84258" lon="-3.53355">
        <ele>14</ele>
        <time>2019-07-15T11:12:18Z</time>
      </trkpt>
      <trkpt lat="47.84255" lon="-3.53359">
        <ele>14</ele>
        <time>2019-07-15T11:12:19Z</time>
      </trkpt>
      <trkpt lat="47.84254" lon="-3.53363">
        <ele>14</ele>
        <time>2019-07-15T11:12:20Z</time>
      </trkpt>
      <trkpt lat="47.84252" lon="-3.53366">
        <ele>14</ele>
        <time>2019-07-15T11:12:21Z</time>
      </trkpt>
      <trkpt lat="47.84251" lon="-3.5337">
        <ele>14</ele>
        <time>2019-07-15T11:12:22Z</time>
      </trkpt>
      <trkpt lat="47.84249" lon="-3.53375">
        <ele>14</ele>
        <time>2019-07-15T11:12:23Z</time>
      </trkpt>
      <trkpt lat="47.84246" lon="-3.53378">
        <ele>14</ele>
        <time>2019-07-15T11:12:24Z</time>
      </trkpt>
      <trkpt lat="47.84244" lon="-3.53381">
        <ele>14</ele>
        <time>2019-07-15T11:12:25Z</time>
      </trkpt>
      <trkpt lat="47.84242" lon="-3.53384">
        <ele>14</ele>
        <time>2019-07-15T11:12:26Z</time>
      </trkpt>
      <trkpt lat="47.8424" lon="-3.53387">
        <ele>14</ele>
        <time>2019-07-15T11:12:27Z</time>
      </trkpt>
      <trkpt lat="47.84238" lon="-3.5339">
        <ele>15</ele>
        <time>2019-07-15T11:12:28Z</time>
      </trkpt>
      <trkpt lat="47.84235" lon="-3.53394">
        <ele>15</ele>
        <time>2019-07-15T11:12:29Z</time>
      </trkpt>
      <trkpt lat="47.84233" lon="-3.53397">
        <ele>15</ele>
        <time>2019-07-15T11:12:30Z</time>
      </trkpt>
      <trkpt lat="47.84231" lon="-3.534">
        <ele>15</ele>
        <time>2019-07-15T11:12:31Z</time>
      </trkpt>
      <trkpt lat="47.84228" lon="-3.53404">
        <ele>15</ele>
        <time>2019-07-15T11:12:32Z</time>
      </trkpt>
      <trkpt lat="47.84226" lon="-3.53407">
        <ele>15</ele>
        <time>2019-07-15T11:12:33Z</time>
      </trkpt>
      <trkpt lat="47.84224" lon="-3.53411">
        <ele>15</ele>
        <time>2019-07-15T11:12:34Z</time>
      </trkpt>
      <trkpt lat="47.84222" lon="-3.53414">
        <ele>15</ele>
        <time>2019-07-15T11:12:35Z</time>
      </trkpt>
      <trkpt lat="47.8422" lon="-3.53417">
        <ele>16</ele>
        <time>2019-07-15T11:12:36Z</time>
      </trkpt>
      <trkpt lat="47.84218" lon="-3.5342">
        <ele>16</ele>
        <time>2019-07-15T11:12:37Z</time>
      </trkpt>
      <trkpt lat="47.84215" lon="-3.53423">
        <ele>16</ele>
        <time>2019-07-15T11:12:38Z</time>
      </trkpt>
      <trkpt lat="47.84213" lon="-3.53426">
        <ele>16</ele>
        <time>2019-07-15T11:12:39Z</time>
      </trkpt>
      <trkpt lat="47.8421" lon="-3.53428">
        <ele>16</ele>
        <time>2019-07-15T11:12:40Z</time>
      </trkpt>
      <trkpt lat="47.84208" lon="-3.53431">
        <ele>17</ele>
        <time>2019-07-15T11:12:41Z</time>
      </trkpt>
      <trkpt lat="47.84206" lon="-3.53433">
        <ele>17</ele>
        <time>2019-07-15T11:12:42Z</time>
      </trkpt>
      <trkpt lat="47.84203" lon="-3.53436">
        <ele>17</ele>
        <time>2019-07-15T11:12:43Z</time>
      </trkpt>
      <trkpt lat="47.84201" lon="-3.53439">
        <ele>17</ele>
        <time>2019-07-15T11:12:44Z</time>
      </trkpt>
      <trkpt lat="47.84198" lon="-3.53441">
        <ele>18</ele>
        <time>2019-07-15T11:12:45Z</time>
      </trkpt>
      <trkpt lat="47.84195" lon="-3.53443">
        <ele>18</ele>
        <time>2019-07-15T11:12:46Z</time>
      </trkpt>
      <trkpt lat="47.84192" lon="-3.53445">
        <ele>18</ele>
        <time>2019-07-15T11:12:47Z</time>
      </trkpt>
      <trkpt lat="47.84189" lon="-3.53447">
        <ele>18</ele>
        <time>2019-07-15T11:12:48Z</time>
      </trkpt>
      <trkpt lat="47.84187" lon="-3.53449">
        <ele>18</ele>
        <time>2019-07-15T11:12:49Z</time>
      </trkpt>
      <trkpt lat="47.84183" lon="-3.5345">
        <ele>19</ele>
        <time>2019-07-15T11:12:50Z</time>
      </trkpt>
      <trkpt lat="47.8418" lon="-3.53452">
        <ele>19</ele>
        <time>2019-07-15T11:12:51Z</time>
      </trkpt>
      <trkpt lat="47.84176" lon="-3.53453">
        <ele>19</ele>
        <time>2019-07-15T11:12:52Z</time>
      </trkpt>
      <trkpt lat="47.84173" lon="-3.53454">
        <ele>19</ele>
        <time>2019-07-15T11:12:53Z</time>
      </trkpt>
      <trkpt lat="47.8417" lon="-3.53455">
        <ele>19</ele>
        <time>2019-07-15T11:12:54Z</time>
      </trkpt>
      <trkpt lat="47.84166" lon="-3.53456">
        <ele>19</ele>
        <time>2019-07-15T11:12:55Z</time>
      </trkpt>
      <trkpt lat="47.84163" lon="-3.53456">
        <ele>19</ele>
        <time>2019-07-15T11:12:56Z</time>
      </trkpt>
      <trkpt lat="47.8416" lon="-3.53456">
        <ele>20</ele>
        <time>2019-07-15T11:12:57Z</time>
      </trkpt>
      <trkpt lat="47.84156" lon="-3.53456">
        <ele>20</ele>
        <time>2019-07-15T11:12:58Z</time>
      </trkpt>
      <trkpt lat="47.84152" lon="-3.53455">
        <ele>20</ele>
        <time>2019-07-15T11:12:59Z</time>
      </trkpt>
      <trkpt lat="47.84149" lon="-3.53455">
        <ele>20</ele>
        <time>2019-07-15T11:13:00Z</time>
      </trkpt>
      <trkpt lat="47.84146" lon="-3.53455">
        <ele>20</ele>
        <time>2019-07-15T11:13:01Z</time>
      </trkpt>
      <trkpt lat="47.84143" lon="-3.53454">
        <ele>20</ele>
        <time>2019-07-15T11:13:02Z</time>
      </trkpt>
      <trkpt lat="47.8414" lon="-3.53454">
        <ele>20</ele>
        <time>2019-07-15T11:13:03Z</time>
      </trkpt>
      <trkpt lat="47.84137" lon="-3.53454">
        <ele>20</ele>
        <time>2019-07-15T11:13:04Z</time>
      </trkpt>
      <trkpt lat="47.84134" lon="-3.53454">
        <ele>20</ele>
        <time>2019-07-15T11:13:05Z</time>
      </trkpt>
      <trkpt lat="47.8413" lon="-3.53454">
        <ele>21</ele>
        <time>2019-07-15T11:13:06Z</time>
      </trkpt>
      <trkpt lat="47.84127" lon="-3.53454">
        <ele>21</ele>
        <time>2019-07-15T11:13:07Z</time>
      </trkpt>
      <trkpt lat="47.84124" lon="-3.53454">
        <ele>21</ele>
        <time>2019-07-15T11:13:08Z</time>
      </trkpt>
      <trkpt lat="47.8412" lon="-3.53453">
        <ele>21</ele>
        <time>2019-07-15T11:13:09Z</time>
      </trkpt>
      <trkpt lat="47.84116" lon="-3.53453">
        <ele>21</ele>
        <time>2019-07-15T11:13:10Z</time>
      </trkpt>
      <trkpt lat="47.84112" lon="-3.53452">
        <ele>21</ele>
        <time>2019-07-15T11:13:11Z</time>
      </trkpt>
      <trkpt lat="47.84107" lon="-3.53453">
        <ele>21</ele>
        <time>2019-07-15T11:13:12Z</time>
      </trkpt>
      <trkpt lat="47.84103" lon="-3.53457">
        <ele>21</ele>
        <time>2019-07-15T11:13:13Z</time>
      </trkpt>
      <trkpt lat="47.841" lon="-3.53462">
        <ele>21</ele>
        <time>2019-07-15T11:13:14Z</time>
      </trkpt>
      <trkpt lat="47.84096" lon="-3.53469">
        <ele>21</ele>
        <time>2019-07-15T11:13:15Z</time>
      </trkpt>
      <trkpt lat="47.84092" lon="-3.53476">
        <ele>21</ele>
        <time>2019-07-15T11:13:16Z</time>
      </trkpt>
      <trkpt lat="47.84088" lon="-3.53483">
        <ele>21</ele>
        <time>2019-07-15T11:13:17Z</time>
      </trkpt>
      <trkpt lat="47.84084" lon="-3.5349">
        <ele>21</ele>
        <time>2019-07-15T11:13:18Z</time>
      </trkpt>
      <trkpt lat="47.84079" lon="-3.53498">
        <ele>22</ele>
        <time>2019-07-15T11:13:19Z</time>
      </trkpt>
      <trkpt lat="47.84074" lon="-3.53505">
        <ele>22</ele>
        <time>2019-07-15T11:13:20Z</time>
      </trkpt>
      <trkpt lat="47.84069" lon="-3.53511">
        <ele>22</ele>
        <time>2019-07-15T11:13:21Z</time>
      </trkpt>
      <trkpt lat="47.84063" lon="-3.53516">
        <ele>22</ele>
        <time>2019-07-15T11:13:22Z</time>
      </trkpt>
      <trkpt lat="47.84056" lon="-3.53521">
        <ele>22</ele>
        <time>2019-07-15T11:13:23Z</time>
      </trkpt>
      <trkpt lat="47.84048" lon="-3.53525">
        <ele>22</ele>
        <time>2019-07-15T11:13:24Z</time>
      </trkpt>
      <trkpt lat="47.8404" lon="-3.53529">
        <ele>22</ele>
        <time>2019-07-15T11:13:25Z</time>
      </trkpt>
      <trkpt lat="47.84031" lon="-3.53533">
        <ele>22</ele>
        <time>2019-07-15T11:13:26Z</time>
      </trkpt>
      <trkpt lat="47.84022" lon="-3.53538">
        <ele>22</ele>
        <time>2019-07-15T11:13:27Z</time>
      </trkpt>
      <trkpt lat="47.84013" lon="-3.53542">
        <ele>22</ele>
        <time>2019-07-15T11:13:28Z</time>
      </trkpt>
      <trkpt lat="47.84005" lon="-3.53547">
        <ele>22</ele>
        <time>2019-07-15T11:13:29Z</time>
      </trkpt>
      <trkpt lat="47.83999" lon="-3.53553">
        <ele>22</ele>
        <time>2019-07-15T11:13:30Z</time>
      </trkpt>
      <trkpt lat="47.83992" lon="-3.53559">
        <ele>22</ele>
        <time>2019-07-15T11:13:31Z</time>
      </trkpt>
      <trkpt lat="47.83986" lon="-3.53568">
        <ele>22</ele>
        <time>2019-07-15T11:13:32Z</time>
      </trkpt>
      <trkpt lat="47.83981" lon="-3.53577">
        <ele>22</ele>
        <time>2019-07-15T11:13:33Z</time>
      </trkpt>
      <trkpt lat="47.83976" lon="-3.53586">
        <ele>22</ele>
        <time>2019-07-15T11:13:34Z</time>
      </trkpt>
      <trkpt lat="47.83972" lon="-3.53595">
        <ele>22</ele>
        <time>2019-07-15T11:13:35Z</time>
      </trkpt>
      <trkpt lat="47.83968" lon="-3.53605">
        <ele>22</ele>
        <time>2019-07-15T11:13:36Z</time>
      </trkpt>
      <trkpt lat="47.83965" lon="-3.53615">
        <ele>22</ele>
        <time>2019-07-15T11:13:37Z</time>
      </trkpt>
      <trkpt lat="47.83963" lon="-3.53625">
        <ele>22</ele>
        <time>2019-07-15T11:13:38Z</time>
      </trkpt>
      <trkpt lat="47.83964" lon="-3.53634">
        <ele>22</ele>
        <time>2019-07-15T11:13:39Z</time>
      </trkpt>
      <trkpt lat="47.83964" lon="-3.53643">
        <ele>22</ele>
        <time>2019-07-15T11:13:40Z</time>
      </trkpt>
      <trkpt lat="47.83963" lon="-3.53651">
        <ele>22</ele>
        <time>2019-07-15T11:13:41Z</time>
      </trkpt>
      <trkpt lat="47.83961" lon="-3.53658">
        <ele>22</ele>
        <time>2019-07-15T11:13:42Z</time>
      </trkpt>
      <trkpt lat="47.83959" lon="-3.53663">
        <ele>21</ele>
        <time>2019-07-15T11:13:43Z</time>
      </trkpt>
      <trkpt lat="47.83955" lon="-3.53667">
        <ele>21</ele>
        <time>2019-07-15T11:13:44Z</time>
      </trkpt>
      <trkpt lat="47.8395" lon="-3.53672">
        <ele>21</ele>
        <time>2019-07-15T11:13:45Z</time>
      </trkpt>
      <trkpt lat="47.83944" lon="-3.53676">
        <ele>21</ele>
        <time>2019-07-15T11:13:46Z</time>
      </trkpt>
      <trkpt lat="47.83938" lon="-3.5368">
        <ele>21</ele>
        <time>2019-07-15T11:13:47Z</time>
      </trkpt>
      <trkpt lat="47.83932" lon="-3.53684">
        <ele>21</ele>
        <time>2019-07-15T11:13:48Z</time>
      </trkpt>
      <trkpt lat="47.83926" lon="-3.53688">
        <ele>21</ele>
        <time>2019-07-15T11:13:49Z</time>
      </trkpt>
      <trkpt lat="47.8392" lon="-3.53692">
        <ele>20</ele>
        <time>2019-07-15T11:13:50Z</time>
      </trkpt>
      <trkpt lat="47.83915" lon="-3.53696">
        <ele>20</ele>
        <time>2019-07-15T11:13:51Z</time>
      </trkpt>
      <trkpt lat="47.83909" lon="-3.53702">
        <ele>20</ele>
        <time>2019-07-15T11:13:52Z</time>
      </trkpt>
      <trkpt lat="47.83903" lon="-3.53707">
        <ele>20</ele>
        <time>2019-07-15T11:13:53Z</time>
      </trkpt>
      <trkpt lat="47.83898" lon="-3.53713">
        <ele>20</ele>
        <time>2019-07-15T11:13:54Z</time>
      </trkpt>
      <trkpt lat="47.83893" lon="-3.53719">
        <ele>20</ele>
        <time>2019-07-15T11:13:55Z</time>
      </trkpt>
      <trkpt lat="47.83887" lon="-3.53726">
        <ele>19</ele>
        <time>2019-07-15T11:13:56Z</time>
      </trkpt>
      <trkpt lat="47.83882" lon="-3.53732">
        <ele>19</ele>
        <time>2019-07-15T11:13:57Z</time>
      </trkpt>
      <trkpt lat="47.83876" lon="-3.53739">
        <ele>19</ele>
        <time>2019-07-15T11:13:58Z</time>
      </trkpt>
      <trkpt lat="47.83871" lon="-3.53745">
        <ele>19</ele>
        <time>2019-07-15T11:13:59Z</time>
      </trkpt>
      <trkpt lat="47.83866" lon="-3.53752">
        <ele>19</ele>
        <time>2019-07-15T11:14:00Z</time>
      </trkpt>
      <trkpt lat="47.83862" lon="-3.53758">
        <ele>19</ele>
        <time>2019-07-15T11:14:01Z</time>
      </trkpt>
      <trkpt lat="47.83858" lon="-3.53763">
        <ele>19</ele>
        <time>2019-07-15T11:14:02Z</time>
      </trkpt>
      <trkpt lat="47.83854" lon="-3.53769">
        <ele>19</ele>
        <time>2019-07-15T11:14:03Z</time>
      </trkpt>
      <trkpt lat="47.8385" lon="-3.53776">
        <ele>19</ele>
        <time>2019-07-15T11:14:04Z</time>
      </trkpt>
      <trkpt lat="47.83846" lon="-3.53781">
        <ele>18</ele>
        <time>2019-07-15T11:14:05Z</time>
      </trkpt>
      <trkpt lat="47.83844" lon="-3.53786">
        <ele>18</ele>
        <time>2019-07-15T11:14:06Z</time>
      </trkpt>
      <trkpt lat="47.83841" lon="-3.53793">
        <ele>18</ele>
        <time>2019-07-15T11:14:07Z</time>
      </trkpt>
      <trkpt lat="47.83838" lon="-3.538">
        <ele>18</ele>
        <time>2019-07-15T11:14:08Z</time>
      </trkpt>
      <trkpt lat="47.83835" lon="-3.53808">
        <ele>18</ele>
        <time>2019-07-15T11:14:09Z</time>
      </trkpt>
      <trkpt lat="47.83832" lon="-3.53816">
        <ele>19</ele>
        <time>2019-07-15T11:14:10Z</time>
      </trkpt>
      <trkpt lat="47.8383" lon="-3.53824">
        <ele>19</ele>
        <time>2019-07-15T11:14:11Z</time>
      </trkpt>
      <trkpt lat="47.83827" lon="-3.53833">
        <ele>19</ele>
        <time>2019-07-15T11:14:12Z</time>
      </trkpt>
      <trkpt lat="47.83825" lon="-3.5384">
        <ele>19</ele>
        <time>2019-07-15T11:14:13Z</time>
      </trkpt>
      <trkpt lat="47.83823" lon="-3.53848">
        <ele>19</ele>
        <time>2019-07-15T11:14:14Z</time>
      </trkpt>
      <trkpt lat="47.83822" lon="-3.53856">
        <ele>19</ele>
        <time>2019-07-15T11:14:15Z</time>
      </trkpt>
      <trkpt lat="47.83819" lon="-3.53864">
        <ele>20</ele>
        <time>2019-07-15T11:14:16Z</time>
      </trkpt>
      <trkpt lat="47.83817" lon="-3.53871">
        <ele>20</ele>
        <time>2019-07-15T11:14:17Z</time>
      </trkpt>
      <trkpt lat="47.83816" lon="-3.53878">
        <ele>20</ele>
        <time>2019-07-15T11:14:18Z</time>
      </trkpt>
      <trkpt lat="47.83815" lon="-3.53885">
        <ele>20</ele>
        <time>2019-07-15T11:14:19Z</time>
      </trkpt>
      <trkpt lat="47.83813" lon="-3.53893">
        <ele>20</ele>
        <time>2019-07-15T11:14:20Z</time>
      </trkpt>
      <trkpt lat="47.83811" lon="-3.53899">
        <ele>20</ele>
        <time>2019-07-15T11:14:21Z</time>
      </trkpt>
      <trkpt lat="47.83809" lon="-3.53906">
        <ele>20</ele>
        <time>2019-07-15T11:14:22Z</time>
      </trkpt>
      <trkpt lat="47.83808" lon="-3.53911">
        <ele>20</ele>
        <time>2019-07-15T11:14:23Z</time>
      </trkpt>
      <trkpt lat="47.83806" lon="-3.53916">
        <ele>21</ele>
        <time>2019-07-15T11:14:24Z</time>
      </trkpt>
      <trkpt lat="47.83804" lon="-3.53919">
        <ele>21</ele>
        <time>2019-07-15T11:14:25Z</time>
      </trkpt>
      <trkpt lat="47.83803" lon="-3.5392">
        <ele>21</ele>
        <time>2019-07-15T11:14:26Z</time>
      </trkpt>
      <trkpt lat="47.83802" lon="-3.53919">
        <ele>21</ele>
        <time>2019-07-15T11:14:27Z</time>
      </trkpt>
      <trkpt lat="47.838" lon="-3.53916">
        <ele>21</ele>
        <time>2019-07-15T11:14:28Z</time>
      </trkpt>
      <trkpt lat="47.83796" lon="-3.53915">
        <ele>21</ele>
        <time>2019-07-15T11:14:29Z</time>
      </trkpt>
      <trkpt lat="47.83791" lon="-3.53913">
        <ele>20</ele>
        <time>2019-07-15T11:14:30Z</time>
      </trkpt>
      <trkpt lat="47.83786" lon="-3.53913">
        <ele>20</ele>
        <time>2019-07-15T11:14:31Z</time>
      </trkpt>
      <trkpt lat="47.83781" lon="-3.53913">
        <ele>20</ele>
        <time>2019-07-15T11:14:32Z</time>
      </trkpt>
      <trkpt lat="47.83776" lon="-3.53913">
        <ele>20</ele>
        <time>2019-07-15T11:14:33Z</time>
      </trkpt>
      <trkpt lat="47.83771" lon="-3.53914">
        <ele>20</ele>
        <time>2019-07-15T11:14:34Z</time>
      </trkpt>
      <trkpt lat="47.83767" lon="-3.53916">
        <ele>20</ele>
        <time>2019-07-15T11:14:35Z</time>
      </trkpt>
      <trkpt lat="47.83763" lon="-3.53918">
        <ele>20</ele>
        <time>2019-07-15T11:14:36Z</time>
      </trkpt>
      <trkpt lat="47.8376" lon="-3.5392">
        <ele>20</ele>
        <time>2019-07-15T11:14:37Z</time>
      </trkpt>
      <trkpt lat="47.83756" lon="-3.53924">
        <ele>20</ele>
        <time>2019-07-15T11:14:38Z</time>
      </trkpt>
      <trkpt lat="47.83753" lon="-3.53928">
        <ele>20</ele>
        <time>2019-07-15T11:14:39Z</time>
      </trkpt>
      <trkpt lat="47.83751" lon="-3.53933">
        <ele>20</ele>
        <time>2019-07-15T11:14:40Z</time>
      </trkpt>
      <trkpt lat="47.83749" lon="-3.53937">
        <ele>19</ele>
        <time>2019-07-15T11:14:41Z</time>
      </trkpt>
      <trkpt lat="47.83747" lon="-3.53942">
        <ele>19</ele>
        <time>2019-07-15T11:14:42Z</time>
      </trkpt>
      <trkpt lat="47.83745" lon="-3.53947">
        <ele>19</ele>
        <time>2019-07-15T11:14:43Z</time>
      </trkpt>
      <trkpt lat="47.83743" lon="-3.53952">
        <ele>19</ele>
        <time>2019-07-15T11:14:44Z</time>
      </trkpt>
      <trkpt lat="47.83741" lon="-3.53956">
        <ele>19</ele>
        <time>2019-07-15T11:14:45Z</time>
      </trkpt>
      <trkpt lat="47.83739" lon="-3.5396">
        <ele>19</ele>
        <time>2019-07-15T11:14:46Z</time>
      </trkpt>
      <trkpt lat="47.83738" lon="-3.53963">
        <ele>18</ele>
        <time>2019-07-15T11:14:47Z</time>
      </trkpt>
      <trkpt lat="47.83737" lon="-3.53967">
        <ele>18</ele>
        <time>2019-07-15T11:14:48Z</time>
      </trkpt>
      <trkpt lat="47.83736" lon="-3.5397">
        <ele>18</ele>
        <time>2019-07-15T11:14:49Z</time>
      </trkpt>
      <trkpt lat="47.83734" lon="-3.53973">
        <ele>18</ele>
        <time>2019-07-15T11:14:50Z</time>
      </trkpt>
      <trkpt lat="47.83732" lon="-3.53975">
        <ele>18</ele>
        <time>2019-07-15T11:14:51Z</time>
      </trkpt>
      <trkpt lat="47.83729" lon="-3.53977">
        <ele>18</ele>
        <time>2019-07-15T11:14:52Z</time>
      </trkpt>
      <trkpt lat="47.83727" lon="-3.53978">
        <ele>18</ele>
        <time>2019-07-15T11:14:53Z</time>
      </trkpt>
      <trkpt lat="47.83724" lon="-3.53979">
        <ele>18</ele>
        <time>2019-07-15T11:14:54Z</time>
      </trkpt>
      <trkpt lat="47.83721" lon="-3.5398">
        <ele>17</ele>
        <time>2019-07-15T11:14:55Z</time>
      </trkpt>
      <trkpt lat="47.83719" lon="-3.53982">
        <ele>17</ele>
        <time>2019-07-15T11:14:56Z</time>
      </trkpt>
      <trkpt lat="47.83716" lon="-3.53983">
        <ele>17</ele>
        <time>2019-07-15T11:14:57Z</time>
      </trkpt>
      <trkpt lat="47.83714" lon="-3.53985">
        <ele>17</ele>
        <time>2019-07-15T11:14:58Z</time>
      </trkpt>
      <trkpt lat="47.83711" lon="-3.53987">
        <ele>17</ele>
        <time>2019-07-15T11:14:59Z</time>
      </trkpt>
      <trkpt lat="47.83708" lon="-3.53988">
        <ele>17</ele>
        <time>2019-07-15T11:15:00Z</time>
      </trkpt>
      <trkpt lat="47.83705" lon="-3.5399">
        <ele>17</ele>
        <time>2019-07-15T11:15:01Z</time>
      </trkpt>
      <trkpt lat="47.83702" lon="-3.53991">
        <ele>17</ele>
        <time>2019-07-15T11:15:02Z</time>
      </trkpt>
      <trkpt lat="47.83699" lon="-3.53992">
        <ele>16</ele>
        <time>2019-07-15T11:15:03Z</time>
      </trkpt>
      <trkpt lat="47.83696" lon="-3.53992">
        <ele>16</ele>
        <time>2019-07-15T11:15:04Z</time>
      </trkpt>
      <trkpt lat="47.83693" lon="-3.53991">
        <ele>16</ele>
        <time>2019-07-15T11:15:05Z</time>
      </trkpt>
      <trkpt lat="47.83689" lon="-3.53992">
        <ele>16</ele>
        <time>2019-07-15T11:15:06Z</time>
      </trkpt>
      <trkpt lat="47.83685" lon="-3.53995">
        <ele>16</ele>
        <time>2019-07-15T11:15:07Z</time>
      </trkpt>
      <trkpt lat="47.83681" lon="-3.53997">
        <ele>16</ele>
        <time>2019-07-15T11:15:08Z</time>
      </trkpt>
      <trkpt lat="47.83678" lon="-3.54001">
        <ele>16</ele>
        <time>2019-07-15T11:15:09Z</time>
      </trkpt>
      <trkpt lat="47.83675" lon="-3.54003">
        <ele>16</ele>
        <time>2019-07-15T11:15:10Z</time>
      </trkpt>
      <trkpt lat="47.83671" lon="-3.54005">
        <ele>16</ele>
        <time>2019-07-15T11:15:11Z</time>
      </trkpt>
      <trkpt lat="47.83668" lon="-3.54006">
        <ele>16</ele>
        <time>2019-07-15T11:15:12Z</time>
      </trkpt>
      <trkpt lat="47.83663" lon="-3.54008">
        <ele>16</ele>
        <time>2019-07-15T11:15:13Z</time>
      </trkpt>
      <trkpt lat="47.83659" lon="-3.5401">
        <ele>16</ele>
        <time>2019-07-15T11:15:14Z</time>
      </trkpt>
      <trkpt lat="47.83654" lon="-3.54011">
        <ele>17</ele>
        <time>2019-07-15T11:15:15Z</time>
      </trkpt>
      <trkpt lat="47.8365" lon="-3.54011">
        <ele>17</ele>
        <time>2019-07-15T11:15:16Z</time>
      </trkpt>
      <trkpt lat="47.83645" lon="-3.54011">
        <ele>17</ele>
        <time>2019-07-15T11:15:17Z</time>
      </trkpt>
      <trkpt lat="47.83639" lon="-3.54011">
        <ele>17</ele>
        <time>2019-07-15T11:15:18Z</time>
      </trkpt>
      <trkpt lat="47.83634" lon="-3.54012">
        <ele>17</ele>
        <time>2019-07-15T11:15:19Z</time>
      </trkpt>
      <trkpt lat="47.83629" lon="-3.54015">
        <ele>17</ele>
        <time>2019-07-15T11:15:20Z</time>
      </trkpt>
      <trkpt lat="47.83625" lon="-3.54019">
        <ele>17</ele>
        <time>2019-07-15T11:15:21Z</time>
      </trkpt>
      <trkpt lat="47.83622" lon="-3.54023">
        <ele>17</ele>
        <time>2019-07-15T11:15:22Z</time>
      </trkpt>
      <trkpt lat="47.83618" lon="-3.54026">
        <ele>17</ele>
        <time>2019-07-15T11:15:23Z</time>
      </trkpt>
      <trkpt lat="47.83613" lon="-3.54029">
        <ele>18</ele>
        <time>2019-07-15T11:15:24Z</time>
      </trkpt>
      <trkpt lat="47.83608" lon="-3.54032">
        <ele>18</ele>
        <time>2019-07-15T11:15:25Z</time>
      </trkpt>
      <trkpt lat="47.83605" lon="-3.54035">
        <ele>18</ele>
        <time>2019-07-15T11:15:26Z</time>
      </trkpt>
      <trkpt lat="47.836" lon="-3.54038">
        <ele>18</ele>
        <time>2019-07-15T11:15:27Z</time>
      </trkpt>
      <trkpt lat="47.83595" lon="-3.54039">
        <ele>18</ele>
        <time>2019-07-15T11:15:28Z</time>
      </trkpt>
      <trkpt lat="47.8359" lon="-3.54042">
        <ele>18</ele>
        <time>2019-07-15T11:15:29Z</time>
      </trkpt>
      <trkpt lat="47.83585" lon="-3.54044">
        <ele>18</ele>
        <time>2019-07-15T11:15:30Z</time>
      </trkpt>
      <trkpt lat="47.8358" lon="-3.54046">
        <ele>18</ele>
        <time>2019-07-15T11:15:31Z</time>
      </trkpt>
      <trkpt lat="47.83575" lon="-3.54048">
        <ele>18</ele>
        <time>2019-07-15T11:15:32Z</time>
      </trkpt>
      <trkpt lat="47.8357" lon="-3.54051">
        <ele>18</ele>
        <time>2019-07-15T11:15:33Z</time>
      </trkpt>
      <trkpt lat="47.83565" lon="-3.54053">
        <ele>18</ele>
        <time>2019-07-15T11:15:34Z</time>
      </trkpt>
      <trkpt lat="47.83559" lon="-3.54054">
        <ele>18</ele>
        <time>2019-07-15T11:15:35Z</time>
      </trkpt>
      <trkpt lat="47.83553" lon="-3.54056">
        <ele>18</ele>
        <time>2019-07-15T11:15:36Z</time>
      </trkpt>
      <trkpt lat="47.83548" lon="-3.54058">
        <ele>18</ele>
        <time>2019-07-15T11:15:37Z</time>
      </trkpt>
      <trkpt lat="47.83542" lon="-3.5406">
        <ele>18</ele>
        <time>2019-07-15T11:15:38Z</time>
      </trkpt>
      <trkpt lat="47.83537" lon="-3.54061">
        <ele>18</ele>
        <time>2019-07-15T11:15:39Z</time>
      </trkpt>
      <trkpt lat="47.83531" lon="-3.54063">
        <ele>18</ele>
        <time>2019-07-15T11:15:40Z</time>
      </trkpt>
      <trkpt lat="47.83526" lon="-3.54064">
        <ele>18</ele>
        <time>2019-07-15T11:15:41Z</time>
      </trkpt>
      <trkpt lat="47.83522" lon="-3.54065">
        <ele>18</ele>
        <time>2019-07-15T11:15:42Z</time>
      </trkpt>
      <trkpt lat="47.83517" lon="-3.54065">
        <ele>18</ele>
        <time>2019-07-15T11:15:43Z</time>
      </trkpt>
      <trkpt lat="47.83513" lon="-3.54065">
        <ele>18</ele>
        <time>2019-07-15T11:15:44Z</time>
      </trkpt>
      <trkpt lat="47.83508" lon="-3.54067">
        <ele>18</ele>
        <time>2019-07-15T11:15:45Z</time>
      </trkpt>
      <trkpt lat="47.83504" lon="-3.54067">
        <ele>18</ele>
        <time>2019-07-15T11:15:46Z</time>
      </trkpt>
      <trkpt lat="47.83499" lon="-3.54068">
        <ele>18</ele>
        <time>2019-07-15T11:15:47Z</time>
      </trkpt>
      <trkpt lat="47.83494" lon="-3.54068">
        <ele>18</ele>
        <time>2019-07-15T11:15:48Z</time>
      </trkpt>
      <trkpt lat="47.83489" lon="-3.54068">
        <ele>18</ele>
        <time>2019-07-15T11:15:49Z</time>
      </trkpt>
      <trkpt lat="47.83484" lon="-3.54068">
        <ele>18</ele>
        <time>2019-07-15T11:15:50Z</time>
      </trkpt>
      <trkpt lat="47.8348" lon="-3.54067">
        <ele>18</ele>
        <time>2019-07-15T11:15:51Z</time>
      </trkpt>
      <trkpt lat="47.83474" lon="-3.54067">
        <ele>18</ele>
        <time>2019-07-15T11:15:52Z</time>
      </trkpt>
      <trkpt lat="47.8347" lon="-3.54067">
        <ele>18</ele>
        <time>2019-07-15T11:15:53Z</time>
      </trkpt>
      <trkpt lat="47.83464" lon="-3.54066">
        <ele>18</ele>
        <time>2019-07-15T11:15:54Z</time>
      </trkpt>
      <trkpt lat="47.83459" lon="-3.54065">
        <ele>18</ele>
        <time>2019-07-15T11:15:55Z</time>
      </trkpt>
      <trkpt lat="47.83454" lon="-3.54065">
        <ele>18</ele>
        <time>2019-07-15T11:15:56Z</time>
      </trkpt>
      <trkpt lat="47.83449" lon="-3.54065">
        <ele>18</ele>
        <time>2019-07-15T11:15:57Z</time>
      </trkpt>
      <trkpt lat="47.83445" lon="-3.54065">
        <ele>18</ele>
        <time>2019-07-15T11:15:58Z</time>
      </trkpt>
      <trkpt lat="47.83439" lon="-3.54065">
        <ele>18</ele>
        <time>2019-07-15T11:15:59Z</time>
      </trkpt>
      <trkpt lat="47.83434" lon="-3.54066">
        <ele>18</ele>
        <time>2019-07-15T11:16:00Z</time>
      </trkpt>
      <trkpt lat="47.8343" lon="-3.54068">
        <ele>18</ele>
        <time>2019-07-15T11:16:01Z</time>
      </trkpt>
      <trkpt lat="47.83424" lon="-3.5407">
        <ele>17</ele>
        <time>2019-07-15T11:16:02Z</time>
      </trkpt>
      <trkpt lat="47.83418" lon="-3.54072">
        <ele>17</ele>
        <time>2019-07-15T11:16:03Z</time>
      </trkpt>
      <trkpt lat="47.83412" lon="-3.54073">
        <ele>17</ele>
        <time>2019-07-15T11:16:04Z</time>
      </trkpt>
      <trkpt lat="47.83406" lon="-3.54074">
        <ele>17</ele>
        <time>2019-07-15T11:16:05Z</time>
      </trkpt>
      <trkpt lat="47.83401" lon="-3.54076">
        <ele>17</ele>
        <time>2019-07-15T11:16:06Z</time>
      </trkpt>
      <trkpt lat="47.83396" lon="-3.54078">
        <ele>17</ele>
        <time>2019-07-15T11:16:07Z</time>
      </trkpt>
      <trkpt lat="47.83391" lon="-3.5408">
        <ele>17</ele>
        <time>2019-07-15T11:16:08Z</time>
      </trkpt>
      <trkpt lat="47.83386" lon="-3.54081">
        <ele>17</ele>
        <time>2019-07-15T11:16:09Z</time>
      </trkpt>
      <trkpt lat="47.83381" lon="-3.54084">
        <ele>17</ele>
        <time>2019-07-15T11:16:10Z</time>
      </trkpt>
      <trkpt lat="47.83376" lon="-3.54087">
        <ele>17</ele>
        <time>2019-07-15T11:16:11Z</time>
      </trkpt>
      <trkpt lat="47.83372" lon="-3.5409">
        <ele>17</ele>
        <time>2019-07-15T11:16:12Z</time>
      </trkpt>
      <trkpt lat="47.83367" lon="-3.54093">
        <ele>17</ele>
        <time>2019-07-15T11:16:13Z</time>
      </trkpt>
      <trkpt lat="47.83361" lon="-3.54097">
        <ele>17</ele>
        <time>2019-07-15T11:16:14Z</time>
      </trkpt>
      <trkpt lat="47.83356" lon="-3.541">
        <ele>17</ele>
        <time>2019-07-15T11:16:15Z</time>
      </trkpt>
      <trkpt lat="47.83351" lon="-3.54103">
        <ele>17</ele>
        <time>2019-07-15T11:16:16Z</time>
      </trkpt>
      <trkpt lat="47.83346" lon="-3.54105">
        <ele>17</ele>
        <time>2019-07-15T11:16:17Z</time>
      </trkpt>
      <trkpt lat="47.83341" lon="-3.54107">
        <ele>17</ele>
        <time>2019-07-15T11:16:18Z</time>
      </trkpt>
      <trkpt lat="47.83336" lon="-3.54109">
        <ele>17</ele>
        <time>2019-07-15T11:16:19Z</time>
      </trkpt>
      <trkpt lat="47.83332" lon="-3.5411">
        <ele>17</ele>
        <time>2019-07-15T11:16:20Z</time>
      </trkpt>
      <trkpt lat="47.83327" lon="-3.54111">
        <ele>17</ele>
        <time>2019-07-15T11:16:21Z</time>
      </trkpt>
      <trkpt lat="47.83323" lon="-3.54112">
        <ele>17</ele>
        <time>2019-07-15T11:16:22Z</time>
      </trkpt>
      <trkpt lat="47.83318" lon="-3.54114">
        <ele>17</ele>
        <time>2019-07-15T11:16:23Z</time>
      </trkpt>
      <trkpt lat="47.83313" lon="-3.54116">
        <ele>17</ele>
        <time>2019-07-15T11:16:24Z</time>
      </trkpt>
      <trkpt lat="47.83308" lon="-3.54116">
        <ele>17</ele>
        <time>2019-07-15T11:16:25Z</time>
      </trkpt>
      <trkpt lat="47.83304" lon="-3.54118">
        <ele>17</ele>
        <time>2019-07-15T11:16:26Z</time>
      </trkpt>
      <trkpt lat="47.833" lon="-3.5412">
        <ele>17</ele>
        <time>2019-07-15T11:16:27Z</time>
      </trkpt>
      <trkpt lat="47.83295" lon="-3.54122">
        <ele>17</ele>
        <time>2019-07-15T11:16:28Z</time>
      </trkpt>
      <trkpt lat="47.83291" lon="-3.54123">
        <ele>17</ele>
        <time>2019-07-15T11:16:29Z</time>
      </trkpt>
      <trkpt lat="47.83286" lon="-3.54125">
        <ele>17</ele>
        <time>2019-07-15T11:16:30Z</time>
      </trkpt>
      <trkpt lat="47.83281" lon="-3.54127">
        <ele>17</ele>
        <time>2019-07-15T11:16:31Z</time>
      </trkpt>
      <trkpt lat="47.83276" lon="-3.54128">
        <ele>17</ele>
        <time>2019-07-15T11:16:32Z</time>
      </trkpt>
      <trkpt lat="47.83271" lon="-3.5413">
        <ele>17</ele>
        <time>2019-07-15T11:16:33Z</time>
      </trkpt>
      <trkpt lat="47.83266" lon="-3.54133">
        <ele>17</ele>
        <time>2019-07-15T11:16:34Z</time>
      </trkpt>
      <trkpt lat="47.83261" lon="-3.54135">
        <ele>17</ele>
        <time>2019-07-15T11:16:35Z</time>
      </trkpt>
      <trkpt lat="47.83255" lon="-3.54137">
        <ele>17</ele>
        <time>2019-07-15T11:16:36Z</time>
      </trkpt>
      <trkpt lat="47.8325" lon="-3.54139">
        <ele>17</ele>
        <time>2019-07-15T11:16:37Z</time>
      </trkpt>
      <trkpt lat="47.83244" lon="-3.54141">
        <ele>17</ele>
        <time>2019-07-15T11:16:38Z</time>
      </trkpt>
      <trkpt lat="47.83239" lon="-3.54143">
        <ele>17</ele>
        <time>2019-07-15T11:16:39Z</time>
      </trkpt>
      <trkpt lat="47.83234" lon="-3.54146">
        <ele>17</ele>
        <time>2019-07-15T11:16:40Z</time>
      </trkpt>
      <trkpt lat="47.83229" lon="-3.54149">
        <ele>17</ele>
        <time>2019-07-15T11:16:41Z</time>
      </trkpt>
      <trkpt lat="47.83225" lon="-3.54151">
        <ele>17</ele>
        <time>2019-07-15T11:16:42Z</time>
      </trkpt>
      <trkpt lat="47.83221" lon="-3.54153">
        <ele>17</ele>
        <time>2019-07-15T11:16:43Z</time>
      </trkpt>
      <trkpt lat="47.83217" lon="-3.54155">
        <ele>17</ele>
        <time>2019-07-15T11:16:44Z</time>
      </trkpt>
      <trkpt lat="47.83212" lon="-3.54156">
        <ele>17</ele>
        <time>2019-07-15T11:16:45Z</time>
      </trkpt>
      <trkpt lat="47.83208" lon="-3.54157">
        <ele>17</ele>
        <time>2019-07-15T11:16:46Z</time>
      </trkpt>
      <trkpt lat="47.83204" lon="-3.54157">
        <ele>17</ele>
        <time>2019-07-15T11:16:47Z</time>
      </trkpt>
      <trkpt lat="47.83199" lon="-3.54158">
        <ele>16</ele>
        <time>2019-07-15T11:16:48Z</time>
      </trkpt>
      <trkpt lat="47.83194" lon="-3.54158">
        <ele>16</ele>
        <time>2019-07-15T11:16:49Z</time>
      </trkpt>
      <trkpt lat="47.83189" lon="-3.54158">
        <ele>16</ele>
        <time>2019-07-15T11:16:50Z</time>
      </trkpt>
      <trkpt lat="47.83184" lon="-3.54158">
        <ele>16</ele>
        <time>2019-07-15T11:16:51Z</time>
      </trkpt>
      <trkpt lat="47.83178" lon="-3.54158">
        <ele>16</ele>
        <time>2019-07-15T11:16:52Z</time>
      </trkpt>
      <trkpt lat="47.83172" lon="-3.54159">
        <ele>16</ele>
        <time>2019-07-15T11:16:53Z</time>
      </trkpt>
      <trkpt lat="47.83166" lon="-3.54159">
        <ele>16</ele>
        <time>2019-07-15T11:16:54Z</time>
      </trkpt>
      <trkpt lat="47.83161" lon="-3.54158">
        <ele>16</ele>
        <time>2019-07-15T11:16:55Z</time>
      </trkpt>
      <trkpt lat="47.83155" lon="-3.54159">
        <ele>16</ele>
        <time>2019-07-15T11:16:56Z</time>
      </trkpt>
      <trkpt lat="47.8315" lon="-3.5416">
        <ele>16</ele>
        <time>2019-07-15T11:16:57Z</time>
      </trkpt>
      <trkpt lat="47.83145" lon="-3.5416">
        <ele>16</ele>
        <time>2019-07-15T11:16:58Z</time>
      </trkpt>
      <trkpt lat="47.8314" lon="-3.54161">
        <ele>16</ele>
        <time>2019-07-15T11:16:59Z</time>
      </trkpt>
      <trkpt lat="47.83135" lon="-3.54162">
        <ele>16</ele>
        <time>2019-07-15T11:17:00Z</time>
      </trkpt>
      <trkpt lat="47.8313" lon="-3.54163">
        <ele>16</ele>
        <time>2019-07-15T11:17:01Z</time>
      </trkpt>
      <trkpt lat="47.83126" lon="-3.54164">
        <ele>17</ele>
        <time>2019-07-15T11:17:02Z</time>
      </trkpt>
      <trkpt lat="47.83121" lon="-3.54165">
        <ele>17</ele>
        <time>2019-07-15T11:17:03Z</time>
      </trkpt>
      <trkpt lat="47.83116" lon="-3.54166">
        <ele>17</ele>
        <time>2019-07-15T11:17:04Z</time>
      </trkpt>
      <trkpt lat="47.83112" lon="-3.54167">
        <ele>17</ele>
        <time>2019-07-15T11:17:05Z</time>
      </trkpt>
      <trkpt lat="47.83107" lon="-3.54168">
        <ele>17</ele>
        <time>2019-07-15T11:17:06Z</time>
      </trkpt>
      <trkpt lat="47.83102" lon="-3.54169">
        <ele>17</ele>
        <time>2019-07-15T11:17:07Z</time>
      </trkpt>
      <trkpt lat="47.83098" lon="-3.54169">
        <ele>17</ele>
        <time>2019-07-15T11:17:08Z</time>
      </trkpt>
      <trkpt lat="47.83093" lon="-3.5417">
        <ele>17</ele>
        <time>2019-07-15T11:17:09Z</time>
      </trkpt>
      <trkpt lat="47.83089" lon="-3.54171">
        <ele>17</ele>
        <time>2019-07-15T11:17:10Z</time>
      </trkpt>
      <trkpt lat="47.83084" lon="-3.54171">
        <ele>18</ele>
        <time>2019-07-15T11:17:11Z</time>
      </trkpt>
      <trkpt lat="47.8308" lon="-3.54172">
        <ele>18</ele>
        <time>2019-07-15T11:17:12Z</time>
      </trkpt>
      <trkpt lat="47.83076" lon="-3.54172">
        <ele>18</ele>
        <time>2019-07-15T11:17:13Z</time>
      </trkpt>
      <trkpt lat="47.83073" lon="-3.54172">
        <ele>18</ele>
        <time>2019-07-15T11:17:14Z</time>
      </trkpt>
      <trkpt lat="47.83069" lon="-3.54173">
        <ele>18</ele>
        <time>2019-07-15T11:17:15Z</time>
      </trkpt>
      <trkpt lat="47.83066" lon="-3.54174">
        <ele>18</ele>
        <time>2019-07-15T11:17:16Z</time>
      </trkpt>
      <trkpt lat="47.83062" lon="-3.54174">
        <ele>18</ele>
        <time>2019-07-15T11:17:17Z</time>
      </trkpt>
      <trkpt lat="47.83058" lon="-3.54175">
        <ele>18</ele>
        <time>2019-07-15T11:17:18Z</time>
      </trkpt>
      <trkpt lat="47.83054" lon="-3.54175">
        <ele>18</ele>
        <time>2019-07-15T11:17:19Z</time>
      </trkpt>
      <trkpt lat="47.8305" lon="-3.54176">
        <ele>17</ele>
        <time>2019-07-15T11:17:20Z</time>
      </trkpt>
      <trkpt lat="47.83046" lon="-3.54177">
        <ele>17</ele>
        <time>2019-07-15T11:17:21Z</time>
      </trkpt>
      <trkpt lat="47.83042" lon="-3.54177">
        <ele>17</ele>
        <time>2019-07-15T11:17:22Z</time>
      </trkpt>
      <trkpt lat="47.83038" lon="-3.54178">
        <ele>17</ele>
        <time>2019-07-15T11:17:23Z</time>
      </trkpt>
      <trkpt lat="47.83033" lon="-3.54179">
        <ele>17</ele>
        <time>2019-07-15T11:17:24Z</time>
      </trkpt>
      <trkpt lat="47.83028" lon="-3.5418">
        <ele>17</ele>
        <time>2019-07-15T11:17:25Z</time>
      </trkpt>
      <trkpt lat="47.83024" lon="-3.54181">
        <ele>17</ele>
        <time>2019-07-15T11:17:26Z</time>
      </trkpt>
      <trkpt lat="47.8302" lon="-3.54182">
        <ele>17</ele>
        <time>2019-07-15T11:17:27Z</time>
      </trkpt>
      <trkpt lat="47.83015" lon="-3.54182">
        <ele>17</ele>
        <time>2019-07-15T11:17:28Z</time>
      </trkpt>
      <trkpt lat="47.83011" lon="-3.54182">
        <ele>16</ele>
        <time>2019-07-15T11:17:29Z</time>
      </trkpt>
      <trkpt lat="47.83007" lon="-3.54182">
        <ele>16</ele>
        <time>2019-07-15T11:17:30Z</time>
      </trkpt>
      <trkpt lat="47.83003" lon="-3.54183">
        <ele>16</ele>
        <time>2019-07-15T11:17:31Z</time>
      </trkpt>
      <trkpt lat="47.82999" lon="-3.54183">
        <ele>16</ele>
        <time>2019-07-15T11:17:32Z</time>
      </trkpt>
      <trkpt lat="47.82995" lon="-3.54183">
        <ele>16</ele>
        <time>2019-07-15T11:17:33Z</time>
      </trkpt>
      <trkpt lat="47.82991" lon="-3.54183">
        <ele>17</ele>
        <time>2019-07-15T11:17:34Z</time>
      </trkpt>
      <trkpt lat="47.82987" lon="-3.54183">
        <ele>17</ele>
        <time>2019-07-15T11:17:35Z</time>
      </trkpt>
      <trkpt lat="47.82984" lon="-3.54182">
        <ele>17</ele>
        <time>2019-07-15T11:17:36Z</time>
      </trkpt>
      <trkpt lat="47.82979" lon="-3.54182">
        <ele>17</ele>
        <time>2019-07-15T11:17:37Z</time>
      </trkpt>
      <trkpt lat="47.82975" lon="-3.54181">
        <ele>17</ele>
        <time>2019-07-15T11:17:38Z</time>
      </trkpt>
      <trkpt lat="47.8297" lon="-3.5418">
        <ele>17</ele>
        <time>2019-07-15T11:17:39Z</time>
      </trkpt>
      <trkpt lat="47.82966" lon="-3.54179">
        <ele>17</ele>
        <time>2019-07-15T11:17:40Z</time>
      </trkpt>
      <trkpt lat="47.82961" lon="-3.54178">
        <ele>17</ele>
        <time>2019-07-15T11:17:41Z</time>
      </trkpt>
      <trkpt lat="47.82957" lon="-3.54176">
        <ele>17</ele>
        <time>2019-07-15T11:17:42Z</time>
      </trkpt>
      <trkpt lat="47.82952" lon="-3.54175">
        <ele>17</ele>
        <time>2019-07-15T11:17:43Z</time>
      </trkpt>
      <trkpt lat="47.82948" lon="-3.54174">
        <ele>17</ele>
        <time>2019-07-15T11:17:44Z</time>
      </trkpt>
      <trkpt lat="47.82944" lon="-3.54174">
        <ele>17</ele>
        <time>2019-07-15T11:17:45Z</time>
      </trkpt>
      <trkpt lat="47.8294" lon="-3.54173">
        <ele>17</ele>
        <time>2019-07-15T11:17:46Z</time>
      </trkpt>
      <trkpt lat="47.82936" lon="-3.54173">
        <ele>17</ele>
        <time>2019-07-15T11:17:47Z</time>
      </trkpt>
      <trkpt lat="47.82931" lon="-3.54172">
        <ele>17</ele>
        <time>2019-07-15T11:17:48Z</time>
      </trkpt>
      <trkpt lat="47.82927" lon="-3.54172">
        <ele>17</ele>
        <time>2019-07-15T11:17:49Z</time>
      </trkpt>
      <trkpt lat="47.82923" lon="-3.54171">
        <ele>17</ele>
        <time>2019-07-15T11:17:50Z</time>
      </trkpt>
      <trkpt lat="47.82919" lon="-3.5417">
        <ele>17</ele>
        <time>2019-07-15T11:17:51Z</time>
      </trkpt>
      <trkpt lat="47.82915" lon="-3.54167">
        <ele>17</ele>
        <time>2019-07-15T11:17:52Z</time>
      </trkpt>
      <trkpt lat="47.82912" lon="-3.54165">
        <ele>17</ele>
        <time>2019-07-15T11:17:53Z</time>
      </trkpt>
      <trkpt lat="47.82909" lon="-3.54162">
        <ele>17</ele>
        <time>2019-07-15T11:17:54Z</time>
      </trkpt>
      <trkpt lat="47.82905" lon="-3.54159">
        <ele>17</ele>
        <time>2019-07-15T11:17:55Z</time>
      </trkpt>
      <trkpt lat="47.82901" lon="-3.54156">
        <ele>17</ele>
        <time>2019-07-15T11:17:56Z</time>
      </trkpt>
      <trkpt lat="47.82896" lon="-3.54154">
        <ele>17</ele>
        <time>2019-07-15T11:17:57Z</time>
      </trkpt>
      <trkpt lat="47.82891" lon="-3.54153">
        <ele>17</ele>
        <time>2019-07-15T11:17:58Z</time>
      </trkpt>
      <trkpt lat="47.82886" lon="-3.54153">
        <ele>17</ele>
        <time>2019-07-15T11:17:59Z</time>
      </trkpt>
      <trkpt lat="47.8288" lon="-3.54153">
        <ele>17</ele>
        <time>2019-07-15T11:18:00Z</time>
      </trkpt>
      <trkpt lat="47.82875" lon="-3.54152">
        <ele>17</ele>
        <time>2019-07-15T11:18:01Z</time>
      </trkpt>
      <trkpt lat="47.82869" lon="-3.54151">
        <ele>17</ele>
        <time>2019-07-15T11:18:02Z</time>
      </trkpt>
      <trkpt lat="47.82863" lon="-3.5415">
        <ele>16</ele>
        <time>2019-07-15T11:18:03Z</time>
      </trkpt>
      <trkpt lat="47.82857" lon="-3.54149">
        <ele>16</ele>
        <time>2019-07-15T11:18:04Z</time>
      </trkpt>
      <trkpt lat="47.82851" lon="-3.54148">
        <ele>16</ele>
        <time>2019-07-15T11:18:05Z</time>
      </trkpt>
      <trkpt lat="47.82846" lon="-3.54146">
        <ele>16</ele>
        <time>2019-07-15T11:18:06Z</time>
      </trkpt>
      <trkpt lat="47.8284" lon="-3.54145">
        <ele>16</ele>
        <time>2019-07-15T11:18:07Z</time>
      </trkpt>
      <trkpt lat="47.82834" lon="-3.54143">
        <ele>16</ele>
        <time>2019-07-15T11:18:08Z</time>
      </trkpt>
      <trkpt lat="47.82828" lon="-3.54141">
        <ele>16</ele>
        <time>2019-07-15T11:18:09Z</time>
      </trkpt>
      <trkpt lat="47.82823" lon="-3.5414">
        <ele>16</ele>
        <time>2019-07-15T11:18:10Z</time>
      </trkpt>
      <trkpt lat="47.82818" lon="-3.54139">
        <ele>16</ele>
        <time>2019-07-15T11:18:11Z</time>
      </trkpt>
      <trkpt lat="47.82813" lon="-3.54139">
        <ele>16</ele>
        <time>2019-07-15T11:18:12Z</time>
      </trkpt>
      <trkpt lat="47.82809" lon="-3.54138">
        <ele>16</ele>
        <time>2019-07-15T11:18:13Z</time>
      </trkpt>
      <trkpt lat="47.82804" lon="-3.54136">
        <ele>16</ele>
        <time>2019-07-15T11:18:14Z</time>
      </trkpt>
      <trkpt lat="47.82799" lon="-3.54135">
        <ele>16</ele>
        <time>2019-07-15T11:18:15Z</time>
      </trkpt>
      <trkpt lat="47.82794" lon="-3.54133">
        <ele>16</ele>
        <time>2019-07-15T11:18:16Z</time>
      </trkpt>
      <trkpt lat="47.82789" lon="-3.54132">
        <ele>16</ele>
        <time>2019-07-15T11:18:17Z</time>
      </trkpt>
      <trkpt lat="47.82784" lon="-3.54131">
        <ele>16</ele>
        <time>2019-07-15T11:18:18Z</time>
      </trkpt>
      <trkpt lat="47.82778" lon="-3.5413">
        <ele>16</ele>
        <time>2019-07-15T11:18:19Z</time>
      </trkpt>
      <trkpt lat="47.82772" lon="-3.54129">
        <ele>16</ele>
        <time>2019-07-15T11:18:20Z</time>
      </trkpt>
      <trkpt lat="47.82766" lon="-3.54128">
        <ele>16</ele>
        <time>2019-07-15T11:18:21Z</time>
      </trkpt>
      <trkpt lat="47.82761" lon="-3.54128">
        <ele>16</ele>
        <time>2019-07-15T11:18:22Z</time>
      </trkpt>
      <trkpt lat="47.82755" lon="-3.54127">
        <ele>16</ele>
        <time>2019-07-15T11:18:23Z</time>
      </trkpt>
      <trkpt lat="47.82749" lon="-3.54127">
        <ele>16</ele>
        <time>2019-07-15T11:18:24Z</time>
      </trkpt>
      <trkpt lat="47.82743" lon="-3.54126">
        <ele>16</ele>
        <time>2019-07-15T11:18:25Z</time>
      </trkpt>
      <trkpt lat="47.82737" lon="-3.54125">
        <ele>16</ele>
        <time>2019-07-15T11:18:26Z</time>
      </trkpt>
      <trkpt lat="47.82731" lon="-3.54123">
        <ele>16</ele>
        <time>2019-07-15T11:18:27Z</time>
      </trkpt>
      <trkpt lat="47.82725" lon="-3.54122">
        <ele>16</ele>
        <time>2019-07-15T11:18:28Z</time>
      </trkpt>
      <trkpt lat="47.82721" lon="-3.54122">
        <ele>16</ele>
        <time>2019-07-15T11:18:29Z</time>
      </trkpt>
      <trkpt lat="47.82716" lon="-3.54122">
        <ele>16</ele>
        <time>2019-07-15T11:18:30Z</time>
      </trkpt>
      <trkpt lat="47.82711" lon="-3.54122">
        <ele>16</ele>
        <time>2019-07-15T11:18:31Z</time>
      </trkpt>
      <trkpt lat="47.82706" lon="-3.54121">
        <ele>16</ele>
        <time>2019-07-15T11:18:32Z</time>
      </trkpt>
      <trkpt lat="47.82702" lon="-3.54121">
        <ele>16</ele>
        <time>2019-07-15T11:18:33Z</time>
      </trkpt>
      <trkpt lat="47.82697" lon="-3.54121">
        <ele>16</ele>
        <time>2019-07-15T11:18:34Z</time>
      </trkpt>
      <trkpt lat="47.82693" lon="-3.5412">
        <ele>16</ele>
        <time>2019-07-15T11:18:35Z</time>
      </trkpt>
      <trkpt lat="47.82688" lon="-3.54119">
        <ele>16</ele>
        <time>2019-07-15T11:18:36Z</time>
      </trkpt>
      <trkpt lat="47.82683" lon="-3.54119">
        <ele>16</ele>
        <time>2019-07-15T11:18:37Z</time>
      </trkpt>
      <trkpt lat="47.82678" lon="-3.54118">
        <ele>16</ele>
        <time>2019-07-15T11:18:38Z</time>
      </trkpt>
      <trkpt lat="47.82674" lon="-3.54117">
        <ele>16</ele>
        <time>2019-07-15T11:18:39Z</time>
      </trkpt>
      <trkpt lat="47.82669" lon="-3.54116">
        <ele>16</ele>
        <time>2019-07-15T11:18:40Z</time>
      </trkpt>
      <trkpt lat="47.82664" lon="-3.54115">
        <ele>16</ele>
        <time>2019-07-15T11:18:41Z</time>
      </trkpt>
      <trkpt lat="47.82659" lon="-3.54114">
        <ele>16</ele>
        <time>2019-07-15T11:18:42Z</time>
      </trkpt>
      <trkpt lat="47.82654" lon="-3.54114">
        <ele>16</ele>
        <time>2019-07-15T11:18:43Z</time>
      </trkpt>
      <trkpt lat="47.8265" lon="-3.54114">
        <ele>16</ele>
        <time>2019-07-15T11:18:44Z</time>
      </trkpt>
      <trkpt lat="47.82645" lon="-3.54113">
        <ele>16</ele>
        <time>2019-07-15T11:18:45Z</time>
      </trkpt>
      <trkpt lat="47.8264" lon="-3.54112">
        <ele>16</ele>
        <time>2019-07-15T11:18:46Z</time>
      </trkpt>
      <trkpt lat="47.82635" lon="-3.54111">
        <ele>16</ele>
        <time>2019-07-15T11:18:47Z</time>
      </trkpt>
      <trkpt lat="47.8263" lon="-3.5411">
        <ele>16</ele>
        <time>2019-07-15T11:18:48Z</time>
      </trkpt>
      <trkpt lat="47.82624" lon="-3.54109">
        <ele>16</ele>
        <time>2019-07-15T11:18:49Z</time>
      </trkpt>
      <trkpt lat="47.82619" lon="-3.54109">
        <ele>16</ele>
        <time>2019-07-15T11:18:50Z</time>
      </trkpt>
      <trkpt lat="47.82614" lon="-3.54109">
        <ele>16</ele>
        <time>2019-07-15T11:18:51Z</time>
      </trkpt>
      <trkpt lat="47.82609" lon="-3.54112">
        <ele>16</ele>
        <time>2019-07-15T11:18:52Z</time>
      </trkpt>
      <trkpt lat="47.82605" lon="-3.54116">
        <ele>16</ele>
        <time>2019-07-15T11:18:53Z</time>
      </trkpt>
      <trkpt lat="47.82602" lon="-3.5412">
        <ele>16</ele>
        <time>2019-07-15T11:18:54Z</time>
      </trkpt>
      <trkpt lat="47.82598" lon="-3.54126">
        <ele>16</ele>
        <time>2019-07-15T11:18:55Z</time>
      </trkpt>
      <trkpt lat="47.82596" lon="-3.54132">
        <ele>16</ele>
        <time>2019-07-15T11:18:56Z</time>
      </trkpt>
      <trkpt lat="47.82593" lon="-3.54138">
        <ele>16</ele>
        <time>2019-07-15T11:18:57Z</time>
      </trkpt>
      <trkpt lat="47.8259" lon="-3.54141">
        <ele>16</ele>
        <time>2019-07-15T11:18:58Z</time>
      </trkpt>
      <trkpt lat="47.82586" lon="-3.54141">
        <ele>16</ele>
        <time>2019-07-15T11:18:59Z</time>
      </trkpt>
      <trkpt lat="47.82582" lon="-3.5414">
        <ele>16</ele>
        <time>2019-07-15T11:19:00Z</time>
      </trkpt>
      <trkpt lat="47.8258" lon="-3.54139">
        <ele>16</ele>
        <time>2019-07-15T11:19:01Z</time>
      </trkpt>
      <trkpt lat="47.82577" lon="-3.54137">
        <ele>16</ele>
        <time>2019-07-15T11:19:02Z</time>
      </trkpt>
      <trkpt lat="47.82574" lon="-3.54135">
        <ele>16</ele>
        <time>2019-07-15T11:19:03Z</time>
      </trkpt>
      <trkpt lat="47.82569" lon="-3.54133">
        <ele>16</ele>
        <time>2019-07-15T11:19:04Z</time>
      </trkpt>
      <trkpt lat="47.82564" lon="-3.54132">
        <ele>16</ele>
        <time>2019-07-15T11:19:05Z</time>
      </trkpt>
      <trkpt lat="47.82559" lon="-3.54131">
        <ele>16</ele>
        <time>2019-07-15T11:19:06Z</time>
      </trkpt>
      <trkpt lat="47.82553" lon="-3.54131">
        <ele>16</ele>
        <time>2019-07-15T11:19:07Z</time>
      </trkpt>
      <trkpt lat="47.82547" lon="-3.5413">
        <ele>16</ele>
        <time>2019-07-15T11:19:08Z</time>
      </trkpt>
      <trkpt lat="47.82542" lon="-3.5413">
        <ele>16</ele>
        <time>2019-07-15T11:19:09Z</time>
      </trkpt>
      <trkpt lat="47.82537" lon="-3.5413">
        <ele>16</ele>
        <time>2019-07-15T11:19:10Z</time>
      </trkpt>
      <trkpt lat="47.82532" lon="-3.5413">
        <ele>16</ele>
        <time>2019-07-15T11:19:11Z</time>
      </trkpt>
      <trkpt lat="47.82527" lon="-3.5413">
        <ele>16</ele>
        <time>2019-07-15T11:19:12Z</time>
      </trkpt>
      <trkpt lat="47.82522" lon="-3.54132">
        <ele>16</ele>
        <time>2019-07-15T11:19:13Z</time>
      </trkpt>
      <trkpt lat="47.82517" lon="-3.54133">
        <ele>16</ele>
        <time>2019-07-15T11:19:14Z</time>
      </trkpt>
      <trkpt lat="47.82511" lon="-3.54134">
        <ele>16</ele>
        <time>2019-07-15T11:19:15Z</time>
      </trkpt>
      <trkpt lat="47.82506" lon="-3.54134">
        <ele>16</ele>
        <time>2019-07-15T11:19:16Z</time>
      </trkpt>
      <trkpt lat="47.825" lon="-3.54135">
        <ele>16</ele>
        <time>2019-07-15T11:19:17Z</time>
      </trkpt>
      <trkpt lat="47.82495" lon="-3.54136">
        <ele>16</ele>
        <time>2019-07-15T11:19:18Z</time>
      </trkpt>
      <trkpt lat="47.8249" lon="-3.54136">
        <ele>16</ele>
        <time>2019-07-15T11:19:19Z</time>
      </trkpt>
      <trkpt lat="47.82486" lon="-3.54137">
        <ele>16</ele>
        <time>2019-07-15T11:19:20Z</time>
      </trkpt>
      <trkpt lat="47.82481" lon="-3.54138">
        <ele>16</ele>
        <time>2019-07-15T11:19:21Z</time>
      </trkpt>
      <trkpt lat="47.82476" lon="-3.54139">
        <ele>16</ele>
        <time>2019-07-15T11:19:22Z</time>
      </trkpt>
      <trkpt lat="47.82472" lon="-3.5414">
        <ele>16</ele>
        <time>2019-07-15T11:19:23Z</time>
      </trkpt>
      <trkpt lat="47.82467" lon="-3.54142">
        <ele>16</ele>
        <time>2019-07-15T11:19:24Z</time>
      </trkpt>
      <trkpt lat="47.82462" lon="-3.54143">
        <ele>16</ele>
        <time>2019-07-15T11:19:25Z</time>
      </trkpt>
      <trkpt lat="47.82457" lon="-3.54145">
        <ele>16</ele>
        <time>2019-07-15T11:19:26Z</time>
      </trkpt>
      <trkpt lat="47.82452" lon="-3.54146">
        <ele>16</ele>
        <time>2019-07-15T11:19:27Z</time>
      </trkpt>
      <trkpt lat="47.82447" lon="-3.54149">
        <ele>16</ele>
        <time>2019-07-15T11:19:28Z</time>
      </trkpt>
      <trkpt lat="47.82442" lon="-3.54152">
        <ele>16</ele>
        <time>2019-07-15T11:19:29Z</time>
      </trkpt>
      <trkpt lat="47.82437" lon="-3.54154">
        <ele>16</ele>
        <time>2019-07-15T11:19:30Z</time>
      </trkpt>
      <trkpt lat="47.82433" lon="-3.54157">
        <ele>16</ele>
        <time>2019-07-15T11:19:31Z</time>
      </trkpt>
      <trkpt lat="47.82429" lon="-3.54161">
        <ele>16</ele>
        <time>2019-07-15T11:19:32Z</time>
      </trkpt>
      <trkpt lat="47.82426" lon="-3.54166">
        <ele>16</ele>
        <time>2019-07-15T11:19:33Z</time>
      </trkpt>
      <trkpt lat="47.82423" lon="-3.54171">
        <ele>16</ele>
        <time>2019-07-15T11:19:34Z</time>
      </trkpt>
      <trkpt lat="47.82421" lon="-3.54175">
        <ele>15</ele>
        <time>2019-07-15T11:19:35Z</time>
      </trkpt>
      <trkpt lat="47.82418" lon="-3.54179">
        <ele>15</ele>
        <time>2019-07-15T11:19:36Z</time>
      </trkpt>
      <trkpt lat="47.82415" lon="-3.54183">
        <ele>15</ele>
        <time>2019-07-15T11:19:37Z</time>
      </trkpt>
      <trkpt lat="47.82412" lon="-3.54188">
        <ele>15</ele>
        <time>2019-07-15T11:19:38Z</time>
      </trkpt>
      <trkpt lat="47.82409" lon="-3.54192">
        <ele>15</ele>
        <time>2019-07-15T11:19:39Z</time>
      </trkpt>
      <trkpt lat="47.82406" lon="-3.54196">
        <ele>15</ele>
        <time>2019-07-15T11:19:40Z</time>
      </trkpt>
      <trkpt lat="47.82403" lon="-3.542">
        <ele>15</ele>
        <time>2019-07-15T11:19:41Z</time>
      </trkpt>
      <trkpt lat="47.82401" lon="-3.54204">
        <ele>16</ele>
        <time>2019-07-15T11:19:42Z</time>
      </trkpt>
      <trkpt lat="47.82397" lon="-3.54209">
        <ele>16</ele>
        <time>2019-07-15T11:19:43Z</time>
      </trkpt>
      <trkpt lat="47.82394" lon="-3.54214">
        <ele>16</ele>
        <time>2019-07-15T11:19:44Z</time>
      </trkpt>
      <trkpt lat="47.82391" lon="-3.54218">
        <ele>16</ele>
        <time>2019-07-15T11:19:45Z</time>
      </trkpt>
      <trkpt lat="47.82388" lon="-3.54223">
        <ele>16</ele>
        <time>2019-07-15T11:19:46Z</time>
      </trkpt>
      <trkpt lat="47.82385" lon="-3.54227">
        <ele>16</ele>
        <time>2019-07-15T11:19:47Z</time>
      </trkpt>
      <trkpt lat="47.82383" lon="-3.54232">
        <ele>16</ele>
        <time>2019-07-15T11:19:48Z</time>
      </trkpt>
      <trkpt lat="47.8238" lon="-3.54237">
        <ele>16</ele>
        <time>2019-07-15T11:19:49Z</time>
      </trkpt>
      <trkpt lat="47.82377" lon="-3.54241">
        <ele>16</ele>
        <time>2019-07-15T11:19:50Z</time>
      </trkpt>
      <trkpt lat="47.82374" lon="-3.54246">
        <ele>16</ele>
        <time>2019-07-15T11:19:51Z</time>
      </trkpt>
      <trkpt lat="47.82371" lon="-3.54251">
        <ele>16</ele>
        <time>2019-07-15T11:19:52Z</time>
      </trkpt>
      <trkpt lat="47.82369" lon="-3.54256">
        <ele>17</ele>
        <time>2019-07-15T11:19:53Z</time>
      </trkpt>
      <trkpt lat="47.82367" lon="-3.54261">
        <ele>17</ele>
        <time>2019-07-15T11:19:54Z</time>
      </trkpt>
      <trkpt lat="47.82364" lon="-3.54267">
        <ele>17</ele>
        <time>2019-07-15T11:19:55Z</time>
      </trkpt>
      <trkpt lat="47.82364" lon="-3.54272">
        <ele>17</ele>
        <time>2019-07-15T11:19:56Z</time>
      </trkpt>
      <trkpt lat="47.82364" lon="-3.54276">
        <ele>17</ele>
        <time>2019-07-15T11:19:57Z</time>
      </trkpt>
      <trkpt lat="47.82365" lon="-3.54279">
        <ele>18</ele>
        <time>2019-07-15T11:19:58Z</time>
      </trkpt>
      <trkpt lat="47.82364" lon="-3.5428">
        <ele>18</ele>
        <time>2019-07-15T11:19:59Z</time>
      </trkpt>
      <trkpt lat="47.82364" lon="-3.5428">
        <ele>18</ele>
        <time>2019-07-15T11:20:00Z</time>
      </trkpt>
      <trkpt lat="47.82364" lon="-3.54281">
        <ele>19</ele>
        <time>2019-07-15T11:20:01Z</time>
      </trkpt>
      <trkpt lat="47.82363" lon="-3.54281">
        <ele>19</ele>
        <time>2019-07-15T11:20:02Z</time>
      </trkpt>
      <trkpt lat="47.8236" lon="-3.54288">
        <ele>20</ele>
        <time>2019-07-15T11:20:03Z</time>
      </trkpt>
      <trkpt lat="47.82358" lon="-3.54291">
        <ele>20</ele>
        <time>2019-07-15T11:20:04Z</time>
      </trkpt>
      <trkpt lat="47.82357" lon="-3.54294">
        <ele>20</ele>
        <time>2019-07-15T11:20:05Z</time>
      </trkpt>
      <trkpt lat="47.82357" lon="-3.54297">
        <ele>20</ele>
        <time>2019-07-15T11:20:06Z</time>
      </trkpt>
      <trkpt lat="47.82357" lon="-3.543">
        <ele>20</ele>
        <time>2019-07-15T11:20:07Z</time>
      </trkpt>
      <trkpt lat="47.82358" lon="-3.54303">
        <ele>21</ele>
        <time>2019-07-15T11:20:08Z</time>
      </trkpt>
      <trkpt lat="47.8236" lon="-3.54306">
        <ele>21</ele>
        <time>2019-07-15T11:20:09Z</time>
      </trkpt>
      <trkpt lat="47.82361" lon="-3.54307">
        <ele>21</ele>
        <time>2019-07-15T11:20:10Z</time>
      </trkpt>
      <trkpt lat="47.82363" lon="-3.54309">
        <ele>21</ele>
        <time>2019-07-15T11:20:11Z</time>
      </trkpt>
      <trkpt lat="47.82365" lon="-3.54309">
        <ele>21</ele>
        <time>2019-07-15T11:20:12Z</time>
      </trkpt>
      <trkpt lat="47.82367" lon="-3.54311">
        <ele>21</ele>
        <time>2019-07-15T11:20:13Z</time>
      </trkpt>
      <trkpt lat="47.8237" lon="-3.54316">
        <ele>22</ele>
        <time>2019-07-15T11:20:14Z</time>
      </trkpt>
      <trkpt lat="47.82374" lon="-3.5432">
        <ele>22</ele>
        <time>2019-07-15T11:20:15Z</time>
      </trkpt>
      <trkpt lat="47.82377" lon="-3.54326">
        <ele>22</ele>
        <time>2019-07-15T11:20:16Z</time>
      </trkpt>
      <trkpt lat="47.8238" lon="-3.54332">
        <ele>22</ele>
        <time>2019-07-15T11:20:17Z</time>
      </trkpt>
      <trkpt lat="47.82383" lon="-3.54337">
        <ele>23</ele>
        <time>2019-07-15T11:20:18Z</time>
      </trkpt>
      <trkpt lat="47.82385" lon="-3.54343">
        <ele>23</ele>
        <time>2019-07-15T11:20:19Z</time>
      </trkpt>
      <trkpt lat="47.82387" lon="-3.54349">
        <ele>23</ele>
        <time>2019-07-15T11:20:20Z</time>
      </trkpt>
      <trkpt lat="47.82387" lon="-3.54357">
        <ele>24</ele>
        <time>2019-07-15T11:20:21Z</time>
      </trkpt>
      <trkpt lat="47.82387" lon="-3.54366">
        <ele>24</ele>
        <time>2019-07-15T11:20:22Z</time>
      </trkpt>
      <trkpt lat="47.82386" lon="-3.54374">
        <ele>24</ele>
        <time>2019-07-15T11:20:23Z</time>
      </trkpt>
      <trkpt lat="47.82385" lon="-3.54383">
        <ele>25</ele>
        <time>2019-07-15T11:20:24Z</time>
      </trkpt>
      <trkpt lat="47.82383" lon="-3.54392">
        <ele>25</ele>
        <time>2019-07-15T11:20:25Z</time>
      </trkpt>
      <trkpt lat="47.8238" lon="-3.54402">
        <ele>25</ele>
        <time>2019-07-15T11:20:26Z</time>
      </trkpt>
      <trkpt lat="47.82379" lon="-3.54411">
        <ele>26</ele>
        <time>2019-07-15T11:20:27Z</time>
      </trkpt>
      <trkpt lat="47.82377" lon="-3.54419">
        <ele>26</ele>
        <time>2019-07-15T11:20:28Z</time>
      </trkpt>
      <trkpt lat="47.82375" lon="-3.54426">
        <ele>26</ele>
        <time>2019-07-15T11:20:29Z</time>
      </trkpt>
      <trkpt lat="47.82374" lon="-3.54431">
        <ele>27</ele>
        <time>2019-07-15T11:20:30Z</time>
      </trkpt>
      <trkpt lat="47.82372" lon="-3.54433">
        <ele>27</ele>
        <time>2019-07-15T11:20:31Z</time>
      </trkpt>
      <trkpt lat="47.82372" lon="-3.54435">
        <ele>28</ele>
        <time>2019-07-15T11:20:32Z</time>
      </trkpt>
      <trkpt lat="47.82371" lon="-3.54435">
        <ele>28</ele>
        <time>2019-07-15T11:20:33Z</time>
      </trkpt>
      <trkpt lat="47.82371" lon="-3.54436">
        <ele>28</ele>
        <time>2019-07-15T11:20:34Z</time>
      </trkpt>
      <trkpt lat="47.82371" lon="-3.54437">
        <ele>29</ele>
        <time>2019-07-15T11:20:35Z</time>
      </trkpt>
      <trkpt lat="47.82371" lon="-3.54438">
        <ele>29</ele>
        <time>2019-07-15T11:20:36Z</time>
      </trkpt>
      <trkpt lat="47.82371" lon="-3.54439">
        <ele>29</ele>
        <time>2019-07-15T11:20:37Z</time>
      </trkpt>
      <trkpt lat="47.8237" lon="-3.5444">
        <ele>29</ele>
        <time>2019-07-15T11:20:38Z</time>
      </trkpt>
      <trkpt lat="47.8237" lon="-3.54445">
        <ele>30</ele>
        <time>2019-07-15T11:20:39Z</time>
      </trkpt>
      <trkpt lat="47.8237" lon="-3.54445">
        <ele>30</ele>
        <time>2019-07-15T11:20:40Z</time>
      </trkpt>
      <trkpt lat="47.82369" lon="-3.54454">
        <ele>31</ele>
        <time>2019-07-15T11:20:41Z</time>
      </trkpt>
      <trkpt lat="47.82369" lon="-3.54457">
        <ele>31</ele>
        <time>2019-07-15T11:20:42Z</time>
      </trkpt>
      <trkpt lat="47.82368" lon="-3.54461">
        <ele>31</ele>
        <time>2019-07-15T11:20:43Z</time>
      </trkpt>
      <trkpt lat="47.82367" lon="-3.54465">
        <ele>31</ele>
        <time>2019-07-15T11:20:44Z</time>
      </trkpt>
      <trkpt lat="47.82365" lon="-3.54471">
        <ele>31</ele>
        <time>2019-07-15T11:20:45Z</time>
      </trkpt>
      <trkpt lat="47.82364" lon="-3.54477">
        <ele>31</ele>
        <time>2019-07-15T11:20:46Z</time>
      </trkpt>
      <trkpt lat="47.82364" lon="-3.54482">
        <ele>31</ele>
        <time>2019-07-15T11:20:47Z</time>
      </trkpt>
      <trkpt lat="47.82365" lon="-3.54488">
        <ele>31</ele>
        <time>2019-07-15T11:20:48Z</time>
      </trkpt>
      <trkpt lat="47.82367" lon="-3.54494">
        <ele>31</ele>
        <time>2019-07-15T11:20:49Z</time>
      </trkpt>
      <trkpt lat="47.82368" lon="-3.54499">
        <ele>31</ele>
        <time>2019-07-15T11:20:50Z</time>
      </trkpt>
      <trkpt lat="47.82369" lon="-3.54502">
        <ele>31</ele>
        <time>2019-07-15T11:20:51Z</time>
      </trkpt>
      <trkpt lat="47.8237" lon="-3.54506">
        <ele>31</ele>
        <time>2019-07-15T11:20:52Z</time>
      </trkpt>
      <trkpt lat="47.82371" lon="-3.5451">
        <ele>31</ele>
        <time>2019-07-15T11:20:53Z</time>
      </trkpt>
      <trkpt lat="47.82372" lon="-3.54513">
        <ele>31</ele>
        <time>2019-07-15T11:20:54Z</time>
      </trkpt>
      <trkpt lat="47.82372" lon="-3.54517">
        <ele>31</ele>
        <time>2019-07-15T11:20:55Z</time>
      </trkpt>
      <trkpt lat="47.82372" lon="-3.54522">
        <ele>31</ele>
        <time>2019-07-15T11:20:56Z</time>
      </trkpt>
      <trkpt lat="47.82372" lon="-3.54529">
        <ele>31</ele>
        <time>2019-07-15T11:20:57Z</time>
      </trkpt>
      <trkpt lat="47.82371" lon="-3.54535">
        <ele>31</ele>
        <time>2019-07-15T11:20:58Z</time>
      </trkpt>
      <trkpt lat="47.8237" lon="-3.54542">
        <ele>31</ele>
        <time>2019-07-15T11:20:59Z</time>
      </trkpt>
      <trkpt lat="47.8237" lon="-3.54549">
        <ele>31</ele>
        <time>2019-07-15T11:21:00Z</time>
      </trkpt>
      <trkpt lat="47.8237" lon="-3.54555">
        <ele>30</ele>
        <time>2019-07-15T11:21:01Z</time>
      </trkpt>
      <trkpt lat="47.8237" lon="-3.54562">
        <ele>30</ele>
        <time>2019-07-15T11:21:02Z</time>
      </trkpt>
      <trkpt lat="47.8237" lon="-3.54568">
        <ele>30</ele>
        <time>2019-07-15T11:21:03Z</time>
      </trkpt>
      <trkpt lat="47.8237" lon="-3.54574">
        <ele>30</ele>
        <time>2019-07-15T11:21:04Z</time>
      </trkpt>
      <trkpt lat="47.82369" lon="-3.54579">
        <ele>30</ele>
        <time>2019-07-15T11:21:05Z</time>
      </trkpt>
      <trkpt lat="47.82367" lon="-3.54584">
        <ele>30</ele>
        <time>2019-07-15T11:21:06Z</time>
      </trkpt>
      <trkpt lat="47.82365" lon="-3.54588">
        <ele>30</ele>
        <time>2019-07-15T11:21:07Z</time>
      </trkpt>
      <trkpt lat="47.82362" lon="-3.54592">
        <ele>29</ele>
        <time>2019-07-15T11:21:08Z</time>
      </trkpt>
      <trkpt lat="47.8236" lon="-3.54596">
        <ele>29</ele>
        <time>2019-07-15T11:21:09Z</time>
      </trkpt>
      <trkpt lat="47.82357" lon="-3.54598">
        <ele>29</ele>
        <time>2019-07-15T11:21:10Z</time>
      </trkpt>
      <trkpt lat="47.82355" lon="-3.546">
        <ele>29</ele>
        <time>2019-07-15T11:21:11Z</time>
      </trkpt>
      <trkpt lat="47.82354" lon="-3.54601">
        <ele>28</ele>
        <time>2019-07-15T11:21:12Z</time>
      </trkpt>
      <trkpt lat="47.82354" lon="-3.54601">
        <ele>28</ele>
        <time>2019-07-15T11:21:13Z</time>
      </trkpt>
      <trkpt lat="47.82354" lon="-3.54601">
        <ele>28</ele>
        <time>2019-07-15T11:21:14Z</time>
      </trkpt>
      <trkpt lat="47.82354" lon="-3.54599">
        <ele>28</ele>
        <time>2019-07-15T11:21:15Z</time>
      </trkpt>
      <trkpt lat="47.82354" lon="-3.54596">
        <ele>28</ele>
        <time>2019-07-15T11:21:16Z</time>
      </trkpt>
      <trkpt lat="47.82354" lon="-3.54592">
        <ele>27</ele>
        <time>2019-07-15T11:21:17Z</time>
      </trkpt>
      <trkpt lat="47.82353" lon="-3.54587">
        <ele>27</ele>
        <time>2019-07-15T11:21:18Z</time>
      </trkpt>
      <trkpt lat="47.82353" lon="-3.54582">
        <ele>27</ele>
        <time>2019-07-15T11:21:19Z</time>
      </trkpt>
      <trkpt lat="47.82353" lon="-3.54576">
        <ele>26</ele>
        <time>2019-07-15T11:21:20Z</time>
      </trkpt>
      <trkpt lat="47.82352" lon="-3.54572">
        <ele>26</ele>
        <time>2019-07-15T11:21:21Z</time>
      </trkpt>
      <trkpt lat="47.82351" lon="-3.54568">
        <ele>26</ele>
        <time>2019-07-15T11:21:22Z</time>
      </trkpt>
      <trkpt lat="47.8235" lon="-3.54564">
        <ele>25</ele>
        <time>2019-07-15T11:21:23Z</time>
      </trkpt>
      <trkpt lat="47.82349" lon="-3.5456">
        <ele>25</ele>
        <time>2019-07-15T11:21:24Z</time>
      </trkpt>
      <trkpt lat="47.82349" lon="-3.54556">
        <ele>25</ele>
        <time>2019-07-15T11:21:25Z</time>
      </trkpt>
      <trkpt lat="47.82348" lon="-3.54552">
        <ele>25</ele>
        <time>2019-07-15T11:21:26Z</time>
      </trkpt>
      <trkpt lat="47.82348" lon="-3.54548">
        <ele>24</ele>
        <time>2019-07-15T11:21:27Z</time>
      </trkpt>
      <trkpt lat="47.82348" lon="-3.54543">
        <ele>24</ele>
        <time>2019-07-15T11:21:28Z</time>
      </trkpt>
      <trkpt lat="47.82348" lon="-3.54538">
        <ele>24</ele>
        <time>2019-07-15T11:21:29Z</time>
      </trkpt>
      <trkpt lat="47.82347" lon="-3.54532">
        <ele>24</ele>
        <time>2019-07-15T11:21:30Z</time>
      </trkpt>
      <trkpt lat="47.82345" lon="-3.54526">
        <ele>23</ele>
        <time>2019-07-15T11:21:31Z</time>
      </trkpt>
      <trkpt lat="47.82345" lon="-3.54519">
        <ele>23</ele>
        <time>2019-07-15T11:21:32Z</time>
      </trkpt>
      <trkpt lat="47.82344" lon="-3.54512">
        <ele>23</ele>
        <time>2019-07-15T11:21:33Z</time>
      </trkpt>
      <trkpt lat="47.82344" lon="-3.54505">
        <ele>23</ele>
        <time>2019-07-15T11:21:34Z</time>
      </trkpt>
      <trkpt lat="47.82342" lon="-3.54498">
        <ele>22</ele>
        <time>2019-07-15T11:21:35Z</time>
      </trkpt>
      <trkpt lat="47.82341" lon="-3.54492">
        <ele>22</ele>
        <time>2019-07-15T11:21:36Z</time>
      </trkpt>
      <trkpt lat="47.82339" lon="-3.54485">
        <ele>22</ele>
        <time>2019-07-15T11:21:37Z</time>
      </trkpt>
      <trkpt lat="47.82338" lon="-3.54479">
        <ele>22</ele>
        <time>2019-07-15T11:21:38Z</time>
      </trkpt>
      <trkpt lat="47.82338" lon="-3.54474">
        <ele>22</ele>
        <time>2019-07-15T11:21:39Z</time>
      </trkpt>
      <trkpt lat="47.82339" lon="-3.54469">
        <ele>22</ele>
        <time>2019-07-15T11:21:40Z</time>
      </trkpt>
      <trkpt lat="47.82338" lon="-3.54464">
        <ele>22</ele>
        <time>2019-07-15T11:21:41Z</time>
      </trkpt>
      <trkpt lat="47.82337" lon="-3.54459">
        <ele>21</ele>
        <time>2019-07-15T11:21:42Z</time>
      </trkpt>
      <trkpt lat="47.82334" lon="-3.54454">
        <ele>21</ele>
        <time>2019-07-15T11:21:43Z</time>
      </trkpt>
      <trkpt lat="47.82331" lon="-3.54449">
        <ele>21</ele>
        <time>2019-07-15T11:21:44Z</time>
      </trkpt>
      <trkpt lat="47.82328" lon="-3.54444">
        <ele>21</ele>
        <time>2019-07-15T11:21:45Z</time>
      </trkpt>
      <trkpt lat="47.82326" lon="-3.54439">
        <ele>21</ele>
        <time>2019-07-15T11:21:46Z</time>
      </trkpt>
      <trkpt lat="47.82324" lon="-3.54434">
        <ele>20</ele>
        <time>2019-07-15T11:21:47Z</time>
      </trkpt>
      <trkpt lat="47.82322" lon="-3.54429">
        <ele>20</ele>
        <time>2019-07-15T11:21:48Z</time>
      </trkpt>
      <trkpt lat="47.8232" lon="-3.54425">
        <ele>20</ele>
        <time>2019-07-15T11:21:49Z</time>
      </trkpt>
      <trkpt lat="47.82319" lon="-3.5442">
        <ele>20</ele>
        <time>2019-07-15T11:21:50Z</time>
      </trkpt>
      <trkpt lat="47.82319" lon="-3.54416">
        <ele>19</ele>
        <time>2019-07-15T11:21:51Z</time>
      </trkpt>
      <trkpt lat="47.82318" lon="-3.54412">
        <ele>19</ele>
        <time>2019-07-15T11:21:52Z</time>
      </trkpt>
      <trkpt lat="47.82317" lon="-3.54407">
        <ele>19</ele>
        <time>2019-07-15T11:21:53Z</time>
      </trkpt>
      <trkpt lat="47.82316" lon="-3.54404">
        <ele>19</ele>
        <time>2019-07-15T11:21:54Z</time>
      </trkpt>
      <trkpt lat="47.82315" lon="-3.54403">
        <ele>18</ele>
        <time>2019-07-15T11:21:55Z</time>
      </trkpt>
      <trkpt lat="47.82314" lon="-3.54402">
        <ele>18</ele>
        <time>2019-07-15T11:21:56Z</time>
      </trkpt>
      <trkpt lat="47.82313" lon="-3.54401">
        <ele>18</ele>
        <time>2019-07-15T11:21:57Z</time>
      </trkpt>
      <trkpt lat="47.82313" lon="-3.54401">
        <ele>18</ele>
        <time>2019-07-15T11:21:58Z</time>
      </trkpt>
      <trkpt lat="47.8231" lon="-3.54392">
        <ele>16</ele>
        <time>2019-07-15T11:21:59Z</time>
      </trkpt>
      <trkpt lat="47.82311" lon="-3.54389">
        <ele>16</ele>
        <time>2019-07-15T11:22:00Z</time>
      </trkpt>
      <trkpt lat="47.82312" lon="-3.54386">
        <ele>15</ele>
        <time>2019-07-15T11:22:01Z</time>
      </trkpt>
      <trkpt lat="47.82312" lon="-3.54384">
        <ele>15</ele>
        <time>2019-07-15T11:22:02Z</time>
      </trkpt>
      <trkpt lat="47.82312" lon="-3.54383">
        <ele>15</ele>
        <time>2019-07-15T11:22:03Z</time>
      </trkpt>
      <trkpt lat="47.82313" lon="-3.54382">
        <ele>14</ele>
        <time>2019-07-15T11:22:04Z</time>
      </trkpt>
      <trkpt lat="47.82313" lon="-3.54382">
        <ele>14</ele>
        <time>2019-07-15T11:22:05Z</time>
      </trkpt>
      <trkpt lat="47.82315" lon="-3.54373">
        <ele>11</ele>
        <time>2019-07-15T11:22:06Z</time>
      </trkpt>
      <trkpt lat="47.82316" lon="-3.54371">
        <ele>11</ele>
        <time>2019-07-15T11:22:07Z</time>
      </trkpt>
      <trkpt lat="47.82316" lon="-3.5437">
        <ele>11</ele>
        <time>2019-07-15T11:22:08Z</time>
      </trkpt>
      <trkpt lat="47.82316" lon="-3.5437">
        <ele>10</ele>
        <time>2019-07-15T11:22:09Z</time>
      </trkpt>
      <trkpt lat="47.82314" lon="-3.54371">
        <ele>7</ele>
        <time>2019-07-15T11:22:10Z</time>
      </trkpt>
      <trkpt lat="47.82313" lon="-3.54372">
        <ele>6</ele>
        <time>2019-07-15T11:22:11Z</time>
      </trkpt>
      <trkpt lat="47.8231" lon="-3.54374">
        <ele>5</ele>
        <time>2019-07-15T11:22:12Z</time>
      </trkpt>
      <trkpt lat="47.82308" lon="-3.54376">
        <ele>4</ele>
        <time>2019-07-15T11:22:13Z</time>
      </trkpt>
      <trkpt lat="47.82307" lon="-3.54379">
        <ele>4</ele>
        <time>2019-07-15T11:22:14Z</time>
      </trkpt>
      <trkpt lat="47.82305" lon="-3.54383">
        <ele>4</ele>
        <time>2019-07-15T11:22:15Z</time>
      </trkpt>
      <trkpt lat="47.82303" lon="-3.54386">
        <ele>4</ele>
        <time>2019-07-15T11:22:16Z</time>
      </trkpt>
      <trkpt lat="47.82302" lon="-3.54389">
        <ele>3</ele>
        <time>2019-07-15T11:22:17Z</time>
      </trkpt>
      <trkpt lat="47.82301" lon="-3.5439">
        <ele>3</ele>
        <time>2019-07-15T11:22:18Z</time>
      </trkpt>
      <trkpt lat="47.823" lon="-3.54391">
        <ele>3</ele>
        <time>2019-07-15T11:22:19Z</time>
      </trkpt>
      <trkpt lat="47.82299" lon="-3.54391">
        <ele>3</ele>
        <time>2019-07-15T11:22:20Z</time>
      </trkpt>
      <trkpt lat="47.82299" lon="-3.54391">
        <ele>3</ele>
        <time>2019-07-15T11:22:21Z</time>
      </trkpt>
      <trkpt lat="47.82295" lon="-3.54383">
        <ele>3</ele>
        <time>2019-07-15T11:22:22Z</time>
      </trkpt>
      <trkpt lat="47.82294" lon="-3.54382">
        <ele>3</ele>
        <time>2019-07-15T11:22:23Z</time>
      </trkpt>
      <trkpt lat="47.82295" lon="-3.54381">
        <ele>3</ele>
        <time>2019-07-15T11:22:24Z</time>
      </trkpt>
      <trkpt lat="47.82295" lon="-3.54379">
        <ele>3</ele>
        <time>2019-07-15T11:22:25Z</time>
      </trkpt>
      <trkpt lat="47.82287" lon="-3.54367">
        <ele>3</ele>
        <time>2019-07-15T11:22:26Z</time>
      </trkpt>
      <trkpt lat="47.82286" lon="-3.54367">
        <ele>3</ele>
        <time>2019-07-15T11:22:27Z</time>
      </trkpt>
      <trkpt lat="47.82286" lon="-3.54367">
        <ele>3</ele>
        <time>2019-07-15T11:22:28Z</time>
      </trkpt>
      <trkpt lat="47.82285" lon="-3.54367">
        <ele>3</ele>
        <time>2019-07-15T11:22:29Z</time>
      </trkpt>
      <trkpt lat="47.82284" lon="-3.54367">
        <ele>3</ele>
        <time>2019-07-15T11:22:30Z</time>
      </trkpt>
      <trkpt lat="47.82283" lon="-3.54368">
        <ele>3</ele>
        <time>2019-07-15T11:22:31Z</time>
      </trkpt>
      <trkpt lat="47.82278" lon="-3.54366">
        <ele>2</ele>
        <time>2019-07-15T11:22:32Z</time>
      </trkpt>
      <trkpt lat="47.82276" lon="-3.54367">
        <ele>2</ele>
        <time>2019-07-15T11:22:33Z</time>
      </trkpt>
      <trkpt lat="47.82276" lon="-3.54367">
        <ele>2</ele>
        <time>2019-07-15T11:22:34Z</time>
      </trkpt>
      <trkpt lat="47.82275" lon="-3.54367">
        <ele>2</ele>
        <time>2019-07-15T11:22:35Z</time>
      </trkpt>
      <trkpt lat="47.82274" lon="-3.54367">
        <ele>2</ele>
        <time>2019-07-15T11:22:36Z</time>
      </trkpt>
      <trkpt lat="47.82273" lon="-3.54367">
        <ele>2</ele>
        <time>2019-07-15T11:22:37Z</time>
      </trkpt>
      <trkpt lat="47.82272" lon="-3.54367">
        <ele>2</ele>
        <time>2019-07-15T11:22:38Z</time>
      </trkpt>
      <trkpt lat="47.82271" lon="-3.54367">
        <ele>1</ele>
        <time>2019-07-15T11:22:39Z</time>
      </trkpt>
      <trkpt lat="47.8227" lon="-3.54367">
        <ele>1</ele>
        <time>2019-07-15T11:22:40Z</time>
      </trkpt>
      <trkpt lat="47.82269" lon="-3.54366">
        <ele>1</ele>
        <time>2019-07-15T11:22:41Z</time>
      </trkpt>
      <trkpt lat="47.82269" lon="-3.54366">
        <ele>1</ele>
        <time>2019-07-15T11:22:42Z</time>
      </trkpt>
      <trkpt lat="47.82269" lon="-3.54366">
        <ele>1</ele>
        <time>2019-07-15T11:22:43Z</time>
      </trkpt>
      <trkpt lat="47.8226" lon="-3.54365">
        <ele>6.2</ele>
        <time>2019-07-15T11:22:44Z</time>
      </trkpt>
      <trkpt lat="47.82258" lon="-3.54363">
        <ele>6.1</ele>
        <time>2019-07-15T11:22:45Z</time>
      </trkpt>
      <trkpt lat="47.82256" lon="-3.54363">
        <ele>6.3</ele>
        <time>2019-07-15T11:22:46Z</time>
      </trkpt>
      <trkpt lat="47.82254" lon="-3.54363">
        <ele>6.2</ele>
        <time>2019-07-15T11:22:47Z</time>
      </trkpt>
      <trkpt lat="47.82252" lon="-3.54362">
        <ele>6.2</ele>
        <time>2019-07-15T11:22:48Z</time>
      </trkpt>
      <trkpt lat="47.8225" lon="-3.54361">
        <ele>6.1</ele>
        <time>2019-07-15T11:22:49Z</time>
      </trkpt>
      <trkpt lat="47.82248" lon="-3.54359">
        <ele>6.1</ele>
        <time>2019-07-15T11:22:50Z</time>
      </trkpt>
      <trkpt lat="47.82245" lon="-3.54358">
        <ele>6.3</ele>
        <time>2019-07-15T11:22:51Z</time>
      </trkpt>
      <trkpt lat="47.82243" lon="-3.54357">
        <ele>1</ele>
        <time>2019-07-15T11:22:52Z</time>
      </trkpt>
      <trkpt lat="47.82242" lon="-3.54358">
        <ele>1</ele>
        <time>2019-07-15T11:22:53Z</time>
      </trkpt>
      <trkpt lat="47.8224" lon="-3.54359">
        <ele>1</ele>
        <time>2019-07-15T11:22:54Z</time>
      </trkpt>
      <trkpt lat="47.82238" lon="-3.54359">
        <ele>1</ele>
        <time>2019-07-15T11:22:55Z</time>
      </trkpt>
      <trkpt lat="47.82237" lon="-3.5436">
        <ele>1</ele>
        <time>2019-07-15T11:22:56Z</time>
      </trkpt>
      <trkpt lat="47.82236" lon="-3.54361">
        <ele>1</ele>
        <time>2019-07-15T11:22:57Z</time>
      </trkpt>
      <trkpt lat="47.82234" lon="-3.54361">
        <ele>1</ele>
        <time>2019-07-15T11:22:58Z</time>
      </trkpt>
      <trkpt lat="47.82232" lon="-3.5436">
        <ele>2</ele>
        <time>2019-07-15T11:22:59Z</time>
      </trkpt>
      <trkpt lat="47.8223" lon="-3.54359">
        <ele>2</ele>
        <time>2019-07-15T11:23:00Z</time>
      </trkpt>
      <trkpt lat="47.82228" lon="-3.54358">
        <ele>2</ele>
        <time>2019-07-15T11:23:01Z</time>
      </trkpt>
      <trkpt lat="47.82226" lon="-3.54356">
        <ele>2</ele>
        <time>2019-07-15T11:23:02Z</time>
      </trkpt>
      <trkpt lat="47.82223" lon="-3.54355">
        <ele>2</ele>
        <time>2019-07-15T11:23:03Z</time>
      </trkpt>
      <trkpt lat="47.8222" lon="-3.54353">
        <ele>2</ele>
        <time>2019-07-15T11:23:04Z</time>
      </trkpt>
      <trkpt lat="47.82217" lon="-3.5435">
        <ele>3</ele>
        <time>2019-07-15T11:23:05Z</time>
      </trkpt>
      <trkpt lat="47.82216" lon="-3.54346">
        <ele>3</ele>
        <time>2019-07-15T11:23:06Z</time>
      </trkpt>
      <trkpt lat="47.82213" lon="-3.54341">
        <ele>3</ele>
        <time>2019-07-15T11:23:07Z</time>
      </trkpt>
      <trkpt lat="47.8221" lon="-3.54337">
        <ele>3</ele>
        <time>2019-07-15T11:23:08Z</time>
      </trkpt>
      <trkpt lat="47.82207" lon="-3.54333">
        <ele>4</ele>
        <time>2019-07-15T11:23:09Z</time>
      </trkpt>
      <trkpt lat="47.82204" lon="-3.5433">
        <ele>4</ele>
        <time>2019-07-15T11:23:10Z</time>
      </trkpt>
      <trkpt lat="47.822" lon="-3.54326">
        <ele>4</ele>
        <time>2019-07-15T11:23:11Z</time>
      </trkpt>
      <trkpt lat="47.82195" lon="-3.54324">
        <ele>4</ele>
        <time>2019-07-15T11:23:12Z</time>
      </trkpt>
      <trkpt lat="47.82191" lon="-3.54323">
        <ele>4</ele>
        <time>2019-07-15T11:23:13Z</time>
      </trkpt>
      <trkpt lat="47.82188" lon="-3.54321">
        <ele>5</ele>
        <time>2019-07-15T11:23:14Z</time>
      </trkpt>
      <trkpt lat="47.82186" lon="-3.54318">
        <ele>5</ele>
        <time>2019-07-15T11:23:15Z</time>
      </trkpt>
      <trkpt lat="47.82184" lon="-3.54313">
        <ele>5</ele>
        <time>2019-07-15T11:23:16Z</time>
      </trkpt>
      <trkpt lat="47.82181" lon="-3.5431">
        <ele>5</ele>
        <time>2019-07-15T11:23:17Z</time>
      </trkpt>
      <trkpt lat="47.82176" lon="-3.54308">
        <ele>5</ele>
        <time>2019-07-15T11:23:18Z</time>
      </trkpt>
      <trkpt lat="47.82172" lon="-3.54307">
        <ele>6</ele>
        <time>2019-07-15T11:23:19Z</time>
      </trkpt>
      <trkpt lat="47.82168" lon="-3.54306">
        <ele>6</ele>
        <time>2019-07-15T11:23:20Z</time>
      </trkpt>
      <trkpt lat="47.82165" lon="-3.54306">
        <ele>6</ele>
        <time>2019-07-15T11:23:21Z</time>
      </trkpt>
      <trkpt lat="47.82163" lon="-3.54304">
        <ele>6</ele>
        <time>2019-07-15T11:23:22Z</time>
      </trkpt>
      <trkpt lat="47.82159" lon="-3.54303">
        <ele>6</ele>
        <time>2019-07-15T11:23:23Z</time>
      </trkpt>
      <trkpt lat="47.82155" lon="-3.54301">
        <ele>7</ele>
        <time>2019-07-15T11:23:24Z</time>
      </trkpt>
      <trkpt lat="47.82152" lon="-3.543">
        <ele>7</ele>
        <time>2019-07-15T11:23:25Z</time>
      </trkpt>
      <trkpt lat="47.82148" lon="-3.54299">
        <ele>7</ele>
        <time>2019-07-15T11:23:26Z</time>
      </trkpt>
      <trkpt lat="47.82143" lon="-3.54297">
        <ele>7</ele>
        <time>2019-07-15T11:23:27Z</time>
      </trkpt>
      <trkpt lat="47.82139" lon="-3.54297">
        <ele>7</ele>
        <time>2019-07-15T11:23:28Z</time>
      </trkpt>
      <trkpt lat="47.82135" lon="-3.54298">
        <ele>8</ele>
        <time>2019-07-15T11:23:29Z</time>
      </trkpt>
      <trkpt lat="47.82131" lon="-3.543">
        <ele>8</ele>
        <time>2019-07-15T11:23:30Z</time>
      </trkpt>
      <trkpt lat="47.82127" lon="-3.54302">
        <ele>8</ele>
        <time>2019-07-15T11:23:31Z</time>
      </trkpt>
      <trkpt lat="47.82124" lon="-3.54304">
        <ele>9</ele>
        <time>2019-07-15T11:23:32Z</time>
      </trkpt>
      <trkpt lat="47.82122" lon="-3.54305">
        <ele>9</ele>
        <time>2019-07-15T11:23:33Z</time>
      </trkpt>
      <trkpt lat="47.82119" lon="-3.54307">
        <ele>9</ele>
        <time>2019-07-15T11:23:34Z</time>
      </trkpt>
      <trkpt lat="47.82116" lon="-3.54309">
        <ele>10</ele>
        <time>2019-07-15T11:23:35Z</time>
      </trkpt>
      <trkpt lat="47.82114" lon="-3.5431">
        <ele>10</ele>
        <time>2019-07-15T11:23:36Z</time>
      </trkpt>
      <trkpt lat="47.82112" lon="-3.54311">
        <ele>11</ele>
        <time>2019-07-15T11:23:37Z</time>
      </trkpt>
      <trkpt lat="47.8211" lon="-3.54312">
        <ele>11</ele>
        <time>2019-07-15T11:23:38Z</time>
      </trkpt>
      <trkpt lat="47.82107" lon="-3.54314">
        <ele>11</ele>
        <time>2019-07-15T11:23:39Z</time>
      </trkpt>
      <trkpt lat="47.82105" lon="-3.54316">
        <ele>12</ele>
        <time>2019-07-15T11:23:40Z</time>
      </trkpt>
      <trkpt lat="47.82102" lon="-3.54316">
        <ele>12</ele>
        <time>2019-07-15T11:23:41Z</time>
      </trkpt>
      <trkpt lat="47.82099" lon="-3.54317">
        <ele>12</ele>
        <time>2019-07-15T11:23:42Z</time>
      </trkpt>
      <trkpt lat="47.82096" lon="-3.54319">
        <ele>13</ele>
        <time>2019-07-15T11:23:43Z</time>
      </trkpt>
      <trkpt lat="47.82094" lon="-3.54321">
        <ele>13</ele>
        <time>2019-07-15T11:23:44Z</time>
      </trkpt>
      <trkpt lat="47.82091" lon="-3.54323">
        <ele>13</ele>
        <time>2019-07-15T11:23:45Z</time>
      </trkpt>
      <trkpt lat="47.82088" lon="-3.54323">
        <ele>14</ele>
        <time>2019-07-15T11:23:46Z</time>
      </trkpt>
      <trkpt lat="47.82086" lon="-3.54324">
        <ele>14</ele>
        <time>2019-07-15T11:23:47Z</time>
      </trkpt>
      <trkpt lat="47.82083" lon="-3.54325">
        <ele>15</ele>
        <time>2019-07-15T11:23:48Z</time>
      </trkpt>
      <trkpt lat="47.8208" lon="-3.54326">
        <ele>15</ele>
        <time>2019-07-15T11:23:49Z</time>
      </trkpt>
      <trkpt lat="47.82077" lon="-3.54327">
        <ele>15</ele>
        <time>2019-07-15T11:23:50Z</time>
      </trkpt>
      <trkpt lat="47.82075" lon="-3.54329">
        <ele>16</ele>
        <time>2019-07-15T11:23:51Z</time>
      </trkpt>
      <trkpt lat="47.82073" lon="-3.54331">
        <ele>16</ele>
        <time>2019-07-15T11:23:52Z</time>
      </trkpt>
      <trkpt lat="47.82071" lon="-3.54332">
        <ele>17</ele>
        <time>2019-07-15T11:23:53Z</time>
      </trkpt>
      <trkpt lat="47.82069" lon="-3.54333">
        <ele>17</ele>
        <time>2019-07-15T11:23:54Z</time>
      </trkpt>
      <trkpt lat="47.82067" lon="-3.54335">
        <ele>17</ele>
        <time>2019-07-15T11:23:55Z</time>
      </trkpt>
      <trkpt lat="47.82065" lon="-3.54337">
        <ele>18</ele>
        <time>2019-07-15T11:23:56Z</time>
      </trkpt>
      <trkpt lat="47.82062" lon="-3.54338">
        <ele>18</ele>
        <time>2019-07-15T11:23:57Z</time>
      </trkpt>
      <trkpt lat="47.8206" lon="-3.54339">
        <ele>19</ele>
        <time>2019-07-15T11:23:58Z</time>
      </trkpt>
      <trkpt lat="47.82059" lon="-3.5434">
        <ele>19</ele>
        <time>2019-07-15T11:23:59Z</time>
      </trkpt>
      <trkpt lat="47.82056" lon="-3.54342">
        <ele>19</ele>
        <time>2019-07-15T11:24:00Z</time>
      </trkpt>
      <trkpt lat="47.82053" lon="-3.54343">
        <ele>20</ele>
        <time>2019-07-15T11:24:01Z</time>
      </trkpt>
      <trkpt lat="47.82051" lon="-3.54346">
        <ele>20</ele>
        <time>2019-07-15T11:24:02Z</time>
      </trkpt>
      <trkpt lat="47.82049" lon="-3.54347">
        <ele>20</ele>
        <time>2019-07-15T11:24:03Z</time>
      </trkpt>
      <trkpt lat="47.82047" lon="-3.54349">
        <ele>21</ele>
        <time>2019-07-15T11:24:04Z</time>
      </trkpt>
      <trkpt lat="47.82045" lon="-3.54351">
        <ele>21</ele>
        <time>2019-07-15T11:24:05Z</time>
      </trkpt>
      <trkpt lat="47.82043" lon="-3.54353">
        <ele>22</ele>
        <time>2019-07-15T11:24:06Z</time>
      </trkpt>
      <trkpt lat="47.82041" lon="-3.54354">
        <ele>22</ele>
        <time>2019-07-15T11:24:07Z</time>
      </trkpt>
      <trkpt lat="47.82039" lon="-3.54355">
        <ele>22</ele>
        <time>2019-07-15T11:24:08Z</time>
      </trkpt>
      <trkpt lat="47.82036" lon="-3.54356">
        <ele>23</ele>
        <time>2019-07-15T11:24:09Z</time>
      </trkpt>
      <trkpt lat="47.82034" lon="-3.54358">
        <ele>23</ele>
        <time>2019-07-15T11:24:10Z</time>
      </trkpt>
      <trkpt lat="47.82032" lon="-3.5436">
        <ele>23</ele>
        <time>2019-07-15T11:24:11Z</time>
      </trkpt>
      <trkpt lat="47.8203" lon="-3.54361">
        <ele>23</ele>
        <time>2019-07-15T11:24:12Z</time>
      </trkpt>
      <trkpt lat="47.82027" lon="-3.54363">
        <ele>24</ele>
        <time>2019-07-15T11:24:13Z</time>
      </trkpt>
      <trkpt lat="47.82025" lon="-3.54364">
        <ele>24</ele>
        <time>2019-07-15T11:24:14Z</time>
      </trkpt>
      <trkpt lat="47.82024" lon="-3.54365">
        <ele>24</ele>
        <time>2019-07-15T11:24:15Z</time>
      </trkpt>
      <trkpt lat="47.82021" lon="-3.54366">
        <ele>25</ele>
        <time>2019-07-15T11:24:16Z</time>
      </trkpt>
      <trkpt lat="47.82019" lon="-3.54368">
        <ele>25</ele>
        <time>2019-07-15T11:24:17Z</time>
      </trkpt>
      <trkpt lat="47.82016" lon="-3.5437">
        <ele>25</ele>
        <time>2019-07-15T11:24:18Z</time>
      </trkpt>
      <trkpt lat="47.82013" lon="-3.54371">
        <ele>25</ele>
        <time>2019-07-15T11:24:19Z</time>
      </trkpt>
      <trkpt lat="47.82011" lon="-3.54372">
        <ele>26</ele>
        <time>2019-07-15T11:24:20Z</time>
      </trkpt>
      <trkpt lat="47.82009" lon="-3.54374">
        <ele>26</ele>
        <time>2019-07-15T11:24:21Z</time>
      </trkpt>
      <trkpt lat="47.82006" lon="-3.54376">
        <ele>26</ele>
        <time>2019-07-15T11:24:22Z</time>
      </trkpt>
      <trkpt lat="47.82004" lon="-3.54377">
        <ele>27</ele>
        <time>2019-07-15T11:24:23Z</time>
      </trkpt>
      <trkpt lat="47.82002" lon="-3.54378">
        <ele>27</ele>
        <time>2019-07-15T11:24:24Z</time>
      </trkpt>
      <trkpt lat="47.82" lon="-3.5438">
        <ele>27</ele>
        <time>2019-07-15T11:24:25Z</time>
      </trkpt>
      <trkpt lat="47.81998" lon="-3.54382">
        <ele>27</ele>
        <time>2019-07-15T11:24:26Z</time>
      </trkpt>
      <trkpt lat="47.81996" lon="-3.54383">
        <ele>28</ele>
        <time>2019-07-15T11:24:27Z</time>
      </trkpt>
      <trkpt lat="47.81993" lon="-3.54385">
        <ele>28</ele>
        <time>2019-07-15T11:24:28Z</time>
      </trkpt>
      <trkpt lat="47.81991" lon="-3.54386">
        <ele>28</ele>
        <time>2019-07-15T11:24:29Z</time>
      </trkpt>
      <trkpt lat="47.8199" lon="-3.54387">
        <ele>29</ele>
        <time>2019-07-15T11:24:30Z</time>
      </trkpt>
      <trkpt lat="47.81988" lon="-3.54388">
        <ele>29</ele>
        <time>2019-07-15T11:24:31Z</time>
      </trkpt>
      <trkpt lat="47.81986" lon="-3.54389">
        <ele>29</ele>
        <time>2019-07-15T11:24:32Z</time>
      </trkpt>
      <trkpt lat="47.81985" lon="-3.5439">
        <ele>30</ele>
        <time>2019-07-15T11:24:33Z</time>
      </trkpt>
      <trkpt lat="47.81984" lon="-3.54391">
        <ele>30</ele>
        <time>2019-07-15T11:24:34Z</time>
      </trkpt>
      <trkpt lat="47.81983" lon="-3.54391">
        <ele>31</ele>
        <time>2019-07-15T11:24:35Z</time>
      </trkpt>
      <trkpt lat="47.81982" lon="-3.54391">
        <ele>31</ele>
        <time>2019-07-15T11:24:36Z</time>
      </trkpt>
      <trkpt lat="47.81982" lon="-3.54392">
        <ele>31</ele>
        <time>2019-07-15T11:24:37Z</time>
      </trkpt>
      <trkpt lat="47.81981" lon="-3.54392">
        <ele>32</ele>
        <time>2019-07-15T11:24:38Z</time>
      </trkpt>
      <trkpt lat="47.81971" lon="-3.54397">
        <ele>43</ele>
        <time>2019-07-15T11:24:39Z</time>
      </trkpt>
      <trkpt lat="47.8197" lon="-3.54399">
        <ele>43</ele>
        <time>2019-07-15T11:24:40Z</time>
      </trkpt>
      <trkpt lat="47.81969" lon="-3.54401">
        <ele>43</ele>
        <time>2019-07-15T11:24:41Z</time>
      </trkpt>
      <trkpt lat="47.81968" lon="-3.54403">
        <ele>43</ele>
        <time>2019-07-15T11:24:42Z</time>
      </trkpt>
      <trkpt lat="47.81967" lon="-3.54405">
        <ele>43</ele>
        <time>2019-07-15T11:24:43Z</time>
      </trkpt>
      <trkpt lat="47.81965" lon="-3.54406">
        <ele>43</ele>
        <time>2019-07-15T11:24:44Z</time>
      </trkpt>
      <trkpt lat="47.81964" lon="-3.54408">
        <ele>44</ele>
        <time>2019-07-15T11:24:45Z</time>
      </trkpt>
      <trkpt lat="47.81962" lon="-3.54411">
        <ele>44</ele>
        <time>2019-07-15T11:24:46Z</time>
      </trkpt>
      <trkpt lat="47.81961" lon="-3.54413">
        <ele>44</ele>
        <time>2019-07-15T11:24:47Z</time>
      </trkpt>
      <trkpt lat="47.81959" lon="-3.54416">
        <ele>44</ele>
        <time>2019-07-15T11:24:48Z</time>
      </trkpt>
      <trkpt lat="47.81957" lon="-3.54418">
        <ele>44</ele>
        <time>2019-07-15T11:24:49Z</time>
      </trkpt>
      <trkpt lat="47.81955" lon="-3.54421">
        <ele>45</ele>
        <time>2019-07-15T11:24:50Z</time>
      </trkpt>
      <trkpt lat="47.81954" lon="-3.54424">
        <ele>45</ele>
        <time>2019-07-15T11:24:51Z</time>
      </trkpt>
      <trkpt lat="47.81953" lon="-3.54426">
        <ele>45</ele>
        <time>2019-07-15T11:24:52Z</time>
      </trkpt>
      <trkpt lat="47.81952" lon="-3.54429">
        <ele>45</ele>
        <time>2019-07-15T11:24:53Z</time>
      </trkpt>
      <trkpt lat="47.81951" lon="-3.54433">
        <ele>46</ele>
        <time>2019-07-15T11:24:54Z</time>
      </trkpt>
      <trkpt lat="47.8195" lon="-3.54437">
        <ele>46</ele>
        <time>2019-07-15T11:24:55Z</time>
      </trkpt>
      <trkpt lat="47.8195" lon="-3.54439">
        <ele>46</ele>
        <time>2019-07-15T11:24:56Z</time>
      </trkpt>
      <trkpt lat="47.81949" lon="-3.54443">
        <ele>46</ele>
        <time>2019-07-15T11:24:57Z</time>
      </trkpt>
      <trkpt lat="47.81948" lon="-3.54446">
        <ele>47</ele>
        <time>2019-07-15T11:24:58Z</time>
      </trkpt>
      <trkpt lat="47.81946" lon="-3.54448">
        <ele>47</ele>
        <time>2019-07-15T11:24:59Z</time>
      </trkpt>
      <trkpt lat="47.81945" lon="-3.54451">
        <ele>47</ele>
        <time>2019-07-15T11:25:00Z</time>
      </trkpt>
      <trkpt lat="47.81944" lon="-3.54454">
        <ele>47</ele>
        <time>2019-07-15T11:25:01Z</time>
      </trkpt>
      <trkpt lat="47.81942" lon="-3.54457">
        <ele>47</ele>
        <time>2019-07-15T11:25:02Z</time>
      </trkpt>
      <trkpt lat="47.8194" lon="-3.54459">
        <ele>47</ele>
        <time>2019-07-15T11:25:03Z</time>
      </trkpt>
      <trkpt lat="47.81939" lon="-3.54461">
        <ele>48</ele>
        <time>2019-07-15T11:25:04Z</time>
      </trkpt>
      <trkpt lat="47.81938" lon="-3.54462">
        <ele>48</ele>
        <time>2019-07-15T11:25:05Z</time>
      </trkpt>
      <trkpt lat="47.81937" lon="-3.54464">
        <ele>48</ele>
        <time>2019-07-15T11:25:06Z</time>
      </trkpt>
      <trkpt lat="47.81936" lon="-3.54464">
        <ele>48</ele>
        <time>2019-07-15T11:25:07Z</time>
      </trkpt>
      <trkpt lat="47.81935" lon="-3.54464">
        <ele>48</ele>
        <time>2019-07-15T11:25:08Z</time>
      </trkpt>
      <trkpt lat="47.81934" lon="-3.54464">
        <ele>48</ele>
        <time>2019-07-15T11:25:09Z</time>
      </trkpt>
      <trkpt lat="47.81934" lon="-3.54465">
        <ele>48</ele>
        <time>2019-07-15T11:25:10Z</time>
      </trkpt>
      <trkpt lat="47.81929" lon="-3.54467">
        <ele>49</ele>
        <time>2019-07-15T11:25:11Z</time>
      </trkpt>
      <trkpt lat="47.81928" lon="-3.54467">
        <ele>49</ele>
        <time>2019-07-15T11:25:12Z</time>
      </trkpt>
      <trkpt lat="47.81927" lon="-3.54468">
        <ele>49</ele>
        <time>2019-07-15T11:25:13Z</time>
      </trkpt>
      <trkpt lat="47.81926" lon="-3.54469">
        <ele>50</ele>
        <time>2019-07-15T11:25:14Z</time>
      </trkpt>
      <trkpt lat="47.81926" lon="-3.5447">
        <ele>50</ele>
        <time>2019-07-15T11:25:15Z</time>
      </trkpt>
      <trkpt lat="47.81919" lon="-3.54477">
        <ele>49</ele>
        <time>2019-07-15T11:25:16Z</time>
      </trkpt>
      <trkpt lat="47.81917" lon="-3.54479">
        <ele>49</ele>
        <time>2019-07-15T11:25:17Z</time>
      </trkpt>
      <trkpt lat="47.81916" lon="-3.54481">
        <ele>49</ele>
        <time>2019-07-15T11:25:18Z</time>
      </trkpt>
      <trkpt lat="47.81915" lon="-3.54483">
        <ele>49</ele>
        <time>2019-07-15T11:25:19Z</time>
      </trkpt>
      <trkpt lat="47.81913" lon="-3.54485">
        <ele>49</ele>
        <time>2019-07-15T11:25:20Z</time>
      </trkpt>
      <trkpt lat="47.81911" lon="-3.54487">
        <ele>49</ele>
        <time>2019-07-15T11:25:21Z</time>
      </trkpt>
      <trkpt lat="47.81909" lon="-3.54489">
        <ele>49</ele>
        <time>2019-07-15T11:25:22Z</time>
      </trkpt>
      <trkpt lat="47.81908" lon="-3.54491">
        <ele>49</ele>
        <time>2019-07-15T11:25:23Z</time>
      </trkpt>
      <trkpt lat="47.81907" lon="-3.54494">
        <ele>48</ele>
        <time>2019-07-15T11:25:24Z</time>
      </trkpt>
      <trkpt lat="47.81905" lon="-3.54497">
        <ele>48</ele>
        <time>2019-07-15T11:25:25Z</time>
      </trkpt>
      <trkpt lat="47.81904" lon="-3.545">
        <ele>48</ele>
        <time>2019-07-15T11:25:26Z</time>
      </trkpt>
      <trkpt lat="47.81902" lon="-3.54502">
        <ele>48</ele>
        <time>2019-07-15T11:25:27Z</time>
      </trkpt>
      <trkpt lat="47.81901" lon="-3.54505">
        <ele>48</ele>
        <time>2019-07-15T11:25:28Z</time>
      </trkpt>
      <trkpt lat="47.81899" lon="-3.54507">
        <ele>48</ele>
        <time>2019-07-15T11:25:29Z</time>
      </trkpt>
      <trkpt lat="47.81897" lon="-3.5451">
        <ele>48</ele>
        <time>2019-07-15T11:25:30Z</time>
      </trkpt>
      <trkpt lat="47.81895" lon="-3.54512">
        <ele>48</ele>
        <time>2019-07-15T11:25:31Z</time>
      </trkpt>
      <trkpt lat="47.81894" lon="-3.54515">
        <ele>48</ele>
        <time>2019-07-15T11:25:32Z</time>
      </trkpt>
      <trkpt lat="47.81892" lon="-3.54517">
        <ele>48</ele>
        <time>2019-07-15T11:25:33Z</time>
      </trkpt>
      <trkpt lat="47.81891" lon="-3.5452">
        <ele>48</ele>
        <time>2019-07-15T11:25:34Z</time>
      </trkpt>
      <trkpt lat="47.8189" lon="-3.54522">
        <ele>47</ele>
        <time>2019-07-15T11:25:35Z</time>
      </trkpt>
      <trkpt lat="47.81888" lon="-3.54525">
        <ele>47</ele>
        <time>2019-07-15T11:25:36Z</time>
      </trkpt>
      <trkpt lat="47.81887" lon="-3.54527">
        <ele>47</ele>
        <time>2019-07-15T11:25:37Z</time>
      </trkpt>
      <trkpt lat="47.81885" lon="-3.54529">
        <ele>47</ele>
        <time>2019-07-15T11:25:38Z</time>
      </trkpt>
      <trkpt lat="47.81884" lon="-3.5453">
        <ele>47</ele>
        <time>2019-07-15T11:25:39Z</time>
      </trkpt>
      <trkpt lat="47.81882" lon="-3.54533">
        <ele>47</ele>
        <time>2019-07-15T11:25:40Z</time>
      </trkpt>
      <trkpt lat="47.81881" lon="-3.54535">
        <ele>47</ele>
        <time>2019-07-15T11:25:41Z</time>
      </trkpt>
      <trkpt lat="47.81879" lon="-3.54537">
        <ele>47</ele>
        <time>2019-07-15T11:25:42Z</time>
      </trkpt>
      <trkpt lat="47.81878" lon="-3.54539">
        <ele>47</ele>
        <time>2019-07-15T11:25:43Z</time>
      </trkpt>
      <trkpt lat="47.81876" lon="-3.5454">
        <ele>46</ele>
        <time>2019-07-15T11:25:44Z</time>
      </trkpt>
      <trkpt lat="47.81875" lon="-3.54543">
        <ele>46</ele>
        <time>2019-07-15T11:25:45Z</time>
      </trkpt>
      <trkpt lat="47.81874" lon="-3.54545">
        <ele>46</ele>
        <time>2019-07-15T11:25:46Z</time>
      </trkpt>
      <trkpt lat="47.81873" lon="-3.54547">
        <ele>46</ele>
        <time>2019-07-15T11:25:47Z</time>
      </trkpt>
      <trkpt lat="47.81872" lon="-3.54549">
        <ele>46</ele>
        <time>2019-07-15T11:25:48Z</time>
      </trkpt>
      <trkpt lat="47.81871" lon="-3.54551">
        <ele>46</ele>
        <time>2019-07-15T11:25:49Z</time>
      </trkpt>
      <trkpt lat="47.8187" lon="-3.54552">
        <ele>45</ele>
        <time>2019-07-15T11:25:50Z</time>
      </trkpt>
      <trkpt lat="47.81868" lon="-3.54554">
        <ele>45</ele>
        <time>2019-07-15T11:25:51Z</time>
      </trkpt>
      <trkpt lat="47.81867" lon="-3.54556">
        <ele>45</ele>
        <time>2019-07-15T11:25:52Z</time>
      </trkpt>
      <trkpt lat="47.81865" lon="-3.54559">
        <ele>45</ele>
        <time>2019-07-15T11:25:53Z</time>
      </trkpt>
      <trkpt lat="47.81863" lon="-3.54562">
        <ele>45</ele>
        <time>2019-07-15T11:25:54Z</time>
      </trkpt>
      <trkpt lat="47.81861" lon="-3.54564">
        <ele>45</ele>
        <time>2019-07-15T11:25:55Z</time>
      </trkpt>
      <trkpt lat="47.81859" lon="-3.54566">
        <ele>45</ele>
        <time>2019-07-15T11:25:56Z</time>
      </trkpt>
      <trkpt lat="47.81857" lon="-3.54567">
        <ele>45</ele>
        <time>2019-07-15T11:25:57Z</time>
      </trkpt>
      <trkpt lat="47.81855" lon="-3.54569">
        <ele>45</ele>
        <time>2019-07-15T11:25:58Z</time>
      </trkpt>
      <trkpt lat="47.81854" lon="-3.5457">
        <ele>45</ele>
        <time>2019-07-15T11:25:59Z</time>
      </trkpt>
      <trkpt lat="47.81852" lon="-3.54572">
        <ele>46</ele>
        <time>2019-07-15T11:26:00Z</time>
      </trkpt>
      <trkpt lat="47.81851" lon="-3.54574">
        <ele>46</ele>
        <time>2019-07-15T11:26:01Z</time>
      </trkpt>
      <trkpt lat="47.81848" lon="-3.54577">
        <ele>46</ele>
        <time>2019-07-15T11:26:02Z</time>
      </trkpt>
      <trkpt lat="47.81846" lon="-3.5458">
        <ele>46</ele>
        <time>2019-07-15T11:26:03Z</time>
      </trkpt>
      <trkpt lat="47.81843" lon="-3.54583">
        <ele>45</ele>
        <time>2019-07-15T11:26:04Z</time>
      </trkpt>
      <trkpt lat="47.81841" lon="-3.54586">
        <ele>45</ele>
        <time>2019-07-15T11:26:05Z</time>
      </trkpt>
      <trkpt lat="47.81839" lon="-3.54588">
        <ele>45</ele>
        <time>2019-07-15T11:26:06Z</time>
      </trkpt>
      <trkpt lat="47.81836" lon="-3.5459">
        <ele>45</ele>
        <time>2019-07-15T11:26:07Z</time>
      </trkpt>
      <trkpt lat="47.81834" lon="-3.54592">
        <ele>44</ele>
        <time>2019-07-15T11:26:08Z</time>
      </trkpt>
      <trkpt lat="47.81833" lon="-3.54594">
        <ele>44</ele>
        <time>2019-07-15T11:26:09Z</time>
      </trkpt>
      <trkpt lat="47.81831" lon="-3.54595">
        <ele>44</ele>
        <time>2019-07-15T11:26:10Z</time>
      </trkpt>
      <trkpt lat="47.81829" lon="-3.54596">
        <ele>44</ele>
        <time>2019-07-15T11:26:11Z</time>
      </trkpt>
      <trkpt lat="47.81828" lon="-3.54598">
        <ele>43</ele>
        <time>2019-07-15T11:26:12Z</time>
      </trkpt>
      <trkpt lat="47.81826" lon="-3.54599">
        <ele>43</ele>
        <time>2019-07-15T11:26:13Z</time>
      </trkpt>
      <trkpt lat="47.81826" lon="-3.54601">
        <ele>43</ele>
        <time>2019-07-15T11:26:14Z</time>
      </trkpt>
      <trkpt lat="47.81826" lon="-3.54603">
        <ele>43</ele>
        <time>2019-07-15T11:26:15Z</time>
      </trkpt>
      <trkpt lat="47.81825" lon="-3.54606">
        <ele>42</ele>
        <time>2019-07-15T11:26:16Z</time>
      </trkpt>
      <trkpt lat="47.81824" lon="-3.54608">
        <ele>42</ele>
        <time>2019-07-15T11:26:17Z</time>
      </trkpt>
      <trkpt lat="47.81823" lon="-3.5461">
        <ele>42</ele>
        <time>2019-07-15T11:26:18Z</time>
      </trkpt>
      <trkpt lat="47.81822" lon="-3.54612">
        <ele>42</ele>
        <time>2019-07-15T11:26:19Z</time>
      </trkpt>
      <trkpt lat="47.81821" lon="-3.54614">
        <ele>41</ele>
        <time>2019-07-15T11:26:20Z</time>
      </trkpt>
      <trkpt lat="47.8182" lon="-3.54616">
        <ele>41</ele>
        <time>2019-07-15T11:26:21Z</time>
      </trkpt>
      <trkpt lat="47.81817" lon="-3.54618">
        <ele>41</ele>
        <time>2019-07-15T11:26:22Z</time>
      </trkpt>
      <trkpt lat="47.81815" lon="-3.54619">
        <ele>41</ele>
        <time>2019-07-15T11:26:23Z</time>
      </trkpt>
      <trkpt lat="47.81813" lon="-3.54621">
        <ele>40</ele>
        <time>2019-07-15T11:26:24Z</time>
      </trkpt>
      <trkpt lat="47.81812" lon="-3.54623">
        <ele>40</ele>
        <time>2019-07-15T11:26:25Z</time>
      </trkpt>
      <trkpt lat="47.8181" lon="-3.54625">
        <ele>40</ele>
        <time>2019-07-15T11:26:26Z</time>
      </trkpt>
      <trkpt lat="47.81808" lon="-3.54627">
        <ele>40</ele>
        <time>2019-07-15T11:26:27Z</time>
      </trkpt>
      <trkpt lat="47.81806" lon="-3.54629">
        <ele>40</ele>
        <time>2019-07-15T11:26:28Z</time>
      </trkpt>
      <trkpt lat="47.81804" lon="-3.5463">
        <ele>40</ele>
        <time>2019-07-15T11:26:29Z</time>
      </trkpt>
      <trkpt lat="47.81802" lon="-3.54632">
        <ele>40</ele>
        <time>2019-07-15T11:26:30Z</time>
      </trkpt>
      <trkpt lat="47.818" lon="-3.54635">
        <ele>39</ele>
        <time>2019-07-15T11:26:31Z</time>
      </trkpt>
      <trkpt lat="47.81799" lon="-3.54637">
        <ele>39</ele>
        <time>2019-07-15T11:26:32Z</time>
      </trkpt>
      <trkpt lat="47.81797" lon="-3.54639">
        <ele>39</ele>
        <time>2019-07-15T11:26:33Z</time>
      </trkpt>
      <trkpt lat="47.81795" lon="-3.54642">
        <ele>39</ele>
        <time>2019-07-15T11:26:34Z</time>
      </trkpt>
      <trkpt lat="47.81793" lon="-3.54644">
        <ele>39</ele>
        <time>2019-07-15T11:26:35Z</time>
      </trkpt>
      <trkpt lat="47.8179" lon="-3.54647">
        <ele>39</ele>
        <time>2019-07-15T11:26:36Z</time>
      </trkpt>
      <trkpt lat="47.81788" lon="-3.54649">
        <ele>39</ele>
        <time>2019-07-15T11:26:37Z</time>
      </trkpt>
      <trkpt lat="47.81786" lon="-3.54652">
        <ele>39</ele>
        <time>2019-07-15T11:26:38Z</time>
      </trkpt>
      <trkpt lat="47.81783" lon="-3.54654">
        <ele>39</ele>
        <time>2019-07-15T11:26:39Z</time>
      </trkpt>
      <trkpt lat="47.81781" lon="-3.54656">
        <ele>39</ele>
        <time>2019-07-15T11:26:40Z</time>
      </trkpt>
      <trkpt lat="47.8178" lon="-3.54658">
        <ele>39</ele>
        <time>2019-07-15T11:26:41Z</time>
      </trkpt>
      <trkpt lat="47.81778" lon="-3.5466">
        <ele>39</ele>
        <time>2019-07-15T11:26:42Z</time>
      </trkpt>
      <trkpt lat="47.81776" lon="-3.54662">
        <ele>40</ele>
        <time>2019-07-15T11:26:43Z</time>
      </trkpt>
      <trkpt lat="47.81773" lon="-3.54664">
        <ele>40</ele>
        <time>2019-07-15T11:26:44Z</time>
      </trkpt>
      <trkpt lat="47.81771" lon="-3.54666">
        <ele>40</ele>
        <time>2019-07-15T11:26:45Z</time>
      </trkpt>
      <trkpt lat="47.81768" lon="-3.54669">
        <ele>40</ele>
        <time>2019-07-15T11:26:46Z</time>
      </trkpt>
      <trkpt lat="47.81766" lon="-3.54672">
        <ele>40</ele>
        <time>2019-07-15T11:26:47Z</time>
      </trkpt>
      <trkpt lat="47.81764" lon="-3.54675">
        <ele>40</ele>
        <time>2019-07-15T11:26:48Z</time>
      </trkpt>
      <trkpt lat="47.81761" lon="-3.54677">
        <ele>40</ele>
        <time>2019-07-15T11:26:49Z</time>
      </trkpt>
      <trkpt lat="47.81758" lon="-3.5468">
        <ele>40</ele>
        <time>2019-07-15T11:26:50Z</time>
      </trkpt>
      <trkpt lat="47.81756" lon="-3.54682">
        <ele>40</ele>
        <time>2019-07-15T11:26:51Z</time>
      </trkpt>
      <trkpt lat="47.81754" lon="-3.54684">
        <ele>40</ele>
        <time>2019-07-15T11:26:52Z</time>
      </trkpt>
      <trkpt lat="47.81752" lon="-3.54687">
        <ele>40</ele>
        <time>2019-07-15T11:26:53Z</time>
      </trkpt>
      <trkpt lat="47.81749" lon="-3.54689">
        <ele>40</ele>
        <time>2019-07-15T11:26:54Z</time>
      </trkpt>
      <trkpt lat="47.81747" lon="-3.54693">
        <ele>40</ele>
        <time>2019-07-15T11:26:55Z</time>
      </trkpt>
      <trkpt lat="47.81744" lon="-3.54697">
        <ele>40</ele>
        <time>2019-07-15T11:26:56Z</time>
      </trkpt>
      <trkpt lat="47.81741" lon="-3.547">
        <ele>40</ele>
        <time>2019-07-15T11:26:57Z</time>
      </trkpt>
      <trkpt lat="47.81738" lon="-3.54703">
        <ele>40</ele>
        <time>2019-07-15T11:26:58Z</time>
      </trkpt>
      <trkpt lat="47.81735" lon="-3.54706">
        <ele>40</ele>
        <time>2019-07-15T11:26:59Z</time>
      </trkpt>
      <trkpt lat="47.81733" lon="-3.5471">
        <ele>40</ele>
        <time>2019-07-15T11:27:00Z</time>
      </trkpt>
      <trkpt lat="47.8173" lon="-3.54714">
        <ele>40</ele>
        <time>2019-07-15T11:27:01Z</time>
      </trkpt>
      <trkpt lat="47.81727" lon="-3.54717">
        <ele>40</ele>
        <time>2019-07-15T11:27:02Z</time>
      </trkpt>
      <trkpt lat="47.81724" lon="-3.54719">
        <ele>40</ele>
        <time>2019-07-15T11:27:03Z</time>
      </trkpt>
      <trkpt lat="47.81721" lon="-3.5472">
        <ele>40</ele>
        <time>2019-07-15T11:27:04Z</time>
      </trkpt>
      <trkpt lat="47.81719" lon="-3.54719">
        <ele>40</ele>
        <time>2019-07-15T11:27:05Z</time>
      </trkpt>
      <trkpt lat="47.81718" lon="-3.54716">
        <ele>41</ele>
        <time>2019-07-15T11:27:06Z</time>
      </trkpt>
      <trkpt lat="47.81717" lon="-3.54713">
        <ele>41</ele>
        <time>2019-07-15T11:27:07Z</time>
      </trkpt>
      <trkpt lat="47.81716" lon="-3.5471">
        <ele>41</ele>
        <time>2019-07-15T11:27:08Z</time>
      </trkpt>
      <trkpt lat="47.81715" lon="-3.54706">
        <ele>41</ele>
        <time>2019-07-15T11:27:09Z</time>
      </trkpt>
      <trkpt lat="47.81712" lon="-3.54702">
        <ele>41</ele>
        <time>2019-07-15T11:27:10Z</time>
      </trkpt>
      <trkpt lat="47.81711" lon="-3.547">
        <ele>42</ele>
        <time>2019-07-15T11:27:11Z</time>
      </trkpt>
      <trkpt lat="47.81708" lon="-3.54697">
        <ele>42</ele>
        <time>2019-07-15T11:27:12Z</time>
      </trkpt>
      <trkpt lat="47.81706" lon="-3.54695">
        <ele>42</ele>
        <time>2019-07-15T11:27:13Z</time>
      </trkpt>
      <trkpt lat="47.81704" lon="-3.54693">
        <ele>42</ele>
        <time>2019-07-15T11:27:14Z</time>
      </trkpt>
      <trkpt lat="47.81702" lon="-3.5469">
        <ele>42</ele>
        <time>2019-07-15T11:27:15Z</time>
      </trkpt>
      <trkpt lat="47.81701" lon="-3.54687">
        <ele>43</ele>
        <time>2019-07-15T11:27:16Z</time>
      </trkpt>
      <trkpt lat="47.81699" lon="-3.54685">
        <ele>43</ele>
        <time>2019-07-15T11:27:17Z</time>
      </trkpt>
      <trkpt lat="47.81697" lon="-3.54682">
        <ele>43</ele>
        <time>2019-07-15T11:27:18Z</time>
      </trkpt>
      <trkpt lat="47.81695" lon="-3.54679">
        <ele>43</ele>
        <time>2019-07-15T11:27:19Z</time>
      </trkpt>
      <trkpt lat="47.81691" lon="-3.54675">
        <ele>44</ele>
        <time>2019-07-15T11:27:20Z</time>
      </trkpt>
      <trkpt lat="47.81688" lon="-3.54671">
        <ele>44</ele>
        <time>2019-07-15T11:27:21Z</time>
      </trkpt>
      <trkpt lat="47.81685" lon="-3.54667">
        <ele>44</ele>
        <time>2019-07-15T11:27:22Z</time>
      </trkpt>
      <trkpt lat="47.81682" lon="-3.54663">
        <ele>45</ele>
        <time>2019-07-15T11:27:23Z</time>
      </trkpt>
      <trkpt lat="47.8168" lon="-3.5466">
        <ele>45</ele>
        <time>2019-07-15T11:27:24Z</time>
      </trkpt>
      <trkpt lat="47.81678" lon="-3.54658">
        <ele>45</ele>
        <time>2019-07-15T11:27:25Z</time>
      </trkpt>
      <trkpt lat="47.81677" lon="-3.54655">
        <ele>46</ele>
        <time>2019-07-15T11:27:26Z</time>
      </trkpt>
      <trkpt lat="47.81675" lon="-3.54651">
        <ele>46</ele>
        <time>2019-07-15T11:27:27Z</time>
      </trkpt>
      <trkpt lat="47.81674" lon="-3.54649">
        <ele>46</ele>
        <time>2019-07-15T11:27:28Z</time>
      </trkpt>
      <trkpt lat="47.81673" lon="-3.54647">
        <ele>47</ele>
        <time>2019-07-15T11:27:29Z</time>
      </trkpt>
      <trkpt lat="47.81671" lon="-3.54645">
        <ele>47</ele>
        <time>2019-07-15T11:27:30Z</time>
      </trkpt>
      <trkpt lat="47.8167" lon="-3.54641">
        <ele>47</ele>
        <time>2019-07-15T11:27:31Z</time>
      </trkpt>
      <trkpt lat="47.81668" lon="-3.54639">
        <ele>48</ele>
        <time>2019-07-15T11:27:32Z</time>
      </trkpt>
      <trkpt lat="47.81667" lon="-3.54637">
        <ele>48</ele>
        <time>2019-07-15T11:27:33Z</time>
      </trkpt>
      <trkpt lat="47.81666" lon="-3.54635">
        <ele>48</ele>
        <time>2019-07-15T11:27:34Z</time>
      </trkpt>
      <trkpt lat="47.81665" lon="-3.54632">
        <ele>49</ele>
        <time>2019-07-15T11:27:35Z</time>
      </trkpt>
      <trkpt lat="47.81664" lon="-3.5463">
        <ele>49</ele>
        <time>2019-07-15T11:27:36Z</time>
      </trkpt>
      <trkpt lat="47.81663" lon="-3.54628">
        <ele>49</ele>
        <time>2019-07-15T11:27:37Z</time>
      </trkpt>
      <trkpt lat="47.81662" lon="-3.54625">
        <ele>50</ele>
        <time>2019-07-15T11:27:38Z</time>
      </trkpt>
      <trkpt lat="47.81661" lon="-3.54622">
        <ele>50</ele>
        <time>2019-07-15T11:27:39Z</time>
      </trkpt>
      <trkpt lat="47.81659" lon="-3.54618">
        <ele>50</ele>
        <time>2019-07-15T11:27:40Z</time>
      </trkpt>
      <trkpt lat="47.81657" lon="-3.54615">
        <ele>51</ele>
        <time>2019-07-15T11:27:41Z</time>
      </trkpt>
      <trkpt lat="47.81655" lon="-3.54611">
        <ele>51</ele>
        <time>2019-07-15T11:27:42Z</time>
      </trkpt>
      <trkpt lat="47.81653" lon="-3.54607">
        <ele>51</ele>
        <time>2019-07-15T11:27:43Z</time>
      </trkpt>
      <trkpt lat="47.81651" lon="-3.54602">
        <ele>51</ele>
        <time>2019-07-15T11:27:44Z</time>
      </trkpt>
      <trkpt lat="47.81648" lon="-3.54597">
        <ele>52</ele>
        <time>2019-07-15T11:27:45Z</time>
      </trkpt>
      <trkpt lat="47.81645" lon="-3.54592">
        <ele>52</ele>
        <time>2019-07-15T11:27:46Z</time>
      </trkpt>
      <trkpt lat="47.81642" lon="-3.54586">
        <ele>52</ele>
        <time>2019-07-15T11:27:47Z</time>
      </trkpt>
      <trkpt lat="47.8164" lon="-3.54582">
        <ele>53</ele>
        <time>2019-07-15T11:27:48Z</time>
      </trkpt>
      <trkpt lat="47.81638" lon="-3.54578">
        <ele>53</ele>
        <time>2019-07-15T11:27:49Z</time>
      </trkpt>
      <trkpt lat="47.81636" lon="-3.54575">
        <ele>53</ele>
        <time>2019-07-15T11:27:50Z</time>
      </trkpt>
      <trkpt lat="47.81634" lon="-3.54573">
        <ele>54</ele>
        <time>2019-07-15T11:27:51Z</time>
      </trkpt>
      <trkpt lat="47.81633" lon="-3.5457">
        <ele>54</ele>
        <time>2019-07-15T11:27:52Z</time>
      </trkpt>
      <trkpt lat="47.81631" lon="-3.54567">
        <ele>54</ele>
        <time>2019-07-15T11:27:53Z</time>
      </trkpt>
      <trkpt lat="47.8163" lon="-3.54565">
        <ele>55</ele>
        <time>2019-07-15T11:27:54Z</time>
      </trkpt>
      <trkpt lat="47.81628" lon="-3.54561">
        <ele>55</ele>
        <time>2019-07-15T11:27:55Z</time>
      </trkpt>
      <trkpt lat="47.81626" lon="-3.54558">
        <ele>55</ele>
        <time>2019-07-15T11:27:56Z</time>
      </trkpt>
      <trkpt lat="47.81623" lon="-3.54555">
        <ele>55</ele>
        <time>2019-07-15T11:27:57Z</time>
      </trkpt>
      <trkpt lat="47.81619" lon="-3.54551">
        <ele>55</ele>
        <time>2019-07-15T11:27:58Z</time>
      </trkpt>
      <trkpt lat="47.81616" lon="-3.54548">
        <ele>55</ele>
        <time>2019-07-15T11:27:59Z</time>
      </trkpt>
      <trkpt lat="47.81613" lon="-3.54545">
        <ele>56</ele>
        <time>2019-07-15T11:28:00Z</time>
      </trkpt>
      <trkpt lat="47.8161" lon="-3.54541">
        <ele>56</ele>
        <time>2019-07-15T11:28:01Z</time>
      </trkpt>
      <trkpt lat="47.81608" lon="-3.54537">
        <ele>56</ele>
        <time>2019-07-15T11:28:02Z</time>
      </trkpt>
      <trkpt lat="47.81605" lon="-3.54534">
        <ele>56</ele>
        <time>2019-07-15T11:28:03Z</time>
      </trkpt>
      <trkpt lat="47.81601" lon="-3.54531">
        <ele>56</ele>
        <time>2019-07-15T11:28:04Z</time>
      </trkpt>
      <trkpt lat="47.81598" lon="-3.54528">
        <ele>56</ele>
        <time>2019-07-15T11:28:05Z</time>
      </trkpt>
      <trkpt lat="47.81595" lon="-3.54525">
        <ele>56</ele>
        <time>2019-07-15T11:28:06Z</time>
      </trkpt>
      <trkpt lat="47.81592" lon="-3.54523">
        <ele>56</ele>
        <time>2019-07-15T11:28:07Z</time>
      </trkpt>
      <trkpt lat="47.81588" lon="-3.54522">
        <ele>56</ele>
        <time>2019-07-15T11:28:08Z</time>
      </trkpt>
      <trkpt lat="47.81584" lon="-3.5452">
        <ele>56</ele>
        <time>2019-07-15T11:28:09Z</time>
      </trkpt>
      <trkpt lat="47.81581" lon="-3.54519">
        <ele>56</ele>
        <time>2019-07-15T11:28:10Z</time>
      </trkpt>
      <trkpt lat="47.81578" lon="-3.54517">
        <ele>57</ele>
        <time>2019-07-15T11:28:11Z</time>
      </trkpt>
      <trkpt lat="47.81575" lon="-3.54515">
        <ele>57</ele>
        <time>2019-07-15T11:28:12Z</time>
      </trkpt>
      <trkpt lat="47.81573" lon="-3.54513">
        <ele>57</ele>
        <time>2019-07-15T11:28:13Z</time>
      </trkpt>
      <trkpt lat="47.8157" lon="-3.54511">
        <ele>57</ele>
        <time>2019-07-15T11:28:14Z</time>
      </trkpt>
      <trkpt lat="47.81567" lon="-3.54509">
        <ele>57</ele>
        <time>2019-07-15T11:28:15Z</time>
      </trkpt>
      <trkpt lat="47.81564" lon="-3.54506">
        <ele>57</ele>
        <time>2019-07-15T11:28:16Z</time>
      </trkpt>
      <trkpt lat="47.8156" lon="-3.54503">
        <ele>57</ele>
        <time>2019-07-15T11:28:17Z</time>
      </trkpt>
      <trkpt lat="47.81556" lon="-3.54499">
        <ele>57</ele>
        <time>2019-07-15T11:28:18Z</time>
      </trkpt>
      <trkpt lat="47.81552" lon="-3.54496">
        <ele>57</ele>
        <time>2019-07-15T11:28:19Z</time>
      </trkpt>
      <trkpt lat="47.81548" lon="-3.54491">
        <ele>58</ele>
        <time>2019-07-15T11:28:20Z</time>
      </trkpt>
      <trkpt lat="47.81545" lon="-3.54487">
        <ele>58</ele>
        <time>2019-07-15T11:28:21Z</time>
      </trkpt>
      <trkpt lat="47.81542" lon="-3.54482">
        <ele>58</ele>
        <time>2019-07-15T11:28:22Z</time>
      </trkpt>
      <trkpt lat="47.8154" lon="-3.54479">
        <ele>58</ele>
        <time>2019-07-15T11:28:23Z</time>
      </trkpt>
      <trkpt lat="47.81538" lon="-3.54476">
        <ele>58</ele>
        <time>2019-07-15T11:28:24Z</time>
      </trkpt>
      <trkpt lat="47.81538" lon="-3.54474">
        <ele>58</ele>
        <time>2019-07-15T11:28:25Z</time>
      </trkpt>
      <trkpt lat="47.81537" lon="-3.5447">
        <ele>58</ele>
        <time>2019-07-15T11:28:26Z</time>
      </trkpt>
      <trkpt lat="47.81535" lon="-3.54467">
        <ele>58</ele>
        <time>2019-07-15T11:28:27Z</time>
      </trkpt>
      <trkpt lat="47.81533" lon="-3.54465">
        <ele>58</ele>
        <time>2019-07-15T11:28:28Z</time>
      </trkpt>
      <trkpt lat="47.81529" lon="-3.54464">
        <ele>58</ele>
        <time>2019-07-15T11:28:29Z</time>
      </trkpt>
      <trkpt lat="47.81526" lon="-3.54463">
        <ele>58</ele>
        <time>2019-07-15T11:28:30Z</time>
      </trkpt>
      <trkpt lat="47.81524" lon="-3.54461">
        <ele>58</ele>
        <time>2019-07-15T11:28:31Z</time>
      </trkpt>
      <trkpt lat="47.81523" lon="-3.54457">
        <ele>58</ele>
        <time>2019-07-15T11:28:32Z</time>
      </trkpt>
      <trkpt lat="47.81521" lon="-3.54453">
        <ele>58</ele>
        <time>2019-07-15T11:28:33Z</time>
      </trkpt>
      <trkpt lat="47.81519" lon="-3.54447">
        <ele>58</ele>
        <time>2019-07-15T11:28:34Z</time>
      </trkpt>
      <trkpt lat="47.81517" lon="-3.5444">
        <ele>58</ele>
        <time>2019-07-15T11:28:35Z</time>
      </trkpt>
      <trkpt lat="47.81514" lon="-3.54434">
        <ele>58</ele>
        <time>2019-07-15T11:28:36Z</time>
      </trkpt>
      <trkpt lat="47.81512" lon="-3.54427">
        <ele>58</ele>
        <time>2019-07-15T11:28:37Z</time>
      </trkpt>
      <trkpt lat="47.8151" lon="-3.5442">
        <ele>58</ele>
        <time>2019-07-15T11:28:38Z</time>
      </trkpt>
      <trkpt lat="47.81508" lon="-3.54413">
        <ele>58</ele>
        <time>2019-07-15T11:28:39Z</time>
      </trkpt>
      <trkpt lat="47.81506" lon="-3.54406">
        <ele>58</ele>
        <time>2019-07-15T11:28:40Z</time>
      </trkpt>
      <trkpt lat="47.81503" lon="-3.54398">
        <ele>58</ele>
        <time>2019-07-15T11:28:41Z</time>
      </trkpt>
      <trkpt lat="47.81501" lon="-3.5439">
        <ele>58</ele>
        <time>2019-07-15T11:28:42Z</time>
      </trkpt>
      <trkpt lat="47.81498" lon="-3.54382">
        <ele>58</ele>
        <time>2019-07-15T11:28:43Z</time>
      </trkpt>
      <trkpt lat="47.81495" lon="-3.54376">
        <ele>58</ele>
        <time>2019-07-15T11:28:44Z</time>
      </trkpt>
      <trkpt lat="47.81493" lon="-3.54372">
        <ele>58</ele>
        <time>2019-07-15T11:28:45Z</time>
      </trkpt>
      <trkpt lat="47.8149" lon="-3.54367">
        <ele>58</ele>
        <time>2019-07-15T11:28:46Z</time>
      </trkpt>
      <trkpt lat="47.81486" lon="-3.54363">
        <ele>58</ele>
        <time>2019-07-15T11:28:47Z</time>
      </trkpt>
      <trkpt lat="47.81481" lon="-3.54358">
        <ele>58</ele>
        <time>2019-07-15T11:28:48Z</time>
      </trkpt>
      <trkpt lat="47.81476" lon="-3.54354">
        <ele>57</ele>
        <time>2019-07-15T11:28:49Z</time>
      </trkpt>
      <trkpt lat="47.81471" lon="-3.54349">
        <ele>57</ele>
        <time>2019-07-15T11:28:50Z</time>
      </trkpt>
      <trkpt lat="47.81466" lon="-3.54343">
        <ele>57</ele>
        <time>2019-07-15T11:28:51Z</time>
      </trkpt>
      <trkpt lat="47.81462" lon="-3.54337">
        <ele>57</ele>
        <time>2019-07-15T11:28:52Z</time>
      </trkpt>
      <trkpt lat="47.81458" lon="-3.5433">
        <ele>57</ele>
        <time>2019-07-15T11:28:53Z</time>
      </trkpt>
      <trkpt lat="47.81453" lon="-3.54322">
        <ele>57</ele>
        <time>2019-07-15T11:28:54Z</time>
      </trkpt>
      <trkpt lat="47.81449" lon="-3.54314">
        <ele>57</ele>
        <time>2019-07-15T11:28:55Z</time>
      </trkpt>
      <trkpt lat="47.81446" lon="-3.54307">
        <ele>57</ele>
        <time>2019-07-15T11:28:56Z</time>
      </trkpt>
      <trkpt lat="47.81445" lon="-3.543">
        <ele>57</ele>
        <time>2019-07-15T11:28:57Z</time>
      </trkpt>
      <trkpt lat="47.81443" lon="-3.54294">
        <ele>56</ele>
        <time>2019-07-15T11:28:58Z</time>
      </trkpt>
      <trkpt lat="47.81441" lon="-3.54288">
        <ele>56</ele>
        <time>2019-07-15T11:28:59Z</time>
      </trkpt>
      <trkpt lat="47.81439" lon="-3.54282">
        <ele>56</ele>
        <time>2019-07-15T11:29:00Z</time>
      </trkpt>
      <trkpt lat="47.81436" lon="-3.54277">
        <ele>56</ele>
        <time>2019-07-15T11:29:01Z</time>
      </trkpt>
      <trkpt lat="47.81434" lon="-3.54271">
        <ele>56</ele>
        <time>2019-07-15T11:29:02Z</time>
      </trkpt>
      <trkpt lat="47.81432" lon="-3.54264">
        <ele>56</ele>
        <time>2019-07-15T11:29:03Z</time>
      </trkpt>
      <trkpt lat="47.8143" lon="-3.54258">
        <ele>56</ele>
        <time>2019-07-15T11:29:04Z</time>
      </trkpt>
      <trkpt lat="47.81428" lon="-3.54251">
        <ele>56</ele>
        <time>2019-07-15T11:29:05Z</time>
      </trkpt>
      <trkpt lat="47.81426" lon="-3.54244">
        <ele>56</ele>
        <time>2019-07-15T11:29:06Z</time>
      </trkpt>
      <trkpt lat="47.81423" lon="-3.54239">
        <ele>56</ele>
        <time>2019-07-15T11:29:07Z</time>
      </trkpt>
      <trkpt lat="47.81422" lon="-3.54235">
        <ele>56</ele>
        <time>2019-07-15T11:29:08Z</time>
      </trkpt>
      <trkpt lat="47.81421" lon="-3.54231">
        <ele>55</ele>
        <time>2019-07-15T11:29:09Z</time>
      </trkpt>
      <trkpt lat="47.8142" lon="-3.54227">
        <ele>55</ele>
        <time>2019-07-15T11:29:10Z</time>
      </trkpt>
      <trkpt lat="47.81419" lon="-3.54223">
        <ele>55</ele>
        <time>2019-07-15T11:29:11Z</time>
      </trkpt>
      <trkpt lat="47.81418" lon="-3.54221">
        <ele>55</ele>
        <time>2019-07-15T11:29:12Z</time>
      </trkpt>
      <trkpt lat="47.81416" lon="-3.54218">
        <ele>55</ele>
        <time>2019-07-15T11:29:13Z</time>
      </trkpt>
      <trkpt lat="47.81416" lon="-3.54215">
        <ele>55</ele>
        <time>2019-07-15T11:29:14Z</time>
      </trkpt>
      <trkpt lat="47.81416" lon="-3.54212">
        <ele>54</ele>
        <time>2019-07-15T11:29:15Z</time>
      </trkpt>
      <trkpt lat="47.81415" lon="-3.54209">
        <ele>54</ele>
        <time>2019-07-15T11:29:16Z</time>
      </trkpt>
      <trkpt lat="47.81413" lon="-3.54205">
        <ele>54</ele>
        <time>2019-07-15T11:29:17Z</time>
      </trkpt>
      <trkpt lat="47.81411" lon="-3.54202">
        <ele>54</ele>
        <time>2019-07-15T11:29:18Z</time>
      </trkpt>
      <trkpt lat="47.81409" lon="-3.54198">
        <ele>54</ele>
        <time>2019-07-15T11:29:19Z</time>
      </trkpt>
      <trkpt lat="47.81408" lon="-3.54194">
        <ele>54</ele>
        <time>2019-07-15T11:29:20Z</time>
      </trkpt>
      <trkpt lat="47.81407" lon="-3.5419">
        <ele>54</ele>
        <time>2019-07-15T11:29:21Z</time>
      </trkpt>
      <trkpt lat="47.81406" lon="-3.54186">
        <ele>54</ele>
        <time>2019-07-15T11:29:22Z</time>
      </trkpt>
      <trkpt lat="47.81406" lon="-3.54182">
        <ele>54</ele>
        <time>2019-07-15T11:29:23Z</time>
      </trkpt>
      <trkpt lat="47.81405" lon="-3.54177">
        <ele>54</ele>
        <time>2019-07-15T11:29:24Z</time>
      </trkpt>
      <trkpt lat="47.81403" lon="-3.54173">
        <ele>54</ele>
        <time>2019-07-15T11:29:25Z</time>
      </trkpt>
      <trkpt lat="47.81402" lon="-3.5417">
        <ele>54</ele>
        <time>2019-07-15T11:29:26Z</time>
      </trkpt>
      <trkpt lat="47.81401" lon="-3.54166">
        <ele>54</ele>
        <time>2019-07-15T11:29:27Z</time>
      </trkpt>
      <trkpt lat="47.814" lon="-3.54161">
        <ele>54</ele>
        <time>2019-07-15T11:29:28Z</time>
      </trkpt>
      <trkpt lat="47.81399" lon="-3.54158">
        <ele>54</ele>
        <time>2019-07-15T11:29:29Z</time>
      </trkpt>
      <trkpt lat="47.81399" lon="-3.54157">
        <ele>53</ele>
        <time>2019-07-15T11:29:30Z</time>
      </trkpt>
      <trkpt lat="47.81398" lon="-3.54156">
        <ele>53</ele>
        <time>2019-07-15T11:29:31Z</time>
      </trkpt>
      <trkpt lat="47.81397" lon="-3.54156">
        <ele>53</ele>
        <time>2019-07-15T11:29:32Z</time>
      </trkpt>
      <trkpt lat="47.81397" lon="-3.54156">
        <ele>52</ele>
        <time>2019-07-15T11:29:33Z</time>
      </trkpt>
      <trkpt lat="47.81396" lon="-3.54155">
        <ele>52</ele>
        <time>2019-07-15T11:29:34Z</time>
      </trkpt>
      <trkpt lat="47.81394" lon="-3.54154">
        <ele>52</ele>
        <time>2019-07-15T11:29:35Z</time>
      </trkpt>
      <trkpt lat="47.81392" lon="-3.54153">
        <ele>52</ele>
        <time>2019-07-15T11:29:36Z</time>
      </trkpt>
      <trkpt lat="47.81389" lon="-3.54152">
        <ele>51</ele>
        <time>2019-07-15T11:29:37Z</time>
      </trkpt>
      <trkpt lat="47.81385" lon="-3.54152">
        <ele>51</ele>
        <time>2019-07-15T11:29:38Z</time>
      </trkpt>
      <trkpt lat="47.81382" lon="-3.54151">
        <ele>51</ele>
        <time>2019-07-15T11:29:39Z</time>
      </trkpt>
      <trkpt lat="47.81378" lon="-3.5415">
        <ele>51</ele>
        <time>2019-07-15T11:29:40Z</time>
      </trkpt>
      <trkpt lat="47.81375" lon="-3.54149">
        <ele>51</ele>
        <time>2019-07-15T11:29:41Z</time>
      </trkpt>
      <trkpt lat="47.81372" lon="-3.54149">
        <ele>51</ele>
        <time>2019-07-15T11:29:42Z</time>
      </trkpt>
      <trkpt lat="47.81369" lon="-3.54149">
        <ele>51</ele>
        <time>2019-07-15T11:29:43Z</time>
      </trkpt>
      <trkpt lat="47.81365" lon="-3.54149">
        <ele>51</ele>
        <time>2019-07-15T11:29:44Z</time>
      </trkpt>
      <trkpt lat="47.81361" lon="-3.54149">
        <ele>50</ele>
        <time>2019-07-15T11:29:45Z</time>
      </trkpt>
      <trkpt lat="47.81357" lon="-3.54148">
        <ele>50</ele>
        <time>2019-07-15T11:29:46Z</time>
      </trkpt>
      <trkpt lat="47.81353" lon="-3.54147">
        <ele>50</ele>
        <time>2019-07-15T11:29:47Z</time>
      </trkpt>
      <trkpt lat="47.8135" lon="-3.54146">
        <ele>50</ele>
        <time>2019-07-15T11:29:48Z</time>
      </trkpt>
      <trkpt lat="47.81345" lon="-3.54144">
        <ele>50</ele>
        <time>2019-07-15T11:29:49Z</time>
      </trkpt>
      <trkpt lat="47.81341" lon="-3.54143">
        <ele>50</ele>
        <time>2019-07-15T11:29:50Z</time>
      </trkpt>
      <trkpt lat="47.81337" lon="-3.54141">
        <ele>50</ele>
        <time>2019-07-15T11:29:51Z</time>
      </trkpt>
      <trkpt lat="47.81332" lon="-3.5414">
        <ele>50</ele>
        <time>2019-07-15T11:29:52Z</time>
      </trkpt>
      <trkpt lat="47.81327" lon="-3.54137">
        <ele>50</ele>
        <time>2019-07-15T11:29:53Z</time>
      </trkpt>
      <trkpt lat="47.81322" lon="-3.54134">
        <ele>50</ele>
        <time>2019-07-15T11:29:54Z</time>
      </trkpt>
      <trkpt lat="47.81317" lon="-3.5413">
        <ele>50</ele>
        <time>2019-07-15T11:29:55Z</time>
      </trkpt>
      <trkpt lat="47.81311" lon="-3.54126">
        <ele>50</ele>
        <time>2019-07-15T11:29:56Z</time>
      </trkpt>
      <trkpt lat="47.81305" lon="-3.54121">
        <ele>50</ele>
        <time>2019-07-15T11:29:57Z</time>
      </trkpt>
      <trkpt lat="47.813" lon="-3.54116">
        <ele>50</ele>
        <time>2019-07-15T11:29:58Z</time>
      </trkpt>
      <trkpt lat="47.81294" lon="-3.54112">
        <ele>50</ele>
        <time>2019-07-15T11:29:59Z</time>
      </trkpt>
      <trkpt lat="47.81289" lon="-3.54108">
        <ele>50</ele>
        <time>2019-07-15T11:30:00Z</time>
      </trkpt>
      <trkpt lat="47.81283" lon="-3.54103">
        <ele>50</ele>
        <time>2019-07-15T11:30:01Z</time>
      </trkpt>
      <trkpt lat="47.81278" lon="-3.54099">
        <ele>50</ele>
        <time>2019-07-15T11:30:02Z</time>
      </trkpt>
      <trkpt lat="47.81274" lon="-3.54094">
        <ele>50</ele>
        <time>2019-07-15T11:30:03Z</time>
      </trkpt>
      <trkpt lat="47.81268" lon="-3.54089">
        <ele>50</ele>
        <time>2019-07-15T11:30:04Z</time>
      </trkpt>
      <trkpt lat="47.81263" lon="-3.54084">
        <ele>50</ele>
        <time>2019-07-15T11:30:05Z</time>
      </trkpt>
      <trkpt lat="47.81258" lon="-3.54079">
        <ele>50</ele>
        <time>2019-07-15T11:30:06Z</time>
      </trkpt>
      <trkpt lat="47.81252" lon="-3.54073">
        <ele>50</ele>
        <time>2019-07-15T11:30:07Z</time>
      </trkpt>
      <trkpt lat="47.81247" lon="-3.54068">
        <ele>50</ele>
        <time>2019-07-15T11:30:08Z</time>
      </trkpt>
      <trkpt lat="47.81242" lon="-3.54063">
        <ele>50</ele>
        <time>2019-07-15T11:30:09Z</time>
      </trkpt>
      <trkpt lat="47.81238" lon="-3.54058">
        <ele>50</ele>
        <time>2019-07-15T11:30:10Z</time>
      </trkpt>
      <trkpt lat="47.81234" lon="-3.54054">
        <ele>50</ele>
        <time>2019-07-15T11:30:11Z</time>
      </trkpt>
      <trkpt lat="47.81229" lon="-3.54048">
        <ele>50</ele>
        <time>2019-07-15T11:30:12Z</time>
      </trkpt>
      <trkpt lat="47.81226" lon="-3.54044">
        <ele>50</ele>
        <time>2019-07-15T11:30:13Z</time>
      </trkpt>
      <trkpt lat="47.81222" lon="-3.54039">
        <ele>50</ele>
        <time>2019-07-15T11:30:14Z</time>
      </trkpt>
      <trkpt lat="47.81218" lon="-3.54034">
        <ele>51</ele>
        <time>2019-07-15T11:30:15Z</time>
      </trkpt>
      <trkpt lat="47.81215" lon="-3.54031">
        <ele>51</ele>
        <time>2019-07-15T11:30:16Z</time>
      </trkpt>
      <trkpt lat="47.81212" lon="-3.54027">
        <ele>51</ele>
        <time>2019-07-15T11:30:17Z</time>
      </trkpt>
      <trkpt lat="47.8121" lon="-3.54023">
        <ele>51</ele>
        <time>2019-07-15T11:30:18Z</time>
      </trkpt>
      <trkpt lat="47.81206" lon="-3.54019">
        <ele>51</ele>
        <time>2019-07-15T11:30:19Z</time>
      </trkpt>
      <trkpt lat="47.81204" lon="-3.54015">
        <ele>51</ele>
        <time>2019-07-15T11:30:20Z</time>
      </trkpt>
      <trkpt lat="47.81202" lon="-3.5401">
        <ele>51</ele>
        <time>2019-07-15T11:30:21Z</time>
      </trkpt>
      <trkpt lat="47.81199" lon="-3.54005">
        <ele>51</ele>
        <time>2019-07-15T11:30:22Z</time>
      </trkpt>
      <trkpt lat="47.81195" lon="-3.54">
        <ele>51</ele>
        <time>2019-07-15T11:30:23Z</time>
      </trkpt>
      <trkpt lat="47.81192" lon="-3.53995">
        <ele>51</ele>
        <time>2019-07-15T11:30:24Z</time>
      </trkpt>
      <trkpt lat="47.81188" lon="-3.5399">
        <ele>51</ele>
        <time>2019-07-15T11:30:25Z</time>
      </trkpt>
      <trkpt lat="47.81184" lon="-3.53985">
        <ele>51</ele>
        <time>2019-07-15T11:30:26Z</time>
      </trkpt>
      <trkpt lat="47.8118" lon="-3.5398">
        <ele>51</ele>
        <time>2019-07-15T11:30:27Z</time>
      </trkpt>
      <trkpt lat="47.81175" lon="-3.53975">
        <ele>51</ele>
        <time>2019-07-15T11:30:28Z</time>
      </trkpt>
      <trkpt lat="47.81171" lon="-3.53969">
        <ele>51</ele>
        <time>2019-07-15T11:30:29Z</time>
      </trkpt>
      <trkpt lat="47.81167" lon="-3.53963">
        <ele>51</ele>
        <time>2019-07-15T11:30:30Z</time>
      </trkpt>
      <trkpt lat="47.81163" lon="-3.53958">
        <ele>51</ele>
        <time>2019-07-15T11:30:31Z</time>
      </trkpt>
      <trkpt lat="47.8116" lon="-3.53953">
        <ele>51</ele>
        <time>2019-07-15T11:30:32Z</time>
      </trkpt>
      <trkpt lat="47.81156" lon="-3.53949">
        <ele>51</ele>
        <time>2019-07-15T11:30:33Z</time>
      </trkpt>
      <trkpt lat="47.81152" lon="-3.53944">
        <ele>51</ele>
        <time>2019-07-15T11:30:34Z</time>
      </trkpt>
      <trkpt lat="47.81148" lon="-3.53939">
        <ele>51</ele>
        <time>2019-07-15T11:30:35Z</time>
      </trkpt>
      <trkpt lat="47.81144" lon="-3.53934">
        <ele>51</ele>
        <time>2019-07-15T11:30:36Z</time>
      </trkpt>
      <trkpt lat="47.81139" lon="-3.53928">
        <ele>51</ele>
        <time>2019-07-15T11:30:37Z</time>
      </trkpt>
      <trkpt lat="47.81135" lon="-3.53922">
        <ele>51</ele>
        <time>2019-07-15T11:30:38Z</time>
      </trkpt>
      <trkpt lat="47.81131" lon="-3.53917">
        <ele>51</ele>
        <time>2019-07-15T11:30:39Z</time>
      </trkpt>
      <trkpt lat="47.81128" lon="-3.53913">
        <ele>51</ele>
        <time>2019-07-15T11:30:40Z</time>
      </trkpt>
      <trkpt lat="47.81124" lon="-3.53907">
        <ele>51</ele>
        <time>2019-07-15T11:30:41Z</time>
      </trkpt>
      <trkpt lat="47.81119" lon="-3.53901">
        <ele>51</ele>
        <time>2019-07-15T11:30:42Z</time>
      </trkpt>
      <trkpt lat="47.81115" lon="-3.53895">
        <ele>51</ele>
        <time>2019-07-15T11:30:43Z</time>
      </trkpt>
      <trkpt lat="47.81111" lon="-3.53889">
        <ele>51</ele>
        <time>2019-07-15T11:30:44Z</time>
      </trkpt>
      <trkpt lat="47.81108" lon="-3.53885">
        <ele>51</ele>
        <time>2019-07-15T11:30:45Z</time>
      </trkpt>
      <trkpt lat="47.81104" lon="-3.5388">
        <ele>51</ele>
        <time>2019-07-15T11:30:46Z</time>
      </trkpt>
      <trkpt lat="47.811" lon="-3.53876">
        <ele>51</ele>
        <time>2019-07-15T11:30:47Z</time>
      </trkpt>
      <trkpt lat="47.81096" lon="-3.5387">
        <ele>51</ele>
        <time>2019-07-15T11:30:48Z</time>
      </trkpt>
      <trkpt lat="47.81092" lon="-3.53865">
        <ele>51</ele>
        <time>2019-07-15T11:30:49Z</time>
      </trkpt>
      <trkpt lat="47.81088" lon="-3.5386">
        <ele>51</ele>
        <time>2019-07-15T11:30:50Z</time>
      </trkpt>
      <trkpt lat="47.81084" lon="-3.53854">
        <ele>51</ele>
        <time>2019-07-15T11:30:51Z</time>
      </trkpt>
      <trkpt lat="47.8108" lon="-3.53848">
        <ele>51</ele>
        <time>2019-07-15T11:30:52Z</time>
      </trkpt>
      <trkpt lat="47.81075" lon="-3.53842">
        <ele>51</ele>
        <time>2019-07-15T11:30:53Z</time>
      </trkpt>
      <trkpt lat="47.81071" lon="-3.53835">
        <ele>51</ele>
        <time>2019-07-15T11:30:54Z</time>
      </trkpt>
      <trkpt lat="47.81066" lon="-3.53828">
        <ele>52</ele>
        <time>2019-07-15T11:30:55Z</time>
      </trkpt>
      <trkpt lat="47.81062" lon="-3.53822">
        <ele>52</ele>
        <time>2019-07-15T11:30:56Z</time>
      </trkpt>
      <trkpt lat="47.81057" lon="-3.53816">
        <ele>52</ele>
        <time>2019-07-15T11:30:57Z</time>
      </trkpt>
      <trkpt lat="47.81052" lon="-3.53811">
        <ele>52</ele>
        <time>2019-07-15T11:30:58Z</time>
      </trkpt>
      <trkpt lat="47.81047" lon="-3.53805">
        <ele>52</ele>
        <time>2019-07-15T11:30:59Z</time>
      </trkpt>
      <trkpt lat="47.81043" lon="-3.53799">
        <ele>52</ele>
        <time>2019-07-15T11:31:00Z</time>
      </trkpt>
      <trkpt lat="47.81039" lon="-3.53793">
        <ele>52</ele>
        <time>2019-07-15T11:31:01Z</time>
      </trkpt>
      <trkpt lat="47.81034" lon="-3.53787">
        <ele>52</ele>
        <time>2019-07-15T11:31:02Z</time>
      </trkpt>
      <trkpt lat="47.8103" lon="-3.5378">
        <ele>52</ele>
        <time>2019-07-15T11:31:03Z</time>
      </trkpt>
      <trkpt lat="47.81025" lon="-3.53774">
        <ele>52</ele>
        <time>2019-07-15T11:31:04Z</time>
      </trkpt>
      <trkpt lat="47.81021" lon="-3.53767">
        <ele>53</ele>
        <time>2019-07-15T11:31:05Z</time>
      </trkpt>
      <trkpt lat="47.81017" lon="-3.53762">
        <ele>53</ele>
        <time>2019-07-15T11:31:06Z</time>
      </trkpt>
      <trkpt lat="47.81013" lon="-3.53757">
        <ele>53</ele>
        <time>2019-07-15T11:31:07Z</time>
      </trkpt>
      <trkpt lat="47.8101" lon="-3.53752">
        <ele>53</ele>
        <time>2019-07-15T11:31:08Z</time>
      </trkpt>
      <trkpt lat="47.81007" lon="-3.53748">
        <ele>53</ele>
        <time>2019-07-15T11:31:09Z</time>
      </trkpt>
      <trkpt lat="47.81004" lon="-3.53744">
        <ele>53</ele>
        <time>2019-07-15T11:31:10Z</time>
      </trkpt>
      <trkpt lat="47.81" lon="-3.5374">
        <ele>53</ele>
        <time>2019-07-15T11:31:11Z</time>
      </trkpt>
      <trkpt lat="47.80995" lon="-3.53735">
        <ele>54</ele>
        <time>2019-07-15T11:31:12Z</time>
      </trkpt>
      <trkpt lat="47.80991" lon="-3.53731">
        <ele>54</ele>
        <time>2019-07-15T11:31:13Z</time>
      </trkpt>
      <trkpt lat="47.80988" lon="-3.53725">
        <ele>54</ele>
        <time>2019-07-15T11:31:14Z</time>
      </trkpt>
      <trkpt lat="47.80984" lon="-3.5372">
        <ele>54</ele>
        <time>2019-07-15T11:31:15Z</time>
      </trkpt>
      <trkpt lat="47.80979" lon="-3.53715">
        <ele>54</ele>
        <time>2019-07-15T11:31:16Z</time>
      </trkpt>
      <trkpt lat="47.80975" lon="-3.53709">
        <ele>54</ele>
        <time>2019-07-15T11:31:17Z</time>
      </trkpt>
      <trkpt lat="47.80971" lon="-3.53704">
        <ele>54</ele>
        <time>2019-07-15T11:31:18Z</time>
      </trkpt>
      <trkpt lat="47.80967" lon="-3.53698">
        <ele>55</ele>
        <time>2019-07-15T11:31:19Z</time>
      </trkpt>
      <trkpt lat="47.80963" lon="-3.53692">
        <ele>55</ele>
        <time>2019-07-15T11:31:20Z</time>
      </trkpt>
      <trkpt lat="47.80958" lon="-3.53686">
        <ele>55</ele>
        <time>2019-07-15T11:31:21Z</time>
      </trkpt>
      <trkpt lat="47.80954" lon="-3.5368">
        <ele>55</ele>
        <time>2019-07-15T11:31:22Z</time>
      </trkpt>
      <trkpt lat="47.8095" lon="-3.53674">
        <ele>55</ele>
        <time>2019-07-15T11:31:23Z</time>
      </trkpt>
      <trkpt lat="47.80945" lon="-3.53669">
        <ele>55</ele>
        <time>2019-07-15T11:31:24Z</time>
      </trkpt>
      <trkpt lat="47.8094" lon="-3.53663">
        <ele>55</ele>
        <time>2019-07-15T11:31:25Z</time>
      </trkpt>
      <trkpt lat="47.80936" lon="-3.53657">
        <ele>55</ele>
        <time>2019-07-15T11:31:26Z</time>
      </trkpt>
      <trkpt lat="47.80931" lon="-3.53651">
        <ele>56</ele>
        <time>2019-07-15T11:31:27Z</time>
      </trkpt>
      <trkpt lat="47.80926" lon="-3.53645">
        <ele>56</ele>
        <time>2019-07-15T11:31:28Z</time>
      </trkpt>
      <trkpt lat="47.80921" lon="-3.53639">
        <ele>56</ele>
        <time>2019-07-15T11:31:29Z</time>
      </trkpt>
      <trkpt lat="47.80916" lon="-3.53633">
        <ele>56</ele>
        <time>2019-07-15T11:31:30Z</time>
      </trkpt>
      <trkpt lat="47.80911" lon="-3.53628">
        <ele>56</ele>
        <time>2019-07-15T11:31:31Z</time>
      </trkpt>
      <trkpt lat="47.80906" lon="-3.53623">
        <ele>56</ele>
        <time>2019-07-15T11:31:32Z</time>
      </trkpt>
      <trkpt lat="47.80901" lon="-3.53618">
        <ele>56</ele>
        <time>2019-07-15T11:31:33Z</time>
      </trkpt>
      <trkpt lat="47.80897" lon="-3.53612">
        <ele>56</ele>
        <time>2019-07-15T11:31:34Z</time>
      </trkpt>
      <trkpt lat="47.80892" lon="-3.53606">
        <ele>56</ele>
        <time>2019-07-15T11:31:35Z</time>
      </trkpt>
      <trkpt lat="47.80888" lon="-3.53601">
        <ele>57</ele>
        <time>2019-07-15T11:31:36Z</time>
      </trkpt>
      <trkpt lat="47.80884" lon="-3.53595">
        <ele>57</ele>
        <time>2019-07-15T11:31:37Z</time>
      </trkpt>
      <trkpt lat="47.80879" lon="-3.5359">
        <ele>57</ele>
        <time>2019-07-15T11:31:38Z</time>
      </trkpt>
      <trkpt lat="47.80875" lon="-3.53584">
        <ele>57</ele>
        <time>2019-07-15T11:31:39Z</time>
      </trkpt>
      <trkpt lat="47.80871" lon="-3.53577">
        <ele>57</ele>
        <time>2019-07-15T11:31:40Z</time>
      </trkpt>
      <trkpt lat="47.80867" lon="-3.53571">
        <ele>57</ele>
        <time>2019-07-15T11:31:41Z</time>
      </trkpt>
      <trkpt lat="47.80864" lon="-3.53565">
        <ele>57</ele>
        <time>2019-07-15T11:31:42Z</time>
      </trkpt>
      <trkpt lat="47.8086" lon="-3.53558">
        <ele>57</ele>
        <time>2019-07-15T11:31:43Z</time>
      </trkpt>
      <trkpt lat="47.80856" lon="-3.53551">
        <ele>57</ele>
        <time>2019-07-15T11:31:44Z</time>
      </trkpt>
      <trkpt lat="47.80854" lon="-3.53545">
        <ele>57</ele>
        <time>2019-07-15T11:31:45Z</time>
      </trkpt>
      <trkpt lat="47.8085" lon="-3.5354">
        <ele>57</ele>
        <time>2019-07-15T11:31:46Z</time>
      </trkpt>
      <trkpt lat="47.80847" lon="-3.53534">
        <ele>57</ele>
        <time>2019-07-15T11:31:47Z</time>
      </trkpt>
      <trkpt lat="47.80844" lon="-3.53529">
        <ele>57</ele>
        <time>2019-07-15T11:31:48Z</time>
      </trkpt>
      <trkpt lat="47.80841" lon="-3.53525">
        <ele>57</ele>
        <time>2019-07-15T11:31:49Z</time>
      </trkpt>
      <trkpt lat="47.80839" lon="-3.53522">
        <ele>57</ele>
        <time>2019-07-15T11:31:50Z</time>
      </trkpt>
      <trkpt lat="47.80837" lon="-3.53518">
        <ele>57</ele>
        <time>2019-07-15T11:31:51Z</time>
      </trkpt>
      <trkpt lat="47.80834" lon="-3.53514">
        <ele>56</ele>
        <time>2019-07-15T11:31:52Z</time>
      </trkpt>
      <trkpt lat="47.80831" lon="-3.5351">
        <ele>56</ele>
        <time>2019-07-15T11:31:53Z</time>
      </trkpt>
      <trkpt lat="47.80828" lon="-3.53504">
        <ele>56</ele>
        <time>2019-07-15T11:31:54Z</time>
      </trkpt>
      <trkpt lat="47.80824" lon="-3.53498">
        <ele>56</ele>
        <time>2019-07-15T11:31:55Z</time>
      </trkpt>
      <trkpt lat="47.80819" lon="-3.53492">
        <ele>56</ele>
        <time>2019-07-15T11:31:56Z</time>
      </trkpt>
      <trkpt lat="47.80815" lon="-3.53485">
        <ele>56</ele>
        <time>2019-07-15T11:31:57Z</time>
      </trkpt>
      <trkpt lat="47.80811" lon="-3.53478">
        <ele>56</ele>
        <time>2019-07-15T11:31:58Z</time>
      </trkpt>
      <trkpt lat="47.80808" lon="-3.53473">
        <ele>56</ele>
        <time>2019-07-15T11:31:59Z</time>
      </trkpt>
      <trkpt lat="47.80804" lon="-3.53468">
        <ele>56</ele>
        <time>2019-07-15T11:32:00Z</time>
      </trkpt>
      <trkpt lat="47.80801" lon="-3.53463">
        <ele>55</ele>
        <time>2019-07-15T11:32:01Z</time>
      </trkpt>
      <trkpt lat="47.80798" lon="-3.53457">
        <ele>55</ele>
        <time>2019-07-15T11:32:02Z</time>
      </trkpt>
      <trkpt lat="47.80794" lon="-3.53451">
        <ele>55</ele>
        <time>2019-07-15T11:32:03Z</time>
      </trkpt>
      <trkpt lat="47.80791" lon="-3.53445">
        <ele>55</ele>
        <time>2019-07-15T11:32:04Z</time>
      </trkpt>
      <trkpt lat="47.80786" lon="-3.53437">
        <ele>55</ele>
        <time>2019-07-15T11:32:05Z</time>
      </trkpt>
      <trkpt lat="47.80782" lon="-3.5343">
        <ele>55</ele>
        <time>2019-07-15T11:32:06Z</time>
      </trkpt>
      <trkpt lat="47.80777" lon="-3.53423">
        <ele>55</ele>
        <time>2019-07-15T11:32:07Z</time>
      </trkpt>
      <trkpt lat="47.80773" lon="-3.53417">
        <ele>55</ele>
        <time>2019-07-15T11:32:08Z</time>
      </trkpt>
      <trkpt lat="47.80769" lon="-3.53411">
        <ele>54</ele>
        <time>2019-07-15T11:32:09Z</time>
      </trkpt>
      <trkpt lat="47.80766" lon="-3.53404">
        <ele>54</ele>
        <time>2019-07-15T11:32:10Z</time>
      </trkpt>
      <trkpt lat="47.80762" lon="-3.53398">
        <ele>54</ele>
        <time>2019-07-15T11:32:11Z</time>
      </trkpt>
      <trkpt lat="47.80758" lon="-3.53394">
        <ele>54</ele>
        <time>2019-07-15T11:32:12Z</time>
      </trkpt>
      <trkpt lat="47.80754" lon="-3.53388">
        <ele>54</ele>
        <time>2019-07-15T11:32:13Z</time>
      </trkpt>
      <trkpt lat="47.80749" lon="-3.53383">
        <ele>54</ele>
        <time>2019-07-15T11:32:14Z</time>
      </trkpt>
      <trkpt lat="47.80745" lon="-3.53378">
        <ele>54</ele>
        <time>2019-07-15T11:32:15Z</time>
      </trkpt>
      <trkpt lat="47.80741" lon="-3.53373">
        <ele>54</ele>
        <time>2019-07-15T11:32:16Z</time>
      </trkpt>
      <trkpt lat="47.80738" lon="-3.53368">
        <ele>54</ele>
        <time>2019-07-15T11:32:17Z</time>
      </trkpt>
      <trkpt lat="47.80734" lon="-3.53363">
        <ele>54</ele>
        <time>2019-07-15T11:32:18Z</time>
      </trkpt>
      <trkpt lat="47.80732" lon="-3.53358">
        <ele>54</ele>
        <time>2019-07-15T11:32:19Z</time>
      </trkpt>
      <trkpt lat="47.8073" lon="-3.53352">
        <ele>54</ele>
        <time>2019-07-15T11:32:20Z</time>
      </trkpt>
      <trkpt lat="47.80727" lon="-3.53345">
        <ele>53</ele>
        <time>2019-07-15T11:32:21Z</time>
      </trkpt>
      <trkpt lat="47.80726" lon="-3.53338">
        <ele>53</ele>
        <time>2019-07-15T11:32:22Z</time>
      </trkpt>
      <trkpt lat="47.80724" lon="-3.53331">
        <ele>53</ele>
        <time>2019-07-15T11:32:23Z</time>
      </trkpt>
      <trkpt lat="47.80722" lon="-3.53323">
        <ele>53</ele>
        <time>2019-07-15T11:32:24Z</time>
      </trkpt>
      <trkpt lat="47.80721" lon="-3.53316">
        <ele>53</ele>
        <time>2019-07-15T11:32:25Z</time>
      </trkpt>
      <trkpt lat="47.80721" lon="-3.53309">
        <ele>53</ele>
        <time>2019-07-15T11:32:26Z</time>
      </trkpt>
      <trkpt lat="47.80722" lon="-3.53303">
        <ele>53</ele>
        <time>2019-07-15T11:32:27Z</time>
      </trkpt>
      <trkpt lat="47.80723" lon="-3.53298">
        <ele>53</ele>
        <time>2019-07-15T11:32:28Z</time>
      </trkpt>
      <trkpt lat="47.80724" lon="-3.53294">
        <ele>53</ele>
        <time>2019-07-15T11:32:29Z</time>
      </trkpt>
      <trkpt lat="47.80725" lon="-3.53291">
        <ele>52</ele>
        <time>2019-07-15T11:32:30Z</time>
      </trkpt>
      <trkpt lat="47.80727" lon="-3.53288">
        <ele>52</ele>
        <time>2019-07-15T11:32:31Z</time>
      </trkpt>
      <trkpt lat="47.80729" lon="-3.53285">
        <ele>52</ele>
        <time>2019-07-15T11:32:32Z</time>
      </trkpt>
      <trkpt lat="47.8073" lon="-3.53282">
        <ele>52</ele>
        <time>2019-07-15T11:32:33Z</time>
      </trkpt>
      <trkpt lat="47.80733" lon="-3.5328">
        <ele>52</ele>
        <time>2019-07-15T11:32:34Z</time>
      </trkpt>
      <trkpt lat="47.80735" lon="-3.53279">
        <ele>52</ele>
        <time>2019-07-15T11:32:35Z</time>
      </trkpt>
      <trkpt lat="47.80737" lon="-3.53276">
        <ele>51</ele>
        <time>2019-07-15T11:32:36Z</time>
      </trkpt>
      <trkpt lat="47.80741" lon="-3.53274">
        <ele>51</ele>
        <time>2019-07-15T11:32:37Z</time>
      </trkpt>
      <trkpt lat="47.80744" lon="-3.53272">
        <ele>51</ele>
        <time>2019-07-15T11:32:38Z</time>
      </trkpt>
      <trkpt lat="47.80747" lon="-3.53269">
        <ele>51</ele>
        <time>2019-07-15T11:32:39Z</time>
      </trkpt>
      <trkpt lat="47.80749" lon="-3.53266">
        <ele>51</ele>
        <time>2019-07-15T11:32:40Z</time>
      </trkpt>
      <trkpt lat="47.80752" lon="-3.53263">
        <ele>51</ele>
        <time>2019-07-15T11:32:41Z</time>
      </trkpt>
      <trkpt lat="47.80756" lon="-3.5326">
        <ele>51</ele>
        <time>2019-07-15T11:32:42Z</time>
      </trkpt>
      <trkpt lat="47.8076" lon="-3.53256">
        <ele>51</ele>
        <time>2019-07-15T11:32:43Z</time>
      </trkpt>
      <trkpt lat="47.80763" lon="-3.53253">
        <ele>51</ele>
        <time>2019-07-15T11:32:44Z</time>
      </trkpt>
      <trkpt lat="47.80766" lon="-3.53249">
        <ele>51</ele>
        <time>2019-07-15T11:32:45Z</time>
      </trkpt>
      <trkpt lat="47.80769" lon="-3.53245">
        <ele>51</ele>
        <time>2019-07-15T11:32:46Z</time>
      </trkpt>
      <trkpt lat="47.80772" lon="-3.53241">
        <ele>51</ele>
        <time>2019-07-15T11:32:47Z</time>
      </trkpt>
      <trkpt lat="47.80775" lon="-3.53239">
        <ele>51</ele>
        <time>2019-07-15T11:32:48Z</time>
      </trkpt>
      <trkpt lat="47.80775" lon="-3.53239">
        <ele>51</ele>
        <time>2019-07-15T11:32:51Z</time>
      </trkpt>
      <trkpt lat="47.80775" lon="-3.53239">
        <ele>51</ele>
        <time>2019-07-15T11:32:52Z</time>
      </trkpt>
      <trkpt lat="47.80786" lon="-3.53222">
        <ele>51</ele>
        <time>2019-07-15T11:32:53Z</time>
      </trkpt>
      <trkpt lat="47.80789" lon="-3.53217">
        <ele>51</ele>
        <time>2019-07-15T11:32:54Z</time>
      </trkpt>
      <trkpt lat="47.80793" lon="-3.5321">
        <ele>51</ele>
        <time>2019-07-15T11:32:55Z</time>
      </trkpt>
      <trkpt lat="47.80798" lon="-3.53203">
        <ele>51</ele>
        <time>2019-07-15T11:32:56Z</time>
      </trkpt>
      <trkpt lat="47.80802" lon="-3.53196">
        <ele>52</ele>
        <time>2019-07-15T11:32:57Z</time>
      </trkpt>
      <trkpt lat="47.80806" lon="-3.53189">
        <ele>52</ele>
        <time>2019-07-15T11:32:58Z</time>
      </trkpt>
      <trkpt lat="47.80811" lon="-3.5318">
        <ele>52</ele>
        <time>2019-07-15T11:32:59Z</time>
      </trkpt>
      <trkpt lat="47.80815" lon="-3.53171">
        <ele>52</ele>
        <time>2019-07-15T11:33:00Z</time>
      </trkpt>
      <trkpt lat="47.80818" lon="-3.53163">
        <ele>52</ele>
        <time>2019-07-15T11:33:01Z</time>
      </trkpt>
      <trkpt lat="47.80822" lon="-3.53155">
        <ele>52</ele>
        <time>2019-07-15T11:33:02Z</time>
      </trkpt>
      <trkpt lat="47.80826" lon="-3.53147">
        <ele>52</ele>
        <time>2019-07-15T11:33:03Z</time>
      </trkpt>
      <trkpt lat="47.80829" lon="-3.53138">
        <ele>52</ele>
        <time>2019-07-15T11:33:04Z</time>
      </trkpt>
      <trkpt lat="47.80832" lon="-3.53128">
        <ele>52</ele>
        <time>2019-07-15T11:33:05Z</time>
      </trkpt>
      <trkpt lat="47.80836" lon="-3.53119">
        <ele>51</ele>
        <time>2019-07-15T11:33:06Z</time>
      </trkpt>
      <trkpt lat="47.80839" lon="-3.53111">
        <ele>51</ele>
        <time>2019-07-15T11:33:07Z</time>
      </trkpt>
      <trkpt lat="47.80841" lon="-3.53102">
        <ele>50</ele>
        <time>2019-07-15T11:33:08Z</time>
      </trkpt>
      <trkpt lat="47.80844" lon="-3.53095">
        <ele>50</ele>
        <time>2019-07-15T11:33:09Z</time>
      </trkpt>
      <trkpt lat="47.80847" lon="-3.53087">
        <ele>49</ele>
        <time>2019-07-15T11:33:10Z</time>
      </trkpt>
      <trkpt lat="47.80849" lon="-3.53078">
        <ele>48</ele>
        <time>2019-07-15T11:33:11Z</time>
      </trkpt>
      <trkpt lat="47.80852" lon="-3.53069">
        <ele>48</ele>
        <time>2019-07-15T11:33:12Z</time>
      </trkpt>
      <trkpt lat="47.80856" lon="-3.5306">
        <ele>47</ele>
        <time>2019-07-15T11:33:13Z</time>
      </trkpt>
      <trkpt lat="47.8086" lon="-3.53052">
        <ele>46</ele>
        <time>2019-07-15T11:33:14Z</time>
      </trkpt>
      <trkpt lat="47.80863" lon="-3.53044">
        <ele>45</ele>
        <time>2019-07-15T11:33:15Z</time>
      </trkpt>
      <trkpt lat="47.80867" lon="-3.53038">
        <ele>44</ele>
        <time>2019-07-15T11:33:16Z</time>
      </trkpt>
      <trkpt lat="47.8087" lon="-3.53031">
        <ele>44</ele>
        <time>2019-07-15T11:33:17Z</time>
      </trkpt>
      <trkpt lat="47.80874" lon="-3.53024">
        <ele>43</ele>
        <time>2019-07-15T11:33:18Z</time>
      </trkpt>
      <trkpt lat="47.80878" lon="-3.53016">
        <ele>42</ele>
        <time>2019-07-15T11:33:19Z</time>
      </trkpt>
      <trkpt lat="47.80882" lon="-3.5301">
        <ele>41</ele>
        <time>2019-07-15T11:33:20Z</time>
      </trkpt>
      <trkpt lat="47.80886" lon="-3.53003">
        <ele>40</ele>
        <time>2019-07-15T11:33:21Z</time>
      </trkpt>
      <trkpt lat="47.8089" lon="-3.52997">
        <ele>40</ele>
        <time>2019-07-15T11:33:22Z</time>
      </trkpt>
      <trkpt lat="47.80894" lon="-3.52991">
        <ele>40</ele>
        <time>2019-07-15T11:33:23Z</time>
      </trkpt>
      <trkpt lat="47.80897" lon="-3.52985">
        <ele>39</ele>
        <time>2019-07-15T11:33:24Z</time>
      </trkpt>
      <trkpt lat="47.80901" lon="-3.52979">
        <ele>39</ele>
        <time>2019-07-15T11:33:25Z</time>
      </trkpt>
      <trkpt lat="47.80904" lon="-3.52975">
        <ele>39</ele>
        <time>2019-07-15T11:33:26Z</time>
      </trkpt>
      <trkpt lat="47.80908" lon="-3.52971">
        <ele>39</ele>
        <time>2019-07-15T11:33:27Z</time>
      </trkpt>
      <trkpt lat="47.80912" lon="-3.52967">
        <ele>38</ele>
        <time>2019-07-15T11:33:28Z</time>
      </trkpt>
      <trkpt lat="47.80916" lon="-3.52963">
        <ele>38</ele>
        <time>2019-07-15T11:33:29Z</time>
      </trkpt>
      <trkpt lat="47.80919" lon="-3.52958">
        <ele>38</ele>
        <time>2019-07-15T11:33:30Z</time>
      </trkpt>
      <trkpt lat="47.80923" lon="-3.52953">
        <ele>38</ele>
        <time>2019-07-15T11:33:31Z</time>
      </trkpt>
      <trkpt lat="47.80927" lon="-3.52948">
        <ele>38</ele>
        <time>2019-07-15T11:33:32Z</time>
      </trkpt>
      <trkpt lat="47.80932" lon="-3.52945">
        <ele>38</ele>
        <time>2019-07-15T11:33:33Z</time>
      </trkpt>
      <trkpt lat="47.80937" lon="-3.52941">
        <ele>38</ele>
        <time>2019-07-15T11:33:34Z</time>
      </trkpt>
      <trkpt lat="47.80942" lon="-3.52937">
        <ele>38</ele>
        <time>2019-07-15T11:33:35Z</time>
      </trkpt>
      <trkpt lat="47.80947" lon="-3.52933">
        <ele>38</ele>
        <time>2019-07-15T11:33:36Z</time>
      </trkpt>
      <trkpt lat="47.80954" lon="-3.52927">
        <ele>38</ele>
        <time>2019-07-15T11:33:37Z</time>
      </trkpt>
      <trkpt lat="47.8096" lon="-3.5292">
        <ele>38</ele>
        <time>2019-07-15T11:33:38Z</time>
      </trkpt>
      <trkpt lat="47.80966" lon="-3.52913">
        <ele>38</ele>
        <time>2019-07-15T11:33:39Z</time>
      </trkpt>
      <trkpt lat="47.80971" lon="-3.52904">
        <ele>38</ele>
        <time>2019-07-15T11:33:40Z</time>
      </trkpt>
      <trkpt lat="47.80974" lon="-3.52895">
        <ele>38</ele>
        <time>2019-07-15T11:33:41Z</time>
      </trkpt>
      <trkpt lat="47.80977" lon="-3.52885">
        <ele>38</ele>
        <time>2019-07-15T11:33:42Z</time>
      </trkpt>
      <trkpt lat="47.80978" lon="-3.52875">
        <ele>38</ele>
        <time>2019-07-15T11:33:43Z</time>
      </trkpt>
      <trkpt lat="47.80979" lon="-3.52865">
        <ele>38</ele>
        <time>2019-07-15T11:33:44Z</time>
      </trkpt>
      <trkpt lat="47.80981" lon="-3.52855">
        <ele>38</ele>
        <time>2019-07-15T11:33:45Z</time>
      </trkpt>
      <trkpt lat="47.80982" lon="-3.52844">
        <ele>38</ele>
        <time>2019-07-15T11:33:46Z</time>
      </trkpt>
      <trkpt lat="47.80982" lon="-3.52834">
        <ele>38</ele>
        <time>2019-07-15T11:33:47Z</time>
      </trkpt>
      <trkpt lat="47.80982" lon="-3.52824">
        <ele>38</ele>
        <time>2019-07-15T11:33:48Z</time>
      </trkpt>
      <trkpt lat="47.80982" lon="-3.52815">
        <ele>38</ele>
        <time>2019-07-15T11:33:49Z</time>
      </trkpt>
      <trkpt lat="47.80981" lon="-3.52805">
        <ele>38</ele>
        <time>2019-07-15T11:33:50Z</time>
      </trkpt>
      <trkpt lat="47.80979" lon="-3.52794">
        <ele>38</ele>
        <time>2019-07-15T11:33:51Z</time>
      </trkpt>
      <trkpt lat="47.80977" lon="-3.52781">
        <ele>38</ele>
        <time>2019-07-15T11:33:52Z</time>
      </trkpt>
      <trkpt lat="47.80974" lon="-3.52769">
        <ele>37</ele>
        <time>2019-07-15T11:33:53Z</time>
      </trkpt>
      <trkpt lat="47.80973" lon="-3.52755">
        <ele>37</ele>
        <time>2019-07-15T11:33:54Z</time>
      </trkpt>
      <trkpt lat="47.80971" lon="-3.52741">
        <ele>37</ele>
        <time>2019-07-15T11:33:55Z</time>
      </trkpt>
      <trkpt lat="47.80968" lon="-3.52727">
        <ele>37</ele>
        <time>2019-07-15T11:33:56Z</time>
      </trkpt>
      <trkpt lat="47.80965" lon="-3.52712">
        <ele>37</ele>
        <time>2019-07-15T11:33:57Z</time>
      </trkpt>
      <trkpt lat="47.80962" lon="-3.52699">
        <ele>36</ele>
        <time>2019-07-15T11:33:58Z</time>
      </trkpt>
      <trkpt lat="47.80958" lon="-3.52686">
        <ele>36</ele>
        <time>2019-07-15T11:33:59Z</time>
      </trkpt>
      <trkpt lat="47.80954" lon="-3.52672">
        <ele>36</ele>
        <time>2019-07-15T11:34:00Z</time>
      </trkpt>
      <trkpt lat="47.80949" lon="-3.52657">
        <ele>35</ele>
        <time>2019-07-15T11:34:01Z</time>
      </trkpt>
      <trkpt lat="47.80944" lon="-3.52643">
        <ele>35</ele>
        <time>2019-07-15T11:34:02Z</time>
      </trkpt>
      <trkpt lat="47.80938" lon="-3.52631">
        <ele>35</ele>
        <time>2019-07-15T11:34:03Z</time>
      </trkpt>
      <trkpt lat="47.80931" lon="-3.52621">
        <ele>34</ele>
        <time>2019-07-15T11:34:04Z</time>
      </trkpt>
      <trkpt lat="47.80925" lon="-3.52611">
        <ele>34</ele>
        <time>2019-07-15T11:34:05Z</time>
      </trkpt>
      <trkpt lat="47.80919" lon="-3.52602">
        <ele>34</ele>
        <time>2019-07-15T11:34:06Z</time>
      </trkpt>
      <trkpt lat="47.80913" lon="-3.52594">
        <ele>34</ele>
        <time>2019-07-15T11:34:07Z</time>
      </trkpt>
      <trkpt lat="47.80906" lon="-3.52587">
        <ele>34</ele>
        <time>2019-07-15T11:34:08Z</time>
      </trkpt>
      <trkpt lat="47.80899" lon="-3.52582">
        <ele>33</ele>
        <time>2019-07-15T11:34:09Z</time>
      </trkpt>
      <trkpt lat="47.80891" lon="-3.52579">
        <ele>33</ele>
        <time>2019-07-15T11:34:10Z</time>
      </trkpt>
      <trkpt lat="47.80884" lon="-3.52577">
        <ele>33</ele>
        <time>2019-07-15T11:34:11Z</time>
      </trkpt>
      <trkpt lat="47.80877" lon="-3.52577">
        <ele>32</ele>
        <time>2019-07-15T11:34:12Z</time>
      </trkpt>
      <trkpt lat="47.80871" lon="-3.52577">
        <ele>32</ele>
        <time>2019-07-15T11:34:13Z</time>
      </trkpt>
      <trkpt lat="47.80865" lon="-3.5258">
        <ele>31</ele>
        <time>2019-07-15T11:34:14Z</time>
      </trkpt>
      <trkpt lat="47.80858" lon="-3.52582">
        <ele>31</ele>
        <time>2019-07-15T11:34:15Z</time>
      </trkpt>
      <trkpt lat="47.80853" lon="-3.52585">
        <ele>30</ele>
        <time>2019-07-15T11:34:16Z</time>
      </trkpt>
      <trkpt lat="47.80847" lon="-3.52587">
        <ele>30</ele>
        <time>2019-07-15T11:34:17Z</time>
      </trkpt>
      <trkpt lat="47.80842" lon="-3.5259">
        <ele>30</ele>
        <time>2019-07-15T11:34:18Z</time>
      </trkpt>
      <trkpt lat="47.80837" lon="-3.52593">
        <ele>29</ele>
        <time>2019-07-15T11:34:19Z</time>
      </trkpt>
      <trkpt lat="47.80831" lon="-3.52594">
        <ele>29</ele>
        <time>2019-07-15T11:34:20Z</time>
      </trkpt>
      <trkpt lat="47.80826" lon="-3.52596">
        <ele>29</ele>
        <time>2019-07-15T11:34:21Z</time>
      </trkpt>
      <trkpt lat="47.8082" lon="-3.52598">
        <ele>28</ele>
        <time>2019-07-15T11:34:22Z</time>
      </trkpt>
      <trkpt lat="47.80815" lon="-3.52602">
        <ele>28</ele>
        <time>2019-07-15T11:34:23Z</time>
      </trkpt>
      <trkpt lat="47.8081" lon="-3.52604">
        <ele>28</ele>
        <time>2019-07-15T11:34:24Z</time>
      </trkpt>
      <trkpt lat="47.80805" lon="-3.52606">
        <ele>28</ele>
        <time>2019-07-15T11:34:25Z</time>
      </trkpt>
      <trkpt lat="47.80799" lon="-3.52608">
        <ele>28</ele>
        <time>2019-07-15T11:34:26Z</time>
      </trkpt>
      <trkpt lat="47.80793" lon="-3.5261">
        <ele>27</ele>
        <time>2019-07-15T11:34:27Z</time>
      </trkpt>
      <trkpt lat="47.80787" lon="-3.52612">
        <ele>27</ele>
        <time>2019-07-15T11:34:28Z</time>
      </trkpt>
      <trkpt lat="47.80782" lon="-3.52616">
        <ele>27</ele>
        <time>2019-07-15T11:34:29Z</time>
      </trkpt>
      <trkpt lat="47.80777" lon="-3.52619">
        <ele>27</ele>
        <time>2019-07-15T11:34:30Z</time>
      </trkpt>
      <trkpt lat="47.80771" lon="-3.52622">
        <ele>27</ele>
        <time>2019-07-15T11:34:31Z</time>
      </trkpt>
      <trkpt lat="47.80765" lon="-3.52625">
        <ele>27</ele>
        <time>2019-07-15T11:34:32Z</time>
      </trkpt>
      <trkpt lat="47.80759" lon="-3.52628">
        <ele>26</ele>
        <time>2019-07-15T11:34:33Z</time>
      </trkpt>
      <trkpt lat="47.80752" lon="-3.5263">
        <ele>26</ele>
        <time>2019-07-15T11:34:34Z</time>
      </trkpt>
      <trkpt lat="47.80746" lon="-3.52632">
        <ele>26</ele>
        <time>2019-07-15T11:34:35Z</time>
      </trkpt>
      <trkpt lat="47.8074" lon="-3.52635">
        <ele>25</ele>
        <time>2019-07-15T11:34:36Z</time>
      </trkpt>
      <trkpt lat="47.80734" lon="-3.52638">
        <ele>25</ele>
        <time>2019-07-15T11:34:37Z</time>
      </trkpt>
      <trkpt lat="47.80728" lon="-3.52641">
        <ele>25</ele>
        <time>2019-07-15T11:34:38Z</time>
      </trkpt>
      <trkpt lat="47.80722" lon="-3.52644">
        <ele>24</ele>
        <time>2019-07-15T11:34:39Z</time>
      </trkpt>
      <trkpt lat="47.80717" lon="-3.52646">
        <ele>24</ele>
        <time>2019-07-15T11:34:40Z</time>
      </trkpt>
      <trkpt lat="47.80711" lon="-3.52648">
        <ele>24</ele>
        <time>2019-07-15T11:34:41Z</time>
      </trkpt>
      <trkpt lat="47.80705" lon="-3.5265">
        <ele>24</ele>
        <time>2019-07-15T11:34:42Z</time>
      </trkpt>
      <trkpt lat="47.807" lon="-3.52652">
        <ele>23</ele>
        <time>2019-07-15T11:34:43Z</time>
      </trkpt>
      <trkpt lat="47.80695" lon="-3.52653">
        <ele>23</ele>
        <time>2019-07-15T11:34:44Z</time>
      </trkpt>
      <trkpt lat="47.8069" lon="-3.52654">
        <ele>23</ele>
        <time>2019-07-15T11:34:45Z</time>
      </trkpt>
      <trkpt lat="47.80686" lon="-3.52656">
        <ele>22</ele>
        <time>2019-07-15T11:34:46Z</time>
      </trkpt>
      <trkpt lat="47.80683" lon="-3.52657">
        <ele>22</ele>
        <time>2019-07-15T11:34:47Z</time>
      </trkpt>
      <trkpt lat="47.80682" lon="-3.52656">
        <ele>22</ele>
        <time>2019-07-15T11:34:48Z</time>
      </trkpt>
      <trkpt lat="47.80681" lon="-3.52653">
        <ele>22</ele>
        <time>2019-07-15T11:34:49Z</time>
      </trkpt>
      <trkpt lat="47.80681" lon="-3.52651">
        <ele>21</ele>
        <time>2019-07-15T11:34:50Z</time>
      </trkpt>
      <trkpt lat="47.80682" lon="-3.52649">
        <ele>21</ele>
        <time>2019-07-15T11:34:51Z</time>
      </trkpt>
      <trkpt lat="47.80682" lon="-3.52649">
        <ele>21</ele>
        <time>2019-07-15T11:34:52Z</time>
      </trkpt>
      <trkpt lat="47.80682" lon="-3.52649">
        <ele>21</ele>
        <time>2019-07-15T11:34:53Z</time>
      </trkpt>
      <trkpt lat="47.80675" lon="-3.52654">
        <ele>11</ele>
        <time>2019-07-15T11:34:54Z</time>
      </trkpt>
      <trkpt lat="47.80674" lon="-3.52656">
        <ele>11</ele>
        <time>2019-07-15T11:34:55Z</time>
      </trkpt>
      <trkpt lat="47.80673" lon="-3.52658">
        <ele>11</ele>
        <time>2019-07-15T11:34:56Z</time>
      </trkpt>
      <trkpt lat="47.80671" lon="-3.5266">
        <ele>11</ele>
        <time>2019-07-15T11:34:57Z</time>
      </trkpt>
      <trkpt lat="47.80669" lon="-3.52663">
        <ele>11</ele>
        <time>2019-07-15T11:34:58Z</time>
      </trkpt>
      <trkpt lat="47.80667" lon="-3.52667">
        <ele>11</ele>
        <time>2019-07-15T11:34:59Z</time>
      </trkpt>
      <trkpt lat="47.80664" lon="-3.5267">
        <ele>11</ele>
        <time>2019-07-15T11:35:00Z</time>
      </trkpt>
      <trkpt lat="47.80661" lon="-3.52671">
        <ele>11</ele>
        <time>2019-07-15T11:35:01Z</time>
      </trkpt>
      <trkpt lat="47.80658" lon="-3.52673">
        <ele>11</ele>
        <time>2019-07-15T11:35:02Z</time>
      </trkpt>
      <trkpt lat="47.80655" lon="-3.52674">
        <ele>10</ele>
        <time>2019-07-15T11:35:03Z</time>
      </trkpt>
      <trkpt lat="47.80652" lon="-3.52676">
        <ele>10</ele>
        <time>2019-07-15T11:35:04Z</time>
      </trkpt>
      <trkpt lat="47.80648" lon="-3.52677">
        <ele>10</ele>
        <time>2019-07-15T11:35:05Z</time>
      </trkpt>
      <trkpt lat="47.80645" lon="-3.52678">
        <ele>10</ele>
        <time>2019-07-15T11:35:06Z</time>
      </trkpt>
      <trkpt lat="47.80642" lon="-3.5268">
        <ele>10</ele>
        <time>2019-07-15T11:35:07Z</time>
      </trkpt>
      <trkpt lat="47.80638" lon="-3.52682">
        <ele>10</ele>
        <time>2019-07-15T11:35:08Z</time>
      </trkpt>
      <trkpt lat="47.80635" lon="-3.52683">
        <ele>10</ele>
        <time>2019-07-15T11:35:09Z</time>
      </trkpt>
      <trkpt lat="47.80631" lon="-3.52684">
        <ele>10</ele>
        <time>2019-07-15T11:35:10Z</time>
      </trkpt>
      <trkpt lat="47.80627" lon="-3.52685">
        <ele>10</ele>
        <time>2019-07-15T11:35:11Z</time>
      </trkpt>
      <trkpt lat="47.80623" lon="-3.52686">
        <ele>9</ele>
        <time>2019-07-15T11:35:12Z</time>
      </trkpt>
      <trkpt lat="47.80619" lon="-3.52689">
        <ele>9</ele>
        <time>2019-07-15T11:35:13Z</time>
      </trkpt>
      <trkpt lat="47.80615" lon="-3.52691">
        <ele>9</ele>
        <time>2019-07-15T11:35:14Z</time>
      </trkpt>
      <trkpt lat="47.80611" lon="-3.52693">
        <ele>9</ele>
        <time>2019-07-15T11:35:15Z</time>
      </trkpt>
      <trkpt lat="47.80607" lon="-3.52695">
        <ele>9</ele>
        <time>2019-07-15T11:35:16Z</time>
      </trkpt>
      <trkpt lat="47.80603" lon="-3.52696">
        <ele>9</ele>
        <time>2019-07-15T11:35:17Z</time>
      </trkpt>
      <trkpt lat="47.80598" lon="-3.52698">
        <ele>9</ele>
        <time>2019-07-15T11:35:18Z</time>
      </trkpt>
      <trkpt lat="47.80594" lon="-3.527">
        <ele>9</ele>
        <time>2019-07-15T11:35:19Z</time>
      </trkpt>
      <trkpt lat="47.80589" lon="-3.52702">
        <ele>9</ele>
        <time>2019-07-15T11:35:20Z</time>
      </trkpt>
      <trkpt lat="47.80585" lon="-3.52704">
        <ele>8</ele>
        <time>2019-07-15T11:35:21Z</time>
      </trkpt>
      <trkpt lat="47.8058" lon="-3.52706">
        <ele>8</ele>
        <time>2019-07-15T11:35:22Z</time>
      </trkpt>
      <trkpt lat="47.80575" lon="-3.52708">
        <ele>8</ele>
        <time>2019-07-15T11:35:23Z</time>
      </trkpt>
      <trkpt lat="47.80571" lon="-3.5271">
        <ele>8</ele>
        <time>2019-07-15T11:35:24Z</time>
      </trkpt>
      <trkpt lat="47.80566" lon="-3.52713">
        <ele>8</ele>
        <time>2019-07-15T11:35:25Z</time>
      </trkpt>
      <trkpt lat="47.8056" lon="-3.52714">
        <ele>8</ele>
        <time>2019-07-15T11:35:26Z</time>
      </trkpt>
      <trkpt lat="47.80555" lon="-3.52717">
        <ele>8</ele>
        <time>2019-07-15T11:35:27Z</time>
      </trkpt>
      <trkpt lat="47.8055" lon="-3.52719">
        <ele>8</ele>
        <time>2019-07-15T11:35:28Z</time>
      </trkpt>
      <trkpt lat="47.80545" lon="-3.52721">
        <ele>8</ele>
        <time>2019-07-15T11:35:29Z</time>
      </trkpt>
      <trkpt lat="47.80539" lon="-3.52723">
        <ele>8</ele>
        <time>2019-07-15T11:35:30Z</time>
      </trkpt>
      <trkpt lat="47.80533" lon="-3.52725">
        <ele>7</ele>
        <time>2019-07-15T11:35:31Z</time>
      </trkpt>
      <trkpt lat="47.80527" lon="-3.52727">
        <ele>7</ele>
        <time>2019-07-15T11:35:32Z</time>
      </trkpt>
      <trkpt lat="47.8052" lon="-3.52728">
        <ele>7</ele>
        <time>2019-07-15T11:35:33Z</time>
      </trkpt>
      <trkpt lat="47.80513" lon="-3.52729">
        <ele>7</ele>
        <time>2019-07-15T11:35:34Z</time>
      </trkpt>
      <trkpt lat="47.80507" lon="-3.52729">
        <ele>6</ele>
        <time>2019-07-15T11:35:35Z</time>
      </trkpt>
      <trkpt lat="47.805" lon="-3.5273">
        <ele>6</ele>
        <time>2019-07-15T11:35:36Z</time>
      </trkpt>
      <trkpt lat="47.80494" lon="-3.5273">
        <ele>6</ele>
        <time>2019-07-15T11:35:37Z</time>
      </trkpt>
      <trkpt lat="47.80488" lon="-3.5273">
        <ele>5</ele>
        <time>2019-07-15T11:35:38Z</time>
      </trkpt>
      <trkpt lat="47.80482" lon="-3.5273">
        <ele>5</ele>
        <time>2019-07-15T11:35:39Z</time>
      </trkpt>
      <trkpt lat="47.80476" lon="-3.52731">
        <ele>5</ele>
        <time>2019-07-15T11:35:40Z</time>
      </trkpt>
      <trkpt lat="47.8047" lon="-3.52731">
        <ele>4</ele>
        <time>2019-07-15T11:35:41Z</time>
      </trkpt>
      <trkpt lat="47.80464" lon="-3.52731">
        <ele>4</ele>
        <time>2019-07-15T11:35:42Z</time>
      </trkpt>
      <trkpt lat="47.80458" lon="-3.52731">
        <ele>4</ele>
        <time>2019-07-15T11:35:43Z</time>
      </trkpt>
      <trkpt lat="47.80453" lon="-3.5273">
        <ele>3</ele>
        <time>2019-07-15T11:35:44Z</time>
      </trkpt>
      <trkpt lat="47.80447" lon="-3.5273">
        <ele>3</ele>
        <time>2019-07-15T11:35:45Z</time>
      </trkpt>
      <trkpt lat="47.80442" lon="-3.52729">
        <ele>3</ele>
        <time>2019-07-15T11:35:46Z</time>
      </trkpt>
      <trkpt lat="47.80437" lon="-3.52728">
        <ele>3</ele>
        <time>2019-07-15T11:35:47Z</time>
      </trkpt>
      <trkpt lat="47.80433" lon="-3.52727">
        <ele>3</ele>
        <time>2019-07-15T11:35:48Z</time>
      </trkpt>
      <trkpt lat="47.80428" lon="-3.52726">
        <ele>3</ele>
        <time>2019-07-15T11:35:49Z</time>
      </trkpt>
      <trkpt lat="47.80424" lon="-3.52726">
        <ele>3</ele>
        <time>2019-07-15T11:35:50Z</time>
      </trkpt>
      <trkpt lat="47.8042" lon="-3.52726">
        <ele>3</ele>
        <time>2019-07-15T11:35:51Z</time>
      </trkpt>
      <trkpt lat="47.80416" lon="-3.52725">
        <ele>2</ele>
        <time>2019-07-15T11:35:52Z</time>
      </trkpt>
      <trkpt lat="47.80412" lon="-3.52725">
        <ele>2</ele>
        <time>2019-07-15T11:35:53Z</time>
      </trkpt>
      <trkpt lat="47.80408" lon="-3.52724">
        <ele>2</ele>
        <time>2019-07-15T11:35:54Z</time>
      </trkpt>
      <trkpt lat="47.80404" lon="-3.52723">
        <ele>2</ele>
        <time>2019-07-15T11:35:55Z</time>
      </trkpt>
      <trkpt lat="47.804" lon="-3.52722">
        <ele>2</ele>
        <time>2019-07-15T11:35:56Z</time>
      </trkpt>
      <trkpt lat="47.80396" lon="-3.52721">
        <ele>2</ele>
        <time>2019-07-15T11:35:57Z</time>
      </trkpt>
      <trkpt lat="47.80392" lon="-3.5272">
        <ele>2</ele>
        <time>2019-07-15T11:35:58Z</time>
      </trkpt>
      <trkpt lat="47.80388" lon="-3.52718">
        <ele>2</ele>
        <time>2019-07-15T11:35:59Z</time>
      </trkpt>
      <trkpt lat="47.80384" lon="-3.52716">
        <ele>2</ele>
        <time>2019-07-15T11:36:00Z</time>
      </trkpt>
      <trkpt lat="47.8038" lon="-3.52715">
        <ele>3</ele>
        <time>2019-07-15T11:36:01Z</time>
      </trkpt>
      <trkpt lat="47.80377" lon="-3.52713">
        <ele>3</ele>
        <time>2019-07-15T11:36:02Z</time>
      </trkpt>
      <trkpt lat="47.80373" lon="-3.52711">
        <ele>3</ele>
        <time>2019-07-15T11:36:03Z</time>
      </trkpt>
      <trkpt lat="47.80371" lon="-3.52709">
        <ele>3</ele>
        <time>2019-07-15T11:36:04Z</time>
      </trkpt>
      <trkpt lat="47.80368" lon="-3.52707">
        <ele>3</ele>
        <time>2019-07-15T11:36:05Z</time>
      </trkpt>
      <trkpt lat="47.80365" lon="-3.52707">
        <ele>3</ele>
        <time>2019-07-15T11:36:06Z</time>
      </trkpt>
      <trkpt lat="47.80362" lon="-3.52707">
        <ele>3</ele>
        <time>2019-07-15T11:36:07Z</time>
      </trkpt>
      <trkpt lat="47.80359" lon="-3.52707">
        <ele>3</ele>
        <time>2019-07-15T11:36:08Z</time>
      </trkpt>
      <trkpt lat="47.80356" lon="-3.52706">
        <ele>3</ele>
        <time>2019-07-15T11:36:09Z</time>
      </trkpt>
      <trkpt lat="47.80355" lon="-3.52704">
        <ele>3</ele>
        <time>2019-07-15T11:36:10Z</time>
      </trkpt>
      <trkpt lat="47.80353" lon="-3.52703">
        <ele>4</ele>
        <time>2019-07-15T11:36:11Z</time>
      </trkpt>
      <trkpt lat="47.80352" lon="-3.52702">
        <ele>4</ele>
        <time>2019-07-15T11:36:12Z</time>
      </trkpt>
      <trkpt lat="47.80351" lon="-3.52701">
        <ele>4</ele>
        <time>2019-07-15T11:36:13Z</time>
      </trkpt>
      <trkpt lat="47.8035" lon="-3.52701">
        <ele>5</ele>
        <time>2019-07-15T11:36:14Z</time>
      </trkpt>
      <trkpt lat="47.80349" lon="-3.52701">
        <ele>5</ele>
        <time>2019-07-15T11:36:15Z</time>
      </trkpt>
      <trkpt lat="47.80349" lon="-3.52701">
        <ele>5</ele>
        <time>2019-07-15T11:36:16Z</time>
      </trkpt>
      <trkpt lat="47.80349" lon="-3.527">
        <ele>5</ele>
        <time>2019-07-15T11:36:17Z</time>
      </trkpt>
      <trkpt lat="47.80349" lon="-3.52698">
        <ele>6</ele>
        <time>2019-07-15T11:36:18Z</time>
      </trkpt>
      <trkpt lat="47.8035" lon="-3.52697">
        <ele>6</ele>
        <time>2019-07-15T11:36:19Z</time>
      </trkpt>
      <trkpt lat="47.8035" lon="-3.52696">
        <ele>6</ele>
        <time>2019-07-15T11:36:20Z</time>
      </trkpt>
      <trkpt lat="47.80351" lon="-3.52696">
        <ele>6</ele>
        <time>2019-07-15T11:36:21Z</time>
      </trkpt>
      <trkpt lat="47.80351" lon="-3.52696">
        <ele>6</ele>
        <time>2019-07-15T11:36:22Z</time>
      </trkpt>
      <trkpt lat="47.80352" lon="-3.52699">
        <ele>7</ele>
        <time>2019-07-15T11:36:23Z</time>
      </trkpt>
      <trkpt lat="47.80351" lon="-3.52701">
        <ele>8</ele>
        <time>2019-07-15T11:36:24Z</time>
      </trkpt>
      <trkpt lat="47.80349" lon="-3.52701">
        <ele>8</ele>
        <time>2019-07-15T11:36:25Z</time>
      </trkpt>
      <trkpt lat="47.80348" lon="-3.52701">
        <ele>8</ele>
        <time>2019-07-15T11:36:26Z</time>
      </trkpt>
      <trkpt lat="47.80346" lon="-3.527">
        <ele>8</ele>
        <time>2019-07-15T11:36:27Z</time>
      </trkpt>
      <trkpt lat="47.80345" lon="-3.527">
        <ele>8</ele>
        <time>2019-07-15T11:36:28Z</time>
      </trkpt>
      <trkpt lat="47.80342" lon="-3.52701">
        <ele>8</ele>
        <time>2019-07-15T11:36:29Z</time>
      </trkpt>
      <trkpt lat="47.8034" lon="-3.52701">
        <ele>8</ele>
        <time>2019-07-15T11:36:30Z</time>
      </trkpt>
      <trkpt lat="47.80338" lon="-3.52701">
        <ele>8</ele>
        <time>2019-07-15T11:36:31Z</time>
      </trkpt>
      <trkpt lat="47.80336" lon="-3.52702">
        <ele>8</ele>
        <time>2019-07-15T11:36:32Z</time>
      </trkpt>
      <trkpt lat="47.80334" lon="-3.52702">
        <ele>8</ele>
        <time>2019-07-15T11:36:33Z</time>
      </trkpt>
      <trkpt lat="47.80332" lon="-3.52703">
        <ele>8</ele>
        <time>2019-07-15T11:36:34Z</time>
      </trkpt>
      <trkpt lat="47.8033" lon="-3.52704">
        <ele>8</ele>
        <time>2019-07-15T11:36:35Z</time>
      </trkpt>
      <trkpt lat="47.80328" lon="-3.52705">
        <ele>8</ele>
        <time>2019-07-15T11:36:36Z</time>
      </trkpt>
      <trkpt lat="47.80326" lon="-3.52706">
        <ele>8</ele>
        <time>2019-07-15T11:36:37Z</time>
      </trkpt>
      <trkpt lat="47.80324" lon="-3.52707">
        <ele>8</ele>
        <time>2019-07-15T11:36:38Z</time>
      </trkpt>
      <trkpt lat="47.80322" lon="-3.52708">
        <ele>9</ele>
        <time>2019-07-15T11:36:39Z</time>
      </trkpt>
      <trkpt lat="47.8032" lon="-3.52709">
        <ele>9</ele>
        <time>2019-07-15T11:36:40Z</time>
      </trkpt>
      <trkpt lat="47.80317" lon="-3.52711">
        <ele>9</ele>
        <time>2019-07-15T11:36:41Z</time>
      </trkpt>
      <trkpt lat="47.80316" lon="-3.52713">
        <ele>9</ele>
        <time>2019-07-15T11:36:42Z</time>
      </trkpt>
      <trkpt lat="47.80314" lon="-3.52715">
        <ele>9</ele>
        <time>2019-07-15T11:36:43Z</time>
      </trkpt>
      <trkpt lat="47.80311" lon="-3.52717">
        <ele>9</ele>
        <time>2019-07-15T11:36:44Z</time>
      </trkpt>
      <trkpt lat="47.80309" lon="-3.52719">
        <ele>10</ele>
        <time>2019-07-15T11:36:45Z</time>
      </trkpt>
      <trkpt lat="47.80306" lon="-3.52721">
        <ele>10</ele>
        <time>2019-07-15T11:36:46Z</time>
      </trkpt>
      <trkpt lat="47.80304" lon="-3.52724">
        <ele>10</ele>
        <time>2019-07-15T11:36:47Z</time>
      </trkpt>
      <trkpt lat="47.80302" lon="-3.52725">
        <ele>10</ele>
        <time>2019-07-15T11:36:48Z</time>
      </trkpt>
      <trkpt lat="47.803" lon="-3.52727">
        <ele>11</ele>
        <time>2019-07-15T11:36:49Z</time>
      </trkpt>
      <trkpt lat="47.80298" lon="-3.52728">
        <ele>11</ele>
        <time>2019-07-15T11:36:50Z</time>
      </trkpt>
      <trkpt lat="47.80296" lon="-3.5273">
        <ele>11</ele>
        <time>2019-07-15T11:36:51Z</time>
      </trkpt>
      <trkpt lat="47.80294" lon="-3.52731">
        <ele>12</ele>
        <time>2019-07-15T11:36:52Z</time>
      </trkpt>
      <trkpt lat="47.80292" lon="-3.52733">
        <ele>12</ele>
        <time>2019-07-15T11:36:53Z</time>
      </trkpt>
      <trkpt lat="47.8029" lon="-3.52734">
        <ele>12</ele>
        <time>2019-07-15T11:36:54Z</time>
      </trkpt>
      <trkpt lat="47.80289" lon="-3.52736">
        <ele>13</ele>
        <time>2019-07-15T11:36:55Z</time>
      </trkpt>
      <trkpt lat="47.80287" lon="-3.52738">
        <ele>13</ele>
        <time>2019-07-15T11:36:56Z</time>
      </trkpt>
      <trkpt lat="47.80284" lon="-3.5274">
        <ele>14</ele>
        <time>2019-07-15T11:36:57Z</time>
      </trkpt>
      <trkpt lat="47.80282" lon="-3.52742">
        <ele>14</ele>
        <time>2019-07-15T11:36:58Z</time>
      </trkpt>
      <trkpt lat="47.8028" lon="-3.52744">
        <ele>14</ele>
        <time>2019-07-15T11:36:59Z</time>
      </trkpt>
      <trkpt lat="47.80277" lon="-3.52746">
        <ele>14</ele>
        <time>2019-07-15T11:37:00Z</time>
      </trkpt>
      <trkpt lat="47.80275" lon="-3.52747">
        <ele>14</ele>
        <time>2019-07-15T11:37:01Z</time>
      </trkpt>
      <trkpt lat="47.80273" lon="-3.52749">
        <ele>14</ele>
        <time>2019-07-15T11:37:02Z</time>
      </trkpt>
      <trkpt lat="47.8027" lon="-3.5275">
        <ele>14</ele>
        <time>2019-07-15T11:37:03Z</time>
      </trkpt>
      <trkpt lat="47.80267" lon="-3.52752">
        <ele>14</ele>
        <time>2019-07-15T11:37:04Z</time>
      </trkpt>
      <trkpt lat="47.80265" lon="-3.52754">
        <ele>14</ele>
        <time>2019-07-15T11:37:05Z</time>
      </trkpt>
      <trkpt lat="47.80262" lon="-3.52755">
        <ele>14</ele>
        <time>2019-07-15T11:37:06Z</time>
      </trkpt>
      <trkpt lat="47.8026" lon="-3.52756">
        <ele>15</ele>
        <time>2019-07-15T11:37:07Z</time>
      </trkpt>
      <trkpt lat="47.80257" lon="-3.52758">
        <ele>15</ele>
        <time>2019-07-15T11:37:08Z</time>
      </trkpt>
      <trkpt lat="47.80255" lon="-3.52759">
        <ele>15</ele>
        <time>2019-07-15T11:37:09Z</time>
      </trkpt>
      <trkpt lat="47.80253" lon="-3.5276">
        <ele>15</ele>
        <time>2019-07-15T11:37:10Z</time>
      </trkpt>
      <trkpt lat="47.8025" lon="-3.52761">
        <ele>15</ele>
        <time>2019-07-15T11:37:11Z</time>
      </trkpt>
      <trkpt lat="47.80248" lon="-3.52762">
        <ele>15</ele>
        <time>2019-07-15T11:37:12Z</time>
      </trkpt>
      <trkpt lat="47.80247" lon="-3.52762">
        <ele>15</ele>
        <time>2019-07-15T11:37:13Z</time>
      </trkpt>
      <trkpt lat="47.80246" lon="-3.52761">
        <ele>16</ele>
        <time>2019-07-15T11:37:14Z</time>
      </trkpt>
      <trkpt lat="47.80246" lon="-3.52761">
        <ele>16</ele>
        <time>2019-07-15T11:37:15Z</time>
      </trkpt>
      <trkpt lat="47.80245" lon="-3.52761">
        <ele>16</ele>
        <time>2019-07-15T11:37:16Z</time>
      </trkpt>
      <trkpt lat="47.80245" lon="-3.52761">
        <ele>16</ele>
        <time>2019-07-15T11:37:17Z</time>
      </trkpt>
      <trkpt lat="47.80252" lon="-3.52761">
        <ele>20</ele>
        <time>2019-07-15T11:37:18Z</time>
      </trkpt>
      <trkpt lat="47.80253" lon="-3.5276">
        <ele>20</ele>
        <time>2019-07-15T11:37:19Z</time>
      </trkpt>
      <trkpt lat="47.80254" lon="-3.52758">
        <ele>20</ele>
        <time>2019-07-15T11:37:20Z</time>
      </trkpt>
      <trkpt lat="47.80256" lon="-3.52757">
        <ele>20</ele>
        <time>2019-07-15T11:37:21Z</time>
      </trkpt>
      <trkpt lat="47.80257" lon="-3.52756">
        <ele>21</ele>
        <time>2019-07-15T11:37:22Z</time>
      </trkpt>
      <trkpt lat="47.80258" lon="-3.52754">
        <ele>21</ele>
        <time>2019-07-15T11:37:23Z</time>
      </trkpt>
      <trkpt lat="47.80259" lon="-3.52754">
        <ele>21</ele>
        <time>2019-07-15T11:37:24Z</time>
      </trkpt>
      <trkpt lat="47.80261" lon="-3.52753">
        <ele>20</ele>
        <time>2019-07-15T11:37:25Z</time>
      </trkpt>
      <trkpt lat="47.80263" lon="-3.52751">
        <ele>20</ele>
        <time>2019-07-15T11:37:26Z</time>
      </trkpt>
      <trkpt lat="47.80265" lon="-3.52749">
        <ele>20</ele>
        <time>2019-07-15T11:37:27Z</time>
      </trkpt>
      <trkpt lat="47.80267" lon="-3.52747">
        <ele>20</ele>
        <time>2019-07-15T11:37:28Z</time>
      </trkpt>
      <trkpt lat="47.80269" lon="-3.52745">
        <ele>20</ele>
        <time>2019-07-15T11:37:29Z</time>
      </trkpt>
      <trkpt lat="47.8027" lon="-3.52743">
        <ele>20</ele>
        <time>2019-07-15T11:37:30Z</time>
      </trkpt>
      <trkpt lat="47.8027" lon="-3.52741">
        <ele>21</ele>
        <time>2019-07-15T11:37:31Z</time>
      </trkpt>
      <trkpt lat="47.80271" lon="-3.52739">
        <ele>21</ele>
        <time>2019-07-15T11:37:32Z</time>
      </trkpt>
      <trkpt lat="47.80272" lon="-3.52738">
        <ele>21</ele>
        <time>2019-07-15T11:37:33Z</time>
      </trkpt>
      <trkpt lat="47.80273" lon="-3.52736">
        <ele>21</ele>
        <time>2019-07-15T11:37:34Z</time>
      </trkpt>
      <trkpt lat="47.80274" lon="-3.52735">
        <ele>21</ele>
        <time>2019-07-15T11:37:35Z</time>
      </trkpt>
      <trkpt lat="47.80275" lon="-3.52733">
        <ele>21</ele>
        <time>2019-07-15T11:37:36Z</time>
      </trkpt>
      <trkpt lat="47.80276" lon="-3.52731">
        <ele>21</ele>
        <time>2019-07-15T11:37:37Z</time>
      </trkpt>
      <trkpt lat="47.80277" lon="-3.52728">
        <ele>22</ele>
        <time>2019-07-15T11:37:38Z</time>
      </trkpt>
      <trkpt lat="47.80278" lon="-3.52727">
        <ele>22</ele>
        <time>2019-07-15T11:37:39Z</time>
      </trkpt>
      <trkpt lat="47.80279" lon="-3.52725">
        <ele>22</ele>
        <time>2019-07-15T11:37:40Z</time>
      </trkpt>
      <trkpt lat="47.8028" lon="-3.52723">
        <ele>22</ele>
        <time>2019-07-15T11:37:41Z</time>
      </trkpt>
      <trkpt lat="47.80281" lon="-3.52721">
        <ele>22</ele>
        <time>2019-07-15T11:37:42Z</time>
      </trkpt>
      <trkpt lat="47.80282" lon="-3.52718">
        <ele>23</ele>
        <time>2019-07-15T11:37:43Z</time>
      </trkpt>
      <trkpt lat="47.80283" lon="-3.52716">
        <ele>23</ele>
        <time>2019-07-15T11:37:44Z</time>
      </trkpt>
      <trkpt lat="47.80284" lon="-3.52714">
        <ele>23</ele>
        <time>2019-07-15T11:37:45Z</time>
      </trkpt>
      <trkpt lat="47.80286" lon="-3.5271">
        <ele>23</ele>
        <time>2019-07-15T11:37:46Z</time>
      </trkpt>
      <trkpt lat="47.80287" lon="-3.52707">
        <ele>24</ele>
        <time>2019-07-15T11:37:47Z</time>
      </trkpt>
      <trkpt lat="47.80288" lon="-3.52704">
        <ele>24</ele>
        <time>2019-07-15T11:37:48Z</time>
      </trkpt>
      <trkpt lat="47.80289" lon="-3.52701">
        <ele>24</ele>
        <time>2019-07-15T11:37:49Z</time>
      </trkpt>
      <trkpt lat="47.80289" lon="-3.52698">
        <ele>24</ele>
        <time>2019-07-15T11:37:50Z</time>
      </trkpt>
      <trkpt lat="47.8029" lon="-3.52696">
        <ele>24</ele>
        <time>2019-07-15T11:37:51Z</time>
      </trkpt>
      <trkpt lat="47.8029" lon="-3.52693">
        <ele>25</ele>
        <time>2019-07-15T11:37:52Z</time>
      </trkpt>
      <trkpt lat="47.8029" lon="-3.52691">
        <ele>25</ele>
        <time>2019-07-15T11:37:53Z</time>
      </trkpt>
      <trkpt lat="47.8029" lon="-3.52689">
        <ele>25</ele>
        <time>2019-07-15T11:37:54Z</time>
      </trkpt>
      <trkpt lat="47.8029" lon="-3.52686">
        <ele>25</ele>
        <time>2019-07-15T11:37:55Z</time>
      </trkpt>
      <trkpt lat="47.8029" lon="-3.52683">
        <ele>25</ele>
        <time>2019-07-15T11:37:56Z</time>
      </trkpt>
      <trkpt lat="47.8029" lon="-3.5268">
        <ele>25</ele>
        <time>2019-07-15T11:37:57Z</time>
      </trkpt>
      <trkpt lat="47.8029" lon="-3.52677">
        <ele>25</ele>
        <time>2019-07-15T11:37:58Z</time>
      </trkpt>
      <trkpt lat="47.80291" lon="-3.52674">
        <ele>26</ele>
        <time>2019-07-15T11:37:59Z</time>
      </trkpt>
      <trkpt lat="47.80291" lon="-3.52671">
        <ele>26</ele>
        <time>2019-07-15T11:38:00Z</time>
      </trkpt>
      <trkpt lat="47.80292" lon="-3.52667">
        <ele>26</ele>
        <time>2019-07-15T11:38:01Z</time>
      </trkpt>
      <trkpt lat="47.80292" lon="-3.52664">
        <ele>26</ele>
        <time>2019-07-15T11:38:02Z</time>
      </trkpt>
      <trkpt lat="47.80292" lon="-3.52661">
        <ele>26</ele>
        <time>2019-07-15T11:38:03Z</time>
      </trkpt>
      <trkpt lat="47.80293" lon="-3.52659">
        <ele>26</ele>
        <time>2019-07-15T11:38:04Z</time>
      </trkpt>
      <trkpt lat="47.80293" lon="-3.52656">
        <ele>26</ele>
        <time>2019-07-15T11:38:05Z</time>
      </trkpt>
      <trkpt lat="47.80293" lon="-3.52652">
        <ele>26</ele>
        <time>2019-07-15T11:38:06Z</time>
      </trkpt>
      <trkpt lat="47.80294" lon="-3.52649">
        <ele>27</ele>
        <time>2019-07-15T11:38:07Z</time>
      </trkpt>
      <trkpt lat="47.80293" lon="-3.52645">
        <ele>27</ele>
        <time>2019-07-15T11:38:08Z</time>
      </trkpt>
      <trkpt lat="47.80294" lon="-3.52641">
        <ele>27</ele>
        <time>2019-07-15T11:38:09Z</time>
      </trkpt>
      <trkpt lat="47.80294" lon="-3.52637">
        <ele>27</ele>
        <time>2019-07-15T11:38:10Z</time>
      </trkpt>
      <trkpt lat="47.80294" lon="-3.52633">
        <ele>27</ele>
        <time>2019-07-15T11:38:11Z</time>
      </trkpt>
      <trkpt lat="47.80294" lon="-3.5263">
        <ele>28</ele>
        <time>2019-07-15T11:38:12Z</time>
      </trkpt>
      <trkpt lat="47.80294" lon="-3.52626">
        <ele>28</ele>
        <time>2019-07-15T11:38:13Z</time>
      </trkpt>
      <trkpt lat="47.80294" lon="-3.52622">
        <ele>28</ele>
        <time>2019-07-15T11:38:14Z</time>
      </trkpt>
      <trkpt lat="47.80294" lon="-3.52618">
        <ele>28</ele>
        <time>2019-07-15T11:38:15Z</time>
      </trkpt>
      <trkpt lat="47.80294" lon="-3.52615">
        <ele>28</ele>
        <time>2019-07-15T11:38:16Z</time>
      </trkpt>
      <trkpt lat="47.80294" lon="-3.52611">
        <ele>29</ele>
        <time>2019-07-15T11:38:17Z</time>
      </trkpt>
      <trkpt lat="47.80294" lon="-3.52608">
        <ele>29</ele>
        <time>2019-07-15T11:38:18Z</time>
      </trkpt>
      <trkpt lat="47.80294" lon="-3.52606">
        <ele>29</ele>
        <time>2019-07-15T11:38:19Z</time>
      </trkpt>
      <trkpt lat="47.80294" lon="-3.52602">
        <ele>29</ele>
        <time>2019-07-15T11:38:20Z</time>
      </trkpt>
      <trkpt lat="47.80293" lon="-3.52599">
        <ele>29</ele>
        <time>2019-07-15T11:38:21Z</time>
      </trkpt>
      <trkpt lat="47.80292" lon="-3.52596">
        <ele>29</ele>
        <time>2019-07-15T11:38:22Z</time>
      </trkpt>
      <trkpt lat="47.80292" lon="-3.52593">
        <ele>29</ele>
        <time>2019-07-15T11:38:23Z</time>
      </trkpt>
      <trkpt lat="47.80291" lon="-3.5259">
        <ele>29</ele>
        <time>2019-07-15T11:38:24Z</time>
      </trkpt>
      <trkpt lat="47.80291" lon="-3.52587">
        <ele>30</ele>
        <time>2019-07-15T11:38:25Z</time>
      </trkpt>
      <trkpt lat="47.80291" lon="-3.52583">
        <ele>30</ele>
        <time>2019-07-15T11:38:26Z</time>
      </trkpt>
      <trkpt lat="47.80291" lon="-3.52579">
        <ele>30</ele>
        <time>2019-07-15T11:38:27Z</time>
      </trkpt>
      <trkpt lat="47.80291" lon="-3.52576">
        <ele>30</ele>
        <time>2019-07-15T11:38:28Z</time>
      </trkpt>
      <trkpt lat="47.80291" lon="-3.52572">
        <ele>30</ele>
        <time>2019-07-15T11:38:29Z</time>
      </trkpt>
      <trkpt lat="47.80291" lon="-3.52567">
        <ele>30</ele>
        <time>2019-07-15T11:38:30Z</time>
      </trkpt>
      <trkpt lat="47.80292" lon="-3.52562">
        <ele>31</ele>
        <time>2019-07-15T11:38:31Z</time>
      </trkpt>
      <trkpt lat="47.80291" lon="-3.52558">
        <ele>31</ele>
        <time>2019-07-15T11:38:32Z</time>
      </trkpt>
      <trkpt lat="47.80291" lon="-3.52554">
        <ele>31</ele>
        <time>2019-07-15T11:38:33Z</time>
      </trkpt>
      <trkpt lat="47.80291" lon="-3.52549">
        <ele>31</ele>
        <time>2019-07-15T11:38:34Z</time>
      </trkpt>
      <trkpt lat="47.80291" lon="-3.52543">
        <ele>31</ele>
        <time>2019-07-15T11:38:35Z</time>
      </trkpt>
      <trkpt lat="47.80291" lon="-3.52538">
        <ele>32</ele>
        <time>2019-07-15T11:38:36Z</time>
      </trkpt>
      <trkpt lat="47.80291" lon="-3.52532">
        <ele>32</ele>
        <time>2019-07-15T11:38:37Z</time>
      </trkpt>
      <trkpt lat="47.80291" lon="-3.52526">
        <ele>32</ele>
        <time>2019-07-15T11:38:38Z</time>
      </trkpt>
      <trkpt lat="47.80292" lon="-3.52521">
        <ele>32</ele>
        <time>2019-07-15T11:38:39Z</time>
      </trkpt>
      <trkpt lat="47.80292" lon="-3.52515">
        <ele>32</ele>
        <time>2019-07-15T11:38:40Z</time>
      </trkpt>
      <trkpt lat="47.80292" lon="-3.52511">
        <ele>32</ele>
        <time>2019-07-15T11:38:41Z</time>
      </trkpt>
      <trkpt lat="47.80293" lon="-3.52506">
        <ele>32</ele>
        <time>2019-07-15T11:38:42Z</time>
      </trkpt>
      <trkpt lat="47.80293" lon="-3.52501">
        <ele>32</ele>
        <time>2019-07-15T11:38:43Z</time>
      </trkpt>
      <trkpt lat="47.80293" lon="-3.52497">
        <ele>32</ele>
        <time>2019-07-15T11:38:44Z</time>
      </trkpt>
      <trkpt lat="47.80294" lon="-3.52493">
        <ele>32</ele>
        <time>2019-07-15T11:38:45Z</time>
      </trkpt>
      <trkpt lat="47.80294" lon="-3.52488">
        <ele>33</ele>
        <time>2019-07-15T11:38:46Z</time>
      </trkpt>
      <trkpt lat="47.80295" lon="-3.52484">
        <ele>33</ele>
        <time>2019-07-15T11:38:47Z</time>
      </trkpt>
      <trkpt lat="47.80296" lon="-3.52479">
        <ele>33</ele>
        <time>2019-07-15T11:38:48Z</time>
      </trkpt>
      <trkpt lat="47.80296" lon="-3.52475">
        <ele>33</ele>
        <time>2019-07-15T11:38:49Z</time>
      </trkpt>
      <trkpt lat="47.80297" lon="-3.52471">
        <ele>33</ele>
        <time>2019-07-15T11:38:50Z</time>
      </trkpt>
      <trkpt lat="47.80298" lon="-3.52466">
        <ele>33</ele>
        <time>2019-07-15T11:38:51Z</time>
      </trkpt>
      <trkpt lat="47.80299" lon="-3.52459">
        <ele>33</ele>
        <time>2019-07-15T11:38:52Z</time>
      </trkpt>
      <trkpt lat="47.80299" lon="-3.52454">
        <ele>33</ele>
        <time>2019-07-15T11:38:53Z</time>
      </trkpt>
      <trkpt lat="47.803" lon="-3.52449">
        <ele>33</ele>
        <time>2019-07-15T11:38:54Z</time>
      </trkpt>
      <trkpt lat="47.803" lon="-3.52443">
        <ele>33</ele>
        <time>2019-07-15T11:38:55Z</time>
      </trkpt>
      <trkpt lat="47.80301" lon="-3.52437">
        <ele>33</ele>
        <time>2019-07-15T11:38:56Z</time>
      </trkpt>
      <trkpt lat="47.80302" lon="-3.5243">
        <ele>33</ele>
        <time>2019-07-15T11:38:57Z</time>
      </trkpt>
      <trkpt lat="47.80302" lon="-3.52425">
        <ele>33</ele>
        <time>2019-07-15T11:38:58Z</time>
      </trkpt>
      <trkpt lat="47.80302" lon="-3.52419">
        <ele>33</ele>
        <time>2019-07-15T11:38:59Z</time>
      </trkpt>
      <trkpt lat="47.80303" lon="-3.52414">
        <ele>33</ele>
        <time>2019-07-15T11:39:00Z</time>
      </trkpt>
      <trkpt lat="47.80305" lon="-3.52408">
        <ele>33</ele>
        <time>2019-07-15T11:39:01Z</time>
      </trkpt>
      <trkpt lat="47.80306" lon="-3.52403">
        <ele>34</ele>
        <time>2019-07-15T11:39:02Z</time>
      </trkpt>
      <trkpt lat="47.80307" lon="-3.52399">
        <ele>34</ele>
        <time>2019-07-15T11:39:03Z</time>
      </trkpt>
      <trkpt lat="47.80307" lon="-3.52394">
        <ele>34</ele>
        <time>2019-07-15T11:39:04Z</time>
      </trkpt>
      <trkpt lat="47.80307" lon="-3.52389">
        <ele>34</ele>
        <time>2019-07-15T11:39:05Z</time>
      </trkpt>
      <trkpt lat="47.80308" lon="-3.52383">
        <ele>34</ele>
        <time>2019-07-15T11:39:06Z</time>
      </trkpt>
      <trkpt lat="47.8031" lon="-3.5238">
        <ele>34</ele>
        <time>2019-07-15T11:39:07Z</time>
      </trkpt>
      <trkpt lat="47.80312" lon="-3.52376">
        <ele>35</ele>
        <time>2019-07-15T11:39:08Z</time>
      </trkpt>
      <trkpt lat="47.80314" lon="-3.52373">
        <ele>35</ele>
        <time>2019-07-15T11:39:09Z</time>
      </trkpt>
      <trkpt lat="47.80316" lon="-3.52367">
        <ele>35</ele>
        <time>2019-07-15T11:39:10Z</time>
      </trkpt>
      <trkpt lat="47.80319" lon="-3.52362">
        <ele>35</ele>
        <time>2019-07-15T11:39:11Z</time>
      </trkpt>
      <trkpt lat="47.80323" lon="-3.52356">
        <ele>35</ele>
        <time>2019-07-15T11:39:12Z</time>
      </trkpt>
      <trkpt lat="47.80326" lon="-3.52351">
        <ele>35</ele>
        <time>2019-07-15T11:39:13Z</time>
      </trkpt>
      <trkpt lat="47.80329" lon="-3.52346">
        <ele>35</ele>
        <time>2019-07-15T11:39:14Z</time>
      </trkpt>
      <trkpt lat="47.80332" lon="-3.52342">
        <ele>35</ele>
        <time>2019-07-15T11:39:15Z</time>
      </trkpt>
      <trkpt lat="47.80335" lon="-3.52338">
        <ele>35</ele>
        <time>2019-07-15T11:39:16Z</time>
      </trkpt>
      <trkpt lat="47.80336" lon="-3.52335">
        <ele>35</ele>
        <time>2019-07-15T11:39:17Z</time>
      </trkpt>
      <trkpt lat="47.80337" lon="-3.52331">
        <ele>34</ele>
        <time>2019-07-15T11:39:18Z</time>
      </trkpt>
      <trkpt lat="47.80337" lon="-3.52328">
        <ele>34</ele>
        <time>2019-07-15T11:39:19Z</time>
      </trkpt>
      <trkpt lat="47.80336" lon="-3.52324">
        <ele>34</ele>
        <time>2019-07-15T11:39:20Z</time>
      </trkpt>
      <trkpt lat="47.80334" lon="-3.52318">
        <ele>34</ele>
        <time>2019-07-15T11:39:21Z</time>
      </trkpt>
      <trkpt lat="47.80333" lon="-3.52312">
        <ele>34</ele>
        <time>2019-07-15T11:39:22Z</time>
      </trkpt>
      <trkpt lat="47.80331" lon="-3.52305">
        <ele>33</ele>
        <time>2019-07-15T11:39:23Z</time>
      </trkpt>
      <trkpt lat="47.80329" lon="-3.52296">
        <ele>33</ele>
        <time>2019-07-15T11:39:24Z</time>
      </trkpt>
      <trkpt lat="47.80327" lon="-3.52287">
        <ele>33</ele>
        <time>2019-07-15T11:39:25Z</time>
      </trkpt>
      <trkpt lat="47.80327" lon="-3.52279">
        <ele>33</ele>
        <time>2019-07-15T11:39:26Z</time>
      </trkpt>
      <trkpt lat="47.80327" lon="-3.52272">
        <ele>32</ele>
        <time>2019-07-15T11:39:27Z</time>
      </trkpt>
      <trkpt lat="47.80329" lon="-3.52264">
        <ele>32</ele>
        <time>2019-07-15T11:39:28Z</time>
      </trkpt>
      <trkpt lat="47.8033" lon="-3.52256">
        <ele>32</ele>
        <time>2019-07-15T11:39:29Z</time>
      </trkpt>
      <trkpt lat="47.80332" lon="-3.52249">
        <ele>32</ele>
        <time>2019-07-15T11:39:30Z</time>
      </trkpt>
      <trkpt lat="47.80334" lon="-3.52244">
        <ele>31</ele>
        <time>2019-07-15T11:39:31Z</time>
      </trkpt>
      <trkpt lat="47.80336" lon="-3.52241">
        <ele>31</ele>
        <time>2019-07-15T11:39:32Z</time>
      </trkpt>
      <trkpt lat="47.80337" lon="-3.52239">
        <ele>30</ele>
        <time>2019-07-15T11:39:33Z</time>
      </trkpt>
      <trkpt lat="47.80338" lon="-3.52238">
        <ele>30</ele>
        <time>2019-07-15T11:39:34Z</time>
      </trkpt>
      <trkpt lat="47.80339" lon="-3.52237">
        <ele>29</ele>
        <time>2019-07-15T11:39:35Z</time>
      </trkpt>
      <trkpt lat="47.8034" lon="-3.52235">
        <ele>29</ele>
        <time>2019-07-15T11:39:36Z</time>
      </trkpt>
      <trkpt lat="47.80341" lon="-3.52233">
        <ele>28</ele>
        <time>2019-07-15T11:39:37Z</time>
      </trkpt>
      <trkpt lat="47.80343" lon="-3.52229">
        <ele>27</ele>
        <time>2019-07-15T11:39:38Z</time>
      </trkpt>
      <trkpt lat="47.80345" lon="-3.52225">
        <ele>27</ele>
        <time>2019-07-15T11:39:39Z</time>
      </trkpt>
      <trkpt lat="47.80345" lon="-3.52222">
        <ele>26</ele>
        <time>2019-07-15T11:39:40Z</time>
      </trkpt>
      <trkpt lat="47.80346" lon="-3.52219">
        <ele>26</ele>
        <time>2019-07-15T11:39:41Z</time>
      </trkpt>
      <trkpt lat="47.80348" lon="-3.52215">
        <ele>25</ele>
        <time>2019-07-15T11:39:42Z</time>
      </trkpt>
      <trkpt lat="47.80349" lon="-3.52209">
        <ele>25</ele>
        <time>2019-07-15T11:39:43Z</time>
      </trkpt>
      <trkpt lat="47.8035" lon="-3.52203">
        <ele>24</ele>
        <time>2019-07-15T11:39:44Z</time>
      </trkpt>
      <trkpt lat="47.80351" lon="-3.52199">
        <ele>24</ele>
        <time>2019-07-15T11:39:45Z</time>
      </trkpt>
      <trkpt lat="47.80352" lon="-3.52194">
        <ele>24</ele>
        <time>2019-07-15T11:39:46Z</time>
      </trkpt>
      <trkpt lat="47.80353" lon="-3.52186">
        <ele>23</ele>
        <time>2019-07-15T11:39:47Z</time>
      </trkpt>
      <trkpt lat="47.80354" lon="-3.5218">
        <ele>23</ele>
        <time>2019-07-15T11:39:48Z</time>
      </trkpt>
      <trkpt lat="47.80356" lon="-3.52173">
        <ele>23</ele>
        <time>2019-07-15T11:39:49Z</time>
      </trkpt>
      <trkpt lat="47.80356" lon="-3.52168">
        <ele>22</ele>
        <time>2019-07-15T11:39:50Z</time>
      </trkpt>
      <trkpt lat="47.80358" lon="-3.52164">
        <ele>22</ele>
        <time>2019-07-15T11:39:51Z</time>
      </trkpt>
      <trkpt lat="47.8036" lon="-3.52161">
        <ele>21</ele>
        <time>2019-07-15T11:39:52Z</time>
      </trkpt>
      <trkpt lat="47.80361" lon="-3.52157">
        <ele>21</ele>
        <time>2019-07-15T11:39:53Z</time>
      </trkpt>
      <trkpt lat="47.80362" lon="-3.52152">
        <ele>21</ele>
        <time>2019-07-15T11:39:54Z</time>
      </trkpt>
      <trkpt lat="47.80363" lon="-3.52146">
        <ele>20</ele>
        <time>2019-07-15T11:39:55Z</time>
      </trkpt>
      <trkpt lat="47.80363" lon="-3.52138">
        <ele>20</ele>
        <time>2019-07-15T11:39:56Z</time>
      </trkpt>
      <trkpt lat="47.80364" lon="-3.5213">
        <ele>19</ele>
        <time>2019-07-15T11:39:57Z</time>
      </trkpt>
      <trkpt lat="47.80365" lon="-3.52121">
        <ele>19</ele>
        <time>2019-07-15T11:39:58Z</time>
      </trkpt>
      <trkpt lat="47.80365" lon="-3.52114">
        <ele>19</ele>
        <time>2019-07-15T11:39:59Z</time>
      </trkpt>
      <trkpt lat="47.80365" lon="-3.52108">
        <ele>18</ele>
        <time>2019-07-15T11:40:00Z</time>
      </trkpt>
      <trkpt lat="47.80364" lon="-3.52102">
        <ele>18</ele>
        <time>2019-07-15T11:40:01Z</time>
      </trkpt>
      <trkpt lat="47.80361" lon="-3.52098">
        <ele>17</ele>
        <time>2019-07-15T11:40:02Z</time>
      </trkpt>
      <trkpt lat="47.80358" lon="-3.52096">
        <ele>17</ele>
        <time>2019-07-15T11:40:03Z</time>
      </trkpt>
      <trkpt lat="47.80355" lon="-3.52095">
        <ele>16</ele>
        <time>2019-07-15T11:40:04Z</time>
      </trkpt>
      <trkpt lat="47.80352" lon="-3.52096">
        <ele>16</ele>
        <time>2019-07-15T11:40:05Z</time>
      </trkpt>
      <trkpt lat="47.80349" lon="-3.52097">
        <ele>16</ele>
        <time>2019-07-15T11:40:06Z</time>
      </trkpt>
      <trkpt lat="47.80346" lon="-3.52097">
        <ele>15</ele>
        <time>2019-07-15T11:40:07Z</time>
      </trkpt>
      <trkpt lat="47.80342" lon="-3.52098">
        <ele>15</ele>
        <time>2019-07-15T11:40:08Z</time>
      </trkpt>
      <trkpt lat="47.80339" lon="-3.521">
        <ele>14</ele>
        <time>2019-07-15T11:40:09Z</time>
      </trkpt>
      <trkpt lat="47.80336" lon="-3.52101">
        <ele>14</ele>
        <time>2019-07-15T11:40:10Z</time>
      </trkpt>
      <trkpt lat="47.80334" lon="-3.52104">
        <ele>14</ele>
        <time>2019-07-15T11:40:11Z</time>
      </trkpt>
      <trkpt lat="47.80331" lon="-3.52107">
        <ele>13</ele>
        <time>2019-07-15T11:40:12Z</time>
      </trkpt>
      <trkpt lat="47.80329" lon="-3.52109">
        <ele>13</ele>
        <time>2019-07-15T11:40:13Z</time>
      </trkpt>
      <trkpt lat="47.80326" lon="-3.52111">
        <ele>13</ele>
        <time>2019-07-15T11:40:14Z</time>
      </trkpt>
      <trkpt lat="47.80323" lon="-3.52114">
        <ele>12</ele>
        <time>2019-07-15T11:40:15Z</time>
      </trkpt>
      <trkpt lat="47.80321" lon="-3.52117">
        <ele>12</ele>
        <time>2019-07-15T11:40:16Z</time>
      </trkpt>
      <trkpt lat="47.8032" lon="-3.52119">
        <ele>12</ele>
        <time>2019-07-15T11:40:17Z</time>
      </trkpt>
      <trkpt lat="47.80319" lon="-3.52122">
        <ele>12</ele>
        <time>2019-07-15T11:40:18Z</time>
      </trkpt>
      <trkpt lat="47.80318" lon="-3.52124">
        <ele>11</ele>
        <time>2019-07-15T11:40:19Z</time>
      </trkpt>
      <trkpt lat="47.80317" lon="-3.52125">
        <ele>11</ele>
        <time>2019-07-15T11:40:20Z</time>
      </trkpt>
      <trkpt lat="47.80316" lon="-3.52127">
        <ele>11</ele>
        <time>2019-07-15T11:40:21Z</time>
      </trkpt>
      <trkpt lat="47.80316" lon="-3.5213">
        <ele>11</ele>
        <time>2019-07-15T11:40:22Z</time>
      </trkpt>
      <trkpt lat="47.80316" lon="-3.52132">
        <ele>11</ele>
        <time>2019-07-15T11:40:23Z</time>
      </trkpt>
      <trkpt lat="47.80315" lon="-3.52134">
        <ele>11</ele>
        <time>2019-07-15T11:40:24Z</time>
      </trkpt>
      <trkpt lat="47.80315" lon="-3.52137">
        <ele>11</ele>
        <time>2019-07-15T11:40:25Z</time>
      </trkpt>
      <trkpt lat="47.80314" lon="-3.52139">
        <ele>11</ele>
        <time>2019-07-15T11:40:26Z</time>
      </trkpt>
      <trkpt lat="47.80313" lon="-3.52141">
        <ele>12</ele>
        <time>2019-07-15T11:40:27Z</time>
      </trkpt>
      <trkpt lat="47.80313" lon="-3.52143">
        <ele>12</ele>
        <time>2019-07-15T11:40:28Z</time>
      </trkpt>
      <trkpt lat="47.80313" lon="-3.52144">
        <ele>12</ele>
        <time>2019-07-15T11:40:29Z</time>
      </trkpt>
      <trkpt lat="47.80312" lon="-3.52146">
        <ele>12</ele>
        <time>2019-07-15T11:40:30Z</time>
      </trkpt>
      <trkpt lat="47.80311" lon="-3.52148">
        <ele>12</ele>
        <time>2019-07-15T11:40:31Z</time>
      </trkpt>
      <trkpt lat="47.80311" lon="-3.52151">
        <ele>12</ele>
        <time>2019-07-15T11:40:32Z</time>
      </trkpt>
      <trkpt lat="47.8031" lon="-3.52154">
        <ele>12</ele>
        <time>2019-07-15T11:40:33Z</time>
      </trkpt>
      <trkpt lat="47.8031" lon="-3.52157">
        <ele>13</ele>
        <time>2019-07-15T11:40:34Z</time>
      </trkpt>
      <trkpt lat="47.80309" lon="-3.5216">
        <ele>13</ele>
        <time>2019-07-15T11:40:35Z</time>
      </trkpt>
      <trkpt lat="47.80309" lon="-3.52162">
        <ele>13</ele>
        <time>2019-07-15T11:40:36Z</time>
      </trkpt>
      <trkpt lat="47.80308" lon="-3.52165">
        <ele>13</ele>
        <time>2019-07-15T11:40:37Z</time>
      </trkpt>
      <trkpt lat="47.80308" lon="-3.52167">
        <ele>13</ele>
        <time>2019-07-15T11:40:38Z</time>
      </trkpt>
      <trkpt lat="47.80307" lon="-3.5217">
        <ele>13</ele>
        <time>2019-07-15T11:40:39Z</time>
      </trkpt>
      <trkpt lat="47.80307" lon="-3.52173">
        <ele>13</ele>
        <time>2019-07-15T11:40:40Z</time>
      </trkpt>
      <trkpt lat="47.80306" lon="-3.52176">
        <ele>13</ele>
        <time>2019-07-15T11:40:41Z</time>
      </trkpt>
      <trkpt lat="47.80306" lon="-3.52179">
        <ele>13</ele>
        <time>2019-07-15T11:40:42Z</time>
      </trkpt>
      <trkpt lat="47.80305" lon="-3.5218">
        <ele>13</ele>
        <time>2019-07-15T11:40:43Z</time>
      </trkpt>
      <trkpt lat="47.80305" lon="-3.52183">
        <ele>14</ele>
        <time>2019-07-15T11:40:44Z</time>
      </trkpt>
      <trkpt lat="47.80304" lon="-3.52186">
        <ele>14</ele>
        <time>2019-07-15T11:40:45Z</time>
      </trkpt>
      <trkpt lat="47.80303" lon="-3.52188">
        <ele>14</ele>
        <time>2019-07-15T11:40:46Z</time>
      </trkpt>
      <trkpt lat="47.80303" lon="-3.52191">
        <ele>14</ele>
        <time>2019-07-15T11:40:47Z</time>
      </trkpt>
      <trkpt lat="47.80302" lon="-3.52193">
        <ele>14</ele>
        <time>2019-07-15T11:40:48Z</time>
      </trkpt>
      <trkpt lat="47.80301" lon="-3.52196">
        <ele>14</ele>
        <time>2019-07-15T11:40:49Z</time>
      </trkpt>
      <trkpt lat="47.803" lon="-3.522">
        <ele>14</ele>
        <time>2019-07-15T11:40:50Z</time>
      </trkpt>
      <trkpt lat="47.80299" lon="-3.52203">
        <ele>15</ele>
        <time>2019-07-15T11:40:51Z</time>
      </trkpt>
      <trkpt lat="47.80298" lon="-3.52206">
        <ele>15</ele>
        <time>2019-07-15T11:40:52Z</time>
      </trkpt>
      <trkpt lat="47.80296" lon="-3.52209">
        <ele>15</ele>
        <time>2019-07-15T11:40:53Z</time>
      </trkpt>
      <trkpt lat="47.80295" lon="-3.52212">
        <ele>16</ele>
        <time>2019-07-15T11:40:54Z</time>
      </trkpt>
      <trkpt lat="47.80294" lon="-3.52216">
        <ele>16</ele>
        <time>2019-07-15T11:40:55Z</time>
      </trkpt>
      <trkpt lat="47.80294" lon="-3.52217">
        <ele>16</ele>
        <time>2019-07-15T11:40:56Z</time>
      </trkpt>
      <trkpt lat="47.80293" lon="-3.52219">
        <ele>16</ele>
        <time>2019-07-15T11:40:57Z</time>
      </trkpt>
      <trkpt lat="47.80293" lon="-3.52222">
        <ele>16</ele>
        <time>2019-07-15T11:40:58Z</time>
      </trkpt>
      <trkpt lat="47.80291" lon="-3.52226">
        <ele>17</ele>
        <time>2019-07-15T11:40:59Z</time>
      </trkpt>
      <trkpt lat="47.8029" lon="-3.52229">
        <ele>17</ele>
        <time>2019-07-15T11:41:00Z</time>
      </trkpt>
      <trkpt lat="47.8029" lon="-3.52233">
        <ele>17</ele>
        <time>2019-07-15T11:41:01Z</time>
      </trkpt>
      <trkpt lat="47.80289" lon="-3.52236">
        <ele>17</ele>
        <time>2019-07-15T11:41:02Z</time>
      </trkpt>
      <trkpt lat="47.80288" lon="-3.52239">
        <ele>18</ele>
        <time>2019-07-15T11:41:03Z</time>
      </trkpt>
      <trkpt lat="47.80287" lon="-3.52242">
        <ele>18</ele>
        <time>2019-07-15T11:41:04Z</time>
      </trkpt>
      <trkpt lat="47.80287" lon="-3.52244">
        <ele>18</ele>
        <time>2019-07-15T11:41:05Z</time>
      </trkpt>
      <trkpt lat="47.80286" lon="-3.52246">
        <ele>18</ele>
        <time>2019-07-15T11:41:06Z</time>
      </trkpt>
      <trkpt lat="47.80285" lon="-3.52249">
        <ele>19</ele>
        <time>2019-07-15T11:41:07Z</time>
      </trkpt>
      <trkpt lat="47.80283" lon="-3.52251">
        <ele>19</ele>
        <time>2019-07-15T11:41:08Z</time>
      </trkpt>
      <trkpt lat="47.80282" lon="-3.52254">
        <ele>19</ele>
        <time>2019-07-15T11:41:09Z</time>
      </trkpt>
      <trkpt lat="47.8028" lon="-3.52256">
        <ele>20</ele>
        <time>2019-07-15T11:41:10Z</time>
      </trkpt>
      <trkpt lat="47.80279" lon="-3.52258">
        <ele>20</ele>
        <time>2019-07-15T11:41:11Z</time>
      </trkpt>
      <trkpt lat="47.80278" lon="-3.5226">
        <ele>21</ele>
        <time>2019-07-15T11:41:12Z</time>
      </trkpt>
      <trkpt lat="47.80276" lon="-3.52262">
        <ele>21</ele>
        <time>2019-07-15T11:41:13Z</time>
      </trkpt>
      <trkpt lat="47.80275" lon="-3.52265">
        <ele>21</ele>
        <time>2019-07-15T11:41:14Z</time>
      </trkpt>
      <trkpt lat="47.80273" lon="-3.52268">
        <ele>22</ele>
        <time>2019-07-15T11:41:15Z</time>
      </trkpt>
      <trkpt lat="47.80271" lon="-3.52272">
        <ele>22</ele>
        <time>2019-07-15T11:41:16Z</time>
      </trkpt>
      <trkpt lat="47.8027" lon="-3.52275">
        <ele>22</ele>
        <time>2019-07-15T11:41:17Z</time>
      </trkpt>
      <trkpt lat="47.8027" lon="-3.52277">
        <ele>22</ele>
        <time>2019-07-15T11:41:18Z</time>
      </trkpt>
      <trkpt lat="47.80268" lon="-3.5228">
        <ele>23</ele>
        <time>2019-07-15T11:41:19Z</time>
      </trkpt>
      <trkpt lat="47.80267" lon="-3.52283">
        <ele>23</ele>
        <time>2019-07-15T11:41:20Z</time>
      </trkpt>
      <trkpt lat="47.80266" lon="-3.52285">
        <ele>23</ele>
        <time>2019-07-15T11:41:21Z</time>
      </trkpt>
      <trkpt lat="47.80264" lon="-3.52287">
        <ele>23</ele>
        <time>2019-07-15T11:41:22Z</time>
      </trkpt>
      <trkpt lat="47.80263" lon="-3.5229">
        <ele>24</ele>
        <time>2019-07-15T11:41:23Z</time>
      </trkpt>
      <trkpt lat="47.80262" lon="-3.52293">
        <ele>24</ele>
        <time>2019-07-15T11:41:24Z</time>
      </trkpt>
      <trkpt lat="47.8026" lon="-3.52296">
        <ele>24</ele>
        <time>2019-07-15T11:41:25Z</time>
      </trkpt>
      <trkpt lat="47.8026" lon="-3.52298">
        <ele>24</ele>
        <time>2019-07-15T11:41:26Z</time>
      </trkpt>
      <trkpt lat="47.80258" lon="-3.523">
        <ele>24</ele>
        <time>2019-07-15T11:41:27Z</time>
      </trkpt>
      <trkpt lat="47.80258" lon="-3.52302">
        <ele>24</ele>
        <time>2019-07-15T11:41:28Z</time>
      </trkpt>
      <trkpt lat="47.80257" lon="-3.52305">
        <ele>24</ele>
        <time>2019-07-15T11:41:29Z</time>
      </trkpt>
      <trkpt lat="47.80256" lon="-3.52308">
        <ele>24</ele>
        <time>2019-07-15T11:41:30Z</time>
      </trkpt>
      <trkpt lat="47.80255" lon="-3.52311">
        <ele>25</ele>
        <time>2019-07-15T11:41:31Z</time>
      </trkpt>
      <trkpt lat="47.80254" lon="-3.52314">
        <ele>25</ele>
        <time>2019-07-15T11:41:32Z</time>
      </trkpt>
      <trkpt lat="47.80254" lon="-3.52316">
        <ele>25</ele>
        <time>2019-07-15T11:41:33Z</time>
      </trkpt>
      <trkpt lat="47.80253" lon="-3.52319">
        <ele>25</ele>
        <time>2019-07-15T11:41:34Z</time>
      </trkpt>
      <trkpt lat="47.80252" lon="-3.52321">
        <ele>25</ele>
        <time>2019-07-15T11:41:35Z</time>
      </trkpt>
      <trkpt lat="47.80251" lon="-3.52323">
        <ele>25</ele>
        <time>2019-07-15T11:41:36Z</time>
      </trkpt>
      <trkpt lat="47.8025" lon="-3.52326">
        <ele>25</ele>
        <time>2019-07-15T11:41:37Z</time>
      </trkpt>
      <trkpt lat="47.8025" lon="-3.52329">
        <ele>26</ele>
        <time>2019-07-15T11:41:38Z</time>
      </trkpt>
      <trkpt lat="47.80249" lon="-3.52332">
        <ele>26</ele>
        <time>2019-07-15T11:41:39Z</time>
      </trkpt>
      <trkpt lat="47.80248" lon="-3.52336">
        <ele>26</ele>
        <time>2019-07-15T11:41:40Z</time>
      </trkpt>
      <trkpt lat="47.80247" lon="-3.52339">
        <ele>26</ele>
        <time>2019-07-15T11:41:41Z</time>
      </trkpt>
      <trkpt lat="47.80247" lon="-3.52343">
        <ele>26</ele>
        <time>2019-07-15T11:41:42Z</time>
      </trkpt>
      <trkpt lat="47.80245" lon="-3.52345">
        <ele>27</ele>
        <time>2019-07-15T11:41:43Z</time>
      </trkpt>
      <trkpt lat="47.80244" lon="-3.52348">
        <ele>27</ele>
        <time>2019-07-15T11:41:44Z</time>
      </trkpt>
      <trkpt lat="47.80243" lon="-3.52351">
        <ele>27</ele>
        <time>2019-07-15T11:41:45Z</time>
      </trkpt>
      <trkpt lat="47.80242" lon="-3.52354">
        <ele>27</ele>
        <time>2019-07-15T11:41:46Z</time>
      </trkpt>
      <trkpt lat="47.80241" lon="-3.52356">
        <ele>28</ele>
        <time>2019-07-15T11:41:47Z</time>
      </trkpt>
      <trkpt lat="47.8024" lon="-3.52358">
        <ele>28</ele>
        <time>2019-07-15T11:41:48Z</time>
      </trkpt>
      <trkpt lat="47.80238" lon="-3.5236">
        <ele>28</ele>
        <time>2019-07-15T11:41:49Z</time>
      </trkpt>
      <trkpt lat="47.80236" lon="-3.52363">
        <ele>28</ele>
        <time>2019-07-15T11:41:50Z</time>
      </trkpt>
      <trkpt lat="47.80234" lon="-3.52364">
        <ele>29</ele>
        <time>2019-07-15T11:41:51Z</time>
      </trkpt>
      <trkpt lat="47.80232" lon="-3.52366">
        <ele>29</ele>
        <time>2019-07-15T11:41:52Z</time>
      </trkpt>
      <trkpt lat="47.80229" lon="-3.52368">
        <ele>29</ele>
        <time>2019-07-15T11:41:53Z</time>
      </trkpt>
      <trkpt lat="47.80226" lon="-3.5237">
        <ele>29</ele>
        <time>2019-07-15T11:41:54Z</time>
      </trkpt>
      <trkpt lat="47.80222" lon="-3.52373">
        <ele>29</ele>
        <time>2019-07-15T11:41:55Z</time>
      </trkpt>
      <trkpt lat="47.80218" lon="-3.52374">
        <ele>29</ele>
        <time>2019-07-15T11:41:56Z</time>
      </trkpt>
      <trkpt lat="47.80215" lon="-3.52377">
        <ele>29</ele>
        <time>2019-07-15T11:41:57Z</time>
      </trkpt>
      <trkpt lat="47.80212" lon="-3.52379">
        <ele>29</ele>
        <time>2019-07-15T11:41:58Z</time>
      </trkpt>
      <trkpt lat="47.80209" lon="-3.52382">
        <ele>29</ele>
        <time>2019-07-15T11:41:59Z</time>
      </trkpt>
      <trkpt lat="47.80206" lon="-3.52386">
        <ele>29</ele>
        <time>2019-07-15T11:42:00Z</time>
      </trkpt>
      <trkpt lat="47.80203" lon="-3.52388">
        <ele>29</ele>
        <time>2019-07-15T11:42:01Z</time>
      </trkpt>
      <trkpt lat="47.80201" lon="-3.5239">
        <ele>29</ele>
        <time>2019-07-15T11:42:02Z</time>
      </trkpt>
      <trkpt lat="47.80198" lon="-3.52392">
        <ele>29</ele>
        <time>2019-07-15T11:42:03Z</time>
      </trkpt>
      <trkpt lat="47.80195" lon="-3.52394">
        <ele>29</ele>
        <time>2019-07-15T11:42:04Z</time>
      </trkpt>
      <trkpt lat="47.80191" lon="-3.52395">
        <ele>29</ele>
        <time>2019-07-15T11:42:05Z</time>
      </trkpt>
      <trkpt lat="47.80188" lon="-3.52396">
        <ele>29</ele>
        <time>2019-07-15T11:42:06Z</time>
      </trkpt>
      <trkpt lat="47.80185" lon="-3.52398">
        <ele>29</ele>
        <time>2019-07-15T11:42:07Z</time>
      </trkpt>
      <trkpt lat="47.80182" lon="-3.52401">
        <ele>29</ele>
        <time>2019-07-15T11:42:08Z</time>
      </trkpt>
      <trkpt lat="47.80179" lon="-3.52403">
        <ele>29</ele>
        <time>2019-07-15T11:42:09Z</time>
      </trkpt>
      <trkpt lat="47.80176" lon="-3.52405">
        <ele>29</ele>
        <time>2019-07-15T11:42:10Z</time>
      </trkpt>
      <trkpt lat="47.80172" lon="-3.52407">
        <ele>29</ele>
        <time>2019-07-15T11:42:11Z</time>
      </trkpt>
      <trkpt lat="47.80168" lon="-3.5241">
        <ele>29</ele>
        <time>2019-07-15T11:42:12Z</time>
      </trkpt>
      <trkpt lat="47.80165" lon="-3.52412">
        <ele>28</ele>
        <time>2019-07-15T11:42:13Z</time>
      </trkpt>
      <trkpt lat="47.80162" lon="-3.52414">
        <ele>28</ele>
        <time>2019-07-15T11:42:14Z</time>
      </trkpt>
      <trkpt lat="47.80158" lon="-3.52416">
        <ele>28</ele>
        <time>2019-07-15T11:42:15Z</time>
      </trkpt>
      <trkpt lat="47.80155" lon="-3.52417">
        <ele>28</ele>
        <time>2019-07-15T11:42:16Z</time>
      </trkpt>
      <trkpt lat="47.80152" lon="-3.52418">
        <ele>28</ele>
        <time>2019-07-15T11:42:17Z</time>
      </trkpt>
      <trkpt lat="47.80149" lon="-3.5242">
        <ele>28</ele>
        <time>2019-07-15T11:42:18Z</time>
      </trkpt>
      <trkpt lat="47.80146" lon="-3.52421">
        <ele>27</ele>
        <time>2019-07-15T11:42:19Z</time>
      </trkpt>
      <trkpt lat="47.80142" lon="-3.52423">
        <ele>27</ele>
        <time>2019-07-15T11:42:20Z</time>
      </trkpt>
      <trkpt lat="47.80139" lon="-3.52424">
        <ele>27</ele>
        <time>2019-07-15T11:42:21Z</time>
      </trkpt>
      <trkpt lat="47.80136" lon="-3.52425">
        <ele>27</ele>
        <time>2019-07-15T11:42:22Z</time>
      </trkpt>
      <trkpt lat="47.80132" lon="-3.52426">
        <ele>27</ele>
        <time>2019-07-15T11:42:23Z</time>
      </trkpt>
      <trkpt lat="47.80129" lon="-3.52428">
        <ele>27</ele>
        <time>2019-07-15T11:42:24Z</time>
      </trkpt>
      <trkpt lat="47.80126" lon="-3.52429">
        <ele>27</ele>
        <time>2019-07-15T11:42:25Z</time>
      </trkpt>
      <trkpt lat="47.80122" lon="-3.5243">
        <ele>27</ele>
        <time>2019-07-15T11:42:26Z</time>
      </trkpt>
      <trkpt lat="47.80119" lon="-3.52431">
        <ele>26</ele>
        <time>2019-07-15T11:42:27Z</time>
      </trkpt>
      <trkpt lat="47.80116" lon="-3.52432">
        <ele>26</ele>
        <time>2019-07-15T11:42:28Z</time>
      </trkpt>
      <trkpt lat="47.80113" lon="-3.52433">
        <ele>26</ele>
        <time>2019-07-15T11:42:29Z</time>
      </trkpt>
      <trkpt lat="47.80109" lon="-3.52433">
        <ele>26</ele>
        <time>2019-07-15T11:42:30Z</time>
      </trkpt>
      <trkpt lat="47.80106" lon="-3.52432">
        <ele>26</ele>
        <time>2019-07-15T11:42:31Z</time>
      </trkpt>
      <trkpt lat="47.80103" lon="-3.5243">
        <ele>26</ele>
        <time>2019-07-15T11:42:32Z</time>
      </trkpt>
      <trkpt lat="47.80101" lon="-3.52427">
        <ele>26</ele>
        <time>2019-07-15T11:42:33Z</time>
      </trkpt>
      <trkpt lat="47.801" lon="-3.52423">
        <ele>26</ele>
        <time>2019-07-15T11:42:34Z</time>
      </trkpt>
      <trkpt lat="47.80098" lon="-3.52419">
        <ele>26</ele>
        <time>2019-07-15T11:42:35Z</time>
      </trkpt>
      <trkpt lat="47.80096" lon="-3.52415">
        <ele>26</ele>
        <time>2019-07-15T11:42:36Z</time>
      </trkpt>
      <trkpt lat="47.80093" lon="-3.52411">
        <ele>26</ele>
        <time>2019-07-15T11:42:37Z</time>
      </trkpt>
      <trkpt lat="47.80089" lon="-3.52409">
        <ele>27</ele>
        <time>2019-07-15T11:42:38Z</time>
      </trkpt>
      <trkpt lat="47.80084" lon="-3.52405">
        <ele>27</ele>
        <time>2019-07-15T11:42:39Z</time>
      </trkpt>
      <trkpt lat="47.8008" lon="-3.52402">
        <ele>27</ele>
        <time>2019-07-15T11:42:40Z</time>
      </trkpt>
      <trkpt lat="47.80075" lon="-3.52399">
        <ele>27</ele>
        <time>2019-07-15T11:42:41Z</time>
      </trkpt>
      <trkpt lat="47.80071" lon="-3.52397">
        <ele>27</ele>
        <time>2019-07-15T11:42:42Z</time>
      </trkpt>
      <trkpt lat="47.80067" lon="-3.52395">
        <ele>27</ele>
        <time>2019-07-15T11:42:43Z</time>
      </trkpt>
      <trkpt lat="47.80064" lon="-3.52393">
        <ele>27</ele>
        <time>2019-07-15T11:42:44Z</time>
      </trkpt>
      <trkpt lat="47.80061" lon="-3.52391">
        <ele>27</ele>
        <time>2019-07-15T11:42:45Z</time>
      </trkpt>
      <trkpt lat="47.80059" lon="-3.52391">
        <ele>27</ele>
        <time>2019-07-15T11:42:46Z</time>
      </trkpt>
      <trkpt lat="47.80057" lon="-3.5239">
        <ele>27</ele>
        <time>2019-07-15T11:42:47Z</time>
      </trkpt>
      <trkpt lat="47.80054" lon="-3.52389">
        <ele>27</ele>
        <time>2019-07-15T11:42:48Z</time>
      </trkpt>
      <trkpt lat="47.80051" lon="-3.52386">
        <ele>27</ele>
        <time>2019-07-15T11:42:49Z</time>
      </trkpt>
      <trkpt lat="47.80048" lon="-3.52384">
        <ele>27</ele>
        <time>2019-07-15T11:42:50Z</time>
      </trkpt>
      <trkpt lat="47.80045" lon="-3.52383">
        <ele>27</ele>
        <time>2019-07-15T11:42:51Z</time>
      </trkpt>
      <trkpt lat="47.80042" lon="-3.5238">
        <ele>27</ele>
        <time>2019-07-15T11:42:52Z</time>
      </trkpt>
      <trkpt lat="47.8004" lon="-3.52377">
        <ele>27</ele>
        <time>2019-07-15T11:42:53Z</time>
      </trkpt>
      <trkpt lat="47.80037" lon="-3.52373">
        <ele>27</ele>
        <time>2019-07-15T11:42:54Z</time>
      </trkpt>
      <trkpt lat="47.80035" lon="-3.52369">
        <ele>27</ele>
        <time>2019-07-15T11:42:55Z</time>
      </trkpt>
      <trkpt lat="47.80033" lon="-3.52366">
        <ele>27</ele>
        <time>2019-07-15T11:42:56Z</time>
      </trkpt>
      <trkpt lat="47.80031" lon="-3.52363">
        <ele>27</ele>
        <time>2019-07-15T11:42:57Z</time>
      </trkpt>
      <trkpt lat="47.80028" lon="-3.5236">
        <ele>27</ele>
        <time>2019-07-15T11:42:58Z</time>
      </trkpt>
      <trkpt lat="47.80024" lon="-3.52357">
        <ele>27</ele>
        <time>2019-07-15T11:42:59Z</time>
      </trkpt>
      <trkpt lat="47.8002" lon="-3.52354">
        <ele>26</ele>
        <time>2019-07-15T11:43:00Z</time>
      </trkpt>
      <trkpt lat="47.80016" lon="-3.52351">
        <ele>26</ele>
        <time>2019-07-15T11:43:01Z</time>
      </trkpt>
      <trkpt lat="47.80013" lon="-3.52349">
        <ele>26</ele>
        <time>2019-07-15T11:43:02Z</time>
      </trkpt>
      <trkpt lat="47.80011" lon="-3.52346">
        <ele>26</ele>
        <time>2019-07-15T11:43:03Z</time>
      </trkpt>
      <trkpt lat="47.80008" lon="-3.52342">
        <ele>26</ele>
        <time>2019-07-15T11:43:04Z</time>
      </trkpt>
      <trkpt lat="47.80006" lon="-3.5234">
        <ele>26</ele>
        <time>2019-07-15T11:43:05Z</time>
      </trkpt>
      <trkpt lat="47.80004" lon="-3.52338">
        <ele>27</ele>
        <time>2019-07-15T11:43:06Z</time>
      </trkpt>
      <trkpt lat="47.80004" lon="-3.52336">
        <ele>27</ele>
        <time>2019-07-15T11:43:07Z</time>
      </trkpt>
      <trkpt lat="47.80003" lon="-3.52335">
        <ele>27</ele>
        <time>2019-07-15T11:43:08Z</time>
      </trkpt>
      <trkpt lat="47.80002" lon="-3.52335">
        <ele>26</ele>
        <time>2019-07-15T11:43:09Z</time>
      </trkpt>
      <trkpt lat="47.80001" lon="-3.52334">
        <ele>26</ele>
        <time>2019-07-15T11:43:10Z</time>
      </trkpt>
      <trkpt lat="47.80001" lon="-3.52334">
        <ele>26</ele>
        <time>2019-07-15T11:43:11Z</time>
      </trkpt>
      <trkpt lat="47.8" lon="-3.52333">
        <ele>26</ele>
        <time>2019-07-15T11:43:12Z</time>
      </trkpt>
      <trkpt lat="47.79999" lon="-3.52332">
        <ele>26</ele>
        <time>2019-07-15T11:43:13Z</time>
      </trkpt>
      <trkpt lat="47.79998" lon="-3.52331">
        <ele>26</ele>
        <time>2019-07-15T11:43:14Z</time>
      </trkpt>
      <trkpt lat="47.79998" lon="-3.5233">
        <ele>26</ele>
        <time>2019-07-15T11:43:15Z</time>
      </trkpt>
      <trkpt lat="47.79997" lon="-3.5233">
        <ele>26</ele>
        <time>2019-07-15T11:43:16Z</time>
      </trkpt>
      <trkpt lat="47.79988" lon="-3.52317">
        <ele>25</ele>
        <time>2019-07-15T11:43:17Z</time>
      </trkpt>
      <trkpt lat="47.79986" lon="-3.52313">
        <ele>25</ele>
        <time>2019-07-15T11:43:18Z</time>
      </trkpt>
      <trkpt lat="47.79985" lon="-3.52309">
        <ele>25</ele>
        <time>2019-07-15T11:43:19Z</time>
      </trkpt>
      <trkpt lat="47.79983" lon="-3.52305">
        <ele>25</ele>
        <time>2019-07-15T11:43:20Z</time>
      </trkpt>
      <trkpt lat="47.79982" lon="-3.523">
        <ele>25</ele>
        <time>2019-07-15T11:43:21Z</time>
      </trkpt>
      <trkpt lat="47.79981" lon="-3.52295">
        <ele>25</ele>
        <time>2019-07-15T11:43:22Z</time>
      </trkpt>
      <trkpt lat="47.7998" lon="-3.5229">
        <ele>25</ele>
        <time>2019-07-15T11:43:23Z</time>
      </trkpt>
      <trkpt lat="47.79979" lon="-3.52284">
        <ele>25</ele>
        <time>2019-07-15T11:43:24Z</time>
      </trkpt>
      <trkpt lat="47.79978" lon="-3.52278">
        <ele>25</ele>
        <time>2019-07-15T11:43:25Z</time>
      </trkpt>
      <trkpt lat="47.79978" lon="-3.52272">
        <ele>25</ele>
        <time>2019-07-15T11:43:26Z</time>
      </trkpt>
      <trkpt lat="47.79979" lon="-3.52265">
        <ele>24</ele>
        <time>2019-07-15T11:43:27Z</time>
      </trkpt>
      <trkpt lat="47.7998" lon="-3.52259">
        <ele>24</ele>
        <time>2019-07-15T11:43:28Z</time>
      </trkpt>
      <trkpt lat="47.79981" lon="-3.52255">
        <ele>24</ele>
        <time>2019-07-15T11:43:29Z</time>
      </trkpt>
      <trkpt lat="47.79981" lon="-3.52252">
        <ele>24</ele>
        <time>2019-07-15T11:43:30Z</time>
      </trkpt>
      <trkpt lat="47.79982" lon="-3.5225">
        <ele>24</ele>
        <time>2019-07-15T11:43:31Z</time>
      </trkpt>
      <trkpt lat="47.79981" lon="-3.52248">
        <ele>24</ele>
        <time>2019-07-15T11:43:32Z</time>
      </trkpt>
      <trkpt lat="47.79981" lon="-3.52244">
        <ele>23</ele>
        <time>2019-07-15T11:43:33Z</time>
      </trkpt>
      <trkpt lat="47.79982" lon="-3.5224">
        <ele>23</ele>
        <time>2019-07-15T11:43:34Z</time>
      </trkpt>
      <trkpt lat="47.79982" lon="-3.52236">
        <ele>22</ele>
        <time>2019-07-15T11:43:35Z</time>
      </trkpt>
      <trkpt lat="47.79982" lon="-3.52233">
        <ele>22</ele>
        <time>2019-07-15T11:43:36Z</time>
      </trkpt>
      <trkpt lat="47.79982" lon="-3.52228">
        <ele>21</ele>
        <time>2019-07-15T11:43:37Z</time>
      </trkpt>
      <trkpt lat="47.79981" lon="-3.52223">
        <ele>21</ele>
        <time>2019-07-15T11:43:38Z</time>
      </trkpt>
      <trkpt lat="47.79979" lon="-3.52217">
        <ele>20</ele>
        <time>2019-07-15T11:43:39Z</time>
      </trkpt>
      <trkpt lat="47.79977" lon="-3.52211">
        <ele>19</ele>
        <time>2019-07-15T11:43:40Z</time>
      </trkpt>
      <trkpt lat="47.79975" lon="-3.52205">
        <ele>19</ele>
        <time>2019-07-15T11:43:41Z</time>
      </trkpt>
      <trkpt lat="47.79974" lon="-3.52199">
        <ele>18</ele>
        <time>2019-07-15T11:43:42Z</time>
      </trkpt>
      <trkpt lat="47.79973" lon="-3.52192">
        <ele>18</ele>
        <time>2019-07-15T11:43:43Z</time>
      </trkpt>
      <trkpt lat="47.79972" lon="-3.52186">
        <ele>18</ele>
        <time>2019-07-15T11:43:44Z</time>
      </trkpt>
      <trkpt lat="47.79971" lon="-3.52181">
        <ele>17</ele>
        <time>2019-07-15T11:43:45Z</time>
      </trkpt>
      <trkpt lat="47.7997" lon="-3.52177">
        <ele>17</ele>
        <time>2019-07-15T11:43:46Z</time>
      </trkpt>
      <trkpt lat="47.79969" lon="-3.52174">
        <ele>16</ele>
        <time>2019-07-15T11:43:47Z</time>
      </trkpt>
      <trkpt lat="47.79967" lon="-3.52171">
        <ele>16</ele>
        <time>2019-07-15T11:43:48Z</time>
      </trkpt>
      <trkpt lat="47.79964" lon="-3.5217">
        <ele>16</ele>
        <time>2019-07-15T11:43:49Z</time>
      </trkpt>
      <trkpt lat="47.79961" lon="-3.5217">
        <ele>15</ele>
        <time>2019-07-15T11:43:50Z</time>
      </trkpt>
      <trkpt lat="47.79958" lon="-3.5217">
        <ele>15</ele>
        <time>2019-07-15T11:43:51Z</time>
      </trkpt>
      <trkpt lat="47.79955" lon="-3.5217">
        <ele>14</ele>
        <time>2019-07-15T11:43:52Z</time>
      </trkpt>
      <trkpt lat="47.79953" lon="-3.5217">
        <ele>14</ele>
        <time>2019-07-15T11:43:53Z</time>
      </trkpt>
      <trkpt lat="47.79951" lon="-3.5217">
        <ele>14</ele>
        <time>2019-07-15T11:43:54Z</time>
      </trkpt>
      <trkpt lat="47.79949" lon="-3.52171">
        <ele>13</ele>
        <time>2019-07-15T11:43:55Z</time>
      </trkpt>
      <trkpt lat="47.79947" lon="-3.52172">
        <ele>13</ele>
        <time>2019-07-15T11:43:56Z</time>
      </trkpt>
      <trkpt lat="47.79945" lon="-3.52171">
        <ele>12</ele>
        <time>2019-07-15T11:43:57Z</time>
      </trkpt>
      <trkpt lat="47.79945" lon="-3.52171">
        <ele>12</ele>
        <time>2019-07-15T11:43:58Z</time>
      </trkpt>
      <trkpt lat="47.79944" lon="-3.52171">
        <ele>12</ele>
        <time>2019-07-15T11:43:59Z</time>
      </trkpt>
      <trkpt lat="47.79944" lon="-3.52171">
        <ele>12</ele>
        <time>2019-07-15T11:44:00Z</time>
      </trkpt>
      <trkpt lat="47.79935" lon="-3.5217">
        <ele>8</ele>
        <time>2019-07-15T11:44:01Z</time>
      </trkpt>
      <trkpt lat="47.79934" lon="-3.5217">
        <ele>8</ele>
        <time>2019-07-15T11:44:02Z</time>
      </trkpt>
      <trkpt lat="47.79932" lon="-3.5217">
        <ele>8</ele>
        <time>2019-07-15T11:44:03Z</time>
      </trkpt>
      <trkpt lat="47.79929" lon="-3.52172">
        <ele>8</ele>
        <time>2019-07-15T11:44:04Z</time>
      </trkpt>
      <trkpt lat="47.79927" lon="-3.52173">
        <ele>8</ele>
        <time>2019-07-15T11:44:05Z</time>
      </trkpt>
      <trkpt lat="47.79925" lon="-3.52175">
        <ele>8</ele>
        <time>2019-07-15T11:44:06Z</time>
      </trkpt>
      <trkpt lat="47.79923" lon="-3.52177">
        <ele>8</ele>
        <time>2019-07-15T11:44:07Z</time>
      </trkpt>
      <trkpt lat="47.79921" lon="-3.52179">
        <ele>8</ele>
        <time>2019-07-15T11:44:08Z</time>
      </trkpt>
      <trkpt lat="47.79919" lon="-3.5218">
        <ele>8</ele>
        <time>2019-07-15T11:44:09Z</time>
      </trkpt>
      <trkpt lat="47.79916" lon="-3.52182">
        <ele>8</ele>
        <time>2019-07-15T11:44:10Z</time>
      </trkpt>
      <trkpt lat="47.79912" lon="-3.52183">
        <ele>8</ele>
        <time>2019-07-15T11:44:11Z</time>
      </trkpt>
      <trkpt lat="47.79909" lon="-3.52184">
        <ele>7</ele>
        <time>2019-07-15T11:44:12Z</time>
      </trkpt>
      <trkpt lat="47.79905" lon="-3.52186">
        <ele>7</ele>
        <time>2019-07-15T11:44:13Z</time>
      </trkpt>
      <trkpt lat="47.79902" lon="-3.52188">
        <ele>7</ele>
        <time>2019-07-15T11:44:14Z</time>
      </trkpt>
      <trkpt lat="47.79899" lon="-3.5219">
        <ele>7</ele>
        <time>2019-07-15T11:44:15Z</time>
      </trkpt>
      <trkpt lat="47.79897" lon="-3.52192">
        <ele>7</ele>
        <time>2019-07-15T11:44:16Z</time>
      </trkpt>
      <trkpt lat="47.79894" lon="-3.52193">
        <ele>6</ele>
        <time>2019-07-15T11:44:17Z</time>
      </trkpt>
      <trkpt lat="47.79891" lon="-3.52194">
        <ele>6</ele>
        <time>2019-07-15T11:44:18Z</time>
      </trkpt>
      <trkpt lat="47.79889" lon="-3.52196">
        <ele>6</ele>
        <time>2019-07-15T11:44:19Z</time>
      </trkpt>
      <trkpt lat="47.79886" lon="-3.52197">
        <ele>6</ele>
        <time>2019-07-15T11:44:20Z</time>
      </trkpt>
      <trkpt lat="47.79883" lon="-3.52199">
        <ele>5</ele>
        <time>2019-07-15T11:44:21Z</time>
      </trkpt>
      <trkpt lat="47.7988" lon="-3.522">
        <ele>5</ele>
        <time>2019-07-15T11:44:22Z</time>
      </trkpt>
      <trkpt lat="47.79876" lon="-3.52201">
        <ele>5</ele>
        <time>2019-07-15T11:44:23Z</time>
      </trkpt>
      <trkpt lat="47.79873" lon="-3.52203">
        <ele>5</ele>
        <time>2019-07-15T11:44:24Z</time>
      </trkpt>
      <trkpt lat="47.7987" lon="-3.52205">
        <ele>5</ele>
        <time>2019-07-15T11:44:25Z</time>
      </trkpt>
      <trkpt lat="47.79867" lon="-3.52206">
        <ele>4</ele>
        <time>2019-07-15T11:44:26Z</time>
      </trkpt>
      <trkpt lat="47.79864" lon="-3.52209">
        <ele>4</ele>
        <time>2019-07-15T11:44:27Z</time>
      </trkpt>
      <trkpt lat="47.79861" lon="-3.52211">
        <ele>4</ele>
        <time>2019-07-15T11:44:28Z</time>
      </trkpt>
      <trkpt lat="47.79859" lon="-3.52214">
        <ele>4</ele>
        <time>2019-07-15T11:44:29Z</time>
      </trkpt>
      <trkpt lat="47.79856" lon="-3.52218">
        <ele>4</ele>
        <time>2019-07-15T11:44:30Z</time>
      </trkpt>
      <trkpt lat="47.79853" lon="-3.5222">
        <ele>4</ele>
        <time>2019-07-15T11:44:31Z</time>
      </trkpt>
      <trkpt lat="47.7985" lon="-3.52223">
        <ele>4</ele>
        <time>2019-07-15T11:44:32Z</time>
      </trkpt>
      <trkpt lat="47.79847" lon="-3.52226">
        <ele>3</ele>
        <time>2019-07-15T11:44:33Z</time>
      </trkpt>
      <trkpt lat="47.79843" lon="-3.52229">
        <ele>3</ele>
        <time>2019-07-15T11:44:34Z</time>
      </trkpt>
      <trkpt lat="47.7984" lon="-3.52232">
        <ele>3</ele>
        <time>2019-07-15T11:44:35Z</time>
      </trkpt>
      <trkpt lat="47.79839" lon="-3.52235">
        <ele>3</ele>
        <time>2019-07-15T11:44:36Z</time>
      </trkpt>
      <trkpt lat="47.79838" lon="-3.52239">
        <ele>3</ele>
        <time>2019-07-15T11:44:37Z</time>
      </trkpt>
      <trkpt lat="47.79838" lon="-3.52242">
        <ele>3</ele>
        <time>2019-07-15T11:44:38Z</time>
      </trkpt>
      <trkpt lat="47.79837" lon="-3.52245">
        <ele>4</ele>
        <time>2019-07-15T11:44:39Z</time>
      </trkpt>
      <trkpt lat="47.79837" lon="-3.52248">
        <ele>4</ele>
        <time>2019-07-15T11:44:40Z</time>
      </trkpt>
      <trkpt lat="47.79836" lon="-3.52251">
        <ele>4</ele>
        <time>2019-07-15T11:44:41Z</time>
      </trkpt>
      <trkpt lat="47.79835" lon="-3.52253">
        <ele>4</ele>
        <time>2019-07-15T11:44:42Z</time>
      </trkpt>
      <trkpt lat="47.79834" lon="-3.52255">
        <ele>4</ele>
        <time>2019-07-15T11:44:43Z</time>
      </trkpt>
      <trkpt lat="47.79832" lon="-3.52258">
        <ele>4</ele>
        <time>2019-07-15T11:44:44Z</time>
      </trkpt>
      <trkpt lat="47.7983" lon="-3.5226">
        <ele>4</ele>
        <time>2019-07-15T11:44:45Z</time>
      </trkpt>
      <trkpt lat="47.79827" lon="-3.52262">
        <ele>4</ele>
        <time>2019-07-15T11:44:46Z</time>
      </trkpt>
      <trkpt lat="47.79824" lon="-3.52265">
        <ele>4</ele>
        <time>2019-07-15T11:44:47Z</time>
      </trkpt>
      <trkpt lat="47.79821" lon="-3.52266">
        <ele>4</ele>
        <time>2019-07-15T11:44:48Z</time>
      </trkpt>
      <trkpt lat="47.79819" lon="-3.52268">
        <ele>4</ele>
        <time>2019-07-15T11:44:49Z</time>
      </trkpt>
      <trkpt lat="47.79817" lon="-3.5227">
        <ele>4</ele>
        <time>2019-07-15T11:44:50Z</time>
      </trkpt>
      <trkpt lat="47.79815" lon="-3.52273">
        <ele>4</ele>
        <time>2019-07-15T11:44:51Z</time>
      </trkpt>
      <trkpt lat="47.79813" lon="-3.52277">
        <ele>4</ele>
        <time>2019-07-15T11:44:52Z</time>
      </trkpt>
      <trkpt lat="47.79811" lon="-3.5228">
        <ele>4</ele>
        <time>2019-07-15T11:44:53Z</time>
      </trkpt>
      <trkpt lat="47.79809" lon="-3.52284">
        <ele>4</ele>
        <time>2019-07-15T11:44:54Z</time>
      </trkpt>
      <trkpt lat="47.79808" lon="-3.52287">
        <ele>4</ele>
        <time>2019-07-15T11:44:55Z</time>
      </trkpt>
      <trkpt lat="47.79807" lon="-3.52291">
        <ele>4</ele>
        <time>2019-07-15T11:44:56Z</time>
      </trkpt>
      <trkpt lat="47.79805" lon="-3.52295">
        <ele>4</ele>
        <time>2019-07-15T11:44:57Z</time>
      </trkpt>
      <trkpt lat="47.79804" lon="-3.52298">
        <ele>4</ele>
        <time>2019-07-15T11:44:58Z</time>
      </trkpt>
      <trkpt lat="47.79802" lon="-3.52302">
        <ele>4</ele>
        <time>2019-07-15T11:44:59Z</time>
      </trkpt>
      <trkpt lat="47.798" lon="-3.52306">
        <ele>4</ele>
        <time>2019-07-15T11:45:00Z</time>
      </trkpt>
      <trkpt lat="47.79797" lon="-3.5231">
        <ele>4</ele>
        <time>2019-07-15T11:45:01Z</time>
      </trkpt>
      <trkpt lat="47.79794" lon="-3.52313">
        <ele>4</ele>
        <time>2019-07-15T11:45:02Z</time>
      </trkpt>
      <trkpt lat="47.79792" lon="-3.52314">
        <ele>4</ele>
        <time>2019-07-15T11:45:03Z</time>
      </trkpt>
      <trkpt lat="47.7979" lon="-3.52317">
        <ele>5</ele>
        <time>2019-07-15T11:45:04Z</time>
      </trkpt>
      <trkpt lat="47.79789" lon="-3.52321">
        <ele>5</ele>
        <time>2019-07-15T11:45:05Z</time>
      </trkpt>
      <trkpt lat="47.79788" lon="-3.52325">
        <ele>5</ele>
        <time>2019-07-15T11:45:06Z</time>
      </trkpt>
      <trkpt lat="47.79788" lon="-3.52331">
        <ele>6</ele>
        <time>2019-07-15T11:45:07Z</time>
      </trkpt>
      <trkpt lat="47.79789" lon="-3.52337">
        <ele>6</ele>
        <time>2019-07-15T11:45:08Z</time>
      </trkpt>
      <trkpt lat="47.79791" lon="-3.52341">
        <ele>6</ele>
        <time>2019-07-15T11:45:09Z</time>
      </trkpt>
      <trkpt lat="47.79792" lon="-3.52344">
        <ele>7</ele>
        <time>2019-07-15T11:45:10Z</time>
      </trkpt>
      <trkpt lat="47.79792" lon="-3.52345">
        <ele>7</ele>
        <time>2019-07-15T11:45:11Z</time>
      </trkpt>
      <trkpt lat="47.79792" lon="-3.52346">
        <ele>7</ele>
        <time>2019-07-15T11:45:12Z</time>
      </trkpt>
      <trkpt lat="47.79792" lon="-3.52348">
        <ele>7</ele>
        <time>2019-07-15T11:45:13Z</time>
      </trkpt>
      <trkpt lat="47.79791" lon="-3.52351">
        <ele>8</ele>
        <time>2019-07-15T11:45:14Z</time>
      </trkpt>
      <trkpt lat="47.7979" lon="-3.52356">
        <ele>8</ele>
        <time>2019-07-15T11:45:15Z</time>
      </trkpt>
      <trkpt lat="47.79789" lon="-3.52362">
        <ele>8</ele>
        <time>2019-07-15T11:45:16Z</time>
      </trkpt>
      <trkpt lat="47.79789" lon="-3.52367">
        <ele>8</ele>
        <time>2019-07-15T11:45:17Z</time>
      </trkpt>
      <trkpt lat="47.79788" lon="-3.52371">
        <ele>8</ele>
        <time>2019-07-15T11:45:18Z</time>
      </trkpt>
      <trkpt lat="47.79788" lon="-3.52375">
        <ele>8</ele>
        <time>2019-07-15T11:45:19Z</time>
      </trkpt>
      <trkpt lat="47.79788" lon="-3.52378">
        <ele>8</ele>
        <time>2019-07-15T11:45:20Z</time>
      </trkpt>
      <trkpt lat="47.79788" lon="-3.52381">
        <ele>9</ele>
        <time>2019-07-15T11:45:21Z</time>
      </trkpt>
      <trkpt lat="47.79788" lon="-3.52383">
        <ele>9</ele>
        <time>2019-07-15T11:45:22Z</time>
      </trkpt>
      <trkpt lat="47.79788" lon="-3.52386">
        <ele>9</ele>
        <time>2019-07-15T11:45:23Z</time>
      </trkpt>
      <trkpt lat="47.79788" lon="-3.52388">
        <ele>9</ele>
        <time>2019-07-15T11:45:24Z</time>
      </trkpt>
      <trkpt lat="47.79789" lon="-3.52392">
        <ele>9</ele>
        <time>2019-07-15T11:45:25Z</time>
      </trkpt>
      <trkpt lat="47.7979" lon="-3.52395">
        <ele>9</ele>
        <time>2019-07-15T11:45:26Z</time>
      </trkpt>
      <trkpt lat="47.79792" lon="-3.52396">
        <ele>9</ele>
        <time>2019-07-15T11:45:27Z</time>
      </trkpt>
      <trkpt lat="47.79793" lon="-3.52398">
        <ele>9</ele>
        <time>2019-07-15T11:45:28Z</time>
      </trkpt>
      <trkpt lat="47.79794" lon="-3.524">
        <ele>9</ele>
        <time>2019-07-15T11:45:29Z</time>
      </trkpt>
      <trkpt lat="47.79795" lon="-3.524">
        <ele>9</ele>
        <time>2019-07-15T11:45:30Z</time>
      </trkpt>
      <trkpt lat="47.79795" lon="-3.52401">
        <ele>9</ele>
        <time>2019-07-15T11:45:31Z</time>
      </trkpt>
      <trkpt lat="47.79795" lon="-3.52402">
        <ele>9</ele>
        <time>2019-07-15T11:45:32Z</time>
      </trkpt>
      <trkpt lat="47.79795" lon="-3.52403">
        <ele>9</ele>
        <time>2019-07-15T11:45:33Z</time>
      </trkpt>
      <trkpt lat="47.79796" lon="-3.52405">
        <ele>10</ele>
        <time>2019-07-15T11:45:34Z</time>
      </trkpt>
      <trkpt lat="47.79796" lon="-3.52407">
        <ele>10</ele>
        <time>2019-07-15T11:45:35Z</time>
      </trkpt>
      <trkpt lat="47.79795" lon="-3.52409">
        <ele>10</ele>
        <time>2019-07-15T11:45:36Z</time>
      </trkpt>
      <trkpt lat="47.79795" lon="-3.5241">
        <ele>10</ele>
        <time>2019-07-15T11:45:37Z</time>
      </trkpt>
      <trkpt lat="47.79795" lon="-3.52412">
        <ele>10</ele>
        <time>2019-07-15T11:45:38Z</time>
      </trkpt>
      <trkpt lat="47.79794" lon="-3.52414">
        <ele>10</ele>
        <time>2019-07-15T11:45:39Z</time>
      </trkpt>
      <trkpt lat="47.79794" lon="-3.52416">
        <ele>10</ele>
        <time>2019-07-15T11:45:40Z</time>
      </trkpt>
      <trkpt lat="47.79793" lon="-3.52419">
        <ele>10</ele>
        <time>2019-07-15T11:45:41Z</time>
      </trkpt>
      <trkpt lat="47.79792" lon="-3.52421">
        <ele>10</ele>
        <time>2019-07-15T11:45:42Z</time>
      </trkpt>
      <trkpt lat="47.79791" lon="-3.52425">
        <ele>10</ele>
        <time>2019-07-15T11:45:43Z</time>
      </trkpt>
      <trkpt lat="47.7979" lon="-3.52429">
        <ele>10</ele>
        <time>2019-07-15T11:45:44Z</time>
      </trkpt>
      <trkpt lat="47.79788" lon="-3.52433">
        <ele>10</ele>
        <time>2019-07-15T11:45:45Z</time>
      </trkpt>
      <trkpt lat="47.79786" lon="-3.52438">
        <ele>10</ele>
        <time>2019-07-15T11:45:46Z</time>
      </trkpt>
      <trkpt lat="47.79785" lon="-3.52443">
        <ele>10</ele>
        <time>2019-07-15T11:45:47Z</time>
      </trkpt>
      <trkpt lat="47.79783" lon="-3.52448">
        <ele>10</ele>
        <time>2019-07-15T11:45:48Z</time>
      </trkpt>
      <trkpt lat="47.79781" lon="-3.52454">
        <ele>10</ele>
        <time>2019-07-15T11:45:49Z</time>
      </trkpt>
      <trkpt lat="47.7978" lon="-3.5246">
        <ele>10</ele>
        <time>2019-07-15T11:45:50Z</time>
      </trkpt>
      <trkpt lat="47.79778" lon="-3.52467">
        <ele>10</ele>
        <time>2019-07-15T11:45:51Z</time>
      </trkpt>
      <trkpt lat="47.79776" lon="-3.52474">
        <ele>9</ele>
        <time>2019-07-15T11:45:52Z</time>
      </trkpt>
      <trkpt lat="47.79774" lon="-3.52482">
        <ele>9</ele>
        <time>2019-07-15T11:45:53Z</time>
      </trkpt>
      <trkpt lat="47.79772" lon="-3.52489">
        <ele>9</ele>
        <time>2019-07-15T11:45:54Z</time>
      </trkpt>
      <trkpt lat="47.7977" lon="-3.52495">
        <ele>9</ele>
        <time>2019-07-15T11:45:55Z</time>
      </trkpt>
      <trkpt lat="47.79768" lon="-3.52501">
        <ele>9</ele>
        <time>2019-07-15T11:45:56Z</time>
      </trkpt>
      <trkpt lat="47.79767" lon="-3.52507">
        <ele>9</ele>
        <time>2019-07-15T11:45:57Z</time>
      </trkpt>
      <trkpt lat="47.79766" lon="-3.52511">
        <ele>9</ele>
        <time>2019-07-15T11:45:58Z</time>
      </trkpt>
      <trkpt lat="47.79765" lon="-3.52516">
        <ele>9</ele>
        <time>2019-07-15T11:45:59Z</time>
      </trkpt>
      <trkpt lat="47.79763" lon="-3.5252">
        <ele>9</ele>
        <time>2019-07-15T11:46:00Z</time>
      </trkpt>
      <trkpt lat="47.79762" lon="-3.52524">
        <ele>9</ele>
        <time>2019-07-15T11:46:01Z</time>
      </trkpt>
      <trkpt lat="47.7976" lon="-3.52529">
        <ele>9</ele>
        <time>2019-07-15T11:46:02Z</time>
      </trkpt>
      <trkpt lat="47.79758" lon="-3.52534">
        <ele>9</ele>
        <time>2019-07-15T11:46:03Z</time>
      </trkpt>
      <trkpt lat="47.79757" lon="-3.52539">
        <ele>9</ele>
        <time>2019-07-15T11:46:04Z</time>
      </trkpt>
      <trkpt lat="47.79755" lon="-3.52544">
        <ele>9</ele>
        <time>2019-07-15T11:46:05Z</time>
      </trkpt>
      <trkpt lat="47.79755" lon="-3.52549">
        <ele>9</ele>
        <time>2019-07-15T11:46:06Z</time>
      </trkpt>
      <trkpt lat="47.79754" lon="-3.52554">
        <ele>9</ele>
        <time>2019-07-15T11:46:07Z</time>
      </trkpt>
      <trkpt lat="47.79753" lon="-3.5256">
        <ele>9</ele>
        <time>2019-07-15T11:46:08Z</time>
      </trkpt>
      <trkpt lat="47.79752" lon="-3.52564">
        <ele>10</ele>
        <time>2019-07-15T11:46:09Z</time>
      </trkpt>
      <trkpt lat="47.79752" lon="-3.52568">
        <ele>10</ele>
        <time>2019-07-15T11:46:10Z</time>
      </trkpt>
      <trkpt lat="47.79751" lon="-3.52573">
        <ele>10</ele>
        <time>2019-07-15T11:46:11Z</time>
      </trkpt>
      <trkpt lat="47.79751" lon="-3.52579">
        <ele>10</ele>
        <time>2019-07-15T11:46:12Z</time>
      </trkpt>
      <trkpt lat="47.79752" lon="-3.52584">
        <ele>10</ele>
        <time>2019-07-15T11:46:13Z</time>
      </trkpt>
      <trkpt lat="47.79753" lon="-3.5259">
        <ele>10</ele>
        <time>2019-07-15T11:46:14Z</time>
      </trkpt>
      <trkpt lat="47.79754" lon="-3.52594">
        <ele>10</ele>
        <time>2019-07-15T11:46:15Z</time>
      </trkpt>
      <trkpt lat="47.79755" lon="-3.52599">
        <ele>10</ele>
        <time>2019-07-15T11:46:16Z</time>
      </trkpt>
      <trkpt lat="47.79757" lon="-3.52604">
        <ele>10</ele>
        <time>2019-07-15T11:46:17Z</time>
      </trkpt>
      <trkpt lat="47.79757" lon="-3.5261">
        <ele>10</ele>
        <time>2019-07-15T11:46:18Z</time>
      </trkpt>
      <trkpt lat="47.79757" lon="-3.52615">
        <ele>10</ele>
        <time>2019-07-15T11:46:19Z</time>
      </trkpt>
      <trkpt lat="47.79755" lon="-3.5262">
        <ele>10</ele>
        <time>2019-07-15T11:46:20Z</time>
      </trkpt>
      <trkpt lat="47.79754" lon="-3.52625">
        <ele>10</ele>
        <time>2019-07-15T11:46:21Z</time>
      </trkpt>
      <trkpt lat="47.79752" lon="-3.5263">
        <ele>10</ele>
        <time>2019-07-15T11:46:22Z</time>
      </trkpt>
      <trkpt lat="47.79751" lon="-3.52634">
        <ele>10</ele>
        <time>2019-07-15T11:46:23Z</time>
      </trkpt>
      <trkpt lat="47.79749" lon="-3.52638">
        <ele>10</ele>
        <time>2019-07-15T11:46:24Z</time>
      </trkpt>
      <trkpt lat="47.79748" lon="-3.52642">
        <ele>10</ele>
        <time>2019-07-15T11:46:25Z</time>
      </trkpt>
      <trkpt lat="47.79747" lon="-3.52645">
        <ele>10</ele>
        <time>2019-07-15T11:46:26Z</time>
      </trkpt>
      <trkpt lat="47.79745" lon="-3.52648">
        <ele>10</ele>
        <time>2019-07-15T11:46:27Z</time>
      </trkpt>
      <trkpt lat="47.79744" lon="-3.52651">
        <ele>10</ele>
        <time>2019-07-15T11:46:28Z</time>
      </trkpt>
      <trkpt lat="47.79743" lon="-3.52654">
        <ele>10</ele>
        <time>2019-07-15T11:46:29Z</time>
      </trkpt>
      <trkpt lat="47.79742" lon="-3.52658">
        <ele>10</ele>
        <time>2019-07-15T11:46:30Z</time>
      </trkpt>
      <trkpt lat="47.79741" lon="-3.52661">
        <ele>10</ele>
        <time>2019-07-15T11:46:31Z</time>
      </trkpt>
      <trkpt lat="47.7974" lon="-3.52663">
        <ele>10</ele>
        <time>2019-07-15T11:46:32Z</time>
      </trkpt>
      <trkpt lat="47.79739" lon="-3.52665">
        <ele>10</ele>
        <time>2019-07-15T11:46:33Z</time>
      </trkpt>
      <trkpt lat="47.79739" lon="-3.52667">
        <ele>10</ele>
        <time>2019-07-15T11:46:34Z</time>
      </trkpt>
      <trkpt lat="47.79739" lon="-3.52669">
        <ele>10</ele>
        <time>2019-07-15T11:46:35Z</time>
      </trkpt>
      <trkpt lat="47.79738" lon="-3.52672">
        <ele>11</ele>
        <time>2019-07-15T11:46:36Z</time>
      </trkpt>
      <trkpt lat="47.79738" lon="-3.52674">
        <ele>11</ele>
        <time>2019-07-15T11:46:37Z</time>
      </trkpt>
      <trkpt lat="47.79737" lon="-3.52676">
        <ele>11</ele>
        <time>2019-07-15T11:46:38Z</time>
      </trkpt>
      <trkpt lat="47.79736" lon="-3.52679">
        <ele>11</ele>
        <time>2019-07-15T11:46:39Z</time>
      </trkpt>
      <trkpt lat="47.79735" lon="-3.52681">
        <ele>11</ele>
        <time>2019-07-15T11:46:40Z</time>
      </trkpt>
      <trkpt lat="47.79734" lon="-3.52684">
        <ele>11</ele>
        <time>2019-07-15T11:46:41Z</time>
      </trkpt>
      <trkpt lat="47.79733" lon="-3.52686">
        <ele>11</ele>
        <time>2019-07-15T11:46:42Z</time>
      </trkpt>
      <trkpt lat="47.79732" lon="-3.52689">
        <ele>11</ele>
        <time>2019-07-15T11:46:43Z</time>
      </trkpt>
      <trkpt lat="47.79731" lon="-3.52693">
        <ele>11</ele>
        <time>2019-07-15T11:46:44Z</time>
      </trkpt>
      <trkpt lat="47.7973" lon="-3.52696">
        <ele>12</ele>
        <time>2019-07-15T11:46:45Z</time>
      </trkpt>
      <trkpt lat="47.79729" lon="-3.52701">
        <ele>12</ele>
        <time>2019-07-15T11:46:46Z</time>
      </trkpt>
      <trkpt lat="47.79728" lon="-3.52704">
        <ele>12</ele>
        <time>2019-07-15T11:46:47Z</time>
      </trkpt>
      <trkpt lat="47.79728" lon="-3.52707">
        <ele>12</ele>
        <time>2019-07-15T11:46:48Z</time>
      </trkpt>
      <trkpt lat="47.79727" lon="-3.5271">
        <ele>12</ele>
        <time>2019-07-15T11:46:49Z</time>
      </trkpt>
      <trkpt lat="47.79726" lon="-3.52714">
        <ele>12</ele>
        <time>2019-07-15T11:46:50Z</time>
      </trkpt>
      <trkpt lat="47.79725" lon="-3.52717">
        <ele>13</ele>
        <time>2019-07-15T11:46:51Z</time>
      </trkpt>
      <trkpt lat="47.79725" lon="-3.52721">
        <ele>13</ele>
        <time>2019-07-15T11:46:52Z</time>
      </trkpt>
      <trkpt lat="47.79725" lon="-3.52723">
        <ele>13</ele>
        <time>2019-07-15T11:46:53Z</time>
      </trkpt>
      <trkpt lat="47.79724" lon="-3.52726">
        <ele>13</ele>
        <time>2019-07-15T11:46:54Z</time>
      </trkpt>
      <trkpt lat="47.79723" lon="-3.5273">
        <ele>13</ele>
        <time>2019-07-15T11:46:55Z</time>
      </trkpt>
      <trkpt lat="47.79722" lon="-3.52733">
        <ele>14</ele>
        <time>2019-07-15T11:46:56Z</time>
      </trkpt>
      <trkpt lat="47.79721" lon="-3.52737">
        <ele>14</ele>
        <time>2019-07-15T11:46:57Z</time>
      </trkpt>
      <trkpt lat="47.79719" lon="-3.52742">
        <ele>14</ele>
        <time>2019-07-15T11:46:58Z</time>
      </trkpt>
      <trkpt lat="47.79718" lon="-3.52747">
        <ele>14</ele>
        <time>2019-07-15T11:46:59Z</time>
      </trkpt>
      <trkpt lat="47.79717" lon="-3.52752">
        <ele>15</ele>
        <time>2019-07-15T11:47:00Z</time>
      </trkpt>
      <trkpt lat="47.79715" lon="-3.52757">
        <ele>15</ele>
        <time>2019-07-15T11:47:01Z</time>
      </trkpt>
      <trkpt lat="47.79712" lon="-3.52762">
        <ele>15</ele>
        <time>2019-07-15T11:47:02Z</time>
      </trkpt>
      <trkpt lat="47.7971" lon="-3.52765">
        <ele>15</ele>
        <time>2019-07-15T11:47:03Z</time>
      </trkpt>
      <trkpt lat="47.79708" lon="-3.52768">
        <ele>15</ele>
        <time>2019-07-15T11:47:04Z</time>
      </trkpt>
      <trkpt lat="47.79705" lon="-3.52771">
        <ele>15</ele>
        <time>2019-07-15T11:47:05Z</time>
      </trkpt>
      <trkpt lat="47.79703" lon="-3.52772">
        <ele>15</ele>
        <time>2019-07-15T11:47:06Z</time>
      </trkpt>
      <trkpt lat="47.797" lon="-3.52774">
        <ele>15</ele>
        <time>2019-07-15T11:47:07Z</time>
      </trkpt>
      <trkpt lat="47.79698" lon="-3.52775">
        <ele>15</ele>
        <time>2019-07-15T11:47:08Z</time>
      </trkpt>
      <trkpt lat="47.79695" lon="-3.52775">
        <ele>15</ele>
        <time>2019-07-15T11:47:09Z</time>
      </trkpt>
      <trkpt lat="47.79692" lon="-3.52775">
        <ele>16</ele>
        <time>2019-07-15T11:47:10Z</time>
      </trkpt>
      <trkpt lat="47.79689" lon="-3.52775">
        <ele>16</ele>
        <time>2019-07-15T11:47:11Z</time>
      </trkpt>
      <trkpt lat="47.79688" lon="-3.52775">
        <ele>16</ele>
        <time>2019-07-15T11:47:12Z</time>
      </trkpt>
      <trkpt lat="47.79686" lon="-3.52776">
        <ele>16</ele>
        <time>2019-07-15T11:47:13Z</time>
      </trkpt>
      <trkpt lat="47.79684" lon="-3.52777">
        <ele>16</ele>
        <time>2019-07-15T11:47:14Z</time>
      </trkpt>
      <trkpt lat="47.79681" lon="-3.52778">
        <ele>16</ele>
        <time>2019-07-15T11:47:15Z</time>
      </trkpt>
      <trkpt lat="47.79679" lon="-3.52778">
        <ele>16</ele>
        <time>2019-07-15T11:47:16Z</time>
      </trkpt>
      <trkpt lat="47.79676" lon="-3.52778">
        <ele>15</ele>
        <time>2019-07-15T11:47:17Z</time>
      </trkpt>
      <trkpt lat="47.79673" lon="-3.52778">
        <ele>15</ele>
        <time>2019-07-15T11:47:18Z</time>
      </trkpt>
      <trkpt lat="47.7967" lon="-3.52777">
        <ele>15</ele>
        <time>2019-07-15T11:47:19Z</time>
      </trkpt>
      <trkpt lat="47.79665" lon="-3.52777">
        <ele>15</ele>
        <time>2019-07-15T11:47:20Z</time>
      </trkpt>
      <trkpt lat="47.79659" lon="-3.52778">
        <ele>15</ele>
        <time>2019-07-15T11:47:21Z</time>
      </trkpt>
      <trkpt lat="47.79652" lon="-3.52779">
        <ele>15</ele>
        <time>2019-07-15T11:47:22Z</time>
      </trkpt>
      <trkpt lat="47.79646" lon="-3.52781">
        <ele>15</ele>
        <time>2019-07-15T11:47:23Z</time>
      </trkpt>
      <trkpt lat="47.7964" lon="-3.52785">
        <ele>15</ele>
        <time>2019-07-15T11:47:24Z</time>
      </trkpt>
      <trkpt lat="47.79636" lon="-3.52788">
        <ele>15</ele>
        <time>2019-07-15T11:47:25Z</time>
      </trkpt>
      <trkpt lat="47.79631" lon="-3.52792">
        <ele>15</ele>
        <time>2019-07-15T11:47:26Z</time>
      </trkpt>
      <trkpt lat="47.79626" lon="-3.52795">
        <ele>15</ele>
        <time>2019-07-15T11:47:27Z</time>
      </trkpt>
      <trkpt lat="47.79621" lon="-3.52798">
        <ele>15</ele>
        <time>2019-07-15T11:47:28Z</time>
      </trkpt>
      <trkpt lat="47.79617" lon="-3.52801">
        <ele>15</ele>
        <time>2019-07-15T11:47:29Z</time>
      </trkpt>
      <trkpt lat="47.79614" lon="-3.52804">
        <ele>15</ele>
        <time>2019-07-15T11:47:30Z</time>
      </trkpt>
      <trkpt lat="47.79612" lon="-3.52807">
        <ele>14</ele>
        <time>2019-07-15T11:47:31Z</time>
      </trkpt>
      <trkpt lat="47.7961" lon="-3.52809">
        <ele>14</ele>
        <time>2019-07-15T11:47:32Z</time>
      </trkpt>
      <trkpt lat="47.79608" lon="-3.5281">
        <ele>14</ele>
        <time>2019-07-15T11:47:33Z</time>
      </trkpt>
      <trkpt lat="47.79606" lon="-3.52811">
        <ele>14</ele>
        <time>2019-07-15T11:47:34Z</time>
      </trkpt>
      <trkpt lat="47.79604" lon="-3.52812">
        <ele>14</ele>
        <time>2019-07-15T11:47:35Z</time>
      </trkpt>
      <trkpt lat="47.79602" lon="-3.52813">
        <ele>14</ele>
        <time>2019-07-15T11:47:36Z</time>
      </trkpt>
      <trkpt lat="47.79601" lon="-3.52814">
        <ele>14</ele>
        <time>2019-07-15T11:47:37Z</time>
      </trkpt>
      <trkpt lat="47.79599" lon="-3.52815">
        <ele>13</ele>
        <time>2019-07-15T11:47:38Z</time>
      </trkpt>
      <trkpt lat="47.79598" lon="-3.52815">
        <ele>13</ele>
        <time>2019-07-15T11:47:39Z</time>
      </trkpt>
      <trkpt lat="47.79597" lon="-3.52815">
        <ele>13</ele>
        <time>2019-07-15T11:47:40Z</time>
      </trkpt>
      <trkpt lat="47.79595" lon="-3.52816">
        <ele>13</ele>
        <time>2019-07-15T11:47:41Z</time>
      </trkpt>
      <trkpt lat="47.79594" lon="-3.52816">
        <ele>13</ele>
        <time>2019-07-15T11:47:42Z</time>
      </trkpt>
      <trkpt lat="47.79592" lon="-3.52818">
        <ele>13</ele>
        <time>2019-07-15T11:47:43Z</time>
      </trkpt>
      <trkpt lat="47.7959" lon="-3.52819">
        <ele>13</ele>
        <time>2019-07-15T11:47:44Z</time>
      </trkpt>
      <trkpt lat="47.79588" lon="-3.5282">
        <ele>13</ele>
        <time>2019-07-15T11:47:45Z</time>
      </trkpt>
      <trkpt lat="47.79587" lon="-3.52822">
        <ele>12</ele>
        <time>2019-07-15T11:47:46Z</time>
      </trkpt>
      <trkpt lat="47.79584" lon="-3.52823">
        <ele>12</ele>
        <time>2019-07-15T11:47:47Z</time>
      </trkpt>
      <trkpt lat="47.79583" lon="-3.52825">
        <ele>12</ele>
        <time>2019-07-15T11:47:48Z</time>
      </trkpt>
      <trkpt lat="47.79582" lon="-3.52827">
        <ele>12</ele>
        <time>2019-07-15T11:47:49Z</time>
      </trkpt>
      <trkpt lat="47.7958" lon="-3.52829">
        <ele>12</ele>
        <time>2019-07-15T11:47:50Z</time>
      </trkpt>
      <trkpt lat="47.79579" lon="-3.52831">
        <ele>12</ele>
        <time>2019-07-15T11:47:51Z</time>
      </trkpt>
      <trkpt lat="47.79577" lon="-3.52832">
        <ele>12</ele>
        <time>2019-07-15T11:47:52Z</time>
      </trkpt>
      <trkpt lat="47.79576" lon="-3.52834">
        <ele>12</ele>
        <time>2019-07-15T11:47:53Z</time>
      </trkpt>
      <trkpt lat="47.79575" lon="-3.52836">
        <ele>12</ele>
        <time>2019-07-15T11:47:54Z</time>
      </trkpt>
      <trkpt lat="47.79575" lon="-3.52838">
        <ele>12</ele>
        <time>2019-07-15T11:47:55Z</time>
      </trkpt>
      <trkpt lat="47.79575" lon="-3.52839">
        <ele>12</ele>
        <time>2019-07-15T11:47:56Z</time>
      </trkpt>
      <trkpt lat="47.79574" lon="-3.5284">
        <ele>13</ele>
        <time>2019-07-15T11:47:57Z</time>
      </trkpt>
      <trkpt lat="47.79574" lon="-3.52842">
        <ele>13</ele>
        <time>2019-07-15T11:47:58Z</time>
      </trkpt>
      <trkpt lat="47.79573" lon="-3.52844">
        <ele>13</ele>
        <time>2019-07-15T11:47:59Z</time>
      </trkpt>
      <trkpt lat="47.79573" lon="-3.52846">
        <ele>13</ele>
        <time>2019-07-15T11:48:00Z</time>
      </trkpt>
      <trkpt lat="47.79573" lon="-3.52849">
        <ele>14</ele>
        <time>2019-07-15T11:48:01Z</time>
      </trkpt>
      <trkpt lat="47.79572" lon="-3.52851">
        <ele>14</ele>
        <time>2019-07-15T11:48:02Z</time>
      </trkpt>
      <trkpt lat="47.79571" lon="-3.52853">
        <ele>14</ele>
        <time>2019-07-15T11:48:03Z</time>
      </trkpt>
      <trkpt lat="47.79571" lon="-3.52855">
        <ele>15</ele>
        <time>2019-07-15T11:48:04Z</time>
      </trkpt>
      <trkpt lat="47.7957" lon="-3.52857">
        <ele>15</ele>
        <time>2019-07-15T11:48:05Z</time>
      </trkpt>
      <trkpt lat="47.7957" lon="-3.52858">
        <ele>15</ele>
        <time>2019-07-15T11:48:06Z</time>
      </trkpt>
      <trkpt lat="47.7957" lon="-3.5286">
        <ele>15</ele>
        <time>2019-07-15T11:48:07Z</time>
      </trkpt>
      <trkpt lat="47.7957" lon="-3.52862">
        <ele>16</ele>
        <time>2019-07-15T11:48:08Z</time>
      </trkpt>
      <trkpt lat="47.7957" lon="-3.52863">
        <ele>16</ele>
        <time>2019-07-15T11:48:09Z</time>
      </trkpt>
      <trkpt lat="47.79571" lon="-3.52866">
        <ele>16</ele>
        <time>2019-07-15T11:48:10Z</time>
      </trkpt>
      <trkpt lat="47.79572" lon="-3.52868">
        <ele>16</ele>
        <time>2019-07-15T11:48:11Z</time>
      </trkpt>
      <trkpt lat="47.79572" lon="-3.52871">
        <ele>17</ele>
        <time>2019-07-15T11:48:12Z</time>
      </trkpt>
      <trkpt lat="47.79573" lon="-3.52873">
        <ele>17</ele>
        <time>2019-07-15T11:48:13Z</time>
      </trkpt>
      <trkpt lat="47.79573" lon="-3.52875">
        <ele>17</ele>
        <time>2019-07-15T11:48:14Z</time>
      </trkpt>
      <trkpt lat="47.79574" lon="-3.52877">
        <ele>17</ele>
        <time>2019-07-15T11:48:15Z</time>
      </trkpt>
      <trkpt lat="47.79575" lon="-3.52879">
        <ele>17</ele>
        <time>2019-07-15T11:48:16Z</time>
      </trkpt>
      <trkpt lat="47.79575" lon="-3.52882">
        <ele>17</ele>
        <time>2019-07-15T11:48:17Z</time>
      </trkpt>
      <trkpt lat="47.79575" lon="-3.52886">
        <ele>17</ele>
        <time>2019-07-15T11:48:18Z</time>
      </trkpt>
      <trkpt lat="47.79574" lon="-3.52891">
        <ele>17</ele>
        <time>2019-07-15T11:48:19Z</time>
      </trkpt>
      <trkpt lat="47.79573" lon="-3.52894">
        <ele>17</ele>
        <time>2019-07-15T11:48:20Z</time>
      </trkpt>
      <trkpt lat="47.79571" lon="-3.52896">
        <ele>17</ele>
        <time>2019-07-15T11:48:21Z</time>
      </trkpt>
      <trkpt lat="47.79569" lon="-3.52898">
        <ele>17</ele>
        <time>2019-07-15T11:48:22Z</time>
      </trkpt>
      <trkpt lat="47.79568" lon="-3.52899">
        <ele>18</ele>
        <time>2019-07-15T11:48:23Z</time>
      </trkpt>
      <trkpt lat="47.79566" lon="-3.52899">
        <ele>18</ele>
        <time>2019-07-15T11:48:24Z</time>
      </trkpt>
      <trkpt lat="47.79566" lon="-3.52899">
        <ele>18</ele>
        <time>2019-07-15T11:48:25Z</time>
      </trkpt>
      <trkpt lat="47.79565" lon="-3.52898">
        <ele>18</ele>
        <time>2019-07-15T11:48:26Z</time>
      </trkpt>
      <trkpt lat="47.79565" lon="-3.52897">
        <ele>18</ele>
        <time>2019-07-15T11:48:27Z</time>
      </trkpt>
      <trkpt lat="47.79565" lon="-3.52895">
        <ele>18</ele>
        <time>2019-07-15T11:48:28Z</time>
      </trkpt>
      <trkpt lat="47.79564" lon="-3.52892">
        <ele>18</ele>
        <time>2019-07-15T11:48:29Z</time>
      </trkpt>
      <trkpt lat="47.79563" lon="-3.5289">
        <ele>18</ele>
        <time>2019-07-15T11:48:30Z</time>
      </trkpt>
      <trkpt lat="47.79561" lon="-3.52887">
        <ele>18</ele>
        <time>2019-07-15T11:48:31Z</time>
      </trkpt>
      <trkpt lat="47.79559" lon="-3.52886">
        <ele>18</ele>
        <time>2019-07-15T11:48:32Z</time>
      </trkpt>
      <trkpt lat="47.79557" lon="-3.52885">
        <ele>17</ele>
        <time>2019-07-15T11:48:33Z</time>
      </trkpt>
      <trkpt lat="47.79554" lon="-3.52886">
        <ele>17</ele>
        <time>2019-07-15T11:48:34Z</time>
      </trkpt>
      <trkpt lat="47.79551" lon="-3.52885">
        <ele>17</ele>
        <time>2019-07-15T11:48:35Z</time>
      </trkpt>
      <trkpt lat="47.79549" lon="-3.52885">
        <ele>17</ele>
        <time>2019-07-15T11:48:36Z</time>
      </trkpt>
      <trkpt lat="47.79548" lon="-3.52885">
        <ele>17</ele>
        <time>2019-07-15T11:48:37Z</time>
      </trkpt>
      <trkpt lat="47.79546" lon="-3.52884">
        <ele>16</ele>
        <time>2019-07-15T11:48:38Z</time>
      </trkpt>
      <trkpt lat="47.79544" lon="-3.52884">
        <ele>16</ele>
        <time>2019-07-15T11:48:39Z</time>
      </trkpt>
      <trkpt lat="47.79542" lon="-3.52884">
        <ele>16</ele>
        <time>2019-07-15T11:48:40Z</time>
      </trkpt>
      <trkpt lat="47.7954" lon="-3.52883">
        <ele>16</ele>
        <time>2019-07-15T11:48:41Z</time>
      </trkpt>
      <trkpt lat="47.79538" lon="-3.52882">
        <ele>16</ele>
        <time>2019-07-15T11:48:42Z</time>
      </trkpt>
      <trkpt lat="47.79536" lon="-3.52881">
        <ele>16</ele>
        <time>2019-07-15T11:48:43Z</time>
      </trkpt>
      <trkpt lat="47.79534" lon="-3.5288">
        <ele>15</ele>
        <time>2019-07-15T11:48:44Z</time>
      </trkpt>
      <trkpt lat="47.79532" lon="-3.52879">
        <ele>16</ele>
        <time>2019-07-15T11:48:45Z</time>
      </trkpt>
      <trkpt lat="47.79531" lon="-3.52878">
        <ele>16</ele>
        <time>2019-07-15T11:48:46Z</time>
      </trkpt>
      <trkpt lat="47.79529" lon="-3.52876">
        <ele>16</ele>
        <time>2019-07-15T11:48:47Z</time>
      </trkpt>
      <trkpt lat="47.79529" lon="-3.52873">
        <ele>16</ele>
        <time>2019-07-15T11:48:48Z</time>
      </trkpt>
      <trkpt lat="47.79527" lon="-3.52872">
        <ele>16</ele>
        <time>2019-07-15T11:48:49Z</time>
      </trkpt>
      <trkpt lat="47.79526" lon="-3.5287">
        <ele>16</ele>
        <time>2019-07-15T11:48:50Z</time>
      </trkpt>
      <trkpt lat="47.79524" lon="-3.52868">
        <ele>16</ele>
        <time>2019-07-15T11:48:51Z</time>
      </trkpt>
      <trkpt lat="47.79524" lon="-3.52865">
        <ele>17</ele>
        <time>2019-07-15T11:48:52Z</time>
      </trkpt>
      <trkpt lat="47.79523" lon="-3.52863">
        <ele>17</ele>
        <time>2019-07-15T11:48:53Z</time>
      </trkpt>
      <trkpt lat="47.79522" lon="-3.52861">
        <ele>17</ele>
        <time>2019-07-15T11:48:54Z</time>
      </trkpt>
      <trkpt lat="47.79522" lon="-3.52859">
        <ele>17</ele>
        <time>2019-07-15T11:48:55Z</time>
      </trkpt>
      <trkpt lat="47.79521" lon="-3.52856">
        <ele>17</ele>
        <time>2019-07-15T11:48:56Z</time>
      </trkpt>
      <trkpt lat="47.7952" lon="-3.52854">
        <ele>17</ele>
        <time>2019-07-15T11:48:57Z</time>
      </trkpt>
      <trkpt lat="47.79519" lon="-3.52851">
        <ele>17</ele>
        <time>2019-07-15T11:48:58Z</time>
      </trkpt>
      <trkpt lat="47.79516" lon="-3.5285">
        <ele>17</ele>
        <time>2019-07-15T11:48:59Z</time>
      </trkpt>
      <trkpt lat="47.79514" lon="-3.52849">
        <ele>17</ele>
        <time>2019-07-15T11:49:00Z</time>
      </trkpt>
      <trkpt lat="47.79512" lon="-3.5285">
        <ele>17</ele>
        <time>2019-07-15T11:49:01Z</time>
      </trkpt>
      <trkpt lat="47.79509" lon="-3.52849">
        <ele>17</ele>
        <time>2019-07-15T11:49:02Z</time>
      </trkpt>
      <trkpt lat="47.79505" lon="-3.5285">
        <ele>17</ele>
        <time>2019-07-15T11:49:03Z</time>
      </trkpt>
      <trkpt lat="47.79501" lon="-3.52849">
        <ele>17</ele>
        <time>2019-07-15T11:49:04Z</time>
      </trkpt>
      <trkpt lat="47.79498" lon="-3.52847">
        <ele>17</ele>
        <time>2019-07-15T11:49:05Z</time>
      </trkpt>
      <trkpt lat="47.79495" lon="-3.52844">
        <ele>17</ele>
        <time>2019-07-15T11:49:06Z</time>
      </trkpt>
      <trkpt lat="47.79492" lon="-3.5284">
        <ele>17</ele>
        <time>2019-07-15T11:49:07Z</time>
      </trkpt>
      <trkpt lat="47.79489" lon="-3.52835">
        <ele>17</ele>
        <time>2019-07-15T11:49:08Z</time>
      </trkpt>
      <trkpt lat="47.79487" lon="-3.52832">
        <ele>17</ele>
        <time>2019-07-15T11:49:09Z</time>
      </trkpt>
      <trkpt lat="47.79485" lon="-3.52828">
        <ele>17</ele>
        <time>2019-07-15T11:49:10Z</time>
      </trkpt>
      <trkpt lat="47.79482" lon="-3.52826">
        <ele>17</ele>
        <time>2019-07-15T11:49:11Z</time>
      </trkpt>
      <trkpt lat="47.79479" lon="-3.52825">
        <ele>17</ele>
        <time>2019-07-15T11:49:12Z</time>
      </trkpt>
      <trkpt lat="47.79476" lon="-3.52824">
        <ele>17</ele>
        <time>2019-07-15T11:49:13Z</time>
      </trkpt>
      <trkpt lat="47.79473" lon="-3.52823">
        <ele>17</ele>
        <time>2019-07-15T11:49:14Z</time>
      </trkpt>
      <trkpt lat="47.7947" lon="-3.52823">
        <ele>17</ele>
        <time>2019-07-15T11:49:15Z</time>
      </trkpt>
      <trkpt lat="47.79467" lon="-3.52823">
        <ele>17</ele>
        <time>2019-07-15T11:49:16Z</time>
      </trkpt>
      <trkpt lat="47.79465" lon="-3.52822">
        <ele>17</ele>
        <time>2019-07-15T11:49:17Z</time>
      </trkpt>
      <trkpt lat="47.79461" lon="-3.52822">
        <ele>17</ele>
        <time>2019-07-15T11:49:18Z</time>
      </trkpt>
      <trkpt lat="47.79458" lon="-3.52823">
        <ele>17</ele>
        <time>2019-07-15T11:49:19Z</time>
      </trkpt>
      <trkpt lat="47.79456" lon="-3.52823">
        <ele>17</ele>
        <time>2019-07-15T11:49:20Z</time>
      </trkpt>
      <trkpt lat="47.79452" lon="-3.52822">
        <ele>16</ele>
        <time>2019-07-15T11:49:21Z</time>
      </trkpt>
      <trkpt lat="47.79448" lon="-3.52818">
        <ele>16</ele>
        <time>2019-07-15T11:49:22Z</time>
      </trkpt>
      <trkpt lat="47.79444" lon="-3.52813">
        <ele>16</ele>
        <time>2019-07-15T11:49:23Z</time>
      </trkpt>
      <trkpt lat="47.79441" lon="-3.52807">
        <ele>16</ele>
        <time>2019-07-15T11:49:24Z</time>
      </trkpt>
      <trkpt lat="47.79438" lon="-3.52799">
        <ele>16</ele>
        <time>2019-07-15T11:49:25Z</time>
      </trkpt>
      <trkpt lat="47.79436" lon="-3.5279">
        <ele>16</ele>
        <time>2019-07-15T11:49:26Z</time>
      </trkpt>
      <trkpt lat="47.79433" lon="-3.52785">
        <ele>15</ele>
        <time>2019-07-15T11:49:27Z</time>
      </trkpt>
      <trkpt lat="47.79429" lon="-3.52781">
        <ele>15</ele>
        <time>2019-07-15T11:49:28Z</time>
      </trkpt>
      <trkpt lat="47.79425" lon="-3.52779">
        <ele>15</ele>
        <time>2019-07-15T11:49:29Z</time>
      </trkpt>
      <trkpt lat="47.79421" lon="-3.52779">
        <ele>14</ele>
        <time>2019-07-15T11:49:30Z</time>
      </trkpt>
      <trkpt lat="47.79417" lon="-3.52778">
        <ele>14</ele>
        <time>2019-07-15T11:49:31Z</time>
      </trkpt>
      <trkpt lat="47.79412" lon="-3.52779">
        <ele>13</ele>
        <time>2019-07-15T11:49:32Z</time>
      </trkpt>
      <trkpt lat="47.79407" lon="-3.5278">
        <ele>13</ele>
        <time>2019-07-15T11:49:33Z</time>
      </trkpt>
      <trkpt lat="47.79401" lon="-3.52782">
        <ele>12</ele>
        <time>2019-07-15T11:49:34Z</time>
      </trkpt>
      <trkpt lat="47.79396" lon="-3.52784">
        <ele>12</ele>
        <time>2019-07-15T11:49:35Z</time>
      </trkpt>
      <trkpt lat="47.79392" lon="-3.52786">
        <ele>11</ele>
        <time>2019-07-15T11:49:36Z</time>
      </trkpt>
      <trkpt lat="47.79389" lon="-3.52787">
        <ele>11</ele>
        <time>2019-07-15T11:49:37Z</time>
      </trkpt>
      <trkpt lat="47.79388" lon="-3.52787">
        <ele>11</ele>
        <time>2019-07-15T11:49:38Z</time>
      </trkpt>
      <trkpt lat="47.79386" lon="-3.52788">
        <ele>10</ele>
        <time>2019-07-15T11:49:39Z</time>
      </trkpt>
      <trkpt lat="47.79385" lon="-3.52788">
        <ele>10</ele>
        <time>2019-07-15T11:49:40Z</time>
      </trkpt>
      <trkpt lat="47.79383" lon="-3.52791">
        <ele>9</ele>
        <time>2019-07-15T11:49:41Z</time>
      </trkpt>
      <trkpt lat="47.7938" lon="-3.52794">
        <ele>9</ele>
        <time>2019-07-15T11:49:42Z</time>
      </trkpt>
      <trkpt lat="47.79377" lon="-3.52798">
        <ele>9</ele>
        <time>2019-07-15T11:49:43Z</time>
      </trkpt>
      <trkpt lat="47.79375" lon="-3.52803">
        <ele>8</ele>
        <time>2019-07-15T11:49:44Z</time>
      </trkpt>
      <trkpt lat="47.79372" lon="-3.52809">
        <ele>8</ele>
        <time>2019-07-15T11:49:45Z</time>
      </trkpt>
      <trkpt lat="47.7937" lon="-3.52816">
        <ele>7</ele>
        <time>2019-07-15T11:49:46Z</time>
      </trkpt>
      <trkpt lat="47.79367" lon="-3.5282">
        <ele>7</ele>
        <time>2019-07-15T11:49:47Z</time>
      </trkpt>
      <trkpt lat="47.79365" lon="-3.52822">
        <ele>7</ele>
        <time>2019-07-15T11:49:48Z</time>
      </trkpt>
      <trkpt lat="47.79363" lon="-3.52823">
        <ele>7</ele>
        <time>2019-07-15T11:49:49Z</time>
      </trkpt>
      <trkpt lat="47.79361" lon="-3.52824">
        <ele>6</ele>
        <time>2019-07-15T11:49:50Z</time>
      </trkpt>
      <trkpt lat="47.79358" lon="-3.52824">
        <ele>6</ele>
        <time>2019-07-15T11:49:51Z</time>
      </trkpt>
      <trkpt lat="47.79356" lon="-3.52824">
        <ele>6</ele>
        <time>2019-07-15T11:49:52Z</time>
      </trkpt>
      <trkpt lat="47.79353" lon="-3.52824">
        <ele>6</ele>
        <time>2019-07-15T11:49:53Z</time>
      </trkpt>
      <trkpt lat="47.7935" lon="-3.52823">
        <ele>6</ele>
        <time>2019-07-15T11:49:54Z</time>
      </trkpt>
      <trkpt lat="47.79345" lon="-3.52824">
        <ele>6</ele>
        <time>2019-07-15T11:49:55Z</time>
      </trkpt>
      <trkpt lat="47.79342" lon="-3.52827">
        <ele>5</ele>
        <time>2019-07-15T11:49:56Z</time>
      </trkpt>
      <trkpt lat="47.79339" lon="-3.5283">
        <ele>5</ele>
        <time>2019-07-15T11:49:57Z</time>
      </trkpt>
      <trkpt lat="47.79336" lon="-3.52832">
        <ele>5</ele>
        <time>2019-07-15T11:49:58Z</time>
      </trkpt>
      <trkpt lat="47.79334" lon="-3.52833">
        <ele>5</ele>
        <time>2019-07-15T11:49:59Z</time>
      </trkpt>
      <trkpt lat="47.79331" lon="-3.52833">
        <ele>5</ele>
        <time>2019-07-15T11:50:00Z</time>
      </trkpt>
      <trkpt lat="47.79328" lon="-3.52833">
        <ele>5</ele>
        <time>2019-07-15T11:50:01Z</time>
      </trkpt>
      <trkpt lat="47.79325" lon="-3.52835">
        <ele>5</ele>
        <time>2019-07-15T11:50:02Z</time>
      </trkpt>
      <trkpt lat="47.79323" lon="-3.52836">
        <ele>5</ele>
        <time>2019-07-15T11:50:03Z</time>
      </trkpt>
      <trkpt lat="47.79321" lon="-3.52839">
        <ele>5</ele>
        <time>2019-07-15T11:50:04Z</time>
      </trkpt>
      <trkpt lat="47.79319" lon="-3.52843">
        <ele>5</ele>
        <time>2019-07-15T11:50:05Z</time>
      </trkpt>
      <trkpt lat="47.79316" lon="-3.52845">
        <ele>5</ele>
        <time>2019-07-15T11:50:06Z</time>
      </trkpt>
      <trkpt lat="47.79312" lon="-3.52846">
        <ele>5</ele>
        <time>2019-07-15T11:50:07Z</time>
      </trkpt>
      <trkpt lat="47.7931" lon="-3.52847">
        <ele>5</ele>
        <time>2019-07-15T11:50:08Z</time>
      </trkpt>
      <trkpt lat="47.79307" lon="-3.52849">
        <ele>5</ele>
        <time>2019-07-15T11:50:09Z</time>
      </trkpt>
      <trkpt lat="47.79305" lon="-3.52852">
        <ele>5</ele>
        <time>2019-07-15T11:50:10Z</time>
      </trkpt>
      <trkpt lat="47.79302" lon="-3.52853">
        <ele>5</ele>
        <time>2019-07-15T11:50:11Z</time>
      </trkpt>
      <trkpt lat="47.79297" lon="-3.52855">
        <ele>5</ele>
        <time>2019-07-15T11:50:12Z</time>
      </trkpt>
      <trkpt lat="47.79293" lon="-3.52857">
        <ele>5</ele>
        <time>2019-07-15T11:50:13Z</time>
      </trkpt>
      <trkpt lat="47.79288" lon="-3.52858">
        <ele>5</ele>
        <time>2019-07-15T11:50:14Z</time>
      </trkpt>
      <trkpt lat="47.79282" lon="-3.52859">
        <ele>5</ele>
        <time>2019-07-15T11:50:15Z</time>
      </trkpt>
      <trkpt lat="47.79277" lon="-3.5286">
        <ele>5</ele>
        <time>2019-07-15T11:50:16Z</time>
      </trkpt>
      <trkpt lat="47.79272" lon="-3.52861">
        <ele>5</ele>
        <time>2019-07-15T11:50:17Z</time>
      </trkpt>
      <trkpt lat="47.79268" lon="-3.52864">
        <ele>5</ele>
        <time>2019-07-15T11:50:18Z</time>
      </trkpt>
      <trkpt lat="47.79263" lon="-3.52866">
        <ele>5</ele>
        <time>2019-07-15T11:50:19Z</time>
      </trkpt>
      <trkpt lat="47.79259" lon="-3.52869">
        <ele>5</ele>
        <time>2019-07-15T11:50:20Z</time>
      </trkpt>
      <trkpt lat="47.79256" lon="-3.52872">
        <ele>5</ele>
        <time>2019-07-15T11:50:21Z</time>
      </trkpt>
      <trkpt lat="47.79252" lon="-3.52875">
        <ele>6</ele>
        <time>2019-07-15T11:50:22Z</time>
      </trkpt>
      <trkpt lat="47.79248" lon="-3.52879">
        <ele>6</ele>
        <time>2019-07-15T11:50:23Z</time>
      </trkpt>
      <trkpt lat="47.79244" lon="-3.52883">
        <ele>6</ele>
        <time>2019-07-15T11:50:24Z</time>
      </trkpt>
      <trkpt lat="47.7924" lon="-3.52888">
        <ele>7</ele>
        <time>2019-07-15T11:50:25Z</time>
      </trkpt>
      <trkpt lat="47.79237" lon="-3.52893">
        <ele>7</ele>
        <time>2019-07-15T11:50:26Z</time>
      </trkpt>
      <trkpt lat="47.79233" lon="-3.52897">
        <ele>7</ele>
        <time>2019-07-15T11:50:27Z</time>
      </trkpt>
      <trkpt lat="47.79229" lon="-3.52902">
        <ele>8</ele>
        <time>2019-07-15T11:50:28Z</time>
      </trkpt>
      <trkpt lat="47.79225" lon="-3.52906">
        <ele>8</ele>
        <time>2019-07-15T11:50:29Z</time>
      </trkpt>
      <trkpt lat="47.79221" lon="-3.52912">
        <ele>8</ele>
        <time>2019-07-15T11:50:30Z</time>
      </trkpt>
      <trkpt lat="47.79217" lon="-3.52916">
        <ele>7</ele>
        <time>2019-07-15T11:50:31Z</time>
      </trkpt>
      <trkpt lat="47.79214" lon="-3.52921">
        <ele>7</ele>
        <time>2019-07-15T11:50:32Z</time>
      </trkpt>
      <trkpt lat="47.79211" lon="-3.52927">
        <ele>7</ele>
        <time>2019-07-15T11:50:33Z</time>
      </trkpt>
      <trkpt lat="47.79209" lon="-3.52933">
        <ele>7</ele>
        <time>2019-07-15T11:50:34Z</time>
      </trkpt>
      <trkpt lat="47.79206" lon="-3.52939">
        <ele>7</ele>
        <time>2019-07-15T11:50:35Z</time>
      </trkpt>
      <trkpt lat="47.79204" lon="-3.52945">
        <ele>6</ele>
        <time>2019-07-15T11:50:36Z</time>
      </trkpt>
      <trkpt lat="47.79202" lon="-3.5295">
        <ele>6</ele>
        <time>2019-07-15T11:50:37Z</time>
      </trkpt>
      <trkpt lat="47.79201" lon="-3.52956">
        <ele>6</ele>
        <time>2019-07-15T11:50:38Z</time>
      </trkpt>
      <trkpt lat="47.792" lon="-3.52961">
        <ele>6</ele>
        <time>2019-07-15T11:50:39Z</time>
      </trkpt>
      <trkpt lat="47.79199" lon="-3.52966">
        <ele>6</ele>
        <time>2019-07-15T11:50:40Z</time>
      </trkpt>
      <trkpt lat="47.79199" lon="-3.52971">
        <ele>5</ele>
        <time>2019-07-15T11:50:41Z</time>
      </trkpt>
      <trkpt lat="47.79198" lon="-3.52977">
        <ele>5</ele>
        <time>2019-07-15T11:50:42Z</time>
      </trkpt>
      <trkpt lat="47.79197" lon="-3.52983">
        <ele>5</ele>
        <time>2019-07-15T11:50:43Z</time>
      </trkpt>
      <trkpt lat="47.79196" lon="-3.5299">
        <ele>5</ele>
        <time>2019-07-15T11:50:44Z</time>
      </trkpt>
      <trkpt lat="47.79194" lon="-3.52998">
        <ele>4</ele>
        <time>2019-07-15T11:50:45Z</time>
      </trkpt>
      <trkpt lat="47.79191" lon="-3.53004">
        <ele>4</ele>
        <time>2019-07-15T11:50:46Z</time>
      </trkpt>
      <trkpt lat="47.79189" lon="-3.5301">
        <ele>4</ele>
        <time>2019-07-15T11:50:47Z</time>
      </trkpt>
      <trkpt lat="47.79187" lon="-3.53013">
        <ele>4</ele>
        <time>2019-07-15T11:50:48Z</time>
      </trkpt>
      <trkpt lat="47.79185" lon="-3.53016">
        <ele>3</ele>
        <time>2019-07-15T11:50:49Z</time>
      </trkpt>
      <trkpt lat="47.79183" lon="-3.53018">
        <ele>3</ele>
        <time>2019-07-15T11:50:50Z</time>
      </trkpt>
      <trkpt lat="47.7918" lon="-3.53019">
        <ele>3</ele>
        <time>2019-07-15T11:50:51Z</time>
      </trkpt>
      <trkpt lat="47.79177" lon="-3.5302">
        <ele>3</ele>
        <time>2019-07-15T11:50:52Z</time>
      </trkpt>
      <trkpt lat="47.79174" lon="-3.53021">
        <ele>3</ele>
        <time>2019-07-15T11:50:53Z</time>
      </trkpt>
      <trkpt lat="47.7917" lon="-3.53023">
        <ele>3</ele>
        <time>2019-07-15T11:50:54Z</time>
      </trkpt>
      <trkpt lat="47.79166" lon="-3.53025">
        <ele>3</ele>
        <time>2019-07-15T11:50:55Z</time>
      </trkpt>
      <trkpt lat="47.79161" lon="-3.53027">
        <ele>3</ele>
        <time>2019-07-15T11:50:56Z</time>
      </trkpt>
      <trkpt lat="47.79157" lon="-3.5303">
        <ele>3</ele>
        <time>2019-07-15T11:50:57Z</time>
      </trkpt>
      <trkpt lat="47.79153" lon="-3.53034">
        <ele>2</ele>
        <time>2019-07-15T11:50:58Z</time>
      </trkpt>
      <trkpt lat="47.79149" lon="-3.53038">
        <ele>2</ele>
        <time>2019-07-15T11:50:59Z</time>
      </trkpt>
      <trkpt lat="47.79145" lon="-3.53043">
        <ele>2</ele>
        <time>2019-07-15T11:51:00Z</time>
      </trkpt>
      <trkpt lat="47.79142" lon="-3.53047">
        <ele>2</ele>
        <time>2019-07-15T11:51:01Z</time>
      </trkpt>
      <trkpt lat="47.7914" lon="-3.53052">
        <ele>2</ele>
        <time>2019-07-15T11:51:02Z</time>
      </trkpt>
      <trkpt lat="47.79138" lon="-3.53058">
        <ele>2</ele>
        <time>2019-07-15T11:51:03Z</time>
      </trkpt>
      <trkpt lat="47.79137" lon="-3.53063">
        <ele>2</ele>
        <time>2019-07-15T11:51:04Z</time>
      </trkpt>
      <trkpt lat="47.79137" lon="-3.53067">
        <ele>2</ele>
        <time>2019-07-15T11:51:05Z</time>
      </trkpt>
      <trkpt lat="47.79138" lon="-3.53073">
        <ele>2</ele>
        <time>2019-07-15T11:51:06Z</time>
      </trkpt>
      <trkpt lat="47.79138" lon="-3.53078">
        <ele>2</ele>
        <time>2019-07-15T11:51:07Z</time>
      </trkpt>
      <trkpt lat="47.79139" lon="-3.53083">
        <ele>2</ele>
        <time>2019-07-15T11:51:08Z</time>
      </trkpt>
      <trkpt lat="47.7914" lon="-3.53089">
        <ele>2</ele>
        <time>2019-07-15T11:51:09Z</time>
      </trkpt>
      <trkpt lat="47.79141" lon="-3.53095">
        <ele>3</ele>
        <time>2019-07-15T11:51:10Z</time>
      </trkpt>
      <trkpt lat="47.79142" lon="-3.531">
        <ele>3</ele>
        <time>2019-07-15T11:51:11Z</time>
      </trkpt>
      <trkpt lat="47.79143" lon="-3.53105">
        <ele>3</ele>
        <time>2019-07-15T11:51:12Z</time>
      </trkpt>
      <trkpt lat="47.79145" lon="-3.5311">
        <ele>3</ele>
        <time>2019-07-15T11:51:13Z</time>
      </trkpt>
      <trkpt lat="47.79146" lon="-3.53114">
        <ele>3</ele>
        <time>2019-07-15T11:51:14Z</time>
      </trkpt>
      <trkpt lat="47.79147" lon="-3.53118">
        <ele>3</ele>
        <time>2019-07-15T11:51:15Z</time>
      </trkpt>
      <trkpt lat="47.79148" lon="-3.53121">
        <ele>3</ele>
        <time>2019-07-15T11:51:16Z</time>
      </trkpt>
      <trkpt lat="47.79148" lon="-3.53124">
        <ele>3</ele>
        <time>2019-07-15T11:51:17Z</time>
      </trkpt>
      <trkpt lat="47.79147" lon="-3.53127">
        <ele>3</ele>
        <time>2019-07-15T11:51:18Z</time>
      </trkpt>
      <trkpt lat="47.79145" lon="-3.5313">
        <ele>3</ele>
        <time>2019-07-15T11:51:19Z</time>
      </trkpt>
      <trkpt lat="47.79142" lon="-3.53133">
        <ele>3</ele>
        <time>2019-07-15T11:51:20Z</time>
      </trkpt>
      <trkpt lat="47.79142" lon="-3.53134">
        <ele>3</ele>
        <time>2019-07-15T11:51:21Z</time>
      </trkpt>
      <trkpt lat="47.79142" lon="-3.53134">
        <ele>3</ele>
        <time>2019-07-15T11:51:22Z</time>
      </trkpt>
      <trkpt lat="47.79138" lon="-3.53141">
        <ele>3</ele>
        <time>2019-07-15T11:51:23Z</time>
      </trkpt>
      <trkpt lat="47.79136" lon="-3.53144">
        <ele>3</ele>
        <time>2019-07-15T11:51:24Z</time>
      </trkpt>
      <trkpt lat="47.79133" lon="-3.53146">
        <ele>3</ele>
        <time>2019-07-15T11:51:25Z</time>
      </trkpt>
      <trkpt lat="47.7913" lon="-3.53148">
        <ele>3</ele>
        <time>2019-07-15T11:51:26Z</time>
      </trkpt>
      <trkpt lat="47.79127" lon="-3.5315">
        <ele>3</ele>
        <time>2019-07-15T11:51:27Z</time>
      </trkpt>
      <trkpt lat="47.79124" lon="-3.53152">
        <ele>3</ele>
        <time>2019-07-15T11:51:28Z</time>
      </trkpt>
      <trkpt lat="47.79121" lon="-3.53153">
        <ele>2</ele>
        <time>2019-07-15T11:51:29Z</time>
      </trkpt>
      <trkpt lat="47.79118" lon="-3.53155">
        <ele>2</ele>
        <time>2019-07-15T11:51:30Z</time>
      </trkpt>
      <trkpt lat="47.79116" lon="-3.53157">
        <ele>2</ele>
        <time>2019-07-15T11:51:31Z</time>
      </trkpt>
      <trkpt lat="47.79113" lon="-3.53159">
        <ele>2</ele>
        <time>2019-07-15T11:51:32Z</time>
      </trkpt>
      <trkpt lat="47.79111" lon="-3.53161">
        <ele>2</ele>
        <time>2019-07-15T11:51:33Z</time>
      </trkpt>
      <trkpt lat="47.79109" lon="-3.53163">
        <ele>1</ele>
        <time>2019-07-15T11:51:34Z</time>
      </trkpt>
      <trkpt lat="47.79106" lon="-3.53165">
        <ele>1</ele>
        <time>2019-07-15T11:51:35Z</time>
      </trkpt>
      <trkpt lat="47.79103" lon="-3.53167">
        <ele>1</ele>
        <time>2019-07-15T11:51:36Z</time>
      </trkpt>
      <trkpt lat="47.791" lon="-3.53169">
        <ele>1</ele>
        <time>2019-07-15T11:51:37Z</time>
      </trkpt>
      <trkpt lat="47.79096" lon="-3.53171">
        <ele>1</ele>
        <time>2019-07-15T11:51:38Z</time>
      </trkpt>
      <trkpt lat="47.79094" lon="-3.53173">
        <ele>2</ele>
        <time>2019-07-15T11:51:39Z</time>
      </trkpt>
      <trkpt lat="47.79091" lon="-3.53175">
        <ele>1.9</ele>
        <time>2019-07-15T11:51:40Z</time>
      </trkpt>
      <trkpt lat="47.79088" lon="-3.53177">
        <ele>1.7</ele>
        <time>2019-07-15T11:51:41Z</time>
      </trkpt>
      <trkpt lat="47.79085" lon="-3.53179">
        <ele>1.6</ele>
        <time>2019-07-15T11:51:42Z</time>
      </trkpt>
      <trkpt lat="47.79083" lon="-3.53181">
        <ele>1.5</ele>
        <time>2019-07-15T11:51:43Z</time>
      </trkpt>
      <trkpt lat="47.7908" lon="-3.53182">
        <ele>1.5</ele>
        <time>2019-07-15T11:51:44Z</time>
      </trkpt>
      <trkpt lat="47.79077" lon="-3.53184">
        <ele>1.6</ele>
        <time>2019-07-15T11:51:45Z</time>
      </trkpt>
      <trkpt lat="47.79074" lon="-3.53185">
        <ele>1.7</ele>
        <time>2019-07-15T11:51:46Z</time>
      </trkpt>
      <trkpt lat="47.7907" lon="-3.53187">
        <ele>1.8</ele>
        <time>2019-07-15T11:51:47Z</time>
      </trkpt>
      <trkpt lat="47.79067" lon="-3.5319">
        <ele>2</ele>
        <time>2019-07-15T11:51:48Z</time>
      </trkpt>
      <trkpt lat="47.79063" lon="-3.53191">
        <ele>2.3</ele>
        <time>2019-07-15T11:51:49Z</time>
      </trkpt>
      <trkpt lat="47.7906" lon="-3.53194">
        <ele>2.7</ele>
        <time>2019-07-15T11:51:50Z</time>
      </trkpt>
      <trkpt lat="47.79056" lon="-3.53196">
        <ele>2.9</ele>
        <time>2019-07-15T11:51:51Z</time>
      </trkpt>
      <trkpt lat="47.79052" lon="-3.53198">
        <ele>3.4</ele>
        <time>2019-07-15T11:51:52Z</time>
      </trkpt>
      <trkpt lat="47.79049" lon="-3.53199">
        <ele>3.9</ele>
        <time>2019-07-15T11:51:53Z</time>
      </trkpt>
      <trkpt lat="47.79046" lon="-3.53199">
        <ele>4.4</ele>
        <time>2019-07-15T11:51:54Z</time>
      </trkpt>
      <trkpt lat="47.79043" lon="-3.53198">
        <ele>4.9</ele>
        <time>2019-07-15T11:51:55Z</time>
      </trkpt>
      <trkpt lat="47.7904" lon="-3.53197">
        <ele>5.3</ele>
        <time>2019-07-15T11:51:56Z</time>
      </trkpt>
      <trkpt lat="47.79038" lon="-3.53196">
        <ele>5.6</ele>
        <time>2019-07-15T11:51:57Z</time>
      </trkpt>
      <trkpt lat="47.79035" lon="-3.53195">
        <ele>5.9</ele>
        <time>2019-07-15T11:51:58Z</time>
      </trkpt>
      <trkpt lat="47.79033" lon="-3.53193">
        <ele>6</ele>
        <time>2019-07-15T11:51:59Z</time>
      </trkpt>
      <trkpt lat="47.7903" lon="-3.5319">
        <ele>5.7</ele>
        <time>2019-07-15T11:52:00Z</time>
      </trkpt>
      <trkpt lat="47.79028" lon="-3.53187">
        <ele>5.4</ele>
        <time>2019-07-15T11:52:01Z</time>
      </trkpt>
      <trkpt lat="47.79026" lon="-3.53185">
        <ele>5.3</ele>
        <time>2019-07-15T11:52:02Z</time>
      </trkpt>
      <trkpt lat="47.79023" lon="-3.53183">
        <ele>5.3</ele>
        <time>2019-07-15T11:52:03Z</time>
      </trkpt>
      <trkpt lat="47.7902" lon="-3.53181">
        <ele>1</ele>
        <time>2019-07-15T11:52:04Z</time>
      </trkpt>
      <trkpt lat="47.79017" lon="-3.53179">
        <ele>1</ele>
        <time>2019-07-15T11:52:05Z</time>
      </trkpt>
      <trkpt lat="47.79015" lon="-3.53177">
        <ele>1</ele>
        <time>2019-07-15T11:52:06Z</time>
      </trkpt>
      <trkpt lat="47.79012" lon="-3.53175">
        <ele>1</ele>
        <time>2019-07-15T11:52:07Z</time>
      </trkpt>
      <trkpt lat="47.7901" lon="-3.53174">
        <ele>1</ele>
        <time>2019-07-15T11:52:08Z</time>
      </trkpt>
      <trkpt lat="47.79006" lon="-3.53173">
        <ele>1</ele>
        <time>2019-07-15T11:52:09Z</time>
      </trkpt>
      <trkpt lat="47.79003" lon="-3.53172">
        <ele>2</ele>
        <time>2019-07-15T11:52:10Z</time>
      </trkpt>
      <trkpt lat="47.79" lon="-3.5317">
        <ele>2</ele>
        <time>2019-07-15T11:52:11Z</time>
      </trkpt>
      <trkpt lat="47.78997" lon="-3.53169">
        <ele>2</ele>
        <time>2019-07-15T11:52:12Z</time>
      </trkpt>
      <trkpt lat="47.78994" lon="-3.53167">
        <ele>2</ele>
        <time>2019-07-15T11:52:13Z</time>
      </trkpt>
      <trkpt lat="47.78991" lon="-3.53165">
        <ele>2</ele>
        <time>2019-07-15T11:52:14Z</time>
      </trkpt>
      <trkpt lat="47.78988" lon="-3.53163">
        <ele>3</ele>
        <time>2019-07-15T11:52:15Z</time>
      </trkpt>
      <trkpt lat="47.78986" lon="-3.53161">
        <ele>3</ele>
        <time>2019-07-15T11:52:16Z</time>
      </trkpt>
      <trkpt lat="47.78984" lon="-3.5316">
        <ele>3</ele>
        <time>2019-07-15T11:52:17Z</time>
      </trkpt>
      <trkpt lat="47.78982" lon="-3.53157">
        <ele>3</ele>
        <time>2019-07-15T11:52:18Z</time>
      </trkpt>
      <trkpt lat="47.7898" lon="-3.53154">
        <ele>4</ele>
        <time>2019-07-15T11:52:19Z</time>
      </trkpt>
      <trkpt lat="47.78977" lon="-3.53151">
        <ele>4</ele>
        <time>2019-07-15T11:52:20Z</time>
      </trkpt>
      <trkpt lat="47.78974" lon="-3.53147">
        <ele>5</ele>
        <time>2019-07-15T11:52:21Z</time>
      </trkpt>
      <trkpt lat="47.7897" lon="-3.53144">
        <ele>5</ele>
        <time>2019-07-15T11:52:22Z</time>
      </trkpt>
      <trkpt lat="47.78967" lon="-3.53141">
        <ele>5</ele>
        <time>2019-07-15T11:52:23Z</time>
      </trkpt>
      <trkpt lat="47.78964" lon="-3.53138">
        <ele>5</ele>
        <time>2019-07-15T11:52:24Z</time>
      </trkpt>
      <trkpt lat="47.78961" lon="-3.53138">
        <ele>6</ele>
        <time>2019-07-15T11:52:25Z</time>
      </trkpt>
      <trkpt lat="47.78959" lon="-3.53137">
        <ele>6</ele>
        <time>2019-07-15T11:52:26Z</time>
      </trkpt>
      <trkpt lat="47.78957" lon="-3.53137">
        <ele>6</ele>
        <time>2019-07-15T11:52:27Z</time>
      </trkpt>
      <trkpt lat="47.78954" lon="-3.53137">
        <ele>6</ele>
        <time>2019-07-15T11:52:28Z</time>
      </trkpt>
      <trkpt lat="47.78952" lon="-3.53138">
        <ele>6</ele>
        <time>2019-07-15T11:52:29Z</time>
      </trkpt>
      <trkpt lat="47.78948" lon="-3.53138">
        <ele>6</ele>
        <time>2019-07-15T11:52:30Z</time>
      </trkpt>
      <trkpt lat="47.78945" lon="-3.53136">
        <ele>6</ele>
        <time>2019-07-15T11:52:31Z</time>
      </trkpt>
      <trkpt lat="47.78942" lon="-3.53135">
        <ele>6</ele>
        <time>2019-07-15T11:52:32Z</time>
      </trkpt>
      <trkpt lat="47.78938" lon="-3.53132">
        <ele>7</ele>
        <time>2019-07-15T11:52:33Z</time>
      </trkpt>
      <trkpt lat="47.78935" lon="-3.5313">
        <ele>7</ele>
        <time>2019-07-15T11:52:34Z</time>
      </trkpt>
      <trkpt lat="47.78933" lon="-3.53129">
        <ele>7</ele>
        <time>2019-07-15T11:52:35Z</time>
      </trkpt>
      <trkpt lat="47.78931" lon="-3.53128">
        <ele>7</ele>
        <time>2019-07-15T11:52:36Z</time>
      </trkpt>
      <trkpt lat="47.78928" lon="-3.53128">
        <ele>7</ele>
        <time>2019-07-15T11:52:37Z</time>
      </trkpt>
      <trkpt lat="47.78927" lon="-3.53126">
        <ele>7</ele>
        <time>2019-07-15T11:52:38Z</time>
      </trkpt>
      <trkpt lat="47.78925" lon="-3.53125">
        <ele>8</ele>
        <time>2019-07-15T11:52:39Z</time>
      </trkpt>
      <trkpt lat="47.78922" lon="-3.53124">
        <ele>8</ele>
        <time>2019-07-15T11:52:40Z</time>
      </trkpt>
      <trkpt lat="47.78919" lon="-3.53122">
        <ele>8</ele>
        <time>2019-07-15T11:52:41Z</time>
      </trkpt>
      <trkpt lat="47.78916" lon="-3.5312">
        <ele>8</ele>
        <time>2019-07-15T11:52:42Z</time>
      </trkpt>
      <trkpt lat="47.78914" lon="-3.53119">
        <ele>8</ele>
        <time>2019-07-15T11:52:43Z</time>
      </trkpt>
      <trkpt lat="47.78912" lon="-3.53119">
        <ele>8</ele>
        <time>2019-07-15T11:52:44Z</time>
      </trkpt>
      <trkpt lat="47.7891" lon="-3.53119">
        <ele>8</ele>
        <time>2019-07-15T11:52:45Z</time>
      </trkpt>
      <trkpt lat="47.78908" lon="-3.53118">
        <ele>9</ele>
        <time>2019-07-15T11:52:46Z</time>
      </trkpt>
      <trkpt lat="47.78906" lon="-3.53117">
        <ele>9</ele>
        <time>2019-07-15T11:52:47Z</time>
      </trkpt>
      <trkpt lat="47.78904" lon="-3.53116">
        <ele>9</ele>
        <time>2019-07-15T11:52:48Z</time>
      </trkpt>
      <trkpt lat="47.78902" lon="-3.53114">
        <ele>9</ele>
        <time>2019-07-15T11:52:49Z</time>
      </trkpt>
      <trkpt lat="47.789" lon="-3.53113">
        <ele>9</ele>
        <time>2019-07-15T11:52:50Z</time>
      </trkpt>
      <trkpt lat="47.78899" lon="-3.53112">
        <ele>9</ele>
        <time>2019-07-15T11:52:51Z</time>
      </trkpt>
      <trkpt lat="47.78897" lon="-3.53111">
        <ele>10</ele>
        <time>2019-07-15T11:52:52Z</time>
      </trkpt>
      <trkpt lat="47.78895" lon="-3.5311">
        <ele>10</ele>
        <time>2019-07-15T11:52:53Z</time>
      </trkpt>
      <trkpt lat="47.78894" lon="-3.53109">
        <ele>10</ele>
        <time>2019-07-15T11:52:54Z</time>
      </trkpt>
      <trkpt lat="47.78892" lon="-3.53108">
        <ele>10</ele>
        <time>2019-07-15T11:52:55Z</time>
      </trkpt>
      <trkpt lat="47.7889" lon="-3.53107">
        <ele>11</ele>
        <time>2019-07-15T11:52:56Z</time>
      </trkpt>
      <trkpt lat="47.78889" lon="-3.53106">
        <ele>11</ele>
        <time>2019-07-15T11:52:57Z</time>
      </trkpt>
      <trkpt lat="47.78888" lon="-3.53105">
        <ele>11</ele>
        <time>2019-07-15T11:52:58Z</time>
      </trkpt>
      <trkpt lat="47.78887" lon="-3.53105">
        <ele>11</ele>
        <time>2019-07-15T11:52:59Z</time>
      </trkpt>
      <trkpt lat="47.78885" lon="-3.53103">
        <ele>11</ele>
        <time>2019-07-15T11:53:00Z</time>
      </trkpt>
      <trkpt lat="47.78884" lon="-3.53102">
        <ele>12</ele>
        <time>2019-07-15T11:53:01Z</time>
      </trkpt>
      <trkpt lat="47.78883" lon="-3.53101">
        <ele>12</ele>
        <time>2019-07-15T11:53:02Z</time>
      </trkpt>
      <trkpt lat="47.78881" lon="-3.531">
        <ele>12</ele>
        <time>2019-07-15T11:53:03Z</time>
      </trkpt>
      <trkpt lat="47.7888" lon="-3.53098">
        <ele>12</ele>
        <time>2019-07-15T11:53:04Z</time>
      </trkpt>
      <trkpt lat="47.78878" lon="-3.53096">
        <ele>13</ele>
        <time>2019-07-15T11:53:05Z</time>
      </trkpt>
      <trkpt lat="47.78877" lon="-3.53094">
        <ele>13</ele>
        <time>2019-07-15T11:53:06Z</time>
      </trkpt>
      <trkpt lat="47.78875" lon="-3.53092">
        <ele>13</ele>
        <time>2019-07-15T11:53:07Z</time>
      </trkpt>
      <trkpt lat="47.78873" lon="-3.53089">
        <ele>14</ele>
        <time>2019-07-15T11:53:08Z</time>
      </trkpt>
      <trkpt lat="47.78871" lon="-3.53086">
        <ele>14</ele>
        <time>2019-07-15T11:53:09Z</time>
      </trkpt>
      <trkpt lat="47.78869" lon="-3.53083">
        <ele>14</ele>
        <time>2019-07-15T11:53:10Z</time>
      </trkpt>
      <trkpt lat="47.78868" lon="-3.5308">
        <ele>15</ele>
        <time>2019-07-15T11:53:11Z</time>
      </trkpt>
      <trkpt lat="47.78866" lon="-3.53076">
        <ele>15</ele>
        <time>2019-07-15T11:53:12Z</time>
      </trkpt>
      <trkpt lat="47.78863" lon="-3.53071">
        <ele>16</ele>
        <time>2019-07-15T11:53:13Z</time>
      </trkpt>
      <trkpt lat="47.78861" lon="-3.53065">
        <ele>16</ele>
        <time>2019-07-15T11:53:14Z</time>
      </trkpt>
      <trkpt lat="47.78858" lon="-3.53058">
        <ele>16</ele>
        <time>2019-07-15T11:53:15Z</time>
      </trkpt>
      <trkpt lat="47.78856" lon="-3.53049">
        <ele>17</ele>
        <time>2019-07-15T11:53:16Z</time>
      </trkpt>
      <trkpt lat="47.78853" lon="-3.5304">
        <ele>17</ele>
        <time>2019-07-15T11:53:17Z</time>
      </trkpt>
      <trkpt lat="47.78851" lon="-3.53033">
        <ele>17</ele>
        <time>2019-07-15T11:53:18Z</time>
      </trkpt>
      <trkpt lat="47.78849" lon="-3.53026">
        <ele>17</ele>
        <time>2019-07-15T11:53:19Z</time>
      </trkpt>
      <trkpt lat="47.78847" lon="-3.53017">
        <ele>17</ele>
        <time>2019-07-15T11:53:20Z</time>
      </trkpt>
      <trkpt lat="47.78844" lon="-3.5301">
        <ele>17</ele>
        <time>2019-07-15T11:53:21Z</time>
      </trkpt>
      <trkpt lat="47.78841" lon="-3.53005">
        <ele>17</ele>
        <time>2019-07-15T11:53:22Z</time>
      </trkpt>
      <trkpt lat="47.78839" lon="-3.53">
        <ele>17</ele>
        <time>2019-07-15T11:53:23Z</time>
      </trkpt>
      <trkpt lat="47.78836" lon="-3.52996">
        <ele>17</ele>
        <time>2019-07-15T11:53:24Z</time>
      </trkpt>
      <trkpt lat="47.78833" lon="-3.52991">
        <ele>17</ele>
        <time>2019-07-15T11:53:25Z</time>
      </trkpt>
      <trkpt lat="47.78831" lon="-3.52987">
        <ele>16</ele>
        <time>2019-07-15T11:53:26Z</time>
      </trkpt>
      <trkpt lat="47.78829" lon="-3.52983">
        <ele>16</ele>
        <time>2019-07-15T11:53:27Z</time>
      </trkpt>
      <trkpt lat="47.78825" lon="-3.52979">
        <ele>16</ele>
        <time>2019-07-15T11:53:28Z</time>
      </trkpt>
      <trkpt lat="47.7882" lon="-3.52977">
        <ele>15</ele>
        <time>2019-07-15T11:53:29Z</time>
      </trkpt>
      <trkpt lat="47.78815" lon="-3.52975">
        <ele>15</ele>
        <time>2019-07-15T11:53:30Z</time>
      </trkpt>
      <trkpt lat="47.7881" lon="-3.52972">
        <ele>15</ele>
        <time>2019-07-15T11:53:31Z</time>
      </trkpt>
      <trkpt lat="47.78805" lon="-3.52969">
        <ele>14</ele>
        <time>2019-07-15T11:53:32Z</time>
      </trkpt>
      <trkpt lat="47.78801" lon="-3.52967">
        <ele>14</ele>
        <time>2019-07-15T11:53:33Z</time>
      </trkpt>
      <trkpt lat="47.78797" lon="-3.52966">
        <ele>14</ele>
        <time>2019-07-15T11:53:34Z</time>
      </trkpt>
      <trkpt lat="47.78794" lon="-3.52965">
        <ele>14</ele>
        <time>2019-07-15T11:53:35Z</time>
      </trkpt>
      <trkpt lat="47.78792" lon="-3.52964">
        <ele>13</ele>
        <time>2019-07-15T11:53:36Z</time>
      </trkpt>
      <trkpt lat="47.78789" lon="-3.52963">
        <ele>13</ele>
        <time>2019-07-15T11:53:37Z</time>
      </trkpt>
      <trkpt lat="47.78786" lon="-3.52962">
        <ele>13</ele>
        <time>2019-07-15T11:53:38Z</time>
      </trkpt>
      <trkpt lat="47.78784" lon="-3.52961">
        <ele>13</ele>
        <time>2019-07-15T11:53:39Z</time>
      </trkpt>
      <trkpt lat="47.78781" lon="-3.5296">
        <ele>13</ele>
        <time>2019-07-15T11:53:40Z</time>
      </trkpt>
      <trkpt lat="47.7878" lon="-3.5296">
        <ele>12</ele>
        <time>2019-07-15T11:53:41Z</time>
      </trkpt>
      <trkpt lat="47.78778" lon="-3.52959">
        <ele>12</ele>
        <time>2019-07-15T11:53:42Z</time>
      </trkpt>
      <trkpt lat="47.78777" lon="-3.52958">
        <ele>12</ele>
        <time>2019-07-15T11:53:43Z</time>
      </trkpt>
      <trkpt lat="47.78776" lon="-3.52956">
        <ele>12</ele>
        <time>2019-07-15T11:53:44Z</time>
      </trkpt>
      <trkpt lat="47.78774" lon="-3.52955">
        <ele>11</ele>
        <time>2019-07-15T11:53:45Z</time>
      </trkpt>
      <trkpt lat="47.78773" lon="-3.52954">
        <ele>11</ele>
        <time>2019-07-15T11:53:46Z</time>
      </trkpt>
      <trkpt lat="47.78771" lon="-3.52952">
        <ele>11</ele>
        <time>2019-07-15T11:53:47Z</time>
      </trkpt>
      <trkpt lat="47.78769" lon="-3.52951">
        <ele>11</ele>
        <time>2019-07-15T11:53:48Z</time>
      </trkpt>
      <trkpt lat="47.78767" lon="-3.52949">
        <ele>11</ele>
        <time>2019-07-15T11:53:49Z</time>
      </trkpt>
      <trkpt lat="47.78765" lon="-3.52948">
        <ele>11</ele>
        <time>2019-07-15T11:53:50Z</time>
      </trkpt>
      <trkpt lat="47.78764" lon="-3.52946">
        <ele>11</ele>
        <time>2019-07-15T11:53:51Z</time>
      </trkpt>
      <trkpt lat="47.78763" lon="-3.52944">
        <ele>11</ele>
        <time>2019-07-15T11:53:52Z</time>
      </trkpt>
      <trkpt lat="47.78761" lon="-3.52942">
        <ele>11</ele>
        <time>2019-07-15T11:53:53Z</time>
      </trkpt>
      <trkpt lat="47.7876" lon="-3.52939">
        <ele>10</ele>
        <time>2019-07-15T11:53:54Z</time>
      </trkpt>
      <trkpt lat="47.78758" lon="-3.52937">
        <ele>10</ele>
        <time>2019-07-15T11:53:55Z</time>
      </trkpt>
      <trkpt lat="47.78757" lon="-3.52934">
        <ele>10</ele>
        <time>2019-07-15T11:53:56Z</time>
      </trkpt>
      <trkpt lat="47.78755" lon="-3.52931">
        <ele>10</ele>
        <time>2019-07-15T11:53:57Z</time>
      </trkpt>
      <trkpt lat="47.78754" lon="-3.52928">
        <ele>10</ele>
        <time>2019-07-15T11:53:58Z</time>
      </trkpt>
      <trkpt lat="47.78752" lon="-3.52924">
        <ele>10</ele>
        <time>2019-07-15T11:53:59Z</time>
      </trkpt>
      <trkpt lat="47.78751" lon="-3.5292">
        <ele>11</ele>
        <time>2019-07-15T11:54:00Z</time>
      </trkpt>
      <trkpt lat="47.78749" lon="-3.52916">
        <ele>11</ele>
        <time>2019-07-15T11:54:01Z</time>
      </trkpt>
      <trkpt lat="47.78747" lon="-3.52913">
        <ele>11</ele>
        <time>2019-07-15T11:54:02Z</time>
      </trkpt>
      <trkpt lat="47.78746" lon="-3.52909">
        <ele>11</ele>
        <time>2019-07-15T11:54:03Z</time>
      </trkpt>
      <trkpt lat="47.78744" lon="-3.52906">
        <ele>11</ele>
        <time>2019-07-15T11:54:04Z</time>
      </trkpt>
      <trkpt lat="47.78743" lon="-3.52903">
        <ele>11</ele>
        <time>2019-07-15T11:54:05Z</time>
      </trkpt>
      <trkpt lat="47.78741" lon="-3.529">
        <ele>12</ele>
        <time>2019-07-15T11:54:06Z</time>
      </trkpt>
      <trkpt lat="47.78739" lon="-3.52897">
        <ele>12</ele>
        <time>2019-07-15T11:54:07Z</time>
      </trkpt>
      <trkpt lat="47.78737" lon="-3.52893">
        <ele>12</ele>
        <time>2019-07-15T11:54:08Z</time>
      </trkpt>
      <trkpt lat="47.78736" lon="-3.52889">
        <ele>12</ele>
        <time>2019-07-15T11:54:09Z</time>
      </trkpt>
      <trkpt lat="47.78734" lon="-3.52884">
        <ele>12</ele>
        <time>2019-07-15T11:54:10Z</time>
      </trkpt>
      <trkpt lat="47.78732" lon="-3.52879">
        <ele>12</ele>
        <time>2019-07-15T11:54:11Z</time>
      </trkpt>
      <trkpt lat="47.7873" lon="-3.52875">
        <ele>12</ele>
        <time>2019-07-15T11:54:12Z</time>
      </trkpt>
      <trkpt lat="47.78728" lon="-3.52871">
        <ele>12</ele>
        <time>2019-07-15T11:54:13Z</time>
      </trkpt>
      <trkpt lat="47.78726" lon="-3.52866">
        <ele>12</ele>
        <time>2019-07-15T11:54:14Z</time>
      </trkpt>
      <trkpt lat="47.78724" lon="-3.52864">
        <ele>12</ele>
        <time>2019-07-15T11:54:15Z</time>
      </trkpt>
      <trkpt lat="47.78723" lon="-3.52862">
        <ele>12</ele>
        <time>2019-07-15T11:54:16Z</time>
      </trkpt>
      <trkpt lat="47.78721" lon="-3.5286">
        <ele>12</ele>
        <time>2019-07-15T11:54:17Z</time>
      </trkpt>
      <trkpt lat="47.7872" lon="-3.52859">
        <ele>12</ele>
        <time>2019-07-15T11:54:18Z</time>
      </trkpt>
      <trkpt lat="47.78718" lon="-3.52857">
        <ele>12</ele>
        <time>2019-07-15T11:54:19Z</time>
      </trkpt>
      <trkpt lat="47.78716" lon="-3.52856">
        <ele>12</ele>
        <time>2019-07-15T11:54:20Z</time>
      </trkpt>
      <trkpt lat="47.78715" lon="-3.52854">
        <ele>12</ele>
        <time>2019-07-15T11:54:21Z</time>
      </trkpt>
      <trkpt lat="47.78713" lon="-3.52852">
        <ele>13</ele>
        <time>2019-07-15T11:54:22Z</time>
      </trkpt>
      <trkpt lat="47.78712" lon="-3.5285">
        <ele>13</ele>
        <time>2019-07-15T11:54:23Z</time>
      </trkpt>
      <trkpt lat="47.78709" lon="-3.52847">
        <ele>13</ele>
        <time>2019-07-15T11:54:24Z</time>
      </trkpt>
      <trkpt lat="47.78707" lon="-3.52845">
        <ele>13</ele>
        <time>2019-07-15T11:54:25Z</time>
      </trkpt>
      <trkpt lat="47.78706" lon="-3.52843">
        <ele>13</ele>
        <time>2019-07-15T11:54:26Z</time>
      </trkpt>
      <trkpt lat="47.78704" lon="-3.5284">
        <ele>13</ele>
        <time>2019-07-15T11:54:27Z</time>
      </trkpt>
      <trkpt lat="47.78702" lon="-3.52838">
        <ele>13</ele>
        <time>2019-07-15T11:54:28Z</time>
      </trkpt>
      <trkpt lat="47.787" lon="-3.52836">
        <ele>13</ele>
        <time>2019-07-15T11:54:29Z</time>
      </trkpt>
      <trkpt lat="47.78697" lon="-3.52834">
        <ele>13</ele>
        <time>2019-07-15T11:54:30Z</time>
      </trkpt>
      <trkpt lat="47.78694" lon="-3.52833">
        <ele>13</ele>
        <time>2019-07-15T11:54:31Z</time>
      </trkpt>
      <trkpt lat="47.7869" lon="-3.52831">
        <ele>13</ele>
        <time>2019-07-15T11:54:32Z</time>
      </trkpt>
      <trkpt lat="47.78685" lon="-3.52829">
        <ele>13</ele>
        <time>2019-07-15T11:54:33Z</time>
      </trkpt>
      <trkpt lat="47.78679" lon="-3.52828">
        <ele>13</ele>
        <time>2019-07-15T11:54:34Z</time>
      </trkpt>
      <trkpt lat="47.78673" lon="-3.52827">
        <ele>13</ele>
        <time>2019-07-15T11:54:35Z</time>
      </trkpt>
      <trkpt lat="47.78666" lon="-3.52827">
        <ele>13</ele>
        <time>2019-07-15T11:54:36Z</time>
      </trkpt>
      <trkpt lat="47.7866" lon="-3.52828">
        <ele>13</ele>
        <time>2019-07-15T11:54:37Z</time>
      </trkpt>
      <trkpt lat="47.78653" lon="-3.5283">
        <ele>12</ele>
        <time>2019-07-15T11:54:38Z</time>
      </trkpt>
      <trkpt lat="47.78646" lon="-3.52832">
        <ele>12</ele>
        <time>2019-07-15T11:54:39Z</time>
      </trkpt>
      <trkpt lat="47.78639" lon="-3.52834">
        <ele>12</ele>
        <time>2019-07-15T11:54:40Z</time>
      </trkpt>
      <trkpt lat="47.78631" lon="-3.52837">
        <ele>12</ele>
        <time>2019-07-15T11:54:41Z</time>
      </trkpt>
      <trkpt lat="47.78624" lon="-3.52838">
        <ele>11</ele>
        <time>2019-07-15T11:54:42Z</time>
      </trkpt>
      <trkpt lat="47.78617" lon="-3.5284">
        <ele>11</ele>
        <time>2019-07-15T11:54:43Z</time>
      </trkpt>
      <trkpt lat="47.78611" lon="-3.52843">
        <ele>10</ele>
        <time>2019-07-15T11:54:44Z</time>
      </trkpt>
      <trkpt lat="47.78606" lon="-3.52844">
        <ele>10</ele>
        <time>2019-07-15T11:54:45Z</time>
      </trkpt>
      <trkpt lat="47.78602" lon="-3.52846">
        <ele>10</ele>
        <time>2019-07-15T11:54:46Z</time>
      </trkpt>
      <trkpt lat="47.78599" lon="-3.52847">
        <ele>9</ele>
        <time>2019-07-15T11:54:47Z</time>
      </trkpt>
      <trkpt lat="47.78596" lon="-3.52849">
        <ele>9</ele>
        <time>2019-07-15T11:54:48Z</time>
      </trkpt>
      <trkpt lat="47.78593" lon="-3.52851">
        <ele>9</ele>
        <time>2019-07-15T11:54:49Z</time>
      </trkpt>
      <trkpt lat="47.7859" lon="-3.52853">
        <ele>9</ele>
        <time>2019-07-15T11:54:50Z</time>
      </trkpt>
      <trkpt lat="47.78588" lon="-3.52855">
        <ele>9</ele>
        <time>2019-07-15T11:54:51Z</time>
      </trkpt>
      <trkpt lat="47.78586" lon="-3.52856">
        <ele>9</ele>
        <time>2019-07-15T11:54:52Z</time>
      </trkpt>
      <trkpt lat="47.78583" lon="-3.52859">
        <ele>9</ele>
        <time>2019-07-15T11:54:53Z</time>
      </trkpt>
      <trkpt lat="47.78581" lon="-3.5286">
        <ele>9</ele>
        <time>2019-07-15T11:54:54Z</time>
      </trkpt>
      <trkpt lat="47.78578" lon="-3.52862">
        <ele>9</ele>
        <time>2019-07-15T11:54:55Z</time>
      </trkpt>
      <trkpt lat="47.78576" lon="-3.52865">
        <ele>9</ele>
        <time>2019-07-15T11:54:56Z</time>
      </trkpt>
      <trkpt lat="47.78573" lon="-3.52867">
        <ele>9</ele>
        <time>2019-07-15T11:54:57Z</time>
      </trkpt>
      <trkpt lat="47.7857" lon="-3.52869">
        <ele>9</ele>
        <time>2019-07-15T11:54:58Z</time>
      </trkpt>
      <trkpt lat="47.78568" lon="-3.52871">
        <ele>9</ele>
        <time>2019-07-15T11:54:59Z</time>
      </trkpt>
      <trkpt lat="47.78565" lon="-3.52874">
        <ele>9</ele>
        <time>2019-07-15T11:55:00Z</time>
      </trkpt>
      <trkpt lat="47.78563" lon="-3.52877">
        <ele>9</ele>
        <time>2019-07-15T11:55:01Z</time>
      </trkpt>
      <trkpt lat="47.78561" lon="-3.5288">
        <ele>9</ele>
        <time>2019-07-15T11:55:02Z</time>
      </trkpt>
      <trkpt lat="47.7856" lon="-3.52882">
        <ele>9</ele>
        <time>2019-07-15T11:55:03Z</time>
      </trkpt>
      <trkpt lat="47.78559" lon="-3.52884">
        <ele>9</ele>
        <time>2019-07-15T11:55:04Z</time>
      </trkpt>
      <trkpt lat="47.78557" lon="-3.52887">
        <ele>9</ele>
        <time>2019-07-15T11:55:05Z</time>
      </trkpt>
      <trkpt lat="47.78554" lon="-3.52891">
        <ele>9</ele>
        <time>2019-07-15T11:55:06Z</time>
      </trkpt>
      <trkpt lat="47.78553" lon="-3.52893">
        <ele>9</ele>
        <time>2019-07-15T11:55:07Z</time>
      </trkpt>
      <trkpt lat="47.78551" lon="-3.52897">
        <ele>9</ele>
        <time>2019-07-15T11:55:08Z</time>
      </trkpt>
      <trkpt lat="47.7855" lon="-3.529">
        <ele>10</ele>
        <time>2019-07-15T11:55:09Z</time>
      </trkpt>
      <trkpt lat="47.78549" lon="-3.52903">
        <ele>10</ele>
        <time>2019-07-15T11:55:10Z</time>
      </trkpt>
      <trkpt lat="47.78548" lon="-3.52906">
        <ele>10</ele>
        <time>2019-07-15T11:55:11Z</time>
      </trkpt>
      <trkpt lat="47.78547" lon="-3.5291">
        <ele>10</ele>
        <time>2019-07-15T11:55:12Z</time>
      </trkpt>
      <trkpt lat="47.78546" lon="-3.52914">
        <ele>10</ele>
        <time>2019-07-15T11:55:13Z</time>
      </trkpt>
      <trkpt lat="47.78546" lon="-3.52917">
        <ele>11</ele>
        <time>2019-07-15T11:55:14Z</time>
      </trkpt>
      <trkpt lat="47.78544" lon="-3.5292">
        <ele>11</ele>
        <time>2019-07-15T11:55:15Z</time>
      </trkpt>
      <trkpt lat="47.78542" lon="-3.52924">
        <ele>11</ele>
        <time>2019-07-15T11:55:16Z</time>
      </trkpt>
      <trkpt lat="47.7854" lon="-3.52927">
        <ele>11</ele>
        <time>2019-07-15T11:55:17Z</time>
      </trkpt>
      <trkpt lat="47.78537" lon="-3.52931">
        <ele>11</ele>
        <time>2019-07-15T11:55:18Z</time>
      </trkpt>
      <trkpt lat="47.78534" lon="-3.52935">
        <ele>11</ele>
        <time>2019-07-15T11:55:19Z</time>
      </trkpt>
      <trkpt lat="47.78531" lon="-3.52941">
        <ele>11</ele>
        <time>2019-07-15T11:55:20Z</time>
      </trkpt>
      <trkpt lat="47.78527" lon="-3.52945">
        <ele>11</ele>
        <time>2019-07-15T11:55:21Z</time>
      </trkpt>
      <trkpt lat="47.78523" lon="-3.5295">
        <ele>12</ele>
        <time>2019-07-15T11:55:22Z</time>
      </trkpt>
      <trkpt lat="47.7852" lon="-3.52956">
        <ele>12</ele>
        <time>2019-07-15T11:55:23Z</time>
      </trkpt>
      <trkpt lat="47.78516" lon="-3.52961">
        <ele>12</ele>
        <time>2019-07-15T11:55:24Z</time>
      </trkpt>
      <trkpt lat="47.78513" lon="-3.52965">
        <ele>12</ele>
        <time>2019-07-15T11:55:25Z</time>
      </trkpt>
      <trkpt lat="47.78509" lon="-3.52969">
        <ele>12</ele>
        <time>2019-07-15T11:55:26Z</time>
      </trkpt>
      <trkpt lat="47.78506" lon="-3.52973">
        <ele>12</ele>
        <time>2019-07-15T11:55:27Z</time>
      </trkpt>
      <trkpt lat="47.78503" lon="-3.52976">
        <ele>12</ele>
        <time>2019-07-15T11:55:28Z</time>
      </trkpt>
      <trkpt lat="47.785" lon="-3.5298">
        <ele>12</ele>
        <time>2019-07-15T11:55:29Z</time>
      </trkpt>
      <trkpt lat="47.78497" lon="-3.52984">
        <ele>12</ele>
        <time>2019-07-15T11:55:30Z</time>
      </trkpt>
      <trkpt lat="47.78494" lon="-3.52987">
        <ele>12</ele>
        <time>2019-07-15T11:55:31Z</time>
      </trkpt>
      <trkpt lat="47.78492" lon="-3.52991">
        <ele>12</ele>
        <time>2019-07-15T11:55:32Z</time>
      </trkpt>
      <trkpt lat="47.7849" lon="-3.52995">
        <ele>12</ele>
        <time>2019-07-15T11:55:33Z</time>
      </trkpt>
      <trkpt lat="47.78488" lon="-3.52999">
        <ele>12</ele>
        <time>2019-07-15T11:55:34Z</time>
      </trkpt>
      <trkpt lat="47.78485" lon="-3.53004">
        <ele>12</ele>
        <time>2019-07-15T11:55:35Z</time>
      </trkpt>
      <trkpt lat="47.78481" lon="-3.53008">
        <ele>12</ele>
        <time>2019-07-15T11:55:36Z</time>
      </trkpt>
      <trkpt lat="47.78478" lon="-3.53012">
        <ele>12</ele>
        <time>2019-07-15T11:55:37Z</time>
      </trkpt>
      <trkpt lat="47.78474" lon="-3.53017">
        <ele>12</ele>
        <time>2019-07-15T11:55:38Z</time>
      </trkpt>
      <trkpt lat="47.7847" lon="-3.53023">
        <ele>12</ele>
        <time>2019-07-15T11:55:39Z</time>
      </trkpt>
      <trkpt lat="47.78467" lon="-3.53028">
        <ele>12</ele>
        <time>2019-07-15T11:55:40Z</time>
      </trkpt>
      <trkpt lat="47.78464" lon="-3.53032">
        <ele>12</ele>
        <time>2019-07-15T11:55:41Z</time>
      </trkpt>
      <trkpt lat="47.78462" lon="-3.53037">
        <ele>12</ele>
        <time>2019-07-15T11:55:42Z</time>
      </trkpt>
      <trkpt lat="47.78462" lon="-3.5304">
        <ele>11</ele>
        <time>2019-07-15T11:55:43Z</time>
      </trkpt>
      <trkpt lat="47.78461" lon="-3.53043">
        <ele>11</ele>
        <time>2019-07-15T11:55:44Z</time>
      </trkpt>
      <trkpt lat="47.78461" lon="-3.53045">
        <ele>11</ele>
        <time>2019-07-15T11:55:45Z</time>
      </trkpt>
      <trkpt lat="47.7846" lon="-3.53048">
        <ele>11</ele>
        <time>2019-07-15T11:55:46Z</time>
      </trkpt>
      <trkpt lat="47.7846" lon="-3.53051">
        <ele>11</ele>
        <time>2019-07-15T11:55:47Z</time>
      </trkpt>
      <trkpt lat="47.78459" lon="-3.53054">
        <ele>11</ele>
        <time>2019-07-15T11:55:48Z</time>
      </trkpt>
      <trkpt lat="47.78458" lon="-3.53057">
        <ele>11</ele>
        <time>2019-07-15T11:55:49Z</time>
      </trkpt>
      <trkpt lat="47.78457" lon="-3.53059">
        <ele>11</ele>
        <time>2019-07-15T11:55:50Z</time>
      </trkpt>
      <trkpt lat="47.78455" lon="-3.53063">
        <ele>11</ele>
        <time>2019-07-15T11:55:51Z</time>
      </trkpt>
      <trkpt lat="47.78453" lon="-3.53067">
        <ele>11</ele>
        <time>2019-07-15T11:55:52Z</time>
      </trkpt>
      <trkpt lat="47.78452" lon="-3.53071">
        <ele>11</ele>
        <time>2019-07-15T11:55:53Z</time>
      </trkpt>
      <trkpt lat="47.7845" lon="-3.53075">
        <ele>11</ele>
        <time>2019-07-15T11:55:54Z</time>
      </trkpt>
      <trkpt lat="47.78448" lon="-3.53079">
        <ele>11</ele>
        <time>2019-07-15T11:55:55Z</time>
      </trkpt>
      <trkpt lat="47.78446" lon="-3.53082">
        <ele>11</ele>
        <time>2019-07-15T11:55:56Z</time>
      </trkpt>
      <trkpt lat="47.78445" lon="-3.53086">
        <ele>11</ele>
        <time>2019-07-15T11:55:57Z</time>
      </trkpt>
      <trkpt lat="47.78443" lon="-3.5309">
        <ele>11</ele>
        <time>2019-07-15T11:55:58Z</time>
      </trkpt>
      <trkpt lat="47.78441" lon="-3.53094">
        <ele>11</ele>
        <time>2019-07-15T11:55:59Z</time>
      </trkpt>
      <trkpt lat="47.78439" lon="-3.53097">
        <ele>11</ele>
        <time>2019-07-15T11:56:00Z</time>
      </trkpt>
      <trkpt lat="47.78438" lon="-3.531">
        <ele>11</ele>
        <time>2019-07-15T11:56:01Z</time>
      </trkpt>
      <trkpt lat="47.78436" lon="-3.53104">
        <ele>11</ele>
        <time>2019-07-15T11:56:02Z</time>
      </trkpt>
      <trkpt lat="47.78434" lon="-3.53107">
        <ele>11</ele>
        <time>2019-07-15T11:56:03Z</time>
      </trkpt>
      <trkpt lat="47.78431" lon="-3.5311">
        <ele>11</ele>
        <time>2019-07-15T11:56:04Z</time>
      </trkpt>
      <trkpt lat="47.78429" lon="-3.53113">
        <ele>11</ele>
        <time>2019-07-15T11:56:05Z</time>
      </trkpt>
      <trkpt lat="47.78426" lon="-3.53117">
        <ele>11</ele>
        <time>2019-07-15T11:56:06Z</time>
      </trkpt>
      <trkpt lat="47.78422" lon="-3.5312">
        <ele>11</ele>
        <time>2019-07-15T11:56:07Z</time>
      </trkpt>
      <trkpt lat="47.78418" lon="-3.53124">
        <ele>11</ele>
        <time>2019-07-15T11:56:08Z</time>
      </trkpt>
      <trkpt lat="47.78414" lon="-3.53127">
        <ele>11</ele>
        <time>2019-07-15T11:56:09Z</time>
      </trkpt>
      <trkpt lat="47.7841" lon="-3.53131">
        <ele>11</ele>
        <time>2019-07-15T11:56:10Z</time>
      </trkpt>
      <trkpt lat="47.78405" lon="-3.53134">
        <ele>11</ele>
        <time>2019-07-15T11:56:11Z</time>
      </trkpt>
      <trkpt lat="47.78401" lon="-3.53138">
        <ele>11</ele>
        <time>2019-07-15T11:56:12Z</time>
      </trkpt>
      <trkpt lat="47.78396" lon="-3.53141">
        <ele>11</ele>
        <time>2019-07-15T11:56:13Z</time>
      </trkpt>
      <trkpt lat="47.78392" lon="-3.53145">
        <ele>11</ele>
        <time>2019-07-15T11:56:14Z</time>
      </trkpt>
      <trkpt lat="47.78387" lon="-3.53149">
        <ele>10</ele>
        <time>2019-07-15T11:56:15Z</time>
      </trkpt>
      <trkpt lat="47.78382" lon="-3.53152">
        <ele>10</ele>
        <time>2019-07-15T11:56:16Z</time>
      </trkpt>
      <trkpt lat="47.78378" lon="-3.53155">
        <ele>10</ele>
        <time>2019-07-15T11:56:17Z</time>
      </trkpt>
      <trkpt lat="47.78374" lon="-3.53158">
        <ele>10</ele>
        <time>2019-07-15T11:56:18Z</time>
      </trkpt>
      <trkpt lat="47.7837" lon="-3.53161">
        <ele>10</ele>
        <time>2019-07-15T11:56:19Z</time>
      </trkpt>
      <trkpt lat="47.78367" lon="-3.53164">
        <ele>10</ele>
        <time>2019-07-15T11:56:20Z</time>
      </trkpt>
      <trkpt lat="47.78365" lon="-3.53168">
        <ele>10</ele>
        <time>2019-07-15T11:56:21Z</time>
      </trkpt>
      <trkpt lat="47.78363" lon="-3.53171">
        <ele>10</ele>
        <time>2019-07-15T11:56:22Z</time>
      </trkpt>
      <trkpt lat="47.78362" lon="-3.53174">
        <ele>10</ele>
        <time>2019-07-15T11:56:23Z</time>
      </trkpt>
      <trkpt lat="47.78361" lon="-3.53177">
        <ele>10</ele>
        <time>2019-07-15T11:56:24Z</time>
      </trkpt>
      <trkpt lat="47.7836" lon="-3.53181">
        <ele>10</ele>
        <time>2019-07-15T11:56:25Z</time>
      </trkpt>
      <trkpt lat="47.78358" lon="-3.53185">
        <ele>10</ele>
        <time>2019-07-15T11:56:26Z</time>
      </trkpt>
      <trkpt lat="47.78357" lon="-3.53189">
        <ele>10</ele>
        <time>2019-07-15T11:56:27Z</time>
      </trkpt>
      <trkpt lat="47.78357" lon="-3.53192">
        <ele>10</ele>
        <time>2019-07-15T11:56:28Z</time>
      </trkpt>
      <trkpt lat="47.78356" lon="-3.53195">
        <ele>10</ele>
        <time>2019-07-15T11:56:29Z</time>
      </trkpt>
      <trkpt lat="47.78356" lon="-3.53198">
        <ele>10</ele>
        <time>2019-07-15T11:56:30Z</time>
      </trkpt>
      <trkpt lat="47.78356" lon="-3.532">
        <ele>10</ele>
        <time>2019-07-15T11:56:31Z</time>
      </trkpt>
      <trkpt lat="47.78356" lon="-3.53202">
        <ele>10</ele>
        <time>2019-07-15T11:56:32Z</time>
      </trkpt>
      <trkpt lat="47.78355" lon="-3.53205">
        <ele>10</ele>
        <time>2019-07-15T11:56:33Z</time>
      </trkpt>
      <trkpt lat="47.78354" lon="-3.53208">
        <ele>10</ele>
        <time>2019-07-15T11:56:34Z</time>
      </trkpt>
      <trkpt lat="47.78353" lon="-3.53211">
        <ele>10</ele>
        <time>2019-07-15T11:56:35Z</time>
      </trkpt>
      <trkpt lat="47.78352" lon="-3.53212">
        <ele>10</ele>
        <time>2019-07-15T11:56:36Z</time>
      </trkpt>
      <trkpt lat="47.7835" lon="-3.53215">
        <ele>10</ele>
        <time>2019-07-15T11:56:37Z</time>
      </trkpt>
      <trkpt lat="47.78349" lon="-3.53217">
        <ele>10</ele>
        <time>2019-07-15T11:56:38Z</time>
      </trkpt>
      <trkpt lat="47.78347" lon="-3.53219">
        <ele>10</ele>
        <time>2019-07-15T11:56:39Z</time>
      </trkpt>
      <trkpt lat="47.78346" lon="-3.5322">
        <ele>10</ele>
        <time>2019-07-15T11:56:40Z</time>
      </trkpt>
      <trkpt lat="47.78345" lon="-3.53221">
        <ele>10</ele>
        <time>2019-07-15T11:56:41Z</time>
      </trkpt>
      <trkpt lat="47.78345" lon="-3.53221">
        <ele>10</ele>
        <time>2019-07-15T11:56:42Z</time>
      </trkpt>
      <trkpt lat="47.78345" lon="-3.53221">
        <ele>10</ele>
        <time>2019-07-15T11:56:43Z</time>
      </trkpt>
      <trkpt lat="47.7834" lon="-3.53247">
        <ele>7</ele>
        <time>2019-07-15T11:56:44Z</time>
      </trkpt>
      <trkpt lat="47.7834" lon="-3.53249">
        <ele>7</ele>
        <time>2019-07-15T11:56:45Z</time>
      </trkpt>
      <trkpt lat="47.7834" lon="-3.5325">
        <ele>7</ele>
        <time>2019-07-15T11:56:46Z</time>
      </trkpt>
      <trkpt lat="47.78341" lon="-3.53251">
        <ele>7</ele>
        <time>2019-07-15T11:56:47Z</time>
      </trkpt>
      <trkpt lat="47.78341" lon="-3.53253">
        <ele>7</ele>
        <time>2019-07-15T11:56:48Z</time>
      </trkpt>
      <trkpt lat="47.78342" lon="-3.53255">
        <ele>7</ele>
        <time>2019-07-15T11:56:49Z</time>
      </trkpt>
      <trkpt lat="47.78342" lon="-3.53258">
        <ele>7</ele>
        <time>2019-07-15T11:56:50Z</time>
      </trkpt>
      <trkpt lat="47.78343" lon="-3.5326">
        <ele>7</ele>
        <time>2019-07-15T11:56:51Z</time>
      </trkpt>
      <trkpt lat="47.78344" lon="-3.53262">
        <ele>8</ele>
        <time>2019-07-15T11:56:52Z</time>
      </trkpt>
      <trkpt lat="47.78345" lon="-3.53263">
        <ele>8</ele>
        <time>2019-07-15T11:56:53Z</time>
      </trkpt>
      <trkpt lat="47.78346" lon="-3.53266">
        <ele>8</ele>
        <time>2019-07-15T11:56:54Z</time>
      </trkpt>
      <trkpt lat="47.78346" lon="-3.53269">
        <ele>8</ele>
        <time>2019-07-15T11:56:55Z</time>
      </trkpt>
      <trkpt lat="47.78347" lon="-3.53272">
        <ele>8</ele>
        <time>2019-07-15T11:56:56Z</time>
      </trkpt>
      <trkpt lat="47.78347" lon="-3.53274">
        <ele>8</ele>
        <time>2019-07-15T11:56:57Z</time>
      </trkpt>
      <trkpt lat="47.78347" lon="-3.53276">
        <ele>8</ele>
        <time>2019-07-15T11:56:58Z</time>
      </trkpt>
      <trkpt lat="47.78348" lon="-3.53278">
        <ele>8</ele>
        <time>2019-07-15T11:56:59Z</time>
      </trkpt>
      <trkpt lat="47.78349" lon="-3.53281">
        <ele>8</ele>
        <time>2019-07-15T11:57:00Z</time>
      </trkpt>
      <trkpt lat="47.7835" lon="-3.53283">
        <ele>8</ele>
        <time>2019-07-15T11:57:01Z</time>
      </trkpt>
      <trkpt lat="47.78352" lon="-3.53286">
        <ele>8</ele>
        <time>2019-07-15T11:57:02Z</time>
      </trkpt>
      <trkpt lat="47.78353" lon="-3.53289">
        <ele>9</ele>
        <time>2019-07-15T11:57:03Z</time>
      </trkpt>
      <trkpt lat="47.78354" lon="-3.53292">
        <ele>9</ele>
        <time>2019-07-15T11:57:04Z</time>
      </trkpt>
      <trkpt lat="47.78355" lon="-3.53294">
        <ele>9</ele>
        <time>2019-07-15T11:57:05Z</time>
      </trkpt>
      <trkpt lat="47.78355" lon="-3.53297">
        <ele>9</ele>
        <time>2019-07-15T11:57:06Z</time>
      </trkpt>
      <trkpt lat="47.78356" lon="-3.533">
        <ele>10</ele>
        <time>2019-07-15T11:57:07Z</time>
      </trkpt>
      <trkpt lat="47.78357" lon="-3.53304">
        <ele>10</ele>
        <time>2019-07-15T11:57:08Z</time>
      </trkpt>
      <trkpt lat="47.78358" lon="-3.53306">
        <ele>10</ele>
        <time>2019-07-15T11:57:09Z</time>
      </trkpt>
      <trkpt lat="47.78359" lon="-3.53309">
        <ele>10</ele>
        <time>2019-07-15T11:57:10Z</time>
      </trkpt>
      <trkpt lat="47.7836" lon="-3.53313">
        <ele>11</ele>
        <time>2019-07-15T11:57:11Z</time>
      </trkpt>
      <trkpt lat="47.78361" lon="-3.53316">
        <ele>11</ele>
        <time>2019-07-15T11:57:12Z</time>
      </trkpt>
      <trkpt lat="47.78362" lon="-3.5332">
        <ele>11</ele>
        <time>2019-07-15T11:57:13Z</time>
      </trkpt>
      <trkpt lat="47.78363" lon="-3.53322">
        <ele>11</ele>
        <time>2019-07-15T11:57:14Z</time>
      </trkpt>
      <trkpt lat="47.78364" lon="-3.53325">
        <ele>12</ele>
        <time>2019-07-15T11:57:15Z</time>
      </trkpt>
      <trkpt lat="47.78366" lon="-3.53328">
        <ele>12</ele>
        <time>2019-07-15T11:57:16Z</time>
      </trkpt>
      <trkpt lat="47.78367" lon="-3.53331">
        <ele>12</ele>
        <time>2019-07-15T11:57:17Z</time>
      </trkpt>
      <trkpt lat="47.78368" lon="-3.53335">
        <ele>12</ele>
        <time>2019-07-15T11:57:18Z</time>
      </trkpt>
      <trkpt lat="47.7837" lon="-3.53338">
        <ele>12</ele>
        <time>2019-07-15T11:57:19Z</time>
      </trkpt>
      <trkpt lat="47.78371" lon="-3.53342">
        <ele>12</ele>
        <time>2019-07-15T11:57:20Z</time>
      </trkpt>
      <trkpt lat="47.78372" lon="-3.53346">
        <ele>12</ele>
        <time>2019-07-15T11:57:21Z</time>
      </trkpt>
      <trkpt lat="47.78373" lon="-3.5335">
        <ele>12</ele>
        <time>2019-07-15T11:57:22Z</time>
      </trkpt>
      <trkpt lat="47.78373" lon="-3.53354">
        <ele>12</ele>
        <time>2019-07-15T11:57:23Z</time>
      </trkpt>
      <trkpt lat="47.78375" lon="-3.53357">
        <ele>12</ele>
        <time>2019-07-15T11:57:24Z</time>
      </trkpt>
      <trkpt lat="47.78376" lon="-3.53361">
        <ele>12</ele>
        <time>2019-07-15T11:57:25Z</time>
      </trkpt>
      <trkpt lat="47.78377" lon="-3.53364">
        <ele>12</ele>
        <time>2019-07-15T11:57:26Z</time>
      </trkpt>
      <trkpt lat="47.78378" lon="-3.53368">
        <ele>12</ele>
        <time>2019-07-15T11:57:27Z</time>
      </trkpt>
      <trkpt lat="47.78379" lon="-3.53371">
        <ele>12</ele>
        <time>2019-07-15T11:57:28Z</time>
      </trkpt>
      <trkpt lat="47.7838" lon="-3.53375">
        <ele>13</ele>
        <time>2019-07-15T11:57:29Z</time>
      </trkpt>
      <trkpt lat="47.78382" lon="-3.53378">
        <ele>13</ele>
        <time>2019-07-15T11:57:30Z</time>
      </trkpt>
      <trkpt lat="47.78383" lon="-3.53381">
        <ele>13</ele>
        <time>2019-07-15T11:57:31Z</time>
      </trkpt>
      <trkpt lat="47.78384" lon="-3.53385">
        <ele>13</ele>
        <time>2019-07-15T11:57:32Z</time>
      </trkpt>
      <trkpt lat="47.78385" lon="-3.53388">
        <ele>14</ele>
        <time>2019-07-15T11:57:33Z</time>
      </trkpt>
      <trkpt lat="47.78386" lon="-3.53391">
        <ele>14</ele>
        <time>2019-07-15T11:57:34Z</time>
      </trkpt>
      <trkpt lat="47.78387" lon="-3.53394">
        <ele>15</ele>
        <time>2019-07-15T11:57:35Z</time>
      </trkpt>
      <trkpt lat="47.78389" lon="-3.53398">
        <ele>15</ele>
        <time>2019-07-15T11:57:36Z</time>
      </trkpt>
      <trkpt lat="47.7839" lon="-3.53401">
        <ele>15</ele>
        <time>2019-07-15T11:57:37Z</time>
      </trkpt>
      <trkpt lat="47.78392" lon="-3.53404">
        <ele>15</ele>
        <time>2019-07-15T11:57:38Z</time>
      </trkpt>
      <trkpt lat="47.78393" lon="-3.53407">
        <ele>16</ele>
        <time>2019-07-15T11:57:39Z</time>
      </trkpt>
      <trkpt lat="47.78394" lon="-3.5341">
        <ele>16</ele>
        <time>2019-07-15T11:57:40Z</time>
      </trkpt>
      <trkpt lat="47.78395" lon="-3.53413">
        <ele>16</ele>
        <time>2019-07-15T11:57:41Z</time>
      </trkpt>
      <trkpt lat="47.78396" lon="-3.53417">
        <ele>16</ele>
        <time>2019-07-15T11:57:42Z</time>
      </trkpt>
      <trkpt lat="47.78396" lon="-3.53419">
        <ele>16</ele>
        <time>2019-07-15T11:57:43Z</time>
      </trkpt>
      <trkpt lat="47.78397" lon="-3.53424">
        <ele>17</ele>
        <time>2019-07-15T11:57:44Z</time>
      </trkpt>
      <trkpt lat="47.78397" lon="-3.53427">
        <ele>17</ele>
        <time>2019-07-15T11:57:45Z</time>
      </trkpt>
      <trkpt lat="47.78397" lon="-3.53431">
        <ele>17</ele>
        <time>2019-07-15T11:57:46Z</time>
      </trkpt>
      <trkpt lat="47.78398" lon="-3.53435">
        <ele>17</ele>
        <time>2019-07-15T11:57:47Z</time>
      </trkpt>
      <trkpt lat="47.78398" lon="-3.53438">
        <ele>18</ele>
        <time>2019-07-15T11:57:48Z</time>
      </trkpt>
      <trkpt lat="47.78398" lon="-3.53441">
        <ele>18</ele>
        <time>2019-07-15T11:57:49Z</time>
      </trkpt>
      <trkpt lat="47.78398" lon="-3.53445">
        <ele>18</ele>
        <time>2019-07-15T11:57:50Z</time>
      </trkpt>
      <trkpt lat="47.78398" lon="-3.53448">
        <ele>19</ele>
        <time>2019-07-15T11:57:51Z</time>
      </trkpt>
      <trkpt lat="47.78398" lon="-3.53451">
        <ele>19</ele>
        <time>2019-07-15T11:57:52Z</time>
      </trkpt>
      <trkpt lat="47.78398" lon="-3.53455">
        <ele>19</ele>
        <time>2019-07-15T11:57:53Z</time>
      </trkpt>
      <trkpt lat="47.78398" lon="-3.53459">
        <ele>19</ele>
        <time>2019-07-15T11:57:54Z</time>
      </trkpt>
      <trkpt lat="47.78397" lon="-3.53462">
        <ele>20</ele>
        <time>2019-07-15T11:57:55Z</time>
      </trkpt>
      <trkpt lat="47.78397" lon="-3.53465">
        <ele>20</ele>
        <time>2019-07-15T11:57:56Z</time>
      </trkpt>
      <trkpt lat="47.78397" lon="-3.53468">
        <ele>20</ele>
        <time>2019-07-15T11:57:57Z</time>
      </trkpt>
      <trkpt lat="47.78396" lon="-3.53472">
        <ele>21</ele>
        <time>2019-07-15T11:57:58Z</time>
      </trkpt>
      <trkpt lat="47.78396" lon="-3.53475">
        <ele>21</ele>
        <time>2019-07-15T11:57:59Z</time>
      </trkpt>
      <trkpt lat="47.78396" lon="-3.53478">
        <ele>21</ele>
        <time>2019-07-15T11:58:00Z</time>
      </trkpt>
      <trkpt lat="47.78395" lon="-3.53482">
        <ele>21</ele>
        <time>2019-07-15T11:58:01Z</time>
      </trkpt>
      <trkpt lat="47.78395" lon="-3.53485">
        <ele>22</ele>
        <time>2019-07-15T11:58:02Z</time>
      </trkpt>
      <trkpt lat="47.78394" lon="-3.53488">
        <ele>22</ele>
        <time>2019-07-15T11:58:03Z</time>
      </trkpt>
      <trkpt lat="47.78394" lon="-3.53491">
        <ele>23</ele>
        <time>2019-07-15T11:58:04Z</time>
      </trkpt>
      <trkpt lat="47.78393" lon="-3.53494">
        <ele>23</ele>
        <time>2019-07-15T11:58:05Z</time>
      </trkpt>
      <trkpt lat="47.78392" lon="-3.53497">
        <ele>23</ele>
        <time>2019-07-15T11:58:06Z</time>
      </trkpt>
      <trkpt lat="47.78392" lon="-3.53501">
        <ele>24</ele>
        <time>2019-07-15T11:58:07Z</time>
      </trkpt>
      <trkpt lat="47.78392" lon="-3.53504">
        <ele>24</ele>
        <time>2019-07-15T11:58:08Z</time>
      </trkpt>
      <trkpt lat="47.78392" lon="-3.53507">
        <ele>25</ele>
        <time>2019-07-15T11:58:09Z</time>
      </trkpt>
      <trkpt lat="47.78391" lon="-3.5351">
        <ele>25</ele>
        <time>2019-07-15T11:58:10Z</time>
      </trkpt>
      <trkpt lat="47.78391" lon="-3.53513">
        <ele>25</ele>
        <time>2019-07-15T11:58:11Z</time>
      </trkpt>
      <trkpt lat="47.7839" lon="-3.53516">
        <ele>26</ele>
        <time>2019-07-15T11:58:12Z</time>
      </trkpt>
      <trkpt lat="47.7839" lon="-3.53519">
        <ele>26</ele>
        <time>2019-07-15T11:58:13Z</time>
      </trkpt>
      <trkpt lat="47.78389" lon="-3.53523">
        <ele>26</ele>
        <time>2019-07-15T11:58:14Z</time>
      </trkpt>
      <trkpt lat="47.78389" lon="-3.53527">
        <ele>26</ele>
        <time>2019-07-15T11:58:15Z</time>
      </trkpt>
      <trkpt lat="47.78389" lon="-3.53529">
        <ele>27</ele>
        <time>2019-07-15T11:58:16Z</time>
      </trkpt>
      <trkpt lat="47.78388" lon="-3.53532">
        <ele>27</ele>
        <time>2019-07-15T11:58:17Z</time>
      </trkpt>
      <trkpt lat="47.78387" lon="-3.53535">
        <ele>27</ele>
        <time>2019-07-15T11:58:18Z</time>
      </trkpt>
      <trkpt lat="47.78386" lon="-3.53539">
        <ele>27</ele>
        <time>2019-07-15T11:58:19Z</time>
      </trkpt>
      <trkpt lat="47.78386" lon="-3.53543">
        <ele>28</ele>
        <time>2019-07-15T11:58:20Z</time>
      </trkpt>
      <trkpt lat="47.78386" lon="-3.53547">
        <ele>28</ele>
        <time>2019-07-15T11:58:21Z</time>
      </trkpt>
      <trkpt lat="47.78385" lon="-3.5355">
        <ele>28</ele>
        <time>2019-07-15T11:58:22Z</time>
      </trkpt>
      <trkpt lat="47.78385" lon="-3.53553">
        <ele>28</ele>
        <time>2019-07-15T11:58:23Z</time>
      </trkpt>
      <trkpt lat="47.78384" lon="-3.53556">
        <ele>29</ele>
        <time>2019-07-15T11:58:24Z</time>
      </trkpt>
      <trkpt lat="47.78384" lon="-3.53559">
        <ele>29</ele>
        <time>2019-07-15T11:58:25Z</time>
      </trkpt>
      <trkpt lat="47.78383" lon="-3.53562">
        <ele>29</ele>
        <time>2019-07-15T11:58:26Z</time>
      </trkpt>
      <trkpt lat="47.78382" lon="-3.53565">
        <ele>30</ele>
        <time>2019-07-15T11:58:27Z</time>
      </trkpt>
      <trkpt lat="47.78381" lon="-3.53568">
        <ele>30</ele>
        <time>2019-07-15T11:58:28Z</time>
      </trkpt>
      <trkpt lat="47.78381" lon="-3.53571">
        <ele>30</ele>
        <time>2019-07-15T11:58:29Z</time>
      </trkpt>
      <trkpt lat="47.7838" lon="-3.53573">
        <ele>30</ele>
        <time>2019-07-15T11:58:30Z</time>
      </trkpt>
      <trkpt lat="47.78379" lon="-3.53576">
        <ele>30</ele>
        <time>2019-07-15T11:58:31Z</time>
      </trkpt>
      <trkpt lat="47.78379" lon="-3.5358">
        <ele>31</ele>
        <time>2019-07-15T11:58:32Z</time>
      </trkpt>
      <trkpt lat="47.78377" lon="-3.53583">
        <ele>31</ele>
        <time>2019-07-15T11:58:33Z</time>
      </trkpt>
      <trkpt lat="47.78376" lon="-3.53587">
        <ele>31</ele>
        <time>2019-07-15T11:58:34Z</time>
      </trkpt>
      <trkpt lat="47.78376" lon="-3.53591">
        <ele>31</ele>
        <time>2019-07-15T11:58:35Z</time>
      </trkpt>
      <trkpt lat="47.78374" lon="-3.53595">
        <ele>31</ele>
        <time>2019-07-15T11:58:36Z</time>
      </trkpt>
      <trkpt lat="47.78373" lon="-3.53598">
        <ele>31</ele>
        <time>2019-07-15T11:58:37Z</time>
      </trkpt>
      <trkpt lat="47.78372" lon="-3.53602">
        <ele>32</ele>
        <time>2019-07-15T11:58:38Z</time>
      </trkpt>
      <trkpt lat="47.7837" lon="-3.53606">
        <ele>32</ele>
        <time>2019-07-15T11:58:39Z</time>
      </trkpt>
      <trkpt lat="47.78369" lon="-3.5361">
        <ele>32</ele>
        <time>2019-07-15T11:58:40Z</time>
      </trkpt>
      <trkpt lat="47.78368" lon="-3.53614">
        <ele>32</ele>
        <time>2019-07-15T11:58:41Z</time>
      </trkpt>
      <trkpt lat="47.78367" lon="-3.53617">
        <ele>33</ele>
        <time>2019-07-15T11:58:42Z</time>
      </trkpt>
      <trkpt lat="47.78366" lon="-3.53622">
        <ele>33</ele>
        <time>2019-07-15T11:58:43Z</time>
      </trkpt>
      <trkpt lat="47.78365" lon="-3.53625">
        <ele>33</ele>
        <time>2019-07-15T11:58:44Z</time>
      </trkpt>
      <trkpt lat="47.78364" lon="-3.53629">
        <ele>33</ele>
        <time>2019-07-15T11:58:45Z</time>
      </trkpt>
      <trkpt lat="47.78363" lon="-3.53633">
        <ele>33</ele>
        <time>2019-07-15T11:58:46Z</time>
      </trkpt>
      <trkpt lat="47.78362" lon="-3.53637">
        <ele>34</ele>
        <time>2019-07-15T11:58:47Z</time>
      </trkpt>
      <trkpt lat="47.78361" lon="-3.5364">
        <ele>34</ele>
        <time>2019-07-15T11:58:48Z</time>
      </trkpt>
      <trkpt lat="47.7836" lon="-3.53644">
        <ele>34</ele>
        <time>2019-07-15T11:58:49Z</time>
      </trkpt>
      <trkpt lat="47.78358" lon="-3.53648">
        <ele>34</ele>
        <time>2019-07-15T11:58:50Z</time>
      </trkpt>
      <trkpt lat="47.78357" lon="-3.53653">
        <ele>35</ele>
        <time>2019-07-15T11:58:51Z</time>
      </trkpt>
      <trkpt lat="47.78356" lon="-3.53657">
        <ele>35</ele>
        <time>2019-07-15T11:58:52Z</time>
      </trkpt>
      <trkpt lat="47.78355" lon="-3.53661">
        <ele>35</ele>
        <time>2019-07-15T11:58:53Z</time>
      </trkpt>
      <trkpt lat="47.78354" lon="-3.53665">
        <ele>35</ele>
        <time>2019-07-15T11:58:54Z</time>
      </trkpt>
      <trkpt lat="47.78353" lon="-3.5367">
        <ele>35</ele>
        <time>2019-07-15T11:58:55Z</time>
      </trkpt>
      <trkpt lat="47.78352" lon="-3.53673">
        <ele>35</ele>
        <time>2019-07-15T11:58:56Z</time>
      </trkpt>
      <trkpt lat="47.78351" lon="-3.53678">
        <ele>35</ele>
        <time>2019-07-15T11:58:57Z</time>
      </trkpt>
      <trkpt lat="47.7835" lon="-3.53682">
        <ele>35</ele>
        <time>2019-07-15T11:58:58Z</time>
      </trkpt>
      <trkpt lat="47.78349" lon="-3.53687">
        <ele>35</ele>
        <time>2019-07-15T11:58:59Z</time>
      </trkpt>
      <trkpt lat="47.78347" lon="-3.53691">
        <ele>35</ele>
        <time>2019-07-15T11:59:00Z</time>
      </trkpt>
      <trkpt lat="47.78346" lon="-3.53695">
        <ele>35</ele>
        <time>2019-07-15T11:59:01Z</time>
      </trkpt>
      <trkpt lat="47.78345" lon="-3.53699">
        <ele>36</ele>
        <time>2019-07-15T11:59:02Z</time>
      </trkpt>
      <trkpt lat="47.78344" lon="-3.53703">
        <ele>36</ele>
        <time>2019-07-15T11:59:03Z</time>
      </trkpt>
      <trkpt lat="47.78343" lon="-3.53708">
        <ele>36</ele>
        <time>2019-07-15T11:59:04Z</time>
      </trkpt>
      <trkpt lat="47.78342" lon="-3.53712">
        <ele>36</ele>
        <time>2019-07-15T11:59:05Z</time>
      </trkpt>
      <trkpt lat="47.78341" lon="-3.53716">
        <ele>36</ele>
        <time>2019-07-15T11:59:06Z</time>
      </trkpt>
      <trkpt lat="47.7834" lon="-3.5372">
        <ele>36</ele>
        <time>2019-07-15T11:59:07Z</time>
      </trkpt>
      <trkpt lat="47.78339" lon="-3.53724">
        <ele>36</ele>
        <time>2019-07-15T11:59:08Z</time>
      </trkpt>
      <trkpt lat="47.78338" lon="-3.53728">
        <ele>36</ele>
        <time>2019-07-15T11:59:09Z</time>
      </trkpt>
      <trkpt lat="47.78337" lon="-3.53732">
        <ele>37</ele>
        <time>2019-07-15T11:59:10Z</time>
      </trkpt>
      <trkpt lat="47.78336" lon="-3.53737">
        <ele>37</ele>
        <time>2019-07-15T11:59:11Z</time>
      </trkpt>
      <trkpt lat="47.78335" lon="-3.53742">
        <ele>37</ele>
        <time>2019-07-15T11:59:12Z</time>
      </trkpt>
      <trkpt lat="47.78334" lon="-3.53746">
        <ele>37</ele>
        <time>2019-07-15T11:59:13Z</time>
      </trkpt>
      <trkpt lat="47.78333" lon="-3.53751">
        <ele>37</ele>
        <time>2019-07-15T11:59:14Z</time>
      </trkpt>
      <trkpt lat="47.78332" lon="-3.53756">
        <ele>37</ele>
        <time>2019-07-15T11:59:15Z</time>
      </trkpt>
      <trkpt lat="47.78331" lon="-3.53761">
        <ele>37</ele>
        <time>2019-07-15T11:59:16Z</time>
      </trkpt>
      <trkpt lat="47.7833" lon="-3.53765">
        <ele>38</ele>
        <time>2019-07-15T11:59:17Z</time>
      </trkpt>
      <trkpt lat="47.78329" lon="-3.5377">
        <ele>38</ele>
        <time>2019-07-15T11:59:18Z</time>
      </trkpt>
      <trkpt lat="47.78328" lon="-3.53775">
        <ele>38</ele>
        <time>2019-07-15T11:59:19Z</time>
      </trkpt>
      <trkpt lat="47.78327" lon="-3.53779">
        <ele>38</ele>
        <time>2019-07-15T11:59:20Z</time>
      </trkpt>
      <trkpt lat="47.78326" lon="-3.53785">
        <ele>38</ele>
        <time>2019-07-15T11:59:21Z</time>
      </trkpt>
      <trkpt lat="47.78325" lon="-3.53789">
        <ele>38</ele>
        <time>2019-07-15T11:59:22Z</time>
      </trkpt>
      <trkpt lat="47.78324" lon="-3.53795">
        <ele>38</ele>
        <time>2019-07-15T11:59:23Z</time>
      </trkpt>
      <trkpt lat="47.78322" lon="-3.538">
        <ele>38</ele>
        <time>2019-07-15T11:59:24Z</time>
      </trkpt>
      <trkpt lat="47.78321" lon="-3.53805">
        <ele>38</ele>
        <time>2019-07-15T11:59:25Z</time>
      </trkpt>
      <trkpt lat="47.7832" lon="-3.53809">
        <ele>38</ele>
        <time>2019-07-15T11:59:26Z</time>
      </trkpt>
      <trkpt lat="47.78319" lon="-3.53814">
        <ele>38</ele>
        <time>2019-07-15T11:59:27Z</time>
      </trkpt>
      <trkpt lat="47.78318" lon="-3.5382">
        <ele>38</ele>
        <time>2019-07-15T11:59:28Z</time>
      </trkpt>
      <trkpt lat="47.78317" lon="-3.53825">
        <ele>38</ele>
        <time>2019-07-15T11:59:29Z</time>
      </trkpt>
      <trkpt lat="47.78316" lon="-3.53831">
        <ele>38</ele>
        <time>2019-07-15T11:59:30Z</time>
      </trkpt>
      <trkpt lat="47.78314" lon="-3.53836">
        <ele>38</ele>
        <time>2019-07-15T11:59:31Z</time>
      </trkpt>
      <trkpt lat="47.78313" lon="-3.53841">
        <ele>39</ele>
        <time>2019-07-15T11:59:32Z</time>
      </trkpt>
      <trkpt lat="47.78312" lon="-3.53846">
        <ele>39</ele>
        <time>2019-07-15T11:59:33Z</time>
      </trkpt>
      <trkpt lat="47.78311" lon="-3.53851">
        <ele>39</ele>
        <time>2019-07-15T11:59:34Z</time>
      </trkpt>
      <trkpt lat="47.78309" lon="-3.53855">
        <ele>39</ele>
        <time>2019-07-15T11:59:35Z</time>
      </trkpt>
      <trkpt lat="47.78308" lon="-3.53859">
        <ele>39</ele>
        <time>2019-07-15T11:59:36Z</time>
      </trkpt>
      <trkpt lat="47.78307" lon="-3.53864">
        <ele>39</ele>
        <time>2019-07-15T11:59:37Z</time>
      </trkpt>
      <trkpt lat="47.78306" lon="-3.53869">
        <ele>39</ele>
        <time>2019-07-15T11:59:38Z</time>
      </trkpt>
      <trkpt lat="47.78305" lon="-3.53874">
        <ele>40</ele>
        <time>2019-07-15T11:59:39Z</time>
      </trkpt>
      <trkpt lat="47.78304" lon="-3.5388">
        <ele>40</ele>
        <time>2019-07-15T11:59:40Z</time>
      </trkpt>
      <trkpt lat="47.78302" lon="-3.53887">
        <ele>40</ele>
        <time>2019-07-15T11:59:41Z</time>
      </trkpt>
      <trkpt lat="47.78301" lon="-3.53893">
        <ele>40</ele>
        <time>2019-07-15T11:59:42Z</time>
      </trkpt>
      <trkpt lat="47.78299" lon="-3.539">
        <ele>40</ele>
        <time>2019-07-15T11:59:43Z</time>
      </trkpt>
      <trkpt lat="47.78297" lon="-3.53906">
        <ele>40</ele>
        <time>2019-07-15T11:59:44Z</time>
      </trkpt>
      <trkpt lat="47.78296" lon="-3.53913">
        <ele>40</ele>
        <time>2019-07-15T11:59:45Z</time>
      </trkpt>
      <trkpt lat="47.78294" lon="-3.5392">
        <ele>40</ele>
        <time>2019-07-15T11:59:46Z</time>
      </trkpt>
      <trkpt lat="47.78292" lon="-3.53926">
        <ele>40</ele>
        <time>2019-07-15T11:59:47Z</time>
      </trkpt>
      <trkpt lat="47.78291" lon="-3.53933">
        <ele>40</ele>
        <time>2019-07-15T11:59:48Z</time>
      </trkpt>
      <trkpt lat="47.78289" lon="-3.5394">
        <ele>40</ele>
        <time>2019-07-15T11:59:49Z</time>
      </trkpt>
      <trkpt lat="47.78288" lon="-3.53948">
        <ele>40</ele>
        <time>2019-07-15T11:59:50Z</time>
      </trkpt>
      <trkpt lat="47.78286" lon="-3.53955">
        <ele>40</ele>
        <time>2019-07-15T11:59:51Z</time>
      </trkpt>
      <trkpt lat="47.78284" lon="-3.53963">
        <ele>40</ele>
        <time>2019-07-15T11:59:52Z</time>
      </trkpt>
      <trkpt lat="47.78282" lon="-3.53971">
        <ele>40</ele>
        <time>2019-07-15T11:59:53Z</time>
      </trkpt>
      <trkpt lat="47.7828" lon="-3.53979">
        <ele>40</ele>
        <time>2019-07-15T11:59:54Z</time>
      </trkpt>
      <trkpt lat="47.78278" lon="-3.53988">
        <ele>40</ele>
        <time>2019-07-15T11:59:55Z</time>
      </trkpt>
      <trkpt lat="47.78276" lon="-3.53998">
        <ele>40</ele>
        <time>2019-07-15T11:59:56Z</time>
      </trkpt>
      <trkpt lat="47.78274" lon="-3.54007">
        <ele>40</ele>
        <time>2019-07-15T11:59:57Z</time>
      </trkpt>
      <trkpt lat="47.78271" lon="-3.54017">
        <ele>39</ele>
        <time>2019-07-15T11:59:58Z</time>
      </trkpt>
      <trkpt lat="47.78269" lon="-3.54027">
        <ele>39</ele>
        <time>2019-07-15T11:59:59Z</time>
      </trkpt>
      <trkpt lat="47.78267" lon="-3.54037">
        <ele>39</ele>
        <time>2019-07-15T12:00:00Z</time>
      </trkpt>
      <trkpt lat="47.78265" lon="-3.54048">
        <ele>38</ele>
        <time>2019-07-15T12:00:01Z</time>
      </trkpt>
      <trkpt lat="47.78263" lon="-3.54058">
        <ele>38</ele>
        <time>2019-07-15T12:00:02Z</time>
      </trkpt>
      <trkpt lat="47.78262" lon="-3.54069">
        <ele>38</ele>
        <time>2019-07-15T12:00:03Z</time>
      </trkpt>
      <trkpt lat="47.7826" lon="-3.54078">
        <ele>38</ele>
        <time>2019-07-15T12:00:04Z</time>
      </trkpt>
      <trkpt lat="47.78259" lon="-3.54088">
        <ele>38</ele>
        <time>2019-07-15T12:00:05Z</time>
      </trkpt>
      <trkpt lat="47.78258" lon="-3.54097">
        <ele>38</ele>
        <time>2019-07-15T12:00:06Z</time>
      </trkpt>
      <trkpt lat="47.78257" lon="-3.54105">
        <ele>38</ele>
        <time>2019-07-15T12:00:07Z</time>
      </trkpt>
      <trkpt lat="47.78256" lon="-3.54113">
        <ele>38</ele>
        <time>2019-07-15T12:00:08Z</time>
      </trkpt>
      <trkpt lat="47.78255" lon="-3.54121">
        <ele>38</ele>
        <time>2019-07-15T12:00:09Z</time>
      </trkpt>
      <trkpt lat="47.78254" lon="-3.54129">
        <ele>37</ele>
        <time>2019-07-15T12:00:10Z</time>
      </trkpt>
      <trkpt lat="47.78253" lon="-3.54137">
        <ele>37</ele>
        <time>2019-07-15T12:00:11Z</time>
      </trkpt>
      <trkpt lat="47.78252" lon="-3.54144">
        <ele>37</ele>
        <time>2019-07-15T12:00:12Z</time>
      </trkpt>
      <trkpt lat="47.78251" lon="-3.54151">
        <ele>37</ele>
        <time>2019-07-15T12:00:13Z</time>
      </trkpt>
      <trkpt lat="47.7825" lon="-3.54159">
        <ele>37</ele>
        <time>2019-07-15T12:00:14Z</time>
      </trkpt>
      <trkpt lat="47.78249" lon="-3.54166">
        <ele>38</ele>
        <time>2019-07-15T12:00:15Z</time>
      </trkpt>
      <trkpt lat="47.78249" lon="-3.54174">
        <ele>38</ele>
        <time>2019-07-15T12:00:16Z</time>
      </trkpt>
      <trkpt lat="47.78248" lon="-3.54182">
        <ele>38</ele>
        <time>2019-07-15T12:00:17Z</time>
      </trkpt>
      <trkpt lat="47.78247" lon="-3.54189">
        <ele>38</ele>
        <time>2019-07-15T12:00:18Z</time>
      </trkpt>
      <trkpt lat="47.78246" lon="-3.54197">
        <ele>38</ele>
        <time>2019-07-15T12:00:19Z</time>
      </trkpt>
      <trkpt lat="47.78245" lon="-3.54204">
        <ele>38</ele>
        <time>2019-07-15T12:00:20Z</time>
      </trkpt>
      <trkpt lat="47.78244" lon="-3.54212">
        <ele>38</ele>
        <time>2019-07-15T12:00:21Z</time>
      </trkpt>
      <trkpt lat="47.78243" lon="-3.54219">
        <ele>38</ele>
        <time>2019-07-15T12:00:22Z</time>
      </trkpt>
      <trkpt lat="47.78242" lon="-3.54227">
        <ele>38</ele>
        <time>2019-07-15T12:00:23Z</time>
      </trkpt>
      <trkpt lat="47.78241" lon="-3.54235">
        <ele>38</ele>
        <time>2019-07-15T12:00:24Z</time>
      </trkpt>
      <trkpt lat="47.7824" lon="-3.54242">
        <ele>38</ele>
        <time>2019-07-15T12:00:25Z</time>
      </trkpt>
      <trkpt lat="47.78239" lon="-3.54249">
        <ele>38</ele>
        <time>2019-07-15T12:00:26Z</time>
      </trkpt>
      <trkpt lat="47.78238" lon="-3.54256">
        <ele>38</ele>
        <time>2019-07-15T12:00:27Z</time>
      </trkpt>
      <trkpt lat="47.78237" lon="-3.54263">
        <ele>38</ele>
        <time>2019-07-15T12:00:28Z</time>
      </trkpt>
      <trkpt lat="47.78235" lon="-3.5427">
        <ele>39</ele>
        <time>2019-07-15T12:00:29Z</time>
      </trkpt>
      <trkpt lat="47.78233" lon="-3.54277">
        <ele>39</ele>
        <time>2019-07-15T12:00:30Z</time>
      </trkpt>
      <trkpt lat="47.78232" lon="-3.54284">
        <ele>39</ele>
        <time>2019-07-15T12:00:31Z</time>
      </trkpt>
      <trkpt lat="47.7823" lon="-3.54291">
        <ele>39</ele>
        <time>2019-07-15T12:00:32Z</time>
      </trkpt>
      <trkpt lat="47.78228" lon="-3.54299">
        <ele>39</ele>
        <time>2019-07-15T12:00:33Z</time>
      </trkpt>
      <trkpt lat="47.78226" lon="-3.54306">
        <ele>39</ele>
        <time>2019-07-15T12:00:34Z</time>
      </trkpt>
      <trkpt lat="47.78224" lon="-3.54313">
        <ele>39</ele>
        <time>2019-07-15T12:00:35Z</time>
      </trkpt>
      <trkpt lat="47.78222" lon="-3.5432">
        <ele>39</ele>
        <time>2019-07-15T12:00:36Z</time>
      </trkpt>
      <trkpt lat="47.78221" lon="-3.54328">
        <ele>39</ele>
        <time>2019-07-15T12:00:37Z</time>
      </trkpt>
      <trkpt lat="47.78219" lon="-3.54336">
        <ele>40</ele>
        <time>2019-07-15T12:00:38Z</time>
      </trkpt>
      <trkpt lat="47.78217" lon="-3.54343">
        <ele>40</ele>
        <time>2019-07-15T12:00:39Z</time>
      </trkpt>
      <trkpt lat="47.78215" lon="-3.5435">
        <ele>40</ele>
        <time>2019-07-15T12:00:40Z</time>
      </trkpt>
      <trkpt lat="47.78214" lon="-3.54357">
        <ele>40</ele>
        <time>2019-07-15T12:00:41Z</time>
      </trkpt>
      <trkpt lat="47.78212" lon="-3.54365">
        <ele>40</ele>
        <time>2019-07-15T12:00:42Z</time>
      </trkpt>
      <trkpt lat="47.78209" lon="-3.54372">
        <ele>40</ele>
        <time>2019-07-15T12:00:43Z</time>
      </trkpt>
      <trkpt lat="47.78208" lon="-3.54379">
        <ele>40</ele>
        <time>2019-07-15T12:00:44Z</time>
      </trkpt>
      <trkpt lat="47.78205" lon="-3.54387">
        <ele>40</ele>
        <time>2019-07-15T12:00:45Z</time>
      </trkpt>
      <trkpt lat="47.78203" lon="-3.54394">
        <ele>40</ele>
        <time>2019-07-15T12:00:46Z</time>
      </trkpt>
      <trkpt lat="47.78201" lon="-3.54402">
        <ele>40</ele>
        <time>2019-07-15T12:00:47Z</time>
      </trkpt>
      <trkpt lat="47.78199" lon="-3.5441">
        <ele>40</ele>
        <time>2019-07-15T12:00:48Z</time>
      </trkpt>
      <trkpt lat="47.78197" lon="-3.54418">
        <ele>40</ele>
        <time>2019-07-15T12:00:49Z</time>
      </trkpt>
      <trkpt lat="47.78195" lon="-3.54425">
        <ele>40</ele>
        <time>2019-07-15T12:00:50Z</time>
      </trkpt>
      <trkpt lat="47.78193" lon="-3.54432">
        <ele>40</ele>
        <time>2019-07-15T12:00:51Z</time>
      </trkpt>
      <trkpt lat="47.78192" lon="-3.5444">
        <ele>40</ele>
        <time>2019-07-15T12:00:52Z</time>
      </trkpt>
      <trkpt lat="47.78189" lon="-3.54448">
        <ele>40</ele>
        <time>2019-07-15T12:00:53Z</time>
      </trkpt>
      <trkpt lat="47.78187" lon="-3.54455">
        <ele>40</ele>
        <time>2019-07-15T12:00:54Z</time>
      </trkpt>
      <trkpt lat="47.78185" lon="-3.54463">
        <ele>40</ele>
        <time>2019-07-15T12:00:55Z</time>
      </trkpt>
      <trkpt lat="47.78183" lon="-3.54471">
        <ele>40</ele>
        <time>2019-07-15T12:00:56Z</time>
      </trkpt>
      <trkpt lat="47.78181" lon="-3.54479">
        <ele>40</ele>
        <time>2019-07-15T12:00:57Z</time>
      </trkpt>
      <trkpt lat="47.78179" lon="-3.54488">
        <ele>40</ele>
        <time>2019-07-15T12:00:58Z</time>
      </trkpt>
      <trkpt lat="47.78176" lon="-3.54496">
        <ele>39</ele>
        <time>2019-07-15T12:00:59Z</time>
      </trkpt>
      <trkpt lat="47.78174" lon="-3.54504">
        <ele>39</ele>
        <time>2019-07-15T12:01:00Z</time>
      </trkpt>
      <trkpt lat="47.78172" lon="-3.54512">
        <ele>39</ele>
        <time>2019-07-15T12:01:01Z</time>
      </trkpt>
      <trkpt lat="47.78169" lon="-3.5452">
        <ele>39</ele>
        <time>2019-07-15T12:01:02Z</time>
      </trkpt>
      <trkpt lat="47.78167" lon="-3.54527">
        <ele>39</ele>
        <time>2019-07-15T12:01:03Z</time>
      </trkpt>
      <trkpt lat="47.78165" lon="-3.54535">
        <ele>39</ele>
        <time>2019-07-15T12:01:04Z</time>
      </trkpt>
      <trkpt lat="47.78163" lon="-3.54543">
        <ele>39</ele>
        <time>2019-07-15T12:01:05Z</time>
      </trkpt>
      <trkpt lat="47.78162" lon="-3.5455">
        <ele>39</ele>
        <time>2019-07-15T12:01:06Z</time>
      </trkpt>
      <trkpt lat="47.7816" lon="-3.54558">
        <ele>39</ele>
        <time>2019-07-15T12:01:07Z</time>
      </trkpt>
      <trkpt lat="47.78158" lon="-3.54565">
        <ele>39</ele>
        <time>2019-07-15T12:01:08Z</time>
      </trkpt>
      <trkpt lat="47.78156" lon="-3.54573">
        <ele>39</ele>
        <time>2019-07-15T12:01:09Z</time>
      </trkpt>
      <trkpt lat="47.78155" lon="-3.5458">
        <ele>39</ele>
        <time>2019-07-15T12:01:10Z</time>
      </trkpt>
      <trkpt lat="47.78154" lon="-3.54586">
        <ele>38</ele>
        <time>2019-07-15T12:01:11Z</time>
      </trkpt>
      <trkpt lat="47.78154" lon="-3.5459">
        <ele>38</ele>
        <time>2019-07-15T12:01:12Z</time>
      </trkpt>
      <trkpt lat="47.78153" lon="-3.54594">
        <ele>38</ele>
        <time>2019-07-15T12:01:13Z</time>
      </trkpt>
      <trkpt lat="47.78152" lon="-3.54598">
        <ele>38</ele>
        <time>2019-07-15T12:01:14Z</time>
      </trkpt>
      <trkpt lat="47.78151" lon="-3.54603">
        <ele>38</ele>
        <time>2019-07-15T12:01:15Z</time>
      </trkpt>
      <trkpt lat="47.78149" lon="-3.54608">
        <ele>38</ele>
        <time>2019-07-15T12:01:16Z</time>
      </trkpt>
      <trkpt lat="47.78147" lon="-3.54613">
        <ele>38</ele>
        <time>2019-07-15T12:01:17Z</time>
      </trkpt>
      <trkpt lat="47.78145" lon="-3.54619">
        <ele>38</ele>
        <time>2019-07-15T12:01:18Z</time>
      </trkpt>
      <trkpt lat="47.78143" lon="-3.54625">
        <ele>38</ele>
        <time>2019-07-15T12:01:19Z</time>
      </trkpt>
      <trkpt lat="47.78141" lon="-3.54633">
        <ele>38</ele>
        <time>2019-07-15T12:01:20Z</time>
      </trkpt>
      <trkpt lat="47.78139" lon="-3.54641">
        <ele>38</ele>
        <time>2019-07-15T12:01:21Z</time>
      </trkpt>
      <trkpt lat="47.78137" lon="-3.54649">
        <ele>38</ele>
        <time>2019-07-15T12:01:22Z</time>
      </trkpt>
      <trkpt lat="47.78134" lon="-3.54657">
        <ele>38</ele>
        <time>2019-07-15T12:01:23Z</time>
      </trkpt>
      <trkpt lat="47.78132" lon="-3.54666">
        <ele>37</ele>
        <time>2019-07-15T12:01:24Z</time>
      </trkpt>
      <trkpt lat="47.7813" lon="-3.54675">
        <ele>37</ele>
        <time>2019-07-15T12:01:25Z</time>
      </trkpt>
      <trkpt lat="47.78127" lon="-3.54684">
        <ele>37</ele>
        <time>2019-07-15T12:01:26Z</time>
      </trkpt>
      <trkpt lat="47.78125" lon="-3.54694">
        <ele>37</ele>
        <time>2019-07-15T12:01:27Z</time>
      </trkpt>
      <trkpt lat="47.78123" lon="-3.54703">
        <ele>37</ele>
        <time>2019-07-15T12:01:28Z</time>
      </trkpt>
      <trkpt lat="47.7812" lon="-3.54711">
        <ele>37</ele>
        <time>2019-07-15T12:01:29Z</time>
      </trkpt>
      <trkpt lat="47.78118" lon="-3.5472">
        <ele>37</ele>
        <time>2019-07-15T12:01:30Z</time>
      </trkpt>
      <trkpt lat="47.78116" lon="-3.54729">
        <ele>37</ele>
        <time>2019-07-15T12:01:31Z</time>
      </trkpt>
      <trkpt lat="47.78114" lon="-3.54737">
        <ele>37</ele>
        <time>2019-07-15T12:01:32Z</time>
      </trkpt>
      <trkpt lat="47.78112" lon="-3.54745">
        <ele>37</ele>
        <time>2019-07-15T12:01:33Z</time>
      </trkpt>
      <trkpt lat="47.7811" lon="-3.54753">
        <ele>37</ele>
        <time>2019-07-15T12:01:34Z</time>
      </trkpt>
      <trkpt lat="47.78107" lon="-3.54762">
        <ele>36</ele>
        <time>2019-07-15T12:01:35Z</time>
      </trkpt>
      <trkpt lat="47.78105" lon="-3.5477">
        <ele>36</ele>
        <time>2019-07-15T12:01:36Z</time>
      </trkpt>
      <trkpt lat="47.78102" lon="-3.54778">
        <ele>36</ele>
        <time>2019-07-15T12:01:37Z</time>
      </trkpt>
      <trkpt lat="47.78099" lon="-3.54786">
        <ele>36</ele>
        <time>2019-07-15T12:01:38Z</time>
      </trkpt>
      <trkpt lat="47.78096" lon="-3.54795">
        <ele>36</ele>
        <time>2019-07-15T12:01:39Z</time>
      </trkpt>
      <trkpt lat="47.78094" lon="-3.54804">
        <ele>36</ele>
        <time>2019-07-15T12:01:40Z</time>
      </trkpt>
      <trkpt lat="47.78091" lon="-3.54812">
        <ele>35</ele>
        <time>2019-07-15T12:01:41Z</time>
      </trkpt>
      <trkpt lat="47.78087" lon="-3.54821">
        <ele>35</ele>
        <time>2019-07-15T12:01:42Z</time>
      </trkpt>
      <trkpt lat="47.78084" lon="-3.5483">
        <ele>35</ele>
        <time>2019-07-15T12:01:43Z</time>
      </trkpt>
      <trkpt lat="47.78081" lon="-3.54839">
        <ele>35</ele>
        <time>2019-07-15T12:01:44Z</time>
      </trkpt>
      <trkpt lat="47.78077" lon="-3.54848">
        <ele>34</ele>
        <time>2019-07-15T12:01:45Z</time>
      </trkpt>
      <trkpt lat="47.78074" lon="-3.54857">
        <ele>34</ele>
        <time>2019-07-15T12:01:46Z</time>
      </trkpt>
      <trkpt lat="47.78071" lon="-3.54865">
        <ele>34</ele>
        <time>2019-07-15T12:01:47Z</time>
      </trkpt>
      <trkpt lat="47.78067" lon="-3.54874">
        <ele>34</ele>
        <time>2019-07-15T12:01:48Z</time>
      </trkpt>
      <trkpt lat="47.78063" lon="-3.54883">
        <ele>33</ele>
        <time>2019-07-15T12:01:49Z</time>
      </trkpt>
      <trkpt lat="47.78059" lon="-3.54891">
        <ele>33</ele>
        <time>2019-07-15T12:01:50Z</time>
      </trkpt>
      <trkpt lat="47.78055" lon="-3.549">
        <ele>33</ele>
        <time>2019-07-15T12:01:51Z</time>
      </trkpt>
      <trkpt lat="47.78052" lon="-3.54908">
        <ele>33</ele>
        <time>2019-07-15T12:01:52Z</time>
      </trkpt>
      <trkpt lat="47.78049" lon="-3.54917">
        <ele>33</ele>
        <time>2019-07-15T12:01:53Z</time>
      </trkpt>
      <trkpt lat="47.78046" lon="-3.54925">
        <ele>33</ele>
        <time>2019-07-15T12:01:54Z</time>
      </trkpt>
      <trkpt lat="47.78043" lon="-3.54934">
        <ele>32</ele>
        <time>2019-07-15T12:01:55Z</time>
      </trkpt>
      <trkpt lat="47.78041" lon="-3.54942">
        <ele>32</ele>
        <time>2019-07-15T12:01:56Z</time>
      </trkpt>
      <trkpt lat="47.78038" lon="-3.54951">
        <ele>32</ele>
        <time>2019-07-15T12:01:57Z</time>
      </trkpt>
      <trkpt lat="47.78036" lon="-3.5496">
        <ele>32</ele>
        <time>2019-07-15T12:01:58Z</time>
      </trkpt>
      <trkpt lat="47.78035" lon="-3.54969">
        <ele>32</ele>
        <time>2019-07-15T12:01:59Z</time>
      </trkpt>
      <trkpt lat="47.78033" lon="-3.54978">
        <ele>32</ele>
        <time>2019-07-15T12:02:00Z</time>
      </trkpt>
      <trkpt lat="47.78031" lon="-3.54987">
        <ele>32</ele>
        <time>2019-07-15T12:02:01Z</time>
      </trkpt>
      <trkpt lat="47.7803" lon="-3.54996">
        <ele>33</ele>
        <time>2019-07-15T12:02:02Z</time>
      </trkpt>
      <trkpt lat="47.78028" lon="-3.55005">
        <ele>33</ele>
        <time>2019-07-15T12:02:03Z</time>
      </trkpt>
      <trkpt lat="47.78027" lon="-3.55014">
        <ele>33</ele>
        <time>2019-07-15T12:02:04Z</time>
      </trkpt>
      <trkpt lat="47.78025" lon="-3.55023">
        <ele>33</ele>
        <time>2019-07-15T12:02:05Z</time>
      </trkpt>
      <trkpt lat="47.78024" lon="-3.55032">
        <ele>33</ele>
        <time>2019-07-15T12:02:06Z</time>
      </trkpt>
      <trkpt lat="47.78023" lon="-3.55041">
        <ele>33</ele>
        <time>2019-07-15T12:02:07Z</time>
      </trkpt>
      <trkpt lat="47.78022" lon="-3.55049">
        <ele>33</ele>
        <time>2019-07-15T12:02:08Z</time>
      </trkpt>
      <trkpt lat="47.78021" lon="-3.55058">
        <ele>34</ele>
        <time>2019-07-15T12:02:09Z</time>
      </trkpt>
      <trkpt lat="47.7802" lon="-3.55067">
        <ele>34</ele>
        <time>2019-07-15T12:02:10Z</time>
      </trkpt>
      <trkpt lat="47.78019" lon="-3.55075">
        <ele>34</ele>
        <time>2019-07-15T12:02:11Z</time>
      </trkpt>
      <trkpt lat="47.78018" lon="-3.55083">
        <ele>34</ele>
        <time>2019-07-15T12:02:12Z</time>
      </trkpt>
      <trkpt lat="47.78017" lon="-3.55091">
        <ele>34</ele>
        <time>2019-07-15T12:02:13Z</time>
      </trkpt>
      <trkpt lat="47.78016" lon="-3.55099">
        <ele>34</ele>
        <time>2019-07-15T12:02:14Z</time>
      </trkpt>
      <trkpt lat="47.78015" lon="-3.55107">
        <ele>34</ele>
        <time>2019-07-15T12:02:15Z</time>
      </trkpt>
      <trkpt lat="47.78015" lon="-3.55115">
        <ele>34</ele>
        <time>2019-07-15T12:02:16Z</time>
      </trkpt>
      <trkpt lat="47.78014" lon="-3.55123">
        <ele>34</ele>
        <time>2019-07-15T12:02:17Z</time>
      </trkpt>
      <trkpt lat="47.78013" lon="-3.55131">
        <ele>34</ele>
        <time>2019-07-15T12:02:18Z</time>
      </trkpt>
      <trkpt lat="47.78013" lon="-3.55139">
        <ele>35</ele>
        <time>2019-07-15T12:02:19Z</time>
      </trkpt>
      <trkpt lat="47.78013" lon="-3.55147">
        <ele>35</ele>
        <time>2019-07-15T12:02:20Z</time>
      </trkpt>
      <trkpt lat="47.78012" lon="-3.55155">
        <ele>35</ele>
        <time>2019-07-15T12:02:21Z</time>
      </trkpt>
      <trkpt lat="47.78012" lon="-3.55163">
        <ele>35</ele>
        <time>2019-07-15T12:02:22Z</time>
      </trkpt>
      <trkpt lat="47.78011" lon="-3.5517">
        <ele>35</ele>
        <time>2019-07-15T12:02:23Z</time>
      </trkpt>
      <trkpt lat="47.78011" lon="-3.55178">
        <ele>35</ele>
        <time>2019-07-15T12:02:24Z</time>
      </trkpt>
      <trkpt lat="47.78011" lon="-3.55186">
        <ele>35</ele>
        <time>2019-07-15T12:02:25Z</time>
      </trkpt>
      <trkpt lat="47.7801" lon="-3.55194">
        <ele>36</ele>
        <time>2019-07-15T12:02:26Z</time>
      </trkpt>
      <trkpt lat="47.7801" lon="-3.55201">
        <ele>36</ele>
        <time>2019-07-15T12:02:27Z</time>
      </trkpt>
      <trkpt lat="47.7801" lon="-3.55209">
        <ele>36</ele>
        <time>2019-07-15T12:02:28Z</time>
      </trkpt>
      <trkpt lat="47.7801" lon="-3.55216">
        <ele>36</ele>
        <time>2019-07-15T12:02:29Z</time>
      </trkpt>
      <trkpt lat="47.78009" lon="-3.55224">
        <ele>36</ele>
        <time>2019-07-15T12:02:30Z</time>
      </trkpt>
      <trkpt lat="47.78009" lon="-3.55232">
        <ele>36</ele>
        <time>2019-07-15T12:02:31Z</time>
      </trkpt>
      <trkpt lat="47.78009" lon="-3.5524">
        <ele>36</ele>
        <time>2019-07-15T12:02:32Z</time>
      </trkpt>
      <trkpt lat="47.78009" lon="-3.55248">
        <ele>36</ele>
        <time>2019-07-15T12:02:33Z</time>
      </trkpt>
      <trkpt lat="47.78008" lon="-3.55256">
        <ele>36</ele>
        <time>2019-07-15T12:02:34Z</time>
      </trkpt>
      <trkpt lat="47.78007" lon="-3.55263">
        <ele>36</ele>
        <time>2019-07-15T12:02:35Z</time>
      </trkpt>
      <trkpt lat="47.78006" lon="-3.55271">
        <ele>37</ele>
        <time>2019-07-15T12:02:36Z</time>
      </trkpt>
      <trkpt lat="47.78006" lon="-3.55278">
        <ele>37</ele>
        <time>2019-07-15T12:02:37Z</time>
      </trkpt>
      <trkpt lat="47.78005" lon="-3.55285">
        <ele>37</ele>
        <time>2019-07-15T12:02:38Z</time>
      </trkpt>
      <trkpt lat="47.78005" lon="-3.55292">
        <ele>37</ele>
        <time>2019-07-15T12:02:39Z</time>
      </trkpt>
      <trkpt lat="47.78004" lon="-3.55299">
        <ele>37</ele>
        <time>2019-07-15T12:02:40Z</time>
      </trkpt>
      <trkpt lat="47.78002" lon="-3.55307">
        <ele>37</ele>
        <time>2019-07-15T12:02:41Z</time>
      </trkpt>
      <trkpt lat="47.78002" lon="-3.55313">
        <ele>37</ele>
        <time>2019-07-15T12:02:42Z</time>
      </trkpt>
      <trkpt lat="47.77999" lon="-3.5532">
        <ele>37</ele>
        <time>2019-07-15T12:02:43Z</time>
      </trkpt>
      <trkpt lat="47.77996" lon="-3.55324">
        <ele>37</ele>
        <time>2019-07-15T12:02:44Z</time>
      </trkpt>
      <trkpt lat="47.77992" lon="-3.55327">
        <ele>37</ele>
        <time>2019-07-15T12:02:45Z</time>
      </trkpt>
      <trkpt lat="47.77988" lon="-3.55329">
        <ele>37</ele>
        <time>2019-07-15T12:02:46Z</time>
      </trkpt>
      <trkpt lat="47.77984" lon="-3.5533">
        <ele>37</ele>
        <time>2019-07-15T12:02:47Z</time>
      </trkpt>
      <trkpt lat="47.77979" lon="-3.55331">
        <ele>38</ele>
        <time>2019-07-15T12:02:48Z</time>
      </trkpt>
      <trkpt lat="47.77974" lon="-3.5533">
        <ele>38</ele>
        <time>2019-07-15T12:02:49Z</time>
      </trkpt>
      <trkpt lat="47.77968" lon="-3.55329">
        <ele>38</ele>
        <time>2019-07-15T12:02:50Z</time>
      </trkpt>
      <trkpt lat="47.77963" lon="-3.55328">
        <ele>38</ele>
        <time>2019-07-15T12:02:51Z</time>
      </trkpt>
      <trkpt lat="47.77957" lon="-3.55328">
        <ele>38</ele>
        <time>2019-07-15T12:02:52Z</time>
      </trkpt>
      <trkpt lat="47.77952" lon="-3.55327">
        <ele>38</ele>
        <time>2019-07-15T12:02:53Z</time>
      </trkpt>
      <trkpt lat="47.77946" lon="-3.55327">
        <ele>38</ele>
        <time>2019-07-15T12:02:54Z</time>
      </trkpt>
      <trkpt lat="47.7794" lon="-3.55327">
        <ele>38</ele>
        <time>2019-07-15T12:02:55Z</time>
      </trkpt>
      <trkpt lat="47.77934" lon="-3.55327">
        <ele>37</ele>
        <time>2019-07-15T12:02:56Z</time>
      </trkpt>
      <trkpt lat="47.77929" lon="-3.55327">
        <ele>37</ele>
        <time>2019-07-15T12:02:57Z</time>
      </trkpt>
      <trkpt lat="47.77922" lon="-3.55328">
        <ele>37</ele>
        <time>2019-07-15T12:02:58Z</time>
      </trkpt>
      <trkpt lat="47.77916" lon="-3.55329">
        <ele>37</ele>
        <time>2019-07-15T12:02:59Z</time>
      </trkpt>
      <trkpt lat="47.7791" lon="-3.5533">
        <ele>37</ele>
        <time>2019-07-15T12:03:00Z</time>
      </trkpt>
      <trkpt lat="47.77903" lon="-3.55331">
        <ele>37</ele>
        <time>2019-07-15T12:03:01Z</time>
      </trkpt>
      <trkpt lat="47.77897" lon="-3.55332">
        <ele>37</ele>
        <time>2019-07-15T12:03:02Z</time>
      </trkpt>
      <trkpt lat="47.77891" lon="-3.55333">
        <ele>36</ele>
        <time>2019-07-15T12:03:03Z</time>
      </trkpt>
      <trkpt lat="47.77885" lon="-3.55334">
        <ele>36</ele>
        <time>2019-07-15T12:03:04Z</time>
      </trkpt>
      <trkpt lat="47.77879" lon="-3.55335">
        <ele>36</ele>
        <time>2019-07-15T12:03:05Z</time>
      </trkpt>
      <trkpt lat="47.77873" lon="-3.55336">
        <ele>36</ele>
        <time>2019-07-15T12:03:06Z</time>
      </trkpt>
      <trkpt lat="47.77867" lon="-3.55336">
        <ele>36</ele>
        <time>2019-07-15T12:03:07Z</time>
      </trkpt>
      <trkpt lat="47.77861" lon="-3.55336">
        <ele>35</ele>
        <time>2019-07-15T12:03:08Z</time>
      </trkpt>
      <trkpt lat="47.77855" lon="-3.55336">
        <ele>35</ele>
        <time>2019-07-15T12:03:09Z</time>
      </trkpt>
      <trkpt lat="47.77849" lon="-3.55337">
        <ele>35</ele>
        <time>2019-07-15T12:03:10Z</time>
      </trkpt>
      <trkpt lat="47.77843" lon="-3.55338">
        <ele>34</ele>
        <time>2019-07-15T12:03:11Z</time>
      </trkpt>
      <trkpt lat="47.77838" lon="-3.55337">
        <ele>34</ele>
        <time>2019-07-15T12:03:12Z</time>
      </trkpt>
      <trkpt lat="47.77833" lon="-3.55337">
        <ele>34</ele>
        <time>2019-07-15T12:03:13Z</time>
      </trkpt>
      <trkpt lat="47.77828" lon="-3.55336">
        <ele>34</ele>
        <time>2019-07-15T12:03:14Z</time>
      </trkpt>
      <trkpt lat="47.77824" lon="-3.55336">
        <ele>33</ele>
        <time>2019-07-15T12:03:15Z</time>
      </trkpt>
      <trkpt lat="47.77819" lon="-3.55336">
        <ele>33</ele>
        <time>2019-07-15T12:03:16Z</time>
      </trkpt>
      <trkpt lat="47.77814" lon="-3.55336">
        <ele>33</ele>
        <time>2019-07-15T12:03:17Z</time>
      </trkpt>
      <trkpt lat="47.77808" lon="-3.55335">
        <ele>33</ele>
        <time>2019-07-15T12:03:18Z</time>
      </trkpt>
      <trkpt lat="47.77803" lon="-3.55333">
        <ele>33</ele>
        <time>2019-07-15T12:03:19Z</time>
      </trkpt>
      <trkpt lat="47.77799" lon="-3.55328">
        <ele>33</ele>
        <time>2019-07-15T12:03:20Z</time>
      </trkpt>
      <trkpt lat="47.77797" lon="-3.55322">
        <ele>33</ele>
        <time>2019-07-15T12:03:21Z</time>
      </trkpt>
      <trkpt lat="47.77795" lon="-3.55318">
        <ele>33</ele>
        <time>2019-07-15T12:03:22Z</time>
      </trkpt>
      <trkpt lat="47.7779" lon="-3.55315">
        <ele>33</ele>
        <time>2019-07-15T12:03:23Z</time>
      </trkpt>
      <trkpt lat="47.77786" lon="-3.55314">
        <ele>34</ele>
        <time>2019-07-15T12:03:24Z</time>
      </trkpt>
      <trkpt lat="47.77782" lon="-3.55314">
        <ele>34</ele>
        <time>2019-07-15T12:03:25Z</time>
      </trkpt>
      <trkpt lat="47.77778" lon="-3.55315">
        <ele>34</ele>
        <time>2019-07-15T12:03:26Z</time>
      </trkpt>
      <trkpt lat="47.77773" lon="-3.55317">
        <ele>34</ele>
        <time>2019-07-15T12:03:27Z</time>
      </trkpt>
      <trkpt lat="47.77769" lon="-3.55318">
        <ele>34</ele>
        <time>2019-07-15T12:03:28Z</time>
      </trkpt>
      <trkpt lat="47.77764" lon="-3.5532">
        <ele>34</ele>
        <time>2019-07-15T12:03:29Z</time>
      </trkpt>
      <trkpt lat="47.7776" lon="-3.55321">
        <ele>34</ele>
        <time>2019-07-15T12:03:30Z</time>
      </trkpt>
      <trkpt lat="47.77756" lon="-3.55324">
        <ele>34</ele>
        <time>2019-07-15T12:03:31Z</time>
      </trkpt>
      <trkpt lat="47.77752" lon="-3.55327">
        <ele>35</ele>
        <time>2019-07-15T12:03:32Z</time>
      </trkpt>
      <trkpt lat="47.77749" lon="-3.5533">
        <ele>35</ele>
        <time>2019-07-15T12:03:33Z</time>
      </trkpt>
      <trkpt lat="47.77745" lon="-3.55334">
        <ele>35</ele>
        <time>2019-07-15T12:03:34Z</time>
      </trkpt>
      <trkpt lat="47.7774" lon="-3.55339">
        <ele>35</ele>
        <time>2019-07-15T12:03:35Z</time>
      </trkpt>
      <trkpt lat="47.77735" lon="-3.55343">
        <ele>35</ele>
        <time>2019-07-15T12:03:36Z</time>
      </trkpt>
      <trkpt lat="47.77729" lon="-3.55344">
        <ele>35</ele>
        <time>2019-07-15T12:03:37Z</time>
      </trkpt>
      <trkpt lat="47.77723" lon="-3.55345">
        <ele>35</ele>
        <time>2019-07-15T12:03:38Z</time>
      </trkpt>
      <trkpt lat="47.77717" lon="-3.55346">
        <ele>35</ele>
        <time>2019-07-15T12:03:39Z</time>
      </trkpt>
      <trkpt lat="47.77712" lon="-3.55347">
        <ele>35</ele>
        <time>2019-07-15T12:03:40Z</time>
      </trkpt>
      <trkpt lat="47.77706" lon="-3.55348">
        <ele>35</ele>
        <time>2019-07-15T12:03:41Z</time>
      </trkpt>
      <trkpt lat="47.77701" lon="-3.55349">
        <ele>35</ele>
        <time>2019-07-15T12:03:42Z</time>
      </trkpt>
      <trkpt lat="47.77695" lon="-3.5535">
        <ele>35</ele>
        <time>2019-07-15T12:03:43Z</time>
      </trkpt>
      <trkpt lat="47.7769" lon="-3.5535">
        <ele>35</ele>
        <time>2019-07-15T12:03:44Z</time>
      </trkpt>
      <trkpt lat="47.77686" lon="-3.55351">
        <ele>34</ele>
        <time>2019-07-15T12:03:45Z</time>
      </trkpt>
      <trkpt lat="47.77682" lon="-3.55351">
        <ele>34</ele>
        <time>2019-07-15T12:03:46Z</time>
      </trkpt>
      <trkpt lat="47.77679" lon="-3.55352">
        <ele>34</ele>
        <time>2019-07-15T12:03:47Z</time>
      </trkpt>
      <trkpt lat="47.77676" lon="-3.55351">
        <ele>34</ele>
        <time>2019-07-15T12:03:48Z</time>
      </trkpt>
      <trkpt lat="47.77671" lon="-3.55351">
        <ele>34</ele>
        <time>2019-07-15T12:03:49Z</time>
      </trkpt>
      <trkpt lat="47.77667" lon="-3.5535">
        <ele>33</ele>
        <time>2019-07-15T12:03:50Z</time>
      </trkpt>
      <trkpt lat="47.77662" lon="-3.55349">
        <ele>34</ele>
        <time>2019-07-15T12:03:51Z</time>
      </trkpt>
      <trkpt lat="47.77657" lon="-3.55349">
        <ele>34</ele>
        <time>2019-07-15T12:03:52Z</time>
      </trkpt>
      <trkpt lat="47.77653" lon="-3.5535">
        <ele>34</ele>
        <time>2019-07-15T12:03:53Z</time>
      </trkpt>
      <trkpt lat="47.77649" lon="-3.55351">
        <ele>34</ele>
        <time>2019-07-15T12:03:54Z</time>
      </trkpt>
      <trkpt lat="47.77644" lon="-3.55353">
        <ele>34</ele>
        <time>2019-07-15T12:03:55Z</time>
      </trkpt>
      <trkpt lat="47.7764" lon="-3.55355">
        <ele>34</ele>
        <time>2019-07-15T12:03:56Z</time>
      </trkpt>
      <trkpt lat="47.77636" lon="-3.55356">
        <ele>34</ele>
        <time>2019-07-15T12:03:57Z</time>
      </trkpt>
      <trkpt lat="47.77632" lon="-3.55358">
        <ele>34</ele>
        <time>2019-07-15T12:03:58Z</time>
      </trkpt>
      <trkpt lat="47.77628" lon="-3.5536">
        <ele>34</ele>
        <time>2019-07-15T12:03:59Z</time>
      </trkpt>
      <trkpt lat="47.77624" lon="-3.55361">
        <ele>34</ele>
        <time>2019-07-15T12:04:00Z</time>
      </trkpt>
      <trkpt lat="47.7762" lon="-3.55363">
        <ele>34</ele>
        <time>2019-07-15T12:04:01Z</time>
      </trkpt>
      <trkpt lat="47.77615" lon="-3.55364">
        <ele>35</ele>
        <time>2019-07-15T12:04:02Z</time>
      </trkpt>
      <trkpt lat="47.77611" lon="-3.55366">
        <ele>35</ele>
        <time>2019-07-15T12:04:03Z</time>
      </trkpt>
      <trkpt lat="47.77605" lon="-3.55368">
        <ele>35</ele>
        <time>2019-07-15T12:04:04Z</time>
      </trkpt>
      <trkpt lat="47.77601" lon="-3.55369">
        <ele>35</ele>
        <time>2019-07-15T12:04:05Z</time>
      </trkpt>
      <trkpt lat="47.77595" lon="-3.5537">
        <ele>35</ele>
        <time>2019-07-15T12:04:06Z</time>
      </trkpt>
      <trkpt lat="47.77591" lon="-3.55371">
        <ele>35</ele>
        <time>2019-07-15T12:04:07Z</time>
      </trkpt>
      <trkpt lat="47.77585" lon="-3.55372">
        <ele>35</ele>
        <time>2019-07-15T12:04:08Z</time>
      </trkpt>
      <trkpt lat="47.7758" lon="-3.55372">
        <ele>35</ele>
        <time>2019-07-15T12:04:09Z</time>
      </trkpt>
      <trkpt lat="47.77575" lon="-3.55372">
        <ele>35</ele>
        <time>2019-07-15T12:04:10Z</time>
      </trkpt>
      <trkpt lat="47.77569" lon="-3.55371">
        <ele>36</ele>
        <time>2019-07-15T12:04:11Z</time>
      </trkpt>
      <trkpt lat="47.77564" lon="-3.55372">
        <ele>36</ele>
        <time>2019-07-15T12:04:12Z</time>
      </trkpt>
      <trkpt lat="47.77559" lon="-3.55373">
        <ele>36</ele>
        <time>2019-07-15T12:04:13Z</time>
      </trkpt>
      <trkpt lat="47.77555" lon="-3.55374">
        <ele>36</ele>
        <time>2019-07-15T12:04:14Z</time>
      </trkpt>
      <trkpt lat="47.77552" lon="-3.55375">
        <ele>36</ele>
        <time>2019-07-15T12:04:15Z</time>
      </trkpt>
      <trkpt lat="47.77547" lon="-3.55377">
        <ele>36</ele>
        <time>2019-07-15T12:04:16Z</time>
      </trkpt>
      <trkpt lat="47.77542" lon="-3.55378">
        <ele>36</ele>
        <time>2019-07-15T12:04:17Z</time>
      </trkpt>
      <trkpt lat="47.77538" lon="-3.55379">
        <ele>36</ele>
        <time>2019-07-15T12:04:18Z</time>
      </trkpt>
      <trkpt lat="47.77533" lon="-3.5538">
        <ele>36</ele>
        <time>2019-07-15T12:04:19Z</time>
      </trkpt>
      <trkpt lat="47.77527" lon="-3.55381">
        <ele>36</ele>
        <time>2019-07-15T12:04:20Z</time>
      </trkpt>
      <trkpt lat="47.77523" lon="-3.55381">
        <ele>37</ele>
        <time>2019-07-15T12:04:21Z</time>
      </trkpt>
      <trkpt lat="47.77518" lon="-3.5538">
        <ele>37</ele>
        <time>2019-07-15T12:04:22Z</time>
      </trkpt>
      <trkpt lat="47.77513" lon="-3.55377">
        <ele>37</ele>
        <time>2019-07-15T12:04:23Z</time>
      </trkpt>
      <trkpt lat="47.7751" lon="-3.55373">
        <ele>37</ele>
        <time>2019-07-15T12:04:24Z</time>
      </trkpt>
      <trkpt lat="47.77506" lon="-3.55369">
        <ele>37</ele>
        <time>2019-07-15T12:04:25Z</time>
      </trkpt>
      <trkpt lat="47.77501" lon="-3.55365">
        <ele>37</ele>
        <time>2019-07-15T12:04:26Z</time>
      </trkpt>
      <trkpt lat="47.77497" lon="-3.55361">
        <ele>37</ele>
        <time>2019-07-15T12:04:27Z</time>
      </trkpt>
      <trkpt lat="47.77492" lon="-3.55357">
        <ele>37</ele>
        <time>2019-07-15T12:04:28Z</time>
      </trkpt>
      <trkpt lat="47.77487" lon="-3.55352">
        <ele>37</ele>
        <time>2019-07-15T12:04:29Z</time>
      </trkpt>
      <trkpt lat="47.77483" lon="-3.55347">
        <ele>37</ele>
        <time>2019-07-15T12:04:30Z</time>
      </trkpt>
      <trkpt lat="47.77478" lon="-3.55342">
        <ele>37</ele>
        <time>2019-07-15T12:04:31Z</time>
      </trkpt>
      <trkpt lat="47.77473" lon="-3.55338">
        <ele>37</ele>
        <time>2019-07-15T12:04:32Z</time>
      </trkpt>
      <trkpt lat="47.77469" lon="-3.55333">
        <ele>37</ele>
        <time>2019-07-15T12:04:33Z</time>
      </trkpt>
      <trkpt lat="47.77464" lon="-3.55329">
        <ele>37</ele>
        <time>2019-07-15T12:04:34Z</time>
      </trkpt>
      <trkpt lat="47.77459" lon="-3.55325">
        <ele>36</ele>
        <time>2019-07-15T12:04:35Z</time>
      </trkpt>
      <trkpt lat="47.77454" lon="-3.5532">
        <ele>36</ele>
        <time>2019-07-15T12:04:36Z</time>
      </trkpt>
      <trkpt lat="47.77449" lon="-3.55316">
        <ele>36</ele>
        <time>2019-07-15T12:04:37Z</time>
      </trkpt>
      <trkpt lat="47.77444" lon="-3.55312">
        <ele>36</ele>
        <time>2019-07-15T12:04:38Z</time>
      </trkpt>
      <trkpt lat="47.77439" lon="-3.55308">
        <ele>36</ele>
        <time>2019-07-15T12:04:39Z</time>
      </trkpt>
      <trkpt lat="47.77434" lon="-3.55303">
        <ele>36</ele>
        <time>2019-07-15T12:04:40Z</time>
      </trkpt>
      <trkpt lat="47.77429" lon="-3.55298">
        <ele>36</ele>
        <time>2019-07-15T12:04:41Z</time>
      </trkpt>
      <trkpt lat="47.77425" lon="-3.55294">
        <ele>36</ele>
        <time>2019-07-15T12:04:42Z</time>
      </trkpt>
      <trkpt lat="47.7742" lon="-3.5529">
        <ele>36</ele>
        <time>2019-07-15T12:04:43Z</time>
      </trkpt>
      <trkpt lat="47.77416" lon="-3.55286">
        <ele>36</ele>
        <time>2019-07-15T12:04:44Z</time>
      </trkpt>
      <trkpt lat="47.77412" lon="-3.55282">
        <ele>36</ele>
        <time>2019-07-15T12:04:45Z</time>
      </trkpt>
      <trkpt lat="47.77407" lon="-3.55278">
        <ele>36</ele>
        <time>2019-07-15T12:04:46Z</time>
      </trkpt>
      <trkpt lat="47.77402" lon="-3.55273">
        <ele>36</ele>
        <time>2019-07-15T12:04:47Z</time>
      </trkpt>
      <trkpt lat="47.77397" lon="-3.55268">
        <ele>36</ele>
        <time>2019-07-15T12:04:48Z</time>
      </trkpt>
      <trkpt lat="47.77392" lon="-3.55263">
        <ele>36</ele>
        <time>2019-07-15T12:04:49Z</time>
      </trkpt>
      <trkpt lat="47.77387" lon="-3.55259">
        <ele>36</ele>
        <time>2019-07-15T12:04:50Z</time>
      </trkpt>
      <trkpt lat="47.77382" lon="-3.55254">
        <ele>37</ele>
        <time>2019-07-15T12:04:51Z</time>
      </trkpt>
      <trkpt lat="47.77378" lon="-3.5525">
        <ele>37</ele>
        <time>2019-07-15T12:04:52Z</time>
      </trkpt>
      <trkpt lat="47.77373" lon="-3.55245">
        <ele>37</ele>
        <time>2019-07-15T12:04:53Z</time>
      </trkpt>
      <trkpt lat="47.77368" lon="-3.5524">
        <ele>37</ele>
        <time>2019-07-15T12:04:54Z</time>
      </trkpt>
      <trkpt lat="47.77364" lon="-3.55236">
        <ele>37</ele>
        <time>2019-07-15T12:04:55Z</time>
      </trkpt>
      <trkpt lat="47.77359" lon="-3.55231">
        <ele>36</ele>
        <time>2019-07-15T12:04:56Z</time>
      </trkpt>
      <trkpt lat="47.77354" lon="-3.55228">
        <ele>36</ele>
        <time>2019-07-15T12:04:57Z</time>
      </trkpt>
      <trkpt lat="47.77349" lon="-3.55224">
        <ele>36</ele>
        <time>2019-07-15T12:04:58Z</time>
      </trkpt>
      <trkpt lat="47.77345" lon="-3.5522">
        <ele>36</ele>
        <time>2019-07-15T12:04:59Z</time>
      </trkpt>
      <trkpt lat="47.77342" lon="-3.55216">
        <ele>36</ele>
        <time>2019-07-15T12:05:00Z</time>
      </trkpt>
      <trkpt lat="47.77339" lon="-3.55214">
        <ele>36</ele>
        <time>2019-07-15T12:05:01Z</time>
      </trkpt>
      <trkpt lat="47.77336" lon="-3.55211">
        <ele>36</ele>
        <time>2019-07-15T12:05:02Z</time>
      </trkpt>
      <trkpt lat="47.77333" lon="-3.55208">
        <ele>36</ele>
        <time>2019-07-15T12:05:03Z</time>
      </trkpt>
      <trkpt lat="47.7733" lon="-3.55206">
        <ele>37</ele>
        <time>2019-07-15T12:05:04Z</time>
      </trkpt>
      <trkpt lat="47.77328" lon="-3.55205">
        <ele>37</ele>
        <time>2019-07-15T12:05:05Z</time>
      </trkpt>
      <trkpt lat="47.77324" lon="-3.55202">
        <ele>37</ele>
        <time>2019-07-15T12:05:06Z</time>
      </trkpt>
      <trkpt lat="47.7732" lon="-3.55199">
        <ele>37</ele>
        <time>2019-07-15T12:05:07Z</time>
      </trkpt>
      <trkpt lat="47.77316" lon="-3.55195">
        <ele>37</ele>
        <time>2019-07-15T12:05:08Z</time>
      </trkpt>
      <trkpt lat="47.77312" lon="-3.55193">
        <ele>37</ele>
        <time>2019-07-15T12:05:09Z</time>
      </trkpt>
      <trkpt lat="47.77307" lon="-3.5519">
        <ele>37</ele>
        <time>2019-07-15T12:05:10Z</time>
      </trkpt>
      <trkpt lat="47.77303" lon="-3.55188">
        <ele>37</ele>
        <time>2019-07-15T12:05:11Z</time>
      </trkpt>
      <trkpt lat="47.77299" lon="-3.55186">
        <ele>37</ele>
        <time>2019-07-15T12:05:12Z</time>
      </trkpt>
      <trkpt lat="47.77294" lon="-3.55184">
        <ele>37</ele>
        <time>2019-07-15T12:05:13Z</time>
      </trkpt>
      <trkpt lat="47.7729" lon="-3.55181">
        <ele>37</ele>
        <time>2019-07-15T12:05:14Z</time>
      </trkpt>
      <trkpt lat="47.77289" lon="-3.55177">
        <ele>36</ele>
        <time>2019-07-15T12:05:15Z</time>
      </trkpt>
      <trkpt lat="47.77287" lon="-3.55172">
        <ele>36</ele>
        <time>2019-07-15T12:05:16Z</time>
      </trkpt>
      <trkpt lat="47.77287" lon="-3.55167">
        <ele>36</ele>
        <time>2019-07-15T12:05:17Z</time>
      </trkpt>
      <trkpt lat="47.77287" lon="-3.5516">
        <ele>36</ele>
        <time>2019-07-15T12:05:18Z</time>
      </trkpt>
      <trkpt lat="47.77286" lon="-3.55154">
        <ele>36</ele>
        <time>2019-07-15T12:05:19Z</time>
      </trkpt>
      <trkpt lat="47.77286" lon="-3.55148">
        <ele>36</ele>
        <time>2019-07-15T12:05:20Z</time>
      </trkpt>
      <trkpt lat="47.77286" lon="-3.55141">
        <ele>36</ele>
        <time>2019-07-15T12:05:21Z</time>
      </trkpt>
      <trkpt lat="47.77285" lon="-3.55135">
        <ele>36</ele>
        <time>2019-07-15T12:05:22Z</time>
      </trkpt>
      <trkpt lat="47.77285" lon="-3.5513">
        <ele>36</ele>
        <time>2019-07-15T12:05:23Z</time>
      </trkpt>
      <trkpt lat="47.77284" lon="-3.55123">
        <ele>36</ele>
        <time>2019-07-15T12:05:24Z</time>
      </trkpt>
      <trkpt lat="47.77284" lon="-3.55115">
        <ele>35</ele>
        <time>2019-07-15T12:05:25Z</time>
      </trkpt>
      <trkpt lat="47.77284" lon="-3.55107">
        <ele>35</ele>
        <time>2019-07-15T12:05:26Z</time>
      </trkpt>
      <trkpt lat="47.77284" lon="-3.55099">
        <ele>35</ele>
        <time>2019-07-15T12:05:27Z</time>
      </trkpt>
      <trkpt lat="47.77285" lon="-3.55093">
        <ele>35</ele>
        <time>2019-07-15T12:05:28Z</time>
      </trkpt>
      <trkpt lat="47.77285" lon="-3.55088">
        <ele>35</ele>
        <time>2019-07-15T12:05:29Z</time>
      </trkpt>
      <trkpt lat="47.77283" lon="-3.55085">
        <ele>34</ele>
        <time>2019-07-15T12:05:30Z</time>
      </trkpt>
      <trkpt lat="47.77281" lon="-3.55084">
        <ele>34</ele>
        <time>2019-07-15T12:05:31Z</time>
      </trkpt>
      <trkpt lat="47.77279" lon="-3.55086">
        <ele>34</ele>
        <time>2019-07-15T12:05:32Z</time>
      </trkpt>
      <trkpt lat="47.77278" lon="-3.55089">
        <ele>34</ele>
        <time>2019-07-15T12:05:33Z</time>
      </trkpt>
      <trkpt lat="47.77278" lon="-3.55093">
        <ele>34</ele>
        <time>2019-07-15T12:05:34Z</time>
      </trkpt>
      <trkpt lat="47.77277" lon="-3.55097">
        <ele>34</ele>
        <time>2019-07-15T12:05:35Z</time>
      </trkpt>
      <trkpt lat="47.77276" lon="-3.55099">
        <ele>34</ele>
        <time>2019-07-15T12:05:36Z</time>
      </trkpt>
      <trkpt lat="47.77275" lon="-3.551">
        <ele>34</ele>
        <time>2019-07-15T12:05:37Z</time>
      </trkpt>
      <trkpt lat="47.77273" lon="-3.55101">
        <ele>34</ele>
        <time>2019-07-15T12:05:38Z</time>
      </trkpt>
      <trkpt lat="47.77272" lon="-3.55101">
        <ele>34</ele>
        <time>2019-07-15T12:05:39Z</time>
      </trkpt>
      <trkpt lat="47.7727" lon="-3.551">
        <ele>34</ele>
        <time>2019-07-15T12:05:40Z</time>
      </trkpt>
      <trkpt lat="47.7727" lon="-3.551">
        <ele>34</ele>
        <time>2019-07-15T12:05:41Z</time>
      </trkpt>
      <trkpt lat="47.77269" lon="-3.551">
        <ele>34</ele>
        <time>2019-07-15T12:05:42Z</time>
      </trkpt>
    </trkseg>
  </trk>
</gpx>